<?xml version="1.0" encoding="UTF-8" standalone="no" ?>
<gpx xmlns="http://www.topografix.com/GPX/1/1" xmlns:xsi="http://www.w3.org/2001/XMLSchema-instance" xsi:schemaLocation="http://www.topografix.com/GPX/1/1 http://www.topografix.com/GPX/1/1/gpx.xsd" version="1.1" creator="VisuGPX - https://www.visugpx.com">
  <metadata>
    <name>Lyon - Zurich</name>
    <desc><![CDATA[Created with GOTOES STRAVA TOOLS Version 17.6]]></desc>
  </metadata>
  <trk>
    <name><![CDATA[Lyon - Zurich]]></name>
    <trkseg>
      <trkpt lat="45.75771" lon="4.89207">
        <ele>183.3</ele>
        <time>2022-09-24T09:02:36Z</time>
      </trkpt>
      <trkpt lat="45.75773" lon="4.89203">
        <ele>183.3</ele>
        <time>2022-09-24T09:02:37Z</time>
      </trkpt>
      <trkpt lat="45.75775" lon="4.892">
        <ele>183.3</ele>
        <time>2022-09-24T09:02:38Z</time>
      </trkpt>
      <trkpt lat="45.75773" lon="4.89203">
        <ele>183.3</ele>
        <time>2022-09-24T09:02:39Z</time>
      </trkpt>
      <trkpt lat="45.75772" lon="4.89204">
        <ele>183.3</ele>
        <time>2022-09-24T09:02:40Z</time>
      </trkpt>
      <trkpt lat="45.75772" lon="4.89205">
        <ele>183.3</ele>
        <time>2022-09-24T09:02:41Z</time>
      </trkpt>
      <trkpt lat="45.75771" lon="4.89205">
        <ele>183.3</ele>
        <time>2022-09-24T09:02:42Z</time>
      </trkpt>
      <trkpt lat="45.75769" lon="4.89206">
        <ele>183.2</ele>
        <time>2022-09-24T09:02:43Z</time>
      </trkpt>
      <trkpt lat="45.75769" lon="4.89207">
        <ele>183.2</ele>
        <time>2022-09-24T09:02:44Z</time>
      </trkpt>
      <trkpt lat="45.7577" lon="4.89207">
        <ele>183.2</ele>
        <time>2022-09-24T09:02:45Z</time>
      </trkpt>
      <trkpt lat="45.75771" lon="4.89207">
        <ele>183.2</ele>
        <time>2022-09-24T09:02:46Z</time>
      </trkpt>
      <trkpt lat="45.75772" lon="4.89206">
        <ele>183.2</ele>
        <time>2022-09-24T09:02:47Z</time>
      </trkpt>
      <trkpt lat="45.75774" lon="4.89206">
        <ele>183.2</ele>
        <time>2022-09-24T09:02:48Z</time>
      </trkpt>
      <trkpt lat="45.75775" lon="4.89207">
        <ele>183.2</ele>
        <time>2022-09-24T09:02:49Z</time>
      </trkpt>
      <trkpt lat="45.75777" lon="4.89206">
        <ele>183.2</ele>
        <time>2022-09-24T09:02:50Z</time>
      </trkpt>
      <trkpt lat="45.7578" lon="4.89207">
        <ele>183.2</ele>
        <time>2022-09-24T09:02:51Z</time>
      </trkpt>
      <trkpt lat="45.7578" lon="4.89206">
        <ele>183.2</ele>
        <time>2022-09-24T09:02:52Z</time>
      </trkpt>
      <trkpt lat="45.75781" lon="4.89205">
        <ele>183.2</ele>
        <time>2022-09-24T09:02:53Z</time>
      </trkpt>
      <trkpt lat="45.75784" lon="4.89205">
        <ele>183.2</ele>
        <time>2022-09-24T09:02:54Z</time>
      </trkpt>
      <trkpt lat="45.75788" lon="4.89206">
        <ele>183.2</ele>
        <time>2022-09-24T09:02:55Z</time>
      </trkpt>
      <trkpt lat="45.75791" lon="4.89206">
        <ele>183.2</ele>
        <time>2022-09-24T09:02:56Z</time>
      </trkpt>
      <trkpt lat="45.75794" lon="4.89205">
        <ele>183.2</ele>
        <time>2022-09-24T09:02:57Z</time>
      </trkpt>
      <trkpt lat="45.75798" lon="4.89206">
        <ele>183.2</ele>
        <time>2022-09-24T09:02:58Z</time>
      </trkpt>
      <trkpt lat="45.75802" lon="4.89204">
        <ele>183.2</ele>
        <time>2022-09-24T09:02:59Z</time>
      </trkpt>
      <trkpt lat="45.75803" lon="4.89204">
        <ele>183.2</ele>
        <time>2022-09-24T09:03:00Z</time>
      </trkpt>
      <trkpt lat="45.75806" lon="4.89204">
        <ele>183.2</ele>
        <time>2022-09-24T09:03:01Z</time>
      </trkpt>
      <trkpt lat="45.7581" lon="4.89204">
        <ele>183.2</ele>
        <time>2022-09-24T09:03:02Z</time>
      </trkpt>
      <trkpt lat="45.75811" lon="4.89204">
        <ele>183.2</ele>
        <time>2022-09-24T09:03:03Z</time>
      </trkpt>
      <trkpt lat="45.75814" lon="4.89205">
        <ele>183.2</ele>
        <time>2022-09-24T09:03:04Z</time>
      </trkpt>
      <trkpt lat="45.75815" lon="4.89207">
        <ele>183.2</ele>
        <time>2022-09-24T09:03:05Z</time>
      </trkpt>
      <trkpt lat="45.75818" lon="4.89206">
        <ele>183.2</ele>
        <time>2022-09-24T09:03:06Z</time>
      </trkpt>
      <trkpt lat="45.7582" lon="4.89206">
        <ele>183.2</ele>
        <time>2022-09-24T09:03:07Z</time>
      </trkpt>
      <trkpt lat="45.75823" lon="4.89204">
        <ele>183.1</ele>
        <time>2022-09-24T09:03:08Z</time>
      </trkpt>
      <trkpt lat="45.75824" lon="4.89203">
        <ele>183.1</ele>
        <time>2022-09-24T09:03:09Z</time>
      </trkpt>
      <trkpt lat="45.75827" lon="4.89203">
        <ele>183.1</ele>
        <time>2022-09-24T09:03:10Z</time>
      </trkpt>
      <trkpt lat="45.75832" lon="4.89204">
        <ele>183.1</ele>
        <time>2022-09-24T09:03:11Z</time>
      </trkpt>
      <trkpt lat="45.75836" lon="4.89205">
        <ele>183</ele>
        <time>2022-09-24T09:03:12Z</time>
      </trkpt>
      <trkpt lat="45.75842" lon="4.89205">
        <ele>183</ele>
        <time>2022-09-24T09:03:13Z</time>
      </trkpt>
      <trkpt lat="45.75845" lon="4.89203">
        <ele>183</ele>
        <time>2022-09-24T09:03:14Z</time>
      </trkpt>
      <trkpt lat="45.75849" lon="4.89202">
        <ele>183</ele>
        <time>2022-09-24T09:03:15Z</time>
      </trkpt>
      <trkpt lat="45.75852" lon="4.892">
        <ele>182.9</ele>
        <time>2022-09-24T09:03:16Z</time>
      </trkpt>
      <trkpt lat="45.75854" lon="4.89199">
        <ele>182.9</ele>
        <time>2022-09-24T09:03:17Z</time>
      </trkpt>
      <trkpt lat="45.75857" lon="4.89201">
        <ele>182.9</ele>
        <time>2022-09-24T09:03:18Z</time>
      </trkpt>
      <trkpt lat="45.7586" lon="4.89201">
        <ele>182.9</ele>
        <time>2022-09-24T09:03:19Z</time>
      </trkpt>
      <trkpt lat="45.75861" lon="4.89201">
        <ele>182.9</ele>
        <time>2022-09-24T09:03:20Z</time>
      </trkpt>
      <trkpt lat="45.75866" lon="4.892">
        <ele>182.8</ele>
        <time>2022-09-24T09:03:21Z</time>
      </trkpt>
      <trkpt lat="45.7587" lon="4.89199">
        <ele>182.8</ele>
        <time>2022-09-24T09:03:22Z</time>
      </trkpt>
      <trkpt lat="45.75871" lon="4.89199">
        <ele>182.8</ele>
        <time>2022-09-24T09:03:23Z</time>
      </trkpt>
      <trkpt lat="45.75874" lon="4.89196">
        <ele>182.8</ele>
        <time>2022-09-24T09:03:24Z</time>
      </trkpt>
      <trkpt lat="45.75878" lon="4.89196">
        <ele>182.7</ele>
        <time>2022-09-24T09:03:25Z</time>
      </trkpt>
      <trkpt lat="45.75883" lon="4.89195">
        <ele>182.7</ele>
        <time>2022-09-24T09:03:26Z</time>
      </trkpt>
      <trkpt lat="45.75887" lon="4.89193">
        <ele>182.7</ele>
        <time>2022-09-24T09:03:27Z</time>
      </trkpt>
      <trkpt lat="45.75892" lon="4.89192">
        <ele>182.6</ele>
        <time>2022-09-24T09:03:28Z</time>
      </trkpt>
      <trkpt lat="45.75894" lon="4.8919">
        <ele>182.6</ele>
        <time>2022-09-24T09:03:29Z</time>
      </trkpt>
      <trkpt lat="45.75897" lon="4.89188">
        <ele>182.6</ele>
        <time>2022-09-24T09:03:30Z</time>
      </trkpt>
      <trkpt lat="45.75902" lon="4.89185">
        <ele>182.6</ele>
        <time>2022-09-24T09:03:31Z</time>
      </trkpt>
      <trkpt lat="45.75906" lon="4.89184">
        <ele>182.6</ele>
        <time>2022-09-24T09:03:32Z</time>
      </trkpt>
      <trkpt lat="45.75912" lon="4.89184">
        <ele>182.6</ele>
        <time>2022-09-24T09:03:33Z</time>
      </trkpt>
      <trkpt lat="45.75915" lon="4.89184">
        <ele>182.5</ele>
        <time>2022-09-24T09:03:34Z</time>
      </trkpt>
      <trkpt lat="45.75919" lon="4.89183">
        <ele>182.5</ele>
        <time>2022-09-24T09:03:35Z</time>
      </trkpt>
      <trkpt lat="45.75922" lon="4.89182">
        <ele>182.4</ele>
        <time>2022-09-24T09:03:36Z</time>
      </trkpt>
      <trkpt lat="45.75925" lon="4.89181">
        <ele>182.4</ele>
        <time>2022-09-24T09:03:37Z</time>
      </trkpt>
      <trkpt lat="45.75929" lon="4.89181">
        <ele>182.4</ele>
        <time>2022-09-24T09:03:38Z</time>
      </trkpt>
      <trkpt lat="45.75932" lon="4.89181">
        <ele>182.4</ele>
        <time>2022-09-24T09:03:39Z</time>
      </trkpt>
      <trkpt lat="45.75935" lon="4.89183">
        <ele>182.4</ele>
        <time>2022-09-24T09:03:40Z</time>
      </trkpt>
      <trkpt lat="45.75938" lon="4.89184">
        <ele>182.4</ele>
        <time>2022-09-24T09:03:41Z</time>
      </trkpt>
      <trkpt lat="45.75941" lon="4.89186">
        <ele>182.5</ele>
        <time>2022-09-24T09:03:42Z</time>
      </trkpt>
      <trkpt lat="45.75942" lon="4.89186">
        <ele>182.5</ele>
        <time>2022-09-24T09:03:43Z</time>
      </trkpt>
      <trkpt lat="45.75944" lon="4.89185">
        <ele>182.5</ele>
        <time>2022-09-24T09:03:44Z</time>
      </trkpt>
      <trkpt lat="45.75945" lon="4.89187">
        <ele>182.5</ele>
        <time>2022-09-24T09:03:45Z</time>
      </trkpt>
      <trkpt lat="45.75947" lon="4.8919">
        <ele>182.5</ele>
        <time>2022-09-24T09:03:46Z</time>
      </trkpt>
      <trkpt lat="45.75949" lon="4.89195">
        <ele>182.6</ele>
        <time>2022-09-24T09:03:47Z</time>
      </trkpt>
      <trkpt lat="45.7595" lon="4.892">
        <ele>182.6</ele>
        <time>2022-09-24T09:03:48Z</time>
      </trkpt>
      <trkpt lat="45.7595" lon="4.89205">
        <ele>182.6</ele>
        <time>2022-09-24T09:03:49Z</time>
      </trkpt>
      <trkpt lat="45.7595" lon="4.89209">
        <ele>182.6</ele>
        <time>2022-09-24T09:03:50Z</time>
      </trkpt>
      <trkpt lat="45.75951" lon="4.89214">
        <ele>182.6</ele>
        <time>2022-09-24T09:03:51Z</time>
      </trkpt>
      <trkpt lat="45.75952" lon="4.8922">
        <ele>182.6</ele>
        <time>2022-09-24T09:03:52Z</time>
      </trkpt>
      <trkpt lat="45.75952" lon="4.89224">
        <ele>182.6</ele>
        <time>2022-09-24T09:03:53Z</time>
      </trkpt>
      <trkpt lat="45.75951" lon="4.8923">
        <ele>182.7</ele>
        <time>2022-09-24T09:03:54Z</time>
      </trkpt>
      <trkpt lat="45.75951" lon="4.89234">
        <ele>182.7</ele>
        <time>2022-09-24T09:03:55Z</time>
      </trkpt>
      <trkpt lat="45.75953" lon="4.89241">
        <ele>182.7</ele>
        <time>2022-09-24T09:03:56Z</time>
      </trkpt>
      <trkpt lat="45.75954" lon="4.89246">
        <ele>182.7</ele>
        <time>2022-09-24T09:03:57Z</time>
      </trkpt>
      <trkpt lat="45.75956" lon="4.89252">
        <ele>182.7</ele>
        <time>2022-09-24T09:03:58Z</time>
      </trkpt>
      <trkpt lat="45.75957" lon="4.89258">
        <ele>182.7</ele>
        <time>2022-09-24T09:03:59Z</time>
      </trkpt>
      <trkpt lat="45.75958" lon="4.89264">
        <ele>182.7</ele>
        <time>2022-09-24T09:04:00Z</time>
      </trkpt>
      <trkpt lat="45.75959" lon="4.89269">
        <ele>182.7</ele>
        <time>2022-09-24T09:04:01Z</time>
      </trkpt>
      <trkpt lat="45.75959" lon="4.89277">
        <ele>182.8</ele>
        <time>2022-09-24T09:04:02Z</time>
      </trkpt>
      <trkpt lat="45.75959" lon="4.89283">
        <ele>182.8</ele>
        <time>2022-09-24T09:04:03Z</time>
      </trkpt>
      <trkpt lat="45.75962" lon="4.89289">
        <ele>182.8</ele>
        <time>2022-09-24T09:04:04Z</time>
      </trkpt>
      <trkpt lat="45.75961" lon="4.89295">
        <ele>182.8</ele>
        <time>2022-09-24T09:04:05Z</time>
      </trkpt>
      <trkpt lat="45.75961" lon="4.893">
        <ele>182.8</ele>
        <time>2022-09-24T09:04:06Z</time>
      </trkpt>
      <trkpt lat="45.75962" lon="4.89307">
        <ele>182.8</ele>
        <time>2022-09-24T09:04:07Z</time>
      </trkpt>
      <trkpt lat="45.75963" lon="4.89312">
        <ele>182.8</ele>
        <time>2022-09-24T09:04:08Z</time>
      </trkpt>
      <trkpt lat="45.75964" lon="4.89319">
        <ele>182.8</ele>
        <time>2022-09-24T09:04:09Z</time>
      </trkpt>
      <trkpt lat="45.75966" lon="4.89326">
        <ele>182.9</ele>
        <time>2022-09-24T09:04:10Z</time>
      </trkpt>
      <trkpt lat="45.75966" lon="4.89335">
        <ele>182.9</ele>
        <time>2022-09-24T09:04:11Z</time>
      </trkpt>
      <trkpt lat="45.75968" lon="4.89341">
        <ele>182.9</ele>
        <time>2022-09-24T09:04:12Z</time>
      </trkpt>
      <trkpt lat="45.7597" lon="4.89349">
        <ele>182.9</ele>
        <time>2022-09-24T09:04:13Z</time>
      </trkpt>
      <trkpt lat="45.7597" lon="4.89358">
        <ele>182.9</ele>
        <time>2022-09-24T09:04:14Z</time>
      </trkpt>
      <trkpt lat="45.75971" lon="4.89364">
        <ele>182.9</ele>
        <time>2022-09-24T09:04:15Z</time>
      </trkpt>
      <trkpt lat="45.75972" lon="4.89369">
        <ele>182.9</ele>
        <time>2022-09-24T09:04:16Z</time>
      </trkpt>
      <trkpt lat="45.75974" lon="4.89378">
        <ele>182.9</ele>
        <time>2022-09-24T09:04:17Z</time>
      </trkpt>
      <trkpt lat="45.75975" lon="4.89387">
        <ele>182.9</ele>
        <time>2022-09-24T09:04:18Z</time>
      </trkpt>
      <trkpt lat="45.75975" lon="4.89397">
        <ele>182.9</ele>
        <time>2022-09-24T09:04:19Z</time>
      </trkpt>
      <trkpt lat="45.75976" lon="4.89404">
        <ele>182.9</ele>
        <time>2022-09-24T09:04:20Z</time>
      </trkpt>
      <trkpt lat="45.75977" lon="4.89411">
        <ele>183</ele>
        <time>2022-09-24T09:04:21Z</time>
      </trkpt>
      <trkpt lat="45.75977" lon="4.89418">
        <ele>183</ele>
        <time>2022-09-24T09:04:22Z</time>
      </trkpt>
      <trkpt lat="45.75976" lon="4.89427">
        <ele>183</ele>
        <time>2022-09-24T09:04:23Z</time>
      </trkpt>
      <trkpt lat="45.75977" lon="4.89435">
        <ele>183</ele>
        <time>2022-09-24T09:04:24Z</time>
      </trkpt>
      <trkpt lat="45.75978" lon="4.89442">
        <ele>183</ele>
        <time>2022-09-24T09:04:25Z</time>
      </trkpt>
      <trkpt lat="45.7598" lon="4.89449">
        <ele>183</ele>
        <time>2022-09-24T09:04:26Z</time>
      </trkpt>
      <trkpt lat="45.7598" lon="4.89455">
        <ele>183.1</ele>
        <time>2022-09-24T09:04:27Z</time>
      </trkpt>
      <trkpt lat="45.7598" lon="4.89464">
        <ele>183.1</ele>
        <time>2022-09-24T09:04:28Z</time>
      </trkpt>
      <trkpt lat="45.75981" lon="4.89471">
        <ele>183.1</ele>
        <time>2022-09-24T09:04:29Z</time>
      </trkpt>
      <trkpt lat="45.75981" lon="4.89481">
        <ele>183.1</ele>
        <time>2022-09-24T09:04:30Z</time>
      </trkpt>
      <trkpt lat="45.75982" lon="4.89488">
        <ele>183.1</ele>
        <time>2022-09-24T09:04:31Z</time>
      </trkpt>
      <trkpt lat="45.75982" lon="4.89494">
        <ele>183.1</ele>
        <time>2022-09-24T09:04:32Z</time>
      </trkpt>
      <trkpt lat="45.75984" lon="4.89501">
        <ele>183.2</ele>
        <time>2022-09-24T09:04:33Z</time>
      </trkpt>
      <trkpt lat="45.75984" lon="4.89508">
        <ele>183.2</ele>
        <time>2022-09-24T09:04:34Z</time>
      </trkpt>
      <trkpt lat="45.75985" lon="4.89517">
        <ele>183.2</ele>
        <time>2022-09-24T09:04:35Z</time>
      </trkpt>
      <trkpt lat="45.75986" lon="4.89526">
        <ele>183.2</ele>
        <time>2022-09-24T09:04:36Z</time>
      </trkpt>
      <trkpt lat="45.75988" lon="4.89535">
        <ele>183.2</ele>
        <time>2022-09-24T09:04:37Z</time>
      </trkpt>
      <trkpt lat="45.7599" lon="4.89542">
        <ele>183.2</ele>
        <time>2022-09-24T09:04:38Z</time>
      </trkpt>
      <trkpt lat="45.7599" lon="4.89548">
        <ele>183.2</ele>
        <time>2022-09-24T09:04:39Z</time>
      </trkpt>
      <trkpt lat="45.75989" lon="4.89556">
        <ele>183.2</ele>
        <time>2022-09-24T09:04:40Z</time>
      </trkpt>
      <trkpt lat="45.75991" lon="4.89565">
        <ele>183.2</ele>
        <time>2022-09-24T09:04:41Z</time>
      </trkpt>
      <trkpt lat="45.75992" lon="4.89574">
        <ele>183.2</ele>
        <time>2022-09-24T09:04:42Z</time>
      </trkpt>
      <trkpt lat="45.75993" lon="4.8958">
        <ele>183.2</ele>
        <time>2022-09-24T09:04:43Z</time>
      </trkpt>
      <trkpt lat="45.75993" lon="4.89587">
        <ele>183.2</ele>
        <time>2022-09-24T09:04:44Z</time>
      </trkpt>
      <trkpt lat="45.75994" lon="4.89592">
        <ele>183.2</ele>
        <time>2022-09-24T09:04:46Z</time>
      </trkpt>
      <trkpt lat="45.75995" lon="4.89604">
        <ele>183.3</ele>
        <time>2022-09-24T09:04:47Z</time>
      </trkpt>
      <trkpt lat="45.75995" lon="4.89613">
        <ele>183.3</ele>
        <time>2022-09-24T09:04:48Z</time>
      </trkpt>
      <trkpt lat="45.75996" lon="4.8962">
        <ele>183.3</ele>
        <time>2022-09-24T09:04:50Z</time>
      </trkpt>
      <trkpt lat="45.75996" lon="4.89631">
        <ele>183.4</ele>
        <time>2022-09-24T09:04:51Z</time>
      </trkpt>
      <trkpt lat="45.75995" lon="4.89638">
        <ele>183.4</ele>
        <time>2022-09-24T09:04:52Z</time>
      </trkpt>
      <trkpt lat="45.75995" lon="4.89644">
        <ele>183.4</ele>
        <time>2022-09-24T09:04:54Z</time>
      </trkpt>
      <trkpt lat="45.75996" lon="4.89649">
        <ele>183.5</ele>
        <time>2022-09-24T09:04:55Z</time>
      </trkpt>
      <trkpt lat="45.75996" lon="4.89657">
        <ele>183.5</ele>
        <time>2022-09-24T09:04:56Z</time>
      </trkpt>
      <trkpt lat="45.75998" lon="4.89662">
        <ele>183.5</ele>
        <time>2022-09-24T09:04:57Z</time>
      </trkpt>
      <trkpt lat="45.75998" lon="4.89665">
        <ele>183.6</ele>
        <time>2022-09-24T09:04:58Z</time>
      </trkpt>
      <trkpt lat="45.75998" lon="4.8967">
        <ele>183.6</ele>
        <time>2022-09-24T09:04:59Z</time>
      </trkpt>
      <trkpt lat="45.75998" lon="4.89675">
        <ele>183.6</ele>
        <time>2022-09-24T09:05:00Z</time>
      </trkpt>
      <trkpt lat="45.75998" lon="4.89677">
        <ele>183.6</ele>
        <time>2022-09-24T09:05:01Z</time>
      </trkpt>
      <trkpt lat="45.75999" lon="4.89681">
        <ele>183.6</ele>
        <time>2022-09-24T09:05:02Z</time>
      </trkpt>
      <trkpt lat="45.75997" lon="4.89686">
        <ele>183.6</ele>
        <time>2022-09-24T09:05:03Z</time>
      </trkpt>
      <trkpt lat="45.75998" lon="4.89693">
        <ele>183.6</ele>
        <time>2022-09-24T09:05:04Z</time>
      </trkpt>
      <trkpt lat="45.75999" lon="4.89698">
        <ele>183.6</ele>
        <time>2022-09-24T09:05:05Z</time>
      </trkpt>
      <trkpt lat="45.76" lon="4.89703">
        <ele>183.6</ele>
        <time>2022-09-24T09:05:06Z</time>
      </trkpt>
      <trkpt lat="45.76" lon="4.8971">
        <ele>183.5</ele>
        <time>2022-09-24T09:05:07Z</time>
      </trkpt>
      <trkpt lat="45.76001" lon="4.89716">
        <ele>183.5</ele>
        <time>2022-09-24T09:05:08Z</time>
      </trkpt>
      <trkpt lat="45.76001" lon="4.89725">
        <ele>183.4</ele>
        <time>2022-09-24T09:05:09Z</time>
      </trkpt>
      <trkpt lat="45.76002" lon="4.89733">
        <ele>183.3</ele>
        <time>2022-09-24T09:05:10Z</time>
      </trkpt>
      <trkpt lat="45.76002" lon="4.89742">
        <ele>183.3</ele>
        <time>2022-09-24T09:05:11Z</time>
      </trkpt>
      <trkpt lat="45.76004" lon="4.8975">
        <ele>183.3</ele>
        <time>2022-09-24T09:05:12Z</time>
      </trkpt>
      <trkpt lat="45.76004" lon="4.89759">
        <ele>183.3</ele>
        <time>2022-09-24T09:05:13Z</time>
      </trkpt>
      <trkpt lat="45.76005" lon="4.89768">
        <ele>183.3</ele>
        <time>2022-09-24T09:05:14Z</time>
      </trkpt>
      <trkpt lat="45.76004" lon="4.89777">
        <ele>183.3</ele>
        <time>2022-09-24T09:05:15Z</time>
      </trkpt>
      <trkpt lat="45.76004" lon="4.89786">
        <ele>183.3</ele>
        <time>2022-09-24T09:05:16Z</time>
      </trkpt>
      <trkpt lat="45.76006" lon="4.89796">
        <ele>183.3</ele>
        <time>2022-09-24T09:05:17Z</time>
      </trkpt>
      <trkpt lat="45.76005" lon="4.89808">
        <ele>183.3</ele>
        <time>2022-09-24T09:05:18Z</time>
      </trkpt>
      <trkpt lat="45.76006" lon="4.89817">
        <ele>183.3</ele>
        <time>2022-09-24T09:05:19Z</time>
      </trkpt>
      <trkpt lat="45.76006" lon="4.89827">
        <ele>183.3</ele>
        <time>2022-09-24T09:05:20Z</time>
      </trkpt>
      <trkpt lat="45.76008" lon="4.89837">
        <ele>183.3</ele>
        <time>2022-09-24T09:05:21Z</time>
      </trkpt>
      <trkpt lat="45.76008" lon="4.89846">
        <ele>183.4</ele>
        <time>2022-09-24T09:05:22Z</time>
      </trkpt>
      <trkpt lat="45.76008" lon="4.89854">
        <ele>183.4</ele>
        <time>2022-09-24T09:05:23Z</time>
      </trkpt>
      <trkpt lat="45.76009" lon="4.89863">
        <ele>183.4</ele>
        <time>2022-09-24T09:05:24Z</time>
      </trkpt>
      <trkpt lat="45.7601" lon="4.89873">
        <ele>183.4</ele>
        <time>2022-09-24T09:05:25Z</time>
      </trkpt>
      <trkpt lat="45.76012" lon="4.89881">
        <ele>183.4</ele>
        <time>2022-09-24T09:05:26Z</time>
      </trkpt>
      <trkpt lat="45.76013" lon="4.89891">
        <ele>183.5</ele>
        <time>2022-09-24T09:05:27Z</time>
      </trkpt>
      <trkpt lat="45.76015" lon="4.899">
        <ele>183.5</ele>
        <time>2022-09-24T09:05:28Z</time>
      </trkpt>
      <trkpt lat="45.76015" lon="4.89909">
        <ele>183.5</ele>
        <time>2022-09-24T09:05:29Z</time>
      </trkpt>
      <trkpt lat="45.76015" lon="4.89916">
        <ele>183.6</ele>
        <time>2022-09-24T09:05:30Z</time>
      </trkpt>
      <trkpt lat="45.76015" lon="4.89926">
        <ele>183.6</ele>
        <time>2022-09-24T09:05:31Z</time>
      </trkpt>
      <trkpt lat="45.76016" lon="4.89936">
        <ele>183.6</ele>
        <time>2022-09-24T09:05:32Z</time>
      </trkpt>
      <trkpt lat="45.76018" lon="4.89945">
        <ele>183.6</ele>
        <time>2022-09-24T09:05:33Z</time>
      </trkpt>
      <trkpt lat="45.76018" lon="4.89954">
        <ele>183.6</ele>
        <time>2022-09-24T09:05:34Z</time>
      </trkpt>
      <trkpt lat="45.76018" lon="4.89963">
        <ele>183.6</ele>
        <time>2022-09-24T09:05:35Z</time>
      </trkpt>
      <trkpt lat="45.7602" lon="4.89971">
        <ele>183.6</ele>
        <time>2022-09-24T09:05:36Z</time>
      </trkpt>
      <trkpt lat="45.7602" lon="4.89981">
        <ele>183.6</ele>
        <time>2022-09-24T09:05:37Z</time>
      </trkpt>
      <trkpt lat="45.7602" lon="4.89989">
        <ele>183.5</ele>
        <time>2022-09-24T09:05:38Z</time>
      </trkpt>
      <trkpt lat="45.76022" lon="4.89996">
        <ele>183.5</ele>
        <time>2022-09-24T09:05:39Z</time>
      </trkpt>
      <trkpt lat="45.76021" lon="4.90004">
        <ele>183.5</ele>
        <time>2022-09-24T09:05:40Z</time>
      </trkpt>
      <trkpt lat="45.76019" lon="4.9001">
        <ele>183.5</ele>
        <time>2022-09-24T09:05:41Z</time>
      </trkpt>
      <trkpt lat="45.76019" lon="4.90016">
        <ele>183.6</ele>
        <time>2022-09-24T09:05:42Z</time>
      </trkpt>
      <trkpt lat="45.7602" lon="4.90022">
        <ele>183.6</ele>
        <time>2022-09-24T09:05:43Z</time>
      </trkpt>
      <trkpt lat="45.7602" lon="4.90028">
        <ele>183.6</ele>
        <time>2022-09-24T09:05:44Z</time>
      </trkpt>
      <trkpt lat="45.76019" lon="4.90033">
        <ele>183.6</ele>
        <time>2022-09-24T09:05:45Z</time>
      </trkpt>
      <trkpt lat="45.76019" lon="4.90034">
        <ele>183.6</ele>
        <time>2022-09-24T09:05:46Z</time>
      </trkpt>
      <trkpt lat="45.7602" lon="4.90035">
        <ele>183.6</ele>
        <time>2022-09-24T09:05:47Z</time>
      </trkpt>
      <trkpt lat="45.76021" lon="4.90038">
        <ele>183.7</ele>
        <time>2022-09-24T09:05:48Z</time>
      </trkpt>
      <trkpt lat="45.76021" lon="4.9004">
        <ele>183.7</ele>
        <time>2022-09-24T09:05:49Z</time>
      </trkpt>
      <trkpt lat="45.76022" lon="4.90041">
        <ele>183.7</ele>
        <time>2022-09-24T09:05:50Z</time>
      </trkpt>
      <trkpt lat="45.76022" lon="4.90042">
        <ele>183.7</ele>
        <time>2022-09-24T09:05:51Z</time>
      </trkpt>
      <trkpt lat="45.76023" lon="4.90043">
        <ele>183.7</ele>
        <time>2022-09-24T09:05:52Z</time>
      </trkpt>
      <trkpt lat="45.76023" lon="4.90044">
        <ele>183.7</ele>
        <time>2022-09-24T09:05:53Z</time>
      </trkpt>
      <trkpt lat="45.76024" lon="4.90045">
        <ele>183.7</ele>
        <time>2022-09-24T09:05:54Z</time>
      </trkpt>
      <trkpt lat="45.76025" lon="4.90048">
        <ele>183.7</ele>
        <time>2022-09-24T09:05:55Z</time>
      </trkpt>
      <trkpt lat="45.76025" lon="4.90051">
        <ele>183.7</ele>
        <time>2022-09-24T09:05:56Z</time>
      </trkpt>
      <trkpt lat="45.76025" lon="4.90054">
        <ele>183.8</ele>
        <time>2022-09-24T09:05:57Z</time>
      </trkpt>
      <trkpt lat="45.76026" lon="4.90058">
        <ele>183.8</ele>
        <time>2022-09-24T09:05:58Z</time>
      </trkpt>
      <trkpt lat="45.76026" lon="4.90061">
        <ele>183.8</ele>
        <time>2022-09-24T09:06:10Z</time>
      </trkpt>
      <trkpt lat="45.76026" lon="4.90064">
        <ele>183.8</ele>
        <time>2022-09-24T09:06:11Z</time>
      </trkpt>
      <trkpt lat="45.76026" lon="4.90068">
        <ele>183.8</ele>
        <time>2022-09-24T09:06:12Z</time>
      </trkpt>
      <trkpt lat="45.76027" lon="4.90073">
        <ele>183.8</ele>
        <time>2022-09-24T09:06:13Z</time>
      </trkpt>
      <trkpt lat="45.76027" lon="4.90075">
        <ele>183.8</ele>
        <time>2022-09-24T09:06:14Z</time>
      </trkpt>
      <trkpt lat="45.76029" lon="4.9008">
        <ele>183.9</ele>
        <time>2022-09-24T09:06:15Z</time>
      </trkpt>
      <trkpt lat="45.76031" lon="4.90085">
        <ele>183.9</ele>
        <time>2022-09-24T09:06:16Z</time>
      </trkpt>
      <trkpt lat="45.76035" lon="4.90087">
        <ele>183.8</ele>
        <time>2022-09-24T09:06:17Z</time>
      </trkpt>
      <trkpt lat="45.76039" lon="4.90088">
        <ele>183.8</ele>
        <time>2022-09-24T09:06:18Z</time>
      </trkpt>
      <trkpt lat="45.76042" lon="4.90086">
        <ele>183.7</ele>
        <time>2022-09-24T09:06:19Z</time>
      </trkpt>
      <trkpt lat="45.76047" lon="4.90085">
        <ele>183.7</ele>
        <time>2022-09-24T09:06:20Z</time>
      </trkpt>
      <trkpt lat="45.76052" lon="4.90084">
        <ele>183.6</ele>
        <time>2022-09-24T09:06:21Z</time>
      </trkpt>
      <trkpt lat="45.76057" lon="4.90082">
        <ele>183.5</ele>
        <time>2022-09-24T09:06:22Z</time>
      </trkpt>
      <trkpt lat="45.76063" lon="4.90081">
        <ele>183.4</ele>
        <time>2022-09-24T09:06:23Z</time>
      </trkpt>
      <trkpt lat="45.76068" lon="4.9008">
        <ele>183.4</ele>
        <time>2022-09-24T09:06:24Z</time>
      </trkpt>
      <trkpt lat="45.76073" lon="4.90079">
        <ele>183.3</ele>
        <time>2022-09-24T09:06:25Z</time>
      </trkpt>
      <trkpt lat="45.76078" lon="4.90078">
        <ele>183.2</ele>
        <time>2022-09-24T09:06:26Z</time>
      </trkpt>
      <trkpt lat="45.76084" lon="4.90077">
        <ele>183.2</ele>
        <time>2022-09-24T09:06:27Z</time>
      </trkpt>
      <trkpt lat="45.76091" lon="4.90077">
        <ele>183.1</ele>
        <time>2022-09-24T09:06:28Z</time>
      </trkpt>
      <trkpt lat="45.76095" lon="4.90076">
        <ele>183.1</ele>
        <time>2022-09-24T09:06:29Z</time>
      </trkpt>
      <trkpt lat="45.761" lon="4.90074">
        <ele>183.1</ele>
        <time>2022-09-24T09:06:30Z</time>
      </trkpt>
      <trkpt lat="45.76106" lon="4.90072">
        <ele>183</ele>
        <time>2022-09-24T09:06:31Z</time>
      </trkpt>
      <trkpt lat="45.7611" lon="4.9007">
        <ele>183</ele>
        <time>2022-09-24T09:06:32Z</time>
      </trkpt>
      <trkpt lat="45.76117" lon="4.9007">
        <ele>182.9</ele>
        <time>2022-09-24T09:06:33Z</time>
      </trkpt>
      <trkpt lat="45.76123" lon="4.90069">
        <ele>182.9</ele>
        <time>2022-09-24T09:06:34Z</time>
      </trkpt>
      <trkpt lat="45.7613" lon="4.90069">
        <ele>182.8</ele>
        <time>2022-09-24T09:06:35Z</time>
      </trkpt>
      <trkpt lat="45.76134" lon="4.90067">
        <ele>182.8</ele>
        <time>2022-09-24T09:06:36Z</time>
      </trkpt>
      <trkpt lat="45.76141" lon="4.90067">
        <ele>182.7</ele>
        <time>2022-09-24T09:06:37Z</time>
      </trkpt>
      <trkpt lat="45.76146" lon="4.90067">
        <ele>182.7</ele>
        <time>2022-09-24T09:06:38Z</time>
      </trkpt>
      <trkpt lat="45.76152" lon="4.90066">
        <ele>182.6</ele>
        <time>2022-09-24T09:06:39Z</time>
      </trkpt>
      <trkpt lat="45.76157" lon="4.90064">
        <ele>182.6</ele>
        <time>2022-09-24T09:06:40Z</time>
      </trkpt>
      <trkpt lat="45.76163" lon="4.90063">
        <ele>182.5</ele>
        <time>2022-09-24T09:06:41Z</time>
      </trkpt>
      <trkpt lat="45.76167" lon="4.90062">
        <ele>182.5</ele>
        <time>2022-09-24T09:06:42Z</time>
      </trkpt>
      <trkpt lat="45.76172" lon="4.90061">
        <ele>182.4</ele>
        <time>2022-09-24T09:06:43Z</time>
      </trkpt>
      <trkpt lat="45.76177" lon="4.9006">
        <ele>182.4</ele>
        <time>2022-09-24T09:06:44Z</time>
      </trkpt>
      <trkpt lat="45.76183" lon="4.90059">
        <ele>182.4</ele>
        <time>2022-09-24T09:06:45Z</time>
      </trkpt>
      <trkpt lat="45.76189" lon="4.90058">
        <ele>182.4</ele>
        <time>2022-09-24T09:06:46Z</time>
      </trkpt>
      <trkpt lat="45.76195" lon="4.90057">
        <ele>182.4</ele>
        <time>2022-09-24T09:06:47Z</time>
      </trkpt>
      <trkpt lat="45.76201" lon="4.90056">
        <ele>182.3</ele>
        <time>2022-09-24T09:06:48Z</time>
      </trkpt>
      <trkpt lat="45.76207" lon="4.90054">
        <ele>182.3</ele>
        <time>2022-09-24T09:06:49Z</time>
      </trkpt>
      <trkpt lat="45.76213" lon="4.90053">
        <ele>182.3</ele>
        <time>2022-09-24T09:06:50Z</time>
      </trkpt>
      <trkpt lat="45.76218" lon="4.90052">
        <ele>182.3</ele>
        <time>2022-09-24T09:06:51Z</time>
      </trkpt>
      <trkpt lat="45.76226" lon="4.90051">
        <ele>182.2</ele>
        <time>2022-09-24T09:06:52Z</time>
      </trkpt>
      <trkpt lat="45.76232" lon="4.90049">
        <ele>182.2</ele>
        <time>2022-09-24T09:06:54Z</time>
      </trkpt>
      <trkpt lat="45.76238" lon="4.90047">
        <ele>182.2</ele>
        <time>2022-09-24T09:06:55Z</time>
      </trkpt>
      <trkpt lat="45.76244" lon="4.90047">
        <ele>182.1</ele>
        <time>2022-09-24T09:06:56Z</time>
      </trkpt>
      <trkpt lat="45.7625" lon="4.90046">
        <ele>182.1</ele>
        <time>2022-09-24T09:06:57Z</time>
      </trkpt>
      <trkpt lat="45.76256" lon="4.90045">
        <ele>182</ele>
        <time>2022-09-24T09:06:58Z</time>
      </trkpt>
      <trkpt lat="45.76263" lon="4.90044">
        <ele>182</ele>
        <time>2022-09-24T09:06:59Z</time>
      </trkpt>
      <trkpt lat="45.7627" lon="4.90044">
        <ele>182</ele>
        <time>2022-09-24T09:07:00Z</time>
      </trkpt>
      <trkpt lat="45.76276" lon="4.90043">
        <ele>181.9</ele>
        <time>2022-09-24T09:07:01Z</time>
      </trkpt>
      <trkpt lat="45.76282" lon="4.90042">
        <ele>181.9</ele>
        <time>2022-09-24T09:07:02Z</time>
      </trkpt>
      <trkpt lat="45.76288" lon="4.90042">
        <ele>181.9</ele>
        <time>2022-09-24T09:07:03Z</time>
      </trkpt>
      <trkpt lat="45.76293" lon="4.90043">
        <ele>181.9</ele>
        <time>2022-09-24T09:07:04Z</time>
      </trkpt>
      <trkpt lat="45.76299" lon="4.90043">
        <ele>181.9</ele>
        <time>2022-09-24T09:07:05Z</time>
      </trkpt>
      <trkpt lat="45.76304" lon="4.90041">
        <ele>182</ele>
        <time>2022-09-24T09:07:06Z</time>
      </trkpt>
      <trkpt lat="45.7631" lon="4.90041">
        <ele>182</ele>
        <time>2022-09-24T09:07:07Z</time>
      </trkpt>
      <trkpt lat="45.76313" lon="4.90038">
        <ele>182</ele>
        <time>2022-09-24T09:07:08Z</time>
      </trkpt>
      <trkpt lat="45.76319" lon="4.90036">
        <ele>182</ele>
        <time>2022-09-24T09:07:09Z</time>
      </trkpt>
      <trkpt lat="45.76324" lon="4.90039">
        <ele>182</ele>
        <time>2022-09-24T09:07:10Z</time>
      </trkpt>
      <trkpt lat="45.76327" lon="4.90041">
        <ele>181.9</ele>
        <time>2022-09-24T09:07:11Z</time>
      </trkpt>
      <trkpt lat="45.76331" lon="4.90042">
        <ele>181.9</ele>
        <time>2022-09-24T09:07:12Z</time>
      </trkpt>
      <trkpt lat="45.76336" lon="4.90045">
        <ele>181.9</ele>
        <time>2022-09-24T09:07:13Z</time>
      </trkpt>
      <trkpt lat="45.7634" lon="4.90048">
        <ele>181.9</ele>
        <time>2022-09-24T09:07:14Z</time>
      </trkpt>
      <trkpt lat="45.76346" lon="4.9005">
        <ele>181.8</ele>
        <time>2022-09-24T09:07:15Z</time>
      </trkpt>
      <trkpt lat="45.76351" lon="4.90053">
        <ele>181.8</ele>
        <time>2022-09-24T09:07:16Z</time>
      </trkpt>
      <trkpt lat="45.76355" lon="4.90056">
        <ele>181.8</ele>
        <time>2022-09-24T09:07:17Z</time>
      </trkpt>
      <trkpt lat="45.76361" lon="4.90059">
        <ele>181.8</ele>
        <time>2022-09-24T09:07:18Z</time>
      </trkpt>
      <trkpt lat="45.76366" lon="4.90061">
        <ele>181.8</ele>
        <time>2022-09-24T09:07:19Z</time>
      </trkpt>
      <trkpt lat="45.76371" lon="4.90065">
        <ele>181.8</ele>
        <time>2022-09-24T09:07:20Z</time>
      </trkpt>
      <trkpt lat="45.76375" lon="4.90069">
        <ele>181.8</ele>
        <time>2022-09-24T09:07:21Z</time>
      </trkpt>
      <trkpt lat="45.76381" lon="4.90071">
        <ele>181.9</ele>
        <time>2022-09-24T09:07:22Z</time>
      </trkpt>
      <trkpt lat="45.76386" lon="4.90073">
        <ele>181.9</ele>
        <time>2022-09-24T09:07:23Z</time>
      </trkpt>
      <trkpt lat="45.76391" lon="4.90075">
        <ele>181.9</ele>
        <time>2022-09-24T09:07:24Z</time>
      </trkpt>
      <trkpt lat="45.76396" lon="4.9008">
        <ele>182</ele>
        <time>2022-09-24T09:07:25Z</time>
      </trkpt>
      <trkpt lat="45.76401" lon="4.90085">
        <ele>182</ele>
        <time>2022-09-24T09:07:26Z</time>
      </trkpt>
      <trkpt lat="45.76405" lon="4.90089">
        <ele>182</ele>
        <time>2022-09-24T09:07:27Z</time>
      </trkpt>
      <trkpt lat="45.7641" lon="4.90093">
        <ele>182</ele>
        <time>2022-09-24T09:07:28Z</time>
      </trkpt>
      <trkpt lat="45.76416" lon="4.90097">
        <ele>182</ele>
        <time>2022-09-24T09:07:29Z</time>
      </trkpt>
      <trkpt lat="45.7642" lon="4.90101">
        <ele>182</ele>
        <time>2022-09-24T09:07:30Z</time>
      </trkpt>
      <trkpt lat="45.76424" lon="4.90106">
        <ele>182</ele>
        <time>2022-09-24T09:07:31Z</time>
      </trkpt>
      <trkpt lat="45.7643" lon="4.90107">
        <ele>182</ele>
        <time>2022-09-24T09:07:32Z</time>
      </trkpt>
      <trkpt lat="45.76435" lon="4.9011">
        <ele>182</ele>
        <time>2022-09-24T09:07:33Z</time>
      </trkpt>
      <trkpt lat="45.7644" lon="4.90112">
        <ele>181.9</ele>
        <time>2022-09-24T09:07:34Z</time>
      </trkpt>
      <trkpt lat="45.76445" lon="4.90113">
        <ele>181.9</ele>
        <time>2022-09-24T09:07:35Z</time>
      </trkpt>
      <trkpt lat="45.7645" lon="4.90114">
        <ele>181.9</ele>
        <time>2022-09-24T09:07:36Z</time>
      </trkpt>
      <trkpt lat="45.76456" lon="4.90114">
        <ele>181.8</ele>
        <time>2022-09-24T09:07:37Z</time>
      </trkpt>
      <trkpt lat="45.7646" lon="4.90114">
        <ele>181.8</ele>
        <time>2022-09-24T09:07:38Z</time>
      </trkpt>
      <trkpt lat="45.76463" lon="4.90114">
        <ele>181.8</ele>
        <time>2022-09-24T09:07:39Z</time>
      </trkpt>
      <trkpt lat="45.76464" lon="4.90115">
        <ele>181.8</ele>
        <time>2022-09-24T09:07:40Z</time>
      </trkpt>
      <trkpt lat="45.76466" lon="4.90115">
        <ele>181.7</ele>
        <time>2022-09-24T09:07:41Z</time>
      </trkpt>
      <trkpt lat="45.76467" lon="4.90116">
        <ele>181.7</ele>
        <time>2022-09-24T09:07:42Z</time>
      </trkpt>
      <trkpt lat="45.76466" lon="4.90115">
        <ele>181.7</ele>
        <time>2022-09-24T09:07:43Z</time>
      </trkpt>
      <trkpt lat="45.76467" lon="4.90115">
        <ele>181.7</ele>
        <time>2022-09-24T09:07:44Z</time>
      </trkpt>
      <trkpt lat="45.76466" lon="4.90114">
        <ele>181.7</ele>
        <time>2022-09-24T09:07:45Z</time>
      </trkpt>
      <trkpt lat="45.76466" lon="4.90114">
        <ele>181.7</ele>
        <time>2022-09-24T09:07:46Z</time>
      </trkpt>
      <trkpt lat="45.76466" lon="4.90114">
        <ele>181.7</ele>
        <time>2022-09-24T09:07:47Z</time>
      </trkpt>
      <trkpt lat="45.76466" lon="4.90114">
        <ele>181.7</ele>
        <time>2022-09-24T09:07:48Z</time>
      </trkpt>
      <trkpt lat="45.76466" lon="4.90114">
        <ele>181.7</ele>
        <time>2022-09-24T09:07:49Z</time>
      </trkpt>
      <trkpt lat="45.76466" lon="4.90114">
        <ele>181.7</ele>
        <time>2022-09-24T09:07:50Z</time>
      </trkpt>
      <trkpt lat="45.76466" lon="4.90114">
        <ele>181.7</ele>
        <time>2022-09-24T09:07:51Z</time>
      </trkpt>
      <trkpt lat="45.76484" lon="4.90114">
        <ele>181.4</ele>
        <time>2022-09-24T09:08:04Z</time>
      </trkpt>
      <trkpt lat="45.76487" lon="4.90114">
        <ele>181.3</ele>
        <time>2022-09-24T09:08:05Z</time>
      </trkpt>
      <trkpt lat="45.7649" lon="4.90113">
        <ele>181.3</ele>
        <time>2022-09-24T09:08:06Z</time>
      </trkpt>
      <trkpt lat="45.76494" lon="4.90112">
        <ele>181.2</ele>
        <time>2022-09-24T09:08:07Z</time>
      </trkpt>
      <trkpt lat="45.76499" lon="4.90112">
        <ele>181</ele>
        <time>2022-09-24T09:08:08Z</time>
      </trkpt>
      <trkpt lat="45.76504" lon="4.90111">
        <ele>180.9</ele>
        <time>2022-09-24T09:08:09Z</time>
      </trkpt>
      <trkpt lat="45.7651" lon="4.9011">
        <ele>180.7</ele>
        <time>2022-09-24T09:08:10Z</time>
      </trkpt>
      <trkpt lat="45.76517" lon="4.9011">
        <ele>180.5</ele>
        <time>2022-09-24T09:08:11Z</time>
      </trkpt>
      <trkpt lat="45.76523" lon="4.90109">
        <ele>180.3</ele>
        <time>2022-09-24T09:08:12Z</time>
      </trkpt>
      <trkpt lat="45.76531" lon="4.90109">
        <ele>180</ele>
        <time>2022-09-24T09:08:13Z</time>
      </trkpt>
      <trkpt lat="45.76536" lon="4.90108">
        <ele>179.9</ele>
        <time>2022-09-24T09:08:14Z</time>
      </trkpt>
      <trkpt lat="45.76539" lon="4.90108">
        <ele>179.8</ele>
        <time>2022-09-24T09:08:15Z</time>
      </trkpt>
      <trkpt lat="45.7654" lon="4.90108">
        <ele>179.8</ele>
        <time>2022-09-24T09:08:16Z</time>
      </trkpt>
      <trkpt lat="45.76541" lon="4.90109">
        <ele>179.7</ele>
        <time>2022-09-24T09:08:17Z</time>
      </trkpt>
      <trkpt lat="45.76542" lon="4.90109">
        <ele>179.7</ele>
        <time>2022-09-24T09:08:18Z</time>
      </trkpt>
      <trkpt lat="45.76542" lon="4.90109">
        <ele>179.7</ele>
        <time>2022-09-24T09:08:19Z</time>
      </trkpt>
      <trkpt lat="45.76543" lon="4.90109">
        <ele>179.7</ele>
        <time>2022-09-24T09:08:20Z</time>
      </trkpt>
      <trkpt lat="45.76543" lon="4.9011">
        <ele>179.7</ele>
        <time>2022-09-24T09:08:21Z</time>
      </trkpt>
      <trkpt lat="45.76544" lon="4.9011">
        <ele>179.7</ele>
        <time>2022-09-24T09:08:22Z</time>
      </trkpt>
      <trkpt lat="45.76544" lon="4.9011">
        <ele>179.6</ele>
        <time>2022-09-24T09:08:23Z</time>
      </trkpt>
      <trkpt lat="45.76545" lon="4.9011">
        <ele>179.6</ele>
        <time>2022-09-24T09:08:24Z</time>
      </trkpt>
      <trkpt lat="45.76546" lon="4.9011">
        <ele>179.6</ele>
        <time>2022-09-24T09:08:25Z</time>
      </trkpt>
      <trkpt lat="45.76548" lon="4.9011">
        <ele>179.5</ele>
        <time>2022-09-24T09:08:26Z</time>
      </trkpt>
      <trkpt lat="45.7655" lon="4.90109">
        <ele>179.5</ele>
        <time>2022-09-24T09:09:02Z</time>
      </trkpt>
      <trkpt lat="45.76552" lon="4.90109">
        <ele>179.4</ele>
        <time>2022-09-24T09:09:03Z</time>
      </trkpt>
      <trkpt lat="45.76554" lon="4.90111">
        <ele>179.3</ele>
        <time>2022-09-24T09:09:04Z</time>
      </trkpt>
      <trkpt lat="45.76555" lon="4.90112">
        <ele>179.3</ele>
        <time>2022-09-24T09:09:05Z</time>
      </trkpt>
      <trkpt lat="45.76558" lon="4.90113">
        <ele>179.2</ele>
        <time>2022-09-24T09:09:06Z</time>
      </trkpt>
      <trkpt lat="45.76565" lon="4.90112">
        <ele>179.1</ele>
        <time>2022-09-24T09:09:07Z</time>
      </trkpt>
      <trkpt lat="45.76569" lon="4.90112">
        <ele>179</ele>
        <time>2022-09-24T09:09:08Z</time>
      </trkpt>
      <trkpt lat="45.76573" lon="4.90112">
        <ele>178.8</ele>
        <time>2022-09-24T09:09:09Z</time>
      </trkpt>
      <trkpt lat="45.76578" lon="4.90112">
        <ele>178.6</ele>
        <time>2022-09-24T09:09:10Z</time>
      </trkpt>
      <trkpt lat="45.76582" lon="4.90115">
        <ele>178.5</ele>
        <time>2022-09-24T09:09:11Z</time>
      </trkpt>
      <trkpt lat="45.76584" lon="4.90119">
        <ele>178.4</ele>
        <time>2022-09-24T09:09:12Z</time>
      </trkpt>
      <trkpt lat="45.76588" lon="4.90124">
        <ele>178.2</ele>
        <time>2022-09-24T09:09:13Z</time>
      </trkpt>
      <trkpt lat="45.76592" lon="4.90131">
        <ele>178</ele>
        <time>2022-09-24T09:09:14Z</time>
      </trkpt>
      <trkpt lat="45.76596" lon="4.90137">
        <ele>177.8</ele>
        <time>2022-09-24T09:09:15Z</time>
      </trkpt>
      <trkpt lat="45.76601" lon="4.90143">
        <ele>177.6</ele>
        <time>2022-09-24T09:09:16Z</time>
      </trkpt>
      <trkpt lat="45.76605" lon="4.90149">
        <ele>177.5</ele>
        <time>2022-09-24T09:09:17Z</time>
      </trkpt>
      <trkpt lat="45.76609" lon="4.90155">
        <ele>177.3</ele>
        <time>2022-09-24T09:09:18Z</time>
      </trkpt>
      <trkpt lat="45.76613" lon="4.90162">
        <ele>177.2</ele>
        <time>2022-09-24T09:09:19Z</time>
      </trkpt>
      <trkpt lat="45.76616" lon="4.9017">
        <ele>177.1</ele>
        <time>2022-09-24T09:09:20Z</time>
      </trkpt>
      <trkpt lat="45.7662" lon="4.90179">
        <ele>177</ele>
        <time>2022-09-24T09:09:21Z</time>
      </trkpt>
      <trkpt lat="45.76623" lon="4.90186">
        <ele>176.8</ele>
        <time>2022-09-24T09:09:22Z</time>
      </trkpt>
      <trkpt lat="45.76626" lon="4.90194">
        <ele>176.7</ele>
        <time>2022-09-24T09:09:23Z</time>
      </trkpt>
      <trkpt lat="45.7663" lon="4.90202">
        <ele>176.6</ele>
        <time>2022-09-24T09:09:24Z</time>
      </trkpt>
      <trkpt lat="45.76634" lon="4.90209">
        <ele>176.5</ele>
        <time>2022-09-24T09:09:25Z</time>
      </trkpt>
      <trkpt lat="45.7664" lon="4.90216">
        <ele>176.4</ele>
        <time>2022-09-24T09:09:26Z</time>
      </trkpt>
      <trkpt lat="45.76644" lon="4.90222">
        <ele>176.3</ele>
        <time>2022-09-24T09:09:27Z</time>
      </trkpt>
      <trkpt lat="45.76647" lon="4.90228">
        <ele>176.2</ele>
        <time>2022-09-24T09:09:28Z</time>
      </trkpt>
      <trkpt lat="45.76648" lon="4.90231">
        <ele>176.2</ele>
        <time>2022-09-24T09:09:29Z</time>
      </trkpt>
      <trkpt lat="45.76649" lon="4.90233">
        <ele>176.2</ele>
        <time>2022-09-24T09:09:30Z</time>
      </trkpt>
      <trkpt lat="45.7665" lon="4.90233">
        <ele>176.1</ele>
        <time>2022-09-24T09:09:31Z</time>
      </trkpt>
      <trkpt lat="45.7665" lon="4.90234">
        <ele>176.1</ele>
        <time>2022-09-24T09:09:32Z</time>
      </trkpt>
      <trkpt lat="45.76651" lon="4.90234">
        <ele>176.1</ele>
        <time>2022-09-24T09:09:33Z</time>
      </trkpt>
      <trkpt lat="45.76652" lon="4.90234">
        <ele>176.1</ele>
        <time>2022-09-24T09:09:34Z</time>
      </trkpt>
      <trkpt lat="45.76654" lon="4.90234">
        <ele>176.1</ele>
        <time>2022-09-24T09:09:35Z</time>
      </trkpt>
      <trkpt lat="45.76655" lon="4.90234">
        <ele>176.1</ele>
        <time>2022-09-24T09:09:36Z</time>
      </trkpt>
      <trkpt lat="45.76656" lon="4.90235">
        <ele>176.1</ele>
        <time>2022-09-24T09:09:37Z</time>
      </trkpt>
      <trkpt lat="45.76656" lon="4.90235">
        <ele>176.1</ele>
        <time>2022-09-24T09:09:38Z</time>
      </trkpt>
      <trkpt lat="45.76656" lon="4.90235">
        <ele>176.1</ele>
        <time>2022-09-24T09:09:39Z</time>
      </trkpt>
      <trkpt lat="45.7666" lon="4.90238">
        <ele>176</ele>
        <time>2022-09-24T09:09:40Z</time>
      </trkpt>
      <trkpt lat="45.76663" lon="4.90242">
        <ele>176</ele>
        <time>2022-09-24T09:09:54Z</time>
      </trkpt>
      <trkpt lat="45.76666" lon="4.90246">
        <ele>175.9</ele>
        <time>2022-09-24T09:09:55Z</time>
      </trkpt>
      <trkpt lat="45.76666" lon="4.90252">
        <ele>175.8</ele>
        <time>2022-09-24T09:09:56Z</time>
      </trkpt>
      <trkpt lat="45.76665" lon="4.90254">
        <ele>175.8</ele>
        <time>2022-09-24T09:09:57Z</time>
      </trkpt>
      <trkpt lat="45.76667" lon="4.90261">
        <ele>175.7</ele>
        <time>2022-09-24T09:09:58Z</time>
      </trkpt>
      <trkpt lat="45.76669" lon="4.90268">
        <ele>175.7</ele>
        <time>2022-09-24T09:09:59Z</time>
      </trkpt>
      <trkpt lat="45.76672" lon="4.90274">
        <ele>175.6</ele>
        <time>2022-09-24T09:10:00Z</time>
      </trkpt>
      <trkpt lat="45.76675" lon="4.90281">
        <ele>175.6</ele>
        <time>2022-09-24T09:10:01Z</time>
      </trkpt>
      <trkpt lat="45.76678" lon="4.90288">
        <ele>175.6</ele>
        <time>2022-09-24T09:10:02Z</time>
      </trkpt>
      <trkpt lat="45.7668" lon="4.90295">
        <ele>175.6</ele>
        <time>2022-09-24T09:10:03Z</time>
      </trkpt>
      <trkpt lat="45.76679" lon="4.90302">
        <ele>175.7</ele>
        <time>2022-09-24T09:10:04Z</time>
      </trkpt>
      <trkpt lat="45.76681" lon="4.90309">
        <ele>175.7</ele>
        <time>2022-09-24T09:10:05Z</time>
      </trkpt>
      <trkpt lat="45.76682" lon="4.90317">
        <ele>175.8</ele>
        <time>2022-09-24T09:10:06Z</time>
      </trkpt>
      <trkpt lat="45.76683" lon="4.90323">
        <ele>175.9</ele>
        <time>2022-09-24T09:10:07Z</time>
      </trkpt>
      <trkpt lat="45.76684" lon="4.90329">
        <ele>176</ele>
        <time>2022-09-24T09:10:08Z</time>
      </trkpt>
      <trkpt lat="45.76685" lon="4.90333">
        <ele>176.1</ele>
        <time>2022-09-24T09:10:09Z</time>
      </trkpt>
      <trkpt lat="45.76686" lon="4.90339">
        <ele>176.2</ele>
        <time>2022-09-24T09:10:10Z</time>
      </trkpt>
      <trkpt lat="45.76687" lon="4.90345">
        <ele>176.3</ele>
        <time>2022-09-24T09:10:11Z</time>
      </trkpt>
      <trkpt lat="45.76688" lon="4.9035">
        <ele>176.4</ele>
        <time>2022-09-24T09:10:12Z</time>
      </trkpt>
      <trkpt lat="45.76689" lon="4.90354">
        <ele>176.5</ele>
        <time>2022-09-24T09:10:13Z</time>
      </trkpt>
      <trkpt lat="45.7669" lon="4.9036">
        <ele>176.6</ele>
        <time>2022-09-24T09:10:14Z</time>
      </trkpt>
      <trkpt lat="45.76691" lon="4.90364">
        <ele>176.7</ele>
        <time>2022-09-24T09:10:15Z</time>
      </trkpt>
      <trkpt lat="45.76693" lon="4.90369">
        <ele>176.9</ele>
        <time>2022-09-24T09:10:16Z</time>
      </trkpt>
      <trkpt lat="45.76694" lon="4.90373">
        <ele>177</ele>
        <time>2022-09-24T09:10:17Z</time>
      </trkpt>
      <trkpt lat="45.76694" lon="4.90378">
        <ele>177.1</ele>
        <time>2022-09-24T09:10:18Z</time>
      </trkpt>
      <trkpt lat="45.76694" lon="4.90379">
        <ele>177.1</ele>
        <time>2022-09-24T09:10:19Z</time>
      </trkpt>
      <trkpt lat="45.76694" lon="4.90381">
        <ele>177.2</ele>
        <time>2022-09-24T09:10:20Z</time>
      </trkpt>
      <trkpt lat="45.76694" lon="4.90382">
        <ele>177.2</ele>
        <time>2022-09-24T09:10:21Z</time>
      </trkpt>
      <trkpt lat="45.76694" lon="4.90382">
        <ele>177.2</ele>
        <time>2022-09-24T09:10:22Z</time>
      </trkpt>
      <trkpt lat="45.76695" lon="4.90382">
        <ele>177.2</ele>
        <time>2022-09-24T09:10:23Z</time>
      </trkpt>
      <trkpt lat="45.76695" lon="4.90382">
        <ele>177.2</ele>
        <time>2022-09-24T09:10:24Z</time>
      </trkpt>
      <trkpt lat="45.76694" lon="4.90382">
        <ele>177.2</ele>
        <time>2022-09-24T09:10:25Z</time>
      </trkpt>
      <trkpt lat="45.76694" lon="4.90381">
        <ele>177.2</ele>
        <time>2022-09-24T09:10:26Z</time>
      </trkpt>
      <trkpt lat="45.76693" lon="4.9038">
        <ele>177.2</ele>
        <time>2022-09-24T09:10:27Z</time>
      </trkpt>
      <trkpt lat="45.76693" lon="4.9038">
        <ele>177.2</ele>
        <time>2022-09-24T09:10:28Z</time>
      </trkpt>
      <trkpt lat="45.76692" lon="4.90379">
        <ele>177.2</ele>
        <time>2022-09-24T09:10:29Z</time>
      </trkpt>
      <trkpt lat="45.76692" lon="4.90379">
        <ele>177.2</ele>
        <time>2022-09-24T09:10:30Z</time>
      </trkpt>
      <trkpt lat="45.76692" lon="4.90378">
        <ele>177.2</ele>
        <time>2022-09-24T09:10:31Z</time>
      </trkpt>
      <trkpt lat="45.76708" lon="4.90379">
        <ele>177.1</ele>
        <time>2022-09-24T09:10:37Z</time>
      </trkpt>
      <trkpt lat="45.76711" lon="4.9038">
        <ele>177.2</ele>
        <time>2022-09-24T09:10:38Z</time>
      </trkpt>
      <trkpt lat="45.76711" lon="4.90381">
        <ele>177.2</ele>
        <time>2022-09-24T09:10:39Z</time>
      </trkpt>
      <trkpt lat="45.76714" lon="4.90384">
        <ele>177.4</ele>
        <time>2022-09-24T09:10:40Z</time>
      </trkpt>
      <trkpt lat="45.76715" lon="4.90388">
        <ele>177.5</ele>
        <time>2022-09-24T09:10:41Z</time>
      </trkpt>
      <trkpt lat="45.76717" lon="4.90393">
        <ele>177.7</ele>
        <time>2022-09-24T09:10:42Z</time>
      </trkpt>
      <trkpt lat="45.76719" lon="4.90397">
        <ele>177.9</ele>
        <time>2022-09-24T09:10:43Z</time>
      </trkpt>
      <trkpt lat="45.76721" lon="4.904">
        <ele>178</ele>
        <time>2022-09-24T09:10:44Z</time>
      </trkpt>
      <trkpt lat="45.76724" lon="4.90405">
        <ele>178.2</ele>
        <time>2022-09-24T09:10:45Z</time>
      </trkpt>
      <trkpt lat="45.76726" lon="4.90408">
        <ele>178.4</ele>
        <time>2022-09-24T09:10:46Z</time>
      </trkpt>
      <trkpt lat="45.76728" lon="4.90412">
        <ele>178.6</ele>
        <time>2022-09-24T09:10:47Z</time>
      </trkpt>
      <trkpt lat="45.76731" lon="4.90416">
        <ele>178.7</ele>
        <time>2022-09-24T09:10:48Z</time>
      </trkpt>
      <trkpt lat="45.76733" lon="4.9042">
        <ele>178.9</ele>
        <time>2022-09-24T09:10:49Z</time>
      </trkpt>
      <trkpt lat="45.76736" lon="4.90424">
        <ele>179.1</ele>
        <time>2022-09-24T09:10:50Z</time>
      </trkpt>
      <trkpt lat="45.76739" lon="4.90428">
        <ele>179.3</ele>
        <time>2022-09-24T09:10:51Z</time>
      </trkpt>
      <trkpt lat="45.76741" lon="4.90432">
        <ele>179.5</ele>
        <time>2022-09-24T09:10:52Z</time>
      </trkpt>
      <trkpt lat="45.76745" lon="4.90437">
        <ele>179.7</ele>
        <time>2022-09-24T09:10:53Z</time>
      </trkpt>
      <trkpt lat="45.76748" lon="4.90441">
        <ele>179.9</ele>
        <time>2022-09-24T09:10:54Z</time>
      </trkpt>
      <trkpt lat="45.76751" lon="4.90446">
        <ele>180</ele>
        <time>2022-09-24T09:10:55Z</time>
      </trkpt>
      <trkpt lat="45.76754" lon="4.90451">
        <ele>180.1</ele>
        <time>2022-09-24T09:10:56Z</time>
      </trkpt>
      <trkpt lat="45.76757" lon="4.90455">
        <ele>180.2</ele>
        <time>2022-09-24T09:10:57Z</time>
      </trkpt>
      <trkpt lat="45.7676" lon="4.90458">
        <ele>180.2</ele>
        <time>2022-09-24T09:10:58Z</time>
      </trkpt>
      <trkpt lat="45.76763" lon="4.90462">
        <ele>180.3</ele>
        <time>2022-09-24T09:10:59Z</time>
      </trkpt>
      <trkpt lat="45.76765" lon="4.90466">
        <ele>180.3</ele>
        <time>2022-09-24T09:11:00Z</time>
      </trkpt>
      <trkpt lat="45.76768" lon="4.90469">
        <ele>180.3</ele>
        <time>2022-09-24T09:11:01Z</time>
      </trkpt>
      <trkpt lat="45.76772" lon="4.90473">
        <ele>180.3</ele>
        <time>2022-09-24T09:11:02Z</time>
      </trkpt>
      <trkpt lat="45.76775" lon="4.90477">
        <ele>180.3</ele>
        <time>2022-09-24T09:11:04Z</time>
      </trkpt>
      <trkpt lat="45.76778" lon="4.9048">
        <ele>180.3</ele>
        <time>2022-09-24T09:11:05Z</time>
      </trkpt>
      <trkpt lat="45.76781" lon="4.90484">
        <ele>180.3</ele>
        <time>2022-09-24T09:11:06Z</time>
      </trkpt>
      <trkpt lat="45.76784" lon="4.90487">
        <ele>180.2</ele>
        <time>2022-09-24T09:11:07Z</time>
      </trkpt>
      <trkpt lat="45.76787" lon="4.9049">
        <ele>180.1</ele>
        <time>2022-09-24T09:11:08Z</time>
      </trkpt>
      <trkpt lat="45.7679" lon="4.90494">
        <ele>180.1</ele>
        <time>2022-09-24T09:11:09Z</time>
      </trkpt>
      <trkpt lat="45.76793" lon="4.90497">
        <ele>180</ele>
        <time>2022-09-24T09:11:10Z</time>
      </trkpt>
      <trkpt lat="45.76796" lon="4.905">
        <ele>179.9</ele>
        <time>2022-09-24T09:11:11Z</time>
      </trkpt>
      <trkpt lat="45.768" lon="4.90502">
        <ele>179.8</ele>
        <time>2022-09-24T09:11:12Z</time>
      </trkpt>
      <trkpt lat="45.76802" lon="4.90505">
        <ele>179.7</ele>
        <time>2022-09-24T09:11:13Z</time>
      </trkpt>
      <trkpt lat="45.76805" lon="4.90508">
        <ele>179.7</ele>
        <time>2022-09-24T09:11:14Z</time>
      </trkpt>
      <trkpt lat="45.76806" lon="4.90508">
        <ele>179.7</ele>
        <time>2022-09-24T09:11:15Z</time>
      </trkpt>
      <trkpt lat="45.76807" lon="4.9051">
        <ele>179.6</ele>
        <time>2022-09-24T09:11:16Z</time>
      </trkpt>
      <trkpt lat="45.76807" lon="4.90511">
        <ele>179.6</ele>
        <time>2022-09-24T09:11:17Z</time>
      </trkpt>
      <trkpt lat="45.76806" lon="4.90511">
        <ele>179.6</ele>
        <time>2022-09-24T09:11:18Z</time>
      </trkpt>
      <trkpt lat="45.76806" lon="4.90511">
        <ele>179.6</ele>
        <time>2022-09-24T09:11:20Z</time>
      </trkpt>
      <trkpt lat="45.76807" lon="4.90511">
        <ele>179.6</ele>
        <time>2022-09-24T09:11:21Z</time>
      </trkpt>
      <trkpt lat="45.76807" lon="4.90512">
        <ele>179.6</ele>
        <time>2022-09-24T09:11:22Z</time>
      </trkpt>
      <trkpt lat="45.76807" lon="4.90512">
        <ele>179.6</ele>
        <time>2022-09-24T09:11:23Z</time>
      </trkpt>
      <trkpt lat="45.76807" lon="4.90515">
        <ele>179.5</ele>
        <time>2022-09-24T09:11:24Z</time>
      </trkpt>
      <trkpt lat="45.76807" lon="4.90518">
        <ele>179.5</ele>
        <time>2022-09-24T09:11:25Z</time>
      </trkpt>
      <trkpt lat="45.76808" lon="4.9052">
        <ele>179.4</ele>
        <time>2022-09-24T09:11:26Z</time>
      </trkpt>
      <trkpt lat="45.76808" lon="4.90523">
        <ele>179.4</ele>
        <time>2022-09-24T09:11:27Z</time>
      </trkpt>
      <trkpt lat="45.76809" lon="4.90526">
        <ele>179.3</ele>
        <time>2022-09-24T09:11:28Z</time>
      </trkpt>
      <trkpt lat="45.76809" lon="4.90528">
        <ele>179.2</ele>
        <time>2022-09-24T09:11:37Z</time>
      </trkpt>
      <trkpt lat="45.7681" lon="4.90531">
        <ele>179.2</ele>
        <time>2022-09-24T09:11:38Z</time>
      </trkpt>
      <trkpt lat="45.76813" lon="4.90532">
        <ele>179.1</ele>
        <time>2022-09-24T09:11:39Z</time>
      </trkpt>
      <trkpt lat="45.76815" lon="4.90533">
        <ele>179</ele>
        <time>2022-09-24T09:11:40Z</time>
      </trkpt>
      <trkpt lat="45.76817" lon="4.90531">
        <ele>178.9</ele>
        <time>2022-09-24T09:11:41Z</time>
      </trkpt>
      <trkpt lat="45.76823" lon="4.90531">
        <ele>178.8</ele>
        <time>2022-09-24T09:11:42Z</time>
      </trkpt>
      <trkpt lat="45.76827" lon="4.90531">
        <ele>178.6</ele>
        <time>2022-09-24T09:11:43Z</time>
      </trkpt>
      <trkpt lat="45.76831" lon="4.90532">
        <ele>178.5</ele>
        <time>2022-09-24T09:11:44Z</time>
      </trkpt>
      <trkpt lat="45.76834" lon="4.90534">
        <ele>178.5</ele>
        <time>2022-09-24T09:11:45Z</time>
      </trkpt>
      <trkpt lat="45.76837" lon="4.90537">
        <ele>178.4</ele>
        <time>2022-09-24T09:11:46Z</time>
      </trkpt>
      <trkpt lat="45.76842" lon="4.9054">
        <ele>178.4</ele>
        <time>2022-09-24T09:11:47Z</time>
      </trkpt>
      <trkpt lat="45.76847" lon="4.90544">
        <ele>178.4</ele>
        <time>2022-09-24T09:11:48Z</time>
      </trkpt>
      <trkpt lat="45.76852" lon="4.90547">
        <ele>178.4</ele>
        <time>2022-09-24T09:11:49Z</time>
      </trkpt>
      <trkpt lat="45.76857" lon="4.9055">
        <ele>178.4</ele>
        <time>2022-09-24T09:11:50Z</time>
      </trkpt>
      <trkpt lat="45.76861" lon="4.90552">
        <ele>178.4</ele>
        <time>2022-09-24T09:11:51Z</time>
      </trkpt>
      <trkpt lat="45.76866" lon="4.90555">
        <ele>178.4</ele>
        <time>2022-09-24T09:11:52Z</time>
      </trkpt>
      <trkpt lat="45.76874" lon="4.9056">
        <ele>178.4</ele>
        <time>2022-09-24T09:11:53Z</time>
      </trkpt>
      <trkpt lat="45.7688" lon="4.90564">
        <ele>178.3</ele>
        <time>2022-09-24T09:11:54Z</time>
      </trkpt>
      <trkpt lat="45.76885" lon="4.90568">
        <ele>178.3</ele>
        <time>2022-09-24T09:11:55Z</time>
      </trkpt>
      <trkpt lat="45.7689" lon="4.90571">
        <ele>178.3</ele>
        <time>2022-09-24T09:11:56Z</time>
      </trkpt>
      <trkpt lat="45.76896" lon="4.90576">
        <ele>178.2</ele>
        <time>2022-09-24T09:11:57Z</time>
      </trkpt>
      <trkpt lat="45.76903" lon="4.9058">
        <ele>178.2</ele>
        <time>2022-09-24T09:11:58Z</time>
      </trkpt>
      <trkpt lat="45.76909" lon="4.90584">
        <ele>178.1</ele>
        <time>2022-09-24T09:11:59Z</time>
      </trkpt>
      <trkpt lat="45.76914" lon="4.90588">
        <ele>178</ele>
        <time>2022-09-24T09:12:00Z</time>
      </trkpt>
      <trkpt lat="45.7692" lon="4.90591">
        <ele>177.9</ele>
        <time>2022-09-24T09:12:01Z</time>
      </trkpt>
      <trkpt lat="45.76925" lon="4.90594">
        <ele>177.8</ele>
        <time>2022-09-24T09:12:02Z</time>
      </trkpt>
      <trkpt lat="45.76931" lon="4.90598">
        <ele>177.7</ele>
        <time>2022-09-24T09:12:03Z</time>
      </trkpt>
      <trkpt lat="45.76936" lon="4.90601">
        <ele>177.6</ele>
        <time>2022-09-24T09:12:04Z</time>
      </trkpt>
      <trkpt lat="45.76941" lon="4.90605">
        <ele>177.5</ele>
        <time>2022-09-24T09:12:05Z</time>
      </trkpt>
      <trkpt lat="45.76946" lon="4.90608">
        <ele>177.3</ele>
        <time>2022-09-24T09:12:06Z</time>
      </trkpt>
      <trkpt lat="45.76951" lon="4.90611">
        <ele>177.2</ele>
        <time>2022-09-24T09:12:07Z</time>
      </trkpt>
      <trkpt lat="45.76957" lon="4.90616">
        <ele>176.9</ele>
        <time>2022-09-24T09:12:08Z</time>
      </trkpt>
      <trkpt lat="45.76961" lon="4.90619">
        <ele>176.7</ele>
        <time>2022-09-24T09:12:09Z</time>
      </trkpt>
      <trkpt lat="45.76966" lon="4.90623">
        <ele>176.6</ele>
        <time>2022-09-24T09:12:10Z</time>
      </trkpt>
      <trkpt lat="45.76972" lon="4.90626">
        <ele>176.4</ele>
        <time>2022-09-24T09:12:11Z</time>
      </trkpt>
      <trkpt lat="45.76977" lon="4.90629">
        <ele>176.2</ele>
        <time>2022-09-24T09:12:12Z</time>
      </trkpt>
      <trkpt lat="45.76983" lon="4.90634">
        <ele>175.9</ele>
        <time>2022-09-24T09:12:13Z</time>
      </trkpt>
      <trkpt lat="45.76989" lon="4.90636">
        <ele>175.5</ele>
        <time>2022-09-24T09:12:14Z</time>
      </trkpt>
      <trkpt lat="45.76995" lon="4.9064">
        <ele>175.1</ele>
        <time>2022-09-24T09:12:15Z</time>
      </trkpt>
      <trkpt lat="45.77" lon="4.90644">
        <ele>174.8</ele>
        <time>2022-09-24T09:12:16Z</time>
      </trkpt>
      <trkpt lat="45.77004" lon="4.90645">
        <ele>174.6</ele>
        <time>2022-09-24T09:12:17Z</time>
      </trkpt>
      <trkpt lat="45.7701" lon="4.90649">
        <ele>174.2</ele>
        <time>2022-09-24T09:12:18Z</time>
      </trkpt>
      <trkpt lat="45.77015" lon="4.90651">
        <ele>173.9</ele>
        <time>2022-09-24T09:12:19Z</time>
      </trkpt>
      <trkpt lat="45.77018" lon="4.90653">
        <ele>173.8</ele>
        <time>2022-09-24T09:12:20Z</time>
      </trkpt>
      <trkpt lat="45.77019" lon="4.90654">
        <ele>173.7</ele>
        <time>2022-09-24T09:12:21Z</time>
      </trkpt>
      <trkpt lat="45.77022" lon="4.90655">
        <ele>173.5</ele>
        <time>2022-09-24T09:12:22Z</time>
      </trkpt>
      <trkpt lat="45.77024" lon="4.90656">
        <ele>173.5</ele>
        <time>2022-09-24T09:12:23Z</time>
      </trkpt>
      <trkpt lat="45.77023" lon="4.90659">
        <ele>173.3</ele>
        <time>2022-09-24T09:12:24Z</time>
      </trkpt>
      <trkpt lat="45.77023" lon="4.90661">
        <ele>173.2</ele>
        <time>2022-09-24T09:12:25Z</time>
      </trkpt>
      <trkpt lat="45.77022" lon="4.90663">
        <ele>173.1</ele>
        <time>2022-09-24T09:12:26Z</time>
      </trkpt>
      <trkpt lat="45.7702" lon="4.90663">
        <ele>173</ele>
        <time>2022-09-24T09:12:27Z</time>
      </trkpt>
      <trkpt lat="45.77016" lon="4.90665">
        <ele>172.9</ele>
        <time>2022-09-24T09:12:28Z</time>
      </trkpt>
      <trkpt lat="45.77015" lon="4.90666">
        <ele>172.9</ele>
        <time>2022-09-24T09:12:29Z</time>
      </trkpt>
      <trkpt lat="45.77014" lon="4.90665">
        <ele>172.8</ele>
        <time>2022-09-24T09:12:30Z</time>
      </trkpt>
      <trkpt lat="45.77012" lon="4.90664">
        <ele>172.7</ele>
        <time>2022-09-24T09:12:31Z</time>
      </trkpt>
      <trkpt lat="45.7701" lon="4.90661">
        <ele>172.6</ele>
        <time>2022-09-24T09:12:32Z</time>
      </trkpt>
      <trkpt lat="45.77009" lon="4.9066">
        <ele>172.6</ele>
        <time>2022-09-24T09:12:33Z</time>
      </trkpt>
      <trkpt lat="45.77005" lon="4.9066">
        <ele>172.5</ele>
        <time>2022-09-24T09:12:34Z</time>
      </trkpt>
      <trkpt lat="45.77003" lon="4.9066">
        <ele>172.4</ele>
        <time>2022-09-24T09:12:35Z</time>
      </trkpt>
      <trkpt lat="45.77" lon="4.9066">
        <ele>172.3</ele>
        <time>2022-09-24T09:12:36Z</time>
      </trkpt>
      <trkpt lat="45.76996" lon="4.9066">
        <ele>172.2</ele>
        <time>2022-09-24T09:12:37Z</time>
      </trkpt>
      <trkpt lat="45.76992" lon="4.9066">
        <ele>172.2</ele>
        <time>2022-09-24T09:12:38Z</time>
      </trkpt>
      <trkpt lat="45.76988" lon="4.90658">
        <ele>172.1</ele>
        <time>2022-09-24T09:12:39Z</time>
      </trkpt>
      <trkpt lat="45.76984" lon="4.90657">
        <ele>172</ele>
        <time>2022-09-24T09:12:40Z</time>
      </trkpt>
      <trkpt lat="45.76981" lon="4.90656">
        <ele>172</ele>
        <time>2022-09-24T09:12:41Z</time>
      </trkpt>
      <trkpt lat="45.76978" lon="4.90656">
        <ele>172</ele>
        <time>2022-09-24T09:12:42Z</time>
      </trkpt>
      <trkpt lat="45.76975" lon="4.90655">
        <ele>172</ele>
        <time>2022-09-24T09:12:43Z</time>
      </trkpt>
      <trkpt lat="45.76972" lon="4.90655">
        <ele>171.9</ele>
        <time>2022-09-24T09:12:44Z</time>
      </trkpt>
      <trkpt lat="45.76969" lon="4.90656">
        <ele>171.9</ele>
        <time>2022-09-24T09:12:45Z</time>
      </trkpt>
      <trkpt lat="45.76965" lon="4.90653">
        <ele>171.9</ele>
        <time>2022-09-24T09:12:46Z</time>
      </trkpt>
      <trkpt lat="45.76962" lon="4.90651">
        <ele>171.9</ele>
        <time>2022-09-24T09:12:47Z</time>
      </trkpt>
      <trkpt lat="45.76959" lon="4.90647">
        <ele>171.9</ele>
        <time>2022-09-24T09:12:48Z</time>
      </trkpt>
      <trkpt lat="45.76957" lon="4.90646">
        <ele>171.9</ele>
        <time>2022-09-24T09:12:49Z</time>
      </trkpt>
      <trkpt lat="45.76956" lon="4.90645">
        <ele>171.9</ele>
        <time>2022-09-24T09:12:50Z</time>
      </trkpt>
      <trkpt lat="45.76955" lon="4.90645">
        <ele>171.9</ele>
        <time>2022-09-24T09:12:51Z</time>
      </trkpt>
      <trkpt lat="45.76953" lon="4.90643">
        <ele>171.9</ele>
        <time>2022-09-24T09:12:52Z</time>
      </trkpt>
      <trkpt lat="45.76953" lon="4.90641">
        <ele>171.9</ele>
        <time>2022-09-24T09:12:53Z</time>
      </trkpt>
      <trkpt lat="45.76953" lon="4.90641">
        <ele>171.9</ele>
        <time>2022-09-24T09:12:54Z</time>
      </trkpt>
      <trkpt lat="45.76953" lon="4.90641">
        <ele>171.9</ele>
        <time>2022-09-24T09:12:55Z</time>
      </trkpt>
      <trkpt lat="45.76952" lon="4.90641">
        <ele>171.9</ele>
        <time>2022-09-24T09:12:56Z</time>
      </trkpt>
      <trkpt lat="45.76952" lon="4.90641">
        <ele>171.9</ele>
        <time>2022-09-24T09:12:57Z</time>
      </trkpt>
      <trkpt lat="45.76952" lon="4.90641">
        <ele>171.9</ele>
        <time>2022-09-24T09:12:58Z</time>
      </trkpt>
      <trkpt lat="45.76952" lon="4.90641">
        <ele>171.9</ele>
        <time>2022-09-24T09:12:59Z</time>
      </trkpt>
      <trkpt lat="45.76952" lon="4.90639">
        <ele>171.9</ele>
        <time>2022-09-24T09:13:00Z</time>
      </trkpt>
      <trkpt lat="45.76951" lon="4.90639">
        <ele>171.9</ele>
        <time>2022-09-24T09:13:01Z</time>
      </trkpt>
      <trkpt lat="45.76946" lon="4.90633">
        <ele>171.9</ele>
        <time>2022-09-24T09:13:18Z</time>
      </trkpt>
      <trkpt lat="45.76944" lon="4.90633">
        <ele>171.9</ele>
        <time>2022-09-24T09:13:20Z</time>
      </trkpt>
      <trkpt lat="45.76939" lon="4.90636">
        <ele>171.9</ele>
        <time>2022-09-24T09:13:21Z</time>
      </trkpt>
      <trkpt lat="45.76937" lon="4.90638">
        <ele>172</ele>
        <time>2022-09-24T09:13:22Z</time>
      </trkpt>
      <trkpt lat="45.76933" lon="4.90639">
        <ele>172.1</ele>
        <time>2022-09-24T09:13:24Z</time>
      </trkpt>
      <trkpt lat="45.76932" lon="4.90639">
        <ele>172.1</ele>
        <time>2022-09-24T09:13:25Z</time>
      </trkpt>
      <trkpt lat="45.7693" lon="4.90639">
        <ele>172.1</ele>
        <time>2022-09-24T09:13:26Z</time>
      </trkpt>
      <trkpt lat="45.76928" lon="4.90635">
        <ele>172.2</ele>
        <time>2022-09-24T09:13:27Z</time>
      </trkpt>
      <trkpt lat="45.76927" lon="4.90634">
        <ele>172.2</ele>
        <time>2022-09-24T09:13:28Z</time>
      </trkpt>
      <trkpt lat="45.76927" lon="4.9063">
        <ele>172.2</ele>
        <time>2022-09-24T09:13:29Z</time>
      </trkpt>
      <trkpt lat="45.76927" lon="4.90628">
        <ele>172.2</ele>
        <time>2022-09-24T09:13:30Z</time>
      </trkpt>
      <trkpt lat="45.76927" lon="4.90626">
        <ele>172.2</ele>
        <time>2022-09-24T09:13:31Z</time>
      </trkpt>
      <trkpt lat="45.76928" lon="4.90622">
        <ele>172.1</ele>
        <time>2022-09-24T09:13:32Z</time>
      </trkpt>
      <trkpt lat="45.76929" lon="4.90621">
        <ele>172.1</ele>
        <time>2022-09-24T09:13:33Z</time>
      </trkpt>
      <trkpt lat="45.76929" lon="4.90619">
        <ele>172.1</ele>
        <time>2022-09-24T09:13:34Z</time>
      </trkpt>
      <trkpt lat="45.7693" lon="4.90615">
        <ele>172</ele>
        <time>2022-09-24T09:13:35Z</time>
      </trkpt>
      <trkpt lat="45.76932" lon="4.90608">
        <ele>171.8</ele>
        <time>2022-09-24T09:13:36Z</time>
      </trkpt>
      <trkpt lat="45.76933" lon="4.90601">
        <ele>171.6</ele>
        <time>2022-09-24T09:13:37Z</time>
      </trkpt>
      <trkpt lat="45.76935" lon="4.90593">
        <ele>171.3</ele>
        <time>2022-09-24T09:13:38Z</time>
      </trkpt>
      <trkpt lat="45.76938" lon="4.90584">
        <ele>171.1</ele>
        <time>2022-09-24T09:13:39Z</time>
      </trkpt>
      <trkpt lat="45.76943" lon="4.90578">
        <ele>170.9</ele>
        <time>2022-09-24T09:13:40Z</time>
      </trkpt>
      <trkpt lat="45.76946" lon="4.90572">
        <ele>170.8</ele>
        <time>2022-09-24T09:13:41Z</time>
      </trkpt>
      <trkpt lat="45.76949" lon="4.90566">
        <ele>170.7</ele>
        <time>2022-09-24T09:13:42Z</time>
      </trkpt>
      <trkpt lat="45.76952" lon="4.90561">
        <ele>170.6</ele>
        <time>2022-09-24T09:13:43Z</time>
      </trkpt>
      <trkpt lat="45.76955" lon="4.90555">
        <ele>170.5</ele>
        <time>2022-09-24T09:13:44Z</time>
      </trkpt>
      <trkpt lat="45.76959" lon="4.90549">
        <ele>170.5</ele>
        <time>2022-09-24T09:13:45Z</time>
      </trkpt>
      <trkpt lat="45.76962" lon="4.90543">
        <ele>170.4</ele>
        <time>2022-09-24T09:13:46Z</time>
      </trkpt>
      <trkpt lat="45.76965" lon="4.90537">
        <ele>170.4</ele>
        <time>2022-09-24T09:13:47Z</time>
      </trkpt>
      <trkpt lat="45.76969" lon="4.9053">
        <ele>170.3</ele>
        <time>2022-09-24T09:13:48Z</time>
      </trkpt>
      <trkpt lat="45.76972" lon="4.90525">
        <ele>170.3</ele>
        <time>2022-09-24T09:13:49Z</time>
      </trkpt>
      <trkpt lat="45.76975" lon="4.90519">
        <ele>170.3</ele>
        <time>2022-09-24T09:13:50Z</time>
      </trkpt>
      <trkpt lat="45.76978" lon="4.90513">
        <ele>170.3</ele>
        <time>2022-09-24T09:13:51Z</time>
      </trkpt>
      <trkpt lat="45.76981" lon="4.90507">
        <ele>170.3</ele>
        <time>2022-09-24T09:13:52Z</time>
      </trkpt>
      <trkpt lat="45.76984" lon="4.90502">
        <ele>170.3</ele>
        <time>2022-09-24T09:13:53Z</time>
      </trkpt>
      <trkpt lat="45.76988" lon="4.90497">
        <ele>170.3</ele>
        <time>2022-09-24T09:13:54Z</time>
      </trkpt>
      <trkpt lat="45.76992" lon="4.90492">
        <ele>170.3</ele>
        <time>2022-09-24T09:13:55Z</time>
      </trkpt>
      <trkpt lat="45.76995" lon="4.90487">
        <ele>170.3</ele>
        <time>2022-09-24T09:13:56Z</time>
      </trkpt>
      <trkpt lat="45.76998" lon="4.90483">
        <ele>170.3</ele>
        <time>2022-09-24T09:13:57Z</time>
      </trkpt>
      <trkpt lat="45.77002" lon="4.90479">
        <ele>170.3</ele>
        <time>2022-09-24T09:13:58Z</time>
      </trkpt>
      <trkpt lat="45.77006" lon="4.90473">
        <ele>170.4</ele>
        <time>2022-09-24T09:13:59Z</time>
      </trkpt>
      <trkpt lat="45.7701" lon="4.90468">
        <ele>170.4</ele>
        <time>2022-09-24T09:14:00Z</time>
      </trkpt>
      <trkpt lat="45.77015" lon="4.90464">
        <ele>170.4</ele>
        <time>2022-09-24T09:14:01Z</time>
      </trkpt>
      <trkpt lat="45.7702" lon="4.90459">
        <ele>170.5</ele>
        <time>2022-09-24T09:14:02Z</time>
      </trkpt>
      <trkpt lat="45.77023" lon="4.90455">
        <ele>170.5</ele>
        <time>2022-09-24T09:14:03Z</time>
      </trkpt>
      <trkpt lat="45.77027" lon="4.9045">
        <ele>170.6</ele>
        <time>2022-09-24T09:14:04Z</time>
      </trkpt>
      <trkpt lat="45.77032" lon="4.90446">
        <ele>170.6</ele>
        <time>2022-09-24T09:14:05Z</time>
      </trkpt>
      <trkpt lat="45.77037" lon="4.90442">
        <ele>170.7</ele>
        <time>2022-09-24T09:14:06Z</time>
      </trkpt>
      <trkpt lat="45.77041" lon="4.90438">
        <ele>170.8</ele>
        <time>2022-09-24T09:14:07Z</time>
      </trkpt>
      <trkpt lat="45.77046" lon="4.90436">
        <ele>170.9</ele>
        <time>2022-09-24T09:14:08Z</time>
      </trkpt>
      <trkpt lat="45.7705" lon="4.90433">
        <ele>171</ele>
        <time>2022-09-24T09:14:09Z</time>
      </trkpt>
      <trkpt lat="45.77053" lon="4.9043">
        <ele>171.1</ele>
        <time>2022-09-24T09:14:10Z</time>
      </trkpt>
      <trkpt lat="45.77057" lon="4.90427">
        <ele>171.2</ele>
        <time>2022-09-24T09:14:11Z</time>
      </trkpt>
      <trkpt lat="45.77062" lon="4.90424">
        <ele>171.3</ele>
        <time>2022-09-24T09:14:12Z</time>
      </trkpt>
      <trkpt lat="45.77065" lon="4.90423">
        <ele>171.4</ele>
        <time>2022-09-24T09:14:13Z</time>
      </trkpt>
      <trkpt lat="45.77068" lon="4.90419">
        <ele>171.5</ele>
        <time>2022-09-24T09:14:14Z</time>
      </trkpt>
      <trkpt lat="45.77073" lon="4.90417">
        <ele>171.6</ele>
        <time>2022-09-24T09:14:15Z</time>
      </trkpt>
      <trkpt lat="45.77077" lon="4.90415">
        <ele>171.6</ele>
        <time>2022-09-24T09:14:16Z</time>
      </trkpt>
      <trkpt lat="45.77081" lon="4.90412">
        <ele>171.7</ele>
        <time>2022-09-24T09:14:17Z</time>
      </trkpt>
      <trkpt lat="45.77085" lon="4.90411">
        <ele>171.8</ele>
        <time>2022-09-24T09:14:18Z</time>
      </trkpt>
      <trkpt lat="45.77089" lon="4.90409">
        <ele>171.8</ele>
        <time>2022-09-24T09:14:19Z</time>
      </trkpt>
      <trkpt lat="45.77092" lon="4.90407">
        <ele>171.9</ele>
        <time>2022-09-24T09:14:20Z</time>
      </trkpt>
      <trkpt lat="45.77095" lon="4.90405">
        <ele>171.9</ele>
        <time>2022-09-24T09:14:21Z</time>
      </trkpt>
      <trkpt lat="45.77099" lon="4.90405">
        <ele>171.9</ele>
        <time>2022-09-24T09:14:22Z</time>
      </trkpt>
      <trkpt lat="45.77102" lon="4.90403">
        <ele>171.9</ele>
        <time>2022-09-24T09:14:23Z</time>
      </trkpt>
      <trkpt lat="45.77105" lon="4.90401">
        <ele>171.9</ele>
        <time>2022-09-24T09:14:24Z</time>
      </trkpt>
      <trkpt lat="45.77109" lon="4.904">
        <ele>171.9</ele>
        <time>2022-09-24T09:14:25Z</time>
      </trkpt>
      <trkpt lat="45.77112" lon="4.90399">
        <ele>171.9</ele>
        <time>2022-09-24T09:14:26Z</time>
      </trkpt>
      <trkpt lat="45.77116" lon="4.90397">
        <ele>171.9</ele>
        <time>2022-09-24T09:14:27Z</time>
      </trkpt>
      <trkpt lat="45.77119" lon="4.90394">
        <ele>171.9</ele>
        <time>2022-09-24T09:14:28Z</time>
      </trkpt>
      <trkpt lat="45.77124" lon="4.90392">
        <ele>172.1</ele>
        <time>2022-09-24T09:14:29Z</time>
      </trkpt>
      <trkpt lat="45.77128" lon="4.90389">
        <ele>172.1</ele>
        <time>2022-09-24T09:14:30Z</time>
      </trkpt>
      <trkpt lat="45.77132" lon="4.90386">
        <ele>172</ele>
        <time>2022-09-24T09:14:31Z</time>
      </trkpt>
      <trkpt lat="45.77136" lon="4.90383">
        <ele>172</ele>
        <time>2022-09-24T09:14:32Z</time>
      </trkpt>
      <trkpt lat="45.77141" lon="4.90379">
        <ele>172</ele>
        <time>2022-09-24T09:14:33Z</time>
      </trkpt>
      <trkpt lat="45.77146" lon="4.90375">
        <ele>172</ele>
        <time>2022-09-24T09:14:34Z</time>
      </trkpt>
      <trkpt lat="45.77149" lon="4.90371">
        <ele>171.9</ele>
        <time>2022-09-24T09:14:35Z</time>
      </trkpt>
      <trkpt lat="45.77155" lon="4.90368">
        <ele>171.9</ele>
        <time>2022-09-24T09:14:36Z</time>
      </trkpt>
      <trkpt lat="45.7716" lon="4.90365">
        <ele>172</ele>
        <time>2022-09-24T09:14:37Z</time>
      </trkpt>
      <trkpt lat="45.77164" lon="4.90361">
        <ele>172</ele>
        <time>2022-09-24T09:14:38Z</time>
      </trkpt>
      <trkpt lat="45.77168" lon="4.90358">
        <ele>172</ele>
        <time>2022-09-24T09:14:39Z</time>
      </trkpt>
      <trkpt lat="45.77173" lon="4.90353">
        <ele>172</ele>
        <time>2022-09-24T09:14:40Z</time>
      </trkpt>
      <trkpt lat="45.77178" lon="4.90349">
        <ele>172</ele>
        <time>2022-09-24T09:14:41Z</time>
      </trkpt>
      <trkpt lat="45.77184" lon="4.90345">
        <ele>172</ele>
        <time>2022-09-24T09:14:42Z</time>
      </trkpt>
      <trkpt lat="45.77189" lon="4.90341">
        <ele>172.1</ele>
        <time>2022-09-24T09:14:43Z</time>
      </trkpt>
      <trkpt lat="45.77194" lon="4.90337">
        <ele>172.1</ele>
        <time>2022-09-24T09:14:44Z</time>
      </trkpt>
      <trkpt lat="45.772" lon="4.90333">
        <ele>172.1</ele>
        <time>2022-09-24T09:14:45Z</time>
      </trkpt>
      <trkpt lat="45.77205" lon="4.90329">
        <ele>172</ele>
        <time>2022-09-24T09:14:46Z</time>
      </trkpt>
      <trkpt lat="45.7721" lon="4.90325">
        <ele>172</ele>
        <time>2022-09-24T09:14:47Z</time>
      </trkpt>
      <trkpt lat="45.77215" lon="4.9032">
        <ele>172</ele>
        <time>2022-09-24T09:14:48Z</time>
      </trkpt>
      <trkpt lat="45.7722" lon="4.90316">
        <ele>172</ele>
        <time>2022-09-24T09:14:49Z</time>
      </trkpt>
      <trkpt lat="45.77226" lon="4.90313">
        <ele>172</ele>
        <time>2022-09-24T09:14:50Z</time>
      </trkpt>
      <trkpt lat="45.77231" lon="4.90308">
        <ele>172</ele>
        <time>2022-09-24T09:14:51Z</time>
      </trkpt>
      <trkpt lat="45.77237" lon="4.90303">
        <ele>172</ele>
        <time>2022-09-24T09:14:52Z</time>
      </trkpt>
      <trkpt lat="45.77242" lon="4.90299">
        <ele>172</ele>
        <time>2022-09-24T09:14:53Z</time>
      </trkpt>
      <trkpt lat="45.77247" lon="4.90294">
        <ele>172</ele>
        <time>2022-09-24T09:14:54Z</time>
      </trkpt>
      <trkpt lat="45.77253" lon="4.9029">
        <ele>172.1</ele>
        <time>2022-09-24T09:14:55Z</time>
      </trkpt>
      <trkpt lat="45.77258" lon="4.90285">
        <ele>172.1</ele>
        <time>2022-09-24T09:14:56Z</time>
      </trkpt>
      <trkpt lat="45.77264" lon="4.9028">
        <ele>172.1</ele>
        <time>2022-09-24T09:14:57Z</time>
      </trkpt>
      <trkpt lat="45.77269" lon="4.90277">
        <ele>172.1</ele>
        <time>2022-09-24T09:14:58Z</time>
      </trkpt>
      <trkpt lat="45.77272" lon="4.90272">
        <ele>172.1</ele>
        <time>2022-09-24T09:14:59Z</time>
      </trkpt>
      <trkpt lat="45.77278" lon="4.90268">
        <ele>172.1</ele>
        <time>2022-09-24T09:15:00Z</time>
      </trkpt>
      <trkpt lat="45.77284" lon="4.90264">
        <ele>172.1</ele>
        <time>2022-09-24T09:15:01Z</time>
      </trkpt>
      <trkpt lat="45.77289" lon="4.9026">
        <ele>172.1</ele>
        <time>2022-09-24T09:15:02Z</time>
      </trkpt>
      <trkpt lat="45.77294" lon="4.90255">
        <ele>172.1</ele>
        <time>2022-09-24T09:15:03Z</time>
      </trkpt>
      <trkpt lat="45.77299" lon="4.90251">
        <ele>172.1</ele>
        <time>2022-09-24T09:15:04Z</time>
      </trkpt>
      <trkpt lat="45.77304" lon="4.90247">
        <ele>172.1</ele>
        <time>2022-09-24T09:15:05Z</time>
      </trkpt>
      <trkpt lat="45.7731" lon="4.90242">
        <ele>172.1</ele>
        <time>2022-09-24T09:15:06Z</time>
      </trkpt>
      <trkpt lat="45.77314" lon="4.90238">
        <ele>172.1</ele>
        <time>2022-09-24T09:15:07Z</time>
      </trkpt>
      <trkpt lat="45.7732" lon="4.90233">
        <ele>172.1</ele>
        <time>2022-09-24T09:15:08Z</time>
      </trkpt>
      <trkpt lat="45.77324" lon="4.90229">
        <ele>172.1</ele>
        <time>2022-09-24T09:15:09Z</time>
      </trkpt>
      <trkpt lat="45.77331" lon="4.90225">
        <ele>172.1</ele>
        <time>2022-09-24T09:15:10Z</time>
      </trkpt>
      <trkpt lat="45.77337" lon="4.90222">
        <ele>172.1</ele>
        <time>2022-09-24T09:15:11Z</time>
      </trkpt>
      <trkpt lat="45.77341" lon="4.90217">
        <ele>172.1</ele>
        <time>2022-09-24T09:15:12Z</time>
      </trkpt>
      <trkpt lat="45.77347" lon="4.90213">
        <ele>172.1</ele>
        <time>2022-09-24T09:15:13Z</time>
      </trkpt>
      <trkpt lat="45.77352" lon="4.90209">
        <ele>172.1</ele>
        <time>2022-09-24T09:15:14Z</time>
      </trkpt>
      <trkpt lat="45.77357" lon="4.90205">
        <ele>172</ele>
        <time>2022-09-24T09:15:16Z</time>
      </trkpt>
      <trkpt lat="45.77367" lon="4.90198">
        <ele>172</ele>
        <time>2022-09-24T09:15:17Z</time>
      </trkpt>
      <trkpt lat="45.77371" lon="4.90193">
        <ele>172</ele>
        <time>2022-09-24T09:15:18Z</time>
      </trkpt>
      <trkpt lat="45.77376" lon="4.9019">
        <ele>172</ele>
        <time>2022-09-24T09:15:19Z</time>
      </trkpt>
      <trkpt lat="45.7738" lon="4.90186">
        <ele>172</ele>
        <time>2022-09-24T09:15:20Z</time>
      </trkpt>
      <trkpt lat="45.77385" lon="4.90182">
        <ele>172</ele>
        <time>2022-09-24T09:15:21Z</time>
      </trkpt>
      <trkpt lat="45.7739" lon="4.90178">
        <ele>172</ele>
        <time>2022-09-24T09:15:22Z</time>
      </trkpt>
      <trkpt lat="45.77393" lon="4.90174">
        <ele>172</ele>
        <time>2022-09-24T09:15:23Z</time>
      </trkpt>
      <trkpt lat="45.77397" lon="4.9017">
        <ele>172</ele>
        <time>2022-09-24T09:15:24Z</time>
      </trkpt>
      <trkpt lat="45.77402" lon="4.90167">
        <ele>172</ele>
        <time>2022-09-24T09:15:25Z</time>
      </trkpt>
      <trkpt lat="45.77407" lon="4.90163">
        <ele>172</ele>
        <time>2022-09-24T09:15:26Z</time>
      </trkpt>
      <trkpt lat="45.77412" lon="4.90159">
        <ele>171.9</ele>
        <time>2022-09-24T09:15:27Z</time>
      </trkpt>
      <trkpt lat="45.77417" lon="4.90155">
        <ele>171.9</ele>
        <time>2022-09-24T09:15:28Z</time>
      </trkpt>
      <trkpt lat="45.77422" lon="4.90151">
        <ele>171.8</ele>
        <time>2022-09-24T09:15:29Z</time>
      </trkpt>
      <trkpt lat="45.77426" lon="4.90148">
        <ele>171.8</ele>
        <time>2022-09-24T09:15:30Z</time>
      </trkpt>
      <trkpt lat="45.77431" lon="4.90143">
        <ele>171.8</ele>
        <time>2022-09-24T09:15:31Z</time>
      </trkpt>
      <trkpt lat="45.77437" lon="4.90139">
        <ele>171.8</ele>
        <time>2022-09-24T09:15:32Z</time>
      </trkpt>
      <trkpt lat="45.77441" lon="4.90134">
        <ele>171.8</ele>
        <time>2022-09-24T09:15:34Z</time>
      </trkpt>
      <trkpt lat="45.77446" lon="4.9013">
        <ele>171.9</ele>
        <time>2022-09-24T09:15:35Z</time>
      </trkpt>
      <trkpt lat="45.77451" lon="4.90128">
        <ele>171.9</ele>
        <time>2022-09-24T09:15:36Z</time>
      </trkpt>
      <trkpt lat="45.77456" lon="4.90125">
        <ele>171.9</ele>
        <time>2022-09-24T09:15:37Z</time>
      </trkpt>
      <trkpt lat="45.7746" lon="4.90121">
        <ele>171.9</ele>
        <time>2022-09-24T09:15:38Z</time>
      </trkpt>
      <trkpt lat="45.77465" lon="4.90117">
        <ele>171.9</ele>
        <time>2022-09-24T09:15:39Z</time>
      </trkpt>
      <trkpt lat="45.7747" lon="4.90112">
        <ele>171.9</ele>
        <time>2022-09-24T09:15:40Z</time>
      </trkpt>
      <trkpt lat="45.77474" lon="4.90109">
        <ele>172</ele>
        <time>2022-09-24T09:15:41Z</time>
      </trkpt>
      <trkpt lat="45.77479" lon="4.90106">
        <ele>172</ele>
        <time>2022-09-24T09:15:42Z</time>
      </trkpt>
      <trkpt lat="45.77484" lon="4.90101">
        <ele>172</ele>
        <time>2022-09-24T09:15:43Z</time>
      </trkpt>
      <trkpt lat="45.77489" lon="4.90097">
        <ele>172</ele>
        <time>2022-09-24T09:15:44Z</time>
      </trkpt>
      <trkpt lat="45.77494" lon="4.90093">
        <ele>172</ele>
        <time>2022-09-24T09:15:45Z</time>
      </trkpt>
      <trkpt lat="45.77498" lon="4.9009">
        <ele>172.1</ele>
        <time>2022-09-24T09:15:46Z</time>
      </trkpt>
      <trkpt lat="45.77502" lon="4.90084">
        <ele>172.1</ele>
        <time>2022-09-24T09:15:47Z</time>
      </trkpt>
      <trkpt lat="45.77506" lon="4.90077">
        <ele>172.1</ele>
        <time>2022-09-24T09:15:48Z</time>
      </trkpt>
      <trkpt lat="45.77511" lon="4.90076">
        <ele>172.1</ele>
        <time>2022-09-24T09:15:49Z</time>
      </trkpt>
      <trkpt lat="45.77515" lon="4.90073">
        <ele>172.1</ele>
        <time>2022-09-24T09:15:50Z</time>
      </trkpt>
      <trkpt lat="45.7752" lon="4.90068">
        <ele>172.1</ele>
        <time>2022-09-24T09:15:51Z</time>
      </trkpt>
      <trkpt lat="45.77524" lon="4.90065">
        <ele>172.2</ele>
        <time>2022-09-24T09:15:52Z</time>
      </trkpt>
      <trkpt lat="45.77529" lon="4.90061">
        <ele>172.2</ele>
        <time>2022-09-24T09:15:53Z</time>
      </trkpt>
      <trkpt lat="45.77538" lon="4.90054">
        <ele>172.2</ele>
        <time>2022-09-24T09:15:54Z</time>
      </trkpt>
      <trkpt lat="45.77543" lon="4.90049">
        <ele>172.2</ele>
        <time>2022-09-24T09:15:55Z</time>
      </trkpt>
      <trkpt lat="45.77548" lon="4.90046">
        <ele>172.3</ele>
        <time>2022-09-24T09:15:56Z</time>
      </trkpt>
      <trkpt lat="45.77552" lon="4.90042">
        <ele>172.3</ele>
        <time>2022-09-24T09:15:57Z</time>
      </trkpt>
      <trkpt lat="45.77557" lon="4.90038">
        <ele>172.3</ele>
        <time>2022-09-24T09:15:58Z</time>
      </trkpt>
      <trkpt lat="45.77561" lon="4.90034">
        <ele>172.3</ele>
        <time>2022-09-24T09:15:59Z</time>
      </trkpt>
      <trkpt lat="45.77566" lon="4.9003">
        <ele>172.3</ele>
        <time>2022-09-24T09:16:00Z</time>
      </trkpt>
      <trkpt lat="45.7757" lon="4.90026">
        <ele>172.3</ele>
        <time>2022-09-24T09:16:01Z</time>
      </trkpt>
      <trkpt lat="45.77575" lon="4.90023">
        <ele>172.4</ele>
        <time>2022-09-24T09:16:02Z</time>
      </trkpt>
      <trkpt lat="45.77578" lon="4.9002">
        <ele>172.4</ele>
        <time>2022-09-24T09:16:03Z</time>
      </trkpt>
      <trkpt lat="45.77583" lon="4.90016">
        <ele>172.4</ele>
        <time>2022-09-24T09:16:04Z</time>
      </trkpt>
      <trkpt lat="45.77588" lon="4.90011">
        <ele>172.4</ele>
        <time>2022-09-24T09:16:05Z</time>
      </trkpt>
      <trkpt lat="45.77593" lon="4.90009">
        <ele>172.4</ele>
        <time>2022-09-24T09:16:06Z</time>
      </trkpt>
      <trkpt lat="45.77597" lon="4.90005">
        <ele>172.4</ele>
        <time>2022-09-24T09:16:07Z</time>
      </trkpt>
      <trkpt lat="45.77603" lon="4.90004">
        <ele>172.4</ele>
        <time>2022-09-24T09:16:08Z</time>
      </trkpt>
      <trkpt lat="45.77607" lon="4.89998">
        <ele>172.4</ele>
        <time>2022-09-24T09:16:09Z</time>
      </trkpt>
      <trkpt lat="45.77612" lon="4.89993">
        <ele>172.4</ele>
        <time>2022-09-24T09:16:10Z</time>
      </trkpt>
      <trkpt lat="45.77616" lon="4.89989">
        <ele>172.4</ele>
        <time>2022-09-24T09:16:11Z</time>
      </trkpt>
      <trkpt lat="45.77621" lon="4.89986">
        <ele>172.4</ele>
        <time>2022-09-24T09:16:12Z</time>
      </trkpt>
      <trkpt lat="45.77625" lon="4.89982">
        <ele>172.3</ele>
        <time>2022-09-24T09:16:13Z</time>
      </trkpt>
      <trkpt lat="45.7763" lon="4.89978">
        <ele>172.3</ele>
        <time>2022-09-24T09:16:14Z</time>
      </trkpt>
      <trkpt lat="45.77633" lon="4.89976">
        <ele>172.3</ele>
        <time>2022-09-24T09:16:15Z</time>
      </trkpt>
      <trkpt lat="45.77639" lon="4.89972">
        <ele>172.3</ele>
        <time>2022-09-24T09:16:16Z</time>
      </trkpt>
      <trkpt lat="45.77644" lon="4.89969">
        <ele>172.2</ele>
        <time>2022-09-24T09:16:17Z</time>
      </trkpt>
      <trkpt lat="45.77649" lon="4.89964">
        <ele>172.2</ele>
        <time>2022-09-24T09:16:18Z</time>
      </trkpt>
      <trkpt lat="45.77653" lon="4.8996">
        <ele>172.2</ele>
        <time>2022-09-24T09:16:19Z</time>
      </trkpt>
      <trkpt lat="45.77658" lon="4.89956">
        <ele>172.2</ele>
        <time>2022-09-24T09:16:20Z</time>
      </trkpt>
      <trkpt lat="45.77664" lon="4.89952">
        <ele>172.2</ele>
        <time>2022-09-24T09:16:21Z</time>
      </trkpt>
      <trkpt lat="45.77669" lon="4.89947">
        <ele>172.1</ele>
        <time>2022-09-24T09:16:22Z</time>
      </trkpt>
      <trkpt lat="45.77674" lon="4.89943">
        <ele>172.1</ele>
        <time>2022-09-24T09:16:23Z</time>
      </trkpt>
      <trkpt lat="45.77679" lon="4.89939">
        <ele>172</ele>
        <time>2022-09-24T09:16:24Z</time>
      </trkpt>
      <trkpt lat="45.77683" lon="4.89935">
        <ele>172</ele>
        <time>2022-09-24T09:16:25Z</time>
      </trkpt>
      <trkpt lat="45.77688" lon="4.89931">
        <ele>171.9</ele>
        <time>2022-09-24T09:16:26Z</time>
      </trkpt>
      <trkpt lat="45.77694" lon="4.89926">
        <ele>171.9</ele>
        <time>2022-09-24T09:16:27Z</time>
      </trkpt>
      <trkpt lat="45.77699" lon="4.89922">
        <ele>171.9</ele>
        <time>2022-09-24T09:16:28Z</time>
      </trkpt>
      <trkpt lat="45.77704" lon="4.89917">
        <ele>171.8</ele>
        <time>2022-09-24T09:16:29Z</time>
      </trkpt>
      <trkpt lat="45.77709" lon="4.89913">
        <ele>171.8</ele>
        <time>2022-09-24T09:16:30Z</time>
      </trkpt>
      <trkpt lat="45.77714" lon="4.89909">
        <ele>171.8</ele>
        <time>2022-09-24T09:16:31Z</time>
      </trkpt>
      <trkpt lat="45.77718" lon="4.89906">
        <ele>171.9</ele>
        <time>2022-09-24T09:16:32Z</time>
      </trkpt>
      <trkpt lat="45.77723" lon="4.89901">
        <ele>171.9</ele>
        <time>2022-09-24T09:16:33Z</time>
      </trkpt>
      <trkpt lat="45.77728" lon="4.89897">
        <ele>171.9</ele>
        <time>2022-09-24T09:16:34Z</time>
      </trkpt>
      <trkpt lat="45.77733" lon="4.89893">
        <ele>171.9</ele>
        <time>2022-09-24T09:16:35Z</time>
      </trkpt>
      <trkpt lat="45.77739" lon="4.89889">
        <ele>171.9</ele>
        <time>2022-09-24T09:16:36Z</time>
      </trkpt>
      <trkpt lat="45.77743" lon="4.89885">
        <ele>171.9</ele>
        <time>2022-09-24T09:16:37Z</time>
      </trkpt>
      <trkpt lat="45.77748" lon="4.8988">
        <ele>171.9</ele>
        <time>2022-09-24T09:16:38Z</time>
      </trkpt>
      <trkpt lat="45.77753" lon="4.89876">
        <ele>171.9</ele>
        <time>2022-09-24T09:16:39Z</time>
      </trkpt>
      <trkpt lat="45.77758" lon="4.89873">
        <ele>171.9</ele>
        <time>2022-09-24T09:16:40Z</time>
      </trkpt>
      <trkpt lat="45.77763" lon="4.89868">
        <ele>171.9</ele>
        <time>2022-09-24T09:16:41Z</time>
      </trkpt>
      <trkpt lat="45.77768" lon="4.89864">
        <ele>171.9</ele>
        <time>2022-09-24T09:16:42Z</time>
      </trkpt>
      <trkpt lat="45.77772" lon="4.89858">
        <ele>171.9</ele>
        <time>2022-09-24T09:16:43Z</time>
      </trkpt>
      <trkpt lat="45.77777" lon="4.89855">
        <ele>171.9</ele>
        <time>2022-09-24T09:16:44Z</time>
      </trkpt>
      <trkpt lat="45.77781" lon="4.89852">
        <ele>171.9</ele>
        <time>2022-09-24T09:16:45Z</time>
      </trkpt>
      <trkpt lat="45.77786" lon="4.89847">
        <ele>171.9</ele>
        <time>2022-09-24T09:16:46Z</time>
      </trkpt>
      <trkpt lat="45.7779" lon="4.89842">
        <ele>171.9</ele>
        <time>2022-09-24T09:16:47Z</time>
      </trkpt>
      <trkpt lat="45.77795" lon="4.89839">
        <ele>171.9</ele>
        <time>2022-09-24T09:16:48Z</time>
      </trkpt>
      <trkpt lat="45.778" lon="4.89835">
        <ele>171.9</ele>
        <time>2022-09-24T09:16:49Z</time>
      </trkpt>
      <trkpt lat="45.77804" lon="4.89831">
        <ele>171.9</ele>
        <time>2022-09-24T09:16:50Z</time>
      </trkpt>
      <trkpt lat="45.77809" lon="4.89827">
        <ele>171.9</ele>
        <time>2022-09-24T09:16:51Z</time>
      </trkpt>
      <trkpt lat="45.77813" lon="4.89822">
        <ele>171.9</ele>
        <time>2022-09-24T09:16:52Z</time>
      </trkpt>
      <trkpt lat="45.77817" lon="4.89819">
        <ele>171.8</ele>
        <time>2022-09-24T09:16:53Z</time>
      </trkpt>
      <trkpt lat="45.77822" lon="4.89815">
        <ele>171.8</ele>
        <time>2022-09-24T09:16:54Z</time>
      </trkpt>
      <trkpt lat="45.77826" lon="4.89812">
        <ele>171.8</ele>
        <time>2022-09-24T09:16:55Z</time>
      </trkpt>
      <trkpt lat="45.7783" lon="4.89808">
        <ele>171.7</ele>
        <time>2022-09-24T09:16:56Z</time>
      </trkpt>
      <trkpt lat="45.77837" lon="4.89804">
        <ele>171.7</ele>
        <time>2022-09-24T09:16:57Z</time>
      </trkpt>
      <trkpt lat="45.7784" lon="4.898">
        <ele>171.7</ele>
        <time>2022-09-24T09:16:58Z</time>
      </trkpt>
      <trkpt lat="45.77845" lon="4.89797">
        <ele>171.7</ele>
        <time>2022-09-24T09:16:59Z</time>
      </trkpt>
      <trkpt lat="45.7785" lon="4.89793">
        <ele>171.6</ele>
        <time>2022-09-24T09:17:00Z</time>
      </trkpt>
      <trkpt lat="45.77856" lon="4.89791">
        <ele>171.6</ele>
        <time>2022-09-24T09:17:01Z</time>
      </trkpt>
      <trkpt lat="45.77861" lon="4.89785">
        <ele>171.5</ele>
        <time>2022-09-24T09:17:02Z</time>
      </trkpt>
      <trkpt lat="45.77867" lon="4.8978">
        <ele>171.5</ele>
        <time>2022-09-24T09:17:03Z</time>
      </trkpt>
      <trkpt lat="45.77874" lon="4.89776">
        <ele>171.5</ele>
        <time>2022-09-24T09:17:04Z</time>
      </trkpt>
      <trkpt lat="45.77879" lon="4.8977">
        <ele>171.4</ele>
        <time>2022-09-24T09:17:05Z</time>
      </trkpt>
      <trkpt lat="45.77884" lon="4.89766">
        <ele>171.4</ele>
        <time>2022-09-24T09:17:06Z</time>
      </trkpt>
      <trkpt lat="45.7789" lon="4.89761">
        <ele>171.4</ele>
        <time>2022-09-24T09:17:07Z</time>
      </trkpt>
      <trkpt lat="45.77895" lon="4.89757">
        <ele>171.4</ele>
        <time>2022-09-24T09:17:08Z</time>
      </trkpt>
      <trkpt lat="45.77901" lon="4.89754">
        <ele>171.4</ele>
        <time>2022-09-24T09:17:09Z</time>
      </trkpt>
      <trkpt lat="45.77905" lon="4.89751">
        <ele>171.4</ele>
        <time>2022-09-24T09:17:10Z</time>
      </trkpt>
      <trkpt lat="45.7791" lon="4.89746">
        <ele>171.4</ele>
        <time>2022-09-24T09:17:11Z</time>
      </trkpt>
      <trkpt lat="45.77915" lon="4.89742">
        <ele>171.4</ele>
        <time>2022-09-24T09:17:12Z</time>
      </trkpt>
      <trkpt lat="45.7792" lon="4.89737">
        <ele>171.5</ele>
        <time>2022-09-24T09:17:13Z</time>
      </trkpt>
      <trkpt lat="45.77924" lon="4.89734">
        <ele>171.5</ele>
        <time>2022-09-24T09:17:14Z</time>
      </trkpt>
      <trkpt lat="45.77929" lon="4.89731">
        <ele>171.5</ele>
        <time>2022-09-24T09:17:15Z</time>
      </trkpt>
      <trkpt lat="45.77933" lon="4.89728">
        <ele>171.5</ele>
        <time>2022-09-24T09:17:16Z</time>
      </trkpt>
      <trkpt lat="45.77937" lon="4.89723">
        <ele>171.6</ele>
        <time>2022-09-24T09:17:17Z</time>
      </trkpt>
      <trkpt lat="45.77941" lon="4.8972">
        <ele>171.6</ele>
        <time>2022-09-24T09:17:18Z</time>
      </trkpt>
      <trkpt lat="45.77946" lon="4.89717">
        <ele>171.6</ele>
        <time>2022-09-24T09:17:19Z</time>
      </trkpt>
      <trkpt lat="45.7795" lon="4.89714">
        <ele>171.6</ele>
        <time>2022-09-24T09:17:20Z</time>
      </trkpt>
      <trkpt lat="45.77954" lon="4.89712">
        <ele>171.7</ele>
        <time>2022-09-24T09:17:22Z</time>
      </trkpt>
      <trkpt lat="45.77958" lon="4.89707">
        <ele>171.7</ele>
        <time>2022-09-24T09:17:23Z</time>
      </trkpt>
      <trkpt lat="45.77962" lon="4.89703">
        <ele>171.7</ele>
        <time>2022-09-24T09:17:24Z</time>
      </trkpt>
      <trkpt lat="45.77966" lon="4.897">
        <ele>171.7</ele>
        <time>2022-09-24T09:17:25Z</time>
      </trkpt>
      <trkpt lat="45.7797" lon="4.89698">
        <ele>171.7</ele>
        <time>2022-09-24T09:17:26Z</time>
      </trkpt>
      <trkpt lat="45.77975" lon="4.89694">
        <ele>171.7</ele>
        <time>2022-09-24T09:17:27Z</time>
      </trkpt>
      <trkpt lat="45.77979" lon="4.8969">
        <ele>171.7</ele>
        <time>2022-09-24T09:17:28Z</time>
      </trkpt>
      <trkpt lat="45.77987" lon="4.89683">
        <ele>171.7</ele>
        <time>2022-09-24T09:17:29Z</time>
      </trkpt>
      <trkpt lat="45.77991" lon="4.8968">
        <ele>171.7</ele>
        <time>2022-09-24T09:17:30Z</time>
      </trkpt>
      <trkpt lat="45.77995" lon="4.89676">
        <ele>171.7</ele>
        <time>2022-09-24T09:17:31Z</time>
      </trkpt>
      <trkpt lat="45.78" lon="4.89672">
        <ele>171.7</ele>
        <time>2022-09-24T09:17:32Z</time>
      </trkpt>
      <trkpt lat="45.78004" lon="4.89669">
        <ele>171.7</ele>
        <time>2022-09-24T09:17:34Z</time>
      </trkpt>
      <trkpt lat="45.78011" lon="4.89662">
        <ele>171.7</ele>
        <time>2022-09-24T09:17:35Z</time>
      </trkpt>
      <trkpt lat="45.78015" lon="4.89659">
        <ele>171.7</ele>
        <time>2022-09-24T09:17:36Z</time>
      </trkpt>
      <trkpt lat="45.7802" lon="4.89656">
        <ele>171.7</ele>
        <time>2022-09-24T09:17:37Z</time>
      </trkpt>
      <trkpt lat="45.78023" lon="4.89653">
        <ele>171.7</ele>
        <time>2022-09-24T09:17:38Z</time>
      </trkpt>
      <trkpt lat="45.78026" lon="4.89651">
        <ele>171.7</ele>
        <time>2022-09-24T09:17:40Z</time>
      </trkpt>
      <trkpt lat="45.78031" lon="4.89647">
        <ele>171.7</ele>
        <time>2022-09-24T09:17:41Z</time>
      </trkpt>
      <trkpt lat="45.78035" lon="4.89644">
        <ele>171.7</ele>
        <time>2022-09-24T09:17:42Z</time>
      </trkpt>
      <trkpt lat="45.78039" lon="4.89641">
        <ele>171.7</ele>
        <time>2022-09-24T09:17:43Z</time>
      </trkpt>
      <trkpt lat="45.78043" lon="4.89637">
        <ele>171.7</ele>
        <time>2022-09-24T09:17:44Z</time>
      </trkpt>
      <trkpt lat="45.78048" lon="4.89634">
        <ele>171.8</ele>
        <time>2022-09-24T09:17:45Z</time>
      </trkpt>
      <trkpt lat="45.78051" lon="4.89631">
        <ele>171.8</ele>
        <time>2022-09-24T09:17:46Z</time>
      </trkpt>
      <trkpt lat="45.78056" lon="4.89628">
        <ele>171.8</ele>
        <time>2022-09-24T09:17:47Z</time>
      </trkpt>
      <trkpt lat="45.7806" lon="4.89625">
        <ele>171.8</ele>
        <time>2022-09-24T09:17:48Z</time>
      </trkpt>
      <trkpt lat="45.78064" lon="4.89621">
        <ele>171.8</ele>
        <time>2022-09-24T09:17:49Z</time>
      </trkpt>
      <trkpt lat="45.78068" lon="4.89618">
        <ele>171.8</ele>
        <time>2022-09-24T09:17:50Z</time>
      </trkpt>
      <trkpt lat="45.78073" lon="4.89615">
        <ele>171.7</ele>
        <time>2022-09-24T09:17:51Z</time>
      </trkpt>
      <trkpt lat="45.78077" lon="4.89612">
        <ele>171.7</ele>
        <time>2022-09-24T09:17:52Z</time>
      </trkpt>
      <trkpt lat="45.78081" lon="4.89608">
        <ele>171.7</ele>
        <time>2022-09-24T09:17:53Z</time>
      </trkpt>
      <trkpt lat="45.78086" lon="4.89605">
        <ele>171.7</ele>
        <time>2022-09-24T09:17:54Z</time>
      </trkpt>
      <trkpt lat="45.7809" lon="4.89602">
        <ele>171.7</ele>
        <time>2022-09-24T09:17:55Z</time>
      </trkpt>
      <trkpt lat="45.78095" lon="4.89599">
        <ele>171.7</ele>
        <time>2022-09-24T09:17:56Z</time>
      </trkpt>
      <trkpt lat="45.78105" lon="4.89593">
        <ele>171.7</ele>
        <time>2022-09-24T09:17:57Z</time>
      </trkpt>
      <trkpt lat="45.7811" lon="4.89589">
        <ele>171.7</ele>
        <time>2022-09-24T09:17:58Z</time>
      </trkpt>
      <trkpt lat="45.78113" lon="4.89586">
        <ele>171.7</ele>
        <time>2022-09-24T09:17:59Z</time>
      </trkpt>
      <trkpt lat="45.78118" lon="4.89582">
        <ele>171.7</ele>
        <time>2022-09-24T09:18:00Z</time>
      </trkpt>
      <trkpt lat="45.78124" lon="4.89579">
        <ele>171.7</ele>
        <time>2022-09-24T09:18:01Z</time>
      </trkpt>
      <trkpt lat="45.78129" lon="4.89575">
        <ele>171.8</ele>
        <time>2022-09-24T09:18:02Z</time>
      </trkpt>
      <trkpt lat="45.78134" lon="4.89572">
        <ele>171.7</ele>
        <time>2022-09-24T09:18:03Z</time>
      </trkpt>
      <trkpt lat="45.78138" lon="4.89569">
        <ele>171.7</ele>
        <time>2022-09-24T09:18:04Z</time>
      </trkpt>
      <trkpt lat="45.78143" lon="4.89565">
        <ele>171.7</ele>
        <time>2022-09-24T09:18:05Z</time>
      </trkpt>
      <trkpt lat="45.78148" lon="4.89561">
        <ele>171.7</ele>
        <time>2022-09-24T09:18:06Z</time>
      </trkpt>
      <trkpt lat="45.78154" lon="4.89558">
        <ele>171.7</ele>
        <time>2022-09-24T09:18:07Z</time>
      </trkpt>
      <trkpt lat="45.78158" lon="4.89556">
        <ele>171.7</ele>
        <time>2022-09-24T09:18:08Z</time>
      </trkpt>
      <trkpt lat="45.78163" lon="4.89553">
        <ele>171.7</ele>
        <time>2022-09-24T09:18:09Z</time>
      </trkpt>
      <trkpt lat="45.78168" lon="4.89549">
        <ele>171.7</ele>
        <time>2022-09-24T09:18:10Z</time>
      </trkpt>
      <trkpt lat="45.78174" lon="4.89546">
        <ele>171.7</ele>
        <time>2022-09-24T09:18:11Z</time>
      </trkpt>
      <trkpt lat="45.78179" lon="4.89544">
        <ele>171.7</ele>
        <time>2022-09-24T09:18:12Z</time>
      </trkpt>
      <trkpt lat="45.78184" lon="4.89541">
        <ele>171.7</ele>
        <time>2022-09-24T09:18:13Z</time>
      </trkpt>
      <trkpt lat="45.7819" lon="4.89537">
        <ele>171.7</ele>
        <time>2022-09-24T09:18:14Z</time>
      </trkpt>
      <trkpt lat="45.78196" lon="4.89534">
        <ele>171.7</ele>
        <time>2022-09-24T09:18:15Z</time>
      </trkpt>
      <trkpt lat="45.78202" lon="4.8953">
        <ele>171.7</ele>
        <time>2022-09-24T09:18:16Z</time>
      </trkpt>
      <trkpt lat="45.78207" lon="4.89528">
        <ele>171.7</ele>
        <time>2022-09-24T09:18:17Z</time>
      </trkpt>
      <trkpt lat="45.78214" lon="4.89525">
        <ele>171.7</ele>
        <time>2022-09-24T09:18:18Z</time>
      </trkpt>
      <trkpt lat="45.78219" lon="4.89521">
        <ele>171.6</ele>
        <time>2022-09-24T09:18:19Z</time>
      </trkpt>
      <trkpt lat="45.78226" lon="4.89518">
        <ele>171.6</ele>
        <time>2022-09-24T09:18:20Z</time>
      </trkpt>
      <trkpt lat="45.78232" lon="4.89515">
        <ele>171.6</ele>
        <time>2022-09-24T09:18:21Z</time>
      </trkpt>
      <trkpt lat="45.78239" lon="4.89511">
        <ele>171.6</ele>
        <time>2022-09-24T09:18:22Z</time>
      </trkpt>
      <trkpt lat="45.78244" lon="4.89507">
        <ele>171.6</ele>
        <time>2022-09-24T09:18:23Z</time>
      </trkpt>
      <trkpt lat="45.78251" lon="4.89503">
        <ele>171.7</ele>
        <time>2022-09-24T09:18:24Z</time>
      </trkpt>
      <trkpt lat="45.78256" lon="4.895">
        <ele>171.7</ele>
        <time>2022-09-24T09:18:25Z</time>
      </trkpt>
      <trkpt lat="45.78262" lon="4.89496">
        <ele>171.7</ele>
        <time>2022-09-24T09:18:26Z</time>
      </trkpt>
      <trkpt lat="45.78268" lon="4.89492">
        <ele>171.7</ele>
        <time>2022-09-24T09:18:27Z</time>
      </trkpt>
      <trkpt lat="45.78274" lon="4.89489">
        <ele>171.7</ele>
        <time>2022-09-24T09:18:28Z</time>
      </trkpt>
      <trkpt lat="45.7828" lon="4.89485">
        <ele>171.7</ele>
        <time>2022-09-24T09:18:29Z</time>
      </trkpt>
      <trkpt lat="45.78286" lon="4.89482">
        <ele>171.7</ele>
        <time>2022-09-24T09:18:30Z</time>
      </trkpt>
      <trkpt lat="45.78291" lon="4.8948">
        <ele>171.8</ele>
        <time>2022-09-24T09:18:31Z</time>
      </trkpt>
      <trkpt lat="45.78297" lon="4.89476">
        <ele>171.8</ele>
        <time>2022-09-24T09:18:32Z</time>
      </trkpt>
      <trkpt lat="45.78302" lon="4.89472">
        <ele>171.8</ele>
        <time>2022-09-24T09:18:33Z</time>
      </trkpt>
      <trkpt lat="45.78307" lon="4.89469">
        <ele>171.8</ele>
        <time>2022-09-24T09:18:34Z</time>
      </trkpt>
      <trkpt lat="45.78313" lon="4.89467">
        <ele>171.8</ele>
        <time>2022-09-24T09:18:35Z</time>
      </trkpt>
      <trkpt lat="45.78318" lon="4.89465">
        <ele>171.8</ele>
        <time>2022-09-24T09:18:36Z</time>
      </trkpt>
      <trkpt lat="45.78323" lon="4.89463">
        <ele>171.8</ele>
        <time>2022-09-24T09:18:37Z</time>
      </trkpt>
      <trkpt lat="45.78329" lon="4.8946">
        <ele>171.8</ele>
        <time>2022-09-24T09:18:38Z</time>
      </trkpt>
      <trkpt lat="45.78333" lon="4.89458">
        <ele>171.8</ele>
        <time>2022-09-24T09:18:39Z</time>
      </trkpt>
      <trkpt lat="45.78338" lon="4.89457">
        <ele>171.8</ele>
        <time>2022-09-24T09:18:40Z</time>
      </trkpt>
      <trkpt lat="45.78343" lon="4.89452">
        <ele>171.9</ele>
        <time>2022-09-24T09:18:41Z</time>
      </trkpt>
      <trkpt lat="45.78347" lon="4.89449">
        <ele>171.9</ele>
        <time>2022-09-24T09:18:42Z</time>
      </trkpt>
      <trkpt lat="45.78352" lon="4.89446">
        <ele>171.9</ele>
        <time>2022-09-24T09:18:43Z</time>
      </trkpt>
      <trkpt lat="45.78356" lon="4.89442">
        <ele>171.9</ele>
        <time>2022-09-24T09:18:44Z</time>
      </trkpt>
      <trkpt lat="45.78361" lon="4.89438">
        <ele>171.9</ele>
        <time>2022-09-24T09:18:45Z</time>
      </trkpt>
      <trkpt lat="45.78365" lon="4.89435">
        <ele>171.9</ele>
        <time>2022-09-24T09:18:46Z</time>
      </trkpt>
      <trkpt lat="45.7837" lon="4.89432">
        <ele>172</ele>
        <time>2022-09-24T09:18:47Z</time>
      </trkpt>
      <trkpt lat="45.78377" lon="4.89429">
        <ele>172</ele>
        <time>2022-09-24T09:18:48Z</time>
      </trkpt>
      <trkpt lat="45.78381" lon="4.89427">
        <ele>172</ele>
        <time>2022-09-24T09:18:49Z</time>
      </trkpt>
      <trkpt lat="45.78385" lon="4.89426">
        <ele>172</ele>
        <time>2022-09-24T09:18:50Z</time>
      </trkpt>
      <trkpt lat="45.78389" lon="4.89425">
        <ele>172.1</ele>
        <time>2022-09-24T09:18:51Z</time>
      </trkpt>
      <trkpt lat="45.78393" lon="4.8942">
        <ele>172.1</ele>
        <time>2022-09-24T09:18:52Z</time>
      </trkpt>
      <trkpt lat="45.78401" lon="4.89416">
        <ele>172.1</ele>
        <time>2022-09-24T09:18:53Z</time>
      </trkpt>
      <trkpt lat="45.78406" lon="4.89416">
        <ele>172.2</ele>
        <time>2022-09-24T09:18:54Z</time>
      </trkpt>
      <trkpt lat="45.78413" lon="4.89415">
        <ele>172.2</ele>
        <time>2022-09-24T09:18:55Z</time>
      </trkpt>
      <trkpt lat="45.7842" lon="4.89414">
        <ele>172.1</ele>
        <time>2022-09-24T09:18:56Z</time>
      </trkpt>
      <trkpt lat="45.78426" lon="4.89411">
        <ele>172.1</ele>
        <time>2022-09-24T09:18:57Z</time>
      </trkpt>
      <trkpt lat="45.78433" lon="4.89409">
        <ele>172</ele>
        <time>2022-09-24T09:18:58Z</time>
      </trkpt>
      <trkpt lat="45.7844" lon="4.89407">
        <ele>172</ele>
        <time>2022-09-24T09:18:59Z</time>
      </trkpt>
      <trkpt lat="45.78446" lon="4.89405">
        <ele>171.9</ele>
        <time>2022-09-24T09:19:00Z</time>
      </trkpt>
      <trkpt lat="45.78452" lon="4.89402">
        <ele>171.9</ele>
        <time>2022-09-24T09:19:01Z</time>
      </trkpt>
      <trkpt lat="45.78458" lon="4.894">
        <ele>171.9</ele>
        <time>2022-09-24T09:19:02Z</time>
      </trkpt>
      <trkpt lat="45.78465" lon="4.89397">
        <ele>171.9</ele>
        <time>2022-09-24T09:19:03Z</time>
      </trkpt>
      <trkpt lat="45.7847" lon="4.89394">
        <ele>171.9</ele>
        <time>2022-09-24T09:19:04Z</time>
      </trkpt>
      <trkpt lat="45.78476" lon="4.89392">
        <ele>172</ele>
        <time>2022-09-24T09:19:05Z</time>
      </trkpt>
      <trkpt lat="45.78481" lon="4.89389">
        <ele>172</ele>
        <time>2022-09-24T09:19:06Z</time>
      </trkpt>
      <trkpt lat="45.78487" lon="4.89387">
        <ele>172</ele>
        <time>2022-09-24T09:19:07Z</time>
      </trkpt>
      <trkpt lat="45.78493" lon="4.89384">
        <ele>172</ele>
        <time>2022-09-24T09:19:08Z</time>
      </trkpt>
      <trkpt lat="45.785" lon="4.89381">
        <ele>172.1</ele>
        <time>2022-09-24T09:19:09Z</time>
      </trkpt>
      <trkpt lat="45.78506" lon="4.89379">
        <ele>172.1</ele>
        <time>2022-09-24T09:19:10Z</time>
      </trkpt>
      <trkpt lat="45.7851" lon="4.89375">
        <ele>172.1</ele>
        <time>2022-09-24T09:19:11Z</time>
      </trkpt>
      <trkpt lat="45.78517" lon="4.89372">
        <ele>172.1</ele>
        <time>2022-09-24T09:19:12Z</time>
      </trkpt>
      <trkpt lat="45.78523" lon="4.89369">
        <ele>172</ele>
        <time>2022-09-24T09:19:13Z</time>
      </trkpt>
      <trkpt lat="45.78529" lon="4.89366">
        <ele>172</ele>
        <time>2022-09-24T09:19:14Z</time>
      </trkpt>
      <trkpt lat="45.78534" lon="4.89363">
        <ele>172</ele>
        <time>2022-09-24T09:19:15Z</time>
      </trkpt>
      <trkpt lat="45.7854" lon="4.89359">
        <ele>172.1</ele>
        <time>2022-09-24T09:19:16Z</time>
      </trkpt>
      <trkpt lat="45.78546" lon="4.89357">
        <ele>172.1</ele>
        <time>2022-09-24T09:19:17Z</time>
      </trkpt>
      <trkpt lat="45.78551" lon="4.89353">
        <ele>172.1</ele>
        <time>2022-09-24T09:19:18Z</time>
      </trkpt>
      <trkpt lat="45.78557" lon="4.8935">
        <ele>172.2</ele>
        <time>2022-09-24T09:19:19Z</time>
      </trkpt>
      <trkpt lat="45.78562" lon="4.89346">
        <ele>172.2</ele>
        <time>2022-09-24T09:19:20Z</time>
      </trkpt>
      <trkpt lat="45.78566" lon="4.89343">
        <ele>172.2</ele>
        <time>2022-09-24T09:19:21Z</time>
      </trkpt>
      <trkpt lat="45.78572" lon="4.8934">
        <ele>172.2</ele>
        <time>2022-09-24T09:19:22Z</time>
      </trkpt>
      <trkpt lat="45.78578" lon="4.89337">
        <ele>172.3</ele>
        <time>2022-09-24T09:19:23Z</time>
      </trkpt>
      <trkpt lat="45.78582" lon="4.89334">
        <ele>172.3</ele>
        <time>2022-09-24T09:19:24Z</time>
      </trkpt>
      <trkpt lat="45.78588" lon="4.89331">
        <ele>172.3</ele>
        <time>2022-09-24T09:19:25Z</time>
      </trkpt>
      <trkpt lat="45.78594" lon="4.89327">
        <ele>172.4</ele>
        <time>2022-09-24T09:19:26Z</time>
      </trkpt>
      <trkpt lat="45.786" lon="4.89324">
        <ele>172.4</ele>
        <time>2022-09-24T09:19:28Z</time>
      </trkpt>
      <trkpt lat="45.78605" lon="4.89321">
        <ele>172.5</ele>
        <time>2022-09-24T09:19:29Z</time>
      </trkpt>
      <trkpt lat="45.78611" lon="4.89318">
        <ele>172.6</ele>
        <time>2022-09-24T09:19:30Z</time>
      </trkpt>
      <trkpt lat="45.78617" lon="4.89315">
        <ele>172.7</ele>
        <time>2022-09-24T09:19:31Z</time>
      </trkpt>
      <trkpt lat="45.78621" lon="4.89311">
        <ele>172.9</ele>
        <time>2022-09-24T09:19:32Z</time>
      </trkpt>
      <trkpt lat="45.78626" lon="4.89306">
        <ele>173</ele>
        <time>2022-09-24T09:19:33Z</time>
      </trkpt>
      <trkpt lat="45.78629" lon="4.89303">
        <ele>173.1</ele>
        <time>2022-09-24T09:19:34Z</time>
      </trkpt>
      <trkpt lat="45.78632" lon="4.89298">
        <ele>173.1</ele>
        <time>2022-09-24T09:19:35Z</time>
      </trkpt>
      <trkpt lat="45.78634" lon="4.89294">
        <ele>173.1</ele>
        <time>2022-09-24T09:19:36Z</time>
      </trkpt>
      <trkpt lat="45.78637" lon="4.89291">
        <ele>173.1</ele>
        <time>2022-09-24T09:19:37Z</time>
      </trkpt>
      <trkpt lat="45.78641" lon="4.89289">
        <ele>173.1</ele>
        <time>2022-09-24T09:19:38Z</time>
      </trkpt>
      <trkpt lat="45.78646" lon="4.89285">
        <ele>173</ele>
        <time>2022-09-24T09:19:39Z</time>
      </trkpt>
      <trkpt lat="45.7865" lon="4.89283">
        <ele>172.9</ele>
        <time>2022-09-24T09:19:40Z</time>
      </trkpt>
      <trkpt lat="45.78655" lon="4.8928">
        <ele>172.8</ele>
        <time>2022-09-24T09:19:41Z</time>
      </trkpt>
      <trkpt lat="45.7866" lon="4.89276">
        <ele>172.7</ele>
        <time>2022-09-24T09:19:42Z</time>
      </trkpt>
      <trkpt lat="45.78665" lon="4.89273">
        <ele>172.6</ele>
        <time>2022-09-24T09:19:43Z</time>
      </trkpt>
      <trkpt lat="45.7867" lon="4.89269">
        <ele>172.5</ele>
        <time>2022-09-24T09:19:44Z</time>
      </trkpt>
      <trkpt lat="45.78678" lon="4.89263">
        <ele>172.4</ele>
        <time>2022-09-24T09:19:45Z</time>
      </trkpt>
      <trkpt lat="45.78683" lon="4.89258">
        <ele>172.3</ele>
        <time>2022-09-24T09:19:46Z</time>
      </trkpt>
      <trkpt lat="45.78688" lon="4.89255">
        <ele>172.2</ele>
        <time>2022-09-24T09:19:47Z</time>
      </trkpt>
      <trkpt lat="45.78693" lon="4.8925">
        <ele>172.2</ele>
        <time>2022-09-24T09:19:48Z</time>
      </trkpt>
      <trkpt lat="45.78698" lon="4.89245">
        <ele>172.1</ele>
        <time>2022-09-24T09:19:49Z</time>
      </trkpt>
      <trkpt lat="45.78702" lon="4.89242">
        <ele>172.1</ele>
        <time>2022-09-24T09:19:50Z</time>
      </trkpt>
      <trkpt lat="45.78709" lon="4.89236">
        <ele>172.1</ele>
        <time>2022-09-24T09:19:51Z</time>
      </trkpt>
      <trkpt lat="45.78714" lon="4.89232">
        <ele>172</ele>
        <time>2022-09-24T09:19:52Z</time>
      </trkpt>
      <trkpt lat="45.78719" lon="4.89227">
        <ele>172</ele>
        <time>2022-09-24T09:19:53Z</time>
      </trkpt>
      <trkpt lat="45.78731" lon="4.89215">
        <ele>171.9</ele>
        <time>2022-09-24T09:19:54Z</time>
      </trkpt>
      <trkpt lat="45.78736" lon="4.89209">
        <ele>172</ele>
        <time>2022-09-24T09:19:55Z</time>
      </trkpt>
      <trkpt lat="45.78739" lon="4.89205">
        <ele>172</ele>
        <time>2022-09-24T09:19:56Z</time>
      </trkpt>
      <trkpt lat="45.78744" lon="4.89201">
        <ele>172</ele>
        <time>2022-09-24T09:19:57Z</time>
      </trkpt>
      <trkpt lat="45.78748" lon="4.89198">
        <ele>172.1</ele>
        <time>2022-09-24T09:19:58Z</time>
      </trkpt>
      <trkpt lat="45.78754" lon="4.89196">
        <ele>172.1</ele>
        <time>2022-09-24T09:19:59Z</time>
      </trkpt>
      <trkpt lat="45.78757" lon="4.89198">
        <ele>172.1</ele>
        <time>2022-09-24T09:20:00Z</time>
      </trkpt>
      <trkpt lat="45.7876" lon="4.89203">
        <ele>172.1</ele>
        <time>2022-09-24T09:20:01Z</time>
      </trkpt>
      <trkpt lat="45.78762" lon="4.89209">
        <ele>172.1</ele>
        <time>2022-09-24T09:20:02Z</time>
      </trkpt>
      <trkpt lat="45.78764" lon="4.89215">
        <ele>172</ele>
        <time>2022-09-24T09:20:03Z</time>
      </trkpt>
      <trkpt lat="45.78764" lon="4.8922">
        <ele>172</ele>
        <time>2022-09-24T09:20:04Z</time>
      </trkpt>
      <trkpt lat="45.78763" lon="4.89227">
        <ele>172</ele>
        <time>2022-09-24T09:20:05Z</time>
      </trkpt>
      <trkpt lat="45.78763" lon="4.89233">
        <ele>172</ele>
        <time>2022-09-24T09:20:06Z</time>
      </trkpt>
      <trkpt lat="45.78763" lon="4.8924">
        <ele>172</ele>
        <time>2022-09-24T09:20:07Z</time>
      </trkpt>
      <trkpt lat="45.78763" lon="4.89249">
        <ele>171.9</ele>
        <time>2022-09-24T09:20:08Z</time>
      </trkpt>
      <trkpt lat="45.78765" lon="4.89256">
        <ele>171.9</ele>
        <time>2022-09-24T09:20:09Z</time>
      </trkpt>
      <trkpt lat="45.78765" lon="4.89263">
        <ele>171.9</ele>
        <time>2022-09-24T09:20:10Z</time>
      </trkpt>
      <trkpt lat="45.78767" lon="4.8927">
        <ele>171.9</ele>
        <time>2022-09-24T09:20:11Z</time>
      </trkpt>
      <trkpt lat="45.78769" lon="4.89276">
        <ele>171.9</ele>
        <time>2022-09-24T09:20:12Z</time>
      </trkpt>
      <trkpt lat="45.78772" lon="4.89282">
        <ele>172</ele>
        <time>2022-09-24T09:20:13Z</time>
      </trkpt>
      <trkpt lat="45.78772" lon="4.89291">
        <ele>172</ele>
        <time>2022-09-24T09:20:14Z</time>
      </trkpt>
      <trkpt lat="45.78774" lon="4.89299">
        <ele>172</ele>
        <time>2022-09-24T09:20:15Z</time>
      </trkpt>
      <trkpt lat="45.78775" lon="4.89309">
        <ele>171.9</ele>
        <time>2022-09-24T09:20:16Z</time>
      </trkpt>
      <trkpt lat="45.78777" lon="4.89316">
        <ele>171.9</ele>
        <time>2022-09-24T09:20:17Z</time>
      </trkpt>
      <trkpt lat="45.78779" lon="4.89323">
        <ele>171.9</ele>
        <time>2022-09-24T09:20:18Z</time>
      </trkpt>
      <trkpt lat="45.78782" lon="4.89331">
        <ele>171.9</ele>
        <time>2022-09-24T09:20:19Z</time>
      </trkpt>
      <trkpt lat="45.78784" lon="4.8934">
        <ele>171.9</ele>
        <time>2022-09-24T09:20:20Z</time>
      </trkpt>
      <trkpt lat="45.78786" lon="4.89348">
        <ele>171.9</ele>
        <time>2022-09-24T09:20:21Z</time>
      </trkpt>
      <trkpt lat="45.78788" lon="4.89355">
        <ele>171.9</ele>
        <time>2022-09-24T09:20:22Z</time>
      </trkpt>
      <trkpt lat="45.7879" lon="4.89363">
        <ele>171.9</ele>
        <time>2022-09-24T09:20:23Z</time>
      </trkpt>
      <trkpt lat="45.78793" lon="4.8937">
        <ele>171.9</ele>
        <time>2022-09-24T09:20:24Z</time>
      </trkpt>
      <trkpt lat="45.78795" lon="4.89377">
        <ele>172</ele>
        <time>2022-09-24T09:20:25Z</time>
      </trkpt>
      <trkpt lat="45.78798" lon="4.89384">
        <ele>172</ele>
        <time>2022-09-24T09:20:26Z</time>
      </trkpt>
      <trkpt lat="45.78799" lon="4.89392">
        <ele>172</ele>
        <time>2022-09-24T09:20:27Z</time>
      </trkpt>
      <trkpt lat="45.78802" lon="4.89399">
        <ele>172</ele>
        <time>2022-09-24T09:20:28Z</time>
      </trkpt>
      <trkpt lat="45.78803" lon="4.89405">
        <ele>172</ele>
        <time>2022-09-24T09:20:29Z</time>
      </trkpt>
      <trkpt lat="45.78806" lon="4.89411">
        <ele>172</ele>
        <time>2022-09-24T09:20:30Z</time>
      </trkpt>
      <trkpt lat="45.78807" lon="4.89419">
        <ele>172.1</ele>
        <time>2022-09-24T09:20:31Z</time>
      </trkpt>
      <trkpt lat="45.78809" lon="4.89423">
        <ele>172.1</ele>
        <time>2022-09-24T09:20:32Z</time>
      </trkpt>
      <trkpt lat="45.78812" lon="4.89431">
        <ele>172.1</ele>
        <time>2022-09-24T09:20:33Z</time>
      </trkpt>
      <trkpt lat="45.78815" lon="4.89437">
        <ele>172.1</ele>
        <time>2022-09-24T09:20:34Z</time>
      </trkpt>
      <trkpt lat="45.78817" lon="4.89444">
        <ele>172.1</ele>
        <time>2022-09-24T09:20:35Z</time>
      </trkpt>
      <trkpt lat="45.7882" lon="4.89449">
        <ele>172.1</ele>
        <time>2022-09-24T09:20:36Z</time>
      </trkpt>
      <trkpt lat="45.78824" lon="4.89454">
        <ele>172.1</ele>
        <time>2022-09-24T09:20:37Z</time>
      </trkpt>
      <trkpt lat="45.78827" lon="4.8946">
        <ele>172.1</ele>
        <time>2022-09-24T09:20:38Z</time>
      </trkpt>
      <trkpt lat="45.78831" lon="4.89467">
        <ele>172.1</ele>
        <time>2022-09-24T09:20:39Z</time>
      </trkpt>
      <trkpt lat="45.78833" lon="4.89474">
        <ele>172.1</ele>
        <time>2022-09-24T09:20:40Z</time>
      </trkpt>
      <trkpt lat="45.78836" lon="4.89478">
        <ele>172</ele>
        <time>2022-09-24T09:20:41Z</time>
      </trkpt>
      <trkpt lat="45.7884" lon="4.89486">
        <ele>172</ele>
        <time>2022-09-24T09:20:42Z</time>
      </trkpt>
      <trkpt lat="45.78842" lon="4.89493">
        <ele>172</ele>
        <time>2022-09-24T09:20:43Z</time>
      </trkpt>
      <trkpt lat="45.78847" lon="4.89499">
        <ele>172</ele>
        <time>2022-09-24T09:20:44Z</time>
      </trkpt>
      <trkpt lat="45.78849" lon="4.89504">
        <ele>172</ele>
        <time>2022-09-24T09:20:45Z</time>
      </trkpt>
      <trkpt lat="45.78855" lon="4.89511">
        <ele>172</ele>
        <time>2022-09-24T09:20:46Z</time>
      </trkpt>
      <trkpt lat="45.78857" lon="4.89514">
        <ele>172</ele>
        <time>2022-09-24T09:20:47Z</time>
      </trkpt>
      <trkpt lat="45.78861" lon="4.89521">
        <ele>172</ele>
        <time>2022-09-24T09:20:48Z</time>
      </trkpt>
      <trkpt lat="45.78866" lon="4.89529">
        <ele>172.1</ele>
        <time>2022-09-24T09:20:49Z</time>
      </trkpt>
      <trkpt lat="45.7887" lon="4.89536">
        <ele>172.1</ele>
        <time>2022-09-24T09:20:50Z</time>
      </trkpt>
      <trkpt lat="45.78874" lon="4.89544">
        <ele>172.1</ele>
        <time>2022-09-24T09:20:51Z</time>
      </trkpt>
      <trkpt lat="45.78878" lon="4.89548">
        <ele>172.2</ele>
        <time>2022-09-24T09:20:52Z</time>
      </trkpt>
      <trkpt lat="45.78883" lon="4.89555">
        <ele>172.2</ele>
        <time>2022-09-24T09:20:53Z</time>
      </trkpt>
      <trkpt lat="45.78889" lon="4.89563">
        <ele>172.4</ele>
        <time>2022-09-24T09:20:54Z</time>
      </trkpt>
      <trkpt lat="45.78892" lon="4.89567">
        <ele>172.4</ele>
        <time>2022-09-24T09:20:55Z</time>
      </trkpt>
      <trkpt lat="45.78892" lon="4.89574">
        <ele>172.5</ele>
        <time>2022-09-24T09:20:56Z</time>
      </trkpt>
      <trkpt lat="45.78893" lon="4.89581">
        <ele>172.5</ele>
        <time>2022-09-24T09:20:57Z</time>
      </trkpt>
      <trkpt lat="45.78894" lon="4.89588">
        <ele>172.5</ele>
        <time>2022-09-24T09:20:58Z</time>
      </trkpt>
      <trkpt lat="45.78892" lon="4.89594">
        <ele>172.5</ele>
        <time>2022-09-24T09:20:59Z</time>
      </trkpt>
      <trkpt lat="45.78895" lon="4.89603">
        <ele>172.5</ele>
        <time>2022-09-24T09:21:00Z</time>
      </trkpt>
      <trkpt lat="45.78893" lon="4.89608">
        <ele>172.5</ele>
        <time>2022-09-24T09:21:01Z</time>
      </trkpt>
      <trkpt lat="45.78892" lon="4.89613">
        <ele>172.5</ele>
        <time>2022-09-24T09:21:02Z</time>
      </trkpt>
      <trkpt lat="45.78891" lon="4.89618">
        <ele>172.5</ele>
        <time>2022-09-24T09:21:03Z</time>
      </trkpt>
      <trkpt lat="45.78889" lon="4.89624">
        <ele>172.5</ele>
        <time>2022-09-24T09:21:04Z</time>
      </trkpt>
      <trkpt lat="45.78888" lon="4.8963">
        <ele>172.5</ele>
        <time>2022-09-24T09:21:05Z</time>
      </trkpt>
      <trkpt lat="45.78887" lon="4.89635">
        <ele>172.5</ele>
        <time>2022-09-24T09:21:06Z</time>
      </trkpt>
      <trkpt lat="45.78886" lon="4.89642">
        <ele>172.5</ele>
        <time>2022-09-24T09:21:07Z</time>
      </trkpt>
      <trkpt lat="45.78885" lon="4.89649">
        <ele>172.5</ele>
        <time>2022-09-24T09:21:08Z</time>
      </trkpt>
      <trkpt lat="45.78885" lon="4.89654">
        <ele>172.4</ele>
        <time>2022-09-24T09:21:09Z</time>
      </trkpt>
      <trkpt lat="45.78885" lon="4.8966">
        <ele>172.4</ele>
        <time>2022-09-24T09:21:10Z</time>
      </trkpt>
      <trkpt lat="45.78883" lon="4.89669">
        <ele>172.4</ele>
        <time>2022-09-24T09:21:11Z</time>
      </trkpt>
      <trkpt lat="45.78882" lon="4.89677">
        <ele>172.3</ele>
        <time>2022-09-24T09:21:12Z</time>
      </trkpt>
      <trkpt lat="45.7888" lon="4.89685">
        <ele>172.2</ele>
        <time>2022-09-24T09:21:13Z</time>
      </trkpt>
      <trkpt lat="45.78877" lon="4.89695">
        <ele>172.2</ele>
        <time>2022-09-24T09:21:14Z</time>
      </trkpt>
      <trkpt lat="45.78877" lon="4.89704">
        <ele>172.1</ele>
        <time>2022-09-24T09:21:15Z</time>
      </trkpt>
      <trkpt lat="45.78875" lon="4.89715">
        <ele>172</ele>
        <time>2022-09-24T09:21:16Z</time>
      </trkpt>
      <trkpt lat="45.78875" lon="4.89727">
        <ele>171.9</ele>
        <time>2022-09-24T09:21:17Z</time>
      </trkpt>
      <trkpt lat="45.78873" lon="4.89739">
        <ele>171.8</ele>
        <time>2022-09-24T09:21:18Z</time>
      </trkpt>
      <trkpt lat="45.78874" lon="4.89751">
        <ele>171.8</ele>
        <time>2022-09-24T09:21:19Z</time>
      </trkpt>
      <trkpt lat="45.78875" lon="4.89761">
        <ele>171.8</ele>
        <time>2022-09-24T09:21:20Z</time>
      </trkpt>
      <trkpt lat="45.78876" lon="4.89771">
        <ele>171.8</ele>
        <time>2022-09-24T09:21:21Z</time>
      </trkpt>
      <trkpt lat="45.78879" lon="4.89778">
        <ele>171.8</ele>
        <time>2022-09-24T09:21:22Z</time>
      </trkpt>
      <trkpt lat="45.7888" lon="4.89783">
        <ele>171.8</ele>
        <time>2022-09-24T09:21:23Z</time>
      </trkpt>
      <trkpt lat="45.78881" lon="4.89792">
        <ele>171.8</ele>
        <time>2022-09-24T09:21:24Z</time>
      </trkpt>
      <trkpt lat="45.78883" lon="4.89801">
        <ele>171.8</ele>
        <time>2022-09-24T09:21:25Z</time>
      </trkpt>
      <trkpt lat="45.78884" lon="4.89809">
        <ele>171.8</ele>
        <time>2022-09-24T09:21:26Z</time>
      </trkpt>
      <trkpt lat="45.78886" lon="4.89818">
        <ele>171.8</ele>
        <time>2022-09-24T09:21:27Z</time>
      </trkpt>
      <trkpt lat="45.78888" lon="4.89827">
        <ele>171.8</ele>
        <time>2022-09-24T09:21:28Z</time>
      </trkpt>
      <trkpt lat="45.7889" lon="4.89835">
        <ele>171.9</ele>
        <time>2022-09-24T09:21:29Z</time>
      </trkpt>
      <trkpt lat="45.78892" lon="4.89843">
        <ele>171.9</ele>
        <time>2022-09-24T09:21:30Z</time>
      </trkpt>
      <trkpt lat="45.78894" lon="4.8985">
        <ele>171.9</ele>
        <time>2022-09-24T09:21:31Z</time>
      </trkpt>
      <trkpt lat="45.78895" lon="4.89857">
        <ele>172</ele>
        <time>2022-09-24T09:21:32Z</time>
      </trkpt>
      <trkpt lat="45.78896" lon="4.89866">
        <ele>172</ele>
        <time>2022-09-24T09:21:34Z</time>
      </trkpt>
      <trkpt lat="45.78899" lon="4.89875">
        <ele>172.1</ele>
        <time>2022-09-24T09:21:35Z</time>
      </trkpt>
      <trkpt lat="45.78901" lon="4.89881">
        <ele>172.1</ele>
        <time>2022-09-24T09:21:36Z</time>
      </trkpt>
      <trkpt lat="45.78904" lon="4.89898">
        <ele>172.2</ele>
        <time>2022-09-24T09:21:37Z</time>
      </trkpt>
      <trkpt lat="45.78905" lon="4.89906">
        <ele>172.3</ele>
        <time>2022-09-24T09:21:38Z</time>
      </trkpt>
      <trkpt lat="45.78907" lon="4.89913">
        <ele>172.3</ele>
        <time>2022-09-24T09:21:39Z</time>
      </trkpt>
      <trkpt lat="45.78908" lon="4.89921">
        <ele>172.4</ele>
        <time>2022-09-24T09:21:40Z</time>
      </trkpt>
      <trkpt lat="45.78909" lon="4.89928">
        <ele>172.4</ele>
        <time>2022-09-24T09:21:41Z</time>
      </trkpt>
      <trkpt lat="45.78912" lon="4.89935">
        <ele>172.5</ele>
        <time>2022-09-24T09:21:42Z</time>
      </trkpt>
      <trkpt lat="45.78913" lon="4.89943">
        <ele>172.5</ele>
        <time>2022-09-24T09:21:44Z</time>
      </trkpt>
      <trkpt lat="45.78913" lon="4.89951">
        <ele>172.6</ele>
        <time>2022-09-24T09:21:45Z</time>
      </trkpt>
      <trkpt lat="45.78915" lon="4.89959">
        <ele>172.6</ele>
        <time>2022-09-24T09:21:46Z</time>
      </trkpt>
      <trkpt lat="45.78918" lon="4.89975">
        <ele>172.8</ele>
        <time>2022-09-24T09:21:47Z</time>
      </trkpt>
      <trkpt lat="45.78919" lon="4.89982">
        <ele>172.8</ele>
        <time>2022-09-24T09:21:48Z</time>
      </trkpt>
      <trkpt lat="45.7892" lon="4.8999">
        <ele>172.9</ele>
        <time>2022-09-24T09:21:49Z</time>
      </trkpt>
      <trkpt lat="45.78923" lon="4.89998">
        <ele>172.9</ele>
        <time>2022-09-24T09:21:50Z</time>
      </trkpt>
      <trkpt lat="45.78924" lon="4.90004">
        <ele>173</ele>
        <time>2022-09-24T09:21:51Z</time>
      </trkpt>
      <trkpt lat="45.78925" lon="4.90014">
        <ele>173</ele>
        <time>2022-09-24T09:21:52Z</time>
      </trkpt>
      <trkpt lat="45.78928" lon="4.90022">
        <ele>173</ele>
        <time>2022-09-24T09:21:53Z</time>
      </trkpt>
      <trkpt lat="45.78931" lon="4.90031">
        <ele>173</ele>
        <time>2022-09-24T09:21:54Z</time>
      </trkpt>
      <trkpt lat="45.78934" lon="4.9004">
        <ele>172.9</ele>
        <time>2022-09-24T09:21:55Z</time>
      </trkpt>
      <trkpt lat="45.78936" lon="4.90046">
        <ele>172.9</ele>
        <time>2022-09-24T09:21:56Z</time>
      </trkpt>
      <trkpt lat="45.78938" lon="4.90055">
        <ele>172.9</ele>
        <time>2022-09-24T09:21:57Z</time>
      </trkpt>
      <trkpt lat="45.7894" lon="4.90061">
        <ele>172.9</ele>
        <time>2022-09-24T09:21:58Z</time>
      </trkpt>
      <trkpt lat="45.78943" lon="4.90068">
        <ele>172.8</ele>
        <time>2022-09-24T09:21:59Z</time>
      </trkpt>
      <trkpt lat="45.78946" lon="4.90076">
        <ele>172.8</ele>
        <time>2022-09-24T09:22:00Z</time>
      </trkpt>
      <trkpt lat="45.7895" lon="4.90083">
        <ele>172.8</ele>
        <time>2022-09-24T09:22:01Z</time>
      </trkpt>
      <trkpt lat="45.78953" lon="4.90092">
        <ele>172.9</ele>
        <time>2022-09-24T09:22:02Z</time>
      </trkpt>
      <trkpt lat="45.78955" lon="4.90096">
        <ele>172.9</ele>
        <time>2022-09-24T09:22:03Z</time>
      </trkpt>
      <trkpt lat="45.78959" lon="4.90103">
        <ele>172.9</ele>
        <time>2022-09-24T09:22:04Z</time>
      </trkpt>
      <trkpt lat="45.78962" lon="4.9011">
        <ele>172.9</ele>
        <time>2022-09-24T09:22:05Z</time>
      </trkpt>
      <trkpt lat="45.78965" lon="4.90116">
        <ele>172.9</ele>
        <time>2022-09-24T09:22:06Z</time>
      </trkpt>
      <trkpt lat="45.78968" lon="4.90125">
        <ele>172.9</ele>
        <time>2022-09-24T09:22:07Z</time>
      </trkpt>
      <trkpt lat="45.78971" lon="4.90133">
        <ele>172.9</ele>
        <time>2022-09-24T09:22:08Z</time>
      </trkpt>
      <trkpt lat="45.78973" lon="4.9014">
        <ele>172.9</ele>
        <time>2022-09-24T09:22:09Z</time>
      </trkpt>
      <trkpt lat="45.78977" lon="4.90146">
        <ele>172.9</ele>
        <time>2022-09-24T09:22:10Z</time>
      </trkpt>
      <trkpt lat="45.78981" lon="4.90151">
        <ele>173</ele>
        <time>2022-09-24T09:22:11Z</time>
      </trkpt>
      <trkpt lat="45.78986" lon="4.90157">
        <ele>173</ele>
        <time>2022-09-24T09:22:12Z</time>
      </trkpt>
      <trkpt lat="45.7899" lon="4.90162">
        <ele>173.1</ele>
        <time>2022-09-24T09:22:13Z</time>
      </trkpt>
      <trkpt lat="45.78992" lon="4.90169">
        <ele>173.2</ele>
        <time>2022-09-24T09:22:14Z</time>
      </trkpt>
      <trkpt lat="45.78996" lon="4.90173">
        <ele>173.2</ele>
        <time>2022-09-24T09:22:15Z</time>
      </trkpt>
      <trkpt lat="45.78999" lon="4.90178">
        <ele>173.3</ele>
        <time>2022-09-24T09:22:16Z</time>
      </trkpt>
      <trkpt lat="45.79001" lon="4.90185">
        <ele>173.4</ele>
        <time>2022-09-24T09:22:17Z</time>
      </trkpt>
      <trkpt lat="45.79005" lon="4.9019">
        <ele>173.4</ele>
        <time>2022-09-24T09:22:18Z</time>
      </trkpt>
      <trkpt lat="45.79009" lon="4.90193">
        <ele>173.5</ele>
        <time>2022-09-24T09:22:19Z</time>
      </trkpt>
      <trkpt lat="45.79013" lon="4.90198">
        <ele>173.6</ele>
        <time>2022-09-24T09:22:20Z</time>
      </trkpt>
      <trkpt lat="45.79015" lon="4.90202">
        <ele>173.6</ele>
        <time>2022-09-24T09:22:21Z</time>
      </trkpt>
      <trkpt lat="45.79018" lon="4.90205">
        <ele>173.7</ele>
        <time>2022-09-24T09:22:22Z</time>
      </trkpt>
      <trkpt lat="45.79023" lon="4.90209">
        <ele>173.8</ele>
        <time>2022-09-24T09:22:23Z</time>
      </trkpt>
      <trkpt lat="45.79026" lon="4.90213">
        <ele>173.8</ele>
        <time>2022-09-24T09:22:24Z</time>
      </trkpt>
      <trkpt lat="45.79029" lon="4.90216">
        <ele>173.8</ele>
        <time>2022-09-24T09:22:25Z</time>
      </trkpt>
      <trkpt lat="45.79033" lon="4.90219">
        <ele>173.8</ele>
        <time>2022-09-24T09:22:26Z</time>
      </trkpt>
      <trkpt lat="45.79037" lon="4.90223">
        <ele>173.8</ele>
        <time>2022-09-24T09:22:27Z</time>
      </trkpt>
      <trkpt lat="45.79042" lon="4.90229">
        <ele>173.8</ele>
        <time>2022-09-24T09:22:28Z</time>
      </trkpt>
      <trkpt lat="45.79047" lon="4.90233">
        <ele>173.8</ele>
        <time>2022-09-24T09:22:29Z</time>
      </trkpt>
      <trkpt lat="45.7905" lon="4.90238">
        <ele>173.8</ele>
        <time>2022-09-24T09:22:30Z</time>
      </trkpt>
      <trkpt lat="45.79056" lon="4.90243">
        <ele>173.8</ele>
        <time>2022-09-24T09:22:31Z</time>
      </trkpt>
      <trkpt lat="45.7906" lon="4.90249">
        <ele>173.8</ele>
        <time>2022-09-24T09:22:32Z</time>
      </trkpt>
      <trkpt lat="45.79063" lon="4.90252">
        <ele>173.8</ele>
        <time>2022-09-24T09:22:33Z</time>
      </trkpt>
      <trkpt lat="45.79068" lon="4.90259">
        <ele>173.7</ele>
        <time>2022-09-24T09:22:34Z</time>
      </trkpt>
      <trkpt lat="45.79071" lon="4.90263">
        <ele>173.7</ele>
        <time>2022-09-24T09:22:35Z</time>
      </trkpt>
      <trkpt lat="45.79075" lon="4.90269">
        <ele>173.6</ele>
        <time>2022-09-24T09:22:36Z</time>
      </trkpt>
      <trkpt lat="45.7908" lon="4.90276">
        <ele>173.5</ele>
        <time>2022-09-24T09:22:37Z</time>
      </trkpt>
      <trkpt lat="45.79085" lon="4.90284">
        <ele>173.5</ele>
        <time>2022-09-24T09:22:38Z</time>
      </trkpt>
      <trkpt lat="45.79089" lon="4.90291">
        <ele>173.4</ele>
        <time>2022-09-24T09:22:39Z</time>
      </trkpt>
      <trkpt lat="45.79092" lon="4.90299">
        <ele>173.3</ele>
        <time>2022-09-24T09:22:40Z</time>
      </trkpt>
      <trkpt lat="45.79095" lon="4.90305">
        <ele>173.2</ele>
        <time>2022-09-24T09:22:41Z</time>
      </trkpt>
      <trkpt lat="45.79099" lon="4.90312">
        <ele>173.2</ele>
        <time>2022-09-24T09:22:42Z</time>
      </trkpt>
      <trkpt lat="45.79101" lon="4.9032">
        <ele>173.1</ele>
        <time>2022-09-24T09:22:43Z</time>
      </trkpt>
      <trkpt lat="45.79104" lon="4.9033">
        <ele>173</ele>
        <time>2022-09-24T09:22:44Z</time>
      </trkpt>
      <trkpt lat="45.79107" lon="4.90337">
        <ele>173</ele>
        <time>2022-09-24T09:22:45Z</time>
      </trkpt>
      <trkpt lat="45.79109" lon="4.90344">
        <ele>173</ele>
        <time>2022-09-24T09:22:46Z</time>
      </trkpt>
      <trkpt lat="45.7911" lon="4.90352">
        <ele>173</ele>
        <time>2022-09-24T09:22:47Z</time>
      </trkpt>
      <trkpt lat="45.79112" lon="4.90357">
        <ele>173</ele>
        <time>2022-09-24T09:22:48Z</time>
      </trkpt>
      <trkpt lat="45.79113" lon="4.90366">
        <ele>173</ele>
        <time>2022-09-24T09:22:49Z</time>
      </trkpt>
      <trkpt lat="45.79116" lon="4.90374">
        <ele>173</ele>
        <time>2022-09-24T09:22:50Z</time>
      </trkpt>
      <trkpt lat="45.79119" lon="4.90382">
        <ele>173</ele>
        <time>2022-09-24T09:22:51Z</time>
      </trkpt>
      <trkpt lat="45.7912" lon="4.90388">
        <ele>173.1</ele>
        <time>2022-09-24T09:22:52Z</time>
      </trkpt>
      <trkpt lat="45.79122" lon="4.90395">
        <ele>173.1</ele>
        <time>2022-09-24T09:22:53Z</time>
      </trkpt>
      <trkpt lat="45.79125" lon="4.90407">
        <ele>173.2</ele>
        <time>2022-09-24T09:22:54Z</time>
      </trkpt>
      <trkpt lat="45.79127" lon="4.90416">
        <ele>173.3</ele>
        <time>2022-09-24T09:22:55Z</time>
      </trkpt>
      <trkpt lat="45.79128" lon="4.90425">
        <ele>173.3</ele>
        <time>2022-09-24T09:22:56Z</time>
      </trkpt>
      <trkpt lat="45.79129" lon="4.90435">
        <ele>173.3</ele>
        <time>2022-09-24T09:22:57Z</time>
      </trkpt>
      <trkpt lat="45.79131" lon="4.90444">
        <ele>173.3</ele>
        <time>2022-09-24T09:22:58Z</time>
      </trkpt>
      <trkpt lat="45.79132" lon="4.90454">
        <ele>173.3</ele>
        <time>2022-09-24T09:22:59Z</time>
      </trkpt>
      <trkpt lat="45.79132" lon="4.90464">
        <ele>173.2</ele>
        <time>2022-09-24T09:23:00Z</time>
      </trkpt>
      <trkpt lat="45.79132" lon="4.90473">
        <ele>173.1</ele>
        <time>2022-09-24T09:23:01Z</time>
      </trkpt>
      <trkpt lat="45.79132" lon="4.90482">
        <ele>173.1</ele>
        <time>2022-09-24T09:23:02Z</time>
      </trkpt>
      <trkpt lat="45.79132" lon="4.90489">
        <ele>173</ele>
        <time>2022-09-24T09:23:03Z</time>
      </trkpt>
      <trkpt lat="45.79131" lon="4.90495">
        <ele>173</ele>
        <time>2022-09-24T09:23:04Z</time>
      </trkpt>
      <trkpt lat="45.79131" lon="4.90503">
        <ele>173</ele>
        <time>2022-09-24T09:23:05Z</time>
      </trkpt>
      <trkpt lat="45.79131" lon="4.90512">
        <ele>173</ele>
        <time>2022-09-24T09:23:06Z</time>
      </trkpt>
      <trkpt lat="45.79129" lon="4.90519">
        <ele>173</ele>
        <time>2022-09-24T09:23:07Z</time>
      </trkpt>
      <trkpt lat="45.79129" lon="4.90528">
        <ele>173</ele>
        <time>2022-09-24T09:23:08Z</time>
      </trkpt>
      <trkpt lat="45.79127" lon="4.90537">
        <ele>173</ele>
        <time>2022-09-24T09:23:09Z</time>
      </trkpt>
      <trkpt lat="45.79127" lon="4.90545">
        <ele>173</ele>
        <time>2022-09-24T09:23:10Z</time>
      </trkpt>
      <trkpt lat="45.79127" lon="4.90553">
        <ele>173</ele>
        <time>2022-09-24T09:23:11Z</time>
      </trkpt>
      <trkpt lat="45.79126" lon="4.90562">
        <ele>173.1</ele>
        <time>2022-09-24T09:23:12Z</time>
      </trkpt>
      <trkpt lat="45.79126" lon="4.9057">
        <ele>173.1</ele>
        <time>2022-09-24T09:23:13Z</time>
      </trkpt>
      <trkpt lat="45.79125" lon="4.90578">
        <ele>173.1</ele>
        <time>2022-09-24T09:23:14Z</time>
      </trkpt>
      <trkpt lat="45.79123" lon="4.90587">
        <ele>173.2</ele>
        <time>2022-09-24T09:23:15Z</time>
      </trkpt>
      <trkpt lat="45.79124" lon="4.90593">
        <ele>173.2</ele>
        <time>2022-09-24T09:23:16Z</time>
      </trkpt>
      <trkpt lat="45.79124" lon="4.90599">
        <ele>173.2</ele>
        <time>2022-09-24T09:23:17Z</time>
      </trkpt>
      <trkpt lat="45.79123" lon="4.9061">
        <ele>173.3</ele>
        <time>2022-09-24T09:23:18Z</time>
      </trkpt>
      <trkpt lat="45.79122" lon="4.90619">
        <ele>173.3</ele>
        <time>2022-09-24T09:23:19Z</time>
      </trkpt>
      <trkpt lat="45.79121" lon="4.90629">
        <ele>173.3</ele>
        <time>2022-09-24T09:23:20Z</time>
      </trkpt>
      <trkpt lat="45.7912" lon="4.90638">
        <ele>173.4</ele>
        <time>2022-09-24T09:23:21Z</time>
      </trkpt>
      <trkpt lat="45.79119" lon="4.90645">
        <ele>173.4</ele>
        <time>2022-09-24T09:23:22Z</time>
      </trkpt>
      <trkpt lat="45.79119" lon="4.90654">
        <ele>173.4</ele>
        <time>2022-09-24T09:23:23Z</time>
      </trkpt>
      <trkpt lat="45.79118" lon="4.90663">
        <ele>173.3</ele>
        <time>2022-09-24T09:23:24Z</time>
      </trkpt>
      <trkpt lat="45.79118" lon="4.90673">
        <ele>173.3</ele>
        <time>2022-09-24T09:23:25Z</time>
      </trkpt>
      <trkpt lat="45.79117" lon="4.90683">
        <ele>173.3</ele>
        <time>2022-09-24T09:23:26Z</time>
      </trkpt>
      <trkpt lat="45.79117" lon="4.90693">
        <ele>173.2</ele>
        <time>2022-09-24T09:23:27Z</time>
      </trkpt>
      <trkpt lat="45.79117" lon="4.90701">
        <ele>173.2</ele>
        <time>2022-09-24T09:23:28Z</time>
      </trkpt>
      <trkpt lat="45.79116" lon="4.90709">
        <ele>173.2</ele>
        <time>2022-09-24T09:23:29Z</time>
      </trkpt>
      <trkpt lat="45.79116" lon="4.90718">
        <ele>173.2</ele>
        <time>2022-09-24T09:23:30Z</time>
      </trkpt>
      <trkpt lat="45.79116" lon="4.90727">
        <ele>173.2</ele>
        <time>2022-09-24T09:23:31Z</time>
      </trkpt>
      <trkpt lat="45.79115" lon="4.90736">
        <ele>173.1</ele>
        <time>2022-09-24T09:23:32Z</time>
      </trkpt>
      <trkpt lat="45.79114" lon="4.90745">
        <ele>173.1</ele>
        <time>2022-09-24T09:23:33Z</time>
      </trkpt>
      <trkpt lat="45.79114" lon="4.90752">
        <ele>173.1</ele>
        <time>2022-09-24T09:23:34Z</time>
      </trkpt>
      <trkpt lat="45.79113" lon="4.90757">
        <ele>173.1</ele>
        <time>2022-09-24T09:23:35Z</time>
      </trkpt>
      <trkpt lat="45.79113" lon="4.90776">
        <ele>173</ele>
        <time>2022-09-24T09:23:36Z</time>
      </trkpt>
      <trkpt lat="45.79112" lon="4.90783">
        <ele>173</ele>
        <time>2022-09-24T09:23:37Z</time>
      </trkpt>
      <trkpt lat="45.79112" lon="4.90792">
        <ele>173</ele>
        <time>2022-09-24T09:23:38Z</time>
      </trkpt>
      <trkpt lat="45.79111" lon="4.90801">
        <ele>172.9</ele>
        <time>2022-09-24T09:23:40Z</time>
      </trkpt>
      <trkpt lat="45.79112" lon="4.90809">
        <ele>172.9</ele>
        <time>2022-09-24T09:23:41Z</time>
      </trkpt>
      <trkpt lat="45.79112" lon="4.90819">
        <ele>172.8</ele>
        <time>2022-09-24T09:23:42Z</time>
      </trkpt>
      <trkpt lat="45.79113" lon="4.90827">
        <ele>172.8</ele>
        <time>2022-09-24T09:23:43Z</time>
      </trkpt>
      <trkpt lat="45.79113" lon="4.90835">
        <ele>172.8</ele>
        <time>2022-09-24T09:23:44Z</time>
      </trkpt>
      <trkpt lat="45.79114" lon="4.90845">
        <ele>172.8</ele>
        <time>2022-09-24T09:23:45Z</time>
      </trkpt>
      <trkpt lat="45.79116" lon="4.90855">
        <ele>172.8</ele>
        <time>2022-09-24T09:23:46Z</time>
      </trkpt>
      <trkpt lat="45.79118" lon="4.90864">
        <ele>172.7</ele>
        <time>2022-09-24T09:23:47Z</time>
      </trkpt>
      <trkpt lat="45.79119" lon="4.90873">
        <ele>172.7</ele>
        <time>2022-09-24T09:23:48Z</time>
      </trkpt>
      <trkpt lat="45.79121" lon="4.90882">
        <ele>172.7</ele>
        <time>2022-09-24T09:23:49Z</time>
      </trkpt>
      <trkpt lat="45.79122" lon="4.90891">
        <ele>172.6</ele>
        <time>2022-09-24T09:23:50Z</time>
      </trkpt>
      <trkpt lat="45.79124" lon="4.909">
        <ele>172.6</ele>
        <time>2022-09-24T09:23:51Z</time>
      </trkpt>
      <trkpt lat="45.79125" lon="4.90909">
        <ele>172.5</ele>
        <time>2022-09-24T09:23:52Z</time>
      </trkpt>
      <trkpt lat="45.79126" lon="4.90917">
        <ele>172.5</ele>
        <time>2022-09-24T09:23:53Z</time>
      </trkpt>
      <trkpt lat="45.79128" lon="4.90924">
        <ele>172.4</ele>
        <time>2022-09-24T09:23:54Z</time>
      </trkpt>
      <trkpt lat="45.79131" lon="4.90932">
        <ele>172.4</ele>
        <time>2022-09-24T09:23:55Z</time>
      </trkpt>
      <trkpt lat="45.79133" lon="4.90941">
        <ele>172.3</ele>
        <time>2022-09-24T09:23:56Z</time>
      </trkpt>
      <trkpt lat="45.79136" lon="4.90958">
        <ele>172.2</ele>
        <time>2022-09-24T09:23:57Z</time>
      </trkpt>
      <trkpt lat="45.79138" lon="4.90965">
        <ele>172.2</ele>
        <time>2022-09-24T09:23:58Z</time>
      </trkpt>
      <trkpt lat="45.79139" lon="4.9097">
        <ele>172.1</ele>
        <time>2022-09-24T09:23:59Z</time>
      </trkpt>
      <trkpt lat="45.79139" lon="4.90978">
        <ele>172.1</ele>
        <time>2022-09-24T09:24:00Z</time>
      </trkpt>
      <trkpt lat="45.79141" lon="4.90986">
        <ele>172.1</ele>
        <time>2022-09-24T09:24:01Z</time>
      </trkpt>
      <trkpt lat="45.79145" lon="4.90994">
        <ele>172.1</ele>
        <time>2022-09-24T09:24:02Z</time>
      </trkpt>
      <trkpt lat="45.79146" lon="4.91003">
        <ele>172.1</ele>
        <time>2022-09-24T09:24:03Z</time>
      </trkpt>
      <trkpt lat="45.79148" lon="4.91012">
        <ele>172.1</ele>
        <time>2022-09-24T09:24:04Z</time>
      </trkpt>
      <trkpt lat="45.7915" lon="4.91021">
        <ele>172.1</ele>
        <time>2022-09-24T09:24:05Z</time>
      </trkpt>
      <trkpt lat="45.79152" lon="4.91028">
        <ele>172</ele>
        <time>2022-09-24T09:24:06Z</time>
      </trkpt>
      <trkpt lat="45.79154" lon="4.91036">
        <ele>172</ele>
        <time>2022-09-24T09:24:07Z</time>
      </trkpt>
      <trkpt lat="45.79155" lon="4.91045">
        <ele>172.1</ele>
        <time>2022-09-24T09:24:08Z</time>
      </trkpt>
      <trkpt lat="45.79157" lon="4.91052">
        <ele>172.1</ele>
        <time>2022-09-24T09:24:09Z</time>
      </trkpt>
      <trkpt lat="45.79158" lon="4.91061">
        <ele>172.1</ele>
        <time>2022-09-24T09:24:10Z</time>
      </trkpt>
      <trkpt lat="45.7916" lon="4.91072">
        <ele>172.1</ele>
        <time>2022-09-24T09:24:11Z</time>
      </trkpt>
      <trkpt lat="45.79162" lon="4.91079">
        <ele>172.1</ele>
        <time>2022-09-24T09:24:12Z</time>
      </trkpt>
      <trkpt lat="45.79165" lon="4.91085">
        <ele>172.2</ele>
        <time>2022-09-24T09:24:13Z</time>
      </trkpt>
      <trkpt lat="45.79167" lon="4.91095">
        <ele>172.2</ele>
        <time>2022-09-24T09:24:14Z</time>
      </trkpt>
      <trkpt lat="45.79168" lon="4.91103">
        <ele>172.2</ele>
        <time>2022-09-24T09:24:15Z</time>
      </trkpt>
      <trkpt lat="45.79172" lon="4.91112">
        <ele>172.3</ele>
        <time>2022-09-24T09:24:16Z</time>
      </trkpt>
      <trkpt lat="45.79173" lon="4.9112">
        <ele>172.3</ele>
        <time>2022-09-24T09:24:17Z</time>
      </trkpt>
      <trkpt lat="45.79175" lon="4.91129">
        <ele>172.3</ele>
        <time>2022-09-24T09:24:18Z</time>
      </trkpt>
      <trkpt lat="45.79176" lon="4.91139">
        <ele>172.4</ele>
        <time>2022-09-24T09:24:19Z</time>
      </trkpt>
      <trkpt lat="45.79178" lon="4.91146">
        <ele>172.4</ele>
        <time>2022-09-24T09:24:20Z</time>
      </trkpt>
      <trkpt lat="45.7918" lon="4.91155">
        <ele>172.5</ele>
        <time>2022-09-24T09:24:21Z</time>
      </trkpt>
      <trkpt lat="45.79182" lon="4.91163">
        <ele>172.5</ele>
        <time>2022-09-24T09:24:22Z</time>
      </trkpt>
      <trkpt lat="45.79184" lon="4.91171">
        <ele>172.6</ele>
        <time>2022-09-24T09:24:23Z</time>
      </trkpt>
      <trkpt lat="45.79186" lon="4.91181">
        <ele>172.6</ele>
        <time>2022-09-24T09:24:24Z</time>
      </trkpt>
      <trkpt lat="45.79188" lon="4.91189">
        <ele>172.7</ele>
        <time>2022-09-24T09:24:25Z</time>
      </trkpt>
      <trkpt lat="45.7919" lon="4.91198">
        <ele>172.7</ele>
        <time>2022-09-24T09:24:26Z</time>
      </trkpt>
      <trkpt lat="45.79192" lon="4.91206">
        <ele>172.7</ele>
        <time>2022-09-24T09:24:27Z</time>
      </trkpt>
      <trkpt lat="45.79194" lon="4.91215">
        <ele>172.8</ele>
        <time>2022-09-24T09:24:28Z</time>
      </trkpt>
      <trkpt lat="45.79195" lon="4.91222">
        <ele>172.8</ele>
        <time>2022-09-24T09:24:29Z</time>
      </trkpt>
      <trkpt lat="45.79197" lon="4.91232">
        <ele>172.8</ele>
        <time>2022-09-24T09:24:30Z</time>
      </trkpt>
      <trkpt lat="45.79198" lon="4.91239">
        <ele>172.9</ele>
        <time>2022-09-24T09:24:31Z</time>
      </trkpt>
      <trkpt lat="45.79201" lon="4.91247">
        <ele>172.9</ele>
        <time>2022-09-24T09:24:32Z</time>
      </trkpt>
      <trkpt lat="45.79202" lon="4.91255">
        <ele>172.9</ele>
        <time>2022-09-24T09:24:33Z</time>
      </trkpt>
      <trkpt lat="45.79205" lon="4.91263">
        <ele>172.9</ele>
        <time>2022-09-24T09:24:34Z</time>
      </trkpt>
      <trkpt lat="45.79206" lon="4.91271">
        <ele>172.9</ele>
        <time>2022-09-24T09:24:35Z</time>
      </trkpt>
      <trkpt lat="45.79209" lon="4.91279">
        <ele>172.9</ele>
        <time>2022-09-24T09:24:36Z</time>
      </trkpt>
      <trkpt lat="45.7921" lon="4.91285">
        <ele>172.9</ele>
        <time>2022-09-24T09:24:37Z</time>
      </trkpt>
      <trkpt lat="45.79212" lon="4.91292">
        <ele>172.9</ele>
        <time>2022-09-24T09:24:38Z</time>
      </trkpt>
      <trkpt lat="45.79213" lon="4.91301">
        <ele>172.9</ele>
        <time>2022-09-24T09:24:39Z</time>
      </trkpt>
      <trkpt lat="45.79216" lon="4.91309">
        <ele>172.9</ele>
        <time>2022-09-24T09:24:40Z</time>
      </trkpt>
      <trkpt lat="45.79217" lon="4.91317">
        <ele>172.9</ele>
        <time>2022-09-24T09:24:41Z</time>
      </trkpt>
      <trkpt lat="45.79219" lon="4.91325">
        <ele>172.9</ele>
        <time>2022-09-24T09:24:42Z</time>
      </trkpt>
      <trkpt lat="45.79221" lon="4.91333">
        <ele>172.9</ele>
        <time>2022-09-24T09:24:43Z</time>
      </trkpt>
      <trkpt lat="45.79223" lon="4.91341">
        <ele>172.9</ele>
        <time>2022-09-24T09:24:44Z</time>
      </trkpt>
      <trkpt lat="45.79225" lon="4.91349">
        <ele>172.8</ele>
        <time>2022-09-24T09:24:45Z</time>
      </trkpt>
      <trkpt lat="45.79226" lon="4.91358">
        <ele>172.8</ele>
        <time>2022-09-24T09:24:46Z</time>
      </trkpt>
      <trkpt lat="45.79229" lon="4.91366">
        <ele>172.8</ele>
        <time>2022-09-24T09:24:47Z</time>
      </trkpt>
      <trkpt lat="45.7923" lon="4.91376">
        <ele>172.8</ele>
        <time>2022-09-24T09:24:48Z</time>
      </trkpt>
      <trkpt lat="45.79232" lon="4.91384">
        <ele>172.8</ele>
        <time>2022-09-24T09:24:49Z</time>
      </trkpt>
      <trkpt lat="45.79233" lon="4.91391">
        <ele>172.8</ele>
        <time>2022-09-24T09:24:50Z</time>
      </trkpt>
      <trkpt lat="45.79236" lon="4.91399">
        <ele>172.7</ele>
        <time>2022-09-24T09:24:51Z</time>
      </trkpt>
      <trkpt lat="45.79237" lon="4.91406">
        <ele>172.7</ele>
        <time>2022-09-24T09:24:52Z</time>
      </trkpt>
      <trkpt lat="45.79239" lon="4.91416">
        <ele>172.7</ele>
        <time>2022-09-24T09:24:53Z</time>
      </trkpt>
      <trkpt lat="45.79242" lon="4.91424">
        <ele>172.7</ele>
        <time>2022-09-24T09:24:54Z</time>
      </trkpt>
      <trkpt lat="45.79243" lon="4.91432">
        <ele>172.6</ele>
        <time>2022-09-24T09:24:55Z</time>
      </trkpt>
      <trkpt lat="45.79245" lon="4.91438">
        <ele>172.6</ele>
        <time>2022-09-24T09:24:56Z</time>
      </trkpt>
      <trkpt lat="45.79247" lon="4.91446">
        <ele>172.6</ele>
        <time>2022-09-24T09:24:57Z</time>
      </trkpt>
      <trkpt lat="45.79249" lon="4.91455">
        <ele>172.6</ele>
        <time>2022-09-24T09:24:58Z</time>
      </trkpt>
      <trkpt lat="45.79252" lon="4.91462">
        <ele>172.6</ele>
        <time>2022-09-24T09:24:59Z</time>
      </trkpt>
      <trkpt lat="45.79253" lon="4.91472">
        <ele>172.5</ele>
        <time>2022-09-24T09:25:00Z</time>
      </trkpt>
      <trkpt lat="45.79255" lon="4.91479">
        <ele>172.5</ele>
        <time>2022-09-24T09:25:01Z</time>
      </trkpt>
      <trkpt lat="45.79257" lon="4.91487">
        <ele>172.5</ele>
        <time>2022-09-24T09:25:02Z</time>
      </trkpt>
      <trkpt lat="45.79259" lon="4.91494">
        <ele>172.5</ele>
        <time>2022-09-24T09:25:03Z</time>
      </trkpt>
      <trkpt lat="45.7926" lon="4.91503">
        <ele>172.5</ele>
        <time>2022-09-24T09:25:04Z</time>
      </trkpt>
      <trkpt lat="45.79263" lon="4.91511">
        <ele>172.5</ele>
        <time>2022-09-24T09:25:05Z</time>
      </trkpt>
      <trkpt lat="45.79265" lon="4.91518">
        <ele>172.5</ele>
        <time>2022-09-24T09:25:06Z</time>
      </trkpt>
      <trkpt lat="45.79267" lon="4.91526">
        <ele>172.5</ele>
        <time>2022-09-24T09:25:07Z</time>
      </trkpt>
      <trkpt lat="45.79269" lon="4.91534">
        <ele>172.5</ele>
        <time>2022-09-24T09:25:08Z</time>
      </trkpt>
      <trkpt lat="45.79271" lon="4.91543">
        <ele>172.5</ele>
        <time>2022-09-24T09:25:09Z</time>
      </trkpt>
      <trkpt lat="45.79274" lon="4.9155">
        <ele>172.5</ele>
        <time>2022-09-24T09:25:10Z</time>
      </trkpt>
      <trkpt lat="45.79276" lon="4.91559">
        <ele>172.5</ele>
        <time>2022-09-24T09:25:11Z</time>
      </trkpt>
      <trkpt lat="45.79277" lon="4.91568">
        <ele>172.4</ele>
        <time>2022-09-24T09:25:12Z</time>
      </trkpt>
      <trkpt lat="45.79277" lon="4.91577">
        <ele>172.4</ele>
        <time>2022-09-24T09:25:13Z</time>
      </trkpt>
      <trkpt lat="45.79281" lon="4.91584">
        <ele>172.4</ele>
        <time>2022-09-24T09:25:14Z</time>
      </trkpt>
      <trkpt lat="45.79283" lon="4.91593">
        <ele>172.5</ele>
        <time>2022-09-24T09:25:15Z</time>
      </trkpt>
      <trkpt lat="45.79285" lon="4.91602">
        <ele>172.5</ele>
        <time>2022-09-24T09:25:16Z</time>
      </trkpt>
      <trkpt lat="45.79286" lon="4.9161">
        <ele>172.5</ele>
        <time>2022-09-24T09:25:17Z</time>
      </trkpt>
      <trkpt lat="45.79289" lon="4.91618">
        <ele>172.5</ele>
        <time>2022-09-24T09:25:18Z</time>
      </trkpt>
      <trkpt lat="45.7929" lon="4.91624">
        <ele>172.6</ele>
        <time>2022-09-24T09:25:19Z</time>
      </trkpt>
      <trkpt lat="45.79291" lon="4.91632">
        <ele>172.6</ele>
        <time>2022-09-24T09:25:20Z</time>
      </trkpt>
      <trkpt lat="45.79294" lon="4.91641">
        <ele>172.6</ele>
        <time>2022-09-24T09:25:21Z</time>
      </trkpt>
      <trkpt lat="45.79295" lon="4.9165">
        <ele>172.6</ele>
        <time>2022-09-24T09:25:22Z</time>
      </trkpt>
      <trkpt lat="45.79299" lon="4.91657">
        <ele>172.7</ele>
        <time>2022-09-24T09:25:23Z</time>
      </trkpt>
      <trkpt lat="45.79299" lon="4.91665">
        <ele>172.7</ele>
        <time>2022-09-24T09:25:24Z</time>
      </trkpt>
      <trkpt lat="45.79301" lon="4.91674">
        <ele>172.7</ele>
        <time>2022-09-24T09:25:25Z</time>
      </trkpt>
      <trkpt lat="45.79304" lon="4.91682">
        <ele>172.8</ele>
        <time>2022-09-24T09:25:26Z</time>
      </trkpt>
      <trkpt lat="45.79305" lon="4.91691">
        <ele>172.8</ele>
        <time>2022-09-24T09:25:27Z</time>
      </trkpt>
      <trkpt lat="45.79307" lon="4.91698">
        <ele>172.8</ele>
        <time>2022-09-24T09:25:28Z</time>
      </trkpt>
      <trkpt lat="45.79307" lon="4.91705">
        <ele>172.8</ele>
        <time>2022-09-24T09:25:29Z</time>
      </trkpt>
      <trkpt lat="45.79309" lon="4.91713">
        <ele>172.9</ele>
        <time>2022-09-24T09:25:30Z</time>
      </trkpt>
      <trkpt lat="45.79312" lon="4.9172">
        <ele>172.9</ele>
        <time>2022-09-24T09:25:31Z</time>
      </trkpt>
      <trkpt lat="45.79312" lon="4.91728">
        <ele>172.9</ele>
        <time>2022-09-24T09:25:32Z</time>
      </trkpt>
      <trkpt lat="45.79314" lon="4.91734">
        <ele>173</ele>
        <time>2022-09-24T09:25:33Z</time>
      </trkpt>
      <trkpt lat="45.79315" lon="4.91744">
        <ele>173</ele>
        <time>2022-09-24T09:25:34Z</time>
      </trkpt>
      <trkpt lat="45.79316" lon="4.9175">
        <ele>173</ele>
        <time>2022-09-24T09:25:35Z</time>
      </trkpt>
      <trkpt lat="45.79318" lon="4.91758">
        <ele>173</ele>
        <time>2022-09-24T09:25:36Z</time>
      </trkpt>
      <trkpt lat="45.7932" lon="4.91766">
        <ele>173</ele>
        <time>2022-09-24T09:25:37Z</time>
      </trkpt>
      <trkpt lat="45.79322" lon="4.91772">
        <ele>173</ele>
        <time>2022-09-24T09:25:38Z</time>
      </trkpt>
      <trkpt lat="45.79323" lon="4.91781">
        <ele>173</ele>
        <time>2022-09-24T09:25:39Z</time>
      </trkpt>
      <trkpt lat="45.79326" lon="4.91789">
        <ele>173</ele>
        <time>2022-09-24T09:25:40Z</time>
      </trkpt>
      <trkpt lat="45.79328" lon="4.91797">
        <ele>173</ele>
        <time>2022-09-24T09:25:41Z</time>
      </trkpt>
      <trkpt lat="45.79331" lon="4.91805">
        <ele>173</ele>
        <time>2022-09-24T09:25:42Z</time>
      </trkpt>
      <trkpt lat="45.79333" lon="4.91815">
        <ele>172.9</ele>
        <time>2022-09-24T09:25:43Z</time>
      </trkpt>
      <trkpt lat="45.79334" lon="4.91824">
        <ele>172.9</ele>
        <time>2022-09-24T09:25:44Z</time>
      </trkpt>
      <trkpt lat="45.79336" lon="4.91833">
        <ele>173</ele>
        <time>2022-09-24T09:25:46Z</time>
      </trkpt>
      <trkpt lat="45.79341" lon="4.91848">
        <ele>173</ele>
        <time>2022-09-24T09:25:47Z</time>
      </trkpt>
      <trkpt lat="45.79341" lon="4.91857">
        <ele>173</ele>
        <time>2022-09-24T09:25:48Z</time>
      </trkpt>
      <trkpt lat="45.79343" lon="4.91865">
        <ele>173.1</ele>
        <time>2022-09-24T09:25:49Z</time>
      </trkpt>
      <trkpt lat="45.79345" lon="4.91873">
        <ele>173.1</ele>
        <time>2022-09-24T09:25:50Z</time>
      </trkpt>
      <trkpt lat="45.79348" lon="4.91881">
        <ele>173.1</ele>
        <time>2022-09-24T09:25:52Z</time>
      </trkpt>
      <trkpt lat="45.79349" lon="4.91889">
        <ele>173.2</ele>
        <time>2022-09-24T09:25:53Z</time>
      </trkpt>
      <trkpt lat="45.79349" lon="4.91896">
        <ele>173.2</ele>
        <time>2022-09-24T09:25:54Z</time>
      </trkpt>
      <trkpt lat="45.79354" lon="4.91913">
        <ele>173.2</ele>
        <time>2022-09-24T09:25:55Z</time>
      </trkpt>
      <trkpt lat="45.79356" lon="4.9192">
        <ele>173.3</ele>
        <time>2022-09-24T09:25:56Z</time>
      </trkpt>
      <trkpt lat="45.79357" lon="4.91928">
        <ele>173.3</ele>
        <time>2022-09-24T09:25:57Z</time>
      </trkpt>
      <trkpt lat="45.79358" lon="4.91935">
        <ele>173.3</ele>
        <time>2022-09-24T09:25:58Z</time>
      </trkpt>
      <trkpt lat="45.7936" lon="4.91942">
        <ele>173.4</ele>
        <time>2022-09-24T09:25:59Z</time>
      </trkpt>
      <trkpt lat="45.79362" lon="4.91949">
        <ele>173.4</ele>
        <time>2022-09-24T09:26:00Z</time>
      </trkpt>
      <trkpt lat="45.79364" lon="4.91957">
        <ele>173.4</ele>
        <time>2022-09-24T09:26:01Z</time>
      </trkpt>
      <trkpt lat="45.79365" lon="4.91964">
        <ele>173.5</ele>
        <time>2022-09-24T09:26:02Z</time>
      </trkpt>
      <trkpt lat="45.79368" lon="4.91972">
        <ele>173.5</ele>
        <time>2022-09-24T09:26:04Z</time>
      </trkpt>
      <trkpt lat="45.79369" lon="4.91979">
        <ele>173.5</ele>
        <time>2022-09-24T09:26:05Z</time>
      </trkpt>
      <trkpt lat="45.79371" lon="4.91986">
        <ele>173.5</ele>
        <time>2022-09-24T09:26:06Z</time>
      </trkpt>
      <trkpt lat="45.79372" lon="4.91993">
        <ele>173.6</ele>
        <time>2022-09-24T09:26:07Z</time>
      </trkpt>
      <trkpt lat="45.79374" lon="4.92001">
        <ele>173.6</ele>
        <time>2022-09-24T09:26:08Z</time>
      </trkpt>
      <trkpt lat="45.79378" lon="4.92016">
        <ele>173.7</ele>
        <time>2022-09-24T09:26:09Z</time>
      </trkpt>
      <trkpt lat="45.79379" lon="4.92023">
        <ele>173.7</ele>
        <time>2022-09-24T09:26:10Z</time>
      </trkpt>
      <trkpt lat="45.7938" lon="4.92031">
        <ele>173.8</ele>
        <time>2022-09-24T09:26:11Z</time>
      </trkpt>
      <trkpt lat="45.79382" lon="4.92038">
        <ele>173.9</ele>
        <time>2022-09-24T09:26:12Z</time>
      </trkpt>
      <trkpt lat="45.79384" lon="4.92047">
        <ele>173.9</ele>
        <time>2022-09-24T09:26:13Z</time>
      </trkpt>
      <trkpt lat="45.79387" lon="4.92055">
        <ele>174</ele>
        <time>2022-09-24T09:26:14Z</time>
      </trkpt>
      <trkpt lat="45.79388" lon="4.92063">
        <ele>174</ele>
        <time>2022-09-24T09:26:15Z</time>
      </trkpt>
      <trkpt lat="45.7939" lon="4.9207">
        <ele>174</ele>
        <time>2022-09-24T09:26:16Z</time>
      </trkpt>
      <trkpt lat="45.79392" lon="4.92078">
        <ele>174</ele>
        <time>2022-09-24T09:26:17Z</time>
      </trkpt>
      <trkpt lat="45.79395" lon="4.92086">
        <ele>174</ele>
        <time>2022-09-24T09:26:18Z</time>
      </trkpt>
      <trkpt lat="45.79397" lon="4.92094">
        <ele>174</ele>
        <time>2022-09-24T09:26:19Z</time>
      </trkpt>
      <trkpt lat="45.79399" lon="4.92103">
        <ele>174</ele>
        <time>2022-09-24T09:26:20Z</time>
      </trkpt>
      <trkpt lat="45.794" lon="4.9211">
        <ele>174</ele>
        <time>2022-09-24T09:26:21Z</time>
      </trkpt>
      <trkpt lat="45.79402" lon="4.92118">
        <ele>174</ele>
        <time>2022-09-24T09:26:22Z</time>
      </trkpt>
      <trkpt lat="45.79405" lon="4.92127">
        <ele>174</ele>
        <time>2022-09-24T09:26:23Z</time>
      </trkpt>
      <trkpt lat="45.79406" lon="4.92134">
        <ele>174.1</ele>
        <time>2022-09-24T09:26:24Z</time>
      </trkpt>
      <trkpt lat="45.79409" lon="4.92141">
        <ele>174.1</ele>
        <time>2022-09-24T09:26:25Z</time>
      </trkpt>
      <trkpt lat="45.7941" lon="4.9215">
        <ele>174.1</ele>
        <time>2022-09-24T09:26:26Z</time>
      </trkpt>
      <trkpt lat="45.79412" lon="4.92157">
        <ele>174.1</ele>
        <time>2022-09-24T09:26:27Z</time>
      </trkpt>
      <trkpt lat="45.79413" lon="4.92164">
        <ele>174.2</ele>
        <time>2022-09-24T09:26:28Z</time>
      </trkpt>
      <trkpt lat="45.79416" lon="4.92173">
        <ele>174.2</ele>
        <time>2022-09-24T09:26:29Z</time>
      </trkpt>
      <trkpt lat="45.79417" lon="4.92182">
        <ele>174.3</ele>
        <time>2022-09-24T09:26:30Z</time>
      </trkpt>
      <trkpt lat="45.79419" lon="4.92189">
        <ele>174.3</ele>
        <time>2022-09-24T09:26:31Z</time>
      </trkpt>
      <trkpt lat="45.7942" lon="4.92196">
        <ele>174.3</ele>
        <time>2022-09-24T09:26:32Z</time>
      </trkpt>
      <trkpt lat="45.79422" lon="4.92202">
        <ele>174.3</ele>
        <time>2022-09-24T09:26:33Z</time>
      </trkpt>
      <trkpt lat="45.79423" lon="4.92209">
        <ele>174.3</ele>
        <time>2022-09-24T09:26:34Z</time>
      </trkpt>
      <trkpt lat="45.79425" lon="4.92218">
        <ele>174.3</ele>
        <time>2022-09-24T09:26:35Z</time>
      </trkpt>
      <trkpt lat="45.79428" lon="4.92222">
        <ele>174.3</ele>
        <time>2022-09-24T09:26:36Z</time>
      </trkpt>
      <trkpt lat="45.79428" lon="4.92227">
        <ele>174.3</ele>
        <time>2022-09-24T09:26:37Z</time>
      </trkpt>
      <trkpt lat="45.7943" lon="4.92233">
        <ele>174.3</ele>
        <time>2022-09-24T09:26:38Z</time>
      </trkpt>
      <trkpt lat="45.79431" lon="4.9224">
        <ele>174.2</ele>
        <time>2022-09-24T09:26:39Z</time>
      </trkpt>
      <trkpt lat="45.79433" lon="4.92245">
        <ele>174.2</ele>
        <time>2022-09-24T09:26:40Z</time>
      </trkpt>
      <trkpt lat="45.79434" lon="4.92249">
        <ele>174.2</ele>
        <time>2022-09-24T09:26:41Z</time>
      </trkpt>
      <trkpt lat="45.79434" lon="4.92253">
        <ele>174.2</ele>
        <time>2022-09-24T09:26:42Z</time>
      </trkpt>
      <trkpt lat="45.79435" lon="4.9226">
        <ele>174.2</ele>
        <time>2022-09-24T09:26:43Z</time>
      </trkpt>
      <trkpt lat="45.79438" lon="4.92266">
        <ele>174.1</ele>
        <time>2022-09-24T09:26:44Z</time>
      </trkpt>
      <trkpt lat="45.7944" lon="4.92271">
        <ele>174</ele>
        <time>2022-09-24T09:26:45Z</time>
      </trkpt>
      <trkpt lat="45.7944" lon="4.92278">
        <ele>174</ele>
        <time>2022-09-24T09:26:46Z</time>
      </trkpt>
      <trkpt lat="45.7944" lon="4.92285">
        <ele>173.8</ele>
        <time>2022-09-24T09:26:47Z</time>
      </trkpt>
      <trkpt lat="45.79443" lon="4.92291">
        <ele>173.7</ele>
        <time>2022-09-24T09:26:48Z</time>
      </trkpt>
      <trkpt lat="45.79445" lon="4.923">
        <ele>173.5</ele>
        <time>2022-09-24T09:26:49Z</time>
      </trkpt>
      <trkpt lat="45.79446" lon="4.92306">
        <ele>173.3</ele>
        <time>2022-09-24T09:26:50Z</time>
      </trkpt>
      <trkpt lat="45.79448" lon="4.92313">
        <ele>173.2</ele>
        <time>2022-09-24T09:26:51Z</time>
      </trkpt>
      <trkpt lat="45.79449" lon="4.92319">
        <ele>173</ele>
        <time>2022-09-24T09:26:52Z</time>
      </trkpt>
      <trkpt lat="45.79449" lon="4.92325">
        <ele>172.9</ele>
        <time>2022-09-24T09:26:53Z</time>
      </trkpt>
      <trkpt lat="45.79449" lon="4.9233">
        <ele>172.8</ele>
        <time>2022-09-24T09:26:54Z</time>
      </trkpt>
      <trkpt lat="45.79453" lon="4.92339">
        <ele>172.6</ele>
        <time>2022-09-24T09:26:55Z</time>
      </trkpt>
      <trkpt lat="45.79456" lon="4.92345">
        <ele>172.6</ele>
        <time>2022-09-24T09:26:56Z</time>
      </trkpt>
      <trkpt lat="45.7946" lon="4.9235">
        <ele>172.6</ele>
        <time>2022-09-24T09:26:57Z</time>
      </trkpt>
      <trkpt lat="45.79461" lon="4.92355">
        <ele>172.6</ele>
        <time>2022-09-24T09:26:58Z</time>
      </trkpt>
      <trkpt lat="45.79465" lon="4.92364">
        <ele>172.7</ele>
        <time>2022-09-24T09:26:59Z</time>
      </trkpt>
      <trkpt lat="45.79467" lon="4.92371">
        <ele>172.7</ele>
        <time>2022-09-24T09:27:00Z</time>
      </trkpt>
      <trkpt lat="45.79469" lon="4.92378">
        <ele>172.8</ele>
        <time>2022-09-24T09:27:01Z</time>
      </trkpt>
      <trkpt lat="45.7947" lon="4.92385">
        <ele>172.9</ele>
        <time>2022-09-24T09:27:02Z</time>
      </trkpt>
      <trkpt lat="45.79473" lon="4.92392">
        <ele>173</ele>
        <time>2022-09-24T09:27:03Z</time>
      </trkpt>
      <trkpt lat="45.79474" lon="4.92399">
        <ele>173.1</ele>
        <time>2022-09-24T09:27:04Z</time>
      </trkpt>
      <trkpt lat="45.79476" lon="4.92406">
        <ele>173.3</ele>
        <time>2022-09-24T09:27:05Z</time>
      </trkpt>
      <trkpt lat="45.79478" lon="4.92413">
        <ele>173.4</ele>
        <time>2022-09-24T09:27:06Z</time>
      </trkpt>
      <trkpt lat="45.79479" lon="4.92419">
        <ele>173.6</ele>
        <time>2022-09-24T09:27:07Z</time>
      </trkpt>
      <trkpt lat="45.7948" lon="4.92426">
        <ele>173.7</ele>
        <time>2022-09-24T09:27:08Z</time>
      </trkpt>
      <trkpt lat="45.79482" lon="4.92432">
        <ele>173.9</ele>
        <time>2022-09-24T09:27:09Z</time>
      </trkpt>
      <trkpt lat="45.79484" lon="4.92438">
        <ele>174</ele>
        <time>2022-09-24T09:27:10Z</time>
      </trkpt>
      <trkpt lat="45.79486" lon="4.92445">
        <ele>174.2</ele>
        <time>2022-09-24T09:27:11Z</time>
      </trkpt>
      <trkpt lat="45.79488" lon="4.92451">
        <ele>174.3</ele>
        <time>2022-09-24T09:27:12Z</time>
      </trkpt>
      <trkpt lat="45.7949" lon="4.92457">
        <ele>174.4</ele>
        <time>2022-09-24T09:27:13Z</time>
      </trkpt>
      <trkpt lat="45.79493" lon="4.92463">
        <ele>174.5</ele>
        <time>2022-09-24T09:27:14Z</time>
      </trkpt>
      <trkpt lat="45.79497" lon="4.92467">
        <ele>174.5</ele>
        <time>2022-09-24T09:27:15Z</time>
      </trkpt>
      <trkpt lat="45.795" lon="4.92472">
        <ele>174.6</ele>
        <time>2022-09-24T09:27:16Z</time>
      </trkpt>
      <trkpt lat="45.79504" lon="4.92477">
        <ele>174.6</ele>
        <time>2022-09-24T09:27:17Z</time>
      </trkpt>
      <trkpt lat="45.79509" lon="4.92481">
        <ele>174.6</ele>
        <time>2022-09-24T09:27:18Z</time>
      </trkpt>
      <trkpt lat="45.79514" lon="4.92485">
        <ele>174.6</ele>
        <time>2022-09-24T09:27:19Z</time>
      </trkpt>
      <trkpt lat="45.79518" lon="4.92489">
        <ele>174.6</ele>
        <time>2022-09-24T09:27:20Z</time>
      </trkpt>
      <trkpt lat="45.79524" lon="4.92492">
        <ele>174.6</ele>
        <time>2022-09-24T09:27:21Z</time>
      </trkpt>
      <trkpt lat="45.79527" lon="4.92495">
        <ele>174.6</ele>
        <time>2022-09-24T09:27:22Z</time>
      </trkpt>
      <trkpt lat="45.79533" lon="4.92499">
        <ele>174.6</ele>
        <time>2022-09-24T09:27:23Z</time>
      </trkpt>
      <trkpt lat="45.79538" lon="4.92503">
        <ele>174.6</ele>
        <time>2022-09-24T09:27:24Z</time>
      </trkpt>
      <trkpt lat="45.79544" lon="4.92506">
        <ele>174.6</ele>
        <time>2022-09-24T09:27:25Z</time>
      </trkpt>
      <trkpt lat="45.79548" lon="4.9251">
        <ele>174.6</ele>
        <time>2022-09-24T09:27:26Z</time>
      </trkpt>
      <trkpt lat="45.79554" lon="4.92512">
        <ele>174.5</ele>
        <time>2022-09-24T09:27:27Z</time>
      </trkpt>
      <trkpt lat="45.79558" lon="4.92515">
        <ele>174.5</ele>
        <time>2022-09-24T09:27:28Z</time>
      </trkpt>
      <trkpt lat="45.79564" lon="4.92519">
        <ele>174.5</ele>
        <time>2022-09-24T09:27:29Z</time>
      </trkpt>
      <trkpt lat="45.79569" lon="4.92521">
        <ele>174.5</ele>
        <time>2022-09-24T09:27:30Z</time>
      </trkpt>
      <trkpt lat="45.79574" lon="4.92525">
        <ele>174.5</ele>
        <time>2022-09-24T09:27:31Z</time>
      </trkpt>
      <trkpt lat="45.79579" lon="4.92527">
        <ele>174.5</ele>
        <time>2022-09-24T09:27:32Z</time>
      </trkpt>
      <trkpt lat="45.79585" lon="4.9253">
        <ele>174.5</ele>
        <time>2022-09-24T09:27:33Z</time>
      </trkpt>
      <trkpt lat="45.7959" lon="4.92531">
        <ele>174.5</ele>
        <time>2022-09-24T09:27:34Z</time>
      </trkpt>
      <trkpt lat="45.79595" lon="4.92534">
        <ele>174.5</ele>
        <time>2022-09-24T09:27:35Z</time>
      </trkpt>
      <trkpt lat="45.796" lon="4.92536">
        <ele>174.5</ele>
        <time>2022-09-24T09:27:36Z</time>
      </trkpt>
      <trkpt lat="45.79605" lon="4.92539">
        <ele>174.5</ele>
        <time>2022-09-24T09:27:37Z</time>
      </trkpt>
      <trkpt lat="45.7961" lon="4.9254">
        <ele>174.5</ele>
        <time>2022-09-24T09:27:38Z</time>
      </trkpt>
      <trkpt lat="45.79616" lon="4.92541">
        <ele>174.4</ele>
        <time>2022-09-24T09:27:39Z</time>
      </trkpt>
      <trkpt lat="45.79621" lon="4.92543">
        <ele>174.4</ele>
        <time>2022-09-24T09:27:40Z</time>
      </trkpt>
      <trkpt lat="45.79626" lon="4.92545">
        <ele>174.4</ele>
        <time>2022-09-24T09:27:41Z</time>
      </trkpt>
      <trkpt lat="45.79631" lon="4.92547">
        <ele>174.4</ele>
        <time>2022-09-24T09:27:42Z</time>
      </trkpt>
      <trkpt lat="45.79636" lon="4.92549">
        <ele>174.4</ele>
        <time>2022-09-24T09:27:43Z</time>
      </trkpt>
      <trkpt lat="45.79641" lon="4.92551">
        <ele>174.3</ele>
        <time>2022-09-24T09:27:44Z</time>
      </trkpt>
      <trkpt lat="45.79647" lon="4.92552">
        <ele>174.3</ele>
        <time>2022-09-24T09:27:45Z</time>
      </trkpt>
      <trkpt lat="45.79652" lon="4.92554">
        <ele>174.3</ele>
        <time>2022-09-24T09:27:46Z</time>
      </trkpt>
      <trkpt lat="45.79657" lon="4.92556">
        <ele>174.3</ele>
        <time>2022-09-24T09:27:47Z</time>
      </trkpt>
      <trkpt lat="45.79663" lon="4.92558">
        <ele>174.3</ele>
        <time>2022-09-24T09:27:48Z</time>
      </trkpt>
      <trkpt lat="45.79668" lon="4.92558">
        <ele>174.3</ele>
        <time>2022-09-24T09:27:49Z</time>
      </trkpt>
      <trkpt lat="45.79674" lon="4.9256">
        <ele>174.3</ele>
        <time>2022-09-24T09:27:50Z</time>
      </trkpt>
      <trkpt lat="45.79679" lon="4.92562">
        <ele>174.3</ele>
        <time>2022-09-24T09:27:51Z</time>
      </trkpt>
      <trkpt lat="45.79684" lon="4.92563">
        <ele>174.3</ele>
        <time>2022-09-24T09:27:52Z</time>
      </trkpt>
      <trkpt lat="45.7969" lon="4.92565">
        <ele>174.3</ele>
        <time>2022-09-24T09:27:53Z</time>
      </trkpt>
      <trkpt lat="45.79696" lon="4.92567">
        <ele>174.3</ele>
        <time>2022-09-24T09:27:54Z</time>
      </trkpt>
      <trkpt lat="45.79702" lon="4.92569">
        <ele>174.3</ele>
        <time>2022-09-24T09:27:56Z</time>
      </trkpt>
      <trkpt lat="45.79707" lon="4.92571">
        <ele>174.3</ele>
        <time>2022-09-24T09:27:57Z</time>
      </trkpt>
      <trkpt lat="45.79712" lon="4.92573">
        <ele>174.3</ele>
        <time>2022-09-24T09:27:58Z</time>
      </trkpt>
      <trkpt lat="45.79717" lon="4.92576">
        <ele>174.3</ele>
        <time>2022-09-24T09:27:59Z</time>
      </trkpt>
      <trkpt lat="45.79722" lon="4.92581">
        <ele>174.2</ele>
        <time>2022-09-24T09:28:00Z</time>
      </trkpt>
      <trkpt lat="45.79728" lon="4.92583">
        <ele>174.2</ele>
        <time>2022-09-24T09:28:01Z</time>
      </trkpt>
      <trkpt lat="45.79733" lon="4.92585">
        <ele>174.2</ele>
        <time>2022-09-24T09:28:02Z</time>
      </trkpt>
      <trkpt lat="45.79738" lon="4.92588">
        <ele>174.2</ele>
        <time>2022-09-24T09:28:03Z</time>
      </trkpt>
      <trkpt lat="45.79743" lon="4.92591">
        <ele>174.2</ele>
        <time>2022-09-24T09:28:04Z</time>
      </trkpt>
      <trkpt lat="45.79747" lon="4.92596">
        <ele>174.2</ele>
        <time>2022-09-24T09:28:05Z</time>
      </trkpt>
      <trkpt lat="45.79752" lon="4.92599">
        <ele>174.2</ele>
        <time>2022-09-24T09:28:06Z</time>
      </trkpt>
      <trkpt lat="45.79758" lon="4.92603">
        <ele>174.2</ele>
        <time>2022-09-24T09:28:07Z</time>
      </trkpt>
      <trkpt lat="45.79762" lon="4.92608">
        <ele>174.2</ele>
        <time>2022-09-24T09:28:08Z</time>
      </trkpt>
      <trkpt lat="45.79767" lon="4.92611">
        <ele>174.2</ele>
        <time>2022-09-24T09:28:09Z</time>
      </trkpt>
      <trkpt lat="45.79771" lon="4.92615">
        <ele>174.2</ele>
        <time>2022-09-24T09:28:10Z</time>
      </trkpt>
      <trkpt lat="45.79775" lon="4.9262">
        <ele>174.2</ele>
        <time>2022-09-24T09:28:11Z</time>
      </trkpt>
      <trkpt lat="45.7978" lon="4.92622">
        <ele>174.2</ele>
        <time>2022-09-24T09:28:12Z</time>
      </trkpt>
      <trkpt lat="45.79783" lon="4.92626">
        <ele>174.2</ele>
        <time>2022-09-24T09:28:13Z</time>
      </trkpt>
      <trkpt lat="45.79787" lon="4.92631">
        <ele>174.2</ele>
        <time>2022-09-24T09:28:14Z</time>
      </trkpt>
      <trkpt lat="45.7979" lon="4.92637">
        <ele>174.3</ele>
        <time>2022-09-24T09:28:15Z</time>
      </trkpt>
      <trkpt lat="45.79795" lon="4.92642">
        <ele>174.3</ele>
        <time>2022-09-24T09:28:16Z</time>
      </trkpt>
      <trkpt lat="45.79804" lon="4.92654">
        <ele>174.3</ele>
        <time>2022-09-24T09:28:17Z</time>
      </trkpt>
      <trkpt lat="45.79808" lon="4.92659">
        <ele>174.2</ele>
        <time>2022-09-24T09:28:18Z</time>
      </trkpt>
      <trkpt lat="45.79813" lon="4.92664">
        <ele>174.2</ele>
        <time>2022-09-24T09:28:19Z</time>
      </trkpt>
      <trkpt lat="45.79818" lon="4.9267">
        <ele>174.1</ele>
        <time>2022-09-24T09:28:20Z</time>
      </trkpt>
      <trkpt lat="45.79823" lon="4.92674">
        <ele>174.1</ele>
        <time>2022-09-24T09:28:21Z</time>
      </trkpt>
      <trkpt lat="45.79828" lon="4.92678">
        <ele>174.1</ele>
        <time>2022-09-24T09:28:22Z</time>
      </trkpt>
      <trkpt lat="45.79835" lon="4.92684">
        <ele>174.1</ele>
        <time>2022-09-24T09:28:23Z</time>
      </trkpt>
      <trkpt lat="45.7984" lon="4.92687">
        <ele>174.1</ele>
        <time>2022-09-24T09:28:24Z</time>
      </trkpt>
      <trkpt lat="45.79846" lon="4.92692">
        <ele>174.2</ele>
        <time>2022-09-24T09:28:25Z</time>
      </trkpt>
      <trkpt lat="45.79851" lon="4.92696">
        <ele>174.2</ele>
        <time>2022-09-24T09:28:26Z</time>
      </trkpt>
      <trkpt lat="45.79857" lon="4.92699">
        <ele>174.3</ele>
        <time>2022-09-24T09:28:27Z</time>
      </trkpt>
      <trkpt lat="45.79863" lon="4.92699">
        <ele>174.4</ele>
        <time>2022-09-24T09:28:28Z</time>
      </trkpt>
      <trkpt lat="45.79869" lon="4.92702">
        <ele>174.5</ele>
        <time>2022-09-24T09:28:29Z</time>
      </trkpt>
      <trkpt lat="45.79875" lon="4.92703">
        <ele>174.5</ele>
        <time>2022-09-24T09:28:30Z</time>
      </trkpt>
      <trkpt lat="45.7988" lon="4.92705">
        <ele>174.6</ele>
        <time>2022-09-24T09:28:31Z</time>
      </trkpt>
      <trkpt lat="45.79885" lon="4.92708">
        <ele>174.7</ele>
        <time>2022-09-24T09:28:32Z</time>
      </trkpt>
      <trkpt lat="45.79891" lon="4.9271">
        <ele>174.8</ele>
        <time>2022-09-24T09:28:33Z</time>
      </trkpt>
      <trkpt lat="45.79896" lon="4.92712">
        <ele>174.8</ele>
        <time>2022-09-24T09:28:34Z</time>
      </trkpt>
      <trkpt lat="45.79902" lon="4.92714">
        <ele>174.9</ele>
        <time>2022-09-24T09:28:35Z</time>
      </trkpt>
      <trkpt lat="45.79907" lon="4.92716">
        <ele>175</ele>
        <time>2022-09-24T09:28:36Z</time>
      </trkpt>
      <trkpt lat="45.79912" lon="4.92718">
        <ele>175.1</ele>
        <time>2022-09-24T09:28:37Z</time>
      </trkpt>
      <trkpt lat="45.79918" lon="4.92719">
        <ele>175.2</ele>
        <time>2022-09-24T09:28:38Z</time>
      </trkpt>
      <trkpt lat="45.79924" lon="4.92721">
        <ele>175.3</ele>
        <time>2022-09-24T09:28:39Z</time>
      </trkpt>
      <trkpt lat="45.79929" lon="4.92722">
        <ele>175.4</ele>
        <time>2022-09-24T09:28:40Z</time>
      </trkpt>
      <trkpt lat="45.79934" lon="4.92724">
        <ele>175.5</ele>
        <time>2022-09-24T09:28:41Z</time>
      </trkpt>
      <trkpt lat="45.7994" lon="4.92725">
        <ele>175.5</ele>
        <time>2022-09-24T09:28:42Z</time>
      </trkpt>
      <trkpt lat="45.79945" lon="4.92726">
        <ele>175.6</ele>
        <time>2022-09-24T09:28:43Z</time>
      </trkpt>
      <trkpt lat="45.79951" lon="4.92726">
        <ele>175.6</ele>
        <time>2022-09-24T09:28:44Z</time>
      </trkpt>
      <trkpt lat="45.79956" lon="4.92728">
        <ele>175.7</ele>
        <time>2022-09-24T09:28:45Z</time>
      </trkpt>
      <trkpt lat="45.79962" lon="4.92727">
        <ele>175.7</ele>
        <time>2022-09-24T09:28:46Z</time>
      </trkpt>
      <trkpt lat="45.79968" lon="4.92727">
        <ele>175.7</ele>
        <time>2022-09-24T09:28:47Z</time>
      </trkpt>
      <trkpt lat="45.79974" lon="4.92727">
        <ele>175.7</ele>
        <time>2022-09-24T09:28:48Z</time>
      </trkpt>
      <trkpt lat="45.79979" lon="4.92726">
        <ele>175.7</ele>
        <time>2022-09-24T09:28:49Z</time>
      </trkpt>
      <trkpt lat="45.79986" lon="4.92726">
        <ele>175.7</ele>
        <time>2022-09-24T09:28:50Z</time>
      </trkpt>
      <trkpt lat="45.79991" lon="4.92724">
        <ele>175.7</ele>
        <time>2022-09-24T09:28:51Z</time>
      </trkpt>
      <trkpt lat="45.79998" lon="4.92724">
        <ele>175.7</ele>
        <time>2022-09-24T09:28:52Z</time>
      </trkpt>
      <trkpt lat="45.80004" lon="4.92725">
        <ele>175.7</ele>
        <time>2022-09-24T09:28:53Z</time>
      </trkpt>
      <trkpt lat="45.80009" lon="4.92723">
        <ele>175.7</ele>
        <time>2022-09-24T09:28:54Z</time>
      </trkpt>
      <trkpt lat="45.80015" lon="4.92721">
        <ele>175.7</ele>
        <time>2022-09-24T09:28:55Z</time>
      </trkpt>
      <trkpt lat="45.80021" lon="4.92719">
        <ele>175.6</ele>
        <time>2022-09-24T09:28:56Z</time>
      </trkpt>
      <trkpt lat="45.80027" lon="4.92719">
        <ele>175.6</ele>
        <time>2022-09-24T09:28:57Z</time>
      </trkpt>
      <trkpt lat="45.80033" lon="4.92716">
        <ele>175.6</ele>
        <time>2022-09-24T09:28:58Z</time>
      </trkpt>
      <trkpt lat="45.80038" lon="4.92713">
        <ele>175.6</ele>
        <time>2022-09-24T09:28:59Z</time>
      </trkpt>
      <trkpt lat="45.80044" lon="4.92712">
        <ele>175.6</ele>
        <time>2022-09-24T09:29:00Z</time>
      </trkpt>
      <trkpt lat="45.80051" lon="4.92711">
        <ele>175.6</ele>
        <time>2022-09-24T09:29:01Z</time>
      </trkpt>
      <trkpt lat="45.80056" lon="4.9271">
        <ele>175.6</ele>
        <time>2022-09-24T09:29:02Z</time>
      </trkpt>
      <trkpt lat="45.80061" lon="4.92707">
        <ele>175.6</ele>
        <time>2022-09-24T09:29:03Z</time>
      </trkpt>
      <trkpt lat="45.80067" lon="4.92706">
        <ele>175.5</ele>
        <time>2022-09-24T09:29:04Z</time>
      </trkpt>
      <trkpt lat="45.80073" lon="4.92703">
        <ele>175.5</ele>
        <time>2022-09-24T09:29:05Z</time>
      </trkpt>
      <trkpt lat="45.80078" lon="4.92701">
        <ele>175.5</ele>
        <time>2022-09-24T09:29:06Z</time>
      </trkpt>
      <trkpt lat="45.80084" lon="4.92699">
        <ele>175.4</ele>
        <time>2022-09-24T09:29:07Z</time>
      </trkpt>
      <trkpt lat="45.8009" lon="4.92697">
        <ele>175.4</ele>
        <time>2022-09-24T09:29:08Z</time>
      </trkpt>
      <trkpt lat="45.80095" lon="4.92695">
        <ele>175.3</ele>
        <time>2022-09-24T09:29:09Z</time>
      </trkpt>
      <trkpt lat="45.801" lon="4.92693">
        <ele>175.2</ele>
        <time>2022-09-24T09:29:10Z</time>
      </trkpt>
      <trkpt lat="45.80105" lon="4.9269">
        <ele>175.1</ele>
        <time>2022-09-24T09:29:11Z</time>
      </trkpt>
      <trkpt lat="45.80111" lon="4.92687">
        <ele>175</ele>
        <time>2022-09-24T09:29:12Z</time>
      </trkpt>
      <trkpt lat="45.80116" lon="4.92683">
        <ele>174.8</ele>
        <time>2022-09-24T09:29:13Z</time>
      </trkpt>
      <trkpt lat="45.8012" lon="4.92677">
        <ele>174.6</ele>
        <time>2022-09-24T09:29:14Z</time>
      </trkpt>
      <trkpt lat="45.80123" lon="4.92671">
        <ele>174.5</ele>
        <time>2022-09-24T09:29:15Z</time>
      </trkpt>
      <trkpt lat="45.80126" lon="4.92665">
        <ele>174.3</ele>
        <time>2022-09-24T09:29:16Z</time>
      </trkpt>
      <trkpt lat="45.80127" lon="4.92659">
        <ele>174.2</ele>
        <time>2022-09-24T09:29:17Z</time>
      </trkpt>
      <trkpt lat="45.8013" lon="4.92651">
        <ele>174</ele>
        <time>2022-09-24T09:29:18Z</time>
      </trkpt>
      <trkpt lat="45.80131" lon="4.92643">
        <ele>173.9</ele>
        <time>2022-09-24T09:29:19Z</time>
      </trkpt>
      <trkpt lat="45.80132" lon="4.92635">
        <ele>173.8</ele>
        <time>2022-09-24T09:29:20Z</time>
      </trkpt>
      <trkpt lat="45.80135" lon="4.92628">
        <ele>173.7</ele>
        <time>2022-09-24T09:29:21Z</time>
      </trkpt>
      <trkpt lat="45.80137" lon="4.9262">
        <ele>173.6</ele>
        <time>2022-09-24T09:29:22Z</time>
      </trkpt>
      <trkpt lat="45.80141" lon="4.92613">
        <ele>173.5</ele>
        <time>2022-09-24T09:29:23Z</time>
      </trkpt>
      <trkpt lat="45.80144" lon="4.9261">
        <ele>173.4</ele>
        <time>2022-09-24T09:29:24Z</time>
      </trkpt>
      <trkpt lat="45.80149" lon="4.92606">
        <ele>173.2</ele>
        <time>2022-09-24T09:29:25Z</time>
      </trkpt>
      <trkpt lat="45.80154" lon="4.92602">
        <ele>173.1</ele>
        <time>2022-09-24T09:29:26Z</time>
      </trkpt>
      <trkpt lat="45.8016" lon="4.926">
        <ele>173</ele>
        <time>2022-09-24T09:29:27Z</time>
      </trkpt>
      <trkpt lat="45.80164" lon="4.92599">
        <ele>172.9</ele>
        <time>2022-09-24T09:29:28Z</time>
      </trkpt>
      <trkpt lat="45.80171" lon="4.92601">
        <ele>172.8</ele>
        <time>2022-09-24T09:29:29Z</time>
      </trkpt>
      <trkpt lat="45.80176" lon="4.92605">
        <ele>172.7</ele>
        <time>2022-09-24T09:29:30Z</time>
      </trkpt>
      <trkpt lat="45.80181" lon="4.92609">
        <ele>172.6</ele>
        <time>2022-09-24T09:29:31Z</time>
      </trkpt>
      <trkpt lat="45.80183" lon="4.92611">
        <ele>172.6</ele>
        <time>2022-09-24T09:29:32Z</time>
      </trkpt>
      <trkpt lat="45.80186" lon="4.92618">
        <ele>172.6</ele>
        <time>2022-09-24T09:29:33Z</time>
      </trkpt>
      <trkpt lat="45.80188" lon="4.92624">
        <ele>172.5</ele>
        <time>2022-09-24T09:29:34Z</time>
      </trkpt>
      <trkpt lat="45.80189" lon="4.9263">
        <ele>172.4</ele>
        <time>2022-09-24T09:29:35Z</time>
      </trkpt>
      <trkpt lat="45.80192" lon="4.92638">
        <ele>172.3</ele>
        <time>2022-09-24T09:29:36Z</time>
      </trkpt>
      <trkpt lat="45.80194" lon="4.92645">
        <ele>172.2</ele>
        <time>2022-09-24T09:29:37Z</time>
      </trkpt>
      <trkpt lat="45.80197" lon="4.92652">
        <ele>172.2</ele>
        <time>2022-09-24T09:29:38Z</time>
      </trkpt>
      <trkpt lat="45.80198" lon="4.92658">
        <ele>172.1</ele>
        <time>2022-09-24T09:29:39Z</time>
      </trkpt>
      <trkpt lat="45.802" lon="4.92669">
        <ele>172</ele>
        <time>2022-09-24T09:29:40Z</time>
      </trkpt>
      <trkpt lat="45.80202" lon="4.92675">
        <ele>171.9</ele>
        <time>2022-09-24T09:29:41Z</time>
      </trkpt>
      <trkpt lat="45.80204" lon="4.92686">
        <ele>171.8</ele>
        <time>2022-09-24T09:29:42Z</time>
      </trkpt>
      <trkpt lat="45.80205" lon="4.92695">
        <ele>171.8</ele>
        <time>2022-09-24T09:29:43Z</time>
      </trkpt>
      <trkpt lat="45.80209" lon="4.92706">
        <ele>171.9</ele>
        <time>2022-09-24T09:29:44Z</time>
      </trkpt>
      <trkpt lat="45.80214" lon="4.92713">
        <ele>172</ele>
        <time>2022-09-24T09:29:45Z</time>
      </trkpt>
      <trkpt lat="45.80215" lon="4.92721">
        <ele>172.1</ele>
        <time>2022-09-24T09:29:46Z</time>
      </trkpt>
      <trkpt lat="45.80217" lon="4.92733">
        <ele>172.4</ele>
        <time>2022-09-24T09:29:47Z</time>
      </trkpt>
      <trkpt lat="45.80218" lon="4.92741">
        <ele>172.7</ele>
        <time>2022-09-24T09:29:48Z</time>
      </trkpt>
      <trkpt lat="45.80219" lon="4.92748">
        <ele>172.9</ele>
        <time>2022-09-24T09:29:49Z</time>
      </trkpt>
      <trkpt lat="45.8022" lon="4.92756">
        <ele>173.2</ele>
        <time>2022-09-24T09:29:50Z</time>
      </trkpt>
      <trkpt lat="45.80221" lon="4.92762">
        <ele>173.4</ele>
        <time>2022-09-24T09:29:51Z</time>
      </trkpt>
      <trkpt lat="45.80221" lon="4.92769">
        <ele>173.7</ele>
        <time>2022-09-24T09:29:52Z</time>
      </trkpt>
      <trkpt lat="45.80221" lon="4.92775">
        <ele>173.9</ele>
        <time>2022-09-24T09:29:53Z</time>
      </trkpt>
      <trkpt lat="45.80221" lon="4.92781">
        <ele>174.1</ele>
        <time>2022-09-24T09:29:54Z</time>
      </trkpt>
      <trkpt lat="45.80221" lon="4.92787">
        <ele>174.2</ele>
        <time>2022-09-24T09:29:55Z</time>
      </trkpt>
      <trkpt lat="45.80222" lon="4.92793">
        <ele>174.4</ele>
        <time>2022-09-24T09:29:56Z</time>
      </trkpt>
      <trkpt lat="45.80222" lon="4.928">
        <ele>174.5</ele>
        <time>2022-09-24T09:29:58Z</time>
      </trkpt>
      <trkpt lat="45.80223" lon="4.92805">
        <ele>174.6</ele>
        <time>2022-09-24T09:29:59Z</time>
      </trkpt>
      <trkpt lat="45.80223" lon="4.92814">
        <ele>174.7</ele>
        <time>2022-09-24T09:30:00Z</time>
      </trkpt>
      <trkpt lat="45.80223" lon="4.92821">
        <ele>174.7</ele>
        <time>2022-09-24T09:30:01Z</time>
      </trkpt>
      <trkpt lat="45.80225" lon="4.92827">
        <ele>174.8</ele>
        <time>2022-09-24T09:30:02Z</time>
      </trkpt>
      <trkpt lat="45.80227" lon="4.92832">
        <ele>174.8</ele>
        <time>2022-09-24T09:30:03Z</time>
      </trkpt>
      <trkpt lat="45.80227" lon="4.92839">
        <ele>174.9</ele>
        <time>2022-09-24T09:30:04Z</time>
      </trkpt>
      <trkpt lat="45.80227" lon="4.92845">
        <ele>174.9</ele>
        <time>2022-09-24T09:30:05Z</time>
      </trkpt>
      <trkpt lat="45.80229" lon="4.92855">
        <ele>175</ele>
        <time>2022-09-24T09:30:06Z</time>
      </trkpt>
      <trkpt lat="45.80231" lon="4.92863">
        <ele>175</ele>
        <time>2022-09-24T09:30:07Z</time>
      </trkpt>
      <trkpt lat="45.80233" lon="4.9287">
        <ele>175.1</ele>
        <time>2022-09-24T09:30:08Z</time>
      </trkpt>
      <trkpt lat="45.80233" lon="4.92878">
        <ele>175.1</ele>
        <time>2022-09-24T09:30:09Z</time>
      </trkpt>
      <trkpt lat="45.80235" lon="4.92887">
        <ele>175.2</ele>
        <time>2022-09-24T09:30:10Z</time>
      </trkpt>
      <trkpt lat="45.80236" lon="4.92894">
        <ele>175.2</ele>
        <time>2022-09-24T09:30:11Z</time>
      </trkpt>
      <trkpt lat="45.80238" lon="4.92903">
        <ele>175.2</ele>
        <time>2022-09-24T09:30:12Z</time>
      </trkpt>
      <trkpt lat="45.8024" lon="4.92909">
        <ele>175.2</ele>
        <time>2022-09-24T09:30:13Z</time>
      </trkpt>
      <trkpt lat="45.80242" lon="4.92918">
        <ele>175.2</ele>
        <time>2022-09-24T09:30:14Z</time>
      </trkpt>
      <trkpt lat="45.80243" lon="4.92926">
        <ele>175.3</ele>
        <time>2022-09-24T09:30:15Z</time>
      </trkpt>
      <trkpt lat="45.80244" lon="4.92933">
        <ele>175.3</ele>
        <time>2022-09-24T09:30:16Z</time>
      </trkpt>
      <trkpt lat="45.80246" lon="4.92938">
        <ele>175.3</ele>
        <time>2022-09-24T09:30:17Z</time>
      </trkpt>
      <trkpt lat="45.80247" lon="4.92946">
        <ele>175.3</ele>
        <time>2022-09-24T09:30:18Z</time>
      </trkpt>
      <trkpt lat="45.80248" lon="4.92952">
        <ele>175.4</ele>
        <time>2022-09-24T09:30:19Z</time>
      </trkpt>
      <trkpt lat="45.80251" lon="4.92966">
        <ele>175.4</ele>
        <time>2022-09-24T09:30:20Z</time>
      </trkpt>
      <trkpt lat="45.80253" lon="4.92973">
        <ele>175.4</ele>
        <time>2022-09-24T09:30:21Z</time>
      </trkpt>
      <trkpt lat="45.80254" lon="4.92979">
        <ele>175.4</ele>
        <time>2022-09-24T09:30:22Z</time>
      </trkpt>
      <trkpt lat="45.80256" lon="4.92986">
        <ele>175.4</ele>
        <time>2022-09-24T09:30:23Z</time>
      </trkpt>
      <trkpt lat="45.80256" lon="4.92995">
        <ele>175.4</ele>
        <time>2022-09-24T09:30:24Z</time>
      </trkpt>
      <trkpt lat="45.80259" lon="4.93002">
        <ele>175.4</ele>
        <time>2022-09-24T09:30:25Z</time>
      </trkpt>
      <trkpt lat="45.8026" lon="4.93011">
        <ele>175.4</ele>
        <time>2022-09-24T09:30:26Z</time>
      </trkpt>
      <trkpt lat="45.80261" lon="4.93019">
        <ele>175.4</ele>
        <time>2022-09-24T09:30:27Z</time>
      </trkpt>
      <trkpt lat="45.80262" lon="4.93029">
        <ele>175.4</ele>
        <time>2022-09-24T09:30:28Z</time>
      </trkpt>
      <trkpt lat="45.80264" lon="4.93036">
        <ele>175.4</ele>
        <time>2022-09-24T09:30:29Z</time>
      </trkpt>
      <trkpt lat="45.80265" lon="4.93043">
        <ele>175.4</ele>
        <time>2022-09-24T09:30:30Z</time>
      </trkpt>
      <trkpt lat="45.80266" lon="4.93049">
        <ele>175.4</ele>
        <time>2022-09-24T09:30:31Z</time>
      </trkpt>
      <trkpt lat="45.80268" lon="4.93058">
        <ele>175.4</ele>
        <time>2022-09-24T09:30:32Z</time>
      </trkpt>
      <trkpt lat="45.8027" lon="4.93065">
        <ele>175.4</ele>
        <time>2022-09-24T09:30:33Z</time>
      </trkpt>
      <trkpt lat="45.80272" lon="4.93073">
        <ele>175.5</ele>
        <time>2022-09-24T09:30:34Z</time>
      </trkpt>
      <trkpt lat="45.80272" lon="4.93082">
        <ele>175.5</ele>
        <time>2022-09-24T09:30:35Z</time>
      </trkpt>
      <trkpt lat="45.80273" lon="4.9309">
        <ele>175.6</ele>
        <time>2022-09-24T09:30:36Z</time>
      </trkpt>
      <trkpt lat="45.80274" lon="4.93098">
        <ele>175.6</ele>
        <time>2022-09-24T09:30:37Z</time>
      </trkpt>
      <trkpt lat="45.80276" lon="4.93105">
        <ele>175.6</ele>
        <time>2022-09-24T09:30:38Z</time>
      </trkpt>
      <trkpt lat="45.80278" lon="4.93113">
        <ele>175.7</ele>
        <time>2022-09-24T09:30:39Z</time>
      </trkpt>
      <trkpt lat="45.80279" lon="4.93121">
        <ele>175.7</ele>
        <time>2022-09-24T09:30:40Z</time>
      </trkpt>
      <trkpt lat="45.8028" lon="4.9313">
        <ele>175.7</ele>
        <time>2022-09-24T09:30:41Z</time>
      </trkpt>
      <trkpt lat="45.80282" lon="4.93137">
        <ele>175.7</ele>
        <time>2022-09-24T09:30:42Z</time>
      </trkpt>
      <trkpt lat="45.80283" lon="4.93147">
        <ele>175.8</ele>
        <time>2022-09-24T09:30:43Z</time>
      </trkpt>
      <trkpt lat="45.80286" lon="4.93154">
        <ele>175.9</ele>
        <time>2022-09-24T09:30:44Z</time>
      </trkpt>
      <trkpt lat="45.80287" lon="4.93162">
        <ele>175.9</ele>
        <time>2022-09-24T09:30:45Z</time>
      </trkpt>
      <trkpt lat="45.80289" lon="4.93171">
        <ele>176</ele>
        <time>2022-09-24T09:30:46Z</time>
      </trkpt>
      <trkpt lat="45.8029" lon="4.93178">
        <ele>176</ele>
        <time>2022-09-24T09:30:47Z</time>
      </trkpt>
      <trkpt lat="45.80291" lon="4.93186">
        <ele>176.1</ele>
        <time>2022-09-24T09:30:48Z</time>
      </trkpt>
      <trkpt lat="45.80292" lon="4.93193">
        <ele>176.1</ele>
        <time>2022-09-24T09:30:49Z</time>
      </trkpt>
      <trkpt lat="45.80294" lon="4.932">
        <ele>176.1</ele>
        <time>2022-09-24T09:30:50Z</time>
      </trkpt>
      <trkpt lat="45.80295" lon="4.93208">
        <ele>176.2</ele>
        <time>2022-09-24T09:30:51Z</time>
      </trkpt>
      <trkpt lat="45.80296" lon="4.93215">
        <ele>176.2</ele>
        <time>2022-09-24T09:30:52Z</time>
      </trkpt>
      <trkpt lat="45.80296" lon="4.93223">
        <ele>176.3</ele>
        <time>2022-09-24T09:30:53Z</time>
      </trkpt>
      <trkpt lat="45.80297" lon="4.9323">
        <ele>176.3</ele>
        <time>2022-09-24T09:30:54Z</time>
      </trkpt>
      <trkpt lat="45.80297" lon="4.93237">
        <ele>176.3</ele>
        <time>2022-09-24T09:30:55Z</time>
      </trkpt>
      <trkpt lat="45.80297" lon="4.93246">
        <ele>176.4</ele>
        <time>2022-09-24T09:30:56Z</time>
      </trkpt>
      <trkpt lat="45.80298" lon="4.93252">
        <ele>176.4</ele>
        <time>2022-09-24T09:30:57Z</time>
      </trkpt>
      <trkpt lat="45.80299" lon="4.9326">
        <ele>176.4</ele>
        <time>2022-09-24T09:30:58Z</time>
      </trkpt>
      <trkpt lat="45.80299" lon="4.93266">
        <ele>176.4</ele>
        <time>2022-09-24T09:30:59Z</time>
      </trkpt>
      <trkpt lat="45.803" lon="4.93273">
        <ele>176.5</ele>
        <time>2022-09-24T09:31:00Z</time>
      </trkpt>
      <trkpt lat="45.803" lon="4.93282">
        <ele>176.5</ele>
        <time>2022-09-24T09:31:01Z</time>
      </trkpt>
      <trkpt lat="45.80301" lon="4.93291">
        <ele>176.5</ele>
        <time>2022-09-24T09:31:02Z</time>
      </trkpt>
      <trkpt lat="45.80302" lon="4.93298">
        <ele>176.5</ele>
        <time>2022-09-24T09:31:03Z</time>
      </trkpt>
      <trkpt lat="45.80303" lon="4.93306">
        <ele>176.5</ele>
        <time>2022-09-24T09:31:04Z</time>
      </trkpt>
      <trkpt lat="45.80304" lon="4.93312">
        <ele>176.5</ele>
        <time>2022-09-24T09:31:05Z</time>
      </trkpt>
      <trkpt lat="45.80305" lon="4.93321">
        <ele>176.5</ele>
        <time>2022-09-24T09:31:06Z</time>
      </trkpt>
      <trkpt lat="45.80307" lon="4.93329">
        <ele>176.5</ele>
        <time>2022-09-24T09:31:07Z</time>
      </trkpt>
      <trkpt lat="45.80308" lon="4.93337">
        <ele>176.5</ele>
        <time>2022-09-24T09:31:08Z</time>
      </trkpt>
      <trkpt lat="45.8031" lon="4.93344">
        <ele>176.5</ele>
        <time>2022-09-24T09:31:09Z</time>
      </trkpt>
      <trkpt lat="45.80311" lon="4.93352">
        <ele>176.5</ele>
        <time>2022-09-24T09:31:10Z</time>
      </trkpt>
      <trkpt lat="45.80313" lon="4.93359">
        <ele>176.5</ele>
        <time>2022-09-24T09:31:11Z</time>
      </trkpt>
      <trkpt lat="45.80315" lon="4.93364">
        <ele>176.5</ele>
        <time>2022-09-24T09:31:12Z</time>
      </trkpt>
      <trkpt lat="45.80316" lon="4.9337">
        <ele>176.6</ele>
        <time>2022-09-24T09:31:13Z</time>
      </trkpt>
      <trkpt lat="45.80316" lon="4.93378">
        <ele>176.6</ele>
        <time>2022-09-24T09:31:14Z</time>
      </trkpt>
      <trkpt lat="45.80316" lon="4.93385">
        <ele>176.6</ele>
        <time>2022-09-24T09:31:15Z</time>
      </trkpt>
      <trkpt lat="45.80317" lon="4.9339">
        <ele>176.6</ele>
        <time>2022-09-24T09:31:16Z</time>
      </trkpt>
      <trkpt lat="45.80317" lon="4.93394">
        <ele>176.6</ele>
        <time>2022-09-24T09:31:17Z</time>
      </trkpt>
      <trkpt lat="45.80314" lon="4.93396">
        <ele>176.6</ele>
        <time>2022-09-24T09:31:18Z</time>
      </trkpt>
      <trkpt lat="45.80313" lon="4.93397">
        <ele>176.6</ele>
        <time>2022-09-24T09:31:19Z</time>
      </trkpt>
      <trkpt lat="45.80313" lon="4.93397">
        <ele>176.6</ele>
        <time>2022-09-24T09:31:20Z</time>
      </trkpt>
      <trkpt lat="45.80314" lon="4.93397">
        <ele>176.6</ele>
        <time>2022-09-24T09:31:21Z</time>
      </trkpt>
      <trkpt lat="45.80314" lon="4.93397">
        <ele>176.6</ele>
        <time>2022-09-24T09:31:22Z</time>
      </trkpt>
      <trkpt lat="45.80314" lon="4.93397">
        <ele>176.6</ele>
        <time>2022-09-24T09:31:23Z</time>
      </trkpt>
      <trkpt lat="45.80314" lon="4.93398">
        <ele>176.6</ele>
        <time>2022-09-24T09:31:24Z</time>
      </trkpt>
      <trkpt lat="45.80314" lon="4.93398">
        <ele>176.6</ele>
        <time>2022-09-24T09:31:25Z</time>
      </trkpt>
      <trkpt lat="45.80314" lon="4.93399">
        <ele>176.6</ele>
        <time>2022-09-24T09:31:26Z</time>
      </trkpt>
      <trkpt lat="45.80315" lon="4.93398">
        <ele>176.6</ele>
        <time>2022-09-24T09:31:27Z</time>
      </trkpt>
      <trkpt lat="45.80315" lon="4.93399">
        <ele>176.6</ele>
        <time>2022-09-24T09:31:28Z</time>
      </trkpt>
      <trkpt lat="45.80315" lon="4.934">
        <ele>176.6</ele>
        <time>2022-09-24T09:31:29Z</time>
      </trkpt>
      <trkpt lat="45.80314" lon="4.93399">
        <ele>176.6</ele>
        <time>2022-09-24T09:31:30Z</time>
      </trkpt>
      <trkpt lat="45.80315" lon="4.93423">
        <ele>176.5</ele>
        <time>2022-09-24T09:34:44Z</time>
      </trkpt>
      <trkpt lat="45.80314" lon="4.93427">
        <ele>176.6</ele>
        <time>2022-09-24T09:34:45Z</time>
      </trkpt>
      <trkpt lat="45.80311" lon="4.93429">
        <ele>176.6</ele>
        <time>2022-09-24T09:34:46Z</time>
      </trkpt>
      <trkpt lat="45.8031" lon="4.9343">
        <ele>176.6</ele>
        <time>2022-09-24T09:34:47Z</time>
      </trkpt>
      <trkpt lat="45.80307" lon="4.93431">
        <ele>176.7</ele>
        <time>2022-09-24T09:34:48Z</time>
      </trkpt>
      <trkpt lat="45.80304" lon="4.93433">
        <ele>176.7</ele>
        <time>2022-09-24T09:34:49Z</time>
      </trkpt>
      <trkpt lat="45.80301" lon="4.93435">
        <ele>176.8</ele>
        <time>2022-09-24T09:34:50Z</time>
      </trkpt>
      <trkpt lat="45.80298" lon="4.93438">
        <ele>176.8</ele>
        <time>2022-09-24T09:34:51Z</time>
      </trkpt>
      <trkpt lat="45.80295" lon="4.93441">
        <ele>176.9</ele>
        <time>2022-09-24T09:34:52Z</time>
      </trkpt>
      <trkpt lat="45.80293" lon="4.93445">
        <ele>176.9</ele>
        <time>2022-09-24T09:34:53Z</time>
      </trkpt>
      <trkpt lat="45.80291" lon="4.9345">
        <ele>177</ele>
        <time>2022-09-24T09:34:54Z</time>
      </trkpt>
      <trkpt lat="45.8029" lon="4.93455">
        <ele>177</ele>
        <time>2022-09-24T09:34:55Z</time>
      </trkpt>
      <trkpt lat="45.80289" lon="4.9346">
        <ele>177.1</ele>
        <time>2022-09-24T09:34:56Z</time>
      </trkpt>
      <trkpt lat="45.80288" lon="4.93465">
        <ele>177.1</ele>
        <time>2022-09-24T09:34:57Z</time>
      </trkpt>
      <trkpt lat="45.80287" lon="4.93469">
        <ele>177.1</ele>
        <time>2022-09-24T09:34:58Z</time>
      </trkpt>
      <trkpt lat="45.80286" lon="4.93474">
        <ele>177.2</ele>
        <time>2022-09-24T09:34:59Z</time>
      </trkpt>
      <trkpt lat="45.80286" lon="4.93478">
        <ele>177.2</ele>
        <time>2022-09-24T09:35:00Z</time>
      </trkpt>
      <trkpt lat="45.80285" lon="4.93482">
        <ele>177.2</ele>
        <time>2022-09-24T09:35:01Z</time>
      </trkpt>
      <trkpt lat="45.80283" lon="4.93487">
        <ele>177.2</ele>
        <time>2022-09-24T09:35:02Z</time>
      </trkpt>
      <trkpt lat="45.80282" lon="4.93489">
        <ele>177.2</ele>
        <time>2022-09-24T09:35:03Z</time>
      </trkpt>
      <trkpt lat="45.8028" lon="4.93493">
        <ele>177.2</ele>
        <time>2022-09-24T09:35:04Z</time>
      </trkpt>
      <trkpt lat="45.80278" lon="4.93496">
        <ele>177.2</ele>
        <time>2022-09-24T09:35:05Z</time>
      </trkpt>
      <trkpt lat="45.80275" lon="4.93499">
        <ele>177.2</ele>
        <time>2022-09-24T09:35:06Z</time>
      </trkpt>
      <trkpt lat="45.80271" lon="4.935">
        <ele>177.3</ele>
        <time>2022-09-24T09:35:07Z</time>
      </trkpt>
      <trkpt lat="45.80268" lon="4.93502">
        <ele>177.4</ele>
        <time>2022-09-24T09:35:08Z</time>
      </trkpt>
      <trkpt lat="45.80264" lon="4.93504">
        <ele>177.4</ele>
        <time>2022-09-24T09:35:09Z</time>
      </trkpt>
      <trkpt lat="45.8026" lon="4.93507">
        <ele>177.5</ele>
        <time>2022-09-24T09:35:10Z</time>
      </trkpt>
      <trkpt lat="45.80256" lon="4.9351">
        <ele>177.6</ele>
        <time>2022-09-24T09:35:11Z</time>
      </trkpt>
      <trkpt lat="45.80253" lon="4.93513">
        <ele>177.6</ele>
        <time>2022-09-24T09:35:12Z</time>
      </trkpt>
      <trkpt lat="45.8025" lon="4.93516">
        <ele>177.7</ele>
        <time>2022-09-24T09:35:13Z</time>
      </trkpt>
      <trkpt lat="45.80247" lon="4.93519">
        <ele>177.7</ele>
        <time>2022-09-24T09:35:14Z</time>
      </trkpt>
      <trkpt lat="45.80242" lon="4.9352">
        <ele>177.7</ele>
        <time>2022-09-24T09:35:15Z</time>
      </trkpt>
      <trkpt lat="45.80238" lon="4.93521">
        <ele>177.8</ele>
        <time>2022-09-24T09:35:16Z</time>
      </trkpt>
      <trkpt lat="45.80232" lon="4.93525">
        <ele>177.8</ele>
        <time>2022-09-24T09:35:17Z</time>
      </trkpt>
      <trkpt lat="45.80228" lon="4.9353">
        <ele>177.8</ele>
        <time>2022-09-24T09:35:18Z</time>
      </trkpt>
      <trkpt lat="45.80224" lon="4.93535">
        <ele>177.8</ele>
        <time>2022-09-24T09:35:19Z</time>
      </trkpt>
      <trkpt lat="45.8022" lon="4.93539">
        <ele>177.8</ele>
        <time>2022-09-24T09:35:20Z</time>
      </trkpt>
      <trkpt lat="45.80217" lon="4.93544">
        <ele>177.8</ele>
        <time>2022-09-24T09:35:21Z</time>
      </trkpt>
      <trkpt lat="45.80214" lon="4.93548">
        <ele>177.8</ele>
        <time>2022-09-24T09:35:22Z</time>
      </trkpt>
      <trkpt lat="45.80212" lon="4.93553">
        <ele>177.8</ele>
        <time>2022-09-24T09:35:23Z</time>
      </trkpt>
      <trkpt lat="45.80209" lon="4.93558">
        <ele>177.7</ele>
        <time>2022-09-24T09:35:24Z</time>
      </trkpt>
      <trkpt lat="45.80207" lon="4.93563">
        <ele>177.7</ele>
        <time>2022-09-24T09:35:25Z</time>
      </trkpt>
      <trkpt lat="45.80204" lon="4.93565">
        <ele>177.7</ele>
        <time>2022-09-24T09:35:26Z</time>
      </trkpt>
      <trkpt lat="45.80201" lon="4.9357">
        <ele>177.7</ele>
        <time>2022-09-24T09:35:27Z</time>
      </trkpt>
      <trkpt lat="45.80197" lon="4.93574">
        <ele>177.7</ele>
        <time>2022-09-24T09:35:28Z</time>
      </trkpt>
      <trkpt lat="45.80193" lon="4.93581">
        <ele>177.7</ele>
        <time>2022-09-24T09:35:29Z</time>
      </trkpt>
      <trkpt lat="45.8019" lon="4.93586">
        <ele>177.7</ele>
        <time>2022-09-24T09:35:30Z</time>
      </trkpt>
      <trkpt lat="45.80186" lon="4.93591">
        <ele>177.7</ele>
        <time>2022-09-24T09:35:31Z</time>
      </trkpt>
      <trkpt lat="45.80182" lon="4.93596">
        <ele>177.6</ele>
        <time>2022-09-24T09:35:32Z</time>
      </trkpt>
      <trkpt lat="45.80178" lon="4.93601">
        <ele>177.6</ele>
        <time>2022-09-24T09:35:33Z</time>
      </trkpt>
      <trkpt lat="45.80174" lon="4.93605">
        <ele>177.7</ele>
        <time>2022-09-24T09:35:34Z</time>
      </trkpt>
      <trkpt lat="45.80169" lon="4.93609">
        <ele>177.7</ele>
        <time>2022-09-24T09:35:35Z</time>
      </trkpt>
      <trkpt lat="45.80164" lon="4.93613">
        <ele>177.7</ele>
        <time>2022-09-24T09:35:36Z</time>
      </trkpt>
      <trkpt lat="45.80161" lon="4.93617">
        <ele>177.8</ele>
        <time>2022-09-24T09:35:37Z</time>
      </trkpt>
      <trkpt lat="45.80156" lon="4.9362">
        <ele>177.8</ele>
        <time>2022-09-24T09:35:38Z</time>
      </trkpt>
      <trkpt lat="45.80153" lon="4.93622">
        <ele>177.8</ele>
        <time>2022-09-24T09:35:39Z</time>
      </trkpt>
      <trkpt lat="45.80148" lon="4.93625">
        <ele>177.9</ele>
        <time>2022-09-24T09:35:40Z</time>
      </trkpt>
      <trkpt lat="45.80144" lon="4.93631">
        <ele>177.9</ele>
        <time>2022-09-24T09:35:41Z</time>
      </trkpt>
      <trkpt lat="45.80139" lon="4.93635">
        <ele>177.9</ele>
        <time>2022-09-24T09:35:42Z</time>
      </trkpt>
      <trkpt lat="45.80135" lon="4.93637">
        <ele>177.9</ele>
        <time>2022-09-24T09:35:43Z</time>
      </trkpt>
      <trkpt lat="45.8013" lon="4.9364">
        <ele>178</ele>
        <time>2022-09-24T09:35:44Z</time>
      </trkpt>
      <trkpt lat="45.80125" lon="4.93644">
        <ele>178</ele>
        <time>2022-09-24T09:35:45Z</time>
      </trkpt>
      <trkpt lat="45.80121" lon="4.93647">
        <ele>178</ele>
        <time>2022-09-24T09:35:46Z</time>
      </trkpt>
      <trkpt lat="45.80116" lon="4.93651">
        <ele>178.1</ele>
        <time>2022-09-24T09:35:47Z</time>
      </trkpt>
      <trkpt lat="45.80111" lon="4.93653">
        <ele>178.1</ele>
        <time>2022-09-24T09:35:48Z</time>
      </trkpt>
      <trkpt lat="45.80106" lon="4.93657">
        <ele>178</ele>
        <time>2022-09-24T09:35:49Z</time>
      </trkpt>
      <trkpt lat="45.80101" lon="4.9366">
        <ele>178</ele>
        <time>2022-09-24T09:35:50Z</time>
      </trkpt>
      <trkpt lat="45.80096" lon="4.93663">
        <ele>178</ele>
        <time>2022-09-24T09:35:51Z</time>
      </trkpt>
      <trkpt lat="45.80091" lon="4.93667">
        <ele>178</ele>
        <time>2022-09-24T09:35:52Z</time>
      </trkpt>
      <trkpt lat="45.80087" lon="4.9367">
        <ele>178</ele>
        <time>2022-09-24T09:35:53Z</time>
      </trkpt>
      <trkpt lat="45.80083" lon="4.93673">
        <ele>177.9</ele>
        <time>2022-09-24T09:35:54Z</time>
      </trkpt>
      <trkpt lat="45.80079" lon="4.93678">
        <ele>177.8</ele>
        <time>2022-09-24T09:35:55Z</time>
      </trkpt>
      <trkpt lat="45.80072" lon="4.9368">
        <ele>177.8</ele>
        <time>2022-09-24T09:35:56Z</time>
      </trkpt>
      <trkpt lat="45.80067" lon="4.93682">
        <ele>177.7</ele>
        <time>2022-09-24T09:35:57Z</time>
      </trkpt>
      <trkpt lat="45.80061" lon="4.93685">
        <ele>177.6</ele>
        <time>2022-09-24T09:35:58Z</time>
      </trkpt>
      <trkpt lat="45.80055" lon="4.93688">
        <ele>177.5</ele>
        <time>2022-09-24T09:35:59Z</time>
      </trkpt>
      <trkpt lat="45.80051" lon="4.93688">
        <ele>177.5</ele>
        <time>2022-09-24T09:36:00Z</time>
      </trkpt>
      <trkpt lat="45.80044" lon="4.93689">
        <ele>177.4</ele>
        <time>2022-09-24T09:36:01Z</time>
      </trkpt>
      <trkpt lat="45.80038" lon="4.93688">
        <ele>177.3</ele>
        <time>2022-09-24T09:36:02Z</time>
      </trkpt>
      <trkpt lat="45.80032" lon="4.9369">
        <ele>177.2</ele>
        <time>2022-09-24T09:36:03Z</time>
      </trkpt>
      <trkpt lat="45.80026" lon="4.93695">
        <ele>177.1</ele>
        <time>2022-09-24T09:36:04Z</time>
      </trkpt>
      <trkpt lat="45.80021" lon="4.937">
        <ele>177.1</ele>
        <time>2022-09-24T09:36:05Z</time>
      </trkpt>
      <trkpt lat="45.80015" lon="4.93703">
        <ele>177</ele>
        <time>2022-09-24T09:36:06Z</time>
      </trkpt>
      <trkpt lat="45.8001" lon="4.93705">
        <ele>176.9</ele>
        <time>2022-09-24T09:36:07Z</time>
      </trkpt>
      <trkpt lat="45.80005" lon="4.93709">
        <ele>176.9</ele>
        <time>2022-09-24T09:36:08Z</time>
      </trkpt>
      <trkpt lat="45.79999" lon="4.93712">
        <ele>176.9</ele>
        <time>2022-09-24T09:36:09Z</time>
      </trkpt>
      <trkpt lat="45.79993" lon="4.93716">
        <ele>176.9</ele>
        <time>2022-09-24T09:36:10Z</time>
      </trkpt>
      <trkpt lat="45.79988" lon="4.93721">
        <ele>177</ele>
        <time>2022-09-24T09:36:11Z</time>
      </trkpt>
      <trkpt lat="45.79983" lon="4.93726">
        <ele>177.1</ele>
        <time>2022-09-24T09:36:12Z</time>
      </trkpt>
      <trkpt lat="45.79978" lon="4.93731">
        <ele>177.2</ele>
        <time>2022-09-24T09:36:13Z</time>
      </trkpt>
      <trkpt lat="45.79974" lon="4.93737">
        <ele>177.3</ele>
        <time>2022-09-24T09:36:14Z</time>
      </trkpt>
      <trkpt lat="45.79971" lon="4.93739">
        <ele>177.3</ele>
        <time>2022-09-24T09:36:16Z</time>
      </trkpt>
      <trkpt lat="45.79965" lon="4.93743">
        <ele>177.4</ele>
        <time>2022-09-24T09:36:17Z</time>
      </trkpt>
      <trkpt lat="45.7996" lon="4.93746">
        <ele>177.5</ele>
        <time>2022-09-24T09:36:18Z</time>
      </trkpt>
      <trkpt lat="45.79955" lon="4.9375">
        <ele>177.5</ele>
        <time>2022-09-24T09:36:19Z</time>
      </trkpt>
      <trkpt lat="45.7995" lon="4.93753">
        <ele>177.6</ele>
        <time>2022-09-24T09:36:20Z</time>
      </trkpt>
      <trkpt lat="45.79945" lon="4.93754">
        <ele>177.6</ele>
        <time>2022-09-24T09:36:21Z</time>
      </trkpt>
      <trkpt lat="45.79941" lon="4.93755">
        <ele>177.7</ele>
        <time>2022-09-24T09:36:22Z</time>
      </trkpt>
      <trkpt lat="45.79936" lon="4.93757">
        <ele>177.8</ele>
        <time>2022-09-24T09:36:23Z</time>
      </trkpt>
      <trkpt lat="45.79932" lon="4.93758">
        <ele>177.8</ele>
        <time>2022-09-24T09:36:24Z</time>
      </trkpt>
      <trkpt lat="45.79924" lon="4.93764">
        <ele>177.8</ele>
        <time>2022-09-24T09:36:25Z</time>
      </trkpt>
      <trkpt lat="45.79917" lon="4.93767">
        <ele>177.9</ele>
        <time>2022-09-24T09:36:26Z</time>
      </trkpt>
      <trkpt lat="45.79912" lon="4.9377">
        <ele>177.9</ele>
        <time>2022-09-24T09:36:28Z</time>
      </trkpt>
      <trkpt lat="45.79906" lon="4.93773">
        <ele>177.9</ele>
        <time>2022-09-24T09:36:29Z</time>
      </trkpt>
      <trkpt lat="45.79901" lon="4.93776">
        <ele>178</ele>
        <time>2022-09-24T09:36:30Z</time>
      </trkpt>
      <trkpt lat="45.79897" lon="4.93774">
        <ele>178</ele>
        <time>2022-09-24T09:36:31Z</time>
      </trkpt>
      <trkpt lat="45.79893" lon="4.93779">
        <ele>178.1</ele>
        <time>2022-09-24T09:36:32Z</time>
      </trkpt>
      <trkpt lat="45.79885" lon="4.93783">
        <ele>178.3</ele>
        <time>2022-09-24T09:36:33Z</time>
      </trkpt>
      <trkpt lat="45.7988" lon="4.93786">
        <ele>178.4</ele>
        <time>2022-09-24T09:36:34Z</time>
      </trkpt>
      <trkpt lat="45.79877" lon="4.93788">
        <ele>178.4</ele>
        <time>2022-09-24T09:36:35Z</time>
      </trkpt>
      <trkpt lat="45.79873" lon="4.93791">
        <ele>178.5</ele>
        <time>2022-09-24T09:36:36Z</time>
      </trkpt>
      <trkpt lat="45.79869" lon="4.93795">
        <ele>178.5</ele>
        <time>2022-09-24T09:36:37Z</time>
      </trkpt>
      <trkpt lat="45.79864" lon="4.93798">
        <ele>178.5</ele>
        <time>2022-09-24T09:36:38Z</time>
      </trkpt>
      <trkpt lat="45.79858" lon="4.93802">
        <ele>178.5</ele>
        <time>2022-09-24T09:36:39Z</time>
      </trkpt>
      <trkpt lat="45.79854" lon="4.93806">
        <ele>178.5</ele>
        <time>2022-09-24T09:36:40Z</time>
      </trkpt>
      <trkpt lat="45.79849" lon="4.93811">
        <ele>178.4</ele>
        <time>2022-09-24T09:36:41Z</time>
      </trkpt>
      <trkpt lat="45.79844" lon="4.93815">
        <ele>178.3</ele>
        <time>2022-09-24T09:36:42Z</time>
      </trkpt>
      <trkpt lat="45.79839" lon="4.93823">
        <ele>178.2</ele>
        <time>2022-09-24T09:36:43Z</time>
      </trkpt>
      <trkpt lat="45.79834" lon="4.9383">
        <ele>178</ele>
        <time>2022-09-24T09:36:44Z</time>
      </trkpt>
      <trkpt lat="45.79831" lon="4.93836">
        <ele>177.9</ele>
        <time>2022-09-24T09:36:45Z</time>
      </trkpt>
      <trkpt lat="45.79828" lon="4.93843">
        <ele>177.8</ele>
        <time>2022-09-24T09:36:46Z</time>
      </trkpt>
      <trkpt lat="45.79825" lon="4.9385">
        <ele>177.7</ele>
        <time>2022-09-24T09:36:47Z</time>
      </trkpt>
      <trkpt lat="45.79821" lon="4.93858">
        <ele>177.5</ele>
        <time>2022-09-24T09:36:48Z</time>
      </trkpt>
      <trkpt lat="45.79816" lon="4.93867">
        <ele>177.4</ele>
        <time>2022-09-24T09:36:49Z</time>
      </trkpt>
      <trkpt lat="45.79814" lon="4.93874">
        <ele>177.3</ele>
        <time>2022-09-24T09:36:50Z</time>
      </trkpt>
      <trkpt lat="45.79812" lon="4.93879">
        <ele>177.2</ele>
        <time>2022-09-24T09:36:51Z</time>
      </trkpt>
      <trkpt lat="45.7981" lon="4.93885">
        <ele>177.1</ele>
        <time>2022-09-24T09:36:52Z</time>
      </trkpt>
      <trkpt lat="45.79808" lon="4.93892">
        <ele>177.1</ele>
        <time>2022-09-24T09:36:53Z</time>
      </trkpt>
      <trkpt lat="45.79806" lon="4.93897">
        <ele>177</ele>
        <time>2022-09-24T09:36:54Z</time>
      </trkpt>
      <trkpt lat="45.79804" lon="4.93904">
        <ele>177</ele>
        <time>2022-09-24T09:36:55Z</time>
      </trkpt>
      <trkpt lat="45.79803" lon="4.9391">
        <ele>176.9</ele>
        <time>2022-09-24T09:36:56Z</time>
      </trkpt>
      <trkpt lat="45.79802" lon="4.93919">
        <ele>176.9</ele>
        <time>2022-09-24T09:36:57Z</time>
      </trkpt>
      <trkpt lat="45.79802" lon="4.93929">
        <ele>176.9</ele>
        <time>2022-09-24T09:36:58Z</time>
      </trkpt>
      <trkpt lat="45.79801" lon="4.93936">
        <ele>176.8</ele>
        <time>2022-09-24T09:36:59Z</time>
      </trkpt>
      <trkpt lat="45.798" lon="4.93941">
        <ele>176.8</ele>
        <time>2022-09-24T09:37:00Z</time>
      </trkpt>
      <trkpt lat="45.798" lon="4.93949">
        <ele>176.8</ele>
        <time>2022-09-24T09:37:01Z</time>
      </trkpt>
      <trkpt lat="45.798" lon="4.93956">
        <ele>176.8</ele>
        <time>2022-09-24T09:37:02Z</time>
      </trkpt>
      <trkpt lat="45.798" lon="4.93966">
        <ele>176.9</ele>
        <time>2022-09-24T09:37:03Z</time>
      </trkpt>
      <trkpt lat="45.79799" lon="4.93973">
        <ele>176.9</ele>
        <time>2022-09-24T09:37:04Z</time>
      </trkpt>
      <trkpt lat="45.79799" lon="4.93979">
        <ele>176.9</ele>
        <time>2022-09-24T09:37:05Z</time>
      </trkpt>
      <trkpt lat="45.79799" lon="4.93985">
        <ele>177</ele>
        <time>2022-09-24T09:37:06Z</time>
      </trkpt>
      <trkpt lat="45.798" lon="4.93991">
        <ele>177</ele>
        <time>2022-09-24T09:37:07Z</time>
      </trkpt>
      <trkpt lat="45.798" lon="4.93999">
        <ele>177.1</ele>
        <time>2022-09-24T09:37:08Z</time>
      </trkpt>
      <trkpt lat="45.79799" lon="4.94009">
        <ele>177.1</ele>
        <time>2022-09-24T09:37:09Z</time>
      </trkpt>
      <trkpt lat="45.798" lon="4.94017">
        <ele>177.1</ele>
        <time>2022-09-24T09:37:10Z</time>
      </trkpt>
      <trkpt lat="45.79801" lon="4.94023">
        <ele>177.2</ele>
        <time>2022-09-24T09:37:11Z</time>
      </trkpt>
      <trkpt lat="45.79806" lon="4.94025">
        <ele>177.2</ele>
        <time>2022-09-24T09:37:12Z</time>
      </trkpt>
      <trkpt lat="45.79809" lon="4.94026">
        <ele>177.2</ele>
        <time>2022-09-24T09:37:13Z</time>
      </trkpt>
      <trkpt lat="45.79814" lon="4.94029">
        <ele>177.2</ele>
        <time>2022-09-24T09:37:14Z</time>
      </trkpt>
      <trkpt lat="45.79817" lon="4.94031">
        <ele>177.3</ele>
        <time>2022-09-24T09:37:15Z</time>
      </trkpt>
      <trkpt lat="45.79818" lon="4.94033">
        <ele>177.3</ele>
        <time>2022-09-24T09:37:16Z</time>
      </trkpt>
      <trkpt lat="45.79822" lon="4.94036">
        <ele>177.3</ele>
        <time>2022-09-24T09:37:17Z</time>
      </trkpt>
      <trkpt lat="45.79825" lon="4.94038">
        <ele>177.3</ele>
        <time>2022-09-24T09:37:18Z</time>
      </trkpt>
      <trkpt lat="45.79829" lon="4.94042">
        <ele>177.3</ele>
        <time>2022-09-24T09:37:19Z</time>
      </trkpt>
      <trkpt lat="45.79832" lon="4.94045">
        <ele>177.2</ele>
        <time>2022-09-24T09:37:20Z</time>
      </trkpt>
      <trkpt lat="45.79835" lon="4.94049">
        <ele>177.2</ele>
        <time>2022-09-24T09:37:21Z</time>
      </trkpt>
      <trkpt lat="45.79838" lon="4.94051">
        <ele>177.2</ele>
        <time>2022-09-24T09:37:22Z</time>
      </trkpt>
      <trkpt lat="45.79842" lon="4.94057">
        <ele>177.2</ele>
        <time>2022-09-24T09:37:23Z</time>
      </trkpt>
      <trkpt lat="45.79846" lon="4.94064">
        <ele>177.1</ele>
        <time>2022-09-24T09:37:24Z</time>
      </trkpt>
      <trkpt lat="45.79849" lon="4.94073">
        <ele>177.1</ele>
        <time>2022-09-24T09:37:25Z</time>
      </trkpt>
      <trkpt lat="45.79851" lon="4.9408">
        <ele>177</ele>
        <time>2022-09-24T09:37:26Z</time>
      </trkpt>
      <trkpt lat="45.79853" lon="4.94089">
        <ele>177</ele>
        <time>2022-09-24T09:37:27Z</time>
      </trkpt>
      <trkpt lat="45.79855" lon="4.94097">
        <ele>176.9</ele>
        <time>2022-09-24T09:37:28Z</time>
      </trkpt>
      <trkpt lat="45.79855" lon="4.94106">
        <ele>176.9</ele>
        <time>2022-09-24T09:37:29Z</time>
      </trkpt>
      <trkpt lat="45.79855" lon="4.94115">
        <ele>176.8</ele>
        <time>2022-09-24T09:37:30Z</time>
      </trkpt>
      <trkpt lat="45.79854" lon="4.94123">
        <ele>176.8</ele>
        <time>2022-09-24T09:37:31Z</time>
      </trkpt>
      <trkpt lat="45.79855" lon="4.94129">
        <ele>176.8</ele>
        <time>2022-09-24T09:37:32Z</time>
      </trkpt>
      <trkpt lat="45.79854" lon="4.94136">
        <ele>176.7</ele>
        <time>2022-09-24T09:37:33Z</time>
      </trkpt>
      <trkpt lat="45.79853" lon="4.94144">
        <ele>176.7</ele>
        <time>2022-09-24T09:37:34Z</time>
      </trkpt>
      <trkpt lat="45.79852" lon="4.94151">
        <ele>176.7</ele>
        <time>2022-09-24T09:37:35Z</time>
      </trkpt>
      <trkpt lat="45.79851" lon="4.94161">
        <ele>176.7</ele>
        <time>2022-09-24T09:37:36Z</time>
      </trkpt>
      <trkpt lat="45.79849" lon="4.9417">
        <ele>176.7</ele>
        <time>2022-09-24T09:37:37Z</time>
      </trkpt>
      <trkpt lat="45.79847" lon="4.94176">
        <ele>176.6</ele>
        <time>2022-09-24T09:37:38Z</time>
      </trkpt>
      <trkpt lat="45.79843" lon="4.94183">
        <ele>176.6</ele>
        <time>2022-09-24T09:37:39Z</time>
      </trkpt>
      <trkpt lat="45.79838" lon="4.94188">
        <ele>176.5</ele>
        <time>2022-09-24T09:37:40Z</time>
      </trkpt>
      <trkpt lat="45.79834" lon="4.9419">
        <ele>176.5</ele>
        <time>2022-09-24T09:37:41Z</time>
      </trkpt>
      <trkpt lat="45.79829" lon="4.94192">
        <ele>176.5</ele>
        <time>2022-09-24T09:37:42Z</time>
      </trkpt>
      <trkpt lat="45.79824" lon="4.94197">
        <ele>176.4</ele>
        <time>2022-09-24T09:37:43Z</time>
      </trkpt>
      <trkpt lat="45.79818" lon="4.94202">
        <ele>176.4</ele>
        <time>2022-09-24T09:37:44Z</time>
      </trkpt>
      <trkpt lat="45.79814" lon="4.94207">
        <ele>176.4</ele>
        <time>2022-09-24T09:37:45Z</time>
      </trkpt>
      <trkpt lat="45.79813" lon="4.94211">
        <ele>176.3</ele>
        <time>2022-09-24T09:37:46Z</time>
      </trkpt>
      <trkpt lat="45.79814" lon="4.94216">
        <ele>176.3</ele>
        <time>2022-09-24T09:37:47Z</time>
      </trkpt>
      <trkpt lat="45.79813" lon="4.94223">
        <ele>176.3</ele>
        <time>2022-09-24T09:37:48Z</time>
      </trkpt>
      <trkpt lat="45.79812" lon="4.94231">
        <ele>176.3</ele>
        <time>2022-09-24T09:37:49Z</time>
      </trkpt>
      <trkpt lat="45.79812" lon="4.94239">
        <ele>176.2</ele>
        <time>2022-09-24T09:37:50Z</time>
      </trkpt>
      <trkpt lat="45.79811" lon="4.94246">
        <ele>176.2</ele>
        <time>2022-09-24T09:37:51Z</time>
      </trkpt>
      <trkpt lat="45.7981" lon="4.94256">
        <ele>176.1</ele>
        <time>2022-09-24T09:37:52Z</time>
      </trkpt>
      <trkpt lat="45.79809" lon="4.94264">
        <ele>175.9</ele>
        <time>2022-09-24T09:37:53Z</time>
      </trkpt>
      <trkpt lat="45.79808" lon="4.94273">
        <ele>175.8</ele>
        <time>2022-09-24T09:37:54Z</time>
      </trkpt>
      <trkpt lat="45.79807" lon="4.9428">
        <ele>175.7</ele>
        <time>2022-09-24T09:37:55Z</time>
      </trkpt>
      <trkpt lat="45.79806" lon="4.9429">
        <ele>175.5</ele>
        <time>2022-09-24T09:37:56Z</time>
      </trkpt>
      <trkpt lat="45.79806" lon="4.94299">
        <ele>175.4</ele>
        <time>2022-09-24T09:37:57Z</time>
      </trkpt>
      <trkpt lat="45.79807" lon="4.94309">
        <ele>175.3</ele>
        <time>2022-09-24T09:37:58Z</time>
      </trkpt>
      <trkpt lat="45.79807" lon="4.94316">
        <ele>175.3</ele>
        <time>2022-09-24T09:37:59Z</time>
      </trkpt>
      <trkpt lat="45.79807" lon="4.94324">
        <ele>175.2</ele>
        <time>2022-09-24T09:38:00Z</time>
      </trkpt>
      <trkpt lat="45.79806" lon="4.94334">
        <ele>175.2</ele>
        <time>2022-09-24T09:38:01Z</time>
      </trkpt>
      <trkpt lat="45.79805" lon="4.94344">
        <ele>175.1</ele>
        <time>2022-09-24T09:38:02Z</time>
      </trkpt>
      <trkpt lat="45.79806" lon="4.94353">
        <ele>175.1</ele>
        <time>2022-09-24T09:38:03Z</time>
      </trkpt>
      <trkpt lat="45.79807" lon="4.9436">
        <ele>175.1</ele>
        <time>2022-09-24T09:38:04Z</time>
      </trkpt>
      <trkpt lat="45.79806" lon="4.94369">
        <ele>175</ele>
        <time>2022-09-24T09:38:05Z</time>
      </trkpt>
      <trkpt lat="45.79807" lon="4.94376">
        <ele>175</ele>
        <time>2022-09-24T09:38:06Z</time>
      </trkpt>
      <trkpt lat="45.79807" lon="4.94383">
        <ele>175</ele>
        <time>2022-09-24T09:38:07Z</time>
      </trkpt>
      <trkpt lat="45.79808" lon="4.94393">
        <ele>175</ele>
        <time>2022-09-24T09:38:08Z</time>
      </trkpt>
      <trkpt lat="45.79808" lon="4.94403">
        <ele>175</ele>
        <time>2022-09-24T09:38:09Z</time>
      </trkpt>
      <trkpt lat="45.79808" lon="4.94412">
        <ele>175</ele>
        <time>2022-09-24T09:38:10Z</time>
      </trkpt>
      <trkpt lat="45.79808" lon="4.9442">
        <ele>175</ele>
        <time>2022-09-24T09:38:11Z</time>
      </trkpt>
      <trkpt lat="45.79808" lon="4.94429">
        <ele>175</ele>
        <time>2022-09-24T09:38:12Z</time>
      </trkpt>
      <trkpt lat="45.7981" lon="4.94437">
        <ele>175</ele>
        <time>2022-09-24T09:38:13Z</time>
      </trkpt>
      <trkpt lat="45.79811" lon="4.94446">
        <ele>174.9</ele>
        <time>2022-09-24T09:38:14Z</time>
      </trkpt>
      <trkpt lat="45.79811" lon="4.94454">
        <ele>174.9</ele>
        <time>2022-09-24T09:38:15Z</time>
      </trkpt>
      <trkpt lat="45.79812" lon="4.94464">
        <ele>174.9</ele>
        <time>2022-09-24T09:38:16Z</time>
      </trkpt>
      <trkpt lat="45.79812" lon="4.94471">
        <ele>174.9</ele>
        <time>2022-09-24T09:38:17Z</time>
      </trkpt>
      <trkpt lat="45.79813" lon="4.9448">
        <ele>174.9</ele>
        <time>2022-09-24T09:38:18Z</time>
      </trkpt>
      <trkpt lat="45.79814" lon="4.94488">
        <ele>174.9</ele>
        <time>2022-09-24T09:38:19Z</time>
      </trkpt>
      <trkpt lat="45.79815" lon="4.94497">
        <ele>174.9</ele>
        <time>2022-09-24T09:38:20Z</time>
      </trkpt>
      <trkpt lat="45.79816" lon="4.94506">
        <ele>174.9</ele>
        <time>2022-09-24T09:38:22Z</time>
      </trkpt>
      <trkpt lat="45.79814" lon="4.94517">
        <ele>174.8</ele>
        <time>2022-09-24T09:38:23Z</time>
      </trkpt>
      <trkpt lat="45.79814" lon="4.94528">
        <ele>174.8</ele>
        <time>2022-09-24T09:38:24Z</time>
      </trkpt>
      <trkpt lat="45.79813" lon="4.94537">
        <ele>174.8</ele>
        <time>2022-09-24T09:38:25Z</time>
      </trkpt>
      <trkpt lat="45.79813" lon="4.94545">
        <ele>174.8</ele>
        <time>2022-09-24T09:38:26Z</time>
      </trkpt>
      <trkpt lat="45.79813" lon="4.94552">
        <ele>174.8</ele>
        <time>2022-09-24T09:38:27Z</time>
      </trkpt>
      <trkpt lat="45.79811" lon="4.94561">
        <ele>174.7</ele>
        <time>2022-09-24T09:38:28Z</time>
      </trkpt>
      <trkpt lat="45.79811" lon="4.94571">
        <ele>174.7</ele>
        <time>2022-09-24T09:38:29Z</time>
      </trkpt>
      <trkpt lat="45.79811" lon="4.94579">
        <ele>174.7</ele>
        <time>2022-09-24T09:38:30Z</time>
      </trkpt>
      <trkpt lat="45.79811" lon="4.9459">
        <ele>174.7</ele>
        <time>2022-09-24T09:38:31Z</time>
      </trkpt>
      <trkpt lat="45.7981" lon="4.946">
        <ele>174.7</ele>
        <time>2022-09-24T09:38:32Z</time>
      </trkpt>
      <trkpt lat="45.7981" lon="4.9461">
        <ele>174.6</ele>
        <time>2022-09-24T09:38:33Z</time>
      </trkpt>
      <trkpt lat="45.7981" lon="4.94618">
        <ele>174.6</ele>
        <time>2022-09-24T09:38:34Z</time>
      </trkpt>
      <trkpt lat="45.79811" lon="4.94626">
        <ele>174.6</ele>
        <time>2022-09-24T09:38:35Z</time>
      </trkpt>
      <trkpt lat="45.79812" lon="4.94635">
        <ele>174.6</ele>
        <time>2022-09-24T09:38:36Z</time>
      </trkpt>
      <trkpt lat="45.79812" lon="4.94645">
        <ele>174.6</ele>
        <time>2022-09-24T09:38:37Z</time>
      </trkpt>
      <trkpt lat="45.79812" lon="4.94653">
        <ele>174.6</ele>
        <time>2022-09-24T09:38:38Z</time>
      </trkpt>
      <trkpt lat="45.79813" lon="4.94662">
        <ele>174.6</ele>
        <time>2022-09-24T09:38:39Z</time>
      </trkpt>
      <trkpt lat="45.79813" lon="4.9467">
        <ele>174.5</ele>
        <time>2022-09-24T09:38:40Z</time>
      </trkpt>
      <trkpt lat="45.79814" lon="4.94677">
        <ele>174.5</ele>
        <time>2022-09-24T09:38:41Z</time>
      </trkpt>
      <trkpt lat="45.79815" lon="4.94686">
        <ele>174.5</ele>
        <time>2022-09-24T09:38:42Z</time>
      </trkpt>
      <trkpt lat="45.79815" lon="4.94695">
        <ele>174.4</ele>
        <time>2022-09-24T09:38:43Z</time>
      </trkpt>
      <trkpt lat="45.79815" lon="4.94703">
        <ele>174.4</ele>
        <time>2022-09-24T09:38:44Z</time>
      </trkpt>
      <trkpt lat="45.79816" lon="4.94712">
        <ele>174.4</ele>
        <time>2022-09-24T09:38:45Z</time>
      </trkpt>
      <trkpt lat="45.79816" lon="4.9472">
        <ele>174.5</ele>
        <time>2022-09-24T09:38:46Z</time>
      </trkpt>
      <trkpt lat="45.79816" lon="4.94729">
        <ele>174.5</ele>
        <time>2022-09-24T09:38:47Z</time>
      </trkpt>
      <trkpt lat="45.79817" lon="4.94739">
        <ele>174.5</ele>
        <time>2022-09-24T09:38:48Z</time>
      </trkpt>
      <trkpt lat="45.79817" lon="4.94747">
        <ele>174.5</ele>
        <time>2022-09-24T09:38:49Z</time>
      </trkpt>
      <trkpt lat="45.79818" lon="4.94755">
        <ele>174.6</ele>
        <time>2022-09-24T09:38:50Z</time>
      </trkpt>
      <trkpt lat="45.79819" lon="4.94763">
        <ele>174.6</ele>
        <time>2022-09-24T09:38:51Z</time>
      </trkpt>
      <trkpt lat="45.79819" lon="4.94781">
        <ele>174.6</ele>
        <time>2022-09-24T09:38:52Z</time>
      </trkpt>
      <trkpt lat="45.79819" lon="4.94789">
        <ele>174.6</ele>
        <time>2022-09-24T09:38:53Z</time>
      </trkpt>
      <trkpt lat="45.79819" lon="4.94797">
        <ele>174.7</ele>
        <time>2022-09-24T09:38:54Z</time>
      </trkpt>
      <trkpt lat="45.7982" lon="4.94804">
        <ele>174.8</ele>
        <time>2022-09-24T09:38:55Z</time>
      </trkpt>
      <trkpt lat="45.7982" lon="4.94812">
        <ele>174.9</ele>
        <time>2022-09-24T09:38:56Z</time>
      </trkpt>
      <trkpt lat="45.7982" lon="4.94819">
        <ele>175</ele>
        <time>2022-09-24T09:38:57Z</time>
      </trkpt>
      <trkpt lat="45.79821" lon="4.94828">
        <ele>175.1</ele>
        <time>2022-09-24T09:38:58Z</time>
      </trkpt>
      <trkpt lat="45.79821" lon="4.94836">
        <ele>175.3</ele>
        <time>2022-09-24T09:38:59Z</time>
      </trkpt>
      <trkpt lat="45.79822" lon="4.94844">
        <ele>175.5</ele>
        <time>2022-09-24T09:39:00Z</time>
      </trkpt>
      <trkpt lat="45.79823" lon="4.94852">
        <ele>175.7</ele>
        <time>2022-09-24T09:39:01Z</time>
      </trkpt>
      <trkpt lat="45.79823" lon="4.94859">
        <ele>175.9</ele>
        <time>2022-09-24T09:39:02Z</time>
      </trkpt>
      <trkpt lat="45.79823" lon="4.94864">
        <ele>176</ele>
        <time>2022-09-24T09:39:03Z</time>
      </trkpt>
      <trkpt lat="45.79821" lon="4.9487">
        <ele>176.1</ele>
        <time>2022-09-24T09:39:04Z</time>
      </trkpt>
      <trkpt lat="45.79819" lon="4.94875">
        <ele>176.2</ele>
        <time>2022-09-24T09:39:05Z</time>
      </trkpt>
      <trkpt lat="45.79816" lon="4.9488">
        <ele>176.3</ele>
        <time>2022-09-24T09:39:06Z</time>
      </trkpt>
      <trkpt lat="45.79813" lon="4.94884">
        <ele>176.3</ele>
        <time>2022-09-24T09:39:07Z</time>
      </trkpt>
      <trkpt lat="45.7981" lon="4.94891">
        <ele>176.3</ele>
        <time>2022-09-24T09:39:08Z</time>
      </trkpt>
      <trkpt lat="45.79807" lon="4.94897">
        <ele>176.4</ele>
        <time>2022-09-24T09:39:09Z</time>
      </trkpt>
      <trkpt lat="45.79804" lon="4.94902">
        <ele>176.4</ele>
        <time>2022-09-24T09:39:10Z</time>
      </trkpt>
      <trkpt lat="45.79801" lon="4.94907">
        <ele>176.4</ele>
        <time>2022-09-24T09:39:11Z</time>
      </trkpt>
      <trkpt lat="45.79799" lon="4.94913">
        <ele>176.4</ele>
        <time>2022-09-24T09:39:12Z</time>
      </trkpt>
      <trkpt lat="45.79796" lon="4.94918">
        <ele>176.5</ele>
        <time>2022-09-24T09:39:13Z</time>
      </trkpt>
      <trkpt lat="45.79793" lon="4.94924">
        <ele>176.5</ele>
        <time>2022-09-24T09:39:14Z</time>
      </trkpt>
      <trkpt lat="45.7979" lon="4.9493">
        <ele>176.5</ele>
        <time>2022-09-24T09:39:15Z</time>
      </trkpt>
      <trkpt lat="45.79787" lon="4.94935">
        <ele>176.5</ele>
        <time>2022-09-24T09:39:16Z</time>
      </trkpt>
      <trkpt lat="45.79785" lon="4.9494">
        <ele>176.6</ele>
        <time>2022-09-24T09:39:17Z</time>
      </trkpt>
      <trkpt lat="45.79782" lon="4.94947">
        <ele>176.6</ele>
        <time>2022-09-24T09:39:18Z</time>
      </trkpt>
      <trkpt lat="45.79779" lon="4.94952">
        <ele>176.6</ele>
        <time>2022-09-24T09:39:19Z</time>
      </trkpt>
      <trkpt lat="45.79776" lon="4.94958">
        <ele>176.6</ele>
        <time>2022-09-24T09:39:20Z</time>
      </trkpt>
      <trkpt lat="45.79772" lon="4.94963">
        <ele>176.5</ele>
        <time>2022-09-24T09:39:21Z</time>
      </trkpt>
      <trkpt lat="45.79769" lon="4.94969">
        <ele>176.5</ele>
        <time>2022-09-24T09:39:22Z</time>
      </trkpt>
      <trkpt lat="45.79766" lon="4.94975">
        <ele>176.5</ele>
        <time>2022-09-24T09:39:23Z</time>
      </trkpt>
      <trkpt lat="45.79763" lon="4.94979">
        <ele>176.5</ele>
        <time>2022-09-24T09:39:24Z</time>
      </trkpt>
      <trkpt lat="45.7976" lon="4.94985">
        <ele>176.5</ele>
        <time>2022-09-24T09:39:25Z</time>
      </trkpt>
      <trkpt lat="45.79757" lon="4.9499">
        <ele>176.5</ele>
        <time>2022-09-24T09:39:26Z</time>
      </trkpt>
      <trkpt lat="45.79753" lon="4.94995">
        <ele>176.5</ele>
        <time>2022-09-24T09:39:27Z</time>
      </trkpt>
      <trkpt lat="45.7975" lon="4.95001">
        <ele>176.5</ele>
        <time>2022-09-24T09:39:28Z</time>
      </trkpt>
      <trkpt lat="45.79747" lon="4.95007">
        <ele>176.5</ele>
        <time>2022-09-24T09:39:29Z</time>
      </trkpt>
      <trkpt lat="45.79744" lon="4.95013">
        <ele>176.5</ele>
        <time>2022-09-24T09:39:30Z</time>
      </trkpt>
      <trkpt lat="45.7974" lon="4.95018">
        <ele>176.5</ele>
        <time>2022-09-24T09:39:31Z</time>
      </trkpt>
      <trkpt lat="45.79737" lon="4.95023">
        <ele>176.5</ele>
        <time>2022-09-24T09:39:32Z</time>
      </trkpt>
      <trkpt lat="45.79734" lon="4.9503">
        <ele>176.5</ele>
        <time>2022-09-24T09:39:33Z</time>
      </trkpt>
      <trkpt lat="45.7973" lon="4.95036">
        <ele>176.5</ele>
        <time>2022-09-24T09:39:34Z</time>
      </trkpt>
      <trkpt lat="45.79728" lon="4.95041">
        <ele>176.5</ele>
        <time>2022-09-24T09:39:35Z</time>
      </trkpt>
      <trkpt lat="45.79725" lon="4.95046">
        <ele>176.5</ele>
        <time>2022-09-24T09:39:36Z</time>
      </trkpt>
      <trkpt lat="45.79723" lon="4.95051">
        <ele>176.5</ele>
        <time>2022-09-24T09:39:37Z</time>
      </trkpt>
      <trkpt lat="45.7972" lon="4.95058">
        <ele>176.5</ele>
        <time>2022-09-24T09:39:38Z</time>
      </trkpt>
      <trkpt lat="45.79717" lon="4.95065">
        <ele>176.5</ele>
        <time>2022-09-24T09:39:39Z</time>
      </trkpt>
      <trkpt lat="45.79714" lon="4.95071">
        <ele>176.5</ele>
        <time>2022-09-24T09:39:40Z</time>
      </trkpt>
      <trkpt lat="45.7971" lon="4.95079">
        <ele>176.5</ele>
        <time>2022-09-24T09:39:41Z</time>
      </trkpt>
      <trkpt lat="45.79708" lon="4.95086">
        <ele>176.4</ele>
        <time>2022-09-24T09:39:42Z</time>
      </trkpt>
      <trkpt lat="45.79706" lon="4.95092">
        <ele>176.4</ele>
        <time>2022-09-24T09:39:43Z</time>
      </trkpt>
      <trkpt lat="45.79703" lon="4.95099">
        <ele>176.4</ele>
        <time>2022-09-24T09:39:44Z</time>
      </trkpt>
      <trkpt lat="45.797" lon="4.95107">
        <ele>176.3</ele>
        <time>2022-09-24T09:39:45Z</time>
      </trkpt>
      <trkpt lat="45.79698" lon="4.95115">
        <ele>176.3</ele>
        <time>2022-09-24T09:39:46Z</time>
      </trkpt>
      <trkpt lat="45.79696" lon="4.95122">
        <ele>176.3</ele>
        <time>2022-09-24T09:39:47Z</time>
      </trkpt>
      <trkpt lat="45.79693" lon="4.95131">
        <ele>176.3</ele>
        <time>2022-09-24T09:39:48Z</time>
      </trkpt>
      <trkpt lat="45.79692" lon="4.95138">
        <ele>176.3</ele>
        <time>2022-09-24T09:39:49Z</time>
      </trkpt>
      <trkpt lat="45.7969" lon="4.95146">
        <ele>176.3</ele>
        <time>2022-09-24T09:39:50Z</time>
      </trkpt>
      <trkpt lat="45.79689" lon="4.95153">
        <ele>176.3</ele>
        <time>2022-09-24T09:39:51Z</time>
      </trkpt>
      <trkpt lat="45.79689" lon="4.95162">
        <ele>176.3</ele>
        <time>2022-09-24T09:39:52Z</time>
      </trkpt>
      <trkpt lat="45.79689" lon="4.95169">
        <ele>176.4</ele>
        <time>2022-09-24T09:39:53Z</time>
      </trkpt>
      <trkpt lat="45.79688" lon="4.95177">
        <ele>176.4</ele>
        <time>2022-09-24T09:39:54Z</time>
      </trkpt>
      <trkpt lat="45.79688" lon="4.95186">
        <ele>176.5</ele>
        <time>2022-09-24T09:39:55Z</time>
      </trkpt>
      <trkpt lat="45.79687" lon="4.95195">
        <ele>176.5</ele>
        <time>2022-09-24T09:39:56Z</time>
      </trkpt>
      <trkpt lat="45.79687" lon="4.95202">
        <ele>176.6</ele>
        <time>2022-09-24T09:39:57Z</time>
      </trkpt>
      <trkpt lat="45.79687" lon="4.9521">
        <ele>176.6</ele>
        <time>2022-09-24T09:39:58Z</time>
      </trkpt>
      <trkpt lat="45.79687" lon="4.95217">
        <ele>176.7</ele>
        <time>2022-09-24T09:39:59Z</time>
      </trkpt>
      <trkpt lat="45.79687" lon="4.95224">
        <ele>176.7</ele>
        <time>2022-09-24T09:40:00Z</time>
      </trkpt>
      <trkpt lat="45.79687" lon="4.95231">
        <ele>176.8</ele>
        <time>2022-09-24T09:40:01Z</time>
      </trkpt>
      <trkpt lat="45.79688" lon="4.95238">
        <ele>176.8</ele>
        <time>2022-09-24T09:40:02Z</time>
      </trkpt>
      <trkpt lat="45.79688" lon="4.95245">
        <ele>176.8</ele>
        <time>2022-09-24T09:40:03Z</time>
      </trkpt>
      <trkpt lat="45.79688" lon="4.95251">
        <ele>176.8</ele>
        <time>2022-09-24T09:40:04Z</time>
      </trkpt>
      <trkpt lat="45.79688" lon="4.95258">
        <ele>176.7</ele>
        <time>2022-09-24T09:40:05Z</time>
      </trkpt>
      <trkpt lat="45.79689" lon="4.95265">
        <ele>176.6</ele>
        <time>2022-09-24T09:40:06Z</time>
      </trkpt>
      <trkpt lat="45.79689" lon="4.95272">
        <ele>176.5</ele>
        <time>2022-09-24T09:40:07Z</time>
      </trkpt>
      <trkpt lat="45.79689" lon="4.95279">
        <ele>176.4</ele>
        <time>2022-09-24T09:40:08Z</time>
      </trkpt>
      <trkpt lat="45.7969" lon="4.95285">
        <ele>176.2</ele>
        <time>2022-09-24T09:40:09Z</time>
      </trkpt>
      <trkpt lat="45.79691" lon="4.95293">
        <ele>176.1</ele>
        <time>2022-09-24T09:40:10Z</time>
      </trkpt>
      <trkpt lat="45.7969" lon="4.95299">
        <ele>176</ele>
        <time>2022-09-24T09:40:11Z</time>
      </trkpt>
      <trkpt lat="45.7969" lon="4.95306">
        <ele>175.8</ele>
        <time>2022-09-24T09:40:12Z</time>
      </trkpt>
      <trkpt lat="45.79691" lon="4.95313">
        <ele>175.6</ele>
        <time>2022-09-24T09:40:13Z</time>
      </trkpt>
      <trkpt lat="45.79691" lon="4.95322">
        <ele>175.4</ele>
        <time>2022-09-24T09:40:14Z</time>
      </trkpt>
      <trkpt lat="45.79691" lon="4.9533">
        <ele>175.3</ele>
        <time>2022-09-24T09:40:15Z</time>
      </trkpt>
      <trkpt lat="45.79691" lon="4.95338">
        <ele>175.1</ele>
        <time>2022-09-24T09:40:16Z</time>
      </trkpt>
      <trkpt lat="45.7969" lon="4.95345">
        <ele>174.9</ele>
        <time>2022-09-24T09:40:17Z</time>
      </trkpt>
      <trkpt lat="45.7969" lon="4.95354">
        <ele>174.8</ele>
        <time>2022-09-24T09:40:18Z</time>
      </trkpt>
      <trkpt lat="45.79689" lon="4.95362">
        <ele>174.7</ele>
        <time>2022-09-24T09:40:19Z</time>
      </trkpt>
      <trkpt lat="45.79689" lon="4.95372">
        <ele>174.5</ele>
        <time>2022-09-24T09:40:20Z</time>
      </trkpt>
      <trkpt lat="45.79689" lon="4.95382">
        <ele>174.5</ele>
        <time>2022-09-24T09:40:21Z</time>
      </trkpt>
      <trkpt lat="45.79689" lon="4.95391">
        <ele>174.4</ele>
        <time>2022-09-24T09:40:22Z</time>
      </trkpt>
      <trkpt lat="45.7969" lon="4.95401">
        <ele>174.4</ele>
        <time>2022-09-24T09:40:23Z</time>
      </trkpt>
      <trkpt lat="45.7969" lon="4.9541">
        <ele>174.3</ele>
        <time>2022-09-24T09:40:24Z</time>
      </trkpt>
      <trkpt lat="45.7969" lon="4.9542">
        <ele>174.2</ele>
        <time>2022-09-24T09:40:25Z</time>
      </trkpt>
      <trkpt lat="45.79691" lon="4.95429">
        <ele>174.2</ele>
        <time>2022-09-24T09:40:26Z</time>
      </trkpt>
      <trkpt lat="45.79692" lon="4.95438">
        <ele>174.1</ele>
        <time>2022-09-24T09:40:28Z</time>
      </trkpt>
      <trkpt lat="45.79695" lon="4.95453">
        <ele>174.1</ele>
        <time>2022-09-24T09:40:29Z</time>
      </trkpt>
      <trkpt lat="45.79697" lon="4.95461">
        <ele>174.1</ele>
        <time>2022-09-24T09:40:30Z</time>
      </trkpt>
      <trkpt lat="45.797" lon="4.95468">
        <ele>174.2</ele>
        <time>2022-09-24T09:40:32Z</time>
      </trkpt>
      <trkpt lat="45.79705" lon="4.95474">
        <ele>174.2</ele>
        <time>2022-09-24T09:40:33Z</time>
      </trkpt>
      <trkpt lat="45.7971" lon="4.95477">
        <ele>174.2</ele>
        <time>2022-09-24T09:40:34Z</time>
      </trkpt>
      <trkpt lat="45.79721" lon="4.95484">
        <ele>174.2</ele>
        <time>2022-09-24T09:40:35Z</time>
      </trkpt>
      <trkpt lat="45.79726" lon="4.95489">
        <ele>174.1</ele>
        <time>2022-09-24T09:40:36Z</time>
      </trkpt>
      <trkpt lat="45.79731" lon="4.95495">
        <ele>174.1</ele>
        <time>2022-09-24T09:40:37Z</time>
      </trkpt>
      <trkpt lat="45.79736" lon="4.955">
        <ele>174.2</ele>
        <time>2022-09-24T09:40:38Z</time>
      </trkpt>
      <trkpt lat="45.79742" lon="4.95503">
        <ele>174.2</ele>
        <time>2022-09-24T09:40:39Z</time>
      </trkpt>
      <trkpt lat="45.79747" lon="4.95508">
        <ele>174.2</ele>
        <time>2022-09-24T09:40:40Z</time>
      </trkpt>
      <trkpt lat="45.79752" lon="4.95512">
        <ele>174.2</ele>
        <time>2022-09-24T09:40:41Z</time>
      </trkpt>
      <trkpt lat="45.79757" lon="4.95516">
        <ele>174.2</ele>
        <time>2022-09-24T09:40:42Z</time>
      </trkpt>
      <trkpt lat="45.79762" lon="4.9552">
        <ele>174.2</ele>
        <time>2022-09-24T09:40:44Z</time>
      </trkpt>
      <trkpt lat="45.79771" lon="4.95529">
        <ele>174.2</ele>
        <time>2022-09-24T09:40:45Z</time>
      </trkpt>
      <trkpt lat="45.79775" lon="4.95533">
        <ele>174.2</ele>
        <time>2022-09-24T09:40:46Z</time>
      </trkpt>
      <trkpt lat="45.79778" lon="4.95539">
        <ele>174.2</ele>
        <time>2022-09-24T09:40:47Z</time>
      </trkpt>
      <trkpt lat="45.79779" lon="4.95544">
        <ele>174.2</ele>
        <time>2022-09-24T09:40:48Z</time>
      </trkpt>
      <trkpt lat="45.79783" lon="4.9555">
        <ele>174.2</ele>
        <time>2022-09-24T09:40:49Z</time>
      </trkpt>
      <trkpt lat="45.79786" lon="4.95555">
        <ele>174.1</ele>
        <time>2022-09-24T09:40:50Z</time>
      </trkpt>
      <trkpt lat="45.79789" lon="4.95561">
        <ele>174.1</ele>
        <time>2022-09-24T09:40:51Z</time>
      </trkpt>
      <trkpt lat="45.79792" lon="4.95566">
        <ele>174.1</ele>
        <time>2022-09-24T09:40:52Z</time>
      </trkpt>
      <trkpt lat="45.79797" lon="4.95571">
        <ele>174</ele>
        <time>2022-09-24T09:40:53Z</time>
      </trkpt>
      <trkpt lat="45.798" lon="4.95576">
        <ele>174</ele>
        <time>2022-09-24T09:40:54Z</time>
      </trkpt>
      <trkpt lat="45.79804" lon="4.95579">
        <ele>174</ele>
        <time>2022-09-24T09:40:55Z</time>
      </trkpt>
      <trkpt lat="45.79808" lon="4.95586">
        <ele>174</ele>
        <time>2022-09-24T09:40:56Z</time>
      </trkpt>
      <trkpt lat="45.79812" lon="4.95588">
        <ele>174.1</ele>
        <time>2022-09-24T09:40:57Z</time>
      </trkpt>
      <trkpt lat="45.79816" lon="4.95593">
        <ele>174.1</ele>
        <time>2022-09-24T09:40:58Z</time>
      </trkpt>
      <trkpt lat="45.79819" lon="4.95598">
        <ele>174.1</ele>
        <time>2022-09-24T09:40:59Z</time>
      </trkpt>
      <trkpt lat="45.79822" lon="4.95604">
        <ele>174.2</ele>
        <time>2022-09-24T09:41:00Z</time>
      </trkpt>
      <trkpt lat="45.79825" lon="4.95609">
        <ele>174.3</ele>
        <time>2022-09-24T09:41:01Z</time>
      </trkpt>
      <trkpt lat="45.79827" lon="4.95615">
        <ele>174.3</ele>
        <time>2022-09-24T09:41:02Z</time>
      </trkpt>
      <trkpt lat="45.7983" lon="4.95622">
        <ele>174.4</ele>
        <time>2022-09-24T09:41:03Z</time>
      </trkpt>
      <trkpt lat="45.79832" lon="4.95628">
        <ele>174.5</ele>
        <time>2022-09-24T09:41:04Z</time>
      </trkpt>
      <trkpt lat="45.79834" lon="4.95635">
        <ele>174.6</ele>
        <time>2022-09-24T09:41:05Z</time>
      </trkpt>
      <trkpt lat="45.79835" lon="4.95641">
        <ele>174.6</ele>
        <time>2022-09-24T09:41:06Z</time>
      </trkpt>
      <trkpt lat="45.79836" lon="4.95648">
        <ele>174.6</ele>
        <time>2022-09-24T09:41:07Z</time>
      </trkpt>
      <trkpt lat="45.79837" lon="4.95656">
        <ele>174.7</ele>
        <time>2022-09-24T09:41:08Z</time>
      </trkpt>
      <trkpt lat="45.79838" lon="4.95663">
        <ele>174.7</ele>
        <time>2022-09-24T09:41:09Z</time>
      </trkpt>
      <trkpt lat="45.79838" lon="4.95671">
        <ele>174.7</ele>
        <time>2022-09-24T09:41:10Z</time>
      </trkpt>
      <trkpt lat="45.79839" lon="4.95678">
        <ele>174.8</ele>
        <time>2022-09-24T09:41:11Z</time>
      </trkpt>
      <trkpt lat="45.7984" lon="4.95685">
        <ele>174.8</ele>
        <time>2022-09-24T09:41:12Z</time>
      </trkpt>
      <trkpt lat="45.7984" lon="4.95691">
        <ele>174.7</ele>
        <time>2022-09-24T09:41:13Z</time>
      </trkpt>
      <trkpt lat="45.7984" lon="4.95697">
        <ele>174.7</ele>
        <time>2022-09-24T09:41:14Z</time>
      </trkpt>
      <trkpt lat="45.79841" lon="4.95703">
        <ele>174.7</ele>
        <time>2022-09-24T09:41:15Z</time>
      </trkpt>
      <trkpt lat="45.79841" lon="4.9571">
        <ele>174.6</ele>
        <time>2022-09-24T09:41:16Z</time>
      </trkpt>
      <trkpt lat="45.79842" lon="4.95717">
        <ele>174.6</ele>
        <time>2022-09-24T09:41:17Z</time>
      </trkpt>
      <trkpt lat="45.79842" lon="4.95727">
        <ele>174.5</ele>
        <time>2022-09-24T09:41:18Z</time>
      </trkpt>
      <trkpt lat="45.79842" lon="4.95735">
        <ele>174.5</ele>
        <time>2022-09-24T09:41:19Z</time>
      </trkpt>
      <trkpt lat="45.79843" lon="4.95742">
        <ele>174.5</ele>
        <time>2022-09-24T09:41:20Z</time>
      </trkpt>
      <trkpt lat="45.79843" lon="4.9575">
        <ele>174.5</ele>
        <time>2022-09-24T09:41:21Z</time>
      </trkpt>
      <trkpt lat="45.79843" lon="4.95758">
        <ele>174.5</ele>
        <time>2022-09-24T09:41:22Z</time>
      </trkpt>
      <trkpt lat="45.79844" lon="4.95765">
        <ele>174.5</ele>
        <time>2022-09-24T09:41:23Z</time>
      </trkpt>
      <trkpt lat="45.79844" lon="4.95773">
        <ele>174.5</ele>
        <time>2022-09-24T09:41:24Z</time>
      </trkpt>
      <trkpt lat="45.79845" lon="4.9578">
        <ele>174.5</ele>
        <time>2022-09-24T09:41:25Z</time>
      </trkpt>
      <trkpt lat="45.79845" lon="4.95787">
        <ele>174.5</ele>
        <time>2022-09-24T09:41:26Z</time>
      </trkpt>
      <trkpt lat="45.79845" lon="4.95795">
        <ele>174.6</ele>
        <time>2022-09-24T09:41:27Z</time>
      </trkpt>
      <trkpt lat="45.79845" lon="4.95802">
        <ele>174.6</ele>
        <time>2022-09-24T09:41:28Z</time>
      </trkpt>
      <trkpt lat="45.79845" lon="4.9581">
        <ele>174.6</ele>
        <time>2022-09-24T09:41:29Z</time>
      </trkpt>
      <trkpt lat="45.79846" lon="4.95816">
        <ele>174.6</ele>
        <time>2022-09-24T09:41:30Z</time>
      </trkpt>
      <trkpt lat="45.79845" lon="4.95823">
        <ele>174.7</ele>
        <time>2022-09-24T09:41:31Z</time>
      </trkpt>
      <trkpt lat="45.79847" lon="4.95831">
        <ele>174.7</ele>
        <time>2022-09-24T09:41:32Z</time>
      </trkpt>
      <trkpt lat="45.79846" lon="4.9584">
        <ele>174.7</ele>
        <time>2022-09-24T09:41:33Z</time>
      </trkpt>
      <trkpt lat="45.79846" lon="4.95846">
        <ele>174.7</ele>
        <time>2022-09-24T09:41:34Z</time>
      </trkpt>
      <trkpt lat="45.79847" lon="4.95855">
        <ele>174.7</ele>
        <time>2022-09-24T09:41:35Z</time>
      </trkpt>
      <trkpt lat="45.79847" lon="4.95863">
        <ele>174.7</ele>
        <time>2022-09-24T09:41:36Z</time>
      </trkpt>
      <trkpt lat="45.79848" lon="4.95869">
        <ele>174.8</ele>
        <time>2022-09-24T09:41:37Z</time>
      </trkpt>
      <trkpt lat="45.79848" lon="4.95877">
        <ele>174.8</ele>
        <time>2022-09-24T09:41:38Z</time>
      </trkpt>
      <trkpt lat="45.79848" lon="4.95885">
        <ele>174.8</ele>
        <time>2022-09-24T09:41:39Z</time>
      </trkpt>
      <trkpt lat="45.79849" lon="4.95893">
        <ele>174.9</ele>
        <time>2022-09-24T09:41:40Z</time>
      </trkpt>
      <trkpt lat="45.79849" lon="4.95901">
        <ele>174.9</ele>
        <time>2022-09-24T09:41:41Z</time>
      </trkpt>
      <trkpt lat="45.79848" lon="4.95908">
        <ele>174.9</ele>
        <time>2022-09-24T09:41:42Z</time>
      </trkpt>
      <trkpt lat="45.79849" lon="4.95916">
        <ele>174.9</ele>
        <time>2022-09-24T09:41:43Z</time>
      </trkpt>
      <trkpt lat="45.79849" lon="4.95923">
        <ele>174.9</ele>
        <time>2022-09-24T09:41:44Z</time>
      </trkpt>
      <trkpt lat="45.7985" lon="4.9593">
        <ele>174.9</ele>
        <time>2022-09-24T09:41:45Z</time>
      </trkpt>
      <trkpt lat="45.7985" lon="4.95938">
        <ele>174.9</ele>
        <time>2022-09-24T09:41:46Z</time>
      </trkpt>
      <trkpt lat="45.79849" lon="4.95946">
        <ele>174.9</ele>
        <time>2022-09-24T09:41:47Z</time>
      </trkpt>
      <trkpt lat="45.79849" lon="4.95953">
        <ele>174.9</ele>
        <time>2022-09-24T09:41:48Z</time>
      </trkpt>
      <trkpt lat="45.79849" lon="4.95961">
        <ele>174.9</ele>
        <time>2022-09-24T09:41:49Z</time>
      </trkpt>
      <trkpt lat="45.79849" lon="4.95969">
        <ele>174.9</ele>
        <time>2022-09-24T09:41:50Z</time>
      </trkpt>
      <trkpt lat="45.79849" lon="4.95974">
        <ele>174.9</ele>
        <time>2022-09-24T09:41:51Z</time>
      </trkpt>
      <trkpt lat="45.79849" lon="4.95983">
        <ele>174.9</ele>
        <time>2022-09-24T09:41:52Z</time>
      </trkpt>
      <trkpt lat="45.79849" lon="4.95991">
        <ele>174.9</ele>
        <time>2022-09-24T09:41:53Z</time>
      </trkpt>
      <trkpt lat="45.79848" lon="4.95998">
        <ele>174.9</ele>
        <time>2022-09-24T09:41:54Z</time>
      </trkpt>
      <trkpt lat="45.79849" lon="4.96005">
        <ele>174.9</ele>
        <time>2022-09-24T09:41:55Z</time>
      </trkpt>
      <trkpt lat="45.79849" lon="4.96013">
        <ele>175</ele>
        <time>2022-09-24T09:41:56Z</time>
      </trkpt>
      <trkpt lat="45.79848" lon="4.9602">
        <ele>175</ele>
        <time>2022-09-24T09:41:57Z</time>
      </trkpt>
      <trkpt lat="45.79848" lon="4.96026">
        <ele>175</ele>
        <time>2022-09-24T09:41:58Z</time>
      </trkpt>
      <trkpt lat="45.79849" lon="4.96031">
        <ele>175</ele>
        <time>2022-09-24T09:41:59Z</time>
      </trkpt>
      <trkpt lat="45.7985" lon="4.96037">
        <ele>175</ele>
        <time>2022-09-24T09:42:00Z</time>
      </trkpt>
      <trkpt lat="45.7985" lon="4.96044">
        <ele>175</ele>
        <time>2022-09-24T09:42:01Z</time>
      </trkpt>
      <trkpt lat="45.7985" lon="4.9605">
        <ele>174.9</ele>
        <time>2022-09-24T09:42:02Z</time>
      </trkpt>
      <trkpt lat="45.79849" lon="4.96056">
        <ele>174.9</ele>
        <time>2022-09-24T09:42:03Z</time>
      </trkpt>
      <trkpt lat="45.79851" lon="4.96064">
        <ele>174.9</ele>
        <time>2022-09-24T09:42:04Z</time>
      </trkpt>
      <trkpt lat="45.7985" lon="4.96073">
        <ele>174.9</ele>
        <time>2022-09-24T09:42:05Z</time>
      </trkpt>
      <trkpt lat="45.79849" lon="4.96079">
        <ele>174.9</ele>
        <time>2022-09-24T09:42:06Z</time>
      </trkpt>
      <trkpt lat="45.7985" lon="4.96087">
        <ele>174.8</ele>
        <time>2022-09-24T09:42:07Z</time>
      </trkpt>
      <trkpt lat="45.79849" lon="4.96092">
        <ele>174.8</ele>
        <time>2022-09-24T09:42:08Z</time>
      </trkpt>
      <trkpt lat="45.79849" lon="4.96094">
        <ele>174.8</ele>
        <time>2022-09-24T09:42:09Z</time>
      </trkpt>
      <trkpt lat="45.7985" lon="4.961">
        <ele>174.9</ele>
        <time>2022-09-24T09:42:10Z</time>
      </trkpt>
      <trkpt lat="45.7985" lon="4.96108">
        <ele>174.9</ele>
        <time>2022-09-24T09:42:11Z</time>
      </trkpt>
      <trkpt lat="45.7985" lon="4.96116">
        <ele>174.9</ele>
        <time>2022-09-24T09:42:12Z</time>
      </trkpt>
      <trkpt lat="45.79849" lon="4.96125">
        <ele>174.9</ele>
        <time>2022-09-24T09:42:13Z</time>
      </trkpt>
      <trkpt lat="45.79849" lon="4.96132">
        <ele>174.9</ele>
        <time>2022-09-24T09:42:14Z</time>
      </trkpt>
      <trkpt lat="45.79848" lon="4.96143">
        <ele>174.9</ele>
        <time>2022-09-24T09:42:15Z</time>
      </trkpt>
      <trkpt lat="45.79848" lon="4.96151">
        <ele>174.9</ele>
        <time>2022-09-24T09:42:16Z</time>
      </trkpt>
      <trkpt lat="45.79848" lon="4.96157">
        <ele>174.9</ele>
        <time>2022-09-24T09:42:17Z</time>
      </trkpt>
      <trkpt lat="45.7985" lon="4.96161">
        <ele>175</ele>
        <time>2022-09-24T09:42:18Z</time>
      </trkpt>
      <trkpt lat="45.7985" lon="4.96167">
        <ele>175</ele>
        <time>2022-09-24T09:42:19Z</time>
      </trkpt>
      <trkpt lat="45.7985" lon="4.96173">
        <ele>175</ele>
        <time>2022-09-24T09:42:20Z</time>
      </trkpt>
      <trkpt lat="45.79851" lon="4.96183">
        <ele>175</ele>
        <time>2022-09-24T09:42:21Z</time>
      </trkpt>
      <trkpt lat="45.79852" lon="4.96187">
        <ele>175</ele>
        <time>2022-09-24T09:42:22Z</time>
      </trkpt>
      <trkpt lat="45.79853" lon="4.96193">
        <ele>174.9</ele>
        <time>2022-09-24T09:42:23Z</time>
      </trkpt>
      <trkpt lat="45.79854" lon="4.96201">
        <ele>174.9</ele>
        <time>2022-09-24T09:42:24Z</time>
      </trkpt>
      <trkpt lat="45.79853" lon="4.9621">
        <ele>174.9</ele>
        <time>2022-09-24T09:42:25Z</time>
      </trkpt>
      <trkpt lat="45.79854" lon="4.96218">
        <ele>174.9</ele>
        <time>2022-09-24T09:42:26Z</time>
      </trkpt>
      <trkpt lat="45.79854" lon="4.96226">
        <ele>174.9</ele>
        <time>2022-09-24T09:42:27Z</time>
      </trkpt>
      <trkpt lat="45.79853" lon="4.96238">
        <ele>174.9</ele>
        <time>2022-09-24T09:42:28Z</time>
      </trkpt>
      <trkpt lat="45.79854" lon="4.96247">
        <ele>174.9</ele>
        <time>2022-09-24T09:42:29Z</time>
      </trkpt>
      <trkpt lat="45.79852" lon="4.96257">
        <ele>174.9</ele>
        <time>2022-09-24T09:42:30Z</time>
      </trkpt>
      <trkpt lat="45.79851" lon="4.96266">
        <ele>174.8</ele>
        <time>2022-09-24T09:42:31Z</time>
      </trkpt>
      <trkpt lat="45.7985" lon="4.96274">
        <ele>174.8</ele>
        <time>2022-09-24T09:42:32Z</time>
      </trkpt>
      <trkpt lat="45.79849" lon="4.96284">
        <ele>174.8</ele>
        <time>2022-09-24T09:42:34Z</time>
      </trkpt>
      <trkpt lat="45.79849" lon="4.96293">
        <ele>174.8</ele>
        <time>2022-09-24T09:42:35Z</time>
      </trkpt>
      <trkpt lat="45.79849" lon="4.96302">
        <ele>174.8</ele>
        <time>2022-09-24T09:42:36Z</time>
      </trkpt>
      <trkpt lat="45.79848" lon="4.96311">
        <ele>174.9</ele>
        <time>2022-09-24T09:42:37Z</time>
      </trkpt>
      <trkpt lat="45.79849" lon="4.96319">
        <ele>174.9</ele>
        <time>2022-09-24T09:42:38Z</time>
      </trkpt>
      <trkpt lat="45.79848" lon="4.96328">
        <ele>174.9</ele>
        <time>2022-09-24T09:42:39Z</time>
      </trkpt>
      <trkpt lat="45.79848" lon="4.96336">
        <ele>174.9</ele>
        <time>2022-09-24T09:42:40Z</time>
      </trkpt>
      <trkpt lat="45.79846" lon="4.96343">
        <ele>174.9</ele>
        <time>2022-09-24T09:42:41Z</time>
      </trkpt>
      <trkpt lat="45.79845" lon="4.9635">
        <ele>174.9</ele>
        <time>2022-09-24T09:42:42Z</time>
      </trkpt>
      <trkpt lat="45.79846" lon="4.96359">
        <ele>175</ele>
        <time>2022-09-24T09:42:43Z</time>
      </trkpt>
      <trkpt lat="45.79845" lon="4.96366">
        <ele>175</ele>
        <time>2022-09-24T09:42:44Z</time>
      </trkpt>
      <trkpt lat="45.79843" lon="4.9638">
        <ele>175</ele>
        <time>2022-09-24T09:42:45Z</time>
      </trkpt>
      <trkpt lat="45.79842" lon="4.96387">
        <ele>175</ele>
        <time>2022-09-24T09:42:46Z</time>
      </trkpt>
      <trkpt lat="45.79841" lon="4.96397">
        <ele>175</ele>
        <time>2022-09-24T09:42:48Z</time>
      </trkpt>
      <trkpt lat="45.7984" lon="4.96414">
        <ele>175</ele>
        <time>2022-09-24T09:42:49Z</time>
      </trkpt>
      <trkpt lat="45.79839" lon="4.96422">
        <ele>175</ele>
        <time>2022-09-24T09:42:50Z</time>
      </trkpt>
      <trkpt lat="45.79838" lon="4.9643">
        <ele>175.1</ele>
        <time>2022-09-24T09:42:51Z</time>
      </trkpt>
      <trkpt lat="45.79837" lon="4.96437">
        <ele>175.1</ele>
        <time>2022-09-24T09:42:52Z</time>
      </trkpt>
      <trkpt lat="45.79836" lon="4.96444">
        <ele>175.1</ele>
        <time>2022-09-24T09:42:53Z</time>
      </trkpt>
      <trkpt lat="45.79834" lon="4.96452">
        <ele>175.1</ele>
        <time>2022-09-24T09:42:54Z</time>
      </trkpt>
      <trkpt lat="45.79832" lon="4.96457">
        <ele>175.1</ele>
        <time>2022-09-24T09:42:55Z</time>
      </trkpt>
      <trkpt lat="45.79829" lon="4.96463">
        <ele>175.2</ele>
        <time>2022-09-24T09:42:56Z</time>
      </trkpt>
      <trkpt lat="45.79825" lon="4.96467">
        <ele>175.2</ele>
        <time>2022-09-24T09:42:57Z</time>
      </trkpt>
      <trkpt lat="45.79821" lon="4.96471">
        <ele>175.2</ele>
        <time>2022-09-24T09:42:58Z</time>
      </trkpt>
      <trkpt lat="45.79816" lon="4.96474">
        <ele>175.2</ele>
        <time>2022-09-24T09:42:59Z</time>
      </trkpt>
      <trkpt lat="45.79811" lon="4.96476">
        <ele>175.2</ele>
        <time>2022-09-24T09:43:00Z</time>
      </trkpt>
      <trkpt lat="45.79806" lon="4.96475">
        <ele>175.2</ele>
        <time>2022-09-24T09:43:01Z</time>
      </trkpt>
      <trkpt lat="45.798" lon="4.96474">
        <ele>175.2</ele>
        <time>2022-09-24T09:43:02Z</time>
      </trkpt>
      <trkpt lat="45.79797" lon="4.96474">
        <ele>175.3</ele>
        <time>2022-09-24T09:43:03Z</time>
      </trkpt>
      <trkpt lat="45.79793" lon="4.96474">
        <ele>175.3</ele>
        <time>2022-09-24T09:43:04Z</time>
      </trkpt>
      <trkpt lat="45.7979" lon="4.96478">
        <ele>175.3</ele>
        <time>2022-09-24T09:43:05Z</time>
      </trkpt>
      <trkpt lat="45.79788" lon="4.9648">
        <ele>175.3</ele>
        <time>2022-09-24T09:43:06Z</time>
      </trkpt>
      <trkpt lat="45.79783" lon="4.9648">
        <ele>175.4</ele>
        <time>2022-09-24T09:43:07Z</time>
      </trkpt>
      <trkpt lat="45.79778" lon="4.96482">
        <ele>175.4</ele>
        <time>2022-09-24T09:43:08Z</time>
      </trkpt>
      <trkpt lat="45.79773" lon="4.96486">
        <ele>175.4</ele>
        <time>2022-09-24T09:43:09Z</time>
      </trkpt>
      <trkpt lat="45.79771" lon="4.96492">
        <ele>175.5</ele>
        <time>2022-09-24T09:43:10Z</time>
      </trkpt>
      <trkpt lat="45.79768" lon="4.96498">
        <ele>175.5</ele>
        <time>2022-09-24T09:43:11Z</time>
      </trkpt>
      <trkpt lat="45.79765" lon="4.96505">
        <ele>175.5</ele>
        <time>2022-09-24T09:43:12Z</time>
      </trkpt>
      <trkpt lat="45.79764" lon="4.96512">
        <ele>175.5</ele>
        <time>2022-09-24T09:43:13Z</time>
      </trkpt>
      <trkpt lat="45.79764" lon="4.96519">
        <ele>175.5</ele>
        <time>2022-09-24T09:43:14Z</time>
      </trkpt>
      <trkpt lat="45.79763" lon="4.96525">
        <ele>175.5</ele>
        <time>2022-09-24T09:43:15Z</time>
      </trkpt>
      <trkpt lat="45.79762" lon="4.96531">
        <ele>175.5</ele>
        <time>2022-09-24T09:43:16Z</time>
      </trkpt>
      <trkpt lat="45.79762" lon="4.96539">
        <ele>175.5</ele>
        <time>2022-09-24T09:43:17Z</time>
      </trkpt>
      <trkpt lat="45.79761" lon="4.96547">
        <ele>175.4</ele>
        <time>2022-09-24T09:43:18Z</time>
      </trkpt>
      <trkpt lat="45.79761" lon="4.96555">
        <ele>175.4</ele>
        <time>2022-09-24T09:43:19Z</time>
      </trkpt>
      <trkpt lat="45.79761" lon="4.96561">
        <ele>175.4</ele>
        <time>2022-09-24T09:43:20Z</time>
      </trkpt>
      <trkpt lat="45.79761" lon="4.96567">
        <ele>175.5</ele>
        <time>2022-09-24T09:43:21Z</time>
      </trkpt>
      <trkpt lat="45.79759" lon="4.96574">
        <ele>175.5</ele>
        <time>2022-09-24T09:43:22Z</time>
      </trkpt>
      <trkpt lat="45.79759" lon="4.96583">
        <ele>175.5</ele>
        <time>2022-09-24T09:43:23Z</time>
      </trkpt>
      <trkpt lat="45.79758" lon="4.96589">
        <ele>175.5</ele>
        <time>2022-09-24T09:43:24Z</time>
      </trkpt>
      <trkpt lat="45.79758" lon="4.96595">
        <ele>175.5</ele>
        <time>2022-09-24T09:43:25Z</time>
      </trkpt>
      <trkpt lat="45.79756" lon="4.96603">
        <ele>175.5</ele>
        <time>2022-09-24T09:43:26Z</time>
      </trkpt>
      <trkpt lat="45.79755" lon="4.96611">
        <ele>175.5</ele>
        <time>2022-09-24T09:43:27Z</time>
      </trkpt>
      <trkpt lat="45.79754" lon="4.9662">
        <ele>175.5</ele>
        <time>2022-09-24T09:43:28Z</time>
      </trkpt>
      <trkpt lat="45.79753" lon="4.96627">
        <ele>175.5</ele>
        <time>2022-09-24T09:43:29Z</time>
      </trkpt>
      <trkpt lat="45.79752" lon="4.96633">
        <ele>175.5</ele>
        <time>2022-09-24T09:43:30Z</time>
      </trkpt>
      <trkpt lat="45.79752" lon="4.96639">
        <ele>175.5</ele>
        <time>2022-09-24T09:43:31Z</time>
      </trkpt>
      <trkpt lat="45.79752" lon="4.96647">
        <ele>175.5</ele>
        <time>2022-09-24T09:43:32Z</time>
      </trkpt>
      <trkpt lat="45.7975" lon="4.96654">
        <ele>175.5</ele>
        <time>2022-09-24T09:43:33Z</time>
      </trkpt>
      <trkpt lat="45.79749" lon="4.96661">
        <ele>175.5</ele>
        <time>2022-09-24T09:43:34Z</time>
      </trkpt>
      <trkpt lat="45.79748" lon="4.9667">
        <ele>175.5</ele>
        <time>2022-09-24T09:43:35Z</time>
      </trkpt>
      <trkpt lat="45.79746" lon="4.96678">
        <ele>175.5</ele>
        <time>2022-09-24T09:43:36Z</time>
      </trkpt>
      <trkpt lat="45.79745" lon="4.96686">
        <ele>175.5</ele>
        <time>2022-09-24T09:43:37Z</time>
      </trkpt>
      <trkpt lat="45.79744" lon="4.96691">
        <ele>175.6</ele>
        <time>2022-09-24T09:43:38Z</time>
      </trkpt>
      <trkpt lat="45.79744" lon="4.96698">
        <ele>175.6</ele>
        <time>2022-09-24T09:43:39Z</time>
      </trkpt>
      <trkpt lat="45.79743" lon="4.96705">
        <ele>175.6</ele>
        <time>2022-09-24T09:43:40Z</time>
      </trkpt>
      <trkpt lat="45.79742" lon="4.96711">
        <ele>175.6</ele>
        <time>2022-09-24T09:43:41Z</time>
      </trkpt>
      <trkpt lat="45.79742" lon="4.96717">
        <ele>175.7</ele>
        <time>2022-09-24T09:43:42Z</time>
      </trkpt>
      <trkpt lat="45.79741" lon="4.96723">
        <ele>175.7</ele>
        <time>2022-09-24T09:43:43Z</time>
      </trkpt>
      <trkpt lat="45.79741" lon="4.9673">
        <ele>175.6</ele>
        <time>2022-09-24T09:43:44Z</time>
      </trkpt>
      <trkpt lat="45.79741" lon="4.96739">
        <ele>175.6</ele>
        <time>2022-09-24T09:43:45Z</time>
      </trkpt>
      <trkpt lat="45.79739" lon="4.96746">
        <ele>175.6</ele>
        <time>2022-09-24T09:43:46Z</time>
      </trkpt>
      <trkpt lat="45.79739" lon="4.96756">
        <ele>175.6</ele>
        <time>2022-09-24T09:43:47Z</time>
      </trkpt>
      <trkpt lat="45.79739" lon="4.96765">
        <ele>175.6</ele>
        <time>2022-09-24T09:43:48Z</time>
      </trkpt>
      <trkpt lat="45.7974" lon="4.96772">
        <ele>175.6</ele>
        <time>2022-09-24T09:43:49Z</time>
      </trkpt>
      <trkpt lat="45.7974" lon="4.96779">
        <ele>175.5</ele>
        <time>2022-09-24T09:43:50Z</time>
      </trkpt>
      <trkpt lat="45.7974" lon="4.96787">
        <ele>175.5</ele>
        <time>2022-09-24T09:43:51Z</time>
      </trkpt>
      <trkpt lat="45.79739" lon="4.96795">
        <ele>175.5</ele>
        <time>2022-09-24T09:43:52Z</time>
      </trkpt>
      <trkpt lat="45.7974" lon="4.96803">
        <ele>175.4</ele>
        <time>2022-09-24T09:43:53Z</time>
      </trkpt>
      <trkpt lat="45.7974" lon="4.96811">
        <ele>175.4</ele>
        <time>2022-09-24T09:43:54Z</time>
      </trkpt>
      <trkpt lat="45.7974" lon="4.9682">
        <ele>175.4</ele>
        <time>2022-09-24T09:43:55Z</time>
      </trkpt>
      <trkpt lat="45.79741" lon="4.96827">
        <ele>175.4</ele>
        <time>2022-09-24T09:43:56Z</time>
      </trkpt>
      <trkpt lat="45.79742" lon="4.96836">
        <ele>175.3</ele>
        <time>2022-09-24T09:43:57Z</time>
      </trkpt>
      <trkpt lat="45.79743" lon="4.96844">
        <ele>175.3</ele>
        <time>2022-09-24T09:43:58Z</time>
      </trkpt>
      <trkpt lat="45.79743" lon="4.96852">
        <ele>175.3</ele>
        <time>2022-09-24T09:43:59Z</time>
      </trkpt>
      <trkpt lat="45.79745" lon="4.96859">
        <ele>175.3</ele>
        <time>2022-09-24T09:44:00Z</time>
      </trkpt>
      <trkpt lat="45.79747" lon="4.96865">
        <ele>175.3</ele>
        <time>2022-09-24T09:44:01Z</time>
      </trkpt>
      <trkpt lat="45.79751" lon="4.96869">
        <ele>175.3</ele>
        <time>2022-09-24T09:44:02Z</time>
      </trkpt>
      <trkpt lat="45.79756" lon="4.96873">
        <ele>175.3</ele>
        <time>2022-09-24T09:44:03Z</time>
      </trkpt>
      <trkpt lat="45.79762" lon="4.96877">
        <ele>175.3</ele>
        <time>2022-09-24T09:44:04Z</time>
      </trkpt>
      <trkpt lat="45.79768" lon="4.9688">
        <ele>175.3</ele>
        <time>2022-09-24T09:44:05Z</time>
      </trkpt>
      <trkpt lat="45.79774" lon="4.96883">
        <ele>175.3</ele>
        <time>2022-09-24T09:44:06Z</time>
      </trkpt>
      <trkpt lat="45.79779" lon="4.96886">
        <ele>175.3</ele>
        <time>2022-09-24T09:44:07Z</time>
      </trkpt>
      <trkpt lat="45.79783" lon="4.9689">
        <ele>175.3</ele>
        <time>2022-09-24T09:44:08Z</time>
      </trkpt>
      <trkpt lat="45.79786" lon="4.96894">
        <ele>175.4</ele>
        <time>2022-09-24T09:44:09Z</time>
      </trkpt>
      <trkpt lat="45.79788" lon="4.969">
        <ele>175.4</ele>
        <time>2022-09-24T09:44:10Z</time>
      </trkpt>
      <trkpt lat="45.79788" lon="4.96907">
        <ele>175.4</ele>
        <time>2022-09-24T09:44:11Z</time>
      </trkpt>
      <trkpt lat="45.79788" lon="4.96913">
        <ele>175.5</ele>
        <time>2022-09-24T09:44:12Z</time>
      </trkpt>
      <trkpt lat="45.79787" lon="4.96919">
        <ele>175.5</ele>
        <time>2022-09-24T09:44:13Z</time>
      </trkpt>
      <trkpt lat="45.79786" lon="4.96924">
        <ele>175.5</ele>
        <time>2022-09-24T09:44:14Z</time>
      </trkpt>
      <trkpt lat="45.79787" lon="4.9693">
        <ele>175.6</ele>
        <time>2022-09-24T09:44:15Z</time>
      </trkpt>
      <trkpt lat="45.79787" lon="4.96937">
        <ele>175.6</ele>
        <time>2022-09-24T09:44:16Z</time>
      </trkpt>
      <trkpt lat="45.79786" lon="4.96945">
        <ele>175.6</ele>
        <time>2022-09-24T09:44:17Z</time>
      </trkpt>
      <trkpt lat="45.79785" lon="4.96952">
        <ele>175.7</ele>
        <time>2022-09-24T09:44:18Z</time>
      </trkpt>
      <trkpt lat="45.79785" lon="4.96959">
        <ele>175.7</ele>
        <time>2022-09-24T09:44:19Z</time>
      </trkpt>
      <trkpt lat="45.79784" lon="4.96966">
        <ele>175.8</ele>
        <time>2022-09-24T09:44:20Z</time>
      </trkpt>
      <trkpt lat="45.79783" lon="4.96973">
        <ele>175.8</ele>
        <time>2022-09-24T09:44:21Z</time>
      </trkpt>
      <trkpt lat="45.79782" lon="4.96978">
        <ele>175.8</ele>
        <time>2022-09-24T09:44:22Z</time>
      </trkpt>
      <trkpt lat="45.79782" lon="4.96983">
        <ele>175.8</ele>
        <time>2022-09-24T09:44:23Z</time>
      </trkpt>
      <trkpt lat="45.79781" lon="4.9699">
        <ele>175.8</ele>
        <time>2022-09-24T09:44:24Z</time>
      </trkpt>
      <trkpt lat="45.7978" lon="4.96995">
        <ele>175.8</ele>
        <time>2022-09-24T09:44:25Z</time>
      </trkpt>
      <trkpt lat="45.79779" lon="4.97001">
        <ele>175.8</ele>
        <time>2022-09-24T09:44:26Z</time>
      </trkpt>
      <trkpt lat="45.79779" lon="4.97006">
        <ele>175.8</ele>
        <time>2022-09-24T09:44:27Z</time>
      </trkpt>
      <trkpt lat="45.79778" lon="4.97011">
        <ele>175.8</ele>
        <time>2022-09-24T09:44:28Z</time>
      </trkpt>
      <trkpt lat="45.79774" lon="4.97017">
        <ele>175.8</ele>
        <time>2022-09-24T09:44:29Z</time>
      </trkpt>
      <trkpt lat="45.79771" lon="4.9702">
        <ele>175.8</ele>
        <time>2022-09-24T09:44:30Z</time>
      </trkpt>
      <trkpt lat="45.79768" lon="4.97022">
        <ele>175.8</ele>
        <time>2022-09-24T09:44:31Z</time>
      </trkpt>
      <trkpt lat="45.79762" lon="4.97022">
        <ele>175.8</ele>
        <time>2022-09-24T09:44:32Z</time>
      </trkpt>
      <trkpt lat="45.79759" lon="4.97022">
        <ele>175.9</ele>
        <time>2022-09-24T09:44:33Z</time>
      </trkpt>
      <trkpt lat="45.79754" lon="4.97021">
        <ele>175.9</ele>
        <time>2022-09-24T09:44:34Z</time>
      </trkpt>
      <trkpt lat="45.79749" lon="4.9702">
        <ele>176</ele>
        <time>2022-09-24T09:44:35Z</time>
      </trkpt>
      <trkpt lat="45.79746" lon="4.97021">
        <ele>176</ele>
        <time>2022-09-24T09:44:36Z</time>
      </trkpt>
      <trkpt lat="45.79741" lon="4.9702">
        <ele>176</ele>
        <time>2022-09-24T09:44:37Z</time>
      </trkpt>
      <trkpt lat="45.79738" lon="4.97019">
        <ele>176.1</ele>
        <time>2022-09-24T09:44:38Z</time>
      </trkpt>
      <trkpt lat="45.79733" lon="4.97018">
        <ele>176.2</ele>
        <time>2022-09-24T09:44:40Z</time>
      </trkpt>
      <trkpt lat="45.79729" lon="4.97017">
        <ele>176.2</ele>
        <time>2022-09-24T09:44:41Z</time>
      </trkpt>
      <trkpt lat="45.79725" lon="4.97016">
        <ele>176.3</ele>
        <time>2022-09-24T09:44:42Z</time>
      </trkpt>
      <trkpt lat="45.7972" lon="4.97017">
        <ele>176.4</ele>
        <time>2022-09-24T09:44:43Z</time>
      </trkpt>
      <trkpt lat="45.79716" lon="4.97017">
        <ele>176.6</ele>
        <time>2022-09-24T09:44:44Z</time>
      </trkpt>
      <trkpt lat="45.79712" lon="4.9702">
        <ele>176.8</ele>
        <time>2022-09-24T09:44:45Z</time>
      </trkpt>
      <trkpt lat="45.7971" lon="4.97023">
        <ele>176.9</ele>
        <time>2022-09-24T09:44:46Z</time>
      </trkpt>
      <trkpt lat="45.79708" lon="4.97027">
        <ele>177</ele>
        <time>2022-09-24T09:44:47Z</time>
      </trkpt>
      <trkpt lat="45.79707" lon="4.97028">
        <ele>177.1</ele>
        <time>2022-09-24T09:44:48Z</time>
      </trkpt>
      <trkpt lat="45.79705" lon="4.97033">
        <ele>177.3</ele>
        <time>2022-09-24T09:44:49Z</time>
      </trkpt>
      <trkpt lat="45.79703" lon="4.97038">
        <ele>177.5</ele>
        <time>2022-09-24T09:44:50Z</time>
      </trkpt>
      <trkpt lat="45.79701" lon="4.97043">
        <ele>177.7</ele>
        <time>2022-09-24T09:44:51Z</time>
      </trkpt>
      <trkpt lat="45.797" lon="4.97049">
        <ele>177.9</ele>
        <time>2022-09-24T09:44:52Z</time>
      </trkpt>
      <trkpt lat="45.79695" lon="4.97058">
        <ele>178.2</ele>
        <time>2022-09-24T09:44:53Z</time>
      </trkpt>
      <trkpt lat="45.79694" lon="4.97062">
        <ele>178.3</ele>
        <time>2022-09-24T09:44:54Z</time>
      </trkpt>
      <trkpt lat="45.79691" lon="4.97068">
        <ele>178.5</ele>
        <time>2022-09-24T09:44:56Z</time>
      </trkpt>
      <trkpt lat="45.7969" lon="4.9707">
        <ele>178.6</ele>
        <time>2022-09-24T09:44:57Z</time>
      </trkpt>
      <trkpt lat="45.79689" lon="4.97072">
        <ele>178.6</ele>
        <time>2022-09-24T09:44:58Z</time>
      </trkpt>
      <trkpt lat="45.79687" lon="4.97077">
        <ele>178.7</ele>
        <time>2022-09-24T09:44:59Z</time>
      </trkpt>
      <trkpt lat="45.79687" lon="4.97082">
        <ele>178.8</ele>
        <time>2022-09-24T09:45:00Z</time>
      </trkpt>
      <trkpt lat="45.79686" lon="4.97087">
        <ele>178.9</ele>
        <time>2022-09-24T09:45:01Z</time>
      </trkpt>
      <trkpt lat="45.79685" lon="4.97092">
        <ele>178.9</ele>
        <time>2022-09-24T09:45:02Z</time>
      </trkpt>
      <trkpt lat="45.79684" lon="4.97098">
        <ele>179</ele>
        <time>2022-09-24T09:45:03Z</time>
      </trkpt>
      <trkpt lat="45.79685" lon="4.97103">
        <ele>179.1</ele>
        <time>2022-09-24T09:45:04Z</time>
      </trkpt>
      <trkpt lat="45.79684" lon="4.97108">
        <ele>179.1</ele>
        <time>2022-09-24T09:45:05Z</time>
      </trkpt>
      <trkpt lat="45.79684" lon="4.97115">
        <ele>179.2</ele>
        <time>2022-09-24T09:45:06Z</time>
      </trkpt>
      <trkpt lat="45.79685" lon="4.97118">
        <ele>179.2</ele>
        <time>2022-09-24T09:45:07Z</time>
      </trkpt>
      <trkpt lat="45.79686" lon="4.9712">
        <ele>179.2</ele>
        <time>2022-09-24T09:45:08Z</time>
      </trkpt>
      <trkpt lat="45.79685" lon="4.9713">
        <ele>179.4</ele>
        <time>2022-09-24T09:45:09Z</time>
      </trkpt>
      <trkpt lat="45.79685" lon="4.97134">
        <ele>179.4</ele>
        <time>2022-09-24T09:45:10Z</time>
      </trkpt>
      <trkpt lat="45.79686" lon="4.97138">
        <ele>179.5</ele>
        <time>2022-09-24T09:45:11Z</time>
      </trkpt>
      <trkpt lat="45.79687" lon="4.9714">
        <ele>179.6</ele>
        <time>2022-09-24T09:45:12Z</time>
      </trkpt>
      <trkpt lat="45.79688" lon="4.97145">
        <ele>179.7</ele>
        <time>2022-09-24T09:45:13Z</time>
      </trkpt>
      <trkpt lat="45.79689" lon="4.9715">
        <ele>179.8</ele>
        <time>2022-09-24T09:45:14Z</time>
      </trkpt>
      <trkpt lat="45.79691" lon="4.97152">
        <ele>179.9</ele>
        <time>2022-09-24T09:45:15Z</time>
      </trkpt>
      <trkpt lat="45.79691" lon="4.97154">
        <ele>179.9</ele>
        <time>2022-09-24T09:45:16Z</time>
      </trkpt>
      <trkpt lat="45.79692" lon="4.97157">
        <ele>180</ele>
        <time>2022-09-24T09:45:17Z</time>
      </trkpt>
      <trkpt lat="45.79694" lon="4.97162">
        <ele>180.1</ele>
        <time>2022-09-24T09:45:18Z</time>
      </trkpt>
      <trkpt lat="45.79695" lon="4.97166">
        <ele>180.2</ele>
        <time>2022-09-24T09:45:19Z</time>
      </trkpt>
      <trkpt lat="45.79697" lon="4.97172">
        <ele>180.3</ele>
        <time>2022-09-24T09:45:20Z</time>
      </trkpt>
      <trkpt lat="45.79698" lon="4.97178">
        <ele>180.5</ele>
        <time>2022-09-24T09:45:21Z</time>
      </trkpt>
      <trkpt lat="45.797" lon="4.97185">
        <ele>180.6</ele>
        <time>2022-09-24T09:45:22Z</time>
      </trkpt>
      <trkpt lat="45.79702" lon="4.97191">
        <ele>180.7</ele>
        <time>2022-09-24T09:45:23Z</time>
      </trkpt>
      <trkpt lat="45.79702" lon="4.97198">
        <ele>180.7</ele>
        <time>2022-09-24T09:45:24Z</time>
      </trkpt>
      <trkpt lat="45.79705" lon="4.97208">
        <ele>180.9</ele>
        <time>2022-09-24T09:45:25Z</time>
      </trkpt>
      <trkpt lat="45.79705" lon="4.97213">
        <ele>180.9</ele>
        <time>2022-09-24T09:45:26Z</time>
      </trkpt>
      <trkpt lat="45.79707" lon="4.9722">
        <ele>181</ele>
        <time>2022-09-24T09:45:27Z</time>
      </trkpt>
      <trkpt lat="45.79707" lon="4.97227">
        <ele>181</ele>
        <time>2022-09-24T09:45:28Z</time>
      </trkpt>
      <trkpt lat="45.79707" lon="4.97233">
        <ele>181.1</ele>
        <time>2022-09-24T09:45:29Z</time>
      </trkpt>
      <trkpt lat="45.79706" lon="4.97242">
        <ele>181.2</ele>
        <time>2022-09-24T09:45:30Z</time>
      </trkpt>
      <trkpt lat="45.79705" lon="4.9725">
        <ele>181.2</ele>
        <time>2022-09-24T09:45:31Z</time>
      </trkpt>
      <trkpt lat="45.79706" lon="4.97257">
        <ele>181.3</ele>
        <time>2022-09-24T09:45:32Z</time>
      </trkpt>
      <trkpt lat="45.79706" lon="4.97263">
        <ele>181.4</ele>
        <time>2022-09-24T09:45:33Z</time>
      </trkpt>
      <trkpt lat="45.79707" lon="4.9727">
        <ele>181.5</ele>
        <time>2022-09-24T09:45:34Z</time>
      </trkpt>
      <trkpt lat="45.79708" lon="4.97277">
        <ele>181.5</ele>
        <time>2022-09-24T09:45:35Z</time>
      </trkpt>
      <trkpt lat="45.79708" lon="4.97282">
        <ele>181.6</ele>
        <time>2022-09-24T09:45:36Z</time>
      </trkpt>
      <trkpt lat="45.79708" lon="4.97288">
        <ele>181.6</ele>
        <time>2022-09-24T09:45:37Z</time>
      </trkpt>
      <trkpt lat="45.79709" lon="4.97294">
        <ele>181.7</ele>
        <time>2022-09-24T09:45:38Z</time>
      </trkpt>
      <trkpt lat="45.7971" lon="4.97302">
        <ele>181.7</ele>
        <time>2022-09-24T09:45:39Z</time>
      </trkpt>
      <trkpt lat="45.7971" lon="4.97308">
        <ele>181.8</ele>
        <time>2022-09-24T09:45:40Z</time>
      </trkpt>
      <trkpt lat="45.79711" lon="4.97315">
        <ele>181.8</ele>
        <time>2022-09-24T09:45:41Z</time>
      </trkpt>
      <trkpt lat="45.79712" lon="4.97322">
        <ele>181.9</ele>
        <time>2022-09-24T09:45:42Z</time>
      </trkpt>
      <trkpt lat="45.79712" lon="4.97327">
        <ele>181.9</ele>
        <time>2022-09-24T09:45:43Z</time>
      </trkpt>
      <trkpt lat="45.79713" lon="4.97332">
        <ele>182</ele>
        <time>2022-09-24T09:45:44Z</time>
      </trkpt>
      <trkpt lat="45.79713" lon="4.9734">
        <ele>182</ele>
        <time>2022-09-24T09:45:45Z</time>
      </trkpt>
      <trkpt lat="45.79712" lon="4.97347">
        <ele>182.1</ele>
        <time>2022-09-24T09:45:46Z</time>
      </trkpt>
      <trkpt lat="45.79712" lon="4.97352">
        <ele>182.2</ele>
        <time>2022-09-24T09:45:47Z</time>
      </trkpt>
      <trkpt lat="45.79712" lon="4.97356">
        <ele>182.2</ele>
        <time>2022-09-24T09:45:48Z</time>
      </trkpt>
      <trkpt lat="45.79713" lon="4.97361">
        <ele>182.2</ele>
        <time>2022-09-24T09:45:49Z</time>
      </trkpt>
      <trkpt lat="45.79713" lon="4.97367">
        <ele>182.3</ele>
        <time>2022-09-24T09:45:50Z</time>
      </trkpt>
      <trkpt lat="45.79714" lon="4.97369">
        <ele>182.3</ele>
        <time>2022-09-24T09:45:51Z</time>
      </trkpt>
      <trkpt lat="45.79713" lon="4.97375">
        <ele>182.3</ele>
        <time>2022-09-24T09:45:52Z</time>
      </trkpt>
      <trkpt lat="45.79713" lon="4.97381">
        <ele>182.3</ele>
        <time>2022-09-24T09:45:53Z</time>
      </trkpt>
      <trkpt lat="45.79713" lon="4.97388">
        <ele>182.3</ele>
        <time>2022-09-24T09:45:54Z</time>
      </trkpt>
      <trkpt lat="45.79714" lon="4.97392">
        <ele>182.3</ele>
        <time>2022-09-24T09:45:55Z</time>
      </trkpt>
      <trkpt lat="45.79715" lon="4.97399">
        <ele>182.3</ele>
        <time>2022-09-24T09:45:56Z</time>
      </trkpt>
      <trkpt lat="45.79715" lon="4.97404">
        <ele>182.3</ele>
        <time>2022-09-24T09:45:57Z</time>
      </trkpt>
      <trkpt lat="45.79716" lon="4.97409">
        <ele>182.3</ele>
        <time>2022-09-24T09:45:58Z</time>
      </trkpt>
      <trkpt lat="45.79715" lon="4.97418">
        <ele>182.3</ele>
        <time>2022-09-24T09:45:59Z</time>
      </trkpt>
      <trkpt lat="45.79717" lon="4.97424">
        <ele>182.3</ele>
        <time>2022-09-24T09:46:00Z</time>
      </trkpt>
      <trkpt lat="45.79716" lon="4.9743">
        <ele>182.3</ele>
        <time>2022-09-24T09:46:01Z</time>
      </trkpt>
      <trkpt lat="45.79717" lon="4.97435">
        <ele>182.3</ele>
        <time>2022-09-24T09:46:02Z</time>
      </trkpt>
      <trkpt lat="45.79717" lon="4.97443">
        <ele>182.3</ele>
        <time>2022-09-24T09:46:03Z</time>
      </trkpt>
      <trkpt lat="45.79718" lon="4.97449">
        <ele>182.3</ele>
        <time>2022-09-24T09:46:04Z</time>
      </trkpt>
      <trkpt lat="45.79718" lon="4.97457">
        <ele>182.3</ele>
        <time>2022-09-24T09:46:05Z</time>
      </trkpt>
      <trkpt lat="45.79718" lon="4.97463">
        <ele>182.3</ele>
        <time>2022-09-24T09:46:06Z</time>
      </trkpt>
      <trkpt lat="45.79718" lon="4.9747">
        <ele>182.3</ele>
        <time>2022-09-24T09:46:07Z</time>
      </trkpt>
      <trkpt lat="45.79718" lon="4.97476">
        <ele>182.3</ele>
        <time>2022-09-24T09:46:08Z</time>
      </trkpt>
      <trkpt lat="45.79718" lon="4.97482">
        <ele>182.3</ele>
        <time>2022-09-24T09:46:09Z</time>
      </trkpt>
      <trkpt lat="45.79718" lon="4.97488">
        <ele>182.3</ele>
        <time>2022-09-24T09:46:10Z</time>
      </trkpt>
      <trkpt lat="45.79719" lon="4.97491">
        <ele>182.3</ele>
        <time>2022-09-24T09:46:11Z</time>
      </trkpt>
      <trkpt lat="45.79719" lon="4.97498">
        <ele>182.3</ele>
        <time>2022-09-24T09:46:12Z</time>
      </trkpt>
      <trkpt lat="45.7972" lon="4.97502">
        <ele>182.3</ele>
        <time>2022-09-24T09:46:13Z</time>
      </trkpt>
      <trkpt lat="45.79719" lon="4.97509">
        <ele>182.3</ele>
        <time>2022-09-24T09:46:14Z</time>
      </trkpt>
      <trkpt lat="45.7972" lon="4.97514">
        <ele>182.3</ele>
        <time>2022-09-24T09:46:15Z</time>
      </trkpt>
      <trkpt lat="45.79719" lon="4.97522">
        <ele>182.2</ele>
        <time>2022-09-24T09:46:16Z</time>
      </trkpt>
      <trkpt lat="45.79719" lon="4.97529">
        <ele>182.1</ele>
        <time>2022-09-24T09:46:17Z</time>
      </trkpt>
      <trkpt lat="45.7972" lon="4.97536">
        <ele>182.1</ele>
        <time>2022-09-24T09:46:18Z</time>
      </trkpt>
      <trkpt lat="45.7972" lon="4.97543">
        <ele>182</ele>
        <time>2022-09-24T09:46:19Z</time>
      </trkpt>
      <trkpt lat="45.7972" lon="4.97547">
        <ele>182</ele>
        <time>2022-09-24T09:46:20Z</time>
      </trkpt>
      <trkpt lat="45.79721" lon="4.97554">
        <ele>181.9</ele>
        <time>2022-09-24T09:46:21Z</time>
      </trkpt>
      <trkpt lat="45.7972" lon="4.97562">
        <ele>181.7</ele>
        <time>2022-09-24T09:46:22Z</time>
      </trkpt>
      <trkpt lat="45.79719" lon="4.97569">
        <ele>181.6</ele>
        <time>2022-09-24T09:46:23Z</time>
      </trkpt>
      <trkpt lat="45.79718" lon="4.97577">
        <ele>181.3</ele>
        <time>2022-09-24T09:46:24Z</time>
      </trkpt>
      <trkpt lat="45.79717" lon="4.97585">
        <ele>181</ele>
        <time>2022-09-24T09:46:25Z</time>
      </trkpt>
      <trkpt lat="45.79716" lon="4.97591">
        <ele>180.8</ele>
        <time>2022-09-24T09:46:26Z</time>
      </trkpt>
      <trkpt lat="45.79715" lon="4.97595">
        <ele>180.3</ele>
        <time>2022-09-24T09:46:27Z</time>
      </trkpt>
      <trkpt lat="45.79711" lon="4.976">
        <ele>180.1</ele>
        <time>2022-09-24T09:46:28Z</time>
      </trkpt>
      <trkpt lat="45.79707" lon="4.97604">
        <ele>179.7</ele>
        <time>2022-09-24T09:46:29Z</time>
      </trkpt>
      <trkpt lat="45.79703" lon="4.97606">
        <ele>179.5</ele>
        <time>2022-09-24T09:46:30Z</time>
      </trkpt>
      <trkpt lat="45.797" lon="4.97607">
        <ele>179.3</ele>
        <time>2022-09-24T09:46:31Z</time>
      </trkpt>
      <trkpt lat="45.79694" lon="4.9761">
        <ele>179</ele>
        <time>2022-09-24T09:46:32Z</time>
      </trkpt>
      <trkpt lat="45.7969" lon="4.9761">
        <ele>178.8</ele>
        <time>2022-09-24T09:46:33Z</time>
      </trkpt>
      <trkpt lat="45.79686" lon="4.9762">
        <ele>178.4</ele>
        <time>2022-09-24T09:46:34Z</time>
      </trkpt>
      <trkpt lat="45.79681" lon="4.97621">
        <ele>178.1</ele>
        <time>2022-09-24T09:46:35Z</time>
      </trkpt>
      <trkpt lat="45.79675" lon="4.97625">
        <ele>177.8</ele>
        <time>2022-09-24T09:46:36Z</time>
      </trkpt>
      <trkpt lat="45.79669" lon="4.97629">
        <ele>177.6</ele>
        <time>2022-09-24T09:46:37Z</time>
      </trkpt>
      <trkpt lat="45.79665" lon="4.97633">
        <ele>177.5</ele>
        <time>2022-09-24T09:46:38Z</time>
      </trkpt>
      <trkpt lat="45.79661" lon="4.97639">
        <ele>177.3</ele>
        <time>2022-09-24T09:46:39Z</time>
      </trkpt>
      <trkpt lat="45.79657" lon="4.97645">
        <ele>177.2</ele>
        <time>2022-09-24T09:46:40Z</time>
      </trkpt>
      <trkpt lat="45.79653" lon="4.97653">
        <ele>177</ele>
        <time>2022-09-24T09:46:41Z</time>
      </trkpt>
      <trkpt lat="45.7965" lon="4.97661">
        <ele>176.9</ele>
        <time>2022-09-24T09:46:42Z</time>
      </trkpt>
      <trkpt lat="45.79648" lon="4.97668">
        <ele>176.9</ele>
        <time>2022-09-24T09:46:43Z</time>
      </trkpt>
      <trkpt lat="45.79646" lon="4.97676">
        <ele>176.8</ele>
        <time>2022-09-24T09:46:44Z</time>
      </trkpt>
      <trkpt lat="45.79642" lon="4.97684">
        <ele>176.8</ele>
        <time>2022-09-24T09:46:46Z</time>
      </trkpt>
      <trkpt lat="45.79641" lon="4.97692">
        <ele>176.7</ele>
        <time>2022-09-24T09:46:47Z</time>
      </trkpt>
      <trkpt lat="45.79637" lon="4.97698">
        <ele>176.7</ele>
        <time>2022-09-24T09:46:48Z</time>
      </trkpt>
      <trkpt lat="45.79633" lon="4.97705">
        <ele>176.7</ele>
        <time>2022-09-24T09:46:49Z</time>
      </trkpt>
      <trkpt lat="45.79629" lon="4.97712">
        <ele>176.6</ele>
        <time>2022-09-24T09:46:50Z</time>
      </trkpt>
      <trkpt lat="45.79626" lon="4.97717">
        <ele>176.6</ele>
        <time>2022-09-24T09:46:51Z</time>
      </trkpt>
      <trkpt lat="45.79622" lon="4.97721">
        <ele>176.6</ele>
        <time>2022-09-24T09:46:52Z</time>
      </trkpt>
      <trkpt lat="45.79618" lon="4.97726">
        <ele>176.6</ele>
        <time>2022-09-24T09:46:53Z</time>
      </trkpt>
      <trkpt lat="45.79613" lon="4.97732">
        <ele>176.6</ele>
        <time>2022-09-24T09:46:54Z</time>
      </trkpt>
      <trkpt lat="45.7961" lon="4.97736">
        <ele>176.6</ele>
        <time>2022-09-24T09:46:55Z</time>
      </trkpt>
      <trkpt lat="45.79607" lon="4.97742">
        <ele>176.6</ele>
        <time>2022-09-24T09:46:56Z</time>
      </trkpt>
      <trkpt lat="45.79604" lon="4.97747">
        <ele>176.6</ele>
        <time>2022-09-24T09:46:57Z</time>
      </trkpt>
      <trkpt lat="45.796" lon="4.97753">
        <ele>176.6</ele>
        <time>2022-09-24T09:46:58Z</time>
      </trkpt>
      <trkpt lat="45.79599" lon="4.97756">
        <ele>176.6</ele>
        <time>2022-09-24T09:46:59Z</time>
      </trkpt>
      <trkpt lat="45.79596" lon="4.97764">
        <ele>176.6</ele>
        <time>2022-09-24T09:47:00Z</time>
      </trkpt>
      <trkpt lat="45.79587" lon="4.97777">
        <ele>176.6</ele>
        <time>2022-09-24T09:47:01Z</time>
      </trkpt>
      <trkpt lat="45.79582" lon="4.97781">
        <ele>176.6</ele>
        <time>2022-09-24T09:47:02Z</time>
      </trkpt>
      <trkpt lat="45.79577" lon="4.97783">
        <ele>176.5</ele>
        <time>2022-09-24T09:47:04Z</time>
      </trkpt>
      <trkpt lat="45.79571" lon="4.97785">
        <ele>176.5</ele>
        <time>2022-09-24T09:47:05Z</time>
      </trkpt>
      <trkpt lat="45.79567" lon="4.97787">
        <ele>176.4</ele>
        <time>2022-09-24T09:47:06Z</time>
      </trkpt>
      <trkpt lat="45.79564" lon="4.9779">
        <ele>176.4</ele>
        <time>2022-09-24T09:47:07Z</time>
      </trkpt>
      <trkpt lat="45.79562" lon="4.97797">
        <ele>176.3</ele>
        <time>2022-09-24T09:47:08Z</time>
      </trkpt>
      <trkpt lat="45.7956" lon="4.97805">
        <ele>176.2</ele>
        <time>2022-09-24T09:47:09Z</time>
      </trkpt>
      <trkpt lat="45.79558" lon="4.97814">
        <ele>176.1</ele>
        <time>2022-09-24T09:47:10Z</time>
      </trkpt>
      <trkpt lat="45.79556" lon="4.97823">
        <ele>176</ele>
        <time>2022-09-24T09:47:11Z</time>
      </trkpt>
      <trkpt lat="45.79553" lon="4.9783">
        <ele>175.9</ele>
        <time>2022-09-24T09:47:12Z</time>
      </trkpt>
      <trkpt lat="45.7955" lon="4.97838">
        <ele>175.9</ele>
        <time>2022-09-24T09:47:13Z</time>
      </trkpt>
      <trkpt lat="45.79539" lon="4.97845">
        <ele>175.9</ele>
        <time>2022-09-24T09:47:14Z</time>
      </trkpt>
      <trkpt lat="45.79533" lon="4.97848">
        <ele>175.9</ele>
        <time>2022-09-24T09:47:15Z</time>
      </trkpt>
      <trkpt lat="45.79528" lon="4.97851">
        <ele>175.9</ele>
        <time>2022-09-24T09:47:16Z</time>
      </trkpt>
      <trkpt lat="45.79524" lon="4.97851">
        <ele>175.9</ele>
        <time>2022-09-24T09:47:17Z</time>
      </trkpt>
      <trkpt lat="45.79519" lon="4.97854">
        <ele>175.9</ele>
        <time>2022-09-24T09:47:18Z</time>
      </trkpt>
      <trkpt lat="45.79515" lon="4.97856">
        <ele>175.9</ele>
        <time>2022-09-24T09:47:19Z</time>
      </trkpt>
      <trkpt lat="45.7951" lon="4.9786">
        <ele>175.9</ele>
        <time>2022-09-24T09:47:20Z</time>
      </trkpt>
      <trkpt lat="45.79505" lon="4.97862">
        <ele>175.9</ele>
        <time>2022-09-24T09:47:21Z</time>
      </trkpt>
      <trkpt lat="45.795" lon="4.97863">
        <ele>175.9</ele>
        <time>2022-09-24T09:47:22Z</time>
      </trkpt>
      <trkpt lat="45.79495" lon="4.97863">
        <ele>175.9</ele>
        <time>2022-09-24T09:47:23Z</time>
      </trkpt>
      <trkpt lat="45.79491" lon="4.97865">
        <ele>175.9</ele>
        <time>2022-09-24T09:47:24Z</time>
      </trkpt>
      <trkpt lat="45.79486" lon="4.97868">
        <ele>175.9</ele>
        <time>2022-09-24T09:47:25Z</time>
      </trkpt>
      <trkpt lat="45.79482" lon="4.97871">
        <ele>175.9</ele>
        <time>2022-09-24T09:47:26Z</time>
      </trkpt>
      <trkpt lat="45.79477" lon="4.97872">
        <ele>176</ele>
        <time>2022-09-24T09:47:27Z</time>
      </trkpt>
      <trkpt lat="45.79472" lon="4.97876">
        <ele>176</ele>
        <time>2022-09-24T09:47:28Z</time>
      </trkpt>
      <trkpt lat="45.79468" lon="4.97879">
        <ele>176</ele>
        <time>2022-09-24T09:47:29Z</time>
      </trkpt>
      <trkpt lat="45.79465" lon="4.97879">
        <ele>176</ele>
        <time>2022-09-24T09:47:30Z</time>
      </trkpt>
      <trkpt lat="45.79462" lon="4.9788">
        <ele>176</ele>
        <time>2022-09-24T09:47:31Z</time>
      </trkpt>
      <trkpt lat="45.79457" lon="4.97883">
        <ele>176</ele>
        <time>2022-09-24T09:47:32Z</time>
      </trkpt>
      <trkpt lat="45.79455" lon="4.97885">
        <ele>176</ele>
        <time>2022-09-24T09:47:33Z</time>
      </trkpt>
      <trkpt lat="45.79451" lon="4.97887">
        <ele>176</ele>
        <time>2022-09-24T09:47:34Z</time>
      </trkpt>
      <trkpt lat="45.79449" lon="4.97888">
        <ele>176.1</ele>
        <time>2022-09-24T09:47:35Z</time>
      </trkpt>
      <trkpt lat="45.79445" lon="4.97891">
        <ele>176.1</ele>
        <time>2022-09-24T09:47:36Z</time>
      </trkpt>
      <trkpt lat="45.79439" lon="4.97896">
        <ele>176.1</ele>
        <time>2022-09-24T09:47:37Z</time>
      </trkpt>
      <trkpt lat="45.79434" lon="4.97899">
        <ele>176.1</ele>
        <time>2022-09-24T09:47:38Z</time>
      </trkpt>
      <trkpt lat="45.79431" lon="4.97902">
        <ele>176.1</ele>
        <time>2022-09-24T09:47:39Z</time>
      </trkpt>
      <trkpt lat="45.79426" lon="4.97906">
        <ele>176</ele>
        <time>2022-09-24T09:47:40Z</time>
      </trkpt>
      <trkpt lat="45.79421" lon="4.9791">
        <ele>176</ele>
        <time>2022-09-24T09:47:41Z</time>
      </trkpt>
      <trkpt lat="45.79416" lon="4.97911">
        <ele>176</ele>
        <time>2022-09-24T09:47:42Z</time>
      </trkpt>
      <trkpt lat="45.79412" lon="4.97915">
        <ele>176</ele>
        <time>2022-09-24T09:47:43Z</time>
      </trkpt>
      <trkpt lat="45.79406" lon="4.97919">
        <ele>176</ele>
        <time>2022-09-24T09:47:44Z</time>
      </trkpt>
      <trkpt lat="45.79403" lon="4.97922">
        <ele>176</ele>
        <time>2022-09-24T09:47:45Z</time>
      </trkpt>
      <trkpt lat="45.79398" lon="4.97929">
        <ele>176</ele>
        <time>2022-09-24T09:47:46Z</time>
      </trkpt>
      <trkpt lat="45.79394" lon="4.97934">
        <ele>176</ele>
        <time>2022-09-24T09:47:47Z</time>
      </trkpt>
      <trkpt lat="45.79389" lon="4.9794">
        <ele>176</ele>
        <time>2022-09-24T09:47:48Z</time>
      </trkpt>
      <trkpt lat="45.79384" lon="4.97946">
        <ele>176.1</ele>
        <time>2022-09-24T09:47:49Z</time>
      </trkpt>
      <trkpt lat="45.79381" lon="4.97952">
        <ele>176.1</ele>
        <time>2022-09-24T09:47:50Z</time>
      </trkpt>
      <trkpt lat="45.79378" lon="4.97958">
        <ele>176.1</ele>
        <time>2022-09-24T09:47:51Z</time>
      </trkpt>
      <trkpt lat="45.79375" lon="4.97965">
        <ele>176.2</ele>
        <time>2022-09-24T09:47:52Z</time>
      </trkpt>
      <trkpt lat="45.79373" lon="4.97972">
        <ele>176.2</ele>
        <time>2022-09-24T09:47:53Z</time>
      </trkpt>
      <trkpt lat="45.79372" lon="4.97979">
        <ele>176.3</ele>
        <time>2022-09-24T09:47:54Z</time>
      </trkpt>
      <trkpt lat="45.79371" lon="4.97983">
        <ele>176.3</ele>
        <time>2022-09-24T09:47:55Z</time>
      </trkpt>
      <trkpt lat="45.79371" lon="4.9799">
        <ele>176.3</ele>
        <time>2022-09-24T09:47:56Z</time>
      </trkpt>
      <trkpt lat="45.7937" lon="4.97997">
        <ele>176.3</ele>
        <time>2022-09-24T09:47:57Z</time>
      </trkpt>
      <trkpt lat="45.79369" lon="4.98004">
        <ele>176.4</ele>
        <time>2022-09-24T09:47:58Z</time>
      </trkpt>
      <trkpt lat="45.79369" lon="4.98012">
        <ele>176.4</ele>
        <time>2022-09-24T09:47:59Z</time>
      </trkpt>
      <trkpt lat="45.79368" lon="4.98021">
        <ele>176.4</ele>
        <time>2022-09-24T09:48:00Z</time>
      </trkpt>
      <trkpt lat="45.79366" lon="4.98029">
        <ele>176.4</ele>
        <time>2022-09-24T09:48:01Z</time>
      </trkpt>
      <trkpt lat="45.79365" lon="4.98036">
        <ele>176.4</ele>
        <time>2022-09-24T09:48:02Z</time>
      </trkpt>
      <trkpt lat="45.79365" lon="4.98042">
        <ele>176.5</ele>
        <time>2022-09-24T09:48:03Z</time>
      </trkpt>
      <trkpt lat="45.79364" lon="4.98048">
        <ele>176.5</ele>
        <time>2022-09-24T09:48:04Z</time>
      </trkpt>
      <trkpt lat="45.79363" lon="4.9805">
        <ele>176.5</ele>
        <time>2022-09-24T09:48:05Z</time>
      </trkpt>
      <trkpt lat="45.79364" lon="4.98057">
        <ele>176.5</ele>
        <time>2022-09-24T09:48:06Z</time>
      </trkpt>
      <trkpt lat="45.79365" lon="4.98066">
        <ele>176.5</ele>
        <time>2022-09-24T09:48:07Z</time>
      </trkpt>
      <trkpt lat="45.79367" lon="4.98073">
        <ele>176.5</ele>
        <time>2022-09-24T09:48:08Z</time>
      </trkpt>
      <trkpt lat="45.79368" lon="4.98078">
        <ele>176.5</ele>
        <time>2022-09-24T09:48:09Z</time>
      </trkpt>
      <trkpt lat="45.79371" lon="4.98083">
        <ele>176.5</ele>
        <time>2022-09-24T09:48:10Z</time>
      </trkpt>
      <trkpt lat="45.79371" lon="4.98088">
        <ele>176.5</ele>
        <time>2022-09-24T09:48:11Z</time>
      </trkpt>
      <trkpt lat="45.79373" lon="4.98093">
        <ele>176.5</ele>
        <time>2022-09-24T09:48:12Z</time>
      </trkpt>
      <trkpt lat="45.79373" lon="4.98099">
        <ele>176.5</ele>
        <time>2022-09-24T09:48:13Z</time>
      </trkpt>
      <trkpt lat="45.79373" lon="4.98105">
        <ele>176.4</ele>
        <time>2022-09-24T09:48:14Z</time>
      </trkpt>
      <trkpt lat="45.79373" lon="4.98113">
        <ele>176.4</ele>
        <time>2022-09-24T09:48:15Z</time>
      </trkpt>
      <trkpt lat="45.79372" lon="4.9812">
        <ele>176.4</ele>
        <time>2022-09-24T09:48:16Z</time>
      </trkpt>
      <trkpt lat="45.79371" lon="4.98126">
        <ele>176.3</ele>
        <time>2022-09-24T09:48:17Z</time>
      </trkpt>
      <trkpt lat="45.7937" lon="4.98133">
        <ele>176.3</ele>
        <time>2022-09-24T09:48:18Z</time>
      </trkpt>
      <trkpt lat="45.79369" lon="4.98139">
        <ele>176.3</ele>
        <time>2022-09-24T09:48:19Z</time>
      </trkpt>
      <trkpt lat="45.79367" lon="4.98145">
        <ele>176.3</ele>
        <time>2022-09-24T09:48:20Z</time>
      </trkpt>
      <trkpt lat="45.79365" lon="4.98151">
        <ele>176.3</ele>
        <time>2022-09-24T09:48:21Z</time>
      </trkpt>
      <trkpt lat="45.79365" lon="4.98158">
        <ele>176.3</ele>
        <time>2022-09-24T09:48:22Z</time>
      </trkpt>
      <trkpt lat="45.79366" lon="4.98164">
        <ele>176.3</ele>
        <time>2022-09-24T09:48:23Z</time>
      </trkpt>
      <trkpt lat="45.79365" lon="4.9817">
        <ele>176.3</ele>
        <time>2022-09-24T09:48:24Z</time>
      </trkpt>
      <trkpt lat="45.79365" lon="4.98177">
        <ele>176.3</ele>
        <time>2022-09-24T09:48:25Z</time>
      </trkpt>
      <trkpt lat="45.79364" lon="4.98183">
        <ele>176.3</ele>
        <time>2022-09-24T09:48:26Z</time>
      </trkpt>
      <trkpt lat="45.79364" lon="4.98189">
        <ele>176.3</ele>
        <time>2022-09-24T09:48:27Z</time>
      </trkpt>
      <trkpt lat="45.79363" lon="4.98195">
        <ele>176.4</ele>
        <time>2022-09-24T09:48:28Z</time>
      </trkpt>
      <trkpt lat="45.79363" lon="4.98201">
        <ele>176.4</ele>
        <time>2022-09-24T09:48:29Z</time>
      </trkpt>
      <trkpt lat="45.79363" lon="4.98207">
        <ele>176.4</ele>
        <time>2022-09-24T09:48:30Z</time>
      </trkpt>
      <trkpt lat="45.79362" lon="4.98213">
        <ele>176.5</ele>
        <time>2022-09-24T09:48:31Z</time>
      </trkpt>
      <trkpt lat="45.79362" lon="4.9822">
        <ele>176.5</ele>
        <time>2022-09-24T09:48:32Z</time>
      </trkpt>
      <trkpt lat="45.79361" lon="4.98225">
        <ele>176.5</ele>
        <time>2022-09-24T09:48:33Z</time>
      </trkpt>
      <trkpt lat="45.79361" lon="4.98231">
        <ele>176.6</ele>
        <time>2022-09-24T09:48:34Z</time>
      </trkpt>
      <trkpt lat="45.79361" lon="4.98238">
        <ele>176.7</ele>
        <time>2022-09-24T09:48:35Z</time>
      </trkpt>
      <trkpt lat="45.79361" lon="4.98244">
        <ele>176.7</ele>
        <time>2022-09-24T09:48:36Z</time>
      </trkpt>
      <trkpt lat="45.79361" lon="4.9825">
        <ele>176.8</ele>
        <time>2022-09-24T09:48:37Z</time>
      </trkpt>
      <trkpt lat="45.79361" lon="4.98255">
        <ele>176.8</ele>
        <time>2022-09-24T09:48:38Z</time>
      </trkpt>
      <trkpt lat="45.79361" lon="4.98261">
        <ele>176.9</ele>
        <time>2022-09-24T09:48:39Z</time>
      </trkpt>
      <trkpt lat="45.79361" lon="4.98267">
        <ele>177</ele>
        <time>2022-09-24T09:48:40Z</time>
      </trkpt>
      <trkpt lat="45.79359" lon="4.98271">
        <ele>177</ele>
        <time>2022-09-24T09:48:41Z</time>
      </trkpt>
      <trkpt lat="45.79359" lon="4.98276">
        <ele>177.1</ele>
        <time>2022-09-24T09:48:42Z</time>
      </trkpt>
      <trkpt lat="45.79357" lon="4.98279">
        <ele>177.1</ele>
        <time>2022-09-24T09:48:43Z</time>
      </trkpt>
      <trkpt lat="45.79354" lon="4.98281">
        <ele>177.1</ele>
        <time>2022-09-24T09:48:44Z</time>
      </trkpt>
      <trkpt lat="45.79351" lon="4.98282">
        <ele>177</ele>
        <time>2022-09-24T09:48:45Z</time>
      </trkpt>
      <trkpt lat="45.79347" lon="4.98282">
        <ele>177</ele>
        <time>2022-09-24T09:48:46Z</time>
      </trkpt>
      <trkpt lat="45.79344" lon="4.98282">
        <ele>176.9</ele>
        <time>2022-09-24T09:48:47Z</time>
      </trkpt>
      <trkpt lat="45.7934" lon="4.98283">
        <ele>176.9</ele>
        <time>2022-09-24T09:48:48Z</time>
      </trkpt>
      <trkpt lat="45.79336" lon="4.98283">
        <ele>176.8</ele>
        <time>2022-09-24T09:48:49Z</time>
      </trkpt>
      <trkpt lat="45.79333" lon="4.98285">
        <ele>176.8</ele>
        <time>2022-09-24T09:48:50Z</time>
      </trkpt>
      <trkpt lat="45.79329" lon="4.98285">
        <ele>176.7</ele>
        <time>2022-09-24T09:48:52Z</time>
      </trkpt>
      <trkpt lat="45.79325" lon="4.98286">
        <ele>176.7</ele>
        <time>2022-09-24T09:48:53Z</time>
      </trkpt>
      <trkpt lat="45.7932" lon="4.98286">
        <ele>176.7</ele>
        <time>2022-09-24T09:48:54Z</time>
      </trkpt>
      <trkpt lat="45.79317" lon="4.98286">
        <ele>176.6</ele>
        <time>2022-09-24T09:48:55Z</time>
      </trkpt>
      <trkpt lat="45.79313" lon="4.98287">
        <ele>176.6</ele>
        <time>2022-09-24T09:48:56Z</time>
      </trkpt>
      <trkpt lat="45.79309" lon="4.98287">
        <ele>176.6</ele>
        <time>2022-09-24T09:48:57Z</time>
      </trkpt>
      <trkpt lat="45.79305" lon="4.98288">
        <ele>176.6</ele>
        <time>2022-09-24T09:48:58Z</time>
      </trkpt>
      <trkpt lat="45.793" lon="4.98288">
        <ele>176.5</ele>
        <time>2022-09-24T09:48:59Z</time>
      </trkpt>
      <trkpt lat="45.79297" lon="4.9829">
        <ele>176.5</ele>
        <time>2022-09-24T09:49:00Z</time>
      </trkpt>
      <trkpt lat="45.79293" lon="4.9829">
        <ele>176.5</ele>
        <time>2022-09-24T09:49:01Z</time>
      </trkpt>
      <trkpt lat="45.79288" lon="4.9829">
        <ele>176.5</ele>
        <time>2022-09-24T09:49:02Z</time>
      </trkpt>
      <trkpt lat="45.79284" lon="4.98291">
        <ele>176.5</ele>
        <time>2022-09-24T09:49:03Z</time>
      </trkpt>
      <trkpt lat="45.7928" lon="4.98293">
        <ele>176.5</ele>
        <time>2022-09-24T09:49:04Z</time>
      </trkpt>
      <trkpt lat="45.79277" lon="4.98293">
        <ele>176.5</ele>
        <time>2022-09-24T09:49:05Z</time>
      </trkpt>
      <trkpt lat="45.79271" lon="4.98292">
        <ele>176.5</ele>
        <time>2022-09-24T09:49:06Z</time>
      </trkpt>
      <trkpt lat="45.79268" lon="4.98292">
        <ele>176.5</ele>
        <time>2022-09-24T09:49:07Z</time>
      </trkpt>
      <trkpt lat="45.79263" lon="4.98293">
        <ele>176.5</ele>
        <time>2022-09-24T09:49:08Z</time>
      </trkpt>
      <trkpt lat="45.7926" lon="4.98295">
        <ele>176.6</ele>
        <time>2022-09-24T09:49:09Z</time>
      </trkpt>
      <trkpt lat="45.79256" lon="4.98295">
        <ele>176.6</ele>
        <time>2022-09-24T09:49:10Z</time>
      </trkpt>
      <trkpt lat="45.79252" lon="4.98295">
        <ele>176.6</ele>
        <time>2022-09-24T09:49:11Z</time>
      </trkpt>
      <trkpt lat="45.79249" lon="4.98299">
        <ele>176.7</ele>
        <time>2022-09-24T09:49:12Z</time>
      </trkpt>
      <trkpt lat="45.79245" lon="4.983">
        <ele>176.8</ele>
        <time>2022-09-24T09:49:13Z</time>
      </trkpt>
      <trkpt lat="45.79235" lon="4.98301">
        <ele>176.9</ele>
        <time>2022-09-24T09:49:14Z</time>
      </trkpt>
      <trkpt lat="45.79232" lon="4.98302">
        <ele>177</ele>
        <time>2022-09-24T09:49:15Z</time>
      </trkpt>
      <trkpt lat="45.79228" lon="4.98304">
        <ele>177.1</ele>
        <time>2022-09-24T09:49:16Z</time>
      </trkpt>
      <trkpt lat="45.79224" lon="4.98305">
        <ele>177.2</ele>
        <time>2022-09-24T09:49:17Z</time>
      </trkpt>
      <trkpt lat="45.7922" lon="4.98307">
        <ele>177.2</ele>
        <time>2022-09-24T09:49:18Z</time>
      </trkpt>
      <trkpt lat="45.79218" lon="4.98313">
        <ele>177.2</ele>
        <time>2022-09-24T09:49:19Z</time>
      </trkpt>
      <trkpt lat="45.79218" lon="4.98318">
        <ele>177.2</ele>
        <time>2022-09-24T09:49:20Z</time>
      </trkpt>
      <trkpt lat="45.79218" lon="4.98323">
        <ele>177.2</ele>
        <time>2022-09-24T09:49:21Z</time>
      </trkpt>
      <trkpt lat="45.79221" lon="4.98328">
        <ele>177.2</ele>
        <time>2022-09-24T09:49:22Z</time>
      </trkpt>
      <trkpt lat="45.79223" lon="4.98334">
        <ele>177.2</ele>
        <time>2022-09-24T09:49:23Z</time>
      </trkpt>
      <trkpt lat="45.79226" lon="4.98339">
        <ele>177.2</ele>
        <time>2022-09-24T09:49:24Z</time>
      </trkpt>
      <trkpt lat="45.79228" lon="4.98345">
        <ele>177.3</ele>
        <time>2022-09-24T09:49:25Z</time>
      </trkpt>
      <trkpt lat="45.79231" lon="4.9835">
        <ele>177.4</ele>
        <time>2022-09-24T09:49:26Z</time>
      </trkpt>
      <trkpt lat="45.79233" lon="4.98356">
        <ele>177.5</ele>
        <time>2022-09-24T09:49:27Z</time>
      </trkpt>
      <trkpt lat="45.79235" lon="4.98361">
        <ele>177.6</ele>
        <time>2022-09-24T09:49:28Z</time>
      </trkpt>
      <trkpt lat="45.79237" lon="4.98367">
        <ele>177.8</ele>
        <time>2022-09-24T09:49:29Z</time>
      </trkpt>
      <trkpt lat="45.79239" lon="4.98372">
        <ele>177.9</ele>
        <time>2022-09-24T09:49:30Z</time>
      </trkpt>
      <trkpt lat="45.79242" lon="4.98377">
        <ele>178.1</ele>
        <time>2022-09-24T09:49:31Z</time>
      </trkpt>
      <trkpt lat="45.79244" lon="4.98381">
        <ele>178.2</ele>
        <time>2022-09-24T09:49:32Z</time>
      </trkpt>
      <trkpt lat="45.79246" lon="4.98387">
        <ele>178.4</ele>
        <time>2022-09-24T09:49:33Z</time>
      </trkpt>
      <trkpt lat="45.79249" lon="4.98392">
        <ele>178.6</ele>
        <time>2022-09-24T09:49:34Z</time>
      </trkpt>
      <trkpt lat="45.79251" lon="4.98397">
        <ele>178.9</ele>
        <time>2022-09-24T09:49:35Z</time>
      </trkpt>
      <trkpt lat="45.79253" lon="4.984">
        <ele>179</ele>
        <time>2022-09-24T09:49:36Z</time>
      </trkpt>
      <trkpt lat="45.79256" lon="4.98406">
        <ele>179.3</ele>
        <time>2022-09-24T09:49:37Z</time>
      </trkpt>
      <trkpt lat="45.79259" lon="4.98412">
        <ele>179.6</ele>
        <time>2022-09-24T09:49:38Z</time>
      </trkpt>
      <trkpt lat="45.79262" lon="4.98417">
        <ele>179.9</ele>
        <time>2022-09-24T09:49:39Z</time>
      </trkpt>
      <trkpt lat="45.79264" lon="4.98422">
        <ele>180.2</ele>
        <time>2022-09-24T09:49:40Z</time>
      </trkpt>
      <trkpt lat="45.79266" lon="4.98427">
        <ele>180.4</ele>
        <time>2022-09-24T09:49:41Z</time>
      </trkpt>
      <trkpt lat="45.79267" lon="4.98433">
        <ele>180.7</ele>
        <time>2022-09-24T09:49:42Z</time>
      </trkpt>
      <trkpt lat="45.79268" lon="4.98438">
        <ele>180.9</ele>
        <time>2022-09-24T09:49:43Z</time>
      </trkpt>
      <trkpt lat="45.79268" lon="4.98442">
        <ele>181.3</ele>
        <time>2022-09-24T09:49:44Z</time>
      </trkpt>
      <trkpt lat="45.79269" lon="4.98446">
        <ele>181.3</ele>
        <time>2022-09-24T09:49:45Z</time>
      </trkpt>
      <trkpt lat="45.7927" lon="4.98449">
        <ele>181.3</ele>
        <time>2022-09-24T09:49:46Z</time>
      </trkpt>
      <trkpt lat="45.79271" lon="4.9845">
        <ele>181.3</ele>
        <time>2022-09-24T09:49:47Z</time>
      </trkpt>
      <trkpt lat="45.79271" lon="4.98452">
        <ele>181.3</ele>
        <time>2022-09-24T09:49:48Z</time>
      </trkpt>
      <trkpt lat="45.79273" lon="4.98453">
        <ele>181.4</ele>
        <time>2022-09-24T09:49:49Z</time>
      </trkpt>
      <trkpt lat="45.79275" lon="4.98455">
        <ele>181.4</ele>
        <time>2022-09-24T09:49:50Z</time>
      </trkpt>
      <trkpt lat="45.79275" lon="4.98457">
        <ele>181.4</ele>
        <time>2022-09-24T09:49:51Z</time>
      </trkpt>
      <trkpt lat="45.79275" lon="4.98458">
        <ele>181.4</ele>
        <time>2022-09-24T09:49:52Z</time>
      </trkpt>
      <trkpt lat="45.79277" lon="4.98462">
        <ele>181.4</ele>
        <time>2022-09-24T09:49:53Z</time>
      </trkpt>
      <trkpt lat="45.79278" lon="4.98464">
        <ele>181.4</ele>
        <time>2022-09-24T09:49:54Z</time>
      </trkpt>
      <trkpt lat="45.79279" lon="4.98465">
        <ele>181.4</ele>
        <time>2022-09-24T09:49:55Z</time>
      </trkpt>
      <trkpt lat="45.79279" lon="4.98466">
        <ele>181.4</ele>
        <time>2022-09-24T09:49:56Z</time>
      </trkpt>
      <trkpt lat="45.7928" lon="4.98467">
        <ele>181.4</ele>
        <time>2022-09-24T09:49:57Z</time>
      </trkpt>
      <trkpt lat="45.79281" lon="4.98467">
        <ele>181.4</ele>
        <time>2022-09-24T09:49:58Z</time>
      </trkpt>
      <trkpt lat="45.79281" lon="4.98468">
        <ele>181.4</ele>
        <time>2022-09-24T09:49:59Z</time>
      </trkpt>
      <trkpt lat="45.79282" lon="4.98469">
        <ele>181.4</ele>
        <time>2022-09-24T09:50:00Z</time>
      </trkpt>
      <trkpt lat="45.79283" lon="4.9847">
        <ele>181.4</ele>
        <time>2022-09-24T09:50:01Z</time>
      </trkpt>
      <trkpt lat="45.79283" lon="4.98471">
        <ele>181.4</ele>
        <time>2022-09-24T09:50:02Z</time>
      </trkpt>
      <trkpt lat="45.79284" lon="4.98471">
        <ele>181.4</ele>
        <time>2022-09-24T09:50:03Z</time>
      </trkpt>
      <trkpt lat="45.79285" lon="4.98472">
        <ele>181.4</ele>
        <time>2022-09-24T09:50:04Z</time>
      </trkpt>
      <trkpt lat="45.79285" lon="4.98473">
        <ele>181.5</ele>
        <time>2022-09-24T09:54:59Z</time>
      </trkpt>
      <trkpt lat="45.79286" lon="4.98474">
        <ele>181.5</ele>
        <time>2022-09-24T09:55:00Z</time>
      </trkpt>
      <trkpt lat="45.79287" lon="4.98477">
        <ele>181.5</ele>
        <time>2022-09-24T09:55:01Z</time>
      </trkpt>
      <trkpt lat="45.79288" lon="4.98479">
        <ele>181.5</ele>
        <time>2022-09-24T09:55:02Z</time>
      </trkpt>
      <trkpt lat="45.79291" lon="4.98482">
        <ele>181.5</ele>
        <time>2022-09-24T09:55:03Z</time>
      </trkpt>
      <trkpt lat="45.79291" lon="4.98484">
        <ele>181.5</ele>
        <time>2022-09-24T09:55:04Z</time>
      </trkpt>
      <trkpt lat="45.79293" lon="4.98488">
        <ele>181.5</ele>
        <time>2022-09-24T09:55:05Z</time>
      </trkpt>
      <trkpt lat="45.79294" lon="4.9849">
        <ele>181.5</ele>
        <time>2022-09-24T09:55:06Z</time>
      </trkpt>
      <trkpt lat="45.79296" lon="4.98494">
        <ele>181.5</ele>
        <time>2022-09-24T09:55:07Z</time>
      </trkpt>
      <trkpt lat="45.79296" lon="4.98496">
        <ele>181.5</ele>
        <time>2022-09-24T09:55:08Z</time>
      </trkpt>
      <trkpt lat="45.79298" lon="4.985">
        <ele>181.5</ele>
        <time>2022-09-24T09:55:09Z</time>
      </trkpt>
      <trkpt lat="45.793" lon="4.98502">
        <ele>181.5</ele>
        <time>2022-09-24T09:55:10Z</time>
      </trkpt>
      <trkpt lat="45.79302" lon="4.98506">
        <ele>181.5</ele>
        <time>2022-09-24T09:55:11Z</time>
      </trkpt>
      <trkpt lat="45.79304" lon="4.98509">
        <ele>181.5</ele>
        <time>2022-09-24T09:55:12Z</time>
      </trkpt>
      <trkpt lat="45.79306" lon="4.98512">
        <ele>181.5</ele>
        <time>2022-09-24T09:55:13Z</time>
      </trkpt>
      <trkpt lat="45.79308" lon="4.98515">
        <ele>181.5</ele>
        <time>2022-09-24T09:55:14Z</time>
      </trkpt>
      <trkpt lat="45.7931" lon="4.98518">
        <ele>181.5</ele>
        <time>2022-09-24T09:55:15Z</time>
      </trkpt>
      <trkpt lat="45.79312" lon="4.98521">
        <ele>181.5</ele>
        <time>2022-09-24T09:55:16Z</time>
      </trkpt>
      <trkpt lat="45.79314" lon="4.98525">
        <ele>181.5</ele>
        <time>2022-09-24T09:55:17Z</time>
      </trkpt>
      <trkpt lat="45.79316" lon="4.98528">
        <ele>181.5</ele>
        <time>2022-09-24T09:55:18Z</time>
      </trkpt>
      <trkpt lat="45.79318" lon="4.98531">
        <ele>181.5</ele>
        <time>2022-09-24T09:55:19Z</time>
      </trkpt>
      <trkpt lat="45.7932" lon="4.98535">
        <ele>181.6</ele>
        <time>2022-09-24T09:55:20Z</time>
      </trkpt>
      <trkpt lat="45.79322" lon="4.98538">
        <ele>181.6</ele>
        <time>2022-09-24T09:55:21Z</time>
      </trkpt>
      <trkpt lat="45.79324" lon="4.98541">
        <ele>181.6</ele>
        <time>2022-09-24T09:55:22Z</time>
      </trkpt>
      <trkpt lat="45.79327" lon="4.98544">
        <ele>181.5</ele>
        <time>2022-09-24T09:55:23Z</time>
      </trkpt>
      <trkpt lat="45.79329" lon="4.98548">
        <ele>181.5</ele>
        <time>2022-09-24T09:55:24Z</time>
      </trkpt>
      <trkpt lat="45.79332" lon="4.98552">
        <ele>181.5</ele>
        <time>2022-09-24T09:55:25Z</time>
      </trkpt>
      <trkpt lat="45.79334" lon="4.98556">
        <ele>181.5</ele>
        <time>2022-09-24T09:55:26Z</time>
      </trkpt>
      <trkpt lat="45.79337" lon="4.98559">
        <ele>181.5</ele>
        <time>2022-09-24T09:55:27Z</time>
      </trkpt>
      <trkpt lat="45.79339" lon="4.98563">
        <ele>181.5</ele>
        <time>2022-09-24T09:55:28Z</time>
      </trkpt>
      <trkpt lat="45.79342" lon="4.98568">
        <ele>181.5</ele>
        <time>2022-09-24T09:55:29Z</time>
      </trkpt>
      <trkpt lat="45.79344" lon="4.98572">
        <ele>181.5</ele>
        <time>2022-09-24T09:55:30Z</time>
      </trkpt>
      <trkpt lat="45.79347" lon="4.98575">
        <ele>181.5</ele>
        <time>2022-09-24T09:55:31Z</time>
      </trkpt>
      <trkpt lat="45.7935" lon="4.9858">
        <ele>181.4</ele>
        <time>2022-09-24T09:55:32Z</time>
      </trkpt>
      <trkpt lat="45.79353" lon="4.98584">
        <ele>181.4</ele>
        <time>2022-09-24T09:55:33Z</time>
      </trkpt>
      <trkpt lat="45.79355" lon="4.98588">
        <ele>181.4</ele>
        <time>2022-09-24T09:55:34Z</time>
      </trkpt>
      <trkpt lat="45.79358" lon="4.98592">
        <ele>181.4</ele>
        <time>2022-09-24T09:55:35Z</time>
      </trkpt>
      <trkpt lat="45.7936" lon="4.98597">
        <ele>181.4</ele>
        <time>2022-09-24T09:55:36Z</time>
      </trkpt>
      <trkpt lat="45.79363" lon="4.98601">
        <ele>181.4</ele>
        <time>2022-09-24T09:55:37Z</time>
      </trkpt>
      <trkpt lat="45.79365" lon="4.98604">
        <ele>181.4</ele>
        <time>2022-09-24T09:55:38Z</time>
      </trkpt>
      <trkpt lat="45.79368" lon="4.98608">
        <ele>181.4</ele>
        <time>2022-09-24T09:55:39Z</time>
      </trkpt>
      <trkpt lat="45.7937" lon="4.98613">
        <ele>181.4</ele>
        <time>2022-09-24T09:55:40Z</time>
      </trkpt>
      <trkpt lat="45.79372" lon="4.98616">
        <ele>181.4</ele>
        <time>2022-09-24T09:55:41Z</time>
      </trkpt>
      <trkpt lat="45.79374" lon="4.9862">
        <ele>181.4</ele>
        <time>2022-09-24T09:55:42Z</time>
      </trkpt>
      <trkpt lat="45.79377" lon="4.98623">
        <ele>181.4</ele>
        <time>2022-09-24T09:55:43Z</time>
      </trkpt>
      <trkpt lat="45.7938" lon="4.98628">
        <ele>181.4</ele>
        <time>2022-09-24T09:55:44Z</time>
      </trkpt>
      <trkpt lat="45.79383" lon="4.98632">
        <ele>181.4</ele>
        <time>2022-09-24T09:55:45Z</time>
      </trkpt>
      <trkpt lat="45.79386" lon="4.98635">
        <ele>181.4</ele>
        <time>2022-09-24T09:55:46Z</time>
      </trkpt>
      <trkpt lat="45.79389" lon="4.9864">
        <ele>181.4</ele>
        <time>2022-09-24T09:55:47Z</time>
      </trkpt>
      <trkpt lat="45.79391" lon="4.98644">
        <ele>181.4</ele>
        <time>2022-09-24T09:55:48Z</time>
      </trkpt>
      <trkpt lat="45.79394" lon="4.9865">
        <ele>181.4</ele>
        <time>2022-09-24T09:55:49Z</time>
      </trkpt>
      <trkpt lat="45.79397" lon="4.98655">
        <ele>181.4</ele>
        <time>2022-09-24T09:55:50Z</time>
      </trkpt>
      <trkpt lat="45.794" lon="4.9866">
        <ele>181.4</ele>
        <time>2022-09-24T09:55:51Z</time>
      </trkpt>
      <trkpt lat="45.79403" lon="4.98665">
        <ele>181.4</ele>
        <time>2022-09-24T09:55:52Z</time>
      </trkpt>
      <trkpt lat="45.79406" lon="4.98669">
        <ele>181.4</ele>
        <time>2022-09-24T09:55:53Z</time>
      </trkpt>
      <trkpt lat="45.7941" lon="4.98675">
        <ele>181.4</ele>
        <time>2022-09-24T09:55:54Z</time>
      </trkpt>
      <trkpt lat="45.79413" lon="4.9868">
        <ele>181.4</ele>
        <time>2022-09-24T09:55:55Z</time>
      </trkpt>
      <trkpt lat="45.79416" lon="4.98684">
        <ele>181.4</ele>
        <time>2022-09-24T09:55:56Z</time>
      </trkpt>
      <trkpt lat="45.79419" lon="4.98689">
        <ele>181.4</ele>
        <time>2022-09-24T09:55:57Z</time>
      </trkpt>
      <trkpt lat="45.79422" lon="4.98694">
        <ele>181.4</ele>
        <time>2022-09-24T09:55:58Z</time>
      </trkpt>
      <trkpt lat="45.79425" lon="4.98698">
        <ele>181.4</ele>
        <time>2022-09-24T09:55:59Z</time>
      </trkpt>
      <trkpt lat="45.79427" lon="4.98703">
        <ele>181.4</ele>
        <time>2022-09-24T09:56:00Z</time>
      </trkpt>
      <trkpt lat="45.79431" lon="4.98707">
        <ele>181.5</ele>
        <time>2022-09-24T09:56:01Z</time>
      </trkpt>
      <trkpt lat="45.79434" lon="4.98711">
        <ele>181.5</ele>
        <time>2022-09-24T09:56:02Z</time>
      </trkpt>
      <trkpt lat="45.79436" lon="4.98715">
        <ele>181.5</ele>
        <time>2022-09-24T09:56:03Z</time>
      </trkpt>
      <trkpt lat="45.79439" lon="4.9872">
        <ele>181.5</ele>
        <time>2022-09-24T09:56:04Z</time>
      </trkpt>
      <trkpt lat="45.79442" lon="4.98723">
        <ele>181.5</ele>
        <time>2022-09-24T09:56:05Z</time>
      </trkpt>
      <trkpt lat="45.79444" lon="4.98728">
        <ele>181.5</ele>
        <time>2022-09-24T09:56:06Z</time>
      </trkpt>
      <trkpt lat="45.79447" lon="4.98733">
        <ele>181.5</ele>
        <time>2022-09-24T09:56:07Z</time>
      </trkpt>
      <trkpt lat="45.7945" lon="4.98736">
        <ele>181.5</ele>
        <time>2022-09-24T09:56:08Z</time>
      </trkpt>
      <trkpt lat="45.79453" lon="4.9874">
        <ele>181.5</ele>
        <time>2022-09-24T09:56:09Z</time>
      </trkpt>
      <trkpt lat="45.79455" lon="4.98744">
        <ele>181.6</ele>
        <time>2022-09-24T09:56:10Z</time>
      </trkpt>
      <trkpt lat="45.79458" lon="4.98749">
        <ele>181.6</ele>
        <time>2022-09-24T09:56:11Z</time>
      </trkpt>
      <trkpt lat="45.79461" lon="4.98753">
        <ele>181.6</ele>
        <time>2022-09-24T09:56:12Z</time>
      </trkpt>
      <trkpt lat="45.79463" lon="4.98757">
        <ele>181.6</ele>
        <time>2022-09-24T09:56:13Z</time>
      </trkpt>
      <trkpt lat="45.79466" lon="4.98762">
        <ele>181.6</ele>
        <time>2022-09-24T09:56:14Z</time>
      </trkpt>
      <trkpt lat="45.79469" lon="4.98767">
        <ele>181.6</ele>
        <time>2022-09-24T09:56:15Z</time>
      </trkpt>
      <trkpt lat="45.79472" lon="4.98772">
        <ele>181.6</ele>
        <time>2022-09-24T09:56:16Z</time>
      </trkpt>
      <trkpt lat="45.79474" lon="4.98777">
        <ele>181.6</ele>
        <time>2022-09-24T09:56:17Z</time>
      </trkpt>
      <trkpt lat="45.79477" lon="4.98781">
        <ele>181.6</ele>
        <time>2022-09-24T09:56:18Z</time>
      </trkpt>
      <trkpt lat="45.79479" lon="4.98786">
        <ele>181.7</ele>
        <time>2022-09-24T09:56:19Z</time>
      </trkpt>
      <trkpt lat="45.79482" lon="4.9879">
        <ele>181.7</ele>
        <time>2022-09-24T09:56:20Z</time>
      </trkpt>
      <trkpt lat="45.79485" lon="4.98795">
        <ele>181.7</ele>
        <time>2022-09-24T09:56:21Z</time>
      </trkpt>
      <trkpt lat="45.79487" lon="4.98799">
        <ele>181.7</ele>
        <time>2022-09-24T09:56:22Z</time>
      </trkpt>
      <trkpt lat="45.7949" lon="4.98804">
        <ele>181.7</ele>
        <time>2022-09-24T09:56:23Z</time>
      </trkpt>
      <trkpt lat="45.79492" lon="4.98809">
        <ele>181.7</ele>
        <time>2022-09-24T09:56:24Z</time>
      </trkpt>
      <trkpt lat="45.79494" lon="4.98813">
        <ele>181.8</ele>
        <time>2022-09-24T09:56:25Z</time>
      </trkpt>
      <trkpt lat="45.79497" lon="4.98817">
        <ele>181.8</ele>
        <time>2022-09-24T09:56:26Z</time>
      </trkpt>
      <trkpt lat="45.79499" lon="4.98823">
        <ele>181.8</ele>
        <time>2022-09-24T09:56:27Z</time>
      </trkpt>
      <trkpt lat="45.79502" lon="4.98827">
        <ele>181.8</ele>
        <time>2022-09-24T09:56:28Z</time>
      </trkpt>
      <trkpt lat="45.79504" lon="4.98832">
        <ele>181.8</ele>
        <time>2022-09-24T09:56:29Z</time>
      </trkpt>
      <trkpt lat="45.79507" lon="4.98837">
        <ele>181.8</ele>
        <time>2022-09-24T09:56:30Z</time>
      </trkpt>
      <trkpt lat="45.79509" lon="4.98842">
        <ele>181.9</ele>
        <time>2022-09-24T09:56:31Z</time>
      </trkpt>
      <trkpt lat="45.79511" lon="4.98846">
        <ele>181.9</ele>
        <time>2022-09-24T09:56:32Z</time>
      </trkpt>
      <trkpt lat="45.79513" lon="4.9885">
        <ele>181.9</ele>
        <time>2022-09-24T09:56:33Z</time>
      </trkpt>
      <trkpt lat="45.79515" lon="4.98855">
        <ele>181.9</ele>
        <time>2022-09-24T09:56:34Z</time>
      </trkpt>
      <trkpt lat="45.79517" lon="4.98859">
        <ele>181.9</ele>
        <time>2022-09-24T09:56:35Z</time>
      </trkpt>
      <trkpt lat="45.79518" lon="4.98863">
        <ele>181.9</ele>
        <time>2022-09-24T09:56:36Z</time>
      </trkpt>
      <trkpt lat="45.7952" lon="4.98869">
        <ele>181.9</ele>
        <time>2022-09-24T09:56:37Z</time>
      </trkpt>
      <trkpt lat="45.79522" lon="4.98874">
        <ele>181.9</ele>
        <time>2022-09-24T09:56:38Z</time>
      </trkpt>
      <trkpt lat="45.79523" lon="4.9888">
        <ele>181.9</ele>
        <time>2022-09-24T09:56:39Z</time>
      </trkpt>
      <trkpt lat="45.79525" lon="4.98886">
        <ele>181.9</ele>
        <time>2022-09-24T09:56:40Z</time>
      </trkpt>
      <trkpt lat="45.79527" lon="4.98892">
        <ele>181.9</ele>
        <time>2022-09-24T09:56:41Z</time>
      </trkpt>
      <trkpt lat="45.79528" lon="4.98899">
        <ele>182</ele>
        <time>2022-09-24T09:56:42Z</time>
      </trkpt>
      <trkpt lat="45.7953" lon="4.98905">
        <ele>182</ele>
        <time>2022-09-24T09:56:43Z</time>
      </trkpt>
      <trkpt lat="45.79532" lon="4.98911">
        <ele>182</ele>
        <time>2022-09-24T09:56:44Z</time>
      </trkpt>
      <trkpt lat="45.79534" lon="4.98918">
        <ele>182</ele>
        <time>2022-09-24T09:56:45Z</time>
      </trkpt>
      <trkpt lat="45.79536" lon="4.98924">
        <ele>182</ele>
        <time>2022-09-24T09:56:46Z</time>
      </trkpt>
      <trkpt lat="45.79538" lon="4.98929">
        <ele>182</ele>
        <time>2022-09-24T09:56:47Z</time>
      </trkpt>
      <trkpt lat="45.7954" lon="4.98935">
        <ele>182</ele>
        <time>2022-09-24T09:56:48Z</time>
      </trkpt>
      <trkpt lat="45.79541" lon="4.98941">
        <ele>182.1</ele>
        <time>2022-09-24T09:56:49Z</time>
      </trkpt>
      <trkpt lat="45.79543" lon="4.98948">
        <ele>182.1</ele>
        <time>2022-09-24T09:56:50Z</time>
      </trkpt>
      <trkpt lat="45.79544" lon="4.98953">
        <ele>182.1</ele>
        <time>2022-09-24T09:56:51Z</time>
      </trkpt>
      <trkpt lat="45.79547" lon="4.9896">
        <ele>182.2</ele>
        <time>2022-09-24T09:56:52Z</time>
      </trkpt>
      <trkpt lat="45.79549" lon="4.98966">
        <ele>182.3</ele>
        <time>2022-09-24T09:56:53Z</time>
      </trkpt>
      <trkpt lat="45.79551" lon="4.98972">
        <ele>182.4</ele>
        <time>2022-09-24T09:56:54Z</time>
      </trkpt>
      <trkpt lat="45.79554" lon="4.98978">
        <ele>182.5</ele>
        <time>2022-09-24T09:56:55Z</time>
      </trkpt>
      <trkpt lat="45.79556" lon="4.98983">
        <ele>182.6</ele>
        <time>2022-09-24T09:56:56Z</time>
      </trkpt>
      <trkpt lat="45.79557" lon="4.98989">
        <ele>182.7</ele>
        <time>2022-09-24T09:56:57Z</time>
      </trkpt>
      <trkpt lat="45.79559" lon="4.98995">
        <ele>182.9</ele>
        <time>2022-09-24T09:56:58Z</time>
      </trkpt>
      <trkpt lat="45.7956" lon="4.99001">
        <ele>183</ele>
        <time>2022-09-24T09:56:59Z</time>
      </trkpt>
      <trkpt lat="45.7956" lon="4.99006">
        <ele>183.1</ele>
        <time>2022-09-24T09:57:00Z</time>
      </trkpt>
      <trkpt lat="45.79562" lon="4.99012">
        <ele>183.3</ele>
        <time>2022-09-24T09:57:01Z</time>
      </trkpt>
      <trkpt lat="45.79562" lon="4.99018">
        <ele>183.5</ele>
        <time>2022-09-24T09:57:02Z</time>
      </trkpt>
      <trkpt lat="45.79563" lon="4.99023">
        <ele>183.6</ele>
        <time>2022-09-24T09:57:03Z</time>
      </trkpt>
      <trkpt lat="45.79565" lon="4.99028">
        <ele>183.8</ele>
        <time>2022-09-24T09:57:04Z</time>
      </trkpt>
      <trkpt lat="45.79564" lon="4.99034">
        <ele>184</ele>
        <time>2022-09-24T09:57:05Z</time>
      </trkpt>
      <trkpt lat="45.79565" lon="4.99041">
        <ele>184.2</ele>
        <time>2022-09-24T09:57:06Z</time>
      </trkpt>
      <trkpt lat="45.79566" lon="4.99048">
        <ele>184.5</ele>
        <time>2022-09-24T09:57:07Z</time>
      </trkpt>
      <trkpt lat="45.79566" lon="4.99053">
        <ele>184.7</ele>
        <time>2022-09-24T09:57:08Z</time>
      </trkpt>
      <trkpt lat="45.79566" lon="4.9906">
        <ele>184.9</ele>
        <time>2022-09-24T09:57:09Z</time>
      </trkpt>
      <trkpt lat="45.79565" lon="4.99067">
        <ele>185.2</ele>
        <time>2022-09-24T09:57:10Z</time>
      </trkpt>
      <trkpt lat="45.79565" lon="4.9907">
        <ele>185.3</ele>
        <time>2022-09-24T09:57:11Z</time>
      </trkpt>
      <trkpt lat="45.79565" lon="4.99076">
        <ele>185.5</ele>
        <time>2022-09-24T09:57:12Z</time>
      </trkpt>
      <trkpt lat="45.79566" lon="4.99083">
        <ele>185.8</ele>
        <time>2022-09-24T09:57:13Z</time>
      </trkpt>
      <trkpt lat="45.79566" lon="4.99089">
        <ele>185.7</ele>
        <time>2022-09-24T09:57:14Z</time>
      </trkpt>
      <trkpt lat="45.79566" lon="4.99097">
        <ele>185.4</ele>
        <time>2022-09-24T09:57:16Z</time>
      </trkpt>
      <trkpt lat="45.79567" lon="4.99103">
        <ele>185.2</ele>
        <time>2022-09-24T09:57:17Z</time>
      </trkpt>
      <trkpt lat="45.79567" lon="4.99109">
        <ele>185</ele>
        <time>2022-09-24T09:57:18Z</time>
      </trkpt>
      <trkpt lat="45.7957" lon="4.99116">
        <ele>184.7</ele>
        <time>2022-09-24T09:57:19Z</time>
      </trkpt>
      <trkpt lat="45.79569" lon="4.99125">
        <ele>184.3</ele>
        <time>2022-09-24T09:57:20Z</time>
      </trkpt>
      <trkpt lat="45.79569" lon="4.99133">
        <ele>184</ele>
        <time>2022-09-24T09:57:21Z</time>
      </trkpt>
      <trkpt lat="45.79569" lon="4.99143">
        <ele>183.6</ele>
        <time>2022-09-24T09:57:22Z</time>
      </trkpt>
      <trkpt lat="45.79568" lon="4.99151">
        <ele>183.3</ele>
        <time>2022-09-24T09:57:23Z</time>
      </trkpt>
      <trkpt lat="45.79569" lon="4.99161">
        <ele>183</ele>
        <time>2022-09-24T09:57:24Z</time>
      </trkpt>
      <trkpt lat="45.79568" lon="4.99169">
        <ele>182.8</ele>
        <time>2022-09-24T09:57:25Z</time>
      </trkpt>
      <trkpt lat="45.79568" lon="4.99179">
        <ele>182.5</ele>
        <time>2022-09-24T09:57:26Z</time>
      </trkpt>
      <trkpt lat="45.79567" lon="4.99189">
        <ele>182.3</ele>
        <time>2022-09-24T09:57:27Z</time>
      </trkpt>
      <trkpt lat="45.79566" lon="4.99198">
        <ele>182.2</ele>
        <time>2022-09-24T09:57:28Z</time>
      </trkpt>
      <trkpt lat="45.79564" lon="4.99207">
        <ele>182.1</ele>
        <time>2022-09-24T09:57:29Z</time>
      </trkpt>
      <trkpt lat="45.79563" lon="4.99217">
        <ele>182</ele>
        <time>2022-09-24T09:57:30Z</time>
      </trkpt>
      <trkpt lat="45.79559" lon="4.99236">
        <ele>181.9</ele>
        <time>2022-09-24T09:57:31Z</time>
      </trkpt>
      <trkpt lat="45.79558" lon="4.99245">
        <ele>181.8</ele>
        <time>2022-09-24T09:57:32Z</time>
      </trkpt>
      <trkpt lat="45.79556" lon="4.99254">
        <ele>181.8</ele>
        <time>2022-09-24T09:57:33Z</time>
      </trkpt>
      <trkpt lat="45.79554" lon="4.99262">
        <ele>181.7</ele>
        <time>2022-09-24T09:57:34Z</time>
      </trkpt>
      <trkpt lat="45.79553" lon="4.99271">
        <ele>181.7</ele>
        <time>2022-09-24T09:57:35Z</time>
      </trkpt>
      <trkpt lat="45.79552" lon="4.99279">
        <ele>181.7</ele>
        <time>2022-09-24T09:57:36Z</time>
      </trkpt>
      <trkpt lat="45.7955" lon="4.99287">
        <ele>181.7</ele>
        <time>2022-09-24T09:57:37Z</time>
      </trkpt>
      <trkpt lat="45.79548" lon="4.99295">
        <ele>181.6</ele>
        <time>2022-09-24T09:57:38Z</time>
      </trkpt>
      <trkpt lat="45.79546" lon="4.99303">
        <ele>181.6</ele>
        <time>2022-09-24T09:57:39Z</time>
      </trkpt>
      <trkpt lat="45.79544" lon="4.99311">
        <ele>181.6</ele>
        <time>2022-09-24T09:57:40Z</time>
      </trkpt>
      <trkpt lat="45.79543" lon="4.99318">
        <ele>181.6</ele>
        <time>2022-09-24T09:57:41Z</time>
      </trkpt>
      <trkpt lat="45.79542" lon="4.99326">
        <ele>181.5</ele>
        <time>2022-09-24T09:57:42Z</time>
      </trkpt>
      <trkpt lat="45.79541" lon="4.99334">
        <ele>181.5</ele>
        <time>2022-09-24T09:57:43Z</time>
      </trkpt>
      <trkpt lat="45.79539" lon="4.99341">
        <ele>181.5</ele>
        <time>2022-09-24T09:57:44Z</time>
      </trkpt>
      <trkpt lat="45.79538" lon="4.99349">
        <ele>181.5</ele>
        <time>2022-09-24T09:57:45Z</time>
      </trkpt>
      <trkpt lat="45.79537" lon="4.99355">
        <ele>181.6</ele>
        <time>2022-09-24T09:57:46Z</time>
      </trkpt>
      <trkpt lat="45.79535" lon="4.99361">
        <ele>181.6</ele>
        <time>2022-09-24T09:57:47Z</time>
      </trkpt>
      <trkpt lat="45.79533" lon="4.99368">
        <ele>181.6</ele>
        <time>2022-09-24T09:57:48Z</time>
      </trkpt>
      <trkpt lat="45.7953" lon="4.99375">
        <ele>181.6</ele>
        <time>2022-09-24T09:57:49Z</time>
      </trkpt>
      <trkpt lat="45.79527" lon="4.9938">
        <ele>181.6</ele>
        <time>2022-09-24T09:57:50Z</time>
      </trkpt>
      <trkpt lat="45.79525" lon="4.99388">
        <ele>181.6</ele>
        <time>2022-09-24T09:57:51Z</time>
      </trkpt>
      <trkpt lat="45.79523" lon="4.99396">
        <ele>181.6</ele>
        <time>2022-09-24T09:57:52Z</time>
      </trkpt>
      <trkpt lat="45.79521" lon="4.99402">
        <ele>181.6</ele>
        <time>2022-09-24T09:57:53Z</time>
      </trkpt>
      <trkpt lat="45.79518" lon="4.9941">
        <ele>181.6</ele>
        <time>2022-09-24T09:57:54Z</time>
      </trkpt>
      <trkpt lat="45.79516" lon="4.99417">
        <ele>181.6</ele>
        <time>2022-09-24T09:57:55Z</time>
      </trkpt>
      <trkpt lat="45.79514" lon="4.99424">
        <ele>181.6</ele>
        <time>2022-09-24T09:57:56Z</time>
      </trkpt>
      <trkpt lat="45.79511" lon="4.99431">
        <ele>181.6</ele>
        <time>2022-09-24T09:57:57Z</time>
      </trkpt>
      <trkpt lat="45.79508" lon="4.99437">
        <ele>181.6</ele>
        <time>2022-09-24T09:57:58Z</time>
      </trkpt>
      <trkpt lat="45.79506" lon="4.99442">
        <ele>181.6</ele>
        <time>2022-09-24T09:57:59Z</time>
      </trkpt>
      <trkpt lat="45.79503" lon="4.99448">
        <ele>181.6</ele>
        <time>2022-09-24T09:58:00Z</time>
      </trkpt>
      <trkpt lat="45.795" lon="4.99454">
        <ele>181.6</ele>
        <time>2022-09-24T09:58:01Z</time>
      </trkpt>
      <trkpt lat="45.79497" lon="4.9946">
        <ele>181.6</ele>
        <time>2022-09-24T09:58:02Z</time>
      </trkpt>
      <trkpt lat="45.79496" lon="4.99466">
        <ele>181.6</ele>
        <time>2022-09-24T09:58:03Z</time>
      </trkpt>
      <trkpt lat="45.79493" lon="4.99471">
        <ele>181.6</ele>
        <time>2022-09-24T09:58:04Z</time>
      </trkpt>
      <trkpt lat="45.7949" lon="4.99477">
        <ele>181.6</ele>
        <time>2022-09-24T09:58:05Z</time>
      </trkpt>
      <trkpt lat="45.79487" lon="4.99482">
        <ele>181.6</ele>
        <time>2022-09-24T09:58:06Z</time>
      </trkpt>
      <trkpt lat="45.79485" lon="4.99487">
        <ele>181.6</ele>
        <time>2022-09-24T09:58:07Z</time>
      </trkpt>
      <trkpt lat="45.79483" lon="4.99491">
        <ele>181.6</ele>
        <time>2022-09-24T09:58:08Z</time>
      </trkpt>
      <trkpt lat="45.79481" lon="4.99495">
        <ele>181.6</ele>
        <time>2022-09-24T09:58:09Z</time>
      </trkpt>
      <trkpt lat="45.7948" lon="4.99498">
        <ele>181.6</ele>
        <time>2022-09-24T09:58:10Z</time>
      </trkpt>
      <trkpt lat="45.79479" lon="4.99503">
        <ele>181.6</ele>
        <time>2022-09-24T09:58:11Z</time>
      </trkpt>
      <trkpt lat="45.79479" lon="4.99503">
        <ele>181.6</ele>
        <time>2022-09-24T09:58:12Z</time>
      </trkpt>
      <trkpt lat="45.79477" lon="4.99508">
        <ele>181.6</ele>
        <time>2022-09-24T09:58:13Z</time>
      </trkpt>
      <trkpt lat="45.79476" lon="4.9951">
        <ele>181.6</ele>
        <time>2022-09-24T09:58:14Z</time>
      </trkpt>
      <trkpt lat="45.79474" lon="4.99512">
        <ele>181.6</ele>
        <time>2022-09-24T09:58:15Z</time>
      </trkpt>
      <trkpt lat="45.79471" lon="4.99515">
        <ele>181.6</ele>
        <time>2022-09-24T09:58:16Z</time>
      </trkpt>
      <trkpt lat="45.79468" lon="4.99518">
        <ele>181.6</ele>
        <time>2022-09-24T09:58:17Z</time>
      </trkpt>
      <trkpt lat="45.79465" lon="4.99521">
        <ele>181.6</ele>
        <time>2022-09-24T09:58:18Z</time>
      </trkpt>
      <trkpt lat="45.79462" lon="4.99525">
        <ele>181.6</ele>
        <time>2022-09-24T09:58:19Z</time>
      </trkpt>
      <trkpt lat="45.79459" lon="4.99529">
        <ele>181.6</ele>
        <time>2022-09-24T09:58:20Z</time>
      </trkpt>
      <trkpt lat="45.79456" lon="4.99535">
        <ele>181.6</ele>
        <time>2022-09-24T09:58:21Z</time>
      </trkpt>
      <trkpt lat="45.79452" lon="4.9954">
        <ele>181.6</ele>
        <time>2022-09-24T09:58:22Z</time>
      </trkpt>
      <trkpt lat="45.79449" lon="4.99546">
        <ele>181.6</ele>
        <time>2022-09-24T09:58:23Z</time>
      </trkpt>
      <trkpt lat="45.79446" lon="4.9955">
        <ele>181.5</ele>
        <time>2022-09-24T09:58:24Z</time>
      </trkpt>
      <trkpt lat="45.79443" lon="4.99555">
        <ele>181.5</ele>
        <time>2022-09-24T09:58:25Z</time>
      </trkpt>
      <trkpt lat="45.79439" lon="4.9956">
        <ele>181.5</ele>
        <time>2022-09-24T09:58:26Z</time>
      </trkpt>
      <trkpt lat="45.79436" lon="4.99564">
        <ele>181.5</ele>
        <time>2022-09-24T09:58:27Z</time>
      </trkpt>
      <trkpt lat="45.79433" lon="4.99569">
        <ele>181.5</ele>
        <time>2022-09-24T09:58:28Z</time>
      </trkpt>
      <trkpt lat="45.79429" lon="4.99573">
        <ele>181.5</ele>
        <time>2022-09-24T09:58:29Z</time>
      </trkpt>
      <trkpt lat="45.79426" lon="4.99578">
        <ele>181.5</ele>
        <time>2022-09-24T09:58:30Z</time>
      </trkpt>
      <trkpt lat="45.79422" lon="4.99582">
        <ele>181.5</ele>
        <time>2022-09-24T09:58:31Z</time>
      </trkpt>
      <trkpt lat="45.79419" lon="4.99587">
        <ele>181.5</ele>
        <time>2022-09-24T09:58:32Z</time>
      </trkpt>
      <trkpt lat="45.79416" lon="4.99592">
        <ele>181.5</ele>
        <time>2022-09-24T09:58:33Z</time>
      </trkpt>
      <trkpt lat="45.79412" lon="4.99596">
        <ele>181.5</ele>
        <time>2022-09-24T09:58:34Z</time>
      </trkpt>
      <trkpt lat="45.79409" lon="4.996">
        <ele>181.5</ele>
        <time>2022-09-24T09:58:35Z</time>
      </trkpt>
      <trkpt lat="45.79405" lon="4.99605">
        <ele>181.5</ele>
        <time>2022-09-24T09:58:36Z</time>
      </trkpt>
      <trkpt lat="45.79401" lon="4.99608">
        <ele>181.5</ele>
        <time>2022-09-24T09:58:37Z</time>
      </trkpt>
      <trkpt lat="45.79398" lon="4.99611">
        <ele>181.6</ele>
        <time>2022-09-24T09:58:38Z</time>
      </trkpt>
      <trkpt lat="45.79394" lon="4.99615">
        <ele>181.6</ele>
        <time>2022-09-24T09:58:39Z</time>
      </trkpt>
      <trkpt lat="45.7939" lon="4.99618">
        <ele>181.6</ele>
        <time>2022-09-24T09:58:40Z</time>
      </trkpt>
      <trkpt lat="45.79387" lon="4.99622">
        <ele>181.6</ele>
        <time>2022-09-24T09:58:41Z</time>
      </trkpt>
      <trkpt lat="45.79383" lon="4.99625">
        <ele>181.6</ele>
        <time>2022-09-24T09:58:42Z</time>
      </trkpt>
      <trkpt lat="45.79379" lon="4.99629">
        <ele>181.6</ele>
        <time>2022-09-24T09:58:43Z</time>
      </trkpt>
      <trkpt lat="45.79375" lon="4.99632">
        <ele>181.6</ele>
        <time>2022-09-24T09:58:44Z</time>
      </trkpt>
      <trkpt lat="45.79372" lon="4.99635">
        <ele>181.5</ele>
        <time>2022-09-24T09:58:45Z</time>
      </trkpt>
      <trkpt lat="45.79369" lon="4.9964">
        <ele>181.5</ele>
        <time>2022-09-24T09:58:46Z</time>
      </trkpt>
      <trkpt lat="45.79365" lon="4.99643">
        <ele>181.5</ele>
        <time>2022-09-24T09:58:47Z</time>
      </trkpt>
      <trkpt lat="45.79361" lon="4.99647">
        <ele>181.5</ele>
        <time>2022-09-24T09:58:48Z</time>
      </trkpt>
      <trkpt lat="45.79358" lon="4.9965">
        <ele>181.5</ele>
        <time>2022-09-24T09:58:49Z</time>
      </trkpt>
      <trkpt lat="45.79354" lon="4.99654">
        <ele>181.5</ele>
        <time>2022-09-24T09:58:50Z</time>
      </trkpt>
      <trkpt lat="45.7935" lon="4.99658">
        <ele>181.5</ele>
        <time>2022-09-24T09:58:51Z</time>
      </trkpt>
      <trkpt lat="45.79346" lon="4.99662">
        <ele>181.5</ele>
        <time>2022-09-24T09:58:52Z</time>
      </trkpt>
      <trkpt lat="45.79342" lon="4.99666">
        <ele>181.5</ele>
        <time>2022-09-24T09:58:53Z</time>
      </trkpt>
      <trkpt lat="45.79338" lon="4.9967">
        <ele>181.5</ele>
        <time>2022-09-24T09:58:54Z</time>
      </trkpt>
      <trkpt lat="45.79334" lon="4.99674">
        <ele>181.5</ele>
        <time>2022-09-24T09:58:55Z</time>
      </trkpt>
      <trkpt lat="45.7933" lon="4.99678">
        <ele>181.5</ele>
        <time>2022-09-24T09:58:56Z</time>
      </trkpt>
      <trkpt lat="45.79326" lon="4.99682">
        <ele>181.5</ele>
        <time>2022-09-24T09:58:57Z</time>
      </trkpt>
      <trkpt lat="45.79322" lon="4.99686">
        <ele>181.5</ele>
        <time>2022-09-24T09:58:58Z</time>
      </trkpt>
      <trkpt lat="45.79318" lon="4.9969">
        <ele>181.5</ele>
        <time>2022-09-24T09:58:59Z</time>
      </trkpt>
      <trkpt lat="45.79314" lon="4.99694">
        <ele>181.5</ele>
        <time>2022-09-24T09:59:00Z</time>
      </trkpt>
      <trkpt lat="45.79309" lon="4.99698">
        <ele>181.5</ele>
        <time>2022-09-24T09:59:01Z</time>
      </trkpt>
      <trkpt lat="45.79305" lon="4.99703">
        <ele>181.5</ele>
        <time>2022-09-24T09:59:02Z</time>
      </trkpt>
      <trkpt lat="45.79302" lon="4.99706">
        <ele>181.5</ele>
        <time>2022-09-24T09:59:03Z</time>
      </trkpt>
      <trkpt lat="45.79298" lon="4.9971">
        <ele>181.5</ele>
        <time>2022-09-24T09:59:04Z</time>
      </trkpt>
      <trkpt lat="45.79293" lon="4.99715">
        <ele>181.5</ele>
        <time>2022-09-24T09:59:05Z</time>
      </trkpt>
      <trkpt lat="45.79289" lon="4.99719">
        <ele>181.4</ele>
        <time>2022-09-24T09:59:06Z</time>
      </trkpt>
      <trkpt lat="45.79285" lon="4.99723">
        <ele>181.4</ele>
        <time>2022-09-24T09:59:07Z</time>
      </trkpt>
      <trkpt lat="45.7928" lon="4.99727">
        <ele>181.4</ele>
        <time>2022-09-24T09:59:08Z</time>
      </trkpt>
      <trkpt lat="45.79276" lon="4.9973">
        <ele>181.4</ele>
        <time>2022-09-24T09:59:09Z</time>
      </trkpt>
      <trkpt lat="45.79272" lon="4.99735">
        <ele>181.4</ele>
        <time>2022-09-24T09:59:10Z</time>
      </trkpt>
      <trkpt lat="45.79268" lon="4.9974">
        <ele>181.4</ele>
        <time>2022-09-24T09:59:11Z</time>
      </trkpt>
      <trkpt lat="45.79263" lon="4.99744">
        <ele>181.4</ele>
        <time>2022-09-24T09:59:12Z</time>
      </trkpt>
      <trkpt lat="45.79259" lon="4.99748">
        <ele>181.4</ele>
        <time>2022-09-24T09:59:13Z</time>
      </trkpt>
      <trkpt lat="45.79254" lon="4.99753">
        <ele>181.4</ele>
        <time>2022-09-24T09:59:14Z</time>
      </trkpt>
      <trkpt lat="45.7925" lon="4.99759">
        <ele>181.4</ele>
        <time>2022-09-24T09:59:15Z</time>
      </trkpt>
      <trkpt lat="45.79245" lon="4.99763">
        <ele>181.4</ele>
        <time>2022-09-24T09:59:16Z</time>
      </trkpt>
      <trkpt lat="45.79241" lon="4.99768">
        <ele>181.4</ele>
        <time>2022-09-24T09:59:17Z</time>
      </trkpt>
      <trkpt lat="45.79237" lon="4.99772">
        <ele>181.4</ele>
        <time>2022-09-24T09:59:18Z</time>
      </trkpt>
      <trkpt lat="45.79232" lon="4.99777">
        <ele>181.4</ele>
        <time>2022-09-24T09:59:19Z</time>
      </trkpt>
      <trkpt lat="45.79229" lon="4.99781">
        <ele>181.4</ele>
        <time>2022-09-24T09:59:20Z</time>
      </trkpt>
      <trkpt lat="45.79224" lon="4.99785">
        <ele>181.4</ele>
        <time>2022-09-24T09:59:22Z</time>
      </trkpt>
      <trkpt lat="45.7922" lon="4.9979">
        <ele>181.4</ele>
        <time>2022-09-24T09:59:23Z</time>
      </trkpt>
      <trkpt lat="45.79216" lon="4.99794">
        <ele>181.4</ele>
        <time>2022-09-24T09:59:24Z</time>
      </trkpt>
      <trkpt lat="45.79207" lon="4.99803">
        <ele>181.3</ele>
        <time>2022-09-24T09:59:25Z</time>
      </trkpt>
      <trkpt lat="45.79203" lon="4.99807">
        <ele>181.3</ele>
        <time>2022-09-24T09:59:26Z</time>
      </trkpt>
      <trkpt lat="45.79199" lon="4.99812">
        <ele>181.3</ele>
        <time>2022-09-24T09:59:27Z</time>
      </trkpt>
      <trkpt lat="45.79194" lon="4.99816">
        <ele>181.3</ele>
        <time>2022-09-24T09:59:28Z</time>
      </trkpt>
      <trkpt lat="45.7919" lon="4.9982">
        <ele>181.3</ele>
        <time>2022-09-24T09:59:29Z</time>
      </trkpt>
      <trkpt lat="45.79185" lon="4.99825">
        <ele>181.3</ele>
        <time>2022-09-24T09:59:30Z</time>
      </trkpt>
      <trkpt lat="45.79181" lon="4.99829">
        <ele>181.3</ele>
        <time>2022-09-24T09:59:31Z</time>
      </trkpt>
      <trkpt lat="45.79177" lon="4.99833">
        <ele>181.3</ele>
        <time>2022-09-24T09:59:32Z</time>
      </trkpt>
      <trkpt lat="45.79173" lon="4.99837">
        <ele>181.3</ele>
        <time>2022-09-24T09:59:34Z</time>
      </trkpt>
      <trkpt lat="45.79165" lon="4.99844">
        <ele>181.3</ele>
        <time>2022-09-24T09:59:35Z</time>
      </trkpt>
      <trkpt lat="45.79161" lon="4.99849">
        <ele>181.3</ele>
        <time>2022-09-24T09:59:36Z</time>
      </trkpt>
      <trkpt lat="45.79156" lon="4.99853">
        <ele>181.4</ele>
        <time>2022-09-24T09:59:37Z</time>
      </trkpt>
      <trkpt lat="45.79152" lon="4.99856">
        <ele>181.4</ele>
        <time>2022-09-24T09:59:38Z</time>
      </trkpt>
      <trkpt lat="45.79149" lon="4.9986">
        <ele>181.4</ele>
        <time>2022-09-24T09:59:39Z</time>
      </trkpt>
      <trkpt lat="45.79145" lon="4.99865">
        <ele>181.4</ele>
        <time>2022-09-24T09:59:40Z</time>
      </trkpt>
      <trkpt lat="45.79141" lon="4.99869">
        <ele>181.4</ele>
        <time>2022-09-24T09:59:41Z</time>
      </trkpt>
      <trkpt lat="45.79136" lon="4.99873">
        <ele>181.4</ele>
        <time>2022-09-24T09:59:42Z</time>
      </trkpt>
      <trkpt lat="45.79133" lon="4.99877">
        <ele>181.4</ele>
        <time>2022-09-24T09:59:43Z</time>
      </trkpt>
      <trkpt lat="45.79129" lon="4.99881">
        <ele>181.4</ele>
        <time>2022-09-24T09:59:44Z</time>
      </trkpt>
      <trkpt lat="45.79125" lon="4.99885">
        <ele>181.4</ele>
        <time>2022-09-24T09:59:45Z</time>
      </trkpt>
      <trkpt lat="45.7912" lon="4.9989">
        <ele>181.4</ele>
        <time>2022-09-24T09:59:46Z</time>
      </trkpt>
      <trkpt lat="45.79116" lon="4.99894">
        <ele>181.4</ele>
        <time>2022-09-24T09:59:47Z</time>
      </trkpt>
      <trkpt lat="45.79112" lon="4.99898">
        <ele>181.4</ele>
        <time>2022-09-24T09:59:48Z</time>
      </trkpt>
      <trkpt lat="45.79107" lon="4.99902">
        <ele>181.4</ele>
        <time>2022-09-24T09:59:49Z</time>
      </trkpt>
      <trkpt lat="45.79103" lon="4.99907">
        <ele>181.4</ele>
        <time>2022-09-24T09:59:50Z</time>
      </trkpt>
      <trkpt lat="45.79099" lon="4.9991">
        <ele>181.4</ele>
        <time>2022-09-24T09:59:51Z</time>
      </trkpt>
      <trkpt lat="45.79095" lon="4.99915">
        <ele>181.4</ele>
        <time>2022-09-24T09:59:52Z</time>
      </trkpt>
      <trkpt lat="45.79091" lon="4.99919">
        <ele>181.4</ele>
        <time>2022-09-24T09:59:53Z</time>
      </trkpt>
      <trkpt lat="45.79086" lon="4.99923">
        <ele>181.4</ele>
        <time>2022-09-24T09:59:54Z</time>
      </trkpt>
      <trkpt lat="45.79082" lon="4.99927">
        <ele>181.4</ele>
        <time>2022-09-24T09:59:55Z</time>
      </trkpt>
      <trkpt lat="45.79078" lon="4.99931">
        <ele>181.5</ele>
        <time>2022-09-24T09:59:56Z</time>
      </trkpt>
      <trkpt lat="45.79074" lon="4.99935">
        <ele>181.5</ele>
        <time>2022-09-24T09:59:57Z</time>
      </trkpt>
      <trkpt lat="45.7907" lon="4.99939">
        <ele>181.5</ele>
        <time>2022-09-24T09:59:58Z</time>
      </trkpt>
      <trkpt lat="45.79065" lon="4.99943">
        <ele>181.5</ele>
        <time>2022-09-24T09:59:59Z</time>
      </trkpt>
      <trkpt lat="45.79061" lon="4.99948">
        <ele>181.5</ele>
        <time>2022-09-24T10:00:00Z</time>
      </trkpt>
      <trkpt lat="45.79056" lon="4.99953">
        <ele>181.5</ele>
        <time>2022-09-24T10:00:01Z</time>
      </trkpt>
      <trkpt lat="45.79053" lon="4.99956">
        <ele>181.5</ele>
        <time>2022-09-24T10:00:02Z</time>
      </trkpt>
      <trkpt lat="45.79048" lon="4.9996">
        <ele>181.5</ele>
        <time>2022-09-24T10:00:03Z</time>
      </trkpt>
      <trkpt lat="45.79045" lon="4.99963">
        <ele>181.5</ele>
        <time>2022-09-24T10:00:04Z</time>
      </trkpt>
      <trkpt lat="45.7904" lon="4.99968">
        <ele>181.6</ele>
        <time>2022-09-24T10:00:05Z</time>
      </trkpt>
      <trkpt lat="45.79036" lon="4.99972">
        <ele>181.6</ele>
        <time>2022-09-24T10:00:06Z</time>
      </trkpt>
      <trkpt lat="45.79031" lon="4.99976">
        <ele>181.6</ele>
        <time>2022-09-24T10:00:07Z</time>
      </trkpt>
      <trkpt lat="45.79027" lon="4.9998">
        <ele>181.6</ele>
        <time>2022-09-24T10:00:08Z</time>
      </trkpt>
      <trkpt lat="45.79023" lon="4.99985">
        <ele>181.6</ele>
        <time>2022-09-24T10:00:09Z</time>
      </trkpt>
      <trkpt lat="45.79018" lon="4.99989">
        <ele>181.6</ele>
        <time>2022-09-24T10:00:10Z</time>
      </trkpt>
      <trkpt lat="45.79014" lon="4.99994">
        <ele>181.6</ele>
        <time>2022-09-24T10:00:11Z</time>
      </trkpt>
      <trkpt lat="45.7901" lon="4.99998">
        <ele>181.6</ele>
        <time>2022-09-24T10:00:12Z</time>
      </trkpt>
      <trkpt lat="45.79005" lon="5.00002">
        <ele>181.6</ele>
        <time>2022-09-24T10:00:13Z</time>
      </trkpt>
      <trkpt lat="45.79001" lon="5.00006">
        <ele>181.7</ele>
        <time>2022-09-24T10:00:14Z</time>
      </trkpt>
      <trkpt lat="45.78996" lon="5.00011">
        <ele>181.7</ele>
        <time>2022-09-24T10:00:15Z</time>
      </trkpt>
      <trkpt lat="45.78993" lon="5.00014">
        <ele>181.7</ele>
        <time>2022-09-24T10:00:16Z</time>
      </trkpt>
      <trkpt lat="45.78988" lon="5.00019">
        <ele>181.7</ele>
        <time>2022-09-24T10:00:17Z</time>
      </trkpt>
      <trkpt lat="45.78984" lon="5.00023">
        <ele>181.7</ele>
        <time>2022-09-24T10:00:18Z</time>
      </trkpt>
      <trkpt lat="45.78979" lon="5.00028">
        <ele>181.7</ele>
        <time>2022-09-24T10:00:19Z</time>
      </trkpt>
      <trkpt lat="45.78975" lon="5.00032">
        <ele>181.7</ele>
        <time>2022-09-24T10:00:20Z</time>
      </trkpt>
      <trkpt lat="45.78971" lon="5.00037">
        <ele>181.7</ele>
        <time>2022-09-24T10:00:21Z</time>
      </trkpt>
      <trkpt lat="45.78966" lon="5.00041">
        <ele>181.7</ele>
        <time>2022-09-24T10:00:22Z</time>
      </trkpt>
      <trkpt lat="45.78961" lon="5.00045">
        <ele>181.7</ele>
        <time>2022-09-24T10:00:23Z</time>
      </trkpt>
      <trkpt lat="45.78957" lon="5.0005">
        <ele>181.7</ele>
        <time>2022-09-24T10:00:24Z</time>
      </trkpt>
      <trkpt lat="45.78952" lon="5.00055">
        <ele>181.7</ele>
        <time>2022-09-24T10:00:25Z</time>
      </trkpt>
      <trkpt lat="45.78948" lon="5.00059">
        <ele>181.7</ele>
        <time>2022-09-24T10:00:26Z</time>
      </trkpt>
      <trkpt lat="45.78943" lon="5.00063">
        <ele>181.7</ele>
        <time>2022-09-24T10:00:27Z</time>
      </trkpt>
      <trkpt lat="45.78939" lon="5.00068">
        <ele>181.7</ele>
        <time>2022-09-24T10:00:28Z</time>
      </trkpt>
      <trkpt lat="45.78935" lon="5.00072">
        <ele>181.7</ele>
        <time>2022-09-24T10:00:29Z</time>
      </trkpt>
      <trkpt lat="45.7893" lon="5.00077">
        <ele>181.7</ele>
        <time>2022-09-24T10:00:30Z</time>
      </trkpt>
      <trkpt lat="45.78927" lon="5.00081">
        <ele>181.7</ele>
        <time>2022-09-24T10:00:31Z</time>
      </trkpt>
      <trkpt lat="45.78923" lon="5.00086">
        <ele>181.6</ele>
        <time>2022-09-24T10:00:32Z</time>
      </trkpt>
      <trkpt lat="45.78919" lon="5.00091">
        <ele>181.6</ele>
        <time>2022-09-24T10:00:33Z</time>
      </trkpt>
      <trkpt lat="45.78914" lon="5.00095">
        <ele>181.6</ele>
        <time>2022-09-24T10:00:34Z</time>
      </trkpt>
      <trkpt lat="45.7891" lon="5.001">
        <ele>181.6</ele>
        <time>2022-09-24T10:00:35Z</time>
      </trkpt>
      <trkpt lat="45.78906" lon="5.00105">
        <ele>181.6</ele>
        <time>2022-09-24T10:00:36Z</time>
      </trkpt>
      <trkpt lat="45.78902" lon="5.00109">
        <ele>181.6</ele>
        <time>2022-09-24T10:00:37Z</time>
      </trkpt>
      <trkpt lat="45.78898" lon="5.00113">
        <ele>181.6</ele>
        <time>2022-09-24T10:00:38Z</time>
      </trkpt>
      <trkpt lat="45.78894" lon="5.00118">
        <ele>181.6</ele>
        <time>2022-09-24T10:00:39Z</time>
      </trkpt>
      <trkpt lat="45.78891" lon="5.00122">
        <ele>181.6</ele>
        <time>2022-09-24T10:00:40Z</time>
      </trkpt>
      <trkpt lat="45.78887" lon="5.00127">
        <ele>181.6</ele>
        <time>2022-09-24T10:00:41Z</time>
      </trkpt>
      <trkpt lat="45.78883" lon="5.00131">
        <ele>181.5</ele>
        <time>2022-09-24T10:00:42Z</time>
      </trkpt>
      <trkpt lat="45.7888" lon="5.00136">
        <ele>181.5</ele>
        <time>2022-09-24T10:00:43Z</time>
      </trkpt>
      <trkpt lat="45.78876" lon="5.0014">
        <ele>181.5</ele>
        <time>2022-09-24T10:00:44Z</time>
      </trkpt>
      <trkpt lat="45.78873" lon="5.00143">
        <ele>181.5</ele>
        <time>2022-09-24T10:00:45Z</time>
      </trkpt>
      <trkpt lat="45.78869" lon="5.00148">
        <ele>181.5</ele>
        <time>2022-09-24T10:00:46Z</time>
      </trkpt>
      <trkpt lat="45.78866" lon="5.00154">
        <ele>181.5</ele>
        <time>2022-09-24T10:00:47Z</time>
      </trkpt>
      <trkpt lat="45.78863" lon="5.00157">
        <ele>181.5</ele>
        <time>2022-09-24T10:00:48Z</time>
      </trkpt>
      <trkpt lat="45.78859" lon="5.00161">
        <ele>181.5</ele>
        <time>2022-09-24T10:00:49Z</time>
      </trkpt>
      <trkpt lat="45.78855" lon="5.00166">
        <ele>181.5</ele>
        <time>2022-09-24T10:00:50Z</time>
      </trkpt>
      <trkpt lat="45.78852" lon="5.00171">
        <ele>181.5</ele>
        <time>2022-09-24T10:00:51Z</time>
      </trkpt>
      <trkpt lat="45.78849" lon="5.00175">
        <ele>181.6</ele>
        <time>2022-09-24T10:00:52Z</time>
      </trkpt>
      <trkpt lat="45.78845" lon="5.0018">
        <ele>181.6</ele>
        <time>2022-09-24T10:00:53Z</time>
      </trkpt>
      <trkpt lat="45.78842" lon="5.00185">
        <ele>181.6</ele>
        <time>2022-09-24T10:00:54Z</time>
      </trkpt>
      <trkpt lat="45.78838" lon="5.0019">
        <ele>181.6</ele>
        <time>2022-09-24T10:00:55Z</time>
      </trkpt>
      <trkpt lat="45.78835" lon="5.00196">
        <ele>181.6</ele>
        <time>2022-09-24T10:00:56Z</time>
      </trkpt>
      <trkpt lat="45.78833" lon="5.002">
        <ele>181.6</ele>
        <time>2022-09-24T10:00:57Z</time>
      </trkpt>
      <trkpt lat="45.78829" lon="5.00205">
        <ele>181.6</ele>
        <time>2022-09-24T10:00:58Z</time>
      </trkpt>
      <trkpt lat="45.78826" lon="5.0021">
        <ele>181.5</ele>
        <time>2022-09-24T10:00:59Z</time>
      </trkpt>
      <trkpt lat="45.78823" lon="5.00215">
        <ele>181.5</ele>
        <time>2022-09-24T10:01:00Z</time>
      </trkpt>
      <trkpt lat="45.7882" lon="5.0022">
        <ele>181.5</ele>
        <time>2022-09-24T10:01:01Z</time>
      </trkpt>
      <trkpt lat="45.78817" lon="5.00225">
        <ele>181.5</ele>
        <time>2022-09-24T10:01:02Z</time>
      </trkpt>
      <trkpt lat="45.78814" lon="5.0023">
        <ele>181.5</ele>
        <time>2022-09-24T10:01:03Z</time>
      </trkpt>
      <trkpt lat="45.78811" lon="5.00236">
        <ele>181.5</ele>
        <time>2022-09-24T10:01:04Z</time>
      </trkpt>
      <trkpt lat="45.78808" lon="5.00241">
        <ele>181.5</ele>
        <time>2022-09-24T10:01:05Z</time>
      </trkpt>
      <trkpt lat="45.78805" lon="5.00247">
        <ele>181.5</ele>
        <time>2022-09-24T10:01:06Z</time>
      </trkpt>
      <trkpt lat="45.78802" lon="5.00252">
        <ele>181.5</ele>
        <time>2022-09-24T10:01:07Z</time>
      </trkpt>
      <trkpt lat="45.78799" lon="5.00258">
        <ele>181.5</ele>
        <time>2022-09-24T10:01:08Z</time>
      </trkpt>
      <trkpt lat="45.78796" lon="5.00264">
        <ele>181.5</ele>
        <time>2022-09-24T10:01:09Z</time>
      </trkpt>
      <trkpt lat="45.78793" lon="5.0027">
        <ele>181.5</ele>
        <time>2022-09-24T10:01:10Z</time>
      </trkpt>
      <trkpt lat="45.7879" lon="5.00275">
        <ele>181.5</ele>
        <time>2022-09-24T10:01:11Z</time>
      </trkpt>
      <trkpt lat="45.78788" lon="5.00281">
        <ele>181.5</ele>
        <time>2022-09-24T10:01:12Z</time>
      </trkpt>
      <trkpt lat="45.78785" lon="5.00287">
        <ele>181.5</ele>
        <time>2022-09-24T10:01:13Z</time>
      </trkpt>
      <trkpt lat="45.78783" lon="5.00293">
        <ele>181.5</ele>
        <time>2022-09-24T10:01:14Z</time>
      </trkpt>
      <trkpt lat="45.7878" lon="5.003">
        <ele>181.5</ele>
        <time>2022-09-24T10:01:15Z</time>
      </trkpt>
      <trkpt lat="45.78777" lon="5.00306">
        <ele>181.5</ele>
        <time>2022-09-24T10:01:16Z</time>
      </trkpt>
      <trkpt lat="45.78775" lon="5.00312">
        <ele>181.5</ele>
        <time>2022-09-24T10:01:17Z</time>
      </trkpt>
      <trkpt lat="45.78772" lon="5.00318">
        <ele>181.5</ele>
        <time>2022-09-24T10:01:18Z</time>
      </trkpt>
      <trkpt lat="45.7877" lon="5.00325">
        <ele>181.5</ele>
        <time>2022-09-24T10:01:19Z</time>
      </trkpt>
      <trkpt lat="45.78768" lon="5.00331">
        <ele>181.5</ele>
        <time>2022-09-24T10:01:20Z</time>
      </trkpt>
      <trkpt lat="45.78766" lon="5.00337">
        <ele>181.5</ele>
        <time>2022-09-24T10:01:21Z</time>
      </trkpt>
      <trkpt lat="45.78763" lon="5.00343">
        <ele>181.5</ele>
        <time>2022-09-24T10:01:22Z</time>
      </trkpt>
      <trkpt lat="45.78761" lon="5.0035">
        <ele>181.5</ele>
        <time>2022-09-24T10:01:23Z</time>
      </trkpt>
      <trkpt lat="45.78758" lon="5.00356">
        <ele>181.5</ele>
        <time>2022-09-24T10:01:24Z</time>
      </trkpt>
      <trkpt lat="45.78757" lon="5.00363">
        <ele>181.5</ele>
        <time>2022-09-24T10:01:25Z</time>
      </trkpt>
      <trkpt lat="45.78755" lon="5.00369">
        <ele>181.5</ele>
        <time>2022-09-24T10:01:26Z</time>
      </trkpt>
      <trkpt lat="45.78752" lon="5.00375">
        <ele>181.5</ele>
        <time>2022-09-24T10:01:28Z</time>
      </trkpt>
      <trkpt lat="45.7875" lon="5.00383">
        <ele>181.5</ele>
        <time>2022-09-24T10:01:29Z</time>
      </trkpt>
      <trkpt lat="45.78748" lon="5.00389">
        <ele>181.5</ele>
        <time>2022-09-24T10:01:30Z</time>
      </trkpt>
      <trkpt lat="45.78746" lon="5.00396">
        <ele>181.5</ele>
        <time>2022-09-24T10:01:31Z</time>
      </trkpt>
      <trkpt lat="45.78744" lon="5.00403">
        <ele>181.5</ele>
        <time>2022-09-24T10:01:32Z</time>
      </trkpt>
      <trkpt lat="45.78742" lon="5.00409">
        <ele>181.5</ele>
        <time>2022-09-24T10:01:33Z</time>
      </trkpt>
      <trkpt lat="45.7874" lon="5.00416">
        <ele>181.5</ele>
        <time>2022-09-24T10:01:34Z</time>
      </trkpt>
      <trkpt lat="45.78738" lon="5.00423">
        <ele>181.5</ele>
        <time>2022-09-24T10:01:35Z</time>
      </trkpt>
      <trkpt lat="45.78737" lon="5.0043">
        <ele>181.5</ele>
        <time>2022-09-24T10:01:36Z</time>
      </trkpt>
      <trkpt lat="45.78735" lon="5.00438">
        <ele>181.5</ele>
        <time>2022-09-24T10:01:37Z</time>
      </trkpt>
      <trkpt lat="45.78733" lon="5.00444">
        <ele>181.5</ele>
        <time>2022-09-24T10:01:38Z</time>
      </trkpt>
      <trkpt lat="45.7873" lon="5.00458">
        <ele>181.6</ele>
        <time>2022-09-24T10:01:39Z</time>
      </trkpt>
      <trkpt lat="45.78728" lon="5.00464">
        <ele>181.6</ele>
        <time>2022-09-24T10:01:40Z</time>
      </trkpt>
      <trkpt lat="45.78727" lon="5.00471">
        <ele>181.6</ele>
        <time>2022-09-24T10:01:41Z</time>
      </trkpt>
      <trkpt lat="45.78725" lon="5.00477">
        <ele>181.6</ele>
        <time>2022-09-24T10:01:42Z</time>
      </trkpt>
      <trkpt lat="45.78723" lon="5.00485">
        <ele>181.6</ele>
        <time>2022-09-24T10:01:43Z</time>
      </trkpt>
      <trkpt lat="45.78723" lon="5.00492">
        <ele>181.6</ele>
        <time>2022-09-24T10:01:44Z</time>
      </trkpt>
      <trkpt lat="45.78721" lon="5.00498">
        <ele>181.7</ele>
        <time>2022-09-24T10:01:46Z</time>
      </trkpt>
      <trkpt lat="45.7872" lon="5.00505">
        <ele>181.7</ele>
        <time>2022-09-24T10:01:47Z</time>
      </trkpt>
      <trkpt lat="45.78719" lon="5.00513">
        <ele>181.7</ele>
        <time>2022-09-24T10:01:48Z</time>
      </trkpt>
      <trkpt lat="45.78718" lon="5.00519">
        <ele>181.7</ele>
        <time>2022-09-24T10:01:49Z</time>
      </trkpt>
      <trkpt lat="45.78717" lon="5.00526">
        <ele>181.7</ele>
        <time>2022-09-24T10:01:50Z</time>
      </trkpt>
      <trkpt lat="45.78716" lon="5.00533">
        <ele>181.8</ele>
        <time>2022-09-24T10:01:51Z</time>
      </trkpt>
      <trkpt lat="45.78715" lon="5.0054">
        <ele>181.8</ele>
        <time>2022-09-24T10:01:52Z</time>
      </trkpt>
      <trkpt lat="45.78714" lon="5.00547">
        <ele>181.7</ele>
        <time>2022-09-24T10:01:53Z</time>
      </trkpt>
      <trkpt lat="45.78713" lon="5.00554">
        <ele>181.7</ele>
        <time>2022-09-24T10:01:54Z</time>
      </trkpt>
      <trkpt lat="45.78712" lon="5.00561">
        <ele>181.7</ele>
        <time>2022-09-24T10:01:55Z</time>
      </trkpt>
      <trkpt lat="45.78712" lon="5.00568">
        <ele>181.6</ele>
        <time>2022-09-24T10:01:56Z</time>
      </trkpt>
      <trkpt lat="45.78711" lon="5.00576">
        <ele>181.6</ele>
        <time>2022-09-24T10:01:57Z</time>
      </trkpt>
      <trkpt lat="45.7871" lon="5.00582">
        <ele>181.5</ele>
        <time>2022-09-24T10:01:58Z</time>
      </trkpt>
      <trkpt lat="45.7871" lon="5.0059">
        <ele>181.5</ele>
        <time>2022-09-24T10:01:59Z</time>
      </trkpt>
      <trkpt lat="45.78709" lon="5.00597">
        <ele>181.5</ele>
        <time>2022-09-24T10:02:00Z</time>
      </trkpt>
      <trkpt lat="45.78709" lon="5.00604">
        <ele>181.5</ele>
        <time>2022-09-24T10:02:01Z</time>
      </trkpt>
      <trkpt lat="45.78708" lon="5.00612">
        <ele>181.5</ele>
        <time>2022-09-24T10:02:02Z</time>
      </trkpt>
      <trkpt lat="45.78708" lon="5.00619">
        <ele>181.4</ele>
        <time>2022-09-24T10:02:03Z</time>
      </trkpt>
      <trkpt lat="45.78707" lon="5.00625">
        <ele>181.4</ele>
        <time>2022-09-24T10:02:04Z</time>
      </trkpt>
      <trkpt lat="45.78707" lon="5.00632">
        <ele>181.3</ele>
        <time>2022-09-24T10:02:05Z</time>
      </trkpt>
      <trkpt lat="45.78706" lon="5.0064">
        <ele>181.3</ele>
        <time>2022-09-24T10:02:06Z</time>
      </trkpt>
      <trkpt lat="45.78707" lon="5.00646">
        <ele>181.2</ele>
        <time>2022-09-24T10:02:07Z</time>
      </trkpt>
      <trkpt lat="45.78707" lon="5.00652">
        <ele>181.2</ele>
        <time>2022-09-24T10:02:08Z</time>
      </trkpt>
      <trkpt lat="45.78706" lon="5.0066">
        <ele>181.2</ele>
        <time>2022-09-24T10:02:09Z</time>
      </trkpt>
      <trkpt lat="45.78706" lon="5.00667">
        <ele>181.2</ele>
        <time>2022-09-24T10:02:10Z</time>
      </trkpt>
      <trkpt lat="45.78705" lon="5.00673">
        <ele>181.2</ele>
        <time>2022-09-24T10:02:11Z</time>
      </trkpt>
      <trkpt lat="45.78706" lon="5.00679">
        <ele>181.2</ele>
        <time>2022-09-24T10:02:12Z</time>
      </trkpt>
      <trkpt lat="45.78705" lon="5.00687">
        <ele>181.2</ele>
        <time>2022-09-24T10:02:13Z</time>
      </trkpt>
      <trkpt lat="45.78705" lon="5.00701">
        <ele>181.3</ele>
        <time>2022-09-24T10:02:14Z</time>
      </trkpt>
      <trkpt lat="45.78706" lon="5.00707">
        <ele>181.3</ele>
        <time>2022-09-24T10:02:15Z</time>
      </trkpt>
      <trkpt lat="45.78706" lon="5.00713">
        <ele>181.3</ele>
        <time>2022-09-24T10:02:16Z</time>
      </trkpt>
      <trkpt lat="45.78707" lon="5.0072">
        <ele>181.3</ele>
        <time>2022-09-24T10:02:17Z</time>
      </trkpt>
      <trkpt lat="45.78707" lon="5.00726">
        <ele>181.4</ele>
        <time>2022-09-24T10:02:18Z</time>
      </trkpt>
      <trkpt lat="45.78707" lon="5.00733">
        <ele>181.4</ele>
        <time>2022-09-24T10:02:19Z</time>
      </trkpt>
      <trkpt lat="45.78708" lon="5.00739">
        <ele>181.4</ele>
        <time>2022-09-24T10:02:20Z</time>
      </trkpt>
      <trkpt lat="45.78708" lon="5.00746">
        <ele>181.4</ele>
        <time>2022-09-24T10:02:21Z</time>
      </trkpt>
      <trkpt lat="45.78708" lon="5.00752">
        <ele>181.4</ele>
        <time>2022-09-24T10:02:22Z</time>
      </trkpt>
      <trkpt lat="45.78709" lon="5.00757">
        <ele>181.4</ele>
        <time>2022-09-24T10:02:23Z</time>
      </trkpt>
      <trkpt lat="45.78709" lon="5.00764">
        <ele>181.5</ele>
        <time>2022-09-24T10:02:24Z</time>
      </trkpt>
      <trkpt lat="45.7871" lon="5.0077">
        <ele>181.5</ele>
        <time>2022-09-24T10:02:25Z</time>
      </trkpt>
      <trkpt lat="45.78711" lon="5.00774">
        <ele>181.5</ele>
        <time>2022-09-24T10:02:26Z</time>
      </trkpt>
      <trkpt lat="45.7871" lon="5.00781">
        <ele>181.5</ele>
        <time>2022-09-24T10:02:27Z</time>
      </trkpt>
      <trkpt lat="45.78711" lon="5.00787">
        <ele>181.5</ele>
        <time>2022-09-24T10:02:28Z</time>
      </trkpt>
      <trkpt lat="45.78712" lon="5.00792">
        <ele>181.5</ele>
        <time>2022-09-24T10:02:29Z</time>
      </trkpt>
      <trkpt lat="45.78712" lon="5.00798">
        <ele>181.5</ele>
        <time>2022-09-24T10:02:30Z</time>
      </trkpt>
      <trkpt lat="45.78713" lon="5.00805">
        <ele>181.5</ele>
        <time>2022-09-24T10:02:31Z</time>
      </trkpt>
      <trkpt lat="45.78714" lon="5.00811">
        <ele>181.5</ele>
        <time>2022-09-24T10:02:32Z</time>
      </trkpt>
      <trkpt lat="45.78715" lon="5.00818">
        <ele>181.5</ele>
        <time>2022-09-24T10:02:33Z</time>
      </trkpt>
      <trkpt lat="45.78717" lon="5.00824">
        <ele>181.5</ele>
        <time>2022-09-24T10:02:34Z</time>
      </trkpt>
      <trkpt lat="45.78718" lon="5.0083">
        <ele>181.5</ele>
        <time>2022-09-24T10:02:35Z</time>
      </trkpt>
      <trkpt lat="45.78719" lon="5.00838">
        <ele>181.5</ele>
        <time>2022-09-24T10:02:36Z</time>
      </trkpt>
      <trkpt lat="45.7872" lon="5.00844">
        <ele>181.6</ele>
        <time>2022-09-24T10:02:37Z</time>
      </trkpt>
      <trkpt lat="45.78721" lon="5.0085">
        <ele>181.6</ele>
        <time>2022-09-24T10:02:38Z</time>
      </trkpt>
      <trkpt lat="45.78722" lon="5.00857">
        <ele>181.6</ele>
        <time>2022-09-24T10:02:39Z</time>
      </trkpt>
      <trkpt lat="45.78723" lon="5.00863">
        <ele>181.6</ele>
        <time>2022-09-24T10:02:40Z</time>
      </trkpt>
      <trkpt lat="45.78725" lon="5.00869">
        <ele>181.6</ele>
        <time>2022-09-24T10:02:41Z</time>
      </trkpt>
      <trkpt lat="45.78725" lon="5.00876">
        <ele>181.6</ele>
        <time>2022-09-24T10:02:42Z</time>
      </trkpt>
      <trkpt lat="45.78726" lon="5.00882">
        <ele>181.6</ele>
        <time>2022-09-24T10:02:43Z</time>
      </trkpt>
      <trkpt lat="45.78728" lon="5.00889">
        <ele>181.6</ele>
        <time>2022-09-24T10:02:44Z</time>
      </trkpt>
      <trkpt lat="45.78729" lon="5.00895">
        <ele>181.6</ele>
        <time>2022-09-24T10:02:45Z</time>
      </trkpt>
      <trkpt lat="45.7873" lon="5.00903">
        <ele>181.6</ele>
        <time>2022-09-24T10:02:46Z</time>
      </trkpt>
      <trkpt lat="45.78731" lon="5.0091">
        <ele>181.6</ele>
        <time>2022-09-24T10:02:47Z</time>
      </trkpt>
      <trkpt lat="45.78732" lon="5.00916">
        <ele>181.7</ele>
        <time>2022-09-24T10:02:48Z</time>
      </trkpt>
      <trkpt lat="45.78734" lon="5.00922">
        <ele>181.7</ele>
        <time>2022-09-24T10:02:49Z</time>
      </trkpt>
      <trkpt lat="45.78735" lon="5.00928">
        <ele>181.7</ele>
        <time>2022-09-24T10:02:50Z</time>
      </trkpt>
      <trkpt lat="45.78737" lon="5.00935">
        <ele>181.7</ele>
        <time>2022-09-24T10:02:51Z</time>
      </trkpt>
      <trkpt lat="45.78738" lon="5.0094">
        <ele>181.7</ele>
        <time>2022-09-24T10:02:52Z</time>
      </trkpt>
      <trkpt lat="45.78739" lon="5.00948">
        <ele>181.8</ele>
        <time>2022-09-24T10:02:53Z</time>
      </trkpt>
      <trkpt lat="45.7874" lon="5.00953">
        <ele>181.8</ele>
        <time>2022-09-24T10:02:54Z</time>
      </trkpt>
      <trkpt lat="45.78741" lon="5.00959">
        <ele>181.9</ele>
        <time>2022-09-24T10:02:55Z</time>
      </trkpt>
      <trkpt lat="45.78742" lon="5.00966">
        <ele>181.9</ele>
        <time>2022-09-24T10:02:56Z</time>
      </trkpt>
      <trkpt lat="45.78743" lon="5.00971">
        <ele>181.9</ele>
        <time>2022-09-24T10:02:57Z</time>
      </trkpt>
      <trkpt lat="45.78744" lon="5.00976">
        <ele>182</ele>
        <time>2022-09-24T10:02:58Z</time>
      </trkpt>
      <trkpt lat="45.78745" lon="5.00982">
        <ele>182</ele>
        <time>2022-09-24T10:02:59Z</time>
      </trkpt>
      <trkpt lat="45.78745" lon="5.00987">
        <ele>182</ele>
        <time>2022-09-24T10:03:00Z</time>
      </trkpt>
      <trkpt lat="45.78746" lon="5.00993">
        <ele>182</ele>
        <time>2022-09-24T10:03:01Z</time>
      </trkpt>
      <trkpt lat="45.78745" lon="5.00998">
        <ele>182</ele>
        <time>2022-09-24T10:03:02Z</time>
      </trkpt>
      <trkpt lat="45.78745" lon="5.01004">
        <ele>181.9</ele>
        <time>2022-09-24T10:03:03Z</time>
      </trkpt>
      <trkpt lat="45.78744" lon="5.0101">
        <ele>181.9</ele>
        <time>2022-09-24T10:03:04Z</time>
      </trkpt>
      <trkpt lat="45.78743" lon="5.01015">
        <ele>181.9</ele>
        <time>2022-09-24T10:03:05Z</time>
      </trkpt>
      <trkpt lat="45.78743" lon="5.01021">
        <ele>181.8</ele>
        <time>2022-09-24T10:03:06Z</time>
      </trkpt>
      <trkpt lat="45.78744" lon="5.01027">
        <ele>181.8</ele>
        <time>2022-09-24T10:03:07Z</time>
      </trkpt>
      <trkpt lat="45.78744" lon="5.01034">
        <ele>181.7</ele>
        <time>2022-09-24T10:03:08Z</time>
      </trkpt>
      <trkpt lat="45.78744" lon="5.01038">
        <ele>181.7</ele>
        <time>2022-09-24T10:03:09Z</time>
      </trkpt>
      <trkpt lat="45.78744" lon="5.01046">
        <ele>181.7</ele>
        <time>2022-09-24T10:03:10Z</time>
      </trkpt>
      <trkpt lat="45.78744" lon="5.01053">
        <ele>181.7</ele>
        <time>2022-09-24T10:03:11Z</time>
      </trkpt>
      <trkpt lat="45.78743" lon="5.01059">
        <ele>181.6</ele>
        <time>2022-09-24T10:03:12Z</time>
      </trkpt>
      <trkpt lat="45.78742" lon="5.01065">
        <ele>181.6</ele>
        <time>2022-09-24T10:03:13Z</time>
      </trkpt>
      <trkpt lat="45.78742" lon="5.0107">
        <ele>181.6</ele>
        <time>2022-09-24T10:03:14Z</time>
      </trkpt>
      <trkpt lat="45.78741" lon="5.01078">
        <ele>181.6</ele>
        <time>2022-09-24T10:03:15Z</time>
      </trkpt>
      <trkpt lat="45.78739" lon="5.01083">
        <ele>181.6</ele>
        <time>2022-09-24T10:03:16Z</time>
      </trkpt>
      <trkpt lat="45.78738" lon="5.01089">
        <ele>181.5</ele>
        <time>2022-09-24T10:03:17Z</time>
      </trkpt>
      <trkpt lat="45.78737" lon="5.01095">
        <ele>181.5</ele>
        <time>2022-09-24T10:03:18Z</time>
      </trkpt>
      <trkpt lat="45.78737" lon="5.01101">
        <ele>181.6</ele>
        <time>2022-09-24T10:03:19Z</time>
      </trkpt>
      <trkpt lat="45.78736" lon="5.01108">
        <ele>181.6</ele>
        <time>2022-09-24T10:03:20Z</time>
      </trkpt>
      <trkpt lat="45.78736" lon="5.01114">
        <ele>181.6</ele>
        <time>2022-09-24T10:03:21Z</time>
      </trkpt>
      <trkpt lat="45.78735" lon="5.01119">
        <ele>181.6</ele>
        <time>2022-09-24T10:03:22Z</time>
      </trkpt>
      <trkpt lat="45.78736" lon="5.01126">
        <ele>181.6</ele>
        <time>2022-09-24T10:03:23Z</time>
      </trkpt>
      <trkpt lat="45.78737" lon="5.01132">
        <ele>181.6</ele>
        <time>2022-09-24T10:03:24Z</time>
      </trkpt>
      <trkpt lat="45.78738" lon="5.01141">
        <ele>181.6</ele>
        <time>2022-09-24T10:03:25Z</time>
      </trkpt>
      <trkpt lat="45.78739" lon="5.01147">
        <ele>181.6</ele>
        <time>2022-09-24T10:03:26Z</time>
      </trkpt>
      <trkpt lat="45.7874" lon="5.01153">
        <ele>181.6</ele>
        <time>2022-09-24T10:03:27Z</time>
      </trkpt>
      <trkpt lat="45.78741" lon="5.01161">
        <ele>181.5</ele>
        <time>2022-09-24T10:03:28Z</time>
      </trkpt>
      <trkpt lat="45.78742" lon="5.01168">
        <ele>181.5</ele>
        <time>2022-09-24T10:03:29Z</time>
      </trkpt>
      <trkpt lat="45.78742" lon="5.01175">
        <ele>181.6</ele>
        <time>2022-09-24T10:03:30Z</time>
      </trkpt>
      <trkpt lat="45.78742" lon="5.01181">
        <ele>181.6</ele>
        <time>2022-09-24T10:03:31Z</time>
      </trkpt>
      <trkpt lat="45.78742" lon="5.01188">
        <ele>181.6</ele>
        <time>2022-09-24T10:03:32Z</time>
      </trkpt>
      <trkpt lat="45.78741" lon="5.01194">
        <ele>181.6</ele>
        <time>2022-09-24T10:03:34Z</time>
      </trkpt>
      <trkpt lat="45.78739" lon="5.01201">
        <ele>181.7</ele>
        <time>2022-09-24T10:03:35Z</time>
      </trkpt>
      <trkpt lat="45.78739" lon="5.01207">
        <ele>181.7</ele>
        <time>2022-09-24T10:03:36Z</time>
      </trkpt>
      <trkpt lat="45.78739" lon="5.01214">
        <ele>181.7</ele>
        <time>2022-09-24T10:03:37Z</time>
      </trkpt>
      <trkpt lat="45.78738" lon="5.01221">
        <ele>181.7</ele>
        <time>2022-09-24T10:03:38Z</time>
      </trkpt>
      <trkpt lat="45.78736" lon="5.01227">
        <ele>181.7</ele>
        <time>2022-09-24T10:03:39Z</time>
      </trkpt>
      <trkpt lat="45.78736" lon="5.01234">
        <ele>181.7</ele>
        <time>2022-09-24T10:03:40Z</time>
      </trkpt>
      <trkpt lat="45.78736" lon="5.01241">
        <ele>181.8</ele>
        <time>2022-09-24T10:03:41Z</time>
      </trkpt>
      <trkpt lat="45.78736" lon="5.01249">
        <ele>181.8</ele>
        <time>2022-09-24T10:03:42Z</time>
      </trkpt>
      <trkpt lat="45.78735" lon="5.01256">
        <ele>181.8</ele>
        <time>2022-09-24T10:03:43Z</time>
      </trkpt>
      <trkpt lat="45.78734" lon="5.01263">
        <ele>181.8</ele>
        <time>2022-09-24T10:03:44Z</time>
      </trkpt>
      <trkpt lat="45.78733" lon="5.0127">
        <ele>181.8</ele>
        <time>2022-09-24T10:03:45Z</time>
      </trkpt>
      <trkpt lat="45.78732" lon="5.01277">
        <ele>181.8</ele>
        <time>2022-09-24T10:03:46Z</time>
      </trkpt>
      <trkpt lat="45.78729" lon="5.01291">
        <ele>181.9</ele>
        <time>2022-09-24T10:03:47Z</time>
      </trkpt>
      <trkpt lat="45.78728" lon="5.01297">
        <ele>181.9</ele>
        <time>2022-09-24T10:03:48Z</time>
      </trkpt>
      <trkpt lat="45.78727" lon="5.01302">
        <ele>181.9</ele>
        <time>2022-09-24T10:03:49Z</time>
      </trkpt>
      <trkpt lat="45.78726" lon="5.01307">
        <ele>181.9</ele>
        <time>2022-09-24T10:03:50Z</time>
      </trkpt>
      <trkpt lat="45.78724" lon="5.01312">
        <ele>181.9</ele>
        <time>2022-09-24T10:03:52Z</time>
      </trkpt>
      <trkpt lat="45.78723" lon="5.01314">
        <ele>181.9</ele>
        <time>2022-09-24T10:03:53Z</time>
      </trkpt>
      <trkpt lat="45.78722" lon="5.01317">
        <ele>181.9</ele>
        <time>2022-09-24T10:03:54Z</time>
      </trkpt>
      <trkpt lat="45.78721" lon="5.01322">
        <ele>181.9</ele>
        <time>2022-09-24T10:03:55Z</time>
      </trkpt>
      <trkpt lat="45.78719" lon="5.01327">
        <ele>181.9</ele>
        <time>2022-09-24T10:03:56Z</time>
      </trkpt>
      <trkpt lat="45.78718" lon="5.01332">
        <ele>181.9</ele>
        <time>2022-09-24T10:03:57Z</time>
      </trkpt>
      <trkpt lat="45.78717" lon="5.01338">
        <ele>181.9</ele>
        <time>2022-09-24T10:03:58Z</time>
      </trkpt>
      <trkpt lat="45.78715" lon="5.01343">
        <ele>181.9</ele>
        <time>2022-09-24T10:03:59Z</time>
      </trkpt>
      <trkpt lat="45.78714" lon="5.01349">
        <ele>181.9</ele>
        <time>2022-09-24T10:04:00Z</time>
      </trkpt>
      <trkpt lat="45.78712" lon="5.01355">
        <ele>181.9</ele>
        <time>2022-09-24T10:04:01Z</time>
      </trkpt>
      <trkpt lat="45.78711" lon="5.01361">
        <ele>181.9</ele>
        <time>2022-09-24T10:04:02Z</time>
      </trkpt>
      <trkpt lat="45.78709" lon="5.01367">
        <ele>181.9</ele>
        <time>2022-09-24T10:04:03Z</time>
      </trkpt>
      <trkpt lat="45.78708" lon="5.01374">
        <ele>181.9</ele>
        <time>2022-09-24T10:04:04Z</time>
      </trkpt>
      <trkpt lat="45.78706" lon="5.01381">
        <ele>181.9</ele>
        <time>2022-09-24T10:04:05Z</time>
      </trkpt>
      <trkpt lat="45.78704" lon="5.01388">
        <ele>181.9</ele>
        <time>2022-09-24T10:04:06Z</time>
      </trkpt>
      <trkpt lat="45.78702" lon="5.01396">
        <ele>181.9</ele>
        <time>2022-09-24T10:04:07Z</time>
      </trkpt>
      <trkpt lat="45.78699" lon="5.01404">
        <ele>181.9</ele>
        <time>2022-09-24T10:04:08Z</time>
      </trkpt>
      <trkpt lat="45.78697" lon="5.01411">
        <ele>181.9</ele>
        <time>2022-09-24T10:04:09Z</time>
      </trkpt>
      <trkpt lat="45.78695" lon="5.01419">
        <ele>181.9</ele>
        <time>2022-09-24T10:04:10Z</time>
      </trkpt>
      <trkpt lat="45.78692" lon="5.01427">
        <ele>181.9</ele>
        <time>2022-09-24T10:04:11Z</time>
      </trkpt>
      <trkpt lat="45.7869" lon="5.01434">
        <ele>181.9</ele>
        <time>2022-09-24T10:04:12Z</time>
      </trkpt>
      <trkpt lat="45.78688" lon="5.01442">
        <ele>181.9</ele>
        <time>2022-09-24T10:04:13Z</time>
      </trkpt>
      <trkpt lat="45.78686" lon="5.01449">
        <ele>181.9</ele>
        <time>2022-09-24T10:04:14Z</time>
      </trkpt>
      <trkpt lat="45.78683" lon="5.01457">
        <ele>181.9</ele>
        <time>2022-09-24T10:04:15Z</time>
      </trkpt>
      <trkpt lat="45.78679" lon="5.01472">
        <ele>181.9</ele>
        <time>2022-09-24T10:04:16Z</time>
      </trkpt>
      <trkpt lat="45.78676" lon="5.01479">
        <ele>181.9</ele>
        <time>2022-09-24T10:04:17Z</time>
      </trkpt>
      <trkpt lat="45.78675" lon="5.01487">
        <ele>181.9</ele>
        <time>2022-09-24T10:04:18Z</time>
      </trkpt>
      <trkpt lat="45.78673" lon="5.01494">
        <ele>181.9</ele>
        <time>2022-09-24T10:04:19Z</time>
      </trkpt>
      <trkpt lat="45.78671" lon="5.01502">
        <ele>181.9</ele>
        <time>2022-09-24T10:04:20Z</time>
      </trkpt>
      <trkpt lat="45.78669" lon="5.0151">
        <ele>181.9</ele>
        <time>2022-09-24T10:04:21Z</time>
      </trkpt>
      <trkpt lat="45.78667" lon="5.01517">
        <ele>181.9</ele>
        <time>2022-09-24T10:04:22Z</time>
      </trkpt>
      <trkpt lat="45.78666" lon="5.01526">
        <ele>181.9</ele>
        <time>2022-09-24T10:04:23Z</time>
      </trkpt>
      <trkpt lat="45.78664" lon="5.01534">
        <ele>181.9</ele>
        <time>2022-09-24T10:04:24Z</time>
      </trkpt>
      <trkpt lat="45.78663" lon="5.01542">
        <ele>181.9</ele>
        <time>2022-09-24T10:04:25Z</time>
      </trkpt>
      <trkpt lat="45.78661" lon="5.01551">
        <ele>181.9</ele>
        <time>2022-09-24T10:04:26Z</time>
      </trkpt>
      <trkpt lat="45.7866" lon="5.01558">
        <ele>181.9</ele>
        <time>2022-09-24T10:04:27Z</time>
      </trkpt>
      <trkpt lat="45.78659" lon="5.01566">
        <ele>181.8</ele>
        <time>2022-09-24T10:04:28Z</time>
      </trkpt>
      <trkpt lat="45.78658" lon="5.01575">
        <ele>181.8</ele>
        <time>2022-09-24T10:04:29Z</time>
      </trkpt>
      <trkpt lat="45.78656" lon="5.01583">
        <ele>181.8</ele>
        <time>2022-09-24T10:04:30Z</time>
      </trkpt>
      <trkpt lat="45.78655" lon="5.01591">
        <ele>181.8</ele>
        <time>2022-09-24T10:04:31Z</time>
      </trkpt>
      <trkpt lat="45.78654" lon="5.01599">
        <ele>181.8</ele>
        <time>2022-09-24T10:04:32Z</time>
      </trkpt>
      <trkpt lat="45.78654" lon="5.01607">
        <ele>181.8</ele>
        <time>2022-09-24T10:04:33Z</time>
      </trkpt>
      <trkpt lat="45.78653" lon="5.01616">
        <ele>181.8</ele>
        <time>2022-09-24T10:04:34Z</time>
      </trkpt>
      <trkpt lat="45.78653" lon="5.01624">
        <ele>181.8</ele>
        <time>2022-09-24T10:04:35Z</time>
      </trkpt>
      <trkpt lat="45.78652" lon="5.01632">
        <ele>181.8</ele>
        <time>2022-09-24T10:04:36Z</time>
      </trkpt>
      <trkpt lat="45.78651" lon="5.01641">
        <ele>181.8</ele>
        <time>2022-09-24T10:04:37Z</time>
      </trkpt>
      <trkpt lat="45.78651" lon="5.01649">
        <ele>181.8</ele>
        <time>2022-09-24T10:04:38Z</time>
      </trkpt>
      <trkpt lat="45.78651" lon="5.01657">
        <ele>181.8</ele>
        <time>2022-09-24T10:04:39Z</time>
      </trkpt>
      <trkpt lat="45.78651" lon="5.01666">
        <ele>181.8</ele>
        <time>2022-09-24T10:04:40Z</time>
      </trkpt>
      <trkpt lat="45.7865" lon="5.01674">
        <ele>181.8</ele>
        <time>2022-09-24T10:04:41Z</time>
      </trkpt>
      <trkpt lat="45.78651" lon="5.01682">
        <ele>181.7</ele>
        <time>2022-09-24T10:04:42Z</time>
      </trkpt>
      <trkpt lat="45.7865" lon="5.0169">
        <ele>181.7</ele>
        <time>2022-09-24T10:04:43Z</time>
      </trkpt>
      <trkpt lat="45.7865" lon="5.01697">
        <ele>181.7</ele>
        <time>2022-09-24T10:04:44Z</time>
      </trkpt>
      <trkpt lat="45.7865" lon="5.01705">
        <ele>181.7</ele>
        <time>2022-09-24T10:04:45Z</time>
      </trkpt>
      <trkpt lat="45.78651" lon="5.01713">
        <ele>181.7</ele>
        <time>2022-09-24T10:04:46Z</time>
      </trkpt>
      <trkpt lat="45.78651" lon="5.01721">
        <ele>181.7</ele>
        <time>2022-09-24T10:04:47Z</time>
      </trkpt>
      <trkpt lat="45.78651" lon="5.01728">
        <ele>181.7</ele>
        <time>2022-09-24T10:04:48Z</time>
      </trkpt>
      <trkpt lat="45.78652" lon="5.01736">
        <ele>181.7</ele>
        <time>2022-09-24T10:04:49Z</time>
      </trkpt>
      <trkpt lat="45.78652" lon="5.01744">
        <ele>181.7</ele>
        <time>2022-09-24T10:04:50Z</time>
      </trkpt>
      <trkpt lat="45.78653" lon="5.01751">
        <ele>181.7</ele>
        <time>2022-09-24T10:04:51Z</time>
      </trkpt>
      <trkpt lat="45.78654" lon="5.01759">
        <ele>181.7</ele>
        <time>2022-09-24T10:04:52Z</time>
      </trkpt>
      <trkpt lat="45.78655" lon="5.01766">
        <ele>181.7</ele>
        <time>2022-09-24T10:04:53Z</time>
      </trkpt>
      <trkpt lat="45.78656" lon="5.01773">
        <ele>181.7</ele>
        <time>2022-09-24T10:04:54Z</time>
      </trkpt>
      <trkpt lat="45.78657" lon="5.0178">
        <ele>181.7</ele>
        <time>2022-09-24T10:04:55Z</time>
      </trkpt>
      <trkpt lat="45.78658" lon="5.01788">
        <ele>181.7</ele>
        <time>2022-09-24T10:04:56Z</time>
      </trkpt>
      <trkpt lat="45.78658" lon="5.01796">
        <ele>181.7</ele>
        <time>2022-09-24T10:04:57Z</time>
      </trkpt>
      <trkpt lat="45.78659" lon="5.01803">
        <ele>181.7</ele>
        <time>2022-09-24T10:04:58Z</time>
      </trkpt>
      <trkpt lat="45.78661" lon="5.01811">
        <ele>181.7</ele>
        <time>2022-09-24T10:04:59Z</time>
      </trkpt>
      <trkpt lat="45.78662" lon="5.01819">
        <ele>181.7</ele>
        <time>2022-09-24T10:05:00Z</time>
      </trkpt>
      <trkpt lat="45.78663" lon="5.01826">
        <ele>181.7</ele>
        <time>2022-09-24T10:05:01Z</time>
      </trkpt>
      <trkpt lat="45.78665" lon="5.01833">
        <ele>181.7</ele>
        <time>2022-09-24T10:05:02Z</time>
      </trkpt>
      <trkpt lat="45.78667" lon="5.01841">
        <ele>181.7</ele>
        <time>2022-09-24T10:05:03Z</time>
      </trkpt>
      <trkpt lat="45.78668" lon="5.01848">
        <ele>181.7</ele>
        <time>2022-09-24T10:05:04Z</time>
      </trkpt>
      <trkpt lat="45.78669" lon="5.01856">
        <ele>181.7</ele>
        <time>2022-09-24T10:05:05Z</time>
      </trkpt>
      <trkpt lat="45.78671" lon="5.01864">
        <ele>181.7</ele>
        <time>2022-09-24T10:05:06Z</time>
      </trkpt>
      <trkpt lat="45.78673" lon="5.01871">
        <ele>181.7</ele>
        <time>2022-09-24T10:05:07Z</time>
      </trkpt>
      <trkpt lat="45.78675" lon="5.01877">
        <ele>181.7</ele>
        <time>2022-09-24T10:05:08Z</time>
      </trkpt>
      <trkpt lat="45.78677" lon="5.01885">
        <ele>181.7</ele>
        <time>2022-09-24T10:05:09Z</time>
      </trkpt>
      <trkpt lat="45.78678" lon="5.01892">
        <ele>181.6</ele>
        <time>2022-09-24T10:05:10Z</time>
      </trkpt>
      <trkpt lat="45.78681" lon="5.01899">
        <ele>181.6</ele>
        <time>2022-09-24T10:05:11Z</time>
      </trkpt>
      <trkpt lat="45.78683" lon="5.01906">
        <ele>181.6</ele>
        <time>2022-09-24T10:05:12Z</time>
      </trkpt>
      <trkpt lat="45.78685" lon="5.01914">
        <ele>181.6</ele>
        <time>2022-09-24T10:05:13Z</time>
      </trkpt>
      <trkpt lat="45.78687" lon="5.01921">
        <ele>181.7</ele>
        <time>2022-09-24T10:05:14Z</time>
      </trkpt>
      <trkpt lat="45.7869" lon="5.01928">
        <ele>181.7</ele>
        <time>2022-09-24T10:05:15Z</time>
      </trkpt>
      <trkpt lat="45.78692" lon="5.01934">
        <ele>181.7</ele>
        <time>2022-09-24T10:05:16Z</time>
      </trkpt>
      <trkpt lat="45.78695" lon="5.01942">
        <ele>181.7</ele>
        <time>2022-09-24T10:05:17Z</time>
      </trkpt>
      <trkpt lat="45.78697" lon="5.01948">
        <ele>181.7</ele>
        <time>2022-09-24T10:05:18Z</time>
      </trkpt>
      <trkpt lat="45.787" lon="5.01955">
        <ele>181.7</ele>
        <time>2022-09-24T10:05:19Z</time>
      </trkpt>
      <trkpt lat="45.78703" lon="5.01961">
        <ele>181.7</ele>
        <time>2022-09-24T10:05:20Z</time>
      </trkpt>
      <trkpt lat="45.78705" lon="5.01968">
        <ele>181.7</ele>
        <time>2022-09-24T10:05:21Z</time>
      </trkpt>
      <trkpt lat="45.78708" lon="5.01975">
        <ele>181.6</ele>
        <time>2022-09-24T10:05:22Z</time>
      </trkpt>
      <trkpt lat="45.78711" lon="5.01982">
        <ele>181.6</ele>
        <time>2022-09-24T10:05:23Z</time>
      </trkpt>
      <trkpt lat="45.78714" lon="5.01989">
        <ele>181.6</ele>
        <time>2022-09-24T10:05:24Z</time>
      </trkpt>
      <trkpt lat="45.78717" lon="5.01995">
        <ele>181.7</ele>
        <time>2022-09-24T10:05:25Z</time>
      </trkpt>
      <trkpt lat="45.7872" lon="5.02002">
        <ele>181.7</ele>
        <time>2022-09-24T10:05:26Z</time>
      </trkpt>
      <trkpt lat="45.78724" lon="5.02008">
        <ele>181.7</ele>
        <time>2022-09-24T10:05:27Z</time>
      </trkpt>
      <trkpt lat="45.78728" lon="5.02014">
        <ele>181.8</ele>
        <time>2022-09-24T10:05:28Z</time>
      </trkpt>
      <trkpt lat="45.7873" lon="5.0202">
        <ele>181.8</ele>
        <time>2022-09-24T10:05:29Z</time>
      </trkpt>
      <trkpt lat="45.78732" lon="5.02026">
        <ele>181.8</ele>
        <time>2022-09-24T10:05:30Z</time>
      </trkpt>
      <trkpt lat="45.78736" lon="5.02032">
        <ele>181.8</ele>
        <time>2022-09-24T10:05:31Z</time>
      </trkpt>
      <trkpt lat="45.78739" lon="5.02038">
        <ele>181.8</ele>
        <time>2022-09-24T10:05:32Z</time>
      </trkpt>
      <trkpt lat="45.78742" lon="5.02043">
        <ele>181.8</ele>
        <time>2022-09-24T10:05:33Z</time>
      </trkpt>
      <trkpt lat="45.78745" lon="5.02049">
        <ele>181.8</ele>
        <time>2022-09-24T10:05:34Z</time>
      </trkpt>
      <trkpt lat="45.78749" lon="5.02055">
        <ele>181.8</ele>
        <time>2022-09-24T10:05:35Z</time>
      </trkpt>
      <trkpt lat="45.78753" lon="5.02061">
        <ele>181.8</ele>
        <time>2022-09-24T10:05:36Z</time>
      </trkpt>
      <trkpt lat="45.78756" lon="5.02066">
        <ele>181.7</ele>
        <time>2022-09-24T10:05:37Z</time>
      </trkpt>
      <trkpt lat="45.78759" lon="5.02072">
        <ele>181.7</ele>
        <time>2022-09-24T10:05:38Z</time>
      </trkpt>
      <trkpt lat="45.78763" lon="5.02077">
        <ele>181.7</ele>
        <time>2022-09-24T10:05:40Z</time>
      </trkpt>
      <trkpt lat="45.78766" lon="5.02082">
        <ele>181.7</ele>
        <time>2022-09-24T10:05:41Z</time>
      </trkpt>
      <trkpt lat="45.7877" lon="5.02087">
        <ele>181.6</ele>
        <time>2022-09-24T10:05:42Z</time>
      </trkpt>
      <trkpt lat="45.78774" lon="5.02092">
        <ele>181.7</ele>
        <time>2022-09-24T10:05:43Z</time>
      </trkpt>
      <trkpt lat="45.78778" lon="5.02099">
        <ele>181.7</ele>
        <time>2022-09-24T10:05:44Z</time>
      </trkpt>
      <trkpt lat="45.78782" lon="5.02104">
        <ele>181.7</ele>
        <time>2022-09-24T10:05:45Z</time>
      </trkpt>
      <trkpt lat="45.78786" lon="5.02109">
        <ele>181.7</ele>
        <time>2022-09-24T10:05:46Z</time>
      </trkpt>
      <trkpt lat="45.7879" lon="5.02114">
        <ele>181.7</ele>
        <time>2022-09-24T10:05:47Z</time>
      </trkpt>
      <trkpt lat="45.78794" lon="5.02118">
        <ele>181.7</ele>
        <time>2022-09-24T10:05:48Z</time>
      </trkpt>
      <trkpt lat="45.78802" lon="5.02127">
        <ele>181.7</ele>
        <time>2022-09-24T10:05:49Z</time>
      </trkpt>
      <trkpt lat="45.78806" lon="5.02132">
        <ele>181.7</ele>
        <time>2022-09-24T10:05:50Z</time>
      </trkpt>
      <trkpt lat="45.7881" lon="5.02137">
        <ele>181.7</ele>
        <time>2022-09-24T10:05:51Z</time>
      </trkpt>
      <trkpt lat="45.78814" lon="5.02142">
        <ele>181.7</ele>
        <time>2022-09-24T10:05:52Z</time>
      </trkpt>
      <trkpt lat="45.78819" lon="5.02147">
        <ele>181.7</ele>
        <time>2022-09-24T10:05:53Z</time>
      </trkpt>
      <trkpt lat="45.78823" lon="5.02151">
        <ele>181.7</ele>
        <time>2022-09-24T10:05:54Z</time>
      </trkpt>
      <trkpt lat="45.78826" lon="5.02156">
        <ele>181.7</ele>
        <time>2022-09-24T10:05:55Z</time>
      </trkpt>
      <trkpt lat="45.7883" lon="5.0216">
        <ele>181.7</ele>
        <time>2022-09-24T10:05:56Z</time>
      </trkpt>
      <trkpt lat="45.78835" lon="5.02165">
        <ele>181.7</ele>
        <time>2022-09-24T10:05:57Z</time>
      </trkpt>
      <trkpt lat="45.78838" lon="5.02169">
        <ele>181.7</ele>
        <time>2022-09-24T10:05:58Z</time>
      </trkpt>
      <trkpt lat="45.78842" lon="5.02174">
        <ele>181.7</ele>
        <time>2022-09-24T10:05:59Z</time>
      </trkpt>
      <trkpt lat="45.78846" lon="5.02178">
        <ele>181.7</ele>
        <time>2022-09-24T10:06:00Z</time>
      </trkpt>
      <trkpt lat="45.7885" lon="5.02182">
        <ele>181.8</ele>
        <time>2022-09-24T10:06:01Z</time>
      </trkpt>
      <trkpt lat="45.78854" lon="5.02187">
        <ele>181.8</ele>
        <time>2022-09-24T10:06:02Z</time>
      </trkpt>
      <trkpt lat="45.78859" lon="5.02192">
        <ele>181.8</ele>
        <time>2022-09-24T10:06:03Z</time>
      </trkpt>
      <trkpt lat="45.78863" lon="5.02197">
        <ele>181.8</ele>
        <time>2022-09-24T10:06:04Z</time>
      </trkpt>
      <trkpt lat="45.78867" lon="5.022">
        <ele>181.8</ele>
        <time>2022-09-24T10:06:05Z</time>
      </trkpt>
      <trkpt lat="45.78871" lon="5.02206">
        <ele>181.8</ele>
        <time>2022-09-24T10:06:06Z</time>
      </trkpt>
      <trkpt lat="45.78876" lon="5.02211">
        <ele>181.8</ele>
        <time>2022-09-24T10:06:07Z</time>
      </trkpt>
      <trkpt lat="45.7888" lon="5.02215">
        <ele>181.8</ele>
        <time>2022-09-24T10:06:08Z</time>
      </trkpt>
      <trkpt lat="45.78883" lon="5.02218">
        <ele>181.8</ele>
        <time>2022-09-24T10:06:09Z</time>
      </trkpt>
      <trkpt lat="45.78888" lon="5.02223">
        <ele>181.8</ele>
        <time>2022-09-24T10:06:10Z</time>
      </trkpt>
      <trkpt lat="45.78891" lon="5.02227">
        <ele>181.8</ele>
        <time>2022-09-24T10:06:11Z</time>
      </trkpt>
      <trkpt lat="45.78896" lon="5.02232">
        <ele>181.9</ele>
        <time>2022-09-24T10:06:12Z</time>
      </trkpt>
      <trkpt lat="45.789" lon="5.02237">
        <ele>181.9</ele>
        <time>2022-09-24T10:06:13Z</time>
      </trkpt>
      <trkpt lat="45.78905" lon="5.02241">
        <ele>181.9</ele>
        <time>2022-09-24T10:06:14Z</time>
      </trkpt>
      <trkpt lat="45.78908" lon="5.02245">
        <ele>181.9</ele>
        <time>2022-09-24T10:06:15Z</time>
      </trkpt>
      <trkpt lat="45.78912" lon="5.02249">
        <ele>181.9</ele>
        <time>2022-09-24T10:06:16Z</time>
      </trkpt>
      <trkpt lat="45.78917" lon="5.02253">
        <ele>182</ele>
        <time>2022-09-24T10:06:17Z</time>
      </trkpt>
      <trkpt lat="45.78921" lon="5.02258">
        <ele>182.2</ele>
        <time>2022-09-24T10:06:18Z</time>
      </trkpt>
      <trkpt lat="45.78924" lon="5.02261">
        <ele>182.3</ele>
        <time>2022-09-24T10:06:19Z</time>
      </trkpt>
      <trkpt lat="45.78929" lon="5.02266">
        <ele>182.5</ele>
        <time>2022-09-24T10:06:20Z</time>
      </trkpt>
      <trkpt lat="45.78934" lon="5.02271">
        <ele>182.8</ele>
        <time>2022-09-24T10:06:21Z</time>
      </trkpt>
      <trkpt lat="45.78938" lon="5.02275">
        <ele>183</ele>
        <time>2022-09-24T10:06:22Z</time>
      </trkpt>
      <trkpt lat="45.78943" lon="5.02281">
        <ele>183.3</ele>
        <time>2022-09-24T10:06:23Z</time>
      </trkpt>
      <trkpt lat="45.78947" lon="5.02285">
        <ele>183.6</ele>
        <time>2022-09-24T10:06:24Z</time>
      </trkpt>
      <trkpt lat="45.78952" lon="5.02291">
        <ele>183.9</ele>
        <time>2022-09-24T10:06:25Z</time>
      </trkpt>
      <trkpt lat="45.78956" lon="5.02295">
        <ele>184.2</ele>
        <time>2022-09-24T10:06:26Z</time>
      </trkpt>
      <trkpt lat="45.78959" lon="5.02299">
        <ele>184.4</ele>
        <time>2022-09-24T10:06:27Z</time>
      </trkpt>
      <trkpt lat="45.78963" lon="5.02304">
        <ele>184.6</ele>
        <time>2022-09-24T10:06:28Z</time>
      </trkpt>
      <trkpt lat="45.78967" lon="5.02309">
        <ele>184.9</ele>
        <time>2022-09-24T10:06:29Z</time>
      </trkpt>
      <trkpt lat="45.78971" lon="5.02314">
        <ele>185.1</ele>
        <time>2022-09-24T10:06:30Z</time>
      </trkpt>
      <trkpt lat="45.78974" lon="5.02318">
        <ele>185.2</ele>
        <time>2022-09-24T10:06:31Z</time>
      </trkpt>
      <trkpt lat="45.78977" lon="5.02323">
        <ele>185.4</ele>
        <time>2022-09-24T10:06:32Z</time>
      </trkpt>
      <trkpt lat="45.78981" lon="5.02327">
        <ele>185.5</ele>
        <time>2022-09-24T10:06:33Z</time>
      </trkpt>
      <trkpt lat="45.78984" lon="5.02331">
        <ele>185.6</ele>
        <time>2022-09-24T10:06:34Z</time>
      </trkpt>
      <trkpt lat="45.78987" lon="5.02336">
        <ele>185.7</ele>
        <time>2022-09-24T10:06:35Z</time>
      </trkpt>
      <trkpt lat="45.7899" lon="5.02341">
        <ele>185.8</ele>
        <time>2022-09-24T10:06:36Z</time>
      </trkpt>
      <trkpt lat="45.78994" lon="5.02344">
        <ele>185.8</ele>
        <time>2022-09-24T10:06:37Z</time>
      </trkpt>
      <trkpt lat="45.78998" lon="5.02349">
        <ele>185.9</ele>
        <time>2022-09-24T10:06:38Z</time>
      </trkpt>
      <trkpt lat="45.79" lon="5.02352">
        <ele>185.9</ele>
        <time>2022-09-24T10:06:39Z</time>
      </trkpt>
      <trkpt lat="45.79003" lon="5.02355">
        <ele>185.9</ele>
        <time>2022-09-24T10:06:40Z</time>
      </trkpt>
      <trkpt lat="45.79006" lon="5.02357">
        <ele>185.9</ele>
        <time>2022-09-24T10:06:41Z</time>
      </trkpt>
      <trkpt lat="45.7901" lon="5.02363">
        <ele>185.9</ele>
        <time>2022-09-24T10:06:42Z</time>
      </trkpt>
      <trkpt lat="45.79014" lon="5.02366">
        <ele>185.9</ele>
        <time>2022-09-24T10:06:43Z</time>
      </trkpt>
      <trkpt lat="45.79016" lon="5.0237">
        <ele>185.9</ele>
        <time>2022-09-24T10:06:44Z</time>
      </trkpt>
      <trkpt lat="45.7902" lon="5.02375">
        <ele>185.9</ele>
        <time>2022-09-24T10:06:45Z</time>
      </trkpt>
      <trkpt lat="45.79024" lon="5.02378">
        <ele>185.9</ele>
        <time>2022-09-24T10:06:46Z</time>
      </trkpt>
      <trkpt lat="45.79027" lon="5.02383">
        <ele>185.9</ele>
        <time>2022-09-24T10:06:47Z</time>
      </trkpt>
      <trkpt lat="45.79031" lon="5.02387">
        <ele>185.9</ele>
        <time>2022-09-24T10:06:48Z</time>
      </trkpt>
      <trkpt lat="45.79036" lon="5.02391">
        <ele>185.9</ele>
        <time>2022-09-24T10:06:49Z</time>
      </trkpt>
      <trkpt lat="45.7904" lon="5.02394">
        <ele>185.9</ele>
        <time>2022-09-24T10:06:50Z</time>
      </trkpt>
      <trkpt lat="45.79043" lon="5.02396">
        <ele>185.9</ele>
        <time>2022-09-24T10:06:51Z</time>
      </trkpt>
      <trkpt lat="45.79047" lon="5.02399">
        <ele>185.9</ele>
        <time>2022-09-24T10:06:52Z</time>
      </trkpt>
      <trkpt lat="45.79051" lon="5.02404">
        <ele>185.9</ele>
        <time>2022-09-24T10:06:53Z</time>
      </trkpt>
      <trkpt lat="45.79055" lon="5.0241">
        <ele>185.9</ele>
        <time>2022-09-24T10:06:54Z</time>
      </trkpt>
      <trkpt lat="45.7906" lon="5.02414">
        <ele>185.8</ele>
        <time>2022-09-24T10:06:55Z</time>
      </trkpt>
      <trkpt lat="45.79065" lon="5.02418">
        <ele>185.8</ele>
        <time>2022-09-24T10:06:56Z</time>
      </trkpt>
      <trkpt lat="45.79069" lon="5.02422">
        <ele>185.8</ele>
        <time>2022-09-24T10:06:57Z</time>
      </trkpt>
      <trkpt lat="45.79074" lon="5.02426">
        <ele>185.8</ele>
        <time>2022-09-24T10:06:58Z</time>
      </trkpt>
      <trkpt lat="45.79079" lon="5.0243">
        <ele>185.8</ele>
        <time>2022-09-24T10:06:59Z</time>
      </trkpt>
      <trkpt lat="45.79083" lon="5.02433">
        <ele>185.8</ele>
        <time>2022-09-24T10:07:00Z</time>
      </trkpt>
      <trkpt lat="45.79088" lon="5.02436">
        <ele>185.8</ele>
        <time>2022-09-24T10:07:01Z</time>
      </trkpt>
      <trkpt lat="45.79092" lon="5.0244">
        <ele>185.8</ele>
        <time>2022-09-24T10:07:02Z</time>
      </trkpt>
      <trkpt lat="45.79096" lon="5.02443">
        <ele>185.8</ele>
        <time>2022-09-24T10:07:03Z</time>
      </trkpt>
      <trkpt lat="45.79102" lon="5.02446">
        <ele>185.8</ele>
        <time>2022-09-24T10:07:04Z</time>
      </trkpt>
      <trkpt lat="45.79105" lon="5.02449">
        <ele>185.8</ele>
        <time>2022-09-24T10:07:05Z</time>
      </trkpt>
      <trkpt lat="45.7911" lon="5.02453">
        <ele>185.8</ele>
        <time>2022-09-24T10:07:06Z</time>
      </trkpt>
      <trkpt lat="45.79113" lon="5.02457">
        <ele>185.8</ele>
        <time>2022-09-24T10:07:07Z</time>
      </trkpt>
      <trkpt lat="45.79118" lon="5.02461">
        <ele>185.8</ele>
        <time>2022-09-24T10:07:08Z</time>
      </trkpt>
      <trkpt lat="45.79122" lon="5.02465">
        <ele>185.8</ele>
        <time>2022-09-24T10:07:09Z</time>
      </trkpt>
      <trkpt lat="45.79125" lon="5.02469">
        <ele>185.8</ele>
        <time>2022-09-24T10:07:10Z</time>
      </trkpt>
      <trkpt lat="45.79129" lon="5.02473">
        <ele>185.9</ele>
        <time>2022-09-24T10:07:11Z</time>
      </trkpt>
      <trkpt lat="45.79133" lon="5.02477">
        <ele>185.9</ele>
        <time>2022-09-24T10:07:12Z</time>
      </trkpt>
      <trkpt lat="45.79137" lon="5.02481">
        <ele>185.9</ele>
        <time>2022-09-24T10:07:13Z</time>
      </trkpt>
      <trkpt lat="45.79141" lon="5.02485">
        <ele>185.9</ele>
        <time>2022-09-24T10:07:14Z</time>
      </trkpt>
      <trkpt lat="45.79146" lon="5.0249">
        <ele>185.9</ele>
        <time>2022-09-24T10:07:15Z</time>
      </trkpt>
      <trkpt lat="45.7915" lon="5.02494">
        <ele>185.9</ele>
        <time>2022-09-24T10:07:16Z</time>
      </trkpt>
      <trkpt lat="45.79154" lon="5.02498">
        <ele>185.9</ele>
        <time>2022-09-24T10:07:17Z</time>
      </trkpt>
      <trkpt lat="45.79157" lon="5.02502">
        <ele>185.9</ele>
        <time>2022-09-24T10:07:18Z</time>
      </trkpt>
      <trkpt lat="45.79161" lon="5.02505">
        <ele>185.9</ele>
        <time>2022-09-24T10:07:19Z</time>
      </trkpt>
      <trkpt lat="45.79165" lon="5.0251">
        <ele>185.9</ele>
        <time>2022-09-24T10:07:20Z</time>
      </trkpt>
      <trkpt lat="45.79169" lon="5.02514">
        <ele>186</ele>
        <time>2022-09-24T10:07:21Z</time>
      </trkpt>
      <trkpt lat="45.79173" lon="5.02518">
        <ele>186</ele>
        <time>2022-09-24T10:07:22Z</time>
      </trkpt>
      <trkpt lat="45.79177" lon="5.02522">
        <ele>186</ele>
        <time>2022-09-24T10:07:23Z</time>
      </trkpt>
      <trkpt lat="45.7918" lon="5.02526">
        <ele>186</ele>
        <time>2022-09-24T10:07:24Z</time>
      </trkpt>
      <trkpt lat="45.79184" lon="5.02529">
        <ele>185.9</ele>
        <time>2022-09-24T10:07:25Z</time>
      </trkpt>
      <trkpt lat="45.79188" lon="5.02534">
        <ele>185.9</ele>
        <time>2022-09-24T10:07:26Z</time>
      </trkpt>
      <trkpt lat="45.79193" lon="5.02538">
        <ele>185.9</ele>
        <time>2022-09-24T10:07:27Z</time>
      </trkpt>
      <trkpt lat="45.79197" lon="5.02542">
        <ele>185.9</ele>
        <time>2022-09-24T10:07:28Z</time>
      </trkpt>
      <trkpt lat="45.79201" lon="5.02548">
        <ele>185.9</ele>
        <time>2022-09-24T10:07:29Z</time>
      </trkpt>
      <trkpt lat="45.79206" lon="5.02553">
        <ele>185.9</ele>
        <time>2022-09-24T10:07:30Z</time>
      </trkpt>
      <trkpt lat="45.79211" lon="5.02557">
        <ele>185.9</ele>
        <time>2022-09-24T10:07:31Z</time>
      </trkpt>
      <trkpt lat="45.79215" lon="5.02562">
        <ele>185.9</ele>
        <time>2022-09-24T10:07:32Z</time>
      </trkpt>
      <trkpt lat="45.7922" lon="5.02568">
        <ele>185.9</ele>
        <time>2022-09-24T10:07:33Z</time>
      </trkpt>
      <trkpt lat="45.79224" lon="5.02572">
        <ele>185.9</ele>
        <time>2022-09-24T10:07:34Z</time>
      </trkpt>
      <trkpt lat="45.79229" lon="5.02577">
        <ele>185.9</ele>
        <time>2022-09-24T10:07:35Z</time>
      </trkpt>
      <trkpt lat="45.79233" lon="5.02582">
        <ele>185.9</ele>
        <time>2022-09-24T10:07:36Z</time>
      </trkpt>
      <trkpt lat="45.79238" lon="5.02587">
        <ele>185.9</ele>
        <time>2022-09-24T10:07:37Z</time>
      </trkpt>
      <trkpt lat="45.79242" lon="5.02593">
        <ele>185.9</ele>
        <time>2022-09-24T10:07:38Z</time>
      </trkpt>
      <trkpt lat="45.79247" lon="5.02599">
        <ele>185.9</ele>
        <time>2022-09-24T10:07:39Z</time>
      </trkpt>
      <trkpt lat="45.79251" lon="5.02603">
        <ele>185.9</ele>
        <time>2022-09-24T10:07:40Z</time>
      </trkpt>
      <trkpt lat="45.79255" lon="5.02608">
        <ele>185.9</ele>
        <time>2022-09-24T10:07:41Z</time>
      </trkpt>
      <trkpt lat="45.7926" lon="5.02614">
        <ele>186</ele>
        <time>2022-09-24T10:07:42Z</time>
      </trkpt>
      <trkpt lat="45.79264" lon="5.02619">
        <ele>186</ele>
        <time>2022-09-24T10:07:43Z</time>
      </trkpt>
      <trkpt lat="45.79268" lon="5.02624">
        <ele>186</ele>
        <time>2022-09-24T10:07:44Z</time>
      </trkpt>
      <trkpt lat="45.79272" lon="5.02629">
        <ele>186</ele>
        <time>2022-09-24T10:07:46Z</time>
      </trkpt>
      <trkpt lat="45.79277" lon="5.02635">
        <ele>186</ele>
        <time>2022-09-24T10:07:47Z</time>
      </trkpt>
      <trkpt lat="45.79281" lon="5.0264">
        <ele>186</ele>
        <time>2022-09-24T10:07:48Z</time>
      </trkpt>
      <trkpt lat="45.79285" lon="5.02645">
        <ele>186</ele>
        <time>2022-09-24T10:07:49Z</time>
      </trkpt>
      <trkpt lat="45.7929" lon="5.02651">
        <ele>186</ele>
        <time>2022-09-24T10:07:50Z</time>
      </trkpt>
      <trkpt lat="45.79294" lon="5.02656">
        <ele>186</ele>
        <time>2022-09-24T10:07:51Z</time>
      </trkpt>
      <trkpt lat="45.79298" lon="5.02662">
        <ele>186</ele>
        <time>2022-09-24T10:07:52Z</time>
      </trkpt>
      <trkpt lat="45.79302" lon="5.02667">
        <ele>186</ele>
        <time>2022-09-24T10:07:53Z</time>
      </trkpt>
      <trkpt lat="45.79307" lon="5.02672">
        <ele>186</ele>
        <time>2022-09-24T10:07:54Z</time>
      </trkpt>
      <trkpt lat="45.79311" lon="5.02677">
        <ele>186</ele>
        <time>2022-09-24T10:07:55Z</time>
      </trkpt>
      <trkpt lat="45.79315" lon="5.02683">
        <ele>186</ele>
        <time>2022-09-24T10:07:56Z</time>
      </trkpt>
      <trkpt lat="45.79319" lon="5.02688">
        <ele>186</ele>
        <time>2022-09-24T10:07:57Z</time>
      </trkpt>
      <trkpt lat="45.79323" lon="5.02693">
        <ele>186</ele>
        <time>2022-09-24T10:07:58Z</time>
      </trkpt>
      <trkpt lat="45.79331" lon="5.02703">
        <ele>186</ele>
        <time>2022-09-24T10:07:59Z</time>
      </trkpt>
      <trkpt lat="45.79335" lon="5.02709">
        <ele>186</ele>
        <time>2022-09-24T10:08:00Z</time>
      </trkpt>
      <trkpt lat="45.79339" lon="5.02714">
        <ele>186</ele>
        <time>2022-09-24T10:08:01Z</time>
      </trkpt>
      <trkpt lat="45.79343" lon="5.02719">
        <ele>186</ele>
        <time>2022-09-24T10:08:02Z</time>
      </trkpt>
      <trkpt lat="45.79346" lon="5.02724">
        <ele>186</ele>
        <time>2022-09-24T10:08:03Z</time>
      </trkpt>
      <trkpt lat="45.7935" lon="5.02729">
        <ele>186</ele>
        <time>2022-09-24T10:08:04Z</time>
      </trkpt>
      <trkpt lat="45.79354" lon="5.02734">
        <ele>186</ele>
        <time>2022-09-24T10:08:05Z</time>
      </trkpt>
      <trkpt lat="45.79358" lon="5.02739">
        <ele>185.9</ele>
        <time>2022-09-24T10:08:06Z</time>
      </trkpt>
      <trkpt lat="45.79362" lon="5.02744">
        <ele>185.9</ele>
        <time>2022-09-24T10:08:07Z</time>
      </trkpt>
      <trkpt lat="45.79365" lon="5.0275">
        <ele>185.9</ele>
        <time>2022-09-24T10:08:08Z</time>
      </trkpt>
      <trkpt lat="45.79369" lon="5.02755">
        <ele>185.9</ele>
        <time>2022-09-24T10:08:09Z</time>
      </trkpt>
      <trkpt lat="45.79372" lon="5.0276">
        <ele>185.9</ele>
        <time>2022-09-24T10:08:10Z</time>
      </trkpt>
      <trkpt lat="45.79377" lon="5.02765">
        <ele>185.9</ele>
        <time>2022-09-24T10:08:11Z</time>
      </trkpt>
      <trkpt lat="45.7938" lon="5.0277">
        <ele>185.9</ele>
        <time>2022-09-24T10:08:12Z</time>
      </trkpt>
      <trkpt lat="45.79384" lon="5.02776">
        <ele>185.9</ele>
        <time>2022-09-24T10:08:13Z</time>
      </trkpt>
      <trkpt lat="45.79388" lon="5.02781">
        <ele>185.8</ele>
        <time>2022-09-24T10:08:14Z</time>
      </trkpt>
      <trkpt lat="45.79392" lon="5.02787">
        <ele>185.8</ele>
        <time>2022-09-24T10:08:15Z</time>
      </trkpt>
      <trkpt lat="45.79395" lon="5.02792">
        <ele>185.8</ele>
        <time>2022-09-24T10:08:16Z</time>
      </trkpt>
      <trkpt lat="45.79399" lon="5.02797">
        <ele>185.8</ele>
        <time>2022-09-24T10:08:17Z</time>
      </trkpt>
      <trkpt lat="45.79402" lon="5.02802">
        <ele>185.8</ele>
        <time>2022-09-24T10:08:18Z</time>
      </trkpt>
      <trkpt lat="45.79406" lon="5.02808">
        <ele>185.8</ele>
        <time>2022-09-24T10:08:19Z</time>
      </trkpt>
      <trkpt lat="45.7941" lon="5.02813">
        <ele>185.8</ele>
        <time>2022-09-24T10:08:20Z</time>
      </trkpt>
      <trkpt lat="45.79414" lon="5.02819">
        <ele>185.8</ele>
        <time>2022-09-24T10:08:21Z</time>
      </trkpt>
      <trkpt lat="45.79417" lon="5.02823">
        <ele>185.8</ele>
        <time>2022-09-24T10:08:22Z</time>
      </trkpt>
      <trkpt lat="45.79421" lon="5.02829">
        <ele>185.8</ele>
        <time>2022-09-24T10:08:23Z</time>
      </trkpt>
      <trkpt lat="45.79425" lon="5.02835">
        <ele>185.8</ele>
        <time>2022-09-24T10:08:24Z</time>
      </trkpt>
      <trkpt lat="45.79429" lon="5.02841">
        <ele>185.8</ele>
        <time>2022-09-24T10:08:25Z</time>
      </trkpt>
      <trkpt lat="45.79433" lon="5.02847">
        <ele>185.8</ele>
        <time>2022-09-24T10:08:26Z</time>
      </trkpt>
      <trkpt lat="45.79436" lon="5.02852">
        <ele>185.8</ele>
        <time>2022-09-24T10:08:27Z</time>
      </trkpt>
      <trkpt lat="45.7944" lon="5.02858">
        <ele>185.8</ele>
        <time>2022-09-24T10:08:28Z</time>
      </trkpt>
      <trkpt lat="45.79444" lon="5.02864">
        <ele>185.8</ele>
        <time>2022-09-24T10:08:29Z</time>
      </trkpt>
      <trkpt lat="45.79448" lon="5.02869">
        <ele>185.8</ele>
        <time>2022-09-24T10:08:30Z</time>
      </trkpt>
      <trkpt lat="45.79452" lon="5.02875">
        <ele>185.8</ele>
        <time>2022-09-24T10:08:31Z</time>
      </trkpt>
      <trkpt lat="45.79456" lon="5.02881">
        <ele>185.8</ele>
        <time>2022-09-24T10:08:32Z</time>
      </trkpt>
      <trkpt lat="45.79459" lon="5.02886">
        <ele>185.8</ele>
        <time>2022-09-24T10:08:33Z</time>
      </trkpt>
      <trkpt lat="45.79463" lon="5.02892">
        <ele>185.8</ele>
        <time>2022-09-24T10:08:34Z</time>
      </trkpt>
      <trkpt lat="45.79468" lon="5.02898">
        <ele>185.9</ele>
        <time>2022-09-24T10:08:35Z</time>
      </trkpt>
      <trkpt lat="45.79471" lon="5.02904">
        <ele>185.9</ele>
        <time>2022-09-24T10:08:36Z</time>
      </trkpt>
      <trkpt lat="45.79475" lon="5.0291">
        <ele>185.9</ele>
        <time>2022-09-24T10:08:37Z</time>
      </trkpt>
      <trkpt lat="45.79479" lon="5.02915">
        <ele>185.9</ele>
        <time>2022-09-24T10:08:38Z</time>
      </trkpt>
      <trkpt lat="45.79483" lon="5.02921">
        <ele>185.9</ele>
        <time>2022-09-24T10:08:39Z</time>
      </trkpt>
      <trkpt lat="45.79487" lon="5.02926">
        <ele>185.9</ele>
        <time>2022-09-24T10:08:40Z</time>
      </trkpt>
      <trkpt lat="45.79491" lon="5.02932">
        <ele>185.9</ele>
        <time>2022-09-24T10:08:41Z</time>
      </trkpt>
      <trkpt lat="45.79495" lon="5.02938">
        <ele>185.9</ele>
        <time>2022-09-24T10:08:42Z</time>
      </trkpt>
      <trkpt lat="45.79499" lon="5.02943">
        <ele>185.9</ele>
        <time>2022-09-24T10:08:43Z</time>
      </trkpt>
      <trkpt lat="45.79503" lon="5.02949">
        <ele>185.9</ele>
        <time>2022-09-24T10:08:44Z</time>
      </trkpt>
      <trkpt lat="45.79506" lon="5.02955">
        <ele>185.9</ele>
        <time>2022-09-24T10:08:45Z</time>
      </trkpt>
      <trkpt lat="45.7951" lon="5.02961">
        <ele>185.9</ele>
        <time>2022-09-24T10:08:46Z</time>
      </trkpt>
      <trkpt lat="45.79514" lon="5.02966">
        <ele>185.9</ele>
        <time>2022-09-24T10:08:47Z</time>
      </trkpt>
      <trkpt lat="45.79517" lon="5.02972">
        <ele>185.9</ele>
        <time>2022-09-24T10:08:48Z</time>
      </trkpt>
      <trkpt lat="45.79522" lon="5.02977">
        <ele>185.9</ele>
        <time>2022-09-24T10:08:49Z</time>
      </trkpt>
      <trkpt lat="45.79525" lon="5.02982">
        <ele>186</ele>
        <time>2022-09-24T10:08:50Z</time>
      </trkpt>
      <trkpt lat="45.79529" lon="5.02987">
        <ele>186</ele>
        <time>2022-09-24T10:08:51Z</time>
      </trkpt>
      <trkpt lat="45.79532" lon="5.02994">
        <ele>186</ele>
        <time>2022-09-24T10:08:52Z</time>
      </trkpt>
      <trkpt lat="45.79536" lon="5.03">
        <ele>186</ele>
        <time>2022-09-24T10:08:53Z</time>
      </trkpt>
      <trkpt lat="45.79539" lon="5.03006">
        <ele>186</ele>
        <time>2022-09-24T10:08:54Z</time>
      </trkpt>
      <trkpt lat="45.79542" lon="5.03012">
        <ele>186</ele>
        <time>2022-09-24T10:08:55Z</time>
      </trkpt>
      <trkpt lat="45.79545" lon="5.03018">
        <ele>186</ele>
        <time>2022-09-24T10:08:56Z</time>
      </trkpt>
      <trkpt lat="45.79548" lon="5.03024">
        <ele>186</ele>
        <time>2022-09-24T10:08:57Z</time>
      </trkpt>
      <trkpt lat="45.79552" lon="5.03029">
        <ele>186</ele>
        <time>2022-09-24T10:08:58Z</time>
      </trkpt>
      <trkpt lat="45.79555" lon="5.03035">
        <ele>186</ele>
        <time>2022-09-24T10:08:59Z</time>
      </trkpt>
      <trkpt lat="45.79558" lon="5.03041">
        <ele>186</ele>
        <time>2022-09-24T10:09:00Z</time>
      </trkpt>
      <trkpt lat="45.79561" lon="5.03047">
        <ele>186</ele>
        <time>2022-09-24T10:09:01Z</time>
      </trkpt>
      <trkpt lat="45.79564" lon="5.03052">
        <ele>186</ele>
        <time>2022-09-24T10:09:02Z</time>
      </trkpt>
      <trkpt lat="45.79567" lon="5.03058">
        <ele>186</ele>
        <time>2022-09-24T10:09:03Z</time>
      </trkpt>
      <trkpt lat="45.79571" lon="5.03063">
        <ele>186</ele>
        <time>2022-09-24T10:09:04Z</time>
      </trkpt>
      <trkpt lat="45.79573" lon="5.03068">
        <ele>186</ele>
        <time>2022-09-24T10:09:05Z</time>
      </trkpt>
      <trkpt lat="45.79576" lon="5.03074">
        <ele>186.1</ele>
        <time>2022-09-24T10:09:06Z</time>
      </trkpt>
      <trkpt lat="45.79579" lon="5.0308">
        <ele>186.1</ele>
        <time>2022-09-24T10:09:07Z</time>
      </trkpt>
      <trkpt lat="45.79581" lon="5.03086">
        <ele>186.1</ele>
        <time>2022-09-24T10:09:08Z</time>
      </trkpt>
      <trkpt lat="45.79583" lon="5.03091">
        <ele>186.1</ele>
        <time>2022-09-24T10:09:09Z</time>
      </trkpt>
      <trkpt lat="45.79585" lon="5.03097">
        <ele>186.1</ele>
        <time>2022-09-24T10:09:10Z</time>
      </trkpt>
      <trkpt lat="45.79587" lon="5.03103">
        <ele>186.1</ele>
        <time>2022-09-24T10:09:11Z</time>
      </trkpt>
      <trkpt lat="45.79589" lon="5.03108">
        <ele>186.1</ele>
        <time>2022-09-24T10:09:12Z</time>
      </trkpt>
      <trkpt lat="45.79591" lon="5.03114">
        <ele>186.1</ele>
        <time>2022-09-24T10:09:13Z</time>
      </trkpt>
      <trkpt lat="45.79593" lon="5.0312">
        <ele>186.1</ele>
        <time>2022-09-24T10:09:14Z</time>
      </trkpt>
      <trkpt lat="45.79595" lon="5.03126">
        <ele>186.2</ele>
        <time>2022-09-24T10:09:15Z</time>
      </trkpt>
      <trkpt lat="45.79598" lon="5.03131">
        <ele>186.2</ele>
        <time>2022-09-24T10:09:16Z</time>
      </trkpt>
      <trkpt lat="45.796" lon="5.03136">
        <ele>186.2</ele>
        <time>2022-09-24T10:09:17Z</time>
      </trkpt>
      <trkpt lat="45.79602" lon="5.03143">
        <ele>186.2</ele>
        <time>2022-09-24T10:09:18Z</time>
      </trkpt>
      <trkpt lat="45.79605" lon="5.03149">
        <ele>186.2</ele>
        <time>2022-09-24T10:09:19Z</time>
      </trkpt>
      <trkpt lat="45.79607" lon="5.03156">
        <ele>186.1</ele>
        <time>2022-09-24T10:09:20Z</time>
      </trkpt>
      <trkpt lat="45.79609" lon="5.03161">
        <ele>186.1</ele>
        <time>2022-09-24T10:09:21Z</time>
      </trkpt>
      <trkpt lat="45.79611" lon="5.03169">
        <ele>186.2</ele>
        <time>2022-09-24T10:09:22Z</time>
      </trkpt>
      <trkpt lat="45.79613" lon="5.03176">
        <ele>186.2</ele>
        <time>2022-09-24T10:09:23Z</time>
      </trkpt>
      <trkpt lat="45.79615" lon="5.03183">
        <ele>186.2</ele>
        <time>2022-09-24T10:09:24Z</time>
      </trkpt>
      <trkpt lat="45.79617" lon="5.0319">
        <ele>186.2</ele>
        <time>2022-09-24T10:09:25Z</time>
      </trkpt>
      <trkpt lat="45.7962" lon="5.03196">
        <ele>186.2</ele>
        <time>2022-09-24T10:09:26Z</time>
      </trkpt>
      <trkpt lat="45.79622" lon="5.03203">
        <ele>186.2</ele>
        <time>2022-09-24T10:09:27Z</time>
      </trkpt>
      <trkpt lat="45.79624" lon="5.0321">
        <ele>186.1</ele>
        <time>2022-09-24T10:09:28Z</time>
      </trkpt>
      <trkpt lat="45.79625" lon="5.03217">
        <ele>186.1</ele>
        <time>2022-09-24T10:09:29Z</time>
      </trkpt>
      <trkpt lat="45.79628" lon="5.03226">
        <ele>186.1</ele>
        <time>2022-09-24T10:09:30Z</time>
      </trkpt>
      <trkpt lat="45.7963" lon="5.03233">
        <ele>186.1</ele>
        <time>2022-09-24T10:09:31Z</time>
      </trkpt>
      <trkpt lat="45.79631" lon="5.0324">
        <ele>186.1</ele>
        <time>2022-09-24T10:09:32Z</time>
      </trkpt>
      <trkpt lat="45.79633" lon="5.03248">
        <ele>186.1</ele>
        <time>2022-09-24T10:09:33Z</time>
      </trkpt>
      <trkpt lat="45.79635" lon="5.03255">
        <ele>186.1</ele>
        <time>2022-09-24T10:09:34Z</time>
      </trkpt>
      <trkpt lat="45.79636" lon="5.03263">
        <ele>186.1</ele>
        <time>2022-09-24T10:09:35Z</time>
      </trkpt>
      <trkpt lat="45.79638" lon="5.0327">
        <ele>186.1</ele>
        <time>2022-09-24T10:09:36Z</time>
      </trkpt>
      <trkpt lat="45.7964" lon="5.03278">
        <ele>186.1</ele>
        <time>2022-09-24T10:09:37Z</time>
      </trkpt>
      <trkpt lat="45.79641" lon="5.03286">
        <ele>186.1</ele>
        <time>2022-09-24T10:09:38Z</time>
      </trkpt>
      <trkpt lat="45.79642" lon="5.03293">
        <ele>186.1</ele>
        <time>2022-09-24T10:09:39Z</time>
      </trkpt>
      <trkpt lat="45.79644" lon="5.033">
        <ele>186.1</ele>
        <time>2022-09-24T10:09:40Z</time>
      </trkpt>
      <trkpt lat="45.79645" lon="5.03308">
        <ele>186.1</ele>
        <time>2022-09-24T10:09:41Z</time>
      </trkpt>
      <trkpt lat="45.79646" lon="5.03315">
        <ele>186.1</ele>
        <time>2022-09-24T10:09:42Z</time>
      </trkpt>
      <trkpt lat="45.79647" lon="5.03323">
        <ele>186.1</ele>
        <time>2022-09-24T10:09:43Z</time>
      </trkpt>
      <trkpt lat="45.79648" lon="5.0333">
        <ele>186.1</ele>
        <time>2022-09-24T10:09:44Z</time>
      </trkpt>
      <trkpt lat="45.7965" lon="5.03338">
        <ele>186.1</ele>
        <time>2022-09-24T10:09:45Z</time>
      </trkpt>
      <trkpt lat="45.79651" lon="5.03345">
        <ele>186.1</ele>
        <time>2022-09-24T10:09:46Z</time>
      </trkpt>
      <trkpt lat="45.79651" lon="5.03353">
        <ele>186.1</ele>
        <time>2022-09-24T10:09:47Z</time>
      </trkpt>
      <trkpt lat="45.79653" lon="5.0336">
        <ele>186.1</ele>
        <time>2022-09-24T10:09:48Z</time>
      </trkpt>
      <trkpt lat="45.79654" lon="5.03367">
        <ele>186.1</ele>
        <time>2022-09-24T10:09:49Z</time>
      </trkpt>
      <trkpt lat="45.79655" lon="5.03375">
        <ele>186.1</ele>
        <time>2022-09-24T10:09:50Z</time>
      </trkpt>
      <trkpt lat="45.79656" lon="5.03382">
        <ele>186.1</ele>
        <time>2022-09-24T10:09:52Z</time>
      </trkpt>
      <trkpt lat="45.79657" lon="5.0339">
        <ele>186</ele>
        <time>2022-09-24T10:09:53Z</time>
      </trkpt>
      <trkpt lat="45.79658" lon="5.03397">
        <ele>186</ele>
        <time>2022-09-24T10:09:54Z</time>
      </trkpt>
      <trkpt lat="45.79658" lon="5.03405">
        <ele>186</ele>
        <time>2022-09-24T10:09:55Z</time>
      </trkpt>
      <trkpt lat="45.7966" lon="5.03412">
        <ele>186</ele>
        <time>2022-09-24T10:09:56Z</time>
      </trkpt>
      <trkpt lat="45.79661" lon="5.03419">
        <ele>186</ele>
        <time>2022-09-24T10:09:57Z</time>
      </trkpt>
      <trkpt lat="45.79662" lon="5.03427">
        <ele>186</ele>
        <time>2022-09-24T10:09:58Z</time>
      </trkpt>
      <trkpt lat="45.79663" lon="5.03434">
        <ele>186</ele>
        <time>2022-09-24T10:09:59Z</time>
      </trkpt>
      <trkpt lat="45.79664" lon="5.03441">
        <ele>186</ele>
        <time>2022-09-24T10:10:00Z</time>
      </trkpt>
      <trkpt lat="45.79665" lon="5.03449">
        <ele>186</ele>
        <time>2022-09-24T10:10:01Z</time>
      </trkpt>
      <trkpt lat="45.79666" lon="5.03456">
        <ele>186</ele>
        <time>2022-09-24T10:10:02Z</time>
      </trkpt>
      <trkpt lat="45.79667" lon="5.03463">
        <ele>185.9</ele>
        <time>2022-09-24T10:10:03Z</time>
      </trkpt>
      <trkpt lat="45.79668" lon="5.0347">
        <ele>185.9</ele>
        <time>2022-09-24T10:10:04Z</time>
      </trkpt>
      <trkpt lat="45.7967" lon="5.03486">
        <ele>185.9</ele>
        <time>2022-09-24T10:10:05Z</time>
      </trkpt>
      <trkpt lat="45.79671" lon="5.03493">
        <ele>185.9</ele>
        <time>2022-09-24T10:10:06Z</time>
      </trkpt>
      <trkpt lat="45.79673" lon="5.03501">
        <ele>185.9</ele>
        <time>2022-09-24T10:10:07Z</time>
      </trkpt>
      <trkpt lat="45.79674" lon="5.03508">
        <ele>185.9</ele>
        <time>2022-09-24T10:10:08Z</time>
      </trkpt>
      <trkpt lat="45.79675" lon="5.03516">
        <ele>185.9</ele>
        <time>2022-09-24T10:10:09Z</time>
      </trkpt>
      <trkpt lat="45.79677" lon="5.03523">
        <ele>185.9</ele>
        <time>2022-09-24T10:10:10Z</time>
      </trkpt>
      <trkpt lat="45.79678" lon="5.03531">
        <ele>185.9</ele>
        <time>2022-09-24T10:10:11Z</time>
      </trkpt>
      <trkpt lat="45.7968" lon="5.03538">
        <ele>185.9</ele>
        <time>2022-09-24T10:10:12Z</time>
      </trkpt>
      <trkpt lat="45.79681" lon="5.03545">
        <ele>185.9</ele>
        <time>2022-09-24T10:10:13Z</time>
      </trkpt>
      <trkpt lat="45.79683" lon="5.03552">
        <ele>185.9</ele>
        <time>2022-09-24T10:10:14Z</time>
      </trkpt>
      <trkpt lat="45.79685" lon="5.03559">
        <ele>185.9</ele>
        <time>2022-09-24T10:10:15Z</time>
      </trkpt>
      <trkpt lat="45.79687" lon="5.03566">
        <ele>185.9</ele>
        <time>2022-09-24T10:10:16Z</time>
      </trkpt>
      <trkpt lat="45.79689" lon="5.03574">
        <ele>185.9</ele>
        <time>2022-09-24T10:10:17Z</time>
      </trkpt>
      <trkpt lat="45.79691" lon="5.03581">
        <ele>185.9</ele>
        <time>2022-09-24T10:10:18Z</time>
      </trkpt>
      <trkpt lat="45.79693" lon="5.03588">
        <ele>185.9</ele>
        <time>2022-09-24T10:10:19Z</time>
      </trkpt>
      <trkpt lat="45.79695" lon="5.03595">
        <ele>185.9</ele>
        <time>2022-09-24T10:10:20Z</time>
      </trkpt>
      <trkpt lat="45.79698" lon="5.03602">
        <ele>185.9</ele>
        <time>2022-09-24T10:10:21Z</time>
      </trkpt>
      <trkpt lat="45.797" lon="5.03609">
        <ele>186</ele>
        <time>2022-09-24T10:10:22Z</time>
      </trkpt>
      <trkpt lat="45.79703" lon="5.03616">
        <ele>186</ele>
        <time>2022-09-24T10:10:23Z</time>
      </trkpt>
      <trkpt lat="45.79704" lon="5.03623">
        <ele>186</ele>
        <time>2022-09-24T10:10:24Z</time>
      </trkpt>
      <trkpt lat="45.79707" lon="5.03631">
        <ele>186</ele>
        <time>2022-09-24T10:10:25Z</time>
      </trkpt>
      <trkpt lat="45.79709" lon="5.03637">
        <ele>186</ele>
        <time>2022-09-24T10:10:26Z</time>
      </trkpt>
      <trkpt lat="45.79712" lon="5.03644">
        <ele>186</ele>
        <time>2022-09-24T10:10:27Z</time>
      </trkpt>
      <trkpt lat="45.79714" lon="5.03651">
        <ele>186</ele>
        <time>2022-09-24T10:10:28Z</time>
      </trkpt>
      <trkpt lat="45.79717" lon="5.03657">
        <ele>186</ele>
        <time>2022-09-24T10:10:29Z</time>
      </trkpt>
      <trkpt lat="45.7972" lon="5.03664">
        <ele>186</ele>
        <time>2022-09-24T10:10:30Z</time>
      </trkpt>
      <trkpt lat="45.79723" lon="5.03671">
        <ele>186.1</ele>
        <time>2022-09-24T10:10:31Z</time>
      </trkpt>
      <trkpt lat="45.79725" lon="5.03676">
        <ele>186.1</ele>
        <time>2022-09-24T10:10:32Z</time>
      </trkpt>
      <trkpt lat="45.79729" lon="5.03682">
        <ele>186.1</ele>
        <time>2022-09-24T10:10:33Z</time>
      </trkpt>
      <trkpt lat="45.79732" lon="5.03689">
        <ele>186.1</ele>
        <time>2022-09-24T10:10:34Z</time>
      </trkpt>
      <trkpt lat="45.79734" lon="5.03695">
        <ele>186.1</ele>
        <time>2022-09-24T10:10:35Z</time>
      </trkpt>
      <trkpt lat="45.79738" lon="5.03701">
        <ele>186.1</ele>
        <time>2022-09-24T10:10:36Z</time>
      </trkpt>
      <trkpt lat="45.79741" lon="5.03708">
        <ele>186</ele>
        <time>2022-09-24T10:10:37Z</time>
      </trkpt>
      <trkpt lat="45.79744" lon="5.03714">
        <ele>186</ele>
        <time>2022-09-24T10:10:38Z</time>
      </trkpt>
      <trkpt lat="45.79747" lon="5.0372">
        <ele>186</ele>
        <time>2022-09-24T10:10:39Z</time>
      </trkpt>
      <trkpt lat="45.79751" lon="5.03727">
        <ele>186</ele>
        <time>2022-09-24T10:10:40Z</time>
      </trkpt>
      <trkpt lat="45.79755" lon="5.03733">
        <ele>186</ele>
        <time>2022-09-24T10:10:41Z</time>
      </trkpt>
      <trkpt lat="45.79759" lon="5.03739">
        <ele>186</ele>
        <time>2022-09-24T10:10:42Z</time>
      </trkpt>
      <trkpt lat="45.79762" lon="5.03744">
        <ele>186</ele>
        <time>2022-09-24T10:10:43Z</time>
      </trkpt>
      <trkpt lat="45.79766" lon="5.0375">
        <ele>186</ele>
        <time>2022-09-24T10:10:44Z</time>
      </trkpt>
      <trkpt lat="45.7977" lon="5.03756">
        <ele>186</ele>
        <time>2022-09-24T10:10:45Z</time>
      </trkpt>
      <trkpt lat="45.79774" lon="5.03762">
        <ele>186</ele>
        <time>2022-09-24T10:10:46Z</time>
      </trkpt>
      <trkpt lat="45.79778" lon="5.03768">
        <ele>186</ele>
        <time>2022-09-24T10:10:47Z</time>
      </trkpt>
      <trkpt lat="45.79782" lon="5.03774">
        <ele>186</ele>
        <time>2022-09-24T10:10:48Z</time>
      </trkpt>
      <trkpt lat="45.79786" lon="5.0378">
        <ele>186</ele>
        <time>2022-09-24T10:10:49Z</time>
      </trkpt>
      <trkpt lat="45.7979" lon="5.03785">
        <ele>186</ele>
        <time>2022-09-24T10:10:50Z</time>
      </trkpt>
      <trkpt lat="45.79795" lon="5.03791">
        <ele>186</ele>
        <time>2022-09-24T10:10:51Z</time>
      </trkpt>
      <trkpt lat="45.79799" lon="5.03796">
        <ele>186</ele>
        <time>2022-09-24T10:10:52Z</time>
      </trkpt>
      <trkpt lat="45.79802" lon="5.03801">
        <ele>186.1</ele>
        <time>2022-09-24T10:10:53Z</time>
      </trkpt>
      <trkpt lat="45.79807" lon="5.03805">
        <ele>186.1</ele>
        <time>2022-09-24T10:10:54Z</time>
      </trkpt>
      <trkpt lat="45.79811" lon="5.0381">
        <ele>186.1</ele>
        <time>2022-09-24T10:10:55Z</time>
      </trkpt>
      <trkpt lat="45.79816" lon="5.03815">
        <ele>186.1</ele>
        <time>2022-09-24T10:10:56Z</time>
      </trkpt>
      <trkpt lat="45.7982" lon="5.03819">
        <ele>186.1</ele>
        <time>2022-09-24T10:10:57Z</time>
      </trkpt>
      <trkpt lat="45.79825" lon="5.03824">
        <ele>186.1</ele>
        <time>2022-09-24T10:10:58Z</time>
      </trkpt>
      <trkpt lat="45.79829" lon="5.03828">
        <ele>186.2</ele>
        <time>2022-09-24T10:10:59Z</time>
      </trkpt>
      <trkpt lat="45.79834" lon="5.03832">
        <ele>186.2</ele>
        <time>2022-09-24T10:11:00Z</time>
      </trkpt>
      <trkpt lat="45.79838" lon="5.03837">
        <ele>186.3</ele>
        <time>2022-09-24T10:11:01Z</time>
      </trkpt>
      <trkpt lat="45.79843" lon="5.03841">
        <ele>186.4</ele>
        <time>2022-09-24T10:11:02Z</time>
      </trkpt>
      <trkpt lat="45.79848" lon="5.03845">
        <ele>186.4</ele>
        <time>2022-09-24T10:11:03Z</time>
      </trkpt>
      <trkpt lat="45.79852" lon="5.03849">
        <ele>186.5</ele>
        <time>2022-09-24T10:11:04Z</time>
      </trkpt>
      <trkpt lat="45.79857" lon="5.03854">
        <ele>186.6</ele>
        <time>2022-09-24T10:11:05Z</time>
      </trkpt>
      <trkpt lat="45.7986" lon="5.03859">
        <ele>186.7</ele>
        <time>2022-09-24T10:11:06Z</time>
      </trkpt>
      <trkpt lat="45.79864" lon="5.03865">
        <ele>186.9</ele>
        <time>2022-09-24T10:11:07Z</time>
      </trkpt>
      <trkpt lat="45.79866" lon="5.03869">
        <ele>187</ele>
        <time>2022-09-24T10:11:08Z</time>
      </trkpt>
      <trkpt lat="45.7987" lon="5.03874">
        <ele>187.2</ele>
        <time>2022-09-24T10:11:09Z</time>
      </trkpt>
      <trkpt lat="45.79872" lon="5.03878">
        <ele>187.4</ele>
        <time>2022-09-24T10:11:10Z</time>
      </trkpt>
      <trkpt lat="45.79874" lon="5.03882">
        <ele>187.5</ele>
        <time>2022-09-24T10:11:11Z</time>
      </trkpt>
      <trkpt lat="45.79875" lon="5.03887">
        <ele>187.6</ele>
        <time>2022-09-24T10:11:12Z</time>
      </trkpt>
      <trkpt lat="45.79876" lon="5.03892">
        <ele>187.8</ele>
        <time>2022-09-24T10:11:13Z</time>
      </trkpt>
      <trkpt lat="45.79876" lon="5.03893">
        <ele>187.9</ele>
        <time>2022-09-24T10:11:14Z</time>
      </trkpt>
      <trkpt lat="45.79876" lon="5.03896">
        <ele>188.1</ele>
        <time>2022-09-24T10:11:15Z</time>
      </trkpt>
      <trkpt lat="45.79877" lon="5.03897">
        <ele>188.1</ele>
        <time>2022-09-24T10:11:16Z</time>
      </trkpt>
      <trkpt lat="45.79878" lon="5.03898">
        <ele>188.1</ele>
        <time>2022-09-24T10:11:17Z</time>
      </trkpt>
      <trkpt lat="45.79878" lon="5.03903">
        <ele>188.1</ele>
        <time>2022-09-24T10:11:18Z</time>
      </trkpt>
      <trkpt lat="45.79878" lon="5.03904">
        <ele>188.1</ele>
        <time>2022-09-24T10:11:19Z</time>
      </trkpt>
      <trkpt lat="45.79875" lon="5.03908">
        <ele>188.2</ele>
        <time>2022-09-24T10:11:20Z</time>
      </trkpt>
      <trkpt lat="45.79874" lon="5.03909">
        <ele>188.2</ele>
        <time>2022-09-24T10:11:21Z</time>
      </trkpt>
      <trkpt lat="45.79872" lon="5.03912">
        <ele>188.2</ele>
        <time>2022-09-24T10:11:22Z</time>
      </trkpt>
      <trkpt lat="45.7987" lon="5.03914">
        <ele>188.2</ele>
        <time>2022-09-24T10:11:23Z</time>
      </trkpt>
      <trkpt lat="45.79868" lon="5.0392">
        <ele>188.3</ele>
        <time>2022-09-24T10:11:24Z</time>
      </trkpt>
      <trkpt lat="45.79866" lon="5.03923">
        <ele>188.3</ele>
        <time>2022-09-24T10:11:25Z</time>
      </trkpt>
      <trkpt lat="45.79863" lon="5.03927">
        <ele>188.3</ele>
        <time>2022-09-24T10:11:26Z</time>
      </trkpt>
      <trkpt lat="45.79861" lon="5.03931">
        <ele>188.3</ele>
        <time>2022-09-24T10:11:27Z</time>
      </trkpt>
      <trkpt lat="45.79859" lon="5.03936">
        <ele>188.4</ele>
        <time>2022-09-24T10:11:28Z</time>
      </trkpt>
      <trkpt lat="45.79856" lon="5.0394">
        <ele>188.4</ele>
        <time>2022-09-24T10:11:29Z</time>
      </trkpt>
      <trkpt lat="45.79853" lon="5.03945">
        <ele>188.4</ele>
        <time>2022-09-24T10:11:30Z</time>
      </trkpt>
      <trkpt lat="45.79853" lon="5.03947">
        <ele>188.4</ele>
        <time>2022-09-24T10:11:31Z</time>
      </trkpt>
      <trkpt lat="45.7985" lon="5.03952">
        <ele>188.4</ele>
        <time>2022-09-24T10:11:32Z</time>
      </trkpt>
      <trkpt lat="45.79848" lon="5.03956">
        <ele>188.4</ele>
        <time>2022-09-24T10:11:33Z</time>
      </trkpt>
      <trkpt lat="45.79845" lon="5.0396">
        <ele>188.4</ele>
        <time>2022-09-24T10:11:34Z</time>
      </trkpt>
      <trkpt lat="45.79842" lon="5.03965">
        <ele>188.4</ele>
        <time>2022-09-24T10:11:35Z</time>
      </trkpt>
      <trkpt lat="45.7984" lon="5.03969">
        <ele>188.4</ele>
        <time>2022-09-24T10:11:36Z</time>
      </trkpt>
      <trkpt lat="45.79838" lon="5.03975">
        <ele>188.4</ele>
        <time>2022-09-24T10:11:37Z</time>
      </trkpt>
      <trkpt lat="45.79836" lon="5.03979">
        <ele>188.4</ele>
        <time>2022-09-24T10:11:38Z</time>
      </trkpt>
      <trkpt lat="45.79833" lon="5.03983">
        <ele>188.4</ele>
        <time>2022-09-24T10:11:39Z</time>
      </trkpt>
      <trkpt lat="45.79833" lon="5.03987">
        <ele>188.4</ele>
        <time>2022-09-24T10:11:40Z</time>
      </trkpt>
      <trkpt lat="45.7983" lon="5.0399">
        <ele>188.4</ele>
        <time>2022-09-24T10:11:41Z</time>
      </trkpt>
      <trkpt lat="45.79828" lon="5.03994">
        <ele>188.4</ele>
        <time>2022-09-24T10:11:42Z</time>
      </trkpt>
      <trkpt lat="45.79826" lon="5.03998">
        <ele>188.4</ele>
        <time>2022-09-24T10:11:43Z</time>
      </trkpt>
      <trkpt lat="45.79825" lon="5.04003">
        <ele>188.4</ele>
        <time>2022-09-24T10:11:44Z</time>
      </trkpt>
      <trkpt lat="45.79825" lon="5.04006">
        <ele>188.4</ele>
        <time>2022-09-24T10:11:45Z</time>
      </trkpt>
      <trkpt lat="45.79826" lon="5.04008">
        <ele>188.4</ele>
        <time>2022-09-24T10:11:46Z</time>
      </trkpt>
      <trkpt lat="45.79827" lon="5.04009">
        <ele>188.3</ele>
        <time>2022-09-24T10:11:47Z</time>
      </trkpt>
      <trkpt lat="45.7983" lon="5.04011">
        <ele>188.3</ele>
        <time>2022-09-24T10:11:48Z</time>
      </trkpt>
      <trkpt lat="45.79832" lon="5.04015">
        <ele>188.3</ele>
        <time>2022-09-24T10:11:49Z</time>
      </trkpt>
      <trkpt lat="45.79833" lon="5.04017">
        <ele>188.3</ele>
        <time>2022-09-24T10:11:50Z</time>
      </trkpt>
      <trkpt lat="45.79834" lon="5.04021">
        <ele>188.2</ele>
        <time>2022-09-24T10:11:51Z</time>
      </trkpt>
      <trkpt lat="45.79836" lon="5.04024">
        <ele>188.2</ele>
        <time>2022-09-24T10:11:52Z</time>
      </trkpt>
      <trkpt lat="45.79838" lon="5.04027">
        <ele>188.2</ele>
        <time>2022-09-24T10:11:53Z</time>
      </trkpt>
      <trkpt lat="45.79843" lon="5.04031">
        <ele>188.1</ele>
        <time>2022-09-24T10:11:54Z</time>
      </trkpt>
      <trkpt lat="45.79845" lon="5.04034">
        <ele>188</ele>
        <time>2022-09-24T10:11:55Z</time>
      </trkpt>
      <trkpt lat="45.79846" lon="5.04036">
        <ele>188</ele>
        <time>2022-09-24T10:11:56Z</time>
      </trkpt>
      <trkpt lat="45.7985" lon="5.04041">
        <ele>187.9</ele>
        <time>2022-09-24T10:11:58Z</time>
      </trkpt>
      <trkpt lat="45.79854" lon="5.04045">
        <ele>187.8</ele>
        <time>2022-09-24T10:11:59Z</time>
      </trkpt>
      <trkpt lat="45.79857" lon="5.04047">
        <ele>187.7</ele>
        <time>2022-09-24T10:12:00Z</time>
      </trkpt>
      <trkpt lat="45.79859" lon="5.04049">
        <ele>187.7</ele>
        <time>2022-09-24T10:12:02Z</time>
      </trkpt>
      <trkpt lat="45.79861" lon="5.04051">
        <ele>187.6</ele>
        <time>2022-09-24T10:12:03Z</time>
      </trkpt>
      <trkpt lat="45.79862" lon="5.04053">
        <ele>187.6</ele>
        <time>2022-09-24T10:12:04Z</time>
      </trkpt>
      <trkpt lat="45.79862" lon="5.04053">
        <ele>187.6</ele>
        <time>2022-09-24T10:12:05Z</time>
      </trkpt>
      <trkpt lat="45.79863" lon="5.04054">
        <ele>187.6</ele>
        <time>2022-09-24T10:12:06Z</time>
      </trkpt>
      <trkpt lat="45.79864" lon="5.04054">
        <ele>187.6</ele>
        <time>2022-09-24T10:12:07Z</time>
      </trkpt>
      <trkpt lat="45.79863" lon="5.04055">
        <ele>187.5</ele>
        <time>2022-09-24T10:12:08Z</time>
      </trkpt>
      <trkpt lat="45.79864" lon="5.04055">
        <ele>187.5</ele>
        <time>2022-09-24T10:12:09Z</time>
      </trkpt>
      <trkpt lat="45.79864" lon="5.04055">
        <ele>187.5</ele>
        <time>2022-09-24T10:12:10Z</time>
      </trkpt>
      <trkpt lat="45.79864" lon="5.04055">
        <ele>187.5</ele>
        <time>2022-09-24T10:12:11Z</time>
      </trkpt>
      <trkpt lat="45.79864" lon="5.04055">
        <ele>187.5</ele>
        <time>2022-09-24T10:12:12Z</time>
      </trkpt>
      <trkpt lat="45.79864" lon="5.04056">
        <ele>187.5</ele>
        <time>2022-09-24T10:12:13Z</time>
      </trkpt>
      <trkpt lat="45.79879" lon="5.04068">
        <ele>187.2</ele>
        <time>2022-09-24T10:12:54Z</time>
      </trkpt>
      <trkpt lat="45.7988" lon="5.04069">
        <ele>187.2</ele>
        <time>2022-09-24T10:12:55Z</time>
      </trkpt>
      <trkpt lat="45.79882" lon="5.04072">
        <ele>187.2</ele>
        <time>2022-09-24T10:12:56Z</time>
      </trkpt>
      <trkpt lat="45.79883" lon="5.04073">
        <ele>187.2</ele>
        <time>2022-09-24T10:12:57Z</time>
      </trkpt>
      <trkpt lat="45.79886" lon="5.04075">
        <ele>187.1</ele>
        <time>2022-09-24T10:12:58Z</time>
      </trkpt>
      <trkpt lat="45.79888" lon="5.04079">
        <ele>187.1</ele>
        <time>2022-09-24T10:12:59Z</time>
      </trkpt>
      <trkpt lat="45.79889" lon="5.0408">
        <ele>187.1</ele>
        <time>2022-09-24T10:13:00Z</time>
      </trkpt>
      <trkpt lat="45.79892" lon="5.04083">
        <ele>187.1</ele>
        <time>2022-09-24T10:13:01Z</time>
      </trkpt>
      <trkpt lat="45.79893" lon="5.04084">
        <ele>187.1</ele>
        <time>2022-09-24T10:13:02Z</time>
      </trkpt>
      <trkpt lat="45.79895" lon="5.04088">
        <ele>187.1</ele>
        <time>2022-09-24T10:13:03Z</time>
      </trkpt>
      <trkpt lat="45.79896" lon="5.04089">
        <ele>187.1</ele>
        <time>2022-09-24T10:13:04Z</time>
      </trkpt>
      <trkpt lat="45.79898" lon="5.04092">
        <ele>187</ele>
        <time>2022-09-24T10:13:05Z</time>
      </trkpt>
      <trkpt lat="45.79899" lon="5.04093">
        <ele>187</ele>
        <time>2022-09-24T10:13:06Z</time>
      </trkpt>
      <trkpt lat="45.79901" lon="5.04097">
        <ele>187</ele>
        <time>2022-09-24T10:13:07Z</time>
      </trkpt>
      <trkpt lat="45.79901" lon="5.04098">
        <ele>187</ele>
        <time>2022-09-24T10:13:08Z</time>
      </trkpt>
      <trkpt lat="45.79904" lon="5.04101">
        <ele>187</ele>
        <time>2022-09-24T10:13:09Z</time>
      </trkpt>
      <trkpt lat="45.79905" lon="5.04103">
        <ele>187</ele>
        <time>2022-09-24T10:13:10Z</time>
      </trkpt>
      <trkpt lat="45.79907" lon="5.04106">
        <ele>186.9</ele>
        <time>2022-09-24T10:13:11Z</time>
      </trkpt>
      <trkpt lat="45.79908" lon="5.04108">
        <ele>186.9</ele>
        <time>2022-09-24T10:13:12Z</time>
      </trkpt>
      <trkpt lat="45.79911" lon="5.0411">
        <ele>186.8</ele>
        <time>2022-09-24T10:13:13Z</time>
      </trkpt>
      <trkpt lat="45.79913" lon="5.04113">
        <ele>186.6</ele>
        <time>2022-09-24T10:13:14Z</time>
      </trkpt>
      <trkpt lat="45.79916" lon="5.04116">
        <ele>186.5</ele>
        <time>2022-09-24T10:13:15Z</time>
      </trkpt>
      <trkpt lat="45.7992" lon="5.04121">
        <ele>186.4</ele>
        <time>2022-09-24T10:13:16Z</time>
      </trkpt>
      <trkpt lat="45.79922" lon="5.04126">
        <ele>186.3</ele>
        <time>2022-09-24T10:13:17Z</time>
      </trkpt>
      <trkpt lat="45.79925" lon="5.0413">
        <ele>186.2</ele>
        <time>2022-09-24T10:13:18Z</time>
      </trkpt>
      <trkpt lat="45.79929" lon="5.04135">
        <ele>186.1</ele>
        <time>2022-09-24T10:13:19Z</time>
      </trkpt>
      <trkpt lat="45.79933" lon="5.0414">
        <ele>186</ele>
        <time>2022-09-24T10:13:20Z</time>
      </trkpt>
      <trkpt lat="45.79936" lon="5.04144">
        <ele>185.9</ele>
        <time>2022-09-24T10:13:21Z</time>
      </trkpt>
      <trkpt lat="45.79939" lon="5.04148">
        <ele>185.9</ele>
        <time>2022-09-24T10:13:22Z</time>
      </trkpt>
      <trkpt lat="45.79941" lon="5.04153">
        <ele>185.8</ele>
        <time>2022-09-24T10:13:23Z</time>
      </trkpt>
      <trkpt lat="45.79944" lon="5.04156">
        <ele>185.8</ele>
        <time>2022-09-24T10:13:24Z</time>
      </trkpt>
      <trkpt lat="45.79947" lon="5.04161">
        <ele>185.7</ele>
        <time>2022-09-24T10:13:25Z</time>
      </trkpt>
      <trkpt lat="45.7995" lon="5.04165">
        <ele>185.7</ele>
        <time>2022-09-24T10:13:26Z</time>
      </trkpt>
      <trkpt lat="45.79953" lon="5.04168">
        <ele>185.6</ele>
        <time>2022-09-24T10:13:27Z</time>
      </trkpt>
      <trkpt lat="45.79955" lon="5.04175">
        <ele>185.6</ele>
        <time>2022-09-24T10:13:28Z</time>
      </trkpt>
      <trkpt lat="45.79958" lon="5.04177">
        <ele>185.6</ele>
        <time>2022-09-24T10:13:29Z</time>
      </trkpt>
      <trkpt lat="45.7996" lon="5.0418">
        <ele>185.5</ele>
        <time>2022-09-24T10:13:30Z</time>
      </trkpt>
      <trkpt lat="45.79962" lon="5.04183">
        <ele>185.5</ele>
        <time>2022-09-24T10:13:31Z</time>
      </trkpt>
      <trkpt lat="45.79965" lon="5.04188">
        <ele>185.5</ele>
        <time>2022-09-24T10:13:32Z</time>
      </trkpt>
      <trkpt lat="45.79967" lon="5.04192">
        <ele>185.5</ele>
        <time>2022-09-24T10:13:33Z</time>
      </trkpt>
      <trkpt lat="45.79969" lon="5.04196">
        <ele>185.5</ele>
        <time>2022-09-24T10:13:34Z</time>
      </trkpt>
      <trkpt lat="45.79972" lon="5.042">
        <ele>185.5</ele>
        <time>2022-09-24T10:13:35Z</time>
      </trkpt>
      <trkpt lat="45.79974" lon="5.04203">
        <ele>185.5</ele>
        <time>2022-09-24T10:13:36Z</time>
      </trkpt>
      <trkpt lat="45.79977" lon="5.04208">
        <ele>185.6</ele>
        <time>2022-09-24T10:13:37Z</time>
      </trkpt>
      <trkpt lat="45.7998" lon="5.04213">
        <ele>185.6</ele>
        <time>2022-09-24T10:13:38Z</time>
      </trkpt>
      <trkpt lat="45.79982" lon="5.04218">
        <ele>185.6</ele>
        <time>2022-09-24T10:13:39Z</time>
      </trkpt>
      <trkpt lat="45.79984" lon="5.04223">
        <ele>185.5</ele>
        <time>2022-09-24T10:13:40Z</time>
      </trkpt>
      <trkpt lat="45.79986" lon="5.04227">
        <ele>185.5</ele>
        <time>2022-09-24T10:13:41Z</time>
      </trkpt>
      <trkpt lat="45.79989" lon="5.04232">
        <ele>185.5</ele>
        <time>2022-09-24T10:13:42Z</time>
      </trkpt>
      <trkpt lat="45.79991" lon="5.04237">
        <ele>185.5</ele>
        <time>2022-09-24T10:13:43Z</time>
      </trkpt>
      <trkpt lat="45.79993" lon="5.04241">
        <ele>185.5</ele>
        <time>2022-09-24T10:13:44Z</time>
      </trkpt>
      <trkpt lat="45.79996" lon="5.04245">
        <ele>185.5</ele>
        <time>2022-09-24T10:13:45Z</time>
      </trkpt>
      <trkpt lat="45.79997" lon="5.04252">
        <ele>185.5</ele>
        <time>2022-09-24T10:13:46Z</time>
      </trkpt>
      <trkpt lat="45.79999" lon="5.04255">
        <ele>185.5</ele>
        <time>2022-09-24T10:13:47Z</time>
      </trkpt>
      <trkpt lat="45.8" lon="5.04262">
        <ele>185.5</ele>
        <time>2022-09-24T10:13:48Z</time>
      </trkpt>
      <trkpt lat="45.80002" lon="5.04267">
        <ele>185.5</ele>
        <time>2022-09-24T10:13:49Z</time>
      </trkpt>
      <trkpt lat="45.80004" lon="5.04273">
        <ele>185.4</ele>
        <time>2022-09-24T10:13:50Z</time>
      </trkpt>
      <trkpt lat="45.80006" lon="5.04278">
        <ele>185.4</ele>
        <time>2022-09-24T10:13:51Z</time>
      </trkpt>
      <trkpt lat="45.80009" lon="5.04284">
        <ele>185.4</ele>
        <time>2022-09-24T10:13:52Z</time>
      </trkpt>
      <trkpt lat="45.80012" lon="5.04289">
        <ele>185.4</ele>
        <time>2022-09-24T10:13:53Z</time>
      </trkpt>
      <trkpt lat="45.80015" lon="5.04294">
        <ele>185.4</ele>
        <time>2022-09-24T10:13:54Z</time>
      </trkpt>
      <trkpt lat="45.80018" lon="5.04299">
        <ele>185.4</ele>
        <time>2022-09-24T10:13:55Z</time>
      </trkpt>
      <trkpt lat="45.8002" lon="5.04301">
        <ele>185.5</ele>
        <time>2022-09-24T10:13:56Z</time>
      </trkpt>
      <trkpt lat="45.80024" lon="5.04307">
        <ele>185.5</ele>
        <time>2022-09-24T10:13:57Z</time>
      </trkpt>
      <trkpt lat="45.80026" lon="5.04313">
        <ele>185.5</ele>
        <time>2022-09-24T10:13:58Z</time>
      </trkpt>
      <trkpt lat="45.80028" lon="5.04317">
        <ele>185.5</ele>
        <time>2022-09-24T10:13:59Z</time>
      </trkpt>
      <trkpt lat="45.80032" lon="5.0432">
        <ele>185.5</ele>
        <time>2022-09-24T10:14:00Z</time>
      </trkpt>
      <trkpt lat="45.80035" lon="5.04325">
        <ele>185.4</ele>
        <time>2022-09-24T10:14:01Z</time>
      </trkpt>
      <trkpt lat="45.80038" lon="5.0433">
        <ele>185.4</ele>
        <time>2022-09-24T10:14:02Z</time>
      </trkpt>
      <trkpt lat="45.80041" lon="5.04333">
        <ele>185.4</ele>
        <time>2022-09-24T10:14:04Z</time>
      </trkpt>
      <trkpt lat="45.80043" lon="5.04338">
        <ele>185.4</ele>
        <time>2022-09-24T10:14:05Z</time>
      </trkpt>
      <trkpt lat="45.80045" lon="5.04344">
        <ele>185.4</ele>
        <time>2022-09-24T10:14:06Z</time>
      </trkpt>
      <trkpt lat="45.80049" lon="5.04349">
        <ele>185.4</ele>
        <time>2022-09-24T10:14:07Z</time>
      </trkpt>
      <trkpt lat="45.80052" lon="5.04351">
        <ele>185.4</ele>
        <time>2022-09-24T10:14:08Z</time>
      </trkpt>
      <trkpt lat="45.80054" lon="5.04354">
        <ele>185.4</ele>
        <time>2022-09-24T10:14:09Z</time>
      </trkpt>
      <trkpt lat="45.80057" lon="5.0436">
        <ele>185.4</ele>
        <time>2022-09-24T10:14:10Z</time>
      </trkpt>
      <trkpt lat="45.80058" lon="5.04362">
        <ele>185.4</ele>
        <time>2022-09-24T10:14:11Z</time>
      </trkpt>
      <trkpt lat="45.80061" lon="5.04367">
        <ele>185.4</ele>
        <time>2022-09-24T10:14:12Z</time>
      </trkpt>
      <trkpt lat="45.80065" lon="5.0437">
        <ele>185.4</ele>
        <time>2022-09-24T10:14:13Z</time>
      </trkpt>
      <trkpt lat="45.80068" lon="5.04374">
        <ele>185.4</ele>
        <time>2022-09-24T10:14:14Z</time>
      </trkpt>
      <trkpt lat="45.80072" lon="5.04378">
        <ele>185.4</ele>
        <time>2022-09-24T10:14:15Z</time>
      </trkpt>
      <trkpt lat="45.80074" lon="5.04382">
        <ele>185.4</ele>
        <time>2022-09-24T10:14:16Z</time>
      </trkpt>
      <trkpt lat="45.80077" lon="5.04385">
        <ele>185.4</ele>
        <time>2022-09-24T10:14:17Z</time>
      </trkpt>
      <trkpt lat="45.80079" lon="5.0439">
        <ele>185.4</ele>
        <time>2022-09-24T10:14:18Z</time>
      </trkpt>
      <trkpt lat="45.80081" lon="5.04395">
        <ele>185.4</ele>
        <time>2022-09-24T10:14:19Z</time>
      </trkpt>
      <trkpt lat="45.80084" lon="5.04399">
        <ele>185.4</ele>
        <time>2022-09-24T10:14:20Z</time>
      </trkpt>
      <trkpt lat="45.80088" lon="5.04402">
        <ele>185.4</ele>
        <time>2022-09-24T10:14:21Z</time>
      </trkpt>
      <trkpt lat="45.80091" lon="5.04406">
        <ele>185.4</ele>
        <time>2022-09-24T10:14:22Z</time>
      </trkpt>
      <trkpt lat="45.80091" lon="5.04409">
        <ele>185.4</ele>
        <time>2022-09-24T10:14:23Z</time>
      </trkpt>
      <trkpt lat="45.80094" lon="5.04412">
        <ele>185.4</ele>
        <time>2022-09-24T10:14:24Z</time>
      </trkpt>
      <trkpt lat="45.80098" lon="5.04416">
        <ele>185.4</ele>
        <time>2022-09-24T10:14:25Z</time>
      </trkpt>
      <trkpt lat="45.80099" lon="5.04419">
        <ele>185.4</ele>
        <time>2022-09-24T10:14:26Z</time>
      </trkpt>
      <trkpt lat="45.80104" lon="5.04425">
        <ele>185.4</ele>
        <time>2022-09-24T10:14:27Z</time>
      </trkpt>
      <trkpt lat="45.80106" lon="5.04429">
        <ele>185.4</ele>
        <time>2022-09-24T10:14:28Z</time>
      </trkpt>
      <trkpt lat="45.80108" lon="5.04432">
        <ele>185.4</ele>
        <time>2022-09-24T10:14:29Z</time>
      </trkpt>
      <trkpt lat="45.80113" lon="5.04437">
        <ele>185.4</ele>
        <time>2022-09-24T10:14:30Z</time>
      </trkpt>
      <trkpt lat="45.80117" lon="5.04442">
        <ele>185.4</ele>
        <time>2022-09-24T10:14:31Z</time>
      </trkpt>
      <trkpt lat="45.8012" lon="5.04447">
        <ele>185.4</ele>
        <time>2022-09-24T10:14:32Z</time>
      </trkpt>
      <trkpt lat="45.80123" lon="5.04452">
        <ele>185.5</ele>
        <time>2022-09-24T10:14:33Z</time>
      </trkpt>
      <trkpt lat="45.80125" lon="5.04458">
        <ele>185.5</ele>
        <time>2022-09-24T10:14:34Z</time>
      </trkpt>
      <trkpt lat="45.80128" lon="5.04463">
        <ele>185.5</ele>
        <time>2022-09-24T10:14:35Z</time>
      </trkpt>
      <trkpt lat="45.80131" lon="5.0447">
        <ele>185.5</ele>
        <time>2022-09-24T10:14:36Z</time>
      </trkpt>
      <trkpt lat="45.80132" lon="5.04476">
        <ele>185.5</ele>
        <time>2022-09-24T10:14:37Z</time>
      </trkpt>
      <trkpt lat="45.80134" lon="5.04483">
        <ele>185.5</ele>
        <time>2022-09-24T10:14:38Z</time>
      </trkpt>
      <trkpt lat="45.80139" lon="5.04492">
        <ele>185.5</ele>
        <time>2022-09-24T10:14:39Z</time>
      </trkpt>
      <trkpt lat="45.80142" lon="5.045">
        <ele>185.5</ele>
        <time>2022-09-24T10:14:40Z</time>
      </trkpt>
      <trkpt lat="45.80144" lon="5.04505">
        <ele>185.5</ele>
        <time>2022-09-24T10:14:41Z</time>
      </trkpt>
      <trkpt lat="45.80146" lon="5.04512">
        <ele>185.5</ele>
        <time>2022-09-24T10:14:42Z</time>
      </trkpt>
      <trkpt lat="45.80149" lon="5.0452">
        <ele>185.5</ele>
        <time>2022-09-24T10:14:43Z</time>
      </trkpt>
      <trkpt lat="45.80152" lon="5.04527">
        <ele>185.5</ele>
        <time>2022-09-24T10:14:44Z</time>
      </trkpt>
      <trkpt lat="45.80155" lon="5.04533">
        <ele>185.4</ele>
        <time>2022-09-24T10:14:45Z</time>
      </trkpt>
      <trkpt lat="45.80157" lon="5.04539">
        <ele>185.4</ele>
        <time>2022-09-24T10:14:46Z</time>
      </trkpt>
      <trkpt lat="45.8016" lon="5.04544">
        <ele>185.4</ele>
        <time>2022-09-24T10:14:47Z</time>
      </trkpt>
      <trkpt lat="45.80164" lon="5.0455">
        <ele>185.4</ele>
        <time>2022-09-24T10:14:48Z</time>
      </trkpt>
      <trkpt lat="45.80166" lon="5.04556">
        <ele>185.4</ele>
        <time>2022-09-24T10:14:49Z</time>
      </trkpt>
      <trkpt lat="45.80171" lon="5.04562">
        <ele>185.4</ele>
        <time>2022-09-24T10:14:50Z</time>
      </trkpt>
      <trkpt lat="45.80171" lon="5.04565">
        <ele>185.4</ele>
        <time>2022-09-24T10:14:51Z</time>
      </trkpt>
      <trkpt lat="45.80173" lon="5.0457">
        <ele>185.3</ele>
        <time>2022-09-24T10:14:52Z</time>
      </trkpt>
      <trkpt lat="45.80174" lon="5.04578">
        <ele>185.3</ele>
        <time>2022-09-24T10:14:53Z</time>
      </trkpt>
      <trkpt lat="45.80175" lon="5.04584">
        <ele>185.3</ele>
        <time>2022-09-24T10:14:54Z</time>
      </trkpt>
      <trkpt lat="45.80177" lon="5.0459">
        <ele>185.3</ele>
        <time>2022-09-24T10:14:55Z</time>
      </trkpt>
      <trkpt lat="45.80179" lon="5.04596">
        <ele>185.3</ele>
        <time>2022-09-24T10:14:56Z</time>
      </trkpt>
      <trkpt lat="45.80181" lon="5.04603">
        <ele>185.3</ele>
        <time>2022-09-24T10:14:57Z</time>
      </trkpt>
      <trkpt lat="45.80182" lon="5.04609">
        <ele>185.3</ele>
        <time>2022-09-24T10:14:58Z</time>
      </trkpt>
      <trkpt lat="45.80183" lon="5.04614">
        <ele>185.3</ele>
        <time>2022-09-24T10:14:59Z</time>
      </trkpt>
      <trkpt lat="45.80184" lon="5.04621">
        <ele>185.3</ele>
        <time>2022-09-24T10:15:00Z</time>
      </trkpt>
      <trkpt lat="45.80188" lon="5.04627">
        <ele>185.3</ele>
        <time>2022-09-24T10:15:01Z</time>
      </trkpt>
      <trkpt lat="45.80189" lon="5.04632">
        <ele>185.3</ele>
        <time>2022-09-24T10:15:02Z</time>
      </trkpt>
      <trkpt lat="45.80191" lon="5.04637">
        <ele>185.3</ele>
        <time>2022-09-24T10:15:03Z</time>
      </trkpt>
      <trkpt lat="45.80192" lon="5.04643">
        <ele>185.3</ele>
        <time>2022-09-24T10:15:04Z</time>
      </trkpt>
      <trkpt lat="45.80194" lon="5.04648">
        <ele>185.3</ele>
        <time>2022-09-24T10:15:05Z</time>
      </trkpt>
      <trkpt lat="45.80195" lon="5.04654">
        <ele>185.3</ele>
        <time>2022-09-24T10:15:06Z</time>
      </trkpt>
      <trkpt lat="45.80198" lon="5.04661">
        <ele>185.3</ele>
        <time>2022-09-24T10:15:07Z</time>
      </trkpt>
      <trkpt lat="45.802" lon="5.04667">
        <ele>185.3</ele>
        <time>2022-09-24T10:15:08Z</time>
      </trkpt>
      <trkpt lat="45.802" lon="5.0467">
        <ele>185.3</ele>
        <time>2022-09-24T10:15:09Z</time>
      </trkpt>
      <trkpt lat="45.80203" lon="5.04677">
        <ele>185.3</ele>
        <time>2022-09-24T10:15:10Z</time>
      </trkpt>
      <trkpt lat="45.80204" lon="5.04682">
        <ele>185.3</ele>
        <time>2022-09-24T10:15:11Z</time>
      </trkpt>
      <trkpt lat="45.80205" lon="5.04687">
        <ele>185.3</ele>
        <time>2022-09-24T10:15:12Z</time>
      </trkpt>
      <trkpt lat="45.80205" lon="5.04688">
        <ele>185.3</ele>
        <time>2022-09-24T10:15:13Z</time>
      </trkpt>
      <trkpt lat="45.80208" lon="5.04694">
        <ele>185.4</ele>
        <time>2022-09-24T10:15:14Z</time>
      </trkpt>
      <trkpt lat="45.8021" lon="5.04702">
        <ele>185.4</ele>
        <time>2022-09-24T10:15:15Z</time>
      </trkpt>
      <trkpt lat="45.80214" lon="5.0471">
        <ele>185.4</ele>
        <time>2022-09-24T10:15:16Z</time>
      </trkpt>
      <trkpt lat="45.80217" lon="5.04718">
        <ele>185.4</ele>
        <time>2022-09-24T10:15:17Z</time>
      </trkpt>
      <trkpt lat="45.8022" lon="5.04725">
        <ele>185.4</ele>
        <time>2022-09-24T10:15:18Z</time>
      </trkpt>
      <trkpt lat="45.80222" lon="5.04731">
        <ele>185.4</ele>
        <time>2022-09-24T10:15:19Z</time>
      </trkpt>
      <trkpt lat="45.80223" lon="5.04737">
        <ele>185.4</ele>
        <time>2022-09-24T10:15:20Z</time>
      </trkpt>
      <trkpt lat="45.80225" lon="5.04742">
        <ele>185.4</ele>
        <time>2022-09-24T10:15:21Z</time>
      </trkpt>
      <trkpt lat="45.80227" lon="5.04748">
        <ele>185.4</ele>
        <time>2022-09-24T10:15:22Z</time>
      </trkpt>
      <trkpt lat="45.80229" lon="5.04754">
        <ele>185.4</ele>
        <time>2022-09-24T10:15:23Z</time>
      </trkpt>
      <trkpt lat="45.80231" lon="5.04762">
        <ele>185.4</ele>
        <time>2022-09-24T10:15:24Z</time>
      </trkpt>
      <trkpt lat="45.80233" lon="5.04767">
        <ele>185.5</ele>
        <time>2022-09-24T10:15:25Z</time>
      </trkpt>
      <trkpt lat="45.80235" lon="5.04774">
        <ele>185.5</ele>
        <time>2022-09-24T10:15:26Z</time>
      </trkpt>
      <trkpt lat="45.80237" lon="5.04779">
        <ele>185.5</ele>
        <time>2022-09-24T10:15:27Z</time>
      </trkpt>
      <trkpt lat="45.80237" lon="5.04784">
        <ele>185.5</ele>
        <time>2022-09-24T10:15:28Z</time>
      </trkpt>
      <trkpt lat="45.80237" lon="5.04785">
        <ele>185.5</ele>
        <time>2022-09-24T10:15:29Z</time>
      </trkpt>
      <trkpt lat="45.80238" lon="5.04791">
        <ele>185.5</ele>
        <time>2022-09-24T10:15:30Z</time>
      </trkpt>
      <trkpt lat="45.8024" lon="5.04797">
        <ele>185.5</ele>
        <time>2022-09-24T10:15:31Z</time>
      </trkpt>
      <trkpt lat="45.80243" lon="5.04803">
        <ele>185.6</ele>
        <time>2022-09-24T10:15:32Z</time>
      </trkpt>
      <trkpt lat="45.80247" lon="5.0481">
        <ele>185.6</ele>
        <time>2022-09-24T10:15:33Z</time>
      </trkpt>
      <trkpt lat="45.8025" lon="5.04815">
        <ele>185.6</ele>
        <time>2022-09-24T10:15:34Z</time>
      </trkpt>
      <trkpt lat="45.80251" lon="5.04822">
        <ele>185.7</ele>
        <time>2022-09-24T10:15:35Z</time>
      </trkpt>
      <trkpt lat="45.80252" lon="5.0483">
        <ele>185.7</ele>
        <time>2022-09-24T10:15:36Z</time>
      </trkpt>
      <trkpt lat="45.80256" lon="5.04836">
        <ele>185.7</ele>
        <time>2022-09-24T10:15:37Z</time>
      </trkpt>
      <trkpt lat="45.80258" lon="5.04842">
        <ele>185.7</ele>
        <time>2022-09-24T10:15:38Z</time>
      </trkpt>
      <trkpt lat="45.8026" lon="5.0485">
        <ele>185.7</ele>
        <time>2022-09-24T10:15:39Z</time>
      </trkpt>
      <trkpt lat="45.80263" lon="5.04856">
        <ele>185.7</ele>
        <time>2022-09-24T10:15:40Z</time>
      </trkpt>
      <trkpt lat="45.80265" lon="5.04862">
        <ele>185.7</ele>
        <time>2022-09-24T10:15:41Z</time>
      </trkpt>
      <trkpt lat="45.80267" lon="5.04869">
        <ele>185.7</ele>
        <time>2022-09-24T10:15:42Z</time>
      </trkpt>
      <trkpt lat="45.80268" lon="5.04876">
        <ele>185.7</ele>
        <time>2022-09-24T10:15:43Z</time>
      </trkpt>
      <trkpt lat="45.8027" lon="5.04881">
        <ele>185.7</ele>
        <time>2022-09-24T10:15:44Z</time>
      </trkpt>
      <trkpt lat="45.80273" lon="5.04887">
        <ele>185.8</ele>
        <time>2022-09-24T10:15:45Z</time>
      </trkpt>
      <trkpt lat="45.80275" lon="5.04895">
        <ele>185.8</ele>
        <time>2022-09-24T10:15:46Z</time>
      </trkpt>
      <trkpt lat="45.80277" lon="5.04903">
        <ele>185.8</ele>
        <time>2022-09-24T10:15:47Z</time>
      </trkpt>
      <trkpt lat="45.80279" lon="5.04909">
        <ele>185.8</ele>
        <time>2022-09-24T10:15:48Z</time>
      </trkpt>
      <trkpt lat="45.80282" lon="5.04918">
        <ele>185.8</ele>
        <time>2022-09-24T10:15:49Z</time>
      </trkpt>
      <trkpt lat="45.80284" lon="5.04925">
        <ele>185.8</ele>
        <time>2022-09-24T10:15:50Z</time>
      </trkpt>
      <trkpt lat="45.80285" lon="5.04933">
        <ele>185.8</ele>
        <time>2022-09-24T10:15:51Z</time>
      </trkpt>
      <trkpt lat="45.80286" lon="5.0494">
        <ele>185.8</ele>
        <time>2022-09-24T10:15:52Z</time>
      </trkpt>
      <trkpt lat="45.80289" lon="5.04948">
        <ele>185.7</ele>
        <time>2022-09-24T10:15:53Z</time>
      </trkpt>
      <trkpt lat="45.80289" lon="5.04954">
        <ele>185.7</ele>
        <time>2022-09-24T10:15:54Z</time>
      </trkpt>
      <trkpt lat="45.8029" lon="5.04959">
        <ele>185.7</ele>
        <time>2022-09-24T10:15:55Z</time>
      </trkpt>
      <trkpt lat="45.8029" lon="5.04964">
        <ele>185.7</ele>
        <time>2022-09-24T10:15:56Z</time>
      </trkpt>
      <trkpt lat="45.80293" lon="5.04973">
        <ele>185.7</ele>
        <time>2022-09-24T10:15:57Z</time>
      </trkpt>
      <trkpt lat="45.80296" lon="5.04981">
        <ele>185.6</ele>
        <time>2022-09-24T10:15:58Z</time>
      </trkpt>
      <trkpt lat="45.80298" lon="5.04987">
        <ele>185.6</ele>
        <time>2022-09-24T10:15:59Z</time>
      </trkpt>
      <trkpt lat="45.80301" lon="5.04995">
        <ele>185.7</ele>
        <time>2022-09-24T10:16:00Z</time>
      </trkpt>
      <trkpt lat="45.80303" lon="5.05003">
        <ele>185.7</ele>
        <time>2022-09-24T10:16:01Z</time>
      </trkpt>
      <trkpt lat="45.80305" lon="5.05009">
        <ele>185.7</ele>
        <time>2022-09-24T10:16:02Z</time>
      </trkpt>
      <trkpt lat="45.80307" lon="5.05015">
        <ele>185.7</ele>
        <time>2022-09-24T10:16:03Z</time>
      </trkpt>
      <trkpt lat="45.80309" lon="5.05019">
        <ele>185.7</ele>
        <time>2022-09-24T10:16:04Z</time>
      </trkpt>
      <trkpt lat="45.80312" lon="5.05025">
        <ele>185.7</ele>
        <time>2022-09-24T10:16:05Z</time>
      </trkpt>
      <trkpt lat="45.80315" lon="5.05031">
        <ele>185.7</ele>
        <time>2022-09-24T10:16:06Z</time>
      </trkpt>
      <trkpt lat="45.80318" lon="5.05037">
        <ele>185.8</ele>
        <time>2022-09-24T10:16:07Z</time>
      </trkpt>
      <trkpt lat="45.80322" lon="5.05042">
        <ele>185.8</ele>
        <time>2022-09-24T10:16:08Z</time>
      </trkpt>
      <trkpt lat="45.80325" lon="5.05049">
        <ele>185.8</ele>
        <time>2022-09-24T10:16:10Z</time>
      </trkpt>
      <trkpt lat="45.80329" lon="5.05054">
        <ele>185.9</ele>
        <time>2022-09-24T10:16:11Z</time>
      </trkpt>
      <trkpt lat="45.80331" lon="5.05059">
        <ele>185.9</ele>
        <time>2022-09-24T10:16:12Z</time>
      </trkpt>
      <trkpt lat="45.80334" lon="5.05063">
        <ele>185.9</ele>
        <time>2022-09-24T10:16:13Z</time>
      </trkpt>
      <trkpt lat="45.80337" lon="5.05068">
        <ele>185.9</ele>
        <time>2022-09-24T10:16:14Z</time>
      </trkpt>
      <trkpt lat="45.80342" lon="5.05074">
        <ele>185.9</ele>
        <time>2022-09-24T10:16:15Z</time>
      </trkpt>
      <trkpt lat="45.80345" lon="5.0508">
        <ele>185.9</ele>
        <time>2022-09-24T10:16:16Z</time>
      </trkpt>
      <trkpt lat="45.80349" lon="5.05087">
        <ele>185.8</ele>
        <time>2022-09-24T10:16:17Z</time>
      </trkpt>
      <trkpt lat="45.80351" lon="5.05093">
        <ele>185.8</ele>
        <time>2022-09-24T10:16:18Z</time>
      </trkpt>
      <trkpt lat="45.80354" lon="5.05098">
        <ele>185.8</ele>
        <time>2022-09-24T10:16:19Z</time>
      </trkpt>
      <trkpt lat="45.80357" lon="5.05104">
        <ele>185.8</ele>
        <time>2022-09-24T10:16:20Z</time>
      </trkpt>
      <trkpt lat="45.8036" lon="5.05111">
        <ele>185.8</ele>
        <time>2022-09-24T10:16:21Z</time>
      </trkpt>
      <trkpt lat="45.80362" lon="5.05118">
        <ele>185.8</ele>
        <time>2022-09-24T10:16:22Z</time>
      </trkpt>
      <trkpt lat="45.80363" lon="5.05125">
        <ele>185.8</ele>
        <time>2022-09-24T10:16:23Z</time>
      </trkpt>
      <trkpt lat="45.80366" lon="5.05132">
        <ele>185.8</ele>
        <time>2022-09-24T10:16:24Z</time>
      </trkpt>
      <trkpt lat="45.80369" lon="5.05139">
        <ele>185.8</ele>
        <time>2022-09-24T10:16:25Z</time>
      </trkpt>
      <trkpt lat="45.80371" lon="5.05146">
        <ele>185.7</ele>
        <time>2022-09-24T10:16:26Z</time>
      </trkpt>
      <trkpt lat="45.80371" lon="5.05153">
        <ele>185.7</ele>
        <time>2022-09-24T10:16:27Z</time>
      </trkpt>
      <trkpt lat="45.80374" lon="5.0516">
        <ele>185.7</ele>
        <time>2022-09-24T10:16:28Z</time>
      </trkpt>
      <trkpt lat="45.80378" lon="5.05168">
        <ele>185.7</ele>
        <time>2022-09-24T10:16:29Z</time>
      </trkpt>
      <trkpt lat="45.8038" lon="5.05175">
        <ele>185.7</ele>
        <time>2022-09-24T10:16:30Z</time>
      </trkpt>
      <trkpt lat="45.80382" lon="5.05182">
        <ele>185.7</ele>
        <time>2022-09-24T10:16:31Z</time>
      </trkpt>
      <trkpt lat="45.80384" lon="5.05189">
        <ele>185.7</ele>
        <time>2022-09-24T10:16:32Z</time>
      </trkpt>
      <trkpt lat="45.80389" lon="5.05197">
        <ele>185.7</ele>
        <time>2022-09-24T10:16:33Z</time>
      </trkpt>
      <trkpt lat="45.80392" lon="5.05203">
        <ele>185.7</ele>
        <time>2022-09-24T10:16:34Z</time>
      </trkpt>
      <trkpt lat="45.80392" lon="5.05209">
        <ele>185.7</ele>
        <time>2022-09-24T10:16:35Z</time>
      </trkpt>
      <trkpt lat="45.80397" lon="5.05216">
        <ele>185.7</ele>
        <time>2022-09-24T10:16:36Z</time>
      </trkpt>
      <trkpt lat="45.80399" lon="5.05224">
        <ele>185.7</ele>
        <time>2022-09-24T10:16:37Z</time>
      </trkpt>
      <trkpt lat="45.80401" lon="5.05231">
        <ele>185.7</ele>
        <time>2022-09-24T10:16:38Z</time>
      </trkpt>
      <trkpt lat="45.80403" lon="5.05237">
        <ele>185.7</ele>
        <time>2022-09-24T10:16:39Z</time>
      </trkpt>
      <trkpt lat="45.80405" lon="5.05244">
        <ele>185.7</ele>
        <time>2022-09-24T10:16:40Z</time>
      </trkpt>
      <trkpt lat="45.80407" lon="5.05251">
        <ele>185.7</ele>
        <time>2022-09-24T10:16:41Z</time>
      </trkpt>
      <trkpt lat="45.80411" lon="5.05265">
        <ele>185.7</ele>
        <time>2022-09-24T10:16:42Z</time>
      </trkpt>
      <trkpt lat="45.80413" lon="5.0527">
        <ele>185.7</ele>
        <time>2022-09-24T10:16:43Z</time>
      </trkpt>
      <trkpt lat="45.80416" lon="5.05278">
        <ele>185.6</ele>
        <time>2022-09-24T10:16:44Z</time>
      </trkpt>
      <trkpt lat="45.80419" lon="5.05285">
        <ele>185.6</ele>
        <time>2022-09-24T10:16:45Z</time>
      </trkpt>
      <trkpt lat="45.80421" lon="5.05292">
        <ele>185.6</ele>
        <time>2022-09-24T10:16:46Z</time>
      </trkpt>
      <trkpt lat="45.80422" lon="5.05299">
        <ele>185.6</ele>
        <time>2022-09-24T10:16:47Z</time>
      </trkpt>
      <trkpt lat="45.80423" lon="5.05305">
        <ele>185.6</ele>
        <time>2022-09-24T10:16:48Z</time>
      </trkpt>
      <trkpt lat="45.80425" lon="5.05313">
        <ele>185.6</ele>
        <time>2022-09-24T10:16:49Z</time>
      </trkpt>
      <trkpt lat="45.80426" lon="5.05319">
        <ele>185.6</ele>
        <time>2022-09-24T10:16:50Z</time>
      </trkpt>
      <trkpt lat="45.80428" lon="5.05328">
        <ele>185.7</ele>
        <time>2022-09-24T10:16:51Z</time>
      </trkpt>
      <trkpt lat="45.8043" lon="5.05333">
        <ele>185.7</ele>
        <time>2022-09-24T10:16:52Z</time>
      </trkpt>
      <trkpt lat="45.80431" lon="5.0534">
        <ele>185.7</ele>
        <time>2022-09-24T10:16:53Z</time>
      </trkpt>
      <trkpt lat="45.80433" lon="5.05345">
        <ele>185.7</ele>
        <time>2022-09-24T10:16:54Z</time>
      </trkpt>
      <trkpt lat="45.80434" lon="5.05354">
        <ele>185.7</ele>
        <time>2022-09-24T10:16:55Z</time>
      </trkpt>
      <trkpt lat="45.80434" lon="5.05362">
        <ele>185.8</ele>
        <time>2022-09-24T10:16:56Z</time>
      </trkpt>
      <trkpt lat="45.80434" lon="5.05369">
        <ele>185.8</ele>
        <time>2022-09-24T10:16:57Z</time>
      </trkpt>
      <trkpt lat="45.80434" lon="5.05376">
        <ele>185.8</ele>
        <time>2022-09-24T10:16:58Z</time>
      </trkpt>
      <trkpt lat="45.80435" lon="5.05382">
        <ele>185.8</ele>
        <time>2022-09-24T10:16:59Z</time>
      </trkpt>
      <trkpt lat="45.80437" lon="5.05387">
        <ele>185.8</ele>
        <time>2022-09-24T10:17:00Z</time>
      </trkpt>
      <trkpt lat="45.80437" lon="5.05394">
        <ele>185.8</ele>
        <time>2022-09-24T10:17:01Z</time>
      </trkpt>
      <trkpt lat="45.80438" lon="5.05401">
        <ele>185.9</ele>
        <time>2022-09-24T10:17:02Z</time>
      </trkpt>
      <trkpt lat="45.80438" lon="5.05407">
        <ele>185.9</ele>
        <time>2022-09-24T10:17:03Z</time>
      </trkpt>
      <trkpt lat="45.80439" lon="5.05413">
        <ele>185.9</ele>
        <time>2022-09-24T10:17:04Z</time>
      </trkpt>
      <trkpt lat="45.80442" lon="5.05417">
        <ele>185.8</ele>
        <time>2022-09-24T10:17:05Z</time>
      </trkpt>
      <trkpt lat="45.80443" lon="5.05422">
        <ele>185.8</ele>
        <time>2022-09-24T10:17:06Z</time>
      </trkpt>
      <trkpt lat="45.80444" lon="5.05428">
        <ele>185.8</ele>
        <time>2022-09-24T10:17:07Z</time>
      </trkpt>
      <trkpt lat="45.80445" lon="5.05434">
        <ele>185.8</ele>
        <time>2022-09-24T10:17:08Z</time>
      </trkpt>
      <trkpt lat="45.80446" lon="5.05439">
        <ele>185.8</ele>
        <time>2022-09-24T10:17:09Z</time>
      </trkpt>
      <trkpt lat="45.80446" lon="5.05448">
        <ele>185.8</ele>
        <time>2022-09-24T10:17:10Z</time>
      </trkpt>
      <trkpt lat="45.80446" lon="5.05454">
        <ele>185.8</ele>
        <time>2022-09-24T10:17:11Z</time>
      </trkpt>
      <trkpt lat="45.80447" lon="5.05463">
        <ele>185.8</ele>
        <time>2022-09-24T10:17:12Z</time>
      </trkpt>
      <trkpt lat="45.80449" lon="5.05469">
        <ele>185.8</ele>
        <time>2022-09-24T10:17:13Z</time>
      </trkpt>
      <trkpt lat="45.80451" lon="5.05475">
        <ele>185.8</ele>
        <time>2022-09-24T10:17:14Z</time>
      </trkpt>
      <trkpt lat="45.80452" lon="5.05483">
        <ele>185.8</ele>
        <time>2022-09-24T10:17:15Z</time>
      </trkpt>
      <trkpt lat="45.80453" lon="5.05489">
        <ele>185.8</ele>
        <time>2022-09-24T10:17:16Z</time>
      </trkpt>
      <trkpt lat="45.80453" lon="5.05495">
        <ele>185.8</ele>
        <time>2022-09-24T10:17:17Z</time>
      </trkpt>
      <trkpt lat="45.80455" lon="5.05504">
        <ele>185.8</ele>
        <time>2022-09-24T10:17:18Z</time>
      </trkpt>
      <trkpt lat="45.80457" lon="5.05511">
        <ele>185.8</ele>
        <time>2022-09-24T10:17:19Z</time>
      </trkpt>
      <trkpt lat="45.80458" lon="5.05518">
        <ele>185.8</ele>
        <time>2022-09-24T10:17:20Z</time>
      </trkpt>
      <trkpt lat="45.80459" lon="5.05525">
        <ele>185.8</ele>
        <time>2022-09-24T10:17:21Z</time>
      </trkpt>
      <trkpt lat="45.8046" lon="5.05531">
        <ele>185.7</ele>
        <time>2022-09-24T10:17:22Z</time>
      </trkpt>
      <trkpt lat="45.8046" lon="5.05536">
        <ele>185.7</ele>
        <time>2022-09-24T10:17:23Z</time>
      </trkpt>
      <trkpt lat="45.8046" lon="5.05546">
        <ele>185.7</ele>
        <time>2022-09-24T10:17:24Z</time>
      </trkpt>
      <trkpt lat="45.80461" lon="5.05551">
        <ele>185.7</ele>
        <time>2022-09-24T10:17:25Z</time>
      </trkpt>
      <trkpt lat="45.80462" lon="5.05556">
        <ele>185.7</ele>
        <time>2022-09-24T10:17:26Z</time>
      </trkpt>
      <trkpt lat="45.80463" lon="5.05565">
        <ele>185.7</ele>
        <time>2022-09-24T10:17:27Z</time>
      </trkpt>
      <trkpt lat="45.80465" lon="5.05574">
        <ele>185.7</ele>
        <time>2022-09-24T10:17:28Z</time>
      </trkpt>
      <trkpt lat="45.80467" lon="5.05583">
        <ele>185.7</ele>
        <time>2022-09-24T10:17:29Z</time>
      </trkpt>
      <trkpt lat="45.80469" lon="5.0559">
        <ele>185.7</ele>
        <time>2022-09-24T10:17:30Z</time>
      </trkpt>
      <trkpt lat="45.80469" lon="5.05598">
        <ele>185.6</ele>
        <time>2022-09-24T10:17:31Z</time>
      </trkpt>
      <trkpt lat="45.80472" lon="5.05605">
        <ele>185.6</ele>
        <time>2022-09-24T10:17:32Z</time>
      </trkpt>
      <trkpt lat="45.80474" lon="5.05613">
        <ele>185.6</ele>
        <time>2022-09-24T10:17:33Z</time>
      </trkpt>
      <trkpt lat="45.80477" lon="5.0562">
        <ele>185.6</ele>
        <time>2022-09-24T10:17:34Z</time>
      </trkpt>
      <trkpt lat="45.80478" lon="5.05628">
        <ele>185.6</ele>
        <time>2022-09-24T10:17:35Z</time>
      </trkpt>
      <trkpt lat="45.8048" lon="5.05638">
        <ele>185.6</ele>
        <time>2022-09-24T10:17:36Z</time>
      </trkpt>
      <trkpt lat="45.80481" lon="5.05649">
        <ele>185.7</ele>
        <time>2022-09-24T10:17:37Z</time>
      </trkpt>
      <trkpt lat="45.80483" lon="5.05656">
        <ele>185.7</ele>
        <time>2022-09-24T10:17:38Z</time>
      </trkpt>
      <trkpt lat="45.80483" lon="5.05663">
        <ele>185.7</ele>
        <time>2022-09-24T10:17:39Z</time>
      </trkpt>
      <trkpt lat="45.80486" lon="5.05671">
        <ele>185.7</ele>
        <time>2022-09-24T10:17:40Z</time>
      </trkpt>
      <trkpt lat="45.80488" lon="5.0568">
        <ele>185.7</ele>
        <time>2022-09-24T10:17:41Z</time>
      </trkpt>
      <trkpt lat="45.80489" lon="5.05688">
        <ele>185.8</ele>
        <time>2022-09-24T10:17:42Z</time>
      </trkpt>
      <trkpt lat="45.80491" lon="5.05695">
        <ele>185.8</ele>
        <time>2022-09-24T10:17:43Z</time>
      </trkpt>
      <trkpt lat="45.80492" lon="5.05703">
        <ele>185.8</ele>
        <time>2022-09-24T10:17:44Z</time>
      </trkpt>
      <trkpt lat="45.80493" lon="5.05712">
        <ele>185.8</ele>
        <time>2022-09-24T10:17:45Z</time>
      </trkpt>
      <trkpt lat="45.80496" lon="5.05722">
        <ele>185.8</ele>
        <time>2022-09-24T10:17:46Z</time>
      </trkpt>
      <trkpt lat="45.80499" lon="5.05731">
        <ele>185.8</ele>
        <time>2022-09-24T10:17:47Z</time>
      </trkpt>
      <trkpt lat="45.80501" lon="5.05737">
        <ele>185.8</ele>
        <time>2022-09-24T10:17:48Z</time>
      </trkpt>
      <trkpt lat="45.80503" lon="5.05745">
        <ele>185.9</ele>
        <time>2022-09-24T10:17:49Z</time>
      </trkpt>
      <trkpt lat="45.80505" lon="5.05752">
        <ele>185.9</ele>
        <time>2022-09-24T10:17:50Z</time>
      </trkpt>
      <trkpt lat="45.80506" lon="5.05761">
        <ele>185.9</ele>
        <time>2022-09-24T10:17:51Z</time>
      </trkpt>
      <trkpt lat="45.80507" lon="5.05768">
        <ele>185.9</ele>
        <time>2022-09-24T10:17:52Z</time>
      </trkpt>
      <trkpt lat="45.80508" lon="5.05775">
        <ele>185.9</ele>
        <time>2022-09-24T10:17:53Z</time>
      </trkpt>
      <trkpt lat="45.80509" lon="5.05785">
        <ele>185.9</ele>
        <time>2022-09-24T10:17:54Z</time>
      </trkpt>
      <trkpt lat="45.8051" lon="5.05794">
        <ele>185.9</ele>
        <time>2022-09-24T10:17:55Z</time>
      </trkpt>
      <trkpt lat="45.80513" lon="5.05799">
        <ele>185.9</ele>
        <time>2022-09-24T10:17:56Z</time>
      </trkpt>
      <trkpt lat="45.80513" lon="5.05806">
        <ele>185.9</ele>
        <time>2022-09-24T10:17:57Z</time>
      </trkpt>
      <trkpt lat="45.80516" lon="5.05814">
        <ele>185.9</ele>
        <time>2022-09-24T10:17:58Z</time>
      </trkpt>
      <trkpt lat="45.80518" lon="5.05822">
        <ele>185.8</ele>
        <time>2022-09-24T10:17:59Z</time>
      </trkpt>
      <trkpt lat="45.80519" lon="5.05829">
        <ele>185.8</ele>
        <time>2022-09-24T10:18:00Z</time>
      </trkpt>
      <trkpt lat="45.80521" lon="5.05835">
        <ele>185.8</ele>
        <time>2022-09-24T10:18:01Z</time>
      </trkpt>
      <trkpt lat="45.80522" lon="5.05843">
        <ele>185.8</ele>
        <time>2022-09-24T10:18:02Z</time>
      </trkpt>
      <trkpt lat="45.80523" lon="5.0585">
        <ele>185.8</ele>
        <time>2022-09-24T10:18:03Z</time>
      </trkpt>
      <trkpt lat="45.80524" lon="5.05858">
        <ele>185.7</ele>
        <time>2022-09-24T10:18:04Z</time>
      </trkpt>
      <trkpt lat="45.80526" lon="5.05865">
        <ele>185.7</ele>
        <time>2022-09-24T10:18:05Z</time>
      </trkpt>
      <trkpt lat="45.80527" lon="5.05872">
        <ele>185.7</ele>
        <time>2022-09-24T10:18:06Z</time>
      </trkpt>
      <trkpt lat="45.80528" lon="5.05878">
        <ele>185.7</ele>
        <time>2022-09-24T10:18:07Z</time>
      </trkpt>
      <trkpt lat="45.80529" lon="5.05886">
        <ele>185.6</ele>
        <time>2022-09-24T10:18:08Z</time>
      </trkpt>
      <trkpt lat="45.8053" lon="5.05892">
        <ele>185.6</ele>
        <time>2022-09-24T10:18:09Z</time>
      </trkpt>
      <trkpt lat="45.80531" lon="5.05897">
        <ele>185.6</ele>
        <time>2022-09-24T10:18:10Z</time>
      </trkpt>
      <trkpt lat="45.80533" lon="5.05902">
        <ele>185.6</ele>
        <time>2022-09-24T10:18:11Z</time>
      </trkpt>
      <trkpt lat="45.80534" lon="5.05908">
        <ele>185.6</ele>
        <time>2022-09-24T10:18:12Z</time>
      </trkpt>
      <trkpt lat="45.80535" lon="5.05914">
        <ele>185.6</ele>
        <time>2022-09-24T10:18:13Z</time>
      </trkpt>
      <trkpt lat="45.80536" lon="5.05918">
        <ele>185.6</ele>
        <time>2022-09-24T10:18:14Z</time>
      </trkpt>
      <trkpt lat="45.80537" lon="5.05925">
        <ele>185.6</ele>
        <time>2022-09-24T10:18:16Z</time>
      </trkpt>
      <trkpt lat="45.80538" lon="5.05932">
        <ele>185.6</ele>
        <time>2022-09-24T10:18:17Z</time>
      </trkpt>
      <trkpt lat="45.80538" lon="5.05939">
        <ele>185.6</ele>
        <time>2022-09-24T10:18:18Z</time>
      </trkpt>
      <trkpt lat="45.8054" lon="5.05947">
        <ele>185.6</ele>
        <time>2022-09-24T10:18:19Z</time>
      </trkpt>
      <trkpt lat="45.80542" lon="5.05953">
        <ele>185.6</ele>
        <time>2022-09-24T10:18:20Z</time>
      </trkpt>
      <trkpt lat="45.80543" lon="5.05962">
        <ele>185.6</ele>
        <time>2022-09-24T10:18:21Z</time>
      </trkpt>
      <trkpt lat="45.80542" lon="5.05967">
        <ele>185.6</ele>
        <time>2022-09-24T10:18:22Z</time>
      </trkpt>
      <trkpt lat="45.80544" lon="5.05974">
        <ele>185.6</ele>
        <time>2022-09-24T10:18:23Z</time>
      </trkpt>
      <trkpt lat="45.80545" lon="5.05982">
        <ele>185.6</ele>
        <time>2022-09-24T10:18:24Z</time>
      </trkpt>
      <trkpt lat="45.80547" lon="5.0599">
        <ele>185.6</ele>
        <time>2022-09-24T10:18:25Z</time>
      </trkpt>
      <trkpt lat="45.8055" lon="5.05998">
        <ele>185.7</ele>
        <time>2022-09-24T10:18:26Z</time>
      </trkpt>
      <trkpt lat="45.80553" lon="5.06005">
        <ele>185.7</ele>
        <time>2022-09-24T10:18:27Z</time>
      </trkpt>
      <trkpt lat="45.80555" lon="5.06012">
        <ele>185.7</ele>
        <time>2022-09-24T10:18:28Z</time>
      </trkpt>
      <trkpt lat="45.80556" lon="5.0602">
        <ele>185.7</ele>
        <time>2022-09-24T10:18:29Z</time>
      </trkpt>
      <trkpt lat="45.80558" lon="5.06026">
        <ele>185.7</ele>
        <time>2022-09-24T10:18:30Z</time>
      </trkpt>
      <trkpt lat="45.80561" lon="5.06035">
        <ele>185.7</ele>
        <time>2022-09-24T10:18:31Z</time>
      </trkpt>
      <trkpt lat="45.80562" lon="5.06042">
        <ele>185.8</ele>
        <time>2022-09-24T10:18:32Z</time>
      </trkpt>
      <trkpt lat="45.80563" lon="5.06049">
        <ele>185.8</ele>
        <time>2022-09-24T10:18:33Z</time>
      </trkpt>
      <trkpt lat="45.80564" lon="5.06055">
        <ele>185.8</ele>
        <time>2022-09-24T10:18:34Z</time>
      </trkpt>
      <trkpt lat="45.80566" lon="5.06062">
        <ele>185.9</ele>
        <time>2022-09-24T10:18:35Z</time>
      </trkpt>
      <trkpt lat="45.80568" lon="5.06068">
        <ele>185.9</ele>
        <time>2022-09-24T10:18:36Z</time>
      </trkpt>
      <trkpt lat="45.80569" lon="5.06074">
        <ele>185.9</ele>
        <time>2022-09-24T10:18:37Z</time>
      </trkpt>
      <trkpt lat="45.80571" lon="5.06079">
        <ele>185.9</ele>
        <time>2022-09-24T10:18:38Z</time>
      </trkpt>
      <trkpt lat="45.80573" lon="5.06083">
        <ele>185.9</ele>
        <time>2022-09-24T10:18:39Z</time>
      </trkpt>
      <trkpt lat="45.80574" lon="5.06088">
        <ele>186</ele>
        <time>2022-09-24T10:18:40Z</time>
      </trkpt>
      <trkpt lat="45.80575" lon="5.06092">
        <ele>186</ele>
        <time>2022-09-24T10:18:41Z</time>
      </trkpt>
      <trkpt lat="45.80575" lon="5.06094">
        <ele>186</ele>
        <time>2022-09-24T10:18:42Z</time>
      </trkpt>
      <trkpt lat="45.80575" lon="5.06096">
        <ele>186</ele>
        <time>2022-09-24T10:18:43Z</time>
      </trkpt>
      <trkpt lat="45.80576" lon="5.06097">
        <ele>186</ele>
        <time>2022-09-24T10:18:44Z</time>
      </trkpt>
      <trkpt lat="45.80576" lon="5.06097">
        <ele>186</ele>
        <time>2022-09-24T10:18:45Z</time>
      </trkpt>
      <trkpt lat="45.80577" lon="5.06098">
        <ele>186</ele>
        <time>2022-09-24T10:18:46Z</time>
      </trkpt>
      <trkpt lat="45.80578" lon="5.06101">
        <ele>186</ele>
        <time>2022-09-24T10:18:47Z</time>
      </trkpt>
      <trkpt lat="45.80579" lon="5.06103">
        <ele>186</ele>
        <time>2022-09-24T10:18:48Z</time>
      </trkpt>
      <trkpt lat="45.80579" lon="5.06105">
        <ele>186</ele>
        <time>2022-09-24T10:18:49Z</time>
      </trkpt>
      <trkpt lat="45.8058" lon="5.06107">
        <ele>186</ele>
        <time>2022-09-24T10:18:50Z</time>
      </trkpt>
      <trkpt lat="45.8058" lon="5.06108">
        <ele>186</ele>
        <time>2022-09-24T10:18:51Z</time>
      </trkpt>
      <trkpt lat="45.8058" lon="5.0611">
        <ele>186</ele>
        <time>2022-09-24T10:18:52Z</time>
      </trkpt>
      <trkpt lat="45.80581" lon="5.06112">
        <ele>186</ele>
        <time>2022-09-24T10:19:12Z</time>
      </trkpt>
      <trkpt lat="45.80581" lon="5.06113">
        <ele>186</ele>
        <time>2022-09-24T10:19:13Z</time>
      </trkpt>
      <trkpt lat="45.80583" lon="5.06116">
        <ele>186</ele>
        <time>2022-09-24T10:19:14Z</time>
      </trkpt>
      <trkpt lat="45.80583" lon="5.06118">
        <ele>186</ele>
        <time>2022-09-24T10:19:15Z</time>
      </trkpt>
      <trkpt lat="45.80584" lon="5.06122">
        <ele>186</ele>
        <time>2022-09-24T10:19:16Z</time>
      </trkpt>
      <trkpt lat="45.80586" lon="5.06128">
        <ele>186</ele>
        <time>2022-09-24T10:19:17Z</time>
      </trkpt>
      <trkpt lat="45.80587" lon="5.0613">
        <ele>186</ele>
        <time>2022-09-24T10:19:18Z</time>
      </trkpt>
      <trkpt lat="45.80588" lon="5.06136">
        <ele>186</ele>
        <time>2022-09-24T10:19:19Z</time>
      </trkpt>
      <trkpt lat="45.8059" lon="5.06142">
        <ele>186</ele>
        <time>2022-09-24T10:19:20Z</time>
      </trkpt>
      <trkpt lat="45.80592" lon="5.06147">
        <ele>186</ele>
        <time>2022-09-24T10:19:21Z</time>
      </trkpt>
      <trkpt lat="45.80594" lon="5.06152">
        <ele>186</ele>
        <time>2022-09-24T10:19:22Z</time>
      </trkpt>
      <trkpt lat="45.80595" lon="5.06158">
        <ele>186</ele>
        <time>2022-09-24T10:19:23Z</time>
      </trkpt>
      <trkpt lat="45.80598" lon="5.06164">
        <ele>186</ele>
        <time>2022-09-24T10:19:24Z</time>
      </trkpt>
      <trkpt lat="45.806" lon="5.06171">
        <ele>186</ele>
        <time>2022-09-24T10:19:25Z</time>
      </trkpt>
      <trkpt lat="45.80601" lon="5.06176">
        <ele>186</ele>
        <time>2022-09-24T10:19:26Z</time>
      </trkpt>
      <trkpt lat="45.80603" lon="5.06183">
        <ele>186</ele>
        <time>2022-09-24T10:19:27Z</time>
      </trkpt>
      <trkpt lat="45.80605" lon="5.06189">
        <ele>186</ele>
        <time>2022-09-24T10:19:28Z</time>
      </trkpt>
      <trkpt lat="45.80607" lon="5.06196">
        <ele>186</ele>
        <time>2022-09-24T10:19:29Z</time>
      </trkpt>
      <trkpt lat="45.8061" lon="5.06201">
        <ele>186</ele>
        <time>2022-09-24T10:19:30Z</time>
      </trkpt>
      <trkpt lat="45.80612" lon="5.06206">
        <ele>186</ele>
        <time>2022-09-24T10:19:31Z</time>
      </trkpt>
      <trkpt lat="45.80612" lon="5.06209">
        <ele>186</ele>
        <time>2022-09-24T10:19:32Z</time>
      </trkpt>
      <trkpt lat="45.80613" lon="5.0621">
        <ele>186</ele>
        <time>2022-09-24T10:19:33Z</time>
      </trkpt>
      <trkpt lat="45.80614" lon="5.0621">
        <ele>186</ele>
        <time>2022-09-24T10:19:34Z</time>
      </trkpt>
      <trkpt lat="45.80614" lon="5.0621">
        <ele>186</ele>
        <time>2022-09-24T10:19:35Z</time>
      </trkpt>
      <trkpt lat="45.80615" lon="5.0621">
        <ele>186</ele>
        <time>2022-09-24T10:19:36Z</time>
      </trkpt>
      <trkpt lat="45.80615" lon="5.06209">
        <ele>186</ele>
        <time>2022-09-24T10:19:37Z</time>
      </trkpt>
      <trkpt lat="45.80615" lon="5.06207">
        <ele>186</ele>
        <time>2022-09-24T10:19:38Z</time>
      </trkpt>
      <trkpt lat="45.80615" lon="5.06207">
        <ele>186</ele>
        <time>2022-09-24T10:19:39Z</time>
      </trkpt>
      <trkpt lat="45.80613" lon="5.06204">
        <ele>186</ele>
        <time>2022-09-24T10:19:40Z</time>
      </trkpt>
      <trkpt lat="45.80613" lon="5.06204">
        <ele>186</ele>
        <time>2022-09-24T10:19:41Z</time>
      </trkpt>
      <trkpt lat="45.80612" lon="5.06203">
        <ele>186</ele>
        <time>2022-09-24T10:19:42Z</time>
      </trkpt>
      <trkpt lat="45.80612" lon="5.06199">
        <ele>186</ele>
        <time>2022-09-24T10:19:43Z</time>
      </trkpt>
      <trkpt lat="45.80611" lon="5.06198">
        <ele>186</ele>
        <time>2022-09-24T10:19:44Z</time>
      </trkpt>
      <trkpt lat="45.8061" lon="5.06194">
        <ele>186</ele>
        <time>2022-09-24T10:19:45Z</time>
      </trkpt>
      <trkpt lat="45.8061" lon="5.0619">
        <ele>186</ele>
        <time>2022-09-24T10:19:46Z</time>
      </trkpt>
      <trkpt lat="45.80608" lon="5.06187">
        <ele>186</ele>
        <time>2022-09-24T10:19:47Z</time>
      </trkpt>
      <trkpt lat="45.80605" lon="5.06181">
        <ele>186</ele>
        <time>2022-09-24T10:19:48Z</time>
      </trkpt>
      <trkpt lat="45.80604" lon="5.06179">
        <ele>186</ele>
        <time>2022-09-24T10:19:49Z</time>
      </trkpt>
      <trkpt lat="45.80602" lon="5.06174">
        <ele>186</ele>
        <time>2022-09-24T10:19:50Z</time>
      </trkpt>
      <trkpt lat="45.80602" lon="5.06172">
        <ele>186</ele>
        <time>2022-09-24T10:19:51Z</time>
      </trkpt>
      <trkpt lat="45.80601" lon="5.06168">
        <ele>186</ele>
        <time>2022-09-24T10:19:52Z</time>
      </trkpt>
      <trkpt lat="45.80601" lon="5.06163">
        <ele>186</ele>
        <time>2022-09-24T10:19:53Z</time>
      </trkpt>
      <trkpt lat="45.80599" lon="5.06157">
        <ele>186</ele>
        <time>2022-09-24T10:19:54Z</time>
      </trkpt>
      <trkpt lat="45.80598" lon="5.06153">
        <ele>186</ele>
        <time>2022-09-24T10:19:55Z</time>
      </trkpt>
      <trkpt lat="45.80597" lon="5.06149">
        <ele>186</ele>
        <time>2022-09-24T10:19:56Z</time>
      </trkpt>
      <trkpt lat="45.80595" lon="5.06146">
        <ele>186</ele>
        <time>2022-09-24T10:19:57Z</time>
      </trkpt>
      <trkpt lat="45.80594" lon="5.06142">
        <ele>186</ele>
        <time>2022-09-24T10:19:58Z</time>
      </trkpt>
      <trkpt lat="45.80593" lon="5.06137">
        <ele>186</ele>
        <time>2022-09-24T10:19:59Z</time>
      </trkpt>
      <trkpt lat="45.80592" lon="5.06132">
        <ele>186</ele>
        <time>2022-09-24T10:20:00Z</time>
      </trkpt>
      <trkpt lat="45.8059" lon="5.06127">
        <ele>186</ele>
        <time>2022-09-24T10:20:01Z</time>
      </trkpt>
      <trkpt lat="45.8059" lon="5.06126">
        <ele>186</ele>
        <time>2022-09-24T10:20:02Z</time>
      </trkpt>
      <trkpt lat="45.80587" lon="5.06122">
        <ele>186</ele>
        <time>2022-09-24T10:20:03Z</time>
      </trkpt>
      <trkpt lat="45.80587" lon="5.06121">
        <ele>186</ele>
        <time>2022-09-24T10:20:04Z</time>
      </trkpt>
      <trkpt lat="45.80586" lon="5.06119">
        <ele>186</ele>
        <time>2022-09-24T10:20:05Z</time>
      </trkpt>
      <trkpt lat="45.80585" lon="5.06117">
        <ele>186</ele>
        <time>2022-09-24T10:20:06Z</time>
      </trkpt>
      <trkpt lat="45.80584" lon="5.06114">
        <ele>186</ele>
        <time>2022-09-24T10:20:07Z</time>
      </trkpt>
      <trkpt lat="45.80584" lon="5.06113">
        <ele>186</ele>
        <time>2022-09-24T10:20:08Z</time>
      </trkpt>
      <trkpt lat="45.80583" lon="5.06113">
        <ele>186</ele>
        <time>2022-09-24T10:20:09Z</time>
      </trkpt>
      <trkpt lat="45.80583" lon="5.06112">
        <ele>186</ele>
        <time>2022-09-24T10:20:10Z</time>
      </trkpt>
      <trkpt lat="45.80583" lon="5.06111">
        <ele>186</ele>
        <time>2022-09-24T10:20:11Z</time>
      </trkpt>
      <trkpt lat="45.80583" lon="5.0611">
        <ele>186</ele>
        <time>2022-09-24T10:20:12Z</time>
      </trkpt>
      <trkpt lat="45.80582" lon="5.06109">
        <ele>186</ele>
        <time>2022-09-24T10:20:13Z</time>
      </trkpt>
      <trkpt lat="45.80582" lon="5.06108">
        <ele>186</ele>
        <time>2022-09-24T10:20:14Z</time>
      </trkpt>
      <trkpt lat="45.80582" lon="5.06107">
        <ele>186</ele>
        <time>2022-09-24T10:20:15Z</time>
      </trkpt>
      <trkpt lat="45.80582" lon="5.06106">
        <ele>186</ele>
        <time>2022-09-24T10:20:16Z</time>
      </trkpt>
      <trkpt lat="45.80581" lon="5.06105">
        <ele>186</ele>
        <time>2022-09-24T10:20:17Z</time>
      </trkpt>
      <trkpt lat="45.80581" lon="5.06104">
        <ele>186</ele>
        <time>2022-09-24T10:21:25Z</time>
      </trkpt>
      <trkpt lat="45.80581" lon="5.06103">
        <ele>186</ele>
        <time>2022-09-24T10:21:26Z</time>
      </trkpt>
      <trkpt lat="45.80581" lon="5.06103">
        <ele>186</ele>
        <time>2022-09-24T10:21:27Z</time>
      </trkpt>
      <trkpt lat="45.8058" lon="5.06102">
        <ele>186</ele>
        <time>2022-09-24T10:21:28Z</time>
      </trkpt>
      <trkpt lat="45.8058" lon="5.06104">
        <ele>186</ele>
        <time>2022-09-24T10:21:29Z</time>
      </trkpt>
      <trkpt lat="45.80581" lon="5.06106">
        <ele>186</ele>
        <time>2022-09-24T10:21:30Z</time>
      </trkpt>
      <trkpt lat="45.80581" lon="5.06108">
        <ele>186</ele>
        <time>2022-09-24T10:21:31Z</time>
      </trkpt>
      <trkpt lat="45.80581" lon="5.06111">
        <ele>186</ele>
        <time>2022-09-24T10:21:32Z</time>
      </trkpt>
      <trkpt lat="45.80582" lon="5.06113">
        <ele>186</ele>
        <time>2022-09-24T10:21:33Z</time>
      </trkpt>
      <trkpt lat="45.80582" lon="5.06115">
        <ele>186</ele>
        <time>2022-09-24T10:21:34Z</time>
      </trkpt>
      <trkpt lat="45.80582" lon="5.06117">
        <ele>186</ele>
        <time>2022-09-24T10:22:30Z</time>
      </trkpt>
      <trkpt lat="45.80583" lon="5.0612">
        <ele>186</ele>
        <time>2022-09-24T10:22:31Z</time>
      </trkpt>
      <trkpt lat="45.80583" lon="5.06122">
        <ele>186</ele>
        <time>2022-09-24T10:22:32Z</time>
      </trkpt>
      <trkpt lat="45.80585" lon="5.06125">
        <ele>186</ele>
        <time>2022-09-24T10:22:33Z</time>
      </trkpt>
      <trkpt lat="45.80586" lon="5.06127">
        <ele>186</ele>
        <time>2022-09-24T10:22:34Z</time>
      </trkpt>
      <trkpt lat="45.80587" lon="5.06134">
        <ele>186</ele>
        <time>2022-09-24T10:22:35Z</time>
      </trkpt>
      <trkpt lat="45.80588" lon="5.06137">
        <ele>186</ele>
        <time>2022-09-24T10:22:36Z</time>
      </trkpt>
      <trkpt lat="45.80589" lon="5.06142">
        <ele>186</ele>
        <time>2022-09-24T10:22:38Z</time>
      </trkpt>
      <trkpt lat="45.80591" lon="5.06147">
        <ele>186</ele>
        <time>2022-09-24T10:22:39Z</time>
      </trkpt>
      <trkpt lat="45.80591" lon="5.06149">
        <ele>186</ele>
        <time>2022-09-24T10:22:40Z</time>
      </trkpt>
      <trkpt lat="45.80594" lon="5.06159">
        <ele>186</ele>
        <time>2022-09-24T10:22:41Z</time>
      </trkpt>
      <trkpt lat="45.80596" lon="5.06162">
        <ele>186</ele>
        <time>2022-09-24T10:22:42Z</time>
      </trkpt>
      <trkpt lat="45.80598" lon="5.06172">
        <ele>186</ele>
        <time>2022-09-24T10:22:44Z</time>
      </trkpt>
      <trkpt lat="45.80599" lon="5.06177">
        <ele>186</ele>
        <time>2022-09-24T10:22:45Z</time>
      </trkpt>
      <trkpt lat="45.80601" lon="5.06182">
        <ele>186</ele>
        <time>2022-09-24T10:22:46Z</time>
      </trkpt>
      <trkpt lat="45.80603" lon="5.06187">
        <ele>186</ele>
        <time>2022-09-24T10:22:47Z</time>
      </trkpt>
      <trkpt lat="45.80605" lon="5.06193">
        <ele>186</ele>
        <time>2022-09-24T10:22:48Z</time>
      </trkpt>
      <trkpt lat="45.80606" lon="5.06197">
        <ele>186</ele>
        <time>2022-09-24T10:22:49Z</time>
      </trkpt>
      <trkpt lat="45.80607" lon="5.06202">
        <ele>186</ele>
        <time>2022-09-24T10:22:50Z</time>
      </trkpt>
      <trkpt lat="45.80609" lon="5.06209">
        <ele>186</ele>
        <time>2022-09-24T10:22:51Z</time>
      </trkpt>
      <trkpt lat="45.8061" lon="5.06213">
        <ele>186</ele>
        <time>2022-09-24T10:22:52Z</time>
      </trkpt>
      <trkpt lat="45.80612" lon="5.06219">
        <ele>186</ele>
        <time>2022-09-24T10:22:53Z</time>
      </trkpt>
      <trkpt lat="45.80613" lon="5.06224">
        <ele>185.9</ele>
        <time>2022-09-24T10:22:54Z</time>
      </trkpt>
      <trkpt lat="45.80615" lon="5.0623">
        <ele>185.9</ele>
        <time>2022-09-24T10:22:55Z</time>
      </trkpt>
      <trkpt lat="45.80617" lon="5.06236">
        <ele>185.9</ele>
        <time>2022-09-24T10:22:56Z</time>
      </trkpt>
      <trkpt lat="45.80618" lon="5.06241">
        <ele>185.9</ele>
        <time>2022-09-24T10:22:57Z</time>
      </trkpt>
      <trkpt lat="45.80621" lon="5.06247">
        <ele>185.9</ele>
        <time>2022-09-24T10:22:58Z</time>
      </trkpt>
      <trkpt lat="45.80623" lon="5.06254">
        <ele>185.8</ele>
        <time>2022-09-24T10:22:59Z</time>
      </trkpt>
      <trkpt lat="45.80626" lon="5.0626">
        <ele>185.8</ele>
        <time>2022-09-24T10:23:00Z</time>
      </trkpt>
      <trkpt lat="45.80627" lon="5.06266">
        <ele>185.8</ele>
        <time>2022-09-24T10:23:01Z</time>
      </trkpt>
      <trkpt lat="45.8063" lon="5.06272">
        <ele>185.8</ele>
        <time>2022-09-24T10:23:02Z</time>
      </trkpt>
      <trkpt lat="45.80633" lon="5.06279">
        <ele>185.8</ele>
        <time>2022-09-24T10:23:03Z</time>
      </trkpt>
      <trkpt lat="45.80636" lon="5.06285">
        <ele>185.8</ele>
        <time>2022-09-24T10:23:04Z</time>
      </trkpt>
      <trkpt lat="45.80637" lon="5.06291">
        <ele>185.8</ele>
        <time>2022-09-24T10:23:05Z</time>
      </trkpt>
      <trkpt lat="45.80638" lon="5.06296">
        <ele>185.8</ele>
        <time>2022-09-24T10:23:06Z</time>
      </trkpt>
      <trkpt lat="45.8064" lon="5.06301">
        <ele>185.8</ele>
        <time>2022-09-24T10:23:07Z</time>
      </trkpt>
      <trkpt lat="45.80641" lon="5.06306">
        <ele>185.8</ele>
        <time>2022-09-24T10:23:08Z</time>
      </trkpt>
      <trkpt lat="45.80642" lon="5.06311">
        <ele>185.8</ele>
        <time>2022-09-24T10:23:09Z</time>
      </trkpt>
      <trkpt lat="45.80644" lon="5.06316">
        <ele>185.9</ele>
        <time>2022-09-24T10:23:10Z</time>
      </trkpt>
      <trkpt lat="45.80645" lon="5.0632">
        <ele>185.9</ele>
        <time>2022-09-24T10:23:11Z</time>
      </trkpt>
      <trkpt lat="45.80648" lon="5.06325">
        <ele>185.9</ele>
        <time>2022-09-24T10:23:12Z</time>
      </trkpt>
      <trkpt lat="45.8065" lon="5.06331">
        <ele>185.9</ele>
        <time>2022-09-24T10:23:13Z</time>
      </trkpt>
      <trkpt lat="45.80652" lon="5.06338">
        <ele>185.9</ele>
        <time>2022-09-24T10:23:14Z</time>
      </trkpt>
      <trkpt lat="45.80654" lon="5.06343">
        <ele>185.9</ele>
        <time>2022-09-24T10:23:15Z</time>
      </trkpt>
      <trkpt lat="45.80655" lon="5.06348">
        <ele>185.9</ele>
        <time>2022-09-24T10:23:16Z</time>
      </trkpt>
      <trkpt lat="45.80656" lon="5.06354">
        <ele>185.9</ele>
        <time>2022-09-24T10:23:17Z</time>
      </trkpt>
      <trkpt lat="45.80657" lon="5.06359">
        <ele>185.9</ele>
        <time>2022-09-24T10:23:18Z</time>
      </trkpt>
      <trkpt lat="45.80659" lon="5.06365">
        <ele>185.9</ele>
        <time>2022-09-24T10:23:19Z</time>
      </trkpt>
      <trkpt lat="45.80661" lon="5.06369">
        <ele>185.9</ele>
        <time>2022-09-24T10:23:20Z</time>
      </trkpt>
      <trkpt lat="45.80662" lon="5.06373">
        <ele>185.9</ele>
        <time>2022-09-24T10:23:21Z</time>
      </trkpt>
      <trkpt lat="45.80663" lon="5.06379">
        <ele>185.9</ele>
        <time>2022-09-24T10:23:22Z</time>
      </trkpt>
      <trkpt lat="45.80665" lon="5.06384">
        <ele>185.9</ele>
        <time>2022-09-24T10:23:23Z</time>
      </trkpt>
      <trkpt lat="45.80667" lon="5.06391">
        <ele>185.9</ele>
        <time>2022-09-24T10:23:24Z</time>
      </trkpt>
      <trkpt lat="45.80669" lon="5.06398">
        <ele>185.9</ele>
        <time>2022-09-24T10:23:25Z</time>
      </trkpt>
      <trkpt lat="45.80671" lon="5.06401">
        <ele>185.9</ele>
        <time>2022-09-24T10:23:26Z</time>
      </trkpt>
      <trkpt lat="45.80673" lon="5.06407">
        <ele>185.9</ele>
        <time>2022-09-24T10:23:27Z</time>
      </trkpt>
      <trkpt lat="45.80676" lon="5.06415">
        <ele>185.9</ele>
        <time>2022-09-24T10:23:28Z</time>
      </trkpt>
      <trkpt lat="45.80678" lon="5.06423">
        <ele>185.9</ele>
        <time>2022-09-24T10:23:29Z</time>
      </trkpt>
      <trkpt lat="45.8068" lon="5.06429">
        <ele>185.9</ele>
        <time>2022-09-24T10:23:30Z</time>
      </trkpt>
      <trkpt lat="45.80682" lon="5.06434">
        <ele>185.9</ele>
        <time>2022-09-24T10:23:31Z</time>
      </trkpt>
      <trkpt lat="45.80685" lon="5.06439">
        <ele>185.9</ele>
        <time>2022-09-24T10:23:32Z</time>
      </trkpt>
      <trkpt lat="45.80686" lon="5.06445">
        <ele>185.9</ele>
        <time>2022-09-24T10:23:33Z</time>
      </trkpt>
      <trkpt lat="45.80687" lon="5.06454">
        <ele>185.9</ele>
        <time>2022-09-24T10:23:34Z</time>
      </trkpt>
      <trkpt lat="45.80689" lon="5.06462">
        <ele>185.9</ele>
        <time>2022-09-24T10:23:35Z</time>
      </trkpt>
      <trkpt lat="45.80691" lon="5.06469">
        <ele>185.9</ele>
        <time>2022-09-24T10:23:36Z</time>
      </trkpt>
      <trkpt lat="45.80694" lon="5.06476">
        <ele>185.9</ele>
        <time>2022-09-24T10:23:37Z</time>
      </trkpt>
      <trkpt lat="45.80696" lon="5.06483">
        <ele>186</ele>
        <time>2022-09-24T10:23:38Z</time>
      </trkpt>
      <trkpt lat="45.80698" lon="5.06489">
        <ele>186</ele>
        <time>2022-09-24T10:23:39Z</time>
      </trkpt>
      <trkpt lat="45.807" lon="5.06497">
        <ele>186</ele>
        <time>2022-09-24T10:23:40Z</time>
      </trkpt>
      <trkpt lat="45.807" lon="5.06503">
        <ele>186</ele>
        <time>2022-09-24T10:23:41Z</time>
      </trkpt>
      <trkpt lat="45.807" lon="5.06508">
        <ele>186</ele>
        <time>2022-09-24T10:23:42Z</time>
      </trkpt>
      <trkpt lat="45.80704" lon="5.06515">
        <ele>186.1</ele>
        <time>2022-09-24T10:23:43Z</time>
      </trkpt>
      <trkpt lat="45.80708" lon="5.06522">
        <ele>186.1</ele>
        <time>2022-09-24T10:23:44Z</time>
      </trkpt>
      <trkpt lat="45.80711" lon="5.06528">
        <ele>186.2</ele>
        <time>2022-09-24T10:23:45Z</time>
      </trkpt>
      <trkpt lat="45.80712" lon="5.06534">
        <ele>186.2</ele>
        <time>2022-09-24T10:23:46Z</time>
      </trkpt>
      <trkpt lat="45.80712" lon="5.06545">
        <ele>186.3</ele>
        <time>2022-09-24T10:23:47Z</time>
      </trkpt>
      <trkpt lat="45.80714" lon="5.06551">
        <ele>186.3</ele>
        <time>2022-09-24T10:23:48Z</time>
      </trkpt>
      <trkpt lat="45.80715" lon="5.06556">
        <ele>186.3</ele>
        <time>2022-09-24T10:23:49Z</time>
      </trkpt>
      <trkpt lat="45.80717" lon="5.0656">
        <ele>186.3</ele>
        <time>2022-09-24T10:23:50Z</time>
      </trkpt>
      <trkpt lat="45.80718" lon="5.06563">
        <ele>186.4</ele>
        <time>2022-09-24T10:23:51Z</time>
      </trkpt>
      <trkpt lat="45.80719" lon="5.06564">
        <ele>186.4</ele>
        <time>2022-09-24T10:23:52Z</time>
      </trkpt>
      <trkpt lat="45.80721" lon="5.0657">
        <ele>186.4</ele>
        <time>2022-09-24T10:23:53Z</time>
      </trkpt>
      <trkpt lat="45.80722" lon="5.06577">
        <ele>186.3</ele>
        <time>2022-09-24T10:23:54Z</time>
      </trkpt>
      <trkpt lat="45.80725" lon="5.06584">
        <ele>186.3</ele>
        <time>2022-09-24T10:23:55Z</time>
      </trkpt>
      <trkpt lat="45.80725" lon="5.06588">
        <ele>186.3</ele>
        <time>2022-09-24T10:23:56Z</time>
      </trkpt>
      <trkpt lat="45.80728" lon="5.06597">
        <ele>186.3</ele>
        <time>2022-09-24T10:23:57Z</time>
      </trkpt>
      <trkpt lat="45.80729" lon="5.06603">
        <ele>186.2</ele>
        <time>2022-09-24T10:23:58Z</time>
      </trkpt>
      <trkpt lat="45.80732" lon="5.06611">
        <ele>186.2</ele>
        <time>2022-09-24T10:23:59Z</time>
      </trkpt>
      <trkpt lat="45.80735" lon="5.06619">
        <ele>186.1</ele>
        <time>2022-09-24T10:24:00Z</time>
      </trkpt>
      <trkpt lat="45.80737" lon="5.06625">
        <ele>186.1</ele>
        <time>2022-09-24T10:24:01Z</time>
      </trkpt>
      <trkpt lat="45.80738" lon="5.06634">
        <ele>186</ele>
        <time>2022-09-24T10:24:02Z</time>
      </trkpt>
      <trkpt lat="45.8074" lon="5.06639">
        <ele>186</ele>
        <time>2022-09-24T10:24:03Z</time>
      </trkpt>
      <trkpt lat="45.80742" lon="5.06644">
        <ele>186</ele>
        <time>2022-09-24T10:24:04Z</time>
      </trkpt>
      <trkpt lat="45.80745" lon="5.06653">
        <ele>186</ele>
        <time>2022-09-24T10:24:05Z</time>
      </trkpt>
      <trkpt lat="45.80747" lon="5.0666">
        <ele>186</ele>
        <time>2022-09-24T10:24:06Z</time>
      </trkpt>
      <trkpt lat="45.80748" lon="5.06666">
        <ele>186</ele>
        <time>2022-09-24T10:24:07Z</time>
      </trkpt>
      <trkpt lat="45.80749" lon="5.06673">
        <ele>186</ele>
        <time>2022-09-24T10:24:08Z</time>
      </trkpt>
      <trkpt lat="45.80749" lon="5.0668">
        <ele>186</ele>
        <time>2022-09-24T10:24:09Z</time>
      </trkpt>
      <trkpt lat="45.80752" lon="5.06687">
        <ele>186</ele>
        <time>2022-09-24T10:24:10Z</time>
      </trkpt>
      <trkpt lat="45.80753" lon="5.06695">
        <ele>186</ele>
        <time>2022-09-24T10:24:11Z</time>
      </trkpt>
      <trkpt lat="45.80755" lon="5.06702">
        <ele>185.9</ele>
        <time>2022-09-24T10:24:12Z</time>
      </trkpt>
      <trkpt lat="45.80758" lon="5.06709">
        <ele>185.9</ele>
        <time>2022-09-24T10:24:13Z</time>
      </trkpt>
      <trkpt lat="45.80761" lon="5.06717">
        <ele>185.9</ele>
        <time>2022-09-24T10:24:14Z</time>
      </trkpt>
      <trkpt lat="45.80764" lon="5.06726">
        <ele>185.9</ele>
        <time>2022-09-24T10:24:15Z</time>
      </trkpt>
      <trkpt lat="45.80766" lon="5.06733">
        <ele>185.9</ele>
        <time>2022-09-24T10:24:16Z</time>
      </trkpt>
      <trkpt lat="45.80767" lon="5.06738">
        <ele>185.9</ele>
        <time>2022-09-24T10:24:17Z</time>
      </trkpt>
      <trkpt lat="45.80767" lon="5.06745">
        <ele>185.9</ele>
        <time>2022-09-24T10:24:18Z</time>
      </trkpt>
      <trkpt lat="45.80769" lon="5.06754">
        <ele>185.9</ele>
        <time>2022-09-24T10:24:19Z</time>
      </trkpt>
      <trkpt lat="45.80771" lon="5.06759">
        <ele>185.9</ele>
        <time>2022-09-24T10:24:20Z</time>
      </trkpt>
      <trkpt lat="45.80774" lon="5.06766">
        <ele>185.9</ele>
        <time>2022-09-24T10:24:21Z</time>
      </trkpt>
      <trkpt lat="45.80775" lon="5.06774">
        <ele>185.9</ele>
        <time>2022-09-24T10:24:22Z</time>
      </trkpt>
      <trkpt lat="45.80776" lon="5.06782">
        <ele>185.9</ele>
        <time>2022-09-24T10:24:23Z</time>
      </trkpt>
      <trkpt lat="45.80779" lon="5.0679">
        <ele>185.9</ele>
        <time>2022-09-24T10:24:24Z</time>
      </trkpt>
      <trkpt lat="45.80779" lon="5.06796">
        <ele>185.9</ele>
        <time>2022-09-24T10:24:25Z</time>
      </trkpt>
      <trkpt lat="45.80781" lon="5.06803">
        <ele>185.9</ele>
        <time>2022-09-24T10:24:26Z</time>
      </trkpt>
      <trkpt lat="45.80782" lon="5.06812">
        <ele>185.9</ele>
        <time>2022-09-24T10:24:27Z</time>
      </trkpt>
      <trkpt lat="45.80785" lon="5.06818">
        <ele>185.9</ele>
        <time>2022-09-24T10:24:28Z</time>
      </trkpt>
      <trkpt lat="45.80785" lon="5.06825">
        <ele>185.9</ele>
        <time>2022-09-24T10:24:29Z</time>
      </trkpt>
      <trkpt lat="45.80786" lon="5.06831">
        <ele>185.9</ele>
        <time>2022-09-24T10:24:30Z</time>
      </trkpt>
      <trkpt lat="45.80787" lon="5.06835">
        <ele>185.9</ele>
        <time>2022-09-24T10:24:31Z</time>
      </trkpt>
      <trkpt lat="45.80786" lon="5.06844">
        <ele>185.9</ele>
        <time>2022-09-24T10:24:32Z</time>
      </trkpt>
      <trkpt lat="45.80786" lon="5.0685">
        <ele>185.9</ele>
        <time>2022-09-24T10:24:34Z</time>
      </trkpt>
      <trkpt lat="45.80788" lon="5.06863">
        <ele>185.9</ele>
        <time>2022-09-24T10:24:35Z</time>
      </trkpt>
      <trkpt lat="45.80789" lon="5.06868">
        <ele>186</ele>
        <time>2022-09-24T10:24:36Z</time>
      </trkpt>
      <trkpt lat="45.80789" lon="5.06873">
        <ele>186</ele>
        <time>2022-09-24T10:24:38Z</time>
      </trkpt>
      <trkpt lat="45.80789" lon="5.06879">
        <ele>186</ele>
        <time>2022-09-24T10:24:39Z</time>
      </trkpt>
      <trkpt lat="45.80791" lon="5.06885">
        <ele>186</ele>
        <time>2022-09-24T10:24:40Z</time>
      </trkpt>
      <trkpt lat="45.80792" lon="5.06892">
        <ele>186</ele>
        <time>2022-09-24T10:24:41Z</time>
      </trkpt>
      <trkpt lat="45.80793" lon="5.06897">
        <ele>186</ele>
        <time>2022-09-24T10:24:42Z</time>
      </trkpt>
      <trkpt lat="45.80794" lon="5.06902">
        <ele>186</ele>
        <time>2022-09-24T10:24:43Z</time>
      </trkpt>
      <trkpt lat="45.80794" lon="5.06908">
        <ele>186</ele>
        <time>2022-09-24T10:24:44Z</time>
      </trkpt>
      <trkpt lat="45.80795" lon="5.06913">
        <ele>186</ele>
        <time>2022-09-24T10:24:45Z</time>
      </trkpt>
      <trkpt lat="45.80797" lon="5.06919">
        <ele>186</ele>
        <time>2022-09-24T10:24:46Z</time>
      </trkpt>
      <trkpt lat="45.80797" lon="5.06926">
        <ele>186</ele>
        <time>2022-09-24T10:24:47Z</time>
      </trkpt>
      <trkpt lat="45.80796" lon="5.06933">
        <ele>186</ele>
        <time>2022-09-24T10:24:48Z</time>
      </trkpt>
      <trkpt lat="45.80797" lon="5.0694">
        <ele>186</ele>
        <time>2022-09-24T10:24:49Z</time>
      </trkpt>
      <trkpt lat="45.80796" lon="5.06947">
        <ele>186.1</ele>
        <time>2022-09-24T10:24:50Z</time>
      </trkpt>
      <trkpt lat="45.80797" lon="5.06957">
        <ele>186.1</ele>
        <time>2022-09-24T10:24:51Z</time>
      </trkpt>
      <trkpt lat="45.80797" lon="5.06963">
        <ele>186.1</ele>
        <time>2022-09-24T10:24:52Z</time>
      </trkpt>
      <trkpt lat="45.80799" lon="5.06969">
        <ele>186.1</ele>
        <time>2022-09-24T10:24:53Z</time>
      </trkpt>
      <trkpt lat="45.808" lon="5.06974">
        <ele>186.1</ele>
        <time>2022-09-24T10:24:54Z</time>
      </trkpt>
      <trkpt lat="45.808" lon="5.06982">
        <ele>186.1</ele>
        <time>2022-09-24T10:24:55Z</time>
      </trkpt>
      <trkpt lat="45.80801" lon="5.06988">
        <ele>186.1</ele>
        <time>2022-09-24T10:24:56Z</time>
      </trkpt>
      <trkpt lat="45.80801" lon="5.06994">
        <ele>186.1</ele>
        <time>2022-09-24T10:24:57Z</time>
      </trkpt>
      <trkpt lat="45.80802" lon="5.06999">
        <ele>186.2</ele>
        <time>2022-09-24T10:24:58Z</time>
      </trkpt>
      <trkpt lat="45.80802" lon="5.07005">
        <ele>186.2</ele>
        <time>2022-09-24T10:24:59Z</time>
      </trkpt>
      <trkpt lat="45.80801" lon="5.07009">
        <ele>186.2</ele>
        <time>2022-09-24T10:25:00Z</time>
      </trkpt>
      <trkpt lat="45.80803" lon="5.07015">
        <ele>186.2</ele>
        <time>2022-09-24T10:25:01Z</time>
      </trkpt>
      <trkpt lat="45.80803" lon="5.07021">
        <ele>186.3</ele>
        <time>2022-09-24T10:25:02Z</time>
      </trkpt>
      <trkpt lat="45.80804" lon="5.07027">
        <ele>186.3</ele>
        <time>2022-09-24T10:25:03Z</time>
      </trkpt>
      <trkpt lat="45.80805" lon="5.07033">
        <ele>186.3</ele>
        <time>2022-09-24T10:25:04Z</time>
      </trkpt>
      <trkpt lat="45.80805" lon="5.0704">
        <ele>186.4</ele>
        <time>2022-09-24T10:25:05Z</time>
      </trkpt>
      <trkpt lat="45.80807" lon="5.07046">
        <ele>186.4</ele>
        <time>2022-09-24T10:25:06Z</time>
      </trkpt>
      <trkpt lat="45.80806" lon="5.07056">
        <ele>186.4</ele>
        <time>2022-09-24T10:25:07Z</time>
      </trkpt>
      <trkpt lat="45.80807" lon="5.07063">
        <ele>186.4</ele>
        <time>2022-09-24T10:25:08Z</time>
      </trkpt>
      <trkpt lat="45.80808" lon="5.07066">
        <ele>186.4</ele>
        <time>2022-09-24T10:25:09Z</time>
      </trkpt>
      <trkpt lat="45.80808" lon="5.07071">
        <ele>186.4</ele>
        <time>2022-09-24T10:25:10Z</time>
      </trkpt>
      <trkpt lat="45.80809" lon="5.07075">
        <ele>186.4</ele>
        <time>2022-09-24T10:25:11Z</time>
      </trkpt>
      <trkpt lat="45.80819" lon="5.07117">
        <ele>186.4</ele>
        <time>2022-09-24T10:25:12Z</time>
      </trkpt>
      <trkpt lat="45.80823" lon="5.07125">
        <ele>186.3</ele>
        <time>2022-09-24T10:25:13Z</time>
      </trkpt>
      <trkpt lat="45.80827" lon="5.07132">
        <ele>186.3</ele>
        <time>2022-09-24T10:25:14Z</time>
      </trkpt>
      <trkpt lat="45.8083" lon="5.07139">
        <ele>186.2</ele>
        <time>2022-09-24T10:25:15Z</time>
      </trkpt>
      <trkpt lat="45.80833" lon="5.07146">
        <ele>186.2</ele>
        <time>2022-09-24T10:25:16Z</time>
      </trkpt>
      <trkpt lat="45.80835" lon="5.07153">
        <ele>186.2</ele>
        <time>2022-09-24T10:25:17Z</time>
      </trkpt>
      <trkpt lat="45.80837" lon="5.07158">
        <ele>186.1</ele>
        <time>2022-09-24T10:25:18Z</time>
      </trkpt>
      <trkpt lat="45.80841" lon="5.07167">
        <ele>186.1</ele>
        <time>2022-09-24T10:25:19Z</time>
      </trkpt>
      <trkpt lat="45.80844" lon="5.07174">
        <ele>186.1</ele>
        <time>2022-09-24T10:25:20Z</time>
      </trkpt>
      <trkpt lat="45.80847" lon="5.07184">
        <ele>186</ele>
        <time>2022-09-24T10:25:21Z</time>
      </trkpt>
      <trkpt lat="45.80851" lon="5.07194">
        <ele>186</ele>
        <time>2022-09-24T10:25:22Z</time>
      </trkpt>
      <trkpt lat="45.80854" lon="5.07201">
        <ele>186</ele>
        <time>2022-09-24T10:25:23Z</time>
      </trkpt>
      <trkpt lat="45.80855" lon="5.07207">
        <ele>185.9</ele>
        <time>2022-09-24T10:25:24Z</time>
      </trkpt>
      <trkpt lat="45.80857" lon="5.07215">
        <ele>185.9</ele>
        <time>2022-09-24T10:25:25Z</time>
      </trkpt>
      <trkpt lat="45.80858" lon="5.07221">
        <ele>185.9</ele>
        <time>2022-09-24T10:25:26Z</time>
      </trkpt>
      <trkpt lat="45.80861" lon="5.07228">
        <ele>185.9</ele>
        <time>2022-09-24T10:25:27Z</time>
      </trkpt>
      <trkpt lat="45.80862" lon="5.07234">
        <ele>185.9</ele>
        <time>2022-09-24T10:25:28Z</time>
      </trkpt>
      <trkpt lat="45.80865" lon="5.07239">
        <ele>185.9</ele>
        <time>2022-09-24T10:25:29Z</time>
      </trkpt>
      <trkpt lat="45.80868" lon="5.07248">
        <ele>185.9</ele>
        <time>2022-09-24T10:25:30Z</time>
      </trkpt>
      <trkpt lat="45.80871" lon="5.07255">
        <ele>185.9</ele>
        <time>2022-09-24T10:25:31Z</time>
      </trkpt>
      <trkpt lat="45.80874" lon="5.07263">
        <ele>185.9</ele>
        <time>2022-09-24T10:25:32Z</time>
      </trkpt>
      <trkpt lat="45.80876" lon="5.07269">
        <ele>185.9</ele>
        <time>2022-09-24T10:25:33Z</time>
      </trkpt>
      <trkpt lat="45.80874" lon="5.07262">
        <ele>185.8</ele>
        <time>2022-09-24T10:25:34Z</time>
      </trkpt>
      <trkpt lat="45.80876" lon="5.07267">
        <ele>185.8</ele>
        <time>2022-09-24T10:25:35Z</time>
      </trkpt>
      <trkpt lat="45.80876" lon="5.07269">
        <ele>185.8</ele>
        <time>2022-09-24T10:25:36Z</time>
      </trkpt>
      <trkpt lat="45.80877" lon="5.07273">
        <ele>185.8</ele>
        <time>2022-09-24T10:25:37Z</time>
      </trkpt>
      <trkpt lat="45.80877" lon="5.07281">
        <ele>185.8</ele>
        <time>2022-09-24T10:25:38Z</time>
      </trkpt>
      <trkpt lat="45.80882" lon="5.07291">
        <ele>185.7</ele>
        <time>2022-09-24T10:25:39Z</time>
      </trkpt>
      <trkpt lat="45.80886" lon="5.073">
        <ele>185.7</ele>
        <time>2022-09-24T10:25:40Z</time>
      </trkpt>
      <trkpt lat="45.80888" lon="5.07306">
        <ele>185.7</ele>
        <time>2022-09-24T10:25:41Z</time>
      </trkpt>
      <trkpt lat="45.80891" lon="5.07315">
        <ele>185.7</ele>
        <time>2022-09-24T10:25:42Z</time>
      </trkpt>
      <trkpt lat="45.80893" lon="5.07324">
        <ele>185.7</ele>
        <time>2022-09-24T10:25:43Z</time>
      </trkpt>
      <trkpt lat="45.80896" lon="5.07331">
        <ele>185.7</ele>
        <time>2022-09-24T10:25:44Z</time>
      </trkpt>
      <trkpt lat="45.80898" lon="5.07338">
        <ele>185.7</ele>
        <time>2022-09-24T10:25:45Z</time>
      </trkpt>
      <trkpt lat="45.809" lon="5.07344">
        <ele>185.7</ele>
        <time>2022-09-24T10:25:46Z</time>
      </trkpt>
      <trkpt lat="45.80901" lon="5.0735">
        <ele>185.7</ele>
        <time>2022-09-24T10:25:47Z</time>
      </trkpt>
      <trkpt lat="45.80903" lon="5.07356">
        <ele>185.7</ele>
        <time>2022-09-24T10:25:48Z</time>
      </trkpt>
      <trkpt lat="45.80904" lon="5.07361">
        <ele>185.7</ele>
        <time>2022-09-24T10:25:49Z</time>
      </trkpt>
      <trkpt lat="45.80906" lon="5.0737">
        <ele>185.7</ele>
        <time>2022-09-24T10:25:50Z</time>
      </trkpt>
      <trkpt lat="45.80908" lon="5.07377">
        <ele>185.7</ele>
        <time>2022-09-24T10:25:51Z</time>
      </trkpt>
      <trkpt lat="45.8091" lon="5.07382">
        <ele>185.7</ele>
        <time>2022-09-24T10:25:52Z</time>
      </trkpt>
      <trkpt lat="45.80913" lon="5.07388">
        <ele>185.7</ele>
        <time>2022-09-24T10:25:53Z</time>
      </trkpt>
      <trkpt lat="45.80914" lon="5.07396">
        <ele>185.6</ele>
        <time>2022-09-24T10:25:54Z</time>
      </trkpt>
      <trkpt lat="45.80917" lon="5.07406">
        <ele>185.6</ele>
        <time>2022-09-24T10:25:55Z</time>
      </trkpt>
      <trkpt lat="45.8092" lon="5.07414">
        <ele>185.5</ele>
        <time>2022-09-24T10:25:56Z</time>
      </trkpt>
      <trkpt lat="45.80922" lon="5.07421">
        <ele>185.5</ele>
        <time>2022-09-24T10:25:57Z</time>
      </trkpt>
      <trkpt lat="45.80925" lon="5.07427">
        <ele>185.4</ele>
        <time>2022-09-24T10:25:58Z</time>
      </trkpt>
      <trkpt lat="45.80926" lon="5.07433">
        <ele>185.4</ele>
        <time>2022-09-24T10:25:59Z</time>
      </trkpt>
      <trkpt lat="45.80928" lon="5.07441">
        <ele>185.4</ele>
        <time>2022-09-24T10:26:00Z</time>
      </trkpt>
      <trkpt lat="45.80932" lon="5.07451">
        <ele>185.3</ele>
        <time>2022-09-24T10:26:01Z</time>
      </trkpt>
      <trkpt lat="45.80935" lon="5.07459">
        <ele>185.4</ele>
        <time>2022-09-24T10:26:02Z</time>
      </trkpt>
      <trkpt lat="45.80937" lon="5.07463">
        <ele>185.4</ele>
        <time>2022-09-24T10:26:03Z</time>
      </trkpt>
      <trkpt lat="45.80938" lon="5.07469">
        <ele>185.4</ele>
        <time>2022-09-24T10:26:04Z</time>
      </trkpt>
      <trkpt lat="45.80941" lon="5.07477">
        <ele>185.5</ele>
        <time>2022-09-24T10:26:05Z</time>
      </trkpt>
      <trkpt lat="45.80942" lon="5.07487">
        <ele>185.5</ele>
        <time>2022-09-24T10:26:06Z</time>
      </trkpt>
      <trkpt lat="45.80944" lon="5.07494">
        <ele>185.6</ele>
        <time>2022-09-24T10:26:07Z</time>
      </trkpt>
      <trkpt lat="45.80945" lon="5.075">
        <ele>185.6</ele>
        <time>2022-09-24T10:26:08Z</time>
      </trkpt>
      <trkpt lat="45.80946" lon="5.07507">
        <ele>185.6</ele>
        <time>2022-09-24T10:26:09Z</time>
      </trkpt>
      <trkpt lat="45.80946" lon="5.07514">
        <ele>185.7</ele>
        <time>2022-09-24T10:26:10Z</time>
      </trkpt>
      <trkpt lat="45.80946" lon="5.0752">
        <ele>185.7</ele>
        <time>2022-09-24T10:26:11Z</time>
      </trkpt>
      <trkpt lat="45.80945" lon="5.07523">
        <ele>185.7</ele>
        <time>2022-09-24T10:26:12Z</time>
      </trkpt>
      <trkpt lat="45.80946" lon="5.0753">
        <ele>185.7</ele>
        <time>2022-09-24T10:26:13Z</time>
      </trkpt>
      <trkpt lat="45.80946" lon="5.07538">
        <ele>185.8</ele>
        <time>2022-09-24T10:26:14Z</time>
      </trkpt>
      <trkpt lat="45.80946" lon="5.07543">
        <ele>185.8</ele>
        <time>2022-09-24T10:26:15Z</time>
      </trkpt>
      <trkpt lat="45.80946" lon="5.07547">
        <ele>185.8</ele>
        <time>2022-09-24T10:26:16Z</time>
      </trkpt>
      <trkpt lat="45.80946" lon="5.07552">
        <ele>185.8</ele>
        <time>2022-09-24T10:26:17Z</time>
      </trkpt>
      <trkpt lat="45.80947" lon="5.07561">
        <ele>185.8</ele>
        <time>2022-09-24T10:26:18Z</time>
      </trkpt>
      <trkpt lat="45.80948" lon="5.07569">
        <ele>185.8</ele>
        <time>2022-09-24T10:26:19Z</time>
      </trkpt>
      <trkpt lat="45.8095" lon="5.07578">
        <ele>185.7</ele>
        <time>2022-09-24T10:26:20Z</time>
      </trkpt>
      <trkpt lat="45.80951" lon="5.07585">
        <ele>185.7</ele>
        <time>2022-09-24T10:26:21Z</time>
      </trkpt>
      <trkpt lat="45.80953" lon="5.07594">
        <ele>185.7</ele>
        <time>2022-09-24T10:26:22Z</time>
      </trkpt>
      <trkpt lat="45.80954" lon="5.07601">
        <ele>185.6</ele>
        <time>2022-09-24T10:26:23Z</time>
      </trkpt>
      <trkpt lat="45.80955" lon="5.07609">
        <ele>185.6</ele>
        <time>2022-09-24T10:26:24Z</time>
      </trkpt>
      <trkpt lat="45.80957" lon="5.07615">
        <ele>185.6</ele>
        <time>2022-09-24T10:26:25Z</time>
      </trkpt>
      <trkpt lat="45.80958" lon="5.07622">
        <ele>185.6</ele>
        <time>2022-09-24T10:26:26Z</time>
      </trkpt>
      <trkpt lat="45.8096" lon="5.0763">
        <ele>185.6</ele>
        <time>2022-09-24T10:26:27Z</time>
      </trkpt>
      <trkpt lat="45.80959" lon="5.07639">
        <ele>185.6</ele>
        <time>2022-09-24T10:26:28Z</time>
      </trkpt>
      <trkpt lat="45.80958" lon="5.07648">
        <ele>185.6</ele>
        <time>2022-09-24T10:26:29Z</time>
      </trkpt>
      <trkpt lat="45.80958" lon="5.07656">
        <ele>185.6</ele>
        <time>2022-09-24T10:26:30Z</time>
      </trkpt>
      <trkpt lat="45.80958" lon="5.07662">
        <ele>185.6</ele>
        <time>2022-09-24T10:26:31Z</time>
      </trkpt>
      <trkpt lat="45.80959" lon="5.07668">
        <ele>185.6</ele>
        <time>2022-09-24T10:26:32Z</time>
      </trkpt>
      <trkpt lat="45.8096" lon="5.07673">
        <ele>185.6</ele>
        <time>2022-09-24T10:26:33Z</time>
      </trkpt>
      <trkpt lat="45.80962" lon="5.07682">
        <ele>185.6</ele>
        <time>2022-09-24T10:26:34Z</time>
      </trkpt>
      <trkpt lat="45.80963" lon="5.07691">
        <ele>185.6</ele>
        <time>2022-09-24T10:26:35Z</time>
      </trkpt>
      <trkpt lat="45.80964" lon="5.07697">
        <ele>185.6</ele>
        <time>2022-09-24T10:26:36Z</time>
      </trkpt>
      <trkpt lat="45.80966" lon="5.07706">
        <ele>185.6</ele>
        <time>2022-09-24T10:26:37Z</time>
      </trkpt>
      <trkpt lat="45.80968" lon="5.07716">
        <ele>185.6</ele>
        <time>2022-09-24T10:26:38Z</time>
      </trkpt>
      <trkpt lat="45.80971" lon="5.07725">
        <ele>185.6</ele>
        <time>2022-09-24T10:26:40Z</time>
      </trkpt>
      <trkpt lat="45.80973" lon="5.07733">
        <ele>185.6</ele>
        <time>2022-09-24T10:26:41Z</time>
      </trkpt>
      <trkpt lat="45.80975" lon="5.0774">
        <ele>185.7</ele>
        <time>2022-09-24T10:26:42Z</time>
      </trkpt>
      <trkpt lat="45.80973" lon="5.07748">
        <ele>185.8</ele>
        <time>2022-09-24T10:26:43Z</time>
      </trkpt>
      <trkpt lat="45.80973" lon="5.07754">
        <ele>185.8</ele>
        <time>2022-09-24T10:26:44Z</time>
      </trkpt>
      <trkpt lat="45.80975" lon="5.07758">
        <ele>185.8</ele>
        <time>2022-09-24T10:26:45Z</time>
      </trkpt>
      <trkpt lat="45.80975" lon="5.07764">
        <ele>185.9</ele>
        <time>2022-09-24T10:26:46Z</time>
      </trkpt>
      <trkpt lat="45.80976" lon="5.07769">
        <ele>186</ele>
        <time>2022-09-24T10:26:47Z</time>
      </trkpt>
      <trkpt lat="45.80976" lon="5.07772">
        <ele>186</ele>
        <time>2022-09-24T10:26:48Z</time>
      </trkpt>
      <trkpt lat="45.80977" lon="5.07778">
        <ele>186</ele>
        <time>2022-09-24T10:26:49Z</time>
      </trkpt>
      <trkpt lat="45.80977" lon="5.07781">
        <ele>186.1</ele>
        <time>2022-09-24T10:26:50Z</time>
      </trkpt>
      <trkpt lat="45.80976" lon="5.07786">
        <ele>186.1</ele>
        <time>2022-09-24T10:26:51Z</time>
      </trkpt>
      <trkpt lat="45.80974" lon="5.0779">
        <ele>186.2</ele>
        <time>2022-09-24T10:26:52Z</time>
      </trkpt>
      <trkpt lat="45.80972" lon="5.07791">
        <ele>187.9</ele>
        <time>2022-09-24T10:26:53Z</time>
      </trkpt>
      <trkpt lat="45.80971" lon="5.07792">
        <ele>188</ele>
        <time>2022-09-24T10:26:54Z</time>
      </trkpt>
      <trkpt lat="45.8097" lon="5.07792">
        <ele>188.1</ele>
        <time>2022-09-24T10:26:55Z</time>
      </trkpt>
      <trkpt lat="45.8097" lon="5.07792">
        <ele>188.2</ele>
        <time>2022-09-24T10:26:56Z</time>
      </trkpt>
      <trkpt lat="45.80969" lon="5.07792">
        <ele>188.3</ele>
        <time>2022-09-24T10:26:57Z</time>
      </trkpt>
      <trkpt lat="45.80969" lon="5.07793">
        <ele>188.3</ele>
        <time>2022-09-24T10:26:58Z</time>
      </trkpt>
      <trkpt lat="45.80968" lon="5.07793">
        <ele>188.4</ele>
        <time>2022-09-24T10:26:59Z</time>
      </trkpt>
      <trkpt lat="45.80968" lon="5.07793">
        <ele>188.5</ele>
        <time>2022-09-24T10:27:00Z</time>
      </trkpt>
      <trkpt lat="45.80966" lon="5.07795">
        <ele>188.8</ele>
        <time>2022-09-24T10:27:01Z</time>
      </trkpt>
      <trkpt lat="45.80965" lon="5.07795">
        <ele>189.1</ele>
        <time>2022-09-24T10:27:02Z</time>
      </trkpt>
      <trkpt lat="45.80962" lon="5.07795">
        <ele>189.5</ele>
        <time>2022-09-24T10:27:03Z</time>
      </trkpt>
      <trkpt lat="45.8096" lon="5.07794">
        <ele>189.8</ele>
        <time>2022-09-24T10:27:04Z</time>
      </trkpt>
      <trkpt lat="45.80959" lon="5.07794">
        <ele>190</ele>
        <time>2022-09-24T10:27:05Z</time>
      </trkpt>
      <trkpt lat="45.80956" lon="5.07794">
        <ele>190.5</ele>
        <time>2022-09-24T10:27:06Z</time>
      </trkpt>
      <trkpt lat="45.80955" lon="5.07794">
        <ele>190.7</ele>
        <time>2022-09-24T10:27:07Z</time>
      </trkpt>
      <trkpt lat="45.80954" lon="5.07794">
        <ele>190.9</ele>
        <time>2022-09-24T10:27:08Z</time>
      </trkpt>
      <trkpt lat="45.80951" lon="5.07793">
        <ele>191.3</ele>
        <time>2022-09-24T10:27:09Z</time>
      </trkpt>
      <trkpt lat="45.80947" lon="5.07794">
        <ele>191.9</ele>
        <time>2022-09-24T10:27:10Z</time>
      </trkpt>
      <trkpt lat="45.80945" lon="5.07794">
        <ele>192.2</ele>
        <time>2022-09-24T10:27:11Z</time>
      </trkpt>
      <trkpt lat="45.80943" lon="5.07795">
        <ele>192.6</ele>
        <time>2022-09-24T10:27:12Z</time>
      </trkpt>
      <trkpt lat="45.80938" lon="5.07796">
        <ele>193.3</ele>
        <time>2022-09-24T10:27:13Z</time>
      </trkpt>
      <trkpt lat="45.80937" lon="5.07796">
        <ele>193.6</ele>
        <time>2022-09-24T10:27:14Z</time>
      </trkpt>
      <trkpt lat="45.80935" lon="5.07796">
        <ele>193.8</ele>
        <time>2022-09-24T10:27:15Z</time>
      </trkpt>
      <trkpt lat="45.80931" lon="5.07796">
        <ele>194.4</ele>
        <time>2022-09-24T10:27:16Z</time>
      </trkpt>
      <trkpt lat="45.80928" lon="5.07798">
        <ele>194.9</ele>
        <time>2022-09-24T10:27:17Z</time>
      </trkpt>
      <trkpt lat="45.80925" lon="5.078">
        <ele>195.5</ele>
        <time>2022-09-24T10:27:18Z</time>
      </trkpt>
      <trkpt lat="45.80924" lon="5.078">
        <ele>195.8</ele>
        <time>2022-09-24T10:27:19Z</time>
      </trkpt>
      <trkpt lat="45.80921" lon="5.07803">
        <ele>196.3</ele>
        <time>2022-09-24T10:27:20Z</time>
      </trkpt>
      <trkpt lat="45.8092" lon="5.07804">
        <ele>196.5</ele>
        <time>2022-09-24T10:27:21Z</time>
      </trkpt>
      <trkpt lat="45.80919" lon="5.07804">
        <ele>196.8</ele>
        <time>2022-09-24T10:27:22Z</time>
      </trkpt>
      <trkpt lat="45.80917" lon="5.07805">
        <ele>197.1</ele>
        <time>2022-09-24T10:27:23Z</time>
      </trkpt>
      <trkpt lat="45.80915" lon="5.07807">
        <ele>197.6</ele>
        <time>2022-09-24T10:27:24Z</time>
      </trkpt>
      <trkpt lat="45.80914" lon="5.07807">
        <ele>197.7</ele>
        <time>2022-09-24T10:27:25Z</time>
      </trkpt>
      <trkpt lat="45.80914" lon="5.07807">
        <ele>197.8</ele>
        <time>2022-09-24T10:27:26Z</time>
      </trkpt>
      <trkpt lat="45.80913" lon="5.07807">
        <ele>197.9</ele>
        <time>2022-09-24T10:27:27Z</time>
      </trkpt>
      <trkpt lat="45.80913" lon="5.07807">
        <ele>198</ele>
        <time>2022-09-24T10:27:28Z</time>
      </trkpt>
      <trkpt lat="45.80911" lon="5.07807">
        <ele>198.3</ele>
        <time>2022-09-24T10:27:29Z</time>
      </trkpt>
      <trkpt lat="45.80911" lon="5.07807">
        <ele>198.4</ele>
        <time>2022-09-24T10:27:30Z</time>
      </trkpt>
      <trkpt lat="45.8091" lon="5.07807">
        <ele>198.6</ele>
        <time>2022-09-24T10:27:31Z</time>
      </trkpt>
      <trkpt lat="45.8091" lon="5.07807">
        <ele>198.7</ele>
        <time>2022-09-24T10:27:32Z</time>
      </trkpt>
      <trkpt lat="45.80909" lon="5.07807">
        <ele>198.7</ele>
        <time>2022-09-24T10:27:33Z</time>
      </trkpt>
      <trkpt lat="45.80909" lon="5.07807">
        <ele>198.8</ele>
        <time>2022-09-24T10:27:34Z</time>
      </trkpt>
      <trkpt lat="45.80907" lon="5.07808">
        <ele>199.3</ele>
        <time>2022-09-24T10:27:35Z</time>
      </trkpt>
      <trkpt lat="45.80906" lon="5.07809">
        <ele>199.4</ele>
        <time>2022-09-24T10:27:38Z</time>
      </trkpt>
      <trkpt lat="45.80906" lon="5.0781">
        <ele>199.5</ele>
        <time>2022-09-24T10:27:39Z</time>
      </trkpt>
      <trkpt lat="45.80905" lon="5.0781">
        <ele>199.6</ele>
        <time>2022-09-24T10:27:40Z</time>
      </trkpt>
      <trkpt lat="45.80905" lon="5.0781">
        <ele>199.7</ele>
        <time>2022-09-24T10:27:41Z</time>
      </trkpt>
      <trkpt lat="45.80904" lon="5.0781">
        <ele>199.8</ele>
        <time>2022-09-24T10:27:42Z</time>
      </trkpt>
      <trkpt lat="45.80903" lon="5.0781">
        <ele>199.9</ele>
        <time>2022-09-24T10:27:43Z</time>
      </trkpt>
      <trkpt lat="45.80903" lon="5.0781">
        <ele>199.9</ele>
        <time>2022-09-24T10:27:44Z</time>
      </trkpt>
      <trkpt lat="45.80902" lon="5.07811">
        <ele>200</ele>
        <time>2022-09-24T10:27:45Z</time>
      </trkpt>
      <trkpt lat="45.80902" lon="5.07811">
        <ele>200.1</ele>
        <time>2022-09-24T10:27:46Z</time>
      </trkpt>
      <trkpt lat="45.809" lon="5.07811">
        <ele>200.3</ele>
        <time>2022-09-24T10:27:47Z</time>
      </trkpt>
      <trkpt lat="45.809" lon="5.07811">
        <ele>200.4</ele>
        <time>2022-09-24T10:27:48Z</time>
      </trkpt>
      <trkpt lat="45.809" lon="5.07811">
        <ele>200.5</ele>
        <time>2022-09-24T10:27:49Z</time>
      </trkpt>
      <trkpt lat="45.80899" lon="5.07811">
        <ele>200.6</ele>
        <time>2022-09-24T10:27:51Z</time>
      </trkpt>
      <trkpt lat="45.80899" lon="5.07811">
        <ele>200.7</ele>
        <time>2022-09-24T10:27:52Z</time>
      </trkpt>
      <trkpt lat="45.80898" lon="5.07811">
        <ele>200.7</ele>
        <time>2022-09-24T10:27:53Z</time>
      </trkpt>
      <trkpt lat="45.80898" lon="5.07811">
        <ele>200.8</ele>
        <time>2022-09-24T10:27:54Z</time>
      </trkpt>
      <trkpt lat="45.80897" lon="5.07811">
        <ele>200.9</ele>
        <time>2022-09-24T10:27:55Z</time>
      </trkpt>
      <trkpt lat="45.80897" lon="5.07811">
        <ele>201</ele>
        <time>2022-09-24T10:27:56Z</time>
      </trkpt>
      <trkpt lat="45.80896" lon="5.07811">
        <ele>201.1</ele>
        <time>2022-09-24T10:27:57Z</time>
      </trkpt>
      <trkpt lat="45.80895" lon="5.07812">
        <ele>201.3</ele>
        <time>2022-09-24T10:27:58Z</time>
      </trkpt>
      <trkpt lat="45.80894" lon="5.07813">
        <ele>201.5</ele>
        <time>2022-09-24T10:27:59Z</time>
      </trkpt>
      <trkpt lat="45.80893" lon="5.07813">
        <ele>201.5</ele>
        <time>2022-09-24T10:28:00Z</time>
      </trkpt>
      <trkpt lat="45.80893" lon="5.07813">
        <ele>201.6</ele>
        <time>2022-09-24T10:28:01Z</time>
      </trkpt>
      <trkpt lat="45.80892" lon="5.07813">
        <ele>201.7</ele>
        <time>2022-09-24T10:28:02Z</time>
      </trkpt>
      <trkpt lat="45.80891" lon="5.07814">
        <ele>201.8</ele>
        <time>2022-09-24T10:28:03Z</time>
      </trkpt>
      <trkpt lat="45.80891" lon="5.07814">
        <ele>201.9</ele>
        <time>2022-09-24T10:28:04Z</time>
      </trkpt>
      <trkpt lat="45.8089" lon="5.07815">
        <ele>202</ele>
        <time>2022-09-24T10:28:05Z</time>
      </trkpt>
      <trkpt lat="45.80889" lon="5.07815">
        <ele>202.1</ele>
        <time>2022-09-24T10:28:06Z</time>
      </trkpt>
      <trkpt lat="45.80889" lon="5.07815">
        <ele>202.1</ele>
        <time>2022-09-24T10:28:07Z</time>
      </trkpt>
      <trkpt lat="45.80888" lon="5.07815">
        <ele>202.3</ele>
        <time>2022-09-24T10:28:08Z</time>
      </trkpt>
      <trkpt lat="45.80887" lon="5.07815">
        <ele>202.4</ele>
        <time>2022-09-24T10:28:09Z</time>
      </trkpt>
      <trkpt lat="45.80885" lon="5.07815">
        <ele>202.6</ele>
        <time>2022-09-24T10:28:10Z</time>
      </trkpt>
      <trkpt lat="45.80884" lon="5.07815">
        <ele>202.8</ele>
        <time>2022-09-24T10:28:11Z</time>
      </trkpt>
      <trkpt lat="45.80884" lon="5.07816">
        <ele>202.9</ele>
        <time>2022-09-24T10:28:12Z</time>
      </trkpt>
      <trkpt lat="45.80884" lon="5.07817">
        <ele>202.9</ele>
        <time>2022-09-24T10:28:13Z</time>
      </trkpt>
      <trkpt lat="45.80882" lon="5.07817">
        <ele>203.1</ele>
        <time>2022-09-24T10:28:14Z</time>
      </trkpt>
      <trkpt lat="45.80881" lon="5.07817">
        <ele>203.2</ele>
        <time>2022-09-24T10:28:15Z</time>
      </trkpt>
      <trkpt lat="45.80879" lon="5.07818">
        <ele>203.5</ele>
        <time>2022-09-24T10:28:16Z</time>
      </trkpt>
      <trkpt lat="45.80878" lon="5.07818">
        <ele>203.6</ele>
        <time>2022-09-24T10:28:17Z</time>
      </trkpt>
      <trkpt lat="45.80877" lon="5.07819">
        <ele>203.7</ele>
        <time>2022-09-24T10:28:18Z</time>
      </trkpt>
      <trkpt lat="45.80876" lon="5.07819">
        <ele>203.8</ele>
        <time>2022-09-24T10:28:19Z</time>
      </trkpt>
      <trkpt lat="45.80875" lon="5.07819">
        <ele>203.9</ele>
        <time>2022-09-24T10:28:20Z</time>
      </trkpt>
      <trkpt lat="45.80874" lon="5.07819">
        <ele>204</ele>
        <time>2022-09-24T10:28:21Z</time>
      </trkpt>
      <trkpt lat="45.80871" lon="5.07821">
        <ele>204.3</ele>
        <time>2022-09-24T10:28:22Z</time>
      </trkpt>
      <trkpt lat="45.80871" lon="5.07821">
        <ele>204.4</ele>
        <time>2022-09-24T10:28:23Z</time>
      </trkpt>
      <trkpt lat="45.8087" lon="5.07821">
        <ele>204.4</ele>
        <time>2022-09-24T10:28:24Z</time>
      </trkpt>
      <trkpt lat="45.80868" lon="5.07822">
        <ele>204.7</ele>
        <time>2022-09-24T10:28:25Z</time>
      </trkpt>
      <trkpt lat="45.80866" lon="5.07823">
        <ele>204.8</ele>
        <time>2022-09-24T10:28:26Z</time>
      </trkpt>
      <trkpt lat="45.80865" lon="5.07823">
        <ele>204.9</ele>
        <time>2022-09-24T10:28:27Z</time>
      </trkpt>
      <trkpt lat="45.80864" lon="5.07823">
        <ele>205</ele>
        <time>2022-09-24T10:28:28Z</time>
      </trkpt>
      <trkpt lat="45.80863" lon="5.07823">
        <ele>205.1</ele>
        <time>2022-09-24T10:28:29Z</time>
      </trkpt>
      <trkpt lat="45.80862" lon="5.07824">
        <ele>205.2</ele>
        <time>2022-09-24T10:28:30Z</time>
      </trkpt>
      <trkpt lat="45.80862" lon="5.07824">
        <ele>205.3</ele>
        <time>2022-09-24T10:28:31Z</time>
      </trkpt>
      <trkpt lat="45.80861" lon="5.07824">
        <ele>205.3</ele>
        <time>2022-09-24T10:28:32Z</time>
      </trkpt>
      <trkpt lat="45.80861" lon="5.07824">
        <ele>205.3</ele>
        <time>2022-09-24T10:28:33Z</time>
      </trkpt>
      <trkpt lat="45.8086" lon="5.07824">
        <ele>205.4</ele>
        <time>2022-09-24T10:28:34Z</time>
      </trkpt>
      <trkpt lat="45.8086" lon="5.07824">
        <ele>205.4</ele>
        <time>2022-09-24T10:28:35Z</time>
      </trkpt>
      <trkpt lat="45.8086" lon="5.07824">
        <ele>205.4</ele>
        <time>2022-09-24T10:28:36Z</time>
      </trkpt>
      <trkpt lat="45.8086" lon="5.07825">
        <ele>205.4</ele>
        <time>2022-09-24T10:28:37Z</time>
      </trkpt>
      <trkpt lat="45.8086" lon="5.07825">
        <ele>205.5</ele>
        <time>2022-09-24T10:28:38Z</time>
      </trkpt>
      <trkpt lat="45.8086" lon="5.07825">
        <ele>205.5</ele>
        <time>2022-09-24T10:28:39Z</time>
      </trkpt>
      <trkpt lat="45.80859" lon="5.07825">
        <ele>205.5</ele>
        <time>2022-09-24T10:28:40Z</time>
      </trkpt>
      <trkpt lat="45.80859" lon="5.07825">
        <ele>205.6</ele>
        <time>2022-09-24T10:28:41Z</time>
      </trkpt>
      <trkpt lat="45.80854" lon="5.07826">
        <ele>206</ele>
        <time>2022-09-24T10:28:42Z</time>
      </trkpt>
      <trkpt lat="45.80851" lon="5.07828">
        <ele>206.3</ele>
        <time>2022-09-24T10:29:00Z</time>
      </trkpt>
      <trkpt lat="45.80848" lon="5.07829">
        <ele>206.5</ele>
        <time>2022-09-24T10:29:01Z</time>
      </trkpt>
      <trkpt lat="45.80845" lon="5.0783">
        <ele>206.7</ele>
        <time>2022-09-24T10:29:02Z</time>
      </trkpt>
      <trkpt lat="45.80842" lon="5.07831">
        <ele>207</ele>
        <time>2022-09-24T10:29:03Z</time>
      </trkpt>
      <trkpt lat="45.80841" lon="5.07831">
        <ele>207.1</ele>
        <time>2022-09-24T10:29:04Z</time>
      </trkpt>
      <trkpt lat="45.80838" lon="5.07831">
        <ele>207.3</ele>
        <time>2022-09-24T10:29:05Z</time>
      </trkpt>
      <trkpt lat="45.80835" lon="5.07832">
        <ele>207.5</ele>
        <time>2022-09-24T10:29:06Z</time>
      </trkpt>
      <trkpt lat="45.80834" lon="5.07832">
        <ele>207.6</ele>
        <time>2022-09-24T10:29:07Z</time>
      </trkpt>
      <trkpt lat="45.80831" lon="5.07833">
        <ele>207.8</ele>
        <time>2022-09-24T10:29:08Z</time>
      </trkpt>
      <trkpt lat="45.80827" lon="5.07834">
        <ele>208.1</ele>
        <time>2022-09-24T10:29:09Z</time>
      </trkpt>
      <trkpt lat="45.80826" lon="5.07834">
        <ele>208.2</ele>
        <time>2022-09-24T10:29:10Z</time>
      </trkpt>
      <trkpt lat="45.80823" lon="5.07835">
        <ele>208.3</ele>
        <time>2022-09-24T10:29:11Z</time>
      </trkpt>
      <trkpt lat="45.8082" lon="5.07835">
        <ele>208.5</ele>
        <time>2022-09-24T10:29:12Z</time>
      </trkpt>
      <trkpt lat="45.80817" lon="5.07836">
        <ele>208.7</ele>
        <time>2022-09-24T10:29:13Z</time>
      </trkpt>
      <trkpt lat="45.80814" lon="5.07837">
        <ele>208.9</ele>
        <time>2022-09-24T10:29:14Z</time>
      </trkpt>
      <trkpt lat="45.8081" lon="5.07837">
        <ele>209.1</ele>
        <time>2022-09-24T10:29:15Z</time>
      </trkpt>
      <trkpt lat="45.80808" lon="5.07837">
        <ele>209.2</ele>
        <time>2022-09-24T10:29:16Z</time>
      </trkpt>
      <trkpt lat="45.80805" lon="5.07838">
        <ele>209.4</ele>
        <time>2022-09-24T10:29:17Z</time>
      </trkpt>
      <trkpt lat="45.80803" lon="5.07839">
        <ele>209.5</ele>
        <time>2022-09-24T10:29:18Z</time>
      </trkpt>
      <trkpt lat="45.808" lon="5.07841">
        <ele>209.6</ele>
        <time>2022-09-24T10:29:19Z</time>
      </trkpt>
      <trkpt lat="45.80796" lon="5.07841">
        <ele>209.8</ele>
        <time>2022-09-24T10:29:20Z</time>
      </trkpt>
      <trkpt lat="45.80793" lon="5.07842">
        <ele>209.9</ele>
        <time>2022-09-24T10:29:21Z</time>
      </trkpt>
      <trkpt lat="45.80791" lon="5.07842">
        <ele>210</ele>
        <time>2022-09-24T10:29:22Z</time>
      </trkpt>
      <trkpt lat="45.80788" lon="5.07842">
        <ele>210.1</ele>
        <time>2022-09-24T10:29:23Z</time>
      </trkpt>
      <trkpt lat="45.80785" lon="5.07844">
        <ele>210.2</ele>
        <time>2022-09-24T10:29:24Z</time>
      </trkpt>
      <trkpt lat="45.80781" lon="5.07845">
        <ele>210.4</ele>
        <time>2022-09-24T10:29:25Z</time>
      </trkpt>
      <trkpt lat="45.8078" lon="5.07845">
        <ele>210.4</ele>
        <time>2022-09-24T10:29:26Z</time>
      </trkpt>
      <trkpt lat="45.80777" lon="5.07846">
        <ele>210.5</ele>
        <time>2022-09-24T10:29:27Z</time>
      </trkpt>
      <trkpt lat="45.80774" lon="5.07847">
        <ele>210.6</ele>
        <time>2022-09-24T10:29:28Z</time>
      </trkpt>
      <trkpt lat="45.80772" lon="5.07847">
        <ele>210.7</ele>
        <time>2022-09-24T10:29:29Z</time>
      </trkpt>
      <trkpt lat="45.80769" lon="5.07848">
        <ele>210.8</ele>
        <time>2022-09-24T10:29:30Z</time>
      </trkpt>
      <trkpt lat="45.80768" lon="5.07848">
        <ele>210.8</ele>
        <time>2022-09-24T10:29:31Z</time>
      </trkpt>
      <trkpt lat="45.80766" lon="5.07848">
        <ele>210.8</ele>
        <time>2022-09-24T10:29:32Z</time>
      </trkpt>
      <trkpt lat="45.80765" lon="5.07848">
        <ele>210.8</ele>
        <time>2022-09-24T10:29:33Z</time>
      </trkpt>
      <trkpt lat="45.80764" lon="5.07848">
        <ele>210.9</ele>
        <time>2022-09-24T10:29:34Z</time>
      </trkpt>
      <trkpt lat="45.8076" lon="5.07848">
        <ele>211</ele>
        <time>2022-09-24T10:29:35Z</time>
      </trkpt>
      <trkpt lat="45.80759" lon="5.07848">
        <ele>211</ele>
        <time>2022-09-24T10:29:36Z</time>
      </trkpt>
      <trkpt lat="45.80757" lon="5.07849">
        <ele>211</ele>
        <time>2022-09-24T10:29:37Z</time>
      </trkpt>
      <trkpt lat="45.80756" lon="5.07849">
        <ele>211</ele>
        <time>2022-09-24T10:29:38Z</time>
      </trkpt>
      <trkpt lat="45.80754" lon="5.0785">
        <ele>211</ele>
        <time>2022-09-24T10:29:39Z</time>
      </trkpt>
      <trkpt lat="45.80751" lon="5.0785">
        <ele>211</ele>
        <time>2022-09-24T10:29:40Z</time>
      </trkpt>
      <trkpt lat="45.80748" lon="5.07851">
        <ele>211.1</ele>
        <time>2022-09-24T10:29:41Z</time>
      </trkpt>
      <trkpt lat="45.80747" lon="5.07852">
        <ele>211.1</ele>
        <time>2022-09-24T10:29:42Z</time>
      </trkpt>
      <trkpt lat="45.80743" lon="5.07852">
        <ele>211.1</ele>
        <time>2022-09-24T10:29:43Z</time>
      </trkpt>
      <trkpt lat="45.80742" lon="5.07851">
        <ele>211.1</ele>
        <time>2022-09-24T10:29:44Z</time>
      </trkpt>
      <trkpt lat="45.80738" lon="5.07852">
        <ele>211.1</ele>
        <time>2022-09-24T10:29:45Z</time>
      </trkpt>
      <trkpt lat="45.80736" lon="5.07854">
        <ele>211.1</ele>
        <time>2022-09-24T10:29:46Z</time>
      </trkpt>
      <trkpt lat="45.80733" lon="5.07854">
        <ele>211.2</ele>
        <time>2022-09-24T10:29:47Z</time>
      </trkpt>
      <trkpt lat="45.80729" lon="5.07854">
        <ele>211.2</ele>
        <time>2022-09-24T10:29:48Z</time>
      </trkpt>
      <trkpt lat="45.80725" lon="5.07856">
        <ele>211.2</ele>
        <time>2022-09-24T10:29:49Z</time>
      </trkpt>
      <trkpt lat="45.80721" lon="5.07856">
        <ele>211.2</ele>
        <time>2022-09-24T10:29:50Z</time>
      </trkpt>
      <trkpt lat="45.80718" lon="5.07858">
        <ele>211.2</ele>
        <time>2022-09-24T10:29:51Z</time>
      </trkpt>
      <trkpt lat="45.80715" lon="5.07859">
        <ele>211.2</ele>
        <time>2022-09-24T10:29:52Z</time>
      </trkpt>
      <trkpt lat="45.80711" lon="5.0786">
        <ele>211.3</ele>
        <time>2022-09-24T10:29:53Z</time>
      </trkpt>
      <trkpt lat="45.80708" lon="5.0786">
        <ele>211.3</ele>
        <time>2022-09-24T10:29:54Z</time>
      </trkpt>
      <trkpt lat="45.80703" lon="5.07861">
        <ele>211.3</ele>
        <time>2022-09-24T10:29:55Z</time>
      </trkpt>
      <trkpt lat="45.80701" lon="5.07863">
        <ele>211.3</ele>
        <time>2022-09-24T10:29:56Z</time>
      </trkpt>
      <trkpt lat="45.80698" lon="5.07866">
        <ele>211.3</ele>
        <time>2022-09-24T10:29:57Z</time>
      </trkpt>
      <trkpt lat="45.80694" lon="5.07869">
        <ele>211.3</ele>
        <time>2022-09-24T10:29:58Z</time>
      </trkpt>
      <trkpt lat="45.80691" lon="5.07873">
        <ele>211.3</ele>
        <time>2022-09-24T10:29:59Z</time>
      </trkpt>
      <trkpt lat="45.80687" lon="5.07876">
        <ele>211.2</ele>
        <time>2022-09-24T10:30:00Z</time>
      </trkpt>
      <trkpt lat="45.80683" lon="5.0788">
        <ele>211.1</ele>
        <time>2022-09-24T10:30:01Z</time>
      </trkpt>
      <trkpt lat="45.80681" lon="5.07885">
        <ele>211.1</ele>
        <time>2022-09-24T10:30:02Z</time>
      </trkpt>
      <trkpt lat="45.80677" lon="5.07889">
        <ele>211</ele>
        <time>2022-09-24T10:30:03Z</time>
      </trkpt>
      <trkpt lat="45.80672" lon="5.07892">
        <ele>210.9</ele>
        <time>2022-09-24T10:30:04Z</time>
      </trkpt>
      <trkpt lat="45.80667" lon="5.07897">
        <ele>210.8</ele>
        <time>2022-09-24T10:30:05Z</time>
      </trkpt>
      <trkpt lat="45.80663" lon="5.079">
        <ele>210.8</ele>
        <time>2022-09-24T10:30:06Z</time>
      </trkpt>
      <trkpt lat="45.80659" lon="5.07904">
        <ele>210.7</ele>
        <time>2022-09-24T10:30:07Z</time>
      </trkpt>
      <trkpt lat="45.80655" lon="5.07907">
        <ele>210.7</ele>
        <time>2022-09-24T10:30:08Z</time>
      </trkpt>
      <trkpt lat="45.80652" lon="5.0791">
        <ele>210.7</ele>
        <time>2022-09-24T10:30:09Z</time>
      </trkpt>
      <trkpt lat="45.8065" lon="5.07915">
        <ele>210.7</ele>
        <time>2022-09-24T10:30:10Z</time>
      </trkpt>
      <trkpt lat="45.8065" lon="5.07922">
        <ele>210.7</ele>
        <time>2022-09-24T10:30:11Z</time>
      </trkpt>
      <trkpt lat="45.80648" lon="5.07926">
        <ele>210.7</ele>
        <time>2022-09-24T10:30:12Z</time>
      </trkpt>
      <trkpt lat="45.80644" lon="5.07927">
        <ele>210.7</ele>
        <time>2022-09-24T10:30:13Z</time>
      </trkpt>
      <trkpt lat="45.80643" lon="5.07927">
        <ele>210.6</ele>
        <time>2022-09-24T10:30:14Z</time>
      </trkpt>
      <trkpt lat="45.80639" lon="5.07926">
        <ele>210.6</ele>
        <time>2022-09-24T10:30:15Z</time>
      </trkpt>
      <trkpt lat="45.80637" lon="5.07924">
        <ele>210.5</ele>
        <time>2022-09-24T10:30:16Z</time>
      </trkpt>
      <trkpt lat="45.80636" lon="5.07926">
        <ele>210.5</ele>
        <time>2022-09-24T10:30:17Z</time>
      </trkpt>
      <trkpt lat="45.80635" lon="5.07928">
        <ele>210.5</ele>
        <time>2022-09-24T10:30:18Z</time>
      </trkpt>
      <trkpt lat="45.80634" lon="5.07933">
        <ele>210.4</ele>
        <time>2022-09-24T10:30:19Z</time>
      </trkpt>
      <trkpt lat="45.80633" lon="5.07937">
        <ele>210.4</ele>
        <time>2022-09-24T10:30:20Z</time>
      </trkpt>
      <trkpt lat="45.80632" lon="5.07942">
        <ele>210.3</ele>
        <time>2022-09-24T10:30:21Z</time>
      </trkpt>
      <trkpt lat="45.80631" lon="5.07947">
        <ele>210.3</ele>
        <time>2022-09-24T10:30:22Z</time>
      </trkpt>
      <trkpt lat="45.8063" lon="5.07953">
        <ele>210.2</ele>
        <time>2022-09-24T10:30:23Z</time>
      </trkpt>
      <trkpt lat="45.80629" lon="5.07959">
        <ele>210.2</ele>
        <time>2022-09-24T10:30:24Z</time>
      </trkpt>
      <trkpt lat="45.80628" lon="5.07964">
        <ele>210.2</ele>
        <time>2022-09-24T10:30:25Z</time>
      </trkpt>
      <trkpt lat="45.80628" lon="5.0797">
        <ele>210.1</ele>
        <time>2022-09-24T10:30:26Z</time>
      </trkpt>
      <trkpt lat="45.80627" lon="5.07976">
        <ele>210.1</ele>
        <time>2022-09-24T10:30:27Z</time>
      </trkpt>
      <trkpt lat="45.80627" lon="5.07983">
        <ele>210.1</ele>
        <time>2022-09-24T10:30:28Z</time>
      </trkpt>
      <trkpt lat="45.80627" lon="5.07989">
        <ele>210.1</ele>
        <time>2022-09-24T10:30:29Z</time>
      </trkpt>
      <trkpt lat="45.80626" lon="5.07996">
        <ele>210.1</ele>
        <time>2022-09-24T10:30:30Z</time>
      </trkpt>
      <trkpt lat="45.80626" lon="5.08002">
        <ele>210.1</ele>
        <time>2022-09-24T10:30:31Z</time>
      </trkpt>
      <trkpt lat="45.80626" lon="5.08008">
        <ele>210.1</ele>
        <time>2022-09-24T10:30:32Z</time>
      </trkpt>
      <trkpt lat="45.80626" lon="5.08015">
        <ele>210.1</ele>
        <time>2022-09-24T10:30:33Z</time>
      </trkpt>
      <trkpt lat="45.80627" lon="5.08022">
        <ele>210.1</ele>
        <time>2022-09-24T10:30:34Z</time>
      </trkpt>
      <trkpt lat="45.80627" lon="5.08029">
        <ele>210.1</ele>
        <time>2022-09-24T10:30:35Z</time>
      </trkpt>
      <trkpt lat="45.80627" lon="5.08036">
        <ele>210.1</ele>
        <time>2022-09-24T10:30:36Z</time>
      </trkpt>
      <trkpt lat="45.80628" lon="5.08042">
        <ele>210.1</ele>
        <time>2022-09-24T10:30:37Z</time>
      </trkpt>
      <trkpt lat="45.80628" lon="5.08048">
        <ele>210.2</ele>
        <time>2022-09-24T10:30:38Z</time>
      </trkpt>
      <trkpt lat="45.80628" lon="5.08055">
        <ele>210.2</ele>
        <time>2022-09-24T10:30:39Z</time>
      </trkpt>
      <trkpt lat="45.80629" lon="5.08061">
        <ele>210.3</ele>
        <time>2022-09-24T10:30:40Z</time>
      </trkpt>
      <trkpt lat="45.80629" lon="5.08067">
        <ele>210.3</ele>
        <time>2022-09-24T10:30:41Z</time>
      </trkpt>
      <trkpt lat="45.8063" lon="5.08073">
        <ele>210.4</ele>
        <time>2022-09-24T10:30:42Z</time>
      </trkpt>
      <trkpt lat="45.8063" lon="5.08077">
        <ele>210.4</ele>
        <time>2022-09-24T10:30:43Z</time>
      </trkpt>
      <trkpt lat="45.80631" lon="5.08082">
        <ele>210.5</ele>
        <time>2022-09-24T10:30:44Z</time>
      </trkpt>
      <trkpt lat="45.80632" lon="5.08089">
        <ele>210.6</ele>
        <time>2022-09-24T10:30:45Z</time>
      </trkpt>
      <trkpt lat="45.80633" lon="5.08095">
        <ele>210.7</ele>
        <time>2022-09-24T10:30:46Z</time>
      </trkpt>
      <trkpt lat="45.80635" lon="5.08102">
        <ele>210.8</ele>
        <time>2022-09-24T10:30:47Z</time>
      </trkpt>
      <trkpt lat="45.80636" lon="5.08107">
        <ele>210.9</ele>
        <time>2022-09-24T10:30:48Z</time>
      </trkpt>
      <trkpt lat="45.80637" lon="5.08112">
        <ele>211</ele>
        <time>2022-09-24T10:30:49Z</time>
      </trkpt>
      <trkpt lat="45.80638" lon="5.08116">
        <ele>211</ele>
        <time>2022-09-24T10:30:50Z</time>
      </trkpt>
      <trkpt lat="45.8064" lon="5.08119">
        <ele>211.1</ele>
        <time>2022-09-24T10:30:52Z</time>
      </trkpt>
      <trkpt lat="45.80643" lon="5.08121">
        <ele>211.1</ele>
        <time>2022-09-24T10:30:53Z</time>
      </trkpt>
      <trkpt lat="45.80646" lon="5.08122">
        <ele>211.2</ele>
        <time>2022-09-24T10:30:54Z</time>
      </trkpt>
      <trkpt lat="45.80647" lon="5.08122">
        <ele>211.2</ele>
        <time>2022-09-24T10:30:55Z</time>
      </trkpt>
      <trkpt lat="45.8065" lon="5.08121">
        <ele>211.2</ele>
        <time>2022-09-24T10:30:56Z</time>
      </trkpt>
      <trkpt lat="45.80651" lon="5.08121">
        <ele>211.3</ele>
        <time>2022-09-24T10:30:57Z</time>
      </trkpt>
      <trkpt lat="45.80654" lon="5.08121">
        <ele>211.3</ele>
        <time>2022-09-24T10:30:58Z</time>
      </trkpt>
      <trkpt lat="45.80655" lon="5.08126">
        <ele>211.4</ele>
        <time>2022-09-24T10:30:59Z</time>
      </trkpt>
      <trkpt lat="45.80655" lon="5.08128">
        <ele>211.4</ele>
        <time>2022-09-24T10:31:00Z</time>
      </trkpt>
      <trkpt lat="45.80654" lon="5.08132">
        <ele>211.5</ele>
        <time>2022-09-24T10:31:01Z</time>
      </trkpt>
      <trkpt lat="45.80656" lon="5.08138">
        <ele>211.6</ele>
        <time>2022-09-24T10:31:02Z</time>
      </trkpt>
      <trkpt lat="45.80658" lon="5.08148">
        <ele>211.8</ele>
        <time>2022-09-24T10:31:03Z</time>
      </trkpt>
      <trkpt lat="45.80661" lon="5.08154">
        <ele>211.9</ele>
        <time>2022-09-24T10:31:04Z</time>
      </trkpt>
      <trkpt lat="45.80662" lon="5.08161">
        <ele>212</ele>
        <time>2022-09-24T10:31:05Z</time>
      </trkpt>
      <trkpt lat="45.80663" lon="5.08165">
        <ele>212.1</ele>
        <time>2022-09-24T10:31:06Z</time>
      </trkpt>
      <trkpt lat="45.80664" lon="5.08172">
        <ele>212.3</ele>
        <time>2022-09-24T10:31:07Z</time>
      </trkpt>
      <trkpt lat="45.80665" lon="5.08178">
        <ele>212.4</ele>
        <time>2022-09-24T10:31:08Z</time>
      </trkpt>
      <trkpt lat="45.80667" lon="5.08184">
        <ele>212.6</ele>
        <time>2022-09-24T10:31:09Z</time>
      </trkpt>
      <trkpt lat="45.80669" lon="5.08189">
        <ele>212.8</ele>
        <time>2022-09-24T10:31:10Z</time>
      </trkpt>
      <trkpt lat="45.8067" lon="5.08194">
        <ele>212.9</ele>
        <time>2022-09-24T10:31:11Z</time>
      </trkpt>
      <trkpt lat="45.8067" lon="5.082">
        <ele>213.1</ele>
        <time>2022-09-24T10:31:12Z</time>
      </trkpt>
      <trkpt lat="45.80672" lon="5.08204">
        <ele>213.3</ele>
        <time>2022-09-24T10:31:13Z</time>
      </trkpt>
      <trkpt lat="45.80672" lon="5.08209">
        <ele>213.5</ele>
        <time>2022-09-24T10:31:14Z</time>
      </trkpt>
      <trkpt lat="45.80675" lon="5.08214">
        <ele>213.7</ele>
        <time>2022-09-24T10:31:15Z</time>
      </trkpt>
      <trkpt lat="45.80675" lon="5.0822">
        <ele>213.9</ele>
        <time>2022-09-24T10:31:16Z</time>
      </trkpt>
      <trkpt lat="45.80675" lon="5.08224">
        <ele>214.1</ele>
        <time>2022-09-24T10:31:17Z</time>
      </trkpt>
      <trkpt lat="45.80677" lon="5.08229">
        <ele>214.3</ele>
        <time>2022-09-24T10:31:18Z</time>
      </trkpt>
      <trkpt lat="45.80676" lon="5.08235">
        <ele>214.6</ele>
        <time>2022-09-24T10:31:19Z</time>
      </trkpt>
      <trkpt lat="45.8068" lon="5.08239">
        <ele>214.9</ele>
        <time>2022-09-24T10:31:20Z</time>
      </trkpt>
      <trkpt lat="45.80681" lon="5.08245">
        <ele>215.1</ele>
        <time>2022-09-24T10:31:21Z</time>
      </trkpt>
      <trkpt lat="45.80683" lon="5.08249">
        <ele>215.4</ele>
        <time>2022-09-24T10:31:22Z</time>
      </trkpt>
      <trkpt lat="45.80683" lon="5.08253">
        <ele>215.6</ele>
        <time>2022-09-24T10:31:23Z</time>
      </trkpt>
      <trkpt lat="45.80684" lon="5.08259">
        <ele>215.9</ele>
        <time>2022-09-24T10:31:24Z</time>
      </trkpt>
      <trkpt lat="45.80685" lon="5.08262">
        <ele>216</ele>
        <time>2022-09-24T10:31:25Z</time>
      </trkpt>
      <trkpt lat="45.80686" lon="5.08267">
        <ele>216.2</ele>
        <time>2022-09-24T10:31:26Z</time>
      </trkpt>
      <trkpt lat="45.80688" lon="5.0827">
        <ele>216.4</ele>
        <time>2022-09-24T10:31:27Z</time>
      </trkpt>
      <trkpt lat="45.8069" lon="5.08274">
        <ele>216.6</ele>
        <time>2022-09-24T10:31:28Z</time>
      </trkpt>
      <trkpt lat="45.80692" lon="5.08276">
        <ele>216.6</ele>
        <time>2022-09-24T10:31:29Z</time>
      </trkpt>
      <trkpt lat="45.80696" lon="5.08275">
        <ele>216.7</ele>
        <time>2022-09-24T10:31:30Z</time>
      </trkpt>
      <trkpt lat="45.80697" lon="5.08275">
        <ele>216.7</ele>
        <time>2022-09-24T10:31:31Z</time>
      </trkpt>
      <trkpt lat="45.807" lon="5.08276">
        <ele>216.7</ele>
        <time>2022-09-24T10:31:32Z</time>
      </trkpt>
      <trkpt lat="45.80703" lon="5.08278">
        <ele>216.8</ele>
        <time>2022-09-24T10:31:33Z</time>
      </trkpt>
      <trkpt lat="45.80704" lon="5.08281">
        <ele>216.8</ele>
        <time>2022-09-24T10:31:34Z</time>
      </trkpt>
      <trkpt lat="45.80705" lon="5.08283">
        <ele>216.8</ele>
        <time>2022-09-24T10:31:35Z</time>
      </trkpt>
      <trkpt lat="45.80706" lon="5.08287">
        <ele>216.8</ele>
        <time>2022-09-24T10:31:36Z</time>
      </trkpt>
      <trkpt lat="45.80705" lon="5.08293">
        <ele>216.8</ele>
        <time>2022-09-24T10:31:37Z</time>
      </trkpt>
      <trkpt lat="45.80704" lon="5.08294">
        <ele>216.7</ele>
        <time>2022-09-24T10:31:38Z</time>
      </trkpt>
      <trkpt lat="45.80704" lon="5.08299">
        <ele>216.6</ele>
        <time>2022-09-24T10:31:39Z</time>
      </trkpt>
      <trkpt lat="45.80705" lon="5.08304">
        <ele>216.5</ele>
        <time>2022-09-24T10:31:40Z</time>
      </trkpt>
      <trkpt lat="45.80705" lon="5.08306">
        <ele>216.4</ele>
        <time>2022-09-24T10:31:41Z</time>
      </trkpt>
      <trkpt lat="45.80706" lon="5.0831">
        <ele>216.2</ele>
        <time>2022-09-24T10:31:42Z</time>
      </trkpt>
      <trkpt lat="45.80706" lon="5.08311">
        <ele>216.2</ele>
        <time>2022-09-24T10:31:43Z</time>
      </trkpt>
      <trkpt lat="45.80707" lon="5.08313">
        <ele>216.1</ele>
        <time>2022-09-24T10:31:44Z</time>
      </trkpt>
      <trkpt lat="45.80708" lon="5.08314">
        <ele>216</ele>
        <time>2022-09-24T10:31:45Z</time>
      </trkpt>
      <trkpt lat="45.80709" lon="5.08316">
        <ele>215.9</ele>
        <time>2022-09-24T10:31:46Z</time>
      </trkpt>
      <trkpt lat="45.8071" lon="5.08319">
        <ele>215.7</ele>
        <time>2022-09-24T10:31:47Z</time>
      </trkpt>
      <trkpt lat="45.80711" lon="5.0832">
        <ele>215.6</ele>
        <time>2022-09-24T10:31:48Z</time>
      </trkpt>
      <trkpt lat="45.80713" lon="5.08324">
        <ele>215.4</ele>
        <time>2022-09-24T10:31:49Z</time>
      </trkpt>
      <trkpt lat="45.80713" lon="5.08325">
        <ele>215.3</ele>
        <time>2022-09-24T10:31:50Z</time>
      </trkpt>
      <trkpt lat="45.80715" lon="5.08328">
        <ele>215.1</ele>
        <time>2022-09-24T10:31:51Z</time>
      </trkpt>
      <trkpt lat="45.80716" lon="5.08329">
        <ele>215</ele>
        <time>2022-09-24T10:31:52Z</time>
      </trkpt>
      <trkpt lat="45.80717" lon="5.08332">
        <ele>214.7</ele>
        <time>2022-09-24T10:31:53Z</time>
      </trkpt>
      <trkpt lat="45.80717" lon="5.08334">
        <ele>214.6</ele>
        <time>2022-09-24T10:31:54Z</time>
      </trkpt>
      <trkpt lat="45.80718" lon="5.08338">
        <ele>214.4</ele>
        <time>2022-09-24T10:31:55Z</time>
      </trkpt>
      <trkpt lat="45.80719" lon="5.08342">
        <ele>214.1</ele>
        <time>2022-09-24T10:31:56Z</time>
      </trkpt>
      <trkpt lat="45.80721" lon="5.08346">
        <ele>213.8</ele>
        <time>2022-09-24T10:31:57Z</time>
      </trkpt>
      <trkpt lat="45.80722" lon="5.0835">
        <ele>213.6</ele>
        <time>2022-09-24T10:31:58Z</time>
      </trkpt>
      <trkpt lat="45.80723" lon="5.08354">
        <ele>213.3</ele>
        <time>2022-09-24T10:31:59Z</time>
      </trkpt>
      <trkpt lat="45.80725" lon="5.08359">
        <ele>212.9</ele>
        <time>2022-09-24T10:32:00Z</time>
      </trkpt>
      <trkpt lat="45.80728" lon="5.08364">
        <ele>212.6</ele>
        <time>2022-09-24T10:32:01Z</time>
      </trkpt>
      <trkpt lat="45.80729" lon="5.0837">
        <ele>212.1</ele>
        <time>2022-09-24T10:32:02Z</time>
      </trkpt>
      <trkpt lat="45.80732" lon="5.08377">
        <ele>211.6</ele>
        <time>2022-09-24T10:32:03Z</time>
      </trkpt>
      <trkpt lat="45.80734" lon="5.08383">
        <ele>211.2</ele>
        <time>2022-09-24T10:32:04Z</time>
      </trkpt>
      <trkpt lat="45.80734" lon="5.08388">
        <ele>210.9</ele>
        <time>2022-09-24T10:32:05Z</time>
      </trkpt>
      <trkpt lat="45.80735" lon="5.08392">
        <ele>210.6</ele>
        <time>2022-09-24T10:32:06Z</time>
      </trkpt>
      <trkpt lat="45.80738" lon="5.08396">
        <ele>210.3</ele>
        <time>2022-09-24T10:32:07Z</time>
      </trkpt>
      <trkpt lat="45.80737" lon="5.08397">
        <ele>210.2</ele>
        <time>2022-09-24T10:32:08Z</time>
      </trkpt>
      <trkpt lat="45.80738" lon="5.08399">
        <ele>210.1</ele>
        <time>2022-09-24T10:32:09Z</time>
      </trkpt>
      <trkpt lat="45.80739" lon="5.084">
        <ele>210</ele>
        <time>2022-09-24T10:32:10Z</time>
      </trkpt>
      <trkpt lat="45.80741" lon="5.084">
        <ele>209.9</ele>
        <time>2022-09-24T10:32:11Z</time>
      </trkpt>
      <trkpt lat="45.80741" lon="5.08401">
        <ele>209.8</ele>
        <time>2022-09-24T10:32:12Z</time>
      </trkpt>
      <trkpt lat="45.80742" lon="5.08401">
        <ele>209.8</ele>
        <time>2022-09-24T10:32:13Z</time>
      </trkpt>
      <trkpt lat="45.80742" lon="5.08401">
        <ele>209.7</ele>
        <time>2022-09-24T10:32:14Z</time>
      </trkpt>
      <trkpt lat="45.80741" lon="5.08403">
        <ele>209.7</ele>
        <time>2022-09-24T10:32:15Z</time>
      </trkpt>
      <trkpt lat="45.80741" lon="5.08403">
        <ele>209.6</ele>
        <time>2022-09-24T10:32:16Z</time>
      </trkpt>
      <trkpt lat="45.80741" lon="5.08404">
        <ele>209.6</ele>
        <time>2022-09-24T10:32:17Z</time>
      </trkpt>
      <trkpt lat="45.80741" lon="5.08405">
        <ele>209.5</ele>
        <time>2022-09-24T10:32:18Z</time>
      </trkpt>
      <trkpt lat="45.80741" lon="5.08406">
        <ele>209.5</ele>
        <time>2022-09-24T10:32:19Z</time>
      </trkpt>
      <trkpt lat="45.8074" lon="5.08406">
        <ele>209.5</ele>
        <time>2022-09-24T10:32:20Z</time>
      </trkpt>
      <trkpt lat="45.8074" lon="5.08407">
        <ele>209.4</ele>
        <time>2022-09-24T10:32:21Z</time>
      </trkpt>
      <trkpt lat="45.8074" lon="5.08408">
        <ele>209.4</ele>
        <time>2022-09-24T10:32:22Z</time>
      </trkpt>
      <trkpt lat="45.8074" lon="5.08408">
        <ele>209.3</ele>
        <time>2022-09-24T10:32:51Z</time>
      </trkpt>
      <trkpt lat="45.80739" lon="5.08409">
        <ele>209.3</ele>
        <time>2022-09-24T10:32:52Z</time>
      </trkpt>
      <trkpt lat="45.80741" lon="5.08413">
        <ele>209.1</ele>
        <time>2022-09-24T10:32:53Z</time>
      </trkpt>
      <trkpt lat="45.80741" lon="5.0842">
        <ele>209</ele>
        <time>2022-09-24T10:32:54Z</time>
      </trkpt>
      <trkpt lat="45.80741" lon="5.08424">
        <ele>209</ele>
        <time>2022-09-24T10:32:55Z</time>
      </trkpt>
      <trkpt lat="45.80742" lon="5.08428">
        <ele>208.9</ele>
        <time>2022-09-24T10:32:56Z</time>
      </trkpt>
      <trkpt lat="45.8074" lon="5.08432">
        <ele>208.9</ele>
        <time>2022-09-24T10:32:58Z</time>
      </trkpt>
      <trkpt lat="45.8074" lon="5.08436">
        <ele>208.9</ele>
        <time>2022-09-24T10:32:59Z</time>
      </trkpt>
      <trkpt lat="45.80741" lon="5.08441">
        <ele>208.9</ele>
        <time>2022-09-24T10:33:00Z</time>
      </trkpt>
      <trkpt lat="45.80742" lon="5.08445">
        <ele>209</ele>
        <time>2022-09-24T10:33:01Z</time>
      </trkpt>
      <trkpt lat="45.80744" lon="5.0845">
        <ele>209.1</ele>
        <time>2022-09-24T10:33:02Z</time>
      </trkpt>
      <trkpt lat="45.80746" lon="5.08456">
        <ele>209.1</ele>
        <time>2022-09-24T10:33:03Z</time>
      </trkpt>
      <trkpt lat="45.80748" lon="5.0846">
        <ele>209.2</ele>
        <time>2022-09-24T10:33:04Z</time>
      </trkpt>
      <trkpt lat="45.80753" lon="5.08469">
        <ele>209.4</ele>
        <time>2022-09-24T10:33:05Z</time>
      </trkpt>
      <trkpt lat="45.80754" lon="5.08474">
        <ele>209.6</ele>
        <time>2022-09-24T10:33:06Z</time>
      </trkpt>
      <trkpt lat="45.80756" lon="5.08479">
        <ele>209.7</ele>
        <time>2022-09-24T10:33:07Z</time>
      </trkpt>
      <trkpt lat="45.80758" lon="5.08483">
        <ele>209.9</ele>
        <time>2022-09-24T10:33:08Z</time>
      </trkpt>
      <trkpt lat="45.8076" lon="5.08487">
        <ele>210</ele>
        <time>2022-09-24T10:33:09Z</time>
      </trkpt>
      <trkpt lat="45.80762" lon="5.08491">
        <ele>210.1</ele>
        <time>2022-09-24T10:33:10Z</time>
      </trkpt>
      <trkpt lat="45.80764" lon="5.08495">
        <ele>210.2</ele>
        <time>2022-09-24T10:33:12Z</time>
      </trkpt>
      <trkpt lat="45.80766" lon="5.08498">
        <ele>210.4</ele>
        <time>2022-09-24T10:33:13Z</time>
      </trkpt>
      <trkpt lat="45.80767" lon="5.08503">
        <ele>210.6</ele>
        <time>2022-09-24T10:33:14Z</time>
      </trkpt>
      <trkpt lat="45.8077" lon="5.08507">
        <ele>210.8</ele>
        <time>2022-09-24T10:33:15Z</time>
      </trkpt>
      <trkpt lat="45.80773" lon="5.08511">
        <ele>211</ele>
        <time>2022-09-24T10:33:16Z</time>
      </trkpt>
      <trkpt lat="45.80775" lon="5.08515">
        <ele>211.3</ele>
        <time>2022-09-24T10:33:17Z</time>
      </trkpt>
      <trkpt lat="45.80777" lon="5.0852">
        <ele>211.6</ele>
        <time>2022-09-24T10:33:18Z</time>
      </trkpt>
      <trkpt lat="45.8078" lon="5.08525">
        <ele>211.9</ele>
        <time>2022-09-24T10:33:19Z</time>
      </trkpt>
      <trkpt lat="45.80782" lon="5.08529">
        <ele>212.3</ele>
        <time>2022-09-24T10:33:20Z</time>
      </trkpt>
      <trkpt lat="45.80784" lon="5.08533">
        <ele>212.6</ele>
        <time>2022-09-24T10:33:21Z</time>
      </trkpt>
      <trkpt lat="45.80786" lon="5.08537">
        <ele>212.9</ele>
        <time>2022-09-24T10:33:22Z</time>
      </trkpt>
      <trkpt lat="45.80788" lon="5.08542">
        <ele>213.3</ele>
        <time>2022-09-24T10:33:23Z</time>
      </trkpt>
      <trkpt lat="45.80789" lon="5.08546">
        <ele>213.7</ele>
        <time>2022-09-24T10:33:24Z</time>
      </trkpt>
      <trkpt lat="45.8079" lon="5.0855">
        <ele>214</ele>
        <time>2022-09-24T10:33:25Z</time>
      </trkpt>
      <trkpt lat="45.80793" lon="5.08555">
        <ele>214.5</ele>
        <time>2022-09-24T10:33:26Z</time>
      </trkpt>
      <trkpt lat="45.80793" lon="5.08557">
        <ele>214.7</ele>
        <time>2022-09-24T10:33:27Z</time>
      </trkpt>
      <trkpt lat="45.80794" lon="5.08561">
        <ele>215.1</ele>
        <time>2022-09-24T10:33:28Z</time>
      </trkpt>
      <trkpt lat="45.80794" lon="5.08562">
        <ele>215.2</ele>
        <time>2022-09-24T10:33:29Z</time>
      </trkpt>
      <trkpt lat="45.80795" lon="5.08566">
        <ele>215.6</ele>
        <time>2022-09-24T10:33:30Z</time>
      </trkpt>
      <trkpt lat="45.80795" lon="5.08568">
        <ele>215.8</ele>
        <time>2022-09-24T10:33:31Z</time>
      </trkpt>
      <trkpt lat="45.80796" lon="5.08572">
        <ele>216.2</ele>
        <time>2022-09-24T10:33:32Z</time>
      </trkpt>
      <trkpt lat="45.80797" lon="5.08577">
        <ele>216.6</ele>
        <time>2022-09-24T10:33:33Z</time>
      </trkpt>
      <trkpt lat="45.80798" lon="5.08578">
        <ele>216.8</ele>
        <time>2022-09-24T10:33:34Z</time>
      </trkpt>
      <trkpt lat="45.80797" lon="5.08581">
        <ele>217</ele>
        <time>2022-09-24T10:33:35Z</time>
      </trkpt>
      <trkpt lat="45.80798" lon="5.08583">
        <ele>217.3</ele>
        <time>2022-09-24T10:33:36Z</time>
      </trkpt>
      <trkpt lat="45.80798" lon="5.08587">
        <ele>217.7</ele>
        <time>2022-09-24T10:33:37Z</time>
      </trkpt>
      <trkpt lat="45.80798" lon="5.08589">
        <ele>217.9</ele>
        <time>2022-09-24T10:33:38Z</time>
      </trkpt>
      <trkpt lat="45.80799" lon="5.08593">
        <ele>218.3</ele>
        <time>2022-09-24T10:33:39Z</time>
      </trkpt>
      <trkpt lat="45.808" lon="5.08594">
        <ele>218.4</ele>
        <time>2022-09-24T10:33:40Z</time>
      </trkpt>
      <trkpt lat="45.80802" lon="5.08596">
        <ele>218.7</ele>
        <time>2022-09-24T10:33:41Z</time>
      </trkpt>
      <trkpt lat="45.80802" lon="5.08598">
        <ele>218.9</ele>
        <time>2022-09-24T10:33:42Z</time>
      </trkpt>
      <trkpt lat="45.80802" lon="5.08601">
        <ele>219.2</ele>
        <time>2022-09-24T10:33:43Z</time>
      </trkpt>
      <trkpt lat="45.80802" lon="5.08603">
        <ele>219.3</ele>
        <time>2022-09-24T10:33:44Z</time>
      </trkpt>
      <trkpt lat="45.80802" lon="5.08604">
        <ele>219.5</ele>
        <time>2022-09-24T10:33:45Z</time>
      </trkpt>
      <trkpt lat="45.80803" lon="5.08607">
        <ele>219.7</ele>
        <time>2022-09-24T10:33:46Z</time>
      </trkpt>
      <trkpt lat="45.80803" lon="5.08609">
        <ele>219.9</ele>
        <time>2022-09-24T10:33:47Z</time>
      </trkpt>
      <trkpt lat="45.80804" lon="5.08613">
        <ele>220.2</ele>
        <time>2022-09-24T10:33:48Z</time>
      </trkpt>
      <trkpt lat="45.80804" lon="5.08615">
        <ele>220.3</ele>
        <time>2022-09-24T10:33:49Z</time>
      </trkpt>
      <trkpt lat="45.80805" lon="5.08618">
        <ele>220.7</ele>
        <time>2022-09-24T10:33:50Z</time>
      </trkpt>
      <trkpt lat="45.80805" lon="5.0862">
        <ele>220.8</ele>
        <time>2022-09-24T10:33:51Z</time>
      </trkpt>
      <trkpt lat="45.80806" lon="5.08627">
        <ele>221.3</ele>
        <time>2022-09-24T10:33:52Z</time>
      </trkpt>
      <trkpt lat="45.80806" lon="5.08631">
        <ele>221.7</ele>
        <time>2022-09-24T10:33:53Z</time>
      </trkpt>
      <trkpt lat="45.8081" lon="5.08634">
        <ele>222.1</ele>
        <time>2022-09-24T10:33:54Z</time>
      </trkpt>
      <trkpt lat="45.80811" lon="5.08639">
        <ele>222.5</ele>
        <time>2022-09-24T10:33:55Z</time>
      </trkpt>
      <trkpt lat="45.80812" lon="5.08642">
        <ele>222.7</ele>
        <time>2022-09-24T10:33:56Z</time>
      </trkpt>
      <trkpt lat="45.80812" lon="5.08648">
        <ele>223.2</ele>
        <time>2022-09-24T10:33:57Z</time>
      </trkpt>
      <trkpt lat="45.80812" lon="5.08651">
        <ele>223.4</ele>
        <time>2022-09-24T10:33:58Z</time>
      </trkpt>
      <trkpt lat="45.80813" lon="5.08655">
        <ele>223.7</ele>
        <time>2022-09-24T10:33:59Z</time>
      </trkpt>
      <trkpt lat="45.80814" lon="5.08659">
        <ele>224</ele>
        <time>2022-09-24T10:34:00Z</time>
      </trkpt>
      <trkpt lat="45.80815" lon="5.08663">
        <ele>224.3</ele>
        <time>2022-09-24T10:34:01Z</time>
      </trkpt>
      <trkpt lat="45.80815" lon="5.08665">
        <ele>224.4</ele>
        <time>2022-09-24T10:34:02Z</time>
      </trkpt>
      <trkpt lat="45.80816" lon="5.08669">
        <ele>224.7</ele>
        <time>2022-09-24T10:34:03Z</time>
      </trkpt>
      <trkpt lat="45.80816" lon="5.0867">
        <ele>224.8</ele>
        <time>2022-09-24T10:34:04Z</time>
      </trkpt>
      <trkpt lat="45.80817" lon="5.08674">
        <ele>225.1</ele>
        <time>2022-09-24T10:34:05Z</time>
      </trkpt>
      <trkpt lat="45.80818" lon="5.08675">
        <ele>225.2</ele>
        <time>2022-09-24T10:34:06Z</time>
      </trkpt>
      <trkpt lat="45.80817" lon="5.08678">
        <ele>225.4</ele>
        <time>2022-09-24T10:34:07Z</time>
      </trkpt>
      <trkpt lat="45.80818" lon="5.0868">
        <ele>225.6</ele>
        <time>2022-09-24T10:34:08Z</time>
      </trkpt>
      <trkpt lat="45.80818" lon="5.08683">
        <ele>225.7</ele>
        <time>2022-09-24T10:34:09Z</time>
      </trkpt>
      <trkpt lat="45.80818" lon="5.08684">
        <ele>225.8</ele>
        <time>2022-09-24T10:34:10Z</time>
      </trkpt>
      <trkpt lat="45.80818" lon="5.08689">
        <ele>226.2</ele>
        <time>2022-09-24T10:34:11Z</time>
      </trkpt>
      <trkpt lat="45.80818" lon="5.0869">
        <ele>226.3</ele>
        <time>2022-09-24T10:34:12Z</time>
      </trkpt>
      <trkpt lat="45.80819" lon="5.08695">
        <ele>226.6</ele>
        <time>2022-09-24T10:34:13Z</time>
      </trkpt>
      <trkpt lat="45.8082" lon="5.08696">
        <ele>226.7</ele>
        <time>2022-09-24T10:34:14Z</time>
      </trkpt>
      <trkpt lat="45.80822" lon="5.08699">
        <ele>226.9</ele>
        <time>2022-09-24T10:34:15Z</time>
      </trkpt>
      <trkpt lat="45.80822" lon="5.08701">
        <ele>227</ele>
        <time>2022-09-24T10:34:16Z</time>
      </trkpt>
      <trkpt lat="45.80822" lon="5.08703">
        <ele>227.2</ele>
        <time>2022-09-24T10:34:17Z</time>
      </trkpt>
      <trkpt lat="45.80823" lon="5.08707">
        <ele>227.4</ele>
        <time>2022-09-24T10:34:18Z</time>
      </trkpt>
      <trkpt lat="45.80823" lon="5.08708">
        <ele>227.5</ele>
        <time>2022-09-24T10:34:19Z</time>
      </trkpt>
      <trkpt lat="45.80825" lon="5.08711">
        <ele>227.7</ele>
        <time>2022-09-24T10:34:20Z</time>
      </trkpt>
      <trkpt lat="45.80825" lon="5.08715">
        <ele>227.9</ele>
        <time>2022-09-24T10:34:21Z</time>
      </trkpt>
      <trkpt lat="45.80826" lon="5.08717">
        <ele>228</ele>
        <time>2022-09-24T10:34:22Z</time>
      </trkpt>
      <trkpt lat="45.80826" lon="5.0872">
        <ele>228.1</ele>
        <time>2022-09-24T10:34:23Z</time>
      </trkpt>
      <trkpt lat="45.80826" lon="5.08722">
        <ele>228.3</ele>
        <time>2022-09-24T10:34:24Z</time>
      </trkpt>
      <trkpt lat="45.80826" lon="5.08725">
        <ele>228.4</ele>
        <time>2022-09-24T10:34:25Z</time>
      </trkpt>
      <trkpt lat="45.80827" lon="5.08729">
        <ele>228.6</ele>
        <time>2022-09-24T10:34:26Z</time>
      </trkpt>
      <trkpt lat="45.80827" lon="5.08731">
        <ele>228.6</ele>
        <time>2022-09-24T10:34:27Z</time>
      </trkpt>
      <trkpt lat="45.80827" lon="5.08733">
        <ele>228.7</ele>
        <time>2022-09-24T10:34:28Z</time>
      </trkpt>
      <trkpt lat="45.80827" lon="5.08737">
        <ele>228.8</ele>
        <time>2022-09-24T10:34:29Z</time>
      </trkpt>
      <trkpt lat="45.80827" lon="5.08739">
        <ele>228.9</ele>
        <time>2022-09-24T10:34:30Z</time>
      </trkpt>
      <trkpt lat="45.80827" lon="5.08744">
        <ele>229</ele>
        <time>2022-09-24T10:34:31Z</time>
      </trkpt>
      <trkpt lat="45.80827" lon="5.08748">
        <ele>229.1</ele>
        <time>2022-09-24T10:34:32Z</time>
      </trkpt>
      <trkpt lat="45.80827" lon="5.08752">
        <ele>229.1</ele>
        <time>2022-09-24T10:34:33Z</time>
      </trkpt>
      <trkpt lat="45.80827" lon="5.08757">
        <ele>229.2</ele>
        <time>2022-09-24T10:34:34Z</time>
      </trkpt>
      <trkpt lat="45.80827" lon="5.08759">
        <ele>229.2</ele>
        <time>2022-09-24T10:34:35Z</time>
      </trkpt>
      <trkpt lat="45.80825" lon="5.08763">
        <ele>229.3</ele>
        <time>2022-09-24T10:34:36Z</time>
      </trkpt>
      <trkpt lat="45.80826" lon="5.08769">
        <ele>229.3</ele>
        <time>2022-09-24T10:34:37Z</time>
      </trkpt>
      <trkpt lat="45.80826" lon="5.08771">
        <ele>229.3</ele>
        <time>2022-09-24T10:34:38Z</time>
      </trkpt>
      <trkpt lat="45.80825" lon="5.08776">
        <ele>229.3</ele>
        <time>2022-09-24T10:34:39Z</time>
      </trkpt>
      <trkpt lat="45.80823" lon="5.08779">
        <ele>229.4</ele>
        <time>2022-09-24T10:34:40Z</time>
      </trkpt>
      <trkpt lat="45.80823" lon="5.08784">
        <ele>229.4</ele>
        <time>2022-09-24T10:34:41Z</time>
      </trkpt>
      <trkpt lat="45.80822" lon="5.08788">
        <ele>229.4</ele>
        <time>2022-09-24T10:34:42Z</time>
      </trkpt>
      <trkpt lat="45.80821" lon="5.08793">
        <ele>229.4</ele>
        <time>2022-09-24T10:34:43Z</time>
      </trkpt>
      <trkpt lat="45.80819" lon="5.08798">
        <ele>229.3</ele>
        <time>2022-09-24T10:34:44Z</time>
      </trkpt>
      <trkpt lat="45.80819" lon="5.088">
        <ele>229.3</ele>
        <time>2022-09-24T10:34:45Z</time>
      </trkpt>
      <trkpt lat="45.80819" lon="5.08805">
        <ele>229.3</ele>
        <time>2022-09-24T10:34:46Z</time>
      </trkpt>
      <trkpt lat="45.80818" lon="5.0881">
        <ele>229.3</ele>
        <time>2022-09-24T10:34:47Z</time>
      </trkpt>
      <trkpt lat="45.80817" lon="5.08812">
        <ele>229.3</ele>
        <time>2022-09-24T10:34:48Z</time>
      </trkpt>
      <trkpt lat="45.80817" lon="5.08817">
        <ele>229.3</ele>
        <time>2022-09-24T10:34:49Z</time>
      </trkpt>
      <trkpt lat="45.80816" lon="5.08822">
        <ele>229.2</ele>
        <time>2022-09-24T10:34:50Z</time>
      </trkpt>
      <trkpt lat="45.80815" lon="5.08828">
        <ele>229.2</ele>
        <time>2022-09-24T10:34:51Z</time>
      </trkpt>
      <trkpt lat="45.80815" lon="5.08831">
        <ele>229.2</ele>
        <time>2022-09-24T10:34:52Z</time>
      </trkpt>
      <trkpt lat="45.80814" lon="5.08835">
        <ele>229.1</ele>
        <time>2022-09-24T10:34:53Z</time>
      </trkpt>
      <trkpt lat="45.80813" lon="5.08839">
        <ele>229.1</ele>
        <time>2022-09-24T10:34:54Z</time>
      </trkpt>
      <trkpt lat="45.80813" lon="5.08845">
        <ele>229</ele>
        <time>2022-09-24T10:34:55Z</time>
      </trkpt>
      <trkpt lat="45.80812" lon="5.08848">
        <ele>228.9</ele>
        <time>2022-09-24T10:34:56Z</time>
      </trkpt>
      <trkpt lat="45.8081" lon="5.08852">
        <ele>228.9</ele>
        <time>2022-09-24T10:34:57Z</time>
      </trkpt>
      <trkpt lat="45.80809" lon="5.08856">
        <ele>228.8</ele>
        <time>2022-09-24T10:34:58Z</time>
      </trkpt>
      <trkpt lat="45.80807" lon="5.08861">
        <ele>228.7</ele>
        <time>2022-09-24T10:34:59Z</time>
      </trkpt>
      <trkpt lat="45.80805" lon="5.08866">
        <ele>228.6</ele>
        <time>2022-09-24T10:35:00Z</time>
      </trkpt>
      <trkpt lat="45.80805" lon="5.0887">
        <ele>228.6</ele>
        <time>2022-09-24T10:35:01Z</time>
      </trkpt>
      <trkpt lat="45.80805" lon="5.08872">
        <ele>227.5</ele>
        <time>2022-09-24T10:35:02Z</time>
      </trkpt>
      <trkpt lat="45.80807" lon="5.08876">
        <ele>227.2</ele>
        <time>2022-09-24T10:35:04Z</time>
      </trkpt>
      <trkpt lat="45.80811" lon="5.08878">
        <ele>226.8</ele>
        <time>2022-09-24T10:35:05Z</time>
      </trkpt>
      <trkpt lat="45.80815" lon="5.08879">
        <ele>226.4</ele>
        <time>2022-09-24T10:35:06Z</time>
      </trkpt>
      <trkpt lat="45.80818" lon="5.0888">
        <ele>226.1</ele>
        <time>2022-09-24T10:35:07Z</time>
      </trkpt>
      <trkpt lat="45.80823" lon="5.08882">
        <ele>225.7</ele>
        <time>2022-09-24T10:35:08Z</time>
      </trkpt>
      <trkpt lat="45.80828" lon="5.08884">
        <ele>225.2</ele>
        <time>2022-09-24T10:35:09Z</time>
      </trkpt>
      <trkpt lat="45.80834" lon="5.08885">
        <ele>224.7</ele>
        <time>2022-09-24T10:35:10Z</time>
      </trkpt>
      <trkpt lat="45.8084" lon="5.08888">
        <ele>224.2</ele>
        <time>2022-09-24T10:35:11Z</time>
      </trkpt>
      <trkpt lat="45.80844" lon="5.08893">
        <ele>223.8</ele>
        <time>2022-09-24T10:35:12Z</time>
      </trkpt>
      <trkpt lat="45.8085" lon="5.08898">
        <ele>223.3</ele>
        <time>2022-09-24T10:35:13Z</time>
      </trkpt>
      <trkpt lat="45.80857" lon="5.08902">
        <ele>222.8</ele>
        <time>2022-09-24T10:35:14Z</time>
      </trkpt>
      <trkpt lat="45.80864" lon="5.08904">
        <ele>222.3</ele>
        <time>2022-09-24T10:35:15Z</time>
      </trkpt>
      <trkpt lat="45.8087" lon="5.08907">
        <ele>221.9</ele>
        <time>2022-09-24T10:35:16Z</time>
      </trkpt>
      <trkpt lat="45.80881" lon="5.08913">
        <ele>221.2</ele>
        <time>2022-09-24T10:35:17Z</time>
      </trkpt>
      <trkpt lat="45.80887" lon="5.08915">
        <ele>220.8</ele>
        <time>2022-09-24T10:35:18Z</time>
      </trkpt>
      <trkpt lat="45.80892" lon="5.08919">
        <ele>220.4</ele>
        <time>2022-09-24T10:35:19Z</time>
      </trkpt>
      <trkpt lat="45.80896" lon="5.08921">
        <ele>220.1</ele>
        <time>2022-09-24T10:35:20Z</time>
      </trkpt>
      <trkpt lat="45.80903" lon="5.08921">
        <ele>219.6</ele>
        <time>2022-09-24T10:35:22Z</time>
      </trkpt>
      <trkpt lat="45.80906" lon="5.08923">
        <ele>219.3</ele>
        <time>2022-09-24T10:35:23Z</time>
      </trkpt>
      <trkpt lat="45.80909" lon="5.08924">
        <ele>219</ele>
        <time>2022-09-24T10:35:24Z</time>
      </trkpt>
      <trkpt lat="45.80914" lon="5.08924">
        <ele>218.6</ele>
        <time>2022-09-24T10:35:25Z</time>
      </trkpt>
      <trkpt lat="45.80917" lon="5.08924">
        <ele>218.3</ele>
        <time>2022-09-24T10:35:26Z</time>
      </trkpt>
      <trkpt lat="45.80922" lon="5.08926">
        <ele>217.8</ele>
        <time>2022-09-24T10:35:27Z</time>
      </trkpt>
      <trkpt lat="45.80927" lon="5.08927">
        <ele>217.2</ele>
        <time>2022-09-24T10:35:28Z</time>
      </trkpt>
      <trkpt lat="45.80932" lon="5.08927">
        <ele>216.6</ele>
        <time>2022-09-24T10:35:29Z</time>
      </trkpt>
      <trkpt lat="45.80937" lon="5.08928">
        <ele>215.9</ele>
        <time>2022-09-24T10:35:30Z</time>
      </trkpt>
      <trkpt lat="45.80941" lon="5.08929">
        <ele>215.4</ele>
        <time>2022-09-24T10:35:31Z</time>
      </trkpt>
      <trkpt lat="45.80945" lon="5.0893">
        <ele>214.9</ele>
        <time>2022-09-24T10:35:32Z</time>
      </trkpt>
      <trkpt lat="45.80948" lon="5.08933">
        <ele>214.3</ele>
        <time>2022-09-24T10:35:33Z</time>
      </trkpt>
      <trkpt lat="45.80953" lon="5.08935">
        <ele>213.6</ele>
        <time>2022-09-24T10:35:34Z</time>
      </trkpt>
      <trkpt lat="45.80956" lon="5.08937">
        <ele>213.2</ele>
        <time>2022-09-24T10:35:35Z</time>
      </trkpt>
      <trkpt lat="45.8096" lon="5.08942">
        <ele>212.4</ele>
        <time>2022-09-24T10:35:36Z</time>
      </trkpt>
      <trkpt lat="45.80963" lon="5.08947">
        <ele>211.7</ele>
        <time>2022-09-24T10:35:37Z</time>
      </trkpt>
      <trkpt lat="45.80967" lon="5.08954">
        <ele>210.8</ele>
        <time>2022-09-24T10:35:38Z</time>
      </trkpt>
      <trkpt lat="45.80971" lon="5.08958">
        <ele>210.2</ele>
        <time>2022-09-24T10:35:39Z</time>
      </trkpt>
      <trkpt lat="45.80974" lon="5.08963">
        <ele>209.5</ele>
        <time>2022-09-24T10:35:40Z</time>
      </trkpt>
      <trkpt lat="45.80976" lon="5.08966">
        <ele>208.9</ele>
        <time>2022-09-24T10:35:41Z</time>
      </trkpt>
      <trkpt lat="45.80979" lon="5.0897">
        <ele>208.3</ele>
        <time>2022-09-24T10:35:42Z</time>
      </trkpt>
      <trkpt lat="45.80982" lon="5.08974">
        <ele>207.6</ele>
        <time>2022-09-24T10:35:43Z</time>
      </trkpt>
      <trkpt lat="45.80983" lon="5.08976">
        <ele>207.4</ele>
        <time>2022-09-24T10:35:44Z</time>
      </trkpt>
      <trkpt lat="45.80985" lon="5.08981">
        <ele>207</ele>
        <time>2022-09-24T10:35:45Z</time>
      </trkpt>
      <trkpt lat="45.80987" lon="5.08985">
        <ele>206.7</ele>
        <time>2022-09-24T10:35:46Z</time>
      </trkpt>
      <trkpt lat="45.80988" lon="5.08986">
        <ele>206.5</ele>
        <time>2022-09-24T10:35:47Z</time>
      </trkpt>
      <trkpt lat="45.80991" lon="5.08988">
        <ele>206</ele>
        <time>2022-09-24T10:35:48Z</time>
      </trkpt>
      <trkpt lat="45.80992" lon="5.08987">
        <ele>205.8</ele>
        <time>2022-09-24T10:35:49Z</time>
      </trkpt>
      <trkpt lat="45.80993" lon="5.08987">
        <ele>205.7</ele>
        <time>2022-09-24T10:35:50Z</time>
      </trkpt>
      <trkpt lat="45.80993" lon="5.08988">
        <ele>205.6</ele>
        <time>2022-09-24T10:35:51Z</time>
      </trkpt>
      <trkpt lat="45.80992" lon="5.08988">
        <ele>205.5</ele>
        <time>2022-09-24T10:35:52Z</time>
      </trkpt>
      <trkpt lat="45.80993" lon="5.08989">
        <ele>205.4</ele>
        <time>2022-09-24T10:35:53Z</time>
      </trkpt>
      <trkpt lat="45.80993" lon="5.08989">
        <ele>205.4</ele>
        <time>2022-09-24T10:35:54Z</time>
      </trkpt>
      <trkpt lat="45.80994" lon="5.08989">
        <ele>205.3</ele>
        <time>2022-09-24T10:35:55Z</time>
      </trkpt>
      <trkpt lat="45.80995" lon="5.08987">
        <ele>204.9</ele>
        <time>2022-09-24T10:35:56Z</time>
      </trkpt>
      <trkpt lat="45.80997" lon="5.08983">
        <ele>204.4</ele>
        <time>2022-09-24T10:35:57Z</time>
      </trkpt>
      <trkpt lat="45.80998" lon="5.08981">
        <ele>204.2</ele>
        <time>2022-09-24T10:35:58Z</time>
      </trkpt>
      <trkpt lat="45.80999" lon="5.08976">
        <ele>203.6</ele>
        <time>2022-09-24T10:35:59Z</time>
      </trkpt>
      <trkpt lat="45.81001" lon="5.08971">
        <ele>202.9</ele>
        <time>2022-09-24T10:36:00Z</time>
      </trkpt>
      <trkpt lat="45.81004" lon="5.08965">
        <ele>202.3</ele>
        <time>2022-09-24T10:36:01Z</time>
      </trkpt>
      <trkpt lat="45.81006" lon="5.0896">
        <ele>201.7</ele>
        <time>2022-09-24T10:36:02Z</time>
      </trkpt>
      <trkpt lat="45.81009" lon="5.08955">
        <ele>201.1</ele>
        <time>2022-09-24T10:36:03Z</time>
      </trkpt>
      <trkpt lat="45.81011" lon="5.08949">
        <ele>200.5</ele>
        <time>2022-09-24T10:36:04Z</time>
      </trkpt>
      <trkpt lat="45.81013" lon="5.08943">
        <ele>200</ele>
        <time>2022-09-24T10:36:05Z</time>
      </trkpt>
      <trkpt lat="45.81015" lon="5.08938">
        <ele>199.6</ele>
        <time>2022-09-24T10:36:06Z</time>
      </trkpt>
      <trkpt lat="45.81016" lon="5.08932">
        <ele>199.2</ele>
        <time>2022-09-24T10:36:07Z</time>
      </trkpt>
      <trkpt lat="45.81018" lon="5.08927">
        <ele>198.9</ele>
        <time>2022-09-24T10:36:08Z</time>
      </trkpt>
      <trkpt lat="45.81019" lon="5.08923">
        <ele>198.6</ele>
        <time>2022-09-24T10:36:09Z</time>
      </trkpt>
      <trkpt lat="45.8102" lon="5.08917">
        <ele>198.3</ele>
        <time>2022-09-24T10:36:10Z</time>
      </trkpt>
      <trkpt lat="45.8102" lon="5.08915">
        <ele>198.2</ele>
        <time>2022-09-24T10:36:11Z</time>
      </trkpt>
      <trkpt lat="45.81021" lon="5.0891">
        <ele>197.9</ele>
        <time>2022-09-24T10:36:12Z</time>
      </trkpt>
      <trkpt lat="45.81022" lon="5.08904">
        <ele>197.6</ele>
        <time>2022-09-24T10:36:13Z</time>
      </trkpt>
      <trkpt lat="45.81024" lon="5.08899">
        <ele>197.3</ele>
        <time>2022-09-24T10:36:14Z</time>
      </trkpt>
      <trkpt lat="45.81024" lon="5.08898">
        <ele>197.2</ele>
        <time>2022-09-24T10:36:15Z</time>
      </trkpt>
      <trkpt lat="45.81025" lon="5.08897">
        <ele>197.1</ele>
        <time>2022-09-24T10:36:16Z</time>
      </trkpt>
      <trkpt lat="45.81025" lon="5.08898">
        <ele>197.1</ele>
        <time>2022-09-24T10:36:17Z</time>
      </trkpt>
      <trkpt lat="45.81026" lon="5.08897">
        <ele>197</ele>
        <time>2022-09-24T10:36:18Z</time>
      </trkpt>
      <trkpt lat="45.81027" lon="5.08895">
        <ele>196.9</ele>
        <time>2022-09-24T10:36:19Z</time>
      </trkpt>
      <trkpt lat="45.81028" lon="5.08891">
        <ele>196.7</ele>
        <time>2022-09-24T10:36:20Z</time>
      </trkpt>
      <trkpt lat="45.81029" lon="5.08888">
        <ele>196.5</ele>
        <time>2022-09-24T10:36:21Z</time>
      </trkpt>
      <trkpt lat="45.81032" lon="5.08885">
        <ele>196.3</ele>
        <time>2022-09-24T10:36:22Z</time>
      </trkpt>
      <trkpt lat="45.81033" lon="5.08883">
        <ele>196.2</ele>
        <time>2022-09-24T10:36:23Z</time>
      </trkpt>
      <trkpt lat="45.81035" lon="5.08885">
        <ele>196.1</ele>
        <time>2022-09-24T10:36:24Z</time>
      </trkpt>
      <trkpt lat="45.81038" lon="5.08886">
        <ele>196</ele>
        <time>2022-09-24T10:36:25Z</time>
      </trkpt>
      <trkpt lat="45.81038" lon="5.08887">
        <ele>196</ele>
        <time>2022-09-24T10:36:26Z</time>
      </trkpt>
      <trkpt lat="45.81042" lon="5.08888">
        <ele>195.9</ele>
        <time>2022-09-24T10:36:27Z</time>
      </trkpt>
      <trkpt lat="45.81043" lon="5.08888">
        <ele>195.9</ele>
        <time>2022-09-24T10:36:28Z</time>
      </trkpt>
      <trkpt lat="45.81046" lon="5.0889">
        <ele>195.8</ele>
        <time>2022-09-24T10:36:29Z</time>
      </trkpt>
      <trkpt lat="45.81046" lon="5.08891">
        <ele>195.8</ele>
        <time>2022-09-24T10:36:30Z</time>
      </trkpt>
      <trkpt lat="45.81048" lon="5.08892">
        <ele>195.7</ele>
        <time>2022-09-24T10:36:31Z</time>
      </trkpt>
      <trkpt lat="45.81049" lon="5.08892">
        <ele>195.7</ele>
        <time>2022-09-24T10:36:32Z</time>
      </trkpt>
      <trkpt lat="45.81049" lon="5.08892">
        <ele>195.7</ele>
        <time>2022-09-24T10:36:33Z</time>
      </trkpt>
      <trkpt lat="45.81049" lon="5.08891">
        <ele>195.7</ele>
        <time>2022-09-24T10:36:34Z</time>
      </trkpt>
      <trkpt lat="45.8105" lon="5.08891">
        <ele>195.6</ele>
        <time>2022-09-24T10:36:35Z</time>
      </trkpt>
      <trkpt lat="45.81051" lon="5.08891">
        <ele>195.6</ele>
        <time>2022-09-24T10:36:36Z</time>
      </trkpt>
      <trkpt lat="45.81052" lon="5.08891">
        <ele>195.6</ele>
        <time>2022-09-24T10:36:37Z</time>
      </trkpt>
      <trkpt lat="45.81052" lon="5.08891">
        <ele>195.6</ele>
        <time>2022-09-24T10:36:38Z</time>
      </trkpt>
      <trkpt lat="45.81053" lon="5.0889">
        <ele>195.6</ele>
        <time>2022-09-24T10:36:39Z</time>
      </trkpt>
      <trkpt lat="45.81054" lon="5.0889">
        <ele>195.7</ele>
        <time>2022-09-24T10:36:40Z</time>
      </trkpt>
      <trkpt lat="45.81054" lon="5.0889">
        <ele>195.7</ele>
        <time>2022-09-24T10:36:41Z</time>
      </trkpt>
      <trkpt lat="45.81053" lon="5.0889">
        <ele>195.7</ele>
        <time>2022-09-24T10:36:42Z</time>
      </trkpt>
      <trkpt lat="45.81053" lon="5.0889">
        <ele>195.7</ele>
        <time>2022-09-24T10:36:43Z</time>
      </trkpt>
      <trkpt lat="45.81053" lon="5.0889">
        <ele>195.7</ele>
        <time>2022-09-24T10:36:44Z</time>
      </trkpt>
      <trkpt lat="45.81052" lon="5.0889">
        <ele>195.7</ele>
        <time>2022-09-24T10:36:45Z</time>
      </trkpt>
      <trkpt lat="45.81052" lon="5.0889">
        <ele>195.7</ele>
        <time>2022-09-24T10:36:46Z</time>
      </trkpt>
      <trkpt lat="45.81052" lon="5.0889">
        <ele>195.7</ele>
        <time>2022-09-24T10:36:47Z</time>
      </trkpt>
      <trkpt lat="45.81052" lon="5.08889">
        <ele>195.7</ele>
        <time>2022-09-24T10:36:48Z</time>
      </trkpt>
      <trkpt lat="45.81051" lon="5.08889">
        <ele>195.7</ele>
        <time>2022-09-24T10:36:49Z</time>
      </trkpt>
      <trkpt lat="45.81051" lon="5.08889">
        <ele>195.7</ele>
        <time>2022-09-24T10:36:50Z</time>
      </trkpt>
      <trkpt lat="45.81051" lon="5.08889">
        <ele>195.7</ele>
        <time>2022-09-24T10:36:51Z</time>
      </trkpt>
      <trkpt lat="45.81051" lon="5.08889">
        <ele>195.7</ele>
        <time>2022-09-24T10:42:23Z</time>
      </trkpt>
      <trkpt lat="45.8105" lon="5.08889">
        <ele>195.7</ele>
        <time>2022-09-24T10:42:24Z</time>
      </trkpt>
      <trkpt lat="45.8105" lon="5.08889">
        <ele>195.8</ele>
        <time>2022-09-24T10:42:25Z</time>
      </trkpt>
      <trkpt lat="45.8105" lon="5.08889">
        <ele>195.8</ele>
        <time>2022-09-24T10:42:26Z</time>
      </trkpt>
      <trkpt lat="45.8105" lon="5.08889">
        <ele>195.8</ele>
        <time>2022-09-24T10:42:27Z</time>
      </trkpt>
      <trkpt lat="45.81049" lon="5.08888">
        <ele>195.8</ele>
        <time>2022-09-24T10:42:28Z</time>
      </trkpt>
      <trkpt lat="45.81048" lon="5.08888">
        <ele>195.8</ele>
        <time>2022-09-24T10:42:29Z</time>
      </trkpt>
      <trkpt lat="45.81047" lon="5.08888">
        <ele>195.8</ele>
        <time>2022-09-24T10:42:30Z</time>
      </trkpt>
      <trkpt lat="45.81047" lon="5.08888">
        <ele>195.8</ele>
        <time>2022-09-24T10:42:31Z</time>
      </trkpt>
      <trkpt lat="45.81046" lon="5.08887">
        <ele>195.8</ele>
        <time>2022-09-24T10:42:32Z</time>
      </trkpt>
      <trkpt lat="45.81045" lon="5.08887">
        <ele>195.8</ele>
        <time>2022-09-24T10:42:33Z</time>
      </trkpt>
      <trkpt lat="45.81045" lon="5.08887">
        <ele>195.9</ele>
        <time>2022-09-24T10:42:34Z</time>
      </trkpt>
      <trkpt lat="45.81044" lon="5.08886">
        <ele>195.9</ele>
        <time>2022-09-24T10:42:35Z</time>
      </trkpt>
      <trkpt lat="45.81043" lon="5.08886">
        <ele>195.9</ele>
        <time>2022-09-24T10:42:36Z</time>
      </trkpt>
      <trkpt lat="45.81043" lon="5.08886">
        <ele>195.9</ele>
        <time>2022-09-24T10:43:43Z</time>
      </trkpt>
      <trkpt lat="45.81042" lon="5.08885">
        <ele>195.9</ele>
        <time>2022-09-24T10:43:44Z</time>
      </trkpt>
      <trkpt lat="45.81041" lon="5.08885">
        <ele>195.9</ele>
        <time>2022-09-24T10:43:45Z</time>
      </trkpt>
      <trkpt lat="45.81041" lon="5.08885">
        <ele>195.9</ele>
        <time>2022-09-24T10:43:46Z</time>
      </trkpt>
      <trkpt lat="45.8104" lon="5.08884">
        <ele>195.9</ele>
        <time>2022-09-24T10:43:47Z</time>
      </trkpt>
      <trkpt lat="45.81039" lon="5.08884">
        <ele>196</ele>
        <time>2022-09-24T10:43:48Z</time>
      </trkpt>
      <trkpt lat="45.81039" lon="5.08884">
        <ele>196</ele>
        <time>2022-09-24T10:43:49Z</time>
      </trkpt>
      <trkpt lat="45.81038" lon="5.08884">
        <ele>196</ele>
        <time>2022-09-24T10:43:50Z</time>
      </trkpt>
      <trkpt lat="45.81037" lon="5.08883">
        <ele>196</ele>
        <time>2022-09-24T10:43:51Z</time>
      </trkpt>
      <trkpt lat="45.81037" lon="5.08883">
        <ele>196</ele>
        <time>2022-09-24T10:43:52Z</time>
      </trkpt>
      <trkpt lat="45.81036" lon="5.08883">
        <ele>196</ele>
        <time>2022-09-24T10:44:45Z</time>
      </trkpt>
      <trkpt lat="45.81035" lon="5.08882">
        <ele>196</ele>
        <time>2022-09-24T10:44:46Z</time>
      </trkpt>
      <trkpt lat="45.81035" lon="5.08882">
        <ele>196.1</ele>
        <time>2022-09-24T10:44:47Z</time>
      </trkpt>
      <trkpt lat="45.81034" lon="5.08882">
        <ele>196.1</ele>
        <time>2022-09-24T10:44:48Z</time>
      </trkpt>
      <trkpt lat="45.81032" lon="5.0888">
        <ele>196.1</ele>
        <time>2022-09-24T10:44:49Z</time>
      </trkpt>
      <trkpt lat="45.81031" lon="5.0888">
        <ele>196.1</ele>
        <time>2022-09-24T10:44:50Z</time>
      </trkpt>
      <trkpt lat="45.8103" lon="5.08879">
        <ele>196.1</ele>
        <time>2022-09-24T10:44:51Z</time>
      </trkpt>
      <trkpt lat="45.81029" lon="5.08878">
        <ele>196.2</ele>
        <time>2022-09-24T10:44:52Z</time>
      </trkpt>
      <trkpt lat="45.81029" lon="5.08878">
        <ele>196.2</ele>
        <time>2022-09-24T10:44:53Z</time>
      </trkpt>
      <trkpt lat="45.81029" lon="5.08878">
        <ele>196.2</ele>
        <time>2022-09-24T10:44:54Z</time>
      </trkpt>
      <trkpt lat="45.81028" lon="5.08878">
        <ele>196.2</ele>
        <time>2022-09-24T10:44:55Z</time>
      </trkpt>
      <trkpt lat="45.81028" lon="5.08877">
        <ele>196.2</ele>
        <time>2022-09-24T10:44:56Z</time>
      </trkpt>
      <trkpt lat="45.81028" lon="5.08877">
        <ele>196.2</ele>
        <time>2022-09-24T10:44:57Z</time>
      </trkpt>
      <trkpt lat="45.81028" lon="5.08877">
        <ele>196.2</ele>
        <time>2022-09-24T10:44:58Z</time>
      </trkpt>
      <trkpt lat="45.81028" lon="5.08877">
        <ele>196.2</ele>
        <time>2022-09-24T10:44:59Z</time>
      </trkpt>
      <trkpt lat="45.81027" lon="5.08877">
        <ele>196.2</ele>
        <time>2022-09-24T10:45:00Z</time>
      </trkpt>
      <trkpt lat="45.81027" lon="5.08877">
        <ele>196.2</ele>
        <time>2022-09-24T10:45:01Z</time>
      </trkpt>
      <trkpt lat="45.81025" lon="5.08878">
        <ele>196.2</ele>
        <time>2022-09-24T10:45:02Z</time>
      </trkpt>
      <trkpt lat="45.81025" lon="5.08879">
        <ele>196.3</ele>
        <time>2022-09-24T10:45:03Z</time>
      </trkpt>
      <trkpt lat="45.81024" lon="5.0888">
        <ele>196.3</ele>
        <time>2022-09-24T10:45:04Z</time>
      </trkpt>
      <trkpt lat="45.81023" lon="5.08881">
        <ele>196.3</ele>
        <time>2022-09-24T10:45:05Z</time>
      </trkpt>
      <trkpt lat="45.81023" lon="5.08882">
        <ele>196.3</ele>
        <time>2022-09-24T10:45:06Z</time>
      </trkpt>
      <trkpt lat="45.81022" lon="5.08883">
        <ele>196.4</ele>
        <time>2022-09-24T10:45:07Z</time>
      </trkpt>
      <trkpt lat="45.81021" lon="5.08884">
        <ele>196.5</ele>
        <time>2022-09-24T10:45:08Z</time>
      </trkpt>
      <trkpt lat="45.81021" lon="5.08884">
        <ele>196.5</ele>
        <time>2022-09-24T10:45:09Z</time>
      </trkpt>
      <trkpt lat="45.81021" lon="5.08885">
        <ele>196.6</ele>
        <time>2022-09-24T10:45:10Z</time>
      </trkpt>
      <trkpt lat="45.8102" lon="5.08886">
        <ele>196.6</ele>
        <time>2022-09-24T10:45:11Z</time>
      </trkpt>
      <trkpt lat="45.8102" lon="5.08886">
        <ele>196.7</ele>
        <time>2022-09-24T10:45:12Z</time>
      </trkpt>
      <trkpt lat="45.8102" lon="5.08887">
        <ele>196.7</ele>
        <time>2022-09-24T10:45:13Z</time>
      </trkpt>
      <trkpt lat="45.8102" lon="5.08888">
        <ele>196.8</ele>
        <time>2022-09-24T10:45:14Z</time>
      </trkpt>
      <trkpt lat="45.8102" lon="5.08889">
        <ele>196.8</ele>
        <time>2022-09-24T10:45:15Z</time>
      </trkpt>
      <trkpt lat="45.81021" lon="5.0889">
        <ele>196.9</ele>
        <time>2022-09-24T10:45:16Z</time>
      </trkpt>
      <trkpt lat="45.81021" lon="5.0889">
        <ele>197</ele>
        <time>2022-09-24T10:45:17Z</time>
      </trkpt>
      <trkpt lat="45.81021" lon="5.08891">
        <ele>197</ele>
        <time>2022-09-24T10:45:18Z</time>
      </trkpt>
      <trkpt lat="45.81022" lon="5.08892">
        <ele>197.1</ele>
        <time>2022-09-24T10:45:40Z</time>
      </trkpt>
      <trkpt lat="45.81022" lon="5.08893">
        <ele>197.1</ele>
        <time>2022-09-24T10:45:42Z</time>
      </trkpt>
      <trkpt lat="45.81023" lon="5.08893">
        <ele>197.2</ele>
        <time>2022-09-24T10:45:43Z</time>
      </trkpt>
      <trkpt lat="45.81023" lon="5.08894">
        <ele>197.2</ele>
        <time>2022-09-24T10:45:44Z</time>
      </trkpt>
      <trkpt lat="45.81023" lon="5.08895">
        <ele>197.3</ele>
        <time>2022-09-24T10:45:45Z</time>
      </trkpt>
      <trkpt lat="45.81023" lon="5.08897">
        <ele>197.4</ele>
        <time>2022-09-24T10:45:46Z</time>
      </trkpt>
      <trkpt lat="45.81023" lon="5.08897">
        <ele>197.4</ele>
        <time>2022-09-24T10:45:47Z</time>
      </trkpt>
      <trkpt lat="45.81022" lon="5.08899">
        <ele>197.6</ele>
        <time>2022-09-24T10:45:48Z</time>
      </trkpt>
      <trkpt lat="45.81022" lon="5.08903">
        <ele>197.8</ele>
        <time>2022-09-24T10:45:50Z</time>
      </trkpt>
      <trkpt lat="45.81022" lon="5.08905">
        <ele>197.9</ele>
        <time>2022-09-24T10:45:51Z</time>
      </trkpt>
      <trkpt lat="45.81022" lon="5.08905">
        <ele>197.9</ele>
        <time>2022-09-24T10:45:52Z</time>
      </trkpt>
      <trkpt lat="45.81021" lon="5.08907">
        <ele>198</ele>
        <time>2022-09-24T10:45:53Z</time>
      </trkpt>
      <trkpt lat="45.81021" lon="5.08908">
        <ele>198.1</ele>
        <time>2022-09-24T10:45:54Z</time>
      </trkpt>
      <trkpt lat="45.81021" lon="5.08909">
        <ele>198.2</ele>
        <time>2022-09-24T10:45:55Z</time>
      </trkpt>
      <trkpt lat="45.81019" lon="5.08913">
        <ele>198.4</ele>
        <time>2022-09-24T10:45:56Z</time>
      </trkpt>
      <trkpt lat="45.81019" lon="5.08914">
        <ele>198.5</ele>
        <time>2022-09-24T10:45:57Z</time>
      </trkpt>
      <trkpt lat="45.81017" lon="5.08917">
        <ele>198.7</ele>
        <time>2022-09-24T10:45:58Z</time>
      </trkpt>
      <trkpt lat="45.81017" lon="5.08918">
        <ele>198.8</ele>
        <time>2022-09-24T10:45:59Z</time>
      </trkpt>
      <trkpt lat="45.81016" lon="5.08919">
        <ele>198.9</ele>
        <time>2022-09-24T10:46:00Z</time>
      </trkpt>
      <trkpt lat="45.81016" lon="5.08921">
        <ele>199</ele>
        <time>2022-09-24T10:46:01Z</time>
      </trkpt>
      <trkpt lat="45.81016" lon="5.08922">
        <ele>199.1</ele>
        <time>2022-09-24T10:46:02Z</time>
      </trkpt>
      <trkpt lat="45.81016" lon="5.08924">
        <ele>199.2</ele>
        <time>2022-09-24T10:46:03Z</time>
      </trkpt>
      <trkpt lat="45.81016" lon="5.08926">
        <ele>199.4</ele>
        <time>2022-09-24T10:46:04Z</time>
      </trkpt>
      <trkpt lat="45.81015" lon="5.08928">
        <ele>199.5</ele>
        <time>2022-09-24T10:46:05Z</time>
      </trkpt>
      <trkpt lat="45.81014" lon="5.08929">
        <ele>199.6</ele>
        <time>2022-09-24T10:46:06Z</time>
      </trkpt>
      <trkpt lat="45.81014" lon="5.08929">
        <ele>199.7</ele>
        <time>2022-09-24T10:46:07Z</time>
      </trkpt>
      <trkpt lat="45.81014" lon="5.08931">
        <ele>199.8</ele>
        <time>2022-09-24T10:46:08Z</time>
      </trkpt>
      <trkpt lat="45.81012" lon="5.08933">
        <ele>200</ele>
        <time>2022-09-24T10:46:09Z</time>
      </trkpt>
      <trkpt lat="45.81011" lon="5.08937">
        <ele>200.4</ele>
        <time>2022-09-24T10:46:10Z</time>
      </trkpt>
      <trkpt lat="45.81011" lon="5.08938">
        <ele>200.5</ele>
        <time>2022-09-24T10:46:11Z</time>
      </trkpt>
      <trkpt lat="45.81011" lon="5.0894">
        <ele>200.6</ele>
        <time>2022-09-24T10:46:12Z</time>
      </trkpt>
      <trkpt lat="45.8101" lon="5.08942">
        <ele>200.9</ele>
        <time>2022-09-24T10:46:13Z</time>
      </trkpt>
      <trkpt lat="45.8101" lon="5.08944">
        <ele>201</ele>
        <time>2022-09-24T10:46:14Z</time>
      </trkpt>
      <trkpt lat="45.81009" lon="5.08945">
        <ele>201.2</ele>
        <time>2022-09-24T10:46:15Z</time>
      </trkpt>
      <trkpt lat="45.81008" lon="5.08946">
        <ele>201.4</ele>
        <time>2022-09-24T10:46:16Z</time>
      </trkpt>
      <trkpt lat="45.81008" lon="5.08947">
        <ele>201.5</ele>
        <time>2022-09-24T10:46:17Z</time>
      </trkpt>
      <trkpt lat="45.81007" lon="5.08948">
        <ele>201.7</ele>
        <time>2022-09-24T10:46:18Z</time>
      </trkpt>
      <trkpt lat="45.81006" lon="5.08949">
        <ele>201.8</ele>
        <time>2022-09-24T10:46:19Z</time>
      </trkpt>
      <trkpt lat="45.81005" lon="5.08952">
        <ele>202.1</ele>
        <time>2022-09-24T10:46:20Z</time>
      </trkpt>
      <trkpt lat="45.81005" lon="5.08953">
        <ele>202.3</ele>
        <time>2022-09-24T10:46:21Z</time>
      </trkpt>
      <trkpt lat="45.81004" lon="5.08956">
        <ele>202.7</ele>
        <time>2022-09-24T10:46:22Z</time>
      </trkpt>
      <trkpt lat="45.81003" lon="5.08957">
        <ele>202.8</ele>
        <time>2022-09-24T10:46:23Z</time>
      </trkpt>
      <trkpt lat="45.81003" lon="5.08959">
        <ele>203</ele>
        <time>2022-09-24T10:46:24Z</time>
      </trkpt>
      <trkpt lat="45.81002" lon="5.08961">
        <ele>203.3</ele>
        <time>2022-09-24T10:46:25Z</time>
      </trkpt>
      <trkpt lat="45.81002" lon="5.08963">
        <ele>203.5</ele>
        <time>2022-09-24T10:46:26Z</time>
      </trkpt>
      <trkpt lat="45.81001" lon="5.08964">
        <ele>203.7</ele>
        <time>2022-09-24T10:46:27Z</time>
      </trkpt>
      <trkpt lat="45.81001" lon="5.08965">
        <ele>203.9</ele>
        <time>2022-09-24T10:46:28Z</time>
      </trkpt>
      <trkpt lat="45.81001" lon="5.08968">
        <ele>204.3</ele>
        <time>2022-09-24T10:46:29Z</time>
      </trkpt>
      <trkpt lat="45.81001" lon="5.0897">
        <ele>204.4</ele>
        <time>2022-09-24T10:46:30Z</time>
      </trkpt>
      <trkpt lat="45.81" lon="5.08973">
        <ele>204.8</ele>
        <time>2022-09-24T10:46:31Z</time>
      </trkpt>
      <trkpt lat="45.80999" lon="5.08975">
        <ele>205</ele>
        <time>2022-09-24T10:46:32Z</time>
      </trkpt>
      <trkpt lat="45.80998" lon="5.08976">
        <ele>205.3</ele>
        <time>2022-09-24T10:46:33Z</time>
      </trkpt>
      <trkpt lat="45.80997" lon="5.08978">
        <ele>205.6</ele>
        <time>2022-09-24T10:46:34Z</time>
      </trkpt>
      <trkpt lat="45.80996" lon="5.08979">
        <ele>205.8</ele>
        <time>2022-09-24T10:46:35Z</time>
      </trkpt>
      <trkpt lat="45.80996" lon="5.0898">
        <ele>206.5</ele>
        <time>2022-09-24T10:46:36Z</time>
      </trkpt>
      <trkpt lat="45.80994" lon="5.0898">
        <ele>206.6</ele>
        <time>2022-09-24T10:46:37Z</time>
      </trkpt>
      <trkpt lat="45.80993" lon="5.0898">
        <ele>206.7</ele>
        <time>2022-09-24T10:46:38Z</time>
      </trkpt>
      <trkpt lat="45.80992" lon="5.0898">
        <ele>206.7</ele>
        <time>2022-09-24T10:46:39Z</time>
      </trkpt>
      <trkpt lat="45.80992" lon="5.08978">
        <ele>206.8</ele>
        <time>2022-09-24T10:46:40Z</time>
      </trkpt>
      <trkpt lat="45.80991" lon="5.08978">
        <ele>206.8</ele>
        <time>2022-09-24T10:46:41Z</time>
      </trkpt>
      <trkpt lat="45.80991" lon="5.08977">
        <ele>206.9</ele>
        <time>2022-09-24T10:46:42Z</time>
      </trkpt>
      <trkpt lat="45.80991" lon="5.08977">
        <ele>206.9</ele>
        <time>2022-09-24T10:46:43Z</time>
      </trkpt>
      <trkpt lat="45.80991" lon="5.08976">
        <ele>206.9</ele>
        <time>2022-09-24T10:46:44Z</time>
      </trkpt>
      <trkpt lat="45.80991" lon="5.08975">
        <ele>207</ele>
        <time>2022-09-24T10:46:45Z</time>
      </trkpt>
      <trkpt lat="45.80991" lon="5.08975">
        <ele>207</ele>
        <time>2022-09-24T10:46:46Z</time>
      </trkpt>
      <trkpt lat="45.8099" lon="5.08974">
        <ele>207.1</ele>
        <time>2022-09-24T10:46:47Z</time>
      </trkpt>
      <trkpt lat="45.8099" lon="5.08972">
        <ele>207.1</ele>
        <time>2022-09-24T10:46:48Z</time>
      </trkpt>
      <trkpt lat="45.8099" lon="5.08972">
        <ele>207.2</ele>
        <time>2022-09-24T10:46:49Z</time>
      </trkpt>
      <trkpt lat="45.8099" lon="5.08971">
        <ele>207.2</ele>
        <time>2022-09-24T10:46:50Z</time>
      </trkpt>
      <trkpt lat="45.8099" lon="5.08969">
        <ele>207.3</ele>
        <time>2022-09-24T10:46:51Z</time>
      </trkpt>
      <trkpt lat="45.8099" lon="5.08968">
        <ele>207.4</ele>
        <time>2022-09-24T10:46:52Z</time>
      </trkpt>
      <trkpt lat="45.80989" lon="5.08967">
        <ele>207.5</ele>
        <time>2022-09-24T10:46:53Z</time>
      </trkpt>
      <trkpt lat="45.80988" lon="5.08967">
        <ele>207.6</ele>
        <time>2022-09-24T10:46:54Z</time>
      </trkpt>
      <trkpt lat="45.80987" lon="5.08966">
        <ele>207.7</ele>
        <time>2022-09-24T10:46:55Z</time>
      </trkpt>
      <trkpt lat="45.80987" lon="5.08965">
        <ele>207.8</ele>
        <time>2022-09-24T10:46:56Z</time>
      </trkpt>
      <trkpt lat="45.80986" lon="5.08964">
        <ele>208</ele>
        <time>2022-09-24T10:46:57Z</time>
      </trkpt>
      <trkpt lat="45.80986" lon="5.08963">
        <ele>208.1</ele>
        <time>2022-09-24T10:46:58Z</time>
      </trkpt>
      <trkpt lat="45.80986" lon="5.08962">
        <ele>208.2</ele>
        <time>2022-09-24T10:46:59Z</time>
      </trkpt>
      <trkpt lat="45.80986" lon="5.08961">
        <ele>208.3</ele>
        <time>2022-09-24T10:47:00Z</time>
      </trkpt>
      <trkpt lat="45.80986" lon="5.0896">
        <ele>208.4</ele>
        <time>2022-09-24T10:47:01Z</time>
      </trkpt>
      <trkpt lat="45.80985" lon="5.0896">
        <ele>208.5</ele>
        <time>2022-09-24T10:47:02Z</time>
      </trkpt>
      <trkpt lat="45.80984" lon="5.08957">
        <ele>208.8</ele>
        <time>2022-09-24T10:47:03Z</time>
      </trkpt>
      <trkpt lat="45.80983" lon="5.08957">
        <ele>208.9</ele>
        <time>2022-09-24T10:47:04Z</time>
      </trkpt>
      <trkpt lat="45.80982" lon="5.08956">
        <ele>209.1</ele>
        <time>2022-09-24T10:47:05Z</time>
      </trkpt>
      <trkpt lat="45.80982" lon="5.08955">
        <ele>209.2</ele>
        <time>2022-09-24T10:47:06Z</time>
      </trkpt>
      <trkpt lat="45.80981" lon="5.08954">
        <ele>209.4</ele>
        <time>2022-09-24T10:47:07Z</time>
      </trkpt>
      <trkpt lat="45.8098" lon="5.08953">
        <ele>209.5</ele>
        <time>2022-09-24T10:47:08Z</time>
      </trkpt>
      <trkpt lat="45.80979" lon="5.08951">
        <ele>209.8</ele>
        <time>2022-09-24T10:47:09Z</time>
      </trkpt>
      <trkpt lat="45.80978" lon="5.0895">
        <ele>209.9</ele>
        <time>2022-09-24T10:47:10Z</time>
      </trkpt>
      <trkpt lat="45.80978" lon="5.0895">
        <ele>210</ele>
        <time>2022-09-24T10:47:11Z</time>
      </trkpt>
      <trkpt lat="45.80977" lon="5.08949">
        <ele>210.1</ele>
        <time>2022-09-24T10:47:12Z</time>
      </trkpt>
      <trkpt lat="45.80976" lon="5.08948">
        <ele>210.3</ele>
        <time>2022-09-24T10:47:13Z</time>
      </trkpt>
      <trkpt lat="45.80975" lon="5.08947">
        <ele>210.4</ele>
        <time>2022-09-24T10:47:14Z</time>
      </trkpt>
      <trkpt lat="45.80974" lon="5.08947">
        <ele>210.6</ele>
        <time>2022-09-24T10:47:15Z</time>
      </trkpt>
      <trkpt lat="45.80974" lon="5.08946">
        <ele>210.6</ele>
        <time>2022-09-24T10:47:16Z</time>
      </trkpt>
      <trkpt lat="45.80974" lon="5.08946">
        <ele>210.7</ele>
        <time>2022-09-24T10:47:17Z</time>
      </trkpt>
      <trkpt lat="45.80973" lon="5.08945">
        <ele>210.8</ele>
        <time>2022-09-24T10:47:18Z</time>
      </trkpt>
      <trkpt lat="45.80973" lon="5.08945">
        <ele>210.8</ele>
        <time>2022-09-24T10:47:19Z</time>
      </trkpt>
      <trkpt lat="45.80973" lon="5.08944">
        <ele>210.9</ele>
        <time>2022-09-24T10:47:20Z</time>
      </trkpt>
      <trkpt lat="45.80973" lon="5.08943">
        <ele>211</ele>
        <time>2022-09-24T10:47:21Z</time>
      </trkpt>
      <trkpt lat="45.80972" lon="5.08941">
        <ele>211.3</ele>
        <time>2022-09-24T10:47:22Z</time>
      </trkpt>
      <trkpt lat="45.80971" lon="5.0894">
        <ele>211.4</ele>
        <time>2022-09-24T10:47:23Z</time>
      </trkpt>
      <trkpt lat="45.8097" lon="5.08939">
        <ele>211.5</ele>
        <time>2022-09-24T10:47:24Z</time>
      </trkpt>
      <trkpt lat="45.80969" lon="5.08939">
        <ele>211.7</ele>
        <time>2022-09-24T10:47:25Z</time>
      </trkpt>
      <trkpt lat="45.80968" lon="5.08938">
        <ele>211.8</ele>
        <time>2022-09-24T10:47:27Z</time>
      </trkpt>
      <trkpt lat="45.80967" lon="5.08937">
        <ele>211.9</ele>
        <time>2022-09-24T10:47:28Z</time>
      </trkpt>
      <trkpt lat="45.80967" lon="5.08936">
        <ele>212.1</ele>
        <time>2022-09-24T10:47:29Z</time>
      </trkpt>
      <trkpt lat="45.80966" lon="5.08935">
        <ele>212.2</ele>
        <time>2022-09-24T10:47:30Z</time>
      </trkpt>
      <trkpt lat="45.80965" lon="5.08934">
        <ele>212.3</ele>
        <time>2022-09-24T10:47:31Z</time>
      </trkpt>
      <trkpt lat="45.80965" lon="5.08933">
        <ele>212.5</ele>
        <time>2022-09-24T10:47:32Z</time>
      </trkpt>
      <trkpt lat="45.80963" lon="5.08932">
        <ele>212.7</ele>
        <time>2022-09-24T10:47:33Z</time>
      </trkpt>
      <trkpt lat="45.80963" lon="5.08932">
        <ele>212.8</ele>
        <time>2022-09-24T10:47:34Z</time>
      </trkpt>
      <trkpt lat="45.80961" lon="5.08931">
        <ele>213</ele>
        <time>2022-09-24T10:47:35Z</time>
      </trkpt>
      <trkpt lat="45.8096" lon="5.0893">
        <ele>213.1</ele>
        <time>2022-09-24T10:47:36Z</time>
      </trkpt>
      <trkpt lat="45.8096" lon="5.0893">
        <ele>213.2</ele>
        <time>2022-09-24T10:47:37Z</time>
      </trkpt>
      <trkpt lat="45.80958" lon="5.0893">
        <ele>213.5</ele>
        <time>2022-09-24T10:47:38Z</time>
      </trkpt>
      <trkpt lat="45.80957" lon="5.08931">
        <ele>213.6</ele>
        <time>2022-09-24T10:47:40Z</time>
      </trkpt>
      <trkpt lat="45.80956" lon="5.08931">
        <ele>213.8</ele>
        <time>2022-09-24T10:47:41Z</time>
      </trkpt>
      <trkpt lat="45.80955" lon="5.08931">
        <ele>213.9</ele>
        <time>2022-09-24T10:47:42Z</time>
      </trkpt>
      <trkpt lat="45.80954" lon="5.08931">
        <ele>214</ele>
        <time>2022-09-24T10:47:43Z</time>
      </trkpt>
      <trkpt lat="45.80953" lon="5.08931">
        <ele>214.1</ele>
        <time>2022-09-24T10:47:44Z</time>
      </trkpt>
      <trkpt lat="45.80953" lon="5.08931">
        <ele>214.2</ele>
        <time>2022-09-24T10:47:45Z</time>
      </trkpt>
      <trkpt lat="45.80951" lon="5.0893">
        <ele>214.4</ele>
        <time>2022-09-24T10:47:46Z</time>
      </trkpt>
      <trkpt lat="45.8095" lon="5.0893">
        <ele>214.6</ele>
        <time>2022-09-24T10:47:47Z</time>
      </trkpt>
      <trkpt lat="45.80949" lon="5.08929">
        <ele>214.7</ele>
        <time>2022-09-24T10:47:48Z</time>
      </trkpt>
      <trkpt lat="45.80948" lon="5.08929">
        <ele>214.8</ele>
        <time>2022-09-24T10:47:49Z</time>
      </trkpt>
      <trkpt lat="45.80947" lon="5.08929">
        <ele>215</ele>
        <time>2022-09-24T10:47:50Z</time>
      </trkpt>
      <trkpt lat="45.80946" lon="5.08928">
        <ele>215.1</ele>
        <time>2022-09-24T10:47:51Z</time>
      </trkpt>
      <trkpt lat="45.80945" lon="5.08928">
        <ele>215.3</ele>
        <time>2022-09-24T10:47:52Z</time>
      </trkpt>
      <trkpt lat="45.80943" lon="5.08927">
        <ele>215.4</ele>
        <time>2022-09-24T10:47:53Z</time>
      </trkpt>
      <trkpt lat="45.80941" lon="5.08927">
        <ele>215.7</ele>
        <time>2022-09-24T10:47:54Z</time>
      </trkpt>
      <trkpt lat="45.8094" lon="5.08926">
        <ele>215.8</ele>
        <time>2022-09-24T10:47:55Z</time>
      </trkpt>
      <trkpt lat="45.80939" lon="5.08926">
        <ele>216</ele>
        <time>2022-09-24T10:47:56Z</time>
      </trkpt>
      <trkpt lat="45.80938" lon="5.08926">
        <ele>216.1</ele>
        <time>2022-09-24T10:47:57Z</time>
      </trkpt>
      <trkpt lat="45.80937" lon="5.08926">
        <ele>216.3</ele>
        <time>2022-09-24T10:47:58Z</time>
      </trkpt>
      <trkpt lat="45.80936" lon="5.08926">
        <ele>216.4</ele>
        <time>2022-09-24T10:47:59Z</time>
      </trkpt>
      <trkpt lat="45.80935" lon="5.08925">
        <ele>216.5</ele>
        <time>2022-09-24T10:48:00Z</time>
      </trkpt>
      <trkpt lat="45.80934" lon="5.08926">
        <ele>216.6</ele>
        <time>2022-09-24T10:48:01Z</time>
      </trkpt>
      <trkpt lat="45.80933" lon="5.08926">
        <ele>216.7</ele>
        <time>2022-09-24T10:48:02Z</time>
      </trkpt>
      <trkpt lat="45.80932" lon="5.08925">
        <ele>216.9</ele>
        <time>2022-09-24T10:48:03Z</time>
      </trkpt>
      <trkpt lat="45.80931" lon="5.08925">
        <ele>217</ele>
        <time>2022-09-24T10:48:04Z</time>
      </trkpt>
      <trkpt lat="45.8093" lon="5.08924">
        <ele>217.1</ele>
        <time>2022-09-24T10:48:05Z</time>
      </trkpt>
      <trkpt lat="45.80928" lon="5.08924">
        <ele>217.3</ele>
        <time>2022-09-24T10:48:06Z</time>
      </trkpt>
      <trkpt lat="45.80927" lon="5.08924">
        <ele>217.4</ele>
        <time>2022-09-24T10:48:07Z</time>
      </trkpt>
      <trkpt lat="45.80926" lon="5.08924">
        <ele>217.5</ele>
        <time>2022-09-24T10:48:08Z</time>
      </trkpt>
      <trkpt lat="45.80926" lon="5.08924">
        <ele>217.6</ele>
        <time>2022-09-24T10:48:09Z</time>
      </trkpt>
      <trkpt lat="45.80924" lon="5.08924">
        <ele>217.7</ele>
        <time>2022-09-24T10:48:10Z</time>
      </trkpt>
      <trkpt lat="45.80924" lon="5.08924">
        <ele>217.8</ele>
        <time>2022-09-24T10:48:11Z</time>
      </trkpt>
      <trkpt lat="45.80923" lon="5.08924">
        <ele>217.9</ele>
        <time>2022-09-24T10:48:12Z</time>
      </trkpt>
      <trkpt lat="45.80921" lon="5.08923">
        <ele>218.1</ele>
        <time>2022-09-24T10:48:13Z</time>
      </trkpt>
      <trkpt lat="45.8092" lon="5.08923">
        <ele>218.2</ele>
        <time>2022-09-24T10:48:14Z</time>
      </trkpt>
      <trkpt lat="45.80918" lon="5.08923">
        <ele>218.3</ele>
        <time>2022-09-24T10:48:15Z</time>
      </trkpt>
      <trkpt lat="45.80917" lon="5.08923">
        <ele>218.4</ele>
        <time>2022-09-24T10:48:16Z</time>
      </trkpt>
      <trkpt lat="45.80916" lon="5.08923">
        <ele>218.5</ele>
        <time>2022-09-24T10:48:17Z</time>
      </trkpt>
      <trkpt lat="45.80915" lon="5.08923">
        <ele>218.7</ele>
        <time>2022-09-24T10:48:27Z</time>
      </trkpt>
      <trkpt lat="45.80913" lon="5.08923">
        <ele>218.8</ele>
        <time>2022-09-24T10:48:28Z</time>
      </trkpt>
      <trkpt lat="45.80912" lon="5.08922">
        <ele>218.9</ele>
        <time>2022-09-24T10:48:29Z</time>
      </trkpt>
      <trkpt lat="45.80911" lon="5.08922">
        <ele>219</ele>
        <time>2022-09-24T10:48:30Z</time>
      </trkpt>
      <trkpt lat="45.8091" lon="5.08923">
        <ele>219</ele>
        <time>2022-09-24T10:48:31Z</time>
      </trkpt>
      <trkpt lat="45.80909" lon="5.08922">
        <ele>219.1</ele>
        <time>2022-09-24T10:48:32Z</time>
      </trkpt>
      <trkpt lat="45.80908" lon="5.08922">
        <ele>219.2</ele>
        <time>2022-09-24T10:48:33Z</time>
      </trkpt>
      <trkpt lat="45.80908" lon="5.08922">
        <ele>219.2</ele>
        <time>2022-09-24T10:48:34Z</time>
      </trkpt>
      <trkpt lat="45.80907" lon="5.08922">
        <ele>219.3</ele>
        <time>2022-09-24T10:48:35Z</time>
      </trkpt>
      <trkpt lat="45.80907" lon="5.08922">
        <ele>219.4</ele>
        <time>2022-09-24T10:48:36Z</time>
      </trkpt>
      <trkpt lat="45.80906" lon="5.08921">
        <ele>219.4</ele>
        <time>2022-09-24T10:48:37Z</time>
      </trkpt>
      <trkpt lat="45.80905" lon="5.08922">
        <ele>219.5</ele>
        <time>2022-09-24T10:48:38Z</time>
      </trkpt>
      <trkpt lat="45.80905" lon="5.08922">
        <ele>219.5</ele>
        <time>2022-09-24T10:48:39Z</time>
      </trkpt>
      <trkpt lat="45.80905" lon="5.08921">
        <ele>219.6</ele>
        <time>2022-09-24T10:48:40Z</time>
      </trkpt>
      <trkpt lat="45.80903" lon="5.08921">
        <ele>219.7</ele>
        <time>2022-09-24T10:48:41Z</time>
      </trkpt>
      <trkpt lat="45.80903" lon="5.08921">
        <ele>219.7</ele>
        <time>2022-09-24T10:48:42Z</time>
      </trkpt>
      <trkpt lat="45.80903" lon="5.08921">
        <ele>219.7</ele>
        <time>2022-09-24T10:48:43Z</time>
      </trkpt>
      <trkpt lat="45.80902" lon="5.08921">
        <ele>219.8</ele>
        <time>2022-09-24T10:48:44Z</time>
      </trkpt>
      <trkpt lat="45.809" lon="5.0892">
        <ele>219.9</ele>
        <time>2022-09-24T10:48:45Z</time>
      </trkpt>
      <trkpt lat="45.80899" lon="5.0892">
        <ele>220</ele>
        <time>2022-09-24T10:48:46Z</time>
      </trkpt>
      <trkpt lat="45.80898" lon="5.0892">
        <ele>220.1</ele>
        <time>2022-09-24T10:48:47Z</time>
      </trkpt>
      <trkpt lat="45.80897" lon="5.08919">
        <ele>220.2</ele>
        <time>2022-09-24T10:48:48Z</time>
      </trkpt>
      <trkpt lat="45.80895" lon="5.08919">
        <ele>220.2</ele>
        <time>2022-09-24T10:48:49Z</time>
      </trkpt>
      <trkpt lat="45.80894" lon="5.08919">
        <ele>220.3</ele>
        <time>2022-09-24T10:48:50Z</time>
      </trkpt>
      <trkpt lat="45.80893" lon="5.08918">
        <ele>220.4</ele>
        <time>2022-09-24T10:48:51Z</time>
      </trkpt>
      <trkpt lat="45.80892" lon="5.08918">
        <ele>220.5</ele>
        <time>2022-09-24T10:49:04Z</time>
      </trkpt>
      <trkpt lat="45.8089" lon="5.08918">
        <ele>220.6</ele>
        <time>2022-09-24T10:49:05Z</time>
      </trkpt>
      <trkpt lat="45.80889" lon="5.08917">
        <ele>220.6</ele>
        <time>2022-09-24T10:49:06Z</time>
      </trkpt>
      <trkpt lat="45.80888" lon="5.08917">
        <ele>220.7</ele>
        <time>2022-09-24T10:49:07Z</time>
      </trkpt>
      <trkpt lat="45.80886" lon="5.08916">
        <ele>220.8</ele>
        <time>2022-09-24T10:49:08Z</time>
      </trkpt>
      <trkpt lat="45.80885" lon="5.08915">
        <ele>220.9</ele>
        <time>2022-09-24T10:49:09Z</time>
      </trkpt>
      <trkpt lat="45.80884" lon="5.08913">
        <ele>221</ele>
        <time>2022-09-24T10:49:10Z</time>
      </trkpt>
      <trkpt lat="45.80882" lon="5.08911">
        <ele>221.2</ele>
        <time>2022-09-24T10:49:11Z</time>
      </trkpt>
      <trkpt lat="45.8088" lon="5.0891">
        <ele>221.2</ele>
        <time>2022-09-24T10:49:12Z</time>
      </trkpt>
      <trkpt lat="45.80877" lon="5.08909">
        <ele>221.5</ele>
        <time>2022-09-24T10:49:13Z</time>
      </trkpt>
      <trkpt lat="45.80876" lon="5.08908">
        <ele>221.5</ele>
        <time>2022-09-24T10:49:14Z</time>
      </trkpt>
      <trkpt lat="45.80873" lon="5.08907">
        <ele>221.8</ele>
        <time>2022-09-24T10:49:15Z</time>
      </trkpt>
      <trkpt lat="45.80872" lon="5.08906">
        <ele>221.8</ele>
        <time>2022-09-24T10:49:16Z</time>
      </trkpt>
      <trkpt lat="45.80869" lon="5.08906">
        <ele>222</ele>
        <time>2022-09-24T10:49:17Z</time>
      </trkpt>
      <trkpt lat="45.80867" lon="5.08905">
        <ele>222.1</ele>
        <time>2022-09-24T10:49:18Z</time>
      </trkpt>
      <trkpt lat="45.80865" lon="5.08904">
        <ele>222.3</ele>
        <time>2022-09-24T10:49:19Z</time>
      </trkpt>
      <trkpt lat="45.80861" lon="5.08902">
        <ele>222.5</ele>
        <time>2022-09-24T10:49:20Z</time>
      </trkpt>
      <trkpt lat="45.8086" lon="5.08902">
        <ele>222.6</ele>
        <time>2022-09-24T10:49:21Z</time>
      </trkpt>
      <trkpt lat="45.80857" lon="5.089">
        <ele>222.8</ele>
        <time>2022-09-24T10:49:22Z</time>
      </trkpt>
      <trkpt lat="45.80856" lon="5.08899">
        <ele>222.9</ele>
        <time>2022-09-24T10:49:23Z</time>
      </trkpt>
      <trkpt lat="45.80854" lon="5.08898">
        <ele>223.1</ele>
        <time>2022-09-24T10:49:24Z</time>
      </trkpt>
      <trkpt lat="45.80851" lon="5.08897">
        <ele>223.3</ele>
        <time>2022-09-24T10:49:25Z</time>
      </trkpt>
      <trkpt lat="45.80847" lon="5.08895">
        <ele>223.5</ele>
        <time>2022-09-24T10:49:26Z</time>
      </trkpt>
      <trkpt lat="45.80846" lon="5.08895">
        <ele>223.6</ele>
        <time>2022-09-24T10:49:27Z</time>
      </trkpt>
      <trkpt lat="45.80843" lon="5.08893">
        <ele>223.9</ele>
        <time>2022-09-24T10:49:28Z</time>
      </trkpt>
      <trkpt lat="45.80841" lon="5.08893">
        <ele>224.1</ele>
        <time>2022-09-24T10:49:29Z</time>
      </trkpt>
      <trkpt lat="45.80839" lon="5.08891">
        <ele>224.3</ele>
        <time>2022-09-24T10:49:30Z</time>
      </trkpt>
      <trkpt lat="45.80837" lon="5.08892">
        <ele>224.4</ele>
        <time>2022-09-24T10:49:31Z</time>
      </trkpt>
      <trkpt lat="45.80836" lon="5.08892">
        <ele>224.5</ele>
        <time>2022-09-24T10:49:32Z</time>
      </trkpt>
      <trkpt lat="45.80833" lon="5.0889">
        <ele>224.8</ele>
        <time>2022-09-24T10:49:33Z</time>
      </trkpt>
      <trkpt lat="45.80831" lon="5.08889">
        <ele>224.9</ele>
        <time>2022-09-24T10:49:34Z</time>
      </trkpt>
      <trkpt lat="45.80828" lon="5.08889">
        <ele>225.2</ele>
        <time>2022-09-24T10:49:35Z</time>
      </trkpt>
      <trkpt lat="45.80827" lon="5.08889">
        <ele>225.3</ele>
        <time>2022-09-24T10:49:36Z</time>
      </trkpt>
      <trkpt lat="45.80824" lon="5.08888">
        <ele>225.5</ele>
        <time>2022-09-24T10:49:37Z</time>
      </trkpt>
      <trkpt lat="45.80823" lon="5.08887">
        <ele>225.6</ele>
        <time>2022-09-24T10:49:38Z</time>
      </trkpt>
      <trkpt lat="45.80821" lon="5.08886">
        <ele>225.9</ele>
        <time>2022-09-24T10:49:39Z</time>
      </trkpt>
      <trkpt lat="45.80818" lon="5.08885">
        <ele>226.1</ele>
        <time>2022-09-24T10:49:40Z</time>
      </trkpt>
      <trkpt lat="45.80815" lon="5.08883">
        <ele>226.5</ele>
        <time>2022-09-24T10:49:41Z</time>
      </trkpt>
      <trkpt lat="45.80813" lon="5.08882">
        <ele>226.7</ele>
        <time>2022-09-24T10:49:42Z</time>
      </trkpt>
      <trkpt lat="45.80812" lon="5.08881">
        <ele>226.8</ele>
        <time>2022-09-24T10:49:43Z</time>
      </trkpt>
      <trkpt lat="45.8081" lon="5.08881">
        <ele>227.1</ele>
        <time>2022-09-24T10:49:44Z</time>
      </trkpt>
      <trkpt lat="45.80807" lon="5.08881">
        <ele>227.3</ele>
        <time>2022-09-24T10:49:46Z</time>
      </trkpt>
      <trkpt lat="45.80804" lon="5.08881">
        <ele>227.6</ele>
        <time>2022-09-24T10:49:47Z</time>
      </trkpt>
      <trkpt lat="45.80801" lon="5.08884">
        <ele>228</ele>
        <time>2022-09-24T10:49:48Z</time>
      </trkpt>
      <trkpt lat="45.808" lon="5.08884">
        <ele>228.1</ele>
        <time>2022-09-24T10:49:49Z</time>
      </trkpt>
      <trkpt lat="45.80799" lon="5.08886">
        <ele>228.4</ele>
        <time>2022-09-24T10:49:50Z</time>
      </trkpt>
      <trkpt lat="45.80797" lon="5.08887">
        <ele>228.5</ele>
        <time>2022-09-24T10:49:51Z</time>
      </trkpt>
      <trkpt lat="45.80796" lon="5.08889">
        <ele>228.5</ele>
        <time>2022-09-24T10:49:52Z</time>
      </trkpt>
      <trkpt lat="45.80796" lon="5.08889">
        <ele>228.6</ele>
        <time>2022-09-24T10:49:53Z</time>
      </trkpt>
      <trkpt lat="45.80795" lon="5.0889">
        <ele>228.6</ele>
        <time>2022-09-24T10:49:54Z</time>
      </trkpt>
      <trkpt lat="45.80795" lon="5.0889">
        <ele>228.6</ele>
        <time>2022-09-24T10:49:55Z</time>
      </trkpt>
      <trkpt lat="45.80795" lon="5.0889">
        <ele>228.6</ele>
        <time>2022-09-24T10:49:56Z</time>
      </trkpt>
      <trkpt lat="45.80794" lon="5.08891">
        <ele>228.6</ele>
        <time>2022-09-24T10:49:57Z</time>
      </trkpt>
      <trkpt lat="45.80794" lon="5.08891">
        <ele>228.6</ele>
        <time>2022-09-24T10:49:58Z</time>
      </trkpt>
      <trkpt lat="45.80794" lon="5.08891">
        <ele>228.6</ele>
        <time>2022-09-24T10:49:59Z</time>
      </trkpt>
      <trkpt lat="45.80793" lon="5.08894">
        <ele>228.7</ele>
        <time>2022-09-24T10:50:00Z</time>
      </trkpt>
      <trkpt lat="45.80793" lon="5.08896">
        <ele>228.7</ele>
        <time>2022-09-24T10:50:01Z</time>
      </trkpt>
      <trkpt lat="45.80793" lon="5.08897">
        <ele>228.7</ele>
        <time>2022-09-24T10:50:02Z</time>
      </trkpt>
      <trkpt lat="45.80791" lon="5.08901">
        <ele>228.8</ele>
        <time>2022-09-24T10:50:03Z</time>
      </trkpt>
      <trkpt lat="45.80791" lon="5.08905">
        <ele>228.9</ele>
        <time>2022-09-24T10:50:04Z</time>
      </trkpt>
      <trkpt lat="45.8079" lon="5.08906">
        <ele>228.9</ele>
        <time>2022-09-24T10:50:05Z</time>
      </trkpt>
      <trkpt lat="45.80789" lon="5.08909">
        <ele>229</ele>
        <time>2022-09-24T10:50:06Z</time>
      </trkpt>
      <trkpt lat="45.80789" lon="5.0891">
        <ele>229</ele>
        <time>2022-09-24T10:50:07Z</time>
      </trkpt>
      <trkpt lat="45.80788" lon="5.08912">
        <ele>229.1</ele>
        <time>2022-09-24T10:50:08Z</time>
      </trkpt>
      <trkpt lat="45.80788" lon="5.08916">
        <ele>229.2</ele>
        <time>2022-09-24T10:50:09Z</time>
      </trkpt>
      <trkpt lat="45.80787" lon="5.08921">
        <ele>229.3</ele>
        <time>2022-09-24T10:50:10Z</time>
      </trkpt>
      <trkpt lat="45.80787" lon="5.08922">
        <ele>229.3</ele>
        <time>2022-09-24T10:50:11Z</time>
      </trkpt>
      <trkpt lat="45.80787" lon="5.08926">
        <ele>229.4</ele>
        <time>2022-09-24T10:50:12Z</time>
      </trkpt>
      <trkpt lat="45.80787" lon="5.08927">
        <ele>229.4</ele>
        <time>2022-09-24T10:50:13Z</time>
      </trkpt>
      <trkpt lat="45.80786" lon="5.08931">
        <ele>229.5</ele>
        <time>2022-09-24T10:50:14Z</time>
      </trkpt>
      <trkpt lat="45.80785" lon="5.08933">
        <ele>229.6</ele>
        <time>2022-09-24T10:50:15Z</time>
      </trkpt>
      <trkpt lat="45.80784" lon="5.08937">
        <ele>229.7</ele>
        <time>2022-09-24T10:50:16Z</time>
      </trkpt>
      <trkpt lat="45.80784" lon="5.08939">
        <ele>229.7</ele>
        <time>2022-09-24T10:50:17Z</time>
      </trkpt>
      <trkpt lat="45.80782" lon="5.08943">
        <ele>229.8</ele>
        <time>2022-09-24T10:50:18Z</time>
      </trkpt>
      <trkpt lat="45.80782" lon="5.0895">
        <ele>230</ele>
        <time>2022-09-24T10:50:19Z</time>
      </trkpt>
      <trkpt lat="45.80782" lon="5.08953">
        <ele>230</ele>
        <time>2022-09-24T10:50:20Z</time>
      </trkpt>
      <trkpt lat="45.80781" lon="5.0896">
        <ele>230.2</ele>
        <time>2022-09-24T10:50:21Z</time>
      </trkpt>
      <trkpt lat="45.80781" lon="5.08964">
        <ele>230.3</ele>
        <time>2022-09-24T10:50:22Z</time>
      </trkpt>
      <trkpt lat="45.80781" lon="5.08968">
        <ele>230.4</ele>
        <time>2022-09-24T10:50:23Z</time>
      </trkpt>
      <trkpt lat="45.80779" lon="5.08974">
        <ele>230.5</ele>
        <time>2022-09-24T10:50:24Z</time>
      </trkpt>
      <trkpt lat="45.80779" lon="5.08978">
        <ele>230.6</ele>
        <time>2022-09-24T10:50:25Z</time>
      </trkpt>
      <trkpt lat="45.80778" lon="5.08982">
        <ele>230.7</ele>
        <time>2022-09-24T10:50:26Z</time>
      </trkpt>
      <trkpt lat="45.80776" lon="5.08989">
        <ele>230.8</ele>
        <time>2022-09-24T10:50:27Z</time>
      </trkpt>
      <trkpt lat="45.80775" lon="5.08991">
        <ele>230.9</ele>
        <time>2022-09-24T10:50:28Z</time>
      </trkpt>
      <trkpt lat="45.80773" lon="5.08996">
        <ele>231</ele>
        <time>2022-09-24T10:50:29Z</time>
      </trkpt>
      <trkpt lat="45.80772" lon="5.09001">
        <ele>231.1</ele>
        <time>2022-09-24T10:50:30Z</time>
      </trkpt>
      <trkpt lat="45.80771" lon="5.09005">
        <ele>231.1</ele>
        <time>2022-09-24T10:50:31Z</time>
      </trkpt>
      <trkpt lat="45.8077" lon="5.09011">
        <ele>231.2</ele>
        <time>2022-09-24T10:50:32Z</time>
      </trkpt>
      <trkpt lat="45.80769" lon="5.09016">
        <ele>231.3</ele>
        <time>2022-09-24T10:50:33Z</time>
      </trkpt>
      <trkpt lat="45.80768" lon="5.0902">
        <ele>231.4</ele>
        <time>2022-09-24T10:50:34Z</time>
      </trkpt>
      <trkpt lat="45.80767" lon="5.09026">
        <ele>231.4</ele>
        <time>2022-09-24T10:50:35Z</time>
      </trkpt>
      <trkpt lat="45.80766" lon="5.09031">
        <ele>231.5</ele>
        <time>2022-09-24T10:50:36Z</time>
      </trkpt>
      <trkpt lat="45.80766" lon="5.09036">
        <ele>231.6</ele>
        <time>2022-09-24T10:50:37Z</time>
      </trkpt>
      <trkpt lat="45.80766" lon="5.09041">
        <ele>231.6</ele>
        <time>2022-09-24T10:50:38Z</time>
      </trkpt>
      <trkpt lat="45.80765" lon="5.09047">
        <ele>231.7</ele>
        <time>2022-09-24T10:50:39Z</time>
      </trkpt>
      <trkpt lat="45.80765" lon="5.09051">
        <ele>231.8</ele>
        <time>2022-09-24T10:50:40Z</time>
      </trkpt>
      <trkpt lat="45.80764" lon="5.09056">
        <ele>231.8</ele>
        <time>2022-09-24T10:50:41Z</time>
      </trkpt>
      <trkpt lat="45.80763" lon="5.09061">
        <ele>231.9</ele>
        <time>2022-09-24T10:50:42Z</time>
      </trkpt>
      <trkpt lat="45.80763" lon="5.09067">
        <ele>232</ele>
        <time>2022-09-24T10:50:43Z</time>
      </trkpt>
      <trkpt lat="45.80763" lon="5.09073">
        <ele>232.2</ele>
        <time>2022-09-24T10:50:44Z</time>
      </trkpt>
      <trkpt lat="45.80763" lon="5.09078">
        <ele>232.3</ele>
        <time>2022-09-24T10:50:45Z</time>
      </trkpt>
      <trkpt lat="45.80763" lon="5.09083">
        <ele>232.3</ele>
        <time>2022-09-24T10:50:46Z</time>
      </trkpt>
      <trkpt lat="45.80764" lon="5.09087">
        <ele>232.4</ele>
        <time>2022-09-24T10:50:47Z</time>
      </trkpt>
      <trkpt lat="45.80763" lon="5.09093">
        <ele>232.5</ele>
        <time>2022-09-24T10:50:48Z</time>
      </trkpt>
      <trkpt lat="45.80763" lon="5.09099">
        <ele>232.7</ele>
        <time>2022-09-24T10:50:49Z</time>
      </trkpt>
      <trkpt lat="45.80764" lon="5.09104">
        <ele>232.7</ele>
        <time>2022-09-24T10:50:50Z</time>
      </trkpt>
      <trkpt lat="45.80764" lon="5.09108">
        <ele>232.8</ele>
        <time>2022-09-24T10:50:51Z</time>
      </trkpt>
      <trkpt lat="45.80764" lon="5.09113">
        <ele>232.8</ele>
        <time>2022-09-24T10:50:52Z</time>
      </trkpt>
      <trkpt lat="45.80763" lon="5.09119">
        <ele>232.9</ele>
        <time>2022-09-24T10:50:53Z</time>
      </trkpt>
      <trkpt lat="45.80762" lon="5.09125">
        <ele>233</ele>
        <time>2022-09-24T10:50:54Z</time>
      </trkpt>
      <trkpt lat="45.80761" lon="5.09129">
        <ele>233.1</ele>
        <time>2022-09-24T10:50:55Z</time>
      </trkpt>
      <trkpt lat="45.80761" lon="5.09135">
        <ele>233.2</ele>
        <time>2022-09-24T10:50:56Z</time>
      </trkpt>
      <trkpt lat="45.8076" lon="5.09139">
        <ele>233.2</ele>
        <time>2022-09-24T10:50:57Z</time>
      </trkpt>
      <trkpt lat="45.80759" lon="5.09144">
        <ele>233.3</ele>
        <time>2022-09-24T10:50:58Z</time>
      </trkpt>
      <trkpt lat="45.80758" lon="5.09148">
        <ele>233.3</ele>
        <time>2022-09-24T10:50:59Z</time>
      </trkpt>
      <trkpt lat="45.80756" lon="5.09153">
        <ele>233.4</ele>
        <time>2022-09-24T10:51:00Z</time>
      </trkpt>
      <trkpt lat="45.80756" lon="5.09153">
        <ele>233.4</ele>
        <time>2022-09-24T10:51:01Z</time>
      </trkpt>
      <trkpt lat="45.80754" lon="5.09157">
        <ele>233.5</ele>
        <time>2022-09-24T10:51:02Z</time>
      </trkpt>
      <trkpt lat="45.80754" lon="5.09162">
        <ele>233.5</ele>
        <time>2022-09-24T10:51:03Z</time>
      </trkpt>
      <trkpt lat="45.80753" lon="5.09166">
        <ele>233.6</ele>
        <time>2022-09-24T10:51:04Z</time>
      </trkpt>
      <trkpt lat="45.8075" lon="5.09169">
        <ele>233.7</ele>
        <time>2022-09-24T10:51:05Z</time>
      </trkpt>
      <trkpt lat="45.80749" lon="5.09172">
        <ele>233.7</ele>
        <time>2022-09-24T10:51:06Z</time>
      </trkpt>
      <trkpt lat="45.8075" lon="5.09174">
        <ele>233.8</ele>
        <time>2022-09-24T10:51:07Z</time>
      </trkpt>
      <trkpt lat="45.80748" lon="5.09177">
        <ele>233.8</ele>
        <time>2022-09-24T10:51:08Z</time>
      </trkpt>
      <trkpt lat="45.80746" lon="5.09181">
        <ele>233.9</ele>
        <time>2022-09-24T10:51:09Z</time>
      </trkpt>
      <trkpt lat="45.80744" lon="5.09186">
        <ele>234</ele>
        <time>2022-09-24T10:51:10Z</time>
      </trkpt>
      <trkpt lat="45.80743" lon="5.09188">
        <ele>234</ele>
        <time>2022-09-24T10:51:11Z</time>
      </trkpt>
      <trkpt lat="45.80742" lon="5.09192">
        <ele>234.1</ele>
        <time>2022-09-24T10:51:12Z</time>
      </trkpt>
      <trkpt lat="45.8074" lon="5.09196">
        <ele>234.2</ele>
        <time>2022-09-24T10:51:13Z</time>
      </trkpt>
      <trkpt lat="45.80739" lon="5.09198">
        <ele>234.2</ele>
        <time>2022-09-24T10:51:14Z</time>
      </trkpt>
      <trkpt lat="45.80738" lon="5.09204">
        <ele>234.3</ele>
        <time>2022-09-24T10:51:15Z</time>
      </trkpt>
      <trkpt lat="45.80737" lon="5.09207">
        <ele>234.4</ele>
        <time>2022-09-24T10:51:16Z</time>
      </trkpt>
      <trkpt lat="45.80735" lon="5.09212">
        <ele>234.5</ele>
        <time>2022-09-24T10:51:17Z</time>
      </trkpt>
      <trkpt lat="45.80735" lon="5.09213">
        <ele>234.5</ele>
        <time>2022-09-24T10:51:18Z</time>
      </trkpt>
      <trkpt lat="45.80733" lon="5.09217">
        <ele>234.6</ele>
        <time>2022-09-24T10:51:19Z</time>
      </trkpt>
      <trkpt lat="45.80731" lon="5.09222">
        <ele>234.7</ele>
        <time>2022-09-24T10:51:20Z</time>
      </trkpt>
      <trkpt lat="45.8073" lon="5.09227">
        <ele>234.9</ele>
        <time>2022-09-24T10:51:21Z</time>
      </trkpt>
      <trkpt lat="45.80729" lon="5.09231">
        <ele>234.9</ele>
        <time>2022-09-24T10:51:22Z</time>
      </trkpt>
      <trkpt lat="45.80729" lon="5.09233">
        <ele>235</ele>
        <time>2022-09-24T10:51:23Z</time>
      </trkpt>
      <trkpt lat="45.80727" lon="5.09236">
        <ele>235</ele>
        <time>2022-09-24T10:51:24Z</time>
      </trkpt>
      <trkpt lat="45.80727" lon="5.09237">
        <ele>235.1</ele>
        <time>2022-09-24T10:51:25Z</time>
      </trkpt>
      <trkpt lat="45.80726" lon="5.09242">
        <ele>235.2</ele>
        <time>2022-09-24T10:51:26Z</time>
      </trkpt>
      <trkpt lat="45.80723" lon="5.09247">
        <ele>235.3</ele>
        <time>2022-09-24T10:51:27Z</time>
      </trkpt>
      <trkpt lat="45.8072" lon="5.09254">
        <ele>235.4</ele>
        <time>2022-09-24T10:51:28Z</time>
      </trkpt>
      <trkpt lat="45.80718" lon="5.09259">
        <ele>235.5</ele>
        <time>2022-09-24T10:51:29Z</time>
      </trkpt>
      <trkpt lat="45.80716" lon="5.09263">
        <ele>235.6</ele>
        <time>2022-09-24T10:51:30Z</time>
      </trkpt>
      <trkpt lat="45.80714" lon="5.09268">
        <ele>235.8</ele>
        <time>2022-09-24T10:51:31Z</time>
      </trkpt>
      <trkpt lat="45.80712" lon="5.09272">
        <ele>235.9</ele>
        <time>2022-09-24T10:51:32Z</time>
      </trkpt>
      <trkpt lat="45.8071" lon="5.09277">
        <ele>236</ele>
        <time>2022-09-24T10:51:33Z</time>
      </trkpt>
      <trkpt lat="45.80708" lon="5.09281">
        <ele>236.1</ele>
        <time>2022-09-24T10:51:34Z</time>
      </trkpt>
      <trkpt lat="45.80707" lon="5.09287">
        <ele>236.2</ele>
        <time>2022-09-24T10:51:35Z</time>
      </trkpt>
      <trkpt lat="45.80705" lon="5.09291">
        <ele>236.3</ele>
        <time>2022-09-24T10:51:36Z</time>
      </trkpt>
      <trkpt lat="45.80705" lon="5.09297">
        <ele>236.4</ele>
        <time>2022-09-24T10:51:37Z</time>
      </trkpt>
      <trkpt lat="45.80704" lon="5.09301">
        <ele>236.5</ele>
        <time>2022-09-24T10:51:38Z</time>
      </trkpt>
      <trkpt lat="45.80703" lon="5.09305">
        <ele>236.6</ele>
        <time>2022-09-24T10:51:39Z</time>
      </trkpt>
      <trkpt lat="45.80701" lon="5.09309">
        <ele>236.7</ele>
        <time>2022-09-24T10:51:40Z</time>
      </trkpt>
      <trkpt lat="45.807" lon="5.09313">
        <ele>236.8</ele>
        <time>2022-09-24T10:51:41Z</time>
      </trkpt>
      <trkpt lat="45.80698" lon="5.09317">
        <ele>236.9</ele>
        <time>2022-09-24T10:51:42Z</time>
      </trkpt>
      <trkpt lat="45.80697" lon="5.09322">
        <ele>237</ele>
        <time>2022-09-24T10:51:43Z</time>
      </trkpt>
      <trkpt lat="45.80696" lon="5.09327">
        <ele>237.1</ele>
        <time>2022-09-24T10:51:44Z</time>
      </trkpt>
      <trkpt lat="45.80696" lon="5.09332">
        <ele>237.3</ele>
        <time>2022-09-24T10:51:45Z</time>
      </trkpt>
      <trkpt lat="45.80695" lon="5.09337">
        <ele>237.4</ele>
        <time>2022-09-24T10:51:46Z</time>
      </trkpt>
      <trkpt lat="45.80694" lon="5.09341">
        <ele>237.5</ele>
        <time>2022-09-24T10:51:47Z</time>
      </trkpt>
      <trkpt lat="45.80693" lon="5.09346">
        <ele>237.5</ele>
        <time>2022-09-24T10:51:48Z</time>
      </trkpt>
      <trkpt lat="45.80692" lon="5.0935">
        <ele>237.6</ele>
        <time>2022-09-24T10:51:49Z</time>
      </trkpt>
      <trkpt lat="45.8069" lon="5.09356">
        <ele>237.7</ele>
        <time>2022-09-24T10:51:50Z</time>
      </trkpt>
      <trkpt lat="45.80689" lon="5.09361">
        <ele>237.8</ele>
        <time>2022-09-24T10:51:52Z</time>
      </trkpt>
      <trkpt lat="45.80689" lon="5.09365">
        <ele>237.9</ele>
        <time>2022-09-24T10:51:53Z</time>
      </trkpt>
      <trkpt lat="45.80689" lon="5.0937">
        <ele>237.9</ele>
        <time>2022-09-24T10:51:54Z</time>
      </trkpt>
      <trkpt lat="45.80688" lon="5.09375">
        <ele>238</ele>
        <time>2022-09-24T10:51:55Z</time>
      </trkpt>
      <trkpt lat="45.80687" lon="5.09379">
        <ele>238.1</ele>
        <time>2022-09-24T10:51:56Z</time>
      </trkpt>
      <trkpt lat="45.80685" lon="5.09385">
        <ele>238.1</ele>
        <time>2022-09-24T10:51:57Z</time>
      </trkpt>
      <trkpt lat="45.80685" lon="5.09389">
        <ele>238.2</ele>
        <time>2022-09-24T10:51:58Z</time>
      </trkpt>
      <trkpt lat="45.80683" lon="5.09394">
        <ele>238.2</ele>
        <time>2022-09-24T10:51:59Z</time>
      </trkpt>
      <trkpt lat="45.80681" lon="5.09398">
        <ele>238.2</ele>
        <time>2022-09-24T10:52:00Z</time>
      </trkpt>
      <trkpt lat="45.8068" lon="5.09404">
        <ele>238.3</ele>
        <time>2022-09-24T10:52:01Z</time>
      </trkpt>
      <trkpt lat="45.80681" lon="5.09409">
        <ele>238.3</ele>
        <time>2022-09-24T10:52:02Z</time>
      </trkpt>
      <trkpt lat="45.8068" lon="5.09414">
        <ele>238.4</ele>
        <time>2022-09-24T10:52:03Z</time>
      </trkpt>
      <trkpt lat="45.80679" lon="5.09416">
        <ele>238.4</ele>
        <time>2022-09-24T10:52:04Z</time>
      </trkpt>
      <trkpt lat="45.80677" lon="5.09422">
        <ele>238.4</ele>
        <time>2022-09-24T10:52:05Z</time>
      </trkpt>
      <trkpt lat="45.80677" lon="5.09427">
        <ele>238.5</ele>
        <time>2022-09-24T10:52:06Z</time>
      </trkpt>
      <trkpt lat="45.80676" lon="5.09434">
        <ele>238.5</ele>
        <time>2022-09-24T10:52:07Z</time>
      </trkpt>
      <trkpt lat="45.80675" lon="5.09441">
        <ele>238.5</ele>
        <time>2022-09-24T10:52:08Z</time>
      </trkpt>
      <trkpt lat="45.80676" lon="5.09447">
        <ele>238.6</ele>
        <time>2022-09-24T10:52:09Z</time>
      </trkpt>
      <trkpt lat="45.80675" lon="5.09449">
        <ele>238.6</ele>
        <time>2022-09-24T10:52:10Z</time>
      </trkpt>
      <trkpt lat="45.80677" lon="5.09456">
        <ele>238.6</ele>
        <time>2022-09-24T10:52:11Z</time>
      </trkpt>
      <trkpt lat="45.80678" lon="5.0946">
        <ele>238.6</ele>
        <time>2022-09-24T10:52:12Z</time>
      </trkpt>
      <trkpt lat="45.8068" lon="5.09465">
        <ele>238.7</ele>
        <time>2022-09-24T10:52:13Z</time>
      </trkpt>
      <trkpt lat="45.8068" lon="5.09467">
        <ele>238.7</ele>
        <time>2022-09-24T10:52:14Z</time>
      </trkpt>
      <trkpt lat="45.80681" lon="5.09471">
        <ele>238.7</ele>
        <time>2022-09-24T10:52:15Z</time>
      </trkpt>
      <trkpt lat="45.80681" lon="5.09477">
        <ele>238.6</ele>
        <time>2022-09-24T10:52:16Z</time>
      </trkpt>
      <trkpt lat="45.80681" lon="5.09479">
        <ele>238.6</ele>
        <time>2022-09-24T10:52:17Z</time>
      </trkpt>
      <trkpt lat="45.80678" lon="5.09488">
        <ele>238.5</ele>
        <time>2022-09-24T10:52:18Z</time>
      </trkpt>
      <trkpt lat="45.80676" lon="5.09492">
        <ele>238.4</ele>
        <time>2022-09-24T10:52:19Z</time>
      </trkpt>
      <trkpt lat="45.80675" lon="5.09497">
        <ele>238.4</ele>
        <time>2022-09-24T10:52:20Z</time>
      </trkpt>
      <trkpt lat="45.80674" lon="5.09498">
        <ele>238.4</ele>
        <time>2022-09-24T10:52:21Z</time>
      </trkpt>
      <trkpt lat="45.80672" lon="5.09504">
        <ele>238.3</ele>
        <time>2022-09-24T10:52:22Z</time>
      </trkpt>
      <trkpt lat="45.8067" lon="5.09508">
        <ele>238.3</ele>
        <time>2022-09-24T10:52:23Z</time>
      </trkpt>
      <trkpt lat="45.80667" lon="5.09514">
        <ele>238.2</ele>
        <time>2022-09-24T10:52:24Z</time>
      </trkpt>
      <trkpt lat="45.80665" lon="5.0952">
        <ele>238.2</ele>
        <time>2022-09-24T10:52:25Z</time>
      </trkpt>
      <trkpt lat="45.80661" lon="5.09525">
        <ele>238.1</ele>
        <time>2022-09-24T10:52:26Z</time>
      </trkpt>
      <trkpt lat="45.80658" lon="5.0953">
        <ele>238.1</ele>
        <time>2022-09-24T10:52:27Z</time>
      </trkpt>
      <trkpt lat="45.80654" lon="5.09533">
        <ele>238</ele>
        <time>2022-09-24T10:52:28Z</time>
      </trkpt>
      <trkpt lat="45.80649" lon="5.09538">
        <ele>237.9</ele>
        <time>2022-09-24T10:52:29Z</time>
      </trkpt>
      <trkpt lat="45.80646" lon="5.09541">
        <ele>237.9</ele>
        <time>2022-09-24T10:52:30Z</time>
      </trkpt>
      <trkpt lat="45.80644" lon="5.09546">
        <ele>237.8</ele>
        <time>2022-09-24T10:52:31Z</time>
      </trkpt>
      <trkpt lat="45.8064" lon="5.09552">
        <ele>237.8</ele>
        <time>2022-09-24T10:52:32Z</time>
      </trkpt>
      <trkpt lat="45.80637" lon="5.09558">
        <ele>237.7</ele>
        <time>2022-09-24T10:52:33Z</time>
      </trkpt>
      <trkpt lat="45.80633" lon="5.09562">
        <ele>237.7</ele>
        <time>2022-09-24T10:52:34Z</time>
      </trkpt>
      <trkpt lat="45.80631" lon="5.09568">
        <ele>237.6</ele>
        <time>2022-09-24T10:52:35Z</time>
      </trkpt>
      <trkpt lat="45.80628" lon="5.09573">
        <ele>237.5</ele>
        <time>2022-09-24T10:52:36Z</time>
      </trkpt>
      <trkpt lat="45.80625" lon="5.09578">
        <ele>237.5</ele>
        <time>2022-09-24T10:52:37Z</time>
      </trkpt>
      <trkpt lat="45.80622" lon="5.09584">
        <ele>237.4</ele>
        <time>2022-09-24T10:52:38Z</time>
      </trkpt>
      <trkpt lat="45.8062" lon="5.09588">
        <ele>237.3</ele>
        <time>2022-09-24T10:52:39Z</time>
      </trkpt>
      <trkpt lat="45.80617" lon="5.09595">
        <ele>237.3</ele>
        <time>2022-09-24T10:52:40Z</time>
      </trkpt>
      <trkpt lat="45.80613" lon="5.09601">
        <ele>237.2</ele>
        <time>2022-09-24T10:52:41Z</time>
      </trkpt>
      <trkpt lat="45.8061" lon="5.09607">
        <ele>237.2</ele>
        <time>2022-09-24T10:52:42Z</time>
      </trkpt>
      <trkpt lat="45.80607" lon="5.09611">
        <ele>237.1</ele>
        <time>2022-09-24T10:52:43Z</time>
      </trkpt>
      <trkpt lat="45.80604" lon="5.09616">
        <ele>237</ele>
        <time>2022-09-24T10:52:44Z</time>
      </trkpt>
      <trkpt lat="45.806" lon="5.0962">
        <ele>236.9</ele>
        <time>2022-09-24T10:52:45Z</time>
      </trkpt>
      <trkpt lat="45.80596" lon="5.09625">
        <ele>236.9</ele>
        <time>2022-09-24T10:52:46Z</time>
      </trkpt>
      <trkpt lat="45.80595" lon="5.0963">
        <ele>236.8</ele>
        <time>2022-09-24T10:52:47Z</time>
      </trkpt>
      <trkpt lat="45.80591" lon="5.09635">
        <ele>236.8</ele>
        <time>2022-09-24T10:52:48Z</time>
      </trkpt>
      <trkpt lat="45.80588" lon="5.09639">
        <ele>236.7</ele>
        <time>2022-09-24T10:52:49Z</time>
      </trkpt>
      <trkpt lat="45.80586" lon="5.09643">
        <ele>236.7</ele>
        <time>2022-09-24T10:52:50Z</time>
      </trkpt>
      <trkpt lat="45.80584" lon="5.09647">
        <ele>236.6</ele>
        <time>2022-09-24T10:52:51Z</time>
      </trkpt>
      <trkpt lat="45.80578" lon="5.09654">
        <ele>236.5</ele>
        <time>2022-09-24T10:52:52Z</time>
      </trkpt>
      <trkpt lat="45.80574" lon="5.0966">
        <ele>236.5</ele>
        <time>2022-09-24T10:52:53Z</time>
      </trkpt>
      <trkpt lat="45.80569" lon="5.09666">
        <ele>236.4</ele>
        <time>2022-09-24T10:52:54Z</time>
      </trkpt>
      <trkpt lat="45.80565" lon="5.09671">
        <ele>236.4</ele>
        <time>2022-09-24T10:52:55Z</time>
      </trkpt>
      <trkpt lat="45.80561" lon="5.09676">
        <ele>236.3</ele>
        <time>2022-09-24T10:52:56Z</time>
      </trkpt>
      <trkpt lat="45.80556" lon="5.09681">
        <ele>236.3</ele>
        <time>2022-09-24T10:52:57Z</time>
      </trkpt>
      <trkpt lat="45.80551" lon="5.09685">
        <ele>236.3</ele>
        <time>2022-09-24T10:52:58Z</time>
      </trkpt>
      <trkpt lat="45.80546" lon="5.09689">
        <ele>236.3</ele>
        <time>2022-09-24T10:52:59Z</time>
      </trkpt>
      <trkpt lat="45.80541" lon="5.09693">
        <ele>236.3</ele>
        <time>2022-09-24T10:53:00Z</time>
      </trkpt>
      <trkpt lat="45.80536" lon="5.09698">
        <ele>236.3</ele>
        <time>2022-09-24T10:53:01Z</time>
      </trkpt>
      <trkpt lat="45.80532" lon="5.09703">
        <ele>236.3</ele>
        <time>2022-09-24T10:53:02Z</time>
      </trkpt>
      <trkpt lat="45.80528" lon="5.09707">
        <ele>236.3</ele>
        <time>2022-09-24T10:53:03Z</time>
      </trkpt>
      <trkpt lat="45.80524" lon="5.0971">
        <ele>236.4</ele>
        <time>2022-09-24T10:53:04Z</time>
      </trkpt>
      <trkpt lat="45.80521" lon="5.09714">
        <ele>236.4</ele>
        <time>2022-09-24T10:53:05Z</time>
      </trkpt>
      <trkpt lat="45.80517" lon="5.09718">
        <ele>236.4</ele>
        <time>2022-09-24T10:53:06Z</time>
      </trkpt>
      <trkpt lat="45.80513" lon="5.09722">
        <ele>236.5</ele>
        <time>2022-09-24T10:53:07Z</time>
      </trkpt>
      <trkpt lat="45.8051" lon="5.09727">
        <ele>236.5</ele>
        <time>2022-09-24T10:53:08Z</time>
      </trkpt>
      <trkpt lat="45.80507" lon="5.09732">
        <ele>236.5</ele>
        <time>2022-09-24T10:53:09Z</time>
      </trkpt>
      <trkpt lat="45.80504" lon="5.09735">
        <ele>236.6</ele>
        <time>2022-09-24T10:53:10Z</time>
      </trkpt>
      <trkpt lat="45.80501" lon="5.09738">
        <ele>236.6</ele>
        <time>2022-09-24T10:53:11Z</time>
      </trkpt>
      <trkpt lat="45.80499" lon="5.09743">
        <ele>236.6</ele>
        <time>2022-09-24T10:53:12Z</time>
      </trkpt>
      <trkpt lat="45.80497" lon="5.09746">
        <ele>236.7</ele>
        <time>2022-09-24T10:53:13Z</time>
      </trkpt>
      <trkpt lat="45.80496" lon="5.09751">
        <ele>236.7</ele>
        <time>2022-09-24T10:53:14Z</time>
      </trkpt>
      <trkpt lat="45.80495" lon="5.09752">
        <ele>236.7</ele>
        <time>2022-09-24T10:53:15Z</time>
      </trkpt>
      <trkpt lat="45.80494" lon="5.09757">
        <ele>236.8</ele>
        <time>2022-09-24T10:53:16Z</time>
      </trkpt>
      <trkpt lat="45.80493" lon="5.09758">
        <ele>236.8</ele>
        <time>2022-09-24T10:53:17Z</time>
      </trkpt>
      <trkpt lat="45.80493" lon="5.09757">
        <ele>236.8</ele>
        <time>2022-09-24T10:53:18Z</time>
      </trkpt>
      <trkpt lat="45.80493" lon="5.09755">
        <ele>236.8</ele>
        <time>2022-09-24T10:53:19Z</time>
      </trkpt>
      <trkpt lat="45.80492" lon="5.09754">
        <ele>236.8</ele>
        <time>2022-09-24T10:53:20Z</time>
      </trkpt>
      <trkpt lat="45.80492" lon="5.09753">
        <ele>236.8</ele>
        <time>2022-09-24T10:53:21Z</time>
      </trkpt>
      <trkpt lat="45.80491" lon="5.09751">
        <ele>236.8</ele>
        <time>2022-09-24T10:53:22Z</time>
      </trkpt>
      <trkpt lat="45.80491" lon="5.0975">
        <ele>236.8</ele>
        <time>2022-09-24T10:53:23Z</time>
      </trkpt>
      <trkpt lat="45.8049" lon="5.09749">
        <ele>236.8</ele>
        <time>2022-09-24T10:53:24Z</time>
      </trkpt>
      <trkpt lat="45.8049" lon="5.09747">
        <ele>236.8</ele>
        <time>2022-09-24T10:53:25Z</time>
      </trkpt>
      <trkpt lat="45.80489" lon="5.09746">
        <ele>236.8</ele>
        <time>2022-09-24T10:53:26Z</time>
      </trkpt>
      <trkpt lat="45.80489" lon="5.09745">
        <ele>236.7</ele>
        <time>2022-09-24T10:53:27Z</time>
      </trkpt>
      <trkpt lat="45.80489" lon="5.09744">
        <ele>236.7</ele>
        <time>2022-09-24T10:53:28Z</time>
      </trkpt>
      <trkpt lat="45.80488" lon="5.09742">
        <ele>236.7</ele>
        <time>2022-09-24T10:55:33Z</time>
      </trkpt>
      <trkpt lat="45.80488" lon="5.09741">
        <ele>236.7</ele>
        <time>2022-09-24T10:55:34Z</time>
      </trkpt>
      <trkpt lat="45.80486" lon="5.09738">
        <ele>236.6</ele>
        <time>2022-09-24T10:55:35Z</time>
      </trkpt>
      <trkpt lat="45.80483" lon="5.09734">
        <ele>236.6</ele>
        <time>2022-09-24T10:55:36Z</time>
      </trkpt>
      <trkpt lat="45.80482" lon="5.09733">
        <ele>236.5</ele>
        <time>2022-09-24T10:55:37Z</time>
      </trkpt>
      <trkpt lat="45.80478" lon="5.0973">
        <ele>236.4</ele>
        <time>2022-09-24T10:55:38Z</time>
      </trkpt>
      <trkpt lat="45.80477" lon="5.09728">
        <ele>236.4</ele>
        <time>2022-09-24T10:55:39Z</time>
      </trkpt>
      <trkpt lat="45.80474" lon="5.09724">
        <ele>236.3</ele>
        <time>2022-09-24T10:55:40Z</time>
      </trkpt>
      <trkpt lat="45.80471" lon="5.09722">
        <ele>236.2</ele>
        <time>2022-09-24T10:55:41Z</time>
      </trkpt>
      <trkpt lat="45.80469" lon="5.09719">
        <ele>236.1</ele>
        <time>2022-09-24T10:55:42Z</time>
      </trkpt>
      <trkpt lat="45.80465" lon="5.09715">
        <ele>235.9</ele>
        <time>2022-09-24T10:55:43Z</time>
      </trkpt>
      <trkpt lat="45.80462" lon="5.09711">
        <ele>235.8</ele>
        <time>2022-09-24T10:55:44Z</time>
      </trkpt>
      <trkpt lat="45.80459" lon="5.09708">
        <ele>235.7</ele>
        <time>2022-09-24T10:55:45Z</time>
      </trkpt>
      <trkpt lat="45.80455" lon="5.09704">
        <ele>235.5</ele>
        <time>2022-09-24T10:55:46Z</time>
      </trkpt>
      <trkpt lat="45.80451" lon="5.09701">
        <ele>235.3</ele>
        <time>2022-09-24T10:55:47Z</time>
      </trkpt>
      <trkpt lat="45.80447" lon="5.09698">
        <ele>235.1</ele>
        <time>2022-09-24T10:55:48Z</time>
      </trkpt>
      <trkpt lat="45.80442" lon="5.09694">
        <ele>234.8</ele>
        <time>2022-09-24T10:55:49Z</time>
      </trkpt>
      <trkpt lat="45.80438" lon="5.09689">
        <ele>234.5</ele>
        <time>2022-09-24T10:55:50Z</time>
      </trkpt>
      <trkpt lat="45.80434" lon="5.09685">
        <ele>234.2</ele>
        <time>2022-09-24T10:55:51Z</time>
      </trkpt>
      <trkpt lat="45.80429" lon="5.09681">
        <ele>233.9</ele>
        <time>2022-09-24T10:55:52Z</time>
      </trkpt>
      <trkpt lat="45.80424" lon="5.09677">
        <ele>233.5</ele>
        <time>2022-09-24T10:55:53Z</time>
      </trkpt>
      <trkpt lat="45.80419" lon="5.09672">
        <ele>233</ele>
        <time>2022-09-24T10:55:54Z</time>
      </trkpt>
      <trkpt lat="45.80414" lon="5.09667">
        <ele>232.5</ele>
        <time>2022-09-24T10:55:55Z</time>
      </trkpt>
      <trkpt lat="45.80408" lon="5.09662">
        <ele>231.8</ele>
        <time>2022-09-24T10:55:56Z</time>
      </trkpt>
      <trkpt lat="45.80402" lon="5.09657">
        <ele>231.1</ele>
        <time>2022-09-24T10:55:57Z</time>
      </trkpt>
      <trkpt lat="45.80397" lon="5.09652">
        <ele>230.3</ele>
        <time>2022-09-24T10:55:58Z</time>
      </trkpt>
      <trkpt lat="45.8039" lon="5.09647">
        <ele>229.6</ele>
        <time>2022-09-24T10:55:59Z</time>
      </trkpt>
      <trkpt lat="45.80384" lon="5.09641">
        <ele>228.8</ele>
        <time>2022-09-24T10:56:00Z</time>
      </trkpt>
      <trkpt lat="45.80377" lon="5.09635">
        <ele>227.9</ele>
        <time>2022-09-24T10:56:01Z</time>
      </trkpt>
      <trkpt lat="45.80371" lon="5.09629">
        <ele>227.1</ele>
        <time>2022-09-24T10:56:02Z</time>
      </trkpt>
      <trkpt lat="45.80364" lon="5.09623">
        <ele>226.4</ele>
        <time>2022-09-24T10:56:04Z</time>
      </trkpt>
      <trkpt lat="45.80357" lon="5.09618">
        <ele>225.7</ele>
        <time>2022-09-24T10:56:05Z</time>
      </trkpt>
      <trkpt lat="45.8035" lon="5.09612">
        <ele>225</ele>
        <time>2022-09-24T10:56:06Z</time>
      </trkpt>
      <trkpt lat="45.80343" lon="5.09607">
        <ele>224.4</ele>
        <time>2022-09-24T10:56:07Z</time>
      </trkpt>
      <trkpt lat="45.80336" lon="5.09601">
        <ele>223.9</ele>
        <time>2022-09-24T10:56:08Z</time>
      </trkpt>
      <trkpt lat="45.80328" lon="5.09596">
        <ele>223.5</ele>
        <time>2022-09-24T10:56:09Z</time>
      </trkpt>
      <trkpt lat="45.8032" lon="5.0959">
        <ele>223.1</ele>
        <time>2022-09-24T10:56:10Z</time>
      </trkpt>
      <trkpt lat="45.80313" lon="5.09583">
        <ele>222.8</ele>
        <time>2022-09-24T10:56:11Z</time>
      </trkpt>
      <trkpt lat="45.80307" lon="5.09577">
        <ele>222.6</ele>
        <time>2022-09-24T10:56:12Z</time>
      </trkpt>
      <trkpt lat="45.803" lon="5.09571">
        <ele>222.5</ele>
        <time>2022-09-24T10:56:13Z</time>
      </trkpt>
      <trkpt lat="45.80293" lon="5.09566">
        <ele>222.4</ele>
        <time>2022-09-24T10:56:14Z</time>
      </trkpt>
      <trkpt lat="45.80286" lon="5.09559">
        <ele>222.3</ele>
        <time>2022-09-24T10:56:15Z</time>
      </trkpt>
      <trkpt lat="45.8028" lon="5.09554">
        <ele>222.2</ele>
        <time>2022-09-24T10:56:16Z</time>
      </trkpt>
      <trkpt lat="45.80274" lon="5.09549">
        <ele>222.2</ele>
        <time>2022-09-24T10:56:17Z</time>
      </trkpt>
      <trkpt lat="45.80268" lon="5.09545">
        <ele>222.2</ele>
        <time>2022-09-24T10:56:18Z</time>
      </trkpt>
      <trkpt lat="45.80263" lon="5.09544">
        <ele>222.2</ele>
        <time>2022-09-24T10:56:19Z</time>
      </trkpt>
      <trkpt lat="45.80258" lon="5.09545">
        <ele>222.2</ele>
        <time>2022-09-24T10:56:20Z</time>
      </trkpt>
      <trkpt lat="45.80254" lon="5.09547">
        <ele>222.2</ele>
        <time>2022-09-24T10:56:21Z</time>
      </trkpt>
      <trkpt lat="45.8025" lon="5.09551">
        <ele>222.2</ele>
        <time>2022-09-24T10:56:22Z</time>
      </trkpt>
      <trkpt lat="45.80248" lon="5.09556">
        <ele>222.2</ele>
        <time>2022-09-24T10:56:23Z</time>
      </trkpt>
      <trkpt lat="45.80245" lon="5.09561">
        <ele>222.2</ele>
        <time>2022-09-24T10:56:24Z</time>
      </trkpt>
      <trkpt lat="45.80243" lon="5.09567">
        <ele>222.3</ele>
        <time>2022-09-24T10:56:25Z</time>
      </trkpt>
      <trkpt lat="45.8024" lon="5.09572">
        <ele>222.3</ele>
        <time>2022-09-24T10:56:26Z</time>
      </trkpt>
      <trkpt lat="45.80238" lon="5.09577">
        <ele>222.3</ele>
        <time>2022-09-24T10:56:27Z</time>
      </trkpt>
      <trkpt lat="45.80236" lon="5.09583">
        <ele>222.4</ele>
        <time>2022-09-24T10:56:28Z</time>
      </trkpt>
      <trkpt lat="45.80234" lon="5.09587">
        <ele>222.4</ele>
        <time>2022-09-24T10:56:29Z</time>
      </trkpt>
      <trkpt lat="45.8023" lon="5.0959">
        <ele>222.4</ele>
        <time>2022-09-24T10:56:30Z</time>
      </trkpt>
      <trkpt lat="45.80227" lon="5.09594">
        <ele>222.4</ele>
        <time>2022-09-24T10:56:31Z</time>
      </trkpt>
      <trkpt lat="45.80225" lon="5.09598">
        <ele>222.5</ele>
        <time>2022-09-24T10:56:32Z</time>
      </trkpt>
      <trkpt lat="45.80223" lon="5.09602">
        <ele>222.5</ele>
        <time>2022-09-24T10:56:33Z</time>
      </trkpt>
      <trkpt lat="45.80221" lon="5.09606">
        <ele>222.5</ele>
        <time>2022-09-24T10:56:34Z</time>
      </trkpt>
      <trkpt lat="45.80219" lon="5.09611">
        <ele>222.4</ele>
        <time>2022-09-24T10:56:35Z</time>
      </trkpt>
      <trkpt lat="45.80216" lon="5.09615">
        <ele>222.4</ele>
        <time>2022-09-24T10:56:36Z</time>
      </trkpt>
      <trkpt lat="45.80214" lon="5.09619">
        <ele>222.4</ele>
        <time>2022-09-24T10:56:37Z</time>
      </trkpt>
      <trkpt lat="45.80212" lon="5.09624">
        <ele>222.3</ele>
        <time>2022-09-24T10:56:38Z</time>
      </trkpt>
      <trkpt lat="45.80209" lon="5.09629">
        <ele>222.2</ele>
        <time>2022-09-24T10:56:39Z</time>
      </trkpt>
      <trkpt lat="45.80206" lon="5.09634">
        <ele>222.1</ele>
        <time>2022-09-24T10:56:40Z</time>
      </trkpt>
      <trkpt lat="45.80203" lon="5.09639">
        <ele>222</ele>
        <time>2022-09-24T10:56:41Z</time>
      </trkpt>
      <trkpt lat="45.802" lon="5.09643">
        <ele>221.9</ele>
        <time>2022-09-24T10:56:42Z</time>
      </trkpt>
      <trkpt lat="45.80197" lon="5.09648">
        <ele>221.7</ele>
        <time>2022-09-24T10:56:43Z</time>
      </trkpt>
      <trkpt lat="45.80193" lon="5.09652">
        <ele>221.5</ele>
        <time>2022-09-24T10:56:44Z</time>
      </trkpt>
      <trkpt lat="45.80189" lon="5.09658">
        <ele>221.3</ele>
        <time>2022-09-24T10:56:45Z</time>
      </trkpt>
      <trkpt lat="45.80185" lon="5.09663">
        <ele>221.1</ele>
        <time>2022-09-24T10:56:46Z</time>
      </trkpt>
      <trkpt lat="45.80181" lon="5.09668">
        <ele>220.8</ele>
        <time>2022-09-24T10:56:47Z</time>
      </trkpt>
      <trkpt lat="45.80176" lon="5.09672">
        <ele>220.6</ele>
        <time>2022-09-24T10:56:48Z</time>
      </trkpt>
      <trkpt lat="45.80171" lon="5.09677">
        <ele>220.3</ele>
        <time>2022-09-24T10:56:49Z</time>
      </trkpt>
      <trkpt lat="45.80166" lon="5.0968">
        <ele>220.1</ele>
        <time>2022-09-24T10:56:50Z</time>
      </trkpt>
      <trkpt lat="45.80151" lon="5.0968">
        <ele>219.4</ele>
        <time>2022-09-24T10:56:51Z</time>
      </trkpt>
      <trkpt lat="45.80144" lon="5.09679">
        <ele>219</ele>
        <time>2022-09-24T10:56:52Z</time>
      </trkpt>
      <trkpt lat="45.80136" lon="5.09679">
        <ele>218.7</ele>
        <time>2022-09-24T10:56:53Z</time>
      </trkpt>
      <trkpt lat="45.80129" lon="5.09678">
        <ele>218.4</ele>
        <time>2022-09-24T10:56:54Z</time>
      </trkpt>
      <trkpt lat="45.80121" lon="5.09678">
        <ele>218.1</ele>
        <time>2022-09-24T10:56:55Z</time>
      </trkpt>
      <trkpt lat="45.80114" lon="5.09677">
        <ele>217.7</ele>
        <time>2022-09-24T10:56:56Z</time>
      </trkpt>
      <trkpt lat="45.80106" lon="5.09677">
        <ele>217.4</ele>
        <time>2022-09-24T10:56:57Z</time>
      </trkpt>
      <trkpt lat="45.80099" lon="5.09678">
        <ele>217.1</ele>
        <time>2022-09-24T10:56:58Z</time>
      </trkpt>
      <trkpt lat="45.80092" lon="5.09678">
        <ele>216.8</ele>
        <time>2022-09-24T10:56:59Z</time>
      </trkpt>
      <trkpt lat="45.80085" lon="5.09678">
        <ele>216.5</ele>
        <time>2022-09-24T10:57:00Z</time>
      </trkpt>
      <trkpt lat="45.80077" lon="5.09679">
        <ele>216.1</ele>
        <time>2022-09-24T10:57:01Z</time>
      </trkpt>
      <trkpt lat="45.8007" lon="5.09679">
        <ele>215.8</ele>
        <time>2022-09-24T10:57:02Z</time>
      </trkpt>
      <trkpt lat="45.80062" lon="5.09679">
        <ele>215.4</ele>
        <time>2022-09-24T10:57:03Z</time>
      </trkpt>
      <trkpt lat="45.80055" lon="5.0968">
        <ele>215.1</ele>
        <time>2022-09-24T10:57:04Z</time>
      </trkpt>
      <trkpt lat="45.80047" lon="5.0968">
        <ele>214.7</ele>
        <time>2022-09-24T10:57:05Z</time>
      </trkpt>
      <trkpt lat="45.8004" lon="5.0968">
        <ele>214.4</ele>
        <time>2022-09-24T10:57:06Z</time>
      </trkpt>
      <trkpt lat="45.80033" lon="5.0968">
        <ele>214</ele>
        <time>2022-09-24T10:57:07Z</time>
      </trkpt>
      <trkpt lat="45.80025" lon="5.0968">
        <ele>213.6</ele>
        <time>2022-09-24T10:57:08Z</time>
      </trkpt>
      <trkpt lat="45.80017" lon="5.0968">
        <ele>213.3</ele>
        <time>2022-09-24T10:57:09Z</time>
      </trkpt>
      <trkpt lat="45.80009" lon="5.09679">
        <ele>212.9</ele>
        <time>2022-09-24T10:57:10Z</time>
      </trkpt>
      <trkpt lat="45.80001" lon="5.09678">
        <ele>212.5</ele>
        <time>2022-09-24T10:57:11Z</time>
      </trkpt>
      <trkpt lat="45.79994" lon="5.09676">
        <ele>212.1</ele>
        <time>2022-09-24T10:57:12Z</time>
      </trkpt>
      <trkpt lat="45.79986" lon="5.09675">
        <ele>211.8</ele>
        <time>2022-09-24T10:57:13Z</time>
      </trkpt>
      <trkpt lat="45.79978" lon="5.09673">
        <ele>211.4</ele>
        <time>2022-09-24T10:57:14Z</time>
      </trkpt>
      <trkpt lat="45.79971" lon="5.09671">
        <ele>211</ele>
        <time>2022-09-24T10:57:15Z</time>
      </trkpt>
      <trkpt lat="45.79964" lon="5.09669">
        <ele>210.7</ele>
        <time>2022-09-24T10:57:16Z</time>
      </trkpt>
      <trkpt lat="45.79957" lon="5.09668">
        <ele>210.4</ele>
        <time>2022-09-24T10:57:17Z</time>
      </trkpt>
      <trkpt lat="45.79951" lon="5.09666">
        <ele>210.2</ele>
        <time>2022-09-24T10:57:18Z</time>
      </trkpt>
      <trkpt lat="45.79945" lon="5.09665">
        <ele>209.9</ele>
        <time>2022-09-24T10:57:19Z</time>
      </trkpt>
      <trkpt lat="45.7994" lon="5.09664">
        <ele>209.7</ele>
        <time>2022-09-24T10:57:20Z</time>
      </trkpt>
      <trkpt lat="45.79935" lon="5.09663">
        <ele>209.5</ele>
        <time>2022-09-24T10:57:21Z</time>
      </trkpt>
      <trkpt lat="45.79932" lon="5.09661">
        <ele>209.3</ele>
        <time>2022-09-24T10:57:22Z</time>
      </trkpt>
      <trkpt lat="45.79929" lon="5.0966">
        <ele>209.2</ele>
        <time>2022-09-24T10:57:23Z</time>
      </trkpt>
      <trkpt lat="45.79927" lon="5.09659">
        <ele>209.1</ele>
        <time>2022-09-24T10:57:24Z</time>
      </trkpt>
      <trkpt lat="45.79927" lon="5.09659">
        <ele>209</ele>
        <time>2022-09-24T10:57:25Z</time>
      </trkpt>
      <trkpt lat="45.79927" lon="5.09659">
        <ele>209</ele>
        <time>2022-09-24T10:57:26Z</time>
      </trkpt>
      <trkpt lat="45.79927" lon="5.09659">
        <ele>209</ele>
        <time>2022-09-24T10:57:27Z</time>
      </trkpt>
      <trkpt lat="45.79926" lon="5.09659">
        <ele>209</ele>
        <time>2022-09-24T10:57:28Z</time>
      </trkpt>
      <trkpt lat="45.79926" lon="5.09659">
        <ele>209</ele>
        <time>2022-09-24T10:57:29Z</time>
      </trkpt>
      <trkpt lat="45.79926" lon="5.09659">
        <ele>209</ele>
        <time>2022-09-24T10:57:30Z</time>
      </trkpt>
      <trkpt lat="45.79926" lon="5.09659">
        <ele>209</ele>
        <time>2022-09-24T10:57:31Z</time>
      </trkpt>
      <trkpt lat="45.79926" lon="5.09658">
        <ele>209</ele>
        <time>2022-09-24T10:57:32Z</time>
      </trkpt>
      <trkpt lat="45.79926" lon="5.09658">
        <ele>209</ele>
        <time>2022-09-24T10:57:33Z</time>
      </trkpt>
      <trkpt lat="45.79926" lon="5.09658">
        <ele>208.9</ele>
        <time>2022-09-24T10:57:34Z</time>
      </trkpt>
      <trkpt lat="45.79917" lon="5.09661">
        <ele>208.1</ele>
        <time>2022-09-24T10:57:58Z</time>
      </trkpt>
      <trkpt lat="45.79915" lon="5.09664">
        <ele>208</ele>
        <time>2022-09-24T10:57:59Z</time>
      </trkpt>
      <trkpt lat="45.79913" lon="5.09669">
        <ele>207.9</ele>
        <time>2022-09-24T10:58:00Z</time>
      </trkpt>
      <trkpt lat="45.79911" lon="5.09675">
        <ele>207.7</ele>
        <time>2022-09-24T10:58:01Z</time>
      </trkpt>
      <trkpt lat="45.7991" lon="5.0968">
        <ele>207.5</ele>
        <time>2022-09-24T10:58:02Z</time>
      </trkpt>
      <trkpt lat="45.79907" lon="5.09686">
        <ele>207.3</ele>
        <time>2022-09-24T10:58:03Z</time>
      </trkpt>
      <trkpt lat="45.79906" lon="5.09691">
        <ele>207.2</ele>
        <time>2022-09-24T10:58:04Z</time>
      </trkpt>
      <trkpt lat="45.79903" lon="5.09698">
        <ele>207</ele>
        <time>2022-09-24T10:58:05Z</time>
      </trkpt>
      <trkpt lat="45.79901" lon="5.09705">
        <ele>206.8</ele>
        <time>2022-09-24T10:58:06Z</time>
      </trkpt>
      <trkpt lat="45.79898" lon="5.09713">
        <ele>206.6</ele>
        <time>2022-09-24T10:58:07Z</time>
      </trkpt>
      <trkpt lat="45.79896" lon="5.09721">
        <ele>206.4</ele>
        <time>2022-09-24T10:58:08Z</time>
      </trkpt>
      <trkpt lat="45.79893" lon="5.09728">
        <ele>206.2</ele>
        <time>2022-09-24T10:58:10Z</time>
      </trkpt>
      <trkpt lat="45.7989" lon="5.09736">
        <ele>206</ele>
        <time>2022-09-24T10:58:11Z</time>
      </trkpt>
      <trkpt lat="45.79887" lon="5.09744">
        <ele>205.8</ele>
        <time>2022-09-24T10:58:12Z</time>
      </trkpt>
      <trkpt lat="45.79885" lon="5.09751">
        <ele>205.7</ele>
        <time>2022-09-24T10:58:13Z</time>
      </trkpt>
      <trkpt lat="45.79881" lon="5.09759">
        <ele>205.5</ele>
        <time>2022-09-24T10:58:14Z</time>
      </trkpt>
      <trkpt lat="45.79878" lon="5.09767">
        <ele>205.3</ele>
        <time>2022-09-24T10:58:15Z</time>
      </trkpt>
      <trkpt lat="45.79875" lon="5.09776">
        <ele>205.2</ele>
        <time>2022-09-24T10:58:16Z</time>
      </trkpt>
      <trkpt lat="45.79872" lon="5.09784">
        <ele>205</ele>
        <time>2022-09-24T10:58:17Z</time>
      </trkpt>
      <trkpt lat="45.79868" lon="5.09792">
        <ele>204.9</ele>
        <time>2022-09-24T10:58:18Z</time>
      </trkpt>
      <trkpt lat="45.79865" lon="5.098">
        <ele>204.8</ele>
        <time>2022-09-24T10:58:19Z</time>
      </trkpt>
      <trkpt lat="45.79861" lon="5.09809">
        <ele>204.6</ele>
        <time>2022-09-24T10:58:20Z</time>
      </trkpt>
      <trkpt lat="45.79858" lon="5.09816">
        <ele>204.6</ele>
        <time>2022-09-24T10:58:21Z</time>
      </trkpt>
      <trkpt lat="45.79854" lon="5.09825">
        <ele>204.4</ele>
        <time>2022-09-24T10:58:22Z</time>
      </trkpt>
      <trkpt lat="45.79846" lon="5.09842">
        <ele>204.3</ele>
        <time>2022-09-24T10:58:23Z</time>
      </trkpt>
      <trkpt lat="45.79842" lon="5.0985">
        <ele>204.3</ele>
        <time>2022-09-24T10:58:24Z</time>
      </trkpt>
      <trkpt lat="45.79839" lon="5.09858">
        <ele>204.2</ele>
        <time>2022-09-24T10:58:26Z</time>
      </trkpt>
      <trkpt lat="45.79835" lon="5.09866">
        <ele>204.2</ele>
        <time>2022-09-24T10:58:27Z</time>
      </trkpt>
      <trkpt lat="45.79831" lon="5.09875">
        <ele>204.2</ele>
        <time>2022-09-24T10:58:28Z</time>
      </trkpt>
      <trkpt lat="45.79828" lon="5.09882">
        <ele>204.2</ele>
        <time>2022-09-24T10:58:29Z</time>
      </trkpt>
      <trkpt lat="45.79824" lon="5.0989">
        <ele>204.2</ele>
        <time>2022-09-24T10:58:30Z</time>
      </trkpt>
      <trkpt lat="45.79821" lon="5.09898">
        <ele>204.2</ele>
        <time>2022-09-24T10:58:31Z</time>
      </trkpt>
      <trkpt lat="45.79817" lon="5.09907">
        <ele>204.2</ele>
        <time>2022-09-24T10:58:32Z</time>
      </trkpt>
      <trkpt lat="45.79814" lon="5.09915">
        <ele>204.2</ele>
        <time>2022-09-24T10:58:33Z</time>
      </trkpt>
      <trkpt lat="45.79812" lon="5.09924">
        <ele>204.2</ele>
        <time>2022-09-24T10:58:34Z</time>
      </trkpt>
      <trkpt lat="45.7981" lon="5.09932">
        <ele>204.2</ele>
        <time>2022-09-24T10:58:35Z</time>
      </trkpt>
      <trkpt lat="45.79807" lon="5.0994">
        <ele>204.2</ele>
        <time>2022-09-24T10:58:36Z</time>
      </trkpt>
      <trkpt lat="45.79804" lon="5.09949">
        <ele>204.2</ele>
        <time>2022-09-24T10:58:37Z</time>
      </trkpt>
      <trkpt lat="45.79801" lon="5.09957">
        <ele>204.2</ele>
        <time>2022-09-24T10:58:38Z</time>
      </trkpt>
      <trkpt lat="45.79799" lon="5.09966">
        <ele>204.2</ele>
        <time>2022-09-24T10:58:39Z</time>
      </trkpt>
      <trkpt lat="45.79797" lon="5.09974">
        <ele>204.3</ele>
        <time>2022-09-24T10:58:40Z</time>
      </trkpt>
      <trkpt lat="45.79795" lon="5.09982">
        <ele>204.3</ele>
        <time>2022-09-24T10:58:41Z</time>
      </trkpt>
      <trkpt lat="45.79793" lon="5.09991">
        <ele>204.3</ele>
        <time>2022-09-24T10:58:42Z</time>
      </trkpt>
      <trkpt lat="45.79791" lon="5.1">
        <ele>204.3</ele>
        <time>2022-09-24T10:58:43Z</time>
      </trkpt>
      <trkpt lat="45.79789" lon="5.10008">
        <ele>204.3</ele>
        <time>2022-09-24T10:58:44Z</time>
      </trkpt>
      <trkpt lat="45.79787" lon="5.10017">
        <ele>204.3</ele>
        <time>2022-09-24T10:58:45Z</time>
      </trkpt>
      <trkpt lat="45.79785" lon="5.10025">
        <ele>204.4</ele>
        <time>2022-09-24T10:58:46Z</time>
      </trkpt>
      <trkpt lat="45.79783" lon="5.10033">
        <ele>204.4</ele>
        <time>2022-09-24T10:58:47Z</time>
      </trkpt>
      <trkpt lat="45.79781" lon="5.10041">
        <ele>204.4</ele>
        <time>2022-09-24T10:58:48Z</time>
      </trkpt>
      <trkpt lat="45.79779" lon="5.10048">
        <ele>204.4</ele>
        <time>2022-09-24T10:58:49Z</time>
      </trkpt>
      <trkpt lat="45.79776" lon="5.10057">
        <ele>204.4</ele>
        <time>2022-09-24T10:58:50Z</time>
      </trkpt>
      <trkpt lat="45.79774" lon="5.10065">
        <ele>204.4</ele>
        <time>2022-09-24T10:58:51Z</time>
      </trkpt>
      <trkpt lat="45.79772" lon="5.10073">
        <ele>204.5</ele>
        <time>2022-09-24T10:58:52Z</time>
      </trkpt>
      <trkpt lat="45.7977" lon="5.10081">
        <ele>204.5</ele>
        <time>2022-09-24T10:58:53Z</time>
      </trkpt>
      <trkpt lat="45.79768" lon="5.10089">
        <ele>204.5</ele>
        <time>2022-09-24T10:58:54Z</time>
      </trkpt>
      <trkpt lat="45.79766" lon="5.10098">
        <ele>204.6</ele>
        <time>2022-09-24T10:58:55Z</time>
      </trkpt>
      <trkpt lat="45.79761" lon="5.10115">
        <ele>204.6</ele>
        <time>2022-09-24T10:58:56Z</time>
      </trkpt>
      <trkpt lat="45.79759" lon="5.10123">
        <ele>204.7</ele>
        <time>2022-09-24T10:58:57Z</time>
      </trkpt>
      <trkpt lat="45.79756" lon="5.10131">
        <ele>204.7</ele>
        <time>2022-09-24T10:58:58Z</time>
      </trkpt>
      <trkpt lat="45.79754" lon="5.10139">
        <ele>204.8</ele>
        <time>2022-09-24T10:58:59Z</time>
      </trkpt>
      <trkpt lat="45.79752" lon="5.10147">
        <ele>204.9</ele>
        <time>2022-09-24T10:59:00Z</time>
      </trkpt>
      <trkpt lat="45.7975" lon="5.10155">
        <ele>204.9</ele>
        <time>2022-09-24T10:59:01Z</time>
      </trkpt>
      <trkpt lat="45.79748" lon="5.10163">
        <ele>205</ele>
        <time>2022-09-24T10:59:02Z</time>
      </trkpt>
      <trkpt lat="45.79745" lon="5.10172">
        <ele>205.1</ele>
        <time>2022-09-24T10:59:03Z</time>
      </trkpt>
      <trkpt lat="45.79744" lon="5.10179">
        <ele>205.2</ele>
        <time>2022-09-24T10:59:04Z</time>
      </trkpt>
      <trkpt lat="45.79742" lon="5.10187">
        <ele>205.2</ele>
        <time>2022-09-24T10:59:05Z</time>
      </trkpt>
      <trkpt lat="45.79739" lon="5.10195">
        <ele>205.3</ele>
        <time>2022-09-24T10:59:06Z</time>
      </trkpt>
      <trkpt lat="45.79737" lon="5.10203">
        <ele>205.3</ele>
        <time>2022-09-24T10:59:07Z</time>
      </trkpt>
      <trkpt lat="45.79734" lon="5.10212">
        <ele>205.4</ele>
        <time>2022-09-24T10:59:08Z</time>
      </trkpt>
      <trkpt lat="45.79733" lon="5.10218">
        <ele>205.4</ele>
        <time>2022-09-24T10:59:09Z</time>
      </trkpt>
      <trkpt lat="45.79731" lon="5.10227">
        <ele>205.5</ele>
        <time>2022-09-24T10:59:10Z</time>
      </trkpt>
      <trkpt lat="45.7973" lon="5.10234">
        <ele>205.6</ele>
        <time>2022-09-24T10:59:11Z</time>
      </trkpt>
      <trkpt lat="45.79726" lon="5.10241">
        <ele>205.6</ele>
        <time>2022-09-24T10:59:12Z</time>
      </trkpt>
      <trkpt lat="45.79725" lon="5.10248">
        <ele>205.7</ele>
        <time>2022-09-24T10:59:13Z</time>
      </trkpt>
      <trkpt lat="45.79724" lon="5.10254">
        <ele>205.8</ele>
        <time>2022-09-24T10:59:14Z</time>
      </trkpt>
      <trkpt lat="45.79722" lon="5.10261">
        <ele>205.8</ele>
        <time>2022-09-24T10:59:15Z</time>
      </trkpt>
      <trkpt lat="45.7972" lon="5.10267">
        <ele>205.9</ele>
        <time>2022-09-24T10:59:16Z</time>
      </trkpt>
      <trkpt lat="45.79718" lon="5.10274">
        <ele>206</ele>
        <time>2022-09-24T10:59:17Z</time>
      </trkpt>
      <trkpt lat="45.79716" lon="5.1028">
        <ele>206.1</ele>
        <time>2022-09-24T10:59:18Z</time>
      </trkpt>
      <trkpt lat="45.79714" lon="5.10287">
        <ele>206.1</ele>
        <time>2022-09-24T10:59:19Z</time>
      </trkpt>
      <trkpt lat="45.79713" lon="5.10292">
        <ele>206.2</ele>
        <time>2022-09-24T10:59:20Z</time>
      </trkpt>
      <trkpt lat="45.79711" lon="5.10299">
        <ele>206.3</ele>
        <time>2022-09-24T10:59:21Z</time>
      </trkpt>
      <trkpt lat="45.79709" lon="5.10305">
        <ele>206.3</ele>
        <time>2022-09-24T10:59:22Z</time>
      </trkpt>
      <trkpt lat="45.79708" lon="5.10311">
        <ele>206.4</ele>
        <time>2022-09-24T10:59:23Z</time>
      </trkpt>
      <trkpt lat="45.79706" lon="5.10318">
        <ele>206.5</ele>
        <time>2022-09-24T10:59:24Z</time>
      </trkpt>
      <trkpt lat="45.79704" lon="5.10324">
        <ele>206.5</ele>
        <time>2022-09-24T10:59:25Z</time>
      </trkpt>
      <trkpt lat="45.79702" lon="5.1033">
        <ele>206.6</ele>
        <time>2022-09-24T10:59:26Z</time>
      </trkpt>
      <trkpt lat="45.79699" lon="5.10337">
        <ele>206.6</ele>
        <time>2022-09-24T10:59:27Z</time>
      </trkpt>
      <trkpt lat="45.79697" lon="5.10343">
        <ele>206.6</ele>
        <time>2022-09-24T10:59:28Z</time>
      </trkpt>
      <trkpt lat="45.79695" lon="5.10349">
        <ele>206.7</ele>
        <time>2022-09-24T10:59:29Z</time>
      </trkpt>
      <trkpt lat="45.79693" lon="5.10356">
        <ele>206.7</ele>
        <time>2022-09-24T10:59:30Z</time>
      </trkpt>
      <trkpt lat="45.79689" lon="5.10362">
        <ele>206.7</ele>
        <time>2022-09-24T10:59:31Z</time>
      </trkpt>
      <trkpt lat="45.79687" lon="5.10368">
        <ele>206.8</ele>
        <time>2022-09-24T10:59:32Z</time>
      </trkpt>
      <trkpt lat="45.79685" lon="5.10375">
        <ele>206.8</ele>
        <time>2022-09-24T10:59:33Z</time>
      </trkpt>
      <trkpt lat="45.79681" lon="5.10381">
        <ele>206.8</ele>
        <time>2022-09-24T10:59:34Z</time>
      </trkpt>
      <trkpt lat="45.79678" lon="5.10387">
        <ele>206.8</ele>
        <time>2022-09-24T10:59:35Z</time>
      </trkpt>
      <trkpt lat="45.79675" lon="5.10393">
        <ele>206.8</ele>
        <time>2022-09-24T10:59:36Z</time>
      </trkpt>
      <trkpt lat="45.79672" lon="5.10399">
        <ele>206.8</ele>
        <time>2022-09-24T10:59:37Z</time>
      </trkpt>
      <trkpt lat="45.79669" lon="5.10405">
        <ele>206.8</ele>
        <time>2022-09-24T10:59:38Z</time>
      </trkpt>
      <trkpt lat="45.79666" lon="5.10411">
        <ele>206.8</ele>
        <time>2022-09-24T10:59:39Z</time>
      </trkpt>
      <trkpt lat="45.79662" lon="5.10417">
        <ele>206.8</ele>
        <time>2022-09-24T10:59:40Z</time>
      </trkpt>
      <trkpt lat="45.79659" lon="5.10423">
        <ele>206.8</ele>
        <time>2022-09-24T10:59:41Z</time>
      </trkpt>
      <trkpt lat="45.79656" lon="5.1043">
        <ele>206.7</ele>
        <time>2022-09-24T10:59:42Z</time>
      </trkpt>
      <trkpt lat="45.79654" lon="5.10437">
        <ele>206.7</ele>
        <time>2022-09-24T10:59:43Z</time>
      </trkpt>
      <trkpt lat="45.79651" lon="5.10443">
        <ele>206.7</ele>
        <time>2022-09-24T10:59:44Z</time>
      </trkpt>
      <trkpt lat="45.79648" lon="5.1045">
        <ele>206.7</ele>
        <time>2022-09-24T10:59:45Z</time>
      </trkpt>
      <trkpt lat="45.79645" lon="5.10457">
        <ele>206.7</ele>
        <time>2022-09-24T10:59:46Z</time>
      </trkpt>
      <trkpt lat="45.79642" lon="5.10464">
        <ele>206.6</ele>
        <time>2022-09-24T10:59:47Z</time>
      </trkpt>
      <trkpt lat="45.79639" lon="5.1047">
        <ele>206.6</ele>
        <time>2022-09-24T10:59:48Z</time>
      </trkpt>
      <trkpt lat="45.79636" lon="5.10477">
        <ele>206.6</ele>
        <time>2022-09-24T10:59:49Z</time>
      </trkpt>
      <trkpt lat="45.79634" lon="5.10484">
        <ele>206.6</ele>
        <time>2022-09-24T10:59:50Z</time>
      </trkpt>
      <trkpt lat="45.79631" lon="5.10491">
        <ele>206.6</ele>
        <time>2022-09-24T10:59:51Z</time>
      </trkpt>
      <trkpt lat="45.79629" lon="5.10498">
        <ele>206.6</ele>
        <time>2022-09-24T10:59:52Z</time>
      </trkpt>
      <trkpt lat="45.79626" lon="5.10505">
        <ele>206.6</ele>
        <time>2022-09-24T10:59:53Z</time>
      </trkpt>
      <trkpt lat="45.79623" lon="5.10512">
        <ele>206.5</ele>
        <time>2022-09-24T10:59:54Z</time>
      </trkpt>
      <trkpt lat="45.79621" lon="5.10519">
        <ele>206.5</ele>
        <time>2022-09-24T10:59:55Z</time>
      </trkpt>
      <trkpt lat="45.79618" lon="5.10525">
        <ele>206.5</ele>
        <time>2022-09-24T10:59:56Z</time>
      </trkpt>
      <trkpt lat="45.79615" lon="5.10532">
        <ele>206.4</ele>
        <time>2022-09-24T10:59:57Z</time>
      </trkpt>
      <trkpt lat="45.79612" lon="5.1054">
        <ele>206.4</ele>
        <time>2022-09-24T10:59:58Z</time>
      </trkpt>
      <trkpt lat="45.79609" lon="5.10547">
        <ele>206.3</ele>
        <time>2022-09-24T10:59:59Z</time>
      </trkpt>
      <trkpt lat="45.79607" lon="5.10554">
        <ele>206.3</ele>
        <time>2022-09-24T11:00:00Z</time>
      </trkpt>
      <trkpt lat="45.79604" lon="5.10561">
        <ele>206.2</ele>
        <time>2022-09-24T11:00:01Z</time>
      </trkpt>
      <trkpt lat="45.79601" lon="5.10568">
        <ele>206.2</ele>
        <time>2022-09-24T11:00:02Z</time>
      </trkpt>
      <trkpt lat="45.79598" lon="5.10575">
        <ele>206.1</ele>
        <time>2022-09-24T11:00:03Z</time>
      </trkpt>
      <trkpt lat="45.79595" lon="5.10582">
        <ele>206.1</ele>
        <time>2022-09-24T11:00:04Z</time>
      </trkpt>
      <trkpt lat="45.79593" lon="5.10588">
        <ele>206.1</ele>
        <time>2022-09-24T11:00:05Z</time>
      </trkpt>
      <trkpt lat="45.79589" lon="5.10595">
        <ele>206.1</ele>
        <time>2022-09-24T11:00:06Z</time>
      </trkpt>
      <trkpt lat="45.79586" lon="5.10603">
        <ele>206.1</ele>
        <time>2022-09-24T11:00:07Z</time>
      </trkpt>
      <trkpt lat="45.79584" lon="5.10609">
        <ele>206.1</ele>
        <time>2022-09-24T11:00:08Z</time>
      </trkpt>
      <trkpt lat="45.7958" lon="5.10617">
        <ele>206.1</ele>
        <time>2022-09-24T11:00:09Z</time>
      </trkpt>
      <trkpt lat="45.79577" lon="5.10624">
        <ele>206.1</ele>
        <time>2022-09-24T11:00:10Z</time>
      </trkpt>
      <trkpt lat="45.79574" lon="5.1063">
        <ele>206.1</ele>
        <time>2022-09-24T11:00:11Z</time>
      </trkpt>
      <trkpt lat="45.79571" lon="5.10637">
        <ele>206.1</ele>
        <time>2022-09-24T11:00:12Z</time>
      </trkpt>
      <trkpt lat="45.79568" lon="5.10644">
        <ele>206.1</ele>
        <time>2022-09-24T11:00:13Z</time>
      </trkpt>
      <trkpt lat="45.79564" lon="5.1065">
        <ele>206.2</ele>
        <time>2022-09-24T11:00:14Z</time>
      </trkpt>
      <trkpt lat="45.79561" lon="5.10657">
        <ele>206.2</ele>
        <time>2022-09-24T11:00:16Z</time>
      </trkpt>
      <trkpt lat="45.79558" lon="5.10664">
        <ele>206.3</ele>
        <time>2022-09-24T11:00:17Z</time>
      </trkpt>
      <trkpt lat="45.79554" lon="5.1067">
        <ele>206.3</ele>
        <time>2022-09-24T11:00:18Z</time>
      </trkpt>
      <trkpt lat="45.79551" lon="5.10678">
        <ele>206.4</ele>
        <time>2022-09-24T11:00:19Z</time>
      </trkpt>
      <trkpt lat="45.79548" lon="5.10684">
        <ele>206.5</ele>
        <time>2022-09-24T11:00:20Z</time>
      </trkpt>
      <trkpt lat="45.79544" lon="5.10691">
        <ele>206.5</ele>
        <time>2022-09-24T11:00:21Z</time>
      </trkpt>
      <trkpt lat="45.79541" lon="5.10698">
        <ele>206.6</ele>
        <time>2022-09-24T11:00:22Z</time>
      </trkpt>
      <trkpt lat="45.79538" lon="5.10705">
        <ele>206.6</ele>
        <time>2022-09-24T11:00:23Z</time>
      </trkpt>
      <trkpt lat="45.79535" lon="5.10712">
        <ele>206.7</ele>
        <time>2022-09-24T11:00:24Z</time>
      </trkpt>
      <trkpt lat="45.79532" lon="5.10719">
        <ele>206.7</ele>
        <time>2022-09-24T11:00:25Z</time>
      </trkpt>
      <trkpt lat="45.7953" lon="5.10725">
        <ele>206.8</ele>
        <time>2022-09-24T11:00:26Z</time>
      </trkpt>
      <trkpt lat="45.79527" lon="5.10733">
        <ele>206.9</ele>
        <time>2022-09-24T11:00:27Z</time>
      </trkpt>
      <trkpt lat="45.79525" lon="5.1074">
        <ele>206.9</ele>
        <time>2022-09-24T11:00:28Z</time>
      </trkpt>
      <trkpt lat="45.79522" lon="5.10746">
        <ele>207</ele>
        <time>2022-09-24T11:00:29Z</time>
      </trkpt>
      <trkpt lat="45.7952" lon="5.10754">
        <ele>207.1</ele>
        <time>2022-09-24T11:00:30Z</time>
      </trkpt>
      <trkpt lat="45.79518" lon="5.10761">
        <ele>207.3</ele>
        <time>2022-09-24T11:00:31Z</time>
      </trkpt>
      <trkpt lat="45.79515" lon="5.10768">
        <ele>207.4</ele>
        <time>2022-09-24T11:00:32Z</time>
      </trkpt>
      <trkpt lat="45.79512" lon="5.10774">
        <ele>207.4</ele>
        <time>2022-09-24T11:00:33Z</time>
      </trkpt>
      <trkpt lat="45.79509" lon="5.10781">
        <ele>207.5</ele>
        <time>2022-09-24T11:00:34Z</time>
      </trkpt>
      <trkpt lat="45.79506" lon="5.10787">
        <ele>207.5</ele>
        <time>2022-09-24T11:00:35Z</time>
      </trkpt>
      <trkpt lat="45.79503" lon="5.10794">
        <ele>207.5</ele>
        <time>2022-09-24T11:00:36Z</time>
      </trkpt>
      <trkpt lat="45.795" lon="5.108">
        <ele>207.6</ele>
        <time>2022-09-24T11:00:37Z</time>
      </trkpt>
      <trkpt lat="45.79498" lon="5.10808">
        <ele>207.6</ele>
        <time>2022-09-24T11:00:38Z</time>
      </trkpt>
      <trkpt lat="45.79496" lon="5.10815">
        <ele>207.7</ele>
        <time>2022-09-24T11:00:39Z</time>
      </trkpt>
      <trkpt lat="45.79496" lon="5.10823">
        <ele>207.7</ele>
        <time>2022-09-24T11:00:40Z</time>
      </trkpt>
      <trkpt lat="45.79495" lon="5.10831">
        <ele>207.8</ele>
        <time>2022-09-24T11:00:41Z</time>
      </trkpt>
      <trkpt lat="45.79494" lon="5.10839">
        <ele>207.8</ele>
        <time>2022-09-24T11:00:42Z</time>
      </trkpt>
      <trkpt lat="45.79492" lon="5.10846">
        <ele>207.9</ele>
        <time>2022-09-24T11:00:43Z</time>
      </trkpt>
      <trkpt lat="45.79491" lon="5.10854">
        <ele>207.9</ele>
        <time>2022-09-24T11:00:44Z</time>
      </trkpt>
      <trkpt lat="45.79489" lon="5.10861">
        <ele>208</ele>
        <time>2022-09-24T11:00:45Z</time>
      </trkpt>
      <trkpt lat="45.79486" lon="5.10868">
        <ele>208.1</ele>
        <time>2022-09-24T11:00:46Z</time>
      </trkpt>
      <trkpt lat="45.79484" lon="5.10875">
        <ele>208.1</ele>
        <time>2022-09-24T11:00:47Z</time>
      </trkpt>
      <trkpt lat="45.79482" lon="5.10881">
        <ele>208.2</ele>
        <time>2022-09-24T11:00:48Z</time>
      </trkpt>
      <trkpt lat="45.7948" lon="5.10887">
        <ele>208.3</ele>
        <time>2022-09-24T11:00:49Z</time>
      </trkpt>
      <trkpt lat="45.79477" lon="5.10891">
        <ele>208.3</ele>
        <time>2022-09-24T11:00:50Z</time>
      </trkpt>
      <trkpt lat="45.79472" lon="5.10895">
        <ele>208.3</ele>
        <time>2022-09-24T11:00:51Z</time>
      </trkpt>
      <trkpt lat="45.79467" lon="5.10898">
        <ele>208.2</ele>
        <time>2022-09-24T11:00:52Z</time>
      </trkpt>
      <trkpt lat="45.79466" lon="5.10906">
        <ele>208.2</ele>
        <time>2022-09-24T11:00:53Z</time>
      </trkpt>
      <trkpt lat="45.79465" lon="5.10913">
        <ele>208.3</ele>
        <time>2022-09-24T11:00:54Z</time>
      </trkpt>
      <trkpt lat="45.79466" lon="5.1092">
        <ele>208.3</ele>
        <time>2022-09-24T11:00:55Z</time>
      </trkpt>
      <trkpt lat="45.79467" lon="5.10928">
        <ele>208.4</ele>
        <time>2022-09-24T11:00:56Z</time>
      </trkpt>
      <trkpt lat="45.79468" lon="5.10934">
        <ele>208.5</ele>
        <time>2022-09-24T11:00:57Z</time>
      </trkpt>
      <trkpt lat="45.79467" lon="5.10942">
        <ele>208.5</ele>
        <time>2022-09-24T11:00:58Z</time>
      </trkpt>
      <trkpt lat="45.79466" lon="5.1095">
        <ele>208.6</ele>
        <time>2022-09-24T11:00:59Z</time>
      </trkpt>
      <trkpt lat="45.79465" lon="5.10959">
        <ele>208.7</ele>
        <time>2022-09-24T11:01:00Z</time>
      </trkpt>
      <trkpt lat="45.79464" lon="5.10965">
        <ele>208.8</ele>
        <time>2022-09-24T11:01:01Z</time>
      </trkpt>
      <trkpt lat="45.79462" lon="5.10981">
        <ele>209</ele>
        <time>2022-09-24T11:01:02Z</time>
      </trkpt>
      <trkpt lat="45.79462" lon="5.10988">
        <ele>209.1</ele>
        <time>2022-09-24T11:01:03Z</time>
      </trkpt>
      <trkpt lat="45.79462" lon="5.10996">
        <ele>209.2</ele>
        <time>2022-09-24T11:01:04Z</time>
      </trkpt>
      <trkpt lat="45.7946" lon="5.11005">
        <ele>209.3</ele>
        <time>2022-09-24T11:01:05Z</time>
      </trkpt>
      <trkpt lat="45.79459" lon="5.11012">
        <ele>209.4</ele>
        <time>2022-09-24T11:01:06Z</time>
      </trkpt>
      <trkpt lat="45.7946" lon="5.11021">
        <ele>209.5</ele>
        <time>2022-09-24T11:01:07Z</time>
      </trkpt>
      <trkpt lat="45.79459" lon="5.11029">
        <ele>209.6</ele>
        <time>2022-09-24T11:01:08Z</time>
      </trkpt>
      <trkpt lat="45.79461" lon="5.11037">
        <ele>209.7</ele>
        <time>2022-09-24T11:01:09Z</time>
      </trkpt>
      <trkpt lat="45.7946" lon="5.11045">
        <ele>209.8</ele>
        <time>2022-09-24T11:01:10Z</time>
      </trkpt>
      <trkpt lat="45.7946" lon="5.11054">
        <ele>209.8</ele>
        <time>2022-09-24T11:01:11Z</time>
      </trkpt>
      <trkpt lat="45.7946" lon="5.11062">
        <ele>209.9</ele>
        <time>2022-09-24T11:01:12Z</time>
      </trkpt>
      <trkpt lat="45.79459" lon="5.11071">
        <ele>209.9</ele>
        <time>2022-09-24T11:01:13Z</time>
      </trkpt>
      <trkpt lat="45.79459" lon="5.11078">
        <ele>209.9</ele>
        <time>2022-09-24T11:01:14Z</time>
      </trkpt>
      <trkpt lat="45.79458" lon="5.11083">
        <ele>209.9</ele>
        <time>2022-09-24T11:01:15Z</time>
      </trkpt>
      <trkpt lat="45.79459" lon="5.11091">
        <ele>210</ele>
        <time>2022-09-24T11:01:16Z</time>
      </trkpt>
      <trkpt lat="45.79458" lon="5.11098">
        <ele>210</ele>
        <time>2022-09-24T11:01:17Z</time>
      </trkpt>
      <trkpt lat="45.79458" lon="5.11104">
        <ele>209.9</ele>
        <time>2022-09-24T11:01:18Z</time>
      </trkpt>
      <trkpt lat="45.79458" lon="5.11112">
        <ele>209.9</ele>
        <time>2022-09-24T11:01:19Z</time>
      </trkpt>
      <trkpt lat="45.79457" lon="5.1112">
        <ele>209.9</ele>
        <time>2022-09-24T11:01:20Z</time>
      </trkpt>
      <trkpt lat="45.79457" lon="5.11128">
        <ele>209.8</ele>
        <time>2022-09-24T11:01:21Z</time>
      </trkpt>
      <trkpt lat="45.79458" lon="5.11135">
        <ele>209.8</ele>
        <time>2022-09-24T11:01:22Z</time>
      </trkpt>
      <trkpt lat="45.79459" lon="5.11142">
        <ele>209.7</ele>
        <time>2022-09-24T11:01:23Z</time>
      </trkpt>
      <trkpt lat="45.7946" lon="5.11151">
        <ele>209.6</ele>
        <time>2022-09-24T11:01:24Z</time>
      </trkpt>
      <trkpt lat="45.79462" lon="5.11159">
        <ele>209.5</ele>
        <time>2022-09-24T11:01:25Z</time>
      </trkpt>
      <trkpt lat="45.79463" lon="5.11165">
        <ele>209.4</ele>
        <time>2022-09-24T11:01:26Z</time>
      </trkpt>
      <trkpt lat="45.79465" lon="5.11174">
        <ele>209.3</ele>
        <time>2022-09-24T11:01:27Z</time>
      </trkpt>
      <trkpt lat="45.79467" lon="5.11181">
        <ele>209.2</ele>
        <time>2022-09-24T11:01:28Z</time>
      </trkpt>
      <trkpt lat="45.79468" lon="5.11189">
        <ele>209</ele>
        <time>2022-09-24T11:01:29Z</time>
      </trkpt>
      <trkpt lat="45.7947" lon="5.11199">
        <ele>208.9</ele>
        <time>2022-09-24T11:01:30Z</time>
      </trkpt>
      <trkpt lat="45.79472" lon="5.11207">
        <ele>208.7</ele>
        <time>2022-09-24T11:01:31Z</time>
      </trkpt>
      <trkpt lat="45.79475" lon="5.11214">
        <ele>208.6</ele>
        <time>2022-09-24T11:01:32Z</time>
      </trkpt>
      <trkpt lat="45.79477" lon="5.11223">
        <ele>208.5</ele>
        <time>2022-09-24T11:01:33Z</time>
      </trkpt>
      <trkpt lat="45.79478" lon="5.11231">
        <ele>208.4</ele>
        <time>2022-09-24T11:01:34Z</time>
      </trkpt>
      <trkpt lat="45.7948" lon="5.11239">
        <ele>208.3</ele>
        <time>2022-09-24T11:01:35Z</time>
      </trkpt>
      <trkpt lat="45.79482" lon="5.11246">
        <ele>208.2</ele>
        <time>2022-09-24T11:01:36Z</time>
      </trkpt>
      <trkpt lat="45.79484" lon="5.11255">
        <ele>208.1</ele>
        <time>2022-09-24T11:01:37Z</time>
      </trkpt>
      <trkpt lat="45.79486" lon="5.11263">
        <ele>208</ele>
        <time>2022-09-24T11:01:38Z</time>
      </trkpt>
      <trkpt lat="45.79488" lon="5.11272">
        <ele>207.9</ele>
        <time>2022-09-24T11:01:39Z</time>
      </trkpt>
      <trkpt lat="45.79489" lon="5.11281">
        <ele>207.9</ele>
        <time>2022-09-24T11:01:40Z</time>
      </trkpt>
      <trkpt lat="45.79491" lon="5.11287">
        <ele>207.8</ele>
        <time>2022-09-24T11:01:41Z</time>
      </trkpt>
      <trkpt lat="45.79493" lon="5.11294">
        <ele>207.7</ele>
        <time>2022-09-24T11:01:42Z</time>
      </trkpt>
      <trkpt lat="45.79495" lon="5.11299">
        <ele>207.7</ele>
        <time>2022-09-24T11:01:43Z</time>
      </trkpt>
      <trkpt lat="45.79496" lon="5.11307">
        <ele>207.7</ele>
        <time>2022-09-24T11:01:44Z</time>
      </trkpt>
      <trkpt lat="45.79497" lon="5.11315">
        <ele>207.6</ele>
        <time>2022-09-24T11:01:45Z</time>
      </trkpt>
      <trkpt lat="45.795" lon="5.11325">
        <ele>207.6</ele>
        <time>2022-09-24T11:01:46Z</time>
      </trkpt>
      <trkpt lat="45.79501" lon="5.11335">
        <ele>207.6</ele>
        <time>2022-09-24T11:01:47Z</time>
      </trkpt>
      <trkpt lat="45.79502" lon="5.11344">
        <ele>207.6</ele>
        <time>2022-09-24T11:01:48Z</time>
      </trkpt>
      <trkpt lat="45.79501" lon="5.11352">
        <ele>207.6</ele>
        <time>2022-09-24T11:01:49Z</time>
      </trkpt>
      <trkpt lat="45.79501" lon="5.11359">
        <ele>207.6</ele>
        <time>2022-09-24T11:01:50Z</time>
      </trkpt>
      <trkpt lat="45.79499" lon="5.11366">
        <ele>207.6</ele>
        <time>2022-09-24T11:01:51Z</time>
      </trkpt>
      <trkpt lat="45.79498" lon="5.11372">
        <ele>207.6</ele>
        <time>2022-09-24T11:01:52Z</time>
      </trkpt>
      <trkpt lat="45.79499" lon="5.11379">
        <ele>207.6</ele>
        <time>2022-09-24T11:01:53Z</time>
      </trkpt>
      <trkpt lat="45.79498" lon="5.11388">
        <ele>207.6</ele>
        <time>2022-09-24T11:01:54Z</time>
      </trkpt>
      <trkpt lat="45.79497" lon="5.11396">
        <ele>207.7</ele>
        <time>2022-09-24T11:01:55Z</time>
      </trkpt>
      <trkpt lat="45.79497" lon="5.11403">
        <ele>207.7</ele>
        <time>2022-09-24T11:01:56Z</time>
      </trkpt>
      <trkpt lat="45.79498" lon="5.1141">
        <ele>207.7</ele>
        <time>2022-09-24T11:01:57Z</time>
      </trkpt>
      <trkpt lat="45.79503" lon="5.11413">
        <ele>207.8</ele>
        <time>2022-09-24T11:01:58Z</time>
      </trkpt>
      <trkpt lat="45.79508" lon="5.11419">
        <ele>207.8</ele>
        <time>2022-09-24T11:01:59Z</time>
      </trkpt>
      <trkpt lat="45.79511" lon="5.11424">
        <ele>207.8</ele>
        <time>2022-09-24T11:02:00Z</time>
      </trkpt>
      <trkpt lat="45.79512" lon="5.11431">
        <ele>207.9</ele>
        <time>2022-09-24T11:02:01Z</time>
      </trkpt>
      <trkpt lat="45.79515" lon="5.11438">
        <ele>208</ele>
        <time>2022-09-24T11:02:02Z</time>
      </trkpt>
      <trkpt lat="45.7952" lon="5.11443">
        <ele>208</ele>
        <time>2022-09-24T11:02:03Z</time>
      </trkpt>
      <trkpt lat="45.79525" lon="5.1145">
        <ele>208</ele>
        <time>2022-09-24T11:02:04Z</time>
      </trkpt>
      <trkpt lat="45.79528" lon="5.11456">
        <ele>208</ele>
        <time>2022-09-24T11:02:05Z</time>
      </trkpt>
      <trkpt lat="45.79532" lon="5.11462">
        <ele>208.1</ele>
        <time>2022-09-24T11:02:06Z</time>
      </trkpt>
      <trkpt lat="45.79536" lon="5.11468">
        <ele>208.1</ele>
        <time>2022-09-24T11:02:07Z</time>
      </trkpt>
      <trkpt lat="45.79539" lon="5.11475">
        <ele>208.1</ele>
        <time>2022-09-24T11:02:08Z</time>
      </trkpt>
      <trkpt lat="45.79542" lon="5.11483">
        <ele>208.1</ele>
        <time>2022-09-24T11:02:09Z</time>
      </trkpt>
      <trkpt lat="45.79543" lon="5.11491">
        <ele>208.2</ele>
        <time>2022-09-24T11:02:10Z</time>
      </trkpt>
      <trkpt lat="45.79546" lon="5.11499">
        <ele>208.2</ele>
        <time>2022-09-24T11:02:11Z</time>
      </trkpt>
      <trkpt lat="45.79548" lon="5.11506">
        <ele>208.2</ele>
        <time>2022-09-24T11:02:12Z</time>
      </trkpt>
      <trkpt lat="45.79549" lon="5.11516">
        <ele>208.2</ele>
        <time>2022-09-24T11:02:13Z</time>
      </trkpt>
      <trkpt lat="45.79549" lon="5.11522">
        <ele>208.2</ele>
        <time>2022-09-24T11:02:14Z</time>
      </trkpt>
      <trkpt lat="45.7955" lon="5.1153">
        <ele>208.3</ele>
        <time>2022-09-24T11:02:15Z</time>
      </trkpt>
      <trkpt lat="45.79552" lon="5.11538">
        <ele>208.3</ele>
        <time>2022-09-24T11:02:16Z</time>
      </trkpt>
      <trkpt lat="45.79554" lon="5.11546">
        <ele>208.4</ele>
        <time>2022-09-24T11:02:17Z</time>
      </trkpt>
      <trkpt lat="45.79557" lon="5.11553">
        <ele>208.4</ele>
        <time>2022-09-24T11:02:18Z</time>
      </trkpt>
      <trkpt lat="45.79559" lon="5.11561">
        <ele>208.5</ele>
        <time>2022-09-24T11:02:19Z</time>
      </trkpt>
      <trkpt lat="45.79559" lon="5.11567">
        <ele>208.5</ele>
        <time>2022-09-24T11:02:20Z</time>
      </trkpt>
      <trkpt lat="45.79559" lon="5.11574">
        <ele>208.6</ele>
        <time>2022-09-24T11:02:22Z</time>
      </trkpt>
      <trkpt lat="45.7956" lon="5.11581">
        <ele>208.6</ele>
        <time>2022-09-24T11:02:23Z</time>
      </trkpt>
      <trkpt lat="45.79561" lon="5.11589">
        <ele>208.6</ele>
        <time>2022-09-24T11:02:24Z</time>
      </trkpt>
      <trkpt lat="45.79562" lon="5.11596">
        <ele>208.6</ele>
        <time>2022-09-24T11:02:25Z</time>
      </trkpt>
      <trkpt lat="45.79564" lon="5.11603">
        <ele>208.6</ele>
        <time>2022-09-24T11:02:26Z</time>
      </trkpt>
      <trkpt lat="45.79566" lon="5.11611">
        <ele>208.6</ele>
        <time>2022-09-24T11:02:27Z</time>
      </trkpt>
      <trkpt lat="45.79567" lon="5.11619">
        <ele>208.5</ele>
        <time>2022-09-24T11:02:28Z</time>
      </trkpt>
      <trkpt lat="45.79568" lon="5.11629">
        <ele>208.4</ele>
        <time>2022-09-24T11:02:29Z</time>
      </trkpt>
      <trkpt lat="45.7957" lon="5.11634">
        <ele>208.4</ele>
        <time>2022-09-24T11:02:30Z</time>
      </trkpt>
      <trkpt lat="45.79569" lon="5.11635">
        <ele>208.4</ele>
        <time>2022-09-24T11:02:31Z</time>
      </trkpt>
      <trkpt lat="45.79569" lon="5.11636">
        <ele>208.4</ele>
        <time>2022-09-24T11:02:32Z</time>
      </trkpt>
      <trkpt lat="45.79569" lon="5.11635">
        <ele>208.4</ele>
        <time>2022-09-24T11:02:33Z</time>
      </trkpt>
      <trkpt lat="45.79569" lon="5.11634">
        <ele>208.4</ele>
        <time>2022-09-24T11:02:34Z</time>
      </trkpt>
      <trkpt lat="45.79568" lon="5.11635">
        <ele>208.4</ele>
        <time>2022-09-24T11:02:35Z</time>
      </trkpt>
      <trkpt lat="45.79568" lon="5.11634">
        <ele>208.4</ele>
        <time>2022-09-24T11:02:36Z</time>
      </trkpt>
      <trkpt lat="45.79568" lon="5.11634">
        <ele>208.4</ele>
        <time>2022-09-24T11:02:37Z</time>
      </trkpt>
      <trkpt lat="45.79568" lon="5.11634">
        <ele>208.4</ele>
        <time>2022-09-24T11:02:38Z</time>
      </trkpt>
      <trkpt lat="45.79567" lon="5.11635">
        <ele>208.4</ele>
        <time>2022-09-24T11:02:39Z</time>
      </trkpt>
      <trkpt lat="45.79567" lon="5.11635">
        <ele>208.4</ele>
        <time>2022-09-24T11:02:40Z</time>
      </trkpt>
      <trkpt lat="45.79566" lon="5.11635">
        <ele>208.4</ele>
        <time>2022-09-24T11:02:41Z</time>
      </trkpt>
      <trkpt lat="45.79568" lon="5.11643">
        <ele>208.3</ele>
        <time>2022-09-24T11:02:54Z</time>
      </trkpt>
      <trkpt lat="45.79569" lon="5.11644">
        <ele>208.3</ele>
        <time>2022-09-24T11:02:55Z</time>
      </trkpt>
      <trkpt lat="45.79569" lon="5.11646">
        <ele>208.3</ele>
        <time>2022-09-24T11:02:56Z</time>
      </trkpt>
      <trkpt lat="45.79571" lon="5.1165">
        <ele>208.2</ele>
        <time>2022-09-24T11:02:57Z</time>
      </trkpt>
      <trkpt lat="45.79571" lon="5.11653">
        <ele>208.2</ele>
        <time>2022-09-24T11:02:58Z</time>
      </trkpt>
      <trkpt lat="45.79571" lon="5.11658">
        <ele>208.2</ele>
        <time>2022-09-24T11:02:59Z</time>
      </trkpt>
      <trkpt lat="45.79572" lon="5.11663">
        <ele>208.1</ele>
        <time>2022-09-24T11:03:00Z</time>
      </trkpt>
      <trkpt lat="45.79572" lon="5.11668">
        <ele>208</ele>
        <time>2022-09-24T11:03:01Z</time>
      </trkpt>
      <trkpt lat="45.79572" lon="5.11673">
        <ele>208</ele>
        <time>2022-09-24T11:03:02Z</time>
      </trkpt>
      <trkpt lat="45.79573" lon="5.11679">
        <ele>207.9</ele>
        <time>2022-09-24T11:03:03Z</time>
      </trkpt>
      <trkpt lat="45.79573" lon="5.11685">
        <ele>207.8</ele>
        <time>2022-09-24T11:03:04Z</time>
      </trkpt>
      <trkpt lat="45.79575" lon="5.11691">
        <ele>207.7</ele>
        <time>2022-09-24T11:03:05Z</time>
      </trkpt>
      <trkpt lat="45.79575" lon="5.11697">
        <ele>207.5</ele>
        <time>2022-09-24T11:03:06Z</time>
      </trkpt>
      <trkpt lat="45.79575" lon="5.11705">
        <ele>207.4</ele>
        <time>2022-09-24T11:03:07Z</time>
      </trkpt>
      <trkpt lat="45.79577" lon="5.11713">
        <ele>207.2</ele>
        <time>2022-09-24T11:03:08Z</time>
      </trkpt>
      <trkpt lat="45.79578" lon="5.11723">
        <ele>207</ele>
        <time>2022-09-24T11:03:09Z</time>
      </trkpt>
      <trkpt lat="45.7958" lon="5.11733">
        <ele>206.8</ele>
        <time>2022-09-24T11:03:10Z</time>
      </trkpt>
      <trkpt lat="45.79585" lon="5.11747">
        <ele>206.6</ele>
        <time>2022-09-24T11:03:11Z</time>
      </trkpt>
      <trkpt lat="45.79585" lon="5.11756">
        <ele>206.4</ele>
        <time>2022-09-24T11:03:12Z</time>
      </trkpt>
      <trkpt lat="45.79584" lon="5.11767">
        <ele>206.3</ele>
        <time>2022-09-24T11:03:13Z</time>
      </trkpt>
      <trkpt lat="45.79584" lon="5.11777">
        <ele>206.1</ele>
        <time>2022-09-24T11:03:14Z</time>
      </trkpt>
      <trkpt lat="45.79583" lon="5.11788">
        <ele>206</ele>
        <time>2022-09-24T11:03:15Z</time>
      </trkpt>
      <trkpt lat="45.79585" lon="5.11798">
        <ele>206</ele>
        <time>2022-09-24T11:03:16Z</time>
      </trkpt>
      <trkpt lat="45.79583" lon="5.11809">
        <ele>205.9</ele>
        <time>2022-09-24T11:03:17Z</time>
      </trkpt>
      <trkpt lat="45.79582" lon="5.11819">
        <ele>205.8</ele>
        <time>2022-09-24T11:03:18Z</time>
      </trkpt>
      <trkpt lat="45.79581" lon="5.11828">
        <ele>205.8</ele>
        <time>2022-09-24T11:03:19Z</time>
      </trkpt>
      <trkpt lat="45.7958" lon="5.11836">
        <ele>205.8</ele>
        <time>2022-09-24T11:03:20Z</time>
      </trkpt>
      <trkpt lat="45.7958" lon="5.11845">
        <ele>205.7</ele>
        <time>2022-09-24T11:03:21Z</time>
      </trkpt>
      <trkpt lat="45.79579" lon="5.11857">
        <ele>205.7</ele>
        <time>2022-09-24T11:03:22Z</time>
      </trkpt>
      <trkpt lat="45.79578" lon="5.11865">
        <ele>205.7</ele>
        <time>2022-09-24T11:03:23Z</time>
      </trkpt>
      <trkpt lat="45.79576" lon="5.11875">
        <ele>205.7</ele>
        <time>2022-09-24T11:03:24Z</time>
      </trkpt>
      <trkpt lat="45.79573" lon="5.11882">
        <ele>205.7</ele>
        <time>2022-09-24T11:03:25Z</time>
      </trkpt>
      <trkpt lat="45.79572" lon="5.11893">
        <ele>205.8</ele>
        <time>2022-09-24T11:03:26Z</time>
      </trkpt>
      <trkpt lat="45.79571" lon="5.119">
        <ele>205.8</ele>
        <time>2022-09-24T11:03:27Z</time>
      </trkpt>
      <trkpt lat="45.79569" lon="5.11907">
        <ele>205.8</ele>
        <time>2022-09-24T11:03:28Z</time>
      </trkpt>
      <trkpt lat="45.79567" lon="5.11914">
        <ele>205.9</ele>
        <time>2022-09-24T11:03:29Z</time>
      </trkpt>
      <trkpt lat="45.79566" lon="5.11922">
        <ele>205.9</ele>
        <time>2022-09-24T11:03:30Z</time>
      </trkpt>
      <trkpt lat="45.79566" lon="5.11929">
        <ele>205.9</ele>
        <time>2022-09-24T11:03:31Z</time>
      </trkpt>
      <trkpt lat="45.79562" lon="5.11939">
        <ele>205.9</ele>
        <time>2022-09-24T11:03:32Z</time>
      </trkpt>
      <trkpt lat="45.79558" lon="5.11947">
        <ele>205.9</ele>
        <time>2022-09-24T11:03:33Z</time>
      </trkpt>
      <trkpt lat="45.79556" lon="5.11957">
        <ele>205.9</ele>
        <time>2022-09-24T11:03:34Z</time>
      </trkpt>
      <trkpt lat="45.79555" lon="5.11964">
        <ele>205.9</ele>
        <time>2022-09-24T11:03:35Z</time>
      </trkpt>
      <trkpt lat="45.79553" lon="5.11973">
        <ele>205.9</ele>
        <time>2022-09-24T11:03:36Z</time>
      </trkpt>
      <trkpt lat="45.79553" lon="5.11977">
        <ele>205.9</ele>
        <time>2022-09-24T11:03:37Z</time>
      </trkpt>
      <trkpt lat="45.79552" lon="5.11986">
        <ele>205.9</ele>
        <time>2022-09-24T11:03:38Z</time>
      </trkpt>
      <trkpt lat="45.79548" lon="5.11994">
        <ele>205.9</ele>
        <time>2022-09-24T11:03:39Z</time>
      </trkpt>
      <trkpt lat="45.79546" lon="5.12002">
        <ele>205.9</ele>
        <time>2022-09-24T11:03:40Z</time>
      </trkpt>
      <trkpt lat="45.79543" lon="5.12008">
        <ele>205.9</ele>
        <time>2022-09-24T11:03:41Z</time>
      </trkpt>
      <trkpt lat="45.79545" lon="5.12015">
        <ele>205.9</ele>
        <time>2022-09-24T11:03:42Z</time>
      </trkpt>
      <trkpt lat="45.79543" lon="5.12019">
        <ele>205.9</ele>
        <time>2022-09-24T11:03:43Z</time>
      </trkpt>
      <trkpt lat="45.79541" lon="5.12022">
        <ele>205.9</ele>
        <time>2022-09-24T11:03:44Z</time>
      </trkpt>
      <trkpt lat="45.7954" lon="5.12023">
        <ele>205.9</ele>
        <time>2022-09-24T11:03:45Z</time>
      </trkpt>
      <trkpt lat="45.79539" lon="5.12025">
        <ele>206</ele>
        <time>2022-09-24T11:03:46Z</time>
      </trkpt>
      <trkpt lat="45.79539" lon="5.12025">
        <ele>206</ele>
        <time>2022-09-24T11:03:47Z</time>
      </trkpt>
      <trkpt lat="45.79539" lon="5.12025">
        <ele>206</ele>
        <time>2022-09-24T11:03:48Z</time>
      </trkpt>
      <trkpt lat="45.79539" lon="5.12024">
        <ele>206</ele>
        <time>2022-09-24T11:03:49Z</time>
      </trkpt>
      <trkpt lat="45.79539" lon="5.12024">
        <ele>206</ele>
        <time>2022-09-24T11:03:50Z</time>
      </trkpt>
      <trkpt lat="45.7954" lon="5.12025">
        <ele>206</ele>
        <time>2022-09-24T11:03:51Z</time>
      </trkpt>
      <trkpt lat="45.79539" lon="5.12025">
        <ele>206</ele>
        <time>2022-09-24T11:03:52Z</time>
      </trkpt>
      <trkpt lat="45.79539" lon="5.12025">
        <ele>206</ele>
        <time>2022-09-24T11:03:53Z</time>
      </trkpt>
      <trkpt lat="45.79538" lon="5.12025">
        <ele>206</ele>
        <time>2022-09-24T11:03:54Z</time>
      </trkpt>
      <trkpt lat="45.79538" lon="5.12025">
        <ele>206</ele>
        <time>2022-09-24T11:03:55Z</time>
      </trkpt>
      <trkpt lat="45.79538" lon="5.12026">
        <ele>206</ele>
        <time>2022-09-24T11:03:56Z</time>
      </trkpt>
      <trkpt lat="45.7954" lon="5.12025">
        <ele>206</ele>
        <time>2022-09-24T11:04:12Z</time>
      </trkpt>
      <trkpt lat="45.7954" lon="5.12025">
        <ele>206</ele>
        <time>2022-09-24T11:04:13Z</time>
      </trkpt>
      <trkpt lat="45.79541" lon="5.12024">
        <ele>206</ele>
        <time>2022-09-24T11:04:14Z</time>
      </trkpt>
      <trkpt lat="45.79541" lon="5.12024">
        <ele>206</ele>
        <time>2022-09-24T11:04:15Z</time>
      </trkpt>
      <trkpt lat="45.79542" lon="5.12024">
        <ele>206</ele>
        <time>2022-09-24T11:04:16Z</time>
      </trkpt>
      <trkpt lat="45.79541" lon="5.12024">
        <ele>206</ele>
        <time>2022-09-24T11:04:17Z</time>
      </trkpt>
      <trkpt lat="45.79542" lon="5.12024">
        <ele>206</ele>
        <time>2022-09-24T11:04:18Z</time>
      </trkpt>
      <trkpt lat="45.79542" lon="5.12024">
        <ele>206</ele>
        <time>2022-09-24T11:04:19Z</time>
      </trkpt>
      <trkpt lat="45.79542" lon="5.12024">
        <ele>206</ele>
        <time>2022-09-24T11:04:20Z</time>
      </trkpt>
      <trkpt lat="45.79544" lon="5.12023">
        <ele>206</ele>
        <time>2022-09-24T11:04:21Z</time>
      </trkpt>
      <trkpt lat="45.79543" lon="5.12023">
        <ele>206</ele>
        <time>2022-09-24T11:04:22Z</time>
      </trkpt>
      <trkpt lat="45.79549" lon="5.12025">
        <ele>206</ele>
        <time>2022-09-24T11:04:26Z</time>
      </trkpt>
      <trkpt lat="45.7955" lon="5.12026">
        <ele>206</ele>
        <time>2022-09-24T11:04:28Z</time>
      </trkpt>
      <trkpt lat="45.7955" lon="5.12026">
        <ele>206</ele>
        <time>2022-09-24T11:04:29Z</time>
      </trkpt>
      <trkpt lat="45.7955" lon="5.12027">
        <ele>206</ele>
        <time>2022-09-24T11:04:30Z</time>
      </trkpt>
      <trkpt lat="45.7955" lon="5.12028">
        <ele>206</ele>
        <time>2022-09-24T11:04:31Z</time>
      </trkpt>
      <trkpt lat="45.79551" lon="5.12028">
        <ele>206</ele>
        <time>2022-09-24T11:04:32Z</time>
      </trkpt>
      <trkpt lat="45.7955" lon="5.12028">
        <ele>206</ele>
        <time>2022-09-24T11:04:33Z</time>
      </trkpt>
      <trkpt lat="45.79551" lon="5.12029">
        <ele>206</ele>
        <time>2022-09-24T11:04:34Z</time>
      </trkpt>
      <trkpt lat="45.79551" lon="5.1203">
        <ele>206</ele>
        <time>2022-09-24T11:04:35Z</time>
      </trkpt>
      <trkpt lat="45.79551" lon="5.12031">
        <ele>206</ele>
        <time>2022-09-24T11:04:36Z</time>
      </trkpt>
      <trkpt lat="45.7955" lon="5.12035">
        <ele>206</ele>
        <time>2022-09-24T11:04:37Z</time>
      </trkpt>
      <trkpt lat="45.79549" lon="5.12038">
        <ele>206.1</ele>
        <time>2022-09-24T11:04:38Z</time>
      </trkpt>
      <trkpt lat="45.79548" lon="5.12041">
        <ele>206.1</ele>
        <time>2022-09-24T11:04:39Z</time>
      </trkpt>
      <trkpt lat="45.79547" lon="5.12045">
        <ele>206.1</ele>
        <time>2022-09-24T11:04:40Z</time>
      </trkpt>
      <trkpt lat="45.79545" lon="5.12048">
        <ele>206.1</ele>
        <time>2022-09-24T11:04:41Z</time>
      </trkpt>
      <trkpt lat="45.79544" lon="5.12051">
        <ele>206.1</ele>
        <time>2022-09-24T11:04:42Z</time>
      </trkpt>
      <trkpt lat="45.79543" lon="5.12054">
        <ele>206.1</ele>
        <time>2022-09-24T11:04:44Z</time>
      </trkpt>
      <trkpt lat="45.79542" lon="5.12058">
        <ele>206.1</ele>
        <time>2022-09-24T11:04:45Z</time>
      </trkpt>
      <trkpt lat="45.7954" lon="5.12061">
        <ele>206.1</ele>
        <time>2022-09-24T11:04:46Z</time>
      </trkpt>
      <trkpt lat="45.79539" lon="5.12064">
        <ele>206.1</ele>
        <time>2022-09-24T11:09:18Z</time>
      </trkpt>
      <trkpt lat="45.79538" lon="5.12067">
        <ele>206.2</ele>
        <time>2022-09-24T11:09:19Z</time>
      </trkpt>
      <trkpt lat="45.79537" lon="5.12071">
        <ele>206.2</ele>
        <time>2022-09-24T11:09:20Z</time>
      </trkpt>
      <trkpt lat="45.79536" lon="5.12072">
        <ele>206.2</ele>
        <time>2022-09-24T11:09:21Z</time>
      </trkpt>
      <trkpt lat="45.79535" lon="5.12076">
        <ele>206.2</ele>
        <time>2022-09-24T11:09:22Z</time>
      </trkpt>
      <trkpt lat="45.79535" lon="5.12078">
        <ele>206.2</ele>
        <time>2022-09-24T11:09:23Z</time>
      </trkpt>
      <trkpt lat="45.79533" lon="5.12083">
        <ele>206.2</ele>
        <time>2022-09-24T11:09:24Z</time>
      </trkpt>
      <trkpt lat="45.79532" lon="5.12085">
        <ele>206.2</ele>
        <time>2022-09-24T11:09:25Z</time>
      </trkpt>
      <trkpt lat="45.79531" lon="5.12089">
        <ele>206.2</ele>
        <time>2022-09-24T11:09:26Z</time>
      </trkpt>
      <trkpt lat="45.79531" lon="5.1209">
        <ele>206.2</ele>
        <time>2022-09-24T11:09:27Z</time>
      </trkpt>
      <trkpt lat="45.79529" lon="5.12096">
        <ele>206.2</ele>
        <time>2022-09-24T11:09:28Z</time>
      </trkpt>
      <trkpt lat="45.79529" lon="5.12098">
        <ele>206.2</ele>
        <time>2022-09-24T11:09:29Z</time>
      </trkpt>
      <trkpt lat="45.79528" lon="5.12102">
        <ele>206.2</ele>
        <time>2022-09-24T11:09:30Z</time>
      </trkpt>
      <trkpt lat="45.79527" lon="5.12106">
        <ele>206.3</ele>
        <time>2022-09-24T11:09:31Z</time>
      </trkpt>
      <trkpt lat="45.79526" lon="5.12111">
        <ele>206.3</ele>
        <time>2022-09-24T11:09:32Z</time>
      </trkpt>
      <trkpt lat="45.79525" lon="5.12115">
        <ele>206.3</ele>
        <time>2022-09-24T11:09:33Z</time>
      </trkpt>
      <trkpt lat="45.79524" lon="5.1212">
        <ele>206.3</ele>
        <time>2022-09-24T11:09:34Z</time>
      </trkpt>
      <trkpt lat="45.79523" lon="5.12125">
        <ele>206.3</ele>
        <time>2022-09-24T11:09:35Z</time>
      </trkpt>
      <trkpt lat="45.79521" lon="5.12131">
        <ele>206.4</ele>
        <time>2022-09-24T11:09:36Z</time>
      </trkpt>
      <trkpt lat="45.7952" lon="5.12137">
        <ele>206.4</ele>
        <time>2022-09-24T11:09:37Z</time>
      </trkpt>
      <trkpt lat="45.79519" lon="5.12142">
        <ele>206.4</ele>
        <time>2022-09-24T11:09:38Z</time>
      </trkpt>
      <trkpt lat="45.79518" lon="5.12147">
        <ele>206.5</ele>
        <time>2022-09-24T11:09:39Z</time>
      </trkpt>
      <trkpt lat="45.79516" lon="5.12153">
        <ele>206.5</ele>
        <time>2022-09-24T11:09:40Z</time>
      </trkpt>
      <trkpt lat="45.79515" lon="5.12157">
        <ele>206.5</ele>
        <time>2022-09-24T11:09:41Z</time>
      </trkpt>
      <trkpt lat="45.79514" lon="5.12162">
        <ele>206.5</ele>
        <time>2022-09-24T11:09:42Z</time>
      </trkpt>
      <trkpt lat="45.79513" lon="5.12168">
        <ele>206.6</ele>
        <time>2022-09-24T11:09:43Z</time>
      </trkpt>
      <trkpt lat="45.79512" lon="5.12175">
        <ele>206.6</ele>
        <time>2022-09-24T11:09:44Z</time>
      </trkpt>
      <trkpt lat="45.79511" lon="5.12181">
        <ele>206.7</ele>
        <time>2022-09-24T11:09:45Z</time>
      </trkpt>
      <trkpt lat="45.79511" lon="5.12188">
        <ele>206.7</ele>
        <time>2022-09-24T11:09:46Z</time>
      </trkpt>
      <trkpt lat="45.7951" lon="5.12194">
        <ele>206.8</ele>
        <time>2022-09-24T11:09:47Z</time>
      </trkpt>
      <trkpt lat="45.79508" lon="5.12201">
        <ele>206.9</ele>
        <time>2022-09-24T11:09:48Z</time>
      </trkpt>
      <trkpt lat="45.79507" lon="5.12207">
        <ele>206.9</ele>
        <time>2022-09-24T11:09:49Z</time>
      </trkpt>
      <trkpt lat="45.79505" lon="5.12213">
        <ele>207</ele>
        <time>2022-09-24T11:09:50Z</time>
      </trkpt>
      <trkpt lat="45.79503" lon="5.12219">
        <ele>207</ele>
        <time>2022-09-24T11:09:51Z</time>
      </trkpt>
      <trkpt lat="45.79502" lon="5.12225">
        <ele>207.1</ele>
        <time>2022-09-24T11:09:52Z</time>
      </trkpt>
      <trkpt lat="45.795" lon="5.1223">
        <ele>207.2</ele>
        <time>2022-09-24T11:09:53Z</time>
      </trkpt>
      <trkpt lat="45.79499" lon="5.12235">
        <ele>207.2</ele>
        <time>2022-09-24T11:09:54Z</time>
      </trkpt>
      <trkpt lat="45.79498" lon="5.1224">
        <ele>207.2</ele>
        <time>2022-09-24T11:09:55Z</time>
      </trkpt>
      <trkpt lat="45.79497" lon="5.12243">
        <ele>207.3</ele>
        <time>2022-09-24T11:09:56Z</time>
      </trkpt>
      <trkpt lat="45.79496" lon="5.12249">
        <ele>207.7</ele>
        <time>2022-09-24T11:09:57Z</time>
      </trkpt>
      <trkpt lat="45.79496" lon="5.12251">
        <ele>207.7</ele>
        <time>2022-09-24T11:09:58Z</time>
      </trkpt>
      <trkpt lat="45.79496" lon="5.12256">
        <ele>207.7</ele>
        <time>2022-09-24T11:09:59Z</time>
      </trkpt>
      <trkpt lat="45.79495" lon="5.12258">
        <ele>207.8</ele>
        <time>2022-09-24T11:10:00Z</time>
      </trkpt>
      <trkpt lat="45.79495" lon="5.12262">
        <ele>207.8</ele>
        <time>2022-09-24T11:10:01Z</time>
      </trkpt>
      <trkpt lat="45.79494" lon="5.12267">
        <ele>207.8</ele>
        <time>2022-09-24T11:10:02Z</time>
      </trkpt>
      <trkpt lat="45.79494" lon="5.12272">
        <ele>207.6</ele>
        <time>2022-09-24T11:10:03Z</time>
      </trkpt>
      <trkpt lat="45.79492" lon="5.12276">
        <ele>207.6</ele>
        <time>2022-09-24T11:10:04Z</time>
      </trkpt>
      <trkpt lat="45.7949" lon="5.12281">
        <ele>207.6</ele>
        <time>2022-09-24T11:10:05Z</time>
      </trkpt>
      <trkpt lat="45.7949" lon="5.12287">
        <ele>207.6</ele>
        <time>2022-09-24T11:10:06Z</time>
      </trkpt>
      <trkpt lat="45.79489" lon="5.12293">
        <ele>207.6</ele>
        <time>2022-09-24T11:10:07Z</time>
      </trkpt>
      <trkpt lat="45.79488" lon="5.12299">
        <ele>207.6</ele>
        <time>2022-09-24T11:10:08Z</time>
      </trkpt>
      <trkpt lat="45.79486" lon="5.12306">
        <ele>207.6</ele>
        <time>2022-09-24T11:10:09Z</time>
      </trkpt>
      <trkpt lat="45.79484" lon="5.12313">
        <ele>207.6</ele>
        <time>2022-09-24T11:10:10Z</time>
      </trkpt>
      <trkpt lat="45.79482" lon="5.1232">
        <ele>207.7</ele>
        <time>2022-09-24T11:10:11Z</time>
      </trkpt>
      <trkpt lat="45.7948" lon="5.12327">
        <ele>207.7</ele>
        <time>2022-09-24T11:10:12Z</time>
      </trkpt>
      <trkpt lat="45.79478" lon="5.12335">
        <ele>207.8</ele>
        <time>2022-09-24T11:10:13Z</time>
      </trkpt>
      <trkpt lat="45.79476" lon="5.12341">
        <ele>207.8</ele>
        <time>2022-09-24T11:10:14Z</time>
      </trkpt>
      <trkpt lat="45.79475" lon="5.12348">
        <ele>207.9</ele>
        <time>2022-09-24T11:10:15Z</time>
      </trkpt>
      <trkpt lat="45.79473" lon="5.12355">
        <ele>207.9</ele>
        <time>2022-09-24T11:10:16Z</time>
      </trkpt>
      <trkpt lat="45.79472" lon="5.12361">
        <ele>208</ele>
        <time>2022-09-24T11:10:17Z</time>
      </trkpt>
      <trkpt lat="45.79471" lon="5.12368">
        <ele>208.1</ele>
        <time>2022-09-24T11:10:18Z</time>
      </trkpt>
      <trkpt lat="45.79469" lon="5.12374">
        <ele>208.2</ele>
        <time>2022-09-24T11:10:19Z</time>
      </trkpt>
      <trkpt lat="45.79468" lon="5.12381">
        <ele>208.2</ele>
        <time>2022-09-24T11:10:20Z</time>
      </trkpt>
      <trkpt lat="45.79467" lon="5.12385">
        <ele>208.3</ele>
        <time>2022-09-24T11:10:21Z</time>
      </trkpt>
      <trkpt lat="45.79465" lon="5.12391">
        <ele>208.4</ele>
        <time>2022-09-24T11:10:22Z</time>
      </trkpt>
      <trkpt lat="45.79463" lon="5.12397">
        <ele>208.4</ele>
        <time>2022-09-24T11:10:23Z</time>
      </trkpt>
      <trkpt lat="45.79461" lon="5.12404">
        <ele>208.5</ele>
        <time>2022-09-24T11:10:24Z</time>
      </trkpt>
      <trkpt lat="45.79461" lon="5.12408">
        <ele>208.5</ele>
        <time>2022-09-24T11:10:25Z</time>
      </trkpt>
      <trkpt lat="45.7946" lon="5.12415">
        <ele>208.6</ele>
        <time>2022-09-24T11:10:26Z</time>
      </trkpt>
      <trkpt lat="45.79459" lon="5.12422">
        <ele>208.7</ele>
        <time>2022-09-24T11:10:27Z</time>
      </trkpt>
      <trkpt lat="45.79458" lon="5.12427">
        <ele>208.7</ele>
        <time>2022-09-24T11:10:28Z</time>
      </trkpt>
      <trkpt lat="45.79456" lon="5.12436">
        <ele>208.8</ele>
        <time>2022-09-24T11:10:29Z</time>
      </trkpt>
      <trkpt lat="45.79453" lon="5.12442">
        <ele>208.9</ele>
        <time>2022-09-24T11:10:30Z</time>
      </trkpt>
      <trkpt lat="45.79453" lon="5.12448">
        <ele>208.9</ele>
        <time>2022-09-24T11:10:31Z</time>
      </trkpt>
      <trkpt lat="45.79452" lon="5.12454">
        <ele>209</ele>
        <time>2022-09-24T11:10:32Z</time>
      </trkpt>
      <trkpt lat="45.79451" lon="5.12459">
        <ele>209</ele>
        <time>2022-09-24T11:10:33Z</time>
      </trkpt>
      <trkpt lat="45.79449" lon="5.12465">
        <ele>209.1</ele>
        <time>2022-09-24T11:10:34Z</time>
      </trkpt>
      <trkpt lat="45.79447" lon="5.12473">
        <ele>209.1</ele>
        <time>2022-09-24T11:10:35Z</time>
      </trkpt>
      <trkpt lat="45.79445" lon="5.12479">
        <ele>209.2</ele>
        <time>2022-09-24T11:10:36Z</time>
      </trkpt>
      <trkpt lat="45.79445" lon="5.12484">
        <ele>209.2</ele>
        <time>2022-09-24T11:10:37Z</time>
      </trkpt>
      <trkpt lat="45.79442" lon="5.12492">
        <ele>209.3</ele>
        <time>2022-09-24T11:10:38Z</time>
      </trkpt>
      <trkpt lat="45.79441" lon="5.12498">
        <ele>209.3</ele>
        <time>2022-09-24T11:10:39Z</time>
      </trkpt>
      <trkpt lat="45.79437" lon="5.12506">
        <ele>209.3</ele>
        <time>2022-09-24T11:10:40Z</time>
      </trkpt>
      <trkpt lat="45.79437" lon="5.12511">
        <ele>209.4</ele>
        <time>2022-09-24T11:10:41Z</time>
      </trkpt>
      <trkpt lat="45.79436" lon="5.12518">
        <ele>209.4</ele>
        <time>2022-09-24T11:10:42Z</time>
      </trkpt>
      <trkpt lat="45.79434" lon="5.12526">
        <ele>209.4</ele>
        <time>2022-09-24T11:10:43Z</time>
      </trkpt>
      <trkpt lat="45.79432" lon="5.12532">
        <ele>209.4</ele>
        <time>2022-09-24T11:10:44Z</time>
      </trkpt>
      <trkpt lat="45.79431" lon="5.1254">
        <ele>209.5</ele>
        <time>2022-09-24T11:10:46Z</time>
      </trkpt>
      <trkpt lat="45.79429" lon="5.12547">
        <ele>209.5</ele>
        <time>2022-09-24T11:10:47Z</time>
      </trkpt>
      <trkpt lat="45.79426" lon="5.12553">
        <ele>209.5</ele>
        <time>2022-09-24T11:10:48Z</time>
      </trkpt>
      <trkpt lat="45.79426" lon="5.12558">
        <ele>209.5</ele>
        <time>2022-09-24T11:10:49Z</time>
      </trkpt>
      <trkpt lat="45.79424" lon="5.12565">
        <ele>209.6</ele>
        <time>2022-09-24T11:10:50Z</time>
      </trkpt>
      <trkpt lat="45.79422" lon="5.12572">
        <ele>209.6</ele>
        <time>2022-09-24T11:10:51Z</time>
      </trkpt>
      <trkpt lat="45.7942" lon="5.12578">
        <ele>209.7</ele>
        <time>2022-09-24T11:10:52Z</time>
      </trkpt>
      <trkpt lat="45.79418" lon="5.12584">
        <ele>209.7</ele>
        <time>2022-09-24T11:10:53Z</time>
      </trkpt>
      <trkpt lat="45.79417" lon="5.12591">
        <ele>209.8</ele>
        <time>2022-09-24T11:10:54Z</time>
      </trkpt>
      <trkpt lat="45.79417" lon="5.12597">
        <ele>209.8</ele>
        <time>2022-09-24T11:10:55Z</time>
      </trkpt>
      <trkpt lat="45.79416" lon="5.12602">
        <ele>209.8</ele>
        <time>2022-09-24T11:10:56Z</time>
      </trkpt>
      <trkpt lat="45.79414" lon="5.12609">
        <ele>209.8</ele>
        <time>2022-09-24T11:10:57Z</time>
      </trkpt>
      <trkpt lat="45.79414" lon="5.12614">
        <ele>209.8</ele>
        <time>2022-09-24T11:10:58Z</time>
      </trkpt>
      <trkpt lat="45.79413" lon="5.1262">
        <ele>209.8</ele>
        <time>2022-09-24T11:10:59Z</time>
      </trkpt>
      <trkpt lat="45.79415" lon="5.12626">
        <ele>209.8</ele>
        <time>2022-09-24T11:11:00Z</time>
      </trkpt>
      <trkpt lat="45.79415" lon="5.12632">
        <ele>209.8</ele>
        <time>2022-09-24T11:11:01Z</time>
      </trkpt>
      <trkpt lat="45.79417" lon="5.1264">
        <ele>209.7</ele>
        <time>2022-09-24T11:11:02Z</time>
      </trkpt>
      <trkpt lat="45.79419" lon="5.12647">
        <ele>209.7</ele>
        <time>2022-09-24T11:11:03Z</time>
      </trkpt>
      <trkpt lat="45.79419" lon="5.12654">
        <ele>209.7</ele>
        <time>2022-09-24T11:11:04Z</time>
      </trkpt>
      <trkpt lat="45.7942" lon="5.12661">
        <ele>209.7</ele>
        <time>2022-09-24T11:11:05Z</time>
      </trkpt>
      <trkpt lat="45.7942" lon="5.12666">
        <ele>209.7</ele>
        <time>2022-09-24T11:11:06Z</time>
      </trkpt>
      <trkpt lat="45.79421" lon="5.12672">
        <ele>209.7</ele>
        <time>2022-09-24T11:11:07Z</time>
      </trkpt>
      <trkpt lat="45.79422" lon="5.12678">
        <ele>209.7</ele>
        <time>2022-09-24T11:11:08Z</time>
      </trkpt>
      <trkpt lat="45.79423" lon="5.12685">
        <ele>209.7</ele>
        <time>2022-09-24T11:11:09Z</time>
      </trkpt>
      <trkpt lat="45.79424" lon="5.12691">
        <ele>209.8</ele>
        <time>2022-09-24T11:11:10Z</time>
      </trkpt>
      <trkpt lat="45.79426" lon="5.127">
        <ele>209.8</ele>
        <time>2022-09-24T11:11:11Z</time>
      </trkpt>
      <trkpt lat="45.79427" lon="5.12708">
        <ele>209.8</ele>
        <time>2022-09-24T11:11:12Z</time>
      </trkpt>
      <trkpt lat="45.79429" lon="5.12715">
        <ele>209.8</ele>
        <time>2022-09-24T11:11:13Z</time>
      </trkpt>
      <trkpt lat="45.7943" lon="5.1272">
        <ele>209.8</ele>
        <time>2022-09-24T11:11:14Z</time>
      </trkpt>
      <trkpt lat="45.79431" lon="5.12729">
        <ele>209.8</ele>
        <time>2022-09-24T11:11:15Z</time>
      </trkpt>
      <trkpt lat="45.79432" lon="5.12735">
        <ele>209.8</ele>
        <time>2022-09-24T11:11:16Z</time>
      </trkpt>
      <trkpt lat="45.79433" lon="5.12743">
        <ele>209.9</ele>
        <time>2022-09-24T11:11:17Z</time>
      </trkpt>
      <trkpt lat="45.79434" lon="5.12748">
        <ele>209.9</ele>
        <time>2022-09-24T11:11:18Z</time>
      </trkpt>
      <trkpt lat="45.79435" lon="5.12755">
        <ele>209.9</ele>
        <time>2022-09-24T11:11:19Z</time>
      </trkpt>
      <trkpt lat="45.79435" lon="5.1276">
        <ele>209.9</ele>
        <time>2022-09-24T11:11:20Z</time>
      </trkpt>
      <trkpt lat="45.79435" lon="5.12765">
        <ele>209.9</ele>
        <time>2022-09-24T11:11:21Z</time>
      </trkpt>
      <trkpt lat="45.79435" lon="5.12769">
        <ele>210</ele>
        <time>2022-09-24T11:11:22Z</time>
      </trkpt>
      <trkpt lat="45.79437" lon="5.12775">
        <ele>210</ele>
        <time>2022-09-24T11:11:23Z</time>
      </trkpt>
      <trkpt lat="45.79437" lon="5.12779">
        <ele>210</ele>
        <time>2022-09-24T11:11:24Z</time>
      </trkpt>
      <trkpt lat="45.79438" lon="5.12785">
        <ele>210.1</ele>
        <time>2022-09-24T11:11:25Z</time>
      </trkpt>
      <trkpt lat="45.79439" lon="5.1279">
        <ele>210.2</ele>
        <time>2022-09-24T11:11:26Z</time>
      </trkpt>
      <trkpt lat="45.79438" lon="5.12794">
        <ele>210.3</ele>
        <time>2022-09-24T11:11:27Z</time>
      </trkpt>
      <trkpt lat="45.79439" lon="5.12796">
        <ele>210.4</ele>
        <time>2022-09-24T11:11:28Z</time>
      </trkpt>
      <trkpt lat="45.79439" lon="5.12803">
        <ele>210.6</ele>
        <time>2022-09-24T11:11:29Z</time>
      </trkpt>
      <trkpt lat="45.7944" lon="5.12811">
        <ele>210.8</ele>
        <time>2022-09-24T11:11:30Z</time>
      </trkpt>
      <trkpt lat="45.7944" lon="5.12817">
        <ele>211</ele>
        <time>2022-09-24T11:11:31Z</time>
      </trkpt>
      <trkpt lat="45.79441" lon="5.12821">
        <ele>211.2</ele>
        <time>2022-09-24T11:11:32Z</time>
      </trkpt>
      <trkpt lat="45.7944" lon="5.12827">
        <ele>211.4</ele>
        <time>2022-09-24T11:11:33Z</time>
      </trkpt>
      <trkpt lat="45.79441" lon="5.12833">
        <ele>211.6</ele>
        <time>2022-09-24T11:11:34Z</time>
      </trkpt>
      <trkpt lat="45.79443" lon="5.12839">
        <ele>211.7</ele>
        <time>2022-09-24T11:11:35Z</time>
      </trkpt>
      <trkpt lat="45.79443" lon="5.12844">
        <ele>211.8</ele>
        <time>2022-09-24T11:11:36Z</time>
      </trkpt>
      <trkpt lat="45.79444" lon="5.12852">
        <ele>212</ele>
        <time>2022-09-24T11:11:37Z</time>
      </trkpt>
      <trkpt lat="45.79444" lon="5.12858">
        <ele>212.1</ele>
        <time>2022-09-24T11:11:38Z</time>
      </trkpt>
      <trkpt lat="45.79445" lon="5.12864">
        <ele>212.2</ele>
        <time>2022-09-24T11:11:39Z</time>
      </trkpt>
      <trkpt lat="45.79446" lon="5.1287">
        <ele>212.3</ele>
        <time>2022-09-24T11:11:40Z</time>
      </trkpt>
      <trkpt lat="45.79447" lon="5.12878">
        <ele>212.4</ele>
        <time>2022-09-24T11:11:41Z</time>
      </trkpt>
      <trkpt lat="45.79447" lon="5.12885">
        <ele>212.5</ele>
        <time>2022-09-24T11:11:42Z</time>
      </trkpt>
      <trkpt lat="45.79447" lon="5.12891">
        <ele>212.5</ele>
        <time>2022-09-24T11:11:43Z</time>
      </trkpt>
      <trkpt lat="45.79448" lon="5.12898">
        <ele>212.6</ele>
        <time>2022-09-24T11:11:44Z</time>
      </trkpt>
      <trkpt lat="45.79449" lon="5.12904">
        <ele>212.6</ele>
        <time>2022-09-24T11:11:45Z</time>
      </trkpt>
      <trkpt lat="45.7945" lon="5.1291">
        <ele>212.7</ele>
        <time>2022-09-24T11:11:46Z</time>
      </trkpt>
      <trkpt lat="45.79451" lon="5.12924">
        <ele>212.8</ele>
        <time>2022-09-24T11:11:47Z</time>
      </trkpt>
      <trkpt lat="45.79451" lon="5.1293">
        <ele>212.9</ele>
        <time>2022-09-24T11:11:48Z</time>
      </trkpt>
      <trkpt lat="45.79452" lon="5.12936">
        <ele>212.9</ele>
        <time>2022-09-24T11:11:49Z</time>
      </trkpt>
      <trkpt lat="45.79454" lon="5.12942">
        <ele>213</ele>
        <time>2022-09-24T11:11:50Z</time>
      </trkpt>
      <trkpt lat="45.79454" lon="5.12949">
        <ele>213</ele>
        <time>2022-09-24T11:11:51Z</time>
      </trkpt>
      <trkpt lat="45.79455" lon="5.12956">
        <ele>213.1</ele>
        <time>2022-09-24T11:11:52Z</time>
      </trkpt>
      <trkpt lat="45.79455" lon="5.12963">
        <ele>213.1</ele>
        <time>2022-09-24T11:11:53Z</time>
      </trkpt>
      <trkpt lat="45.79456" lon="5.1297">
        <ele>213.2</ele>
        <time>2022-09-24T11:11:54Z</time>
      </trkpt>
      <trkpt lat="45.79457" lon="5.12977">
        <ele>213.2</ele>
        <time>2022-09-24T11:11:55Z</time>
      </trkpt>
      <trkpt lat="45.79457" lon="5.12984">
        <ele>213.3</ele>
        <time>2022-09-24T11:11:56Z</time>
      </trkpt>
      <trkpt lat="45.79458" lon="5.1299">
        <ele>213.3</ele>
        <time>2022-09-24T11:11:57Z</time>
      </trkpt>
      <trkpt lat="45.79459" lon="5.12997">
        <ele>213.4</ele>
        <time>2022-09-24T11:11:58Z</time>
      </trkpt>
      <trkpt lat="45.79458" lon="5.13003">
        <ele>213.5</ele>
        <time>2022-09-24T11:11:59Z</time>
      </trkpt>
      <trkpt lat="45.79458" lon="5.13009">
        <ele>213.6</ele>
        <time>2022-09-24T11:12:00Z</time>
      </trkpt>
      <trkpt lat="45.79459" lon="5.13015">
        <ele>213.6</ele>
        <time>2022-09-24T11:12:01Z</time>
      </trkpt>
      <trkpt lat="45.79459" lon="5.1302">
        <ele>213.7</ele>
        <time>2022-09-24T11:12:02Z</time>
      </trkpt>
      <trkpt lat="45.79459" lon="5.13025">
        <ele>213.7</ele>
        <time>2022-09-24T11:12:03Z</time>
      </trkpt>
      <trkpt lat="45.7946" lon="5.13029">
        <ele>213.8</ele>
        <time>2022-09-24T11:12:04Z</time>
      </trkpt>
      <trkpt lat="45.7946" lon="5.13031">
        <ele>213.8</ele>
        <time>2022-09-24T11:12:05Z</time>
      </trkpt>
      <trkpt lat="45.79462" lon="5.13036">
        <ele>213.9</ele>
        <time>2022-09-24T11:12:06Z</time>
      </trkpt>
      <trkpt lat="45.79462" lon="5.13038">
        <ele>213.9</ele>
        <time>2022-09-24T11:12:07Z</time>
      </trkpt>
      <trkpt lat="45.79461" lon="5.13039">
        <ele>213.9</ele>
        <time>2022-09-24T11:12:08Z</time>
      </trkpt>
      <trkpt lat="45.79461" lon="5.13042">
        <ele>214</ele>
        <time>2022-09-24T11:12:09Z</time>
      </trkpt>
      <trkpt lat="45.79459" lon="5.13046">
        <ele>214</ele>
        <time>2022-09-24T11:12:10Z</time>
      </trkpt>
      <trkpt lat="45.79457" lon="5.1305">
        <ele>214.1</ele>
        <time>2022-09-24T11:12:11Z</time>
      </trkpt>
      <trkpt lat="45.79454" lon="5.13054">
        <ele>214.2</ele>
        <time>2022-09-24T11:12:12Z</time>
      </trkpt>
      <trkpt lat="45.79453" lon="5.13056">
        <ele>214.2</ele>
        <time>2022-09-24T11:12:13Z</time>
      </trkpt>
      <trkpt lat="45.79452" lon="5.13061">
        <ele>214.3</ele>
        <time>2022-09-24T11:12:14Z</time>
      </trkpt>
      <trkpt lat="45.79453" lon="5.13066">
        <ele>214.3</ele>
        <time>2022-09-24T11:12:15Z</time>
      </trkpt>
      <trkpt lat="45.79453" lon="5.13072">
        <ele>214.3</ele>
        <time>2022-09-24T11:12:16Z</time>
      </trkpt>
      <trkpt lat="45.79453" lon="5.13075">
        <ele>214.3</ele>
        <time>2022-09-24T11:12:17Z</time>
      </trkpt>
      <trkpt lat="45.79453" lon="5.1308">
        <ele>214.4</ele>
        <time>2022-09-24T11:12:18Z</time>
      </trkpt>
      <trkpt lat="45.79454" lon="5.13086">
        <ele>214.4</ele>
        <time>2022-09-24T11:12:19Z</time>
      </trkpt>
      <trkpt lat="45.79454" lon="5.13091">
        <ele>214.4</ele>
        <time>2022-09-24T11:12:20Z</time>
      </trkpt>
      <trkpt lat="45.79455" lon="5.13096">
        <ele>214.4</ele>
        <time>2022-09-24T11:12:21Z</time>
      </trkpt>
      <trkpt lat="45.79456" lon="5.13099">
        <ele>214.4</ele>
        <time>2022-09-24T11:12:22Z</time>
      </trkpt>
      <trkpt lat="45.79455" lon="5.13105">
        <ele>214.5</ele>
        <time>2022-09-24T11:12:23Z</time>
      </trkpt>
      <trkpt lat="45.79455" lon="5.13107">
        <ele>214.5</ele>
        <time>2022-09-24T11:12:24Z</time>
      </trkpt>
      <trkpt lat="45.79456" lon="5.13112">
        <ele>214.5</ele>
        <time>2022-09-24T11:12:25Z</time>
      </trkpt>
      <trkpt lat="45.79456" lon="5.13119">
        <ele>214.6</ele>
        <time>2022-09-24T11:12:26Z</time>
      </trkpt>
      <trkpt lat="45.79456" lon="5.13123">
        <ele>214.7</ele>
        <time>2022-09-24T11:12:27Z</time>
      </trkpt>
      <trkpt lat="45.79455" lon="5.13131">
        <ele>214.7</ele>
        <time>2022-09-24T11:12:28Z</time>
      </trkpt>
      <trkpt lat="45.79455" lon="5.13137">
        <ele>214.8</ele>
        <time>2022-09-24T11:12:29Z</time>
      </trkpt>
      <trkpt lat="45.79457" lon="5.13141">
        <ele>214.8</ele>
        <time>2022-09-24T11:12:30Z</time>
      </trkpt>
      <trkpt lat="45.79457" lon="5.13147">
        <ele>214.9</ele>
        <time>2022-09-24T11:12:31Z</time>
      </trkpt>
      <trkpt lat="45.79457" lon="5.13152">
        <ele>215</ele>
        <time>2022-09-24T11:12:32Z</time>
      </trkpt>
      <trkpt lat="45.79455" lon="5.1316">
        <ele>215</ele>
        <time>2022-09-24T11:12:33Z</time>
      </trkpt>
      <trkpt lat="45.79456" lon="5.13165">
        <ele>215.1</ele>
        <time>2022-09-24T11:12:34Z</time>
      </trkpt>
      <trkpt lat="45.79457" lon="5.1317">
        <ele>215.2</ele>
        <time>2022-09-24T11:12:35Z</time>
      </trkpt>
      <trkpt lat="45.79457" lon="5.13176">
        <ele>215.2</ele>
        <time>2022-09-24T11:12:36Z</time>
      </trkpt>
      <trkpt lat="45.79457" lon="5.13182">
        <ele>215.3</ele>
        <time>2022-09-24T11:12:37Z</time>
      </trkpt>
      <trkpt lat="45.79457" lon="5.13189">
        <ele>215.3</ele>
        <time>2022-09-24T11:12:38Z</time>
      </trkpt>
      <trkpt lat="45.79457" lon="5.13195">
        <ele>215.4</ele>
        <time>2022-09-24T11:12:39Z</time>
      </trkpt>
      <trkpt lat="45.79458" lon="5.13201">
        <ele>215.4</ele>
        <time>2022-09-24T11:12:40Z</time>
      </trkpt>
      <trkpt lat="45.79459" lon="5.13208">
        <ele>215.5</ele>
        <time>2022-09-24T11:12:41Z</time>
      </trkpt>
      <trkpt lat="45.79458" lon="5.13212">
        <ele>215.5</ele>
        <time>2022-09-24T11:12:42Z</time>
      </trkpt>
      <trkpt lat="45.79459" lon="5.13218">
        <ele>215.6</ele>
        <time>2022-09-24T11:12:43Z</time>
      </trkpt>
      <trkpt lat="45.79459" lon="5.13225">
        <ele>215.6</ele>
        <time>2022-09-24T11:12:44Z</time>
      </trkpt>
      <trkpt lat="45.7946" lon="5.13232">
        <ele>215.7</ele>
        <time>2022-09-24T11:12:45Z</time>
      </trkpt>
      <trkpt lat="45.7946" lon="5.13238">
        <ele>215.8</ele>
        <time>2022-09-24T11:12:46Z</time>
      </trkpt>
      <trkpt lat="45.79461" lon="5.13246">
        <ele>215.9</ele>
        <time>2022-09-24T11:12:47Z</time>
      </trkpt>
      <trkpt lat="45.7946" lon="5.13252">
        <ele>215.9</ele>
        <time>2022-09-24T11:12:48Z</time>
      </trkpt>
      <trkpt lat="45.79461" lon="5.13258">
        <ele>216</ele>
        <time>2022-09-24T11:12:49Z</time>
      </trkpt>
      <trkpt lat="45.79461" lon="5.13265">
        <ele>216.1</ele>
        <time>2022-09-24T11:12:50Z</time>
      </trkpt>
      <trkpt lat="45.79461" lon="5.13271">
        <ele>216.2</ele>
        <time>2022-09-24T11:12:52Z</time>
      </trkpt>
      <trkpt lat="45.79461" lon="5.13278">
        <ele>216.3</ele>
        <time>2022-09-24T11:12:53Z</time>
      </trkpt>
      <trkpt lat="45.79461" lon="5.13284">
        <ele>216.3</ele>
        <time>2022-09-24T11:12:54Z</time>
      </trkpt>
      <trkpt lat="45.79461" lon="5.1329">
        <ele>216.4</ele>
        <time>2022-09-24T11:12:55Z</time>
      </trkpt>
      <trkpt lat="45.79461" lon="5.13296">
        <ele>216.5</ele>
        <time>2022-09-24T11:12:56Z</time>
      </trkpt>
      <trkpt lat="45.79461" lon="5.13302">
        <ele>216.6</ele>
        <time>2022-09-24T11:12:57Z</time>
      </trkpt>
      <trkpt lat="45.79461" lon="5.13308">
        <ele>216.6</ele>
        <time>2022-09-24T11:12:58Z</time>
      </trkpt>
      <trkpt lat="45.79461" lon="5.13314">
        <ele>216.7</ele>
        <time>2022-09-24T11:12:59Z</time>
      </trkpt>
      <trkpt lat="45.79462" lon="5.1332">
        <ele>216.7</ele>
        <time>2022-09-24T11:13:00Z</time>
      </trkpt>
      <trkpt lat="45.79463" lon="5.13325">
        <ele>216.8</ele>
        <time>2022-09-24T11:13:01Z</time>
      </trkpt>
      <trkpt lat="45.79463" lon="5.13332">
        <ele>216.9</ele>
        <time>2022-09-24T11:13:02Z</time>
      </trkpt>
      <trkpt lat="45.79462" lon="5.13338">
        <ele>216.9</ele>
        <time>2022-09-24T11:13:03Z</time>
      </trkpt>
      <trkpt lat="45.79462" lon="5.13344">
        <ele>217</ele>
        <time>2022-09-24T11:13:04Z</time>
      </trkpt>
      <trkpt lat="45.79463" lon="5.13349">
        <ele>217</ele>
        <time>2022-09-24T11:13:05Z</time>
      </trkpt>
      <trkpt lat="45.79463" lon="5.13355">
        <ele>217.1</ele>
        <time>2022-09-24T11:13:06Z</time>
      </trkpt>
      <trkpt lat="45.79462" lon="5.1336">
        <ele>217.2</ele>
        <time>2022-09-24T11:13:07Z</time>
      </trkpt>
      <trkpt lat="45.79463" lon="5.13365">
        <ele>217.2</ele>
        <time>2022-09-24T11:13:08Z</time>
      </trkpt>
      <trkpt lat="45.79463" lon="5.13371">
        <ele>217.3</ele>
        <time>2022-09-24T11:13:09Z</time>
      </trkpt>
      <trkpt lat="45.79462" lon="5.13376">
        <ele>217.3</ele>
        <time>2022-09-24T11:13:10Z</time>
      </trkpt>
      <trkpt lat="45.79462" lon="5.13382">
        <ele>217.4</ele>
        <time>2022-09-24T11:13:11Z</time>
      </trkpt>
      <trkpt lat="45.79463" lon="5.13388">
        <ele>217.4</ele>
        <time>2022-09-24T11:13:12Z</time>
      </trkpt>
      <trkpt lat="45.79463" lon="5.13394">
        <ele>217.5</ele>
        <time>2022-09-24T11:13:13Z</time>
      </trkpt>
      <trkpt lat="45.79463" lon="5.134">
        <ele>217.6</ele>
        <time>2022-09-24T11:13:14Z</time>
      </trkpt>
      <trkpt lat="45.79463" lon="5.13406">
        <ele>217.6</ele>
        <time>2022-09-24T11:13:15Z</time>
      </trkpt>
      <trkpt lat="45.79463" lon="5.13412">
        <ele>217.7</ele>
        <time>2022-09-24T11:13:16Z</time>
      </trkpt>
      <trkpt lat="45.79464" lon="5.13418">
        <ele>217.8</ele>
        <time>2022-09-24T11:13:17Z</time>
      </trkpt>
      <trkpt lat="45.79464" lon="5.13424">
        <ele>217.9</ele>
        <time>2022-09-24T11:13:18Z</time>
      </trkpt>
      <trkpt lat="45.79464" lon="5.1343">
        <ele>218</ele>
        <time>2022-09-24T11:13:19Z</time>
      </trkpt>
      <trkpt lat="45.79464" lon="5.13436">
        <ele>218.1</ele>
        <time>2022-09-24T11:13:20Z</time>
      </trkpt>
      <trkpt lat="45.79464" lon="5.13442">
        <ele>218.1</ele>
        <time>2022-09-24T11:13:21Z</time>
      </trkpt>
      <trkpt lat="45.79464" lon="5.13447">
        <ele>218.2</ele>
        <time>2022-09-24T11:13:22Z</time>
      </trkpt>
      <trkpt lat="45.79465" lon="5.13453">
        <ele>218.3</ele>
        <time>2022-09-24T11:13:23Z</time>
      </trkpt>
      <trkpt lat="45.79465" lon="5.13458">
        <ele>218.4</ele>
        <time>2022-09-24T11:13:24Z</time>
      </trkpt>
      <trkpt lat="45.79465" lon="5.13464">
        <ele>218.4</ele>
        <time>2022-09-24T11:13:25Z</time>
      </trkpt>
      <trkpt lat="45.79465" lon="5.13469">
        <ele>218.5</ele>
        <time>2022-09-24T11:13:26Z</time>
      </trkpt>
      <trkpt lat="45.79465" lon="5.13474">
        <ele>218.6</ele>
        <time>2022-09-24T11:13:27Z</time>
      </trkpt>
      <trkpt lat="45.79465" lon="5.1348">
        <ele>218.7</ele>
        <time>2022-09-24T11:13:28Z</time>
      </trkpt>
      <trkpt lat="45.79464" lon="5.13485">
        <ele>218.7</ele>
        <time>2022-09-24T11:13:29Z</time>
      </trkpt>
      <trkpt lat="45.79464" lon="5.1349">
        <ele>218.8</ele>
        <time>2022-09-24T11:13:30Z</time>
      </trkpt>
      <trkpt lat="45.79464" lon="5.13496">
        <ele>218.9</ele>
        <time>2022-09-24T11:13:31Z</time>
      </trkpt>
      <trkpt lat="45.79464" lon="5.13507">
        <ele>219.1</ele>
        <time>2022-09-24T11:13:32Z</time>
      </trkpt>
      <trkpt lat="45.79464" lon="5.13513">
        <ele>219.2</ele>
        <time>2022-09-24T11:13:33Z</time>
      </trkpt>
      <trkpt lat="45.79464" lon="5.1352">
        <ele>219.3</ele>
        <time>2022-09-24T11:13:34Z</time>
      </trkpt>
      <trkpt lat="45.79464" lon="5.13526">
        <ele>219.4</ele>
        <time>2022-09-24T11:13:35Z</time>
      </trkpt>
      <trkpt lat="45.79465" lon="5.13531">
        <ele>219.5</ele>
        <time>2022-09-24T11:13:36Z</time>
      </trkpt>
      <trkpt lat="45.79465" lon="5.13536">
        <ele>219.5</ele>
        <time>2022-09-24T11:13:37Z</time>
      </trkpt>
      <trkpt lat="45.79465" lon="5.13541">
        <ele>219.6</ele>
        <time>2022-09-24T11:13:38Z</time>
      </trkpt>
      <trkpt lat="45.79465" lon="5.13546">
        <ele>219.7</ele>
        <time>2022-09-24T11:13:39Z</time>
      </trkpt>
      <trkpt lat="45.79464" lon="5.13551">
        <ele>219.8</ele>
        <time>2022-09-24T11:13:40Z</time>
      </trkpt>
      <trkpt lat="45.79464" lon="5.13555">
        <ele>219.8</ele>
        <time>2022-09-24T11:13:41Z</time>
      </trkpt>
      <trkpt lat="45.79464" lon="5.13561">
        <ele>219.9</ele>
        <time>2022-09-24T11:13:42Z</time>
      </trkpt>
      <trkpt lat="45.79464" lon="5.13567">
        <ele>220</ele>
        <time>2022-09-24T11:13:43Z</time>
      </trkpt>
      <trkpt lat="45.79463" lon="5.13573">
        <ele>220</ele>
        <time>2022-09-24T11:13:44Z</time>
      </trkpt>
      <trkpt lat="45.79463" lon="5.13579">
        <ele>220.1</ele>
        <time>2022-09-24T11:13:45Z</time>
      </trkpt>
      <trkpt lat="45.79463" lon="5.13583">
        <ele>220.2</ele>
        <time>2022-09-24T11:13:46Z</time>
      </trkpt>
      <trkpt lat="45.79463" lon="5.13589">
        <ele>220.2</ele>
        <time>2022-09-24T11:13:47Z</time>
      </trkpt>
      <trkpt lat="45.79462" lon="5.13595">
        <ele>220.3</ele>
        <time>2022-09-24T11:13:48Z</time>
      </trkpt>
      <trkpt lat="45.79462" lon="5.13601">
        <ele>220.3</ele>
        <time>2022-09-24T11:13:49Z</time>
      </trkpt>
      <trkpt lat="45.79462" lon="5.13606">
        <ele>220.3</ele>
        <time>2022-09-24T11:13:50Z</time>
      </trkpt>
      <trkpt lat="45.79462" lon="5.13612">
        <ele>220.4</ele>
        <time>2022-09-24T11:13:51Z</time>
      </trkpt>
      <trkpt lat="45.79462" lon="5.13618">
        <ele>220.5</ele>
        <time>2022-09-24T11:13:52Z</time>
      </trkpt>
      <trkpt lat="45.79461" lon="5.13623">
        <ele>220.5</ele>
        <time>2022-09-24T11:13:53Z</time>
      </trkpt>
      <trkpt lat="45.79461" lon="5.13628">
        <ele>220.6</ele>
        <time>2022-09-24T11:13:54Z</time>
      </trkpt>
      <trkpt lat="45.79461" lon="5.13634">
        <ele>220.6</ele>
        <time>2022-09-24T11:13:55Z</time>
      </trkpt>
      <trkpt lat="45.79461" lon="5.1364">
        <ele>220.7</ele>
        <time>2022-09-24T11:13:56Z</time>
      </trkpt>
      <trkpt lat="45.79461" lon="5.13645">
        <ele>220.7</ele>
        <time>2022-09-24T11:13:57Z</time>
      </trkpt>
      <trkpt lat="45.79461" lon="5.13651">
        <ele>220.8</ele>
        <time>2022-09-24T11:13:58Z</time>
      </trkpt>
      <trkpt lat="45.79461" lon="5.13656">
        <ele>220.8</ele>
        <time>2022-09-24T11:13:59Z</time>
      </trkpt>
      <trkpt lat="45.79461" lon="5.13661">
        <ele>220.8</ele>
        <time>2022-09-24T11:14:00Z</time>
      </trkpt>
      <trkpt lat="45.79461" lon="5.13667">
        <ele>220.9</ele>
        <time>2022-09-24T11:14:01Z</time>
      </trkpt>
      <trkpt lat="45.7946" lon="5.13672">
        <ele>220.9</ele>
        <time>2022-09-24T11:14:02Z</time>
      </trkpt>
      <trkpt lat="45.7946" lon="5.13678">
        <ele>221</ele>
        <time>2022-09-24T11:14:03Z</time>
      </trkpt>
      <trkpt lat="45.7946" lon="5.13684">
        <ele>221</ele>
        <time>2022-09-24T11:14:04Z</time>
      </trkpt>
      <trkpt lat="45.79459" lon="5.13691">
        <ele>221.1</ele>
        <time>2022-09-24T11:14:05Z</time>
      </trkpt>
      <trkpt lat="45.79458" lon="5.13697">
        <ele>221.2</ele>
        <time>2022-09-24T11:14:06Z</time>
      </trkpt>
      <trkpt lat="45.79457" lon="5.13703">
        <ele>221.3</ele>
        <time>2022-09-24T11:14:07Z</time>
      </trkpt>
      <trkpt lat="45.79456" lon="5.13709">
        <ele>221.3</ele>
        <time>2022-09-24T11:14:08Z</time>
      </trkpt>
      <trkpt lat="45.79454" lon="5.13714">
        <ele>221.4</ele>
        <time>2022-09-24T11:14:09Z</time>
      </trkpt>
      <trkpt lat="45.79453" lon="5.1372">
        <ele>221.5</ele>
        <time>2022-09-24T11:14:10Z</time>
      </trkpt>
      <trkpt lat="45.79451" lon="5.13726">
        <ele>221.6</ele>
        <time>2022-09-24T11:14:11Z</time>
      </trkpt>
      <trkpt lat="45.7945" lon="5.1373">
        <ele>221.7</ele>
        <time>2022-09-24T11:14:12Z</time>
      </trkpt>
      <trkpt lat="45.79448" lon="5.13736">
        <ele>221.7</ele>
        <time>2022-09-24T11:14:13Z</time>
      </trkpt>
      <trkpt lat="45.79447" lon="5.13741">
        <ele>221.8</ele>
        <time>2022-09-24T11:14:14Z</time>
      </trkpt>
      <trkpt lat="45.79446" lon="5.13746">
        <ele>221.9</ele>
        <time>2022-09-24T11:14:15Z</time>
      </trkpt>
      <trkpt lat="45.79445" lon="5.13752">
        <ele>221.9</ele>
        <time>2022-09-24T11:14:16Z</time>
      </trkpt>
      <trkpt lat="45.79444" lon="5.13756">
        <ele>222</ele>
        <time>2022-09-24T11:14:17Z</time>
      </trkpt>
      <trkpt lat="45.79443" lon="5.13761">
        <ele>222.1</ele>
        <time>2022-09-24T11:14:18Z</time>
      </trkpt>
      <trkpt lat="45.79442" lon="5.13767">
        <ele>222.1</ele>
        <time>2022-09-24T11:14:19Z</time>
      </trkpt>
      <trkpt lat="45.79441" lon="5.13772">
        <ele>222.2</ele>
        <time>2022-09-24T11:14:20Z</time>
      </trkpt>
      <trkpt lat="45.7944" lon="5.13777">
        <ele>222.2</ele>
        <time>2022-09-24T11:14:21Z</time>
      </trkpt>
      <trkpt lat="45.79439" lon="5.13783">
        <ele>222.3</ele>
        <time>2022-09-24T11:14:22Z</time>
      </trkpt>
      <trkpt lat="45.79438" lon="5.13788">
        <ele>222.4</ele>
        <time>2022-09-24T11:14:23Z</time>
      </trkpt>
      <trkpt lat="45.79436" lon="5.13794">
        <ele>222.4</ele>
        <time>2022-09-24T11:14:24Z</time>
      </trkpt>
      <trkpt lat="45.79435" lon="5.13799">
        <ele>222.5</ele>
        <time>2022-09-24T11:14:25Z</time>
      </trkpt>
      <trkpt lat="45.79435" lon="5.13804">
        <ele>222.6</ele>
        <time>2022-09-24T11:14:26Z</time>
      </trkpt>
      <trkpt lat="45.79434" lon="5.1381">
        <ele>222.7</ele>
        <time>2022-09-24T11:14:27Z</time>
      </trkpt>
      <trkpt lat="45.79432" lon="5.13815">
        <ele>222.7</ele>
        <time>2022-09-24T11:14:28Z</time>
      </trkpt>
      <trkpt lat="45.79431" lon="5.1382">
        <ele>222.8</ele>
        <time>2022-09-24T11:14:29Z</time>
      </trkpt>
      <trkpt lat="45.7943" lon="5.13825">
        <ele>222.9</ele>
        <time>2022-09-24T11:14:30Z</time>
      </trkpt>
      <trkpt lat="45.79429" lon="5.1383">
        <ele>222.9</ele>
        <time>2022-09-24T11:14:31Z</time>
      </trkpt>
      <trkpt lat="45.79428" lon="5.13835">
        <ele>223</ele>
        <time>2022-09-24T11:14:32Z</time>
      </trkpt>
      <trkpt lat="45.79428" lon="5.1384">
        <ele>223.1</ele>
        <time>2022-09-24T11:14:33Z</time>
      </trkpt>
      <trkpt lat="45.79426" lon="5.13845">
        <ele>223.1</ele>
        <time>2022-09-24T11:14:34Z</time>
      </trkpt>
      <trkpt lat="45.79425" lon="5.1385">
        <ele>223.2</ele>
        <time>2022-09-24T11:14:35Z</time>
      </trkpt>
      <trkpt lat="45.79424" lon="5.13855">
        <ele>223.2</ele>
        <time>2022-09-24T11:14:36Z</time>
      </trkpt>
      <trkpt lat="45.79423" lon="5.1386">
        <ele>223.3</ele>
        <time>2022-09-24T11:14:37Z</time>
      </trkpt>
      <trkpt lat="45.79422" lon="5.13866">
        <ele>223.3</ele>
        <time>2022-09-24T11:14:38Z</time>
      </trkpt>
      <trkpt lat="45.79421" lon="5.13871">
        <ele>223.4</ele>
        <time>2022-09-24T11:14:39Z</time>
      </trkpt>
      <trkpt lat="45.7942" lon="5.13877">
        <ele>223.5</ele>
        <time>2022-09-24T11:14:40Z</time>
      </trkpt>
      <trkpt lat="45.79419" lon="5.13882">
        <ele>223.5</ele>
        <time>2022-09-24T11:14:41Z</time>
      </trkpt>
      <trkpt lat="45.79418" lon="5.13888">
        <ele>223.6</ele>
        <time>2022-09-24T11:14:42Z</time>
      </trkpt>
      <trkpt lat="45.79416" lon="5.13894">
        <ele>223.7</ele>
        <time>2022-09-24T11:14:43Z</time>
      </trkpt>
      <trkpt lat="45.79415" lon="5.13899">
        <ele>223.7</ele>
        <time>2022-09-24T11:14:44Z</time>
      </trkpt>
      <trkpt lat="45.79414" lon="5.13904">
        <ele>223.8</ele>
        <time>2022-09-24T11:14:45Z</time>
      </trkpt>
      <trkpt lat="45.79413" lon="5.1391">
        <ele>223.9</ele>
        <time>2022-09-24T11:14:46Z</time>
      </trkpt>
      <trkpt lat="45.79412" lon="5.13915">
        <ele>224</ele>
        <time>2022-09-24T11:14:47Z</time>
      </trkpt>
      <trkpt lat="45.7941" lon="5.1392">
        <ele>224</ele>
        <time>2022-09-24T11:14:48Z</time>
      </trkpt>
      <trkpt lat="45.7941" lon="5.13925">
        <ele>224.1</ele>
        <time>2022-09-24T11:14:49Z</time>
      </trkpt>
      <trkpt lat="45.79408" lon="5.1393">
        <ele>224.2</ele>
        <time>2022-09-24T11:14:50Z</time>
      </trkpt>
      <trkpt lat="45.79407" lon="5.13936">
        <ele>224.2</ele>
        <time>2022-09-24T11:14:51Z</time>
      </trkpt>
      <trkpt lat="45.79406" lon="5.13941">
        <ele>224.3</ele>
        <time>2022-09-24T11:14:52Z</time>
      </trkpt>
      <trkpt lat="45.79404" lon="5.13946">
        <ele>224.4</ele>
        <time>2022-09-24T11:14:53Z</time>
      </trkpt>
      <trkpt lat="45.79403" lon="5.13951">
        <ele>224.4</ele>
        <time>2022-09-24T11:14:54Z</time>
      </trkpt>
      <trkpt lat="45.79402" lon="5.13957">
        <ele>224.5</ele>
        <time>2022-09-24T11:14:55Z</time>
      </trkpt>
      <trkpt lat="45.794" lon="5.13962">
        <ele>224.5</ele>
        <time>2022-09-24T11:14:56Z</time>
      </trkpt>
      <trkpt lat="45.79399" lon="5.13967">
        <ele>224.6</ele>
        <time>2022-09-24T11:14:58Z</time>
      </trkpt>
      <trkpt lat="45.79398" lon="5.13972">
        <ele>224.6</ele>
        <time>2022-09-24T11:14:59Z</time>
      </trkpt>
      <trkpt lat="45.79397" lon="5.13977">
        <ele>224.7</ele>
        <time>2022-09-24T11:15:00Z</time>
      </trkpt>
      <trkpt lat="45.79395" lon="5.13983">
        <ele>224.8</ele>
        <time>2022-09-24T11:15:01Z</time>
      </trkpt>
      <trkpt lat="45.79394" lon="5.13989">
        <ele>224.8</ele>
        <time>2022-09-24T11:15:02Z</time>
      </trkpt>
      <trkpt lat="45.79393" lon="5.13991">
        <ele>224.9</ele>
        <time>2022-09-24T11:15:03Z</time>
      </trkpt>
      <trkpt lat="45.79392" lon="5.13997">
        <ele>225</ele>
        <time>2022-09-24T11:15:04Z</time>
      </trkpt>
      <trkpt lat="45.7939" lon="5.14002">
        <ele>225</ele>
        <time>2022-09-24T11:15:05Z</time>
      </trkpt>
      <trkpt lat="45.79389" lon="5.14005">
        <ele>225.1</ele>
        <time>2022-09-24T11:15:06Z</time>
      </trkpt>
      <trkpt lat="45.79388" lon="5.14011">
        <ele>225.2</ele>
        <time>2022-09-24T11:15:07Z</time>
      </trkpt>
      <trkpt lat="45.79387" lon="5.14015">
        <ele>225.3</ele>
        <time>2022-09-24T11:15:08Z</time>
      </trkpt>
      <trkpt lat="45.79386" lon="5.1402">
        <ele>225.4</ele>
        <time>2022-09-24T11:15:09Z</time>
      </trkpt>
      <trkpt lat="45.79384" lon="5.14026">
        <ele>225.5</ele>
        <time>2022-09-24T11:15:10Z</time>
      </trkpt>
      <trkpt lat="45.79382" lon="5.14031">
        <ele>225.6</ele>
        <time>2022-09-24T11:15:11Z</time>
      </trkpt>
      <trkpt lat="45.7938" lon="5.14036">
        <ele>225.7</ele>
        <time>2022-09-24T11:15:12Z</time>
      </trkpt>
      <trkpt lat="45.79379" lon="5.14041">
        <ele>225.9</ele>
        <time>2022-09-24T11:15:13Z</time>
      </trkpt>
      <trkpt lat="45.79378" lon="5.14046">
        <ele>225.9</ele>
        <time>2022-09-24T11:15:14Z</time>
      </trkpt>
      <trkpt lat="45.79376" lon="5.14051">
        <ele>226</ele>
        <time>2022-09-24T11:15:15Z</time>
      </trkpt>
      <trkpt lat="45.79374" lon="5.14057">
        <ele>226.2</ele>
        <time>2022-09-24T11:15:16Z</time>
      </trkpt>
      <trkpt lat="45.79373" lon="5.14061">
        <ele>226.2</ele>
        <time>2022-09-24T11:15:17Z</time>
      </trkpt>
      <trkpt lat="45.79372" lon="5.14066">
        <ele>226.3</ele>
        <time>2022-09-24T11:15:18Z</time>
      </trkpt>
      <trkpt lat="45.7937" lon="5.14072">
        <ele>226.4</ele>
        <time>2022-09-24T11:15:19Z</time>
      </trkpt>
      <trkpt lat="45.7937" lon="5.14074">
        <ele>226.5</ele>
        <time>2022-09-24T11:15:20Z</time>
      </trkpt>
      <trkpt lat="45.79369" lon="5.14079">
        <ele>226.6</ele>
        <time>2022-09-24T11:15:21Z</time>
      </trkpt>
      <trkpt lat="45.79368" lon="5.14084">
        <ele>226.6</ele>
        <time>2022-09-24T11:15:22Z</time>
      </trkpt>
      <trkpt lat="45.79368" lon="5.1409">
        <ele>226.7</ele>
        <time>2022-09-24T11:15:23Z</time>
      </trkpt>
      <trkpt lat="45.79367" lon="5.14094">
        <ele>226.8</ele>
        <time>2022-09-24T11:15:24Z</time>
      </trkpt>
      <trkpt lat="45.79366" lon="5.14101">
        <ele>226.9</ele>
        <time>2022-09-24T11:15:25Z</time>
      </trkpt>
      <trkpt lat="45.79364" lon="5.14108">
        <ele>226.9</ele>
        <time>2022-09-24T11:15:26Z</time>
      </trkpt>
      <trkpt lat="45.79363" lon="5.14114">
        <ele>227</ele>
        <time>2022-09-24T11:15:27Z</time>
      </trkpt>
      <trkpt lat="45.79363" lon="5.14121">
        <ele>227</ele>
        <time>2022-09-24T11:15:28Z</time>
      </trkpt>
      <trkpt lat="45.79362" lon="5.14127">
        <ele>227</ele>
        <time>2022-09-24T11:15:29Z</time>
      </trkpt>
      <trkpt lat="45.79361" lon="5.14134">
        <ele>227</ele>
        <time>2022-09-24T11:15:30Z</time>
      </trkpt>
      <trkpt lat="45.79362" lon="5.1414">
        <ele>227</ele>
        <time>2022-09-24T11:15:31Z</time>
      </trkpt>
      <trkpt lat="45.79362" lon="5.14147">
        <ele>227</ele>
        <time>2022-09-24T11:15:32Z</time>
      </trkpt>
      <trkpt lat="45.79362" lon="5.14153">
        <ele>226.9</ele>
        <time>2022-09-24T11:15:33Z</time>
      </trkpt>
      <trkpt lat="45.79363" lon="5.14159">
        <ele>226.9</ele>
        <time>2022-09-24T11:15:34Z</time>
      </trkpt>
      <trkpt lat="45.79363" lon="5.14166">
        <ele>226.9</ele>
        <time>2022-09-24T11:15:35Z</time>
      </trkpt>
      <trkpt lat="45.79364" lon="5.14173">
        <ele>226.8</ele>
        <time>2022-09-24T11:15:36Z</time>
      </trkpt>
      <trkpt lat="45.79364" lon="5.1418">
        <ele>226.8</ele>
        <time>2022-09-24T11:15:37Z</time>
      </trkpt>
      <trkpt lat="45.79363" lon="5.14186">
        <ele>226.8</ele>
        <time>2022-09-24T11:15:38Z</time>
      </trkpt>
      <trkpt lat="45.79363" lon="5.14194">
        <ele>226.8</ele>
        <time>2022-09-24T11:15:39Z</time>
      </trkpt>
      <trkpt lat="45.79362" lon="5.14199">
        <ele>226.8</ele>
        <time>2022-09-24T11:15:40Z</time>
      </trkpt>
      <trkpt lat="45.79362" lon="5.14205">
        <ele>226.8</ele>
        <time>2022-09-24T11:15:41Z</time>
      </trkpt>
      <trkpt lat="45.79361" lon="5.14212">
        <ele>226.8</ele>
        <time>2022-09-24T11:15:42Z</time>
      </trkpt>
      <trkpt lat="45.7936" lon="5.14218">
        <ele>226.8</ele>
        <time>2022-09-24T11:15:43Z</time>
      </trkpt>
      <trkpt lat="45.79359" lon="5.14224">
        <ele>226.9</ele>
        <time>2022-09-24T11:15:44Z</time>
      </trkpt>
      <trkpt lat="45.79358" lon="5.14229">
        <ele>226.9</ele>
        <time>2022-09-24T11:15:45Z</time>
      </trkpt>
      <trkpt lat="45.79358" lon="5.14235">
        <ele>227</ele>
        <time>2022-09-24T11:15:46Z</time>
      </trkpt>
      <trkpt lat="45.79357" lon="5.14239">
        <ele>227</ele>
        <time>2022-09-24T11:15:47Z</time>
      </trkpt>
      <trkpt lat="45.79356" lon="5.14244">
        <ele>227.1</ele>
        <time>2022-09-24T11:15:48Z</time>
      </trkpt>
      <trkpt lat="45.79355" lon="5.14248">
        <ele>227.1</ele>
        <time>2022-09-24T11:15:49Z</time>
      </trkpt>
      <trkpt lat="45.79354" lon="5.14254">
        <ele>227.2</ele>
        <time>2022-09-24T11:15:50Z</time>
      </trkpt>
      <trkpt lat="45.79352" lon="5.14259">
        <ele>227.3</ele>
        <time>2022-09-24T11:15:51Z</time>
      </trkpt>
      <trkpt lat="45.79349" lon="5.14266">
        <ele>227.4</ele>
        <time>2022-09-24T11:15:52Z</time>
      </trkpt>
      <trkpt lat="45.79348" lon="5.14271">
        <ele>227.5</ele>
        <time>2022-09-24T11:15:53Z</time>
      </trkpt>
      <trkpt lat="45.79347" lon="5.14276">
        <ele>227.6</ele>
        <time>2022-09-24T11:15:54Z</time>
      </trkpt>
      <trkpt lat="45.79346" lon="5.1428">
        <ele>227.7</ele>
        <time>2022-09-24T11:15:55Z</time>
      </trkpt>
      <trkpt lat="45.79345" lon="5.14287">
        <ele>227.7</ele>
        <time>2022-09-24T11:15:56Z</time>
      </trkpt>
      <trkpt lat="45.79344" lon="5.14293">
        <ele>227.8</ele>
        <time>2022-09-24T11:15:57Z</time>
      </trkpt>
      <trkpt lat="45.79343" lon="5.14299">
        <ele>227.8</ele>
        <time>2022-09-24T11:15:58Z</time>
      </trkpt>
      <trkpt lat="45.79342" lon="5.14306">
        <ele>227.8</ele>
        <time>2022-09-24T11:15:59Z</time>
      </trkpt>
      <trkpt lat="45.79342" lon="5.14312">
        <ele>227.7</ele>
        <time>2022-09-24T11:16:00Z</time>
      </trkpt>
      <trkpt lat="45.7934" lon="5.14319">
        <ele>227.7</ele>
        <time>2022-09-24T11:16:01Z</time>
      </trkpt>
      <trkpt lat="45.79339" lon="5.14327">
        <ele>227.6</ele>
        <time>2022-09-24T11:16:02Z</time>
      </trkpt>
      <trkpt lat="45.79338" lon="5.14333">
        <ele>227.6</ele>
        <time>2022-09-24T11:16:03Z</time>
      </trkpt>
      <trkpt lat="45.79337" lon="5.1434">
        <ele>227.5</ele>
        <time>2022-09-24T11:16:04Z</time>
      </trkpt>
      <trkpt lat="45.79336" lon="5.14347">
        <ele>227.5</ele>
        <time>2022-09-24T11:16:05Z</time>
      </trkpt>
      <trkpt lat="45.79335" lon="5.14355">
        <ele>227.5</ele>
        <time>2022-09-24T11:16:06Z</time>
      </trkpt>
      <trkpt lat="45.79335" lon="5.14361">
        <ele>227.6</ele>
        <time>2022-09-24T11:16:07Z</time>
      </trkpt>
      <trkpt lat="45.79335" lon="5.14367">
        <ele>227.6</ele>
        <time>2022-09-24T11:16:08Z</time>
      </trkpt>
      <trkpt lat="45.79334" lon="5.14374">
        <ele>227.6</ele>
        <time>2022-09-24T11:16:09Z</time>
      </trkpt>
      <trkpt lat="45.79333" lon="5.14387">
        <ele>227.7</ele>
        <time>2022-09-24T11:16:10Z</time>
      </trkpt>
      <trkpt lat="45.79331" lon="5.14393">
        <ele>227.8</ele>
        <time>2022-09-24T11:16:11Z</time>
      </trkpt>
      <trkpt lat="45.7933" lon="5.144">
        <ele>227.8</ele>
        <time>2022-09-24T11:16:12Z</time>
      </trkpt>
      <trkpt lat="45.79329" lon="5.14406">
        <ele>227.9</ele>
        <time>2022-09-24T11:16:13Z</time>
      </trkpt>
      <trkpt lat="45.79328" lon="5.14412">
        <ele>228</ele>
        <time>2022-09-24T11:16:14Z</time>
      </trkpt>
      <trkpt lat="45.79326" lon="5.14418">
        <ele>228</ele>
        <time>2022-09-24T11:16:15Z</time>
      </trkpt>
      <trkpt lat="45.79325" lon="5.14423">
        <ele>228.1</ele>
        <time>2022-09-24T11:16:16Z</time>
      </trkpt>
      <trkpt lat="45.79323" lon="5.14429">
        <ele>228.2</ele>
        <time>2022-09-24T11:16:17Z</time>
      </trkpt>
      <trkpt lat="45.79321" lon="5.14435">
        <ele>228.2</ele>
        <time>2022-09-24T11:16:18Z</time>
      </trkpt>
      <trkpt lat="45.79319" lon="5.1444">
        <ele>228.3</ele>
        <time>2022-09-24T11:16:19Z</time>
      </trkpt>
      <trkpt lat="45.79318" lon="5.14446">
        <ele>228.4</ele>
        <time>2022-09-24T11:16:20Z</time>
      </trkpt>
      <trkpt lat="45.79316" lon="5.14451">
        <ele>228.5</ele>
        <time>2022-09-24T11:16:21Z</time>
      </trkpt>
      <trkpt lat="45.79314" lon="5.14457">
        <ele>228.6</ele>
        <time>2022-09-24T11:16:22Z</time>
      </trkpt>
      <trkpt lat="45.79312" lon="5.14462">
        <ele>228.7</ele>
        <time>2022-09-24T11:16:23Z</time>
      </trkpt>
      <trkpt lat="45.79311" lon="5.14466">
        <ele>228.8</ele>
        <time>2022-09-24T11:16:24Z</time>
      </trkpt>
      <trkpt lat="45.79309" lon="5.14472">
        <ele>228.9</ele>
        <time>2022-09-24T11:16:25Z</time>
      </trkpt>
      <trkpt lat="45.79307" lon="5.14477">
        <ele>228.9</ele>
        <time>2022-09-24T11:16:26Z</time>
      </trkpt>
      <trkpt lat="45.79307" lon="5.14482">
        <ele>229</ele>
        <time>2022-09-24T11:16:27Z</time>
      </trkpt>
      <trkpt lat="45.79306" lon="5.14487">
        <ele>228.9</ele>
        <time>2022-09-24T11:16:28Z</time>
      </trkpt>
      <trkpt lat="45.79306" lon="5.14493">
        <ele>228.9</ele>
        <time>2022-09-24T11:16:29Z</time>
      </trkpt>
      <trkpt lat="45.79306" lon="5.14495">
        <ele>228.9</ele>
        <time>2022-09-24T11:16:30Z</time>
      </trkpt>
      <trkpt lat="45.79305" lon="5.145">
        <ele>228.8</ele>
        <time>2022-09-24T11:16:31Z</time>
      </trkpt>
      <trkpt lat="45.79304" lon="5.14505">
        <ele>228.7</ele>
        <time>2022-09-24T11:16:32Z</time>
      </trkpt>
      <trkpt lat="45.79303" lon="5.14509">
        <ele>228.6</ele>
        <time>2022-09-24T11:16:33Z</time>
      </trkpt>
      <trkpt lat="45.79302" lon="5.14516">
        <ele>228.4</ele>
        <time>2022-09-24T11:16:34Z</time>
      </trkpt>
      <trkpt lat="45.793" lon="5.14522">
        <ele>228.3</ele>
        <time>2022-09-24T11:16:35Z</time>
      </trkpt>
      <trkpt lat="45.79298" lon="5.14527">
        <ele>228.1</ele>
        <time>2022-09-24T11:16:36Z</time>
      </trkpt>
      <trkpt lat="45.79297" lon="5.14532">
        <ele>228</ele>
        <time>2022-09-24T11:16:37Z</time>
      </trkpt>
      <trkpt lat="45.79296" lon="5.14534">
        <ele>228</ele>
        <time>2022-09-24T11:16:38Z</time>
      </trkpt>
      <trkpt lat="45.79297" lon="5.1454">
        <ele>227.9</ele>
        <time>2022-09-24T11:16:39Z</time>
      </trkpt>
      <trkpt lat="45.79296" lon="5.14547">
        <ele>227.7</ele>
        <time>2022-09-24T11:16:40Z</time>
      </trkpt>
      <trkpt lat="45.79295" lon="5.14555">
        <ele>227.6</ele>
        <time>2022-09-24T11:16:41Z</time>
      </trkpt>
      <trkpt lat="45.79294" lon="5.14562">
        <ele>227.4</ele>
        <time>2022-09-24T11:16:42Z</time>
      </trkpt>
      <trkpt lat="45.79294" lon="5.14568">
        <ele>227.3</ele>
        <time>2022-09-24T11:16:43Z</time>
      </trkpt>
      <trkpt lat="45.79293" lon="5.14575">
        <ele>227.1</ele>
        <time>2022-09-24T11:16:44Z</time>
      </trkpt>
      <trkpt lat="45.79292" lon="5.14585">
        <ele>226.9</ele>
        <time>2022-09-24T11:16:45Z</time>
      </trkpt>
      <trkpt lat="45.79293" lon="5.14594">
        <ele>226.5</ele>
        <time>2022-09-24T11:16:46Z</time>
      </trkpt>
      <trkpt lat="45.79293" lon="5.14605">
        <ele>225.9</ele>
        <time>2022-09-24T11:16:47Z</time>
      </trkpt>
      <trkpt lat="45.79296" lon="5.14615">
        <ele>225.4</ele>
        <time>2022-09-24T11:16:48Z</time>
      </trkpt>
      <trkpt lat="45.79297" lon="5.14626">
        <ele>225.1</ele>
        <time>2022-09-24T11:16:49Z</time>
      </trkpt>
      <trkpt lat="45.79299" lon="5.14637">
        <ele>224.9</ele>
        <time>2022-09-24T11:16:50Z</time>
      </trkpt>
      <trkpt lat="45.793" lon="5.14647">
        <ele>224.8</ele>
        <time>2022-09-24T11:16:51Z</time>
      </trkpt>
      <trkpt lat="45.79302" lon="5.14657">
        <ele>224.7</ele>
        <time>2022-09-24T11:16:52Z</time>
      </trkpt>
      <trkpt lat="45.79304" lon="5.14664">
        <ele>224.7</ele>
        <time>2022-09-24T11:16:53Z</time>
      </trkpt>
      <trkpt lat="45.79306" lon="5.14672">
        <ele>224.7</ele>
        <time>2022-09-24T11:16:54Z</time>
      </trkpt>
      <trkpt lat="45.79308" lon="5.14679">
        <ele>224.6</ele>
        <time>2022-09-24T11:16:55Z</time>
      </trkpt>
      <trkpt lat="45.7931" lon="5.14689">
        <ele>224.6</ele>
        <time>2022-09-24T11:16:56Z</time>
      </trkpt>
      <trkpt lat="45.79311" lon="5.14698">
        <ele>224.6</ele>
        <time>2022-09-24T11:16:57Z</time>
      </trkpt>
      <trkpt lat="45.79313" lon="5.14705">
        <ele>224.5</ele>
        <time>2022-09-24T11:16:58Z</time>
      </trkpt>
      <trkpt lat="45.79314" lon="5.14713">
        <ele>224.5</ele>
        <time>2022-09-24T11:16:59Z</time>
      </trkpt>
      <trkpt lat="45.79315" lon="5.14722">
        <ele>224.5</ele>
        <time>2022-09-24T11:17:00Z</time>
      </trkpt>
      <trkpt lat="45.79317" lon="5.14731">
        <ele>224.5</ele>
        <time>2022-09-24T11:17:01Z</time>
      </trkpt>
      <trkpt lat="45.79317" lon="5.1474">
        <ele>224.6</ele>
        <time>2022-09-24T11:17:02Z</time>
      </trkpt>
      <trkpt lat="45.79318" lon="5.14746">
        <ele>224.6</ele>
        <time>2022-09-24T11:17:04Z</time>
      </trkpt>
      <trkpt lat="45.7932" lon="5.14754">
        <ele>224.5</ele>
        <time>2022-09-24T11:17:05Z</time>
      </trkpt>
      <trkpt lat="45.79321" lon="5.14762">
        <ele>224.5</ele>
        <time>2022-09-24T11:17:06Z</time>
      </trkpt>
      <trkpt lat="45.79322" lon="5.1477">
        <ele>224.5</ele>
        <time>2022-09-24T11:17:07Z</time>
      </trkpt>
      <trkpt lat="45.79323" lon="5.14777">
        <ele>224.4</ele>
        <time>2022-09-24T11:17:08Z</time>
      </trkpt>
      <trkpt lat="45.79325" lon="5.14784">
        <ele>224.3</ele>
        <time>2022-09-24T11:17:09Z</time>
      </trkpt>
      <trkpt lat="45.79326" lon="5.14792">
        <ele>224.2</ele>
        <time>2022-09-24T11:17:10Z</time>
      </trkpt>
      <trkpt lat="45.79328" lon="5.14799">
        <ele>224.1</ele>
        <time>2022-09-24T11:17:11Z</time>
      </trkpt>
      <trkpt lat="45.79329" lon="5.14806">
        <ele>224</ele>
        <time>2022-09-24T11:17:12Z</time>
      </trkpt>
      <trkpt lat="45.7933" lon="5.14813">
        <ele>223.8</ele>
        <time>2022-09-24T11:17:13Z</time>
      </trkpt>
      <trkpt lat="45.79332" lon="5.14821">
        <ele>223.7</ele>
        <time>2022-09-24T11:17:14Z</time>
      </trkpt>
      <trkpt lat="45.79334" lon="5.14827">
        <ele>223.6</ele>
        <time>2022-09-24T11:17:15Z</time>
      </trkpt>
      <trkpt lat="45.79336" lon="5.14834">
        <ele>223.5</ele>
        <time>2022-09-24T11:17:16Z</time>
      </trkpt>
      <trkpt lat="45.79338" lon="5.14841">
        <ele>223.5</ele>
        <time>2022-09-24T11:17:17Z</time>
      </trkpt>
      <trkpt lat="45.79339" lon="5.14848">
        <ele>223.4</ele>
        <time>2022-09-24T11:17:18Z</time>
      </trkpt>
      <trkpt lat="45.79341" lon="5.14854">
        <ele>223.4</ele>
        <time>2022-09-24T11:17:19Z</time>
      </trkpt>
      <trkpt lat="45.79343" lon="5.14862">
        <ele>223.3</ele>
        <time>2022-09-24T11:17:20Z</time>
      </trkpt>
      <trkpt lat="45.79345" lon="5.14868">
        <ele>223.2</ele>
        <time>2022-09-24T11:17:21Z</time>
      </trkpt>
      <trkpt lat="45.79346" lon="5.14875">
        <ele>223.2</ele>
        <time>2022-09-24T11:17:22Z</time>
      </trkpt>
      <trkpt lat="45.79348" lon="5.14881">
        <ele>223.1</ele>
        <time>2022-09-24T11:17:23Z</time>
      </trkpt>
      <trkpt lat="45.7935" lon="5.14887">
        <ele>223</ele>
        <time>2022-09-24T11:17:24Z</time>
      </trkpt>
      <trkpt lat="45.79352" lon="5.14893">
        <ele>222.9</ele>
        <time>2022-09-24T11:17:25Z</time>
      </trkpt>
      <trkpt lat="45.79353" lon="5.14898">
        <ele>222.7</ele>
        <time>2022-09-24T11:17:26Z</time>
      </trkpt>
      <trkpt lat="45.79356" lon="5.14902">
        <ele>222.6</ele>
        <time>2022-09-24T11:17:27Z</time>
      </trkpt>
      <trkpt lat="45.79357" lon="5.14909">
        <ele>222.4</ele>
        <time>2022-09-24T11:17:28Z</time>
      </trkpt>
      <trkpt lat="45.79358" lon="5.14913">
        <ele>222.3</ele>
        <time>2022-09-24T11:17:29Z</time>
      </trkpt>
      <trkpt lat="45.79361" lon="5.14918">
        <ele>222</ele>
        <time>2022-09-24T11:17:30Z</time>
      </trkpt>
      <trkpt lat="45.79363" lon="5.14923">
        <ele>221.8</ele>
        <time>2022-09-24T11:17:31Z</time>
      </trkpt>
      <trkpt lat="45.79366" lon="5.14925">
        <ele>221.6</ele>
        <time>2022-09-24T11:17:32Z</time>
      </trkpt>
      <trkpt lat="45.79369" lon="5.14928">
        <ele>221.5</ele>
        <time>2022-09-24T11:17:33Z</time>
      </trkpt>
      <trkpt lat="45.79373" lon="5.14928">
        <ele>221.3</ele>
        <time>2022-09-24T11:17:34Z</time>
      </trkpt>
      <trkpt lat="45.79377" lon="5.14926">
        <ele>221.1</ele>
        <time>2022-09-24T11:17:35Z</time>
      </trkpt>
      <trkpt lat="45.79382" lon="5.14926">
        <ele>221</ele>
        <time>2022-09-24T11:17:36Z</time>
      </trkpt>
      <trkpt lat="45.79388" lon="5.14923">
        <ele>220.8</ele>
        <time>2022-09-24T11:17:37Z</time>
      </trkpt>
      <trkpt lat="45.79394" lon="5.14921">
        <ele>220.6</ele>
        <time>2022-09-24T11:17:38Z</time>
      </trkpt>
      <trkpt lat="45.79397" lon="5.14919">
        <ele>220.5</ele>
        <time>2022-09-24T11:17:39Z</time>
      </trkpt>
      <trkpt lat="45.79404" lon="5.14919">
        <ele>220.4</ele>
        <time>2022-09-24T11:17:40Z</time>
      </trkpt>
      <trkpt lat="45.79408" lon="5.14921">
        <ele>220.3</ele>
        <time>2022-09-24T11:17:41Z</time>
      </trkpt>
      <trkpt lat="45.79413" lon="5.14921">
        <ele>220.3</ele>
        <time>2022-09-24T11:17:42Z</time>
      </trkpt>
      <trkpt lat="45.79416" lon="5.14924">
        <ele>220.2</ele>
        <time>2022-09-24T11:17:43Z</time>
      </trkpt>
      <trkpt lat="45.79421" lon="5.14935">
        <ele>220.1</ele>
        <time>2022-09-24T11:17:44Z</time>
      </trkpt>
      <trkpt lat="45.79423" lon="5.14942">
        <ele>220</ele>
        <time>2022-09-24T11:17:45Z</time>
      </trkpt>
      <trkpt lat="45.79425" lon="5.14949">
        <ele>220</ele>
        <time>2022-09-24T11:17:46Z</time>
      </trkpt>
      <trkpt lat="45.79427" lon="5.14957">
        <ele>219.9</ele>
        <time>2022-09-24T11:17:47Z</time>
      </trkpt>
      <trkpt lat="45.79431" lon="5.14964">
        <ele>219.9</ele>
        <time>2022-09-24T11:17:48Z</time>
      </trkpt>
      <trkpt lat="45.79433" lon="5.1497">
        <ele>219.9</ele>
        <time>2022-09-24T11:17:49Z</time>
      </trkpt>
      <trkpt lat="45.79435" lon="5.14978">
        <ele>219.8</ele>
        <time>2022-09-24T11:17:50Z</time>
      </trkpt>
      <trkpt lat="45.79438" lon="5.14986">
        <ele>219.8</ele>
        <time>2022-09-24T11:17:51Z</time>
      </trkpt>
      <trkpt lat="45.7944" lon="5.14994">
        <ele>219.7</ele>
        <time>2022-09-24T11:17:52Z</time>
      </trkpt>
      <trkpt lat="45.79442" lon="5.15">
        <ele>219.6</ele>
        <time>2022-09-24T11:17:53Z</time>
      </trkpt>
      <trkpt lat="45.79445" lon="5.15008">
        <ele>219.4</ele>
        <time>2022-09-24T11:17:54Z</time>
      </trkpt>
      <trkpt lat="45.79447" lon="5.15012">
        <ele>219.2</ele>
        <time>2022-09-24T11:17:55Z</time>
      </trkpt>
      <trkpt lat="45.79449" lon="5.1502">
        <ele>219</ele>
        <time>2022-09-24T11:17:56Z</time>
      </trkpt>
      <trkpt lat="45.7945" lon="5.15027">
        <ele>218.7</ele>
        <time>2022-09-24T11:17:57Z</time>
      </trkpt>
      <trkpt lat="45.79451" lon="5.15035">
        <ele>218.3</ele>
        <time>2022-09-24T11:17:58Z</time>
      </trkpt>
      <trkpt lat="45.79453" lon="5.15044">
        <ele>217.9</ele>
        <time>2022-09-24T11:17:59Z</time>
      </trkpt>
      <trkpt lat="45.79453" lon="5.15052">
        <ele>217.6</ele>
        <time>2022-09-24T11:18:00Z</time>
      </trkpt>
      <trkpt lat="45.79454" lon="5.15059">
        <ele>217.3</ele>
        <time>2022-09-24T11:18:01Z</time>
      </trkpt>
      <trkpt lat="45.79455" lon="5.1507">
        <ele>216.9</ele>
        <time>2022-09-24T11:18:02Z</time>
      </trkpt>
      <trkpt lat="45.79455" lon="5.1508">
        <ele>216.5</ele>
        <time>2022-09-24T11:18:03Z</time>
      </trkpt>
      <trkpt lat="45.79454" lon="5.15089">
        <ele>216.2</ele>
        <time>2022-09-24T11:18:04Z</time>
      </trkpt>
      <trkpt lat="45.79454" lon="5.15101">
        <ele>215.9</ele>
        <time>2022-09-24T11:18:05Z</time>
      </trkpt>
      <trkpt lat="45.79453" lon="5.15109">
        <ele>215.6</ele>
        <time>2022-09-24T11:18:06Z</time>
      </trkpt>
      <trkpt lat="45.79452" lon="5.15119">
        <ele>215.2</ele>
        <time>2022-09-24T11:18:07Z</time>
      </trkpt>
      <trkpt lat="45.79452" lon="5.15129">
        <ele>214.8</ele>
        <time>2022-09-24T11:18:08Z</time>
      </trkpt>
      <trkpt lat="45.79452" lon="5.15139">
        <ele>214.2</ele>
        <time>2022-09-24T11:18:09Z</time>
      </trkpt>
      <trkpt lat="45.79453" lon="5.1515">
        <ele>213.7</ele>
        <time>2022-09-24T11:18:10Z</time>
      </trkpt>
      <trkpt lat="45.79453" lon="5.1516">
        <ele>213.1</ele>
        <time>2022-09-24T11:18:11Z</time>
      </trkpt>
      <trkpt lat="45.79454" lon="5.15171">
        <ele>212.4</ele>
        <time>2022-09-24T11:18:12Z</time>
      </trkpt>
      <trkpt lat="45.79455" lon="5.15182">
        <ele>211.7</ele>
        <time>2022-09-24T11:18:13Z</time>
      </trkpt>
      <trkpt lat="45.79456" lon="5.15195">
        <ele>211</ele>
        <time>2022-09-24T11:18:14Z</time>
      </trkpt>
      <trkpt lat="45.79459" lon="5.15206">
        <ele>210.5</ele>
        <time>2022-09-24T11:18:15Z</time>
      </trkpt>
      <trkpt lat="45.79461" lon="5.15219">
        <ele>209.9</ele>
        <time>2022-09-24T11:18:16Z</time>
      </trkpt>
      <trkpt lat="45.79463" lon="5.15232">
        <ele>209.4</ele>
        <time>2022-09-24T11:18:17Z</time>
      </trkpt>
      <trkpt lat="45.79465" lon="5.15245">
        <ele>209</ele>
        <time>2022-09-24T11:18:18Z</time>
      </trkpt>
      <trkpt lat="45.79467" lon="5.15258">
        <ele>208.5</ele>
        <time>2022-09-24T11:18:19Z</time>
      </trkpt>
      <trkpt lat="45.79469" lon="5.15271">
        <ele>208.2</ele>
        <time>2022-09-24T11:18:20Z</time>
      </trkpt>
      <trkpt lat="45.7947" lon="5.15283">
        <ele>208</ele>
        <time>2022-09-24T11:18:21Z</time>
      </trkpt>
      <trkpt lat="45.79472" lon="5.15294">
        <ele>207.8</ele>
        <time>2022-09-24T11:18:22Z</time>
      </trkpt>
      <trkpt lat="45.79473" lon="5.15306">
        <ele>207.6</ele>
        <time>2022-09-24T11:18:23Z</time>
      </trkpt>
      <trkpt lat="45.79474" lon="5.15318">
        <ele>207.5</ele>
        <time>2022-09-24T11:18:24Z</time>
      </trkpt>
      <trkpt lat="45.79474" lon="5.15328">
        <ele>207.5</ele>
        <time>2022-09-24T11:18:25Z</time>
      </trkpt>
      <trkpt lat="45.79472" lon="5.15338">
        <ele>207.4</ele>
        <time>2022-09-24T11:18:26Z</time>
      </trkpt>
      <trkpt lat="45.7947" lon="5.15346">
        <ele>207.4</ele>
        <time>2022-09-24T11:18:27Z</time>
      </trkpt>
      <trkpt lat="45.79467" lon="5.15354">
        <ele>207.3</ele>
        <time>2022-09-24T11:18:28Z</time>
      </trkpt>
      <trkpt lat="45.79464" lon="5.1536">
        <ele>207.3</ele>
        <time>2022-09-24T11:18:29Z</time>
      </trkpt>
      <trkpt lat="45.7946" lon="5.15367">
        <ele>207.3</ele>
        <time>2022-09-24T11:18:30Z</time>
      </trkpt>
      <trkpt lat="45.79456" lon="5.15373">
        <ele>207.2</ele>
        <time>2022-09-24T11:18:31Z</time>
      </trkpt>
      <trkpt lat="45.79452" lon="5.1538">
        <ele>207.2</ele>
        <time>2022-09-24T11:18:32Z</time>
      </trkpt>
      <trkpt lat="45.79448" lon="5.15386">
        <ele>207.2</ele>
        <time>2022-09-24T11:18:33Z</time>
      </trkpt>
      <trkpt lat="45.79444" lon="5.15393">
        <ele>207.2</ele>
        <time>2022-09-24T11:18:34Z</time>
      </trkpt>
      <trkpt lat="45.7944" lon="5.15399">
        <ele>207.2</ele>
        <time>2022-09-24T11:18:35Z</time>
      </trkpt>
      <trkpt lat="45.79437" lon="5.15405">
        <ele>207.2</ele>
        <time>2022-09-24T11:18:36Z</time>
      </trkpt>
      <trkpt lat="45.79434" lon="5.1541">
        <ele>207.2</ele>
        <time>2022-09-24T11:18:37Z</time>
      </trkpt>
      <trkpt lat="45.79432" lon="5.15415">
        <ele>207.2</ele>
        <time>2022-09-24T11:18:38Z</time>
      </trkpt>
      <trkpt lat="45.7943" lon="5.15422">
        <ele>207.2</ele>
        <time>2022-09-24T11:18:39Z</time>
      </trkpt>
      <trkpt lat="45.79429" lon="5.15429">
        <ele>207.3</ele>
        <time>2022-09-24T11:18:40Z</time>
      </trkpt>
      <trkpt lat="45.79429" lon="5.15436">
        <ele>207.3</ele>
        <time>2022-09-24T11:18:41Z</time>
      </trkpt>
      <trkpt lat="45.79429" lon="5.15443">
        <ele>207.3</ele>
        <time>2022-09-24T11:18:42Z</time>
      </trkpt>
      <trkpt lat="45.7943" lon="5.1545">
        <ele>207.3</ele>
        <time>2022-09-24T11:18:43Z</time>
      </trkpt>
      <trkpt lat="45.79431" lon="5.15457">
        <ele>207.4</ele>
        <time>2022-09-24T11:18:44Z</time>
      </trkpt>
      <trkpt lat="45.79431" lon="5.15464">
        <ele>207.4</ele>
        <time>2022-09-24T11:18:45Z</time>
      </trkpt>
      <trkpt lat="45.79431" lon="5.15471">
        <ele>207.5</ele>
        <time>2022-09-24T11:18:46Z</time>
      </trkpt>
      <trkpt lat="45.7943" lon="5.15478">
        <ele>207.5</ele>
        <time>2022-09-24T11:18:47Z</time>
      </trkpt>
      <trkpt lat="45.79428" lon="5.15484">
        <ele>207.6</ele>
        <time>2022-09-24T11:18:48Z</time>
      </trkpt>
      <trkpt lat="45.79427" lon="5.1549">
        <ele>207.7</ele>
        <time>2022-09-24T11:18:49Z</time>
      </trkpt>
      <trkpt lat="45.79425" lon="5.15496">
        <ele>207.8</ele>
        <time>2022-09-24T11:18:50Z</time>
      </trkpt>
      <trkpt lat="45.79424" lon="5.155">
        <ele>207.9</ele>
        <time>2022-09-24T11:18:51Z</time>
      </trkpt>
      <trkpt lat="45.79423" lon="5.15505">
        <ele>208</ele>
        <time>2022-09-24T11:18:52Z</time>
      </trkpt>
      <trkpt lat="45.79421" lon="5.15509">
        <ele>208.1</ele>
        <time>2022-09-24T11:18:53Z</time>
      </trkpt>
      <trkpt lat="45.79421" lon="5.15514">
        <ele>208.2</ele>
        <time>2022-09-24T11:18:54Z</time>
      </trkpt>
      <trkpt lat="45.79421" lon="5.15519">
        <ele>208.3</ele>
        <time>2022-09-24T11:18:55Z</time>
      </trkpt>
      <trkpt lat="45.79419" lon="5.15525">
        <ele>208.4</ele>
        <time>2022-09-24T11:18:56Z</time>
      </trkpt>
      <trkpt lat="45.79419" lon="5.1553">
        <ele>208.5</ele>
        <time>2022-09-24T11:18:57Z</time>
      </trkpt>
      <trkpt lat="45.79419" lon="5.15534">
        <ele>208.5</ele>
        <time>2022-09-24T11:18:58Z</time>
      </trkpt>
      <trkpt lat="45.79418" lon="5.15539">
        <ele>208.6</ele>
        <time>2022-09-24T11:18:59Z</time>
      </trkpt>
      <trkpt lat="45.79417" lon="5.15545">
        <ele>208.7</ele>
        <time>2022-09-24T11:19:00Z</time>
      </trkpt>
      <trkpt lat="45.79417" lon="5.1555">
        <ele>208.8</ele>
        <time>2022-09-24T11:19:01Z</time>
      </trkpt>
      <trkpt lat="45.79416" lon="5.15554">
        <ele>208.9</ele>
        <time>2022-09-24T11:19:02Z</time>
      </trkpt>
      <trkpt lat="45.79414" lon="5.15559">
        <ele>209</ele>
        <time>2022-09-24T11:19:03Z</time>
      </trkpt>
      <trkpt lat="45.79414" lon="5.15565">
        <ele>209.1</ele>
        <time>2022-09-24T11:19:04Z</time>
      </trkpt>
      <trkpt lat="45.79413" lon="5.15571">
        <ele>209.2</ele>
        <time>2022-09-24T11:19:05Z</time>
      </trkpt>
      <trkpt lat="45.79411" lon="5.15576">
        <ele>209.3</ele>
        <time>2022-09-24T11:19:06Z</time>
      </trkpt>
      <trkpt lat="45.79409" lon="5.15582">
        <ele>209.5</ele>
        <time>2022-09-24T11:19:07Z</time>
      </trkpt>
      <trkpt lat="45.79408" lon="5.15587">
        <ele>209.6</ele>
        <time>2022-09-24T11:19:08Z</time>
      </trkpt>
      <trkpt lat="45.79399" lon="5.15595">
        <ele>209.9</ele>
        <time>2022-09-24T11:19:10Z</time>
      </trkpt>
      <trkpt lat="45.79397" lon="5.15601">
        <ele>210</ele>
        <time>2022-09-24T11:19:11Z</time>
      </trkpt>
      <trkpt lat="45.79397" lon="5.15607">
        <ele>210.1</ele>
        <time>2022-09-24T11:19:12Z</time>
      </trkpt>
      <trkpt lat="45.79396" lon="5.15612">
        <ele>210.3</ele>
        <time>2022-09-24T11:19:13Z</time>
      </trkpt>
      <trkpt lat="45.79395" lon="5.15618">
        <ele>210.4</ele>
        <time>2022-09-24T11:19:14Z</time>
      </trkpt>
      <trkpt lat="45.79395" lon="5.15623">
        <ele>210.6</ele>
        <time>2022-09-24T11:19:15Z</time>
      </trkpt>
      <trkpt lat="45.79394" lon="5.15628">
        <ele>210.7</ele>
        <time>2022-09-24T11:19:16Z</time>
      </trkpt>
      <trkpt lat="45.79393" lon="5.15634">
        <ele>210.9</ele>
        <time>2022-09-24T11:19:17Z</time>
      </trkpt>
      <trkpt lat="45.79392" lon="5.1564">
        <ele>211.1</ele>
        <time>2022-09-24T11:19:18Z</time>
      </trkpt>
      <trkpt lat="45.79391" lon="5.15645">
        <ele>211.3</ele>
        <time>2022-09-24T11:19:19Z</time>
      </trkpt>
      <trkpt lat="45.79391" lon="5.15649">
        <ele>211.7</ele>
        <time>2022-09-24T11:19:20Z</time>
      </trkpt>
      <trkpt lat="45.7939" lon="5.15655">
        <ele>211.8</ele>
        <time>2022-09-24T11:19:21Z</time>
      </trkpt>
      <trkpt lat="45.7939" lon="5.1566">
        <ele>212</ele>
        <time>2022-09-24T11:19:22Z</time>
      </trkpt>
      <trkpt lat="45.7939" lon="5.15665">
        <ele>212.1</ele>
        <time>2022-09-24T11:19:23Z</time>
      </trkpt>
      <trkpt lat="45.7939" lon="5.1567">
        <ele>212.2</ele>
        <time>2022-09-24T11:19:24Z</time>
      </trkpt>
      <trkpt lat="45.79389" lon="5.15674">
        <ele>212.3</ele>
        <time>2022-09-24T11:19:25Z</time>
      </trkpt>
      <trkpt lat="45.79388" lon="5.15678">
        <ele>212.4</ele>
        <time>2022-09-24T11:19:26Z</time>
      </trkpt>
      <trkpt lat="45.79388" lon="5.15682">
        <ele>212.4</ele>
        <time>2022-09-24T11:19:27Z</time>
      </trkpt>
      <trkpt lat="45.79387" lon="5.15687">
        <ele>212.5</ele>
        <time>2022-09-24T11:19:28Z</time>
      </trkpt>
      <trkpt lat="45.79387" lon="5.15688">
        <ele>212.5</ele>
        <time>2022-09-24T11:19:29Z</time>
      </trkpt>
      <trkpt lat="45.79381" lon="5.15696">
        <ele>212.6</ele>
        <time>2022-09-24T11:19:30Z</time>
      </trkpt>
      <trkpt lat="45.79383" lon="5.15699">
        <ele>212.6</ele>
        <time>2022-09-24T11:19:31Z</time>
      </trkpt>
      <trkpt lat="45.79386" lon="5.15704">
        <ele>212.5</ele>
        <time>2022-09-24T11:19:32Z</time>
      </trkpt>
      <trkpt lat="45.79387" lon="5.15707">
        <ele>212.5</ele>
        <time>2022-09-24T11:19:33Z</time>
      </trkpt>
      <trkpt lat="45.79388" lon="5.15711">
        <ele>212.4</ele>
        <time>2022-09-24T11:19:34Z</time>
      </trkpt>
      <trkpt lat="45.79389" lon="5.15716">
        <ele>212.2</ele>
        <time>2022-09-24T11:19:35Z</time>
      </trkpt>
      <trkpt lat="45.7939" lon="5.15721">
        <ele>212.1</ele>
        <time>2022-09-24T11:19:36Z</time>
      </trkpt>
      <trkpt lat="45.7939" lon="5.15728">
        <ele>211.8</ele>
        <time>2022-09-24T11:19:37Z</time>
      </trkpt>
      <trkpt lat="45.79389" lon="5.15735">
        <ele>211.5</ele>
        <time>2022-09-24T11:19:38Z</time>
      </trkpt>
      <trkpt lat="45.7939" lon="5.15742">
        <ele>211.1</ele>
        <time>2022-09-24T11:19:39Z</time>
      </trkpt>
      <trkpt lat="45.7939" lon="5.15749">
        <ele>210.7</ele>
        <time>2022-09-24T11:19:40Z</time>
      </trkpt>
      <trkpt lat="45.7939" lon="5.15756">
        <ele>210.2</ele>
        <time>2022-09-24T11:19:41Z</time>
      </trkpt>
      <trkpt lat="45.79391" lon="5.15762">
        <ele>209.9</ele>
        <time>2022-09-24T11:19:42Z</time>
      </trkpt>
      <trkpt lat="45.7939" lon="5.15779">
        <ele>208.9</ele>
        <time>2022-09-24T11:19:43Z</time>
      </trkpt>
      <trkpt lat="45.79383" lon="5.15794">
        <ele>207.9</ele>
        <time>2022-09-24T11:19:44Z</time>
      </trkpt>
      <trkpt lat="45.79383" lon="5.15802">
        <ele>207.5</ele>
        <time>2022-09-24T11:19:45Z</time>
      </trkpt>
      <trkpt lat="45.79383" lon="5.15809">
        <ele>207.1</ele>
        <time>2022-09-24T11:19:46Z</time>
      </trkpt>
      <trkpt lat="45.79383" lon="5.15819">
        <ele>206.7</ele>
        <time>2022-09-24T11:19:47Z</time>
      </trkpt>
      <trkpt lat="45.79382" lon="5.15827">
        <ele>206.4</ele>
        <time>2022-09-24T11:19:48Z</time>
      </trkpt>
      <trkpt lat="45.79382" lon="5.15835">
        <ele>206.1</ele>
        <time>2022-09-24T11:19:49Z</time>
      </trkpt>
      <trkpt lat="45.79382" lon="5.15845">
        <ele>205.8</ele>
        <time>2022-09-24T11:19:50Z</time>
      </trkpt>
      <trkpt lat="45.79382" lon="5.15855">
        <ele>205.6</ele>
        <time>2022-09-24T11:19:51Z</time>
      </trkpt>
      <trkpt lat="45.79382" lon="5.15864">
        <ele>205.4</ele>
        <time>2022-09-24T11:19:52Z</time>
      </trkpt>
      <trkpt lat="45.79383" lon="5.15875">
        <ele>205.2</ele>
        <time>2022-09-24T11:19:53Z</time>
      </trkpt>
      <trkpt lat="45.79385" lon="5.15886">
        <ele>205</ele>
        <time>2022-09-24T11:19:54Z</time>
      </trkpt>
      <trkpt lat="45.79387" lon="5.15895">
        <ele>204.8</ele>
        <time>2022-09-24T11:19:55Z</time>
      </trkpt>
      <trkpt lat="45.79388" lon="5.15905">
        <ele>204.7</ele>
        <time>2022-09-24T11:19:56Z</time>
      </trkpt>
      <trkpt lat="45.79391" lon="5.15914">
        <ele>204.5</ele>
        <time>2022-09-24T11:19:57Z</time>
      </trkpt>
      <trkpt lat="45.79393" lon="5.15925">
        <ele>204.3</ele>
        <time>2022-09-24T11:19:58Z</time>
      </trkpt>
      <trkpt lat="45.79394" lon="5.15934">
        <ele>204.2</ele>
        <time>2022-09-24T11:19:59Z</time>
      </trkpt>
      <trkpt lat="45.79396" lon="5.15943">
        <ele>204</ele>
        <time>2022-09-24T11:20:00Z</time>
      </trkpt>
      <trkpt lat="45.79397" lon="5.15952">
        <ele>203.8</ele>
        <time>2022-09-24T11:20:01Z</time>
      </trkpt>
      <trkpt lat="45.79397" lon="5.15961">
        <ele>203.7</ele>
        <time>2022-09-24T11:20:02Z</time>
      </trkpt>
      <trkpt lat="45.79397" lon="5.1597">
        <ele>203.6</ele>
        <time>2022-09-24T11:20:03Z</time>
      </trkpt>
      <trkpt lat="45.79396" lon="5.15979">
        <ele>203.5</ele>
        <time>2022-09-24T11:20:04Z</time>
      </trkpt>
      <trkpt lat="45.79395" lon="5.15987">
        <ele>203.4</ele>
        <time>2022-09-24T11:20:05Z</time>
      </trkpt>
      <trkpt lat="45.79394" lon="5.15996">
        <ele>203.3</ele>
        <time>2022-09-24T11:20:06Z</time>
      </trkpt>
      <trkpt lat="45.79393" lon="5.16006">
        <ele>203.3</ele>
        <time>2022-09-24T11:20:07Z</time>
      </trkpt>
      <trkpt lat="45.79392" lon="5.16015">
        <ele>203.2</ele>
        <time>2022-09-24T11:20:08Z</time>
      </trkpt>
      <trkpt lat="45.79391" lon="5.16024">
        <ele>203.2</ele>
        <time>2022-09-24T11:20:09Z</time>
      </trkpt>
      <trkpt lat="45.79389" lon="5.16033">
        <ele>203.1</ele>
        <time>2022-09-24T11:20:10Z</time>
      </trkpt>
      <trkpt lat="45.79387" lon="5.16043">
        <ele>203.1</ele>
        <time>2022-09-24T11:20:11Z</time>
      </trkpt>
      <trkpt lat="45.79386" lon="5.16052">
        <ele>203.1</ele>
        <time>2022-09-24T11:20:12Z</time>
      </trkpt>
      <trkpt lat="45.79383" lon="5.16061">
        <ele>203.1</ele>
        <time>2022-09-24T11:20:13Z</time>
      </trkpt>
      <trkpt lat="45.79382" lon="5.16071">
        <ele>203.1</ele>
        <time>2022-09-24T11:20:14Z</time>
      </trkpt>
      <trkpt lat="45.7938" lon="5.16079">
        <ele>203.1</ele>
        <time>2022-09-24T11:20:15Z</time>
      </trkpt>
      <trkpt lat="45.79379" lon="5.16087">
        <ele>203.2</ele>
        <time>2022-09-24T11:20:16Z</time>
      </trkpt>
      <trkpt lat="45.79378" lon="5.16096">
        <ele>203.2</ele>
        <time>2022-09-24T11:20:17Z</time>
      </trkpt>
      <trkpt lat="45.79376" lon="5.16105">
        <ele>203.2</ele>
        <time>2022-09-24T11:20:18Z</time>
      </trkpt>
      <trkpt lat="45.79374" lon="5.16114">
        <ele>203.2</ele>
        <time>2022-09-24T11:20:19Z</time>
      </trkpt>
      <trkpt lat="45.79372" lon="5.16123">
        <ele>203.3</ele>
        <time>2022-09-24T11:20:20Z</time>
      </trkpt>
      <trkpt lat="45.7937" lon="5.16133">
        <ele>203.3</ele>
        <time>2022-09-24T11:20:21Z</time>
      </trkpt>
      <trkpt lat="45.79369" lon="5.16142">
        <ele>203.4</ele>
        <time>2022-09-24T11:20:22Z</time>
      </trkpt>
      <trkpt lat="45.79368" lon="5.1615">
        <ele>203.5</ele>
        <time>2022-09-24T11:20:23Z</time>
      </trkpt>
      <trkpt lat="45.79368" lon="5.16157">
        <ele>203.5</ele>
        <time>2022-09-24T11:20:24Z</time>
      </trkpt>
      <trkpt lat="45.79367" lon="5.16165">
        <ele>203.6</ele>
        <time>2022-09-24T11:20:25Z</time>
      </trkpt>
      <trkpt lat="45.79366" lon="5.16171">
        <ele>203.7</ele>
        <time>2022-09-24T11:20:26Z</time>
      </trkpt>
      <trkpt lat="45.79365" lon="5.16177">
        <ele>203.8</ele>
        <time>2022-09-24T11:20:27Z</time>
      </trkpt>
      <trkpt lat="45.79363" lon="5.16181">
        <ele>203.8</ele>
        <time>2022-09-24T11:20:28Z</time>
      </trkpt>
      <trkpt lat="45.79363" lon="5.16184">
        <ele>203.9</ele>
        <time>2022-09-24T11:20:29Z</time>
      </trkpt>
      <trkpt lat="45.79363" lon="5.16186">
        <ele>203.9</ele>
        <time>2022-09-24T11:20:30Z</time>
      </trkpt>
      <trkpt lat="45.79364" lon="5.16185">
        <ele>203.9</ele>
        <time>2022-09-24T11:20:31Z</time>
      </trkpt>
      <trkpt lat="45.79364" lon="5.16184">
        <ele>203.9</ele>
        <time>2022-09-24T11:20:32Z</time>
      </trkpt>
      <trkpt lat="45.79364" lon="5.16184">
        <ele>203.9</ele>
        <time>2022-09-24T11:20:33Z</time>
      </trkpt>
      <trkpt lat="45.79364" lon="5.16184">
        <ele>203.9</ele>
        <time>2022-09-24T11:20:34Z</time>
      </trkpt>
      <trkpt lat="45.79365" lon="5.16183">
        <ele>203.9</ele>
        <time>2022-09-24T11:20:35Z</time>
      </trkpt>
      <trkpt lat="45.79365" lon="5.16183">
        <ele>203.9</ele>
        <time>2022-09-24T11:20:36Z</time>
      </trkpt>
      <trkpt lat="45.79365" lon="5.16183">
        <ele>204</ele>
        <time>2022-09-24T11:20:37Z</time>
      </trkpt>
      <trkpt lat="45.79366" lon="5.16183">
        <ele>204</ele>
        <time>2022-09-24T11:20:38Z</time>
      </trkpt>
      <trkpt lat="45.79366" lon="5.16184">
        <ele>204</ele>
        <time>2022-09-24T11:20:39Z</time>
      </trkpt>
      <trkpt lat="45.79366" lon="5.16186">
        <ele>204</ele>
        <time>2022-09-24T11:20:40Z</time>
      </trkpt>
      <trkpt lat="45.79367" lon="5.16187">
        <ele>204</ele>
        <time>2022-09-24T11:20:41Z</time>
      </trkpt>
      <trkpt lat="45.79366" lon="5.16191">
        <ele>204.1</ele>
        <time>2022-09-24T11:20:42Z</time>
      </trkpt>
      <trkpt lat="45.79365" lon="5.16192">
        <ele>204.1</ele>
        <time>2022-09-24T11:20:43Z</time>
      </trkpt>
      <trkpt lat="45.79363" lon="5.16196">
        <ele>204.1</ele>
        <time>2022-09-24T11:20:44Z</time>
      </trkpt>
      <trkpt lat="45.79362" lon="5.16197">
        <ele>204.2</ele>
        <time>2022-09-24T11:20:45Z</time>
      </trkpt>
      <trkpt lat="45.7936" lon="5.16199">
        <ele>204.2</ele>
        <time>2022-09-24T11:20:46Z</time>
      </trkpt>
      <trkpt lat="45.79356" lon="5.16203">
        <ele>204.3</ele>
        <time>2022-09-24T11:20:47Z</time>
      </trkpt>
      <trkpt lat="45.79353" lon="5.16205">
        <ele>204.3</ele>
        <time>2022-09-24T11:20:48Z</time>
      </trkpt>
      <trkpt lat="45.7935" lon="5.16207">
        <ele>204.4</ele>
        <time>2022-09-24T11:20:49Z</time>
      </trkpt>
      <trkpt lat="45.79346" lon="5.16209">
        <ele>204.4</ele>
        <time>2022-09-24T11:20:50Z</time>
      </trkpt>
      <trkpt lat="45.79343" lon="5.16212">
        <ele>204.5</ele>
        <time>2022-09-24T11:20:51Z</time>
      </trkpt>
      <trkpt lat="45.7934" lon="5.16214">
        <ele>204.5</ele>
        <time>2022-09-24T11:20:52Z</time>
      </trkpt>
      <trkpt lat="45.79337" lon="5.16216">
        <ele>204.6</ele>
        <time>2022-09-24T11:20:53Z</time>
      </trkpt>
      <trkpt lat="45.79333" lon="5.16218">
        <ele>204.6</ele>
        <time>2022-09-24T11:20:54Z</time>
      </trkpt>
      <trkpt lat="45.79329" lon="5.1622">
        <ele>204.7</ele>
        <time>2022-09-24T11:20:55Z</time>
      </trkpt>
      <trkpt lat="45.79325" lon="5.16223">
        <ele>204.8</ele>
        <time>2022-09-24T11:20:56Z</time>
      </trkpt>
      <trkpt lat="45.79322" lon="5.16225">
        <ele>204.8</ele>
        <time>2022-09-24T11:20:57Z</time>
      </trkpt>
      <trkpt lat="45.79317" lon="5.16228">
        <ele>204.8</ele>
        <time>2022-09-24T11:20:58Z</time>
      </trkpt>
      <trkpt lat="45.79313" lon="5.1623">
        <ele>204.9</ele>
        <time>2022-09-24T11:20:59Z</time>
      </trkpt>
      <trkpt lat="45.79308" lon="5.16232">
        <ele>204.9</ele>
        <time>2022-09-24T11:21:00Z</time>
      </trkpt>
      <trkpt lat="45.79304" lon="5.16235">
        <ele>205</ele>
        <time>2022-09-24T11:21:01Z</time>
      </trkpt>
      <trkpt lat="45.79301" lon="5.16238">
        <ele>205</ele>
        <time>2022-09-24T11:21:02Z</time>
      </trkpt>
      <trkpt lat="45.79297" lon="5.16241">
        <ele>205</ele>
        <time>2022-09-24T11:21:03Z</time>
      </trkpt>
      <trkpt lat="45.79293" lon="5.16244">
        <ele>205.1</ele>
        <time>2022-09-24T11:21:04Z</time>
      </trkpt>
      <trkpt lat="45.79288" lon="5.16247">
        <ele>205.1</ele>
        <time>2022-09-24T11:21:05Z</time>
      </trkpt>
      <trkpt lat="45.79284" lon="5.1625">
        <ele>205.2</ele>
        <time>2022-09-24T11:21:06Z</time>
      </trkpt>
      <trkpt lat="45.79279" lon="5.16253">
        <ele>205.2</ele>
        <time>2022-09-24T11:21:07Z</time>
      </trkpt>
      <trkpt lat="45.79275" lon="5.16256">
        <ele>205.3</ele>
        <time>2022-09-24T11:21:08Z</time>
      </trkpt>
      <trkpt lat="45.79271" lon="5.16259">
        <ele>205.3</ele>
        <time>2022-09-24T11:21:09Z</time>
      </trkpt>
      <trkpt lat="45.79267" lon="5.16262">
        <ele>205.3</ele>
        <time>2022-09-24T11:21:10Z</time>
      </trkpt>
      <trkpt lat="45.79263" lon="5.16265">
        <ele>205.4</ele>
        <time>2022-09-24T11:21:11Z</time>
      </trkpt>
      <trkpt lat="45.79259" lon="5.16268">
        <ele>205.4</ele>
        <time>2022-09-24T11:21:12Z</time>
      </trkpt>
      <trkpt lat="45.79254" lon="5.16271">
        <ele>205.4</ele>
        <time>2022-09-24T11:21:13Z</time>
      </trkpt>
      <trkpt lat="45.7925" lon="5.16274">
        <ele>205.5</ele>
        <time>2022-09-24T11:21:14Z</time>
      </trkpt>
      <trkpt lat="45.79246" lon="5.16277">
        <ele>205.5</ele>
        <time>2022-09-24T11:21:16Z</time>
      </trkpt>
      <trkpt lat="45.79241" lon="5.1628">
        <ele>205.5</ele>
        <time>2022-09-24T11:21:17Z</time>
      </trkpt>
      <trkpt lat="45.79237" lon="5.16283">
        <ele>205.6</ele>
        <time>2022-09-24T11:21:18Z</time>
      </trkpt>
      <trkpt lat="45.79232" lon="5.16286">
        <ele>205.6</ele>
        <time>2022-09-24T11:21:19Z</time>
      </trkpt>
      <trkpt lat="45.79228" lon="5.16289">
        <ele>205.6</ele>
        <time>2022-09-24T11:21:20Z</time>
      </trkpt>
      <trkpt lat="45.79224" lon="5.16293">
        <ele>205.7</ele>
        <time>2022-09-24T11:21:21Z</time>
      </trkpt>
      <trkpt lat="45.7922" lon="5.16296">
        <ele>205.7</ele>
        <time>2022-09-24T11:21:22Z</time>
      </trkpt>
      <trkpt lat="45.79216" lon="5.16299">
        <ele>205.7</ele>
        <time>2022-09-24T11:21:23Z</time>
      </trkpt>
      <trkpt lat="45.79212" lon="5.16302">
        <ele>205.7</ele>
        <time>2022-09-24T11:21:24Z</time>
      </trkpt>
      <trkpt lat="45.79208" lon="5.16305">
        <ele>205.7</ele>
        <time>2022-09-24T11:21:25Z</time>
      </trkpt>
      <trkpt lat="45.79205" lon="5.16307">
        <ele>205.7</ele>
        <time>2022-09-24T11:21:26Z</time>
      </trkpt>
      <trkpt lat="45.79201" lon="5.1631">
        <ele>205.7</ele>
        <time>2022-09-24T11:21:27Z</time>
      </trkpt>
      <trkpt lat="45.79197" lon="5.16312">
        <ele>205.7</ele>
        <time>2022-09-24T11:21:28Z</time>
      </trkpt>
      <trkpt lat="45.79194" lon="5.16314">
        <ele>205.6</ele>
        <time>2022-09-24T11:21:29Z</time>
      </trkpt>
      <trkpt lat="45.79193" lon="5.16315">
        <ele>205.6</ele>
        <time>2022-09-24T11:21:30Z</time>
      </trkpt>
      <trkpt lat="45.79191" lon="5.16318">
        <ele>205.6</ele>
        <time>2022-09-24T11:21:31Z</time>
      </trkpt>
      <trkpt lat="45.7919" lon="5.16319">
        <ele>205.6</ele>
        <time>2022-09-24T11:21:32Z</time>
      </trkpt>
      <trkpt lat="45.79191" lon="5.16323">
        <ele>205.6</ele>
        <time>2022-09-24T11:21:33Z</time>
      </trkpt>
      <trkpt lat="45.79191" lon="5.16325">
        <ele>205.6</ele>
        <time>2022-09-24T11:21:34Z</time>
      </trkpt>
      <trkpt lat="45.79192" lon="5.16329">
        <ele>205.6</ele>
        <time>2022-09-24T11:21:35Z</time>
      </trkpt>
      <trkpt lat="45.79193" lon="5.16331">
        <ele>205.6</ele>
        <time>2022-09-24T11:21:36Z</time>
      </trkpt>
      <trkpt lat="45.79194" lon="5.16337">
        <ele>205.6</ele>
        <time>2022-09-24T11:21:37Z</time>
      </trkpt>
      <trkpt lat="45.79195" lon="5.16342">
        <ele>205.6</ele>
        <time>2022-09-24T11:21:38Z</time>
      </trkpt>
      <trkpt lat="45.79196" lon="5.16347">
        <ele>205.6</ele>
        <time>2022-09-24T11:21:39Z</time>
      </trkpt>
      <trkpt lat="45.79197" lon="5.16353">
        <ele>205.6</ele>
        <time>2022-09-24T11:21:40Z</time>
      </trkpt>
      <trkpt lat="45.79198" lon="5.16357">
        <ele>205.5</ele>
        <time>2022-09-24T11:21:41Z</time>
      </trkpt>
      <trkpt lat="45.79198" lon="5.16362">
        <ele>205.5</ele>
        <time>2022-09-24T11:21:42Z</time>
      </trkpt>
      <trkpt lat="45.79199" lon="5.16367">
        <ele>205.6</ele>
        <time>2022-09-24T11:21:43Z</time>
      </trkpt>
      <trkpt lat="45.79199" lon="5.16373">
        <ele>205.6</ele>
        <time>2022-09-24T11:21:44Z</time>
      </trkpt>
      <trkpt lat="45.792" lon="5.16379">
        <ele>205.6</ele>
        <time>2022-09-24T11:21:45Z</time>
      </trkpt>
      <trkpt lat="45.79201" lon="5.16386">
        <ele>205.6</ele>
        <time>2022-09-24T11:21:46Z</time>
      </trkpt>
      <trkpt lat="45.79202" lon="5.16391">
        <ele>205.6</ele>
        <time>2022-09-24T11:21:47Z</time>
      </trkpt>
      <trkpt lat="45.79205" lon="5.16396">
        <ele>205.6</ele>
        <time>2022-09-24T11:21:48Z</time>
      </trkpt>
      <trkpt lat="45.79205" lon="5.16402">
        <ele>205.7</ele>
        <time>2022-09-24T11:21:49Z</time>
      </trkpt>
      <trkpt lat="45.79206" lon="5.16408">
        <ele>205.7</ele>
        <time>2022-09-24T11:21:50Z</time>
      </trkpt>
      <trkpt lat="45.79207" lon="5.16414">
        <ele>205.7</ele>
        <time>2022-09-24T11:21:51Z</time>
      </trkpt>
      <trkpt lat="45.79208" lon="5.16419">
        <ele>205.7</ele>
        <time>2022-09-24T11:21:52Z</time>
      </trkpt>
      <trkpt lat="45.79209" lon="5.16424">
        <ele>205.7</ele>
        <time>2022-09-24T11:21:53Z</time>
      </trkpt>
      <trkpt lat="45.79209" lon="5.16429">
        <ele>205.8</ele>
        <time>2022-09-24T11:21:54Z</time>
      </trkpt>
      <trkpt lat="45.79211" lon="5.16436">
        <ele>205.8</ele>
        <time>2022-09-24T11:21:55Z</time>
      </trkpt>
      <trkpt lat="45.79211" lon="5.16443">
        <ele>205.8</ele>
        <time>2022-09-24T11:21:56Z</time>
      </trkpt>
      <trkpt lat="45.79211" lon="5.1645">
        <ele>205.9</ele>
        <time>2022-09-24T11:21:57Z</time>
      </trkpt>
      <trkpt lat="45.79214" lon="5.16455">
        <ele>205.9</ele>
        <time>2022-09-24T11:21:58Z</time>
      </trkpt>
      <trkpt lat="45.79215" lon="5.16462">
        <ele>205.9</ele>
        <time>2022-09-24T11:21:59Z</time>
      </trkpt>
      <trkpt lat="45.79217" lon="5.16468">
        <ele>206</ele>
        <time>2022-09-24T11:22:00Z</time>
      </trkpt>
      <trkpt lat="45.79217" lon="5.16475">
        <ele>206.1</ele>
        <time>2022-09-24T11:22:01Z</time>
      </trkpt>
      <trkpt lat="45.79218" lon="5.16482">
        <ele>206.1</ele>
        <time>2022-09-24T11:22:02Z</time>
      </trkpt>
      <trkpt lat="45.79219" lon="5.16488">
        <ele>206.2</ele>
        <time>2022-09-24T11:22:03Z</time>
      </trkpt>
      <trkpt lat="45.7922" lon="5.16494">
        <ele>206.2</ele>
        <time>2022-09-24T11:22:04Z</time>
      </trkpt>
      <trkpt lat="45.79219" lon="5.16501">
        <ele>206.3</ele>
        <time>2022-09-24T11:22:05Z</time>
      </trkpt>
      <trkpt lat="45.79216" lon="5.16507">
        <ele>206.3</ele>
        <time>2022-09-24T11:22:06Z</time>
      </trkpt>
      <trkpt lat="45.79215" lon="5.16512">
        <ele>206.3</ele>
        <time>2022-09-24T11:22:07Z</time>
      </trkpt>
      <trkpt lat="45.79213" lon="5.16518">
        <ele>206.3</ele>
        <time>2022-09-24T11:22:08Z</time>
      </trkpt>
      <trkpt lat="45.79211" lon="5.16524">
        <ele>206.3</ele>
        <time>2022-09-24T11:22:09Z</time>
      </trkpt>
      <trkpt lat="45.79208" lon="5.16528">
        <ele>206.3</ele>
        <time>2022-09-24T11:22:10Z</time>
      </trkpt>
      <trkpt lat="45.79206" lon="5.16534">
        <ele>206.3</ele>
        <time>2022-09-24T11:22:11Z</time>
      </trkpt>
      <trkpt lat="45.79204" lon="5.16538">
        <ele>206.4</ele>
        <time>2022-09-24T11:22:12Z</time>
      </trkpt>
      <trkpt lat="45.79201" lon="5.16543">
        <ele>206.5</ele>
        <time>2022-09-24T11:22:13Z</time>
      </trkpt>
      <trkpt lat="45.79198" lon="5.16547">
        <ele>206.5</ele>
        <time>2022-09-24T11:22:14Z</time>
      </trkpt>
      <trkpt lat="45.79195" lon="5.16552">
        <ele>206.6</ele>
        <time>2022-09-24T11:22:15Z</time>
      </trkpt>
      <trkpt lat="45.79192" lon="5.16553">
        <ele>206.7</ele>
        <time>2022-09-24T11:22:16Z</time>
      </trkpt>
      <trkpt lat="45.79188" lon="5.16556">
        <ele>206.8</ele>
        <time>2022-09-24T11:22:17Z</time>
      </trkpt>
      <trkpt lat="45.79182" lon="5.16562">
        <ele>207</ele>
        <time>2022-09-24T11:22:18Z</time>
      </trkpt>
      <trkpt lat="45.79178" lon="5.16564">
        <ele>207</ele>
        <time>2022-09-24T11:22:19Z</time>
      </trkpt>
      <trkpt lat="45.79175" lon="5.16568">
        <ele>207.1</ele>
        <time>2022-09-24T11:22:20Z</time>
      </trkpt>
      <trkpt lat="45.79173" lon="5.16572">
        <ele>207.2</ele>
        <time>2022-09-24T11:22:21Z</time>
      </trkpt>
      <trkpt lat="45.79171" lon="5.16577">
        <ele>207.3</ele>
        <time>2022-09-24T11:22:22Z</time>
      </trkpt>
      <trkpt lat="45.79169" lon="5.16582">
        <ele>207.4</ele>
        <time>2022-09-24T11:22:23Z</time>
      </trkpt>
      <trkpt lat="45.79167" lon="5.16587">
        <ele>207.5</ele>
        <time>2022-09-24T11:22:24Z</time>
      </trkpt>
      <trkpt lat="45.79164" lon="5.16592">
        <ele>207.6</ele>
        <time>2022-09-24T11:22:25Z</time>
      </trkpt>
      <trkpt lat="45.79162" lon="5.16597">
        <ele>207.7</ele>
        <time>2022-09-24T11:22:26Z</time>
      </trkpt>
      <trkpt lat="45.7916" lon="5.16602">
        <ele>207.8</ele>
        <time>2022-09-24T11:22:27Z</time>
      </trkpt>
      <trkpt lat="45.79158" lon="5.16606">
        <ele>207.9</ele>
        <time>2022-09-24T11:22:28Z</time>
      </trkpt>
      <trkpt lat="45.79156" lon="5.1661">
        <ele>208</ele>
        <time>2022-09-24T11:22:29Z</time>
      </trkpt>
      <trkpt lat="45.79154" lon="5.16615">
        <ele>208</ele>
        <time>2022-09-24T11:22:30Z</time>
      </trkpt>
      <trkpt lat="45.79152" lon="5.1662">
        <ele>208.1</ele>
        <time>2022-09-24T11:22:31Z</time>
      </trkpt>
      <trkpt lat="45.79151" lon="5.16624">
        <ele>208.2</ele>
        <time>2022-09-24T11:22:32Z</time>
      </trkpt>
      <trkpt lat="45.79149" lon="5.16629">
        <ele>208.3</ele>
        <time>2022-09-24T11:22:33Z</time>
      </trkpt>
      <trkpt lat="45.79146" lon="5.16633">
        <ele>208.4</ele>
        <time>2022-09-24T11:22:34Z</time>
      </trkpt>
      <trkpt lat="45.79144" lon="5.16636">
        <ele>208.4</ele>
        <time>2022-09-24T11:22:35Z</time>
      </trkpt>
      <trkpt lat="45.79142" lon="5.16641">
        <ele>208.5</ele>
        <time>2022-09-24T11:22:36Z</time>
      </trkpt>
      <trkpt lat="45.7914" lon="5.16646">
        <ele>208.6</ele>
        <time>2022-09-24T11:22:37Z</time>
      </trkpt>
      <trkpt lat="45.79139" lon="5.16651">
        <ele>208.6</ele>
        <time>2022-09-24T11:22:38Z</time>
      </trkpt>
      <trkpt lat="45.79138" lon="5.16656">
        <ele>208.7</ele>
        <time>2022-09-24T11:22:39Z</time>
      </trkpt>
      <trkpt lat="45.79138" lon="5.16662">
        <ele>208.7</ele>
        <time>2022-09-24T11:22:40Z</time>
      </trkpt>
      <trkpt lat="45.79138" lon="5.16665">
        <ele>208.8</ele>
        <time>2022-09-24T11:22:41Z</time>
      </trkpt>
      <trkpt lat="45.79139" lon="5.16671">
        <ele>208.8</ele>
        <time>2022-09-24T11:22:42Z</time>
      </trkpt>
      <trkpt lat="45.7914" lon="5.16676">
        <ele>208.8</ele>
        <time>2022-09-24T11:22:43Z</time>
      </trkpt>
      <trkpt lat="45.79141" lon="5.1668">
        <ele>208.9</ele>
        <time>2022-09-24T11:22:44Z</time>
      </trkpt>
      <trkpt lat="45.79141" lon="5.16685">
        <ele>208.9</ele>
        <time>2022-09-24T11:22:45Z</time>
      </trkpt>
      <trkpt lat="45.79141" lon="5.1669">
        <ele>209</ele>
        <time>2022-09-24T11:22:46Z</time>
      </trkpt>
      <trkpt lat="45.79143" lon="5.16695">
        <ele>209</ele>
        <time>2022-09-24T11:22:47Z</time>
      </trkpt>
      <trkpt lat="45.79144" lon="5.16701">
        <ele>209</ele>
        <time>2022-09-24T11:22:48Z</time>
      </trkpt>
      <trkpt lat="45.79144" lon="5.16705">
        <ele>209.1</ele>
        <time>2022-09-24T11:22:49Z</time>
      </trkpt>
      <trkpt lat="45.79146" lon="5.16711">
        <ele>209.1</ele>
        <time>2022-09-24T11:22:50Z</time>
      </trkpt>
      <trkpt lat="45.79146" lon="5.16716">
        <ele>209.1</ele>
        <time>2022-09-24T11:22:51Z</time>
      </trkpt>
      <trkpt lat="45.79148" lon="5.16721">
        <ele>209.1</ele>
        <time>2022-09-24T11:22:52Z</time>
      </trkpt>
      <trkpt lat="45.79148" lon="5.16726">
        <ele>209.1</ele>
        <time>2022-09-24T11:22:53Z</time>
      </trkpt>
      <trkpt lat="45.79149" lon="5.16732">
        <ele>209.1</ele>
        <time>2022-09-24T11:22:54Z</time>
      </trkpt>
      <trkpt lat="45.7915" lon="5.16738">
        <ele>209</ele>
        <time>2022-09-24T11:22:55Z</time>
      </trkpt>
      <trkpt lat="45.79151" lon="5.16744">
        <ele>209</ele>
        <time>2022-09-24T11:22:56Z</time>
      </trkpt>
      <trkpt lat="45.79152" lon="5.1675">
        <ele>209</ele>
        <time>2022-09-24T11:22:57Z</time>
      </trkpt>
      <trkpt lat="45.79153" lon="5.16755">
        <ele>208.9</ele>
        <time>2022-09-24T11:22:58Z</time>
      </trkpt>
      <trkpt lat="45.79154" lon="5.16761">
        <ele>208.9</ele>
        <time>2022-09-24T11:22:59Z</time>
      </trkpt>
      <trkpt lat="45.79154" lon="5.16767">
        <ele>208.9</ele>
        <time>2022-09-24T11:23:00Z</time>
      </trkpt>
      <trkpt lat="45.79155" lon="5.16772">
        <ele>208.9</ele>
        <time>2022-09-24T11:23:01Z</time>
      </trkpt>
      <trkpt lat="45.79156" lon="5.16776">
        <ele>208.8</ele>
        <time>2022-09-24T11:23:02Z</time>
      </trkpt>
      <trkpt lat="45.79156" lon="5.1678">
        <ele>208.9</ele>
        <time>2022-09-24T11:23:03Z</time>
      </trkpt>
      <trkpt lat="45.79157" lon="5.16786">
        <ele>208.9</ele>
        <time>2022-09-24T11:23:04Z</time>
      </trkpt>
      <trkpt lat="45.79158" lon="5.16791">
        <ele>208.9</ele>
        <time>2022-09-24T11:23:05Z</time>
      </trkpt>
      <trkpt lat="45.79158" lon="5.16796">
        <ele>208.9</ele>
        <time>2022-09-24T11:23:06Z</time>
      </trkpt>
      <trkpt lat="45.7916" lon="5.16801">
        <ele>208.9</ele>
        <time>2022-09-24T11:23:07Z</time>
      </trkpt>
      <trkpt lat="45.7916" lon="5.16806">
        <ele>208.9</ele>
        <time>2022-09-24T11:23:08Z</time>
      </trkpt>
      <trkpt lat="45.79161" lon="5.16812">
        <ele>208.9</ele>
        <time>2022-09-24T11:23:09Z</time>
      </trkpt>
      <trkpt lat="45.79162" lon="5.16817">
        <ele>208.9</ele>
        <time>2022-09-24T11:23:10Z</time>
      </trkpt>
      <trkpt lat="45.79162" lon="5.16822">
        <ele>208.8</ele>
        <time>2022-09-24T11:23:11Z</time>
      </trkpt>
      <trkpt lat="45.79161" lon="5.16828">
        <ele>208.7</ele>
        <time>2022-09-24T11:23:12Z</time>
      </trkpt>
      <trkpt lat="45.79161" lon="5.16833">
        <ele>208.6</ele>
        <time>2022-09-24T11:23:13Z</time>
      </trkpt>
      <trkpt lat="45.79159" lon="5.16839">
        <ele>208.5</ele>
        <time>2022-09-24T11:23:14Z</time>
      </trkpt>
      <trkpt lat="45.79156" lon="5.16844">
        <ele>208.4</ele>
        <time>2022-09-24T11:23:15Z</time>
      </trkpt>
      <trkpt lat="45.79154" lon="5.1685">
        <ele>208.3</ele>
        <time>2022-09-24T11:23:16Z</time>
      </trkpt>
      <trkpt lat="45.79152" lon="5.16856">
        <ele>208.1</ele>
        <time>2022-09-24T11:23:17Z</time>
      </trkpt>
      <trkpt lat="45.79149" lon="5.16862">
        <ele>207.9</ele>
        <time>2022-09-24T11:23:18Z</time>
      </trkpt>
      <trkpt lat="45.79147" lon="5.16868">
        <ele>207.8</ele>
        <time>2022-09-24T11:23:19Z</time>
      </trkpt>
      <trkpt lat="45.79144" lon="5.16873">
        <ele>207.5</ele>
        <time>2022-09-24T11:23:20Z</time>
      </trkpt>
      <trkpt lat="45.79141" lon="5.16879">
        <ele>207.3</ele>
        <time>2022-09-24T11:23:22Z</time>
      </trkpt>
      <trkpt lat="45.79138" lon="5.16885">
        <ele>207.1</ele>
        <time>2022-09-24T11:23:23Z</time>
      </trkpt>
      <trkpt lat="45.79135" lon="5.16891">
        <ele>206.8</ele>
        <time>2022-09-24T11:23:24Z</time>
      </trkpt>
      <trkpt lat="45.79133" lon="5.16897">
        <ele>206.5</ele>
        <time>2022-09-24T11:23:25Z</time>
      </trkpt>
      <trkpt lat="45.7913" lon="5.16904">
        <ele>206.1</ele>
        <time>2022-09-24T11:23:26Z</time>
      </trkpt>
      <trkpt lat="45.79127" lon="5.1691">
        <ele>205.8</ele>
        <time>2022-09-24T11:23:27Z</time>
      </trkpt>
      <trkpt lat="45.79124" lon="5.16917">
        <ele>205.5</ele>
        <time>2022-09-24T11:23:28Z</time>
      </trkpt>
      <trkpt lat="45.79119" lon="5.16923">
        <ele>205.2</ele>
        <time>2022-09-24T11:23:29Z</time>
      </trkpt>
      <trkpt lat="45.79115" lon="5.16926">
        <ele>205</ele>
        <time>2022-09-24T11:23:30Z</time>
      </trkpt>
      <trkpt lat="45.79109" lon="5.1693">
        <ele>204.7</ele>
        <time>2022-09-24T11:23:31Z</time>
      </trkpt>
      <trkpt lat="45.79103" lon="5.16933">
        <ele>204.5</ele>
        <time>2022-09-24T11:23:32Z</time>
      </trkpt>
      <trkpt lat="45.79098" lon="5.16933">
        <ele>204.4</ele>
        <time>2022-09-24T11:23:33Z</time>
      </trkpt>
      <trkpt lat="45.79092" lon="5.16936">
        <ele>204.3</ele>
        <time>2022-09-24T11:23:34Z</time>
      </trkpt>
      <trkpt lat="45.79087" lon="5.1694">
        <ele>204.2</ele>
        <time>2022-09-24T11:23:35Z</time>
      </trkpt>
      <trkpt lat="45.79081" lon="5.16943">
        <ele>204</ele>
        <time>2022-09-24T11:23:36Z</time>
      </trkpt>
      <trkpt lat="45.79076" lon="5.16947">
        <ele>204</ele>
        <time>2022-09-24T11:23:37Z</time>
      </trkpt>
      <trkpt lat="45.79071" lon="5.1695">
        <ele>203.9</ele>
        <time>2022-09-24T11:23:38Z</time>
      </trkpt>
      <trkpt lat="45.79067" lon="5.16952">
        <ele>203.8</ele>
        <time>2022-09-24T11:23:39Z</time>
      </trkpt>
      <trkpt lat="45.79063" lon="5.16954">
        <ele>203.8</ele>
        <time>2022-09-24T11:23:40Z</time>
      </trkpt>
      <trkpt lat="45.7906" lon="5.16956">
        <ele>203.8</ele>
        <time>2022-09-24T11:23:41Z</time>
      </trkpt>
      <trkpt lat="45.79057" lon="5.16955">
        <ele>203.7</ele>
        <time>2022-09-24T11:23:42Z</time>
      </trkpt>
      <trkpt lat="45.79054" lon="5.16953">
        <ele>203.7</ele>
        <time>2022-09-24T11:23:43Z</time>
      </trkpt>
      <trkpt lat="45.79053" lon="5.16953">
        <ele>203.7</ele>
        <time>2022-09-24T11:23:44Z</time>
      </trkpt>
      <trkpt lat="45.79049" lon="5.16957">
        <ele>203.7</ele>
        <time>2022-09-24T11:23:45Z</time>
      </trkpt>
      <trkpt lat="45.79047" lon="5.16963">
        <ele>203.7</ele>
        <time>2022-09-24T11:23:46Z</time>
      </trkpt>
      <trkpt lat="45.79047" lon="5.16969">
        <ele>203.6</ele>
        <time>2022-09-24T11:23:47Z</time>
      </trkpt>
      <trkpt lat="45.79049" lon="5.16974">
        <ele>203.6</ele>
        <time>2022-09-24T11:23:48Z</time>
      </trkpt>
      <trkpt lat="45.79047" lon="5.16977">
        <ele>203.5</ele>
        <time>2022-09-24T11:23:49Z</time>
      </trkpt>
      <trkpt lat="45.79048" lon="5.16979">
        <ele>203.5</ele>
        <time>2022-09-24T11:23:50Z</time>
      </trkpt>
      <trkpt lat="45.7905" lon="5.16983">
        <ele>203.5</ele>
        <time>2022-09-24T11:23:51Z</time>
      </trkpt>
      <trkpt lat="45.79052" lon="5.16987">
        <ele>203.4</ele>
        <time>2022-09-24T11:23:52Z</time>
      </trkpt>
      <trkpt lat="45.79054" lon="5.16991">
        <ele>203.4</ele>
        <time>2022-09-24T11:23:53Z</time>
      </trkpt>
      <trkpt lat="45.79054" lon="5.16997">
        <ele>203.3</ele>
        <time>2022-09-24T11:23:54Z</time>
      </trkpt>
      <trkpt lat="45.79055" lon="5.17003">
        <ele>203.3</ele>
        <time>2022-09-24T11:23:55Z</time>
      </trkpt>
      <trkpt lat="45.79056" lon="5.17009">
        <ele>203.2</ele>
        <time>2022-09-24T11:23:56Z</time>
      </trkpt>
      <trkpt lat="45.79057" lon="5.17015">
        <ele>203.2</ele>
        <time>2022-09-24T11:23:57Z</time>
      </trkpt>
      <trkpt lat="45.79059" lon="5.17023">
        <ele>203.1</ele>
        <time>2022-09-24T11:23:58Z</time>
      </trkpt>
      <trkpt lat="45.79061" lon="5.17032">
        <ele>203</ele>
        <time>2022-09-24T11:23:59Z</time>
      </trkpt>
      <trkpt lat="45.79064" lon="5.17041">
        <ele>202.9</ele>
        <time>2022-09-24T11:24:00Z</time>
      </trkpt>
      <trkpt lat="45.79067" lon="5.17048">
        <ele>202.8</ele>
        <time>2022-09-24T11:24:01Z</time>
      </trkpt>
      <trkpt lat="45.7907" lon="5.17053">
        <ele>202.8</ele>
        <time>2022-09-24T11:24:02Z</time>
      </trkpt>
      <trkpt lat="45.79073" lon="5.17059">
        <ele>202.7</ele>
        <time>2022-09-24T11:24:03Z</time>
      </trkpt>
      <trkpt lat="45.79076" lon="5.17067">
        <ele>202.6</ele>
        <time>2022-09-24T11:24:04Z</time>
      </trkpt>
      <trkpt lat="45.7908" lon="5.17074">
        <ele>202.5</ele>
        <time>2022-09-24T11:24:05Z</time>
      </trkpt>
      <trkpt lat="45.79083" lon="5.17081">
        <ele>202.4</ele>
        <time>2022-09-24T11:24:06Z</time>
      </trkpt>
      <trkpt lat="45.79086" lon="5.17089">
        <ele>202.4</ele>
        <time>2022-09-24T11:24:07Z</time>
      </trkpt>
      <trkpt lat="45.79089" lon="5.17096">
        <ele>202.3</ele>
        <time>2022-09-24T11:24:08Z</time>
      </trkpt>
      <trkpt lat="45.79091" lon="5.17104">
        <ele>202.3</ele>
        <time>2022-09-24T11:24:09Z</time>
      </trkpt>
      <trkpt lat="45.79094" lon="5.1711">
        <ele>202.2</ele>
        <time>2022-09-24T11:24:10Z</time>
      </trkpt>
      <trkpt lat="45.79097" lon="5.17117">
        <ele>202.2</ele>
        <time>2022-09-24T11:24:11Z</time>
      </trkpt>
      <trkpt lat="45.79101" lon="5.17125">
        <ele>202.2</ele>
        <time>2022-09-24T11:24:12Z</time>
      </trkpt>
      <trkpt lat="45.79104" lon="5.17132">
        <ele>202.1</ele>
        <time>2022-09-24T11:24:13Z</time>
      </trkpt>
      <trkpt lat="45.79108" lon="5.17138">
        <ele>202.1</ele>
        <time>2022-09-24T11:24:14Z</time>
      </trkpt>
      <trkpt lat="45.79112" lon="5.17145">
        <ele>202</ele>
        <time>2022-09-24T11:24:15Z</time>
      </trkpt>
      <trkpt lat="45.79115" lon="5.1715">
        <ele>202</ele>
        <time>2022-09-24T11:24:16Z</time>
      </trkpt>
      <trkpt lat="45.79121" lon="5.17163">
        <ele>201.8</ele>
        <time>2022-09-24T11:24:17Z</time>
      </trkpt>
      <trkpt lat="45.79124" lon="5.17169">
        <ele>201.7</ele>
        <time>2022-09-24T11:24:18Z</time>
      </trkpt>
      <trkpt lat="45.79128" lon="5.17176">
        <ele>201.7</ele>
        <time>2022-09-24T11:24:19Z</time>
      </trkpt>
      <trkpt lat="45.79131" lon="5.17183">
        <ele>201.6</ele>
        <time>2022-09-24T11:24:20Z</time>
      </trkpt>
      <trkpt lat="45.79134" lon="5.17189">
        <ele>201.6</ele>
        <time>2022-09-24T11:24:21Z</time>
      </trkpt>
      <trkpt lat="45.79138" lon="5.17194">
        <ele>201.6</ele>
        <time>2022-09-24T11:24:22Z</time>
      </trkpt>
      <trkpt lat="45.79141" lon="5.172">
        <ele>201.6</ele>
        <time>2022-09-24T11:24:23Z</time>
      </trkpt>
      <trkpt lat="45.79143" lon="5.17206">
        <ele>201.5</ele>
        <time>2022-09-24T11:24:24Z</time>
      </trkpt>
      <trkpt lat="45.79146" lon="5.17212">
        <ele>201.5</ele>
        <time>2022-09-24T11:24:25Z</time>
      </trkpt>
      <trkpt lat="45.79149" lon="5.17218">
        <ele>201.5</ele>
        <time>2022-09-24T11:24:26Z</time>
      </trkpt>
      <trkpt lat="45.79152" lon="5.17224">
        <ele>201.5</ele>
        <time>2022-09-24T11:24:27Z</time>
      </trkpt>
      <trkpt lat="45.79154" lon="5.1723">
        <ele>201.4</ele>
        <time>2022-09-24T11:24:28Z</time>
      </trkpt>
      <trkpt lat="45.79157" lon="5.17237">
        <ele>201.4</ele>
        <time>2022-09-24T11:24:29Z</time>
      </trkpt>
      <trkpt lat="45.79161" lon="5.17244">
        <ele>201.4</ele>
        <time>2022-09-24T11:24:30Z</time>
      </trkpt>
      <trkpt lat="45.79163" lon="5.17248">
        <ele>201.4</ele>
        <time>2022-09-24T11:24:31Z</time>
      </trkpt>
      <trkpt lat="45.79167" lon="5.17255">
        <ele>201.4</ele>
        <time>2022-09-24T11:24:32Z</time>
      </trkpt>
      <trkpt lat="45.7917" lon="5.17262">
        <ele>201.5</ele>
        <time>2022-09-24T11:24:33Z</time>
      </trkpt>
      <trkpt lat="45.79172" lon="5.17266">
        <ele>201.5</ele>
        <time>2022-09-24T11:24:34Z</time>
      </trkpt>
      <trkpt lat="45.79172" lon="5.1727">
        <ele>201.6</ele>
        <time>2022-09-24T11:24:35Z</time>
      </trkpt>
      <trkpt lat="45.79175" lon="5.17274">
        <ele>201.6</ele>
        <time>2022-09-24T11:24:36Z</time>
      </trkpt>
      <trkpt lat="45.79177" lon="5.17279">
        <ele>201.7</ele>
        <time>2022-09-24T11:24:37Z</time>
      </trkpt>
      <trkpt lat="45.79181" lon="5.17287">
        <ele>201.8</ele>
        <time>2022-09-24T11:24:38Z</time>
      </trkpt>
      <trkpt lat="45.79184" lon="5.17293">
        <ele>201.9</ele>
        <time>2022-09-24T11:24:39Z</time>
      </trkpt>
      <trkpt lat="45.79187" lon="5.17299">
        <ele>201.9</ele>
        <time>2022-09-24T11:24:40Z</time>
      </trkpt>
      <trkpt lat="45.7919" lon="5.17305">
        <ele>202</ele>
        <time>2022-09-24T11:24:41Z</time>
      </trkpt>
      <trkpt lat="45.79192" lon="5.17311">
        <ele>202</ele>
        <time>2022-09-24T11:24:42Z</time>
      </trkpt>
      <trkpt lat="45.79194" lon="5.17317">
        <ele>202.1</ele>
        <time>2022-09-24T11:24:43Z</time>
      </trkpt>
      <trkpt lat="45.79197" lon="5.17322">
        <ele>202.1</ele>
        <time>2022-09-24T11:24:44Z</time>
      </trkpt>
      <trkpt lat="45.79199" lon="5.17328">
        <ele>202.1</ele>
        <time>2022-09-24T11:24:45Z</time>
      </trkpt>
      <trkpt lat="45.792" lon="5.17332">
        <ele>202</ele>
        <time>2022-09-24T11:24:46Z</time>
      </trkpt>
      <trkpt lat="45.79201" lon="5.17337">
        <ele>201.9</ele>
        <time>2022-09-24T11:24:47Z</time>
      </trkpt>
      <trkpt lat="45.79202" lon="5.17339">
        <ele>201.9</ele>
        <time>2022-09-24T11:24:48Z</time>
      </trkpt>
      <trkpt lat="45.79202" lon="5.17344">
        <ele>202</ele>
        <time>2022-09-24T11:24:49Z</time>
      </trkpt>
      <trkpt lat="45.79202" lon="5.17349">
        <ele>202</ele>
        <time>2022-09-24T11:24:50Z</time>
      </trkpt>
      <trkpt lat="45.79201" lon="5.17354">
        <ele>202.1</ele>
        <time>2022-09-24T11:24:51Z</time>
      </trkpt>
      <trkpt lat="45.792" lon="5.17358">
        <ele>202.2</ele>
        <time>2022-09-24T11:24:52Z</time>
      </trkpt>
      <trkpt lat="45.79198" lon="5.17363">
        <ele>202.3</ele>
        <time>2022-09-24T11:24:53Z</time>
      </trkpt>
      <trkpt lat="45.79196" lon="5.17367">
        <ele>202.4</ele>
        <time>2022-09-24T11:24:54Z</time>
      </trkpt>
      <trkpt lat="45.79194" lon="5.17373">
        <ele>202.6</ele>
        <time>2022-09-24T11:24:55Z</time>
      </trkpt>
      <trkpt lat="45.7919" lon="5.17377">
        <ele>202.9</ele>
        <time>2022-09-24T11:24:56Z</time>
      </trkpt>
      <trkpt lat="45.79187" lon="5.17381">
        <ele>203.1</ele>
        <time>2022-09-24T11:24:57Z</time>
      </trkpt>
      <trkpt lat="45.79184" lon="5.17384">
        <ele>203.4</ele>
        <time>2022-09-24T11:24:58Z</time>
      </trkpt>
      <trkpt lat="45.79181" lon="5.17387">
        <ele>203.6</ele>
        <time>2022-09-24T11:24:59Z</time>
      </trkpt>
      <trkpt lat="45.79178" lon="5.17389">
        <ele>203.8</ele>
        <time>2022-09-24T11:25:00Z</time>
      </trkpt>
      <trkpt lat="45.79174" lon="5.1739">
        <ele>204.1</ele>
        <time>2022-09-24T11:25:01Z</time>
      </trkpt>
      <trkpt lat="45.7917" lon="5.17391">
        <ele>204.5</ele>
        <time>2022-09-24T11:25:02Z</time>
      </trkpt>
      <trkpt lat="45.79167" lon="5.17392">
        <ele>204.7</ele>
        <time>2022-09-24T11:25:03Z</time>
      </trkpt>
      <trkpt lat="45.79164" lon="5.17394">
        <ele>205</ele>
        <time>2022-09-24T11:25:04Z</time>
      </trkpt>
      <trkpt lat="45.79161" lon="5.17395">
        <ele>205.3</ele>
        <time>2022-09-24T11:25:05Z</time>
      </trkpt>
      <trkpt lat="45.79157" lon="5.17396">
        <ele>205.6</ele>
        <time>2022-09-24T11:25:06Z</time>
      </trkpt>
      <trkpt lat="45.79155" lon="5.17396">
        <ele>205.7</ele>
        <time>2022-09-24T11:25:07Z</time>
      </trkpt>
      <trkpt lat="45.79152" lon="5.17398">
        <ele>205.9</ele>
        <time>2022-09-24T11:25:08Z</time>
      </trkpt>
      <trkpt lat="45.7915" lon="5.17399">
        <ele>206.2</ele>
        <time>2022-09-24T11:25:09Z</time>
      </trkpt>
      <trkpt lat="45.79147" lon="5.17401">
        <ele>206.4</ele>
        <time>2022-09-24T11:25:10Z</time>
      </trkpt>
      <trkpt lat="45.79144" lon="5.17405">
        <ele>206.7</ele>
        <time>2022-09-24T11:25:11Z</time>
      </trkpt>
      <trkpt lat="45.79142" lon="5.17407">
        <ele>206.8</ele>
        <time>2022-09-24T11:25:12Z</time>
      </trkpt>
      <trkpt lat="45.7914" lon="5.1741">
        <ele>207.1</ele>
        <time>2022-09-24T11:25:13Z</time>
      </trkpt>
      <trkpt lat="45.79137" lon="5.17415">
        <ele>207.4</ele>
        <time>2022-09-24T11:25:14Z</time>
      </trkpt>
      <trkpt lat="45.79135" lon="5.17419">
        <ele>207.7</ele>
        <time>2022-09-24T11:25:15Z</time>
      </trkpt>
      <trkpt lat="45.79135" lon="5.17423">
        <ele>207.9</ele>
        <time>2022-09-24T11:25:16Z</time>
      </trkpt>
      <trkpt lat="45.79135" lon="5.17429">
        <ele>208.2</ele>
        <time>2022-09-24T11:25:17Z</time>
      </trkpt>
      <trkpt lat="45.79135" lon="5.17431">
        <ele>208.3</ele>
        <time>2022-09-24T11:25:18Z</time>
      </trkpt>
      <trkpt lat="45.79135" lon="5.17435">
        <ele>208.5</ele>
        <time>2022-09-24T11:25:19Z</time>
      </trkpt>
      <trkpt lat="45.79135" lon="5.1744">
        <ele>208.8</ele>
        <time>2022-09-24T11:25:20Z</time>
      </trkpt>
      <trkpt lat="45.79136" lon="5.17444">
        <ele>209</ele>
        <time>2022-09-24T11:25:21Z</time>
      </trkpt>
      <trkpt lat="45.79136" lon="5.17448">
        <ele>209.2</ele>
        <time>2022-09-24T11:25:22Z</time>
      </trkpt>
      <trkpt lat="45.79136" lon="5.17453">
        <ele>209.5</ele>
        <time>2022-09-24T11:25:23Z</time>
      </trkpt>
      <trkpt lat="45.79136" lon="5.17454">
        <ele>209.6</ele>
        <time>2022-09-24T11:25:24Z</time>
      </trkpt>
      <trkpt lat="45.79136" lon="5.17458">
        <ele>209.8</ele>
        <time>2022-09-24T11:25:25Z</time>
      </trkpt>
      <trkpt lat="45.79136" lon="5.1746">
        <ele>209.9</ele>
        <time>2022-09-24T11:25:26Z</time>
      </trkpt>
      <trkpt lat="45.79136" lon="5.17465">
        <ele>210.2</ele>
        <time>2022-09-24T11:25:28Z</time>
      </trkpt>
      <trkpt lat="45.79136" lon="5.17467">
        <ele>210.3</ele>
        <time>2022-09-24T11:25:29Z</time>
      </trkpt>
      <trkpt lat="45.79136" lon="5.17472">
        <ele>210.6</ele>
        <time>2022-09-24T11:25:30Z</time>
      </trkpt>
      <trkpt lat="45.79136" lon="5.17474">
        <ele>210.7</ele>
        <time>2022-09-24T11:25:31Z</time>
      </trkpt>
      <trkpt lat="45.79137" lon="5.17479">
        <ele>211</ele>
        <time>2022-09-24T11:25:32Z</time>
      </trkpt>
      <trkpt lat="45.79137" lon="5.1748">
        <ele>211.1</ele>
        <time>2022-09-24T11:25:33Z</time>
      </trkpt>
      <trkpt lat="45.79138" lon="5.17484">
        <ele>211.3</ele>
        <time>2022-09-24T11:25:34Z</time>
      </trkpt>
      <trkpt lat="45.79139" lon="5.17499">
        <ele>211.9</ele>
        <time>2022-09-24T11:25:35Z</time>
      </trkpt>
      <trkpt lat="45.79139" lon="5.1751">
        <ele>212.1</ele>
        <time>2022-09-24T11:25:41Z</time>
      </trkpt>
      <trkpt lat="45.7914" lon="5.17522">
        <ele>212.4</ele>
        <time>2022-09-24T11:25:42Z</time>
      </trkpt>
      <trkpt lat="45.79138" lon="5.17526">
        <ele>212.4</ele>
        <time>2022-09-24T11:25:43Z</time>
      </trkpt>
      <trkpt lat="45.79136" lon="5.1753">
        <ele>212.5</ele>
        <time>2022-09-24T11:25:44Z</time>
      </trkpt>
      <trkpt lat="45.79135" lon="5.17533">
        <ele>212.6</ele>
        <time>2022-09-24T11:25:45Z</time>
      </trkpt>
      <trkpt lat="45.79132" lon="5.17536">
        <ele>212.6</ele>
        <time>2022-09-24T11:25:46Z</time>
      </trkpt>
      <trkpt lat="45.79129" lon="5.17539">
        <ele>212.7</ele>
        <time>2022-09-24T11:25:47Z</time>
      </trkpt>
      <trkpt lat="45.79129" lon="5.17539">
        <ele>212.7</ele>
        <time>2022-09-24T11:25:48Z</time>
      </trkpt>
      <trkpt lat="45.79126" lon="5.17542">
        <ele>212.8</ele>
        <time>2022-09-24T11:25:49Z</time>
      </trkpt>
      <trkpt lat="45.79123" lon="5.17545">
        <ele>212.8</ele>
        <time>2022-09-24T11:25:50Z</time>
      </trkpt>
      <trkpt lat="45.79119" lon="5.17547">
        <ele>212.9</ele>
        <time>2022-09-24T11:25:51Z</time>
      </trkpt>
      <trkpt lat="45.79116" lon="5.17549">
        <ele>212.9</ele>
        <time>2022-09-24T11:25:52Z</time>
      </trkpt>
      <trkpt lat="45.79113" lon="5.17551">
        <ele>212.9</ele>
        <time>2022-09-24T11:25:53Z</time>
      </trkpt>
      <trkpt lat="45.79109" lon="5.17553">
        <ele>212.9</ele>
        <time>2022-09-24T11:25:54Z</time>
      </trkpt>
      <trkpt lat="45.79106" lon="5.17555">
        <ele>213</ele>
        <time>2022-09-24T11:25:55Z</time>
      </trkpt>
      <trkpt lat="45.79102" lon="5.17557">
        <ele>213</ele>
        <time>2022-09-24T11:25:56Z</time>
      </trkpt>
      <trkpt lat="45.79098" lon="5.17559">
        <ele>213</ele>
        <time>2022-09-24T11:25:57Z</time>
      </trkpt>
      <trkpt lat="45.79093" lon="5.17561">
        <ele>213.1</ele>
        <time>2022-09-24T11:25:58Z</time>
      </trkpt>
      <trkpt lat="45.7909" lon="5.17563">
        <ele>213.1</ele>
        <time>2022-09-24T11:25:59Z</time>
      </trkpt>
      <trkpt lat="45.79086" lon="5.17564">
        <ele>213.1</ele>
        <time>2022-09-24T11:26:00Z</time>
      </trkpt>
      <trkpt lat="45.79083" lon="5.17569">
        <ele>213.2</ele>
        <time>2022-09-24T11:26:01Z</time>
      </trkpt>
      <trkpt lat="45.79078" lon="5.17569">
        <ele>213.2</ele>
        <time>2022-09-24T11:26:02Z</time>
      </trkpt>
      <trkpt lat="45.79074" lon="5.1757">
        <ele>213.3</ele>
        <time>2022-09-24T11:26:03Z</time>
      </trkpt>
      <trkpt lat="45.79069" lon="5.17572">
        <ele>213.3</ele>
        <time>2022-09-24T11:26:04Z</time>
      </trkpt>
      <trkpt lat="45.79065" lon="5.17573">
        <ele>213.4</ele>
        <time>2022-09-24T11:26:05Z</time>
      </trkpt>
      <trkpt lat="45.79061" lon="5.17575">
        <ele>213.5</ele>
        <time>2022-09-24T11:26:06Z</time>
      </trkpt>
      <trkpt lat="45.79057" lon="5.17576">
        <ele>213.6</ele>
        <time>2022-09-24T11:26:07Z</time>
      </trkpt>
      <trkpt lat="45.79053" lon="5.17578">
        <ele>213.7</ele>
        <time>2022-09-24T11:26:08Z</time>
      </trkpt>
      <trkpt lat="45.7905" lon="5.17578">
        <ele>213.8</ele>
        <time>2022-09-24T11:26:09Z</time>
      </trkpt>
      <trkpt lat="45.79047" lon="5.17578">
        <ele>213.9</ele>
        <time>2022-09-24T11:26:10Z</time>
      </trkpt>
      <trkpt lat="45.79043" lon="5.17577">
        <ele>214</ele>
        <time>2022-09-24T11:26:11Z</time>
      </trkpt>
      <trkpt lat="45.7904" lon="5.17578">
        <ele>214.1</ele>
        <time>2022-09-24T11:26:12Z</time>
      </trkpt>
      <trkpt lat="45.79036" lon="5.17579">
        <ele>214.2</ele>
        <time>2022-09-24T11:26:13Z</time>
      </trkpt>
      <trkpt lat="45.79031" lon="5.17577">
        <ele>214.3</ele>
        <time>2022-09-24T11:26:14Z</time>
      </trkpt>
      <trkpt lat="45.7903" lon="5.17576">
        <ele>214.3</ele>
        <time>2022-09-24T11:26:15Z</time>
      </trkpt>
      <trkpt lat="45.79027" lon="5.17575">
        <ele>214.4</ele>
        <time>2022-09-24T11:26:16Z</time>
      </trkpt>
      <trkpt lat="45.79025" lon="5.17573">
        <ele>214.4</ele>
        <time>2022-09-24T11:26:17Z</time>
      </trkpt>
      <trkpt lat="45.79021" lon="5.17571">
        <ele>214.5</ele>
        <time>2022-09-24T11:26:18Z</time>
      </trkpt>
      <trkpt lat="45.79017" lon="5.17569">
        <ele>214.6</ele>
        <time>2022-09-24T11:26:19Z</time>
      </trkpt>
      <trkpt lat="45.79014" lon="5.17566">
        <ele>214.7</ele>
        <time>2022-09-24T11:26:20Z</time>
      </trkpt>
      <trkpt lat="45.79012" lon="5.17563">
        <ele>214.7</ele>
        <time>2022-09-24T11:26:21Z</time>
      </trkpt>
      <trkpt lat="45.79008" lon="5.1756">
        <ele>214.8</ele>
        <time>2022-09-24T11:26:22Z</time>
      </trkpt>
      <trkpt lat="45.79003" lon="5.17553">
        <ele>214.9</ele>
        <time>2022-09-24T11:26:23Z</time>
      </trkpt>
      <trkpt lat="45.78999" lon="5.17551">
        <ele>214.9</ele>
        <time>2022-09-24T11:26:24Z</time>
      </trkpt>
      <trkpt lat="45.78996" lon="5.17549">
        <ele>215</ele>
        <time>2022-09-24T11:26:25Z</time>
      </trkpt>
      <trkpt lat="45.78994" lon="5.17546">
        <ele>215</ele>
        <time>2022-09-24T11:26:26Z</time>
      </trkpt>
      <trkpt lat="45.78991" lon="5.17542">
        <ele>215.1</ele>
        <time>2022-09-24T11:26:27Z</time>
      </trkpt>
      <trkpt lat="45.78988" lon="5.17538">
        <ele>215.1</ele>
        <time>2022-09-24T11:26:28Z</time>
      </trkpt>
      <trkpt lat="45.78985" lon="5.17536">
        <ele>215.1</ele>
        <time>2022-09-24T11:26:29Z</time>
      </trkpt>
      <trkpt lat="45.78982" lon="5.17532">
        <ele>215.1</ele>
        <time>2022-09-24T11:26:30Z</time>
      </trkpt>
      <trkpt lat="45.7898" lon="5.17528">
        <ele>215.2</ele>
        <time>2022-09-24T11:26:31Z</time>
      </trkpt>
      <trkpt lat="45.78977" lon="5.17524">
        <ele>215.2</ele>
        <time>2022-09-24T11:26:32Z</time>
      </trkpt>
      <trkpt lat="45.78974" lon="5.1752">
        <ele>215.2</ele>
        <time>2022-09-24T11:26:33Z</time>
      </trkpt>
      <trkpt lat="45.78971" lon="5.17517">
        <ele>215.2</ele>
        <time>2022-09-24T11:26:34Z</time>
      </trkpt>
      <trkpt lat="45.78967" lon="5.17513">
        <ele>215.3</ele>
        <time>2022-09-24T11:26:35Z</time>
      </trkpt>
      <trkpt lat="45.78964" lon="5.1751">
        <ele>215.3</ele>
        <time>2022-09-24T11:26:36Z</time>
      </trkpt>
      <trkpt lat="45.7896" lon="5.17509">
        <ele>215.3</ele>
        <time>2022-09-24T11:26:37Z</time>
      </trkpt>
      <trkpt lat="45.78955" lon="5.17508">
        <ele>215.3</ele>
        <time>2022-09-24T11:26:38Z</time>
      </trkpt>
      <trkpt lat="45.78951" lon="5.17508">
        <ele>215.3</ele>
        <time>2022-09-24T11:26:39Z</time>
      </trkpt>
      <trkpt lat="45.78946" lon="5.17508">
        <ele>215.4</ele>
        <time>2022-09-24T11:26:40Z</time>
      </trkpt>
      <trkpt lat="45.78942" lon="5.1751">
        <ele>215.4</ele>
        <time>2022-09-24T11:26:41Z</time>
      </trkpt>
      <trkpt lat="45.78937" lon="5.17512">
        <ele>215.4</ele>
        <time>2022-09-24T11:26:42Z</time>
      </trkpt>
      <trkpt lat="45.78933" lon="5.17514">
        <ele>215.4</ele>
        <time>2022-09-24T11:26:43Z</time>
      </trkpt>
      <trkpt lat="45.78929" lon="5.17516">
        <ele>215.4</ele>
        <time>2022-09-24T11:26:44Z</time>
      </trkpt>
      <trkpt lat="45.78925" lon="5.17517">
        <ele>215.4</ele>
        <time>2022-09-24T11:26:45Z</time>
      </trkpt>
      <trkpt lat="45.7892" lon="5.17518">
        <ele>215.4</ele>
        <time>2022-09-24T11:26:46Z</time>
      </trkpt>
      <trkpt lat="45.78916" lon="5.1752">
        <ele>215.4</ele>
        <time>2022-09-24T11:26:47Z</time>
      </trkpt>
      <trkpt lat="45.78912" lon="5.17523">
        <ele>215.4</ele>
        <time>2022-09-24T11:26:48Z</time>
      </trkpt>
      <trkpt lat="45.78907" lon="5.17526">
        <ele>215.3</ele>
        <time>2022-09-24T11:26:49Z</time>
      </trkpt>
      <trkpt lat="45.78904" lon="5.17527">
        <ele>215.3</ele>
        <time>2022-09-24T11:26:50Z</time>
      </trkpt>
      <trkpt lat="45.78899" lon="5.17529">
        <ele>215.3</ele>
        <time>2022-09-24T11:26:51Z</time>
      </trkpt>
      <trkpt lat="45.78895" lon="5.17532">
        <ele>215.3</ele>
        <time>2022-09-24T11:26:52Z</time>
      </trkpt>
      <trkpt lat="45.7889" lon="5.17534">
        <ele>215.2</ele>
        <time>2022-09-24T11:26:53Z</time>
      </trkpt>
      <trkpt lat="45.78886" lon="5.17536">
        <ele>215.2</ele>
        <time>2022-09-24T11:26:54Z</time>
      </trkpt>
      <trkpt lat="45.78882" lon="5.17539">
        <ele>215.1</ele>
        <time>2022-09-24T11:26:55Z</time>
      </trkpt>
      <trkpt lat="45.78878" lon="5.1754">
        <ele>215.1</ele>
        <time>2022-09-24T11:26:56Z</time>
      </trkpt>
      <trkpt lat="45.78874" lon="5.17542">
        <ele>215</ele>
        <time>2022-09-24T11:26:57Z</time>
      </trkpt>
      <trkpt lat="45.7887" lon="5.17544">
        <ele>215</ele>
        <time>2022-09-24T11:26:58Z</time>
      </trkpt>
      <trkpt lat="45.78866" lon="5.17547">
        <ele>214.9</ele>
        <time>2022-09-24T11:26:59Z</time>
      </trkpt>
      <trkpt lat="45.78863" lon="5.17547">
        <ele>214.9</ele>
        <time>2022-09-24T11:27:00Z</time>
      </trkpt>
      <trkpt lat="45.78859" lon="5.1755">
        <ele>214.9</ele>
        <time>2022-09-24T11:27:01Z</time>
      </trkpt>
      <trkpt lat="45.78856" lon="5.17551">
        <ele>214.8</ele>
        <time>2022-09-24T11:27:02Z</time>
      </trkpt>
      <trkpt lat="45.78852" lon="5.17552">
        <ele>214.8</ele>
        <time>2022-09-24T11:27:03Z</time>
      </trkpt>
      <trkpt lat="45.78849" lon="5.17553">
        <ele>214.7</ele>
        <time>2022-09-24T11:27:04Z</time>
      </trkpt>
      <trkpt lat="45.78846" lon="5.17555">
        <ele>214.7</ele>
        <time>2022-09-24T11:27:05Z</time>
      </trkpt>
      <trkpt lat="45.78845" lon="5.17554">
        <ele>214.7</ele>
        <time>2022-09-24T11:27:06Z</time>
      </trkpt>
      <trkpt lat="45.78843" lon="5.17556">
        <ele>214.7</ele>
        <time>2022-09-24T11:27:07Z</time>
      </trkpt>
      <trkpt lat="45.78842" lon="5.17556">
        <ele>214.7</ele>
        <time>2022-09-24T11:27:08Z</time>
      </trkpt>
      <trkpt lat="45.78841" lon="5.17556">
        <ele>214.6</ele>
        <time>2022-09-24T11:27:09Z</time>
      </trkpt>
      <trkpt lat="45.7884" lon="5.17556">
        <ele>214.6</ele>
        <time>2022-09-24T11:27:10Z</time>
      </trkpt>
      <trkpt lat="45.78839" lon="5.17556">
        <ele>214.6</ele>
        <time>2022-09-24T11:27:11Z</time>
      </trkpt>
      <trkpt lat="45.78838" lon="5.17557">
        <ele>214.6</ele>
        <time>2022-09-24T11:27:12Z</time>
      </trkpt>
      <trkpt lat="45.78838" lon="5.17557">
        <ele>214.6</ele>
        <time>2022-09-24T11:27:13Z</time>
      </trkpt>
      <trkpt lat="45.78837" lon="5.17557">
        <ele>214.6</ele>
        <time>2022-09-24T11:27:14Z</time>
      </trkpt>
      <trkpt lat="45.78836" lon="5.17557">
        <ele>214.6</ele>
        <time>2022-09-24T11:27:15Z</time>
      </trkpt>
      <trkpt lat="45.78835" lon="5.17557">
        <ele>214.6</ele>
        <time>2022-09-24T11:27:16Z</time>
      </trkpt>
      <trkpt lat="45.78834" lon="5.17557">
        <ele>214.6</ele>
        <time>2022-09-24T11:27:17Z</time>
      </trkpt>
      <trkpt lat="45.78833" lon="5.17557">
        <ele>214.6</ele>
        <time>2022-09-24T11:27:34Z</time>
      </trkpt>
      <trkpt lat="45.78833" lon="5.17557">
        <ele>214.6</ele>
        <time>2022-09-24T11:27:35Z</time>
      </trkpt>
      <trkpt lat="45.78829" lon="5.17559">
        <ele>214.6</ele>
        <time>2022-09-24T11:27:36Z</time>
      </trkpt>
      <trkpt lat="45.78827" lon="5.1756">
        <ele>214.6</ele>
        <time>2022-09-24T11:27:37Z</time>
      </trkpt>
      <trkpt lat="45.78824" lon="5.1756">
        <ele>214.6</ele>
        <time>2022-09-24T11:27:38Z</time>
      </trkpt>
      <trkpt lat="45.7882" lon="5.17562">
        <ele>214.6</ele>
        <time>2022-09-24T11:27:39Z</time>
      </trkpt>
      <trkpt lat="45.78819" lon="5.17562">
        <ele>214.6</ele>
        <time>2022-09-24T11:27:40Z</time>
      </trkpt>
      <trkpt lat="45.78813" lon="5.17564">
        <ele>214.6</ele>
        <time>2022-09-24T11:27:41Z</time>
      </trkpt>
      <trkpt lat="45.78808" lon="5.17564">
        <ele>214.6</ele>
        <time>2022-09-24T11:27:42Z</time>
      </trkpt>
      <trkpt lat="45.78805" lon="5.17565">
        <ele>214.5</ele>
        <time>2022-09-24T11:27:43Z</time>
      </trkpt>
      <trkpt lat="45.78801" lon="5.17566">
        <ele>214.5</ele>
        <time>2022-09-24T11:27:44Z</time>
      </trkpt>
      <trkpt lat="45.78797" lon="5.17567">
        <ele>214.5</ele>
        <time>2022-09-24T11:27:45Z</time>
      </trkpt>
      <trkpt lat="45.78794" lon="5.17568">
        <ele>214.5</ele>
        <time>2022-09-24T11:27:46Z</time>
      </trkpt>
      <trkpt lat="45.78791" lon="5.17569">
        <ele>214.5</ele>
        <time>2022-09-24T11:27:47Z</time>
      </trkpt>
      <trkpt lat="45.78787" lon="5.1757">
        <ele>214.5</ele>
        <time>2022-09-24T11:27:48Z</time>
      </trkpt>
      <trkpt lat="45.7878" lon="5.17572">
        <ele>214.5</ele>
        <time>2022-09-24T11:27:50Z</time>
      </trkpt>
      <trkpt lat="45.78776" lon="5.17573">
        <ele>214.5</ele>
        <time>2022-09-24T11:27:52Z</time>
      </trkpt>
      <trkpt lat="45.78773" lon="5.17573">
        <ele>214.5</ele>
        <time>2022-09-24T11:27:53Z</time>
      </trkpt>
      <trkpt lat="45.78769" lon="5.17573">
        <ele>214.6</ele>
        <time>2022-09-24T11:27:54Z</time>
      </trkpt>
      <trkpt lat="45.78766" lon="5.17572">
        <ele>214.6</ele>
        <time>2022-09-24T11:27:55Z</time>
      </trkpt>
      <trkpt lat="45.78763" lon="5.17571">
        <ele>214.6</ele>
        <time>2022-09-24T11:27:56Z</time>
      </trkpt>
      <trkpt lat="45.7876" lon="5.17571">
        <ele>214.6</ele>
        <time>2022-09-24T11:27:57Z</time>
      </trkpt>
      <trkpt lat="45.78756" lon="5.17573">
        <ele>214.6</ele>
        <time>2022-09-24T11:27:58Z</time>
      </trkpt>
      <trkpt lat="45.78752" lon="5.17573">
        <ele>214.7</ele>
        <time>2022-09-24T11:27:59Z</time>
      </trkpt>
      <trkpt lat="45.78747" lon="5.17571">
        <ele>214.7</ele>
        <time>2022-09-24T11:28:00Z</time>
      </trkpt>
      <trkpt lat="45.78742" lon="5.17571">
        <ele>214.8</ele>
        <time>2022-09-24T11:28:01Z</time>
      </trkpt>
      <trkpt lat="45.78738" lon="5.17573">
        <ele>214.9</ele>
        <time>2022-09-24T11:28:02Z</time>
      </trkpt>
      <trkpt lat="45.78735" lon="5.17572">
        <ele>214.9</ele>
        <time>2022-09-24T11:28:03Z</time>
      </trkpt>
      <trkpt lat="45.7873" lon="5.17572">
        <ele>215</ele>
        <time>2022-09-24T11:28:04Z</time>
      </trkpt>
      <trkpt lat="45.78725" lon="5.17572">
        <ele>215</ele>
        <time>2022-09-24T11:28:05Z</time>
      </trkpt>
      <trkpt lat="45.78721" lon="5.17569">
        <ele>215.1</ele>
        <time>2022-09-24T11:28:06Z</time>
      </trkpt>
      <trkpt lat="45.78716" lon="5.17569">
        <ele>215.1</ele>
        <time>2022-09-24T11:28:07Z</time>
      </trkpt>
      <trkpt lat="45.78711" lon="5.17568">
        <ele>215.2</ele>
        <time>2022-09-24T11:28:08Z</time>
      </trkpt>
      <trkpt lat="45.78707" lon="5.17568">
        <ele>215.3</ele>
        <time>2022-09-24T11:28:09Z</time>
      </trkpt>
      <trkpt lat="45.78703" lon="5.17568">
        <ele>215.3</ele>
        <time>2022-09-24T11:28:10Z</time>
      </trkpt>
      <trkpt lat="45.787" lon="5.17569">
        <ele>215.3</ele>
        <time>2022-09-24T11:28:11Z</time>
      </trkpt>
      <trkpt lat="45.78697" lon="5.17568">
        <ele>215.4</ele>
        <time>2022-09-24T11:28:12Z</time>
      </trkpt>
      <trkpt lat="45.78693" lon="5.17567">
        <ele>215.4</ele>
        <time>2022-09-24T11:28:13Z</time>
      </trkpt>
      <trkpt lat="45.78689" lon="5.17568">
        <ele>215.5</ele>
        <time>2022-09-24T11:28:14Z</time>
      </trkpt>
      <trkpt lat="45.78686" lon="5.17566">
        <ele>215.5</ele>
        <time>2022-09-24T11:28:15Z</time>
      </trkpt>
      <trkpt lat="45.78682" lon="5.17567">
        <ele>215.5</ele>
        <time>2022-09-24T11:28:16Z</time>
      </trkpt>
      <trkpt lat="45.78681" lon="5.17568">
        <ele>215.5</ele>
        <time>2022-09-24T11:28:17Z</time>
      </trkpt>
      <trkpt lat="45.78677" lon="5.17565">
        <ele>215.6</ele>
        <time>2022-09-24T11:28:18Z</time>
      </trkpt>
      <trkpt lat="45.78673" lon="5.17565">
        <ele>215.6</ele>
        <time>2022-09-24T11:28:19Z</time>
      </trkpt>
      <trkpt lat="45.7867" lon="5.17566">
        <ele>215.6</ele>
        <time>2022-09-24T11:28:20Z</time>
      </trkpt>
      <trkpt lat="45.78666" lon="5.17565">
        <ele>215.7</ele>
        <time>2022-09-24T11:28:21Z</time>
      </trkpt>
      <trkpt lat="45.78663" lon="5.17564">
        <ele>215.7</ele>
        <time>2022-09-24T11:28:22Z</time>
      </trkpt>
      <trkpt lat="45.78661" lon="5.17566">
        <ele>215.7</ele>
        <time>2022-09-24T11:28:23Z</time>
      </trkpt>
      <trkpt lat="45.78658" lon="5.17568">
        <ele>215.8</ele>
        <time>2022-09-24T11:28:24Z</time>
      </trkpt>
      <trkpt lat="45.78654" lon="5.17569">
        <ele>215.8</ele>
        <time>2022-09-24T11:28:25Z</time>
      </trkpt>
      <trkpt lat="45.7865" lon="5.17571">
        <ele>215.9</ele>
        <time>2022-09-24T11:28:26Z</time>
      </trkpt>
      <trkpt lat="45.78647" lon="5.1757">
        <ele>216</ele>
        <time>2022-09-24T11:28:27Z</time>
      </trkpt>
      <trkpt lat="45.78643" lon="5.17571">
        <ele>216.1</ele>
        <time>2022-09-24T11:28:28Z</time>
      </trkpt>
      <trkpt lat="45.78641" lon="5.17571">
        <ele>216.2</ele>
        <time>2022-09-24T11:28:29Z</time>
      </trkpt>
      <trkpt lat="45.78637" lon="5.17574">
        <ele>216.3</ele>
        <time>2022-09-24T11:28:30Z</time>
      </trkpt>
      <trkpt lat="45.78634" lon="5.17572">
        <ele>216.4</ele>
        <time>2022-09-24T11:28:31Z</time>
      </trkpt>
      <trkpt lat="45.7863" lon="5.17573">
        <ele>216.5</ele>
        <time>2022-09-24T11:28:32Z</time>
      </trkpt>
      <trkpt lat="45.78621" lon="5.17572">
        <ele>216.7</ele>
        <time>2022-09-24T11:28:33Z</time>
      </trkpt>
      <trkpt lat="45.78617" lon="5.17574">
        <ele>216.8</ele>
        <time>2022-09-24T11:28:34Z</time>
      </trkpt>
      <trkpt lat="45.78613" lon="5.17574">
        <ele>216.9</ele>
        <time>2022-09-24T11:28:35Z</time>
      </trkpt>
      <trkpt lat="45.78606" lon="5.17574">
        <ele>217.1</ele>
        <time>2022-09-24T11:28:36Z</time>
      </trkpt>
      <trkpt lat="45.78602" lon="5.17572">
        <ele>217.2</ele>
        <time>2022-09-24T11:28:37Z</time>
      </trkpt>
      <trkpt lat="45.78598" lon="5.17573">
        <ele>217.3</ele>
        <time>2022-09-24T11:28:38Z</time>
      </trkpt>
      <trkpt lat="45.78596" lon="5.17573">
        <ele>217.4</ele>
        <time>2022-09-24T11:28:39Z</time>
      </trkpt>
      <trkpt lat="45.78591" lon="5.17573">
        <ele>217.6</ele>
        <time>2022-09-24T11:28:40Z</time>
      </trkpt>
      <trkpt lat="45.78587" lon="5.17575">
        <ele>217.7</ele>
        <time>2022-09-24T11:28:41Z</time>
      </trkpt>
      <trkpt lat="45.78583" lon="5.17573">
        <ele>217.9</ele>
        <time>2022-09-24T11:28:42Z</time>
      </trkpt>
      <trkpt lat="45.78579" lon="5.17574">
        <ele>218.1</ele>
        <time>2022-09-24T11:28:43Z</time>
      </trkpt>
      <trkpt lat="45.78575" lon="5.17575">
        <ele>218.3</ele>
        <time>2022-09-24T11:28:44Z</time>
      </trkpt>
      <trkpt lat="45.78572" lon="5.17576">
        <ele>218.4</ele>
        <time>2022-09-24T11:28:45Z</time>
      </trkpt>
      <trkpt lat="45.78569" lon="5.17577">
        <ele>218.6</ele>
        <time>2022-09-24T11:28:46Z</time>
      </trkpt>
      <trkpt lat="45.78566" lon="5.17578">
        <ele>218.8</ele>
        <time>2022-09-24T11:28:47Z</time>
      </trkpt>
      <trkpt lat="45.78562" lon="5.17577">
        <ele>219.1</ele>
        <time>2022-09-24T11:28:48Z</time>
      </trkpt>
      <trkpt lat="45.78559" lon="5.17577">
        <ele>219.3</ele>
        <time>2022-09-24T11:28:49Z</time>
      </trkpt>
      <trkpt lat="45.78556" lon="5.17579">
        <ele>219.6</ele>
        <time>2022-09-24T11:28:50Z</time>
      </trkpt>
      <trkpt lat="45.78553" lon="5.17581">
        <ele>219.8</ele>
        <time>2022-09-24T11:28:51Z</time>
      </trkpt>
      <trkpt lat="45.78549" lon="5.17582">
        <ele>220.2</ele>
        <time>2022-09-24T11:28:52Z</time>
      </trkpt>
      <trkpt lat="45.78546" lon="5.17583">
        <ele>220.5</ele>
        <time>2022-09-24T11:28:53Z</time>
      </trkpt>
      <trkpt lat="45.78545" lon="5.17583">
        <ele>220.6</ele>
        <time>2022-09-24T11:28:54Z</time>
      </trkpt>
      <trkpt lat="45.78541" lon="5.17584">
        <ele>220.9</ele>
        <time>2022-09-24T11:28:55Z</time>
      </trkpt>
      <trkpt lat="45.7854" lon="5.17584">
        <ele>221.1</ele>
        <time>2022-09-24T11:28:56Z</time>
      </trkpt>
      <trkpt lat="45.78537" lon="5.17586">
        <ele>221.5</ele>
        <time>2022-09-24T11:28:57Z</time>
      </trkpt>
      <trkpt lat="45.78534" lon="5.17587">
        <ele>221.8</ele>
        <time>2022-09-24T11:28:58Z</time>
      </trkpt>
      <trkpt lat="45.78531" lon="5.17588">
        <ele>222.1</ele>
        <time>2022-09-24T11:28:59Z</time>
      </trkpt>
      <trkpt lat="45.7853" lon="5.17589">
        <ele>222.3</ele>
        <time>2022-09-24T11:29:00Z</time>
      </trkpt>
      <trkpt lat="45.78527" lon="5.1759">
        <ele>222.6</ele>
        <time>2022-09-24T11:29:01Z</time>
      </trkpt>
      <trkpt lat="45.78525" lon="5.17591">
        <ele>222.8</ele>
        <time>2022-09-24T11:29:02Z</time>
      </trkpt>
      <trkpt lat="45.78522" lon="5.17592">
        <ele>223.2</ele>
        <time>2022-09-24T11:29:03Z</time>
      </trkpt>
      <trkpt lat="45.78521" lon="5.17592">
        <ele>223.3</ele>
        <time>2022-09-24T11:29:04Z</time>
      </trkpt>
      <trkpt lat="45.78518" lon="5.17592">
        <ele>223.7</ele>
        <time>2022-09-24T11:29:05Z</time>
      </trkpt>
      <trkpt lat="45.78517" lon="5.17592">
        <ele>223.8</ele>
        <time>2022-09-24T11:29:06Z</time>
      </trkpt>
      <trkpt lat="45.78514" lon="5.17592">
        <ele>224.1</ele>
        <time>2022-09-24T11:29:07Z</time>
      </trkpt>
      <trkpt lat="45.78513" lon="5.17591">
        <ele>224.2</ele>
        <time>2022-09-24T11:29:08Z</time>
      </trkpt>
      <trkpt lat="45.7851" lon="5.1759">
        <ele>224.3</ele>
        <time>2022-09-24T11:29:09Z</time>
      </trkpt>
      <trkpt lat="45.78508" lon="5.17589">
        <ele>224.4</ele>
        <time>2022-09-24T11:29:10Z</time>
      </trkpt>
      <trkpt lat="45.78505" lon="5.17589">
        <ele>224.5</ele>
        <time>2022-09-24T11:29:11Z</time>
      </trkpt>
      <trkpt lat="45.78501" lon="5.17588">
        <ele>224.6</ele>
        <time>2022-09-24T11:29:12Z</time>
      </trkpt>
      <trkpt lat="45.78499" lon="5.17587">
        <ele>224.6</ele>
        <time>2022-09-24T11:29:13Z</time>
      </trkpt>
      <trkpt lat="45.78497" lon="5.17587">
        <ele>224.7</ele>
        <time>2022-09-24T11:29:14Z</time>
      </trkpt>
      <trkpt lat="45.78494" lon="5.17586">
        <ele>224.8</ele>
        <time>2022-09-24T11:29:15Z</time>
      </trkpt>
      <trkpt lat="45.78491" lon="5.17585">
        <ele>224.9</ele>
        <time>2022-09-24T11:29:16Z</time>
      </trkpt>
      <trkpt lat="45.78487" lon="5.17584">
        <ele>225</ele>
        <time>2022-09-24T11:29:17Z</time>
      </trkpt>
      <trkpt lat="45.78485" lon="5.17583">
        <ele>225.1</ele>
        <time>2022-09-24T11:29:18Z</time>
      </trkpt>
      <trkpt lat="45.78482" lon="5.17583">
        <ele>225.2</ele>
        <time>2022-09-24T11:29:19Z</time>
      </trkpt>
      <trkpt lat="45.78479" lon="5.17581">
        <ele>225.3</ele>
        <time>2022-09-24T11:29:20Z</time>
      </trkpt>
      <trkpt lat="45.78476" lon="5.1758">
        <ele>225.4</ele>
        <time>2022-09-24T11:29:21Z</time>
      </trkpt>
      <trkpt lat="45.78473" lon="5.17579">
        <ele>225.5</ele>
        <time>2022-09-24T11:29:22Z</time>
      </trkpt>
      <trkpt lat="45.7847" lon="5.17578">
        <ele>225.5</ele>
        <time>2022-09-24T11:29:23Z</time>
      </trkpt>
      <trkpt lat="45.78467" lon="5.17577">
        <ele>225.6</ele>
        <time>2022-09-24T11:29:24Z</time>
      </trkpt>
      <trkpt lat="45.78463" lon="5.17576">
        <ele>225.8</ele>
        <time>2022-09-24T11:29:25Z</time>
      </trkpt>
      <trkpt lat="45.78462" lon="5.17575">
        <ele>225.8</ele>
        <time>2022-09-24T11:29:26Z</time>
      </trkpt>
      <trkpt lat="45.78459" lon="5.17573">
        <ele>225.9</ele>
        <time>2022-09-24T11:29:27Z</time>
      </trkpt>
      <trkpt lat="45.78455" lon="5.17572">
        <ele>226</ele>
        <time>2022-09-24T11:29:28Z</time>
      </trkpt>
      <trkpt lat="45.78452" lon="5.17571">
        <ele>226.1</ele>
        <time>2022-09-24T11:29:29Z</time>
      </trkpt>
      <trkpt lat="45.78449" lon="5.1757">
        <ele>226.2</ele>
        <time>2022-09-24T11:29:30Z</time>
      </trkpt>
      <trkpt lat="45.78446" lon="5.17569">
        <ele>226.3</ele>
        <time>2022-09-24T11:29:31Z</time>
      </trkpt>
      <trkpt lat="45.78443" lon="5.17568">
        <ele>226.4</ele>
        <time>2022-09-24T11:29:32Z</time>
      </trkpt>
      <trkpt lat="45.7844" lon="5.17567">
        <ele>226.5</ele>
        <time>2022-09-24T11:29:33Z</time>
      </trkpt>
      <trkpt lat="45.78437" lon="5.17566">
        <ele>226.6</ele>
        <time>2022-09-24T11:29:34Z</time>
      </trkpt>
      <trkpt lat="45.78434" lon="5.17565">
        <ele>226.6</ele>
        <time>2022-09-24T11:29:35Z</time>
      </trkpt>
      <trkpt lat="45.78432" lon="5.17564">
        <ele>226.7</ele>
        <time>2022-09-24T11:29:36Z</time>
      </trkpt>
      <trkpt lat="45.78428" lon="5.17562">
        <ele>226.8</ele>
        <time>2022-09-24T11:29:37Z</time>
      </trkpt>
      <trkpt lat="45.78425" lon="5.1756">
        <ele>226.9</ele>
        <time>2022-09-24T11:29:38Z</time>
      </trkpt>
      <trkpt lat="45.78422" lon="5.1756">
        <ele>227</ele>
        <time>2022-09-24T11:29:40Z</time>
      </trkpt>
      <trkpt lat="45.7842" lon="5.17558">
        <ele>227</ele>
        <time>2022-09-24T11:29:41Z</time>
      </trkpt>
      <trkpt lat="45.78416" lon="5.17556">
        <ele>227.1</ele>
        <time>2022-09-24T11:29:42Z</time>
      </trkpt>
      <trkpt lat="45.78415" lon="5.17556">
        <ele>227.2</ele>
        <time>2022-09-24T11:29:43Z</time>
      </trkpt>
      <trkpt lat="45.78412" lon="5.17555">
        <ele>227.2</ele>
        <time>2022-09-24T11:29:44Z</time>
      </trkpt>
      <trkpt lat="45.78408" lon="5.17554">
        <ele>227.3</ele>
        <time>2022-09-24T11:29:45Z</time>
      </trkpt>
      <trkpt lat="45.78405" lon="5.17553">
        <ele>227.4</ele>
        <time>2022-09-24T11:29:46Z</time>
      </trkpt>
      <trkpt lat="45.78402" lon="5.17552">
        <ele>227.4</ele>
        <time>2022-09-24T11:29:47Z</time>
      </trkpt>
      <trkpt lat="45.78399" lon="5.17551">
        <ele>227.5</ele>
        <time>2022-09-24T11:29:48Z</time>
      </trkpt>
      <trkpt lat="45.78397" lon="5.17549">
        <ele>227.6</ele>
        <time>2022-09-24T11:29:49Z</time>
      </trkpt>
      <trkpt lat="45.78393" lon="5.17548">
        <ele>227.6</ele>
        <time>2022-09-24T11:29:50Z</time>
      </trkpt>
      <trkpt lat="45.7839" lon="5.17547">
        <ele>227.7</ele>
        <time>2022-09-24T11:29:51Z</time>
      </trkpt>
      <trkpt lat="45.78387" lon="5.17546">
        <ele>227.7</ele>
        <time>2022-09-24T11:29:52Z</time>
      </trkpt>
      <trkpt lat="45.78383" lon="5.17544">
        <ele>227.8</ele>
        <time>2022-09-24T11:29:53Z</time>
      </trkpt>
      <trkpt lat="45.7838" lon="5.17543">
        <ele>227.8</ele>
        <time>2022-09-24T11:29:54Z</time>
      </trkpt>
      <trkpt lat="45.78376" lon="5.17541">
        <ele>227.9</ele>
        <time>2022-09-24T11:29:55Z</time>
      </trkpt>
      <trkpt lat="45.78373" lon="5.17539">
        <ele>227.9</ele>
        <time>2022-09-24T11:29:56Z</time>
      </trkpt>
      <trkpt lat="45.78369" lon="5.17537">
        <ele>227.9</ele>
        <time>2022-09-24T11:29:57Z</time>
      </trkpt>
      <trkpt lat="45.78366" lon="5.17536">
        <ele>227.8</ele>
        <time>2022-09-24T11:29:58Z</time>
      </trkpt>
      <trkpt lat="45.78361" lon="5.17534">
        <ele>227.8</ele>
        <time>2022-09-24T11:29:59Z</time>
      </trkpt>
      <trkpt lat="45.78358" lon="5.17533">
        <ele>227.8</ele>
        <time>2022-09-24T11:30:00Z</time>
      </trkpt>
      <trkpt lat="45.78354" lon="5.17531">
        <ele>227.7</ele>
        <time>2022-09-24T11:30:01Z</time>
      </trkpt>
      <trkpt lat="45.78349" lon="5.17528">
        <ele>227.7</ele>
        <time>2022-09-24T11:30:02Z</time>
      </trkpt>
      <trkpt lat="45.78345" lon="5.17527">
        <ele>227.6</ele>
        <time>2022-09-24T11:30:03Z</time>
      </trkpt>
      <trkpt lat="45.7834" lon="5.17524">
        <ele>227.6</ele>
        <time>2022-09-24T11:30:04Z</time>
      </trkpt>
      <trkpt lat="45.78336" lon="5.17523">
        <ele>227.6</ele>
        <time>2022-09-24T11:30:05Z</time>
      </trkpt>
      <trkpt lat="45.78332" lon="5.17521">
        <ele>227.6</ele>
        <time>2022-09-24T11:30:06Z</time>
      </trkpt>
      <trkpt lat="45.78327" lon="5.17518">
        <ele>227.6</ele>
        <time>2022-09-24T11:30:07Z</time>
      </trkpt>
      <trkpt lat="45.78323" lon="5.17517">
        <ele>227.5</ele>
        <time>2022-09-24T11:30:08Z</time>
      </trkpt>
      <trkpt lat="45.78319" lon="5.17515">
        <ele>227.5</ele>
        <time>2022-09-24T11:30:09Z</time>
      </trkpt>
      <trkpt lat="45.78314" lon="5.17513">
        <ele>227.5</ele>
        <time>2022-09-24T11:30:10Z</time>
      </trkpt>
      <trkpt lat="45.7831" lon="5.1751">
        <ele>227.5</ele>
        <time>2022-09-24T11:30:11Z</time>
      </trkpt>
      <trkpt lat="45.78306" lon="5.17508">
        <ele>227.5</ele>
        <time>2022-09-24T11:30:12Z</time>
      </trkpt>
      <trkpt lat="45.78301" lon="5.17505">
        <ele>227.4</ele>
        <time>2022-09-24T11:30:13Z</time>
      </trkpt>
      <trkpt lat="45.78297" lon="5.17502">
        <ele>227.4</ele>
        <time>2022-09-24T11:30:14Z</time>
      </trkpt>
      <trkpt lat="45.78293" lon="5.17499">
        <ele>227.4</ele>
        <time>2022-09-24T11:30:15Z</time>
      </trkpt>
      <trkpt lat="45.78288" lon="5.17497">
        <ele>227.3</ele>
        <time>2022-09-24T11:30:16Z</time>
      </trkpt>
      <trkpt lat="45.78284" lon="5.17494">
        <ele>227.2</ele>
        <time>2022-09-24T11:30:17Z</time>
      </trkpt>
      <trkpt lat="45.78279" lon="5.17491">
        <ele>227.2</ele>
        <time>2022-09-24T11:30:18Z</time>
      </trkpt>
      <trkpt lat="45.78273" lon="5.17488">
        <ele>227</ele>
        <time>2022-09-24T11:30:19Z</time>
      </trkpt>
      <trkpt lat="45.78268" lon="5.17485">
        <ele>226.9</ele>
        <time>2022-09-24T11:30:20Z</time>
      </trkpt>
      <trkpt lat="45.78263" lon="5.17482">
        <ele>226.8</ele>
        <time>2022-09-24T11:30:21Z</time>
      </trkpt>
      <trkpt lat="45.78257" lon="5.17478">
        <ele>226.5</ele>
        <time>2022-09-24T11:30:22Z</time>
      </trkpt>
      <trkpt lat="45.7825" lon="5.17474">
        <ele>226.3</ele>
        <time>2022-09-24T11:30:23Z</time>
      </trkpt>
      <trkpt lat="45.78244" lon="5.17471">
        <ele>226</ele>
        <time>2022-09-24T11:30:24Z</time>
      </trkpt>
      <trkpt lat="45.78238" lon="5.17468">
        <ele>225.8</ele>
        <time>2022-09-24T11:30:25Z</time>
      </trkpt>
      <trkpt lat="45.78232" lon="5.17464">
        <ele>225.5</ele>
        <time>2022-09-24T11:30:26Z</time>
      </trkpt>
      <trkpt lat="45.78225" lon="5.17458">
        <ele>225.2</ele>
        <time>2022-09-24T11:30:27Z</time>
      </trkpt>
      <trkpt lat="45.78219" lon="5.17454">
        <ele>225</ele>
        <time>2022-09-24T11:30:28Z</time>
      </trkpt>
      <trkpt lat="45.78211" lon="5.17451">
        <ele>224.7</ele>
        <time>2022-09-24T11:30:29Z</time>
      </trkpt>
      <trkpt lat="45.78206" lon="5.17446">
        <ele>224.6</ele>
        <time>2022-09-24T11:30:30Z</time>
      </trkpt>
      <trkpt lat="45.782" lon="5.17442">
        <ele>224.4</ele>
        <time>2022-09-24T11:30:31Z</time>
      </trkpt>
      <trkpt lat="45.78194" lon="5.17437">
        <ele>224.3</ele>
        <time>2022-09-24T11:30:32Z</time>
      </trkpt>
      <trkpt lat="45.78188" lon="5.17434">
        <ele>224.2</ele>
        <time>2022-09-24T11:30:33Z</time>
      </trkpt>
      <trkpt lat="45.78183" lon="5.17431">
        <ele>224.1</ele>
        <time>2022-09-24T11:30:34Z</time>
      </trkpt>
      <trkpt lat="45.78178" lon="5.17428">
        <ele>224.1</ele>
        <time>2022-09-24T11:30:35Z</time>
      </trkpt>
      <trkpt lat="45.78175" lon="5.17426">
        <ele>224</ele>
        <time>2022-09-24T11:30:36Z</time>
      </trkpt>
      <trkpt lat="45.7817" lon="5.17424">
        <ele>223.9</ele>
        <time>2022-09-24T11:30:37Z</time>
      </trkpt>
      <trkpt lat="45.78167" lon="5.17423">
        <ele>223.9</ele>
        <time>2022-09-24T11:30:38Z</time>
      </trkpt>
      <trkpt lat="45.78161" lon="5.17418">
        <ele>223.8</ele>
        <time>2022-09-24T11:30:39Z</time>
      </trkpt>
      <trkpt lat="45.78159" lon="5.17415">
        <ele>223.7</ele>
        <time>2022-09-24T11:30:40Z</time>
      </trkpt>
      <trkpt lat="45.78157" lon="5.17413">
        <ele>223.7</ele>
        <time>2022-09-24T11:30:41Z</time>
      </trkpt>
      <trkpt lat="45.78157" lon="5.17413">
        <ele>223.7</ele>
        <time>2022-09-24T11:30:42Z</time>
      </trkpt>
      <trkpt lat="45.78157" lon="5.17412">
        <ele>223.7</ele>
        <time>2022-09-24T11:30:43Z</time>
      </trkpt>
      <trkpt lat="45.78157" lon="5.17411">
        <ele>223.7</ele>
        <time>2022-09-24T11:30:44Z</time>
      </trkpt>
      <trkpt lat="45.78156" lon="5.17411">
        <ele>223.6</ele>
        <time>2022-09-24T11:30:45Z</time>
      </trkpt>
      <trkpt lat="45.78156" lon="5.17411">
        <ele>223.6</ele>
        <time>2022-09-24T11:30:46Z</time>
      </trkpt>
      <trkpt lat="45.78156" lon="5.1741">
        <ele>223.6</ele>
        <time>2022-09-24T11:30:47Z</time>
      </trkpt>
      <trkpt lat="45.78156" lon="5.1741">
        <ele>223.6</ele>
        <time>2022-09-24T11:30:48Z</time>
      </trkpt>
      <trkpt lat="45.78156" lon="5.1741">
        <ele>223.6</ele>
        <time>2022-09-24T11:30:49Z</time>
      </trkpt>
      <trkpt lat="45.78156" lon="5.1741">
        <ele>223.6</ele>
        <time>2022-09-24T11:30:50Z</time>
      </trkpt>
      <trkpt lat="45.78156" lon="5.1741">
        <ele>223.6</ele>
        <time>2022-09-24T11:30:51Z</time>
      </trkpt>
      <trkpt lat="45.78154" lon="5.1741">
        <ele>223.6</ele>
        <time>2022-09-24T11:30:54Z</time>
      </trkpt>
      <trkpt lat="45.78154" lon="5.17409">
        <ele>223.6</ele>
        <time>2022-09-24T11:30:55Z</time>
      </trkpt>
      <trkpt lat="45.78155" lon="5.1741">
        <ele>223.6</ele>
        <time>2022-09-24T11:30:56Z</time>
      </trkpt>
      <trkpt lat="45.78155" lon="5.17412">
        <ele>223.5</ele>
        <time>2022-09-24T11:30:57Z</time>
      </trkpt>
      <trkpt lat="45.78156" lon="5.17413">
        <ele>223.5</ele>
        <time>2022-09-24T11:30:58Z</time>
      </trkpt>
      <trkpt lat="45.78156" lon="5.17413">
        <ele>223.5</ele>
        <time>2022-09-24T11:30:59Z</time>
      </trkpt>
      <trkpt lat="45.78156" lon="5.17414">
        <ele>223.5</ele>
        <time>2022-09-24T11:31:00Z</time>
      </trkpt>
      <trkpt lat="45.78157" lon="5.17415">
        <ele>223.5</ele>
        <time>2022-09-24T11:31:01Z</time>
      </trkpt>
      <trkpt lat="45.78156" lon="5.17417">
        <ele>223.5</ele>
        <time>2022-09-24T11:31:02Z</time>
      </trkpt>
      <trkpt lat="45.78157" lon="5.17418">
        <ele>223.4</ele>
        <time>2022-09-24T11:31:03Z</time>
      </trkpt>
      <trkpt lat="45.78158" lon="5.1742">
        <ele>223.4</ele>
        <time>2022-09-24T11:31:04Z</time>
      </trkpt>
      <trkpt lat="45.78158" lon="5.17422">
        <ele>223.4</ele>
        <time>2022-09-24T11:31:05Z</time>
      </trkpt>
      <trkpt lat="45.78158" lon="5.17423">
        <ele>223.3</ele>
        <time>2022-09-24T11:31:06Z</time>
      </trkpt>
      <trkpt lat="45.78159" lon="5.17424">
        <ele>223.3</ele>
        <time>2022-09-24T11:31:07Z</time>
      </trkpt>
      <trkpt lat="45.78159" lon="5.17425">
        <ele>223.3</ele>
        <time>2022-09-24T11:31:08Z</time>
      </trkpt>
      <trkpt lat="45.78159" lon="5.17426">
        <ele>223.3</ele>
        <time>2022-09-24T11:31:09Z</time>
      </trkpt>
      <trkpt lat="45.7816" lon="5.17427">
        <ele>223.3</ele>
        <time>2022-09-24T11:31:10Z</time>
      </trkpt>
      <trkpt lat="45.7816" lon="5.17427">
        <ele>223.3</ele>
        <time>2022-09-24T11:31:11Z</time>
      </trkpt>
      <trkpt lat="45.7816" lon="5.17426">
        <ele>223.2</ele>
        <time>2022-09-24T11:31:12Z</time>
      </trkpt>
      <trkpt lat="45.7816" lon="5.17425">
        <ele>223.2</ele>
        <time>2022-09-24T11:31:13Z</time>
      </trkpt>
      <trkpt lat="45.78159" lon="5.17423">
        <ele>223.2</ele>
        <time>2022-09-24T11:31:14Z</time>
      </trkpt>
      <trkpt lat="45.78158" lon="5.17421">
        <ele>223.1</ele>
        <time>2022-09-24T11:31:15Z</time>
      </trkpt>
      <trkpt lat="45.78157" lon="5.17419">
        <ele>223.1</ele>
        <time>2022-09-24T11:31:16Z</time>
      </trkpt>
      <trkpt lat="45.78157" lon="5.17417">
        <ele>223.1</ele>
        <time>2022-09-24T11:31:17Z</time>
      </trkpt>
      <trkpt lat="45.78156" lon="5.17415">
        <ele>223</ele>
        <time>2022-09-24T11:31:18Z</time>
      </trkpt>
      <trkpt lat="45.78155" lon="5.17414">
        <ele>223</ele>
        <time>2022-09-24T11:31:19Z</time>
      </trkpt>
      <trkpt lat="45.78155" lon="5.17412">
        <ele>223</ele>
        <time>2022-09-24T11:31:20Z</time>
      </trkpt>
      <trkpt lat="45.78154" lon="5.1741">
        <ele>222.9</ele>
        <time>2022-09-24T11:31:21Z</time>
      </trkpt>
      <trkpt lat="45.78153" lon="5.17408">
        <ele>222.9</ele>
        <time>2022-09-24T11:31:22Z</time>
      </trkpt>
      <trkpt lat="45.78152" lon="5.17406">
        <ele>222.9</ele>
        <time>2022-09-24T12:26:45Z</time>
      </trkpt>
      <trkpt lat="45.78152" lon="5.17405">
        <ele>222.8</ele>
        <time>2022-09-24T12:26:46Z</time>
      </trkpt>
      <trkpt lat="45.78149" lon="5.17402">
        <ele>222.8</ele>
        <time>2022-09-24T12:26:47Z</time>
      </trkpt>
      <trkpt lat="45.78146" lon="5.17398">
        <ele>222.7</ele>
        <time>2022-09-24T12:26:48Z</time>
      </trkpt>
      <trkpt lat="45.78143" lon="5.17396">
        <ele>222.6</ele>
        <time>2022-09-24T12:26:49Z</time>
      </trkpt>
      <trkpt lat="45.78139" lon="5.17394">
        <ele>222.5</ele>
        <time>2022-09-24T12:26:50Z</time>
      </trkpt>
      <trkpt lat="45.78135" lon="5.17391">
        <ele>222.4</ele>
        <time>2022-09-24T12:26:51Z</time>
      </trkpt>
      <trkpt lat="45.78132" lon="5.17389">
        <ele>222.3</ele>
        <time>2022-09-24T12:26:52Z</time>
      </trkpt>
      <trkpt lat="45.78128" lon="5.17386">
        <ele>222.2</ele>
        <time>2022-09-24T12:26:53Z</time>
      </trkpt>
      <trkpt lat="45.78124" lon="5.17384">
        <ele>222.1</ele>
        <time>2022-09-24T12:26:54Z</time>
      </trkpt>
      <trkpt lat="45.78119" lon="5.17381">
        <ele>222</ele>
        <time>2022-09-24T12:26:55Z</time>
      </trkpt>
      <trkpt lat="45.78115" lon="5.17379">
        <ele>221.8</ele>
        <time>2022-09-24T12:26:56Z</time>
      </trkpt>
      <trkpt lat="45.7811" lon="5.17374">
        <ele>221.7</ele>
        <time>2022-09-24T12:26:57Z</time>
      </trkpt>
      <trkpt lat="45.78106" lon="5.1737">
        <ele>221.6</ele>
        <time>2022-09-24T12:26:58Z</time>
      </trkpt>
      <trkpt lat="45.78102" lon="5.17366">
        <ele>221.4</ele>
        <time>2022-09-24T12:26:59Z</time>
      </trkpt>
      <trkpt lat="45.78099" lon="5.17362">
        <ele>221.3</ele>
        <time>2022-09-24T12:27:00Z</time>
      </trkpt>
      <trkpt lat="45.78094" lon="5.17364">
        <ele>221.2</ele>
        <time>2022-09-24T12:27:01Z</time>
      </trkpt>
      <trkpt lat="45.7809" lon="5.17362">
        <ele>221</ele>
        <time>2022-09-24T12:27:02Z</time>
      </trkpt>
      <trkpt lat="45.78086" lon="5.17356">
        <ele>220.8</ele>
        <time>2022-09-24T12:27:03Z</time>
      </trkpt>
      <trkpt lat="45.78082" lon="5.17353">
        <ele>220.6</ele>
        <time>2022-09-24T12:27:04Z</time>
      </trkpt>
      <trkpt lat="45.78079" lon="5.1735">
        <ele>220.4</ele>
        <time>2022-09-24T12:27:05Z</time>
      </trkpt>
      <trkpt lat="45.78074" lon="5.17348">
        <ele>220.2</ele>
        <time>2022-09-24T12:27:06Z</time>
      </trkpt>
      <trkpt lat="45.7807" lon="5.17345">
        <ele>219.9</ele>
        <time>2022-09-24T12:27:07Z</time>
      </trkpt>
      <trkpt lat="45.78066" lon="5.1734">
        <ele>219.6</ele>
        <time>2022-09-24T12:27:08Z</time>
      </trkpt>
      <trkpt lat="45.78061" lon="5.17335">
        <ele>219.3</ele>
        <time>2022-09-24T12:27:09Z</time>
      </trkpt>
      <trkpt lat="45.78057" lon="5.17332">
        <ele>218.9</ele>
        <time>2022-09-24T12:27:10Z</time>
      </trkpt>
      <trkpt lat="45.78053" lon="5.17328">
        <ele>218.6</ele>
        <time>2022-09-24T12:27:11Z</time>
      </trkpt>
      <trkpt lat="45.78048" lon="5.17322">
        <ele>218.2</ele>
        <time>2022-09-24T12:27:12Z</time>
      </trkpt>
      <trkpt lat="45.78043" lon="5.17316">
        <ele>217.8</ele>
        <time>2022-09-24T12:27:13Z</time>
      </trkpt>
      <trkpt lat="45.78038" lon="5.1731">
        <ele>217.3</ele>
        <time>2022-09-24T12:27:14Z</time>
      </trkpt>
      <trkpt lat="45.78035" lon="5.17303">
        <ele>217</ele>
        <time>2022-09-24T12:27:15Z</time>
      </trkpt>
      <trkpt lat="45.78031" lon="5.17297">
        <ele>216.6</ele>
        <time>2022-09-24T12:27:16Z</time>
      </trkpt>
      <trkpt lat="45.78026" lon="5.1729">
        <ele>216.3</ele>
        <time>2022-09-24T12:27:17Z</time>
      </trkpt>
      <trkpt lat="45.78019" lon="5.1728">
        <ele>215.8</ele>
        <time>2022-09-24T12:27:18Z</time>
      </trkpt>
      <trkpt lat="45.78015" lon="5.17273">
        <ele>215.5</ele>
        <time>2022-09-24T12:27:19Z</time>
      </trkpt>
      <trkpt lat="45.78012" lon="5.17266">
        <ele>215.3</ele>
        <time>2022-09-24T12:27:20Z</time>
      </trkpt>
      <trkpt lat="45.7801" lon="5.17261">
        <ele>215.2</ele>
        <time>2022-09-24T12:27:21Z</time>
      </trkpt>
      <trkpt lat="45.78005" lon="5.17256">
        <ele>215.1</ele>
        <time>2022-09-24T12:27:22Z</time>
      </trkpt>
      <trkpt lat="45.78003" lon="5.1725">
        <ele>215</ele>
        <time>2022-09-24T12:27:23Z</time>
      </trkpt>
      <trkpt lat="45.77998" lon="5.17243">
        <ele>214.9</ele>
        <time>2022-09-24T12:27:24Z</time>
      </trkpt>
      <trkpt lat="45.77994" lon="5.1724">
        <ele>214.8</ele>
        <time>2022-09-24T12:27:25Z</time>
      </trkpt>
      <trkpt lat="45.7799" lon="5.17234">
        <ele>214.8</ele>
        <time>2022-09-24T12:27:26Z</time>
      </trkpt>
      <trkpt lat="45.77985" lon="5.1723">
        <ele>214.7</ele>
        <time>2022-09-24T12:27:27Z</time>
      </trkpt>
      <trkpt lat="45.7798" lon="5.17225">
        <ele>214.7</ele>
        <time>2022-09-24T12:27:28Z</time>
      </trkpt>
      <trkpt lat="45.77976" lon="5.1722">
        <ele>214.7</ele>
        <time>2022-09-24T12:27:29Z</time>
      </trkpt>
      <trkpt lat="45.77972" lon="5.17218">
        <ele>214.8</ele>
        <time>2022-09-24T12:27:30Z</time>
      </trkpt>
      <trkpt lat="45.7797" lon="5.17214">
        <ele>214.8</ele>
        <time>2022-09-24T12:27:31Z</time>
      </trkpt>
      <trkpt lat="45.7797" lon="5.17212">
        <ele>214.8</ele>
        <time>2022-09-24T12:27:32Z</time>
      </trkpt>
      <trkpt lat="45.77969" lon="5.17205">
        <ele>215.7</ele>
        <time>2022-09-24T12:27:33Z</time>
      </trkpt>
      <trkpt lat="45.7797" lon="5.172">
        <ele>215.7</ele>
        <time>2022-09-24T12:27:34Z</time>
      </trkpt>
      <trkpt lat="45.77972" lon="5.17192">
        <ele>215.7</ele>
        <time>2022-09-24T12:27:35Z</time>
      </trkpt>
      <trkpt lat="45.77975" lon="5.17186">
        <ele>215.7</ele>
        <time>2022-09-24T12:27:36Z</time>
      </trkpt>
      <trkpt lat="45.77978" lon="5.1718">
        <ele>215.7</ele>
        <time>2022-09-24T12:27:37Z</time>
      </trkpt>
      <trkpt lat="45.7798" lon="5.17174">
        <ele>215.6</ele>
        <time>2022-09-24T12:27:38Z</time>
      </trkpt>
      <trkpt lat="45.77982" lon="5.17167">
        <ele>215.6</ele>
        <time>2022-09-24T12:27:39Z</time>
      </trkpt>
      <trkpt lat="45.77986" lon="5.1716">
        <ele>215.6</ele>
        <time>2022-09-24T12:27:40Z</time>
      </trkpt>
      <trkpt lat="45.77989" lon="5.17151">
        <ele>215.6</ele>
        <time>2022-09-24T12:27:41Z</time>
      </trkpt>
      <trkpt lat="45.77992" lon="5.17143">
        <ele>215.6</ele>
        <time>2022-09-24T12:27:42Z</time>
      </trkpt>
      <trkpt lat="45.77995" lon="5.17136">
        <ele>215.6</ele>
        <time>2022-09-24T12:27:43Z</time>
      </trkpt>
      <trkpt lat="45.77997" lon="5.17129">
        <ele>215.5</ele>
        <time>2022-09-24T12:27:44Z</time>
      </trkpt>
      <trkpt lat="45.77999" lon="5.1712">
        <ele>215.5</ele>
        <time>2022-09-24T12:27:45Z</time>
      </trkpt>
      <trkpt lat="45.78" lon="5.17112">
        <ele>215.5</ele>
        <time>2022-09-24T12:27:46Z</time>
      </trkpt>
      <trkpt lat="45.78001" lon="5.17105">
        <ele>215.5</ele>
        <time>2022-09-24T12:27:47Z</time>
      </trkpt>
      <trkpt lat="45.78001" lon="5.17099">
        <ele>215.5</ele>
        <time>2022-09-24T12:27:48Z</time>
      </trkpt>
      <trkpt lat="45.78" lon="5.17095">
        <ele>215.5</ele>
        <time>2022-09-24T12:27:49Z</time>
      </trkpt>
      <trkpt lat="45.77998" lon="5.17091">
        <ele>215.5</ele>
        <time>2022-09-24T12:27:50Z</time>
      </trkpt>
      <trkpt lat="45.77998" lon="5.1709">
        <ele>215.5</ele>
        <time>2022-09-24T12:27:51Z</time>
      </trkpt>
      <trkpt lat="45.77997" lon="5.17089">
        <ele>215.5</ele>
        <time>2022-09-24T12:27:52Z</time>
      </trkpt>
      <trkpt lat="45.77996" lon="5.17089">
        <ele>215.5</ele>
        <time>2022-09-24T12:27:53Z</time>
      </trkpt>
      <trkpt lat="45.77995" lon="5.17088">
        <ele>215.5</ele>
        <time>2022-09-24T12:27:54Z</time>
      </trkpt>
      <trkpt lat="45.77995" lon="5.17088">
        <ele>215.5</ele>
        <time>2022-09-24T12:27:55Z</time>
      </trkpt>
      <trkpt lat="45.77994" lon="5.17087">
        <ele>215.5</ele>
        <time>2022-09-24T12:27:56Z</time>
      </trkpt>
      <trkpt lat="45.77993" lon="5.17087">
        <ele>215.5</ele>
        <time>2022-09-24T12:27:57Z</time>
      </trkpt>
      <trkpt lat="45.77993" lon="5.17086">
        <ele>215.5</ele>
        <time>2022-09-24T12:27:58Z</time>
      </trkpt>
      <trkpt lat="45.77992" lon="5.17086">
        <ele>215.5</ele>
        <time>2022-09-24T12:27:59Z</time>
      </trkpt>
      <trkpt lat="45.77991" lon="5.17086">
        <ele>215.5</ele>
        <time>2022-09-24T12:28:00Z</time>
      </trkpt>
      <trkpt lat="45.77991" lon="5.17085">
        <ele>215.5</ele>
        <time>2022-09-24T12:28:01Z</time>
      </trkpt>
      <trkpt lat="45.7799" lon="5.17085">
        <ele>215.5</ele>
        <time>2022-09-24T12:28:02Z</time>
      </trkpt>
      <trkpt lat="45.77989" lon="5.17084">
        <ele>215.5</ele>
        <time>2022-09-24T12:28:38Z</time>
      </trkpt>
      <trkpt lat="45.77989" lon="5.17084">
        <ele>215.5</ele>
        <time>2022-09-24T12:28:39Z</time>
      </trkpt>
      <trkpt lat="45.77988" lon="5.17084">
        <ele>215.5</ele>
        <time>2022-09-24T12:28:40Z</time>
      </trkpt>
      <trkpt lat="45.77985" lon="5.17082">
        <ele>215.5</ele>
        <time>2022-09-24T12:28:41Z</time>
      </trkpt>
      <trkpt lat="45.77982" lon="5.17081">
        <ele>215.6</ele>
        <time>2022-09-24T12:28:42Z</time>
      </trkpt>
      <trkpt lat="45.77979" lon="5.17078">
        <ele>215.6</ele>
        <time>2022-09-24T12:28:43Z</time>
      </trkpt>
      <trkpt lat="45.77975" lon="5.17077">
        <ele>215.6</ele>
        <time>2022-09-24T12:28:44Z</time>
      </trkpt>
      <trkpt lat="45.77972" lon="5.17077">
        <ele>215.7</ele>
        <time>2022-09-24T12:28:45Z</time>
      </trkpt>
      <trkpt lat="45.77968" lon="5.17076">
        <ele>215.8</ele>
        <time>2022-09-24T12:28:46Z</time>
      </trkpt>
      <trkpt lat="45.77965" lon="5.17075">
        <ele>215.8</ele>
        <time>2022-09-24T12:28:47Z</time>
      </trkpt>
      <trkpt lat="45.77962" lon="5.17074">
        <ele>215.9</ele>
        <time>2022-09-24T12:28:48Z</time>
      </trkpt>
      <trkpt lat="45.7796" lon="5.17073">
        <ele>216</ele>
        <time>2022-09-24T12:28:49Z</time>
      </trkpt>
      <trkpt lat="45.77956" lon="5.17072">
        <ele>216.1</ele>
        <time>2022-09-24T12:28:50Z</time>
      </trkpt>
      <trkpt lat="45.77955" lon="5.17072">
        <ele>216.1</ele>
        <time>2022-09-24T12:28:51Z</time>
      </trkpt>
      <trkpt lat="45.77952" lon="5.17071">
        <ele>216.2</ele>
        <time>2022-09-24T12:28:52Z</time>
      </trkpt>
      <trkpt lat="45.7795" lon="5.1707">
        <ele>216.3</ele>
        <time>2022-09-24T12:28:53Z</time>
      </trkpt>
      <trkpt lat="45.77949" lon="5.1707">
        <ele>216.3</ele>
        <time>2022-09-24T12:28:54Z</time>
      </trkpt>
      <trkpt lat="45.77946" lon="5.17069">
        <ele>216.5</ele>
        <time>2022-09-24T12:28:55Z</time>
      </trkpt>
      <trkpt lat="45.77945" lon="5.17069">
        <ele>216.5</ele>
        <time>2022-09-24T12:28:56Z</time>
      </trkpt>
      <trkpt lat="45.77942" lon="5.17068">
        <ele>216.6</ele>
        <time>2022-09-24T12:28:57Z</time>
      </trkpt>
      <trkpt lat="45.7794" lon="5.17067">
        <ele>216.7</ele>
        <time>2022-09-24T12:28:58Z</time>
      </trkpt>
      <trkpt lat="45.77937" lon="5.17066">
        <ele>216.8</ele>
        <time>2022-09-24T12:28:59Z</time>
      </trkpt>
      <trkpt lat="45.77936" lon="5.17066">
        <ele>216.9</ele>
        <time>2022-09-24T12:29:00Z</time>
      </trkpt>
      <trkpt lat="45.77934" lon="5.17065">
        <ele>217</ele>
        <time>2022-09-24T12:29:01Z</time>
      </trkpt>
      <trkpt lat="45.77934" lon="5.17065">
        <ele>217</ele>
        <time>2022-09-24T12:29:02Z</time>
      </trkpt>
      <trkpt lat="45.77933" lon="5.17064">
        <ele>217</ele>
        <time>2022-09-24T12:29:03Z</time>
      </trkpt>
      <trkpt lat="45.77932" lon="5.17063">
        <ele>217.1</ele>
        <time>2022-09-24T12:29:04Z</time>
      </trkpt>
      <trkpt lat="45.77929" lon="5.17063">
        <ele>217.2</ele>
        <time>2022-09-24T12:29:05Z</time>
      </trkpt>
      <trkpt lat="45.77926" lon="5.17062">
        <ele>217.4</ele>
        <time>2022-09-24T12:29:06Z</time>
      </trkpt>
      <trkpt lat="45.77924" lon="5.17062">
        <ele>217.4</ele>
        <time>2022-09-24T12:29:07Z</time>
      </trkpt>
      <trkpt lat="45.77921" lon="5.1706">
        <ele>217.6</ele>
        <time>2022-09-24T12:29:08Z</time>
      </trkpt>
      <trkpt lat="45.77918" lon="5.17059">
        <ele>217.7</ele>
        <time>2022-09-24T12:29:09Z</time>
      </trkpt>
      <trkpt lat="45.77915" lon="5.17058">
        <ele>217.9</ele>
        <time>2022-09-24T12:29:10Z</time>
      </trkpt>
      <trkpt lat="45.77911" lon="5.17057">
        <ele>218.1</ele>
        <time>2022-09-24T12:29:11Z</time>
      </trkpt>
      <trkpt lat="45.7791" lon="5.17057">
        <ele>218.2</ele>
        <time>2022-09-24T12:29:12Z</time>
      </trkpt>
      <trkpt lat="45.77906" lon="5.17056">
        <ele>218.4</ele>
        <time>2022-09-24T12:29:13Z</time>
      </trkpt>
      <trkpt lat="45.77905" lon="5.17056">
        <ele>218.5</ele>
        <time>2022-09-24T12:29:14Z</time>
      </trkpt>
      <trkpt lat="45.77901" lon="5.17054">
        <ele>218.6</ele>
        <time>2022-09-24T12:29:15Z</time>
      </trkpt>
      <trkpt lat="45.779" lon="5.17054">
        <ele>218.7</ele>
        <time>2022-09-24T12:29:16Z</time>
      </trkpt>
      <trkpt lat="45.77896" lon="5.17053">
        <ele>218.9</ele>
        <time>2022-09-24T12:29:17Z</time>
      </trkpt>
      <trkpt lat="45.77895" lon="5.17052">
        <ele>219</ele>
        <time>2022-09-24T12:29:18Z</time>
      </trkpt>
      <trkpt lat="45.77892" lon="5.17051">
        <ele>219.1</ele>
        <time>2022-09-24T12:29:19Z</time>
      </trkpt>
      <trkpt lat="45.77889" lon="5.1705">
        <ele>219.3</ele>
        <time>2022-09-24T12:29:20Z</time>
      </trkpt>
      <trkpt lat="45.77885" lon="5.17049">
        <ele>219.5</ele>
        <time>2022-09-24T12:29:21Z</time>
      </trkpt>
      <trkpt lat="45.77882" lon="5.17047">
        <ele>219.7</ele>
        <time>2022-09-24T12:29:22Z</time>
      </trkpt>
      <trkpt lat="45.77879" lon="5.17047">
        <ele>219.9</ele>
        <time>2022-09-24T12:29:23Z</time>
      </trkpt>
      <trkpt lat="45.77876" lon="5.17046">
        <ele>220.1</ele>
        <time>2022-09-24T12:29:24Z</time>
      </trkpt>
      <trkpt lat="45.77872" lon="5.17045">
        <ele>220.2</ele>
        <time>2022-09-24T12:29:25Z</time>
      </trkpt>
      <trkpt lat="45.77869" lon="5.17044">
        <ele>220.5</ele>
        <time>2022-09-24T12:29:26Z</time>
      </trkpt>
      <trkpt lat="45.77865" lon="5.17043">
        <ele>220.7</ele>
        <time>2022-09-24T12:29:27Z</time>
      </trkpt>
      <trkpt lat="45.77862" lon="5.17041">
        <ele>220.8</ele>
        <time>2022-09-24T12:29:28Z</time>
      </trkpt>
      <trkpt lat="45.77859" lon="5.17039">
        <ele>221</ele>
        <time>2022-09-24T12:29:29Z</time>
      </trkpt>
      <trkpt lat="45.77855" lon="5.17038">
        <ele>221.2</ele>
        <time>2022-09-24T12:29:30Z</time>
      </trkpt>
      <trkpt lat="45.7785" lon="5.17035">
        <ele>221.5</ele>
        <time>2022-09-24T12:29:31Z</time>
      </trkpt>
      <trkpt lat="45.77846" lon="5.17035">
        <ele>221.7</ele>
        <time>2022-09-24T12:29:32Z</time>
      </trkpt>
      <trkpt lat="45.77843" lon="5.17034">
        <ele>221.9</ele>
        <time>2022-09-24T12:29:33Z</time>
      </trkpt>
      <trkpt lat="45.77841" lon="5.17032">
        <ele>222.1</ele>
        <time>2022-09-24T12:29:34Z</time>
      </trkpt>
      <trkpt lat="45.77837" lon="5.1703">
        <ele>222.3</ele>
        <time>2022-09-24T12:29:35Z</time>
      </trkpt>
      <trkpt lat="45.77835" lon="5.17029">
        <ele>222.5</ele>
        <time>2022-09-24T12:29:36Z</time>
      </trkpt>
      <trkpt lat="45.77831" lon="5.17029">
        <ele>222.7</ele>
        <time>2022-09-24T12:29:37Z</time>
      </trkpt>
      <trkpt lat="45.7783" lon="5.17028">
        <ele>222.8</ele>
        <time>2022-09-24T12:29:38Z</time>
      </trkpt>
      <trkpt lat="45.77827" lon="5.17027">
        <ele>223</ele>
        <time>2022-09-24T12:29:39Z</time>
      </trkpt>
      <trkpt lat="45.77823" lon="5.17027">
        <ele>223.2</ele>
        <time>2022-09-24T12:29:40Z</time>
      </trkpt>
      <trkpt lat="45.77822" lon="5.17026">
        <ele>223.3</ele>
        <time>2022-09-24T12:29:41Z</time>
      </trkpt>
      <trkpt lat="45.77818" lon="5.17024">
        <ele>223.6</ele>
        <time>2022-09-24T12:29:42Z</time>
      </trkpt>
      <trkpt lat="45.77816" lon="5.17023">
        <ele>223.8</ele>
        <time>2022-09-24T12:29:43Z</time>
      </trkpt>
      <trkpt lat="45.77813" lon="5.1702">
        <ele>224</ele>
        <time>2022-09-24T12:29:44Z</time>
      </trkpt>
      <trkpt lat="45.77809" lon="5.17021">
        <ele>224.2</ele>
        <time>2022-09-24T12:29:45Z</time>
      </trkpt>
      <trkpt lat="45.77808" lon="5.17021">
        <ele>224.3</ele>
        <time>2022-09-24T12:29:46Z</time>
      </trkpt>
      <trkpt lat="45.77805" lon="5.1702">
        <ele>224.5</ele>
        <time>2022-09-24T12:29:47Z</time>
      </trkpt>
      <trkpt lat="45.77802" lon="5.1702">
        <ele>224.7</ele>
        <time>2022-09-24T12:29:48Z</time>
      </trkpt>
      <trkpt lat="45.778" lon="5.17019">
        <ele>224.9</ele>
        <time>2022-09-24T12:29:49Z</time>
      </trkpt>
      <trkpt lat="45.77797" lon="5.17017">
        <ele>225.1</ele>
        <time>2022-09-24T12:29:50Z</time>
      </trkpt>
      <trkpt lat="45.77796" lon="5.17016">
        <ele>225.2</ele>
        <time>2022-09-24T12:29:51Z</time>
      </trkpt>
      <trkpt lat="45.77792" lon="5.17014">
        <ele>225.5</ele>
        <time>2022-09-24T12:29:52Z</time>
      </trkpt>
      <trkpt lat="45.7779" lon="5.17014">
        <ele>225.6</ele>
        <time>2022-09-24T12:29:53Z</time>
      </trkpt>
      <trkpt lat="45.77788" lon="5.17012">
        <ele>225.8</ele>
        <time>2022-09-24T12:29:54Z</time>
      </trkpt>
      <trkpt lat="45.77785" lon="5.1701">
        <ele>225.9</ele>
        <time>2022-09-24T12:29:55Z</time>
      </trkpt>
      <trkpt lat="45.77782" lon="5.17009">
        <ele>226.1</ele>
        <time>2022-09-24T12:29:56Z</time>
      </trkpt>
      <trkpt lat="45.7778" lon="5.17007">
        <ele>226.3</ele>
        <time>2022-09-24T12:29:57Z</time>
      </trkpt>
      <trkpt lat="45.77777" lon="5.17004">
        <ele>226.4</ele>
        <time>2022-09-24T12:29:58Z</time>
      </trkpt>
      <trkpt lat="45.77773" lon="5.17003">
        <ele>226.7</ele>
        <time>2022-09-24T12:29:59Z</time>
      </trkpt>
      <trkpt lat="45.77772" lon="5.17003">
        <ele>226.8</ele>
        <time>2022-09-24T12:30:00Z</time>
      </trkpt>
      <trkpt lat="45.77769" lon="5.17002">
        <ele>226.9</ele>
        <time>2022-09-24T12:30:01Z</time>
      </trkpt>
      <trkpt lat="45.77767" lon="5.17001">
        <ele>227</ele>
        <time>2022-09-24T12:30:02Z</time>
      </trkpt>
      <trkpt lat="45.77764" lon="5.17001">
        <ele>227.2</ele>
        <time>2022-09-24T12:30:03Z</time>
      </trkpt>
      <trkpt lat="45.77762" lon="5.17001">
        <ele>227.3</ele>
        <time>2022-09-24T12:30:04Z</time>
      </trkpt>
      <trkpt lat="45.7776" lon="5.17">
        <ele>227.4</ele>
        <time>2022-09-24T12:30:05Z</time>
      </trkpt>
      <trkpt lat="45.77757" lon="5.16998">
        <ele>227.6</ele>
        <time>2022-09-24T12:30:06Z</time>
      </trkpt>
      <trkpt lat="45.77754" lon="5.16997">
        <ele>227.7</ele>
        <time>2022-09-24T12:30:07Z</time>
      </trkpt>
      <trkpt lat="45.7775" lon="5.16995">
        <ele>227.9</ele>
        <time>2022-09-24T12:30:08Z</time>
      </trkpt>
      <trkpt lat="45.77749" lon="5.16994">
        <ele>228</ele>
        <time>2022-09-24T12:30:09Z</time>
      </trkpt>
      <trkpt lat="45.77745" lon="5.16993">
        <ele>228.2</ele>
        <time>2022-09-24T12:30:10Z</time>
      </trkpt>
      <trkpt lat="45.77743" lon="5.16993">
        <ele>228.3</ele>
        <time>2022-09-24T12:30:11Z</time>
      </trkpt>
      <trkpt lat="45.77739" lon="5.16992">
        <ele>228.5</ele>
        <time>2022-09-24T12:30:12Z</time>
      </trkpt>
      <trkpt lat="45.77738" lon="5.16991">
        <ele>228.5</ele>
        <time>2022-09-24T12:30:13Z</time>
      </trkpt>
      <trkpt lat="45.77735" lon="5.1699">
        <ele>228.7</ele>
        <time>2022-09-24T12:30:14Z</time>
      </trkpt>
      <trkpt lat="45.77732" lon="5.16989">
        <ele>228.8</ele>
        <time>2022-09-24T12:30:15Z</time>
      </trkpt>
      <trkpt lat="45.7773" lon="5.16989">
        <ele>228.9</ele>
        <time>2022-09-24T12:30:16Z</time>
      </trkpt>
      <trkpt lat="45.77727" lon="5.16989">
        <ele>229</ele>
        <time>2022-09-24T12:30:17Z</time>
      </trkpt>
      <trkpt lat="45.77727" lon="5.16989">
        <ele>229.1</ele>
        <time>2022-09-24T12:30:18Z</time>
      </trkpt>
      <trkpt lat="45.77725" lon="5.16988">
        <ele>229.1</ele>
        <time>2022-09-24T12:30:19Z</time>
      </trkpt>
      <trkpt lat="45.77724" lon="5.16986">
        <ele>229.2</ele>
        <time>2022-09-24T12:30:20Z</time>
      </trkpt>
      <trkpt lat="45.77723" lon="5.16984">
        <ele>229.3</ele>
        <time>2022-09-24T12:30:21Z</time>
      </trkpt>
      <trkpt lat="45.77723" lon="5.16984">
        <ele>229.3</ele>
        <time>2022-09-24T12:30:22Z</time>
      </trkpt>
      <trkpt lat="45.77723" lon="5.16983">
        <ele>229.3</ele>
        <time>2022-09-24T12:30:23Z</time>
      </trkpt>
      <trkpt lat="45.77723" lon="5.16983">
        <ele>229.3</ele>
        <time>2022-09-24T12:30:24Z</time>
      </trkpt>
      <trkpt lat="45.77722" lon="5.16982">
        <ele>229.4</ele>
        <time>2022-09-24T12:30:25Z</time>
      </trkpt>
      <trkpt lat="45.77722" lon="5.16981">
        <ele>229.4</ele>
        <time>2022-09-24T12:30:26Z</time>
      </trkpt>
      <trkpt lat="45.77721" lon="5.16981">
        <ele>229.4</ele>
        <time>2022-09-24T12:30:27Z</time>
      </trkpt>
      <trkpt lat="45.7772" lon="5.16982">
        <ele>229.5</ele>
        <time>2022-09-24T12:30:28Z</time>
      </trkpt>
      <trkpt lat="45.77719" lon="5.16982">
        <ele>229.5</ele>
        <time>2022-09-24T12:30:29Z</time>
      </trkpt>
      <trkpt lat="45.77719" lon="5.16982">
        <ele>229.5</ele>
        <time>2022-09-24T12:30:30Z</time>
      </trkpt>
      <trkpt lat="45.77718" lon="5.16982">
        <ele>229.6</ele>
        <time>2022-09-24T12:30:31Z</time>
      </trkpt>
      <trkpt lat="45.77717" lon="5.16982">
        <ele>229.6</ele>
        <time>2022-09-24T12:30:45Z</time>
      </trkpt>
      <trkpt lat="45.77717" lon="5.16983">
        <ele>229.6</ele>
        <time>2022-09-24T12:30:46Z</time>
      </trkpt>
      <trkpt lat="45.77716" lon="5.16983">
        <ele>229.7</ele>
        <time>2022-09-24T12:30:47Z</time>
      </trkpt>
      <trkpt lat="45.77715" lon="5.16983">
        <ele>229.7</ele>
        <time>2022-09-24T12:30:48Z</time>
      </trkpt>
      <trkpt lat="45.77714" lon="5.16986">
        <ele>229.7</ele>
        <time>2022-09-24T12:30:49Z</time>
      </trkpt>
      <trkpt lat="45.77713" lon="5.16988">
        <ele>229.7</ele>
        <time>2022-09-24T12:30:50Z</time>
      </trkpt>
      <trkpt lat="45.77711" lon="5.16993">
        <ele>229.7</ele>
        <time>2022-09-24T12:30:51Z</time>
      </trkpt>
      <trkpt lat="45.77711" lon="5.16995">
        <ele>229.7</ele>
        <time>2022-09-24T12:30:52Z</time>
      </trkpt>
      <trkpt lat="45.7771" lon="5.16999">
        <ele>229.6</ele>
        <time>2022-09-24T12:30:53Z</time>
      </trkpt>
      <trkpt lat="45.77709" lon="5.17">
        <ele>229.6</ele>
        <time>2022-09-24T12:30:54Z</time>
      </trkpt>
      <trkpt lat="45.77707" lon="5.17004">
        <ele>229.6</ele>
        <time>2022-09-24T12:30:55Z</time>
      </trkpt>
      <trkpt lat="45.77707" lon="5.17006">
        <ele>229.6</ele>
        <time>2022-09-24T12:30:56Z</time>
      </trkpt>
      <trkpt lat="45.77706" lon="5.1701">
        <ele>229.6</ele>
        <time>2022-09-24T12:30:57Z</time>
      </trkpt>
      <trkpt lat="45.77705" lon="5.17015">
        <ele>229.6</ele>
        <time>2022-09-24T12:30:58Z</time>
      </trkpt>
      <trkpt lat="45.77704" lon="5.17017">
        <ele>229.5</ele>
        <time>2022-09-24T12:30:59Z</time>
      </trkpt>
      <trkpt lat="45.77704" lon="5.17022">
        <ele>229.5</ele>
        <time>2022-09-24T12:31:00Z</time>
      </trkpt>
      <trkpt lat="45.77703" lon="5.17028">
        <ele>229.4</ele>
        <time>2022-09-24T12:31:01Z</time>
      </trkpt>
      <trkpt lat="45.77703" lon="5.1703">
        <ele>229.4</ele>
        <time>2022-09-24T12:31:02Z</time>
      </trkpt>
      <trkpt lat="45.77703" lon="5.17034">
        <ele>229.3</ele>
        <time>2022-09-24T12:31:03Z</time>
      </trkpt>
      <trkpt lat="45.77701" lon="5.17039">
        <ele>229.3</ele>
        <time>2022-09-24T12:31:04Z</time>
      </trkpt>
      <trkpt lat="45.777" lon="5.17045">
        <ele>229.2</ele>
        <time>2022-09-24T12:31:05Z</time>
      </trkpt>
      <trkpt lat="45.77699" lon="5.1705">
        <ele>229.1</ele>
        <time>2022-09-24T12:31:06Z</time>
      </trkpt>
      <trkpt lat="45.77698" lon="5.17056">
        <ele>229.1</ele>
        <time>2022-09-24T12:31:07Z</time>
      </trkpt>
      <trkpt lat="45.77697" lon="5.1706">
        <ele>229</ele>
        <time>2022-09-24T12:31:08Z</time>
      </trkpt>
      <trkpt lat="45.77696" lon="5.17067">
        <ele>229</ele>
        <time>2022-09-24T12:31:09Z</time>
      </trkpt>
      <trkpt lat="45.77696" lon="5.17073">
        <ele>228.9</ele>
        <time>2022-09-24T12:31:10Z</time>
      </trkpt>
      <trkpt lat="45.77696" lon="5.17079">
        <ele>228.9</ele>
        <time>2022-09-24T12:31:11Z</time>
      </trkpt>
      <trkpt lat="45.77696" lon="5.17084">
        <ele>228.8</ele>
        <time>2022-09-24T12:31:12Z</time>
      </trkpt>
      <trkpt lat="45.77695" lon="5.17089">
        <ele>228.8</ele>
        <time>2022-09-24T12:31:13Z</time>
      </trkpt>
      <trkpt lat="45.77693" lon="5.17091">
        <ele>228.8</ele>
        <time>2022-09-24T12:31:14Z</time>
      </trkpt>
      <trkpt lat="45.77691" lon="5.17093">
        <ele>228.7</ele>
        <time>2022-09-24T12:31:15Z</time>
      </trkpt>
      <trkpt lat="45.77688" lon="5.17095">
        <ele>228.7</ele>
        <time>2022-09-24T12:31:16Z</time>
      </trkpt>
      <trkpt lat="45.77684" lon="5.17098">
        <ele>228.6</ele>
        <time>2022-09-24T12:31:17Z</time>
      </trkpt>
      <trkpt lat="45.77679" lon="5.17098">
        <ele>228.5</ele>
        <time>2022-09-24T12:31:18Z</time>
      </trkpt>
      <trkpt lat="45.77675" lon="5.17099">
        <ele>228.4</ele>
        <time>2022-09-24T12:31:19Z</time>
      </trkpt>
      <trkpt lat="45.77671" lon="5.171">
        <ele>228.4</ele>
        <time>2022-09-24T12:31:20Z</time>
      </trkpt>
      <trkpt lat="45.77667" lon="5.171">
        <ele>228.3</ele>
        <time>2022-09-24T12:31:21Z</time>
      </trkpt>
      <trkpt lat="45.77663" lon="5.17099">
        <ele>228.2</ele>
        <time>2022-09-24T12:31:22Z</time>
      </trkpt>
      <trkpt lat="45.77658" lon="5.17099">
        <ele>228.1</ele>
        <time>2022-09-24T12:31:23Z</time>
      </trkpt>
      <trkpt lat="45.77652" lon="5.17099">
        <ele>227.9</ele>
        <time>2022-09-24T12:31:24Z</time>
      </trkpt>
      <trkpt lat="45.77647" lon="5.171">
        <ele>227.8</ele>
        <time>2022-09-24T12:31:25Z</time>
      </trkpt>
      <trkpt lat="45.77643" lon="5.17098">
        <ele>227.7</ele>
        <time>2022-09-24T12:31:26Z</time>
      </trkpt>
      <trkpt lat="45.77639" lon="5.17093">
        <ele>227.5</ele>
        <time>2022-09-24T12:31:27Z</time>
      </trkpt>
      <trkpt lat="45.77634" lon="5.1709">
        <ele>227.4</ele>
        <time>2022-09-24T12:31:28Z</time>
      </trkpt>
      <trkpt lat="45.7763" lon="5.1709">
        <ele>227.2</ele>
        <time>2022-09-24T12:31:29Z</time>
      </trkpt>
      <trkpt lat="45.77626" lon="5.17087">
        <ele>227.1</ele>
        <time>2022-09-24T12:31:30Z</time>
      </trkpt>
      <trkpt lat="45.77621" lon="5.17084">
        <ele>226.9</ele>
        <time>2022-09-24T12:31:31Z</time>
      </trkpt>
      <trkpt lat="45.77617" lon="5.17081">
        <ele>226.7</ele>
        <time>2022-09-24T12:31:32Z</time>
      </trkpt>
      <trkpt lat="45.77614" lon="5.17075">
        <ele>226.4</ele>
        <time>2022-09-24T12:31:33Z</time>
      </trkpt>
      <trkpt lat="45.7761" lon="5.1707">
        <ele>226.2</ele>
        <time>2022-09-24T12:31:34Z</time>
      </trkpt>
      <trkpt lat="45.77604" lon="5.17067">
        <ele>225.9</ele>
        <time>2022-09-24T12:31:35Z</time>
      </trkpt>
      <trkpt lat="45.776" lon="5.17066">
        <ele>225.7</ele>
        <time>2022-09-24T12:31:36Z</time>
      </trkpt>
      <trkpt lat="45.77596" lon="5.1706">
        <ele>225.4</ele>
        <time>2022-09-24T12:31:37Z</time>
      </trkpt>
      <trkpt lat="45.77591" lon="5.17054">
        <ele>225.2</ele>
        <time>2022-09-24T12:31:38Z</time>
      </trkpt>
      <trkpt lat="45.77588" lon="5.1705">
        <ele>225</ele>
        <time>2022-09-24T12:31:39Z</time>
      </trkpt>
      <trkpt lat="45.7758" lon="5.17052">
        <ele>224</ele>
        <time>2022-09-24T12:31:40Z</time>
      </trkpt>
      <trkpt lat="45.77575" lon="5.17052">
        <ele>223.6</ele>
        <time>2022-09-24T12:31:41Z</time>
      </trkpt>
      <trkpt lat="45.7757" lon="5.17054">
        <ele>223.2</ele>
        <time>2022-09-24T12:31:42Z</time>
      </trkpt>
      <trkpt lat="45.77564" lon="5.17056">
        <ele>222.8</ele>
        <time>2022-09-24T12:31:43Z</time>
      </trkpt>
      <trkpt lat="45.7756" lon="5.17057">
        <ele>222.5</ele>
        <time>2022-09-24T12:31:44Z</time>
      </trkpt>
      <trkpt lat="45.77553" lon="5.17061">
        <ele>221.9</ele>
        <time>2022-09-24T12:31:45Z</time>
      </trkpt>
      <trkpt lat="45.77545" lon="5.17064">
        <ele>221.1</ele>
        <time>2022-09-24T12:31:46Z</time>
      </trkpt>
      <trkpt lat="45.77538" lon="5.1707">
        <ele>220.5</ele>
        <time>2022-09-24T12:31:47Z</time>
      </trkpt>
      <trkpt lat="45.77531" lon="5.17073">
        <ele>219.8</ele>
        <time>2022-09-24T12:31:48Z</time>
      </trkpt>
      <trkpt lat="45.77523" lon="5.17076">
        <ele>219.2</ele>
        <time>2022-09-24T12:31:49Z</time>
      </trkpt>
      <trkpt lat="45.77515" lon="5.1708">
        <ele>218.5</ele>
        <time>2022-09-24T12:31:50Z</time>
      </trkpt>
      <trkpt lat="45.77507" lon="5.17083">
        <ele>218</ele>
        <time>2022-09-24T12:31:51Z</time>
      </trkpt>
      <trkpt lat="45.775" lon="5.17087">
        <ele>217.4</ele>
        <time>2022-09-24T12:31:52Z</time>
      </trkpt>
      <trkpt lat="45.77494" lon="5.17087">
        <ele>217</ele>
        <time>2022-09-24T12:31:53Z</time>
      </trkpt>
      <trkpt lat="45.77488" lon="5.1709">
        <ele>216.6</ele>
        <time>2022-09-24T12:31:54Z</time>
      </trkpt>
      <trkpt lat="45.77484" lon="5.17093">
        <ele>216.3</ele>
        <time>2022-09-24T12:31:55Z</time>
      </trkpt>
      <trkpt lat="45.77477" lon="5.17095">
        <ele>215.9</ele>
        <time>2022-09-24T12:31:56Z</time>
      </trkpt>
      <trkpt lat="45.77471" lon="5.17099">
        <ele>215.4</ele>
        <time>2022-09-24T12:31:57Z</time>
      </trkpt>
      <trkpt lat="45.77463" lon="5.17103">
        <ele>214.9</ele>
        <time>2022-09-24T12:31:58Z</time>
      </trkpt>
      <trkpt lat="45.77457" lon="5.17107">
        <ele>214.5</ele>
        <time>2022-09-24T12:31:59Z</time>
      </trkpt>
      <trkpt lat="45.77451" lon="5.17109">
        <ele>214.2</ele>
        <time>2022-09-24T12:32:00Z</time>
      </trkpt>
      <trkpt lat="45.77444" lon="5.17113">
        <ele>213.8</ele>
        <time>2022-09-24T12:32:01Z</time>
      </trkpt>
      <trkpt lat="45.77438" lon="5.17118">
        <ele>213.4</ele>
        <time>2022-09-24T12:32:02Z</time>
      </trkpt>
      <trkpt lat="45.77433" lon="5.17121">
        <ele>213</ele>
        <time>2022-09-24T12:32:03Z</time>
      </trkpt>
      <trkpt lat="45.77428" lon="5.17123">
        <ele>212.8</ele>
        <time>2022-09-24T12:32:04Z</time>
      </trkpt>
      <trkpt lat="45.77425" lon="5.17125">
        <ele>212.6</ele>
        <time>2022-09-24T12:32:05Z</time>
      </trkpt>
      <trkpt lat="45.77419" lon="5.17132">
        <ele>212.2</ele>
        <time>2022-09-24T12:32:06Z</time>
      </trkpt>
      <trkpt lat="45.77413" lon="5.17135">
        <ele>212</ele>
        <time>2022-09-24T12:32:07Z</time>
      </trkpt>
      <trkpt lat="45.77407" lon="5.17137">
        <ele>211.7</ele>
        <time>2022-09-24T12:32:08Z</time>
      </trkpt>
      <trkpt lat="45.77402" lon="5.17141">
        <ele>211.5</ele>
        <time>2022-09-24T12:32:09Z</time>
      </trkpt>
      <trkpt lat="45.77394" lon="5.17144">
        <ele>211.2</ele>
        <time>2022-09-24T12:32:10Z</time>
      </trkpt>
      <trkpt lat="45.77388" lon="5.17147">
        <ele>211</ele>
        <time>2022-09-24T12:32:11Z</time>
      </trkpt>
      <trkpt lat="45.77382" lon="5.17151">
        <ele>210.7</ele>
        <time>2022-09-24T12:32:12Z</time>
      </trkpt>
      <trkpt lat="45.77376" lon="5.17154">
        <ele>210.6</ele>
        <time>2022-09-24T12:32:13Z</time>
      </trkpt>
      <trkpt lat="45.77369" lon="5.17158">
        <ele>210.3</ele>
        <time>2022-09-24T12:32:14Z</time>
      </trkpt>
      <trkpt lat="45.77363" lon="5.17161">
        <ele>210.2</ele>
        <time>2022-09-24T12:32:15Z</time>
      </trkpt>
      <trkpt lat="45.77356" lon="5.17164">
        <ele>210</ele>
        <time>2022-09-24T12:32:16Z</time>
      </trkpt>
      <trkpt lat="45.77349" lon="5.17167">
        <ele>209.8</ele>
        <time>2022-09-24T12:32:17Z</time>
      </trkpt>
      <trkpt lat="45.77342" lon="5.1717">
        <ele>209.6</ele>
        <time>2022-09-24T12:32:18Z</time>
      </trkpt>
      <trkpt lat="45.77336" lon="5.17173">
        <ele>209.5</ele>
        <time>2022-09-24T12:32:19Z</time>
      </trkpt>
      <trkpt lat="45.77329" lon="5.17176">
        <ele>209.3</ele>
        <time>2022-09-24T12:32:20Z</time>
      </trkpt>
      <trkpt lat="45.77322" lon="5.17179">
        <ele>209.2</ele>
        <time>2022-09-24T12:32:21Z</time>
      </trkpt>
      <trkpt lat="45.77316" lon="5.17181">
        <ele>209.1</ele>
        <time>2022-09-24T12:32:22Z</time>
      </trkpt>
      <trkpt lat="45.7731" lon="5.17185">
        <ele>209</ele>
        <time>2022-09-24T12:32:23Z</time>
      </trkpt>
      <trkpt lat="45.77304" lon="5.17188">
        <ele>208.9</ele>
        <time>2022-09-24T12:32:24Z</time>
      </trkpt>
      <trkpt lat="45.77297" lon="5.17191">
        <ele>208.8</ele>
        <time>2022-09-24T12:32:25Z</time>
      </trkpt>
      <trkpt lat="45.77291" lon="5.17193">
        <ele>208.7</ele>
        <time>2022-09-24T12:32:26Z</time>
      </trkpt>
      <trkpt lat="45.77285" lon="5.17196">
        <ele>208.6</ele>
        <time>2022-09-24T12:32:27Z</time>
      </trkpt>
      <trkpt lat="45.77279" lon="5.172">
        <ele>208.5</ele>
        <time>2022-09-24T12:32:28Z</time>
      </trkpt>
      <trkpt lat="45.77273" lon="5.17203">
        <ele>208.4</ele>
        <time>2022-09-24T12:32:29Z</time>
      </trkpt>
      <trkpt lat="45.77267" lon="5.17207">
        <ele>208.3</ele>
        <time>2022-09-24T12:32:30Z</time>
      </trkpt>
      <trkpt lat="45.77261" lon="5.17212">
        <ele>208.2</ele>
        <time>2022-09-24T12:32:31Z</time>
      </trkpt>
      <trkpt lat="45.77256" lon="5.17216">
        <ele>208.2</ele>
        <time>2022-09-24T12:32:32Z</time>
      </trkpt>
      <trkpt lat="45.77251" lon="5.17222">
        <ele>207.9</ele>
        <time>2022-09-24T12:32:33Z</time>
      </trkpt>
      <trkpt lat="45.77248" lon="5.17226">
        <ele>207.8</ele>
        <time>2022-09-24T12:32:34Z</time>
      </trkpt>
      <trkpt lat="45.77243" lon="5.17231">
        <ele>207.6</ele>
        <time>2022-09-24T12:32:35Z</time>
      </trkpt>
      <trkpt lat="45.77238" lon="5.1724">
        <ele>207.3</ele>
        <time>2022-09-24T12:32:36Z</time>
      </trkpt>
      <trkpt lat="45.77234" lon="5.17247">
        <ele>207.2</ele>
        <time>2022-09-24T12:32:37Z</time>
      </trkpt>
      <trkpt lat="45.7723" lon="5.17257">
        <ele>207</ele>
        <time>2022-09-24T12:32:38Z</time>
      </trkpt>
      <trkpt lat="45.77226" lon="5.17265">
        <ele>206.9</ele>
        <time>2022-09-24T12:32:40Z</time>
      </trkpt>
      <trkpt lat="45.77222" lon="5.17273">
        <ele>206.7</ele>
        <time>2022-09-24T12:32:41Z</time>
      </trkpt>
      <trkpt lat="45.77219" lon="5.17281">
        <ele>206.6</ele>
        <time>2022-09-24T12:32:42Z</time>
      </trkpt>
      <trkpt lat="45.77215" lon="5.17288">
        <ele>206.5</ele>
        <time>2022-09-24T12:32:43Z</time>
      </trkpt>
      <trkpt lat="45.77211" lon="5.17295">
        <ele>206.4</ele>
        <time>2022-09-24T12:32:44Z</time>
      </trkpt>
      <trkpt lat="45.77208" lon="5.17303">
        <ele>206.3</ele>
        <time>2022-09-24T12:32:45Z</time>
      </trkpt>
      <trkpt lat="45.77204" lon="5.17311">
        <ele>206.2</ele>
        <time>2022-09-24T12:32:46Z</time>
      </trkpt>
      <trkpt lat="45.772" lon="5.17319">
        <ele>206.1</ele>
        <time>2022-09-24T12:32:47Z</time>
      </trkpt>
      <trkpt lat="45.77196" lon="5.17326">
        <ele>206</ele>
        <time>2022-09-24T12:32:48Z</time>
      </trkpt>
      <trkpt lat="45.77191" lon="5.17334">
        <ele>205.9</ele>
        <time>2022-09-24T12:32:49Z</time>
      </trkpt>
      <trkpt lat="45.77187" lon="5.17342">
        <ele>205.8</ele>
        <time>2022-09-24T12:32:50Z</time>
      </trkpt>
      <trkpt lat="45.77183" lon="5.1735">
        <ele>205.7</ele>
        <time>2022-09-24T12:32:51Z</time>
      </trkpt>
      <trkpt lat="45.77179" lon="5.17357">
        <ele>205.6</ele>
        <time>2022-09-24T12:32:52Z</time>
      </trkpt>
      <trkpt lat="45.77175" lon="5.17364">
        <ele>205.6</ele>
        <time>2022-09-24T12:32:53Z</time>
      </trkpt>
      <trkpt lat="45.7717" lon="5.17371">
        <ele>205.5</ele>
        <time>2022-09-24T12:32:54Z</time>
      </trkpt>
      <trkpt lat="45.77166" lon="5.17378">
        <ele>205.4</ele>
        <time>2022-09-24T12:32:55Z</time>
      </trkpt>
      <trkpt lat="45.77161" lon="5.17385">
        <ele>205.4</ele>
        <time>2022-09-24T12:32:56Z</time>
      </trkpt>
      <trkpt lat="45.77158" lon="5.17392">
        <ele>205.3</ele>
        <time>2022-09-24T12:32:57Z</time>
      </trkpt>
      <trkpt lat="45.77154" lon="5.17399">
        <ele>205.3</ele>
        <time>2022-09-24T12:32:58Z</time>
      </trkpt>
      <trkpt lat="45.77149" lon="5.17405">
        <ele>205.2</ele>
        <time>2022-09-24T12:32:59Z</time>
      </trkpt>
      <trkpt lat="45.77145" lon="5.17412">
        <ele>205.2</ele>
        <time>2022-09-24T12:33:00Z</time>
      </trkpt>
      <trkpt lat="45.77142" lon="5.17419">
        <ele>205.2</ele>
        <time>2022-09-24T12:33:01Z</time>
      </trkpt>
      <trkpt lat="45.7714" lon="5.17424">
        <ele>205.1</ele>
        <time>2022-09-24T12:33:02Z</time>
      </trkpt>
      <trkpt lat="45.77137" lon="5.1743">
        <ele>205.1</ele>
        <time>2022-09-24T12:33:03Z</time>
      </trkpt>
      <trkpt lat="45.77133" lon="5.17438">
        <ele>205.1</ele>
        <time>2022-09-24T12:33:04Z</time>
      </trkpt>
      <trkpt lat="45.7713" lon="5.17443">
        <ele>205.1</ele>
        <time>2022-09-24T12:33:05Z</time>
      </trkpt>
      <trkpt lat="45.77126" lon="5.17448">
        <ele>205</ele>
        <time>2022-09-24T12:33:06Z</time>
      </trkpt>
      <trkpt lat="45.77122" lon="5.17454">
        <ele>205</ele>
        <time>2022-09-24T12:33:07Z</time>
      </trkpt>
      <trkpt lat="45.77119" lon="5.1746">
        <ele>205</ele>
        <time>2022-09-24T12:33:08Z</time>
      </trkpt>
      <trkpt lat="45.77116" lon="5.17467">
        <ele>205</ele>
        <time>2022-09-24T12:33:09Z</time>
      </trkpt>
      <trkpt lat="45.77114" lon="5.17473">
        <ele>205</ele>
        <time>2022-09-24T12:33:10Z</time>
      </trkpt>
      <trkpt lat="45.77111" lon="5.17478">
        <ele>204.9</ele>
        <time>2022-09-24T12:33:11Z</time>
      </trkpt>
      <trkpt lat="45.77108" lon="5.17485">
        <ele>204.9</ele>
        <time>2022-09-24T12:33:12Z</time>
      </trkpt>
      <trkpt lat="45.77105" lon="5.17492">
        <ele>204.9</ele>
        <time>2022-09-24T12:33:13Z</time>
      </trkpt>
      <trkpt lat="45.77103" lon="5.17499">
        <ele>204.9</ele>
        <time>2022-09-24T12:33:14Z</time>
      </trkpt>
      <trkpt lat="45.771" lon="5.17505">
        <ele>204.9</ele>
        <time>2022-09-24T12:33:15Z</time>
      </trkpt>
      <trkpt lat="45.77098" lon="5.17513">
        <ele>204.9</ele>
        <time>2022-09-24T12:33:16Z</time>
      </trkpt>
      <trkpt lat="45.77095" lon="5.17519">
        <ele>204.9</ele>
        <time>2022-09-24T12:33:17Z</time>
      </trkpt>
      <trkpt lat="45.77092" lon="5.17524">
        <ele>204.9</ele>
        <time>2022-09-24T12:33:18Z</time>
      </trkpt>
      <trkpt lat="45.77087" lon="5.17526">
        <ele>204.9</ele>
        <time>2022-09-24T12:33:19Z</time>
      </trkpt>
      <trkpt lat="45.77083" lon="5.17529">
        <ele>204.9</ele>
        <time>2022-09-24T12:33:20Z</time>
      </trkpt>
      <trkpt lat="45.77081" lon="5.17537">
        <ele>204.8</ele>
        <time>2022-09-24T12:33:21Z</time>
      </trkpt>
      <trkpt lat="45.77081" lon="5.17544">
        <ele>204.8</ele>
        <time>2022-09-24T12:33:22Z</time>
      </trkpt>
      <trkpt lat="45.77083" lon="5.17551">
        <ele>204.7</ele>
        <time>2022-09-24T12:33:23Z</time>
      </trkpt>
      <trkpt lat="45.77089" lon="5.17555">
        <ele>204.7</ele>
        <time>2022-09-24T12:33:24Z</time>
      </trkpt>
      <trkpt lat="45.77093" lon="5.17558">
        <ele>204.7</ele>
        <time>2022-09-24T12:33:25Z</time>
      </trkpt>
      <trkpt lat="45.77097" lon="5.1756">
        <ele>204.6</ele>
        <time>2022-09-24T12:33:26Z</time>
      </trkpt>
      <trkpt lat="45.77101" lon="5.17564">
        <ele>204.6</ele>
        <time>2022-09-24T12:33:27Z</time>
      </trkpt>
      <trkpt lat="45.77104" lon="5.17575">
        <ele>204.6</ele>
        <time>2022-09-24T12:33:28Z</time>
      </trkpt>
      <trkpt lat="45.77104" lon="5.17582">
        <ele>204.5</ele>
        <time>2022-09-24T12:33:29Z</time>
      </trkpt>
      <trkpt lat="45.77103" lon="5.17588">
        <ele>204.5</ele>
        <time>2022-09-24T12:33:30Z</time>
      </trkpt>
      <trkpt lat="45.77103" lon="5.17597">
        <ele>204.5</ele>
        <time>2022-09-24T12:33:31Z</time>
      </trkpt>
      <trkpt lat="45.77103" lon="5.17604">
        <ele>204.5</ele>
        <time>2022-09-24T12:33:32Z</time>
      </trkpt>
      <trkpt lat="45.77102" lon="5.17612">
        <ele>204.4</ele>
        <time>2022-09-24T12:33:33Z</time>
      </trkpt>
      <trkpt lat="45.77101" lon="5.17619">
        <ele>204.4</ele>
        <time>2022-09-24T12:33:34Z</time>
      </trkpt>
      <trkpt lat="45.77098" lon="5.17627">
        <ele>204.4</ele>
        <time>2022-09-24T12:33:35Z</time>
      </trkpt>
      <trkpt lat="45.77097" lon="5.17635">
        <ele>204.4</ele>
        <time>2022-09-24T12:33:36Z</time>
      </trkpt>
      <trkpt lat="45.77094" lon="5.17641">
        <ele>204.4</ele>
        <time>2022-09-24T12:33:37Z</time>
      </trkpt>
      <trkpt lat="45.77091" lon="5.17649">
        <ele>204.4</ele>
        <time>2022-09-24T12:33:38Z</time>
      </trkpt>
      <trkpt lat="45.77088" lon="5.17654">
        <ele>204.4</ele>
        <time>2022-09-24T12:33:39Z</time>
      </trkpt>
      <trkpt lat="45.77085" lon="5.17661">
        <ele>204.5</ele>
        <time>2022-09-24T12:33:40Z</time>
      </trkpt>
      <trkpt lat="45.77082" lon="5.17669">
        <ele>204.5</ele>
        <time>2022-09-24T12:33:41Z</time>
      </trkpt>
      <trkpt lat="45.7708" lon="5.17676">
        <ele>204.5</ele>
        <time>2022-09-24T12:33:42Z</time>
      </trkpt>
      <trkpt lat="45.77077" lon="5.17682">
        <ele>204.5</ele>
        <time>2022-09-24T12:33:43Z</time>
      </trkpt>
      <trkpt lat="45.77074" lon="5.1769">
        <ele>204.5</ele>
        <time>2022-09-24T12:33:44Z</time>
      </trkpt>
      <trkpt lat="45.77071" lon="5.17698">
        <ele>204.5</ele>
        <time>2022-09-24T12:33:45Z</time>
      </trkpt>
      <trkpt lat="45.77068" lon="5.17703">
        <ele>204.6</ele>
        <time>2022-09-24T12:33:46Z</time>
      </trkpt>
      <trkpt lat="45.77065" lon="5.1771">
        <ele>204.6</ele>
        <time>2022-09-24T12:33:47Z</time>
      </trkpt>
      <trkpt lat="45.77062" lon="5.17716">
        <ele>204.6</ele>
        <time>2022-09-24T12:33:48Z</time>
      </trkpt>
      <trkpt lat="45.7706" lon="5.17723">
        <ele>204.7</ele>
        <time>2022-09-24T12:33:49Z</time>
      </trkpt>
      <trkpt lat="45.77058" lon="5.1773">
        <ele>204.7</ele>
        <time>2022-09-24T12:33:50Z</time>
      </trkpt>
      <trkpt lat="45.77055" lon="5.17737">
        <ele>204.7</ele>
        <time>2022-09-24T12:33:51Z</time>
      </trkpt>
      <trkpt lat="45.77052" lon="5.17743">
        <ele>204.8</ele>
        <time>2022-09-24T12:33:52Z</time>
      </trkpt>
      <trkpt lat="45.77049" lon="5.1775">
        <ele>204.8</ele>
        <time>2022-09-24T12:33:53Z</time>
      </trkpt>
      <trkpt lat="45.77046" lon="5.17756">
        <ele>204.8</ele>
        <time>2022-09-24T12:33:54Z</time>
      </trkpt>
      <trkpt lat="45.77044" lon="5.17764">
        <ele>204.8</ele>
        <time>2022-09-24T12:33:55Z</time>
      </trkpt>
      <trkpt lat="45.77041" lon="5.17771">
        <ele>204.8</ele>
        <time>2022-09-24T12:33:56Z</time>
      </trkpt>
      <trkpt lat="45.77038" lon="5.17777">
        <ele>204.8</ele>
        <time>2022-09-24T12:33:57Z</time>
      </trkpt>
      <trkpt lat="45.77036" lon="5.17784">
        <ele>204.8</ele>
        <time>2022-09-24T12:33:58Z</time>
      </trkpt>
      <trkpt lat="45.77035" lon="5.17791">
        <ele>204.8</ele>
        <time>2022-09-24T12:33:59Z</time>
      </trkpt>
      <trkpt lat="45.77033" lon="5.17797">
        <ele>204.8</ele>
        <time>2022-09-24T12:34:00Z</time>
      </trkpt>
      <trkpt lat="45.77031" lon="5.17804">
        <ele>204.7</ele>
        <time>2022-09-24T12:34:01Z</time>
      </trkpt>
      <trkpt lat="45.77028" lon="5.17809">
        <ele>204.7</ele>
        <time>2022-09-24T12:34:02Z</time>
      </trkpt>
      <trkpt lat="45.77025" lon="5.17817">
        <ele>204.7</ele>
        <time>2022-09-24T12:34:03Z</time>
      </trkpt>
      <trkpt lat="45.77022" lon="5.17824">
        <ele>204.7</ele>
        <time>2022-09-24T12:34:04Z</time>
      </trkpt>
      <trkpt lat="45.7702" lon="5.1783">
        <ele>204.7</ele>
        <time>2022-09-24T12:34:05Z</time>
      </trkpt>
      <trkpt lat="45.77018" lon="5.17838">
        <ele>204.7</ele>
        <time>2022-09-24T12:34:06Z</time>
      </trkpt>
      <trkpt lat="45.77017" lon="5.17845">
        <ele>204.7</ele>
        <time>2022-09-24T12:34:07Z</time>
      </trkpt>
      <trkpt lat="45.77015" lon="5.17852">
        <ele>204.7</ele>
        <time>2022-09-24T12:34:08Z</time>
      </trkpt>
      <trkpt lat="45.77012" lon="5.1786">
        <ele>204.6</ele>
        <time>2022-09-24T12:34:09Z</time>
      </trkpt>
      <trkpt lat="45.77011" lon="5.17867">
        <ele>204.6</ele>
        <time>2022-09-24T12:34:10Z</time>
      </trkpt>
      <trkpt lat="45.77008" lon="5.17873">
        <ele>204.6</ele>
        <time>2022-09-24T12:34:11Z</time>
      </trkpt>
      <trkpt lat="45.77005" lon="5.1788">
        <ele>204.5</ele>
        <time>2022-09-24T12:34:12Z</time>
      </trkpt>
      <trkpt lat="45.77002" lon="5.17888">
        <ele>204.5</ele>
        <time>2022-09-24T12:34:13Z</time>
      </trkpt>
      <trkpt lat="45.77" lon="5.17896">
        <ele>204.5</ele>
        <time>2022-09-24T12:34:14Z</time>
      </trkpt>
      <trkpt lat="45.76998" lon="5.17905">
        <ele>204.4</ele>
        <time>2022-09-24T12:34:15Z</time>
      </trkpt>
      <trkpt lat="45.76995" lon="5.17913">
        <ele>204.4</ele>
        <time>2022-09-24T12:34:16Z</time>
      </trkpt>
      <trkpt lat="45.76992" lon="5.17921">
        <ele>204.3</ele>
        <time>2022-09-24T12:34:17Z</time>
      </trkpt>
      <trkpt lat="45.76989" lon="5.17928">
        <ele>204.3</ele>
        <time>2022-09-24T12:34:18Z</time>
      </trkpt>
      <trkpt lat="45.76986" lon="5.17937">
        <ele>204.3</ele>
        <time>2022-09-24T12:34:19Z</time>
      </trkpt>
      <trkpt lat="45.76983" lon="5.17943">
        <ele>204.2</ele>
        <time>2022-09-24T12:34:20Z</time>
      </trkpt>
      <trkpt lat="45.7698" lon="5.1795">
        <ele>204.2</ele>
        <time>2022-09-24T12:34:21Z</time>
      </trkpt>
      <trkpt lat="45.76978" lon="5.17959">
        <ele>204.2</ele>
        <time>2022-09-24T12:34:22Z</time>
      </trkpt>
      <trkpt lat="45.76975" lon="5.17966">
        <ele>204.2</ele>
        <time>2022-09-24T12:34:23Z</time>
      </trkpt>
      <trkpt lat="45.76972" lon="5.17974">
        <ele>204.1</ele>
        <time>2022-09-24T12:34:24Z</time>
      </trkpt>
      <trkpt lat="45.76969" lon="5.17982">
        <ele>204.1</ele>
        <time>2022-09-24T12:34:25Z</time>
      </trkpt>
      <trkpt lat="45.76966" lon="5.17988">
        <ele>204.1</ele>
        <time>2022-09-24T12:34:26Z</time>
      </trkpt>
      <trkpt lat="45.76963" lon="5.17997">
        <ele>204</ele>
        <time>2022-09-24T12:34:27Z</time>
      </trkpt>
      <trkpt lat="45.7696" lon="5.18004">
        <ele>204</ele>
        <time>2022-09-24T12:34:28Z</time>
      </trkpt>
      <trkpt lat="45.76957" lon="5.18011">
        <ele>204</ele>
        <time>2022-09-24T12:34:29Z</time>
      </trkpt>
      <trkpt lat="45.76954" lon="5.18019">
        <ele>204</ele>
        <time>2022-09-24T12:34:30Z</time>
      </trkpt>
      <trkpt lat="45.76951" lon="5.18026">
        <ele>203.9</ele>
        <time>2022-09-24T12:34:31Z</time>
      </trkpt>
      <trkpt lat="45.76949" lon="5.18035">
        <ele>203.9</ele>
        <time>2022-09-24T12:34:32Z</time>
      </trkpt>
      <trkpt lat="45.76945" lon="5.18041">
        <ele>203.8</ele>
        <time>2022-09-24T12:34:33Z</time>
      </trkpt>
      <trkpt lat="45.7694" lon="5.18058">
        <ele>203.7</ele>
        <time>2022-09-24T12:34:34Z</time>
      </trkpt>
      <trkpt lat="45.76937" lon="5.18065">
        <ele>203.7</ele>
        <time>2022-09-24T12:34:35Z</time>
      </trkpt>
      <trkpt lat="45.76933" lon="5.18073">
        <ele>203.6</ele>
        <time>2022-09-24T12:34:36Z</time>
      </trkpt>
      <trkpt lat="45.7693" lon="5.1808">
        <ele>203.6</ele>
        <time>2022-09-24T12:34:37Z</time>
      </trkpt>
      <trkpt lat="45.76927" lon="5.18087">
        <ele>203.6</ele>
        <time>2022-09-24T12:34:38Z</time>
      </trkpt>
      <trkpt lat="45.76924" lon="5.18094">
        <ele>203.6</ele>
        <time>2022-09-24T12:34:39Z</time>
      </trkpt>
      <trkpt lat="45.76921" lon="5.18101">
        <ele>203.6</ele>
        <time>2022-09-24T12:34:40Z</time>
      </trkpt>
      <trkpt lat="45.76917" lon="5.18109">
        <ele>203.6</ele>
        <time>2022-09-24T12:34:41Z</time>
      </trkpt>
      <trkpt lat="45.76915" lon="5.18115">
        <ele>203.5</ele>
        <time>2022-09-24T12:34:42Z</time>
      </trkpt>
      <trkpt lat="45.76911" lon="5.18122">
        <ele>203.5</ele>
        <time>2022-09-24T12:34:43Z</time>
      </trkpt>
      <trkpt lat="45.76909" lon="5.18128">
        <ele>203.5</ele>
        <time>2022-09-24T12:34:44Z</time>
      </trkpt>
      <trkpt lat="45.76905" lon="5.18135">
        <ele>203.5</ele>
        <time>2022-09-24T12:34:46Z</time>
      </trkpt>
      <trkpt lat="45.76903" lon="5.18143">
        <ele>203.4</ele>
        <time>2022-09-24T12:34:47Z</time>
      </trkpt>
      <trkpt lat="45.769" lon="5.18148">
        <ele>203.4</ele>
        <time>2022-09-24T12:34:48Z</time>
      </trkpt>
      <trkpt lat="45.76898" lon="5.18155">
        <ele>203.4</ele>
        <time>2022-09-24T12:34:49Z</time>
      </trkpt>
      <trkpt lat="45.76895" lon="5.18163">
        <ele>203.3</ele>
        <time>2022-09-24T12:34:50Z</time>
      </trkpt>
      <trkpt lat="45.76892" lon="5.18169">
        <ele>203.2</ele>
        <time>2022-09-24T12:34:51Z</time>
      </trkpt>
      <trkpt lat="45.76889" lon="5.18175">
        <ele>203.2</ele>
        <time>2022-09-24T12:34:52Z</time>
      </trkpt>
      <trkpt lat="45.76886" lon="5.1818">
        <ele>203.1</ele>
        <time>2022-09-24T12:34:53Z</time>
      </trkpt>
      <trkpt lat="45.76886" lon="5.18185">
        <ele>203.1</ele>
        <time>2022-09-24T12:34:54Z</time>
      </trkpt>
      <trkpt lat="45.76884" lon="5.18189">
        <ele>203</ele>
        <time>2022-09-24T12:34:55Z</time>
      </trkpt>
      <trkpt lat="45.76883" lon="5.18193">
        <ele>202.9</ele>
        <time>2022-09-24T12:34:56Z</time>
      </trkpt>
      <trkpt lat="45.76881" lon="5.18197">
        <ele>202.9</ele>
        <time>2022-09-24T12:34:57Z</time>
      </trkpt>
      <trkpt lat="45.7688" lon="5.18197">
        <ele>202.8</ele>
        <time>2022-09-24T12:34:58Z</time>
      </trkpt>
      <trkpt lat="45.76882" lon="5.18202">
        <ele>202.8</ele>
        <time>2022-09-24T12:34:59Z</time>
      </trkpt>
      <trkpt lat="45.76882" lon="5.18203">
        <ele>202.8</ele>
        <time>2022-09-24T12:35:00Z</time>
      </trkpt>
      <trkpt lat="45.76883" lon="5.18207">
        <ele>202.7</ele>
        <time>2022-09-24T12:35:01Z</time>
      </trkpt>
      <trkpt lat="45.76883" lon="5.18208">
        <ele>202.7</ele>
        <time>2022-09-24T12:35:02Z</time>
      </trkpt>
      <trkpt lat="45.76882" lon="5.18209">
        <ele>202.7</ele>
        <time>2022-09-24T12:35:03Z</time>
      </trkpt>
      <trkpt lat="45.76882" lon="5.18211">
        <ele>202.6</ele>
        <time>2022-09-24T12:35:04Z</time>
      </trkpt>
      <trkpt lat="45.76882" lon="5.18213">
        <ele>202.6</ele>
        <time>2022-09-24T12:35:05Z</time>
      </trkpt>
      <trkpt lat="45.76883" lon="5.18212">
        <ele>202.6</ele>
        <time>2022-09-24T12:35:06Z</time>
      </trkpt>
      <trkpt lat="45.76881" lon="5.18213">
        <ele>202.6</ele>
        <time>2022-09-24T12:35:07Z</time>
      </trkpt>
      <trkpt lat="45.76881" lon="5.18213">
        <ele>202.5</ele>
        <time>2022-09-24T12:35:08Z</time>
      </trkpt>
      <trkpt lat="45.76882" lon="5.18214">
        <ele>202.5</ele>
        <time>2022-09-24T12:35:09Z</time>
      </trkpt>
      <trkpt lat="45.76882" lon="5.18215">
        <ele>202.5</ele>
        <time>2022-09-24T12:35:10Z</time>
      </trkpt>
      <trkpt lat="45.76882" lon="5.18215">
        <ele>202.5</ele>
        <time>2022-09-24T12:35:11Z</time>
      </trkpt>
      <trkpt lat="45.76882" lon="5.18214">
        <ele>202.5</ele>
        <time>2022-09-24T12:35:12Z</time>
      </trkpt>
      <trkpt lat="45.76882" lon="5.18214">
        <ele>202.5</ele>
        <time>2022-09-24T12:35:13Z</time>
      </trkpt>
      <trkpt lat="45.76882" lon="5.18214">
        <ele>202.5</ele>
        <time>2022-09-24T12:35:14Z</time>
      </trkpt>
      <trkpt lat="45.76881" lon="5.18213">
        <ele>202.5</ele>
        <time>2022-09-24T12:35:15Z</time>
      </trkpt>
      <trkpt lat="45.76879" lon="5.18214">
        <ele>202.4</ele>
        <time>2022-09-24T12:35:18Z</time>
      </trkpt>
      <trkpt lat="45.76879" lon="5.18212">
        <ele>202.4</ele>
        <time>2022-09-24T12:35:19Z</time>
      </trkpt>
      <trkpt lat="45.76881" lon="5.18212">
        <ele>202.3</ele>
        <time>2022-09-24T12:35:20Z</time>
      </trkpt>
      <trkpt lat="45.7688" lon="5.18212">
        <ele>202.3</ele>
        <time>2022-09-24T12:35:21Z</time>
      </trkpt>
      <trkpt lat="45.7688" lon="5.18211">
        <ele>202.3</ele>
        <time>2022-09-24T12:35:22Z</time>
      </trkpt>
      <trkpt lat="45.76881" lon="5.1821">
        <ele>202.3</ele>
        <time>2022-09-24T12:35:23Z</time>
      </trkpt>
      <trkpt lat="45.7688" lon="5.18208">
        <ele>202.2</ele>
        <time>2022-09-24T12:35:24Z</time>
      </trkpt>
      <trkpt lat="45.7688" lon="5.18208">
        <ele>202.2</ele>
        <time>2022-09-24T12:35:25Z</time>
      </trkpt>
      <trkpt lat="45.7688" lon="5.18206">
        <ele>202.2</ele>
        <time>2022-09-24T12:35:26Z</time>
      </trkpt>
      <trkpt lat="45.7688" lon="5.18205">
        <ele>202.2</ele>
        <time>2022-09-24T12:35:27Z</time>
      </trkpt>
      <trkpt lat="45.76879" lon="5.18203">
        <ele>202.1</ele>
        <time>2022-09-24T12:35:28Z</time>
      </trkpt>
      <trkpt lat="45.7688" lon="5.18203">
        <ele>202.1</ele>
        <time>2022-09-24T12:35:29Z</time>
      </trkpt>
      <trkpt lat="45.76879" lon="5.18202">
        <ele>202.1</ele>
        <time>2022-09-24T12:35:30Z</time>
      </trkpt>
      <trkpt lat="45.7688" lon="5.18201">
        <ele>202.1</ele>
        <time>2022-09-24T12:35:31Z</time>
      </trkpt>
      <trkpt lat="45.76878" lon="5.18202">
        <ele>202.1</ele>
        <time>2022-09-24T12:35:32Z</time>
      </trkpt>
      <trkpt lat="45.76878" lon="5.18202">
        <ele>202</ele>
        <time>2022-09-24T12:35:33Z</time>
      </trkpt>
      <trkpt lat="45.76877" lon="5.18202">
        <ele>202</ele>
        <time>2022-09-24T12:35:34Z</time>
      </trkpt>
      <trkpt lat="45.76876" lon="5.18202">
        <ele>202</ele>
        <time>2022-09-24T12:35:35Z</time>
      </trkpt>
      <trkpt lat="45.76874" lon="5.18207">
        <ele>201.9</ele>
        <time>2022-09-24T12:35:36Z</time>
      </trkpt>
      <trkpt lat="45.76874" lon="5.18208">
        <ele>201.9</ele>
        <time>2022-09-24T12:35:37Z</time>
      </trkpt>
      <trkpt lat="45.76872" lon="5.18211">
        <ele>201.8</ele>
        <time>2022-09-24T12:35:38Z</time>
      </trkpt>
      <trkpt lat="45.76871" lon="5.18215">
        <ele>201.7</ele>
        <time>2022-09-24T12:35:39Z</time>
      </trkpt>
      <trkpt lat="45.76869" lon="5.18218">
        <ele>201.6</ele>
        <time>2022-09-24T12:35:40Z</time>
      </trkpt>
      <trkpt lat="45.76868" lon="5.18224">
        <ele>201.5</ele>
        <time>2022-09-24T12:35:41Z</time>
      </trkpt>
      <trkpt lat="45.76866" lon="5.18228">
        <ele>201.5</ele>
        <time>2022-09-24T12:35:42Z</time>
      </trkpt>
      <trkpt lat="45.76862" lon="5.18233">
        <ele>201.3</ele>
        <time>2022-09-24T12:35:43Z</time>
      </trkpt>
      <trkpt lat="45.7686" lon="5.18235">
        <ele>201.3</ele>
        <time>2022-09-24T12:35:44Z</time>
      </trkpt>
      <trkpt lat="45.76856" lon="5.18236">
        <ele>201.2</ele>
        <time>2022-09-24T12:35:45Z</time>
      </trkpt>
      <trkpt lat="45.76855" lon="5.18237">
        <ele>201.1</ele>
        <time>2022-09-24T12:35:46Z</time>
      </trkpt>
      <trkpt lat="45.76852" lon="5.18236">
        <ele>200.9</ele>
        <time>2022-09-24T12:35:47Z</time>
      </trkpt>
      <trkpt lat="45.76849" lon="5.18237">
        <ele>200.7</ele>
        <time>2022-09-24T12:35:48Z</time>
      </trkpt>
      <trkpt lat="45.76845" lon="5.1824">
        <ele>200.4</ele>
        <time>2022-09-24T12:35:49Z</time>
      </trkpt>
      <trkpt lat="45.76841" lon="5.18243">
        <ele>200</ele>
        <time>2022-09-24T12:35:50Z</time>
      </trkpt>
      <trkpt lat="45.76837" lon="5.18244">
        <ele>199.7</ele>
        <time>2022-09-24T12:35:51Z</time>
      </trkpt>
      <trkpt lat="45.76832" lon="5.18248">
        <ele>199.3</ele>
        <time>2022-09-24T12:35:52Z</time>
      </trkpt>
      <trkpt lat="45.76827" lon="5.1825">
        <ele>198.9</ele>
        <time>2022-09-24T12:35:53Z</time>
      </trkpt>
      <trkpt lat="45.76821" lon="5.18252">
        <ele>198.5</ele>
        <time>2022-09-24T12:35:54Z</time>
      </trkpt>
      <trkpt lat="45.76815" lon="5.18254">
        <ele>198</ele>
        <time>2022-09-24T12:35:55Z</time>
      </trkpt>
      <trkpt lat="45.76808" lon="5.18256">
        <ele>197.5</ele>
        <time>2022-09-24T12:35:56Z</time>
      </trkpt>
      <trkpt lat="45.76802" lon="5.18258">
        <ele>197.1</ele>
        <time>2022-09-24T12:35:57Z</time>
      </trkpt>
      <trkpt lat="45.76796" lon="5.1826">
        <ele>196.7</ele>
        <time>2022-09-24T12:35:58Z</time>
      </trkpt>
      <trkpt lat="45.7679" lon="5.18264">
        <ele>196.3</ele>
        <time>2022-09-24T12:35:59Z</time>
      </trkpt>
      <trkpt lat="45.76784" lon="5.18268">
        <ele>196.1</ele>
        <time>2022-09-24T12:36:00Z</time>
      </trkpt>
      <trkpt lat="45.76779" lon="5.1827">
        <ele>195.9</ele>
        <time>2022-09-24T12:36:01Z</time>
      </trkpt>
      <trkpt lat="45.76773" lon="5.18274">
        <ele>195.7</ele>
        <time>2022-09-24T12:36:02Z</time>
      </trkpt>
      <trkpt lat="45.76768" lon="5.18277">
        <ele>195.6</ele>
        <time>2022-09-24T12:36:03Z</time>
      </trkpt>
      <trkpt lat="45.76764" lon="5.18281">
        <ele>195.4</ele>
        <time>2022-09-24T12:36:04Z</time>
      </trkpt>
      <trkpt lat="45.76759" lon="5.18285">
        <ele>195.3</ele>
        <time>2022-09-24T12:36:05Z</time>
      </trkpt>
      <trkpt lat="45.76754" lon="5.18289">
        <ele>195.2</ele>
        <time>2022-09-24T12:36:06Z</time>
      </trkpt>
      <trkpt lat="45.76748" lon="5.18291">
        <ele>195.1</ele>
        <time>2022-09-24T12:36:07Z</time>
      </trkpt>
      <trkpt lat="45.76743" lon="5.18295">
        <ele>195</ele>
        <time>2022-09-24T12:36:08Z</time>
      </trkpt>
      <trkpt lat="45.76737" lon="5.18297">
        <ele>194.9</ele>
        <time>2022-09-24T12:36:09Z</time>
      </trkpt>
      <trkpt lat="45.76731" lon="5.18302">
        <ele>194.8</ele>
        <time>2022-09-24T12:36:10Z</time>
      </trkpt>
      <trkpt lat="45.76724" lon="5.183">
        <ele>194.7</ele>
        <time>2022-09-24T12:36:11Z</time>
      </trkpt>
      <trkpt lat="45.76718" lon="5.18302">
        <ele>194.7</ele>
        <time>2022-09-24T12:36:12Z</time>
      </trkpt>
      <trkpt lat="45.76711" lon="5.18303">
        <ele>194.6</ele>
        <time>2022-09-24T12:36:13Z</time>
      </trkpt>
      <trkpt lat="45.76705" lon="5.18306">
        <ele>194.6</ele>
        <time>2022-09-24T12:36:14Z</time>
      </trkpt>
      <trkpt lat="45.76699" lon="5.18306">
        <ele>194.6</ele>
        <time>2022-09-24T12:36:15Z</time>
      </trkpt>
      <trkpt lat="45.76693" lon="5.18306">
        <ele>194.6</ele>
        <time>2022-09-24T12:36:16Z</time>
      </trkpt>
      <trkpt lat="45.76688" lon="5.18307">
        <ele>194.6</ele>
        <time>2022-09-24T12:36:17Z</time>
      </trkpt>
      <trkpt lat="45.76683" lon="5.18307">
        <ele>194.6</ele>
        <time>2022-09-24T12:36:18Z</time>
      </trkpt>
      <trkpt lat="45.76677" lon="5.18307">
        <ele>194.7</ele>
        <time>2022-09-24T12:36:19Z</time>
      </trkpt>
      <trkpt lat="45.76671" lon="5.18307">
        <ele>194.7</ele>
        <time>2022-09-24T12:36:20Z</time>
      </trkpt>
      <trkpt lat="45.76665" lon="5.18305">
        <ele>194.8</ele>
        <time>2022-09-24T12:36:21Z</time>
      </trkpt>
      <trkpt lat="45.76661" lon="5.18306">
        <ele>194.9</ele>
        <time>2022-09-24T12:36:22Z</time>
      </trkpt>
      <trkpt lat="45.76657" lon="5.18303">
        <ele>195</ele>
        <time>2022-09-24T12:36:23Z</time>
      </trkpt>
      <trkpt lat="45.76652" lon="5.18301">
        <ele>195.2</ele>
        <time>2022-09-24T12:36:24Z</time>
      </trkpt>
      <trkpt lat="45.76647" lon="5.18297">
        <ele>195.4</ele>
        <time>2022-09-24T12:36:25Z</time>
      </trkpt>
      <trkpt lat="45.76643" lon="5.18296">
        <ele>195.5</ele>
        <time>2022-09-24T12:36:26Z</time>
      </trkpt>
      <trkpt lat="45.76639" lon="5.18291">
        <ele>195.6</ele>
        <time>2022-09-24T12:36:27Z</time>
      </trkpt>
      <trkpt lat="45.76636" lon="5.1829">
        <ele>195.6</ele>
        <time>2022-09-24T12:36:28Z</time>
      </trkpt>
      <trkpt lat="45.76632" lon="5.18285">
        <ele>195.6</ele>
        <time>2022-09-24T12:36:29Z</time>
      </trkpt>
      <trkpt lat="45.76627" lon="5.18282">
        <ele>195.6</ele>
        <time>2022-09-24T12:36:30Z</time>
      </trkpt>
      <trkpt lat="45.76623" lon="5.18281">
        <ele>195.6</ele>
        <time>2022-09-24T12:36:31Z</time>
      </trkpt>
      <trkpt lat="45.76618" lon="5.18283">
        <ele>195.6</ele>
        <time>2022-09-24T12:36:32Z</time>
      </trkpt>
      <trkpt lat="45.76617" lon="5.1829">
        <ele>195.6</ele>
        <time>2022-09-24T12:36:33Z</time>
      </trkpt>
      <trkpt lat="45.76616" lon="5.18296">
        <ele>195.6</ele>
        <time>2022-09-24T12:36:34Z</time>
      </trkpt>
      <trkpt lat="45.76617" lon="5.18302">
        <ele>195.6</ele>
        <time>2022-09-24T12:36:35Z</time>
      </trkpt>
      <trkpt lat="45.76619" lon="5.18307">
        <ele>195.7</ele>
        <time>2022-09-24T12:36:36Z</time>
      </trkpt>
      <trkpt lat="45.7662" lon="5.18313">
        <ele>195.7</ele>
        <time>2022-09-24T12:36:37Z</time>
      </trkpt>
      <trkpt lat="45.76623" lon="5.1832">
        <ele>195.7</ele>
        <time>2022-09-24T12:36:38Z</time>
      </trkpt>
      <trkpt lat="45.76626" lon="5.18326">
        <ele>195.7</ele>
        <time>2022-09-24T12:36:39Z</time>
      </trkpt>
      <trkpt lat="45.76627" lon="5.18332">
        <ele>195.6</ele>
        <time>2022-09-24T12:36:40Z</time>
      </trkpt>
      <trkpt lat="45.76627" lon="5.1834">
        <ele>195.6</ele>
        <time>2022-09-24T12:36:41Z</time>
      </trkpt>
      <trkpt lat="45.76628" lon="5.18347">
        <ele>195.5</ele>
        <time>2022-09-24T12:36:42Z</time>
      </trkpt>
      <trkpt lat="45.7663" lon="5.18354">
        <ele>195.5</ele>
        <time>2022-09-24T12:36:43Z</time>
      </trkpt>
      <trkpt lat="45.76631" lon="5.18362">
        <ele>195.4</ele>
        <time>2022-09-24T12:36:44Z</time>
      </trkpt>
      <trkpt lat="45.76632" lon="5.18369">
        <ele>195.4</ele>
        <time>2022-09-24T12:36:45Z</time>
      </trkpt>
      <trkpt lat="45.76633" lon="5.18378">
        <ele>195.3</ele>
        <time>2022-09-24T12:36:46Z</time>
      </trkpt>
      <trkpt lat="45.76634" lon="5.18386">
        <ele>195.3</ele>
        <time>2022-09-24T12:36:47Z</time>
      </trkpt>
      <trkpt lat="45.76634" lon="5.18394">
        <ele>195.2</ele>
        <time>2022-09-24T12:36:48Z</time>
      </trkpt>
      <trkpt lat="45.76634" lon="5.18401">
        <ele>195.2</ele>
        <time>2022-09-24T12:36:49Z</time>
      </trkpt>
      <trkpt lat="45.76634" lon="5.18409">
        <ele>195.2</ele>
        <time>2022-09-24T12:36:50Z</time>
      </trkpt>
      <trkpt lat="45.76633" lon="5.18418">
        <ele>195.1</ele>
        <time>2022-09-24T12:36:52Z</time>
      </trkpt>
      <trkpt lat="45.76632" lon="5.18425">
        <ele>195.1</ele>
        <time>2022-09-24T12:36:53Z</time>
      </trkpt>
      <trkpt lat="45.76631" lon="5.18433">
        <ele>195.1</ele>
        <time>2022-09-24T12:36:54Z</time>
      </trkpt>
      <trkpt lat="45.7663" lon="5.18441">
        <ele>195</ele>
        <time>2022-09-24T12:36:55Z</time>
      </trkpt>
      <trkpt lat="45.76631" lon="5.18447">
        <ele>195</ele>
        <time>2022-09-24T12:36:56Z</time>
      </trkpt>
      <trkpt lat="45.7663" lon="5.18454">
        <ele>195</ele>
        <time>2022-09-24T12:36:57Z</time>
      </trkpt>
      <trkpt lat="45.76629" lon="5.18462">
        <ele>195</ele>
        <time>2022-09-24T12:36:58Z</time>
      </trkpt>
      <trkpt lat="45.76627" lon="5.18468">
        <ele>195</ele>
        <time>2022-09-24T12:36:59Z</time>
      </trkpt>
      <trkpt lat="45.76627" lon="5.18477">
        <ele>194.9</ele>
        <time>2022-09-24T12:37:00Z</time>
      </trkpt>
      <trkpt lat="45.76626" lon="5.18484">
        <ele>194.9</ele>
        <time>2022-09-24T12:37:01Z</time>
      </trkpt>
      <trkpt lat="45.76626" lon="5.18493">
        <ele>194.9</ele>
        <time>2022-09-24T12:37:02Z</time>
      </trkpt>
      <trkpt lat="45.76625" lon="5.18501">
        <ele>194.9</ele>
        <time>2022-09-24T12:37:03Z</time>
      </trkpt>
      <trkpt lat="45.76625" lon="5.18509">
        <ele>194.9</ele>
        <time>2022-09-24T12:37:04Z</time>
      </trkpt>
      <trkpt lat="45.76625" lon="5.18517">
        <ele>194.9</ele>
        <time>2022-09-24T12:37:05Z</time>
      </trkpt>
      <trkpt lat="45.76625" lon="5.18525">
        <ele>194.9</ele>
        <time>2022-09-24T12:37:06Z</time>
      </trkpt>
      <trkpt lat="45.76626" lon="5.18532">
        <ele>194.9</ele>
        <time>2022-09-24T12:37:07Z</time>
      </trkpt>
      <trkpt lat="45.76625" lon="5.1854">
        <ele>194.9</ele>
        <time>2022-09-24T12:37:08Z</time>
      </trkpt>
      <trkpt lat="45.76625" lon="5.18549">
        <ele>194.9</ele>
        <time>2022-09-24T12:37:09Z</time>
      </trkpt>
      <trkpt lat="45.76626" lon="5.18557">
        <ele>194.9</ele>
        <time>2022-09-24T12:37:10Z</time>
      </trkpt>
      <trkpt lat="45.76626" lon="5.18566">
        <ele>194.9</ele>
        <time>2022-09-24T12:37:11Z</time>
      </trkpt>
      <trkpt lat="45.76626" lon="5.18574">
        <ele>194.9</ele>
        <time>2022-09-24T12:37:12Z</time>
      </trkpt>
      <trkpt lat="45.76627" lon="5.18582">
        <ele>194.9</ele>
        <time>2022-09-24T12:37:13Z</time>
      </trkpt>
      <trkpt lat="45.76627" lon="5.1859">
        <ele>194.9</ele>
        <time>2022-09-24T12:37:14Z</time>
      </trkpt>
      <trkpt lat="45.76627" lon="5.18598">
        <ele>194.9</ele>
        <time>2022-09-24T12:37:15Z</time>
      </trkpt>
      <trkpt lat="45.76626" lon="5.18606">
        <ele>194.9</ele>
        <time>2022-09-24T12:37:16Z</time>
      </trkpt>
      <trkpt lat="45.76626" lon="5.18614">
        <ele>194.9</ele>
        <time>2022-09-24T12:37:17Z</time>
      </trkpt>
      <trkpt lat="45.76626" lon="5.18621">
        <ele>194.9</ele>
        <time>2022-09-24T12:37:18Z</time>
      </trkpt>
      <trkpt lat="45.76626" lon="5.1863">
        <ele>194.9</ele>
        <time>2022-09-24T12:37:19Z</time>
      </trkpt>
      <trkpt lat="45.76626" lon="5.18638">
        <ele>194.9</ele>
        <time>2022-09-24T12:37:20Z</time>
      </trkpt>
      <trkpt lat="45.76627" lon="5.18646">
        <ele>194.9</ele>
        <time>2022-09-24T12:37:21Z</time>
      </trkpt>
      <trkpt lat="45.76627" lon="5.18654">
        <ele>194.9</ele>
        <time>2022-09-24T12:37:22Z</time>
      </trkpt>
      <trkpt lat="45.76627" lon="5.18662">
        <ele>194.9</ele>
        <time>2022-09-24T12:37:23Z</time>
      </trkpt>
      <trkpt lat="45.76627" lon="5.1867">
        <ele>194.9</ele>
        <time>2022-09-24T12:37:24Z</time>
      </trkpt>
      <trkpt lat="45.76628" lon="5.18678">
        <ele>194.9</ele>
        <time>2022-09-24T12:37:25Z</time>
      </trkpt>
      <trkpt lat="45.76628" lon="5.18686">
        <ele>194.9</ele>
        <time>2022-09-24T12:37:26Z</time>
      </trkpt>
      <trkpt lat="45.76629" lon="5.18695">
        <ele>194.9</ele>
        <time>2022-09-24T12:37:27Z</time>
      </trkpt>
      <trkpt lat="45.76628" lon="5.18703">
        <ele>194.9</ele>
        <time>2022-09-24T12:37:28Z</time>
      </trkpt>
      <trkpt lat="45.76629" lon="5.1871">
        <ele>194.9</ele>
        <time>2022-09-24T12:37:29Z</time>
      </trkpt>
      <trkpt lat="45.76629" lon="5.18719">
        <ele>194.9</ele>
        <time>2022-09-24T12:37:30Z</time>
      </trkpt>
      <trkpt lat="45.7663" lon="5.18727">
        <ele>194.9</ele>
        <time>2022-09-24T12:37:31Z</time>
      </trkpt>
      <trkpt lat="45.7663" lon="5.18735">
        <ele>194.9</ele>
        <time>2022-09-24T12:37:32Z</time>
      </trkpt>
      <trkpt lat="45.7663" lon="5.18743">
        <ele>194.9</ele>
        <time>2022-09-24T12:37:33Z</time>
      </trkpt>
      <trkpt lat="45.7663" lon="5.18751">
        <ele>195</ele>
        <time>2022-09-24T12:37:34Z</time>
      </trkpt>
      <trkpt lat="45.7663" lon="5.1876">
        <ele>195</ele>
        <time>2022-09-24T12:37:35Z</time>
      </trkpt>
      <trkpt lat="45.76631" lon="5.18769">
        <ele>195</ele>
        <time>2022-09-24T12:37:36Z</time>
      </trkpt>
      <trkpt lat="45.76631" lon="5.18777">
        <ele>195</ele>
        <time>2022-09-24T12:37:37Z</time>
      </trkpt>
      <trkpt lat="45.76631" lon="5.18784">
        <ele>195.1</ele>
        <time>2022-09-24T12:37:38Z</time>
      </trkpt>
      <trkpt lat="45.76631" lon="5.18792">
        <ele>195.1</ele>
        <time>2022-09-24T12:37:39Z</time>
      </trkpt>
      <trkpt lat="45.76631" lon="5.188">
        <ele>195.2</ele>
        <time>2022-09-24T12:37:40Z</time>
      </trkpt>
      <trkpt lat="45.76632" lon="5.18808">
        <ele>195.2</ele>
        <time>2022-09-24T12:37:41Z</time>
      </trkpt>
      <trkpt lat="45.76632" lon="5.18815">
        <ele>195.3</ele>
        <time>2022-09-24T12:37:42Z</time>
      </trkpt>
      <trkpt lat="45.76632" lon="5.18822">
        <ele>195.3</ele>
        <time>2022-09-24T12:37:43Z</time>
      </trkpt>
      <trkpt lat="45.76633" lon="5.1883">
        <ele>195.4</ele>
        <time>2022-09-24T12:37:44Z</time>
      </trkpt>
      <trkpt lat="45.76634" lon="5.18838">
        <ele>195.5</ele>
        <time>2022-09-24T12:37:45Z</time>
      </trkpt>
      <trkpt lat="45.76634" lon="5.18845">
        <ele>195.6</ele>
        <time>2022-09-24T12:37:46Z</time>
      </trkpt>
      <trkpt lat="45.76635" lon="5.18852">
        <ele>195.6</ele>
        <time>2022-09-24T12:37:47Z</time>
      </trkpt>
      <trkpt lat="45.76634" lon="5.1886">
        <ele>195.8</ele>
        <time>2022-09-24T12:37:48Z</time>
      </trkpt>
      <trkpt lat="45.76635" lon="5.18866">
        <ele>195.8</ele>
        <time>2022-09-24T12:37:49Z</time>
      </trkpt>
      <trkpt lat="45.76636" lon="5.18872">
        <ele>195.9</ele>
        <time>2022-09-24T12:37:50Z</time>
      </trkpt>
      <trkpt lat="45.76637" lon="5.1888">
        <ele>196.1</ele>
        <time>2022-09-24T12:37:51Z</time>
      </trkpt>
      <trkpt lat="45.76639" lon="5.18888">
        <ele>196.2</ele>
        <time>2022-09-24T12:37:52Z</time>
      </trkpt>
      <trkpt lat="45.7664" lon="5.18894">
        <ele>196.3</ele>
        <time>2022-09-24T12:37:53Z</time>
      </trkpt>
      <trkpt lat="45.76641" lon="5.18901">
        <ele>196.4</ele>
        <time>2022-09-24T12:37:54Z</time>
      </trkpt>
      <trkpt lat="45.76641" lon="5.18907">
        <ele>196.5</ele>
        <time>2022-09-24T12:37:55Z</time>
      </trkpt>
      <trkpt lat="45.76642" lon="5.18914">
        <ele>196.6</ele>
        <time>2022-09-24T12:37:56Z</time>
      </trkpt>
      <trkpt lat="45.76644" lon="5.1892">
        <ele>196.7</ele>
        <time>2022-09-24T12:37:57Z</time>
      </trkpt>
      <trkpt lat="45.76645" lon="5.18926">
        <ele>196.8</ele>
        <time>2022-09-24T12:37:58Z</time>
      </trkpt>
      <trkpt lat="45.76646" lon="5.18932">
        <ele>196.8</ele>
        <time>2022-09-24T12:37:59Z</time>
      </trkpt>
      <trkpt lat="45.76647" lon="5.18939">
        <ele>196.9</ele>
        <time>2022-09-24T12:38:00Z</time>
      </trkpt>
      <trkpt lat="45.76647" lon="5.18945">
        <ele>197</ele>
        <time>2022-09-24T12:38:01Z</time>
      </trkpt>
      <trkpt lat="45.76649" lon="5.18953">
        <ele>197.1</ele>
        <time>2022-09-24T12:38:02Z</time>
      </trkpt>
      <trkpt lat="45.7665" lon="5.18959">
        <ele>197.2</ele>
        <time>2022-09-24T12:38:03Z</time>
      </trkpt>
      <trkpt lat="45.76651" lon="5.18966">
        <ele>197.2</ele>
        <time>2022-09-24T12:38:04Z</time>
      </trkpt>
      <trkpt lat="45.76652" lon="5.18973">
        <ele>197.3</ele>
        <time>2022-09-24T12:38:05Z</time>
      </trkpt>
      <trkpt lat="45.76654" lon="5.18987">
        <ele>197.5</ele>
        <time>2022-09-24T12:38:06Z</time>
      </trkpt>
      <trkpt lat="45.76656" lon="5.18995">
        <ele>197.5</ele>
        <time>2022-09-24T12:38:07Z</time>
      </trkpt>
      <trkpt lat="45.76657" lon="5.19001">
        <ele>197.6</ele>
        <time>2022-09-24T12:38:08Z</time>
      </trkpt>
      <trkpt lat="45.76659" lon="5.19008">
        <ele>197.6</ele>
        <time>2022-09-24T12:38:09Z</time>
      </trkpt>
      <trkpt lat="45.7666" lon="5.19015">
        <ele>197.7</ele>
        <time>2022-09-24T12:38:10Z</time>
      </trkpt>
      <trkpt lat="45.76662" lon="5.19023">
        <ele>197.7</ele>
        <time>2022-09-24T12:38:11Z</time>
      </trkpt>
      <trkpt lat="45.76663" lon="5.1903">
        <ele>197.8</ele>
        <time>2022-09-24T12:38:12Z</time>
      </trkpt>
      <trkpt lat="45.76664" lon="5.19038">
        <ele>197.8</ele>
        <time>2022-09-24T12:38:13Z</time>
      </trkpt>
      <trkpt lat="45.76666" lon="5.19045">
        <ele>197.8</ele>
        <time>2022-09-24T12:38:14Z</time>
      </trkpt>
      <trkpt lat="45.76668" lon="5.19052">
        <ele>197.9</ele>
        <time>2022-09-24T12:38:15Z</time>
      </trkpt>
      <trkpt lat="45.7667" lon="5.1906">
        <ele>197.9</ele>
        <time>2022-09-24T12:38:16Z</time>
      </trkpt>
      <trkpt lat="45.76672" lon="5.19067">
        <ele>198</ele>
        <time>2022-09-24T12:38:17Z</time>
      </trkpt>
      <trkpt lat="45.76673" lon="5.19074">
        <ele>198</ele>
        <time>2022-09-24T12:38:18Z</time>
      </trkpt>
      <trkpt lat="45.76676" lon="5.19083">
        <ele>198</ele>
        <time>2022-09-24T12:38:19Z</time>
      </trkpt>
      <trkpt lat="45.76678" lon="5.19091">
        <ele>198</ele>
        <time>2022-09-24T12:38:20Z</time>
      </trkpt>
      <trkpt lat="45.76679" lon="5.19098">
        <ele>198</ele>
        <time>2022-09-24T12:38:21Z</time>
      </trkpt>
      <trkpt lat="45.76679" lon="5.19105">
        <ele>198</ele>
        <time>2022-09-24T12:38:22Z</time>
      </trkpt>
      <trkpt lat="45.7668" lon="5.19112">
        <ele>198</ele>
        <time>2022-09-24T12:38:23Z</time>
      </trkpt>
      <trkpt lat="45.76682" lon="5.1912">
        <ele>198</ele>
        <time>2022-09-24T12:38:24Z</time>
      </trkpt>
      <trkpt lat="45.76683" lon="5.19128">
        <ele>198</ele>
        <time>2022-09-24T12:38:25Z</time>
      </trkpt>
      <trkpt lat="45.76683" lon="5.19134">
        <ele>198</ele>
        <time>2022-09-24T12:38:26Z</time>
      </trkpt>
      <trkpt lat="45.76684" lon="5.19141">
        <ele>198</ele>
        <time>2022-09-24T12:38:27Z</time>
      </trkpt>
      <trkpt lat="45.76684" lon="5.19148">
        <ele>198</ele>
        <time>2022-09-24T12:38:28Z</time>
      </trkpt>
      <trkpt lat="45.76684" lon="5.19155">
        <ele>198</ele>
        <time>2022-09-24T12:38:29Z</time>
      </trkpt>
      <trkpt lat="45.76685" lon="5.19162">
        <ele>198</ele>
        <time>2022-09-24T12:38:30Z</time>
      </trkpt>
      <trkpt lat="45.76684" lon="5.19169">
        <ele>198</ele>
        <time>2022-09-24T12:38:31Z</time>
      </trkpt>
      <trkpt lat="45.76684" lon="5.19177">
        <ele>198.1</ele>
        <time>2022-09-24T12:38:32Z</time>
      </trkpt>
      <trkpt lat="45.76685" lon="5.19185">
        <ele>198.1</ele>
        <time>2022-09-24T12:38:33Z</time>
      </trkpt>
      <trkpt lat="45.76684" lon="5.19192">
        <ele>198.2</ele>
        <time>2022-09-24T12:38:34Z</time>
      </trkpt>
      <trkpt lat="45.76683" lon="5.19199">
        <ele>198.3</ele>
        <time>2022-09-24T12:38:35Z</time>
      </trkpt>
      <trkpt lat="45.76683" lon="5.19206">
        <ele>198.3</ele>
        <time>2022-09-24T12:38:36Z</time>
      </trkpt>
      <trkpt lat="45.76683" lon="5.19214">
        <ele>198.4</ele>
        <time>2022-09-24T12:38:37Z</time>
      </trkpt>
      <trkpt lat="45.76682" lon="5.1922">
        <ele>198.4</ele>
        <time>2022-09-24T12:38:38Z</time>
      </trkpt>
      <trkpt lat="45.76683" lon="5.19228">
        <ele>198.5</ele>
        <time>2022-09-24T12:38:39Z</time>
      </trkpt>
      <trkpt lat="45.76682" lon="5.19234">
        <ele>198.6</ele>
        <time>2022-09-24T12:38:40Z</time>
      </trkpt>
      <trkpt lat="45.76682" lon="5.1924">
        <ele>198.6</ele>
        <time>2022-09-24T12:38:41Z</time>
      </trkpt>
      <trkpt lat="45.76682" lon="5.19247">
        <ele>198.7</ele>
        <time>2022-09-24T12:38:42Z</time>
      </trkpt>
      <trkpt lat="45.76681" lon="5.19252">
        <ele>198.7</ele>
        <time>2022-09-24T12:38:43Z</time>
      </trkpt>
      <trkpt lat="45.76682" lon="5.19257">
        <ele>198.7</ele>
        <time>2022-09-24T12:38:44Z</time>
      </trkpt>
      <trkpt lat="45.76684" lon="5.19261">
        <ele>198.8</ele>
        <time>2022-09-24T12:38:45Z</time>
      </trkpt>
      <trkpt lat="45.76686" lon="5.19264">
        <ele>198.8</ele>
        <time>2022-09-24T12:38:46Z</time>
      </trkpt>
      <trkpt lat="45.7669" lon="5.19265">
        <ele>198.8</ele>
        <time>2022-09-24T12:38:47Z</time>
      </trkpt>
      <trkpt lat="45.76693" lon="5.19265">
        <ele>198.8</ele>
        <time>2022-09-24T12:38:48Z</time>
      </trkpt>
      <trkpt lat="45.76697" lon="5.19264">
        <ele>198.7</ele>
        <time>2022-09-24T12:38:49Z</time>
      </trkpt>
      <trkpt lat="45.767" lon="5.19265">
        <ele>198.7</ele>
        <time>2022-09-24T12:38:50Z</time>
      </trkpt>
      <trkpt lat="45.76703" lon="5.19266">
        <ele>198.7</ele>
        <time>2022-09-24T12:38:51Z</time>
      </trkpt>
      <trkpt lat="45.76707" lon="5.19267">
        <ele>198.6</ele>
        <time>2022-09-24T12:38:52Z</time>
      </trkpt>
      <trkpt lat="45.76708" lon="5.19267">
        <ele>198.6</ele>
        <time>2022-09-24T12:38:53Z</time>
      </trkpt>
      <trkpt lat="45.76712" lon="5.19268">
        <ele>198.5</ele>
        <time>2022-09-24T12:38:54Z</time>
      </trkpt>
      <trkpt lat="45.76716" lon="5.1927">
        <ele>198.4</ele>
        <time>2022-09-24T12:38:55Z</time>
      </trkpt>
      <trkpt lat="45.76718" lon="5.19271">
        <ele>198.4</ele>
        <time>2022-09-24T12:38:56Z</time>
      </trkpt>
      <trkpt lat="45.76722" lon="5.19273">
        <ele>198.4</ele>
        <time>2022-09-24T12:38:58Z</time>
      </trkpt>
      <trkpt lat="45.76724" lon="5.19275">
        <ele>198.3</ele>
        <time>2022-09-24T12:38:59Z</time>
      </trkpt>
      <trkpt lat="45.76725" lon="5.19276">
        <ele>198.3</ele>
        <time>2022-09-24T12:39:00Z</time>
      </trkpt>
      <trkpt lat="45.76727" lon="5.1928">
        <ele>198.3</ele>
        <time>2022-09-24T12:39:01Z</time>
      </trkpt>
      <trkpt lat="45.76729" lon="5.19284">
        <ele>198.3</ele>
        <time>2022-09-24T12:39:02Z</time>
      </trkpt>
      <trkpt lat="45.76731" lon="5.19288">
        <ele>198.4</ele>
        <time>2022-09-24T12:39:03Z</time>
      </trkpt>
      <trkpt lat="45.76732" lon="5.19289">
        <ele>198.4</ele>
        <time>2022-09-24T12:39:04Z</time>
      </trkpt>
      <trkpt lat="45.76733" lon="5.19293">
        <ele>198.4</ele>
        <time>2022-09-24T12:39:05Z</time>
      </trkpt>
      <trkpt lat="45.76734" lon="5.19294">
        <ele>198.4</ele>
        <time>2022-09-24T12:39:06Z</time>
      </trkpt>
      <trkpt lat="45.76737" lon="5.19297">
        <ele>198.4</ele>
        <time>2022-09-24T12:39:07Z</time>
      </trkpt>
      <trkpt lat="45.76739" lon="5.193">
        <ele>198.4</ele>
        <time>2022-09-24T12:39:08Z</time>
      </trkpt>
      <trkpt lat="45.7674" lon="5.19302">
        <ele>198.4</ele>
        <time>2022-09-24T12:39:09Z</time>
      </trkpt>
      <trkpt lat="45.76743" lon="5.19306">
        <ele>198.3</ele>
        <time>2022-09-24T12:39:10Z</time>
      </trkpt>
      <trkpt lat="45.76745" lon="5.19307">
        <ele>198.3</ele>
        <time>2022-09-24T12:39:11Z</time>
      </trkpt>
      <trkpt lat="45.76747" lon="5.19311">
        <ele>198.3</ele>
        <time>2022-09-24T12:39:12Z</time>
      </trkpt>
      <trkpt lat="45.7675" lon="5.19314">
        <ele>198.3</ele>
        <time>2022-09-24T12:39:13Z</time>
      </trkpt>
      <trkpt lat="45.76753" lon="5.19317">
        <ele>198.3</ele>
        <time>2022-09-24T12:39:14Z</time>
      </trkpt>
      <trkpt lat="45.76756" lon="5.19321">
        <ele>198.3</ele>
        <time>2022-09-24T12:39:15Z</time>
      </trkpt>
      <trkpt lat="45.7676" lon="5.19324">
        <ele>198.3</ele>
        <time>2022-09-24T12:39:16Z</time>
      </trkpt>
      <trkpt lat="45.76763" lon="5.19328">
        <ele>198.3</ele>
        <time>2022-09-24T12:39:17Z</time>
      </trkpt>
      <trkpt lat="45.76767" lon="5.19332">
        <ele>198.2</ele>
        <time>2022-09-24T12:39:18Z</time>
      </trkpt>
      <trkpt lat="45.76769" lon="5.19335">
        <ele>198.2</ele>
        <time>2022-09-24T12:39:19Z</time>
      </trkpt>
      <trkpt lat="45.76772" lon="5.19338">
        <ele>198.2</ele>
        <time>2022-09-24T12:39:20Z</time>
      </trkpt>
      <trkpt lat="45.76776" lon="5.19338">
        <ele>198.2</ele>
        <time>2022-09-24T12:39:21Z</time>
      </trkpt>
      <trkpt lat="45.7678" lon="5.19338">
        <ele>198.2</ele>
        <time>2022-09-24T12:39:22Z</time>
      </trkpt>
      <trkpt lat="45.76784" lon="5.19338">
        <ele>198.2</ele>
        <time>2022-09-24T12:39:23Z</time>
      </trkpt>
      <trkpt lat="45.76787" lon="5.19339">
        <ele>198.3</ele>
        <time>2022-09-24T12:39:24Z</time>
      </trkpt>
      <trkpt lat="45.7679" lon="5.19341">
        <ele>198.3</ele>
        <time>2022-09-24T12:39:25Z</time>
      </trkpt>
      <trkpt lat="45.76791" lon="5.19342">
        <ele>198.3</ele>
        <time>2022-09-24T12:39:26Z</time>
      </trkpt>
      <trkpt lat="45.76793" lon="5.19345">
        <ele>198.3</ele>
        <time>2022-09-24T12:39:27Z</time>
      </trkpt>
      <trkpt lat="45.76794" lon="5.19347">
        <ele>198.3</ele>
        <time>2022-09-24T12:39:28Z</time>
      </trkpt>
      <trkpt lat="45.76796" lon="5.1935">
        <ele>198.3</ele>
        <time>2022-09-24T12:39:29Z</time>
      </trkpt>
      <trkpt lat="45.76798" lon="5.19353">
        <ele>198.4</ele>
        <time>2022-09-24T12:39:30Z</time>
      </trkpt>
      <trkpt lat="45.768" lon="5.19357">
        <ele>198.4</ele>
        <time>2022-09-24T12:39:31Z</time>
      </trkpt>
      <trkpt lat="45.76801" lon="5.19358">
        <ele>198.4</ele>
        <time>2022-09-24T12:39:32Z</time>
      </trkpt>
      <trkpt lat="45.76803" lon="5.19361">
        <ele>198.5</ele>
        <time>2022-09-24T12:39:33Z</time>
      </trkpt>
      <trkpt lat="45.76803" lon="5.19363">
        <ele>198.5</ele>
        <time>2022-09-24T12:39:34Z</time>
      </trkpt>
      <trkpt lat="45.76805" lon="5.19365">
        <ele>198.6</ele>
        <time>2022-09-24T12:39:35Z</time>
      </trkpt>
      <trkpt lat="45.76806" lon="5.19366">
        <ele>198.6</ele>
        <time>2022-09-24T12:39:36Z</time>
      </trkpt>
      <trkpt lat="45.76807" lon="5.19367">
        <ele>198.6</ele>
        <time>2022-09-24T12:39:37Z</time>
      </trkpt>
      <trkpt lat="45.76807" lon="5.19368">
        <ele>198.6</ele>
        <time>2022-09-24T12:39:38Z</time>
      </trkpt>
      <trkpt lat="45.76808" lon="5.19369">
        <ele>198.6</ele>
        <time>2022-09-24T12:39:39Z</time>
      </trkpt>
      <trkpt lat="45.76809" lon="5.1937">
        <ele>198.6</ele>
        <time>2022-09-24T12:39:40Z</time>
      </trkpt>
      <trkpt lat="45.76809" lon="5.1937">
        <ele>198.6</ele>
        <time>2022-09-24T12:39:41Z</time>
      </trkpt>
      <trkpt lat="45.7681" lon="5.19371">
        <ele>198.6</ele>
        <time>2022-09-24T12:39:42Z</time>
      </trkpt>
      <trkpt lat="45.7681" lon="5.19372">
        <ele>198.6</ele>
        <time>2022-09-24T12:39:43Z</time>
      </trkpt>
      <trkpt lat="45.76811" lon="5.19373">
        <ele>198.6</ele>
        <time>2022-09-24T12:39:44Z</time>
      </trkpt>
      <trkpt lat="45.76812" lon="5.19373">
        <ele>198.6</ele>
        <time>2022-09-24T12:39:45Z</time>
      </trkpt>
      <trkpt lat="45.76812" lon="5.19374">
        <ele>198.6</ele>
        <time>2022-09-24T12:39:52Z</time>
      </trkpt>
      <trkpt lat="45.76813" lon="5.19375">
        <ele>198.6</ele>
        <time>2022-09-24T12:39:53Z</time>
      </trkpt>
      <trkpt lat="45.76813" lon="5.19376">
        <ele>198.6</ele>
        <time>2022-09-24T12:39:54Z</time>
      </trkpt>
      <trkpt lat="45.76815" lon="5.19379">
        <ele>198.6</ele>
        <time>2022-09-24T12:39:55Z</time>
      </trkpt>
      <trkpt lat="45.76817" lon="5.19383">
        <ele>198.5</ele>
        <time>2022-09-24T12:39:56Z</time>
      </trkpt>
      <trkpt lat="45.7682" lon="5.19387">
        <ele>198.5</ele>
        <time>2022-09-24T12:39:57Z</time>
      </trkpt>
      <trkpt lat="45.76821" lon="5.19388">
        <ele>198.5</ele>
        <time>2022-09-24T12:39:58Z</time>
      </trkpt>
      <trkpt lat="45.76823" lon="5.19391">
        <ele>198.5</ele>
        <time>2022-09-24T12:39:59Z</time>
      </trkpt>
      <trkpt lat="45.76826" lon="5.19396">
        <ele>198.6</ele>
        <time>2022-09-24T12:40:00Z</time>
      </trkpt>
      <trkpt lat="45.76828" lon="5.19399">
        <ele>198.6</ele>
        <time>2022-09-24T12:40:01Z</time>
      </trkpt>
      <trkpt lat="45.7683" lon="5.19404">
        <ele>198.6</ele>
        <time>2022-09-24T12:40:02Z</time>
      </trkpt>
      <trkpt lat="45.76833" lon="5.19407">
        <ele>198.7</ele>
        <time>2022-09-24T12:40:03Z</time>
      </trkpt>
      <trkpt lat="45.76835" lon="5.19411">
        <ele>198.7</ele>
        <time>2022-09-24T12:40:04Z</time>
      </trkpt>
      <trkpt lat="45.76838" lon="5.19416">
        <ele>198.8</ele>
        <time>2022-09-24T12:40:05Z</time>
      </trkpt>
      <trkpt lat="45.76839" lon="5.19417">
        <ele>198.8</ele>
        <time>2022-09-24T12:40:06Z</time>
      </trkpt>
      <trkpt lat="45.76842" lon="5.19422">
        <ele>198.9</ele>
        <time>2022-09-24T12:40:07Z</time>
      </trkpt>
      <trkpt lat="45.76846" lon="5.19426">
        <ele>199</ele>
        <time>2022-09-24T12:40:08Z</time>
      </trkpt>
      <trkpt lat="45.76848" lon="5.19431">
        <ele>199</ele>
        <time>2022-09-24T12:40:09Z</time>
      </trkpt>
      <trkpt lat="45.76852" lon="5.19434">
        <ele>199.1</ele>
        <time>2022-09-24T12:40:10Z</time>
      </trkpt>
      <trkpt lat="45.76855" lon="5.19439">
        <ele>199.2</ele>
        <time>2022-09-24T12:40:11Z</time>
      </trkpt>
      <trkpt lat="45.76856" lon="5.19442">
        <ele>199.3</ele>
        <time>2022-09-24T12:40:12Z</time>
      </trkpt>
      <trkpt lat="45.76859" lon="5.19447">
        <ele>199.4</ele>
        <time>2022-09-24T12:40:13Z</time>
      </trkpt>
      <trkpt lat="45.76859" lon="5.19448">
        <ele>199.4</ele>
        <time>2022-09-24T12:40:14Z</time>
      </trkpt>
      <trkpt lat="45.76861" lon="5.19452">
        <ele>199.5</ele>
        <time>2022-09-24T12:40:15Z</time>
      </trkpt>
      <trkpt lat="45.76862" lon="5.19453">
        <ele>199.6</ele>
        <time>2022-09-24T12:40:16Z</time>
      </trkpt>
      <trkpt lat="45.76861" lon="5.19457">
        <ele>199.6</ele>
        <time>2022-09-24T12:40:17Z</time>
      </trkpt>
      <trkpt lat="45.7686" lon="5.19459">
        <ele>199.6</ele>
        <time>2022-09-24T12:40:18Z</time>
      </trkpt>
      <trkpt lat="45.76858" lon="5.19463">
        <ele>199.7</ele>
        <time>2022-09-24T12:40:19Z</time>
      </trkpt>
      <trkpt lat="45.76856" lon="5.19465">
        <ele>199.7</ele>
        <time>2022-09-24T12:40:20Z</time>
      </trkpt>
      <trkpt lat="45.76853" lon="5.1947">
        <ele>199.7</ele>
        <time>2022-09-24T12:40:21Z</time>
      </trkpt>
      <trkpt lat="45.76851" lon="5.19474">
        <ele>199.7</ele>
        <time>2022-09-24T12:40:22Z</time>
      </trkpt>
      <trkpt lat="45.76848" lon="5.19478">
        <ele>199.7</ele>
        <time>2022-09-24T12:40:23Z</time>
      </trkpt>
      <trkpt lat="45.76845" lon="5.19482">
        <ele>199.8</ele>
        <time>2022-09-24T12:40:24Z</time>
      </trkpt>
      <trkpt lat="45.76842" lon="5.19487">
        <ele>199.8</ele>
        <time>2022-09-24T12:40:25Z</time>
      </trkpt>
      <trkpt lat="45.76839" lon="5.19492">
        <ele>199.8</ele>
        <time>2022-09-24T12:40:26Z</time>
      </trkpt>
      <trkpt lat="45.76836" lon="5.19496">
        <ele>199.8</ele>
        <time>2022-09-24T12:40:27Z</time>
      </trkpt>
      <trkpt lat="45.76833" lon="5.19501">
        <ele>199.8</ele>
        <time>2022-09-24T12:40:28Z</time>
      </trkpt>
      <trkpt lat="45.7683" lon="5.19505">
        <ele>199.8</ele>
        <time>2022-09-24T12:40:29Z</time>
      </trkpt>
      <trkpt lat="45.76827" lon="5.19509">
        <ele>199.8</ele>
        <time>2022-09-24T12:40:30Z</time>
      </trkpt>
      <trkpt lat="45.76824" lon="5.19514">
        <ele>199.8</ele>
        <time>2022-09-24T12:40:31Z</time>
      </trkpt>
      <trkpt lat="45.7682" lon="5.1952">
        <ele>199.8</ele>
        <time>2022-09-24T12:40:32Z</time>
      </trkpt>
      <trkpt lat="45.76817" lon="5.19524">
        <ele>199.8</ele>
        <time>2022-09-24T12:40:33Z</time>
      </trkpt>
      <trkpt lat="45.76813" lon="5.1953">
        <ele>199.9</ele>
        <time>2022-09-24T12:40:34Z</time>
      </trkpt>
      <trkpt lat="45.7681" lon="5.19534">
        <ele>199.9</ele>
        <time>2022-09-24T12:40:35Z</time>
      </trkpt>
      <trkpt lat="45.76807" lon="5.19539">
        <ele>199.9</ele>
        <time>2022-09-24T12:40:36Z</time>
      </trkpt>
      <trkpt lat="45.76804" lon="5.19544">
        <ele>199.9</ele>
        <time>2022-09-24T12:40:37Z</time>
      </trkpt>
      <trkpt lat="45.76801" lon="5.19549">
        <ele>199.9</ele>
        <time>2022-09-24T12:40:38Z</time>
      </trkpt>
      <trkpt lat="45.76797" lon="5.19551">
        <ele>199.9</ele>
        <time>2022-09-24T12:40:39Z</time>
      </trkpt>
      <trkpt lat="45.76795" lon="5.19554">
        <ele>199.9</ele>
        <time>2022-09-24T12:40:40Z</time>
      </trkpt>
      <trkpt lat="45.76793" lon="5.19556">
        <ele>199.9</ele>
        <time>2022-09-24T12:40:41Z</time>
      </trkpt>
      <trkpt lat="45.76792" lon="5.19558">
        <ele>199.9</ele>
        <time>2022-09-24T12:40:42Z</time>
      </trkpt>
      <trkpt lat="45.76789" lon="5.19561">
        <ele>199.8</ele>
        <time>2022-09-24T12:40:43Z</time>
      </trkpt>
      <trkpt lat="45.76788" lon="5.19563">
        <ele>199.8</ele>
        <time>2022-09-24T12:40:44Z</time>
      </trkpt>
      <trkpt lat="45.76789" lon="5.19569">
        <ele>199.8</ele>
        <time>2022-09-24T12:40:45Z</time>
      </trkpt>
      <trkpt lat="45.7679" lon="5.19571">
        <ele>199.8</ele>
        <time>2022-09-24T12:40:46Z</time>
      </trkpt>
      <trkpt lat="45.7679" lon="5.19575">
        <ele>199.8</ele>
        <time>2022-09-24T12:40:47Z</time>
      </trkpt>
      <trkpt lat="45.76792" lon="5.1958">
        <ele>199.7</ele>
        <time>2022-09-24T12:40:48Z</time>
      </trkpt>
      <trkpt lat="45.76794" lon="5.19586">
        <ele>199.7</ele>
        <time>2022-09-24T12:40:49Z</time>
      </trkpt>
      <trkpt lat="45.76795" lon="5.19591">
        <ele>199.7</ele>
        <time>2022-09-24T12:40:50Z</time>
      </trkpt>
      <trkpt lat="45.76796" lon="5.19597">
        <ele>199.7</ele>
        <time>2022-09-24T12:40:51Z</time>
      </trkpt>
      <trkpt lat="45.76796" lon="5.19602">
        <ele>199.7</ele>
        <time>2022-09-24T12:40:52Z</time>
      </trkpt>
      <trkpt lat="45.76797" lon="5.19607">
        <ele>199.7</ele>
        <time>2022-09-24T12:40:53Z</time>
      </trkpt>
      <trkpt lat="45.76798" lon="5.19613">
        <ele>199.7</ele>
        <time>2022-09-24T12:40:54Z</time>
      </trkpt>
      <trkpt lat="45.76799" lon="5.19619">
        <ele>199.7</ele>
        <time>2022-09-24T12:40:55Z</time>
      </trkpt>
      <trkpt lat="45.768" lon="5.19625">
        <ele>199.6</ele>
        <time>2022-09-24T12:40:56Z</time>
      </trkpt>
      <trkpt lat="45.768" lon="5.19631">
        <ele>199.6</ele>
        <time>2022-09-24T12:40:57Z</time>
      </trkpt>
      <trkpt lat="45.76798" lon="5.19637">
        <ele>199.5</ele>
        <time>2022-09-24T12:40:58Z</time>
      </trkpt>
      <trkpt lat="45.76798" lon="5.19645">
        <ele>199.5</ele>
        <time>2022-09-24T12:40:59Z</time>
      </trkpt>
      <trkpt lat="45.76799" lon="5.19652">
        <ele>199.4</ele>
        <time>2022-09-24T12:41:00Z</time>
      </trkpt>
      <trkpt lat="45.76797" lon="5.19659">
        <ele>199.3</ele>
        <time>2022-09-24T12:41:01Z</time>
      </trkpt>
      <trkpt lat="45.76797" lon="5.19667">
        <ele>199.3</ele>
        <time>2022-09-24T12:41:02Z</time>
      </trkpt>
      <trkpt lat="45.76796" lon="5.19675">
        <ele>199.2</ele>
        <time>2022-09-24T12:41:03Z</time>
      </trkpt>
      <trkpt lat="45.76795" lon="5.19681">
        <ele>199.2</ele>
        <time>2022-09-24T12:41:04Z</time>
      </trkpt>
      <trkpt lat="45.76793" lon="5.19689">
        <ele>199.1</ele>
        <time>2022-09-24T12:41:05Z</time>
      </trkpt>
      <trkpt lat="45.76793" lon="5.19695">
        <ele>199.1</ele>
        <time>2022-09-24T12:41:06Z</time>
      </trkpt>
      <trkpt lat="45.76792" lon="5.19703">
        <ele>199</ele>
        <time>2022-09-24T12:41:07Z</time>
      </trkpt>
      <trkpt lat="45.76791" lon="5.19709">
        <ele>199</ele>
        <time>2022-09-24T12:41:08Z</time>
      </trkpt>
      <trkpt lat="45.7679" lon="5.19716">
        <ele>199</ele>
        <time>2022-09-24T12:41:09Z</time>
      </trkpt>
      <trkpt lat="45.76789" lon="5.19722">
        <ele>198.9</ele>
        <time>2022-09-24T12:41:10Z</time>
      </trkpt>
      <trkpt lat="45.76788" lon="5.19727">
        <ele>198.9</ele>
        <time>2022-09-24T12:41:11Z</time>
      </trkpt>
      <trkpt lat="45.76787" lon="5.19731">
        <ele>198.9</ele>
        <time>2022-09-24T12:41:12Z</time>
      </trkpt>
      <trkpt lat="45.76785" lon="5.19735">
        <ele>198.9</ele>
        <time>2022-09-24T12:41:13Z</time>
      </trkpt>
      <trkpt lat="45.76784" lon="5.19739">
        <ele>198.8</ele>
        <time>2022-09-24T12:41:14Z</time>
      </trkpt>
      <trkpt lat="45.76781" lon="5.19741">
        <ele>198.8</ele>
        <time>2022-09-24T12:41:15Z</time>
      </trkpt>
      <trkpt lat="45.76778" lon="5.19742">
        <ele>198.8</ele>
        <time>2022-09-24T12:41:16Z</time>
      </trkpt>
      <trkpt lat="45.76777" lon="5.19743">
        <ele>198.8</ele>
        <time>2022-09-24T12:41:17Z</time>
      </trkpt>
      <trkpt lat="45.76776" lon="5.19744">
        <ele>198.8</ele>
        <time>2022-09-24T12:41:18Z</time>
      </trkpt>
      <trkpt lat="45.76776" lon="5.19744">
        <ele>198.8</ele>
        <time>2022-09-24T12:41:19Z</time>
      </trkpt>
      <trkpt lat="45.76776" lon="5.19744">
        <ele>198.8</ele>
        <time>2022-09-24T12:41:20Z</time>
      </trkpt>
      <trkpt lat="45.76776" lon="5.19745">
        <ele>198.8</ele>
        <time>2022-09-24T12:41:21Z</time>
      </trkpt>
      <trkpt lat="45.76776" lon="5.19745">
        <ele>198.8</ele>
        <time>2022-09-24T12:41:22Z</time>
      </trkpt>
      <trkpt lat="45.76775" lon="5.19745">
        <ele>198.8</ele>
        <time>2022-09-24T12:41:23Z</time>
      </trkpt>
      <trkpt lat="45.76775" lon="5.19746">
        <ele>198.8</ele>
        <time>2022-09-24T12:41:24Z</time>
      </trkpt>
      <trkpt lat="45.76775" lon="5.19746">
        <ele>198.8</ele>
        <time>2022-09-24T12:41:25Z</time>
      </trkpt>
      <trkpt lat="45.76775" lon="5.19747">
        <ele>198.8</ele>
        <time>2022-09-24T12:41:26Z</time>
      </trkpt>
      <trkpt lat="45.76775" lon="5.19747">
        <ele>198.8</ele>
        <time>2022-09-24T12:41:27Z</time>
      </trkpt>
      <trkpt lat="45.76774" lon="5.19747">
        <ele>198.8</ele>
        <time>2022-09-24T12:41:28Z</time>
      </trkpt>
      <trkpt lat="45.76774" lon="5.19748">
        <ele>198.8</ele>
        <time>2022-09-24T12:41:29Z</time>
      </trkpt>
      <trkpt lat="45.76774" lon="5.19748">
        <ele>198.8</ele>
        <time>2022-09-24T12:41:30Z</time>
      </trkpt>
      <trkpt lat="45.76774" lon="5.19748">
        <ele>198.8</ele>
        <time>2022-09-24T12:41:31Z</time>
      </trkpt>
      <trkpt lat="45.76774" lon="5.19749">
        <ele>198.7</ele>
        <time>2022-09-24T12:41:32Z</time>
      </trkpt>
      <trkpt lat="45.76773" lon="5.19749">
        <ele>198.7</ele>
        <time>2022-09-24T12:41:41Z</time>
      </trkpt>
      <trkpt lat="45.76773" lon="5.1975">
        <ele>198.7</ele>
        <time>2022-09-24T12:41:42Z</time>
      </trkpt>
      <trkpt lat="45.76773" lon="5.1975">
        <ele>198.7</ele>
        <time>2022-09-24T12:41:43Z</time>
      </trkpt>
      <trkpt lat="45.76773" lon="5.1975">
        <ele>198.7</ele>
        <time>2022-09-24T12:41:44Z</time>
      </trkpt>
      <trkpt lat="45.76773" lon="5.19751">
        <ele>198.7</ele>
        <time>2022-09-24T12:41:45Z</time>
      </trkpt>
      <trkpt lat="45.76773" lon="5.19751">
        <ele>198.7</ele>
        <time>2022-09-24T12:41:46Z</time>
      </trkpt>
      <trkpt lat="45.76772" lon="5.19751">
        <ele>198.7</ele>
        <time>2022-09-24T12:41:47Z</time>
      </trkpt>
      <trkpt lat="45.76772" lon="5.19752">
        <ele>198.7</ele>
        <time>2022-09-24T12:41:48Z</time>
      </trkpt>
      <trkpt lat="45.76772" lon="5.19752">
        <ele>198.7</ele>
        <time>2022-09-24T12:41:49Z</time>
      </trkpt>
      <trkpt lat="45.76772" lon="5.19753">
        <ele>198.7</ele>
        <time>2022-09-24T12:41:50Z</time>
      </trkpt>
      <trkpt lat="45.76772" lon="5.19753">
        <ele>198.7</ele>
        <time>2022-09-24T12:41:51Z</time>
      </trkpt>
      <trkpt lat="45.76771" lon="5.19753">
        <ele>198.7</ele>
        <time>2022-09-24T12:41:55Z</time>
      </trkpt>
      <trkpt lat="45.76771" lon="5.19754">
        <ele>198.7</ele>
        <time>2022-09-24T12:41:56Z</time>
      </trkpt>
      <trkpt lat="45.76771" lon="5.19754">
        <ele>198.7</ele>
        <time>2022-09-24T12:41:57Z</time>
      </trkpt>
      <trkpt lat="45.76771" lon="5.19759">
        <ele>198.7</ele>
        <time>2022-09-24T12:41:58Z</time>
      </trkpt>
      <trkpt lat="45.76772" lon="5.19764">
        <ele>198.6</ele>
        <time>2022-09-24T12:41:59Z</time>
      </trkpt>
      <trkpt lat="45.76774" lon="5.19768">
        <ele>198.5</ele>
        <time>2022-09-24T12:42:00Z</time>
      </trkpt>
      <trkpt lat="45.76776" lon="5.19773">
        <ele>198.5</ele>
        <time>2022-09-24T12:42:01Z</time>
      </trkpt>
      <trkpt lat="45.76779" lon="5.19776">
        <ele>198.4</ele>
        <time>2022-09-24T12:42:02Z</time>
      </trkpt>
      <trkpt lat="45.76783" lon="5.1978">
        <ele>198.3</ele>
        <time>2022-09-24T12:42:03Z</time>
      </trkpt>
      <trkpt lat="45.76785" lon="5.19784">
        <ele>198.3</ele>
        <time>2022-09-24T12:42:04Z</time>
      </trkpt>
      <trkpt lat="45.7679" lon="5.19788">
        <ele>198.2</ele>
        <time>2022-09-24T12:42:05Z</time>
      </trkpt>
      <trkpt lat="45.76794" lon="5.19793">
        <ele>198.1</ele>
        <time>2022-09-24T12:42:06Z</time>
      </trkpt>
      <trkpt lat="45.76797" lon="5.19798">
        <ele>198</ele>
        <time>2022-09-24T12:42:07Z</time>
      </trkpt>
      <trkpt lat="45.76801" lon="5.19803">
        <ele>198</ele>
        <time>2022-09-24T12:42:08Z</time>
      </trkpt>
      <trkpt lat="45.76805" lon="5.19807">
        <ele>197.9</ele>
        <time>2022-09-24T12:42:09Z</time>
      </trkpt>
      <trkpt lat="45.76809" lon="5.19811">
        <ele>197.8</ele>
        <time>2022-09-24T12:42:10Z</time>
      </trkpt>
      <trkpt lat="45.76813" lon="5.19816">
        <ele>197.7</ele>
        <time>2022-09-24T12:42:11Z</time>
      </trkpt>
      <trkpt lat="45.76817" lon="5.19821">
        <ele>197.6</ele>
        <time>2022-09-24T12:42:12Z</time>
      </trkpt>
      <trkpt lat="45.7682" lon="5.19825">
        <ele>197.6</ele>
        <time>2022-09-24T12:42:13Z</time>
      </trkpt>
      <trkpt lat="45.76825" lon="5.19831">
        <ele>197.5</ele>
        <time>2022-09-24T12:42:14Z</time>
      </trkpt>
      <trkpt lat="45.76829" lon="5.19835">
        <ele>197.4</ele>
        <time>2022-09-24T12:42:15Z</time>
      </trkpt>
      <trkpt lat="45.76833" lon="5.1984">
        <ele>197.3</ele>
        <time>2022-09-24T12:42:16Z</time>
      </trkpt>
      <trkpt lat="45.76838" lon="5.19845">
        <ele>197.2</ele>
        <time>2022-09-24T12:42:17Z</time>
      </trkpt>
      <trkpt lat="45.76842" lon="5.19851">
        <ele>197.1</ele>
        <time>2022-09-24T12:42:18Z</time>
      </trkpt>
      <trkpt lat="45.76847" lon="5.19858">
        <ele>197</ele>
        <time>2022-09-24T12:42:19Z</time>
      </trkpt>
      <trkpt lat="45.76851" lon="5.19864">
        <ele>196.9</ele>
        <time>2022-09-24T12:42:20Z</time>
      </trkpt>
      <trkpt lat="45.76857" lon="5.19869">
        <ele>196.9</ele>
        <time>2022-09-24T12:42:21Z</time>
      </trkpt>
      <trkpt lat="45.76861" lon="5.19875">
        <ele>196.8</ele>
        <time>2022-09-24T12:42:22Z</time>
      </trkpt>
      <trkpt lat="45.76866" lon="5.19882">
        <ele>196.7</ele>
        <time>2022-09-24T12:42:23Z</time>
      </trkpt>
      <trkpt lat="45.7687" lon="5.19888">
        <ele>196.6</ele>
        <time>2022-09-24T12:42:24Z</time>
      </trkpt>
      <trkpt lat="45.76875" lon="5.19893">
        <ele>196.5</ele>
        <time>2022-09-24T12:42:25Z</time>
      </trkpt>
      <trkpt lat="45.76879" lon="5.199">
        <ele>196.5</ele>
        <time>2022-09-24T12:42:26Z</time>
      </trkpt>
      <trkpt lat="45.76882" lon="5.19907">
        <ele>196.4</ele>
        <time>2022-09-24T12:42:27Z</time>
      </trkpt>
      <trkpt lat="45.76886" lon="5.19914">
        <ele>196.4</ele>
        <time>2022-09-24T12:42:28Z</time>
      </trkpt>
      <trkpt lat="45.7689" lon="5.19921">
        <ele>196.3</ele>
        <time>2022-09-24T12:42:29Z</time>
      </trkpt>
      <trkpt lat="45.76894" lon="5.19928">
        <ele>196.3</ele>
        <time>2022-09-24T12:42:30Z</time>
      </trkpt>
      <trkpt lat="45.76898" lon="5.19933">
        <ele>196.3</ele>
        <time>2022-09-24T12:42:31Z</time>
      </trkpt>
      <trkpt lat="45.76901" lon="5.1994">
        <ele>196.2</ele>
        <time>2022-09-24T12:42:32Z</time>
      </trkpt>
      <trkpt lat="45.76904" lon="5.19946">
        <ele>196.2</ele>
        <time>2022-09-24T12:42:33Z</time>
      </trkpt>
      <trkpt lat="45.76907" lon="5.19953">
        <ele>196.2</ele>
        <time>2022-09-24T12:42:34Z</time>
      </trkpt>
      <trkpt lat="45.7691" lon="5.1996">
        <ele>196.2</ele>
        <time>2022-09-24T12:42:35Z</time>
      </trkpt>
      <trkpt lat="45.76913" lon="5.19967">
        <ele>196.2</ele>
        <time>2022-09-24T12:42:36Z</time>
      </trkpt>
      <trkpt lat="45.76917" lon="5.19975">
        <ele>196.3</ele>
        <time>2022-09-24T12:42:37Z</time>
      </trkpt>
      <trkpt lat="45.7692" lon="5.19982">
        <ele>196.3</ele>
        <time>2022-09-24T12:42:38Z</time>
      </trkpt>
      <trkpt lat="45.76922" lon="5.19992">
        <ele>196.3</ele>
        <time>2022-09-24T12:42:39Z</time>
      </trkpt>
      <trkpt lat="45.76924" lon="5.2">
        <ele>196.4</ele>
        <time>2022-09-24T12:42:40Z</time>
      </trkpt>
      <trkpt lat="45.76925" lon="5.20009">
        <ele>196.4</ele>
        <time>2022-09-24T12:42:41Z</time>
      </trkpt>
      <trkpt lat="45.76926" lon="5.20017">
        <ele>196.4</ele>
        <time>2022-09-24T12:42:42Z</time>
      </trkpt>
      <trkpt lat="45.76927" lon="5.20026">
        <ele>196.5</ele>
        <time>2022-09-24T12:42:43Z</time>
      </trkpt>
      <trkpt lat="45.76928" lon="5.20035">
        <ele>196.6</ele>
        <time>2022-09-24T12:42:44Z</time>
      </trkpt>
      <trkpt lat="45.76928" lon="5.20042">
        <ele>196.7</ele>
        <time>2022-09-24T12:42:45Z</time>
      </trkpt>
      <trkpt lat="45.76926" lon="5.2005">
        <ele>196.7</ele>
        <time>2022-09-24T12:42:46Z</time>
      </trkpt>
      <trkpt lat="45.76927" lon="5.20057">
        <ele>196.8</ele>
        <time>2022-09-24T12:42:47Z</time>
      </trkpt>
      <trkpt lat="45.76925" lon="5.20066">
        <ele>196.9</ele>
        <time>2022-09-24T12:42:48Z</time>
      </trkpt>
      <trkpt lat="45.76925" lon="5.20074">
        <ele>197</ele>
        <time>2022-09-24T12:42:49Z</time>
      </trkpt>
      <trkpt lat="45.76924" lon="5.20081">
        <ele>197</ele>
        <time>2022-09-24T12:42:50Z</time>
      </trkpt>
      <trkpt lat="45.76924" lon="5.20089">
        <ele>197.1</ele>
        <time>2022-09-24T12:42:51Z</time>
      </trkpt>
      <trkpt lat="45.76923" lon="5.20097">
        <ele>197.2</ele>
        <time>2022-09-24T12:42:52Z</time>
      </trkpt>
      <trkpt lat="45.76922" lon="5.20104">
        <ele>197.2</ele>
        <time>2022-09-24T12:42:53Z</time>
      </trkpt>
      <trkpt lat="45.76922" lon="5.20113">
        <ele>197.3</ele>
        <time>2022-09-24T12:42:54Z</time>
      </trkpt>
      <trkpt lat="45.76922" lon="5.2012">
        <ele>197.3</ele>
        <time>2022-09-24T12:42:55Z</time>
      </trkpt>
      <trkpt lat="45.76921" lon="5.20128">
        <ele>197.4</ele>
        <time>2022-09-24T12:42:56Z</time>
      </trkpt>
      <trkpt lat="45.76922" lon="5.20135">
        <ele>197.5</ele>
        <time>2022-09-24T12:42:57Z</time>
      </trkpt>
      <trkpt lat="45.7692" lon="5.20141">
        <ele>197.6</ele>
        <time>2022-09-24T12:42:58Z</time>
      </trkpt>
      <trkpt lat="45.76919" lon="5.20149">
        <ele>197.7</ele>
        <time>2022-09-24T12:42:59Z</time>
      </trkpt>
      <trkpt lat="45.76918" lon="5.20158">
        <ele>197.7</ele>
        <time>2022-09-24T12:43:00Z</time>
      </trkpt>
      <trkpt lat="45.76918" lon="5.20166">
        <ele>197.8</ele>
        <time>2022-09-24T12:43:01Z</time>
      </trkpt>
      <trkpt lat="45.76917" lon="5.20174">
        <ele>197.9</ele>
        <time>2022-09-24T12:43:02Z</time>
      </trkpt>
      <trkpt lat="45.76916" lon="5.20182">
        <ele>198</ele>
        <time>2022-09-24T12:43:03Z</time>
      </trkpt>
      <trkpt lat="45.76916" lon="5.2019">
        <ele>198</ele>
        <time>2022-09-24T12:43:04Z</time>
      </trkpt>
      <trkpt lat="45.76915" lon="5.20198">
        <ele>198.1</ele>
        <time>2022-09-24T12:43:05Z</time>
      </trkpt>
      <trkpt lat="45.76915" lon="5.20207">
        <ele>198.2</ele>
        <time>2022-09-24T12:43:06Z</time>
      </trkpt>
      <trkpt lat="45.76913" lon="5.20215">
        <ele>198.2</ele>
        <time>2022-09-24T12:43:07Z</time>
      </trkpt>
      <trkpt lat="45.76913" lon="5.20223">
        <ele>198.3</ele>
        <time>2022-09-24T12:43:08Z</time>
      </trkpt>
      <trkpt lat="45.76912" lon="5.20231">
        <ele>198.4</ele>
        <time>2022-09-24T12:43:09Z</time>
      </trkpt>
      <trkpt lat="45.76912" lon="5.20238">
        <ele>198.4</ele>
        <time>2022-09-24T12:43:10Z</time>
      </trkpt>
      <trkpt lat="45.76911" lon="5.20247">
        <ele>198.5</ele>
        <time>2022-09-24T12:43:11Z</time>
      </trkpt>
      <trkpt lat="45.7691" lon="5.20255">
        <ele>198.5</ele>
        <time>2022-09-24T12:43:12Z</time>
      </trkpt>
      <trkpt lat="45.7691" lon="5.20262">
        <ele>198.5</ele>
        <time>2022-09-24T12:43:13Z</time>
      </trkpt>
      <trkpt lat="45.76909" lon="5.20271">
        <ele>198.6</ele>
        <time>2022-09-24T12:43:14Z</time>
      </trkpt>
      <trkpt lat="45.76908" lon="5.20279">
        <ele>198.6</ele>
        <time>2022-09-24T12:43:15Z</time>
      </trkpt>
      <trkpt lat="45.76907" lon="5.20286">
        <ele>198.6</ele>
        <time>2022-09-24T12:43:16Z</time>
      </trkpt>
      <trkpt lat="45.76907" lon="5.20295">
        <ele>198.6</ele>
        <time>2022-09-24T12:43:17Z</time>
      </trkpt>
      <trkpt lat="45.76906" lon="5.20303">
        <ele>198.6</ele>
        <time>2022-09-24T12:43:18Z</time>
      </trkpt>
      <trkpt lat="45.76906" lon="5.20312">
        <ele>198.6</ele>
        <time>2022-09-24T12:43:19Z</time>
      </trkpt>
      <trkpt lat="45.76905" lon="5.2032">
        <ele>198.6</ele>
        <time>2022-09-24T12:43:20Z</time>
      </trkpt>
      <trkpt lat="45.76904" lon="5.20328">
        <ele>198.6</ele>
        <time>2022-09-24T12:43:21Z</time>
      </trkpt>
      <trkpt lat="45.76904" lon="5.20335">
        <ele>198.5</ele>
        <time>2022-09-24T12:43:22Z</time>
      </trkpt>
      <trkpt lat="45.76903" lon="5.20343">
        <ele>198.4</ele>
        <time>2022-09-24T12:43:23Z</time>
      </trkpt>
      <trkpt lat="45.76903" lon="5.20351">
        <ele>198.3</ele>
        <time>2022-09-24T12:43:24Z</time>
      </trkpt>
      <trkpt lat="45.76903" lon="5.20359">
        <ele>198.2</ele>
        <time>2022-09-24T12:43:25Z</time>
      </trkpt>
      <trkpt lat="45.76902" lon="5.20368">
        <ele>198.1</ele>
        <time>2022-09-24T12:43:26Z</time>
      </trkpt>
      <trkpt lat="45.76902" lon="5.20376">
        <ele>198</ele>
        <time>2022-09-24T12:43:27Z</time>
      </trkpt>
      <trkpt lat="45.76902" lon="5.20385">
        <ele>197.9</ele>
        <time>2022-09-24T12:43:28Z</time>
      </trkpt>
      <trkpt lat="45.76901" lon="5.20394">
        <ele>197.8</ele>
        <time>2022-09-24T12:43:29Z</time>
      </trkpt>
      <trkpt lat="45.76901" lon="5.20403">
        <ele>197.6</ele>
        <time>2022-09-24T12:43:30Z</time>
      </trkpt>
      <trkpt lat="45.769" lon="5.20412">
        <ele>197.5</ele>
        <time>2022-09-24T12:43:31Z</time>
      </trkpt>
      <trkpt lat="45.76899" lon="5.2042">
        <ele>197.4</ele>
        <time>2022-09-24T12:43:32Z</time>
      </trkpt>
      <trkpt lat="45.76898" lon="5.20429">
        <ele>197.3</ele>
        <time>2022-09-24T12:43:33Z</time>
      </trkpt>
      <trkpt lat="45.76897" lon="5.20438">
        <ele>197.1</ele>
        <time>2022-09-24T12:43:34Z</time>
      </trkpt>
      <trkpt lat="45.76895" lon="5.20447">
        <ele>197</ele>
        <time>2022-09-24T12:43:35Z</time>
      </trkpt>
      <trkpt lat="45.76893" lon="5.20455">
        <ele>196.8</ele>
        <time>2022-09-24T12:43:36Z</time>
      </trkpt>
      <trkpt lat="45.7689" lon="5.20463">
        <ele>196.6</ele>
        <time>2022-09-24T12:43:37Z</time>
      </trkpt>
      <trkpt lat="45.76888" lon="5.2047">
        <ele>196.5</ele>
        <time>2022-09-24T12:43:38Z</time>
      </trkpt>
      <trkpt lat="45.76886" lon="5.20478">
        <ele>196.3</ele>
        <time>2022-09-24T12:43:39Z</time>
      </trkpt>
      <trkpt lat="45.76884" lon="5.20485">
        <ele>196.2</ele>
        <time>2022-09-24T12:43:40Z</time>
      </trkpt>
      <trkpt lat="45.76884" lon="5.20492">
        <ele>196.1</ele>
        <time>2022-09-24T12:43:41Z</time>
      </trkpt>
      <trkpt lat="45.76885" lon="5.20499">
        <ele>195.9</ele>
        <time>2022-09-24T12:43:42Z</time>
      </trkpt>
      <trkpt lat="45.76884" lon="5.20505">
        <ele>195.9</ele>
        <time>2022-09-24T12:43:43Z</time>
      </trkpt>
      <trkpt lat="45.76883" lon="5.20509">
        <ele>195.8</ele>
        <time>2022-09-24T12:43:44Z</time>
      </trkpt>
      <trkpt lat="45.76882" lon="5.20514">
        <ele>195.7</ele>
        <time>2022-09-24T12:43:45Z</time>
      </trkpt>
      <trkpt lat="45.76882" lon="5.20515">
        <ele>195.7</ele>
        <time>2022-09-24T12:43:46Z</time>
      </trkpt>
      <trkpt lat="45.76881" lon="5.20517">
        <ele>195.6</ele>
        <time>2022-09-24T12:43:47Z</time>
      </trkpt>
      <trkpt lat="45.7688" lon="5.20519">
        <ele>195.6</ele>
        <time>2022-09-24T12:43:48Z</time>
      </trkpt>
      <trkpt lat="45.76877" lon="5.20522">
        <ele>195.5</ele>
        <time>2022-09-24T12:43:49Z</time>
      </trkpt>
      <trkpt lat="45.76876" lon="5.20523">
        <ele>195.5</ele>
        <time>2022-09-24T12:43:50Z</time>
      </trkpt>
      <trkpt lat="45.76873" lon="5.20524">
        <ele>195.5</ele>
        <time>2022-09-24T12:43:51Z</time>
      </trkpt>
      <trkpt lat="45.7687" lon="5.20525">
        <ele>195.5</ele>
        <time>2022-09-24T12:43:52Z</time>
      </trkpt>
      <trkpt lat="45.76867" lon="5.20528">
        <ele>195.6</ele>
        <time>2022-09-24T12:43:53Z</time>
      </trkpt>
      <trkpt lat="45.76864" lon="5.20532">
        <ele>195.7</ele>
        <time>2022-09-24T12:43:54Z</time>
      </trkpt>
      <trkpt lat="45.76861" lon="5.20537">
        <ele>195.7</ele>
        <time>2022-09-24T12:43:55Z</time>
      </trkpt>
      <trkpt lat="45.76859" lon="5.20544">
        <ele>195.8</ele>
        <time>2022-09-24T12:43:56Z</time>
      </trkpt>
      <trkpt lat="45.76857" lon="5.20551">
        <ele>195.9</ele>
        <time>2022-09-24T12:43:57Z</time>
      </trkpt>
      <trkpt lat="45.76857" lon="5.20559">
        <ele>195.9</ele>
        <time>2022-09-24T12:43:58Z</time>
      </trkpt>
      <trkpt lat="45.76859" lon="5.20567">
        <ele>196</ele>
        <time>2022-09-24T12:43:59Z</time>
      </trkpt>
      <trkpt lat="45.76861" lon="5.20574">
        <ele>196</ele>
        <time>2022-09-24T12:44:00Z</time>
      </trkpt>
      <trkpt lat="45.76864" lon="5.2058">
        <ele>196</ele>
        <time>2022-09-24T12:44:01Z</time>
      </trkpt>
      <trkpt lat="45.76868" lon="5.20587">
        <ele>196</ele>
        <time>2022-09-24T12:44:02Z</time>
      </trkpt>
      <trkpt lat="45.76872" lon="5.20593">
        <ele>196</ele>
        <time>2022-09-24T12:44:03Z</time>
      </trkpt>
      <trkpt lat="45.76876" lon="5.206">
        <ele>196</ele>
        <time>2022-09-24T12:44:04Z</time>
      </trkpt>
      <trkpt lat="45.76877" lon="5.20606">
        <ele>196</ele>
        <time>2022-09-24T12:44:05Z</time>
      </trkpt>
      <trkpt lat="45.76878" lon="5.20615">
        <ele>195.9</ele>
        <time>2022-09-24T12:44:06Z</time>
      </trkpt>
      <trkpt lat="45.76876" lon="5.20622">
        <ele>196</ele>
        <time>2022-09-24T12:44:07Z</time>
      </trkpt>
      <trkpt lat="45.76874" lon="5.20628">
        <ele>196.1</ele>
        <time>2022-09-24T12:44:08Z</time>
      </trkpt>
      <trkpt lat="45.7687" lon="5.20634">
        <ele>196.2</ele>
        <time>2022-09-24T12:44:09Z</time>
      </trkpt>
      <trkpt lat="45.76865" lon="5.20639">
        <ele>196.2</ele>
        <time>2022-09-24T12:44:10Z</time>
      </trkpt>
      <trkpt lat="45.7686" lon="5.20643">
        <ele>196.3</ele>
        <time>2022-09-24T12:44:11Z</time>
      </trkpt>
      <trkpt lat="45.76856" lon="5.20648">
        <ele>196.4</ele>
        <time>2022-09-24T12:44:12Z</time>
      </trkpt>
      <trkpt lat="45.7685" lon="5.20659">
        <ele>196.7</ele>
        <time>2022-09-24T12:44:13Z</time>
      </trkpt>
      <trkpt lat="45.76848" lon="5.20666">
        <ele>196.8</ele>
        <time>2022-09-24T12:44:14Z</time>
      </trkpt>
      <trkpt lat="45.76846" lon="5.20673">
        <ele>197</ele>
        <time>2022-09-24T12:44:15Z</time>
      </trkpt>
      <trkpt lat="45.76844" lon="5.20679">
        <ele>197.1</ele>
        <time>2022-09-24T12:44:16Z</time>
      </trkpt>
      <trkpt lat="45.76842" lon="5.20686">
        <ele>197.2</ele>
        <time>2022-09-24T12:44:17Z</time>
      </trkpt>
      <trkpt lat="45.76841" lon="5.20693">
        <ele>197.3</ele>
        <time>2022-09-24T12:44:18Z</time>
      </trkpt>
      <trkpt lat="45.7684" lon="5.20699">
        <ele>197.4</ele>
        <time>2022-09-24T12:44:19Z</time>
      </trkpt>
      <trkpt lat="45.7684" lon="5.20706">
        <ele>197.6</ele>
        <time>2022-09-24T12:44:20Z</time>
      </trkpt>
      <trkpt lat="45.7684" lon="5.20713">
        <ele>197.6</ele>
        <time>2022-09-24T12:44:21Z</time>
      </trkpt>
      <trkpt lat="45.76839" lon="5.2072">
        <ele>197.7</ele>
        <time>2022-09-24T12:44:22Z</time>
      </trkpt>
      <trkpt lat="45.76839" lon="5.20727">
        <ele>197.7</ele>
        <time>2022-09-24T12:44:23Z</time>
      </trkpt>
      <trkpt lat="45.76838" lon="5.20734">
        <ele>197.7</ele>
        <time>2022-09-24T12:44:24Z</time>
      </trkpt>
      <trkpt lat="45.76838" lon="5.20741">
        <ele>197.8</ele>
        <time>2022-09-24T12:44:25Z</time>
      </trkpt>
      <trkpt lat="45.76837" lon="5.20746">
        <ele>197.8</ele>
        <time>2022-09-24T12:44:26Z</time>
      </trkpt>
      <trkpt lat="45.76837" lon="5.20752">
        <ele>197.9</ele>
        <time>2022-09-24T12:44:27Z</time>
      </trkpt>
      <trkpt lat="45.76836" lon="5.20757">
        <ele>197.9</ele>
        <time>2022-09-24T12:44:28Z</time>
      </trkpt>
      <trkpt lat="45.76836" lon="5.20762">
        <ele>198</ele>
        <time>2022-09-24T12:44:29Z</time>
      </trkpt>
      <trkpt lat="45.76837" lon="5.20767">
        <ele>198</ele>
        <time>2022-09-24T12:44:30Z</time>
      </trkpt>
      <trkpt lat="45.7684" lon="5.2077">
        <ele>197.5</ele>
        <time>2022-09-24T12:44:31Z</time>
      </trkpt>
      <trkpt lat="45.76843" lon="5.20773">
        <ele>197.2</ele>
        <time>2022-09-24T12:44:32Z</time>
      </trkpt>
      <trkpt lat="45.76849" lon="5.20775">
        <ele>196.8</ele>
        <time>2022-09-24T12:44:33Z</time>
      </trkpt>
      <trkpt lat="45.76853" lon="5.20775">
        <ele>196.5</ele>
        <time>2022-09-24T12:44:34Z</time>
      </trkpt>
      <trkpt lat="45.76858" lon="5.20777">
        <ele>196.1</ele>
        <time>2022-09-24T12:44:35Z</time>
      </trkpt>
      <trkpt lat="45.76864" lon="5.20779">
        <ele>195.7</ele>
        <time>2022-09-24T12:44:36Z</time>
      </trkpt>
      <trkpt lat="45.76869" lon="5.20781">
        <ele>195.4</ele>
        <time>2022-09-24T12:44:37Z</time>
      </trkpt>
      <trkpt lat="45.76875" lon="5.20781">
        <ele>195</ele>
        <time>2022-09-24T12:44:38Z</time>
      </trkpt>
      <trkpt lat="45.7688" lon="5.20784">
        <ele>194.7</ele>
        <time>2022-09-24T12:44:39Z</time>
      </trkpt>
      <trkpt lat="45.76885" lon="5.20786">
        <ele>194.4</ele>
        <time>2022-09-24T12:44:40Z</time>
      </trkpt>
      <trkpt lat="45.76891" lon="5.20789">
        <ele>194</ele>
        <time>2022-09-24T12:44:41Z</time>
      </trkpt>
      <trkpt lat="45.76896" lon="5.20791">
        <ele>193.8</ele>
        <time>2022-09-24T12:44:42Z</time>
      </trkpt>
      <trkpt lat="45.76902" lon="5.20794">
        <ele>193.5</ele>
        <time>2022-09-24T12:44:43Z</time>
      </trkpt>
      <trkpt lat="45.76908" lon="5.20796">
        <ele>193.3</ele>
        <time>2022-09-24T12:44:44Z</time>
      </trkpt>
      <trkpt lat="45.76914" lon="5.20798">
        <ele>193.2</ele>
        <time>2022-09-24T12:44:45Z</time>
      </trkpt>
      <trkpt lat="45.76919" lon="5.20801">
        <ele>193</ele>
        <time>2022-09-24T12:44:46Z</time>
      </trkpt>
      <trkpt lat="45.76924" lon="5.20803">
        <ele>192.9</ele>
        <time>2022-09-24T12:44:47Z</time>
      </trkpt>
      <trkpt lat="45.7693" lon="5.20804">
        <ele>192.8</ele>
        <time>2022-09-24T12:44:48Z</time>
      </trkpt>
      <trkpt lat="45.76936" lon="5.20807">
        <ele>192.7</ele>
        <time>2022-09-24T12:44:49Z</time>
      </trkpt>
      <trkpt lat="45.76941" lon="5.2081">
        <ele>192.6</ele>
        <time>2022-09-24T12:44:50Z</time>
      </trkpt>
      <trkpt lat="45.76947" lon="5.20811">
        <ele>192.6</ele>
        <time>2022-09-24T12:44:51Z</time>
      </trkpt>
      <trkpt lat="45.76953" lon="5.20813">
        <ele>192.5</ele>
        <time>2022-09-24T12:44:52Z</time>
      </trkpt>
      <trkpt lat="45.76959" lon="5.20817">
        <ele>192.4</ele>
        <time>2022-09-24T12:44:53Z</time>
      </trkpt>
      <trkpt lat="45.76966" lon="5.20819">
        <ele>192.4</ele>
        <time>2022-09-24T12:44:54Z</time>
      </trkpt>
      <trkpt lat="45.76972" lon="5.2082">
        <ele>192.4</ele>
        <time>2022-09-24T12:44:55Z</time>
      </trkpt>
      <trkpt lat="45.76978" lon="5.20823">
        <ele>192.4</ele>
        <time>2022-09-24T12:44:56Z</time>
      </trkpt>
      <trkpt lat="45.76984" lon="5.20824">
        <ele>192.5</ele>
        <time>2022-09-24T12:44:57Z</time>
      </trkpt>
      <trkpt lat="45.7699" lon="5.20827">
        <ele>192.6</ele>
        <time>2022-09-24T12:44:58Z</time>
      </trkpt>
      <trkpt lat="45.76996" lon="5.20829">
        <ele>192.6</ele>
        <time>2022-09-24T12:44:59Z</time>
      </trkpt>
      <trkpt lat="45.77002" lon="5.20832">
        <ele>192.7</ele>
        <time>2022-09-24T12:45:00Z</time>
      </trkpt>
      <trkpt lat="45.77007" lon="5.20836">
        <ele>192.8</ele>
        <time>2022-09-24T12:45:01Z</time>
      </trkpt>
      <trkpt lat="45.77013" lon="5.20838">
        <ele>192.8</ele>
        <time>2022-09-24T12:45:02Z</time>
      </trkpt>
      <trkpt lat="45.77018" lon="5.20842">
        <ele>192.8</ele>
        <time>2022-09-24T12:45:03Z</time>
      </trkpt>
      <trkpt lat="45.77023" lon="5.20846">
        <ele>192.8</ele>
        <time>2022-09-24T12:45:04Z</time>
      </trkpt>
      <trkpt lat="45.77029" lon="5.2085">
        <ele>192.8</ele>
        <time>2022-09-24T12:45:05Z</time>
      </trkpt>
      <trkpt lat="45.77034" lon="5.20855">
        <ele>192.8</ele>
        <time>2022-09-24T12:45:06Z</time>
      </trkpt>
      <trkpt lat="45.7704" lon="5.20859">
        <ele>192.8</ele>
        <time>2022-09-24T12:45:07Z</time>
      </trkpt>
      <trkpt lat="45.77045" lon="5.20863">
        <ele>192.8</ele>
        <time>2022-09-24T12:45:08Z</time>
      </trkpt>
      <trkpt lat="45.77051" lon="5.20867">
        <ele>192.8</ele>
        <time>2022-09-24T12:45:09Z</time>
      </trkpt>
      <trkpt lat="45.77056" lon="5.2087">
        <ele>192.9</ele>
        <time>2022-09-24T12:45:10Z</time>
      </trkpt>
      <trkpt lat="45.77061" lon="5.20874">
        <ele>192.9</ele>
        <time>2022-09-24T12:45:11Z</time>
      </trkpt>
      <trkpt lat="45.77066" lon="5.20878">
        <ele>192.9</ele>
        <time>2022-09-24T12:45:12Z</time>
      </trkpt>
      <trkpt lat="45.7707" lon="5.20881">
        <ele>193</ele>
        <time>2022-09-24T12:45:13Z</time>
      </trkpt>
      <trkpt lat="45.77075" lon="5.20884">
        <ele>193</ele>
        <time>2022-09-24T12:45:14Z</time>
      </trkpt>
      <trkpt lat="45.77078" lon="5.20888">
        <ele>193</ele>
        <time>2022-09-24T12:45:16Z</time>
      </trkpt>
      <trkpt lat="45.77081" lon="5.20891">
        <ele>193.1</ele>
        <time>2022-09-24T12:45:17Z</time>
      </trkpt>
      <trkpt lat="45.77081" lon="5.20895">
        <ele>193.1</ele>
        <time>2022-09-24T12:45:18Z</time>
      </trkpt>
      <trkpt lat="45.77079" lon="5.209">
        <ele>193.1</ele>
        <time>2022-09-24T12:45:19Z</time>
      </trkpt>
      <trkpt lat="45.77078" lon="5.20906">
        <ele>193.1</ele>
        <time>2022-09-24T12:45:20Z</time>
      </trkpt>
      <trkpt lat="45.77076" lon="5.2091">
        <ele>193.1</ele>
        <time>2022-09-24T12:45:21Z</time>
      </trkpt>
      <trkpt lat="45.77075" lon="5.20912">
        <ele>193.1</ele>
        <time>2022-09-24T12:45:22Z</time>
      </trkpt>
      <trkpt lat="45.77073" lon="5.20917">
        <ele>193.1</ele>
        <time>2022-09-24T12:45:23Z</time>
      </trkpt>
      <trkpt lat="45.77071" lon="5.20924">
        <ele>193</ele>
        <time>2022-09-24T12:45:24Z</time>
      </trkpt>
      <trkpt lat="45.77069" lon="5.20931">
        <ele>193</ele>
        <time>2022-09-24T12:45:25Z</time>
      </trkpt>
      <trkpt lat="45.77067" lon="5.20936">
        <ele>193</ele>
        <time>2022-09-24T12:45:26Z</time>
      </trkpt>
      <trkpt lat="45.77065" lon="5.20943">
        <ele>193</ele>
        <time>2022-09-24T12:45:27Z</time>
      </trkpt>
      <trkpt lat="45.77063" lon="5.20948">
        <ele>193</ele>
        <time>2022-09-24T12:45:28Z</time>
      </trkpt>
      <trkpt lat="45.7706" lon="5.20953">
        <ele>193</ele>
        <time>2022-09-24T12:45:29Z</time>
      </trkpt>
      <trkpt lat="45.77058" lon="5.2096">
        <ele>193.1</ele>
        <time>2022-09-24T12:45:30Z</time>
      </trkpt>
      <trkpt lat="45.77056" lon="5.20965">
        <ele>193.1</ele>
        <time>2022-09-24T12:45:31Z</time>
      </trkpt>
      <trkpt lat="45.77055" lon="5.20971">
        <ele>193.1</ele>
        <time>2022-09-24T12:45:32Z</time>
      </trkpt>
      <trkpt lat="45.77052" lon="5.20978">
        <ele>193.1</ele>
        <time>2022-09-24T12:45:33Z</time>
      </trkpt>
      <trkpt lat="45.7705" lon="5.20983">
        <ele>193.1</ele>
        <time>2022-09-24T12:45:34Z</time>
      </trkpt>
      <trkpt lat="45.77048" lon="5.20989">
        <ele>193.2</ele>
        <time>2022-09-24T12:45:35Z</time>
      </trkpt>
      <trkpt lat="45.77045" lon="5.20994">
        <ele>193.3</ele>
        <time>2022-09-24T12:45:36Z</time>
      </trkpt>
      <trkpt lat="45.77044" lon="5.21">
        <ele>193.3</ele>
        <time>2022-09-24T12:45:37Z</time>
      </trkpt>
      <trkpt lat="45.77041" lon="5.21007">
        <ele>193.4</ele>
        <time>2022-09-24T12:45:38Z</time>
      </trkpt>
      <trkpt lat="45.77039" lon="5.21012">
        <ele>193.5</ele>
        <time>2022-09-24T12:45:39Z</time>
      </trkpt>
      <trkpt lat="45.77037" lon="5.21017">
        <ele>193.5</ele>
        <time>2022-09-24T12:45:40Z</time>
      </trkpt>
      <trkpt lat="45.77034" lon="5.21022">
        <ele>193.6</ele>
        <time>2022-09-24T12:45:41Z</time>
      </trkpt>
      <trkpt lat="45.77031" lon="5.21027">
        <ele>193.7</ele>
        <time>2022-09-24T12:45:42Z</time>
      </trkpt>
      <trkpt lat="45.77029" lon="5.21033">
        <ele>193.8</ele>
        <time>2022-09-24T12:45:43Z</time>
      </trkpt>
      <trkpt lat="45.77027" lon="5.21038">
        <ele>193.9</ele>
        <time>2022-09-24T12:45:44Z</time>
      </trkpt>
      <trkpt lat="45.77026" lon="5.21041">
        <ele>193.9</ele>
        <time>2022-09-24T12:45:45Z</time>
      </trkpt>
      <trkpt lat="45.77022" lon="5.21044">
        <ele>194</ele>
        <time>2022-09-24T12:45:46Z</time>
      </trkpt>
      <trkpt lat="45.77019" lon="5.21047">
        <ele>194</ele>
        <time>2022-09-24T12:45:47Z</time>
      </trkpt>
      <trkpt lat="45.77015" lon="5.21048">
        <ele>194.1</ele>
        <time>2022-09-24T12:45:48Z</time>
      </trkpt>
      <trkpt lat="45.77011" lon="5.21045">
        <ele>194.1</ele>
        <time>2022-09-24T12:45:49Z</time>
      </trkpt>
      <trkpt lat="45.77007" lon="5.21043">
        <ele>194.1</ele>
        <time>2022-09-24T12:45:50Z</time>
      </trkpt>
      <trkpt lat="45.77003" lon="5.2104">
        <ele>194.1</ele>
        <time>2022-09-24T12:45:51Z</time>
      </trkpt>
      <trkpt lat="45.76999" lon="5.21037">
        <ele>194.1</ele>
        <time>2022-09-24T12:45:52Z</time>
      </trkpt>
      <trkpt lat="45.76994" lon="5.21034">
        <ele>194.1</ele>
        <time>2022-09-24T12:45:53Z</time>
      </trkpt>
      <trkpt lat="45.7699" lon="5.21031">
        <ele>194.1</ele>
        <time>2022-09-24T12:45:54Z</time>
      </trkpt>
      <trkpt lat="45.76986" lon="5.21029">
        <ele>194.1</ele>
        <time>2022-09-24T12:45:55Z</time>
      </trkpt>
      <trkpt lat="45.76981" lon="5.21028">
        <ele>194.1</ele>
        <time>2022-09-24T12:45:56Z</time>
      </trkpt>
      <trkpt lat="45.76977" lon="5.2103">
        <ele>194</ele>
        <time>2022-09-24T12:45:57Z</time>
      </trkpt>
      <trkpt lat="45.76972" lon="5.21034">
        <ele>194</ele>
        <time>2022-09-24T12:45:58Z</time>
      </trkpt>
      <trkpt lat="45.76968" lon="5.21038">
        <ele>194</ele>
        <time>2022-09-24T12:45:59Z</time>
      </trkpt>
      <trkpt lat="45.76964" lon="5.21043">
        <ele>194</ele>
        <time>2022-09-24T12:46:00Z</time>
      </trkpt>
      <trkpt lat="45.76959" lon="5.21047">
        <ele>194</ele>
        <time>2022-09-24T12:46:01Z</time>
      </trkpt>
      <trkpt lat="45.76954" lon="5.21052">
        <ele>193.9</ele>
        <time>2022-09-24T12:46:02Z</time>
      </trkpt>
      <trkpt lat="45.76951" lon="5.21056">
        <ele>193.9</ele>
        <time>2022-09-24T12:46:03Z</time>
      </trkpt>
      <trkpt lat="45.76946" lon="5.21061">
        <ele>193.9</ele>
        <time>2022-09-24T12:46:04Z</time>
      </trkpt>
      <trkpt lat="45.76942" lon="5.21066">
        <ele>193.9</ele>
        <time>2022-09-24T12:46:05Z</time>
      </trkpt>
      <trkpt lat="45.76937" lon="5.2107">
        <ele>193.9</ele>
        <time>2022-09-24T12:46:06Z</time>
      </trkpt>
      <trkpt lat="45.76933" lon="5.21074">
        <ele>193.9</ele>
        <time>2022-09-24T12:46:07Z</time>
      </trkpt>
      <trkpt lat="45.76929" lon="5.21077">
        <ele>193.9</ele>
        <time>2022-09-24T12:46:08Z</time>
      </trkpt>
      <trkpt lat="45.76925" lon="5.21081">
        <ele>193.9</ele>
        <time>2022-09-24T12:46:09Z</time>
      </trkpt>
      <trkpt lat="45.76921" lon="5.21085">
        <ele>193.8</ele>
        <time>2022-09-24T12:46:10Z</time>
      </trkpt>
      <trkpt lat="45.76917" lon="5.21091">
        <ele>193.8</ele>
        <time>2022-09-24T12:46:11Z</time>
      </trkpt>
      <trkpt lat="45.76913" lon="5.21095">
        <ele>193.8</ele>
        <time>2022-09-24T12:46:12Z</time>
      </trkpt>
      <trkpt lat="45.76909" lon="5.211">
        <ele>193.8</ele>
        <time>2022-09-24T12:46:13Z</time>
      </trkpt>
      <trkpt lat="45.76906" lon="5.21104">
        <ele>193.8</ele>
        <time>2022-09-24T12:46:14Z</time>
      </trkpt>
      <trkpt lat="45.76902" lon="5.21109">
        <ele>193.8</ele>
        <time>2022-09-24T12:46:15Z</time>
      </trkpt>
      <trkpt lat="45.76899" lon="5.21113">
        <ele>193.8</ele>
        <time>2022-09-24T12:46:16Z</time>
      </trkpt>
      <trkpt lat="45.76895" lon="5.21118">
        <ele>193.8</ele>
        <time>2022-09-24T12:46:17Z</time>
      </trkpt>
      <trkpt lat="45.76892" lon="5.21124">
        <ele>193.8</ele>
        <time>2022-09-24T12:46:18Z</time>
      </trkpt>
      <trkpt lat="45.76888" lon="5.21128">
        <ele>193.8</ele>
        <time>2022-09-24T12:46:19Z</time>
      </trkpt>
      <trkpt lat="45.76885" lon="5.21133">
        <ele>193.9</ele>
        <time>2022-09-24T12:46:20Z</time>
      </trkpt>
      <trkpt lat="45.76881" lon="5.21139">
        <ele>193.9</ele>
        <time>2022-09-24T12:46:21Z</time>
      </trkpt>
      <trkpt lat="45.76878" lon="5.21144">
        <ele>193.9</ele>
        <time>2022-09-24T12:46:22Z</time>
      </trkpt>
      <trkpt lat="45.76874" lon="5.21149">
        <ele>193.9</ele>
        <time>2022-09-24T12:46:23Z</time>
      </trkpt>
      <trkpt lat="45.76871" lon="5.21154">
        <ele>193.9</ele>
        <time>2022-09-24T12:46:24Z</time>
      </trkpt>
      <trkpt lat="45.76867" lon="5.2116">
        <ele>193.9</ele>
        <time>2022-09-24T12:46:25Z</time>
      </trkpt>
      <trkpt lat="45.76863" lon="5.21164">
        <ele>193.9</ele>
        <time>2022-09-24T12:46:26Z</time>
      </trkpt>
      <trkpt lat="45.76859" lon="5.21171">
        <ele>193.9</ele>
        <time>2022-09-24T12:46:27Z</time>
      </trkpt>
      <trkpt lat="45.76856" lon="5.21177">
        <ele>193.9</ele>
        <time>2022-09-24T12:46:28Z</time>
      </trkpt>
      <trkpt lat="45.76852" lon="5.21183">
        <ele>193.9</ele>
        <time>2022-09-24T12:46:29Z</time>
      </trkpt>
      <trkpt lat="45.76848" lon="5.21189">
        <ele>193.9</ele>
        <time>2022-09-24T12:46:30Z</time>
      </trkpt>
      <trkpt lat="45.76844" lon="5.21195">
        <ele>193.9</ele>
        <time>2022-09-24T12:46:31Z</time>
      </trkpt>
      <trkpt lat="45.76839" lon="5.21199">
        <ele>193.9</ele>
        <time>2022-09-24T12:46:32Z</time>
      </trkpt>
      <trkpt lat="45.76836" lon="5.21205">
        <ele>193.9</ele>
        <time>2022-09-24T12:46:33Z</time>
      </trkpt>
      <trkpt lat="45.76831" lon="5.21212">
        <ele>193.9</ele>
        <time>2022-09-24T12:46:34Z</time>
      </trkpt>
      <trkpt lat="45.76827" lon="5.21217">
        <ele>193.9</ele>
        <time>2022-09-24T12:46:35Z</time>
      </trkpt>
      <trkpt lat="45.76823" lon="5.21223">
        <ele>193.9</ele>
        <time>2022-09-24T12:46:36Z</time>
      </trkpt>
      <trkpt lat="45.76819" lon="5.21228">
        <ele>193.9</ele>
        <time>2022-09-24T12:46:37Z</time>
      </trkpt>
      <trkpt lat="45.76816" lon="5.21234">
        <ele>193.9</ele>
        <time>2022-09-24T12:46:38Z</time>
      </trkpt>
      <trkpt lat="45.76812" lon="5.21238">
        <ele>193.8</ele>
        <time>2022-09-24T12:46:39Z</time>
      </trkpt>
      <trkpt lat="45.76808" lon="5.21244">
        <ele>193.8</ele>
        <time>2022-09-24T12:46:40Z</time>
      </trkpt>
      <trkpt lat="45.76804" lon="5.21251">
        <ele>193.8</ele>
        <time>2022-09-24T12:46:41Z</time>
      </trkpt>
      <trkpt lat="45.768" lon="5.21256">
        <ele>193.8</ele>
        <time>2022-09-24T12:46:42Z</time>
      </trkpt>
      <trkpt lat="45.76797" lon="5.21261">
        <ele>193.8</ele>
        <time>2022-09-24T12:46:43Z</time>
      </trkpt>
      <trkpt lat="45.76793" lon="5.21266">
        <ele>193.8</ele>
        <time>2022-09-24T12:46:44Z</time>
      </trkpt>
      <trkpt lat="45.76789" lon="5.21271">
        <ele>193.8</ele>
        <time>2022-09-24T12:46:45Z</time>
      </trkpt>
      <trkpt lat="45.76786" lon="5.21277">
        <ele>193.8</ele>
        <time>2022-09-24T12:46:46Z</time>
      </trkpt>
      <trkpt lat="45.76782" lon="5.21281">
        <ele>193.8</ele>
        <time>2022-09-24T12:46:47Z</time>
      </trkpt>
      <trkpt lat="45.76779" lon="5.21286">
        <ele>193.8</ele>
        <time>2022-09-24T12:46:48Z</time>
      </trkpt>
      <trkpt lat="45.76776" lon="5.2129">
        <ele>193.8</ele>
        <time>2022-09-24T12:46:49Z</time>
      </trkpt>
      <trkpt lat="45.76773" lon="5.21294">
        <ele>193.9</ele>
        <time>2022-09-24T12:46:50Z</time>
      </trkpt>
      <trkpt lat="45.7677" lon="5.21298">
        <ele>193.9</ele>
        <time>2022-09-24T12:46:51Z</time>
      </trkpt>
      <trkpt lat="45.76766" lon="5.21303">
        <ele>193.9</ele>
        <time>2022-09-24T12:46:52Z</time>
      </trkpt>
      <trkpt lat="45.76763" lon="5.21307">
        <ele>193.9</ele>
        <time>2022-09-24T12:46:53Z</time>
      </trkpt>
      <trkpt lat="45.7676" lon="5.2131">
        <ele>193.9</ele>
        <time>2022-09-24T12:46:54Z</time>
      </trkpt>
      <trkpt lat="45.76757" lon="5.21315">
        <ele>193.9</ele>
        <time>2022-09-24T12:46:55Z</time>
      </trkpt>
      <trkpt lat="45.76755" lon="5.21319">
        <ele>193.9</ele>
        <time>2022-09-24T12:46:56Z</time>
      </trkpt>
      <trkpt lat="45.76753" lon="5.21325">
        <ele>193.9</ele>
        <time>2022-09-24T12:46:57Z</time>
      </trkpt>
      <trkpt lat="45.76751" lon="5.2133">
        <ele>193.9</ele>
        <time>2022-09-24T12:46:58Z</time>
      </trkpt>
      <trkpt lat="45.76748" lon="5.21337">
        <ele>193.9</ele>
        <time>2022-09-24T12:46:59Z</time>
      </trkpt>
      <trkpt lat="45.76746" lon="5.21341">
        <ele>193.9</ele>
        <time>2022-09-24T12:47:00Z</time>
      </trkpt>
      <trkpt lat="45.76744" lon="5.21348">
        <ele>193.8</ele>
        <time>2022-09-24T12:47:01Z</time>
      </trkpt>
      <trkpt lat="45.76743" lon="5.21355">
        <ele>193.8</ele>
        <time>2022-09-24T12:47:02Z</time>
      </trkpt>
      <trkpt lat="45.76741" lon="5.21361">
        <ele>193.8</ele>
        <time>2022-09-24T12:47:03Z</time>
      </trkpt>
      <trkpt lat="45.7674" lon="5.21369">
        <ele>193.7</ele>
        <time>2022-09-24T12:47:04Z</time>
      </trkpt>
      <trkpt lat="45.7674" lon="5.21376">
        <ele>193.7</ele>
        <time>2022-09-24T12:47:05Z</time>
      </trkpt>
      <trkpt lat="45.76738" lon="5.21382">
        <ele>193.7</ele>
        <time>2022-09-24T12:47:06Z</time>
      </trkpt>
      <trkpt lat="45.76736" lon="5.21388">
        <ele>193.7</ele>
        <time>2022-09-24T12:47:07Z</time>
      </trkpt>
      <trkpt lat="45.76736" lon="5.21393">
        <ele>193.7</ele>
        <time>2022-09-24T12:47:08Z</time>
      </trkpt>
      <trkpt lat="45.76734" lon="5.21398">
        <ele>193.7</ele>
        <time>2022-09-24T12:47:09Z</time>
      </trkpt>
      <trkpt lat="45.76733" lon="5.21403">
        <ele>193.7</ele>
        <time>2022-09-24T12:47:10Z</time>
      </trkpt>
      <trkpt lat="45.76733" lon="5.2141">
        <ele>193.8</ele>
        <time>2022-09-24T12:47:11Z</time>
      </trkpt>
      <trkpt lat="45.76732" lon="5.21417">
        <ele>193.8</ele>
        <time>2022-09-24T12:47:12Z</time>
      </trkpt>
      <trkpt lat="45.76731" lon="5.21422">
        <ele>193.8</ele>
        <time>2022-09-24T12:47:13Z</time>
      </trkpt>
      <trkpt lat="45.76729" lon="5.21429">
        <ele>193.8</ele>
        <time>2022-09-24T12:47:14Z</time>
      </trkpt>
      <trkpt lat="45.76729" lon="5.21434">
        <ele>193.8</ele>
        <time>2022-09-24T12:47:15Z</time>
      </trkpt>
      <trkpt lat="45.76727" lon="5.21438">
        <ele>193.8</ele>
        <time>2022-09-24T12:47:16Z</time>
      </trkpt>
      <trkpt lat="45.76725" lon="5.21444">
        <ele>193.8</ele>
        <time>2022-09-24T12:47:17Z</time>
      </trkpt>
      <trkpt lat="45.76725" lon="5.2145">
        <ele>193.8</ele>
        <time>2022-09-24T12:47:18Z</time>
      </trkpt>
      <trkpt lat="45.76725" lon="5.21457">
        <ele>193.8</ele>
        <time>2022-09-24T12:47:19Z</time>
      </trkpt>
      <trkpt lat="45.76724" lon="5.21463">
        <ele>193.8</ele>
        <time>2022-09-24T12:47:20Z</time>
      </trkpt>
      <trkpt lat="45.76723" lon="5.21469">
        <ele>193.7</ele>
        <time>2022-09-24T12:47:21Z</time>
      </trkpt>
      <trkpt lat="45.76722" lon="5.21477">
        <ele>193.7</ele>
        <time>2022-09-24T12:47:22Z</time>
      </trkpt>
      <trkpt lat="45.76722" lon="5.21484">
        <ele>193.7</ele>
        <time>2022-09-24T12:47:23Z</time>
      </trkpt>
      <trkpt lat="45.7672" lon="5.21491">
        <ele>193.7</ele>
        <time>2022-09-24T12:47:24Z</time>
      </trkpt>
      <trkpt lat="45.76719" lon="5.21496">
        <ele>193.7</ele>
        <time>2022-09-24T12:47:25Z</time>
      </trkpt>
      <trkpt lat="45.76718" lon="5.21504">
        <ele>193.7</ele>
        <time>2022-09-24T12:47:26Z</time>
      </trkpt>
      <trkpt lat="45.76717" lon="5.2151">
        <ele>193.8</ele>
        <time>2022-09-24T12:47:27Z</time>
      </trkpt>
      <trkpt lat="45.76715" lon="5.21517">
        <ele>193.8</ele>
        <time>2022-09-24T12:47:28Z</time>
      </trkpt>
      <trkpt lat="45.76715" lon="5.21523">
        <ele>193.8</ele>
        <time>2022-09-24T12:47:29Z</time>
      </trkpt>
      <trkpt lat="45.76713" lon="5.21529">
        <ele>193.8</ele>
        <time>2022-09-24T12:47:30Z</time>
      </trkpt>
      <trkpt lat="45.76712" lon="5.21535">
        <ele>193.9</ele>
        <time>2022-09-24T12:47:31Z</time>
      </trkpt>
      <trkpt lat="45.76711" lon="5.21541">
        <ele>193.9</ele>
        <time>2022-09-24T12:47:32Z</time>
      </trkpt>
      <trkpt lat="45.7671" lon="5.21547">
        <ele>193.9</ele>
        <time>2022-09-24T12:47:33Z</time>
      </trkpt>
      <trkpt lat="45.76709" lon="5.21554">
        <ele>193.9</ele>
        <time>2022-09-24T12:47:34Z</time>
      </trkpt>
      <trkpt lat="45.76708" lon="5.21561">
        <ele>193.9</ele>
        <time>2022-09-24T12:47:35Z</time>
      </trkpt>
      <trkpt lat="45.76706" lon="5.21575">
        <ele>193.9</ele>
        <time>2022-09-24T12:47:36Z</time>
      </trkpt>
      <trkpt lat="45.76705" lon="5.21583">
        <ele>193.9</ele>
        <time>2022-09-24T12:47:37Z</time>
      </trkpt>
      <trkpt lat="45.76704" lon="5.2159">
        <ele>193.9</ele>
        <time>2022-09-24T12:47:38Z</time>
      </trkpt>
      <trkpt lat="45.76703" lon="5.21598">
        <ele>193.9</ele>
        <time>2022-09-24T12:47:39Z</time>
      </trkpt>
      <trkpt lat="45.76703" lon="5.21605">
        <ele>194</ele>
        <time>2022-09-24T12:47:40Z</time>
      </trkpt>
      <trkpt lat="45.76702" lon="5.21613">
        <ele>194</ele>
        <time>2022-09-24T12:47:41Z</time>
      </trkpt>
      <trkpt lat="45.76701" lon="5.2162">
        <ele>194</ele>
        <time>2022-09-24T12:47:42Z</time>
      </trkpt>
      <trkpt lat="45.767" lon="5.21627">
        <ele>194</ele>
        <time>2022-09-24T12:47:43Z</time>
      </trkpt>
      <trkpt lat="45.76699" lon="5.21635">
        <ele>194.1</ele>
        <time>2022-09-24T12:47:44Z</time>
      </trkpt>
      <trkpt lat="45.76699" lon="5.21642">
        <ele>194.1</ele>
        <time>2022-09-24T12:47:45Z</time>
      </trkpt>
      <trkpt lat="45.76698" lon="5.21649">
        <ele>194.1</ele>
        <time>2022-09-24T12:47:46Z</time>
      </trkpt>
      <trkpt lat="45.76698" lon="5.21656">
        <ele>194.1</ele>
        <time>2022-09-24T12:47:47Z</time>
      </trkpt>
      <trkpt lat="45.76697" lon="5.21663">
        <ele>194.1</ele>
        <time>2022-09-24T12:47:48Z</time>
      </trkpt>
      <trkpt lat="45.76697" lon="5.2167">
        <ele>194.1</ele>
        <time>2022-09-24T12:47:49Z</time>
      </trkpt>
      <trkpt lat="45.76697" lon="5.21678">
        <ele>194.1</ele>
        <time>2022-09-24T12:47:50Z</time>
      </trkpt>
      <trkpt lat="45.76696" lon="5.21685">
        <ele>194.1</ele>
        <time>2022-09-24T12:47:51Z</time>
      </trkpt>
      <trkpt lat="45.76696" lon="5.21691">
        <ele>194.2</ele>
        <time>2022-09-24T12:47:52Z</time>
      </trkpt>
      <trkpt lat="45.76694" lon="5.21698">
        <ele>194.2</ele>
        <time>2022-09-24T12:47:53Z</time>
      </trkpt>
      <trkpt lat="45.76694" lon="5.21705">
        <ele>194.2</ele>
        <time>2022-09-24T12:47:54Z</time>
      </trkpt>
      <trkpt lat="45.76694" lon="5.21712">
        <ele>194.2</ele>
        <time>2022-09-24T12:47:55Z</time>
      </trkpt>
      <trkpt lat="45.76694" lon="5.21718">
        <ele>194.2</ele>
        <time>2022-09-24T12:47:56Z</time>
      </trkpt>
      <trkpt lat="45.76693" lon="5.21727">
        <ele>194.2</ele>
        <time>2022-09-24T12:47:57Z</time>
      </trkpt>
      <trkpt lat="45.76694" lon="5.21733">
        <ele>194.2</ele>
        <time>2022-09-24T12:47:58Z</time>
      </trkpt>
      <trkpt lat="45.76693" lon="5.2174">
        <ele>194.2</ele>
        <time>2022-09-24T12:47:59Z</time>
      </trkpt>
      <trkpt lat="45.76693" lon="5.21747">
        <ele>194.2</ele>
        <time>2022-09-24T12:48:00Z</time>
      </trkpt>
      <trkpt lat="45.76693" lon="5.21754">
        <ele>194.2</ele>
        <time>2022-09-24T12:48:01Z</time>
      </trkpt>
      <trkpt lat="45.76693" lon="5.2176">
        <ele>194.2</ele>
        <time>2022-09-24T12:48:02Z</time>
      </trkpt>
      <trkpt lat="45.76692" lon="5.21767">
        <ele>194.2</ele>
        <time>2022-09-24T12:48:03Z</time>
      </trkpt>
      <trkpt lat="45.76692" lon="5.21773">
        <ele>194.2</ele>
        <time>2022-09-24T12:48:04Z</time>
      </trkpt>
      <trkpt lat="45.76691" lon="5.2178">
        <ele>194.2</ele>
        <time>2022-09-24T12:48:05Z</time>
      </trkpt>
      <trkpt lat="45.76691" lon="5.21786">
        <ele>194.2</ele>
        <time>2022-09-24T12:48:06Z</time>
      </trkpt>
      <trkpt lat="45.76691" lon="5.21793">
        <ele>194.2</ele>
        <time>2022-09-24T12:48:07Z</time>
      </trkpt>
      <trkpt lat="45.7669" lon="5.21801">
        <ele>194.2</ele>
        <time>2022-09-24T12:48:08Z</time>
      </trkpt>
      <trkpt lat="45.7669" lon="5.21808">
        <ele>194.2</ele>
        <time>2022-09-24T12:48:09Z</time>
      </trkpt>
      <trkpt lat="45.76689" lon="5.21816">
        <ele>194.2</ele>
        <time>2022-09-24T12:48:10Z</time>
      </trkpt>
      <trkpt lat="45.76689" lon="5.21822">
        <ele>194.3</ele>
        <time>2022-09-24T12:48:11Z</time>
      </trkpt>
      <trkpt lat="45.76689" lon="5.2183">
        <ele>194.3</ele>
        <time>2022-09-24T12:48:12Z</time>
      </trkpt>
      <trkpt lat="45.76689" lon="5.21837">
        <ele>194.3</ele>
        <time>2022-09-24T12:48:13Z</time>
      </trkpt>
      <trkpt lat="45.76689" lon="5.21845">
        <ele>194.3</ele>
        <time>2022-09-24T12:48:14Z</time>
      </trkpt>
      <trkpt lat="45.76689" lon="5.21853">
        <ele>194.3</ele>
        <time>2022-09-24T12:48:15Z</time>
      </trkpt>
      <trkpt lat="45.76688" lon="5.2186">
        <ele>194.3</ele>
        <time>2022-09-24T12:48:16Z</time>
      </trkpt>
      <trkpt lat="45.76688" lon="5.21867">
        <ele>194.3</ele>
        <time>2022-09-24T12:48:17Z</time>
      </trkpt>
      <trkpt lat="45.76688" lon="5.21874">
        <ele>194.3</ele>
        <time>2022-09-24T12:48:18Z</time>
      </trkpt>
      <trkpt lat="45.76688" lon="5.21882">
        <ele>194.3</ele>
        <time>2022-09-24T12:48:19Z</time>
      </trkpt>
      <trkpt lat="45.76688" lon="5.21889">
        <ele>194.3</ele>
        <time>2022-09-24T12:48:20Z</time>
      </trkpt>
      <trkpt lat="45.76688" lon="5.21897">
        <ele>194.2</ele>
        <time>2022-09-24T12:48:21Z</time>
      </trkpt>
      <trkpt lat="45.76687" lon="5.21905">
        <ele>194.2</ele>
        <time>2022-09-24T12:48:22Z</time>
      </trkpt>
      <trkpt lat="45.76687" lon="5.21911">
        <ele>194.2</ele>
        <time>2022-09-24T12:48:23Z</time>
      </trkpt>
      <trkpt lat="45.76688" lon="5.21918">
        <ele>194.2</ele>
        <time>2022-09-24T12:48:24Z</time>
      </trkpt>
      <trkpt lat="45.76686" lon="5.21926">
        <ele>194.2</ele>
        <time>2022-09-24T12:48:25Z</time>
      </trkpt>
      <trkpt lat="45.76686" lon="5.21933">
        <ele>194.2</ele>
        <time>2022-09-24T12:48:26Z</time>
      </trkpt>
      <trkpt lat="45.76686" lon="5.2194">
        <ele>194.2</ele>
        <time>2022-09-24T12:48:27Z</time>
      </trkpt>
      <trkpt lat="45.76686" lon="5.21949">
        <ele>194.3</ele>
        <time>2022-09-24T12:48:28Z</time>
      </trkpt>
      <trkpt lat="45.76686" lon="5.21956">
        <ele>194.3</ele>
        <time>2022-09-24T12:48:29Z</time>
      </trkpt>
      <trkpt lat="45.76685" lon="5.21963">
        <ele>194.3</ele>
        <time>2022-09-24T12:48:30Z</time>
      </trkpt>
      <trkpt lat="45.76685" lon="5.2197">
        <ele>194.4</ele>
        <time>2022-09-24T12:48:31Z</time>
      </trkpt>
      <trkpt lat="45.76684" lon="5.21977">
        <ele>194.4</ele>
        <time>2022-09-24T12:48:32Z</time>
      </trkpt>
      <trkpt lat="45.76685" lon="5.21985">
        <ele>194.4</ele>
        <time>2022-09-24T12:48:33Z</time>
      </trkpt>
      <trkpt lat="45.76685" lon="5.21993">
        <ele>194.5</ele>
        <time>2022-09-24T12:48:34Z</time>
      </trkpt>
      <trkpt lat="45.76684" lon="5.22001">
        <ele>194.5</ele>
        <time>2022-09-24T12:48:35Z</time>
      </trkpt>
      <trkpt lat="45.76685" lon="5.22009">
        <ele>194.5</ele>
        <time>2022-09-24T12:48:36Z</time>
      </trkpt>
      <trkpt lat="45.76685" lon="5.22017">
        <ele>194.6</ele>
        <time>2022-09-24T12:48:37Z</time>
      </trkpt>
      <trkpt lat="45.76685" lon="5.22026">
        <ele>194.6</ele>
        <time>2022-09-24T12:48:38Z</time>
      </trkpt>
      <trkpt lat="45.76685" lon="5.22033">
        <ele>194.7</ele>
        <time>2022-09-24T12:48:39Z</time>
      </trkpt>
      <trkpt lat="45.76685" lon="5.22041">
        <ele>194.7</ele>
        <time>2022-09-24T12:48:40Z</time>
      </trkpt>
      <trkpt lat="45.76685" lon="5.22049">
        <ele>194.8</ele>
        <time>2022-09-24T12:48:41Z</time>
      </trkpt>
      <trkpt lat="45.76685" lon="5.22057">
        <ele>194.8</ele>
        <time>2022-09-24T12:48:42Z</time>
      </trkpt>
      <trkpt lat="45.76685" lon="5.22065">
        <ele>194.9</ele>
        <time>2022-09-24T12:48:43Z</time>
      </trkpt>
      <trkpt lat="45.76685" lon="5.22072">
        <ele>194.9</ele>
        <time>2022-09-24T12:48:44Z</time>
      </trkpt>
      <trkpt lat="45.76685" lon="5.22079">
        <ele>195</ele>
        <time>2022-09-24T12:48:45Z</time>
      </trkpt>
      <trkpt lat="45.76684" lon="5.22084">
        <ele>195</ele>
        <time>2022-09-24T12:48:46Z</time>
      </trkpt>
      <trkpt lat="45.76682" lon="5.22092">
        <ele>195.1</ele>
        <time>2022-09-24T12:48:47Z</time>
      </trkpt>
      <trkpt lat="45.76679" lon="5.22097">
        <ele>195.1</ele>
        <time>2022-09-24T12:48:48Z</time>
      </trkpt>
      <trkpt lat="45.76674" lon="5.22102">
        <ele>195.1</ele>
        <time>2022-09-24T12:48:49Z</time>
      </trkpt>
      <trkpt lat="45.7667" lon="5.22103">
        <ele>195</ele>
        <time>2022-09-24T12:48:50Z</time>
      </trkpt>
      <trkpt lat="45.76665" lon="5.22104">
        <ele>195</ele>
        <time>2022-09-24T12:48:51Z</time>
      </trkpt>
      <trkpt lat="45.76661" lon="5.22105">
        <ele>194.9</ele>
        <time>2022-09-24T12:48:52Z</time>
      </trkpt>
      <trkpt lat="45.76654" lon="5.22105">
        <ele>194.9</ele>
        <time>2022-09-24T12:48:53Z</time>
      </trkpt>
      <trkpt lat="45.76649" lon="5.22105">
        <ele>194.8</ele>
        <time>2022-09-24T12:48:54Z</time>
      </trkpt>
      <trkpt lat="45.76644" lon="5.22106">
        <ele>194.8</ele>
        <time>2022-09-24T12:48:55Z</time>
      </trkpt>
      <trkpt lat="45.76639" lon="5.22104">
        <ele>194.8</ele>
        <time>2022-09-24T12:48:56Z</time>
      </trkpt>
      <trkpt lat="45.76633" lon="5.22105">
        <ele>194.8</ele>
        <time>2022-09-24T12:48:57Z</time>
      </trkpt>
      <trkpt lat="45.76628" lon="5.22105">
        <ele>194.8</ele>
        <time>2022-09-24T12:48:58Z</time>
      </trkpt>
      <trkpt lat="45.76624" lon="5.22106">
        <ele>194.8</ele>
        <time>2022-09-24T12:48:59Z</time>
      </trkpt>
      <trkpt lat="45.76618" lon="5.22106">
        <ele>194.8</ele>
        <time>2022-09-24T12:49:00Z</time>
      </trkpt>
      <trkpt lat="45.76613" lon="5.22107">
        <ele>194.8</ele>
        <time>2022-09-24T12:49:01Z</time>
      </trkpt>
      <trkpt lat="45.76608" lon="5.22107">
        <ele>194.9</ele>
        <time>2022-09-24T12:49:02Z</time>
      </trkpt>
      <trkpt lat="45.76603" lon="5.22108">
        <ele>194.9</ele>
        <time>2022-09-24T12:49:03Z</time>
      </trkpt>
      <trkpt lat="45.76598" lon="5.22109">
        <ele>195</ele>
        <time>2022-09-24T12:49:04Z</time>
      </trkpt>
      <trkpt lat="45.76594" lon="5.2211">
        <ele>195</ele>
        <time>2022-09-24T12:49:05Z</time>
      </trkpt>
      <trkpt lat="45.76589" lon="5.22113">
        <ele>195.1</ele>
        <time>2022-09-24T12:49:06Z</time>
      </trkpt>
      <trkpt lat="45.76587" lon="5.22117">
        <ele>195.1</ele>
        <time>2022-09-24T12:49:07Z</time>
      </trkpt>
      <trkpt lat="45.76585" lon="5.22121">
        <ele>195</ele>
        <time>2022-09-24T12:49:08Z</time>
      </trkpt>
      <trkpt lat="45.76585" lon="5.22127">
        <ele>195</ele>
        <time>2022-09-24T12:49:09Z</time>
      </trkpt>
      <trkpt lat="45.76585" lon="5.22134">
        <ele>194.9</ele>
        <time>2022-09-24T12:49:10Z</time>
      </trkpt>
      <trkpt lat="45.76586" lon="5.22141">
        <ele>194.8</ele>
        <time>2022-09-24T12:49:11Z</time>
      </trkpt>
      <trkpt lat="45.76587" lon="5.22149">
        <ele>194.7</ele>
        <time>2022-09-24T12:49:12Z</time>
      </trkpt>
      <trkpt lat="45.76587" lon="5.22158">
        <ele>194.6</ele>
        <time>2022-09-24T12:49:13Z</time>
      </trkpt>
      <trkpt lat="45.76588" lon="5.22166">
        <ele>194.6</ele>
        <time>2022-09-24T12:49:14Z</time>
      </trkpt>
      <trkpt lat="45.76588" lon="5.22175">
        <ele>194.5</ele>
        <time>2022-09-24T12:49:15Z</time>
      </trkpt>
      <trkpt lat="45.76588" lon="5.22183">
        <ele>194.5</ele>
        <time>2022-09-24T12:49:16Z</time>
      </trkpt>
      <trkpt lat="45.76587" lon="5.22191">
        <ele>194.5</ele>
        <time>2022-09-24T12:49:17Z</time>
      </trkpt>
      <trkpt lat="45.76586" lon="5.222">
        <ele>194.5</ele>
        <time>2022-09-24T12:49:18Z</time>
      </trkpt>
      <trkpt lat="45.76584" lon="5.22206">
        <ele>194.6</ele>
        <time>2022-09-24T12:49:19Z</time>
      </trkpt>
      <trkpt lat="45.7658" lon="5.22213">
        <ele>194.6</ele>
        <time>2022-09-24T12:49:20Z</time>
      </trkpt>
      <trkpt lat="45.76576" lon="5.22218">
        <ele>194.6</ele>
        <time>2022-09-24T12:49:21Z</time>
      </trkpt>
      <trkpt lat="45.7657" lon="5.22222">
        <ele>194.5</ele>
        <time>2022-09-24T12:49:22Z</time>
      </trkpt>
      <trkpt lat="45.76565" lon="5.22224">
        <ele>194.5</ele>
        <time>2022-09-24T12:49:23Z</time>
      </trkpt>
      <trkpt lat="45.76561" lon="5.22226">
        <ele>194.5</ele>
        <time>2022-09-24T12:49:24Z</time>
      </trkpt>
      <trkpt lat="45.76557" lon="5.22227">
        <ele>194.5</ele>
        <time>2022-09-24T12:49:25Z</time>
      </trkpt>
      <trkpt lat="45.76552" lon="5.2223">
        <ele>194.5</ele>
        <time>2022-09-24T12:49:26Z</time>
      </trkpt>
      <trkpt lat="45.76547" lon="5.22234">
        <ele>194.5</ele>
        <time>2022-09-24T12:49:27Z</time>
      </trkpt>
      <trkpt lat="45.76543" lon="5.22238">
        <ele>194.5</ele>
        <time>2022-09-24T12:49:28Z</time>
      </trkpt>
      <trkpt lat="45.76539" lon="5.22242">
        <ele>194.5</ele>
        <time>2022-09-24T12:49:29Z</time>
      </trkpt>
      <trkpt lat="45.76535" lon="5.22245">
        <ele>194.6</ele>
        <time>2022-09-24T12:49:30Z</time>
      </trkpt>
      <trkpt lat="45.76531" lon="5.22249">
        <ele>194.6</ele>
        <time>2022-09-24T12:49:31Z</time>
      </trkpt>
      <trkpt lat="45.76526" lon="5.22252">
        <ele>194.7</ele>
        <time>2022-09-24T12:49:32Z</time>
      </trkpt>
      <trkpt lat="45.76524" lon="5.22256">
        <ele>194.7</ele>
        <time>2022-09-24T12:49:33Z</time>
      </trkpt>
      <trkpt lat="45.7652" lon="5.22258">
        <ele>194.8</ele>
        <time>2022-09-24T12:49:34Z</time>
      </trkpt>
      <trkpt lat="45.76517" lon="5.22261">
        <ele>194.9</ele>
        <time>2022-09-24T12:49:35Z</time>
      </trkpt>
      <trkpt lat="45.76512" lon="5.22265">
        <ele>195</ele>
        <time>2022-09-24T12:49:36Z</time>
      </trkpt>
      <trkpt lat="45.76508" lon="5.22268">
        <ele>195.1</ele>
        <time>2022-09-24T12:49:37Z</time>
      </trkpt>
      <trkpt lat="45.76504" lon="5.22273">
        <ele>195.2</ele>
        <time>2022-09-24T12:49:38Z</time>
      </trkpt>
      <trkpt lat="45.765" lon="5.22277">
        <ele>195.3</ele>
        <time>2022-09-24T12:49:39Z</time>
      </trkpt>
      <trkpt lat="45.76497" lon="5.2228">
        <ele>195.4</ele>
        <time>2022-09-24T12:49:40Z</time>
      </trkpt>
      <trkpt lat="45.76494" lon="5.22283">
        <ele>195.5</ele>
        <time>2022-09-24T12:49:41Z</time>
      </trkpt>
      <trkpt lat="45.76491" lon="5.22286">
        <ele>195.6</ele>
        <time>2022-09-24T12:49:42Z</time>
      </trkpt>
      <trkpt lat="45.76487" lon="5.22291">
        <ele>195.7</ele>
        <time>2022-09-24T12:49:43Z</time>
      </trkpt>
      <trkpt lat="45.76484" lon="5.22295">
        <ele>195.8</ele>
        <time>2022-09-24T12:49:44Z</time>
      </trkpt>
      <trkpt lat="45.76481" lon="5.22299">
        <ele>196</ele>
        <time>2022-09-24T12:49:45Z</time>
      </trkpt>
      <trkpt lat="45.76477" lon="5.22302">
        <ele>196.1</ele>
        <time>2022-09-24T12:49:46Z</time>
      </trkpt>
      <trkpt lat="45.76474" lon="5.22305">
        <ele>196.1</ele>
        <time>2022-09-24T12:49:47Z</time>
      </trkpt>
      <trkpt lat="45.76471" lon="5.2231">
        <ele>196.3</ele>
        <time>2022-09-24T12:49:48Z</time>
      </trkpt>
      <trkpt lat="45.76468" lon="5.22312">
        <ele>196.4</ele>
        <time>2022-09-24T12:49:49Z</time>
      </trkpt>
      <trkpt lat="45.76464" lon="5.22316">
        <ele>196.6</ele>
        <time>2022-09-24T12:49:50Z</time>
      </trkpt>
      <trkpt lat="45.7646" lon="5.2232">
        <ele>196.8</ele>
        <time>2022-09-24T12:49:51Z</time>
      </trkpt>
      <trkpt lat="45.76457" lon="5.22323">
        <ele>196.9</ele>
        <time>2022-09-24T12:49:52Z</time>
      </trkpt>
      <trkpt lat="45.76453" lon="5.22326">
        <ele>197.1</ele>
        <time>2022-09-24T12:49:53Z</time>
      </trkpt>
      <trkpt lat="45.7645" lon="5.2233">
        <ele>197.2</ele>
        <time>2022-09-24T12:49:54Z</time>
      </trkpt>
      <trkpt lat="45.76447" lon="5.22334">
        <ele>197.4</ele>
        <time>2022-09-24T12:49:55Z</time>
      </trkpt>
      <trkpt lat="45.76443" lon="5.22338">
        <ele>197.6</ele>
        <time>2022-09-24T12:49:56Z</time>
      </trkpt>
      <trkpt lat="45.76439" lon="5.2234">
        <ele>197.7</ele>
        <time>2022-09-24T12:49:57Z</time>
      </trkpt>
      <trkpt lat="45.76437" lon="5.22342">
        <ele>197.8</ele>
        <time>2022-09-24T12:49:58Z</time>
      </trkpt>
      <trkpt lat="45.76433" lon="5.22344">
        <ele>197.9</ele>
        <time>2022-09-24T12:49:59Z</time>
      </trkpt>
      <trkpt lat="45.76428" lon="5.22346">
        <ele>198.1</ele>
        <time>2022-09-24T12:50:00Z</time>
      </trkpt>
      <trkpt lat="45.76426" lon="5.22347">
        <ele>198.1</ele>
        <time>2022-09-24T12:50:01Z</time>
      </trkpt>
      <trkpt lat="45.76423" lon="5.22351">
        <ele>198.2</ele>
        <time>2022-09-24T12:50:02Z</time>
      </trkpt>
      <trkpt lat="45.76419" lon="5.22355">
        <ele>198.4</ele>
        <time>2022-09-24T12:50:03Z</time>
      </trkpt>
      <trkpt lat="45.76417" lon="5.22358">
        <ele>198.4</ele>
        <time>2022-09-24T12:50:04Z</time>
      </trkpt>
      <trkpt lat="45.76414" lon="5.22363">
        <ele>198.5</ele>
        <time>2022-09-24T12:50:05Z</time>
      </trkpt>
      <trkpt lat="45.76412" lon="5.22368">
        <ele>198.6</ele>
        <time>2022-09-24T12:50:06Z</time>
      </trkpt>
      <trkpt lat="45.7641" lon="5.22371">
        <ele>198.7</ele>
        <time>2022-09-24T12:50:07Z</time>
      </trkpt>
      <trkpt lat="45.76408" lon="5.22375">
        <ele>198.7</ele>
        <time>2022-09-24T12:50:08Z</time>
      </trkpt>
      <trkpt lat="45.76406" lon="5.22379">
        <ele>198.8</ele>
        <time>2022-09-24T12:50:09Z</time>
      </trkpt>
      <trkpt lat="45.76405" lon="5.22384">
        <ele>198.9</ele>
        <time>2022-09-24T12:50:10Z</time>
      </trkpt>
      <trkpt lat="45.76403" lon="5.22389">
        <ele>198.9</ele>
        <time>2022-09-24T12:50:11Z</time>
      </trkpt>
      <trkpt lat="45.76402" lon="5.22391">
        <ele>198.9</ele>
        <time>2022-09-24T12:50:12Z</time>
      </trkpt>
      <trkpt lat="45.76401" lon="5.22397">
        <ele>199</ele>
        <time>2022-09-24T12:50:13Z</time>
      </trkpt>
      <trkpt lat="45.76399" lon="5.22404">
        <ele>199</ele>
        <time>2022-09-24T12:50:14Z</time>
      </trkpt>
      <trkpt lat="45.76397" lon="5.22409">
        <ele>199.1</ele>
        <time>2022-09-24T12:50:15Z</time>
      </trkpt>
      <trkpt lat="45.76396" lon="5.22415">
        <ele>199.1</ele>
        <time>2022-09-24T12:50:16Z</time>
      </trkpt>
      <trkpt lat="45.76395" lon="5.2242">
        <ele>199.1</ele>
        <time>2022-09-24T12:50:17Z</time>
      </trkpt>
      <trkpt lat="45.76394" lon="5.22425">
        <ele>199.2</ele>
        <time>2022-09-24T12:50:18Z</time>
      </trkpt>
      <trkpt lat="45.76393" lon="5.2243">
        <ele>199.2</ele>
        <time>2022-09-24T12:50:19Z</time>
      </trkpt>
      <trkpt lat="45.76393" lon="5.22432">
        <ele>199.2</ele>
        <time>2022-09-24T12:50:20Z</time>
      </trkpt>
      <trkpt lat="45.76393" lon="5.22437">
        <ele>199.2</ele>
        <time>2022-09-24T12:50:21Z</time>
      </trkpt>
      <trkpt lat="45.76394" lon="5.22441">
        <ele>199.2</ele>
        <time>2022-09-24T12:50:22Z</time>
      </trkpt>
      <trkpt lat="45.76396" lon="5.22444">
        <ele>199.2</ele>
        <time>2022-09-24T12:50:23Z</time>
      </trkpt>
      <trkpt lat="45.76398" lon="5.22448">
        <ele>199.2</ele>
        <time>2022-09-24T12:50:24Z</time>
      </trkpt>
      <trkpt lat="45.76401" lon="5.2245">
        <ele>199.1</ele>
        <time>2022-09-24T12:50:25Z</time>
      </trkpt>
      <trkpt lat="45.76405" lon="5.22453">
        <ele>199.1</ele>
        <time>2022-09-24T12:50:26Z</time>
      </trkpt>
      <trkpt lat="45.76409" lon="5.22457">
        <ele>199.1</ele>
        <time>2022-09-24T12:50:27Z</time>
      </trkpt>
      <trkpt lat="45.76414" lon="5.22459">
        <ele>199.1</ele>
        <time>2022-09-24T12:50:28Z</time>
      </trkpt>
      <trkpt lat="45.76418" lon="5.22461">
        <ele>199</ele>
        <time>2022-09-24T12:50:29Z</time>
      </trkpt>
      <trkpt lat="45.76423" lon="5.22463">
        <ele>199</ele>
        <time>2022-09-24T12:50:30Z</time>
      </trkpt>
      <trkpt lat="45.76426" lon="5.22466">
        <ele>199</ele>
        <time>2022-09-24T12:50:31Z</time>
      </trkpt>
      <trkpt lat="45.76428" lon="5.22469">
        <ele>198.9</ele>
        <time>2022-09-24T12:50:32Z</time>
      </trkpt>
      <trkpt lat="45.76431" lon="5.22472">
        <ele>198.9</ele>
        <time>2022-09-24T12:50:33Z</time>
      </trkpt>
      <trkpt lat="45.76432" lon="5.22473">
        <ele>198.8</ele>
        <time>2022-09-24T12:50:34Z</time>
      </trkpt>
      <trkpt lat="45.76436" lon="5.22475">
        <ele>198.7</ele>
        <time>2022-09-24T12:50:35Z</time>
      </trkpt>
      <trkpt lat="45.7644" lon="5.22478">
        <ele>198.6</ele>
        <time>2022-09-24T12:50:36Z</time>
      </trkpt>
      <trkpt lat="45.76444" lon="5.2248">
        <ele>198.5</ele>
        <time>2022-09-24T12:50:37Z</time>
      </trkpt>
      <trkpt lat="45.76447" lon="5.22483">
        <ele>198.4</ele>
        <time>2022-09-24T12:50:38Z</time>
      </trkpt>
      <trkpt lat="45.76451" lon="5.22485">
        <ele>198.3</ele>
        <time>2022-09-24T12:50:39Z</time>
      </trkpt>
      <trkpt lat="45.76456" lon="5.22487">
        <ele>198.2</ele>
        <time>2022-09-24T12:50:40Z</time>
      </trkpt>
      <trkpt lat="45.76459" lon="5.2249">
        <ele>198.1</ele>
        <time>2022-09-24T12:50:41Z</time>
      </trkpt>
      <trkpt lat="45.76464" lon="5.22491">
        <ele>198.1</ele>
        <time>2022-09-24T12:50:42Z</time>
      </trkpt>
      <trkpt lat="45.76467" lon="5.22494">
        <ele>198.1</ele>
        <time>2022-09-24T12:50:43Z</time>
      </trkpt>
      <trkpt lat="45.76472" lon="5.22497">
        <ele>198</ele>
        <time>2022-09-24T12:50:44Z</time>
      </trkpt>
      <trkpt lat="45.76475" lon="5.225">
        <ele>198</ele>
        <time>2022-09-24T12:50:45Z</time>
      </trkpt>
      <trkpt lat="45.76478" lon="5.22503">
        <ele>198</ele>
        <time>2022-09-24T12:50:46Z</time>
      </trkpt>
      <trkpt lat="45.76482" lon="5.22506">
        <ele>198.1</ele>
        <time>2022-09-24T12:50:47Z</time>
      </trkpt>
      <trkpt lat="45.76486" lon="5.22509">
        <ele>198.1</ele>
        <time>2022-09-24T12:50:48Z</time>
      </trkpt>
      <trkpt lat="45.7649" lon="5.22512">
        <ele>198.1</ele>
        <time>2022-09-24T12:50:49Z</time>
      </trkpt>
      <trkpt lat="45.76494" lon="5.22515">
        <ele>198.1</ele>
        <time>2022-09-24T12:50:50Z</time>
      </trkpt>
      <trkpt lat="45.76497" lon="5.22518">
        <ele>198.1</ele>
        <time>2022-09-24T12:50:51Z</time>
      </trkpt>
      <trkpt lat="45.76501" lon="5.2252">
        <ele>198.2</ele>
        <time>2022-09-24T12:50:52Z</time>
      </trkpt>
      <trkpt lat="45.76505" lon="5.22522">
        <ele>198.2</ele>
        <time>2022-09-24T12:50:53Z</time>
      </trkpt>
      <trkpt lat="45.76509" lon="5.22525">
        <ele>198.3</ele>
        <time>2022-09-24T12:50:54Z</time>
      </trkpt>
      <trkpt lat="45.76512" lon="5.22528">
        <ele>198.4</ele>
        <time>2022-09-24T12:50:55Z</time>
      </trkpt>
      <trkpt lat="45.76515" lon="5.22532">
        <ele>198.5</ele>
        <time>2022-09-24T12:50:56Z</time>
      </trkpt>
      <trkpt lat="45.76519" lon="5.22535">
        <ele>198.6</ele>
        <time>2022-09-24T12:50:57Z</time>
      </trkpt>
      <trkpt lat="45.76522" lon="5.22538">
        <ele>198.7</ele>
        <time>2022-09-24T12:50:58Z</time>
      </trkpt>
      <trkpt lat="45.76525" lon="5.22542">
        <ele>198.8</ele>
        <time>2022-09-24T12:50:59Z</time>
      </trkpt>
      <trkpt lat="45.76529" lon="5.22545">
        <ele>199</ele>
        <time>2022-09-24T12:51:00Z</time>
      </trkpt>
      <trkpt lat="45.76533" lon="5.22547">
        <ele>199.1</ele>
        <time>2022-09-24T12:51:01Z</time>
      </trkpt>
      <trkpt lat="45.76536" lon="5.22551">
        <ele>199.2</ele>
        <time>2022-09-24T12:51:02Z</time>
      </trkpt>
      <trkpt lat="45.7654" lon="5.22555">
        <ele>199.3</ele>
        <time>2022-09-24T12:51:03Z</time>
      </trkpt>
      <trkpt lat="45.76542" lon="5.22558">
        <ele>199.3</ele>
        <time>2022-09-24T12:51:04Z</time>
      </trkpt>
      <trkpt lat="45.76545" lon="5.22561">
        <ele>199.4</ele>
        <time>2022-09-24T12:51:05Z</time>
      </trkpt>
      <trkpt lat="45.76548" lon="5.22564">
        <ele>199.4</ele>
        <time>2022-09-24T12:51:06Z</time>
      </trkpt>
      <trkpt lat="45.7655" lon="5.22568">
        <ele>199.4</ele>
        <time>2022-09-24T12:51:07Z</time>
      </trkpt>
      <trkpt lat="45.76553" lon="5.22571">
        <ele>199.4</ele>
        <time>2022-09-24T12:51:08Z</time>
      </trkpt>
      <trkpt lat="45.76556" lon="5.22575">
        <ele>199.5</ele>
        <time>2022-09-24T12:51:09Z</time>
      </trkpt>
      <trkpt lat="45.76559" lon="5.22578">
        <ele>199.5</ele>
        <time>2022-09-24T12:51:10Z</time>
      </trkpt>
      <trkpt lat="45.76563" lon="5.22582">
        <ele>199.5</ele>
        <time>2022-09-24T12:51:11Z</time>
      </trkpt>
      <trkpt lat="45.76566" lon="5.22586">
        <ele>199.5</ele>
        <time>2022-09-24T12:51:12Z</time>
      </trkpt>
      <trkpt lat="45.7657" lon="5.2259">
        <ele>199.5</ele>
        <time>2022-09-24T12:51:13Z</time>
      </trkpt>
      <trkpt lat="45.76573" lon="5.22593">
        <ele>199.5</ele>
        <time>2022-09-24T12:51:14Z</time>
      </trkpt>
      <trkpt lat="45.76577" lon="5.22597">
        <ele>199.5</ele>
        <time>2022-09-24T12:51:15Z</time>
      </trkpt>
      <trkpt lat="45.7658" lon="5.22601">
        <ele>199.5</ele>
        <time>2022-09-24T12:51:16Z</time>
      </trkpt>
      <trkpt lat="45.76583" lon="5.22605">
        <ele>199.5</ele>
        <time>2022-09-24T12:51:17Z</time>
      </trkpt>
      <trkpt lat="45.76587" lon="5.22609">
        <ele>199.6</ele>
        <time>2022-09-24T12:51:18Z</time>
      </trkpt>
      <trkpt lat="45.7659" lon="5.22613">
        <ele>199.6</ele>
        <time>2022-09-24T12:51:19Z</time>
      </trkpt>
      <trkpt lat="45.76594" lon="5.22617">
        <ele>199.6</ele>
        <time>2022-09-24T12:51:20Z</time>
      </trkpt>
      <trkpt lat="45.76597" lon="5.22621">
        <ele>199.6</ele>
        <time>2022-09-24T12:51:21Z</time>
      </trkpt>
      <trkpt lat="45.766" lon="5.22625">
        <ele>199.6</ele>
        <time>2022-09-24T12:51:22Z</time>
      </trkpt>
      <trkpt lat="45.76603" lon="5.22629">
        <ele>199.6</ele>
        <time>2022-09-24T12:51:23Z</time>
      </trkpt>
      <trkpt lat="45.76607" lon="5.22633">
        <ele>199.6</ele>
        <time>2022-09-24T12:51:24Z</time>
      </trkpt>
      <trkpt lat="45.76611" lon="5.22637">
        <ele>199.7</ele>
        <time>2022-09-24T12:51:25Z</time>
      </trkpt>
      <trkpt lat="45.76614" lon="5.22641">
        <ele>199.7</ele>
        <time>2022-09-24T12:51:26Z</time>
      </trkpt>
      <trkpt lat="45.76617" lon="5.22645">
        <ele>199.8</ele>
        <time>2022-09-24T12:51:27Z</time>
      </trkpt>
      <trkpt lat="45.76621" lon="5.22649">
        <ele>199.8</ele>
        <time>2022-09-24T12:51:28Z</time>
      </trkpt>
      <trkpt lat="45.76625" lon="5.22653">
        <ele>199.9</ele>
        <time>2022-09-24T12:51:29Z</time>
      </trkpt>
      <trkpt lat="45.76628" lon="5.22657">
        <ele>199.9</ele>
        <time>2022-09-24T12:51:30Z</time>
      </trkpt>
      <trkpt lat="45.76631" lon="5.22662">
        <ele>200</ele>
        <time>2022-09-24T12:51:31Z</time>
      </trkpt>
      <trkpt lat="45.76635" lon="5.22666">
        <ele>200</ele>
        <time>2022-09-24T12:51:32Z</time>
      </trkpt>
      <trkpt lat="45.76639" lon="5.2267">
        <ele>200.1</ele>
        <time>2022-09-24T12:51:33Z</time>
      </trkpt>
      <trkpt lat="45.76642" lon="5.22674">
        <ele>200.1</ele>
        <time>2022-09-24T12:51:34Z</time>
      </trkpt>
      <trkpt lat="45.76645" lon="5.22678">
        <ele>200.2</ele>
        <time>2022-09-24T12:51:35Z</time>
      </trkpt>
      <trkpt lat="45.76649" lon="5.22682">
        <ele>200.2</ele>
        <time>2022-09-24T12:51:36Z</time>
      </trkpt>
      <trkpt lat="45.76652" lon="5.22687">
        <ele>200.3</ele>
        <time>2022-09-24T12:51:37Z</time>
      </trkpt>
      <trkpt lat="45.76656" lon="5.22691">
        <ele>200.4</ele>
        <time>2022-09-24T12:51:38Z</time>
      </trkpt>
      <trkpt lat="45.76659" lon="5.22695">
        <ele>200.5</ele>
        <time>2022-09-24T12:51:39Z</time>
      </trkpt>
      <trkpt lat="45.76662" lon="5.22699">
        <ele>200.5</ele>
        <time>2022-09-24T12:51:40Z</time>
      </trkpt>
      <trkpt lat="45.76665" lon="5.22704">
        <ele>200.6</ele>
        <time>2022-09-24T12:51:41Z</time>
      </trkpt>
      <trkpt lat="45.76667" lon="5.22708">
        <ele>200.7</ele>
        <time>2022-09-24T12:51:42Z</time>
      </trkpt>
      <trkpt lat="45.76671" lon="5.22713">
        <ele>200.7</ele>
        <time>2022-09-24T12:51:43Z</time>
      </trkpt>
      <trkpt lat="45.76674" lon="5.22717">
        <ele>200.8</ele>
        <time>2022-09-24T12:51:44Z</time>
      </trkpt>
      <trkpt lat="45.76677" lon="5.22721">
        <ele>200.8</ele>
        <time>2022-09-24T12:51:45Z</time>
      </trkpt>
      <trkpt lat="45.76681" lon="5.22725">
        <ele>200.9</ele>
        <time>2022-09-24T12:51:46Z</time>
      </trkpt>
      <trkpt lat="45.76684" lon="5.2273">
        <ele>200.9</ele>
        <time>2022-09-24T12:51:47Z</time>
      </trkpt>
      <trkpt lat="45.76687" lon="5.22734">
        <ele>201</ele>
        <time>2022-09-24T12:51:48Z</time>
      </trkpt>
      <trkpt lat="45.7669" lon="5.22739">
        <ele>201</ele>
        <time>2022-09-24T12:51:49Z</time>
      </trkpt>
      <trkpt lat="45.76693" lon="5.22744">
        <ele>201</ele>
        <time>2022-09-24T12:51:50Z</time>
      </trkpt>
      <trkpt lat="45.76695" lon="5.22748">
        <ele>201.1</ele>
        <time>2022-09-24T12:51:51Z</time>
      </trkpt>
      <trkpt lat="45.76698" lon="5.22753">
        <ele>201.1</ele>
        <time>2022-09-24T12:51:52Z</time>
      </trkpt>
      <trkpt lat="45.76701" lon="5.22757">
        <ele>201.1</ele>
        <time>2022-09-24T12:51:53Z</time>
      </trkpt>
      <trkpt lat="45.76704" lon="5.22762">
        <ele>201.1</ele>
        <time>2022-09-24T12:51:54Z</time>
      </trkpt>
      <trkpt lat="45.76707" lon="5.22766">
        <ele>201.1</ele>
        <time>2022-09-24T12:51:55Z</time>
      </trkpt>
      <trkpt lat="45.76711" lon="5.22771">
        <ele>201.1</ele>
        <time>2022-09-24T12:51:56Z</time>
      </trkpt>
      <trkpt lat="45.76714" lon="5.22776">
        <ele>201.1</ele>
        <time>2022-09-24T12:51:57Z</time>
      </trkpt>
      <trkpt lat="45.76718" lon="5.2278">
        <ele>201.1</ele>
        <time>2022-09-24T12:51:58Z</time>
      </trkpt>
      <trkpt lat="45.76721" lon="5.22785">
        <ele>201.2</ele>
        <time>2022-09-24T12:51:59Z</time>
      </trkpt>
      <trkpt lat="45.76725" lon="5.2279">
        <ele>201.2</ele>
        <time>2022-09-24T12:52:00Z</time>
      </trkpt>
      <trkpt lat="45.76728" lon="5.22794">
        <ele>201.2</ele>
        <time>2022-09-24T12:52:01Z</time>
      </trkpt>
      <trkpt lat="45.76732" lon="5.22798">
        <ele>201.3</ele>
        <time>2022-09-24T12:52:02Z</time>
      </trkpt>
      <trkpt lat="45.76735" lon="5.228">
        <ele>201.3</ele>
        <time>2022-09-24T12:52:03Z</time>
      </trkpt>
      <trkpt lat="45.76738" lon="5.22805">
        <ele>201.3</ele>
        <time>2022-09-24T12:52:04Z</time>
      </trkpt>
      <trkpt lat="45.76742" lon="5.2281">
        <ele>201.4</ele>
        <time>2022-09-24T12:52:05Z</time>
      </trkpt>
      <trkpt lat="45.76746" lon="5.22814">
        <ele>201.4</ele>
        <time>2022-09-24T12:52:06Z</time>
      </trkpt>
      <trkpt lat="45.7675" lon="5.22818">
        <ele>201.4</ele>
        <time>2022-09-24T12:52:07Z</time>
      </trkpt>
      <trkpt lat="45.76754" lon="5.22822">
        <ele>201.4</ele>
        <time>2022-09-24T12:52:08Z</time>
      </trkpt>
      <trkpt lat="45.76758" lon="5.22826">
        <ele>201.4</ele>
        <time>2022-09-24T12:52:09Z</time>
      </trkpt>
      <trkpt lat="45.76762" lon="5.22831">
        <ele>201.5</ele>
        <time>2022-09-24T12:52:10Z</time>
      </trkpt>
      <trkpt lat="45.76765" lon="5.22835">
        <ele>201.5</ele>
        <time>2022-09-24T12:52:11Z</time>
      </trkpt>
      <trkpt lat="45.76769" lon="5.22839">
        <ele>201.5</ele>
        <time>2022-09-24T12:52:12Z</time>
      </trkpt>
      <trkpt lat="45.76772" lon="5.22843">
        <ele>201.5</ele>
        <time>2022-09-24T12:52:13Z</time>
      </trkpt>
      <trkpt lat="45.76776" lon="5.22847">
        <ele>201.6</ele>
        <time>2022-09-24T12:52:14Z</time>
      </trkpt>
      <trkpt lat="45.76779" lon="5.22851">
        <ele>201.6</ele>
        <time>2022-09-24T12:52:15Z</time>
      </trkpt>
      <trkpt lat="45.76783" lon="5.22855">
        <ele>201.6</ele>
        <time>2022-09-24T12:52:16Z</time>
      </trkpt>
      <trkpt lat="45.76785" lon="5.22859">
        <ele>201.6</ele>
        <time>2022-09-24T12:52:17Z</time>
      </trkpt>
      <trkpt lat="45.76788" lon="5.22863">
        <ele>201.6</ele>
        <time>2022-09-24T12:52:18Z</time>
      </trkpt>
      <trkpt lat="45.76791" lon="5.22867">
        <ele>201.6</ele>
        <time>2022-09-24T12:52:19Z</time>
      </trkpt>
      <trkpt lat="45.76794" lon="5.22871">
        <ele>201.6</ele>
        <time>2022-09-24T12:52:20Z</time>
      </trkpt>
      <trkpt lat="45.76798" lon="5.22875">
        <ele>201.6</ele>
        <time>2022-09-24T12:52:21Z</time>
      </trkpt>
      <trkpt lat="45.76801" lon="5.22879">
        <ele>201.6</ele>
        <time>2022-09-24T12:52:22Z</time>
      </trkpt>
      <trkpt lat="45.76805" lon="5.22883">
        <ele>201.6</ele>
        <time>2022-09-24T12:52:23Z</time>
      </trkpt>
      <trkpt lat="45.76808" lon="5.22887">
        <ele>201.7</ele>
        <time>2022-09-24T12:52:24Z</time>
      </trkpt>
      <trkpt lat="45.76811" lon="5.22892">
        <ele>201.7</ele>
        <time>2022-09-24T12:52:25Z</time>
      </trkpt>
      <trkpt lat="45.76814" lon="5.22897">
        <ele>201.7</ele>
        <time>2022-09-24T12:52:26Z</time>
      </trkpt>
      <trkpt lat="45.76817" lon="5.22902">
        <ele>201.7</ele>
        <time>2022-09-24T12:52:27Z</time>
      </trkpt>
      <trkpt lat="45.7682" lon="5.22908">
        <ele>201.7</ele>
        <time>2022-09-24T12:52:28Z</time>
      </trkpt>
      <trkpt lat="45.76823" lon="5.22913">
        <ele>201.7</ele>
        <time>2022-09-24T12:52:29Z</time>
      </trkpt>
      <trkpt lat="45.76826" lon="5.22916">
        <ele>201.7</ele>
        <time>2022-09-24T12:52:30Z</time>
      </trkpt>
      <trkpt lat="45.7683" lon="5.22922">
        <ele>201.7</ele>
        <time>2022-09-24T12:52:31Z</time>
      </trkpt>
      <trkpt lat="45.76833" lon="5.22927">
        <ele>201.6</ele>
        <time>2022-09-24T12:52:32Z</time>
      </trkpt>
      <trkpt lat="45.76837" lon="5.22932">
        <ele>201.6</ele>
        <time>2022-09-24T12:52:33Z</time>
      </trkpt>
      <trkpt lat="45.7684" lon="5.22937">
        <ele>201.6</ele>
        <time>2022-09-24T12:52:34Z</time>
      </trkpt>
      <trkpt lat="45.76842" lon="5.22942">
        <ele>201.6</ele>
        <time>2022-09-24T12:52:35Z</time>
      </trkpt>
      <trkpt lat="45.76846" lon="5.22946">
        <ele>201.6</ele>
        <time>2022-09-24T12:52:36Z</time>
      </trkpt>
      <trkpt lat="45.7685" lon="5.22951">
        <ele>201.6</ele>
        <time>2022-09-24T12:52:37Z</time>
      </trkpt>
      <trkpt lat="45.76853" lon="5.22955">
        <ele>201.5</ele>
        <time>2022-09-24T12:52:38Z</time>
      </trkpt>
      <trkpt lat="45.76856" lon="5.2296">
        <ele>201.5</ele>
        <time>2022-09-24T12:52:39Z</time>
      </trkpt>
      <trkpt lat="45.76858" lon="5.22964">
        <ele>201.5</ele>
        <time>2022-09-24T12:52:40Z</time>
      </trkpt>
      <trkpt lat="45.76861" lon="5.22969">
        <ele>201.5</ele>
        <time>2022-09-24T12:52:41Z</time>
      </trkpt>
      <trkpt lat="45.76864" lon="5.22974">
        <ele>201.5</ele>
        <time>2022-09-24T12:52:42Z</time>
      </trkpt>
      <trkpt lat="45.76867" lon="5.22978">
        <ele>201.5</ele>
        <time>2022-09-24T12:52:43Z</time>
      </trkpt>
      <trkpt lat="45.76871" lon="5.22983">
        <ele>201.4</ele>
        <time>2022-09-24T12:52:44Z</time>
      </trkpt>
      <trkpt lat="45.76873" lon="5.22988">
        <ele>201.4</ele>
        <time>2022-09-24T12:52:45Z</time>
      </trkpt>
      <trkpt lat="45.76876" lon="5.22992">
        <ele>201.4</ele>
        <time>2022-09-24T12:52:46Z</time>
      </trkpt>
      <trkpt lat="45.76878" lon="5.22996">
        <ele>201.4</ele>
        <time>2022-09-24T12:52:47Z</time>
      </trkpt>
      <trkpt lat="45.76881" lon="5.23">
        <ele>201.4</ele>
        <time>2022-09-24T12:52:48Z</time>
      </trkpt>
      <trkpt lat="45.76884" lon="5.23004">
        <ele>201.4</ele>
        <time>2022-09-24T12:52:49Z</time>
      </trkpt>
      <trkpt lat="45.76886" lon="5.23009">
        <ele>201.4</ele>
        <time>2022-09-24T12:52:50Z</time>
      </trkpt>
      <trkpt lat="45.76889" lon="5.23013">
        <ele>201.3</ele>
        <time>2022-09-24T12:52:51Z</time>
      </trkpt>
      <trkpt lat="45.76892" lon="5.23017">
        <ele>201.3</ele>
        <time>2022-09-24T12:52:52Z</time>
      </trkpt>
      <trkpt lat="45.76895" lon="5.23022">
        <ele>201.3</ele>
        <time>2022-09-24T12:52:53Z</time>
      </trkpt>
      <trkpt lat="45.76898" lon="5.23026">
        <ele>201.3</ele>
        <time>2022-09-24T12:52:54Z</time>
      </trkpt>
      <trkpt lat="45.76901" lon="5.23031">
        <ele>201.3</ele>
        <time>2022-09-24T12:52:55Z</time>
      </trkpt>
      <trkpt lat="45.76905" lon="5.23035">
        <ele>201.3</ele>
        <time>2022-09-24T12:52:56Z</time>
      </trkpt>
      <trkpt lat="45.76908" lon="5.2304">
        <ele>201.2</ele>
        <time>2022-09-24T12:52:57Z</time>
      </trkpt>
      <trkpt lat="45.76911" lon="5.23044">
        <ele>201.2</ele>
        <time>2022-09-24T12:52:58Z</time>
      </trkpt>
      <trkpt lat="45.76915" lon="5.23049">
        <ele>201.2</ele>
        <time>2022-09-24T12:52:59Z</time>
      </trkpt>
      <trkpt lat="45.76918" lon="5.23053">
        <ele>201.1</ele>
        <time>2022-09-24T12:53:00Z</time>
      </trkpt>
      <trkpt lat="45.76922" lon="5.23058">
        <ele>201.1</ele>
        <time>2022-09-24T12:53:01Z</time>
      </trkpt>
      <trkpt lat="45.76925" lon="5.23063">
        <ele>201.1</ele>
        <time>2022-09-24T12:53:02Z</time>
      </trkpt>
      <trkpt lat="45.76929" lon="5.23067">
        <ele>201.1</ele>
        <time>2022-09-24T12:53:03Z</time>
      </trkpt>
      <trkpt lat="45.76933" lon="5.23071">
        <ele>201</ele>
        <time>2022-09-24T12:53:04Z</time>
      </trkpt>
      <trkpt lat="45.76937" lon="5.23077">
        <ele>201</ele>
        <time>2022-09-24T12:53:05Z</time>
      </trkpt>
      <trkpt lat="45.76941" lon="5.23081">
        <ele>200.9</ele>
        <time>2022-09-24T12:53:06Z</time>
      </trkpt>
      <trkpt lat="45.76944" lon="5.23085">
        <ele>200.9</ele>
        <time>2022-09-24T12:53:07Z</time>
      </trkpt>
      <trkpt lat="45.76948" lon="5.2309">
        <ele>200.9</ele>
        <time>2022-09-24T12:53:08Z</time>
      </trkpt>
      <trkpt lat="45.76952" lon="5.23094">
        <ele>200.8</ele>
        <time>2022-09-24T12:53:09Z</time>
      </trkpt>
      <trkpt lat="45.76956" lon="5.23099">
        <ele>200.8</ele>
        <time>2022-09-24T12:53:10Z</time>
      </trkpt>
      <trkpt lat="45.76958" lon="5.23103">
        <ele>200.7</ele>
        <time>2022-09-24T12:53:11Z</time>
      </trkpt>
      <trkpt lat="45.76962" lon="5.23107">
        <ele>200.7</ele>
        <time>2022-09-24T12:53:12Z</time>
      </trkpt>
      <trkpt lat="45.76966" lon="5.23111">
        <ele>200.6</ele>
        <time>2022-09-24T12:53:13Z</time>
      </trkpt>
      <trkpt lat="45.76969" lon="5.23115">
        <ele>200.6</ele>
        <time>2022-09-24T12:53:14Z</time>
      </trkpt>
      <trkpt lat="45.76973" lon="5.23119">
        <ele>200.6</ele>
        <time>2022-09-24T12:53:15Z</time>
      </trkpt>
      <trkpt lat="45.76976" lon="5.23124">
        <ele>200.5</ele>
        <time>2022-09-24T12:53:16Z</time>
      </trkpt>
      <trkpt lat="45.76979" lon="5.23128">
        <ele>200.5</ele>
        <time>2022-09-24T12:53:17Z</time>
      </trkpt>
      <trkpt lat="45.76983" lon="5.23132">
        <ele>200.4</ele>
        <time>2022-09-24T12:53:18Z</time>
      </trkpt>
      <trkpt lat="45.76986" lon="5.23136">
        <ele>200.4</ele>
        <time>2022-09-24T12:53:19Z</time>
      </trkpt>
      <trkpt lat="45.7699" lon="5.2314">
        <ele>200.4</ele>
        <time>2022-09-24T12:53:20Z</time>
      </trkpt>
      <trkpt lat="45.76993" lon="5.23144">
        <ele>200.3</ele>
        <time>2022-09-24T12:53:21Z</time>
      </trkpt>
      <trkpt lat="45.76997" lon="5.23148">
        <ele>200.3</ele>
        <time>2022-09-24T12:53:22Z</time>
      </trkpt>
      <trkpt lat="45.77" lon="5.23152">
        <ele>200.2</ele>
        <time>2022-09-24T12:53:23Z</time>
      </trkpt>
      <trkpt lat="45.77003" lon="5.23156">
        <ele>200.2</ele>
        <time>2022-09-24T12:53:24Z</time>
      </trkpt>
      <trkpt lat="45.77007" lon="5.23159">
        <ele>200.2</ele>
        <time>2022-09-24T12:53:25Z</time>
      </trkpt>
      <trkpt lat="45.7701" lon="5.23164">
        <ele>200.1</ele>
        <time>2022-09-24T12:53:26Z</time>
      </trkpt>
      <trkpt lat="45.77014" lon="5.23168">
        <ele>200.1</ele>
        <time>2022-09-24T12:53:27Z</time>
      </trkpt>
      <trkpt lat="45.77017" lon="5.23172">
        <ele>200.1</ele>
        <time>2022-09-24T12:53:28Z</time>
      </trkpt>
      <trkpt lat="45.7702" lon="5.23176">
        <ele>200</ele>
        <time>2022-09-24T12:53:29Z</time>
      </trkpt>
      <trkpt lat="45.77024" lon="5.2318">
        <ele>200</ele>
        <time>2022-09-24T12:53:30Z</time>
      </trkpt>
      <trkpt lat="45.77027" lon="5.23184">
        <ele>199.9</ele>
        <time>2022-09-24T12:53:31Z</time>
      </trkpt>
      <trkpt lat="45.7703" lon="5.23188">
        <ele>199.9</ele>
        <time>2022-09-24T12:53:32Z</time>
      </trkpt>
      <trkpt lat="45.77034" lon="5.23192">
        <ele>199.9</ele>
        <time>2022-09-24T12:53:33Z</time>
      </trkpt>
      <trkpt lat="45.77038" lon="5.23196">
        <ele>199.8</ele>
        <time>2022-09-24T12:53:34Z</time>
      </trkpt>
      <trkpt lat="45.77042" lon="5.23199">
        <ele>199.8</ele>
        <time>2022-09-24T12:53:35Z</time>
      </trkpt>
      <trkpt lat="45.77047" lon="5.23204">
        <ele>199.8</ele>
        <time>2022-09-24T12:53:36Z</time>
      </trkpt>
      <trkpt lat="45.77049" lon="5.23208">
        <ele>199.8</ele>
        <time>2022-09-24T12:53:37Z</time>
      </trkpt>
      <trkpt lat="45.77053" lon="5.23213">
        <ele>199.8</ele>
        <time>2022-09-24T12:53:38Z</time>
      </trkpt>
      <trkpt lat="45.77057" lon="5.23216">
        <ele>199.8</ele>
        <time>2022-09-24T12:53:39Z</time>
      </trkpt>
      <trkpt lat="45.77061" lon="5.23221">
        <ele>199.8</ele>
        <time>2022-09-24T12:53:40Z</time>
      </trkpt>
      <trkpt lat="45.77065" lon="5.23225">
        <ele>199.9</ele>
        <time>2022-09-24T12:53:41Z</time>
      </trkpt>
      <trkpt lat="45.77068" lon="5.23229">
        <ele>199.9</ele>
        <time>2022-09-24T12:53:42Z</time>
      </trkpt>
      <trkpt lat="45.77072" lon="5.23234">
        <ele>199.9</ele>
        <time>2022-09-24T12:53:43Z</time>
      </trkpt>
      <trkpt lat="45.77075" lon="5.23238">
        <ele>199.9</ele>
        <time>2022-09-24T12:53:44Z</time>
      </trkpt>
      <trkpt lat="45.77078" lon="5.23243">
        <ele>200</ele>
        <time>2022-09-24T12:53:45Z</time>
      </trkpt>
      <trkpt lat="45.77082" lon="5.23246">
        <ele>200</ele>
        <time>2022-09-24T12:53:46Z</time>
      </trkpt>
      <trkpt lat="45.77086" lon="5.2325">
        <ele>200</ele>
        <time>2022-09-24T12:53:47Z</time>
      </trkpt>
      <trkpt lat="45.77089" lon="5.23255">
        <ele>200</ele>
        <time>2022-09-24T12:53:48Z</time>
      </trkpt>
      <trkpt lat="45.77093" lon="5.23259">
        <ele>200.1</ele>
        <time>2022-09-24T12:53:49Z</time>
      </trkpt>
      <trkpt lat="45.77097" lon="5.23263">
        <ele>200.1</ele>
        <time>2022-09-24T12:53:50Z</time>
      </trkpt>
      <trkpt lat="45.77101" lon="5.23268">
        <ele>200.1</ele>
        <time>2022-09-24T12:53:51Z</time>
      </trkpt>
      <trkpt lat="45.77104" lon="5.23272">
        <ele>200.2</ele>
        <time>2022-09-24T12:53:52Z</time>
      </trkpt>
      <trkpt lat="45.77108" lon="5.23276">
        <ele>200.2</ele>
        <time>2022-09-24T12:53:53Z</time>
      </trkpt>
      <trkpt lat="45.77112" lon="5.2328">
        <ele>200.1</ele>
        <time>2022-09-24T12:53:54Z</time>
      </trkpt>
      <trkpt lat="45.77116" lon="5.23284">
        <ele>200.1</ele>
        <time>2022-09-24T12:53:55Z</time>
      </trkpt>
      <trkpt lat="45.77119" lon="5.23288">
        <ele>200.1</ele>
        <time>2022-09-24T12:53:56Z</time>
      </trkpt>
      <trkpt lat="45.77123" lon="5.23292">
        <ele>200</ele>
        <time>2022-09-24T12:53:57Z</time>
      </trkpt>
      <trkpt lat="45.77126" lon="5.23296">
        <ele>200</ele>
        <time>2022-09-24T12:53:58Z</time>
      </trkpt>
      <trkpt lat="45.7713" lon="5.233">
        <ele>199.9</ele>
        <time>2022-09-24T12:53:59Z</time>
      </trkpt>
      <trkpt lat="45.77134" lon="5.23305">
        <ele>199.7</ele>
        <time>2022-09-24T12:54:00Z</time>
      </trkpt>
      <trkpt lat="45.77137" lon="5.23309">
        <ele>199.6</ele>
        <time>2022-09-24T12:54:01Z</time>
      </trkpt>
      <trkpt lat="45.77141" lon="5.23314">
        <ele>199.4</ele>
        <time>2022-09-24T12:54:02Z</time>
      </trkpt>
      <trkpt lat="45.77145" lon="5.23318">
        <ele>199.2</ele>
        <time>2022-09-24T12:54:03Z</time>
      </trkpt>
      <trkpt lat="45.7715" lon="5.23323">
        <ele>199</ele>
        <time>2022-09-24T12:54:04Z</time>
      </trkpt>
      <trkpt lat="45.77154" lon="5.23329">
        <ele>198.8</ele>
        <time>2022-09-24T12:54:05Z</time>
      </trkpt>
      <trkpt lat="45.77159" lon="5.23334">
        <ele>198.6</ele>
        <time>2022-09-24T12:54:06Z</time>
      </trkpt>
      <trkpt lat="45.77163" lon="5.2334">
        <ele>198.4</ele>
        <time>2022-09-24T12:54:07Z</time>
      </trkpt>
      <trkpt lat="45.77168" lon="5.23346">
        <ele>198.2</ele>
        <time>2022-09-24T12:54:08Z</time>
      </trkpt>
      <trkpt lat="45.77172" lon="5.23352">
        <ele>198</ele>
        <time>2022-09-24T12:54:09Z</time>
      </trkpt>
      <trkpt lat="45.77177" lon="5.23359">
        <ele>197.9</ele>
        <time>2022-09-24T12:54:10Z</time>
      </trkpt>
      <trkpt lat="45.77182" lon="5.23364">
        <ele>197.8</ele>
        <time>2022-09-24T12:54:11Z</time>
      </trkpt>
      <trkpt lat="45.77186" lon="5.2337">
        <ele>197.6</ele>
        <time>2022-09-24T12:54:12Z</time>
      </trkpt>
      <trkpt lat="45.7719" lon="5.23376">
        <ele>197.6</ele>
        <time>2022-09-24T12:54:13Z</time>
      </trkpt>
      <trkpt lat="45.77195" lon="5.23382">
        <ele>197.5</ele>
        <time>2022-09-24T12:54:14Z</time>
      </trkpt>
      <trkpt lat="45.77199" lon="5.23388">
        <ele>197.5</ele>
        <time>2022-09-24T12:54:15Z</time>
      </trkpt>
      <trkpt lat="45.77204" lon="5.23394">
        <ele>197.5</ele>
        <time>2022-09-24T12:54:16Z</time>
      </trkpt>
      <trkpt lat="45.77207" lon="5.23401">
        <ele>197.5</ele>
        <time>2022-09-24T12:54:17Z</time>
      </trkpt>
      <trkpt lat="45.77211" lon="5.23407">
        <ele>197.5</ele>
        <time>2022-09-24T12:54:18Z</time>
      </trkpt>
      <trkpt lat="45.77216" lon="5.23414">
        <ele>197.5</ele>
        <time>2022-09-24T12:54:19Z</time>
      </trkpt>
      <trkpt lat="45.7722" lon="5.23419">
        <ele>197.5</ele>
        <time>2022-09-24T12:54:20Z</time>
      </trkpt>
      <trkpt lat="45.77224" lon="5.23425">
        <ele>197.6</ele>
        <time>2022-09-24T12:54:21Z</time>
      </trkpt>
      <trkpt lat="45.77228" lon="5.2343">
        <ele>197.6</ele>
        <time>2022-09-24T12:54:22Z</time>
      </trkpt>
      <trkpt lat="45.77232" lon="5.23436">
        <ele>197.7</ele>
        <time>2022-09-24T12:54:23Z</time>
      </trkpt>
      <trkpt lat="45.77236" lon="5.23442">
        <ele>197.8</ele>
        <time>2022-09-24T12:54:24Z</time>
      </trkpt>
      <trkpt lat="45.7724" lon="5.23447">
        <ele>197.8</ele>
        <time>2022-09-24T12:54:25Z</time>
      </trkpt>
      <trkpt lat="45.77243" lon="5.23453">
        <ele>197.9</ele>
        <time>2022-09-24T12:54:26Z</time>
      </trkpt>
      <trkpt lat="45.77247" lon="5.23458">
        <ele>198</ele>
        <time>2022-09-24T12:54:27Z</time>
      </trkpt>
      <trkpt lat="45.77251" lon="5.23463">
        <ele>198</ele>
        <time>2022-09-24T12:54:28Z</time>
      </trkpt>
      <trkpt lat="45.77255" lon="5.23468">
        <ele>198.1</ele>
        <time>2022-09-24T12:54:29Z</time>
      </trkpt>
      <trkpt lat="45.77258" lon="5.23474">
        <ele>198.1</ele>
        <time>2022-09-24T12:54:30Z</time>
      </trkpt>
      <trkpt lat="45.77262" lon="5.23479">
        <ele>198.2</ele>
        <time>2022-09-24T12:54:31Z</time>
      </trkpt>
      <trkpt lat="45.77265" lon="5.23484">
        <ele>198.2</ele>
        <time>2022-09-24T12:54:32Z</time>
      </trkpt>
      <trkpt lat="45.77269" lon="5.23489">
        <ele>198.2</ele>
        <time>2022-09-24T12:54:33Z</time>
      </trkpt>
      <trkpt lat="45.77272" lon="5.23494">
        <ele>198.2</ele>
        <time>2022-09-24T12:54:34Z</time>
      </trkpt>
      <trkpt lat="45.77276" lon="5.235">
        <ele>198.2</ele>
        <time>2022-09-24T12:54:35Z</time>
      </trkpt>
      <trkpt lat="45.77279" lon="5.23505">
        <ele>198.2</ele>
        <time>2022-09-24T12:54:36Z</time>
      </trkpt>
      <trkpt lat="45.77282" lon="5.2351">
        <ele>198.2</ele>
        <time>2022-09-24T12:54:37Z</time>
      </trkpt>
      <trkpt lat="45.77285" lon="5.23516">
        <ele>198.2</ele>
        <time>2022-09-24T12:54:38Z</time>
      </trkpt>
      <trkpt lat="45.77289" lon="5.2352">
        <ele>198.1</ele>
        <time>2022-09-24T12:54:39Z</time>
      </trkpt>
      <trkpt lat="45.77291" lon="5.23526">
        <ele>198.1</ele>
        <time>2022-09-24T12:54:40Z</time>
      </trkpt>
      <trkpt lat="45.77295" lon="5.23532">
        <ele>198.1</ele>
        <time>2022-09-24T12:54:41Z</time>
      </trkpt>
      <trkpt lat="45.77298" lon="5.23537">
        <ele>198</ele>
        <time>2022-09-24T12:54:42Z</time>
      </trkpt>
      <trkpt lat="45.77301" lon="5.23543">
        <ele>198</ele>
        <time>2022-09-24T12:54:43Z</time>
      </trkpt>
      <trkpt lat="45.77304" lon="5.23549">
        <ele>198</ele>
        <time>2022-09-24T12:54:44Z</time>
      </trkpt>
      <trkpt lat="45.77307" lon="5.23555">
        <ele>198</ele>
        <time>2022-09-24T12:54:45Z</time>
      </trkpt>
      <trkpt lat="45.77311" lon="5.2356">
        <ele>198</ele>
        <time>2022-09-24T12:54:46Z</time>
      </trkpt>
      <trkpt lat="45.77314" lon="5.23566">
        <ele>198</ele>
        <time>2022-09-24T12:54:47Z</time>
      </trkpt>
      <trkpt lat="45.77316" lon="5.23571">
        <ele>198</ele>
        <time>2022-09-24T12:54:48Z</time>
      </trkpt>
      <trkpt lat="45.7732" lon="5.23577">
        <ele>198.1</ele>
        <time>2022-09-24T12:54:49Z</time>
      </trkpt>
      <trkpt lat="45.77322" lon="5.23582">
        <ele>198.1</ele>
        <time>2022-09-24T12:54:50Z</time>
      </trkpt>
      <trkpt lat="45.77325" lon="5.23587">
        <ele>198.1</ele>
        <time>2022-09-24T12:54:51Z</time>
      </trkpt>
      <trkpt lat="45.77329" lon="5.23591">
        <ele>198.2</ele>
        <time>2022-09-24T12:54:52Z</time>
      </trkpt>
      <trkpt lat="45.77331" lon="5.23595">
        <ele>198.2</ele>
        <time>2022-09-24T12:54:53Z</time>
      </trkpt>
      <trkpt lat="45.77333" lon="5.236">
        <ele>198.2</ele>
        <time>2022-09-24T12:54:54Z</time>
      </trkpt>
      <trkpt lat="45.77336" lon="5.23604">
        <ele>198.3</ele>
        <time>2022-09-24T12:54:55Z</time>
      </trkpt>
      <trkpt lat="45.77339" lon="5.23609">
        <ele>198.3</ele>
        <time>2022-09-24T12:54:56Z</time>
      </trkpt>
      <trkpt lat="45.77342" lon="5.23613">
        <ele>198.3</ele>
        <time>2022-09-24T12:54:57Z</time>
      </trkpt>
      <trkpt lat="45.77345" lon="5.23619">
        <ele>198.4</ele>
        <time>2022-09-24T12:54:58Z</time>
      </trkpt>
      <trkpt lat="45.77347" lon="5.23624">
        <ele>198.4</ele>
        <time>2022-09-24T12:54:59Z</time>
      </trkpt>
      <trkpt lat="45.77351" lon="5.23627">
        <ele>198.5</ele>
        <time>2022-09-24T12:55:00Z</time>
      </trkpt>
      <trkpt lat="45.77353" lon="5.23632">
        <ele>198.6</ele>
        <time>2022-09-24T12:55:01Z</time>
      </trkpt>
      <trkpt lat="45.77356" lon="5.23636">
        <ele>198.7</ele>
        <time>2022-09-24T12:55:02Z</time>
      </trkpt>
      <trkpt lat="45.77359" lon="5.23641">
        <ele>198.8</ele>
        <time>2022-09-24T12:55:03Z</time>
      </trkpt>
      <trkpt lat="45.77361" lon="5.23645">
        <ele>198.9</ele>
        <time>2022-09-24T12:55:04Z</time>
      </trkpt>
      <trkpt lat="45.77364" lon="5.2365">
        <ele>199</ele>
        <time>2022-09-24T12:55:05Z</time>
      </trkpt>
      <trkpt lat="45.77367" lon="5.23654">
        <ele>199.1</ele>
        <time>2022-09-24T12:55:06Z</time>
      </trkpt>
      <trkpt lat="45.77368" lon="5.23658">
        <ele>199.2</ele>
        <time>2022-09-24T12:55:07Z</time>
      </trkpt>
      <trkpt lat="45.77371" lon="5.23662">
        <ele>199.3</ele>
        <time>2022-09-24T12:55:08Z</time>
      </trkpt>
      <trkpt lat="45.77374" lon="5.23666">
        <ele>199.5</ele>
        <time>2022-09-24T12:55:09Z</time>
      </trkpt>
      <trkpt lat="45.77377" lon="5.2367">
        <ele>199.6</ele>
        <time>2022-09-24T12:55:10Z</time>
      </trkpt>
      <trkpt lat="45.77378" lon="5.23675">
        <ele>199.7</ele>
        <time>2022-09-24T12:55:11Z</time>
      </trkpt>
      <trkpt lat="45.77381" lon="5.23679">
        <ele>199.8</ele>
        <time>2022-09-24T12:55:12Z</time>
      </trkpt>
      <trkpt lat="45.77384" lon="5.23684">
        <ele>200</ele>
        <time>2022-09-24T12:55:13Z</time>
      </trkpt>
      <trkpt lat="45.77386" lon="5.23691">
        <ele>200.2</ele>
        <time>2022-09-24T12:55:14Z</time>
      </trkpt>
      <trkpt lat="45.77389" lon="5.23697">
        <ele>200.4</ele>
        <time>2022-09-24T12:55:15Z</time>
      </trkpt>
      <trkpt lat="45.77393" lon="5.23702">
        <ele>200.5</ele>
        <time>2022-09-24T12:55:16Z</time>
      </trkpt>
      <trkpt lat="45.77396" lon="5.23706">
        <ele>200.7</ele>
        <time>2022-09-24T12:55:17Z</time>
      </trkpt>
      <trkpt lat="45.77399" lon="5.2371">
        <ele>200.9</ele>
        <time>2022-09-24T12:55:18Z</time>
      </trkpt>
      <trkpt lat="45.77401" lon="5.23716">
        <ele>201</ele>
        <time>2022-09-24T12:55:19Z</time>
      </trkpt>
      <trkpt lat="45.77401" lon="5.2372">
        <ele>201.1</ele>
        <time>2022-09-24T12:55:20Z</time>
      </trkpt>
      <trkpt lat="45.77404" lon="5.23725">
        <ele>201.3</ele>
        <time>2022-09-24T12:55:21Z</time>
      </trkpt>
      <trkpt lat="45.77406" lon="5.23729">
        <ele>201.5</ele>
        <time>2022-09-24T12:55:22Z</time>
      </trkpt>
      <trkpt lat="45.77408" lon="5.23734">
        <ele>201.6</ele>
        <time>2022-09-24T12:55:23Z</time>
      </trkpt>
      <trkpt lat="45.7741" lon="5.23738">
        <ele>201.8</ele>
        <time>2022-09-24T12:55:24Z</time>
      </trkpt>
      <trkpt lat="45.77412" lon="5.23743">
        <ele>201.9</ele>
        <time>2022-09-24T12:55:25Z</time>
      </trkpt>
      <trkpt lat="45.77414" lon="5.23747">
        <ele>202</ele>
        <time>2022-09-24T12:55:26Z</time>
      </trkpt>
      <trkpt lat="45.77416" lon="5.23751">
        <ele>202.2</ele>
        <time>2022-09-24T12:55:27Z</time>
      </trkpt>
      <trkpt lat="45.77417" lon="5.23755">
        <ele>202.3</ele>
        <time>2022-09-24T12:55:28Z</time>
      </trkpt>
      <trkpt lat="45.77419" lon="5.23759">
        <ele>202.4</ele>
        <time>2022-09-24T12:55:29Z</time>
      </trkpt>
      <trkpt lat="45.77422" lon="5.23763">
        <ele>202.4</ele>
        <time>2022-09-24T12:55:30Z</time>
      </trkpt>
      <trkpt lat="45.77423" lon="5.23767">
        <ele>202.5</ele>
        <time>2022-09-24T12:55:31Z</time>
      </trkpt>
      <trkpt lat="45.77425" lon="5.23771">
        <ele>202.6</ele>
        <time>2022-09-24T12:55:32Z</time>
      </trkpt>
      <trkpt lat="45.77428" lon="5.23775">
        <ele>202.6</ele>
        <time>2022-09-24T12:55:33Z</time>
      </trkpt>
      <trkpt lat="45.7743" lon="5.23779">
        <ele>202.7</ele>
        <time>2022-09-24T12:55:34Z</time>
      </trkpt>
      <trkpt lat="45.77431" lon="5.23784">
        <ele>202.7</ele>
        <time>2022-09-24T12:55:35Z</time>
      </trkpt>
      <trkpt lat="45.77434" lon="5.23788">
        <ele>202.7</ele>
        <time>2022-09-24T12:55:36Z</time>
      </trkpt>
      <trkpt lat="45.77436" lon="5.23792">
        <ele>202.8</ele>
        <time>2022-09-24T12:55:37Z</time>
      </trkpt>
      <trkpt lat="45.77438" lon="5.23797">
        <ele>202.8</ele>
        <time>2022-09-24T12:55:38Z</time>
      </trkpt>
      <trkpt lat="45.77441" lon="5.23801">
        <ele>202.8</ele>
        <time>2022-09-24T12:55:39Z</time>
      </trkpt>
      <trkpt lat="45.77442" lon="5.23805">
        <ele>202.8</ele>
        <time>2022-09-24T12:55:40Z</time>
      </trkpt>
      <trkpt lat="45.77444" lon="5.2381">
        <ele>202.8</ele>
        <time>2022-09-24T12:55:41Z</time>
      </trkpt>
      <trkpt lat="45.77447" lon="5.23814">
        <ele>202.9</ele>
        <time>2022-09-24T12:55:42Z</time>
      </trkpt>
      <trkpt lat="45.77449" lon="5.23818">
        <ele>202.9</ele>
        <time>2022-09-24T12:55:43Z</time>
      </trkpt>
      <trkpt lat="45.7745" lon="5.23822">
        <ele>202.9</ele>
        <time>2022-09-24T12:55:44Z</time>
      </trkpt>
      <trkpt lat="45.77451" lon="5.23828">
        <ele>202.9</ele>
        <time>2022-09-24T12:55:45Z</time>
      </trkpt>
      <trkpt lat="45.77455" lon="5.23832">
        <ele>202.9</ele>
        <time>2022-09-24T12:55:46Z</time>
      </trkpt>
      <trkpt lat="45.77457" lon="5.23836">
        <ele>203</ele>
        <time>2022-09-24T12:55:47Z</time>
      </trkpt>
      <trkpt lat="45.77459" lon="5.23842">
        <ele>203</ele>
        <time>2022-09-24T12:55:48Z</time>
      </trkpt>
      <trkpt lat="45.7746" lon="5.23846">
        <ele>203</ele>
        <time>2022-09-24T12:55:49Z</time>
      </trkpt>
      <trkpt lat="45.77462" lon="5.23851">
        <ele>203.1</ele>
        <time>2022-09-24T12:55:50Z</time>
      </trkpt>
      <trkpt lat="45.77464" lon="5.23854">
        <ele>203.1</ele>
        <time>2022-09-24T12:55:51Z</time>
      </trkpt>
      <trkpt lat="45.77467" lon="5.23858">
        <ele>203.2</ele>
        <time>2022-09-24T12:55:52Z</time>
      </trkpt>
      <trkpt lat="45.7747" lon="5.23863">
        <ele>203.2</ele>
        <time>2022-09-24T12:55:53Z</time>
      </trkpt>
      <trkpt lat="45.77473" lon="5.23868">
        <ele>203.3</ele>
        <time>2022-09-24T12:55:54Z</time>
      </trkpt>
      <trkpt lat="45.77476" lon="5.23874">
        <ele>203.3</ele>
        <time>2022-09-24T12:55:55Z</time>
      </trkpt>
      <trkpt lat="45.7748" lon="5.23879">
        <ele>203.4</ele>
        <time>2022-09-24T12:55:56Z</time>
      </trkpt>
      <trkpt lat="45.77483" lon="5.23883">
        <ele>203.4</ele>
        <time>2022-09-24T12:55:57Z</time>
      </trkpt>
      <trkpt lat="45.77485" lon="5.23889">
        <ele>203.4</ele>
        <time>2022-09-24T12:55:58Z</time>
      </trkpt>
      <trkpt lat="45.77486" lon="5.23894">
        <ele>203.4</ele>
        <time>2022-09-24T12:55:59Z</time>
      </trkpt>
      <trkpt lat="45.77489" lon="5.239">
        <ele>203.5</ele>
        <time>2022-09-24T12:56:00Z</time>
      </trkpt>
      <trkpt lat="45.77491" lon="5.23904">
        <ele>203.5</ele>
        <time>2022-09-24T12:56:01Z</time>
      </trkpt>
      <trkpt lat="45.77493" lon="5.23908">
        <ele>203.5</ele>
        <time>2022-09-24T12:56:02Z</time>
      </trkpt>
      <trkpt lat="45.77496" lon="5.23915">
        <ele>203.5</ele>
        <time>2022-09-24T12:56:03Z</time>
      </trkpt>
      <trkpt lat="45.775" lon="5.2392">
        <ele>203.5</ele>
        <time>2022-09-24T12:56:04Z</time>
      </trkpt>
      <trkpt lat="45.77503" lon="5.23926">
        <ele>203.5</ele>
        <time>2022-09-24T12:56:05Z</time>
      </trkpt>
      <trkpt lat="45.77506" lon="5.23928">
        <ele>203.5</ele>
        <time>2022-09-24T12:56:06Z</time>
      </trkpt>
      <trkpt lat="45.77509" lon="5.23933">
        <ele>203.5</ele>
        <time>2022-09-24T12:56:07Z</time>
      </trkpt>
      <trkpt lat="45.77513" lon="5.23939">
        <ele>203.5</ele>
        <time>2022-09-24T12:56:08Z</time>
      </trkpt>
      <trkpt lat="45.77516" lon="5.23945">
        <ele>203.4</ele>
        <time>2022-09-24T12:56:09Z</time>
      </trkpt>
      <trkpt lat="45.77519" lon="5.23949">
        <ele>203.4</ele>
        <time>2022-09-24T12:56:10Z</time>
      </trkpt>
      <trkpt lat="45.77522" lon="5.23954">
        <ele>203.5</ele>
        <time>2022-09-24T12:56:11Z</time>
      </trkpt>
      <trkpt lat="45.77524" lon="5.23959">
        <ele>203.5</ele>
        <time>2022-09-24T12:56:12Z</time>
      </trkpt>
      <trkpt lat="45.77528" lon="5.23964">
        <ele>203.5</ele>
        <time>2022-09-24T12:56:13Z</time>
      </trkpt>
      <trkpt lat="45.77531" lon="5.23968">
        <ele>203.5</ele>
        <time>2022-09-24T12:56:14Z</time>
      </trkpt>
      <trkpt lat="45.77534" lon="5.23972">
        <ele>203.5</ele>
        <time>2022-09-24T12:56:15Z</time>
      </trkpt>
      <trkpt lat="45.77538" lon="5.23977">
        <ele>203.5</ele>
        <time>2022-09-24T12:56:16Z</time>
      </trkpt>
      <trkpt lat="45.77541" lon="5.23984">
        <ele>203.5</ele>
        <time>2022-09-24T12:56:17Z</time>
      </trkpt>
      <trkpt lat="45.77545" lon="5.23989">
        <ele>203.5</ele>
        <time>2022-09-24T12:56:18Z</time>
      </trkpt>
      <trkpt lat="45.77549" lon="5.23993">
        <ele>203.5</ele>
        <time>2022-09-24T12:56:19Z</time>
      </trkpt>
      <trkpt lat="45.77554" lon="5.23999">
        <ele>203.5</ele>
        <time>2022-09-24T12:56:20Z</time>
      </trkpt>
      <trkpt lat="45.77557" lon="5.24004">
        <ele>203.5</ele>
        <time>2022-09-24T12:56:21Z</time>
      </trkpt>
      <trkpt lat="45.77562" lon="5.24009">
        <ele>203.5</ele>
        <time>2022-09-24T12:56:22Z</time>
      </trkpt>
      <trkpt lat="45.77566" lon="5.24013">
        <ele>203.5</ele>
        <time>2022-09-24T12:56:23Z</time>
      </trkpt>
      <trkpt lat="45.77569" lon="5.24018">
        <ele>203.5</ele>
        <time>2022-09-24T12:56:24Z</time>
      </trkpt>
      <trkpt lat="45.77573" lon="5.24024">
        <ele>203.5</ele>
        <time>2022-09-24T12:56:25Z</time>
      </trkpt>
      <trkpt lat="45.77576" lon="5.24029">
        <ele>203.5</ele>
        <time>2022-09-24T12:56:26Z</time>
      </trkpt>
      <trkpt lat="45.77579" lon="5.24033">
        <ele>203.5</ele>
        <time>2022-09-24T12:56:27Z</time>
      </trkpt>
      <trkpt lat="45.77583" lon="5.24038">
        <ele>203.5</ele>
        <time>2022-09-24T12:56:28Z</time>
      </trkpt>
      <trkpt lat="45.77586" lon="5.24042">
        <ele>203.5</ele>
        <time>2022-09-24T12:56:29Z</time>
      </trkpt>
      <trkpt lat="45.7759" lon="5.24047">
        <ele>203.5</ele>
        <time>2022-09-24T12:56:30Z</time>
      </trkpt>
      <trkpt lat="45.77593" lon="5.24052">
        <ele>203.5</ele>
        <time>2022-09-24T12:56:31Z</time>
      </trkpt>
      <trkpt lat="45.77596" lon="5.24056">
        <ele>203.5</ele>
        <time>2022-09-24T12:56:32Z</time>
      </trkpt>
      <trkpt lat="45.776" lon="5.24061">
        <ele>203.5</ele>
        <time>2022-09-24T12:56:33Z</time>
      </trkpt>
      <trkpt lat="45.77603" lon="5.24065">
        <ele>203.5</ele>
        <time>2022-09-24T12:56:34Z</time>
      </trkpt>
      <trkpt lat="45.77606" lon="5.2407">
        <ele>203.5</ele>
        <time>2022-09-24T12:56:35Z</time>
      </trkpt>
      <trkpt lat="45.77609" lon="5.24075">
        <ele>203.4</ele>
        <time>2022-09-24T12:56:36Z</time>
      </trkpt>
      <trkpt lat="45.77613" lon="5.24079">
        <ele>203.4</ele>
        <time>2022-09-24T12:56:37Z</time>
      </trkpt>
      <trkpt lat="45.77617" lon="5.24084">
        <ele>203.4</ele>
        <time>2022-09-24T12:56:38Z</time>
      </trkpt>
      <trkpt lat="45.7762" lon="5.24089">
        <ele>203.4</ele>
        <time>2022-09-24T12:56:39Z</time>
      </trkpt>
      <trkpt lat="45.77624" lon="5.24094">
        <ele>203.4</ele>
        <time>2022-09-24T12:56:40Z</time>
      </trkpt>
      <trkpt lat="45.77627" lon="5.24099">
        <ele>203.4</ele>
        <time>2022-09-24T12:56:41Z</time>
      </trkpt>
      <trkpt lat="45.7763" lon="5.24104">
        <ele>203.3</ele>
        <time>2022-09-24T12:56:42Z</time>
      </trkpt>
      <trkpt lat="45.77634" lon="5.24108">
        <ele>203.3</ele>
        <time>2022-09-24T12:56:43Z</time>
      </trkpt>
      <trkpt lat="45.77637" lon="5.24113">
        <ele>203.3</ele>
        <time>2022-09-24T12:56:44Z</time>
      </trkpt>
      <trkpt lat="45.77641" lon="5.24118">
        <ele>203.3</ele>
        <time>2022-09-24T12:56:45Z</time>
      </trkpt>
      <trkpt lat="45.77645" lon="5.24122">
        <ele>203.3</ele>
        <time>2022-09-24T12:56:46Z</time>
      </trkpt>
      <trkpt lat="45.77648" lon="5.24127">
        <ele>203.3</ele>
        <time>2022-09-24T12:56:47Z</time>
      </trkpt>
      <trkpt lat="45.77651" lon="5.24133">
        <ele>203.3</ele>
        <time>2022-09-24T12:56:48Z</time>
      </trkpt>
      <trkpt lat="45.77655" lon="5.24137">
        <ele>203.2</ele>
        <time>2022-09-24T12:56:49Z</time>
      </trkpt>
      <trkpt lat="45.77658" lon="5.24142">
        <ele>203.2</ele>
        <time>2022-09-24T12:56:50Z</time>
      </trkpt>
      <trkpt lat="45.77662" lon="5.24147">
        <ele>203.2</ele>
        <time>2022-09-24T12:56:51Z</time>
      </trkpt>
      <trkpt lat="45.77665" lon="5.24151">
        <ele>203.2</ele>
        <time>2022-09-24T12:56:52Z</time>
      </trkpt>
      <trkpt lat="45.77668" lon="5.24156">
        <ele>203.2</ele>
        <time>2022-09-24T12:56:53Z</time>
      </trkpt>
      <trkpt lat="45.77671" lon="5.24161">
        <ele>203.1</ele>
        <time>2022-09-24T12:56:54Z</time>
      </trkpt>
      <trkpt lat="45.77674" lon="5.24167">
        <ele>203.1</ele>
        <time>2022-09-24T12:56:55Z</time>
      </trkpt>
      <trkpt lat="45.77677" lon="5.24172">
        <ele>203.1</ele>
        <time>2022-09-24T12:56:56Z</time>
      </trkpt>
      <trkpt lat="45.7768" lon="5.24178">
        <ele>203</ele>
        <time>2022-09-24T12:56:57Z</time>
      </trkpt>
      <trkpt lat="45.77683" lon="5.24182">
        <ele>203</ele>
        <time>2022-09-24T12:56:58Z</time>
      </trkpt>
      <trkpt lat="45.77686" lon="5.24187">
        <ele>203</ele>
        <time>2022-09-24T12:56:59Z</time>
      </trkpt>
      <trkpt lat="45.77689" lon="5.24192">
        <ele>202.9</ele>
        <time>2022-09-24T12:57:00Z</time>
      </trkpt>
      <trkpt lat="45.77692" lon="5.24197">
        <ele>202.9</ele>
        <time>2022-09-24T12:57:01Z</time>
      </trkpt>
      <trkpt lat="45.77695" lon="5.24203">
        <ele>202.9</ele>
        <time>2022-09-24T12:57:02Z</time>
      </trkpt>
      <trkpt lat="45.77699" lon="5.24208">
        <ele>202.9</ele>
        <time>2022-09-24T12:57:03Z</time>
      </trkpt>
      <trkpt lat="45.77703" lon="5.24213">
        <ele>202.9</ele>
        <time>2022-09-24T12:57:04Z</time>
      </trkpt>
      <trkpt lat="45.77707" lon="5.24219">
        <ele>202.9</ele>
        <time>2022-09-24T12:57:05Z</time>
      </trkpt>
      <trkpt lat="45.7771" lon="5.24225">
        <ele>202.9</ele>
        <time>2022-09-24T12:57:06Z</time>
      </trkpt>
      <trkpt lat="45.77713" lon="5.24229">
        <ele>203</ele>
        <time>2022-09-24T12:57:07Z</time>
      </trkpt>
      <trkpt lat="45.77717" lon="5.24234">
        <ele>203</ele>
        <time>2022-09-24T12:57:08Z</time>
      </trkpt>
      <trkpt lat="45.77719" lon="5.24239">
        <ele>203.1</ele>
        <time>2022-09-24T12:57:09Z</time>
      </trkpt>
      <trkpt lat="45.77722" lon="5.24244">
        <ele>203.1</ele>
        <time>2022-09-24T12:57:10Z</time>
      </trkpt>
      <trkpt lat="45.77725" lon="5.24249">
        <ele>203.2</ele>
        <time>2022-09-24T12:57:11Z</time>
      </trkpt>
      <trkpt lat="45.77727" lon="5.24253">
        <ele>203.2</ele>
        <time>2022-09-24T12:57:12Z</time>
      </trkpt>
      <trkpt lat="45.7773" lon="5.24257">
        <ele>203.3</ele>
        <time>2022-09-24T12:57:13Z</time>
      </trkpt>
      <trkpt lat="45.77732" lon="5.24261">
        <ele>203.3</ele>
        <time>2022-09-24T12:57:14Z</time>
      </trkpt>
      <trkpt lat="45.77735" lon="5.24265">
        <ele>203.4</ele>
        <time>2022-09-24T12:57:15Z</time>
      </trkpt>
      <trkpt lat="45.77738" lon="5.24269">
        <ele>203.4</ele>
        <time>2022-09-24T12:57:16Z</time>
      </trkpt>
      <trkpt lat="45.7774" lon="5.24274">
        <ele>203.5</ele>
        <time>2022-09-24T12:57:17Z</time>
      </trkpt>
      <trkpt lat="45.77743" lon="5.24278">
        <ele>203.5</ele>
        <time>2022-09-24T12:57:18Z</time>
      </trkpt>
      <trkpt lat="45.77745" lon="5.24282">
        <ele>203.6</ele>
        <time>2022-09-24T12:57:19Z</time>
      </trkpt>
      <trkpt lat="45.77748" lon="5.24286">
        <ele>203.6</ele>
        <time>2022-09-24T12:57:20Z</time>
      </trkpt>
      <trkpt lat="45.77751" lon="5.24291">
        <ele>203.6</ele>
        <time>2022-09-24T12:57:21Z</time>
      </trkpt>
      <trkpt lat="45.77754" lon="5.24296">
        <ele>203.6</ele>
        <time>2022-09-24T12:57:22Z</time>
      </trkpt>
      <trkpt lat="45.77756" lon="5.24301">
        <ele>203.6</ele>
        <time>2022-09-24T12:57:23Z</time>
      </trkpt>
      <trkpt lat="45.7776" lon="5.24306">
        <ele>203.6</ele>
        <time>2022-09-24T12:57:24Z</time>
      </trkpt>
      <trkpt lat="45.77763" lon="5.24311">
        <ele>203.6</ele>
        <time>2022-09-24T12:57:25Z</time>
      </trkpt>
      <trkpt lat="45.77765" lon="5.24317">
        <ele>203.6</ele>
        <time>2022-09-24T12:57:26Z</time>
      </trkpt>
      <trkpt lat="45.77768" lon="5.24322">
        <ele>203.7</ele>
        <time>2022-09-24T12:57:27Z</time>
      </trkpt>
      <trkpt lat="45.7777" lon="5.24328">
        <ele>203.7</ele>
        <time>2022-09-24T12:57:28Z</time>
      </trkpt>
      <trkpt lat="45.77773" lon="5.24334">
        <ele>203.7</ele>
        <time>2022-09-24T12:57:29Z</time>
      </trkpt>
      <trkpt lat="45.77776" lon="5.24339">
        <ele>203.7</ele>
        <time>2022-09-24T12:57:30Z</time>
      </trkpt>
      <trkpt lat="45.77779" lon="5.24345">
        <ele>203.7</ele>
        <time>2022-09-24T12:57:31Z</time>
      </trkpt>
      <trkpt lat="45.77782" lon="5.2435">
        <ele>203.7</ele>
        <time>2022-09-24T12:57:32Z</time>
      </trkpt>
      <trkpt lat="45.77785" lon="5.24356">
        <ele>203.7</ele>
        <time>2022-09-24T12:57:33Z</time>
      </trkpt>
      <trkpt lat="45.77788" lon="5.24361">
        <ele>203.7</ele>
        <time>2022-09-24T12:57:34Z</time>
      </trkpt>
      <trkpt lat="45.77791" lon="5.24367">
        <ele>203.7</ele>
        <time>2022-09-24T12:57:35Z</time>
      </trkpt>
      <trkpt lat="45.77794" lon="5.24373">
        <ele>203.7</ele>
        <time>2022-09-24T12:57:36Z</time>
      </trkpt>
      <trkpt lat="45.77797" lon="5.24379">
        <ele>203.6</ele>
        <time>2022-09-24T12:57:37Z</time>
      </trkpt>
      <trkpt lat="45.778" lon="5.24385">
        <ele>203.6</ele>
        <time>2022-09-24T12:57:38Z</time>
      </trkpt>
      <trkpt lat="45.77804" lon="5.24391">
        <ele>203.6</ele>
        <time>2022-09-24T12:57:39Z</time>
      </trkpt>
      <trkpt lat="45.77807" lon="5.24397">
        <ele>203.6</ele>
        <time>2022-09-24T12:57:40Z</time>
      </trkpt>
      <trkpt lat="45.7781" lon="5.24403">
        <ele>203.5</ele>
        <time>2022-09-24T12:57:41Z</time>
      </trkpt>
      <trkpt lat="45.77813" lon="5.24409">
        <ele>203.5</ele>
        <time>2022-09-24T12:57:42Z</time>
      </trkpt>
      <trkpt lat="45.77817" lon="5.24415">
        <ele>203.5</ele>
        <time>2022-09-24T12:57:43Z</time>
      </trkpt>
      <trkpt lat="45.7782" lon="5.24421">
        <ele>203.5</ele>
        <time>2022-09-24T12:57:44Z</time>
      </trkpt>
      <trkpt lat="45.77823" lon="5.24427">
        <ele>203.5</ele>
        <time>2022-09-24T12:57:45Z</time>
      </trkpt>
      <trkpt lat="45.77827" lon="5.24432">
        <ele>203.5</ele>
        <time>2022-09-24T12:57:46Z</time>
      </trkpt>
      <trkpt lat="45.7783" lon="5.24438">
        <ele>203.5</ele>
        <time>2022-09-24T12:57:47Z</time>
      </trkpt>
      <trkpt lat="45.77834" lon="5.24444">
        <ele>203.5</ele>
        <time>2022-09-24T12:57:48Z</time>
      </trkpt>
      <trkpt lat="45.77837" lon="5.24449">
        <ele>203.6</ele>
        <time>2022-09-24T12:57:49Z</time>
      </trkpt>
      <trkpt lat="45.7784" lon="5.24455">
        <ele>203.6</ele>
        <time>2022-09-24T12:57:50Z</time>
      </trkpt>
      <trkpt lat="45.77843" lon="5.2446">
        <ele>203.6</ele>
        <time>2022-09-24T12:57:51Z</time>
      </trkpt>
      <trkpt lat="45.77847" lon="5.24465">
        <ele>203.6</ele>
        <time>2022-09-24T12:57:52Z</time>
      </trkpt>
      <trkpt lat="45.7785" lon="5.24471">
        <ele>203.6</ele>
        <time>2022-09-24T12:57:53Z</time>
      </trkpt>
      <trkpt lat="45.77854" lon="5.24476">
        <ele>203.6</ele>
        <time>2022-09-24T12:57:54Z</time>
      </trkpt>
      <trkpt lat="45.77857" lon="5.24482">
        <ele>203.6</ele>
        <time>2022-09-24T12:57:55Z</time>
      </trkpt>
      <trkpt lat="45.7786" lon="5.24488">
        <ele>203.6</ele>
        <time>2022-09-24T12:57:56Z</time>
      </trkpt>
      <trkpt lat="45.77863" lon="5.24494">
        <ele>203.6</ele>
        <time>2022-09-24T12:57:57Z</time>
      </trkpt>
      <trkpt lat="45.77867" lon="5.245">
        <ele>203.6</ele>
        <time>2022-09-24T12:57:58Z</time>
      </trkpt>
      <trkpt lat="45.7787" lon="5.24506">
        <ele>203.6</ele>
        <time>2022-09-24T12:57:59Z</time>
      </trkpt>
      <trkpt lat="45.77874" lon="5.24512">
        <ele>203.6</ele>
        <time>2022-09-24T12:58:00Z</time>
      </trkpt>
      <trkpt lat="45.77878" lon="5.24517">
        <ele>203.6</ele>
        <time>2022-09-24T12:58:01Z</time>
      </trkpt>
      <trkpt lat="45.77881" lon="5.24523">
        <ele>203.7</ele>
        <time>2022-09-24T12:58:02Z</time>
      </trkpt>
      <trkpt lat="45.77885" lon="5.24528">
        <ele>203.7</ele>
        <time>2022-09-24T12:58:03Z</time>
      </trkpt>
      <trkpt lat="45.77889" lon="5.24534">
        <ele>203.7</ele>
        <time>2022-09-24T12:58:04Z</time>
      </trkpt>
      <trkpt lat="45.77892" lon="5.2454">
        <ele>203.7</ele>
        <time>2022-09-24T12:58:05Z</time>
      </trkpt>
      <trkpt lat="45.77897" lon="5.24546">
        <ele>203.7</ele>
        <time>2022-09-24T12:58:06Z</time>
      </trkpt>
      <trkpt lat="45.779" lon="5.24551">
        <ele>203.7</ele>
        <time>2022-09-24T12:58:07Z</time>
      </trkpt>
      <trkpt lat="45.77904" lon="5.24556">
        <ele>203.7</ele>
        <time>2022-09-24T12:58:08Z</time>
      </trkpt>
      <trkpt lat="45.7791" lon="5.24561">
        <ele>203.6</ele>
        <time>2022-09-24T12:58:09Z</time>
      </trkpt>
      <trkpt lat="45.77914" lon="5.24566">
        <ele>203.6</ele>
        <time>2022-09-24T12:58:10Z</time>
      </trkpt>
      <trkpt lat="45.77918" lon="5.24571">
        <ele>203.6</ele>
        <time>2022-09-24T12:58:11Z</time>
      </trkpt>
      <trkpt lat="45.77923" lon="5.24576">
        <ele>203.6</ele>
        <time>2022-09-24T12:58:12Z</time>
      </trkpt>
      <trkpt lat="45.77927" lon="5.2458">
        <ele>203.6</ele>
        <time>2022-09-24T12:58:13Z</time>
      </trkpt>
      <trkpt lat="45.77932" lon="5.24583">
        <ele>203.6</ele>
        <time>2022-09-24T12:58:14Z</time>
      </trkpt>
      <trkpt lat="45.77937" lon="5.24588">
        <ele>203.6</ele>
        <time>2022-09-24T12:58:15Z</time>
      </trkpt>
      <trkpt lat="45.77941" lon="5.24592">
        <ele>203.6</ele>
        <time>2022-09-24T12:58:16Z</time>
      </trkpt>
      <trkpt lat="45.77945" lon="5.24596">
        <ele>203.6</ele>
        <time>2022-09-24T12:58:17Z</time>
      </trkpt>
      <trkpt lat="45.7795" lon="5.24599">
        <ele>203.6</ele>
        <time>2022-09-24T12:58:18Z</time>
      </trkpt>
      <trkpt lat="45.77955" lon="5.24603">
        <ele>203.6</ele>
        <time>2022-09-24T12:58:19Z</time>
      </trkpt>
      <trkpt lat="45.77959" lon="5.24606">
        <ele>203.6</ele>
        <time>2022-09-24T12:58:20Z</time>
      </trkpt>
      <trkpt lat="45.77963" lon="5.2461">
        <ele>203.7</ele>
        <time>2022-09-24T12:58:21Z</time>
      </trkpt>
      <trkpt lat="45.77968" lon="5.24614">
        <ele>203.7</ele>
        <time>2022-09-24T12:58:22Z</time>
      </trkpt>
      <trkpt lat="45.77971" lon="5.24618">
        <ele>203.7</ele>
        <time>2022-09-24T12:58:23Z</time>
      </trkpt>
      <trkpt lat="45.77974" lon="5.24624">
        <ele>203.7</ele>
        <time>2022-09-24T12:58:24Z</time>
      </trkpt>
      <trkpt lat="45.77977" lon="5.24629">
        <ele>203.7</ele>
        <time>2022-09-24T12:58:25Z</time>
      </trkpt>
      <trkpt lat="45.77979" lon="5.24635">
        <ele>203.7</ele>
        <time>2022-09-24T12:58:26Z</time>
      </trkpt>
      <trkpt lat="45.77982" lon="5.24642">
        <ele>203.7</ele>
        <time>2022-09-24T12:58:27Z</time>
      </trkpt>
      <trkpt lat="45.77985" lon="5.24648">
        <ele>203.7</ele>
        <time>2022-09-24T12:58:28Z</time>
      </trkpt>
      <trkpt lat="45.77987" lon="5.24652">
        <ele>203.7</ele>
        <time>2022-09-24T12:58:29Z</time>
      </trkpt>
      <trkpt lat="45.77991" lon="5.24657">
        <ele>203.6</ele>
        <time>2022-09-24T12:58:30Z</time>
      </trkpt>
      <trkpt lat="45.77994" lon="5.24663">
        <ele>203.6</ele>
        <time>2022-09-24T12:58:31Z</time>
      </trkpt>
      <trkpt lat="45.77997" lon="5.2467">
        <ele>203.6</ele>
        <time>2022-09-24T12:58:32Z</time>
      </trkpt>
      <trkpt lat="45.78" lon="5.24676">
        <ele>203.6</ele>
        <time>2022-09-24T12:58:33Z</time>
      </trkpt>
      <trkpt lat="45.78001" lon="5.24682">
        <ele>203.6</ele>
        <time>2022-09-24T12:58:34Z</time>
      </trkpt>
      <trkpt lat="45.78004" lon="5.24688">
        <ele>203.6</ele>
        <time>2022-09-24T12:58:35Z</time>
      </trkpt>
      <trkpt lat="45.78007" lon="5.24695">
        <ele>203.6</ele>
        <time>2022-09-24T12:58:36Z</time>
      </trkpt>
      <trkpt lat="45.7801" lon="5.24701">
        <ele>203.6</ele>
        <time>2022-09-24T12:58:37Z</time>
      </trkpt>
      <trkpt lat="45.78014" lon="5.24707">
        <ele>203.6</ele>
        <time>2022-09-24T12:58:38Z</time>
      </trkpt>
      <trkpt lat="45.78017" lon="5.24715">
        <ele>203.6</ele>
        <time>2022-09-24T12:58:39Z</time>
      </trkpt>
      <trkpt lat="45.78019" lon="5.2472">
        <ele>203.6</ele>
        <time>2022-09-24T12:58:40Z</time>
      </trkpt>
      <trkpt lat="45.78022" lon="5.24727">
        <ele>203.6</ele>
        <time>2022-09-24T12:58:41Z</time>
      </trkpt>
      <trkpt lat="45.78025" lon="5.24732">
        <ele>203.6</ele>
        <time>2022-09-24T12:58:42Z</time>
      </trkpt>
      <trkpt lat="45.78028" lon="5.24738">
        <ele>203.6</ele>
        <time>2022-09-24T12:58:43Z</time>
      </trkpt>
      <trkpt lat="45.78031" lon="5.24745">
        <ele>203.7</ele>
        <time>2022-09-24T12:58:44Z</time>
      </trkpt>
      <trkpt lat="45.78034" lon="5.24751">
        <ele>203.7</ele>
        <time>2022-09-24T12:58:45Z</time>
      </trkpt>
      <trkpt lat="45.78035" lon="5.24757">
        <ele>203.7</ele>
        <time>2022-09-24T12:58:46Z</time>
      </trkpt>
      <trkpt lat="45.78038" lon="5.24764">
        <ele>203.7</ele>
        <time>2022-09-24T12:58:47Z</time>
      </trkpt>
      <trkpt lat="45.78041" lon="5.24769">
        <ele>203.7</ele>
        <time>2022-09-24T12:58:48Z</time>
      </trkpt>
      <trkpt lat="45.78042" lon="5.24776">
        <ele>203.8</ele>
        <time>2022-09-24T12:58:49Z</time>
      </trkpt>
      <trkpt lat="45.78044" lon="5.24782">
        <ele>203.8</ele>
        <time>2022-09-24T12:58:50Z</time>
      </trkpt>
      <trkpt lat="45.78046" lon="5.24788">
        <ele>203.8</ele>
        <time>2022-09-24T12:58:51Z</time>
      </trkpt>
      <trkpt lat="45.78049" lon="5.24795">
        <ele>203.8</ele>
        <time>2022-09-24T12:58:52Z</time>
      </trkpt>
      <trkpt lat="45.7805" lon="5.24801">
        <ele>203.8</ele>
        <time>2022-09-24T12:58:53Z</time>
      </trkpt>
      <trkpt lat="45.78053" lon="5.24808">
        <ele>203.8</ele>
        <time>2022-09-24T12:58:54Z</time>
      </trkpt>
      <trkpt lat="45.78056" lon="5.24814">
        <ele>203.8</ele>
        <time>2022-09-24T12:58:55Z</time>
      </trkpt>
      <trkpt lat="45.78058" lon="5.24821">
        <ele>203.8</ele>
        <time>2022-09-24T12:58:56Z</time>
      </trkpt>
      <trkpt lat="45.7806" lon="5.24828">
        <ele>203.8</ele>
        <time>2022-09-24T12:58:57Z</time>
      </trkpt>
      <trkpt lat="45.78062" lon="5.24833">
        <ele>203.8</ele>
        <time>2022-09-24T12:58:58Z</time>
      </trkpt>
      <trkpt lat="45.78065" lon="5.2484">
        <ele>203.8</ele>
        <time>2022-09-24T12:58:59Z</time>
      </trkpt>
      <trkpt lat="45.78067" lon="5.24846">
        <ele>203.8</ele>
        <time>2022-09-24T12:59:00Z</time>
      </trkpt>
      <trkpt lat="45.7807" lon="5.24854">
        <ele>203.8</ele>
        <time>2022-09-24T12:59:01Z</time>
      </trkpt>
      <trkpt lat="45.78073" lon="5.24861">
        <ele>203.8</ele>
        <time>2022-09-24T12:59:02Z</time>
      </trkpt>
      <trkpt lat="45.78075" lon="5.24867">
        <ele>203.8</ele>
        <time>2022-09-24T12:59:03Z</time>
      </trkpt>
      <trkpt lat="45.78077" lon="5.24874">
        <ele>203.7</ele>
        <time>2022-09-24T12:59:04Z</time>
      </trkpt>
      <trkpt lat="45.78081" lon="5.24882">
        <ele>203.7</ele>
        <time>2022-09-24T12:59:05Z</time>
      </trkpt>
      <trkpt lat="45.78084" lon="5.24889">
        <ele>203.7</ele>
        <time>2022-09-24T12:59:06Z</time>
      </trkpt>
      <trkpt lat="45.78086" lon="5.24896">
        <ele>203.6</ele>
        <time>2022-09-24T12:59:07Z</time>
      </trkpt>
      <trkpt lat="45.78089" lon="5.24903">
        <ele>203.6</ele>
        <time>2022-09-24T12:59:08Z</time>
      </trkpt>
      <trkpt lat="45.78091" lon="5.24911">
        <ele>203.5</ele>
        <time>2022-09-24T12:59:09Z</time>
      </trkpt>
      <trkpt lat="45.78094" lon="5.24919">
        <ele>203.4</ele>
        <time>2022-09-24T12:59:10Z</time>
      </trkpt>
      <trkpt lat="45.78097" lon="5.24926">
        <ele>203.4</ele>
        <time>2022-09-24T12:59:11Z</time>
      </trkpt>
      <trkpt lat="45.781" lon="5.24933">
        <ele>203.3</ele>
        <time>2022-09-24T12:59:12Z</time>
      </trkpt>
      <trkpt lat="45.78103" lon="5.24941">
        <ele>203.3</ele>
        <time>2022-09-24T12:59:13Z</time>
      </trkpt>
      <trkpt lat="45.78106" lon="5.24949">
        <ele>203.2</ele>
        <time>2022-09-24T12:59:14Z</time>
      </trkpt>
      <trkpt lat="45.78109" lon="5.24956">
        <ele>203.2</ele>
        <time>2022-09-24T12:59:15Z</time>
      </trkpt>
      <trkpt lat="45.78111" lon="5.24963">
        <ele>203.2</ele>
        <time>2022-09-24T12:59:16Z</time>
      </trkpt>
      <trkpt lat="45.78115" lon="5.24969">
        <ele>203.1</ele>
        <time>2022-09-24T12:59:17Z</time>
      </trkpt>
      <trkpt lat="45.78117" lon="5.24978">
        <ele>203.1</ele>
        <time>2022-09-24T12:59:18Z</time>
      </trkpt>
      <trkpt lat="45.78119" lon="5.24985">
        <ele>203.1</ele>
        <time>2022-09-24T12:59:19Z</time>
      </trkpt>
      <trkpt lat="45.78123" lon="5.24992">
        <ele>203</ele>
        <time>2022-09-24T12:59:20Z</time>
      </trkpt>
      <trkpt lat="45.78125" lon="5.25001">
        <ele>203</ele>
        <time>2022-09-24T12:59:21Z</time>
      </trkpt>
      <trkpt lat="45.78128" lon="5.25009">
        <ele>203</ele>
        <time>2022-09-24T12:59:22Z</time>
      </trkpt>
      <trkpt lat="45.78129" lon="5.25017">
        <ele>203</ele>
        <time>2022-09-24T12:59:23Z</time>
      </trkpt>
      <trkpt lat="45.78132" lon="5.25025">
        <ele>202.9</ele>
        <time>2022-09-24T12:59:24Z</time>
      </trkpt>
      <trkpt lat="45.78132" lon="5.25033">
        <ele>202.9</ele>
        <time>2022-09-24T12:59:25Z</time>
      </trkpt>
      <trkpt lat="45.78132" lon="5.25041">
        <ele>202.9</ele>
        <time>2022-09-24T12:59:26Z</time>
      </trkpt>
      <trkpt lat="45.78133" lon="5.25049">
        <ele>202.9</ele>
        <time>2022-09-24T12:59:27Z</time>
      </trkpt>
      <trkpt lat="45.78133" lon="5.25058">
        <ele>202.9</ele>
        <time>2022-09-24T12:59:28Z</time>
      </trkpt>
      <trkpt lat="45.78135" lon="5.25065">
        <ele>202.9</ele>
        <time>2022-09-24T12:59:29Z</time>
      </trkpt>
      <trkpt lat="45.78138" lon="5.25074">
        <ele>202.9</ele>
        <time>2022-09-24T12:59:30Z</time>
      </trkpt>
      <trkpt lat="45.78141" lon="5.25081">
        <ele>202.9</ele>
        <time>2022-09-24T12:59:31Z</time>
      </trkpt>
      <trkpt lat="45.78145" lon="5.25087">
        <ele>202.9</ele>
        <time>2022-09-24T12:59:32Z</time>
      </trkpt>
      <trkpt lat="45.78148" lon="5.25092">
        <ele>202.9</ele>
        <time>2022-09-24T12:59:33Z</time>
      </trkpt>
      <trkpt lat="45.78152" lon="5.25097">
        <ele>202.9</ele>
        <time>2022-09-24T12:59:34Z</time>
      </trkpt>
      <trkpt lat="45.78156" lon="5.25102">
        <ele>203</ele>
        <time>2022-09-24T12:59:35Z</time>
      </trkpt>
      <trkpt lat="45.7816" lon="5.25109">
        <ele>203</ele>
        <time>2022-09-24T12:59:36Z</time>
      </trkpt>
      <trkpt lat="45.78162" lon="5.25115">
        <ele>203</ele>
        <time>2022-09-24T12:59:37Z</time>
      </trkpt>
      <trkpt lat="45.78165" lon="5.25122">
        <ele>203.1</ele>
        <time>2022-09-24T12:59:38Z</time>
      </trkpt>
      <trkpt lat="45.78168" lon="5.25129">
        <ele>203.1</ele>
        <time>2022-09-24T12:59:39Z</time>
      </trkpt>
      <trkpt lat="45.78171" lon="5.25136">
        <ele>203.1</ele>
        <time>2022-09-24T12:59:40Z</time>
      </trkpt>
      <trkpt lat="45.78174" lon="5.25141">
        <ele>203.2</ele>
        <time>2022-09-24T12:59:41Z</time>
      </trkpt>
      <trkpt lat="45.78177" lon="5.25148">
        <ele>203.2</ele>
        <time>2022-09-24T12:59:42Z</time>
      </trkpt>
      <trkpt lat="45.7818" lon="5.25155">
        <ele>203.2</ele>
        <time>2022-09-24T12:59:43Z</time>
      </trkpt>
      <trkpt lat="45.78182" lon="5.25162">
        <ele>203.2</ele>
        <time>2022-09-24T12:59:44Z</time>
      </trkpt>
      <trkpt lat="45.78185" lon="5.25169">
        <ele>203.2</ele>
        <time>2022-09-24T12:59:45Z</time>
      </trkpt>
      <trkpt lat="45.78188" lon="5.25174">
        <ele>203.2</ele>
        <time>2022-09-24T12:59:46Z</time>
      </trkpt>
      <trkpt lat="45.7819" lon="5.25182">
        <ele>203.2</ele>
        <time>2022-09-24T12:59:47Z</time>
      </trkpt>
      <trkpt lat="45.78193" lon="5.25188">
        <ele>203.2</ele>
        <time>2022-09-24T12:59:48Z</time>
      </trkpt>
      <trkpt lat="45.78196" lon="5.25194">
        <ele>203.2</ele>
        <time>2022-09-24T12:59:49Z</time>
      </trkpt>
      <trkpt lat="45.78199" lon="5.252">
        <ele>203.2</ele>
        <time>2022-09-24T12:59:50Z</time>
      </trkpt>
      <trkpt lat="45.78201" lon="5.25207">
        <ele>203.2</ele>
        <time>2022-09-24T12:59:51Z</time>
      </trkpt>
      <trkpt lat="45.78203" lon="5.25214">
        <ele>203.2</ele>
        <time>2022-09-24T12:59:52Z</time>
      </trkpt>
      <trkpt lat="45.78206" lon="5.2522">
        <ele>203.2</ele>
        <time>2022-09-24T12:59:53Z</time>
      </trkpt>
      <trkpt lat="45.7821" lon="5.25227">
        <ele>203.1</ele>
        <time>2022-09-24T12:59:54Z</time>
      </trkpt>
      <trkpt lat="45.78212" lon="5.25233">
        <ele>203.1</ele>
        <time>2022-09-24T12:59:55Z</time>
      </trkpt>
      <trkpt lat="45.78214" lon="5.25239">
        <ele>203</ele>
        <time>2022-09-24T12:59:56Z</time>
      </trkpt>
      <trkpt lat="45.78217" lon="5.25246">
        <ele>203</ele>
        <time>2022-09-24T12:59:57Z</time>
      </trkpt>
      <trkpt lat="45.7822" lon="5.25252">
        <ele>202.9</ele>
        <time>2022-09-24T12:59:58Z</time>
      </trkpt>
      <trkpt lat="45.78224" lon="5.25258">
        <ele>202.8</ele>
        <time>2022-09-24T12:59:59Z</time>
      </trkpt>
      <trkpt lat="45.78226" lon="5.25266">
        <ele>202.7</ele>
        <time>2022-09-24T13:00:00Z</time>
      </trkpt>
      <trkpt lat="45.78229" lon="5.25273">
        <ele>202.6</ele>
        <time>2022-09-24T13:00:01Z</time>
      </trkpt>
      <trkpt lat="45.78231" lon="5.2528">
        <ele>202.5</ele>
        <time>2022-09-24T13:00:02Z</time>
      </trkpt>
      <trkpt lat="45.78234" lon="5.25286">
        <ele>202.4</ele>
        <time>2022-09-24T13:00:03Z</time>
      </trkpt>
      <trkpt lat="45.78237" lon="5.25294">
        <ele>202.3</ele>
        <time>2022-09-24T13:00:04Z</time>
      </trkpt>
      <trkpt lat="45.78239" lon="5.25301">
        <ele>202.2</ele>
        <time>2022-09-24T13:00:05Z</time>
      </trkpt>
      <trkpt lat="45.78242" lon="5.25307">
        <ele>202.1</ele>
        <time>2022-09-24T13:00:06Z</time>
      </trkpt>
      <trkpt lat="45.78244" lon="5.25315">
        <ele>202.1</ele>
        <time>2022-09-24T13:00:07Z</time>
      </trkpt>
      <trkpt lat="45.78246" lon="5.25322">
        <ele>202</ele>
        <time>2022-09-24T13:00:08Z</time>
      </trkpt>
      <trkpt lat="45.78248" lon="5.2533">
        <ele>202</ele>
        <time>2022-09-24T13:00:09Z</time>
      </trkpt>
      <trkpt lat="45.78251" lon="5.25337">
        <ele>202</ele>
        <time>2022-09-24T13:00:10Z</time>
      </trkpt>
      <trkpt lat="45.78253" lon="5.25346">
        <ele>202</ele>
        <time>2022-09-24T13:00:11Z</time>
      </trkpt>
      <trkpt lat="45.78255" lon="5.25352">
        <ele>202</ele>
        <time>2022-09-24T13:00:12Z</time>
      </trkpt>
      <trkpt lat="45.78258" lon="5.2536">
        <ele>202.1</ele>
        <time>2022-09-24T13:00:13Z</time>
      </trkpt>
      <trkpt lat="45.78259" lon="5.25366">
        <ele>202.1</ele>
        <time>2022-09-24T13:00:14Z</time>
      </trkpt>
      <trkpt lat="45.78262" lon="5.25373">
        <ele>202.1</ele>
        <time>2022-09-24T13:00:15Z</time>
      </trkpt>
      <trkpt lat="45.78266" lon="5.25379">
        <ele>202.1</ele>
        <time>2022-09-24T13:00:16Z</time>
      </trkpt>
      <trkpt lat="45.78268" lon="5.25385">
        <ele>202.1</ele>
        <time>2022-09-24T13:00:17Z</time>
      </trkpt>
      <trkpt lat="45.78272" lon="5.25391">
        <ele>202.1</ele>
        <time>2022-09-24T13:00:18Z</time>
      </trkpt>
      <trkpt lat="45.78275" lon="5.25397">
        <ele>202.1</ele>
        <time>2022-09-24T13:00:19Z</time>
      </trkpt>
      <trkpt lat="45.78278" lon="5.25403">
        <ele>202</ele>
        <time>2022-09-24T13:00:20Z</time>
      </trkpt>
      <trkpt lat="45.78281" lon="5.25408">
        <ele>202</ele>
        <time>2022-09-24T13:00:21Z</time>
      </trkpt>
      <trkpt lat="45.78284" lon="5.25414">
        <ele>201.9</ele>
        <time>2022-09-24T13:00:22Z</time>
      </trkpt>
      <trkpt lat="45.78288" lon="5.25421">
        <ele>201.9</ele>
        <time>2022-09-24T13:00:23Z</time>
      </trkpt>
      <trkpt lat="45.78291" lon="5.25427">
        <ele>201.8</ele>
        <time>2022-09-24T13:00:24Z</time>
      </trkpt>
      <trkpt lat="45.78294" lon="5.25434">
        <ele>201.8</ele>
        <time>2022-09-24T13:00:25Z</time>
      </trkpt>
      <trkpt lat="45.78298" lon="5.25439">
        <ele>201.7</ele>
        <time>2022-09-24T13:00:26Z</time>
      </trkpt>
      <trkpt lat="45.78301" lon="5.25447">
        <ele>201.7</ele>
        <time>2022-09-24T13:00:27Z</time>
      </trkpt>
      <trkpt lat="45.78304" lon="5.25454">
        <ele>201.6</ele>
        <time>2022-09-24T13:00:28Z</time>
      </trkpt>
      <trkpt lat="45.78306" lon="5.25462">
        <ele>201.5</ele>
        <time>2022-09-24T13:00:29Z</time>
      </trkpt>
      <trkpt lat="45.78308" lon="5.25471">
        <ele>201.5</ele>
        <time>2022-09-24T13:00:30Z</time>
      </trkpt>
      <trkpt lat="45.7831" lon="5.25475">
        <ele>201.5</ele>
        <time>2022-09-24T13:00:31Z</time>
      </trkpt>
      <trkpt lat="45.78311" lon="5.25485">
        <ele>201.4</ele>
        <time>2022-09-24T13:00:32Z</time>
      </trkpt>
      <trkpt lat="45.78314" lon="5.25492">
        <ele>201.5</ele>
        <time>2022-09-24T13:00:33Z</time>
      </trkpt>
      <trkpt lat="45.78316" lon="5.25499">
        <ele>201.5</ele>
        <time>2022-09-24T13:00:34Z</time>
      </trkpt>
      <trkpt lat="45.78319" lon="5.25507">
        <ele>201.6</ele>
        <time>2022-09-24T13:00:35Z</time>
      </trkpt>
      <trkpt lat="45.78322" lon="5.25513">
        <ele>201.7</ele>
        <time>2022-09-24T13:00:36Z</time>
      </trkpt>
      <trkpt lat="45.78326" lon="5.25519">
        <ele>201.8</ele>
        <time>2022-09-24T13:00:37Z</time>
      </trkpt>
      <trkpt lat="45.7833" lon="5.25523">
        <ele>201.9</ele>
        <time>2022-09-24T13:00:38Z</time>
      </trkpt>
      <trkpt lat="45.78333" lon="5.25527">
        <ele>202</ele>
        <time>2022-09-24T13:00:39Z</time>
      </trkpt>
      <trkpt lat="45.78337" lon="5.25532">
        <ele>202.2</ele>
        <time>2022-09-24T13:00:40Z</time>
      </trkpt>
      <trkpt lat="45.7834" lon="5.25536">
        <ele>202.2</ele>
        <time>2022-09-24T13:00:41Z</time>
      </trkpt>
      <trkpt lat="45.78343" lon="5.25542">
        <ele>202.3</ele>
        <time>2022-09-24T13:00:42Z</time>
      </trkpt>
      <trkpt lat="45.78345" lon="5.25546">
        <ele>202.4</ele>
        <time>2022-09-24T13:00:43Z</time>
      </trkpt>
      <trkpt lat="45.78347" lon="5.25552">
        <ele>202.4</ele>
        <time>2022-09-24T13:00:44Z</time>
      </trkpt>
      <trkpt lat="45.78348" lon="5.25556">
        <ele>202.5</ele>
        <time>2022-09-24T13:00:45Z</time>
      </trkpt>
      <trkpt lat="45.7835" lon="5.25561">
        <ele>202.5</ele>
        <time>2022-09-24T13:00:46Z</time>
      </trkpt>
      <trkpt lat="45.78352" lon="5.25565">
        <ele>202.6</ele>
        <time>2022-09-24T13:00:47Z</time>
      </trkpt>
      <trkpt lat="45.78354" lon="5.2557">
        <ele>202.6</ele>
        <time>2022-09-24T13:00:48Z</time>
      </trkpt>
      <trkpt lat="45.78357" lon="5.25574">
        <ele>202.7</ele>
        <time>2022-09-24T13:00:49Z</time>
      </trkpt>
      <trkpt lat="45.78359" lon="5.2558">
        <ele>202.7</ele>
        <time>2022-09-24T13:00:50Z</time>
      </trkpt>
      <trkpt lat="45.78361" lon="5.25586">
        <ele>202.8</ele>
        <time>2022-09-24T13:00:51Z</time>
      </trkpt>
      <trkpt lat="45.78361" lon="5.25592">
        <ele>202.9</ele>
        <time>2022-09-24T13:00:52Z</time>
      </trkpt>
      <trkpt lat="45.78361" lon="5.256">
        <ele>202.9</ele>
        <time>2022-09-24T13:00:53Z</time>
      </trkpt>
      <trkpt lat="45.78361" lon="5.25608">
        <ele>203</ele>
        <time>2022-09-24T13:00:54Z</time>
      </trkpt>
      <trkpt lat="45.78362" lon="5.25614">
        <ele>203.1</ele>
        <time>2022-09-24T13:00:55Z</time>
      </trkpt>
      <trkpt lat="45.78363" lon="5.25622">
        <ele>203.2</ele>
        <time>2022-09-24T13:00:56Z</time>
      </trkpt>
      <trkpt lat="45.78363" lon="5.25629">
        <ele>203.3</ele>
        <time>2022-09-24T13:00:57Z</time>
      </trkpt>
      <trkpt lat="45.78363" lon="5.25635">
        <ele>203.4</ele>
        <time>2022-09-24T13:00:58Z</time>
      </trkpt>
      <trkpt lat="45.78363" lon="5.25641">
        <ele>203.5</ele>
        <time>2022-09-24T13:00:59Z</time>
      </trkpt>
      <trkpt lat="45.78363" lon="5.25647">
        <ele>203.5</ele>
        <time>2022-09-24T13:01:00Z</time>
      </trkpt>
      <trkpt lat="45.78363" lon="5.25654">
        <ele>203.6</ele>
        <time>2022-09-24T13:01:01Z</time>
      </trkpt>
      <trkpt lat="45.78364" lon="5.2566">
        <ele>203.6</ele>
        <time>2022-09-24T13:01:02Z</time>
      </trkpt>
      <trkpt lat="45.78366" lon="5.25666">
        <ele>203.7</ele>
        <time>2022-09-24T13:01:03Z</time>
      </trkpt>
      <trkpt lat="45.78369" lon="5.25672">
        <ele>203.7</ele>
        <time>2022-09-24T13:01:04Z</time>
      </trkpt>
      <trkpt lat="45.78374" lon="5.25676">
        <ele>203.7</ele>
        <time>2022-09-24T13:01:05Z</time>
      </trkpt>
      <trkpt lat="45.78379" lon="5.2568">
        <ele>203.8</ele>
        <time>2022-09-24T13:01:06Z</time>
      </trkpt>
      <trkpt lat="45.78383" lon="5.25682">
        <ele>203.8</ele>
        <time>2022-09-24T13:01:07Z</time>
      </trkpt>
      <trkpt lat="45.78388" lon="5.25683">
        <ele>203.8</ele>
        <time>2022-09-24T13:01:08Z</time>
      </trkpt>
      <trkpt lat="45.78393" lon="5.25686">
        <ele>203.9</ele>
        <time>2022-09-24T13:01:09Z</time>
      </trkpt>
      <trkpt lat="45.78396" lon="5.2569">
        <ele>203.9</ele>
        <time>2022-09-24T13:01:10Z</time>
      </trkpt>
      <trkpt lat="45.78399" lon="5.25695">
        <ele>203.9</ele>
        <time>2022-09-24T13:01:11Z</time>
      </trkpt>
      <trkpt lat="45.784" lon="5.25701">
        <ele>204</ele>
        <time>2022-09-24T13:01:12Z</time>
      </trkpt>
      <trkpt lat="45.78402" lon="5.25707">
        <ele>204</ele>
        <time>2022-09-24T13:01:13Z</time>
      </trkpt>
      <trkpt lat="45.78404" lon="5.25714">
        <ele>204</ele>
        <time>2022-09-24T13:01:14Z</time>
      </trkpt>
      <trkpt lat="45.78406" lon="5.2572">
        <ele>204.1</ele>
        <time>2022-09-24T13:01:15Z</time>
      </trkpt>
      <trkpt lat="45.78408" lon="5.25727">
        <ele>204.1</ele>
        <time>2022-09-24T13:01:16Z</time>
      </trkpt>
      <trkpt lat="45.78409" lon="5.25735">
        <ele>204.1</ele>
        <time>2022-09-24T13:01:17Z</time>
      </trkpt>
      <trkpt lat="45.78411" lon="5.25741">
        <ele>204.1</ele>
        <time>2022-09-24T13:01:18Z</time>
      </trkpt>
      <trkpt lat="45.78414" lon="5.25748">
        <ele>204.1</ele>
        <time>2022-09-24T13:01:19Z</time>
      </trkpt>
      <trkpt lat="45.78416" lon="5.25754">
        <ele>204.1</ele>
        <time>2022-09-24T13:01:20Z</time>
      </trkpt>
      <trkpt lat="45.78418" lon="5.25762">
        <ele>204.1</ele>
        <time>2022-09-24T13:01:21Z</time>
      </trkpt>
      <trkpt lat="45.78421" lon="5.25769">
        <ele>204.1</ele>
        <time>2022-09-24T13:01:22Z</time>
      </trkpt>
      <trkpt lat="45.78424" lon="5.25775">
        <ele>204.1</ele>
        <time>2022-09-24T13:01:23Z</time>
      </trkpt>
      <trkpt lat="45.78427" lon="5.25782">
        <ele>204.1</ele>
        <time>2022-09-24T13:01:24Z</time>
      </trkpt>
      <trkpt lat="45.7843" lon="5.25788">
        <ele>204.1</ele>
        <time>2022-09-24T13:01:25Z</time>
      </trkpt>
      <trkpt lat="45.78432" lon="5.25796">
        <ele>204.1</ele>
        <time>2022-09-24T13:01:26Z</time>
      </trkpt>
      <trkpt lat="45.78434" lon="5.25802">
        <ele>204.2</ele>
        <time>2022-09-24T13:01:27Z</time>
      </trkpt>
      <trkpt lat="45.78436" lon="5.25808">
        <ele>204.2</ele>
        <time>2022-09-24T13:01:28Z</time>
      </trkpt>
      <trkpt lat="45.78439" lon="5.25815">
        <ele>204.2</ele>
        <time>2022-09-24T13:01:29Z</time>
      </trkpt>
      <trkpt lat="45.78442" lon="5.25822">
        <ele>204.2</ele>
        <time>2022-09-24T13:01:30Z</time>
      </trkpt>
      <trkpt lat="45.78444" lon="5.25828">
        <ele>204.2</ele>
        <time>2022-09-24T13:01:31Z</time>
      </trkpt>
      <trkpt lat="45.78447" lon="5.25835">
        <ele>204.2</ele>
        <time>2022-09-24T13:01:32Z</time>
      </trkpt>
      <trkpt lat="45.7845" lon="5.25842">
        <ele>204.2</ele>
        <time>2022-09-24T13:01:33Z</time>
      </trkpt>
      <trkpt lat="45.78452" lon="5.25849">
        <ele>204.3</ele>
        <time>2022-09-24T13:01:34Z</time>
      </trkpt>
      <trkpt lat="45.78455" lon="5.25855">
        <ele>204.3</ele>
        <time>2022-09-24T13:01:35Z</time>
      </trkpt>
      <trkpt lat="45.78457" lon="5.25862">
        <ele>204.3</ele>
        <time>2022-09-24T13:01:36Z</time>
      </trkpt>
      <trkpt lat="45.78459" lon="5.25868">
        <ele>204.4</ele>
        <time>2022-09-24T13:01:37Z</time>
      </trkpt>
      <trkpt lat="45.78462" lon="5.25874">
        <ele>204.4</ele>
        <time>2022-09-24T13:01:38Z</time>
      </trkpt>
      <trkpt lat="45.78465" lon="5.25881">
        <ele>204.4</ele>
        <time>2022-09-24T13:01:39Z</time>
      </trkpt>
      <trkpt lat="45.78467" lon="5.25888">
        <ele>204.5</ele>
        <time>2022-09-24T13:01:40Z</time>
      </trkpt>
      <trkpt lat="45.7847" lon="5.25894">
        <ele>204.5</ele>
        <time>2022-09-24T13:01:41Z</time>
      </trkpt>
      <trkpt lat="45.78472" lon="5.259">
        <ele>204.5</ele>
        <time>2022-09-24T13:01:42Z</time>
      </trkpt>
      <trkpt lat="45.78475" lon="5.25907">
        <ele>204.5</ele>
        <time>2022-09-24T13:01:43Z</time>
      </trkpt>
      <trkpt lat="45.78478" lon="5.25914">
        <ele>204.6</ele>
        <time>2022-09-24T13:01:44Z</time>
      </trkpt>
      <trkpt lat="45.7848" lon="5.25922">
        <ele>204.6</ele>
        <time>2022-09-24T13:01:45Z</time>
      </trkpt>
      <trkpt lat="45.78483" lon="5.25927">
        <ele>204.6</ele>
        <time>2022-09-24T13:01:46Z</time>
      </trkpt>
      <trkpt lat="45.78486" lon="5.25934">
        <ele>204.6</ele>
        <time>2022-09-24T13:01:47Z</time>
      </trkpt>
      <trkpt lat="45.78489" lon="5.25941">
        <ele>204.7</ele>
        <time>2022-09-24T13:01:48Z</time>
      </trkpt>
      <trkpt lat="45.78491" lon="5.25947">
        <ele>204.7</ele>
        <time>2022-09-24T13:01:49Z</time>
      </trkpt>
      <trkpt lat="45.78495" lon="5.25954">
        <ele>204.7</ele>
        <time>2022-09-24T13:01:50Z</time>
      </trkpt>
      <trkpt lat="45.78497" lon="5.2596">
        <ele>204.8</ele>
        <time>2022-09-24T13:01:51Z</time>
      </trkpt>
      <trkpt lat="45.78499" lon="5.25967">
        <ele>204.8</ele>
        <time>2022-09-24T13:01:52Z</time>
      </trkpt>
      <trkpt lat="45.78502" lon="5.25973">
        <ele>204.8</ele>
        <time>2022-09-24T13:01:53Z</time>
      </trkpt>
      <trkpt lat="45.78504" lon="5.25979">
        <ele>204.9</ele>
        <time>2022-09-24T13:01:54Z</time>
      </trkpt>
      <trkpt lat="45.78507" lon="5.25986">
        <ele>204.9</ele>
        <time>2022-09-24T13:01:55Z</time>
      </trkpt>
      <trkpt lat="45.78509" lon="5.25991">
        <ele>205</ele>
        <time>2022-09-24T13:01:56Z</time>
      </trkpt>
      <trkpt lat="45.78511" lon="5.25997">
        <ele>205.1</ele>
        <time>2022-09-24T13:01:57Z</time>
      </trkpt>
      <trkpt lat="45.78514" lon="5.26003">
        <ele>205.2</ele>
        <time>2022-09-24T13:01:58Z</time>
      </trkpt>
      <trkpt lat="45.78516" lon="5.26009">
        <ele>205.2</ele>
        <time>2022-09-24T13:01:59Z</time>
      </trkpt>
      <trkpt lat="45.78518" lon="5.26014">
        <ele>205.3</ele>
        <time>2022-09-24T13:02:00Z</time>
      </trkpt>
      <trkpt lat="45.78521" lon="5.26019">
        <ele>205.4</ele>
        <time>2022-09-24T13:02:01Z</time>
      </trkpt>
      <trkpt lat="45.78523" lon="5.26025">
        <ele>205.5</ele>
        <time>2022-09-24T13:02:02Z</time>
      </trkpt>
      <trkpt lat="45.78525" lon="5.26031">
        <ele>205.6</ele>
        <time>2022-09-24T13:02:03Z</time>
      </trkpt>
      <trkpt lat="45.78527" lon="5.26037">
        <ele>205.7</ele>
        <time>2022-09-24T13:02:04Z</time>
      </trkpt>
      <trkpt lat="45.78529" lon="5.26041">
        <ele>205.7</ele>
        <time>2022-09-24T13:02:05Z</time>
      </trkpt>
      <trkpt lat="45.78531" lon="5.26046">
        <ele>205.8</ele>
        <time>2022-09-24T13:02:06Z</time>
      </trkpt>
      <trkpt lat="45.78534" lon="5.26051">
        <ele>205.8</ele>
        <time>2022-09-24T13:02:07Z</time>
      </trkpt>
      <trkpt lat="45.78537" lon="5.26055">
        <ele>205.9</ele>
        <time>2022-09-24T13:02:08Z</time>
      </trkpt>
      <trkpt lat="45.78539" lon="5.2606">
        <ele>205.9</ele>
        <time>2022-09-24T13:02:09Z</time>
      </trkpt>
      <trkpt lat="45.78542" lon="5.26064">
        <ele>206</ele>
        <time>2022-09-24T13:02:10Z</time>
      </trkpt>
      <trkpt lat="45.78545" lon="5.26067">
        <ele>206</ele>
        <time>2022-09-24T13:02:11Z</time>
      </trkpt>
      <trkpt lat="45.78547" lon="5.26071">
        <ele>206</ele>
        <time>2022-09-24T13:02:12Z</time>
      </trkpt>
      <trkpt lat="45.78549" lon="5.26075">
        <ele>206</ele>
        <time>2022-09-24T13:02:13Z</time>
      </trkpt>
      <trkpt lat="45.7855" lon="5.26079">
        <ele>206</ele>
        <time>2022-09-24T13:02:14Z</time>
      </trkpt>
      <trkpt lat="45.78552" lon="5.26084">
        <ele>206</ele>
        <time>2022-09-24T13:02:15Z</time>
      </trkpt>
      <trkpt lat="45.78554" lon="5.26088">
        <ele>206</ele>
        <time>2022-09-24T13:02:16Z</time>
      </trkpt>
      <trkpt lat="45.78555" lon="5.26093">
        <ele>206</ele>
        <time>2022-09-24T13:02:17Z</time>
      </trkpt>
      <trkpt lat="45.78557" lon="5.261">
        <ele>206</ele>
        <time>2022-09-24T13:02:18Z</time>
      </trkpt>
      <trkpt lat="45.78556" lon="5.26106">
        <ele>206</ele>
        <time>2022-09-24T13:02:19Z</time>
      </trkpt>
      <trkpt lat="45.78555" lon="5.26111">
        <ele>206</ele>
        <time>2022-09-24T13:02:20Z</time>
      </trkpt>
      <trkpt lat="45.78554" lon="5.26117">
        <ele>205.9</ele>
        <time>2022-09-24T13:02:21Z</time>
      </trkpt>
      <trkpt lat="45.78553" lon="5.26122">
        <ele>205.8</ele>
        <time>2022-09-24T13:02:22Z</time>
      </trkpt>
      <trkpt lat="45.78552" lon="5.26128">
        <ele>205.7</ele>
        <time>2022-09-24T13:02:23Z</time>
      </trkpt>
      <trkpt lat="45.7855" lon="5.26133">
        <ele>205.7</ele>
        <time>2022-09-24T13:02:24Z</time>
      </trkpt>
      <trkpt lat="45.78548" lon="5.26138">
        <ele>205.6</ele>
        <time>2022-09-24T13:02:25Z</time>
      </trkpt>
      <trkpt lat="45.78547" lon="5.26144">
        <ele>205.5</ele>
        <time>2022-09-24T13:02:26Z</time>
      </trkpt>
      <trkpt lat="45.78546" lon="5.26152">
        <ele>205.4</ele>
        <time>2022-09-24T13:02:27Z</time>
      </trkpt>
      <trkpt lat="45.78545" lon="5.26159">
        <ele>205.3</ele>
        <time>2022-09-24T13:02:28Z</time>
      </trkpt>
      <trkpt lat="45.78546" lon="5.26165">
        <ele>205.3</ele>
        <time>2022-09-24T13:02:29Z</time>
      </trkpt>
      <trkpt lat="45.78546" lon="5.26171">
        <ele>205.2</ele>
        <time>2022-09-24T13:02:30Z</time>
      </trkpt>
      <trkpt lat="45.78546" lon="5.26177">
        <ele>205.2</ele>
        <time>2022-09-24T13:02:31Z</time>
      </trkpt>
      <trkpt lat="45.78547" lon="5.26183">
        <ele>205.2</ele>
        <time>2022-09-24T13:02:32Z</time>
      </trkpt>
      <trkpt lat="45.78547" lon="5.26189">
        <ele>205.2</ele>
        <time>2022-09-24T13:02:33Z</time>
      </trkpt>
      <trkpt lat="45.78548" lon="5.26193">
        <ele>205.1</ele>
        <time>2022-09-24T13:02:34Z</time>
      </trkpt>
      <trkpt lat="45.78551" lon="5.26198">
        <ele>205.1</ele>
        <time>2022-09-24T13:02:35Z</time>
      </trkpt>
      <trkpt lat="45.78553" lon="5.26204">
        <ele>205.1</ele>
        <time>2022-09-24T13:02:36Z</time>
      </trkpt>
      <trkpt lat="45.78555" lon="5.26209">
        <ele>205</ele>
        <time>2022-09-24T13:02:37Z</time>
      </trkpt>
      <trkpt lat="45.78557" lon="5.26215">
        <ele>205</ele>
        <time>2022-09-24T13:02:38Z</time>
      </trkpt>
      <trkpt lat="45.78558" lon="5.2622">
        <ele>205</ele>
        <time>2022-09-24T13:02:39Z</time>
      </trkpt>
      <trkpt lat="45.7856" lon="5.26225">
        <ele>204.9</ele>
        <time>2022-09-24T13:02:40Z</time>
      </trkpt>
      <trkpt lat="45.78561" lon="5.26231">
        <ele>204.9</ele>
        <time>2022-09-24T13:02:41Z</time>
      </trkpt>
      <trkpt lat="45.78563" lon="5.26237">
        <ele>204.9</ele>
        <time>2022-09-24T13:02:42Z</time>
      </trkpt>
      <trkpt lat="45.78564" lon="5.26243">
        <ele>204.8</ele>
        <time>2022-09-24T13:02:43Z</time>
      </trkpt>
      <trkpt lat="45.78566" lon="5.26248">
        <ele>204.8</ele>
        <time>2022-09-24T13:02:44Z</time>
      </trkpt>
      <trkpt lat="45.78567" lon="5.26254">
        <ele>204.8</ele>
        <time>2022-09-24T13:02:45Z</time>
      </trkpt>
      <trkpt lat="45.78568" lon="5.26259">
        <ele>204.7</ele>
        <time>2022-09-24T13:02:46Z</time>
      </trkpt>
      <trkpt lat="45.7857" lon="5.26264">
        <ele>204.7</ele>
        <time>2022-09-24T13:02:47Z</time>
      </trkpt>
      <trkpt lat="45.78571" lon="5.26269">
        <ele>204.6</ele>
        <time>2022-09-24T13:02:48Z</time>
      </trkpt>
      <trkpt lat="45.78572" lon="5.26275">
        <ele>204.6</ele>
        <time>2022-09-24T13:02:49Z</time>
      </trkpt>
      <trkpt lat="45.78573" lon="5.26281">
        <ele>204.5</ele>
        <time>2022-09-24T13:02:50Z</time>
      </trkpt>
      <trkpt lat="45.78573" lon="5.26286">
        <ele>204.5</ele>
        <time>2022-09-24T13:02:51Z</time>
      </trkpt>
      <trkpt lat="45.78574" lon="5.26291">
        <ele>204.4</ele>
        <time>2022-09-24T13:02:52Z</time>
      </trkpt>
      <trkpt lat="45.78575" lon="5.26297">
        <ele>204.4</ele>
        <time>2022-09-24T13:02:53Z</time>
      </trkpt>
      <trkpt lat="45.78576" lon="5.26303">
        <ele>204.3</ele>
        <time>2022-09-24T13:02:54Z</time>
      </trkpt>
      <trkpt lat="45.78577" lon="5.2631">
        <ele>204.3</ele>
        <time>2022-09-24T13:02:55Z</time>
      </trkpt>
      <trkpt lat="45.78578" lon="5.26317">
        <ele>204.2</ele>
        <time>2022-09-24T13:02:56Z</time>
      </trkpt>
      <trkpt lat="45.78579" lon="5.26323">
        <ele>204.2</ele>
        <time>2022-09-24T13:02:57Z</time>
      </trkpt>
      <trkpt lat="45.7858" lon="5.26329">
        <ele>204.2</ele>
        <time>2022-09-24T13:02:58Z</time>
      </trkpt>
      <trkpt lat="45.78581" lon="5.26336">
        <ele>204.1</ele>
        <time>2022-09-24T13:02:59Z</time>
      </trkpt>
      <trkpt lat="45.78583" lon="5.26343">
        <ele>204</ele>
        <time>2022-09-24T13:03:00Z</time>
      </trkpt>
      <trkpt lat="45.78584" lon="5.2635">
        <ele>204</ele>
        <time>2022-09-24T13:03:01Z</time>
      </trkpt>
      <trkpt lat="45.78585" lon="5.26357">
        <ele>203.9</ele>
        <time>2022-09-24T13:03:02Z</time>
      </trkpt>
      <trkpt lat="45.78587" lon="5.26364">
        <ele>203.8</ele>
        <time>2022-09-24T13:03:03Z</time>
      </trkpt>
      <trkpt lat="45.78589" lon="5.26371">
        <ele>203.7</ele>
        <time>2022-09-24T13:03:04Z</time>
      </trkpt>
      <trkpt lat="45.7859" lon="5.26378">
        <ele>203.6</ele>
        <time>2022-09-24T13:03:05Z</time>
      </trkpt>
      <trkpt lat="45.78592" lon="5.26385">
        <ele>203.5</ele>
        <time>2022-09-24T13:03:06Z</time>
      </trkpt>
      <trkpt lat="45.78593" lon="5.26392">
        <ele>203.4</ele>
        <time>2022-09-24T13:03:07Z</time>
      </trkpt>
      <trkpt lat="45.78595" lon="5.26398">
        <ele>203.3</ele>
        <time>2022-09-24T13:03:08Z</time>
      </trkpt>
      <trkpt lat="45.78597" lon="5.26405">
        <ele>203.2</ele>
        <time>2022-09-24T13:03:09Z</time>
      </trkpt>
      <trkpt lat="45.78598" lon="5.26411">
        <ele>203.1</ele>
        <time>2022-09-24T13:03:10Z</time>
      </trkpt>
      <trkpt lat="45.786" lon="5.26417">
        <ele>203.1</ele>
        <time>2022-09-24T13:03:11Z</time>
      </trkpt>
      <trkpt lat="45.78602" lon="5.26424">
        <ele>203.1</ele>
        <time>2022-09-24T13:03:12Z</time>
      </trkpt>
      <trkpt lat="45.78603" lon="5.2643">
        <ele>203</ele>
        <time>2022-09-24T13:03:13Z</time>
      </trkpt>
      <trkpt lat="45.78605" lon="5.26437">
        <ele>203</ele>
        <time>2022-09-24T13:03:14Z</time>
      </trkpt>
      <trkpt lat="45.78607" lon="5.26443">
        <ele>203</ele>
        <time>2022-09-24T13:03:15Z</time>
      </trkpt>
      <trkpt lat="45.78608" lon="5.2645">
        <ele>203</ele>
        <time>2022-09-24T13:03:16Z</time>
      </trkpt>
      <trkpt lat="45.78609" lon="5.26456">
        <ele>202.9</ele>
        <time>2022-09-24T13:03:17Z</time>
      </trkpt>
      <trkpt lat="45.78611" lon="5.26463">
        <ele>202.9</ele>
        <time>2022-09-24T13:03:18Z</time>
      </trkpt>
      <trkpt lat="45.78613" lon="5.26469">
        <ele>202.8</ele>
        <time>2022-09-24T13:03:19Z</time>
      </trkpt>
      <trkpt lat="45.78616" lon="5.26475">
        <ele>202.7</ele>
        <time>2022-09-24T13:03:20Z</time>
      </trkpt>
      <trkpt lat="45.78618" lon="5.26481">
        <ele>202.7</ele>
        <time>2022-09-24T13:03:21Z</time>
      </trkpt>
      <trkpt lat="45.78621" lon="5.26488">
        <ele>202.6</ele>
        <time>2022-09-24T13:03:22Z</time>
      </trkpt>
      <trkpt lat="45.78623" lon="5.26495">
        <ele>202.5</ele>
        <time>2022-09-24T13:03:23Z</time>
      </trkpt>
      <trkpt lat="45.78626" lon="5.265">
        <ele>202.4</ele>
        <time>2022-09-24T13:03:24Z</time>
      </trkpt>
      <trkpt lat="45.78628" lon="5.26506">
        <ele>202.3</ele>
        <time>2022-09-24T13:03:25Z</time>
      </trkpt>
      <trkpt lat="45.7863" lon="5.26512">
        <ele>202.1</ele>
        <time>2022-09-24T13:03:26Z</time>
      </trkpt>
      <trkpt lat="45.78632" lon="5.26519">
        <ele>202</ele>
        <time>2022-09-24T13:03:27Z</time>
      </trkpt>
      <trkpt lat="45.78635" lon="5.26525">
        <ele>201.9</ele>
        <time>2022-09-24T13:03:28Z</time>
      </trkpt>
      <trkpt lat="45.78637" lon="5.26531">
        <ele>201.8</ele>
        <time>2022-09-24T13:03:29Z</time>
      </trkpt>
      <trkpt lat="45.78638" lon="5.26537">
        <ele>201.6</ele>
        <time>2022-09-24T13:03:30Z</time>
      </trkpt>
      <trkpt lat="45.7864" lon="5.26544">
        <ele>201.5</ele>
        <time>2022-09-24T13:03:31Z</time>
      </trkpt>
      <trkpt lat="45.78641" lon="5.26552">
        <ele>201.4</ele>
        <time>2022-09-24T13:03:32Z</time>
      </trkpt>
      <trkpt lat="45.78642" lon="5.2656">
        <ele>201.3</ele>
        <time>2022-09-24T13:03:33Z</time>
      </trkpt>
      <trkpt lat="45.78643" lon="5.26569">
        <ele>201.2</ele>
        <time>2022-09-24T13:03:34Z</time>
      </trkpt>
      <trkpt lat="45.78643" lon="5.26576">
        <ele>201.2</ele>
        <time>2022-09-24T13:03:35Z</time>
      </trkpt>
      <trkpt lat="45.78643" lon="5.26583">
        <ele>201.2</ele>
        <time>2022-09-24T13:03:36Z</time>
      </trkpt>
      <trkpt lat="45.78643" lon="5.26591">
        <ele>201.2</ele>
        <time>2022-09-24T13:03:37Z</time>
      </trkpt>
      <trkpt lat="45.78645" lon="5.26598">
        <ele>201.3</ele>
        <time>2022-09-24T13:03:38Z</time>
      </trkpt>
      <trkpt lat="45.78647" lon="5.26606">
        <ele>201.4</ele>
        <time>2022-09-24T13:03:39Z</time>
      </trkpt>
      <trkpt lat="45.78648" lon="5.26613">
        <ele>201.4</ele>
        <time>2022-09-24T13:03:40Z</time>
      </trkpt>
      <trkpt lat="45.7865" lon="5.26619">
        <ele>201.5</ele>
        <time>2022-09-24T13:03:41Z</time>
      </trkpt>
      <trkpt lat="45.78653" lon="5.26626">
        <ele>201.6</ele>
        <time>2022-09-24T13:03:42Z</time>
      </trkpt>
      <trkpt lat="45.78655" lon="5.26632">
        <ele>201.7</ele>
        <time>2022-09-24T13:03:43Z</time>
      </trkpt>
      <trkpt lat="45.78656" lon="5.26638">
        <ele>201.8</ele>
        <time>2022-09-24T13:03:44Z</time>
      </trkpt>
      <trkpt lat="45.78658" lon="5.26644">
        <ele>201.9</ele>
        <time>2022-09-24T13:03:45Z</time>
      </trkpt>
      <trkpt lat="45.7866" lon="5.2665">
        <ele>202</ele>
        <time>2022-09-24T13:03:46Z</time>
      </trkpt>
      <trkpt lat="45.78662" lon="5.26656">
        <ele>202</ele>
        <time>2022-09-24T13:03:47Z</time>
      </trkpt>
      <trkpt lat="45.78663" lon="5.26662">
        <ele>202.1</ele>
        <time>2022-09-24T13:03:48Z</time>
      </trkpt>
      <trkpt lat="45.78665" lon="5.26669">
        <ele>202.1</ele>
        <time>2022-09-24T13:03:49Z</time>
      </trkpt>
      <trkpt lat="45.78667" lon="5.26675">
        <ele>202.1</ele>
        <time>2022-09-24T13:03:50Z</time>
      </trkpt>
      <trkpt lat="45.78669" lon="5.26682">
        <ele>202.1</ele>
        <time>2022-09-24T13:03:51Z</time>
      </trkpt>
      <trkpt lat="45.78671" lon="5.26688">
        <ele>202.2</ele>
        <time>2022-09-24T13:03:52Z</time>
      </trkpt>
      <trkpt lat="45.78673" lon="5.26695">
        <ele>202.2</ele>
        <time>2022-09-24T13:03:53Z</time>
      </trkpt>
      <trkpt lat="45.78674" lon="5.26701">
        <ele>202.3</ele>
        <time>2022-09-24T13:03:54Z</time>
      </trkpt>
      <trkpt lat="45.78677" lon="5.26708">
        <ele>202.3</ele>
        <time>2022-09-24T13:03:55Z</time>
      </trkpt>
      <trkpt lat="45.78679" lon="5.26714">
        <ele>202.3</ele>
        <time>2022-09-24T13:03:56Z</time>
      </trkpt>
      <trkpt lat="45.7868" lon="5.26721">
        <ele>202.4</ele>
        <time>2022-09-24T13:03:57Z</time>
      </trkpt>
      <trkpt lat="45.78683" lon="5.26728">
        <ele>202.4</ele>
        <time>2022-09-24T13:03:58Z</time>
      </trkpt>
      <trkpt lat="45.78685" lon="5.26734">
        <ele>202.4</ele>
        <time>2022-09-24T13:03:59Z</time>
      </trkpt>
      <trkpt lat="45.78687" lon="5.26741">
        <ele>202.5</ele>
        <time>2022-09-24T13:04:00Z</time>
      </trkpt>
      <trkpt lat="45.78689" lon="5.26748">
        <ele>202.5</ele>
        <time>2022-09-24T13:04:01Z</time>
      </trkpt>
      <trkpt lat="45.78691" lon="5.26754">
        <ele>202.6</ele>
        <time>2022-09-24T13:04:02Z</time>
      </trkpt>
      <trkpt lat="45.78694" lon="5.26761">
        <ele>202.6</ele>
        <time>2022-09-24T13:04:03Z</time>
      </trkpt>
      <trkpt lat="45.78696" lon="5.26767">
        <ele>202.7</ele>
        <time>2022-09-24T13:04:04Z</time>
      </trkpt>
      <trkpt lat="45.78698" lon="5.26774">
        <ele>202.8</ele>
        <time>2022-09-24T13:04:05Z</time>
      </trkpt>
      <trkpt lat="45.787" lon="5.26779">
        <ele>202.9</ele>
        <time>2022-09-24T13:04:06Z</time>
      </trkpt>
      <trkpt lat="45.78702" lon="5.26786">
        <ele>203</ele>
        <time>2022-09-24T13:04:07Z</time>
      </trkpt>
      <trkpt lat="45.78704" lon="5.26791">
        <ele>203.1</ele>
        <time>2022-09-24T13:04:08Z</time>
      </trkpt>
      <trkpt lat="45.78706" lon="5.26797">
        <ele>203.2</ele>
        <time>2022-09-24T13:04:09Z</time>
      </trkpt>
      <trkpt lat="45.78708" lon="5.26802">
        <ele>203.3</ele>
        <time>2022-09-24T13:04:10Z</time>
      </trkpt>
      <trkpt lat="45.78709" lon="5.26807">
        <ele>203.4</ele>
        <time>2022-09-24T13:04:11Z</time>
      </trkpt>
      <trkpt lat="45.78711" lon="5.26812">
        <ele>203.5</ele>
        <time>2022-09-24T13:04:12Z</time>
      </trkpt>
      <trkpt lat="45.78713" lon="5.26817">
        <ele>203.6</ele>
        <time>2022-09-24T13:04:13Z</time>
      </trkpt>
      <trkpt lat="45.78715" lon="5.26821">
        <ele>203.7</ele>
        <time>2022-09-24T13:04:14Z</time>
      </trkpt>
      <trkpt lat="45.78716" lon="5.26826">
        <ele>203.8</ele>
        <time>2022-09-24T13:04:15Z</time>
      </trkpt>
      <trkpt lat="45.78717" lon="5.2683">
        <ele>203.8</ele>
        <time>2022-09-24T13:04:16Z</time>
      </trkpt>
      <trkpt lat="45.78719" lon="5.26834">
        <ele>203.9</ele>
        <time>2022-09-24T13:04:17Z</time>
      </trkpt>
      <trkpt lat="45.7872" lon="5.26838">
        <ele>204</ele>
        <time>2022-09-24T13:04:18Z</time>
      </trkpt>
      <trkpt lat="45.78721" lon="5.26842">
        <ele>204.1</ele>
        <time>2022-09-24T13:04:19Z</time>
      </trkpt>
      <trkpt lat="45.78723" lon="5.26846">
        <ele>204.1</ele>
        <time>2022-09-24T13:04:20Z</time>
      </trkpt>
      <trkpt lat="45.78724" lon="5.26851">
        <ele>204.2</ele>
        <time>2022-09-24T13:04:21Z</time>
      </trkpt>
      <trkpt lat="45.78726" lon="5.26855">
        <ele>204.3</ele>
        <time>2022-09-24T13:04:22Z</time>
      </trkpt>
      <trkpt lat="45.78727" lon="5.26859">
        <ele>204.3</ele>
        <time>2022-09-24T13:04:23Z</time>
      </trkpt>
      <trkpt lat="45.78728" lon="5.26864">
        <ele>204.4</ele>
        <time>2022-09-24T13:04:24Z</time>
      </trkpt>
      <trkpt lat="45.7873" lon="5.26868">
        <ele>204.4</ele>
        <time>2022-09-24T13:04:25Z</time>
      </trkpt>
      <trkpt lat="45.78732" lon="5.26873">
        <ele>204.5</ele>
        <time>2022-09-24T13:04:26Z</time>
      </trkpt>
      <trkpt lat="45.78733" lon="5.26877">
        <ele>204.6</ele>
        <time>2022-09-24T13:04:27Z</time>
      </trkpt>
      <trkpt lat="45.78735" lon="5.26881">
        <ele>204.6</ele>
        <time>2022-09-24T13:04:28Z</time>
      </trkpt>
      <trkpt lat="45.78737" lon="5.26885">
        <ele>204.7</ele>
        <time>2022-09-24T13:04:29Z</time>
      </trkpt>
      <trkpt lat="45.78739" lon="5.2689">
        <ele>204.6</ele>
        <time>2022-09-24T13:04:30Z</time>
      </trkpt>
      <trkpt lat="45.78739" lon="5.26891">
        <ele>204.6</ele>
        <time>2022-09-24T13:04:31Z</time>
      </trkpt>
      <trkpt lat="45.78739" lon="5.26892">
        <ele>204.6</ele>
        <time>2022-09-24T13:04:32Z</time>
      </trkpt>
      <trkpt lat="45.78739" lon="5.26892">
        <ele>204.6</ele>
        <time>2022-09-24T13:04:33Z</time>
      </trkpt>
      <trkpt lat="45.78739" lon="5.26891">
        <ele>204.6</ele>
        <time>2022-09-24T13:04:34Z</time>
      </trkpt>
      <trkpt lat="45.78738" lon="5.26891">
        <ele>204.6</ele>
        <time>2022-09-24T13:04:35Z</time>
      </trkpt>
      <trkpt lat="45.78738" lon="5.26891">
        <ele>204.6</ele>
        <time>2022-09-24T13:04:36Z</time>
      </trkpt>
      <trkpt lat="45.78738" lon="5.26891">
        <ele>204.6</ele>
        <time>2022-09-24T13:04:37Z</time>
      </trkpt>
      <trkpt lat="45.78738" lon="5.26891">
        <ele>204.6</ele>
        <time>2022-09-24T13:04:38Z</time>
      </trkpt>
      <trkpt lat="45.78737" lon="5.2689">
        <ele>204.6</ele>
        <time>2022-09-24T13:04:39Z</time>
      </trkpt>
      <trkpt lat="45.78737" lon="5.2689">
        <ele>204.6</ele>
        <time>2022-09-24T13:04:40Z</time>
      </trkpt>
      <trkpt lat="45.78737" lon="5.2689">
        <ele>204.6</ele>
        <time>2022-09-24T13:04:41Z</time>
      </trkpt>
      <trkpt lat="45.78736" lon="5.2689">
        <ele>204.6</ele>
        <time>2022-09-24T13:04:42Z</time>
      </trkpt>
      <trkpt lat="45.78736" lon="5.26889">
        <ele>204.6</ele>
        <time>2022-09-24T13:04:55Z</time>
      </trkpt>
      <trkpt lat="45.78736" lon="5.26889">
        <ele>204.6</ele>
        <time>2022-09-24T13:04:56Z</time>
      </trkpt>
      <trkpt lat="45.78736" lon="5.26889">
        <ele>204.5</ele>
        <time>2022-09-24T13:04:57Z</time>
      </trkpt>
      <trkpt lat="45.78735" lon="5.26885">
        <ele>204.5</ele>
        <time>2022-09-24T13:04:58Z</time>
      </trkpt>
      <trkpt lat="45.78734" lon="5.2688">
        <ele>204.5</ele>
        <time>2022-09-24T13:04:59Z</time>
      </trkpt>
      <trkpt lat="45.78734" lon="5.26878">
        <ele>204.4</ele>
        <time>2022-09-24T13:05:00Z</time>
      </trkpt>
      <trkpt lat="45.78733" lon="5.26874">
        <ele>204.4</ele>
        <time>2022-09-24T13:05:01Z</time>
      </trkpt>
      <trkpt lat="45.78731" lon="5.2687">
        <ele>204.3</ele>
        <time>2022-09-24T13:05:02Z</time>
      </trkpt>
      <trkpt lat="45.78729" lon="5.26863">
        <ele>204.3</ele>
        <time>2022-09-24T13:05:03Z</time>
      </trkpt>
      <trkpt lat="45.78727" lon="5.26858">
        <ele>204.2</ele>
        <time>2022-09-24T13:05:04Z</time>
      </trkpt>
      <trkpt lat="45.78725" lon="5.26852">
        <ele>204.1</ele>
        <time>2022-09-24T13:05:05Z</time>
      </trkpt>
      <trkpt lat="45.78723" lon="5.26845">
        <ele>204</ele>
        <time>2022-09-24T13:05:06Z</time>
      </trkpt>
      <trkpt lat="45.78722" lon="5.26841">
        <ele>204</ele>
        <time>2022-09-24T13:05:07Z</time>
      </trkpt>
      <trkpt lat="45.78721" lon="5.26839">
        <ele>204</ele>
        <time>2022-09-24T13:05:08Z</time>
      </trkpt>
      <trkpt lat="45.78721" lon="5.26837">
        <ele>203.9</ele>
        <time>2022-09-24T13:05:09Z</time>
      </trkpt>
      <trkpt lat="45.7872" lon="5.26836">
        <ele>203.9</ele>
        <time>2022-09-24T13:05:10Z</time>
      </trkpt>
      <trkpt lat="45.78719" lon="5.26833">
        <ele>203.9</ele>
        <time>2022-09-24T13:05:11Z</time>
      </trkpt>
      <trkpt lat="45.78717" lon="5.2683">
        <ele>203.8</ele>
        <time>2022-09-24T13:05:12Z</time>
      </trkpt>
      <trkpt lat="45.78717" lon="5.26828">
        <ele>203.8</ele>
        <time>2022-09-24T13:05:13Z</time>
      </trkpt>
      <trkpt lat="45.78716" lon="5.26823">
        <ele>203.7</ele>
        <time>2022-09-24T13:05:14Z</time>
      </trkpt>
      <trkpt lat="45.78715" lon="5.26819">
        <ele>203.6</ele>
        <time>2022-09-24T13:05:15Z</time>
      </trkpt>
      <trkpt lat="45.78714" lon="5.26818">
        <ele>203.7</ele>
        <time>2022-09-24T13:05:16Z</time>
      </trkpt>
      <trkpt lat="45.78713" lon="5.2682">
        <ele>203.7</ele>
        <time>2022-09-24T13:05:17Z</time>
      </trkpt>
      <trkpt lat="45.78713" lon="5.26822">
        <ele>203.7</ele>
        <time>2022-09-24T13:05:18Z</time>
      </trkpt>
      <trkpt lat="45.78714" lon="5.26822">
        <ele>203.8</ele>
        <time>2022-09-24T13:05:19Z</time>
      </trkpt>
      <trkpt lat="45.78716" lon="5.26821">
        <ele>203.8</ele>
        <time>2022-09-24T13:05:20Z</time>
      </trkpt>
      <trkpt lat="45.78717" lon="5.26823">
        <ele>203.8</ele>
        <time>2022-09-24T13:05:21Z</time>
      </trkpt>
      <trkpt lat="45.78718" lon="5.26826">
        <ele>203.9</ele>
        <time>2022-09-24T13:05:22Z</time>
      </trkpt>
      <trkpt lat="45.78718" lon="5.26828">
        <ele>203.9</ele>
        <time>2022-09-24T13:05:23Z</time>
      </trkpt>
      <trkpt lat="45.78719" lon="5.26833">
        <ele>204</ele>
        <time>2022-09-24T13:05:24Z</time>
      </trkpt>
      <trkpt lat="45.7872" lon="5.26835">
        <ele>204</ele>
        <time>2022-09-24T13:05:25Z</time>
      </trkpt>
      <trkpt lat="45.78721" lon="5.2684">
        <ele>204.1</ele>
        <time>2022-09-24T13:05:26Z</time>
      </trkpt>
      <trkpt lat="45.78722" lon="5.26844">
        <ele>204.1</ele>
        <time>2022-09-24T13:05:27Z</time>
      </trkpt>
      <trkpt lat="45.78723" lon="5.26849">
        <ele>204.2</ele>
        <time>2022-09-24T13:05:28Z</time>
      </trkpt>
      <trkpt lat="45.78725" lon="5.26854">
        <ele>204.3</ele>
        <time>2022-09-24T13:05:29Z</time>
      </trkpt>
      <trkpt lat="45.78727" lon="5.26858">
        <ele>204.3</ele>
        <time>2022-09-24T13:05:30Z</time>
      </trkpt>
      <trkpt lat="45.78728" lon="5.26863">
        <ele>204.4</ele>
        <time>2022-09-24T13:05:31Z</time>
      </trkpt>
      <trkpt lat="45.7873" lon="5.26867">
        <ele>204.4</ele>
        <time>2022-09-24T13:05:32Z</time>
      </trkpt>
      <trkpt lat="45.78732" lon="5.26872">
        <ele>204.5</ele>
        <time>2022-09-24T13:05:33Z</time>
      </trkpt>
      <trkpt lat="45.78734" lon="5.26877">
        <ele>204.6</ele>
        <time>2022-09-24T13:05:34Z</time>
      </trkpt>
      <trkpt lat="45.78735" lon="5.26881">
        <ele>204.6</ele>
        <time>2022-09-24T13:05:35Z</time>
      </trkpt>
      <trkpt lat="45.78737" lon="5.26885">
        <ele>204.7</ele>
        <time>2022-09-24T13:05:36Z</time>
      </trkpt>
      <trkpt lat="45.78738" lon="5.26888">
        <ele>204.7</ele>
        <time>2022-09-24T13:05:37Z</time>
      </trkpt>
      <trkpt lat="45.78738" lon="5.26888">
        <ele>204.7</ele>
        <time>2022-09-24T13:05:38Z</time>
      </trkpt>
      <trkpt lat="45.78738" lon="5.26888">
        <ele>204.7</ele>
        <time>2022-09-24T13:05:39Z</time>
      </trkpt>
      <trkpt lat="45.78738" lon="5.26888">
        <ele>204.7</ele>
        <time>2022-09-24T13:05:40Z</time>
      </trkpt>
      <trkpt lat="45.78738" lon="5.26888">
        <ele>204.7</ele>
        <time>2022-09-24T13:05:41Z</time>
      </trkpt>
      <trkpt lat="45.78738" lon="5.26887">
        <ele>204.7</ele>
        <time>2022-09-24T13:05:42Z</time>
      </trkpt>
      <trkpt lat="45.78738" lon="5.26887">
        <ele>204.7</ele>
        <time>2022-09-24T13:05:43Z</time>
      </trkpt>
      <trkpt lat="45.78738" lon="5.26888">
        <ele>204.7</ele>
        <time>2022-09-24T13:05:44Z</time>
      </trkpt>
      <trkpt lat="45.78738" lon="5.26888">
        <ele>204.7</ele>
        <time>2022-09-24T13:05:45Z</time>
      </trkpt>
      <trkpt lat="45.78738" lon="5.26888">
        <ele>204.7</ele>
        <time>2022-09-24T13:05:46Z</time>
      </trkpt>
      <trkpt lat="45.78738" lon="5.26888">
        <ele>204.8</ele>
        <time>2022-09-24T13:05:47Z</time>
      </trkpt>
      <trkpt lat="45.78746" lon="5.26907">
        <ele>205</ele>
        <time>2022-09-24T13:05:48Z</time>
      </trkpt>
      <trkpt lat="45.78753" lon="5.26925">
        <ele>205.3</ele>
        <time>2022-09-24T13:16:03Z</time>
      </trkpt>
      <trkpt lat="45.78759" lon="5.26943">
        <ele>205.4</ele>
        <time>2022-09-24T13:16:04Z</time>
      </trkpt>
      <trkpt lat="45.78762" lon="5.26947">
        <ele>205.5</ele>
        <time>2022-09-24T13:16:05Z</time>
      </trkpt>
      <trkpt lat="45.78764" lon="5.2695">
        <ele>205.6</ele>
        <time>2022-09-24T13:16:06Z</time>
      </trkpt>
      <trkpt lat="45.78767" lon="5.26954">
        <ele>205.6</ele>
        <time>2022-09-24T13:16:07Z</time>
      </trkpt>
      <trkpt lat="45.78769" lon="5.26958">
        <ele>205.7</ele>
        <time>2022-09-24T13:16:08Z</time>
      </trkpt>
      <trkpt lat="45.78772" lon="5.26963">
        <ele>205.7</ele>
        <time>2022-09-24T13:16:09Z</time>
      </trkpt>
      <trkpt lat="45.78774" lon="5.26967">
        <ele>205.7</ele>
        <time>2022-09-24T13:16:10Z</time>
      </trkpt>
      <trkpt lat="45.78777" lon="5.26971">
        <ele>205.8</ele>
        <time>2022-09-24T13:16:11Z</time>
      </trkpt>
      <trkpt lat="45.7878" lon="5.26974">
        <ele>205.8</ele>
        <time>2022-09-24T13:16:12Z</time>
      </trkpt>
      <trkpt lat="45.78782" lon="5.26979">
        <ele>205.8</ele>
        <time>2022-09-24T13:16:13Z</time>
      </trkpt>
      <trkpt lat="45.78785" lon="5.26982">
        <ele>205.8</ele>
        <time>2022-09-24T13:16:14Z</time>
      </trkpt>
      <trkpt lat="45.78789" lon="5.26986">
        <ele>205.8</ele>
        <time>2022-09-24T13:16:15Z</time>
      </trkpt>
      <trkpt lat="45.78792" lon="5.26991">
        <ele>205.8</ele>
        <time>2022-09-24T13:16:16Z</time>
      </trkpt>
      <trkpt lat="45.78795" lon="5.26995">
        <ele>205.8</ele>
        <time>2022-09-24T13:16:17Z</time>
      </trkpt>
      <trkpt lat="45.78798" lon="5.27">
        <ele>205.7</ele>
        <time>2022-09-24T13:16:18Z</time>
      </trkpt>
      <trkpt lat="45.78801" lon="5.27004">
        <ele>205.7</ele>
        <time>2022-09-24T13:16:19Z</time>
      </trkpt>
      <trkpt lat="45.78804" lon="5.27008">
        <ele>205.7</ele>
        <time>2022-09-24T13:16:20Z</time>
      </trkpt>
      <trkpt lat="45.78808" lon="5.27013">
        <ele>205.7</ele>
        <time>2022-09-24T13:16:21Z</time>
      </trkpt>
      <trkpt lat="45.78811" lon="5.27017">
        <ele>205.7</ele>
        <time>2022-09-24T13:16:22Z</time>
      </trkpt>
      <trkpt lat="45.78814" lon="5.27022">
        <ele>205.7</ele>
        <time>2022-09-24T13:16:23Z</time>
      </trkpt>
      <trkpt lat="45.78817" lon="5.27028">
        <ele>205.7</ele>
        <time>2022-09-24T13:16:24Z</time>
      </trkpt>
      <trkpt lat="45.7882" lon="5.27034">
        <ele>205.8</ele>
        <time>2022-09-24T13:16:25Z</time>
      </trkpt>
      <trkpt lat="45.78823" lon="5.27039">
        <ele>205.8</ele>
        <time>2022-09-24T13:16:26Z</time>
      </trkpt>
      <trkpt lat="45.78827" lon="5.27044">
        <ele>205.9</ele>
        <time>2022-09-24T13:16:27Z</time>
      </trkpt>
      <trkpt lat="45.7883" lon="5.2705">
        <ele>205.9</ele>
        <time>2022-09-24T13:16:28Z</time>
      </trkpt>
      <trkpt lat="45.78833" lon="5.27055">
        <ele>206</ele>
        <time>2022-09-24T13:16:29Z</time>
      </trkpt>
      <trkpt lat="45.78837" lon="5.27061">
        <ele>206.1</ele>
        <time>2022-09-24T13:16:30Z</time>
      </trkpt>
      <trkpt lat="45.7884" lon="5.27066">
        <ele>206.1</ele>
        <time>2022-09-24T13:16:31Z</time>
      </trkpt>
      <trkpt lat="45.78844" lon="5.27071">
        <ele>206.2</ele>
        <time>2022-09-24T13:16:32Z</time>
      </trkpt>
      <trkpt lat="45.78847" lon="5.27076">
        <ele>206.2</ele>
        <time>2022-09-24T13:16:33Z</time>
      </trkpt>
      <trkpt lat="45.7885" lon="5.27082">
        <ele>206.3</ele>
        <time>2022-09-24T13:16:34Z</time>
      </trkpt>
      <trkpt lat="45.78853" lon="5.27086">
        <ele>206.3</ele>
        <time>2022-09-24T13:16:35Z</time>
      </trkpt>
      <trkpt lat="45.78857" lon="5.27092">
        <ele>206.3</ele>
        <time>2022-09-24T13:16:36Z</time>
      </trkpt>
      <trkpt lat="45.7886" lon="5.27096">
        <ele>206.3</ele>
        <time>2022-09-24T13:16:37Z</time>
      </trkpt>
      <trkpt lat="45.78863" lon="5.27102">
        <ele>206.3</ele>
        <time>2022-09-24T13:16:38Z</time>
      </trkpt>
      <trkpt lat="45.78866" lon="5.27107">
        <ele>206.3</ele>
        <time>2022-09-24T13:16:39Z</time>
      </trkpt>
      <trkpt lat="45.7887" lon="5.27112">
        <ele>206.3</ele>
        <time>2022-09-24T13:16:40Z</time>
      </trkpt>
      <trkpt lat="45.78873" lon="5.27117">
        <ele>206.3</ele>
        <time>2022-09-24T13:16:41Z</time>
      </trkpt>
      <trkpt lat="45.78877" lon="5.27123">
        <ele>206.3</ele>
        <time>2022-09-24T13:16:42Z</time>
      </trkpt>
      <trkpt lat="45.78881" lon="5.27128">
        <ele>206.3</ele>
        <time>2022-09-24T13:16:43Z</time>
      </trkpt>
      <trkpt lat="45.78884" lon="5.27133">
        <ele>206.3</ele>
        <time>2022-09-24T13:16:44Z</time>
      </trkpt>
      <trkpt lat="45.78887" lon="5.27139">
        <ele>206.3</ele>
        <time>2022-09-24T13:16:45Z</time>
      </trkpt>
      <trkpt lat="45.78891" lon="5.27144">
        <ele>206.4</ele>
        <time>2022-09-24T13:16:46Z</time>
      </trkpt>
      <trkpt lat="45.78895" lon="5.27149">
        <ele>206.4</ele>
        <time>2022-09-24T13:16:47Z</time>
      </trkpt>
      <trkpt lat="45.78899" lon="5.27155">
        <ele>206.5</ele>
        <time>2022-09-24T13:16:48Z</time>
      </trkpt>
      <trkpt lat="45.78902" lon="5.27159">
        <ele>206.5</ele>
        <time>2022-09-24T13:16:49Z</time>
      </trkpt>
      <trkpt lat="45.78905" lon="5.27164">
        <ele>206.5</ele>
        <time>2022-09-24T13:16:50Z</time>
      </trkpt>
      <trkpt lat="45.78909" lon="5.27169">
        <ele>206.5</ele>
        <time>2022-09-24T13:16:51Z</time>
      </trkpt>
      <trkpt lat="45.78912" lon="5.27175">
        <ele>206.6</ele>
        <time>2022-09-24T13:16:52Z</time>
      </trkpt>
      <trkpt lat="45.78914" lon="5.2718">
        <ele>206.6</ele>
        <time>2022-09-24T13:16:53Z</time>
      </trkpt>
      <trkpt lat="45.78918" lon="5.27186">
        <ele>206.6</ele>
        <time>2022-09-24T13:16:54Z</time>
      </trkpt>
      <trkpt lat="45.78921" lon="5.27192">
        <ele>206.6</ele>
        <time>2022-09-24T13:16:55Z</time>
      </trkpt>
      <trkpt lat="45.78924" lon="5.27198">
        <ele>206.6</ele>
        <time>2022-09-24T13:16:56Z</time>
      </trkpt>
      <trkpt lat="45.78928" lon="5.27204">
        <ele>206.6</ele>
        <time>2022-09-24T13:16:57Z</time>
      </trkpt>
      <trkpt lat="45.78931" lon="5.2721">
        <ele>206.6</ele>
        <time>2022-09-24T13:16:58Z</time>
      </trkpt>
      <trkpt lat="45.78934" lon="5.27215">
        <ele>206.6</ele>
        <time>2022-09-24T13:16:59Z</time>
      </trkpt>
      <trkpt lat="45.78938" lon="5.27221">
        <ele>206.6</ele>
        <time>2022-09-24T13:17:00Z</time>
      </trkpt>
      <trkpt lat="45.78942" lon="5.27227">
        <ele>206.6</ele>
        <time>2022-09-24T13:17:01Z</time>
      </trkpt>
      <trkpt lat="45.78945" lon="5.27232">
        <ele>206.6</ele>
        <time>2022-09-24T13:17:02Z</time>
      </trkpt>
      <trkpt lat="45.78949" lon="5.27238">
        <ele>206.6</ele>
        <time>2022-09-24T13:17:03Z</time>
      </trkpt>
      <trkpt lat="45.78952" lon="5.27244">
        <ele>206.6</ele>
        <time>2022-09-24T13:17:04Z</time>
      </trkpt>
      <trkpt lat="45.78955" lon="5.2725">
        <ele>206.6</ele>
        <time>2022-09-24T13:17:05Z</time>
      </trkpt>
      <trkpt lat="45.78959" lon="5.27256">
        <ele>206.6</ele>
        <time>2022-09-24T13:17:06Z</time>
      </trkpt>
      <trkpt lat="45.78963" lon="5.27262">
        <ele>206.6</ele>
        <time>2022-09-24T13:17:07Z</time>
      </trkpt>
      <trkpt lat="45.78966" lon="5.27267">
        <ele>206.6</ele>
        <time>2022-09-24T13:17:08Z</time>
      </trkpt>
      <trkpt lat="45.78969" lon="5.27273">
        <ele>206.6</ele>
        <time>2022-09-24T13:17:09Z</time>
      </trkpt>
      <trkpt lat="45.78972" lon="5.27279">
        <ele>206.7</ele>
        <time>2022-09-24T13:17:10Z</time>
      </trkpt>
      <trkpt lat="45.78976" lon="5.27284">
        <ele>206.7</ele>
        <time>2022-09-24T13:17:11Z</time>
      </trkpt>
      <trkpt lat="45.78979" lon="5.2729">
        <ele>206.7</ele>
        <time>2022-09-24T13:17:12Z</time>
      </trkpt>
      <trkpt lat="45.78982" lon="5.27296">
        <ele>206.7</ele>
        <time>2022-09-24T13:17:13Z</time>
      </trkpt>
      <trkpt lat="45.78986" lon="5.27302">
        <ele>206.7</ele>
        <time>2022-09-24T13:17:14Z</time>
      </trkpt>
      <trkpt lat="45.7899" lon="5.27307">
        <ele>206.6</ele>
        <time>2022-09-24T13:17:15Z</time>
      </trkpt>
      <trkpt lat="45.78993" lon="5.27313">
        <ele>206.6</ele>
        <time>2022-09-24T13:17:16Z</time>
      </trkpt>
      <trkpt lat="45.78997" lon="5.27318">
        <ele>206.6</ele>
        <time>2022-09-24T13:17:17Z</time>
      </trkpt>
      <trkpt lat="45.79" lon="5.27324">
        <ele>206.5</ele>
        <time>2022-09-24T13:17:18Z</time>
      </trkpt>
      <trkpt lat="45.79004" lon="5.2733">
        <ele>206.5</ele>
        <time>2022-09-24T13:17:19Z</time>
      </trkpt>
      <trkpt lat="45.79008" lon="5.27336">
        <ele>206.4</ele>
        <time>2022-09-24T13:17:20Z</time>
      </trkpt>
      <trkpt lat="45.79012" lon="5.27342">
        <ele>206.4</ele>
        <time>2022-09-24T13:17:21Z</time>
      </trkpt>
      <trkpt lat="45.79016" lon="5.27347">
        <ele>206.3</ele>
        <time>2022-09-24T13:17:22Z</time>
      </trkpt>
      <trkpt lat="45.7902" lon="5.27354">
        <ele>206.2</ele>
        <time>2022-09-24T13:17:23Z</time>
      </trkpt>
      <trkpt lat="45.79024" lon="5.2736">
        <ele>206.2</ele>
        <time>2022-09-24T13:17:24Z</time>
      </trkpt>
      <trkpt lat="45.79028" lon="5.27366">
        <ele>206.2</ele>
        <time>2022-09-24T13:17:25Z</time>
      </trkpt>
      <trkpt lat="45.79032" lon="5.27372">
        <ele>206.1</ele>
        <time>2022-09-24T13:17:26Z</time>
      </trkpt>
      <trkpt lat="45.79035" lon="5.27379">
        <ele>206.1</ele>
        <time>2022-09-24T13:17:27Z</time>
      </trkpt>
      <trkpt lat="45.79039" lon="5.27384">
        <ele>206</ele>
        <time>2022-09-24T13:17:28Z</time>
      </trkpt>
      <trkpt lat="45.79043" lon="5.27389">
        <ele>206</ele>
        <time>2022-09-24T13:17:29Z</time>
      </trkpt>
      <trkpt lat="45.79047" lon="5.27395">
        <ele>205.9</ele>
        <time>2022-09-24T13:17:30Z</time>
      </trkpt>
      <trkpt lat="45.79052" lon="5.274">
        <ele>205.9</ele>
        <time>2022-09-24T13:17:31Z</time>
      </trkpt>
      <trkpt lat="45.79056" lon="5.27405">
        <ele>205.8</ele>
        <time>2022-09-24T13:17:32Z</time>
      </trkpt>
      <trkpt lat="45.79059" lon="5.27411">
        <ele>205.8</ele>
        <time>2022-09-24T13:17:33Z</time>
      </trkpt>
      <trkpt lat="45.79062" lon="5.27417">
        <ele>205.7</ele>
        <time>2022-09-24T13:17:34Z</time>
      </trkpt>
      <trkpt lat="45.79066" lon="5.27424">
        <ele>205.6</ele>
        <time>2022-09-24T13:17:35Z</time>
      </trkpt>
      <trkpt lat="45.79069" lon="5.2743">
        <ele>205.5</ele>
        <time>2022-09-24T13:17:36Z</time>
      </trkpt>
      <trkpt lat="45.79073" lon="5.27436">
        <ele>205.4</ele>
        <time>2022-09-24T13:17:37Z</time>
      </trkpt>
      <trkpt lat="45.79077" lon="5.27442">
        <ele>205.4</ele>
        <time>2022-09-24T13:17:38Z</time>
      </trkpt>
      <trkpt lat="45.79082" lon="5.27448">
        <ele>205.4</ele>
        <time>2022-09-24T13:17:39Z</time>
      </trkpt>
      <trkpt lat="45.79084" lon="5.27454">
        <ele>205.3</ele>
        <time>2022-09-24T13:17:40Z</time>
      </trkpt>
      <trkpt lat="45.79088" lon="5.27461">
        <ele>205.3</ele>
        <time>2022-09-24T13:17:41Z</time>
      </trkpt>
      <trkpt lat="45.79091" lon="5.27467">
        <ele>205.3</ele>
        <time>2022-09-24T13:17:42Z</time>
      </trkpt>
      <trkpt lat="45.79095" lon="5.27474">
        <ele>205.2</ele>
        <time>2022-09-24T13:17:43Z</time>
      </trkpt>
      <trkpt lat="45.79098" lon="5.2748">
        <ele>205.2</ele>
        <time>2022-09-24T13:17:44Z</time>
      </trkpt>
      <trkpt lat="45.79102" lon="5.27486">
        <ele>205.2</ele>
        <time>2022-09-24T13:17:45Z</time>
      </trkpt>
      <trkpt lat="45.79105" lon="5.27493">
        <ele>205.1</ele>
        <time>2022-09-24T13:17:46Z</time>
      </trkpt>
      <trkpt lat="45.79109" lon="5.27499">
        <ele>205.1</ele>
        <time>2022-09-24T13:17:47Z</time>
      </trkpt>
      <trkpt lat="45.79112" lon="5.27505">
        <ele>205.1</ele>
        <time>2022-09-24T13:17:48Z</time>
      </trkpt>
      <trkpt lat="45.79116" lon="5.27511">
        <ele>205.1</ele>
        <time>2022-09-24T13:17:49Z</time>
      </trkpt>
      <trkpt lat="45.7912" lon="5.27516">
        <ele>205</ele>
        <time>2022-09-24T13:17:50Z</time>
      </trkpt>
      <trkpt lat="45.79124" lon="5.2752">
        <ele>205.1</ele>
        <time>2022-09-24T13:17:51Z</time>
      </trkpt>
      <trkpt lat="45.79129" lon="5.27524">
        <ele>205.1</ele>
        <time>2022-09-24T13:17:52Z</time>
      </trkpt>
      <trkpt lat="45.79133" lon="5.27527">
        <ele>205.1</ele>
        <time>2022-09-24T13:17:53Z</time>
      </trkpt>
      <trkpt lat="45.79138" lon="5.27531">
        <ele>205</ele>
        <time>2022-09-24T13:17:54Z</time>
      </trkpt>
      <trkpt lat="45.79143" lon="5.27535">
        <ele>204.9</ele>
        <time>2022-09-24T13:17:55Z</time>
      </trkpt>
      <trkpt lat="45.79148" lon="5.27539">
        <ele>204.9</ele>
        <time>2022-09-24T13:17:56Z</time>
      </trkpt>
      <trkpt lat="45.79153" lon="5.27542">
        <ele>204.8</ele>
        <time>2022-09-24T13:17:57Z</time>
      </trkpt>
      <trkpt lat="45.79157" lon="5.27546">
        <ele>204.8</ele>
        <time>2022-09-24T13:17:58Z</time>
      </trkpt>
      <trkpt lat="45.79162" lon="5.27548">
        <ele>204.8</ele>
        <time>2022-09-24T13:17:59Z</time>
      </trkpt>
      <trkpt lat="45.79167" lon="5.27551">
        <ele>204.8</ele>
        <time>2022-09-24T13:18:00Z</time>
      </trkpt>
      <trkpt lat="45.79172" lon="5.27553">
        <ele>204.8</ele>
        <time>2022-09-24T13:18:01Z</time>
      </trkpt>
      <trkpt lat="45.79177" lon="5.27555">
        <ele>204.8</ele>
        <time>2022-09-24T13:18:02Z</time>
      </trkpt>
      <trkpt lat="45.79182" lon="5.27556">
        <ele>204.8</ele>
        <time>2022-09-24T13:18:03Z</time>
      </trkpt>
      <trkpt lat="45.79188" lon="5.27558">
        <ele>204.8</ele>
        <time>2022-09-24T13:18:04Z</time>
      </trkpt>
      <trkpt lat="45.79192" lon="5.27559">
        <ele>204.7</ele>
        <time>2022-09-24T13:18:05Z</time>
      </trkpt>
      <trkpt lat="45.79198" lon="5.27561">
        <ele>204.7</ele>
        <time>2022-09-24T13:18:06Z</time>
      </trkpt>
      <trkpt lat="45.79204" lon="5.27562">
        <ele>204.7</ele>
        <time>2022-09-24T13:18:07Z</time>
      </trkpt>
      <trkpt lat="45.79209" lon="5.27563">
        <ele>204.6</ele>
        <time>2022-09-24T13:18:08Z</time>
      </trkpt>
      <trkpt lat="45.79215" lon="5.27562">
        <ele>204.6</ele>
        <time>2022-09-24T13:18:09Z</time>
      </trkpt>
      <trkpt lat="45.7922" lon="5.27562">
        <ele>204.5</ele>
        <time>2022-09-24T13:18:10Z</time>
      </trkpt>
      <trkpt lat="45.79226" lon="5.27562">
        <ele>204.5</ele>
        <time>2022-09-24T13:18:11Z</time>
      </trkpt>
      <trkpt lat="45.79232" lon="5.27562">
        <ele>204.5</ele>
        <time>2022-09-24T13:18:12Z</time>
      </trkpt>
      <trkpt lat="45.79238" lon="5.27562">
        <ele>204.5</ele>
        <time>2022-09-24T13:18:13Z</time>
      </trkpt>
      <trkpt lat="45.79243" lon="5.27562">
        <ele>204.4</ele>
        <time>2022-09-24T13:18:14Z</time>
      </trkpt>
      <trkpt lat="45.79249" lon="5.27561">
        <ele>204.4</ele>
        <time>2022-09-24T13:18:15Z</time>
      </trkpt>
      <trkpt lat="45.79255" lon="5.27561">
        <ele>204.4</ele>
        <time>2022-09-24T13:18:16Z</time>
      </trkpt>
      <trkpt lat="45.79261" lon="5.27561">
        <ele>204.4</ele>
        <time>2022-09-24T13:18:17Z</time>
      </trkpt>
      <trkpt lat="45.79266" lon="5.27561">
        <ele>204.4</ele>
        <time>2022-09-24T13:18:18Z</time>
      </trkpt>
      <trkpt lat="45.79272" lon="5.27561">
        <ele>204.3</ele>
        <time>2022-09-24T13:18:19Z</time>
      </trkpt>
      <trkpt lat="45.79278" lon="5.27561">
        <ele>204.3</ele>
        <time>2022-09-24T13:18:20Z</time>
      </trkpt>
      <trkpt lat="45.79284" lon="5.27562">
        <ele>204.3</ele>
        <time>2022-09-24T13:18:21Z</time>
      </trkpt>
      <trkpt lat="45.79289" lon="5.27562">
        <ele>204.3</ele>
        <time>2022-09-24T13:18:22Z</time>
      </trkpt>
      <trkpt lat="45.79295" lon="5.27561">
        <ele>204.2</ele>
        <time>2022-09-24T13:18:23Z</time>
      </trkpt>
      <trkpt lat="45.79301" lon="5.27561">
        <ele>204.2</ele>
        <time>2022-09-24T13:18:24Z</time>
      </trkpt>
      <trkpt lat="45.79306" lon="5.27561">
        <ele>204.2</ele>
        <time>2022-09-24T13:18:25Z</time>
      </trkpt>
      <trkpt lat="45.79312" lon="5.2756">
        <ele>204.2</ele>
        <time>2022-09-24T13:18:26Z</time>
      </trkpt>
      <trkpt lat="45.79317" lon="5.27561">
        <ele>204.2</ele>
        <time>2022-09-24T13:18:27Z</time>
      </trkpt>
      <trkpt lat="45.79323" lon="5.27561">
        <ele>204.2</ele>
        <time>2022-09-24T13:18:28Z</time>
      </trkpt>
      <trkpt lat="45.79329" lon="5.2756">
        <ele>204.2</ele>
        <time>2022-09-24T13:18:29Z</time>
      </trkpt>
      <trkpt lat="45.79334" lon="5.2756">
        <ele>204.2</ele>
        <time>2022-09-24T13:18:30Z</time>
      </trkpt>
      <trkpt lat="45.79339" lon="5.27559">
        <ele>204.2</ele>
        <time>2022-09-24T13:18:31Z</time>
      </trkpt>
      <trkpt lat="45.79346" lon="5.27559">
        <ele>204.2</ele>
        <time>2022-09-24T13:18:32Z</time>
      </trkpt>
      <trkpt lat="45.79352" lon="5.27559">
        <ele>204.2</ele>
        <time>2022-09-24T13:18:33Z</time>
      </trkpt>
      <trkpt lat="45.79358" lon="5.27559">
        <ele>204.2</ele>
        <time>2022-09-24T13:18:34Z</time>
      </trkpt>
      <trkpt lat="45.79364" lon="5.27558">
        <ele>204.2</ele>
        <time>2022-09-24T13:18:35Z</time>
      </trkpt>
      <trkpt lat="45.7937" lon="5.27558">
        <ele>204.2</ele>
        <time>2022-09-24T13:18:36Z</time>
      </trkpt>
      <trkpt lat="45.79376" lon="5.27557">
        <ele>204.2</ele>
        <time>2022-09-24T13:18:37Z</time>
      </trkpt>
      <trkpt lat="45.79381" lon="5.27557">
        <ele>204.2</ele>
        <time>2022-09-24T13:18:38Z</time>
      </trkpt>
      <trkpt lat="45.79387" lon="5.27557">
        <ele>204.2</ele>
        <time>2022-09-24T13:18:39Z</time>
      </trkpt>
      <trkpt lat="45.79393" lon="5.27557">
        <ele>204.2</ele>
        <time>2022-09-24T13:18:40Z</time>
      </trkpt>
      <trkpt lat="45.79398" lon="5.27557">
        <ele>204.2</ele>
        <time>2022-09-24T13:18:41Z</time>
      </trkpt>
      <trkpt lat="45.79404" lon="5.27557">
        <ele>204.2</ele>
        <time>2022-09-24T13:18:42Z</time>
      </trkpt>
      <trkpt lat="45.79409" lon="5.27558">
        <ele>204.2</ele>
        <time>2022-09-24T13:18:43Z</time>
      </trkpt>
      <trkpt lat="45.79415" lon="5.27558">
        <ele>204.2</ele>
        <time>2022-09-24T13:18:44Z</time>
      </trkpt>
      <trkpt lat="45.7942" lon="5.27559">
        <ele>204.2</ele>
        <time>2022-09-24T13:18:45Z</time>
      </trkpt>
      <trkpt lat="45.79425" lon="5.27559">
        <ele>204.3</ele>
        <time>2022-09-24T13:18:46Z</time>
      </trkpt>
      <trkpt lat="45.7943" lon="5.2756">
        <ele>204.3</ele>
        <time>2022-09-24T13:18:47Z</time>
      </trkpt>
      <trkpt lat="45.79434" lon="5.27559">
        <ele>204.3</ele>
        <time>2022-09-24T13:18:48Z</time>
      </trkpt>
      <trkpt lat="45.79439" lon="5.2756">
        <ele>204.3</ele>
        <time>2022-09-24T13:18:49Z</time>
      </trkpt>
      <trkpt lat="45.79444" lon="5.27561">
        <ele>204.4</ele>
        <time>2022-09-24T13:18:50Z</time>
      </trkpt>
      <trkpt lat="45.79449" lon="5.27563">
        <ele>204.4</ele>
        <time>2022-09-24T13:18:51Z</time>
      </trkpt>
      <trkpt lat="45.79454" lon="5.27564">
        <ele>204.4</ele>
        <time>2022-09-24T13:18:52Z</time>
      </trkpt>
      <trkpt lat="45.79459" lon="5.27568">
        <ele>204.5</ele>
        <time>2022-09-24T13:18:53Z</time>
      </trkpt>
      <trkpt lat="45.79462" lon="5.27569">
        <ele>204.6</ele>
        <time>2022-09-24T13:18:54Z</time>
      </trkpt>
      <trkpt lat="45.79467" lon="5.2757">
        <ele>204.7</ele>
        <time>2022-09-24T13:18:55Z</time>
      </trkpt>
      <trkpt lat="45.79471" lon="5.27572">
        <ele>204.8</ele>
        <time>2022-09-24T13:18:56Z</time>
      </trkpt>
      <trkpt lat="45.79475" lon="5.27574">
        <ele>204.9</ele>
        <time>2022-09-24T13:18:57Z</time>
      </trkpt>
      <trkpt lat="45.79479" lon="5.27576">
        <ele>205</ele>
        <time>2022-09-24T13:18:58Z</time>
      </trkpt>
      <trkpt lat="45.79484" lon="5.27577">
        <ele>205.2</ele>
        <time>2022-09-24T13:18:59Z</time>
      </trkpt>
      <trkpt lat="45.79488" lon="5.27577">
        <ele>205.5</ele>
        <time>2022-09-24T13:19:00Z</time>
      </trkpt>
      <trkpt lat="45.79493" lon="5.27579">
        <ele>205.8</ele>
        <time>2022-09-24T13:19:01Z</time>
      </trkpt>
      <trkpt lat="45.79497" lon="5.27581">
        <ele>206.1</ele>
        <time>2022-09-24T13:19:02Z</time>
      </trkpt>
      <trkpt lat="45.79501" lon="5.27583">
        <ele>206.5</ele>
        <time>2022-09-24T13:19:03Z</time>
      </trkpt>
      <trkpt lat="45.79504" lon="5.27583">
        <ele>206.8</ele>
        <time>2022-09-24T13:19:04Z</time>
      </trkpt>
      <trkpt lat="45.79508" lon="5.27585">
        <ele>207.2</ele>
        <time>2022-09-24T13:19:05Z</time>
      </trkpt>
      <trkpt lat="45.7951" lon="5.27586">
        <ele>207.6</ele>
        <time>2022-09-24T13:19:06Z</time>
      </trkpt>
      <trkpt lat="45.79511" lon="5.2759">
        <ele>207.9</ele>
        <time>2022-09-24T13:19:07Z</time>
      </trkpt>
      <trkpt lat="45.79512" lon="5.27592">
        <ele>208.1</ele>
        <time>2022-09-24T13:19:08Z</time>
      </trkpt>
      <trkpt lat="45.79512" lon="5.27597">
        <ele>208.6</ele>
        <time>2022-09-24T13:19:09Z</time>
      </trkpt>
      <trkpt lat="45.79512" lon="5.27598">
        <ele>208.7</ele>
        <time>2022-09-24T13:19:10Z</time>
      </trkpt>
      <trkpt lat="45.79514" lon="5.27602">
        <ele>209.2</ele>
        <time>2022-09-24T13:19:11Z</time>
      </trkpt>
      <trkpt lat="45.79514" lon="5.27604">
        <ele>209.3</ele>
        <time>2022-09-24T13:19:12Z</time>
      </trkpt>
      <trkpt lat="45.79515" lon="5.27609">
        <ele>209.9</ele>
        <time>2022-09-24T13:19:13Z</time>
      </trkpt>
      <trkpt lat="45.79515" lon="5.27611">
        <ele>210</ele>
        <time>2022-09-24T13:19:14Z</time>
      </trkpt>
      <trkpt lat="45.79516" lon="5.27615">
        <ele>210.5</ele>
        <time>2022-09-24T13:19:15Z</time>
      </trkpt>
      <trkpt lat="45.79516" lon="5.27617">
        <ele>210.7</ele>
        <time>2022-09-24T13:19:16Z</time>
      </trkpt>
      <trkpt lat="45.79517" lon="5.2762">
        <ele>211</ele>
        <time>2022-09-24T13:19:17Z</time>
      </trkpt>
      <trkpt lat="45.7952" lon="5.27622">
        <ele>211.4</ele>
        <time>2022-09-24T13:19:18Z</time>
      </trkpt>
      <trkpt lat="45.7952" lon="5.27622">
        <ele>211.5</ele>
        <time>2022-09-24T13:19:19Z</time>
      </trkpt>
      <trkpt lat="45.79521" lon="5.27623">
        <ele>211.5</ele>
        <time>2022-09-24T13:19:20Z</time>
      </trkpt>
      <trkpt lat="45.79523" lon="5.27624">
        <ele>211.5</ele>
        <time>2022-09-24T13:19:21Z</time>
      </trkpt>
      <trkpt lat="45.79525" lon="5.27625">
        <ele>211.6</ele>
        <time>2022-09-24T13:19:22Z</time>
      </trkpt>
      <trkpt lat="45.79526" lon="5.27625">
        <ele>211.6</ele>
        <time>2022-09-24T13:19:23Z</time>
      </trkpt>
      <trkpt lat="45.79527" lon="5.27625">
        <ele>211.6</ele>
        <time>2022-09-24T13:19:24Z</time>
      </trkpt>
      <trkpt lat="45.7953" lon="5.27626">
        <ele>211.6</ele>
        <time>2022-09-24T13:19:25Z</time>
      </trkpt>
      <trkpt lat="45.79531" lon="5.27626">
        <ele>211.7</ele>
        <time>2022-09-24T13:19:26Z</time>
      </trkpt>
      <trkpt lat="45.79534" lon="5.27627">
        <ele>211.7</ele>
        <time>2022-09-24T13:19:27Z</time>
      </trkpt>
      <trkpt lat="45.79535" lon="5.27627">
        <ele>211.7</ele>
        <time>2022-09-24T13:19:28Z</time>
      </trkpt>
      <trkpt lat="45.79538" lon="5.27627">
        <ele>211.7</ele>
        <time>2022-09-24T13:19:29Z</time>
      </trkpt>
      <trkpt lat="45.79542" lon="5.27627">
        <ele>211.7</ele>
        <time>2022-09-24T13:19:30Z</time>
      </trkpt>
      <trkpt lat="45.79545" lon="5.27628">
        <ele>211.7</ele>
        <time>2022-09-24T13:19:31Z</time>
      </trkpt>
      <trkpt lat="45.79549" lon="5.27628">
        <ele>211.7</ele>
        <time>2022-09-24T13:19:32Z</time>
      </trkpt>
      <trkpt lat="45.79551" lon="5.27628">
        <ele>211.7</ele>
        <time>2022-09-24T13:19:33Z</time>
      </trkpt>
      <trkpt lat="45.79555" lon="5.27628">
        <ele>211.6</ele>
        <time>2022-09-24T13:19:34Z</time>
      </trkpt>
      <trkpt lat="45.79556" lon="5.27629">
        <ele>211.6</ele>
        <time>2022-09-24T13:19:35Z</time>
      </trkpt>
      <trkpt lat="45.79559" lon="5.27629">
        <ele>211.6</ele>
        <time>2022-09-24T13:19:36Z</time>
      </trkpt>
      <trkpt lat="45.79562" lon="5.27628">
        <ele>211.5</ele>
        <time>2022-09-24T13:19:37Z</time>
      </trkpt>
      <trkpt lat="45.79566" lon="5.27628">
        <ele>211.4</ele>
        <time>2022-09-24T13:19:38Z</time>
      </trkpt>
      <trkpt lat="45.79568" lon="5.27627">
        <ele>211.4</ele>
        <time>2022-09-24T13:19:39Z</time>
      </trkpt>
      <trkpt lat="45.79571" lon="5.27627">
        <ele>211.3</ele>
        <time>2022-09-24T13:19:40Z</time>
      </trkpt>
      <trkpt lat="45.79574" lon="5.27626">
        <ele>211.2</ele>
        <time>2022-09-24T13:19:41Z</time>
      </trkpt>
      <trkpt lat="45.79577" lon="5.27626">
        <ele>211</ele>
        <time>2022-09-24T13:19:42Z</time>
      </trkpt>
      <trkpt lat="45.7958" lon="5.27624">
        <ele>210.9</ele>
        <time>2022-09-24T13:19:43Z</time>
      </trkpt>
      <trkpt lat="45.79584" lon="5.27624">
        <ele>210.7</ele>
        <time>2022-09-24T13:19:44Z</time>
      </trkpt>
      <trkpt lat="45.79585" lon="5.27623">
        <ele>210.7</ele>
        <time>2022-09-24T13:19:45Z</time>
      </trkpt>
      <trkpt lat="45.79589" lon="5.27623">
        <ele>210.5</ele>
        <time>2022-09-24T13:19:46Z</time>
      </trkpt>
      <trkpt lat="45.79589" lon="5.27623">
        <ele>210.5</ele>
        <time>2022-09-24T13:19:47Z</time>
      </trkpt>
      <trkpt lat="45.79593" lon="5.27622">
        <ele>210.3</ele>
        <time>2022-09-24T13:19:48Z</time>
      </trkpt>
      <trkpt lat="45.79594" lon="5.27621">
        <ele>210.3</ele>
        <time>2022-09-24T13:19:49Z</time>
      </trkpt>
      <trkpt lat="45.79597" lon="5.27622">
        <ele>210.1</ele>
        <time>2022-09-24T13:19:50Z</time>
      </trkpt>
      <trkpt lat="45.79599" lon="5.27622">
        <ele>210.1</ele>
        <time>2022-09-24T13:19:51Z</time>
      </trkpt>
      <trkpt lat="45.79603" lon="5.27624">
        <ele>209.9</ele>
        <time>2022-09-24T13:19:52Z</time>
      </trkpt>
      <trkpt lat="45.79608" lon="5.27628">
        <ele>209.8</ele>
        <time>2022-09-24T13:19:53Z</time>
      </trkpt>
      <trkpt lat="45.79613" lon="5.27631">
        <ele>209.7</ele>
        <time>2022-09-24T13:19:54Z</time>
      </trkpt>
      <trkpt lat="45.79616" lon="5.27634">
        <ele>209.7</ele>
        <time>2022-09-24T13:19:55Z</time>
      </trkpt>
      <trkpt lat="45.7962" lon="5.27637">
        <ele>209.8</ele>
        <time>2022-09-24T13:19:56Z</time>
      </trkpt>
      <trkpt lat="45.79624" lon="5.2764">
        <ele>209.9</ele>
        <time>2022-09-24T13:19:57Z</time>
      </trkpt>
      <trkpt lat="45.79627" lon="5.27644">
        <ele>210</ele>
        <time>2022-09-24T13:19:58Z</time>
      </trkpt>
      <trkpt lat="45.79632" lon="5.27647">
        <ele>210.1</ele>
        <time>2022-09-24T13:19:59Z</time>
      </trkpt>
      <trkpt lat="45.79635" lon="5.27649">
        <ele>210.3</ele>
        <time>2022-09-24T13:20:00Z</time>
      </trkpt>
      <trkpt lat="45.79638" lon="5.27652">
        <ele>210.5</ele>
        <time>2022-09-24T13:20:01Z</time>
      </trkpt>
      <trkpt lat="45.7964" lon="5.27653">
        <ele>210.5</ele>
        <time>2022-09-24T13:20:02Z</time>
      </trkpt>
      <trkpt lat="45.79643" lon="5.27656">
        <ele>210.8</ele>
        <time>2022-09-24T13:20:03Z</time>
      </trkpt>
      <trkpt lat="45.79646" lon="5.27658">
        <ele>211</ele>
        <time>2022-09-24T13:20:04Z</time>
      </trkpt>
      <trkpt lat="45.79649" lon="5.2766">
        <ele>211.2</ele>
        <time>2022-09-24T13:20:05Z</time>
      </trkpt>
      <trkpt lat="45.79651" lon="5.27663">
        <ele>211.8</ele>
        <time>2022-09-24T13:20:06Z</time>
      </trkpt>
      <trkpt lat="45.7965" lon="5.27665">
        <ele>211.9</ele>
        <time>2022-09-24T13:20:07Z</time>
      </trkpt>
      <trkpt lat="45.79646" lon="5.27669">
        <ele>212.2</ele>
        <time>2022-09-24T13:20:08Z</time>
      </trkpt>
      <trkpt lat="45.79646" lon="5.27671">
        <ele>212.3</ele>
        <time>2022-09-24T13:20:09Z</time>
      </trkpt>
      <trkpt lat="45.79644" lon="5.27672">
        <ele>212.4</ele>
        <time>2022-09-24T13:20:10Z</time>
      </trkpt>
      <trkpt lat="45.79643" lon="5.27674">
        <ele>212.5</ele>
        <time>2022-09-24T13:20:11Z</time>
      </trkpt>
      <trkpt lat="45.7964" lon="5.27678">
        <ele>212.7</ele>
        <time>2022-09-24T13:20:12Z</time>
      </trkpt>
      <trkpt lat="45.79639" lon="5.2768">
        <ele>212.8</ele>
        <time>2022-09-24T13:20:13Z</time>
      </trkpt>
      <trkpt lat="45.79638" lon="5.27682">
        <ele>212.9</ele>
        <time>2022-09-24T13:20:14Z</time>
      </trkpt>
      <trkpt lat="45.79636" lon="5.27685">
        <ele>213.1</ele>
        <time>2022-09-24T13:20:15Z</time>
      </trkpt>
      <trkpt lat="45.79635" lon="5.27686">
        <ele>213.1</ele>
        <time>2022-09-24T13:20:16Z</time>
      </trkpt>
      <trkpt lat="45.79634" lon="5.2769">
        <ele>213.3</ele>
        <time>2022-09-24T13:20:17Z</time>
      </trkpt>
      <trkpt lat="45.79633" lon="5.27694">
        <ele>213.4</ele>
        <time>2022-09-24T13:20:18Z</time>
      </trkpt>
      <trkpt lat="45.7963" lon="5.27698">
        <ele>213.6</ele>
        <time>2022-09-24T13:20:19Z</time>
      </trkpt>
      <trkpt lat="45.79629" lon="5.277">
        <ele>213.7</ele>
        <time>2022-09-24T13:20:20Z</time>
      </trkpt>
      <trkpt lat="45.79628" lon="5.27706">
        <ele>213.9</ele>
        <time>2022-09-24T13:20:21Z</time>
      </trkpt>
      <trkpt lat="45.79627" lon="5.27707">
        <ele>213.9</ele>
        <time>2022-09-24T13:20:22Z</time>
      </trkpt>
      <trkpt lat="45.79624" lon="5.27712">
        <ele>214.1</ele>
        <time>2022-09-24T13:20:23Z</time>
      </trkpt>
      <trkpt lat="45.79623" lon="5.27714">
        <ele>214.1</ele>
        <time>2022-09-24T13:20:24Z</time>
      </trkpt>
      <trkpt lat="45.79621" lon="5.27718">
        <ele>214.2</ele>
        <time>2022-09-24T13:20:25Z</time>
      </trkpt>
      <trkpt lat="45.79621" lon="5.2772">
        <ele>214.3</ele>
        <time>2022-09-24T13:20:26Z</time>
      </trkpt>
      <trkpt lat="45.79619" lon="5.27723">
        <ele>214.3</ele>
        <time>2022-09-24T13:20:27Z</time>
      </trkpt>
      <trkpt lat="45.79617" lon="5.27728">
        <ele>214.4</ele>
        <time>2022-09-24T13:20:28Z</time>
      </trkpt>
      <trkpt lat="45.79617" lon="5.2773">
        <ele>214.5</ele>
        <time>2022-09-24T13:20:29Z</time>
      </trkpt>
      <trkpt lat="45.79615" lon="5.27735">
        <ele>214.5</ele>
        <time>2022-09-24T13:20:30Z</time>
      </trkpt>
      <trkpt lat="45.79615" lon="5.27737">
        <ele>214.6</ele>
        <time>2022-09-24T13:20:31Z</time>
      </trkpt>
      <trkpt lat="45.79613" lon="5.27739">
        <ele>214.6</ele>
        <time>2022-09-24T13:20:32Z</time>
      </trkpt>
      <trkpt lat="45.79612" lon="5.27741">
        <ele>214.6</ele>
        <time>2022-09-24T13:20:33Z</time>
      </trkpt>
      <trkpt lat="45.7961" lon="5.27742">
        <ele>214.7</ele>
        <time>2022-09-24T13:20:34Z</time>
      </trkpt>
      <trkpt lat="45.79608" lon="5.27745">
        <ele>214.7</ele>
        <time>2022-09-24T13:20:35Z</time>
      </trkpt>
      <trkpt lat="45.79608" lon="5.27751">
        <ele>214.7</ele>
        <time>2022-09-24T13:20:36Z</time>
      </trkpt>
      <trkpt lat="45.79608" lon="5.27754">
        <ele>214.8</ele>
        <time>2022-09-24T13:20:37Z</time>
      </trkpt>
      <trkpt lat="45.79607" lon="5.27758">
        <ele>214.8</ele>
        <time>2022-09-24T13:20:38Z</time>
      </trkpt>
      <trkpt lat="45.79607" lon="5.27759">
        <ele>214.8</ele>
        <time>2022-09-24T13:20:39Z</time>
      </trkpt>
      <trkpt lat="45.79605" lon="5.2776">
        <ele>214.8</ele>
        <time>2022-09-24T13:20:40Z</time>
      </trkpt>
      <trkpt lat="45.79605" lon="5.27761">
        <ele>214.8</ele>
        <time>2022-09-24T13:20:41Z</time>
      </trkpt>
      <trkpt lat="45.79605" lon="5.27763">
        <ele>214.8</ele>
        <time>2022-09-24T13:20:42Z</time>
      </trkpt>
      <trkpt lat="45.79604" lon="5.27763">
        <ele>214.8</ele>
        <time>2022-09-24T13:20:43Z</time>
      </trkpt>
      <trkpt lat="45.79603" lon="5.27764">
        <ele>214.9</ele>
        <time>2022-09-24T13:20:44Z</time>
      </trkpt>
      <trkpt lat="45.79603" lon="5.27764">
        <ele>214.9</ele>
        <time>2022-09-24T13:20:45Z</time>
      </trkpt>
      <trkpt lat="45.79603" lon="5.27764">
        <ele>214.9</ele>
        <time>2022-09-24T13:20:46Z</time>
      </trkpt>
      <trkpt lat="45.79603" lon="5.27764">
        <ele>214.9</ele>
        <time>2022-09-24T13:20:47Z</time>
      </trkpt>
      <trkpt lat="45.79603" lon="5.27764">
        <ele>214.9</ele>
        <time>2022-09-24T13:20:48Z</time>
      </trkpt>
      <trkpt lat="45.79603" lon="5.27764">
        <ele>214.9</ele>
        <time>2022-09-24T13:20:49Z</time>
      </trkpt>
      <trkpt lat="45.79603" lon="5.27764">
        <ele>214.9</ele>
        <time>2022-09-24T13:20:50Z</time>
      </trkpt>
      <trkpt lat="45.79603" lon="5.27764">
        <ele>214.9</ele>
        <time>2022-09-24T13:20:51Z</time>
      </trkpt>
      <trkpt lat="45.79604" lon="5.27772">
        <ele>214.9</ele>
        <time>2022-09-24T13:21:05Z</time>
      </trkpt>
      <trkpt lat="45.79606" lon="5.27775">
        <ele>214.9</ele>
        <time>2022-09-24T13:21:06Z</time>
      </trkpt>
      <trkpt lat="45.79609" lon="5.27778">
        <ele>215</ele>
        <time>2022-09-24T13:21:07Z</time>
      </trkpt>
      <trkpt lat="45.79612" lon="5.2778">
        <ele>215</ele>
        <time>2022-09-24T13:21:08Z</time>
      </trkpt>
      <trkpt lat="45.79613" lon="5.27782">
        <ele>215</ele>
        <time>2022-09-24T13:21:09Z</time>
      </trkpt>
      <trkpt lat="45.79616" lon="5.27784">
        <ele>215</ele>
        <time>2022-09-24T13:21:10Z</time>
      </trkpt>
      <trkpt lat="45.79619" lon="5.27787">
        <ele>215</ele>
        <time>2022-09-24T13:21:11Z</time>
      </trkpt>
      <trkpt lat="45.79623" lon="5.27791">
        <ele>215.1</ele>
        <time>2022-09-24T13:21:12Z</time>
      </trkpt>
      <trkpt lat="45.79627" lon="5.27794">
        <ele>215.1</ele>
        <time>2022-09-24T13:21:13Z</time>
      </trkpt>
      <trkpt lat="45.79633" lon="5.27796">
        <ele>215.1</ele>
        <time>2022-09-24T13:21:14Z</time>
      </trkpt>
      <trkpt lat="45.79637" lon="5.27801">
        <ele>215.1</ele>
        <time>2022-09-24T13:21:15Z</time>
      </trkpt>
      <trkpt lat="45.79641" lon="5.27804">
        <ele>215.1</ele>
        <time>2022-09-24T13:21:16Z</time>
      </trkpt>
      <trkpt lat="45.79644" lon="5.27809">
        <ele>215.1</ele>
        <time>2022-09-24T13:21:17Z</time>
      </trkpt>
      <trkpt lat="45.79647" lon="5.27813">
        <ele>215.2</ele>
        <time>2022-09-24T13:21:18Z</time>
      </trkpt>
      <trkpt lat="45.79652" lon="5.27817">
        <ele>215.2</ele>
        <time>2022-09-24T13:21:19Z</time>
      </trkpt>
      <trkpt lat="45.79657" lon="5.27821">
        <ele>215.3</ele>
        <time>2022-09-24T13:21:20Z</time>
      </trkpt>
      <trkpt lat="45.79662" lon="5.27824">
        <ele>215.3</ele>
        <time>2022-09-24T13:21:21Z</time>
      </trkpt>
      <trkpt lat="45.79667" lon="5.27828">
        <ele>215.3</ele>
        <time>2022-09-24T13:21:22Z</time>
      </trkpt>
      <trkpt lat="45.79673" lon="5.27831">
        <ele>215.3</ele>
        <time>2022-09-24T13:21:23Z</time>
      </trkpt>
      <trkpt lat="45.79679" lon="5.27834">
        <ele>215.3</ele>
        <time>2022-09-24T13:21:24Z</time>
      </trkpt>
      <trkpt lat="45.79684" lon="5.27838">
        <ele>215.2</ele>
        <time>2022-09-24T13:21:25Z</time>
      </trkpt>
      <trkpt lat="45.79687" lon="5.27842">
        <ele>215.2</ele>
        <time>2022-09-24T13:21:26Z</time>
      </trkpt>
      <trkpt lat="45.7969" lon="5.27846">
        <ele>215.1</ele>
        <time>2022-09-24T13:21:27Z</time>
      </trkpt>
      <trkpt lat="45.79692" lon="5.27852">
        <ele>215.1</ele>
        <time>2022-09-24T13:21:28Z</time>
      </trkpt>
      <trkpt lat="45.79693" lon="5.27858">
        <ele>215</ele>
        <time>2022-09-24T13:21:29Z</time>
      </trkpt>
      <trkpt lat="45.79693" lon="5.27866">
        <ele>215</ele>
        <time>2022-09-24T13:21:30Z</time>
      </trkpt>
      <trkpt lat="45.79691" lon="5.27873">
        <ele>214.9</ele>
        <time>2022-09-24T13:21:31Z</time>
      </trkpt>
      <trkpt lat="45.7969" lon="5.27881">
        <ele>214.8</ele>
        <time>2022-09-24T13:21:32Z</time>
      </trkpt>
      <trkpt lat="45.79689" lon="5.27889">
        <ele>214.7</ele>
        <time>2022-09-24T13:21:33Z</time>
      </trkpt>
      <trkpt lat="45.79687" lon="5.27897">
        <ele>214.7</ele>
        <time>2022-09-24T13:21:34Z</time>
      </trkpt>
      <trkpt lat="45.79685" lon="5.27905">
        <ele>214.6</ele>
        <time>2022-09-24T13:21:35Z</time>
      </trkpt>
      <trkpt lat="45.79683" lon="5.27913">
        <ele>214.6</ele>
        <time>2022-09-24T13:21:36Z</time>
      </trkpt>
      <trkpt lat="45.79681" lon="5.27921">
        <ele>214.6</ele>
        <time>2022-09-24T13:21:37Z</time>
      </trkpt>
      <trkpt lat="45.79679" lon="5.27929">
        <ele>214.6</ele>
        <time>2022-09-24T13:21:38Z</time>
      </trkpt>
      <trkpt lat="45.79677" lon="5.27936">
        <ele>214.6</ele>
        <time>2022-09-24T13:21:39Z</time>
      </trkpt>
      <trkpt lat="45.79675" lon="5.27944">
        <ele>214.6</ele>
        <time>2022-09-24T13:21:40Z</time>
      </trkpt>
      <trkpt lat="45.79673" lon="5.27952">
        <ele>214.6</ele>
        <time>2022-09-24T13:21:41Z</time>
      </trkpt>
      <trkpt lat="45.7967" lon="5.27959">
        <ele>214.6</ele>
        <time>2022-09-24T13:21:42Z</time>
      </trkpt>
      <trkpt lat="45.79668" lon="5.27966">
        <ele>214.6</ele>
        <time>2022-09-24T13:21:43Z</time>
      </trkpt>
      <trkpt lat="45.79665" lon="5.27973">
        <ele>214.6</ele>
        <time>2022-09-24T13:21:44Z</time>
      </trkpt>
      <trkpt lat="45.79663" lon="5.2798">
        <ele>214.6</ele>
        <time>2022-09-24T13:21:45Z</time>
      </trkpt>
      <trkpt lat="45.79661" lon="5.27987">
        <ele>214.7</ele>
        <time>2022-09-24T13:21:46Z</time>
      </trkpt>
      <trkpt lat="45.79658" lon="5.27994">
        <ele>214.7</ele>
        <time>2022-09-24T13:21:47Z</time>
      </trkpt>
      <trkpt lat="45.79656" lon="5.27999">
        <ele>214.8</ele>
        <time>2022-09-24T13:21:48Z</time>
      </trkpt>
      <trkpt lat="45.79653" lon="5.28005">
        <ele>214.8</ele>
        <time>2022-09-24T13:21:49Z</time>
      </trkpt>
      <trkpt lat="45.79651" lon="5.28011">
        <ele>214.9</ele>
        <time>2022-09-24T13:21:50Z</time>
      </trkpt>
      <trkpt lat="45.79648" lon="5.28016">
        <ele>214.9</ele>
        <time>2022-09-24T13:21:51Z</time>
      </trkpt>
      <trkpt lat="45.79646" lon="5.28021">
        <ele>214.9</ele>
        <time>2022-09-24T13:21:52Z</time>
      </trkpt>
      <trkpt lat="45.79645" lon="5.28025">
        <ele>215</ele>
        <time>2022-09-24T13:21:53Z</time>
      </trkpt>
      <trkpt lat="45.79643" lon="5.2803">
        <ele>215</ele>
        <time>2022-09-24T13:21:54Z</time>
      </trkpt>
      <trkpt lat="45.79642" lon="5.28034">
        <ele>215</ele>
        <time>2022-09-24T13:21:55Z</time>
      </trkpt>
      <trkpt lat="45.79639" lon="5.28039">
        <ele>215</ele>
        <time>2022-09-24T13:21:56Z</time>
      </trkpt>
      <trkpt lat="45.79638" lon="5.28041">
        <ele>215.1</ele>
        <time>2022-09-24T13:21:57Z</time>
      </trkpt>
      <trkpt lat="45.79637" lon="5.28045">
        <ele>215.1</ele>
        <time>2022-09-24T13:21:58Z</time>
      </trkpt>
      <trkpt lat="45.79635" lon="5.28049">
        <ele>215.1</ele>
        <time>2022-09-24T13:21:59Z</time>
      </trkpt>
      <trkpt lat="45.79634" lon="5.28053">
        <ele>215.1</ele>
        <time>2022-09-24T13:22:00Z</time>
      </trkpt>
      <trkpt lat="45.79633" lon="5.28057">
        <ele>215.1</ele>
        <time>2022-09-24T13:22:01Z</time>
      </trkpt>
      <trkpt lat="45.79631" lon="5.28061">
        <ele>215.1</ele>
        <time>2022-09-24T13:22:02Z</time>
      </trkpt>
      <trkpt lat="45.7963" lon="5.28066">
        <ele>215.1</ele>
        <time>2022-09-24T13:22:03Z</time>
      </trkpt>
      <trkpt lat="45.79628" lon="5.2807">
        <ele>215.1</ele>
        <time>2022-09-24T13:22:04Z</time>
      </trkpt>
      <trkpt lat="45.79627" lon="5.28075">
        <ele>215.1</ele>
        <time>2022-09-24T13:22:05Z</time>
      </trkpt>
      <trkpt lat="45.79626" lon="5.2808">
        <ele>215.1</ele>
        <time>2022-09-24T13:22:06Z</time>
      </trkpt>
      <trkpt lat="45.79625" lon="5.28085">
        <ele>215.1</ele>
        <time>2022-09-24T13:22:07Z</time>
      </trkpt>
      <trkpt lat="45.79624" lon="5.28089">
        <ele>215.1</ele>
        <time>2022-09-24T13:22:08Z</time>
      </trkpt>
      <trkpt lat="45.79623" lon="5.28094">
        <ele>215.1</ele>
        <time>2022-09-24T13:22:09Z</time>
      </trkpt>
      <trkpt lat="45.79622" lon="5.281">
        <ele>215.1</ele>
        <time>2022-09-24T13:22:10Z</time>
      </trkpt>
      <trkpt lat="45.79622" lon="5.28104">
        <ele>215.1</ele>
        <time>2022-09-24T13:22:11Z</time>
      </trkpt>
      <trkpt lat="45.79621" lon="5.28108">
        <ele>215.1</ele>
        <time>2022-09-24T13:22:12Z</time>
      </trkpt>
      <trkpt lat="45.79621" lon="5.28114">
        <ele>215.1</ele>
        <time>2022-09-24T13:22:13Z</time>
      </trkpt>
      <trkpt lat="45.79621" lon="5.28116">
        <ele>215.1</ele>
        <time>2022-09-24T13:22:14Z</time>
      </trkpt>
      <trkpt lat="45.79619" lon="5.2812">
        <ele>215</ele>
        <time>2022-09-24T13:22:15Z</time>
      </trkpt>
      <trkpt lat="45.79618" lon="5.28124">
        <ele>215</ele>
        <time>2022-09-24T13:22:16Z</time>
      </trkpt>
      <trkpt lat="45.79617" lon="5.28128">
        <ele>215</ele>
        <time>2022-09-24T13:22:17Z</time>
      </trkpt>
      <trkpt lat="45.79617" lon="5.28132">
        <ele>215</ele>
        <time>2022-09-24T13:22:18Z</time>
      </trkpt>
      <trkpt lat="45.79616" lon="5.28138">
        <ele>215</ele>
        <time>2022-09-24T13:22:19Z</time>
      </trkpt>
      <trkpt lat="45.79615" lon="5.28142">
        <ele>215</ele>
        <time>2022-09-24T13:22:20Z</time>
      </trkpt>
      <trkpt lat="45.79613" lon="5.28145">
        <ele>215</ele>
        <time>2022-09-24T13:22:21Z</time>
      </trkpt>
      <trkpt lat="45.79613" lon="5.2815">
        <ele>215</ele>
        <time>2022-09-24T13:22:22Z</time>
      </trkpt>
      <trkpt lat="45.79612" lon="5.28155">
        <ele>215</ele>
        <time>2022-09-24T13:22:23Z</time>
      </trkpt>
      <trkpt lat="45.7961" lon="5.2816">
        <ele>215</ele>
        <time>2022-09-24T13:22:24Z</time>
      </trkpt>
      <trkpt lat="45.79609" lon="5.28164">
        <ele>215.1</ele>
        <time>2022-09-24T13:22:25Z</time>
      </trkpt>
      <trkpt lat="45.79607" lon="5.28169">
        <ele>215.1</ele>
        <time>2022-09-24T13:22:26Z</time>
      </trkpt>
      <trkpt lat="45.79606" lon="5.28174">
        <ele>215.1</ele>
        <time>2022-09-24T13:22:27Z</time>
      </trkpt>
      <trkpt lat="45.79604" lon="5.28178">
        <ele>215.2</ele>
        <time>2022-09-24T13:22:28Z</time>
      </trkpt>
      <trkpt lat="45.79603" lon="5.28183">
        <ele>215.2</ele>
        <time>2022-09-24T13:22:29Z</time>
      </trkpt>
      <trkpt lat="45.79601" lon="5.28187">
        <ele>215.2</ele>
        <time>2022-09-24T13:22:30Z</time>
      </trkpt>
      <trkpt lat="45.796" lon="5.28192">
        <ele>215.3</ele>
        <time>2022-09-24T13:22:31Z</time>
      </trkpt>
      <trkpt lat="45.79599" lon="5.28196">
        <ele>215.3</ele>
        <time>2022-09-24T13:22:32Z</time>
      </trkpt>
      <trkpt lat="45.79598" lon="5.28201">
        <ele>215.4</ele>
        <time>2022-09-24T13:22:33Z</time>
      </trkpt>
      <trkpt lat="45.79597" lon="5.28206">
        <ele>215.4</ele>
        <time>2022-09-24T13:22:34Z</time>
      </trkpt>
      <trkpt lat="45.79596" lon="5.28211">
        <ele>215.5</ele>
        <time>2022-09-24T13:22:35Z</time>
      </trkpt>
      <trkpt lat="45.79595" lon="5.28218">
        <ele>215.6</ele>
        <time>2022-09-24T13:22:36Z</time>
      </trkpt>
      <trkpt lat="45.79594" lon="5.28221">
        <ele>215.6</ele>
        <time>2022-09-24T13:22:37Z</time>
      </trkpt>
      <trkpt lat="45.79594" lon="5.28226">
        <ele>215.7</ele>
        <time>2022-09-24T13:22:38Z</time>
      </trkpt>
      <trkpt lat="45.79594" lon="5.28229">
        <ele>215.7</ele>
        <time>2022-09-24T13:22:39Z</time>
      </trkpt>
      <trkpt lat="45.79592" lon="5.28233">
        <ele>215.8</ele>
        <time>2022-09-24T13:22:40Z</time>
      </trkpt>
      <trkpt lat="45.79591" lon="5.28237">
        <ele>215.9</ele>
        <time>2022-09-24T13:22:41Z</time>
      </trkpt>
      <trkpt lat="45.79589" lon="5.28241">
        <ele>216</ele>
        <time>2022-09-24T13:22:42Z</time>
      </trkpt>
      <trkpt lat="45.79587" lon="5.28245">
        <ele>216.1</ele>
        <time>2022-09-24T13:22:43Z</time>
      </trkpt>
      <trkpt lat="45.79586" lon="5.2825">
        <ele>216.2</ele>
        <time>2022-09-24T13:22:44Z</time>
      </trkpt>
      <trkpt lat="45.79585" lon="5.28253">
        <ele>216.3</ele>
        <time>2022-09-24T13:22:45Z</time>
      </trkpt>
      <trkpt lat="45.79583" lon="5.28258">
        <ele>216.4</ele>
        <time>2022-09-24T13:22:46Z</time>
      </trkpt>
      <trkpt lat="45.79583" lon="5.28263">
        <ele>216.5</ele>
        <time>2022-09-24T13:22:47Z</time>
      </trkpt>
      <trkpt lat="45.79582" lon="5.28267">
        <ele>216.6</ele>
        <time>2022-09-24T13:22:48Z</time>
      </trkpt>
      <trkpt lat="45.7958" lon="5.28271">
        <ele>216.7</ele>
        <time>2022-09-24T13:22:49Z</time>
      </trkpt>
      <trkpt lat="45.79579" lon="5.28275">
        <ele>216.8</ele>
        <time>2022-09-24T13:22:50Z</time>
      </trkpt>
      <trkpt lat="45.79577" lon="5.2828">
        <ele>217</ele>
        <time>2022-09-24T13:22:51Z</time>
      </trkpt>
      <trkpt lat="45.79576" lon="5.28285">
        <ele>217.1</ele>
        <time>2022-09-24T13:22:52Z</time>
      </trkpt>
      <trkpt lat="45.79575" lon="5.28289">
        <ele>217.2</ele>
        <time>2022-09-24T13:22:53Z</time>
      </trkpt>
      <trkpt lat="45.79573" lon="5.28294">
        <ele>217.4</ele>
        <time>2022-09-24T13:22:54Z</time>
      </trkpt>
      <trkpt lat="45.79572" lon="5.283">
        <ele>217.5</ele>
        <time>2022-09-24T13:22:55Z</time>
      </trkpt>
      <trkpt lat="45.7957" lon="5.28303">
        <ele>217.7</ele>
        <time>2022-09-24T13:22:56Z</time>
      </trkpt>
      <trkpt lat="45.79569" lon="5.28307">
        <ele>217.8</ele>
        <time>2022-09-24T13:22:57Z</time>
      </trkpt>
      <trkpt lat="45.79568" lon="5.28311">
        <ele>217.9</ele>
        <time>2022-09-24T13:22:58Z</time>
      </trkpt>
      <trkpt lat="45.79567" lon="5.28315">
        <ele>218</ele>
        <time>2022-09-24T13:22:59Z</time>
      </trkpt>
      <trkpt lat="45.79565" lon="5.2832">
        <ele>218.2</ele>
        <time>2022-09-24T13:23:00Z</time>
      </trkpt>
      <trkpt lat="45.79564" lon="5.28325">
        <ele>218.3</ele>
        <time>2022-09-24T13:23:01Z</time>
      </trkpt>
      <trkpt lat="45.79562" lon="5.2833">
        <ele>218.4</ele>
        <time>2022-09-24T13:23:02Z</time>
      </trkpt>
      <trkpt lat="45.79561" lon="5.28334">
        <ele>218.6</ele>
        <time>2022-09-24T13:23:03Z</time>
      </trkpt>
      <trkpt lat="45.7956" lon="5.2834">
        <ele>218.7</ele>
        <time>2022-09-24T13:23:04Z</time>
      </trkpt>
      <trkpt lat="45.79558" lon="5.28344">
        <ele>218.8</ele>
        <time>2022-09-24T13:23:05Z</time>
      </trkpt>
      <trkpt lat="45.79557" lon="5.28348">
        <ele>218.9</ele>
        <time>2022-09-24T13:23:06Z</time>
      </trkpt>
      <trkpt lat="45.79557" lon="5.28353">
        <ele>219</ele>
        <time>2022-09-24T13:23:07Z</time>
      </trkpt>
      <trkpt lat="45.79556" lon="5.28357">
        <ele>219</ele>
        <time>2022-09-24T13:23:08Z</time>
      </trkpt>
      <trkpt lat="45.79555" lon="5.28362">
        <ele>219.1</ele>
        <time>2022-09-24T13:23:09Z</time>
      </trkpt>
      <trkpt lat="45.79554" lon="5.28366">
        <ele>219.1</ele>
        <time>2022-09-24T13:23:10Z</time>
      </trkpt>
      <trkpt lat="45.79552" lon="5.2837">
        <ele>219.2</ele>
        <time>2022-09-24T13:23:11Z</time>
      </trkpt>
      <trkpt lat="45.79551" lon="5.28374">
        <ele>219.2</ele>
        <time>2022-09-24T13:23:12Z</time>
      </trkpt>
      <trkpt lat="45.79549" lon="5.28379">
        <ele>219.3</ele>
        <time>2022-09-24T13:23:13Z</time>
      </trkpt>
      <trkpt lat="45.79548" lon="5.28383">
        <ele>219.3</ele>
        <time>2022-09-24T13:23:14Z</time>
      </trkpt>
      <trkpt lat="45.79547" lon="5.28388">
        <ele>219.4</ele>
        <time>2022-09-24T13:23:15Z</time>
      </trkpt>
      <trkpt lat="45.79545" lon="5.28392">
        <ele>219.4</ele>
        <time>2022-09-24T13:23:16Z</time>
      </trkpt>
      <trkpt lat="45.79544" lon="5.28397">
        <ele>219.4</ele>
        <time>2022-09-24T13:23:17Z</time>
      </trkpt>
      <trkpt lat="45.79542" lon="5.28402">
        <ele>219.5</ele>
        <time>2022-09-24T13:23:18Z</time>
      </trkpt>
      <trkpt lat="45.79541" lon="5.28406">
        <ele>219.5</ele>
        <time>2022-09-24T13:23:19Z</time>
      </trkpt>
      <trkpt lat="45.79539" lon="5.2841">
        <ele>219.6</ele>
        <time>2022-09-24T13:23:20Z</time>
      </trkpt>
      <trkpt lat="45.79538" lon="5.28415">
        <ele>219.6</ele>
        <time>2022-09-24T13:23:21Z</time>
      </trkpt>
      <trkpt lat="45.79537" lon="5.28421">
        <ele>219.7</ele>
        <time>2022-09-24T13:23:22Z</time>
      </trkpt>
      <trkpt lat="45.79536" lon="5.28423">
        <ele>219.7</ele>
        <time>2022-09-24T13:23:23Z</time>
      </trkpt>
      <trkpt lat="45.79534" lon="5.28428">
        <ele>219.7</ele>
        <time>2022-09-24T13:23:24Z</time>
      </trkpt>
      <trkpt lat="45.79533" lon="5.28432">
        <ele>219.7</ele>
        <time>2022-09-24T13:23:25Z</time>
      </trkpt>
      <trkpt lat="45.79531" lon="5.28437">
        <ele>219.8</ele>
        <time>2022-09-24T13:23:26Z</time>
      </trkpt>
      <trkpt lat="45.79529" lon="5.28441">
        <ele>219.8</ele>
        <time>2022-09-24T13:23:27Z</time>
      </trkpt>
      <trkpt lat="45.79528" lon="5.28446">
        <ele>219.9</ele>
        <time>2022-09-24T13:23:28Z</time>
      </trkpt>
      <trkpt lat="45.79527" lon="5.28451">
        <ele>219.9</ele>
        <time>2022-09-24T13:23:29Z</time>
      </trkpt>
      <trkpt lat="45.79525" lon="5.28456">
        <ele>219.9</ele>
        <time>2022-09-24T13:23:30Z</time>
      </trkpt>
      <trkpt lat="45.79524" lon="5.28461">
        <ele>220</ele>
        <time>2022-09-24T13:23:31Z</time>
      </trkpt>
      <trkpt lat="45.79523" lon="5.28466">
        <ele>220</ele>
        <time>2022-09-24T13:23:32Z</time>
      </trkpt>
      <trkpt lat="45.79521" lon="5.28471">
        <ele>220.1</ele>
        <time>2022-09-24T13:23:33Z</time>
      </trkpt>
      <trkpt lat="45.79519" lon="5.28476">
        <ele>220.1</ele>
        <time>2022-09-24T13:23:34Z</time>
      </trkpt>
      <trkpt lat="45.79518" lon="5.28481">
        <ele>220.1</ele>
        <time>2022-09-24T13:23:35Z</time>
      </trkpt>
      <trkpt lat="45.79516" lon="5.28486">
        <ele>220.2</ele>
        <time>2022-09-24T13:23:36Z</time>
      </trkpt>
      <trkpt lat="45.79515" lon="5.28491">
        <ele>220.2</ele>
        <time>2022-09-24T13:23:37Z</time>
      </trkpt>
      <trkpt lat="45.79513" lon="5.28495">
        <ele>220.3</ele>
        <time>2022-09-24T13:23:38Z</time>
      </trkpt>
      <trkpt lat="45.79512" lon="5.285">
        <ele>220.3</ele>
        <time>2022-09-24T13:23:39Z</time>
      </trkpt>
      <trkpt lat="45.7951" lon="5.28505">
        <ele>220.4</ele>
        <time>2022-09-24T13:23:40Z</time>
      </trkpt>
      <trkpt lat="45.79509" lon="5.28509">
        <ele>220.4</ele>
        <time>2022-09-24T13:23:41Z</time>
      </trkpt>
      <trkpt lat="45.79508" lon="5.28514">
        <ele>220.5</ele>
        <time>2022-09-24T13:23:42Z</time>
      </trkpt>
      <trkpt lat="45.79507" lon="5.28518">
        <ele>220.5</ele>
        <time>2022-09-24T13:23:43Z</time>
      </trkpt>
      <trkpt lat="45.79505" lon="5.28523">
        <ele>220.6</ele>
        <time>2022-09-24T13:23:44Z</time>
      </trkpt>
      <trkpt lat="45.79504" lon="5.28529">
        <ele>220.7</ele>
        <time>2022-09-24T13:23:45Z</time>
      </trkpt>
      <trkpt lat="45.79502" lon="5.28534">
        <ele>220.8</ele>
        <time>2022-09-24T13:23:46Z</time>
      </trkpt>
      <trkpt lat="45.795" lon="5.28539">
        <ele>220.9</ele>
        <time>2022-09-24T13:23:47Z</time>
      </trkpt>
      <trkpt lat="45.79499" lon="5.28543">
        <ele>221</ele>
        <time>2022-09-24T13:23:48Z</time>
      </trkpt>
      <trkpt lat="45.79498" lon="5.28549">
        <ele>221</ele>
        <time>2022-09-24T13:23:49Z</time>
      </trkpt>
      <trkpt lat="45.79497" lon="5.28553">
        <ele>221.1</ele>
        <time>2022-09-24T13:23:50Z</time>
      </trkpt>
      <trkpt lat="45.79495" lon="5.28559">
        <ele>221.2</ele>
        <time>2022-09-24T13:23:51Z</time>
      </trkpt>
      <trkpt lat="45.79494" lon="5.28563">
        <ele>221.3</ele>
        <time>2022-09-24T13:23:52Z</time>
      </trkpt>
      <trkpt lat="45.79493" lon="5.28568">
        <ele>221.4</ele>
        <time>2022-09-24T13:23:53Z</time>
      </trkpt>
      <trkpt lat="45.79492" lon="5.28573">
        <ele>221.5</ele>
        <time>2022-09-24T13:23:54Z</time>
      </trkpt>
      <trkpt lat="45.79491" lon="5.28577">
        <ele>221.6</ele>
        <time>2022-09-24T13:23:55Z</time>
      </trkpt>
      <trkpt lat="45.79489" lon="5.28582">
        <ele>221.6</ele>
        <time>2022-09-24T13:23:56Z</time>
      </trkpt>
      <trkpt lat="45.79488" lon="5.28587">
        <ele>221.7</ele>
        <time>2022-09-24T13:23:57Z</time>
      </trkpt>
      <trkpt lat="45.79487" lon="5.28593">
        <ele>221.8</ele>
        <time>2022-09-24T13:23:58Z</time>
      </trkpt>
      <trkpt lat="45.79487" lon="5.28598">
        <ele>221.9</ele>
        <time>2022-09-24T13:23:59Z</time>
      </trkpt>
      <trkpt lat="45.79485" lon="5.28602">
        <ele>222</ele>
        <time>2022-09-24T13:24:00Z</time>
      </trkpt>
      <trkpt lat="45.79484" lon="5.28607">
        <ele>222.1</ele>
        <time>2022-09-24T13:24:01Z</time>
      </trkpt>
      <trkpt lat="45.79483" lon="5.28612">
        <ele>222.2</ele>
        <time>2022-09-24T13:24:02Z</time>
      </trkpt>
      <trkpt lat="45.79482" lon="5.28617">
        <ele>222.3</ele>
        <time>2022-09-24T13:24:03Z</time>
      </trkpt>
      <trkpt lat="45.79481" lon="5.28622">
        <ele>222.4</ele>
        <time>2022-09-24T13:24:04Z</time>
      </trkpt>
      <trkpt lat="45.7948" lon="5.28628">
        <ele>222.5</ele>
        <time>2022-09-24T13:24:05Z</time>
      </trkpt>
      <trkpt lat="45.79479" lon="5.28632">
        <ele>222.6</ele>
        <time>2022-09-24T13:24:06Z</time>
      </trkpt>
      <trkpt lat="45.79478" lon="5.28637">
        <ele>222.7</ele>
        <time>2022-09-24T13:24:07Z</time>
      </trkpt>
      <trkpt lat="45.79476" lon="5.28642">
        <ele>222.9</ele>
        <time>2022-09-24T13:24:08Z</time>
      </trkpt>
      <trkpt lat="45.79476" lon="5.28647">
        <ele>223</ele>
        <time>2022-09-24T13:24:09Z</time>
      </trkpt>
      <trkpt lat="45.79475" lon="5.28652">
        <ele>223.2</ele>
        <time>2022-09-24T13:24:10Z</time>
      </trkpt>
      <trkpt lat="45.79473" lon="5.28657">
        <ele>223.3</ele>
        <time>2022-09-24T13:24:11Z</time>
      </trkpt>
      <trkpt lat="45.79472" lon="5.28661">
        <ele>223.4</ele>
        <time>2022-09-24T13:24:12Z</time>
      </trkpt>
      <trkpt lat="45.79471" lon="5.28665">
        <ele>223.6</ele>
        <time>2022-09-24T13:24:13Z</time>
      </trkpt>
      <trkpt lat="45.7947" lon="5.28669">
        <ele>223.7</ele>
        <time>2022-09-24T13:24:14Z</time>
      </trkpt>
      <trkpt lat="45.79468" lon="5.28672">
        <ele>223.9</ele>
        <time>2022-09-24T13:24:15Z</time>
      </trkpt>
      <trkpt lat="45.79467" lon="5.28677">
        <ele>224.1</ele>
        <time>2022-09-24T13:24:16Z</time>
      </trkpt>
      <trkpt lat="45.79466" lon="5.28682">
        <ele>224.3</ele>
        <time>2022-09-24T13:24:17Z</time>
      </trkpt>
      <trkpt lat="45.79465" lon="5.28685">
        <ele>224.4</ele>
        <time>2022-09-24T13:24:18Z</time>
      </trkpt>
      <trkpt lat="45.79464" lon="5.2869">
        <ele>224.6</ele>
        <time>2022-09-24T13:24:19Z</time>
      </trkpt>
      <trkpt lat="45.79463" lon="5.28694">
        <ele>224.8</ele>
        <time>2022-09-24T13:24:20Z</time>
      </trkpt>
      <trkpt lat="45.79462" lon="5.28699">
        <ele>225</ele>
        <time>2022-09-24T13:24:21Z</time>
      </trkpt>
      <trkpt lat="45.79461" lon="5.28704">
        <ele>225.2</ele>
        <time>2022-09-24T13:24:22Z</time>
      </trkpt>
      <trkpt lat="45.7946" lon="5.28708">
        <ele>225.4</ele>
        <time>2022-09-24T13:24:23Z</time>
      </trkpt>
      <trkpt lat="45.79459" lon="5.28713">
        <ele>225.7</ele>
        <time>2022-09-24T13:24:24Z</time>
      </trkpt>
      <trkpt lat="45.79459" lon="5.28718">
        <ele>225.9</ele>
        <time>2022-09-24T13:24:25Z</time>
      </trkpt>
      <trkpt lat="45.79458" lon="5.28722">
        <ele>226.1</ele>
        <time>2022-09-24T13:24:26Z</time>
      </trkpt>
      <trkpt lat="45.79456" lon="5.28726">
        <ele>226.3</ele>
        <time>2022-09-24T13:24:27Z</time>
      </trkpt>
      <trkpt lat="45.79455" lon="5.2873">
        <ele>226.5</ele>
        <time>2022-09-24T13:24:28Z</time>
      </trkpt>
      <trkpt lat="45.79454" lon="5.28733">
        <ele>226.7</ele>
        <time>2022-09-24T13:24:29Z</time>
      </trkpt>
      <trkpt lat="45.79452" lon="5.28737">
        <ele>227</ele>
        <time>2022-09-24T13:24:30Z</time>
      </trkpt>
      <trkpt lat="45.79451" lon="5.28741">
        <ele>227.2</ele>
        <time>2022-09-24T13:24:31Z</time>
      </trkpt>
      <trkpt lat="45.7945" lon="5.28747">
        <ele>227.5</ele>
        <time>2022-09-24T13:24:32Z</time>
      </trkpt>
      <trkpt lat="45.7945" lon="5.28749">
        <ele>227.6</ele>
        <time>2022-09-24T13:24:33Z</time>
      </trkpt>
      <trkpt lat="45.79449" lon="5.28753">
        <ele>227.8</ele>
        <time>2022-09-24T13:24:34Z</time>
      </trkpt>
      <trkpt lat="45.79449" lon="5.28756">
        <ele>228</ele>
        <time>2022-09-24T13:24:35Z</time>
      </trkpt>
      <trkpt lat="45.79448" lon="5.28762">
        <ele>228.3</ele>
        <time>2022-09-24T13:24:36Z</time>
      </trkpt>
      <trkpt lat="45.79448" lon="5.28764">
        <ele>228.5</ele>
        <time>2022-09-24T13:24:37Z</time>
      </trkpt>
      <trkpt lat="45.79447" lon="5.28769">
        <ele>228.7</ele>
        <time>2022-09-24T13:24:38Z</time>
      </trkpt>
      <trkpt lat="45.79447" lon="5.2877">
        <ele>228.8</ele>
        <time>2022-09-24T13:24:39Z</time>
      </trkpt>
      <trkpt lat="45.79447" lon="5.28774">
        <ele>229</ele>
        <time>2022-09-24T13:24:40Z</time>
      </trkpt>
      <trkpt lat="45.79446" lon="5.28779">
        <ele>229.3</ele>
        <time>2022-09-24T13:24:41Z</time>
      </trkpt>
      <trkpt lat="45.79446" lon="5.28781">
        <ele>229.4</ele>
        <time>2022-09-24T13:24:42Z</time>
      </trkpt>
      <trkpt lat="45.79446" lon="5.28785">
        <ele>229.7</ele>
        <time>2022-09-24T13:24:43Z</time>
      </trkpt>
      <trkpt lat="45.79445" lon="5.2879">
        <ele>230</ele>
        <time>2022-09-24T13:24:44Z</time>
      </trkpt>
      <trkpt lat="45.79444" lon="5.28792">
        <ele>230.1</ele>
        <time>2022-09-24T13:24:45Z</time>
      </trkpt>
      <trkpt lat="45.79444" lon="5.28797">
        <ele>230.4</ele>
        <time>2022-09-24T13:24:46Z</time>
      </trkpt>
      <trkpt lat="45.79444" lon="5.288">
        <ele>230.5</ele>
        <time>2022-09-24T13:24:47Z</time>
      </trkpt>
      <trkpt lat="45.79443" lon="5.28806">
        <ele>230.8</ele>
        <time>2022-09-24T13:24:48Z</time>
      </trkpt>
      <trkpt lat="45.79443" lon="5.28808">
        <ele>230.9</ele>
        <time>2022-09-24T13:24:49Z</time>
      </trkpt>
      <trkpt lat="45.79444" lon="5.28812">
        <ele>231.2</ele>
        <time>2022-09-24T13:24:50Z</time>
      </trkpt>
      <trkpt lat="45.79444" lon="5.28816">
        <ele>231.4</ele>
        <time>2022-09-24T13:24:51Z</time>
      </trkpt>
      <trkpt lat="45.79445" lon="5.28821">
        <ele>231.7</ele>
        <time>2022-09-24T13:24:52Z</time>
      </trkpt>
      <trkpt lat="45.79446" lon="5.28823">
        <ele>231.8</ele>
        <time>2022-09-24T13:24:53Z</time>
      </trkpt>
      <trkpt lat="45.79447" lon="5.28828">
        <ele>232.1</ele>
        <time>2022-09-24T13:24:54Z</time>
      </trkpt>
      <trkpt lat="45.79448" lon="5.2883">
        <ele>232.2</ele>
        <time>2022-09-24T13:24:55Z</time>
      </trkpt>
      <trkpt lat="45.79448" lon="5.28835">
        <ele>232.4</ele>
        <time>2022-09-24T13:24:56Z</time>
      </trkpt>
      <trkpt lat="45.79448" lon="5.28837">
        <ele>232.5</ele>
        <time>2022-09-24T13:24:57Z</time>
      </trkpt>
      <trkpt lat="45.79449" lon="5.28842">
        <ele>232.7</ele>
        <time>2022-09-24T13:24:58Z</time>
      </trkpt>
      <trkpt lat="45.7945" lon="5.28844">
        <ele>232.8</ele>
        <time>2022-09-24T13:24:59Z</time>
      </trkpt>
      <trkpt lat="45.7945" lon="5.28849">
        <ele>233</ele>
        <time>2022-09-24T13:25:00Z</time>
      </trkpt>
      <trkpt lat="45.79451" lon="5.28851">
        <ele>233</ele>
        <time>2022-09-24T13:25:01Z</time>
      </trkpt>
      <trkpt lat="45.79452" lon="5.28854">
        <ele>233.2</ele>
        <time>2022-09-24T13:25:02Z</time>
      </trkpt>
      <trkpt lat="45.79453" lon="5.28858">
        <ele>233.4</ele>
        <time>2022-09-24T13:25:03Z</time>
      </trkpt>
      <trkpt lat="45.79454" lon="5.28862">
        <ele>233.6</ele>
        <time>2022-09-24T13:25:04Z</time>
      </trkpt>
      <trkpt lat="45.79455" lon="5.28864">
        <ele>233.6</ele>
        <time>2022-09-24T13:25:05Z</time>
      </trkpt>
      <trkpt lat="45.79457" lon="5.28869">
        <ele>233.8</ele>
        <time>2022-09-24T13:25:06Z</time>
      </trkpt>
      <trkpt lat="45.79457" lon="5.2887">
        <ele>233.9</ele>
        <time>2022-09-24T13:25:07Z</time>
      </trkpt>
      <trkpt lat="45.79459" lon="5.28875">
        <ele>234</ele>
        <time>2022-09-24T13:25:08Z</time>
      </trkpt>
      <trkpt lat="45.7946" lon="5.28876">
        <ele>234.1</ele>
        <time>2022-09-24T13:25:09Z</time>
      </trkpt>
      <trkpt lat="45.79462" lon="5.28881">
        <ele>234.3</ele>
        <time>2022-09-24T13:25:10Z</time>
      </trkpt>
      <trkpt lat="45.79462" lon="5.28882">
        <ele>234.3</ele>
        <time>2022-09-24T13:25:11Z</time>
      </trkpt>
      <trkpt lat="45.79464" lon="5.28887">
        <ele>234.4</ele>
        <time>2022-09-24T13:25:12Z</time>
      </trkpt>
      <trkpt lat="45.79465" lon="5.28888">
        <ele>234.5</ele>
        <time>2022-09-24T13:25:13Z</time>
      </trkpt>
      <trkpt lat="45.79468" lon="5.28893">
        <ele>234.6</ele>
        <time>2022-09-24T13:25:14Z</time>
      </trkpt>
      <trkpt lat="45.79468" lon="5.28894">
        <ele>234.6</ele>
        <time>2022-09-24T13:25:15Z</time>
      </trkpt>
      <trkpt lat="45.79471" lon="5.28898">
        <ele>234.7</ele>
        <time>2022-09-24T13:25:16Z</time>
      </trkpt>
      <trkpt lat="45.79472" lon="5.289">
        <ele>234.7</ele>
        <time>2022-09-24T13:25:17Z</time>
      </trkpt>
      <trkpt lat="45.79474" lon="5.28903">
        <ele>234.8</ele>
        <time>2022-09-24T13:25:18Z</time>
      </trkpt>
      <trkpt lat="45.79475" lon="5.28906">
        <ele>234.9</ele>
        <time>2022-09-24T13:25:19Z</time>
      </trkpt>
      <trkpt lat="45.79477" lon="5.28909">
        <ele>234.9</ele>
        <time>2022-09-24T13:25:20Z</time>
      </trkpt>
      <trkpt lat="45.79479" lon="5.28913">
        <ele>235</ele>
        <time>2022-09-24T13:25:21Z</time>
      </trkpt>
      <trkpt lat="45.79482" lon="5.28916">
        <ele>235</ele>
        <time>2022-09-24T13:25:22Z</time>
      </trkpt>
      <trkpt lat="45.79484" lon="5.28919">
        <ele>235.1</ele>
        <time>2022-09-24T13:25:23Z</time>
      </trkpt>
      <trkpt lat="45.79487" lon="5.28923">
        <ele>235.1</ele>
        <time>2022-09-24T13:25:24Z</time>
      </trkpt>
      <trkpt lat="45.7949" lon="5.28926">
        <ele>235.2</ele>
        <time>2022-09-24T13:25:25Z</time>
      </trkpt>
      <trkpt lat="45.79492" lon="5.2893">
        <ele>235.3</ele>
        <time>2022-09-24T13:25:26Z</time>
      </trkpt>
      <trkpt lat="45.79495" lon="5.28934">
        <ele>235.3</ele>
        <time>2022-09-24T13:25:27Z</time>
      </trkpt>
      <trkpt lat="45.79497" lon="5.28938">
        <ele>235.4</ele>
        <time>2022-09-24T13:25:28Z</time>
      </trkpt>
      <trkpt lat="45.795" lon="5.28941">
        <ele>235.4</ele>
        <time>2022-09-24T13:25:29Z</time>
      </trkpt>
      <trkpt lat="45.79503" lon="5.28945">
        <ele>235.5</ele>
        <time>2022-09-24T13:25:30Z</time>
      </trkpt>
      <trkpt lat="45.79505" lon="5.28948">
        <ele>235.6</ele>
        <time>2022-09-24T13:25:31Z</time>
      </trkpt>
      <trkpt lat="45.79508" lon="5.28951">
        <ele>235.6</ele>
        <time>2022-09-24T13:25:32Z</time>
      </trkpt>
      <trkpt lat="45.79511" lon="5.28954">
        <ele>235.7</ele>
        <time>2022-09-24T13:25:33Z</time>
      </trkpt>
      <trkpt lat="45.79514" lon="5.28956">
        <ele>235.8</ele>
        <time>2022-09-24T13:25:34Z</time>
      </trkpt>
      <trkpt lat="45.79517" lon="5.28958">
        <ele>235.8</ele>
        <time>2022-09-24T13:25:35Z</time>
      </trkpt>
      <trkpt lat="45.7952" lon="5.2896">
        <ele>235.9</ele>
        <time>2022-09-24T13:25:36Z</time>
      </trkpt>
      <trkpt lat="45.79523" lon="5.28962">
        <ele>235.9</ele>
        <time>2022-09-24T13:25:37Z</time>
      </trkpt>
      <trkpt lat="45.79526" lon="5.28963">
        <ele>236</ele>
        <time>2022-09-24T13:25:38Z</time>
      </trkpt>
      <trkpt lat="45.7953" lon="5.28964">
        <ele>236.1</ele>
        <time>2022-09-24T13:25:39Z</time>
      </trkpt>
      <trkpt lat="45.79533" lon="5.28966">
        <ele>236.1</ele>
        <time>2022-09-24T13:25:40Z</time>
      </trkpt>
      <trkpt lat="45.79536" lon="5.28967">
        <ele>236.1</ele>
        <time>2022-09-24T13:25:41Z</time>
      </trkpt>
      <trkpt lat="45.7954" lon="5.28968">
        <ele>236.1</ele>
        <time>2022-09-24T13:25:42Z</time>
      </trkpt>
      <trkpt lat="45.79543" lon="5.2897">
        <ele>236.1</ele>
        <time>2022-09-24T13:25:43Z</time>
      </trkpt>
      <trkpt lat="45.79547" lon="5.28972">
        <ele>236.1</ele>
        <time>2022-09-24T13:25:44Z</time>
      </trkpt>
      <trkpt lat="45.79551" lon="5.28974">
        <ele>236.1</ele>
        <time>2022-09-24T13:25:45Z</time>
      </trkpt>
      <trkpt lat="45.79555" lon="5.28977">
        <ele>236.1</ele>
        <time>2022-09-24T13:25:46Z</time>
      </trkpt>
      <trkpt lat="45.79559" lon="5.2898">
        <ele>236</ele>
        <time>2022-09-24T13:25:47Z</time>
      </trkpt>
      <trkpt lat="45.79563" lon="5.28982">
        <ele>236</ele>
        <time>2022-09-24T13:25:48Z</time>
      </trkpt>
      <trkpt lat="45.79568" lon="5.28985">
        <ele>235.9</ele>
        <time>2022-09-24T13:25:49Z</time>
      </trkpt>
      <trkpt lat="45.79572" lon="5.28987">
        <ele>235.8</ele>
        <time>2022-09-24T13:25:50Z</time>
      </trkpt>
      <trkpt lat="45.79576" lon="5.2899">
        <ele>235.7</ele>
        <time>2022-09-24T13:25:51Z</time>
      </trkpt>
      <trkpt lat="45.7958" lon="5.28994">
        <ele>235.5</ele>
        <time>2022-09-24T13:25:52Z</time>
      </trkpt>
      <trkpt lat="45.79585" lon="5.28997">
        <ele>235.4</ele>
        <time>2022-09-24T13:25:53Z</time>
      </trkpt>
      <trkpt lat="45.79589" lon="5.29001">
        <ele>235.2</ele>
        <time>2022-09-24T13:25:54Z</time>
      </trkpt>
      <trkpt lat="45.79594" lon="5.29004">
        <ele>235.1</ele>
        <time>2022-09-24T13:25:55Z</time>
      </trkpt>
      <trkpt lat="45.79598" lon="5.29008">
        <ele>234.9</ele>
        <time>2022-09-24T13:25:56Z</time>
      </trkpt>
      <trkpt lat="45.79602" lon="5.29012">
        <ele>234.8</ele>
        <time>2022-09-24T13:25:57Z</time>
      </trkpt>
      <trkpt lat="45.79606" lon="5.29017">
        <ele>234.6</ele>
        <time>2022-09-24T13:25:58Z</time>
      </trkpt>
      <trkpt lat="45.7961" lon="5.29023">
        <ele>234.5</ele>
        <time>2022-09-24T13:25:59Z</time>
      </trkpt>
      <trkpt lat="45.79613" lon="5.29028">
        <ele>234.4</ele>
        <time>2022-09-24T13:26:00Z</time>
      </trkpt>
      <trkpt lat="45.79618" lon="5.29034">
        <ele>234.3</ele>
        <time>2022-09-24T13:26:01Z</time>
      </trkpt>
      <trkpt lat="45.79621" lon="5.2904">
        <ele>234.1</ele>
        <time>2022-09-24T13:26:02Z</time>
      </trkpt>
      <trkpt lat="45.79624" lon="5.29046">
        <ele>234</ele>
        <time>2022-09-24T13:26:03Z</time>
      </trkpt>
      <trkpt lat="45.79627" lon="5.29053">
        <ele>233.9</ele>
        <time>2022-09-24T13:26:04Z</time>
      </trkpt>
      <trkpt lat="45.7963" lon="5.2906">
        <ele>233.7</ele>
        <time>2022-09-24T13:26:05Z</time>
      </trkpt>
      <trkpt lat="45.79634" lon="5.29067">
        <ele>233.6</ele>
        <time>2022-09-24T13:26:06Z</time>
      </trkpt>
      <trkpt lat="45.79637" lon="5.29073">
        <ele>233.5</ele>
        <time>2022-09-24T13:26:07Z</time>
      </trkpt>
      <trkpt lat="45.7964" lon="5.2908">
        <ele>233.4</ele>
        <time>2022-09-24T13:26:08Z</time>
      </trkpt>
      <trkpt lat="45.79644" lon="5.29087">
        <ele>233.3</ele>
        <time>2022-09-24T13:26:09Z</time>
      </trkpt>
      <trkpt lat="45.79648" lon="5.29095">
        <ele>233.3</ele>
        <time>2022-09-24T13:26:10Z</time>
      </trkpt>
      <trkpt lat="45.7965" lon="5.29103">
        <ele>233.2</ele>
        <time>2022-09-24T13:26:11Z</time>
      </trkpt>
      <trkpt lat="45.79653" lon="5.2911">
        <ele>233.2</ele>
        <time>2022-09-24T13:26:12Z</time>
      </trkpt>
      <trkpt lat="45.79657" lon="5.29117">
        <ele>233.1</ele>
        <time>2022-09-24T13:26:13Z</time>
      </trkpt>
      <trkpt lat="45.79661" lon="5.29125">
        <ele>233.1</ele>
        <time>2022-09-24T13:26:14Z</time>
      </trkpt>
      <trkpt lat="45.79664" lon="5.29132">
        <ele>233.1</ele>
        <time>2022-09-24T13:26:15Z</time>
      </trkpt>
      <trkpt lat="45.79667" lon="5.29141">
        <ele>233.2</ele>
        <time>2022-09-24T13:26:16Z</time>
      </trkpt>
      <trkpt lat="45.7967" lon="5.29149">
        <ele>233.3</ele>
        <time>2022-09-24T13:26:17Z</time>
      </trkpt>
      <trkpt lat="45.79673" lon="5.29155">
        <ele>233.3</ele>
        <time>2022-09-24T13:26:18Z</time>
      </trkpt>
      <trkpt lat="45.79677" lon="5.2916">
        <ele>233.4</ele>
        <time>2022-09-24T13:26:19Z</time>
      </trkpt>
      <trkpt lat="45.79679" lon="5.29167">
        <ele>233.5</ele>
        <time>2022-09-24T13:26:20Z</time>
      </trkpt>
      <trkpt lat="45.79682" lon="5.29173">
        <ele>233.6</ele>
        <time>2022-09-24T13:26:21Z</time>
      </trkpt>
      <trkpt lat="45.79686" lon="5.2918">
        <ele>233.7</ele>
        <time>2022-09-24T13:26:22Z</time>
      </trkpt>
      <trkpt lat="45.79688" lon="5.29187">
        <ele>233.8</ele>
        <time>2022-09-24T13:26:23Z</time>
      </trkpt>
      <trkpt lat="45.79691" lon="5.29192">
        <ele>233.9</ele>
        <time>2022-09-24T13:26:24Z</time>
      </trkpt>
      <trkpt lat="45.79694" lon="5.29198">
        <ele>234</ele>
        <time>2022-09-24T13:26:25Z</time>
      </trkpt>
      <trkpt lat="45.79696" lon="5.29205">
        <ele>234.1</ele>
        <time>2022-09-24T13:26:26Z</time>
      </trkpt>
      <trkpt lat="45.79699" lon="5.2921">
        <ele>234.2</ele>
        <time>2022-09-24T13:26:27Z</time>
      </trkpt>
      <trkpt lat="45.79703" lon="5.29213">
        <ele>234.2</ele>
        <time>2022-09-24T13:26:28Z</time>
      </trkpt>
      <trkpt lat="45.79706" lon="5.29218">
        <ele>234.2</ele>
        <time>2022-09-24T13:26:29Z</time>
      </trkpt>
      <trkpt lat="45.79712" lon="5.29221">
        <ele>234.1</ele>
        <time>2022-09-24T13:26:30Z</time>
      </trkpt>
      <trkpt lat="45.79716" lon="5.29223">
        <ele>234.1</ele>
        <time>2022-09-24T13:26:31Z</time>
      </trkpt>
      <trkpt lat="45.7972" lon="5.29223">
        <ele>234.1</ele>
        <time>2022-09-24T13:26:32Z</time>
      </trkpt>
      <trkpt lat="45.79723" lon="5.29224">
        <ele>234.1</ele>
        <time>2022-09-24T13:26:33Z</time>
      </trkpt>
      <trkpt lat="45.79727" lon="5.2923">
        <ele>234</ele>
        <time>2022-09-24T13:26:34Z</time>
      </trkpt>
      <trkpt lat="45.79729" lon="5.29233">
        <ele>233.9</ele>
        <time>2022-09-24T13:26:35Z</time>
      </trkpt>
      <trkpt lat="45.79732" lon="5.29238">
        <ele>233.9</ele>
        <time>2022-09-24T13:26:36Z</time>
      </trkpt>
      <trkpt lat="45.79732" lon="5.29242">
        <ele>233.8</ele>
        <time>2022-09-24T13:26:37Z</time>
      </trkpt>
      <trkpt lat="45.79732" lon="5.29245">
        <ele>233.4</ele>
        <time>2022-09-24T13:26:38Z</time>
      </trkpt>
      <trkpt lat="45.79731" lon="5.29246">
        <ele>233.4</ele>
        <time>2022-09-24T13:26:39Z</time>
      </trkpt>
      <trkpt lat="45.79731" lon="5.29246">
        <ele>233.4</ele>
        <time>2022-09-24T13:26:40Z</time>
      </trkpt>
      <trkpt lat="45.79731" lon="5.29247">
        <ele>233.4</ele>
        <time>2022-09-24T13:26:41Z</time>
      </trkpt>
      <trkpt lat="45.7973" lon="5.29247">
        <ele>233.3</ele>
        <time>2022-09-24T13:26:42Z</time>
      </trkpt>
      <trkpt lat="45.7973" lon="5.29248">
        <ele>233.3</ele>
        <time>2022-09-24T13:26:43Z</time>
      </trkpt>
      <trkpt lat="45.7973" lon="5.29248">
        <ele>233.3</ele>
        <time>2022-09-24T13:26:44Z</time>
      </trkpt>
      <trkpt lat="45.79729" lon="5.29249">
        <ele>233.3</ele>
        <time>2022-09-24T13:26:45Z</time>
      </trkpt>
      <trkpt lat="45.79729" lon="5.29249">
        <ele>233.2</ele>
        <time>2022-09-24T13:26:46Z</time>
      </trkpt>
      <trkpt lat="45.79729" lon="5.2925">
        <ele>233.2</ele>
        <time>2022-09-24T13:26:47Z</time>
      </trkpt>
      <trkpt lat="45.79728" lon="5.2925">
        <ele>233.2</ele>
        <time>2022-09-24T13:26:48Z</time>
      </trkpt>
      <trkpt lat="45.79728" lon="5.29251">
        <ele>233.2</ele>
        <time>2022-09-24T13:26:49Z</time>
      </trkpt>
      <trkpt lat="45.79728" lon="5.29251">
        <ele>233.1</ele>
        <time>2022-09-24T13:26:52Z</time>
      </trkpt>
      <trkpt lat="45.79728" lon="5.29252">
        <ele>233.1</ele>
        <time>2022-09-24T13:26:53Z</time>
      </trkpt>
      <trkpt lat="45.79727" lon="5.29252">
        <ele>233.1</ele>
        <time>2022-09-24T13:26:54Z</time>
      </trkpt>
      <trkpt lat="45.79727" lon="5.29253">
        <ele>233.1</ele>
        <time>2022-09-24T13:26:55Z</time>
      </trkpt>
      <trkpt lat="45.79727" lon="5.29253">
        <ele>233.1</ele>
        <time>2022-09-24T13:26:56Z</time>
      </trkpt>
      <trkpt lat="45.79726" lon="5.29254">
        <ele>233</ele>
        <time>2022-09-24T13:26:57Z</time>
      </trkpt>
      <trkpt lat="45.79726" lon="5.29254">
        <ele>233</ele>
        <time>2022-09-24T13:26:58Z</time>
      </trkpt>
      <trkpt lat="45.79726" lon="5.29255">
        <ele>233</ele>
        <time>2022-09-24T13:26:59Z</time>
      </trkpt>
      <trkpt lat="45.79725" lon="5.29255">
        <ele>233</ele>
        <time>2022-09-24T13:27:00Z</time>
      </trkpt>
      <trkpt lat="45.79725" lon="5.29256">
        <ele>232.9</ele>
        <time>2022-09-24T13:27:01Z</time>
      </trkpt>
      <trkpt lat="45.79725" lon="5.29257">
        <ele>232.9</ele>
        <time>2022-09-24T13:27:02Z</time>
      </trkpt>
      <trkpt lat="45.79724" lon="5.29257">
        <ele>232.9</ele>
        <time>2022-09-24T13:27:15Z</time>
      </trkpt>
      <trkpt lat="45.79724" lon="5.29258">
        <ele>232.9</ele>
        <time>2022-09-24T13:27:16Z</time>
      </trkpt>
      <trkpt lat="45.79724" lon="5.29258">
        <ele>232.8</ele>
        <time>2022-09-24T13:27:17Z</time>
      </trkpt>
      <trkpt lat="45.79721" lon="5.29262">
        <ele>232.6</ele>
        <time>2022-09-24T13:27:18Z</time>
      </trkpt>
      <trkpt lat="45.79719" lon="5.29267">
        <ele>232.4</ele>
        <time>2022-09-24T13:27:19Z</time>
      </trkpt>
      <trkpt lat="45.79718" lon="5.29269">
        <ele>232.3</ele>
        <time>2022-09-24T13:27:20Z</time>
      </trkpt>
      <trkpt lat="45.79716" lon="5.29274">
        <ele>232</ele>
        <time>2022-09-24T13:27:21Z</time>
      </trkpt>
      <trkpt lat="45.79714" lon="5.29278">
        <ele>231.8</ele>
        <time>2022-09-24T13:27:22Z</time>
      </trkpt>
      <trkpt lat="45.79714" lon="5.29283">
        <ele>231.5</ele>
        <time>2022-09-24T13:27:23Z</time>
      </trkpt>
      <trkpt lat="45.79712" lon="5.29288">
        <ele>231.2</ele>
        <time>2022-09-24T13:27:24Z</time>
      </trkpt>
      <trkpt lat="45.7971" lon="5.29293">
        <ele>230.9</ele>
        <time>2022-09-24T13:27:25Z</time>
      </trkpt>
      <trkpt lat="45.7971" lon="5.29295">
        <ele>230.7</ele>
        <time>2022-09-24T13:27:26Z</time>
      </trkpt>
      <trkpt lat="45.7971" lon="5.29301">
        <ele>230.5</ele>
        <time>2022-09-24T13:27:27Z</time>
      </trkpt>
      <trkpt lat="45.79711" lon="5.29305">
        <ele>230.3</ele>
        <time>2022-09-24T13:27:28Z</time>
      </trkpt>
      <trkpt lat="45.79712" lon="5.29311">
        <ele>230.1</ele>
        <time>2022-09-24T13:27:29Z</time>
      </trkpt>
      <trkpt lat="45.79712" lon="5.29314">
        <ele>229.9</ele>
        <time>2022-09-24T13:27:30Z</time>
      </trkpt>
      <trkpt lat="45.79712" lon="5.29319">
        <ele>229.5</ele>
        <time>2022-09-24T13:27:31Z</time>
      </trkpt>
      <trkpt lat="45.79714" lon="5.29326">
        <ele>228.7</ele>
        <time>2022-09-24T13:27:32Z</time>
      </trkpt>
      <trkpt lat="45.79716" lon="5.29332">
        <ele>228.1</ele>
        <time>2022-09-24T13:27:33Z</time>
      </trkpt>
      <trkpt lat="45.79718" lon="5.2934">
        <ele>227.3</ele>
        <time>2022-09-24T13:27:34Z</time>
      </trkpt>
      <trkpt lat="45.79721" lon="5.29348">
        <ele>226.6</ele>
        <time>2022-09-24T13:27:35Z</time>
      </trkpt>
      <trkpt lat="45.79722" lon="5.29357">
        <ele>225.8</ele>
        <time>2022-09-24T13:27:36Z</time>
      </trkpt>
      <trkpt lat="45.79724" lon="5.29365">
        <ele>225.1</ele>
        <time>2022-09-24T13:27:37Z</time>
      </trkpt>
      <trkpt lat="45.79725" lon="5.29372">
        <ele>224.6</ele>
        <time>2022-09-24T13:27:38Z</time>
      </trkpt>
      <trkpt lat="45.79726" lon="5.2938">
        <ele>224.1</ele>
        <time>2022-09-24T13:27:39Z</time>
      </trkpt>
      <trkpt lat="45.79725" lon="5.29389">
        <ele>223.5</ele>
        <time>2022-09-24T13:27:40Z</time>
      </trkpt>
      <trkpt lat="45.79726" lon="5.29397">
        <ele>223</ele>
        <time>2022-09-24T13:27:41Z</time>
      </trkpt>
      <trkpt lat="45.79728" lon="5.29405">
        <ele>222.5</ele>
        <time>2022-09-24T13:27:42Z</time>
      </trkpt>
      <trkpt lat="45.79728" lon="5.29411">
        <ele>222.1</ele>
        <time>2022-09-24T13:27:43Z</time>
      </trkpt>
      <trkpt lat="45.79728" lon="5.29419">
        <ele>221.6</ele>
        <time>2022-09-24T13:27:44Z</time>
      </trkpt>
      <trkpt lat="45.79728" lon="5.29427">
        <ele>221.2</ele>
        <time>2022-09-24T13:27:45Z</time>
      </trkpt>
      <trkpt lat="45.79731" lon="5.29435">
        <ele>220.6</ele>
        <time>2022-09-24T13:27:46Z</time>
      </trkpt>
      <trkpt lat="45.7973" lon="5.29443">
        <ele>220.2</ele>
        <time>2022-09-24T13:27:47Z</time>
      </trkpt>
      <trkpt lat="45.7973" lon="5.2945">
        <ele>219.8</ele>
        <time>2022-09-24T13:27:48Z</time>
      </trkpt>
      <trkpt lat="45.79731" lon="5.29456">
        <ele>219.4</ele>
        <time>2022-09-24T13:27:49Z</time>
      </trkpt>
      <trkpt lat="45.79732" lon="5.29461">
        <ele>219.2</ele>
        <time>2022-09-24T13:27:50Z</time>
      </trkpt>
      <trkpt lat="45.79734" lon="5.29466">
        <ele>218.9</ele>
        <time>2022-09-24T13:27:51Z</time>
      </trkpt>
      <trkpt lat="45.79736" lon="5.29473">
        <ele>218.7</ele>
        <time>2022-09-24T13:27:52Z</time>
      </trkpt>
      <trkpt lat="45.79738" lon="5.29479">
        <ele>218.5</ele>
        <time>2022-09-24T13:27:53Z</time>
      </trkpt>
      <trkpt lat="45.79741" lon="5.29484">
        <ele>218.2</ele>
        <time>2022-09-24T13:27:54Z</time>
      </trkpt>
      <trkpt lat="45.79744" lon="5.2949">
        <ele>218</ele>
        <time>2022-09-24T13:27:55Z</time>
      </trkpt>
      <trkpt lat="45.79747" lon="5.29496">
        <ele>217.9</ele>
        <time>2022-09-24T13:27:56Z</time>
      </trkpt>
      <trkpt lat="45.79749" lon="5.29502">
        <ele>217.7</ele>
        <time>2022-09-24T13:27:57Z</time>
      </trkpt>
      <trkpt lat="45.79752" lon="5.29505">
        <ele>217.7</ele>
        <time>2022-09-24T13:27:58Z</time>
      </trkpt>
      <trkpt lat="45.79756" lon="5.2951">
        <ele>217.6</ele>
        <time>2022-09-24T13:27:59Z</time>
      </trkpt>
      <trkpt lat="45.7976" lon="5.29514">
        <ele>217.5</ele>
        <time>2022-09-24T13:28:00Z</time>
      </trkpt>
      <trkpt lat="45.79763" lon="5.29514">
        <ele>217.5</ele>
        <time>2022-09-24T13:28:01Z</time>
      </trkpt>
      <trkpt lat="45.79767" lon="5.29511">
        <ele>217.4</ele>
        <time>2022-09-24T13:28:02Z</time>
      </trkpt>
      <trkpt lat="45.79772" lon="5.29516">
        <ele>217.1</ele>
        <time>2022-09-24T13:28:03Z</time>
      </trkpt>
      <trkpt lat="45.79774" lon="5.29521">
        <ele>217</ele>
        <time>2022-09-24T13:28:04Z</time>
      </trkpt>
      <trkpt lat="45.79777" lon="5.29521">
        <ele>216.9</ele>
        <time>2022-09-24T13:28:05Z</time>
      </trkpt>
      <trkpt lat="45.79781" lon="5.29519">
        <ele>216.7</ele>
        <time>2022-09-24T13:28:06Z</time>
      </trkpt>
      <trkpt lat="45.79788" lon="5.29517">
        <ele>216.5</ele>
        <time>2022-09-24T13:28:07Z</time>
      </trkpt>
      <trkpt lat="45.79793" lon="5.29515">
        <ele>216.4</ele>
        <time>2022-09-24T13:28:08Z</time>
      </trkpt>
      <trkpt lat="45.79798" lon="5.29513">
        <ele>216.3</ele>
        <time>2022-09-24T13:28:09Z</time>
      </trkpt>
      <trkpt lat="45.79803" lon="5.29512">
        <ele>216.2</ele>
        <time>2022-09-24T13:28:10Z</time>
      </trkpt>
      <trkpt lat="45.79807" lon="5.29512">
        <ele>216.1</ele>
        <time>2022-09-24T13:28:11Z</time>
      </trkpt>
      <trkpt lat="45.79813" lon="5.2951">
        <ele>216</ele>
        <time>2022-09-24T13:28:12Z</time>
      </trkpt>
      <trkpt lat="45.79815" lon="5.29508">
        <ele>216</ele>
        <time>2022-09-24T13:28:13Z</time>
      </trkpt>
      <trkpt lat="45.79819" lon="5.29507">
        <ele>216</ele>
        <time>2022-09-24T13:28:14Z</time>
      </trkpt>
      <trkpt lat="45.79824" lon="5.29506">
        <ele>215.9</ele>
        <time>2022-09-24T13:28:15Z</time>
      </trkpt>
      <trkpt lat="45.79832" lon="5.29505">
        <ele>215.9</ele>
        <time>2022-09-24T13:28:16Z</time>
      </trkpt>
      <trkpt lat="45.79838" lon="5.29504">
        <ele>215.8</ele>
        <time>2022-09-24T13:28:17Z</time>
      </trkpt>
      <trkpt lat="45.79844" lon="5.29503">
        <ele>215.8</ele>
        <time>2022-09-24T13:28:18Z</time>
      </trkpt>
      <trkpt lat="45.7985" lon="5.29503">
        <ele>215.8</ele>
        <time>2022-09-24T13:28:19Z</time>
      </trkpt>
      <trkpt lat="45.79855" lon="5.29504">
        <ele>215.7</ele>
        <time>2022-09-24T13:28:20Z</time>
      </trkpt>
      <trkpt lat="45.79861" lon="5.29505">
        <ele>215.7</ele>
        <time>2022-09-24T13:28:21Z</time>
      </trkpt>
      <trkpt lat="45.79866" lon="5.29505">
        <ele>215.6</ele>
        <time>2022-09-24T13:28:22Z</time>
      </trkpt>
      <trkpt lat="45.79871" lon="5.29505">
        <ele>215.6</ele>
        <time>2022-09-24T13:28:23Z</time>
      </trkpt>
      <trkpt lat="45.79875" lon="5.29506">
        <ele>215.5</ele>
        <time>2022-09-24T13:28:24Z</time>
      </trkpt>
      <trkpt lat="45.79879" lon="5.29508">
        <ele>215.5</ele>
        <time>2022-09-24T13:28:25Z</time>
      </trkpt>
      <trkpt lat="45.79885" lon="5.29508">
        <ele>215.5</ele>
        <time>2022-09-24T13:28:26Z</time>
      </trkpt>
      <trkpt lat="45.7989" lon="5.29508">
        <ele>215.4</ele>
        <time>2022-09-24T13:28:27Z</time>
      </trkpt>
      <trkpt lat="45.79896" lon="5.29507">
        <ele>215.4</ele>
        <time>2022-09-24T13:28:28Z</time>
      </trkpt>
      <trkpt lat="45.79901" lon="5.29507">
        <ele>215.4</ele>
        <time>2022-09-24T13:28:29Z</time>
      </trkpt>
      <trkpt lat="45.79906" lon="5.29506">
        <ele>215.3</ele>
        <time>2022-09-24T13:28:30Z</time>
      </trkpt>
      <trkpt lat="45.79912" lon="5.29506">
        <ele>215.3</ele>
        <time>2022-09-24T13:28:31Z</time>
      </trkpt>
      <trkpt lat="45.79917" lon="5.29503">
        <ele>215.3</ele>
        <time>2022-09-24T13:28:32Z</time>
      </trkpt>
      <trkpt lat="45.79923" lon="5.29499">
        <ele>215.2</ele>
        <time>2022-09-24T13:28:33Z</time>
      </trkpt>
      <trkpt lat="45.79928" lon="5.29496">
        <ele>215.2</ele>
        <time>2022-09-24T13:28:34Z</time>
      </trkpt>
      <trkpt lat="45.79933" lon="5.29493">
        <ele>215.1</ele>
        <time>2022-09-24T13:28:35Z</time>
      </trkpt>
      <trkpt lat="45.79939" lon="5.29493">
        <ele>215.1</ele>
        <time>2022-09-24T13:28:36Z</time>
      </trkpt>
      <trkpt lat="45.79944" lon="5.29491">
        <ele>215.1</ele>
        <time>2022-09-24T13:28:37Z</time>
      </trkpt>
      <trkpt lat="45.7995" lon="5.29488">
        <ele>215</ele>
        <time>2022-09-24T13:28:38Z</time>
      </trkpt>
      <trkpt lat="45.79956" lon="5.29485">
        <ele>214.9</ele>
        <time>2022-09-24T13:28:39Z</time>
      </trkpt>
      <trkpt lat="45.79961" lon="5.29481">
        <ele>214.9</ele>
        <time>2022-09-24T13:28:40Z</time>
      </trkpt>
      <trkpt lat="45.79966" lon="5.29477">
        <ele>214.8</ele>
        <time>2022-09-24T13:28:41Z</time>
      </trkpt>
      <trkpt lat="45.79971" lon="5.29473">
        <ele>214.8</ele>
        <time>2022-09-24T13:28:42Z</time>
      </trkpt>
      <trkpt lat="45.79976" lon="5.29469">
        <ele>214.7</ele>
        <time>2022-09-24T13:28:43Z</time>
      </trkpt>
      <trkpt lat="45.79981" lon="5.29464">
        <ele>214.6</ele>
        <time>2022-09-24T13:28:44Z</time>
      </trkpt>
      <trkpt lat="45.79985" lon="5.2946">
        <ele>214.6</ele>
        <time>2022-09-24T13:28:45Z</time>
      </trkpt>
      <trkpt lat="45.7999" lon="5.29455">
        <ele>214.5</ele>
        <time>2022-09-24T13:28:46Z</time>
      </trkpt>
      <trkpt lat="45.79995" lon="5.2945">
        <ele>214.5</ele>
        <time>2022-09-24T13:28:47Z</time>
      </trkpt>
      <trkpt lat="45.8" lon="5.29446">
        <ele>214.4</ele>
        <time>2022-09-24T13:28:48Z</time>
      </trkpt>
      <trkpt lat="45.80005" lon="5.29442">
        <ele>214.4</ele>
        <time>2022-09-24T13:28:49Z</time>
      </trkpt>
      <trkpt lat="45.8001" lon="5.29437">
        <ele>214.4</ele>
        <time>2022-09-24T13:28:50Z</time>
      </trkpt>
      <trkpt lat="45.80014" lon="5.29432">
        <ele>214.3</ele>
        <time>2022-09-24T13:28:51Z</time>
      </trkpt>
      <trkpt lat="45.80019" lon="5.29428">
        <ele>214.3</ele>
        <time>2022-09-24T13:28:52Z</time>
      </trkpt>
      <trkpt lat="45.80025" lon="5.29424">
        <ele>214.2</ele>
        <time>2022-09-24T13:28:53Z</time>
      </trkpt>
      <trkpt lat="45.80028" lon="5.2942">
        <ele>214.2</ele>
        <time>2022-09-24T13:28:54Z</time>
      </trkpt>
      <trkpt lat="45.80033" lon="5.29415">
        <ele>214.1</ele>
        <time>2022-09-24T13:28:55Z</time>
      </trkpt>
      <trkpt lat="45.80037" lon="5.29411">
        <ele>214.1</ele>
        <time>2022-09-24T13:28:56Z</time>
      </trkpt>
      <trkpt lat="45.80041" lon="5.29406">
        <ele>214.1</ele>
        <time>2022-09-24T13:28:57Z</time>
      </trkpt>
      <trkpt lat="45.80046" lon="5.29402">
        <ele>214</ele>
        <time>2022-09-24T13:28:58Z</time>
      </trkpt>
      <trkpt lat="45.80048" lon="5.29397">
        <ele>214</ele>
        <time>2022-09-24T13:28:59Z</time>
      </trkpt>
      <trkpt lat="45.80051" lon="5.29389">
        <ele>214</ele>
        <time>2022-09-24T13:29:00Z</time>
      </trkpt>
      <trkpt lat="45.80053" lon="5.29381">
        <ele>213.9</ele>
        <time>2022-09-24T13:29:01Z</time>
      </trkpt>
      <trkpt lat="45.80055" lon="5.29375">
        <ele>213.9</ele>
        <time>2022-09-24T13:29:02Z</time>
      </trkpt>
      <trkpt lat="45.80058" lon="5.29366">
        <ele>213.9</ele>
        <time>2022-09-24T13:29:03Z</time>
      </trkpt>
      <trkpt lat="45.8006" lon="5.29358">
        <ele>213.8</ele>
        <time>2022-09-24T13:29:04Z</time>
      </trkpt>
      <trkpt lat="45.80062" lon="5.2935">
        <ele>213.7</ele>
        <time>2022-09-24T13:29:05Z</time>
      </trkpt>
      <trkpt lat="45.80063" lon="5.29343">
        <ele>213.7</ele>
        <time>2022-09-24T13:29:06Z</time>
      </trkpt>
      <trkpt lat="45.80065" lon="5.29335">
        <ele>213.6</ele>
        <time>2022-09-24T13:29:07Z</time>
      </trkpt>
      <trkpt lat="45.80068" lon="5.29328">
        <ele>213.5</ele>
        <time>2022-09-24T13:29:08Z</time>
      </trkpt>
      <trkpt lat="45.80069" lon="5.2932">
        <ele>213.5</ele>
        <time>2022-09-24T13:29:09Z</time>
      </trkpt>
      <trkpt lat="45.80071" lon="5.29312">
        <ele>213.4</ele>
        <time>2022-09-24T13:29:10Z</time>
      </trkpt>
      <trkpt lat="45.80072" lon="5.29303">
        <ele>213.3</ele>
        <time>2022-09-24T13:29:11Z</time>
      </trkpt>
      <trkpt lat="45.80074" lon="5.29297">
        <ele>213.3</ele>
        <time>2022-09-24T13:29:12Z</time>
      </trkpt>
      <trkpt lat="45.80076" lon="5.29289">
        <ele>213.1</ele>
        <time>2022-09-24T13:29:13Z</time>
      </trkpt>
      <trkpt lat="45.80077" lon="5.29281">
        <ele>213</ele>
        <time>2022-09-24T13:29:14Z</time>
      </trkpt>
      <trkpt lat="45.80079" lon="5.29274">
        <ele>212.9</ele>
        <time>2022-09-24T13:29:15Z</time>
      </trkpt>
      <trkpt lat="45.80081" lon="5.29267">
        <ele>212.7</ele>
        <time>2022-09-24T13:29:16Z</time>
      </trkpt>
      <trkpt lat="45.80083" lon="5.2926">
        <ele>212.6</ele>
        <time>2022-09-24T13:29:17Z</time>
      </trkpt>
      <trkpt lat="45.80086" lon="5.29253">
        <ele>212.3</ele>
        <time>2022-09-24T13:29:18Z</time>
      </trkpt>
      <trkpt lat="45.80089" lon="5.29248">
        <ele>212</ele>
        <time>2022-09-24T13:29:19Z</time>
      </trkpt>
      <trkpt lat="45.80093" lon="5.29242">
        <ele>211.6</ele>
        <time>2022-09-24T13:29:20Z</time>
      </trkpt>
      <trkpt lat="45.80097" lon="5.29239">
        <ele>211.3</ele>
        <time>2022-09-24T13:29:21Z</time>
      </trkpt>
      <trkpt lat="45.80103" lon="5.29236">
        <ele>210.9</ele>
        <time>2022-09-24T13:29:22Z</time>
      </trkpt>
      <trkpt lat="45.80108" lon="5.29235">
        <ele>210.6</ele>
        <time>2022-09-24T13:29:23Z</time>
      </trkpt>
      <trkpt lat="45.80114" lon="5.29235">
        <ele>210.1</ele>
        <time>2022-09-24T13:29:24Z</time>
      </trkpt>
      <trkpt lat="45.80121" lon="5.29233">
        <ele>209.7</ele>
        <time>2022-09-24T13:29:25Z</time>
      </trkpt>
      <trkpt lat="45.80127" lon="5.29232">
        <ele>209.4</ele>
        <time>2022-09-24T13:29:26Z</time>
      </trkpt>
      <trkpt lat="45.80135" lon="5.29232">
        <ele>209</ele>
        <time>2022-09-24T13:29:27Z</time>
      </trkpt>
      <trkpt lat="45.80143" lon="5.29231">
        <ele>208.7</ele>
        <time>2022-09-24T13:29:28Z</time>
      </trkpt>
      <trkpt lat="45.8015" lon="5.2923">
        <ele>208.4</ele>
        <time>2022-09-24T13:29:29Z</time>
      </trkpt>
      <trkpt lat="45.80158" lon="5.29227">
        <ele>208.1</ele>
        <time>2022-09-24T13:29:30Z</time>
      </trkpt>
      <trkpt lat="45.80164" lon="5.29224">
        <ele>208</ele>
        <time>2022-09-24T13:29:31Z</time>
      </trkpt>
      <trkpt lat="45.80171" lon="5.29219">
        <ele>207.9</ele>
        <time>2022-09-24T13:29:32Z</time>
      </trkpt>
      <trkpt lat="45.80177" lon="5.29214">
        <ele>207.8</ele>
        <time>2022-09-24T13:29:33Z</time>
      </trkpt>
      <trkpt lat="45.80183" lon="5.29207">
        <ele>207.8</ele>
        <time>2022-09-24T13:29:34Z</time>
      </trkpt>
      <trkpt lat="45.80188" lon="5.29199">
        <ele>207.8</ele>
        <time>2022-09-24T13:29:35Z</time>
      </trkpt>
      <trkpt lat="45.80193" lon="5.29191">
        <ele>207.9</ele>
        <time>2022-09-24T13:29:36Z</time>
      </trkpt>
      <trkpt lat="45.80197" lon="5.29184">
        <ele>207.9</ele>
        <time>2022-09-24T13:29:37Z</time>
      </trkpt>
      <trkpt lat="45.80201" lon="5.29176">
        <ele>208</ele>
        <time>2022-09-24T13:29:38Z</time>
      </trkpt>
      <trkpt lat="45.80205" lon="5.29169">
        <ele>208</ele>
        <time>2022-09-24T13:29:39Z</time>
      </trkpt>
      <trkpt lat="45.80209" lon="5.29162">
        <ele>208.1</ele>
        <time>2022-09-24T13:29:40Z</time>
      </trkpt>
      <trkpt lat="45.80213" lon="5.29155">
        <ele>208.2</ele>
        <time>2022-09-24T13:29:41Z</time>
      </trkpt>
      <trkpt lat="45.80218" lon="5.29147">
        <ele>208.2</ele>
        <time>2022-09-24T13:29:42Z</time>
      </trkpt>
      <trkpt lat="45.80222" lon="5.2914">
        <ele>208.3</ele>
        <time>2022-09-24T13:29:43Z</time>
      </trkpt>
      <trkpt lat="45.80226" lon="5.29134">
        <ele>208.3</ele>
        <time>2022-09-24T13:29:44Z</time>
      </trkpt>
      <trkpt lat="45.80231" lon="5.29128">
        <ele>208.3</ele>
        <time>2022-09-24T13:29:45Z</time>
      </trkpt>
      <trkpt lat="45.80236" lon="5.29123">
        <ele>208.4</ele>
        <time>2022-09-24T13:29:46Z</time>
      </trkpt>
      <trkpt lat="45.80242" lon="5.29118">
        <ele>208.4</ele>
        <time>2022-09-24T13:29:47Z</time>
      </trkpt>
      <trkpt lat="45.80247" lon="5.29114">
        <ele>208.4</ele>
        <time>2022-09-24T13:29:48Z</time>
      </trkpt>
      <trkpt lat="45.80252" lon="5.2911">
        <ele>208.5</ele>
        <time>2022-09-24T13:29:49Z</time>
      </trkpt>
      <trkpt lat="45.80257" lon="5.29108">
        <ele>208.5</ele>
        <time>2022-09-24T13:29:50Z</time>
      </trkpt>
      <trkpt lat="45.80261" lon="5.29107">
        <ele>208.5</ele>
        <time>2022-09-24T13:29:51Z</time>
      </trkpt>
      <trkpt lat="45.80267" lon="5.2911">
        <ele>208.4</ele>
        <time>2022-09-24T13:29:52Z</time>
      </trkpt>
      <trkpt lat="45.8027" lon="5.29113">
        <ele>208.3</ele>
        <time>2022-09-24T13:29:53Z</time>
      </trkpt>
      <trkpt lat="45.80273" lon="5.2912">
        <ele>208.1</ele>
        <time>2022-09-24T13:29:54Z</time>
      </trkpt>
      <trkpt lat="45.80275" lon="5.29125">
        <ele>208</ele>
        <time>2022-09-24T13:29:55Z</time>
      </trkpt>
      <trkpt lat="45.80278" lon="5.29128">
        <ele>207.9</ele>
        <time>2022-09-24T13:29:56Z</time>
      </trkpt>
      <trkpt lat="45.80282" lon="5.29134">
        <ele>207.8</ele>
        <time>2022-09-24T13:29:57Z</time>
      </trkpt>
      <trkpt lat="45.80286" lon="5.29139">
        <ele>207.6</ele>
        <time>2022-09-24T13:29:58Z</time>
      </trkpt>
      <trkpt lat="45.80288" lon="5.29144">
        <ele>207.6</ele>
        <time>2022-09-24T13:29:59Z</time>
      </trkpt>
      <trkpt lat="45.80291" lon="5.2915">
        <ele>207.5</ele>
        <time>2022-09-24T13:30:00Z</time>
      </trkpt>
      <trkpt lat="45.80295" lon="5.29156">
        <ele>207.4</ele>
        <time>2022-09-24T13:30:01Z</time>
      </trkpt>
      <trkpt lat="45.80298" lon="5.29161">
        <ele>207.4</ele>
        <time>2022-09-24T13:30:02Z</time>
      </trkpt>
      <trkpt lat="45.80303" lon="5.29166">
        <ele>207.3</ele>
        <time>2022-09-24T13:30:03Z</time>
      </trkpt>
      <trkpt lat="45.80307" lon="5.29172">
        <ele>207.3</ele>
        <time>2022-09-24T13:30:04Z</time>
      </trkpt>
      <trkpt lat="45.80311" lon="5.29179">
        <ele>207.3</ele>
        <time>2022-09-24T13:30:05Z</time>
      </trkpt>
      <trkpt lat="45.80314" lon="5.29185">
        <ele>207.4</ele>
        <time>2022-09-24T13:30:06Z</time>
      </trkpt>
      <trkpt lat="45.80318" lon="5.29191">
        <ele>207.4</ele>
        <time>2022-09-24T13:30:07Z</time>
      </trkpt>
      <trkpt lat="45.80322" lon="5.29198">
        <ele>207.5</ele>
        <time>2022-09-24T13:30:08Z</time>
      </trkpt>
      <trkpt lat="45.80324" lon="5.29204">
        <ele>207.5</ele>
        <time>2022-09-24T13:30:09Z</time>
      </trkpt>
      <trkpt lat="45.80329" lon="5.29211">
        <ele>207.6</ele>
        <time>2022-09-24T13:30:10Z</time>
      </trkpt>
      <trkpt lat="45.80331" lon="5.29217">
        <ele>207.7</ele>
        <time>2022-09-24T13:30:11Z</time>
      </trkpt>
      <trkpt lat="45.80333" lon="5.29221">
        <ele>207.8</ele>
        <time>2022-09-24T13:30:12Z</time>
      </trkpt>
      <trkpt lat="45.80337" lon="5.29227">
        <ele>207.9</ele>
        <time>2022-09-24T13:30:13Z</time>
      </trkpt>
      <trkpt lat="45.8034" lon="5.29234">
        <ele>208</ele>
        <time>2022-09-24T13:30:14Z</time>
      </trkpt>
      <trkpt lat="45.80342" lon="5.29239">
        <ele>208</ele>
        <time>2022-09-24T13:30:15Z</time>
      </trkpt>
      <trkpt lat="45.80345" lon="5.29246">
        <ele>208.1</ele>
        <time>2022-09-24T13:30:16Z</time>
      </trkpt>
      <trkpt lat="45.80347" lon="5.29252">
        <ele>208.2</ele>
        <time>2022-09-24T13:30:17Z</time>
      </trkpt>
      <trkpt lat="45.80349" lon="5.29258">
        <ele>208.2</ele>
        <time>2022-09-24T13:30:18Z</time>
      </trkpt>
      <trkpt lat="45.80351" lon="5.29265">
        <ele>208.3</ele>
        <time>2022-09-24T13:30:19Z</time>
      </trkpt>
      <trkpt lat="45.80353" lon="5.29271">
        <ele>208.4</ele>
        <time>2022-09-24T13:30:20Z</time>
      </trkpt>
      <trkpt lat="45.80355" lon="5.29277">
        <ele>208.5</ele>
        <time>2022-09-24T13:30:21Z</time>
      </trkpt>
      <trkpt lat="45.80357" lon="5.29283">
        <ele>208.6</ele>
        <time>2022-09-24T13:30:22Z</time>
      </trkpt>
      <trkpt lat="45.80359" lon="5.29289">
        <ele>208.6</ele>
        <time>2022-09-24T13:30:23Z</time>
      </trkpt>
      <trkpt lat="45.80361" lon="5.29296">
        <ele>208.7</ele>
        <time>2022-09-24T13:30:24Z</time>
      </trkpt>
      <trkpt lat="45.80362" lon="5.29303">
        <ele>208.8</ele>
        <time>2022-09-24T13:30:25Z</time>
      </trkpt>
      <trkpt lat="45.80363" lon="5.29309">
        <ele>208.9</ele>
        <time>2022-09-24T13:30:26Z</time>
      </trkpt>
      <trkpt lat="45.80364" lon="5.29316">
        <ele>209</ele>
        <time>2022-09-24T13:30:27Z</time>
      </trkpt>
      <trkpt lat="45.80366" lon="5.29322">
        <ele>209</ele>
        <time>2022-09-24T13:30:28Z</time>
      </trkpt>
      <trkpt lat="45.80368" lon="5.2933">
        <ele>209.1</ele>
        <time>2022-09-24T13:30:29Z</time>
      </trkpt>
      <trkpt lat="45.80369" lon="5.29336">
        <ele>209.2</ele>
        <time>2022-09-24T13:30:30Z</time>
      </trkpt>
      <trkpt lat="45.80371" lon="5.29343">
        <ele>209.3</ele>
        <time>2022-09-24T13:30:31Z</time>
      </trkpt>
      <trkpt lat="45.80373" lon="5.29349">
        <ele>209.3</ele>
        <time>2022-09-24T13:30:32Z</time>
      </trkpt>
      <trkpt lat="45.80375" lon="5.29355">
        <ele>209.3</ele>
        <time>2022-09-24T13:30:33Z</time>
      </trkpt>
      <trkpt lat="45.80376" lon="5.29361">
        <ele>209.4</ele>
        <time>2022-09-24T13:30:34Z</time>
      </trkpt>
      <trkpt lat="45.80377" lon="5.29368">
        <ele>209.4</ele>
        <time>2022-09-24T13:30:35Z</time>
      </trkpt>
      <trkpt lat="45.80378" lon="5.29375">
        <ele>209.4</ele>
        <time>2022-09-24T13:30:36Z</time>
      </trkpt>
      <trkpt lat="45.8038" lon="5.2938">
        <ele>209.4</ele>
        <time>2022-09-24T13:30:37Z</time>
      </trkpt>
      <trkpt lat="45.80382" lon="5.29386">
        <ele>209.4</ele>
        <time>2022-09-24T13:30:38Z</time>
      </trkpt>
      <trkpt lat="45.80384" lon="5.2939">
        <ele>209.4</ele>
        <time>2022-09-24T13:30:39Z</time>
      </trkpt>
      <trkpt lat="45.80385" lon="5.29396">
        <ele>209.5</ele>
        <time>2022-09-24T13:30:40Z</time>
      </trkpt>
      <trkpt lat="45.80386" lon="5.29402">
        <ele>209.5</ele>
        <time>2022-09-24T13:30:41Z</time>
      </trkpt>
      <trkpt lat="45.80387" lon="5.29406">
        <ele>209.5</ele>
        <time>2022-09-24T13:30:42Z</time>
      </trkpt>
      <trkpt lat="45.80389" lon="5.29412">
        <ele>209.5</ele>
        <time>2022-09-24T13:30:43Z</time>
      </trkpt>
      <trkpt lat="45.80389" lon="5.29417">
        <ele>209.6</ele>
        <time>2022-09-24T13:30:44Z</time>
      </trkpt>
      <trkpt lat="45.80391" lon="5.29422">
        <ele>209.6</ele>
        <time>2022-09-24T13:30:45Z</time>
      </trkpt>
      <trkpt lat="45.80392" lon="5.29427">
        <ele>209.7</ele>
        <time>2022-09-24T13:30:46Z</time>
      </trkpt>
      <trkpt lat="45.80393" lon="5.29433">
        <ele>209.7</ele>
        <time>2022-09-24T13:30:47Z</time>
      </trkpt>
      <trkpt lat="45.80394" lon="5.29435">
        <ele>209.7</ele>
        <time>2022-09-24T13:30:48Z</time>
      </trkpt>
      <trkpt lat="45.80396" lon="5.29439">
        <ele>209.8</ele>
        <time>2022-09-24T13:30:49Z</time>
      </trkpt>
      <trkpt lat="45.80396" lon="5.29444">
        <ele>209.9</ele>
        <time>2022-09-24T13:30:50Z</time>
      </trkpt>
      <trkpt lat="45.80397" lon="5.29448">
        <ele>210</ele>
        <time>2022-09-24T13:30:51Z</time>
      </trkpt>
      <trkpt lat="45.80399" lon="5.29453">
        <ele>210</ele>
        <time>2022-09-24T13:30:52Z</time>
      </trkpt>
      <trkpt lat="45.80399" lon="5.29458">
        <ele>210.1</ele>
        <time>2022-09-24T13:30:53Z</time>
      </trkpt>
      <trkpt lat="45.804" lon="5.29462">
        <ele>210.2</ele>
        <time>2022-09-24T13:30:54Z</time>
      </trkpt>
      <trkpt lat="45.80402" lon="5.29467">
        <ele>210.3</ele>
        <time>2022-09-24T13:30:55Z</time>
      </trkpt>
      <trkpt lat="45.80403" lon="5.29471">
        <ele>210.4</ele>
        <time>2022-09-24T13:30:56Z</time>
      </trkpt>
      <trkpt lat="45.80403" lon="5.29477">
        <ele>210.4</ele>
        <time>2022-09-24T13:30:57Z</time>
      </trkpt>
      <trkpt lat="45.80403" lon="5.29482">
        <ele>210.5</ele>
        <time>2022-09-24T13:30:58Z</time>
      </trkpt>
      <trkpt lat="45.80404" lon="5.29487">
        <ele>210.6</ele>
        <time>2022-09-24T13:30:59Z</time>
      </trkpt>
      <trkpt lat="45.80405" lon="5.29493">
        <ele>210.7</ele>
        <time>2022-09-24T13:31:00Z</time>
      </trkpt>
      <trkpt lat="45.80405" lon="5.29499">
        <ele>210.7</ele>
        <time>2022-09-24T13:31:01Z</time>
      </trkpt>
      <trkpt lat="45.80406" lon="5.29504">
        <ele>210.8</ele>
        <time>2022-09-24T13:31:02Z</time>
      </trkpt>
      <trkpt lat="45.80406" lon="5.2951">
        <ele>210.8</ele>
        <time>2022-09-24T13:31:03Z</time>
      </trkpt>
      <trkpt lat="45.80407" lon="5.29515">
        <ele>210.9</ele>
        <time>2022-09-24T13:31:04Z</time>
      </trkpt>
      <trkpt lat="45.80407" lon="5.29521">
        <ele>210.9</ele>
        <time>2022-09-24T13:31:05Z</time>
      </trkpt>
      <trkpt lat="45.80407" lon="5.29526">
        <ele>210.9</ele>
        <time>2022-09-24T13:31:06Z</time>
      </trkpt>
      <trkpt lat="45.80409" lon="5.29531">
        <ele>210.9</ele>
        <time>2022-09-24T13:31:07Z</time>
      </trkpt>
      <trkpt lat="45.80411" lon="5.29536">
        <ele>210.8</ele>
        <time>2022-09-24T13:31:08Z</time>
      </trkpt>
      <trkpt lat="45.80413" lon="5.29541">
        <ele>210.8</ele>
        <time>2022-09-24T13:31:09Z</time>
      </trkpt>
      <trkpt lat="45.80415" lon="5.29547">
        <ele>210.8</ele>
        <time>2022-09-24T13:31:10Z</time>
      </trkpt>
      <trkpt lat="45.80417" lon="5.29553">
        <ele>210.7</ele>
        <time>2022-09-24T13:31:11Z</time>
      </trkpt>
      <trkpt lat="45.80419" lon="5.29559">
        <ele>210.7</ele>
        <time>2022-09-24T13:31:12Z</time>
      </trkpt>
      <trkpt lat="45.80419" lon="5.29566">
        <ele>210.7</ele>
        <time>2022-09-24T13:31:13Z</time>
      </trkpt>
      <trkpt lat="45.8042" lon="5.29572">
        <ele>210.7</ele>
        <time>2022-09-24T13:31:14Z</time>
      </trkpt>
      <trkpt lat="45.80421" lon="5.29579">
        <ele>210.8</ele>
        <time>2022-09-24T13:31:15Z</time>
      </trkpt>
      <trkpt lat="45.80422" lon="5.29585">
        <ele>210.8</ele>
        <time>2022-09-24T13:31:16Z</time>
      </trkpt>
      <trkpt lat="45.80425" lon="5.29591">
        <ele>210.9</ele>
        <time>2022-09-24T13:31:17Z</time>
      </trkpt>
      <trkpt lat="45.80428" lon="5.29596">
        <ele>210.9</ele>
        <time>2022-09-24T13:31:18Z</time>
      </trkpt>
      <trkpt lat="45.80432" lon="5.29599">
        <ele>211</ele>
        <time>2022-09-24T13:31:19Z</time>
      </trkpt>
      <trkpt lat="45.80434" lon="5.29604">
        <ele>211</ele>
        <time>2022-09-24T13:31:20Z</time>
      </trkpt>
      <trkpt lat="45.80437" lon="5.29608">
        <ele>211.1</ele>
        <time>2022-09-24T13:31:21Z</time>
      </trkpt>
      <trkpt lat="45.8044" lon="5.29612">
        <ele>211.2</ele>
        <time>2022-09-24T13:31:22Z</time>
      </trkpt>
      <trkpt lat="45.80443" lon="5.29616">
        <ele>211.3</ele>
        <time>2022-09-24T13:31:23Z</time>
      </trkpt>
      <trkpt lat="45.80445" lon="5.29621">
        <ele>211.4</ele>
        <time>2022-09-24T13:31:24Z</time>
      </trkpt>
      <trkpt lat="45.80448" lon="5.29625">
        <ele>211.6</ele>
        <time>2022-09-24T13:31:25Z</time>
      </trkpt>
      <trkpt lat="45.80451" lon="5.29629">
        <ele>211.7</ele>
        <time>2022-09-24T13:31:26Z</time>
      </trkpt>
      <trkpt lat="45.80453" lon="5.29633">
        <ele>211.9</ele>
        <time>2022-09-24T13:31:27Z</time>
      </trkpt>
      <trkpt lat="45.80456" lon="5.29637">
        <ele>212.1</ele>
        <time>2022-09-24T13:31:28Z</time>
      </trkpt>
      <trkpt lat="45.80459" lon="5.29641">
        <ele>212.2</ele>
        <time>2022-09-24T13:31:29Z</time>
      </trkpt>
      <trkpt lat="45.80461" lon="5.29645">
        <ele>212.4</ele>
        <time>2022-09-24T13:31:30Z</time>
      </trkpt>
      <trkpt lat="45.80464" lon="5.29649">
        <ele>212.6</ele>
        <time>2022-09-24T13:31:31Z</time>
      </trkpt>
      <trkpt lat="45.80466" lon="5.29653">
        <ele>212.8</ele>
        <time>2022-09-24T13:31:32Z</time>
      </trkpt>
      <trkpt lat="45.80469" lon="5.29656">
        <ele>213</ele>
        <time>2022-09-24T13:31:33Z</time>
      </trkpt>
      <trkpt lat="45.80471" lon="5.2966">
        <ele>213.1</ele>
        <time>2022-09-24T13:31:34Z</time>
      </trkpt>
      <trkpt lat="45.80473" lon="5.29663">
        <ele>213.3</ele>
        <time>2022-09-24T13:31:35Z</time>
      </trkpt>
      <trkpt lat="45.80476" lon="5.29666">
        <ele>213.4</ele>
        <time>2022-09-24T13:31:36Z</time>
      </trkpt>
      <trkpt lat="45.80477" lon="5.2967">
        <ele>213.6</ele>
        <time>2022-09-24T13:31:37Z</time>
      </trkpt>
      <trkpt lat="45.80479" lon="5.29674">
        <ele>213.7</ele>
        <time>2022-09-24T13:31:38Z</time>
      </trkpt>
      <trkpt lat="45.80479" lon="5.29678">
        <ele>213.8</ele>
        <time>2022-09-24T13:31:39Z</time>
      </trkpt>
      <trkpt lat="45.80479" lon="5.29683">
        <ele>213.8</ele>
        <time>2022-09-24T13:31:40Z</time>
      </trkpt>
      <trkpt lat="45.80479" lon="5.29687">
        <ele>213.9</ele>
        <time>2022-09-24T13:31:41Z</time>
      </trkpt>
      <trkpt lat="45.80477" lon="5.29692">
        <ele>213.9</ele>
        <time>2022-09-24T13:31:42Z</time>
      </trkpt>
      <trkpt lat="45.80475" lon="5.29696">
        <ele>214</ele>
        <time>2022-09-24T13:31:43Z</time>
      </trkpt>
      <trkpt lat="45.80473" lon="5.29701">
        <ele>214</ele>
        <time>2022-09-24T13:31:44Z</time>
      </trkpt>
      <trkpt lat="45.80472" lon="5.29706">
        <ele>214</ele>
        <time>2022-09-24T13:31:45Z</time>
      </trkpt>
      <trkpt lat="45.8047" lon="5.29711">
        <ele>214</ele>
        <time>2022-09-24T13:31:46Z</time>
      </trkpt>
      <trkpt lat="45.80469" lon="5.29717">
        <ele>214.1</ele>
        <time>2022-09-24T13:31:47Z</time>
      </trkpt>
      <trkpt lat="45.80468" lon="5.29723">
        <ele>214.1</ele>
        <time>2022-09-24T13:31:48Z</time>
      </trkpt>
      <trkpt lat="45.80468" lon="5.29729">
        <ele>214.1</ele>
        <time>2022-09-24T13:31:49Z</time>
      </trkpt>
      <trkpt lat="45.80467" lon="5.29735">
        <ele>214.1</ele>
        <time>2022-09-24T13:31:50Z</time>
      </trkpt>
      <trkpt lat="45.80465" lon="5.2974">
        <ele>214.1</ele>
        <time>2022-09-24T13:31:51Z</time>
      </trkpt>
      <trkpt lat="45.80465" lon="5.29746">
        <ele>214.1</ele>
        <time>2022-09-24T13:31:52Z</time>
      </trkpt>
      <trkpt lat="45.80464" lon="5.29752">
        <ele>214.1</ele>
        <time>2022-09-24T13:31:53Z</time>
      </trkpt>
      <trkpt lat="45.80463" lon="5.29758">
        <ele>214.1</ele>
        <time>2022-09-24T13:31:54Z</time>
      </trkpt>
      <trkpt lat="45.80463" lon="5.29763">
        <ele>214.1</ele>
        <time>2022-09-24T13:31:55Z</time>
      </trkpt>
      <trkpt lat="45.80461" lon="5.29769">
        <ele>214.1</ele>
        <time>2022-09-24T13:31:56Z</time>
      </trkpt>
      <trkpt lat="45.8046" lon="5.29774">
        <ele>214.1</ele>
        <time>2022-09-24T13:31:57Z</time>
      </trkpt>
      <trkpt lat="45.80459" lon="5.2978">
        <ele>214.1</ele>
        <time>2022-09-24T13:31:58Z</time>
      </trkpt>
      <trkpt lat="45.80459" lon="5.29786">
        <ele>214.1</ele>
        <time>2022-09-24T13:31:59Z</time>
      </trkpt>
      <trkpt lat="45.80458" lon="5.29791">
        <ele>214.1</ele>
        <time>2022-09-24T13:32:00Z</time>
      </trkpt>
      <trkpt lat="45.80457" lon="5.29797">
        <ele>214.1</ele>
        <time>2022-09-24T13:32:01Z</time>
      </trkpt>
      <trkpt lat="45.80456" lon="5.29803">
        <ele>214.1</ele>
        <time>2022-09-24T13:32:02Z</time>
      </trkpt>
      <trkpt lat="45.80455" lon="5.29809">
        <ele>214.1</ele>
        <time>2022-09-24T13:32:03Z</time>
      </trkpt>
      <trkpt lat="45.80454" lon="5.29815">
        <ele>214.1</ele>
        <time>2022-09-24T13:32:04Z</time>
      </trkpt>
      <trkpt lat="45.80453" lon="5.29821">
        <ele>214.1</ele>
        <time>2022-09-24T13:32:05Z</time>
      </trkpt>
      <trkpt lat="45.80452" lon="5.29825">
        <ele>214.2</ele>
        <time>2022-09-24T13:32:06Z</time>
      </trkpt>
      <trkpt lat="45.80451" lon="5.29833">
        <ele>214.2</ele>
        <time>2022-09-24T13:32:07Z</time>
      </trkpt>
      <trkpt lat="45.8045" lon="5.29839">
        <ele>214.2</ele>
        <time>2022-09-24T13:32:08Z</time>
      </trkpt>
      <trkpt lat="45.80449" lon="5.29845">
        <ele>214.2</ele>
        <time>2022-09-24T13:32:09Z</time>
      </trkpt>
      <trkpt lat="45.80448" lon="5.29851">
        <ele>214.3</ele>
        <time>2022-09-24T13:32:10Z</time>
      </trkpt>
      <trkpt lat="45.80447" lon="5.29856">
        <ele>214.3</ele>
        <time>2022-09-24T13:32:11Z</time>
      </trkpt>
      <trkpt lat="45.80446" lon="5.29862">
        <ele>214.3</ele>
        <time>2022-09-24T13:32:12Z</time>
      </trkpt>
      <trkpt lat="45.80445" lon="5.29868">
        <ele>214.4</ele>
        <time>2022-09-24T13:32:13Z</time>
      </trkpt>
      <trkpt lat="45.80445" lon="5.29873">
        <ele>214.4</ele>
        <time>2022-09-24T13:32:14Z</time>
      </trkpt>
      <trkpt lat="45.80443" lon="5.29878">
        <ele>214.4</ele>
        <time>2022-09-24T13:32:15Z</time>
      </trkpt>
      <trkpt lat="45.80443" lon="5.29883">
        <ele>214.4</ele>
        <time>2022-09-24T13:32:16Z</time>
      </trkpt>
      <trkpt lat="45.80441" lon="5.29889">
        <ele>214.4</ele>
        <time>2022-09-24T13:32:17Z</time>
      </trkpt>
      <trkpt lat="45.8044" lon="5.29895">
        <ele>214.4</ele>
        <time>2022-09-24T13:32:18Z</time>
      </trkpt>
      <trkpt lat="45.80439" lon="5.299">
        <ele>214.4</ele>
        <time>2022-09-24T13:32:19Z</time>
      </trkpt>
      <trkpt lat="45.80438" lon="5.29906">
        <ele>214.4</ele>
        <time>2022-09-24T13:32:20Z</time>
      </trkpt>
      <trkpt lat="45.80438" lon="5.29911">
        <ele>214.4</ele>
        <time>2022-09-24T13:32:21Z</time>
      </trkpt>
      <trkpt lat="45.80436" lon="5.29917">
        <ele>214.4</ele>
        <time>2022-09-24T13:32:22Z</time>
      </trkpt>
      <trkpt lat="45.80435" lon="5.29923">
        <ele>214.5</ele>
        <time>2022-09-24T13:32:23Z</time>
      </trkpt>
      <trkpt lat="45.80434" lon="5.29929">
        <ele>214.5</ele>
        <time>2022-09-24T13:32:24Z</time>
      </trkpt>
      <trkpt lat="45.80433" lon="5.29934">
        <ele>214.5</ele>
        <time>2022-09-24T13:32:25Z</time>
      </trkpt>
      <trkpt lat="45.80432" lon="5.29939">
        <ele>214.5</ele>
        <time>2022-09-24T13:32:26Z</time>
      </trkpt>
      <trkpt lat="45.80431" lon="5.29945">
        <ele>214.5</ele>
        <time>2022-09-24T13:32:27Z</time>
      </trkpt>
      <trkpt lat="45.8043" lon="5.2995">
        <ele>214.5</ele>
        <time>2022-09-24T13:32:28Z</time>
      </trkpt>
      <trkpt lat="45.8043" lon="5.29956">
        <ele>214.6</ele>
        <time>2022-09-24T13:32:29Z</time>
      </trkpt>
      <trkpt lat="45.80428" lon="5.29961">
        <ele>214.6</ele>
        <time>2022-09-24T13:32:30Z</time>
      </trkpt>
      <trkpt lat="45.80426" lon="5.29967">
        <ele>214.6</ele>
        <time>2022-09-24T13:32:31Z</time>
      </trkpt>
      <trkpt lat="45.80425" lon="5.29972">
        <ele>214.6</ele>
        <time>2022-09-24T13:32:32Z</time>
      </trkpt>
      <trkpt lat="45.80424" lon="5.29977">
        <ele>214.7</ele>
        <time>2022-09-24T13:32:33Z</time>
      </trkpt>
      <trkpt lat="45.80423" lon="5.29982">
        <ele>214.7</ele>
        <time>2022-09-24T13:32:34Z</time>
      </trkpt>
      <trkpt lat="45.80421" lon="5.29988">
        <ele>214.7</ele>
        <time>2022-09-24T13:32:35Z</time>
      </trkpt>
      <trkpt lat="45.8042" lon="5.29993">
        <ele>214.7</ele>
        <time>2022-09-24T13:32:36Z</time>
      </trkpt>
      <trkpt lat="45.80418" lon="5.29999">
        <ele>214.8</ele>
        <time>2022-09-24T13:32:37Z</time>
      </trkpt>
      <trkpt lat="45.80417" lon="5.30004">
        <ele>214.8</ele>
        <time>2022-09-24T13:32:38Z</time>
      </trkpt>
      <trkpt lat="45.80416" lon="5.30009">
        <ele>214.8</ele>
        <time>2022-09-24T13:32:39Z</time>
      </trkpt>
      <trkpt lat="45.80414" lon="5.30015">
        <ele>214.9</ele>
        <time>2022-09-24T13:32:40Z</time>
      </trkpt>
      <trkpt lat="45.80412" lon="5.3002">
        <ele>214.9</ele>
        <time>2022-09-24T13:32:41Z</time>
      </trkpt>
      <trkpt lat="45.8041" lon="5.30025">
        <ele>214.9</ele>
        <time>2022-09-24T13:32:42Z</time>
      </trkpt>
      <trkpt lat="45.80409" lon="5.30031">
        <ele>215</ele>
        <time>2022-09-24T13:32:43Z</time>
      </trkpt>
      <trkpt lat="45.80407" lon="5.30036">
        <ele>215</ele>
        <time>2022-09-24T13:32:44Z</time>
      </trkpt>
      <trkpt lat="45.80406" lon="5.30042">
        <ele>215</ele>
        <time>2022-09-24T13:32:45Z</time>
      </trkpt>
      <trkpt lat="45.80404" lon="5.30047">
        <ele>215.1</ele>
        <time>2022-09-24T13:32:46Z</time>
      </trkpt>
      <trkpt lat="45.80402" lon="5.30052">
        <ele>215.1</ele>
        <time>2022-09-24T13:32:47Z</time>
      </trkpt>
      <trkpt lat="45.80401" lon="5.30057">
        <ele>215.1</ele>
        <time>2022-09-24T13:32:48Z</time>
      </trkpt>
      <trkpt lat="45.80399" lon="5.30063">
        <ele>215.1</ele>
        <time>2022-09-24T13:32:49Z</time>
      </trkpt>
      <trkpt lat="45.80398" lon="5.30069">
        <ele>215.2</ele>
        <time>2022-09-24T13:32:50Z</time>
      </trkpt>
      <trkpt lat="45.80396" lon="5.30074">
        <ele>215.2</ele>
        <time>2022-09-24T13:32:51Z</time>
      </trkpt>
      <trkpt lat="45.80394" lon="5.30078">
        <ele>215.3</ele>
        <time>2022-09-24T13:32:52Z</time>
      </trkpt>
      <trkpt lat="45.80393" lon="5.30083">
        <ele>215.3</ele>
        <time>2022-09-24T13:32:53Z</time>
      </trkpt>
      <trkpt lat="45.80391" lon="5.30088">
        <ele>215.4</ele>
        <time>2022-09-24T13:32:54Z</time>
      </trkpt>
      <trkpt lat="45.80389" lon="5.30093">
        <ele>215.5</ele>
        <time>2022-09-24T13:32:55Z</time>
      </trkpt>
      <trkpt lat="45.80388" lon="5.30097">
        <ele>215.5</ele>
        <time>2022-09-24T13:32:56Z</time>
      </trkpt>
      <trkpt lat="45.80387" lon="5.30101">
        <ele>215.6</ele>
        <time>2022-09-24T13:32:57Z</time>
      </trkpt>
      <trkpt lat="45.80386" lon="5.30105">
        <ele>215.6</ele>
        <time>2022-09-24T13:32:58Z</time>
      </trkpt>
      <trkpt lat="45.80385" lon="5.30109">
        <ele>215.7</ele>
        <time>2022-09-24T13:32:59Z</time>
      </trkpt>
      <trkpt lat="45.80383" lon="5.30114">
        <ele>215.7</ele>
        <time>2022-09-24T13:33:00Z</time>
      </trkpt>
      <trkpt lat="45.80382" lon="5.30116">
        <ele>215.7</ele>
        <time>2022-09-24T13:33:01Z</time>
      </trkpt>
      <trkpt lat="45.80381" lon="5.3012">
        <ele>215.8</ele>
        <time>2022-09-24T13:33:02Z</time>
      </trkpt>
      <trkpt lat="45.80382" lon="5.30126">
        <ele>215.9</ele>
        <time>2022-09-24T13:33:03Z</time>
      </trkpt>
      <trkpt lat="45.80382" lon="5.30128">
        <ele>215.9</ele>
        <time>2022-09-24T13:33:04Z</time>
      </trkpt>
      <trkpt lat="45.80386" lon="5.30131">
        <ele>215.9</ele>
        <time>2022-09-24T13:33:05Z</time>
      </trkpt>
      <trkpt lat="45.8039" lon="5.30133">
        <ele>215.9</ele>
        <time>2022-09-24T13:33:06Z</time>
      </trkpt>
      <trkpt lat="45.80393" lon="5.30133">
        <ele>215.9</ele>
        <time>2022-09-24T13:33:07Z</time>
      </trkpt>
      <trkpt lat="45.80397" lon="5.30134">
        <ele>216</ele>
        <time>2022-09-24T13:33:08Z</time>
      </trkpt>
      <trkpt lat="45.80402" lon="5.30135">
        <ele>216</ele>
        <time>2022-09-24T13:33:09Z</time>
      </trkpt>
      <trkpt lat="45.80406" lon="5.30135">
        <ele>216</ele>
        <time>2022-09-24T13:33:10Z</time>
      </trkpt>
      <trkpt lat="45.8041" lon="5.30135">
        <ele>216</ele>
        <time>2022-09-24T13:33:11Z</time>
      </trkpt>
      <trkpt lat="45.80414" lon="5.30136">
        <ele>216</ele>
        <time>2022-09-24T13:33:12Z</time>
      </trkpt>
      <trkpt lat="45.80419" lon="5.30137">
        <ele>216</ele>
        <time>2022-09-24T13:33:13Z</time>
      </trkpt>
      <trkpt lat="45.80423" lon="5.30138">
        <ele>216</ele>
        <time>2022-09-24T13:33:14Z</time>
      </trkpt>
      <trkpt lat="45.80427" lon="5.30139">
        <ele>216</ele>
        <time>2022-09-24T13:33:15Z</time>
      </trkpt>
      <trkpt lat="45.80432" lon="5.3014">
        <ele>216</ele>
        <time>2022-09-24T13:33:16Z</time>
      </trkpt>
      <trkpt lat="45.80436" lon="5.30141">
        <ele>216</ele>
        <time>2022-09-24T13:33:17Z</time>
      </trkpt>
      <trkpt lat="45.8044" lon="5.30142">
        <ele>216</ele>
        <time>2022-09-24T13:33:18Z</time>
      </trkpt>
      <trkpt lat="45.80444" lon="5.30144">
        <ele>215.9</ele>
        <time>2022-09-24T13:33:19Z</time>
      </trkpt>
      <trkpt lat="45.80449" lon="5.30145">
        <ele>215.9</ele>
        <time>2022-09-24T13:33:20Z</time>
      </trkpt>
      <trkpt lat="45.80453" lon="5.30146">
        <ele>215.9</ele>
        <time>2022-09-24T13:33:21Z</time>
      </trkpt>
      <trkpt lat="45.80457" lon="5.30147">
        <ele>215.9</ele>
        <time>2022-09-24T13:33:22Z</time>
      </trkpt>
      <trkpt lat="45.80461" lon="5.30148">
        <ele>215.9</ele>
        <time>2022-09-24T13:33:23Z</time>
      </trkpt>
      <trkpt lat="45.80466" lon="5.30149">
        <ele>215.8</ele>
        <time>2022-09-24T13:33:24Z</time>
      </trkpt>
      <trkpt lat="45.8047" lon="5.30151">
        <ele>215.8</ele>
        <time>2022-09-24T13:33:25Z</time>
      </trkpt>
      <trkpt lat="45.80474" lon="5.30152">
        <ele>215.8</ele>
        <time>2022-09-24T13:33:26Z</time>
      </trkpt>
      <trkpt lat="45.80478" lon="5.30153">
        <ele>215.7</ele>
        <time>2022-09-24T13:33:27Z</time>
      </trkpt>
      <trkpt lat="45.80482" lon="5.30154">
        <ele>215.7</ele>
        <time>2022-09-24T13:33:28Z</time>
      </trkpt>
      <trkpt lat="45.80486" lon="5.30156">
        <ele>215.6</ele>
        <time>2022-09-24T13:33:29Z</time>
      </trkpt>
      <trkpt lat="45.8049" lon="5.30157">
        <ele>215.6</ele>
        <time>2022-09-24T13:33:30Z</time>
      </trkpt>
      <trkpt lat="45.80494" lon="5.30159">
        <ele>215.6</ele>
        <time>2022-09-24T13:33:31Z</time>
      </trkpt>
      <trkpt lat="45.80498" lon="5.30161">
        <ele>215.5</ele>
        <time>2022-09-24T13:33:32Z</time>
      </trkpt>
      <trkpt lat="45.80501" lon="5.30163">
        <ele>215.5</ele>
        <time>2022-09-24T13:33:33Z</time>
      </trkpt>
      <trkpt lat="45.80505" lon="5.30165">
        <ele>215.5</ele>
        <time>2022-09-24T13:33:34Z</time>
      </trkpt>
      <trkpt lat="45.8051" lon="5.30167">
        <ele>215.5</ele>
        <time>2022-09-24T13:33:35Z</time>
      </trkpt>
      <trkpt lat="45.80514" lon="5.30168">
        <ele>215.4</ele>
        <time>2022-09-24T13:33:36Z</time>
      </trkpt>
      <trkpt lat="45.80519" lon="5.3017">
        <ele>215.4</ele>
        <time>2022-09-24T13:33:37Z</time>
      </trkpt>
      <trkpt lat="45.80523" lon="5.30171">
        <ele>215.4</ele>
        <time>2022-09-24T13:33:38Z</time>
      </trkpt>
      <trkpt lat="45.80528" lon="5.30173">
        <ele>215.3</ele>
        <time>2022-09-24T13:33:39Z</time>
      </trkpt>
      <trkpt lat="45.80531" lon="5.30173">
        <ele>215.3</ele>
        <time>2022-09-24T13:33:40Z</time>
      </trkpt>
      <trkpt lat="45.80536" lon="5.30174">
        <ele>215.3</ele>
        <time>2022-09-24T13:33:41Z</time>
      </trkpt>
      <trkpt lat="45.80541" lon="5.30176">
        <ele>215.3</ele>
        <time>2022-09-24T13:33:42Z</time>
      </trkpt>
      <trkpt lat="45.80546" lon="5.30178">
        <ele>215.2</ele>
        <time>2022-09-24T13:33:43Z</time>
      </trkpt>
      <trkpt lat="45.8055" lon="5.30179">
        <ele>215.2</ele>
        <time>2022-09-24T13:33:44Z</time>
      </trkpt>
      <trkpt lat="45.80555" lon="5.30181">
        <ele>215.2</ele>
        <time>2022-09-24T13:33:45Z</time>
      </trkpt>
      <trkpt lat="45.80561" lon="5.30182">
        <ele>215.2</ele>
        <time>2022-09-24T13:33:46Z</time>
      </trkpt>
      <trkpt lat="45.80566" lon="5.30184">
        <ele>215.2</ele>
        <time>2022-09-24T13:33:47Z</time>
      </trkpt>
      <trkpt lat="45.80571" lon="5.30185">
        <ele>215.2</ele>
        <time>2022-09-24T13:33:48Z</time>
      </trkpt>
      <trkpt lat="45.80576" lon="5.30186">
        <ele>215.1</ele>
        <time>2022-09-24T13:33:49Z</time>
      </trkpt>
      <trkpt lat="45.8058" lon="5.30188">
        <ele>215.1</ele>
        <time>2022-09-24T13:33:50Z</time>
      </trkpt>
      <trkpt lat="45.80584" lon="5.30189">
        <ele>215.1</ele>
        <time>2022-09-24T13:33:51Z</time>
      </trkpt>
      <trkpt lat="45.8059" lon="5.30191">
        <ele>215.1</ele>
        <time>2022-09-24T13:33:52Z</time>
      </trkpt>
      <trkpt lat="45.80595" lon="5.30193">
        <ele>215.1</ele>
        <time>2022-09-24T13:33:53Z</time>
      </trkpt>
      <trkpt lat="45.80601" lon="5.30194">
        <ele>215.1</ele>
        <time>2022-09-24T13:33:54Z</time>
      </trkpt>
      <trkpt lat="45.80604" lon="5.30196">
        <ele>215.1</ele>
        <time>2022-09-24T13:33:55Z</time>
      </trkpt>
      <trkpt lat="45.80608" lon="5.30198">
        <ele>215.1</ele>
        <time>2022-09-24T13:33:56Z</time>
      </trkpt>
      <trkpt lat="45.80614" lon="5.30199">
        <ele>215.1</ele>
        <time>2022-09-24T13:33:57Z</time>
      </trkpt>
      <trkpt lat="45.80619" lon="5.30201">
        <ele>215.1</ele>
        <time>2022-09-24T13:33:58Z</time>
      </trkpt>
      <trkpt lat="45.80624" lon="5.30203">
        <ele>215.1</ele>
        <time>2022-09-24T13:33:59Z</time>
      </trkpt>
      <trkpt lat="45.8063" lon="5.30205">
        <ele>215.1</ele>
        <time>2022-09-24T13:34:00Z</time>
      </trkpt>
      <trkpt lat="45.80634" lon="5.30206">
        <ele>215.1</ele>
        <time>2022-09-24T13:34:01Z</time>
      </trkpt>
      <trkpt lat="45.80638" lon="5.30207">
        <ele>215.1</ele>
        <time>2022-09-24T13:34:02Z</time>
      </trkpt>
      <trkpt lat="45.80644" lon="5.30209">
        <ele>215.1</ele>
        <time>2022-09-24T13:34:03Z</time>
      </trkpt>
      <trkpt lat="45.80648" lon="5.3021">
        <ele>215.1</ele>
        <time>2022-09-24T13:34:04Z</time>
      </trkpt>
      <trkpt lat="45.80653" lon="5.30212">
        <ele>215.1</ele>
        <time>2022-09-24T13:34:05Z</time>
      </trkpt>
      <trkpt lat="45.80658" lon="5.30214">
        <ele>215.1</ele>
        <time>2022-09-24T13:34:06Z</time>
      </trkpt>
      <trkpt lat="45.80664" lon="5.30216">
        <ele>215.1</ele>
        <time>2022-09-24T13:34:07Z</time>
      </trkpt>
      <trkpt lat="45.80669" lon="5.30218">
        <ele>215.1</ele>
        <time>2022-09-24T13:34:08Z</time>
      </trkpt>
      <trkpt lat="45.80674" lon="5.3022">
        <ele>215.1</ele>
        <time>2022-09-24T13:34:09Z</time>
      </trkpt>
      <trkpt lat="45.80679" lon="5.30221">
        <ele>215.1</ele>
        <time>2022-09-24T13:34:10Z</time>
      </trkpt>
      <trkpt lat="45.80683" lon="5.30222">
        <ele>215.2</ele>
        <time>2022-09-24T13:34:11Z</time>
      </trkpt>
      <trkpt lat="45.80688" lon="5.30224">
        <ele>215.2</ele>
        <time>2022-09-24T13:34:12Z</time>
      </trkpt>
      <trkpt lat="45.80693" lon="5.30225">
        <ele>215.2</ele>
        <time>2022-09-24T13:34:13Z</time>
      </trkpt>
      <trkpt lat="45.80697" lon="5.30227">
        <ele>215.2</ele>
        <time>2022-09-24T13:34:14Z</time>
      </trkpt>
      <trkpt lat="45.80702" lon="5.30228">
        <ele>215.2</ele>
        <time>2022-09-24T13:34:15Z</time>
      </trkpt>
      <trkpt lat="45.80708" lon="5.3023">
        <ele>215.2</ele>
        <time>2022-09-24T13:34:16Z</time>
      </trkpt>
      <trkpt lat="45.80713" lon="5.30232">
        <ele>215.2</ele>
        <time>2022-09-24T13:34:17Z</time>
      </trkpt>
      <trkpt lat="45.80717" lon="5.30233">
        <ele>215.2</ele>
        <time>2022-09-24T13:34:18Z</time>
      </trkpt>
      <trkpt lat="45.80723" lon="5.30234">
        <ele>215.2</ele>
        <time>2022-09-24T13:34:19Z</time>
      </trkpt>
      <trkpt lat="45.80728" lon="5.30235">
        <ele>215.2</ele>
        <time>2022-09-24T13:34:20Z</time>
      </trkpt>
      <trkpt lat="45.80734" lon="5.30237">
        <ele>215.2</ele>
        <time>2022-09-24T13:34:21Z</time>
      </trkpt>
      <trkpt lat="45.80739" lon="5.30239">
        <ele>215.3</ele>
        <time>2022-09-24T13:34:22Z</time>
      </trkpt>
      <trkpt lat="45.80744" lon="5.3024">
        <ele>215.3</ele>
        <time>2022-09-24T13:34:23Z</time>
      </trkpt>
      <trkpt lat="45.80749" lon="5.30242">
        <ele>215.3</ele>
        <time>2022-09-24T13:34:24Z</time>
      </trkpt>
      <trkpt lat="45.80754" lon="5.30244">
        <ele>215.2</ele>
        <time>2022-09-24T13:34:25Z</time>
      </trkpt>
      <trkpt lat="45.8076" lon="5.30246">
        <ele>215.2</ele>
        <time>2022-09-24T13:34:26Z</time>
      </trkpt>
      <trkpt lat="45.80765" lon="5.30247">
        <ele>215.2</ele>
        <time>2022-09-24T13:34:27Z</time>
      </trkpt>
      <trkpt lat="45.8077" lon="5.30249">
        <ele>215.2</ele>
        <time>2022-09-24T13:34:28Z</time>
      </trkpt>
      <trkpt lat="45.80776" lon="5.3025">
        <ele>215.2</ele>
        <time>2022-09-24T13:34:29Z</time>
      </trkpt>
      <trkpt lat="45.80782" lon="5.30251">
        <ele>215.2</ele>
        <time>2022-09-24T13:34:30Z</time>
      </trkpt>
      <trkpt lat="45.80787" lon="5.30253">
        <ele>215.2</ele>
        <time>2022-09-24T13:34:31Z</time>
      </trkpt>
      <trkpt lat="45.80793" lon="5.30254">
        <ele>215.2</ele>
        <time>2022-09-24T13:34:32Z</time>
      </trkpt>
      <trkpt lat="45.80797" lon="5.30255">
        <ele>215.1</ele>
        <time>2022-09-24T13:34:33Z</time>
      </trkpt>
      <trkpt lat="45.80802" lon="5.30256">
        <ele>215.1</ele>
        <time>2022-09-24T13:34:34Z</time>
      </trkpt>
      <trkpt lat="45.80807" lon="5.30258">
        <ele>215.1</ele>
        <time>2022-09-24T13:34:35Z</time>
      </trkpt>
      <trkpt lat="45.80811" lon="5.30261">
        <ele>215.1</ele>
        <time>2022-09-24T13:34:36Z</time>
      </trkpt>
      <trkpt lat="45.80816" lon="5.30261">
        <ele>215.1</ele>
        <time>2022-09-24T13:34:37Z</time>
      </trkpt>
      <trkpt lat="45.80821" lon="5.30261">
        <ele>215.1</ele>
        <time>2022-09-24T13:34:38Z</time>
      </trkpt>
      <trkpt lat="45.80826" lon="5.30264">
        <ele>215.1</ele>
        <time>2022-09-24T13:34:39Z</time>
      </trkpt>
      <trkpt lat="45.8083" lon="5.30265">
        <ele>215.1</ele>
        <time>2022-09-24T13:34:40Z</time>
      </trkpt>
      <trkpt lat="45.80835" lon="5.30266">
        <ele>215</ele>
        <time>2022-09-24T13:34:41Z</time>
      </trkpt>
      <trkpt lat="45.80839" lon="5.30266">
        <ele>215</ele>
        <time>2022-09-24T13:34:42Z</time>
      </trkpt>
      <trkpt lat="45.80843" lon="5.30268">
        <ele>215</ele>
        <time>2022-09-24T13:34:43Z</time>
      </trkpt>
      <trkpt lat="45.80848" lon="5.3027">
        <ele>215.1</ele>
        <time>2022-09-24T13:34:44Z</time>
      </trkpt>
      <trkpt lat="45.80852" lon="5.30271">
        <ele>215.1</ele>
        <time>2022-09-24T13:34:45Z</time>
      </trkpt>
      <trkpt lat="45.80855" lon="5.30272">
        <ele>215.1</ele>
        <time>2022-09-24T13:34:46Z</time>
      </trkpt>
      <trkpt lat="45.80859" lon="5.30273">
        <ele>215.1</ele>
        <time>2022-09-24T13:34:47Z</time>
      </trkpt>
      <trkpt lat="45.80864" lon="5.30274">
        <ele>215.1</ele>
        <time>2022-09-24T13:34:48Z</time>
      </trkpt>
      <trkpt lat="45.80868" lon="5.30274">
        <ele>215.2</ele>
        <time>2022-09-24T13:34:49Z</time>
      </trkpt>
      <trkpt lat="45.80871" lon="5.30274">
        <ele>215.2</ele>
        <time>2022-09-24T13:34:50Z</time>
      </trkpt>
      <trkpt lat="45.80875" lon="5.30274">
        <ele>215.2</ele>
        <time>2022-09-24T13:34:51Z</time>
      </trkpt>
      <trkpt lat="45.80879" lon="5.30273">
        <ele>215.3</ele>
        <time>2022-09-24T13:34:52Z</time>
      </trkpt>
      <trkpt lat="45.80882" lon="5.3027">
        <ele>215.3</ele>
        <time>2022-09-24T13:34:53Z</time>
      </trkpt>
      <trkpt lat="45.80883" lon="5.30269">
        <ele>215.3</ele>
        <time>2022-09-24T13:34:54Z</time>
      </trkpt>
      <trkpt lat="45.80886" lon="5.30269">
        <ele>215.2</ele>
        <time>2022-09-24T13:34:55Z</time>
      </trkpt>
      <trkpt lat="45.80889" lon="5.30272">
        <ele>215.2</ele>
        <time>2022-09-24T13:34:56Z</time>
      </trkpt>
      <trkpt lat="45.80893" lon="5.30276">
        <ele>215.1</ele>
        <time>2022-09-24T13:34:57Z</time>
      </trkpt>
      <trkpt lat="45.80895" lon="5.3028">
        <ele>215.1</ele>
        <time>2022-09-24T13:34:58Z</time>
      </trkpt>
      <trkpt lat="45.80899" lon="5.30284">
        <ele>215</ele>
        <time>2022-09-24T13:34:59Z</time>
      </trkpt>
      <trkpt lat="45.80903" lon="5.30287">
        <ele>215</ele>
        <time>2022-09-24T13:35:00Z</time>
      </trkpt>
      <trkpt lat="45.80908" lon="5.30289">
        <ele>214.9</ele>
        <time>2022-09-24T13:35:01Z</time>
      </trkpt>
      <trkpt lat="45.80912" lon="5.30291">
        <ele>214.9</ele>
        <time>2022-09-24T13:35:02Z</time>
      </trkpt>
      <trkpt lat="45.80916" lon="5.30293">
        <ele>214.8</ele>
        <time>2022-09-24T13:35:03Z</time>
      </trkpt>
      <trkpt lat="45.8092" lon="5.30295">
        <ele>214.8</ele>
        <time>2022-09-24T13:35:04Z</time>
      </trkpt>
      <trkpt lat="45.80925" lon="5.30298">
        <ele>214.7</ele>
        <time>2022-09-24T13:35:05Z</time>
      </trkpt>
      <trkpt lat="45.8093" lon="5.30301">
        <ele>214.7</ele>
        <time>2022-09-24T13:35:06Z</time>
      </trkpt>
      <trkpt lat="45.80935" lon="5.30303">
        <ele>214.6</ele>
        <time>2022-09-24T13:35:07Z</time>
      </trkpt>
      <trkpt lat="45.80939" lon="5.30306">
        <ele>214.6</ele>
        <time>2022-09-24T13:35:08Z</time>
      </trkpt>
      <trkpt lat="45.80944" lon="5.30309">
        <ele>214.6</ele>
        <time>2022-09-24T13:35:09Z</time>
      </trkpt>
      <trkpt lat="45.80949" lon="5.30312">
        <ele>214.6</ele>
        <time>2022-09-24T13:35:10Z</time>
      </trkpt>
      <trkpt lat="45.80954" lon="5.30314">
        <ele>214.5</ele>
        <time>2022-09-24T13:35:11Z</time>
      </trkpt>
      <trkpt lat="45.8096" lon="5.30317">
        <ele>214.5</ele>
        <time>2022-09-24T13:35:12Z</time>
      </trkpt>
      <trkpt lat="45.80964" lon="5.30319">
        <ele>214.5</ele>
        <time>2022-09-24T13:35:13Z</time>
      </trkpt>
      <trkpt lat="45.80969" lon="5.30322">
        <ele>214.5</ele>
        <time>2022-09-24T13:35:14Z</time>
      </trkpt>
      <trkpt lat="45.80974" lon="5.30325">
        <ele>214.5</ele>
        <time>2022-09-24T13:35:15Z</time>
      </trkpt>
      <trkpt lat="45.80979" lon="5.30328">
        <ele>214.5</ele>
        <time>2022-09-24T13:35:16Z</time>
      </trkpt>
      <trkpt lat="45.80983" lon="5.30331">
        <ele>214.4</ele>
        <time>2022-09-24T13:35:17Z</time>
      </trkpt>
      <trkpt lat="45.80988" lon="5.30333">
        <ele>214.4</ele>
        <time>2022-09-24T13:35:18Z</time>
      </trkpt>
      <trkpt lat="45.80993" lon="5.30336">
        <ele>214.4</ele>
        <time>2022-09-24T13:35:19Z</time>
      </trkpt>
      <trkpt lat="45.80997" lon="5.30339">
        <ele>214.4</ele>
        <time>2022-09-24T13:35:20Z</time>
      </trkpt>
      <trkpt lat="45.81002" lon="5.30342">
        <ele>214.4</ele>
        <time>2022-09-24T13:35:21Z</time>
      </trkpt>
      <trkpt lat="45.81007" lon="5.30344">
        <ele>214.4</ele>
        <time>2022-09-24T13:35:22Z</time>
      </trkpt>
      <trkpt lat="45.81012" lon="5.30347">
        <ele>214.4</ele>
        <time>2022-09-24T13:35:23Z</time>
      </trkpt>
      <trkpt lat="45.81017" lon="5.3035">
        <ele>214.4</ele>
        <time>2022-09-24T13:35:24Z</time>
      </trkpt>
      <trkpt lat="45.81022" lon="5.30353">
        <ele>214.4</ele>
        <time>2022-09-24T13:35:25Z</time>
      </trkpt>
      <trkpt lat="45.81026" lon="5.30355">
        <ele>214.4</ele>
        <time>2022-09-24T13:35:26Z</time>
      </trkpt>
      <trkpt lat="45.81031" lon="5.30358">
        <ele>214.4</ele>
        <time>2022-09-24T13:35:27Z</time>
      </trkpt>
      <trkpt lat="45.81036" lon="5.30361">
        <ele>214.4</ele>
        <time>2022-09-24T13:35:28Z</time>
      </trkpt>
      <trkpt lat="45.81041" lon="5.30364">
        <ele>214.4</ele>
        <time>2022-09-24T13:35:29Z</time>
      </trkpt>
      <trkpt lat="45.81045" lon="5.30366">
        <ele>214.3</ele>
        <time>2022-09-24T13:35:30Z</time>
      </trkpt>
      <trkpt lat="45.81051" lon="5.30369">
        <ele>214.3</ele>
        <time>2022-09-24T13:35:31Z</time>
      </trkpt>
      <trkpt lat="45.81056" lon="5.30372">
        <ele>214.3</ele>
        <time>2022-09-24T13:35:32Z</time>
      </trkpt>
      <trkpt lat="45.81061" lon="5.30375">
        <ele>214.3</ele>
        <time>2022-09-24T13:35:33Z</time>
      </trkpt>
      <trkpt lat="45.81065" lon="5.30377">
        <ele>214.3</ele>
        <time>2022-09-24T13:35:34Z</time>
      </trkpt>
      <trkpt lat="45.8107" lon="5.3038">
        <ele>214.3</ele>
        <time>2022-09-24T13:35:35Z</time>
      </trkpt>
      <trkpt lat="45.81074" lon="5.30383">
        <ele>214.3</ele>
        <time>2022-09-24T13:35:36Z</time>
      </trkpt>
      <trkpt lat="45.81079" lon="5.30386">
        <ele>214.3</ele>
        <time>2022-09-24T13:35:37Z</time>
      </trkpt>
      <trkpt lat="45.81083" lon="5.30389">
        <ele>214.3</ele>
        <time>2022-09-24T13:35:38Z</time>
      </trkpt>
      <trkpt lat="45.81088" lon="5.30392">
        <ele>214.3</ele>
        <time>2022-09-24T13:35:39Z</time>
      </trkpt>
      <trkpt lat="45.81093" lon="5.30393">
        <ele>214.3</ele>
        <time>2022-09-24T13:35:40Z</time>
      </trkpt>
      <trkpt lat="45.81098" lon="5.30396">
        <ele>214.3</ele>
        <time>2022-09-24T13:35:41Z</time>
      </trkpt>
      <trkpt lat="45.81103" lon="5.30398">
        <ele>214.3</ele>
        <time>2022-09-24T13:35:42Z</time>
      </trkpt>
      <trkpt lat="45.81107" lon="5.30401">
        <ele>214.4</ele>
        <time>2022-09-24T13:35:43Z</time>
      </trkpt>
      <trkpt lat="45.81112" lon="5.30403">
        <ele>214.4</ele>
        <time>2022-09-24T13:35:44Z</time>
      </trkpt>
      <trkpt lat="45.81117" lon="5.30406">
        <ele>214.4</ele>
        <time>2022-09-24T13:35:45Z</time>
      </trkpt>
      <trkpt lat="45.81121" lon="5.30409">
        <ele>214.4</ele>
        <time>2022-09-24T13:35:46Z</time>
      </trkpt>
      <trkpt lat="45.81125" lon="5.30412">
        <ele>214.4</ele>
        <time>2022-09-24T13:35:47Z</time>
      </trkpt>
      <trkpt lat="45.8113" lon="5.30414">
        <ele>214.4</ele>
        <time>2022-09-24T13:35:48Z</time>
      </trkpt>
      <trkpt lat="45.81135" lon="5.30417">
        <ele>214.4</ele>
        <time>2022-09-24T13:35:49Z</time>
      </trkpt>
      <trkpt lat="45.8114" lon="5.30419">
        <ele>214.4</ele>
        <time>2022-09-24T13:35:50Z</time>
      </trkpt>
      <trkpt lat="45.81143" lon="5.30422">
        <ele>214.4</ele>
        <time>2022-09-24T13:35:51Z</time>
      </trkpt>
      <trkpt lat="45.81148" lon="5.30425">
        <ele>214.4</ele>
        <time>2022-09-24T13:35:52Z</time>
      </trkpt>
      <trkpt lat="45.81152" lon="5.30427">
        <ele>214.4</ele>
        <time>2022-09-24T13:35:53Z</time>
      </trkpt>
      <trkpt lat="45.81157" lon="5.3043">
        <ele>214.4</ele>
        <time>2022-09-24T13:35:54Z</time>
      </trkpt>
      <trkpt lat="45.81162" lon="5.30432">
        <ele>214.4</ele>
        <time>2022-09-24T13:35:55Z</time>
      </trkpt>
      <trkpt lat="45.81166" lon="5.30435">
        <ele>214.4</ele>
        <time>2022-09-24T13:35:56Z</time>
      </trkpt>
      <trkpt lat="45.81171" lon="5.30437">
        <ele>214.4</ele>
        <time>2022-09-24T13:35:57Z</time>
      </trkpt>
      <trkpt lat="45.81175" lon="5.3044">
        <ele>214.4</ele>
        <time>2022-09-24T13:35:58Z</time>
      </trkpt>
      <trkpt lat="45.8118" lon="5.30443">
        <ele>214.4</ele>
        <time>2022-09-24T13:35:59Z</time>
      </trkpt>
      <trkpt lat="45.81184" lon="5.30446">
        <ele>214.4</ele>
        <time>2022-09-24T13:36:00Z</time>
      </trkpt>
      <trkpt lat="45.81188" lon="5.30448">
        <ele>214.4</ele>
        <time>2022-09-24T13:36:01Z</time>
      </trkpt>
      <trkpt lat="45.81193" lon="5.30451">
        <ele>214.4</ele>
        <time>2022-09-24T13:36:02Z</time>
      </trkpt>
      <trkpt lat="45.81197" lon="5.30453">
        <ele>214.4</ele>
        <time>2022-09-24T13:36:03Z</time>
      </trkpt>
      <trkpt lat="45.81202" lon="5.30456">
        <ele>214.4</ele>
        <time>2022-09-24T13:36:04Z</time>
      </trkpt>
      <trkpt lat="45.81206" lon="5.30458">
        <ele>214.4</ele>
        <time>2022-09-24T13:36:05Z</time>
      </trkpt>
      <trkpt lat="45.81211" lon="5.30461">
        <ele>214.4</ele>
        <time>2022-09-24T13:36:06Z</time>
      </trkpt>
      <trkpt lat="45.81215" lon="5.30463">
        <ele>214.4</ele>
        <time>2022-09-24T13:36:07Z</time>
      </trkpt>
      <trkpt lat="45.81219" lon="5.30466">
        <ele>214.5</ele>
        <time>2022-09-24T13:36:08Z</time>
      </trkpt>
      <trkpt lat="45.81224" lon="5.30469">
        <ele>214.5</ele>
        <time>2022-09-24T13:36:09Z</time>
      </trkpt>
      <trkpt lat="45.81228" lon="5.30471">
        <ele>214.5</ele>
        <time>2022-09-24T13:36:10Z</time>
      </trkpt>
      <trkpt lat="45.81233" lon="5.30474">
        <ele>214.5</ele>
        <time>2022-09-24T13:36:11Z</time>
      </trkpt>
      <trkpt lat="45.81237" lon="5.30476">
        <ele>214.6</ele>
        <time>2022-09-24T13:36:12Z</time>
      </trkpt>
      <trkpt lat="45.81241" lon="5.30479">
        <ele>214.6</ele>
        <time>2022-09-24T13:36:13Z</time>
      </trkpt>
      <trkpt lat="45.81245" lon="5.30481">
        <ele>214.6</ele>
        <time>2022-09-24T13:36:14Z</time>
      </trkpt>
      <trkpt lat="45.8125" lon="5.30483">
        <ele>214.7</ele>
        <time>2022-09-24T13:36:15Z</time>
      </trkpt>
      <trkpt lat="45.81255" lon="5.30485">
        <ele>214.7</ele>
        <time>2022-09-24T13:36:16Z</time>
      </trkpt>
      <trkpt lat="45.81259" lon="5.30488">
        <ele>214.7</ele>
        <time>2022-09-24T13:36:17Z</time>
      </trkpt>
      <trkpt lat="45.81263" lon="5.3049">
        <ele>214.8</ele>
        <time>2022-09-24T13:36:18Z</time>
      </trkpt>
      <trkpt lat="45.81268" lon="5.30492">
        <ele>214.8</ele>
        <time>2022-09-24T13:36:19Z</time>
      </trkpt>
      <trkpt lat="45.81273" lon="5.30495">
        <ele>214.9</ele>
        <time>2022-09-24T13:36:20Z</time>
      </trkpt>
      <trkpt lat="45.81277" lon="5.30497">
        <ele>214.9</ele>
        <time>2022-09-24T13:36:21Z</time>
      </trkpt>
      <trkpt lat="45.81281" lon="5.305">
        <ele>214.9</ele>
        <time>2022-09-24T13:36:22Z</time>
      </trkpt>
      <trkpt lat="45.81286" lon="5.30502">
        <ele>214.9</ele>
        <time>2022-09-24T13:36:23Z</time>
      </trkpt>
      <trkpt lat="45.81291" lon="5.30503">
        <ele>215</ele>
        <time>2022-09-24T13:36:24Z</time>
      </trkpt>
      <trkpt lat="45.81296" lon="5.30506">
        <ele>215</ele>
        <time>2022-09-24T13:36:25Z</time>
      </trkpt>
      <trkpt lat="45.813" lon="5.30508">
        <ele>215</ele>
        <time>2022-09-24T13:36:26Z</time>
      </trkpt>
      <trkpt lat="45.81304" lon="5.30511">
        <ele>215</ele>
        <time>2022-09-24T13:36:27Z</time>
      </trkpt>
      <trkpt lat="45.81308" lon="5.30513">
        <ele>215.1</ele>
        <time>2022-09-24T13:36:28Z</time>
      </trkpt>
      <trkpt lat="45.81312" lon="5.30514">
        <ele>215.2</ele>
        <time>2022-09-24T13:36:29Z</time>
      </trkpt>
      <trkpt lat="45.81315" lon="5.30513">
        <ele>215.1</ele>
        <time>2022-09-24T13:36:30Z</time>
      </trkpt>
      <trkpt lat="45.81317" lon="5.30508">
        <ele>215.1</ele>
        <time>2022-09-24T13:36:31Z</time>
      </trkpt>
      <trkpt lat="45.81318" lon="5.30506">
        <ele>215.1</ele>
        <time>2022-09-24T13:36:32Z</time>
      </trkpt>
      <trkpt lat="45.81319" lon="5.30501">
        <ele>215</ele>
        <time>2022-09-24T13:36:33Z</time>
      </trkpt>
      <trkpt lat="45.81319" lon="5.30494">
        <ele>215</ele>
        <time>2022-09-24T13:36:34Z</time>
      </trkpt>
      <trkpt lat="45.8132" lon="5.30487">
        <ele>214.9</ele>
        <time>2022-09-24T13:36:35Z</time>
      </trkpt>
      <trkpt lat="45.81321" lon="5.30482">
        <ele>214.9</ele>
        <time>2022-09-24T13:36:36Z</time>
      </trkpt>
      <trkpt lat="45.81322" lon="5.30475">
        <ele>214.8</ele>
        <time>2022-09-24T13:36:37Z</time>
      </trkpt>
      <trkpt lat="45.81322" lon="5.30469">
        <ele>214.8</ele>
        <time>2022-09-24T13:36:38Z</time>
      </trkpt>
      <trkpt lat="45.81324" lon="5.30462">
        <ele>214.8</ele>
        <time>2022-09-24T13:36:39Z</time>
      </trkpt>
      <trkpt lat="45.81324" lon="5.30455">
        <ele>214.7</ele>
        <time>2022-09-24T13:36:40Z</time>
      </trkpt>
      <trkpt lat="45.81325" lon="5.30447">
        <ele>214.7</ele>
        <time>2022-09-24T13:36:41Z</time>
      </trkpt>
      <trkpt lat="45.81327" lon="5.30438">
        <ele>214.7</ele>
        <time>2022-09-24T13:36:42Z</time>
      </trkpt>
      <trkpt lat="45.81328" lon="5.30431">
        <ele>214.7</ele>
        <time>2022-09-24T13:36:43Z</time>
      </trkpt>
      <trkpt lat="45.81329" lon="5.30423">
        <ele>214.7</ele>
        <time>2022-09-24T13:36:44Z</time>
      </trkpt>
      <trkpt lat="45.8133" lon="5.30415">
        <ele>214.7</ele>
        <time>2022-09-24T13:36:45Z</time>
      </trkpt>
      <trkpt lat="45.81332" lon="5.30408">
        <ele>214.7</ele>
        <time>2022-09-24T13:36:46Z</time>
      </trkpt>
      <trkpt lat="45.81334" lon="5.304">
        <ele>214.6</ele>
        <time>2022-09-24T13:36:47Z</time>
      </trkpt>
      <trkpt lat="45.81336" lon="5.30391">
        <ele>214.6</ele>
        <time>2022-09-24T13:36:48Z</time>
      </trkpt>
      <trkpt lat="45.81336" lon="5.30383">
        <ele>214.6</ele>
        <time>2022-09-24T13:36:49Z</time>
      </trkpt>
      <trkpt lat="45.81338" lon="5.30375">
        <ele>214.6</ele>
        <time>2022-09-24T13:36:50Z</time>
      </trkpt>
      <trkpt lat="45.8134" lon="5.30366">
        <ele>214.6</ele>
        <time>2022-09-24T13:36:51Z</time>
      </trkpt>
      <trkpt lat="45.81341" lon="5.30357">
        <ele>214.5</ele>
        <time>2022-09-24T13:36:52Z</time>
      </trkpt>
      <trkpt lat="45.81342" lon="5.30349">
        <ele>214.5</ele>
        <time>2022-09-24T13:36:53Z</time>
      </trkpt>
      <trkpt lat="45.81343" lon="5.30341">
        <ele>214.4</ele>
        <time>2022-09-24T13:36:54Z</time>
      </trkpt>
      <trkpt lat="45.81345" lon="5.30333">
        <ele>214.4</ele>
        <time>2022-09-24T13:36:55Z</time>
      </trkpt>
      <trkpt lat="45.81346" lon="5.30325">
        <ele>214.3</ele>
        <time>2022-09-24T13:36:56Z</time>
      </trkpt>
      <trkpt lat="45.81347" lon="5.30318">
        <ele>214.2</ele>
        <time>2022-09-24T13:36:57Z</time>
      </trkpt>
      <trkpt lat="45.81348" lon="5.30311">
        <ele>214.2</ele>
        <time>2022-09-24T13:36:58Z</time>
      </trkpt>
      <trkpt lat="45.81348" lon="5.30302">
        <ele>214.1</ele>
        <time>2022-09-24T13:36:59Z</time>
      </trkpt>
      <trkpt lat="45.81349" lon="5.30294">
        <ele>214</ele>
        <time>2022-09-24T13:37:00Z</time>
      </trkpt>
      <trkpt lat="45.8135" lon="5.30286">
        <ele>213.9</ele>
        <time>2022-09-24T13:37:01Z</time>
      </trkpt>
      <trkpt lat="45.81351" lon="5.30277">
        <ele>213.9</ele>
        <time>2022-09-24T13:37:02Z</time>
      </trkpt>
      <trkpt lat="45.81352" lon="5.30272">
        <ele>213.9</ele>
        <time>2022-09-24T13:37:03Z</time>
      </trkpt>
      <trkpt lat="45.81353" lon="5.30265">
        <ele>213.9</ele>
        <time>2022-09-24T13:37:04Z</time>
      </trkpt>
      <trkpt lat="45.81354" lon="5.30258">
        <ele>213.9</ele>
        <time>2022-09-24T13:37:05Z</time>
      </trkpt>
      <trkpt lat="45.81354" lon="5.30251">
        <ele>213.9</ele>
        <time>2022-09-24T13:37:06Z</time>
      </trkpt>
      <trkpt lat="45.81355" lon="5.30245">
        <ele>213.8</ele>
        <time>2022-09-24T13:37:07Z</time>
      </trkpt>
      <trkpt lat="45.81356" lon="5.30236">
        <ele>213.8</ele>
        <time>2022-09-24T13:37:08Z</time>
      </trkpt>
      <trkpt lat="45.81358" lon="5.30229">
        <ele>213.8</ele>
        <time>2022-09-24T13:37:09Z</time>
      </trkpt>
      <trkpt lat="45.81359" lon="5.30221">
        <ele>213.8</ele>
        <time>2022-09-24T13:37:10Z</time>
      </trkpt>
      <trkpt lat="45.81361" lon="5.30214">
        <ele>213.8</ele>
        <time>2022-09-24T13:37:11Z</time>
      </trkpt>
      <trkpt lat="45.81362" lon="5.30206">
        <ele>213.7</ele>
        <time>2022-09-24T13:37:12Z</time>
      </trkpt>
      <trkpt lat="45.81363" lon="5.30198">
        <ele>213.7</ele>
        <time>2022-09-24T13:37:13Z</time>
      </trkpt>
      <trkpt lat="45.81365" lon="5.3019">
        <ele>213.6</ele>
        <time>2022-09-24T13:37:14Z</time>
      </trkpt>
      <trkpt lat="45.81366" lon="5.30181">
        <ele>213.6</ele>
        <time>2022-09-24T13:37:15Z</time>
      </trkpt>
      <trkpt lat="45.81368" lon="5.30173">
        <ele>213.5</ele>
        <time>2022-09-24T13:37:16Z</time>
      </trkpt>
      <trkpt lat="45.81369" lon="5.30164">
        <ele>213.5</ele>
        <time>2022-09-24T13:37:17Z</time>
      </trkpt>
      <trkpt lat="45.81371" lon="5.30155">
        <ele>213.5</ele>
        <time>2022-09-24T13:37:18Z</time>
      </trkpt>
      <trkpt lat="45.81372" lon="5.30147">
        <ele>213.5</ele>
        <time>2022-09-24T13:37:19Z</time>
      </trkpt>
      <trkpt lat="45.81374" lon="5.30138">
        <ele>213.5</ele>
        <time>2022-09-24T13:37:20Z</time>
      </trkpt>
      <trkpt lat="45.81375" lon="5.30129">
        <ele>213.4</ele>
        <time>2022-09-24T13:37:21Z</time>
      </trkpt>
      <trkpt lat="45.81377" lon="5.3012">
        <ele>213.4</ele>
        <time>2022-09-24T13:37:22Z</time>
      </trkpt>
      <trkpt lat="45.81379" lon="5.30111">
        <ele>213.4</ele>
        <time>2022-09-24T13:37:23Z</time>
      </trkpt>
      <trkpt lat="45.8138" lon="5.30101">
        <ele>213.4</ele>
        <time>2022-09-24T13:37:24Z</time>
      </trkpt>
      <trkpt lat="45.81381" lon="5.30093">
        <ele>213.4</ele>
        <time>2022-09-24T13:37:25Z</time>
      </trkpt>
      <trkpt lat="45.8138" lon="5.30084">
        <ele>213.4</ele>
        <time>2022-09-24T13:37:26Z</time>
      </trkpt>
      <trkpt lat="45.81379" lon="5.30075">
        <ele>213.4</ele>
        <time>2022-09-24T13:37:27Z</time>
      </trkpt>
      <trkpt lat="45.81378" lon="5.30068">
        <ele>213.4</ele>
        <time>2022-09-24T13:37:28Z</time>
      </trkpt>
      <trkpt lat="45.81376" lon="5.30061">
        <ele>213.4</ele>
        <time>2022-09-24T13:37:29Z</time>
      </trkpt>
      <trkpt lat="45.81374" lon="5.30054">
        <ele>213.3</ele>
        <time>2022-09-24T13:37:30Z</time>
      </trkpt>
      <trkpt lat="45.81372" lon="5.30049">
        <ele>213.2</ele>
        <time>2022-09-24T13:37:31Z</time>
      </trkpt>
      <trkpt lat="45.81368" lon="5.30044">
        <ele>213.1</ele>
        <time>2022-09-24T13:37:32Z</time>
      </trkpt>
      <trkpt lat="45.81363" lon="5.30039">
        <ele>213.1</ele>
        <time>2022-09-24T13:37:33Z</time>
      </trkpt>
      <trkpt lat="45.81359" lon="5.30035">
        <ele>213</ele>
        <time>2022-09-24T13:37:34Z</time>
      </trkpt>
      <trkpt lat="45.81355" lon="5.3003">
        <ele>213</ele>
        <time>2022-09-24T13:37:35Z</time>
      </trkpt>
      <trkpt lat="45.81351" lon="5.30024">
        <ele>212.9</ele>
        <time>2022-09-24T13:37:36Z</time>
      </trkpt>
      <trkpt lat="45.81347" lon="5.30019">
        <ele>212.8</ele>
        <time>2022-09-24T13:37:37Z</time>
      </trkpt>
      <trkpt lat="45.81343" lon="5.30013">
        <ele>212.8</ele>
        <time>2022-09-24T13:37:38Z</time>
      </trkpt>
      <trkpt lat="45.81339" lon="5.30008">
        <ele>212.8</ele>
        <time>2022-09-24T13:37:39Z</time>
      </trkpt>
      <trkpt lat="45.81334" lon="5.30003">
        <ele>212.8</ele>
        <time>2022-09-24T13:37:40Z</time>
      </trkpt>
      <trkpt lat="45.8133" lon="5.29997">
        <ele>212.8</ele>
        <time>2022-09-24T13:37:41Z</time>
      </trkpt>
      <trkpt lat="45.81325" lon="5.29991">
        <ele>212.8</ele>
        <time>2022-09-24T13:37:42Z</time>
      </trkpt>
      <trkpt lat="45.8132" lon="5.29985">
        <ele>212.8</ele>
        <time>2022-09-24T13:37:43Z</time>
      </trkpt>
      <trkpt lat="45.81315" lon="5.29978">
        <ele>212.9</ele>
        <time>2022-09-24T13:37:44Z</time>
      </trkpt>
      <trkpt lat="45.81312" lon="5.29973">
        <ele>212.9</ele>
        <time>2022-09-24T13:37:45Z</time>
      </trkpt>
      <trkpt lat="45.81308" lon="5.29968">
        <ele>213</ele>
        <time>2022-09-24T13:37:46Z</time>
      </trkpt>
      <trkpt lat="45.81303" lon="5.29962">
        <ele>213.1</ele>
        <time>2022-09-24T13:37:47Z</time>
      </trkpt>
      <trkpt lat="45.81299" lon="5.29957">
        <ele>213.1</ele>
        <time>2022-09-24T13:37:48Z</time>
      </trkpt>
      <trkpt lat="45.81295" lon="5.29952">
        <ele>213.2</ele>
        <time>2022-09-24T13:37:49Z</time>
      </trkpt>
      <trkpt lat="45.81291" lon="5.29947">
        <ele>213.2</ele>
        <time>2022-09-24T13:37:50Z</time>
      </trkpt>
      <trkpt lat="45.81287" lon="5.29942">
        <ele>213.3</ele>
        <time>2022-09-24T13:37:51Z</time>
      </trkpt>
      <trkpt lat="45.81283" lon="5.29938">
        <ele>213.3</ele>
        <time>2022-09-24T13:37:52Z</time>
      </trkpt>
      <trkpt lat="45.81279" lon="5.29934">
        <ele>213.4</ele>
        <time>2022-09-24T13:37:53Z</time>
      </trkpt>
      <trkpt lat="45.81276" lon="5.2993">
        <ele>213.4</ele>
        <time>2022-09-24T13:37:54Z</time>
      </trkpt>
      <trkpt lat="45.81273" lon="5.29926">
        <ele>213.4</ele>
        <time>2022-09-24T13:37:55Z</time>
      </trkpt>
      <trkpt lat="45.8127" lon="5.29923">
        <ele>213.5</ele>
        <time>2022-09-24T13:37:56Z</time>
      </trkpt>
      <trkpt lat="45.81267" lon="5.2992">
        <ele>213.5</ele>
        <time>2022-09-24T13:37:57Z</time>
      </trkpt>
      <trkpt lat="45.81264" lon="5.29916">
        <ele>213.5</ele>
        <time>2022-09-24T13:37:58Z</time>
      </trkpt>
      <trkpt lat="45.81263" lon="5.29915">
        <ele>213.5</ele>
        <time>2022-09-24T13:37:59Z</time>
      </trkpt>
      <trkpt lat="45.81261" lon="5.29911">
        <ele>213.6</ele>
        <time>2022-09-24T13:38:00Z</time>
      </trkpt>
      <trkpt lat="45.8126" lon="5.2991">
        <ele>213.6</ele>
        <time>2022-09-24T13:38:01Z</time>
      </trkpt>
      <trkpt lat="45.81257" lon="5.29906">
        <ele>213.6</ele>
        <time>2022-09-24T13:38:02Z</time>
      </trkpt>
      <trkpt lat="45.81256" lon="5.29904">
        <ele>213.6</ele>
        <time>2022-09-24T13:38:03Z</time>
      </trkpt>
      <trkpt lat="45.81254" lon="5.29902">
        <ele>213.6</ele>
        <time>2022-09-24T13:38:04Z</time>
      </trkpt>
      <trkpt lat="45.81251" lon="5.29899">
        <ele>213.6</ele>
        <time>2022-09-24T13:38:05Z</time>
      </trkpt>
      <trkpt lat="45.8125" lon="5.29898">
        <ele>213.5</ele>
        <time>2022-09-24T13:38:06Z</time>
      </trkpt>
      <trkpt lat="45.81247" lon="5.29895">
        <ele>213.5</ele>
        <time>2022-09-24T13:38:07Z</time>
      </trkpt>
      <trkpt lat="45.81245" lon="5.2989">
        <ele>213.4</ele>
        <time>2022-09-24T13:38:08Z</time>
      </trkpt>
      <trkpt lat="45.81244" lon="5.29888">
        <ele>213.4</ele>
        <time>2022-09-24T13:38:09Z</time>
      </trkpt>
      <trkpt lat="45.81243" lon="5.29884">
        <ele>213.3</ele>
        <time>2022-09-24T13:38:10Z</time>
      </trkpt>
      <trkpt lat="45.81241" lon="5.29881">
        <ele>213.2</ele>
        <time>2022-09-24T13:38:11Z</time>
      </trkpt>
      <trkpt lat="45.81241" lon="5.29878">
        <ele>213.1</ele>
        <time>2022-09-24T13:38:12Z</time>
      </trkpt>
      <trkpt lat="45.81241" lon="5.29878">
        <ele>213.1</ele>
        <time>2022-09-24T13:38:13Z</time>
      </trkpt>
      <trkpt lat="45.81242" lon="5.29879">
        <ele>213.2</ele>
        <time>2022-09-24T13:38:14Z</time>
      </trkpt>
      <trkpt lat="45.81242" lon="5.29879">
        <ele>213.2</ele>
        <time>2022-09-24T13:38:15Z</time>
      </trkpt>
      <trkpt lat="45.81242" lon="5.29879">
        <ele>213.2</ele>
        <time>2022-09-24T13:38:16Z</time>
      </trkpt>
      <trkpt lat="45.81242" lon="5.29879">
        <ele>213.2</ele>
        <time>2022-09-24T13:38:17Z</time>
      </trkpt>
      <trkpt lat="45.81242" lon="5.29879">
        <ele>213.2</ele>
        <time>2022-09-24T13:38:18Z</time>
      </trkpt>
      <trkpt lat="45.81242" lon="5.29879">
        <ele>213.2</ele>
        <time>2022-09-24T13:38:19Z</time>
      </trkpt>
      <trkpt lat="45.81242" lon="5.29879">
        <ele>213.2</ele>
        <time>2022-09-24T13:38:20Z</time>
      </trkpt>
      <trkpt lat="45.81242" lon="5.29879">
        <ele>213.2</ele>
        <time>2022-09-24T13:38:21Z</time>
      </trkpt>
      <trkpt lat="45.81242" lon="5.29879">
        <ele>213.2</ele>
        <time>2022-09-24T13:38:22Z</time>
      </trkpt>
      <trkpt lat="45.81242" lon="5.29879">
        <ele>213.2</ele>
        <time>2022-09-24T13:38:23Z</time>
      </trkpt>
      <trkpt lat="45.81251" lon="5.29865">
        <ele>213.3</ele>
        <time>2022-09-24T13:39:12Z</time>
      </trkpt>
      <trkpt lat="45.81254" lon="5.29861">
        <ele>213.4</ele>
        <time>2022-09-24T13:39:13Z</time>
      </trkpt>
      <trkpt lat="45.81256" lon="5.29859">
        <ele>213.3</ele>
        <time>2022-09-24T13:39:14Z</time>
      </trkpt>
      <trkpt lat="45.81257" lon="5.29854">
        <ele>213.2</ele>
        <time>2022-09-24T13:39:15Z</time>
      </trkpt>
      <trkpt lat="45.81257" lon="5.2985">
        <ele>213.2</ele>
        <time>2022-09-24T13:39:16Z</time>
      </trkpt>
      <trkpt lat="45.81259" lon="5.29846">
        <ele>213.1</ele>
        <time>2022-09-24T13:39:17Z</time>
      </trkpt>
      <trkpt lat="45.81261" lon="5.29843">
        <ele>213</ele>
        <time>2022-09-24T13:39:18Z</time>
      </trkpt>
      <trkpt lat="45.81265" lon="5.29841">
        <ele>212.9</ele>
        <time>2022-09-24T13:39:19Z</time>
      </trkpt>
      <trkpt lat="45.81269" lon="5.29841">
        <ele>212.8</ele>
        <time>2022-09-24T13:39:20Z</time>
      </trkpt>
      <trkpt lat="45.81273" lon="5.2984">
        <ele>212.7</ele>
        <time>2022-09-24T13:39:21Z</time>
      </trkpt>
      <trkpt lat="45.81278" lon="5.29839">
        <ele>212.6</ele>
        <time>2022-09-24T13:39:22Z</time>
      </trkpt>
      <trkpt lat="45.81282" lon="5.29837">
        <ele>212.5</ele>
        <time>2022-09-24T13:39:23Z</time>
      </trkpt>
      <trkpt lat="45.81286" lon="5.29834">
        <ele>212.5</ele>
        <time>2022-09-24T13:39:24Z</time>
      </trkpt>
      <trkpt lat="45.8129" lon="5.2983">
        <ele>212.4</ele>
        <time>2022-09-24T13:39:25Z</time>
      </trkpt>
      <trkpt lat="45.81294" lon="5.29825">
        <ele>212.4</ele>
        <time>2022-09-24T13:39:26Z</time>
      </trkpt>
      <trkpt lat="45.81298" lon="5.29821">
        <ele>212.4</ele>
        <time>2022-09-24T13:39:27Z</time>
      </trkpt>
      <trkpt lat="45.81302" lon="5.29817">
        <ele>212.3</ele>
        <time>2022-09-24T13:39:28Z</time>
      </trkpt>
      <trkpt lat="45.81305" lon="5.29812">
        <ele>212.3</ele>
        <time>2022-09-24T13:39:29Z</time>
      </trkpt>
      <trkpt lat="45.81309" lon="5.29807">
        <ele>212.3</ele>
        <time>2022-09-24T13:39:30Z</time>
      </trkpt>
      <trkpt lat="45.81312" lon="5.29802">
        <ele>212.3</ele>
        <time>2022-09-24T13:39:31Z</time>
      </trkpt>
      <trkpt lat="45.81315" lon="5.29797">
        <ele>212.3</ele>
        <time>2022-09-24T13:39:32Z</time>
      </trkpt>
      <trkpt lat="45.81317" lon="5.29791">
        <ele>212.3</ele>
        <time>2022-09-24T13:39:33Z</time>
      </trkpt>
      <trkpt lat="45.81319" lon="5.29786">
        <ele>212.3</ele>
        <time>2022-09-24T13:39:34Z</time>
      </trkpt>
      <trkpt lat="45.81321" lon="5.29781">
        <ele>212.3</ele>
        <time>2022-09-24T13:39:35Z</time>
      </trkpt>
      <trkpt lat="45.81323" lon="5.29776">
        <ele>212.3</ele>
        <time>2022-09-24T13:39:36Z</time>
      </trkpt>
      <trkpt lat="45.81325" lon="5.29771">
        <ele>212.2</ele>
        <time>2022-09-24T13:39:37Z</time>
      </trkpt>
      <trkpt lat="45.81327" lon="5.29767">
        <ele>212.2</ele>
        <time>2022-09-24T13:39:38Z</time>
      </trkpt>
      <trkpt lat="45.81328" lon="5.29762">
        <ele>212.2</ele>
        <time>2022-09-24T13:39:39Z</time>
      </trkpt>
      <trkpt lat="45.8133" lon="5.29758">
        <ele>212.2</ele>
        <time>2022-09-24T13:39:40Z</time>
      </trkpt>
      <trkpt lat="45.81332" lon="5.29754">
        <ele>212.2</ele>
        <time>2022-09-24T13:39:41Z</time>
      </trkpt>
      <trkpt lat="45.81334" lon="5.29749">
        <ele>212.2</ele>
        <time>2022-09-24T13:39:42Z</time>
      </trkpt>
      <trkpt lat="45.81335" lon="5.29744">
        <ele>212.2</ele>
        <time>2022-09-24T13:39:43Z</time>
      </trkpt>
      <trkpt lat="45.81337" lon="5.2974">
        <ele>212.2</ele>
        <time>2022-09-24T13:39:44Z</time>
      </trkpt>
      <trkpt lat="45.81338" lon="5.29736">
        <ele>212.3</ele>
        <time>2022-09-24T13:39:45Z</time>
      </trkpt>
      <trkpt lat="45.81339" lon="5.29731">
        <ele>212.3</ele>
        <time>2022-09-24T13:39:46Z</time>
      </trkpt>
      <trkpt lat="45.81339" lon="5.29726">
        <ele>212.3</ele>
        <time>2022-09-24T13:39:47Z</time>
      </trkpt>
      <trkpt lat="45.81338" lon="5.29721">
        <ele>212.3</ele>
        <time>2022-09-24T13:39:48Z</time>
      </trkpt>
      <trkpt lat="45.81337" lon="5.29716">
        <ele>212.3</ele>
        <time>2022-09-24T13:39:49Z</time>
      </trkpt>
      <trkpt lat="45.81335" lon="5.29712">
        <ele>212.3</ele>
        <time>2022-09-24T13:39:50Z</time>
      </trkpt>
      <trkpt lat="45.81333" lon="5.29709">
        <ele>212.4</ele>
        <time>2022-09-24T13:39:51Z</time>
      </trkpt>
      <trkpt lat="45.81331" lon="5.29707">
        <ele>212.4</ele>
        <time>2022-09-24T13:39:52Z</time>
      </trkpt>
      <trkpt lat="45.81328" lon="5.29703">
        <ele>212.4</ele>
        <time>2022-09-24T13:39:53Z</time>
      </trkpt>
      <trkpt lat="45.81327" lon="5.29702">
        <ele>212.4</ele>
        <time>2022-09-24T13:39:54Z</time>
      </trkpt>
      <trkpt lat="45.81326" lon="5.29698">
        <ele>212.5</ele>
        <time>2022-09-24T13:39:55Z</time>
      </trkpt>
      <trkpt lat="45.81326" lon="5.29697">
        <ele>212.5</ele>
        <time>2022-09-24T13:39:56Z</time>
      </trkpt>
      <trkpt lat="45.81327" lon="5.29691">
        <ele>212.5</ele>
        <time>2022-09-24T13:39:57Z</time>
      </trkpt>
      <trkpt lat="45.81328" lon="5.29689">
        <ele>212.5</ele>
        <time>2022-09-24T13:39:58Z</time>
      </trkpt>
      <trkpt lat="45.81331" lon="5.29686">
        <ele>212.5</ele>
        <time>2022-09-24T13:39:59Z</time>
      </trkpt>
      <trkpt lat="45.81334" lon="5.29684">
        <ele>212.5</ele>
        <time>2022-09-24T13:40:00Z</time>
      </trkpt>
      <trkpt lat="45.81337" lon="5.29684">
        <ele>212.5</ele>
        <time>2022-09-24T13:40:01Z</time>
      </trkpt>
      <trkpt lat="45.81341" lon="5.29685">
        <ele>212.5</ele>
        <time>2022-09-24T13:40:02Z</time>
      </trkpt>
      <trkpt lat="45.81345" lon="5.29686">
        <ele>212.5</ele>
        <time>2022-09-24T13:40:03Z</time>
      </trkpt>
      <trkpt lat="45.81348" lon="5.29686">
        <ele>212.6</ele>
        <time>2022-09-24T13:40:04Z</time>
      </trkpt>
      <trkpt lat="45.81351" lon="5.29685">
        <ele>212.6</ele>
        <time>2022-09-24T13:40:05Z</time>
      </trkpt>
      <trkpt lat="45.81354" lon="5.29682">
        <ele>212.6</ele>
        <time>2022-09-24T13:40:06Z</time>
      </trkpt>
      <trkpt lat="45.81356" lon="5.29679">
        <ele>212.7</ele>
        <time>2022-09-24T13:40:07Z</time>
      </trkpt>
      <trkpt lat="45.81359" lon="5.29675">
        <ele>212.7</ele>
        <time>2022-09-24T13:40:08Z</time>
      </trkpt>
      <trkpt lat="45.8136" lon="5.29674">
        <ele>212.7</ele>
        <time>2022-09-24T13:40:09Z</time>
      </trkpt>
      <trkpt lat="45.81362" lon="5.29671">
        <ele>212.8</ele>
        <time>2022-09-24T13:40:10Z</time>
      </trkpt>
      <trkpt lat="45.81362" lon="5.2967">
        <ele>212.8</ele>
        <time>2022-09-24T13:40:11Z</time>
      </trkpt>
      <trkpt lat="45.81365" lon="5.29669">
        <ele>212.8</ele>
        <time>2022-09-24T13:40:12Z</time>
      </trkpt>
      <trkpt lat="45.81366" lon="5.29668">
        <ele>212.8</ele>
        <time>2022-09-24T13:40:13Z</time>
      </trkpt>
      <trkpt lat="45.81369" lon="5.2967">
        <ele>212.8</ele>
        <time>2022-09-24T13:40:14Z</time>
      </trkpt>
      <trkpt lat="45.81369" lon="5.29671">
        <ele>212.8</ele>
        <time>2022-09-24T13:40:15Z</time>
      </trkpt>
      <trkpt lat="45.81372" lon="5.29673">
        <ele>212.8</ele>
        <time>2022-09-24T13:40:16Z</time>
      </trkpt>
      <trkpt lat="45.81374" lon="5.29673">
        <ele>212.8</ele>
        <time>2022-09-24T13:40:17Z</time>
      </trkpt>
      <trkpt lat="45.81377" lon="5.2967">
        <ele>212.7</ele>
        <time>2022-09-24T13:40:18Z</time>
      </trkpt>
      <trkpt lat="45.81378" lon="5.29666">
        <ele>212.7</ele>
        <time>2022-09-24T13:40:19Z</time>
      </trkpt>
      <trkpt lat="45.81379" lon="5.29662">
        <ele>212.7</ele>
        <time>2022-09-24T13:40:20Z</time>
      </trkpt>
      <trkpt lat="45.8138" lon="5.29657">
        <ele>212.6</ele>
        <time>2022-09-24T13:40:21Z</time>
      </trkpt>
      <trkpt lat="45.81382" lon="5.29652">
        <ele>212.6</ele>
        <time>2022-09-24T13:40:22Z</time>
      </trkpt>
      <trkpt lat="45.81384" lon="5.29648">
        <ele>212.6</ele>
        <time>2022-09-24T13:40:23Z</time>
      </trkpt>
      <trkpt lat="45.81386" lon="5.29643">
        <ele>212.5</ele>
        <time>2022-09-24T13:40:24Z</time>
      </trkpt>
      <trkpt lat="45.81388" lon="5.29638">
        <ele>212.5</ele>
        <time>2022-09-24T13:40:25Z</time>
      </trkpt>
      <trkpt lat="45.8139" lon="5.29634">
        <ele>212.5</ele>
        <time>2022-09-24T13:40:26Z</time>
      </trkpt>
      <trkpt lat="45.81392" lon="5.29628">
        <ele>212.4</ele>
        <time>2022-09-24T13:40:27Z</time>
      </trkpt>
      <trkpt lat="45.81394" lon="5.29623">
        <ele>212.4</ele>
        <time>2022-09-24T13:40:28Z</time>
      </trkpt>
      <trkpt lat="45.81396" lon="5.29618">
        <ele>212.4</ele>
        <time>2022-09-24T13:40:29Z</time>
      </trkpt>
      <trkpt lat="45.81398" lon="5.29612">
        <ele>212.4</ele>
        <time>2022-09-24T13:40:30Z</time>
      </trkpt>
      <trkpt lat="45.814" lon="5.29606">
        <ele>212.4</ele>
        <time>2022-09-24T13:40:31Z</time>
      </trkpt>
      <trkpt lat="45.81402" lon="5.296">
        <ele>212.3</ele>
        <time>2022-09-24T13:40:32Z</time>
      </trkpt>
      <trkpt lat="45.81404" lon="5.29594">
        <ele>212.3</ele>
        <time>2022-09-24T13:40:33Z</time>
      </trkpt>
      <trkpt lat="45.81407" lon="5.29588">
        <ele>212.3</ele>
        <time>2022-09-24T13:40:34Z</time>
      </trkpt>
      <trkpt lat="45.81409" lon="5.29581">
        <ele>212.3</ele>
        <time>2022-09-24T13:40:35Z</time>
      </trkpt>
      <trkpt lat="45.81411" lon="5.29575">
        <ele>212.2</ele>
        <time>2022-09-24T13:40:36Z</time>
      </trkpt>
      <trkpt lat="45.81414" lon="5.29568">
        <ele>212.2</ele>
        <time>2022-09-24T13:40:37Z</time>
      </trkpt>
      <trkpt lat="45.81416" lon="5.29562">
        <ele>212.2</ele>
        <time>2022-09-24T13:40:38Z</time>
      </trkpt>
      <trkpt lat="45.8142" lon="5.29555">
        <ele>212.2</ele>
        <time>2022-09-24T13:40:39Z</time>
      </trkpt>
      <trkpt lat="45.81422" lon="5.2955">
        <ele>212.1</ele>
        <time>2022-09-24T13:40:40Z</time>
      </trkpt>
      <trkpt lat="45.81426" lon="5.29545">
        <ele>212.1</ele>
        <time>2022-09-24T13:40:41Z</time>
      </trkpt>
      <trkpt lat="45.8143" lon="5.29541">
        <ele>212.1</ele>
        <time>2022-09-24T13:40:42Z</time>
      </trkpt>
      <trkpt lat="45.81435" lon="5.29538">
        <ele>212</ele>
        <time>2022-09-24T13:40:43Z</time>
      </trkpt>
      <trkpt lat="45.8144" lon="5.29536">
        <ele>212</ele>
        <time>2022-09-24T13:40:44Z</time>
      </trkpt>
      <trkpt lat="45.81445" lon="5.29536">
        <ele>211.9</ele>
        <time>2022-09-24T13:40:45Z</time>
      </trkpt>
      <trkpt lat="45.8145" lon="5.29537">
        <ele>211.9</ele>
        <time>2022-09-24T13:40:46Z</time>
      </trkpt>
      <trkpt lat="45.81455" lon="5.29539">
        <ele>211.8</ele>
        <time>2022-09-24T13:40:47Z</time>
      </trkpt>
      <trkpt lat="45.8146" lon="5.29541">
        <ele>211.8</ele>
        <time>2022-09-24T13:40:48Z</time>
      </trkpt>
      <trkpt lat="45.81465" lon="5.29546">
        <ele>211.7</ele>
        <time>2022-09-24T13:40:49Z</time>
      </trkpt>
      <trkpt lat="45.8147" lon="5.29549">
        <ele>211.7</ele>
        <time>2022-09-24T13:40:50Z</time>
      </trkpt>
      <trkpt lat="45.81475" lon="5.29553">
        <ele>211.7</ele>
        <time>2022-09-24T13:40:51Z</time>
      </trkpt>
      <trkpt lat="45.81479" lon="5.29557">
        <ele>211.7</ele>
        <time>2022-09-24T13:40:52Z</time>
      </trkpt>
      <trkpt lat="45.81484" lon="5.29562">
        <ele>211.7</ele>
        <time>2022-09-24T13:40:53Z</time>
      </trkpt>
      <trkpt lat="45.81489" lon="5.29565">
        <ele>211.7</ele>
        <time>2022-09-24T13:40:54Z</time>
      </trkpt>
      <trkpt lat="45.81493" lon="5.2957">
        <ele>211.6</ele>
        <time>2022-09-24T13:40:55Z</time>
      </trkpt>
      <trkpt lat="45.81497" lon="5.29574">
        <ele>211.6</ele>
        <time>2022-09-24T13:40:56Z</time>
      </trkpt>
      <trkpt lat="45.81502" lon="5.29578">
        <ele>211.6</ele>
        <time>2022-09-24T13:40:57Z</time>
      </trkpt>
      <trkpt lat="45.81505" lon="5.2958">
        <ele>211.6</ele>
        <time>2022-09-24T13:40:58Z</time>
      </trkpt>
      <trkpt lat="45.81508" lon="5.29583">
        <ele>211.6</ele>
        <time>2022-09-24T13:40:59Z</time>
      </trkpt>
      <trkpt lat="45.81511" lon="5.29586">
        <ele>211.6</ele>
        <time>2022-09-24T13:41:00Z</time>
      </trkpt>
      <trkpt lat="45.81514" lon="5.29588">
        <ele>211.6</ele>
        <time>2022-09-24T13:41:01Z</time>
      </trkpt>
      <trkpt lat="45.81516" lon="5.29591">
        <ele>211.6</ele>
        <time>2022-09-24T13:41:02Z</time>
      </trkpt>
      <trkpt lat="45.8152" lon="5.29594">
        <ele>211.6</ele>
        <time>2022-09-24T13:41:03Z</time>
      </trkpt>
      <trkpt lat="45.81521" lon="5.29595">
        <ele>211.6</ele>
        <time>2022-09-24T13:41:04Z</time>
      </trkpt>
      <trkpt lat="45.81522" lon="5.29597">
        <ele>211.6</ele>
        <time>2022-09-24T13:41:05Z</time>
      </trkpt>
      <trkpt lat="45.81524" lon="5.29597">
        <ele>211.6</ele>
        <time>2022-09-24T13:41:06Z</time>
      </trkpt>
      <trkpt lat="45.81523" lon="5.29597">
        <ele>211.6</ele>
        <time>2022-09-24T13:41:07Z</time>
      </trkpt>
      <trkpt lat="45.81523" lon="5.29597">
        <ele>211.6</ele>
        <time>2022-09-24T13:41:08Z</time>
      </trkpt>
      <trkpt lat="45.81523" lon="5.29597">
        <ele>211.6</ele>
        <time>2022-09-24T13:41:09Z</time>
      </trkpt>
      <trkpt lat="45.81525" lon="5.29597">
        <ele>211.6</ele>
        <time>2022-09-24T13:41:10Z</time>
      </trkpt>
      <trkpt lat="45.81527" lon="5.29597">
        <ele>211.6</ele>
        <time>2022-09-24T13:41:11Z</time>
      </trkpt>
      <trkpt lat="45.81531" lon="5.29598">
        <ele>211.6</ele>
        <time>2022-09-24T13:41:12Z</time>
      </trkpt>
      <trkpt lat="45.81532" lon="5.29599">
        <ele>211.5</ele>
        <time>2022-09-24T13:41:13Z</time>
      </trkpt>
      <trkpt lat="45.81535" lon="5.29601">
        <ele>211.5</ele>
        <time>2022-09-24T13:41:14Z</time>
      </trkpt>
      <trkpt lat="45.81538" lon="5.29605">
        <ele>211.5</ele>
        <time>2022-09-24T13:41:15Z</time>
      </trkpt>
      <trkpt lat="45.8154" lon="5.29609">
        <ele>211.5</ele>
        <time>2022-09-24T13:41:16Z</time>
      </trkpt>
      <trkpt lat="45.81543" lon="5.29613">
        <ele>211.5</ele>
        <time>2022-09-24T13:41:17Z</time>
      </trkpt>
      <trkpt lat="45.81546" lon="5.29617">
        <ele>211.4</ele>
        <time>2022-09-24T13:41:18Z</time>
      </trkpt>
      <trkpt lat="45.81549" lon="5.29622">
        <ele>211.4</ele>
        <time>2022-09-24T13:41:19Z</time>
      </trkpt>
      <trkpt lat="45.81554" lon="5.29625">
        <ele>211.3</ele>
        <time>2022-09-24T13:41:20Z</time>
      </trkpt>
      <trkpt lat="45.81558" lon="5.2963">
        <ele>211.3</ele>
        <time>2022-09-24T13:41:21Z</time>
      </trkpt>
      <trkpt lat="45.81562" lon="5.29634">
        <ele>211.2</ele>
        <time>2022-09-24T13:41:22Z</time>
      </trkpt>
      <trkpt lat="45.81565" lon="5.29638">
        <ele>211.2</ele>
        <time>2022-09-24T13:41:23Z</time>
      </trkpt>
      <trkpt lat="45.81568" lon="5.29642">
        <ele>211.1</ele>
        <time>2022-09-24T13:41:24Z</time>
      </trkpt>
      <trkpt lat="45.81571" lon="5.29646">
        <ele>211.1</ele>
        <time>2022-09-24T13:41:25Z</time>
      </trkpt>
      <trkpt lat="45.81574" lon="5.2965">
        <ele>211</ele>
        <time>2022-09-24T13:41:26Z</time>
      </trkpt>
      <trkpt lat="45.81578" lon="5.29654">
        <ele>211</ele>
        <time>2022-09-24T13:41:27Z</time>
      </trkpt>
      <trkpt lat="45.81581" lon="5.29658">
        <ele>211</ele>
        <time>2022-09-24T13:41:28Z</time>
      </trkpt>
      <trkpt lat="45.81585" lon="5.29663">
        <ele>210.9</ele>
        <time>2022-09-24T13:41:29Z</time>
      </trkpt>
      <trkpt lat="45.81588" lon="5.29667">
        <ele>210.9</ele>
        <time>2022-09-24T13:41:30Z</time>
      </trkpt>
      <trkpt lat="45.81592" lon="5.29672">
        <ele>210.9</ele>
        <time>2022-09-24T13:41:31Z</time>
      </trkpt>
      <trkpt lat="45.81595" lon="5.29676">
        <ele>210.8</ele>
        <time>2022-09-24T13:41:32Z</time>
      </trkpt>
      <trkpt lat="45.81599" lon="5.29681">
        <ele>210.8</ele>
        <time>2022-09-24T13:41:33Z</time>
      </trkpt>
      <trkpt lat="45.81603" lon="5.29684">
        <ele>210.8</ele>
        <time>2022-09-24T13:41:34Z</time>
      </trkpt>
      <trkpt lat="45.81608" lon="5.29688">
        <ele>210.8</ele>
        <time>2022-09-24T13:41:35Z</time>
      </trkpt>
      <trkpt lat="45.81612" lon="5.29691">
        <ele>210.7</ele>
        <time>2022-09-24T13:41:36Z</time>
      </trkpt>
      <trkpt lat="45.81616" lon="5.29694">
        <ele>210.7</ele>
        <time>2022-09-24T13:41:37Z</time>
      </trkpt>
      <trkpt lat="45.81622" lon="5.29696">
        <ele>210.7</ele>
        <time>2022-09-24T13:41:38Z</time>
      </trkpt>
      <trkpt lat="45.81627" lon="5.29698">
        <ele>210.7</ele>
        <time>2022-09-24T13:41:39Z</time>
      </trkpt>
      <trkpt lat="45.81632" lon="5.29699">
        <ele>210.7</ele>
        <time>2022-09-24T13:41:40Z</time>
      </trkpt>
      <trkpt lat="45.81637" lon="5.297">
        <ele>210.7</ele>
        <time>2022-09-24T13:41:41Z</time>
      </trkpt>
      <trkpt lat="45.81641" lon="5.297">
        <ele>210.7</ele>
        <time>2022-09-24T13:41:42Z</time>
      </trkpt>
      <trkpt lat="45.81646" lon="5.297">
        <ele>210.7</ele>
        <time>2022-09-24T13:41:43Z</time>
      </trkpt>
      <trkpt lat="45.81652" lon="5.297">
        <ele>210.8</ele>
        <time>2022-09-24T13:41:44Z</time>
      </trkpt>
      <trkpt lat="45.81656" lon="5.297">
        <ele>210.8</ele>
        <time>2022-09-24T13:41:45Z</time>
      </trkpt>
      <trkpt lat="45.81661" lon="5.297">
        <ele>210.8</ele>
        <time>2022-09-24T13:41:46Z</time>
      </trkpt>
      <trkpt lat="45.81666" lon="5.297">
        <ele>210.8</ele>
        <time>2022-09-24T13:41:47Z</time>
      </trkpt>
      <trkpt lat="45.81671" lon="5.29701">
        <ele>210.9</ele>
        <time>2022-09-24T13:41:48Z</time>
      </trkpt>
      <trkpt lat="45.81676" lon="5.29702">
        <ele>210.9</ele>
        <time>2022-09-24T13:41:49Z</time>
      </trkpt>
      <trkpt lat="45.81681" lon="5.29704">
        <ele>210.9</ele>
        <time>2022-09-24T13:41:50Z</time>
      </trkpt>
      <trkpt lat="45.81686" lon="5.29706">
        <ele>210.9</ele>
        <time>2022-09-24T13:41:51Z</time>
      </trkpt>
      <trkpt lat="45.8169" lon="5.29709">
        <ele>210.9</ele>
        <time>2022-09-24T13:41:52Z</time>
      </trkpt>
      <trkpt lat="45.81695" lon="5.29711">
        <ele>211</ele>
        <time>2022-09-24T13:41:53Z</time>
      </trkpt>
      <trkpt lat="45.81699" lon="5.29715">
        <ele>211</ele>
        <time>2022-09-24T13:41:54Z</time>
      </trkpt>
      <trkpt lat="45.81703" lon="5.29718">
        <ele>211</ele>
        <time>2022-09-24T13:41:55Z</time>
      </trkpt>
      <trkpt lat="45.81707" lon="5.29722">
        <ele>211</ele>
        <time>2022-09-24T13:41:56Z</time>
      </trkpt>
      <trkpt lat="45.81711" lon="5.29725">
        <ele>211</ele>
        <time>2022-09-24T13:41:57Z</time>
      </trkpt>
      <trkpt lat="45.81715" lon="5.29728">
        <ele>211</ele>
        <time>2022-09-24T13:41:58Z</time>
      </trkpt>
      <trkpt lat="45.81719" lon="5.29731">
        <ele>211</ele>
        <time>2022-09-24T13:41:59Z</time>
      </trkpt>
      <trkpt lat="45.81723" lon="5.29735">
        <ele>211</ele>
        <time>2022-09-24T13:42:00Z</time>
      </trkpt>
      <trkpt lat="45.81726" lon="5.2974">
        <ele>210.9</ele>
        <time>2022-09-24T13:42:01Z</time>
      </trkpt>
      <trkpt lat="45.8173" lon="5.29744">
        <ele>210.9</ele>
        <time>2022-09-24T13:42:02Z</time>
      </trkpt>
      <trkpt lat="45.81734" lon="5.29749">
        <ele>210.9</ele>
        <time>2022-09-24T13:42:03Z</time>
      </trkpt>
      <trkpt lat="45.81739" lon="5.29753">
        <ele>210.9</ele>
        <time>2022-09-24T13:42:04Z</time>
      </trkpt>
      <trkpt lat="45.81743" lon="5.29757">
        <ele>210.8</ele>
        <time>2022-09-24T13:42:05Z</time>
      </trkpt>
      <trkpt lat="45.81747" lon="5.29762">
        <ele>210.8</ele>
        <time>2022-09-24T13:42:06Z</time>
      </trkpt>
      <trkpt lat="45.81751" lon="5.29765">
        <ele>210.7</ele>
        <time>2022-09-24T13:42:07Z</time>
      </trkpt>
      <trkpt lat="45.81755" lon="5.2977">
        <ele>210.6</ele>
        <time>2022-09-24T13:42:08Z</time>
      </trkpt>
      <trkpt lat="45.81758" lon="5.29774">
        <ele>210.5</ele>
        <time>2022-09-24T13:42:09Z</time>
      </trkpt>
      <trkpt lat="45.81762" lon="5.29778">
        <ele>210.4</ele>
        <time>2022-09-24T13:42:10Z</time>
      </trkpt>
      <trkpt lat="45.81766" lon="5.29782">
        <ele>210.3</ele>
        <time>2022-09-24T13:42:11Z</time>
      </trkpt>
      <trkpt lat="45.81771" lon="5.29785">
        <ele>210.1</ele>
        <time>2022-09-24T13:42:12Z</time>
      </trkpt>
      <trkpt lat="45.81775" lon="5.29788">
        <ele>210</ele>
        <time>2022-09-24T13:42:13Z</time>
      </trkpt>
      <trkpt lat="45.8178" lon="5.29792">
        <ele>210.1</ele>
        <time>2022-09-24T13:42:14Z</time>
      </trkpt>
      <trkpt lat="45.81784" lon="5.29796">
        <ele>210.2</ele>
        <time>2022-09-24T13:42:15Z</time>
      </trkpt>
      <trkpt lat="45.81788" lon="5.29801">
        <ele>210.3</ele>
        <time>2022-09-24T13:42:16Z</time>
      </trkpt>
      <trkpt lat="45.81792" lon="5.29806">
        <ele>210.4</ele>
        <time>2022-09-24T13:42:17Z</time>
      </trkpt>
      <trkpt lat="45.81795" lon="5.2981">
        <ele>210.4</ele>
        <time>2022-09-24T13:42:18Z</time>
      </trkpt>
      <trkpt lat="45.81799" lon="5.29814">
        <ele>210.4</ele>
        <time>2022-09-24T13:42:19Z</time>
      </trkpt>
      <trkpt lat="45.81803" lon="5.29817">
        <ele>210.5</ele>
        <time>2022-09-24T13:42:20Z</time>
      </trkpt>
      <trkpt lat="45.81806" lon="5.29821">
        <ele>210.5</ele>
        <time>2022-09-24T13:42:21Z</time>
      </trkpt>
      <trkpt lat="45.8181" lon="5.29825">
        <ele>210.5</ele>
        <time>2022-09-24T13:42:22Z</time>
      </trkpt>
      <trkpt lat="45.81814" lon="5.29828">
        <ele>210.4</ele>
        <time>2022-09-24T13:42:23Z</time>
      </trkpt>
      <trkpt lat="45.81817" lon="5.29832">
        <ele>210.4</ele>
        <time>2022-09-24T13:42:24Z</time>
      </trkpt>
      <trkpt lat="45.81821" lon="5.29835">
        <ele>210.3</ele>
        <time>2022-09-24T13:42:25Z</time>
      </trkpt>
      <trkpt lat="45.81824" lon="5.29838">
        <ele>210.2</ele>
        <time>2022-09-24T13:42:26Z</time>
      </trkpt>
      <trkpt lat="45.81828" lon="5.29842">
        <ele>210.1</ele>
        <time>2022-09-24T13:42:27Z</time>
      </trkpt>
      <trkpt lat="45.81832" lon="5.29847">
        <ele>210</ele>
        <time>2022-09-24T13:42:28Z</time>
      </trkpt>
      <trkpt lat="45.81836" lon="5.29851">
        <ele>209.9</ele>
        <time>2022-09-24T13:42:29Z</time>
      </trkpt>
      <trkpt lat="45.81839" lon="5.29855">
        <ele>209.8</ele>
        <time>2022-09-24T13:42:30Z</time>
      </trkpt>
      <trkpt lat="45.81843" lon="5.29859">
        <ele>209.6</ele>
        <time>2022-09-24T13:42:31Z</time>
      </trkpt>
      <trkpt lat="45.81848" lon="5.29863">
        <ele>209.5</ele>
        <time>2022-09-24T13:42:32Z</time>
      </trkpt>
      <trkpt lat="45.81852" lon="5.29867">
        <ele>209.4</ele>
        <time>2022-09-24T13:42:33Z</time>
      </trkpt>
      <trkpt lat="45.81856" lon="5.29872">
        <ele>209.2</ele>
        <time>2022-09-24T13:42:34Z</time>
      </trkpt>
      <trkpt lat="45.8186" lon="5.29877">
        <ele>209.1</ele>
        <time>2022-09-24T13:42:35Z</time>
      </trkpt>
      <trkpt lat="45.81864" lon="5.29882">
        <ele>209</ele>
        <time>2022-09-24T13:42:36Z</time>
      </trkpt>
      <trkpt lat="45.81868" lon="5.29886">
        <ele>208.9</ele>
        <time>2022-09-24T13:42:37Z</time>
      </trkpt>
      <trkpt lat="45.81873" lon="5.29889">
        <ele>208.9</ele>
        <time>2022-09-24T13:42:38Z</time>
      </trkpt>
      <trkpt lat="45.81877" lon="5.29893">
        <ele>208.9</ele>
        <time>2022-09-24T13:42:39Z</time>
      </trkpt>
      <trkpt lat="45.81882" lon="5.29895">
        <ele>208.9</ele>
        <time>2022-09-24T13:42:40Z</time>
      </trkpt>
      <trkpt lat="45.81887" lon="5.29897">
        <ele>208.9</ele>
        <time>2022-09-24T13:42:41Z</time>
      </trkpt>
      <trkpt lat="45.81892" lon="5.29898">
        <ele>209</ele>
        <time>2022-09-24T13:42:42Z</time>
      </trkpt>
      <trkpt lat="45.81897" lon="5.299">
        <ele>209.1</ele>
        <time>2022-09-24T13:42:43Z</time>
      </trkpt>
      <trkpt lat="45.81902" lon="5.299">
        <ele>209.2</ele>
        <time>2022-09-24T13:42:44Z</time>
      </trkpt>
      <trkpt lat="45.81907" lon="5.29901">
        <ele>209.4</ele>
        <time>2022-09-24T13:42:45Z</time>
      </trkpt>
      <trkpt lat="45.81912" lon="5.29902">
        <ele>209.6</ele>
        <time>2022-09-24T13:42:46Z</time>
      </trkpt>
      <trkpt lat="45.81917" lon="5.29903">
        <ele>209.8</ele>
        <time>2022-09-24T13:42:47Z</time>
      </trkpt>
      <trkpt lat="45.81922" lon="5.29903">
        <ele>210.2</ele>
        <time>2022-09-24T13:42:48Z</time>
      </trkpt>
      <trkpt lat="45.81926" lon="5.29904">
        <ele>210.4</ele>
        <time>2022-09-24T13:42:49Z</time>
      </trkpt>
      <trkpt lat="45.8193" lon="5.29904">
        <ele>210.7</ele>
        <time>2022-09-24T13:42:50Z</time>
      </trkpt>
      <trkpt lat="45.81934" lon="5.29905">
        <ele>210.9</ele>
        <time>2022-09-24T13:42:51Z</time>
      </trkpt>
      <trkpt lat="45.81939" lon="5.29907">
        <ele>211.2</ele>
        <time>2022-09-24T13:42:52Z</time>
      </trkpt>
      <trkpt lat="45.81943" lon="5.29909">
        <ele>211.3</ele>
        <time>2022-09-24T13:42:53Z</time>
      </trkpt>
      <trkpt lat="45.81946" lon="5.29911">
        <ele>211.4</ele>
        <time>2022-09-24T13:42:54Z</time>
      </trkpt>
      <trkpt lat="45.81949" lon="5.29913">
        <ele>211.4</ele>
        <time>2022-09-24T13:42:55Z</time>
      </trkpt>
      <trkpt lat="45.81951" lon="5.29915">
        <ele>211.5</ele>
        <time>2022-09-24T13:42:56Z</time>
      </trkpt>
      <trkpt lat="45.81954" lon="5.29917">
        <ele>211.4</ele>
        <time>2022-09-24T13:42:57Z</time>
      </trkpt>
      <trkpt lat="45.81957" lon="5.2992">
        <ele>211.3</ele>
        <time>2022-09-24T13:42:58Z</time>
      </trkpt>
      <trkpt lat="45.81962" lon="5.29925">
        <ele>211.1</ele>
        <time>2022-09-24T13:42:59Z</time>
      </trkpt>
      <trkpt lat="45.81968" lon="5.29928">
        <ele>210.9</ele>
        <time>2022-09-24T13:43:00Z</time>
      </trkpt>
      <trkpt lat="45.81973" lon="5.29931">
        <ele>210.7</ele>
        <time>2022-09-24T13:43:01Z</time>
      </trkpt>
      <trkpt lat="45.81979" lon="5.29935">
        <ele>210.4</ele>
        <time>2022-09-24T13:43:02Z</time>
      </trkpt>
      <trkpt lat="45.81984" lon="5.29939">
        <ele>210.3</ele>
        <time>2022-09-24T13:43:03Z</time>
      </trkpt>
      <trkpt lat="45.8199" lon="5.29943">
        <ele>210.1</ele>
        <time>2022-09-24T13:43:04Z</time>
      </trkpt>
      <trkpt lat="45.81995" lon="5.29947">
        <ele>210</ele>
        <time>2022-09-24T13:43:05Z</time>
      </trkpt>
      <trkpt lat="45.82" lon="5.29951">
        <ele>209.9</ele>
        <time>2022-09-24T13:43:06Z</time>
      </trkpt>
      <trkpt lat="45.82004" lon="5.29956">
        <ele>209.8</ele>
        <time>2022-09-24T13:43:07Z</time>
      </trkpt>
      <trkpt lat="45.82009" lon="5.29961">
        <ele>209.7</ele>
        <time>2022-09-24T13:43:08Z</time>
      </trkpt>
      <trkpt lat="45.82014" lon="5.29965">
        <ele>209.6</ele>
        <time>2022-09-24T13:43:09Z</time>
      </trkpt>
      <trkpt lat="45.82019" lon="5.29968">
        <ele>209.5</ele>
        <time>2022-09-24T13:43:10Z</time>
      </trkpt>
      <trkpt lat="45.82023" lon="5.29973">
        <ele>209.4</ele>
        <time>2022-09-24T13:43:11Z</time>
      </trkpt>
      <trkpt lat="45.82028" lon="5.29977">
        <ele>209.3</ele>
        <time>2022-09-24T13:43:12Z</time>
      </trkpt>
      <trkpt lat="45.82032" lon="5.2998">
        <ele>209.2</ele>
        <time>2022-09-24T13:43:13Z</time>
      </trkpt>
      <trkpt lat="45.82038" lon="5.29984">
        <ele>209.1</ele>
        <time>2022-09-24T13:43:14Z</time>
      </trkpt>
      <trkpt lat="45.82042" lon="5.29989">
        <ele>209</ele>
        <time>2022-09-24T13:43:15Z</time>
      </trkpt>
      <trkpt lat="45.82047" lon="5.29992">
        <ele>208.9</ele>
        <time>2022-09-24T13:43:16Z</time>
      </trkpt>
      <trkpt lat="45.82052" lon="5.29995">
        <ele>208.8</ele>
        <time>2022-09-24T13:43:17Z</time>
      </trkpt>
      <trkpt lat="45.82056" lon="5.3">
        <ele>208.6</ele>
        <time>2022-09-24T13:43:18Z</time>
      </trkpt>
      <trkpt lat="45.8206" lon="5.30004">
        <ele>208.5</ele>
        <time>2022-09-24T13:43:19Z</time>
      </trkpt>
      <trkpt lat="45.82066" lon="5.30008">
        <ele>208.3</ele>
        <time>2022-09-24T13:43:20Z</time>
      </trkpt>
      <trkpt lat="45.82071" lon="5.30012">
        <ele>208.1</ele>
        <time>2022-09-24T13:43:21Z</time>
      </trkpt>
      <trkpt lat="45.82076" lon="5.30016">
        <ele>207.9</ele>
        <time>2022-09-24T13:43:22Z</time>
      </trkpt>
      <trkpt lat="45.82081" lon="5.30019">
        <ele>207.7</ele>
        <time>2022-09-24T13:43:23Z</time>
      </trkpt>
      <trkpt lat="45.82086" lon="5.30023">
        <ele>207.5</ele>
        <time>2022-09-24T13:43:24Z</time>
      </trkpt>
      <trkpt lat="45.82091" lon="5.30027">
        <ele>207.3</ele>
        <time>2022-09-24T13:43:25Z</time>
      </trkpt>
      <trkpt lat="45.82096" lon="5.30031">
        <ele>207.1</ele>
        <time>2022-09-24T13:43:26Z</time>
      </trkpt>
      <trkpt lat="45.82102" lon="5.30036">
        <ele>206.9</ele>
        <time>2022-09-24T13:43:27Z</time>
      </trkpt>
      <trkpt lat="45.82108" lon="5.3004">
        <ele>206.7</ele>
        <time>2022-09-24T13:43:28Z</time>
      </trkpt>
      <trkpt lat="45.82113" lon="5.30045">
        <ele>206.5</ele>
        <time>2022-09-24T13:43:29Z</time>
      </trkpt>
      <trkpt lat="45.82118" lon="5.30048">
        <ele>206.3</ele>
        <time>2022-09-24T13:43:30Z</time>
      </trkpt>
      <trkpt lat="45.82123" lon="5.30052">
        <ele>206</ele>
        <time>2022-09-24T13:43:31Z</time>
      </trkpt>
      <trkpt lat="45.82128" lon="5.30056">
        <ele>205.7</ele>
        <time>2022-09-24T13:43:32Z</time>
      </trkpt>
      <trkpt lat="45.82133" lon="5.3006">
        <ele>205.3</ele>
        <time>2022-09-24T13:43:33Z</time>
      </trkpt>
      <trkpt lat="45.82138" lon="5.30065">
        <ele>204.9</ele>
        <time>2022-09-24T13:43:34Z</time>
      </trkpt>
      <trkpt lat="45.82142" lon="5.30069">
        <ele>204.6</ele>
        <time>2022-09-24T13:43:35Z</time>
      </trkpt>
      <trkpt lat="45.82147" lon="5.30074">
        <ele>204.2</ele>
        <time>2022-09-24T13:43:36Z</time>
      </trkpt>
      <trkpt lat="45.82151" lon="5.30081">
        <ele>203.8</ele>
        <time>2022-09-24T13:43:37Z</time>
      </trkpt>
      <trkpt lat="45.82154" lon="5.30088">
        <ele>203.3</ele>
        <time>2022-09-24T13:43:38Z</time>
      </trkpt>
      <trkpt lat="45.82158" lon="5.30097">
        <ele>202.8</ele>
        <time>2022-09-24T13:43:39Z</time>
      </trkpt>
      <trkpt lat="45.82162" lon="5.30105">
        <ele>202.5</ele>
        <time>2022-09-24T13:43:40Z</time>
      </trkpt>
      <trkpt lat="45.82167" lon="5.30113">
        <ele>202.2</ele>
        <time>2022-09-24T13:43:41Z</time>
      </trkpt>
      <trkpt lat="45.82173" lon="5.30118">
        <ele>202.1</ele>
        <time>2022-09-24T13:43:42Z</time>
      </trkpt>
      <trkpt lat="45.82181" lon="5.30122">
        <ele>202.2</ele>
        <time>2022-09-24T13:43:43Z</time>
      </trkpt>
      <trkpt lat="45.82188" lon="5.30122">
        <ele>202.4</ele>
        <time>2022-09-24T13:43:44Z</time>
      </trkpt>
      <trkpt lat="45.82195" lon="5.30124">
        <ele>202.7</ele>
        <time>2022-09-24T13:43:45Z</time>
      </trkpt>
      <trkpt lat="45.82201" lon="5.30125">
        <ele>203.2</ele>
        <time>2022-09-24T13:43:46Z</time>
      </trkpt>
      <trkpt lat="45.82207" lon="5.30128">
        <ele>203.8</ele>
        <time>2022-09-24T13:43:47Z</time>
      </trkpt>
      <trkpt lat="45.82211" lon="5.3013">
        <ele>204.2</ele>
        <time>2022-09-24T13:43:48Z</time>
      </trkpt>
      <trkpt lat="45.82215" lon="5.30135">
        <ele>204.8</ele>
        <time>2022-09-24T13:43:49Z</time>
      </trkpt>
      <trkpt lat="45.82218" lon="5.30139">
        <ele>205.3</ele>
        <time>2022-09-24T13:43:50Z</time>
      </trkpt>
      <trkpt lat="45.82221" lon="5.30143">
        <ele>205.8</ele>
        <time>2022-09-24T13:43:51Z</time>
      </trkpt>
      <trkpt lat="45.82224" lon="5.30148">
        <ele>206.2</ele>
        <time>2022-09-24T13:43:52Z</time>
      </trkpt>
      <trkpt lat="45.82226" lon="5.30152">
        <ele>206.6</ele>
        <time>2022-09-24T13:43:53Z</time>
      </trkpt>
      <trkpt lat="45.82228" lon="5.30156">
        <ele>206.9</ele>
        <time>2022-09-24T13:43:54Z</time>
      </trkpt>
      <trkpt lat="45.82231" lon="5.3016">
        <ele>207.3</ele>
        <time>2022-09-24T13:43:55Z</time>
      </trkpt>
      <trkpt lat="45.82234" lon="5.30165">
        <ele>207.7</ele>
        <time>2022-09-24T13:43:56Z</time>
      </trkpt>
      <trkpt lat="45.82237" lon="5.30169">
        <ele>208</ele>
        <time>2022-09-24T13:43:57Z</time>
      </trkpt>
      <trkpt lat="45.82239" lon="5.30173">
        <ele>208.3</ele>
        <time>2022-09-24T13:43:58Z</time>
      </trkpt>
      <trkpt lat="45.82242" lon="5.30177">
        <ele>208.6</ele>
        <time>2022-09-24T13:43:59Z</time>
      </trkpt>
      <trkpt lat="45.82245" lon="5.30181">
        <ele>208.8</ele>
        <time>2022-09-24T13:44:00Z</time>
      </trkpt>
      <trkpt lat="45.82248" lon="5.30185">
        <ele>209</ele>
        <time>2022-09-24T13:44:01Z</time>
      </trkpt>
      <trkpt lat="45.8225" lon="5.30189">
        <ele>209.2</ele>
        <time>2022-09-24T13:44:02Z</time>
      </trkpt>
      <trkpt lat="45.82253" lon="5.30193">
        <ele>209.4</ele>
        <time>2022-09-24T13:44:03Z</time>
      </trkpt>
      <trkpt lat="45.82255" lon="5.30197">
        <ele>209.5</ele>
        <time>2022-09-24T13:44:04Z</time>
      </trkpt>
      <trkpt lat="45.82258" lon="5.30201">
        <ele>209.7</ele>
        <time>2022-09-24T13:44:05Z</time>
      </trkpt>
      <trkpt lat="45.8226" lon="5.30204">
        <ele>209.8</ele>
        <time>2022-09-24T13:44:06Z</time>
      </trkpt>
      <trkpt lat="45.82263" lon="5.30209">
        <ele>209.9</ele>
        <time>2022-09-24T13:44:07Z</time>
      </trkpt>
      <trkpt lat="45.82266" lon="5.30213">
        <ele>210</ele>
        <time>2022-09-24T13:44:08Z</time>
      </trkpt>
      <trkpt lat="45.82268" lon="5.30217">
        <ele>210</ele>
        <time>2022-09-24T13:44:09Z</time>
      </trkpt>
      <trkpt lat="45.82271" lon="5.30221">
        <ele>210.1</ele>
        <time>2022-09-24T13:44:10Z</time>
      </trkpt>
      <trkpt lat="45.82274" lon="5.30226">
        <ele>210.1</ele>
        <time>2022-09-24T13:44:11Z</time>
      </trkpt>
      <trkpt lat="45.82277" lon="5.3023">
        <ele>210.1</ele>
        <time>2022-09-24T13:44:12Z</time>
      </trkpt>
      <trkpt lat="45.8228" lon="5.30235">
        <ele>210.1</ele>
        <time>2022-09-24T13:44:13Z</time>
      </trkpt>
      <trkpt lat="45.82283" lon="5.30239">
        <ele>210.1</ele>
        <time>2022-09-24T13:44:14Z</time>
      </trkpt>
      <trkpt lat="45.82286" lon="5.30244">
        <ele>210.1</ele>
        <time>2022-09-24T13:44:15Z</time>
      </trkpt>
      <trkpt lat="45.82289" lon="5.30248">
        <ele>210.1</ele>
        <time>2022-09-24T13:44:16Z</time>
      </trkpt>
      <trkpt lat="45.82292" lon="5.30254">
        <ele>210.1</ele>
        <time>2022-09-24T13:44:17Z</time>
      </trkpt>
      <trkpt lat="45.82294" lon="5.30257">
        <ele>210.1</ele>
        <time>2022-09-24T13:44:18Z</time>
      </trkpt>
      <trkpt lat="45.82297" lon="5.30262">
        <ele>210.2</ele>
        <time>2022-09-24T13:44:19Z</time>
      </trkpt>
      <trkpt lat="45.823" lon="5.30267">
        <ele>210.2</ele>
        <time>2022-09-24T13:44:20Z</time>
      </trkpt>
      <trkpt lat="45.82303" lon="5.30271">
        <ele>210.3</ele>
        <time>2022-09-24T13:44:21Z</time>
      </trkpt>
      <trkpt lat="45.82305" lon="5.30276">
        <ele>210.3</ele>
        <time>2022-09-24T13:44:22Z</time>
      </trkpt>
      <trkpt lat="45.82308" lon="5.30281">
        <ele>210.4</ele>
        <time>2022-09-24T13:44:23Z</time>
      </trkpt>
      <trkpt lat="45.82311" lon="5.30285">
        <ele>210.4</ele>
        <time>2022-09-24T13:44:24Z</time>
      </trkpt>
      <trkpt lat="45.82313" lon="5.30289">
        <ele>210.5</ele>
        <time>2022-09-24T13:44:25Z</time>
      </trkpt>
      <trkpt lat="45.82316" lon="5.30294">
        <ele>210.5</ele>
        <time>2022-09-24T13:44:26Z</time>
      </trkpt>
      <trkpt lat="45.82319" lon="5.30298">
        <ele>210.6</ele>
        <time>2022-09-24T13:44:27Z</time>
      </trkpt>
      <trkpt lat="45.82321" lon="5.30302">
        <ele>210.7</ele>
        <time>2022-09-24T13:44:28Z</time>
      </trkpt>
      <trkpt lat="45.82324" lon="5.30307">
        <ele>210.8</ele>
        <time>2022-09-24T13:44:29Z</time>
      </trkpt>
      <trkpt lat="45.82327" lon="5.30311">
        <ele>210.8</ele>
        <time>2022-09-24T13:44:30Z</time>
      </trkpt>
      <trkpt lat="45.82329" lon="5.30315">
        <ele>210.9</ele>
        <time>2022-09-24T13:44:31Z</time>
      </trkpt>
      <trkpt lat="45.82332" lon="5.30319">
        <ele>211</ele>
        <time>2022-09-24T13:44:32Z</time>
      </trkpt>
      <trkpt lat="45.82335" lon="5.30323">
        <ele>211</ele>
        <time>2022-09-24T13:44:33Z</time>
      </trkpt>
      <trkpt lat="45.82336" lon="5.30324">
        <ele>211</ele>
        <time>2022-09-24T13:44:34Z</time>
      </trkpt>
      <trkpt lat="45.82338" lon="5.30327">
        <ele>211</ele>
        <time>2022-09-24T13:44:35Z</time>
      </trkpt>
      <trkpt lat="45.8234" lon="5.30331">
        <ele>211</ele>
        <time>2022-09-24T13:44:36Z</time>
      </trkpt>
      <trkpt lat="45.82341" lon="5.30332">
        <ele>211</ele>
        <time>2022-09-24T13:44:37Z</time>
      </trkpt>
      <trkpt lat="45.82344" lon="5.30333">
        <ele>210.9</ele>
        <time>2022-09-24T13:44:38Z</time>
      </trkpt>
      <trkpt lat="45.82349" lon="5.3033">
        <ele>210</ele>
        <time>2022-09-24T13:44:39Z</time>
      </trkpt>
      <trkpt lat="45.82354" lon="5.30325">
        <ele>209.4</ele>
        <time>2022-09-24T13:44:40Z</time>
      </trkpt>
      <trkpt lat="45.82358" lon="5.30319">
        <ele>208.6</ele>
        <time>2022-09-24T13:44:41Z</time>
      </trkpt>
      <trkpt lat="45.82363" lon="5.30313">
        <ele>207.9</ele>
        <time>2022-09-24T13:44:42Z</time>
      </trkpt>
      <trkpt lat="45.82369" lon="5.30307">
        <ele>206.9</ele>
        <time>2022-09-24T13:44:43Z</time>
      </trkpt>
      <trkpt lat="45.82376" lon="5.30301">
        <ele>206</ele>
        <time>2022-09-24T13:44:44Z</time>
      </trkpt>
      <trkpt lat="45.82383" lon="5.30295">
        <ele>205</ele>
        <time>2022-09-24T13:44:45Z</time>
      </trkpt>
      <trkpt lat="45.82391" lon="5.30287">
        <ele>204.1</ele>
        <time>2022-09-24T13:44:46Z</time>
      </trkpt>
      <trkpt lat="45.82398" lon="5.30281">
        <ele>203.3</ele>
        <time>2022-09-24T13:44:47Z</time>
      </trkpt>
      <trkpt lat="45.82405" lon="5.30272">
        <ele>202.5</ele>
        <time>2022-09-24T13:44:48Z</time>
      </trkpt>
      <trkpt lat="45.82413" lon="5.30263">
        <ele>201.7</ele>
        <time>2022-09-24T13:44:49Z</time>
      </trkpt>
      <trkpt lat="45.8242" lon="5.30254">
        <ele>201.1</ele>
        <time>2022-09-24T13:44:50Z</time>
      </trkpt>
      <trkpt lat="45.82427" lon="5.30243">
        <ele>200.5</ele>
        <time>2022-09-24T13:44:51Z</time>
      </trkpt>
      <trkpt lat="45.82434" lon="5.30235">
        <ele>200</ele>
        <time>2022-09-24T13:44:52Z</time>
      </trkpt>
      <trkpt lat="45.82442" lon="5.30225">
        <ele>199.6</ele>
        <time>2022-09-24T13:44:53Z</time>
      </trkpt>
      <trkpt lat="45.82449" lon="5.30215">
        <ele>199.2</ele>
        <time>2022-09-24T13:44:54Z</time>
      </trkpt>
      <trkpt lat="45.82456" lon="5.30205">
        <ele>199</ele>
        <time>2022-09-24T13:44:55Z</time>
      </trkpt>
      <trkpt lat="45.82461" lon="5.30194">
        <ele>198.8</ele>
        <time>2022-09-24T13:44:56Z</time>
      </trkpt>
      <trkpt lat="45.82468" lon="5.30185">
        <ele>198.6</ele>
        <time>2022-09-24T13:44:57Z</time>
      </trkpt>
      <trkpt lat="45.82475" lon="5.30175">
        <ele>198.5</ele>
        <time>2022-09-24T13:44:58Z</time>
      </trkpt>
      <trkpt lat="45.82481" lon="5.30166">
        <ele>198.4</ele>
        <time>2022-09-24T13:44:59Z</time>
      </trkpt>
      <trkpt lat="45.82487" lon="5.30157">
        <ele>198.4</ele>
        <time>2022-09-24T13:45:00Z</time>
      </trkpt>
      <trkpt lat="45.82493" lon="5.30149">
        <ele>198.3</ele>
        <time>2022-09-24T13:45:01Z</time>
      </trkpt>
      <trkpt lat="45.825" lon="5.3014">
        <ele>198.3</ele>
        <time>2022-09-24T13:45:02Z</time>
      </trkpt>
      <trkpt lat="45.82505" lon="5.30131">
        <ele>198.3</ele>
        <time>2022-09-24T13:45:03Z</time>
      </trkpt>
      <trkpt lat="45.82512" lon="5.30123">
        <ele>198.3</ele>
        <time>2022-09-24T13:45:04Z</time>
      </trkpt>
      <trkpt lat="45.82518" lon="5.30115">
        <ele>198.4</ele>
        <time>2022-09-24T13:45:05Z</time>
      </trkpt>
      <trkpt lat="45.82523" lon="5.30107">
        <ele>198.4</ele>
        <time>2022-09-24T13:45:06Z</time>
      </trkpt>
      <trkpt lat="45.82529" lon="5.30099">
        <ele>198.4</ele>
        <time>2022-09-24T13:45:07Z</time>
      </trkpt>
      <trkpt lat="45.82535" lon="5.30091">
        <ele>198.3</ele>
        <time>2022-09-24T13:45:08Z</time>
      </trkpt>
      <trkpt lat="45.82541" lon="5.30082">
        <ele>198.3</ele>
        <time>2022-09-24T13:45:09Z</time>
      </trkpt>
      <trkpt lat="45.82547" lon="5.30074">
        <ele>198.2</ele>
        <time>2022-09-24T13:45:10Z</time>
      </trkpt>
      <trkpt lat="45.82552" lon="5.30065">
        <ele>198.2</ele>
        <time>2022-09-24T13:45:11Z</time>
      </trkpt>
      <trkpt lat="45.82558" lon="5.30057">
        <ele>198.1</ele>
        <time>2022-09-24T13:45:12Z</time>
      </trkpt>
      <trkpt lat="45.82563" lon="5.3005">
        <ele>197.9</ele>
        <time>2022-09-24T13:45:13Z</time>
      </trkpt>
      <trkpt lat="45.82569" lon="5.30043">
        <ele>197.8</ele>
        <time>2022-09-24T13:45:14Z</time>
      </trkpt>
      <trkpt lat="45.82574" lon="5.30036">
        <ele>197.7</ele>
        <time>2022-09-24T13:45:15Z</time>
      </trkpt>
      <trkpt lat="45.82579" lon="5.30029">
        <ele>197.7</ele>
        <time>2022-09-24T13:45:16Z</time>
      </trkpt>
      <trkpt lat="45.82584" lon="5.30022">
        <ele>197.6</ele>
        <time>2022-09-24T13:45:17Z</time>
      </trkpt>
      <trkpt lat="45.82587" lon="5.30017">
        <ele>197.6</ele>
        <time>2022-09-24T13:45:18Z</time>
      </trkpt>
      <trkpt lat="45.82591" lon="5.30011">
        <ele>197.6</ele>
        <time>2022-09-24T13:45:19Z</time>
      </trkpt>
      <trkpt lat="45.82596" lon="5.30005">
        <ele>197.6</ele>
        <time>2022-09-24T13:45:20Z</time>
      </trkpt>
      <trkpt lat="45.82604" lon="5.29993">
        <ele>197.8</ele>
        <time>2022-09-24T13:45:21Z</time>
      </trkpt>
      <trkpt lat="45.82608" lon="5.29987">
        <ele>197.9</ele>
        <time>2022-09-24T13:45:22Z</time>
      </trkpt>
      <trkpt lat="45.82611" lon="5.29982">
        <ele>198</ele>
        <time>2022-09-24T13:45:23Z</time>
      </trkpt>
      <trkpt lat="45.82614" lon="5.29977">
        <ele>198.1</ele>
        <time>2022-09-24T13:45:24Z</time>
      </trkpt>
      <trkpt lat="45.82618" lon="5.29971">
        <ele>198.1</ele>
        <time>2022-09-24T13:45:25Z</time>
      </trkpt>
      <trkpt lat="45.82621" lon="5.29967">
        <ele>198.2</ele>
        <time>2022-09-24T13:45:26Z</time>
      </trkpt>
      <trkpt lat="45.82624" lon="5.29965">
        <ele>198.3</ele>
        <time>2022-09-24T13:45:27Z</time>
      </trkpt>
      <trkpt lat="45.82628" lon="5.29964">
        <ele>198.3</ele>
        <time>2022-09-24T13:45:28Z</time>
      </trkpt>
      <trkpt lat="45.82632" lon="5.29966">
        <ele>198.3</ele>
        <time>2022-09-24T13:45:29Z</time>
      </trkpt>
      <trkpt lat="45.82635" lon="5.29968">
        <ele>198.3</ele>
        <time>2022-09-24T13:45:30Z</time>
      </trkpt>
      <trkpt lat="45.82639" lon="5.29972">
        <ele>198.2</ele>
        <time>2022-09-24T13:45:31Z</time>
      </trkpt>
      <trkpt lat="45.82642" lon="5.29976">
        <ele>198.2</ele>
        <time>2022-09-24T13:45:32Z</time>
      </trkpt>
      <trkpt lat="45.82646" lon="5.29979">
        <ele>198.2</ele>
        <time>2022-09-24T13:45:33Z</time>
      </trkpt>
      <trkpt lat="45.82649" lon="5.29981">
        <ele>198.2</ele>
        <time>2022-09-24T13:45:34Z</time>
      </trkpt>
      <trkpt lat="45.82653" lon="5.29984">
        <ele>198.2</ele>
        <time>2022-09-24T13:45:35Z</time>
      </trkpt>
      <trkpt lat="45.82656" lon="5.29986">
        <ele>198.2</ele>
        <time>2022-09-24T13:45:36Z</time>
      </trkpt>
      <trkpt lat="45.82659" lon="5.2999">
        <ele>198.3</ele>
        <time>2022-09-24T13:45:37Z</time>
      </trkpt>
      <trkpt lat="45.82662" lon="5.29992">
        <ele>198.3</ele>
        <time>2022-09-24T13:45:38Z</time>
      </trkpt>
      <trkpt lat="45.82665" lon="5.29995">
        <ele>198.3</ele>
        <time>2022-09-24T13:45:39Z</time>
      </trkpt>
      <trkpt lat="45.82669" lon="5.29998">
        <ele>198.3</ele>
        <time>2022-09-24T13:45:40Z</time>
      </trkpt>
      <trkpt lat="45.82673" lon="5.3">
        <ele>198.4</ele>
        <time>2022-09-24T13:45:41Z</time>
      </trkpt>
      <trkpt lat="45.82676" lon="5.30002">
        <ele>198.4</ele>
        <time>2022-09-24T13:45:42Z</time>
      </trkpt>
      <trkpt lat="45.8268" lon="5.30005">
        <ele>198.4</ele>
        <time>2022-09-24T13:45:43Z</time>
      </trkpt>
      <trkpt lat="45.82683" lon="5.30006">
        <ele>198.5</ele>
        <time>2022-09-24T13:45:44Z</time>
      </trkpt>
      <trkpt lat="45.82686" lon="5.30008">
        <ele>198.5</ele>
        <time>2022-09-24T13:45:45Z</time>
      </trkpt>
      <trkpt lat="45.8269" lon="5.30011">
        <ele>198.5</ele>
        <time>2022-09-24T13:45:46Z</time>
      </trkpt>
      <trkpt lat="45.82694" lon="5.30014">
        <ele>198.6</ele>
        <time>2022-09-24T13:45:47Z</time>
      </trkpt>
      <trkpt lat="45.82698" lon="5.30017">
        <ele>198.6</ele>
        <time>2022-09-24T13:45:48Z</time>
      </trkpt>
      <trkpt lat="45.82701" lon="5.30019">
        <ele>198.7</ele>
        <time>2022-09-24T13:45:49Z</time>
      </trkpt>
      <trkpt lat="45.82705" lon="5.30022">
        <ele>198.7</ele>
        <time>2022-09-24T13:45:50Z</time>
      </trkpt>
      <trkpt lat="45.8271" lon="5.30025">
        <ele>198.8</ele>
        <time>2022-09-24T13:45:51Z</time>
      </trkpt>
      <trkpt lat="45.82713" lon="5.30027">
        <ele>198.8</ele>
        <time>2022-09-24T13:45:52Z</time>
      </trkpt>
      <trkpt lat="45.82718" lon="5.3003">
        <ele>198.9</ele>
        <time>2022-09-24T13:45:53Z</time>
      </trkpt>
      <trkpt lat="45.82721" lon="5.30033">
        <ele>198.9</ele>
        <time>2022-09-24T13:45:54Z</time>
      </trkpt>
      <trkpt lat="45.82725" lon="5.30035">
        <ele>198.9</ele>
        <time>2022-09-24T13:45:55Z</time>
      </trkpt>
      <trkpt lat="45.82729" lon="5.30038">
        <ele>199</ele>
        <time>2022-09-24T13:45:56Z</time>
      </trkpt>
      <trkpt lat="45.82733" lon="5.30041">
        <ele>199</ele>
        <time>2022-09-24T13:45:57Z</time>
      </trkpt>
      <trkpt lat="45.82737" lon="5.30043">
        <ele>199.1</ele>
        <time>2022-09-24T13:45:58Z</time>
      </trkpt>
      <trkpt lat="45.82741" lon="5.30046">
        <ele>199.1</ele>
        <time>2022-09-24T13:45:59Z</time>
      </trkpt>
      <trkpt lat="45.82745" lon="5.30049">
        <ele>199.2</ele>
        <time>2022-09-24T13:46:00Z</time>
      </trkpt>
      <trkpt lat="45.82749" lon="5.30052">
        <ele>199.3</ele>
        <time>2022-09-24T13:46:01Z</time>
      </trkpt>
      <trkpt lat="45.82754" lon="5.30054">
        <ele>199.4</ele>
        <time>2022-09-24T13:46:02Z</time>
      </trkpt>
      <trkpt lat="45.82757" lon="5.30056">
        <ele>199.4</ele>
        <time>2022-09-24T13:46:03Z</time>
      </trkpt>
      <trkpt lat="45.82761" lon="5.30059">
        <ele>199.5</ele>
        <time>2022-09-24T13:46:04Z</time>
      </trkpt>
      <trkpt lat="45.82764" lon="5.30061">
        <ele>199.6</ele>
        <time>2022-09-24T13:46:05Z</time>
      </trkpt>
      <trkpt lat="45.82768" lon="5.30062">
        <ele>199.6</ele>
        <time>2022-09-24T13:46:06Z</time>
      </trkpt>
      <trkpt lat="45.82771" lon="5.30064">
        <ele>199.7</ele>
        <time>2022-09-24T13:46:07Z</time>
      </trkpt>
      <trkpt lat="45.82775" lon="5.30067">
        <ele>199.8</ele>
        <time>2022-09-24T13:46:08Z</time>
      </trkpt>
      <trkpt lat="45.82779" lon="5.3007">
        <ele>199.9</ele>
        <time>2022-09-24T13:46:09Z</time>
      </trkpt>
      <trkpt lat="45.82783" lon="5.30071">
        <ele>200</ele>
        <time>2022-09-24T13:46:10Z</time>
      </trkpt>
      <trkpt lat="45.82786" lon="5.30071">
        <ele>200.1</ele>
        <time>2022-09-24T13:46:11Z</time>
      </trkpt>
      <trkpt lat="45.82789" lon="5.30066">
        <ele>200.1</ele>
        <time>2022-09-24T13:46:12Z</time>
      </trkpt>
      <trkpt lat="45.8279" lon="5.30062">
        <ele>200.2</ele>
        <time>2022-09-24T13:46:13Z</time>
      </trkpt>
      <trkpt lat="45.82791" lon="5.30056">
        <ele>200.2</ele>
        <time>2022-09-24T13:46:14Z</time>
      </trkpt>
      <trkpt lat="45.82792" lon="5.3005">
        <ele>200.2</ele>
        <time>2022-09-24T13:46:15Z</time>
      </trkpt>
      <trkpt lat="45.82793" lon="5.30046">
        <ele>200.3</ele>
        <time>2022-09-24T13:46:16Z</time>
      </trkpt>
      <trkpt lat="45.82794" lon="5.30041">
        <ele>200.3</ele>
        <time>2022-09-24T13:46:17Z</time>
      </trkpt>
      <trkpt lat="45.82793" lon="5.30036">
        <ele>200.3</ele>
        <time>2022-09-24T13:46:18Z</time>
      </trkpt>
      <trkpt lat="45.82795" lon="5.30031">
        <ele>200.4</ele>
        <time>2022-09-24T13:46:19Z</time>
      </trkpt>
      <trkpt lat="45.82794" lon="5.30027">
        <ele>200.4</ele>
        <time>2022-09-24T13:46:20Z</time>
      </trkpt>
      <trkpt lat="45.82794" lon="5.30025">
        <ele>200.4</ele>
        <time>2022-09-24T13:46:21Z</time>
      </trkpt>
      <trkpt lat="45.82794" lon="5.30025">
        <ele>200.4</ele>
        <time>2022-09-24T13:46:22Z</time>
      </trkpt>
      <trkpt lat="45.82794" lon="5.30025">
        <ele>200.4</ele>
        <time>2022-09-24T13:46:23Z</time>
      </trkpt>
      <trkpt lat="45.82794" lon="5.30025">
        <ele>200.4</ele>
        <time>2022-09-24T13:46:24Z</time>
      </trkpt>
      <trkpt lat="45.82794" lon="5.30025">
        <ele>200.4</ele>
        <time>2022-09-24T13:46:25Z</time>
      </trkpt>
      <trkpt lat="45.82794" lon="5.30023">
        <ele>200.5</ele>
        <time>2022-09-24T13:46:26Z</time>
      </trkpt>
      <trkpt lat="45.82793" lon="5.30023">
        <ele>200.5</ele>
        <time>2022-09-24T13:46:27Z</time>
      </trkpt>
      <trkpt lat="45.82793" lon="5.30023">
        <ele>200.5</ele>
        <time>2022-09-24T13:46:28Z</time>
      </trkpt>
      <trkpt lat="45.82793" lon="5.30023">
        <ele>200.5</ele>
        <time>2022-09-24T13:46:29Z</time>
      </trkpt>
      <trkpt lat="45.82793" lon="5.3002">
        <ele>200.5</ele>
        <time>2022-09-24T13:46:30Z</time>
      </trkpt>
      <trkpt lat="45.82792" lon="5.30019">
        <ele>200.5</ele>
        <time>2022-09-24T13:46:31Z</time>
      </trkpt>
      <trkpt lat="45.82793" lon="5.30019">
        <ele>200.5</ele>
        <time>2022-09-24T13:46:32Z</time>
      </trkpt>
      <trkpt lat="45.82792" lon="5.30018">
        <ele>200.5</ele>
        <time>2022-09-24T13:46:33Z</time>
      </trkpt>
      <trkpt lat="45.82792" lon="5.30017">
        <ele>200.5</ele>
        <time>2022-09-24T13:46:34Z</time>
      </trkpt>
      <trkpt lat="45.82791" lon="5.30017">
        <ele>200.6</ele>
        <time>2022-09-24T13:46:35Z</time>
      </trkpt>
      <trkpt lat="45.82791" lon="5.30016">
        <ele>200.6</ele>
        <time>2022-09-24T13:46:36Z</time>
      </trkpt>
      <trkpt lat="45.82792" lon="5.30016">
        <ele>200.6</ele>
        <time>2022-09-24T13:46:37Z</time>
      </trkpt>
      <trkpt lat="45.82793" lon="5.30015">
        <ele>200.6</ele>
        <time>2022-09-24T13:46:38Z</time>
      </trkpt>
      <trkpt lat="45.82793" lon="5.30014">
        <ele>200.6</ele>
        <time>2022-09-24T13:46:39Z</time>
      </trkpt>
      <trkpt lat="45.82794" lon="5.30014">
        <ele>200.6</ele>
        <time>2022-09-24T13:46:40Z</time>
      </trkpt>
      <trkpt lat="45.82794" lon="5.30013">
        <ele>200.6</ele>
        <time>2022-09-24T13:46:41Z</time>
      </trkpt>
      <trkpt lat="45.82795" lon="5.30012">
        <ele>200.7</ele>
        <time>2022-09-24T13:46:42Z</time>
      </trkpt>
      <trkpt lat="45.82795" lon="5.30012">
        <ele>200.7</ele>
        <time>2022-09-24T13:46:43Z</time>
      </trkpt>
      <trkpt lat="45.82796" lon="5.30011">
        <ele>200.7</ele>
        <time>2022-09-24T13:46:44Z</time>
      </trkpt>
      <trkpt lat="45.82796" lon="5.3001">
        <ele>200.7</ele>
        <time>2022-09-24T13:46:45Z</time>
      </trkpt>
      <trkpt lat="45.82797" lon="5.3001">
        <ele>200.7</ele>
        <time>2022-09-24T13:46:46Z</time>
      </trkpt>
      <trkpt lat="45.82798" lon="5.30009">
        <ele>200.7</ele>
        <time>2022-09-24T13:46:47Z</time>
      </trkpt>
      <trkpt lat="45.82798" lon="5.30008">
        <ele>200.7</ele>
        <time>2022-09-24T13:46:48Z</time>
      </trkpt>
      <trkpt lat="45.82799" lon="5.30008">
        <ele>200.7</ele>
        <time>2022-09-24T13:46:49Z</time>
      </trkpt>
      <trkpt lat="45.82799" lon="5.30007">
        <ele>200.8</ele>
        <time>2022-09-24T13:46:50Z</time>
      </trkpt>
      <trkpt lat="45.828" lon="5.30006">
        <ele>200.8</ele>
        <time>2022-09-24T13:46:51Z</time>
      </trkpt>
      <trkpt lat="45.828" lon="5.30006">
        <ele>200.8</ele>
        <time>2022-09-24T13:46:52Z</time>
      </trkpt>
      <trkpt lat="45.82801" lon="5.30005">
        <ele>200.8</ele>
        <time>2022-09-24T13:46:53Z</time>
      </trkpt>
      <trkpt lat="45.82801" lon="5.30004">
        <ele>200.8</ele>
        <time>2022-09-24T13:46:54Z</time>
      </trkpt>
      <trkpt lat="45.82802" lon="5.30004">
        <ele>200.8</ele>
        <time>2022-09-24T13:58:57Z</time>
      </trkpt>
      <trkpt lat="45.82802" lon="5.30003">
        <ele>200.8</ele>
        <time>2022-09-24T13:58:58Z</time>
      </trkpt>
      <trkpt lat="45.82803" lon="5.3">
        <ele>200.9</ele>
        <time>2022-09-24T13:58:59Z</time>
      </trkpt>
      <trkpt lat="45.82804" lon="5.29999">
        <ele>200.9</ele>
        <time>2022-09-24T13:59:00Z</time>
      </trkpt>
      <trkpt lat="45.82807" lon="5.29994">
        <ele>201</ele>
        <time>2022-09-24T13:59:01Z</time>
      </trkpt>
      <trkpt lat="45.82808" lon="5.29992">
        <ele>201</ele>
        <time>2022-09-24T13:59:02Z</time>
      </trkpt>
      <trkpt lat="45.82809" lon="5.29986">
        <ele>201.1</ele>
        <time>2022-09-24T13:59:03Z</time>
      </trkpt>
      <trkpt lat="45.82811" lon="5.29982">
        <ele>201.2</ele>
        <time>2022-09-24T13:59:04Z</time>
      </trkpt>
      <trkpt lat="45.82812" lon="5.29979">
        <ele>201.2</ele>
        <time>2022-09-24T13:59:05Z</time>
      </trkpt>
      <trkpt lat="45.82813" lon="5.29976">
        <ele>201.3</ele>
        <time>2022-09-24T13:59:06Z</time>
      </trkpt>
      <trkpt lat="45.82816" lon="5.2997">
        <ele>201.3</ele>
        <time>2022-09-24T13:59:07Z</time>
      </trkpt>
      <trkpt lat="45.82817" lon="5.29968">
        <ele>201.4</ele>
        <time>2022-09-24T13:59:08Z</time>
      </trkpt>
      <trkpt lat="45.8282" lon="5.29963">
        <ele>201.4</ele>
        <time>2022-09-24T13:59:09Z</time>
      </trkpt>
      <trkpt lat="45.82822" lon="5.2996">
        <ele>201.5</ele>
        <time>2022-09-24T13:59:10Z</time>
      </trkpt>
      <trkpt lat="45.82824" lon="5.29955">
        <ele>201.5</ele>
        <time>2022-09-24T13:59:11Z</time>
      </trkpt>
      <trkpt lat="45.82825" lon="5.29951">
        <ele>201.6</ele>
        <time>2022-09-24T13:59:12Z</time>
      </trkpt>
      <trkpt lat="45.82827" lon="5.29946">
        <ele>201.6</ele>
        <time>2022-09-24T13:59:13Z</time>
      </trkpt>
      <trkpt lat="45.82829" lon="5.29942">
        <ele>201.7</ele>
        <time>2022-09-24T13:59:14Z</time>
      </trkpt>
      <trkpt lat="45.8283" lon="5.29937">
        <ele>201.7</ele>
        <time>2022-09-24T13:59:15Z</time>
      </trkpt>
      <trkpt lat="45.82832" lon="5.29932">
        <ele>201.8</ele>
        <time>2022-09-24T13:59:16Z</time>
      </trkpt>
      <trkpt lat="45.82833" lon="5.29928">
        <ele>201.8</ele>
        <time>2022-09-24T13:59:17Z</time>
      </trkpt>
      <trkpt lat="45.82834" lon="5.29925">
        <ele>201.9</ele>
        <time>2022-09-24T13:59:18Z</time>
      </trkpt>
      <trkpt lat="45.82835" lon="5.2992">
        <ele>201.9</ele>
        <time>2022-09-24T13:59:19Z</time>
      </trkpt>
      <trkpt lat="45.82835" lon="5.29919">
        <ele>201.9</ele>
        <time>2022-09-24T13:59:20Z</time>
      </trkpt>
      <trkpt lat="45.82835" lon="5.29914">
        <ele>202</ele>
        <time>2022-09-24T13:59:21Z</time>
      </trkpt>
      <trkpt lat="45.82835" lon="5.29913">
        <ele>202</ele>
        <time>2022-09-24T13:59:22Z</time>
      </trkpt>
      <trkpt lat="45.82835" lon="5.29912">
        <ele>202</ele>
        <time>2022-09-24T13:59:23Z</time>
      </trkpt>
      <trkpt lat="45.82836" lon="5.29912">
        <ele>202</ele>
        <time>2022-09-24T13:59:24Z</time>
      </trkpt>
      <trkpt lat="45.82836" lon="5.29911">
        <ele>202</ele>
        <time>2022-09-24T13:59:25Z</time>
      </trkpt>
      <trkpt lat="45.82837" lon="5.29911">
        <ele>202</ele>
        <time>2022-09-24T13:59:26Z</time>
      </trkpt>
      <trkpt lat="45.82837" lon="5.2991">
        <ele>202</ele>
        <time>2022-09-24T13:59:27Z</time>
      </trkpt>
      <trkpt lat="45.82838" lon="5.29909">
        <ele>202</ele>
        <time>2022-09-24T13:59:28Z</time>
      </trkpt>
      <trkpt lat="45.82838" lon="5.29909">
        <ele>202</ele>
        <time>2022-09-24T13:59:29Z</time>
      </trkpt>
      <trkpt lat="45.82841" lon="5.29909">
        <ele>202</ele>
        <time>2022-09-24T13:59:30Z</time>
      </trkpt>
      <trkpt lat="45.82843" lon="5.29908">
        <ele>202</ele>
        <time>2022-09-24T13:59:31Z</time>
      </trkpt>
      <trkpt lat="45.82845" lon="5.29909">
        <ele>202</ele>
        <time>2022-09-24T13:59:32Z</time>
      </trkpt>
      <trkpt lat="45.82846" lon="5.2991">
        <ele>202</ele>
        <time>2022-09-24T13:59:33Z</time>
      </trkpt>
      <trkpt lat="45.82849" lon="5.29911">
        <ele>202</ele>
        <time>2022-09-24T13:59:34Z</time>
      </trkpt>
      <trkpt lat="45.82852" lon="5.29913">
        <ele>202</ele>
        <time>2022-09-24T13:59:35Z</time>
      </trkpt>
      <trkpt lat="45.82856" lon="5.29915">
        <ele>202.1</ele>
        <time>2022-09-24T13:59:36Z</time>
      </trkpt>
      <trkpt lat="45.82859" lon="5.29916">
        <ele>202.1</ele>
        <time>2022-09-24T13:59:37Z</time>
      </trkpt>
      <trkpt lat="45.82863" lon="5.2992">
        <ele>202.1</ele>
        <time>2022-09-24T13:59:38Z</time>
      </trkpt>
      <trkpt lat="45.82867" lon="5.29922">
        <ele>202.1</ele>
        <time>2022-09-24T13:59:39Z</time>
      </trkpt>
      <trkpt lat="45.82871" lon="5.29924">
        <ele>202.1</ele>
        <time>2022-09-24T13:59:40Z</time>
      </trkpt>
      <trkpt lat="45.82876" lon="5.29926">
        <ele>202.1</ele>
        <time>2022-09-24T13:59:41Z</time>
      </trkpt>
      <trkpt lat="45.8288" lon="5.29929">
        <ele>202</ele>
        <time>2022-09-24T13:59:42Z</time>
      </trkpt>
      <trkpt lat="45.82884" lon="5.29932">
        <ele>202</ele>
        <time>2022-09-24T13:59:43Z</time>
      </trkpt>
      <trkpt lat="45.82888" lon="5.29935">
        <ele>202</ele>
        <time>2022-09-24T13:59:44Z</time>
      </trkpt>
      <trkpt lat="45.82893" lon="5.29938">
        <ele>202</ele>
        <time>2022-09-24T13:59:45Z</time>
      </trkpt>
      <trkpt lat="45.82897" lon="5.29939">
        <ele>202</ele>
        <time>2022-09-24T13:59:46Z</time>
      </trkpt>
      <trkpt lat="45.82901" lon="5.29942">
        <ele>202</ele>
        <time>2022-09-24T13:59:47Z</time>
      </trkpt>
      <trkpt lat="45.82907" lon="5.29945">
        <ele>202.1</ele>
        <time>2022-09-24T13:59:48Z</time>
      </trkpt>
      <trkpt lat="45.82911" lon="5.29948">
        <ele>202.1</ele>
        <time>2022-09-24T13:59:49Z</time>
      </trkpt>
      <trkpt lat="45.82916" lon="5.29951">
        <ele>202.2</ele>
        <time>2022-09-24T13:59:50Z</time>
      </trkpt>
      <trkpt lat="45.82921" lon="5.29954">
        <ele>202.2</ele>
        <time>2022-09-24T13:59:51Z</time>
      </trkpt>
      <trkpt lat="45.82925" lon="5.29956">
        <ele>202.3</ele>
        <time>2022-09-24T13:59:52Z</time>
      </trkpt>
      <trkpt lat="45.8293" lon="5.29959">
        <ele>202.4</ele>
        <time>2022-09-24T13:59:53Z</time>
      </trkpt>
      <trkpt lat="45.82935" lon="5.29962">
        <ele>202.4</ele>
        <time>2022-09-24T13:59:54Z</time>
      </trkpt>
      <trkpt lat="45.8294" lon="5.29965">
        <ele>202.5</ele>
        <time>2022-09-24T13:59:55Z</time>
      </trkpt>
      <trkpt lat="45.82944" lon="5.29967">
        <ele>202.6</ele>
        <time>2022-09-24T13:59:56Z</time>
      </trkpt>
      <trkpt lat="45.82949" lon="5.29969">
        <ele>202.7</ele>
        <time>2022-09-24T13:59:57Z</time>
      </trkpt>
      <trkpt lat="45.82953" lon="5.29972">
        <ele>202.7</ele>
        <time>2022-09-24T13:59:58Z</time>
      </trkpt>
      <trkpt lat="45.82956" lon="5.29974">
        <ele>202.8</ele>
        <time>2022-09-24T13:59:59Z</time>
      </trkpt>
      <trkpt lat="45.82961" lon="5.29978">
        <ele>202.8</ele>
        <time>2022-09-24T14:00:00Z</time>
      </trkpt>
      <trkpt lat="45.82965" lon="5.29979">
        <ele>202.9</ele>
        <time>2022-09-24T14:00:01Z</time>
      </trkpt>
      <trkpt lat="45.82969" lon="5.2998">
        <ele>202.9</ele>
        <time>2022-09-24T14:00:02Z</time>
      </trkpt>
      <trkpt lat="45.82972" lon="5.29984">
        <ele>202.9</ele>
        <time>2022-09-24T14:00:03Z</time>
      </trkpt>
      <trkpt lat="45.82977" lon="5.29987">
        <ele>202.9</ele>
        <time>2022-09-24T14:00:04Z</time>
      </trkpt>
      <trkpt lat="45.82982" lon="5.2999">
        <ele>202.9</ele>
        <time>2022-09-24T14:00:05Z</time>
      </trkpt>
      <trkpt lat="45.82987" lon="5.29993">
        <ele>203</ele>
        <time>2022-09-24T14:00:06Z</time>
      </trkpt>
      <trkpt lat="45.82991" lon="5.29995">
        <ele>203</ele>
        <time>2022-09-24T14:00:07Z</time>
      </trkpt>
      <trkpt lat="45.82996" lon="5.29998">
        <ele>203</ele>
        <time>2022-09-24T14:00:08Z</time>
      </trkpt>
      <trkpt lat="45.83001" lon="5.3">
        <ele>203</ele>
        <time>2022-09-24T14:00:09Z</time>
      </trkpt>
      <trkpt lat="45.83006" lon="5.30002">
        <ele>203</ele>
        <time>2022-09-24T14:00:10Z</time>
      </trkpt>
      <trkpt lat="45.8301" lon="5.30005">
        <ele>203.1</ele>
        <time>2022-09-24T14:00:11Z</time>
      </trkpt>
      <trkpt lat="45.83015" lon="5.30007">
        <ele>203.1</ele>
        <time>2022-09-24T14:00:12Z</time>
      </trkpt>
      <trkpt lat="45.83019" lon="5.30011">
        <ele>203.1</ele>
        <time>2022-09-24T14:00:13Z</time>
      </trkpt>
      <trkpt lat="45.83024" lon="5.30013">
        <ele>203.1</ele>
        <time>2022-09-24T14:00:14Z</time>
      </trkpt>
      <trkpt lat="45.83029" lon="5.30015">
        <ele>203.1</ele>
        <time>2022-09-24T14:00:15Z</time>
      </trkpt>
      <trkpt lat="45.83034" lon="5.30017">
        <ele>203.1</ele>
        <time>2022-09-24T14:00:16Z</time>
      </trkpt>
      <trkpt lat="45.83039" lon="5.3002">
        <ele>203</ele>
        <time>2022-09-24T14:00:17Z</time>
      </trkpt>
      <trkpt lat="45.83044" lon="5.30022">
        <ele>203</ele>
        <time>2022-09-24T14:00:18Z</time>
      </trkpt>
      <trkpt lat="45.83049" lon="5.30024">
        <ele>203</ele>
        <time>2022-09-24T14:00:19Z</time>
      </trkpt>
      <trkpt lat="45.83054" lon="5.30027">
        <ele>203</ele>
        <time>2022-09-24T14:00:20Z</time>
      </trkpt>
      <trkpt lat="45.83059" lon="5.30029">
        <ele>202.9</ele>
        <time>2022-09-24T14:00:21Z</time>
      </trkpt>
      <trkpt lat="45.83064" lon="5.30031">
        <ele>202.9</ele>
        <time>2022-09-24T14:00:22Z</time>
      </trkpt>
      <trkpt lat="45.83069" lon="5.30032">
        <ele>202.8</ele>
        <time>2022-09-24T14:00:23Z</time>
      </trkpt>
      <trkpt lat="45.83074" lon="5.30034">
        <ele>202.8</ele>
        <time>2022-09-24T14:00:24Z</time>
      </trkpt>
      <trkpt lat="45.83079" lon="5.30036">
        <ele>202.7</ele>
        <time>2022-09-24T14:00:25Z</time>
      </trkpt>
      <trkpt lat="45.83084" lon="5.30039">
        <ele>202.6</ele>
        <time>2022-09-24T14:00:26Z</time>
      </trkpt>
      <trkpt lat="45.83089" lon="5.30041">
        <ele>202.6</ele>
        <time>2022-09-24T14:00:27Z</time>
      </trkpt>
      <trkpt lat="45.83094" lon="5.30042">
        <ele>202.5</ele>
        <time>2022-09-24T14:00:28Z</time>
      </trkpt>
      <trkpt lat="45.83099" lon="5.30043">
        <ele>202.4</ele>
        <time>2022-09-24T14:00:29Z</time>
      </trkpt>
      <trkpt lat="45.83104" lon="5.30046">
        <ele>202.3</ele>
        <time>2022-09-24T14:00:30Z</time>
      </trkpt>
      <trkpt lat="45.83109" lon="5.30048">
        <ele>202.3</ele>
        <time>2022-09-24T14:00:31Z</time>
      </trkpt>
      <trkpt lat="45.83112" lon="5.3005">
        <ele>202.2</ele>
        <time>2022-09-24T14:00:32Z</time>
      </trkpt>
      <trkpt lat="45.83118" lon="5.30052">
        <ele>202.1</ele>
        <time>2022-09-24T14:00:33Z</time>
      </trkpt>
      <trkpt lat="45.83124" lon="5.30054">
        <ele>202.1</ele>
        <time>2022-09-24T14:00:34Z</time>
      </trkpt>
      <trkpt lat="45.83128" lon="5.30056">
        <ele>202</ele>
        <time>2022-09-24T14:00:35Z</time>
      </trkpt>
      <trkpt lat="45.83133" lon="5.30058">
        <ele>202</ele>
        <time>2022-09-24T14:00:36Z</time>
      </trkpt>
      <trkpt lat="45.83139" lon="5.3006">
        <ele>202</ele>
        <time>2022-09-24T14:00:37Z</time>
      </trkpt>
      <trkpt lat="45.83144" lon="5.30062">
        <ele>201.9</ele>
        <time>2022-09-24T14:00:38Z</time>
      </trkpt>
      <trkpt lat="45.8315" lon="5.30064">
        <ele>201.9</ele>
        <time>2022-09-24T14:00:39Z</time>
      </trkpt>
      <trkpt lat="45.83155" lon="5.30066">
        <ele>201.8</ele>
        <time>2022-09-24T14:00:40Z</time>
      </trkpt>
      <trkpt lat="45.8316" lon="5.30068">
        <ele>201.8</ele>
        <time>2022-09-24T14:00:41Z</time>
      </trkpt>
      <trkpt lat="45.83166" lon="5.30071">
        <ele>201.8</ele>
        <time>2022-09-24T14:00:42Z</time>
      </trkpt>
      <trkpt lat="45.83171" lon="5.30072">
        <ele>201.8</ele>
        <time>2022-09-24T14:00:43Z</time>
      </trkpt>
      <trkpt lat="45.83176" lon="5.30075">
        <ele>201.9</ele>
        <time>2022-09-24T14:00:44Z</time>
      </trkpt>
      <trkpt lat="45.83181" lon="5.30077">
        <ele>201.9</ele>
        <time>2022-09-24T14:00:45Z</time>
      </trkpt>
      <trkpt lat="45.83186" lon="5.30078">
        <ele>201.9</ele>
        <time>2022-09-24T14:00:46Z</time>
      </trkpt>
      <trkpt lat="45.83191" lon="5.30081">
        <ele>202</ele>
        <time>2022-09-24T14:00:47Z</time>
      </trkpt>
      <trkpt lat="45.83196" lon="5.30082">
        <ele>202</ele>
        <time>2022-09-24T14:00:48Z</time>
      </trkpt>
      <trkpt lat="45.83201" lon="5.30083">
        <ele>202</ele>
        <time>2022-09-24T14:00:49Z</time>
      </trkpt>
      <trkpt lat="45.83205" lon="5.30085">
        <ele>202.1</ele>
        <time>2022-09-24T14:00:50Z</time>
      </trkpt>
      <trkpt lat="45.83209" lon="5.30086">
        <ele>202.1</ele>
        <time>2022-09-24T14:00:51Z</time>
      </trkpt>
      <trkpt lat="45.83214" lon="5.30088">
        <ele>202.2</ele>
        <time>2022-09-24T14:00:52Z</time>
      </trkpt>
      <trkpt lat="45.8322" lon="5.3009">
        <ele>202.3</ele>
        <time>2022-09-24T14:00:53Z</time>
      </trkpt>
      <trkpt lat="45.83224" lon="5.30093">
        <ele>202.3</ele>
        <time>2022-09-24T14:00:54Z</time>
      </trkpt>
      <trkpt lat="45.83228" lon="5.30094">
        <ele>202.4</ele>
        <time>2022-09-24T14:00:55Z</time>
      </trkpt>
      <trkpt lat="45.83234" lon="5.30096">
        <ele>202.4</ele>
        <time>2022-09-24T14:00:56Z</time>
      </trkpt>
      <trkpt lat="45.83239" lon="5.30099">
        <ele>202.5</ele>
        <time>2022-09-24T14:00:57Z</time>
      </trkpt>
      <trkpt lat="45.83243" lon="5.30101">
        <ele>202.5</ele>
        <time>2022-09-24T14:00:58Z</time>
      </trkpt>
      <trkpt lat="45.83248" lon="5.30102">
        <ele>202.5</ele>
        <time>2022-09-24T14:00:59Z</time>
      </trkpt>
      <trkpt lat="45.83253" lon="5.30104">
        <ele>202.6</ele>
        <time>2022-09-24T14:01:00Z</time>
      </trkpt>
      <trkpt lat="45.83258" lon="5.30107">
        <ele>202.6</ele>
        <time>2022-09-24T14:01:01Z</time>
      </trkpt>
      <trkpt lat="45.83262" lon="5.30108">
        <ele>202.6</ele>
        <time>2022-09-24T14:01:02Z</time>
      </trkpt>
      <trkpt lat="45.83267" lon="5.30111">
        <ele>202.6</ele>
        <time>2022-09-24T14:01:03Z</time>
      </trkpt>
      <trkpt lat="45.83272" lon="5.30114">
        <ele>202.7</ele>
        <time>2022-09-24T14:01:04Z</time>
      </trkpt>
      <trkpt lat="45.83276" lon="5.30117">
        <ele>202.7</ele>
        <time>2022-09-24T14:01:05Z</time>
      </trkpt>
      <trkpt lat="45.83281" lon="5.30121">
        <ele>202.7</ele>
        <time>2022-09-24T14:01:06Z</time>
      </trkpt>
      <trkpt lat="45.83286" lon="5.30124">
        <ele>202.8</ele>
        <time>2022-09-24T14:01:07Z</time>
      </trkpt>
      <trkpt lat="45.8329" lon="5.30127">
        <ele>202.8</ele>
        <time>2022-09-24T14:01:08Z</time>
      </trkpt>
      <trkpt lat="45.83294" lon="5.3013">
        <ele>202.9</ele>
        <time>2022-09-24T14:01:09Z</time>
      </trkpt>
      <trkpt lat="45.83299" lon="5.30133">
        <ele>202.9</ele>
        <time>2022-09-24T14:01:10Z</time>
      </trkpt>
      <trkpt lat="45.83304" lon="5.30136">
        <ele>203</ele>
        <time>2022-09-24T14:01:11Z</time>
      </trkpt>
      <trkpt lat="45.83309" lon="5.30139">
        <ele>203</ele>
        <time>2022-09-24T14:01:12Z</time>
      </trkpt>
      <trkpt lat="45.83314" lon="5.30142">
        <ele>203.1</ele>
        <time>2022-09-24T14:01:13Z</time>
      </trkpt>
      <trkpt lat="45.83319" lon="5.30145">
        <ele>203.1</ele>
        <time>2022-09-24T14:01:14Z</time>
      </trkpt>
      <trkpt lat="45.83323" lon="5.30147">
        <ele>203.2</ele>
        <time>2022-09-24T14:01:15Z</time>
      </trkpt>
      <trkpt lat="45.83327" lon="5.30149">
        <ele>203.3</ele>
        <time>2022-09-24T14:01:16Z</time>
      </trkpt>
      <trkpt lat="45.83333" lon="5.30152">
        <ele>203.4</ele>
        <time>2022-09-24T14:01:17Z</time>
      </trkpt>
      <trkpt lat="45.83337" lon="5.30155">
        <ele>203.5</ele>
        <time>2022-09-24T14:01:18Z</time>
      </trkpt>
      <trkpt lat="45.83342" lon="5.30158">
        <ele>203.6</ele>
        <time>2022-09-24T14:01:19Z</time>
      </trkpt>
      <trkpt lat="45.83347" lon="5.3016">
        <ele>203.7</ele>
        <time>2022-09-24T14:01:20Z</time>
      </trkpt>
      <trkpt lat="45.83352" lon="5.30162">
        <ele>203.8</ele>
        <time>2022-09-24T14:01:21Z</time>
      </trkpt>
      <trkpt lat="45.83356" lon="5.30165">
        <ele>203.9</ele>
        <time>2022-09-24T14:01:22Z</time>
      </trkpt>
      <trkpt lat="45.8336" lon="5.30168">
        <ele>204</ele>
        <time>2022-09-24T14:01:23Z</time>
      </trkpt>
      <trkpt lat="45.83365" lon="5.3017">
        <ele>204.1</ele>
        <time>2022-09-24T14:01:24Z</time>
      </trkpt>
      <trkpt lat="45.83367" lon="5.30173">
        <ele>204.2</ele>
        <time>2022-09-24T14:01:25Z</time>
      </trkpt>
      <trkpt lat="45.83373" lon="5.30175">
        <ele>204.4</ele>
        <time>2022-09-24T14:01:26Z</time>
      </trkpt>
      <trkpt lat="45.83376" lon="5.30178">
        <ele>204.5</ele>
        <time>2022-09-24T14:01:27Z</time>
      </trkpt>
      <trkpt lat="45.83381" lon="5.3018">
        <ele>204.7</ele>
        <time>2022-09-24T14:01:28Z</time>
      </trkpt>
      <trkpt lat="45.83385" lon="5.30182">
        <ele>204.8</ele>
        <time>2022-09-24T14:01:29Z</time>
      </trkpt>
      <trkpt lat="45.8339" lon="5.30185">
        <ele>204.9</ele>
        <time>2022-09-24T14:01:30Z</time>
      </trkpt>
      <trkpt lat="45.83395" lon="5.30187">
        <ele>205.1</ele>
        <time>2022-09-24T14:01:31Z</time>
      </trkpt>
      <trkpt lat="45.83399" lon="5.30189">
        <ele>205.2</ele>
        <time>2022-09-24T14:01:32Z</time>
      </trkpt>
      <trkpt lat="45.83402" lon="5.30192">
        <ele>205.3</ele>
        <time>2022-09-24T14:01:33Z</time>
      </trkpt>
      <trkpt lat="45.83407" lon="5.30194">
        <ele>205.4</ele>
        <time>2022-09-24T14:01:34Z</time>
      </trkpt>
      <trkpt lat="45.83411" lon="5.30196">
        <ele>205.5</ele>
        <time>2022-09-24T14:01:35Z</time>
      </trkpt>
      <trkpt lat="45.83415" lon="5.30199">
        <ele>205.6</ele>
        <time>2022-09-24T14:01:36Z</time>
      </trkpt>
      <trkpt lat="45.83419" lon="5.30201">
        <ele>205.7</ele>
        <time>2022-09-24T14:01:37Z</time>
      </trkpt>
      <trkpt lat="45.83424" lon="5.30204">
        <ele>205.7</ele>
        <time>2022-09-24T14:01:38Z</time>
      </trkpt>
      <trkpt lat="45.83427" lon="5.30207">
        <ele>205.8</ele>
        <time>2022-09-24T14:01:39Z</time>
      </trkpt>
      <trkpt lat="45.83431" lon="5.30209">
        <ele>205.8</ele>
        <time>2022-09-24T14:01:40Z</time>
      </trkpt>
      <trkpt lat="45.83435" lon="5.30211">
        <ele>205.9</ele>
        <time>2022-09-24T14:01:41Z</time>
      </trkpt>
      <trkpt lat="45.8344" lon="5.30214">
        <ele>205.9</ele>
        <time>2022-09-24T14:01:42Z</time>
      </trkpt>
      <trkpt lat="45.83444" lon="5.30216">
        <ele>205.9</ele>
        <time>2022-09-24T14:01:43Z</time>
      </trkpt>
      <trkpt lat="45.83447" lon="5.30219">
        <ele>205.9</ele>
        <time>2022-09-24T14:01:44Z</time>
      </trkpt>
      <trkpt lat="45.83452" lon="5.30221">
        <ele>205.9</ele>
        <time>2022-09-24T14:01:45Z</time>
      </trkpt>
      <trkpt lat="45.83457" lon="5.30224">
        <ele>205.8</ele>
        <time>2022-09-24T14:01:46Z</time>
      </trkpt>
      <trkpt lat="45.83461" lon="5.30227">
        <ele>205.8</ele>
        <time>2022-09-24T14:01:47Z</time>
      </trkpt>
      <trkpt lat="45.83466" lon="5.3023">
        <ele>205.8</ele>
        <time>2022-09-24T14:01:48Z</time>
      </trkpt>
      <trkpt lat="45.83471" lon="5.30233">
        <ele>205.7</ele>
        <time>2022-09-24T14:01:49Z</time>
      </trkpt>
      <trkpt lat="45.83476" lon="5.30236">
        <ele>205.7</ele>
        <time>2022-09-24T14:01:50Z</time>
      </trkpt>
      <trkpt lat="45.83481" lon="5.30238">
        <ele>205.7</ele>
        <time>2022-09-24T14:01:51Z</time>
      </trkpt>
      <trkpt lat="45.83487" lon="5.30241">
        <ele>205.6</ele>
        <time>2022-09-24T14:01:52Z</time>
      </trkpt>
      <trkpt lat="45.83492" lon="5.30244">
        <ele>205.6</ele>
        <time>2022-09-24T14:01:53Z</time>
      </trkpt>
      <trkpt lat="45.83498" lon="5.30247">
        <ele>205.6</ele>
        <time>2022-09-24T14:01:54Z</time>
      </trkpt>
      <trkpt lat="45.83503" lon="5.3025">
        <ele>205.6</ele>
        <time>2022-09-24T14:01:55Z</time>
      </trkpt>
      <trkpt lat="45.83509" lon="5.30253">
        <ele>205.5</ele>
        <time>2022-09-24T14:01:56Z</time>
      </trkpt>
      <trkpt lat="45.83514" lon="5.30257">
        <ele>205.5</ele>
        <time>2022-09-24T14:01:57Z</time>
      </trkpt>
      <trkpt lat="45.8352" lon="5.3026">
        <ele>205.5</ele>
        <time>2022-09-24T14:01:58Z</time>
      </trkpt>
      <trkpt lat="45.83525" lon="5.30263">
        <ele>205.5</ele>
        <time>2022-09-24T14:01:59Z</time>
      </trkpt>
      <trkpt lat="45.83531" lon="5.30265">
        <ele>205.5</ele>
        <time>2022-09-24T14:02:00Z</time>
      </trkpt>
      <trkpt lat="45.83535" lon="5.30268">
        <ele>205.5</ele>
        <time>2022-09-24T14:02:01Z</time>
      </trkpt>
      <trkpt lat="45.8354" lon="5.3027">
        <ele>205.5</ele>
        <time>2022-09-24T14:02:02Z</time>
      </trkpt>
      <trkpt lat="45.83545" lon="5.30273">
        <ele>205.5</ele>
        <time>2022-09-24T14:02:03Z</time>
      </trkpt>
      <trkpt lat="45.8355" lon="5.30275">
        <ele>205.5</ele>
        <time>2022-09-24T14:02:04Z</time>
      </trkpt>
      <trkpt lat="45.83556" lon="5.30279">
        <ele>205.5</ele>
        <time>2022-09-24T14:02:05Z</time>
      </trkpt>
      <trkpt lat="45.83561" lon="5.30281">
        <ele>205.5</ele>
        <time>2022-09-24T14:02:06Z</time>
      </trkpt>
      <trkpt lat="45.83566" lon="5.30284">
        <ele>205.5</ele>
        <time>2022-09-24T14:02:07Z</time>
      </trkpt>
      <trkpt lat="45.8357" lon="5.30286">
        <ele>205.5</ele>
        <time>2022-09-24T14:02:08Z</time>
      </trkpt>
      <trkpt lat="45.83575" lon="5.3029">
        <ele>205.5</ele>
        <time>2022-09-24T14:02:09Z</time>
      </trkpt>
      <trkpt lat="45.83581" lon="5.30293">
        <ele>205.5</ele>
        <time>2022-09-24T14:02:10Z</time>
      </trkpt>
      <trkpt lat="45.83586" lon="5.30295">
        <ele>205.5</ele>
        <time>2022-09-24T14:02:11Z</time>
      </trkpt>
      <trkpt lat="45.83591" lon="5.30298">
        <ele>205.5</ele>
        <time>2022-09-24T14:02:12Z</time>
      </trkpt>
      <trkpt lat="45.83596" lon="5.30302">
        <ele>205.5</ele>
        <time>2022-09-24T14:02:13Z</time>
      </trkpt>
      <trkpt lat="45.83601" lon="5.30304">
        <ele>205.5</ele>
        <time>2022-09-24T14:02:14Z</time>
      </trkpt>
      <trkpt lat="45.83606" lon="5.30307">
        <ele>205.5</ele>
        <time>2022-09-24T14:02:15Z</time>
      </trkpt>
      <trkpt lat="45.8361" lon="5.3031">
        <ele>205.5</ele>
        <time>2022-09-24T14:02:16Z</time>
      </trkpt>
      <trkpt lat="45.83616" lon="5.30313">
        <ele>205.5</ele>
        <time>2022-09-24T14:02:17Z</time>
      </trkpt>
      <trkpt lat="45.83621" lon="5.30316">
        <ele>205.5</ele>
        <time>2022-09-24T14:02:18Z</time>
      </trkpt>
      <trkpt lat="45.83626" lon="5.30318">
        <ele>205.5</ele>
        <time>2022-09-24T14:02:19Z</time>
      </trkpt>
      <trkpt lat="45.83631" lon="5.30321">
        <ele>205.4</ele>
        <time>2022-09-24T14:02:20Z</time>
      </trkpt>
      <trkpt lat="45.83636" lon="5.30324">
        <ele>205.4</ele>
        <time>2022-09-24T14:02:21Z</time>
      </trkpt>
      <trkpt lat="45.83642" lon="5.30327">
        <ele>205.4</ele>
        <time>2022-09-24T14:02:22Z</time>
      </trkpt>
      <trkpt lat="45.83646" lon="5.3033">
        <ele>205.3</ele>
        <time>2022-09-24T14:02:23Z</time>
      </trkpt>
      <trkpt lat="45.83651" lon="5.30332">
        <ele>205.3</ele>
        <time>2022-09-24T14:02:24Z</time>
      </trkpt>
      <trkpt lat="45.83656" lon="5.30335">
        <ele>205.3</ele>
        <time>2022-09-24T14:02:25Z</time>
      </trkpt>
      <trkpt lat="45.83661" lon="5.30338">
        <ele>205.2</ele>
        <time>2022-09-24T14:02:26Z</time>
      </trkpt>
      <trkpt lat="45.83666" lon="5.30341">
        <ele>205.1</ele>
        <time>2022-09-24T14:02:27Z</time>
      </trkpt>
      <trkpt lat="45.83672" lon="5.30344">
        <ele>205</ele>
        <time>2022-09-24T14:02:28Z</time>
      </trkpt>
      <trkpt lat="45.83676" lon="5.30346">
        <ele>205</ele>
        <time>2022-09-24T14:02:29Z</time>
      </trkpt>
      <trkpt lat="45.83683" lon="5.30349">
        <ele>204.8</ele>
        <time>2022-09-24T14:02:30Z</time>
      </trkpt>
      <trkpt lat="45.83688" lon="5.30353">
        <ele>204.7</ele>
        <time>2022-09-24T14:02:31Z</time>
      </trkpt>
      <trkpt lat="45.83693" lon="5.30356">
        <ele>204.7</ele>
        <time>2022-09-24T14:02:32Z</time>
      </trkpt>
      <trkpt lat="45.837" lon="5.3036">
        <ele>204.6</ele>
        <time>2022-09-24T14:02:33Z</time>
      </trkpt>
      <trkpt lat="45.83705" lon="5.30363">
        <ele>204.5</ele>
        <time>2022-09-24T14:02:34Z</time>
      </trkpt>
      <trkpt lat="45.83709" lon="5.30366">
        <ele>204.5</ele>
        <time>2022-09-24T14:02:35Z</time>
      </trkpt>
      <trkpt lat="45.83715" lon="5.3037">
        <ele>204.5</ele>
        <time>2022-09-24T14:02:36Z</time>
      </trkpt>
      <trkpt lat="45.83721" lon="5.30373">
        <ele>204.4</ele>
        <time>2022-09-24T14:02:37Z</time>
      </trkpt>
      <trkpt lat="45.83727" lon="5.30376">
        <ele>204.4</ele>
        <time>2022-09-24T14:02:38Z</time>
      </trkpt>
      <trkpt lat="45.83733" lon="5.3038">
        <ele>204.4</ele>
        <time>2022-09-24T14:02:39Z</time>
      </trkpt>
      <trkpt lat="45.83739" lon="5.30383">
        <ele>204.4</ele>
        <time>2022-09-24T14:02:40Z</time>
      </trkpt>
      <trkpt lat="45.83744" lon="5.30386">
        <ele>204.3</ele>
        <time>2022-09-24T14:02:41Z</time>
      </trkpt>
      <trkpt lat="45.8375" lon="5.3039">
        <ele>204.3</ele>
        <time>2022-09-24T14:02:42Z</time>
      </trkpt>
      <trkpt lat="45.83756" lon="5.30393">
        <ele>204.3</ele>
        <time>2022-09-24T14:02:43Z</time>
      </trkpt>
      <trkpt lat="45.83762" lon="5.30396">
        <ele>204.3</ele>
        <time>2022-09-24T14:02:44Z</time>
      </trkpt>
      <trkpt lat="45.83767" lon="5.304">
        <ele>204.3</ele>
        <time>2022-09-24T14:02:45Z</time>
      </trkpt>
      <trkpt lat="45.83773" lon="5.30403">
        <ele>204.2</ele>
        <time>2022-09-24T14:02:46Z</time>
      </trkpt>
      <trkpt lat="45.83778" lon="5.30406">
        <ele>204.2</ele>
        <time>2022-09-24T14:02:47Z</time>
      </trkpt>
      <trkpt lat="45.83783" lon="5.3041">
        <ele>204.2</ele>
        <time>2022-09-24T14:02:48Z</time>
      </trkpt>
      <trkpt lat="45.83788" lon="5.30412">
        <ele>204.2</ele>
        <time>2022-09-24T14:02:49Z</time>
      </trkpt>
      <trkpt lat="45.83793" lon="5.30415">
        <ele>204.3</ele>
        <time>2022-09-24T14:02:50Z</time>
      </trkpt>
      <trkpt lat="45.83798" lon="5.30418">
        <ele>204.3</ele>
        <time>2022-09-24T14:02:51Z</time>
      </trkpt>
      <trkpt lat="45.83803" lon="5.30421">
        <ele>204.3</ele>
        <time>2022-09-24T14:02:52Z</time>
      </trkpt>
      <trkpt lat="45.83808" lon="5.30424">
        <ele>204.2</ele>
        <time>2022-09-24T14:02:53Z</time>
      </trkpt>
      <trkpt lat="45.83812" lon="5.30426">
        <ele>204.2</ele>
        <time>2022-09-24T14:02:54Z</time>
      </trkpt>
      <trkpt lat="45.83818" lon="5.3043">
        <ele>204.1</ele>
        <time>2022-09-24T14:02:55Z</time>
      </trkpt>
      <trkpt lat="45.83823" lon="5.30433">
        <ele>204.1</ele>
        <time>2022-09-24T14:02:56Z</time>
      </trkpt>
      <trkpt lat="45.83828" lon="5.30436">
        <ele>204</ele>
        <time>2022-09-24T14:02:57Z</time>
      </trkpt>
      <trkpt lat="45.83834" lon="5.30439">
        <ele>204</ele>
        <time>2022-09-24T14:02:58Z</time>
      </trkpt>
      <trkpt lat="45.83839" lon="5.30443">
        <ele>203.9</ele>
        <time>2022-09-24T14:02:59Z</time>
      </trkpt>
      <trkpt lat="45.83844" lon="5.30446">
        <ele>203.9</ele>
        <time>2022-09-24T14:03:00Z</time>
      </trkpt>
      <trkpt lat="45.83849" lon="5.30449">
        <ele>203.9</ele>
        <time>2022-09-24T14:03:01Z</time>
      </trkpt>
      <trkpt lat="45.83854" lon="5.30453">
        <ele>203.9</ele>
        <time>2022-09-24T14:03:02Z</time>
      </trkpt>
      <trkpt lat="45.83859" lon="5.30456">
        <ele>203.9</ele>
        <time>2022-09-24T14:03:03Z</time>
      </trkpt>
      <trkpt lat="45.83864" lon="5.30459">
        <ele>203.9</ele>
        <time>2022-09-24T14:03:04Z</time>
      </trkpt>
      <trkpt lat="45.83869" lon="5.30463">
        <ele>203.8</ele>
        <time>2022-09-24T14:03:05Z</time>
      </trkpt>
      <trkpt lat="45.83873" lon="5.30464">
        <ele>203.8</ele>
        <time>2022-09-24T14:03:06Z</time>
      </trkpt>
      <trkpt lat="45.83878" lon="5.3047">
        <ele>203.8</ele>
        <time>2022-09-24T14:03:07Z</time>
      </trkpt>
      <trkpt lat="45.83883" lon="5.30473">
        <ele>203.8</ele>
        <time>2022-09-24T14:03:08Z</time>
      </trkpt>
      <trkpt lat="45.83889" lon="5.30476">
        <ele>203.7</ele>
        <time>2022-09-24T14:03:09Z</time>
      </trkpt>
      <trkpt lat="45.83894" lon="5.3048">
        <ele>203.7</ele>
        <time>2022-09-24T14:03:10Z</time>
      </trkpt>
      <trkpt lat="45.83899" lon="5.30483">
        <ele>203.7</ele>
        <time>2022-09-24T14:03:11Z</time>
      </trkpt>
      <trkpt lat="45.83904" lon="5.30486">
        <ele>203.6</ele>
        <time>2022-09-24T14:03:12Z</time>
      </trkpt>
      <trkpt lat="45.83909" lon="5.30489">
        <ele>203.6</ele>
        <time>2022-09-24T14:03:13Z</time>
      </trkpt>
      <trkpt lat="45.83914" lon="5.30492">
        <ele>203.5</ele>
        <time>2022-09-24T14:03:14Z</time>
      </trkpt>
      <trkpt lat="45.8392" lon="5.30496">
        <ele>203.5</ele>
        <time>2022-09-24T14:03:15Z</time>
      </trkpt>
      <trkpt lat="45.83925" lon="5.30499">
        <ele>203.5</ele>
        <time>2022-09-24T14:03:16Z</time>
      </trkpt>
      <trkpt lat="45.83931" lon="5.30502">
        <ele>203.4</ele>
        <time>2022-09-24T14:03:17Z</time>
      </trkpt>
      <trkpt lat="45.83936" lon="5.30505">
        <ele>203.3</ele>
        <time>2022-09-24T14:03:18Z</time>
      </trkpt>
      <trkpt lat="45.83941" lon="5.30507">
        <ele>203.3</ele>
        <time>2022-09-24T14:03:19Z</time>
      </trkpt>
      <trkpt lat="45.83946" lon="5.30511">
        <ele>203.2</ele>
        <time>2022-09-24T14:03:20Z</time>
      </trkpt>
      <trkpt lat="45.83952" lon="5.30513">
        <ele>203.1</ele>
        <time>2022-09-24T14:03:21Z</time>
      </trkpt>
      <trkpt lat="45.83958" lon="5.30516">
        <ele>203</ele>
        <time>2022-09-24T14:03:22Z</time>
      </trkpt>
      <trkpt lat="45.83963" lon="5.30519">
        <ele>202.9</ele>
        <time>2022-09-24T14:03:23Z</time>
      </trkpt>
      <trkpt lat="45.83969" lon="5.30521">
        <ele>202.8</ele>
        <time>2022-09-24T14:03:24Z</time>
      </trkpt>
      <trkpt lat="45.83974" lon="5.30524">
        <ele>202.7</ele>
        <time>2022-09-24T14:03:25Z</time>
      </trkpt>
      <trkpt lat="45.8398" lon="5.30527">
        <ele>202.6</ele>
        <time>2022-09-24T14:03:26Z</time>
      </trkpt>
      <trkpt lat="45.83986" lon="5.30531">
        <ele>202.4</ele>
        <time>2022-09-24T14:03:27Z</time>
      </trkpt>
      <trkpt lat="45.83992" lon="5.30534">
        <ele>202.4</ele>
        <time>2022-09-24T14:03:28Z</time>
      </trkpt>
      <trkpt lat="45.83998" lon="5.30537">
        <ele>202.3</ele>
        <time>2022-09-24T14:03:29Z</time>
      </trkpt>
      <trkpt lat="45.84003" lon="5.30541">
        <ele>202.2</ele>
        <time>2022-09-24T14:03:30Z</time>
      </trkpt>
      <trkpt lat="45.84009" lon="5.30543">
        <ele>202.1</ele>
        <time>2022-09-24T14:03:31Z</time>
      </trkpt>
      <trkpt lat="45.84014" lon="5.30547">
        <ele>202.1</ele>
        <time>2022-09-24T14:03:32Z</time>
      </trkpt>
      <trkpt lat="45.8402" lon="5.3055">
        <ele>202</ele>
        <time>2022-09-24T14:03:33Z</time>
      </trkpt>
      <trkpt lat="45.84026" lon="5.30553">
        <ele>201.9</ele>
        <time>2022-09-24T14:03:34Z</time>
      </trkpt>
      <trkpt lat="45.84032" lon="5.30557">
        <ele>201.9</ele>
        <time>2022-09-24T14:03:35Z</time>
      </trkpt>
      <trkpt lat="45.84039" lon="5.3056">
        <ele>201.9</ele>
        <time>2022-09-24T14:03:36Z</time>
      </trkpt>
      <trkpt lat="45.84045" lon="5.30564">
        <ele>201.8</ele>
        <time>2022-09-24T14:03:37Z</time>
      </trkpt>
      <trkpt lat="45.8405" lon="5.30568">
        <ele>201.8</ele>
        <time>2022-09-24T14:03:38Z</time>
      </trkpt>
      <trkpt lat="45.84055" lon="5.30571">
        <ele>201.8</ele>
        <time>2022-09-24T14:03:39Z</time>
      </trkpt>
      <trkpt lat="45.84062" lon="5.30574">
        <ele>201.8</ele>
        <time>2022-09-24T14:03:40Z</time>
      </trkpt>
      <trkpt lat="45.84068" lon="5.30578">
        <ele>201.7</ele>
        <time>2022-09-24T14:03:41Z</time>
      </trkpt>
      <trkpt lat="45.84074" lon="5.30582">
        <ele>201.7</ele>
        <time>2022-09-24T14:03:42Z</time>
      </trkpt>
      <trkpt lat="45.8408" lon="5.30586">
        <ele>201.7</ele>
        <time>2022-09-24T14:03:43Z</time>
      </trkpt>
      <trkpt lat="45.84086" lon="5.3059">
        <ele>201.7</ele>
        <time>2022-09-24T14:03:44Z</time>
      </trkpt>
      <trkpt lat="45.84091" lon="5.30595">
        <ele>201.7</ele>
        <time>2022-09-24T14:03:45Z</time>
      </trkpt>
      <trkpt lat="45.84097" lon="5.30599">
        <ele>201.7</ele>
        <time>2022-09-24T14:03:46Z</time>
      </trkpt>
      <trkpt lat="45.84102" lon="5.30604">
        <ele>201.7</ele>
        <time>2022-09-24T14:03:47Z</time>
      </trkpt>
      <trkpt lat="45.84108" lon="5.30608">
        <ele>201.7</ele>
        <time>2022-09-24T14:03:48Z</time>
      </trkpt>
      <trkpt lat="45.84114" lon="5.30613">
        <ele>201.7</ele>
        <time>2022-09-24T14:03:49Z</time>
      </trkpt>
      <trkpt lat="45.84119" lon="5.30616">
        <ele>201.7</ele>
        <time>2022-09-24T14:03:50Z</time>
      </trkpt>
      <trkpt lat="45.84124" lon="5.30621">
        <ele>201.7</ele>
        <time>2022-09-24T14:03:51Z</time>
      </trkpt>
      <trkpt lat="45.84129" lon="5.30626">
        <ele>201.8</ele>
        <time>2022-09-24T14:03:52Z</time>
      </trkpt>
      <trkpt lat="45.84133" lon="5.30631">
        <ele>201.9</ele>
        <time>2022-09-24T14:03:53Z</time>
      </trkpt>
      <trkpt lat="45.84138" lon="5.30636">
        <ele>201.9</ele>
        <time>2022-09-24T14:03:54Z</time>
      </trkpt>
      <trkpt lat="45.84142" lon="5.30641">
        <ele>202</ele>
        <time>2022-09-24T14:03:55Z</time>
      </trkpt>
      <trkpt lat="45.84146" lon="5.30646">
        <ele>202.1</ele>
        <time>2022-09-24T14:03:56Z</time>
      </trkpt>
      <trkpt lat="45.8415" lon="5.30651">
        <ele>202.2</ele>
        <time>2022-09-24T14:03:57Z</time>
      </trkpt>
      <trkpt lat="45.84154" lon="5.30657">
        <ele>202.2</ele>
        <time>2022-09-24T14:03:58Z</time>
      </trkpt>
      <trkpt lat="45.84158" lon="5.30662">
        <ele>202.2</ele>
        <time>2022-09-24T14:03:59Z</time>
      </trkpt>
      <trkpt lat="45.84161" lon="5.30667">
        <ele>202.2</ele>
        <time>2022-09-24T14:04:00Z</time>
      </trkpt>
      <trkpt lat="45.84165" lon="5.30672">
        <ele>202.2</ele>
        <time>2022-09-24T14:04:01Z</time>
      </trkpt>
      <trkpt lat="45.84168" lon="5.30677">
        <ele>202.2</ele>
        <time>2022-09-24T14:04:02Z</time>
      </trkpt>
      <trkpt lat="45.84172" lon="5.30682">
        <ele>202.2</ele>
        <time>2022-09-24T14:04:03Z</time>
      </trkpt>
      <trkpt lat="45.84176" lon="5.30688">
        <ele>202.2</ele>
        <time>2022-09-24T14:04:04Z</time>
      </trkpt>
      <trkpt lat="45.84181" lon="5.30693">
        <ele>202.2</ele>
        <time>2022-09-24T14:04:05Z</time>
      </trkpt>
      <trkpt lat="45.84186" lon="5.30699">
        <ele>202.1</ele>
        <time>2022-09-24T14:04:06Z</time>
      </trkpt>
      <trkpt lat="45.8419" lon="5.30704">
        <ele>202.1</ele>
        <time>2022-09-24T14:04:07Z</time>
      </trkpt>
      <trkpt lat="45.84195" lon="5.30708">
        <ele>202.1</ele>
        <time>2022-09-24T14:04:08Z</time>
      </trkpt>
      <trkpt lat="45.84199" lon="5.30712">
        <ele>202.1</ele>
        <time>2022-09-24T14:04:09Z</time>
      </trkpt>
      <trkpt lat="45.84204" lon="5.30717">
        <ele>202.1</ele>
        <time>2022-09-24T14:04:10Z</time>
      </trkpt>
      <trkpt lat="45.84209" lon="5.30721">
        <ele>202.1</ele>
        <time>2022-09-24T14:04:11Z</time>
      </trkpt>
      <trkpt lat="45.84215" lon="5.30724">
        <ele>202.1</ele>
        <time>2022-09-24T14:04:12Z</time>
      </trkpt>
      <trkpt lat="45.8422" lon="5.30727">
        <ele>202.1</ele>
        <time>2022-09-24T14:04:13Z</time>
      </trkpt>
      <trkpt lat="45.84225" lon="5.3073">
        <ele>202</ele>
        <time>2022-09-24T14:04:14Z</time>
      </trkpt>
      <trkpt lat="45.84231" lon="5.30733">
        <ele>202</ele>
        <time>2022-09-24T14:04:15Z</time>
      </trkpt>
      <trkpt lat="45.84236" lon="5.30735">
        <ele>202</ele>
        <time>2022-09-24T14:04:16Z</time>
      </trkpt>
      <trkpt lat="45.84242" lon="5.30738">
        <ele>202</ele>
        <time>2022-09-24T14:04:17Z</time>
      </trkpt>
      <trkpt lat="45.84247" lon="5.30741">
        <ele>202</ele>
        <time>2022-09-24T14:04:18Z</time>
      </trkpt>
      <trkpt lat="45.84253" lon="5.30743">
        <ele>202</ele>
        <time>2022-09-24T14:04:19Z</time>
      </trkpt>
      <trkpt lat="45.84258" lon="5.30745">
        <ele>202</ele>
        <time>2022-09-24T14:04:20Z</time>
      </trkpt>
      <trkpt lat="45.84263" lon="5.30748">
        <ele>202</ele>
        <time>2022-09-24T14:04:21Z</time>
      </trkpt>
      <trkpt lat="45.84269" lon="5.3075">
        <ele>202.1</ele>
        <time>2022-09-24T14:04:22Z</time>
      </trkpt>
      <trkpt lat="45.84274" lon="5.30754">
        <ele>202.1</ele>
        <time>2022-09-24T14:04:23Z</time>
      </trkpt>
      <trkpt lat="45.84279" lon="5.30757">
        <ele>202.1</ele>
        <time>2022-09-24T14:04:24Z</time>
      </trkpt>
      <trkpt lat="45.84284" lon="5.3076">
        <ele>202.1</ele>
        <time>2022-09-24T14:04:25Z</time>
      </trkpt>
      <trkpt lat="45.84289" lon="5.30763">
        <ele>202.1</ele>
        <time>2022-09-24T14:04:26Z</time>
      </trkpt>
      <trkpt lat="45.84294" lon="5.30766">
        <ele>202.1</ele>
        <time>2022-09-24T14:04:27Z</time>
      </trkpt>
      <trkpt lat="45.84299" lon="5.3077">
        <ele>202.1</ele>
        <time>2022-09-24T14:04:28Z</time>
      </trkpt>
      <trkpt lat="45.84304" lon="5.30773">
        <ele>202.1</ele>
        <time>2022-09-24T14:04:29Z</time>
      </trkpt>
      <trkpt lat="45.84309" lon="5.30777">
        <ele>202.1</ele>
        <time>2022-09-24T14:04:30Z</time>
      </trkpt>
      <trkpt lat="45.84313" lon="5.30781">
        <ele>202</ele>
        <time>2022-09-24T14:04:31Z</time>
      </trkpt>
      <trkpt lat="45.84317" lon="5.30784">
        <ele>202</ele>
        <time>2022-09-24T14:04:32Z</time>
      </trkpt>
      <trkpt lat="45.84322" lon="5.30788">
        <ele>202</ele>
        <time>2022-09-24T14:04:33Z</time>
      </trkpt>
      <trkpt lat="45.84326" lon="5.30792">
        <ele>202</ele>
        <time>2022-09-24T14:04:34Z</time>
      </trkpt>
      <trkpt lat="45.8433" lon="5.30796">
        <ele>202</ele>
        <time>2022-09-24T14:04:35Z</time>
      </trkpt>
      <trkpt lat="45.84335" lon="5.308">
        <ele>202</ele>
        <time>2022-09-24T14:04:36Z</time>
      </trkpt>
      <trkpt lat="45.84339" lon="5.30804">
        <ele>202</ele>
        <time>2022-09-24T14:04:37Z</time>
      </trkpt>
      <trkpt lat="45.84344" lon="5.30809">
        <ele>202</ele>
        <time>2022-09-24T14:04:38Z</time>
      </trkpt>
      <trkpt lat="45.84348" lon="5.30814">
        <ele>201.9</ele>
        <time>2022-09-24T14:04:39Z</time>
      </trkpt>
      <trkpt lat="45.84352" lon="5.30819">
        <ele>201.9</ele>
        <time>2022-09-24T14:04:40Z</time>
      </trkpt>
      <trkpt lat="45.84357" lon="5.30824">
        <ele>201.9</ele>
        <time>2022-09-24T14:04:41Z</time>
      </trkpt>
      <trkpt lat="45.8436" lon="5.3083">
        <ele>201.9</ele>
        <time>2022-09-24T14:04:42Z</time>
      </trkpt>
      <trkpt lat="45.84364" lon="5.30836">
        <ele>201.9</ele>
        <time>2022-09-24T14:04:43Z</time>
      </trkpt>
      <trkpt lat="45.84368" lon="5.30841">
        <ele>201.9</ele>
        <time>2022-09-24T14:04:44Z</time>
      </trkpt>
      <trkpt lat="45.84371" lon="5.30847">
        <ele>201.8</ele>
        <time>2022-09-24T14:04:45Z</time>
      </trkpt>
      <trkpt lat="45.84374" lon="5.30853">
        <ele>201.8</ele>
        <time>2022-09-24T14:04:46Z</time>
      </trkpt>
      <trkpt lat="45.84377" lon="5.30858">
        <ele>201.8</ele>
        <time>2022-09-24T14:04:47Z</time>
      </trkpt>
      <trkpt lat="45.84381" lon="5.30863">
        <ele>201.8</ele>
        <time>2022-09-24T14:04:48Z</time>
      </trkpt>
      <trkpt lat="45.84384" lon="5.30869">
        <ele>201.8</ele>
        <time>2022-09-24T14:04:49Z</time>
      </trkpt>
      <trkpt lat="45.84388" lon="5.30874">
        <ele>201.7</ele>
        <time>2022-09-24T14:04:50Z</time>
      </trkpt>
      <trkpt lat="45.84392" lon="5.30879">
        <ele>201.7</ele>
        <time>2022-09-24T14:04:51Z</time>
      </trkpt>
      <trkpt lat="45.84397" lon="5.30884">
        <ele>201.7</ele>
        <time>2022-09-24T14:04:52Z</time>
      </trkpt>
      <trkpt lat="45.84401" lon="5.3089">
        <ele>201.7</ele>
        <time>2022-09-24T14:04:53Z</time>
      </trkpt>
      <trkpt lat="45.84404" lon="5.30894">
        <ele>201.6</ele>
        <time>2022-09-24T14:04:54Z</time>
      </trkpt>
      <trkpt lat="45.84408" lon="5.30899">
        <ele>201.6</ele>
        <time>2022-09-24T14:04:55Z</time>
      </trkpt>
      <trkpt lat="45.84412" lon="5.30903">
        <ele>201.5</ele>
        <time>2022-09-24T14:04:56Z</time>
      </trkpt>
      <trkpt lat="45.84417" lon="5.30907">
        <ele>201.5</ele>
        <time>2022-09-24T14:04:57Z</time>
      </trkpt>
      <trkpt lat="45.84421" lon="5.30911">
        <ele>201.5</ele>
        <time>2022-09-24T14:04:58Z</time>
      </trkpt>
      <trkpt lat="45.84425" lon="5.30915">
        <ele>201.4</ele>
        <time>2022-09-24T14:04:59Z</time>
      </trkpt>
      <trkpt lat="45.84429" lon="5.30919">
        <ele>201.4</ele>
        <time>2022-09-24T14:05:00Z</time>
      </trkpt>
      <trkpt lat="45.84433" lon="5.30923">
        <ele>201.3</ele>
        <time>2022-09-24T14:05:01Z</time>
      </trkpt>
      <trkpt lat="45.84436" lon="5.30928">
        <ele>201.3</ele>
        <time>2022-09-24T14:05:02Z</time>
      </trkpt>
      <trkpt lat="45.84439" lon="5.30931">
        <ele>201.2</ele>
        <time>2022-09-24T14:05:04Z</time>
      </trkpt>
      <trkpt lat="45.84442" lon="5.30933">
        <ele>201.2</ele>
        <time>2022-09-24T14:05:05Z</time>
      </trkpt>
      <trkpt lat="45.84444" lon="5.30935">
        <ele>201.2</ele>
        <time>2022-09-24T14:05:06Z</time>
      </trkpt>
      <trkpt lat="45.84447" lon="5.30937">
        <ele>201.1</ele>
        <time>2022-09-24T14:05:08Z</time>
      </trkpt>
      <trkpt lat="45.84448" lon="5.30938">
        <ele>201.1</ele>
        <time>2022-09-24T14:05:09Z</time>
      </trkpt>
      <trkpt lat="45.84448" lon="5.30939">
        <ele>201.1</ele>
        <time>2022-09-24T14:05:10Z</time>
      </trkpt>
      <trkpt lat="45.84449" lon="5.3094">
        <ele>201.1</ele>
        <time>2022-09-24T14:05:11Z</time>
      </trkpt>
      <trkpt lat="45.8445" lon="5.30941">
        <ele>201.1</ele>
        <time>2022-09-24T14:05:12Z</time>
      </trkpt>
      <trkpt lat="45.84452" lon="5.30942">
        <ele>201.1</ele>
        <time>2022-09-24T14:05:13Z</time>
      </trkpt>
      <trkpt lat="45.84453" lon="5.30944">
        <ele>201.1</ele>
        <time>2022-09-24T14:05:14Z</time>
      </trkpt>
      <trkpt lat="45.84455" lon="5.30945">
        <ele>201</ele>
        <time>2022-09-24T14:05:15Z</time>
      </trkpt>
      <trkpt lat="45.84456" lon="5.30946">
        <ele>201</ele>
        <time>2022-09-24T14:05:16Z</time>
      </trkpt>
      <trkpt lat="45.84458" lon="5.30947">
        <ele>201</ele>
        <time>2022-09-24T14:05:17Z</time>
      </trkpt>
      <trkpt lat="45.8446" lon="5.30949">
        <ele>201</ele>
        <time>2022-09-24T14:05:18Z</time>
      </trkpt>
      <trkpt lat="45.84461" lon="5.3095">
        <ele>200.9</ele>
        <time>2022-09-24T14:05:19Z</time>
      </trkpt>
      <trkpt lat="45.84464" lon="5.30953">
        <ele>200.9</ele>
        <time>2022-09-24T14:05:20Z</time>
      </trkpt>
      <trkpt lat="45.84465" lon="5.30953">
        <ele>200.9</ele>
        <time>2022-09-24T14:05:21Z</time>
      </trkpt>
      <trkpt lat="45.84467" lon="5.30956">
        <ele>200.9</ele>
        <time>2022-09-24T14:05:22Z</time>
      </trkpt>
      <trkpt lat="45.8447" lon="5.30959">
        <ele>200.8</ele>
        <time>2022-09-24T14:05:23Z</time>
      </trkpt>
      <trkpt lat="45.84472" lon="5.30961">
        <ele>200.8</ele>
        <time>2022-09-24T14:05:24Z</time>
      </trkpt>
      <trkpt lat="45.84474" lon="5.30963">
        <ele>200.8</ele>
        <time>2022-09-24T14:05:25Z</time>
      </trkpt>
      <trkpt lat="45.84478" lon="5.30967">
        <ele>200.7</ele>
        <time>2022-09-24T14:05:26Z</time>
      </trkpt>
      <trkpt lat="45.84479" lon="5.30969">
        <ele>200.7</ele>
        <time>2022-09-24T14:05:27Z</time>
      </trkpt>
      <trkpt lat="45.84482" lon="5.30973">
        <ele>200.6</ele>
        <time>2022-09-24T14:05:28Z</time>
      </trkpt>
      <trkpt lat="45.84484" lon="5.30974">
        <ele>200.6</ele>
        <time>2022-09-24T14:05:29Z</time>
      </trkpt>
      <trkpt lat="45.84486" lon="5.30977">
        <ele>200.6</ele>
        <time>2022-09-24T14:05:30Z</time>
      </trkpt>
      <trkpt lat="45.84489" lon="5.3098">
        <ele>200.5</ele>
        <time>2022-09-24T14:05:31Z</time>
      </trkpt>
      <trkpt lat="45.84492" lon="5.30983">
        <ele>200.5</ele>
        <time>2022-09-24T14:05:32Z</time>
      </trkpt>
      <trkpt lat="45.84494" lon="5.30987">
        <ele>200.5</ele>
        <time>2022-09-24T14:05:33Z</time>
      </trkpt>
      <trkpt lat="45.84495" lon="5.30988">
        <ele>200.5</ele>
        <time>2022-09-24T14:05:34Z</time>
      </trkpt>
      <trkpt lat="45.84498" lon="5.3099">
        <ele>200.4</ele>
        <time>2022-09-24T14:05:35Z</time>
      </trkpt>
      <trkpt lat="45.84501" lon="5.30992">
        <ele>200.4</ele>
        <time>2022-09-24T14:05:36Z</time>
      </trkpt>
      <trkpt lat="45.84504" lon="5.30995">
        <ele>200.3</ele>
        <time>2022-09-24T14:05:37Z</time>
      </trkpt>
      <trkpt lat="45.84506" lon="5.30997">
        <ele>200.3</ele>
        <time>2022-09-24T14:05:38Z</time>
      </trkpt>
      <trkpt lat="45.84509" lon="5.31">
        <ele>200.3</ele>
        <time>2022-09-24T14:05:39Z</time>
      </trkpt>
      <trkpt lat="45.84511" lon="5.31002">
        <ele>200.2</ele>
        <time>2022-09-24T14:05:40Z</time>
      </trkpt>
      <trkpt lat="45.84514" lon="5.31005">
        <ele>200.2</ele>
        <time>2022-09-24T14:05:41Z</time>
      </trkpt>
      <trkpt lat="45.84516" lon="5.31009">
        <ele>200.2</ele>
        <time>2022-09-24T14:05:42Z</time>
      </trkpt>
      <trkpt lat="45.84519" lon="5.31012">
        <ele>200.2</ele>
        <time>2022-09-24T14:05:43Z</time>
      </trkpt>
      <trkpt lat="45.84523" lon="5.31015">
        <ele>200.1</ele>
        <time>2022-09-24T14:05:44Z</time>
      </trkpt>
      <trkpt lat="45.84525" lon="5.31017">
        <ele>200.1</ele>
        <time>2022-09-24T14:05:45Z</time>
      </trkpt>
      <trkpt lat="45.84528" lon="5.31019">
        <ele>200.1</ele>
        <time>2022-09-24T14:05:46Z</time>
      </trkpt>
      <trkpt lat="45.84532" lon="5.31023">
        <ele>200.1</ele>
        <time>2022-09-24T14:05:47Z</time>
      </trkpt>
      <trkpt lat="45.84536" lon="5.31026">
        <ele>200.1</ele>
        <time>2022-09-24T14:05:48Z</time>
      </trkpt>
      <trkpt lat="45.84537" lon="5.3103">
        <ele>200.1</ele>
        <time>2022-09-24T14:05:49Z</time>
      </trkpt>
      <trkpt lat="45.8454" lon="5.31034">
        <ele>200.1</ele>
        <time>2022-09-24T14:05:50Z</time>
      </trkpt>
      <trkpt lat="45.84543" lon="5.31038">
        <ele>200.1</ele>
        <time>2022-09-24T14:05:51Z</time>
      </trkpt>
      <trkpt lat="45.84546" lon="5.31042">
        <ele>200.1</ele>
        <time>2022-09-24T14:05:52Z</time>
      </trkpt>
      <trkpt lat="45.84549" lon="5.31044">
        <ele>200.1</ele>
        <time>2022-09-24T14:05:53Z</time>
      </trkpt>
      <trkpt lat="45.84552" lon="5.31049">
        <ele>200.1</ele>
        <time>2022-09-24T14:05:54Z</time>
      </trkpt>
      <trkpt lat="45.84556" lon="5.31054">
        <ele>200.1</ele>
        <time>2022-09-24T14:05:55Z</time>
      </trkpt>
      <trkpt lat="45.84559" lon="5.31058">
        <ele>200.1</ele>
        <time>2022-09-24T14:05:56Z</time>
      </trkpt>
      <trkpt lat="45.84562" lon="5.31062">
        <ele>200.1</ele>
        <time>2022-09-24T14:05:57Z</time>
      </trkpt>
      <trkpt lat="45.84566" lon="5.31067">
        <ele>200.1</ele>
        <time>2022-09-24T14:05:58Z</time>
      </trkpt>
      <trkpt lat="45.84569" lon="5.31069">
        <ele>200.1</ele>
        <time>2022-09-24T14:05:59Z</time>
      </trkpt>
      <trkpt lat="45.84572" lon="5.31072">
        <ele>200.1</ele>
        <time>2022-09-24T14:06:00Z</time>
      </trkpt>
      <trkpt lat="45.84578" lon="5.31077">
        <ele>200.2</ele>
        <time>2022-09-24T14:06:01Z</time>
      </trkpt>
      <trkpt lat="45.84581" lon="5.31081">
        <ele>200.2</ele>
        <time>2022-09-24T14:06:02Z</time>
      </trkpt>
      <trkpt lat="45.84585" lon="5.31085">
        <ele>200.2</ele>
        <time>2022-09-24T14:06:03Z</time>
      </trkpt>
      <trkpt lat="45.84589" lon="5.31089">
        <ele>200.2</ele>
        <time>2022-09-24T14:06:04Z</time>
      </trkpt>
      <trkpt lat="45.84593" lon="5.31091">
        <ele>200.2</ele>
        <time>2022-09-24T14:06:05Z</time>
      </trkpt>
      <trkpt lat="45.84597" lon="5.31094">
        <ele>200.3</ele>
        <time>2022-09-24T14:06:06Z</time>
      </trkpt>
      <trkpt lat="45.84601" lon="5.31095">
        <ele>200.2</ele>
        <time>2022-09-24T14:06:07Z</time>
      </trkpt>
      <trkpt lat="45.84606" lon="5.31101">
        <ele>200.2</ele>
        <time>2022-09-24T14:06:08Z</time>
      </trkpt>
      <trkpt lat="45.84611" lon="5.31106">
        <ele>200.2</ele>
        <time>2022-09-24T14:06:09Z</time>
      </trkpt>
      <trkpt lat="45.84615" lon="5.31107">
        <ele>200.1</ele>
        <time>2022-09-24T14:06:10Z</time>
      </trkpt>
      <trkpt lat="45.84619" lon="5.31111">
        <ele>200.1</ele>
        <time>2022-09-24T14:06:11Z</time>
      </trkpt>
      <trkpt lat="45.84623" lon="5.31116">
        <ele>200.1</ele>
        <time>2022-09-24T14:06:12Z</time>
      </trkpt>
      <trkpt lat="45.84629" lon="5.31122">
        <ele>200</ele>
        <time>2022-09-24T14:06:13Z</time>
      </trkpt>
      <trkpt lat="45.84634" lon="5.31127">
        <ele>200</ele>
        <time>2022-09-24T14:06:14Z</time>
      </trkpt>
      <trkpt lat="45.84639" lon="5.31129">
        <ele>200</ele>
        <time>2022-09-24T14:06:15Z</time>
      </trkpt>
      <trkpt lat="45.84643" lon="5.31135">
        <ele>199.9</ele>
        <time>2022-09-24T14:06:16Z</time>
      </trkpt>
      <trkpt lat="45.84649" lon="5.31138">
        <ele>199.9</ele>
        <time>2022-09-24T14:06:17Z</time>
      </trkpt>
      <trkpt lat="45.84654" lon="5.31142">
        <ele>199.9</ele>
        <time>2022-09-24T14:06:18Z</time>
      </trkpt>
      <trkpt lat="45.84657" lon="5.31143">
        <ele>199.9</ele>
        <time>2022-09-24T14:06:19Z</time>
      </trkpt>
      <trkpt lat="45.84663" lon="5.31147">
        <ele>199.9</ele>
        <time>2022-09-24T14:06:20Z</time>
      </trkpt>
      <trkpt lat="45.84667" lon="5.31152">
        <ele>199.8</ele>
        <time>2022-09-24T14:06:21Z</time>
      </trkpt>
      <trkpt lat="45.84672" lon="5.31158">
        <ele>199.8</ele>
        <time>2022-09-24T14:06:22Z</time>
      </trkpt>
      <trkpt lat="45.84676" lon="5.31163">
        <ele>199.8</ele>
        <time>2022-09-24T14:06:23Z</time>
      </trkpt>
      <trkpt lat="45.8468" lon="5.31167">
        <ele>199.8</ele>
        <time>2022-09-24T14:06:24Z</time>
      </trkpt>
      <trkpt lat="45.84685" lon="5.31171">
        <ele>199.8</ele>
        <time>2022-09-24T14:06:25Z</time>
      </trkpt>
      <trkpt lat="45.84689" lon="5.31177">
        <ele>199.8</ele>
        <time>2022-09-24T14:06:26Z</time>
      </trkpt>
      <trkpt lat="45.84694" lon="5.31181">
        <ele>199.8</ele>
        <time>2022-09-24T14:06:27Z</time>
      </trkpt>
      <trkpt lat="45.84697" lon="5.31185">
        <ele>199.8</ele>
        <time>2022-09-24T14:06:28Z</time>
      </trkpt>
      <trkpt lat="45.84701" lon="5.3119">
        <ele>199.8</ele>
        <time>2022-09-24T14:06:29Z</time>
      </trkpt>
      <trkpt lat="45.84704" lon="5.31193">
        <ele>199.8</ele>
        <time>2022-09-24T14:06:30Z</time>
      </trkpt>
      <trkpt lat="45.84708" lon="5.31199">
        <ele>199.8</ele>
        <time>2022-09-24T14:06:31Z</time>
      </trkpt>
      <trkpt lat="45.84714" lon="5.31204">
        <ele>199.8</ele>
        <time>2022-09-24T14:06:32Z</time>
      </trkpt>
      <trkpt lat="45.84717" lon="5.31208">
        <ele>199.7</ele>
        <time>2022-09-24T14:06:33Z</time>
      </trkpt>
      <trkpt lat="45.84722" lon="5.31211">
        <ele>199.7</ele>
        <time>2022-09-24T14:06:34Z</time>
      </trkpt>
      <trkpt lat="45.84727" lon="5.31215">
        <ele>199.7</ele>
        <time>2022-09-24T14:06:35Z</time>
      </trkpt>
      <trkpt lat="45.84731" lon="5.3122">
        <ele>199.7</ele>
        <time>2022-09-24T14:06:36Z</time>
      </trkpt>
      <trkpt lat="45.84735" lon="5.31225">
        <ele>199.7</ele>
        <time>2022-09-24T14:06:37Z</time>
      </trkpt>
      <trkpt lat="45.84739" lon="5.31228">
        <ele>199.8</ele>
        <time>2022-09-24T14:06:38Z</time>
      </trkpt>
      <trkpt lat="45.84743" lon="5.31234">
        <ele>199.8</ele>
        <time>2022-09-24T14:06:39Z</time>
      </trkpt>
      <trkpt lat="45.84746" lon="5.31238">
        <ele>199.8</ele>
        <time>2022-09-24T14:06:40Z</time>
      </trkpt>
      <trkpt lat="45.8475" lon="5.31243">
        <ele>199.8</ele>
        <time>2022-09-24T14:06:41Z</time>
      </trkpt>
      <trkpt lat="45.84754" lon="5.31247">
        <ele>199.8</ele>
        <time>2022-09-24T14:06:42Z</time>
      </trkpt>
      <trkpt lat="45.84758" lon="5.31251">
        <ele>199.8</ele>
        <time>2022-09-24T14:06:43Z</time>
      </trkpt>
      <trkpt lat="45.84762" lon="5.31256">
        <ele>199.8</ele>
        <time>2022-09-24T14:06:44Z</time>
      </trkpt>
      <trkpt lat="45.84766" lon="5.3126">
        <ele>199.8</ele>
        <time>2022-09-24T14:06:45Z</time>
      </trkpt>
      <trkpt lat="45.8477" lon="5.31266">
        <ele>199.8</ele>
        <time>2022-09-24T14:06:46Z</time>
      </trkpt>
      <trkpt lat="45.84773" lon="5.31271">
        <ele>199.8</ele>
        <time>2022-09-24T14:06:47Z</time>
      </trkpt>
      <trkpt lat="45.84777" lon="5.31275">
        <ele>199.9</ele>
        <time>2022-09-24T14:06:48Z</time>
      </trkpt>
      <trkpt lat="45.84782" lon="5.3128">
        <ele>199.9</ele>
        <time>2022-09-24T14:06:49Z</time>
      </trkpt>
      <trkpt lat="45.84788" lon="5.31284">
        <ele>199.9</ele>
        <time>2022-09-24T14:06:50Z</time>
      </trkpt>
      <trkpt lat="45.84791" lon="5.31289">
        <ele>199.9</ele>
        <time>2022-09-24T14:06:51Z</time>
      </trkpt>
      <trkpt lat="45.84796" lon="5.31292">
        <ele>199.9</ele>
        <time>2022-09-24T14:06:52Z</time>
      </trkpt>
      <trkpt lat="45.848" lon="5.31297">
        <ele>199.9</ele>
        <time>2022-09-24T14:06:53Z</time>
      </trkpt>
      <trkpt lat="45.84805" lon="5.31301">
        <ele>199.9</ele>
        <time>2022-09-24T14:06:54Z</time>
      </trkpt>
      <trkpt lat="45.8481" lon="5.31305">
        <ele>199.9</ele>
        <time>2022-09-24T14:06:55Z</time>
      </trkpt>
      <trkpt lat="45.84815" lon="5.3131">
        <ele>199.9</ele>
        <time>2022-09-24T14:06:56Z</time>
      </trkpt>
      <trkpt lat="45.84819" lon="5.31314">
        <ele>200</ele>
        <time>2022-09-24T14:06:57Z</time>
      </trkpt>
      <trkpt lat="45.84824" lon="5.31318">
        <ele>200</ele>
        <time>2022-09-24T14:06:58Z</time>
      </trkpt>
      <trkpt lat="45.84829" lon="5.31322">
        <ele>200</ele>
        <time>2022-09-24T14:06:59Z</time>
      </trkpt>
      <trkpt lat="45.84834" lon="5.31327">
        <ele>200</ele>
        <time>2022-09-24T14:07:00Z</time>
      </trkpt>
      <trkpt lat="45.84838" lon="5.31333">
        <ele>200</ele>
        <time>2022-09-24T14:07:01Z</time>
      </trkpt>
      <trkpt lat="45.84842" lon="5.31338">
        <ele>200</ele>
        <time>2022-09-24T14:07:02Z</time>
      </trkpt>
      <trkpt lat="45.84848" lon="5.31343">
        <ele>200</ele>
        <time>2022-09-24T14:07:03Z</time>
      </trkpt>
      <trkpt lat="45.84852" lon="5.31348">
        <ele>200.1</ele>
        <time>2022-09-24T14:07:04Z</time>
      </trkpt>
      <trkpt lat="45.84856" lon="5.31354">
        <ele>200.1</ele>
        <time>2022-09-24T14:07:05Z</time>
      </trkpt>
      <trkpt lat="45.8486" lon="5.3136">
        <ele>200.1</ele>
        <time>2022-09-24T14:07:06Z</time>
      </trkpt>
      <trkpt lat="45.84864" lon="5.31364">
        <ele>200.1</ele>
        <time>2022-09-24T14:07:07Z</time>
      </trkpt>
      <trkpt lat="45.84869" lon="5.31369">
        <ele>200.2</ele>
        <time>2022-09-24T14:07:08Z</time>
      </trkpt>
      <trkpt lat="45.84873" lon="5.31374">
        <ele>200.2</ele>
        <time>2022-09-24T14:07:09Z</time>
      </trkpt>
      <trkpt lat="45.84877" lon="5.31379">
        <ele>200.2</ele>
        <time>2022-09-24T14:07:10Z</time>
      </trkpt>
      <trkpt lat="45.8488" lon="5.31384">
        <ele>200.2</ele>
        <time>2022-09-24T14:07:11Z</time>
      </trkpt>
      <trkpt lat="45.84885" lon="5.31388">
        <ele>200.2</ele>
        <time>2022-09-24T14:07:12Z</time>
      </trkpt>
      <trkpt lat="45.84891" lon="5.31393">
        <ele>200.2</ele>
        <time>2022-09-24T14:07:13Z</time>
      </trkpt>
      <trkpt lat="45.84894" lon="5.31397">
        <ele>200.2</ele>
        <time>2022-09-24T14:07:14Z</time>
      </trkpt>
      <trkpt lat="45.84898" lon="5.31402">
        <ele>200.2</ele>
        <time>2022-09-24T14:07:15Z</time>
      </trkpt>
      <trkpt lat="45.84903" lon="5.31406">
        <ele>200.2</ele>
        <time>2022-09-24T14:07:16Z</time>
      </trkpt>
      <trkpt lat="45.84908" lon="5.3141">
        <ele>200.2</ele>
        <time>2022-09-24T14:07:17Z</time>
      </trkpt>
      <trkpt lat="45.84912" lon="5.31414">
        <ele>200.2</ele>
        <time>2022-09-24T14:07:18Z</time>
      </trkpt>
      <trkpt lat="45.84918" lon="5.31417">
        <ele>200.2</ele>
        <time>2022-09-24T14:07:19Z</time>
      </trkpt>
      <trkpt lat="45.84923" lon="5.31422">
        <ele>200.1</ele>
        <time>2022-09-24T14:07:20Z</time>
      </trkpt>
      <trkpt lat="45.84928" lon="5.31426">
        <ele>200.1</ele>
        <time>2022-09-24T14:07:21Z</time>
      </trkpt>
      <trkpt lat="45.84933" lon="5.3143">
        <ele>200.1</ele>
        <time>2022-09-24T14:07:22Z</time>
      </trkpt>
      <trkpt lat="45.84938" lon="5.31434">
        <ele>200</ele>
        <time>2022-09-24T14:07:23Z</time>
      </trkpt>
      <trkpt lat="45.84943" lon="5.31438">
        <ele>200</ele>
        <time>2022-09-24T14:07:24Z</time>
      </trkpt>
      <trkpt lat="45.84947" lon="5.31442">
        <ele>200</ele>
        <time>2022-09-24T14:07:25Z</time>
      </trkpt>
      <trkpt lat="45.84952" lon="5.31446">
        <ele>200</ele>
        <time>2022-09-24T14:07:26Z</time>
      </trkpt>
      <trkpt lat="45.84956" lon="5.3145">
        <ele>199.9</ele>
        <time>2022-09-24T14:07:27Z</time>
      </trkpt>
      <trkpt lat="45.84961" lon="5.31454">
        <ele>199.9</ele>
        <time>2022-09-24T14:07:28Z</time>
      </trkpt>
      <trkpt lat="45.84965" lon="5.31458">
        <ele>199.9</ele>
        <time>2022-09-24T14:07:29Z</time>
      </trkpt>
      <trkpt lat="45.84969" lon="5.31463">
        <ele>199.8</ele>
        <time>2022-09-24T14:07:30Z</time>
      </trkpt>
      <trkpt lat="45.84974" lon="5.31467">
        <ele>199.8</ele>
        <time>2022-09-24T14:07:31Z</time>
      </trkpt>
      <trkpt lat="45.84979" lon="5.31472">
        <ele>199.8</ele>
        <time>2022-09-24T14:07:32Z</time>
      </trkpt>
      <trkpt lat="45.84983" lon="5.31477">
        <ele>199.8</ele>
        <time>2022-09-24T14:07:33Z</time>
      </trkpt>
      <trkpt lat="45.84987" lon="5.31482">
        <ele>199.7</ele>
        <time>2022-09-24T14:07:34Z</time>
      </trkpt>
      <trkpt lat="45.84992" lon="5.31487">
        <ele>199.7</ele>
        <time>2022-09-24T14:07:35Z</time>
      </trkpt>
      <trkpt lat="45.84997" lon="5.31492">
        <ele>199.7</ele>
        <time>2022-09-24T14:07:36Z</time>
      </trkpt>
      <trkpt lat="45.85001" lon="5.31497">
        <ele>199.8</ele>
        <time>2022-09-24T14:07:37Z</time>
      </trkpt>
      <trkpt lat="45.85004" lon="5.31502">
        <ele>199.8</ele>
        <time>2022-09-24T14:07:38Z</time>
      </trkpt>
      <trkpt lat="45.85008" lon="5.31508">
        <ele>199.8</ele>
        <time>2022-09-24T14:07:39Z</time>
      </trkpt>
      <trkpt lat="45.85012" lon="5.31513">
        <ele>199.9</ele>
        <time>2022-09-24T14:07:40Z</time>
      </trkpt>
      <trkpt lat="45.85016" lon="5.31518">
        <ele>200</ele>
        <time>2022-09-24T14:07:41Z</time>
      </trkpt>
      <trkpt lat="45.8502" lon="5.31522">
        <ele>200</ele>
        <time>2022-09-24T14:07:42Z</time>
      </trkpt>
      <trkpt lat="45.85024" lon="5.31527">
        <ele>200.1</ele>
        <time>2022-09-24T14:07:43Z</time>
      </trkpt>
      <trkpt lat="45.85028" lon="5.31532">
        <ele>200.1</ele>
        <time>2022-09-24T14:07:44Z</time>
      </trkpt>
      <trkpt lat="45.85031" lon="5.31537">
        <ele>200.1</ele>
        <time>2022-09-24T14:07:45Z</time>
      </trkpt>
      <trkpt lat="45.85034" lon="5.31542">
        <ele>200.2</ele>
        <time>2022-09-24T14:07:46Z</time>
      </trkpt>
      <trkpt lat="45.85038" lon="5.31547">
        <ele>200.2</ele>
        <time>2022-09-24T14:07:47Z</time>
      </trkpt>
      <trkpt lat="45.85042" lon="5.31551">
        <ele>200.3</ele>
        <time>2022-09-24T14:07:48Z</time>
      </trkpt>
      <trkpt lat="45.85045" lon="5.31556">
        <ele>200.3</ele>
        <time>2022-09-24T14:07:49Z</time>
      </trkpt>
      <trkpt lat="45.85049" lon="5.31562">
        <ele>200.4</ele>
        <time>2022-09-24T14:07:50Z</time>
      </trkpt>
      <trkpt lat="45.85053" lon="5.31567">
        <ele>200.4</ele>
        <time>2022-09-24T14:07:51Z</time>
      </trkpt>
      <trkpt lat="45.85056" lon="5.31573">
        <ele>200.5</ele>
        <time>2022-09-24T14:07:52Z</time>
      </trkpt>
      <trkpt lat="45.8506" lon="5.31579">
        <ele>200.6</ele>
        <time>2022-09-24T14:07:53Z</time>
      </trkpt>
      <trkpt lat="45.85061" lon="5.31586">
        <ele>200.6</ele>
        <time>2022-09-24T14:07:54Z</time>
      </trkpt>
      <trkpt lat="45.85063" lon="5.31592">
        <ele>200.7</ele>
        <time>2022-09-24T14:07:55Z</time>
      </trkpt>
      <trkpt lat="45.85066" lon="5.316">
        <ele>200.8</ele>
        <time>2022-09-24T14:07:56Z</time>
      </trkpt>
      <trkpt lat="45.85067" lon="5.31606">
        <ele>200.8</ele>
        <time>2022-09-24T14:07:57Z</time>
      </trkpt>
      <trkpt lat="45.85068" lon="5.31613">
        <ele>200.9</ele>
        <time>2022-09-24T14:07:58Z</time>
      </trkpt>
      <trkpt lat="45.85068" lon="5.31619">
        <ele>201</ele>
        <time>2022-09-24T14:07:59Z</time>
      </trkpt>
      <trkpt lat="45.85067" lon="5.31627">
        <ele>201</ele>
        <time>2022-09-24T14:08:00Z</time>
      </trkpt>
      <trkpt lat="45.85067" lon="5.31634">
        <ele>201.1</ele>
        <time>2022-09-24T14:08:01Z</time>
      </trkpt>
      <trkpt lat="45.85066" lon="5.31641">
        <ele>201.1</ele>
        <time>2022-09-24T14:08:02Z</time>
      </trkpt>
      <trkpt lat="45.85066" lon="5.31648">
        <ele>201.2</ele>
        <time>2022-09-24T14:08:03Z</time>
      </trkpt>
      <trkpt lat="45.85065" lon="5.31656">
        <ele>201.2</ele>
        <time>2022-09-24T14:08:04Z</time>
      </trkpt>
      <trkpt lat="45.85065" lon="5.31664">
        <ele>201.3</ele>
        <time>2022-09-24T14:08:05Z</time>
      </trkpt>
      <trkpt lat="45.85065" lon="5.31671">
        <ele>201.3</ele>
        <time>2022-09-24T14:08:06Z</time>
      </trkpt>
      <trkpt lat="45.85064" lon="5.31677">
        <ele>201.3</ele>
        <time>2022-09-24T14:08:07Z</time>
      </trkpt>
      <trkpt lat="45.85064" lon="5.31685">
        <ele>201.2</ele>
        <time>2022-09-24T14:08:08Z</time>
      </trkpt>
      <trkpt lat="45.85063" lon="5.31692">
        <ele>201.2</ele>
        <time>2022-09-24T14:08:09Z</time>
      </trkpt>
      <trkpt lat="45.85063" lon="5.317">
        <ele>201.2</ele>
        <time>2022-09-24T14:08:10Z</time>
      </trkpt>
      <trkpt lat="45.85062" lon="5.31707">
        <ele>201.1</ele>
        <time>2022-09-24T14:08:11Z</time>
      </trkpt>
      <trkpt lat="45.85063" lon="5.31715">
        <ele>201.1</ele>
        <time>2022-09-24T14:08:12Z</time>
      </trkpt>
      <trkpt lat="45.85062" lon="5.31723">
        <ele>201.1</ele>
        <time>2022-09-24T14:08:13Z</time>
      </trkpt>
      <trkpt lat="45.85061" lon="5.31729">
        <ele>201</ele>
        <time>2022-09-24T14:08:14Z</time>
      </trkpt>
      <trkpt lat="45.85061" lon="5.31737">
        <ele>201</ele>
        <time>2022-09-24T14:08:15Z</time>
      </trkpt>
      <trkpt lat="45.8506" lon="5.31744">
        <ele>201</ele>
        <time>2022-09-24T14:08:16Z</time>
      </trkpt>
      <trkpt lat="45.8506" lon="5.31752">
        <ele>200.9</ele>
        <time>2022-09-24T14:08:17Z</time>
      </trkpt>
      <trkpt lat="45.85059" lon="5.31759">
        <ele>200.9</ele>
        <time>2022-09-24T14:08:18Z</time>
      </trkpt>
      <trkpt lat="45.85058" lon="5.31768">
        <ele>200.9</ele>
        <time>2022-09-24T14:08:19Z</time>
      </trkpt>
      <trkpt lat="45.85058" lon="5.31775">
        <ele>200.9</ele>
        <time>2022-09-24T14:08:20Z</time>
      </trkpt>
      <trkpt lat="45.85057" lon="5.31782">
        <ele>200.9</ele>
        <time>2022-09-24T14:08:21Z</time>
      </trkpt>
      <trkpt lat="45.85057" lon="5.3179">
        <ele>200.9</ele>
        <time>2022-09-24T14:08:22Z</time>
      </trkpt>
      <trkpt lat="45.85056" lon="5.31797">
        <ele>200.9</ele>
        <time>2022-09-24T14:08:23Z</time>
      </trkpt>
      <trkpt lat="45.85056" lon="5.31805">
        <ele>200.8</ele>
        <time>2022-09-24T14:08:24Z</time>
      </trkpt>
      <trkpt lat="45.85054" lon="5.31814">
        <ele>200.8</ele>
        <time>2022-09-24T14:08:25Z</time>
      </trkpt>
      <trkpt lat="45.85055" lon="5.31823">
        <ele>200.8</ele>
        <time>2022-09-24T14:08:26Z</time>
      </trkpt>
      <trkpt lat="45.85054" lon="5.3183">
        <ele>200.8</ele>
        <time>2022-09-24T14:08:27Z</time>
      </trkpt>
      <trkpt lat="45.85054" lon="5.31839">
        <ele>200.8</ele>
        <time>2022-09-24T14:08:28Z</time>
      </trkpt>
      <trkpt lat="45.85054" lon="5.31847">
        <ele>200.8</ele>
        <time>2022-09-24T14:08:29Z</time>
      </trkpt>
      <trkpt lat="45.85053" lon="5.31854">
        <ele>200.8</ele>
        <time>2022-09-24T14:08:30Z</time>
      </trkpt>
      <trkpt lat="45.85053" lon="5.31862">
        <ele>200.8</ele>
        <time>2022-09-24T14:08:31Z</time>
      </trkpt>
      <trkpt lat="45.85053" lon="5.31868">
        <ele>200.7</ele>
        <time>2022-09-24T14:08:32Z</time>
      </trkpt>
      <trkpt lat="45.85052" lon="5.31878">
        <ele>200.7</ele>
        <time>2022-09-24T14:08:33Z</time>
      </trkpt>
      <trkpt lat="45.85052" lon="5.31884">
        <ele>200.7</ele>
        <time>2022-09-24T14:08:34Z</time>
      </trkpt>
      <trkpt lat="45.85051" lon="5.31891">
        <ele>200.6</ele>
        <time>2022-09-24T14:08:35Z</time>
      </trkpt>
      <trkpt lat="45.8505" lon="5.31898">
        <ele>200.6</ele>
        <time>2022-09-24T14:08:36Z</time>
      </trkpt>
      <trkpt lat="45.85052" lon="5.31907">
        <ele>200.6</ele>
        <time>2022-09-24T14:08:37Z</time>
      </trkpt>
      <trkpt lat="45.8505" lon="5.31915">
        <ele>200.7</ele>
        <time>2022-09-24T14:08:38Z</time>
      </trkpt>
      <trkpt lat="45.85049" lon="5.31923">
        <ele>200.7</ele>
        <time>2022-09-24T14:08:39Z</time>
      </trkpt>
      <trkpt lat="45.85049" lon="5.31932">
        <ele>200.7</ele>
        <time>2022-09-24T14:08:40Z</time>
      </trkpt>
      <trkpt lat="45.85049" lon="5.3194">
        <ele>200.8</ele>
        <time>2022-09-24T14:08:41Z</time>
      </trkpt>
      <trkpt lat="45.85048" lon="5.31948">
        <ele>200.9</ele>
        <time>2022-09-24T14:08:42Z</time>
      </trkpt>
      <trkpt lat="45.85048" lon="5.31956">
        <ele>200.9</ele>
        <time>2022-09-24T14:08:43Z</time>
      </trkpt>
      <trkpt lat="45.85047" lon="5.31963">
        <ele>201</ele>
        <time>2022-09-24T14:08:44Z</time>
      </trkpt>
      <trkpt lat="45.85047" lon="5.3197">
        <ele>201</ele>
        <time>2022-09-24T14:08:45Z</time>
      </trkpt>
      <trkpt lat="45.85045" lon="5.31977">
        <ele>201</ele>
        <time>2022-09-24T14:08:46Z</time>
      </trkpt>
      <trkpt lat="45.85046" lon="5.31986">
        <ele>201.1</ele>
        <time>2022-09-24T14:08:47Z</time>
      </trkpt>
      <trkpt lat="45.85046" lon="5.31994">
        <ele>201.1</ele>
        <time>2022-09-24T14:08:48Z</time>
      </trkpt>
      <trkpt lat="45.85046" lon="5.32002">
        <ele>201.2</ele>
        <time>2022-09-24T14:08:49Z</time>
      </trkpt>
      <trkpt lat="45.85044" lon="5.3201">
        <ele>201.2</ele>
        <time>2022-09-24T14:08:50Z</time>
      </trkpt>
      <trkpt lat="45.85044" lon="5.32016">
        <ele>201.2</ele>
        <time>2022-09-24T14:08:51Z</time>
      </trkpt>
      <trkpt lat="45.85044" lon="5.32025">
        <ele>201.2</ele>
        <time>2022-09-24T14:08:52Z</time>
      </trkpt>
      <trkpt lat="45.85043" lon="5.32033">
        <ele>201.3</ele>
        <time>2022-09-24T14:08:53Z</time>
      </trkpt>
      <trkpt lat="45.85043" lon="5.32041">
        <ele>201.3</ele>
        <time>2022-09-24T14:08:54Z</time>
      </trkpt>
      <trkpt lat="45.85043" lon="5.32049">
        <ele>201.3</ele>
        <time>2022-09-24T14:08:55Z</time>
      </trkpt>
      <trkpt lat="45.85042" lon="5.32058">
        <ele>201.3</ele>
        <time>2022-09-24T14:08:56Z</time>
      </trkpt>
      <trkpt lat="45.85042" lon="5.32066">
        <ele>201.3</ele>
        <time>2022-09-24T14:08:57Z</time>
      </trkpt>
      <trkpt lat="45.85041" lon="5.32074">
        <ele>201.4</ele>
        <time>2022-09-24T14:08:58Z</time>
      </trkpt>
      <trkpt lat="45.85041" lon="5.32082">
        <ele>201.4</ele>
        <time>2022-09-24T14:08:59Z</time>
      </trkpt>
      <trkpt lat="45.8504" lon="5.3209">
        <ele>201.5</ele>
        <time>2022-09-24T14:09:00Z</time>
      </trkpt>
      <trkpt lat="45.85039" lon="5.32098">
        <ele>201.5</ele>
        <time>2022-09-24T14:09:01Z</time>
      </trkpt>
      <trkpt lat="45.85038" lon="5.32106">
        <ele>201.6</ele>
        <time>2022-09-24T14:09:02Z</time>
      </trkpt>
      <trkpt lat="45.85037" lon="5.32113">
        <ele>201.6</ele>
        <time>2022-09-24T14:09:03Z</time>
      </trkpt>
      <trkpt lat="45.85035" lon="5.32121">
        <ele>201.7</ele>
        <time>2022-09-24T14:09:04Z</time>
      </trkpt>
      <trkpt lat="45.85034" lon="5.32128">
        <ele>201.7</ele>
        <time>2022-09-24T14:09:05Z</time>
      </trkpt>
      <trkpt lat="45.85033" lon="5.32136">
        <ele>201.7</ele>
        <time>2022-09-24T14:09:06Z</time>
      </trkpt>
      <trkpt lat="45.8503" lon="5.32143">
        <ele>201.8</ele>
        <time>2022-09-24T14:09:07Z</time>
      </trkpt>
      <trkpt lat="45.85029" lon="5.3215">
        <ele>201.8</ele>
        <time>2022-09-24T14:09:08Z</time>
      </trkpt>
      <trkpt lat="45.85028" lon="5.32157">
        <ele>201.8</ele>
        <time>2022-09-24T14:09:09Z</time>
      </trkpt>
      <trkpt lat="45.85026" lon="5.32165">
        <ele>201.8</ele>
        <time>2022-09-24T14:09:10Z</time>
      </trkpt>
      <trkpt lat="45.85024" lon="5.32172">
        <ele>201.8</ele>
        <time>2022-09-24T14:09:11Z</time>
      </trkpt>
      <trkpt lat="45.85023" lon="5.32179">
        <ele>201.8</ele>
        <time>2022-09-24T14:09:12Z</time>
      </trkpt>
      <trkpt lat="45.85021" lon="5.32187">
        <ele>201.8</ele>
        <time>2022-09-24T14:09:13Z</time>
      </trkpt>
      <trkpt lat="45.8502" lon="5.32195">
        <ele>201.8</ele>
        <time>2022-09-24T14:09:14Z</time>
      </trkpt>
      <trkpt lat="45.85018" lon="5.32203">
        <ele>201.8</ele>
        <time>2022-09-24T14:09:15Z</time>
      </trkpt>
      <trkpt lat="45.85016" lon="5.3221">
        <ele>201.8</ele>
        <time>2022-09-24T14:09:16Z</time>
      </trkpt>
      <trkpt lat="45.85015" lon="5.32218">
        <ele>201.9</ele>
        <time>2022-09-24T14:09:17Z</time>
      </trkpt>
      <trkpt lat="45.85013" lon="5.32225">
        <ele>201.9</ele>
        <time>2022-09-24T14:09:18Z</time>
      </trkpt>
      <trkpt lat="45.85011" lon="5.32233">
        <ele>201.9</ele>
        <time>2022-09-24T14:09:19Z</time>
      </trkpt>
      <trkpt lat="45.8501" lon="5.3224">
        <ele>201.9</ele>
        <time>2022-09-24T14:09:20Z</time>
      </trkpt>
      <trkpt lat="45.85008" lon="5.32248">
        <ele>202</ele>
        <time>2022-09-24T14:09:21Z</time>
      </trkpt>
      <trkpt lat="45.85007" lon="5.32256">
        <ele>202</ele>
        <time>2022-09-24T14:09:22Z</time>
      </trkpt>
      <trkpt lat="45.85006" lon="5.32264">
        <ele>202.1</ele>
        <time>2022-09-24T14:09:23Z</time>
      </trkpt>
      <trkpt lat="45.85005" lon="5.32272">
        <ele>202.1</ele>
        <time>2022-09-24T14:09:24Z</time>
      </trkpt>
      <trkpt lat="45.85004" lon="5.32279">
        <ele>202.1</ele>
        <time>2022-09-24T14:09:25Z</time>
      </trkpt>
      <trkpt lat="45.85003" lon="5.32286">
        <ele>202.2</ele>
        <time>2022-09-24T14:09:26Z</time>
      </trkpt>
      <trkpt lat="45.85004" lon="5.32294">
        <ele>202.2</ele>
        <time>2022-09-24T14:09:27Z</time>
      </trkpt>
      <trkpt lat="45.85004" lon="5.32302">
        <ele>202.3</ele>
        <time>2022-09-24T14:09:28Z</time>
      </trkpt>
      <trkpt lat="45.85005" lon="5.32309">
        <ele>202.4</ele>
        <time>2022-09-24T14:09:29Z</time>
      </trkpt>
      <trkpt lat="45.85007" lon="5.32317">
        <ele>202.4</ele>
        <time>2022-09-24T14:09:30Z</time>
      </trkpt>
      <trkpt lat="45.85009" lon="5.32324">
        <ele>202.5</ele>
        <time>2022-09-24T14:09:31Z</time>
      </trkpt>
      <trkpt lat="45.85012" lon="5.3233">
        <ele>202.6</ele>
        <time>2022-09-24T14:09:32Z</time>
      </trkpt>
      <trkpt lat="45.85014" lon="5.32337">
        <ele>202.6</ele>
        <time>2022-09-24T14:09:33Z</time>
      </trkpt>
      <trkpt lat="45.85016" lon="5.32343">
        <ele>202.7</ele>
        <time>2022-09-24T14:09:34Z</time>
      </trkpt>
      <trkpt lat="45.8502" lon="5.32349">
        <ele>202.7</ele>
        <time>2022-09-24T14:09:35Z</time>
      </trkpt>
      <trkpt lat="45.85022" lon="5.32355">
        <ele>202.7</ele>
        <time>2022-09-24T14:09:36Z</time>
      </trkpt>
      <trkpt lat="45.85026" lon="5.32362">
        <ele>202.8</ele>
        <time>2022-09-24T14:09:37Z</time>
      </trkpt>
      <trkpt lat="45.85028" lon="5.32368">
        <ele>202.8</ele>
        <time>2022-09-24T14:09:38Z</time>
      </trkpt>
      <trkpt lat="45.8503" lon="5.32374">
        <ele>202.8</ele>
        <time>2022-09-24T14:09:39Z</time>
      </trkpt>
      <trkpt lat="45.85033" lon="5.32381">
        <ele>202.8</ele>
        <time>2022-09-24T14:09:40Z</time>
      </trkpt>
      <trkpt lat="45.85037" lon="5.32387">
        <ele>202.9</ele>
        <time>2022-09-24T14:09:41Z</time>
      </trkpt>
      <trkpt lat="45.85038" lon="5.32393">
        <ele>202.9</ele>
        <time>2022-09-24T14:09:42Z</time>
      </trkpt>
      <trkpt lat="45.85041" lon="5.324">
        <ele>202.9</ele>
        <time>2022-09-24T14:09:43Z</time>
      </trkpt>
      <trkpt lat="45.85044" lon="5.32407">
        <ele>203</ele>
        <time>2022-09-24T14:09:44Z</time>
      </trkpt>
      <trkpt lat="45.85046" lon="5.32414">
        <ele>203</ele>
        <time>2022-09-24T14:09:45Z</time>
      </trkpt>
      <trkpt lat="45.85049" lon="5.32421">
        <ele>203.1</ele>
        <time>2022-09-24T14:09:46Z</time>
      </trkpt>
      <trkpt lat="45.85051" lon="5.32428">
        <ele>203.1</ele>
        <time>2022-09-24T14:09:47Z</time>
      </trkpt>
      <trkpt lat="45.85053" lon="5.32434">
        <ele>203.2</ele>
        <time>2022-09-24T14:09:48Z</time>
      </trkpt>
      <trkpt lat="45.85056" lon="5.32442">
        <ele>203.2</ele>
        <time>2022-09-24T14:09:49Z</time>
      </trkpt>
      <trkpt lat="45.85059" lon="5.32447">
        <ele>203.3</ele>
        <time>2022-09-24T14:09:50Z</time>
      </trkpt>
      <trkpt lat="45.85061" lon="5.32454">
        <ele>203.3</ele>
        <time>2022-09-24T14:09:51Z</time>
      </trkpt>
      <trkpt lat="45.85063" lon="5.32461">
        <ele>203.4</ele>
        <time>2022-09-24T14:09:52Z</time>
      </trkpt>
      <trkpt lat="45.85066" lon="5.32467">
        <ele>203.4</ele>
        <time>2022-09-24T14:09:53Z</time>
      </trkpt>
      <trkpt lat="45.85068" lon="5.32474">
        <ele>203.4</ele>
        <time>2022-09-24T14:09:54Z</time>
      </trkpt>
      <trkpt lat="45.8507" lon="5.32481">
        <ele>203.4</ele>
        <time>2022-09-24T14:09:55Z</time>
      </trkpt>
      <trkpt lat="45.85072" lon="5.32488">
        <ele>203.5</ele>
        <time>2022-09-24T14:09:56Z</time>
      </trkpt>
      <trkpt lat="45.85074" lon="5.32496">
        <ele>203.6</ele>
        <time>2022-09-24T14:09:57Z</time>
      </trkpt>
      <trkpt lat="45.85076" lon="5.32502">
        <ele>203.6</ele>
        <time>2022-09-24T14:09:58Z</time>
      </trkpt>
      <trkpt lat="45.85079" lon="5.3251">
        <ele>203.7</ele>
        <time>2022-09-24T14:09:59Z</time>
      </trkpt>
      <trkpt lat="45.85082" lon="5.32516">
        <ele>203.8</ele>
        <time>2022-09-24T14:10:00Z</time>
      </trkpt>
      <trkpt lat="45.85084" lon="5.32523">
        <ele>203.8</ele>
        <time>2022-09-24T14:10:01Z</time>
      </trkpt>
      <trkpt lat="45.85087" lon="5.3253">
        <ele>203.9</ele>
        <time>2022-09-24T14:10:02Z</time>
      </trkpt>
      <trkpt lat="45.8509" lon="5.32536">
        <ele>203.9</ele>
        <time>2022-09-24T14:10:03Z</time>
      </trkpt>
      <trkpt lat="45.85093" lon="5.32542">
        <ele>204</ele>
        <time>2022-09-24T14:10:04Z</time>
      </trkpt>
      <trkpt lat="45.85096" lon="5.32549">
        <ele>204</ele>
        <time>2022-09-24T14:10:05Z</time>
      </trkpt>
      <trkpt lat="45.85098" lon="5.32556">
        <ele>204.1</ele>
        <time>2022-09-24T14:10:06Z</time>
      </trkpt>
      <trkpt lat="45.85102" lon="5.32563">
        <ele>204.2</ele>
        <time>2022-09-24T14:10:07Z</time>
      </trkpt>
      <trkpt lat="45.85105" lon="5.32569">
        <ele>204.2</ele>
        <time>2022-09-24T14:10:08Z</time>
      </trkpt>
      <trkpt lat="45.85107" lon="5.32576">
        <ele>204.3</ele>
        <time>2022-09-24T14:10:09Z</time>
      </trkpt>
      <trkpt lat="45.8511" lon="5.32582">
        <ele>204.4</ele>
        <time>2022-09-24T14:10:10Z</time>
      </trkpt>
      <trkpt lat="45.85113" lon="5.32589">
        <ele>204.4</ele>
        <time>2022-09-24T14:10:11Z</time>
      </trkpt>
      <trkpt lat="45.85116" lon="5.32596">
        <ele>204.5</ele>
        <time>2022-09-24T14:10:12Z</time>
      </trkpt>
      <trkpt lat="45.85119" lon="5.32602">
        <ele>204.5</ele>
        <time>2022-09-24T14:10:13Z</time>
      </trkpt>
      <trkpt lat="45.85121" lon="5.32609">
        <ele>204.6</ele>
        <time>2022-09-24T14:10:14Z</time>
      </trkpt>
      <trkpt lat="45.85124" lon="5.32616">
        <ele>204.6</ele>
        <time>2022-09-24T14:10:15Z</time>
      </trkpt>
      <trkpt lat="45.85127" lon="5.32623">
        <ele>204.6</ele>
        <time>2022-09-24T14:10:16Z</time>
      </trkpt>
      <trkpt lat="45.85129" lon="5.32629">
        <ele>204.7</ele>
        <time>2022-09-24T14:10:17Z</time>
      </trkpt>
      <trkpt lat="45.85132" lon="5.32636">
        <ele>204.7</ele>
        <time>2022-09-24T14:10:18Z</time>
      </trkpt>
      <trkpt lat="45.85135" lon="5.32643">
        <ele>204.8</ele>
        <time>2022-09-24T14:10:19Z</time>
      </trkpt>
      <trkpt lat="45.85137" lon="5.3265">
        <ele>204.8</ele>
        <time>2022-09-24T14:10:20Z</time>
      </trkpt>
      <trkpt lat="45.8514" lon="5.32656">
        <ele>204.8</ele>
        <time>2022-09-24T14:10:21Z</time>
      </trkpt>
      <trkpt lat="45.85142" lon="5.32663">
        <ele>204.9</ele>
        <time>2022-09-24T14:10:22Z</time>
      </trkpt>
      <trkpt lat="45.85145" lon="5.3267">
        <ele>204.9</ele>
        <time>2022-09-24T14:10:23Z</time>
      </trkpt>
      <trkpt lat="45.85147" lon="5.32677">
        <ele>205</ele>
        <time>2022-09-24T14:10:24Z</time>
      </trkpt>
      <trkpt lat="45.8515" lon="5.32683">
        <ele>205</ele>
        <time>2022-09-24T14:10:25Z</time>
      </trkpt>
      <trkpt lat="45.85153" lon="5.3269">
        <ele>205.1</ele>
        <time>2022-09-24T14:10:26Z</time>
      </trkpt>
      <trkpt lat="45.85155" lon="5.32697">
        <ele>205.2</ele>
        <time>2022-09-24T14:10:27Z</time>
      </trkpt>
      <trkpt lat="45.85158" lon="5.32704">
        <ele>205.2</ele>
        <time>2022-09-24T14:10:28Z</time>
      </trkpt>
      <trkpt lat="45.8516" lon="5.32711">
        <ele>205.3</ele>
        <time>2022-09-24T14:10:29Z</time>
      </trkpt>
      <trkpt lat="45.85162" lon="5.32717">
        <ele>205.4</ele>
        <time>2022-09-24T14:10:30Z</time>
      </trkpt>
      <trkpt lat="45.85165" lon="5.32724">
        <ele>205.4</ele>
        <time>2022-09-24T14:10:31Z</time>
      </trkpt>
      <trkpt lat="45.85168" lon="5.32731">
        <ele>205.5</ele>
        <time>2022-09-24T14:10:32Z</time>
      </trkpt>
      <trkpt lat="45.8517" lon="5.32737">
        <ele>205.6</ele>
        <time>2022-09-24T14:10:33Z</time>
      </trkpt>
      <trkpt lat="45.85173" lon="5.32744">
        <ele>205.7</ele>
        <time>2022-09-24T14:10:34Z</time>
      </trkpt>
      <trkpt lat="45.85174" lon="5.32751">
        <ele>205.8</ele>
        <time>2022-09-24T14:10:35Z</time>
      </trkpt>
      <trkpt lat="45.85176" lon="5.32758">
        <ele>205.8</ele>
        <time>2022-09-24T14:10:36Z</time>
      </trkpt>
      <trkpt lat="45.85178" lon="5.32764">
        <ele>205.9</ele>
        <time>2022-09-24T14:10:37Z</time>
      </trkpt>
      <trkpt lat="45.85179" lon="5.32771">
        <ele>206</ele>
        <time>2022-09-24T14:10:38Z</time>
      </trkpt>
      <trkpt lat="45.85181" lon="5.32778">
        <ele>206.1</ele>
        <time>2022-09-24T14:10:39Z</time>
      </trkpt>
      <trkpt lat="45.85181" lon="5.32785">
        <ele>206.1</ele>
        <time>2022-09-24T14:10:40Z</time>
      </trkpt>
      <trkpt lat="45.85182" lon="5.32792">
        <ele>206.1</ele>
        <time>2022-09-24T14:10:41Z</time>
      </trkpt>
      <trkpt lat="45.85183" lon="5.32801">
        <ele>206.1</ele>
        <time>2022-09-24T14:10:42Z</time>
      </trkpt>
      <trkpt lat="45.85183" lon="5.32808">
        <ele>206.1</ele>
        <time>2022-09-24T14:10:43Z</time>
      </trkpt>
      <trkpt lat="45.85183" lon="5.32815">
        <ele>206.2</ele>
        <time>2022-09-24T14:10:44Z</time>
      </trkpt>
      <trkpt lat="45.85182" lon="5.32823">
        <ele>206.2</ele>
        <time>2022-09-24T14:10:45Z</time>
      </trkpt>
      <trkpt lat="45.85182" lon="5.3283">
        <ele>206.2</ele>
        <time>2022-09-24T14:10:46Z</time>
      </trkpt>
      <trkpt lat="45.85182" lon="5.32839">
        <ele>206.3</ele>
        <time>2022-09-24T14:10:47Z</time>
      </trkpt>
      <trkpt lat="45.85182" lon="5.32846">
        <ele>206.3</ele>
        <time>2022-09-24T14:10:48Z</time>
      </trkpt>
      <trkpt lat="45.85182" lon="5.32853">
        <ele>206.3</ele>
        <time>2022-09-24T14:10:49Z</time>
      </trkpt>
      <trkpt lat="45.85181" lon="5.32861">
        <ele>206.4</ele>
        <time>2022-09-24T14:10:50Z</time>
      </trkpt>
      <trkpt lat="45.8518" lon="5.32869">
        <ele>206.4</ele>
        <time>2022-09-24T14:10:51Z</time>
      </trkpt>
      <trkpt lat="45.8518" lon="5.32877">
        <ele>206.4</ele>
        <time>2022-09-24T14:10:52Z</time>
      </trkpt>
      <trkpt lat="45.85179" lon="5.32884">
        <ele>206.4</ele>
        <time>2022-09-24T14:10:53Z</time>
      </trkpt>
      <trkpt lat="45.85178" lon="5.32892">
        <ele>206.5</ele>
        <time>2022-09-24T14:10:54Z</time>
      </trkpt>
      <trkpt lat="45.85177" lon="5.329">
        <ele>206.5</ele>
        <time>2022-09-24T14:10:55Z</time>
      </trkpt>
      <trkpt lat="45.85176" lon="5.32907">
        <ele>206.5</ele>
        <time>2022-09-24T14:10:56Z</time>
      </trkpt>
      <trkpt lat="45.85175" lon="5.32915">
        <ele>206.5</ele>
        <time>2022-09-24T14:10:57Z</time>
      </trkpt>
      <trkpt lat="45.85173" lon="5.32922">
        <ele>206.5</ele>
        <time>2022-09-24T14:10:58Z</time>
      </trkpt>
      <trkpt lat="45.85172" lon="5.3293">
        <ele>206.6</ele>
        <time>2022-09-24T14:10:59Z</time>
      </trkpt>
      <trkpt lat="45.85172" lon="5.32938">
        <ele>206.6</ele>
        <time>2022-09-24T14:11:00Z</time>
      </trkpt>
      <trkpt lat="45.85171" lon="5.32945">
        <ele>206.6</ele>
        <time>2022-09-24T14:11:01Z</time>
      </trkpt>
      <trkpt lat="45.8517" lon="5.32953">
        <ele>206.7</ele>
        <time>2022-09-24T14:11:02Z</time>
      </trkpt>
      <trkpt lat="45.85169" lon="5.3296">
        <ele>206.7</ele>
        <time>2022-09-24T14:11:03Z</time>
      </trkpt>
      <trkpt lat="45.85168" lon="5.32968">
        <ele>206.7</ele>
        <time>2022-09-24T14:11:04Z</time>
      </trkpt>
      <trkpt lat="45.85167" lon="5.32976">
        <ele>206.7</ele>
        <time>2022-09-24T14:11:05Z</time>
      </trkpt>
      <trkpt lat="45.85166" lon="5.32983">
        <ele>206.8</ele>
        <time>2022-09-24T14:11:06Z</time>
      </trkpt>
      <trkpt lat="45.85164" lon="5.32991">
        <ele>206.8</ele>
        <time>2022-09-24T14:11:07Z</time>
      </trkpt>
      <trkpt lat="45.85163" lon="5.32999">
        <ele>206.9</ele>
        <time>2022-09-24T14:11:08Z</time>
      </trkpt>
      <trkpt lat="45.85162" lon="5.33005">
        <ele>206.9</ele>
        <time>2022-09-24T14:11:09Z</time>
      </trkpt>
      <trkpt lat="45.85162" lon="5.33012">
        <ele>206.9</ele>
        <time>2022-09-24T14:11:10Z</time>
      </trkpt>
      <trkpt lat="45.8516" lon="5.33018">
        <ele>207</ele>
        <time>2022-09-24T14:11:11Z</time>
      </trkpt>
      <trkpt lat="45.85159" lon="5.33026">
        <ele>207.1</ele>
        <time>2022-09-24T14:11:12Z</time>
      </trkpt>
      <trkpt lat="45.85158" lon="5.33032">
        <ele>207.1</ele>
        <time>2022-09-24T14:11:13Z</time>
      </trkpt>
      <trkpt lat="45.85156" lon="5.33039">
        <ele>207.2</ele>
        <time>2022-09-24T14:11:14Z</time>
      </trkpt>
      <trkpt lat="45.85155" lon="5.33045">
        <ele>207.2</ele>
        <time>2022-09-24T14:11:15Z</time>
      </trkpt>
      <trkpt lat="45.85154" lon="5.33052">
        <ele>207.3</ele>
        <time>2022-09-24T14:11:16Z</time>
      </trkpt>
      <trkpt lat="45.85153" lon="5.33058">
        <ele>207.4</ele>
        <time>2022-09-24T14:11:17Z</time>
      </trkpt>
      <trkpt lat="45.85152" lon="5.33065">
        <ele>207.4</ele>
        <time>2022-09-24T14:11:18Z</time>
      </trkpt>
      <trkpt lat="45.85151" lon="5.33072">
        <ele>207.5</ele>
        <time>2022-09-24T14:11:19Z</time>
      </trkpt>
      <trkpt lat="45.8515" lon="5.33079">
        <ele>207.6</ele>
        <time>2022-09-24T14:11:20Z</time>
      </trkpt>
      <trkpt lat="45.85149" lon="5.33085">
        <ele>207.7</ele>
        <time>2022-09-24T14:11:21Z</time>
      </trkpt>
      <trkpt lat="45.85148" lon="5.33091">
        <ele>207.7</ele>
        <time>2022-09-24T14:11:22Z</time>
      </trkpt>
      <trkpt lat="45.85149" lon="5.33099">
        <ele>207.8</ele>
        <time>2022-09-24T14:11:23Z</time>
      </trkpt>
      <trkpt lat="45.85151" lon="5.33105">
        <ele>207.9</ele>
        <time>2022-09-24T14:11:24Z</time>
      </trkpt>
      <trkpt lat="45.85154" lon="5.33111">
        <ele>207.9</ele>
        <time>2022-09-24T14:11:25Z</time>
      </trkpt>
      <trkpt lat="45.85158" lon="5.33116">
        <ele>207.9</ele>
        <time>2022-09-24T14:11:26Z</time>
      </trkpt>
      <trkpt lat="45.85162" lon="5.33119">
        <ele>207.9</ele>
        <time>2022-09-24T14:11:27Z</time>
      </trkpt>
      <trkpt lat="45.85167" lon="5.33124">
        <ele>208</ele>
        <time>2022-09-24T14:11:28Z</time>
      </trkpt>
      <trkpt lat="45.85171" lon="5.33128">
        <ele>208</ele>
        <time>2022-09-24T14:11:29Z</time>
      </trkpt>
      <trkpt lat="45.85176" lon="5.33132">
        <ele>208</ele>
        <time>2022-09-24T14:11:30Z</time>
      </trkpt>
      <trkpt lat="45.8518" lon="5.33136">
        <ele>208</ele>
        <time>2022-09-24T14:11:31Z</time>
      </trkpt>
      <trkpt lat="45.85184" lon="5.33139">
        <ele>208.1</ele>
        <time>2022-09-24T14:11:32Z</time>
      </trkpt>
      <trkpt lat="45.85189" lon="5.33144">
        <ele>208.1</ele>
        <time>2022-09-24T14:11:33Z</time>
      </trkpt>
      <trkpt lat="45.85194" lon="5.33147">
        <ele>208.1</ele>
        <time>2022-09-24T14:11:34Z</time>
      </trkpt>
      <trkpt lat="45.85199" lon="5.33149">
        <ele>208.1</ele>
        <time>2022-09-24T14:11:35Z</time>
      </trkpt>
      <trkpt lat="45.85202" lon="5.33151">
        <ele>208.1</ele>
        <time>2022-09-24T14:11:36Z</time>
      </trkpt>
      <trkpt lat="45.85208" lon="5.33155">
        <ele>208.1</ele>
        <time>2022-09-24T14:11:37Z</time>
      </trkpt>
      <trkpt lat="45.85213" lon="5.33157">
        <ele>208.1</ele>
        <time>2022-09-24T14:11:38Z</time>
      </trkpt>
      <trkpt lat="45.85217" lon="5.33158">
        <ele>208.1</ele>
        <time>2022-09-24T14:11:39Z</time>
      </trkpt>
      <trkpt lat="45.85223" lon="5.3316">
        <ele>208.1</ele>
        <time>2022-09-24T14:11:40Z</time>
      </trkpt>
      <trkpt lat="45.85227" lon="5.33162">
        <ele>208</ele>
        <time>2022-09-24T14:11:41Z</time>
      </trkpt>
      <trkpt lat="45.85232" lon="5.33164">
        <ele>208</ele>
        <time>2022-09-24T14:11:42Z</time>
      </trkpt>
      <trkpt lat="45.85237" lon="5.33165">
        <ele>208</ele>
        <time>2022-09-24T14:11:43Z</time>
      </trkpt>
      <trkpt lat="45.85242" lon="5.33166">
        <ele>208</ele>
        <time>2022-09-24T14:11:44Z</time>
      </trkpt>
      <trkpt lat="45.85248" lon="5.33167">
        <ele>208</ele>
        <time>2022-09-24T14:11:45Z</time>
      </trkpt>
      <trkpt lat="45.85252" lon="5.33169">
        <ele>208</ele>
        <time>2022-09-24T14:11:46Z</time>
      </trkpt>
      <trkpt lat="45.85257" lon="5.33171">
        <ele>208</ele>
        <time>2022-09-24T14:11:47Z</time>
      </trkpt>
      <trkpt lat="45.85262" lon="5.33172">
        <ele>207.9</ele>
        <time>2022-09-24T14:11:48Z</time>
      </trkpt>
      <trkpt lat="45.85267" lon="5.33174">
        <ele>207.9</ele>
        <time>2022-09-24T14:11:49Z</time>
      </trkpt>
      <trkpt lat="45.85272" lon="5.33176">
        <ele>207.9</ele>
        <time>2022-09-24T14:11:50Z</time>
      </trkpt>
      <trkpt lat="45.85278" lon="5.33176">
        <ele>207.9</ele>
        <time>2022-09-24T14:11:51Z</time>
      </trkpt>
      <trkpt lat="45.85283" lon="5.33176">
        <ele>207.9</ele>
        <time>2022-09-24T14:11:52Z</time>
      </trkpt>
      <trkpt lat="45.85287" lon="5.33179">
        <ele>207.9</ele>
        <time>2022-09-24T14:11:53Z</time>
      </trkpt>
      <trkpt lat="45.85293" lon="5.3318">
        <ele>207.9</ele>
        <time>2022-09-24T14:11:54Z</time>
      </trkpt>
      <trkpt lat="45.85297" lon="5.33182">
        <ele>207.9</ele>
        <time>2022-09-24T14:11:55Z</time>
      </trkpt>
      <trkpt lat="45.85303" lon="5.33183">
        <ele>207.9</ele>
        <time>2022-09-24T14:11:56Z</time>
      </trkpt>
      <trkpt lat="45.85308" lon="5.33184">
        <ele>207.9</ele>
        <time>2022-09-24T14:11:57Z</time>
      </trkpt>
      <trkpt lat="45.85313" lon="5.33186">
        <ele>207.9</ele>
        <time>2022-09-24T14:11:58Z</time>
      </trkpt>
      <trkpt lat="45.85318" lon="5.33188">
        <ele>207.9</ele>
        <time>2022-09-24T14:11:59Z</time>
      </trkpt>
      <trkpt lat="45.85321" lon="5.33192">
        <ele>208</ele>
        <time>2022-09-24T14:12:00Z</time>
      </trkpt>
      <trkpt lat="45.85323" lon="5.33197">
        <ele>208</ele>
        <time>2022-09-24T14:12:01Z</time>
      </trkpt>
      <trkpt lat="45.85324" lon="5.33205">
        <ele>207.9</ele>
        <time>2022-09-24T14:12:02Z</time>
      </trkpt>
      <trkpt lat="45.85324" lon="5.33211">
        <ele>207.9</ele>
        <time>2022-09-24T14:12:03Z</time>
      </trkpt>
      <trkpt lat="45.85323" lon="5.33218">
        <ele>207.9</ele>
        <time>2022-09-24T14:12:04Z</time>
      </trkpt>
      <trkpt lat="45.8532" lon="5.33224">
        <ele>207.9</ele>
        <time>2022-09-24T14:12:05Z</time>
      </trkpt>
      <trkpt lat="45.85317" lon="5.33231">
        <ele>207.9</ele>
        <time>2022-09-24T14:12:06Z</time>
      </trkpt>
      <trkpt lat="45.85315" lon="5.33238">
        <ele>207.9</ele>
        <time>2022-09-24T14:12:07Z</time>
      </trkpt>
      <trkpt lat="45.85314" lon="5.33245">
        <ele>207.9</ele>
        <time>2022-09-24T14:12:08Z</time>
      </trkpt>
      <trkpt lat="45.85312" lon="5.33252">
        <ele>208</ele>
        <time>2022-09-24T14:12:09Z</time>
      </trkpt>
      <trkpt lat="45.8531" lon="5.33259">
        <ele>208</ele>
        <time>2022-09-24T14:12:10Z</time>
      </trkpt>
      <trkpt lat="45.85308" lon="5.33266">
        <ele>208</ele>
        <time>2022-09-24T14:12:11Z</time>
      </trkpt>
      <trkpt lat="45.85306" lon="5.33274">
        <ele>208.1</ele>
        <time>2022-09-24T14:12:12Z</time>
      </trkpt>
      <trkpt lat="45.85304" lon="5.33281">
        <ele>208.1</ele>
        <time>2022-09-24T14:12:13Z</time>
      </trkpt>
      <trkpt lat="45.85302" lon="5.33288">
        <ele>208.2</ele>
        <time>2022-09-24T14:12:14Z</time>
      </trkpt>
      <trkpt lat="45.853" lon="5.33295">
        <ele>208.3</ele>
        <time>2022-09-24T14:12:15Z</time>
      </trkpt>
      <trkpt lat="45.85298" lon="5.33302">
        <ele>208.4</ele>
        <time>2022-09-24T14:12:16Z</time>
      </trkpt>
      <trkpt lat="45.85296" lon="5.33309">
        <ele>208.5</ele>
        <time>2022-09-24T14:12:17Z</time>
      </trkpt>
      <trkpt lat="45.85294" lon="5.33317">
        <ele>208.6</ele>
        <time>2022-09-24T14:12:18Z</time>
      </trkpt>
      <trkpt lat="45.85292" lon="5.33323">
        <ele>208.7</ele>
        <time>2022-09-24T14:12:19Z</time>
      </trkpt>
      <trkpt lat="45.8529" lon="5.33331">
        <ele>208.8</ele>
        <time>2022-09-24T14:12:20Z</time>
      </trkpt>
      <trkpt lat="45.85289" lon="5.33338">
        <ele>209</ele>
        <time>2022-09-24T14:12:21Z</time>
      </trkpt>
      <trkpt lat="45.85286" lon="5.33345">
        <ele>209.1</ele>
        <time>2022-09-24T14:12:22Z</time>
      </trkpt>
      <trkpt lat="45.85284" lon="5.33352">
        <ele>209.3</ele>
        <time>2022-09-24T14:12:23Z</time>
      </trkpt>
      <trkpt lat="45.85283" lon="5.33359">
        <ele>209.5</ele>
        <time>2022-09-24T14:12:24Z</time>
      </trkpt>
      <trkpt lat="45.85281" lon="5.33364">
        <ele>209.7</ele>
        <time>2022-09-24T14:12:25Z</time>
      </trkpt>
      <trkpt lat="45.85279" lon="5.33371">
        <ele>209.9</ele>
        <time>2022-09-24T14:12:26Z</time>
      </trkpt>
      <trkpt lat="45.85278" lon="5.33377">
        <ele>210</ele>
        <time>2022-09-24T14:12:27Z</time>
      </trkpt>
      <trkpt lat="45.85277" lon="5.33382">
        <ele>210.3</ele>
        <time>2022-09-24T14:12:28Z</time>
      </trkpt>
      <trkpt lat="45.85278" lon="5.33387">
        <ele>210.3</ele>
        <time>2022-09-24T14:12:29Z</time>
      </trkpt>
      <trkpt lat="45.85281" lon="5.3339">
        <ele>210.4</ele>
        <time>2022-09-24T14:12:30Z</time>
      </trkpt>
      <trkpt lat="45.85283" lon="5.33392">
        <ele>210.4</ele>
        <time>2022-09-24T14:12:31Z</time>
      </trkpt>
      <trkpt lat="45.85284" lon="5.33393">
        <ele>210.4</ele>
        <time>2022-09-24T14:12:32Z</time>
      </trkpt>
      <trkpt lat="45.85285" lon="5.33396">
        <ele>210.4</ele>
        <time>2022-09-24T14:12:33Z</time>
      </trkpt>
      <trkpt lat="45.85286" lon="5.33396">
        <ele>210.4</ele>
        <time>2022-09-24T14:12:34Z</time>
      </trkpt>
      <trkpt lat="45.85287" lon="5.33396">
        <ele>210.4</ele>
        <time>2022-09-24T14:12:35Z</time>
      </trkpt>
      <trkpt lat="45.85288" lon="5.33397">
        <ele>210.4</ele>
        <time>2022-09-24T14:12:36Z</time>
      </trkpt>
      <trkpt lat="45.85289" lon="5.33398">
        <ele>210.4</ele>
        <time>2022-09-24T14:12:37Z</time>
      </trkpt>
      <trkpt lat="45.8529" lon="5.33399">
        <ele>210.4</ele>
        <time>2022-09-24T14:12:38Z</time>
      </trkpt>
      <trkpt lat="45.85291" lon="5.33399">
        <ele>210.4</ele>
        <time>2022-09-24T14:12:39Z</time>
      </trkpt>
      <trkpt lat="45.85292" lon="5.334">
        <ele>210.4</ele>
        <time>2022-09-24T14:12:40Z</time>
      </trkpt>
      <trkpt lat="45.85293" lon="5.33401">
        <ele>210.4</ele>
        <time>2022-09-24T14:12:41Z</time>
      </trkpt>
      <trkpt lat="45.85294" lon="5.33401">
        <ele>210.4</ele>
        <time>2022-09-24T14:12:42Z</time>
      </trkpt>
      <trkpt lat="45.85295" lon="5.33402">
        <ele>210.4</ele>
        <time>2022-09-24T14:12:43Z</time>
      </trkpt>
      <trkpt lat="45.85296" lon="5.33403">
        <ele>210.4</ele>
        <time>2022-09-24T14:14:36Z</time>
      </trkpt>
      <trkpt lat="45.85297" lon="5.33403">
        <ele>210.3</ele>
        <time>2022-09-24T14:14:37Z</time>
      </trkpt>
      <trkpt lat="45.853" lon="5.33405">
        <ele>210.3</ele>
        <time>2022-09-24T14:14:38Z</time>
      </trkpt>
      <trkpt lat="45.85303" lon="5.33407">
        <ele>210.3</ele>
        <time>2022-09-24T14:14:39Z</time>
      </trkpt>
      <trkpt lat="45.85306" lon="5.3341">
        <ele>210.3</ele>
        <time>2022-09-24T14:14:40Z</time>
      </trkpt>
      <trkpt lat="45.85308" lon="5.33412">
        <ele>210.3</ele>
        <time>2022-09-24T14:14:41Z</time>
      </trkpt>
      <trkpt lat="45.85311" lon="5.33415">
        <ele>210.3</ele>
        <time>2022-09-24T14:14:42Z</time>
      </trkpt>
      <trkpt lat="45.85314" lon="5.33418">
        <ele>210.3</ele>
        <time>2022-09-24T14:14:43Z</time>
      </trkpt>
      <trkpt lat="45.85317" lon="5.33419">
        <ele>210.2</ele>
        <time>2022-09-24T14:14:44Z</time>
      </trkpt>
      <trkpt lat="45.85321" lon="5.33422">
        <ele>210.2</ele>
        <time>2022-09-24T14:14:45Z</time>
      </trkpt>
      <trkpt lat="45.85324" lon="5.33426">
        <ele>210.2</ele>
        <time>2022-09-24T14:14:46Z</time>
      </trkpt>
      <trkpt lat="45.85328" lon="5.33429">
        <ele>210.2</ele>
        <time>2022-09-24T14:14:47Z</time>
      </trkpt>
      <trkpt lat="45.85332" lon="5.33431">
        <ele>210.2</ele>
        <time>2022-09-24T14:14:48Z</time>
      </trkpt>
      <trkpt lat="45.85336" lon="5.33434">
        <ele>210.2</ele>
        <time>2022-09-24T14:14:49Z</time>
      </trkpt>
      <trkpt lat="45.85341" lon="5.33437">
        <ele>210.2</ele>
        <time>2022-09-24T14:14:50Z</time>
      </trkpt>
      <trkpt lat="45.85345" lon="5.3344">
        <ele>210.2</ele>
        <time>2022-09-24T14:14:51Z</time>
      </trkpt>
      <trkpt lat="45.85349" lon="5.33443">
        <ele>210.2</ele>
        <time>2022-09-24T14:14:52Z</time>
      </trkpt>
      <trkpt lat="45.85354" lon="5.33446">
        <ele>210.2</ele>
        <time>2022-09-24T14:14:53Z</time>
      </trkpt>
      <trkpt lat="45.8536" lon="5.3345">
        <ele>210.2</ele>
        <time>2022-09-24T14:14:54Z</time>
      </trkpt>
      <trkpt lat="45.85364" lon="5.33453">
        <ele>210.2</ele>
        <time>2022-09-24T14:14:55Z</time>
      </trkpt>
      <trkpt lat="45.85369" lon="5.33456">
        <ele>210.2</ele>
        <time>2022-09-24T14:14:56Z</time>
      </trkpt>
      <trkpt lat="45.85373" lon="5.33459">
        <ele>210.2</ele>
        <time>2022-09-24T14:14:57Z</time>
      </trkpt>
      <trkpt lat="45.85376" lon="5.33462">
        <ele>210.2</ele>
        <time>2022-09-24T14:14:58Z</time>
      </trkpt>
      <trkpt lat="45.8538" lon="5.33465">
        <ele>210.2</ele>
        <time>2022-09-24T14:14:59Z</time>
      </trkpt>
      <trkpt lat="45.85385" lon="5.33468">
        <ele>210.2</ele>
        <time>2022-09-24T14:15:00Z</time>
      </trkpt>
      <trkpt lat="45.85388" lon="5.3347">
        <ele>210.1</ele>
        <time>2022-09-24T14:15:01Z</time>
      </trkpt>
      <trkpt lat="45.85392" lon="5.33473">
        <ele>210.1</ele>
        <time>2022-09-24T14:15:02Z</time>
      </trkpt>
      <trkpt lat="45.85396" lon="5.33474">
        <ele>210</ele>
        <time>2022-09-24T14:15:03Z</time>
      </trkpt>
      <trkpt lat="45.854" lon="5.33475">
        <ele>209.9</ele>
        <time>2022-09-24T14:15:04Z</time>
      </trkpt>
      <trkpt lat="45.85405" lon="5.33476">
        <ele>209.9</ele>
        <time>2022-09-24T14:15:05Z</time>
      </trkpt>
      <trkpt lat="45.8541" lon="5.33475">
        <ele>209.8</ele>
        <time>2022-09-24T14:15:06Z</time>
      </trkpt>
      <trkpt lat="45.85414" lon="5.33474">
        <ele>209.7</ele>
        <time>2022-09-24T14:15:07Z</time>
      </trkpt>
      <trkpt lat="45.8542" lon="5.33472">
        <ele>209.6</ele>
        <time>2022-09-24T14:15:08Z</time>
      </trkpt>
      <trkpt lat="45.85426" lon="5.33473">
        <ele>209.6</ele>
        <time>2022-09-24T14:15:09Z</time>
      </trkpt>
      <trkpt lat="45.85431" lon="5.33473">
        <ele>209.5</ele>
        <time>2022-09-24T14:15:10Z</time>
      </trkpt>
      <trkpt lat="45.85435" lon="5.33475">
        <ele>209.5</ele>
        <time>2022-09-24T14:15:11Z</time>
      </trkpt>
      <trkpt lat="45.8544" lon="5.33477">
        <ele>209.5</ele>
        <time>2022-09-24T14:15:12Z</time>
      </trkpt>
      <trkpt lat="45.85444" lon="5.3348">
        <ele>209.5</ele>
        <time>2022-09-24T14:15:13Z</time>
      </trkpt>
      <trkpt lat="45.85448" lon="5.33482">
        <ele>209.5</ele>
        <time>2022-09-24T14:15:14Z</time>
      </trkpt>
      <trkpt lat="45.85452" lon="5.33485">
        <ele>209.5</ele>
        <time>2022-09-24T14:15:15Z</time>
      </trkpt>
      <trkpt lat="45.85457" lon="5.33487">
        <ele>209.5</ele>
        <time>2022-09-24T14:15:16Z</time>
      </trkpt>
      <trkpt lat="45.8546" lon="5.33488">
        <ele>209.5</ele>
        <time>2022-09-24T14:15:17Z</time>
      </trkpt>
      <trkpt lat="45.85464" lon="5.33491">
        <ele>209.5</ele>
        <time>2022-09-24T14:15:18Z</time>
      </trkpt>
      <trkpt lat="45.85468" lon="5.33493">
        <ele>209.5</ele>
        <time>2022-09-24T14:15:19Z</time>
      </trkpt>
      <trkpt lat="45.85472" lon="5.33494">
        <ele>209.5</ele>
        <time>2022-09-24T14:15:20Z</time>
      </trkpt>
      <trkpt lat="45.85476" lon="5.33497">
        <ele>209.6</ele>
        <time>2022-09-24T14:15:21Z</time>
      </trkpt>
      <trkpt lat="45.8548" lon="5.33497">
        <ele>209.6</ele>
        <time>2022-09-24T14:15:22Z</time>
      </trkpt>
      <trkpt lat="45.85485" lon="5.33499">
        <ele>209.7</ele>
        <time>2022-09-24T14:15:23Z</time>
      </trkpt>
      <trkpt lat="45.85489" lon="5.33501">
        <ele>209.7</ele>
        <time>2022-09-24T14:15:24Z</time>
      </trkpt>
      <trkpt lat="45.85492" lon="5.33503">
        <ele>209.8</ele>
        <time>2022-09-24T14:15:25Z</time>
      </trkpt>
      <trkpt lat="45.85495" lon="5.33505">
        <ele>209.9</ele>
        <time>2022-09-24T14:15:26Z</time>
      </trkpt>
      <trkpt lat="45.85498" lon="5.33507">
        <ele>209.9</ele>
        <time>2022-09-24T14:15:27Z</time>
      </trkpt>
      <trkpt lat="45.85499" lon="5.33508">
        <ele>209.9</ele>
        <time>2022-09-24T14:15:28Z</time>
      </trkpt>
      <trkpt lat="45.85501" lon="5.3351">
        <ele>210</ele>
        <time>2022-09-24T14:15:29Z</time>
      </trkpt>
      <trkpt lat="45.85502" lon="5.3351">
        <ele>210</ele>
        <time>2022-09-24T14:15:30Z</time>
      </trkpt>
      <trkpt lat="45.85505" lon="5.33512">
        <ele>210</ele>
        <time>2022-09-24T14:15:31Z</time>
      </trkpt>
      <trkpt lat="45.85506" lon="5.33513">
        <ele>210</ele>
        <time>2022-09-24T14:15:32Z</time>
      </trkpt>
      <trkpt lat="45.85507" lon="5.33518">
        <ele>210</ele>
        <time>2022-09-24T14:15:33Z</time>
      </trkpt>
      <trkpt lat="45.85507" lon="5.33519">
        <ele>210</ele>
        <time>2022-09-24T14:15:34Z</time>
      </trkpt>
      <trkpt lat="45.85506" lon="5.33524">
        <ele>210</ele>
        <time>2022-09-24T14:15:35Z</time>
      </trkpt>
      <trkpt lat="45.85505" lon="5.3353">
        <ele>210</ele>
        <time>2022-09-24T14:15:36Z</time>
      </trkpt>
      <trkpt lat="45.85505" lon="5.33534">
        <ele>210</ele>
        <time>2022-09-24T14:15:37Z</time>
      </trkpt>
      <trkpt lat="45.85506" lon="5.33539">
        <ele>210</ele>
        <time>2022-09-24T14:15:38Z</time>
      </trkpt>
      <trkpt lat="45.85507" lon="5.33542">
        <ele>210</ele>
        <time>2022-09-24T14:15:39Z</time>
      </trkpt>
      <trkpt lat="45.85511" lon="5.33542">
        <ele>210</ele>
        <time>2022-09-24T14:15:40Z</time>
      </trkpt>
      <trkpt lat="45.85515" lon="5.33544">
        <ele>210</ele>
        <time>2022-09-24T14:15:41Z</time>
      </trkpt>
      <trkpt lat="45.85519" lon="5.33546">
        <ele>209.9</ele>
        <time>2022-09-24T14:15:42Z</time>
      </trkpt>
      <trkpt lat="45.85523" lon="5.33548">
        <ele>209.9</ele>
        <time>2022-09-24T14:15:43Z</time>
      </trkpt>
      <trkpt lat="45.85526" lon="5.33553">
        <ele>209.8</ele>
        <time>2022-09-24T14:15:44Z</time>
      </trkpt>
      <trkpt lat="45.85531" lon="5.33556">
        <ele>209.8</ele>
        <time>2022-09-24T14:15:45Z</time>
      </trkpt>
      <trkpt lat="45.85536" lon="5.33559">
        <ele>209.7</ele>
        <time>2022-09-24T14:15:46Z</time>
      </trkpt>
      <trkpt lat="45.8554" lon="5.33563">
        <ele>209.7</ele>
        <time>2022-09-24T14:15:47Z</time>
      </trkpt>
      <trkpt lat="45.85544" lon="5.33566">
        <ele>209.7</ele>
        <time>2022-09-24T14:15:48Z</time>
      </trkpt>
      <trkpt lat="45.85549" lon="5.33569">
        <ele>209.6</ele>
        <time>2022-09-24T14:15:49Z</time>
      </trkpt>
      <trkpt lat="45.85554" lon="5.33572">
        <ele>209.6</ele>
        <time>2022-09-24T14:15:50Z</time>
      </trkpt>
      <trkpt lat="45.85558" lon="5.33575">
        <ele>209.6</ele>
        <time>2022-09-24T14:15:51Z</time>
      </trkpt>
      <trkpt lat="45.85561" lon="5.33577">
        <ele>209.6</ele>
        <time>2022-09-24T14:15:52Z</time>
      </trkpt>
      <trkpt lat="45.85564" lon="5.33575">
        <ele>209.6</ele>
        <time>2022-09-24T14:15:53Z</time>
      </trkpt>
      <trkpt lat="45.85565" lon="5.33571">
        <ele>209.6</ele>
        <time>2022-09-24T14:15:54Z</time>
      </trkpt>
      <trkpt lat="45.85567" lon="5.33566">
        <ele>209.5</ele>
        <time>2022-09-24T14:15:55Z</time>
      </trkpt>
      <trkpt lat="45.85568" lon="5.3356">
        <ele>209.4</ele>
        <time>2022-09-24T14:15:56Z</time>
      </trkpt>
      <trkpt lat="45.85569" lon="5.33555">
        <ele>209.4</ele>
        <time>2022-09-24T14:15:57Z</time>
      </trkpt>
      <trkpt lat="45.85572" lon="5.33552">
        <ele>209.3</ele>
        <time>2022-09-24T14:15:58Z</time>
      </trkpt>
      <trkpt lat="45.85574" lon="5.33546">
        <ele>209.3</ele>
        <time>2022-09-24T14:15:59Z</time>
      </trkpt>
      <trkpt lat="45.85576" lon="5.33539">
        <ele>209.2</ele>
        <time>2022-09-24T14:16:00Z</time>
      </trkpt>
      <trkpt lat="45.85578" lon="5.33534">
        <ele>209.2</ele>
        <time>2022-09-24T14:16:01Z</time>
      </trkpt>
      <trkpt lat="45.8558" lon="5.33529">
        <ele>209.2</ele>
        <time>2022-09-24T14:16:02Z</time>
      </trkpt>
      <trkpt lat="45.85582" lon="5.33523">
        <ele>209.1</ele>
        <time>2022-09-24T14:16:03Z</time>
      </trkpt>
      <trkpt lat="45.85582" lon="5.33518">
        <ele>209.1</ele>
        <time>2022-09-24T14:16:04Z</time>
      </trkpt>
      <trkpt lat="45.85582" lon="5.33516">
        <ele>209.1</ele>
        <time>2022-09-24T14:16:05Z</time>
      </trkpt>
      <trkpt lat="45.85585" lon="5.33511">
        <ele>209.1</ele>
        <time>2022-09-24T14:16:06Z</time>
      </trkpt>
      <trkpt lat="45.85586" lon="5.33509">
        <ele>209</ele>
        <time>2022-09-24T14:16:07Z</time>
      </trkpt>
      <trkpt lat="45.85587" lon="5.33504">
        <ele>209</ele>
        <time>2022-09-24T14:16:08Z</time>
      </trkpt>
      <trkpt lat="45.85588" lon="5.335">
        <ele>208.9</ele>
        <time>2022-09-24T14:16:09Z</time>
      </trkpt>
      <trkpt lat="45.85589" lon="5.33495">
        <ele>208.9</ele>
        <time>2022-09-24T14:16:10Z</time>
      </trkpt>
      <trkpt lat="45.8559" lon="5.33493">
        <ele>208.9</ele>
        <time>2022-09-24T14:16:11Z</time>
      </trkpt>
      <trkpt lat="45.85591" lon="5.33489">
        <ele>208.8</ele>
        <time>2022-09-24T14:16:12Z</time>
      </trkpt>
      <trkpt lat="45.85592" lon="5.33485">
        <ele>208.8</ele>
        <time>2022-09-24T14:16:13Z</time>
      </trkpt>
      <trkpt lat="45.85594" lon="5.33479">
        <ele>208.7</ele>
        <time>2022-09-24T14:16:14Z</time>
      </trkpt>
      <trkpt lat="45.85595" lon="5.33474">
        <ele>208.7</ele>
        <time>2022-09-24T14:16:15Z</time>
      </trkpt>
      <trkpt lat="45.85597" lon="5.33469">
        <ele>208.6</ele>
        <time>2022-09-24T14:16:16Z</time>
      </trkpt>
      <trkpt lat="45.85598" lon="5.33465">
        <ele>208.6</ele>
        <time>2022-09-24T14:16:17Z</time>
      </trkpt>
      <trkpt lat="45.856" lon="5.33462">
        <ele>208.6</ele>
        <time>2022-09-24T14:16:18Z</time>
      </trkpt>
      <trkpt lat="45.85604" lon="5.3346">
        <ele>208.6</ele>
        <time>2022-09-24T14:16:19Z</time>
      </trkpt>
      <trkpt lat="45.85606" lon="5.33457">
        <ele>208.7</ele>
        <time>2022-09-24T14:16:20Z</time>
      </trkpt>
      <trkpt lat="45.85608" lon="5.33454">
        <ele>208.6</ele>
        <time>2022-09-24T14:16:21Z</time>
      </trkpt>
      <trkpt lat="45.85609" lon="5.3345">
        <ele>208.6</ele>
        <time>2022-09-24T14:16:22Z</time>
      </trkpt>
      <trkpt lat="45.85611" lon="5.33446">
        <ele>208.6</ele>
        <time>2022-09-24T14:16:23Z</time>
      </trkpt>
      <trkpt lat="45.85612" lon="5.33442">
        <ele>208.7</ele>
        <time>2022-09-24T14:16:24Z</time>
      </trkpt>
      <trkpt lat="45.85614" lon="5.33438">
        <ele>208.7</ele>
        <time>2022-09-24T14:16:25Z</time>
      </trkpt>
      <trkpt lat="45.85615" lon="5.33434">
        <ele>208.8</ele>
        <time>2022-09-24T14:16:26Z</time>
      </trkpt>
      <trkpt lat="45.85616" lon="5.33429">
        <ele>208.8</ele>
        <time>2022-09-24T14:16:27Z</time>
      </trkpt>
      <trkpt lat="45.85618" lon="5.33426">
        <ele>208.8</ele>
        <time>2022-09-24T14:16:28Z</time>
      </trkpt>
      <trkpt lat="45.8562" lon="5.33423">
        <ele>208.7</ele>
        <time>2022-09-24T14:16:29Z</time>
      </trkpt>
      <trkpt lat="45.85624" lon="5.33422">
        <ele>208.7</ele>
        <time>2022-09-24T14:16:30Z</time>
      </trkpt>
      <trkpt lat="45.85625" lon="5.33423">
        <ele>208.8</ele>
        <time>2022-09-24T14:16:31Z</time>
      </trkpt>
      <trkpt lat="45.85629" lon="5.33424">
        <ele>208.8</ele>
        <time>2022-09-24T14:16:32Z</time>
      </trkpt>
      <trkpt lat="45.85632" lon="5.33427">
        <ele>208.7</ele>
        <time>2022-09-24T14:16:33Z</time>
      </trkpt>
      <trkpt lat="45.85636" lon="5.3343">
        <ele>208.7</ele>
        <time>2022-09-24T14:16:34Z</time>
      </trkpt>
      <trkpt lat="45.85639" lon="5.33432">
        <ele>208.7</ele>
        <time>2022-09-24T14:16:35Z</time>
      </trkpt>
      <trkpt lat="45.85642" lon="5.33434">
        <ele>208.6</ele>
        <time>2022-09-24T14:16:36Z</time>
      </trkpt>
      <trkpt lat="45.85646" lon="5.33436">
        <ele>208.6</ele>
        <time>2022-09-24T14:16:37Z</time>
      </trkpt>
      <trkpt lat="45.8565" lon="5.33438">
        <ele>208.5</ele>
        <time>2022-09-24T14:16:38Z</time>
      </trkpt>
      <trkpt lat="45.85654" lon="5.33438">
        <ele>208.5</ele>
        <time>2022-09-24T14:16:39Z</time>
      </trkpt>
      <trkpt lat="45.85657" lon="5.33435">
        <ele>208.5</ele>
        <time>2022-09-24T14:16:40Z</time>
      </trkpt>
      <trkpt lat="45.85659" lon="5.33432">
        <ele>208.5</ele>
        <time>2022-09-24T14:16:41Z</time>
      </trkpt>
      <trkpt lat="45.8566" lon="5.33428">
        <ele>208.5</ele>
        <time>2022-09-24T14:16:42Z</time>
      </trkpt>
      <trkpt lat="45.85661" lon="5.33421">
        <ele>208.4</ele>
        <time>2022-09-24T14:16:43Z</time>
      </trkpt>
      <trkpt lat="45.85664" lon="5.33416">
        <ele>208.4</ele>
        <time>2022-09-24T14:16:44Z</time>
      </trkpt>
      <trkpt lat="45.85666" lon="5.3341">
        <ele>208.3</ele>
        <time>2022-09-24T14:16:45Z</time>
      </trkpt>
      <trkpt lat="45.85668" lon="5.33404">
        <ele>208.3</ele>
        <time>2022-09-24T14:16:46Z</time>
      </trkpt>
      <trkpt lat="45.8567" lon="5.33399">
        <ele>208.2</ele>
        <time>2022-09-24T14:16:47Z</time>
      </trkpt>
      <trkpt lat="45.85672" lon="5.33392">
        <ele>208.2</ele>
        <time>2022-09-24T14:16:48Z</time>
      </trkpt>
      <trkpt lat="45.85675" lon="5.33385">
        <ele>208.1</ele>
        <time>2022-09-24T14:16:49Z</time>
      </trkpt>
      <trkpt lat="45.85677" lon="5.33379">
        <ele>208</ele>
        <time>2022-09-24T14:16:50Z</time>
      </trkpt>
      <trkpt lat="45.85679" lon="5.33373">
        <ele>208</ele>
        <time>2022-09-24T14:16:51Z</time>
      </trkpt>
      <trkpt lat="45.85681" lon="5.33368">
        <ele>208</ele>
        <time>2022-09-24T14:16:52Z</time>
      </trkpt>
      <trkpt lat="45.85683" lon="5.33363">
        <ele>207.9</ele>
        <time>2022-09-24T14:16:53Z</time>
      </trkpt>
      <trkpt lat="45.85684" lon="5.33358">
        <ele>207.9</ele>
        <time>2022-09-24T14:16:54Z</time>
      </trkpt>
      <trkpt lat="45.85686" lon="5.33353">
        <ele>207.9</ele>
        <time>2022-09-24T14:16:55Z</time>
      </trkpt>
      <trkpt lat="45.85688" lon="5.33348">
        <ele>207.9</ele>
        <time>2022-09-24T14:16:56Z</time>
      </trkpt>
      <trkpt lat="45.85689" lon="5.33343">
        <ele>208</ele>
        <time>2022-09-24T14:16:57Z</time>
      </trkpt>
      <trkpt lat="45.85691" lon="5.33338">
        <ele>208</ele>
        <time>2022-09-24T14:16:58Z</time>
      </trkpt>
      <trkpt lat="45.85693" lon="5.33333">
        <ele>208</ele>
        <time>2022-09-24T14:16:59Z</time>
      </trkpt>
      <trkpt lat="45.85693" lon="5.33332">
        <ele>208</ele>
        <time>2022-09-24T14:17:00Z</time>
      </trkpt>
      <trkpt lat="45.85695" lon="5.33329">
        <ele>208</ele>
        <time>2022-09-24T14:17:01Z</time>
      </trkpt>
      <trkpt lat="45.85696" lon="5.33326">
        <ele>208.1</ele>
        <time>2022-09-24T14:17:02Z</time>
      </trkpt>
      <trkpt lat="45.857" lon="5.33324">
        <ele>208.1</ele>
        <time>2022-09-24T14:17:03Z</time>
      </trkpt>
      <trkpt lat="45.85702" lon="5.33324">
        <ele>208.1</ele>
        <time>2022-09-24T14:17:04Z</time>
      </trkpt>
      <trkpt lat="45.85706" lon="5.33325">
        <ele>208</ele>
        <time>2022-09-24T14:17:05Z</time>
      </trkpt>
      <trkpt lat="45.8571" lon="5.33328">
        <ele>208</ele>
        <time>2022-09-24T14:17:06Z</time>
      </trkpt>
      <trkpt lat="45.85714" lon="5.33329">
        <ele>208</ele>
        <time>2022-09-24T14:17:07Z</time>
      </trkpt>
      <trkpt lat="45.85718" lon="5.33332">
        <ele>208</ele>
        <time>2022-09-24T14:17:08Z</time>
      </trkpt>
      <trkpt lat="45.85722" lon="5.33335">
        <ele>208</ele>
        <time>2022-09-24T14:17:09Z</time>
      </trkpt>
      <trkpt lat="45.85727" lon="5.33337">
        <ele>208</ele>
        <time>2022-09-24T14:17:10Z</time>
      </trkpt>
      <trkpt lat="45.85731" lon="5.33339">
        <ele>208</ele>
        <time>2022-09-24T14:17:11Z</time>
      </trkpt>
      <trkpt lat="45.85735" lon="5.33341">
        <ele>208</ele>
        <time>2022-09-24T14:17:12Z</time>
      </trkpt>
      <trkpt lat="45.85739" lon="5.33343">
        <ele>207.9</ele>
        <time>2022-09-24T14:17:13Z</time>
      </trkpt>
      <trkpt lat="45.85743" lon="5.33345">
        <ele>207.9</ele>
        <time>2022-09-24T14:17:14Z</time>
      </trkpt>
      <trkpt lat="45.85746" lon="5.33347">
        <ele>207.9</ele>
        <time>2022-09-24T14:17:15Z</time>
      </trkpt>
      <trkpt lat="45.8575" lon="5.33349">
        <ele>207.9</ele>
        <time>2022-09-24T14:17:16Z</time>
      </trkpt>
      <trkpt lat="45.85753" lon="5.33351">
        <ele>207.9</ele>
        <time>2022-09-24T14:17:17Z</time>
      </trkpt>
      <trkpt lat="45.85755" lon="5.33353">
        <ele>207.9</ele>
        <time>2022-09-24T14:17:18Z</time>
      </trkpt>
      <trkpt lat="45.85758" lon="5.33354">
        <ele>207.9</ele>
        <time>2022-09-24T14:17:19Z</time>
      </trkpt>
      <trkpt lat="45.85761" lon="5.33356">
        <ele>207.9</ele>
        <time>2022-09-24T14:17:20Z</time>
      </trkpt>
      <trkpt lat="45.85764" lon="5.33358">
        <ele>207.9</ele>
        <time>2022-09-24T14:17:21Z</time>
      </trkpt>
      <trkpt lat="45.85767" lon="5.33359">
        <ele>207.9</ele>
        <time>2022-09-24T14:17:22Z</time>
      </trkpt>
      <trkpt lat="45.85769" lon="5.33361">
        <ele>208</ele>
        <time>2022-09-24T14:17:23Z</time>
      </trkpt>
      <trkpt lat="45.85773" lon="5.33363">
        <ele>208</ele>
        <time>2022-09-24T14:17:24Z</time>
      </trkpt>
      <trkpt lat="45.85774" lon="5.33364">
        <ele>208</ele>
        <time>2022-09-24T14:17:25Z</time>
      </trkpt>
      <trkpt lat="45.85777" lon="5.33365">
        <ele>208</ele>
        <time>2022-09-24T14:17:26Z</time>
      </trkpt>
      <trkpt lat="45.8578" lon="5.33367">
        <ele>208</ele>
        <time>2022-09-24T14:17:27Z</time>
      </trkpt>
      <trkpt lat="45.85783" lon="5.33368">
        <ele>208</ele>
        <time>2022-09-24T14:17:28Z</time>
      </trkpt>
      <trkpt lat="45.85786" lon="5.3337">
        <ele>208</ele>
        <time>2022-09-24T14:17:29Z</time>
      </trkpt>
      <trkpt lat="45.85789" lon="5.33371">
        <ele>208</ele>
        <time>2022-09-24T14:17:30Z</time>
      </trkpt>
      <trkpt lat="45.85792" lon="5.33372">
        <ele>208</ele>
        <time>2022-09-24T14:17:31Z</time>
      </trkpt>
      <trkpt lat="45.85795" lon="5.33374">
        <ele>208</ele>
        <time>2022-09-24T14:17:32Z</time>
      </trkpt>
      <trkpt lat="45.85798" lon="5.33375">
        <ele>208.1</ele>
        <time>2022-09-24T14:17:33Z</time>
      </trkpt>
      <trkpt lat="45.85801" lon="5.33376">
        <ele>208.1</ele>
        <time>2022-09-24T14:17:34Z</time>
      </trkpt>
      <trkpt lat="45.85805" lon="5.33378">
        <ele>208.1</ele>
        <time>2022-09-24T14:17:35Z</time>
      </trkpt>
      <trkpt lat="45.85808" lon="5.3338">
        <ele>208.1</ele>
        <time>2022-09-24T14:17:36Z</time>
      </trkpt>
      <trkpt lat="45.85811" lon="5.33383">
        <ele>208.2</ele>
        <time>2022-09-24T14:17:37Z</time>
      </trkpt>
      <trkpt lat="45.85815" lon="5.33385">
        <ele>208.2</ele>
        <time>2022-09-24T14:17:38Z</time>
      </trkpt>
      <trkpt lat="45.85818" lon="5.33387">
        <ele>208.2</ele>
        <time>2022-09-24T14:17:39Z</time>
      </trkpt>
      <trkpt lat="45.85822" lon="5.3339">
        <ele>208.2</ele>
        <time>2022-09-24T14:17:40Z</time>
      </trkpt>
      <trkpt lat="45.85826" lon="5.33393">
        <ele>208.2</ele>
        <time>2022-09-24T14:17:41Z</time>
      </trkpt>
      <trkpt lat="45.8583" lon="5.33395">
        <ele>208.2</ele>
        <time>2022-09-24T14:17:42Z</time>
      </trkpt>
      <trkpt lat="45.85834" lon="5.33398">
        <ele>208.2</ele>
        <time>2022-09-24T14:17:43Z</time>
      </trkpt>
      <trkpt lat="45.85838" lon="5.33401">
        <ele>208.2</ele>
        <time>2022-09-24T14:17:44Z</time>
      </trkpt>
      <trkpt lat="45.85842" lon="5.33403">
        <ele>208.2</ele>
        <time>2022-09-24T14:17:45Z</time>
      </trkpt>
      <trkpt lat="45.85846" lon="5.33406">
        <ele>208.3</ele>
        <time>2022-09-24T14:17:46Z</time>
      </trkpt>
      <trkpt lat="45.8585" lon="5.33408">
        <ele>208.3</ele>
        <time>2022-09-24T14:17:47Z</time>
      </trkpt>
      <trkpt lat="45.85854" lon="5.33411">
        <ele>208.3</ele>
        <time>2022-09-24T14:17:48Z</time>
      </trkpt>
      <trkpt lat="45.85858" lon="5.33414">
        <ele>208.3</ele>
        <time>2022-09-24T14:17:49Z</time>
      </trkpt>
      <trkpt lat="45.85862" lon="5.33417">
        <ele>208.4</ele>
        <time>2022-09-24T14:17:50Z</time>
      </trkpt>
      <trkpt lat="45.85867" lon="5.33419">
        <ele>208.4</ele>
        <time>2022-09-24T14:17:51Z</time>
      </trkpt>
      <trkpt lat="45.85871" lon="5.33422">
        <ele>208.5</ele>
        <time>2022-09-24T14:17:52Z</time>
      </trkpt>
      <trkpt lat="45.85874" lon="5.33425">
        <ele>208.5</ele>
        <time>2022-09-24T14:17:53Z</time>
      </trkpt>
      <trkpt lat="45.85878" lon="5.33428">
        <ele>208.6</ele>
        <time>2022-09-24T14:17:54Z</time>
      </trkpt>
      <trkpt lat="45.85883" lon="5.33431">
        <ele>208.7</ele>
        <time>2022-09-24T14:17:55Z</time>
      </trkpt>
      <trkpt lat="45.85887" lon="5.33434">
        <ele>208.7</ele>
        <time>2022-09-24T14:17:56Z</time>
      </trkpt>
      <trkpt lat="45.85891" lon="5.33437">
        <ele>208.8</ele>
        <time>2022-09-24T14:17:57Z</time>
      </trkpt>
      <trkpt lat="45.85895" lon="5.33441">
        <ele>208.9</ele>
        <time>2022-09-24T14:17:58Z</time>
      </trkpt>
      <trkpt lat="45.859" lon="5.33444">
        <ele>208.9</ele>
        <time>2022-09-24T14:17:59Z</time>
      </trkpt>
      <trkpt lat="45.85904" lon="5.33448">
        <ele>209</ele>
        <time>2022-09-24T14:18:00Z</time>
      </trkpt>
      <trkpt lat="45.85908" lon="5.33451">
        <ele>209</ele>
        <time>2022-09-24T14:18:01Z</time>
      </trkpt>
      <trkpt lat="45.85912" lon="5.33454">
        <ele>209.1</ele>
        <time>2022-09-24T14:18:02Z</time>
      </trkpt>
      <trkpt lat="45.85916" lon="5.33457">
        <ele>209.1</ele>
        <time>2022-09-24T14:18:03Z</time>
      </trkpt>
      <trkpt lat="45.85919" lon="5.3346">
        <ele>209.1</ele>
        <time>2022-09-24T14:18:04Z</time>
      </trkpt>
      <trkpt lat="45.85923" lon="5.33463">
        <ele>209.2</ele>
        <time>2022-09-24T14:18:05Z</time>
      </trkpt>
      <trkpt lat="45.85927" lon="5.33466">
        <ele>209.2</ele>
        <time>2022-09-24T14:18:06Z</time>
      </trkpt>
      <trkpt lat="45.8593" lon="5.33468">
        <ele>209.2</ele>
        <time>2022-09-24T14:18:07Z</time>
      </trkpt>
      <trkpt lat="45.85934" lon="5.33471">
        <ele>209.3</ele>
        <time>2022-09-24T14:18:08Z</time>
      </trkpt>
      <trkpt lat="45.85938" lon="5.33474">
        <ele>209.3</ele>
        <time>2022-09-24T14:18:09Z</time>
      </trkpt>
      <trkpt lat="45.85941" lon="5.33478">
        <ele>209.3</ele>
        <time>2022-09-24T14:18:10Z</time>
      </trkpt>
      <trkpt lat="45.85945" lon="5.33481">
        <ele>209.3</ele>
        <time>2022-09-24T14:18:11Z</time>
      </trkpt>
      <trkpt lat="45.8595" lon="5.33484">
        <ele>209.3</ele>
        <time>2022-09-24T14:18:12Z</time>
      </trkpt>
      <trkpt lat="45.85954" lon="5.33487">
        <ele>209.3</ele>
        <time>2022-09-24T14:18:13Z</time>
      </trkpt>
      <trkpt lat="45.85959" lon="5.3349">
        <ele>209.3</ele>
        <time>2022-09-24T14:18:14Z</time>
      </trkpt>
      <trkpt lat="45.85964" lon="5.33492">
        <ele>209.3</ele>
        <time>2022-09-24T14:18:15Z</time>
      </trkpt>
      <trkpt lat="45.85968" lon="5.33496">
        <ele>209.2</ele>
        <time>2022-09-24T14:18:16Z</time>
      </trkpt>
      <trkpt lat="45.85972" lon="5.33497">
        <ele>209.2</ele>
        <time>2022-09-24T14:18:17Z</time>
      </trkpt>
      <trkpt lat="45.85977" lon="5.335">
        <ele>209.2</ele>
        <time>2022-09-24T14:18:18Z</time>
      </trkpt>
      <trkpt lat="45.85981" lon="5.335">
        <ele>209.2</ele>
        <time>2022-09-24T14:18:19Z</time>
      </trkpt>
      <trkpt lat="45.85985" lon="5.33504">
        <ele>209.2</ele>
        <time>2022-09-24T14:18:20Z</time>
      </trkpt>
      <trkpt lat="45.85989" lon="5.33506">
        <ele>209.2</ele>
        <time>2022-09-24T14:18:21Z</time>
      </trkpt>
      <trkpt lat="45.85992" lon="5.33508">
        <ele>209.2</ele>
        <time>2022-09-24T14:18:22Z</time>
      </trkpt>
      <trkpt lat="45.85997" lon="5.33511">
        <ele>209.2</ele>
        <time>2022-09-24T14:18:23Z</time>
      </trkpt>
      <trkpt lat="45.86001" lon="5.33512">
        <ele>209.2</ele>
        <time>2022-09-24T14:18:24Z</time>
      </trkpt>
      <trkpt lat="45.86005" lon="5.33514">
        <ele>209.2</ele>
        <time>2022-09-24T14:18:25Z</time>
      </trkpt>
      <trkpt lat="45.86009" lon="5.33518">
        <ele>209.1</ele>
        <time>2022-09-24T14:18:26Z</time>
      </trkpt>
      <trkpt lat="45.86014" lon="5.33519">
        <ele>209.1</ele>
        <time>2022-09-24T14:18:27Z</time>
      </trkpt>
      <trkpt lat="45.86017" lon="5.33521">
        <ele>209.1</ele>
        <time>2022-09-24T14:18:28Z</time>
      </trkpt>
      <trkpt lat="45.86021" lon="5.33523">
        <ele>209.1</ele>
        <time>2022-09-24T14:18:29Z</time>
      </trkpt>
      <trkpt lat="45.86025" lon="5.33526">
        <ele>209.1</ele>
        <time>2022-09-24T14:18:30Z</time>
      </trkpt>
      <trkpt lat="45.86029" lon="5.33528">
        <ele>209.1</ele>
        <time>2022-09-24T14:18:31Z</time>
      </trkpt>
      <trkpt lat="45.86032" lon="5.3353">
        <ele>209.1</ele>
        <time>2022-09-24T14:18:32Z</time>
      </trkpt>
      <trkpt lat="45.86036" lon="5.33532">
        <ele>209.1</ele>
        <time>2022-09-24T14:18:33Z</time>
      </trkpt>
      <trkpt lat="45.8604" lon="5.33534">
        <ele>209.1</ele>
        <time>2022-09-24T14:18:34Z</time>
      </trkpt>
      <trkpt lat="45.86044" lon="5.33536">
        <ele>209.1</ele>
        <time>2022-09-24T14:18:35Z</time>
      </trkpt>
      <trkpt lat="45.86047" lon="5.33537">
        <ele>209.1</ele>
        <time>2022-09-24T14:18:36Z</time>
      </trkpt>
      <trkpt lat="45.86051" lon="5.33539">
        <ele>209.1</ele>
        <time>2022-09-24T14:18:37Z</time>
      </trkpt>
      <trkpt lat="45.86055" lon="5.3354">
        <ele>209.2</ele>
        <time>2022-09-24T14:18:38Z</time>
      </trkpt>
      <trkpt lat="45.86059" lon="5.33542">
        <ele>209.2</ele>
        <time>2022-09-24T14:18:39Z</time>
      </trkpt>
      <trkpt lat="45.86063" lon="5.33543">
        <ele>209.2</ele>
        <time>2022-09-24T14:18:40Z</time>
      </trkpt>
      <trkpt lat="45.86066" lon="5.33545">
        <ele>209.2</ele>
        <time>2022-09-24T14:18:41Z</time>
      </trkpt>
      <trkpt lat="45.8607" lon="5.33545">
        <ele>209.2</ele>
        <time>2022-09-24T14:18:42Z</time>
      </trkpt>
      <trkpt lat="45.86074" lon="5.33548">
        <ele>209.2</ele>
        <time>2022-09-24T14:18:43Z</time>
      </trkpt>
      <trkpt lat="45.86077" lon="5.33551">
        <ele>209.2</ele>
        <time>2022-09-24T14:18:44Z</time>
      </trkpt>
      <trkpt lat="45.86082" lon="5.33552">
        <ele>209.2</ele>
        <time>2022-09-24T14:18:45Z</time>
      </trkpt>
      <trkpt lat="45.86086" lon="5.33555">
        <ele>209.2</ele>
        <time>2022-09-24T14:18:46Z</time>
      </trkpt>
      <trkpt lat="45.8609" lon="5.33556">
        <ele>209.1</ele>
        <time>2022-09-24T14:18:47Z</time>
      </trkpt>
      <trkpt lat="45.86095" lon="5.33557">
        <ele>209.1</ele>
        <time>2022-09-24T14:18:48Z</time>
      </trkpt>
      <trkpt lat="45.86098" lon="5.33558">
        <ele>209.1</ele>
        <time>2022-09-24T14:18:49Z</time>
      </trkpt>
      <trkpt lat="45.86102" lon="5.33559">
        <ele>209.1</ele>
        <time>2022-09-24T14:18:50Z</time>
      </trkpt>
      <trkpt lat="45.86106" lon="5.3356">
        <ele>209.1</ele>
        <time>2022-09-24T14:18:51Z</time>
      </trkpt>
      <trkpt lat="45.8611" lon="5.3356">
        <ele>209</ele>
        <time>2022-09-24T14:18:52Z</time>
      </trkpt>
      <trkpt lat="45.86114" lon="5.33561">
        <ele>208.9</ele>
        <time>2022-09-24T14:18:53Z</time>
      </trkpt>
      <trkpt lat="45.86118" lon="5.33562">
        <ele>208.9</ele>
        <time>2022-09-24T14:18:54Z</time>
      </trkpt>
      <trkpt lat="45.86122" lon="5.33562">
        <ele>208.8</ele>
        <time>2022-09-24T14:18:55Z</time>
      </trkpt>
      <trkpt lat="45.86126" lon="5.33563">
        <ele>208.7</ele>
        <time>2022-09-24T14:18:56Z</time>
      </trkpt>
      <trkpt lat="45.8613" lon="5.33565">
        <ele>208.5</ele>
        <time>2022-09-24T14:18:57Z</time>
      </trkpt>
      <trkpt lat="45.86134" lon="5.33565">
        <ele>208.4</ele>
        <time>2022-09-24T14:18:58Z</time>
      </trkpt>
      <trkpt lat="45.86139" lon="5.33566">
        <ele>208.3</ele>
        <time>2022-09-24T14:18:59Z</time>
      </trkpt>
      <trkpt lat="45.86143" lon="5.33567">
        <ele>208.1</ele>
        <time>2022-09-24T14:19:00Z</time>
      </trkpt>
      <trkpt lat="45.86148" lon="5.33568">
        <ele>208</ele>
        <time>2022-09-24T14:19:01Z</time>
      </trkpt>
      <trkpt lat="45.86153" lon="5.33569">
        <ele>207.8</ele>
        <time>2022-09-24T14:19:02Z</time>
      </trkpt>
      <trkpt lat="45.86158" lon="5.33568">
        <ele>207.7</ele>
        <time>2022-09-24T14:19:03Z</time>
      </trkpt>
      <trkpt lat="45.86163" lon="5.33569">
        <ele>207.5</ele>
        <time>2022-09-24T14:19:04Z</time>
      </trkpt>
      <trkpt lat="45.86168" lon="5.33571">
        <ele>207.4</ele>
        <time>2022-09-24T14:19:05Z</time>
      </trkpt>
      <trkpt lat="45.86172" lon="5.33572">
        <ele>207.2</ele>
        <time>2022-09-24T14:19:06Z</time>
      </trkpt>
      <trkpt lat="45.86177" lon="5.33573">
        <ele>207.1</ele>
        <time>2022-09-24T14:19:07Z</time>
      </trkpt>
      <trkpt lat="45.86182" lon="5.33573">
        <ele>206.9</ele>
        <time>2022-09-24T14:19:08Z</time>
      </trkpt>
      <trkpt lat="45.86188" lon="5.33574">
        <ele>206.7</ele>
        <time>2022-09-24T14:19:09Z</time>
      </trkpt>
      <trkpt lat="45.86193" lon="5.33575">
        <ele>206.5</ele>
        <time>2022-09-24T14:19:10Z</time>
      </trkpt>
      <trkpt lat="45.86197" lon="5.33575">
        <ele>206.4</ele>
        <time>2022-09-24T14:19:11Z</time>
      </trkpt>
      <trkpt lat="45.86203" lon="5.33576">
        <ele>206.2</ele>
        <time>2022-09-24T14:19:12Z</time>
      </trkpt>
      <trkpt lat="45.86209" lon="5.33577">
        <ele>206</ele>
        <time>2022-09-24T14:19:13Z</time>
      </trkpt>
      <trkpt lat="45.86215" lon="5.33578">
        <ele>205.8</ele>
        <time>2022-09-24T14:19:14Z</time>
      </trkpt>
      <trkpt lat="45.8622" lon="5.33579">
        <ele>205.7</ele>
        <time>2022-09-24T14:19:15Z</time>
      </trkpt>
      <trkpt lat="45.86225" lon="5.3358">
        <ele>205.5</ele>
        <time>2022-09-24T14:19:16Z</time>
      </trkpt>
      <trkpt lat="45.86231" lon="5.33581">
        <ele>205.4</ele>
        <time>2022-09-24T14:19:17Z</time>
      </trkpt>
      <trkpt lat="45.86236" lon="5.33584">
        <ele>205.3</ele>
        <time>2022-09-24T14:19:18Z</time>
      </trkpt>
      <trkpt lat="45.86239" lon="5.33586">
        <ele>205.2</ele>
        <time>2022-09-24T14:19:19Z</time>
      </trkpt>
      <trkpt lat="45.86245" lon="5.33588">
        <ele>205.2</ele>
        <time>2022-09-24T14:19:20Z</time>
      </trkpt>
      <trkpt lat="45.86251" lon="5.33591">
        <ele>205.2</ele>
        <time>2022-09-24T14:19:21Z</time>
      </trkpt>
      <trkpt lat="45.86256" lon="5.33594">
        <ele>205.2</ele>
        <time>2022-09-24T14:19:22Z</time>
      </trkpt>
      <trkpt lat="45.86261" lon="5.33596">
        <ele>205.3</ele>
        <time>2022-09-24T14:19:23Z</time>
      </trkpt>
      <trkpt lat="45.86266" lon="5.33598">
        <ele>205.3</ele>
        <time>2022-09-24T14:19:24Z</time>
      </trkpt>
      <trkpt lat="45.8627" lon="5.33598">
        <ele>205.3</ele>
        <time>2022-09-24T14:19:25Z</time>
      </trkpt>
      <trkpt lat="45.86275" lon="5.33601">
        <ele>205.3</ele>
        <time>2022-09-24T14:19:26Z</time>
      </trkpt>
      <trkpt lat="45.8628" lon="5.33602">
        <ele>205.4</ele>
        <time>2022-09-24T14:19:27Z</time>
      </trkpt>
      <trkpt lat="45.86285" lon="5.33602">
        <ele>205.4</ele>
        <time>2022-09-24T14:19:28Z</time>
      </trkpt>
      <trkpt lat="45.8629" lon="5.33604">
        <ele>205.5</ele>
        <time>2022-09-24T14:19:29Z</time>
      </trkpt>
      <trkpt lat="45.86296" lon="5.33605">
        <ele>205.6</ele>
        <time>2022-09-24T14:19:30Z</time>
      </trkpt>
      <trkpt lat="45.863" lon="5.33607">
        <ele>205.7</ele>
        <time>2022-09-24T14:19:31Z</time>
      </trkpt>
      <trkpt lat="45.86304" lon="5.33607">
        <ele>205.8</ele>
        <time>2022-09-24T14:19:32Z</time>
      </trkpt>
      <trkpt lat="45.86308" lon="5.33608">
        <ele>205.9</ele>
        <time>2022-09-24T14:19:33Z</time>
      </trkpt>
      <trkpt lat="45.86312" lon="5.3361">
        <ele>206</ele>
        <time>2022-09-24T14:19:34Z</time>
      </trkpt>
      <trkpt lat="45.86317" lon="5.33611">
        <ele>206.1</ele>
        <time>2022-09-24T14:19:35Z</time>
      </trkpt>
      <trkpt lat="45.86322" lon="5.33612">
        <ele>206.2</ele>
        <time>2022-09-24T14:19:36Z</time>
      </trkpt>
      <trkpt lat="45.86327" lon="5.33614">
        <ele>206.3</ele>
        <time>2022-09-24T14:19:37Z</time>
      </trkpt>
      <trkpt lat="45.86332" lon="5.33616">
        <ele>206.3</ele>
        <time>2022-09-24T14:19:38Z</time>
      </trkpt>
      <trkpt lat="45.86337" lon="5.33617">
        <ele>206.4</ele>
        <time>2022-09-24T14:19:39Z</time>
      </trkpt>
      <trkpt lat="45.86341" lon="5.33618">
        <ele>206.4</ele>
        <time>2022-09-24T14:19:40Z</time>
      </trkpt>
      <trkpt lat="45.86345" lon="5.33617">
        <ele>206.4</ele>
        <time>2022-09-24T14:19:41Z</time>
      </trkpt>
      <trkpt lat="45.86347" lon="5.33618">
        <ele>206.4</ele>
        <time>2022-09-24T14:19:42Z</time>
      </trkpt>
      <trkpt lat="45.86348" lon="5.33619">
        <ele>206.4</ele>
        <time>2022-09-24T14:19:43Z</time>
      </trkpt>
      <trkpt lat="45.86349" lon="5.3362">
        <ele>206.4</ele>
        <time>2022-09-24T14:19:44Z</time>
      </trkpt>
      <trkpt lat="45.8635" lon="5.3362">
        <ele>206.4</ele>
        <time>2022-09-24T14:19:45Z</time>
      </trkpt>
      <trkpt lat="45.86351" lon="5.33621">
        <ele>206.4</ele>
        <time>2022-09-24T14:19:46Z</time>
      </trkpt>
      <trkpt lat="45.86352" lon="5.33621">
        <ele>206.4</ele>
        <time>2022-09-24T14:19:47Z</time>
      </trkpt>
      <trkpt lat="45.86353" lon="5.33622">
        <ele>206.4</ele>
        <time>2022-09-24T14:19:48Z</time>
      </trkpt>
      <trkpt lat="45.86355" lon="5.33623">
        <ele>206.4</ele>
        <time>2022-09-24T14:19:49Z</time>
      </trkpt>
      <trkpt lat="45.86356" lon="5.33623">
        <ele>206.4</ele>
        <time>2022-09-24T14:19:50Z</time>
      </trkpt>
      <trkpt lat="45.86357" lon="5.33624">
        <ele>206.4</ele>
        <time>2022-09-24T14:19:51Z</time>
      </trkpt>
      <trkpt lat="45.86358" lon="5.33624">
        <ele>206.4</ele>
        <time>2022-09-24T14:19:52Z</time>
      </trkpt>
      <trkpt lat="45.86359" lon="5.33625">
        <ele>206.4</ele>
        <time>2022-09-24T14:21:56Z</time>
      </trkpt>
      <trkpt lat="45.8636" lon="5.33626">
        <ele>206.4</ele>
        <time>2022-09-24T14:21:57Z</time>
      </trkpt>
      <trkpt lat="45.86363" lon="5.33625">
        <ele>206.4</ele>
        <time>2022-09-24T14:21:58Z</time>
      </trkpt>
      <trkpt lat="45.86366" lon="5.33625">
        <ele>206.4</ele>
        <time>2022-09-24T14:21:59Z</time>
      </trkpt>
      <trkpt lat="45.8637" lon="5.33627">
        <ele>206.4</ele>
        <time>2022-09-24T14:22:00Z</time>
      </trkpt>
      <trkpt lat="45.86372" lon="5.33627">
        <ele>206.4</ele>
        <time>2022-09-24T14:22:01Z</time>
      </trkpt>
      <trkpt lat="45.86376" lon="5.33628">
        <ele>206.3</ele>
        <time>2022-09-24T14:22:02Z</time>
      </trkpt>
      <trkpt lat="45.86379" lon="5.3363">
        <ele>206.3</ele>
        <time>2022-09-24T14:22:03Z</time>
      </trkpt>
      <trkpt lat="45.86382" lon="5.3363">
        <ele>206.3</ele>
        <time>2022-09-24T14:22:04Z</time>
      </trkpt>
      <trkpt lat="45.86385" lon="5.33631">
        <ele>206.3</ele>
        <time>2022-09-24T14:22:05Z</time>
      </trkpt>
      <trkpt lat="45.86389" lon="5.33632">
        <ele>206.2</ele>
        <time>2022-09-24T14:22:06Z</time>
      </trkpt>
      <trkpt lat="45.86393" lon="5.33633">
        <ele>206.2</ele>
        <time>2022-09-24T14:22:07Z</time>
      </trkpt>
      <trkpt lat="45.86397" lon="5.33634">
        <ele>206.2</ele>
        <time>2022-09-24T14:22:08Z</time>
      </trkpt>
      <trkpt lat="45.86401" lon="5.33635">
        <ele>206.1</ele>
        <time>2022-09-24T14:22:09Z</time>
      </trkpt>
      <trkpt lat="45.86405" lon="5.33636">
        <ele>206.1</ele>
        <time>2022-09-24T14:22:10Z</time>
      </trkpt>
      <trkpt lat="45.86409" lon="5.33637">
        <ele>206.1</ele>
        <time>2022-09-24T14:22:11Z</time>
      </trkpt>
      <trkpt lat="45.86414" lon="5.33638">
        <ele>206</ele>
        <time>2022-09-24T14:22:12Z</time>
      </trkpt>
      <trkpt lat="45.86418" lon="5.33639">
        <ele>206</ele>
        <time>2022-09-24T14:22:13Z</time>
      </trkpt>
      <trkpt lat="45.86423" lon="5.3364">
        <ele>206</ele>
        <time>2022-09-24T14:22:14Z</time>
      </trkpt>
      <trkpt lat="45.86428" lon="5.33642">
        <ele>206</ele>
        <time>2022-09-24T14:22:15Z</time>
      </trkpt>
      <trkpt lat="45.86433" lon="5.33643">
        <ele>205.9</ele>
        <time>2022-09-24T14:22:16Z</time>
      </trkpt>
      <trkpt lat="45.86437" lon="5.33644">
        <ele>205.9</ele>
        <time>2022-09-24T14:22:17Z</time>
      </trkpt>
      <trkpt lat="45.86442" lon="5.33645">
        <ele>205.9</ele>
        <time>2022-09-24T14:22:18Z</time>
      </trkpt>
      <trkpt lat="45.86446" lon="5.33646">
        <ele>205.9</ele>
        <time>2022-09-24T14:22:19Z</time>
      </trkpt>
      <trkpt lat="45.86451" lon="5.33647">
        <ele>205.8</ele>
        <time>2022-09-24T14:22:20Z</time>
      </trkpt>
      <trkpt lat="45.86455" lon="5.33649">
        <ele>205.8</ele>
        <time>2022-09-24T14:22:21Z</time>
      </trkpt>
      <trkpt lat="45.8646" lon="5.3365">
        <ele>205.7</ele>
        <time>2022-09-24T14:22:22Z</time>
      </trkpt>
      <trkpt lat="45.86465" lon="5.33651">
        <ele>205.7</ele>
        <time>2022-09-24T14:22:23Z</time>
      </trkpt>
      <trkpt lat="45.86469" lon="5.33652">
        <ele>205.6</ele>
        <time>2022-09-24T14:22:24Z</time>
      </trkpt>
      <trkpt lat="45.86474" lon="5.33653">
        <ele>205.5</ele>
        <time>2022-09-24T14:22:25Z</time>
      </trkpt>
      <trkpt lat="45.86478" lon="5.33655">
        <ele>205.5</ele>
        <time>2022-09-24T14:22:26Z</time>
      </trkpt>
      <trkpt lat="45.86484" lon="5.33656">
        <ele>205.4</ele>
        <time>2022-09-24T14:22:27Z</time>
      </trkpt>
      <trkpt lat="45.86489" lon="5.33657">
        <ele>205.4</ele>
        <time>2022-09-24T14:22:28Z</time>
      </trkpt>
      <trkpt lat="45.86493" lon="5.33658">
        <ele>205.4</ele>
        <time>2022-09-24T14:22:29Z</time>
      </trkpt>
      <trkpt lat="45.86498" lon="5.3366">
        <ele>205.3</ele>
        <time>2022-09-24T14:22:30Z</time>
      </trkpt>
      <trkpt lat="45.86503" lon="5.33661">
        <ele>205.3</ele>
        <time>2022-09-24T14:22:31Z</time>
      </trkpt>
      <trkpt lat="45.86509" lon="5.33663">
        <ele>205.3</ele>
        <time>2022-09-24T14:22:32Z</time>
      </trkpt>
      <trkpt lat="45.86514" lon="5.33665">
        <ele>205.2</ele>
        <time>2022-09-24T14:22:33Z</time>
      </trkpt>
      <trkpt lat="45.86518" lon="5.33667">
        <ele>205.2</ele>
        <time>2022-09-24T14:22:34Z</time>
      </trkpt>
      <trkpt lat="45.86523" lon="5.33669">
        <ele>205.2</ele>
        <time>2022-09-24T14:22:35Z</time>
      </trkpt>
      <trkpt lat="45.86528" lon="5.33672">
        <ele>205.2</ele>
        <time>2022-09-24T14:22:36Z</time>
      </trkpt>
      <trkpt lat="45.86533" lon="5.33673">
        <ele>205.1</ele>
        <time>2022-09-24T14:22:37Z</time>
      </trkpt>
      <trkpt lat="45.86538" lon="5.33676">
        <ele>205.1</ele>
        <time>2022-09-24T14:22:38Z</time>
      </trkpt>
      <trkpt lat="45.86542" lon="5.33677">
        <ele>205.1</ele>
        <time>2022-09-24T14:22:39Z</time>
      </trkpt>
      <trkpt lat="45.86547" lon="5.33679">
        <ele>205.1</ele>
        <time>2022-09-24T14:22:40Z</time>
      </trkpt>
      <trkpt lat="45.86552" lon="5.33682">
        <ele>205.1</ele>
        <time>2022-09-24T14:22:41Z</time>
      </trkpt>
      <trkpt lat="45.86557" lon="5.33684">
        <ele>205.1</ele>
        <time>2022-09-24T14:22:42Z</time>
      </trkpt>
      <trkpt lat="45.86562" lon="5.33687">
        <ele>205.1</ele>
        <time>2022-09-24T14:22:43Z</time>
      </trkpt>
      <trkpt lat="45.86568" lon="5.3369">
        <ele>205.1</ele>
        <time>2022-09-24T14:22:44Z</time>
      </trkpt>
      <trkpt lat="45.86573" lon="5.33693">
        <ele>205</ele>
        <time>2022-09-24T14:22:45Z</time>
      </trkpt>
      <trkpt lat="45.86578" lon="5.33696">
        <ele>205</ele>
        <time>2022-09-24T14:22:46Z</time>
      </trkpt>
      <trkpt lat="45.86582" lon="5.337">
        <ele>205.1</ele>
        <time>2022-09-24T14:22:47Z</time>
      </trkpt>
      <trkpt lat="45.86587" lon="5.33702">
        <ele>205.1</ele>
        <time>2022-09-24T14:22:48Z</time>
      </trkpt>
      <trkpt lat="45.86592" lon="5.33705">
        <ele>205.1</ele>
        <time>2022-09-24T14:22:49Z</time>
      </trkpt>
      <trkpt lat="45.86597" lon="5.33708">
        <ele>205.1</ele>
        <time>2022-09-24T14:22:50Z</time>
      </trkpt>
      <trkpt lat="45.86601" lon="5.33712">
        <ele>205.1</ele>
        <time>2022-09-24T14:22:51Z</time>
      </trkpt>
      <trkpt lat="45.86606" lon="5.33717">
        <ele>205.1</ele>
        <time>2022-09-24T14:22:52Z</time>
      </trkpt>
      <trkpt lat="45.8661" lon="5.3372">
        <ele>205.1</ele>
        <time>2022-09-24T14:22:53Z</time>
      </trkpt>
      <trkpt lat="45.86615" lon="5.33722">
        <ele>205.2</ele>
        <time>2022-09-24T14:22:54Z</time>
      </trkpt>
      <trkpt lat="45.86619" lon="5.33725">
        <ele>205.2</ele>
        <time>2022-09-24T14:22:55Z</time>
      </trkpt>
      <trkpt lat="45.86624" lon="5.33727">
        <ele>205.2</ele>
        <time>2022-09-24T14:22:56Z</time>
      </trkpt>
      <trkpt lat="45.86629" lon="5.3373">
        <ele>205.3</ele>
        <time>2022-09-24T14:22:57Z</time>
      </trkpt>
      <trkpt lat="45.86633" lon="5.33733">
        <ele>205.3</ele>
        <time>2022-09-24T14:22:58Z</time>
      </trkpt>
      <trkpt lat="45.86638" lon="5.33734">
        <ele>205.4</ele>
        <time>2022-09-24T14:22:59Z</time>
      </trkpt>
      <trkpt lat="45.86642" lon="5.33736">
        <ele>205.4</ele>
        <time>2022-09-24T14:23:00Z</time>
      </trkpt>
      <trkpt lat="45.86646" lon="5.33739">
        <ele>205.5</ele>
        <time>2022-09-24T14:23:01Z</time>
      </trkpt>
      <trkpt lat="45.8665" lon="5.3374">
        <ele>205.6</ele>
        <time>2022-09-24T14:23:02Z</time>
      </trkpt>
      <trkpt lat="45.86654" lon="5.33744">
        <ele>205.6</ele>
        <time>2022-09-24T14:23:03Z</time>
      </trkpt>
      <trkpt lat="45.86658" lon="5.33746">
        <ele>205.7</ele>
        <time>2022-09-24T14:23:04Z</time>
      </trkpt>
      <trkpt lat="45.86661" lon="5.33748">
        <ele>205.8</ele>
        <time>2022-09-24T14:23:05Z</time>
      </trkpt>
      <trkpt lat="45.86665" lon="5.33749">
        <ele>205.8</ele>
        <time>2022-09-24T14:23:06Z</time>
      </trkpt>
      <trkpt lat="45.86668" lon="5.33751">
        <ele>205.9</ele>
        <time>2022-09-24T14:23:07Z</time>
      </trkpt>
      <trkpt lat="45.86672" lon="5.33754">
        <ele>205.9</ele>
        <time>2022-09-24T14:23:08Z</time>
      </trkpt>
      <trkpt lat="45.86676" lon="5.33756">
        <ele>206</ele>
        <time>2022-09-24T14:23:09Z</time>
      </trkpt>
      <trkpt lat="45.86679" lon="5.33758">
        <ele>206.1</ele>
        <time>2022-09-24T14:23:10Z</time>
      </trkpt>
      <trkpt lat="45.86683" lon="5.3376">
        <ele>206.1</ele>
        <time>2022-09-24T14:23:11Z</time>
      </trkpt>
      <trkpt lat="45.86686" lon="5.33761">
        <ele>206.1</ele>
        <time>2022-09-24T14:23:12Z</time>
      </trkpt>
      <trkpt lat="45.86689" lon="5.33764">
        <ele>206.2</ele>
        <time>2022-09-24T14:23:13Z</time>
      </trkpt>
      <trkpt lat="45.86693" lon="5.33765">
        <ele>206.2</ele>
        <time>2022-09-24T14:23:14Z</time>
      </trkpt>
      <trkpt lat="45.86696" lon="5.33768">
        <ele>206.2</ele>
        <time>2022-09-24T14:23:15Z</time>
      </trkpt>
      <trkpt lat="45.867" lon="5.33769">
        <ele>206.3</ele>
        <time>2022-09-24T14:23:16Z</time>
      </trkpt>
      <trkpt lat="45.86703" lon="5.33771">
        <ele>206.3</ele>
        <time>2022-09-24T14:23:17Z</time>
      </trkpt>
      <trkpt lat="45.86706" lon="5.33772">
        <ele>206.3</ele>
        <time>2022-09-24T14:23:18Z</time>
      </trkpt>
      <trkpt lat="45.8671" lon="5.33774">
        <ele>206.3</ele>
        <time>2022-09-24T14:23:19Z</time>
      </trkpt>
      <trkpt lat="45.86712" lon="5.33776">
        <ele>206.3</ele>
        <time>2022-09-24T14:23:20Z</time>
      </trkpt>
      <trkpt lat="45.86715" lon="5.33777">
        <ele>206.3</ele>
        <time>2022-09-24T14:23:21Z</time>
      </trkpt>
      <trkpt lat="45.86718" lon="5.33779">
        <ele>206.3</ele>
        <time>2022-09-24T14:23:22Z</time>
      </trkpt>
      <trkpt lat="45.86721" lon="5.33782">
        <ele>206.3</ele>
        <time>2022-09-24T14:23:23Z</time>
      </trkpt>
      <trkpt lat="45.86724" lon="5.33784">
        <ele>206.3</ele>
        <time>2022-09-24T14:23:24Z</time>
      </trkpt>
      <trkpt lat="45.86728" lon="5.33786">
        <ele>206.3</ele>
        <time>2022-09-24T14:23:25Z</time>
      </trkpt>
      <trkpt lat="45.86732" lon="5.33787">
        <ele>206.3</ele>
        <time>2022-09-24T14:23:26Z</time>
      </trkpt>
      <trkpt lat="45.86736" lon="5.33789">
        <ele>206.3</ele>
        <time>2022-09-24T14:23:27Z</time>
      </trkpt>
      <trkpt lat="45.8674" lon="5.3379">
        <ele>206.3</ele>
        <time>2022-09-24T14:23:28Z</time>
      </trkpt>
      <trkpt lat="45.86744" lon="5.33792">
        <ele>206.3</ele>
        <time>2022-09-24T14:23:29Z</time>
      </trkpt>
      <trkpt lat="45.86748" lon="5.33793">
        <ele>206.3</ele>
        <time>2022-09-24T14:23:30Z</time>
      </trkpt>
      <trkpt lat="45.86753" lon="5.33795">
        <ele>206.3</ele>
        <time>2022-09-24T14:23:31Z</time>
      </trkpt>
      <trkpt lat="45.86757" lon="5.33797">
        <ele>206.4</ele>
        <time>2022-09-24T14:23:32Z</time>
      </trkpt>
      <trkpt lat="45.86761" lon="5.338">
        <ele>206.4</ele>
        <time>2022-09-24T14:23:33Z</time>
      </trkpt>
      <trkpt lat="45.86764" lon="5.33803">
        <ele>206.4</ele>
        <time>2022-09-24T14:23:34Z</time>
      </trkpt>
      <trkpt lat="45.86768" lon="5.33806">
        <ele>206.4</ele>
        <time>2022-09-24T14:23:35Z</time>
      </trkpt>
      <trkpt lat="45.86772" lon="5.33809">
        <ele>206.4</ele>
        <time>2022-09-24T14:23:36Z</time>
      </trkpt>
      <trkpt lat="45.86774" lon="5.33813">
        <ele>206.4</ele>
        <time>2022-09-24T14:23:37Z</time>
      </trkpt>
      <trkpt lat="45.86778" lon="5.33816">
        <ele>206.4</ele>
        <time>2022-09-24T14:23:38Z</time>
      </trkpt>
      <trkpt lat="45.86782" lon="5.33819">
        <ele>206.4</ele>
        <time>2022-09-24T14:23:39Z</time>
      </trkpt>
      <trkpt lat="45.86786" lon="5.33822">
        <ele>206.4</ele>
        <time>2022-09-24T14:23:40Z</time>
      </trkpt>
      <trkpt lat="45.8679" lon="5.33825">
        <ele>206.4</ele>
        <time>2022-09-24T14:23:41Z</time>
      </trkpt>
      <trkpt lat="45.86794" lon="5.33828">
        <ele>206.4</ele>
        <time>2022-09-24T14:23:42Z</time>
      </trkpt>
      <trkpt lat="45.86798" lon="5.33831">
        <ele>206.4</ele>
        <time>2022-09-24T14:23:43Z</time>
      </trkpt>
      <trkpt lat="45.86801" lon="5.33834">
        <ele>206.4</ele>
        <time>2022-09-24T14:23:44Z</time>
      </trkpt>
      <trkpt lat="45.86804" lon="5.33836">
        <ele>206.4</ele>
        <time>2022-09-24T14:23:45Z</time>
      </trkpt>
      <trkpt lat="45.86808" lon="5.33839">
        <ele>206.4</ele>
        <time>2022-09-24T14:23:46Z</time>
      </trkpt>
      <trkpt lat="45.8681" lon="5.33841">
        <ele>206.4</ele>
        <time>2022-09-24T14:23:47Z</time>
      </trkpt>
      <trkpt lat="45.86814" lon="5.33844">
        <ele>206.4</ele>
        <time>2022-09-24T14:23:48Z</time>
      </trkpt>
      <trkpt lat="45.86816" lon="5.33847">
        <ele>206.4</ele>
        <time>2022-09-24T14:23:49Z</time>
      </trkpt>
      <trkpt lat="45.86819" lon="5.33851">
        <ele>206.3</ele>
        <time>2022-09-24T14:23:50Z</time>
      </trkpt>
      <trkpt lat="45.86822" lon="5.33855">
        <ele>206.3</ele>
        <time>2022-09-24T14:23:51Z</time>
      </trkpt>
      <trkpt lat="45.86824" lon="5.33859">
        <ele>206.3</ele>
        <time>2022-09-24T14:23:52Z</time>
      </trkpt>
      <trkpt lat="45.86827" lon="5.33863">
        <ele>206.3</ele>
        <time>2022-09-24T14:23:53Z</time>
      </trkpt>
      <trkpt lat="45.8683" lon="5.33867">
        <ele>206.3</ele>
        <time>2022-09-24T14:23:54Z</time>
      </trkpt>
      <trkpt lat="45.86832" lon="5.3387">
        <ele>206.3</ele>
        <time>2022-09-24T14:23:55Z</time>
      </trkpt>
      <trkpt lat="45.86835" lon="5.33874">
        <ele>206.3</ele>
        <time>2022-09-24T14:23:56Z</time>
      </trkpt>
      <trkpt lat="45.86838" lon="5.33878">
        <ele>206.3</ele>
        <time>2022-09-24T14:23:57Z</time>
      </trkpt>
      <trkpt lat="45.86841" lon="5.33882">
        <ele>206.3</ele>
        <time>2022-09-24T14:23:58Z</time>
      </trkpt>
      <trkpt lat="45.86843" lon="5.33885">
        <ele>206.3</ele>
        <time>2022-09-24T14:23:59Z</time>
      </trkpt>
      <trkpt lat="45.86845" lon="5.33889">
        <ele>206.3</ele>
        <time>2022-09-24T14:24:00Z</time>
      </trkpt>
      <trkpt lat="45.86848" lon="5.33893">
        <ele>206.3</ele>
        <time>2022-09-24T14:24:01Z</time>
      </trkpt>
      <trkpt lat="45.8685" lon="5.33896">
        <ele>206.2</ele>
        <time>2022-09-24T14:24:02Z</time>
      </trkpt>
      <trkpt lat="45.86852" lon="5.339">
        <ele>206.2</ele>
        <time>2022-09-24T14:24:03Z</time>
      </trkpt>
      <trkpt lat="45.86854" lon="5.33904">
        <ele>206.2</ele>
        <time>2022-09-24T14:24:04Z</time>
      </trkpt>
      <trkpt lat="45.86856" lon="5.33907">
        <ele>206.2</ele>
        <time>2022-09-24T14:24:05Z</time>
      </trkpt>
      <trkpt lat="45.86858" lon="5.33911">
        <ele>206.2</ele>
        <time>2022-09-24T14:24:06Z</time>
      </trkpt>
      <trkpt lat="45.8686" lon="5.33915">
        <ele>206.2</ele>
        <time>2022-09-24T14:24:07Z</time>
      </trkpt>
      <trkpt lat="45.86862" lon="5.33919">
        <ele>206.3</ele>
        <time>2022-09-24T14:24:08Z</time>
      </trkpt>
      <trkpt lat="45.86865" lon="5.3392">
        <ele>206.3</ele>
        <time>2022-09-24T14:24:09Z</time>
      </trkpt>
      <trkpt lat="45.86867" lon="5.33924">
        <ele>206.3</ele>
        <time>2022-09-24T14:24:10Z</time>
      </trkpt>
      <trkpt lat="45.86869" lon="5.33929">
        <ele>206.3</ele>
        <time>2022-09-24T14:24:11Z</time>
      </trkpt>
      <trkpt lat="45.86871" lon="5.33934">
        <ele>206.3</ele>
        <time>2022-09-24T14:24:12Z</time>
      </trkpt>
      <trkpt lat="45.86873" lon="5.33938">
        <ele>206.3</ele>
        <time>2022-09-24T14:24:13Z</time>
      </trkpt>
      <trkpt lat="45.86876" lon="5.33942">
        <ele>206.4</ele>
        <time>2022-09-24T14:24:14Z</time>
      </trkpt>
      <trkpt lat="45.86879" lon="5.33947">
        <ele>206.4</ele>
        <time>2022-09-24T14:24:15Z</time>
      </trkpt>
      <trkpt lat="45.86881" lon="5.33951">
        <ele>206.4</ele>
        <time>2022-09-24T14:24:16Z</time>
      </trkpt>
      <trkpt lat="45.86883" lon="5.33956">
        <ele>206.5</ele>
        <time>2022-09-24T14:24:17Z</time>
      </trkpt>
      <trkpt lat="45.86886" lon="5.3396">
        <ele>206.5</ele>
        <time>2022-09-24T14:24:18Z</time>
      </trkpt>
      <trkpt lat="45.86888" lon="5.33964">
        <ele>206.5</ele>
        <time>2022-09-24T14:24:19Z</time>
      </trkpt>
      <trkpt lat="45.86891" lon="5.33969">
        <ele>206.6</ele>
        <time>2022-09-24T14:24:20Z</time>
      </trkpt>
      <trkpt lat="45.86893" lon="5.33974">
        <ele>206.6</ele>
        <time>2022-09-24T14:24:21Z</time>
      </trkpt>
      <trkpt lat="45.86896" lon="5.33979">
        <ele>206.7</ele>
        <time>2022-09-24T14:24:22Z</time>
      </trkpt>
      <trkpt lat="45.86899" lon="5.33982">
        <ele>206.7</ele>
        <time>2022-09-24T14:24:23Z</time>
      </trkpt>
      <trkpt lat="45.86901" lon="5.33987">
        <ele>206.8</ele>
        <time>2022-09-24T14:24:24Z</time>
      </trkpt>
      <trkpt lat="45.86903" lon="5.33991">
        <ele>206.8</ele>
        <time>2022-09-24T14:24:25Z</time>
      </trkpt>
      <trkpt lat="45.86905" lon="5.33995">
        <ele>206.8</ele>
        <time>2022-09-24T14:24:26Z</time>
      </trkpt>
      <trkpt lat="45.86908" lon="5.33999">
        <ele>206.9</ele>
        <time>2022-09-24T14:24:27Z</time>
      </trkpt>
      <trkpt lat="45.86911" lon="5.34002">
        <ele>206.9</ele>
        <time>2022-09-24T14:24:28Z</time>
      </trkpt>
      <trkpt lat="45.86914" lon="5.34006">
        <ele>206.9</ele>
        <time>2022-09-24T14:24:29Z</time>
      </trkpt>
      <trkpt lat="45.86917" lon="5.3401">
        <ele>206.9</ele>
        <time>2022-09-24T14:24:30Z</time>
      </trkpt>
      <trkpt lat="45.86919" lon="5.34015">
        <ele>206.9</ele>
        <time>2022-09-24T14:24:31Z</time>
      </trkpt>
      <trkpt lat="45.86922" lon="5.34019">
        <ele>207</ele>
        <time>2022-09-24T14:24:32Z</time>
      </trkpt>
      <trkpt lat="45.86925" lon="5.34022">
        <ele>207</ele>
        <time>2022-09-24T14:24:33Z</time>
      </trkpt>
      <trkpt lat="45.86928" lon="5.34027">
        <ele>207</ele>
        <time>2022-09-24T14:24:34Z</time>
      </trkpt>
      <trkpt lat="45.86931" lon="5.34031">
        <ele>207</ele>
        <time>2022-09-24T14:24:35Z</time>
      </trkpt>
      <trkpt lat="45.86934" lon="5.34035">
        <ele>207.1</ele>
        <time>2022-09-24T14:24:36Z</time>
      </trkpt>
      <trkpt lat="45.86937" lon="5.3404">
        <ele>207.1</ele>
        <time>2022-09-24T14:24:37Z</time>
      </trkpt>
      <trkpt lat="45.86939" lon="5.34043">
        <ele>207.1</ele>
        <time>2022-09-24T14:24:38Z</time>
      </trkpt>
      <trkpt lat="45.86942" lon="5.34048">
        <ele>207.1</ele>
        <time>2022-09-24T14:24:39Z</time>
      </trkpt>
      <trkpt lat="45.86944" lon="5.34052">
        <ele>207.2</ele>
        <time>2022-09-24T14:24:40Z</time>
      </trkpt>
      <trkpt lat="45.86947" lon="5.34056">
        <ele>207.2</ele>
        <time>2022-09-24T14:24:41Z</time>
      </trkpt>
      <trkpt lat="45.86949" lon="5.3406">
        <ele>207.2</ele>
        <time>2022-09-24T14:24:42Z</time>
      </trkpt>
      <trkpt lat="45.86952" lon="5.34064">
        <ele>207.2</ele>
        <time>2022-09-24T14:24:43Z</time>
      </trkpt>
      <trkpt lat="45.86955" lon="5.34067">
        <ele>207.3</ele>
        <time>2022-09-24T14:24:44Z</time>
      </trkpt>
      <trkpt lat="45.86957" lon="5.34071">
        <ele>207.3</ele>
        <time>2022-09-24T14:24:45Z</time>
      </trkpt>
      <trkpt lat="45.86959" lon="5.34075">
        <ele>207.3</ele>
        <time>2022-09-24T14:24:46Z</time>
      </trkpt>
      <trkpt lat="45.86962" lon="5.34079">
        <ele>207.3</ele>
        <time>2022-09-24T14:24:47Z</time>
      </trkpt>
      <trkpt lat="45.86965" lon="5.34083">
        <ele>207.3</ele>
        <time>2022-09-24T14:24:48Z</time>
      </trkpt>
      <trkpt lat="45.86967" lon="5.34087">
        <ele>207.3</ele>
        <time>2022-09-24T14:24:49Z</time>
      </trkpt>
      <trkpt lat="45.86971" lon="5.34091">
        <ele>207.3</ele>
        <time>2022-09-24T14:24:50Z</time>
      </trkpt>
      <trkpt lat="45.86974" lon="5.34095">
        <ele>207.3</ele>
        <time>2022-09-24T14:24:51Z</time>
      </trkpt>
      <trkpt lat="45.86976" lon="5.341">
        <ele>207.3</ele>
        <time>2022-09-24T14:24:52Z</time>
      </trkpt>
      <trkpt lat="45.86979" lon="5.34104">
        <ele>207.3</ele>
        <time>2022-09-24T14:24:53Z</time>
      </trkpt>
      <trkpt lat="45.86983" lon="5.34108">
        <ele>207.3</ele>
        <time>2022-09-24T14:24:54Z</time>
      </trkpt>
      <trkpt lat="45.86986" lon="5.34112">
        <ele>207.3</ele>
        <time>2022-09-24T14:24:55Z</time>
      </trkpt>
      <trkpt lat="45.86989" lon="5.34117">
        <ele>207.3</ele>
        <time>2022-09-24T14:24:56Z</time>
      </trkpt>
      <trkpt lat="45.86992" lon="5.34121">
        <ele>207.3</ele>
        <time>2022-09-24T14:24:57Z</time>
      </trkpt>
      <trkpt lat="45.86995" lon="5.34125">
        <ele>207.3</ele>
        <time>2022-09-24T14:24:58Z</time>
      </trkpt>
      <trkpt lat="45.86998" lon="5.34129">
        <ele>207.3</ele>
        <time>2022-09-24T14:24:59Z</time>
      </trkpt>
      <trkpt lat="45.87001" lon="5.34133">
        <ele>207.2</ele>
        <time>2022-09-24T14:25:00Z</time>
      </trkpt>
      <trkpt lat="45.87004" lon="5.34136">
        <ele>207.2</ele>
        <time>2022-09-24T14:25:01Z</time>
      </trkpt>
      <trkpt lat="45.87006" lon="5.34141">
        <ele>207.2</ele>
        <time>2022-09-24T14:25:02Z</time>
      </trkpt>
      <trkpt lat="45.87009" lon="5.34145">
        <ele>207.2</ele>
        <time>2022-09-24T14:25:03Z</time>
      </trkpt>
      <trkpt lat="45.87012" lon="5.34149">
        <ele>207.2</ele>
        <time>2022-09-24T14:25:04Z</time>
      </trkpt>
      <trkpt lat="45.87015" lon="5.34153">
        <ele>207.2</ele>
        <time>2022-09-24T14:25:05Z</time>
      </trkpt>
      <trkpt lat="45.87018" lon="5.34157">
        <ele>207.2</ele>
        <time>2022-09-24T14:25:06Z</time>
      </trkpt>
      <trkpt lat="45.87022" lon="5.34162">
        <ele>207.2</ele>
        <time>2022-09-24T14:25:07Z</time>
      </trkpt>
      <trkpt lat="45.87024" lon="5.34166">
        <ele>207.2</ele>
        <time>2022-09-24T14:25:08Z</time>
      </trkpt>
      <trkpt lat="45.87028" lon="5.3417">
        <ele>207.2</ele>
        <time>2022-09-24T14:25:09Z</time>
      </trkpt>
      <trkpt lat="45.87031" lon="5.34174">
        <ele>207.2</ele>
        <time>2022-09-24T14:25:10Z</time>
      </trkpt>
      <trkpt lat="45.87033" lon="5.34178">
        <ele>207.2</ele>
        <time>2022-09-24T14:25:11Z</time>
      </trkpt>
      <trkpt lat="45.87036" lon="5.34182">
        <ele>207.3</ele>
        <time>2022-09-24T14:25:12Z</time>
      </trkpt>
      <trkpt lat="45.87039" lon="5.34186">
        <ele>207.3</ele>
        <time>2022-09-24T14:25:13Z</time>
      </trkpt>
      <trkpt lat="45.87042" lon="5.3419">
        <ele>207.3</ele>
        <time>2022-09-24T14:25:14Z</time>
      </trkpt>
      <trkpt lat="45.87045" lon="5.34193">
        <ele>207.3</ele>
        <time>2022-09-24T14:25:15Z</time>
      </trkpt>
      <trkpt lat="45.87048" lon="5.34197">
        <ele>207.3</ele>
        <time>2022-09-24T14:25:16Z</time>
      </trkpt>
      <trkpt lat="45.87052" lon="5.34201">
        <ele>207.3</ele>
        <time>2022-09-24T14:25:17Z</time>
      </trkpt>
      <trkpt lat="45.87055" lon="5.34206">
        <ele>207.3</ele>
        <time>2022-09-24T14:25:18Z</time>
      </trkpt>
      <trkpt lat="45.87059" lon="5.34211">
        <ele>207.3</ele>
        <time>2022-09-24T14:25:19Z</time>
      </trkpt>
      <trkpt lat="45.87062" lon="5.34215">
        <ele>207.3</ele>
        <time>2022-09-24T14:25:20Z</time>
      </trkpt>
      <trkpt lat="45.87065" lon="5.34219">
        <ele>207.3</ele>
        <time>2022-09-24T14:25:21Z</time>
      </trkpt>
      <trkpt lat="45.87069" lon="5.34224">
        <ele>207.4</ele>
        <time>2022-09-24T14:25:22Z</time>
      </trkpt>
      <trkpt lat="45.87073" lon="5.34227">
        <ele>207.4</ele>
        <time>2022-09-24T14:25:23Z</time>
      </trkpt>
      <trkpt lat="45.87077" lon="5.34232">
        <ele>207.4</ele>
        <time>2022-09-24T14:25:24Z</time>
      </trkpt>
      <trkpt lat="45.87081" lon="5.34235">
        <ele>207.4</ele>
        <time>2022-09-24T14:25:25Z</time>
      </trkpt>
      <trkpt lat="45.87084" lon="5.3424">
        <ele>207.4</ele>
        <time>2022-09-24T14:25:26Z</time>
      </trkpt>
      <trkpt lat="45.87088" lon="5.34244">
        <ele>207.4</ele>
        <time>2022-09-24T14:25:27Z</time>
      </trkpt>
      <trkpt lat="45.87092" lon="5.34248">
        <ele>207.4</ele>
        <time>2022-09-24T14:25:28Z</time>
      </trkpt>
      <trkpt lat="45.87095" lon="5.34253">
        <ele>207.4</ele>
        <time>2022-09-24T14:25:29Z</time>
      </trkpt>
      <trkpt lat="45.87098" lon="5.34257">
        <ele>207.4</ele>
        <time>2022-09-24T14:25:30Z</time>
      </trkpt>
      <trkpt lat="45.87101" lon="5.34261">
        <ele>207.4</ele>
        <time>2022-09-24T14:25:31Z</time>
      </trkpt>
      <trkpt lat="45.87104" lon="5.34265">
        <ele>207.4</ele>
        <time>2022-09-24T14:25:32Z</time>
      </trkpt>
      <trkpt lat="45.87107" lon="5.34268">
        <ele>207.4</ele>
        <time>2022-09-24T14:25:33Z</time>
      </trkpt>
      <trkpt lat="45.87111" lon="5.34271">
        <ele>207.5</ele>
        <time>2022-09-24T14:25:34Z</time>
      </trkpt>
      <trkpt lat="45.87113" lon="5.34276">
        <ele>207.5</ele>
        <time>2022-09-24T14:25:35Z</time>
      </trkpt>
      <trkpt lat="45.87115" lon="5.3428">
        <ele>207.5</ele>
        <time>2022-09-24T14:25:36Z</time>
      </trkpt>
      <trkpt lat="45.87118" lon="5.34284">
        <ele>207.5</ele>
        <time>2022-09-24T14:25:37Z</time>
      </trkpt>
      <trkpt lat="45.87121" lon="5.34287">
        <ele>207.5</ele>
        <time>2022-09-24T14:25:38Z</time>
      </trkpt>
      <trkpt lat="45.87125" lon="5.34291">
        <ele>207.4</ele>
        <time>2022-09-24T14:25:39Z</time>
      </trkpt>
      <trkpt lat="45.87129" lon="5.34295">
        <ele>207.4</ele>
        <time>2022-09-24T14:25:40Z</time>
      </trkpt>
      <trkpt lat="45.87134" lon="5.34298">
        <ele>207.4</ele>
        <time>2022-09-24T14:25:41Z</time>
      </trkpt>
      <trkpt lat="45.87139" lon="5.343">
        <ele>207.3</ele>
        <time>2022-09-24T14:25:42Z</time>
      </trkpt>
      <trkpt lat="45.87143" lon="5.34302">
        <ele>207.3</ele>
        <time>2022-09-24T14:25:43Z</time>
      </trkpt>
      <trkpt lat="45.87148" lon="5.34304">
        <ele>207.3</ele>
        <time>2022-09-24T14:25:44Z</time>
      </trkpt>
      <trkpt lat="45.87153" lon="5.34306">
        <ele>207.2</ele>
        <time>2022-09-24T14:25:45Z</time>
      </trkpt>
      <trkpt lat="45.87157" lon="5.34308">
        <ele>207.2</ele>
        <time>2022-09-24T14:25:46Z</time>
      </trkpt>
      <trkpt lat="45.87162" lon="5.34309">
        <ele>207.1</ele>
        <time>2022-09-24T14:25:47Z</time>
      </trkpt>
      <trkpt lat="45.87167" lon="5.34311">
        <ele>207.1</ele>
        <time>2022-09-24T14:25:48Z</time>
      </trkpt>
      <trkpt lat="45.87171" lon="5.34314">
        <ele>207.1</ele>
        <time>2022-09-24T14:25:49Z</time>
      </trkpt>
      <trkpt lat="45.87176" lon="5.34316">
        <ele>207</ele>
        <time>2022-09-24T14:25:50Z</time>
      </trkpt>
      <trkpt lat="45.87181" lon="5.34319">
        <ele>207</ele>
        <time>2022-09-24T14:25:51Z</time>
      </trkpt>
      <trkpt lat="45.87186" lon="5.34322">
        <ele>206.9</ele>
        <time>2022-09-24T14:25:52Z</time>
      </trkpt>
      <trkpt lat="45.87191" lon="5.34324">
        <ele>206.9</ele>
        <time>2022-09-24T14:25:53Z</time>
      </trkpt>
      <trkpt lat="45.87195" lon="5.34327">
        <ele>206.8</ele>
        <time>2022-09-24T14:25:54Z</time>
      </trkpt>
      <trkpt lat="45.87199" lon="5.3433">
        <ele>206.8</ele>
        <time>2022-09-24T14:25:55Z</time>
      </trkpt>
      <trkpt lat="45.87204" lon="5.34333">
        <ele>206.8</ele>
        <time>2022-09-24T14:25:56Z</time>
      </trkpt>
      <trkpt lat="45.87208" lon="5.34336">
        <ele>206.8</ele>
        <time>2022-09-24T14:25:57Z</time>
      </trkpt>
      <trkpt lat="45.87213" lon="5.34339">
        <ele>206.8</ele>
        <time>2022-09-24T14:25:58Z</time>
      </trkpt>
      <trkpt lat="45.87217" lon="5.34342">
        <ele>206.8</ele>
        <time>2022-09-24T14:25:59Z</time>
      </trkpt>
      <trkpt lat="45.87222" lon="5.34345">
        <ele>206.8</ele>
        <time>2022-09-24T14:26:00Z</time>
      </trkpt>
      <trkpt lat="45.87226" lon="5.34348">
        <ele>206.8</ele>
        <time>2022-09-24T14:26:01Z</time>
      </trkpt>
      <trkpt lat="45.8723" lon="5.34352">
        <ele>206.8</ele>
        <time>2022-09-24T14:26:02Z</time>
      </trkpt>
      <trkpt lat="45.87234" lon="5.34355">
        <ele>206.8</ele>
        <time>2022-09-24T14:26:03Z</time>
      </trkpt>
      <trkpt lat="45.87238" lon="5.34357">
        <ele>206.8</ele>
        <time>2022-09-24T14:26:04Z</time>
      </trkpt>
      <trkpt lat="45.87242" lon="5.3436">
        <ele>206.7</ele>
        <time>2022-09-24T14:26:05Z</time>
      </trkpt>
      <trkpt lat="45.87246" lon="5.34363">
        <ele>206.7</ele>
        <time>2022-09-24T14:26:06Z</time>
      </trkpt>
      <trkpt lat="45.8725" lon="5.34366">
        <ele>206.7</ele>
        <time>2022-09-24T14:26:07Z</time>
      </trkpt>
      <trkpt lat="45.87254" lon="5.34369">
        <ele>206.7</ele>
        <time>2022-09-24T14:26:08Z</time>
      </trkpt>
      <trkpt lat="45.87258" lon="5.34372">
        <ele>206.7</ele>
        <time>2022-09-24T14:26:09Z</time>
      </trkpt>
      <trkpt lat="45.87261" lon="5.34375">
        <ele>206.7</ele>
        <time>2022-09-24T14:26:10Z</time>
      </trkpt>
      <trkpt lat="45.87265" lon="5.34378">
        <ele>206.7</ele>
        <time>2022-09-24T14:26:11Z</time>
      </trkpt>
      <trkpt lat="45.87269" lon="5.3438">
        <ele>206.6</ele>
        <time>2022-09-24T14:26:12Z</time>
      </trkpt>
      <trkpt lat="45.87273" lon="5.34383">
        <ele>206.6</ele>
        <time>2022-09-24T14:26:13Z</time>
      </trkpt>
      <trkpt lat="45.87277" lon="5.34386">
        <ele>206.6</ele>
        <time>2022-09-24T14:26:14Z</time>
      </trkpt>
      <trkpt lat="45.87281" lon="5.34388">
        <ele>206.6</ele>
        <time>2022-09-24T14:26:15Z</time>
      </trkpt>
      <trkpt lat="45.87285" lon="5.34391">
        <ele>206.6</ele>
        <time>2022-09-24T14:26:16Z</time>
      </trkpt>
      <trkpt lat="45.87289" lon="5.34394">
        <ele>206.6</ele>
        <time>2022-09-24T14:26:17Z</time>
      </trkpt>
      <trkpt lat="45.87293" lon="5.34397">
        <ele>206.6</ele>
        <time>2022-09-24T14:26:18Z</time>
      </trkpt>
      <trkpt lat="45.87296" lon="5.344">
        <ele>206.6</ele>
        <time>2022-09-24T14:26:19Z</time>
      </trkpt>
      <trkpt lat="45.87301" lon="5.34402">
        <ele>206.6</ele>
        <time>2022-09-24T14:26:20Z</time>
      </trkpt>
      <trkpt lat="45.87305" lon="5.34405">
        <ele>206.6</ele>
        <time>2022-09-24T14:26:21Z</time>
      </trkpt>
      <trkpt lat="45.87309" lon="5.34408">
        <ele>206.6</ele>
        <time>2022-09-24T14:26:22Z</time>
      </trkpt>
      <trkpt lat="45.87312" lon="5.3441">
        <ele>206.7</ele>
        <time>2022-09-24T14:26:23Z</time>
      </trkpt>
      <trkpt lat="45.87316" lon="5.34413">
        <ele>206.7</ele>
        <time>2022-09-24T14:26:24Z</time>
      </trkpt>
      <trkpt lat="45.8732" lon="5.34416">
        <ele>206.7</ele>
        <time>2022-09-24T14:26:25Z</time>
      </trkpt>
      <trkpt lat="45.87323" lon="5.34419">
        <ele>206.7</ele>
        <time>2022-09-24T14:26:26Z</time>
      </trkpt>
      <trkpt lat="45.87327" lon="5.34421">
        <ele>206.7</ele>
        <time>2022-09-24T14:26:27Z</time>
      </trkpt>
      <trkpt lat="45.8733" lon="5.34424">
        <ele>206.7</ele>
        <time>2022-09-24T14:26:28Z</time>
      </trkpt>
      <trkpt lat="45.87334" lon="5.34426">
        <ele>206.7</ele>
        <time>2022-09-24T14:26:29Z</time>
      </trkpt>
      <trkpt lat="45.87338" lon="5.34429">
        <ele>206.8</ele>
        <time>2022-09-24T14:26:30Z</time>
      </trkpt>
      <trkpt lat="45.87341" lon="5.34432">
        <ele>206.8</ele>
        <time>2022-09-24T14:26:31Z</time>
      </trkpt>
      <trkpt lat="45.87345" lon="5.34434">
        <ele>206.8</ele>
        <time>2022-09-24T14:26:32Z</time>
      </trkpt>
      <trkpt lat="45.87348" lon="5.34436">
        <ele>206.8</ele>
        <time>2022-09-24T14:26:33Z</time>
      </trkpt>
      <trkpt lat="45.87352" lon="5.34439">
        <ele>206.8</ele>
        <time>2022-09-24T14:26:34Z</time>
      </trkpt>
      <trkpt lat="45.87356" lon="5.34442">
        <ele>206.8</ele>
        <time>2022-09-24T14:26:35Z</time>
      </trkpt>
      <trkpt lat="45.87359" lon="5.34444">
        <ele>206.7</ele>
        <time>2022-09-24T14:26:36Z</time>
      </trkpt>
      <trkpt lat="45.87363" lon="5.34447">
        <ele>206.7</ele>
        <time>2022-09-24T14:26:37Z</time>
      </trkpt>
      <trkpt lat="45.87367" lon="5.3445">
        <ele>206.7</ele>
        <time>2022-09-24T14:26:38Z</time>
      </trkpt>
      <trkpt lat="45.87371" lon="5.34453">
        <ele>206.7</ele>
        <time>2022-09-24T14:26:39Z</time>
      </trkpt>
      <trkpt lat="45.87375" lon="5.34455">
        <ele>206.6</ele>
        <time>2022-09-24T14:26:40Z</time>
      </trkpt>
      <trkpt lat="45.87379" lon="5.34458">
        <ele>206.6</ele>
        <time>2022-09-24T14:26:41Z</time>
      </trkpt>
      <trkpt lat="45.87384" lon="5.34461">
        <ele>206.6</ele>
        <time>2022-09-24T14:26:42Z</time>
      </trkpt>
      <trkpt lat="45.87388" lon="5.34464">
        <ele>206.6</ele>
        <time>2022-09-24T14:26:43Z</time>
      </trkpt>
      <trkpt lat="45.87392" lon="5.34467">
        <ele>206.5</ele>
        <time>2022-09-24T14:26:44Z</time>
      </trkpt>
      <trkpt lat="45.87396" lon="5.3447">
        <ele>206.5</ele>
        <time>2022-09-24T14:26:45Z</time>
      </trkpt>
      <trkpt lat="45.874" lon="5.34473">
        <ele>206.5</ele>
        <time>2022-09-24T14:26:46Z</time>
      </trkpt>
      <trkpt lat="45.87405" lon="5.34476">
        <ele>206.4</ele>
        <time>2022-09-24T14:26:47Z</time>
      </trkpt>
      <trkpt lat="45.87409" lon="5.34479">
        <ele>206.4</ele>
        <time>2022-09-24T14:26:48Z</time>
      </trkpt>
      <trkpt lat="45.87413" lon="5.34482">
        <ele>206.4</ele>
        <time>2022-09-24T14:26:49Z</time>
      </trkpt>
      <trkpt lat="45.87418" lon="5.34485">
        <ele>206.3</ele>
        <time>2022-09-24T14:26:50Z</time>
      </trkpt>
      <trkpt lat="45.87422" lon="5.34488">
        <ele>206.3</ele>
        <time>2022-09-24T14:26:51Z</time>
      </trkpt>
      <trkpt lat="45.87427" lon="5.34492">
        <ele>206.3</ele>
        <time>2022-09-24T14:26:52Z</time>
      </trkpt>
      <trkpt lat="45.87431" lon="5.34495">
        <ele>206.2</ele>
        <time>2022-09-24T14:26:53Z</time>
      </trkpt>
      <trkpt lat="45.87436" lon="5.34498">
        <ele>206.2</ele>
        <time>2022-09-24T14:26:54Z</time>
      </trkpt>
      <trkpt lat="45.8744" lon="5.34501">
        <ele>206.2</ele>
        <time>2022-09-24T14:26:55Z</time>
      </trkpt>
      <trkpt lat="45.87445" lon="5.34505">
        <ele>206.1</ele>
        <time>2022-09-24T14:26:56Z</time>
      </trkpt>
      <trkpt lat="45.8745" lon="5.34508">
        <ele>206.1</ele>
        <time>2022-09-24T14:26:57Z</time>
      </trkpt>
      <trkpt lat="45.87454" lon="5.34511">
        <ele>206.1</ele>
        <time>2022-09-24T14:26:58Z</time>
      </trkpt>
      <trkpt lat="45.87459" lon="5.34514">
        <ele>206.1</ele>
        <time>2022-09-24T14:26:59Z</time>
      </trkpt>
      <trkpt lat="45.87463" lon="5.34517">
        <ele>206.1</ele>
        <time>2022-09-24T14:27:00Z</time>
      </trkpt>
      <trkpt lat="45.87467" lon="5.34521">
        <ele>206</ele>
        <time>2022-09-24T14:27:01Z</time>
      </trkpt>
      <trkpt lat="45.87472" lon="5.34524">
        <ele>206</ele>
        <time>2022-09-24T14:27:02Z</time>
      </trkpt>
      <trkpt lat="45.87476" lon="5.34527">
        <ele>206</ele>
        <time>2022-09-24T14:27:03Z</time>
      </trkpt>
      <trkpt lat="45.8748" lon="5.3453">
        <ele>206</ele>
        <time>2022-09-24T14:27:04Z</time>
      </trkpt>
      <trkpt lat="45.87485" lon="5.34533">
        <ele>205.9</ele>
        <time>2022-09-24T14:27:05Z</time>
      </trkpt>
      <trkpt lat="45.8749" lon="5.34536">
        <ele>205.9</ele>
        <time>2022-09-24T14:27:06Z</time>
      </trkpt>
      <trkpt lat="45.87494" lon="5.34539">
        <ele>205.9</ele>
        <time>2022-09-24T14:27:07Z</time>
      </trkpt>
      <trkpt lat="45.87498" lon="5.34543">
        <ele>205.9</ele>
        <time>2022-09-24T14:27:08Z</time>
      </trkpt>
      <trkpt lat="45.87503" lon="5.34546">
        <ele>205.9</ele>
        <time>2022-09-24T14:27:09Z</time>
      </trkpt>
      <trkpt lat="45.87507" lon="5.34549">
        <ele>205.9</ele>
        <time>2022-09-24T14:27:10Z</time>
      </trkpt>
      <trkpt lat="45.87512" lon="5.34552">
        <ele>205.9</ele>
        <time>2022-09-24T14:27:11Z</time>
      </trkpt>
      <trkpt lat="45.87516" lon="5.34555">
        <ele>205.9</ele>
        <time>2022-09-24T14:27:12Z</time>
      </trkpt>
      <trkpt lat="45.8752" lon="5.34558">
        <ele>205.9</ele>
        <time>2022-09-24T14:27:13Z</time>
      </trkpt>
      <trkpt lat="45.87524" lon="5.34562">
        <ele>205.8</ele>
        <time>2022-09-24T14:27:14Z</time>
      </trkpt>
      <trkpt lat="45.87529" lon="5.34565">
        <ele>205.8</ele>
        <time>2022-09-24T14:27:15Z</time>
      </trkpt>
      <trkpt lat="45.87534" lon="5.34568">
        <ele>205.8</ele>
        <time>2022-09-24T14:27:16Z</time>
      </trkpt>
      <trkpt lat="45.87538" lon="5.34571">
        <ele>205.8</ele>
        <time>2022-09-24T14:27:17Z</time>
      </trkpt>
      <trkpt lat="45.87543" lon="5.34574">
        <ele>205.8</ele>
        <time>2022-09-24T14:27:18Z</time>
      </trkpt>
      <trkpt lat="45.87547" lon="5.34578">
        <ele>205.7</ele>
        <time>2022-09-24T14:27:19Z</time>
      </trkpt>
      <trkpt lat="45.87551" lon="5.34581">
        <ele>205.7</ele>
        <time>2022-09-24T14:27:20Z</time>
      </trkpt>
      <trkpt lat="45.87556" lon="5.34584">
        <ele>205.7</ele>
        <time>2022-09-24T14:27:21Z</time>
      </trkpt>
      <trkpt lat="45.8756" lon="5.34588">
        <ele>205.7</ele>
        <time>2022-09-24T14:27:22Z</time>
      </trkpt>
      <trkpt lat="45.87565" lon="5.34591">
        <ele>205.6</ele>
        <time>2022-09-24T14:27:23Z</time>
      </trkpt>
      <trkpt lat="45.8757" lon="5.34594">
        <ele>205.6</ele>
        <time>2022-09-24T14:27:24Z</time>
      </trkpt>
      <trkpt lat="45.87574" lon="5.34597">
        <ele>205.6</ele>
        <time>2022-09-24T14:27:25Z</time>
      </trkpt>
      <trkpt lat="45.87579" lon="5.34601">
        <ele>205.5</ele>
        <time>2022-09-24T14:27:26Z</time>
      </trkpt>
      <trkpt lat="45.87583" lon="5.34604">
        <ele>205.5</ele>
        <time>2022-09-24T14:27:27Z</time>
      </trkpt>
      <trkpt lat="45.87587" lon="5.34607">
        <ele>205.4</ele>
        <time>2022-09-24T14:27:28Z</time>
      </trkpt>
      <trkpt lat="45.87592" lon="5.34611">
        <ele>205.4</ele>
        <time>2022-09-24T14:27:29Z</time>
      </trkpt>
      <trkpt lat="45.87597" lon="5.34614">
        <ele>205.3</ele>
        <time>2022-09-24T14:27:30Z</time>
      </trkpt>
      <trkpt lat="45.87601" lon="5.34617">
        <ele>205.3</ele>
        <time>2022-09-24T14:27:31Z</time>
      </trkpt>
      <trkpt lat="45.87605" lon="5.3462">
        <ele>205.2</ele>
        <time>2022-09-24T14:27:32Z</time>
      </trkpt>
      <trkpt lat="45.87609" lon="5.34623">
        <ele>205.2</ele>
        <time>2022-09-24T14:27:33Z</time>
      </trkpt>
      <trkpt lat="45.87613" lon="5.34625">
        <ele>205.1</ele>
        <time>2022-09-24T14:27:34Z</time>
      </trkpt>
      <trkpt lat="45.87617" lon="5.34628">
        <ele>205</ele>
        <time>2022-09-24T14:27:35Z</time>
      </trkpt>
      <trkpt lat="45.87621" lon="5.3463">
        <ele>205</ele>
        <time>2022-09-24T14:27:36Z</time>
      </trkpt>
      <trkpt lat="45.87625" lon="5.34631">
        <ele>204.9</ele>
        <time>2022-09-24T14:27:37Z</time>
      </trkpt>
      <trkpt lat="45.87629" lon="5.34634">
        <ele>204.8</ele>
        <time>2022-09-24T14:27:38Z</time>
      </trkpt>
      <trkpt lat="45.87632" lon="5.34636">
        <ele>204.7</ele>
        <time>2022-09-24T14:27:39Z</time>
      </trkpt>
      <trkpt lat="45.87635" lon="5.34639">
        <ele>204.6</ele>
        <time>2022-09-24T14:27:40Z</time>
      </trkpt>
      <trkpt lat="45.87639" lon="5.34642">
        <ele>204.5</ele>
        <time>2022-09-24T14:27:41Z</time>
      </trkpt>
      <trkpt lat="45.87644" lon="5.34645">
        <ele>204.4</ele>
        <time>2022-09-24T14:27:42Z</time>
      </trkpt>
      <trkpt lat="45.87648" lon="5.34649">
        <ele>204.3</ele>
        <time>2022-09-24T14:27:43Z</time>
      </trkpt>
      <trkpt lat="45.87652" lon="5.34653">
        <ele>204.2</ele>
        <time>2022-09-24T14:27:44Z</time>
      </trkpt>
      <trkpt lat="45.87657" lon="5.34656">
        <ele>204.1</ele>
        <time>2022-09-24T14:27:45Z</time>
      </trkpt>
      <trkpt lat="45.87662" lon="5.3466">
        <ele>204</ele>
        <time>2022-09-24T14:27:46Z</time>
      </trkpt>
      <trkpt lat="45.87667" lon="5.34664">
        <ele>203.8</ele>
        <time>2022-09-24T14:27:47Z</time>
      </trkpt>
      <trkpt lat="45.87673" lon="5.34668">
        <ele>203.7</ele>
        <time>2022-09-24T14:27:48Z</time>
      </trkpt>
      <trkpt lat="45.87678" lon="5.34672">
        <ele>203.6</ele>
        <time>2022-09-24T14:27:49Z</time>
      </trkpt>
      <trkpt lat="45.87684" lon="5.34676">
        <ele>203.4</ele>
        <time>2022-09-24T14:27:50Z</time>
      </trkpt>
      <trkpt lat="45.87689" lon="5.3468">
        <ele>203.3</ele>
        <time>2022-09-24T14:27:51Z</time>
      </trkpt>
      <trkpt lat="45.87695" lon="5.34684">
        <ele>203.1</ele>
        <time>2022-09-24T14:27:52Z</time>
      </trkpt>
      <trkpt lat="45.87701" lon="5.34689">
        <ele>203</ele>
        <time>2022-09-24T14:27:53Z</time>
      </trkpt>
      <trkpt lat="45.87707" lon="5.34693">
        <ele>202.8</ele>
        <time>2022-09-24T14:27:54Z</time>
      </trkpt>
      <trkpt lat="45.87714" lon="5.34697">
        <ele>202.7</ele>
        <time>2022-09-24T14:27:55Z</time>
      </trkpt>
      <trkpt lat="45.8772" lon="5.34701">
        <ele>202.5</ele>
        <time>2022-09-24T14:27:56Z</time>
      </trkpt>
      <trkpt lat="45.87726" lon="5.34705">
        <ele>202.4</ele>
        <time>2022-09-24T14:27:57Z</time>
      </trkpt>
      <trkpt lat="45.87732" lon="5.34709">
        <ele>202.3</ele>
        <time>2022-09-24T14:27:58Z</time>
      </trkpt>
      <trkpt lat="45.87739" lon="5.34713">
        <ele>202.2</ele>
        <time>2022-09-24T14:27:59Z</time>
      </trkpt>
      <trkpt lat="45.87745" lon="5.34717">
        <ele>202.1</ele>
        <time>2022-09-24T14:28:00Z</time>
      </trkpt>
      <trkpt lat="45.87752" lon="5.3472">
        <ele>201.9</ele>
        <time>2022-09-24T14:28:01Z</time>
      </trkpt>
      <trkpt lat="45.87758" lon="5.34724">
        <ele>201.8</ele>
        <time>2022-09-24T14:28:02Z</time>
      </trkpt>
      <trkpt lat="45.87765" lon="5.34727">
        <ele>201.7</ele>
        <time>2022-09-24T14:28:03Z</time>
      </trkpt>
      <trkpt lat="45.87772" lon="5.3473">
        <ele>201.6</ele>
        <time>2022-09-24T14:28:04Z</time>
      </trkpt>
      <trkpt lat="45.87779" lon="5.34733">
        <ele>201.5</ele>
        <time>2022-09-24T14:28:05Z</time>
      </trkpt>
      <trkpt lat="45.87786" lon="5.34736">
        <ele>201.4</ele>
        <time>2022-09-24T14:28:06Z</time>
      </trkpt>
      <trkpt lat="45.87793" lon="5.34738">
        <ele>201.3</ele>
        <time>2022-09-24T14:28:07Z</time>
      </trkpt>
      <trkpt lat="45.878" lon="5.3474">
        <ele>201.2</ele>
        <time>2022-09-24T14:28:08Z</time>
      </trkpt>
      <trkpt lat="45.87807" lon="5.34742">
        <ele>201.1</ele>
        <time>2022-09-24T14:28:09Z</time>
      </trkpt>
      <trkpt lat="45.87814" lon="5.34744">
        <ele>200.9</ele>
        <time>2022-09-24T14:28:10Z</time>
      </trkpt>
      <trkpt lat="45.87821" lon="5.34745">
        <ele>200.8</ele>
        <time>2022-09-24T14:28:11Z</time>
      </trkpt>
      <trkpt lat="45.87827" lon="5.34747">
        <ele>200.7</ele>
        <time>2022-09-24T14:28:12Z</time>
      </trkpt>
      <trkpt lat="45.87833" lon="5.34748">
        <ele>200.6</ele>
        <time>2022-09-24T14:28:13Z</time>
      </trkpt>
      <trkpt lat="45.87839" lon="5.34748">
        <ele>200.6</ele>
        <time>2022-09-24T14:28:14Z</time>
      </trkpt>
      <trkpt lat="45.87845" lon="5.34749">
        <ele>200.5</ele>
        <time>2022-09-24T14:28:15Z</time>
      </trkpt>
      <trkpt lat="45.87851" lon="5.3475">
        <ele>200.5</ele>
        <time>2022-09-24T14:28:16Z</time>
      </trkpt>
      <trkpt lat="45.87856" lon="5.34751">
        <ele>200.4</ele>
        <time>2022-09-24T14:28:17Z</time>
      </trkpt>
      <trkpt lat="45.87861" lon="5.34752">
        <ele>200.4</ele>
        <time>2022-09-24T14:28:18Z</time>
      </trkpt>
      <trkpt lat="45.87867" lon="5.34753">
        <ele>200.4</ele>
        <time>2022-09-24T14:28:19Z</time>
      </trkpt>
      <trkpt lat="45.87872" lon="5.34753">
        <ele>200.3</ele>
        <time>2022-09-24T14:28:20Z</time>
      </trkpt>
      <trkpt lat="45.87877" lon="5.34753">
        <ele>200.3</ele>
        <time>2022-09-24T14:28:21Z</time>
      </trkpt>
      <trkpt lat="45.87881" lon="5.34754">
        <ele>200.3</ele>
        <time>2022-09-24T14:28:22Z</time>
      </trkpt>
      <trkpt lat="45.87886" lon="5.34755">
        <ele>200.3</ele>
        <time>2022-09-24T14:28:23Z</time>
      </trkpt>
      <trkpt lat="45.8789" lon="5.34755">
        <ele>200.3</ele>
        <time>2022-09-24T14:28:24Z</time>
      </trkpt>
      <trkpt lat="45.87894" lon="5.34755">
        <ele>200.3</ele>
        <time>2022-09-24T14:28:25Z</time>
      </trkpt>
      <trkpt lat="45.87897" lon="5.34754">
        <ele>200.3</ele>
        <time>2022-09-24T14:28:26Z</time>
      </trkpt>
      <trkpt lat="45.87898" lon="5.34753">
        <ele>200.3</ele>
        <time>2022-09-24T14:28:27Z</time>
      </trkpt>
      <trkpt lat="45.87898" lon="5.34753">
        <ele>200.3</ele>
        <time>2022-09-24T14:28:28Z</time>
      </trkpt>
      <trkpt lat="45.87899" lon="5.34753">
        <ele>200.3</ele>
        <time>2022-09-24T14:28:29Z</time>
      </trkpt>
      <trkpt lat="45.879" lon="5.34754">
        <ele>200.3</ele>
        <time>2022-09-24T14:28:30Z</time>
      </trkpt>
      <trkpt lat="45.879" lon="5.34755">
        <ele>200.3</ele>
        <time>2022-09-24T14:28:31Z</time>
      </trkpt>
      <trkpt lat="45.879" lon="5.34756">
        <ele>200.3</ele>
        <time>2022-09-24T14:28:32Z</time>
      </trkpt>
      <trkpt lat="45.879" lon="5.34757">
        <ele>200.3</ele>
        <time>2022-09-24T14:28:33Z</time>
      </trkpt>
      <trkpt lat="45.879" lon="5.34758">
        <ele>200.3</ele>
        <time>2022-09-24T14:28:34Z</time>
      </trkpt>
      <trkpt lat="45.87899" lon="5.34759">
        <ele>200.3</ele>
        <time>2022-09-24T14:28:35Z</time>
      </trkpt>
      <trkpt lat="45.87899" lon="5.3476">
        <ele>200.4</ele>
        <time>2022-09-24T14:28:36Z</time>
      </trkpt>
      <trkpt lat="45.87899" lon="5.34761">
        <ele>200.4</ele>
        <time>2022-09-24T14:28:37Z</time>
      </trkpt>
      <trkpt lat="45.87899" lon="5.34762">
        <ele>200.5</ele>
        <time>2022-09-24T14:28:38Z</time>
      </trkpt>
      <trkpt lat="45.87899" lon="5.34763">
        <ele>200.5</ele>
        <time>2022-09-24T14:28:39Z</time>
      </trkpt>
      <trkpt lat="45.87899" lon="5.34764">
        <ele>200.6</ele>
        <time>2022-09-24T14:28:40Z</time>
      </trkpt>
      <trkpt lat="45.87899" lon="5.34765">
        <ele>200.6</ele>
        <time>2022-09-24T14:28:48Z</time>
      </trkpt>
      <trkpt lat="45.87899" lon="5.34766">
        <ele>200.7</ele>
        <time>2022-09-24T14:28:49Z</time>
      </trkpt>
      <trkpt lat="45.87898" lon="5.34769">
        <ele>200.8</ele>
        <time>2022-09-24T14:28:50Z</time>
      </trkpt>
      <trkpt lat="45.87897" lon="5.3477">
        <ele>200.9</ele>
        <time>2022-09-24T14:28:51Z</time>
      </trkpt>
      <trkpt lat="45.87894" lon="5.34771">
        <ele>201.2</ele>
        <time>2022-09-24T14:28:52Z</time>
      </trkpt>
      <trkpt lat="45.87893" lon="5.34771">
        <ele>201.2</ele>
        <time>2022-09-24T14:28:53Z</time>
      </trkpt>
      <trkpt lat="45.87892" lon="5.34772">
        <ele>201.4</ele>
        <time>2022-09-24T14:28:54Z</time>
      </trkpt>
      <trkpt lat="45.87892" lon="5.34774">
        <ele>201.4</ele>
        <time>2022-09-24T14:28:55Z</time>
      </trkpt>
      <trkpt lat="45.87892" lon="5.34776">
        <ele>201.5</ele>
        <time>2022-09-24T14:28:56Z</time>
      </trkpt>
      <trkpt lat="45.87892" lon="5.3478">
        <ele>201.4</ele>
        <time>2022-09-24T14:28:57Z</time>
      </trkpt>
      <trkpt lat="45.87893" lon="5.34782">
        <ele>201.3</ele>
        <time>2022-09-24T14:28:58Z</time>
      </trkpt>
      <trkpt lat="45.87895" lon="5.34785">
        <ele>201.3</ele>
        <time>2022-09-24T14:28:59Z</time>
      </trkpt>
      <trkpt lat="45.87899" lon="5.34786">
        <ele>201.2</ele>
        <time>2022-09-24T14:29:00Z</time>
      </trkpt>
      <trkpt lat="45.87902" lon="5.34785">
        <ele>201.1</ele>
        <time>2022-09-24T14:29:01Z</time>
      </trkpt>
      <trkpt lat="45.87906" lon="5.34785">
        <ele>201</ele>
        <time>2022-09-24T14:29:02Z</time>
      </trkpt>
      <trkpt lat="45.8791" lon="5.34784">
        <ele>201</ele>
        <time>2022-09-24T14:29:03Z</time>
      </trkpt>
      <trkpt lat="45.87914" lon="5.34784">
        <ele>200.9</ele>
        <time>2022-09-24T14:29:04Z</time>
      </trkpt>
      <trkpt lat="45.87918" lon="5.34783">
        <ele>200.8</ele>
        <time>2022-09-24T14:29:05Z</time>
      </trkpt>
      <trkpt lat="45.87922" lon="5.34781">
        <ele>200.7</ele>
        <time>2022-09-24T14:29:06Z</time>
      </trkpt>
      <trkpt lat="45.87925" lon="5.34777">
        <ele>200.6</ele>
        <time>2022-09-24T14:29:07Z</time>
      </trkpt>
      <trkpt lat="45.87929" lon="5.34774">
        <ele>200.5</ele>
        <time>2022-09-24T14:29:08Z</time>
      </trkpt>
      <trkpt lat="45.87934" lon="5.34772">
        <ele>200.3</ele>
        <time>2022-09-24T14:29:09Z</time>
      </trkpt>
      <trkpt lat="45.87938" lon="5.34772">
        <ele>200.2</ele>
        <time>2022-09-24T14:29:10Z</time>
      </trkpt>
      <trkpt lat="45.87943" lon="5.34772">
        <ele>200.1</ele>
        <time>2022-09-24T14:29:11Z</time>
      </trkpt>
      <trkpt lat="45.87948" lon="5.34771">
        <ele>200</ele>
        <time>2022-09-24T14:29:12Z</time>
      </trkpt>
      <trkpt lat="45.87953" lon="5.34771">
        <ele>200</ele>
        <time>2022-09-24T14:29:13Z</time>
      </trkpt>
      <trkpt lat="45.87959" lon="5.34771">
        <ele>199.9</ele>
        <time>2022-09-24T14:29:14Z</time>
      </trkpt>
      <trkpt lat="45.87965" lon="5.34771">
        <ele>199.9</ele>
        <time>2022-09-24T14:29:15Z</time>
      </trkpt>
      <trkpt lat="45.8797" lon="5.34771">
        <ele>199.9</ele>
        <time>2022-09-24T14:29:16Z</time>
      </trkpt>
      <trkpt lat="45.87976" lon="5.34771">
        <ele>199.8</ele>
        <time>2022-09-24T14:29:17Z</time>
      </trkpt>
      <trkpt lat="45.87982" lon="5.34771">
        <ele>199.8</ele>
        <time>2022-09-24T14:29:18Z</time>
      </trkpt>
      <trkpt lat="45.87987" lon="5.34771">
        <ele>199.8</ele>
        <time>2022-09-24T14:29:19Z</time>
      </trkpt>
      <trkpt lat="45.87993" lon="5.34771">
        <ele>199.8</ele>
        <time>2022-09-24T14:29:20Z</time>
      </trkpt>
      <trkpt lat="45.87999" lon="5.34771">
        <ele>199.9</ele>
        <time>2022-09-24T14:29:21Z</time>
      </trkpt>
      <trkpt lat="45.88004" lon="5.34771">
        <ele>200</ele>
        <time>2022-09-24T14:29:22Z</time>
      </trkpt>
      <trkpt lat="45.8801" lon="5.34771">
        <ele>200</ele>
        <time>2022-09-24T14:29:23Z</time>
      </trkpt>
      <trkpt lat="45.88016" lon="5.3477">
        <ele>200.2</ele>
        <time>2022-09-24T14:29:24Z</time>
      </trkpt>
      <trkpt lat="45.8802" lon="5.3477">
        <ele>200.3</ele>
        <time>2022-09-24T14:29:25Z</time>
      </trkpt>
      <trkpt lat="45.88025" lon="5.3477">
        <ele>200.4</ele>
        <time>2022-09-24T14:29:26Z</time>
      </trkpt>
      <trkpt lat="45.8803" lon="5.3477">
        <ele>200.5</ele>
        <time>2022-09-24T14:29:27Z</time>
      </trkpt>
      <trkpt lat="45.88035" lon="5.3477">
        <ele>200.6</ele>
        <time>2022-09-24T14:29:28Z</time>
      </trkpt>
      <trkpt lat="45.88039" lon="5.34771">
        <ele>200.7</ele>
        <time>2022-09-24T14:29:29Z</time>
      </trkpt>
      <trkpt lat="45.88044" lon="5.34769">
        <ele>200.9</ele>
        <time>2022-09-24T14:29:30Z</time>
      </trkpt>
      <trkpt lat="45.88049" lon="5.34769">
        <ele>201</ele>
        <time>2022-09-24T14:29:31Z</time>
      </trkpt>
      <trkpt lat="45.88053" lon="5.3477">
        <ele>201.1</ele>
        <time>2022-09-24T14:29:32Z</time>
      </trkpt>
      <trkpt lat="45.88057" lon="5.34769">
        <ele>201.3</ele>
        <time>2022-09-24T14:29:33Z</time>
      </trkpt>
      <trkpt lat="45.88062" lon="5.34769">
        <ele>201.4</ele>
        <time>2022-09-24T14:29:34Z</time>
      </trkpt>
      <trkpt lat="45.88066" lon="5.34769">
        <ele>201.6</ele>
        <time>2022-09-24T14:29:35Z</time>
      </trkpt>
      <trkpt lat="45.8807" lon="5.34768">
        <ele>201.7</ele>
        <time>2022-09-24T14:29:36Z</time>
      </trkpt>
      <trkpt lat="45.88074" lon="5.34768">
        <ele>201.9</ele>
        <time>2022-09-24T14:29:37Z</time>
      </trkpt>
      <trkpt lat="45.88078" lon="5.34768">
        <ele>202</ele>
        <time>2022-09-24T14:29:38Z</time>
      </trkpt>
      <trkpt lat="45.88083" lon="5.34768">
        <ele>202.2</ele>
        <time>2022-09-24T14:29:39Z</time>
      </trkpt>
      <trkpt lat="45.88088" lon="5.34768">
        <ele>202.4</ele>
        <time>2022-09-24T14:29:40Z</time>
      </trkpt>
      <trkpt lat="45.88091" lon="5.34767">
        <ele>202.5</ele>
        <time>2022-09-24T14:29:41Z</time>
      </trkpt>
      <trkpt lat="45.88096" lon="5.34768">
        <ele>202.7</ele>
        <time>2022-09-24T14:29:42Z</time>
      </trkpt>
      <trkpt lat="45.881" lon="5.34768">
        <ele>202.8</ele>
        <time>2022-09-24T14:29:43Z</time>
      </trkpt>
      <trkpt lat="45.88105" lon="5.34769">
        <ele>203</ele>
        <time>2022-09-24T14:29:44Z</time>
      </trkpt>
      <trkpt lat="45.88109" lon="5.34768">
        <ele>203.1</ele>
        <time>2022-09-24T14:29:45Z</time>
      </trkpt>
      <trkpt lat="45.88113" lon="5.34768">
        <ele>203.3</ele>
        <time>2022-09-24T14:29:46Z</time>
      </trkpt>
      <trkpt lat="45.88118" lon="5.34768">
        <ele>203.4</ele>
        <time>2022-09-24T14:29:47Z</time>
      </trkpt>
      <trkpt lat="45.88122" lon="5.34767">
        <ele>203.6</ele>
        <time>2022-09-24T14:29:48Z</time>
      </trkpt>
      <trkpt lat="45.88126" lon="5.34767">
        <ele>203.7</ele>
        <time>2022-09-24T14:29:49Z</time>
      </trkpt>
      <trkpt lat="45.88129" lon="5.34766">
        <ele>203.9</ele>
        <time>2022-09-24T14:29:50Z</time>
      </trkpt>
      <trkpt lat="45.88133" lon="5.34767">
        <ele>204</ele>
        <time>2022-09-24T14:29:51Z</time>
      </trkpt>
      <trkpt lat="45.88137" lon="5.34767">
        <ele>204.2</ele>
        <time>2022-09-24T14:29:52Z</time>
      </trkpt>
      <trkpt lat="45.88141" lon="5.34766">
        <ele>204.3</ele>
        <time>2022-09-24T14:29:53Z</time>
      </trkpt>
      <trkpt lat="45.88145" lon="5.34766">
        <ele>204.5</ele>
        <time>2022-09-24T14:29:54Z</time>
      </trkpt>
      <trkpt lat="45.88147" lon="5.34767">
        <ele>204.6</ele>
        <time>2022-09-24T14:29:55Z</time>
      </trkpt>
      <trkpt lat="45.88152" lon="5.34766">
        <ele>204.8</ele>
        <time>2022-09-24T14:29:56Z</time>
      </trkpt>
      <trkpt lat="45.88156" lon="5.34766">
        <ele>204.9</ele>
        <time>2022-09-24T14:29:57Z</time>
      </trkpt>
      <trkpt lat="45.8816" lon="5.34766">
        <ele>205.1</ele>
        <time>2022-09-24T14:29:58Z</time>
      </trkpt>
      <trkpt lat="45.88163" lon="5.34765">
        <ele>205.2</ele>
        <time>2022-09-24T14:29:59Z</time>
      </trkpt>
      <trkpt lat="45.88166" lon="5.34765">
        <ele>205.4</ele>
        <time>2022-09-24T14:30:00Z</time>
      </trkpt>
      <trkpt lat="45.8817" lon="5.34766">
        <ele>205.5</ele>
        <time>2022-09-24T14:30:01Z</time>
      </trkpt>
      <trkpt lat="45.88173" lon="5.34765">
        <ele>205.7</ele>
        <time>2022-09-24T14:30:02Z</time>
      </trkpt>
      <trkpt lat="45.88175" lon="5.34764">
        <ele>205.8</ele>
        <time>2022-09-24T14:30:03Z</time>
      </trkpt>
      <trkpt lat="45.88176" lon="5.34763">
        <ele>205.8</ele>
        <time>2022-09-24T14:30:04Z</time>
      </trkpt>
      <trkpt lat="45.88176" lon="5.34763">
        <ele>205.8</ele>
        <time>2022-09-24T14:30:05Z</time>
      </trkpt>
      <trkpt lat="45.88176" lon="5.34763">
        <ele>205.9</ele>
        <time>2022-09-24T14:30:06Z</time>
      </trkpt>
      <trkpt lat="45.88177" lon="5.34764">
        <ele>205.9</ele>
        <time>2022-09-24T14:30:07Z</time>
      </trkpt>
      <trkpt lat="45.88177" lon="5.34764">
        <ele>205.9</ele>
        <time>2022-09-24T14:30:08Z</time>
      </trkpt>
      <trkpt lat="45.88178" lon="5.34764">
        <ele>205.9</ele>
        <time>2022-09-24T14:30:09Z</time>
      </trkpt>
      <trkpt lat="45.88178" lon="5.34764">
        <ele>205.9</ele>
        <time>2022-09-24T14:30:10Z</time>
      </trkpt>
      <trkpt lat="45.88179" lon="5.34764">
        <ele>206</ele>
        <time>2022-09-24T14:30:11Z</time>
      </trkpt>
      <trkpt lat="45.88181" lon="5.34764">
        <ele>206</ele>
        <time>2022-09-24T14:30:12Z</time>
      </trkpt>
      <trkpt lat="45.88182" lon="5.34764">
        <ele>206.1</ele>
        <time>2022-09-24T14:30:13Z</time>
      </trkpt>
      <trkpt lat="45.88187" lon="5.34763">
        <ele>206.3</ele>
        <time>2022-09-24T14:30:14Z</time>
      </trkpt>
      <trkpt lat="45.88191" lon="5.34763">
        <ele>206.4</ele>
        <time>2022-09-24T14:30:32Z</time>
      </trkpt>
      <trkpt lat="45.88196" lon="5.34762">
        <ele>206.5</ele>
        <time>2022-09-24T14:30:33Z</time>
      </trkpt>
      <trkpt lat="45.88197" lon="5.34762">
        <ele>206.5</ele>
        <time>2022-09-24T14:30:34Z</time>
      </trkpt>
      <trkpt lat="45.88198" lon="5.34762">
        <ele>206.6</ele>
        <time>2022-09-24T14:30:35Z</time>
      </trkpt>
      <trkpt lat="45.88199" lon="5.34762">
        <ele>206.6</ele>
        <time>2022-09-24T14:30:36Z</time>
      </trkpt>
      <trkpt lat="45.882" lon="5.34762">
        <ele>206.6</ele>
        <time>2022-09-24T14:30:37Z</time>
      </trkpt>
      <trkpt lat="45.88201" lon="5.34763">
        <ele>206.6</ele>
        <time>2022-09-24T14:30:38Z</time>
      </trkpt>
      <trkpt lat="45.88202" lon="5.34762">
        <ele>206.6</ele>
        <time>2022-09-24T14:30:39Z</time>
      </trkpt>
      <trkpt lat="45.88204" lon="5.34763">
        <ele>206.6</ele>
        <time>2022-09-24T14:30:40Z</time>
      </trkpt>
      <trkpt lat="45.88205" lon="5.34763">
        <ele>206.6</ele>
        <time>2022-09-24T14:30:41Z</time>
      </trkpt>
      <trkpt lat="45.88206" lon="5.34763">
        <ele>206.6</ele>
        <time>2022-09-24T14:30:42Z</time>
      </trkpt>
      <trkpt lat="45.88208" lon="5.34763">
        <ele>206.7</ele>
        <time>2022-09-24T14:30:43Z</time>
      </trkpt>
      <trkpt lat="45.88208" lon="5.34763">
        <ele>206.7</ele>
        <time>2022-09-24T14:30:44Z</time>
      </trkpt>
      <trkpt lat="45.8821" lon="5.34763">
        <ele>206.7</ele>
        <time>2022-09-24T14:30:45Z</time>
      </trkpt>
      <trkpt lat="45.88212" lon="5.34763">
        <ele>206.7</ele>
        <time>2022-09-24T14:30:46Z</time>
      </trkpt>
      <trkpt lat="45.88213" lon="5.34763">
        <ele>206.7</ele>
        <time>2022-09-24T14:30:47Z</time>
      </trkpt>
      <trkpt lat="45.88214" lon="5.34763">
        <ele>206.7</ele>
        <time>2022-09-24T14:30:48Z</time>
      </trkpt>
      <trkpt lat="45.88215" lon="5.34763">
        <ele>206.7</ele>
        <time>2022-09-24T14:30:49Z</time>
      </trkpt>
      <trkpt lat="45.88217" lon="5.34763">
        <ele>206.8</ele>
        <time>2022-09-24T14:30:50Z</time>
      </trkpt>
      <trkpt lat="45.88219" lon="5.34763">
        <ele>206.8</ele>
        <time>2022-09-24T14:30:51Z</time>
      </trkpt>
      <trkpt lat="45.8822" lon="5.34763">
        <ele>206.8</ele>
        <time>2022-09-24T14:30:52Z</time>
      </trkpt>
      <trkpt lat="45.88222" lon="5.34763">
        <ele>206.8</ele>
        <time>2022-09-24T14:30:53Z</time>
      </trkpt>
      <trkpt lat="45.88223" lon="5.34763">
        <ele>206.8</ele>
        <time>2022-09-24T14:30:54Z</time>
      </trkpt>
      <trkpt lat="45.88224" lon="5.34763">
        <ele>206.8</ele>
        <time>2022-09-24T14:30:55Z</time>
      </trkpt>
      <trkpt lat="45.88226" lon="5.34763">
        <ele>206.8</ele>
        <time>2022-09-24T14:30:56Z</time>
      </trkpt>
      <trkpt lat="45.88227" lon="5.34763">
        <ele>206.9</ele>
        <time>2022-09-24T14:30:57Z</time>
      </trkpt>
      <trkpt lat="45.88228" lon="5.34763">
        <ele>206.9</ele>
        <time>2022-09-24T14:30:58Z</time>
      </trkpt>
      <trkpt lat="45.88229" lon="5.34763">
        <ele>206.9</ele>
        <time>2022-09-24T14:30:59Z</time>
      </trkpt>
      <trkpt lat="45.8823" lon="5.34763">
        <ele>206.9</ele>
        <time>2022-09-24T14:31:00Z</time>
      </trkpt>
      <trkpt lat="45.88232" lon="5.34763">
        <ele>206.9</ele>
        <time>2022-09-24T14:31:01Z</time>
      </trkpt>
      <trkpt lat="45.88232" lon="5.34763">
        <ele>206.9</ele>
        <time>2022-09-24T14:31:02Z</time>
      </trkpt>
      <trkpt lat="45.88233" lon="5.34763">
        <ele>206.9</ele>
        <time>2022-09-24T14:31:03Z</time>
      </trkpt>
      <trkpt lat="45.88233" lon="5.34763">
        <ele>206.9</ele>
        <time>2022-09-24T14:31:04Z</time>
      </trkpt>
      <trkpt lat="45.88233" lon="5.34763">
        <ele>206.9</ele>
        <time>2022-09-24T14:31:05Z</time>
      </trkpt>
      <trkpt lat="45.88234" lon="5.34763">
        <ele>206.9</ele>
        <time>2022-09-24T14:31:06Z</time>
      </trkpt>
      <trkpt lat="45.88234" lon="5.34763">
        <ele>206.9</ele>
        <time>2022-09-24T14:31:07Z</time>
      </trkpt>
      <trkpt lat="45.88235" lon="5.34763">
        <ele>206.9</ele>
        <time>2022-09-24T14:31:08Z</time>
      </trkpt>
      <trkpt lat="45.88235" lon="5.34763">
        <ele>206.9</ele>
        <time>2022-09-24T14:31:09Z</time>
      </trkpt>
      <trkpt lat="45.88236" lon="5.34763">
        <ele>206.9</ele>
        <time>2022-09-24T14:31:10Z</time>
      </trkpt>
      <trkpt lat="45.88236" lon="5.34763">
        <ele>206.9</ele>
        <time>2022-09-24T14:31:11Z</time>
      </trkpt>
      <trkpt lat="45.88237" lon="5.34763">
        <ele>206.9</ele>
        <time>2022-09-24T14:31:30Z</time>
      </trkpt>
      <trkpt lat="45.88237" lon="5.34763">
        <ele>206.9</ele>
        <time>2022-09-24T14:31:31Z</time>
      </trkpt>
      <trkpt lat="45.88237" lon="5.34763">
        <ele>206.9</ele>
        <time>2022-09-24T14:31:32Z</time>
      </trkpt>
      <trkpt lat="45.88239" lon="5.34762">
        <ele>206.9</ele>
        <time>2022-09-24T14:31:33Z</time>
      </trkpt>
      <trkpt lat="45.8824" lon="5.34763">
        <ele>206.9</ele>
        <time>2022-09-24T14:31:34Z</time>
      </trkpt>
      <trkpt lat="45.88242" lon="5.34763">
        <ele>206.9</ele>
        <time>2022-09-24T14:31:35Z</time>
      </trkpt>
      <trkpt lat="45.88244" lon="5.34762">
        <ele>206.9</ele>
        <time>2022-09-24T14:31:36Z</time>
      </trkpt>
      <trkpt lat="45.88245" lon="5.34763">
        <ele>206.9</ele>
        <time>2022-09-24T14:31:37Z</time>
      </trkpt>
      <trkpt lat="45.88246" lon="5.34763">
        <ele>206.9</ele>
        <time>2022-09-24T14:31:38Z</time>
      </trkpt>
      <trkpt lat="45.88247" lon="5.34762">
        <ele>206.9</ele>
        <time>2022-09-24T14:31:39Z</time>
      </trkpt>
      <trkpt lat="45.8825" lon="5.34762">
        <ele>206.9</ele>
        <time>2022-09-24T14:31:40Z</time>
      </trkpt>
      <trkpt lat="45.88251" lon="5.34762">
        <ele>206.9</ele>
        <time>2022-09-24T14:31:41Z</time>
      </trkpt>
      <trkpt lat="45.88253" lon="5.34762">
        <ele>206.9</ele>
        <time>2022-09-24T14:31:42Z</time>
      </trkpt>
      <trkpt lat="45.88254" lon="5.34763">
        <ele>206.9</ele>
        <time>2022-09-24T14:31:43Z</time>
      </trkpt>
      <trkpt lat="45.88256" lon="5.34762">
        <ele>206.9</ele>
        <time>2022-09-24T14:31:44Z</time>
      </trkpt>
      <trkpt lat="45.88257" lon="5.34762">
        <ele>206.9</ele>
        <time>2022-09-24T14:31:45Z</time>
      </trkpt>
      <trkpt lat="45.8826" lon="5.34762">
        <ele>206.9</ele>
        <time>2022-09-24T14:31:46Z</time>
      </trkpt>
      <trkpt lat="45.88262" lon="5.34762">
        <ele>206.9</ele>
        <time>2022-09-24T14:31:47Z</time>
      </trkpt>
      <trkpt lat="45.88262" lon="5.34762">
        <ele>206.9</ele>
        <time>2022-09-24T14:31:48Z</time>
      </trkpt>
      <trkpt lat="45.88263" lon="5.34762">
        <ele>206.9</ele>
        <time>2022-09-24T14:31:49Z</time>
      </trkpt>
      <trkpt lat="45.88265" lon="5.34762">
        <ele>206.9</ele>
        <time>2022-09-24T14:31:50Z</time>
      </trkpt>
      <trkpt lat="45.88266" lon="5.34762">
        <ele>206.9</ele>
        <time>2022-09-24T14:31:51Z</time>
      </trkpt>
      <trkpt lat="45.88268" lon="5.34762">
        <ele>206.9</ele>
        <time>2022-09-24T14:31:52Z</time>
      </trkpt>
      <trkpt lat="45.88269" lon="5.34762">
        <ele>206.9</ele>
        <time>2022-09-24T14:31:53Z</time>
      </trkpt>
      <trkpt lat="45.88271" lon="5.34762">
        <ele>206.9</ele>
        <time>2022-09-24T14:31:54Z</time>
      </trkpt>
      <trkpt lat="45.88272" lon="5.34762">
        <ele>206.9</ele>
        <time>2022-09-24T14:31:55Z</time>
      </trkpt>
      <trkpt lat="45.88274" lon="5.34762">
        <ele>206.9</ele>
        <time>2022-09-24T14:31:56Z</time>
      </trkpt>
      <trkpt lat="45.88275" lon="5.34762">
        <ele>206.9</ele>
        <time>2022-09-24T14:31:57Z</time>
      </trkpt>
      <trkpt lat="45.88277" lon="5.34762">
        <ele>206.9</ele>
        <time>2022-09-24T14:31:58Z</time>
      </trkpt>
      <trkpt lat="45.88278" lon="5.34762">
        <ele>206.9</ele>
        <time>2022-09-24T14:31:59Z</time>
      </trkpt>
      <trkpt lat="45.8828" lon="5.34762">
        <ele>206.9</ele>
        <time>2022-09-24T14:32:00Z</time>
      </trkpt>
      <trkpt lat="45.88281" lon="5.34762">
        <ele>206.9</ele>
        <time>2022-09-24T14:32:01Z</time>
      </trkpt>
      <trkpt lat="45.88283" lon="5.34762">
        <ele>206.9</ele>
        <time>2022-09-24T14:32:02Z</time>
      </trkpt>
      <trkpt lat="45.88284" lon="5.34762">
        <ele>206.9</ele>
        <time>2022-09-24T14:32:03Z</time>
      </trkpt>
      <trkpt lat="45.88286" lon="5.34762">
        <ele>206.9</ele>
        <time>2022-09-24T14:32:04Z</time>
      </trkpt>
      <trkpt lat="45.88288" lon="5.34762">
        <ele>206.9</ele>
        <time>2022-09-24T14:32:05Z</time>
      </trkpt>
      <trkpt lat="45.88289" lon="5.34762">
        <ele>206.9</ele>
        <time>2022-09-24T14:32:06Z</time>
      </trkpt>
      <trkpt lat="45.88291" lon="5.34762">
        <ele>206.9</ele>
        <time>2022-09-24T14:32:07Z</time>
      </trkpt>
      <trkpt lat="45.88292" lon="5.34762">
        <ele>206.9</ele>
        <time>2022-09-24T14:32:08Z</time>
      </trkpt>
      <trkpt lat="45.88294" lon="5.34761">
        <ele>206.9</ele>
        <time>2022-09-24T14:32:09Z</time>
      </trkpt>
      <trkpt lat="45.88295" lon="5.34761">
        <ele>206.9</ele>
        <time>2022-09-24T14:32:10Z</time>
      </trkpt>
      <trkpt lat="45.88296" lon="5.34762">
        <ele>206.9</ele>
        <time>2022-09-24T14:32:11Z</time>
      </trkpt>
      <trkpt lat="45.88297" lon="5.34762">
        <ele>206.8</ele>
        <time>2022-09-24T14:32:12Z</time>
      </trkpt>
      <trkpt lat="45.88299" lon="5.34762">
        <ele>206.8</ele>
        <time>2022-09-24T14:32:13Z</time>
      </trkpt>
      <trkpt lat="45.88301" lon="5.34762">
        <ele>206.8</ele>
        <time>2022-09-24T14:32:14Z</time>
      </trkpt>
      <trkpt lat="45.88302" lon="5.34762">
        <ele>206.8</ele>
        <time>2022-09-24T14:32:15Z</time>
      </trkpt>
      <trkpt lat="45.88303" lon="5.34761">
        <ele>206.8</ele>
        <time>2022-09-24T14:32:16Z</time>
      </trkpt>
      <trkpt lat="45.88305" lon="5.34761">
        <ele>206.8</ele>
        <time>2022-09-24T14:32:17Z</time>
      </trkpt>
      <trkpt lat="45.88306" lon="5.34761">
        <ele>206.7</ele>
        <time>2022-09-24T14:32:18Z</time>
      </trkpt>
      <trkpt lat="45.88308" lon="5.34761">
        <ele>206.7</ele>
        <time>2022-09-24T14:32:19Z</time>
      </trkpt>
      <trkpt lat="45.88309" lon="5.34761">
        <ele>206.7</ele>
        <time>2022-09-24T14:32:20Z</time>
      </trkpt>
      <trkpt lat="45.8831" lon="5.34761">
        <ele>206.7</ele>
        <time>2022-09-24T14:32:21Z</time>
      </trkpt>
      <trkpt lat="45.88312" lon="5.34761">
        <ele>206.7</ele>
        <time>2022-09-24T14:32:22Z</time>
      </trkpt>
      <trkpt lat="45.88313" lon="5.34761">
        <ele>206.7</ele>
        <time>2022-09-24T14:32:23Z</time>
      </trkpt>
      <trkpt lat="45.88315" lon="5.34761">
        <ele>206.6</ele>
        <time>2022-09-24T14:32:24Z</time>
      </trkpt>
      <trkpt lat="45.88317" lon="5.34761">
        <ele>206.6</ele>
        <time>2022-09-24T14:32:25Z</time>
      </trkpt>
      <trkpt lat="45.88318" lon="5.34761">
        <ele>206.6</ele>
        <time>2022-09-24T14:32:26Z</time>
      </trkpt>
      <trkpt lat="45.88318" lon="5.34761">
        <ele>206.6</ele>
        <time>2022-09-24T14:32:27Z</time>
      </trkpt>
      <trkpt lat="45.88319" lon="5.34761">
        <ele>206.6</ele>
        <time>2022-09-24T14:32:28Z</time>
      </trkpt>
      <trkpt lat="45.8832" lon="5.34761">
        <ele>206.6</ele>
        <time>2022-09-24T14:32:29Z</time>
      </trkpt>
      <trkpt lat="45.88321" lon="5.3476">
        <ele>206.6</ele>
        <time>2022-09-24T14:32:30Z</time>
      </trkpt>
      <trkpt lat="45.88322" lon="5.34761">
        <ele>206.5</ele>
        <time>2022-09-24T14:32:31Z</time>
      </trkpt>
      <trkpt lat="45.88323" lon="5.3476">
        <ele>206.5</ele>
        <time>2022-09-24T14:32:32Z</time>
      </trkpt>
      <trkpt lat="45.88323" lon="5.3476">
        <ele>206.5</ele>
        <time>2022-09-24T14:32:33Z</time>
      </trkpt>
      <trkpt lat="45.88324" lon="5.3476">
        <ele>206.5</ele>
        <time>2022-09-24T14:32:34Z</time>
      </trkpt>
      <trkpt lat="45.88325" lon="5.34761">
        <ele>206.5</ele>
        <time>2022-09-24T14:32:35Z</time>
      </trkpt>
      <trkpt lat="45.88325" lon="5.34761">
        <ele>206.5</ele>
        <time>2022-09-24T14:32:36Z</time>
      </trkpt>
      <trkpt lat="45.88326" lon="5.34761">
        <ele>206.5</ele>
        <time>2022-09-24T14:32:37Z</time>
      </trkpt>
      <trkpt lat="45.88327" lon="5.34761">
        <ele>206.5</ele>
        <time>2022-09-24T14:32:38Z</time>
      </trkpt>
      <trkpt lat="45.88329" lon="5.34761">
        <ele>206.4</ele>
        <time>2022-09-24T14:32:39Z</time>
      </trkpt>
      <trkpt lat="45.8833" lon="5.3476">
        <ele>206.4</ele>
        <time>2022-09-24T14:32:40Z</time>
      </trkpt>
      <trkpt lat="45.88331" lon="5.3476">
        <ele>206.4</ele>
        <time>2022-09-24T14:32:41Z</time>
      </trkpt>
      <trkpt lat="45.88333" lon="5.3476">
        <ele>206.4</ele>
        <time>2022-09-24T14:32:42Z</time>
      </trkpt>
      <trkpt lat="45.88333" lon="5.3476">
        <ele>206.4</ele>
        <time>2022-09-24T14:32:43Z</time>
      </trkpt>
      <trkpt lat="45.88334" lon="5.34761">
        <ele>206.3</ele>
        <time>2022-09-24T14:32:44Z</time>
      </trkpt>
      <trkpt lat="45.88335" lon="5.3476">
        <ele>206.3</ele>
        <time>2022-09-24T14:32:45Z</time>
      </trkpt>
      <trkpt lat="45.88338" lon="5.3476">
        <ele>206.3</ele>
        <time>2022-09-24T14:32:46Z</time>
      </trkpt>
      <trkpt lat="45.88339" lon="5.3476">
        <ele>206.3</ele>
        <time>2022-09-24T14:32:47Z</time>
      </trkpt>
      <trkpt lat="45.88339" lon="5.3476">
        <ele>206.2</ele>
        <time>2022-09-24T14:32:48Z</time>
      </trkpt>
      <trkpt lat="45.8834" lon="5.3476">
        <ele>206.2</ele>
        <time>2022-09-24T14:32:49Z</time>
      </trkpt>
      <trkpt lat="45.88341" lon="5.3476">
        <ele>206.2</ele>
        <time>2022-09-24T14:32:50Z</time>
      </trkpt>
      <trkpt lat="45.88343" lon="5.3476">
        <ele>206.2</ele>
        <time>2022-09-24T14:32:51Z</time>
      </trkpt>
      <trkpt lat="45.88344" lon="5.3476">
        <ele>206.2</ele>
        <time>2022-09-24T14:32:52Z</time>
      </trkpt>
      <trkpt lat="45.88345" lon="5.34759">
        <ele>206.1</ele>
        <time>2022-09-24T14:32:53Z</time>
      </trkpt>
      <trkpt lat="45.88346" lon="5.3476">
        <ele>206.1</ele>
        <time>2022-09-24T14:32:54Z</time>
      </trkpt>
      <trkpt lat="45.88347" lon="5.3476">
        <ele>206.1</ele>
        <time>2022-09-24T14:32:55Z</time>
      </trkpt>
      <trkpt lat="45.88349" lon="5.3476">
        <ele>206</ele>
        <time>2022-09-24T14:32:56Z</time>
      </trkpt>
      <trkpt lat="45.8835" lon="5.34759">
        <ele>206</ele>
        <time>2022-09-24T14:32:57Z</time>
      </trkpt>
      <trkpt lat="45.88351" lon="5.34759">
        <ele>206</ele>
        <time>2022-09-24T14:32:58Z</time>
      </trkpt>
      <trkpt lat="45.88352" lon="5.3476">
        <ele>206</ele>
        <time>2022-09-24T14:32:59Z</time>
      </trkpt>
      <trkpt lat="45.88354" lon="5.34759">
        <ele>205.9</ele>
        <time>2022-09-24T14:33:00Z</time>
      </trkpt>
      <trkpt lat="45.88354" lon="5.34759">
        <ele>205.9</ele>
        <time>2022-09-24T14:33:01Z</time>
      </trkpt>
      <trkpt lat="45.88355" lon="5.34759">
        <ele>205.9</ele>
        <time>2022-09-24T14:33:02Z</time>
      </trkpt>
      <trkpt lat="45.88356" lon="5.34759">
        <ele>205.9</ele>
        <time>2022-09-24T14:33:03Z</time>
      </trkpt>
      <trkpt lat="45.88357" lon="5.34759">
        <ele>205.9</ele>
        <time>2022-09-24T14:33:04Z</time>
      </trkpt>
      <trkpt lat="45.88357" lon="5.34759">
        <ele>205.9</ele>
        <time>2022-09-24T14:33:05Z</time>
      </trkpt>
      <trkpt lat="45.88357" lon="5.34759">
        <ele>205.8</ele>
        <time>2022-09-24T14:33:06Z</time>
      </trkpt>
      <trkpt lat="45.88357" lon="5.34759">
        <ele>205.8</ele>
        <time>2022-09-24T14:33:07Z</time>
      </trkpt>
      <trkpt lat="45.88357" lon="5.34759">
        <ele>205.8</ele>
        <time>2022-09-24T14:33:08Z</time>
      </trkpt>
      <trkpt lat="45.88357" lon="5.3476">
        <ele>205.8</ele>
        <time>2022-09-24T14:33:09Z</time>
      </trkpt>
      <trkpt lat="45.88357" lon="5.34759">
        <ele>205.8</ele>
        <time>2022-09-24T14:33:10Z</time>
      </trkpt>
      <trkpt lat="45.88358" lon="5.34759">
        <ele>205.8</ele>
        <time>2022-09-24T14:33:11Z</time>
      </trkpt>
      <trkpt lat="45.88361" lon="5.34758">
        <ele>205.7</ele>
        <time>2022-09-24T14:33:12Z</time>
      </trkpt>
      <trkpt lat="45.88362" lon="5.34758">
        <ele>205.7</ele>
        <time>2022-09-24T14:33:13Z</time>
      </trkpt>
      <trkpt lat="45.88366" lon="5.34758">
        <ele>205.6</ele>
        <time>2022-09-24T14:33:14Z</time>
      </trkpt>
      <trkpt lat="45.8837" lon="5.34758">
        <ele>205.5</ele>
        <time>2022-09-24T14:33:15Z</time>
      </trkpt>
      <trkpt lat="45.88374" lon="5.34758">
        <ele>205.4</ele>
        <time>2022-09-24T14:33:16Z</time>
      </trkpt>
      <trkpt lat="45.88378" lon="5.34757">
        <ele>205.3</ele>
        <time>2022-09-24T14:33:17Z</time>
      </trkpt>
      <trkpt lat="45.88383" lon="5.34757">
        <ele>205.2</ele>
        <time>2022-09-24T14:33:18Z</time>
      </trkpt>
      <trkpt lat="45.88388" lon="5.34757">
        <ele>205.1</ele>
        <time>2022-09-24T14:33:19Z</time>
      </trkpt>
      <trkpt lat="45.88393" lon="5.34756">
        <ele>205</ele>
        <time>2022-09-24T14:33:20Z</time>
      </trkpt>
      <trkpt lat="45.88398" lon="5.34756">
        <ele>204.9</ele>
        <time>2022-09-24T14:33:21Z</time>
      </trkpt>
      <trkpt lat="45.88403" lon="5.34755">
        <ele>204.7</ele>
        <time>2022-09-24T14:33:22Z</time>
      </trkpt>
      <trkpt lat="45.88408" lon="5.34755">
        <ele>204.6</ele>
        <time>2022-09-24T14:33:23Z</time>
      </trkpt>
      <trkpt lat="45.88413" lon="5.34755">
        <ele>204.5</ele>
        <time>2022-09-24T14:33:24Z</time>
      </trkpt>
      <trkpt lat="45.88419" lon="5.34754">
        <ele>204.4</ele>
        <time>2022-09-24T14:33:25Z</time>
      </trkpt>
      <trkpt lat="45.88425" lon="5.34755">
        <ele>204.2</ele>
        <time>2022-09-24T14:33:26Z</time>
      </trkpt>
      <trkpt lat="45.8843" lon="5.34753">
        <ele>204.1</ele>
        <time>2022-09-24T14:33:27Z</time>
      </trkpt>
      <trkpt lat="45.88436" lon="5.34752">
        <ele>204.1</ele>
        <time>2022-09-24T14:33:28Z</time>
      </trkpt>
      <trkpt lat="45.88441" lon="5.3475">
        <ele>204</ele>
        <time>2022-09-24T14:33:29Z</time>
      </trkpt>
      <trkpt lat="45.88447" lon="5.34748">
        <ele>203.9</ele>
        <time>2022-09-24T14:33:30Z</time>
      </trkpt>
      <trkpt lat="45.88452" lon="5.34747">
        <ele>203.8</ele>
        <time>2022-09-24T14:33:31Z</time>
      </trkpt>
      <trkpt lat="45.88458" lon="5.34746">
        <ele>203.8</ele>
        <time>2022-09-24T14:33:32Z</time>
      </trkpt>
      <trkpt lat="45.88463" lon="5.34745">
        <ele>203.7</ele>
        <time>2022-09-24T14:33:33Z</time>
      </trkpt>
      <trkpt lat="45.88468" lon="5.34744">
        <ele>203.7</ele>
        <time>2022-09-24T14:33:34Z</time>
      </trkpt>
      <trkpt lat="45.88472" lon="5.34745">
        <ele>203.6</ele>
        <time>2022-09-24T14:33:35Z</time>
      </trkpt>
      <trkpt lat="45.88476" lon="5.34747">
        <ele>203.6</ele>
        <time>2022-09-24T14:33:36Z</time>
      </trkpt>
      <trkpt lat="45.88477" lon="5.34748">
        <ele>203.6</ele>
        <time>2022-09-24T14:33:37Z</time>
      </trkpt>
      <trkpt lat="45.8848" lon="5.34751">
        <ele>203.6</ele>
        <time>2022-09-24T14:33:38Z</time>
      </trkpt>
      <trkpt lat="45.88481" lon="5.34752">
        <ele>203.6</ele>
        <time>2022-09-24T14:33:39Z</time>
      </trkpt>
      <trkpt lat="45.88483" lon="5.34755">
        <ele>203.6</ele>
        <time>2022-09-24T14:33:40Z</time>
      </trkpt>
      <trkpt lat="45.88484" lon="5.34756">
        <ele>203.6</ele>
        <time>2022-09-24T14:33:41Z</time>
      </trkpt>
      <trkpt lat="45.88486" lon="5.34759">
        <ele>203.6</ele>
        <time>2022-09-24T14:33:42Z</time>
      </trkpt>
      <trkpt lat="45.88486" lon="5.34761">
        <ele>203.6</ele>
        <time>2022-09-24T14:33:43Z</time>
      </trkpt>
      <trkpt lat="45.88487" lon="5.34761">
        <ele>203.6</ele>
        <time>2022-09-24T14:33:44Z</time>
      </trkpt>
      <trkpt lat="45.88488" lon="5.34761">
        <ele>203.6</ele>
        <time>2022-09-24T14:33:45Z</time>
      </trkpt>
      <trkpt lat="45.88489" lon="5.34762">
        <ele>203.6</ele>
        <time>2022-09-24T14:33:46Z</time>
      </trkpt>
      <trkpt lat="45.8849" lon="5.34762">
        <ele>203.7</ele>
        <time>2022-09-24T14:33:47Z</time>
      </trkpt>
      <trkpt lat="45.88491" lon="5.34762">
        <ele>203.7</ele>
        <time>2022-09-24T14:33:48Z</time>
      </trkpt>
      <trkpt lat="45.88492" lon="5.34762">
        <ele>203.6</ele>
        <time>2022-09-24T14:33:49Z</time>
      </trkpt>
      <trkpt lat="45.88493" lon="5.34763">
        <ele>203.6</ele>
        <time>2022-09-24T14:33:50Z</time>
      </trkpt>
      <trkpt lat="45.88493" lon="5.34763">
        <ele>203.6</ele>
        <time>2022-09-24T14:33:51Z</time>
      </trkpt>
      <trkpt lat="45.88494" lon="5.34763">
        <ele>203.6</ele>
        <time>2022-09-24T14:33:52Z</time>
      </trkpt>
      <trkpt lat="45.88495" lon="5.34763">
        <ele>203.6</ele>
        <time>2022-09-24T14:33:53Z</time>
      </trkpt>
      <trkpt lat="45.88496" lon="5.34764">
        <ele>203.6</ele>
        <time>2022-09-24T14:35:33Z</time>
      </trkpt>
      <trkpt lat="45.88497" lon="5.34764">
        <ele>203.6</ele>
        <time>2022-09-24T14:35:34Z</time>
      </trkpt>
      <trkpt lat="45.885" lon="5.34765">
        <ele>203.6</ele>
        <time>2022-09-24T14:35:35Z</time>
      </trkpt>
      <trkpt lat="45.88504" lon="5.34764">
        <ele>203.6</ele>
        <time>2022-09-24T14:35:36Z</time>
      </trkpt>
      <trkpt lat="45.88507" lon="5.34764">
        <ele>203.6</ele>
        <time>2022-09-24T14:35:37Z</time>
      </trkpt>
      <trkpt lat="45.8851" lon="5.34763">
        <ele>203.6</ele>
        <time>2022-09-24T14:35:38Z</time>
      </trkpt>
      <trkpt lat="45.88513" lon="5.34761">
        <ele>203.6</ele>
        <time>2022-09-24T14:35:39Z</time>
      </trkpt>
      <trkpt lat="45.88517" lon="5.3476">
        <ele>203.6</ele>
        <time>2022-09-24T14:35:40Z</time>
      </trkpt>
      <trkpt lat="45.88521" lon="5.34758">
        <ele>203.6</ele>
        <time>2022-09-24T14:35:41Z</time>
      </trkpt>
      <trkpt lat="45.88524" lon="5.34756">
        <ele>203.6</ele>
        <time>2022-09-24T14:35:42Z</time>
      </trkpt>
      <trkpt lat="45.88528" lon="5.34754">
        <ele>203.6</ele>
        <time>2022-09-24T14:35:43Z</time>
      </trkpt>
      <trkpt lat="45.88533" lon="5.34753">
        <ele>203.5</ele>
        <time>2022-09-24T14:35:44Z</time>
      </trkpt>
      <trkpt lat="45.88538" lon="5.34754">
        <ele>203.5</ele>
        <time>2022-09-24T14:35:45Z</time>
      </trkpt>
      <trkpt lat="45.88542" lon="5.34756">
        <ele>203.5</ele>
        <time>2022-09-24T14:35:46Z</time>
      </trkpt>
      <trkpt lat="45.88547" lon="5.34759">
        <ele>203.4</ele>
        <time>2022-09-24T14:35:47Z</time>
      </trkpt>
      <trkpt lat="45.88551" lon="5.34762">
        <ele>203.4</ele>
        <time>2022-09-24T14:35:48Z</time>
      </trkpt>
      <trkpt lat="45.88556" lon="5.34765">
        <ele>203.4</ele>
        <time>2022-09-24T14:35:49Z</time>
      </trkpt>
      <trkpt lat="45.88561" lon="5.34768">
        <ele>203.4</ele>
        <time>2022-09-24T14:35:50Z</time>
      </trkpt>
      <trkpt lat="45.88566" lon="5.34769">
        <ele>203.4</ele>
        <time>2022-09-24T14:35:51Z</time>
      </trkpt>
      <trkpt lat="45.88571" lon="5.34769">
        <ele>203.4</ele>
        <time>2022-09-24T14:35:52Z</time>
      </trkpt>
      <trkpt lat="45.88576" lon="5.34771">
        <ele>203.4</ele>
        <time>2022-09-24T14:35:53Z</time>
      </trkpt>
      <trkpt lat="45.88581" lon="5.34772">
        <ele>203.4</ele>
        <time>2022-09-24T14:35:54Z</time>
      </trkpt>
      <trkpt lat="45.88587" lon="5.34772">
        <ele>203.4</ele>
        <time>2022-09-24T14:35:55Z</time>
      </trkpt>
      <trkpt lat="45.88591" lon="5.34773">
        <ele>203.4</ele>
        <time>2022-09-24T14:35:56Z</time>
      </trkpt>
      <trkpt lat="45.88596" lon="5.34773">
        <ele>203.5</ele>
        <time>2022-09-24T14:35:57Z</time>
      </trkpt>
      <trkpt lat="45.88602" lon="5.34773">
        <ele>203.5</ele>
        <time>2022-09-24T14:35:58Z</time>
      </trkpt>
      <trkpt lat="45.88606" lon="5.34775">
        <ele>203.5</ele>
        <time>2022-09-24T14:35:59Z</time>
      </trkpt>
      <trkpt lat="45.88612" lon="5.34775">
        <ele>203.5</ele>
        <time>2022-09-24T14:36:00Z</time>
      </trkpt>
      <trkpt lat="45.88617" lon="5.34774">
        <ele>203.5</ele>
        <time>2022-09-24T14:36:01Z</time>
      </trkpt>
      <trkpt lat="45.88622" lon="5.34775">
        <ele>203.6</ele>
        <time>2022-09-24T14:36:02Z</time>
      </trkpt>
      <trkpt lat="45.88626" lon="5.34776">
        <ele>203.6</ele>
        <time>2022-09-24T14:36:03Z</time>
      </trkpt>
      <trkpt lat="45.88631" lon="5.34779">
        <ele>203.6</ele>
        <time>2022-09-24T14:36:04Z</time>
      </trkpt>
      <trkpt lat="45.88637" lon="5.3478">
        <ele>203.7</ele>
        <time>2022-09-24T14:36:05Z</time>
      </trkpt>
      <trkpt lat="45.88642" lon="5.34781">
        <ele>203.7</ele>
        <time>2022-09-24T14:36:06Z</time>
      </trkpt>
      <trkpt lat="45.88648" lon="5.34781">
        <ele>203.8</ele>
        <time>2022-09-24T14:36:07Z</time>
      </trkpt>
      <trkpt lat="45.88654" lon="5.34781">
        <ele>203.8</ele>
        <time>2022-09-24T14:36:08Z</time>
      </trkpt>
      <trkpt lat="45.8866" lon="5.3478">
        <ele>203.9</ele>
        <time>2022-09-24T14:36:09Z</time>
      </trkpt>
      <trkpt lat="45.88664" lon="5.3478">
        <ele>203.9</ele>
        <time>2022-09-24T14:36:10Z</time>
      </trkpt>
      <trkpt lat="45.88669" lon="5.34781">
        <ele>204</ele>
        <time>2022-09-24T14:36:11Z</time>
      </trkpt>
      <trkpt lat="45.88674" lon="5.34781">
        <ele>204</ele>
        <time>2022-09-24T14:36:12Z</time>
      </trkpt>
      <trkpt lat="45.88678" lon="5.34781">
        <ele>204.1</ele>
        <time>2022-09-24T14:36:13Z</time>
      </trkpt>
      <trkpt lat="45.88682" lon="5.3478">
        <ele>204.1</ele>
        <time>2022-09-24T14:36:14Z</time>
      </trkpt>
      <trkpt lat="45.88686" lon="5.34778">
        <ele>204.2</ele>
        <time>2022-09-24T14:36:15Z</time>
      </trkpt>
      <trkpt lat="45.8869" lon="5.34776">
        <ele>204.2</ele>
        <time>2022-09-24T14:36:16Z</time>
      </trkpt>
      <trkpt lat="45.88695" lon="5.34775">
        <ele>204.3</ele>
        <time>2022-09-24T14:36:17Z</time>
      </trkpt>
      <trkpt lat="45.88699" lon="5.34775">
        <ele>204.4</ele>
        <time>2022-09-24T14:36:18Z</time>
      </trkpt>
      <trkpt lat="45.88703" lon="5.34775">
        <ele>204.5</ele>
        <time>2022-09-24T14:36:19Z</time>
      </trkpt>
      <trkpt lat="45.88708" lon="5.34775">
        <ele>204.5</ele>
        <time>2022-09-24T14:36:20Z</time>
      </trkpt>
      <trkpt lat="45.88713" lon="5.34774">
        <ele>204.6</ele>
        <time>2022-09-24T14:36:21Z</time>
      </trkpt>
      <trkpt lat="45.88717" lon="5.34774">
        <ele>204.7</ele>
        <time>2022-09-24T14:36:22Z</time>
      </trkpt>
      <trkpt lat="45.88721" lon="5.34773">
        <ele>204.8</ele>
        <time>2022-09-24T14:36:23Z</time>
      </trkpt>
      <trkpt lat="45.88726" lon="5.34773">
        <ele>204.9</ele>
        <time>2022-09-24T14:36:24Z</time>
      </trkpt>
      <trkpt lat="45.88731" lon="5.34773">
        <ele>205</ele>
        <time>2022-09-24T14:36:25Z</time>
      </trkpt>
      <trkpt lat="45.88736" lon="5.34774">
        <ele>205.2</ele>
        <time>2022-09-24T14:36:26Z</time>
      </trkpt>
      <trkpt lat="45.88741" lon="5.34773">
        <ele>205.3</ele>
        <time>2022-09-24T14:36:27Z</time>
      </trkpt>
      <trkpt lat="45.88746" lon="5.34773">
        <ele>205.4</ele>
        <time>2022-09-24T14:36:28Z</time>
      </trkpt>
      <trkpt lat="45.88751" lon="5.34773">
        <ele>205.5</ele>
        <time>2022-09-24T14:36:29Z</time>
      </trkpt>
      <trkpt lat="45.88755" lon="5.34773">
        <ele>205.6</ele>
        <time>2022-09-24T14:36:30Z</time>
      </trkpt>
      <trkpt lat="45.8876" lon="5.34773">
        <ele>205.7</ele>
        <time>2022-09-24T14:36:31Z</time>
      </trkpt>
      <trkpt lat="45.88764" lon="5.34773">
        <ele>205.8</ele>
        <time>2022-09-24T14:36:32Z</time>
      </trkpt>
      <trkpt lat="45.88769" lon="5.34773">
        <ele>205.9</ele>
        <time>2022-09-24T14:36:33Z</time>
      </trkpt>
      <trkpt lat="45.88773" lon="5.34772">
        <ele>206.1</ele>
        <time>2022-09-24T14:36:34Z</time>
      </trkpt>
      <trkpt lat="45.88778" lon="5.34773">
        <ele>206.2</ele>
        <time>2022-09-24T14:36:35Z</time>
      </trkpt>
      <trkpt lat="45.88782" lon="5.34773">
        <ele>206.3</ele>
        <time>2022-09-24T14:36:36Z</time>
      </trkpt>
      <trkpt lat="45.88786" lon="5.34773">
        <ele>206.4</ele>
        <time>2022-09-24T14:36:37Z</time>
      </trkpt>
      <trkpt lat="45.88789" lon="5.34773">
        <ele>206.5</ele>
        <time>2022-09-24T14:36:38Z</time>
      </trkpt>
      <trkpt lat="45.88794" lon="5.34773">
        <ele>206.6</ele>
        <time>2022-09-24T14:36:39Z</time>
      </trkpt>
      <trkpt lat="45.88798" lon="5.34773">
        <ele>206.7</ele>
        <time>2022-09-24T14:36:40Z</time>
      </trkpt>
      <trkpt lat="45.88803" lon="5.34773">
        <ele>206.8</ele>
        <time>2022-09-24T14:36:41Z</time>
      </trkpt>
      <trkpt lat="45.88807" lon="5.34773">
        <ele>206.9</ele>
        <time>2022-09-24T14:36:42Z</time>
      </trkpt>
      <trkpt lat="45.88812" lon="5.34773">
        <ele>207.1</ele>
        <time>2022-09-24T14:36:43Z</time>
      </trkpt>
      <trkpt lat="45.88816" lon="5.34774">
        <ele>207.2</ele>
        <time>2022-09-24T14:36:44Z</time>
      </trkpt>
      <trkpt lat="45.88821" lon="5.34773">
        <ele>207.3</ele>
        <time>2022-09-24T14:36:45Z</time>
      </trkpt>
      <trkpt lat="45.88825" lon="5.34773">
        <ele>207.4</ele>
        <time>2022-09-24T14:36:46Z</time>
      </trkpt>
      <trkpt lat="45.8883" lon="5.34773">
        <ele>207.5</ele>
        <time>2022-09-24T14:36:47Z</time>
      </trkpt>
      <trkpt lat="45.88834" lon="5.34773">
        <ele>207.6</ele>
        <time>2022-09-24T14:36:48Z</time>
      </trkpt>
      <trkpt lat="45.88839" lon="5.34773">
        <ele>207.7</ele>
        <time>2022-09-24T14:36:49Z</time>
      </trkpt>
      <trkpt lat="45.88844" lon="5.34773">
        <ele>207.8</ele>
        <time>2022-09-24T14:36:50Z</time>
      </trkpt>
      <trkpt lat="45.88848" lon="5.34773">
        <ele>207.9</ele>
        <time>2022-09-24T14:36:51Z</time>
      </trkpt>
      <trkpt lat="45.88853" lon="5.34773">
        <ele>208</ele>
        <time>2022-09-24T14:36:52Z</time>
      </trkpt>
      <trkpt lat="45.88858" lon="5.34773">
        <ele>208.1</ele>
        <time>2022-09-24T14:36:53Z</time>
      </trkpt>
      <trkpt lat="45.88862" lon="5.34772">
        <ele>208.2</ele>
        <time>2022-09-24T14:36:54Z</time>
      </trkpt>
      <trkpt lat="45.88866" lon="5.34771">
        <ele>208.2</ele>
        <time>2022-09-24T14:36:55Z</time>
      </trkpt>
      <trkpt lat="45.88871" lon="5.34771">
        <ele>208.3</ele>
        <time>2022-09-24T14:36:56Z</time>
      </trkpt>
      <trkpt lat="45.88875" lon="5.34771">
        <ele>208.3</ele>
        <time>2022-09-24T14:36:57Z</time>
      </trkpt>
      <trkpt lat="45.88879" lon="5.34771">
        <ele>208.3</ele>
        <time>2022-09-24T14:36:58Z</time>
      </trkpt>
      <trkpt lat="45.88884" lon="5.34771">
        <ele>208.4</ele>
        <time>2022-09-24T14:36:59Z</time>
      </trkpt>
      <trkpt lat="45.88889" lon="5.34771">
        <ele>208.4</ele>
        <time>2022-09-24T14:37:00Z</time>
      </trkpt>
      <trkpt lat="45.88894" lon="5.34771">
        <ele>208.4</ele>
        <time>2022-09-24T14:37:01Z</time>
      </trkpt>
      <trkpt lat="45.88899" lon="5.34771">
        <ele>208.4</ele>
        <time>2022-09-24T14:37:02Z</time>
      </trkpt>
      <trkpt lat="45.88903" lon="5.34771">
        <ele>208.4</ele>
        <time>2022-09-24T14:37:03Z</time>
      </trkpt>
      <trkpt lat="45.88908" lon="5.34771">
        <ele>208.4</ele>
        <time>2022-09-24T14:37:04Z</time>
      </trkpt>
      <trkpt lat="45.88913" lon="5.34771">
        <ele>208.4</ele>
        <time>2022-09-24T14:37:05Z</time>
      </trkpt>
      <trkpt lat="45.88919" lon="5.34771">
        <ele>208.3</ele>
        <time>2022-09-24T14:37:06Z</time>
      </trkpt>
      <trkpt lat="45.88924" lon="5.3477">
        <ele>208.3</ele>
        <time>2022-09-24T14:37:07Z</time>
      </trkpt>
      <trkpt lat="45.8893" lon="5.3477">
        <ele>208.3</ele>
        <time>2022-09-24T14:37:08Z</time>
      </trkpt>
      <trkpt lat="45.88936" lon="5.34769">
        <ele>208.2</ele>
        <time>2022-09-24T14:37:09Z</time>
      </trkpt>
      <trkpt lat="45.88941" lon="5.3477">
        <ele>208.2</ele>
        <time>2022-09-24T14:37:10Z</time>
      </trkpt>
      <trkpt lat="45.88947" lon="5.3477">
        <ele>208.1</ele>
        <time>2022-09-24T14:37:11Z</time>
      </trkpt>
      <trkpt lat="45.88953" lon="5.3477">
        <ele>208.1</ele>
        <time>2022-09-24T14:37:12Z</time>
      </trkpt>
      <trkpt lat="45.8896" lon="5.3477">
        <ele>208</ele>
        <time>2022-09-24T14:37:13Z</time>
      </trkpt>
      <trkpt lat="45.88966" lon="5.34769">
        <ele>207.9</ele>
        <time>2022-09-24T14:37:14Z</time>
      </trkpt>
      <trkpt lat="45.88972" lon="5.34769">
        <ele>207.9</ele>
        <time>2022-09-24T14:37:15Z</time>
      </trkpt>
      <trkpt lat="45.88978" lon="5.34769">
        <ele>207.8</ele>
        <time>2022-09-24T14:37:16Z</time>
      </trkpt>
      <trkpt lat="45.88985" lon="5.34769">
        <ele>207.8</ele>
        <time>2022-09-24T14:37:17Z</time>
      </trkpt>
      <trkpt lat="45.88991" lon="5.34769">
        <ele>207.7</ele>
        <time>2022-09-24T14:37:18Z</time>
      </trkpt>
      <trkpt lat="45.88997" lon="5.3477">
        <ele>207.7</ele>
        <time>2022-09-24T14:37:19Z</time>
      </trkpt>
      <trkpt lat="45.89004" lon="5.34769">
        <ele>207.6</ele>
        <time>2022-09-24T14:37:20Z</time>
      </trkpt>
      <trkpt lat="45.89011" lon="5.34768">
        <ele>207.5</ele>
        <time>2022-09-24T14:37:21Z</time>
      </trkpt>
      <trkpt lat="45.89017" lon="5.34769">
        <ele>207.5</ele>
        <time>2022-09-24T14:37:22Z</time>
      </trkpt>
      <trkpt lat="45.89023" lon="5.34769">
        <ele>207.5</ele>
        <time>2022-09-24T14:37:23Z</time>
      </trkpt>
      <trkpt lat="45.8903" lon="5.34768">
        <ele>207.4</ele>
        <time>2022-09-24T14:37:24Z</time>
      </trkpt>
      <trkpt lat="45.89037" lon="5.34768">
        <ele>207.4</ele>
        <time>2022-09-24T14:37:25Z</time>
      </trkpt>
      <trkpt lat="45.89043" lon="5.34768">
        <ele>207.4</ele>
        <time>2022-09-24T14:37:26Z</time>
      </trkpt>
      <trkpt lat="45.8905" lon="5.34768">
        <ele>207.3</ele>
        <time>2022-09-24T14:37:27Z</time>
      </trkpt>
      <trkpt lat="45.89056" lon="5.34768">
        <ele>207.3</ele>
        <time>2022-09-24T14:37:28Z</time>
      </trkpt>
      <trkpt lat="45.89063" lon="5.34767">
        <ele>207.2</ele>
        <time>2022-09-24T14:37:29Z</time>
      </trkpt>
      <trkpt lat="45.89069" lon="5.34767">
        <ele>207.2</ele>
        <time>2022-09-24T14:37:30Z</time>
      </trkpt>
      <trkpt lat="45.89075" lon="5.34767">
        <ele>207.2</ele>
        <time>2022-09-24T14:37:31Z</time>
      </trkpt>
      <trkpt lat="45.89082" lon="5.34767">
        <ele>207.1</ele>
        <time>2022-09-24T14:37:32Z</time>
      </trkpt>
      <trkpt lat="45.89088" lon="5.34767">
        <ele>207.1</ele>
        <time>2022-09-24T14:37:33Z</time>
      </trkpt>
      <trkpt lat="45.89095" lon="5.34767">
        <ele>207</ele>
        <time>2022-09-24T14:37:34Z</time>
      </trkpt>
      <trkpt lat="45.89102" lon="5.34767">
        <ele>207</ele>
        <time>2022-09-24T14:37:35Z</time>
      </trkpt>
      <trkpt lat="45.89109" lon="5.34766">
        <ele>206.9</ele>
        <time>2022-09-24T14:37:36Z</time>
      </trkpt>
      <trkpt lat="45.89115" lon="5.34767">
        <ele>206.9</ele>
        <time>2022-09-24T14:37:37Z</time>
      </trkpt>
      <trkpt lat="45.89122" lon="5.34767">
        <ele>206.9</ele>
        <time>2022-09-24T14:37:38Z</time>
      </trkpt>
      <trkpt lat="45.89129" lon="5.34767">
        <ele>206.8</ele>
        <time>2022-09-24T14:37:39Z</time>
      </trkpt>
      <trkpt lat="45.89135" lon="5.34766">
        <ele>206.8</ele>
        <time>2022-09-24T14:37:40Z</time>
      </trkpt>
      <trkpt lat="45.89142" lon="5.34766">
        <ele>206.8</ele>
        <time>2022-09-24T14:37:41Z</time>
      </trkpt>
      <trkpt lat="45.89149" lon="5.34766">
        <ele>206.8</ele>
        <time>2022-09-24T14:37:42Z</time>
      </trkpt>
      <trkpt lat="45.89155" lon="5.34766">
        <ele>206.8</ele>
        <time>2022-09-24T14:37:43Z</time>
      </trkpt>
      <trkpt lat="45.89162" lon="5.34766">
        <ele>206.8</ele>
        <time>2022-09-24T14:37:44Z</time>
      </trkpt>
      <trkpt lat="45.89169" lon="5.34765">
        <ele>206.8</ele>
        <time>2022-09-24T14:37:45Z</time>
      </trkpt>
      <trkpt lat="45.89175" lon="5.34766">
        <ele>206.7</ele>
        <time>2022-09-24T14:37:46Z</time>
      </trkpt>
      <trkpt lat="45.89182" lon="5.34766">
        <ele>206.7</ele>
        <time>2022-09-24T14:37:47Z</time>
      </trkpt>
      <trkpt lat="45.89189" lon="5.34766">
        <ele>206.7</ele>
        <time>2022-09-24T14:37:48Z</time>
      </trkpt>
      <trkpt lat="45.89195" lon="5.34766">
        <ele>206.7</ele>
        <time>2022-09-24T14:37:49Z</time>
      </trkpt>
      <trkpt lat="45.89202" lon="5.34766">
        <ele>206.7</ele>
        <time>2022-09-24T14:37:50Z</time>
      </trkpt>
      <trkpt lat="45.89209" lon="5.34765">
        <ele>206.7</ele>
        <time>2022-09-24T14:37:51Z</time>
      </trkpt>
      <trkpt lat="45.89215" lon="5.34766">
        <ele>206.7</ele>
        <time>2022-09-24T14:37:52Z</time>
      </trkpt>
      <trkpt lat="45.89222" lon="5.34765">
        <ele>206.8</ele>
        <time>2022-09-24T14:37:53Z</time>
      </trkpt>
      <trkpt lat="45.89228" lon="5.34765">
        <ele>206.8</ele>
        <time>2022-09-24T14:37:54Z</time>
      </trkpt>
      <trkpt lat="45.89235" lon="5.34765">
        <ele>206.8</ele>
        <time>2022-09-24T14:37:55Z</time>
      </trkpt>
      <trkpt lat="45.89241" lon="5.34765">
        <ele>206.9</ele>
        <time>2022-09-24T14:37:56Z</time>
      </trkpt>
      <trkpt lat="45.89248" lon="5.34765">
        <ele>206.9</ele>
        <time>2022-09-24T14:37:57Z</time>
      </trkpt>
      <trkpt lat="45.89254" lon="5.34765">
        <ele>206.9</ele>
        <time>2022-09-24T14:37:58Z</time>
      </trkpt>
      <trkpt lat="45.89261" lon="5.34766">
        <ele>206.9</ele>
        <time>2022-09-24T14:37:59Z</time>
      </trkpt>
      <trkpt lat="45.89267" lon="5.34765">
        <ele>207</ele>
        <time>2022-09-24T14:38:00Z</time>
      </trkpt>
      <trkpt lat="45.89273" lon="5.34765">
        <ele>207</ele>
        <time>2022-09-24T14:38:01Z</time>
      </trkpt>
      <trkpt lat="45.89279" lon="5.34765">
        <ele>207</ele>
        <time>2022-09-24T14:38:02Z</time>
      </trkpt>
      <trkpt lat="45.89286" lon="5.34764">
        <ele>207.1</ele>
        <time>2022-09-24T14:38:03Z</time>
      </trkpt>
      <trkpt lat="45.89292" lon="5.34765">
        <ele>207.2</ele>
        <time>2022-09-24T14:38:04Z</time>
      </trkpt>
      <trkpt lat="45.89299" lon="5.34764">
        <ele>207.3</ele>
        <time>2022-09-24T14:38:05Z</time>
      </trkpt>
      <trkpt lat="45.89305" lon="5.34764">
        <ele>207.4</ele>
        <time>2022-09-24T14:38:06Z</time>
      </trkpt>
      <trkpt lat="45.89311" lon="5.34764">
        <ele>207.5</ele>
        <time>2022-09-24T14:38:07Z</time>
      </trkpt>
      <trkpt lat="45.89316" lon="5.34764">
        <ele>207.6</ele>
        <time>2022-09-24T14:38:08Z</time>
      </trkpt>
      <trkpt lat="45.89322" lon="5.34764">
        <ele>207.7</ele>
        <time>2022-09-24T14:38:09Z</time>
      </trkpt>
      <trkpt lat="45.89328" lon="5.34764">
        <ele>207.8</ele>
        <time>2022-09-24T14:38:10Z</time>
      </trkpt>
      <trkpt lat="45.89333" lon="5.34764">
        <ele>207.9</ele>
        <time>2022-09-24T14:38:11Z</time>
      </trkpt>
      <trkpt lat="45.89339" lon="5.34764">
        <ele>208</ele>
        <time>2022-09-24T14:38:12Z</time>
      </trkpt>
      <trkpt lat="45.89344" lon="5.34764">
        <ele>208.1</ele>
        <time>2022-09-24T14:38:13Z</time>
      </trkpt>
      <trkpt lat="45.8935" lon="5.34764">
        <ele>208.2</ele>
        <time>2022-09-24T14:38:14Z</time>
      </trkpt>
      <trkpt lat="45.89354" lon="5.34763">
        <ele>208.3</ele>
        <time>2022-09-24T14:38:15Z</time>
      </trkpt>
      <trkpt lat="45.8936" lon="5.34762">
        <ele>208.3</ele>
        <time>2022-09-24T14:38:16Z</time>
      </trkpt>
      <trkpt lat="45.89365" lon="5.34761">
        <ele>208.3</ele>
        <time>2022-09-24T14:38:17Z</time>
      </trkpt>
      <trkpt lat="45.8937" lon="5.34761">
        <ele>208.4</ele>
        <time>2022-09-24T14:38:18Z</time>
      </trkpt>
      <trkpt lat="45.89375" lon="5.34761">
        <ele>208.4</ele>
        <time>2022-09-24T14:38:19Z</time>
      </trkpt>
      <trkpt lat="45.8938" lon="5.3476">
        <ele>208.3</ele>
        <time>2022-09-24T14:38:20Z</time>
      </trkpt>
      <trkpt lat="45.89386" lon="5.34761">
        <ele>208.3</ele>
        <time>2022-09-24T14:38:21Z</time>
      </trkpt>
      <trkpt lat="45.89392" lon="5.34762">
        <ele>208.2</ele>
        <time>2022-09-24T14:38:22Z</time>
      </trkpt>
      <trkpt lat="45.89398" lon="5.34762">
        <ele>208.1</ele>
        <time>2022-09-24T14:38:23Z</time>
      </trkpt>
      <trkpt lat="45.89404" lon="5.34762">
        <ele>208</ele>
        <time>2022-09-24T14:38:24Z</time>
      </trkpt>
      <trkpt lat="45.89411" lon="5.34762">
        <ele>207.9</ele>
        <time>2022-09-24T14:38:25Z</time>
      </trkpt>
      <trkpt lat="45.89417" lon="5.34762">
        <ele>207.8</ele>
        <time>2022-09-24T14:38:26Z</time>
      </trkpt>
      <trkpt lat="45.89423" lon="5.34762">
        <ele>207.6</ele>
        <time>2022-09-24T14:38:27Z</time>
      </trkpt>
      <trkpt lat="45.8943" lon="5.34762">
        <ele>207.5</ele>
        <time>2022-09-24T14:38:28Z</time>
      </trkpt>
      <trkpt lat="45.89437" lon="5.34762">
        <ele>207.4</ele>
        <time>2022-09-24T14:38:29Z</time>
      </trkpt>
      <trkpt lat="45.89444" lon="5.34762">
        <ele>207.2</ele>
        <time>2022-09-24T14:38:30Z</time>
      </trkpt>
      <trkpt lat="45.89451" lon="5.34762">
        <ele>207.1</ele>
        <time>2022-09-24T14:38:31Z</time>
      </trkpt>
      <trkpt lat="45.89458" lon="5.34761">
        <ele>207</ele>
        <time>2022-09-24T14:38:32Z</time>
      </trkpt>
      <trkpt lat="45.89464" lon="5.3476">
        <ele>207</ele>
        <time>2022-09-24T14:38:33Z</time>
      </trkpt>
      <trkpt lat="45.89471" lon="5.34761">
        <ele>206.9</ele>
        <time>2022-09-24T14:38:34Z</time>
      </trkpt>
      <trkpt lat="45.89478" lon="5.34761">
        <ele>206.8</ele>
        <time>2022-09-24T14:38:35Z</time>
      </trkpt>
      <trkpt lat="45.89485" lon="5.34762">
        <ele>206.7</ele>
        <time>2022-09-24T14:38:36Z</time>
      </trkpt>
      <trkpt lat="45.89492" lon="5.34761">
        <ele>206.7</ele>
        <time>2022-09-24T14:38:37Z</time>
      </trkpt>
      <trkpt lat="45.89498" lon="5.34761">
        <ele>206.7</ele>
        <time>2022-09-24T14:38:38Z</time>
      </trkpt>
      <trkpt lat="45.89505" lon="5.34761">
        <ele>206.7</ele>
        <time>2022-09-24T14:38:39Z</time>
      </trkpt>
      <trkpt lat="45.89512" lon="5.34761">
        <ele>206.6</ele>
        <time>2022-09-24T14:38:40Z</time>
      </trkpt>
      <trkpt lat="45.89519" lon="5.34761">
        <ele>206.6</ele>
        <time>2022-09-24T14:38:41Z</time>
      </trkpt>
      <trkpt lat="45.89526" lon="5.34761">
        <ele>206.5</ele>
        <time>2022-09-24T14:38:42Z</time>
      </trkpt>
      <trkpt lat="45.89533" lon="5.3476">
        <ele>206.5</ele>
        <time>2022-09-24T14:38:43Z</time>
      </trkpt>
      <trkpt lat="45.89539" lon="5.3476">
        <ele>206.5</ele>
        <time>2022-09-24T14:38:44Z</time>
      </trkpt>
      <trkpt lat="45.89546" lon="5.3476">
        <ele>206.4</ele>
        <time>2022-09-24T14:38:45Z</time>
      </trkpt>
      <trkpt lat="45.89553" lon="5.3476">
        <ele>206.4</ele>
        <time>2022-09-24T14:38:46Z</time>
      </trkpt>
      <trkpt lat="45.89559" lon="5.3476">
        <ele>206.4</ele>
        <time>2022-09-24T14:38:47Z</time>
      </trkpt>
      <trkpt lat="45.89566" lon="5.3476">
        <ele>206.3</ele>
        <time>2022-09-24T14:38:48Z</time>
      </trkpt>
      <trkpt lat="45.89572" lon="5.3476">
        <ele>206.3</ele>
        <time>2022-09-24T14:38:49Z</time>
      </trkpt>
      <trkpt lat="45.89579" lon="5.3476">
        <ele>206.3</ele>
        <time>2022-09-24T14:38:50Z</time>
      </trkpt>
      <trkpt lat="45.89585" lon="5.3476">
        <ele>206.3</ele>
        <time>2022-09-24T14:38:51Z</time>
      </trkpt>
      <trkpt lat="45.89591" lon="5.3476">
        <ele>206.3</ele>
        <time>2022-09-24T14:38:52Z</time>
      </trkpt>
      <trkpt lat="45.89597" lon="5.34759">
        <ele>206.3</ele>
        <time>2022-09-24T14:38:53Z</time>
      </trkpt>
      <trkpt lat="45.89603" lon="5.34759">
        <ele>206.3</ele>
        <time>2022-09-24T14:38:54Z</time>
      </trkpt>
      <trkpt lat="45.89609" lon="5.34759">
        <ele>206.3</ele>
        <time>2022-09-24T14:38:55Z</time>
      </trkpt>
      <trkpt lat="45.89615" lon="5.34759">
        <ele>206.3</ele>
        <time>2022-09-24T14:38:56Z</time>
      </trkpt>
      <trkpt lat="45.89621" lon="5.34759">
        <ele>206.2</ele>
        <time>2022-09-24T14:38:57Z</time>
      </trkpt>
      <trkpt lat="45.89628" lon="5.34759">
        <ele>206.2</ele>
        <time>2022-09-24T14:38:58Z</time>
      </trkpt>
      <trkpt lat="45.89634" lon="5.34759">
        <ele>206.2</ele>
        <time>2022-09-24T14:38:59Z</time>
      </trkpt>
      <trkpt lat="45.8964" lon="5.34759">
        <ele>206.2</ele>
        <time>2022-09-24T14:39:00Z</time>
      </trkpt>
      <trkpt lat="45.89646" lon="5.34759">
        <ele>206.1</ele>
        <time>2022-09-24T14:39:01Z</time>
      </trkpt>
      <trkpt lat="45.89652" lon="5.3476">
        <ele>206.1</ele>
        <time>2022-09-24T14:39:02Z</time>
      </trkpt>
      <trkpt lat="45.89658" lon="5.3476">
        <ele>206.1</ele>
        <time>2022-09-24T14:39:03Z</time>
      </trkpt>
      <trkpt lat="45.89665" lon="5.34759">
        <ele>206</ele>
        <time>2022-09-24T14:39:04Z</time>
      </trkpt>
      <trkpt lat="45.89671" lon="5.34759">
        <ele>206</ele>
        <time>2022-09-24T14:39:05Z</time>
      </trkpt>
      <trkpt lat="45.89677" lon="5.34759">
        <ele>206</ele>
        <time>2022-09-24T14:39:06Z</time>
      </trkpt>
      <trkpt lat="45.89683" lon="5.34759">
        <ele>205.9</ele>
        <time>2022-09-24T14:39:07Z</time>
      </trkpt>
      <trkpt lat="45.8969" lon="5.34759">
        <ele>205.9</ele>
        <time>2022-09-24T14:39:08Z</time>
      </trkpt>
      <trkpt lat="45.89696" lon="5.34759">
        <ele>205.8</ele>
        <time>2022-09-24T14:39:09Z</time>
      </trkpt>
      <trkpt lat="45.89702" lon="5.34759">
        <ele>205.8</ele>
        <time>2022-09-24T14:39:10Z</time>
      </trkpt>
      <trkpt lat="45.89709" lon="5.34759">
        <ele>205.7</ele>
        <time>2022-09-24T14:39:11Z</time>
      </trkpt>
      <trkpt lat="45.89714" lon="5.34758">
        <ele>205.6</ele>
        <time>2022-09-24T14:39:12Z</time>
      </trkpt>
      <trkpt lat="45.89721" lon="5.34758">
        <ele>205.5</ele>
        <time>2022-09-24T14:39:13Z</time>
      </trkpt>
      <trkpt lat="45.89727" lon="5.34758">
        <ele>205.4</ele>
        <time>2022-09-24T14:39:14Z</time>
      </trkpt>
      <trkpt lat="45.89734" lon="5.34758">
        <ele>205.4</ele>
        <time>2022-09-24T14:39:15Z</time>
      </trkpt>
      <trkpt lat="45.8974" lon="5.34757">
        <ele>205.3</ele>
        <time>2022-09-24T14:39:16Z</time>
      </trkpt>
      <trkpt lat="45.89746" lon="5.34758">
        <ele>205.2</ele>
        <time>2022-09-24T14:39:17Z</time>
      </trkpt>
      <trkpt lat="45.89752" lon="5.34756">
        <ele>205.2</ele>
        <time>2022-09-24T14:39:18Z</time>
      </trkpt>
      <trkpt lat="45.89759" lon="5.34754">
        <ele>205.1</ele>
        <time>2022-09-24T14:39:19Z</time>
      </trkpt>
      <trkpt lat="45.89766" lon="5.34754">
        <ele>205</ele>
        <time>2022-09-24T14:39:20Z</time>
      </trkpt>
      <trkpt lat="45.89771" lon="5.34754">
        <ele>205</ele>
        <time>2022-09-24T14:39:21Z</time>
      </trkpt>
      <trkpt lat="45.89777" lon="5.34754">
        <ele>204.9</ele>
        <time>2022-09-24T14:39:22Z</time>
      </trkpt>
      <trkpt lat="45.89782" lon="5.34754">
        <ele>204.9</ele>
        <time>2022-09-24T14:39:23Z</time>
      </trkpt>
      <trkpt lat="45.89789" lon="5.34754">
        <ele>204.8</ele>
        <time>2022-09-24T14:39:24Z</time>
      </trkpt>
      <trkpt lat="45.89793" lon="5.34753">
        <ele>204.8</ele>
        <time>2022-09-24T14:39:25Z</time>
      </trkpt>
      <trkpt lat="45.898" lon="5.34753">
        <ele>204.8</ele>
        <time>2022-09-24T14:39:26Z</time>
      </trkpt>
      <trkpt lat="45.89804" lon="5.34753">
        <ele>204.7</ele>
        <time>2022-09-24T14:39:27Z</time>
      </trkpt>
      <trkpt lat="45.89811" lon="5.34753">
        <ele>204.7</ele>
        <time>2022-09-24T14:39:28Z</time>
      </trkpt>
      <trkpt lat="45.89816" lon="5.34754">
        <ele>204.7</ele>
        <time>2022-09-24T14:39:29Z</time>
      </trkpt>
      <trkpt lat="45.89822" lon="5.34754">
        <ele>204.7</ele>
        <time>2022-09-24T14:39:30Z</time>
      </trkpt>
      <trkpt lat="45.89827" lon="5.34753">
        <ele>204.7</ele>
        <time>2022-09-24T14:39:31Z</time>
      </trkpt>
      <trkpt lat="45.89832" lon="5.34753">
        <ele>204.7</ele>
        <time>2022-09-24T14:39:32Z</time>
      </trkpt>
      <trkpt lat="45.89836" lon="5.34753">
        <ele>204.7</ele>
        <time>2022-09-24T14:39:33Z</time>
      </trkpt>
      <trkpt lat="45.89841" lon="5.34754">
        <ele>204.7</ele>
        <time>2022-09-24T14:39:34Z</time>
      </trkpt>
      <trkpt lat="45.89846" lon="5.34754">
        <ele>204.7</ele>
        <time>2022-09-24T14:39:35Z</time>
      </trkpt>
      <trkpt lat="45.89851" lon="5.34755">
        <ele>204.7</ele>
        <time>2022-09-24T14:39:36Z</time>
      </trkpt>
      <trkpt lat="45.89855" lon="5.34756">
        <ele>204.7</ele>
        <time>2022-09-24T14:39:37Z</time>
      </trkpt>
      <trkpt lat="45.8986" lon="5.34758">
        <ele>204.7</ele>
        <time>2022-09-24T14:39:38Z</time>
      </trkpt>
      <trkpt lat="45.89864" lon="5.34759">
        <ele>204.7</ele>
        <time>2022-09-24T14:39:39Z</time>
      </trkpt>
      <trkpt lat="45.89867" lon="5.34761">
        <ele>204.7</ele>
        <time>2022-09-24T14:39:40Z</time>
      </trkpt>
      <trkpt lat="45.8987" lon="5.34763">
        <ele>204.7</ele>
        <time>2022-09-24T14:39:41Z</time>
      </trkpt>
      <trkpt lat="45.89873" lon="5.34767">
        <ele>204.6</ele>
        <time>2022-09-24T14:39:42Z</time>
      </trkpt>
      <trkpt lat="45.89877" lon="5.34769">
        <ele>204.7</ele>
        <time>2022-09-24T14:39:43Z</time>
      </trkpt>
      <trkpt lat="45.89881" lon="5.3477">
        <ele>204.7</ele>
        <time>2022-09-24T14:39:44Z</time>
      </trkpt>
      <trkpt lat="45.89885" lon="5.34768">
        <ele>204.7</ele>
        <time>2022-09-24T14:39:45Z</time>
      </trkpt>
      <trkpt lat="45.89889" lon="5.34765">
        <ele>204.7</ele>
        <time>2022-09-24T14:39:46Z</time>
      </trkpt>
      <trkpt lat="45.89892" lon="5.34762">
        <ele>204.7</ele>
        <time>2022-09-24T14:39:47Z</time>
      </trkpt>
      <trkpt lat="45.89897" lon="5.34759">
        <ele>204.8</ele>
        <time>2022-09-24T14:39:48Z</time>
      </trkpt>
      <trkpt lat="45.89902" lon="5.34758">
        <ele>204.8</ele>
        <time>2022-09-24T14:39:49Z</time>
      </trkpt>
      <trkpt lat="45.89906" lon="5.34757">
        <ele>204.8</ele>
        <time>2022-09-24T14:39:50Z</time>
      </trkpt>
      <trkpt lat="45.8991" lon="5.34757">
        <ele>204.8</ele>
        <time>2022-09-24T14:39:51Z</time>
      </trkpt>
      <trkpt lat="45.89913" lon="5.34756">
        <ele>204.8</ele>
        <time>2022-09-24T14:39:52Z</time>
      </trkpt>
      <trkpt lat="45.89917" lon="5.34756">
        <ele>204.8</ele>
        <time>2022-09-24T14:39:53Z</time>
      </trkpt>
      <trkpt lat="45.8992" lon="5.34756">
        <ele>204.8</ele>
        <time>2022-09-24T14:39:54Z</time>
      </trkpt>
      <trkpt lat="45.89924" lon="5.34755">
        <ele>204.8</ele>
        <time>2022-09-24T14:39:55Z</time>
      </trkpt>
      <trkpt lat="45.89926" lon="5.34756">
        <ele>204.8</ele>
        <time>2022-09-24T14:39:56Z</time>
      </trkpt>
      <trkpt lat="45.89931" lon="5.34756">
        <ele>204.8</ele>
        <time>2022-09-24T14:39:57Z</time>
      </trkpt>
      <trkpt lat="45.89936" lon="5.34756">
        <ele>204.8</ele>
        <time>2022-09-24T14:39:58Z</time>
      </trkpt>
      <trkpt lat="45.8994" lon="5.34756">
        <ele>204.9</ele>
        <time>2022-09-24T14:39:59Z</time>
      </trkpt>
      <trkpt lat="45.89945" lon="5.34756">
        <ele>204.9</ele>
        <time>2022-09-24T14:40:00Z</time>
      </trkpt>
      <trkpt lat="45.89949" lon="5.34756">
        <ele>204.9</ele>
        <time>2022-09-24T14:40:01Z</time>
      </trkpt>
      <trkpt lat="45.89955" lon="5.34756">
        <ele>204.9</ele>
        <time>2022-09-24T14:40:02Z</time>
      </trkpt>
      <trkpt lat="45.8996" lon="5.34756">
        <ele>205</ele>
        <time>2022-09-24T14:40:03Z</time>
      </trkpt>
      <trkpt lat="45.89965" lon="5.34757">
        <ele>205</ele>
        <time>2022-09-24T14:40:04Z</time>
      </trkpt>
      <trkpt lat="45.8997" lon="5.34757">
        <ele>205</ele>
        <time>2022-09-24T14:40:05Z</time>
      </trkpt>
      <trkpt lat="45.89975" lon="5.34758">
        <ele>205</ele>
        <time>2022-09-24T14:40:06Z</time>
      </trkpt>
      <trkpt lat="45.8998" lon="5.34757">
        <ele>205.1</ele>
        <time>2022-09-24T14:40:07Z</time>
      </trkpt>
      <trkpt lat="45.89985" lon="5.34756">
        <ele>205.1</ele>
        <time>2022-09-24T14:40:08Z</time>
      </trkpt>
      <trkpt lat="45.89992" lon="5.34756">
        <ele>205.1</ele>
        <time>2022-09-24T14:40:09Z</time>
      </trkpt>
      <trkpt lat="45.89996" lon="5.34755">
        <ele>205.2</ele>
        <time>2022-09-24T14:40:10Z</time>
      </trkpt>
      <trkpt lat="45.90002" lon="5.34755">
        <ele>205.2</ele>
        <time>2022-09-24T14:40:11Z</time>
      </trkpt>
      <trkpt lat="45.90006" lon="5.34757">
        <ele>205.2</ele>
        <time>2022-09-24T14:40:12Z</time>
      </trkpt>
      <trkpt lat="45.90012" lon="5.34757">
        <ele>205.3</ele>
        <time>2022-09-24T14:40:13Z</time>
      </trkpt>
      <trkpt lat="45.90018" lon="5.34756">
        <ele>205.3</ele>
        <time>2022-09-24T14:40:14Z</time>
      </trkpt>
      <trkpt lat="45.90023" lon="5.34756">
        <ele>205.4</ele>
        <time>2022-09-24T14:40:15Z</time>
      </trkpt>
      <trkpt lat="45.90029" lon="5.34755">
        <ele>205.4</ele>
        <time>2022-09-24T14:40:16Z</time>
      </trkpt>
      <trkpt lat="45.90034" lon="5.34756">
        <ele>205.4</ele>
        <time>2022-09-24T14:40:17Z</time>
      </trkpt>
      <trkpt lat="45.90039" lon="5.34755">
        <ele>205.5</ele>
        <time>2022-09-24T14:40:18Z</time>
      </trkpt>
      <trkpt lat="45.90044" lon="5.34755">
        <ele>205.5</ele>
        <time>2022-09-24T14:40:19Z</time>
      </trkpt>
      <trkpt lat="45.90049" lon="5.34755">
        <ele>205.6</ele>
        <time>2022-09-24T14:40:20Z</time>
      </trkpt>
      <trkpt lat="45.90054" lon="5.34755">
        <ele>205.6</ele>
        <time>2022-09-24T14:40:21Z</time>
      </trkpt>
      <trkpt lat="45.90058" lon="5.34755">
        <ele>205.7</ele>
        <time>2022-09-24T14:40:22Z</time>
      </trkpt>
      <trkpt lat="45.90064" lon="5.34755">
        <ele>205.7</ele>
        <time>2022-09-24T14:40:23Z</time>
      </trkpt>
      <trkpt lat="45.90068" lon="5.34755">
        <ele>205.8</ele>
        <time>2022-09-24T14:40:24Z</time>
      </trkpt>
      <trkpt lat="45.90072" lon="5.34756">
        <ele>205.8</ele>
        <time>2022-09-24T14:40:25Z</time>
      </trkpt>
      <trkpt lat="45.90078" lon="5.34756">
        <ele>205.8</ele>
        <time>2022-09-24T14:40:26Z</time>
      </trkpt>
      <trkpt lat="45.90084" lon="5.34755">
        <ele>205.9</ele>
        <time>2022-09-24T14:40:27Z</time>
      </trkpt>
      <trkpt lat="45.90089" lon="5.34755">
        <ele>205.9</ele>
        <time>2022-09-24T14:40:28Z</time>
      </trkpt>
      <trkpt lat="45.90093" lon="5.34755">
        <ele>206</ele>
        <time>2022-09-24T14:40:29Z</time>
      </trkpt>
      <trkpt lat="45.90099" lon="5.34755">
        <ele>206</ele>
        <time>2022-09-24T14:40:30Z</time>
      </trkpt>
      <trkpt lat="45.90104" lon="5.34754">
        <ele>206.1</ele>
        <time>2022-09-24T14:40:31Z</time>
      </trkpt>
      <trkpt lat="45.90109" lon="5.34754">
        <ele>206.2</ele>
        <time>2022-09-24T14:40:32Z</time>
      </trkpt>
      <trkpt lat="45.90114" lon="5.34753">
        <ele>206.2</ele>
        <time>2022-09-24T14:40:33Z</time>
      </trkpt>
      <trkpt lat="45.90121" lon="5.34753">
        <ele>206.3</ele>
        <time>2022-09-24T14:40:34Z</time>
      </trkpt>
      <trkpt lat="45.90125" lon="5.34752">
        <ele>206.3</ele>
        <time>2022-09-24T14:40:35Z</time>
      </trkpt>
      <trkpt lat="45.9013" lon="5.34753">
        <ele>206.3</ele>
        <time>2022-09-24T14:40:36Z</time>
      </trkpt>
      <trkpt lat="45.90136" lon="5.34753">
        <ele>206.4</ele>
        <time>2022-09-24T14:40:37Z</time>
      </trkpt>
      <trkpt lat="45.90141" lon="5.34754">
        <ele>206.4</ele>
        <time>2022-09-24T14:40:38Z</time>
      </trkpt>
      <trkpt lat="45.90145" lon="5.34753">
        <ele>206.4</ele>
        <time>2022-09-24T14:40:39Z</time>
      </trkpt>
      <trkpt lat="45.9015" lon="5.34753">
        <ele>206.4</ele>
        <time>2022-09-24T14:40:40Z</time>
      </trkpt>
      <trkpt lat="45.90155" lon="5.34753">
        <ele>206.5</ele>
        <time>2022-09-24T14:40:41Z</time>
      </trkpt>
      <trkpt lat="45.90158" lon="5.34753">
        <ele>206.5</ele>
        <time>2022-09-24T14:40:42Z</time>
      </trkpt>
      <trkpt lat="45.90164" lon="5.34754">
        <ele>206.5</ele>
        <time>2022-09-24T14:40:43Z</time>
      </trkpt>
      <trkpt lat="45.90169" lon="5.34755">
        <ele>206.6</ele>
        <time>2022-09-24T14:40:44Z</time>
      </trkpt>
      <trkpt lat="45.90174" lon="5.34755">
        <ele>206.6</ele>
        <time>2022-09-24T14:40:45Z</time>
      </trkpt>
      <trkpt lat="45.90177" lon="5.34755">
        <ele>206.7</ele>
        <time>2022-09-24T14:40:46Z</time>
      </trkpt>
      <trkpt lat="45.90181" lon="5.34752">
        <ele>206.7</ele>
        <time>2022-09-24T14:40:47Z</time>
      </trkpt>
      <trkpt lat="45.90186" lon="5.34754">
        <ele>206.8</ele>
        <time>2022-09-24T14:40:48Z</time>
      </trkpt>
      <trkpt lat="45.90191" lon="5.34755">
        <ele>206.8</ele>
        <time>2022-09-24T14:40:49Z</time>
      </trkpt>
      <trkpt lat="45.90196" lon="5.34755">
        <ele>206.9</ele>
        <time>2022-09-24T14:40:50Z</time>
      </trkpt>
      <trkpt lat="45.902" lon="5.34754">
        <ele>206.9</ele>
        <time>2022-09-24T14:40:51Z</time>
      </trkpt>
      <trkpt lat="45.90204" lon="5.34754">
        <ele>207</ele>
        <time>2022-09-24T14:40:52Z</time>
      </trkpt>
      <trkpt lat="45.90209" lon="5.34753">
        <ele>207.1</ele>
        <time>2022-09-24T14:40:53Z</time>
      </trkpt>
      <trkpt lat="45.90215" lon="5.34752">
        <ele>207.1</ele>
        <time>2022-09-24T14:40:54Z</time>
      </trkpt>
      <trkpt lat="45.90219" lon="5.3475">
        <ele>207.2</ele>
        <time>2022-09-24T14:40:55Z</time>
      </trkpt>
      <trkpt lat="45.90224" lon="5.34749">
        <ele>207.3</ele>
        <time>2022-09-24T14:40:56Z</time>
      </trkpt>
      <trkpt lat="45.90227" lon="5.34752">
        <ele>207.3</ele>
        <time>2022-09-24T14:40:57Z</time>
      </trkpt>
      <trkpt lat="45.90228" lon="5.34754">
        <ele>207.3</ele>
        <time>2022-09-24T14:40:58Z</time>
      </trkpt>
      <trkpt lat="45.9023" lon="5.34757">
        <ele>207.4</ele>
        <time>2022-09-24T14:40:59Z</time>
      </trkpt>
      <trkpt lat="45.90231" lon="5.34761">
        <ele>207.4</ele>
        <time>2022-09-24T14:41:00Z</time>
      </trkpt>
      <trkpt lat="45.90232" lon="5.34765">
        <ele>207.5</ele>
        <time>2022-09-24T14:41:01Z</time>
      </trkpt>
      <trkpt lat="45.90233" lon="5.34769">
        <ele>207.5</ele>
        <time>2022-09-24T14:41:02Z</time>
      </trkpt>
      <trkpt lat="45.90235" lon="5.34772">
        <ele>207.6</ele>
        <time>2022-09-24T14:41:03Z</time>
      </trkpt>
      <trkpt lat="45.90236" lon="5.34772">
        <ele>207.6</ele>
        <time>2022-09-24T14:41:04Z</time>
      </trkpt>
      <trkpt lat="45.9024" lon="5.34769">
        <ele>207.7</ele>
        <time>2022-09-24T14:41:05Z</time>
      </trkpt>
      <trkpt lat="45.90243" lon="5.34765">
        <ele>207.8</ele>
        <time>2022-09-24T14:41:06Z</time>
      </trkpt>
      <trkpt lat="45.90245" lon="5.34763">
        <ele>207.8</ele>
        <time>2022-09-24T14:41:07Z</time>
      </trkpt>
      <trkpt lat="45.90246" lon="5.34762">
        <ele>207.9</ele>
        <time>2022-09-24T14:41:08Z</time>
      </trkpt>
      <trkpt lat="45.90246" lon="5.34758">
        <ele>207.9</ele>
        <time>2022-09-24T14:41:09Z</time>
      </trkpt>
      <trkpt lat="45.90245" lon="5.34755">
        <ele>208</ele>
        <time>2022-09-24T14:41:10Z</time>
      </trkpt>
      <trkpt lat="45.90245" lon="5.34752">
        <ele>208</ele>
        <time>2022-09-24T14:41:11Z</time>
      </trkpt>
      <trkpt lat="45.90244" lon="5.34748">
        <ele>208</ele>
        <time>2022-09-24T14:41:12Z</time>
      </trkpt>
      <trkpt lat="45.90243" lon="5.34745">
        <ele>208.1</ele>
        <time>2022-09-24T14:41:13Z</time>
      </trkpt>
      <trkpt lat="45.90243" lon="5.34742">
        <ele>208.1</ele>
        <time>2022-09-24T14:41:14Z</time>
      </trkpt>
      <trkpt lat="45.90242" lon="5.34739">
        <ele>208.1</ele>
        <time>2022-09-24T14:41:15Z</time>
      </trkpt>
      <trkpt lat="45.90241" lon="5.34736">
        <ele>208.1</ele>
        <time>2022-09-24T14:41:16Z</time>
      </trkpt>
      <trkpt lat="45.90241" lon="5.34733">
        <ele>208.2</ele>
        <time>2022-09-24T14:41:17Z</time>
      </trkpt>
      <trkpt lat="45.9024" lon="5.34729">
        <ele>208.2</ele>
        <time>2022-09-24T14:41:18Z</time>
      </trkpt>
      <trkpt lat="45.90239" lon="5.34726">
        <ele>208.2</ele>
        <time>2022-09-24T14:41:19Z</time>
      </trkpt>
      <trkpt lat="45.90239" lon="5.34723">
        <ele>208.3</ele>
        <time>2022-09-24T14:41:20Z</time>
      </trkpt>
      <trkpt lat="45.90238" lon="5.3472">
        <ele>208.3</ele>
        <time>2022-09-24T14:54:00Z</time>
      </trkpt>
      <trkpt lat="45.90238" lon="5.34717">
        <ele>208.3</ele>
        <time>2022-09-24T14:54:01Z</time>
      </trkpt>
      <trkpt lat="45.90237" lon="5.34712">
        <ele>208.4</ele>
        <time>2022-09-24T14:54:02Z</time>
      </trkpt>
      <trkpt lat="45.90236" lon="5.34705">
        <ele>208.4</ele>
        <time>2022-09-24T14:54:03Z</time>
      </trkpt>
      <trkpt lat="45.90235" lon="5.34699">
        <ele>208.4</ele>
        <time>2022-09-24T14:54:04Z</time>
      </trkpt>
      <trkpt lat="45.90234" lon="5.34693">
        <ele>208.4</ele>
        <time>2022-09-24T14:54:05Z</time>
      </trkpt>
      <trkpt lat="45.90234" lon="5.34687">
        <ele>208.4</ele>
        <time>2022-09-24T14:54:06Z</time>
      </trkpt>
      <trkpt lat="45.90234" lon="5.34682">
        <ele>208.4</ele>
        <time>2022-09-24T14:54:07Z</time>
      </trkpt>
      <trkpt lat="45.90233" lon="5.34675">
        <ele>208.4</ele>
        <time>2022-09-24T14:54:08Z</time>
      </trkpt>
      <trkpt lat="45.90232" lon="5.3467">
        <ele>208.5</ele>
        <time>2022-09-24T14:54:09Z</time>
      </trkpt>
      <trkpt lat="45.90233" lon="5.34663">
        <ele>209</ele>
        <time>2022-09-24T14:54:10Z</time>
      </trkpt>
      <trkpt lat="45.90233" lon="5.34657">
        <ele>209.4</ele>
        <time>2022-09-24T14:54:11Z</time>
      </trkpt>
      <trkpt lat="45.90232" lon="5.3465">
        <ele>209.9</ele>
        <time>2022-09-24T14:54:12Z</time>
      </trkpt>
      <trkpt lat="45.90232" lon="5.34644">
        <ele>209.8</ele>
        <time>2022-09-24T14:54:13Z</time>
      </trkpt>
      <trkpt lat="45.90232" lon="5.3464">
        <ele>209.8</ele>
        <time>2022-09-24T14:54:14Z</time>
      </trkpt>
      <trkpt lat="45.90231" lon="5.34634">
        <ele>209.8</ele>
        <time>2022-09-24T14:54:15Z</time>
      </trkpt>
      <trkpt lat="45.90231" lon="5.34632">
        <ele>209.7</ele>
        <time>2022-09-24T14:54:16Z</time>
      </trkpt>
      <trkpt lat="45.9023" lon="5.34626">
        <ele>209.7</ele>
        <time>2022-09-24T14:54:17Z</time>
      </trkpt>
      <trkpt lat="45.9023" lon="5.34624">
        <ele>209.7</ele>
        <time>2022-09-24T14:54:18Z</time>
      </trkpt>
      <trkpt lat="45.9023" lon="5.3462">
        <ele>209.6</ele>
        <time>2022-09-24T14:54:19Z</time>
      </trkpt>
      <trkpt lat="45.90231" lon="5.34616">
        <ele>209.6</ele>
        <time>2022-09-24T14:54:20Z</time>
      </trkpt>
      <trkpt lat="45.90232" lon="5.34612">
        <ele>209.5</ele>
        <time>2022-09-24T14:54:21Z</time>
      </trkpt>
      <trkpt lat="45.90231" lon="5.34606">
        <ele>209.5</ele>
        <time>2022-09-24T14:54:22Z</time>
      </trkpt>
      <trkpt lat="45.90231" lon="5.34604">
        <ele>209.5</ele>
        <time>2022-09-24T14:54:23Z</time>
      </trkpt>
      <trkpt lat="45.90231" lon="5.34599">
        <ele>209.4</ele>
        <time>2022-09-24T14:54:24Z</time>
      </trkpt>
      <trkpt lat="45.90231" lon="5.34594">
        <ele>209.3</ele>
        <time>2022-09-24T14:54:25Z</time>
      </trkpt>
      <trkpt lat="45.90232" lon="5.34589">
        <ele>209.3</ele>
        <time>2022-09-24T14:54:26Z</time>
      </trkpt>
      <trkpt lat="45.90232" lon="5.34583">
        <ele>209.2</ele>
        <time>2022-09-24T14:54:27Z</time>
      </trkpt>
      <trkpt lat="45.90233" lon="5.34578">
        <ele>209.1</ele>
        <time>2022-09-24T14:54:28Z</time>
      </trkpt>
      <trkpt lat="45.90233" lon="5.34573">
        <ele>209.1</ele>
        <time>2022-09-24T14:54:29Z</time>
      </trkpt>
      <trkpt lat="45.90233" lon="5.34568">
        <ele>209</ele>
        <time>2022-09-24T14:54:30Z</time>
      </trkpt>
      <trkpt lat="45.90233" lon="5.34564">
        <ele>209</ele>
        <time>2022-09-24T14:54:31Z</time>
      </trkpt>
      <trkpt lat="45.90233" lon="5.34563">
        <ele>209</ele>
        <time>2022-09-24T14:54:32Z</time>
      </trkpt>
      <trkpt lat="45.90233" lon="5.34561">
        <ele>209</ele>
        <time>2022-09-24T14:54:33Z</time>
      </trkpt>
      <trkpt lat="45.90233" lon="5.34559">
        <ele>208.9</ele>
        <time>2022-09-24T14:54:34Z</time>
      </trkpt>
      <trkpt lat="45.90233" lon="5.34558">
        <ele>208.9</ele>
        <time>2022-09-24T14:54:35Z</time>
      </trkpt>
      <trkpt lat="45.90233" lon="5.34557">
        <ele>208.9</ele>
        <time>2022-09-24T14:54:36Z</time>
      </trkpt>
      <trkpt lat="45.90233" lon="5.34556">
        <ele>208.9</ele>
        <time>2022-09-24T14:54:37Z</time>
      </trkpt>
      <trkpt lat="45.90234" lon="5.34555">
        <ele>208.9</ele>
        <time>2022-09-24T14:54:38Z</time>
      </trkpt>
      <trkpt lat="45.9023" lon="5.34553">
        <ele>208.8</ele>
        <time>2022-09-24T14:54:39Z</time>
      </trkpt>
      <trkpt lat="45.90228" lon="5.34552">
        <ele>208.8</ele>
        <time>2022-09-24T14:54:40Z</time>
      </trkpt>
      <trkpt lat="45.90226" lon="5.34552">
        <ele>208.8</ele>
        <time>2022-09-24T14:54:41Z</time>
      </trkpt>
      <trkpt lat="45.90223" lon="5.34551">
        <ele>208.8</ele>
        <time>2022-09-24T14:54:52Z</time>
      </trkpt>
      <trkpt lat="45.90221" lon="5.3455">
        <ele>208.8</ele>
        <time>2022-09-24T14:54:53Z</time>
      </trkpt>
      <trkpt lat="45.90218" lon="5.34549">
        <ele>208.7</ele>
        <time>2022-09-24T14:54:54Z</time>
      </trkpt>
      <trkpt lat="45.90217" lon="5.34548">
        <ele>208.7</ele>
        <time>2022-09-24T14:54:55Z</time>
      </trkpt>
      <trkpt lat="45.90216" lon="5.34548">
        <ele>208.7</ele>
        <time>2022-09-24T14:54:56Z</time>
      </trkpt>
      <trkpt lat="45.90216" lon="5.34549">
        <ele>208.7</ele>
        <time>2022-09-24T14:54:57Z</time>
      </trkpt>
      <trkpt lat="45.90215" lon="5.34549">
        <ele>208.7</ele>
        <time>2022-09-24T14:54:58Z</time>
      </trkpt>
      <trkpt lat="45.90214" lon="5.3455">
        <ele>208.7</ele>
        <time>2022-09-24T14:54:59Z</time>
      </trkpt>
      <trkpt lat="45.90214" lon="5.34551">
        <ele>208.7</ele>
        <time>2022-09-24T14:55:00Z</time>
      </trkpt>
      <trkpt lat="45.90213" lon="5.34551">
        <ele>208.7</ele>
        <time>2022-09-24T14:55:01Z</time>
      </trkpt>
      <trkpt lat="45.90212" lon="5.34552">
        <ele>208.7</ele>
        <time>2022-09-24T14:55:02Z</time>
      </trkpt>
      <trkpt lat="45.9021" lon="5.34552">
        <ele>208.7</ele>
        <time>2022-09-24T14:55:03Z</time>
      </trkpt>
      <trkpt lat="45.9021" lon="5.34552">
        <ele>208.7</ele>
        <time>2022-09-24T14:55:04Z</time>
      </trkpt>
      <trkpt lat="45.90209" lon="5.34552">
        <ele>208.7</ele>
        <time>2022-09-24T14:55:05Z</time>
      </trkpt>
      <trkpt lat="45.90208" lon="5.34553">
        <ele>208.7</ele>
        <time>2022-09-24T14:55:06Z</time>
      </trkpt>
      <trkpt lat="45.9022" lon="5.34552">
        <ele>208.7</ele>
        <time>2022-09-24T14:55:07Z</time>
      </trkpt>
      <trkpt lat="45.90234" lon="5.34552">
        <ele>208.9</ele>
        <time>2022-09-24T14:55:08Z</time>
      </trkpt>
      <trkpt lat="45.90247" lon="5.34552">
        <ele>209.1</ele>
        <time>2022-09-24T14:55:50Z</time>
      </trkpt>
      <trkpt lat="45.90261" lon="5.34553">
        <ele>209.3</ele>
        <time>2022-09-24T14:55:51Z</time>
      </trkpt>
      <trkpt lat="45.90263" lon="5.3455">
        <ele>209.3</ele>
        <time>2022-09-24T14:55:52Z</time>
      </trkpt>
      <trkpt lat="45.90266" lon="5.34547">
        <ele>209.3</ele>
        <time>2022-09-24T14:55:53Z</time>
      </trkpt>
      <trkpt lat="45.90266" lon="5.34546">
        <ele>209.3</ele>
        <time>2022-09-24T14:55:54Z</time>
      </trkpt>
      <trkpt lat="45.90267" lon="5.34545">
        <ele>209.3</ele>
        <time>2022-09-24T14:55:55Z</time>
      </trkpt>
      <trkpt lat="45.90268" lon="5.34543">
        <ele>209.3</ele>
        <time>2022-09-24T14:55:56Z</time>
      </trkpt>
      <trkpt lat="45.90271" lon="5.3454">
        <ele>209.3</ele>
        <time>2022-09-24T14:55:57Z</time>
      </trkpt>
      <trkpt lat="45.90269" lon="5.34534">
        <ele>209.4</ele>
        <time>2022-09-24T14:55:58Z</time>
      </trkpt>
      <trkpt lat="45.90268" lon="5.34532">
        <ele>209.4</ele>
        <time>2022-09-24T14:55:59Z</time>
      </trkpt>
      <trkpt lat="45.90264" lon="5.34533">
        <ele>209.5</ele>
        <time>2022-09-24T14:56:00Z</time>
      </trkpt>
      <trkpt lat="45.90262" lon="5.34539">
        <ele>209.6</ele>
        <time>2022-09-24T14:56:01Z</time>
      </trkpt>
      <trkpt lat="45.90263" lon="5.34545">
        <ele>209.7</ele>
        <time>2022-09-24T14:56:02Z</time>
      </trkpt>
      <trkpt lat="45.90263" lon="5.34549">
        <ele>209.8</ele>
        <time>2022-09-24T14:56:03Z</time>
      </trkpt>
      <trkpt lat="45.90263" lon="5.34553">
        <ele>209.8</ele>
        <time>2022-09-24T14:56:04Z</time>
      </trkpt>
      <trkpt lat="45.90263" lon="5.34557">
        <ele>209.9</ele>
        <time>2022-09-24T14:56:05Z</time>
      </trkpt>
      <trkpt lat="45.90263" lon="5.34562">
        <ele>209.9</ele>
        <time>2022-09-24T14:56:06Z</time>
      </trkpt>
      <trkpt lat="45.90264" lon="5.34565">
        <ele>210</ele>
        <time>2022-09-24T14:56:07Z</time>
      </trkpt>
      <trkpt lat="45.90264" lon="5.3457">
        <ele>210</ele>
        <time>2022-09-24T14:56:08Z</time>
      </trkpt>
      <trkpt lat="45.90264" lon="5.34574">
        <ele>210</ele>
        <time>2022-09-24T14:56:09Z</time>
      </trkpt>
      <trkpt lat="45.90262" lon="5.34579">
        <ele>210.1</ele>
        <time>2022-09-24T14:56:10Z</time>
      </trkpt>
      <trkpt lat="45.90261" lon="5.3458">
        <ele>210.1</ele>
        <time>2022-09-24T14:56:11Z</time>
      </trkpt>
      <trkpt lat="45.90259" lon="5.34584">
        <ele>210.1</ele>
        <time>2022-09-24T14:56:12Z</time>
      </trkpt>
      <trkpt lat="45.90256" lon="5.34587">
        <ele>210.2</ele>
        <time>2022-09-24T14:56:13Z</time>
      </trkpt>
      <trkpt lat="45.90255" lon="5.34588">
        <ele>210.2</ele>
        <time>2022-09-24T14:56:14Z</time>
      </trkpt>
      <trkpt lat="45.90252" lon="5.34591">
        <ele>210.1</ele>
        <time>2022-09-24T14:56:15Z</time>
      </trkpt>
      <trkpt lat="45.90249" lon="5.34594">
        <ele>210.1</ele>
        <time>2022-09-24T14:56:16Z</time>
      </trkpt>
      <trkpt lat="45.90248" lon="5.34599">
        <ele>210.1</ele>
        <time>2022-09-24T14:56:17Z</time>
      </trkpt>
      <trkpt lat="45.90247" lon="5.34604">
        <ele>210.2</ele>
        <time>2022-09-24T14:56:18Z</time>
      </trkpt>
      <trkpt lat="45.90247" lon="5.34608">
        <ele>210.3</ele>
        <time>2022-09-24T14:56:19Z</time>
      </trkpt>
      <trkpt lat="45.90247" lon="5.34613">
        <ele>210.4</ele>
        <time>2022-09-24T14:56:20Z</time>
      </trkpt>
      <trkpt lat="45.90247" lon="5.34618">
        <ele>210.5</ele>
        <time>2022-09-24T14:56:21Z</time>
      </trkpt>
      <trkpt lat="45.90247" lon="5.34623">
        <ele>210.6</ele>
        <time>2022-09-24T14:56:22Z</time>
      </trkpt>
      <trkpt lat="45.90248" lon="5.34627">
        <ele>210.6</ele>
        <time>2022-09-24T14:56:23Z</time>
      </trkpt>
      <trkpt lat="45.90248" lon="5.34631">
        <ele>210.7</ele>
        <time>2022-09-24T14:56:24Z</time>
      </trkpt>
      <trkpt lat="45.90247" lon="5.34636">
        <ele>210.8</ele>
        <time>2022-09-24T14:56:25Z</time>
      </trkpt>
      <trkpt lat="45.90247" lon="5.34641">
        <ele>210.9</ele>
        <time>2022-09-24T14:56:26Z</time>
      </trkpt>
      <trkpt lat="45.90246" lon="5.34646">
        <ele>211</ele>
        <time>2022-09-24T14:56:27Z</time>
      </trkpt>
      <trkpt lat="45.90245" lon="5.3465">
        <ele>211.1</ele>
        <time>2022-09-24T14:56:28Z</time>
      </trkpt>
      <trkpt lat="45.90245" lon="5.34651">
        <ele>211.1</ele>
        <time>2022-09-24T14:56:29Z</time>
      </trkpt>
      <trkpt lat="45.90243" lon="5.34652">
        <ele>211.1</ele>
        <time>2022-09-24T14:56:30Z</time>
      </trkpt>
      <trkpt lat="45.90242" lon="5.34654">
        <ele>210.8</ele>
        <time>2022-09-24T14:56:31Z</time>
      </trkpt>
      <trkpt lat="45.90239" lon="5.34656">
        <ele>210.5</ele>
        <time>2022-09-24T14:56:32Z</time>
      </trkpt>
      <trkpt lat="45.90237" lon="5.34658">
        <ele>210.1</ele>
        <time>2022-09-24T14:56:33Z</time>
      </trkpt>
      <trkpt lat="45.90234" lon="5.34661">
        <ele>209.7</ele>
        <time>2022-09-24T14:56:34Z</time>
      </trkpt>
      <trkpt lat="45.90233" lon="5.34662">
        <ele>209.6</ele>
        <time>2022-09-24T14:56:35Z</time>
      </trkpt>
      <trkpt lat="45.90231" lon="5.34665">
        <ele>209.2</ele>
        <time>2022-09-24T14:56:36Z</time>
      </trkpt>
      <trkpt lat="45.90229" lon="5.34669">
        <ele>208.5</ele>
        <time>2022-09-24T14:56:37Z</time>
      </trkpt>
      <trkpt lat="45.9023" lon="5.34675">
        <ele>208.4</ele>
        <time>2022-09-24T14:56:38Z</time>
      </trkpt>
      <trkpt lat="45.90231" lon="5.34679">
        <ele>208.4</ele>
        <time>2022-09-24T14:56:39Z</time>
      </trkpt>
      <trkpt lat="45.90233" lon="5.34683">
        <ele>208.4</ele>
        <time>2022-09-24T14:56:40Z</time>
      </trkpt>
      <trkpt lat="45.90233" lon="5.34687">
        <ele>208.4</ele>
        <time>2022-09-24T14:56:41Z</time>
      </trkpt>
      <trkpt lat="45.90234" lon="5.34691">
        <ele>208.4</ele>
        <time>2022-09-24T14:56:42Z</time>
      </trkpt>
      <trkpt lat="45.90235" lon="5.34696">
        <ele>208.4</ele>
        <time>2022-09-24T14:56:43Z</time>
      </trkpt>
      <trkpt lat="45.90235" lon="5.34702">
        <ele>208.4</ele>
        <time>2022-09-24T14:56:44Z</time>
      </trkpt>
      <trkpt lat="45.90236" lon="5.34707">
        <ele>208.4</ele>
        <time>2022-09-24T14:56:45Z</time>
      </trkpt>
      <trkpt lat="45.90237" lon="5.34712">
        <ele>208.4</ele>
        <time>2022-09-24T14:56:46Z</time>
      </trkpt>
      <trkpt lat="45.90238" lon="5.34718">
        <ele>208.3</ele>
        <time>2022-09-24T14:56:47Z</time>
      </trkpt>
      <trkpt lat="45.90237" lon="5.34723">
        <ele>208.3</ele>
        <time>2022-09-24T14:56:48Z</time>
      </trkpt>
      <trkpt lat="45.90238" lon="5.34728">
        <ele>208.2</ele>
        <time>2022-09-24T14:56:49Z</time>
      </trkpt>
      <trkpt lat="45.90239" lon="5.34732">
        <ele>208.2</ele>
        <time>2022-09-24T14:56:50Z</time>
      </trkpt>
      <trkpt lat="45.90239" lon="5.34736">
        <ele>208.1</ele>
        <time>2022-09-24T14:56:51Z</time>
      </trkpt>
      <trkpt lat="45.9024" lon="5.34741">
        <ele>208.1</ele>
        <time>2022-09-24T14:56:52Z</time>
      </trkpt>
      <trkpt lat="45.90241" lon="5.34743">
        <ele>208.1</ele>
        <time>2022-09-24T14:56:53Z</time>
      </trkpt>
      <trkpt lat="45.90244" lon="5.34747">
        <ele>208.1</ele>
        <time>2022-09-24T14:56:54Z</time>
      </trkpt>
      <trkpt lat="45.90248" lon="5.34746">
        <ele>208.1</ele>
        <time>2022-09-24T14:56:55Z</time>
      </trkpt>
      <trkpt lat="45.90252" lon="5.34744">
        <ele>208.1</ele>
        <time>2022-09-24T14:56:56Z</time>
      </trkpt>
      <trkpt lat="45.90254" lon="5.34741">
        <ele>208.1</ele>
        <time>2022-09-24T14:56:57Z</time>
      </trkpt>
      <trkpt lat="45.90256" lon="5.34739">
        <ele>208.2</ele>
        <time>2022-09-24T14:56:58Z</time>
      </trkpt>
      <trkpt lat="45.90256" lon="5.34738">
        <ele>208.2</ele>
        <time>2022-09-24T14:56:59Z</time>
      </trkpt>
      <trkpt lat="45.90254" lon="5.34739">
        <ele>208.2</ele>
        <time>2022-09-24T14:57:00Z</time>
      </trkpt>
      <trkpt lat="45.90253" lon="5.34739">
        <ele>208.2</ele>
        <time>2022-09-24T14:57:01Z</time>
      </trkpt>
      <trkpt lat="45.90253" lon="5.34739">
        <ele>208.2</ele>
        <time>2022-09-24T14:57:02Z</time>
      </trkpt>
      <trkpt lat="45.90253" lon="5.34739">
        <ele>208.2</ele>
        <time>2022-09-24T14:57:03Z</time>
      </trkpt>
      <trkpt lat="45.90254" lon="5.3474">
        <ele>208.2</ele>
        <time>2022-09-24T14:57:04Z</time>
      </trkpt>
      <trkpt lat="45.90254" lon="5.34739">
        <ele>208.2</ele>
        <time>2022-09-24T14:57:05Z</time>
      </trkpt>
      <trkpt lat="45.90253" lon="5.34739">
        <ele>208.2</ele>
        <time>2022-09-24T14:57:06Z</time>
      </trkpt>
      <trkpt lat="45.90253" lon="5.34739">
        <ele>208.2</ele>
        <time>2022-09-24T14:57:07Z</time>
      </trkpt>
      <trkpt lat="45.90252" lon="5.34738">
        <ele>208.2</ele>
        <time>2022-09-24T14:57:08Z</time>
      </trkpt>
      <trkpt lat="45.90251" lon="5.34738">
        <ele>208.2</ele>
        <time>2022-09-24T14:57:09Z</time>
      </trkpt>
      <trkpt lat="45.9025" lon="5.34738">
        <ele>208.2</ele>
        <time>2022-09-24T15:02:50Z</time>
      </trkpt>
      <trkpt lat="45.90249" lon="5.34737">
        <ele>208.2</ele>
        <time>2022-09-24T15:02:51Z</time>
      </trkpt>
      <trkpt lat="45.90249" lon="5.34737">
        <ele>208.2</ele>
        <time>2022-09-24T15:02:52Z</time>
      </trkpt>
      <trkpt lat="45.90248" lon="5.34736">
        <ele>208.2</ele>
        <time>2022-09-24T15:02:53Z</time>
      </trkpt>
      <trkpt lat="45.90247" lon="5.34736">
        <ele>208.2</ele>
        <time>2022-09-24T15:02:54Z</time>
      </trkpt>
      <trkpt lat="45.90246" lon="5.34735">
        <ele>208.2</ele>
        <time>2022-09-24T15:02:55Z</time>
      </trkpt>
      <trkpt lat="45.90245" lon="5.34735">
        <ele>208.2</ele>
        <time>2022-09-24T15:02:56Z</time>
      </trkpt>
      <trkpt lat="45.90244" lon="5.34734">
        <ele>208.2</ele>
        <time>2022-09-24T15:02:57Z</time>
      </trkpt>
      <trkpt lat="45.90244" lon="5.34733">
        <ele>208.2</ele>
        <time>2022-09-24T15:02:58Z</time>
      </trkpt>
      <trkpt lat="45.90243" lon="5.34732">
        <ele>208.3</ele>
        <time>2022-09-24T15:02:59Z</time>
      </trkpt>
      <trkpt lat="45.90242" lon="5.34732">
        <ele>208.3</ele>
        <time>2022-09-24T15:03:18Z</time>
      </trkpt>
      <trkpt lat="45.90241" lon="5.34731">
        <ele>208.3</ele>
        <time>2022-09-24T15:03:19Z</time>
      </trkpt>
      <trkpt lat="45.90241" lon="5.3473">
        <ele>208.3</ele>
        <time>2022-09-24T15:03:20Z</time>
      </trkpt>
      <trkpt lat="45.9024" lon="5.34729">
        <ele>208.3</ele>
        <time>2022-09-24T15:03:21Z</time>
      </trkpt>
      <trkpt lat="45.90239" lon="5.34728">
        <ele>208.3</ele>
        <time>2022-09-24T15:03:22Z</time>
      </trkpt>
      <trkpt lat="45.90238" lon="5.34728">
        <ele>208.3</ele>
        <time>2022-09-24T15:03:23Z</time>
      </trkpt>
      <trkpt lat="45.90237" lon="5.34727">
        <ele>208.3</ele>
        <time>2022-09-24T15:03:24Z</time>
      </trkpt>
      <trkpt lat="45.90237" lon="5.34726">
        <ele>208.3</ele>
        <time>2022-09-24T15:03:25Z</time>
      </trkpt>
      <trkpt lat="45.90236" lon="5.34725">
        <ele>208.3</ele>
        <time>2022-09-24T15:03:26Z</time>
      </trkpt>
      <trkpt lat="45.90235" lon="5.34725">
        <ele>208.3</ele>
        <time>2022-09-24T15:03:27Z</time>
      </trkpt>
      <trkpt lat="45.90234" lon="5.34724">
        <ele>208.3</ele>
        <time>2022-09-24T15:04:44Z</time>
      </trkpt>
      <trkpt lat="45.90234" lon="5.34723">
        <ele>208.3</ele>
        <time>2022-09-24T15:04:45Z</time>
      </trkpt>
      <trkpt lat="45.90234" lon="5.3472">
        <ele>208.3</ele>
        <time>2022-09-24T15:04:46Z</time>
      </trkpt>
      <trkpt lat="45.90235" lon="5.34719">
        <ele>208.3</ele>
        <time>2022-09-24T15:04:47Z</time>
      </trkpt>
      <trkpt lat="45.90235" lon="5.34717">
        <ele>208.3</ele>
        <time>2022-09-24T15:04:48Z</time>
      </trkpt>
      <trkpt lat="45.90236" lon="5.34713">
        <ele>208.4</ele>
        <time>2022-09-24T15:04:49Z</time>
      </trkpt>
      <trkpt lat="45.90235" lon="5.34711">
        <ele>208.4</ele>
        <time>2022-09-24T15:04:50Z</time>
      </trkpt>
      <trkpt lat="45.90237" lon="5.34708">
        <ele>208.4</ele>
        <time>2022-09-24T15:04:51Z</time>
      </trkpt>
      <trkpt lat="45.90239" lon="5.34704">
        <ele>208.4</ele>
        <time>2022-09-24T15:04:52Z</time>
      </trkpt>
      <trkpt lat="45.90239" lon="5.34703">
        <ele>208.4</ele>
        <time>2022-09-24T15:04:53Z</time>
      </trkpt>
      <trkpt lat="45.90238" lon="5.34701">
        <ele>208.4</ele>
        <time>2022-09-24T15:04:54Z</time>
      </trkpt>
      <trkpt lat="45.90238" lon="5.34699">
        <ele>208.4</ele>
        <time>2022-09-24T15:04:55Z</time>
      </trkpt>
      <trkpt lat="45.90238" lon="5.34696">
        <ele>208.4</ele>
        <time>2022-09-24T15:04:56Z</time>
      </trkpt>
      <trkpt lat="45.90237" lon="5.34695">
        <ele>208.4</ele>
        <time>2022-09-24T15:04:57Z</time>
      </trkpt>
      <trkpt lat="45.90237" lon="5.34693">
        <ele>208.4</ele>
        <time>2022-09-24T15:04:58Z</time>
      </trkpt>
      <trkpt lat="45.90236" lon="5.34691">
        <ele>208.4</ele>
        <time>2022-09-24T15:04:59Z</time>
      </trkpt>
      <trkpt lat="45.90236" lon="5.34689">
        <ele>208.4</ele>
        <time>2022-09-24T15:05:00Z</time>
      </trkpt>
      <trkpt lat="45.90237" lon="5.34687">
        <ele>208.4</ele>
        <time>2022-09-24T15:05:01Z</time>
      </trkpt>
      <trkpt lat="45.90237" lon="5.34685">
        <ele>208.4</ele>
        <time>2022-09-24T15:05:02Z</time>
      </trkpt>
      <trkpt lat="45.90237" lon="5.34681">
        <ele>208.4</ele>
        <time>2022-09-24T15:05:03Z</time>
      </trkpt>
      <trkpt lat="45.90237" lon="5.3468">
        <ele>208.4</ele>
        <time>2022-09-24T15:05:04Z</time>
      </trkpt>
      <trkpt lat="45.90237" lon="5.34679">
        <ele>208.4</ele>
        <time>2022-09-24T15:05:05Z</time>
      </trkpt>
      <trkpt lat="45.90238" lon="5.34675">
        <ele>208.4</ele>
        <time>2022-09-24T15:05:06Z</time>
      </trkpt>
      <trkpt lat="45.90238" lon="5.34674">
        <ele>208.4</ele>
        <time>2022-09-24T15:05:07Z</time>
      </trkpt>
      <trkpt lat="45.90238" lon="5.34672">
        <ele>208.4</ele>
        <time>2022-09-24T15:05:08Z</time>
      </trkpt>
      <trkpt lat="45.90237" lon="5.3467">
        <ele>208.4</ele>
        <time>2022-09-24T15:05:09Z</time>
      </trkpt>
      <trkpt lat="45.90237" lon="5.34668">
        <ele>208.5</ele>
        <time>2022-09-24T15:05:10Z</time>
      </trkpt>
      <trkpt lat="45.90237" lon="5.34666">
        <ele>208.8</ele>
        <time>2022-09-24T15:05:11Z</time>
      </trkpt>
      <trkpt lat="45.90237" lon="5.34663">
        <ele>209</ele>
        <time>2022-09-24T15:05:12Z</time>
      </trkpt>
      <trkpt lat="45.90236" lon="5.34661">
        <ele>209.1</ele>
        <time>2022-09-24T15:05:13Z</time>
      </trkpt>
      <trkpt lat="45.90236" lon="5.3466">
        <ele>209.2</ele>
        <time>2022-09-24T15:05:14Z</time>
      </trkpt>
      <trkpt lat="45.90235" lon="5.34658">
        <ele>209.3</ele>
        <time>2022-09-24T15:05:15Z</time>
      </trkpt>
      <trkpt lat="45.90233" lon="5.34657">
        <ele>209.5</ele>
        <time>2022-09-24T15:05:16Z</time>
      </trkpt>
      <trkpt lat="45.90232" lon="5.34654">
        <ele>209.6</ele>
        <time>2022-09-24T15:05:17Z</time>
      </trkpt>
      <trkpt lat="45.90232" lon="5.34653">
        <ele>209.7</ele>
        <time>2022-09-24T15:05:18Z</time>
      </trkpt>
      <trkpt lat="45.90232" lon="5.34649">
        <ele>209.9</ele>
        <time>2022-09-24T15:05:19Z</time>
      </trkpt>
      <trkpt lat="45.90232" lon="5.34648">
        <ele>209.9</ele>
        <time>2022-09-24T15:05:20Z</time>
      </trkpt>
      <trkpt lat="45.90232" lon="5.34644">
        <ele>209.8</ele>
        <time>2022-09-24T15:05:21Z</time>
      </trkpt>
      <trkpt lat="45.90232" lon="5.34643">
        <ele>209.8</ele>
        <time>2022-09-24T15:05:22Z</time>
      </trkpt>
      <trkpt lat="45.90233" lon="5.34639">
        <ele>209.8</ele>
        <time>2022-09-24T15:05:23Z</time>
      </trkpt>
      <trkpt lat="45.90232" lon="5.34638">
        <ele>209.8</ele>
        <time>2022-09-24T15:05:24Z</time>
      </trkpt>
      <trkpt lat="45.90233" lon="5.34635">
        <ele>209.8</ele>
        <time>2022-09-24T15:05:25Z</time>
      </trkpt>
      <trkpt lat="45.90233" lon="5.34633">
        <ele>209.7</ele>
        <time>2022-09-24T15:05:26Z</time>
      </trkpt>
      <trkpt lat="45.90233" lon="5.3463">
        <ele>209.7</ele>
        <time>2022-09-24T15:05:27Z</time>
      </trkpt>
      <trkpt lat="45.90233" lon="5.34629">
        <ele>209.7</ele>
        <time>2022-09-24T15:05:28Z</time>
      </trkpt>
      <trkpt lat="45.90233" lon="5.34626">
        <ele>209.7</ele>
        <time>2022-09-24T15:05:29Z</time>
      </trkpt>
      <trkpt lat="45.90233" lon="5.34624">
        <ele>209.6</ele>
        <time>2022-09-24T15:05:30Z</time>
      </trkpt>
      <trkpt lat="45.90234" lon="5.34621">
        <ele>209.6</ele>
        <time>2022-09-24T15:05:31Z</time>
      </trkpt>
      <trkpt lat="45.90234" lon="5.34619">
        <ele>209.6</ele>
        <time>2022-09-24T15:05:32Z</time>
      </trkpt>
      <trkpt lat="45.90234" lon="5.34617">
        <ele>209.6</ele>
        <time>2022-09-24T15:05:33Z</time>
      </trkpt>
      <trkpt lat="45.90234" lon="5.34615">
        <ele>209.6</ele>
        <time>2022-09-24T15:05:34Z</time>
      </trkpt>
      <trkpt lat="45.90234" lon="5.34611">
        <ele>209.5</ele>
        <time>2022-09-24T15:05:35Z</time>
      </trkpt>
      <trkpt lat="45.90234" lon="5.3461">
        <ele>209.5</ele>
        <time>2022-09-24T15:05:36Z</time>
      </trkpt>
      <trkpt lat="45.90234" lon="5.34607">
        <ele>209.5</ele>
        <time>2022-09-24T15:05:37Z</time>
      </trkpt>
      <trkpt lat="45.90234" lon="5.34604">
        <ele>209.5</ele>
        <time>2022-09-24T15:05:38Z</time>
      </trkpt>
      <trkpt lat="45.90234" lon="5.34602">
        <ele>209.4</ele>
        <time>2022-09-24T15:05:39Z</time>
      </trkpt>
      <trkpt lat="45.90235" lon="5.34599">
        <ele>209.4</ele>
        <time>2022-09-24T15:05:40Z</time>
      </trkpt>
      <trkpt lat="45.90235" lon="5.34597">
        <ele>209.4</ele>
        <time>2022-09-24T15:05:41Z</time>
      </trkpt>
      <trkpt lat="45.90235" lon="5.34595">
        <ele>209.4</ele>
        <time>2022-09-24T15:05:42Z</time>
      </trkpt>
      <trkpt lat="45.90236" lon="5.34592">
        <ele>209.3</ele>
        <time>2022-09-24T15:05:43Z</time>
      </trkpt>
      <trkpt lat="45.90236" lon="5.3459">
        <ele>209.3</ele>
        <time>2022-09-24T15:05:44Z</time>
      </trkpt>
      <trkpt lat="45.90236" lon="5.34588">
        <ele>209.3</ele>
        <time>2022-09-24T15:05:45Z</time>
      </trkpt>
      <trkpt lat="45.90236" lon="5.34586">
        <ele>209.3</ele>
        <time>2022-09-24T15:05:46Z</time>
      </trkpt>
      <trkpt lat="45.90235" lon="5.34582">
        <ele>209.2</ele>
        <time>2022-09-24T15:05:47Z</time>
      </trkpt>
      <trkpt lat="45.90235" lon="5.34581">
        <ele>209.2</ele>
        <time>2022-09-24T15:05:48Z</time>
      </trkpt>
      <trkpt lat="45.90236" lon="5.34577">
        <ele>209.2</ele>
        <time>2022-09-24T15:05:49Z</time>
      </trkpt>
      <trkpt lat="45.90236" lon="5.34576">
        <ele>209.2</ele>
        <time>2022-09-24T15:05:50Z</time>
      </trkpt>
      <trkpt lat="45.90236" lon="5.34573">
        <ele>209.1</ele>
        <time>2022-09-24T15:05:51Z</time>
      </trkpt>
      <trkpt lat="45.90236" lon="5.34571">
        <ele>209.1</ele>
        <time>2022-09-24T15:05:52Z</time>
      </trkpt>
      <trkpt lat="45.90236" lon="5.34568">
        <ele>209.1</ele>
        <time>2022-09-24T15:05:53Z</time>
      </trkpt>
      <trkpt lat="45.90235" lon="5.34566">
        <ele>209.1</ele>
        <time>2022-09-24T15:05:54Z</time>
      </trkpt>
      <trkpt lat="45.90235" lon="5.34565">
        <ele>209.1</ele>
        <time>2022-09-24T15:05:55Z</time>
      </trkpt>
      <trkpt lat="45.90235" lon="5.34563">
        <ele>209.1</ele>
        <time>2022-09-24T15:05:56Z</time>
      </trkpt>
      <trkpt lat="45.90236" lon="5.34561">
        <ele>209</ele>
        <time>2022-09-24T15:05:57Z</time>
      </trkpt>
      <trkpt lat="45.90236" lon="5.34558">
        <ele>209</ele>
        <time>2022-09-24T15:05:58Z</time>
      </trkpt>
      <trkpt lat="45.90236" lon="5.34556">
        <ele>209</ele>
        <time>2022-09-24T15:05:59Z</time>
      </trkpt>
      <trkpt lat="45.90236" lon="5.34557">
        <ele>209</ele>
        <time>2022-09-24T15:06:00Z</time>
      </trkpt>
      <trkpt lat="45.90236" lon="5.3456">
        <ele>209</ele>
        <time>2022-09-24T15:06:01Z</time>
      </trkpt>
      <trkpt lat="45.90237" lon="5.3456">
        <ele>209</ele>
        <time>2022-09-24T15:06:02Z</time>
      </trkpt>
      <trkpt lat="45.90237" lon="5.34561">
        <ele>209</ele>
        <time>2022-09-24T15:06:03Z</time>
      </trkpt>
      <trkpt lat="45.90237" lon="5.34559">
        <ele>209</ele>
        <time>2022-09-24T15:06:04Z</time>
      </trkpt>
      <trkpt lat="45.90236" lon="5.34559">
        <ele>209</ele>
        <time>2022-09-24T15:06:05Z</time>
      </trkpt>
      <trkpt lat="45.90236" lon="5.34558">
        <ele>209</ele>
        <time>2022-09-24T15:06:06Z</time>
      </trkpt>
      <trkpt lat="45.90236" lon="5.34559">
        <ele>209</ele>
        <time>2022-09-24T15:06:07Z</time>
      </trkpt>
      <trkpt lat="45.90236" lon="5.34558">
        <ele>209</ele>
        <time>2022-09-24T15:06:08Z</time>
      </trkpt>
      <trkpt lat="45.90235" lon="5.34557">
        <ele>209</ele>
        <time>2022-09-24T15:06:09Z</time>
      </trkpt>
      <trkpt lat="45.90234" lon="5.34557">
        <ele>208.9</ele>
        <time>2022-09-24T15:06:10Z</time>
      </trkpt>
      <trkpt lat="45.90234" lon="5.34556">
        <ele>208.9</ele>
        <time>2022-09-24T15:06:11Z</time>
      </trkpt>
      <trkpt lat="45.90234" lon="5.34555">
        <ele>208.9</ele>
        <time>2022-09-24T15:06:12Z</time>
      </trkpt>
      <trkpt lat="45.90234" lon="5.34555">
        <ele>208.9</ele>
        <time>2022-09-24T15:06:13Z</time>
      </trkpt>
      <trkpt lat="45.90224" lon="5.34538">
        <ele>208.8</ele>
        <time>2022-09-24T15:06:25Z</time>
      </trkpt>
      <trkpt lat="45.90223" lon="5.34535">
        <ele>208.8</ele>
        <time>2022-09-24T15:06:26Z</time>
      </trkpt>
      <trkpt lat="45.90221" lon="5.34537">
        <ele>208.8</ele>
        <time>2022-09-24T15:06:27Z</time>
      </trkpt>
      <trkpt lat="45.9022" lon="5.34535">
        <ele>208.8</ele>
        <time>2022-09-24T15:06:28Z</time>
      </trkpt>
      <trkpt lat="45.9022" lon="5.34537">
        <ele>208.8</ele>
        <time>2022-09-24T15:06:29Z</time>
      </trkpt>
      <trkpt lat="45.90222" lon="5.34538">
        <ele>208.8</ele>
        <time>2022-09-24T15:06:30Z</time>
      </trkpt>
      <trkpt lat="45.90222" lon="5.34538">
        <ele>208.8</ele>
        <time>2022-09-24T15:06:31Z</time>
      </trkpt>
      <trkpt lat="45.90222" lon="5.34538">
        <ele>208.8</ele>
        <time>2022-09-24T15:06:32Z</time>
      </trkpt>
      <trkpt lat="45.90221" lon="5.34538">
        <ele>208.8</ele>
        <time>2022-09-24T15:06:33Z</time>
      </trkpt>
      <trkpt lat="45.90221" lon="5.34537">
        <ele>208.8</ele>
        <time>2022-09-24T15:06:34Z</time>
      </trkpt>
      <trkpt lat="45.90223" lon="5.34535">
        <ele>208.8</ele>
        <time>2022-09-24T15:06:35Z</time>
      </trkpt>
      <trkpt lat="45.90224" lon="5.34536">
        <ele>208.8</ele>
        <time>2022-09-24T15:06:36Z</time>
      </trkpt>
      <trkpt lat="45.90225" lon="5.34537">
        <ele>208.8</ele>
        <time>2022-09-24T15:06:37Z</time>
      </trkpt>
      <trkpt lat="45.90225" lon="5.34538">
        <ele>208.8</ele>
        <time>2022-09-24T15:06:38Z</time>
      </trkpt>
      <trkpt lat="45.90226" lon="5.34539">
        <ele>208.8</ele>
        <time>2022-09-24T15:06:39Z</time>
      </trkpt>
      <trkpt lat="45.90226" lon="5.3454">
        <ele>208.8</ele>
        <time>2022-09-24T15:06:40Z</time>
      </trkpt>
      <trkpt lat="45.90227" lon="5.34541">
        <ele>208.8</ele>
        <time>2022-09-24T15:06:41Z</time>
      </trkpt>
      <trkpt lat="45.90227" lon="5.34542">
        <ele>208.8</ele>
        <time>2022-09-24T15:07:16Z</time>
      </trkpt>
      <trkpt lat="45.90228" lon="5.34543">
        <ele>208.8</ele>
        <time>2022-09-24T15:07:17Z</time>
      </trkpt>
      <trkpt lat="45.90229" lon="5.3454">
        <ele>208.8</ele>
        <time>2022-09-24T15:07:18Z</time>
      </trkpt>
      <trkpt lat="45.9023" lon="5.34538">
        <ele>208.8</ele>
        <time>2022-09-24T15:07:19Z</time>
      </trkpt>
      <trkpt lat="45.9023" lon="5.34537">
        <ele>208.8</ele>
        <time>2022-09-24T15:07:20Z</time>
      </trkpt>
      <trkpt lat="45.9023" lon="5.34535">
        <ele>208.8</ele>
        <time>2022-09-24T15:07:21Z</time>
      </trkpt>
      <trkpt lat="45.9023" lon="5.34534">
        <ele>208.8</ele>
        <time>2022-09-24T15:07:22Z</time>
      </trkpt>
      <trkpt lat="45.90231" lon="5.34532">
        <ele>208.8</ele>
        <time>2022-09-24T15:07:23Z</time>
      </trkpt>
      <trkpt lat="45.90231" lon="5.3453">
        <ele>208.8</ele>
        <time>2022-09-24T15:07:24Z</time>
      </trkpt>
      <trkpt lat="45.90231" lon="5.34529">
        <ele>208.8</ele>
        <time>2022-09-24T15:07:25Z</time>
      </trkpt>
      <trkpt lat="45.90231" lon="5.34527">
        <ele>208.8</ele>
        <time>2022-09-24T15:07:26Z</time>
      </trkpt>
      <trkpt lat="45.90232" lon="5.34525">
        <ele>208.9</ele>
        <time>2022-09-24T15:07:27Z</time>
      </trkpt>
      <trkpt lat="45.90232" lon="5.34524">
        <ele>208.9</ele>
        <time>2022-09-24T15:07:28Z</time>
      </trkpt>
      <trkpt lat="45.90232" lon="5.34522">
        <ele>208.9</ele>
        <time>2022-09-24T15:07:29Z</time>
      </trkpt>
      <trkpt lat="45.90232" lon="5.3452">
        <ele>208.9</ele>
        <time>2022-09-24T15:08:25Z</time>
      </trkpt>
      <trkpt lat="45.90233" lon="5.34519">
        <ele>208.9</ele>
        <time>2022-09-24T15:08:26Z</time>
      </trkpt>
      <trkpt lat="45.90233" lon="5.34517">
        <ele>208.9</ele>
        <time>2022-09-24T15:08:27Z</time>
      </trkpt>
      <trkpt lat="45.90234" lon="5.34517">
        <ele>208.9</ele>
        <time>2022-09-24T15:08:28Z</time>
      </trkpt>
      <trkpt lat="45.90235" lon="5.34518">
        <ele>208.9</ele>
        <time>2022-09-24T15:08:29Z</time>
      </trkpt>
      <trkpt lat="45.90235" lon="5.34519">
        <ele>208.9</ele>
        <time>2022-09-24T15:08:30Z</time>
      </trkpt>
      <trkpt lat="45.90236" lon="5.3452">
        <ele>208.9</ele>
        <time>2022-09-24T15:08:31Z</time>
      </trkpt>
      <trkpt lat="45.90236" lon="5.34522">
        <ele>208.9</ele>
        <time>2022-09-24T15:08:32Z</time>
      </trkpt>
      <trkpt lat="45.90236" lon="5.34522">
        <ele>208.9</ele>
        <time>2022-09-24T15:08:33Z</time>
      </trkpt>
      <trkpt lat="45.90236" lon="5.34523">
        <ele>208.9</ele>
        <time>2022-09-24T15:08:34Z</time>
      </trkpt>
      <trkpt lat="45.90237" lon="5.34524">
        <ele>208.9</ele>
        <time>2022-09-24T15:08:35Z</time>
      </trkpt>
      <trkpt lat="45.90237" lon="5.34524">
        <ele>208.9</ele>
        <time>2022-09-24T15:08:36Z</time>
      </trkpt>
      <trkpt lat="45.90237" lon="5.34525">
        <ele>208.9</ele>
        <time>2022-09-24T15:08:37Z</time>
      </trkpt>
      <trkpt lat="45.90237" lon="5.34525">
        <ele>208.9</ele>
        <time>2022-09-24T15:08:39Z</time>
      </trkpt>
      <trkpt lat="45.90237" lon="5.34525">
        <ele>208.9</ele>
        <time>2022-09-24T15:08:40Z</time>
      </trkpt>
      <trkpt lat="45.90238" lon="5.34525">
        <ele>208.9</ele>
        <time>2022-09-24T15:08:41Z</time>
      </trkpt>
      <trkpt lat="45.90219" lon="5.34506">
        <ele>208.7</ele>
        <time>2022-09-24T15:08:45Z</time>
      </trkpt>
      <trkpt lat="45.90216" lon="5.34505">
        <ele>208.7</ele>
        <time>2022-09-24T15:08:46Z</time>
      </trkpt>
      <trkpt lat="45.90215" lon="5.34504">
        <ele>208.7</ele>
        <time>2022-09-24T15:08:47Z</time>
      </trkpt>
      <trkpt lat="45.90212" lon="5.34503">
        <ele>208.7</ele>
        <time>2022-09-24T15:08:48Z</time>
      </trkpt>
      <trkpt lat="45.90212" lon="5.34502">
        <ele>208.7</ele>
        <time>2022-09-24T15:08:50Z</time>
      </trkpt>
      <trkpt lat="45.90211" lon="5.345">
        <ele>208.7</ele>
        <time>2022-09-24T15:08:51Z</time>
      </trkpt>
      <trkpt lat="45.90211" lon="5.34503">
        <ele>208.7</ele>
        <time>2022-09-24T15:08:52Z</time>
      </trkpt>
      <trkpt lat="45.90214" lon="5.34501">
        <ele>208.7</ele>
        <time>2022-09-24T15:08:53Z</time>
      </trkpt>
      <trkpt lat="45.90211" lon="5.34503">
        <ele>208.7</ele>
        <time>2022-09-24T15:08:54Z</time>
      </trkpt>
      <trkpt lat="45.90208" lon="5.34504">
        <ele>208.7</ele>
        <time>2022-09-24T15:08:55Z</time>
      </trkpt>
      <trkpt lat="45.90206" lon="5.34505">
        <ele>208.7</ele>
        <time>2022-09-24T15:08:56Z</time>
      </trkpt>
      <trkpt lat="45.90205" lon="5.34509">
        <ele>208.7</ele>
        <time>2022-09-24T15:08:57Z</time>
      </trkpt>
      <trkpt lat="45.90205" lon="5.34514">
        <ele>208.7</ele>
        <time>2022-09-24T15:08:58Z</time>
      </trkpt>
      <trkpt lat="45.9021" lon="5.34516">
        <ele>208.7</ele>
        <time>2022-09-24T15:08:59Z</time>
      </trkpt>
      <trkpt lat="45.90213" lon="5.34517">
        <ele>208.7</ele>
        <time>2022-09-24T15:09:00Z</time>
      </trkpt>
      <trkpt lat="45.90218" lon="5.34517">
        <ele>208.7</ele>
        <time>2022-09-24T15:09:01Z</time>
      </trkpt>
      <trkpt lat="45.90223" lon="5.34516">
        <ele>208.7</ele>
        <time>2022-09-24T15:09:02Z</time>
      </trkpt>
      <trkpt lat="45.9022" lon="5.34511">
        <ele>208.7</ele>
        <time>2022-09-24T15:09:03Z</time>
      </trkpt>
      <trkpt lat="45.9022" lon="5.3451">
        <ele>208.7</ele>
        <time>2022-09-24T15:09:04Z</time>
      </trkpt>
      <trkpt lat="45.90219" lon="5.34509">
        <ele>208.7</ele>
        <time>2022-09-24T15:09:05Z</time>
      </trkpt>
      <trkpt lat="45.90219" lon="5.34509">
        <ele>208.7</ele>
        <time>2022-09-24T15:09:06Z</time>
      </trkpt>
      <trkpt lat="45.90218" lon="5.34508">
        <ele>208.7</ele>
        <time>2022-09-24T15:09:07Z</time>
      </trkpt>
      <trkpt lat="45.90217" lon="5.34508">
        <ele>208.7</ele>
        <time>2022-09-24T15:09:08Z</time>
      </trkpt>
      <trkpt lat="45.90216" lon="5.34507">
        <ele>208.7</ele>
        <time>2022-09-24T15:09:09Z</time>
      </trkpt>
      <trkpt lat="45.90213" lon="5.34505">
        <ele>208.7</ele>
        <time>2022-09-24T15:09:10Z</time>
      </trkpt>
      <trkpt lat="45.90212" lon="5.34504">
        <ele>208.7</ele>
        <time>2022-09-24T15:09:11Z</time>
      </trkpt>
      <trkpt lat="45.90211" lon="5.34502">
        <ele>208.7</ele>
        <time>2022-09-24T15:09:12Z</time>
      </trkpt>
      <trkpt lat="45.90211" lon="5.34502">
        <ele>208.7</ele>
        <time>2022-09-24T15:09:13Z</time>
      </trkpt>
      <trkpt lat="45.90213" lon="5.345">
        <ele>208.7</ele>
        <time>2022-09-24T15:09:14Z</time>
      </trkpt>
      <trkpt lat="45.90215" lon="5.345">
        <ele>208.7</ele>
        <time>2022-09-24T15:09:15Z</time>
      </trkpt>
      <trkpt lat="45.90215" lon="5.34502">
        <ele>208.7</ele>
        <time>2022-09-24T15:09:16Z</time>
      </trkpt>
      <trkpt lat="45.90214" lon="5.34503">
        <ele>208.7</ele>
        <time>2022-09-24T15:09:17Z</time>
      </trkpt>
      <trkpt lat="45.90214" lon="5.34505">
        <ele>208.7</ele>
        <time>2022-09-24T15:09:18Z</time>
      </trkpt>
      <trkpt lat="45.90213" lon="5.34506">
        <ele>208.7</ele>
        <time>2022-09-24T15:09:19Z</time>
      </trkpt>
      <trkpt lat="45.90212" lon="5.34508">
        <ele>208.7</ele>
        <time>2022-09-24T15:09:20Z</time>
      </trkpt>
      <trkpt lat="45.90212" lon="5.3451">
        <ele>208.7</ele>
        <time>2022-09-24T15:09:21Z</time>
      </trkpt>
      <trkpt lat="45.90211" lon="5.34511">
        <ele>208.7</ele>
        <time>2022-09-24T15:09:22Z</time>
      </trkpt>
      <trkpt lat="45.90211" lon="5.34513">
        <ele>208.7</ele>
        <time>2022-09-24T15:11:40Z</time>
      </trkpt>
      <trkpt lat="45.9021" lon="5.34514">
        <ele>208.7</ele>
        <time>2022-09-24T15:11:41Z</time>
      </trkpt>
      <trkpt lat="45.90207" lon="5.34519">
        <ele>208.7</ele>
        <time>2022-09-24T15:11:42Z</time>
      </trkpt>
      <trkpt lat="45.90203" lon="5.34522">
        <ele>208.7</ele>
        <time>2022-09-24T15:11:43Z</time>
      </trkpt>
      <trkpt lat="45.90203" lon="5.34518">
        <ele>208.7</ele>
        <time>2022-09-24T15:11:44Z</time>
      </trkpt>
      <trkpt lat="45.90202" lon="5.34514">
        <ele>208.7</ele>
        <time>2022-09-24T15:11:45Z</time>
      </trkpt>
      <trkpt lat="45.90202" lon="5.34508">
        <ele>208.7</ele>
        <time>2022-09-24T15:11:46Z</time>
      </trkpt>
      <trkpt lat="45.90201" lon="5.34506">
        <ele>208.7</ele>
        <time>2022-09-24T15:11:47Z</time>
      </trkpt>
      <trkpt lat="45.90201" lon="5.34504">
        <ele>208.7</ele>
        <time>2022-09-24T15:11:48Z</time>
      </trkpt>
      <trkpt lat="45.90199" lon="5.34504">
        <ele>208.7</ele>
        <time>2022-09-24T15:11:49Z</time>
      </trkpt>
      <trkpt lat="45.90199" lon="5.34503">
        <ele>208.7</ele>
        <time>2022-09-24T15:11:50Z</time>
      </trkpt>
      <trkpt lat="45.90182" lon="5.34494">
        <ele>208.7</ele>
        <time>2022-09-24T15:13:37Z</time>
      </trkpt>
      <trkpt lat="45.9018" lon="5.34494">
        <ele>208.7</ele>
        <time>2022-09-24T15:13:38Z</time>
      </trkpt>
      <trkpt lat="45.9018" lon="5.34494">
        <ele>208.7</ele>
        <time>2022-09-24T15:13:39Z</time>
      </trkpt>
      <trkpt lat="45.90181" lon="5.34495">
        <ele>208.7</ele>
        <time>2022-09-24T15:13:40Z</time>
      </trkpt>
      <trkpt lat="45.90182" lon="5.34495">
        <ele>208.7</ele>
        <time>2022-09-24T15:13:41Z</time>
      </trkpt>
      <trkpt lat="45.90185" lon="5.34495">
        <ele>208.7</ele>
        <time>2022-09-24T15:13:42Z</time>
      </trkpt>
      <trkpt lat="45.90188" lon="5.34499">
        <ele>208.7</ele>
        <time>2022-09-24T15:13:43Z</time>
      </trkpt>
      <trkpt lat="45.9019" lon="5.34502">
        <ele>208.7</ele>
        <time>2022-09-24T15:13:44Z</time>
      </trkpt>
      <trkpt lat="45.90192" lon="5.34505">
        <ele>208.7</ele>
        <time>2022-09-24T15:13:45Z</time>
      </trkpt>
      <trkpt lat="45.90194" lon="5.34507">
        <ele>208.7</ele>
        <time>2022-09-24T15:13:46Z</time>
      </trkpt>
      <trkpt lat="45.90196" lon="5.3451">
        <ele>208.7</ele>
        <time>2022-09-24T15:13:47Z</time>
      </trkpt>
      <trkpt lat="45.90198" lon="5.34513">
        <ele>208.7</ele>
        <time>2022-09-24T15:13:48Z</time>
      </trkpt>
      <trkpt lat="45.902" lon="5.34516">
        <ele>208.7</ele>
        <time>2022-09-24T15:13:54Z</time>
      </trkpt>
      <trkpt lat="45.90202" lon="5.34518">
        <ele>208.7</ele>
        <time>2022-09-24T15:13:55Z</time>
      </trkpt>
      <trkpt lat="45.90204" lon="5.34521">
        <ele>208.7</ele>
        <time>2022-09-24T15:13:56Z</time>
      </trkpt>
      <trkpt lat="45.90205" lon="5.34524">
        <ele>208.7</ele>
        <time>2022-09-24T15:13:57Z</time>
      </trkpt>
      <trkpt lat="45.90207" lon="5.34526">
        <ele>208.7</ele>
        <time>2022-09-24T15:13:58Z</time>
      </trkpt>
      <trkpt lat="45.90209" lon="5.34529">
        <ele>208.7</ele>
        <time>2022-09-24T15:13:59Z</time>
      </trkpt>
      <trkpt lat="45.90211" lon="5.34532">
        <ele>208.7</ele>
        <time>2022-09-24T15:14:00Z</time>
      </trkpt>
      <trkpt lat="45.90213" lon="5.34535">
        <ele>208.7</ele>
        <time>2022-09-24T15:14:01Z</time>
      </trkpt>
      <trkpt lat="45.90215" lon="5.34537">
        <ele>208.7</ele>
        <time>2022-09-24T15:14:02Z</time>
      </trkpt>
      <trkpt lat="45.90217" lon="5.3454">
        <ele>208.7</ele>
        <time>2022-09-24T15:14:03Z</time>
      </trkpt>
      <trkpt lat="45.90219" lon="5.34543">
        <ele>208.7</ele>
        <time>2022-09-24T15:14:04Z</time>
      </trkpt>
      <trkpt lat="45.90221" lon="5.34546">
        <ele>208.9</ele>
        <time>2022-09-24T15:18:08Z</time>
      </trkpt>
      <trkpt lat="45.90222" lon="5.34548">
        <ele>208.9</ele>
        <time>2022-09-24T15:18:09Z</time>
      </trkpt>
      <trkpt lat="45.90221" lon="5.34548">
        <ele>208.9</ele>
        <time>2022-09-24T15:18:10Z</time>
      </trkpt>
      <trkpt lat="45.90221" lon="5.34548">
        <ele>208.9</ele>
        <time>2022-09-24T15:18:11Z</time>
      </trkpt>
      <trkpt lat="45.90221" lon="5.34548">
        <ele>208.9</ele>
        <time>2022-09-24T15:18:12Z</time>
      </trkpt>
      <trkpt lat="45.9022" lon="5.34549">
        <ele>208.9</ele>
        <time>2022-09-24T15:18:13Z</time>
      </trkpt>
      <trkpt lat="45.9022" lon="5.34549">
        <ele>208.9</ele>
        <time>2022-09-24T15:18:14Z</time>
      </trkpt>
      <trkpt lat="45.90219" lon="5.3455">
        <ele>208.9</ele>
        <time>2022-09-24T15:18:15Z</time>
      </trkpt>
      <trkpt lat="45.90219" lon="5.3455">
        <ele>208.9</ele>
        <time>2022-09-24T15:18:16Z</time>
      </trkpt>
      <trkpt lat="45.90218" lon="5.3455">
        <ele>209</ele>
        <time>2022-09-24T15:18:17Z</time>
      </trkpt>
      <trkpt lat="45.90218" lon="5.34551">
        <ele>209</ele>
        <time>2022-09-24T15:18:18Z</time>
      </trkpt>
      <trkpt lat="45.90216" lon="5.34551">
        <ele>209</ele>
        <time>2022-09-24T15:18:19Z</time>
      </trkpt>
      <trkpt lat="45.90215" lon="5.34552">
        <ele>209</ele>
        <time>2022-09-24T15:18:20Z</time>
      </trkpt>
      <trkpt lat="45.90214" lon="5.34553">
        <ele>209</ele>
        <time>2022-09-24T15:18:21Z</time>
      </trkpt>
      <trkpt lat="45.90215" lon="5.34553">
        <ele>209</ele>
        <time>2022-09-24T15:18:22Z</time>
      </trkpt>
      <trkpt lat="45.90215" lon="5.34554">
        <ele>209</ele>
        <time>2022-09-24T15:18:23Z</time>
      </trkpt>
      <trkpt lat="45.90215" lon="5.34554">
        <ele>209</ele>
        <time>2022-09-24T15:18:24Z</time>
      </trkpt>
      <trkpt lat="45.90215" lon="5.34555">
        <ele>209</ele>
        <time>2022-09-24T15:18:25Z</time>
      </trkpt>
      <trkpt lat="45.90216" lon="5.34555">
        <ele>209</ele>
        <time>2022-09-24T15:18:26Z</time>
      </trkpt>
      <trkpt lat="45.90216" lon="5.34556">
        <ele>209</ele>
        <time>2022-09-24T15:18:27Z</time>
      </trkpt>
      <trkpt lat="45.90216" lon="5.34556">
        <ele>209</ele>
        <time>2022-09-24T15:18:28Z</time>
      </trkpt>
      <trkpt lat="45.90216" lon="5.34557">
        <ele>209</ele>
        <time>2022-09-24T15:18:29Z</time>
      </trkpt>
      <trkpt lat="45.90216" lon="5.34557">
        <ele>209</ele>
        <time>2022-09-24T15:18:30Z</time>
      </trkpt>
      <trkpt lat="45.90216" lon="5.34559">
        <ele>209</ele>
        <time>2022-09-24T15:18:31Z</time>
      </trkpt>
      <trkpt lat="45.90216" lon="5.34561">
        <ele>209</ele>
        <time>2022-09-24T15:18:32Z</time>
      </trkpt>
      <trkpt lat="45.90216" lon="5.34562">
        <ele>209.1</ele>
        <time>2022-09-24T15:18:34Z</time>
      </trkpt>
      <trkpt lat="45.90217" lon="5.34565">
        <ele>209.1</ele>
        <time>2022-09-24T15:18:35Z</time>
      </trkpt>
      <trkpt lat="45.90217" lon="5.34567">
        <ele>209.1</ele>
        <time>2022-09-24T15:18:36Z</time>
      </trkpt>
      <trkpt lat="45.90217" lon="5.34568">
        <ele>209.1</ele>
        <time>2022-09-24T15:18:37Z</time>
      </trkpt>
      <trkpt lat="45.90217" lon="5.34571">
        <ele>209.1</ele>
        <time>2022-09-24T15:18:38Z</time>
      </trkpt>
      <trkpt lat="45.90217" lon="5.34572">
        <ele>209.1</ele>
        <time>2022-09-24T15:18:39Z</time>
      </trkpt>
      <trkpt lat="45.90217" lon="5.34574">
        <ele>209.1</ele>
        <time>2022-09-24T15:18:40Z</time>
      </trkpt>
      <trkpt lat="45.90218" lon="5.34576">
        <ele>209.2</ele>
        <time>2022-09-24T15:18:41Z</time>
      </trkpt>
      <trkpt lat="45.90218" lon="5.34581">
        <ele>209.2</ele>
        <time>2022-09-24T15:18:42Z</time>
      </trkpt>
      <trkpt lat="45.90218" lon="5.34583">
        <ele>209.2</ele>
        <time>2022-09-24T15:18:43Z</time>
      </trkpt>
      <trkpt lat="45.90219" lon="5.34588">
        <ele>209.3</ele>
        <time>2022-09-24T15:18:44Z</time>
      </trkpt>
      <trkpt lat="45.90219" lon="5.3459">
        <ele>209.3</ele>
        <time>2022-09-24T15:18:45Z</time>
      </trkpt>
      <trkpt lat="45.9022" lon="5.34592">
        <ele>209.3</ele>
        <time>2022-09-24T15:18:46Z</time>
      </trkpt>
      <trkpt lat="45.90221" lon="5.34594">
        <ele>209.4</ele>
        <time>2022-09-24T15:18:47Z</time>
      </trkpt>
      <trkpt lat="45.9022" lon="5.34599">
        <ele>209.4</ele>
        <time>2022-09-24T15:18:48Z</time>
      </trkpt>
      <trkpt lat="45.90221" lon="5.346">
        <ele>209.4</ele>
        <time>2022-09-24T15:18:49Z</time>
      </trkpt>
      <trkpt lat="45.90221" lon="5.34603">
        <ele>209.5</ele>
        <time>2022-09-24T15:18:50Z</time>
      </trkpt>
      <trkpt lat="45.90221" lon="5.34605">
        <ele>209.5</ele>
        <time>2022-09-24T15:18:51Z</time>
      </trkpt>
      <trkpt lat="45.90222" lon="5.34609">
        <ele>209.5</ele>
        <time>2022-09-24T15:18:52Z</time>
      </trkpt>
      <trkpt lat="45.90223" lon="5.3461">
        <ele>209.5</ele>
        <time>2022-09-24T15:18:53Z</time>
      </trkpt>
      <trkpt lat="45.90224" lon="5.34612">
        <ele>209.6</ele>
        <time>2022-09-24T15:18:54Z</time>
      </trkpt>
      <trkpt lat="45.90225" lon="5.34614">
        <ele>209.6</ele>
        <time>2022-09-24T15:18:55Z</time>
      </trkpt>
      <trkpt lat="45.90225" lon="5.34616">
        <ele>209.6</ele>
        <time>2022-09-24T15:18:56Z</time>
      </trkpt>
      <trkpt lat="45.90225" lon="5.34617">
        <ele>209.6</ele>
        <time>2022-09-24T15:18:57Z</time>
      </trkpt>
      <trkpt lat="45.90225" lon="5.34619">
        <ele>209.6</ele>
        <time>2022-09-24T15:18:58Z</time>
      </trkpt>
      <trkpt lat="45.90225" lon="5.34621">
        <ele>209.6</ele>
        <time>2022-09-24T15:18:59Z</time>
      </trkpt>
      <trkpt lat="45.90226" lon="5.34622">
        <ele>209.6</ele>
        <time>2022-09-24T15:19:00Z</time>
      </trkpt>
      <trkpt lat="45.90226" lon="5.34624">
        <ele>209.7</ele>
        <time>2022-09-24T15:19:01Z</time>
      </trkpt>
      <trkpt lat="45.90226" lon="5.34628">
        <ele>209.7</ele>
        <time>2022-09-24T15:19:02Z</time>
      </trkpt>
      <trkpt lat="45.90226" lon="5.3463">
        <ele>209.7</ele>
        <time>2022-09-24T15:19:03Z</time>
      </trkpt>
      <trkpt lat="45.90227" lon="5.34634">
        <ele>209.8</ele>
        <time>2022-09-24T15:19:04Z</time>
      </trkpt>
      <trkpt lat="45.90227" lon="5.34635">
        <ele>209.8</ele>
        <time>2022-09-24T15:19:05Z</time>
      </trkpt>
      <trkpt lat="45.90228" lon="5.34638">
        <ele>209.8</ele>
        <time>2022-09-24T15:19:06Z</time>
      </trkpt>
      <trkpt lat="45.90228" lon="5.3464">
        <ele>209.8</ele>
        <time>2022-09-24T15:19:07Z</time>
      </trkpt>
      <trkpt lat="45.90228" lon="5.34644">
        <ele>209.8</ele>
        <time>2022-09-24T15:19:08Z</time>
      </trkpt>
      <trkpt lat="45.90229" lon="5.34645">
        <ele>209.9</ele>
        <time>2022-09-24T15:19:09Z</time>
      </trkpt>
      <trkpt lat="45.9023" lon="5.34649">
        <ele>209.9</ele>
        <time>2022-09-24T15:19:10Z</time>
      </trkpt>
      <trkpt lat="45.90231" lon="5.34653">
        <ele>209.6</ele>
        <time>2022-09-24T15:19:11Z</time>
      </trkpt>
      <trkpt lat="45.90231" lon="5.34655">
        <ele>209.6</ele>
        <time>2022-09-24T15:19:12Z</time>
      </trkpt>
      <trkpt lat="45.90232" lon="5.34658">
        <ele>209.4</ele>
        <time>2022-09-24T15:19:13Z</time>
      </trkpt>
      <trkpt lat="45.90232" lon="5.34659">
        <ele>209.3</ele>
        <time>2022-09-24T15:19:14Z</time>
      </trkpt>
      <trkpt lat="45.90232" lon="5.3466">
        <ele>209.2</ele>
        <time>2022-09-24T15:19:15Z</time>
      </trkpt>
      <trkpt lat="45.90232" lon="5.34664">
        <ele>209</ele>
        <time>2022-09-24T15:19:16Z</time>
      </trkpt>
      <trkpt lat="45.90233" lon="5.34665">
        <ele>208.9</ele>
        <time>2022-09-24T15:19:17Z</time>
      </trkpt>
      <trkpt lat="45.90234" lon="5.34666">
        <ele>208.8</ele>
        <time>2022-09-24T15:19:18Z</time>
      </trkpt>
      <trkpt lat="45.90234" lon="5.34668">
        <ele>208.7</ele>
        <time>2022-09-24T15:19:19Z</time>
      </trkpt>
      <trkpt lat="45.90235" lon="5.3467">
        <ele>208.4</ele>
        <time>2022-09-24T15:19:20Z</time>
      </trkpt>
      <trkpt lat="45.90235" lon="5.34673">
        <ele>208.4</ele>
        <time>2022-09-24T15:19:21Z</time>
      </trkpt>
      <trkpt lat="45.90235" lon="5.34674">
        <ele>208.4</ele>
        <time>2022-09-24T15:19:22Z</time>
      </trkpt>
      <trkpt lat="45.90236" lon="5.34676">
        <ele>208.4</ele>
        <time>2022-09-24T15:19:23Z</time>
      </trkpt>
      <trkpt lat="45.90236" lon="5.34678">
        <ele>208.4</ele>
        <time>2022-09-24T15:19:24Z</time>
      </trkpt>
      <trkpt lat="45.90236" lon="5.34682">
        <ele>208.4</ele>
        <time>2022-09-24T15:19:25Z</time>
      </trkpt>
      <trkpt lat="45.90236" lon="5.34683">
        <ele>208.4</ele>
        <time>2022-09-24T15:19:26Z</time>
      </trkpt>
      <trkpt lat="45.90236" lon="5.34684">
        <ele>208.4</ele>
        <time>2022-09-24T15:19:27Z</time>
      </trkpt>
      <trkpt lat="45.90236" lon="5.34688">
        <ele>208.4</ele>
        <time>2022-09-24T15:19:28Z</time>
      </trkpt>
      <trkpt lat="45.90236" lon="5.34689">
        <ele>208.4</ele>
        <time>2022-09-24T15:19:29Z</time>
      </trkpt>
      <trkpt lat="45.90238" lon="5.34694">
        <ele>208.4</ele>
        <time>2022-09-24T15:19:30Z</time>
      </trkpt>
      <trkpt lat="45.90239" lon="5.34696">
        <ele>208.4</ele>
        <time>2022-09-24T15:19:31Z</time>
      </trkpt>
      <trkpt lat="45.90241" lon="5.34699">
        <ele>208.4</ele>
        <time>2022-09-24T15:19:32Z</time>
      </trkpt>
      <trkpt lat="45.90242" lon="5.347">
        <ele>208.4</ele>
        <time>2022-09-24T15:19:33Z</time>
      </trkpt>
      <trkpt lat="45.90244" lon="5.34701">
        <ele>208.4</ele>
        <time>2022-09-24T15:19:34Z</time>
      </trkpt>
      <trkpt lat="45.90244" lon="5.34701">
        <ele>208.4</ele>
        <time>2022-09-24T15:19:35Z</time>
      </trkpt>
      <trkpt lat="45.90244" lon="5.34702">
        <ele>208.4</ele>
        <time>2022-09-24T15:19:36Z</time>
      </trkpt>
      <trkpt lat="45.90244" lon="5.34704">
        <ele>208.4</ele>
        <time>2022-09-24T15:19:37Z</time>
      </trkpt>
      <trkpt lat="45.90244" lon="5.34706">
        <ele>208.4</ele>
        <time>2022-09-24T15:19:38Z</time>
      </trkpt>
      <trkpt lat="45.90244" lon="5.34709">
        <ele>208.4</ele>
        <time>2022-09-24T15:19:39Z</time>
      </trkpt>
      <trkpt lat="45.90245" lon="5.34713">
        <ele>208.4</ele>
        <time>2022-09-24T15:19:40Z</time>
      </trkpt>
      <trkpt lat="45.90245" lon="5.34714">
        <ele>208.3</ele>
        <time>2022-09-24T15:19:41Z</time>
      </trkpt>
      <trkpt lat="45.90245" lon="5.34716">
        <ele>208.3</ele>
        <time>2022-09-24T15:19:42Z</time>
      </trkpt>
      <trkpt lat="45.90244" lon="5.34718">
        <ele>208.3</ele>
        <time>2022-09-24T15:19:43Z</time>
      </trkpt>
      <trkpt lat="45.90245" lon="5.3472">
        <ele>208.3</ele>
        <time>2022-09-24T15:19:44Z</time>
      </trkpt>
      <trkpt lat="45.90244" lon="5.3472">
        <ele>208.3</ele>
        <time>2022-09-24T15:19:45Z</time>
      </trkpt>
      <trkpt lat="45.90244" lon="5.34721">
        <ele>208.3</ele>
        <time>2022-09-24T15:19:46Z</time>
      </trkpt>
      <trkpt lat="45.90244" lon="5.34722">
        <ele>208.3</ele>
        <time>2022-09-24T15:19:47Z</time>
      </trkpt>
      <trkpt lat="45.90244" lon="5.34722">
        <ele>208.3</ele>
        <time>2022-09-24T15:19:48Z</time>
      </trkpt>
      <trkpt lat="45.90244" lon="5.34724">
        <ele>208.3</ele>
        <time>2022-09-24T15:19:49Z</time>
      </trkpt>
      <trkpt lat="45.90243" lon="5.34725">
        <ele>208.3</ele>
        <time>2022-09-24T15:19:50Z</time>
      </trkpt>
      <trkpt lat="45.90243" lon="5.34725">
        <ele>208.3</ele>
        <time>2022-09-24T15:19:51Z</time>
      </trkpt>
      <trkpt lat="45.90242" lon="5.34726">
        <ele>208.3</ele>
        <time>2022-09-24T15:19:52Z</time>
      </trkpt>
      <trkpt lat="45.90244" lon="5.34728">
        <ele>208.3</ele>
        <time>2022-09-24T15:19:53Z</time>
      </trkpt>
      <trkpt lat="45.90244" lon="5.34729">
        <ele>208.3</ele>
        <time>2022-09-24T15:19:54Z</time>
      </trkpt>
      <trkpt lat="45.90245" lon="5.34729">
        <ele>208.3</ele>
        <time>2022-09-24T15:20:29Z</time>
      </trkpt>
      <trkpt lat="45.90246" lon="5.34729">
        <ele>208.3</ele>
        <time>2022-09-24T15:20:30Z</time>
      </trkpt>
      <trkpt lat="45.90247" lon="5.34729">
        <ele>208.3</ele>
        <time>2022-09-24T15:20:31Z</time>
      </trkpt>
      <trkpt lat="45.90247" lon="5.3473">
        <ele>208.3</ele>
        <time>2022-09-24T15:20:32Z</time>
      </trkpt>
      <trkpt lat="45.90248" lon="5.3473">
        <ele>208.3</ele>
        <time>2022-09-24T15:20:33Z</time>
      </trkpt>
      <trkpt lat="45.90249" lon="5.3473">
        <ele>208.3</ele>
        <time>2022-09-24T15:20:34Z</time>
      </trkpt>
      <trkpt lat="45.9025" lon="5.34731">
        <ele>208.3</ele>
        <time>2022-09-24T15:20:35Z</time>
      </trkpt>
      <trkpt lat="45.90251" lon="5.34731">
        <ele>208.3</ele>
        <time>2022-09-24T15:20:36Z</time>
      </trkpt>
      <trkpt lat="45.90251" lon="5.34731">
        <ele>208.2</ele>
        <time>2022-09-24T15:20:37Z</time>
      </trkpt>
      <trkpt lat="45.90252" lon="5.34732">
        <ele>208.2</ele>
        <time>2022-09-24T15:20:38Z</time>
      </trkpt>
      <trkpt lat="45.90253" lon="5.34732">
        <ele>208.2</ele>
        <time>2022-09-24T15:24:05Z</time>
      </trkpt>
      <trkpt lat="45.90254" lon="5.34732">
        <ele>208.2</ele>
        <time>2022-09-24T15:24:06Z</time>
      </trkpt>
      <trkpt lat="45.90254" lon="5.34733">
        <ele>208.2</ele>
        <time>2022-09-24T15:24:07Z</time>
      </trkpt>
      <trkpt lat="45.90254" lon="5.34732">
        <ele>208.2</ele>
        <time>2022-09-24T15:24:08Z</time>
      </trkpt>
      <trkpt lat="45.90254" lon="5.34731">
        <ele>208.2</ele>
        <time>2022-09-24T15:24:09Z</time>
      </trkpt>
      <trkpt lat="45.90254" lon="5.3473">
        <ele>208.2</ele>
        <time>2022-09-24T15:24:10Z</time>
      </trkpt>
      <trkpt lat="45.90253" lon="5.3473">
        <ele>208.2</ele>
        <time>2022-09-24T15:24:11Z</time>
      </trkpt>
      <trkpt lat="45.90253" lon="5.34729">
        <ele>208.2</ele>
        <time>2022-09-24T15:24:12Z</time>
      </trkpt>
      <trkpt lat="45.90253" lon="5.34728">
        <ele>208.2</ele>
        <time>2022-09-24T15:24:13Z</time>
      </trkpt>
      <trkpt lat="45.90253" lon="5.34727">
        <ele>208.2</ele>
        <time>2022-09-24T15:24:14Z</time>
      </trkpt>
      <trkpt lat="45.90252" lon="5.34726">
        <ele>208.2</ele>
        <time>2022-09-24T15:24:15Z</time>
      </trkpt>
      <trkpt lat="45.90252" lon="5.34726">
        <ele>208.2</ele>
        <time>2022-09-24T15:24:16Z</time>
      </trkpt>
      <trkpt lat="45.90252" lon="5.34725">
        <ele>208.2</ele>
        <time>2022-09-24T15:24:19Z</time>
      </trkpt>
      <trkpt lat="45.90252" lon="5.34724">
        <ele>208.2</ele>
        <time>2022-09-24T15:24:20Z</time>
      </trkpt>
      <trkpt lat="45.90251" lon="5.34723">
        <ele>208.2</ele>
        <time>2022-09-24T15:24:21Z</time>
      </trkpt>
      <trkpt lat="45.9025" lon="5.34723">
        <ele>208.2</ele>
        <time>2022-09-24T15:24:22Z</time>
      </trkpt>
      <trkpt lat="45.9025" lon="5.34725">
        <ele>208.2</ele>
        <time>2022-09-24T15:24:23Z</time>
      </trkpt>
      <trkpt lat="45.90249" lon="5.34727">
        <ele>208.2</ele>
        <time>2022-09-24T15:24:24Z</time>
      </trkpt>
      <trkpt lat="45.90249" lon="5.34729">
        <ele>208.2</ele>
        <time>2022-09-24T15:24:25Z</time>
      </trkpt>
      <trkpt lat="45.90248" lon="5.3473">
        <ele>208.2</ele>
        <time>2022-09-24T15:24:26Z</time>
      </trkpt>
      <trkpt lat="45.90249" lon="5.34731">
        <ele>208.2</ele>
        <time>2022-09-24T15:24:27Z</time>
      </trkpt>
      <trkpt lat="45.9025" lon="5.34733">
        <ele>208.1</ele>
        <time>2022-09-24T15:24:28Z</time>
      </trkpt>
      <trkpt lat="45.9025" lon="5.34734">
        <ele>208.1</ele>
        <time>2022-09-24T15:24:29Z</time>
      </trkpt>
      <trkpt lat="45.9025" lon="5.34734">
        <ele>208.1</ele>
        <time>2022-09-24T15:24:30Z</time>
      </trkpt>
      <trkpt lat="45.9025" lon="5.34734">
        <ele>208.1</ele>
        <time>2022-09-24T15:24:31Z</time>
      </trkpt>
      <trkpt lat="45.9025" lon="5.34735">
        <ele>208.1</ele>
        <time>2022-09-24T15:24:32Z</time>
      </trkpt>
      <trkpt lat="45.9025" lon="5.34735">
        <ele>208.1</ele>
        <time>2022-09-24T15:24:33Z</time>
      </trkpt>
      <trkpt lat="45.9025" lon="5.34735">
        <ele>208.1</ele>
        <time>2022-09-24T15:24:34Z</time>
      </trkpt>
      <trkpt lat="45.9025" lon="5.34736">
        <ele>208.1</ele>
        <time>2022-09-24T15:24:35Z</time>
      </trkpt>
      <trkpt lat="45.9025" lon="5.34736">
        <ele>208.1</ele>
        <time>2022-09-24T15:24:36Z</time>
      </trkpt>
      <trkpt lat="45.9025" lon="5.34736">
        <ele>208.1</ele>
        <time>2022-09-24T15:24:37Z</time>
      </trkpt>
      <trkpt lat="45.9025" lon="5.34737">
        <ele>208.1</ele>
        <time>2022-09-24T15:24:38Z</time>
      </trkpt>
      <trkpt lat="45.9025" lon="5.34737">
        <ele>208.1</ele>
        <time>2022-09-24T15:24:39Z</time>
      </trkpt>
      <trkpt lat="45.9025" lon="5.34737">
        <ele>208.1</ele>
        <time>2022-09-24T15:24:40Z</time>
      </trkpt>
      <trkpt lat="45.9025" lon="5.34738">
        <ele>208.1</ele>
        <time>2022-09-24T15:24:41Z</time>
      </trkpt>
      <trkpt lat="45.9025" lon="5.34738">
        <ele>208.1</ele>
        <time>2022-09-24T15:26:29Z</time>
      </trkpt>
      <trkpt lat="45.9025" lon="5.34738">
        <ele>208.1</ele>
        <time>2022-09-24T15:26:30Z</time>
      </trkpt>
      <trkpt lat="45.9025" lon="5.34739">
        <ele>208.1</ele>
        <time>2022-09-24T15:26:31Z</time>
      </trkpt>
      <trkpt lat="45.9025" lon="5.34739">
        <ele>208.1</ele>
        <time>2022-09-24T15:26:32Z</time>
      </trkpt>
      <trkpt lat="45.90251" lon="5.34739">
        <ele>208.1</ele>
        <time>2022-09-24T15:26:33Z</time>
      </trkpt>
      <trkpt lat="45.90251" lon="5.3474">
        <ele>208.1</ele>
        <time>2022-09-24T15:26:34Z</time>
      </trkpt>
      <trkpt lat="45.90251" lon="5.3474">
        <ele>208.1</ele>
        <time>2022-09-24T15:26:35Z</time>
      </trkpt>
      <trkpt lat="45.90247" lon="5.34741">
        <ele>208.1</ele>
        <time>2022-09-24T15:26:36Z</time>
      </trkpt>
      <trkpt lat="45.90245" lon="5.34741">
        <ele>208.1</ele>
        <time>2022-09-24T15:26:37Z</time>
      </trkpt>
      <trkpt lat="45.90243" lon="5.34742">
        <ele>208.1</ele>
        <time>2022-09-24T15:26:38Z</time>
      </trkpt>
      <trkpt lat="45.90241" lon="5.34742">
        <ele>208.1</ele>
        <time>2022-09-24T15:26:39Z</time>
      </trkpt>
      <trkpt lat="45.90238" lon="5.34743">
        <ele>208.1</ele>
        <time>2022-09-24T15:27:25Z</time>
      </trkpt>
      <trkpt lat="45.90236" lon="5.34743">
        <ele>208</ele>
        <time>2022-09-24T15:27:26Z</time>
      </trkpt>
      <trkpt lat="45.90234" lon="5.34744">
        <ele>208</ele>
        <time>2022-09-24T15:27:27Z</time>
      </trkpt>
      <trkpt lat="45.9023" lon="5.34744">
        <ele>207.9</ele>
        <time>2022-09-24T15:27:28Z</time>
      </trkpt>
      <trkpt lat="45.90228" lon="5.34745">
        <ele>207.8</ele>
        <time>2022-09-24T15:27:29Z</time>
      </trkpt>
      <trkpt lat="45.90224" lon="5.34744">
        <ele>207.7</ele>
        <time>2022-09-24T15:27:30Z</time>
      </trkpt>
      <trkpt lat="45.9022" lon="5.34744">
        <ele>207.6</ele>
        <time>2022-09-24T15:27:31Z</time>
      </trkpt>
      <trkpt lat="45.90216" lon="5.34743">
        <ele>207.5</ele>
        <time>2022-09-24T15:27:32Z</time>
      </trkpt>
      <trkpt lat="45.90209" lon="5.34741">
        <ele>207.4</ele>
        <time>2022-09-24T15:27:33Z</time>
      </trkpt>
      <trkpt lat="45.90204" lon="5.34741">
        <ele>207.3</ele>
        <time>2022-09-24T15:27:34Z</time>
      </trkpt>
      <trkpt lat="45.90196" lon="5.34741">
        <ele>207.1</ele>
        <time>2022-09-24T15:27:35Z</time>
      </trkpt>
      <trkpt lat="45.90191" lon="5.34741">
        <ele>207</ele>
        <time>2022-09-24T15:27:36Z</time>
      </trkpt>
      <trkpt lat="45.90186" lon="5.3474">
        <ele>207</ele>
        <time>2022-09-24T15:27:37Z</time>
      </trkpt>
      <trkpt lat="45.90184" lon="5.34739">
        <ele>206.9</ele>
        <time>2022-09-24T15:27:38Z</time>
      </trkpt>
      <trkpt lat="45.9018" lon="5.34737">
        <ele>206.9</ele>
        <time>2022-09-24T15:27:39Z</time>
      </trkpt>
      <trkpt lat="45.90171" lon="5.34737">
        <ele>206.7</ele>
        <time>2022-09-24T15:27:40Z</time>
      </trkpt>
      <trkpt lat="45.90165" lon="5.34738">
        <ele>206.7</ele>
        <time>2022-09-24T15:27:41Z</time>
      </trkpt>
      <trkpt lat="45.90155" lon="5.3474">
        <ele>206.5</ele>
        <time>2022-09-24T15:27:42Z</time>
      </trkpt>
      <trkpt lat="45.90148" lon="5.34742">
        <ele>206.5</ele>
        <time>2022-09-24T15:27:43Z</time>
      </trkpt>
      <trkpt lat="45.90141" lon="5.34743">
        <ele>206.4</ele>
        <time>2022-09-24T15:27:44Z</time>
      </trkpt>
      <trkpt lat="45.90133" lon="5.34743">
        <ele>206.4</ele>
        <time>2022-09-24T15:27:45Z</time>
      </trkpt>
      <trkpt lat="45.90127" lon="5.34743">
        <ele>206.3</ele>
        <time>2022-09-24T15:27:46Z</time>
      </trkpt>
      <trkpt lat="45.90119" lon="5.34745">
        <ele>206.3</ele>
        <time>2022-09-24T15:27:47Z</time>
      </trkpt>
      <trkpt lat="45.90112" lon="5.34745">
        <ele>206.2</ele>
        <time>2022-09-24T15:27:48Z</time>
      </trkpt>
      <trkpt lat="45.90106" lon="5.34744">
        <ele>206.1</ele>
        <time>2022-09-24T15:27:49Z</time>
      </trkpt>
      <trkpt lat="45.90101" lon="5.34744">
        <ele>206.1</ele>
        <time>2022-09-24T15:27:50Z</time>
      </trkpt>
      <trkpt lat="45.90095" lon="5.34746">
        <ele>206</ele>
        <time>2022-09-24T15:27:51Z</time>
      </trkpt>
      <trkpt lat="45.90089" lon="5.34744">
        <ele>205.9</ele>
        <time>2022-09-24T15:27:52Z</time>
      </trkpt>
      <trkpt lat="45.90082" lon="5.34744">
        <ele>205.9</ele>
        <time>2022-09-24T15:27:53Z</time>
      </trkpt>
      <trkpt lat="45.90077" lon="5.34746">
        <ele>205.8</ele>
        <time>2022-09-24T15:27:54Z</time>
      </trkpt>
      <trkpt lat="45.90074" lon="5.34744">
        <ele>205.8</ele>
        <time>2022-09-24T15:27:55Z</time>
      </trkpt>
      <trkpt lat="45.90067" lon="5.34743">
        <ele>205.7</ele>
        <time>2022-09-24T15:27:56Z</time>
      </trkpt>
      <trkpt lat="45.90063" lon="5.34742">
        <ele>205.7</ele>
        <time>2022-09-24T15:27:57Z</time>
      </trkpt>
      <trkpt lat="45.90056" lon="5.34741">
        <ele>205.6</ele>
        <time>2022-09-24T15:27:58Z</time>
      </trkpt>
      <trkpt lat="45.9005" lon="5.34742">
        <ele>205.6</ele>
        <time>2022-09-24T15:27:59Z</time>
      </trkpt>
      <trkpt lat="45.90044" lon="5.34743">
        <ele>205.5</ele>
        <time>2022-09-24T15:28:00Z</time>
      </trkpt>
      <trkpt lat="45.90038" lon="5.34743">
        <ele>205.5</ele>
        <time>2022-09-24T15:28:01Z</time>
      </trkpt>
      <trkpt lat="45.90032" lon="5.34743">
        <ele>205.4</ele>
        <time>2022-09-24T15:28:02Z</time>
      </trkpt>
      <trkpt lat="45.90028" lon="5.34743">
        <ele>205.4</ele>
        <time>2022-09-24T15:28:03Z</time>
      </trkpt>
      <trkpt lat="45.90022" lon="5.34743">
        <ele>205.4</ele>
        <time>2022-09-24T15:28:04Z</time>
      </trkpt>
      <trkpt lat="45.90016" lon="5.34744">
        <ele>205.3</ele>
        <time>2022-09-24T15:28:05Z</time>
      </trkpt>
      <trkpt lat="45.90011" lon="5.34743">
        <ele>205.3</ele>
        <time>2022-09-24T15:28:06Z</time>
      </trkpt>
      <trkpt lat="45.90007" lon="5.34742">
        <ele>205.3</ele>
        <time>2022-09-24T15:28:07Z</time>
      </trkpt>
      <trkpt lat="45.9" lon="5.34743">
        <ele>205.2</ele>
        <time>2022-09-24T15:28:08Z</time>
      </trkpt>
      <trkpt lat="45.89992" lon="5.34747">
        <ele>205.1</ele>
        <time>2022-09-24T15:28:09Z</time>
      </trkpt>
      <trkpt lat="45.89986" lon="5.34746">
        <ele>205.1</ele>
        <time>2022-09-24T15:28:10Z</time>
      </trkpt>
      <trkpt lat="45.8998" lon="5.34747">
        <ele>205.1</ele>
        <time>2022-09-24T15:28:11Z</time>
      </trkpt>
      <trkpt lat="45.89974" lon="5.34746">
        <ele>205</ele>
        <time>2022-09-24T15:28:12Z</time>
      </trkpt>
      <trkpt lat="45.89968" lon="5.34746">
        <ele>205</ele>
        <time>2022-09-24T15:28:13Z</time>
      </trkpt>
      <trkpt lat="45.89961" lon="5.34747">
        <ele>205</ele>
        <time>2022-09-24T15:28:14Z</time>
      </trkpt>
      <trkpt lat="45.89955" lon="5.34747">
        <ele>204.9</ele>
        <time>2022-09-24T15:28:15Z</time>
      </trkpt>
      <trkpt lat="45.89949" lon="5.34748">
        <ele>204.9</ele>
        <time>2022-09-24T15:28:16Z</time>
      </trkpt>
      <trkpt lat="45.89944" lon="5.34747">
        <ele>204.9</ele>
        <time>2022-09-24T15:28:17Z</time>
      </trkpt>
      <trkpt lat="45.89939" lon="5.34747">
        <ele>204.9</ele>
        <time>2022-09-24T15:28:18Z</time>
      </trkpt>
      <trkpt lat="45.89932" lon="5.34749">
        <ele>204.8</ele>
        <time>2022-09-24T15:28:19Z</time>
      </trkpt>
      <trkpt lat="45.89927" lon="5.3475">
        <ele>204.8</ele>
        <time>2022-09-24T15:28:20Z</time>
      </trkpt>
      <trkpt lat="45.89922" lon="5.34751">
        <ele>204.8</ele>
        <time>2022-09-24T15:28:21Z</time>
      </trkpt>
      <trkpt lat="45.89917" lon="5.34751">
        <ele>204.8</ele>
        <time>2022-09-24T15:28:22Z</time>
      </trkpt>
      <trkpt lat="45.89911" lon="5.34749">
        <ele>204.8</ele>
        <time>2022-09-24T15:28:23Z</time>
      </trkpt>
      <trkpt lat="45.89907" lon="5.34747">
        <ele>204.8</ele>
        <time>2022-09-24T15:28:24Z</time>
      </trkpt>
      <trkpt lat="45.89901" lon="5.34747">
        <ele>204.8</ele>
        <time>2022-09-24T15:28:25Z</time>
      </trkpt>
      <trkpt lat="45.89899" lon="5.34742">
        <ele>204.8</ele>
        <time>2022-09-24T15:28:26Z</time>
      </trkpt>
      <trkpt lat="45.89892" lon="5.34739">
        <ele>204.8</ele>
        <time>2022-09-24T15:28:27Z</time>
      </trkpt>
      <trkpt lat="45.89886" lon="5.34737">
        <ele>204.8</ele>
        <time>2022-09-24T15:28:28Z</time>
      </trkpt>
      <trkpt lat="45.89881" lon="5.34738">
        <ele>204.8</ele>
        <time>2022-09-24T15:28:29Z</time>
      </trkpt>
      <trkpt lat="45.89877" lon="5.34741">
        <ele>204.7</ele>
        <time>2022-09-24T15:28:30Z</time>
      </trkpt>
      <trkpt lat="45.89874" lon="5.34746">
        <ele>204.7</ele>
        <time>2022-09-24T15:28:31Z</time>
      </trkpt>
      <trkpt lat="45.89873" lon="5.34749">
        <ele>204.7</ele>
        <time>2022-09-24T15:28:32Z</time>
      </trkpt>
      <trkpt lat="45.89872" lon="5.34755">
        <ele>204.7</ele>
        <time>2022-09-24T15:28:33Z</time>
      </trkpt>
      <trkpt lat="45.89871" lon="5.34761">
        <ele>204.7</ele>
        <time>2022-09-24T15:28:34Z</time>
      </trkpt>
      <trkpt lat="45.89873" lon="5.34765">
        <ele>204.7</ele>
        <time>2022-09-24T15:28:35Z</time>
      </trkpt>
      <trkpt lat="45.89876" lon="5.34768">
        <ele>204.6</ele>
        <time>2022-09-24T15:28:36Z</time>
      </trkpt>
      <trkpt lat="45.89879" lon="5.3477">
        <ele>204.7</ele>
        <time>2022-09-24T15:28:37Z</time>
      </trkpt>
      <trkpt lat="45.89882" lon="5.34768">
        <ele>204.7</ele>
        <time>2022-09-24T15:28:38Z</time>
      </trkpt>
      <trkpt lat="45.89885" lon="5.34766">
        <ele>204.7</ele>
        <time>2022-09-24T15:28:39Z</time>
      </trkpt>
      <trkpt lat="45.89887" lon="5.34761">
        <ele>204.7</ele>
        <time>2022-09-24T15:28:40Z</time>
      </trkpt>
      <trkpt lat="45.89888" lon="5.34758">
        <ele>204.7</ele>
        <time>2022-09-24T15:28:41Z</time>
      </trkpt>
      <trkpt lat="45.89889" lon="5.34751">
        <ele>204.8</ele>
        <time>2022-09-24T15:28:42Z</time>
      </trkpt>
      <trkpt lat="45.89887" lon="5.34747">
        <ele>204.8</ele>
        <time>2022-09-24T15:28:43Z</time>
      </trkpt>
      <trkpt lat="45.89885" lon="5.34743">
        <ele>204.8</ele>
        <time>2022-09-24T15:28:44Z</time>
      </trkpt>
      <trkpt lat="45.89881" lon="5.34741">
        <ele>204.8</ele>
        <time>2022-09-24T15:28:45Z</time>
      </trkpt>
      <trkpt lat="45.89876" lon="5.34741">
        <ele>204.7</ele>
        <time>2022-09-24T15:28:46Z</time>
      </trkpt>
      <trkpt lat="45.89871" lon="5.34744">
        <ele>204.7</ele>
        <time>2022-09-24T15:28:47Z</time>
      </trkpt>
      <trkpt lat="45.89868" lon="5.34746">
        <ele>204.7</ele>
        <time>2022-09-24T15:28:48Z</time>
      </trkpt>
      <trkpt lat="45.89863" lon="5.34748">
        <ele>204.7</ele>
        <time>2022-09-24T15:28:49Z</time>
      </trkpt>
      <trkpt lat="45.8986" lon="5.34749">
        <ele>204.7</ele>
        <time>2022-09-24T15:28:50Z</time>
      </trkpt>
      <trkpt lat="45.89854" lon="5.34749">
        <ele>204.7</ele>
        <time>2022-09-24T15:28:51Z</time>
      </trkpt>
      <trkpt lat="45.89848" lon="5.34748">
        <ele>204.7</ele>
        <time>2022-09-24T15:28:52Z</time>
      </trkpt>
      <trkpt lat="45.89843" lon="5.34747">
        <ele>204.7</ele>
        <time>2022-09-24T15:28:53Z</time>
      </trkpt>
      <trkpt lat="45.89838" lon="5.34747">
        <ele>204.7</ele>
        <time>2022-09-24T15:28:54Z</time>
      </trkpt>
      <trkpt lat="45.89832" lon="5.34748">
        <ele>204.7</ele>
        <time>2022-09-24T15:28:55Z</time>
      </trkpt>
      <trkpt lat="45.89828" lon="5.3475">
        <ele>204.7</ele>
        <time>2022-09-24T15:28:56Z</time>
      </trkpt>
      <trkpt lat="45.89822" lon="5.34749">
        <ele>204.7</ele>
        <time>2022-09-24T15:28:57Z</time>
      </trkpt>
      <trkpt lat="45.89817" lon="5.34749">
        <ele>204.7</ele>
        <time>2022-09-24T15:28:58Z</time>
      </trkpt>
      <trkpt lat="45.89811" lon="5.34747">
        <ele>204.7</ele>
        <time>2022-09-24T15:28:59Z</time>
      </trkpt>
      <trkpt lat="45.89806" lon="5.34748">
        <ele>204.7</ele>
        <time>2022-09-24T15:29:00Z</time>
      </trkpt>
      <trkpt lat="45.898" lon="5.34749">
        <ele>204.8</ele>
        <time>2022-09-24T15:29:01Z</time>
      </trkpt>
      <trkpt lat="45.89794" lon="5.3475">
        <ele>204.8</ele>
        <time>2022-09-24T15:29:02Z</time>
      </trkpt>
      <trkpt lat="45.89789" lon="5.34747">
        <ele>204.8</ele>
        <time>2022-09-24T15:29:03Z</time>
      </trkpt>
      <trkpt lat="45.89783" lon="5.34748">
        <ele>204.9</ele>
        <time>2022-09-24T15:29:04Z</time>
      </trkpt>
      <trkpt lat="45.89777" lon="5.34748">
        <ele>204.9</ele>
        <time>2022-09-24T15:29:05Z</time>
      </trkpt>
      <trkpt lat="45.89772" lon="5.34748">
        <ele>205</ele>
        <time>2022-09-24T15:29:06Z</time>
      </trkpt>
      <trkpt lat="45.89766" lon="5.34748">
        <ele>205</ele>
        <time>2022-09-24T15:29:07Z</time>
      </trkpt>
      <trkpt lat="45.89761" lon="5.34748">
        <ele>205.1</ele>
        <time>2022-09-24T15:29:08Z</time>
      </trkpt>
      <trkpt lat="45.89754" lon="5.34748">
        <ele>205.1</ele>
        <time>2022-09-24T15:29:09Z</time>
      </trkpt>
      <trkpt lat="45.8975" lon="5.34748">
        <ele>205.2</ele>
        <time>2022-09-24T15:29:10Z</time>
      </trkpt>
      <trkpt lat="45.89744" lon="5.34748">
        <ele>205.2</ele>
        <time>2022-09-24T15:29:11Z</time>
      </trkpt>
      <trkpt lat="45.89738" lon="5.34748">
        <ele>205.3</ele>
        <time>2022-09-24T15:29:12Z</time>
      </trkpt>
      <trkpt lat="45.89733" lon="5.34747">
        <ele>205.4</ele>
        <time>2022-09-24T15:29:13Z</time>
      </trkpt>
      <trkpt lat="45.89727" lon="5.34747">
        <ele>205.4</ele>
        <time>2022-09-24T15:29:14Z</time>
      </trkpt>
      <trkpt lat="45.89722" lon="5.34748">
        <ele>205.5</ele>
        <time>2022-09-24T15:29:15Z</time>
      </trkpt>
      <trkpt lat="45.89716" lon="5.34748">
        <ele>205.6</ele>
        <time>2022-09-24T15:29:16Z</time>
      </trkpt>
      <trkpt lat="45.89712" lon="5.34748">
        <ele>205.6</ele>
        <time>2022-09-24T15:29:17Z</time>
      </trkpt>
      <trkpt lat="45.89707" lon="5.34748">
        <ele>205.7</ele>
        <time>2022-09-24T15:29:18Z</time>
      </trkpt>
      <trkpt lat="45.89701" lon="5.34749">
        <ele>205.8</ele>
        <time>2022-09-24T15:29:19Z</time>
      </trkpt>
      <trkpt lat="45.89697" lon="5.34748">
        <ele>205.8</ele>
        <time>2022-09-24T15:29:20Z</time>
      </trkpt>
      <trkpt lat="45.89691" lon="5.34749">
        <ele>205.8</ele>
        <time>2022-09-24T15:29:21Z</time>
      </trkpt>
      <trkpt lat="45.89687" lon="5.34749">
        <ele>205.9</ele>
        <time>2022-09-24T15:29:22Z</time>
      </trkpt>
      <trkpt lat="45.89682" lon="5.34749">
        <ele>205.9</ele>
        <time>2022-09-24T15:29:23Z</time>
      </trkpt>
      <trkpt lat="45.89677" lon="5.34749">
        <ele>206</ele>
        <time>2022-09-24T15:29:24Z</time>
      </trkpt>
      <trkpt lat="45.89673" lon="5.34749">
        <ele>206</ele>
        <time>2022-09-24T15:29:25Z</time>
      </trkpt>
      <trkpt lat="45.89668" lon="5.34749">
        <ele>206</ele>
        <time>2022-09-24T15:29:26Z</time>
      </trkpt>
      <trkpt lat="45.89663" lon="5.34748">
        <ele>206.1</ele>
        <time>2022-09-24T15:29:27Z</time>
      </trkpt>
      <trkpt lat="45.89658" lon="5.34748">
        <ele>206.1</ele>
        <time>2022-09-24T15:29:28Z</time>
      </trkpt>
      <trkpt lat="45.89654" lon="5.34748">
        <ele>206.1</ele>
        <time>2022-09-24T15:29:29Z</time>
      </trkpt>
      <trkpt lat="45.89649" lon="5.34748">
        <ele>206.1</ele>
        <time>2022-09-24T15:29:30Z</time>
      </trkpt>
      <trkpt lat="45.89643" lon="5.34748">
        <ele>206.1</ele>
        <time>2022-09-24T15:29:31Z</time>
      </trkpt>
      <trkpt lat="45.89638" lon="5.34749">
        <ele>206.2</ele>
        <time>2022-09-24T15:29:32Z</time>
      </trkpt>
      <trkpt lat="45.89632" lon="5.34749">
        <ele>206.2</ele>
        <time>2022-09-24T15:29:33Z</time>
      </trkpt>
      <trkpt lat="45.89627" lon="5.34749">
        <ele>206.2</ele>
        <time>2022-09-24T15:29:34Z</time>
      </trkpt>
      <trkpt lat="45.89622" lon="5.34749">
        <ele>206.2</ele>
        <time>2022-09-24T15:29:35Z</time>
      </trkpt>
      <trkpt lat="45.89617" lon="5.34749">
        <ele>206.2</ele>
        <time>2022-09-24T15:29:36Z</time>
      </trkpt>
      <trkpt lat="45.89611" lon="5.34749">
        <ele>206.3</ele>
        <time>2022-09-24T15:29:37Z</time>
      </trkpt>
      <trkpt lat="45.89606" lon="5.34749">
        <ele>206.3</ele>
        <time>2022-09-24T15:29:38Z</time>
      </trkpt>
      <trkpt lat="45.89601" lon="5.34749">
        <ele>206.3</ele>
        <time>2022-09-24T15:29:39Z</time>
      </trkpt>
      <trkpt lat="45.89595" lon="5.3475">
        <ele>206.3</ele>
        <time>2022-09-24T15:29:40Z</time>
      </trkpt>
      <trkpt lat="45.89589" lon="5.3475">
        <ele>206.3</ele>
        <time>2022-09-24T15:29:41Z</time>
      </trkpt>
      <trkpt lat="45.89584" lon="5.34751">
        <ele>206.3</ele>
        <time>2022-09-24T15:29:42Z</time>
      </trkpt>
      <trkpt lat="45.89578" lon="5.34751">
        <ele>206.3</ele>
        <time>2022-09-24T15:29:43Z</time>
      </trkpt>
      <trkpt lat="45.89573" lon="5.34751">
        <ele>206.3</ele>
        <time>2022-09-24T15:29:44Z</time>
      </trkpt>
      <trkpt lat="45.89567" lon="5.34751">
        <ele>206.3</ele>
        <time>2022-09-24T15:29:45Z</time>
      </trkpt>
      <trkpt lat="45.89561" lon="5.34752">
        <ele>206.3</ele>
        <time>2022-09-24T15:29:46Z</time>
      </trkpt>
      <trkpt lat="45.89555" lon="5.34752">
        <ele>206.4</ele>
        <time>2022-09-24T15:29:47Z</time>
      </trkpt>
      <trkpt lat="45.89549" lon="5.34752">
        <ele>206.4</ele>
        <time>2022-09-24T15:29:48Z</time>
      </trkpt>
      <trkpt lat="45.89543" lon="5.34752">
        <ele>206.4</ele>
        <time>2022-09-24T15:29:49Z</time>
      </trkpt>
      <trkpt lat="45.89538" lon="5.34752">
        <ele>206.5</ele>
        <time>2022-09-24T15:29:50Z</time>
      </trkpt>
      <trkpt lat="45.89532" lon="5.34752">
        <ele>206.5</ele>
        <time>2022-09-24T15:29:51Z</time>
      </trkpt>
      <trkpt lat="45.89527" lon="5.34752">
        <ele>206.5</ele>
        <time>2022-09-24T15:29:52Z</time>
      </trkpt>
      <trkpt lat="45.89522" lon="5.34752">
        <ele>206.6</ele>
        <time>2022-09-24T15:29:53Z</time>
      </trkpt>
      <trkpt lat="45.89516" lon="5.34752">
        <ele>206.6</ele>
        <time>2022-09-24T15:29:54Z</time>
      </trkpt>
      <trkpt lat="45.8951" lon="5.34752">
        <ele>206.7</ele>
        <time>2022-09-24T15:29:55Z</time>
      </trkpt>
      <trkpt lat="45.89505" lon="5.34752">
        <ele>206.7</ele>
        <time>2022-09-24T15:29:56Z</time>
      </trkpt>
      <trkpt lat="45.89499" lon="5.34751">
        <ele>206.7</ele>
        <time>2022-09-24T15:29:57Z</time>
      </trkpt>
      <trkpt lat="45.89496" lon="5.34751">
        <ele>206.7</ele>
        <time>2022-09-24T15:29:58Z</time>
      </trkpt>
      <trkpt lat="45.89491" lon="5.34751">
        <ele>206.7</ele>
        <time>2022-09-24T15:29:59Z</time>
      </trkpt>
      <trkpt lat="45.89487" lon="5.3475">
        <ele>206.7</ele>
        <time>2022-09-24T15:30:00Z</time>
      </trkpt>
      <trkpt lat="45.89483" lon="5.3475">
        <ele>206.8</ele>
        <time>2022-09-24T15:30:01Z</time>
      </trkpt>
      <trkpt lat="45.89477" lon="5.3475">
        <ele>206.8</ele>
        <time>2022-09-24T15:30:02Z</time>
      </trkpt>
      <trkpt lat="45.89472" lon="5.3475">
        <ele>206.9</ele>
        <time>2022-09-24T15:30:03Z</time>
      </trkpt>
      <trkpt lat="45.89466" lon="5.3475">
        <ele>206.9</ele>
        <time>2022-09-24T15:30:04Z</time>
      </trkpt>
      <trkpt lat="45.89461" lon="5.3475">
        <ele>207</ele>
        <time>2022-09-24T15:30:05Z</time>
      </trkpt>
      <trkpt lat="45.89455" lon="5.34751">
        <ele>207</ele>
        <time>2022-09-24T15:30:06Z</time>
      </trkpt>
      <trkpt lat="45.8945" lon="5.34751">
        <ele>207.1</ele>
        <time>2022-09-24T15:30:07Z</time>
      </trkpt>
      <trkpt lat="45.89445" lon="5.34751">
        <ele>207.2</ele>
        <time>2022-09-24T15:30:08Z</time>
      </trkpt>
      <trkpt lat="45.89439" lon="5.34752">
        <ele>207.3</ele>
        <time>2022-09-24T15:30:09Z</time>
      </trkpt>
      <trkpt lat="45.89435" lon="5.34752">
        <ele>207.3</ele>
        <time>2022-09-24T15:30:10Z</time>
      </trkpt>
      <trkpt lat="45.89431" lon="5.34752">
        <ele>207.4</ele>
        <time>2022-09-24T15:30:11Z</time>
      </trkpt>
      <trkpt lat="45.89427" lon="5.34753">
        <ele>207.5</ele>
        <time>2022-09-24T15:30:12Z</time>
      </trkpt>
      <trkpt lat="45.89423" lon="5.34753">
        <ele>207.6</ele>
        <time>2022-09-24T15:30:13Z</time>
      </trkpt>
      <trkpt lat="45.89418" lon="5.34753">
        <ele>207.7</ele>
        <time>2022-09-24T15:30:14Z</time>
      </trkpt>
      <trkpt lat="45.89414" lon="5.34753">
        <ele>207.7</ele>
        <time>2022-09-24T15:30:15Z</time>
      </trkpt>
      <trkpt lat="45.89409" lon="5.34753">
        <ele>207.8</ele>
        <time>2022-09-24T15:30:16Z</time>
      </trkpt>
      <trkpt lat="45.89405" lon="5.34753">
        <ele>207.9</ele>
        <time>2022-09-24T15:30:17Z</time>
      </trkpt>
      <trkpt lat="45.894" lon="5.34754">
        <ele>208</ele>
        <time>2022-09-24T15:30:18Z</time>
      </trkpt>
      <trkpt lat="45.89396" lon="5.34753">
        <ele>208.1</ele>
        <time>2022-09-24T15:30:19Z</time>
      </trkpt>
      <trkpt lat="45.89391" lon="5.34753">
        <ele>208.2</ele>
        <time>2022-09-24T15:30:20Z</time>
      </trkpt>
      <trkpt lat="45.89388" lon="5.34751">
        <ele>208.2</ele>
        <time>2022-09-24T15:30:21Z</time>
      </trkpt>
      <trkpt lat="45.89384" lon="5.34748">
        <ele>208.3</ele>
        <time>2022-09-24T15:30:22Z</time>
      </trkpt>
      <trkpt lat="45.8938" lon="5.34744">
        <ele>208.3</ele>
        <time>2022-09-24T15:30:23Z</time>
      </trkpt>
      <trkpt lat="45.89377" lon="5.34742">
        <ele>208.3</ele>
        <time>2022-09-24T15:30:24Z</time>
      </trkpt>
      <trkpt lat="45.89373" lon="5.3474">
        <ele>208.4</ele>
        <time>2022-09-24T15:30:25Z</time>
      </trkpt>
      <trkpt lat="45.89369" lon="5.34741">
        <ele>208.4</ele>
        <time>2022-09-24T15:30:26Z</time>
      </trkpt>
      <trkpt lat="45.89365" lon="5.34744">
        <ele>208.3</ele>
        <time>2022-09-24T15:30:27Z</time>
      </trkpt>
      <trkpt lat="45.89362" lon="5.34748">
        <ele>208.3</ele>
        <time>2022-09-24T15:30:28Z</time>
      </trkpt>
      <trkpt lat="45.89359" lon="5.34751">
        <ele>208.3</ele>
        <time>2022-09-24T15:30:29Z</time>
      </trkpt>
      <trkpt lat="45.89356" lon="5.34754">
        <ele>208.3</ele>
        <time>2022-09-24T15:30:30Z</time>
      </trkpt>
      <trkpt lat="45.89353" lon="5.34753">
        <ele>208.3</ele>
        <time>2022-09-24T15:30:31Z</time>
      </trkpt>
      <trkpt lat="45.89347" lon="5.34753">
        <ele>208.2</ele>
        <time>2022-09-24T15:30:32Z</time>
      </trkpt>
      <trkpt lat="45.89342" lon="5.34753">
        <ele>208.1</ele>
        <time>2022-09-24T15:30:33Z</time>
      </trkpt>
      <trkpt lat="45.89336" lon="5.34752">
        <ele>208</ele>
        <time>2022-09-24T15:30:34Z</time>
      </trkpt>
      <trkpt lat="45.89331" lon="5.34753">
        <ele>207.9</ele>
        <time>2022-09-24T15:30:35Z</time>
      </trkpt>
      <trkpt lat="45.89325" lon="5.34752">
        <ele>207.8</ele>
        <time>2022-09-24T15:30:36Z</time>
      </trkpt>
      <trkpt lat="45.89319" lon="5.34752">
        <ele>207.7</ele>
        <time>2022-09-24T15:30:37Z</time>
      </trkpt>
      <trkpt lat="45.89312" lon="5.34753">
        <ele>207.5</ele>
        <time>2022-09-24T15:30:38Z</time>
      </trkpt>
      <trkpt lat="45.89306" lon="5.34753">
        <ele>207.4</ele>
        <time>2022-09-24T15:30:39Z</time>
      </trkpt>
      <trkpt lat="45.893" lon="5.34754">
        <ele>207.3</ele>
        <time>2022-09-24T15:30:40Z</time>
      </trkpt>
      <trkpt lat="45.89293" lon="5.34754">
        <ele>207.2</ele>
        <time>2022-09-24T15:30:41Z</time>
      </trkpt>
      <trkpt lat="45.89287" lon="5.34754">
        <ele>207.1</ele>
        <time>2022-09-24T15:30:42Z</time>
      </trkpt>
      <trkpt lat="45.89281" lon="5.34754">
        <ele>207.1</ele>
        <time>2022-09-24T15:30:43Z</time>
      </trkpt>
      <trkpt lat="45.89274" lon="5.34754">
        <ele>207</ele>
        <time>2022-09-24T15:30:44Z</time>
      </trkpt>
      <trkpt lat="45.89268" lon="5.34754">
        <ele>207</ele>
        <time>2022-09-24T15:30:45Z</time>
      </trkpt>
      <trkpt lat="45.89261" lon="5.34754">
        <ele>207</ele>
        <time>2022-09-24T15:30:46Z</time>
      </trkpt>
      <trkpt lat="45.89255" lon="5.34754">
        <ele>206.9</ele>
        <time>2022-09-24T15:30:47Z</time>
      </trkpt>
      <trkpt lat="45.89248" lon="5.34755">
        <ele>206.9</ele>
        <time>2022-09-24T15:30:48Z</time>
      </trkpt>
      <trkpt lat="45.89242" lon="5.34755">
        <ele>206.9</ele>
        <time>2022-09-24T15:30:49Z</time>
      </trkpt>
      <trkpt lat="45.89236" lon="5.34755">
        <ele>206.8</ele>
        <time>2022-09-24T15:30:50Z</time>
      </trkpt>
      <trkpt lat="45.89229" lon="5.34756">
        <ele>206.8</ele>
        <time>2022-09-24T15:30:51Z</time>
      </trkpt>
      <trkpt lat="45.89223" lon="5.34755">
        <ele>206.8</ele>
        <time>2022-09-24T15:30:52Z</time>
      </trkpt>
      <trkpt lat="45.89216" lon="5.34755">
        <ele>206.7</ele>
        <time>2022-09-24T15:30:53Z</time>
      </trkpt>
      <trkpt lat="45.8921" lon="5.34755">
        <ele>206.7</ele>
        <time>2022-09-24T15:30:54Z</time>
      </trkpt>
      <trkpt lat="45.89204" lon="5.34756">
        <ele>206.7</ele>
        <time>2022-09-24T15:30:55Z</time>
      </trkpt>
      <trkpt lat="45.89198" lon="5.34756">
        <ele>206.7</ele>
        <time>2022-09-24T15:30:56Z</time>
      </trkpt>
      <trkpt lat="45.89191" lon="5.34756">
        <ele>206.7</ele>
        <time>2022-09-24T15:30:57Z</time>
      </trkpt>
      <trkpt lat="45.89185" lon="5.34756">
        <ele>206.7</ele>
        <time>2022-09-24T15:30:58Z</time>
      </trkpt>
      <trkpt lat="45.89179" lon="5.34756">
        <ele>206.7</ele>
        <time>2022-09-24T15:30:59Z</time>
      </trkpt>
      <trkpt lat="45.89173" lon="5.34757">
        <ele>206.7</ele>
        <time>2022-09-24T15:31:00Z</time>
      </trkpt>
      <trkpt lat="45.89167" lon="5.34757">
        <ele>206.8</ele>
        <time>2022-09-24T15:31:01Z</time>
      </trkpt>
      <trkpt lat="45.89161" lon="5.34756">
        <ele>206.8</ele>
        <time>2022-09-24T15:31:02Z</time>
      </trkpt>
      <trkpt lat="45.89156" lon="5.34757">
        <ele>206.8</ele>
        <time>2022-09-24T15:31:03Z</time>
      </trkpt>
      <trkpt lat="45.8915" lon="5.34757">
        <ele>206.8</ele>
        <time>2022-09-24T15:31:04Z</time>
      </trkpt>
      <trkpt lat="45.89144" lon="5.34757">
        <ele>206.8</ele>
        <time>2022-09-24T15:31:05Z</time>
      </trkpt>
      <trkpt lat="45.89138" lon="5.34757">
        <ele>206.8</ele>
        <time>2022-09-24T15:31:06Z</time>
      </trkpt>
      <trkpt lat="45.89133" lon="5.34757">
        <ele>206.8</ele>
        <time>2022-09-24T15:31:07Z</time>
      </trkpt>
      <trkpt lat="45.89127" lon="5.34757">
        <ele>206.9</ele>
        <time>2022-09-24T15:31:08Z</time>
      </trkpt>
      <trkpt lat="45.89121" lon="5.34757">
        <ele>206.9</ele>
        <time>2022-09-24T15:31:09Z</time>
      </trkpt>
      <trkpt lat="45.89115" lon="5.34757">
        <ele>206.9</ele>
        <time>2022-09-24T15:31:10Z</time>
      </trkpt>
      <trkpt lat="45.89109" lon="5.34758">
        <ele>206.9</ele>
        <time>2022-09-24T15:31:11Z</time>
      </trkpt>
      <trkpt lat="45.89104" lon="5.34758">
        <ele>207</ele>
        <time>2022-09-24T15:31:12Z</time>
      </trkpt>
      <trkpt lat="45.89098" lon="5.34758">
        <ele>207</ele>
        <time>2022-09-24T15:31:13Z</time>
      </trkpt>
      <trkpt lat="45.89093" lon="5.34758">
        <ele>207</ele>
        <time>2022-09-24T15:31:14Z</time>
      </trkpt>
      <trkpt lat="45.89087" lon="5.34758">
        <ele>207.1</ele>
        <time>2022-09-24T15:31:15Z</time>
      </trkpt>
      <trkpt lat="45.89082" lon="5.34758">
        <ele>207.1</ele>
        <time>2022-09-24T15:31:16Z</time>
      </trkpt>
      <trkpt lat="45.89077" lon="5.34759">
        <ele>207.1</ele>
        <time>2022-09-24T15:31:17Z</time>
      </trkpt>
      <trkpt lat="45.89071" lon="5.34758">
        <ele>207.2</ele>
        <time>2022-09-24T15:31:18Z</time>
      </trkpt>
      <trkpt lat="45.89066" lon="5.34758">
        <ele>207.2</ele>
        <time>2022-09-24T15:31:19Z</time>
      </trkpt>
      <trkpt lat="45.8906" lon="5.34758">
        <ele>207.3</ele>
        <time>2022-09-24T15:31:20Z</time>
      </trkpt>
      <trkpt lat="45.89055" lon="5.34759">
        <ele>207.3</ele>
        <time>2022-09-24T15:31:21Z</time>
      </trkpt>
      <trkpt lat="45.89049" lon="5.34759">
        <ele>207.3</ele>
        <time>2022-09-24T15:31:22Z</time>
      </trkpt>
      <trkpt lat="45.89043" lon="5.34759">
        <ele>207.4</ele>
        <time>2022-09-24T15:31:23Z</time>
      </trkpt>
      <trkpt lat="45.89037" lon="5.34759">
        <ele>207.4</ele>
        <time>2022-09-24T15:31:24Z</time>
      </trkpt>
      <trkpt lat="45.89032" lon="5.34759">
        <ele>207.4</ele>
        <time>2022-09-24T15:31:25Z</time>
      </trkpt>
      <trkpt lat="45.89025" lon="5.34759">
        <ele>207.5</ele>
        <time>2022-09-24T15:31:26Z</time>
      </trkpt>
      <trkpt lat="45.8902" lon="5.34759">
        <ele>207.5</ele>
        <time>2022-09-24T15:31:27Z</time>
      </trkpt>
      <trkpt lat="45.89014" lon="5.34759">
        <ele>207.5</ele>
        <time>2022-09-24T15:31:28Z</time>
      </trkpt>
      <trkpt lat="45.89008" lon="5.34759">
        <ele>207.6</ele>
        <time>2022-09-24T15:31:29Z</time>
      </trkpt>
      <trkpt lat="45.89002" lon="5.34759">
        <ele>207.6</ele>
        <time>2022-09-24T15:31:30Z</time>
      </trkpt>
      <trkpt lat="45.88996" lon="5.34759">
        <ele>207.7</ele>
        <time>2022-09-24T15:31:31Z</time>
      </trkpt>
      <trkpt lat="45.88991" lon="5.34759">
        <ele>207.7</ele>
        <time>2022-09-24T15:31:32Z</time>
      </trkpt>
      <trkpt lat="45.88985" lon="5.34759">
        <ele>207.8</ele>
        <time>2022-09-24T15:31:33Z</time>
      </trkpt>
      <trkpt lat="45.88979" lon="5.3476">
        <ele>207.8</ele>
        <time>2022-09-24T15:31:34Z</time>
      </trkpt>
      <trkpt lat="45.88974" lon="5.34759">
        <ele>207.9</ele>
        <time>2022-09-24T15:31:35Z</time>
      </trkpt>
      <trkpt lat="45.88968" lon="5.3476">
        <ele>207.9</ele>
        <time>2022-09-24T15:31:36Z</time>
      </trkpt>
      <trkpt lat="45.88962" lon="5.3476">
        <ele>208</ele>
        <time>2022-09-24T15:31:37Z</time>
      </trkpt>
      <trkpt lat="45.88957" lon="5.3476">
        <ele>208</ele>
        <time>2022-09-24T15:31:38Z</time>
      </trkpt>
      <trkpt lat="45.88952" lon="5.3476">
        <ele>208.1</ele>
        <time>2022-09-24T15:31:39Z</time>
      </trkpt>
      <trkpt lat="45.88947" lon="5.3476">
        <ele>208.1</ele>
        <time>2022-09-24T15:31:40Z</time>
      </trkpt>
      <trkpt lat="45.88943" lon="5.3476">
        <ele>208.2</ele>
        <time>2022-09-24T15:31:41Z</time>
      </trkpt>
      <trkpt lat="45.88938" lon="5.34759">
        <ele>208.2</ele>
        <time>2022-09-24T15:31:42Z</time>
      </trkpt>
      <trkpt lat="45.88934" lon="5.34758">
        <ele>208.2</ele>
        <time>2022-09-24T15:31:43Z</time>
      </trkpt>
      <trkpt lat="45.88929" lon="5.34758">
        <ele>208.3</ele>
        <time>2022-09-24T15:31:44Z</time>
      </trkpt>
      <trkpt lat="45.88924" lon="5.34759">
        <ele>208.3</ele>
        <time>2022-09-24T15:31:45Z</time>
      </trkpt>
      <trkpt lat="45.88919" lon="5.34759">
        <ele>208.3</ele>
        <time>2022-09-24T15:31:46Z</time>
      </trkpt>
      <trkpt lat="45.88914" lon="5.34759">
        <ele>208.4</ele>
        <time>2022-09-24T15:31:47Z</time>
      </trkpt>
      <trkpt lat="45.88909" lon="5.34759">
        <ele>208.4</ele>
        <time>2022-09-24T15:31:48Z</time>
      </trkpt>
      <trkpt lat="45.88905" lon="5.34759">
        <ele>208.4</ele>
        <time>2022-09-24T15:31:49Z</time>
      </trkpt>
      <trkpt lat="45.889" lon="5.3476">
        <ele>208.4</ele>
        <time>2022-09-24T15:31:50Z</time>
      </trkpt>
      <trkpt lat="45.88895" lon="5.3476">
        <ele>208.4</ele>
        <time>2022-09-24T15:31:51Z</time>
      </trkpt>
      <trkpt lat="45.88891" lon="5.3476">
        <ele>208.4</ele>
        <time>2022-09-24T15:31:52Z</time>
      </trkpt>
      <trkpt lat="45.88886" lon="5.3476">
        <ele>208.4</ele>
        <time>2022-09-24T15:31:53Z</time>
      </trkpt>
      <trkpt lat="45.88883" lon="5.3476">
        <ele>208.4</ele>
        <time>2022-09-24T15:31:54Z</time>
      </trkpt>
      <trkpt lat="45.88878" lon="5.3476">
        <ele>208.3</ele>
        <time>2022-09-24T15:31:55Z</time>
      </trkpt>
      <trkpt lat="45.88873" lon="5.3476">
        <ele>208.3</ele>
        <time>2022-09-24T15:31:56Z</time>
      </trkpt>
      <trkpt lat="45.88867" lon="5.3476">
        <ele>208.2</ele>
        <time>2022-09-24T15:31:57Z</time>
      </trkpt>
      <trkpt lat="45.88862" lon="5.34759">
        <ele>208.2</ele>
        <time>2022-09-24T15:31:58Z</time>
      </trkpt>
      <trkpt lat="45.88856" lon="5.3476">
        <ele>208</ele>
        <time>2022-09-24T15:31:59Z</time>
      </trkpt>
      <trkpt lat="45.88851" lon="5.3476">
        <ele>207.9</ele>
        <time>2022-09-24T15:32:00Z</time>
      </trkpt>
      <trkpt lat="45.88845" lon="5.3476">
        <ele>207.8</ele>
        <time>2022-09-24T15:32:01Z</time>
      </trkpt>
      <trkpt lat="45.8884" lon="5.3476">
        <ele>207.7</ele>
        <time>2022-09-24T15:32:02Z</time>
      </trkpt>
      <trkpt lat="45.88834" lon="5.3476">
        <ele>207.5</ele>
        <time>2022-09-24T15:32:03Z</time>
      </trkpt>
      <trkpt lat="45.88827" lon="5.3476">
        <ele>207.4</ele>
        <time>2022-09-24T15:32:04Z</time>
      </trkpt>
      <trkpt lat="45.88821" lon="5.34761">
        <ele>207.3</ele>
        <time>2022-09-24T15:32:05Z</time>
      </trkpt>
      <trkpt lat="45.88815" lon="5.34761">
        <ele>207.1</ele>
        <time>2022-09-24T15:32:06Z</time>
      </trkpt>
      <trkpt lat="45.8881" lon="5.34761">
        <ele>207</ele>
        <time>2022-09-24T15:32:07Z</time>
      </trkpt>
      <trkpt lat="45.88804" lon="5.34762">
        <ele>206.8</ele>
        <time>2022-09-24T15:32:08Z</time>
      </trkpt>
      <trkpt lat="45.88796" lon="5.34762">
        <ele>206.6</ele>
        <time>2022-09-24T15:32:09Z</time>
      </trkpt>
      <trkpt lat="45.8879" lon="5.34762">
        <ele>206.5</ele>
        <time>2022-09-24T15:32:10Z</time>
      </trkpt>
      <trkpt lat="45.88783" lon="5.34762">
        <ele>206.3</ele>
        <time>2022-09-24T15:32:11Z</time>
      </trkpt>
      <trkpt lat="45.88777" lon="5.34762">
        <ele>206.1</ele>
        <time>2022-09-24T15:32:12Z</time>
      </trkpt>
      <trkpt lat="45.8877" lon="5.34762">
        <ele>206</ele>
        <time>2022-09-24T15:32:13Z</time>
      </trkpt>
      <trkpt lat="45.88763" lon="5.34762">
        <ele>205.8</ele>
        <time>2022-09-24T15:32:14Z</time>
      </trkpt>
      <trkpt lat="45.88756" lon="5.34762">
        <ele>205.6</ele>
        <time>2022-09-24T15:32:15Z</time>
      </trkpt>
      <trkpt lat="45.88749" lon="5.34763">
        <ele>205.4</ele>
        <time>2022-09-24T15:32:16Z</time>
      </trkpt>
      <trkpt lat="45.88742" lon="5.34762">
        <ele>205.3</ele>
        <time>2022-09-24T15:32:17Z</time>
      </trkpt>
      <trkpt lat="45.88734" lon="5.34763">
        <ele>205.1</ele>
        <time>2022-09-24T15:32:18Z</time>
      </trkpt>
      <trkpt lat="45.88727" lon="5.34763">
        <ele>204.9</ele>
        <time>2022-09-24T15:32:19Z</time>
      </trkpt>
      <trkpt lat="45.8872" lon="5.34764">
        <ele>204.8</ele>
        <time>2022-09-24T15:32:20Z</time>
      </trkpt>
      <trkpt lat="45.88712" lon="5.34763">
        <ele>204.6</ele>
        <time>2022-09-24T15:32:21Z</time>
      </trkpt>
      <trkpt lat="45.88705" lon="5.34763">
        <ele>204.5</ele>
        <time>2022-09-24T15:32:22Z</time>
      </trkpt>
      <trkpt lat="45.88699" lon="5.34763">
        <ele>204.4</ele>
        <time>2022-09-24T15:32:23Z</time>
      </trkpt>
      <trkpt lat="45.88692" lon="5.34763">
        <ele>204.3</ele>
        <time>2022-09-24T15:32:24Z</time>
      </trkpt>
      <trkpt lat="45.88686" lon="5.34764">
        <ele>204.2</ele>
        <time>2022-09-24T15:32:25Z</time>
      </trkpt>
      <trkpt lat="45.88678" lon="5.34763">
        <ele>204.1</ele>
        <time>2022-09-24T15:32:26Z</time>
      </trkpt>
      <trkpt lat="45.88671" lon="5.34764">
        <ele>204</ele>
        <time>2022-09-24T15:32:27Z</time>
      </trkpt>
      <trkpt lat="45.88665" lon="5.34764">
        <ele>203.9</ele>
        <time>2022-09-24T15:32:28Z</time>
      </trkpt>
      <trkpt lat="45.88658" lon="5.34764">
        <ele>203.9</ele>
        <time>2022-09-24T15:32:29Z</time>
      </trkpt>
      <trkpt lat="45.88651" lon="5.34765">
        <ele>203.8</ele>
        <time>2022-09-24T15:32:30Z</time>
      </trkpt>
      <trkpt lat="45.88645" lon="5.34765">
        <ele>203.7</ele>
        <time>2022-09-24T15:32:31Z</time>
      </trkpt>
      <trkpt lat="45.88639" lon="5.34765">
        <ele>203.7</ele>
        <time>2022-09-24T15:32:32Z</time>
      </trkpt>
      <trkpt lat="45.88633" lon="5.34764">
        <ele>203.6</ele>
        <time>2022-09-24T15:32:33Z</time>
      </trkpt>
      <trkpt lat="45.88626" lon="5.34764">
        <ele>203.6</ele>
        <time>2022-09-24T15:32:34Z</time>
      </trkpt>
      <trkpt lat="45.88621" lon="5.34763">
        <ele>203.5</ele>
        <time>2022-09-24T15:32:35Z</time>
      </trkpt>
      <trkpt lat="45.88616" lon="5.34762">
        <ele>203.5</ele>
        <time>2022-09-24T15:32:36Z</time>
      </trkpt>
      <trkpt lat="45.88609" lon="5.34761">
        <ele>203.5</ele>
        <time>2022-09-24T15:32:37Z</time>
      </trkpt>
      <trkpt lat="45.88602" lon="5.34761">
        <ele>203.5</ele>
        <time>2022-09-24T15:32:38Z</time>
      </trkpt>
      <trkpt lat="45.88594" lon="5.34761">
        <ele>203.4</ele>
        <time>2022-09-24T15:32:39Z</time>
      </trkpt>
      <trkpt lat="45.88588" lon="5.34761">
        <ele>203.4</ele>
        <time>2022-09-24T15:32:40Z</time>
      </trkpt>
      <trkpt lat="45.88582" lon="5.3476">
        <ele>203.4</ele>
        <time>2022-09-24T15:32:41Z</time>
      </trkpt>
      <trkpt lat="45.88576" lon="5.34758">
        <ele>203.4</ele>
        <time>2022-09-24T15:32:42Z</time>
      </trkpt>
      <trkpt lat="45.88569" lon="5.34756">
        <ele>203.4</ele>
        <time>2022-09-24T15:32:43Z</time>
      </trkpt>
      <trkpt lat="45.88564" lon="5.34752">
        <ele>203.4</ele>
        <time>2022-09-24T15:32:44Z</time>
      </trkpt>
      <trkpt lat="45.88558" lon="5.34749">
        <ele>203.4</ele>
        <time>2022-09-24T15:32:45Z</time>
      </trkpt>
      <trkpt lat="45.88553" lon="5.34746">
        <ele>203.4</ele>
        <time>2022-09-24T15:32:46Z</time>
      </trkpt>
      <trkpt lat="45.88548" lon="5.34741">
        <ele>203.4</ele>
        <time>2022-09-24T15:32:47Z</time>
      </trkpt>
      <trkpt lat="45.88544" lon="5.34737">
        <ele>203.5</ele>
        <time>2022-09-24T15:32:48Z</time>
      </trkpt>
      <trkpt lat="45.88541" lon="5.34731">
        <ele>203.5</ele>
        <time>2022-09-24T15:32:49Z</time>
      </trkpt>
      <trkpt lat="45.88538" lon="5.34724">
        <ele>203.6</ele>
        <time>2022-09-24T15:32:50Z</time>
      </trkpt>
      <trkpt lat="45.88537" lon="5.34717">
        <ele>203.7</ele>
        <time>2022-09-24T15:32:51Z</time>
      </trkpt>
      <trkpt lat="45.88537" lon="5.3471">
        <ele>203.7</ele>
        <time>2022-09-24T15:32:52Z</time>
      </trkpt>
      <trkpt lat="45.88537" lon="5.34701">
        <ele>203.7</ele>
        <time>2022-09-24T15:32:53Z</time>
      </trkpt>
      <trkpt lat="45.88535" lon="5.34694">
        <ele>203.7</ele>
        <time>2022-09-24T15:32:54Z</time>
      </trkpt>
      <trkpt lat="45.88533" lon="5.34688">
        <ele>203.7</ele>
        <time>2022-09-24T15:32:55Z</time>
      </trkpt>
      <trkpt lat="45.88529" lon="5.34681">
        <ele>203.7</ele>
        <time>2022-09-24T15:32:56Z</time>
      </trkpt>
      <trkpt lat="45.88525" lon="5.34677">
        <ele>203.7</ele>
        <time>2022-09-24T15:32:57Z</time>
      </trkpt>
      <trkpt lat="45.8852" lon="5.34672">
        <ele>203.7</ele>
        <time>2022-09-24T15:32:58Z</time>
      </trkpt>
      <trkpt lat="45.88514" lon="5.3467">
        <ele>203.7</ele>
        <time>2022-09-24T15:32:59Z</time>
      </trkpt>
      <trkpt lat="45.88509" lon="5.34668">
        <ele>203.6</ele>
        <time>2022-09-24T15:33:00Z</time>
      </trkpt>
      <trkpt lat="45.88503" lon="5.34668">
        <ele>203.6</ele>
        <time>2022-09-24T15:33:01Z</time>
      </trkpt>
      <trkpt lat="45.88497" lon="5.34669">
        <ele>203.6</ele>
        <time>2022-09-24T15:33:02Z</time>
      </trkpt>
      <trkpt lat="45.88492" lon="5.34672">
        <ele>203.6</ele>
        <time>2022-09-24T15:33:03Z</time>
      </trkpt>
      <trkpt lat="45.88486" lon="5.34675">
        <ele>203.6</ele>
        <time>2022-09-24T15:33:04Z</time>
      </trkpt>
      <trkpt lat="45.88482" lon="5.34679">
        <ele>203.6</ele>
        <time>2022-09-24T15:33:05Z</time>
      </trkpt>
      <trkpt lat="45.88478" lon="5.34685">
        <ele>203.6</ele>
        <time>2022-09-24T15:33:06Z</time>
      </trkpt>
      <trkpt lat="45.88475" lon="5.34692">
        <ele>203.6</ele>
        <time>2022-09-24T15:33:07Z</time>
      </trkpt>
      <trkpt lat="45.88473" lon="5.34699">
        <ele>203.6</ele>
        <time>2022-09-24T15:33:08Z</time>
      </trkpt>
      <trkpt lat="45.88472" lon="5.34705">
        <ele>203.6</ele>
        <time>2022-09-24T15:33:09Z</time>
      </trkpt>
      <trkpt lat="45.88469" lon="5.34713">
        <ele>203.6</ele>
        <time>2022-09-24T15:33:10Z</time>
      </trkpt>
      <trkpt lat="45.88465" lon="5.34719">
        <ele>203.6</ele>
        <time>2022-09-24T15:33:11Z</time>
      </trkpt>
      <trkpt lat="45.88461" lon="5.34724">
        <ele>203.7</ele>
        <time>2022-09-24T15:33:12Z</time>
      </trkpt>
      <trkpt lat="45.88456" lon="5.34727">
        <ele>203.8</ele>
        <time>2022-09-24T15:33:13Z</time>
      </trkpt>
      <trkpt lat="45.88451" lon="5.34729">
        <ele>203.8</ele>
        <time>2022-09-24T15:33:14Z</time>
      </trkpt>
      <trkpt lat="45.88447" lon="5.34731">
        <ele>203.9</ele>
        <time>2022-09-24T15:33:15Z</time>
      </trkpt>
      <trkpt lat="45.88441" lon="5.34734">
        <ele>203.9</ele>
        <time>2022-09-24T15:33:16Z</time>
      </trkpt>
      <trkpt lat="45.88436" lon="5.34736">
        <ele>204</ele>
        <time>2022-09-24T15:33:17Z</time>
      </trkpt>
      <trkpt lat="45.8843" lon="5.34738">
        <ele>204.1</ele>
        <time>2022-09-24T15:33:18Z</time>
      </trkpt>
      <trkpt lat="45.88426" lon="5.34739">
        <ele>204.2</ele>
        <time>2022-09-24T15:33:19Z</time>
      </trkpt>
      <trkpt lat="45.88421" lon="5.3474">
        <ele>204.3</ele>
        <time>2022-09-24T15:33:20Z</time>
      </trkpt>
      <trkpt lat="45.88415" lon="5.34742">
        <ele>204.4</ele>
        <time>2022-09-24T15:33:21Z</time>
      </trkpt>
      <trkpt lat="45.8841" lon="5.34744">
        <ele>204.5</ele>
        <time>2022-09-24T15:33:22Z</time>
      </trkpt>
      <trkpt lat="45.88404" lon="5.34745">
        <ele>204.7</ele>
        <time>2022-09-24T15:33:23Z</time>
      </trkpt>
      <trkpt lat="45.884" lon="5.34745">
        <ele>204.8</ele>
        <time>2022-09-24T15:33:24Z</time>
      </trkpt>
      <trkpt lat="45.88394" lon="5.34747">
        <ele>204.9</ele>
        <time>2022-09-24T15:33:25Z</time>
      </trkpt>
      <trkpt lat="45.88389" lon="5.34747">
        <ele>205.1</ele>
        <time>2022-09-24T15:33:26Z</time>
      </trkpt>
      <trkpt lat="45.88383" lon="5.34748">
        <ele>205.2</ele>
        <time>2022-09-24T15:33:27Z</time>
      </trkpt>
      <trkpt lat="45.88378" lon="5.34749">
        <ele>205.3</ele>
        <time>2022-09-24T15:33:28Z</time>
      </trkpt>
      <trkpt lat="45.88372" lon="5.34749">
        <ele>205.5</ele>
        <time>2022-09-24T15:33:29Z</time>
      </trkpt>
      <trkpt lat="45.88367" lon="5.34749">
        <ele>205.6</ele>
        <time>2022-09-24T15:33:30Z</time>
      </trkpt>
      <trkpt lat="45.88362" lon="5.3475">
        <ele>205.7</ele>
        <time>2022-09-24T15:33:31Z</time>
      </trkpt>
      <trkpt lat="45.88356" lon="5.3475">
        <ele>205.9</ele>
        <time>2022-09-24T15:33:32Z</time>
      </trkpt>
      <trkpt lat="45.88351" lon="5.3475">
        <ele>206</ele>
        <time>2022-09-24T15:33:33Z</time>
      </trkpt>
      <trkpt lat="45.88347" lon="5.34751">
        <ele>206.1</ele>
        <time>2022-09-24T15:33:34Z</time>
      </trkpt>
      <trkpt lat="45.88342" lon="5.34751">
        <ele>206.2</ele>
        <time>2022-09-24T15:33:35Z</time>
      </trkpt>
      <trkpt lat="45.88336" lon="5.34751">
        <ele>206.3</ele>
        <time>2022-09-24T15:33:36Z</time>
      </trkpt>
      <trkpt lat="45.88331" lon="5.34752">
        <ele>206.4</ele>
        <time>2022-09-24T15:33:37Z</time>
      </trkpt>
      <trkpt lat="45.88327" lon="5.34752">
        <ele>206.5</ele>
        <time>2022-09-24T15:33:38Z</time>
      </trkpt>
      <trkpt lat="45.88322" lon="5.34753">
        <ele>206.5</ele>
        <time>2022-09-24T15:33:39Z</time>
      </trkpt>
      <trkpt lat="45.88318" lon="5.34753">
        <ele>206.6</ele>
        <time>2022-09-24T15:33:40Z</time>
      </trkpt>
      <trkpt lat="45.88312" lon="5.34753">
        <ele>206.7</ele>
        <time>2022-09-24T15:33:41Z</time>
      </trkpt>
      <trkpt lat="45.88307" lon="5.34754">
        <ele>206.7</ele>
        <time>2022-09-24T15:33:42Z</time>
      </trkpt>
      <trkpt lat="45.88301" lon="5.34754">
        <ele>206.8</ele>
        <time>2022-09-24T15:33:43Z</time>
      </trkpt>
      <trkpt lat="45.88296" lon="5.34754">
        <ele>206.8</ele>
        <time>2022-09-24T15:33:44Z</time>
      </trkpt>
      <trkpt lat="45.88291" lon="5.34754">
        <ele>206.9</ele>
        <time>2022-09-24T15:33:45Z</time>
      </trkpt>
      <trkpt lat="45.88286" lon="5.34754">
        <ele>206.9</ele>
        <time>2022-09-24T15:33:46Z</time>
      </trkpt>
      <trkpt lat="45.8828" lon="5.34754">
        <ele>206.9</ele>
        <time>2022-09-24T15:33:47Z</time>
      </trkpt>
      <trkpt lat="45.88275" lon="5.34754">
        <ele>206.9</ele>
        <time>2022-09-24T15:33:48Z</time>
      </trkpt>
      <trkpt lat="45.8827" lon="5.34755">
        <ele>206.9</ele>
        <time>2022-09-24T15:33:49Z</time>
      </trkpt>
      <trkpt lat="45.88264" lon="5.34755">
        <ele>206.9</ele>
        <time>2022-09-24T15:33:50Z</time>
      </trkpt>
      <trkpt lat="45.88258" lon="5.34755">
        <ele>206.9</ele>
        <time>2022-09-24T15:33:51Z</time>
      </trkpt>
      <trkpt lat="45.88253" lon="5.34755">
        <ele>206.9</ele>
        <time>2022-09-24T15:33:52Z</time>
      </trkpt>
      <trkpt lat="45.88247" lon="5.34755">
        <ele>206.9</ele>
        <time>2022-09-24T15:33:53Z</time>
      </trkpt>
      <trkpt lat="45.88241" lon="5.34756">
        <ele>206.9</ele>
        <time>2022-09-24T15:33:54Z</time>
      </trkpt>
      <trkpt lat="45.88235" lon="5.34756">
        <ele>206.9</ele>
        <time>2022-09-24T15:33:55Z</time>
      </trkpt>
      <trkpt lat="45.88229" lon="5.34756">
        <ele>206.9</ele>
        <time>2022-09-24T15:33:56Z</time>
      </trkpt>
      <trkpt lat="45.88223" lon="5.34756">
        <ele>206.8</ele>
        <time>2022-09-24T15:33:57Z</time>
      </trkpt>
      <trkpt lat="45.88217" lon="5.34756">
        <ele>206.8</ele>
        <time>2022-09-24T15:33:58Z</time>
      </trkpt>
      <trkpt lat="45.88211" lon="5.34756">
        <ele>206.7</ele>
        <time>2022-09-24T15:33:59Z</time>
      </trkpt>
      <trkpt lat="45.88205" lon="5.34757">
        <ele>206.6</ele>
        <time>2022-09-24T15:34:00Z</time>
      </trkpt>
      <trkpt lat="45.88199" lon="5.34757">
        <ele>206.6</ele>
        <time>2022-09-24T15:34:01Z</time>
      </trkpt>
      <trkpt lat="45.88193" lon="5.34756">
        <ele>206.5</ele>
        <time>2022-09-24T15:34:02Z</time>
      </trkpt>
      <trkpt lat="45.88187" lon="5.34756">
        <ele>206.4</ele>
        <time>2022-09-24T15:34:03Z</time>
      </trkpt>
      <trkpt lat="45.88183" lon="5.34755">
        <ele>206.3</ele>
        <time>2022-09-24T15:34:04Z</time>
      </trkpt>
      <trkpt lat="45.88177" lon="5.34754">
        <ele>206.2</ele>
        <time>2022-09-24T15:34:05Z</time>
      </trkpt>
      <trkpt lat="45.88172" lon="5.34752">
        <ele>206</ele>
        <time>2022-09-24T15:34:06Z</time>
      </trkpt>
      <trkpt lat="45.88168" lon="5.34751">
        <ele>205.9</ele>
        <time>2022-09-24T15:34:07Z</time>
      </trkpt>
      <trkpt lat="45.88163" lon="5.3475">
        <ele>205.7</ele>
        <time>2022-09-24T15:34:08Z</time>
      </trkpt>
      <trkpt lat="45.88156" lon="5.34751">
        <ele>205.5</ele>
        <time>2022-09-24T15:34:09Z</time>
      </trkpt>
      <trkpt lat="45.8815" lon="5.34751">
        <ele>205.3</ele>
        <time>2022-09-24T15:34:10Z</time>
      </trkpt>
      <trkpt lat="45.88145" lon="5.34751">
        <ele>205.1</ele>
        <time>2022-09-24T15:34:11Z</time>
      </trkpt>
      <trkpt lat="45.8814" lon="5.3475">
        <ele>204.9</ele>
        <time>2022-09-24T15:34:12Z</time>
      </trkpt>
      <trkpt lat="45.88134" lon="5.34748">
        <ele>204.7</ele>
        <time>2022-09-24T15:34:13Z</time>
      </trkpt>
      <trkpt lat="45.88128" lon="5.34749">
        <ele>204.5</ele>
        <time>2022-09-24T15:34:14Z</time>
      </trkpt>
      <trkpt lat="45.88122" lon="5.34749">
        <ele>204.3</ele>
        <time>2022-09-24T15:34:15Z</time>
      </trkpt>
      <trkpt lat="45.88116" lon="5.34749">
        <ele>204.1</ele>
        <time>2022-09-24T15:34:16Z</time>
      </trkpt>
      <trkpt lat="45.88111" lon="5.34749">
        <ele>203.9</ele>
        <time>2022-09-24T15:34:17Z</time>
      </trkpt>
      <trkpt lat="45.88104" lon="5.34749">
        <ele>203.7</ele>
        <time>2022-09-24T15:34:18Z</time>
      </trkpt>
      <trkpt lat="45.88099" lon="5.34749">
        <ele>203.5</ele>
        <time>2022-09-24T15:34:19Z</time>
      </trkpt>
      <trkpt lat="45.88092" lon="5.3475">
        <ele>203.2</ele>
        <time>2022-09-24T15:34:20Z</time>
      </trkpt>
      <trkpt lat="45.88086" lon="5.3475">
        <ele>203</ele>
        <time>2022-09-24T15:34:21Z</time>
      </trkpt>
      <trkpt lat="45.88078" lon="5.3475">
        <ele>202.8</ele>
        <time>2022-09-24T15:34:22Z</time>
      </trkpt>
      <trkpt lat="45.88074" lon="5.34751">
        <ele>202.6</ele>
        <time>2022-09-24T15:34:23Z</time>
      </trkpt>
      <trkpt lat="45.88067" lon="5.3475">
        <ele>202.4</ele>
        <time>2022-09-24T15:34:24Z</time>
      </trkpt>
      <trkpt lat="45.88062" lon="5.3475">
        <ele>202.2</ele>
        <time>2022-09-24T15:34:25Z</time>
      </trkpt>
      <trkpt lat="45.88056" lon="5.34751">
        <ele>202</ele>
        <time>2022-09-24T15:34:26Z</time>
      </trkpt>
      <trkpt lat="45.88051" lon="5.3475">
        <ele>201.7</ele>
        <time>2022-09-24T15:34:27Z</time>
      </trkpt>
      <trkpt lat="45.88045" lon="5.34749">
        <ele>201.5</ele>
        <time>2022-09-24T15:34:28Z</time>
      </trkpt>
      <trkpt lat="45.88037" lon="5.3475">
        <ele>201.2</ele>
        <time>2022-09-24T15:34:29Z</time>
      </trkpt>
      <trkpt lat="45.8803" lon="5.34751">
        <ele>200.9</ele>
        <time>2022-09-24T15:34:30Z</time>
      </trkpt>
      <trkpt lat="45.88025" lon="5.34751">
        <ele>200.8</ele>
        <time>2022-09-24T15:34:31Z</time>
      </trkpt>
      <trkpt lat="45.8802" lon="5.34749">
        <ele>200.6</ele>
        <time>2022-09-24T15:34:32Z</time>
      </trkpt>
      <trkpt lat="45.88013" lon="5.34749">
        <ele>200.4</ele>
        <time>2022-09-24T15:34:33Z</time>
      </trkpt>
      <trkpt lat="45.88006" lon="5.3475">
        <ele>200.2</ele>
        <time>2022-09-24T15:34:34Z</time>
      </trkpt>
      <trkpt lat="45.88001" lon="5.34749">
        <ele>200</ele>
        <time>2022-09-24T15:34:35Z</time>
      </trkpt>
      <trkpt lat="45.87994" lon="5.3475">
        <ele>199.9</ele>
        <time>2022-09-24T15:34:36Z</time>
      </trkpt>
      <trkpt lat="45.87986" lon="5.34751">
        <ele>199.7</ele>
        <time>2022-09-24T15:34:37Z</time>
      </trkpt>
      <trkpt lat="45.87979" lon="5.34752">
        <ele>199.5</ele>
        <time>2022-09-24T15:34:38Z</time>
      </trkpt>
      <trkpt lat="45.87972" lon="5.34752">
        <ele>199.4</ele>
        <time>2022-09-24T15:34:39Z</time>
      </trkpt>
      <trkpt lat="45.87967" lon="5.34752">
        <ele>199.4</ele>
        <time>2022-09-24T15:34:40Z</time>
      </trkpt>
      <trkpt lat="45.87961" lon="5.34753">
        <ele>199.3</ele>
        <time>2022-09-24T15:34:41Z</time>
      </trkpt>
      <trkpt lat="45.87957" lon="5.34752">
        <ele>199.3</ele>
        <time>2022-09-24T15:34:42Z</time>
      </trkpt>
      <trkpt lat="45.8795" lon="5.34753">
        <ele>199.3</ele>
        <time>2022-09-24T15:34:43Z</time>
      </trkpt>
      <trkpt lat="45.87945" lon="5.34753">
        <ele>199.4</ele>
        <time>2022-09-24T15:34:44Z</time>
      </trkpt>
      <trkpt lat="45.87941" lon="5.34753">
        <ele>199.4</ele>
        <time>2022-09-24T15:34:45Z</time>
      </trkpt>
      <trkpt lat="45.87936" lon="5.34753">
        <ele>199.5</ele>
        <time>2022-09-24T15:34:46Z</time>
      </trkpt>
      <trkpt lat="45.87934" lon="5.34752">
        <ele>199.5</ele>
        <time>2022-09-24T15:34:47Z</time>
      </trkpt>
      <trkpt lat="45.87929" lon="5.34753">
        <ele>199.6</ele>
        <time>2022-09-24T15:34:48Z</time>
      </trkpt>
      <trkpt lat="45.87926" lon="5.34753">
        <ele>199.7</ele>
        <time>2022-09-24T15:34:49Z</time>
      </trkpt>
      <trkpt lat="45.87922" lon="5.34753">
        <ele>199.8</ele>
        <time>2022-09-24T15:34:50Z</time>
      </trkpt>
      <trkpt lat="45.87921" lon="5.34753">
        <ele>199.8</ele>
        <time>2022-09-24T15:34:51Z</time>
      </trkpt>
      <trkpt lat="45.87918" lon="5.34753">
        <ele>199.9</ele>
        <time>2022-09-24T15:34:52Z</time>
      </trkpt>
      <trkpt lat="45.87917" lon="5.34753">
        <ele>199.9</ele>
        <time>2022-09-24T15:34:53Z</time>
      </trkpt>
      <trkpt lat="45.87915" lon="5.34751">
        <ele>200</ele>
        <time>2022-09-24T15:34:54Z</time>
      </trkpt>
      <trkpt lat="45.87915" lon="5.34751">
        <ele>200</ele>
        <time>2022-09-24T15:34:55Z</time>
      </trkpt>
      <trkpt lat="45.87914" lon="5.34751">
        <ele>200</ele>
        <time>2022-09-24T15:34:56Z</time>
      </trkpt>
      <trkpt lat="45.87914" lon="5.34752">
        <ele>200</ele>
        <time>2022-09-24T15:34:57Z</time>
      </trkpt>
      <trkpt lat="45.87913" lon="5.34752">
        <ele>200</ele>
        <time>2022-09-24T15:34:58Z</time>
      </trkpt>
      <trkpt lat="45.87913" lon="5.34752">
        <ele>200.1</ele>
        <time>2022-09-24T15:34:59Z</time>
      </trkpt>
      <trkpt lat="45.87912" lon="5.34752">
        <ele>200.1</ele>
        <time>2022-09-24T15:35:00Z</time>
      </trkpt>
      <trkpt lat="45.87912" lon="5.34752">
        <ele>200.1</ele>
        <time>2022-09-24T15:35:01Z</time>
      </trkpt>
      <trkpt lat="45.87911" lon="5.34752">
        <ele>200.1</ele>
        <time>2022-09-24T15:35:02Z</time>
      </trkpt>
      <trkpt lat="45.87911" lon="5.34752">
        <ele>200.1</ele>
        <time>2022-09-24T15:35:03Z</time>
      </trkpt>
      <trkpt lat="45.8791" lon="5.34752">
        <ele>200.1</ele>
        <time>2022-09-24T15:35:04Z</time>
      </trkpt>
      <trkpt lat="45.8791" lon="5.34753">
        <ele>200.1</ele>
        <time>2022-09-24T15:35:40Z</time>
      </trkpt>
      <trkpt lat="45.87909" lon="5.34753">
        <ele>200.2</ele>
        <time>2022-09-24T15:35:41Z</time>
      </trkpt>
      <trkpt lat="45.87906" lon="5.34753">
        <ele>200.2</ele>
        <time>2022-09-24T15:35:42Z</time>
      </trkpt>
      <trkpt lat="45.87903" lon="5.34753">
        <ele>200.2</ele>
        <time>2022-09-24T15:35:43Z</time>
      </trkpt>
      <trkpt lat="45.87901" lon="5.34753">
        <ele>200.2</ele>
        <time>2022-09-24T15:35:44Z</time>
      </trkpt>
      <trkpt lat="45.87898" lon="5.34753">
        <ele>200.2</ele>
        <time>2022-09-24T15:35:45Z</time>
      </trkpt>
      <trkpt lat="45.87894" lon="5.34753">
        <ele>200.2</ele>
        <time>2022-09-24T15:35:46Z</time>
      </trkpt>
      <trkpt lat="45.87891" lon="5.34753">
        <ele>200.3</ele>
        <time>2022-09-24T15:35:47Z</time>
      </trkpt>
      <trkpt lat="45.87888" lon="5.34752">
        <ele>200.3</ele>
        <time>2022-09-24T15:35:48Z</time>
      </trkpt>
      <trkpt lat="45.87884" lon="5.34752">
        <ele>200.3</ele>
        <time>2022-09-24T15:35:49Z</time>
      </trkpt>
      <trkpt lat="45.87881" lon="5.34752">
        <ele>200.3</ele>
        <time>2022-09-24T15:35:50Z</time>
      </trkpt>
      <trkpt lat="45.87877" lon="5.34752">
        <ele>200.3</ele>
        <time>2022-09-24T15:35:51Z</time>
      </trkpt>
      <trkpt lat="45.87873" lon="5.34752">
        <ele>200.3</ele>
        <time>2022-09-24T15:35:52Z</time>
      </trkpt>
      <trkpt lat="45.87869" lon="5.34752">
        <ele>200.4</ele>
        <time>2022-09-24T15:35:53Z</time>
      </trkpt>
      <trkpt lat="45.87865" lon="5.34751">
        <ele>200.4</ele>
        <time>2022-09-24T15:35:54Z</time>
      </trkpt>
      <trkpt lat="45.87861" lon="5.3475">
        <ele>200.4</ele>
        <time>2022-09-24T15:35:55Z</time>
      </trkpt>
      <trkpt lat="45.87856" lon="5.34749">
        <ele>200.4</ele>
        <time>2022-09-24T15:35:56Z</time>
      </trkpt>
      <trkpt lat="45.87852" lon="5.34748">
        <ele>200.5</ele>
        <time>2022-09-24T15:35:57Z</time>
      </trkpt>
      <trkpt lat="45.87847" lon="5.34748">
        <ele>200.5</ele>
        <time>2022-09-24T15:35:58Z</time>
      </trkpt>
      <trkpt lat="45.87842" lon="5.34747">
        <ele>200.5</ele>
        <time>2022-09-24T15:35:59Z</time>
      </trkpt>
      <trkpt lat="45.87838" lon="5.34746">
        <ele>200.6</ele>
        <time>2022-09-24T15:36:00Z</time>
      </trkpt>
      <trkpt lat="45.87833" lon="5.34746">
        <ele>200.6</ele>
        <time>2022-09-24T15:36:01Z</time>
      </trkpt>
      <trkpt lat="45.87829" lon="5.34745">
        <ele>200.7</ele>
        <time>2022-09-24T15:36:02Z</time>
      </trkpt>
      <trkpt lat="45.87824" lon="5.34744">
        <ele>200.8</ele>
        <time>2022-09-24T15:36:03Z</time>
      </trkpt>
      <trkpt lat="45.87819" lon="5.34742">
        <ele>200.9</ele>
        <time>2022-09-24T15:36:04Z</time>
      </trkpt>
      <trkpt lat="45.87815" lon="5.34741">
        <ele>200.9</ele>
        <time>2022-09-24T15:36:05Z</time>
      </trkpt>
      <trkpt lat="45.8781" lon="5.3474">
        <ele>201</ele>
        <time>2022-09-24T15:36:06Z</time>
      </trkpt>
      <trkpt lat="45.87806" lon="5.34739">
        <ele>201.1</ele>
        <time>2022-09-24T15:36:07Z</time>
      </trkpt>
      <trkpt lat="45.87801" lon="5.34738">
        <ele>201.2</ele>
        <time>2022-09-24T15:36:08Z</time>
      </trkpt>
      <trkpt lat="45.87797" lon="5.34737">
        <ele>201.2</ele>
        <time>2022-09-24T15:36:09Z</time>
      </trkpt>
      <trkpt lat="45.87792" lon="5.34735">
        <ele>201.3</ele>
        <time>2022-09-24T15:36:10Z</time>
      </trkpt>
      <trkpt lat="45.87788" lon="5.34734">
        <ele>201.4</ele>
        <time>2022-09-24T15:36:11Z</time>
      </trkpt>
      <trkpt lat="45.87784" lon="5.34732">
        <ele>201.4</ele>
        <time>2022-09-24T15:36:12Z</time>
      </trkpt>
      <trkpt lat="45.87779" lon="5.34731">
        <ele>201.5</ele>
        <time>2022-09-24T15:36:13Z</time>
      </trkpt>
      <trkpt lat="45.87775" lon="5.34729">
        <ele>201.6</ele>
        <time>2022-09-24T15:36:14Z</time>
      </trkpt>
      <trkpt lat="45.8777" lon="5.34728">
        <ele>201.6</ele>
        <time>2022-09-24T15:36:15Z</time>
      </trkpt>
      <trkpt lat="45.87766" lon="5.34726">
        <ele>201.7</ele>
        <time>2022-09-24T15:36:16Z</time>
      </trkpt>
      <trkpt lat="45.87761" lon="5.34723">
        <ele>201.8</ele>
        <time>2022-09-24T15:36:17Z</time>
      </trkpt>
      <trkpt lat="45.87757" lon="5.3472">
        <ele>201.9</ele>
        <time>2022-09-24T15:36:18Z</time>
      </trkpt>
      <trkpt lat="45.87752" lon="5.34717">
        <ele>201.9</ele>
        <time>2022-09-24T15:36:19Z</time>
      </trkpt>
      <trkpt lat="45.87747" lon="5.34715">
        <ele>202</ele>
        <time>2022-09-24T15:36:20Z</time>
      </trkpt>
      <trkpt lat="45.87742" lon="5.34713">
        <ele>202.1</ele>
        <time>2022-09-24T15:36:21Z</time>
      </trkpt>
      <trkpt lat="45.87738" lon="5.34711">
        <ele>202.2</ele>
        <time>2022-09-24T15:36:22Z</time>
      </trkpt>
      <trkpt lat="45.87733" lon="5.34708">
        <ele>202.3</ele>
        <time>2022-09-24T15:36:23Z</time>
      </trkpt>
      <trkpt lat="45.87729" lon="5.34705">
        <ele>202.4</ele>
        <time>2022-09-24T15:36:24Z</time>
      </trkpt>
      <trkpt lat="45.87724" lon="5.34702">
        <ele>202.5</ele>
        <time>2022-09-24T15:36:25Z</time>
      </trkpt>
      <trkpt lat="45.8772" lon="5.34699">
        <ele>202.5</ele>
        <time>2022-09-24T15:36:26Z</time>
      </trkpt>
      <trkpt lat="45.87715" lon="5.34697">
        <ele>202.6</ele>
        <time>2022-09-24T15:36:27Z</time>
      </trkpt>
      <trkpt lat="45.87711" lon="5.34693">
        <ele>202.7</ele>
        <time>2022-09-24T15:36:28Z</time>
      </trkpt>
      <trkpt lat="45.87707" lon="5.3469">
        <ele>202.8</ele>
        <time>2022-09-24T15:36:29Z</time>
      </trkpt>
      <trkpt lat="45.87702" lon="5.34688">
        <ele>202.9</ele>
        <time>2022-09-24T15:36:30Z</time>
      </trkpt>
      <trkpt lat="45.87698" lon="5.34685">
        <ele>203</ele>
        <time>2022-09-24T15:36:31Z</time>
      </trkpt>
      <trkpt lat="45.87694" lon="5.34682">
        <ele>203.1</ele>
        <time>2022-09-24T15:36:32Z</time>
      </trkpt>
      <trkpt lat="45.8769" lon="5.3468">
        <ele>203.2</ele>
        <time>2022-09-24T15:36:33Z</time>
      </trkpt>
      <trkpt lat="45.87686" lon="5.34676">
        <ele>203.4</ele>
        <time>2022-09-24T15:36:34Z</time>
      </trkpt>
      <trkpt lat="45.87682" lon="5.34674">
        <ele>203.5</ele>
        <time>2022-09-24T15:36:35Z</time>
      </trkpt>
      <trkpt lat="45.87678" lon="5.34671">
        <ele>203.6</ele>
        <time>2022-09-24T15:36:36Z</time>
      </trkpt>
      <trkpt lat="45.87675" lon="5.34668">
        <ele>203.7</ele>
        <time>2022-09-24T15:36:37Z</time>
      </trkpt>
      <trkpt lat="45.87671" lon="5.34665">
        <ele>203.8</ele>
        <time>2022-09-24T15:36:38Z</time>
      </trkpt>
      <trkpt lat="45.87667" lon="5.34663">
        <ele>203.8</ele>
        <time>2022-09-24T15:36:39Z</time>
      </trkpt>
      <trkpt lat="45.87663" lon="5.3466">
        <ele>203.9</ele>
        <time>2022-09-24T15:36:40Z</time>
      </trkpt>
      <trkpt lat="45.87659" lon="5.34657">
        <ele>204</ele>
        <time>2022-09-24T15:36:41Z</time>
      </trkpt>
      <trkpt lat="45.87656" lon="5.34655">
        <ele>204.1</ele>
        <time>2022-09-24T15:36:42Z</time>
      </trkpt>
      <trkpt lat="45.87652" lon="5.34652">
        <ele>204.2</ele>
        <time>2022-09-24T15:36:43Z</time>
      </trkpt>
      <trkpt lat="45.87649" lon="5.34649">
        <ele>204.3</ele>
        <time>2022-09-24T15:36:44Z</time>
      </trkpt>
      <trkpt lat="45.87645" lon="5.34647">
        <ele>204.4</ele>
        <time>2022-09-24T15:36:45Z</time>
      </trkpt>
      <trkpt lat="45.87642" lon="5.34644">
        <ele>204.5</ele>
        <time>2022-09-24T15:36:46Z</time>
      </trkpt>
      <trkpt lat="45.87639" lon="5.34641">
        <ele>204.5</ele>
        <time>2022-09-24T15:36:47Z</time>
      </trkpt>
      <trkpt lat="45.87636" lon="5.34638">
        <ele>204.6</ele>
        <time>2022-09-24T15:36:48Z</time>
      </trkpt>
      <trkpt lat="45.87633" lon="5.34636">
        <ele>204.7</ele>
        <time>2022-09-24T15:36:49Z</time>
      </trkpt>
      <trkpt lat="45.87631" lon="5.34633">
        <ele>204.6</ele>
        <time>2022-09-24T15:36:50Z</time>
      </trkpt>
      <trkpt lat="45.87628" lon="5.3463">
        <ele>204.6</ele>
        <time>2022-09-24T15:36:51Z</time>
      </trkpt>
      <trkpt lat="45.87628" lon="5.34629">
        <ele>204.5</ele>
        <time>2022-09-24T15:36:52Z</time>
      </trkpt>
      <trkpt lat="45.87628" lon="5.34629">
        <ele>204.5</ele>
        <time>2022-09-24T15:36:53Z</time>
      </trkpt>
      <trkpt lat="45.87628" lon="5.3463">
        <ele>204.5</ele>
        <time>2022-09-24T15:36:54Z</time>
      </trkpt>
      <trkpt lat="45.87629" lon="5.3463">
        <ele>204.5</ele>
        <time>2022-09-24T15:36:55Z</time>
      </trkpt>
      <trkpt lat="45.87629" lon="5.3463">
        <ele>204.5</ele>
        <time>2022-09-24T15:36:56Z</time>
      </trkpt>
      <trkpt lat="45.87629" lon="5.34631">
        <ele>204.5</ele>
        <time>2022-09-24T15:36:57Z</time>
      </trkpt>
      <trkpt lat="45.8763" lon="5.34631">
        <ele>204.5</ele>
        <time>2022-09-24T15:36:58Z</time>
      </trkpt>
      <trkpt lat="45.8763" lon="5.34632">
        <ele>204.5</ele>
        <time>2022-09-24T15:36:59Z</time>
      </trkpt>
      <trkpt lat="45.8763" lon="5.34632">
        <ele>204.5</ele>
        <time>2022-09-24T15:37:00Z</time>
      </trkpt>
      <trkpt lat="45.87631" lon="5.34632">
        <ele>204.5</ele>
        <time>2022-09-24T15:37:01Z</time>
      </trkpt>
      <trkpt lat="45.87631" lon="5.34633">
        <ele>204.5</ele>
        <time>2022-09-24T15:37:02Z</time>
      </trkpt>
      <trkpt lat="45.87631" lon="5.34633">
        <ele>204.4</ele>
        <time>2022-09-24T15:37:03Z</time>
      </trkpt>
      <trkpt lat="45.87632" lon="5.34634">
        <ele>204.4</ele>
        <time>2022-09-24T15:38:37Z</time>
      </trkpt>
      <trkpt lat="45.87632" lon="5.34634">
        <ele>204.4</ele>
        <time>2022-09-24T15:38:38Z</time>
      </trkpt>
      <trkpt lat="45.87635" lon="5.34636">
        <ele>204.4</ele>
        <time>2022-09-24T15:38:39Z</time>
      </trkpt>
      <trkpt lat="45.87636" lon="5.3464">
        <ele>204.3</ele>
        <time>2022-09-24T15:38:40Z</time>
      </trkpt>
      <trkpt lat="45.87638" lon="5.34643">
        <ele>204.3</ele>
        <time>2022-09-24T15:38:41Z</time>
      </trkpt>
      <trkpt lat="45.8764" lon="5.34645">
        <ele>204.2</ele>
        <time>2022-09-24T15:38:42Z</time>
      </trkpt>
      <trkpt lat="45.87643" lon="5.34647">
        <ele>204.1</ele>
        <time>2022-09-24T15:38:43Z</time>
      </trkpt>
      <trkpt lat="45.87647" lon="5.34649">
        <ele>204.1</ele>
        <time>2022-09-24T15:38:44Z</time>
      </trkpt>
      <trkpt lat="45.8765" lon="5.34651">
        <ele>204</ele>
        <time>2022-09-24T15:38:45Z</time>
      </trkpt>
      <trkpt lat="45.87654" lon="5.34654">
        <ele>203.9</ele>
        <time>2022-09-24T15:38:46Z</time>
      </trkpt>
      <trkpt lat="45.87658" lon="5.34657">
        <ele>203.8</ele>
        <time>2022-09-24T15:38:47Z</time>
      </trkpt>
      <trkpt lat="45.87662" lon="5.3466">
        <ele>203.7</ele>
        <time>2022-09-24T15:38:48Z</time>
      </trkpt>
      <trkpt lat="45.87666" lon="5.34663">
        <ele>203.6</ele>
        <time>2022-09-24T15:38:49Z</time>
      </trkpt>
      <trkpt lat="45.87671" lon="5.34666">
        <ele>203.5</ele>
        <time>2022-09-24T15:38:50Z</time>
      </trkpt>
      <trkpt lat="45.87676" lon="5.34669">
        <ele>203.4</ele>
        <time>2022-09-24T15:38:51Z</time>
      </trkpt>
      <trkpt lat="45.87681" lon="5.34673">
        <ele>203.2</ele>
        <time>2022-09-24T15:38:52Z</time>
      </trkpt>
      <trkpt lat="45.87686" lon="5.34677">
        <ele>203.1</ele>
        <time>2022-09-24T15:38:53Z</time>
      </trkpt>
      <trkpt lat="45.87691" lon="5.34681">
        <ele>203</ele>
        <time>2022-09-24T15:38:54Z</time>
      </trkpt>
      <trkpt lat="45.87697" lon="5.34685">
        <ele>202.9</ele>
        <time>2022-09-24T15:38:55Z</time>
      </trkpt>
      <trkpt lat="45.87702" lon="5.34689">
        <ele>202.7</ele>
        <time>2022-09-24T15:38:56Z</time>
      </trkpt>
      <trkpt lat="45.87708" lon="5.34693">
        <ele>202.6</ele>
        <time>2022-09-24T15:38:57Z</time>
      </trkpt>
      <trkpt lat="45.87714" lon="5.34697">
        <ele>202.5</ele>
        <time>2022-09-24T15:38:58Z</time>
      </trkpt>
      <trkpt lat="45.8772" lon="5.34701">
        <ele>202.4</ele>
        <time>2022-09-24T15:38:59Z</time>
      </trkpt>
      <trkpt lat="45.87726" lon="5.34704">
        <ele>202.3</ele>
        <time>2022-09-24T15:39:00Z</time>
      </trkpt>
      <trkpt lat="45.87732" lon="5.34708">
        <ele>202.2</ele>
        <time>2022-09-24T15:39:01Z</time>
      </trkpt>
      <trkpt lat="45.87738" lon="5.34712">
        <ele>202.1</ele>
        <time>2022-09-24T15:39:02Z</time>
      </trkpt>
      <trkpt lat="45.87744" lon="5.34715">
        <ele>202</ele>
        <time>2022-09-24T15:39:03Z</time>
      </trkpt>
      <trkpt lat="45.8775" lon="5.34718">
        <ele>201.9</ele>
        <time>2022-09-24T15:39:04Z</time>
      </trkpt>
      <trkpt lat="45.87756" lon="5.34721">
        <ele>201.8</ele>
        <time>2022-09-24T15:39:05Z</time>
      </trkpt>
      <trkpt lat="45.87763" lon="5.34725">
        <ele>201.7</ele>
        <time>2022-09-24T15:39:06Z</time>
      </trkpt>
      <trkpt lat="45.87769" lon="5.34728">
        <ele>201.6</ele>
        <time>2022-09-24T15:39:07Z</time>
      </trkpt>
      <trkpt lat="45.87775" lon="5.34731">
        <ele>201.5</ele>
        <time>2022-09-24T15:39:08Z</time>
      </trkpt>
      <trkpt lat="45.87782" lon="5.34733">
        <ele>201.4</ele>
        <time>2022-09-24T15:39:09Z</time>
      </trkpt>
      <trkpt lat="45.87788" lon="5.34735">
        <ele>201.3</ele>
        <time>2022-09-24T15:39:10Z</time>
      </trkpt>
      <trkpt lat="45.87795" lon="5.34737">
        <ele>201.2</ele>
        <time>2022-09-24T15:39:11Z</time>
      </trkpt>
      <trkpt lat="45.87802" lon="5.34739">
        <ele>201.1</ele>
        <time>2022-09-24T15:39:12Z</time>
      </trkpt>
      <trkpt lat="45.87808" lon="5.34741">
        <ele>201</ele>
        <time>2022-09-24T15:39:13Z</time>
      </trkpt>
      <trkpt lat="45.87815" lon="5.34742">
        <ele>200.9</ele>
        <time>2022-09-24T15:39:14Z</time>
      </trkpt>
      <trkpt lat="45.87821" lon="5.34744">
        <ele>200.8</ele>
        <time>2022-09-24T15:39:15Z</time>
      </trkpt>
      <trkpt lat="45.87828" lon="5.34746">
        <ele>200.7</ele>
        <time>2022-09-24T15:39:16Z</time>
      </trkpt>
      <trkpt lat="45.87835" lon="5.34747">
        <ele>200.6</ele>
        <time>2022-09-24T15:39:17Z</time>
      </trkpt>
      <trkpt lat="45.87841" lon="5.34748">
        <ele>200.6</ele>
        <time>2022-09-24T15:39:18Z</time>
      </trkpt>
      <trkpt lat="45.87848" lon="5.34749">
        <ele>200.5</ele>
        <time>2022-09-24T15:39:19Z</time>
      </trkpt>
      <trkpt lat="45.87854" lon="5.3475">
        <ele>200.5</ele>
        <time>2022-09-24T15:39:20Z</time>
      </trkpt>
      <trkpt lat="45.8786" lon="5.34751">
        <ele>200.4</ele>
        <time>2022-09-24T15:39:21Z</time>
      </trkpt>
      <trkpt lat="45.87866" lon="5.34752">
        <ele>200.4</ele>
        <time>2022-09-24T15:39:22Z</time>
      </trkpt>
      <trkpt lat="45.87872" lon="5.34753">
        <ele>200.4</ele>
        <time>2022-09-24T15:39:23Z</time>
      </trkpt>
      <trkpt lat="45.87878" lon="5.34752">
        <ele>200.3</ele>
        <time>2022-09-24T15:39:24Z</time>
      </trkpt>
      <trkpt lat="45.87884" lon="5.34752">
        <ele>200.3</ele>
        <time>2022-09-24T15:39:25Z</time>
      </trkpt>
      <trkpt lat="45.87889" lon="5.34753">
        <ele>200.3</ele>
        <time>2022-09-24T15:39:26Z</time>
      </trkpt>
      <trkpt lat="45.87893" lon="5.34753">
        <ele>200.3</ele>
        <time>2022-09-24T15:39:27Z</time>
      </trkpt>
      <trkpt lat="45.87897" lon="5.34754">
        <ele>200.3</ele>
        <time>2022-09-24T15:39:28Z</time>
      </trkpt>
      <trkpt lat="45.879" lon="5.34756">
        <ele>200.3</ele>
        <time>2022-09-24T15:39:29Z</time>
      </trkpt>
      <trkpt lat="45.87901" lon="5.34757">
        <ele>200.3</ele>
        <time>2022-09-24T15:39:30Z</time>
      </trkpt>
      <trkpt lat="45.87901" lon="5.34763">
        <ele>200.5</ele>
        <time>2022-09-24T15:39:31Z</time>
      </trkpt>
      <trkpt lat="45.879" lon="5.34765">
        <ele>200.6</ele>
        <time>2022-09-24T15:39:32Z</time>
      </trkpt>
      <trkpt lat="45.87898" lon="5.34769">
        <ele>200.8</ele>
        <time>2022-09-24T15:39:33Z</time>
      </trkpt>
      <trkpt lat="45.87897" lon="5.3477">
        <ele>200.9</ele>
        <time>2022-09-24T15:39:34Z</time>
      </trkpt>
      <trkpt lat="45.87894" lon="5.34774">
        <ele>201.1</ele>
        <time>2022-09-24T15:39:35Z</time>
      </trkpt>
      <trkpt lat="45.87894" lon="5.34779">
        <ele>201.3</ele>
        <time>2022-09-24T15:39:36Z</time>
      </trkpt>
      <trkpt lat="45.87896" lon="5.34784">
        <ele>201.5</ele>
        <time>2022-09-24T15:39:37Z</time>
      </trkpt>
      <trkpt lat="45.87898" lon="5.34785">
        <ele>201.2</ele>
        <time>2022-09-24T15:39:38Z</time>
      </trkpt>
      <trkpt lat="45.87903" lon="5.34786">
        <ele>201.1</ele>
        <time>2022-09-24T15:39:39Z</time>
      </trkpt>
      <trkpt lat="45.87906" lon="5.34785">
        <ele>201.1</ele>
        <time>2022-09-24T15:39:40Z</time>
      </trkpt>
      <trkpt lat="45.87909" lon="5.34784">
        <ele>201</ele>
        <time>2022-09-24T15:39:41Z</time>
      </trkpt>
      <trkpt lat="45.87914" lon="5.34783">
        <ele>200.9</ele>
        <time>2022-09-24T15:39:42Z</time>
      </trkpt>
      <trkpt lat="45.87918" lon="5.34781">
        <ele>200.8</ele>
        <time>2022-09-24T15:39:43Z</time>
      </trkpt>
      <trkpt lat="45.87921" lon="5.3478">
        <ele>200.7</ele>
        <time>2022-09-24T15:39:44Z</time>
      </trkpt>
      <trkpt lat="45.87925" lon="5.34777">
        <ele>200.6</ele>
        <time>2022-09-24T15:39:45Z</time>
      </trkpt>
      <trkpt lat="45.87929" lon="5.34774">
        <ele>200.5</ele>
        <time>2022-09-24T15:39:46Z</time>
      </trkpt>
      <trkpt lat="45.87933" lon="5.34773">
        <ele>200.4</ele>
        <time>2022-09-24T15:39:47Z</time>
      </trkpt>
      <trkpt lat="45.87937" lon="5.34771">
        <ele>200.3</ele>
        <time>2022-09-24T15:39:48Z</time>
      </trkpt>
      <trkpt lat="45.87943" lon="5.34771">
        <ele>200.1</ele>
        <time>2022-09-24T15:39:49Z</time>
      </trkpt>
      <trkpt lat="45.87948" lon="5.34771">
        <ele>200.1</ele>
        <time>2022-09-24T15:39:50Z</time>
      </trkpt>
      <trkpt lat="45.87954" lon="5.34771">
        <ele>200</ele>
        <time>2022-09-24T15:39:51Z</time>
      </trkpt>
      <trkpt lat="45.87959" lon="5.34771">
        <ele>199.9</ele>
        <time>2022-09-24T15:39:52Z</time>
      </trkpt>
      <trkpt lat="45.87964" lon="5.34771">
        <ele>199.9</ele>
        <time>2022-09-24T15:39:53Z</time>
      </trkpt>
      <trkpt lat="45.8797" lon="5.3477">
        <ele>199.9</ele>
        <time>2022-09-24T15:39:54Z</time>
      </trkpt>
      <trkpt lat="45.87975" lon="5.3477">
        <ele>199.8</ele>
        <time>2022-09-24T15:39:55Z</time>
      </trkpt>
      <trkpt lat="45.87982" lon="5.3477">
        <ele>199.8</ele>
        <time>2022-09-24T15:39:56Z</time>
      </trkpt>
      <trkpt lat="45.87988" lon="5.3477">
        <ele>199.8</ele>
        <time>2022-09-24T15:39:57Z</time>
      </trkpt>
      <trkpt lat="45.87993" lon="5.3477">
        <ele>199.8</ele>
        <time>2022-09-24T15:39:58Z</time>
      </trkpt>
      <trkpt lat="45.87999" lon="5.3477">
        <ele>199.9</ele>
        <time>2022-09-24T15:39:59Z</time>
      </trkpt>
      <trkpt lat="45.88005" lon="5.3477">
        <ele>200</ele>
        <time>2022-09-24T15:40:00Z</time>
      </trkpt>
      <trkpt lat="45.88011" lon="5.3477">
        <ele>200.1</ele>
        <time>2022-09-24T15:40:01Z</time>
      </trkpt>
      <trkpt lat="45.88016" lon="5.3477">
        <ele>200.2</ele>
        <time>2022-09-24T15:40:02Z</time>
      </trkpt>
      <trkpt lat="45.88022" lon="5.3477">
        <ele>200.3</ele>
        <time>2022-09-24T15:40:03Z</time>
      </trkpt>
      <trkpt lat="45.88027" lon="5.3477">
        <ele>200.4</ele>
        <time>2022-09-24T15:40:04Z</time>
      </trkpt>
      <trkpt lat="45.88032" lon="5.34769">
        <ele>200.5</ele>
        <time>2022-09-24T15:40:05Z</time>
      </trkpt>
      <trkpt lat="45.88037" lon="5.34769">
        <ele>200.7</ele>
        <time>2022-09-24T15:40:06Z</time>
      </trkpt>
      <trkpt lat="45.88042" lon="5.3477">
        <ele>200.8</ele>
        <time>2022-09-24T15:40:07Z</time>
      </trkpt>
      <trkpt lat="45.88047" lon="5.34769">
        <ele>201</ele>
        <time>2022-09-24T15:40:08Z</time>
      </trkpt>
      <trkpt lat="45.88052" lon="5.34769">
        <ele>201.1</ele>
        <time>2022-09-24T15:40:09Z</time>
      </trkpt>
      <trkpt lat="45.88057" lon="5.34769">
        <ele>201.3</ele>
        <time>2022-09-24T15:40:10Z</time>
      </trkpt>
      <trkpt lat="45.88061" lon="5.34769">
        <ele>201.4</ele>
        <time>2022-09-24T15:40:11Z</time>
      </trkpt>
      <trkpt lat="45.88065" lon="5.34769">
        <ele>201.5</ele>
        <time>2022-09-24T15:40:12Z</time>
      </trkpt>
      <trkpt lat="45.8807" lon="5.34769">
        <ele>201.7</ele>
        <time>2022-09-24T15:40:13Z</time>
      </trkpt>
      <trkpt lat="45.88074" lon="5.34769">
        <ele>201.9</ele>
        <time>2022-09-24T15:40:14Z</time>
      </trkpt>
      <trkpt lat="45.88078" lon="5.34768">
        <ele>202</ele>
        <time>2022-09-24T15:40:15Z</time>
      </trkpt>
      <trkpt lat="45.88083" lon="5.34768">
        <ele>202.2</ele>
        <time>2022-09-24T15:40:16Z</time>
      </trkpt>
      <trkpt lat="45.88087" lon="5.34769">
        <ele>202.3</ele>
        <time>2022-09-24T15:40:17Z</time>
      </trkpt>
      <trkpt lat="45.88091" lon="5.34769">
        <ele>202.5</ele>
        <time>2022-09-24T15:40:18Z</time>
      </trkpt>
      <trkpt lat="45.88095" lon="5.34768">
        <ele>202.6</ele>
        <time>2022-09-24T15:40:19Z</time>
      </trkpt>
      <trkpt lat="45.88098" lon="5.34768">
        <ele>202.7</ele>
        <time>2022-09-24T15:40:20Z</time>
      </trkpt>
      <trkpt lat="45.88103" lon="5.34768">
        <ele>202.9</ele>
        <time>2022-09-24T15:40:21Z</time>
      </trkpt>
      <trkpt lat="45.88106" lon="5.34768">
        <ele>203</ele>
        <time>2022-09-24T15:40:22Z</time>
      </trkpt>
      <trkpt lat="45.88111" lon="5.34768">
        <ele>203.2</ele>
        <time>2022-09-24T15:40:23Z</time>
      </trkpt>
      <trkpt lat="45.88115" lon="5.34767">
        <ele>203.4</ele>
        <time>2022-09-24T15:40:24Z</time>
      </trkpt>
      <trkpt lat="45.88118" lon="5.34767">
        <ele>203.5</ele>
        <time>2022-09-24T15:40:25Z</time>
      </trkpt>
      <trkpt lat="45.88122" lon="5.34767">
        <ele>203.6</ele>
        <time>2022-09-24T15:40:26Z</time>
      </trkpt>
      <trkpt lat="45.88126" lon="5.34767">
        <ele>203.8</ele>
        <time>2022-09-24T15:40:27Z</time>
      </trkpt>
      <trkpt lat="45.8813" lon="5.34767">
        <ele>203.9</ele>
        <time>2022-09-24T15:40:28Z</time>
      </trkpt>
      <trkpt lat="45.88134" lon="5.34766">
        <ele>204.1</ele>
        <time>2022-09-24T15:40:29Z</time>
      </trkpt>
      <trkpt lat="45.88138" lon="5.34766">
        <ele>204.2</ele>
        <time>2022-09-24T15:40:30Z</time>
      </trkpt>
      <trkpt lat="45.88142" lon="5.34766">
        <ele>204.4</ele>
        <time>2022-09-24T15:40:31Z</time>
      </trkpt>
      <trkpt lat="45.88144" lon="5.34766">
        <ele>204.5</ele>
        <time>2022-09-24T15:40:32Z</time>
      </trkpt>
      <trkpt lat="45.88149" lon="5.34767">
        <ele>204.7</ele>
        <time>2022-09-24T15:40:33Z</time>
      </trkpt>
      <trkpt lat="45.88152" lon="5.34767">
        <ele>204.8</ele>
        <time>2022-09-24T15:40:34Z</time>
      </trkpt>
      <trkpt lat="45.88156" lon="5.34766">
        <ele>205</ele>
        <time>2022-09-24T15:40:35Z</time>
      </trkpt>
      <trkpt lat="45.88158" lon="5.34766">
        <ele>205.1</ele>
        <time>2022-09-24T15:40:36Z</time>
      </trkpt>
      <trkpt lat="45.88161" lon="5.34766">
        <ele>205.2</ele>
        <time>2022-09-24T15:40:37Z</time>
      </trkpt>
      <trkpt lat="45.88165" lon="5.34766">
        <ele>205.4</ele>
        <time>2022-09-24T15:40:38Z</time>
      </trkpt>
      <trkpt lat="45.88167" lon="5.34765">
        <ele>205.4</ele>
        <time>2022-09-24T15:40:39Z</time>
      </trkpt>
      <trkpt lat="45.8817" lon="5.34765">
        <ele>205.6</ele>
        <time>2022-09-24T15:40:40Z</time>
      </trkpt>
      <trkpt lat="45.88171" lon="5.34765">
        <ele>205.6</ele>
        <time>2022-09-24T15:40:41Z</time>
      </trkpt>
      <trkpt lat="45.88172" lon="5.34764">
        <ele>205.7</ele>
        <time>2022-09-24T15:40:42Z</time>
      </trkpt>
      <trkpt lat="45.88173" lon="5.34765">
        <ele>205.7</ele>
        <time>2022-09-24T15:40:43Z</time>
      </trkpt>
      <trkpt lat="45.88173" lon="5.34765">
        <ele>205.7</ele>
        <time>2022-09-24T15:40:44Z</time>
      </trkpt>
      <trkpt lat="45.88174" lon="5.34765">
        <ele>205.7</ele>
        <time>2022-09-24T15:40:45Z</time>
      </trkpt>
      <trkpt lat="45.88174" lon="5.34765">
        <ele>205.8</ele>
        <time>2022-09-24T15:40:46Z</time>
      </trkpt>
      <trkpt lat="45.88174" lon="5.34765">
        <ele>205.8</ele>
        <time>2022-09-24T15:40:47Z</time>
      </trkpt>
      <trkpt lat="45.88176" lon="5.34764">
        <ele>205.8</ele>
        <time>2022-09-24T15:40:48Z</time>
      </trkpt>
      <trkpt lat="45.88177" lon="5.34764">
        <ele>205.9</ele>
        <time>2022-09-24T15:40:49Z</time>
      </trkpt>
      <trkpt lat="45.88181" lon="5.34762">
        <ele>206.1</ele>
        <time>2022-09-24T15:40:50Z</time>
      </trkpt>
      <trkpt lat="45.88182" lon="5.34762">
        <ele>206.1</ele>
        <time>2022-09-24T15:40:51Z</time>
      </trkpt>
      <trkpt lat="45.88185" lon="5.3476">
        <ele>206.2</ele>
        <time>2022-09-24T15:40:52Z</time>
      </trkpt>
      <trkpt lat="45.88188" lon="5.34761">
        <ele>206.3</ele>
        <time>2022-09-24T15:40:53Z</time>
      </trkpt>
      <trkpt lat="45.88192" lon="5.34761">
        <ele>206.4</ele>
        <time>2022-09-24T15:40:54Z</time>
      </trkpt>
      <trkpt lat="45.88196" lon="5.34761">
        <ele>206.5</ele>
        <time>2022-09-24T15:40:55Z</time>
      </trkpt>
      <trkpt lat="45.88201" lon="5.34762">
        <ele>206.6</ele>
        <time>2022-09-24T15:40:56Z</time>
      </trkpt>
      <trkpt lat="45.88206" lon="5.34762">
        <ele>206.6</ele>
        <time>2022-09-24T15:40:58Z</time>
      </trkpt>
      <trkpt lat="45.88211" lon="5.34761">
        <ele>206.7</ele>
        <time>2022-09-24T15:40:59Z</time>
      </trkpt>
      <trkpt lat="45.88216" lon="5.34761">
        <ele>206.7</ele>
        <time>2022-09-24T15:41:00Z</time>
      </trkpt>
      <trkpt lat="45.8822" lon="5.34762">
        <ele>206.8</ele>
        <time>2022-09-24T15:41:01Z</time>
      </trkpt>
      <trkpt lat="45.88226" lon="5.34761">
        <ele>206.8</ele>
        <time>2022-09-24T15:41:02Z</time>
      </trkpt>
      <trkpt lat="45.88231" lon="5.34761">
        <ele>206.9</ele>
        <time>2022-09-24T15:41:03Z</time>
      </trkpt>
      <trkpt lat="45.88237" lon="5.34761">
        <ele>206.9</ele>
        <time>2022-09-24T15:41:04Z</time>
      </trkpt>
      <trkpt lat="45.88242" lon="5.34761">
        <ele>206.9</ele>
        <time>2022-09-24T15:41:05Z</time>
      </trkpt>
      <trkpt lat="45.88248" lon="5.34761">
        <ele>206.9</ele>
        <time>2022-09-24T15:41:06Z</time>
      </trkpt>
      <trkpt lat="45.88253" lon="5.34761">
        <ele>206.9</ele>
        <time>2022-09-24T15:41:07Z</time>
      </trkpt>
      <trkpt lat="45.88258" lon="5.34761">
        <ele>206.9</ele>
        <time>2022-09-24T15:41:08Z</time>
      </trkpt>
      <trkpt lat="45.88263" lon="5.34761">
        <ele>206.9</ele>
        <time>2022-09-24T15:41:09Z</time>
      </trkpt>
      <trkpt lat="45.88268" lon="5.34761">
        <ele>206.9</ele>
        <time>2022-09-24T15:41:10Z</time>
      </trkpt>
      <trkpt lat="45.88274" lon="5.3476">
        <ele>206.9</ele>
        <time>2022-09-24T15:41:11Z</time>
      </trkpt>
      <trkpt lat="45.88279" lon="5.3476">
        <ele>206.9</ele>
        <time>2022-09-24T15:41:12Z</time>
      </trkpt>
      <trkpt lat="45.88284" lon="5.3476">
        <ele>206.9</ele>
        <time>2022-09-24T15:41:13Z</time>
      </trkpt>
      <trkpt lat="45.8829" lon="5.3476">
        <ele>206.9</ele>
        <time>2022-09-24T15:41:14Z</time>
      </trkpt>
      <trkpt lat="45.88296" lon="5.3476">
        <ele>206.9</ele>
        <time>2022-09-24T15:41:15Z</time>
      </trkpt>
      <trkpt lat="45.88301" lon="5.3476">
        <ele>206.8</ele>
        <time>2022-09-24T15:41:16Z</time>
      </trkpt>
      <trkpt lat="45.88307" lon="5.3476">
        <ele>206.7</ele>
        <time>2022-09-24T15:41:17Z</time>
      </trkpt>
      <trkpt lat="45.88313" lon="5.3476">
        <ele>206.7</ele>
        <time>2022-09-24T15:41:18Z</time>
      </trkpt>
      <trkpt lat="45.88319" lon="5.3476">
        <ele>206.6</ele>
        <time>2022-09-24T15:41:19Z</time>
      </trkpt>
      <trkpt lat="45.88325" lon="5.34759">
        <ele>206.5</ele>
        <time>2022-09-24T15:41:20Z</time>
      </trkpt>
      <trkpt lat="45.88331" lon="5.3476">
        <ele>206.4</ele>
        <time>2022-09-24T15:41:21Z</time>
      </trkpt>
      <trkpt lat="45.88337" lon="5.3476">
        <ele>206.3</ele>
        <time>2022-09-24T15:41:22Z</time>
      </trkpt>
      <trkpt lat="45.88343" lon="5.34759">
        <ele>206.2</ele>
        <time>2022-09-24T15:41:23Z</time>
      </trkpt>
      <trkpt lat="45.8835" lon="5.34759">
        <ele>206</ele>
        <time>2022-09-24T15:41:24Z</time>
      </trkpt>
      <trkpt lat="45.88357" lon="5.34759">
        <ele>205.9</ele>
        <time>2022-09-24T15:41:25Z</time>
      </trkpt>
      <trkpt lat="45.88363" lon="5.34759">
        <ele>205.7</ele>
        <time>2022-09-24T15:41:26Z</time>
      </trkpt>
      <trkpt lat="45.88369" lon="5.3476">
        <ele>205.6</ele>
        <time>2022-09-24T15:41:27Z</time>
      </trkpt>
      <trkpt lat="45.88377" lon="5.34759">
        <ele>205.4</ele>
        <time>2022-09-24T15:41:28Z</time>
      </trkpt>
      <trkpt lat="45.88384" lon="5.34758">
        <ele>205.2</ele>
        <time>2022-09-24T15:41:29Z</time>
      </trkpt>
      <trkpt lat="45.88391" lon="5.34759">
        <ele>205</ele>
        <time>2022-09-24T15:41:30Z</time>
      </trkpt>
      <trkpt lat="45.88398" lon="5.34758">
        <ele>204.9</ele>
        <time>2022-09-24T15:41:31Z</time>
      </trkpt>
      <trkpt lat="45.88405" lon="5.34757">
        <ele>204.7</ele>
        <time>2022-09-24T15:41:32Z</time>
      </trkpt>
      <trkpt lat="45.88412" lon="5.34756">
        <ele>204.5</ele>
        <time>2022-09-24T15:41:33Z</time>
      </trkpt>
      <trkpt lat="45.8842" lon="5.34754">
        <ele>204.4</ele>
        <time>2022-09-24T15:41:34Z</time>
      </trkpt>
      <trkpt lat="45.88427" lon="5.34753">
        <ele>204.2</ele>
        <time>2022-09-24T15:41:35Z</time>
      </trkpt>
      <trkpt lat="45.88434" lon="5.34751">
        <ele>204.1</ele>
        <time>2022-09-24T15:41:36Z</time>
      </trkpt>
      <trkpt lat="45.88441" lon="5.34749">
        <ele>204</ele>
        <time>2022-09-24T15:41:37Z</time>
      </trkpt>
      <trkpt lat="45.88448" lon="5.34748">
        <ele>203.9</ele>
        <time>2022-09-24T15:41:38Z</time>
      </trkpt>
      <trkpt lat="45.88455" lon="5.34746">
        <ele>203.8</ele>
        <time>2022-09-24T15:41:39Z</time>
      </trkpt>
      <trkpt lat="45.88462" lon="5.34744">
        <ele>203.8</ele>
        <time>2022-09-24T15:41:40Z</time>
      </trkpt>
      <trkpt lat="45.88467" lon="5.34743">
        <ele>203.7</ele>
        <time>2022-09-24T15:41:41Z</time>
      </trkpt>
      <trkpt lat="45.88473" lon="5.34744">
        <ele>203.7</ele>
        <time>2022-09-24T15:41:42Z</time>
      </trkpt>
      <trkpt lat="45.88478" lon="5.34746">
        <ele>203.6</ele>
        <time>2022-09-24T15:41:43Z</time>
      </trkpt>
      <trkpt lat="45.88482" lon="5.3475">
        <ele>203.6</ele>
        <time>2022-09-24T15:41:44Z</time>
      </trkpt>
      <trkpt lat="45.88486" lon="5.34755">
        <ele>203.6</ele>
        <time>2022-09-24T15:41:45Z</time>
      </trkpt>
      <trkpt lat="45.88491" lon="5.3476">
        <ele>203.6</ele>
        <time>2022-09-24T15:41:46Z</time>
      </trkpt>
      <trkpt lat="45.88494" lon="5.34766">
        <ele>203.5</ele>
        <time>2022-09-24T15:41:47Z</time>
      </trkpt>
      <trkpt lat="45.88497" lon="5.34774">
        <ele>203.3</ele>
        <time>2022-09-24T15:41:48Z</time>
      </trkpt>
      <trkpt lat="45.88498" lon="5.34781">
        <ele>203.2</ele>
        <time>2022-09-24T15:41:49Z</time>
      </trkpt>
      <trkpt lat="45.88498" lon="5.34789">
        <ele>203.1</ele>
        <time>2022-09-24T15:41:50Z</time>
      </trkpt>
      <trkpt lat="45.88499" lon="5.34797">
        <ele>203</ele>
        <time>2022-09-24T15:41:51Z</time>
      </trkpt>
      <trkpt lat="45.885" lon="5.34805">
        <ele>202.8</ele>
        <time>2022-09-24T15:41:52Z</time>
      </trkpt>
      <trkpt lat="45.88501" lon="5.34814">
        <ele>202.7</ele>
        <time>2022-09-24T15:41:53Z</time>
      </trkpt>
      <trkpt lat="45.88501" lon="5.34822">
        <ele>202.6</ele>
        <time>2022-09-24T15:41:54Z</time>
      </trkpt>
      <trkpt lat="45.88503" lon="5.34831">
        <ele>202.5</ele>
        <time>2022-09-24T15:41:55Z</time>
      </trkpt>
      <trkpt lat="45.88504" lon="5.34838">
        <ele>202.4</ele>
        <time>2022-09-24T15:41:56Z</time>
      </trkpt>
      <trkpt lat="45.88505" lon="5.34844">
        <ele>202.4</ele>
        <time>2022-09-24T15:41:57Z</time>
      </trkpt>
      <trkpt lat="45.88507" lon="5.34852">
        <ele>202.3</ele>
        <time>2022-09-24T15:41:58Z</time>
      </trkpt>
      <trkpt lat="45.88508" lon="5.3486">
        <ele>202.2</ele>
        <time>2022-09-24T15:41:59Z</time>
      </trkpt>
      <trkpt lat="45.88508" lon="5.3487">
        <ele>202.1</ele>
        <time>2022-09-24T15:42:00Z</time>
      </trkpt>
      <trkpt lat="45.88509" lon="5.3488">
        <ele>201.9</ele>
        <time>2022-09-24T15:42:01Z</time>
      </trkpt>
      <trkpt lat="45.88509" lon="5.34892">
        <ele>201.8</ele>
        <time>2022-09-24T15:42:02Z</time>
      </trkpt>
      <trkpt lat="45.88509" lon="5.34904">
        <ele>201.6</ele>
        <time>2022-09-24T15:42:03Z</time>
      </trkpt>
      <trkpt lat="45.8851" lon="5.34915">
        <ele>201.5</ele>
        <time>2022-09-24T15:42:04Z</time>
      </trkpt>
      <trkpt lat="45.8851" lon="5.34926">
        <ele>201.4</ele>
        <time>2022-09-24T15:42:05Z</time>
      </trkpt>
      <trkpt lat="45.88511" lon="5.34937">
        <ele>201.2</ele>
        <time>2022-09-24T15:42:06Z</time>
      </trkpt>
      <trkpt lat="45.88509" lon="5.34947">
        <ele>201.1</ele>
        <time>2022-09-24T15:42:07Z</time>
      </trkpt>
      <trkpt lat="45.88509" lon="5.34958">
        <ele>201</ele>
        <time>2022-09-24T15:42:08Z</time>
      </trkpt>
      <trkpt lat="45.8851" lon="5.34968">
        <ele>200.9</ele>
        <time>2022-09-24T15:42:09Z</time>
      </trkpt>
      <trkpt lat="45.8851" lon="5.34977">
        <ele>200.8</ele>
        <time>2022-09-24T15:42:10Z</time>
      </trkpt>
      <trkpt lat="45.88511" lon="5.34986">
        <ele>200.7</ele>
        <time>2022-09-24T15:42:11Z</time>
      </trkpt>
      <trkpt lat="45.88512" lon="5.34994">
        <ele>200.6</ele>
        <time>2022-09-24T15:42:12Z</time>
      </trkpt>
      <trkpt lat="45.88513" lon="5.35002">
        <ele>200.4</ele>
        <time>2022-09-24T15:42:13Z</time>
      </trkpt>
      <trkpt lat="45.88514" lon="5.35009">
        <ele>200.3</ele>
        <time>2022-09-24T15:42:14Z</time>
      </trkpt>
      <trkpt lat="45.88515" lon="5.35017">
        <ele>200.2</ele>
        <time>2022-09-24T15:42:15Z</time>
      </trkpt>
      <trkpt lat="45.88516" lon="5.35026">
        <ele>200</ele>
        <time>2022-09-24T15:42:16Z</time>
      </trkpt>
      <trkpt lat="45.88518" lon="5.35035">
        <ele>199.8</ele>
        <time>2022-09-24T15:42:17Z</time>
      </trkpt>
      <trkpt lat="45.8852" lon="5.35047">
        <ele>199.6</ele>
        <time>2022-09-24T15:42:18Z</time>
      </trkpt>
      <trkpt lat="45.88522" lon="5.35058">
        <ele>199.4</ele>
        <time>2022-09-24T15:42:19Z</time>
      </trkpt>
      <trkpt lat="45.88524" lon="5.35068">
        <ele>199.3</ele>
        <time>2022-09-24T15:42:20Z</time>
      </trkpt>
      <trkpt lat="45.88526" lon="5.35077">
        <ele>199.1</ele>
        <time>2022-09-24T15:42:21Z</time>
      </trkpt>
      <trkpt lat="45.88529" lon="5.35087">
        <ele>199</ele>
        <time>2022-09-24T15:42:22Z</time>
      </trkpt>
      <trkpt lat="45.88531" lon="5.35097">
        <ele>198.9</ele>
        <time>2022-09-24T15:42:23Z</time>
      </trkpt>
      <trkpt lat="45.88534" lon="5.35106">
        <ele>198.9</ele>
        <time>2022-09-24T15:42:24Z</time>
      </trkpt>
      <trkpt lat="45.88536" lon="5.35116">
        <ele>198.9</ele>
        <time>2022-09-24T15:42:25Z</time>
      </trkpt>
      <trkpt lat="45.88539" lon="5.35127">
        <ele>198.9</ele>
        <time>2022-09-24T15:42:26Z</time>
      </trkpt>
      <trkpt lat="45.88542" lon="5.35135">
        <ele>198.9</ele>
        <time>2022-09-24T15:42:27Z</time>
      </trkpt>
      <trkpt lat="45.88544" lon="5.35144">
        <ele>198.8</ele>
        <time>2022-09-24T15:42:28Z</time>
      </trkpt>
      <trkpt lat="45.88546" lon="5.35152">
        <ele>198.8</ele>
        <time>2022-09-24T15:42:29Z</time>
      </trkpt>
      <trkpt lat="45.88548" lon="5.3516">
        <ele>198.8</ele>
        <time>2022-09-24T15:42:30Z</time>
      </trkpt>
      <trkpt lat="45.88551" lon="5.35169">
        <ele>198.8</ele>
        <time>2022-09-24T15:42:31Z</time>
      </trkpt>
      <trkpt lat="45.88554" lon="5.35178">
        <ele>198.8</ele>
        <time>2022-09-24T15:42:32Z</time>
      </trkpt>
      <trkpt lat="45.88557" lon="5.35187">
        <ele>198.8</ele>
        <time>2022-09-24T15:42:33Z</time>
      </trkpt>
      <trkpt lat="45.88559" lon="5.35195">
        <ele>198.8</ele>
        <time>2022-09-24T15:42:34Z</time>
      </trkpt>
      <trkpt lat="45.8856" lon="5.352">
        <ele>198.8</ele>
        <time>2022-09-24T15:42:35Z</time>
      </trkpt>
      <trkpt lat="45.8856" lon="5.35205">
        <ele>198.8</ele>
        <time>2022-09-24T15:42:36Z</time>
      </trkpt>
      <trkpt lat="45.8856" lon="5.3521">
        <ele>198.8</ele>
        <time>2022-09-24T15:42:37Z</time>
      </trkpt>
      <trkpt lat="45.88559" lon="5.35214">
        <ele>198.8</ele>
        <time>2022-09-24T15:42:38Z</time>
      </trkpt>
      <trkpt lat="45.88558" lon="5.35219">
        <ele>198.8</ele>
        <time>2022-09-24T15:42:39Z</time>
      </trkpt>
      <trkpt lat="45.88558" lon="5.35225">
        <ele>198.8</ele>
        <time>2022-09-24T15:42:40Z</time>
      </trkpt>
      <trkpt lat="45.88557" lon="5.35227">
        <ele>198.8</ele>
        <time>2022-09-24T15:42:41Z</time>
      </trkpt>
      <trkpt lat="45.88555" lon="5.35231">
        <ele>198.9</ele>
        <time>2022-09-24T15:42:42Z</time>
      </trkpt>
      <trkpt lat="45.88553" lon="5.35234">
        <ele>198.9</ele>
        <time>2022-09-24T15:42:43Z</time>
      </trkpt>
      <trkpt lat="45.88551" lon="5.35236">
        <ele>198.9</ele>
        <time>2022-09-24T15:42:44Z</time>
      </trkpt>
      <trkpt lat="45.88549" lon="5.35241">
        <ele>198.9</ele>
        <time>2022-09-24T15:42:45Z</time>
      </trkpt>
      <trkpt lat="45.88548" lon="5.35242">
        <ele>198.9</ele>
        <time>2022-09-24T15:42:46Z</time>
      </trkpt>
      <trkpt lat="45.88547" lon="5.35247">
        <ele>198.9</ele>
        <time>2022-09-24T15:42:47Z</time>
      </trkpt>
      <trkpt lat="45.88546" lon="5.35252">
        <ele>198.9</ele>
        <time>2022-09-24T15:42:48Z</time>
      </trkpt>
      <trkpt lat="45.88545" lon="5.35256">
        <ele>199</ele>
        <time>2022-09-24T15:42:49Z</time>
      </trkpt>
      <trkpt lat="45.88544" lon="5.35261">
        <ele>199</ele>
        <time>2022-09-24T15:42:50Z</time>
      </trkpt>
      <trkpt lat="45.88544" lon="5.35267">
        <ele>199</ele>
        <time>2022-09-24T15:42:51Z</time>
      </trkpt>
      <trkpt lat="45.88543" lon="5.35269">
        <ele>199</ele>
        <time>2022-09-24T15:42:52Z</time>
      </trkpt>
      <trkpt lat="45.88543" lon="5.35275">
        <ele>199</ele>
        <time>2022-09-24T15:42:53Z</time>
      </trkpt>
      <trkpt lat="45.88542" lon="5.35279">
        <ele>199</ele>
        <time>2022-09-24T15:42:54Z</time>
      </trkpt>
      <trkpt lat="45.88541" lon="5.35285">
        <ele>199</ele>
        <time>2022-09-24T15:42:55Z</time>
      </trkpt>
      <trkpt lat="45.8854" lon="5.35291">
        <ele>199</ele>
        <time>2022-09-24T15:42:56Z</time>
      </trkpt>
      <trkpt lat="45.88539" lon="5.35296">
        <ele>199</ele>
        <time>2022-09-24T15:42:57Z</time>
      </trkpt>
      <trkpt lat="45.88537" lon="5.35302">
        <ele>199</ele>
        <time>2022-09-24T15:42:58Z</time>
      </trkpt>
      <trkpt lat="45.88534" lon="5.35308">
        <ele>198.9</ele>
        <time>2022-09-24T15:42:59Z</time>
      </trkpt>
      <trkpt lat="45.8853" lon="5.35315">
        <ele>198.9</ele>
        <time>2022-09-24T15:43:00Z</time>
      </trkpt>
      <trkpt lat="45.88527" lon="5.3532">
        <ele>198.9</ele>
        <time>2022-09-24T15:43:01Z</time>
      </trkpt>
      <trkpt lat="45.88525" lon="5.35325">
        <ele>198.9</ele>
        <time>2022-09-24T15:43:02Z</time>
      </trkpt>
      <trkpt lat="45.88523" lon="5.35331">
        <ele>198.9</ele>
        <time>2022-09-24T15:43:03Z</time>
      </trkpt>
      <trkpt lat="45.88522" lon="5.35337">
        <ele>199</ele>
        <time>2022-09-24T15:43:04Z</time>
      </trkpt>
      <trkpt lat="45.8852" lon="5.35343">
        <ele>199</ele>
        <time>2022-09-24T15:43:05Z</time>
      </trkpt>
      <trkpt lat="45.88519" lon="5.35349">
        <ele>199</ele>
        <time>2022-09-24T15:43:06Z</time>
      </trkpt>
      <trkpt lat="45.88518" lon="5.35356">
        <ele>199</ele>
        <time>2022-09-24T15:43:07Z</time>
      </trkpt>
      <trkpt lat="45.88517" lon="5.3536">
        <ele>199</ele>
        <time>2022-09-24T15:43:08Z</time>
      </trkpt>
      <trkpt lat="45.88517" lon="5.35366">
        <ele>198.9</ele>
        <time>2022-09-24T15:43:09Z</time>
      </trkpt>
      <trkpt lat="45.88517" lon="5.35373">
        <ele>198.9</ele>
        <time>2022-09-24T15:43:10Z</time>
      </trkpt>
      <trkpt lat="45.88517" lon="5.3538">
        <ele>198.9</ele>
        <time>2022-09-24T15:43:11Z</time>
      </trkpt>
      <trkpt lat="45.88517" lon="5.35387">
        <ele>198.8</ele>
        <time>2022-09-24T15:43:12Z</time>
      </trkpt>
      <trkpt lat="45.88516" lon="5.35394">
        <ele>198.8</ele>
        <time>2022-09-24T15:43:13Z</time>
      </trkpt>
      <trkpt lat="45.88515" lon="5.35399">
        <ele>198.7</ele>
        <time>2022-09-24T15:43:14Z</time>
      </trkpt>
      <trkpt lat="45.88512" lon="5.35405">
        <ele>198.6</ele>
        <time>2022-09-24T15:43:15Z</time>
      </trkpt>
      <trkpt lat="45.88508" lon="5.35411">
        <ele>198.5</ele>
        <time>2022-09-24T15:43:16Z</time>
      </trkpt>
      <trkpt lat="45.88505" lon="5.35414">
        <ele>198.4</ele>
        <time>2022-09-24T15:43:17Z</time>
      </trkpt>
      <trkpt lat="45.88501" lon="5.35418">
        <ele>198.3</ele>
        <time>2022-09-24T15:43:18Z</time>
      </trkpt>
      <trkpt lat="45.88497" lon="5.35422">
        <ele>198.1</ele>
        <time>2022-09-24T15:43:19Z</time>
      </trkpt>
      <trkpt lat="45.88493" lon="5.35426">
        <ele>198</ele>
        <time>2022-09-24T15:43:20Z</time>
      </trkpt>
      <trkpt lat="45.88489" lon="5.35429">
        <ele>197.9</ele>
        <time>2022-09-24T15:43:21Z</time>
      </trkpt>
      <trkpt lat="45.88484" lon="5.35434">
        <ele>197.8</ele>
        <time>2022-09-24T15:43:22Z</time>
      </trkpt>
      <trkpt lat="45.88481" lon="5.35438">
        <ele>197.7</ele>
        <time>2022-09-24T15:43:23Z</time>
      </trkpt>
      <trkpt lat="45.88478" lon="5.35443">
        <ele>197.6</ele>
        <time>2022-09-24T15:43:24Z</time>
      </trkpt>
      <trkpt lat="45.88477" lon="5.35447">
        <ele>197.5</ele>
        <time>2022-09-24T15:43:25Z</time>
      </trkpt>
      <trkpt lat="45.88474" lon="5.35452">
        <ele>197.5</ele>
        <time>2022-09-24T15:43:26Z</time>
      </trkpt>
      <trkpt lat="45.88472" lon="5.35455">
        <ele>197.4</ele>
        <time>2022-09-24T15:43:27Z</time>
      </trkpt>
      <trkpt lat="45.8847" lon="5.35458">
        <ele>197.4</ele>
        <time>2022-09-24T15:43:28Z</time>
      </trkpt>
      <trkpt lat="45.88468" lon="5.35461">
        <ele>197.4</ele>
        <time>2022-09-24T15:43:29Z</time>
      </trkpt>
      <trkpt lat="45.88466" lon="5.35465">
        <ele>197.4</ele>
        <time>2022-09-24T15:43:30Z</time>
      </trkpt>
      <trkpt lat="45.88466" lon="5.35466">
        <ele>197.3</ele>
        <time>2022-09-24T15:43:31Z</time>
      </trkpt>
      <trkpt lat="45.88463" lon="5.35469">
        <ele>197.3</ele>
        <time>2022-09-24T15:43:32Z</time>
      </trkpt>
      <trkpt lat="45.88463" lon="5.3547">
        <ele>197.3</ele>
        <time>2022-09-24T15:43:33Z</time>
      </trkpt>
      <trkpt lat="45.88461" lon="5.35474">
        <ele>197.3</ele>
        <time>2022-09-24T15:43:34Z</time>
      </trkpt>
      <trkpt lat="45.88458" lon="5.35477">
        <ele>197.3</ele>
        <time>2022-09-24T15:43:35Z</time>
      </trkpt>
      <trkpt lat="45.88456" lon="5.35481">
        <ele>197.3</ele>
        <time>2022-09-24T15:43:36Z</time>
      </trkpt>
      <trkpt lat="45.88452" lon="5.35485">
        <ele>197.3</ele>
        <time>2022-09-24T15:43:37Z</time>
      </trkpt>
      <trkpt lat="45.88449" lon="5.35488">
        <ele>197.3</ele>
        <time>2022-09-24T15:43:38Z</time>
      </trkpt>
      <trkpt lat="45.88445" lon="5.35493">
        <ele>197.3</ele>
        <time>2022-09-24T15:43:39Z</time>
      </trkpt>
      <trkpt lat="45.8844" lon="5.35496">
        <ele>197.3</ele>
        <time>2022-09-24T15:43:40Z</time>
      </trkpt>
      <trkpt lat="45.88436" lon="5.35501">
        <ele>197.3</ele>
        <time>2022-09-24T15:43:41Z</time>
      </trkpt>
      <trkpt lat="45.88431" lon="5.35506">
        <ele>197.3</ele>
        <time>2022-09-24T15:43:42Z</time>
      </trkpt>
      <trkpt lat="45.88427" lon="5.3551">
        <ele>197.4</ele>
        <time>2022-09-24T15:43:43Z</time>
      </trkpt>
      <trkpt lat="45.88421" lon="5.35517">
        <ele>197.4</ele>
        <time>2022-09-24T15:43:44Z</time>
      </trkpt>
      <trkpt lat="45.88416" lon="5.35521">
        <ele>197.4</ele>
        <time>2022-09-24T15:43:45Z</time>
      </trkpt>
      <trkpt lat="45.88411" lon="5.35526">
        <ele>197.4</ele>
        <time>2022-09-24T15:43:46Z</time>
      </trkpt>
      <trkpt lat="45.88406" lon="5.3553">
        <ele>197.4</ele>
        <time>2022-09-24T15:43:47Z</time>
      </trkpt>
      <trkpt lat="45.88401" lon="5.35535">
        <ele>197.5</ele>
        <time>2022-09-24T15:43:48Z</time>
      </trkpt>
      <trkpt lat="45.88397" lon="5.35539">
        <ele>197.5</ele>
        <time>2022-09-24T15:43:49Z</time>
      </trkpt>
      <trkpt lat="45.88392" lon="5.35544">
        <ele>197.5</ele>
        <time>2022-09-24T15:43:50Z</time>
      </trkpt>
      <trkpt lat="45.88388" lon="5.35549">
        <ele>197.5</ele>
        <time>2022-09-24T15:43:51Z</time>
      </trkpt>
      <trkpt lat="45.88384" lon="5.35553">
        <ele>197.5</ele>
        <time>2022-09-24T15:43:52Z</time>
      </trkpt>
      <trkpt lat="45.88379" lon="5.35557">
        <ele>197.5</ele>
        <time>2022-09-24T15:43:53Z</time>
      </trkpt>
      <trkpt lat="45.88374" lon="5.35561">
        <ele>197.5</ele>
        <time>2022-09-24T15:43:54Z</time>
      </trkpt>
      <trkpt lat="45.88369" lon="5.35566">
        <ele>197.4</ele>
        <time>2022-09-24T15:43:55Z</time>
      </trkpt>
      <trkpt lat="45.88365" lon="5.3557">
        <ele>197.4</ele>
        <time>2022-09-24T15:43:56Z</time>
      </trkpt>
      <trkpt lat="45.88362" lon="5.35574">
        <ele>197.3</ele>
        <time>2022-09-24T15:43:57Z</time>
      </trkpt>
      <trkpt lat="45.88357" lon="5.35579">
        <ele>197.3</ele>
        <time>2022-09-24T15:43:58Z</time>
      </trkpt>
      <trkpt lat="45.88352" lon="5.35584">
        <ele>197.2</ele>
        <time>2022-09-24T15:43:59Z</time>
      </trkpt>
      <trkpt lat="45.88348" lon="5.3559">
        <ele>197.2</ele>
        <time>2022-09-24T15:44:00Z</time>
      </trkpt>
      <trkpt lat="45.88343" lon="5.35596">
        <ele>197.1</ele>
        <time>2022-09-24T15:44:01Z</time>
      </trkpt>
      <trkpt lat="45.88337" lon="5.35602">
        <ele>197</ele>
        <time>2022-09-24T15:44:02Z</time>
      </trkpt>
      <trkpt lat="45.88332" lon="5.35608">
        <ele>197</ele>
        <time>2022-09-24T15:44:03Z</time>
      </trkpt>
      <trkpt lat="45.88327" lon="5.35615">
        <ele>196.9</ele>
        <time>2022-09-24T15:44:04Z</time>
      </trkpt>
      <trkpt lat="45.88322" lon="5.35622">
        <ele>196.9</ele>
        <time>2022-09-24T15:44:05Z</time>
      </trkpt>
      <trkpt lat="45.88318" lon="5.35629">
        <ele>196.8</ele>
        <time>2022-09-24T15:44:06Z</time>
      </trkpt>
      <trkpt lat="45.88314" lon="5.35636">
        <ele>196.8</ele>
        <time>2022-09-24T15:44:07Z</time>
      </trkpt>
      <trkpt lat="45.8831" lon="5.35642">
        <ele>196.8</ele>
        <time>2022-09-24T15:44:08Z</time>
      </trkpt>
      <trkpt lat="45.88306" lon="5.35649">
        <ele>196.8</ele>
        <time>2022-09-24T15:44:09Z</time>
      </trkpt>
      <trkpt lat="45.88302" lon="5.35655">
        <ele>196.8</ele>
        <time>2022-09-24T15:44:10Z</time>
      </trkpt>
      <trkpt lat="45.88297" lon="5.35662">
        <ele>196.8</ele>
        <time>2022-09-24T15:44:11Z</time>
      </trkpt>
      <trkpt lat="45.88293" lon="5.35669">
        <ele>196.8</ele>
        <time>2022-09-24T15:44:12Z</time>
      </trkpt>
      <trkpt lat="45.88289" lon="5.35676">
        <ele>196.8</ele>
        <time>2022-09-24T15:44:13Z</time>
      </trkpt>
      <trkpt lat="45.88284" lon="5.35683">
        <ele>196.8</ele>
        <time>2022-09-24T15:44:14Z</time>
      </trkpt>
      <trkpt lat="45.8828" lon="5.3569">
        <ele>196.8</ele>
        <time>2022-09-24T15:44:15Z</time>
      </trkpt>
      <trkpt lat="45.88276" lon="5.35697">
        <ele>196.8</ele>
        <time>2022-09-24T15:44:16Z</time>
      </trkpt>
      <trkpt lat="45.88271" lon="5.35705">
        <ele>196.8</ele>
        <time>2022-09-24T15:44:17Z</time>
      </trkpt>
      <trkpt lat="45.88266" lon="5.35712">
        <ele>196.8</ele>
        <time>2022-09-24T15:44:18Z</time>
      </trkpt>
      <trkpt lat="45.88262" lon="5.35719">
        <ele>196.8</ele>
        <time>2022-09-24T15:44:19Z</time>
      </trkpt>
      <trkpt lat="45.88257" lon="5.35725">
        <ele>196.8</ele>
        <time>2022-09-24T15:44:20Z</time>
      </trkpt>
      <trkpt lat="45.88253" lon="5.35732">
        <ele>196.9</ele>
        <time>2022-09-24T15:44:21Z</time>
      </trkpt>
      <trkpt lat="45.88249" lon="5.35737">
        <ele>196.9</ele>
        <time>2022-09-24T15:44:22Z</time>
      </trkpt>
      <trkpt lat="45.88246" lon="5.35744">
        <ele>196.9</ele>
        <time>2022-09-24T15:44:23Z</time>
      </trkpt>
      <trkpt lat="45.88241" lon="5.35752">
        <ele>196.9</ele>
        <time>2022-09-24T15:44:24Z</time>
      </trkpt>
      <trkpt lat="45.88238" lon="5.35759">
        <ele>196.9</ele>
        <time>2022-09-24T15:44:25Z</time>
      </trkpt>
      <trkpt lat="45.88234" lon="5.35767">
        <ele>197</ele>
        <time>2022-09-24T15:44:26Z</time>
      </trkpt>
      <trkpt lat="45.88231" lon="5.35774">
        <ele>197</ele>
        <time>2022-09-24T15:44:27Z</time>
      </trkpt>
      <trkpt lat="45.88227" lon="5.3578">
        <ele>197</ele>
        <time>2022-09-24T15:44:28Z</time>
      </trkpt>
      <trkpt lat="45.88225" lon="5.35786">
        <ele>197.1</ele>
        <time>2022-09-24T15:44:29Z</time>
      </trkpt>
      <trkpt lat="45.88222" lon="5.35793">
        <ele>197.1</ele>
        <time>2022-09-24T15:44:30Z</time>
      </trkpt>
      <trkpt lat="45.8822" lon="5.35799">
        <ele>197.1</ele>
        <time>2022-09-24T15:44:31Z</time>
      </trkpt>
      <trkpt lat="45.88218" lon="5.35806">
        <ele>197.1</ele>
        <time>2022-09-24T15:44:32Z</time>
      </trkpt>
      <trkpt lat="45.88215" lon="5.35813">
        <ele>197.1</ele>
        <time>2022-09-24T15:44:33Z</time>
      </trkpt>
      <trkpt lat="45.88213" lon="5.35821">
        <ele>197.1</ele>
        <time>2022-09-24T15:44:34Z</time>
      </trkpt>
      <trkpt lat="45.8821" lon="5.3583">
        <ele>197.1</ele>
        <time>2022-09-24T15:44:35Z</time>
      </trkpt>
      <trkpt lat="45.88207" lon="5.35837">
        <ele>197.1</ele>
        <time>2022-09-24T15:44:36Z</time>
      </trkpt>
      <trkpt lat="45.88205" lon="5.35845">
        <ele>197.1</ele>
        <time>2022-09-24T15:44:37Z</time>
      </trkpt>
      <trkpt lat="45.88202" lon="5.35853">
        <ele>197.1</ele>
        <time>2022-09-24T15:44:38Z</time>
      </trkpt>
      <trkpt lat="45.882" lon="5.35861">
        <ele>197.1</ele>
        <time>2022-09-24T15:44:39Z</time>
      </trkpt>
      <trkpt lat="45.88197" lon="5.35869">
        <ele>197.1</ele>
        <time>2022-09-24T15:44:40Z</time>
      </trkpt>
      <trkpt lat="45.88195" lon="5.35877">
        <ele>197.2</ele>
        <time>2022-09-24T15:44:41Z</time>
      </trkpt>
      <trkpt lat="45.88193" lon="5.35885">
        <ele>197.2</ele>
        <time>2022-09-24T15:44:42Z</time>
      </trkpt>
      <trkpt lat="45.88192" lon="5.35893">
        <ele>197.3</ele>
        <time>2022-09-24T15:44:43Z</time>
      </trkpt>
      <trkpt lat="45.8819" lon="5.35901">
        <ele>197.4</ele>
        <time>2022-09-24T15:44:44Z</time>
      </trkpt>
      <trkpt lat="45.88188" lon="5.35907">
        <ele>197.5</ele>
        <time>2022-09-24T15:44:45Z</time>
      </trkpt>
      <trkpt lat="45.88187" lon="5.35913">
        <ele>197.6</ele>
        <time>2022-09-24T15:44:46Z</time>
      </trkpt>
      <trkpt lat="45.88186" lon="5.3592">
        <ele>197.6</ele>
        <time>2022-09-24T15:44:47Z</time>
      </trkpt>
      <trkpt lat="45.88184" lon="5.35925">
        <ele>197.6</ele>
        <time>2022-09-24T15:44:48Z</time>
      </trkpt>
      <trkpt lat="45.88183" lon="5.35929">
        <ele>197.6</ele>
        <time>2022-09-24T15:44:49Z</time>
      </trkpt>
      <trkpt lat="45.88181" lon="5.35934">
        <ele>197.6</ele>
        <time>2022-09-24T15:44:50Z</time>
      </trkpt>
      <trkpt lat="45.88178" lon="5.35942">
        <ele>197.6</ele>
        <time>2022-09-24T15:44:51Z</time>
      </trkpt>
      <trkpt lat="45.88175" lon="5.3595">
        <ele>197.5</ele>
        <time>2022-09-24T15:44:52Z</time>
      </trkpt>
      <trkpt lat="45.88171" lon="5.35958">
        <ele>197.5</ele>
        <time>2022-09-24T15:44:53Z</time>
      </trkpt>
      <trkpt lat="45.88167" lon="5.35965">
        <ele>197.5</ele>
        <time>2022-09-24T15:44:54Z</time>
      </trkpt>
      <trkpt lat="45.88164" lon="5.35972">
        <ele>197.4</ele>
        <time>2022-09-24T15:44:55Z</time>
      </trkpt>
      <trkpt lat="45.88161" lon="5.35979">
        <ele>197.4</ele>
        <time>2022-09-24T15:44:56Z</time>
      </trkpt>
      <trkpt lat="45.88156" lon="5.35986">
        <ele>197.4</ele>
        <time>2022-09-24T15:44:57Z</time>
      </trkpt>
      <trkpt lat="45.88153" lon="5.35993">
        <ele>197.4</ele>
        <time>2022-09-24T15:44:58Z</time>
      </trkpt>
      <trkpt lat="45.8815" lon="5.36">
        <ele>197.5</ele>
        <time>2022-09-24T15:44:59Z</time>
      </trkpt>
      <trkpt lat="45.88147" lon="5.36007">
        <ele>197.5</ele>
        <time>2022-09-24T15:45:00Z</time>
      </trkpt>
      <trkpt lat="45.88144" lon="5.36014">
        <ele>197.5</ele>
        <time>2022-09-24T15:45:01Z</time>
      </trkpt>
      <trkpt lat="45.88141" lon="5.36021">
        <ele>197.5</ele>
        <time>2022-09-24T15:45:02Z</time>
      </trkpt>
      <trkpt lat="45.88139" lon="5.36028">
        <ele>197.5</ele>
        <time>2022-09-24T15:45:03Z</time>
      </trkpt>
      <trkpt lat="45.88136" lon="5.36034">
        <ele>197.5</ele>
        <time>2022-09-24T15:45:04Z</time>
      </trkpt>
      <trkpt lat="45.88134" lon="5.36041">
        <ele>197.6</ele>
        <time>2022-09-24T15:45:05Z</time>
      </trkpt>
      <trkpt lat="45.88132" lon="5.36049">
        <ele>197.5</ele>
        <time>2022-09-24T15:45:06Z</time>
      </trkpt>
      <trkpt lat="45.88129" lon="5.36057">
        <ele>197.5</ele>
        <time>2022-09-24T15:45:07Z</time>
      </trkpt>
      <trkpt lat="45.88127" lon="5.36065">
        <ele>197.5</ele>
        <time>2022-09-24T15:45:08Z</time>
      </trkpt>
      <trkpt lat="45.88125" lon="5.36073">
        <ele>197.5</ele>
        <time>2022-09-24T15:45:09Z</time>
      </trkpt>
      <trkpt lat="45.88123" lon="5.36081">
        <ele>197.5</ele>
        <time>2022-09-24T15:45:10Z</time>
      </trkpt>
      <trkpt lat="45.8812" lon="5.36088">
        <ele>197.5</ele>
        <time>2022-09-24T15:45:11Z</time>
      </trkpt>
      <trkpt lat="45.88118" lon="5.36096">
        <ele>197.5</ele>
        <time>2022-09-24T15:45:12Z</time>
      </trkpt>
      <trkpt lat="45.88116" lon="5.36104">
        <ele>197.5</ele>
        <time>2022-09-24T15:45:13Z</time>
      </trkpt>
      <trkpt lat="45.88114" lon="5.36112">
        <ele>197.5</ele>
        <time>2022-09-24T15:45:14Z</time>
      </trkpt>
      <trkpt lat="45.88112" lon="5.36119">
        <ele>197.5</ele>
        <time>2022-09-24T15:45:15Z</time>
      </trkpt>
      <trkpt lat="45.8811" lon="5.36127">
        <ele>197.5</ele>
        <time>2022-09-24T15:45:16Z</time>
      </trkpt>
      <trkpt lat="45.88108" lon="5.36134">
        <ele>197.5</ele>
        <time>2022-09-24T15:45:17Z</time>
      </trkpt>
      <trkpt lat="45.88104" lon="5.36141">
        <ele>197.5</ele>
        <time>2022-09-24T15:45:18Z</time>
      </trkpt>
      <trkpt lat="45.88101" lon="5.36149">
        <ele>197.5</ele>
        <time>2022-09-24T15:45:19Z</time>
      </trkpt>
      <trkpt lat="45.88099" lon="5.36156">
        <ele>197.5</ele>
        <time>2022-09-24T15:45:20Z</time>
      </trkpt>
      <trkpt lat="45.88097" lon="5.36164">
        <ele>197.5</ele>
        <time>2022-09-24T15:45:21Z</time>
      </trkpt>
      <trkpt lat="45.88094" lon="5.36171">
        <ele>197.5</ele>
        <time>2022-09-24T15:45:22Z</time>
      </trkpt>
      <trkpt lat="45.88092" lon="5.36178">
        <ele>197.5</ele>
        <time>2022-09-24T15:45:23Z</time>
      </trkpt>
      <trkpt lat="45.8809" lon="5.36185">
        <ele>197.5</ele>
        <time>2022-09-24T15:45:24Z</time>
      </trkpt>
      <trkpt lat="45.88087" lon="5.36193">
        <ele>197.5</ele>
        <time>2022-09-24T15:45:25Z</time>
      </trkpt>
      <trkpt lat="45.88085" lon="5.362">
        <ele>197.5</ele>
        <time>2022-09-24T15:45:26Z</time>
      </trkpt>
      <trkpt lat="45.88082" lon="5.36208">
        <ele>197.5</ele>
        <time>2022-09-24T15:45:27Z</time>
      </trkpt>
      <trkpt lat="45.8808" lon="5.36215">
        <ele>197.5</ele>
        <time>2022-09-24T15:45:28Z</time>
      </trkpt>
      <trkpt lat="45.88077" lon="5.36222">
        <ele>197.5</ele>
        <time>2022-09-24T15:45:29Z</time>
      </trkpt>
      <trkpt lat="45.88075" lon="5.36229">
        <ele>197.6</ele>
        <time>2022-09-24T15:45:30Z</time>
      </trkpt>
      <trkpt lat="45.88073" lon="5.36236">
        <ele>197.6</ele>
        <time>2022-09-24T15:45:31Z</time>
      </trkpt>
      <trkpt lat="45.88069" lon="5.36243">
        <ele>197.6</ele>
        <time>2022-09-24T15:45:32Z</time>
      </trkpt>
      <trkpt lat="45.88066" lon="5.3625">
        <ele>197.6</ele>
        <time>2022-09-24T15:45:33Z</time>
      </trkpt>
      <trkpt lat="45.88063" lon="5.36257">
        <ele>197.6</ele>
        <time>2022-09-24T15:45:34Z</time>
      </trkpt>
      <trkpt lat="45.8806" lon="5.36263">
        <ele>197.6</ele>
        <time>2022-09-24T15:45:35Z</time>
      </trkpt>
      <trkpt lat="45.88057" lon="5.3627">
        <ele>197.6</ele>
        <time>2022-09-24T15:45:36Z</time>
      </trkpt>
      <trkpt lat="45.88054" lon="5.36277">
        <ele>197.6</ele>
        <time>2022-09-24T15:45:37Z</time>
      </trkpt>
      <trkpt lat="45.88051" lon="5.36284">
        <ele>197.6</ele>
        <time>2022-09-24T15:45:38Z</time>
      </trkpt>
      <trkpt lat="45.88048" lon="5.36291">
        <ele>197.6</ele>
        <time>2022-09-24T15:45:39Z</time>
      </trkpt>
      <trkpt lat="45.88044" lon="5.36298">
        <ele>197.6</ele>
        <time>2022-09-24T15:45:40Z</time>
      </trkpt>
      <trkpt lat="45.88041" lon="5.36304">
        <ele>197.6</ele>
        <time>2022-09-24T15:45:41Z</time>
      </trkpt>
      <trkpt lat="45.88038" lon="5.3631">
        <ele>197.6</ele>
        <time>2022-09-24T15:45:42Z</time>
      </trkpt>
      <trkpt lat="45.88034" lon="5.36317">
        <ele>197.6</ele>
        <time>2022-09-24T15:45:43Z</time>
      </trkpt>
      <trkpt lat="45.8803" lon="5.36324">
        <ele>197.6</ele>
        <time>2022-09-24T15:45:44Z</time>
      </trkpt>
      <trkpt lat="45.88026" lon="5.3633">
        <ele>197.5</ele>
        <time>2022-09-24T15:45:45Z</time>
      </trkpt>
      <trkpt lat="45.88022" lon="5.36337">
        <ele>197.5</ele>
        <time>2022-09-24T15:45:46Z</time>
      </trkpt>
      <trkpt lat="45.88018" lon="5.36344">
        <ele>197.5</ele>
        <time>2022-09-24T15:45:47Z</time>
      </trkpt>
      <trkpt lat="45.88014" lon="5.3635">
        <ele>197.5</ele>
        <time>2022-09-24T15:45:48Z</time>
      </trkpt>
      <trkpt lat="45.8801" lon="5.36356">
        <ele>197.5</ele>
        <time>2022-09-24T15:45:49Z</time>
      </trkpt>
      <trkpt lat="45.88007" lon="5.36363">
        <ele>197.5</ele>
        <time>2022-09-24T15:45:50Z</time>
      </trkpt>
      <trkpt lat="45.88003" lon="5.3637">
        <ele>197.5</ele>
        <time>2022-09-24T15:45:51Z</time>
      </trkpt>
      <trkpt lat="45.87999" lon="5.36375">
        <ele>197.5</ele>
        <time>2022-09-24T15:45:52Z</time>
      </trkpt>
      <trkpt lat="45.87996" lon="5.36381">
        <ele>197.5</ele>
        <time>2022-09-24T15:45:53Z</time>
      </trkpt>
      <trkpt lat="45.87992" lon="5.36388">
        <ele>197.5</ele>
        <time>2022-09-24T15:45:54Z</time>
      </trkpt>
      <trkpt lat="45.87988" lon="5.36395">
        <ele>197.5</ele>
        <time>2022-09-24T15:45:55Z</time>
      </trkpt>
      <trkpt lat="45.87985" lon="5.36401">
        <ele>197.5</ele>
        <time>2022-09-24T15:45:56Z</time>
      </trkpt>
      <trkpt lat="45.87981" lon="5.36407">
        <ele>197.5</ele>
        <time>2022-09-24T15:45:57Z</time>
      </trkpt>
      <trkpt lat="45.87977" lon="5.36414">
        <ele>197.5</ele>
        <time>2022-09-24T15:45:58Z</time>
      </trkpt>
      <trkpt lat="45.87973" lon="5.36421">
        <ele>197.5</ele>
        <time>2022-09-24T15:45:59Z</time>
      </trkpt>
      <trkpt lat="45.87969" lon="5.36427">
        <ele>197.5</ele>
        <time>2022-09-24T15:46:00Z</time>
      </trkpt>
      <trkpt lat="45.87966" lon="5.36433">
        <ele>197.5</ele>
        <time>2022-09-24T15:46:01Z</time>
      </trkpt>
      <trkpt lat="45.8796" lon="5.36438">
        <ele>197.5</ele>
        <time>2022-09-24T15:46:02Z</time>
      </trkpt>
      <trkpt lat="45.87956" lon="5.36446">
        <ele>197.4</ele>
        <time>2022-09-24T15:46:03Z</time>
      </trkpt>
      <trkpt lat="45.87952" lon="5.36451">
        <ele>197.4</ele>
        <time>2022-09-24T15:46:04Z</time>
      </trkpt>
      <trkpt lat="45.87948" lon="5.36457">
        <ele>197.4</ele>
        <time>2022-09-24T15:46:05Z</time>
      </trkpt>
      <trkpt lat="45.87944" lon="5.36463">
        <ele>197.4</ele>
        <time>2022-09-24T15:46:06Z</time>
      </trkpt>
      <trkpt lat="45.87939" lon="5.36469">
        <ele>197.4</ele>
        <time>2022-09-24T15:46:07Z</time>
      </trkpt>
      <trkpt lat="45.87934" lon="5.36475">
        <ele>197.4</ele>
        <time>2022-09-24T15:46:08Z</time>
      </trkpt>
      <trkpt lat="45.8793" lon="5.36481">
        <ele>197.4</ele>
        <time>2022-09-24T15:46:09Z</time>
      </trkpt>
      <trkpt lat="45.87926" lon="5.36486">
        <ele>197.4</ele>
        <time>2022-09-24T15:46:10Z</time>
      </trkpt>
      <trkpt lat="45.8792" lon="5.36492">
        <ele>197.4</ele>
        <time>2022-09-24T15:46:11Z</time>
      </trkpt>
      <trkpt lat="45.87917" lon="5.36498">
        <ele>197.4</ele>
        <time>2022-09-24T15:46:12Z</time>
      </trkpt>
      <trkpt lat="45.87913" lon="5.36502">
        <ele>197.4</ele>
        <time>2022-09-24T15:46:13Z</time>
      </trkpt>
      <trkpt lat="45.87907" lon="5.36508">
        <ele>197.3</ele>
        <time>2022-09-24T15:46:14Z</time>
      </trkpt>
      <trkpt lat="45.87901" lon="5.36513">
        <ele>197.3</ele>
        <time>2022-09-24T15:46:15Z</time>
      </trkpt>
      <trkpt lat="45.87896" lon="5.36519">
        <ele>197.3</ele>
        <time>2022-09-24T15:46:16Z</time>
      </trkpt>
      <trkpt lat="45.87892" lon="5.36524">
        <ele>197.3</ele>
        <time>2022-09-24T15:46:17Z</time>
      </trkpt>
      <trkpt lat="45.87887" lon="5.36529">
        <ele>197.3</ele>
        <time>2022-09-24T15:46:18Z</time>
      </trkpt>
      <trkpt lat="45.87883" lon="5.36533">
        <ele>197.3</ele>
        <time>2022-09-24T15:46:19Z</time>
      </trkpt>
      <trkpt lat="45.87879" lon="5.36539">
        <ele>197.3</ele>
        <time>2022-09-24T15:46:20Z</time>
      </trkpt>
      <trkpt lat="45.87874" lon="5.36544">
        <ele>197.3</ele>
        <time>2022-09-24T15:46:21Z</time>
      </trkpt>
      <trkpt lat="45.87869" lon="5.36549">
        <ele>197.3</ele>
        <time>2022-09-24T15:46:22Z</time>
      </trkpt>
      <trkpt lat="45.87864" lon="5.36554">
        <ele>197.3</ele>
        <time>2022-09-24T15:46:23Z</time>
      </trkpt>
      <trkpt lat="45.8786" lon="5.36559">
        <ele>197.3</ele>
        <time>2022-09-24T15:46:24Z</time>
      </trkpt>
      <trkpt lat="45.87855" lon="5.36565">
        <ele>197.3</ele>
        <time>2022-09-24T15:46:25Z</time>
      </trkpt>
      <trkpt lat="45.8785" lon="5.3657">
        <ele>197.3</ele>
        <time>2022-09-24T15:46:26Z</time>
      </trkpt>
      <trkpt lat="45.87846" lon="5.36576">
        <ele>197.3</ele>
        <time>2022-09-24T15:46:27Z</time>
      </trkpt>
      <trkpt lat="45.87841" lon="5.36581">
        <ele>197.3</ele>
        <time>2022-09-24T15:46:28Z</time>
      </trkpt>
      <trkpt lat="45.87836" lon="5.36587">
        <ele>197.3</ele>
        <time>2022-09-24T15:46:29Z</time>
      </trkpt>
      <trkpt lat="45.87831" lon="5.36593">
        <ele>197.3</ele>
        <time>2022-09-24T15:46:30Z</time>
      </trkpt>
      <trkpt lat="45.87826" lon="5.36598">
        <ele>197.4</ele>
        <time>2022-09-24T15:46:31Z</time>
      </trkpt>
      <trkpt lat="45.87822" lon="5.36604">
        <ele>197.4</ele>
        <time>2022-09-24T15:46:32Z</time>
      </trkpt>
      <trkpt lat="45.87817" lon="5.3661">
        <ele>197.4</ele>
        <time>2022-09-24T15:46:33Z</time>
      </trkpt>
      <trkpt lat="45.87812" lon="5.36616">
        <ele>197.5</ele>
        <time>2022-09-24T15:46:34Z</time>
      </trkpt>
      <trkpt lat="45.87809" lon="5.36621">
        <ele>197.5</ele>
        <time>2022-09-24T15:46:35Z</time>
      </trkpt>
      <trkpt lat="45.87805" lon="5.36627">
        <ele>197.5</ele>
        <time>2022-09-24T15:46:36Z</time>
      </trkpt>
      <trkpt lat="45.87801" lon="5.36632">
        <ele>197.6</ele>
        <time>2022-09-24T15:46:37Z</time>
      </trkpt>
      <trkpt lat="45.87798" lon="5.36636">
        <ele>197.6</ele>
        <time>2022-09-24T15:46:38Z</time>
      </trkpt>
      <trkpt lat="45.87795" lon="5.36642">
        <ele>197.6</ele>
        <time>2022-09-24T15:46:39Z</time>
      </trkpt>
      <trkpt lat="45.87793" lon="5.36646">
        <ele>197.6</ele>
        <time>2022-09-24T15:46:40Z</time>
      </trkpt>
      <trkpt lat="45.87791" lon="5.36651">
        <ele>197.6</ele>
        <time>2022-09-24T15:46:41Z</time>
      </trkpt>
      <trkpt lat="45.87789" lon="5.36655">
        <ele>197.6</ele>
        <time>2022-09-24T15:46:42Z</time>
      </trkpt>
      <trkpt lat="45.87787" lon="5.36659">
        <ele>197.6</ele>
        <time>2022-09-24T15:46:43Z</time>
      </trkpt>
      <trkpt lat="45.87785" lon="5.36663">
        <ele>197.6</ele>
        <time>2022-09-24T15:46:44Z</time>
      </trkpt>
      <trkpt lat="45.87782" lon="5.36668">
        <ele>197.6</ele>
        <time>2022-09-24T15:46:45Z</time>
      </trkpt>
      <trkpt lat="45.87779" lon="5.36673">
        <ele>197.6</ele>
        <time>2022-09-24T15:46:46Z</time>
      </trkpt>
      <trkpt lat="45.87776" lon="5.36679">
        <ele>197.6</ele>
        <time>2022-09-24T15:46:47Z</time>
      </trkpt>
      <trkpt lat="45.87773" lon="5.36685">
        <ele>197.6</ele>
        <time>2022-09-24T15:46:48Z</time>
      </trkpt>
      <trkpt lat="45.87771" lon="5.36691">
        <ele>197.6</ele>
        <time>2022-09-24T15:46:49Z</time>
      </trkpt>
      <trkpt lat="45.87768" lon="5.36697">
        <ele>197.6</ele>
        <time>2022-09-24T15:46:50Z</time>
      </trkpt>
      <trkpt lat="45.87763" lon="5.36702">
        <ele>197.6</ele>
        <time>2022-09-24T15:46:51Z</time>
      </trkpt>
      <trkpt lat="45.8776" lon="5.36709">
        <ele>197.6</ele>
        <time>2022-09-24T15:46:52Z</time>
      </trkpt>
      <trkpt lat="45.87757" lon="5.36715">
        <ele>197.6</ele>
        <time>2022-09-24T15:46:53Z</time>
      </trkpt>
      <trkpt lat="45.87754" lon="5.36721">
        <ele>197.6</ele>
        <time>2022-09-24T15:46:54Z</time>
      </trkpt>
      <trkpt lat="45.87751" lon="5.36727">
        <ele>197.6</ele>
        <time>2022-09-24T15:46:55Z</time>
      </trkpt>
      <trkpt lat="45.87748" lon="5.36734">
        <ele>197.6</ele>
        <time>2022-09-24T15:46:56Z</time>
      </trkpt>
      <trkpt lat="45.87745" lon="5.36742">
        <ele>197.6</ele>
        <time>2022-09-24T15:46:57Z</time>
      </trkpt>
      <trkpt lat="45.87742" lon="5.36749">
        <ele>197.6</ele>
        <time>2022-09-24T15:46:58Z</time>
      </trkpt>
      <trkpt lat="45.87739" lon="5.36756">
        <ele>197.6</ele>
        <time>2022-09-24T15:46:59Z</time>
      </trkpt>
      <trkpt lat="45.87736" lon="5.36763">
        <ele>197.6</ele>
        <time>2022-09-24T15:47:00Z</time>
      </trkpt>
      <trkpt lat="45.87733" lon="5.3677">
        <ele>197.6</ele>
        <time>2022-09-24T15:47:01Z</time>
      </trkpt>
      <trkpt lat="45.87731" lon="5.36776">
        <ele>197.6</ele>
        <time>2022-09-24T15:47:02Z</time>
      </trkpt>
      <trkpt lat="45.87728" lon="5.36783">
        <ele>197.6</ele>
        <time>2022-09-24T15:47:03Z</time>
      </trkpt>
      <trkpt lat="45.87725" lon="5.36789">
        <ele>197.6</ele>
        <time>2022-09-24T15:47:04Z</time>
      </trkpt>
      <trkpt lat="45.87723" lon="5.36796">
        <ele>197.6</ele>
        <time>2022-09-24T15:47:05Z</time>
      </trkpt>
      <trkpt lat="45.8772" lon="5.36803">
        <ele>197.6</ele>
        <time>2022-09-24T15:47:06Z</time>
      </trkpt>
      <trkpt lat="45.87718" lon="5.36809">
        <ele>197.6</ele>
        <time>2022-09-24T15:47:07Z</time>
      </trkpt>
      <trkpt lat="45.87715" lon="5.36816">
        <ele>197.6</ele>
        <time>2022-09-24T15:47:08Z</time>
      </trkpt>
      <trkpt lat="45.87712" lon="5.36823">
        <ele>197.6</ele>
        <time>2022-09-24T15:47:09Z</time>
      </trkpt>
      <trkpt lat="45.8771" lon="5.3683">
        <ele>197.6</ele>
        <time>2022-09-24T15:47:10Z</time>
      </trkpt>
      <trkpt lat="45.87707" lon="5.36837">
        <ele>197.6</ele>
        <time>2022-09-24T15:47:11Z</time>
      </trkpt>
      <trkpt lat="45.87705" lon="5.36844">
        <ele>197.6</ele>
        <time>2022-09-24T15:47:12Z</time>
      </trkpt>
      <trkpt lat="45.87702" lon="5.36852">
        <ele>197.5</ele>
        <time>2022-09-24T15:47:13Z</time>
      </trkpt>
      <trkpt lat="45.877" lon="5.36859">
        <ele>197.5</ele>
        <time>2022-09-24T15:47:14Z</time>
      </trkpt>
      <trkpt lat="45.87697" lon="5.36867">
        <ele>197.5</ele>
        <time>2022-09-24T15:47:15Z</time>
      </trkpt>
      <trkpt lat="45.87694" lon="5.36875">
        <ele>197.5</ele>
        <time>2022-09-24T15:47:16Z</time>
      </trkpt>
      <trkpt lat="45.87692" lon="5.36883">
        <ele>197.4</ele>
        <time>2022-09-24T15:47:17Z</time>
      </trkpt>
      <trkpt lat="45.8769" lon="5.3689">
        <ele>197.4</ele>
        <time>2022-09-24T15:47:18Z</time>
      </trkpt>
      <trkpt lat="45.87687" lon="5.36898">
        <ele>197.4</ele>
        <time>2022-09-24T15:47:19Z</time>
      </trkpt>
      <trkpt lat="45.87685" lon="5.36905">
        <ele>197.4</ele>
        <time>2022-09-24T15:47:20Z</time>
      </trkpt>
      <trkpt lat="45.87683" lon="5.36913">
        <ele>197.4</ele>
        <time>2022-09-24T15:47:21Z</time>
      </trkpt>
      <trkpt lat="45.87681" lon="5.36921">
        <ele>197.4</ele>
        <time>2022-09-24T15:47:22Z</time>
      </trkpt>
      <trkpt lat="45.87679" lon="5.36928">
        <ele>197.4</ele>
        <time>2022-09-24T15:47:23Z</time>
      </trkpt>
      <trkpt lat="45.87677" lon="5.36935">
        <ele>197.4</ele>
        <time>2022-09-24T15:47:24Z</time>
      </trkpt>
      <trkpt lat="45.87675" lon="5.36943">
        <ele>197.4</ele>
        <time>2022-09-24T15:47:25Z</time>
      </trkpt>
      <trkpt lat="45.87674" lon="5.36951">
        <ele>197.4</ele>
        <time>2022-09-24T15:47:26Z</time>
      </trkpt>
      <trkpt lat="45.87672" lon="5.36959">
        <ele>197.4</ele>
        <time>2022-09-24T15:47:27Z</time>
      </trkpt>
      <trkpt lat="45.87671" lon="5.36967">
        <ele>197.4</ele>
        <time>2022-09-24T15:47:28Z</time>
      </trkpt>
      <trkpt lat="45.87669" lon="5.36976">
        <ele>197.4</ele>
        <time>2022-09-24T15:47:29Z</time>
      </trkpt>
      <trkpt lat="45.87668" lon="5.36983">
        <ele>197.4</ele>
        <time>2022-09-24T15:47:30Z</time>
      </trkpt>
      <trkpt lat="45.87667" lon="5.3699">
        <ele>197.4</ele>
        <time>2022-09-24T15:47:31Z</time>
      </trkpt>
      <trkpt lat="45.87665" lon="5.36998">
        <ele>197.3</ele>
        <time>2022-09-24T15:47:32Z</time>
      </trkpt>
      <trkpt lat="45.87662" lon="5.37006">
        <ele>197.3</ele>
        <time>2022-09-24T15:47:33Z</time>
      </trkpt>
      <trkpt lat="45.8766" lon="5.37014">
        <ele>197.3</ele>
        <time>2022-09-24T15:47:34Z</time>
      </trkpt>
      <trkpt lat="45.87658" lon="5.37024">
        <ele>197.3</ele>
        <time>2022-09-24T15:47:35Z</time>
      </trkpt>
      <trkpt lat="45.87656" lon="5.37033">
        <ele>197.3</ele>
        <time>2022-09-24T15:47:36Z</time>
      </trkpt>
      <trkpt lat="45.87653" lon="5.37041">
        <ele>197.3</ele>
        <time>2022-09-24T15:47:37Z</time>
      </trkpt>
      <trkpt lat="45.87649" lon="5.3705">
        <ele>197.4</ele>
        <time>2022-09-24T15:47:38Z</time>
      </trkpt>
      <trkpt lat="45.87646" lon="5.37057">
        <ele>197.4</ele>
        <time>2022-09-24T15:47:39Z</time>
      </trkpt>
      <trkpt lat="45.87643" lon="5.37065">
        <ele>197.5</ele>
        <time>2022-09-24T15:47:40Z</time>
      </trkpt>
      <trkpt lat="45.8764" lon="5.37072">
        <ele>197.6</ele>
        <time>2022-09-24T15:47:41Z</time>
      </trkpt>
      <trkpt lat="45.87637" lon="5.37077">
        <ele>197.7</ele>
        <time>2022-09-24T15:47:42Z</time>
      </trkpt>
      <trkpt lat="45.87635" lon="5.37084">
        <ele>197.7</ele>
        <time>2022-09-24T15:47:43Z</time>
      </trkpt>
      <trkpt lat="45.87631" lon="5.3709">
        <ele>197.8</ele>
        <time>2022-09-24T15:47:44Z</time>
      </trkpt>
      <trkpt lat="45.87628" lon="5.37095">
        <ele>197.8</ele>
        <time>2022-09-24T15:47:45Z</time>
      </trkpt>
      <trkpt lat="45.87624" lon="5.37101">
        <ele>197.8</ele>
        <time>2022-09-24T15:47:46Z</time>
      </trkpt>
      <trkpt lat="45.8762" lon="5.37106">
        <ele>197.8</ele>
        <time>2022-09-24T15:47:47Z</time>
      </trkpt>
      <trkpt lat="45.87616" lon="5.37113">
        <ele>197.8</ele>
        <time>2022-09-24T15:47:48Z</time>
      </trkpt>
      <trkpt lat="45.87612" lon="5.37118">
        <ele>197.8</ele>
        <time>2022-09-24T15:47:49Z</time>
      </trkpt>
      <trkpt lat="45.87607" lon="5.37124">
        <ele>197.8</ele>
        <time>2022-09-24T15:47:50Z</time>
      </trkpt>
      <trkpt lat="45.87602" lon="5.37129">
        <ele>197.8</ele>
        <time>2022-09-24T15:47:51Z</time>
      </trkpt>
      <trkpt lat="45.87597" lon="5.37135">
        <ele>197.9</ele>
        <time>2022-09-24T15:47:52Z</time>
      </trkpt>
      <trkpt lat="45.87593" lon="5.37141">
        <ele>197.9</ele>
        <time>2022-09-24T15:47:53Z</time>
      </trkpt>
      <trkpt lat="45.87589" lon="5.37145">
        <ele>197.9</ele>
        <time>2022-09-24T15:47:54Z</time>
      </trkpt>
      <trkpt lat="45.87586" lon="5.37149">
        <ele>197.9</ele>
        <time>2022-09-24T15:47:55Z</time>
      </trkpt>
      <trkpt lat="45.87581" lon="5.37155">
        <ele>198</ele>
        <time>2022-09-24T15:47:56Z</time>
      </trkpt>
      <trkpt lat="45.87575" lon="5.37161">
        <ele>198</ele>
        <time>2022-09-24T15:47:57Z</time>
      </trkpt>
      <trkpt lat="45.8757" lon="5.37167">
        <ele>198</ele>
        <time>2022-09-24T15:47:58Z</time>
      </trkpt>
      <trkpt lat="45.87565" lon="5.37174">
        <ele>198</ele>
        <time>2022-09-24T15:47:59Z</time>
      </trkpt>
      <trkpt lat="45.87561" lon="5.37177">
        <ele>198.1</ele>
        <time>2022-09-24T15:48:00Z</time>
      </trkpt>
      <trkpt lat="45.87555" lon="5.37184">
        <ele>198.1</ele>
        <time>2022-09-24T15:48:01Z</time>
      </trkpt>
      <trkpt lat="45.8755" lon="5.3719">
        <ele>198.1</ele>
        <time>2022-09-24T15:48:02Z</time>
      </trkpt>
      <trkpt lat="45.87546" lon="5.37196">
        <ele>198.1</ele>
        <time>2022-09-24T15:48:03Z</time>
      </trkpt>
      <trkpt lat="45.87542" lon="5.37202">
        <ele>198.1</ele>
        <time>2022-09-24T15:48:04Z</time>
      </trkpt>
      <trkpt lat="45.87538" lon="5.37208">
        <ele>198.2</ele>
        <time>2022-09-24T15:48:05Z</time>
      </trkpt>
      <trkpt lat="45.87534" lon="5.37214">
        <ele>198.2</ele>
        <time>2022-09-24T15:48:06Z</time>
      </trkpt>
      <trkpt lat="45.87532" lon="5.37219">
        <ele>198.2</ele>
        <time>2022-09-24T15:48:07Z</time>
      </trkpt>
      <trkpt lat="45.87528" lon="5.37225">
        <ele>198.1</ele>
        <time>2022-09-24T15:48:08Z</time>
      </trkpt>
      <trkpt lat="45.87524" lon="5.37232">
        <ele>198.1</ele>
        <time>2022-09-24T15:48:09Z</time>
      </trkpt>
      <trkpt lat="45.87521" lon="5.37237">
        <ele>198.1</ele>
        <time>2022-09-24T15:48:10Z</time>
      </trkpt>
      <trkpt lat="45.87516" lon="5.37243">
        <ele>198.1</ele>
        <time>2022-09-24T15:48:11Z</time>
      </trkpt>
      <trkpt lat="45.87513" lon="5.37249">
        <ele>198.1</ele>
        <time>2022-09-24T15:48:12Z</time>
      </trkpt>
      <trkpt lat="45.8751" lon="5.37255">
        <ele>198.1</ele>
        <time>2022-09-24T15:48:13Z</time>
      </trkpt>
      <trkpt lat="45.87506" lon="5.37262">
        <ele>198.1</ele>
        <time>2022-09-24T15:48:14Z</time>
      </trkpt>
      <trkpt lat="45.87502" lon="5.37268">
        <ele>198.1</ele>
        <time>2022-09-24T15:48:15Z</time>
      </trkpt>
      <trkpt lat="45.87499" lon="5.37274">
        <ele>198.1</ele>
        <time>2022-09-24T15:48:16Z</time>
      </trkpt>
      <trkpt lat="45.87496" lon="5.3728">
        <ele>198.1</ele>
        <time>2022-09-24T15:48:17Z</time>
      </trkpt>
      <trkpt lat="45.87492" lon="5.37286">
        <ele>198.1</ele>
        <time>2022-09-24T15:48:18Z</time>
      </trkpt>
      <trkpt lat="45.87487" lon="5.37292">
        <ele>198.1</ele>
        <time>2022-09-24T15:48:19Z</time>
      </trkpt>
      <trkpt lat="45.87484" lon="5.37297">
        <ele>198.1</ele>
        <time>2022-09-24T15:48:20Z</time>
      </trkpt>
      <trkpt lat="45.8748" lon="5.37302">
        <ele>198.1</ele>
        <time>2022-09-24T15:48:21Z</time>
      </trkpt>
      <trkpt lat="45.87476" lon="5.37307">
        <ele>198.1</ele>
        <time>2022-09-24T15:48:22Z</time>
      </trkpt>
      <trkpt lat="45.87471" lon="5.37312">
        <ele>198.1</ele>
        <time>2022-09-24T15:48:23Z</time>
      </trkpt>
      <trkpt lat="45.87466" lon="5.37318">
        <ele>198.1</ele>
        <time>2022-09-24T15:48:24Z</time>
      </trkpt>
      <trkpt lat="45.87462" lon="5.37324">
        <ele>198.1</ele>
        <time>2022-09-24T15:48:25Z</time>
      </trkpt>
      <trkpt lat="45.87457" lon="5.37329">
        <ele>198.1</ele>
        <time>2022-09-24T15:48:26Z</time>
      </trkpt>
      <trkpt lat="45.87453" lon="5.37335">
        <ele>198.1</ele>
        <time>2022-09-24T15:48:27Z</time>
      </trkpt>
      <trkpt lat="45.87449" lon="5.3734">
        <ele>198.1</ele>
        <time>2022-09-24T15:48:28Z</time>
      </trkpt>
      <trkpt lat="45.87443" lon="5.37348">
        <ele>198.1</ele>
        <time>2022-09-24T15:48:29Z</time>
      </trkpt>
      <trkpt lat="45.87439" lon="5.37356">
        <ele>198.1</ele>
        <time>2022-09-24T15:48:30Z</time>
      </trkpt>
      <trkpt lat="45.87434" lon="5.37362">
        <ele>198.1</ele>
        <time>2022-09-24T15:48:31Z</time>
      </trkpt>
      <trkpt lat="45.87431" lon="5.37369">
        <ele>198</ele>
        <time>2022-09-24T15:48:32Z</time>
      </trkpt>
      <trkpt lat="45.87427" lon="5.37376">
        <ele>198</ele>
        <time>2022-09-24T15:48:33Z</time>
      </trkpt>
      <trkpt lat="45.87423" lon="5.37383">
        <ele>198</ele>
        <time>2022-09-24T15:48:34Z</time>
      </trkpt>
      <trkpt lat="45.87419" lon="5.37389">
        <ele>198</ele>
        <time>2022-09-24T15:48:35Z</time>
      </trkpt>
      <trkpt lat="45.87414" lon="5.37396">
        <ele>198</ele>
        <time>2022-09-24T15:48:36Z</time>
      </trkpt>
      <trkpt lat="45.8741" lon="5.37402">
        <ele>197.9</ele>
        <time>2022-09-24T15:48:37Z</time>
      </trkpt>
      <trkpt lat="45.87406" lon="5.37409">
        <ele>197.9</ele>
        <time>2022-09-24T15:48:38Z</time>
      </trkpt>
      <trkpt lat="45.87401" lon="5.37415">
        <ele>197.9</ele>
        <time>2022-09-24T15:48:39Z</time>
      </trkpt>
      <trkpt lat="45.87397" lon="5.37421">
        <ele>197.9</ele>
        <time>2022-09-24T15:48:40Z</time>
      </trkpt>
      <trkpt lat="45.87392" lon="5.37428">
        <ele>197.9</ele>
        <time>2022-09-24T15:48:41Z</time>
      </trkpt>
      <trkpt lat="45.87388" lon="5.37434">
        <ele>197.9</ele>
        <time>2022-09-24T15:48:42Z</time>
      </trkpt>
      <trkpt lat="45.87385" lon="5.3744">
        <ele>197.9</ele>
        <time>2022-09-24T15:48:43Z</time>
      </trkpt>
      <trkpt lat="45.8738" lon="5.37444">
        <ele>197.9</ele>
        <time>2022-09-24T15:48:44Z</time>
      </trkpt>
      <trkpt lat="45.87376" lon="5.37449">
        <ele>197.9</ele>
        <time>2022-09-24T15:48:45Z</time>
      </trkpt>
      <trkpt lat="45.87373" lon="5.37456">
        <ele>197.9</ele>
        <time>2022-09-24T15:48:46Z</time>
      </trkpt>
      <trkpt lat="45.87367" lon="5.37461">
        <ele>197.9</ele>
        <time>2022-09-24T15:48:47Z</time>
      </trkpt>
      <trkpt lat="45.87361" lon="5.37467">
        <ele>197.9</ele>
        <time>2022-09-24T15:48:48Z</time>
      </trkpt>
      <trkpt lat="45.87356" lon="5.37472">
        <ele>197.9</ele>
        <time>2022-09-24T15:48:49Z</time>
      </trkpt>
      <trkpt lat="45.87352" lon="5.37477">
        <ele>197.9</ele>
        <time>2022-09-24T15:48:50Z</time>
      </trkpt>
      <trkpt lat="45.87348" lon="5.37483">
        <ele>197.9</ele>
        <time>2022-09-24T15:48:51Z</time>
      </trkpt>
      <trkpt lat="45.87343" lon="5.37489">
        <ele>197.9</ele>
        <time>2022-09-24T15:48:52Z</time>
      </trkpt>
      <trkpt lat="45.87339" lon="5.37494">
        <ele>198</ele>
        <time>2022-09-24T15:48:53Z</time>
      </trkpt>
      <trkpt lat="45.87335" lon="5.375">
        <ele>198</ele>
        <time>2022-09-24T15:48:54Z</time>
      </trkpt>
      <trkpt lat="45.87331" lon="5.37505">
        <ele>198</ele>
        <time>2022-09-24T15:48:55Z</time>
      </trkpt>
      <trkpt lat="45.87329" lon="5.37508">
        <ele>198</ele>
        <time>2022-09-24T15:48:56Z</time>
      </trkpt>
      <trkpt lat="45.87325" lon="5.37513">
        <ele>197.9</ele>
        <time>2022-09-24T15:48:57Z</time>
      </trkpt>
      <trkpt lat="45.87321" lon="5.37519">
        <ele>197.9</ele>
        <time>2022-09-24T15:48:58Z</time>
      </trkpt>
      <trkpt lat="45.87316" lon="5.37525">
        <ele>197.9</ele>
        <time>2022-09-24T15:48:59Z</time>
      </trkpt>
      <trkpt lat="45.87312" lon="5.37532">
        <ele>197.9</ele>
        <time>2022-09-24T15:49:00Z</time>
      </trkpt>
      <trkpt lat="45.87307" lon="5.37539">
        <ele>197.9</ele>
        <time>2022-09-24T15:49:01Z</time>
      </trkpt>
      <trkpt lat="45.87303" lon="5.37545">
        <ele>197.9</ele>
        <time>2022-09-24T15:49:02Z</time>
      </trkpt>
      <trkpt lat="45.87299" lon="5.37551">
        <ele>197.9</ele>
        <time>2022-09-24T15:49:03Z</time>
      </trkpt>
      <trkpt lat="45.87296" lon="5.37556">
        <ele>197.9</ele>
        <time>2022-09-24T15:49:04Z</time>
      </trkpt>
      <trkpt lat="45.87291" lon="5.37563">
        <ele>197.9</ele>
        <time>2022-09-24T15:49:05Z</time>
      </trkpt>
      <trkpt lat="45.87286" lon="5.37569">
        <ele>197.9</ele>
        <time>2022-09-24T15:49:06Z</time>
      </trkpt>
      <trkpt lat="45.87281" lon="5.37574">
        <ele>197.9</ele>
        <time>2022-09-24T15:49:07Z</time>
      </trkpt>
      <trkpt lat="45.87276" lon="5.3758">
        <ele>197.9</ele>
        <time>2022-09-24T15:49:08Z</time>
      </trkpt>
      <trkpt lat="45.87272" lon="5.37585">
        <ele>197.9</ele>
        <time>2022-09-24T15:49:09Z</time>
      </trkpt>
      <trkpt lat="45.87267" lon="5.3759">
        <ele>197.9</ele>
        <time>2022-09-24T15:49:10Z</time>
      </trkpt>
      <trkpt lat="45.87262" lon="5.37595">
        <ele>197.9</ele>
        <time>2022-09-24T15:49:11Z</time>
      </trkpt>
      <trkpt lat="45.87258" lon="5.376">
        <ele>197.8</ele>
        <time>2022-09-24T15:49:12Z</time>
      </trkpt>
      <trkpt lat="45.87253" lon="5.37604">
        <ele>197.8</ele>
        <time>2022-09-24T15:49:13Z</time>
      </trkpt>
      <trkpt lat="45.87248" lon="5.37609">
        <ele>197.8</ele>
        <time>2022-09-24T15:49:14Z</time>
      </trkpt>
      <trkpt lat="45.87243" lon="5.37614">
        <ele>197.7</ele>
        <time>2022-09-24T15:49:15Z</time>
      </trkpt>
      <trkpt lat="45.87238" lon="5.37618">
        <ele>197.7</ele>
        <time>2022-09-24T15:49:16Z</time>
      </trkpt>
      <trkpt lat="45.87233" lon="5.37623">
        <ele>197.7</ele>
        <time>2022-09-24T15:49:17Z</time>
      </trkpt>
      <trkpt lat="45.87229" lon="5.37627">
        <ele>197.7</ele>
        <time>2022-09-24T15:49:18Z</time>
      </trkpt>
      <trkpt lat="45.87224" lon="5.37632">
        <ele>197.7</ele>
        <time>2022-09-24T15:49:19Z</time>
      </trkpt>
      <trkpt lat="45.87219" lon="5.37636">
        <ele>197.7</ele>
        <time>2022-09-24T15:49:20Z</time>
      </trkpt>
      <trkpt lat="45.87216" lon="5.37642">
        <ele>197.7</ele>
        <time>2022-09-24T15:49:21Z</time>
      </trkpt>
      <trkpt lat="45.87211" lon="5.37648">
        <ele>197.7</ele>
        <time>2022-09-24T15:49:22Z</time>
      </trkpt>
      <trkpt lat="45.87207" lon="5.37653">
        <ele>197.8</ele>
        <time>2022-09-24T15:49:23Z</time>
      </trkpt>
      <trkpt lat="45.87202" lon="5.37659">
        <ele>197.8</ele>
        <time>2022-09-24T15:49:24Z</time>
      </trkpt>
      <trkpt lat="45.87198" lon="5.37665">
        <ele>197.8</ele>
        <time>2022-09-24T15:49:25Z</time>
      </trkpt>
      <trkpt lat="45.87195" lon="5.3767">
        <ele>197.9</ele>
        <time>2022-09-24T15:49:26Z</time>
      </trkpt>
      <trkpt lat="45.87193" lon="5.37676">
        <ele>197.9</ele>
        <time>2022-09-24T15:49:27Z</time>
      </trkpt>
      <trkpt lat="45.87189" lon="5.37683">
        <ele>197.9</ele>
        <time>2022-09-24T15:49:28Z</time>
      </trkpt>
      <trkpt lat="45.87185" lon="5.37689">
        <ele>197.9</ele>
        <time>2022-09-24T15:49:29Z</time>
      </trkpt>
      <trkpt lat="45.87182" lon="5.37695">
        <ele>198</ele>
        <time>2022-09-24T15:49:30Z</time>
      </trkpt>
      <trkpt lat="45.87179" lon="5.377">
        <ele>198</ele>
        <time>2022-09-24T15:49:31Z</time>
      </trkpt>
      <trkpt lat="45.87175" lon="5.37707">
        <ele>198</ele>
        <time>2022-09-24T15:49:32Z</time>
      </trkpt>
      <trkpt lat="45.87172" lon="5.37712">
        <ele>198</ele>
        <time>2022-09-24T15:49:33Z</time>
      </trkpt>
      <trkpt lat="45.87167" lon="5.37718">
        <ele>198</ele>
        <time>2022-09-24T15:49:34Z</time>
      </trkpt>
      <trkpt lat="45.87163" lon="5.37724">
        <ele>198</ele>
        <time>2022-09-24T15:49:35Z</time>
      </trkpt>
      <trkpt lat="45.87159" lon="5.3773">
        <ele>197.9</ele>
        <time>2022-09-24T15:49:36Z</time>
      </trkpt>
      <trkpt lat="45.87156" lon="5.37735">
        <ele>197.9</ele>
        <time>2022-09-24T15:49:37Z</time>
      </trkpt>
      <trkpt lat="45.87152" lon="5.37741">
        <ele>197.9</ele>
        <time>2022-09-24T15:49:38Z</time>
      </trkpt>
      <trkpt lat="45.87147" lon="5.37749">
        <ele>197.9</ele>
        <time>2022-09-24T15:49:39Z</time>
      </trkpt>
      <trkpt lat="45.87143" lon="5.37755">
        <ele>197.9</ele>
        <time>2022-09-24T15:49:40Z</time>
      </trkpt>
      <trkpt lat="45.87139" lon="5.37761">
        <ele>197.9</ele>
        <time>2022-09-24T15:49:41Z</time>
      </trkpt>
      <trkpt lat="45.87135" lon="5.37767">
        <ele>197.9</ele>
        <time>2022-09-24T15:49:42Z</time>
      </trkpt>
      <trkpt lat="45.87131" lon="5.37773">
        <ele>198</ele>
        <time>2022-09-24T15:49:43Z</time>
      </trkpt>
      <trkpt lat="45.87128" lon="5.3778">
        <ele>198</ele>
        <time>2022-09-24T15:49:44Z</time>
      </trkpt>
      <trkpt lat="45.87124" lon="5.37786">
        <ele>198</ele>
        <time>2022-09-24T15:49:45Z</time>
      </trkpt>
      <trkpt lat="45.87121" lon="5.37792">
        <ele>198</ele>
        <time>2022-09-24T15:49:46Z</time>
      </trkpt>
      <trkpt lat="45.87117" lon="5.37798">
        <ele>198</ele>
        <time>2022-09-24T15:49:47Z</time>
      </trkpt>
      <trkpt lat="45.87114" lon="5.37804">
        <ele>198</ele>
        <time>2022-09-24T15:49:48Z</time>
      </trkpt>
      <trkpt lat="45.87111" lon="5.3781">
        <ele>198</ele>
        <time>2022-09-24T15:49:49Z</time>
      </trkpt>
      <trkpt lat="45.87107" lon="5.37816">
        <ele>198</ele>
        <time>2022-09-24T15:49:50Z</time>
      </trkpt>
      <trkpt lat="45.87103" lon="5.37822">
        <ele>198</ele>
        <time>2022-09-24T15:49:51Z</time>
      </trkpt>
      <trkpt lat="45.871" lon="5.37828">
        <ele>198.1</ele>
        <time>2022-09-24T15:49:52Z</time>
      </trkpt>
      <trkpt lat="45.87097" lon="5.37834">
        <ele>198.1</ele>
        <time>2022-09-24T15:49:53Z</time>
      </trkpt>
      <trkpt lat="45.87093" lon="5.37839">
        <ele>198</ele>
        <time>2022-09-24T15:49:54Z</time>
      </trkpt>
      <trkpt lat="45.87089" lon="5.37845">
        <ele>198</ele>
        <time>2022-09-24T15:49:55Z</time>
      </trkpt>
      <trkpt lat="45.87086" lon="5.37851">
        <ele>198</ele>
        <time>2022-09-24T15:49:56Z</time>
      </trkpt>
      <trkpt lat="45.87083" lon="5.37855">
        <ele>198</ele>
        <time>2022-09-24T15:49:57Z</time>
      </trkpt>
      <trkpt lat="45.87078" lon="5.3786">
        <ele>198</ele>
        <time>2022-09-24T15:49:58Z</time>
      </trkpt>
      <trkpt lat="45.87075" lon="5.37866">
        <ele>198</ele>
        <time>2022-09-24T15:49:59Z</time>
      </trkpt>
      <trkpt lat="45.87072" lon="5.37872">
        <ele>198</ele>
        <time>2022-09-24T15:50:00Z</time>
      </trkpt>
      <trkpt lat="45.87068" lon="5.37878">
        <ele>198</ele>
        <time>2022-09-24T15:50:01Z</time>
      </trkpt>
      <trkpt lat="45.87064" lon="5.37884">
        <ele>198</ele>
        <time>2022-09-24T15:50:02Z</time>
      </trkpt>
      <trkpt lat="45.8706" lon="5.3789">
        <ele>198</ele>
        <time>2022-09-24T15:50:03Z</time>
      </trkpt>
      <trkpt lat="45.87057" lon="5.37896">
        <ele>198</ele>
        <time>2022-09-24T15:50:04Z</time>
      </trkpt>
      <trkpt lat="45.87053" lon="5.37903">
        <ele>198</ele>
        <time>2022-09-24T15:50:05Z</time>
      </trkpt>
      <trkpt lat="45.87051" lon="5.3791">
        <ele>198.1</ele>
        <time>2022-09-24T15:50:06Z</time>
      </trkpt>
      <trkpt lat="45.87048" lon="5.37916">
        <ele>198.1</ele>
        <time>2022-09-24T15:50:07Z</time>
      </trkpt>
      <trkpt lat="45.87046" lon="5.37923">
        <ele>198.1</ele>
        <time>2022-09-24T15:50:08Z</time>
      </trkpt>
      <trkpt lat="45.87044" lon="5.37928">
        <ele>198.2</ele>
        <time>2022-09-24T15:50:09Z</time>
      </trkpt>
      <trkpt lat="45.87043" lon="5.37935">
        <ele>198.2</ele>
        <time>2022-09-24T15:50:10Z</time>
      </trkpt>
      <trkpt lat="45.87041" lon="5.37943">
        <ele>198.2</ele>
        <time>2022-09-24T15:50:11Z</time>
      </trkpt>
      <trkpt lat="45.87039" lon="5.3795">
        <ele>198.2</ele>
        <time>2022-09-24T15:50:12Z</time>
      </trkpt>
      <trkpt lat="45.87038" lon="5.37957">
        <ele>198.3</ele>
        <time>2022-09-24T15:50:13Z</time>
      </trkpt>
      <trkpt lat="45.87036" lon="5.37964">
        <ele>198.3</ele>
        <time>2022-09-24T15:50:14Z</time>
      </trkpt>
      <trkpt lat="45.87034" lon="5.3797">
        <ele>198.3</ele>
        <time>2022-09-24T15:50:15Z</time>
      </trkpt>
      <trkpt lat="45.87031" lon="5.37978">
        <ele>198.3</ele>
        <time>2022-09-24T15:50:16Z</time>
      </trkpt>
      <trkpt lat="45.87029" lon="5.37985">
        <ele>198.4</ele>
        <time>2022-09-24T15:50:17Z</time>
      </trkpt>
      <trkpt lat="45.87026" lon="5.37992">
        <ele>198.4</ele>
        <time>2022-09-24T15:50:18Z</time>
      </trkpt>
      <trkpt lat="45.87023" lon="5.37999">
        <ele>198.4</ele>
        <time>2022-09-24T15:50:19Z</time>
      </trkpt>
      <trkpt lat="45.8702" lon="5.38005">
        <ele>198.4</ele>
        <time>2022-09-24T15:50:20Z</time>
      </trkpt>
      <trkpt lat="45.87017" lon="5.38012">
        <ele>198.3</ele>
        <time>2022-09-24T15:50:21Z</time>
      </trkpt>
      <trkpt lat="45.87015" lon="5.3802">
        <ele>198.3</ele>
        <time>2022-09-24T15:50:22Z</time>
      </trkpt>
      <trkpt lat="45.87013" lon="5.38025">
        <ele>198.3</ele>
        <time>2022-09-24T15:50:23Z</time>
      </trkpt>
      <trkpt lat="45.87011" lon="5.38033">
        <ele>198.3</ele>
        <time>2022-09-24T15:50:24Z</time>
      </trkpt>
      <trkpt lat="45.87008" lon="5.38041">
        <ele>198.2</ele>
        <time>2022-09-24T15:50:25Z</time>
      </trkpt>
      <trkpt lat="45.87006" lon="5.38049">
        <ele>198.2</ele>
        <time>2022-09-24T15:50:26Z</time>
      </trkpt>
      <trkpt lat="45.87004" lon="5.38057">
        <ele>198.3</ele>
        <time>2022-09-24T15:50:27Z</time>
      </trkpt>
      <trkpt lat="45.87002" lon="5.38065">
        <ele>198.3</ele>
        <time>2022-09-24T15:50:28Z</time>
      </trkpt>
      <trkpt lat="45.87" lon="5.38071">
        <ele>198.3</ele>
        <time>2022-09-24T15:50:29Z</time>
      </trkpt>
      <trkpt lat="45.86997" lon="5.38078">
        <ele>198.3</ele>
        <time>2022-09-24T15:50:30Z</time>
      </trkpt>
      <trkpt lat="45.86994" lon="5.38084">
        <ele>198.3</ele>
        <time>2022-09-24T15:50:31Z</time>
      </trkpt>
      <trkpt lat="45.86991" lon="5.38091">
        <ele>198.3</ele>
        <time>2022-09-24T15:50:32Z</time>
      </trkpt>
      <trkpt lat="45.86988" lon="5.38098">
        <ele>198.4</ele>
        <time>2022-09-24T15:50:33Z</time>
      </trkpt>
      <trkpt lat="45.86986" lon="5.38105">
        <ele>198.4</ele>
        <time>2022-09-24T15:50:34Z</time>
      </trkpt>
      <trkpt lat="45.86984" lon="5.38113">
        <ele>198.4</ele>
        <time>2022-09-24T15:50:35Z</time>
      </trkpt>
      <trkpt lat="45.86981" lon="5.3812">
        <ele>198.5</ele>
        <time>2022-09-24T15:50:36Z</time>
      </trkpt>
      <trkpt lat="45.86978" lon="5.38128">
        <ele>198.5</ele>
        <time>2022-09-24T15:50:37Z</time>
      </trkpt>
      <trkpt lat="45.86976" lon="5.38135">
        <ele>198.6</ele>
        <time>2022-09-24T15:50:38Z</time>
      </trkpt>
      <trkpt lat="45.86973" lon="5.38142">
        <ele>198.6</ele>
        <time>2022-09-24T15:50:39Z</time>
      </trkpt>
      <trkpt lat="45.8697" lon="5.38149">
        <ele>198.6</ele>
        <time>2022-09-24T15:50:40Z</time>
      </trkpt>
      <trkpt lat="45.86968" lon="5.38155">
        <ele>198.6</ele>
        <time>2022-09-24T15:50:41Z</time>
      </trkpt>
      <trkpt lat="45.86966" lon="5.38162">
        <ele>198.6</ele>
        <time>2022-09-24T15:50:42Z</time>
      </trkpt>
      <trkpt lat="45.86962" lon="5.38167">
        <ele>198.7</ele>
        <time>2022-09-24T15:50:43Z</time>
      </trkpt>
      <trkpt lat="45.86959" lon="5.38174">
        <ele>198.7</ele>
        <time>2022-09-24T15:50:44Z</time>
      </trkpt>
      <trkpt lat="45.86956" lon="5.38182">
        <ele>198.7</ele>
        <time>2022-09-24T15:50:45Z</time>
      </trkpt>
      <trkpt lat="45.86953" lon="5.38189">
        <ele>198.7</ele>
        <time>2022-09-24T15:50:46Z</time>
      </trkpt>
      <trkpt lat="45.8695" lon="5.38196">
        <ele>198.7</ele>
        <time>2022-09-24T15:50:47Z</time>
      </trkpt>
      <trkpt lat="45.86948" lon="5.38204">
        <ele>198.8</ele>
        <time>2022-09-24T15:50:48Z</time>
      </trkpt>
      <trkpt lat="45.86945" lon="5.38211">
        <ele>198.8</ele>
        <time>2022-09-24T15:50:49Z</time>
      </trkpt>
      <trkpt lat="45.86941" lon="5.38218">
        <ele>198.7</ele>
        <time>2022-09-24T15:50:50Z</time>
      </trkpt>
      <trkpt lat="45.86938" lon="5.38225">
        <ele>198.7</ele>
        <time>2022-09-24T15:50:51Z</time>
      </trkpt>
      <trkpt lat="45.86936" lon="5.38231">
        <ele>198.7</ele>
        <time>2022-09-24T15:50:52Z</time>
      </trkpt>
      <trkpt lat="45.86933" lon="5.38238">
        <ele>198.7</ele>
        <time>2022-09-24T15:50:53Z</time>
      </trkpt>
      <trkpt lat="45.86929" lon="5.38244">
        <ele>198.7</ele>
        <time>2022-09-24T15:50:54Z</time>
      </trkpt>
      <trkpt lat="45.86926" lon="5.38252">
        <ele>198.7</ele>
        <time>2022-09-24T15:50:55Z</time>
      </trkpt>
      <trkpt lat="45.86924" lon="5.38258">
        <ele>198.6</ele>
        <time>2022-09-24T15:50:56Z</time>
      </trkpt>
      <trkpt lat="45.8692" lon="5.38264">
        <ele>198.6</ele>
        <time>2022-09-24T15:50:57Z</time>
      </trkpt>
      <trkpt lat="45.86917" lon="5.38271">
        <ele>198.6</ele>
        <time>2022-09-24T15:50:58Z</time>
      </trkpt>
      <trkpt lat="45.86914" lon="5.38278">
        <ele>198.6</ele>
        <time>2022-09-24T15:50:59Z</time>
      </trkpt>
      <trkpt lat="45.86911" lon="5.38283">
        <ele>198.6</ele>
        <time>2022-09-24T15:51:00Z</time>
      </trkpt>
      <trkpt lat="45.86907" lon="5.3829">
        <ele>198.6</ele>
        <time>2022-09-24T15:51:01Z</time>
      </trkpt>
      <trkpt lat="45.86905" lon="5.38296">
        <ele>198.6</ele>
        <time>2022-09-24T15:51:02Z</time>
      </trkpt>
      <trkpt lat="45.86902" lon="5.38303">
        <ele>198.6</ele>
        <time>2022-09-24T15:51:03Z</time>
      </trkpt>
      <trkpt lat="45.86899" lon="5.3831">
        <ele>198.6</ele>
        <time>2022-09-24T15:51:04Z</time>
      </trkpt>
      <trkpt lat="45.86896" lon="5.38316">
        <ele>198.6</ele>
        <time>2022-09-24T15:51:05Z</time>
      </trkpt>
      <trkpt lat="45.86892" lon="5.38321">
        <ele>198.6</ele>
        <time>2022-09-24T15:51:06Z</time>
      </trkpt>
      <trkpt lat="45.86889" lon="5.38328">
        <ele>198.5</ele>
        <time>2022-09-24T15:51:07Z</time>
      </trkpt>
      <trkpt lat="45.86885" lon="5.38334">
        <ele>198.5</ele>
        <time>2022-09-24T15:51:08Z</time>
      </trkpt>
      <trkpt lat="45.86881" lon="5.3834">
        <ele>198.5</ele>
        <time>2022-09-24T15:51:09Z</time>
      </trkpt>
      <trkpt lat="45.86877" lon="5.38346">
        <ele>198.5</ele>
        <time>2022-09-24T15:51:10Z</time>
      </trkpt>
      <trkpt lat="45.86873" lon="5.38352">
        <ele>198.4</ele>
        <time>2022-09-24T15:51:11Z</time>
      </trkpt>
      <trkpt lat="45.86868" lon="5.38358">
        <ele>198.4</ele>
        <time>2022-09-24T15:51:12Z</time>
      </trkpt>
      <trkpt lat="45.86864" lon="5.38363">
        <ele>198.3</ele>
        <time>2022-09-24T15:51:13Z</time>
      </trkpt>
      <trkpt lat="45.86859" lon="5.38367">
        <ele>198.3</ele>
        <time>2022-09-24T15:51:14Z</time>
      </trkpt>
      <trkpt lat="45.86854" lon="5.38372">
        <ele>198.2</ele>
        <time>2022-09-24T15:51:15Z</time>
      </trkpt>
      <trkpt lat="45.86848" lon="5.38377">
        <ele>198.2</ele>
        <time>2022-09-24T15:51:16Z</time>
      </trkpt>
      <trkpt lat="45.86843" lon="5.38382">
        <ele>198.1</ele>
        <time>2022-09-24T15:51:17Z</time>
      </trkpt>
      <trkpt lat="45.86838" lon="5.38386">
        <ele>198.1</ele>
        <time>2022-09-24T15:51:18Z</time>
      </trkpt>
      <trkpt lat="45.86833" lon="5.3839">
        <ele>198.1</ele>
        <time>2022-09-24T15:51:19Z</time>
      </trkpt>
      <trkpt lat="45.86828" lon="5.38395">
        <ele>198.1</ele>
        <time>2022-09-24T15:51:20Z</time>
      </trkpt>
      <trkpt lat="45.86823" lon="5.384">
        <ele>198.1</ele>
        <time>2022-09-24T15:51:21Z</time>
      </trkpt>
      <trkpt lat="45.86818" lon="5.38403">
        <ele>198.1</ele>
        <time>2022-09-24T15:51:22Z</time>
      </trkpt>
      <trkpt lat="45.86814" lon="5.38406">
        <ele>198</ele>
        <time>2022-09-24T15:51:23Z</time>
      </trkpt>
      <trkpt lat="45.86807" lon="5.3841">
        <ele>198</ele>
        <time>2022-09-24T15:51:24Z</time>
      </trkpt>
      <trkpt lat="45.86801" lon="5.38415">
        <ele>198</ele>
        <time>2022-09-24T15:51:25Z</time>
      </trkpt>
      <trkpt lat="45.86795" lon="5.38419">
        <ele>198</ele>
        <time>2022-09-24T15:51:26Z</time>
      </trkpt>
      <trkpt lat="45.86791" lon="5.38421">
        <ele>197.9</ele>
        <time>2022-09-24T15:51:27Z</time>
      </trkpt>
      <trkpt lat="45.86785" lon="5.38425">
        <ele>197.9</ele>
        <time>2022-09-24T15:51:28Z</time>
      </trkpt>
      <trkpt lat="45.8678" lon="5.38429">
        <ele>197.9</ele>
        <time>2022-09-24T15:51:29Z</time>
      </trkpt>
      <trkpt lat="45.86774" lon="5.38432">
        <ele>198</ele>
        <time>2022-09-24T15:51:30Z</time>
      </trkpt>
      <trkpt lat="45.86769" lon="5.38435">
        <ele>198</ele>
        <time>2022-09-24T15:51:31Z</time>
      </trkpt>
      <trkpt lat="45.86764" lon="5.38438">
        <ele>198</ele>
        <time>2022-09-24T15:51:32Z</time>
      </trkpt>
      <trkpt lat="45.86758" lon="5.38441">
        <ele>198</ele>
        <time>2022-09-24T15:51:33Z</time>
      </trkpt>
      <trkpt lat="45.86753" lon="5.38444">
        <ele>198</ele>
        <time>2022-09-24T15:51:34Z</time>
      </trkpt>
      <trkpt lat="45.86748" lon="5.38447">
        <ele>198</ele>
        <time>2022-09-24T15:51:35Z</time>
      </trkpt>
      <trkpt lat="45.86743" lon="5.38451">
        <ele>198</ele>
        <time>2022-09-24T15:51:36Z</time>
      </trkpt>
      <trkpt lat="45.86738" lon="5.38454">
        <ele>198</ele>
        <time>2022-09-24T15:51:37Z</time>
      </trkpt>
      <trkpt lat="45.86733" lon="5.38457">
        <ele>198</ele>
        <time>2022-09-24T15:51:38Z</time>
      </trkpt>
      <trkpt lat="45.86728" lon="5.38461">
        <ele>198</ele>
        <time>2022-09-24T15:51:39Z</time>
      </trkpt>
      <trkpt lat="45.86722" lon="5.38464">
        <ele>198.1</ele>
        <time>2022-09-24T15:51:40Z</time>
      </trkpt>
      <trkpt lat="45.86717" lon="5.38467">
        <ele>198.1</ele>
        <time>2022-09-24T15:51:41Z</time>
      </trkpt>
      <trkpt lat="45.86711" lon="5.3847">
        <ele>198.1</ele>
        <time>2022-09-24T15:51:42Z</time>
      </trkpt>
      <trkpt lat="45.86706" lon="5.38473">
        <ele>198.1</ele>
        <time>2022-09-24T15:51:43Z</time>
      </trkpt>
      <trkpt lat="45.86701" lon="5.38476">
        <ele>198.1</ele>
        <time>2022-09-24T15:51:44Z</time>
      </trkpt>
      <trkpt lat="45.86696" lon="5.3848">
        <ele>198.1</ele>
        <time>2022-09-24T15:51:45Z</time>
      </trkpt>
      <trkpt lat="45.86691" lon="5.38485">
        <ele>198.1</ele>
        <time>2022-09-24T15:51:46Z</time>
      </trkpt>
      <trkpt lat="45.86686" lon="5.3849">
        <ele>198.1</ele>
        <time>2022-09-24T15:51:47Z</time>
      </trkpt>
      <trkpt lat="45.86681" lon="5.38495">
        <ele>198.2</ele>
        <time>2022-09-24T15:51:48Z</time>
      </trkpt>
      <trkpt lat="45.86677" lon="5.385">
        <ele>198.2</ele>
        <time>2022-09-24T15:51:49Z</time>
      </trkpt>
      <trkpt lat="45.86673" lon="5.38505">
        <ele>198.2</ele>
        <time>2022-09-24T15:51:50Z</time>
      </trkpt>
      <trkpt lat="45.86669" lon="5.38509">
        <ele>198.2</ele>
        <time>2022-09-24T15:51:51Z</time>
      </trkpt>
      <trkpt lat="45.86666" lon="5.38515">
        <ele>198.2</ele>
        <time>2022-09-24T15:51:52Z</time>
      </trkpt>
      <trkpt lat="45.86662" lon="5.3852">
        <ele>198.2</ele>
        <time>2022-09-24T15:51:53Z</time>
      </trkpt>
      <trkpt lat="45.86659" lon="5.38524">
        <ele>198.2</ele>
        <time>2022-09-24T15:51:54Z</time>
      </trkpt>
      <trkpt lat="45.86656" lon="5.38529">
        <ele>198.3</ele>
        <time>2022-09-24T15:51:55Z</time>
      </trkpt>
      <trkpt lat="45.86653" lon="5.38535">
        <ele>198.3</ele>
        <time>2022-09-24T15:51:56Z</time>
      </trkpt>
      <trkpt lat="45.86649" lon="5.38541">
        <ele>198.3</ele>
        <time>2022-09-24T15:51:57Z</time>
      </trkpt>
      <trkpt lat="45.86646" lon="5.38547">
        <ele>198.3</ele>
        <time>2022-09-24T15:51:58Z</time>
      </trkpt>
      <trkpt lat="45.86643" lon="5.38554">
        <ele>198.3</ele>
        <time>2022-09-24T15:51:59Z</time>
      </trkpt>
      <trkpt lat="45.86639" lon="5.38561">
        <ele>198.2</ele>
        <time>2022-09-24T15:52:00Z</time>
      </trkpt>
      <trkpt lat="45.86636" lon="5.38569">
        <ele>198.2</ele>
        <time>2022-09-24T15:52:01Z</time>
      </trkpt>
      <trkpt lat="45.86633" lon="5.38576">
        <ele>198.2</ele>
        <time>2022-09-24T15:52:02Z</time>
      </trkpt>
      <trkpt lat="45.8663" lon="5.38583">
        <ele>198.2</ele>
        <time>2022-09-24T15:52:03Z</time>
      </trkpt>
      <trkpt lat="45.86628" lon="5.3859">
        <ele>198.1</ele>
        <time>2022-09-24T15:52:04Z</time>
      </trkpt>
      <trkpt lat="45.86626" lon="5.38597">
        <ele>198.1</ele>
        <time>2022-09-24T15:52:05Z</time>
      </trkpt>
      <trkpt lat="45.86623" lon="5.38604">
        <ele>198.1</ele>
        <time>2022-09-24T15:52:06Z</time>
      </trkpt>
      <trkpt lat="45.86622" lon="5.38609">
        <ele>198.1</ele>
        <time>2022-09-24T15:52:07Z</time>
      </trkpt>
      <trkpt lat="45.86621" lon="5.38616">
        <ele>198.2</ele>
        <time>2022-09-24T15:52:08Z</time>
      </trkpt>
      <trkpt lat="45.86619" lon="5.38622">
        <ele>198.2</ele>
        <time>2022-09-24T15:52:09Z</time>
      </trkpt>
      <trkpt lat="45.8662" lon="5.38627">
        <ele>198.2</ele>
        <time>2022-09-24T15:52:10Z</time>
      </trkpt>
      <trkpt lat="45.86619" lon="5.38632">
        <ele>198.2</ele>
        <time>2022-09-24T15:52:11Z</time>
      </trkpt>
      <trkpt lat="45.86617" lon="5.38638">
        <ele>198.2</ele>
        <time>2022-09-24T15:52:12Z</time>
      </trkpt>
      <trkpt lat="45.86617" lon="5.38646">
        <ele>198.3</ele>
        <time>2022-09-24T15:52:13Z</time>
      </trkpt>
      <trkpt lat="45.86617" lon="5.38651">
        <ele>198.3</ele>
        <time>2022-09-24T15:52:14Z</time>
      </trkpt>
      <trkpt lat="45.86616" lon="5.38657">
        <ele>198.3</ele>
        <time>2022-09-24T15:52:15Z</time>
      </trkpt>
      <trkpt lat="45.86616" lon="5.38661">
        <ele>198.3</ele>
        <time>2022-09-24T15:52:16Z</time>
      </trkpt>
      <trkpt lat="45.86614" lon="5.38669">
        <ele>198.2</ele>
        <time>2022-09-24T15:52:17Z</time>
      </trkpt>
      <trkpt lat="45.86613" lon="5.38677">
        <ele>198.2</ele>
        <time>2022-09-24T15:52:18Z</time>
      </trkpt>
      <trkpt lat="45.86611" lon="5.38685">
        <ele>198.1</ele>
        <time>2022-09-24T15:52:19Z</time>
      </trkpt>
      <trkpt lat="45.86608" lon="5.38694">
        <ele>198.1</ele>
        <time>2022-09-24T15:52:20Z</time>
      </trkpt>
      <trkpt lat="45.86606" lon="5.38701">
        <ele>198</ele>
        <time>2022-09-24T15:52:21Z</time>
      </trkpt>
      <trkpt lat="45.86603" lon="5.3871">
        <ele>198</ele>
        <time>2022-09-24T15:52:22Z</time>
      </trkpt>
      <trkpt lat="45.866" lon="5.38719">
        <ele>198</ele>
        <time>2022-09-24T15:52:23Z</time>
      </trkpt>
      <trkpt lat="45.86596" lon="5.38726">
        <ele>198</ele>
        <time>2022-09-24T15:52:24Z</time>
      </trkpt>
      <trkpt lat="45.86592" lon="5.38734">
        <ele>198.1</ele>
        <time>2022-09-24T15:52:25Z</time>
      </trkpt>
      <trkpt lat="45.86589" lon="5.38742">
        <ele>198.1</ele>
        <time>2022-09-24T15:52:26Z</time>
      </trkpt>
      <trkpt lat="45.86585" lon="5.38749">
        <ele>198.1</ele>
        <time>2022-09-24T15:52:27Z</time>
      </trkpt>
      <trkpt lat="45.86582" lon="5.38756">
        <ele>198.1</ele>
        <time>2022-09-24T15:52:28Z</time>
      </trkpt>
      <trkpt lat="45.86578" lon="5.38765">
        <ele>198.1</ele>
        <time>2022-09-24T15:52:29Z</time>
      </trkpt>
      <trkpt lat="45.86574" lon="5.38772">
        <ele>198.1</ele>
        <time>2022-09-24T15:52:30Z</time>
      </trkpt>
      <trkpt lat="45.8657" lon="5.3878">
        <ele>198.1</ele>
        <time>2022-09-24T15:52:31Z</time>
      </trkpt>
      <trkpt lat="45.86567" lon="5.38786">
        <ele>198.1</ele>
        <time>2022-09-24T15:52:32Z</time>
      </trkpt>
      <trkpt lat="45.86563" lon="5.38793">
        <ele>198.1</ele>
        <time>2022-09-24T15:52:33Z</time>
      </trkpt>
      <trkpt lat="45.86559" lon="5.388">
        <ele>198.1</ele>
        <time>2022-09-24T15:52:34Z</time>
      </trkpt>
      <trkpt lat="45.86556" lon="5.38807">
        <ele>198.1</ele>
        <time>2022-09-24T15:52:35Z</time>
      </trkpt>
      <trkpt lat="45.86552" lon="5.38815">
        <ele>198.1</ele>
        <time>2022-09-24T15:52:36Z</time>
      </trkpt>
      <trkpt lat="45.86549" lon="5.38822">
        <ele>198</ele>
        <time>2022-09-24T15:52:37Z</time>
      </trkpt>
      <trkpt lat="45.86546" lon="5.38829">
        <ele>198</ele>
        <time>2022-09-24T15:52:38Z</time>
      </trkpt>
      <trkpt lat="45.86539" lon="5.38843">
        <ele>198</ele>
        <time>2022-09-24T15:52:39Z</time>
      </trkpt>
      <trkpt lat="45.86537" lon="5.38849">
        <ele>198</ele>
        <time>2022-09-24T15:52:40Z</time>
      </trkpt>
      <trkpt lat="45.86534" lon="5.38858">
        <ele>198</ele>
        <time>2022-09-24T15:52:41Z</time>
      </trkpt>
      <trkpt lat="45.86531" lon="5.38866">
        <ele>198</ele>
        <time>2022-09-24T15:52:42Z</time>
      </trkpt>
      <trkpt lat="45.86529" lon="5.38874">
        <ele>198.1</ele>
        <time>2022-09-24T15:52:43Z</time>
      </trkpt>
      <trkpt lat="45.86528" lon="5.38882">
        <ele>198.1</ele>
        <time>2022-09-24T15:52:44Z</time>
      </trkpt>
      <trkpt lat="45.86526" lon="5.38891">
        <ele>198.1</ele>
        <time>2022-09-24T15:52:45Z</time>
      </trkpt>
      <trkpt lat="45.86524" lon="5.38898">
        <ele>198.1</ele>
        <time>2022-09-24T15:52:46Z</time>
      </trkpt>
      <trkpt lat="45.86523" lon="5.38907">
        <ele>198.1</ele>
        <time>2022-09-24T15:52:47Z</time>
      </trkpt>
      <trkpt lat="45.86522" lon="5.38914">
        <ele>198.2</ele>
        <time>2022-09-24T15:52:48Z</time>
      </trkpt>
      <trkpt lat="45.8652" lon="5.38922">
        <ele>198.2</ele>
        <time>2022-09-24T15:52:49Z</time>
      </trkpt>
      <trkpt lat="45.86517" lon="5.3893">
        <ele>198.3</ele>
        <time>2022-09-24T15:52:50Z</time>
      </trkpt>
      <trkpt lat="45.86515" lon="5.38938">
        <ele>198.4</ele>
        <time>2022-09-24T15:52:51Z</time>
      </trkpt>
      <trkpt lat="45.86514" lon="5.38945">
        <ele>198.4</ele>
        <time>2022-09-24T15:52:52Z</time>
      </trkpt>
      <trkpt lat="45.86511" lon="5.38952">
        <ele>198.5</ele>
        <time>2022-09-24T15:52:53Z</time>
      </trkpt>
      <trkpt lat="45.86509" lon="5.3896">
        <ele>198.5</ele>
        <time>2022-09-24T15:52:54Z</time>
      </trkpt>
      <trkpt lat="45.86506" lon="5.38967">
        <ele>198.6</ele>
        <time>2022-09-24T15:52:55Z</time>
      </trkpt>
      <trkpt lat="45.86503" lon="5.38975">
        <ele>198.6</ele>
        <time>2022-09-24T15:52:56Z</time>
      </trkpt>
      <trkpt lat="45.865" lon="5.38982">
        <ele>198.6</ele>
        <time>2022-09-24T15:52:57Z</time>
      </trkpt>
      <trkpt lat="45.86498" lon="5.38989">
        <ele>198.7</ele>
        <time>2022-09-24T15:52:58Z</time>
      </trkpt>
      <trkpt lat="45.86495" lon="5.38996">
        <ele>198.7</ele>
        <time>2022-09-24T15:52:59Z</time>
      </trkpt>
      <trkpt lat="45.86492" lon="5.39002">
        <ele>198.7</ele>
        <time>2022-09-24T15:53:00Z</time>
      </trkpt>
      <trkpt lat="45.86489" lon="5.39008">
        <ele>198.8</ele>
        <time>2022-09-24T15:53:01Z</time>
      </trkpt>
      <trkpt lat="45.86484" lon="5.39013">
        <ele>198.8</ele>
        <time>2022-09-24T15:53:02Z</time>
      </trkpt>
      <trkpt lat="45.86481" lon="5.39018">
        <ele>198.8</ele>
        <time>2022-09-24T15:53:03Z</time>
      </trkpt>
      <trkpt lat="45.86478" lon="5.39024">
        <ele>198.9</ele>
        <time>2022-09-24T15:53:04Z</time>
      </trkpt>
      <trkpt lat="45.86473" lon="5.39029">
        <ele>198.9</ele>
        <time>2022-09-24T15:53:05Z</time>
      </trkpt>
      <trkpt lat="45.8647" lon="5.39033">
        <ele>198.9</ele>
        <time>2022-09-24T15:53:06Z</time>
      </trkpt>
      <trkpt lat="45.86466" lon="5.39039">
        <ele>198.9</ele>
        <time>2022-09-24T15:53:07Z</time>
      </trkpt>
      <trkpt lat="45.86461" lon="5.39044">
        <ele>198.9</ele>
        <time>2022-09-24T15:53:08Z</time>
      </trkpt>
      <trkpt lat="45.86457" lon="5.39049">
        <ele>198.9</ele>
        <time>2022-09-24T15:53:09Z</time>
      </trkpt>
      <trkpt lat="45.86453" lon="5.39054">
        <ele>199</ele>
        <time>2022-09-24T15:53:10Z</time>
      </trkpt>
      <trkpt lat="45.86449" lon="5.3906">
        <ele>199</ele>
        <time>2022-09-24T15:53:11Z</time>
      </trkpt>
      <trkpt lat="45.86445" lon="5.39065">
        <ele>199</ele>
        <time>2022-09-24T15:53:12Z</time>
      </trkpt>
      <trkpt lat="45.86441" lon="5.3907">
        <ele>199</ele>
        <time>2022-09-24T15:53:13Z</time>
      </trkpt>
      <trkpt lat="45.86437" lon="5.39074">
        <ele>199</ele>
        <time>2022-09-24T15:53:14Z</time>
      </trkpt>
      <trkpt lat="45.86433" lon="5.3908">
        <ele>199</ele>
        <time>2022-09-24T15:53:15Z</time>
      </trkpt>
      <trkpt lat="45.86429" lon="5.39085">
        <ele>199</ele>
        <time>2022-09-24T15:53:16Z</time>
      </trkpt>
      <trkpt lat="45.86425" lon="5.39089">
        <ele>199</ele>
        <time>2022-09-24T15:53:17Z</time>
      </trkpt>
      <trkpt lat="45.86422" lon="5.39094">
        <ele>199.1</ele>
        <time>2022-09-24T15:53:18Z</time>
      </trkpt>
      <trkpt lat="45.86418" lon="5.391">
        <ele>199.1</ele>
        <time>2022-09-24T15:53:19Z</time>
      </trkpt>
      <trkpt lat="45.86415" lon="5.39105">
        <ele>199.1</ele>
        <time>2022-09-24T15:53:20Z</time>
      </trkpt>
      <trkpt lat="45.86412" lon="5.39111">
        <ele>199.1</ele>
        <time>2022-09-24T15:53:21Z</time>
      </trkpt>
      <trkpt lat="45.86409" lon="5.39117">
        <ele>199.1</ele>
        <time>2022-09-24T15:53:22Z</time>
      </trkpt>
      <trkpt lat="45.86406" lon="5.39123">
        <ele>199.1</ele>
        <time>2022-09-24T15:53:23Z</time>
      </trkpt>
      <trkpt lat="45.86404" lon="5.39128">
        <ele>199.1</ele>
        <time>2022-09-24T15:53:24Z</time>
      </trkpt>
      <trkpt lat="45.86401" lon="5.39133">
        <ele>199.1</ele>
        <time>2022-09-24T15:53:25Z</time>
      </trkpt>
      <trkpt lat="45.86399" lon="5.39138">
        <ele>199.1</ele>
        <time>2022-09-24T15:53:26Z</time>
      </trkpt>
      <trkpt lat="45.86397" lon="5.39143">
        <ele>199.1</ele>
        <time>2022-09-24T15:53:27Z</time>
      </trkpt>
      <trkpt lat="45.86395" lon="5.39147">
        <ele>199.1</ele>
        <time>2022-09-24T15:53:28Z</time>
      </trkpt>
      <trkpt lat="45.86393" lon="5.39151">
        <ele>199.1</ele>
        <time>2022-09-24T15:53:29Z</time>
      </trkpt>
      <trkpt lat="45.86393" lon="5.39153">
        <ele>199.1</ele>
        <time>2022-09-24T15:53:30Z</time>
      </trkpt>
      <trkpt lat="45.86392" lon="5.39154">
        <ele>199.1</ele>
        <time>2022-09-24T15:53:31Z</time>
      </trkpt>
      <trkpt lat="45.86392" lon="5.39154">
        <ele>199.1</ele>
        <time>2022-09-24T15:53:32Z</time>
      </trkpt>
      <trkpt lat="45.86392" lon="5.39155">
        <ele>199.1</ele>
        <time>2022-09-24T15:53:33Z</time>
      </trkpt>
      <trkpt lat="45.86392" lon="5.39156">
        <ele>199.1</ele>
        <time>2022-09-24T15:53:34Z</time>
      </trkpt>
      <trkpt lat="45.86391" lon="5.39156">
        <ele>199.1</ele>
        <time>2022-09-24T15:53:35Z</time>
      </trkpt>
      <trkpt lat="45.86391" lon="5.39157">
        <ele>199.1</ele>
        <time>2022-09-24T15:53:36Z</time>
      </trkpt>
      <trkpt lat="45.86391" lon="5.39157">
        <ele>199.1</ele>
        <time>2022-09-24T15:53:37Z</time>
      </trkpt>
      <trkpt lat="45.86391" lon="5.39158">
        <ele>199.1</ele>
        <time>2022-09-24T15:53:38Z</time>
      </trkpt>
      <trkpt lat="45.8639" lon="5.39158">
        <ele>199.1</ele>
        <time>2022-09-24T15:53:39Z</time>
      </trkpt>
      <trkpt lat="45.8639" lon="5.39159">
        <ele>199.1</ele>
        <time>2022-09-24T15:53:40Z</time>
      </trkpt>
      <trkpt lat="45.8639" lon="5.39159">
        <ele>199.1</ele>
        <time>2022-09-24T15:55:14Z</time>
      </trkpt>
      <trkpt lat="45.8639" lon="5.3916">
        <ele>199.1</ele>
        <time>2022-09-24T15:55:15Z</time>
      </trkpt>
      <trkpt lat="45.86389" lon="5.3916">
        <ele>199.1</ele>
        <time>2022-09-24T15:55:16Z</time>
      </trkpt>
      <trkpt lat="45.86389" lon="5.39161">
        <ele>199.1</ele>
        <time>2022-09-24T15:55:17Z</time>
      </trkpt>
      <trkpt lat="45.86389" lon="5.39162">
        <ele>199.1</ele>
        <time>2022-09-24T15:55:18Z</time>
      </trkpt>
      <trkpt lat="45.86389" lon="5.39162">
        <ele>199.1</ele>
        <time>2022-09-24T15:55:19Z</time>
      </trkpt>
      <trkpt lat="45.86388" lon="5.39163">
        <ele>199.1</ele>
        <time>2022-09-24T15:55:20Z</time>
      </trkpt>
      <trkpt lat="45.86388" lon="5.39163">
        <ele>199.1</ele>
        <time>2022-09-24T15:55:21Z</time>
      </trkpt>
      <trkpt lat="45.86388" lon="5.39164">
        <ele>199.1</ele>
        <time>2022-09-24T15:55:22Z</time>
      </trkpt>
      <trkpt lat="45.86387" lon="5.39164">
        <ele>199.1</ele>
        <time>2022-09-24T15:55:23Z</time>
      </trkpt>
      <trkpt lat="45.86387" lon="5.39165">
        <ele>199.1</ele>
        <time>2022-09-24T15:55:24Z</time>
      </trkpt>
      <trkpt lat="45.86387" lon="5.39165">
        <ele>199.1</ele>
        <time>2022-09-24T15:55:25Z</time>
      </trkpt>
      <trkpt lat="45.86387" lon="5.39166">
        <ele>199.1</ele>
        <time>2022-09-24T15:55:26Z</time>
      </trkpt>
      <trkpt lat="45.86386" lon="5.39167">
        <ele>199.1</ele>
        <time>2022-09-24T15:55:27Z</time>
      </trkpt>
      <trkpt lat="45.86384" lon="5.39171">
        <ele>199.1</ele>
        <time>2022-09-24T15:55:28Z</time>
      </trkpt>
      <trkpt lat="45.86381" lon="5.39177">
        <ele>199.1</ele>
        <time>2022-09-24T15:55:29Z</time>
      </trkpt>
      <trkpt lat="45.86379" lon="5.39181">
        <ele>199.1</ele>
        <time>2022-09-24T15:55:30Z</time>
      </trkpt>
      <trkpt lat="45.86377" lon="5.39187">
        <ele>199.1</ele>
        <time>2022-09-24T15:55:31Z</time>
      </trkpt>
      <trkpt lat="45.86374" lon="5.39192">
        <ele>199.1</ele>
        <time>2022-09-24T15:55:32Z</time>
      </trkpt>
      <trkpt lat="45.86371" lon="5.39196">
        <ele>199.2</ele>
        <time>2022-09-24T15:55:33Z</time>
      </trkpt>
      <trkpt lat="45.86368" lon="5.39202">
        <ele>199.2</ele>
        <time>2022-09-24T15:55:34Z</time>
      </trkpt>
      <trkpt lat="45.86365" lon="5.39208">
        <ele>199.2</ele>
        <time>2022-09-24T15:55:35Z</time>
      </trkpt>
      <trkpt lat="45.86362" lon="5.39215">
        <ele>199.2</ele>
        <time>2022-09-24T15:55:36Z</time>
      </trkpt>
      <trkpt lat="45.86358" lon="5.3922">
        <ele>199.2</ele>
        <time>2022-09-24T15:55:37Z</time>
      </trkpt>
      <trkpt lat="45.86355" lon="5.39228">
        <ele>199.2</ele>
        <time>2022-09-24T15:55:38Z</time>
      </trkpt>
      <trkpt lat="45.86351" lon="5.39234">
        <ele>199.2</ele>
        <time>2022-09-24T15:55:39Z</time>
      </trkpt>
      <trkpt lat="45.86348" lon="5.3924">
        <ele>199.2</ele>
        <time>2022-09-24T15:55:40Z</time>
      </trkpt>
      <trkpt lat="45.86345" lon="5.39249">
        <ele>199.2</ele>
        <time>2022-09-24T15:55:41Z</time>
      </trkpt>
      <trkpt lat="45.86343" lon="5.39256">
        <ele>199.3</ele>
        <time>2022-09-24T15:55:42Z</time>
      </trkpt>
      <trkpt lat="45.86339" lon="5.39262">
        <ele>199.3</ele>
        <time>2022-09-24T15:55:43Z</time>
      </trkpt>
      <trkpt lat="45.86336" lon="5.3927">
        <ele>199.3</ele>
        <time>2022-09-24T15:55:44Z</time>
      </trkpt>
      <trkpt lat="45.86332" lon="5.39277">
        <ele>199.3</ele>
        <time>2022-09-24T15:55:45Z</time>
      </trkpt>
      <trkpt lat="45.86329" lon="5.39284">
        <ele>199.2</ele>
        <time>2022-09-24T15:55:46Z</time>
      </trkpt>
      <trkpt lat="45.86326" lon="5.39292">
        <ele>199.2</ele>
        <time>2022-09-24T15:55:47Z</time>
      </trkpt>
      <trkpt lat="45.86322" lon="5.39299">
        <ele>199.2</ele>
        <time>2022-09-24T15:55:48Z</time>
      </trkpt>
      <trkpt lat="45.86319" lon="5.39306">
        <ele>199.2</ele>
        <time>2022-09-24T15:55:49Z</time>
      </trkpt>
      <trkpt lat="45.86316" lon="5.39314">
        <ele>199.2</ele>
        <time>2022-09-24T15:55:50Z</time>
      </trkpt>
      <trkpt lat="45.86313" lon="5.39323">
        <ele>199.2</ele>
        <time>2022-09-24T15:55:51Z</time>
      </trkpt>
      <trkpt lat="45.8631" lon="5.3933">
        <ele>199.2</ele>
        <time>2022-09-24T15:55:52Z</time>
      </trkpt>
      <trkpt lat="45.86307" lon="5.39338">
        <ele>199.2</ele>
        <time>2022-09-24T15:55:53Z</time>
      </trkpt>
      <trkpt lat="45.86304" lon="5.39345">
        <ele>199.2</ele>
        <time>2022-09-24T15:55:54Z</time>
      </trkpt>
      <trkpt lat="45.86301" lon="5.39353">
        <ele>199.2</ele>
        <time>2022-09-24T15:55:55Z</time>
      </trkpt>
      <trkpt lat="45.86299" lon="5.39361">
        <ele>199.2</ele>
        <time>2022-09-24T15:55:56Z</time>
      </trkpt>
      <trkpt lat="45.86296" lon="5.39369">
        <ele>199.3</ele>
        <time>2022-09-24T15:55:57Z</time>
      </trkpt>
      <trkpt lat="45.86293" lon="5.39376">
        <ele>199.3</ele>
        <time>2022-09-24T15:55:58Z</time>
      </trkpt>
      <trkpt lat="45.86291" lon="5.39383">
        <ele>199.3</ele>
        <time>2022-09-24T15:55:59Z</time>
      </trkpt>
      <trkpt lat="45.86289" lon="5.3939">
        <ele>199.4</ele>
        <time>2022-09-24T15:56:00Z</time>
      </trkpt>
      <trkpt lat="45.86287" lon="5.39396">
        <ele>199.4</ele>
        <time>2022-09-24T15:56:01Z</time>
      </trkpt>
      <trkpt lat="45.86286" lon="5.39404">
        <ele>199.4</ele>
        <time>2022-09-24T15:56:02Z</time>
      </trkpt>
      <trkpt lat="45.86283" lon="5.39411">
        <ele>199.5</ele>
        <time>2022-09-24T15:56:03Z</time>
      </trkpt>
      <trkpt lat="45.86282" lon="5.39417">
        <ele>199.5</ele>
        <time>2022-09-24T15:56:04Z</time>
      </trkpt>
      <trkpt lat="45.8628" lon="5.39424">
        <ele>199.5</ele>
        <time>2022-09-24T15:56:05Z</time>
      </trkpt>
      <trkpt lat="45.86279" lon="5.3943">
        <ele>199.5</ele>
        <time>2022-09-24T15:56:06Z</time>
      </trkpt>
      <trkpt lat="45.86276" lon="5.39437">
        <ele>199.5</ele>
        <time>2022-09-24T15:56:07Z</time>
      </trkpt>
      <trkpt lat="45.86274" lon="5.39443">
        <ele>199.5</ele>
        <time>2022-09-24T15:56:08Z</time>
      </trkpt>
      <trkpt lat="45.86271" lon="5.3945">
        <ele>199.6</ele>
        <time>2022-09-24T15:56:09Z</time>
      </trkpt>
      <trkpt lat="45.86268" lon="5.39456">
        <ele>199.6</ele>
        <time>2022-09-24T15:56:10Z</time>
      </trkpt>
      <trkpt lat="45.86265" lon="5.39463">
        <ele>199.6</ele>
        <time>2022-09-24T15:56:11Z</time>
      </trkpt>
      <trkpt lat="45.86263" lon="5.39469">
        <ele>199.6</ele>
        <time>2022-09-24T15:56:12Z</time>
      </trkpt>
      <trkpt lat="45.8626" lon="5.39478">
        <ele>199.6</ele>
        <time>2022-09-24T15:56:13Z</time>
      </trkpt>
      <trkpt lat="45.86257" lon="5.39487">
        <ele>199.5</ele>
        <time>2022-09-24T15:56:14Z</time>
      </trkpt>
      <trkpt lat="45.86252" lon="5.39496">
        <ele>199.5</ele>
        <time>2022-09-24T15:56:15Z</time>
      </trkpt>
      <trkpt lat="45.86249" lon="5.39505">
        <ele>199.4</ele>
        <time>2022-09-24T15:56:16Z</time>
      </trkpt>
      <trkpt lat="45.86245" lon="5.39514">
        <ele>199.4</ele>
        <time>2022-09-24T15:56:17Z</time>
      </trkpt>
      <trkpt lat="45.86241" lon="5.39523">
        <ele>199.4</ele>
        <time>2022-09-24T15:56:18Z</time>
      </trkpt>
      <trkpt lat="45.86238" lon="5.39531">
        <ele>199.4</ele>
        <time>2022-09-24T15:56:19Z</time>
      </trkpt>
      <trkpt lat="45.86234" lon="5.39539">
        <ele>199.4</ele>
        <time>2022-09-24T15:56:20Z</time>
      </trkpt>
      <trkpt lat="45.86231" lon="5.39547">
        <ele>199.4</ele>
        <time>2022-09-24T15:56:21Z</time>
      </trkpt>
      <trkpt lat="45.86228" lon="5.39556">
        <ele>199.4</ele>
        <time>2022-09-24T15:56:22Z</time>
      </trkpt>
      <trkpt lat="45.86225" lon="5.39564">
        <ele>199.4</ele>
        <time>2022-09-24T15:56:24Z</time>
      </trkpt>
      <trkpt lat="45.86223" lon="5.3958">
        <ele>199.5</ele>
        <time>2022-09-24T15:56:25Z</time>
      </trkpt>
      <trkpt lat="45.86223" lon="5.39586">
        <ele>199.5</ele>
        <time>2022-09-24T15:56:26Z</time>
      </trkpt>
      <trkpt lat="45.86221" lon="5.39595">
        <ele>199.5</ele>
        <time>2022-09-24T15:56:28Z</time>
      </trkpt>
      <trkpt lat="45.86219" lon="5.39599">
        <ele>199.5</ele>
        <time>2022-09-24T15:56:29Z</time>
      </trkpt>
      <trkpt lat="45.86215" lon="5.39604">
        <ele>199.5</ele>
        <time>2022-09-24T15:56:30Z</time>
      </trkpt>
      <trkpt lat="45.86207" lon="5.39615">
        <ele>199.6</ele>
        <time>2022-09-24T15:56:31Z</time>
      </trkpt>
      <trkpt lat="45.86203" lon="5.39622">
        <ele>199.6</ele>
        <time>2022-09-24T15:56:32Z</time>
      </trkpt>
      <trkpt lat="45.862" lon="5.39627">
        <ele>199.6</ele>
        <time>2022-09-24T15:56:33Z</time>
      </trkpt>
      <trkpt lat="45.86197" lon="5.39635">
        <ele>199.6</ele>
        <time>2022-09-24T15:56:34Z</time>
      </trkpt>
      <trkpt lat="45.86192" lon="5.39646">
        <ele>199.6</ele>
        <time>2022-09-24T15:56:36Z</time>
      </trkpt>
      <trkpt lat="45.86189" lon="5.39655">
        <ele>199.6</ele>
        <time>2022-09-24T15:56:37Z</time>
      </trkpt>
      <trkpt lat="45.86186" lon="5.39663">
        <ele>199.6</ele>
        <time>2022-09-24T15:56:38Z</time>
      </trkpt>
      <trkpt lat="45.86183" lon="5.3967">
        <ele>199.6</ele>
        <time>2022-09-24T15:56:39Z</time>
      </trkpt>
      <trkpt lat="45.8618" lon="5.39679">
        <ele>199.6</ele>
        <time>2022-09-24T15:56:40Z</time>
      </trkpt>
      <trkpt lat="45.86177" lon="5.39686">
        <ele>199.6</ele>
        <time>2022-09-24T15:56:41Z</time>
      </trkpt>
      <trkpt lat="45.86175" lon="5.39694">
        <ele>199.6</ele>
        <time>2022-09-24T15:56:42Z</time>
      </trkpt>
      <trkpt lat="45.86172" lon="5.39702">
        <ele>199.6</ele>
        <time>2022-09-24T15:56:43Z</time>
      </trkpt>
      <trkpt lat="45.86169" lon="5.3971">
        <ele>199.6</ele>
        <time>2022-09-24T15:56:44Z</time>
      </trkpt>
      <trkpt lat="45.86166" lon="5.39717">
        <ele>199.5</ele>
        <time>2022-09-24T15:56:45Z</time>
      </trkpt>
      <trkpt lat="45.86163" lon="5.39724">
        <ele>199.5</ele>
        <time>2022-09-24T15:56:46Z</time>
      </trkpt>
      <trkpt lat="45.8616" lon="5.39731">
        <ele>199.5</ele>
        <time>2022-09-24T15:56:47Z</time>
      </trkpt>
      <trkpt lat="45.86157" lon="5.39738">
        <ele>199.5</ele>
        <time>2022-09-24T15:56:48Z</time>
      </trkpt>
      <trkpt lat="45.86153" lon="5.39745">
        <ele>199.4</ele>
        <time>2022-09-24T15:56:49Z</time>
      </trkpt>
      <trkpt lat="45.8615" lon="5.39752">
        <ele>199.4</ele>
        <time>2022-09-24T15:56:50Z</time>
      </trkpt>
      <trkpt lat="45.86146" lon="5.39759">
        <ele>199.4</ele>
        <time>2022-09-24T15:56:51Z</time>
      </trkpt>
      <trkpt lat="45.86143" lon="5.39766">
        <ele>199.3</ele>
        <time>2022-09-24T15:56:52Z</time>
      </trkpt>
      <trkpt lat="45.8614" lon="5.39774">
        <ele>199.3</ele>
        <time>2022-09-24T15:56:53Z</time>
      </trkpt>
      <trkpt lat="45.86136" lon="5.39781">
        <ele>199.3</ele>
        <time>2022-09-24T15:56:54Z</time>
      </trkpt>
      <trkpt lat="45.86134" lon="5.39788">
        <ele>199.2</ele>
        <time>2022-09-24T15:56:55Z</time>
      </trkpt>
      <trkpt lat="45.8613" lon="5.39796">
        <ele>199.2</ele>
        <time>2022-09-24T15:56:56Z</time>
      </trkpt>
      <trkpt lat="45.86127" lon="5.39803">
        <ele>199.2</ele>
        <time>2022-09-24T15:56:57Z</time>
      </trkpt>
      <trkpt lat="45.86125" lon="5.3981">
        <ele>199.2</ele>
        <time>2022-09-24T15:56:58Z</time>
      </trkpt>
      <trkpt lat="45.86122" lon="5.39817">
        <ele>199.2</ele>
        <time>2022-09-24T15:56:59Z</time>
      </trkpt>
      <trkpt lat="45.86119" lon="5.39824">
        <ele>199.2</ele>
        <time>2022-09-24T15:57:00Z</time>
      </trkpt>
      <trkpt lat="45.86115" lon="5.39832">
        <ele>199.2</ele>
        <time>2022-09-24T15:57:01Z</time>
      </trkpt>
      <trkpt lat="45.86112" lon="5.39838">
        <ele>199.3</ele>
        <time>2022-09-24T15:57:02Z</time>
      </trkpt>
      <trkpt lat="45.8611" lon="5.39846">
        <ele>199.3</ele>
        <time>2022-09-24T15:57:03Z</time>
      </trkpt>
      <trkpt lat="45.86106" lon="5.39852">
        <ele>199.3</ele>
        <time>2022-09-24T15:57:04Z</time>
      </trkpt>
      <trkpt lat="45.86103" lon="5.39859">
        <ele>199.3</ele>
        <time>2022-09-24T15:57:05Z</time>
      </trkpt>
      <trkpt lat="45.861" lon="5.39866">
        <ele>199.3</ele>
        <time>2022-09-24T15:57:06Z</time>
      </trkpt>
      <trkpt lat="45.86098" lon="5.39873">
        <ele>199.3</ele>
        <time>2022-09-24T15:57:07Z</time>
      </trkpt>
      <trkpt lat="45.86096" lon="5.39878">
        <ele>199.3</ele>
        <time>2022-09-24T15:57:08Z</time>
      </trkpt>
      <trkpt lat="45.86094" lon="5.39883">
        <ele>199.4</ele>
        <time>2022-09-24T15:57:09Z</time>
      </trkpt>
      <trkpt lat="45.86093" lon="5.39887">
        <ele>199.4</ele>
        <time>2022-09-24T15:57:10Z</time>
      </trkpt>
      <trkpt lat="45.86092" lon="5.39888">
        <ele>199.4</ele>
        <time>2022-09-24T15:57:11Z</time>
      </trkpt>
      <trkpt lat="45.86091" lon="5.39889">
        <ele>199.4</ele>
        <time>2022-09-24T15:57:12Z</time>
      </trkpt>
      <trkpt lat="45.86091" lon="5.3989">
        <ele>199.4</ele>
        <time>2022-09-24T15:57:13Z</time>
      </trkpt>
      <trkpt lat="45.86091" lon="5.3989">
        <ele>199.4</ele>
        <time>2022-09-24T15:57:14Z</time>
      </trkpt>
      <trkpt lat="45.86091" lon="5.3989">
        <ele>199.4</ele>
        <time>2022-09-24T15:57:15Z</time>
      </trkpt>
      <trkpt lat="45.86091" lon="5.3989">
        <ele>199.4</ele>
        <time>2022-09-24T15:57:16Z</time>
      </trkpt>
      <trkpt lat="45.86091" lon="5.3989">
        <ele>199.4</ele>
        <time>2022-09-24T15:57:17Z</time>
      </trkpt>
      <trkpt lat="45.8609" lon="5.39891">
        <ele>199.4</ele>
        <time>2022-09-24T15:57:18Z</time>
      </trkpt>
      <trkpt lat="45.8609" lon="5.39892">
        <ele>199.4</ele>
        <time>2022-09-24T15:57:19Z</time>
      </trkpt>
      <trkpt lat="45.8609" lon="5.39894">
        <ele>199.4</ele>
        <time>2022-09-24T15:57:20Z</time>
      </trkpt>
      <trkpt lat="45.86089" lon="5.39895">
        <ele>199.4</ele>
        <time>2022-09-24T15:57:21Z</time>
      </trkpt>
      <trkpt lat="45.86089" lon="5.39896">
        <ele>199.4</ele>
        <time>2022-09-24T15:57:22Z</time>
      </trkpt>
      <trkpt lat="45.86088" lon="5.39897">
        <ele>199.4</ele>
        <time>2022-09-24T15:58:10Z</time>
      </trkpt>
      <trkpt lat="45.86088" lon="5.39898">
        <ele>199.3</ele>
        <time>2022-09-24T15:58:11Z</time>
      </trkpt>
      <trkpt lat="45.86088" lon="5.399">
        <ele>199.3</ele>
        <time>2022-09-24T15:58:12Z</time>
      </trkpt>
      <trkpt lat="45.86087" lon="5.39901">
        <ele>199.3</ele>
        <time>2022-09-24T15:58:13Z</time>
      </trkpt>
      <trkpt lat="45.86086" lon="5.39905">
        <ele>199.3</ele>
        <time>2022-09-24T15:58:14Z</time>
      </trkpt>
      <trkpt lat="45.86085" lon="5.39906">
        <ele>199.2</ele>
        <time>2022-09-24T15:58:15Z</time>
      </trkpt>
      <trkpt lat="45.86082" lon="5.3991">
        <ele>199.2</ele>
        <time>2022-09-24T15:58:16Z</time>
      </trkpt>
      <trkpt lat="45.86081" lon="5.39915">
        <ele>199.1</ele>
        <time>2022-09-24T15:58:17Z</time>
      </trkpt>
      <trkpt lat="45.8608" lon="5.39918">
        <ele>199.1</ele>
        <time>2022-09-24T15:58:18Z</time>
      </trkpt>
      <trkpt lat="45.86079" lon="5.39921">
        <ele>199</ele>
        <time>2022-09-24T15:58:19Z</time>
      </trkpt>
      <trkpt lat="45.86078" lon="5.39925">
        <ele>199</ele>
        <time>2022-09-24T15:58:20Z</time>
      </trkpt>
      <trkpt lat="45.86075" lon="5.39931">
        <ele>198.9</ele>
        <time>2022-09-24T15:58:21Z</time>
      </trkpt>
      <trkpt lat="45.86073" lon="5.39936">
        <ele>198.8</ele>
        <time>2022-09-24T15:58:22Z</time>
      </trkpt>
      <trkpt lat="45.86071" lon="5.39941">
        <ele>198.8</ele>
        <time>2022-09-24T15:58:23Z</time>
      </trkpt>
      <trkpt lat="45.86069" lon="5.39947">
        <ele>198.7</ele>
        <time>2022-09-24T15:58:24Z</time>
      </trkpt>
      <trkpt lat="45.86067" lon="5.39951">
        <ele>198.6</ele>
        <time>2022-09-24T15:58:25Z</time>
      </trkpt>
      <trkpt lat="45.86065" lon="5.39956">
        <ele>198.5</ele>
        <time>2022-09-24T15:58:26Z</time>
      </trkpt>
      <trkpt lat="45.86064" lon="5.39961">
        <ele>198.4</ele>
        <time>2022-09-24T15:58:28Z</time>
      </trkpt>
      <trkpt lat="45.86058" lon="5.39972">
        <ele>198.2</ele>
        <time>2022-09-24T15:58:29Z</time>
      </trkpt>
      <trkpt lat="45.86056" lon="5.39979">
        <ele>198.1</ele>
        <time>2022-09-24T15:58:30Z</time>
      </trkpt>
      <trkpt lat="45.86054" lon="5.39985">
        <ele>198.1</ele>
        <time>2022-09-24T15:58:31Z</time>
      </trkpt>
      <trkpt lat="45.86051" lon="5.39991">
        <ele>198</ele>
        <time>2022-09-24T15:58:32Z</time>
      </trkpt>
      <trkpt lat="45.86049" lon="5.39998">
        <ele>197.9</ele>
        <time>2022-09-24T15:58:33Z</time>
      </trkpt>
      <trkpt lat="45.86046" lon="5.40004">
        <ele>197.8</ele>
        <time>2022-09-24T15:58:34Z</time>
      </trkpt>
      <trkpt lat="45.86043" lon="5.40011">
        <ele>197.7</ele>
        <time>2022-09-24T15:58:36Z</time>
      </trkpt>
      <trkpt lat="45.86038" lon="5.40023">
        <ele>197.6</ele>
        <time>2022-09-24T15:58:37Z</time>
      </trkpt>
      <trkpt lat="45.86035" lon="5.40029">
        <ele>197.6</ele>
        <time>2022-09-24T15:58:38Z</time>
      </trkpt>
      <trkpt lat="45.86033" lon="5.40034">
        <ele>197.6</ele>
        <time>2022-09-24T15:58:39Z</time>
      </trkpt>
      <trkpt lat="45.8603" lon="5.40039">
        <ele>197.5</ele>
        <time>2022-09-24T15:58:40Z</time>
      </trkpt>
      <trkpt lat="45.86027" lon="5.40045">
        <ele>197.5</ele>
        <time>2022-09-24T15:58:41Z</time>
      </trkpt>
      <trkpt lat="45.86025" lon="5.40051">
        <ele>197.5</ele>
        <time>2022-09-24T15:58:42Z</time>
      </trkpt>
      <trkpt lat="45.86023" lon="5.40056">
        <ele>197.5</ele>
        <time>2022-09-24T15:58:43Z</time>
      </trkpt>
      <trkpt lat="45.8602" lon="5.40062">
        <ele>197.5</ele>
        <time>2022-09-24T15:58:44Z</time>
      </trkpt>
      <trkpt lat="45.86017" lon="5.40067">
        <ele>197.5</ele>
        <time>2022-09-24T15:58:45Z</time>
      </trkpt>
      <trkpt lat="45.86016" lon="5.40073">
        <ele>197.5</ele>
        <time>2022-09-24T15:58:46Z</time>
      </trkpt>
      <trkpt lat="45.86013" lon="5.40078">
        <ele>197.5</ele>
        <time>2022-09-24T15:58:47Z</time>
      </trkpt>
      <trkpt lat="45.8601" lon="5.40083">
        <ele>197.5</ele>
        <time>2022-09-24T15:58:48Z</time>
      </trkpt>
      <trkpt lat="45.86008" lon="5.40088">
        <ele>197.5</ele>
        <time>2022-09-24T15:58:49Z</time>
      </trkpt>
      <trkpt lat="45.86005" lon="5.40094">
        <ele>197.5</ele>
        <time>2022-09-24T15:58:50Z</time>
      </trkpt>
      <trkpt lat="45.86002" lon="5.40099">
        <ele>197.5</ele>
        <time>2022-09-24T15:58:51Z</time>
      </trkpt>
      <trkpt lat="45.85999" lon="5.40104">
        <ele>197.5</ele>
        <time>2022-09-24T15:58:52Z</time>
      </trkpt>
      <trkpt lat="45.85996" lon="5.40109">
        <ele>197.5</ele>
        <time>2022-09-24T15:58:53Z</time>
      </trkpt>
      <trkpt lat="45.85993" lon="5.40115">
        <ele>197.5</ele>
        <time>2022-09-24T15:58:54Z</time>
      </trkpt>
      <trkpt lat="45.8599" lon="5.4012">
        <ele>197.5</ele>
        <time>2022-09-24T15:58:55Z</time>
      </trkpt>
      <trkpt lat="45.85987" lon="5.40125">
        <ele>197.5</ele>
        <time>2022-09-24T15:58:56Z</time>
      </trkpt>
      <trkpt lat="45.85984" lon="5.40131">
        <ele>197.5</ele>
        <time>2022-09-24T15:58:57Z</time>
      </trkpt>
      <trkpt lat="45.85981" lon="5.40136">
        <ele>197.5</ele>
        <time>2022-09-24T15:58:58Z</time>
      </trkpt>
      <trkpt lat="45.85978" lon="5.40141">
        <ele>197.5</ele>
        <time>2022-09-24T15:58:59Z</time>
      </trkpt>
      <trkpt lat="45.85975" lon="5.40146">
        <ele>197.5</ele>
        <time>2022-09-24T15:59:00Z</time>
      </trkpt>
      <trkpt lat="45.85972" lon="5.40151">
        <ele>197.5</ele>
        <time>2022-09-24T15:59:01Z</time>
      </trkpt>
      <trkpt lat="45.85968" lon="5.40156">
        <ele>197.5</ele>
        <time>2022-09-24T15:59:02Z</time>
      </trkpt>
      <trkpt lat="45.85966" lon="5.40161">
        <ele>197.5</ele>
        <time>2022-09-24T15:59:03Z</time>
      </trkpt>
      <trkpt lat="45.85963" lon="5.40166">
        <ele>197.5</ele>
        <time>2022-09-24T15:59:04Z</time>
      </trkpt>
      <trkpt lat="45.85958" lon="5.40171">
        <ele>197.5</ele>
        <time>2022-09-24T15:59:05Z</time>
      </trkpt>
      <trkpt lat="45.85957" lon="5.40175">
        <ele>197.5</ele>
        <time>2022-09-24T15:59:06Z</time>
      </trkpt>
      <trkpt lat="45.85954" lon="5.40179">
        <ele>197.5</ele>
        <time>2022-09-24T15:59:07Z</time>
      </trkpt>
      <trkpt lat="45.85951" lon="5.40182">
        <ele>197.5</ele>
        <time>2022-09-24T15:59:08Z</time>
      </trkpt>
      <trkpt lat="45.85948" lon="5.40188">
        <ele>197.5</ele>
        <time>2022-09-24T15:59:09Z</time>
      </trkpt>
      <trkpt lat="45.85945" lon="5.40192">
        <ele>197.5</ele>
        <time>2022-09-24T15:59:10Z</time>
      </trkpt>
      <trkpt lat="45.85942" lon="5.40196">
        <ele>197.5</ele>
        <time>2022-09-24T15:59:11Z</time>
      </trkpt>
      <trkpt lat="45.8594" lon="5.402">
        <ele>197.5</ele>
        <time>2022-09-24T15:59:12Z</time>
      </trkpt>
      <trkpt lat="45.85937" lon="5.40204">
        <ele>197.5</ele>
        <time>2022-09-24T15:59:13Z</time>
      </trkpt>
      <trkpt lat="45.85934" lon="5.40209">
        <ele>197.5</ele>
        <time>2022-09-24T15:59:14Z</time>
      </trkpt>
      <trkpt lat="45.8593" lon="5.40214">
        <ele>197.5</ele>
        <time>2022-09-24T15:59:15Z</time>
      </trkpt>
      <trkpt lat="45.85927" lon="5.40219">
        <ele>197.5</ele>
        <time>2022-09-24T15:59:16Z</time>
      </trkpt>
      <trkpt lat="45.85925" lon="5.40221">
        <ele>197.6</ele>
        <time>2022-09-24T15:59:17Z</time>
      </trkpt>
      <trkpt lat="45.85923" lon="5.40226">
        <ele>197.6</ele>
        <time>2022-09-24T15:59:18Z</time>
      </trkpt>
      <trkpt lat="45.85919" lon="5.4023">
        <ele>197.6</ele>
        <time>2022-09-24T15:59:19Z</time>
      </trkpt>
      <trkpt lat="45.85916" lon="5.40235">
        <ele>197.6</ele>
        <time>2022-09-24T15:59:20Z</time>
      </trkpt>
      <trkpt lat="45.85912" lon="5.40239">
        <ele>197.6</ele>
        <time>2022-09-24T15:59:21Z</time>
      </trkpt>
      <trkpt lat="45.8591" lon="5.40243">
        <ele>197.6</ele>
        <time>2022-09-24T15:59:22Z</time>
      </trkpt>
      <trkpt lat="45.85906" lon="5.40249">
        <ele>197.7</ele>
        <time>2022-09-24T15:59:23Z</time>
      </trkpt>
      <trkpt lat="45.85903" lon="5.40254">
        <ele>197.7</ele>
        <time>2022-09-24T15:59:24Z</time>
      </trkpt>
      <trkpt lat="45.85899" lon="5.40259">
        <ele>197.7</ele>
        <time>2022-09-24T15:59:25Z</time>
      </trkpt>
      <trkpt lat="45.85895" lon="5.40264">
        <ele>197.7</ele>
        <time>2022-09-24T15:59:26Z</time>
      </trkpt>
      <trkpt lat="45.85892" lon="5.40269">
        <ele>197.7</ele>
        <time>2022-09-24T15:59:27Z</time>
      </trkpt>
      <trkpt lat="45.85889" lon="5.40273">
        <ele>197.7</ele>
        <time>2022-09-24T15:59:28Z</time>
      </trkpt>
      <trkpt lat="45.85886" lon="5.40278">
        <ele>197.7</ele>
        <time>2022-09-24T15:59:29Z</time>
      </trkpt>
      <trkpt lat="45.85882" lon="5.40284">
        <ele>197.7</ele>
        <time>2022-09-24T15:59:30Z</time>
      </trkpt>
      <trkpt lat="45.85879" lon="5.40288">
        <ele>197.7</ele>
        <time>2022-09-24T15:59:31Z</time>
      </trkpt>
      <trkpt lat="45.85875" lon="5.40293">
        <ele>197.7</ele>
        <time>2022-09-24T15:59:32Z</time>
      </trkpt>
      <trkpt lat="45.85871" lon="5.40298">
        <ele>197.7</ele>
        <time>2022-09-24T15:59:33Z</time>
      </trkpt>
      <trkpt lat="45.85868" lon="5.40303">
        <ele>197.7</ele>
        <time>2022-09-24T15:59:34Z</time>
      </trkpt>
      <trkpt lat="45.85864" lon="5.40308">
        <ele>197.7</ele>
        <time>2022-09-24T15:59:35Z</time>
      </trkpt>
      <trkpt lat="45.85861" lon="5.40313">
        <ele>197.7</ele>
        <time>2022-09-24T15:59:36Z</time>
      </trkpt>
      <trkpt lat="45.85858" lon="5.40317">
        <ele>197.7</ele>
        <time>2022-09-24T15:59:37Z</time>
      </trkpt>
      <trkpt lat="45.85854" lon="5.40323">
        <ele>197.7</ele>
        <time>2022-09-24T15:59:38Z</time>
      </trkpt>
      <trkpt lat="45.85851" lon="5.40327">
        <ele>197.7</ele>
        <time>2022-09-24T15:59:39Z</time>
      </trkpt>
      <trkpt lat="45.85848" lon="5.40331">
        <ele>197.7</ele>
        <time>2022-09-24T15:59:40Z</time>
      </trkpt>
      <trkpt lat="45.85845" lon="5.40336">
        <ele>197.7</ele>
        <time>2022-09-24T15:59:41Z</time>
      </trkpt>
      <trkpt lat="45.85842" lon="5.40341">
        <ele>197.7</ele>
        <time>2022-09-24T15:59:42Z</time>
      </trkpt>
      <trkpt lat="45.85839" lon="5.40345">
        <ele>197.7</ele>
        <time>2022-09-24T15:59:43Z</time>
      </trkpt>
      <trkpt lat="45.85835" lon="5.4035">
        <ele>197.7</ele>
        <time>2022-09-24T15:59:44Z</time>
      </trkpt>
      <trkpt lat="45.85832" lon="5.40355">
        <ele>197.7</ele>
        <time>2022-09-24T15:59:45Z</time>
      </trkpt>
      <trkpt lat="45.85829" lon="5.4036">
        <ele>197.7</ele>
        <time>2022-09-24T15:59:46Z</time>
      </trkpt>
      <trkpt lat="45.85825" lon="5.40365">
        <ele>197.7</ele>
        <time>2022-09-24T15:59:47Z</time>
      </trkpt>
      <trkpt lat="45.85822" lon="5.4037">
        <ele>197.7</ele>
        <time>2022-09-24T15:59:48Z</time>
      </trkpt>
      <trkpt lat="45.85819" lon="5.40375">
        <ele>197.7</ele>
        <time>2022-09-24T15:59:49Z</time>
      </trkpt>
      <trkpt lat="45.85815" lon="5.40379">
        <ele>197.7</ele>
        <time>2022-09-24T15:59:50Z</time>
      </trkpt>
      <trkpt lat="45.85812" lon="5.40384">
        <ele>197.7</ele>
        <time>2022-09-24T15:59:51Z</time>
      </trkpt>
      <trkpt lat="45.85808" lon="5.40389">
        <ele>197.7</ele>
        <time>2022-09-24T15:59:52Z</time>
      </trkpt>
      <trkpt lat="45.85805" lon="5.40394">
        <ele>197.8</ele>
        <time>2022-09-24T15:59:53Z</time>
      </trkpt>
      <trkpt lat="45.85801" lon="5.40399">
        <ele>197.8</ele>
        <time>2022-09-24T15:59:54Z</time>
      </trkpt>
      <trkpt lat="45.85798" lon="5.40404">
        <ele>197.8</ele>
        <time>2022-09-24T15:59:55Z</time>
      </trkpt>
      <trkpt lat="45.85795" lon="5.40408">
        <ele>197.8</ele>
        <time>2022-09-24T15:59:56Z</time>
      </trkpt>
      <trkpt lat="45.85793" lon="5.40413">
        <ele>197.8</ele>
        <time>2022-09-24T15:59:57Z</time>
      </trkpt>
      <trkpt lat="45.85789" lon="5.40418">
        <ele>197.8</ele>
        <time>2022-09-24T15:59:58Z</time>
      </trkpt>
      <trkpt lat="45.85785" lon="5.40423">
        <ele>197.8</ele>
        <time>2022-09-24T15:59:59Z</time>
      </trkpt>
      <trkpt lat="45.85782" lon="5.40428">
        <ele>197.8</ele>
        <time>2022-09-24T16:00:00Z</time>
      </trkpt>
      <trkpt lat="45.85779" lon="5.40433">
        <ele>197.8</ele>
        <time>2022-09-24T16:00:01Z</time>
      </trkpt>
      <trkpt lat="45.85775" lon="5.40437">
        <ele>197.8</ele>
        <time>2022-09-24T16:00:02Z</time>
      </trkpt>
      <trkpt lat="45.85772" lon="5.40442">
        <ele>197.8</ele>
        <time>2022-09-24T16:00:03Z</time>
      </trkpt>
      <trkpt lat="45.85769" lon="5.40447">
        <ele>197.8</ele>
        <time>2022-09-24T16:00:04Z</time>
      </trkpt>
      <trkpt lat="45.85766" lon="5.40451">
        <ele>197.8</ele>
        <time>2022-09-24T16:00:05Z</time>
      </trkpt>
      <trkpt lat="45.85762" lon="5.40456">
        <ele>197.8</ele>
        <time>2022-09-24T16:00:06Z</time>
      </trkpt>
      <trkpt lat="45.85759" lon="5.40461">
        <ele>197.8</ele>
        <time>2022-09-24T16:00:07Z</time>
      </trkpt>
      <trkpt lat="45.85756" lon="5.40466">
        <ele>197.9</ele>
        <time>2022-09-24T16:00:08Z</time>
      </trkpt>
      <trkpt lat="45.85752" lon="5.4047">
        <ele>197.9</ele>
        <time>2022-09-24T16:00:09Z</time>
      </trkpt>
      <trkpt lat="45.85749" lon="5.40475">
        <ele>197.9</ele>
        <time>2022-09-24T16:00:10Z</time>
      </trkpt>
      <trkpt lat="45.85746" lon="5.4048">
        <ele>197.9</ele>
        <time>2022-09-24T16:00:11Z</time>
      </trkpt>
      <trkpt lat="45.85743" lon="5.40485">
        <ele>197.9</ele>
        <time>2022-09-24T16:00:12Z</time>
      </trkpt>
      <trkpt lat="45.8574" lon="5.4049">
        <ele>197.9</ele>
        <time>2022-09-24T16:00:13Z</time>
      </trkpt>
      <trkpt lat="45.85736" lon="5.40495">
        <ele>198</ele>
        <time>2022-09-24T16:00:14Z</time>
      </trkpt>
      <trkpt lat="45.85733" lon="5.40499">
        <ele>198</ele>
        <time>2022-09-24T16:00:15Z</time>
      </trkpt>
      <trkpt lat="45.8573" lon="5.40504">
        <ele>198</ele>
        <time>2022-09-24T16:00:16Z</time>
      </trkpt>
      <trkpt lat="45.85727" lon="5.40509">
        <ele>198</ele>
        <time>2022-09-24T16:00:17Z</time>
      </trkpt>
      <trkpt lat="45.85723" lon="5.40513">
        <ele>198</ele>
        <time>2022-09-24T16:00:18Z</time>
      </trkpt>
      <trkpt lat="45.8572" lon="5.40518">
        <ele>198</ele>
        <time>2022-09-24T16:00:19Z</time>
      </trkpt>
      <trkpt lat="45.85717" lon="5.40522">
        <ele>198</ele>
        <time>2022-09-24T16:00:20Z</time>
      </trkpt>
      <trkpt lat="45.85714" lon="5.40527">
        <ele>198</ele>
        <time>2022-09-24T16:00:21Z</time>
      </trkpt>
      <trkpt lat="45.85711" lon="5.40531">
        <ele>198.1</ele>
        <time>2022-09-24T16:00:22Z</time>
      </trkpt>
      <trkpt lat="45.85708" lon="5.40536">
        <ele>198.1</ele>
        <time>2022-09-24T16:00:23Z</time>
      </trkpt>
      <trkpt lat="45.85705" lon="5.4054">
        <ele>198.1</ele>
        <time>2022-09-24T16:00:24Z</time>
      </trkpt>
      <trkpt lat="45.85701" lon="5.40545">
        <ele>198.1</ele>
        <time>2022-09-24T16:00:25Z</time>
      </trkpt>
      <trkpt lat="45.85699" lon="5.40551">
        <ele>198.1</ele>
        <time>2022-09-24T16:00:26Z</time>
      </trkpt>
      <trkpt lat="45.85695" lon="5.40554">
        <ele>198.1</ele>
        <time>2022-09-24T16:00:27Z</time>
      </trkpt>
      <trkpt lat="45.85692" lon="5.40559">
        <ele>198.1</ele>
        <time>2022-09-24T16:00:28Z</time>
      </trkpt>
      <trkpt lat="45.85689" lon="5.40563">
        <ele>198.1</ele>
        <time>2022-09-24T16:00:29Z</time>
      </trkpt>
      <trkpt lat="45.85686" lon="5.40568">
        <ele>198.1</ele>
        <time>2022-09-24T16:00:30Z</time>
      </trkpt>
      <trkpt lat="45.85683" lon="5.40573">
        <ele>198.1</ele>
        <time>2022-09-24T16:00:31Z</time>
      </trkpt>
      <trkpt lat="45.8568" lon="5.40577">
        <ele>198.1</ele>
        <time>2022-09-24T16:00:32Z</time>
      </trkpt>
      <trkpt lat="45.85676" lon="5.40581">
        <ele>198.2</ele>
        <time>2022-09-24T16:00:34Z</time>
      </trkpt>
      <trkpt lat="45.85673" lon="5.40586">
        <ele>198.2</ele>
        <time>2022-09-24T16:00:35Z</time>
      </trkpt>
      <trkpt lat="45.85669" lon="5.40591">
        <ele>198.2</ele>
        <time>2022-09-24T16:00:36Z</time>
      </trkpt>
      <trkpt lat="45.85666" lon="5.40595">
        <ele>198.2</ele>
        <time>2022-09-24T16:00:37Z</time>
      </trkpt>
      <trkpt lat="45.85664" lon="5.40598">
        <ele>198.2</ele>
        <time>2022-09-24T16:00:38Z</time>
      </trkpt>
      <trkpt lat="45.85657" lon="5.40605">
        <ele>198.2</ele>
        <time>2022-09-24T16:00:39Z</time>
      </trkpt>
      <trkpt lat="45.85654" lon="5.4061">
        <ele>198.2</ele>
        <time>2022-09-24T16:00:40Z</time>
      </trkpt>
      <trkpt lat="45.85651" lon="5.40615">
        <ele>198.2</ele>
        <time>2022-09-24T16:00:42Z</time>
      </trkpt>
      <trkpt lat="45.85646" lon="5.40624">
        <ele>198.3</ele>
        <time>2022-09-24T16:00:43Z</time>
      </trkpt>
      <trkpt lat="45.85642" lon="5.40627">
        <ele>198.3</ele>
        <time>2022-09-24T16:00:44Z</time>
      </trkpt>
      <trkpt lat="45.85639" lon="5.40631">
        <ele>198.3</ele>
        <time>2022-09-24T16:00:45Z</time>
      </trkpt>
      <trkpt lat="45.85636" lon="5.40635">
        <ele>198.3</ele>
        <time>2022-09-24T16:00:46Z</time>
      </trkpt>
      <trkpt lat="45.85634" lon="5.4064">
        <ele>198.3</ele>
        <time>2022-09-24T16:00:47Z</time>
      </trkpt>
      <trkpt lat="45.85633" lon="5.40646">
        <ele>198.3</ele>
        <time>2022-09-24T16:00:48Z</time>
      </trkpt>
      <trkpt lat="45.85628" lon="5.40649">
        <ele>198.3</ele>
        <time>2022-09-24T16:00:49Z</time>
      </trkpt>
      <trkpt lat="45.85626" lon="5.40655">
        <ele>198.3</ele>
        <time>2022-09-24T16:00:50Z</time>
      </trkpt>
      <trkpt lat="45.85623" lon="5.40659">
        <ele>198.3</ele>
        <time>2022-09-24T16:00:51Z</time>
      </trkpt>
      <trkpt lat="45.8562" lon="5.40662">
        <ele>198.3</ele>
        <time>2022-09-24T16:00:52Z</time>
      </trkpt>
      <trkpt lat="45.85617" lon="5.40667">
        <ele>198.3</ele>
        <time>2022-09-24T16:00:53Z</time>
      </trkpt>
      <trkpt lat="45.85614" lon="5.40673">
        <ele>198.3</ele>
        <time>2022-09-24T16:00:54Z</time>
      </trkpt>
      <trkpt lat="45.85612" lon="5.40677">
        <ele>198.3</ele>
        <time>2022-09-24T16:00:55Z</time>
      </trkpt>
      <trkpt lat="45.85608" lon="5.4068">
        <ele>198.3</ele>
        <time>2022-09-24T16:00:56Z</time>
      </trkpt>
      <trkpt lat="45.85604" lon="5.40684">
        <ele>198.4</ele>
        <time>2022-09-24T16:00:57Z</time>
      </trkpt>
      <trkpt lat="45.85603" lon="5.40689">
        <ele>198.4</ele>
        <time>2022-09-24T16:00:58Z</time>
      </trkpt>
      <trkpt lat="45.85599" lon="5.40694">
        <ele>198.4</ele>
        <time>2022-09-24T16:00:59Z</time>
      </trkpt>
      <trkpt lat="45.85596" lon="5.40698">
        <ele>198.4</ele>
        <time>2022-09-24T16:01:00Z</time>
      </trkpt>
      <trkpt lat="45.85593" lon="5.40702">
        <ele>198.4</ele>
        <time>2022-09-24T16:01:01Z</time>
      </trkpt>
      <trkpt lat="45.8559" lon="5.40705">
        <ele>198.5</ele>
        <time>2022-09-24T16:01:02Z</time>
      </trkpt>
      <trkpt lat="45.85587" lon="5.40708">
        <ele>198.5</ele>
        <time>2022-09-24T16:01:03Z</time>
      </trkpt>
      <trkpt lat="45.85585" lon="5.40711">
        <ele>198.5</ele>
        <time>2022-09-24T16:01:04Z</time>
      </trkpt>
      <trkpt lat="45.85582" lon="5.40715">
        <ele>198.5</ele>
        <time>2022-09-24T16:01:05Z</time>
      </trkpt>
      <trkpt lat="45.85579" lon="5.40719">
        <ele>198.5</ele>
        <time>2022-09-24T16:01:06Z</time>
      </trkpt>
      <trkpt lat="45.85576" lon="5.40725">
        <ele>198.5</ele>
        <time>2022-09-24T16:01:07Z</time>
      </trkpt>
      <trkpt lat="45.85574" lon="5.40729">
        <ele>198.5</ele>
        <time>2022-09-24T16:01:08Z</time>
      </trkpt>
      <trkpt lat="45.85571" lon="5.40734">
        <ele>198.5</ele>
        <time>2022-09-24T16:01:09Z</time>
      </trkpt>
      <trkpt lat="45.85568" lon="5.40739">
        <ele>198.5</ele>
        <time>2022-09-24T16:01:10Z</time>
      </trkpt>
      <trkpt lat="45.85563" lon="5.40742">
        <ele>198.5</ele>
        <time>2022-09-24T16:01:11Z</time>
      </trkpt>
      <trkpt lat="45.8556" lon="5.40748">
        <ele>198.4</ele>
        <time>2022-09-24T16:01:12Z</time>
      </trkpt>
      <trkpt lat="45.85555" lon="5.40752">
        <ele>198.4</ele>
        <time>2022-09-24T16:01:13Z</time>
      </trkpt>
      <trkpt lat="45.85551" lon="5.40755">
        <ele>198.4</ele>
        <time>2022-09-24T16:01:14Z</time>
      </trkpt>
      <trkpt lat="45.85548" lon="5.4076">
        <ele>198.4</ele>
        <time>2022-09-24T16:01:15Z</time>
      </trkpt>
      <trkpt lat="45.85545" lon="5.40765">
        <ele>198.4</ele>
        <time>2022-09-24T16:01:16Z</time>
      </trkpt>
      <trkpt lat="45.85541" lon="5.40769">
        <ele>198.4</ele>
        <time>2022-09-24T16:01:17Z</time>
      </trkpt>
      <trkpt lat="45.85537" lon="5.40773">
        <ele>198.3</ele>
        <time>2022-09-24T16:01:18Z</time>
      </trkpt>
      <trkpt lat="45.85534" lon="5.40778">
        <ele>198.3</ele>
        <time>2022-09-24T16:01:19Z</time>
      </trkpt>
      <trkpt lat="45.8553" lon="5.40782">
        <ele>198.4</ele>
        <time>2022-09-24T16:01:20Z</time>
      </trkpt>
      <trkpt lat="45.85526" lon="5.40786">
        <ele>198.4</ele>
        <time>2022-09-24T16:01:21Z</time>
      </trkpt>
      <trkpt lat="45.85522" lon="5.4079">
        <ele>198.4</ele>
        <time>2022-09-24T16:01:22Z</time>
      </trkpt>
      <trkpt lat="45.85519" lon="5.40794">
        <ele>198.5</ele>
        <time>2022-09-24T16:01:23Z</time>
      </trkpt>
      <trkpt lat="45.85515" lon="5.40798">
        <ele>198.5</ele>
        <time>2022-09-24T16:01:24Z</time>
      </trkpt>
      <trkpt lat="45.85512" lon="5.40803">
        <ele>198.5</ele>
        <time>2022-09-24T16:01:25Z</time>
      </trkpt>
      <trkpt lat="45.85508" lon="5.40806">
        <ele>198.6</ele>
        <time>2022-09-24T16:01:26Z</time>
      </trkpt>
      <trkpt lat="45.85505" lon="5.40811">
        <ele>198.6</ele>
        <time>2022-09-24T16:01:27Z</time>
      </trkpt>
      <trkpt lat="45.85502" lon="5.40814">
        <ele>198.6</ele>
        <time>2022-09-24T16:01:28Z</time>
      </trkpt>
      <trkpt lat="45.85499" lon="5.40818">
        <ele>198.6</ele>
        <time>2022-09-24T16:01:29Z</time>
      </trkpt>
      <trkpt lat="45.85495" lon="5.40821">
        <ele>198.6</ele>
        <time>2022-09-24T16:01:30Z</time>
      </trkpt>
      <trkpt lat="45.85492" lon="5.40824">
        <ele>198.7</ele>
        <time>2022-09-24T16:01:31Z</time>
      </trkpt>
      <trkpt lat="45.85489" lon="5.40827">
        <ele>198.7</ele>
        <time>2022-09-24T16:01:32Z</time>
      </trkpt>
      <trkpt lat="45.85487" lon="5.4083">
        <ele>198.7</ele>
        <time>2022-09-24T16:01:33Z</time>
      </trkpt>
      <trkpt lat="45.85485" lon="5.40833">
        <ele>198.7</ele>
        <time>2022-09-24T16:01:34Z</time>
      </trkpt>
      <trkpt lat="45.85483" lon="5.40835">
        <ele>198.7</ele>
        <time>2022-09-24T16:01:35Z</time>
      </trkpt>
      <trkpt lat="45.85483" lon="5.40837">
        <ele>198.7</ele>
        <time>2022-09-24T16:01:36Z</time>
      </trkpt>
      <trkpt lat="45.85483" lon="5.40838">
        <ele>198.7</ele>
        <time>2022-09-24T16:01:37Z</time>
      </trkpt>
      <trkpt lat="45.85483" lon="5.40838">
        <ele>198.7</ele>
        <time>2022-09-24T16:01:38Z</time>
      </trkpt>
      <trkpt lat="45.85483" lon="5.40838">
        <ele>199</ele>
        <time>2022-09-24T16:01:39Z</time>
      </trkpt>
      <trkpt lat="45.85482" lon="5.40839">
        <ele>199</ele>
        <time>2022-09-24T16:01:40Z</time>
      </trkpt>
      <trkpt lat="45.85482" lon="5.4084">
        <ele>199.1</ele>
        <time>2022-09-24T16:01:41Z</time>
      </trkpt>
      <trkpt lat="45.85482" lon="5.40842">
        <ele>199.1</ele>
        <time>2022-09-24T16:01:42Z</time>
      </trkpt>
      <trkpt lat="45.85482" lon="5.40844">
        <ele>199.2</ele>
        <time>2022-09-24T16:01:43Z</time>
      </trkpt>
      <trkpt lat="45.85483" lon="5.40846">
        <ele>199.3</ele>
        <time>2022-09-24T16:01:44Z</time>
      </trkpt>
      <trkpt lat="45.85484" lon="5.40847">
        <ele>199.4</ele>
        <time>2022-09-24T16:01:45Z</time>
      </trkpt>
      <trkpt lat="45.85485" lon="5.40848">
        <ele>199.5</ele>
        <time>2022-09-24T16:01:46Z</time>
      </trkpt>
      <trkpt lat="45.85486" lon="5.40849">
        <ele>199.5</ele>
        <time>2022-09-24T16:01:47Z</time>
      </trkpt>
      <trkpt lat="45.85488" lon="5.40853">
        <ele>199.8</ele>
        <time>2022-09-24T16:01:48Z</time>
      </trkpt>
      <trkpt lat="45.85489" lon="5.40854">
        <ele>199.9</ele>
        <time>2022-09-24T16:01:49Z</time>
      </trkpt>
      <trkpt lat="45.85491" lon="5.40858">
        <ele>200.2</ele>
        <time>2022-09-24T16:01:50Z</time>
      </trkpt>
      <trkpt lat="45.85492" lon="5.40859">
        <ele>200.3</ele>
        <time>2022-09-24T16:01:51Z</time>
      </trkpt>
      <trkpt lat="45.85492" lon="5.4086">
        <ele>200.4</ele>
        <time>2022-09-24T16:01:52Z</time>
      </trkpt>
      <trkpt lat="45.85494" lon="5.40862">
        <ele>200.6</ele>
        <time>2022-09-24T16:01:53Z</time>
      </trkpt>
      <trkpt lat="45.85496" lon="5.40865">
        <ele>200.9</ele>
        <time>2022-09-24T16:01:54Z</time>
      </trkpt>
      <trkpt lat="45.85497" lon="5.40866">
        <ele>201</ele>
        <time>2022-09-24T16:01:55Z</time>
      </trkpt>
      <trkpt lat="45.85499" lon="5.40868">
        <ele>202.5</ele>
        <time>2022-09-24T16:01:56Z</time>
      </trkpt>
      <trkpt lat="45.85499" lon="5.40869">
        <ele>202.5</ele>
        <time>2022-09-24T16:01:57Z</time>
      </trkpt>
      <trkpt lat="45.85499" lon="5.4087">
        <ele>202.5</ele>
        <time>2022-09-24T16:01:58Z</time>
      </trkpt>
      <trkpt lat="45.85499" lon="5.4087">
        <ele>202.5</ele>
        <time>2022-09-24T16:01:59Z</time>
      </trkpt>
      <trkpt lat="45.85499" lon="5.40874">
        <ele>202.6</ele>
        <time>2022-09-24T16:02:00Z</time>
      </trkpt>
      <trkpt lat="45.85498" lon="5.40876">
        <ele>202.6</ele>
        <time>2022-09-24T16:02:01Z</time>
      </trkpt>
      <trkpt lat="45.85497" lon="5.40881">
        <ele>202.7</ele>
        <time>2022-09-24T16:02:02Z</time>
      </trkpt>
      <trkpt lat="45.85494" lon="5.40883">
        <ele>202.8</ele>
        <time>2022-09-24T16:02:03Z</time>
      </trkpt>
      <trkpt lat="45.85491" lon="5.40887">
        <ele>203</ele>
        <time>2022-09-24T16:02:04Z</time>
      </trkpt>
      <trkpt lat="45.85491" lon="5.40889">
        <ele>203</ele>
        <time>2022-09-24T16:02:05Z</time>
      </trkpt>
      <trkpt lat="45.85489" lon="5.40893">
        <ele>203.1</ele>
        <time>2022-09-24T16:02:06Z</time>
      </trkpt>
      <trkpt lat="45.85488" lon="5.40894">
        <ele>203.1</ele>
        <time>2022-09-24T16:02:07Z</time>
      </trkpt>
      <trkpt lat="45.85485" lon="5.40898">
        <ele>203.3</ele>
        <time>2022-09-24T16:02:08Z</time>
      </trkpt>
      <trkpt lat="45.85484" lon="5.40899">
        <ele>203.3</ele>
        <time>2022-09-24T16:02:09Z</time>
      </trkpt>
      <trkpt lat="45.85483" lon="5.40904">
        <ele>203.4</ele>
        <time>2022-09-24T16:02:10Z</time>
      </trkpt>
      <trkpt lat="45.85482" lon="5.40905">
        <ele>203.5</ele>
        <time>2022-09-24T16:02:11Z</time>
      </trkpt>
      <trkpt lat="45.8548" lon="5.40906">
        <ele>203.5</ele>
        <time>2022-09-24T16:02:12Z</time>
      </trkpt>
      <trkpt lat="45.85478" lon="5.40905">
        <ele>203.6</ele>
        <time>2022-09-24T16:02:13Z</time>
      </trkpt>
      <trkpt lat="45.85477" lon="5.40904">
        <ele>203.6</ele>
        <time>2022-09-24T16:02:14Z</time>
      </trkpt>
      <trkpt lat="45.85474" lon="5.40902">
        <ele>203.7</ele>
        <time>2022-09-24T16:02:15Z</time>
      </trkpt>
      <trkpt lat="45.85472" lon="5.40897">
        <ele>204.8</ele>
        <time>2022-09-24T16:02:16Z</time>
      </trkpt>
      <trkpt lat="45.8547" lon="5.40893">
        <ele>205.3</ele>
        <time>2022-09-24T16:02:17Z</time>
      </trkpt>
      <trkpt lat="45.85468" lon="5.4089">
        <ele>205.3</ele>
        <time>2022-09-24T16:02:18Z</time>
      </trkpt>
      <trkpt lat="45.85466" lon="5.40886">
        <ele>205.3</ele>
        <time>2022-09-24T16:02:19Z</time>
      </trkpt>
      <trkpt lat="45.85463" lon="5.40883">
        <ele>205.6</ele>
        <time>2022-09-24T16:02:20Z</time>
      </trkpt>
      <trkpt lat="45.85461" lon="5.40879">
        <ele>205.7</ele>
        <time>2022-09-24T16:02:21Z</time>
      </trkpt>
      <trkpt lat="45.85459" lon="5.40875">
        <ele>205.8</ele>
        <time>2022-09-24T16:02:22Z</time>
      </trkpt>
      <trkpt lat="45.85456" lon="5.40872">
        <ele>205.9</ele>
        <time>2022-09-24T16:02:23Z</time>
      </trkpt>
      <trkpt lat="45.85454" lon="5.40868">
        <ele>206</ele>
        <time>2022-09-24T16:02:24Z</time>
      </trkpt>
      <trkpt lat="45.85452" lon="5.40864">
        <ele>206.1</ele>
        <time>2022-09-24T16:02:25Z</time>
      </trkpt>
      <trkpt lat="45.8545" lon="5.4086">
        <ele>206.1</ele>
        <time>2022-09-24T16:02:26Z</time>
      </trkpt>
      <trkpt lat="45.85448" lon="5.40856">
        <ele>206.2</ele>
        <time>2022-09-24T16:02:27Z</time>
      </trkpt>
      <trkpt lat="45.85447" lon="5.40851">
        <ele>206.2</ele>
        <time>2022-09-24T16:02:28Z</time>
      </trkpt>
      <trkpt lat="45.85445" lon="5.40847">
        <ele>206.3</ele>
        <time>2022-09-24T16:02:29Z</time>
      </trkpt>
      <trkpt lat="45.85443" lon="5.40843">
        <ele>206.3</ele>
        <time>2022-09-24T16:02:30Z</time>
      </trkpt>
      <trkpt lat="45.85441" lon="5.40839">
        <ele>206.4</ele>
        <time>2022-09-24T16:02:31Z</time>
      </trkpt>
      <trkpt lat="45.8544" lon="5.40836">
        <ele>206.4</ele>
        <time>2022-09-24T16:02:32Z</time>
      </trkpt>
      <trkpt lat="45.85438" lon="5.40831">
        <ele>206.4</ele>
        <time>2022-09-24T16:02:33Z</time>
      </trkpt>
      <trkpt lat="45.85436" lon="5.40828">
        <ele>206.5</ele>
        <time>2022-09-24T16:02:34Z</time>
      </trkpt>
      <trkpt lat="45.85434" lon="5.40824">
        <ele>206.5</ele>
        <time>2022-09-24T16:02:35Z</time>
      </trkpt>
      <trkpt lat="45.85432" lon="5.4082">
        <ele>206.6</ele>
        <time>2022-09-24T16:02:36Z</time>
      </trkpt>
      <trkpt lat="45.8543" lon="5.40817">
        <ele>206.6</ele>
        <time>2022-09-24T16:02:37Z</time>
      </trkpt>
      <trkpt lat="45.85429" lon="5.40813">
        <ele>206.6</ele>
        <time>2022-09-24T16:02:38Z</time>
      </trkpt>
      <trkpt lat="45.85427" lon="5.40809">
        <ele>206.6</ele>
        <time>2022-09-24T16:02:39Z</time>
      </trkpt>
      <trkpt lat="45.85425" lon="5.40804">
        <ele>206.6</ele>
        <time>2022-09-24T16:02:40Z</time>
      </trkpt>
      <trkpt lat="45.85423" lon="5.408">
        <ele>206.6</ele>
        <time>2022-09-24T16:02:41Z</time>
      </trkpt>
      <trkpt lat="45.85421" lon="5.40795">
        <ele>206.5</ele>
        <time>2022-09-24T16:02:42Z</time>
      </trkpt>
      <trkpt lat="45.85419" lon="5.4079">
        <ele>206.5</ele>
        <time>2022-09-24T16:02:43Z</time>
      </trkpt>
      <trkpt lat="45.85417" lon="5.40784">
        <ele>206.4</ele>
        <time>2022-09-24T16:02:44Z</time>
      </trkpt>
      <trkpt lat="45.85415" lon="5.4078">
        <ele>206.4</ele>
        <time>2022-09-24T16:02:45Z</time>
      </trkpt>
      <trkpt lat="45.85412" lon="5.40775">
        <ele>206.4</ele>
        <time>2022-09-24T16:02:46Z</time>
      </trkpt>
      <trkpt lat="45.8541" lon="5.4077">
        <ele>206.3</ele>
        <time>2022-09-24T16:02:47Z</time>
      </trkpt>
      <trkpt lat="45.85408" lon="5.40765">
        <ele>206.3</ele>
        <time>2022-09-24T16:02:48Z</time>
      </trkpt>
      <trkpt lat="45.85406" lon="5.40759">
        <ele>206.2</ele>
        <time>2022-09-24T16:02:49Z</time>
      </trkpt>
      <trkpt lat="45.85404" lon="5.40754">
        <ele>206.1</ele>
        <time>2022-09-24T16:02:50Z</time>
      </trkpt>
      <trkpt lat="45.85402" lon="5.40751">
        <ele>206.1</ele>
        <time>2022-09-24T16:02:51Z</time>
      </trkpt>
      <trkpt lat="45.85399" lon="5.40746">
        <ele>206</ele>
        <time>2022-09-24T16:02:52Z</time>
      </trkpt>
      <trkpt lat="45.85398" lon="5.40742">
        <ele>206</ele>
        <time>2022-09-24T16:02:53Z</time>
      </trkpt>
      <trkpt lat="45.85397" lon="5.4074">
        <ele>206</ele>
        <time>2022-09-24T16:02:54Z</time>
      </trkpt>
      <trkpt lat="45.85394" lon="5.40737">
        <ele>205.9</ele>
        <time>2022-09-24T16:02:55Z</time>
      </trkpt>
      <trkpt lat="45.85392" lon="5.40733">
        <ele>205.9</ele>
        <time>2022-09-24T16:02:56Z</time>
      </trkpt>
      <trkpt lat="45.8539" lon="5.40728">
        <ele>205.8</ele>
        <time>2022-09-24T16:02:57Z</time>
      </trkpt>
      <trkpt lat="45.85387" lon="5.40723">
        <ele>205.8</ele>
        <time>2022-09-24T16:02:58Z</time>
      </trkpt>
      <trkpt lat="45.85385" lon="5.40718">
        <ele>205.7</ele>
        <time>2022-09-24T16:02:59Z</time>
      </trkpt>
      <trkpt lat="45.85382" lon="5.40714">
        <ele>205.6</ele>
        <time>2022-09-24T16:03:00Z</time>
      </trkpt>
      <trkpt lat="45.85379" lon="5.40709">
        <ele>205.6</ele>
        <time>2022-09-24T16:03:01Z</time>
      </trkpt>
      <trkpt lat="45.85377" lon="5.40704">
        <ele>205.5</ele>
        <time>2022-09-24T16:03:02Z</time>
      </trkpt>
      <trkpt lat="45.85374" lon="5.407">
        <ele>205.4</ele>
        <time>2022-09-24T16:03:03Z</time>
      </trkpt>
      <trkpt lat="45.85372" lon="5.40695">
        <ele>205.4</ele>
        <time>2022-09-24T16:03:04Z</time>
      </trkpt>
      <trkpt lat="45.8537" lon="5.40692">
        <ele>205.3</ele>
        <time>2022-09-24T16:03:05Z</time>
      </trkpt>
      <trkpt lat="45.85368" lon="5.40689">
        <ele>205.3</ele>
        <time>2022-09-24T16:03:06Z</time>
      </trkpt>
      <trkpt lat="45.85365" lon="5.40685">
        <ele>205.2</ele>
        <time>2022-09-24T16:03:07Z</time>
      </trkpt>
      <trkpt lat="45.85362" lon="5.40683">
        <ele>205.2</ele>
        <time>2022-09-24T16:03:08Z</time>
      </trkpt>
      <trkpt lat="45.85358" lon="5.40685">
        <ele>205.1</ele>
        <time>2022-09-24T16:03:09Z</time>
      </trkpt>
      <trkpt lat="45.85354" lon="5.40687">
        <ele>205.1</ele>
        <time>2022-09-24T16:03:10Z</time>
      </trkpt>
      <trkpt lat="45.85351" lon="5.40689">
        <ele>205</ele>
        <time>2022-09-24T16:03:11Z</time>
      </trkpt>
      <trkpt lat="45.85347" lon="5.40692">
        <ele>205</ele>
        <time>2022-09-24T16:03:12Z</time>
      </trkpt>
      <trkpt lat="45.85345" lon="5.40694">
        <ele>205</ele>
        <time>2022-09-24T16:03:13Z</time>
      </trkpt>
      <trkpt lat="45.85341" lon="5.40695">
        <ele>205</ele>
        <time>2022-09-24T16:03:14Z</time>
      </trkpt>
      <trkpt lat="45.8534" lon="5.40696">
        <ele>204.9</ele>
        <time>2022-09-24T16:03:15Z</time>
      </trkpt>
      <trkpt lat="45.8534" lon="5.40696">
        <ele>204.9</ele>
        <time>2022-09-24T16:03:16Z</time>
      </trkpt>
      <trkpt lat="45.85339" lon="5.40697">
        <ele>204.9</ele>
        <time>2022-09-24T16:03:17Z</time>
      </trkpt>
      <trkpt lat="45.85339" lon="5.40697">
        <ele>204.9</ele>
        <time>2022-09-24T16:03:18Z</time>
      </trkpt>
      <trkpt lat="45.85339" lon="5.40697">
        <ele>204.9</ele>
        <time>2022-09-24T16:03:19Z</time>
      </trkpt>
      <trkpt lat="45.85338" lon="5.40697">
        <ele>204.9</ele>
        <time>2022-09-24T16:03:20Z</time>
      </trkpt>
      <trkpt lat="45.85338" lon="5.40698">
        <ele>204.9</ele>
        <time>2022-09-24T16:03:21Z</time>
      </trkpt>
      <trkpt lat="45.85338" lon="5.40698">
        <ele>204.9</ele>
        <time>2022-09-24T16:03:22Z</time>
      </trkpt>
      <trkpt lat="45.85337" lon="5.40698">
        <ele>204.9</ele>
        <time>2022-09-24T16:03:23Z</time>
      </trkpt>
      <trkpt lat="45.85337" lon="5.40699">
        <ele>204.9</ele>
        <time>2022-09-24T16:03:24Z</time>
      </trkpt>
      <trkpt lat="45.85337" lon="5.40699">
        <ele>204.9</ele>
        <time>2022-09-24T16:03:25Z</time>
      </trkpt>
      <trkpt lat="45.85336" lon="5.40699">
        <ele>204.9</ele>
        <time>2022-09-24T16:03:26Z</time>
      </trkpt>
      <trkpt lat="45.85336" lon="5.40699">
        <ele>204.9</ele>
        <time>2022-09-24T16:03:27Z</time>
      </trkpt>
      <trkpt lat="45.85336" lon="5.407">
        <ele>204.9</ele>
        <time>2022-09-24T16:03:28Z</time>
      </trkpt>
      <trkpt lat="45.85336" lon="5.407">
        <ele>204.9</ele>
        <time>2022-09-24T16:03:50Z</time>
      </trkpt>
      <trkpt lat="45.85335" lon="5.407">
        <ele>204.9</ele>
        <time>2022-09-24T16:03:51Z</time>
      </trkpt>
      <trkpt lat="45.85337" lon="5.40703">
        <ele>204.9</ele>
        <time>2022-09-24T16:03:52Z</time>
      </trkpt>
      <trkpt lat="45.85339" lon="5.40704">
        <ele>204.8</ele>
        <time>2022-09-24T16:03:53Z</time>
      </trkpt>
      <trkpt lat="45.85342" lon="5.40703">
        <ele>204.8</ele>
        <time>2022-09-24T16:03:54Z</time>
      </trkpt>
      <trkpt lat="45.85343" lon="5.40702">
        <ele>204.8</ele>
        <time>2022-09-24T16:03:55Z</time>
      </trkpt>
      <trkpt lat="45.85345" lon="5.407">
        <ele>204.8</ele>
        <time>2022-09-24T16:03:56Z</time>
      </trkpt>
      <trkpt lat="45.85348" lon="5.40697">
        <ele>204.7</ele>
        <time>2022-09-24T16:03:57Z</time>
      </trkpt>
      <trkpt lat="45.8535" lon="5.40696">
        <ele>204.7</ele>
        <time>2022-09-24T16:03:58Z</time>
      </trkpt>
      <trkpt lat="45.85354" lon="5.40694">
        <ele>204.9</ele>
        <time>2022-09-24T16:03:59Z</time>
      </trkpt>
      <trkpt lat="45.85355" lon="5.40694">
        <ele>204.9</ele>
        <time>2022-09-24T16:04:00Z</time>
      </trkpt>
      <trkpt lat="45.85358" lon="5.40695">
        <ele>205</ele>
        <time>2022-09-24T16:04:01Z</time>
      </trkpt>
      <trkpt lat="45.85359" lon="5.40694">
        <ele>205</ele>
        <time>2022-09-24T16:04:02Z</time>
      </trkpt>
      <trkpt lat="45.8536" lon="5.40695">
        <ele>205</ele>
        <time>2022-09-24T16:04:03Z</time>
      </trkpt>
      <trkpt lat="45.85361" lon="5.40694">
        <ele>205</ele>
        <time>2022-09-24T16:04:04Z</time>
      </trkpt>
      <trkpt lat="45.85361" lon="5.40694">
        <ele>205.1</ele>
        <time>2022-09-24T16:04:05Z</time>
      </trkpt>
      <trkpt lat="45.85362" lon="5.40694">
        <ele>205.1</ele>
        <time>2022-09-24T16:04:06Z</time>
      </trkpt>
      <trkpt lat="45.85364" lon="5.40693">
        <ele>205.1</ele>
        <time>2022-09-24T16:04:07Z</time>
      </trkpt>
      <trkpt lat="45.85365" lon="5.40693">
        <ele>205.3</ele>
        <time>2022-09-24T16:04:08Z</time>
      </trkpt>
      <trkpt lat="45.85366" lon="5.40694">
        <ele>205.3</ele>
        <time>2022-09-24T16:04:09Z</time>
      </trkpt>
      <trkpt lat="45.85368" lon="5.40697">
        <ele>205.3</ele>
        <time>2022-09-24T16:04:10Z</time>
      </trkpt>
      <trkpt lat="45.8537" lon="5.40701">
        <ele>205.3</ele>
        <time>2022-09-24T16:04:11Z</time>
      </trkpt>
      <trkpt lat="45.8537" lon="5.40703">
        <ele>205.4</ele>
        <time>2022-09-24T16:04:12Z</time>
      </trkpt>
      <trkpt lat="45.85372" lon="5.40707">
        <ele>205.5</ele>
        <time>2022-09-24T16:04:13Z</time>
      </trkpt>
      <trkpt lat="45.85374" lon="5.40711">
        <ele>205.5</ele>
        <time>2022-09-24T16:04:14Z</time>
      </trkpt>
      <trkpt lat="45.85377" lon="5.40714">
        <ele>205.6</ele>
        <time>2022-09-24T16:04:15Z</time>
      </trkpt>
      <trkpt lat="45.85379" lon="5.40718">
        <ele>205.6</ele>
        <time>2022-09-24T16:04:16Z</time>
      </trkpt>
      <trkpt lat="45.85381" lon="5.40721">
        <ele>205.7</ele>
        <time>2022-09-24T16:04:17Z</time>
      </trkpt>
      <trkpt lat="45.85383" lon="5.40725">
        <ele>205.7</ele>
        <time>2022-09-24T16:04:18Z</time>
      </trkpt>
      <trkpt lat="45.85383" lon="5.40729">
        <ele>205.8</ele>
        <time>2022-09-24T16:04:19Z</time>
      </trkpt>
      <trkpt lat="45.85384" lon="5.40735">
        <ele>205.8</ele>
        <time>2022-09-24T16:04:20Z</time>
      </trkpt>
      <trkpt lat="45.85383" lon="5.40739">
        <ele>205.8</ele>
        <time>2022-09-24T16:04:21Z</time>
      </trkpt>
      <trkpt lat="45.85383" lon="5.40744">
        <ele>205.7</ele>
        <time>2022-09-24T16:04:22Z</time>
      </trkpt>
      <trkpt lat="45.85381" lon="5.40748">
        <ele>205.6</ele>
        <time>2022-09-24T16:04:23Z</time>
      </trkpt>
      <trkpt lat="45.8538" lon="5.40751">
        <ele>205.5</ele>
        <time>2022-09-24T16:04:24Z</time>
      </trkpt>
      <trkpt lat="45.85379" lon="5.40756">
        <ele>205.4</ele>
        <time>2022-09-24T16:04:25Z</time>
      </trkpt>
      <trkpt lat="45.85375" lon="5.40759">
        <ele>205.2</ele>
        <time>2022-09-24T16:04:26Z</time>
      </trkpt>
      <trkpt lat="45.85371" lon="5.40763">
        <ele>205.1</ele>
        <time>2022-09-24T16:04:27Z</time>
      </trkpt>
      <trkpt lat="45.85368" lon="5.40767">
        <ele>204.9</ele>
        <time>2022-09-24T16:04:28Z</time>
      </trkpt>
      <trkpt lat="45.85364" lon="5.40771">
        <ele>204.8</ele>
        <time>2022-09-24T16:04:29Z</time>
      </trkpt>
      <trkpt lat="45.85359" lon="5.40776">
        <ele>204.6</ele>
        <time>2022-09-24T16:04:30Z</time>
      </trkpt>
      <trkpt lat="45.85355" lon="5.4078">
        <ele>204.4</ele>
        <time>2022-09-24T16:04:31Z</time>
      </trkpt>
      <trkpt lat="45.85352" lon="5.40785">
        <ele>204.3</ele>
        <time>2022-09-24T16:04:32Z</time>
      </trkpt>
      <trkpt lat="45.85347" lon="5.40789">
        <ele>204.1</ele>
        <time>2022-09-24T16:04:33Z</time>
      </trkpt>
      <trkpt lat="45.85342" lon="5.40794">
        <ele>204</ele>
        <time>2022-09-24T16:04:34Z</time>
      </trkpt>
      <trkpt lat="45.85337" lon="5.40799">
        <ele>203.8</ele>
        <time>2022-09-24T16:04:35Z</time>
      </trkpt>
      <trkpt lat="45.85333" lon="5.40803">
        <ele>203.7</ele>
        <time>2022-09-24T16:04:36Z</time>
      </trkpt>
      <trkpt lat="45.85329" lon="5.40807">
        <ele>203.6</ele>
        <time>2022-09-24T16:04:37Z</time>
      </trkpt>
      <trkpt lat="45.85323" lon="5.40812">
        <ele>203.5</ele>
        <time>2022-09-24T16:04:38Z</time>
      </trkpt>
      <trkpt lat="45.85319" lon="5.40817">
        <ele>203.4</ele>
        <time>2022-09-24T16:04:39Z</time>
      </trkpt>
      <trkpt lat="45.85315" lon="5.40822">
        <ele>203.4</ele>
        <time>2022-09-24T16:04:40Z</time>
      </trkpt>
      <trkpt lat="45.8531" lon="5.40826">
        <ele>203.3</ele>
        <time>2022-09-24T16:04:41Z</time>
      </trkpt>
      <trkpt lat="45.85306" lon="5.4083">
        <ele>203.3</ele>
        <time>2022-09-24T16:04:42Z</time>
      </trkpt>
      <trkpt lat="45.85302" lon="5.40833">
        <ele>203.2</ele>
        <time>2022-09-24T16:04:43Z</time>
      </trkpt>
      <trkpt lat="45.853" lon="5.40836">
        <ele>203.2</ele>
        <time>2022-09-24T16:04:44Z</time>
      </trkpt>
      <trkpt lat="45.85297" lon="5.4084">
        <ele>203.2</ele>
        <time>2022-09-24T16:04:46Z</time>
      </trkpt>
      <trkpt lat="45.85294" lon="5.40844">
        <ele>203.2</ele>
        <time>2022-09-24T16:04:47Z</time>
      </trkpt>
      <trkpt lat="45.8529" lon="5.40846">
        <ele>203.1</ele>
        <time>2022-09-24T16:04:48Z</time>
      </trkpt>
      <trkpt lat="45.85288" lon="5.4085">
        <ele>203.1</ele>
        <time>2022-09-24T16:04:49Z</time>
      </trkpt>
      <trkpt lat="45.85283" lon="5.40854">
        <ele>203.1</ele>
        <time>2022-09-24T16:04:50Z</time>
      </trkpt>
      <trkpt lat="45.85279" lon="5.40858">
        <ele>203.1</ele>
        <time>2022-09-24T16:04:51Z</time>
      </trkpt>
      <trkpt lat="45.85275" lon="5.40862">
        <ele>203</ele>
        <time>2022-09-24T16:04:52Z</time>
      </trkpt>
      <trkpt lat="45.85271" lon="5.40866">
        <ele>203</ele>
        <time>2022-09-24T16:04:53Z</time>
      </trkpt>
      <trkpt lat="45.85267" lon="5.4087">
        <ele>202.9</ele>
        <time>2022-09-24T16:04:54Z</time>
      </trkpt>
      <trkpt lat="45.85259" lon="5.40879">
        <ele>202.8</ele>
        <time>2022-09-24T16:04:55Z</time>
      </trkpt>
      <trkpt lat="45.85255" lon="5.40884">
        <ele>202.8</ele>
        <time>2022-09-24T16:04:56Z</time>
      </trkpt>
      <trkpt lat="45.85251" lon="5.40888">
        <ele>202.7</ele>
        <time>2022-09-24T16:04:58Z</time>
      </trkpt>
      <trkpt lat="45.85247" lon="5.40893">
        <ele>202.7</ele>
        <time>2022-09-24T16:04:59Z</time>
      </trkpt>
      <trkpt lat="45.85242" lon="5.40897">
        <ele>202.6</ele>
        <time>2022-09-24T16:05:00Z</time>
      </trkpt>
      <trkpt lat="45.85234" lon="5.40905">
        <ele>202.5</ele>
        <time>2022-09-24T16:05:01Z</time>
      </trkpt>
      <trkpt lat="45.8523" lon="5.40909">
        <ele>202.4</ele>
        <time>2022-09-24T16:05:02Z</time>
      </trkpt>
      <trkpt lat="45.85227" lon="5.40913">
        <ele>202.4</ele>
        <time>2022-09-24T16:05:03Z</time>
      </trkpt>
      <trkpt lat="45.85223" lon="5.40917">
        <ele>202.4</ele>
        <time>2022-09-24T16:05:04Z</time>
      </trkpt>
      <trkpt lat="45.8522" lon="5.4092">
        <ele>202.3</ele>
        <time>2022-09-24T16:05:05Z</time>
      </trkpt>
      <trkpt lat="45.85217" lon="5.40926">
        <ele>202.3</ele>
        <time>2022-09-24T16:05:06Z</time>
      </trkpt>
      <trkpt lat="45.85213" lon="5.4093">
        <ele>202.2</ele>
        <time>2022-09-24T16:05:07Z</time>
      </trkpt>
      <trkpt lat="45.85211" lon="5.40934">
        <ele>202.2</ele>
        <time>2022-09-24T16:05:08Z</time>
      </trkpt>
      <trkpt lat="45.85209" lon="5.40939">
        <ele>202.1</ele>
        <time>2022-09-24T16:05:09Z</time>
      </trkpt>
      <trkpt lat="45.85208" lon="5.40945">
        <ele>202</ele>
        <time>2022-09-24T16:05:10Z</time>
      </trkpt>
      <trkpt lat="45.85209" lon="5.40952">
        <ele>201.9</ele>
        <time>2022-09-24T16:05:11Z</time>
      </trkpt>
      <trkpt lat="45.8521" lon="5.40958">
        <ele>201.8</ele>
        <time>2022-09-24T16:05:12Z</time>
      </trkpt>
      <trkpt lat="45.85211" lon="5.40963">
        <ele>201.8</ele>
        <time>2022-09-24T16:05:13Z</time>
      </trkpt>
      <trkpt lat="45.85211" lon="5.40968">
        <ele>201.7</ele>
        <time>2022-09-24T16:05:14Z</time>
      </trkpt>
      <trkpt lat="45.85213" lon="5.40974">
        <ele>201.7</ele>
        <time>2022-09-24T16:05:15Z</time>
      </trkpt>
      <trkpt lat="45.85215" lon="5.40977">
        <ele>201.6</ele>
        <time>2022-09-24T16:05:16Z</time>
      </trkpt>
      <trkpt lat="45.85216" lon="5.40982">
        <ele>201.6</ele>
        <time>2022-09-24T16:05:17Z</time>
      </trkpt>
      <trkpt lat="45.85217" lon="5.40989">
        <ele>201.6</ele>
        <time>2022-09-24T16:05:18Z</time>
      </trkpt>
      <trkpt lat="45.85218" lon="5.40992">
        <ele>201.6</ele>
        <time>2022-09-24T16:05:19Z</time>
      </trkpt>
      <trkpt lat="45.8522" lon="5.40998">
        <ele>201.6</ele>
        <time>2022-09-24T16:05:20Z</time>
      </trkpt>
      <trkpt lat="45.85222" lon="5.41">
        <ele>201.6</ele>
        <time>2022-09-24T16:05:21Z</time>
      </trkpt>
      <trkpt lat="45.85225" lon="5.41006">
        <ele>201.6</ele>
        <time>2022-09-24T16:05:22Z</time>
      </trkpt>
      <trkpt lat="45.85226" lon="5.41011">
        <ele>201.5</ele>
        <time>2022-09-24T16:05:23Z</time>
      </trkpt>
      <trkpt lat="45.85229" lon="5.41018">
        <ele>201.5</ele>
        <time>2022-09-24T16:05:24Z</time>
      </trkpt>
      <trkpt lat="45.85231" lon="5.41024">
        <ele>201.4</ele>
        <time>2022-09-24T16:05:25Z</time>
      </trkpt>
      <trkpt lat="45.85233" lon="5.41034">
        <ele>201.3</ele>
        <time>2022-09-24T16:05:26Z</time>
      </trkpt>
      <trkpt lat="45.85233" lon="5.41041">
        <ele>201.2</ele>
        <time>2022-09-24T16:05:27Z</time>
      </trkpt>
      <trkpt lat="45.85231" lon="5.41049">
        <ele>201.1</ele>
        <time>2022-09-24T16:05:28Z</time>
      </trkpt>
      <trkpt lat="45.8523" lon="5.41056">
        <ele>201</ele>
        <time>2022-09-24T16:05:29Z</time>
      </trkpt>
      <trkpt lat="45.85228" lon="5.41063">
        <ele>200.9</ele>
        <time>2022-09-24T16:05:30Z</time>
      </trkpt>
      <trkpt lat="45.85224" lon="5.4107">
        <ele>200.9</ele>
        <time>2022-09-24T16:05:31Z</time>
      </trkpt>
      <trkpt lat="45.85222" lon="5.41076">
        <ele>200.8</ele>
        <time>2022-09-24T16:05:32Z</time>
      </trkpt>
      <trkpt lat="45.85221" lon="5.41084">
        <ele>200.8</ele>
        <time>2022-09-24T16:05:33Z</time>
      </trkpt>
      <trkpt lat="45.85219" lon="5.4109">
        <ele>200.8</ele>
        <time>2022-09-24T16:05:34Z</time>
      </trkpt>
      <trkpt lat="45.85217" lon="5.41096">
        <ele>200.8</ele>
        <time>2022-09-24T16:05:35Z</time>
      </trkpt>
      <trkpt lat="45.85215" lon="5.41102">
        <ele>200.7</ele>
        <time>2022-09-24T16:05:36Z</time>
      </trkpt>
      <trkpt lat="45.85214" lon="5.41108">
        <ele>200.7</ele>
        <time>2022-09-24T16:05:37Z</time>
      </trkpt>
      <trkpt lat="45.85211" lon="5.41114">
        <ele>200.7</ele>
        <time>2022-09-24T16:05:38Z</time>
      </trkpt>
      <trkpt lat="45.85209" lon="5.4112">
        <ele>200.7</ele>
        <time>2022-09-24T16:05:39Z</time>
      </trkpt>
      <trkpt lat="45.85206" lon="5.41127">
        <ele>200.7</ele>
        <time>2022-09-24T16:05:40Z</time>
      </trkpt>
      <trkpt lat="45.85204" lon="5.41133">
        <ele>200.7</ele>
        <time>2022-09-24T16:05:41Z</time>
      </trkpt>
      <trkpt lat="45.85201" lon="5.41138">
        <ele>200.8</ele>
        <time>2022-09-24T16:05:42Z</time>
      </trkpt>
      <trkpt lat="45.85198" lon="5.41143">
        <ele>200.8</ele>
        <time>2022-09-24T16:05:43Z</time>
      </trkpt>
      <trkpt lat="45.85196" lon="5.41149">
        <ele>200.8</ele>
        <time>2022-09-24T16:05:44Z</time>
      </trkpt>
      <trkpt lat="45.85193" lon="5.41154">
        <ele>200.8</ele>
        <time>2022-09-24T16:05:45Z</time>
      </trkpt>
      <trkpt lat="45.85192" lon="5.41159">
        <ele>200.9</ele>
        <time>2022-09-24T16:05:46Z</time>
      </trkpt>
      <trkpt lat="45.85189" lon="5.41165">
        <ele>200.9</ele>
        <time>2022-09-24T16:05:47Z</time>
      </trkpt>
      <trkpt lat="45.85186" lon="5.4117">
        <ele>201</ele>
        <time>2022-09-24T16:05:48Z</time>
      </trkpt>
      <trkpt lat="45.85183" lon="5.41176">
        <ele>201</ele>
        <time>2022-09-24T16:05:49Z</time>
      </trkpt>
      <trkpt lat="45.8518" lon="5.41182">
        <ele>201.1</ele>
        <time>2022-09-24T16:05:50Z</time>
      </trkpt>
      <trkpt lat="45.85178" lon="5.41189">
        <ele>201.2</ele>
        <time>2022-09-24T16:05:51Z</time>
      </trkpt>
      <trkpt lat="45.85175" lon="5.41194">
        <ele>201.3</ele>
        <time>2022-09-24T16:05:52Z</time>
      </trkpt>
      <trkpt lat="45.85172" lon="5.412">
        <ele>201.4</ele>
        <time>2022-09-24T16:05:53Z</time>
      </trkpt>
      <trkpt lat="45.85169" lon="5.41205">
        <ele>201.4</ele>
        <time>2022-09-24T16:05:54Z</time>
      </trkpt>
      <trkpt lat="45.85168" lon="5.41211">
        <ele>201.5</ele>
        <time>2022-09-24T16:05:55Z</time>
      </trkpt>
      <trkpt lat="45.85165" lon="5.41214">
        <ele>201.6</ele>
        <time>2022-09-24T16:05:56Z</time>
      </trkpt>
      <trkpt lat="45.85163" lon="5.41219">
        <ele>201.7</ele>
        <time>2022-09-24T16:05:57Z</time>
      </trkpt>
      <trkpt lat="45.85161" lon="5.41223">
        <ele>201.7</ele>
        <time>2022-09-24T16:05:58Z</time>
      </trkpt>
      <trkpt lat="45.85159" lon="5.41226">
        <ele>201.8</ele>
        <time>2022-09-24T16:05:59Z</time>
      </trkpt>
      <trkpt lat="45.85156" lon="5.41229">
        <ele>201.9</ele>
        <time>2022-09-24T16:06:00Z</time>
      </trkpt>
      <trkpt lat="45.85154" lon="5.41233">
        <ele>201.9</ele>
        <time>2022-09-24T16:06:01Z</time>
      </trkpt>
      <trkpt lat="45.85152" lon="5.41236">
        <ele>202</ele>
        <time>2022-09-24T16:06:02Z</time>
      </trkpt>
      <trkpt lat="45.8515" lon="5.4124">
        <ele>202</ele>
        <time>2022-09-24T16:06:03Z</time>
      </trkpt>
      <trkpt lat="45.85148" lon="5.41243">
        <ele>202.1</ele>
        <time>2022-09-24T16:06:04Z</time>
      </trkpt>
      <trkpt lat="45.85145" lon="5.41247">
        <ele>202.1</ele>
        <time>2022-09-24T16:06:05Z</time>
      </trkpt>
      <trkpt lat="45.85143" lon="5.4125">
        <ele>202.2</ele>
        <time>2022-09-24T16:06:06Z</time>
      </trkpt>
      <trkpt lat="45.85139" lon="5.41254">
        <ele>202.2</ele>
        <time>2022-09-24T16:06:07Z</time>
      </trkpt>
      <trkpt lat="45.85137" lon="5.41258">
        <ele>202.2</ele>
        <time>2022-09-24T16:06:08Z</time>
      </trkpt>
      <trkpt lat="45.85134" lon="5.41262">
        <ele>202.2</ele>
        <time>2022-09-24T16:06:09Z</time>
      </trkpt>
      <trkpt lat="45.8513" lon="5.41265">
        <ele>202.3</ele>
        <time>2022-09-24T16:06:10Z</time>
      </trkpt>
      <trkpt lat="45.85126" lon="5.4127">
        <ele>202.3</ele>
        <time>2022-09-24T16:06:11Z</time>
      </trkpt>
      <trkpt lat="45.85123" lon="5.41274">
        <ele>202.3</ele>
        <time>2022-09-24T16:06:12Z</time>
      </trkpt>
      <trkpt lat="45.8512" lon="5.41278">
        <ele>202.3</ele>
        <time>2022-09-24T16:06:13Z</time>
      </trkpt>
      <trkpt lat="45.85118" lon="5.41283">
        <ele>202.3</ele>
        <time>2022-09-24T16:06:14Z</time>
      </trkpt>
      <trkpt lat="45.85114" lon="5.41286">
        <ele>202.3</ele>
        <time>2022-09-24T16:06:15Z</time>
      </trkpt>
      <trkpt lat="45.85112" lon="5.41291">
        <ele>202.3</ele>
        <time>2022-09-24T16:06:16Z</time>
      </trkpt>
      <trkpt lat="45.8511" lon="5.41293">
        <ele>202.3</ele>
        <time>2022-09-24T16:06:17Z</time>
      </trkpt>
      <trkpt lat="45.85108" lon="5.41297">
        <ele>202.3</ele>
        <time>2022-09-24T16:06:18Z</time>
      </trkpt>
      <trkpt lat="45.85104" lon="5.413">
        <ele>202.4</ele>
        <time>2022-09-24T16:06:19Z</time>
      </trkpt>
      <trkpt lat="45.85102" lon="5.41304">
        <ele>202.4</ele>
        <time>2022-09-24T16:06:20Z</time>
      </trkpt>
      <trkpt lat="45.85099" lon="5.41308">
        <ele>202.4</ele>
        <time>2022-09-24T16:06:21Z</time>
      </trkpt>
      <trkpt lat="45.85097" lon="5.41311">
        <ele>202.4</ele>
        <time>2022-09-24T16:06:22Z</time>
      </trkpt>
      <trkpt lat="45.85094" lon="5.41314">
        <ele>202.4</ele>
        <time>2022-09-24T16:06:23Z</time>
      </trkpt>
      <trkpt lat="45.85091" lon="5.41317">
        <ele>202.4</ele>
        <time>2022-09-24T16:06:24Z</time>
      </trkpt>
      <trkpt lat="45.85087" lon="5.4132">
        <ele>202.4</ele>
        <time>2022-09-24T16:06:25Z</time>
      </trkpt>
      <trkpt lat="45.85084" lon="5.41322">
        <ele>202.4</ele>
        <time>2022-09-24T16:06:26Z</time>
      </trkpt>
      <trkpt lat="45.85081" lon="5.41325">
        <ele>202.4</ele>
        <time>2022-09-24T16:06:27Z</time>
      </trkpt>
      <trkpt lat="45.85078" lon="5.41327">
        <ele>202.5</ele>
        <time>2022-09-24T16:06:28Z</time>
      </trkpt>
      <trkpt lat="45.85077" lon="5.41328">
        <ele>202.5</ele>
        <time>2022-09-24T16:06:29Z</time>
      </trkpt>
      <trkpt lat="45.85077" lon="5.41328">
        <ele>202.4</ele>
        <time>2022-09-24T16:06:30Z</time>
      </trkpt>
      <trkpt lat="45.85077" lon="5.41328">
        <ele>202.4</ele>
        <time>2022-09-24T16:06:31Z</time>
      </trkpt>
      <trkpt lat="45.85076" lon="5.41328">
        <ele>202.4</ele>
        <time>2022-09-24T16:06:32Z</time>
      </trkpt>
      <trkpt lat="45.85076" lon="5.41328">
        <ele>202.4</ele>
        <time>2022-09-24T16:06:33Z</time>
      </trkpt>
      <trkpt lat="45.85075" lon="5.41328">
        <ele>202.4</ele>
        <time>2022-09-24T16:06:34Z</time>
      </trkpt>
      <trkpt lat="45.85075" lon="5.41328">
        <ele>202.4</ele>
        <time>2022-09-24T16:06:35Z</time>
      </trkpt>
      <trkpt lat="45.85074" lon="5.41328">
        <ele>202.4</ele>
        <time>2022-09-24T16:06:36Z</time>
      </trkpt>
      <trkpt lat="45.85074" lon="5.41328">
        <ele>202.4</ele>
        <time>2022-09-24T16:06:37Z</time>
      </trkpt>
      <trkpt lat="45.85073" lon="5.41328">
        <ele>202.4</ele>
        <time>2022-09-24T16:06:38Z</time>
      </trkpt>
      <trkpt lat="45.85073" lon="5.41328">
        <ele>202.4</ele>
        <time>2022-09-24T16:06:39Z</time>
      </trkpt>
      <trkpt lat="45.85072" lon="5.41328">
        <ele>202.4</ele>
        <time>2022-09-24T16:06:40Z</time>
      </trkpt>
      <trkpt lat="45.85072" lon="5.41329">
        <ele>202.4</ele>
        <time>2022-09-24T16:06:41Z</time>
      </trkpt>
      <trkpt lat="45.85072" lon="5.41329">
        <ele>202.4</ele>
        <time>2022-09-24T16:06:42Z</time>
      </trkpt>
      <trkpt lat="45.85071" lon="5.41329">
        <ele>202.4</ele>
        <time>2022-09-24T16:06:43Z</time>
      </trkpt>
      <trkpt lat="45.85071" lon="5.41329">
        <ele>202.4</ele>
        <time>2022-09-24T16:06:44Z</time>
      </trkpt>
      <trkpt lat="45.8507" lon="5.41328">
        <ele>202.4</ele>
        <time>2022-09-24T16:06:45Z</time>
      </trkpt>
      <trkpt lat="45.85069" lon="5.41328">
        <ele>202.4</ele>
        <time>2022-09-24T16:06:46Z</time>
      </trkpt>
      <trkpt lat="45.85067" lon="5.41328">
        <ele>202.4</ele>
        <time>2022-09-24T16:06:47Z</time>
      </trkpt>
      <trkpt lat="45.85067" lon="5.41327">
        <ele>202.4</ele>
        <time>2022-09-24T16:06:48Z</time>
      </trkpt>
      <trkpt lat="45.85066" lon="5.41325">
        <ele>202.3</ele>
        <time>2022-09-24T16:06:49Z</time>
      </trkpt>
      <trkpt lat="45.85064" lon="5.41326">
        <ele>202.3</ele>
        <time>2022-09-24T16:06:50Z</time>
      </trkpt>
      <trkpt lat="45.85063" lon="5.41327">
        <ele>202.3</ele>
        <time>2022-09-24T16:06:52Z</time>
      </trkpt>
      <trkpt lat="45.85062" lon="5.41328">
        <ele>202.3</ele>
        <time>2022-09-24T16:06:53Z</time>
      </trkpt>
      <trkpt lat="45.85062" lon="5.4133">
        <ele>202.3</ele>
        <time>2022-09-24T16:06:54Z</time>
      </trkpt>
      <trkpt lat="45.85061" lon="5.41332">
        <ele>202.2</ele>
        <time>2022-09-24T16:06:56Z</time>
      </trkpt>
      <trkpt lat="45.85061" lon="5.41335">
        <ele>202.2</ele>
        <time>2022-09-24T16:06:57Z</time>
      </trkpt>
      <trkpt lat="45.85061" lon="5.41336">
        <ele>202.2</ele>
        <time>2022-09-24T16:06:58Z</time>
      </trkpt>
      <trkpt lat="45.85059" lon="5.4134">
        <ele>202.2</ele>
        <time>2022-09-24T16:07:00Z</time>
      </trkpt>
      <trkpt lat="45.85058" lon="5.41342">
        <ele>202.1</ele>
        <time>2022-09-24T16:07:01Z</time>
      </trkpt>
      <trkpt lat="45.85058" lon="5.41344">
        <ele>202.1</ele>
        <time>2022-09-24T16:07:02Z</time>
      </trkpt>
      <trkpt lat="45.85057" lon="5.41346">
        <ele>202.1</ele>
        <time>2022-09-24T16:07:03Z</time>
      </trkpt>
      <trkpt lat="45.85056" lon="5.41349">
        <ele>202.1</ele>
        <time>2022-09-24T16:07:04Z</time>
      </trkpt>
      <trkpt lat="45.85055" lon="5.41351">
        <ele>202</ele>
        <time>2022-09-24T16:07:05Z</time>
      </trkpt>
      <trkpt lat="45.85054" lon="5.41353">
        <ele>202</ele>
        <time>2022-09-24T16:07:06Z</time>
      </trkpt>
      <trkpt lat="45.85053" lon="5.41355">
        <ele>202</ele>
        <time>2022-09-24T16:07:07Z</time>
      </trkpt>
      <trkpt lat="45.85052" lon="5.41357">
        <ele>202</ele>
        <time>2022-09-24T16:07:08Z</time>
      </trkpt>
      <trkpt lat="45.85051" lon="5.41359">
        <ele>202</ele>
        <time>2022-09-24T16:07:10Z</time>
      </trkpt>
      <trkpt lat="45.8505" lon="5.41362">
        <ele>202</ele>
        <time>2022-09-24T16:09:19Z</time>
      </trkpt>
      <trkpt lat="45.85049" lon="5.41364">
        <ele>202</ele>
        <time>2022-09-24T16:09:20Z</time>
      </trkpt>
      <trkpt lat="45.85048" lon="5.41366">
        <ele>201.9</ele>
        <time>2022-09-24T16:09:21Z</time>
      </trkpt>
      <trkpt lat="45.85051" lon="5.41363">
        <ele>201.9</ele>
        <time>2022-09-24T16:09:22Z</time>
      </trkpt>
      <trkpt lat="45.85053" lon="5.41361">
        <ele>201.9</ele>
        <time>2022-09-24T16:09:23Z</time>
      </trkpt>
      <trkpt lat="45.85056" lon="5.41358">
        <ele>201.9</ele>
        <time>2022-09-24T16:09:24Z</time>
      </trkpt>
      <trkpt lat="45.85058" lon="5.41354">
        <ele>201.8</ele>
        <time>2022-09-24T16:09:25Z</time>
      </trkpt>
      <trkpt lat="45.85058" lon="5.41353">
        <ele>201.8</ele>
        <time>2022-09-24T16:09:26Z</time>
      </trkpt>
      <trkpt lat="45.85059" lon="5.41352">
        <ele>201.8</ele>
        <time>2022-09-24T16:09:27Z</time>
      </trkpt>
      <trkpt lat="45.85059" lon="5.41351">
        <ele>201.8</ele>
        <time>2022-09-24T16:09:28Z</time>
      </trkpt>
      <trkpt lat="45.85063" lon="5.41347">
        <ele>201.8</ele>
        <time>2022-09-24T16:09:48Z</time>
      </trkpt>
      <trkpt lat="45.85061" lon="5.41351">
        <ele>201.8</ele>
        <time>2022-09-24T16:09:49Z</time>
      </trkpt>
      <trkpt lat="45.85059" lon="5.41352">
        <ele>201.7</ele>
        <time>2022-09-24T16:09:50Z</time>
      </trkpt>
      <trkpt lat="45.85058" lon="5.41353">
        <ele>201.7</ele>
        <time>2022-09-24T16:09:51Z</time>
      </trkpt>
      <trkpt lat="45.85057" lon="5.41354">
        <ele>201.7</ele>
        <time>2022-09-24T16:09:52Z</time>
      </trkpt>
      <trkpt lat="45.85054" lon="5.41356">
        <ele>201.7</ele>
        <time>2022-09-24T16:09:53Z</time>
      </trkpt>
      <trkpt lat="45.85053" lon="5.41357">
        <ele>201.7</ele>
        <time>2022-09-24T16:09:54Z</time>
      </trkpt>
      <trkpt lat="45.85051" lon="5.41357">
        <ele>201.7</ele>
        <time>2022-09-24T16:09:55Z</time>
      </trkpt>
      <trkpt lat="45.85049" lon="5.41358">
        <ele>201.7</ele>
        <time>2022-09-24T16:09:56Z</time>
      </trkpt>
      <trkpt lat="45.85048" lon="5.41358">
        <ele>201.6</ele>
        <time>2022-09-24T16:09:57Z</time>
      </trkpt>
      <trkpt lat="45.85046" lon="5.41358">
        <ele>201.6</ele>
        <time>2022-09-24T16:09:58Z</time>
      </trkpt>
      <trkpt lat="45.85045" lon="5.41358">
        <ele>201.6</ele>
        <time>2022-09-24T16:09:59Z</time>
      </trkpt>
      <trkpt lat="45.85043" lon="5.41358">
        <ele>201.6</ele>
        <time>2022-09-24T16:10:00Z</time>
      </trkpt>
      <trkpt lat="45.85042" lon="5.41357">
        <ele>201.6</ele>
        <time>2022-09-24T16:10:01Z</time>
      </trkpt>
      <trkpt lat="45.85041" lon="5.41356">
        <ele>201.6</ele>
        <time>2022-09-24T16:10:02Z</time>
      </trkpt>
      <trkpt lat="45.85039" lon="5.41355">
        <ele>201.5</ele>
        <time>2022-09-24T16:10:03Z</time>
      </trkpt>
      <trkpt lat="45.85038" lon="5.41354">
        <ele>201.5</ele>
        <time>2022-09-24T16:10:04Z</time>
      </trkpt>
      <trkpt lat="45.85037" lon="5.41352">
        <ele>201.5</ele>
        <time>2022-09-24T16:10:05Z</time>
      </trkpt>
      <trkpt lat="45.85036" lon="5.4135">
        <ele>201.5</ele>
        <time>2022-09-24T16:10:06Z</time>
      </trkpt>
      <trkpt lat="45.85035" lon="5.41349">
        <ele>201.5</ele>
        <time>2022-09-24T16:10:07Z</time>
      </trkpt>
      <trkpt lat="45.85034" lon="5.41346">
        <ele>201.5</ele>
        <time>2022-09-24T16:10:08Z</time>
      </trkpt>
      <trkpt lat="45.85034" lon="5.41345">
        <ele>201.5</ele>
        <time>2022-09-24T16:10:09Z</time>
      </trkpt>
      <trkpt lat="45.85034" lon="5.41343">
        <ele>201.5</ele>
        <time>2022-09-24T16:10:10Z</time>
      </trkpt>
      <trkpt lat="45.85034" lon="5.4134">
        <ele>201.5</ele>
        <time>2022-09-24T16:10:11Z</time>
      </trkpt>
      <trkpt lat="45.85033" lon="5.41338">
        <ele>201.5</ele>
        <time>2022-09-24T16:10:12Z</time>
      </trkpt>
      <trkpt lat="45.85033" lon="5.41336">
        <ele>201.5</ele>
        <time>2022-09-24T16:10:13Z</time>
      </trkpt>
      <trkpt lat="45.85033" lon="5.41334">
        <ele>201.5</ele>
        <time>2022-09-24T16:10:14Z</time>
      </trkpt>
      <trkpt lat="45.85033" lon="5.41331">
        <ele>201.5</ele>
        <time>2022-09-24T16:10:15Z</time>
      </trkpt>
      <trkpt lat="45.85033" lon="5.41329">
        <ele>201.5</ele>
        <time>2022-09-24T16:10:16Z</time>
      </trkpt>
      <trkpt lat="45.85033" lon="5.41327">
        <ele>201.5</ele>
        <time>2022-09-24T16:10:17Z</time>
      </trkpt>
      <trkpt lat="45.85033" lon="5.41325">
        <ele>201.5</ele>
        <time>2022-09-24T16:10:18Z</time>
      </trkpt>
      <trkpt lat="45.85033" lon="5.41323">
        <ele>201.6</ele>
        <time>2022-09-24T16:10:19Z</time>
      </trkpt>
      <trkpt lat="45.85033" lon="5.41321">
        <ele>201.6</ele>
        <time>2022-09-24T16:10:20Z</time>
      </trkpt>
      <trkpt lat="45.85033" lon="5.41318">
        <ele>201.6</ele>
        <time>2022-09-24T16:10:21Z</time>
      </trkpt>
      <trkpt lat="45.85033" lon="5.41316">
        <ele>201.6</ele>
        <time>2022-09-24T16:10:22Z</time>
      </trkpt>
      <trkpt lat="45.85033" lon="5.41313">
        <ele>201.6</ele>
        <time>2022-09-24T16:10:23Z</time>
      </trkpt>
      <trkpt lat="45.85033" lon="5.41311">
        <ele>201.6</ele>
        <time>2022-09-24T16:10:24Z</time>
      </trkpt>
      <trkpt lat="45.85033" lon="5.4131">
        <ele>201.6</ele>
        <time>2022-09-24T16:10:25Z</time>
      </trkpt>
      <trkpt lat="45.85033" lon="5.41308">
        <ele>201.6</ele>
        <time>2022-09-24T16:10:26Z</time>
      </trkpt>
      <trkpt lat="45.85034" lon="5.41306">
        <ele>201.6</ele>
        <time>2022-09-24T16:10:27Z</time>
      </trkpt>
      <trkpt lat="45.85034" lon="5.41303">
        <ele>201.6</ele>
        <time>2022-09-24T16:10:28Z</time>
      </trkpt>
      <trkpt lat="45.85034" lon="5.41302">
        <ele>201.6</ele>
        <time>2022-09-24T16:10:29Z</time>
      </trkpt>
      <trkpt lat="45.85034" lon="5.413">
        <ele>201.6</ele>
        <time>2022-09-24T16:10:30Z</time>
      </trkpt>
      <trkpt lat="45.85034" lon="5.41298">
        <ele>201.6</ele>
        <time>2022-09-24T16:10:31Z</time>
      </trkpt>
      <trkpt lat="45.85033" lon="5.41296">
        <ele>201.6</ele>
        <time>2022-09-24T16:10:32Z</time>
      </trkpt>
      <trkpt lat="45.85033" lon="5.41294">
        <ele>201.6</ele>
        <time>2022-09-24T16:10:33Z</time>
      </trkpt>
      <trkpt lat="45.85033" lon="5.41291">
        <ele>201.5</ele>
        <time>2022-09-24T16:10:34Z</time>
      </trkpt>
      <trkpt lat="45.85033" lon="5.4129">
        <ele>201.5</ele>
        <time>2022-09-24T16:10:35Z</time>
      </trkpt>
      <trkpt lat="45.85032" lon="5.41287">
        <ele>201.5</ele>
        <time>2022-09-24T16:10:36Z</time>
      </trkpt>
      <trkpt lat="45.85032" lon="5.41285">
        <ele>201.5</ele>
        <time>2022-09-24T16:10:37Z</time>
      </trkpt>
      <trkpt lat="45.85032" lon="5.41283">
        <ele>201.5</ele>
        <time>2022-09-24T16:10:38Z</time>
      </trkpt>
      <trkpt lat="45.85031" lon="5.41281">
        <ele>201.5</ele>
        <time>2022-09-24T16:10:39Z</time>
      </trkpt>
      <trkpt lat="45.85031" lon="5.41279">
        <ele>201.5</ele>
        <time>2022-09-24T16:10:40Z</time>
      </trkpt>
      <trkpt lat="45.85032" lon="5.41278">
        <ele>201.5</ele>
        <time>2022-09-24T16:10:41Z</time>
      </trkpt>
      <trkpt lat="45.85032" lon="5.41275">
        <ele>201.5</ele>
        <time>2022-09-24T16:10:42Z</time>
      </trkpt>
      <trkpt lat="45.85034" lon="5.41273">
        <ele>201.4</ele>
        <time>2022-09-24T16:10:43Z</time>
      </trkpt>
      <trkpt lat="45.85035" lon="5.41272">
        <ele>201.4</ele>
        <time>2022-09-24T16:10:44Z</time>
      </trkpt>
      <trkpt lat="45.85035" lon="5.41272">
        <ele>201.4</ele>
        <time>2022-09-24T16:10:45Z</time>
      </trkpt>
      <trkpt lat="45.85036" lon="5.41272">
        <ele>201.4</ele>
        <time>2022-09-24T16:10:46Z</time>
      </trkpt>
      <trkpt lat="45.85038" lon="5.41271">
        <ele>201.4</ele>
        <time>2022-09-24T16:10:47Z</time>
      </trkpt>
      <trkpt lat="45.85039" lon="5.41271">
        <ele>201.4</ele>
        <time>2022-09-24T16:10:48Z</time>
      </trkpt>
      <trkpt lat="45.8504" lon="5.4127">
        <ele>201.4</ele>
        <time>2022-09-24T16:10:49Z</time>
      </trkpt>
      <trkpt lat="45.85042" lon="5.4127">
        <ele>201.4</ele>
        <time>2022-09-24T16:10:50Z</time>
      </trkpt>
      <trkpt lat="45.85043" lon="5.4127">
        <ele>201.4</ele>
        <time>2022-09-24T16:10:51Z</time>
      </trkpt>
      <trkpt lat="45.85044" lon="5.4127">
        <ele>201.4</ele>
        <time>2022-09-24T16:10:52Z</time>
      </trkpt>
      <trkpt lat="45.85044" lon="5.4127">
        <ele>201.4</ele>
        <time>2022-09-24T16:10:53Z</time>
      </trkpt>
      <trkpt lat="45.85045" lon="5.4127">
        <ele>201.4</ele>
        <time>2022-09-24T16:10:54Z</time>
      </trkpt>
      <trkpt lat="45.85045" lon="5.4127">
        <ele>201.4</ele>
        <time>2022-09-24T16:10:55Z</time>
      </trkpt>
      <trkpt lat="45.85045" lon="5.4127">
        <ele>201.4</ele>
        <time>2022-09-24T16:10:56Z</time>
      </trkpt>
      <trkpt lat="45.85045" lon="5.4127">
        <ele>201.4</ele>
        <time>2022-09-24T16:10:57Z</time>
      </trkpt>
      <trkpt lat="45.85045" lon="5.4127">
        <ele>201.4</ele>
        <time>2022-09-24T16:10:58Z</time>
      </trkpt>
      <trkpt lat="45.85045" lon="5.4127">
        <ele>201.4</ele>
        <time>2022-09-24T16:10:59Z</time>
      </trkpt>
      <trkpt lat="45.85045" lon="5.4127">
        <ele>201.3</ele>
        <time>2022-09-24T16:11:00Z</time>
      </trkpt>
      <trkpt lat="45.85047" lon="5.4127">
        <ele>201.3</ele>
        <time>2022-09-24T16:11:01Z</time>
      </trkpt>
      <trkpt lat="45.85047" lon="5.41269">
        <ele>201.3</ele>
        <time>2022-09-24T16:11:02Z</time>
      </trkpt>
      <trkpt lat="45.85049" lon="5.41269">
        <ele>201.3</ele>
        <time>2022-09-24T16:11:03Z</time>
      </trkpt>
      <trkpt lat="45.8505" lon="5.41269">
        <ele>201.3</ele>
        <time>2022-09-24T16:11:04Z</time>
      </trkpt>
      <trkpt lat="45.85051" lon="5.41269">
        <ele>201.3</ele>
        <time>2022-09-24T16:11:05Z</time>
      </trkpt>
      <trkpt lat="45.85051" lon="5.41269">
        <ele>201.3</ele>
        <time>2022-09-24T16:11:06Z</time>
      </trkpt>
      <trkpt lat="45.85052" lon="5.41268">
        <ele>201.3</ele>
        <time>2022-09-24T16:11:07Z</time>
      </trkpt>
      <trkpt lat="45.85053" lon="5.41266">
        <ele>201.3</ele>
        <time>2022-09-24T16:11:08Z</time>
      </trkpt>
      <trkpt lat="45.85053" lon="5.41265">
        <ele>201.3</ele>
        <time>2022-09-24T16:11:09Z</time>
      </trkpt>
      <trkpt lat="45.85053" lon="5.41264">
        <ele>201.3</ele>
        <time>2022-09-24T16:11:10Z</time>
      </trkpt>
      <trkpt lat="45.85054" lon="5.41262">
        <ele>201.3</ele>
        <time>2022-09-24T16:11:11Z</time>
      </trkpt>
      <trkpt lat="45.85053" lon="5.41261">
        <ele>201.3</ele>
        <time>2022-09-24T16:11:12Z</time>
      </trkpt>
      <trkpt lat="45.85052" lon="5.41261">
        <ele>201.3</ele>
        <time>2022-09-24T16:11:13Z</time>
      </trkpt>
      <trkpt lat="45.85051" lon="5.4126">
        <ele>201.3</ele>
        <time>2022-09-24T16:11:14Z</time>
      </trkpt>
      <trkpt lat="45.85051" lon="5.4126">
        <ele>201.3</ele>
        <time>2022-09-24T16:11:16Z</time>
      </trkpt>
      <trkpt lat="45.85049" lon="5.41259">
        <ele>201.3</ele>
        <time>2022-09-24T16:11:17Z</time>
      </trkpt>
      <trkpt lat="45.85048" lon="5.41258">
        <ele>201.3</ele>
        <time>2022-09-24T16:11:18Z</time>
      </trkpt>
      <trkpt lat="45.85048" lon="5.41256">
        <ele>201.3</ele>
        <time>2022-09-24T16:11:19Z</time>
      </trkpt>
      <trkpt lat="45.85047" lon="5.41254">
        <ele>201.3</ele>
        <time>2022-09-24T16:11:20Z</time>
      </trkpt>
      <trkpt lat="45.85047" lon="5.41251">
        <ele>201.3</ele>
        <time>2022-09-24T16:11:21Z</time>
      </trkpt>
      <trkpt lat="45.85046" lon="5.4125">
        <ele>201.3</ele>
        <time>2022-09-24T16:11:22Z</time>
      </trkpt>
      <trkpt lat="45.85046" lon="5.41249">
        <ele>201.3</ele>
        <time>2022-09-24T16:11:23Z</time>
      </trkpt>
      <trkpt lat="45.85045" lon="5.41248">
        <ele>201.3</ele>
        <time>2022-09-24T16:11:24Z</time>
      </trkpt>
      <trkpt lat="45.85045" lon="5.41247">
        <ele>201.3</ele>
        <time>2022-09-24T16:11:25Z</time>
      </trkpt>
      <trkpt lat="45.85044" lon="5.41245">
        <ele>201.3</ele>
        <time>2022-09-24T16:11:26Z</time>
      </trkpt>
      <trkpt lat="45.85043" lon="5.41246">
        <ele>201.3</ele>
        <time>2022-09-24T16:11:27Z</time>
      </trkpt>
      <trkpt lat="45.85043" lon="5.41246">
        <ele>201.3</ele>
        <time>2022-09-24T16:11:28Z</time>
      </trkpt>
      <trkpt lat="45.85042" lon="5.41247">
        <ele>201.3</ele>
        <time>2022-09-24T16:11:29Z</time>
      </trkpt>
      <trkpt lat="45.85042" lon="5.41247">
        <ele>201.3</ele>
        <time>2022-09-24T16:11:30Z</time>
      </trkpt>
      <trkpt lat="45.85042" lon="5.41248">
        <ele>201.2</ele>
        <time>2022-09-24T16:11:31Z</time>
      </trkpt>
      <trkpt lat="45.85041" lon="5.41248">
        <ele>201.2</ele>
        <time>2022-09-24T16:11:32Z</time>
      </trkpt>
      <trkpt lat="45.85041" lon="5.41248">
        <ele>201.2</ele>
        <time>2022-09-24T16:11:33Z</time>
      </trkpt>
      <trkpt lat="45.85041" lon="5.41249">
        <ele>201.2</ele>
        <time>2022-09-24T16:11:34Z</time>
      </trkpt>
      <trkpt lat="45.8504" lon="5.41249">
        <ele>201.2</ele>
        <time>2022-09-24T16:11:35Z</time>
      </trkpt>
      <trkpt lat="45.8504" lon="5.41249">
        <ele>201.2</ele>
        <time>2022-09-24T16:11:36Z</time>
      </trkpt>
      <trkpt lat="45.8504" lon="5.4125">
        <ele>201.2</ele>
        <time>2022-09-24T16:11:38Z</time>
      </trkpt>
      <trkpt lat="45.85039" lon="5.4125">
        <ele>201.2</ele>
        <time>2022-09-24T16:11:39Z</time>
      </trkpt>
      <trkpt lat="45.85039" lon="5.41251">
        <ele>201.2</ele>
        <time>2022-09-24T16:11:40Z</time>
      </trkpt>
      <trkpt lat="45.85039" lon="5.41251">
        <ele>201.2</ele>
        <time>2022-09-24T16:11:41Z</time>
      </trkpt>
      <trkpt lat="45.85038" lon="5.41251">
        <ele>201.2</ele>
        <time>2022-09-24T16:11:42Z</time>
      </trkpt>
      <trkpt lat="45.85039" lon="5.4125">
        <ele>201.2</ele>
        <time>2022-09-24T16:11:43Z</time>
      </trkpt>
      <trkpt lat="45.85039" lon="5.41249">
        <ele>201.2</ele>
        <time>2022-09-24T16:11:44Z</time>
      </trkpt>
      <trkpt lat="45.85039" lon="5.41248">
        <ele>201.2</ele>
        <time>2022-09-24T16:11:45Z</time>
      </trkpt>
      <trkpt lat="45.85039" lon="5.41247">
        <ele>201.2</ele>
        <time>2022-09-24T16:11:46Z</time>
      </trkpt>
      <trkpt lat="45.85039" lon="5.41246">
        <ele>201.2</ele>
        <time>2022-09-24T16:11:47Z</time>
      </trkpt>
      <trkpt lat="45.85039" lon="5.41246">
        <ele>201.2</ele>
        <time>2022-09-24T16:11:48Z</time>
      </trkpt>
      <trkpt lat="45.85039" lon="5.41245">
        <ele>201.2</ele>
        <time>2022-09-24T16:11:49Z</time>
      </trkpt>
      <trkpt lat="45.85039" lon="5.41244">
        <ele>201.2</ele>
        <time>2022-09-24T16:11:50Z</time>
      </trkpt>
      <trkpt lat="45.85039" lon="5.41243">
        <ele>201.2</ele>
        <time>2022-09-24T16:13:07Z</time>
      </trkpt>
      <trkpt lat="45.85039" lon="5.41242">
        <ele>201.2</ele>
        <time>2022-09-24T16:13:08Z</time>
      </trkpt>
      <trkpt lat="45.85037" lon="5.41242">
        <ele>201.2</ele>
        <time>2022-09-24T16:13:09Z</time>
      </trkpt>
      <trkpt lat="45.85036" lon="5.41241">
        <ele>201.2</ele>
        <time>2022-09-24T16:13:10Z</time>
      </trkpt>
      <trkpt lat="45.85035" lon="5.4124">
        <ele>201.2</ele>
        <time>2022-09-24T16:13:12Z</time>
      </trkpt>
      <trkpt lat="45.85032" lon="5.41239">
        <ele>201.2</ele>
        <time>2022-09-24T16:13:13Z</time>
      </trkpt>
      <trkpt lat="45.85031" lon="5.41238">
        <ele>201.2</ele>
        <time>2022-09-24T16:13:14Z</time>
      </trkpt>
      <trkpt lat="45.8503" lon="5.41237">
        <ele>201.2</ele>
        <time>2022-09-24T16:13:15Z</time>
      </trkpt>
      <trkpt lat="45.85028" lon="5.41237">
        <ele>201.2</ele>
        <time>2022-09-24T16:13:16Z</time>
      </trkpt>
      <trkpt lat="45.85027" lon="5.41237">
        <ele>201.2</ele>
        <time>2022-09-24T16:13:17Z</time>
      </trkpt>
      <trkpt lat="45.85025" lon="5.41236">
        <ele>201.2</ele>
        <time>2022-09-24T16:13:18Z</time>
      </trkpt>
      <trkpt lat="45.85024" lon="5.41237">
        <ele>201.2</ele>
        <time>2022-09-24T16:13:19Z</time>
      </trkpt>
      <trkpt lat="45.85023" lon="5.41236">
        <ele>201.2</ele>
        <time>2022-09-24T16:13:20Z</time>
      </trkpt>
      <trkpt lat="45.85021" lon="5.41236">
        <ele>201.2</ele>
        <time>2022-09-24T16:13:22Z</time>
      </trkpt>
      <trkpt lat="45.85018" lon="5.41235">
        <ele>201.2</ele>
        <time>2022-09-24T16:13:23Z</time>
      </trkpt>
      <trkpt lat="45.85017" lon="5.41234">
        <ele>201.2</ele>
        <time>2022-09-24T16:13:24Z</time>
      </trkpt>
      <trkpt lat="45.85015" lon="5.41233">
        <ele>201.2</ele>
        <time>2022-09-24T16:13:25Z</time>
      </trkpt>
      <trkpt lat="45.85014" lon="5.41232">
        <ele>201.2</ele>
        <time>2022-09-24T16:13:26Z</time>
      </trkpt>
      <trkpt lat="45.85013" lon="5.41232">
        <ele>201.2</ele>
        <time>2022-09-24T16:13:27Z</time>
      </trkpt>
      <trkpt lat="45.85012" lon="5.41231">
        <ele>201.2</ele>
        <time>2022-09-24T16:13:28Z</time>
      </trkpt>
      <trkpt lat="45.8501" lon="5.4123">
        <ele>201.2</ele>
        <time>2022-09-24T16:13:29Z</time>
      </trkpt>
      <trkpt lat="45.8501" lon="5.4123">
        <ele>201.2</ele>
        <time>2022-09-24T16:13:30Z</time>
      </trkpt>
      <trkpt lat="45.85008" lon="5.41229">
        <ele>201.2</ele>
        <time>2022-09-24T16:13:31Z</time>
      </trkpt>
      <trkpt lat="45.85007" lon="5.41229">
        <ele>201.2</ele>
        <time>2022-09-24T16:13:32Z</time>
      </trkpt>
      <trkpt lat="45.85005" lon="5.41228">
        <ele>201.1</ele>
        <time>2022-09-24T16:13:33Z</time>
      </trkpt>
      <trkpt lat="45.85004" lon="5.41228">
        <ele>201.1</ele>
        <time>2022-09-24T16:13:34Z</time>
      </trkpt>
      <trkpt lat="45.85003" lon="5.41227">
        <ele>201.1</ele>
        <time>2022-09-24T16:13:35Z</time>
      </trkpt>
      <trkpt lat="45.85002" lon="5.41226">
        <ele>201.1</ele>
        <time>2022-09-24T16:13:36Z</time>
      </trkpt>
      <trkpt lat="45.85001" lon="5.41225">
        <ele>201.1</ele>
        <time>2022-09-24T16:13:37Z</time>
      </trkpt>
      <trkpt lat="45.84999" lon="5.41224">
        <ele>201.1</ele>
        <time>2022-09-24T16:13:38Z</time>
      </trkpt>
      <trkpt lat="45.84997" lon="5.41223">
        <ele>201</ele>
        <time>2022-09-24T16:13:39Z</time>
      </trkpt>
      <trkpt lat="45.84996" lon="5.41222">
        <ele>201</ele>
        <time>2022-09-24T16:13:40Z</time>
      </trkpt>
      <trkpt lat="45.84995" lon="5.41222">
        <ele>201</ele>
        <time>2022-09-24T16:13:41Z</time>
      </trkpt>
      <trkpt lat="45.84994" lon="5.41221">
        <ele>201</ele>
        <time>2022-09-24T16:13:42Z</time>
      </trkpt>
      <trkpt lat="45.84994" lon="5.41221">
        <ele>201</ele>
        <time>2022-09-24T16:13:43Z</time>
      </trkpt>
      <trkpt lat="45.84992" lon="5.4122">
        <ele>201</ele>
        <time>2022-09-24T16:13:44Z</time>
      </trkpt>
      <trkpt lat="45.84991" lon="5.41219">
        <ele>201</ele>
        <time>2022-09-24T16:13:45Z</time>
      </trkpt>
      <trkpt lat="45.84989" lon="5.41218">
        <ele>201</ele>
        <time>2022-09-24T16:13:46Z</time>
      </trkpt>
      <trkpt lat="45.84987" lon="5.41217">
        <ele>201</ele>
        <time>2022-09-24T16:13:47Z</time>
      </trkpt>
      <trkpt lat="45.84987" lon="5.41216">
        <ele>201</ele>
        <time>2022-09-24T16:13:48Z</time>
      </trkpt>
      <trkpt lat="45.84986" lon="5.41216">
        <ele>201</ele>
        <time>2022-09-24T16:13:49Z</time>
      </trkpt>
      <trkpt lat="45.84984" lon="5.41215">
        <ele>201</ele>
        <time>2022-09-24T16:13:50Z</time>
      </trkpt>
      <trkpt lat="45.84983" lon="5.41214">
        <ele>201</ele>
        <time>2022-09-24T16:13:51Z</time>
      </trkpt>
      <trkpt lat="45.84982" lon="5.41214">
        <ele>201</ele>
        <time>2022-09-24T16:13:52Z</time>
      </trkpt>
      <trkpt lat="45.84981" lon="5.41213">
        <ele>201</ele>
        <time>2022-09-24T16:13:53Z</time>
      </trkpt>
      <trkpt lat="45.8498" lon="5.41213">
        <ele>201</ele>
        <time>2022-09-24T16:13:54Z</time>
      </trkpt>
      <trkpt lat="45.8498" lon="5.41212">
        <ele>201</ele>
        <time>2022-09-24T16:13:55Z</time>
      </trkpt>
      <trkpt lat="45.84979" lon="5.41211">
        <ele>201</ele>
        <time>2022-09-24T16:13:56Z</time>
      </trkpt>
      <trkpt lat="45.8498" lon="5.4121">
        <ele>201</ele>
        <time>2022-09-24T16:13:57Z</time>
      </trkpt>
      <trkpt lat="45.8498" lon="5.4121">
        <ele>201</ele>
        <time>2022-09-24T16:13:58Z</time>
      </trkpt>
      <trkpt lat="45.84982" lon="5.41211">
        <ele>201</ele>
        <time>2022-09-24T16:13:59Z</time>
      </trkpt>
      <trkpt lat="45.84983" lon="5.41211">
        <ele>201</ele>
        <time>2022-09-24T16:14:00Z</time>
      </trkpt>
      <trkpt lat="45.84983" lon="5.41213">
        <ele>201</ele>
        <time>2022-09-24T16:14:01Z</time>
      </trkpt>
      <trkpt lat="45.84985" lon="5.41215">
        <ele>201</ele>
        <time>2022-09-24T16:14:02Z</time>
      </trkpt>
      <trkpt lat="45.84987" lon="5.41216">
        <ele>201</ele>
        <time>2022-09-24T16:14:03Z</time>
      </trkpt>
      <trkpt lat="45.84988" lon="5.41217">
        <ele>201</ele>
        <time>2022-09-24T16:14:04Z</time>
      </trkpt>
      <trkpt lat="45.84989" lon="5.41217">
        <ele>201</ele>
        <time>2022-09-24T16:14:05Z</time>
      </trkpt>
      <trkpt lat="45.84991" lon="5.41218">
        <ele>201</ele>
        <time>2022-09-24T16:14:06Z</time>
      </trkpt>
      <trkpt lat="45.84992" lon="5.41219">
        <ele>201</ele>
        <time>2022-09-24T16:14:07Z</time>
      </trkpt>
      <trkpt lat="45.84995" lon="5.4122">
        <ele>201</ele>
        <time>2022-09-24T16:14:08Z</time>
      </trkpt>
      <trkpt lat="45.84996" lon="5.4122">
        <ele>201</ele>
        <time>2022-09-24T16:14:09Z</time>
      </trkpt>
      <trkpt lat="45.84996" lon="5.41221">
        <ele>201</ele>
        <time>2022-09-24T16:14:10Z</time>
      </trkpt>
      <trkpt lat="45.84998" lon="5.41222">
        <ele>201</ele>
        <time>2022-09-24T16:14:11Z</time>
      </trkpt>
      <trkpt lat="45.84999" lon="5.41222">
        <ele>201.1</ele>
        <time>2022-09-24T16:14:12Z</time>
      </trkpt>
      <trkpt lat="45.85" lon="5.41223">
        <ele>201.1</ele>
        <time>2022-09-24T16:14:13Z</time>
      </trkpt>
      <trkpt lat="45.85002" lon="5.41224">
        <ele>201.1</ele>
        <time>2022-09-24T16:14:14Z</time>
      </trkpt>
      <trkpt lat="45.85003" lon="5.41225">
        <ele>201.1</ele>
        <time>2022-09-24T16:14:15Z</time>
      </trkpt>
      <trkpt lat="45.85005" lon="5.41226">
        <ele>201.1</ele>
        <time>2022-09-24T16:14:16Z</time>
      </trkpt>
      <trkpt lat="45.85006" lon="5.41227">
        <ele>201.1</ele>
        <time>2022-09-24T16:14:17Z</time>
      </trkpt>
      <trkpt lat="45.85006" lon="5.41227">
        <ele>201.1</ele>
        <time>2022-09-24T16:14:18Z</time>
      </trkpt>
      <trkpt lat="45.85008" lon="5.41229">
        <ele>201.2</ele>
        <time>2022-09-24T16:14:19Z</time>
      </trkpt>
      <trkpt lat="45.85009" lon="5.41229">
        <ele>201.2</ele>
        <time>2022-09-24T16:14:20Z</time>
      </trkpt>
      <trkpt lat="45.85012" lon="5.4123">
        <ele>201.2</ele>
        <time>2022-09-24T16:14:21Z</time>
      </trkpt>
      <trkpt lat="45.85013" lon="5.4123">
        <ele>201.2</ele>
        <time>2022-09-24T16:14:22Z</time>
      </trkpt>
      <trkpt lat="45.85015" lon="5.41231">
        <ele>201.2</ele>
        <time>2022-09-24T16:14:23Z</time>
      </trkpt>
      <trkpt lat="45.85016" lon="5.41232">
        <ele>201.2</ele>
        <time>2022-09-24T16:14:24Z</time>
      </trkpt>
      <trkpt lat="45.85017" lon="5.41232">
        <ele>201.2</ele>
        <time>2022-09-24T16:14:25Z</time>
      </trkpt>
      <trkpt lat="45.85019" lon="5.41232">
        <ele>201.2</ele>
        <time>2022-09-24T16:14:26Z</time>
      </trkpt>
      <trkpt lat="45.8502" lon="5.41232">
        <ele>201.2</ele>
        <time>2022-09-24T16:14:27Z</time>
      </trkpt>
      <trkpt lat="45.85022" lon="5.41232">
        <ele>201.2</ele>
        <time>2022-09-24T16:14:28Z</time>
      </trkpt>
      <trkpt lat="45.85023" lon="5.41233">
        <ele>201.2</ele>
        <time>2022-09-24T16:14:29Z</time>
      </trkpt>
      <trkpt lat="45.85025" lon="5.41233">
        <ele>201.2</ele>
        <time>2022-09-24T16:14:30Z</time>
      </trkpt>
      <trkpt lat="45.85026" lon="5.41234">
        <ele>201.2</ele>
        <time>2022-09-24T16:14:31Z</time>
      </trkpt>
      <trkpt lat="45.85028" lon="5.41234">
        <ele>201.2</ele>
        <time>2022-09-24T16:14:32Z</time>
      </trkpt>
      <trkpt lat="45.85029" lon="5.41235">
        <ele>201.2</ele>
        <time>2022-09-24T16:14:33Z</time>
      </trkpt>
      <trkpt lat="45.85031" lon="5.41237">
        <ele>201.2</ele>
        <time>2022-09-24T16:14:34Z</time>
      </trkpt>
      <trkpt lat="45.85032" lon="5.41237">
        <ele>201.2</ele>
        <time>2022-09-24T16:14:35Z</time>
      </trkpt>
      <trkpt lat="45.85033" lon="5.41238">
        <ele>201.2</ele>
        <time>2022-09-24T16:14:36Z</time>
      </trkpt>
      <trkpt lat="45.85033" lon="5.41239">
        <ele>201.2</ele>
        <time>2022-09-24T16:14:37Z</time>
      </trkpt>
      <trkpt lat="45.85034" lon="5.41241">
        <ele>201.2</ele>
        <time>2022-09-24T16:14:38Z</time>
      </trkpt>
      <trkpt lat="45.85035" lon="5.41242">
        <ele>201.2</ele>
        <time>2022-09-24T16:14:39Z</time>
      </trkpt>
      <trkpt lat="45.85036" lon="5.41244">
        <ele>201.2</ele>
        <time>2022-09-24T16:14:40Z</time>
      </trkpt>
      <trkpt lat="45.85036" lon="5.41245">
        <ele>201.2</ele>
        <time>2022-09-24T16:14:41Z</time>
      </trkpt>
      <trkpt lat="45.85036" lon="5.41247">
        <ele>201.2</ele>
        <time>2022-09-24T16:14:42Z</time>
      </trkpt>
      <trkpt lat="45.85037" lon="5.41248">
        <ele>201.2</ele>
        <time>2022-09-24T16:14:43Z</time>
      </trkpt>
      <trkpt lat="45.85037" lon="5.41249">
        <ele>201.2</ele>
        <time>2022-09-24T16:14:44Z</time>
      </trkpt>
      <trkpt lat="45.85037" lon="5.4125">
        <ele>201.2</ele>
        <time>2022-09-24T16:14:45Z</time>
      </trkpt>
      <trkpt lat="45.85038" lon="5.41251">
        <ele>201.2</ele>
        <time>2022-09-24T16:14:46Z</time>
      </trkpt>
      <trkpt lat="45.85038" lon="5.41251">
        <ele>201.2</ele>
        <time>2022-09-24T16:14:47Z</time>
      </trkpt>
      <trkpt lat="45.85038" lon="5.4125">
        <ele>201.2</ele>
        <time>2022-09-24T16:14:48Z</time>
      </trkpt>
      <trkpt lat="45.85038" lon="5.41248">
        <ele>201.2</ele>
        <time>2022-09-24T16:14:49Z</time>
      </trkpt>
      <trkpt lat="45.85039" lon="5.41247">
        <ele>201.2</ele>
        <time>2022-09-24T16:14:50Z</time>
      </trkpt>
      <trkpt lat="45.85039" lon="5.41246">
        <ele>201.2</ele>
        <time>2022-09-24T16:14:51Z</time>
      </trkpt>
      <trkpt lat="45.85039" lon="5.41245">
        <ele>201.2</ele>
        <time>2022-09-24T16:14:52Z</time>
      </trkpt>
      <trkpt lat="45.85039" lon="5.41244">
        <ele>201.2</ele>
        <time>2022-09-24T16:14:53Z</time>
      </trkpt>
      <trkpt lat="45.85039" lon="5.41243">
        <ele>201.2</ele>
        <time>2022-09-24T16:14:54Z</time>
      </trkpt>
      <trkpt lat="45.85039" lon="5.41242">
        <ele>201.2</ele>
        <time>2022-09-24T16:14:55Z</time>
      </trkpt>
      <trkpt lat="45.8504" lon="5.41241">
        <ele>201.2</ele>
        <time>2022-09-24T16:14:56Z</time>
      </trkpt>
      <trkpt lat="45.8504" lon="5.4124">
        <ele>201.2</ele>
        <time>2022-09-24T16:21:27Z</time>
      </trkpt>
      <trkpt lat="45.8504" lon="5.41239">
        <ele>201.2</ele>
        <time>2022-09-24T16:21:28Z</time>
      </trkpt>
      <trkpt lat="45.8504" lon="5.41236">
        <ele>201.2</ele>
        <time>2022-09-24T16:21:29Z</time>
      </trkpt>
      <trkpt lat="45.8504" lon="5.41235">
        <ele>201.2</ele>
        <time>2022-09-24T16:21:30Z</time>
      </trkpt>
      <trkpt lat="45.8504" lon="5.41233">
        <ele>201.2</ele>
        <time>2022-09-24T16:21:31Z</time>
      </trkpt>
      <trkpt lat="45.8504" lon="5.41232">
        <ele>201.2</ele>
        <time>2022-09-24T16:21:32Z</time>
      </trkpt>
      <trkpt lat="45.8504" lon="5.41231">
        <ele>201.2</ele>
        <time>2022-09-24T16:21:34Z</time>
      </trkpt>
      <trkpt lat="45.8504" lon="5.41231">
        <ele>201.2</ele>
        <time>2022-09-24T16:21:35Z</time>
      </trkpt>
      <trkpt lat="45.8504" lon="5.41231">
        <ele>201.2</ele>
        <time>2022-09-24T16:21:36Z</time>
      </trkpt>
      <trkpt lat="45.8504" lon="5.41232">
        <ele>201.2</ele>
        <time>2022-09-24T16:21:37Z</time>
      </trkpt>
      <trkpt lat="45.8504" lon="5.41232">
        <ele>201.2</ele>
        <time>2022-09-24T16:21:38Z</time>
      </trkpt>
      <trkpt lat="45.8504" lon="5.41232">
        <ele>201.2</ele>
        <time>2022-09-24T16:21:39Z</time>
      </trkpt>
      <trkpt lat="45.8504" lon="5.41232">
        <ele>201.2</ele>
        <time>2022-09-24T16:21:40Z</time>
      </trkpt>
      <trkpt lat="45.8504" lon="5.41232">
        <ele>201.2</ele>
        <time>2022-09-24T16:21:41Z</time>
      </trkpt>
      <trkpt lat="45.8504" lon="5.41232">
        <ele>201.2</ele>
        <time>2022-09-24T16:21:42Z</time>
      </trkpt>
      <trkpt lat="45.8504" lon="5.41232">
        <ele>201.2</ele>
        <time>2022-09-24T16:21:43Z</time>
      </trkpt>
      <trkpt lat="45.85039" lon="5.4124">
        <ele>201.1</ele>
        <time>2022-09-24T16:43:19Z</time>
      </trkpt>
      <trkpt lat="45.85039" lon="5.41239">
        <ele>201.1</ele>
        <time>2022-09-24T16:43:20Z</time>
      </trkpt>
      <trkpt lat="45.85039" lon="5.41237">
        <ele>201.1</ele>
        <time>2022-09-24T16:43:21Z</time>
      </trkpt>
      <trkpt lat="45.85038" lon="5.41237">
        <ele>201.1</ele>
        <time>2022-09-24T16:43:22Z</time>
      </trkpt>
      <trkpt lat="45.85039" lon="5.41237">
        <ele>201.1</ele>
        <time>2022-09-24T16:43:23Z</time>
      </trkpt>
      <trkpt lat="45.85039" lon="5.41234">
        <ele>201.1</ele>
        <time>2022-09-24T16:43:24Z</time>
      </trkpt>
      <trkpt lat="45.85039" lon="5.41233">
        <ele>201.1</ele>
        <time>2022-09-24T16:43:25Z</time>
      </trkpt>
      <trkpt lat="45.85039" lon="5.41232">
        <ele>201.1</ele>
        <time>2022-09-24T16:43:26Z</time>
      </trkpt>
      <trkpt lat="45.8504" lon="5.41233">
        <ele>201.1</ele>
        <time>2022-09-24T16:43:27Z</time>
      </trkpt>
      <trkpt lat="45.8504" lon="5.41233">
        <ele>201.1</ele>
        <time>2022-09-24T16:43:28Z</time>
      </trkpt>
      <trkpt lat="45.85054" lon="5.41366">
        <ele>201.9</ele>
        <time>2022-09-25T08:47:39Z</time>
      </trkpt>
      <trkpt lat="45.85055" lon="5.41366">
        <ele>201.9</ele>
        <time>2022-09-25T08:47:40Z</time>
      </trkpt>
      <trkpt lat="45.85056" lon="5.41366">
        <ele>201.8</ele>
        <time>2022-09-25T08:47:41Z</time>
      </trkpt>
      <trkpt lat="45.85057" lon="5.41366">
        <ele>201.8</ele>
        <time>2022-09-25T08:47:42Z</time>
      </trkpt>
      <trkpt lat="45.85057" lon="5.41366">
        <ele>201.8</ele>
        <time>2022-09-25T08:47:43Z</time>
      </trkpt>
      <trkpt lat="45.85058" lon="5.41366">
        <ele>201.8</ele>
        <time>2022-09-25T08:47:44Z</time>
      </trkpt>
      <trkpt lat="45.85059" lon="5.41365">
        <ele>201.8</ele>
        <time>2022-09-25T08:47:45Z</time>
      </trkpt>
      <trkpt lat="45.85059" lon="5.41364">
        <ele>201.8</ele>
        <time>2022-09-25T08:47:46Z</time>
      </trkpt>
      <trkpt lat="45.85059" lon="5.41364">
        <ele>201.8</ele>
        <time>2022-09-25T08:47:47Z</time>
      </trkpt>
      <trkpt lat="45.85058" lon="5.41364">
        <ele>201.8</ele>
        <time>2022-09-25T08:47:48Z</time>
      </trkpt>
      <trkpt lat="45.85058" lon="5.41364">
        <ele>201.8</ele>
        <time>2022-09-25T08:47:49Z</time>
      </trkpt>
      <trkpt lat="45.85058" lon="5.41364">
        <ele>201.8</ele>
        <time>2022-09-25T08:47:50Z</time>
      </trkpt>
      <trkpt lat="45.85058" lon="5.41363">
        <ele>201.8</ele>
        <time>2022-09-25T08:47:51Z</time>
      </trkpt>
      <trkpt lat="45.85058" lon="5.41363">
        <ele>201.8</ele>
        <time>2022-09-25T08:47:52Z</time>
      </trkpt>
      <trkpt lat="45.85057" lon="5.41363">
        <ele>201.8</ele>
        <time>2022-09-25T08:47:53Z</time>
      </trkpt>
      <trkpt lat="45.85057" lon="5.41363">
        <ele>201.8</ele>
        <time>2022-09-25T08:47:54Z</time>
      </trkpt>
      <trkpt lat="45.85057" lon="5.41362">
        <ele>201.8</ele>
        <time>2022-09-25T08:47:55Z</time>
      </trkpt>
      <trkpt lat="45.85057" lon="5.41362">
        <ele>201.8</ele>
        <time>2022-09-25T08:48:46Z</time>
      </trkpt>
      <trkpt lat="45.85056" lon="5.41362">
        <ele>201.8</ele>
        <time>2022-09-25T08:48:47Z</time>
      </trkpt>
      <trkpt lat="45.85056" lon="5.41362">
        <ele>201.8</ele>
        <time>2022-09-25T08:48:48Z</time>
      </trkpt>
      <trkpt lat="45.85056" lon="5.41362">
        <ele>201.8</ele>
        <time>2022-09-25T08:48:49Z</time>
      </trkpt>
      <trkpt lat="45.85056" lon="5.41361">
        <ele>201.8</ele>
        <time>2022-09-25T08:48:50Z</time>
      </trkpt>
      <trkpt lat="45.85056" lon="5.41361">
        <ele>201.8</ele>
        <time>2022-09-25T08:48:51Z</time>
      </trkpt>
      <trkpt lat="45.85055" lon="5.41361">
        <ele>201.8</ele>
        <time>2022-09-25T08:48:52Z</time>
      </trkpt>
      <trkpt lat="45.85055" lon="5.41361">
        <ele>201.8</ele>
        <time>2022-09-25T08:48:53Z</time>
      </trkpt>
      <trkpt lat="45.85055" lon="5.41361">
        <ele>201.8</ele>
        <time>2022-09-25T08:48:54Z</time>
      </trkpt>
      <trkpt lat="45.85055" lon="5.4136">
        <ele>201.8</ele>
        <time>2022-09-25T08:48:55Z</time>
      </trkpt>
      <trkpt lat="45.85055" lon="5.4136">
        <ele>201.7</ele>
        <time>2022-09-25T08:49:21Z</time>
      </trkpt>
      <trkpt lat="45.85054" lon="5.4136">
        <ele>201.7</ele>
        <time>2022-09-25T08:49:22Z</time>
      </trkpt>
      <trkpt lat="45.85054" lon="5.4136">
        <ele>201.7</ele>
        <time>2022-09-25T08:49:23Z</time>
      </trkpt>
      <trkpt lat="45.85051" lon="5.41361">
        <ele>201.7</ele>
        <time>2022-09-25T08:49:24Z</time>
      </trkpt>
      <trkpt lat="45.8505" lon="5.41361">
        <ele>201.7</ele>
        <time>2022-09-25T08:49:25Z</time>
      </trkpt>
      <trkpt lat="45.85046" lon="5.41361">
        <ele>201.7</ele>
        <time>2022-09-25T08:49:26Z</time>
      </trkpt>
      <trkpt lat="45.85043" lon="5.41361">
        <ele>201.6</ele>
        <time>2022-09-25T08:49:27Z</time>
      </trkpt>
      <trkpt lat="45.85039" lon="5.41359">
        <ele>201.6</ele>
        <time>2022-09-25T08:49:28Z</time>
      </trkpt>
      <trkpt lat="45.85036" lon="5.41356">
        <ele>201.5</ele>
        <time>2022-09-25T08:49:29Z</time>
      </trkpt>
      <trkpt lat="45.85034" lon="5.41352">
        <ele>201.5</ele>
        <time>2022-09-25T08:49:30Z</time>
      </trkpt>
      <trkpt lat="45.85032" lon="5.41346">
        <ele>201.5</ele>
        <time>2022-09-25T08:49:31Z</time>
      </trkpt>
      <trkpt lat="45.85031" lon="5.41341">
        <ele>201.5</ele>
        <time>2022-09-25T08:49:32Z</time>
      </trkpt>
      <trkpt lat="45.85031" lon="5.41335">
        <ele>201.5</ele>
        <time>2022-09-25T08:49:33Z</time>
      </trkpt>
      <trkpt lat="45.85032" lon="5.41329">
        <ele>201.5</ele>
        <time>2022-09-25T08:49:34Z</time>
      </trkpt>
      <trkpt lat="45.85032" lon="5.41324">
        <ele>201.6</ele>
        <time>2022-09-25T08:49:35Z</time>
      </trkpt>
      <trkpt lat="45.85032" lon="5.41318">
        <ele>201.6</ele>
        <time>2022-09-25T08:49:36Z</time>
      </trkpt>
      <trkpt lat="45.85032" lon="5.41313">
        <ele>201.6</ele>
        <time>2022-09-25T08:49:37Z</time>
      </trkpt>
      <trkpt lat="45.85031" lon="5.41306">
        <ele>201.6</ele>
        <time>2022-09-25T08:49:38Z</time>
      </trkpt>
      <trkpt lat="45.85031" lon="5.413">
        <ele>201.5</ele>
        <time>2022-09-25T08:49:39Z</time>
      </trkpt>
      <trkpt lat="45.85031" lon="5.41293">
        <ele>201.5</ele>
        <time>2022-09-25T08:49:40Z</time>
      </trkpt>
      <trkpt lat="45.8503" lon="5.41287">
        <ele>201.4</ele>
        <time>2022-09-25T08:49:41Z</time>
      </trkpt>
      <trkpt lat="45.85029" lon="5.41281">
        <ele>201.4</ele>
        <time>2022-09-25T08:49:42Z</time>
      </trkpt>
      <trkpt lat="45.85027" lon="5.41274">
        <ele>201.3</ele>
        <time>2022-09-25T08:49:43Z</time>
      </trkpt>
      <trkpt lat="45.85026" lon="5.41268">
        <ele>201.3</ele>
        <time>2022-09-25T08:49:44Z</time>
      </trkpt>
      <trkpt lat="45.85025" lon="5.41262">
        <ele>201.3</ele>
        <time>2022-09-25T08:49:45Z</time>
      </trkpt>
      <trkpt lat="45.85023" lon="5.41256">
        <ele>201.2</ele>
        <time>2022-09-25T08:49:46Z</time>
      </trkpt>
      <trkpt lat="45.85022" lon="5.41251">
        <ele>201.2</ele>
        <time>2022-09-25T08:49:47Z</time>
      </trkpt>
      <trkpt lat="45.85019" lon="5.41245">
        <ele>201.2</ele>
        <time>2022-09-25T08:49:48Z</time>
      </trkpt>
      <trkpt lat="45.85018" lon="5.41241">
        <ele>201.2</ele>
        <time>2022-09-25T08:49:50Z</time>
      </trkpt>
      <trkpt lat="45.85016" lon="5.41237">
        <ele>201.2</ele>
        <time>2022-09-25T08:49:51Z</time>
      </trkpt>
      <trkpt lat="45.85013" lon="5.41232">
        <ele>201.2</ele>
        <time>2022-09-25T08:49:52Z</time>
      </trkpt>
      <trkpt lat="45.8501" lon="5.41229">
        <ele>201.2</ele>
        <time>2022-09-25T08:49:53Z</time>
      </trkpt>
      <trkpt lat="45.85006" lon="5.41227">
        <ele>201.1</ele>
        <time>2022-09-25T08:49:54Z</time>
      </trkpt>
      <trkpt lat="45.85003" lon="5.41226">
        <ele>201.1</ele>
        <time>2022-09-25T08:49:55Z</time>
      </trkpt>
      <trkpt lat="45.85" lon="5.41224">
        <ele>201.1</ele>
        <time>2022-09-25T08:49:56Z</time>
      </trkpt>
      <trkpt lat="45.84996" lon="5.41224">
        <ele>201</ele>
        <time>2022-09-25T08:49:57Z</time>
      </trkpt>
      <trkpt lat="45.84993" lon="5.41223">
        <ele>201</ele>
        <time>2022-09-25T08:49:58Z</time>
      </trkpt>
      <trkpt lat="45.8499" lon="5.41221">
        <ele>200.9</ele>
        <time>2022-09-25T08:49:59Z</time>
      </trkpt>
      <trkpt lat="45.84987" lon="5.41219">
        <ele>200.9</ele>
        <time>2022-09-25T08:50:00Z</time>
      </trkpt>
      <trkpt lat="45.84983" lon="5.41215">
        <ele>200.7</ele>
        <time>2022-09-25T08:50:01Z</time>
      </trkpt>
      <trkpt lat="45.84981" lon="5.41211">
        <ele>200.6</ele>
        <time>2022-09-25T08:50:02Z</time>
      </trkpt>
      <trkpt lat="45.8498" lon="5.41205">
        <ele>200.5</ele>
        <time>2022-09-25T08:50:03Z</time>
      </trkpt>
      <trkpt lat="45.84981" lon="5.412">
        <ele>200.4</ele>
        <time>2022-09-25T08:50:04Z</time>
      </trkpt>
      <trkpt lat="45.84983" lon="5.41195">
        <ele>200.4</ele>
        <time>2022-09-25T08:50:05Z</time>
      </trkpt>
      <trkpt lat="45.84984" lon="5.4119">
        <ele>200.3</ele>
        <time>2022-09-25T08:50:06Z</time>
      </trkpt>
      <trkpt lat="45.84986" lon="5.41186">
        <ele>200.3</ele>
        <time>2022-09-25T08:50:07Z</time>
      </trkpt>
      <trkpt lat="45.84988" lon="5.41181">
        <ele>200.3</ele>
        <time>2022-09-25T08:50:08Z</time>
      </trkpt>
      <trkpt lat="45.84989" lon="5.41175">
        <ele>200.4</ele>
        <time>2022-09-25T08:50:09Z</time>
      </trkpt>
      <trkpt lat="45.84991" lon="5.41171">
        <ele>200.4</ele>
        <time>2022-09-25T08:50:10Z</time>
      </trkpt>
      <trkpt lat="45.84992" lon="5.41166">
        <ele>200.6</ele>
        <time>2022-09-25T08:50:11Z</time>
      </trkpt>
      <trkpt lat="45.84993" lon="5.41161">
        <ele>200.6</ele>
        <time>2022-09-25T08:50:12Z</time>
      </trkpt>
      <trkpt lat="45.84996" lon="5.41157">
        <ele>200.8</ele>
        <time>2022-09-25T08:50:13Z</time>
      </trkpt>
      <trkpt lat="45.84998" lon="5.41153">
        <ele>200.9</ele>
        <time>2022-09-25T08:50:14Z</time>
      </trkpt>
      <trkpt lat="45.85" lon="5.4115">
        <ele>201</ele>
        <time>2022-09-25T08:50:15Z</time>
      </trkpt>
      <trkpt lat="45.85002" lon="5.41146">
        <ele>201</ele>
        <time>2022-09-25T08:50:16Z</time>
      </trkpt>
      <trkpt lat="45.85005" lon="5.41143">
        <ele>201.1</ele>
        <time>2022-09-25T08:50:17Z</time>
      </trkpt>
      <trkpt lat="45.85008" lon="5.41141">
        <ele>201.2</ele>
        <time>2022-09-25T08:50:18Z</time>
      </trkpt>
      <trkpt lat="45.85009" lon="5.4114">
        <ele>201.2</ele>
        <time>2022-09-25T08:50:19Z</time>
      </trkpt>
      <trkpt lat="45.85009" lon="5.4114">
        <ele>201.2</ele>
        <time>2022-09-25T08:50:20Z</time>
      </trkpt>
      <trkpt lat="45.85009" lon="5.4114">
        <ele>201.2</ele>
        <time>2022-09-25T08:50:21Z</time>
      </trkpt>
      <trkpt lat="45.8501" lon="5.41141">
        <ele>201.2</ele>
        <time>2022-09-25T08:50:22Z</time>
      </trkpt>
      <trkpt lat="45.8501" lon="5.41141">
        <ele>201.3</ele>
        <time>2022-09-25T08:50:23Z</time>
      </trkpt>
      <trkpt lat="45.8501" lon="5.41142">
        <ele>201.3</ele>
        <time>2022-09-25T08:50:24Z</time>
      </trkpt>
      <trkpt lat="45.85011" lon="5.41142">
        <ele>201.3</ele>
        <time>2022-09-25T08:50:25Z</time>
      </trkpt>
      <trkpt lat="45.85011" lon="5.41142">
        <ele>201.3</ele>
        <time>2022-09-25T08:50:26Z</time>
      </trkpt>
      <trkpt lat="45.85011" lon="5.41143">
        <ele>201.3</ele>
        <time>2022-09-25T08:50:27Z</time>
      </trkpt>
      <trkpt lat="45.85012" lon="5.41143">
        <ele>201.3</ele>
        <time>2022-09-25T08:50:28Z</time>
      </trkpt>
      <trkpt lat="45.85012" lon="5.41144">
        <ele>201.3</ele>
        <time>2022-09-25T08:50:29Z</time>
      </trkpt>
      <trkpt lat="45.85012" lon="5.41144">
        <ele>201.3</ele>
        <time>2022-09-25T08:51:12Z</time>
      </trkpt>
      <trkpt lat="45.85013" lon="5.41145">
        <ele>201.3</ele>
        <time>2022-09-25T08:51:13Z</time>
      </trkpt>
      <trkpt lat="45.85013" lon="5.41146">
        <ele>201.3</ele>
        <time>2022-09-25T08:51:14Z</time>
      </trkpt>
      <trkpt lat="45.85012" lon="5.41148">
        <ele>201.3</ele>
        <time>2022-09-25T08:51:15Z</time>
      </trkpt>
      <trkpt lat="45.85012" lon="5.41149">
        <ele>201.3</ele>
        <time>2022-09-25T08:51:16Z</time>
      </trkpt>
      <trkpt lat="45.85012" lon="5.41151">
        <ele>201.3</ele>
        <time>2022-09-25T08:51:17Z</time>
      </trkpt>
      <trkpt lat="45.85012" lon="5.41153">
        <ele>201.3</ele>
        <time>2022-09-25T08:51:18Z</time>
      </trkpt>
      <trkpt lat="45.85012" lon="5.41156">
        <ele>201.3</ele>
        <time>2022-09-25T08:51:19Z</time>
      </trkpt>
      <trkpt lat="45.85011" lon="5.41158">
        <ele>201.3</ele>
        <time>2022-09-25T08:51:20Z</time>
      </trkpt>
      <trkpt lat="45.85011" lon="5.4116">
        <ele>201.3</ele>
        <time>2022-09-25T08:51:21Z</time>
      </trkpt>
      <trkpt lat="45.8501" lon="5.41162">
        <ele>201.2</ele>
        <time>2022-09-25T08:51:22Z</time>
      </trkpt>
      <trkpt lat="45.85009" lon="5.41166">
        <ele>201.2</ele>
        <time>2022-09-25T08:51:23Z</time>
      </trkpt>
      <trkpt lat="45.85009" lon="5.41167">
        <ele>201.2</ele>
        <time>2022-09-25T08:51:24Z</time>
      </trkpt>
      <trkpt lat="45.85008" lon="5.4117">
        <ele>201.2</ele>
        <time>2022-09-25T08:51:25Z</time>
      </trkpt>
      <trkpt lat="45.85008" lon="5.41171">
        <ele>201.2</ele>
        <time>2022-09-25T08:51:26Z</time>
      </trkpt>
      <trkpt lat="45.85007" lon="5.41174">
        <ele>201.2</ele>
        <time>2022-09-25T08:51:27Z</time>
      </trkpt>
      <trkpt lat="45.85007" lon="5.41176">
        <ele>201.2</ele>
        <time>2022-09-25T08:51:28Z</time>
      </trkpt>
      <trkpt lat="45.85007" lon="5.41178">
        <ele>201.2</ele>
        <time>2022-09-25T08:51:29Z</time>
      </trkpt>
      <trkpt lat="45.85007" lon="5.4118">
        <ele>201.2</ele>
        <time>2022-09-25T08:51:30Z</time>
      </trkpt>
      <trkpt lat="45.85007" lon="5.41183">
        <ele>201.2</ele>
        <time>2022-09-25T08:51:31Z</time>
      </trkpt>
      <trkpt lat="45.85006" lon="5.41184">
        <ele>201.2</ele>
        <time>2022-09-25T08:51:32Z</time>
      </trkpt>
      <trkpt lat="45.85006" lon="5.41185">
        <ele>201.2</ele>
        <time>2022-09-25T08:51:33Z</time>
      </trkpt>
      <trkpt lat="45.85006" lon="5.41188">
        <ele>201.2</ele>
        <time>2022-09-25T08:51:34Z</time>
      </trkpt>
      <trkpt lat="45.85006" lon="5.4119">
        <ele>201.2</ele>
        <time>2022-09-25T08:51:35Z</time>
      </trkpt>
      <trkpt lat="45.85006" lon="5.41191">
        <ele>201.2</ele>
        <time>2022-09-25T08:51:36Z</time>
      </trkpt>
      <trkpt lat="45.85006" lon="5.41193">
        <ele>201.2</ele>
        <time>2022-09-25T08:51:37Z</time>
      </trkpt>
      <trkpt lat="45.85005" lon="5.41194">
        <ele>201.2</ele>
        <time>2022-09-25T08:51:38Z</time>
      </trkpt>
      <trkpt lat="45.85005" lon="5.41196">
        <ele>201.2</ele>
        <time>2022-09-25T08:51:39Z</time>
      </trkpt>
      <trkpt lat="45.85004" lon="5.41198">
        <ele>201.1</ele>
        <time>2022-09-25T08:51:40Z</time>
      </trkpt>
      <trkpt lat="45.85004" lon="5.412">
        <ele>201.1</ele>
        <time>2022-09-25T08:51:41Z</time>
      </trkpt>
      <trkpt lat="45.85003" lon="5.41202">
        <ele>201.1</ele>
        <time>2022-09-25T08:51:42Z</time>
      </trkpt>
      <trkpt lat="45.85003" lon="5.41204">
        <ele>201.1</ele>
        <time>2022-09-25T08:51:43Z</time>
      </trkpt>
      <trkpt lat="45.85002" lon="5.41205">
        <ele>201.1</ele>
        <time>2022-09-25T08:51:44Z</time>
      </trkpt>
      <trkpt lat="45.85002" lon="5.41206">
        <ele>201.1</ele>
        <time>2022-09-25T08:51:45Z</time>
      </trkpt>
      <trkpt lat="45.85002" lon="5.41208">
        <ele>201.1</ele>
        <time>2022-09-25T08:51:46Z</time>
      </trkpt>
      <trkpt lat="45.85001" lon="5.41211">
        <ele>201.1</ele>
        <time>2022-09-25T08:51:47Z</time>
      </trkpt>
      <trkpt lat="45.85001" lon="5.41212">
        <ele>201.1</ele>
        <time>2022-09-25T08:51:48Z</time>
      </trkpt>
      <trkpt lat="45.85001" lon="5.41213">
        <ele>201.1</ele>
        <time>2022-09-25T08:51:49Z</time>
      </trkpt>
      <trkpt lat="45.85" lon="5.41216">
        <ele>201.1</ele>
        <time>2022-09-25T08:51:50Z</time>
      </trkpt>
      <trkpt lat="45.84999" lon="5.41217">
        <ele>201.1</ele>
        <time>2022-09-25T08:51:51Z</time>
      </trkpt>
      <trkpt lat="45.84998" lon="5.41218">
        <ele>201.1</ele>
        <time>2022-09-25T08:51:52Z</time>
      </trkpt>
      <trkpt lat="45.84999" lon="5.4122">
        <ele>201</ele>
        <time>2022-09-25T08:51:53Z</time>
      </trkpt>
      <trkpt lat="45.84999" lon="5.41221">
        <ele>201.1</ele>
        <time>2022-09-25T08:51:54Z</time>
      </trkpt>
      <trkpt lat="45.84999" lon="5.41222">
        <ele>201.1</ele>
        <time>2022-09-25T08:51:55Z</time>
      </trkpt>
      <trkpt lat="45.85" lon="5.41223">
        <ele>201.1</ele>
        <time>2022-09-25T08:51:56Z</time>
      </trkpt>
      <trkpt lat="45.85001" lon="5.41224">
        <ele>201.1</ele>
        <time>2022-09-25T08:51:58Z</time>
      </trkpt>
      <trkpt lat="45.85002" lon="5.41225">
        <ele>201.1</ele>
        <time>2022-09-25T08:51:59Z</time>
      </trkpt>
      <trkpt lat="45.85003" lon="5.41225">
        <ele>201.1</ele>
        <time>2022-09-25T08:52:00Z</time>
      </trkpt>
      <trkpt lat="45.85005" lon="5.41226">
        <ele>201.1</ele>
        <time>2022-09-25T08:52:01Z</time>
      </trkpt>
      <trkpt lat="45.85006" lon="5.41227">
        <ele>201.1</ele>
        <time>2022-09-25T08:52:02Z</time>
      </trkpt>
      <trkpt lat="45.85007" lon="5.41228">
        <ele>201.1</ele>
        <time>2022-09-25T08:52:03Z</time>
      </trkpt>
      <trkpt lat="45.85008" lon="5.41228">
        <ele>201.1</ele>
        <time>2022-09-25T08:52:04Z</time>
      </trkpt>
      <trkpt lat="45.85009" lon="5.41229">
        <ele>201.1</ele>
        <time>2022-09-25T08:52:05Z</time>
      </trkpt>
      <trkpt lat="45.85009" lon="5.41229">
        <ele>201.1</ele>
        <time>2022-09-25T08:52:06Z</time>
      </trkpt>
      <trkpt lat="45.85009" lon="5.4123">
        <ele>201.1</ele>
        <time>2022-09-25T08:52:07Z</time>
      </trkpt>
      <trkpt lat="45.8501" lon="5.41231">
        <ele>201.1</ele>
        <time>2022-09-25T08:52:08Z</time>
      </trkpt>
      <trkpt lat="45.85009" lon="5.41231">
        <ele>201.1</ele>
        <time>2022-09-25T08:52:09Z</time>
      </trkpt>
      <trkpt lat="45.85007" lon="5.41232">
        <ele>201.1</ele>
        <time>2022-09-25T08:52:10Z</time>
      </trkpt>
      <trkpt lat="45.85006" lon="5.41232">
        <ele>201.1</ele>
        <time>2022-09-25T08:52:11Z</time>
      </trkpt>
      <trkpt lat="45.85005" lon="5.4123">
        <ele>201.1</ele>
        <time>2022-09-25T08:52:12Z</time>
      </trkpt>
      <trkpt lat="45.85003" lon="5.41228">
        <ele>201.1</ele>
        <time>2022-09-25T08:52:13Z</time>
      </trkpt>
      <trkpt lat="45.85002" lon="5.41228">
        <ele>201.1</ele>
        <time>2022-09-25T08:52:14Z</time>
      </trkpt>
      <trkpt lat="45.85001" lon="5.41227">
        <ele>201.1</ele>
        <time>2022-09-25T08:52:15Z</time>
      </trkpt>
      <trkpt lat="45.84999" lon="5.41226">
        <ele>201</ele>
        <time>2022-09-25T08:52:16Z</time>
      </trkpt>
      <trkpt lat="45.84999" lon="5.41225">
        <ele>201</ele>
        <time>2022-09-25T08:52:17Z</time>
      </trkpt>
      <trkpt lat="45.84998" lon="5.41224">
        <ele>201</ele>
        <time>2022-09-25T08:52:18Z</time>
      </trkpt>
      <trkpt lat="45.84998" lon="5.41223">
        <ele>201.1</ele>
        <time>2022-09-25T08:52:19Z</time>
      </trkpt>
      <trkpt lat="45.84998" lon="5.41222">
        <ele>201.1</ele>
        <time>2022-09-25T08:52:20Z</time>
      </trkpt>
      <trkpt lat="45.84998" lon="5.41218">
        <ele>201.1</ele>
        <time>2022-09-25T08:52:21Z</time>
      </trkpt>
      <trkpt lat="45.84999" lon="5.41214">
        <ele>201.1</ele>
        <time>2022-09-25T08:52:22Z</time>
      </trkpt>
      <trkpt lat="45.84999" lon="5.41213">
        <ele>201.1</ele>
        <time>2022-09-25T08:52:23Z</time>
      </trkpt>
      <trkpt lat="45.85" lon="5.41211">
        <ele>201.1</ele>
        <time>2022-09-25T08:52:24Z</time>
      </trkpt>
      <trkpt lat="45.85001" lon="5.4121">
        <ele>201.1</ele>
        <time>2022-09-25T08:52:25Z</time>
      </trkpt>
      <trkpt lat="45.85001" lon="5.41208">
        <ele>201.1</ele>
        <time>2022-09-25T08:52:26Z</time>
      </trkpt>
      <trkpt lat="45.85002" lon="5.41206">
        <ele>201.1</ele>
        <time>2022-09-25T08:52:27Z</time>
      </trkpt>
      <trkpt lat="45.85003" lon="5.41204">
        <ele>201.1</ele>
        <time>2022-09-25T08:52:28Z</time>
      </trkpt>
      <trkpt lat="45.85004" lon="5.41202">
        <ele>201.1</ele>
        <time>2022-09-25T08:52:29Z</time>
      </trkpt>
      <trkpt lat="45.85003" lon="5.412">
        <ele>201.1</ele>
        <time>2022-09-25T08:52:30Z</time>
      </trkpt>
      <trkpt lat="45.85004" lon="5.41197">
        <ele>201.2</ele>
        <time>2022-09-25T08:52:31Z</time>
      </trkpt>
      <trkpt lat="45.85005" lon="5.41195">
        <ele>201.2</ele>
        <time>2022-09-25T08:52:32Z</time>
      </trkpt>
      <trkpt lat="45.85005" lon="5.41192">
        <ele>201.2</ele>
        <time>2022-09-25T08:52:33Z</time>
      </trkpt>
      <trkpt lat="45.85006" lon="5.41189">
        <ele>201.2</ele>
        <time>2022-09-25T08:52:34Z</time>
      </trkpt>
      <trkpt lat="45.85006" lon="5.41188">
        <ele>201.2</ele>
        <time>2022-09-25T08:52:35Z</time>
      </trkpt>
      <trkpt lat="45.85006" lon="5.41186">
        <ele>201.2</ele>
        <time>2022-09-25T08:52:36Z</time>
      </trkpt>
      <trkpt lat="45.85006" lon="5.41184">
        <ele>201.2</ele>
        <time>2022-09-25T08:52:37Z</time>
      </trkpt>
      <trkpt lat="45.85007" lon="5.41182">
        <ele>201.2</ele>
        <time>2022-09-25T08:52:38Z</time>
      </trkpt>
      <trkpt lat="45.85007" lon="5.41181">
        <ele>201.2</ele>
        <time>2022-09-25T08:52:39Z</time>
      </trkpt>
      <trkpt lat="45.85007" lon="5.41177">
        <ele>201.2</ele>
        <time>2022-09-25T08:52:40Z</time>
      </trkpt>
      <trkpt lat="45.85007" lon="5.41176">
        <ele>201.2</ele>
        <time>2022-09-25T08:52:41Z</time>
      </trkpt>
      <trkpt lat="45.85008" lon="5.41173">
        <ele>201.2</ele>
        <time>2022-09-25T08:52:42Z</time>
      </trkpt>
      <trkpt lat="45.85008" lon="5.41171">
        <ele>201.2</ele>
        <time>2022-09-25T08:52:43Z</time>
      </trkpt>
      <trkpt lat="45.85008" lon="5.41169">
        <ele>201.2</ele>
        <time>2022-09-25T08:52:44Z</time>
      </trkpt>
      <trkpt lat="45.85009" lon="5.41167">
        <ele>201.2</ele>
        <time>2022-09-25T08:52:45Z</time>
      </trkpt>
      <trkpt lat="45.85009" lon="5.41163">
        <ele>201.2</ele>
        <time>2022-09-25T08:52:46Z</time>
      </trkpt>
      <trkpt lat="45.8501" lon="5.4116">
        <ele>201.2</ele>
        <time>2022-09-25T08:52:47Z</time>
      </trkpt>
      <trkpt lat="45.8501" lon="5.41157">
        <ele>201.3</ele>
        <time>2022-09-25T08:52:48Z</time>
      </trkpt>
      <trkpt lat="45.8501" lon="5.41156">
        <ele>201.3</ele>
        <time>2022-09-25T08:52:49Z</time>
      </trkpt>
      <trkpt lat="45.8501" lon="5.41155">
        <ele>201.3</ele>
        <time>2022-09-25T08:52:50Z</time>
      </trkpt>
      <trkpt lat="45.8501" lon="5.41152">
        <ele>201.3</ele>
        <time>2022-09-25T08:52:51Z</time>
      </trkpt>
      <trkpt lat="45.8501" lon="5.41151">
        <ele>201.3</ele>
        <time>2022-09-25T08:52:52Z</time>
      </trkpt>
      <trkpt lat="45.8501" lon="5.41149">
        <ele>201.3</ele>
        <time>2022-09-25T08:52:53Z</time>
      </trkpt>
      <trkpt lat="45.8501" lon="5.41146">
        <ele>201.3</ele>
        <time>2022-09-25T08:52:54Z</time>
      </trkpt>
      <trkpt lat="45.8501" lon="5.41144">
        <ele>201.3</ele>
        <time>2022-09-25T08:52:55Z</time>
      </trkpt>
      <trkpt lat="45.8501" lon="5.41142">
        <ele>201.3</ele>
        <time>2022-09-25T08:52:56Z</time>
      </trkpt>
      <trkpt lat="45.8501" lon="5.4114">
        <ele>201.3</ele>
        <time>2022-09-25T08:52:57Z</time>
      </trkpt>
      <trkpt lat="45.8501" lon="5.41139">
        <ele>201.3</ele>
        <time>2022-09-25T08:52:58Z</time>
      </trkpt>
      <trkpt lat="45.85009" lon="5.41138">
        <ele>201.3</ele>
        <time>2022-09-25T08:52:59Z</time>
      </trkpt>
      <trkpt lat="45.85009" lon="5.41137">
        <ele>201.3</ele>
        <time>2022-09-25T08:53:00Z</time>
      </trkpt>
      <trkpt lat="45.85008" lon="5.41136">
        <ele>201.3</ele>
        <time>2022-09-25T08:53:01Z</time>
      </trkpt>
      <trkpt lat="45.85008" lon="5.41134">
        <ele>201.3</ele>
        <time>2022-09-25T08:53:02Z</time>
      </trkpt>
      <trkpt lat="45.85008" lon="5.41133">
        <ele>201.3</ele>
        <time>2022-09-25T08:53:03Z</time>
      </trkpt>
      <trkpt lat="45.85007" lon="5.41132">
        <ele>201.3</ele>
        <time>2022-09-25T08:53:04Z</time>
      </trkpt>
      <trkpt lat="45.85006" lon="5.41131">
        <ele>201.3</ele>
        <time>2022-09-25T08:53:05Z</time>
      </trkpt>
      <trkpt lat="45.85006" lon="5.41129">
        <ele>201.3</ele>
        <time>2022-09-25T08:53:06Z</time>
      </trkpt>
      <trkpt lat="45.85005" lon="5.41128">
        <ele>201.2</ele>
        <time>2022-09-25T08:53:07Z</time>
      </trkpt>
      <trkpt lat="45.85004" lon="5.41126">
        <ele>201.2</ele>
        <time>2022-09-25T08:53:08Z</time>
      </trkpt>
      <trkpt lat="45.85003" lon="5.41124">
        <ele>201.2</ele>
        <time>2022-09-25T08:53:09Z</time>
      </trkpt>
      <trkpt lat="45.85003" lon="5.41123">
        <ele>201.2</ele>
        <time>2022-09-25T08:53:10Z</time>
      </trkpt>
      <trkpt lat="45.85003" lon="5.41122">
        <ele>201.2</ele>
        <time>2022-09-25T08:53:11Z</time>
      </trkpt>
      <trkpt lat="45.85003" lon="5.41121">
        <ele>201.2</ele>
        <time>2022-09-25T08:53:12Z</time>
      </trkpt>
      <trkpt lat="45.85002" lon="5.41118">
        <ele>201.1</ele>
        <time>2022-09-25T08:53:13Z</time>
      </trkpt>
      <trkpt lat="45.85003" lon="5.41116">
        <ele>201.1</ele>
        <time>2022-09-25T08:53:14Z</time>
      </trkpt>
      <trkpt lat="45.85003" lon="5.41115">
        <ele>201.1</ele>
        <time>2022-09-25T08:53:15Z</time>
      </trkpt>
      <trkpt lat="45.85004" lon="5.41114">
        <ele>201.1</ele>
        <time>2022-09-25T08:53:16Z</time>
      </trkpt>
      <trkpt lat="45.85004" lon="5.41113">
        <ele>201.1</ele>
        <time>2022-09-25T08:53:17Z</time>
      </trkpt>
      <trkpt lat="45.85005" lon="5.41111">
        <ele>201.1</ele>
        <time>2022-09-25T08:53:18Z</time>
      </trkpt>
      <trkpt lat="45.85006" lon="5.4111">
        <ele>201.1</ele>
        <time>2022-09-25T08:53:19Z</time>
      </trkpt>
      <trkpt lat="45.85006" lon="5.41109">
        <ele>201.1</ele>
        <time>2022-09-25T08:53:20Z</time>
      </trkpt>
      <trkpt lat="45.85007" lon="5.41106">
        <ele>201.1</ele>
        <time>2022-09-25T08:53:21Z</time>
      </trkpt>
      <trkpt lat="45.85007" lon="5.41105">
        <ele>201.1</ele>
        <time>2022-09-25T08:53:22Z</time>
      </trkpt>
      <trkpt lat="45.85008" lon="5.41104">
        <ele>201.1</ele>
        <time>2022-09-25T08:53:23Z</time>
      </trkpt>
      <trkpt lat="45.85008" lon="5.41102">
        <ele>201.1</ele>
        <time>2022-09-25T08:53:24Z</time>
      </trkpt>
      <trkpt lat="45.85008" lon="5.41101">
        <ele>201.1</ele>
        <time>2022-09-25T08:53:25Z</time>
      </trkpt>
      <trkpt lat="45.85009" lon="5.41099">
        <ele>201.1</ele>
        <time>2022-09-25T08:53:26Z</time>
      </trkpt>
      <trkpt lat="45.85009" lon="5.41099">
        <ele>201.1</ele>
        <time>2022-09-25T08:53:27Z</time>
      </trkpt>
      <trkpt lat="45.85009" lon="5.41099">
        <ele>201.1</ele>
        <time>2022-09-25T08:53:28Z</time>
      </trkpt>
      <trkpt lat="45.85009" lon="5.411">
        <ele>201.1</ele>
        <time>2022-09-25T08:53:29Z</time>
      </trkpt>
      <trkpt lat="45.85009" lon="5.41101">
        <ele>201.1</ele>
        <time>2022-09-25T08:53:30Z</time>
      </trkpt>
      <trkpt lat="45.85009" lon="5.41102">
        <ele>201.1</ele>
        <time>2022-09-25T08:53:31Z</time>
      </trkpt>
      <trkpt lat="45.85008" lon="5.41104">
        <ele>201.1</ele>
        <time>2022-09-25T08:53:32Z</time>
      </trkpt>
      <trkpt lat="45.85006" lon="5.41106">
        <ele>201.1</ele>
        <time>2022-09-25T08:53:33Z</time>
      </trkpt>
      <trkpt lat="45.85006" lon="5.41107">
        <ele>201.1</ele>
        <time>2022-09-25T08:53:34Z</time>
      </trkpt>
      <trkpt lat="45.85006" lon="5.41108">
        <ele>201.1</ele>
        <time>2022-09-25T08:53:35Z</time>
      </trkpt>
      <trkpt lat="45.85005" lon="5.41108">
        <ele>201.1</ele>
        <time>2022-09-25T08:53:36Z</time>
      </trkpt>
      <trkpt lat="45.85005" lon="5.4111">
        <ele>201.1</ele>
        <time>2022-09-25T08:53:37Z</time>
      </trkpt>
      <trkpt lat="45.85004" lon="5.41112">
        <ele>201</ele>
        <time>2022-09-25T08:53:38Z</time>
      </trkpt>
      <trkpt lat="45.85004" lon="5.41113">
        <ele>201</ele>
        <time>2022-09-25T08:53:39Z</time>
      </trkpt>
      <trkpt lat="45.85004" lon="5.41114">
        <ele>201</ele>
        <time>2022-09-25T08:53:40Z</time>
      </trkpt>
      <trkpt lat="45.85004" lon="5.41115">
        <ele>201</ele>
        <time>2022-09-25T08:53:41Z</time>
      </trkpt>
      <trkpt lat="45.85004" lon="5.41117">
        <ele>201</ele>
        <time>2022-09-25T08:53:42Z</time>
      </trkpt>
      <trkpt lat="45.85005" lon="5.41121">
        <ele>201</ele>
        <time>2022-09-25T08:53:43Z</time>
      </trkpt>
      <trkpt lat="45.85006" lon="5.41122">
        <ele>201</ele>
        <time>2022-09-25T08:53:44Z</time>
      </trkpt>
      <trkpt lat="45.85007" lon="5.41124">
        <ele>201</ele>
        <time>2022-09-25T08:53:45Z</time>
      </trkpt>
      <trkpt lat="45.85008" lon="5.41125">
        <ele>201</ele>
        <time>2022-09-25T08:53:46Z</time>
      </trkpt>
      <trkpt lat="45.85009" lon="5.41127">
        <ele>201</ele>
        <time>2022-09-25T08:53:47Z</time>
      </trkpt>
      <trkpt lat="45.85009" lon="5.41129">
        <ele>201</ele>
        <time>2022-09-25T08:53:48Z</time>
      </trkpt>
      <trkpt lat="45.85009" lon="5.4113">
        <ele>201</ele>
        <time>2022-09-25T08:53:49Z</time>
      </trkpt>
      <trkpt lat="45.8501" lon="5.41132">
        <ele>201</ele>
        <time>2022-09-25T08:53:50Z</time>
      </trkpt>
      <trkpt lat="45.8501" lon="5.41134">
        <ele>201</ele>
        <time>2022-09-25T08:53:51Z</time>
      </trkpt>
      <trkpt lat="45.8501" lon="5.41135">
        <ele>201</ele>
        <time>2022-09-25T08:53:52Z</time>
      </trkpt>
      <trkpt lat="45.8501" lon="5.41136">
        <ele>201</ele>
        <time>2022-09-25T08:53:53Z</time>
      </trkpt>
      <trkpt lat="45.85009" lon="5.41136">
        <ele>201</ele>
        <time>2022-09-25T08:53:54Z</time>
      </trkpt>
      <trkpt lat="45.85009" lon="5.41137">
        <ele>201</ele>
        <time>2022-09-25T08:53:55Z</time>
      </trkpt>
      <trkpt lat="45.85009" lon="5.41137">
        <ele>201</ele>
        <time>2022-09-25T08:53:56Z</time>
      </trkpt>
      <trkpt lat="45.85008" lon="5.41138">
        <ele>201</ele>
        <time>2022-09-25T08:53:57Z</time>
      </trkpt>
      <trkpt lat="45.85008" lon="5.41138">
        <ele>201</ele>
        <time>2022-09-25T08:53:58Z</time>
      </trkpt>
      <trkpt lat="45.85008" lon="5.41139">
        <ele>201</ele>
        <time>2022-09-25T08:53:59Z</time>
      </trkpt>
      <trkpt lat="45.85008" lon="5.41139">
        <ele>201</ele>
        <time>2022-09-25T08:54:00Z</time>
      </trkpt>
      <trkpt lat="45.85007" lon="5.4114">
        <ele>201</ele>
        <time>2022-09-25T08:54:01Z</time>
      </trkpt>
      <trkpt lat="45.85007" lon="5.4114">
        <ele>201</ele>
        <time>2022-09-25T08:54:02Z</time>
      </trkpt>
      <trkpt lat="45.85006" lon="5.41141">
        <ele>201</ele>
        <time>2022-09-25T08:54:03Z</time>
      </trkpt>
      <trkpt lat="45.85004" lon="5.41143">
        <ele>200.9</ele>
        <time>2022-09-25T08:54:04Z</time>
      </trkpt>
      <trkpt lat="45.85001" lon="5.41145">
        <ele>200.9</ele>
        <time>2022-09-25T08:54:06Z</time>
      </trkpt>
      <trkpt lat="45.85" lon="5.41146">
        <ele>200.9</ele>
        <time>2022-09-25T08:54:07Z</time>
      </trkpt>
      <trkpt lat="45.84998" lon="5.41149">
        <ele>200.9</ele>
        <time>2022-09-25T08:54:08Z</time>
      </trkpt>
      <trkpt lat="45.84996" lon="5.41153">
        <ele>200.8</ele>
        <time>2022-09-25T08:54:09Z</time>
      </trkpt>
      <trkpt lat="45.84995" lon="5.41155">
        <ele>200.8</ele>
        <time>2022-09-25T08:54:10Z</time>
      </trkpt>
      <trkpt lat="45.84994" lon="5.41159">
        <ele>200.7</ele>
        <time>2022-09-25T08:54:11Z</time>
      </trkpt>
      <trkpt lat="45.84992" lon="5.41163">
        <ele>200.6</ele>
        <time>2022-09-25T08:54:12Z</time>
      </trkpt>
      <trkpt lat="45.84991" lon="5.41166">
        <ele>200.5</ele>
        <time>2022-09-25T08:54:13Z</time>
      </trkpt>
      <trkpt lat="45.8499" lon="5.4117">
        <ele>200.5</ele>
        <time>2022-09-25T08:54:14Z</time>
      </trkpt>
      <trkpt lat="45.84989" lon="5.41174">
        <ele>200.4</ele>
        <time>2022-09-25T08:54:15Z</time>
      </trkpt>
      <trkpt lat="45.84988" lon="5.41178">
        <ele>200.3</ele>
        <time>2022-09-25T08:54:16Z</time>
      </trkpt>
      <trkpt lat="45.84986" lon="5.41183">
        <ele>200.3</ele>
        <time>2022-09-25T08:54:17Z</time>
      </trkpt>
      <trkpt lat="45.84985" lon="5.41187">
        <ele>200.3</ele>
        <time>2022-09-25T08:54:18Z</time>
      </trkpt>
      <trkpt lat="45.84984" lon="5.41191">
        <ele>200.4</ele>
        <time>2022-09-25T08:54:19Z</time>
      </trkpt>
      <trkpt lat="45.84983" lon="5.41197">
        <ele>200.4</ele>
        <time>2022-09-25T08:54:20Z</time>
      </trkpt>
      <trkpt lat="45.84983" lon="5.41199">
        <ele>200.4</ele>
        <time>2022-09-25T08:54:21Z</time>
      </trkpt>
      <trkpt lat="45.84983" lon="5.41204">
        <ele>200.5</ele>
        <time>2022-09-25T08:54:22Z</time>
      </trkpt>
      <trkpt lat="45.84983" lon="5.41209">
        <ele>200.5</ele>
        <time>2022-09-25T08:54:23Z</time>
      </trkpt>
      <trkpt lat="45.84984" lon="5.41211">
        <ele>200.5</ele>
        <time>2022-09-25T08:54:24Z</time>
      </trkpt>
      <trkpt lat="45.84985" lon="5.41214">
        <ele>200.7</ele>
        <time>2022-09-25T08:54:25Z</time>
      </trkpt>
      <trkpt lat="45.84988" lon="5.41217">
        <ele>200.9</ele>
        <time>2022-09-25T08:54:26Z</time>
      </trkpt>
      <trkpt lat="45.8499" lon="5.41219">
        <ele>200.9</ele>
        <time>2022-09-25T08:54:27Z</time>
      </trkpt>
      <trkpt lat="45.84994" lon="5.41221">
        <ele>201</ele>
        <time>2022-09-25T08:54:28Z</time>
      </trkpt>
      <trkpt lat="45.84995" lon="5.41222">
        <ele>201</ele>
        <time>2022-09-25T08:54:29Z</time>
      </trkpt>
      <trkpt lat="45.84998" lon="5.41224">
        <ele>201.1</ele>
        <time>2022-09-25T08:54:30Z</time>
      </trkpt>
      <trkpt lat="45.85001" lon="5.41226">
        <ele>201.1</ele>
        <time>2022-09-25T08:54:31Z</time>
      </trkpt>
      <trkpt lat="45.85004" lon="5.41228">
        <ele>201.1</ele>
        <time>2022-09-25T08:54:32Z</time>
      </trkpt>
      <trkpt lat="45.85007" lon="5.4123">
        <ele>201.2</ele>
        <time>2022-09-25T08:54:33Z</time>
      </trkpt>
      <trkpt lat="45.8501" lon="5.41233">
        <ele>201.2</ele>
        <time>2022-09-25T08:54:34Z</time>
      </trkpt>
      <trkpt lat="45.85015" lon="5.41242">
        <ele>201.2</ele>
        <time>2022-09-25T08:54:35Z</time>
      </trkpt>
      <trkpt lat="45.85018" lon="5.41247">
        <ele>201.2</ele>
        <time>2022-09-25T08:54:36Z</time>
      </trkpt>
      <trkpt lat="45.8502" lon="5.41253">
        <ele>201.2</ele>
        <time>2022-09-25T08:54:37Z</time>
      </trkpt>
      <trkpt lat="45.85022" lon="5.41258">
        <ele>201.3</ele>
        <time>2022-09-25T08:54:38Z</time>
      </trkpt>
      <trkpt lat="45.85023" lon="5.41264">
        <ele>201.3</ele>
        <time>2022-09-25T08:54:39Z</time>
      </trkpt>
      <trkpt lat="45.85026" lon="5.41269">
        <ele>201.3</ele>
        <time>2022-09-25T08:54:40Z</time>
      </trkpt>
      <trkpt lat="45.85028" lon="5.41273">
        <ele>201.3</ele>
        <time>2022-09-25T08:54:41Z</time>
      </trkpt>
      <trkpt lat="45.85029" lon="5.41279">
        <ele>201.3</ele>
        <time>2022-09-25T08:54:42Z</time>
      </trkpt>
      <trkpt lat="45.8503" lon="5.41285">
        <ele>201.4</ele>
        <time>2022-09-25T08:54:43Z</time>
      </trkpt>
      <trkpt lat="45.85031" lon="5.41289">
        <ele>201.5</ele>
        <time>2022-09-25T08:54:44Z</time>
      </trkpt>
      <trkpt lat="45.85032" lon="5.41295">
        <ele>201.5</ele>
        <time>2022-09-25T08:54:45Z</time>
      </trkpt>
      <trkpt lat="45.85034" lon="5.413">
        <ele>201.6</ele>
        <time>2022-09-25T08:54:46Z</time>
      </trkpt>
      <trkpt lat="45.85035" lon="5.41305">
        <ele>201.6</ele>
        <time>2022-09-25T08:54:47Z</time>
      </trkpt>
      <trkpt lat="45.85036" lon="5.41309">
        <ele>201.7</ele>
        <time>2022-09-25T08:54:48Z</time>
      </trkpt>
      <trkpt lat="45.85037" lon="5.4131">
        <ele>201.8</ele>
        <time>2022-09-25T08:54:49Z</time>
      </trkpt>
      <trkpt lat="45.85037" lon="5.4131">
        <ele>201.8</ele>
        <time>2022-09-25T08:54:50Z</time>
      </trkpt>
      <trkpt lat="45.85038" lon="5.4131">
        <ele>201.8</ele>
        <time>2022-09-25T08:54:51Z</time>
      </trkpt>
      <trkpt lat="45.85038" lon="5.4131">
        <ele>201.8</ele>
        <time>2022-09-25T08:54:52Z</time>
      </trkpt>
      <trkpt lat="45.85038" lon="5.41309">
        <ele>201.8</ele>
        <time>2022-09-25T08:54:53Z</time>
      </trkpt>
      <trkpt lat="45.85039" lon="5.41309">
        <ele>201.8</ele>
        <time>2022-09-25T08:54:54Z</time>
      </trkpt>
      <trkpt lat="45.85039" lon="5.41309">
        <ele>201.8</ele>
        <time>2022-09-25T08:54:55Z</time>
      </trkpt>
      <trkpt lat="45.8504" lon="5.41308">
        <ele>201.8</ele>
        <time>2022-09-25T08:54:56Z</time>
      </trkpt>
      <trkpt lat="45.8504" lon="5.41308">
        <ele>201.8</ele>
        <time>2022-09-25T08:54:57Z</time>
      </trkpt>
      <trkpt lat="45.8504" lon="5.41308">
        <ele>201.8</ele>
        <time>2022-09-25T08:54:58Z</time>
      </trkpt>
      <trkpt lat="45.85041" lon="5.41308">
        <ele>201.8</ele>
        <time>2022-09-25T08:54:59Z</time>
      </trkpt>
      <trkpt lat="45.85041" lon="5.41307">
        <ele>201.9</ele>
        <time>2022-09-25T08:55:00Z</time>
      </trkpt>
      <trkpt lat="45.85042" lon="5.41307">
        <ele>201.9</ele>
        <time>2022-09-25T08:55:24Z</time>
      </trkpt>
      <trkpt lat="45.85042" lon="5.41307">
        <ele>201.9</ele>
        <time>2022-09-25T08:55:25Z</time>
      </trkpt>
      <trkpt lat="45.85042" lon="5.41306">
        <ele>201.9</ele>
        <time>2022-09-25T08:55:26Z</time>
      </trkpt>
      <trkpt lat="45.85045" lon="5.41307">
        <ele>201.9</ele>
        <time>2022-09-25T08:55:27Z</time>
      </trkpt>
      <trkpt lat="45.85048" lon="5.41308">
        <ele>202</ele>
        <time>2022-09-25T08:55:28Z</time>
      </trkpt>
      <trkpt lat="45.85049" lon="5.41309">
        <ele>202</ele>
        <time>2022-09-25T08:55:29Z</time>
      </trkpt>
      <trkpt lat="45.8505" lon="5.41309">
        <ele>202.1</ele>
        <time>2022-09-25T08:55:30Z</time>
      </trkpt>
      <trkpt lat="45.85052" lon="5.4131">
        <ele>202.1</ele>
        <time>2022-09-25T08:55:31Z</time>
      </trkpt>
      <trkpt lat="45.85055" lon="5.41309">
        <ele>202.2</ele>
        <time>2022-09-25T08:55:32Z</time>
      </trkpt>
      <trkpt lat="45.85056" lon="5.41309">
        <ele>202.2</ele>
        <time>2022-09-25T08:55:33Z</time>
      </trkpt>
      <trkpt lat="45.85057" lon="5.41309">
        <ele>202.2</ele>
        <time>2022-09-25T08:55:34Z</time>
      </trkpt>
      <trkpt lat="45.85058" lon="5.41309">
        <ele>202.2</ele>
        <time>2022-09-25T08:55:35Z</time>
      </trkpt>
      <trkpt lat="45.8506" lon="5.41309">
        <ele>202.3</ele>
        <time>2022-09-25T08:55:36Z</time>
      </trkpt>
      <trkpt lat="45.85061" lon="5.41309">
        <ele>202.3</ele>
        <time>2022-09-25T08:55:37Z</time>
      </trkpt>
      <trkpt lat="45.85062" lon="5.41309">
        <ele>202.3</ele>
        <time>2022-09-25T08:55:38Z</time>
      </trkpt>
      <trkpt lat="45.85064" lon="5.41309">
        <ele>202.3</ele>
        <time>2022-09-25T08:55:39Z</time>
      </trkpt>
      <trkpt lat="45.85065" lon="5.4131">
        <ele>202.3</ele>
        <time>2022-09-25T08:55:40Z</time>
      </trkpt>
      <trkpt lat="45.85066" lon="5.41312">
        <ele>202.3</ele>
        <time>2022-09-25T08:55:41Z</time>
      </trkpt>
      <trkpt lat="45.85067" lon="5.41314">
        <ele>202.4</ele>
        <time>2022-09-25T08:55:42Z</time>
      </trkpt>
      <trkpt lat="45.85068" lon="5.41316">
        <ele>202.4</ele>
        <time>2022-09-25T08:55:43Z</time>
      </trkpt>
      <trkpt lat="45.85069" lon="5.41318">
        <ele>202.4</ele>
        <time>2022-09-25T08:55:44Z</time>
      </trkpt>
      <trkpt lat="45.8507" lon="5.41318">
        <ele>202.4</ele>
        <time>2022-09-25T08:55:45Z</time>
      </trkpt>
      <trkpt lat="45.85071" lon="5.41318">
        <ele>202.4</ele>
        <time>2022-09-25T08:55:46Z</time>
      </trkpt>
      <trkpt lat="45.85072" lon="5.41318">
        <ele>202.4</ele>
        <time>2022-09-25T08:55:47Z</time>
      </trkpt>
      <trkpt lat="45.85075" lon="5.41319">
        <ele>202.4</ele>
        <time>2022-09-25T08:55:48Z</time>
      </trkpt>
      <trkpt lat="45.85079" lon="5.41319">
        <ele>202.4</ele>
        <time>2022-09-25T08:55:49Z</time>
      </trkpt>
      <trkpt lat="45.85083" lon="5.41319">
        <ele>202.4</ele>
        <time>2022-09-25T08:55:50Z</time>
      </trkpt>
      <trkpt lat="45.85087" lon="5.41317">
        <ele>202.4</ele>
        <time>2022-09-25T08:55:51Z</time>
      </trkpt>
      <trkpt lat="45.8509" lon="5.41314">
        <ele>202.4</ele>
        <time>2022-09-25T08:55:52Z</time>
      </trkpt>
      <trkpt lat="45.85093" lon="5.4131">
        <ele>202.4</ele>
        <time>2022-09-25T08:55:53Z</time>
      </trkpt>
      <trkpt lat="45.85097" lon="5.41306">
        <ele>202.4</ele>
        <time>2022-09-25T08:55:54Z</time>
      </trkpt>
      <trkpt lat="45.851" lon="5.41302">
        <ele>202.4</ele>
        <time>2022-09-25T08:55:55Z</time>
      </trkpt>
      <trkpt lat="45.85103" lon="5.41297">
        <ele>202.4</ele>
        <time>2022-09-25T08:55:56Z</time>
      </trkpt>
      <trkpt lat="45.85107" lon="5.41293">
        <ele>202.3</ele>
        <time>2022-09-25T08:55:57Z</time>
      </trkpt>
      <trkpt lat="45.8511" lon="5.4129">
        <ele>202.3</ele>
        <time>2022-09-25T08:55:58Z</time>
      </trkpt>
      <trkpt lat="45.85114" lon="5.41286">
        <ele>202.3</ele>
        <time>2022-09-25T08:55:59Z</time>
      </trkpt>
      <trkpt lat="45.85118" lon="5.41282">
        <ele>202.3</ele>
        <time>2022-09-25T08:56:00Z</time>
      </trkpt>
      <trkpt lat="45.85122" lon="5.41276">
        <ele>202.3</ele>
        <time>2022-09-25T08:56:01Z</time>
      </trkpt>
      <trkpt lat="45.85126" lon="5.41271">
        <ele>202.3</ele>
        <time>2022-09-25T08:56:02Z</time>
      </trkpt>
      <trkpt lat="45.85131" lon="5.41267">
        <ele>202.3</ele>
        <time>2022-09-25T08:56:03Z</time>
      </trkpt>
      <trkpt lat="45.85135" lon="5.41263">
        <ele>202.3</ele>
        <time>2022-09-25T08:56:04Z</time>
      </trkpt>
      <trkpt lat="45.85138" lon="5.41258">
        <ele>202.2</ele>
        <time>2022-09-25T08:56:05Z</time>
      </trkpt>
      <trkpt lat="45.85142" lon="5.41254">
        <ele>202.2</ele>
        <time>2022-09-25T08:56:06Z</time>
      </trkpt>
      <trkpt lat="45.85145" lon="5.41248">
        <ele>202.2</ele>
        <time>2022-09-25T08:56:08Z</time>
      </trkpt>
      <trkpt lat="45.85149" lon="5.41244">
        <ele>202.1</ele>
        <time>2022-09-25T08:56:09Z</time>
      </trkpt>
      <trkpt lat="45.85153" lon="5.41236">
        <ele>202</ele>
        <time>2022-09-25T08:56:10Z</time>
      </trkpt>
      <trkpt lat="45.85157" lon="5.41231">
        <ele>201.9</ele>
        <time>2022-09-25T08:56:11Z</time>
      </trkpt>
      <trkpt lat="45.85161" lon="5.41224">
        <ele>201.8</ele>
        <time>2022-09-25T08:56:12Z</time>
      </trkpt>
      <trkpt lat="45.85164" lon="5.41219">
        <ele>201.7</ele>
        <time>2022-09-25T08:56:13Z</time>
      </trkpt>
      <trkpt lat="45.85168" lon="5.41213">
        <ele>201.6</ele>
        <time>2022-09-25T08:56:14Z</time>
      </trkpt>
      <trkpt lat="45.85171" lon="5.41208">
        <ele>201.5</ele>
        <time>2022-09-25T08:56:15Z</time>
      </trkpt>
      <trkpt lat="45.85174" lon="5.41201">
        <ele>201.4</ele>
        <time>2022-09-25T08:56:16Z</time>
      </trkpt>
      <trkpt lat="45.85179" lon="5.41195">
        <ele>201.3</ele>
        <time>2022-09-25T08:56:17Z</time>
      </trkpt>
      <trkpt lat="45.85182" lon="5.41188">
        <ele>201.2</ele>
        <time>2022-09-25T08:56:18Z</time>
      </trkpt>
      <trkpt lat="45.85186" lon="5.41182">
        <ele>201.1</ele>
        <time>2022-09-25T08:56:19Z</time>
      </trkpt>
      <trkpt lat="45.85189" lon="5.41175">
        <ele>201</ele>
        <time>2022-09-25T08:56:20Z</time>
      </trkpt>
      <trkpt lat="45.85192" lon="5.41169">
        <ele>200.9</ele>
        <time>2022-09-25T08:56:21Z</time>
      </trkpt>
      <trkpt lat="45.85195" lon="5.41162">
        <ele>200.9</ele>
        <time>2022-09-25T08:56:22Z</time>
      </trkpt>
      <trkpt lat="45.85198" lon="5.41156">
        <ele>200.9</ele>
        <time>2022-09-25T08:56:23Z</time>
      </trkpt>
      <trkpt lat="45.85202" lon="5.4115">
        <ele>200.8</ele>
        <time>2022-09-25T08:56:24Z</time>
      </trkpt>
      <trkpt lat="45.85203" lon="5.41142">
        <ele>200.8</ele>
        <time>2022-09-25T08:56:25Z</time>
      </trkpt>
      <trkpt lat="45.85206" lon="5.41135">
        <ele>200.8</ele>
        <time>2022-09-25T08:56:26Z</time>
      </trkpt>
      <trkpt lat="45.85209" lon="5.41126">
        <ele>200.7</ele>
        <time>2022-09-25T08:56:27Z</time>
      </trkpt>
      <trkpt lat="45.85211" lon="5.4112">
        <ele>200.7</ele>
        <time>2022-09-25T08:56:28Z</time>
      </trkpt>
      <trkpt lat="45.85213" lon="5.41115">
        <ele>200.7</ele>
        <time>2022-09-25T08:56:29Z</time>
      </trkpt>
      <trkpt lat="45.85216" lon="5.41107">
        <ele>200.7</ele>
        <time>2022-09-25T08:56:30Z</time>
      </trkpt>
      <trkpt lat="45.85218" lon="5.41098">
        <ele>200.7</ele>
        <time>2022-09-25T08:56:31Z</time>
      </trkpt>
      <trkpt lat="45.85221" lon="5.41093">
        <ele>200.8</ele>
        <time>2022-09-25T08:56:32Z</time>
      </trkpt>
      <trkpt lat="45.85224" lon="5.41084">
        <ele>200.8</ele>
        <time>2022-09-25T08:56:33Z</time>
      </trkpt>
      <trkpt lat="45.85227" lon="5.41079">
        <ele>200.8</ele>
        <time>2022-09-25T08:56:34Z</time>
      </trkpt>
      <trkpt lat="45.8523" lon="5.41069">
        <ele>200.9</ele>
        <time>2022-09-25T08:56:35Z</time>
      </trkpt>
      <trkpt lat="45.85231" lon="5.41063">
        <ele>200.9</ele>
        <time>2022-09-25T08:56:36Z</time>
      </trkpt>
      <trkpt lat="45.85232" lon="5.41055">
        <ele>201</ele>
        <time>2022-09-25T08:56:37Z</time>
      </trkpt>
      <trkpt lat="45.85233" lon="5.41047">
        <ele>201.1</ele>
        <time>2022-09-25T08:56:38Z</time>
      </trkpt>
      <trkpt lat="45.85232" lon="5.41039">
        <ele>201.2</ele>
        <time>2022-09-25T08:56:39Z</time>
      </trkpt>
      <trkpt lat="45.85231" lon="5.41031">
        <ele>201.3</ele>
        <time>2022-09-25T08:56:40Z</time>
      </trkpt>
      <trkpt lat="45.85231" lon="5.41025">
        <ele>201.4</ele>
        <time>2022-09-25T08:56:41Z</time>
      </trkpt>
      <trkpt lat="45.85228" lon="5.4102">
        <ele>201.5</ele>
        <time>2022-09-25T08:56:42Z</time>
      </trkpt>
      <trkpt lat="45.85225" lon="5.41016">
        <ele>201.5</ele>
        <time>2022-09-25T08:56:43Z</time>
      </trkpt>
      <trkpt lat="45.85223" lon="5.41013">
        <ele>201.5</ele>
        <time>2022-09-25T08:56:44Z</time>
      </trkpt>
      <trkpt lat="45.85223" lon="5.41009">
        <ele>201.5</ele>
        <time>2022-09-25T08:56:45Z</time>
      </trkpt>
      <trkpt lat="45.85223" lon="5.41007">
        <ele>201.6</ele>
        <time>2022-09-25T08:56:46Z</time>
      </trkpt>
      <trkpt lat="45.8522" lon="5.40999">
        <ele>201.6</ele>
        <time>2022-09-25T08:56:47Z</time>
      </trkpt>
      <trkpt lat="45.85216" lon="5.40992">
        <ele>201.6</ele>
        <time>2022-09-25T08:56:48Z</time>
      </trkpt>
      <trkpt lat="45.85214" lon="5.40988">
        <ele>201.6</ele>
        <time>2022-09-25T08:56:49Z</time>
      </trkpt>
      <trkpt lat="45.85213" lon="5.40982">
        <ele>201.6</ele>
        <time>2022-09-25T08:56:50Z</time>
      </trkpt>
      <trkpt lat="45.85213" lon="5.40976">
        <ele>201.7</ele>
        <time>2022-09-25T08:56:51Z</time>
      </trkpt>
      <trkpt lat="45.85212" lon="5.4097">
        <ele>201.7</ele>
        <time>2022-09-25T08:56:52Z</time>
      </trkpt>
      <trkpt lat="45.85212" lon="5.40966">
        <ele>201.7</ele>
        <time>2022-09-25T08:56:53Z</time>
      </trkpt>
      <trkpt lat="45.85211" lon="5.40959">
        <ele>201.8</ele>
        <time>2022-09-25T08:56:54Z</time>
      </trkpt>
      <trkpt lat="45.85211" lon="5.40955">
        <ele>201.9</ele>
        <time>2022-09-25T08:56:55Z</time>
      </trkpt>
      <trkpt lat="45.85213" lon="5.4095">
        <ele>201.9</ele>
        <time>2022-09-25T08:56:56Z</time>
      </trkpt>
      <trkpt lat="45.85214" lon="5.40943">
        <ele>202.2</ele>
        <time>2022-09-25T08:56:57Z</time>
      </trkpt>
      <trkpt lat="45.85216" lon="5.40937">
        <ele>202.2</ele>
        <time>2022-09-25T08:56:58Z</time>
      </trkpt>
      <trkpt lat="45.85217" lon="5.40933">
        <ele>202.3</ele>
        <time>2022-09-25T08:56:59Z</time>
      </trkpt>
      <trkpt lat="45.85219" lon="5.40928">
        <ele>202.3</ele>
        <time>2022-09-25T08:57:00Z</time>
      </trkpt>
      <trkpt lat="45.85226" lon="5.4092">
        <ele>202.4</ele>
        <time>2022-09-25T08:57:01Z</time>
      </trkpt>
      <trkpt lat="45.85228" lon="5.40916">
        <ele>202.4</ele>
        <time>2022-09-25T08:57:02Z</time>
      </trkpt>
      <trkpt lat="45.85231" lon="5.40912">
        <ele>202.4</ele>
        <time>2022-09-25T08:57:03Z</time>
      </trkpt>
      <trkpt lat="45.85236" lon="5.40908">
        <ele>202.5</ele>
        <time>2022-09-25T08:57:04Z</time>
      </trkpt>
      <trkpt lat="45.85238" lon="5.40904">
        <ele>202.5</ele>
        <time>2022-09-25T08:57:05Z</time>
      </trkpt>
      <trkpt lat="45.85242" lon="5.409">
        <ele>202.6</ele>
        <time>2022-09-25T08:57:06Z</time>
      </trkpt>
      <trkpt lat="45.85246" lon="5.40896">
        <ele>202.7</ele>
        <time>2022-09-25T08:57:07Z</time>
      </trkpt>
      <trkpt lat="45.8525" lon="5.40893">
        <ele>202.7</ele>
        <time>2022-09-25T08:57:08Z</time>
      </trkpt>
      <trkpt lat="45.85253" lon="5.40889">
        <ele>202.8</ele>
        <time>2022-09-25T08:57:09Z</time>
      </trkpt>
      <trkpt lat="45.85257" lon="5.40885">
        <ele>202.8</ele>
        <time>2022-09-25T08:57:10Z</time>
      </trkpt>
      <trkpt lat="45.85261" lon="5.40881">
        <ele>202.9</ele>
        <time>2022-09-25T08:57:11Z</time>
      </trkpt>
      <trkpt lat="45.85264" lon="5.40877">
        <ele>202.9</ele>
        <time>2022-09-25T08:57:12Z</time>
      </trkpt>
      <trkpt lat="45.85267" lon="5.40873">
        <ele>203</ele>
        <time>2022-09-25T08:57:13Z</time>
      </trkpt>
      <trkpt lat="45.85271" lon="5.40869">
        <ele>203</ele>
        <time>2022-09-25T08:57:14Z</time>
      </trkpt>
      <trkpt lat="45.85275" lon="5.40865">
        <ele>203</ele>
        <time>2022-09-25T08:57:15Z</time>
      </trkpt>
      <trkpt lat="45.85279" lon="5.40861">
        <ele>203.1</ele>
        <time>2022-09-25T08:57:16Z</time>
      </trkpt>
      <trkpt lat="45.85283" lon="5.40857">
        <ele>203.1</ele>
        <time>2022-09-25T08:57:17Z</time>
      </trkpt>
      <trkpt lat="45.85287" lon="5.40854">
        <ele>203.1</ele>
        <time>2022-09-25T08:57:18Z</time>
      </trkpt>
      <trkpt lat="45.85291" lon="5.40849">
        <ele>203.2</ele>
        <time>2022-09-25T08:57:19Z</time>
      </trkpt>
      <trkpt lat="45.85295" lon="5.40846">
        <ele>203.2</ele>
        <time>2022-09-25T08:57:20Z</time>
      </trkpt>
      <trkpt lat="45.85299" lon="5.40841">
        <ele>203.2</ele>
        <time>2022-09-25T08:57:21Z</time>
      </trkpt>
      <trkpt lat="45.85303" lon="5.40837">
        <ele>203.2</ele>
        <time>2022-09-25T08:57:22Z</time>
      </trkpt>
      <trkpt lat="45.85306" lon="5.40833">
        <ele>203.3</ele>
        <time>2022-09-25T08:57:23Z</time>
      </trkpt>
      <trkpt lat="45.8531" lon="5.4083">
        <ele>203.3</ele>
        <time>2022-09-25T08:57:24Z</time>
      </trkpt>
      <trkpt lat="45.85314" lon="5.40825">
        <ele>203.4</ele>
        <time>2022-09-25T08:57:25Z</time>
      </trkpt>
      <trkpt lat="45.85318" lon="5.40821">
        <ele>203.4</ele>
        <time>2022-09-25T08:57:26Z</time>
      </trkpt>
      <trkpt lat="45.85322" lon="5.40817">
        <ele>203.5</ele>
        <time>2022-09-25T08:57:27Z</time>
      </trkpt>
      <trkpt lat="45.85325" lon="5.40813">
        <ele>203.5</ele>
        <time>2022-09-25T08:57:28Z</time>
      </trkpt>
      <trkpt lat="45.85329" lon="5.40809">
        <ele>203.6</ele>
        <time>2022-09-25T08:57:29Z</time>
      </trkpt>
      <trkpt lat="45.85334" lon="5.40805">
        <ele>203.7</ele>
        <time>2022-09-25T08:57:30Z</time>
      </trkpt>
      <trkpt lat="45.85337" lon="5.408">
        <ele>203.8</ele>
        <time>2022-09-25T08:57:31Z</time>
      </trkpt>
      <trkpt lat="45.8534" lon="5.40797">
        <ele>203.9</ele>
        <time>2022-09-25T08:57:32Z</time>
      </trkpt>
      <trkpt lat="45.85343" lon="5.40794">
        <ele>204</ele>
        <time>2022-09-25T08:57:33Z</time>
      </trkpt>
      <trkpt lat="45.85347" lon="5.4079">
        <ele>204.1</ele>
        <time>2022-09-25T08:57:34Z</time>
      </trkpt>
      <trkpt lat="45.8535" lon="5.40787">
        <ele>204.3</ele>
        <time>2022-09-25T08:57:35Z</time>
      </trkpt>
      <trkpt lat="45.85354" lon="5.40784">
        <ele>204.4</ele>
        <time>2022-09-25T08:57:36Z</time>
      </trkpt>
      <trkpt lat="45.85357" lon="5.4078">
        <ele>204.5</ele>
        <time>2022-09-25T08:57:37Z</time>
      </trkpt>
      <trkpt lat="45.8536" lon="5.40776">
        <ele>204.6</ele>
        <time>2022-09-25T08:57:38Z</time>
      </trkpt>
      <trkpt lat="45.85363" lon="5.40774">
        <ele>204.8</ele>
        <time>2022-09-25T08:57:39Z</time>
      </trkpt>
      <trkpt lat="45.85366" lon="5.4077">
        <ele>204.9</ele>
        <time>2022-09-25T08:57:40Z</time>
      </trkpt>
      <trkpt lat="45.85369" lon="5.40767">
        <ele>205</ele>
        <time>2022-09-25T08:57:41Z</time>
      </trkpt>
      <trkpt lat="45.85372" lon="5.40764">
        <ele>205.1</ele>
        <time>2022-09-25T08:57:42Z</time>
      </trkpt>
      <trkpt lat="45.85375" lon="5.40761">
        <ele>205.3</ele>
        <time>2022-09-25T08:57:43Z</time>
      </trkpt>
      <trkpt lat="45.85377" lon="5.40758">
        <ele>205.4</ele>
        <time>2022-09-25T08:57:44Z</time>
      </trkpt>
      <trkpt lat="45.8538" lon="5.40755">
        <ele>205.5</ele>
        <time>2022-09-25T08:57:45Z</time>
      </trkpt>
      <trkpt lat="45.85383" lon="5.40754">
        <ele>205.6</ele>
        <time>2022-09-25T08:57:46Z</time>
      </trkpt>
      <trkpt lat="45.85385" lon="5.40751">
        <ele>205.7</ele>
        <time>2022-09-25T08:57:47Z</time>
      </trkpt>
      <trkpt lat="45.85386" lon="5.4075">
        <ele>205.7</ele>
        <time>2022-09-25T08:57:48Z</time>
      </trkpt>
      <trkpt lat="45.85388" lon="5.40747">
        <ele>205.8</ele>
        <time>2022-09-25T08:57:49Z</time>
      </trkpt>
      <trkpt lat="45.85389" lon="5.40746">
        <ele>205.8</ele>
        <time>2022-09-25T08:57:50Z</time>
      </trkpt>
      <trkpt lat="45.85389" lon="5.40745">
        <ele>205.9</ele>
        <time>2022-09-25T08:57:51Z</time>
      </trkpt>
      <trkpt lat="45.85391" lon="5.40743">
        <ele>205.9</ele>
        <time>2022-09-25T08:57:52Z</time>
      </trkpt>
      <trkpt lat="45.85391" lon="5.40739">
        <ele>205.9</ele>
        <time>2022-09-25T08:57:53Z</time>
      </trkpt>
      <trkpt lat="45.85391" lon="5.40737">
        <ele>205.9</ele>
        <time>2022-09-25T08:57:54Z</time>
      </trkpt>
      <trkpt lat="45.8539" lon="5.40732">
        <ele>205.8</ele>
        <time>2022-09-25T08:57:55Z</time>
      </trkpt>
      <trkpt lat="45.85388" lon="5.40728">
        <ele>205.8</ele>
        <time>2022-09-25T08:57:56Z</time>
      </trkpt>
      <trkpt lat="45.85386" lon="5.40724">
        <ele>205.8</ele>
        <time>2022-09-25T08:57:57Z</time>
      </trkpt>
      <trkpt lat="45.85383" lon="5.40719">
        <ele>205.7</ele>
        <time>2022-09-25T08:57:58Z</time>
      </trkpt>
      <trkpt lat="45.8538" lon="5.40714">
        <ele>205.6</ele>
        <time>2022-09-25T08:57:59Z</time>
      </trkpt>
      <trkpt lat="45.85377" lon="5.4071">
        <ele>205.5</ele>
        <time>2022-09-25T08:58:00Z</time>
      </trkpt>
      <trkpt lat="45.85375" lon="5.40705">
        <ele>205.5</ele>
        <time>2022-09-25T08:58:01Z</time>
      </trkpt>
      <trkpt lat="45.85372" lon="5.407">
        <ele>205.4</ele>
        <time>2022-09-25T08:58:02Z</time>
      </trkpt>
      <trkpt lat="45.8537" lon="5.40696">
        <ele>205.4</ele>
        <time>2022-09-25T08:58:03Z</time>
      </trkpt>
      <trkpt lat="45.85369" lon="5.40691">
        <ele>205.3</ele>
        <time>2022-09-25T08:58:04Z</time>
      </trkpt>
      <trkpt lat="45.85366" lon="5.40686">
        <ele>205.2</ele>
        <time>2022-09-25T08:58:05Z</time>
      </trkpt>
      <trkpt lat="45.85364" lon="5.40681">
        <ele>205.2</ele>
        <time>2022-09-25T08:58:06Z</time>
      </trkpt>
      <trkpt lat="45.8536" lon="5.40675">
        <ele>205.2</ele>
        <time>2022-09-25T08:58:07Z</time>
      </trkpt>
      <trkpt lat="45.85358" lon="5.4067">
        <ele>205.2</ele>
        <time>2022-09-25T08:58:08Z</time>
      </trkpt>
      <trkpt lat="45.85356" lon="5.40664">
        <ele>205.2</ele>
        <time>2022-09-25T08:58:09Z</time>
      </trkpt>
      <trkpt lat="45.85354" lon="5.4066">
        <ele>205.1</ele>
        <time>2022-09-25T08:58:10Z</time>
      </trkpt>
      <trkpt lat="45.85352" lon="5.40654">
        <ele>205.1</ele>
        <time>2022-09-25T08:58:11Z</time>
      </trkpt>
      <trkpt lat="45.8535" lon="5.40649">
        <ele>205.1</ele>
        <time>2022-09-25T08:58:12Z</time>
      </trkpt>
      <trkpt lat="45.85348" lon="5.40644">
        <ele>205.1</ele>
        <time>2022-09-25T08:58:14Z</time>
      </trkpt>
      <trkpt lat="45.85346" lon="5.4064">
        <ele>205.2</ele>
        <time>2022-09-25T08:58:15Z</time>
      </trkpt>
      <trkpt lat="45.85344" lon="5.40635">
        <ele>205.2</ele>
        <time>2022-09-25T08:58:16Z</time>
      </trkpt>
      <trkpt lat="45.85342" lon="5.40629">
        <ele>205.2</ele>
        <time>2022-09-25T08:58:17Z</time>
      </trkpt>
      <trkpt lat="45.8534" lon="5.40626">
        <ele>205.2</ele>
        <time>2022-09-25T08:58:18Z</time>
      </trkpt>
      <trkpt lat="45.85338" lon="5.40621">
        <ele>205.2</ele>
        <time>2022-09-25T08:58:19Z</time>
      </trkpt>
      <trkpt lat="45.85335" lon="5.40615">
        <ele>205.2</ele>
        <time>2022-09-25T08:58:20Z</time>
      </trkpt>
      <trkpt lat="45.85333" lon="5.40609">
        <ele>205.2</ele>
        <time>2022-09-25T08:58:21Z</time>
      </trkpt>
      <trkpt lat="45.8533" lon="5.40602">
        <ele>205.2</ele>
        <time>2022-09-25T08:58:22Z</time>
      </trkpt>
      <trkpt lat="45.85328" lon="5.40597">
        <ele>205.2</ele>
        <time>2022-09-25T08:58:23Z</time>
      </trkpt>
      <trkpt lat="45.85326" lon="5.40592">
        <ele>205.2</ele>
        <time>2022-09-25T08:58:24Z</time>
      </trkpt>
      <trkpt lat="45.85323" lon="5.40586">
        <ele>205.2</ele>
        <time>2022-09-25T08:58:25Z</time>
      </trkpt>
      <trkpt lat="45.85321" lon="5.4058">
        <ele>205.2</ele>
        <time>2022-09-25T08:58:26Z</time>
      </trkpt>
      <trkpt lat="45.85318" lon="5.40574">
        <ele>205.2</ele>
        <time>2022-09-25T08:58:27Z</time>
      </trkpt>
      <trkpt lat="45.85316" lon="5.40568">
        <ele>205.2</ele>
        <time>2022-09-25T08:58:28Z</time>
      </trkpt>
      <trkpt lat="45.85314" lon="5.40562">
        <ele>205.2</ele>
        <time>2022-09-25T08:58:29Z</time>
      </trkpt>
      <trkpt lat="45.85311" lon="5.40557">
        <ele>205.3</ele>
        <time>2022-09-25T08:58:30Z</time>
      </trkpt>
      <trkpt lat="45.85309" lon="5.40552">
        <ele>205.3</ele>
        <time>2022-09-25T08:58:31Z</time>
      </trkpt>
      <trkpt lat="45.85306" lon="5.40548">
        <ele>205.3</ele>
        <time>2022-09-25T08:58:32Z</time>
      </trkpt>
      <trkpt lat="45.85304" lon="5.40542">
        <ele>205.3</ele>
        <time>2022-09-25T08:58:33Z</time>
      </trkpt>
      <trkpt lat="45.85301" lon="5.40537">
        <ele>205.3</ele>
        <time>2022-09-25T08:58:34Z</time>
      </trkpt>
      <trkpt lat="45.85299" lon="5.40532">
        <ele>205.3</ele>
        <time>2022-09-25T08:58:35Z</time>
      </trkpt>
      <trkpt lat="45.85297" lon="5.40528">
        <ele>205.3</ele>
        <time>2022-09-25T08:58:36Z</time>
      </trkpt>
      <trkpt lat="45.85295" lon="5.40524">
        <ele>205.4</ele>
        <time>2022-09-25T08:58:37Z</time>
      </trkpt>
      <trkpt lat="45.85294" lon="5.4052">
        <ele>205.4</ele>
        <time>2022-09-25T08:58:38Z</time>
      </trkpt>
      <trkpt lat="45.85293" lon="5.40519">
        <ele>205.4</ele>
        <time>2022-09-25T08:58:39Z</time>
      </trkpt>
      <trkpt lat="45.8529" lon="5.40521">
        <ele>205.4</ele>
        <time>2022-09-25T08:58:40Z</time>
      </trkpt>
      <trkpt lat="45.85287" lon="5.40525">
        <ele>205.4</ele>
        <time>2022-09-25T08:58:41Z</time>
      </trkpt>
      <trkpt lat="45.85287" lon="5.40526">
        <ele>205.4</ele>
        <time>2022-09-25T08:58:42Z</time>
      </trkpt>
      <trkpt lat="45.85282" lon="5.40528">
        <ele>205.4</ele>
        <time>2022-09-25T08:58:43Z</time>
      </trkpt>
      <trkpt lat="45.8528" lon="5.40528">
        <ele>205.4</ele>
        <time>2022-09-25T08:58:44Z</time>
      </trkpt>
      <trkpt lat="45.85277" lon="5.40528">
        <ele>205.5</ele>
        <time>2022-09-25T08:58:45Z</time>
      </trkpt>
      <trkpt lat="45.85272" lon="5.40529">
        <ele>205.5</ele>
        <time>2022-09-25T08:58:46Z</time>
      </trkpt>
      <trkpt lat="45.8527" lon="5.4053">
        <ele>205.5</ele>
        <time>2022-09-25T08:58:47Z</time>
      </trkpt>
      <trkpt lat="45.85266" lon="5.40532">
        <ele>205.5</ele>
        <time>2022-09-25T08:58:48Z</time>
      </trkpt>
      <trkpt lat="45.85263" lon="5.40535">
        <ele>205.5</ele>
        <time>2022-09-25T08:58:49Z</time>
      </trkpt>
      <trkpt lat="45.85259" lon="5.40539">
        <ele>205.5</ele>
        <time>2022-09-25T08:58:50Z</time>
      </trkpt>
      <trkpt lat="45.85256" lon="5.40543">
        <ele>205.5</ele>
        <time>2022-09-25T08:58:51Z</time>
      </trkpt>
      <trkpt lat="45.85254" lon="5.40547">
        <ele>205.5</ele>
        <time>2022-09-25T08:58:52Z</time>
      </trkpt>
      <trkpt lat="45.85252" lon="5.40552">
        <ele>205.5</ele>
        <time>2022-09-25T08:58:53Z</time>
      </trkpt>
      <trkpt lat="45.85249" lon="5.40556">
        <ele>205.5</ele>
        <time>2022-09-25T08:58:54Z</time>
      </trkpt>
      <trkpt lat="45.85245" lon="5.40559">
        <ele>205.5</ele>
        <time>2022-09-25T08:58:55Z</time>
      </trkpt>
      <trkpt lat="45.85242" lon="5.40562">
        <ele>205.5</ele>
        <time>2022-09-25T08:58:56Z</time>
      </trkpt>
      <trkpt lat="45.85238" lon="5.40566">
        <ele>205.5</ele>
        <time>2022-09-25T08:58:57Z</time>
      </trkpt>
      <trkpt lat="45.85234" lon="5.4057">
        <ele>205.6</ele>
        <time>2022-09-25T08:58:58Z</time>
      </trkpt>
      <trkpt lat="45.8523" lon="5.40573">
        <ele>205.6</ele>
        <time>2022-09-25T08:58:59Z</time>
      </trkpt>
      <trkpt lat="45.85226" lon="5.40577">
        <ele>205.7</ele>
        <time>2022-09-25T08:59:00Z</time>
      </trkpt>
      <trkpt lat="45.85223" lon="5.40581">
        <ele>205.8</ele>
        <time>2022-09-25T08:59:01Z</time>
      </trkpt>
      <trkpt lat="45.85219" lon="5.40584">
        <ele>205.9</ele>
        <time>2022-09-25T08:59:02Z</time>
      </trkpt>
      <trkpt lat="45.85218" lon="5.40587">
        <ele>205.9</ele>
        <time>2022-09-25T08:59:03Z</time>
      </trkpt>
      <trkpt lat="45.85213" lon="5.40589">
        <ele>206.1</ele>
        <time>2022-09-25T08:59:04Z</time>
      </trkpt>
      <trkpt lat="45.85206" lon="5.40598">
        <ele>206.3</ele>
        <time>2022-09-25T08:59:05Z</time>
      </trkpt>
      <trkpt lat="45.85202" lon="5.40601">
        <ele>206.4</ele>
        <time>2022-09-25T08:59:06Z</time>
      </trkpt>
      <trkpt lat="45.85198" lon="5.40605">
        <ele>206.6</ele>
        <time>2022-09-25T08:59:07Z</time>
      </trkpt>
      <trkpt lat="45.85195" lon="5.40609">
        <ele>206.7</ele>
        <time>2022-09-25T08:59:08Z</time>
      </trkpt>
      <trkpt lat="45.85191" lon="5.40612">
        <ele>206.8</ele>
        <time>2022-09-25T08:59:09Z</time>
      </trkpt>
      <trkpt lat="45.85187" lon="5.40615">
        <ele>206.9</ele>
        <time>2022-09-25T08:59:10Z</time>
      </trkpt>
      <trkpt lat="45.85183" lon="5.40618">
        <ele>207</ele>
        <time>2022-09-25T08:59:11Z</time>
      </trkpt>
      <trkpt lat="45.85179" lon="5.40621">
        <ele>207.1</ele>
        <time>2022-09-25T08:59:12Z</time>
      </trkpt>
      <trkpt lat="45.85175" lon="5.40624">
        <ele>207.2</ele>
        <time>2022-09-25T08:59:13Z</time>
      </trkpt>
      <trkpt lat="45.85171" lon="5.40627">
        <ele>207.3</ele>
        <time>2022-09-25T08:59:14Z</time>
      </trkpt>
      <trkpt lat="45.85167" lon="5.4063">
        <ele>207.4</ele>
        <time>2022-09-25T08:59:15Z</time>
      </trkpt>
      <trkpt lat="45.85163" lon="5.40633">
        <ele>207.5</ele>
        <time>2022-09-25T08:59:16Z</time>
      </trkpt>
      <trkpt lat="45.85159" lon="5.40636">
        <ele>207.6</ele>
        <time>2022-09-25T08:59:17Z</time>
      </trkpt>
      <trkpt lat="45.85155" lon="5.40639">
        <ele>207.6</ele>
        <time>2022-09-25T08:59:18Z</time>
      </trkpt>
      <trkpt lat="45.85151" lon="5.40642">
        <ele>207.7</ele>
        <time>2022-09-25T08:59:19Z</time>
      </trkpt>
      <trkpt lat="45.85147" lon="5.40645">
        <ele>207.8</ele>
        <time>2022-09-25T08:59:20Z</time>
      </trkpt>
      <trkpt lat="45.85143" lon="5.40649">
        <ele>207.8</ele>
        <time>2022-09-25T08:59:21Z</time>
      </trkpt>
      <trkpt lat="45.85139" lon="5.40652">
        <ele>207.8</ele>
        <time>2022-09-25T08:59:22Z</time>
      </trkpt>
      <trkpt lat="45.85135" lon="5.40656">
        <ele>207.9</ele>
        <time>2022-09-25T08:59:23Z</time>
      </trkpt>
      <trkpt lat="45.8513" lon="5.4066">
        <ele>207.8</ele>
        <time>2022-09-25T08:59:24Z</time>
      </trkpt>
      <trkpt lat="45.85126" lon="5.40664">
        <ele>207.8</ele>
        <time>2022-09-25T08:59:25Z</time>
      </trkpt>
      <trkpt lat="45.85122" lon="5.40669">
        <ele>207.8</ele>
        <time>2022-09-25T08:59:26Z</time>
      </trkpt>
      <trkpt lat="45.85118" lon="5.40674">
        <ele>207.8</ele>
        <time>2022-09-25T08:59:27Z</time>
      </trkpt>
      <trkpt lat="45.85113" lon="5.40679">
        <ele>207.7</ele>
        <time>2022-09-25T08:59:28Z</time>
      </trkpt>
      <trkpt lat="45.85109" lon="5.40684">
        <ele>207.6</ele>
        <time>2022-09-25T08:59:29Z</time>
      </trkpt>
      <trkpt lat="45.85105" lon="5.4069">
        <ele>207.6</ele>
        <time>2022-09-25T08:59:30Z</time>
      </trkpt>
      <trkpt lat="45.851" lon="5.40695">
        <ele>207.5</ele>
        <time>2022-09-25T08:59:31Z</time>
      </trkpt>
      <trkpt lat="45.85097" lon="5.407">
        <ele>207.4</ele>
        <time>2022-09-25T08:59:32Z</time>
      </trkpt>
      <trkpt lat="45.85092" lon="5.40706">
        <ele>207.3</ele>
        <time>2022-09-25T08:59:33Z</time>
      </trkpt>
      <trkpt lat="45.85088" lon="5.40713">
        <ele>207.1</ele>
        <time>2022-09-25T08:59:34Z</time>
      </trkpt>
      <trkpt lat="45.85083" lon="5.40719">
        <ele>207</ele>
        <time>2022-09-25T08:59:35Z</time>
      </trkpt>
      <trkpt lat="45.85079" lon="5.40726">
        <ele>206.9</ele>
        <time>2022-09-25T08:59:36Z</time>
      </trkpt>
      <trkpt lat="45.85074" lon="5.40731">
        <ele>206.7</ele>
        <time>2022-09-25T08:59:37Z</time>
      </trkpt>
      <trkpt lat="45.8507" lon="5.40737">
        <ele>206.6</ele>
        <time>2022-09-25T08:59:38Z</time>
      </trkpt>
      <trkpt lat="45.85065" lon="5.40744">
        <ele>206.5</ele>
        <time>2022-09-25T08:59:39Z</time>
      </trkpt>
      <trkpt lat="45.85061" lon="5.4075">
        <ele>206.4</ele>
        <time>2022-09-25T08:59:40Z</time>
      </trkpt>
      <trkpt lat="45.85056" lon="5.40757">
        <ele>206.3</ele>
        <time>2022-09-25T08:59:41Z</time>
      </trkpt>
      <trkpt lat="45.85051" lon="5.40763">
        <ele>206.2</ele>
        <time>2022-09-25T08:59:42Z</time>
      </trkpt>
      <trkpt lat="45.85048" lon="5.4077">
        <ele>206.2</ele>
        <time>2022-09-25T08:59:43Z</time>
      </trkpt>
      <trkpt lat="45.85043" lon="5.40777">
        <ele>206.1</ele>
        <time>2022-09-25T08:59:44Z</time>
      </trkpt>
      <trkpt lat="45.85039" lon="5.40784">
        <ele>206</ele>
        <time>2022-09-25T08:59:45Z</time>
      </trkpt>
      <trkpt lat="45.85036" lon="5.40792">
        <ele>205.9</ele>
        <time>2022-09-25T08:59:46Z</time>
      </trkpt>
      <trkpt lat="45.85031" lon="5.40797">
        <ele>205.9</ele>
        <time>2022-09-25T08:59:47Z</time>
      </trkpt>
      <trkpt lat="45.85027" lon="5.40804">
        <ele>205.8</ele>
        <time>2022-09-25T08:59:48Z</time>
      </trkpt>
      <trkpt lat="45.85024" lon="5.40813">
        <ele>205.7</ele>
        <time>2022-09-25T08:59:49Z</time>
      </trkpt>
      <trkpt lat="45.85018" lon="5.40818">
        <ele>205.6</ele>
        <time>2022-09-25T08:59:50Z</time>
      </trkpt>
      <trkpt lat="45.85014" lon="5.40825">
        <ele>205.5</ele>
        <time>2022-09-25T08:59:51Z</time>
      </trkpt>
      <trkpt lat="45.85009" lon="5.40832">
        <ele>205.4</ele>
        <time>2022-09-25T08:59:52Z</time>
      </trkpt>
      <trkpt lat="45.85005" lon="5.4084">
        <ele>205.4</ele>
        <time>2022-09-25T08:59:53Z</time>
      </trkpt>
      <trkpt lat="45.85001" lon="5.40847">
        <ele>205.3</ele>
        <time>2022-09-25T08:59:54Z</time>
      </trkpt>
      <trkpt lat="45.84997" lon="5.40853">
        <ele>205.3</ele>
        <time>2022-09-25T08:59:55Z</time>
      </trkpt>
      <trkpt lat="45.84993" lon="5.4086">
        <ele>205.3</ele>
        <time>2022-09-25T08:59:56Z</time>
      </trkpt>
      <trkpt lat="45.84989" lon="5.40869">
        <ele>205.2</ele>
        <time>2022-09-25T08:59:57Z</time>
      </trkpt>
      <trkpt lat="45.84984" lon="5.40876">
        <ele>205.2</ele>
        <time>2022-09-25T08:59:58Z</time>
      </trkpt>
      <trkpt lat="45.84979" lon="5.40883">
        <ele>205.2</ele>
        <time>2022-09-25T08:59:59Z</time>
      </trkpt>
      <trkpt lat="45.84975" lon="5.4089">
        <ele>205.2</ele>
        <time>2022-09-25T09:00:00Z</time>
      </trkpt>
      <trkpt lat="45.84971" lon="5.40896">
        <ele>205.2</ele>
        <time>2022-09-25T09:00:01Z</time>
      </trkpt>
      <trkpt lat="45.84967" lon="5.40905">
        <ele>205.2</ele>
        <time>2022-09-25T09:00:02Z</time>
      </trkpt>
      <trkpt lat="45.84962" lon="5.40911">
        <ele>205.3</ele>
        <time>2022-09-25T09:00:03Z</time>
      </trkpt>
      <trkpt lat="45.84957" lon="5.40919">
        <ele>205.3</ele>
        <time>2022-09-25T09:00:04Z</time>
      </trkpt>
      <trkpt lat="45.84954" lon="5.40926">
        <ele>205.3</ele>
        <time>2022-09-25T09:00:05Z</time>
      </trkpt>
      <trkpt lat="45.84949" lon="5.40932">
        <ele>205.3</ele>
        <time>2022-09-25T09:00:06Z</time>
      </trkpt>
      <trkpt lat="45.84946" lon="5.4094">
        <ele>205.3</ele>
        <time>2022-09-25T09:00:07Z</time>
      </trkpt>
      <trkpt lat="45.84942" lon="5.40948">
        <ele>205.3</ele>
        <time>2022-09-25T09:00:08Z</time>
      </trkpt>
      <trkpt lat="45.84938" lon="5.40955">
        <ele>205.4</ele>
        <time>2022-09-25T09:00:09Z</time>
      </trkpt>
      <trkpt lat="45.84934" lon="5.40962">
        <ele>205.4</ele>
        <time>2022-09-25T09:00:10Z</time>
      </trkpt>
      <trkpt lat="45.84931" lon="5.40971">
        <ele>205.4</ele>
        <time>2022-09-25T09:00:11Z</time>
      </trkpt>
      <trkpt lat="45.84926" lon="5.40978">
        <ele>205.4</ele>
        <time>2022-09-25T09:00:12Z</time>
      </trkpt>
      <trkpt lat="45.84922" lon="5.40984">
        <ele>205.4</ele>
        <time>2022-09-25T09:00:13Z</time>
      </trkpt>
      <trkpt lat="45.84918" lon="5.40992">
        <ele>205.4</ele>
        <time>2022-09-25T09:00:14Z</time>
      </trkpt>
      <trkpt lat="45.84914" lon="5.41">
        <ele>205.4</ele>
        <time>2022-09-25T09:00:15Z</time>
      </trkpt>
      <trkpt lat="45.84911" lon="5.41007">
        <ele>205.4</ele>
        <time>2022-09-25T09:00:16Z</time>
      </trkpt>
      <trkpt lat="45.84906" lon="5.41015">
        <ele>205.4</ele>
        <time>2022-09-25T09:00:17Z</time>
      </trkpt>
      <trkpt lat="45.84903" lon="5.41023">
        <ele>205.4</ele>
        <time>2022-09-25T09:00:18Z</time>
      </trkpt>
      <trkpt lat="45.84898" lon="5.4103">
        <ele>205.4</ele>
        <time>2022-09-25T09:00:20Z</time>
      </trkpt>
      <trkpt lat="45.84894" lon="5.41037">
        <ele>205.4</ele>
        <time>2022-09-25T09:00:21Z</time>
      </trkpt>
      <trkpt lat="45.8489" lon="5.41044">
        <ele>205.4</ele>
        <time>2022-09-25T09:00:22Z</time>
      </trkpt>
      <trkpt lat="45.84886" lon="5.41051">
        <ele>205.4</ele>
        <time>2022-09-25T09:00:23Z</time>
      </trkpt>
      <trkpt lat="45.84882" lon="5.41058">
        <ele>205.5</ele>
        <time>2022-09-25T09:00:24Z</time>
      </trkpt>
      <trkpt lat="45.84878" lon="5.41065">
        <ele>205.5</ele>
        <time>2022-09-25T09:00:25Z</time>
      </trkpt>
      <trkpt lat="45.84873" lon="5.41073">
        <ele>205.5</ele>
        <time>2022-09-25T09:00:26Z</time>
      </trkpt>
      <trkpt lat="45.84869" lon="5.4108">
        <ele>205.5</ele>
        <time>2022-09-25T09:00:27Z</time>
      </trkpt>
      <trkpt lat="45.84865" lon="5.41088">
        <ele>205.5</ele>
        <time>2022-09-25T09:00:28Z</time>
      </trkpt>
      <trkpt lat="45.84858" lon="5.41103">
        <ele>205.5</ele>
        <time>2022-09-25T09:00:29Z</time>
      </trkpt>
      <trkpt lat="45.84853" lon="5.41111">
        <ele>205.5</ele>
        <time>2022-09-25T09:00:30Z</time>
      </trkpt>
      <trkpt lat="45.8485" lon="5.41119">
        <ele>205.5</ele>
        <time>2022-09-25T09:00:31Z</time>
      </trkpt>
      <trkpt lat="45.84846" lon="5.41126">
        <ele>205.5</ele>
        <time>2022-09-25T09:00:32Z</time>
      </trkpt>
      <trkpt lat="45.84842" lon="5.41134">
        <ele>205.5</ele>
        <time>2022-09-25T09:00:33Z</time>
      </trkpt>
      <trkpt lat="45.84838" lon="5.41142">
        <ele>205.5</ele>
        <time>2022-09-25T09:00:34Z</time>
      </trkpt>
      <trkpt lat="45.84834" lon="5.41149">
        <ele>205.5</ele>
        <time>2022-09-25T09:00:35Z</time>
      </trkpt>
      <trkpt lat="45.8483" lon="5.41157">
        <ele>205.5</ele>
        <time>2022-09-25T09:00:36Z</time>
      </trkpt>
      <trkpt lat="45.84826" lon="5.41164">
        <ele>205.5</ele>
        <time>2022-09-25T09:00:37Z</time>
      </trkpt>
      <trkpt lat="45.84822" lon="5.41171">
        <ele>205.5</ele>
        <time>2022-09-25T09:00:38Z</time>
      </trkpt>
      <trkpt lat="45.84818" lon="5.41179">
        <ele>205.4</ele>
        <time>2022-09-25T09:00:39Z</time>
      </trkpt>
      <trkpt lat="45.84813" lon="5.41186">
        <ele>205.4</ele>
        <time>2022-09-25T09:00:40Z</time>
      </trkpt>
      <trkpt lat="45.84809" lon="5.41193">
        <ele>205.4</ele>
        <time>2022-09-25T09:00:41Z</time>
      </trkpt>
      <trkpt lat="45.84805" lon="5.412">
        <ele>205.4</ele>
        <time>2022-09-25T09:00:42Z</time>
      </trkpt>
      <trkpt lat="45.84801" lon="5.41207">
        <ele>205.4</ele>
        <time>2022-09-25T09:00:43Z</time>
      </trkpt>
      <trkpt lat="45.84797" lon="5.41214">
        <ele>205.4</ele>
        <time>2022-09-25T09:00:44Z</time>
      </trkpt>
      <trkpt lat="45.84792" lon="5.41221">
        <ele>205.4</ele>
        <time>2022-09-25T09:00:45Z</time>
      </trkpt>
      <trkpt lat="45.84787" lon="5.41229">
        <ele>205.4</ele>
        <time>2022-09-25T09:00:46Z</time>
      </trkpt>
      <trkpt lat="45.84783" lon="5.41236">
        <ele>205.5</ele>
        <time>2022-09-25T09:00:47Z</time>
      </trkpt>
      <trkpt lat="45.84779" lon="5.41242">
        <ele>205.5</ele>
        <time>2022-09-25T09:00:48Z</time>
      </trkpt>
      <trkpt lat="45.84774" lon="5.41251">
        <ele>205.5</ele>
        <time>2022-09-25T09:00:49Z</time>
      </trkpt>
      <trkpt lat="45.8477" lon="5.41257">
        <ele>205.5</ele>
        <time>2022-09-25T09:00:50Z</time>
      </trkpt>
      <trkpt lat="45.84766" lon="5.41265">
        <ele>205.6</ele>
        <time>2022-09-25T09:00:51Z</time>
      </trkpt>
      <trkpt lat="45.84761" lon="5.41271">
        <ele>205.6</ele>
        <time>2022-09-25T09:00:52Z</time>
      </trkpt>
      <trkpt lat="45.84757" lon="5.41279">
        <ele>205.6</ele>
        <time>2022-09-25T09:00:53Z</time>
      </trkpt>
      <trkpt lat="45.84753" lon="5.41286">
        <ele>205.6</ele>
        <time>2022-09-25T09:00:54Z</time>
      </trkpt>
      <trkpt lat="45.84748" lon="5.41293">
        <ele>205.6</ele>
        <time>2022-09-25T09:00:55Z</time>
      </trkpt>
      <trkpt lat="45.84744" lon="5.41301">
        <ele>205.6</ele>
        <time>2022-09-25T09:00:56Z</time>
      </trkpt>
      <trkpt lat="45.84739" lon="5.41307">
        <ele>205.6</ele>
        <time>2022-09-25T09:00:57Z</time>
      </trkpt>
      <trkpt lat="45.84735" lon="5.41314">
        <ele>205.6</ele>
        <time>2022-09-25T09:00:58Z</time>
      </trkpt>
      <trkpt lat="45.8473" lon="5.41321">
        <ele>205.6</ele>
        <time>2022-09-25T09:00:59Z</time>
      </trkpt>
      <trkpt lat="45.84725" lon="5.41328">
        <ele>205.6</ele>
        <time>2022-09-25T09:01:00Z</time>
      </trkpt>
      <trkpt lat="45.8472" lon="5.41334">
        <ele>205.6</ele>
        <time>2022-09-25T09:01:01Z</time>
      </trkpt>
      <trkpt lat="45.84715" lon="5.4134">
        <ele>205.6</ele>
        <time>2022-09-25T09:01:02Z</time>
      </trkpt>
      <trkpt lat="45.8471" lon="5.41346">
        <ele>205.5</ele>
        <time>2022-09-25T09:01:03Z</time>
      </trkpt>
      <trkpt lat="45.84705" lon="5.41352">
        <ele>205.5</ele>
        <time>2022-09-25T09:01:04Z</time>
      </trkpt>
      <trkpt lat="45.84701" lon="5.41358">
        <ele>205.5</ele>
        <time>2022-09-25T09:01:05Z</time>
      </trkpt>
      <trkpt lat="45.84697" lon="5.41365">
        <ele>205.6</ele>
        <time>2022-09-25T09:01:06Z</time>
      </trkpt>
      <trkpt lat="45.84691" lon="5.4137">
        <ele>205.6</ele>
        <time>2022-09-25T09:01:07Z</time>
      </trkpt>
      <trkpt lat="45.84687" lon="5.41376">
        <ele>205.6</ele>
        <time>2022-09-25T09:01:08Z</time>
      </trkpt>
      <trkpt lat="45.84681" lon="5.41381">
        <ele>205.6</ele>
        <time>2022-09-25T09:01:09Z</time>
      </trkpt>
      <trkpt lat="45.84676" lon="5.41387">
        <ele>205.6</ele>
        <time>2022-09-25T09:01:10Z</time>
      </trkpt>
      <trkpt lat="45.84671" lon="5.41392">
        <ele>205.6</ele>
        <time>2022-09-25T09:01:11Z</time>
      </trkpt>
      <trkpt lat="45.84665" lon="5.41397">
        <ele>205.6</ele>
        <time>2022-09-25T09:01:12Z</time>
      </trkpt>
      <trkpt lat="45.8466" lon="5.41403">
        <ele>205.6</ele>
        <time>2022-09-25T09:01:13Z</time>
      </trkpt>
      <trkpt lat="45.84655" lon="5.41408">
        <ele>205.6</ele>
        <time>2022-09-25T09:01:14Z</time>
      </trkpt>
      <trkpt lat="45.84649" lon="5.41413">
        <ele>205.6</ele>
        <time>2022-09-25T09:01:15Z</time>
      </trkpt>
      <trkpt lat="45.84644" lon="5.41418">
        <ele>205.6</ele>
        <time>2022-09-25T09:01:16Z</time>
      </trkpt>
      <trkpt lat="45.84638" lon="5.41423">
        <ele>205.5</ele>
        <time>2022-09-25T09:01:17Z</time>
      </trkpt>
      <trkpt lat="45.84633" lon="5.41428">
        <ele>205.5</ele>
        <time>2022-09-25T09:01:18Z</time>
      </trkpt>
      <trkpt lat="45.84627" lon="5.41433">
        <ele>205.5</ele>
        <time>2022-09-25T09:01:19Z</time>
      </trkpt>
      <trkpt lat="45.84621" lon="5.41438">
        <ele>205.5</ele>
        <time>2022-09-25T09:01:20Z</time>
      </trkpt>
      <trkpt lat="45.84615" lon="5.41443">
        <ele>205.5</ele>
        <time>2022-09-25T09:01:21Z</time>
      </trkpt>
      <trkpt lat="45.84609" lon="5.41448">
        <ele>205.5</ele>
        <time>2022-09-25T09:01:22Z</time>
      </trkpt>
      <trkpt lat="45.84604" lon="5.41452">
        <ele>205.5</ele>
        <time>2022-09-25T09:01:23Z</time>
      </trkpt>
      <trkpt lat="45.84597" lon="5.41456">
        <ele>205.5</ele>
        <time>2022-09-25T09:01:24Z</time>
      </trkpt>
      <trkpt lat="45.84592" lon="5.41461">
        <ele>205.5</ele>
        <time>2022-09-25T09:01:25Z</time>
      </trkpt>
      <trkpt lat="45.84586" lon="5.41466">
        <ele>205.4</ele>
        <time>2022-09-25T09:01:26Z</time>
      </trkpt>
      <trkpt lat="45.8458" lon="5.4147">
        <ele>205.4</ele>
        <time>2022-09-25T09:01:27Z</time>
      </trkpt>
      <trkpt lat="45.84574" lon="5.41474">
        <ele>205.4</ele>
        <time>2022-09-25T09:01:28Z</time>
      </trkpt>
      <trkpt lat="45.84568" lon="5.41478">
        <ele>205.3</ele>
        <time>2022-09-25T09:01:29Z</time>
      </trkpt>
      <trkpt lat="45.84562" lon="5.41482">
        <ele>205.2</ele>
        <time>2022-09-25T09:01:30Z</time>
      </trkpt>
      <trkpt lat="45.84556" lon="5.41486">
        <ele>205.2</ele>
        <time>2022-09-25T09:01:31Z</time>
      </trkpt>
      <trkpt lat="45.8455" lon="5.4149">
        <ele>205.1</ele>
        <time>2022-09-25T09:01:32Z</time>
      </trkpt>
      <trkpt lat="45.84544" lon="5.41494">
        <ele>205.1</ele>
        <time>2022-09-25T09:01:33Z</time>
      </trkpt>
      <trkpt lat="45.84537" lon="5.41498">
        <ele>205.1</ele>
        <time>2022-09-25T09:01:34Z</time>
      </trkpt>
      <trkpt lat="45.84531" lon="5.41502">
        <ele>205</ele>
        <time>2022-09-25T09:01:35Z</time>
      </trkpt>
      <trkpt lat="45.84525" lon="5.41505">
        <ele>205</ele>
        <time>2022-09-25T09:01:36Z</time>
      </trkpt>
      <trkpt lat="45.84518" lon="5.41509">
        <ele>205</ele>
        <time>2022-09-25T09:01:37Z</time>
      </trkpt>
      <trkpt lat="45.84511" lon="5.41511">
        <ele>204.9</ele>
        <time>2022-09-25T09:01:38Z</time>
      </trkpt>
      <trkpt lat="45.84505" lon="5.41514">
        <ele>204.9</ele>
        <time>2022-09-25T09:01:39Z</time>
      </trkpt>
      <trkpt lat="45.84499" lon="5.41518">
        <ele>204.9</ele>
        <time>2022-09-25T09:01:40Z</time>
      </trkpt>
      <trkpt lat="45.84491" lon="5.4152">
        <ele>204.9</ele>
        <time>2022-09-25T09:01:41Z</time>
      </trkpt>
      <trkpt lat="45.84484" lon="5.41522">
        <ele>204.9</ele>
        <time>2022-09-25T09:01:42Z</time>
      </trkpt>
      <trkpt lat="45.84478" lon="5.41525">
        <ele>204.9</ele>
        <time>2022-09-25T09:01:43Z</time>
      </trkpt>
      <trkpt lat="45.84471" lon="5.41528">
        <ele>204.8</ele>
        <time>2022-09-25T09:01:44Z</time>
      </trkpt>
      <trkpt lat="45.84465" lon="5.41531">
        <ele>204.8</ele>
        <time>2022-09-25T09:01:45Z</time>
      </trkpt>
      <trkpt lat="45.84459" lon="5.41534">
        <ele>204.8</ele>
        <time>2022-09-25T09:01:46Z</time>
      </trkpt>
      <trkpt lat="45.84452" lon="5.41536">
        <ele>204.8</ele>
        <time>2022-09-25T09:01:47Z</time>
      </trkpt>
      <trkpt lat="45.84445" lon="5.41538">
        <ele>204.8</ele>
        <time>2022-09-25T09:01:48Z</time>
      </trkpt>
      <trkpt lat="45.84439" lon="5.41541">
        <ele>204.9</ele>
        <time>2022-09-25T09:01:49Z</time>
      </trkpt>
      <trkpt lat="45.84433" lon="5.41543">
        <ele>204.9</ele>
        <time>2022-09-25T09:01:50Z</time>
      </trkpt>
      <trkpt lat="45.84426" lon="5.41545">
        <ele>204.9</ele>
        <time>2022-09-25T09:01:51Z</time>
      </trkpt>
      <trkpt lat="45.8442" lon="5.41548">
        <ele>204.9</ele>
        <time>2022-09-25T09:01:52Z</time>
      </trkpt>
      <trkpt lat="45.84414" lon="5.4155">
        <ele>204.9</ele>
        <time>2022-09-25T09:01:53Z</time>
      </trkpt>
      <trkpt lat="45.84407" lon="5.41552">
        <ele>204.9</ele>
        <time>2022-09-25T09:01:54Z</time>
      </trkpt>
      <trkpt lat="45.84401" lon="5.41555">
        <ele>204.9</ele>
        <time>2022-09-25T09:01:55Z</time>
      </trkpt>
      <trkpt lat="45.84395" lon="5.41557">
        <ele>205</ele>
        <time>2022-09-25T09:01:56Z</time>
      </trkpt>
      <trkpt lat="45.84388" lon="5.41559">
        <ele>205</ele>
        <time>2022-09-25T09:01:57Z</time>
      </trkpt>
      <trkpt lat="45.84382" lon="5.4156">
        <ele>205</ele>
        <time>2022-09-25T09:01:58Z</time>
      </trkpt>
      <trkpt lat="45.84375" lon="5.41562">
        <ele>205</ele>
        <time>2022-09-25T09:01:59Z</time>
      </trkpt>
      <trkpt lat="45.84368" lon="5.41564">
        <ele>205</ele>
        <time>2022-09-25T09:02:00Z</time>
      </trkpt>
      <trkpt lat="45.84362" lon="5.41565">
        <ele>205</ele>
        <time>2022-09-25T09:02:01Z</time>
      </trkpt>
      <trkpt lat="45.84356" lon="5.41567">
        <ele>204.9</ele>
        <time>2022-09-25T09:02:02Z</time>
      </trkpt>
      <trkpt lat="45.84349" lon="5.41568">
        <ele>204.9</ele>
        <time>2022-09-25T09:02:03Z</time>
      </trkpt>
      <trkpt lat="45.84343" lon="5.41569">
        <ele>204.9</ele>
        <time>2022-09-25T09:02:04Z</time>
      </trkpt>
      <trkpt lat="45.84336" lon="5.4157">
        <ele>204.9</ele>
        <time>2022-09-25T09:02:05Z</time>
      </trkpt>
      <trkpt lat="45.8433" lon="5.41571">
        <ele>204.9</ele>
        <time>2022-09-25T09:02:06Z</time>
      </trkpt>
      <trkpt lat="45.84324" lon="5.41572">
        <ele>204.9</ele>
        <time>2022-09-25T09:02:07Z</time>
      </trkpt>
      <trkpt lat="45.84317" lon="5.41574">
        <ele>204.9</ele>
        <time>2022-09-25T09:02:08Z</time>
      </trkpt>
      <trkpt lat="45.84311" lon="5.41577">
        <ele>204.9</ele>
        <time>2022-09-25T09:02:09Z</time>
      </trkpt>
      <trkpt lat="45.84304" lon="5.41578">
        <ele>205</ele>
        <time>2022-09-25T09:02:10Z</time>
      </trkpt>
      <trkpt lat="45.84298" lon="5.4158">
        <ele>205</ele>
        <time>2022-09-25T09:02:11Z</time>
      </trkpt>
      <trkpt lat="45.84292" lon="5.41583">
        <ele>205</ele>
        <time>2022-09-25T09:02:12Z</time>
      </trkpt>
      <trkpt lat="45.84286" lon="5.41584">
        <ele>205</ele>
        <time>2022-09-25T09:02:13Z</time>
      </trkpt>
      <trkpt lat="45.8428" lon="5.41585">
        <ele>205</ele>
        <time>2022-09-25T09:02:14Z</time>
      </trkpt>
      <trkpt lat="45.84274" lon="5.41587">
        <ele>205</ele>
        <time>2022-09-25T09:02:15Z</time>
      </trkpt>
      <trkpt lat="45.84268" lon="5.41589">
        <ele>205</ele>
        <time>2022-09-25T09:02:16Z</time>
      </trkpt>
      <trkpt lat="45.84262" lon="5.41592">
        <ele>205</ele>
        <time>2022-09-25T09:02:17Z</time>
      </trkpt>
      <trkpt lat="45.84256" lon="5.41594">
        <ele>205</ele>
        <time>2022-09-25T09:02:18Z</time>
      </trkpt>
      <trkpt lat="45.8425" lon="5.41596">
        <ele>205</ele>
        <time>2022-09-25T09:02:19Z</time>
      </trkpt>
      <trkpt lat="45.84245" lon="5.41599">
        <ele>205</ele>
        <time>2022-09-25T09:02:20Z</time>
      </trkpt>
      <trkpt lat="45.84238" lon="5.416">
        <ele>205</ele>
        <time>2022-09-25T09:02:21Z</time>
      </trkpt>
      <trkpt lat="45.84232" lon="5.41602">
        <ele>205.1</ele>
        <time>2022-09-25T09:02:22Z</time>
      </trkpt>
      <trkpt lat="45.84227" lon="5.41605">
        <ele>205.1</ele>
        <time>2022-09-25T09:02:23Z</time>
      </trkpt>
      <trkpt lat="45.84221" lon="5.41607">
        <ele>205</ele>
        <time>2022-09-25T09:02:24Z</time>
      </trkpt>
      <trkpt lat="45.84215" lon="5.41609">
        <ele>205</ele>
        <time>2022-09-25T09:02:25Z</time>
      </trkpt>
      <trkpt lat="45.84209" lon="5.41611">
        <ele>205</ele>
        <time>2022-09-25T09:02:26Z</time>
      </trkpt>
      <trkpt lat="45.84203" lon="5.41613">
        <ele>205</ele>
        <time>2022-09-25T09:02:27Z</time>
      </trkpt>
      <trkpt lat="45.84197" lon="5.41614">
        <ele>205</ele>
        <time>2022-09-25T09:02:28Z</time>
      </trkpt>
      <trkpt lat="45.8419" lon="5.41615">
        <ele>205.1</ele>
        <time>2022-09-25T09:02:29Z</time>
      </trkpt>
      <trkpt lat="45.84184" lon="5.41616">
        <ele>205.1</ele>
        <time>2022-09-25T09:02:30Z</time>
      </trkpt>
      <trkpt lat="45.84178" lon="5.41616">
        <ele>205.1</ele>
        <time>2022-09-25T09:02:31Z</time>
      </trkpt>
      <trkpt lat="45.84171" lon="5.41617">
        <ele>205.1</ele>
        <time>2022-09-25T09:02:32Z</time>
      </trkpt>
      <trkpt lat="45.84165" lon="5.41617">
        <ele>205.1</ele>
        <time>2022-09-25T09:02:33Z</time>
      </trkpt>
      <trkpt lat="45.84158" lon="5.41618">
        <ele>205.1</ele>
        <time>2022-09-25T09:02:34Z</time>
      </trkpt>
      <trkpt lat="45.84152" lon="5.41617">
        <ele>205.2</ele>
        <time>2022-09-25T09:02:35Z</time>
      </trkpt>
      <trkpt lat="45.84146" lon="5.41618">
        <ele>205.2</ele>
        <time>2022-09-25T09:02:36Z</time>
      </trkpt>
      <trkpt lat="45.8414" lon="5.41618">
        <ele>205.2</ele>
        <time>2022-09-25T09:02:37Z</time>
      </trkpt>
      <trkpt lat="45.84133" lon="5.41619">
        <ele>205.2</ele>
        <time>2022-09-25T09:02:38Z</time>
      </trkpt>
      <trkpt lat="45.84127" lon="5.41619">
        <ele>205.2</ele>
        <time>2022-09-25T09:02:39Z</time>
      </trkpt>
      <trkpt lat="45.8412" lon="5.4162">
        <ele>205.2</ele>
        <time>2022-09-25T09:02:40Z</time>
      </trkpt>
      <trkpt lat="45.84113" lon="5.41619">
        <ele>205.1</ele>
        <time>2022-09-25T09:02:41Z</time>
      </trkpt>
      <trkpt lat="45.84108" lon="5.41621">
        <ele>205.1</ele>
        <time>2022-09-25T09:02:42Z</time>
      </trkpt>
      <trkpt lat="45.84101" lon="5.41621">
        <ele>205.1</ele>
        <time>2022-09-25T09:02:43Z</time>
      </trkpt>
      <trkpt lat="45.84095" lon="5.41621">
        <ele>205.1</ele>
        <time>2022-09-25T09:02:44Z</time>
      </trkpt>
      <trkpt lat="45.84088" lon="5.4162">
        <ele>205.1</ele>
        <time>2022-09-25T09:02:45Z</time>
      </trkpt>
      <trkpt lat="45.84082" lon="5.41621">
        <ele>205.1</ele>
        <time>2022-09-25T09:02:46Z</time>
      </trkpt>
      <trkpt lat="45.84076" lon="5.41622">
        <ele>205.2</ele>
        <time>2022-09-25T09:02:47Z</time>
      </trkpt>
      <trkpt lat="45.8407" lon="5.41622">
        <ele>205.2</ele>
        <time>2022-09-25T09:02:48Z</time>
      </trkpt>
      <trkpt lat="45.84062" lon="5.41623">
        <ele>205.3</ele>
        <time>2022-09-25T09:02:49Z</time>
      </trkpt>
      <trkpt lat="45.84057" lon="5.41624">
        <ele>205.3</ele>
        <time>2022-09-25T09:02:50Z</time>
      </trkpt>
      <trkpt lat="45.84051" lon="5.41625">
        <ele>205.4</ele>
        <time>2022-09-25T09:02:51Z</time>
      </trkpt>
      <trkpt lat="45.84045" lon="5.41627">
        <ele>205.4</ele>
        <time>2022-09-25T09:02:52Z</time>
      </trkpt>
      <trkpt lat="45.84039" lon="5.41628">
        <ele>205.5</ele>
        <time>2022-09-25T09:02:53Z</time>
      </trkpt>
      <trkpt lat="45.84033" lon="5.41629">
        <ele>205.5</ele>
        <time>2022-09-25T09:02:54Z</time>
      </trkpt>
      <trkpt lat="45.84027" lon="5.41633">
        <ele>205.5</ele>
        <time>2022-09-25T09:02:55Z</time>
      </trkpt>
      <trkpt lat="45.84021" lon="5.41635">
        <ele>205.6</ele>
        <time>2022-09-25T09:02:56Z</time>
      </trkpt>
      <trkpt lat="45.84015" lon="5.41638">
        <ele>205.6</ele>
        <time>2022-09-25T09:02:57Z</time>
      </trkpt>
      <trkpt lat="45.8401" lon="5.41642">
        <ele>205.6</ele>
        <time>2022-09-25T09:02:58Z</time>
      </trkpt>
      <trkpt lat="45.84004" lon="5.41645">
        <ele>205.6</ele>
        <time>2022-09-25T09:02:59Z</time>
      </trkpt>
      <trkpt lat="45.83998" lon="5.41648">
        <ele>205.6</ele>
        <time>2022-09-25T09:03:00Z</time>
      </trkpt>
      <trkpt lat="45.83992" lon="5.41653">
        <ele>205.6</ele>
        <time>2022-09-25T09:03:01Z</time>
      </trkpt>
      <trkpt lat="45.83987" lon="5.41656">
        <ele>205.6</ele>
        <time>2022-09-25T09:03:02Z</time>
      </trkpt>
      <trkpt lat="45.83981" lon="5.41659">
        <ele>205.6</ele>
        <time>2022-09-25T09:03:03Z</time>
      </trkpt>
      <trkpt lat="45.83975" lon="5.41664">
        <ele>205.6</ele>
        <time>2022-09-25T09:03:04Z</time>
      </trkpt>
      <trkpt lat="45.8397" lon="5.41669">
        <ele>205.6</ele>
        <time>2022-09-25T09:03:05Z</time>
      </trkpt>
      <trkpt lat="45.83964" lon="5.41674">
        <ele>205.6</ele>
        <time>2022-09-25T09:03:06Z</time>
      </trkpt>
      <trkpt lat="45.83959" lon="5.41679">
        <ele>205.6</ele>
        <time>2022-09-25T09:03:07Z</time>
      </trkpt>
      <trkpt lat="45.83954" lon="5.41684">
        <ele>205.6</ele>
        <time>2022-09-25T09:03:08Z</time>
      </trkpt>
      <trkpt lat="45.83949" lon="5.4169">
        <ele>205.6</ele>
        <time>2022-09-25T09:03:09Z</time>
      </trkpt>
      <trkpt lat="45.83944" lon="5.41696">
        <ele>205.6</ele>
        <time>2022-09-25T09:03:10Z</time>
      </trkpt>
      <trkpt lat="45.83939" lon="5.41702">
        <ele>205.6</ele>
        <time>2022-09-25T09:03:11Z</time>
      </trkpt>
      <trkpt lat="45.83934" lon="5.41708">
        <ele>205.5</ele>
        <time>2022-09-25T09:03:12Z</time>
      </trkpt>
      <trkpt lat="45.8393" lon="5.41714">
        <ele>205.5</ele>
        <time>2022-09-25T09:03:13Z</time>
      </trkpt>
      <trkpt lat="45.83925" lon="5.4172">
        <ele>205.5</ele>
        <time>2022-09-25T09:03:14Z</time>
      </trkpt>
      <trkpt lat="45.8392" lon="5.41727">
        <ele>205.5</ele>
        <time>2022-09-25T09:03:15Z</time>
      </trkpt>
      <trkpt lat="45.83914" lon="5.41734">
        <ele>205.5</ele>
        <time>2022-09-25T09:03:16Z</time>
      </trkpt>
      <trkpt lat="45.8391" lon="5.4174">
        <ele>205.5</ele>
        <time>2022-09-25T09:03:17Z</time>
      </trkpt>
      <trkpt lat="45.83905" lon="5.41746">
        <ele>205.4</ele>
        <time>2022-09-25T09:03:18Z</time>
      </trkpt>
      <trkpt lat="45.839" lon="5.41753">
        <ele>205.4</ele>
        <time>2022-09-25T09:03:19Z</time>
      </trkpt>
      <trkpt lat="45.83895" lon="5.41759">
        <ele>205.4</ele>
        <time>2022-09-25T09:03:20Z</time>
      </trkpt>
      <trkpt lat="45.83891" lon="5.41765">
        <ele>205.4</ele>
        <time>2022-09-25T09:03:21Z</time>
      </trkpt>
      <trkpt lat="45.83886" lon="5.41771">
        <ele>205.4</ele>
        <time>2022-09-25T09:03:22Z</time>
      </trkpt>
      <trkpt lat="45.83881" lon="5.41777">
        <ele>205.4</ele>
        <time>2022-09-25T09:03:23Z</time>
      </trkpt>
      <trkpt lat="45.83877" lon="5.41783">
        <ele>205.4</ele>
        <time>2022-09-25T09:03:24Z</time>
      </trkpt>
      <trkpt lat="45.83872" lon="5.41789">
        <ele>205.4</ele>
        <time>2022-09-25T09:03:25Z</time>
      </trkpt>
      <trkpt lat="45.83868" lon="5.41795">
        <ele>205.4</ele>
        <time>2022-09-25T09:03:26Z</time>
      </trkpt>
      <trkpt lat="45.83864" lon="5.41801">
        <ele>205.4</ele>
        <time>2022-09-25T09:03:27Z</time>
      </trkpt>
      <trkpt lat="45.83859" lon="5.41807">
        <ele>205.4</ele>
        <time>2022-09-25T09:03:28Z</time>
      </trkpt>
      <trkpt lat="45.83854" lon="5.41812">
        <ele>205.4</ele>
        <time>2022-09-25T09:03:29Z</time>
      </trkpt>
      <trkpt lat="45.8385" lon="5.41818">
        <ele>205.4</ele>
        <time>2022-09-25T09:03:30Z</time>
      </trkpt>
      <trkpt lat="45.83846" lon="5.41824">
        <ele>205.4</ele>
        <time>2022-09-25T09:03:31Z</time>
      </trkpt>
      <trkpt lat="45.83842" lon="5.41829">
        <ele>205.4</ele>
        <time>2022-09-25T09:03:32Z</time>
      </trkpt>
      <trkpt lat="45.83837" lon="5.41835">
        <ele>205.4</ele>
        <time>2022-09-25T09:03:33Z</time>
      </trkpt>
      <trkpt lat="45.83833" lon="5.41841">
        <ele>205.4</ele>
        <time>2022-09-25T09:03:34Z</time>
      </trkpt>
      <trkpt lat="45.83828" lon="5.41846">
        <ele>205.3</ele>
        <time>2022-09-25T09:03:35Z</time>
      </trkpt>
      <trkpt lat="45.83825" lon="5.41852">
        <ele>205.3</ele>
        <time>2022-09-25T09:03:36Z</time>
      </trkpt>
      <trkpt lat="45.8382" lon="5.41858">
        <ele>205.2</ele>
        <time>2022-09-25T09:03:37Z</time>
      </trkpt>
      <trkpt lat="45.83816" lon="5.41864">
        <ele>205.2</ele>
        <time>2022-09-25T09:03:38Z</time>
      </trkpt>
      <trkpt lat="45.83812" lon="5.4187">
        <ele>205.2</ele>
        <time>2022-09-25T09:03:39Z</time>
      </trkpt>
      <trkpt lat="45.83809" lon="5.41877">
        <ele>205.1</ele>
        <time>2022-09-25T09:03:40Z</time>
      </trkpt>
      <trkpt lat="45.83805" lon="5.41883">
        <ele>205.1</ele>
        <time>2022-09-25T09:03:41Z</time>
      </trkpt>
      <trkpt lat="45.83803" lon="5.4189">
        <ele>205.1</ele>
        <time>2022-09-25T09:03:42Z</time>
      </trkpt>
      <trkpt lat="45.838" lon="5.41897">
        <ele>205</ele>
        <time>2022-09-25T09:03:43Z</time>
      </trkpt>
      <trkpt lat="45.83797" lon="5.41904">
        <ele>204.9</ele>
        <time>2022-09-25T09:03:44Z</time>
      </trkpt>
      <trkpt lat="45.83794" lon="5.41912">
        <ele>204.7</ele>
        <time>2022-09-25T09:03:45Z</time>
      </trkpt>
      <trkpt lat="45.83792" lon="5.41919">
        <ele>204.4</ele>
        <time>2022-09-25T09:03:46Z</time>
      </trkpt>
      <trkpt lat="45.83789" lon="5.41926">
        <ele>204.1</ele>
        <time>2022-09-25T09:03:47Z</time>
      </trkpt>
      <trkpt lat="45.83788" lon="5.41934">
        <ele>203.8</ele>
        <time>2022-09-25T09:03:48Z</time>
      </trkpt>
      <trkpt lat="45.83785" lon="5.41942">
        <ele>203.4</ele>
        <time>2022-09-25T09:03:49Z</time>
      </trkpt>
      <trkpt lat="45.83783" lon="5.4195">
        <ele>203</ele>
        <time>2022-09-25T09:03:50Z</time>
      </trkpt>
      <trkpt lat="45.83781" lon="5.41959">
        <ele>202.6</ele>
        <time>2022-09-25T09:03:51Z</time>
      </trkpt>
      <trkpt lat="45.83779" lon="5.41969">
        <ele>202.2</ele>
        <time>2022-09-25T09:03:52Z</time>
      </trkpt>
      <trkpt lat="45.83776" lon="5.41978">
        <ele>201.8</ele>
        <time>2022-09-25T09:03:53Z</time>
      </trkpt>
      <trkpt lat="45.83773" lon="5.41989">
        <ele>201.4</ele>
        <time>2022-09-25T09:03:54Z</time>
      </trkpt>
      <trkpt lat="45.8377" lon="5.41998">
        <ele>201.2</ele>
        <time>2022-09-25T09:03:55Z</time>
      </trkpt>
      <trkpt lat="45.83767" lon="5.42006">
        <ele>201</ele>
        <time>2022-09-25T09:03:56Z</time>
      </trkpt>
      <trkpt lat="45.83764" lon="5.42017">
        <ele>200.8</ele>
        <time>2022-09-25T09:03:57Z</time>
      </trkpt>
      <trkpt lat="45.83761" lon="5.42027">
        <ele>200.7</ele>
        <time>2022-09-25T09:03:58Z</time>
      </trkpt>
      <trkpt lat="45.83758" lon="5.42036">
        <ele>200.6</ele>
        <time>2022-09-25T09:03:59Z</time>
      </trkpt>
      <trkpt lat="45.83754" lon="5.42045">
        <ele>200.5</ele>
        <time>2022-09-25T09:04:00Z</time>
      </trkpt>
      <trkpt lat="45.83752" lon="5.42055">
        <ele>200.5</ele>
        <time>2022-09-25T09:04:01Z</time>
      </trkpt>
      <trkpt lat="45.83748" lon="5.42064">
        <ele>200.5</ele>
        <time>2022-09-25T09:04:02Z</time>
      </trkpt>
      <trkpt lat="45.83745" lon="5.42073">
        <ele>200.5</ele>
        <time>2022-09-25T09:04:03Z</time>
      </trkpt>
      <trkpt lat="45.83742" lon="5.42082">
        <ele>200.5</ele>
        <time>2022-09-25T09:04:04Z</time>
      </trkpt>
      <trkpt lat="45.83739" lon="5.42091">
        <ele>200.5</ele>
        <time>2022-09-25T09:04:05Z</time>
      </trkpt>
      <trkpt lat="45.83737" lon="5.421">
        <ele>200.6</ele>
        <time>2022-09-25T09:04:06Z</time>
      </trkpt>
      <trkpt lat="45.83734" lon="5.42108">
        <ele>200.7</ele>
        <time>2022-09-25T09:04:07Z</time>
      </trkpt>
      <trkpt lat="45.83731" lon="5.42117">
        <ele>200.7</ele>
        <time>2022-09-25T09:04:08Z</time>
      </trkpt>
      <trkpt lat="45.83728" lon="5.42125">
        <ele>200.8</ele>
        <time>2022-09-25T09:04:09Z</time>
      </trkpt>
      <trkpt lat="45.83725" lon="5.42133">
        <ele>200.8</ele>
        <time>2022-09-25T09:04:10Z</time>
      </trkpt>
      <trkpt lat="45.83723" lon="5.42141">
        <ele>200.9</ele>
        <time>2022-09-25T09:04:11Z</time>
      </trkpt>
      <trkpt lat="45.8372" lon="5.42149">
        <ele>200.9</ele>
        <time>2022-09-25T09:04:12Z</time>
      </trkpt>
      <trkpt lat="45.83717" lon="5.42157">
        <ele>201</ele>
        <time>2022-09-25T09:04:13Z</time>
      </trkpt>
      <trkpt lat="45.83714" lon="5.42165">
        <ele>201</ele>
        <time>2022-09-25T09:04:14Z</time>
      </trkpt>
      <trkpt lat="45.83711" lon="5.42173">
        <ele>201</ele>
        <time>2022-09-25T09:04:15Z</time>
      </trkpt>
      <trkpt lat="45.83708" lon="5.42181">
        <ele>201.1</ele>
        <time>2022-09-25T09:04:16Z</time>
      </trkpt>
      <trkpt lat="45.83706" lon="5.42189">
        <ele>201.1</ele>
        <time>2022-09-25T09:04:17Z</time>
      </trkpt>
      <trkpt lat="45.83703" lon="5.42197">
        <ele>201.1</ele>
        <time>2022-09-25T09:04:18Z</time>
      </trkpt>
      <trkpt lat="45.837" lon="5.42205">
        <ele>201.1</ele>
        <time>2022-09-25T09:04:19Z</time>
      </trkpt>
      <trkpt lat="45.83697" lon="5.42213">
        <ele>201.1</ele>
        <time>2022-09-25T09:04:20Z</time>
      </trkpt>
      <trkpt lat="45.83695" lon="5.42221">
        <ele>201.1</ele>
        <time>2022-09-25T09:04:21Z</time>
      </trkpt>
      <trkpt lat="45.83692" lon="5.42229">
        <ele>201.1</ele>
        <time>2022-09-25T09:04:22Z</time>
      </trkpt>
      <trkpt lat="45.83689" lon="5.42237">
        <ele>201.1</ele>
        <time>2022-09-25T09:04:23Z</time>
      </trkpt>
      <trkpt lat="45.83686" lon="5.42245">
        <ele>201.1</ele>
        <time>2022-09-25T09:04:24Z</time>
      </trkpt>
      <trkpt lat="45.83684" lon="5.42253">
        <ele>201.1</ele>
        <time>2022-09-25T09:04:25Z</time>
      </trkpt>
      <trkpt lat="45.83681" lon="5.42261">
        <ele>201.1</ele>
        <time>2022-09-25T09:04:26Z</time>
      </trkpt>
      <trkpt lat="45.83678" lon="5.42269">
        <ele>201.1</ele>
        <time>2022-09-25T09:04:27Z</time>
      </trkpt>
      <trkpt lat="45.83676" lon="5.42277">
        <ele>201.1</ele>
        <time>2022-09-25T09:04:28Z</time>
      </trkpt>
      <trkpt lat="45.83673" lon="5.42285">
        <ele>201.1</ele>
        <time>2022-09-25T09:04:29Z</time>
      </trkpt>
      <trkpt lat="45.8367" lon="5.42293">
        <ele>201.1</ele>
        <time>2022-09-25T09:04:30Z</time>
      </trkpt>
      <trkpt lat="45.83668" lon="5.42301">
        <ele>201.1</ele>
        <time>2022-09-25T09:04:32Z</time>
      </trkpt>
      <trkpt lat="45.83665" lon="5.42308">
        <ele>201.1</ele>
        <time>2022-09-25T09:04:33Z</time>
      </trkpt>
      <trkpt lat="45.83663" lon="5.42317">
        <ele>201.1</ele>
        <time>2022-09-25T09:04:34Z</time>
      </trkpt>
      <trkpt lat="45.8366" lon="5.42324">
        <ele>201.1</ele>
        <time>2022-09-25T09:04:35Z</time>
      </trkpt>
      <trkpt lat="45.83658" lon="5.42332">
        <ele>201.1</ele>
        <time>2022-09-25T09:04:36Z</time>
      </trkpt>
      <trkpt lat="45.83655" lon="5.4234">
        <ele>201.1</ele>
        <time>2022-09-25T09:04:37Z</time>
      </trkpt>
      <trkpt lat="45.83652" lon="5.42348">
        <ele>201.1</ele>
        <time>2022-09-25T09:04:38Z</time>
      </trkpt>
      <trkpt lat="45.8365" lon="5.42356">
        <ele>201.1</ele>
        <time>2022-09-25T09:04:39Z</time>
      </trkpt>
      <trkpt lat="45.83647" lon="5.42364">
        <ele>201</ele>
        <time>2022-09-25T09:04:40Z</time>
      </trkpt>
      <trkpt lat="45.83644" lon="5.42373">
        <ele>201</ele>
        <time>2022-09-25T09:04:41Z</time>
      </trkpt>
      <trkpt lat="45.83642" lon="5.42381">
        <ele>200.9</ele>
        <time>2022-09-25T09:04:42Z</time>
      </trkpt>
      <trkpt lat="45.83639" lon="5.42389">
        <ele>200.9</ele>
        <time>2022-09-25T09:04:43Z</time>
      </trkpt>
      <trkpt lat="45.83636" lon="5.42398">
        <ele>200.8</ele>
        <time>2022-09-25T09:04:44Z</time>
      </trkpt>
      <trkpt lat="45.83633" lon="5.42406">
        <ele>200.8</ele>
        <time>2022-09-25T09:04:45Z</time>
      </trkpt>
      <trkpt lat="45.8363" lon="5.42415">
        <ele>200.8</ele>
        <time>2022-09-25T09:04:46Z</time>
      </trkpt>
      <trkpt lat="45.83627" lon="5.42423">
        <ele>200.7</ele>
        <time>2022-09-25T09:04:47Z</time>
      </trkpt>
      <trkpt lat="45.83623" lon="5.42432">
        <ele>200.7</ele>
        <time>2022-09-25T09:04:48Z</time>
      </trkpt>
      <trkpt lat="45.83621" lon="5.42441">
        <ele>200.7</ele>
        <time>2022-09-25T09:04:49Z</time>
      </trkpt>
      <trkpt lat="45.83617" lon="5.42449">
        <ele>200.7</ele>
        <time>2022-09-25T09:04:50Z</time>
      </trkpt>
      <trkpt lat="45.83615" lon="5.4246">
        <ele>200.8</ele>
        <time>2022-09-25T09:04:51Z</time>
      </trkpt>
      <trkpt lat="45.83611" lon="5.42468">
        <ele>200.8</ele>
        <time>2022-09-25T09:04:52Z</time>
      </trkpt>
      <trkpt lat="45.83608" lon="5.42476">
        <ele>200.8</ele>
        <time>2022-09-25T09:04:53Z</time>
      </trkpt>
      <trkpt lat="45.83605" lon="5.42485">
        <ele>200.8</ele>
        <time>2022-09-25T09:04:54Z</time>
      </trkpt>
      <trkpt lat="45.83602" lon="5.42493">
        <ele>200.8</ele>
        <time>2022-09-25T09:04:55Z</time>
      </trkpt>
      <trkpt lat="45.83599" lon="5.42502">
        <ele>200.9</ele>
        <time>2022-09-25T09:04:56Z</time>
      </trkpt>
      <trkpt lat="45.83595" lon="5.42511">
        <ele>200.9</ele>
        <time>2022-09-25T09:04:57Z</time>
      </trkpt>
      <trkpt lat="45.83592" lon="5.42519">
        <ele>200.9</ele>
        <time>2022-09-25T09:04:58Z</time>
      </trkpt>
      <trkpt lat="45.83588" lon="5.42527">
        <ele>200.8</ele>
        <time>2022-09-25T09:04:59Z</time>
      </trkpt>
      <trkpt lat="45.83584" lon="5.42535">
        <ele>200.8</ele>
        <time>2022-09-25T09:05:00Z</time>
      </trkpt>
      <trkpt lat="45.8358" lon="5.42543">
        <ele>200.7</ele>
        <time>2022-09-25T09:05:01Z</time>
      </trkpt>
      <trkpt lat="45.83576" lon="5.42551">
        <ele>200.7</ele>
        <time>2022-09-25T09:05:02Z</time>
      </trkpt>
      <trkpt lat="45.83573" lon="5.42559">
        <ele>200.7</ele>
        <time>2022-09-25T09:05:03Z</time>
      </trkpt>
      <trkpt lat="45.83568" lon="5.42567">
        <ele>200.7</ele>
        <time>2022-09-25T09:05:04Z</time>
      </trkpt>
      <trkpt lat="45.83565" lon="5.42574">
        <ele>200.7</ele>
        <time>2022-09-25T09:05:05Z</time>
      </trkpt>
      <trkpt lat="45.83561" lon="5.42582">
        <ele>200.7</ele>
        <time>2022-09-25T09:05:06Z</time>
      </trkpt>
      <trkpt lat="45.83556" lon="5.4259">
        <ele>200.8</ele>
        <time>2022-09-25T09:05:07Z</time>
      </trkpt>
      <trkpt lat="45.83552" lon="5.42598">
        <ele>200.8</ele>
        <time>2022-09-25T09:05:08Z</time>
      </trkpt>
      <trkpt lat="45.83548" lon="5.42606">
        <ele>200.8</ele>
        <time>2022-09-25T09:05:09Z</time>
      </trkpt>
      <trkpt lat="45.83544" lon="5.42614">
        <ele>200.9</ele>
        <time>2022-09-25T09:05:10Z</time>
      </trkpt>
      <trkpt lat="45.8354" lon="5.42621">
        <ele>200.9</ele>
        <time>2022-09-25T09:05:11Z</time>
      </trkpt>
      <trkpt lat="45.83535" lon="5.42628">
        <ele>200.9</ele>
        <time>2022-09-25T09:05:12Z</time>
      </trkpt>
      <trkpt lat="45.83531" lon="5.42636">
        <ele>200.9</ele>
        <time>2022-09-25T09:05:13Z</time>
      </trkpt>
      <trkpt lat="45.83526" lon="5.42643">
        <ele>200.9</ele>
        <time>2022-09-25T09:05:14Z</time>
      </trkpt>
      <trkpt lat="45.83521" lon="5.4265">
        <ele>200.9</ele>
        <time>2022-09-25T09:05:15Z</time>
      </trkpt>
      <trkpt lat="45.83517" lon="5.42657">
        <ele>200.9</ele>
        <time>2022-09-25T09:05:16Z</time>
      </trkpt>
      <trkpt lat="45.83512" lon="5.42665">
        <ele>200.8</ele>
        <time>2022-09-25T09:05:17Z</time>
      </trkpt>
      <trkpt lat="45.83507" lon="5.42671">
        <ele>200.8</ele>
        <time>2022-09-25T09:05:18Z</time>
      </trkpt>
      <trkpt lat="45.83502" lon="5.42679">
        <ele>200.8</ele>
        <time>2022-09-25T09:05:19Z</time>
      </trkpt>
      <trkpt lat="45.83498" lon="5.42686">
        <ele>200.8</ele>
        <time>2022-09-25T09:05:20Z</time>
      </trkpt>
      <trkpt lat="45.83493" lon="5.42693">
        <ele>200.9</ele>
        <time>2022-09-25T09:05:21Z</time>
      </trkpt>
      <trkpt lat="45.83488" lon="5.427">
        <ele>200.9</ele>
        <time>2022-09-25T09:05:22Z</time>
      </trkpt>
      <trkpt lat="45.83483" lon="5.42707">
        <ele>200.9</ele>
        <time>2022-09-25T09:05:23Z</time>
      </trkpt>
      <trkpt lat="45.83478" lon="5.42714">
        <ele>201</ele>
        <time>2022-09-25T09:05:24Z</time>
      </trkpt>
      <trkpt lat="45.83473" lon="5.4272">
        <ele>201</ele>
        <time>2022-09-25T09:05:25Z</time>
      </trkpt>
      <trkpt lat="45.83469" lon="5.42727">
        <ele>201.1</ele>
        <time>2022-09-25T09:05:26Z</time>
      </trkpt>
      <trkpt lat="45.83464" lon="5.42732">
        <ele>201.1</ele>
        <time>2022-09-25T09:05:27Z</time>
      </trkpt>
      <trkpt lat="45.8346" lon="5.42739">
        <ele>201.2</ele>
        <time>2022-09-25T09:05:28Z</time>
      </trkpt>
      <trkpt lat="45.83455" lon="5.42745">
        <ele>201.2</ele>
        <time>2022-09-25T09:05:29Z</time>
      </trkpt>
      <trkpt lat="45.8345" lon="5.42751">
        <ele>201.3</ele>
        <time>2022-09-25T09:05:30Z</time>
      </trkpt>
      <trkpt lat="45.83445" lon="5.42757">
        <ele>201.3</ele>
        <time>2022-09-25T09:05:31Z</time>
      </trkpt>
      <trkpt lat="45.8344" lon="5.42763">
        <ele>201.4</ele>
        <time>2022-09-25T09:05:32Z</time>
      </trkpt>
      <trkpt lat="45.83435" lon="5.42768">
        <ele>201.5</ele>
        <time>2022-09-25T09:05:33Z</time>
      </trkpt>
      <trkpt lat="45.8343" lon="5.42774">
        <ele>201.5</ele>
        <time>2022-09-25T09:05:34Z</time>
      </trkpt>
      <trkpt lat="45.83425" lon="5.42779">
        <ele>201.6</ele>
        <time>2022-09-25T09:05:35Z</time>
      </trkpt>
      <trkpt lat="45.8342" lon="5.42784">
        <ele>201.6</ele>
        <time>2022-09-25T09:05:36Z</time>
      </trkpt>
      <trkpt lat="45.83415" lon="5.42788">
        <ele>201.6</ele>
        <time>2022-09-25T09:05:37Z</time>
      </trkpt>
      <trkpt lat="45.8341" lon="5.42794">
        <ele>201.5</ele>
        <time>2022-09-25T09:05:38Z</time>
      </trkpt>
      <trkpt lat="45.83404" lon="5.42799">
        <ele>201.5</ele>
        <time>2022-09-25T09:05:39Z</time>
      </trkpt>
      <trkpt lat="45.83399" lon="5.42806">
        <ele>201.4</ele>
        <time>2022-09-25T09:05:40Z</time>
      </trkpt>
      <trkpt lat="45.83394" lon="5.42812">
        <ele>201.4</ele>
        <time>2022-09-25T09:05:41Z</time>
      </trkpt>
      <trkpt lat="45.83388" lon="5.42818">
        <ele>201.3</ele>
        <time>2022-09-25T09:05:42Z</time>
      </trkpt>
      <trkpt lat="45.83382" lon="5.42824">
        <ele>201.3</ele>
        <time>2022-09-25T09:05:43Z</time>
      </trkpt>
      <trkpt lat="45.83377" lon="5.4283">
        <ele>201.2</ele>
        <time>2022-09-25T09:05:44Z</time>
      </trkpt>
      <trkpt lat="45.83366" lon="5.42843">
        <ele>201.2</ele>
        <time>2022-09-25T09:05:45Z</time>
      </trkpt>
      <trkpt lat="45.83361" lon="5.42848">
        <ele>201.2</ele>
        <time>2022-09-25T09:05:46Z</time>
      </trkpt>
      <trkpt lat="45.83356" lon="5.42854">
        <ele>201.2</ele>
        <time>2022-09-25T09:05:47Z</time>
      </trkpt>
      <trkpt lat="45.83351" lon="5.42859">
        <ele>201.2</ele>
        <time>2022-09-25T09:05:48Z</time>
      </trkpt>
      <trkpt lat="45.83345" lon="5.42865">
        <ele>201.2</ele>
        <time>2022-09-25T09:05:49Z</time>
      </trkpt>
      <trkpt lat="45.8334" lon="5.42872">
        <ele>201.2</ele>
        <time>2022-09-25T09:05:50Z</time>
      </trkpt>
      <trkpt lat="45.83334" lon="5.42877">
        <ele>201.1</ele>
        <time>2022-09-25T09:05:51Z</time>
      </trkpt>
      <trkpt lat="45.83329" lon="5.42883">
        <ele>201.1</ele>
        <time>2022-09-25T09:05:52Z</time>
      </trkpt>
      <trkpt lat="45.83324" lon="5.4289">
        <ele>201.1</ele>
        <time>2022-09-25T09:05:53Z</time>
      </trkpt>
      <trkpt lat="45.83318" lon="5.42896">
        <ele>201.1</ele>
        <time>2022-09-25T09:05:54Z</time>
      </trkpt>
      <trkpt lat="45.83313" lon="5.42902">
        <ele>201.1</ele>
        <time>2022-09-25T09:05:55Z</time>
      </trkpt>
      <trkpt lat="45.83308" lon="5.42907">
        <ele>201.1</ele>
        <time>2022-09-25T09:05:56Z</time>
      </trkpt>
      <trkpt lat="45.83302" lon="5.42913">
        <ele>201.2</ele>
        <time>2022-09-25T09:05:57Z</time>
      </trkpt>
      <trkpt lat="45.83297" lon="5.42919">
        <ele>201.2</ele>
        <time>2022-09-25T09:05:58Z</time>
      </trkpt>
      <trkpt lat="45.83291" lon="5.42925">
        <ele>201.2</ele>
        <time>2022-09-25T09:05:59Z</time>
      </trkpt>
      <trkpt lat="45.83286" lon="5.42931">
        <ele>201.2</ele>
        <time>2022-09-25T09:06:00Z</time>
      </trkpt>
      <trkpt lat="45.83281" lon="5.42937">
        <ele>201.3</ele>
        <time>2022-09-25T09:06:01Z</time>
      </trkpt>
      <trkpt lat="45.83276" lon="5.42943">
        <ele>201.3</ele>
        <time>2022-09-25T09:06:02Z</time>
      </trkpt>
      <trkpt lat="45.8327" lon="5.42949">
        <ele>201.3</ele>
        <time>2022-09-25T09:06:03Z</time>
      </trkpt>
      <trkpt lat="45.83265" lon="5.42954">
        <ele>201.4</ele>
        <time>2022-09-25T09:06:04Z</time>
      </trkpt>
      <trkpt lat="45.8326" lon="5.4296">
        <ele>201.4</ele>
        <time>2022-09-25T09:06:05Z</time>
      </trkpt>
      <trkpt lat="45.83255" lon="5.42966">
        <ele>201.5</ele>
        <time>2022-09-25T09:06:06Z</time>
      </trkpt>
      <trkpt lat="45.8325" lon="5.42971">
        <ele>201.5</ele>
        <time>2022-09-25T09:06:07Z</time>
      </trkpt>
      <trkpt lat="45.83244" lon="5.42977">
        <ele>201.5</ele>
        <time>2022-09-25T09:06:08Z</time>
      </trkpt>
      <trkpt lat="45.83239" lon="5.42983">
        <ele>201.5</ele>
        <time>2022-09-25T09:06:09Z</time>
      </trkpt>
      <trkpt lat="45.83234" lon="5.42988">
        <ele>201.5</ele>
        <time>2022-09-25T09:06:10Z</time>
      </trkpt>
      <trkpt lat="45.83229" lon="5.42994">
        <ele>201.5</ele>
        <time>2022-09-25T09:06:11Z</time>
      </trkpt>
      <trkpt lat="45.83224" lon="5.42999">
        <ele>201.5</ele>
        <time>2022-09-25T09:06:12Z</time>
      </trkpt>
      <trkpt lat="45.83219" lon="5.43006">
        <ele>201.4</ele>
        <time>2022-09-25T09:06:13Z</time>
      </trkpt>
      <trkpt lat="45.83213" lon="5.43011">
        <ele>201.4</ele>
        <time>2022-09-25T09:06:14Z</time>
      </trkpt>
      <trkpt lat="45.83208" lon="5.43017">
        <ele>201.4</ele>
        <time>2022-09-25T09:06:15Z</time>
      </trkpt>
      <trkpt lat="45.83203" lon="5.43023">
        <ele>201.4</ele>
        <time>2022-09-25T09:06:16Z</time>
      </trkpt>
      <trkpt lat="45.83197" lon="5.43029">
        <ele>201.5</ele>
        <time>2022-09-25T09:06:17Z</time>
      </trkpt>
      <trkpt lat="45.83192" lon="5.43035">
        <ele>201.5</ele>
        <time>2022-09-25T09:06:18Z</time>
      </trkpt>
      <trkpt lat="45.83187" lon="5.43041">
        <ele>201.5</ele>
        <time>2022-09-25T09:06:19Z</time>
      </trkpt>
      <trkpt lat="45.83183" lon="5.43047">
        <ele>201.6</ele>
        <time>2022-09-25T09:06:20Z</time>
      </trkpt>
      <trkpt lat="45.83177" lon="5.43053">
        <ele>201.6</ele>
        <time>2022-09-25T09:06:21Z</time>
      </trkpt>
      <trkpt lat="45.83172" lon="5.43058">
        <ele>201.6</ele>
        <time>2022-09-25T09:06:22Z</time>
      </trkpt>
      <trkpt lat="45.83167" lon="5.43065">
        <ele>201.6</ele>
        <time>2022-09-25T09:06:23Z</time>
      </trkpt>
      <trkpt lat="45.83162" lon="5.4307">
        <ele>201.7</ele>
        <time>2022-09-25T09:06:24Z</time>
      </trkpt>
      <trkpt lat="45.83157" lon="5.43075">
        <ele>201.7</ele>
        <time>2022-09-25T09:06:25Z</time>
      </trkpt>
      <trkpt lat="45.83152" lon="5.43081">
        <ele>201.7</ele>
        <time>2022-09-25T09:06:26Z</time>
      </trkpt>
      <trkpt lat="45.83147" lon="5.43087">
        <ele>201.8</ele>
        <time>2022-09-25T09:06:27Z</time>
      </trkpt>
      <trkpt lat="45.83143" lon="5.43092">
        <ele>201.8</ele>
        <time>2022-09-25T09:06:28Z</time>
      </trkpt>
      <trkpt lat="45.83138" lon="5.43098">
        <ele>201.8</ele>
        <time>2022-09-25T09:06:29Z</time>
      </trkpt>
      <trkpt lat="45.83133" lon="5.43103">
        <ele>201.8</ele>
        <time>2022-09-25T09:06:30Z</time>
      </trkpt>
      <trkpt lat="45.83128" lon="5.43109">
        <ele>201.8</ele>
        <time>2022-09-25T09:06:31Z</time>
      </trkpt>
      <trkpt lat="45.83123" lon="5.43114">
        <ele>201.8</ele>
        <time>2022-09-25T09:06:32Z</time>
      </trkpt>
      <trkpt lat="45.83119" lon="5.4312">
        <ele>201.8</ele>
        <time>2022-09-25T09:06:33Z</time>
      </trkpt>
      <trkpt lat="45.83114" lon="5.43126">
        <ele>201.8</ele>
        <time>2022-09-25T09:06:34Z</time>
      </trkpt>
      <trkpt lat="45.83109" lon="5.43131">
        <ele>201.7</ele>
        <time>2022-09-25T09:06:35Z</time>
      </trkpt>
      <trkpt lat="45.83104" lon="5.43137">
        <ele>201.7</ele>
        <time>2022-09-25T09:06:36Z</time>
      </trkpt>
      <trkpt lat="45.83099" lon="5.43143">
        <ele>201.7</ele>
        <time>2022-09-25T09:06:37Z</time>
      </trkpt>
      <trkpt lat="45.83094" lon="5.43149">
        <ele>201.6</ele>
        <time>2022-09-25T09:06:38Z</time>
      </trkpt>
      <trkpt lat="45.83089" lon="5.43155">
        <ele>201.6</ele>
        <time>2022-09-25T09:06:40Z</time>
      </trkpt>
      <trkpt lat="45.83084" lon="5.4316">
        <ele>201.6</ele>
        <time>2022-09-25T09:06:41Z</time>
      </trkpt>
      <trkpt lat="45.83079" lon="5.43166">
        <ele>201.6</ele>
        <time>2022-09-25T09:06:42Z</time>
      </trkpt>
      <trkpt lat="45.83074" lon="5.43172">
        <ele>201.6</ele>
        <time>2022-09-25T09:06:43Z</time>
      </trkpt>
      <trkpt lat="45.83068" lon="5.43178">
        <ele>201.6</ele>
        <time>2022-09-25T09:06:44Z</time>
      </trkpt>
      <trkpt lat="45.83063" lon="5.43183">
        <ele>201.6</ele>
        <time>2022-09-25T09:06:45Z</time>
      </trkpt>
      <trkpt lat="45.83058" lon="5.43189">
        <ele>201.6</ele>
        <time>2022-09-25T09:06:46Z</time>
      </trkpt>
      <trkpt lat="45.83054" lon="5.43194">
        <ele>201.6</ele>
        <time>2022-09-25T09:06:47Z</time>
      </trkpt>
      <trkpt lat="45.83048" lon="5.43199">
        <ele>201.5</ele>
        <time>2022-09-25T09:06:48Z</time>
      </trkpt>
      <trkpt lat="45.83044" lon="5.43204">
        <ele>201.5</ele>
        <time>2022-09-25T09:06:49Z</time>
      </trkpt>
      <trkpt lat="45.83039" lon="5.43211">
        <ele>201.5</ele>
        <time>2022-09-25T09:06:50Z</time>
      </trkpt>
      <trkpt lat="45.83033" lon="5.43215">
        <ele>201.6</ele>
        <time>2022-09-25T09:06:51Z</time>
      </trkpt>
      <trkpt lat="45.83028" lon="5.4322">
        <ele>201.6</ele>
        <time>2022-09-25T09:06:52Z</time>
      </trkpt>
      <trkpt lat="45.83022" lon="5.43225">
        <ele>201.6</ele>
        <time>2022-09-25T09:06:53Z</time>
      </trkpt>
      <trkpt lat="45.83017" lon="5.43229">
        <ele>201.6</ele>
        <time>2022-09-25T09:06:54Z</time>
      </trkpt>
      <trkpt lat="45.83012" lon="5.43233">
        <ele>201.6</ele>
        <time>2022-09-25T09:06:55Z</time>
      </trkpt>
      <trkpt lat="45.83006" lon="5.43238">
        <ele>201.7</ele>
        <time>2022-09-25T09:06:56Z</time>
      </trkpt>
      <trkpt lat="45.83001" lon="5.43242">
        <ele>201.7</ele>
        <time>2022-09-25T09:06:57Z</time>
      </trkpt>
      <trkpt lat="45.82996" lon="5.43246">
        <ele>201.7</ele>
        <time>2022-09-25T09:06:58Z</time>
      </trkpt>
      <trkpt lat="45.8299" lon="5.4325">
        <ele>201.7</ele>
        <time>2022-09-25T09:06:59Z</time>
      </trkpt>
      <trkpt lat="45.82984" lon="5.43253">
        <ele>201.7</ele>
        <time>2022-09-25T09:07:00Z</time>
      </trkpt>
      <trkpt lat="45.82978" lon="5.43255">
        <ele>201.7</ele>
        <time>2022-09-25T09:07:01Z</time>
      </trkpt>
      <trkpt lat="45.82972" lon="5.43259">
        <ele>201.7</ele>
        <time>2022-09-25T09:07:02Z</time>
      </trkpt>
      <trkpt lat="45.82966" lon="5.43263">
        <ele>201.7</ele>
        <time>2022-09-25T09:07:03Z</time>
      </trkpt>
      <trkpt lat="45.8296" lon="5.43267">
        <ele>201.7</ele>
        <time>2022-09-25T09:07:04Z</time>
      </trkpt>
      <trkpt lat="45.82955" lon="5.43269">
        <ele>201.7</ele>
        <time>2022-09-25T09:07:05Z</time>
      </trkpt>
      <trkpt lat="45.82949" lon="5.43273">
        <ele>201.7</ele>
        <time>2022-09-25T09:07:06Z</time>
      </trkpt>
      <trkpt lat="45.82942" lon="5.43276">
        <ele>201.7</ele>
        <time>2022-09-25T09:07:07Z</time>
      </trkpt>
      <trkpt lat="45.82936" lon="5.4328">
        <ele>201.8</ele>
        <time>2022-09-25T09:07:08Z</time>
      </trkpt>
      <trkpt lat="45.8293" lon="5.43283">
        <ele>201.8</ele>
        <time>2022-09-25T09:07:09Z</time>
      </trkpt>
      <trkpt lat="45.82924" lon="5.43286">
        <ele>201.8</ele>
        <time>2022-09-25T09:07:10Z</time>
      </trkpt>
      <trkpt lat="45.82919" lon="5.43289">
        <ele>201.9</ele>
        <time>2022-09-25T09:07:11Z</time>
      </trkpt>
      <trkpt lat="45.82913" lon="5.43292">
        <ele>201.9</ele>
        <time>2022-09-25T09:07:12Z</time>
      </trkpt>
      <trkpt lat="45.82908" lon="5.43295">
        <ele>201.9</ele>
        <time>2022-09-25T09:07:13Z</time>
      </trkpt>
      <trkpt lat="45.82902" lon="5.43298">
        <ele>201.8</ele>
        <time>2022-09-25T09:07:14Z</time>
      </trkpt>
      <trkpt lat="45.82896" lon="5.43302">
        <ele>201.8</ele>
        <time>2022-09-25T09:07:15Z</time>
      </trkpt>
      <trkpt lat="45.8289" lon="5.43304">
        <ele>201.8</ele>
        <time>2022-09-25T09:07:16Z</time>
      </trkpt>
      <trkpt lat="45.82885" lon="5.43308">
        <ele>201.8</ele>
        <time>2022-09-25T09:07:17Z</time>
      </trkpt>
      <trkpt lat="45.82879" lon="5.43311">
        <ele>201.8</ele>
        <time>2022-09-25T09:07:18Z</time>
      </trkpt>
      <trkpt lat="45.82873" lon="5.43314">
        <ele>201.9</ele>
        <time>2022-09-25T09:07:19Z</time>
      </trkpt>
      <trkpt lat="45.82867" lon="5.43317">
        <ele>201.9</ele>
        <time>2022-09-25T09:07:20Z</time>
      </trkpt>
      <trkpt lat="45.82862" lon="5.4332">
        <ele>201.8</ele>
        <time>2022-09-25T09:07:21Z</time>
      </trkpt>
      <trkpt lat="45.82856" lon="5.43323">
        <ele>201.8</ele>
        <time>2022-09-25T09:07:22Z</time>
      </trkpt>
      <trkpt lat="45.8285" lon="5.43326">
        <ele>201.8</ele>
        <time>2022-09-25T09:07:23Z</time>
      </trkpt>
      <trkpt lat="45.82845" lon="5.43328">
        <ele>201.8</ele>
        <time>2022-09-25T09:07:24Z</time>
      </trkpt>
      <trkpt lat="45.82838" lon="5.43331">
        <ele>201.8</ele>
        <time>2022-09-25T09:07:25Z</time>
      </trkpt>
      <trkpt lat="45.82833" lon="5.43334">
        <ele>201.8</ele>
        <time>2022-09-25T09:07:26Z</time>
      </trkpt>
      <trkpt lat="45.82827" lon="5.43337">
        <ele>201.8</ele>
        <time>2022-09-25T09:07:27Z</time>
      </trkpt>
      <trkpt lat="45.82815" lon="5.43343">
        <ele>201.7</ele>
        <time>2022-09-25T09:07:28Z</time>
      </trkpt>
      <trkpt lat="45.8281" lon="5.43346">
        <ele>201.7</ele>
        <time>2022-09-25T09:07:29Z</time>
      </trkpt>
      <trkpt lat="45.82804" lon="5.43348">
        <ele>201.7</ele>
        <time>2022-09-25T09:07:30Z</time>
      </trkpt>
      <trkpt lat="45.82799" lon="5.43351">
        <ele>201.7</ele>
        <time>2022-09-25T09:07:31Z</time>
      </trkpt>
      <trkpt lat="45.82793" lon="5.43354">
        <ele>201.7</ele>
        <time>2022-09-25T09:07:32Z</time>
      </trkpt>
      <trkpt lat="45.82787" lon="5.43356">
        <ele>201.7</ele>
        <time>2022-09-25T09:07:33Z</time>
      </trkpt>
      <trkpt lat="45.82782" lon="5.43359">
        <ele>201.7</ele>
        <time>2022-09-25T09:07:34Z</time>
      </trkpt>
      <trkpt lat="45.82776" lon="5.43362">
        <ele>201.7</ele>
        <time>2022-09-25T09:07:35Z</time>
      </trkpt>
      <trkpt lat="45.82771" lon="5.43365">
        <ele>201.7</ele>
        <time>2022-09-25T09:07:36Z</time>
      </trkpt>
      <trkpt lat="45.82765" lon="5.43367">
        <ele>201.7</ele>
        <time>2022-09-25T09:07:37Z</time>
      </trkpt>
      <trkpt lat="45.82759" lon="5.4337">
        <ele>201.7</ele>
        <time>2022-09-25T09:07:38Z</time>
      </trkpt>
      <trkpt lat="45.82754" lon="5.43373">
        <ele>201.7</ele>
        <time>2022-09-25T09:07:39Z</time>
      </trkpt>
      <trkpt lat="45.82748" lon="5.43376">
        <ele>201.7</ele>
        <time>2022-09-25T09:07:40Z</time>
      </trkpt>
      <trkpt lat="45.82742" lon="5.43379">
        <ele>201.7</ele>
        <time>2022-09-25T09:07:41Z</time>
      </trkpt>
      <trkpt lat="45.82736" lon="5.43381">
        <ele>201.7</ele>
        <time>2022-09-25T09:07:42Z</time>
      </trkpt>
      <trkpt lat="45.82731" lon="5.43382">
        <ele>201.7</ele>
        <time>2022-09-25T09:07:43Z</time>
      </trkpt>
      <trkpt lat="45.82725" lon="5.43383">
        <ele>201.7</ele>
        <time>2022-09-25T09:07:44Z</time>
      </trkpt>
      <trkpt lat="45.82719" lon="5.43383">
        <ele>201.8</ele>
        <time>2022-09-25T09:07:45Z</time>
      </trkpt>
      <trkpt lat="45.82713" lon="5.43383">
        <ele>201.8</ele>
        <time>2022-09-25T09:07:46Z</time>
      </trkpt>
      <trkpt lat="45.82708" lon="5.43382">
        <ele>201.8</ele>
        <time>2022-09-25T09:07:47Z</time>
      </trkpt>
      <trkpt lat="45.82702" lon="5.4338">
        <ele>201.9</ele>
        <time>2022-09-25T09:07:48Z</time>
      </trkpt>
      <trkpt lat="45.82697" lon="5.43378">
        <ele>201.9</ele>
        <time>2022-09-25T09:07:49Z</time>
      </trkpt>
      <trkpt lat="45.82691" lon="5.43375">
        <ele>201.9</ele>
        <time>2022-09-25T09:07:50Z</time>
      </trkpt>
      <trkpt lat="45.82687" lon="5.43371">
        <ele>201.9</ele>
        <time>2022-09-25T09:07:51Z</time>
      </trkpt>
      <trkpt lat="45.82682" lon="5.43367">
        <ele>201.9</ele>
        <time>2022-09-25T09:07:52Z</time>
      </trkpt>
      <trkpt lat="45.82677" lon="5.43362">
        <ele>201.9</ele>
        <time>2022-09-25T09:07:53Z</time>
      </trkpt>
      <trkpt lat="45.82673" lon="5.43357">
        <ele>202</ele>
        <time>2022-09-25T09:07:54Z</time>
      </trkpt>
      <trkpt lat="45.82668" lon="5.43353">
        <ele>202</ele>
        <time>2022-09-25T09:07:55Z</time>
      </trkpt>
      <trkpt lat="45.82664" lon="5.43348">
        <ele>201.9</ele>
        <time>2022-09-25T09:07:56Z</time>
      </trkpt>
      <trkpt lat="45.8266" lon="5.43343">
        <ele>201.9</ele>
        <time>2022-09-25T09:07:57Z</time>
      </trkpt>
      <trkpt lat="45.82655" lon="5.43337">
        <ele>202</ele>
        <time>2022-09-25T09:07:58Z</time>
      </trkpt>
      <trkpt lat="45.82652" lon="5.43332">
        <ele>202</ele>
        <time>2022-09-25T09:07:59Z</time>
      </trkpt>
      <trkpt lat="45.82649" lon="5.43325">
        <ele>202</ele>
        <time>2022-09-25T09:08:00Z</time>
      </trkpt>
      <trkpt lat="45.82645" lon="5.4332">
        <ele>202</ele>
        <time>2022-09-25T09:08:01Z</time>
      </trkpt>
      <trkpt lat="45.82642" lon="5.43313">
        <ele>202</ele>
        <time>2022-09-25T09:08:02Z</time>
      </trkpt>
      <trkpt lat="45.82639" lon="5.43307">
        <ele>202</ele>
        <time>2022-09-25T09:08:03Z</time>
      </trkpt>
      <trkpt lat="45.82636" lon="5.433">
        <ele>202</ele>
        <time>2022-09-25T09:08:04Z</time>
      </trkpt>
      <trkpt lat="45.82634" lon="5.43293">
        <ele>202</ele>
        <time>2022-09-25T09:08:05Z</time>
      </trkpt>
      <trkpt lat="45.82632" lon="5.43286">
        <ele>202</ele>
        <time>2022-09-25T09:08:06Z</time>
      </trkpt>
      <trkpt lat="45.82631" lon="5.43279">
        <ele>202</ele>
        <time>2022-09-25T09:08:07Z</time>
      </trkpt>
      <trkpt lat="45.82629" lon="5.43271">
        <ele>202</ele>
        <time>2022-09-25T09:08:08Z</time>
      </trkpt>
      <trkpt lat="45.82628" lon="5.43264">
        <ele>202</ele>
        <time>2022-09-25T09:08:09Z</time>
      </trkpt>
      <trkpt lat="45.82627" lon="5.43256">
        <ele>202</ele>
        <time>2022-09-25T09:08:10Z</time>
      </trkpt>
      <trkpt lat="45.82627" lon="5.43248">
        <ele>202</ele>
        <time>2022-09-25T09:08:11Z</time>
      </trkpt>
      <trkpt lat="45.82625" lon="5.4324">
        <ele>202</ele>
        <time>2022-09-25T09:08:12Z</time>
      </trkpt>
      <trkpt lat="45.82625" lon="5.43232">
        <ele>202</ele>
        <time>2022-09-25T09:08:13Z</time>
      </trkpt>
      <trkpt lat="45.82625" lon="5.43223">
        <ele>202</ele>
        <time>2022-09-25T09:08:14Z</time>
      </trkpt>
      <trkpt lat="45.82625" lon="5.43215">
        <ele>202</ele>
        <time>2022-09-25T09:08:15Z</time>
      </trkpt>
      <trkpt lat="45.82624" lon="5.43208">
        <ele>202</ele>
        <time>2022-09-25T09:08:16Z</time>
      </trkpt>
      <trkpt lat="45.82624" lon="5.432">
        <ele>202</ele>
        <time>2022-09-25T09:08:17Z</time>
      </trkpt>
      <trkpt lat="45.82623" lon="5.43191">
        <ele>202</ele>
        <time>2022-09-25T09:08:18Z</time>
      </trkpt>
      <trkpt lat="45.82623" lon="5.43184">
        <ele>202</ele>
        <time>2022-09-25T09:08:19Z</time>
      </trkpt>
      <trkpt lat="45.82623" lon="5.43175">
        <ele>202</ele>
        <time>2022-09-25T09:08:20Z</time>
      </trkpt>
      <trkpt lat="45.82623" lon="5.43167">
        <ele>202</ele>
        <time>2022-09-25T09:08:21Z</time>
      </trkpt>
      <trkpt lat="45.82623" lon="5.43159">
        <ele>202</ele>
        <time>2022-09-25T09:08:22Z</time>
      </trkpt>
      <trkpt lat="45.82622" lon="5.43151">
        <ele>202.1</ele>
        <time>2022-09-25T09:08:23Z</time>
      </trkpt>
      <trkpt lat="45.82622" lon="5.43143">
        <ele>202.1</ele>
        <time>2022-09-25T09:08:24Z</time>
      </trkpt>
      <trkpt lat="45.82622" lon="5.43135">
        <ele>202.1</ele>
        <time>2022-09-25T09:08:25Z</time>
      </trkpt>
      <trkpt lat="45.82621" lon="5.43127">
        <ele>202.1</ele>
        <time>2022-09-25T09:08:26Z</time>
      </trkpt>
      <trkpt lat="45.82621" lon="5.43119">
        <ele>202.1</ele>
        <time>2022-09-25T09:08:27Z</time>
      </trkpt>
      <trkpt lat="45.82621" lon="5.4311">
        <ele>202.1</ele>
        <time>2022-09-25T09:08:28Z</time>
      </trkpt>
      <trkpt lat="45.82621" lon="5.43103">
        <ele>202.1</ele>
        <time>2022-09-25T09:08:29Z</time>
      </trkpt>
      <trkpt lat="45.82621" lon="5.43095">
        <ele>202.1</ele>
        <time>2022-09-25T09:08:30Z</time>
      </trkpt>
      <trkpt lat="45.8262" lon="5.43086">
        <ele>202.1</ele>
        <time>2022-09-25T09:08:31Z</time>
      </trkpt>
      <trkpt lat="45.8262" lon="5.43078">
        <ele>202.1</ele>
        <time>2022-09-25T09:08:32Z</time>
      </trkpt>
      <trkpt lat="45.8262" lon="5.4307">
        <ele>202.1</ele>
        <time>2022-09-25T09:08:33Z</time>
      </trkpt>
      <trkpt lat="45.8262" lon="5.43062">
        <ele>202.1</ele>
        <time>2022-09-25T09:08:34Z</time>
      </trkpt>
      <trkpt lat="45.82619" lon="5.43053">
        <ele>202.1</ele>
        <time>2022-09-25T09:08:35Z</time>
      </trkpt>
      <trkpt lat="45.82619" lon="5.43045">
        <ele>202.1</ele>
        <time>2022-09-25T09:08:36Z</time>
      </trkpt>
      <trkpt lat="45.82619" lon="5.43037">
        <ele>202.1</ele>
        <time>2022-09-25T09:08:37Z</time>
      </trkpt>
      <trkpt lat="45.82618" lon="5.43029">
        <ele>202.1</ele>
        <time>2022-09-25T09:08:38Z</time>
      </trkpt>
      <trkpt lat="45.82618" lon="5.43021">
        <ele>202.1</ele>
        <time>2022-09-25T09:08:39Z</time>
      </trkpt>
      <trkpt lat="45.82618" lon="5.43013">
        <ele>202.1</ele>
        <time>2022-09-25T09:08:40Z</time>
      </trkpt>
      <trkpt lat="45.82618" lon="5.43006">
        <ele>202.1</ele>
        <time>2022-09-25T09:08:41Z</time>
      </trkpt>
      <trkpt lat="45.82618" lon="5.42998">
        <ele>202.1</ele>
        <time>2022-09-25T09:08:42Z</time>
      </trkpt>
      <trkpt lat="45.82617" lon="5.42989">
        <ele>202.1</ele>
        <time>2022-09-25T09:08:44Z</time>
      </trkpt>
      <trkpt lat="45.82617" lon="5.42982">
        <ele>202.1</ele>
        <time>2022-09-25T09:08:45Z</time>
      </trkpt>
      <trkpt lat="45.82617" lon="5.42974">
        <ele>202.1</ele>
        <time>2022-09-25T09:08:46Z</time>
      </trkpt>
      <trkpt lat="45.82616" lon="5.42966">
        <ele>202</ele>
        <time>2022-09-25T09:08:47Z</time>
      </trkpt>
      <trkpt lat="45.82616" lon="5.42958">
        <ele>202</ele>
        <time>2022-09-25T09:08:48Z</time>
      </trkpt>
      <trkpt lat="45.82616" lon="5.4295">
        <ele>202</ele>
        <time>2022-09-25T09:08:49Z</time>
      </trkpt>
      <trkpt lat="45.82616" lon="5.42942">
        <ele>202</ele>
        <time>2022-09-25T09:08:50Z</time>
      </trkpt>
      <trkpt lat="45.82616" lon="5.42934">
        <ele>202</ele>
        <time>2022-09-25T09:08:51Z</time>
      </trkpt>
      <trkpt lat="45.82615" lon="5.42926">
        <ele>202</ele>
        <time>2022-09-25T09:08:52Z</time>
      </trkpt>
      <trkpt lat="45.82615" lon="5.42918">
        <ele>202</ele>
        <time>2022-09-25T09:08:53Z</time>
      </trkpt>
      <trkpt lat="45.82615" lon="5.4291">
        <ele>202</ele>
        <time>2022-09-25T09:08:54Z</time>
      </trkpt>
      <trkpt lat="45.82615" lon="5.42902">
        <ele>202</ele>
        <time>2022-09-25T09:08:55Z</time>
      </trkpt>
      <trkpt lat="45.82615" lon="5.42894">
        <ele>202</ele>
        <time>2022-09-25T09:08:56Z</time>
      </trkpt>
      <trkpt lat="45.82615" lon="5.42885">
        <ele>202</ele>
        <time>2022-09-25T09:08:57Z</time>
      </trkpt>
      <trkpt lat="45.82614" lon="5.42877">
        <ele>201.9</ele>
        <time>2022-09-25T09:08:58Z</time>
      </trkpt>
      <trkpt lat="45.82614" lon="5.42869">
        <ele>201.9</ele>
        <time>2022-09-25T09:08:59Z</time>
      </trkpt>
      <trkpt lat="45.82614" lon="5.4286">
        <ele>201.9</ele>
        <time>2022-09-25T09:09:00Z</time>
      </trkpt>
      <trkpt lat="45.82613" lon="5.42852">
        <ele>201.9</ele>
        <time>2022-09-25T09:09:01Z</time>
      </trkpt>
      <trkpt lat="45.82613" lon="5.42843">
        <ele>201.9</ele>
        <time>2022-09-25T09:09:02Z</time>
      </trkpt>
      <trkpt lat="45.82613" lon="5.42835">
        <ele>201.8</ele>
        <time>2022-09-25T09:09:03Z</time>
      </trkpt>
      <trkpt lat="45.82613" lon="5.42827">
        <ele>201.9</ele>
        <time>2022-09-25T09:09:04Z</time>
      </trkpt>
      <trkpt lat="45.82612" lon="5.42819">
        <ele>201.9</ele>
        <time>2022-09-25T09:09:05Z</time>
      </trkpt>
      <trkpt lat="45.82612" lon="5.42811">
        <ele>201.9</ele>
        <time>2022-09-25T09:09:06Z</time>
      </trkpt>
      <trkpt lat="45.82612" lon="5.42802">
        <ele>201.9</ele>
        <time>2022-09-25T09:09:07Z</time>
      </trkpt>
      <trkpt lat="45.82612" lon="5.42794">
        <ele>201.9</ele>
        <time>2022-09-25T09:09:08Z</time>
      </trkpt>
      <trkpt lat="45.82611" lon="5.42779">
        <ele>201.9</ele>
        <time>2022-09-25T09:09:09Z</time>
      </trkpt>
      <trkpt lat="45.82611" lon="5.42771">
        <ele>202</ele>
        <time>2022-09-25T09:09:10Z</time>
      </trkpt>
      <trkpt lat="45.8261" lon="5.42763">
        <ele>202</ele>
        <time>2022-09-25T09:09:11Z</time>
      </trkpt>
      <trkpt lat="45.82609" lon="5.42755">
        <ele>202.1</ele>
        <time>2022-09-25T09:09:12Z</time>
      </trkpt>
      <trkpt lat="45.82609" lon="5.42747">
        <ele>202.1</ele>
        <time>2022-09-25T09:09:13Z</time>
      </trkpt>
      <trkpt lat="45.82608" lon="5.42739">
        <ele>202.2</ele>
        <time>2022-09-25T09:09:14Z</time>
      </trkpt>
      <trkpt lat="45.82607" lon="5.42731">
        <ele>202.2</ele>
        <time>2022-09-25T09:09:15Z</time>
      </trkpt>
      <trkpt lat="45.82606" lon="5.42723">
        <ele>202.3</ele>
        <time>2022-09-25T09:09:16Z</time>
      </trkpt>
      <trkpt lat="45.82606" lon="5.42715">
        <ele>202.3</ele>
        <time>2022-09-25T09:09:17Z</time>
      </trkpt>
      <trkpt lat="45.82606" lon="5.42707">
        <ele>202.4</ele>
        <time>2022-09-25T09:09:18Z</time>
      </trkpt>
      <trkpt lat="45.82606" lon="5.427">
        <ele>202.4</ele>
        <time>2022-09-25T09:09:19Z</time>
      </trkpt>
      <trkpt lat="45.82606" lon="5.42691">
        <ele>202.3</ele>
        <time>2022-09-25T09:09:20Z</time>
      </trkpt>
      <trkpt lat="45.82606" lon="5.42684">
        <ele>202.3</ele>
        <time>2022-09-25T09:09:21Z</time>
      </trkpt>
      <trkpt lat="45.82606" lon="5.42675">
        <ele>202.3</ele>
        <time>2022-09-25T09:09:22Z</time>
      </trkpt>
      <trkpt lat="45.82606" lon="5.42667">
        <ele>202.3</ele>
        <time>2022-09-25T09:09:23Z</time>
      </trkpt>
      <trkpt lat="45.82606" lon="5.42658">
        <ele>202.4</ele>
        <time>2022-09-25T09:09:24Z</time>
      </trkpt>
      <trkpt lat="45.82606" lon="5.42649">
        <ele>202.4</ele>
        <time>2022-09-25T09:09:25Z</time>
      </trkpt>
      <trkpt lat="45.82606" lon="5.42641">
        <ele>202.4</ele>
        <time>2022-09-25T09:09:26Z</time>
      </trkpt>
      <trkpt lat="45.82607" lon="5.42632">
        <ele>202.5</ele>
        <time>2022-09-25T09:09:27Z</time>
      </trkpt>
      <trkpt lat="45.82607" lon="5.42623">
        <ele>202.5</ele>
        <time>2022-09-25T09:09:28Z</time>
      </trkpt>
      <trkpt lat="45.82608" lon="5.42615">
        <ele>202.6</ele>
        <time>2022-09-25T09:09:29Z</time>
      </trkpt>
      <trkpt lat="45.82608" lon="5.42607">
        <ele>202.6</ele>
        <time>2022-09-25T09:09:30Z</time>
      </trkpt>
      <trkpt lat="45.82609" lon="5.42598">
        <ele>202.6</ele>
        <time>2022-09-25T09:09:31Z</time>
      </trkpt>
      <trkpt lat="45.82608" lon="5.42591">
        <ele>202.7</ele>
        <time>2022-09-25T09:09:32Z</time>
      </trkpt>
      <trkpt lat="45.82607" lon="5.42583">
        <ele>202.7</ele>
        <time>2022-09-25T09:09:33Z</time>
      </trkpt>
      <trkpt lat="45.82604" lon="5.42576">
        <ele>202.8</ele>
        <time>2022-09-25T09:09:34Z</time>
      </trkpt>
      <trkpt lat="45.82601" lon="5.4257">
        <ele>202.8</ele>
        <time>2022-09-25T09:09:35Z</time>
      </trkpt>
      <trkpt lat="45.82598" lon="5.42564">
        <ele>202.9</ele>
        <time>2022-09-25T09:09:36Z</time>
      </trkpt>
      <trkpt lat="45.82597" lon="5.42557">
        <ele>202.9</ele>
        <time>2022-09-25T09:09:37Z</time>
      </trkpt>
      <trkpt lat="45.82596" lon="5.4255">
        <ele>203</ele>
        <time>2022-09-25T09:09:38Z</time>
      </trkpt>
      <trkpt lat="45.82596" lon="5.42543">
        <ele>203.1</ele>
        <time>2022-09-25T09:09:39Z</time>
      </trkpt>
      <trkpt lat="45.82596" lon="5.42537">
        <ele>203.2</ele>
        <time>2022-09-25T09:09:40Z</time>
      </trkpt>
      <trkpt lat="45.82597" lon="5.42531">
        <ele>203.3</ele>
        <time>2022-09-25T09:09:41Z</time>
      </trkpt>
      <trkpt lat="45.82597" lon="5.42525">
        <ele>203.3</ele>
        <time>2022-09-25T09:09:42Z</time>
      </trkpt>
      <trkpt lat="45.82598" lon="5.42518">
        <ele>203.4</ele>
        <time>2022-09-25T09:09:43Z</time>
      </trkpt>
      <trkpt lat="45.82599" lon="5.42512">
        <ele>203.5</ele>
        <time>2022-09-25T09:09:44Z</time>
      </trkpt>
      <trkpt lat="45.826" lon="5.42506">
        <ele>203.6</ele>
        <time>2022-09-25T09:09:45Z</time>
      </trkpt>
      <trkpt lat="45.82601" lon="5.42499">
        <ele>203.7</ele>
        <time>2022-09-25T09:09:46Z</time>
      </trkpt>
      <trkpt lat="45.82602" lon="5.42493">
        <ele>203.8</ele>
        <time>2022-09-25T09:09:47Z</time>
      </trkpt>
      <trkpt lat="45.82602" lon="5.42486">
        <ele>203.9</ele>
        <time>2022-09-25T09:09:48Z</time>
      </trkpt>
      <trkpt lat="45.82602" lon="5.4248">
        <ele>204.1</ele>
        <time>2022-09-25T09:09:49Z</time>
      </trkpt>
      <trkpt lat="45.82602" lon="5.42474">
        <ele>204.2</ele>
        <time>2022-09-25T09:09:50Z</time>
      </trkpt>
      <trkpt lat="45.82603" lon="5.42468">
        <ele>204.3</ele>
        <time>2022-09-25T09:09:51Z</time>
      </trkpt>
      <trkpt lat="45.82602" lon="5.42461">
        <ele>204.4</ele>
        <time>2022-09-25T09:09:52Z</time>
      </trkpt>
      <trkpt lat="45.82602" lon="5.42456">
        <ele>204.5</ele>
        <time>2022-09-25T09:09:53Z</time>
      </trkpt>
      <trkpt lat="45.82602" lon="5.42451">
        <ele>204.6</ele>
        <time>2022-09-25T09:09:54Z</time>
      </trkpt>
      <trkpt lat="45.82603" lon="5.42446">
        <ele>204.7</ele>
        <time>2022-09-25T09:09:55Z</time>
      </trkpt>
      <trkpt lat="45.82603" lon="5.4244">
        <ele>204.9</ele>
        <time>2022-09-25T09:09:56Z</time>
      </trkpt>
      <trkpt lat="45.82603" lon="5.42434">
        <ele>205</ele>
        <time>2022-09-25T09:09:57Z</time>
      </trkpt>
      <trkpt lat="45.82602" lon="5.42429">
        <ele>205.1</ele>
        <time>2022-09-25T09:09:58Z</time>
      </trkpt>
      <trkpt lat="45.82602" lon="5.42426">
        <ele>205.1</ele>
        <time>2022-09-25T09:09:59Z</time>
      </trkpt>
      <trkpt lat="45.82601" lon="5.4242">
        <ele>205.1</ele>
        <time>2022-09-25T09:10:00Z</time>
      </trkpt>
      <trkpt lat="45.82601" lon="5.42414">
        <ele>205.1</ele>
        <time>2022-09-25T09:10:01Z</time>
      </trkpt>
      <trkpt lat="45.826" lon="5.42408">
        <ele>205.1</ele>
        <time>2022-09-25T09:10:02Z</time>
      </trkpt>
      <trkpt lat="45.82601" lon="5.42402">
        <ele>205.2</ele>
        <time>2022-09-25T09:10:03Z</time>
      </trkpt>
      <trkpt lat="45.82601" lon="5.42394">
        <ele>205.2</ele>
        <time>2022-09-25T09:10:04Z</time>
      </trkpt>
      <trkpt lat="45.82601" lon="5.42387">
        <ele>205.2</ele>
        <time>2022-09-25T09:10:05Z</time>
      </trkpt>
      <trkpt lat="45.82602" lon="5.42381">
        <ele>205.2</ele>
        <time>2022-09-25T09:10:06Z</time>
      </trkpt>
      <trkpt lat="45.82602" lon="5.42376">
        <ele>205.2</ele>
        <time>2022-09-25T09:10:07Z</time>
      </trkpt>
      <trkpt lat="45.82602" lon="5.42369">
        <ele>205.2</ele>
        <time>2022-09-25T09:10:08Z</time>
      </trkpt>
      <trkpt lat="45.82602" lon="5.42362">
        <ele>205.2</ele>
        <time>2022-09-25T09:10:09Z</time>
      </trkpt>
      <trkpt lat="45.82602" lon="5.42355">
        <ele>205.2</ele>
        <time>2022-09-25T09:10:10Z</time>
      </trkpt>
      <trkpt lat="45.82602" lon="5.42349">
        <ele>205.2</ele>
        <time>2022-09-25T09:10:11Z</time>
      </trkpt>
      <trkpt lat="45.82602" lon="5.42342">
        <ele>205.2</ele>
        <time>2022-09-25T09:10:12Z</time>
      </trkpt>
      <trkpt lat="45.82602" lon="5.42334">
        <ele>205.2</ele>
        <time>2022-09-25T09:10:13Z</time>
      </trkpt>
      <trkpt lat="45.82601" lon="5.42326">
        <ele>205.3</ele>
        <time>2022-09-25T09:10:14Z</time>
      </trkpt>
      <trkpt lat="45.82601" lon="5.4232">
        <ele>205.3</ele>
        <time>2022-09-25T09:10:15Z</time>
      </trkpt>
      <trkpt lat="45.82601" lon="5.42313">
        <ele>205.2</ele>
        <time>2022-09-25T09:10:16Z</time>
      </trkpt>
      <trkpt lat="45.82601" lon="5.42306">
        <ele>205.2</ele>
        <time>2022-09-25T09:10:17Z</time>
      </trkpt>
      <trkpt lat="45.826" lon="5.42299">
        <ele>205.2</ele>
        <time>2022-09-25T09:10:18Z</time>
      </trkpt>
      <trkpt lat="45.82599" lon="5.42291">
        <ele>205.2</ele>
        <time>2022-09-25T09:10:19Z</time>
      </trkpt>
      <trkpt lat="45.82599" lon="5.42284">
        <ele>205.3</ele>
        <time>2022-09-25T09:10:20Z</time>
      </trkpt>
      <trkpt lat="45.82597" lon="5.42277">
        <ele>205.3</ele>
        <time>2022-09-25T09:10:21Z</time>
      </trkpt>
      <trkpt lat="45.82596" lon="5.42272">
        <ele>205.3</ele>
        <time>2022-09-25T09:10:22Z</time>
      </trkpt>
      <trkpt lat="45.82593" lon="5.42267">
        <ele>205.3</ele>
        <time>2022-09-25T09:10:23Z</time>
      </trkpt>
      <trkpt lat="45.8259" lon="5.42263">
        <ele>205.3</ele>
        <time>2022-09-25T09:10:24Z</time>
      </trkpt>
      <trkpt lat="45.82586" lon="5.4226">
        <ele>205.3</ele>
        <time>2022-09-25T09:10:25Z</time>
      </trkpt>
      <trkpt lat="45.82582" lon="5.42257">
        <ele>205.3</ele>
        <time>2022-09-25T09:10:26Z</time>
      </trkpt>
      <trkpt lat="45.82576" lon="5.42255">
        <ele>205.3</ele>
        <time>2022-09-25T09:10:27Z</time>
      </trkpt>
      <trkpt lat="45.82571" lon="5.42254">
        <ele>205.3</ele>
        <time>2022-09-25T09:10:28Z</time>
      </trkpt>
      <trkpt lat="45.82566" lon="5.42253">
        <ele>205.4</ele>
        <time>2022-09-25T09:10:29Z</time>
      </trkpt>
      <trkpt lat="45.82562" lon="5.42252">
        <ele>205.4</ele>
        <time>2022-09-25T09:10:30Z</time>
      </trkpt>
      <trkpt lat="45.82558" lon="5.4225">
        <ele>205.4</ele>
        <time>2022-09-25T09:10:31Z</time>
      </trkpt>
      <trkpt lat="45.82555" lon="5.42245">
        <ele>205.4</ele>
        <time>2022-09-25T09:10:32Z</time>
      </trkpt>
      <trkpt lat="45.82554" lon="5.4224">
        <ele>205.4</ele>
        <time>2022-09-25T09:10:33Z</time>
      </trkpt>
      <trkpt lat="45.82554" lon="5.42234">
        <ele>205.4</ele>
        <time>2022-09-25T09:10:34Z</time>
      </trkpt>
      <trkpt lat="45.82555" lon="5.42229">
        <ele>205.4</ele>
        <time>2022-09-25T09:10:35Z</time>
      </trkpt>
      <trkpt lat="45.82556" lon="5.42223">
        <ele>205.4</ele>
        <time>2022-09-25T09:10:36Z</time>
      </trkpt>
      <trkpt lat="45.8256" lon="5.42219">
        <ele>205.4</ele>
        <time>2022-09-25T09:10:37Z</time>
      </trkpt>
      <trkpt lat="45.82564" lon="5.42215">
        <ele>205.4</ele>
        <time>2022-09-25T09:10:38Z</time>
      </trkpt>
      <trkpt lat="45.82567" lon="5.42212">
        <ele>205.4</ele>
        <time>2022-09-25T09:10:39Z</time>
      </trkpt>
      <trkpt lat="45.82572" lon="5.42208">
        <ele>205.4</ele>
        <time>2022-09-25T09:10:40Z</time>
      </trkpt>
      <trkpt lat="45.82577" lon="5.42204">
        <ele>205.4</ele>
        <time>2022-09-25T09:10:41Z</time>
      </trkpt>
      <trkpt lat="45.8258" lon="5.42199">
        <ele>205.3</ele>
        <time>2022-09-25T09:10:42Z</time>
      </trkpt>
      <trkpt lat="45.82583" lon="5.42193">
        <ele>205.3</ele>
        <time>2022-09-25T09:10:43Z</time>
      </trkpt>
      <trkpt lat="45.82584" lon="5.42186">
        <ele>205.3</ele>
        <time>2022-09-25T09:10:44Z</time>
      </trkpt>
      <trkpt lat="45.82583" lon="5.42179">
        <ele>205.3</ele>
        <time>2022-09-25T09:10:45Z</time>
      </trkpt>
      <trkpt lat="45.82582" lon="5.42171">
        <ele>205.3</ele>
        <time>2022-09-25T09:10:46Z</time>
      </trkpt>
      <trkpt lat="45.82581" lon="5.42164">
        <ele>205.3</ele>
        <time>2022-09-25T09:10:47Z</time>
      </trkpt>
      <trkpt lat="45.82579" lon="5.42157">
        <ele>205.3</ele>
        <time>2022-09-25T09:10:48Z</time>
      </trkpt>
      <trkpt lat="45.82578" lon="5.4215">
        <ele>205.3</ele>
        <time>2022-09-25T09:10:50Z</time>
      </trkpt>
      <trkpt lat="45.82577" lon="5.42142">
        <ele>205.3</ele>
        <time>2022-09-25T09:10:51Z</time>
      </trkpt>
      <trkpt lat="45.82576" lon="5.42134">
        <ele>205.3</ele>
        <time>2022-09-25T09:10:52Z</time>
      </trkpt>
      <trkpt lat="45.82575" lon="5.42128">
        <ele>205.3</ele>
        <time>2022-09-25T09:10:53Z</time>
      </trkpt>
      <trkpt lat="45.82574" lon="5.42121">
        <ele>205.3</ele>
        <time>2022-09-25T09:10:54Z</time>
      </trkpt>
      <trkpt lat="45.82572" lon="5.42113">
        <ele>205.3</ele>
        <time>2022-09-25T09:10:55Z</time>
      </trkpt>
      <trkpt lat="45.82569" lon="5.42107">
        <ele>205.3</ele>
        <time>2022-09-25T09:10:56Z</time>
      </trkpt>
      <trkpt lat="45.82566" lon="5.42101">
        <ele>205.3</ele>
        <time>2022-09-25T09:10:57Z</time>
      </trkpt>
      <trkpt lat="45.82562" lon="5.42097">
        <ele>205.3</ele>
        <time>2022-09-25T09:10:58Z</time>
      </trkpt>
      <trkpt lat="45.82558" lon="5.42092">
        <ele>205.3</ele>
        <time>2022-09-25T09:10:59Z</time>
      </trkpt>
      <trkpt lat="45.82554" lon="5.42089">
        <ele>205.4</ele>
        <time>2022-09-25T09:11:00Z</time>
      </trkpt>
      <trkpt lat="45.82549" lon="5.42087">
        <ele>205.4</ele>
        <time>2022-09-25T09:11:01Z</time>
      </trkpt>
      <trkpt lat="45.82544" lon="5.42087">
        <ele>205.4</ele>
        <time>2022-09-25T09:11:02Z</time>
      </trkpt>
      <trkpt lat="45.8254" lon="5.42088">
        <ele>205.4</ele>
        <time>2022-09-25T09:11:03Z</time>
      </trkpt>
      <trkpt lat="45.82535" lon="5.42089">
        <ele>205.4</ele>
        <time>2022-09-25T09:11:04Z</time>
      </trkpt>
      <trkpt lat="45.82531" lon="5.42092">
        <ele>205.4</ele>
        <time>2022-09-25T09:11:05Z</time>
      </trkpt>
      <trkpt lat="45.82526" lon="5.42094">
        <ele>205.4</ele>
        <time>2022-09-25T09:11:06Z</time>
      </trkpt>
      <trkpt lat="45.82522" lon="5.42096">
        <ele>205.3</ele>
        <time>2022-09-25T09:11:07Z</time>
      </trkpt>
      <trkpt lat="45.82518" lon="5.42097">
        <ele>205.3</ele>
        <time>2022-09-25T09:11:08Z</time>
      </trkpt>
      <trkpt lat="45.82513" lon="5.42099">
        <ele>205.3</ele>
        <time>2022-09-25T09:11:09Z</time>
      </trkpt>
      <trkpt lat="45.82509" lon="5.42102">
        <ele>205.3</ele>
        <time>2022-09-25T09:11:10Z</time>
      </trkpt>
      <trkpt lat="45.82504" lon="5.42104">
        <ele>205.3</ele>
        <time>2022-09-25T09:11:11Z</time>
      </trkpt>
      <trkpt lat="45.825" lon="5.42106">
        <ele>205.3</ele>
        <time>2022-09-25T09:11:12Z</time>
      </trkpt>
      <trkpt lat="45.82496" lon="5.42108">
        <ele>205.3</ele>
        <time>2022-09-25T09:11:13Z</time>
      </trkpt>
      <trkpt lat="45.82491" lon="5.42111">
        <ele>205.3</ele>
        <time>2022-09-25T09:11:14Z</time>
      </trkpt>
      <trkpt lat="45.82486" lon="5.42114">
        <ele>205.3</ele>
        <time>2022-09-25T09:11:15Z</time>
      </trkpt>
      <trkpt lat="45.82482" lon="5.42117">
        <ele>205.3</ele>
        <time>2022-09-25T09:11:16Z</time>
      </trkpt>
      <trkpt lat="45.82478" lon="5.4212">
        <ele>205.3</ele>
        <time>2022-09-25T09:11:17Z</time>
      </trkpt>
      <trkpt lat="45.82473" lon="5.42122">
        <ele>205.4</ele>
        <time>2022-09-25T09:11:18Z</time>
      </trkpt>
      <trkpt lat="45.82469" lon="5.42126">
        <ele>205.4</ele>
        <time>2022-09-25T09:11:19Z</time>
      </trkpt>
      <trkpt lat="45.82464" lon="5.42129">
        <ele>205.4</ele>
        <time>2022-09-25T09:11:20Z</time>
      </trkpt>
      <trkpt lat="45.82459" lon="5.42132">
        <ele>205.4</ele>
        <time>2022-09-25T09:11:21Z</time>
      </trkpt>
      <trkpt lat="45.82456" lon="5.42134">
        <ele>205.4</ele>
        <time>2022-09-25T09:11:22Z</time>
      </trkpt>
      <trkpt lat="45.82452" lon="5.42137">
        <ele>205.5</ele>
        <time>2022-09-25T09:11:23Z</time>
      </trkpt>
      <trkpt lat="45.82448" lon="5.42139">
        <ele>205.5</ele>
        <time>2022-09-25T09:11:24Z</time>
      </trkpt>
      <trkpt lat="45.82445" lon="5.4214">
        <ele>205.5</ele>
        <time>2022-09-25T09:11:25Z</time>
      </trkpt>
      <trkpt lat="45.82441" lon="5.4214">
        <ele>205.5</ele>
        <time>2022-09-25T09:11:26Z</time>
      </trkpt>
      <trkpt lat="45.82437" lon="5.42138">
        <ele>205.5</ele>
        <time>2022-09-25T09:11:27Z</time>
      </trkpt>
      <trkpt lat="45.82433" lon="5.42135">
        <ele>205.5</ele>
        <time>2022-09-25T09:11:28Z</time>
      </trkpt>
      <trkpt lat="45.8243" lon="5.42131">
        <ele>205.5</ele>
        <time>2022-09-25T09:11:29Z</time>
      </trkpt>
      <trkpt lat="45.82427" lon="5.42127">
        <ele>205.5</ele>
        <time>2022-09-25T09:11:30Z</time>
      </trkpt>
      <trkpt lat="45.82424" lon="5.42122">
        <ele>205.5</ele>
        <time>2022-09-25T09:11:31Z</time>
      </trkpt>
      <trkpt lat="45.8242" lon="5.42117">
        <ele>205.5</ele>
        <time>2022-09-25T09:11:32Z</time>
      </trkpt>
      <trkpt lat="45.82418" lon="5.42111">
        <ele>205.5</ele>
        <time>2022-09-25T09:11:33Z</time>
      </trkpt>
      <trkpt lat="45.82415" lon="5.42106">
        <ele>205.5</ele>
        <time>2022-09-25T09:11:34Z</time>
      </trkpt>
      <trkpt lat="45.82411" lon="5.421">
        <ele>205.5</ele>
        <time>2022-09-25T09:11:35Z</time>
      </trkpt>
      <trkpt lat="45.82408" lon="5.42094">
        <ele>205.5</ele>
        <time>2022-09-25T09:11:36Z</time>
      </trkpt>
      <trkpt lat="45.82405" lon="5.42088">
        <ele>205.5</ele>
        <time>2022-09-25T09:11:37Z</time>
      </trkpt>
      <trkpt lat="45.82401" lon="5.42084">
        <ele>205.5</ele>
        <time>2022-09-25T09:11:38Z</time>
      </trkpt>
      <trkpt lat="45.82397" lon="5.42079">
        <ele>205.6</ele>
        <time>2022-09-25T09:11:39Z</time>
      </trkpt>
      <trkpt lat="45.82393" lon="5.42074">
        <ele>205.6</ele>
        <time>2022-09-25T09:11:40Z</time>
      </trkpt>
      <trkpt lat="45.82388" lon="5.42069">
        <ele>205.6</ele>
        <time>2022-09-25T09:11:41Z</time>
      </trkpt>
      <trkpt lat="45.82386" lon="5.42065">
        <ele>205.6</ele>
        <time>2022-09-25T09:11:42Z</time>
      </trkpt>
      <trkpt lat="45.82381" lon="5.42061">
        <ele>205.6</ele>
        <time>2022-09-25T09:11:43Z</time>
      </trkpt>
      <trkpt lat="45.82377" lon="5.42058">
        <ele>205.7</ele>
        <time>2022-09-25T09:11:44Z</time>
      </trkpt>
      <trkpt lat="45.82374" lon="5.42054">
        <ele>205.7</ele>
        <time>2022-09-25T09:11:45Z</time>
      </trkpt>
      <trkpt lat="45.8237" lon="5.4205">
        <ele>205.7</ele>
        <time>2022-09-25T09:11:46Z</time>
      </trkpt>
      <trkpt lat="45.82366" lon="5.42047">
        <ele>205.7</ele>
        <time>2022-09-25T09:11:47Z</time>
      </trkpt>
      <trkpt lat="45.82362" lon="5.42044">
        <ele>205.7</ele>
        <time>2022-09-25T09:11:48Z</time>
      </trkpt>
      <trkpt lat="45.82358" lon="5.42042">
        <ele>205.7</ele>
        <time>2022-09-25T09:11:49Z</time>
      </trkpt>
      <trkpt lat="45.82355" lon="5.42039">
        <ele>205.7</ele>
        <time>2022-09-25T09:11:50Z</time>
      </trkpt>
      <trkpt lat="45.82352" lon="5.42036">
        <ele>205.7</ele>
        <time>2022-09-25T09:11:51Z</time>
      </trkpt>
      <trkpt lat="45.82348" lon="5.42033">
        <ele>205.7</ele>
        <time>2022-09-25T09:11:52Z</time>
      </trkpt>
      <trkpt lat="45.82343" lon="5.42031">
        <ele>205.7</ele>
        <time>2022-09-25T09:11:53Z</time>
      </trkpt>
      <trkpt lat="45.82339" lon="5.4203">
        <ele>205.7</ele>
        <time>2022-09-25T09:11:54Z</time>
      </trkpt>
      <trkpt lat="45.82336" lon="5.42028">
        <ele>205.7</ele>
        <time>2022-09-25T09:11:55Z</time>
      </trkpt>
      <trkpt lat="45.82333" lon="5.42026">
        <ele>205.7</ele>
        <time>2022-09-25T09:11:56Z</time>
      </trkpt>
      <trkpt lat="45.82329" lon="5.42024">
        <ele>205.7</ele>
        <time>2022-09-25T09:11:57Z</time>
      </trkpt>
      <trkpt lat="45.82325" lon="5.42022">
        <ele>205.7</ele>
        <time>2022-09-25T09:11:58Z</time>
      </trkpt>
      <trkpt lat="45.82321" lon="5.4202">
        <ele>205.7</ele>
        <time>2022-09-25T09:11:59Z</time>
      </trkpt>
      <trkpt lat="45.82318" lon="5.42019">
        <ele>205.7</ele>
        <time>2022-09-25T09:12:00Z</time>
      </trkpt>
      <trkpt lat="45.8231" lon="5.42018">
        <ele>205.7</ele>
        <time>2022-09-25T09:12:01Z</time>
      </trkpt>
      <trkpt lat="45.82307" lon="5.42017">
        <ele>205.7</ele>
        <time>2022-09-25T09:12:02Z</time>
      </trkpt>
      <trkpt lat="45.82303" lon="5.42016">
        <ele>205.7</ele>
        <time>2022-09-25T09:12:03Z</time>
      </trkpt>
      <trkpt lat="45.82298" lon="5.42016">
        <ele>205.7</ele>
        <time>2022-09-25T09:12:04Z</time>
      </trkpt>
      <trkpt lat="45.82294" lon="5.42018">
        <ele>205.7</ele>
        <time>2022-09-25T09:12:05Z</time>
      </trkpt>
      <trkpt lat="45.8229" lon="5.42019">
        <ele>205.7</ele>
        <time>2022-09-25T09:12:06Z</time>
      </trkpt>
      <trkpt lat="45.82286" lon="5.42021">
        <ele>205.7</ele>
        <time>2022-09-25T09:12:07Z</time>
      </trkpt>
      <trkpt lat="45.82282" lon="5.42022">
        <ele>205.8</ele>
        <time>2022-09-25T09:12:08Z</time>
      </trkpt>
      <trkpt lat="45.82278" lon="5.42023">
        <ele>205.8</ele>
        <time>2022-09-25T09:12:09Z</time>
      </trkpt>
      <trkpt lat="45.82274" lon="5.42024">
        <ele>205.8</ele>
        <time>2022-09-25T09:12:10Z</time>
      </trkpt>
      <trkpt lat="45.82271" lon="5.42025">
        <ele>205.8</ele>
        <time>2022-09-25T09:12:11Z</time>
      </trkpt>
      <trkpt lat="45.82268" lon="5.42024">
        <ele>205.8</ele>
        <time>2022-09-25T09:12:12Z</time>
      </trkpt>
      <trkpt lat="45.82266" lon="5.42023">
        <ele>205.8</ele>
        <time>2022-09-25T09:12:13Z</time>
      </trkpt>
      <trkpt lat="45.82264" lon="5.42019">
        <ele>205.8</ele>
        <time>2022-09-25T09:12:14Z</time>
      </trkpt>
      <trkpt lat="45.82264" lon="5.42017">
        <ele>205.8</ele>
        <time>2022-09-25T09:12:15Z</time>
      </trkpt>
      <trkpt lat="45.82262" lon="5.42013">
        <ele>205.8</ele>
        <time>2022-09-25T09:12:16Z</time>
      </trkpt>
      <trkpt lat="45.82261" lon="5.42011">
        <ele>205.8</ele>
        <time>2022-09-25T09:12:17Z</time>
      </trkpt>
      <trkpt lat="45.8226" lon="5.42007">
        <ele>205.8</ele>
        <time>2022-09-25T09:12:18Z</time>
      </trkpt>
      <trkpt lat="45.82258" lon="5.42003">
        <ele>205.7</ele>
        <time>2022-09-25T09:12:19Z</time>
      </trkpt>
      <trkpt lat="45.82257" lon="5.42">
        <ele>205.7</ele>
        <time>2022-09-25T09:12:20Z</time>
      </trkpt>
      <trkpt lat="45.82255" lon="5.41996">
        <ele>205.7</ele>
        <time>2022-09-25T09:12:21Z</time>
      </trkpt>
      <trkpt lat="45.82251" lon="5.41994">
        <ele>205.7</ele>
        <time>2022-09-25T09:12:22Z</time>
      </trkpt>
      <trkpt lat="45.82247" lon="5.41989">
        <ele>205.7</ele>
        <time>2022-09-25T09:12:23Z</time>
      </trkpt>
      <trkpt lat="45.82243" lon="5.41984">
        <ele>205.7</ele>
        <time>2022-09-25T09:12:24Z</time>
      </trkpt>
      <trkpt lat="45.82239" lon="5.41979">
        <ele>205.6</ele>
        <time>2022-09-25T09:12:25Z</time>
      </trkpt>
      <trkpt lat="45.82236" lon="5.41974">
        <ele>205.6</ele>
        <time>2022-09-25T09:12:26Z</time>
      </trkpt>
      <trkpt lat="45.82232" lon="5.41969">
        <ele>205.6</ele>
        <time>2022-09-25T09:12:27Z</time>
      </trkpt>
      <trkpt lat="45.82229" lon="5.41965">
        <ele>205.6</ele>
        <time>2022-09-25T09:12:28Z</time>
      </trkpt>
      <trkpt lat="45.82226" lon="5.4196">
        <ele>205.6</ele>
        <time>2022-09-25T09:12:29Z</time>
      </trkpt>
      <trkpt lat="45.82224" lon="5.41957">
        <ele>205.6</ele>
        <time>2022-09-25T09:12:30Z</time>
      </trkpt>
      <trkpt lat="45.82222" lon="5.41954">
        <ele>205.7</ele>
        <time>2022-09-25T09:12:31Z</time>
      </trkpt>
      <trkpt lat="45.82218" lon="5.41952">
        <ele>205.7</ele>
        <time>2022-09-25T09:12:32Z</time>
      </trkpt>
      <trkpt lat="45.82214" lon="5.41949">
        <ele>205.7</ele>
        <time>2022-09-25T09:12:33Z</time>
      </trkpt>
      <trkpt lat="45.82212" lon="5.41946">
        <ele>205.7</ele>
        <time>2022-09-25T09:12:34Z</time>
      </trkpt>
      <trkpt lat="45.82208" lon="5.41943">
        <ele>205.7</ele>
        <time>2022-09-25T09:12:35Z</time>
      </trkpt>
      <trkpt lat="45.82204" lon="5.41945">
        <ele>205.8</ele>
        <time>2022-09-25T09:12:36Z</time>
      </trkpt>
      <trkpt lat="45.822" lon="5.41947">
        <ele>205.7</ele>
        <time>2022-09-25T09:12:37Z</time>
      </trkpt>
      <trkpt lat="45.82199" lon="5.41948">
        <ele>205.7</ele>
        <time>2022-09-25T09:12:38Z</time>
      </trkpt>
      <trkpt lat="45.82194" lon="5.4195">
        <ele>205.6</ele>
        <time>2022-09-25T09:12:39Z</time>
      </trkpt>
      <trkpt lat="45.82192" lon="5.41954">
        <ele>205.6</ele>
        <time>2022-09-25T09:12:40Z</time>
      </trkpt>
      <trkpt lat="45.82189" lon="5.41957">
        <ele>205.6</ele>
        <time>2022-09-25T09:12:41Z</time>
      </trkpt>
      <trkpt lat="45.82187" lon="5.41959">
        <ele>205.5</ele>
        <time>2022-09-25T09:12:42Z</time>
      </trkpt>
      <trkpt lat="45.82183" lon="5.41962">
        <ele>205.5</ele>
        <time>2022-09-25T09:12:43Z</time>
      </trkpt>
      <trkpt lat="45.82179" lon="5.41965">
        <ele>205.5</ele>
        <time>2022-09-25T09:12:44Z</time>
      </trkpt>
      <trkpt lat="45.82175" lon="5.41966">
        <ele>205.5</ele>
        <time>2022-09-25T09:12:45Z</time>
      </trkpt>
      <trkpt lat="45.8217" lon="5.41969">
        <ele>205.4</ele>
        <time>2022-09-25T09:12:46Z</time>
      </trkpt>
      <trkpt lat="45.82167" lon="5.41972">
        <ele>205.4</ele>
        <time>2022-09-25T09:12:47Z</time>
      </trkpt>
      <trkpt lat="45.82164" lon="5.41975">
        <ele>205.4</ele>
        <time>2022-09-25T09:12:48Z</time>
      </trkpt>
      <trkpt lat="45.8216" lon="5.41976">
        <ele>205.4</ele>
        <time>2022-09-25T09:12:49Z</time>
      </trkpt>
      <trkpt lat="45.82157" lon="5.41976">
        <ele>205.3</ele>
        <time>2022-09-25T09:12:50Z</time>
      </trkpt>
      <trkpt lat="45.82154" lon="5.41975">
        <ele>205.3</ele>
        <time>2022-09-25T09:12:51Z</time>
      </trkpt>
      <trkpt lat="45.82151" lon="5.41973">
        <ele>205.3</ele>
        <time>2022-09-25T09:12:52Z</time>
      </trkpt>
      <trkpt lat="45.82147" lon="5.4197">
        <ele>205.2</ele>
        <time>2022-09-25T09:12:53Z</time>
      </trkpt>
      <trkpt lat="45.82143" lon="5.41968">
        <ele>205.2</ele>
        <time>2022-09-25T09:12:54Z</time>
      </trkpt>
      <trkpt lat="45.8214" lon="5.41966">
        <ele>205.1</ele>
        <time>2022-09-25T09:12:56Z</time>
      </trkpt>
      <trkpt lat="45.82135" lon="5.41964">
        <ele>205.1</ele>
        <time>2022-09-25T09:12:57Z</time>
      </trkpt>
      <trkpt lat="45.8213" lon="5.41962">
        <ele>205.1</ele>
        <time>2022-09-25T09:12:58Z</time>
      </trkpt>
      <trkpt lat="45.82126" lon="5.4196">
        <ele>205.1</ele>
        <time>2022-09-25T09:12:59Z</time>
      </trkpt>
      <trkpt lat="45.82122" lon="5.41959">
        <ele>205.1</ele>
        <time>2022-09-25T09:13:00Z</time>
      </trkpt>
      <trkpt lat="45.82117" lon="5.41958">
        <ele>205</ele>
        <time>2022-09-25T09:13:01Z</time>
      </trkpt>
      <trkpt lat="45.82114" lon="5.41956">
        <ele>205</ele>
        <time>2022-09-25T09:13:02Z</time>
      </trkpt>
      <trkpt lat="45.82109" lon="5.41955">
        <ele>205</ele>
        <time>2022-09-25T09:13:03Z</time>
      </trkpt>
      <trkpt lat="45.82104" lon="5.41955">
        <ele>205</ele>
        <time>2022-09-25T09:13:04Z</time>
      </trkpt>
      <trkpt lat="45.821" lon="5.41955">
        <ele>204.9</ele>
        <time>2022-09-25T09:13:05Z</time>
      </trkpt>
      <trkpt lat="45.82096" lon="5.41956">
        <ele>204.9</ele>
        <time>2022-09-25T09:13:06Z</time>
      </trkpt>
      <trkpt lat="45.82092" lon="5.41956">
        <ele>204.9</ele>
        <time>2022-09-25T09:13:07Z</time>
      </trkpt>
      <trkpt lat="45.82089" lon="5.41954">
        <ele>204.8</ele>
        <time>2022-09-25T09:13:08Z</time>
      </trkpt>
      <trkpt lat="45.82086" lon="5.41953">
        <ele>204.8</ele>
        <time>2022-09-25T09:13:09Z</time>
      </trkpt>
      <trkpt lat="45.82083" lon="5.41952">
        <ele>204.8</ele>
        <time>2022-09-25T09:13:10Z</time>
      </trkpt>
      <trkpt lat="45.82078" lon="5.4195">
        <ele>204.7</ele>
        <time>2022-09-25T09:13:11Z</time>
      </trkpt>
      <trkpt lat="45.82075" lon="5.41951">
        <ele>204.7</ele>
        <time>2022-09-25T09:13:12Z</time>
      </trkpt>
      <trkpt lat="45.8207" lon="5.41948">
        <ele>204.5</ele>
        <time>2022-09-25T09:13:13Z</time>
      </trkpt>
      <trkpt lat="45.82066" lon="5.41944">
        <ele>204.4</ele>
        <time>2022-09-25T09:13:14Z</time>
      </trkpt>
      <trkpt lat="45.82062" lon="5.41939">
        <ele>204.3</ele>
        <time>2022-09-25T09:13:15Z</time>
      </trkpt>
      <trkpt lat="45.82058" lon="5.41935">
        <ele>204.2</ele>
        <time>2022-09-25T09:13:16Z</time>
      </trkpt>
      <trkpt lat="45.82053" lon="5.4193">
        <ele>204.1</ele>
        <time>2022-09-25T09:13:17Z</time>
      </trkpt>
      <trkpt lat="45.82049" lon="5.41929">
        <ele>204</ele>
        <time>2022-09-25T09:13:18Z</time>
      </trkpt>
      <trkpt lat="45.82043" lon="5.41926">
        <ele>203.8</ele>
        <time>2022-09-25T09:13:19Z</time>
      </trkpt>
      <trkpt lat="45.82038" lon="5.41925">
        <ele>203.7</ele>
        <time>2022-09-25T09:13:20Z</time>
      </trkpt>
      <trkpt lat="45.82033" lon="5.41923">
        <ele>203.6</ele>
        <time>2022-09-25T09:13:21Z</time>
      </trkpt>
      <trkpt lat="45.82027" lon="5.41921">
        <ele>203.5</ele>
        <time>2022-09-25T09:13:22Z</time>
      </trkpt>
      <trkpt lat="45.82022" lon="5.41919">
        <ele>203.5</ele>
        <time>2022-09-25T09:13:23Z</time>
      </trkpt>
      <trkpt lat="45.82017" lon="5.41917">
        <ele>203.4</ele>
        <time>2022-09-25T09:13:24Z</time>
      </trkpt>
      <trkpt lat="45.82012" lon="5.41916">
        <ele>203.4</ele>
        <time>2022-09-25T09:13:25Z</time>
      </trkpt>
      <trkpt lat="45.82006" lon="5.41914">
        <ele>203.3</ele>
        <time>2022-09-25T09:13:26Z</time>
      </trkpt>
      <trkpt lat="45.82001" lon="5.41913">
        <ele>203.3</ele>
        <time>2022-09-25T09:13:27Z</time>
      </trkpt>
      <trkpt lat="45.81996" lon="5.41911">
        <ele>203.3</ele>
        <time>2022-09-25T09:13:28Z</time>
      </trkpt>
      <trkpt lat="45.8199" lon="5.41909">
        <ele>203.2</ele>
        <time>2022-09-25T09:13:29Z</time>
      </trkpt>
      <trkpt lat="45.81985" lon="5.41908">
        <ele>203.2</ele>
        <time>2022-09-25T09:13:30Z</time>
      </trkpt>
      <trkpt lat="45.81981" lon="5.41907">
        <ele>203.2</ele>
        <time>2022-09-25T09:13:31Z</time>
      </trkpt>
      <trkpt lat="45.81976" lon="5.41905">
        <ele>203.2</ele>
        <time>2022-09-25T09:13:32Z</time>
      </trkpt>
      <trkpt lat="45.81971" lon="5.41904">
        <ele>203.2</ele>
        <time>2022-09-25T09:13:33Z</time>
      </trkpt>
      <trkpt lat="45.81966" lon="5.41903">
        <ele>203.2</ele>
        <time>2022-09-25T09:13:34Z</time>
      </trkpt>
      <trkpt lat="45.8196" lon="5.41902">
        <ele>203.2</ele>
        <time>2022-09-25T09:13:35Z</time>
      </trkpt>
      <trkpt lat="45.81956" lon="5.41901">
        <ele>203.2</ele>
        <time>2022-09-25T09:13:36Z</time>
      </trkpt>
      <trkpt lat="45.81951" lon="5.419">
        <ele>203.3</ele>
        <time>2022-09-25T09:13:37Z</time>
      </trkpt>
      <trkpt lat="45.81945" lon="5.41899">
        <ele>203.3</ele>
        <time>2022-09-25T09:13:38Z</time>
      </trkpt>
      <trkpt lat="45.8194" lon="5.41897">
        <ele>203.3</ele>
        <time>2022-09-25T09:13:39Z</time>
      </trkpt>
      <trkpt lat="45.81935" lon="5.41895">
        <ele>203.4</ele>
        <time>2022-09-25T09:13:40Z</time>
      </trkpt>
      <trkpt lat="45.81932" lon="5.41893">
        <ele>203.4</ele>
        <time>2022-09-25T09:13:41Z</time>
      </trkpt>
      <trkpt lat="45.81927" lon="5.41891">
        <ele>203.3</ele>
        <time>2022-09-25T09:13:42Z</time>
      </trkpt>
      <trkpt lat="45.81922" lon="5.41889">
        <ele>203.3</ele>
        <time>2022-09-25T09:13:43Z</time>
      </trkpt>
      <trkpt lat="45.81917" lon="5.41888">
        <ele>203.3</ele>
        <time>2022-09-25T09:13:44Z</time>
      </trkpt>
      <trkpt lat="45.81911" lon="5.41885">
        <ele>203.3</ele>
        <time>2022-09-25T09:13:45Z</time>
      </trkpt>
      <trkpt lat="45.81906" lon="5.41883">
        <ele>203.3</ele>
        <time>2022-09-25T09:13:46Z</time>
      </trkpt>
      <trkpt lat="45.819" lon="5.41881">
        <ele>203.3</ele>
        <time>2022-09-25T09:13:47Z</time>
      </trkpt>
      <trkpt lat="45.81895" lon="5.41878">
        <ele>203.3</ele>
        <time>2022-09-25T09:13:48Z</time>
      </trkpt>
      <trkpt lat="45.8189" lon="5.41876">
        <ele>203.4</ele>
        <time>2022-09-25T09:13:49Z</time>
      </trkpt>
      <trkpt lat="45.81885" lon="5.41873">
        <ele>203.4</ele>
        <time>2022-09-25T09:13:50Z</time>
      </trkpt>
      <trkpt lat="45.81881" lon="5.41869">
        <ele>203.4</ele>
        <time>2022-09-25T09:13:51Z</time>
      </trkpt>
      <trkpt lat="45.81878" lon="5.41865">
        <ele>203.5</ele>
        <time>2022-09-25T09:13:52Z</time>
      </trkpt>
      <trkpt lat="45.81875" lon="5.41859">
        <ele>203.5</ele>
        <time>2022-09-25T09:13:53Z</time>
      </trkpt>
      <trkpt lat="45.81873" lon="5.41853">
        <ele>203.5</ele>
        <time>2022-09-25T09:13:54Z</time>
      </trkpt>
      <trkpt lat="45.81871" lon="5.41846">
        <ele>203.5</ele>
        <time>2022-09-25T09:13:55Z</time>
      </trkpt>
      <trkpt lat="45.81868" lon="5.4184">
        <ele>203.5</ele>
        <time>2022-09-25T09:13:56Z</time>
      </trkpt>
      <trkpt lat="45.81866" lon="5.41835">
        <ele>203.5</ele>
        <time>2022-09-25T09:13:57Z</time>
      </trkpt>
      <trkpt lat="45.81864" lon="5.4183">
        <ele>203.5</ele>
        <time>2022-09-25T09:13:58Z</time>
      </trkpt>
      <trkpt lat="45.81862" lon="5.41825">
        <ele>203.5</ele>
        <time>2022-09-25T09:13:59Z</time>
      </trkpt>
      <trkpt lat="45.81861" lon="5.41821">
        <ele>203.5</ele>
        <time>2022-09-25T09:14:00Z</time>
      </trkpt>
      <trkpt lat="45.81859" lon="5.41815">
        <ele>203.5</ele>
        <time>2022-09-25T09:14:01Z</time>
      </trkpt>
      <trkpt lat="45.81856" lon="5.41809">
        <ele>203.5</ele>
        <time>2022-09-25T09:14:02Z</time>
      </trkpt>
      <trkpt lat="45.81854" lon="5.41806">
        <ele>203.5</ele>
        <time>2022-09-25T09:14:03Z</time>
      </trkpt>
      <trkpt lat="45.81851" lon="5.41804">
        <ele>203.5</ele>
        <time>2022-09-25T09:14:04Z</time>
      </trkpt>
      <trkpt lat="45.81849" lon="5.41803">
        <ele>203.5</ele>
        <time>2022-09-25T09:14:05Z</time>
      </trkpt>
      <trkpt lat="45.81847" lon="5.41798">
        <ele>203.5</ele>
        <time>2022-09-25T09:14:06Z</time>
      </trkpt>
      <trkpt lat="45.81846" lon="5.41797">
        <ele>203.5</ele>
        <time>2022-09-25T09:14:07Z</time>
      </trkpt>
      <trkpt lat="45.81842" lon="5.41788">
        <ele>203.4</ele>
        <time>2022-09-25T09:14:08Z</time>
      </trkpt>
      <trkpt lat="45.8184" lon="5.41784">
        <ele>203.4</ele>
        <time>2022-09-25T09:14:09Z</time>
      </trkpt>
      <trkpt lat="45.81838" lon="5.41777">
        <ele>203.4</ele>
        <time>2022-09-25T09:14:10Z</time>
      </trkpt>
      <trkpt lat="45.81835" lon="5.4177">
        <ele>203.4</ele>
        <time>2022-09-25T09:14:11Z</time>
      </trkpt>
      <trkpt lat="45.81832" lon="5.41763">
        <ele>203.4</ele>
        <time>2022-09-25T09:14:12Z</time>
      </trkpt>
      <trkpt lat="45.8183" lon="5.41758">
        <ele>203.4</ele>
        <time>2022-09-25T09:14:13Z</time>
      </trkpt>
      <trkpt lat="45.81827" lon="5.41752">
        <ele>203.4</ele>
        <time>2022-09-25T09:14:14Z</time>
      </trkpt>
      <trkpt lat="45.81824" lon="5.41746">
        <ele>203.4</ele>
        <time>2022-09-25T09:14:15Z</time>
      </trkpt>
      <trkpt lat="45.81822" lon="5.41743">
        <ele>203.4</ele>
        <time>2022-09-25T09:14:16Z</time>
      </trkpt>
      <trkpt lat="45.8182" lon="5.41736">
        <ele>203.4</ele>
        <time>2022-09-25T09:14:17Z</time>
      </trkpt>
      <trkpt lat="45.81818" lon="5.41732">
        <ele>203.4</ele>
        <time>2022-09-25T09:14:18Z</time>
      </trkpt>
      <trkpt lat="45.81816" lon="5.41727">
        <ele>203.4</ele>
        <time>2022-09-25T09:14:19Z</time>
      </trkpt>
      <trkpt lat="45.81813" lon="5.41723">
        <ele>203.4</ele>
        <time>2022-09-25T09:14:20Z</time>
      </trkpt>
      <trkpt lat="45.81811" lon="5.41719">
        <ele>203.4</ele>
        <time>2022-09-25T09:14:21Z</time>
      </trkpt>
      <trkpt lat="45.81807" lon="5.4172">
        <ele>203.4</ele>
        <time>2022-09-25T09:14:22Z</time>
      </trkpt>
      <trkpt lat="45.81805" lon="5.4172">
        <ele>203.4</ele>
        <time>2022-09-25T09:14:23Z</time>
      </trkpt>
      <trkpt lat="45.818" lon="5.41718">
        <ele>203.4</ele>
        <time>2022-09-25T09:14:24Z</time>
      </trkpt>
      <trkpt lat="45.81796" lon="5.41716">
        <ele>203.4</ele>
        <time>2022-09-25T09:14:25Z</time>
      </trkpt>
      <trkpt lat="45.81795" lon="5.41716">
        <ele>203.4</ele>
        <time>2022-09-25T09:14:26Z</time>
      </trkpt>
      <trkpt lat="45.8179" lon="5.41712">
        <ele>203.4</ele>
        <time>2022-09-25T09:14:27Z</time>
      </trkpt>
      <trkpt lat="45.81787" lon="5.41708">
        <ele>203.4</ele>
        <time>2022-09-25T09:14:28Z</time>
      </trkpt>
      <trkpt lat="45.81783" lon="5.41702">
        <ele>203.4</ele>
        <time>2022-09-25T09:14:29Z</time>
      </trkpt>
      <trkpt lat="45.81782" lon="5.41696">
        <ele>203.4</ele>
        <time>2022-09-25T09:14:30Z</time>
      </trkpt>
      <trkpt lat="45.81779" lon="5.41689">
        <ele>203.4</ele>
        <time>2022-09-25T09:14:31Z</time>
      </trkpt>
      <trkpt lat="45.81778" lon="5.41684">
        <ele>203.3</ele>
        <time>2022-09-25T09:14:32Z</time>
      </trkpt>
      <trkpt lat="45.81777" lon="5.41676">
        <ele>203.3</ele>
        <time>2022-09-25T09:14:33Z</time>
      </trkpt>
      <trkpt lat="45.81777" lon="5.41668">
        <ele>203.3</ele>
        <time>2022-09-25T09:14:34Z</time>
      </trkpt>
      <trkpt lat="45.81777" lon="5.41661">
        <ele>203.3</ele>
        <time>2022-09-25T09:14:35Z</time>
      </trkpt>
      <trkpt lat="45.81776" lon="5.41655">
        <ele>203.3</ele>
        <time>2022-09-25T09:14:36Z</time>
      </trkpt>
      <trkpt lat="45.81774" lon="5.4165">
        <ele>203.3</ele>
        <time>2022-09-25T09:14:37Z</time>
      </trkpt>
      <trkpt lat="45.81771" lon="5.41644">
        <ele>203.4</ele>
        <time>2022-09-25T09:14:38Z</time>
      </trkpt>
      <trkpt lat="45.81767" lon="5.4164">
        <ele>203.4</ele>
        <time>2022-09-25T09:14:39Z</time>
      </trkpt>
      <trkpt lat="45.81764" lon="5.41632">
        <ele>203.4</ele>
        <time>2022-09-25T09:14:40Z</time>
      </trkpt>
      <trkpt lat="45.8176" lon="5.41627">
        <ele>203.5</ele>
        <time>2022-09-25T09:14:41Z</time>
      </trkpt>
      <trkpt lat="45.81757" lon="5.41622">
        <ele>203.5</ele>
        <time>2022-09-25T09:14:42Z</time>
      </trkpt>
      <trkpt lat="45.81753" lon="5.41617">
        <ele>203.6</ele>
        <time>2022-09-25T09:14:43Z</time>
      </trkpt>
      <trkpt lat="45.8175" lon="5.41613">
        <ele>203.6</ele>
        <time>2022-09-25T09:14:44Z</time>
      </trkpt>
      <trkpt lat="45.81746" lon="5.41609">
        <ele>203.6</ele>
        <time>2022-09-25T09:14:45Z</time>
      </trkpt>
      <trkpt lat="45.81742" lon="5.41605">
        <ele>203.6</ele>
        <time>2022-09-25T09:14:46Z</time>
      </trkpt>
      <trkpt lat="45.81737" lon="5.416">
        <ele>203.7</ele>
        <time>2022-09-25T09:14:47Z</time>
      </trkpt>
      <trkpt lat="45.81735" lon="5.41595">
        <ele>203.7</ele>
        <time>2022-09-25T09:14:48Z</time>
      </trkpt>
      <trkpt lat="45.81731" lon="5.41591">
        <ele>203.7</ele>
        <time>2022-09-25T09:14:49Z</time>
      </trkpt>
      <trkpt lat="45.81728" lon="5.41588">
        <ele>203.7</ele>
        <time>2022-09-25T09:14:50Z</time>
      </trkpt>
      <trkpt lat="45.81726" lon="5.41582">
        <ele>203.7</ele>
        <time>2022-09-25T09:14:51Z</time>
      </trkpt>
      <trkpt lat="45.81724" lon="5.41577">
        <ele>203.8</ele>
        <time>2022-09-25T09:14:52Z</time>
      </trkpt>
      <trkpt lat="45.81725" lon="5.41571">
        <ele>203.8</ele>
        <time>2022-09-25T09:14:53Z</time>
      </trkpt>
      <trkpt lat="45.81724" lon="5.41563">
        <ele>203.8</ele>
        <time>2022-09-25T09:14:54Z</time>
      </trkpt>
      <trkpt lat="45.81723" lon="5.41558">
        <ele>203.9</ele>
        <time>2022-09-25T09:14:55Z</time>
      </trkpt>
      <trkpt lat="45.81722" lon="5.41552">
        <ele>203.9</ele>
        <time>2022-09-25T09:14:56Z</time>
      </trkpt>
      <trkpt lat="45.81721" lon="5.41545">
        <ele>204</ele>
        <time>2022-09-25T09:14:57Z</time>
      </trkpt>
      <trkpt lat="45.8172" lon="5.41539">
        <ele>204</ele>
        <time>2022-09-25T09:14:58Z</time>
      </trkpt>
      <trkpt lat="45.81719" lon="5.41532">
        <ele>204.1</ele>
        <time>2022-09-25T09:14:59Z</time>
      </trkpt>
      <trkpt lat="45.81718" lon="5.41527">
        <ele>204.1</ele>
        <time>2022-09-25T09:15:00Z</time>
      </trkpt>
      <trkpt lat="45.81718" lon="5.41521">
        <ele>204.1</ele>
        <time>2022-09-25T09:15:02Z</time>
      </trkpt>
      <trkpt lat="45.81717" lon="5.41515">
        <ele>204.2</ele>
        <time>2022-09-25T09:15:03Z</time>
      </trkpt>
      <trkpt lat="45.81716" lon="5.41508">
        <ele>204.2</ele>
        <time>2022-09-25T09:15:04Z</time>
      </trkpt>
      <trkpt lat="45.81714" lon="5.41502">
        <ele>204.3</ele>
        <time>2022-09-25T09:15:05Z</time>
      </trkpt>
      <trkpt lat="45.81715" lon="5.41497">
        <ele>204.3</ele>
        <time>2022-09-25T09:15:06Z</time>
      </trkpt>
      <trkpt lat="45.81714" lon="5.4149">
        <ele>204.3</ele>
        <time>2022-09-25T09:15:07Z</time>
      </trkpt>
      <trkpt lat="45.81712" lon="5.41484">
        <ele>204.4</ele>
        <time>2022-09-25T09:15:08Z</time>
      </trkpt>
      <trkpt lat="45.81711" lon="5.41477">
        <ele>204.4</ele>
        <time>2022-09-25T09:15:09Z</time>
      </trkpt>
      <trkpt lat="45.81709" lon="5.41471">
        <ele>204.5</ele>
        <time>2022-09-25T09:15:10Z</time>
      </trkpt>
      <trkpt lat="45.81707" lon="5.41466">
        <ele>204.5</ele>
        <time>2022-09-25T09:15:11Z</time>
      </trkpt>
      <trkpt lat="45.81706" lon="5.4146">
        <ele>204.5</ele>
        <time>2022-09-25T09:15:12Z</time>
      </trkpt>
      <trkpt lat="45.81704" lon="5.41454">
        <ele>204.5</ele>
        <time>2022-09-25T09:15:13Z</time>
      </trkpt>
      <trkpt lat="45.81702" lon="5.41447">
        <ele>204.5</ele>
        <time>2022-09-25T09:15:14Z</time>
      </trkpt>
      <trkpt lat="45.81701" lon="5.4144">
        <ele>204.5</ele>
        <time>2022-09-25T09:15:15Z</time>
      </trkpt>
      <trkpt lat="45.81699" lon="5.41434">
        <ele>204.5</ele>
        <time>2022-09-25T09:15:16Z</time>
      </trkpt>
      <trkpt lat="45.81698" lon="5.41428">
        <ele>204.6</ele>
        <time>2022-09-25T09:15:17Z</time>
      </trkpt>
      <trkpt lat="45.81696" lon="5.41421">
        <ele>204.6</ele>
        <time>2022-09-25T09:15:18Z</time>
      </trkpt>
      <trkpt lat="45.81695" lon="5.41414">
        <ele>204.6</ele>
        <time>2022-09-25T09:15:19Z</time>
      </trkpt>
      <trkpt lat="45.81693" lon="5.41408">
        <ele>204.6</ele>
        <time>2022-09-25T09:15:20Z</time>
      </trkpt>
      <trkpt lat="45.81692" lon="5.41402">
        <ele>204.6</ele>
        <time>2022-09-25T09:15:21Z</time>
      </trkpt>
      <trkpt lat="45.8169" lon="5.41396">
        <ele>204.6</ele>
        <time>2022-09-25T09:15:22Z</time>
      </trkpt>
      <trkpt lat="45.81689" lon="5.41389">
        <ele>204.6</ele>
        <time>2022-09-25T09:15:23Z</time>
      </trkpt>
      <trkpt lat="45.81687" lon="5.41383">
        <ele>204.6</ele>
        <time>2022-09-25T09:15:24Z</time>
      </trkpt>
      <trkpt lat="45.81686" lon="5.41377">
        <ele>204.6</ele>
        <time>2022-09-25T09:15:25Z</time>
      </trkpt>
      <trkpt lat="45.81684" lon="5.41371">
        <ele>204.7</ele>
        <time>2022-09-25T09:15:26Z</time>
      </trkpt>
      <trkpt lat="45.81682" lon="5.41364">
        <ele>204.7</ele>
        <time>2022-09-25T09:15:27Z</time>
      </trkpt>
      <trkpt lat="45.81681" lon="5.41358">
        <ele>204.7</ele>
        <time>2022-09-25T09:15:28Z</time>
      </trkpt>
      <trkpt lat="45.8168" lon="5.41352">
        <ele>204.8</ele>
        <time>2022-09-25T09:15:29Z</time>
      </trkpt>
      <trkpt lat="45.81678" lon="5.41345">
        <ele>204.8</ele>
        <time>2022-09-25T09:15:30Z</time>
      </trkpt>
      <trkpt lat="45.81676" lon="5.41338">
        <ele>204.9</ele>
        <time>2022-09-25T09:15:31Z</time>
      </trkpt>
      <trkpt lat="45.81675" lon="5.41332">
        <ele>205</ele>
        <time>2022-09-25T09:15:32Z</time>
      </trkpt>
      <trkpt lat="45.81674" lon="5.41327">
        <ele>205</ele>
        <time>2022-09-25T09:15:33Z</time>
      </trkpt>
      <trkpt lat="45.81672" lon="5.41321">
        <ele>205.1</ele>
        <time>2022-09-25T09:15:34Z</time>
      </trkpt>
      <trkpt lat="45.8167" lon="5.41314">
        <ele>205.2</ele>
        <time>2022-09-25T09:15:35Z</time>
      </trkpt>
      <trkpt lat="45.81668" lon="5.41309">
        <ele>205.3</ele>
        <time>2022-09-25T09:15:36Z</time>
      </trkpt>
      <trkpt lat="45.81667" lon="5.41305">
        <ele>205.3</ele>
        <time>2022-09-25T09:15:37Z</time>
      </trkpt>
      <trkpt lat="45.81665" lon="5.41297">
        <ele>205.5</ele>
        <time>2022-09-25T09:15:38Z</time>
      </trkpt>
      <trkpt lat="45.81664" lon="5.41291">
        <ele>205.6</ele>
        <time>2022-09-25T09:15:39Z</time>
      </trkpt>
      <trkpt lat="45.81662" lon="5.41285">
        <ele>205.7</ele>
        <time>2022-09-25T09:15:40Z</time>
      </trkpt>
      <trkpt lat="45.81661" lon="5.41279">
        <ele>205.9</ele>
        <time>2022-09-25T09:15:41Z</time>
      </trkpt>
      <trkpt lat="45.8166" lon="5.41274">
        <ele>206</ele>
        <time>2022-09-25T09:15:42Z</time>
      </trkpt>
      <trkpt lat="45.81658" lon="5.41268">
        <ele>206.1</ele>
        <time>2022-09-25T09:15:43Z</time>
      </trkpt>
      <trkpt lat="45.81657" lon="5.41262">
        <ele>206.3</ele>
        <time>2022-09-25T09:15:44Z</time>
      </trkpt>
      <trkpt lat="45.81655" lon="5.41256">
        <ele>206.4</ele>
        <time>2022-09-25T09:15:45Z</time>
      </trkpt>
      <trkpt lat="45.81654" lon="5.41251">
        <ele>206.6</ele>
        <time>2022-09-25T09:15:46Z</time>
      </trkpt>
      <trkpt lat="45.81652" lon="5.41245">
        <ele>206.7</ele>
        <time>2022-09-25T09:15:47Z</time>
      </trkpt>
      <trkpt lat="45.81651" lon="5.41239">
        <ele>206.8</ele>
        <time>2022-09-25T09:15:48Z</time>
      </trkpt>
      <trkpt lat="45.8165" lon="5.41233">
        <ele>207</ele>
        <time>2022-09-25T09:15:49Z</time>
      </trkpt>
      <trkpt lat="45.81648" lon="5.41226">
        <ele>207.1</ele>
        <time>2022-09-25T09:15:50Z</time>
      </trkpt>
      <trkpt lat="45.81647" lon="5.41222">
        <ele>207.2</ele>
        <time>2022-09-25T09:15:51Z</time>
      </trkpt>
      <trkpt lat="45.81645" lon="5.41217">
        <ele>207.3</ele>
        <time>2022-09-25T09:15:52Z</time>
      </trkpt>
      <trkpt lat="45.81643" lon="5.41215">
        <ele>207.4</ele>
        <time>2022-09-25T09:15:53Z</time>
      </trkpt>
      <trkpt lat="45.8164" lon="5.41211">
        <ele>207.4</ele>
        <time>2022-09-25T09:15:54Z</time>
      </trkpt>
      <trkpt lat="45.81636" lon="5.41208">
        <ele>207.4</ele>
        <time>2022-09-25T09:15:55Z</time>
      </trkpt>
      <trkpt lat="45.81632" lon="5.41205">
        <ele>207.4</ele>
        <time>2022-09-25T09:15:56Z</time>
      </trkpt>
      <trkpt lat="45.81629" lon="5.41202">
        <ele>207.4</ele>
        <time>2022-09-25T09:15:57Z</time>
      </trkpt>
      <trkpt lat="45.81624" lon="5.41199">
        <ele>207.4</ele>
        <time>2022-09-25T09:15:58Z</time>
      </trkpt>
      <trkpt lat="45.8162" lon="5.41196">
        <ele>207.3</ele>
        <time>2022-09-25T09:15:59Z</time>
      </trkpt>
      <trkpt lat="45.81615" lon="5.41193">
        <ele>207.3</ele>
        <time>2022-09-25T09:16:00Z</time>
      </trkpt>
      <trkpt lat="45.8161" lon="5.4119">
        <ele>207.4</ele>
        <time>2022-09-25T09:16:01Z</time>
      </trkpt>
      <trkpt lat="45.81606" lon="5.41187">
        <ele>207.4</ele>
        <time>2022-09-25T09:16:02Z</time>
      </trkpt>
      <trkpt lat="45.81601" lon="5.41185">
        <ele>207.4</ele>
        <time>2022-09-25T09:16:03Z</time>
      </trkpt>
      <trkpt lat="45.81596" lon="5.41182">
        <ele>207.4</ele>
        <time>2022-09-25T09:16:04Z</time>
      </trkpt>
      <trkpt lat="45.81591" lon="5.41179">
        <ele>207.5</ele>
        <time>2022-09-25T09:16:05Z</time>
      </trkpt>
      <trkpt lat="45.81586" lon="5.41177">
        <ele>207.5</ele>
        <time>2022-09-25T09:16:06Z</time>
      </trkpt>
      <trkpt lat="45.81582" lon="5.41175">
        <ele>207.6</ele>
        <time>2022-09-25T09:16:07Z</time>
      </trkpt>
      <trkpt lat="45.81578" lon="5.41174">
        <ele>207.6</ele>
        <time>2022-09-25T09:16:08Z</time>
      </trkpt>
      <trkpt lat="45.81574" lon="5.41172">
        <ele>207.7</ele>
        <time>2022-09-25T09:16:09Z</time>
      </trkpt>
      <trkpt lat="45.81569" lon="5.41171">
        <ele>207.7</ele>
        <time>2022-09-25T09:16:10Z</time>
      </trkpt>
      <trkpt lat="45.81564" lon="5.4117">
        <ele>207.8</ele>
        <time>2022-09-25T09:16:11Z</time>
      </trkpt>
      <trkpt lat="45.81559" lon="5.41169">
        <ele>207.8</ele>
        <time>2022-09-25T09:16:12Z</time>
      </trkpt>
      <trkpt lat="45.81555" lon="5.41169">
        <ele>207.9</ele>
        <time>2022-09-25T09:16:13Z</time>
      </trkpt>
      <trkpt lat="45.81551" lon="5.41168">
        <ele>207.9</ele>
        <time>2022-09-25T09:16:14Z</time>
      </trkpt>
      <trkpt lat="45.81546" lon="5.41166">
        <ele>208</ele>
        <time>2022-09-25T09:16:15Z</time>
      </trkpt>
      <trkpt lat="45.81537" lon="5.41165">
        <ele>208.2</ele>
        <time>2022-09-25T09:16:16Z</time>
      </trkpt>
      <trkpt lat="45.81533" lon="5.41164">
        <ele>208.3</ele>
        <time>2022-09-25T09:16:17Z</time>
      </trkpt>
      <trkpt lat="45.81529" lon="5.41164">
        <ele>208.4</ele>
        <time>2022-09-25T09:16:18Z</time>
      </trkpt>
      <trkpt lat="45.81524" lon="5.41163">
        <ele>208.5</ele>
        <time>2022-09-25T09:16:19Z</time>
      </trkpt>
      <trkpt lat="45.8152" lon="5.41163">
        <ele>208.5</ele>
        <time>2022-09-25T09:16:20Z</time>
      </trkpt>
      <trkpt lat="45.81516" lon="5.41162">
        <ele>208.6</ele>
        <time>2022-09-25T09:16:21Z</time>
      </trkpt>
      <trkpt lat="45.8151" lon="5.41163">
        <ele>208.7</ele>
        <time>2022-09-25T09:16:22Z</time>
      </trkpt>
      <trkpt lat="45.81506" lon="5.41163">
        <ele>208.8</ele>
        <time>2022-09-25T09:16:23Z</time>
      </trkpt>
      <trkpt lat="45.81502" lon="5.41163">
        <ele>208.9</ele>
        <time>2022-09-25T09:16:24Z</time>
      </trkpt>
      <trkpt lat="45.81497" lon="5.41163">
        <ele>209</ele>
        <time>2022-09-25T09:16:25Z</time>
      </trkpt>
      <trkpt lat="45.81493" lon="5.41162">
        <ele>209.1</ele>
        <time>2022-09-25T09:16:26Z</time>
      </trkpt>
      <trkpt lat="45.81488" lon="5.41161">
        <ele>209.1</ele>
        <time>2022-09-25T09:16:27Z</time>
      </trkpt>
      <trkpt lat="45.81485" lon="5.41159">
        <ele>209.1</ele>
        <time>2022-09-25T09:16:28Z</time>
      </trkpt>
      <trkpt lat="45.81481" lon="5.41159">
        <ele>209.1</ele>
        <time>2022-09-25T09:16:29Z</time>
      </trkpt>
      <trkpt lat="45.81476" lon="5.41159">
        <ele>209.1</ele>
        <time>2022-09-25T09:16:30Z</time>
      </trkpt>
      <trkpt lat="45.81472" lon="5.41159">
        <ele>209</ele>
        <time>2022-09-25T09:16:31Z</time>
      </trkpt>
      <trkpt lat="45.81467" lon="5.41159">
        <ele>208.9</ele>
        <time>2022-09-25T09:16:32Z</time>
      </trkpt>
      <trkpt lat="45.81463" lon="5.41156">
        <ele>208.7</ele>
        <time>2022-09-25T09:16:33Z</time>
      </trkpt>
      <trkpt lat="45.81459" lon="5.41153">
        <ele>208.6</ele>
        <time>2022-09-25T09:16:34Z</time>
      </trkpt>
      <trkpt lat="45.81456" lon="5.41146">
        <ele>208.5</ele>
        <time>2022-09-25T09:16:35Z</time>
      </trkpt>
      <trkpt lat="45.81453" lon="5.4114">
        <ele>208.3</ele>
        <time>2022-09-25T09:16:36Z</time>
      </trkpt>
      <trkpt lat="45.81449" lon="5.41134">
        <ele>208.1</ele>
        <time>2022-09-25T09:16:37Z</time>
      </trkpt>
      <trkpt lat="45.81446" lon="5.41129">
        <ele>208</ele>
        <time>2022-09-25T09:16:38Z</time>
      </trkpt>
      <trkpt lat="45.81443" lon="5.41123">
        <ele>207.8</ele>
        <time>2022-09-25T09:16:39Z</time>
      </trkpt>
      <trkpt lat="45.81439" lon="5.41117">
        <ele>207.7</ele>
        <time>2022-09-25T09:16:40Z</time>
      </trkpt>
      <trkpt lat="45.81436" lon="5.41111">
        <ele>207.6</ele>
        <time>2022-09-25T09:16:41Z</time>
      </trkpt>
      <trkpt lat="45.81434" lon="5.41105">
        <ele>207.5</ele>
        <time>2022-09-25T09:16:42Z</time>
      </trkpt>
      <trkpt lat="45.81432" lon="5.41102">
        <ele>207.4</ele>
        <time>2022-09-25T09:16:43Z</time>
      </trkpt>
      <trkpt lat="45.81431" lon="5.41101">
        <ele>207.4</ele>
        <time>2022-09-25T09:16:44Z</time>
      </trkpt>
      <trkpt lat="45.81429" lon="5.41102">
        <ele>207.4</ele>
        <time>2022-09-25T09:16:45Z</time>
      </trkpt>
      <trkpt lat="45.81428" lon="5.41103">
        <ele>207.3</ele>
        <time>2022-09-25T09:16:46Z</time>
      </trkpt>
      <trkpt lat="45.81428" lon="5.41106">
        <ele>207.3</ele>
        <time>2022-09-25T09:16:47Z</time>
      </trkpt>
      <trkpt lat="45.81428" lon="5.41111">
        <ele>206.6</ele>
        <time>2022-09-25T09:16:48Z</time>
      </trkpt>
      <trkpt lat="45.8143" lon="5.41116">
        <ele>206.5</ele>
        <time>2022-09-25T09:16:49Z</time>
      </trkpt>
      <trkpt lat="45.81432" lon="5.41119">
        <ele>206.5</ele>
        <time>2022-09-25T09:16:50Z</time>
      </trkpt>
      <trkpt lat="45.81434" lon="5.41123">
        <ele>206.4</ele>
        <time>2022-09-25T09:16:51Z</time>
      </trkpt>
      <trkpt lat="45.81437" lon="5.41127">
        <ele>206.4</ele>
        <time>2022-09-25T09:16:52Z</time>
      </trkpt>
      <trkpt lat="45.8144" lon="5.41133">
        <ele>206.3</ele>
        <time>2022-09-25T09:16:53Z</time>
      </trkpt>
      <trkpt lat="45.81443" lon="5.41139">
        <ele>206.3</ele>
        <time>2022-09-25T09:16:54Z</time>
      </trkpt>
      <trkpt lat="45.81445" lon="5.41146">
        <ele>206.2</ele>
        <time>2022-09-25T09:16:55Z</time>
      </trkpt>
      <trkpt lat="45.81448" lon="5.41152">
        <ele>206.2</ele>
        <time>2022-09-25T09:16:56Z</time>
      </trkpt>
      <trkpt lat="45.81452" lon="5.41157">
        <ele>206.2</ele>
        <time>2022-09-25T09:16:57Z</time>
      </trkpt>
      <trkpt lat="45.81456" lon="5.41162">
        <ele>206.2</ele>
        <time>2022-09-25T09:16:58Z</time>
      </trkpt>
      <trkpt lat="45.8146" lon="5.41167">
        <ele>206.1</ele>
        <time>2022-09-25T09:16:59Z</time>
      </trkpt>
      <trkpt lat="45.81464" lon="5.41171">
        <ele>206.1</ele>
        <time>2022-09-25T09:17:00Z</time>
      </trkpt>
      <trkpt lat="45.81467" lon="5.41175">
        <ele>206.1</ele>
        <time>2022-09-25T09:17:01Z</time>
      </trkpt>
      <trkpt lat="45.8147" lon="5.4118">
        <ele>206.1</ele>
        <time>2022-09-25T09:17:02Z</time>
      </trkpt>
      <trkpt lat="45.81474" lon="5.41185">
        <ele>206.1</ele>
        <time>2022-09-25T09:17:03Z</time>
      </trkpt>
      <trkpt lat="45.81477" lon="5.4119">
        <ele>206</ele>
        <time>2022-09-25T09:17:04Z</time>
      </trkpt>
      <trkpt lat="45.81481" lon="5.41196">
        <ele>205.9</ele>
        <time>2022-09-25T09:17:05Z</time>
      </trkpt>
      <trkpt lat="45.81484" lon="5.41203">
        <ele>205.8</ele>
        <time>2022-09-25T09:17:06Z</time>
      </trkpt>
      <trkpt lat="45.81486" lon="5.41209">
        <ele>205.7</ele>
        <time>2022-09-25T09:17:08Z</time>
      </trkpt>
      <trkpt lat="45.81489" lon="5.41216">
        <ele>205.7</ele>
        <time>2022-09-25T09:17:09Z</time>
      </trkpt>
      <trkpt lat="45.81491" lon="5.41222">
        <ele>205.7</ele>
        <time>2022-09-25T09:17:10Z</time>
      </trkpt>
      <trkpt lat="45.81492" lon="5.41227">
        <ele>205.6</ele>
        <time>2022-09-25T09:17:11Z</time>
      </trkpt>
      <trkpt lat="45.81491" lon="5.41232">
        <ele>205.6</ele>
        <time>2022-09-25T09:17:12Z</time>
      </trkpt>
      <trkpt lat="45.8149" lon="5.41238">
        <ele>205.6</ele>
        <time>2022-09-25T09:17:13Z</time>
      </trkpt>
      <trkpt lat="45.8149" lon="5.4124">
        <ele>205.5</ele>
        <time>2022-09-25T09:17:14Z</time>
      </trkpt>
      <trkpt lat="45.81489" lon="5.41248">
        <ele>205.5</ele>
        <time>2022-09-25T09:17:15Z</time>
      </trkpt>
      <trkpt lat="45.81489" lon="5.41253">
        <ele>205.4</ele>
        <time>2022-09-25T09:17:16Z</time>
      </trkpt>
      <trkpt lat="45.81489" lon="5.41261">
        <ele>205.3</ele>
        <time>2022-09-25T09:17:17Z</time>
      </trkpt>
      <trkpt lat="45.81489" lon="5.41268">
        <ele>205.3</ele>
        <time>2022-09-25T09:17:18Z</time>
      </trkpt>
      <trkpt lat="45.81488" lon="5.41276">
        <ele>205.2</ele>
        <time>2022-09-25T09:17:19Z</time>
      </trkpt>
      <trkpt lat="45.81488" lon="5.41281">
        <ele>205.2</ele>
        <time>2022-09-25T09:17:20Z</time>
      </trkpt>
      <trkpt lat="45.81488" lon="5.4129">
        <ele>205.1</ele>
        <time>2022-09-25T09:17:21Z</time>
      </trkpt>
      <trkpt lat="45.81488" lon="5.41298">
        <ele>205.1</ele>
        <time>2022-09-25T09:17:22Z</time>
      </trkpt>
      <trkpt lat="45.81487" lon="5.41305">
        <ele>205.2</ele>
        <time>2022-09-25T09:17:23Z</time>
      </trkpt>
      <trkpt lat="45.81487" lon="5.41311">
        <ele>205.2</ele>
        <time>2022-09-25T09:17:24Z</time>
      </trkpt>
      <trkpt lat="45.81487" lon="5.41318">
        <ele>205.4</ele>
        <time>2022-09-25T09:17:25Z</time>
      </trkpt>
      <trkpt lat="45.81487" lon="5.41325">
        <ele>205.5</ele>
        <time>2022-09-25T09:17:26Z</time>
      </trkpt>
      <trkpt lat="45.81486" lon="5.41333">
        <ele>205.7</ele>
        <time>2022-09-25T09:17:27Z</time>
      </trkpt>
      <trkpt lat="45.81487" lon="5.41338">
        <ele>205.8</ele>
        <time>2022-09-25T09:17:28Z</time>
      </trkpt>
      <trkpt lat="45.81486" lon="5.41345">
        <ele>206</ele>
        <time>2022-09-25T09:17:29Z</time>
      </trkpt>
      <trkpt lat="45.81486" lon="5.41351">
        <ele>206.3</ele>
        <time>2022-09-25T09:17:30Z</time>
      </trkpt>
      <trkpt lat="45.81485" lon="5.41357">
        <ele>206.6</ele>
        <time>2022-09-25T09:17:31Z</time>
      </trkpt>
      <trkpt lat="45.81484" lon="5.41361">
        <ele>206.7</ele>
        <time>2022-09-25T09:17:32Z</time>
      </trkpt>
      <trkpt lat="45.81483" lon="5.41367">
        <ele>207.1</ele>
        <time>2022-09-25T09:17:33Z</time>
      </trkpt>
      <trkpt lat="45.81481" lon="5.41372">
        <ele>207.4</ele>
        <time>2022-09-25T09:17:34Z</time>
      </trkpt>
      <trkpt lat="45.8148" lon="5.41377">
        <ele>207.8</ele>
        <time>2022-09-25T09:17:35Z</time>
      </trkpt>
      <trkpt lat="45.81479" lon="5.41381">
        <ele>208</ele>
        <time>2022-09-25T09:17:36Z</time>
      </trkpt>
      <trkpt lat="45.81475" lon="5.41385">
        <ele>208.4</ele>
        <time>2022-09-25T09:17:37Z</time>
      </trkpt>
      <trkpt lat="45.81473" lon="5.41391">
        <ele>208.8</ele>
        <time>2022-09-25T09:17:38Z</time>
      </trkpt>
      <trkpt lat="45.81472" lon="5.41395">
        <ele>209.1</ele>
        <time>2022-09-25T09:17:39Z</time>
      </trkpt>
      <trkpt lat="45.8147" lon="5.41399">
        <ele>209.5</ele>
        <time>2022-09-25T09:17:40Z</time>
      </trkpt>
      <trkpt lat="45.81468" lon="5.41404">
        <ele>209.8</ele>
        <time>2022-09-25T09:17:41Z</time>
      </trkpt>
      <trkpt lat="45.81466" lon="5.41408">
        <ele>210.2</ele>
        <time>2022-09-25T09:17:42Z</time>
      </trkpt>
      <trkpt lat="45.81463" lon="5.41412">
        <ele>210.5</ele>
        <time>2022-09-25T09:17:43Z</time>
      </trkpt>
      <trkpt lat="45.81461" lon="5.41415">
        <ele>210.8</ele>
        <time>2022-09-25T09:17:44Z</time>
      </trkpt>
      <trkpt lat="45.81458" lon="5.41418">
        <ele>211.1</ele>
        <time>2022-09-25T09:17:45Z</time>
      </trkpt>
      <trkpt lat="45.81455" lon="5.41421">
        <ele>211.4</ele>
        <time>2022-09-25T09:17:46Z</time>
      </trkpt>
      <trkpt lat="45.81452" lon="5.41423">
        <ele>211.7</ele>
        <time>2022-09-25T09:17:47Z</time>
      </trkpt>
      <trkpt lat="45.81449" lon="5.41425">
        <ele>211.9</ele>
        <time>2022-09-25T09:17:48Z</time>
      </trkpt>
      <trkpt lat="45.81446" lon="5.41428">
        <ele>212.1</ele>
        <time>2022-09-25T09:17:49Z</time>
      </trkpt>
      <trkpt lat="45.81443" lon="5.4143">
        <ele>212.3</ele>
        <time>2022-09-25T09:17:50Z</time>
      </trkpt>
      <trkpt lat="45.8144" lon="5.41432">
        <ele>212.5</ele>
        <time>2022-09-25T09:17:51Z</time>
      </trkpt>
      <trkpt lat="45.81437" lon="5.41435">
        <ele>212.7</ele>
        <time>2022-09-25T09:17:52Z</time>
      </trkpt>
      <trkpt lat="45.81434" lon="5.41437">
        <ele>212.9</ele>
        <time>2022-09-25T09:17:53Z</time>
      </trkpt>
      <trkpt lat="45.81431" lon="5.41439">
        <ele>213</ele>
        <time>2022-09-25T09:17:54Z</time>
      </trkpt>
      <trkpt lat="45.81428" lon="5.41441">
        <ele>213.2</ele>
        <time>2022-09-25T09:17:55Z</time>
      </trkpt>
      <trkpt lat="45.81425" lon="5.41444">
        <ele>213.3</ele>
        <time>2022-09-25T09:17:56Z</time>
      </trkpt>
      <trkpt lat="45.81423" lon="5.41446">
        <ele>213.4</ele>
        <time>2022-09-25T09:17:57Z</time>
      </trkpt>
      <trkpt lat="45.8142" lon="5.41448">
        <ele>213.5</ele>
        <time>2022-09-25T09:17:58Z</time>
      </trkpt>
      <trkpt lat="45.81417" lon="5.4145">
        <ele>213.6</ele>
        <time>2022-09-25T09:17:59Z</time>
      </trkpt>
      <trkpt lat="45.81414" lon="5.41452">
        <ele>213.7</ele>
        <time>2022-09-25T09:18:00Z</time>
      </trkpt>
      <trkpt lat="45.81412" lon="5.41455">
        <ele>213.8</ele>
        <time>2022-09-25T09:18:01Z</time>
      </trkpt>
      <trkpt lat="45.81409" lon="5.41457">
        <ele>213.9</ele>
        <time>2022-09-25T09:18:02Z</time>
      </trkpt>
      <trkpt lat="45.81406" lon="5.4146">
        <ele>214</ele>
        <time>2022-09-25T09:18:03Z</time>
      </trkpt>
      <trkpt lat="45.81403" lon="5.41462">
        <ele>214.1</ele>
        <time>2022-09-25T09:18:04Z</time>
      </trkpt>
      <trkpt lat="45.814" lon="5.41465">
        <ele>214.2</ele>
        <time>2022-09-25T09:18:05Z</time>
      </trkpt>
      <trkpt lat="45.81397" lon="5.41468">
        <ele>214.3</ele>
        <time>2022-09-25T09:18:06Z</time>
      </trkpt>
      <trkpt lat="45.81395" lon="5.4147">
        <ele>214.4</ele>
        <time>2022-09-25T09:18:07Z</time>
      </trkpt>
      <trkpt lat="45.81391" lon="5.41473">
        <ele>214.5</ele>
        <time>2022-09-25T09:18:08Z</time>
      </trkpt>
      <trkpt lat="45.81388" lon="5.41475">
        <ele>214.6</ele>
        <time>2022-09-25T09:18:09Z</time>
      </trkpt>
      <trkpt lat="45.81385" lon="5.41477">
        <ele>214.7</ele>
        <time>2022-09-25T09:18:10Z</time>
      </trkpt>
      <trkpt lat="45.81383" lon="5.41479">
        <ele>214.8</ele>
        <time>2022-09-25T09:18:11Z</time>
      </trkpt>
      <trkpt lat="45.8138" lon="5.41481">
        <ele>214.9</ele>
        <time>2022-09-25T09:18:12Z</time>
      </trkpt>
      <trkpt lat="45.81377" lon="5.41484">
        <ele>214.9</ele>
        <time>2022-09-25T09:18:13Z</time>
      </trkpt>
      <trkpt lat="45.81374" lon="5.41487">
        <ele>215</ele>
        <time>2022-09-25T09:18:14Z</time>
      </trkpt>
      <trkpt lat="45.81371" lon="5.41489">
        <ele>215.1</ele>
        <time>2022-09-25T09:18:15Z</time>
      </trkpt>
      <trkpt lat="45.81368" lon="5.41491">
        <ele>215.2</ele>
        <time>2022-09-25T09:18:16Z</time>
      </trkpt>
      <trkpt lat="45.81365" lon="5.41494">
        <ele>215.3</ele>
        <time>2022-09-25T09:18:17Z</time>
      </trkpt>
      <trkpt lat="45.81362" lon="5.41496">
        <ele>215.4</ele>
        <time>2022-09-25T09:18:18Z</time>
      </trkpt>
      <trkpt lat="45.81359" lon="5.41498">
        <ele>215.5</ele>
        <time>2022-09-25T09:18:19Z</time>
      </trkpt>
      <trkpt lat="45.81356" lon="5.415">
        <ele>215.5</ele>
        <time>2022-09-25T09:18:20Z</time>
      </trkpt>
      <trkpt lat="45.81353" lon="5.41503">
        <ele>215.6</ele>
        <time>2022-09-25T09:18:21Z</time>
      </trkpt>
      <trkpt lat="45.8135" lon="5.41506">
        <ele>215.7</ele>
        <time>2022-09-25T09:18:22Z</time>
      </trkpt>
      <trkpt lat="45.81346" lon="5.41508">
        <ele>215.7</ele>
        <time>2022-09-25T09:18:23Z</time>
      </trkpt>
      <trkpt lat="45.81343" lon="5.4151">
        <ele>215.8</ele>
        <time>2022-09-25T09:18:24Z</time>
      </trkpt>
      <trkpt lat="45.81336" lon="5.41515">
        <ele>215.9</ele>
        <time>2022-09-25T09:18:25Z</time>
      </trkpt>
      <trkpt lat="45.81333" lon="5.41517">
        <ele>216</ele>
        <time>2022-09-25T09:18:26Z</time>
      </trkpt>
      <trkpt lat="45.8133" lon="5.4152">
        <ele>216</ele>
        <time>2022-09-25T09:18:27Z</time>
      </trkpt>
      <trkpt lat="45.81327" lon="5.41523">
        <ele>216.1</ele>
        <time>2022-09-25T09:18:28Z</time>
      </trkpt>
      <trkpt lat="45.81323" lon="5.41525">
        <ele>216.1</ele>
        <time>2022-09-25T09:18:29Z</time>
      </trkpt>
      <trkpt lat="45.8132" lon="5.41528">
        <ele>216.1</ele>
        <time>2022-09-25T09:18:30Z</time>
      </trkpt>
      <trkpt lat="45.81316" lon="5.4153">
        <ele>216.1</ele>
        <time>2022-09-25T09:18:31Z</time>
      </trkpt>
      <trkpt lat="45.81313" lon="5.41533">
        <ele>216.2</ele>
        <time>2022-09-25T09:18:32Z</time>
      </trkpt>
      <trkpt lat="45.8131" lon="5.41536">
        <ele>216.2</ele>
        <time>2022-09-25T09:18:33Z</time>
      </trkpt>
      <trkpt lat="45.81306" lon="5.4154">
        <ele>216.2</ele>
        <time>2022-09-25T09:18:34Z</time>
      </trkpt>
      <trkpt lat="45.81302" lon="5.41543">
        <ele>216.2</ele>
        <time>2022-09-25T09:18:35Z</time>
      </trkpt>
      <trkpt lat="45.81299" lon="5.41546">
        <ele>216.2</ele>
        <time>2022-09-25T09:18:36Z</time>
      </trkpt>
      <trkpt lat="45.81295" lon="5.41549">
        <ele>216.2</ele>
        <time>2022-09-25T09:18:37Z</time>
      </trkpt>
      <trkpt lat="45.81291" lon="5.41553">
        <ele>216.2</ele>
        <time>2022-09-25T09:18:38Z</time>
      </trkpt>
      <trkpt lat="45.81288" lon="5.41556">
        <ele>216.2</ele>
        <time>2022-09-25T09:18:39Z</time>
      </trkpt>
      <trkpt lat="45.81284" lon="5.41558">
        <ele>216.2</ele>
        <time>2022-09-25T09:18:40Z</time>
      </trkpt>
      <trkpt lat="45.8128" lon="5.41561">
        <ele>216.2</ele>
        <time>2022-09-25T09:18:41Z</time>
      </trkpt>
      <trkpt lat="45.81276" lon="5.41563">
        <ele>216.2</ele>
        <time>2022-09-25T09:18:42Z</time>
      </trkpt>
      <trkpt lat="45.81272" lon="5.41565">
        <ele>216.2</ele>
        <time>2022-09-25T09:18:43Z</time>
      </trkpt>
      <trkpt lat="45.81268" lon="5.41568">
        <ele>216.2</ele>
        <time>2022-09-25T09:18:44Z</time>
      </trkpt>
      <trkpt lat="45.81264" lon="5.4157">
        <ele>216.2</ele>
        <time>2022-09-25T09:18:45Z</time>
      </trkpt>
      <trkpt lat="45.81259" lon="5.41573">
        <ele>216.2</ele>
        <time>2022-09-25T09:18:46Z</time>
      </trkpt>
      <trkpt lat="45.81255" lon="5.41575">
        <ele>216.1</ele>
        <time>2022-09-25T09:18:47Z</time>
      </trkpt>
      <trkpt lat="45.8125" lon="5.41577">
        <ele>216.1</ele>
        <time>2022-09-25T09:18:48Z</time>
      </trkpt>
      <trkpt lat="45.81246" lon="5.41579">
        <ele>216</ele>
        <time>2022-09-25T09:18:49Z</time>
      </trkpt>
      <trkpt lat="45.81241" lon="5.41582">
        <ele>216</ele>
        <time>2022-09-25T09:18:50Z</time>
      </trkpt>
      <trkpt lat="45.81236" lon="5.41584">
        <ele>215.9</ele>
        <time>2022-09-25T09:18:51Z</time>
      </trkpt>
      <trkpt lat="45.81231" lon="5.41586">
        <ele>215.9</ele>
        <time>2022-09-25T09:18:52Z</time>
      </trkpt>
      <trkpt lat="45.81227" lon="5.41589">
        <ele>215.8</ele>
        <time>2022-09-25T09:18:53Z</time>
      </trkpt>
      <trkpt lat="45.81222" lon="5.41592">
        <ele>215.8</ele>
        <time>2022-09-25T09:18:54Z</time>
      </trkpt>
      <trkpt lat="45.81217" lon="5.41595">
        <ele>215.8</ele>
        <time>2022-09-25T09:18:55Z</time>
      </trkpt>
      <trkpt lat="45.81212" lon="5.41598">
        <ele>215.7</ele>
        <time>2022-09-25T09:18:56Z</time>
      </trkpt>
      <trkpt lat="45.81207" lon="5.41601">
        <ele>215.7</ele>
        <time>2022-09-25T09:18:57Z</time>
      </trkpt>
      <trkpt lat="45.81202" lon="5.41605">
        <ele>215.7</ele>
        <time>2022-09-25T09:18:58Z</time>
      </trkpt>
      <trkpt lat="45.81198" lon="5.41608">
        <ele>215.7</ele>
        <time>2022-09-25T09:18:59Z</time>
      </trkpt>
      <trkpt lat="45.81193" lon="5.4161">
        <ele>215.6</ele>
        <time>2022-09-25T09:19:00Z</time>
      </trkpt>
      <trkpt lat="45.81188" lon="5.41613">
        <ele>215.6</ele>
        <time>2022-09-25T09:19:01Z</time>
      </trkpt>
      <trkpt lat="45.81184" lon="5.41615">
        <ele>215.6</ele>
        <time>2022-09-25T09:19:02Z</time>
      </trkpt>
      <trkpt lat="45.81178" lon="5.41618">
        <ele>215.6</ele>
        <time>2022-09-25T09:19:03Z</time>
      </trkpt>
      <trkpt lat="45.81173" lon="5.41621">
        <ele>215.6</ele>
        <time>2022-09-25T09:19:04Z</time>
      </trkpt>
      <trkpt lat="45.81168" lon="5.41623">
        <ele>215.6</ele>
        <time>2022-09-25T09:19:05Z</time>
      </trkpt>
      <trkpt lat="45.81163" lon="5.41626">
        <ele>215.6</ele>
        <time>2022-09-25T09:19:06Z</time>
      </trkpt>
      <trkpt lat="45.81158" lon="5.41629">
        <ele>215.6</ele>
        <time>2022-09-25T09:19:07Z</time>
      </trkpt>
      <trkpt lat="45.81153" lon="5.41631">
        <ele>215.7</ele>
        <time>2022-09-25T09:19:08Z</time>
      </trkpt>
      <trkpt lat="45.81148" lon="5.41634">
        <ele>215.7</ele>
        <time>2022-09-25T09:19:09Z</time>
      </trkpt>
      <trkpt lat="45.81144" lon="5.41637">
        <ele>215.7</ele>
        <time>2022-09-25T09:19:10Z</time>
      </trkpt>
      <trkpt lat="45.81139" lon="5.4164">
        <ele>215.7</ele>
        <time>2022-09-25T09:19:11Z</time>
      </trkpt>
      <trkpt lat="45.81134" lon="5.41643">
        <ele>215.8</ele>
        <time>2022-09-25T09:19:12Z</time>
      </trkpt>
      <trkpt lat="45.8113" lon="5.41646">
        <ele>215.8</ele>
        <time>2022-09-25T09:19:13Z</time>
      </trkpt>
      <trkpt lat="45.81125" lon="5.41649">
        <ele>215.9</ele>
        <time>2022-09-25T09:19:14Z</time>
      </trkpt>
      <trkpt lat="45.8112" lon="5.41652">
        <ele>215.9</ele>
        <time>2022-09-25T09:19:15Z</time>
      </trkpt>
      <trkpt lat="45.81115" lon="5.41655">
        <ele>216</ele>
        <time>2022-09-25T09:19:16Z</time>
      </trkpt>
      <trkpt lat="45.8111" lon="5.41658">
        <ele>216</ele>
        <time>2022-09-25T09:19:17Z</time>
      </trkpt>
      <trkpt lat="45.81105" lon="5.41661">
        <ele>216.1</ele>
        <time>2022-09-25T09:19:18Z</time>
      </trkpt>
      <trkpt lat="45.811" lon="5.41664">
        <ele>216.2</ele>
        <time>2022-09-25T09:19:19Z</time>
      </trkpt>
      <trkpt lat="45.81096" lon="5.41667">
        <ele>216.2</ele>
        <time>2022-09-25T09:19:20Z</time>
      </trkpt>
      <trkpt lat="45.81092" lon="5.4167">
        <ele>216.3</ele>
        <time>2022-09-25T09:19:21Z</time>
      </trkpt>
      <trkpt lat="45.81087" lon="5.41673">
        <ele>216.3</ele>
        <time>2022-09-25T09:19:22Z</time>
      </trkpt>
      <trkpt lat="45.81082" lon="5.41676">
        <ele>216.4</ele>
        <time>2022-09-25T09:19:23Z</time>
      </trkpt>
      <trkpt lat="45.81078" lon="5.41679">
        <ele>216.4</ele>
        <time>2022-09-25T09:19:24Z</time>
      </trkpt>
      <trkpt lat="45.81073" lon="5.41682">
        <ele>216.5</ele>
        <time>2022-09-25T09:19:25Z</time>
      </trkpt>
      <trkpt lat="45.81069" lon="5.41685">
        <ele>216.5</ele>
        <time>2022-09-25T09:19:26Z</time>
      </trkpt>
      <trkpt lat="45.81065" lon="5.41688">
        <ele>216.6</ele>
        <time>2022-09-25T09:19:27Z</time>
      </trkpt>
      <trkpt lat="45.81059" lon="5.41691">
        <ele>216.6</ele>
        <time>2022-09-25T09:19:28Z</time>
      </trkpt>
      <trkpt lat="45.81055" lon="5.41694">
        <ele>216.6</ele>
        <time>2022-09-25T09:19:29Z</time>
      </trkpt>
      <trkpt lat="45.8105" lon="5.41697">
        <ele>216.7</ele>
        <time>2022-09-25T09:19:30Z</time>
      </trkpt>
      <trkpt lat="45.81046" lon="5.41701">
        <ele>216.7</ele>
        <time>2022-09-25T09:19:31Z</time>
      </trkpt>
      <trkpt lat="45.81041" lon="5.41704">
        <ele>216.7</ele>
        <time>2022-09-25T09:19:32Z</time>
      </trkpt>
      <trkpt lat="45.81036" lon="5.41707">
        <ele>216.7</ele>
        <time>2022-09-25T09:19:33Z</time>
      </trkpt>
      <trkpt lat="45.81032" lon="5.41711">
        <ele>216.7</ele>
        <time>2022-09-25T09:19:34Z</time>
      </trkpt>
      <trkpt lat="45.81027" lon="5.41714">
        <ele>216.6</ele>
        <time>2022-09-25T09:19:35Z</time>
      </trkpt>
      <trkpt lat="45.81022" lon="5.41717">
        <ele>216.6</ele>
        <time>2022-09-25T09:19:36Z</time>
      </trkpt>
      <trkpt lat="45.81017" lon="5.41721">
        <ele>216.6</ele>
        <time>2022-09-25T09:19:37Z</time>
      </trkpt>
      <trkpt lat="45.81013" lon="5.41724">
        <ele>216.6</ele>
        <time>2022-09-25T09:19:38Z</time>
      </trkpt>
      <trkpt lat="45.81008" lon="5.41727">
        <ele>216.6</ele>
        <time>2022-09-25T09:19:39Z</time>
      </trkpt>
      <trkpt lat="45.81003" lon="5.41731">
        <ele>216.6</ele>
        <time>2022-09-25T09:19:40Z</time>
      </trkpt>
      <trkpt lat="45.80999" lon="5.41734">
        <ele>216.6</ele>
        <time>2022-09-25T09:19:41Z</time>
      </trkpt>
      <trkpt lat="45.80994" lon="5.41737">
        <ele>216.6</ele>
        <time>2022-09-25T09:19:42Z</time>
      </trkpt>
      <trkpt lat="45.80989" lon="5.4174">
        <ele>216.6</ele>
        <time>2022-09-25T09:19:43Z</time>
      </trkpt>
      <trkpt lat="45.80986" lon="5.41742">
        <ele>216.7</ele>
        <time>2022-09-25T09:19:44Z</time>
      </trkpt>
      <trkpt lat="45.80981" lon="5.41746">
        <ele>216.7</ele>
        <time>2022-09-25T09:19:45Z</time>
      </trkpt>
      <trkpt lat="45.80977" lon="5.41749">
        <ele>216.7</ele>
        <time>2022-09-25T09:19:46Z</time>
      </trkpt>
      <trkpt lat="45.80973" lon="5.41749">
        <ele>216.7</ele>
        <time>2022-09-25T09:19:47Z</time>
      </trkpt>
      <trkpt lat="45.8097" lon="5.41754">
        <ele>216.7</ele>
        <time>2022-09-25T09:19:48Z</time>
      </trkpt>
      <trkpt lat="45.80965" lon="5.41759">
        <ele>216.8</ele>
        <time>2022-09-25T09:19:49Z</time>
      </trkpt>
      <trkpt lat="45.8096" lon="5.4176">
        <ele>216.8</ele>
        <time>2022-09-25T09:19:50Z</time>
      </trkpt>
      <trkpt lat="45.80956" lon="5.41763">
        <ele>216.8</ele>
        <time>2022-09-25T09:19:51Z</time>
      </trkpt>
      <trkpt lat="45.80953" lon="5.41765">
        <ele>216.8</ele>
        <time>2022-09-25T09:19:52Z</time>
      </trkpt>
      <trkpt lat="45.8095" lon="5.41767">
        <ele>216.8</ele>
        <time>2022-09-25T09:19:53Z</time>
      </trkpt>
      <trkpt lat="45.80946" lon="5.4177">
        <ele>216.8</ele>
        <time>2022-09-25T09:19:54Z</time>
      </trkpt>
      <trkpt lat="45.8094" lon="5.41771">
        <ele>216.8</ele>
        <time>2022-09-25T09:19:55Z</time>
      </trkpt>
      <trkpt lat="45.80936" lon="5.41778">
        <ele>216.7</ele>
        <time>2022-09-25T09:19:56Z</time>
      </trkpt>
      <trkpt lat="45.80931" lon="5.41782">
        <ele>216.7</ele>
        <time>2022-09-25T09:19:57Z</time>
      </trkpt>
      <trkpt lat="45.80925" lon="5.41786">
        <ele>216.6</ele>
        <time>2022-09-25T09:19:58Z</time>
      </trkpt>
      <trkpt lat="45.8092" lon="5.4179">
        <ele>216.6</ele>
        <time>2022-09-25T09:19:59Z</time>
      </trkpt>
      <trkpt lat="45.80914" lon="5.41794">
        <ele>216.6</ele>
        <time>2022-09-25T09:20:00Z</time>
      </trkpt>
      <trkpt lat="45.80909" lon="5.41798">
        <ele>216.6</ele>
        <time>2022-09-25T09:20:01Z</time>
      </trkpt>
      <trkpt lat="45.80903" lon="5.41801">
        <ele>216.6</ele>
        <time>2022-09-25T09:20:02Z</time>
      </trkpt>
      <trkpt lat="45.80898" lon="5.41804">
        <ele>216.6</ele>
        <time>2022-09-25T09:20:03Z</time>
      </trkpt>
      <trkpt lat="45.80894" lon="5.41808">
        <ele>216.7</ele>
        <time>2022-09-25T09:20:04Z</time>
      </trkpt>
      <trkpt lat="45.80889" lon="5.41811">
        <ele>216.7</ele>
        <time>2022-09-25T09:20:05Z</time>
      </trkpt>
      <trkpt lat="45.80885" lon="5.41816">
        <ele>216.7</ele>
        <time>2022-09-25T09:20:06Z</time>
      </trkpt>
      <trkpt lat="45.8088" lon="5.4182">
        <ele>216.7</ele>
        <time>2022-09-25T09:20:07Z</time>
      </trkpt>
      <trkpt lat="45.80875" lon="5.41824">
        <ele>216.8</ele>
        <time>2022-09-25T09:20:08Z</time>
      </trkpt>
      <trkpt lat="45.8087" lon="5.41827">
        <ele>216.9</ele>
        <time>2022-09-25T09:20:09Z</time>
      </trkpt>
      <trkpt lat="45.80865" lon="5.41831">
        <ele>216.9</ele>
        <time>2022-09-25T09:20:10Z</time>
      </trkpt>
      <trkpt lat="45.80861" lon="5.41835">
        <ele>217</ele>
        <time>2022-09-25T09:20:11Z</time>
      </trkpt>
      <trkpt lat="45.80857" lon="5.41838">
        <ele>217.1</ele>
        <time>2022-09-25T09:20:12Z</time>
      </trkpt>
      <trkpt lat="45.80852" lon="5.41841">
        <ele>217.1</ele>
        <time>2022-09-25T09:20:13Z</time>
      </trkpt>
      <trkpt lat="45.80847" lon="5.41842">
        <ele>217.2</ele>
        <time>2022-09-25T09:20:14Z</time>
      </trkpt>
      <trkpt lat="45.80843" lon="5.41842">
        <ele>217.3</ele>
        <time>2022-09-25T09:20:15Z</time>
      </trkpt>
      <trkpt lat="45.80839" lon="5.41841">
        <ele>217.4</ele>
        <time>2022-09-25T09:20:16Z</time>
      </trkpt>
      <trkpt lat="45.80836" lon="5.41837">
        <ele>217.5</ele>
        <time>2022-09-25T09:20:17Z</time>
      </trkpt>
      <trkpt lat="45.80834" lon="5.41832">
        <ele>217.5</ele>
        <time>2022-09-25T09:20:18Z</time>
      </trkpt>
      <trkpt lat="45.80832" lon="5.41825">
        <ele>217.5</ele>
        <time>2022-09-25T09:20:19Z</time>
      </trkpt>
      <trkpt lat="45.80829" lon="5.41819">
        <ele>217.4</ele>
        <time>2022-09-25T09:20:20Z</time>
      </trkpt>
      <trkpt lat="45.80826" lon="5.41812">
        <ele>217.4</ele>
        <time>2022-09-25T09:20:21Z</time>
      </trkpt>
      <trkpt lat="45.80823" lon="5.41806">
        <ele>217.4</ele>
        <time>2022-09-25T09:20:22Z</time>
      </trkpt>
      <trkpt lat="45.80821" lon="5.41801">
        <ele>217.3</ele>
        <time>2022-09-25T09:20:23Z</time>
      </trkpt>
      <trkpt lat="45.80818" lon="5.41794">
        <ele>217.3</ele>
        <time>2022-09-25T09:20:24Z</time>
      </trkpt>
      <trkpt lat="45.80815" lon="5.41787">
        <ele>217.3</ele>
        <time>2022-09-25T09:20:25Z</time>
      </trkpt>
      <trkpt lat="45.80813" lon="5.41781">
        <ele>217.3</ele>
        <time>2022-09-25T09:20:26Z</time>
      </trkpt>
      <trkpt lat="45.8081" lon="5.41775">
        <ele>217.3</ele>
        <time>2022-09-25T09:20:27Z</time>
      </trkpt>
      <trkpt lat="45.80807" lon="5.41768">
        <ele>217.3</ele>
        <time>2022-09-25T09:20:28Z</time>
      </trkpt>
      <trkpt lat="45.80805" lon="5.41762">
        <ele>217.3</ele>
        <time>2022-09-25T09:20:29Z</time>
      </trkpt>
      <trkpt lat="45.80802" lon="5.41756">
        <ele>217.3</ele>
        <time>2022-09-25T09:20:30Z</time>
      </trkpt>
      <trkpt lat="45.80799" lon="5.41748">
        <ele>217.3</ele>
        <time>2022-09-25T09:20:31Z</time>
      </trkpt>
      <trkpt lat="45.80796" lon="5.41742">
        <ele>217.3</ele>
        <time>2022-09-25T09:20:32Z</time>
      </trkpt>
      <trkpt lat="45.80793" lon="5.41736">
        <ele>217.3</ele>
        <time>2022-09-25T09:20:33Z</time>
      </trkpt>
      <trkpt lat="45.80791" lon="5.41728">
        <ele>217.2</ele>
        <time>2022-09-25T09:20:34Z</time>
      </trkpt>
      <trkpt lat="45.80788" lon="5.41722">
        <ele>217.2</ele>
        <time>2022-09-25T09:20:35Z</time>
      </trkpt>
      <trkpt lat="45.80786" lon="5.41715">
        <ele>217.2</ele>
        <time>2022-09-25T09:20:36Z</time>
      </trkpt>
      <trkpt lat="45.80783" lon="5.41709">
        <ele>217.2</ele>
        <time>2022-09-25T09:20:37Z</time>
      </trkpt>
      <trkpt lat="45.80781" lon="5.41703">
        <ele>217.2</ele>
        <time>2022-09-25T09:20:38Z</time>
      </trkpt>
      <trkpt lat="45.80778" lon="5.41695">
        <ele>217.2</ele>
        <time>2022-09-25T09:20:39Z</time>
      </trkpt>
      <trkpt lat="45.80775" lon="5.41688">
        <ele>217.2</ele>
        <time>2022-09-25T09:20:40Z</time>
      </trkpt>
      <trkpt lat="45.80772" lon="5.41683">
        <ele>217.2</ele>
        <time>2022-09-25T09:20:41Z</time>
      </trkpt>
      <trkpt lat="45.80769" lon="5.41676">
        <ele>217.2</ele>
        <time>2022-09-25T09:20:42Z</time>
      </trkpt>
      <trkpt lat="45.80767" lon="5.41668">
        <ele>217.2</ele>
        <time>2022-09-25T09:20:43Z</time>
      </trkpt>
      <trkpt lat="45.80765" lon="5.41662">
        <ele>217.2</ele>
        <time>2022-09-25T09:20:44Z</time>
      </trkpt>
      <trkpt lat="45.80761" lon="5.41656">
        <ele>217.2</ele>
        <time>2022-09-25T09:20:45Z</time>
      </trkpt>
      <trkpt lat="45.80759" lon="5.41649">
        <ele>217.2</ele>
        <time>2022-09-25T09:20:46Z</time>
      </trkpt>
      <trkpt lat="45.80757" lon="5.41644">
        <ele>217.2</ele>
        <time>2022-09-25T09:20:47Z</time>
      </trkpt>
      <trkpt lat="45.80753" lon="5.41636">
        <ele>217.2</ele>
        <time>2022-09-25T09:20:48Z</time>
      </trkpt>
      <trkpt lat="45.8075" lon="5.4163">
        <ele>217.2</ele>
        <time>2022-09-25T09:20:49Z</time>
      </trkpt>
      <trkpt lat="45.80748" lon="5.41624">
        <ele>217.2</ele>
        <time>2022-09-25T09:20:50Z</time>
      </trkpt>
      <trkpt lat="45.80745" lon="5.41617">
        <ele>217.2</ele>
        <time>2022-09-25T09:20:51Z</time>
      </trkpt>
      <trkpt lat="45.80742" lon="5.41611">
        <ele>217.2</ele>
        <time>2022-09-25T09:20:52Z</time>
      </trkpt>
      <trkpt lat="45.8074" lon="5.41604">
        <ele>217.2</ele>
        <time>2022-09-25T09:20:53Z</time>
      </trkpt>
      <trkpt lat="45.80737" lon="5.41597">
        <ele>217.2</ele>
        <time>2022-09-25T09:20:54Z</time>
      </trkpt>
      <trkpt lat="45.80734" lon="5.41591">
        <ele>217.2</ele>
        <time>2022-09-25T09:20:55Z</time>
      </trkpt>
      <trkpt lat="45.80731" lon="5.41585">
        <ele>217.2</ele>
        <time>2022-09-25T09:20:56Z</time>
      </trkpt>
      <trkpt lat="45.80729" lon="5.41578">
        <ele>217.2</ele>
        <time>2022-09-25T09:20:57Z</time>
      </trkpt>
      <trkpt lat="45.80727" lon="5.41574">
        <ele>217.2</ele>
        <time>2022-09-25T09:20:58Z</time>
      </trkpt>
      <trkpt lat="45.80724" lon="5.41566">
        <ele>217.2</ele>
        <time>2022-09-25T09:20:59Z</time>
      </trkpt>
      <trkpt lat="45.80721" lon="5.4156">
        <ele>217.2</ele>
        <time>2022-09-25T09:21:00Z</time>
      </trkpt>
      <trkpt lat="45.80718" lon="5.41553">
        <ele>217.2</ele>
        <time>2022-09-25T09:21:01Z</time>
      </trkpt>
      <trkpt lat="45.80716" lon="5.41546">
        <ele>217.1</ele>
        <time>2022-09-25T09:21:02Z</time>
      </trkpt>
      <trkpt lat="45.80713" lon="5.41539">
        <ele>217.2</ele>
        <time>2022-09-25T09:21:03Z</time>
      </trkpt>
      <trkpt lat="45.8071" lon="5.41532">
        <ele>217.2</ele>
        <time>2022-09-25T09:21:04Z</time>
      </trkpt>
      <trkpt lat="45.80708" lon="5.41525">
        <ele>217.2</ele>
        <time>2022-09-25T09:21:05Z</time>
      </trkpt>
      <trkpt lat="45.80705" lon="5.41519">
        <ele>217.2</ele>
        <time>2022-09-25T09:21:06Z</time>
      </trkpt>
      <trkpt lat="45.80703" lon="5.41512">
        <ele>217.3</ele>
        <time>2022-09-25T09:21:07Z</time>
      </trkpt>
      <trkpt lat="45.807" lon="5.41506">
        <ele>217.3</ele>
        <time>2022-09-25T09:21:08Z</time>
      </trkpt>
      <trkpt lat="45.80698" lon="5.41499">
        <ele>217.3</ele>
        <time>2022-09-25T09:21:09Z</time>
      </trkpt>
      <trkpt lat="45.80695" lon="5.41493">
        <ele>217.4</ele>
        <time>2022-09-25T09:21:10Z</time>
      </trkpt>
      <trkpt lat="45.80693" lon="5.41487">
        <ele>217.4</ele>
        <time>2022-09-25T09:21:11Z</time>
      </trkpt>
      <trkpt lat="45.80691" lon="5.41481">
        <ele>217.4</ele>
        <time>2022-09-25T09:21:12Z</time>
      </trkpt>
      <trkpt lat="45.80688" lon="5.41475">
        <ele>217.4</ele>
        <time>2022-09-25T09:21:13Z</time>
      </trkpt>
      <trkpt lat="45.80685" lon="5.41468">
        <ele>217.4</ele>
        <time>2022-09-25T09:21:14Z</time>
      </trkpt>
      <trkpt lat="45.80683" lon="5.41462">
        <ele>217.5</ele>
        <time>2022-09-25T09:21:15Z</time>
      </trkpt>
      <trkpt lat="45.80681" lon="5.41456">
        <ele>217.5</ele>
        <time>2022-09-25T09:21:16Z</time>
      </trkpt>
      <trkpt lat="45.80678" lon="5.4145">
        <ele>217.5</ele>
        <time>2022-09-25T09:21:17Z</time>
      </trkpt>
      <trkpt lat="45.80675" lon="5.41443">
        <ele>217.5</ele>
        <time>2022-09-25T09:21:18Z</time>
      </trkpt>
      <trkpt lat="45.80673" lon="5.41437">
        <ele>217.5</ele>
        <time>2022-09-25T09:21:20Z</time>
      </trkpt>
      <trkpt lat="45.80671" lon="5.41431">
        <ele>217.6</ele>
        <time>2022-09-25T09:21:21Z</time>
      </trkpt>
      <trkpt lat="45.80669" lon="5.41426">
        <ele>217.6</ele>
        <time>2022-09-25T09:21:22Z</time>
      </trkpt>
      <trkpt lat="45.80667" lon="5.41421">
        <ele>217.6</ele>
        <time>2022-09-25T09:21:23Z</time>
      </trkpt>
      <trkpt lat="45.80665" lon="5.41416">
        <ele>217.7</ele>
        <time>2022-09-25T09:21:24Z</time>
      </trkpt>
      <trkpt lat="45.80662" lon="5.41413">
        <ele>217.7</ele>
        <time>2022-09-25T09:21:25Z</time>
      </trkpt>
      <trkpt lat="45.80659" lon="5.41413">
        <ele>217.7</ele>
        <time>2022-09-25T09:21:26Z</time>
      </trkpt>
      <trkpt lat="45.80656" lon="5.41413">
        <ele>217.7</ele>
        <time>2022-09-25T09:21:27Z</time>
      </trkpt>
      <trkpt lat="45.80653" lon="5.41417">
        <ele>217.7</ele>
        <time>2022-09-25T09:21:28Z</time>
      </trkpt>
      <trkpt lat="45.80649" lon="5.4142">
        <ele>217.7</ele>
        <time>2022-09-25T09:21:29Z</time>
      </trkpt>
      <trkpt lat="45.80645" lon="5.41422">
        <ele>217.7</ele>
        <time>2022-09-25T09:21:30Z</time>
      </trkpt>
      <trkpt lat="45.80641" lon="5.41425">
        <ele>217.7</ele>
        <time>2022-09-25T09:21:31Z</time>
      </trkpt>
      <trkpt lat="45.80637" lon="5.41427">
        <ele>217.7</ele>
        <time>2022-09-25T09:21:32Z</time>
      </trkpt>
      <trkpt lat="45.80632" lon="5.41429">
        <ele>217.7</ele>
        <time>2022-09-25T09:21:33Z</time>
      </trkpt>
      <trkpt lat="45.80628" lon="5.41431">
        <ele>217.7</ele>
        <time>2022-09-25T09:21:34Z</time>
      </trkpt>
      <trkpt lat="45.80623" lon="5.41433">
        <ele>217.8</ele>
        <time>2022-09-25T09:21:35Z</time>
      </trkpt>
      <trkpt lat="45.80617" lon="5.41435">
        <ele>217.8</ele>
        <time>2022-09-25T09:21:36Z</time>
      </trkpt>
      <trkpt lat="45.80612" lon="5.41437">
        <ele>217.9</ele>
        <time>2022-09-25T09:21:37Z</time>
      </trkpt>
      <trkpt lat="45.80608" lon="5.41438">
        <ele>217.9</ele>
        <time>2022-09-25T09:21:38Z</time>
      </trkpt>
      <trkpt lat="45.80602" lon="5.41437">
        <ele>218</ele>
        <time>2022-09-25T09:21:39Z</time>
      </trkpt>
      <trkpt lat="45.80598" lon="5.41437">
        <ele>218.1</ele>
        <time>2022-09-25T09:21:40Z</time>
      </trkpt>
      <trkpt lat="45.80593" lon="5.41437">
        <ele>218.1</ele>
        <time>2022-09-25T09:21:41Z</time>
      </trkpt>
      <trkpt lat="45.80587" lon="5.41435">
        <ele>218.2</ele>
        <time>2022-09-25T09:21:42Z</time>
      </trkpt>
      <trkpt lat="45.80582" lon="5.41434">
        <ele>218.3</ele>
        <time>2022-09-25T09:21:43Z</time>
      </trkpt>
      <trkpt lat="45.80577" lon="5.41433">
        <ele>218.4</ele>
        <time>2022-09-25T09:21:44Z</time>
      </trkpt>
      <trkpt lat="45.80574" lon="5.41432">
        <ele>218.4</ele>
        <time>2022-09-25T09:21:45Z</time>
      </trkpt>
      <trkpt lat="45.80569" lon="5.41432">
        <ele>218.5</ele>
        <time>2022-09-25T09:21:46Z</time>
      </trkpt>
      <trkpt lat="45.80565" lon="5.41432">
        <ele>218.5</ele>
        <time>2022-09-25T09:21:47Z</time>
      </trkpt>
      <trkpt lat="45.8056" lon="5.41432">
        <ele>218.6</ele>
        <time>2022-09-25T09:21:48Z</time>
      </trkpt>
      <trkpt lat="45.80556" lon="5.41433">
        <ele>218.6</ele>
        <time>2022-09-25T09:21:49Z</time>
      </trkpt>
      <trkpt lat="45.8055" lon="5.41434">
        <ele>218.6</ele>
        <time>2022-09-25T09:21:50Z</time>
      </trkpt>
      <trkpt lat="45.80545" lon="5.41436">
        <ele>218.7</ele>
        <time>2022-09-25T09:21:51Z</time>
      </trkpt>
      <trkpt lat="45.80541" lon="5.41439">
        <ele>218.7</ele>
        <time>2022-09-25T09:21:52Z</time>
      </trkpt>
      <trkpt lat="45.80536" lon="5.41441">
        <ele>218.7</ele>
        <time>2022-09-25T09:21:53Z</time>
      </trkpt>
      <trkpt lat="45.80531" lon="5.41443">
        <ele>218.8</ele>
        <time>2022-09-25T09:21:54Z</time>
      </trkpt>
      <trkpt lat="45.80526" lon="5.41445">
        <ele>218.8</ele>
        <time>2022-09-25T09:21:55Z</time>
      </trkpt>
      <trkpt lat="45.80521" lon="5.41448">
        <ele>218.9</ele>
        <time>2022-09-25T09:21:56Z</time>
      </trkpt>
      <trkpt lat="45.80516" lon="5.4145">
        <ele>218.9</ele>
        <time>2022-09-25T09:21:57Z</time>
      </trkpt>
      <trkpt lat="45.80512" lon="5.41452">
        <ele>218.9</ele>
        <time>2022-09-25T09:21:58Z</time>
      </trkpt>
      <trkpt lat="45.80508" lon="5.41454">
        <ele>219</ele>
        <time>2022-09-25T09:21:59Z</time>
      </trkpt>
      <trkpt lat="45.80503" lon="5.41456">
        <ele>219</ele>
        <time>2022-09-25T09:22:00Z</time>
      </trkpt>
      <trkpt lat="45.80499" lon="5.41457">
        <ele>219</ele>
        <time>2022-09-25T09:22:01Z</time>
      </trkpt>
      <trkpt lat="45.80494" lon="5.4146">
        <ele>219.1</ele>
        <time>2022-09-25T09:22:02Z</time>
      </trkpt>
      <trkpt lat="45.80489" lon="5.41463">
        <ele>219.1</ele>
        <time>2022-09-25T09:22:03Z</time>
      </trkpt>
      <trkpt lat="45.80484" lon="5.41464">
        <ele>219.1</ele>
        <time>2022-09-25T09:22:04Z</time>
      </trkpt>
      <trkpt lat="45.80479" lon="5.41466">
        <ele>219.1</ele>
        <time>2022-09-25T09:22:05Z</time>
      </trkpt>
      <trkpt lat="45.80474" lon="5.41468">
        <ele>219.1</ele>
        <time>2022-09-25T09:22:06Z</time>
      </trkpt>
      <trkpt lat="45.80469" lon="5.41471">
        <ele>219.1</ele>
        <time>2022-09-25T09:22:07Z</time>
      </trkpt>
      <trkpt lat="45.80465" lon="5.41474">
        <ele>219.1</ele>
        <time>2022-09-25T09:22:08Z</time>
      </trkpt>
      <trkpt lat="45.80463" lon="5.41477">
        <ele>219.1</ele>
        <time>2022-09-25T09:22:09Z</time>
      </trkpt>
      <trkpt lat="45.80459" lon="5.4148">
        <ele>219.1</ele>
        <time>2022-09-25T09:22:10Z</time>
      </trkpt>
      <trkpt lat="45.80455" lon="5.41482">
        <ele>219</ele>
        <time>2022-09-25T09:22:11Z</time>
      </trkpt>
      <trkpt lat="45.80451" lon="5.41485">
        <ele>219</ele>
        <time>2022-09-25T09:22:12Z</time>
      </trkpt>
      <trkpt lat="45.80447" lon="5.41486">
        <ele>219</ele>
        <time>2022-09-25T09:22:13Z</time>
      </trkpt>
      <trkpt lat="45.80442" lon="5.41488">
        <ele>219</ele>
        <time>2022-09-25T09:22:14Z</time>
      </trkpt>
      <trkpt lat="45.80438" lon="5.41491">
        <ele>218.9</ele>
        <time>2022-09-25T09:22:15Z</time>
      </trkpt>
      <trkpt lat="45.80428" lon="5.41495">
        <ele>218.9</ele>
        <time>2022-09-25T09:22:16Z</time>
      </trkpt>
      <trkpt lat="45.80424" lon="5.41499">
        <ele>219</ele>
        <time>2022-09-25T09:22:17Z</time>
      </trkpt>
      <trkpt lat="45.8042" lon="5.41502">
        <ele>219</ele>
        <time>2022-09-25T09:22:18Z</time>
      </trkpt>
      <trkpt lat="45.80416" lon="5.41506">
        <ele>219</ele>
        <time>2022-09-25T09:22:19Z</time>
      </trkpt>
      <trkpt lat="45.80412" lon="5.41511">
        <ele>219.1</ele>
        <time>2022-09-25T09:22:20Z</time>
      </trkpt>
      <trkpt lat="45.80409" lon="5.41518">
        <ele>219.1</ele>
        <time>2022-09-25T09:22:21Z</time>
      </trkpt>
      <trkpt lat="45.80406" lon="5.41524">
        <ele>219.2</ele>
        <time>2022-09-25T09:22:22Z</time>
      </trkpt>
      <trkpt lat="45.80403" lon="5.41531">
        <ele>219.2</ele>
        <time>2022-09-25T09:22:23Z</time>
      </trkpt>
      <trkpt lat="45.80401" lon="5.41536">
        <ele>219.2</ele>
        <time>2022-09-25T09:22:24Z</time>
      </trkpt>
      <trkpt lat="45.80398" lon="5.41541">
        <ele>219.3</ele>
        <time>2022-09-25T09:22:25Z</time>
      </trkpt>
      <trkpt lat="45.80396" lon="5.41546">
        <ele>219.3</ele>
        <time>2022-09-25T09:22:26Z</time>
      </trkpt>
      <trkpt lat="45.80393" lon="5.4155">
        <ele>219.4</ele>
        <time>2022-09-25T09:22:27Z</time>
      </trkpt>
      <trkpt lat="45.80391" lon="5.41556">
        <ele>219.4</ele>
        <time>2022-09-25T09:22:28Z</time>
      </trkpt>
      <trkpt lat="45.80389" lon="5.4156">
        <ele>219.5</ele>
        <time>2022-09-25T09:22:29Z</time>
      </trkpt>
      <trkpt lat="45.80387" lon="5.41563">
        <ele>219.5</ele>
        <time>2022-09-25T09:22:30Z</time>
      </trkpt>
      <trkpt lat="45.80385" lon="5.41564">
        <ele>219.6</ele>
        <time>2022-09-25T09:22:31Z</time>
      </trkpt>
      <trkpt lat="45.80383" lon="5.41564">
        <ele>219.6</ele>
        <time>2022-09-25T09:22:32Z</time>
      </trkpt>
      <trkpt lat="45.80381" lon="5.41562">
        <ele>219.6</ele>
        <time>2022-09-25T09:22:33Z</time>
      </trkpt>
      <trkpt lat="45.8038" lon="5.4156">
        <ele>219.7</ele>
        <time>2022-09-25T09:22:34Z</time>
      </trkpt>
      <trkpt lat="45.80378" lon="5.41557">
        <ele>219.7</ele>
        <time>2022-09-25T09:22:35Z</time>
      </trkpt>
      <trkpt lat="45.80376" lon="5.41553">
        <ele>219.6</ele>
        <time>2022-09-25T09:22:36Z</time>
      </trkpt>
      <trkpt lat="45.80373" lon="5.4155">
        <ele>219.6</ele>
        <time>2022-09-25T09:22:37Z</time>
      </trkpt>
      <trkpt lat="45.8037" lon="5.41547">
        <ele>219.6</ele>
        <time>2022-09-25T09:22:38Z</time>
      </trkpt>
      <trkpt lat="45.80366" lon="5.41544">
        <ele>219.5</ele>
        <time>2022-09-25T09:22:39Z</time>
      </trkpt>
      <trkpt lat="45.80362" lon="5.41542">
        <ele>219.5</ele>
        <time>2022-09-25T09:22:40Z</time>
      </trkpt>
      <trkpt lat="45.80357" lon="5.41542">
        <ele>219.4</ele>
        <time>2022-09-25T09:22:41Z</time>
      </trkpt>
      <trkpt lat="45.80353" lon="5.41543">
        <ele>219.4</ele>
        <time>2022-09-25T09:22:42Z</time>
      </trkpt>
      <trkpt lat="45.80348" lon="5.41547">
        <ele>219.4</ele>
        <time>2022-09-25T09:22:43Z</time>
      </trkpt>
      <trkpt lat="45.80345" lon="5.4155">
        <ele>219.4</ele>
        <time>2022-09-25T09:22:44Z</time>
      </trkpt>
      <trkpt lat="45.80341" lon="5.41554">
        <ele>219.4</ele>
        <time>2022-09-25T09:22:45Z</time>
      </trkpt>
      <trkpt lat="45.80337" lon="5.41557">
        <ele>219.5</ele>
        <time>2022-09-25T09:22:46Z</time>
      </trkpt>
      <trkpt lat="45.80333" lon="5.41561">
        <ele>219.5</ele>
        <time>2022-09-25T09:22:47Z</time>
      </trkpt>
      <trkpt lat="45.80329" lon="5.41564">
        <ele>219.5</ele>
        <time>2022-09-25T09:22:48Z</time>
      </trkpt>
      <trkpt lat="45.80325" lon="5.41568">
        <ele>219.6</ele>
        <time>2022-09-25T09:22:49Z</time>
      </trkpt>
      <trkpt lat="45.80321" lon="5.41572">
        <ele>219.6</ele>
        <time>2022-09-25T09:22:50Z</time>
      </trkpt>
      <trkpt lat="45.80317" lon="5.41576">
        <ele>219.7</ele>
        <time>2022-09-25T09:22:51Z</time>
      </trkpt>
      <trkpt lat="45.80313" lon="5.41579">
        <ele>219.7</ele>
        <time>2022-09-25T09:22:52Z</time>
      </trkpt>
      <trkpt lat="45.8031" lon="5.41582">
        <ele>219.7</ele>
        <time>2022-09-25T09:22:53Z</time>
      </trkpt>
      <trkpt lat="45.80306" lon="5.41586">
        <ele>219.7</ele>
        <time>2022-09-25T09:22:54Z</time>
      </trkpt>
      <trkpt lat="45.80302" lon="5.4159">
        <ele>219.7</ele>
        <time>2022-09-25T09:22:55Z</time>
      </trkpt>
      <trkpt lat="45.80298" lon="5.41594">
        <ele>219.7</ele>
        <time>2022-09-25T09:22:56Z</time>
      </trkpt>
      <trkpt lat="45.80295" lon="5.41599">
        <ele>219.7</ele>
        <time>2022-09-25T09:22:57Z</time>
      </trkpt>
      <trkpt lat="45.80292" lon="5.41604">
        <ele>219.7</ele>
        <time>2022-09-25T09:22:58Z</time>
      </trkpt>
      <trkpt lat="45.80288" lon="5.41607">
        <ele>219.7</ele>
        <time>2022-09-25T09:22:59Z</time>
      </trkpt>
      <trkpt lat="45.80284" lon="5.41612">
        <ele>219.7</ele>
        <time>2022-09-25T09:23:00Z</time>
      </trkpt>
      <trkpt lat="45.80281" lon="5.41615">
        <ele>219.7</ele>
        <time>2022-09-25T09:23:01Z</time>
      </trkpt>
      <trkpt lat="45.80277" lon="5.41617">
        <ele>219.7</ele>
        <time>2022-09-25T09:23:02Z</time>
      </trkpt>
      <trkpt lat="45.80274" lon="5.41618">
        <ele>219.7</ele>
        <time>2022-09-25T09:23:03Z</time>
      </trkpt>
      <trkpt lat="45.8027" lon="5.41618">
        <ele>219.7</ele>
        <time>2022-09-25T09:23:04Z</time>
      </trkpt>
      <trkpt lat="45.80266" lon="5.41618">
        <ele>219.7</ele>
        <time>2022-09-25T09:23:05Z</time>
      </trkpt>
      <trkpt lat="45.80262" lon="5.4162">
        <ele>219.6</ele>
        <time>2022-09-25T09:23:06Z</time>
      </trkpt>
      <trkpt lat="45.80259" lon="5.41624">
        <ele>219.7</ele>
        <time>2022-09-25T09:23:07Z</time>
      </trkpt>
      <trkpt lat="45.80258" lon="5.4163">
        <ele>219.7</ele>
        <time>2022-09-25T09:23:08Z</time>
      </trkpt>
      <trkpt lat="45.80257" lon="5.41635">
        <ele>219.7</ele>
        <time>2022-09-25T09:23:09Z</time>
      </trkpt>
      <trkpt lat="45.80255" lon="5.41642">
        <ele>219.7</ele>
        <time>2022-09-25T09:23:10Z</time>
      </trkpt>
      <trkpt lat="45.80254" lon="5.41646">
        <ele>219.7</ele>
        <time>2022-09-25T09:23:11Z</time>
      </trkpt>
      <trkpt lat="45.80251" lon="5.41651">
        <ele>219.7</ele>
        <time>2022-09-25T09:23:12Z</time>
      </trkpt>
      <trkpt lat="45.80248" lon="5.41654">
        <ele>219.7</ele>
        <time>2022-09-25T09:23:13Z</time>
      </trkpt>
      <trkpt lat="45.80244" lon="5.41659">
        <ele>219.7</ele>
        <time>2022-09-25T09:23:14Z</time>
      </trkpt>
      <trkpt lat="45.8024" lon="5.41663">
        <ele>219.7</ele>
        <time>2022-09-25T09:23:15Z</time>
      </trkpt>
      <trkpt lat="45.80237" lon="5.41667">
        <ele>219.7</ele>
        <time>2022-09-25T09:23:16Z</time>
      </trkpt>
      <trkpt lat="45.80233" lon="5.41672">
        <ele>219.7</ele>
        <time>2022-09-25T09:23:17Z</time>
      </trkpt>
      <trkpt lat="45.80229" lon="5.41675">
        <ele>219.7</ele>
        <time>2022-09-25T09:23:18Z</time>
      </trkpt>
      <trkpt lat="45.80226" lon="5.41679">
        <ele>219.7</ele>
        <time>2022-09-25T09:23:19Z</time>
      </trkpt>
      <trkpt lat="45.80223" lon="5.41682">
        <ele>219.7</ele>
        <time>2022-09-25T09:23:20Z</time>
      </trkpt>
      <trkpt lat="45.8022" lon="5.41684">
        <ele>219.7</ele>
        <time>2022-09-25T09:23:21Z</time>
      </trkpt>
      <trkpt lat="45.80217" lon="5.41683">
        <ele>219.7</ele>
        <time>2022-09-25T09:23:22Z</time>
      </trkpt>
      <trkpt lat="45.80213" lon="5.41682">
        <ele>219.6</ele>
        <time>2022-09-25T09:23:23Z</time>
      </trkpt>
      <trkpt lat="45.8021" lon="5.41678">
        <ele>219.5</ele>
        <time>2022-09-25T09:23:24Z</time>
      </trkpt>
      <trkpt lat="45.80208" lon="5.41673">
        <ele>219.5</ele>
        <time>2022-09-25T09:23:25Z</time>
      </trkpt>
      <trkpt lat="45.80206" lon="5.41669">
        <ele>219.4</ele>
        <time>2022-09-25T09:23:26Z</time>
      </trkpt>
      <trkpt lat="45.80203" lon="5.41662">
        <ele>219.3</ele>
        <time>2022-09-25T09:23:28Z</time>
      </trkpt>
      <trkpt lat="45.802" lon="5.41656">
        <ele>219.3</ele>
        <time>2022-09-25T09:23:29Z</time>
      </trkpt>
      <trkpt lat="45.80198" lon="5.41648">
        <ele>219.2</ele>
        <time>2022-09-25T09:23:30Z</time>
      </trkpt>
      <trkpt lat="45.80196" lon="5.41641">
        <ele>219.2</ele>
        <time>2022-09-25T09:23:31Z</time>
      </trkpt>
      <trkpt lat="45.80193" lon="5.41636">
        <ele>219.2</ele>
        <time>2022-09-25T09:23:32Z</time>
      </trkpt>
      <trkpt lat="45.80189" lon="5.41631">
        <ele>219.1</ele>
        <time>2022-09-25T09:23:33Z</time>
      </trkpt>
      <trkpt lat="45.80186" lon="5.41624">
        <ele>219.1</ele>
        <time>2022-09-25T09:23:34Z</time>
      </trkpt>
      <trkpt lat="45.80183" lon="5.41617">
        <ele>219</ele>
        <time>2022-09-25T09:23:35Z</time>
      </trkpt>
      <trkpt lat="45.80179" lon="5.4161">
        <ele>219</ele>
        <time>2022-09-25T09:23:36Z</time>
      </trkpt>
      <trkpt lat="45.80176" lon="5.41605">
        <ele>219</ele>
        <time>2022-09-25T09:23:37Z</time>
      </trkpt>
      <trkpt lat="45.80172" lon="5.41599">
        <ele>219</ele>
        <time>2022-09-25T09:23:38Z</time>
      </trkpt>
      <trkpt lat="45.80168" lon="5.41593">
        <ele>219</ele>
        <time>2022-09-25T09:23:39Z</time>
      </trkpt>
      <trkpt lat="45.80163" lon="5.41588">
        <ele>219</ele>
        <time>2022-09-25T09:23:40Z</time>
      </trkpt>
      <trkpt lat="45.80159" lon="5.41583">
        <ele>219</ele>
        <time>2022-09-25T09:23:41Z</time>
      </trkpt>
      <trkpt lat="45.80154" lon="5.41579">
        <ele>219.1</ele>
        <time>2022-09-25T09:23:42Z</time>
      </trkpt>
      <trkpt lat="45.80149" lon="5.41575">
        <ele>219.1</ele>
        <time>2022-09-25T09:23:43Z</time>
      </trkpt>
      <trkpt lat="45.80144" lon="5.41572">
        <ele>219.1</ele>
        <time>2022-09-25T09:23:44Z</time>
      </trkpt>
      <trkpt lat="45.80139" lon="5.41569">
        <ele>219.2</ele>
        <time>2022-09-25T09:23:45Z</time>
      </trkpt>
      <trkpt lat="45.80134" lon="5.41567">
        <ele>219.2</ele>
        <time>2022-09-25T09:23:46Z</time>
      </trkpt>
      <trkpt lat="45.80129" lon="5.41565">
        <ele>219.3</ele>
        <time>2022-09-25T09:23:47Z</time>
      </trkpt>
      <trkpt lat="45.80124" lon="5.41565">
        <ele>219.3</ele>
        <time>2022-09-25T09:23:48Z</time>
      </trkpt>
      <trkpt lat="45.80118" lon="5.41563">
        <ele>219.3</ele>
        <time>2022-09-25T09:23:49Z</time>
      </trkpt>
      <trkpt lat="45.80114" lon="5.41563">
        <ele>219.4</ele>
        <time>2022-09-25T09:23:50Z</time>
      </trkpt>
      <trkpt lat="45.80109" lon="5.41563">
        <ele>219.4</ele>
        <time>2022-09-25T09:23:51Z</time>
      </trkpt>
      <trkpt lat="45.80104" lon="5.41564">
        <ele>219.5</ele>
        <time>2022-09-25T09:23:52Z</time>
      </trkpt>
      <trkpt lat="45.801" lon="5.41565">
        <ele>219.5</ele>
        <time>2022-09-25T09:23:53Z</time>
      </trkpt>
      <trkpt lat="45.80096" lon="5.41568">
        <ele>219.6</ele>
        <time>2022-09-25T09:23:54Z</time>
      </trkpt>
      <trkpt lat="45.80094" lon="5.4157">
        <ele>219.6</ele>
        <time>2022-09-25T09:23:55Z</time>
      </trkpt>
      <trkpt lat="45.80094" lon="5.41575">
        <ele>219.6</ele>
        <time>2022-09-25T09:23:56Z</time>
      </trkpt>
      <trkpt lat="45.80092" lon="5.41579">
        <ele>219.5</ele>
        <time>2022-09-25T09:23:57Z</time>
      </trkpt>
      <trkpt lat="45.80089" lon="5.41581">
        <ele>219.4</ele>
        <time>2022-09-25T09:23:58Z</time>
      </trkpt>
      <trkpt lat="45.80089" lon="5.41582">
        <ele>219.4</ele>
        <time>2022-09-25T09:23:59Z</time>
      </trkpt>
      <trkpt lat="45.80087" lon="5.41585">
        <ele>219.3</ele>
        <time>2022-09-25T09:24:00Z</time>
      </trkpt>
      <trkpt lat="45.80085" lon="5.4159">
        <ele>219.2</ele>
        <time>2022-09-25T09:24:01Z</time>
      </trkpt>
      <trkpt lat="45.80083" lon="5.41595">
        <ele>219.1</ele>
        <time>2022-09-25T09:24:02Z</time>
      </trkpt>
      <trkpt lat="45.80081" lon="5.416">
        <ele>219</ele>
        <time>2022-09-25T09:24:03Z</time>
      </trkpt>
      <trkpt lat="45.80078" lon="5.41604">
        <ele>218.9</ele>
        <time>2022-09-25T09:24:04Z</time>
      </trkpt>
      <trkpt lat="45.80074" lon="5.41608">
        <ele>218.9</ele>
        <time>2022-09-25T09:24:05Z</time>
      </trkpt>
      <trkpt lat="45.80073" lon="5.41612">
        <ele>218.8</ele>
        <time>2022-09-25T09:24:06Z</time>
      </trkpt>
      <trkpt lat="45.8007" lon="5.41614">
        <ele>218.8</ele>
        <time>2022-09-25T09:24:07Z</time>
      </trkpt>
      <trkpt lat="45.80067" lon="5.41618">
        <ele>218.8</ele>
        <time>2022-09-25T09:24:08Z</time>
      </trkpt>
      <trkpt lat="45.80065" lon="5.41622">
        <ele>218.8</ele>
        <time>2022-09-25T09:24:09Z</time>
      </trkpt>
      <trkpt lat="45.80062" lon="5.41627">
        <ele>218.8</ele>
        <time>2022-09-25T09:24:10Z</time>
      </trkpt>
      <trkpt lat="45.80059" lon="5.41632">
        <ele>218.8</ele>
        <time>2022-09-25T09:24:11Z</time>
      </trkpt>
      <trkpt lat="45.80056" lon="5.41636">
        <ele>218.8</ele>
        <time>2022-09-25T09:24:12Z</time>
      </trkpt>
      <trkpt lat="45.80052" lon="5.41639">
        <ele>218.9</ele>
        <time>2022-09-25T09:24:13Z</time>
      </trkpt>
      <trkpt lat="45.80048" lon="5.41645">
        <ele>218.9</ele>
        <time>2022-09-25T09:24:14Z</time>
      </trkpt>
      <trkpt lat="45.80045" lon="5.41649">
        <ele>219</ele>
        <time>2022-09-25T09:24:15Z</time>
      </trkpt>
      <trkpt lat="45.80041" lon="5.41654">
        <ele>219.1</ele>
        <time>2022-09-25T09:24:16Z</time>
      </trkpt>
      <trkpt lat="45.80038" lon="5.41658">
        <ele>219.1</ele>
        <time>2022-09-25T09:24:17Z</time>
      </trkpt>
      <trkpt lat="45.80034" lon="5.4166">
        <ele>219.2</ele>
        <time>2022-09-25T09:24:18Z</time>
      </trkpt>
      <trkpt lat="45.8003" lon="5.41664">
        <ele>219.3</ele>
        <time>2022-09-25T09:24:19Z</time>
      </trkpt>
      <trkpt lat="45.80026" lon="5.41667">
        <ele>219.4</ele>
        <time>2022-09-25T09:24:20Z</time>
      </trkpt>
      <trkpt lat="45.80022" lon="5.41671">
        <ele>219.5</ele>
        <time>2022-09-25T09:24:21Z</time>
      </trkpt>
      <trkpt lat="45.80018" lon="5.41675">
        <ele>219.6</ele>
        <time>2022-09-25T09:24:22Z</time>
      </trkpt>
      <trkpt lat="45.80014" lon="5.41678">
        <ele>219.7</ele>
        <time>2022-09-25T09:24:23Z</time>
      </trkpt>
      <trkpt lat="45.8001" lon="5.41681">
        <ele>219.7</ele>
        <time>2022-09-25T09:24:24Z</time>
      </trkpt>
      <trkpt lat="45.80007" lon="5.41684">
        <ele>219.8</ele>
        <time>2022-09-25T09:24:25Z</time>
      </trkpt>
      <trkpt lat="45.80002" lon="5.41688">
        <ele>219.8</ele>
        <time>2022-09-25T09:24:26Z</time>
      </trkpt>
      <trkpt lat="45.79998" lon="5.41692">
        <ele>219.9</ele>
        <time>2022-09-25T09:24:27Z</time>
      </trkpt>
      <trkpt lat="45.79996" lon="5.41697">
        <ele>219.8</ele>
        <time>2022-09-25T09:24:28Z</time>
      </trkpt>
      <trkpt lat="45.79993" lon="5.41704">
        <ele>219.8</ele>
        <time>2022-09-25T09:24:29Z</time>
      </trkpt>
      <trkpt lat="45.79992" lon="5.4171">
        <ele>219.7</ele>
        <time>2022-09-25T09:24:30Z</time>
      </trkpt>
      <trkpt lat="45.79993" lon="5.41718">
        <ele>219.6</ele>
        <time>2022-09-25T09:24:31Z</time>
      </trkpt>
      <trkpt lat="45.79995" lon="5.41725">
        <ele>219.4</ele>
        <time>2022-09-25T09:24:32Z</time>
      </trkpt>
      <trkpt lat="45.79996" lon="5.41733">
        <ele>219.3</ele>
        <time>2022-09-25T09:24:33Z</time>
      </trkpt>
      <trkpt lat="45.79998" lon="5.41741">
        <ele>219.2</ele>
        <time>2022-09-25T09:24:34Z</time>
      </trkpt>
      <trkpt lat="45.80001" lon="5.41749">
        <ele>219</ele>
        <time>2022-09-25T09:24:35Z</time>
      </trkpt>
      <trkpt lat="45.80003" lon="5.41757">
        <ele>218.9</ele>
        <time>2022-09-25T09:24:36Z</time>
      </trkpt>
      <trkpt lat="45.80005" lon="5.41766">
        <ele>218.8</ele>
        <time>2022-09-25T09:24:37Z</time>
      </trkpt>
      <trkpt lat="45.80008" lon="5.41774">
        <ele>218.6</ele>
        <time>2022-09-25T09:24:38Z</time>
      </trkpt>
      <trkpt lat="45.8001" lon="5.41782">
        <ele>218.5</ele>
        <time>2022-09-25T09:24:39Z</time>
      </trkpt>
      <trkpt lat="45.80013" lon="5.4179">
        <ele>218.5</ele>
        <time>2022-09-25T09:24:40Z</time>
      </trkpt>
      <trkpt lat="45.80016" lon="5.41798">
        <ele>218.4</ele>
        <time>2022-09-25T09:24:41Z</time>
      </trkpt>
      <trkpt lat="45.80021" lon="5.41815">
        <ele>218.4</ele>
        <time>2022-09-25T09:24:42Z</time>
      </trkpt>
      <trkpt lat="45.80023" lon="5.41823">
        <ele>218.3</ele>
        <time>2022-09-25T09:24:43Z</time>
      </trkpt>
      <trkpt lat="45.80026" lon="5.41831">
        <ele>218.3</ele>
        <time>2022-09-25T09:24:44Z</time>
      </trkpt>
      <trkpt lat="45.80029" lon="5.41839">
        <ele>218.3</ele>
        <time>2022-09-25T09:24:45Z</time>
      </trkpt>
      <trkpt lat="45.8003" lon="5.41846">
        <ele>218.3</ele>
        <time>2022-09-25T09:24:46Z</time>
      </trkpt>
      <trkpt lat="45.80032" lon="5.41853">
        <ele>218.3</ele>
        <time>2022-09-25T09:24:47Z</time>
      </trkpt>
      <trkpt lat="45.80035" lon="5.41861">
        <ele>218.2</ele>
        <time>2022-09-25T09:24:48Z</time>
      </trkpt>
      <trkpt lat="45.80038" lon="5.41868">
        <ele>218.2</ele>
        <time>2022-09-25T09:24:49Z</time>
      </trkpt>
      <trkpt lat="45.8004" lon="5.41876">
        <ele>218.2</ele>
        <time>2022-09-25T09:24:50Z</time>
      </trkpt>
      <trkpt lat="45.80042" lon="5.41883">
        <ele>218.2</ele>
        <time>2022-09-25T09:24:51Z</time>
      </trkpt>
      <trkpt lat="45.80045" lon="5.41891">
        <ele>218.2</ele>
        <time>2022-09-25T09:24:52Z</time>
      </trkpt>
      <trkpt lat="45.80047" lon="5.419">
        <ele>218.2</ele>
        <time>2022-09-25T09:24:53Z</time>
      </trkpt>
      <trkpt lat="45.80049" lon="5.41907">
        <ele>218.2</ele>
        <time>2022-09-25T09:24:54Z</time>
      </trkpt>
      <trkpt lat="45.80052" lon="5.41915">
        <ele>218.2</ele>
        <time>2022-09-25T09:24:55Z</time>
      </trkpt>
      <trkpt lat="45.80054" lon="5.41923">
        <ele>218.2</ele>
        <time>2022-09-25T09:24:56Z</time>
      </trkpt>
      <trkpt lat="45.80056" lon="5.4193">
        <ele>218.3</ele>
        <time>2022-09-25T09:24:57Z</time>
      </trkpt>
      <trkpt lat="45.80059" lon="5.41937">
        <ele>218.3</ele>
        <time>2022-09-25T09:24:58Z</time>
      </trkpt>
      <trkpt lat="45.80061" lon="5.41944">
        <ele>218.4</ele>
        <time>2022-09-25T09:24:59Z</time>
      </trkpt>
      <trkpt lat="45.80063" lon="5.41951">
        <ele>218.5</ele>
        <time>2022-09-25T09:25:00Z</time>
      </trkpt>
      <trkpt lat="45.80066" lon="5.41957">
        <ele>218.6</ele>
        <time>2022-09-25T09:25:01Z</time>
      </trkpt>
      <trkpt lat="45.80068" lon="5.41964">
        <ele>218.8</ele>
        <time>2022-09-25T09:25:02Z</time>
      </trkpt>
      <trkpt lat="45.8007" lon="5.4197">
        <ele>218.9</ele>
        <time>2022-09-25T09:25:03Z</time>
      </trkpt>
      <trkpt lat="45.80072" lon="5.41976">
        <ele>219</ele>
        <time>2022-09-25T09:25:04Z</time>
      </trkpt>
      <trkpt lat="45.80075" lon="5.41981">
        <ele>219.1</ele>
        <time>2022-09-25T09:25:05Z</time>
      </trkpt>
      <trkpt lat="45.80077" lon="5.41987">
        <ele>219.3</ele>
        <time>2022-09-25T09:25:06Z</time>
      </trkpt>
      <trkpt lat="45.80079" lon="5.41992">
        <ele>219.4</ele>
        <time>2022-09-25T09:25:07Z</time>
      </trkpt>
      <trkpt lat="45.80081" lon="5.41997">
        <ele>219.5</ele>
        <time>2022-09-25T09:25:08Z</time>
      </trkpt>
      <trkpt lat="45.80083" lon="5.42001">
        <ele>219.6</ele>
        <time>2022-09-25T09:25:09Z</time>
      </trkpt>
      <trkpt lat="45.80085" lon="5.42005">
        <ele>219.8</ele>
        <time>2022-09-25T09:25:10Z</time>
      </trkpt>
      <trkpt lat="45.80087" lon="5.42008">
        <ele>219.9</ele>
        <time>2022-09-25T09:25:11Z</time>
      </trkpt>
      <trkpt lat="45.80089" lon="5.42011">
        <ele>220</ele>
        <time>2022-09-25T09:25:12Z</time>
      </trkpt>
      <trkpt lat="45.80089" lon="5.42013">
        <ele>220</ele>
        <time>2022-09-25T09:25:13Z</time>
      </trkpt>
      <trkpt lat="45.8009" lon="5.42014">
        <ele>220.1</ele>
        <time>2022-09-25T09:25:14Z</time>
      </trkpt>
      <trkpt lat="45.8009" lon="5.42014">
        <ele>220.1</ele>
        <time>2022-09-25T09:25:15Z</time>
      </trkpt>
      <trkpt lat="45.8009" lon="5.42014">
        <ele>220.1</ele>
        <time>2022-09-25T09:25:16Z</time>
      </trkpt>
      <trkpt lat="45.8009" lon="5.42014">
        <ele>220.1</ele>
        <time>2022-09-25T09:25:17Z</time>
      </trkpt>
      <trkpt lat="45.80091" lon="5.42014">
        <ele>220.1</ele>
        <time>2022-09-25T09:25:18Z</time>
      </trkpt>
      <trkpt lat="45.80091" lon="5.42015">
        <ele>220.1</ele>
        <time>2022-09-25T09:25:19Z</time>
      </trkpt>
      <trkpt lat="45.80091" lon="5.42015">
        <ele>220.1</ele>
        <time>2022-09-25T09:25:20Z</time>
      </trkpt>
      <trkpt lat="45.80092" lon="5.42015">
        <ele>220.2</ele>
        <time>2022-09-25T09:25:21Z</time>
      </trkpt>
      <trkpt lat="45.80092" lon="5.42015">
        <ele>220.2</ele>
        <time>2022-09-25T09:25:22Z</time>
      </trkpt>
      <trkpt lat="45.80092" lon="5.42016">
        <ele>220.2</ele>
        <time>2022-09-25T09:25:23Z</time>
      </trkpt>
      <trkpt lat="45.80093" lon="5.42017">
        <ele>220.2</ele>
        <time>2022-09-25T09:25:24Z</time>
      </trkpt>
      <trkpt lat="45.80095" lon="5.42019">
        <ele>220.2</ele>
        <time>2022-09-25T09:25:25Z</time>
      </trkpt>
      <trkpt lat="45.80096" lon="5.42023">
        <ele>220.2</ele>
        <time>2022-09-25T09:25:26Z</time>
      </trkpt>
      <trkpt lat="45.80097" lon="5.42025">
        <ele>220.2</ele>
        <time>2022-09-25T09:25:27Z</time>
      </trkpt>
      <trkpt lat="45.80099" lon="5.42029">
        <ele>220.2</ele>
        <time>2022-09-25T09:25:28Z</time>
      </trkpt>
      <trkpt lat="45.801" lon="5.42031">
        <ele>220.2</ele>
        <time>2022-09-25T09:25:29Z</time>
      </trkpt>
      <trkpt lat="45.801" lon="5.42034">
        <ele>220.2</ele>
        <time>2022-09-25T09:25:30Z</time>
      </trkpt>
      <trkpt lat="45.801" lon="5.42038">
        <ele>220.2</ele>
        <time>2022-09-25T09:25:32Z</time>
      </trkpt>
      <trkpt lat="45.80098" lon="5.42042">
        <ele>220.2</ele>
        <time>2022-09-25T09:25:33Z</time>
      </trkpt>
      <trkpt lat="45.80095" lon="5.42044">
        <ele>220.2</ele>
        <time>2022-09-25T09:25:34Z</time>
      </trkpt>
      <trkpt lat="45.80091" lon="5.42045">
        <ele>220.2</ele>
        <time>2022-09-25T09:25:35Z</time>
      </trkpt>
      <trkpt lat="45.80088" lon="5.42046">
        <ele>220.2</ele>
        <time>2022-09-25T09:25:36Z</time>
      </trkpt>
      <trkpt lat="45.80086" lon="5.42049">
        <ele>220.2</ele>
        <time>2022-09-25T09:25:37Z</time>
      </trkpt>
      <trkpt lat="45.80084" lon="5.42052">
        <ele>220.2</ele>
        <time>2022-09-25T09:25:38Z</time>
      </trkpt>
      <trkpt lat="45.80081" lon="5.42056">
        <ele>220.2</ele>
        <time>2022-09-25T09:25:39Z</time>
      </trkpt>
      <trkpt lat="45.80079" lon="5.42058">
        <ele>220.2</ele>
        <time>2022-09-25T09:25:40Z</time>
      </trkpt>
      <trkpt lat="45.80076" lon="5.42059">
        <ele>220.2</ele>
        <time>2022-09-25T09:25:41Z</time>
      </trkpt>
      <trkpt lat="45.80073" lon="5.4206">
        <ele>220.2</ele>
        <time>2022-09-25T09:25:42Z</time>
      </trkpt>
      <trkpt lat="45.80071" lon="5.42061">
        <ele>220.2</ele>
        <time>2022-09-25T09:25:43Z</time>
      </trkpt>
      <trkpt lat="45.80069" lon="5.42064">
        <ele>220.2</ele>
        <time>2022-09-25T09:25:44Z</time>
      </trkpt>
      <trkpt lat="45.80066" lon="5.42066">
        <ele>220.2</ele>
        <time>2022-09-25T09:25:45Z</time>
      </trkpt>
      <trkpt lat="45.80063" lon="5.42069">
        <ele>220.1</ele>
        <time>2022-09-25T09:25:46Z</time>
      </trkpt>
      <trkpt lat="45.80059" lon="5.4207">
        <ele>220.1</ele>
        <time>2022-09-25T09:25:47Z</time>
      </trkpt>
      <trkpt lat="45.80055" lon="5.42072">
        <ele>220</ele>
        <time>2022-09-25T09:25:48Z</time>
      </trkpt>
      <trkpt lat="45.80051" lon="5.42072">
        <ele>220</ele>
        <time>2022-09-25T09:25:49Z</time>
      </trkpt>
      <trkpt lat="45.80047" lon="5.42073">
        <ele>219.9</ele>
        <time>2022-09-25T09:25:50Z</time>
      </trkpt>
      <trkpt lat="45.80043" lon="5.42073">
        <ele>219.9</ele>
        <time>2022-09-25T09:25:51Z</time>
      </trkpt>
      <trkpt lat="45.80039" lon="5.42079">
        <ele>219.8</ele>
        <time>2022-09-25T09:25:52Z</time>
      </trkpt>
      <trkpt lat="45.80034" lon="5.42082">
        <ele>219.7</ele>
        <time>2022-09-25T09:25:53Z</time>
      </trkpt>
      <trkpt lat="45.8003" lon="5.42086">
        <ele>219.6</ele>
        <time>2022-09-25T09:25:54Z</time>
      </trkpt>
      <trkpt lat="45.80025" lon="5.42089">
        <ele>219.6</ele>
        <time>2022-09-25T09:25:55Z</time>
      </trkpt>
      <trkpt lat="45.80021" lon="5.42092">
        <ele>219.6</ele>
        <time>2022-09-25T09:25:56Z</time>
      </trkpt>
      <trkpt lat="45.80016" lon="5.42097">
        <ele>219.6</ele>
        <time>2022-09-25T09:25:57Z</time>
      </trkpt>
      <trkpt lat="45.80012" lon="5.421">
        <ele>219.6</ele>
        <time>2022-09-25T09:25:58Z</time>
      </trkpt>
      <trkpt lat="45.80008" lon="5.42104">
        <ele>219.6</ele>
        <time>2022-09-25T09:25:59Z</time>
      </trkpt>
      <trkpt lat="45.80003" lon="5.42108">
        <ele>219.6</ele>
        <time>2022-09-25T09:26:00Z</time>
      </trkpt>
      <trkpt lat="45.79999" lon="5.42112">
        <ele>219.6</ele>
        <time>2022-09-25T09:26:01Z</time>
      </trkpt>
      <trkpt lat="45.79995" lon="5.42116">
        <ele>219.6</ele>
        <time>2022-09-25T09:26:02Z</time>
      </trkpt>
      <trkpt lat="45.7999" lon="5.4212">
        <ele>219.7</ele>
        <time>2022-09-25T09:26:03Z</time>
      </trkpt>
      <trkpt lat="45.79986" lon="5.42123">
        <ele>219.7</ele>
        <time>2022-09-25T09:26:04Z</time>
      </trkpt>
      <trkpt lat="45.79982" lon="5.42127">
        <ele>219.7</ele>
        <time>2022-09-25T09:26:05Z</time>
      </trkpt>
      <trkpt lat="45.79978" lon="5.4213">
        <ele>219.8</ele>
        <time>2022-09-25T09:26:06Z</time>
      </trkpt>
      <trkpt lat="45.79974" lon="5.42133">
        <ele>219.8</ele>
        <time>2022-09-25T09:26:07Z</time>
      </trkpt>
      <trkpt lat="45.7997" lon="5.42135">
        <ele>219.9</ele>
        <time>2022-09-25T09:26:08Z</time>
      </trkpt>
      <trkpt lat="45.79967" lon="5.42138">
        <ele>219.9</ele>
        <time>2022-09-25T09:26:09Z</time>
      </trkpt>
      <trkpt lat="45.79966" lon="5.42139">
        <ele>219.9</ele>
        <time>2022-09-25T09:26:10Z</time>
      </trkpt>
      <trkpt lat="45.79966" lon="5.42143">
        <ele>219.9</ele>
        <time>2022-09-25T09:26:11Z</time>
      </trkpt>
      <trkpt lat="45.79967" lon="5.42148">
        <ele>219.8</ele>
        <time>2022-09-25T09:26:12Z</time>
      </trkpt>
      <trkpt lat="45.79968" lon="5.42154">
        <ele>219.7</ele>
        <time>2022-09-25T09:26:13Z</time>
      </trkpt>
      <trkpt lat="45.79969" lon="5.4216">
        <ele>219.6</ele>
        <time>2022-09-25T09:26:14Z</time>
      </trkpt>
      <trkpt lat="45.7997" lon="5.42167">
        <ele>219.5</ele>
        <time>2022-09-25T09:26:15Z</time>
      </trkpt>
      <trkpt lat="45.79971" lon="5.42175">
        <ele>219.4</ele>
        <time>2022-09-25T09:26:16Z</time>
      </trkpt>
      <trkpt lat="45.79972" lon="5.42182">
        <ele>219.4</ele>
        <time>2022-09-25T09:26:17Z</time>
      </trkpt>
      <trkpt lat="45.79973" lon="5.4219">
        <ele>219.4</ele>
        <time>2022-09-25T09:26:18Z</time>
      </trkpt>
      <trkpt lat="45.79974" lon="5.42198">
        <ele>219.4</ele>
        <time>2022-09-25T09:26:19Z</time>
      </trkpt>
      <trkpt lat="45.79975" lon="5.42206">
        <ele>219.4</ele>
        <time>2022-09-25T09:26:20Z</time>
      </trkpt>
      <trkpt lat="45.79975" lon="5.42214">
        <ele>219.4</ele>
        <time>2022-09-25T09:26:21Z</time>
      </trkpt>
      <trkpt lat="45.79977" lon="5.42223">
        <ele>219.4</ele>
        <time>2022-09-25T09:26:22Z</time>
      </trkpt>
      <trkpt lat="45.79978" lon="5.42231">
        <ele>219.4</ele>
        <time>2022-09-25T09:26:23Z</time>
      </trkpt>
      <trkpt lat="45.79979" lon="5.42239">
        <ele>219.4</ele>
        <time>2022-09-25T09:26:24Z</time>
      </trkpt>
      <trkpt lat="45.7998" lon="5.42247">
        <ele>219.5</ele>
        <time>2022-09-25T09:26:25Z</time>
      </trkpt>
      <trkpt lat="45.79981" lon="5.42255">
        <ele>219.5</ele>
        <time>2022-09-25T09:26:26Z</time>
      </trkpt>
      <trkpt lat="45.79982" lon="5.42263">
        <ele>219.5</ele>
        <time>2022-09-25T09:26:27Z</time>
      </trkpt>
      <trkpt lat="45.79984" lon="5.42271">
        <ele>219.5</ele>
        <time>2022-09-25T09:26:28Z</time>
      </trkpt>
      <trkpt lat="45.79985" lon="5.42279">
        <ele>219.6</ele>
        <time>2022-09-25T09:26:29Z</time>
      </trkpt>
      <trkpt lat="45.79986" lon="5.42287">
        <ele>219.6</ele>
        <time>2022-09-25T09:26:30Z</time>
      </trkpt>
      <trkpt lat="45.79987" lon="5.42295">
        <ele>219.6</ele>
        <time>2022-09-25T09:26:31Z</time>
      </trkpt>
      <trkpt lat="45.79988" lon="5.42303">
        <ele>219.6</ele>
        <time>2022-09-25T09:26:32Z</time>
      </trkpt>
      <trkpt lat="45.7999" lon="5.42311">
        <ele>219.6</ele>
        <time>2022-09-25T09:26:33Z</time>
      </trkpt>
      <trkpt lat="45.79991" lon="5.42319">
        <ele>219.6</ele>
        <time>2022-09-25T09:26:34Z</time>
      </trkpt>
      <trkpt lat="45.79992" lon="5.42327">
        <ele>219.5</ele>
        <time>2022-09-25T09:26:35Z</time>
      </trkpt>
      <trkpt lat="45.79993" lon="5.42335">
        <ele>219.5</ele>
        <time>2022-09-25T09:26:36Z</time>
      </trkpt>
      <trkpt lat="45.79994" lon="5.42343">
        <ele>219.5</ele>
        <time>2022-09-25T09:26:37Z</time>
      </trkpt>
      <trkpt lat="45.79995" lon="5.42352">
        <ele>219.5</ele>
        <time>2022-09-25T09:26:38Z</time>
      </trkpt>
      <trkpt lat="45.79997" lon="5.4236">
        <ele>219.4</ele>
        <time>2022-09-25T09:26:39Z</time>
      </trkpt>
      <trkpt lat="45.79999" lon="5.42377">
        <ele>219.4</ele>
        <time>2022-09-25T09:26:40Z</time>
      </trkpt>
      <trkpt lat="45.80001" lon="5.42384">
        <ele>219.4</ele>
        <time>2022-09-25T09:26:41Z</time>
      </trkpt>
      <trkpt lat="45.80001" lon="5.42391">
        <ele>219.4</ele>
        <time>2022-09-25T09:26:42Z</time>
      </trkpt>
      <trkpt lat="45.80004" lon="5.42398">
        <ele>219.4</ele>
        <time>2022-09-25T09:26:43Z</time>
      </trkpt>
      <trkpt lat="45.80005" lon="5.42404">
        <ele>219.5</ele>
        <time>2022-09-25T09:26:44Z</time>
      </trkpt>
      <trkpt lat="45.80005" lon="5.4241">
        <ele>219.5</ele>
        <time>2022-09-25T09:26:45Z</time>
      </trkpt>
      <trkpt lat="45.80006" lon="5.42415">
        <ele>219.5</ele>
        <time>2022-09-25T09:26:46Z</time>
      </trkpt>
      <trkpt lat="45.80007" lon="5.42416">
        <ele>219.5</ele>
        <time>2022-09-25T09:26:47Z</time>
      </trkpt>
      <trkpt lat="45.80007" lon="5.42419">
        <ele>219.5</ele>
        <time>2022-09-25T09:26:48Z</time>
      </trkpt>
      <trkpt lat="45.80008" lon="5.42421">
        <ele>219.5</ele>
        <time>2022-09-25T09:26:49Z</time>
      </trkpt>
      <trkpt lat="45.8001" lon="5.42424">
        <ele>219.6</ele>
        <time>2022-09-25T09:26:50Z</time>
      </trkpt>
      <trkpt lat="45.80011" lon="5.42426">
        <ele>219.6</ele>
        <time>2022-09-25T09:26:51Z</time>
      </trkpt>
      <trkpt lat="45.80012" lon="5.42431">
        <ele>219.6</ele>
        <time>2022-09-25T09:26:52Z</time>
      </trkpt>
      <trkpt lat="45.80013" lon="5.42435">
        <ele>219.6</ele>
        <time>2022-09-25T09:26:53Z</time>
      </trkpt>
      <trkpt lat="45.80013" lon="5.42439">
        <ele>219.7</ele>
        <time>2022-09-25T09:26:54Z</time>
      </trkpt>
      <trkpt lat="45.80014" lon="5.42443">
        <ele>219.7</ele>
        <time>2022-09-25T09:26:55Z</time>
      </trkpt>
      <trkpt lat="45.80013" lon="5.42448">
        <ele>219.8</ele>
        <time>2022-09-25T09:26:56Z</time>
      </trkpt>
      <trkpt lat="45.80012" lon="5.42453">
        <ele>220</ele>
        <time>2022-09-25T09:26:57Z</time>
      </trkpt>
      <trkpt lat="45.80011" lon="5.42456">
        <ele>220.1</ele>
        <time>2022-09-25T09:26:58Z</time>
      </trkpt>
      <trkpt lat="45.8001" lon="5.42457">
        <ele>220.1</ele>
        <time>2022-09-25T09:26:59Z</time>
      </trkpt>
      <trkpt lat="45.80009" lon="5.42462">
        <ele>220.3</ele>
        <time>2022-09-25T09:27:00Z</time>
      </trkpt>
      <trkpt lat="45.80007" lon="5.42467">
        <ele>220.4</ele>
        <time>2022-09-25T09:27:01Z</time>
      </trkpt>
      <trkpt lat="45.80006" lon="5.42469">
        <ele>220.4</ele>
        <time>2022-09-25T09:27:02Z</time>
      </trkpt>
      <trkpt lat="45.80004" lon="5.42474">
        <ele>220.6</ele>
        <time>2022-09-25T09:27:03Z</time>
      </trkpt>
      <trkpt lat="45.80002" lon="5.42476">
        <ele>220.6</ele>
        <time>2022-09-25T09:27:04Z</time>
      </trkpt>
      <trkpt lat="45.8" lon="5.42479">
        <ele>220.7</ele>
        <time>2022-09-25T09:27:05Z</time>
      </trkpt>
      <trkpt lat="45.79998" lon="5.42483">
        <ele>220.7</ele>
        <time>2022-09-25T09:27:06Z</time>
      </trkpt>
      <trkpt lat="45.79995" lon="5.42485">
        <ele>220.8</ele>
        <time>2022-09-25T09:27:07Z</time>
      </trkpt>
      <trkpt lat="45.79995" lon="5.42486">
        <ele>220.8</ele>
        <time>2022-09-25T09:27:08Z</time>
      </trkpt>
      <trkpt lat="45.79991" lon="5.42488">
        <ele>220.8</ele>
        <time>2022-09-25T09:27:09Z</time>
      </trkpt>
      <trkpt lat="45.79988" lon="5.4249">
        <ele>220.9</ele>
        <time>2022-09-25T09:27:10Z</time>
      </trkpt>
      <trkpt lat="45.79985" lon="5.42491">
        <ele>220.9</ele>
        <time>2022-09-25T09:27:11Z</time>
      </trkpt>
      <trkpt lat="45.7998" lon="5.42493">
        <ele>220.9</ele>
        <time>2022-09-25T09:27:12Z</time>
      </trkpt>
      <trkpt lat="45.79977" lon="5.42493">
        <ele>220.9</ele>
        <time>2022-09-25T09:27:13Z</time>
      </trkpt>
      <trkpt lat="45.79973" lon="5.42492">
        <ele>220.8</ele>
        <time>2022-09-25T09:27:14Z</time>
      </trkpt>
      <trkpt lat="45.79972" lon="5.42493">
        <ele>220.8</ele>
        <time>2022-09-25T09:27:15Z</time>
      </trkpt>
      <trkpt lat="45.79969" lon="5.42494">
        <ele>220.8</ele>
        <time>2022-09-25T09:27:16Z</time>
      </trkpt>
      <trkpt lat="45.79966" lon="5.42496">
        <ele>220.8</ele>
        <time>2022-09-25T09:27:17Z</time>
      </trkpt>
      <trkpt lat="45.79961" lon="5.42499">
        <ele>220.7</ele>
        <time>2022-09-25T09:27:18Z</time>
      </trkpt>
      <trkpt lat="45.79957" lon="5.42501">
        <ele>220.7</ele>
        <time>2022-09-25T09:27:19Z</time>
      </trkpt>
      <trkpt lat="45.79954" lon="5.42506">
        <ele>220.7</ele>
        <time>2022-09-25T09:27:20Z</time>
      </trkpt>
      <trkpt lat="45.79951" lon="5.42512">
        <ele>220.6</ele>
        <time>2022-09-25T09:27:21Z</time>
      </trkpt>
      <trkpt lat="45.79948" lon="5.42515">
        <ele>220.6</ele>
        <time>2022-09-25T09:27:22Z</time>
      </trkpt>
      <trkpt lat="45.79944" lon="5.4252">
        <ele>220.6</ele>
        <time>2022-09-25T09:27:23Z</time>
      </trkpt>
      <trkpt lat="45.79941" lon="5.42526">
        <ele>220.6</ele>
        <time>2022-09-25T09:27:24Z</time>
      </trkpt>
      <trkpt lat="45.79938" lon="5.4253">
        <ele>220.7</ele>
        <time>2022-09-25T09:27:25Z</time>
      </trkpt>
      <trkpt lat="45.79934" lon="5.42535">
        <ele>220.7</ele>
        <time>2022-09-25T09:27:26Z</time>
      </trkpt>
      <trkpt lat="45.79931" lon="5.42539">
        <ele>220.7</ele>
        <time>2022-09-25T09:27:27Z</time>
      </trkpt>
      <trkpt lat="45.79927" lon="5.42544">
        <ele>220.7</ele>
        <time>2022-09-25T09:27:28Z</time>
      </trkpt>
      <trkpt lat="45.79923" lon="5.42547">
        <ele>220.7</ele>
        <time>2022-09-25T09:27:29Z</time>
      </trkpt>
      <trkpt lat="45.79919" lon="5.42551">
        <ele>220.8</ele>
        <time>2022-09-25T09:27:30Z</time>
      </trkpt>
      <trkpt lat="45.79917" lon="5.42554">
        <ele>220.8</ele>
        <time>2022-09-25T09:27:31Z</time>
      </trkpt>
      <trkpt lat="45.79913" lon="5.42559">
        <ele>220.9</ele>
        <time>2022-09-25T09:27:32Z</time>
      </trkpt>
      <trkpt lat="45.7991" lon="5.42565">
        <ele>220.9</ele>
        <time>2022-09-25T09:27:33Z</time>
      </trkpt>
      <trkpt lat="45.79906" lon="5.4257">
        <ele>221</ele>
        <time>2022-09-25T09:27:34Z</time>
      </trkpt>
      <trkpt lat="45.79903" lon="5.42576">
        <ele>221</ele>
        <time>2022-09-25T09:27:35Z</time>
      </trkpt>
      <trkpt lat="45.79899" lon="5.4258">
        <ele>221.1</ele>
        <time>2022-09-25T09:27:36Z</time>
      </trkpt>
      <trkpt lat="45.79896" lon="5.42584">
        <ele>221.1</ele>
        <time>2022-09-25T09:27:38Z</time>
      </trkpt>
      <trkpt lat="45.79892" lon="5.4259">
        <ele>221.3</ele>
        <time>2022-09-25T09:27:39Z</time>
      </trkpt>
      <trkpt lat="45.79887" lon="5.42596">
        <ele>221.4</ele>
        <time>2022-09-25T09:27:40Z</time>
      </trkpt>
      <trkpt lat="45.79885" lon="5.42601">
        <ele>221.5</ele>
        <time>2022-09-25T09:27:41Z</time>
      </trkpt>
      <trkpt lat="45.79882" lon="5.42606">
        <ele>221.7</ele>
        <time>2022-09-25T09:27:42Z</time>
      </trkpt>
      <trkpt lat="45.79878" lon="5.42611">
        <ele>221.8</ele>
        <time>2022-09-25T09:27:43Z</time>
      </trkpt>
      <trkpt lat="45.79875" lon="5.42615">
        <ele>222</ele>
        <time>2022-09-25T09:27:44Z</time>
      </trkpt>
      <trkpt lat="45.79871" lon="5.4262">
        <ele>222.1</ele>
        <time>2022-09-25T09:27:45Z</time>
      </trkpt>
      <trkpt lat="45.79869" lon="5.42624">
        <ele>222.3</ele>
        <time>2022-09-25T09:27:46Z</time>
      </trkpt>
      <trkpt lat="45.79865" lon="5.42629">
        <ele>222.4</ele>
        <time>2022-09-25T09:27:47Z</time>
      </trkpt>
      <trkpt lat="45.79862" lon="5.42633">
        <ele>222.6</ele>
        <time>2022-09-25T09:27:48Z</time>
      </trkpt>
      <trkpt lat="45.79859" lon="5.42637">
        <ele>222.7</ele>
        <time>2022-09-25T09:27:49Z</time>
      </trkpt>
      <trkpt lat="45.79857" lon="5.42641">
        <ele>222.8</ele>
        <time>2022-09-25T09:27:50Z</time>
      </trkpt>
      <trkpt lat="45.79855" lon="5.42644">
        <ele>222.9</ele>
        <time>2022-09-25T09:27:51Z</time>
      </trkpt>
      <trkpt lat="45.79852" lon="5.42648">
        <ele>222.9</ele>
        <time>2022-09-25T09:27:52Z</time>
      </trkpt>
      <trkpt lat="45.7985" lon="5.42652">
        <ele>223</ele>
        <time>2022-09-25T09:27:53Z</time>
      </trkpt>
      <trkpt lat="45.79848" lon="5.42656">
        <ele>223</ele>
        <time>2022-09-25T09:27:54Z</time>
      </trkpt>
      <trkpt lat="45.79845" lon="5.42661">
        <ele>223</ele>
        <time>2022-09-25T09:27:55Z</time>
      </trkpt>
      <trkpt lat="45.79843" lon="5.42664">
        <ele>223</ele>
        <time>2022-09-25T09:27:56Z</time>
      </trkpt>
      <trkpt lat="45.79841" lon="5.42671">
        <ele>223</ele>
        <time>2022-09-25T09:27:57Z</time>
      </trkpt>
      <trkpt lat="45.7984" lon="5.42675">
        <ele>222.9</ele>
        <time>2022-09-25T09:27:58Z</time>
      </trkpt>
      <trkpt lat="45.79839" lon="5.4268">
        <ele>222.9</ele>
        <time>2022-09-25T09:27:59Z</time>
      </trkpt>
      <trkpt lat="45.79837" lon="5.42687">
        <ele>222.8</ele>
        <time>2022-09-25T09:28:00Z</time>
      </trkpt>
      <trkpt lat="45.79835" lon="5.42693">
        <ele>222.8</ele>
        <time>2022-09-25T09:28:01Z</time>
      </trkpt>
      <trkpt lat="45.79833" lon="5.427">
        <ele>222.7</ele>
        <time>2022-09-25T09:28:02Z</time>
      </trkpt>
      <trkpt lat="45.79832" lon="5.42708">
        <ele>222.6</ele>
        <time>2022-09-25T09:28:03Z</time>
      </trkpt>
      <trkpt lat="45.7983" lon="5.42713">
        <ele>222.6</ele>
        <time>2022-09-25T09:28:04Z</time>
      </trkpt>
      <trkpt lat="45.7983" lon="5.42719">
        <ele>222.5</ele>
        <time>2022-09-25T09:28:05Z</time>
      </trkpt>
      <trkpt lat="45.79827" lon="5.42727">
        <ele>222.4</ele>
        <time>2022-09-25T09:28:06Z</time>
      </trkpt>
      <trkpt lat="45.79824" lon="5.42735">
        <ele>222.3</ele>
        <time>2022-09-25T09:28:07Z</time>
      </trkpt>
      <trkpt lat="45.79822" lon="5.42742">
        <ele>222.3</ele>
        <time>2022-09-25T09:28:08Z</time>
      </trkpt>
      <trkpt lat="45.79819" lon="5.42749">
        <ele>222.2</ele>
        <time>2022-09-25T09:28:09Z</time>
      </trkpt>
      <trkpt lat="45.79818" lon="5.42757">
        <ele>222.1</ele>
        <time>2022-09-25T09:28:10Z</time>
      </trkpt>
      <trkpt lat="45.79815" lon="5.42765">
        <ele>222.1</ele>
        <time>2022-09-25T09:28:11Z</time>
      </trkpt>
      <trkpt lat="45.79813" lon="5.42772">
        <ele>222</ele>
        <time>2022-09-25T09:28:12Z</time>
      </trkpt>
      <trkpt lat="45.7981" lon="5.42781">
        <ele>221.9</ele>
        <time>2022-09-25T09:28:13Z</time>
      </trkpt>
      <trkpt lat="45.79806" lon="5.42789">
        <ele>221.9</ele>
        <time>2022-09-25T09:28:14Z</time>
      </trkpt>
      <trkpt lat="45.79804" lon="5.42797">
        <ele>221.9</ele>
        <time>2022-09-25T09:28:15Z</time>
      </trkpt>
      <trkpt lat="45.79802" lon="5.42804">
        <ele>221.9</ele>
        <time>2022-09-25T09:28:16Z</time>
      </trkpt>
      <trkpt lat="45.79799" lon="5.42811">
        <ele>221.9</ele>
        <time>2022-09-25T09:28:17Z</time>
      </trkpt>
      <trkpt lat="45.79797" lon="5.42819">
        <ele>221.9</ele>
        <time>2022-09-25T09:28:18Z</time>
      </trkpt>
      <trkpt lat="45.79795" lon="5.42826">
        <ele>221.9</ele>
        <time>2022-09-25T09:28:19Z</time>
      </trkpt>
      <trkpt lat="45.79793" lon="5.42832">
        <ele>222</ele>
        <time>2022-09-25T09:28:20Z</time>
      </trkpt>
      <trkpt lat="45.79791" lon="5.42837">
        <ele>222</ele>
        <time>2022-09-25T09:28:21Z</time>
      </trkpt>
      <trkpt lat="45.79788" lon="5.42842">
        <ele>222</ele>
        <time>2022-09-25T09:28:22Z</time>
      </trkpt>
      <trkpt lat="45.79785" lon="5.42849">
        <ele>222</ele>
        <time>2022-09-25T09:28:23Z</time>
      </trkpt>
      <trkpt lat="45.79782" lon="5.42855">
        <ele>222.1</ele>
        <time>2022-09-25T09:28:24Z</time>
      </trkpt>
      <trkpt lat="45.7978" lon="5.42862">
        <ele>222.1</ele>
        <time>2022-09-25T09:28:25Z</time>
      </trkpt>
      <trkpt lat="45.79777" lon="5.42868">
        <ele>222.1</ele>
        <time>2022-09-25T09:28:26Z</time>
      </trkpt>
      <trkpt lat="45.79775" lon="5.42874">
        <ele>222.1</ele>
        <time>2022-09-25T09:28:27Z</time>
      </trkpt>
      <trkpt lat="45.79772" lon="5.4288">
        <ele>222.2</ele>
        <time>2022-09-25T09:28:28Z</time>
      </trkpt>
      <trkpt lat="45.7977" lon="5.42886">
        <ele>222.2</ele>
        <time>2022-09-25T09:28:29Z</time>
      </trkpt>
      <trkpt lat="45.79767" lon="5.42892">
        <ele>222.2</ele>
        <time>2022-09-25T09:28:30Z</time>
      </trkpt>
      <trkpt lat="45.79763" lon="5.42898">
        <ele>222.2</ele>
        <time>2022-09-25T09:28:31Z</time>
      </trkpt>
      <trkpt lat="45.79761" lon="5.42903">
        <ele>222.3</ele>
        <time>2022-09-25T09:28:32Z</time>
      </trkpt>
      <trkpt lat="45.79757" lon="5.42909">
        <ele>222.3</ele>
        <time>2022-09-25T09:28:33Z</time>
      </trkpt>
      <trkpt lat="45.79753" lon="5.42913">
        <ele>222.4</ele>
        <time>2022-09-25T09:28:34Z</time>
      </trkpt>
      <trkpt lat="45.79749" lon="5.42918">
        <ele>222.4</ele>
        <time>2022-09-25T09:28:35Z</time>
      </trkpt>
      <trkpt lat="45.79744" lon="5.42923">
        <ele>222.5</ele>
        <time>2022-09-25T09:28:36Z</time>
      </trkpt>
      <trkpt lat="45.79739" lon="5.42929">
        <ele>222.6</ele>
        <time>2022-09-25T09:28:37Z</time>
      </trkpt>
      <trkpt lat="45.79735" lon="5.42934">
        <ele>222.7</ele>
        <time>2022-09-25T09:28:38Z</time>
      </trkpt>
      <trkpt lat="45.79731" lon="5.42937">
        <ele>222.7</ele>
        <time>2022-09-25T09:28:39Z</time>
      </trkpt>
      <trkpt lat="45.79727" lon="5.42942">
        <ele>222.8</ele>
        <time>2022-09-25T09:28:40Z</time>
      </trkpt>
      <trkpt lat="45.79724" lon="5.42945">
        <ele>222.9</ele>
        <time>2022-09-25T09:28:41Z</time>
      </trkpt>
      <trkpt lat="45.7972" lon="5.42951">
        <ele>223</ele>
        <time>2022-09-25T09:28:42Z</time>
      </trkpt>
      <trkpt lat="45.79716" lon="5.42956">
        <ele>223.1</ele>
        <time>2022-09-25T09:28:43Z</time>
      </trkpt>
      <trkpt lat="45.79712" lon="5.42961">
        <ele>223.2</ele>
        <time>2022-09-25T09:28:44Z</time>
      </trkpt>
      <trkpt lat="45.79709" lon="5.42964">
        <ele>223.2</ele>
        <time>2022-09-25T09:28:45Z</time>
      </trkpt>
      <trkpt lat="45.79704" lon="5.4297">
        <ele>223.3</ele>
        <time>2022-09-25T09:28:46Z</time>
      </trkpt>
      <trkpt lat="45.79703" lon="5.42975">
        <ele>223.4</ele>
        <time>2022-09-25T09:28:47Z</time>
      </trkpt>
      <trkpt lat="45.79697" lon="5.42981">
        <ele>223.5</ele>
        <time>2022-09-25T09:28:48Z</time>
      </trkpt>
      <trkpt lat="45.79694" lon="5.42986">
        <ele>223.6</ele>
        <time>2022-09-25T09:28:49Z</time>
      </trkpt>
      <trkpt lat="45.79691" lon="5.42992">
        <ele>223.7</ele>
        <time>2022-09-25T09:28:50Z</time>
      </trkpt>
      <trkpt lat="45.79688" lon="5.42997">
        <ele>223.8</ele>
        <time>2022-09-25T09:28:51Z</time>
      </trkpt>
      <trkpt lat="45.79686" lon="5.43003">
        <ele>223.8</ele>
        <time>2022-09-25T09:28:52Z</time>
      </trkpt>
      <trkpt lat="45.79683" lon="5.43007">
        <ele>223.9</ele>
        <time>2022-09-25T09:28:53Z</time>
      </trkpt>
      <trkpt lat="45.7968" lon="5.43012">
        <ele>223.9</ele>
        <time>2022-09-25T09:28:54Z</time>
      </trkpt>
      <trkpt lat="45.79678" lon="5.43016">
        <ele>223.9</ele>
        <time>2022-09-25T09:28:55Z</time>
      </trkpt>
      <trkpt lat="45.79674" lon="5.43021">
        <ele>224</ele>
        <time>2022-09-25T09:28:56Z</time>
      </trkpt>
      <trkpt lat="45.7967" lon="5.43024">
        <ele>224</ele>
        <time>2022-09-25T09:28:57Z</time>
      </trkpt>
      <trkpt lat="45.79667" lon="5.43027">
        <ele>224</ele>
        <time>2022-09-25T09:28:58Z</time>
      </trkpt>
      <trkpt lat="45.79662" lon="5.4303">
        <ele>224</ele>
        <time>2022-09-25T09:28:59Z</time>
      </trkpt>
      <trkpt lat="45.79659" lon="5.43034">
        <ele>224</ele>
        <time>2022-09-25T09:29:00Z</time>
      </trkpt>
      <trkpt lat="45.79654" lon="5.43039">
        <ele>224</ele>
        <time>2022-09-25T09:29:01Z</time>
      </trkpt>
      <trkpt lat="45.7965" lon="5.43042">
        <ele>224</ele>
        <time>2022-09-25T09:29:02Z</time>
      </trkpt>
      <trkpt lat="45.79645" lon="5.43047">
        <ele>223.9</ele>
        <time>2022-09-25T09:29:03Z</time>
      </trkpt>
      <trkpt lat="45.79641" lon="5.43051">
        <ele>223.9</ele>
        <time>2022-09-25T09:29:04Z</time>
      </trkpt>
      <trkpt lat="45.79636" lon="5.43053">
        <ele>223.9</ele>
        <time>2022-09-25T09:29:05Z</time>
      </trkpt>
      <trkpt lat="45.79627" lon="5.43059">
        <ele>223.9</ele>
        <time>2022-09-25T09:29:06Z</time>
      </trkpt>
      <trkpt lat="45.79622" lon="5.43062">
        <ele>223.9</ele>
        <time>2022-09-25T09:29:07Z</time>
      </trkpt>
      <trkpt lat="45.79617" lon="5.43065">
        <ele>223.8</ele>
        <time>2022-09-25T09:29:08Z</time>
      </trkpt>
      <trkpt lat="45.79611" lon="5.43069">
        <ele>223.8</ele>
        <time>2022-09-25T09:29:09Z</time>
      </trkpt>
      <trkpt lat="45.79606" lon="5.43071">
        <ele>223.8</ele>
        <time>2022-09-25T09:29:10Z</time>
      </trkpt>
      <trkpt lat="45.79601" lon="5.43074">
        <ele>223.9</ele>
        <time>2022-09-25T09:29:11Z</time>
      </trkpt>
      <trkpt lat="45.79596" lon="5.43075">
        <ele>223.9</ele>
        <time>2022-09-25T09:29:12Z</time>
      </trkpt>
      <trkpt lat="45.79591" lon="5.43078">
        <ele>223.9</ele>
        <time>2022-09-25T09:29:13Z</time>
      </trkpt>
      <trkpt lat="45.79587" lon="5.43079">
        <ele>224</ele>
        <time>2022-09-25T09:29:14Z</time>
      </trkpt>
      <trkpt lat="45.79582" lon="5.43081">
        <ele>224</ele>
        <time>2022-09-25T09:29:15Z</time>
      </trkpt>
      <trkpt lat="45.79577" lon="5.43085">
        <ele>224</ele>
        <time>2022-09-25T09:29:16Z</time>
      </trkpt>
      <trkpt lat="45.79573" lon="5.43084">
        <ele>224.1</ele>
        <time>2022-09-25T09:29:17Z</time>
      </trkpt>
      <trkpt lat="45.79569" lon="5.43087">
        <ele>224.1</ele>
        <time>2022-09-25T09:29:18Z</time>
      </trkpt>
      <trkpt lat="45.79563" lon="5.4309">
        <ele>224.2</ele>
        <time>2022-09-25T09:29:19Z</time>
      </trkpt>
      <trkpt lat="45.79558" lon="5.43092">
        <ele>224.2</ele>
        <time>2022-09-25T09:29:20Z</time>
      </trkpt>
      <trkpt lat="45.79553" lon="5.43094">
        <ele>224.3</ele>
        <time>2022-09-25T09:29:21Z</time>
      </trkpt>
      <trkpt lat="45.79549" lon="5.43097">
        <ele>224.3</ele>
        <time>2022-09-25T09:29:22Z</time>
      </trkpt>
      <trkpt lat="45.79544" lon="5.43098">
        <ele>224.4</ele>
        <time>2022-09-25T09:29:23Z</time>
      </trkpt>
      <trkpt lat="45.7954" lon="5.43101">
        <ele>224.4</ele>
        <time>2022-09-25T09:29:24Z</time>
      </trkpt>
      <trkpt lat="45.79535" lon="5.43102">
        <ele>224.5</ele>
        <time>2022-09-25T09:29:25Z</time>
      </trkpt>
      <trkpt lat="45.79532" lon="5.43104">
        <ele>224.5</ele>
        <time>2022-09-25T09:29:26Z</time>
      </trkpt>
      <trkpt lat="45.79527" lon="5.43105">
        <ele>224.6</ele>
        <time>2022-09-25T09:29:27Z</time>
      </trkpt>
      <trkpt lat="45.79523" lon="5.4311">
        <ele>224.7</ele>
        <time>2022-09-25T09:29:28Z</time>
      </trkpt>
      <trkpt lat="45.7952" lon="5.43114">
        <ele>224.7</ele>
        <time>2022-09-25T09:29:29Z</time>
      </trkpt>
      <trkpt lat="45.79516" lon="5.43115">
        <ele>224.7</ele>
        <time>2022-09-25T09:29:30Z</time>
      </trkpt>
      <trkpt lat="45.79512" lon="5.43115">
        <ele>224.8</ele>
        <time>2022-09-25T09:29:31Z</time>
      </trkpt>
      <trkpt lat="45.79506" lon="5.43117">
        <ele>224.7</ele>
        <time>2022-09-25T09:29:32Z</time>
      </trkpt>
      <trkpt lat="45.79501" lon="5.43119">
        <ele>224.7</ele>
        <time>2022-09-25T09:29:33Z</time>
      </trkpt>
      <trkpt lat="45.79496" lon="5.43121">
        <ele>224.7</ele>
        <time>2022-09-25T09:29:34Z</time>
      </trkpt>
      <trkpt lat="45.7949" lon="5.43125">
        <ele>224.6</ele>
        <time>2022-09-25T09:29:35Z</time>
      </trkpt>
      <trkpt lat="45.79488" lon="5.43128">
        <ele>224.5</ele>
        <time>2022-09-25T09:29:36Z</time>
      </trkpt>
      <trkpt lat="45.79483" lon="5.43131">
        <ele>224.4</ele>
        <time>2022-09-25T09:29:37Z</time>
      </trkpt>
      <trkpt lat="45.79478" lon="5.43131">
        <ele>224.3</ele>
        <time>2022-09-25T09:29:38Z</time>
      </trkpt>
      <trkpt lat="45.79471" lon="5.43135">
        <ele>224.1</ele>
        <time>2022-09-25T09:29:39Z</time>
      </trkpt>
      <trkpt lat="45.79466" lon="5.43138">
        <ele>224</ele>
        <time>2022-09-25T09:29:40Z</time>
      </trkpt>
      <trkpt lat="45.79461" lon="5.4314">
        <ele>223.9</ele>
        <time>2022-09-25T09:29:41Z</time>
      </trkpt>
      <trkpt lat="45.79456" lon="5.43144">
        <ele>223.8</ele>
        <time>2022-09-25T09:29:42Z</time>
      </trkpt>
      <trkpt lat="45.79451" lon="5.43147">
        <ele>223.7</ele>
        <time>2022-09-25T09:29:43Z</time>
      </trkpt>
      <trkpt lat="45.79446" lon="5.4315">
        <ele>223.6</ele>
        <time>2022-09-25T09:29:44Z</time>
      </trkpt>
      <trkpt lat="45.7944" lon="5.43154">
        <ele>223.5</ele>
        <time>2022-09-25T09:29:45Z</time>
      </trkpt>
      <trkpt lat="45.79434" lon="5.43159">
        <ele>223.5</ele>
        <time>2022-09-25T09:29:46Z</time>
      </trkpt>
      <trkpt lat="45.7943" lon="5.43164">
        <ele>223.5</ele>
        <time>2022-09-25T09:29:47Z</time>
      </trkpt>
      <trkpt lat="45.79425" lon="5.4317">
        <ele>223.5</ele>
        <time>2022-09-25T09:29:48Z</time>
      </trkpt>
      <trkpt lat="45.7942" lon="5.43174">
        <ele>223.5</ele>
        <time>2022-09-25T09:29:49Z</time>
      </trkpt>
      <trkpt lat="45.79415" lon="5.43179">
        <ele>223.5</ele>
        <time>2022-09-25T09:29:50Z</time>
      </trkpt>
      <trkpt lat="45.7941" lon="5.43184">
        <ele>223.5</ele>
        <time>2022-09-25T09:29:51Z</time>
      </trkpt>
      <trkpt lat="45.79405" lon="5.43188">
        <ele>223.5</ele>
        <time>2022-09-25T09:29:52Z</time>
      </trkpt>
      <trkpt lat="45.794" lon="5.43192">
        <ele>223.6</ele>
        <time>2022-09-25T09:29:53Z</time>
      </trkpt>
      <trkpt lat="45.79396" lon="5.43197">
        <ele>223.6</ele>
        <time>2022-09-25T09:29:54Z</time>
      </trkpt>
      <trkpt lat="45.79391" lon="5.43202">
        <ele>223.6</ele>
        <time>2022-09-25T09:29:55Z</time>
      </trkpt>
      <trkpt lat="45.79387" lon="5.43207">
        <ele>223.7</ele>
        <time>2022-09-25T09:29:56Z</time>
      </trkpt>
      <trkpt lat="45.79383" lon="5.43211">
        <ele>223.8</ele>
        <time>2022-09-25T09:29:57Z</time>
      </trkpt>
      <trkpt lat="45.7938" lon="5.43216">
        <ele>223.8</ele>
        <time>2022-09-25T09:29:58Z</time>
      </trkpt>
      <trkpt lat="45.79375" lon="5.43222">
        <ele>223.9</ele>
        <time>2022-09-25T09:29:59Z</time>
      </trkpt>
      <trkpt lat="45.79371" lon="5.43227">
        <ele>224</ele>
        <time>2022-09-25T09:30:00Z</time>
      </trkpt>
      <trkpt lat="45.79368" lon="5.43233">
        <ele>224</ele>
        <time>2022-09-25T09:30:01Z</time>
      </trkpt>
      <trkpt lat="45.79365" lon="5.43236">
        <ele>224</ele>
        <time>2022-09-25T09:30:02Z</time>
      </trkpt>
      <trkpt lat="45.79361" lon="5.43243">
        <ele>224.1</ele>
        <time>2022-09-25T09:30:03Z</time>
      </trkpt>
      <trkpt lat="45.79358" lon="5.43247">
        <ele>224.1</ele>
        <time>2022-09-25T09:30:04Z</time>
      </trkpt>
      <trkpt lat="45.79354" lon="5.43253">
        <ele>224.1</ele>
        <time>2022-09-25T09:30:05Z</time>
      </trkpt>
      <trkpt lat="45.7935" lon="5.43258">
        <ele>224.2</ele>
        <time>2022-09-25T09:30:06Z</time>
      </trkpt>
      <trkpt lat="45.79346" lon="5.43263">
        <ele>224.2</ele>
        <time>2022-09-25T09:30:07Z</time>
      </trkpt>
      <trkpt lat="45.79343" lon="5.43269">
        <ele>224.2</ele>
        <time>2022-09-25T09:30:08Z</time>
      </trkpt>
      <trkpt lat="45.7934" lon="5.43275">
        <ele>224.3</ele>
        <time>2022-09-25T09:30:09Z</time>
      </trkpt>
      <trkpt lat="45.79336" lon="5.4328">
        <ele>224.3</ele>
        <time>2022-09-25T09:30:10Z</time>
      </trkpt>
      <trkpt lat="45.79332" lon="5.43286">
        <ele>224.3</ele>
        <time>2022-09-25T09:30:11Z</time>
      </trkpt>
      <trkpt lat="45.79329" lon="5.4329">
        <ele>224.3</ele>
        <time>2022-09-25T09:30:12Z</time>
      </trkpt>
      <trkpt lat="45.79326" lon="5.43294">
        <ele>224.3</ele>
        <time>2022-09-25T09:30:13Z</time>
      </trkpt>
      <trkpt lat="45.79322" lon="5.43298">
        <ele>224.3</ele>
        <time>2022-09-25T09:30:14Z</time>
      </trkpt>
      <trkpt lat="45.79317" lon="5.43301">
        <ele>224.3</ele>
        <time>2022-09-25T09:30:15Z</time>
      </trkpt>
      <trkpt lat="45.79313" lon="5.43305">
        <ele>224.3</ele>
        <time>2022-09-25T09:30:16Z</time>
      </trkpt>
      <trkpt lat="45.79308" lon="5.43307">
        <ele>224.2</ele>
        <time>2022-09-25T09:30:17Z</time>
      </trkpt>
      <trkpt lat="45.79304" lon="5.43309">
        <ele>224.2</ele>
        <time>2022-09-25T09:30:18Z</time>
      </trkpt>
      <trkpt lat="45.79299" lon="5.43311">
        <ele>224.1</ele>
        <time>2022-09-25T09:30:19Z</time>
      </trkpt>
      <trkpt lat="45.79294" lon="5.43315">
        <ele>224.1</ele>
        <time>2022-09-25T09:30:20Z</time>
      </trkpt>
      <trkpt lat="45.79289" lon="5.43318">
        <ele>224</ele>
        <time>2022-09-25T09:30:21Z</time>
      </trkpt>
      <trkpt lat="45.79284" lon="5.43322">
        <ele>224</ele>
        <time>2022-09-25T09:30:22Z</time>
      </trkpt>
      <trkpt lat="45.79279" lon="5.43325">
        <ele>224</ele>
        <time>2022-09-25T09:30:23Z</time>
      </trkpt>
      <trkpt lat="45.79274" lon="5.43328">
        <ele>224</ele>
        <time>2022-09-25T09:30:24Z</time>
      </trkpt>
      <trkpt lat="45.79269" lon="5.43332">
        <ele>224</ele>
        <time>2022-09-25T09:30:25Z</time>
      </trkpt>
      <trkpt lat="45.79264" lon="5.43334">
        <ele>224</ele>
        <time>2022-09-25T09:30:26Z</time>
      </trkpt>
      <trkpt lat="45.79258" lon="5.43337">
        <ele>224</ele>
        <time>2022-09-25T09:30:27Z</time>
      </trkpt>
      <trkpt lat="45.79253" lon="5.43341">
        <ele>224</ele>
        <time>2022-09-25T09:30:28Z</time>
      </trkpt>
      <trkpt lat="45.79248" lon="5.43343">
        <ele>224</ele>
        <time>2022-09-25T09:30:29Z</time>
      </trkpt>
      <trkpt lat="45.79243" lon="5.43346">
        <ele>224</ele>
        <time>2022-09-25T09:30:30Z</time>
      </trkpt>
      <trkpt lat="45.79237" lon="5.43349">
        <ele>224.1</ele>
        <time>2022-09-25T09:30:31Z</time>
      </trkpt>
      <trkpt lat="45.79231" lon="5.43352">
        <ele>224.1</ele>
        <time>2022-09-25T09:30:32Z</time>
      </trkpt>
      <trkpt lat="45.79226" lon="5.43355">
        <ele>224.1</ele>
        <time>2022-09-25T09:30:33Z</time>
      </trkpt>
      <trkpt lat="45.7922" lon="5.43358">
        <ele>224.1</ele>
        <time>2022-09-25T09:30:34Z</time>
      </trkpt>
      <trkpt lat="45.79216" lon="5.4336">
        <ele>224.2</ele>
        <time>2022-09-25T09:30:35Z</time>
      </trkpt>
      <trkpt lat="45.7921" lon="5.43364">
        <ele>224.2</ele>
        <time>2022-09-25T09:30:36Z</time>
      </trkpt>
      <trkpt lat="45.79204" lon="5.43367">
        <ele>224.3</ele>
        <time>2022-09-25T09:30:37Z</time>
      </trkpt>
      <trkpt lat="45.79199" lon="5.4337">
        <ele>224.3</ele>
        <time>2022-09-25T09:30:38Z</time>
      </trkpt>
      <trkpt lat="45.79194" lon="5.43374">
        <ele>224.4</ele>
        <time>2022-09-25T09:30:39Z</time>
      </trkpt>
      <trkpt lat="45.79189" lon="5.43377">
        <ele>224.4</ele>
        <time>2022-09-25T09:30:40Z</time>
      </trkpt>
      <trkpt lat="45.79185" lon="5.4338">
        <ele>224.5</ele>
        <time>2022-09-25T09:30:41Z</time>
      </trkpt>
      <trkpt lat="45.79179" lon="5.43384">
        <ele>224.6</ele>
        <time>2022-09-25T09:30:42Z</time>
      </trkpt>
      <trkpt lat="45.79175" lon="5.43387">
        <ele>224.7</ele>
        <time>2022-09-25T09:30:43Z</time>
      </trkpt>
      <trkpt lat="45.7917" lon="5.43391">
        <ele>224.8</ele>
        <time>2022-09-25T09:30:44Z</time>
      </trkpt>
      <trkpt lat="45.79165" lon="5.43395">
        <ele>224.9</ele>
        <time>2022-09-25T09:30:45Z</time>
      </trkpt>
      <trkpt lat="45.7916" lon="5.43399">
        <ele>225</ele>
        <time>2022-09-25T09:30:46Z</time>
      </trkpt>
      <trkpt lat="45.79156" lon="5.43402">
        <ele>225.1</ele>
        <time>2022-09-25T09:30:47Z</time>
      </trkpt>
      <trkpt lat="45.79151" lon="5.43405">
        <ele>225.3</ele>
        <time>2022-09-25T09:30:48Z</time>
      </trkpt>
      <trkpt lat="45.79146" lon="5.43408">
        <ele>225.4</ele>
        <time>2022-09-25T09:30:49Z</time>
      </trkpt>
      <trkpt lat="45.79142" lon="5.43412">
        <ele>225.5</ele>
        <time>2022-09-25T09:30:50Z</time>
      </trkpt>
      <trkpt lat="45.79138" lon="5.43414">
        <ele>225.6</ele>
        <time>2022-09-25T09:30:51Z</time>
      </trkpt>
      <trkpt lat="45.79134" lon="5.43418">
        <ele>225.7</ele>
        <time>2022-09-25T09:30:52Z</time>
      </trkpt>
      <trkpt lat="45.7913" lon="5.43421">
        <ele>225.9</ele>
        <time>2022-09-25T09:30:53Z</time>
      </trkpt>
      <trkpt lat="45.79125" lon="5.43425">
        <ele>226</ele>
        <time>2022-09-25T09:30:54Z</time>
      </trkpt>
      <trkpt lat="45.79122" lon="5.43428">
        <ele>226.1</ele>
        <time>2022-09-25T09:30:55Z</time>
      </trkpt>
      <trkpt lat="45.79118" lon="5.43432">
        <ele>226.2</ele>
        <time>2022-09-25T09:30:56Z</time>
      </trkpt>
      <trkpt lat="45.79115" lon="5.43435">
        <ele>226.3</ele>
        <time>2022-09-25T09:30:57Z</time>
      </trkpt>
      <trkpt lat="45.79112" lon="5.43438">
        <ele>226.4</ele>
        <time>2022-09-25T09:30:58Z</time>
      </trkpt>
      <trkpt lat="45.79108" lon="5.43443">
        <ele>226.6</ele>
        <time>2022-09-25T09:30:59Z</time>
      </trkpt>
      <trkpt lat="45.79105" lon="5.43445">
        <ele>226.7</ele>
        <time>2022-09-25T09:31:00Z</time>
      </trkpt>
      <trkpt lat="45.79101" lon="5.43449">
        <ele>226.8</ele>
        <time>2022-09-25T09:31:01Z</time>
      </trkpt>
      <trkpt lat="45.79098" lon="5.43451">
        <ele>227</ele>
        <time>2022-09-25T09:31:02Z</time>
      </trkpt>
      <trkpt lat="45.79096" lon="5.43455">
        <ele>227.1</ele>
        <time>2022-09-25T09:31:03Z</time>
      </trkpt>
      <trkpt lat="45.79093" lon="5.43459">
        <ele>227.2</ele>
        <time>2022-09-25T09:31:04Z</time>
      </trkpt>
      <trkpt lat="45.79089" lon="5.43463">
        <ele>227.4</ele>
        <time>2022-09-25T09:31:05Z</time>
      </trkpt>
      <trkpt lat="45.79086" lon="5.43467">
        <ele>227.6</ele>
        <time>2022-09-25T09:31:06Z</time>
      </trkpt>
      <trkpt lat="45.79083" lon="5.4347">
        <ele>227.7</ele>
        <time>2022-09-25T09:31:07Z</time>
      </trkpt>
      <trkpt lat="45.79081" lon="5.43472">
        <ele>227.8</ele>
        <time>2022-09-25T09:31:08Z</time>
      </trkpt>
      <trkpt lat="45.79078" lon="5.43475">
        <ele>228</ele>
        <time>2022-09-25T09:31:09Z</time>
      </trkpt>
      <trkpt lat="45.79075" lon="5.43479">
        <ele>228.1</ele>
        <time>2022-09-25T09:31:10Z</time>
      </trkpt>
      <trkpt lat="45.79073" lon="5.43481">
        <ele>228.3</ele>
        <time>2022-09-25T09:31:11Z</time>
      </trkpt>
      <trkpt lat="45.79071" lon="5.43484">
        <ele>228.4</ele>
        <time>2022-09-25T09:31:12Z</time>
      </trkpt>
      <trkpt lat="45.79068" lon="5.43486">
        <ele>228.5</ele>
        <time>2022-09-25T09:31:13Z</time>
      </trkpt>
      <trkpt lat="45.79065" lon="5.43489">
        <ele>228.7</ele>
        <time>2022-09-25T09:31:14Z</time>
      </trkpt>
      <trkpt lat="45.79063" lon="5.43493">
        <ele>228.8</ele>
        <time>2022-09-25T09:31:15Z</time>
      </trkpt>
      <trkpt lat="45.7906" lon="5.43496">
        <ele>229</ele>
        <time>2022-09-25T09:31:16Z</time>
      </trkpt>
      <trkpt lat="45.79057" lon="5.43499">
        <ele>229.1</ele>
        <time>2022-09-25T09:31:17Z</time>
      </trkpt>
      <trkpt lat="45.79054" lon="5.43502">
        <ele>229.3</ele>
        <time>2022-09-25T09:31:18Z</time>
      </trkpt>
      <trkpt lat="45.79051" lon="5.43504">
        <ele>229.4</ele>
        <time>2022-09-25T09:31:19Z</time>
      </trkpt>
      <trkpt lat="45.79048" lon="5.43507">
        <ele>229.6</ele>
        <time>2022-09-25T09:31:20Z</time>
      </trkpt>
      <trkpt lat="45.79044" lon="5.4351">
        <ele>229.8</ele>
        <time>2022-09-25T09:31:21Z</time>
      </trkpt>
      <trkpt lat="45.79043" lon="5.43512">
        <ele>229.9</ele>
        <time>2022-09-25T09:31:22Z</time>
      </trkpt>
      <trkpt lat="45.7904" lon="5.43514">
        <ele>230</ele>
        <time>2022-09-25T09:31:23Z</time>
      </trkpt>
      <trkpt lat="45.79038" lon="5.43516">
        <ele>230.1</ele>
        <time>2022-09-25T09:31:24Z</time>
      </trkpt>
      <trkpt lat="45.79034" lon="5.43519">
        <ele>230.3</ele>
        <time>2022-09-25T09:31:25Z</time>
      </trkpt>
      <trkpt lat="45.79033" lon="5.4352">
        <ele>230.4</ele>
        <time>2022-09-25T09:31:26Z</time>
      </trkpt>
      <trkpt lat="45.7903" lon="5.43521">
        <ele>230.6</ele>
        <time>2022-09-25T09:31:27Z</time>
      </trkpt>
      <trkpt lat="45.79027" lon="5.43524">
        <ele>230.8</ele>
        <time>2022-09-25T09:31:28Z</time>
      </trkpt>
      <trkpt lat="45.79024" lon="5.43526">
        <ele>230.9</ele>
        <time>2022-09-25T09:31:29Z</time>
      </trkpt>
      <trkpt lat="45.79021" lon="5.43528">
        <ele>231.1</ele>
        <time>2022-09-25T09:31:30Z</time>
      </trkpt>
      <trkpt lat="45.7902" lon="5.43529">
        <ele>231.2</ele>
        <time>2022-09-25T09:31:31Z</time>
      </trkpt>
      <trkpt lat="45.79017" lon="5.43531">
        <ele>231.4</ele>
        <time>2022-09-25T09:31:32Z</time>
      </trkpt>
      <trkpt lat="45.79014" lon="5.43532">
        <ele>231.5</ele>
        <time>2022-09-25T09:31:33Z</time>
      </trkpt>
      <trkpt lat="45.79011" lon="5.43534">
        <ele>231.7</ele>
        <time>2022-09-25T09:31:34Z</time>
      </trkpt>
      <trkpt lat="45.79009" lon="5.43537">
        <ele>231.9</ele>
        <time>2022-09-25T09:31:35Z</time>
      </trkpt>
      <trkpt lat="45.79006" lon="5.43538">
        <ele>232.1</ele>
        <time>2022-09-25T09:31:36Z</time>
      </trkpt>
      <trkpt lat="45.79003" lon="5.4354">
        <ele>232.3</ele>
        <time>2022-09-25T09:31:37Z</time>
      </trkpt>
      <trkpt lat="45.79001" lon="5.43541">
        <ele>232.4</ele>
        <time>2022-09-25T09:31:38Z</time>
      </trkpt>
      <trkpt lat="45.78999" lon="5.43542">
        <ele>232.5</ele>
        <time>2022-09-25T09:31:39Z</time>
      </trkpt>
      <trkpt lat="45.78998" lon="5.43543">
        <ele>232.6</ele>
        <time>2022-09-25T09:31:40Z</time>
      </trkpt>
      <trkpt lat="45.78995" lon="5.43544">
        <ele>232.8</ele>
        <time>2022-09-25T09:31:41Z</time>
      </trkpt>
      <trkpt lat="45.78992" lon="5.43545">
        <ele>232.9</ele>
        <time>2022-09-25T09:31:42Z</time>
      </trkpt>
      <trkpt lat="45.78989" lon="5.43547">
        <ele>233.1</ele>
        <time>2022-09-25T09:31:43Z</time>
      </trkpt>
      <trkpt lat="45.78985" lon="5.43549">
        <ele>233.3</ele>
        <time>2022-09-25T09:31:44Z</time>
      </trkpt>
      <trkpt lat="45.78984" lon="5.43549">
        <ele>233.4</ele>
        <time>2022-09-25T09:31:45Z</time>
      </trkpt>
      <trkpt lat="45.78981" lon="5.43551">
        <ele>233.6</ele>
        <time>2022-09-25T09:31:46Z</time>
      </trkpt>
      <trkpt lat="45.7898" lon="5.43552">
        <ele>233.7</ele>
        <time>2022-09-25T09:31:47Z</time>
      </trkpt>
      <trkpt lat="45.78976" lon="5.43554">
        <ele>233.9</ele>
        <time>2022-09-25T09:31:48Z</time>
      </trkpt>
      <trkpt lat="45.78975" lon="5.43555">
        <ele>234</ele>
        <time>2022-09-25T09:31:49Z</time>
      </trkpt>
      <trkpt lat="45.78971" lon="5.43557">
        <ele>234.2</ele>
        <time>2022-09-25T09:31:50Z</time>
      </trkpt>
      <trkpt lat="45.7897" lon="5.43557">
        <ele>234.3</ele>
        <time>2022-09-25T09:31:51Z</time>
      </trkpt>
      <trkpt lat="45.78967" lon="5.43558">
        <ele>234.5</ele>
        <time>2022-09-25T09:31:52Z</time>
      </trkpt>
      <trkpt lat="45.78964" lon="5.4356">
        <ele>234.7</ele>
        <time>2022-09-25T09:31:53Z</time>
      </trkpt>
      <trkpt lat="45.78963" lon="5.43561">
        <ele>234.8</ele>
        <time>2022-09-25T09:31:54Z</time>
      </trkpt>
      <trkpt lat="45.78959" lon="5.43562">
        <ele>235.1</ele>
        <time>2022-09-25T09:31:55Z</time>
      </trkpt>
      <trkpt lat="45.78958" lon="5.43562">
        <ele>235.2</ele>
        <time>2022-09-25T09:31:56Z</time>
      </trkpt>
      <trkpt lat="45.78955" lon="5.4356">
        <ele>235.4</ele>
        <time>2022-09-25T09:31:57Z</time>
      </trkpt>
      <trkpt lat="45.78954" lon="5.43559">
        <ele>235.5</ele>
        <time>2022-09-25T09:31:58Z</time>
      </trkpt>
      <trkpt lat="45.78953" lon="5.43557">
        <ele>235.6</ele>
        <time>2022-09-25T09:31:59Z</time>
      </trkpt>
      <trkpt lat="45.78953" lon="5.43555">
        <ele>235.7</ele>
        <time>2022-09-25T09:32:00Z</time>
      </trkpt>
      <trkpt lat="45.78953" lon="5.43551">
        <ele>236</ele>
        <time>2022-09-25T09:32:01Z</time>
      </trkpt>
      <trkpt lat="45.78953" lon="5.4355">
        <ele>235.9</ele>
        <time>2022-09-25T09:32:02Z</time>
      </trkpt>
      <trkpt lat="45.78954" lon="5.43546">
        <ele>235.6</ele>
        <time>2022-09-25T09:32:03Z</time>
      </trkpt>
      <trkpt lat="45.78956" lon="5.43541">
        <ele>235.3</ele>
        <time>2022-09-25T09:32:04Z</time>
      </trkpt>
      <trkpt lat="45.78958" lon="5.43537">
        <ele>235</ele>
        <time>2022-09-25T09:32:06Z</time>
      </trkpt>
      <trkpt lat="45.7896" lon="5.43531">
        <ele>234.6</ele>
        <time>2022-09-25T09:32:07Z</time>
      </trkpt>
      <trkpt lat="45.78961" lon="5.43525">
        <ele>234.3</ele>
        <time>2022-09-25T09:32:08Z</time>
      </trkpt>
      <trkpt lat="45.78962" lon="5.43517">
        <ele>233.8</ele>
        <time>2022-09-25T09:32:09Z</time>
      </trkpt>
      <trkpt lat="45.78963" lon="5.43509">
        <ele>233.3</ele>
        <time>2022-09-25T09:32:10Z</time>
      </trkpt>
      <trkpt lat="45.78963" lon="5.43501">
        <ele>232.8</ele>
        <time>2022-09-25T09:32:11Z</time>
      </trkpt>
      <trkpt lat="45.78963" lon="5.43494">
        <ele>232.5</ele>
        <time>2022-09-25T09:32:12Z</time>
      </trkpt>
      <trkpt lat="45.78963" lon="5.43487">
        <ele>232.1</ele>
        <time>2022-09-25T09:32:13Z</time>
      </trkpt>
      <trkpt lat="45.78963" lon="5.43478">
        <ele>231.7</ele>
        <time>2022-09-25T09:32:14Z</time>
      </trkpt>
      <trkpt lat="45.78961" lon="5.43471">
        <ele>231.4</ele>
        <time>2022-09-25T09:32:15Z</time>
      </trkpt>
      <trkpt lat="45.7896" lon="5.43462">
        <ele>231</ele>
        <time>2022-09-25T09:32:16Z</time>
      </trkpt>
      <trkpt lat="45.78959" lon="5.43453">
        <ele>230.6</ele>
        <time>2022-09-25T09:32:17Z</time>
      </trkpt>
      <trkpt lat="45.78956" lon="5.43444">
        <ele>230.2</ele>
        <time>2022-09-25T09:32:18Z</time>
      </trkpt>
      <trkpt lat="45.78955" lon="5.43435">
        <ele>229.8</ele>
        <time>2022-09-25T09:32:19Z</time>
      </trkpt>
      <trkpt lat="45.78954" lon="5.43426">
        <ele>229.4</ele>
        <time>2022-09-25T09:32:20Z</time>
      </trkpt>
      <trkpt lat="45.78953" lon="5.43416">
        <ele>229.1</ele>
        <time>2022-09-25T09:32:21Z</time>
      </trkpt>
      <trkpt lat="45.78952" lon="5.43407">
        <ele>228.7</ele>
        <time>2022-09-25T09:32:22Z</time>
      </trkpt>
      <trkpt lat="45.7895" lon="5.43397">
        <ele>228.3</ele>
        <time>2022-09-25T09:32:23Z</time>
      </trkpt>
      <trkpt lat="45.78948" lon="5.43389">
        <ele>228</ele>
        <time>2022-09-25T09:32:24Z</time>
      </trkpt>
      <trkpt lat="45.78946" lon="5.43379">
        <ele>227.6</ele>
        <time>2022-09-25T09:32:25Z</time>
      </trkpt>
      <trkpt lat="45.78945" lon="5.43371">
        <ele>227.2</ele>
        <time>2022-09-25T09:32:26Z</time>
      </trkpt>
      <trkpt lat="45.78944" lon="5.43362">
        <ele>226.9</ele>
        <time>2022-09-25T09:32:27Z</time>
      </trkpt>
      <trkpt lat="45.78943" lon="5.43353">
        <ele>226.6</ele>
        <time>2022-09-25T09:32:28Z</time>
      </trkpt>
      <trkpt lat="45.78941" lon="5.43343">
        <ele>226.2</ele>
        <time>2022-09-25T09:32:29Z</time>
      </trkpt>
      <trkpt lat="45.78939" lon="5.43334">
        <ele>225.9</ele>
        <time>2022-09-25T09:32:30Z</time>
      </trkpt>
      <trkpt lat="45.78938" lon="5.43325">
        <ele>225.5</ele>
        <time>2022-09-25T09:32:31Z</time>
      </trkpt>
      <trkpt lat="45.78936" lon="5.43316">
        <ele>225.2</ele>
        <time>2022-09-25T09:32:32Z</time>
      </trkpt>
      <trkpt lat="45.78935" lon="5.43307">
        <ele>224.9</ele>
        <time>2022-09-25T09:32:33Z</time>
      </trkpt>
      <trkpt lat="45.78933" lon="5.43298">
        <ele>224.6</ele>
        <time>2022-09-25T09:32:34Z</time>
      </trkpt>
      <trkpt lat="45.78932" lon="5.43289">
        <ele>224.4</ele>
        <time>2022-09-25T09:32:35Z</time>
      </trkpt>
      <trkpt lat="45.7893" lon="5.43278">
        <ele>224.1</ele>
        <time>2022-09-25T09:32:36Z</time>
      </trkpt>
      <trkpt lat="45.78929" lon="5.4327">
        <ele>223.8</ele>
        <time>2022-09-25T09:32:37Z</time>
      </trkpt>
      <trkpt lat="45.78927" lon="5.4326">
        <ele>223.6</ele>
        <time>2022-09-25T09:32:38Z</time>
      </trkpt>
      <trkpt lat="45.78926" lon="5.4325">
        <ele>223.4</ele>
        <time>2022-09-25T09:32:39Z</time>
      </trkpt>
      <trkpt lat="45.78924" lon="5.43242">
        <ele>223.3</ele>
        <time>2022-09-25T09:32:40Z</time>
      </trkpt>
      <trkpt lat="45.78923" lon="5.43233">
        <ele>223.2</ele>
        <time>2022-09-25T09:32:41Z</time>
      </trkpt>
      <trkpt lat="45.78921" lon="5.43225">
        <ele>223.1</ele>
        <time>2022-09-25T09:32:42Z</time>
      </trkpt>
      <trkpt lat="45.7892" lon="5.43219">
        <ele>223</ele>
        <time>2022-09-25T09:32:43Z</time>
      </trkpt>
      <trkpt lat="45.78919" lon="5.43212">
        <ele>223</ele>
        <time>2022-09-25T09:32:44Z</time>
      </trkpt>
      <trkpt lat="45.78916" lon="5.43207">
        <ele>223</ele>
        <time>2022-09-25T09:32:45Z</time>
      </trkpt>
      <trkpt lat="45.78913" lon="5.43204">
        <ele>223</ele>
        <time>2022-09-25T09:32:46Z</time>
      </trkpt>
      <trkpt lat="45.78909" lon="5.43201">
        <ele>222.9</ele>
        <time>2022-09-25T09:32:47Z</time>
      </trkpt>
      <trkpt lat="45.78904" lon="5.43198">
        <ele>222.9</ele>
        <time>2022-09-25T09:32:48Z</time>
      </trkpt>
      <trkpt lat="45.789" lon="5.43196">
        <ele>222.8</ele>
        <time>2022-09-25T09:32:49Z</time>
      </trkpt>
      <trkpt lat="45.78895" lon="5.43193">
        <ele>222.8</ele>
        <time>2022-09-25T09:32:50Z</time>
      </trkpt>
      <trkpt lat="45.78891" lon="5.43191">
        <ele>222.7</ele>
        <time>2022-09-25T09:32:51Z</time>
      </trkpt>
      <trkpt lat="45.78886" lon="5.43189">
        <ele>222.6</ele>
        <time>2022-09-25T09:32:52Z</time>
      </trkpt>
      <trkpt lat="45.7888" lon="5.43189">
        <ele>222.6</ele>
        <time>2022-09-25T09:32:53Z</time>
      </trkpt>
      <trkpt lat="45.78875" lon="5.43189">
        <ele>222.5</ele>
        <time>2022-09-25T09:32:54Z</time>
      </trkpt>
      <trkpt lat="45.78869" lon="5.4319">
        <ele>222.5</ele>
        <time>2022-09-25T09:32:55Z</time>
      </trkpt>
      <trkpt lat="45.78864" lon="5.43191">
        <ele>222.5</ele>
        <time>2022-09-25T09:32:56Z</time>
      </trkpt>
      <trkpt lat="45.78859" lon="5.43191">
        <ele>222.4</ele>
        <time>2022-09-25T09:32:57Z</time>
      </trkpt>
      <trkpt lat="45.78853" lon="5.43192">
        <ele>222.4</ele>
        <time>2022-09-25T09:32:58Z</time>
      </trkpt>
      <trkpt lat="45.78848" lon="5.43194">
        <ele>222.4</ele>
        <time>2022-09-25T09:32:59Z</time>
      </trkpt>
      <trkpt lat="45.78842" lon="5.43196">
        <ele>222.3</ele>
        <time>2022-09-25T09:33:00Z</time>
      </trkpt>
      <trkpt lat="45.78837" lon="5.43194">
        <ele>222.3</ele>
        <time>2022-09-25T09:33:01Z</time>
      </trkpt>
      <trkpt lat="45.78831" lon="5.43195">
        <ele>222.3</ele>
        <time>2022-09-25T09:33:02Z</time>
      </trkpt>
      <trkpt lat="45.78825" lon="5.43196">
        <ele>222.3</ele>
        <time>2022-09-25T09:33:03Z</time>
      </trkpt>
      <trkpt lat="45.7882" lon="5.43196">
        <ele>222.2</ele>
        <time>2022-09-25T09:33:04Z</time>
      </trkpt>
      <trkpt lat="45.78813" lon="5.43198">
        <ele>222.2</ele>
        <time>2022-09-25T09:33:05Z</time>
      </trkpt>
      <trkpt lat="45.78807" lon="5.43199">
        <ele>222.2</ele>
        <time>2022-09-25T09:33:06Z</time>
      </trkpt>
      <trkpt lat="45.78801" lon="5.432">
        <ele>222.1</ele>
        <time>2022-09-25T09:33:07Z</time>
      </trkpt>
      <trkpt lat="45.78796" lon="5.432">
        <ele>222.1</ele>
        <time>2022-09-25T09:33:08Z</time>
      </trkpt>
      <trkpt lat="45.7879" lon="5.43201">
        <ele>222.1</ele>
        <time>2022-09-25T09:33:09Z</time>
      </trkpt>
      <trkpt lat="45.78784" lon="5.43201">
        <ele>222.1</ele>
        <time>2022-09-25T09:33:10Z</time>
      </trkpt>
      <trkpt lat="45.78778" lon="5.43202">
        <ele>222</ele>
        <time>2022-09-25T09:33:11Z</time>
      </trkpt>
      <trkpt lat="45.78772" lon="5.43203">
        <ele>222</ele>
        <time>2022-09-25T09:33:12Z</time>
      </trkpt>
      <trkpt lat="45.78767" lon="5.43204">
        <ele>222</ele>
        <time>2022-09-25T09:33:13Z</time>
      </trkpt>
      <trkpt lat="45.78761" lon="5.43204">
        <ele>222</ele>
        <time>2022-09-25T09:33:14Z</time>
      </trkpt>
      <trkpt lat="45.78755" lon="5.43205">
        <ele>222</ele>
        <time>2022-09-25T09:33:15Z</time>
      </trkpt>
      <trkpt lat="45.78749" lon="5.43206">
        <ele>222</ele>
        <time>2022-09-25T09:33:16Z</time>
      </trkpt>
      <trkpt lat="45.78743" lon="5.43207">
        <ele>222</ele>
        <time>2022-09-25T09:33:17Z</time>
      </trkpt>
      <trkpt lat="45.78731" lon="5.43208">
        <ele>222</ele>
        <time>2022-09-25T09:33:18Z</time>
      </trkpt>
      <trkpt lat="45.78725" lon="5.43209">
        <ele>222</ele>
        <time>2022-09-25T09:33:19Z</time>
      </trkpt>
      <trkpt lat="45.78719" lon="5.4321">
        <ele>222</ele>
        <time>2022-09-25T09:33:20Z</time>
      </trkpt>
      <trkpt lat="45.78714" lon="5.43211">
        <ele>222</ele>
        <time>2022-09-25T09:33:21Z</time>
      </trkpt>
      <trkpt lat="45.78708" lon="5.43211">
        <ele>222</ele>
        <time>2022-09-25T09:33:22Z</time>
      </trkpt>
      <trkpt lat="45.78702" lon="5.43212">
        <ele>222</ele>
        <time>2022-09-25T09:33:23Z</time>
      </trkpt>
      <trkpt lat="45.78696" lon="5.43212">
        <ele>222</ele>
        <time>2022-09-25T09:33:24Z</time>
      </trkpt>
      <trkpt lat="45.7869" lon="5.43213">
        <ele>222</ele>
        <time>2022-09-25T09:33:25Z</time>
      </trkpt>
      <trkpt lat="45.78685" lon="5.43214">
        <ele>222</ele>
        <time>2022-09-25T09:33:26Z</time>
      </trkpt>
      <trkpt lat="45.78679" lon="5.43215">
        <ele>222</ele>
        <time>2022-09-25T09:33:27Z</time>
      </trkpt>
      <trkpt lat="45.78673" lon="5.43216">
        <ele>222</ele>
        <time>2022-09-25T09:33:28Z</time>
      </trkpt>
      <trkpt lat="45.78667" lon="5.43217">
        <ele>222</ele>
        <time>2022-09-25T09:33:29Z</time>
      </trkpt>
      <trkpt lat="45.78661" lon="5.43218">
        <ele>222</ele>
        <time>2022-09-25T09:33:30Z</time>
      </trkpt>
      <trkpt lat="45.78655" lon="5.43219">
        <ele>222</ele>
        <time>2022-09-25T09:33:31Z</time>
      </trkpt>
      <trkpt lat="45.78649" lon="5.4322">
        <ele>222.1</ele>
        <time>2022-09-25T09:33:32Z</time>
      </trkpt>
      <trkpt lat="45.78643" lon="5.4322">
        <ele>222.1</ele>
        <time>2022-09-25T09:33:33Z</time>
      </trkpt>
      <trkpt lat="45.78637" lon="5.43221">
        <ele>222.2</ele>
        <time>2022-09-25T09:33:34Z</time>
      </trkpt>
      <trkpt lat="45.78631" lon="5.43222">
        <ele>222.2</ele>
        <time>2022-09-25T09:33:35Z</time>
      </trkpt>
      <trkpt lat="45.78625" lon="5.43223">
        <ele>222.3</ele>
        <time>2022-09-25T09:33:36Z</time>
      </trkpt>
      <trkpt lat="45.7862" lon="5.43224">
        <ele>222.4</ele>
        <time>2022-09-25T09:33:37Z</time>
      </trkpt>
      <trkpt lat="45.78614" lon="5.43225">
        <ele>222.6</ele>
        <time>2022-09-25T09:33:38Z</time>
      </trkpt>
      <trkpt lat="45.78609" lon="5.43226">
        <ele>222.8</ele>
        <time>2022-09-25T09:33:39Z</time>
      </trkpt>
      <trkpt lat="45.78604" lon="5.43227">
        <ele>223</ele>
        <time>2022-09-25T09:33:40Z</time>
      </trkpt>
      <trkpt lat="45.786" lon="5.43228">
        <ele>223.1</ele>
        <time>2022-09-25T09:33:41Z</time>
      </trkpt>
      <trkpt lat="45.78596" lon="5.43229">
        <ele>223.3</ele>
        <time>2022-09-25T09:33:42Z</time>
      </trkpt>
      <trkpt lat="45.78592" lon="5.43228">
        <ele>223.5</ele>
        <time>2022-09-25T09:33:43Z</time>
      </trkpt>
      <trkpt lat="45.78589" lon="5.43226">
        <ele>223.7</ele>
        <time>2022-09-25T09:33:44Z</time>
      </trkpt>
      <trkpt lat="45.78586" lon="5.43224">
        <ele>223.9</ele>
        <time>2022-09-25T09:33:45Z</time>
      </trkpt>
      <trkpt lat="45.78582" lon="5.43222">
        <ele>224</ele>
        <time>2022-09-25T09:33:46Z</time>
      </trkpt>
      <trkpt lat="45.78581" lon="5.43222">
        <ele>224.1</ele>
        <time>2022-09-25T09:33:47Z</time>
      </trkpt>
      <trkpt lat="45.78581" lon="5.43221">
        <ele>224.1</ele>
        <time>2022-09-25T09:33:48Z</time>
      </trkpt>
      <trkpt lat="45.78581" lon="5.43221">
        <ele>224.1</ele>
        <time>2022-09-25T09:33:49Z</time>
      </trkpt>
      <trkpt lat="45.78581" lon="5.43221">
        <ele>224.1</ele>
        <time>2022-09-25T09:33:50Z</time>
      </trkpt>
      <trkpt lat="45.78581" lon="5.43221">
        <ele>224.1</ele>
        <time>2022-09-25T09:33:51Z</time>
      </trkpt>
      <trkpt lat="45.78581" lon="5.43221">
        <ele>224.1</ele>
        <time>2022-09-25T09:33:52Z</time>
      </trkpt>
      <trkpt lat="45.7858" lon="5.4322">
        <ele>224.2</ele>
        <time>2022-09-25T09:33:53Z</time>
      </trkpt>
      <trkpt lat="45.78579" lon="5.43219">
        <ele>224.2</ele>
        <time>2022-09-25T09:33:54Z</time>
      </trkpt>
      <trkpt lat="45.78577" lon="5.43217">
        <ele>224.4</ele>
        <time>2022-09-25T09:33:55Z</time>
      </trkpt>
      <trkpt lat="45.78576" lon="5.43216">
        <ele>224.4</ele>
        <time>2022-09-25T09:33:56Z</time>
      </trkpt>
      <trkpt lat="45.78574" lon="5.43213">
        <ele>224.5</ele>
        <time>2022-09-25T09:33:57Z</time>
      </trkpt>
      <trkpt lat="45.78572" lon="5.43211">
        <ele>224.5</ele>
        <time>2022-09-25T09:33:58Z</time>
      </trkpt>
      <trkpt lat="45.78569" lon="5.43209">
        <ele>224.5</ele>
        <time>2022-09-25T09:33:59Z</time>
      </trkpt>
      <trkpt lat="45.78566" lon="5.43207">
        <ele>224.6</ele>
        <time>2022-09-25T09:34:00Z</time>
      </trkpt>
      <trkpt lat="45.78563" lon="5.43208">
        <ele>224.6</ele>
        <time>2022-09-25T09:34:01Z</time>
      </trkpt>
      <trkpt lat="45.78559" lon="5.43209">
        <ele>224.7</ele>
        <time>2022-09-25T09:34:02Z</time>
      </trkpt>
      <trkpt lat="45.78555" lon="5.4321">
        <ele>224.7</ele>
        <time>2022-09-25T09:34:03Z</time>
      </trkpt>
      <trkpt lat="45.78551" lon="5.4321">
        <ele>224.8</ele>
        <time>2022-09-25T09:34:04Z</time>
      </trkpt>
      <trkpt lat="45.78548" lon="5.43211">
        <ele>224.9</ele>
        <time>2022-09-25T09:34:05Z</time>
      </trkpt>
      <trkpt lat="45.78544" lon="5.43212">
        <ele>224.9</ele>
        <time>2022-09-25T09:34:06Z</time>
      </trkpt>
      <trkpt lat="45.7854" lon="5.43213">
        <ele>225</ele>
        <time>2022-09-25T09:34:07Z</time>
      </trkpt>
      <trkpt lat="45.78535" lon="5.43213">
        <ele>225</ele>
        <time>2022-09-25T09:34:08Z</time>
      </trkpt>
      <trkpt lat="45.78531" lon="5.43214">
        <ele>225.1</ele>
        <time>2022-09-25T09:34:09Z</time>
      </trkpt>
      <trkpt lat="45.78527" lon="5.43214">
        <ele>225.2</ele>
        <time>2022-09-25T09:34:10Z</time>
      </trkpt>
      <trkpt lat="45.78523" lon="5.43214">
        <ele>225.2</ele>
        <time>2022-09-25T09:34:11Z</time>
      </trkpt>
      <trkpt lat="45.78519" lon="5.43215">
        <ele>225.3</ele>
        <time>2022-09-25T09:34:12Z</time>
      </trkpt>
      <trkpt lat="45.78514" lon="5.43216">
        <ele>225.4</ele>
        <time>2022-09-25T09:34:14Z</time>
      </trkpt>
      <trkpt lat="45.7851" lon="5.43216">
        <ele>225.4</ele>
        <time>2022-09-25T09:34:15Z</time>
      </trkpt>
      <trkpt lat="45.78505" lon="5.43217">
        <ele>225.5</ele>
        <time>2022-09-25T09:34:16Z</time>
      </trkpt>
      <trkpt lat="45.78501" lon="5.43218">
        <ele>225.5</ele>
        <time>2022-09-25T09:34:17Z</time>
      </trkpt>
      <trkpt lat="45.78496" lon="5.43219">
        <ele>225.6</ele>
        <time>2022-09-25T09:34:18Z</time>
      </trkpt>
      <trkpt lat="45.78492" lon="5.43219">
        <ele>225.6</ele>
        <time>2022-09-25T09:34:19Z</time>
      </trkpt>
      <trkpt lat="45.78487" lon="5.43219">
        <ele>225.6</ele>
        <time>2022-09-25T09:34:20Z</time>
      </trkpt>
      <trkpt lat="45.78482" lon="5.43221">
        <ele>225.6</ele>
        <time>2022-09-25T09:34:21Z</time>
      </trkpt>
      <trkpt lat="45.78478" lon="5.43221">
        <ele>225.6</ele>
        <time>2022-09-25T09:34:22Z</time>
      </trkpt>
      <trkpt lat="45.78474" lon="5.43222">
        <ele>225.5</ele>
        <time>2022-09-25T09:34:23Z</time>
      </trkpt>
      <trkpt lat="45.78468" lon="5.43222">
        <ele>225.5</ele>
        <time>2022-09-25T09:34:24Z</time>
      </trkpt>
      <trkpt lat="45.78463" lon="5.43223">
        <ele>225.4</ele>
        <time>2022-09-25T09:34:25Z</time>
      </trkpt>
      <trkpt lat="45.78458" lon="5.43223">
        <ele>225.3</ele>
        <time>2022-09-25T09:34:26Z</time>
      </trkpt>
      <trkpt lat="45.78452" lon="5.43222">
        <ele>225.2</ele>
        <time>2022-09-25T09:34:27Z</time>
      </trkpt>
      <trkpt lat="45.78447" lon="5.43222">
        <ele>225.2</ele>
        <time>2022-09-25T09:34:28Z</time>
      </trkpt>
      <trkpt lat="45.78441" lon="5.43221">
        <ele>225.1</ele>
        <time>2022-09-25T09:34:29Z</time>
      </trkpt>
      <trkpt lat="45.78435" lon="5.4322">
        <ele>224.9</ele>
        <time>2022-09-25T09:34:30Z</time>
      </trkpt>
      <trkpt lat="45.78429" lon="5.43218">
        <ele>224.7</ele>
        <time>2022-09-25T09:34:31Z</time>
      </trkpt>
      <trkpt lat="45.78423" lon="5.43217">
        <ele>224.5</ele>
        <time>2022-09-25T09:34:32Z</time>
      </trkpt>
      <trkpt lat="45.78417" lon="5.43217">
        <ele>224.4</ele>
        <time>2022-09-25T09:34:33Z</time>
      </trkpt>
      <trkpt lat="45.78411" lon="5.43217">
        <ele>224.3</ele>
        <time>2022-09-25T09:34:34Z</time>
      </trkpt>
      <trkpt lat="45.78405" lon="5.43218">
        <ele>224.2</ele>
        <time>2022-09-25T09:34:35Z</time>
      </trkpt>
      <trkpt lat="45.78399" lon="5.4322">
        <ele>224.1</ele>
        <time>2022-09-25T09:34:36Z</time>
      </trkpt>
      <trkpt lat="45.78393" lon="5.43222">
        <ele>224</ele>
        <time>2022-09-25T09:34:37Z</time>
      </trkpt>
      <trkpt lat="45.78386" lon="5.43223">
        <ele>224</ele>
        <time>2022-09-25T09:34:38Z</time>
      </trkpt>
      <trkpt lat="45.78381" lon="5.43223">
        <ele>223.9</ele>
        <time>2022-09-25T09:34:39Z</time>
      </trkpt>
      <trkpt lat="45.78375" lon="5.43221">
        <ele>223.9</ele>
        <time>2022-09-25T09:34:40Z</time>
      </trkpt>
      <trkpt lat="45.78369" lon="5.4322">
        <ele>223.8</ele>
        <time>2022-09-25T09:34:41Z</time>
      </trkpt>
      <trkpt lat="45.78363" lon="5.43218">
        <ele>223.8</ele>
        <time>2022-09-25T09:34:42Z</time>
      </trkpt>
      <trkpt lat="45.78356" lon="5.43217">
        <ele>223.7</ele>
        <time>2022-09-25T09:34:43Z</time>
      </trkpt>
      <trkpt lat="45.78344" lon="5.43216">
        <ele>223.7</ele>
        <time>2022-09-25T09:34:44Z</time>
      </trkpt>
      <trkpt lat="45.78339" lon="5.43214">
        <ele>223.7</ele>
        <time>2022-09-25T09:34:45Z</time>
      </trkpt>
      <trkpt lat="45.78334" lon="5.43213">
        <ele>223.8</ele>
        <time>2022-09-25T09:34:46Z</time>
      </trkpt>
      <trkpt lat="45.78326" lon="5.43215">
        <ele>223.9</ele>
        <time>2022-09-25T09:34:47Z</time>
      </trkpt>
      <trkpt lat="45.78321" lon="5.43214">
        <ele>223.9</ele>
        <time>2022-09-25T09:34:48Z</time>
      </trkpt>
      <trkpt lat="45.78316" lon="5.43215">
        <ele>224</ele>
        <time>2022-09-25T09:34:49Z</time>
      </trkpt>
      <trkpt lat="45.7831" lon="5.43217">
        <ele>224.1</ele>
        <time>2022-09-25T09:34:50Z</time>
      </trkpt>
      <trkpt lat="45.78304" lon="5.43217">
        <ele>224.1</ele>
        <time>2022-09-25T09:34:51Z</time>
      </trkpt>
      <trkpt lat="45.78297" lon="5.43219">
        <ele>224.2</ele>
        <time>2022-09-25T09:34:52Z</time>
      </trkpt>
      <trkpt lat="45.78293" lon="5.43219">
        <ele>224.3</ele>
        <time>2022-09-25T09:34:53Z</time>
      </trkpt>
      <trkpt lat="45.78288" lon="5.43217">
        <ele>224.3</ele>
        <time>2022-09-25T09:34:54Z</time>
      </trkpt>
      <trkpt lat="45.78282" lon="5.43217">
        <ele>224.4</ele>
        <time>2022-09-25T09:34:55Z</time>
      </trkpt>
      <trkpt lat="45.78278" lon="5.43217">
        <ele>224.4</ele>
        <time>2022-09-25T09:34:56Z</time>
      </trkpt>
      <trkpt lat="45.78271" lon="5.43217">
        <ele>224.5</ele>
        <time>2022-09-25T09:34:57Z</time>
      </trkpt>
      <trkpt lat="45.78266" lon="5.43216">
        <ele>224.5</ele>
        <time>2022-09-25T09:34:58Z</time>
      </trkpt>
      <trkpt lat="45.78261" lon="5.43215">
        <ele>224.6</ele>
        <time>2022-09-25T09:34:59Z</time>
      </trkpt>
      <trkpt lat="45.78256" lon="5.43213">
        <ele>224.6</ele>
        <time>2022-09-25T09:35:00Z</time>
      </trkpt>
      <trkpt lat="45.7825" lon="5.43212">
        <ele>224.7</ele>
        <time>2022-09-25T09:35:01Z</time>
      </trkpt>
      <trkpt lat="45.78245" lon="5.43213">
        <ele>224.7</ele>
        <time>2022-09-25T09:35:02Z</time>
      </trkpt>
      <trkpt lat="45.78239" lon="5.43215">
        <ele>224.8</ele>
        <time>2022-09-25T09:35:03Z</time>
      </trkpt>
      <trkpt lat="45.78233" lon="5.43213">
        <ele>224.8</ele>
        <time>2022-09-25T09:35:04Z</time>
      </trkpt>
      <trkpt lat="45.78227" lon="5.43213">
        <ele>224.9</ele>
        <time>2022-09-25T09:35:05Z</time>
      </trkpt>
      <trkpt lat="45.78223" lon="5.43212">
        <ele>225</ele>
        <time>2022-09-25T09:35:06Z</time>
      </trkpt>
      <trkpt lat="45.78216" lon="5.43211">
        <ele>225.1</ele>
        <time>2022-09-25T09:35:07Z</time>
      </trkpt>
      <trkpt lat="45.7821" lon="5.43213">
        <ele>225.3</ele>
        <time>2022-09-25T09:35:08Z</time>
      </trkpt>
      <trkpt lat="45.78205" lon="5.43215">
        <ele>225.5</ele>
        <time>2022-09-25T09:35:09Z</time>
      </trkpt>
      <trkpt lat="45.782" lon="5.43217">
        <ele>225.6</ele>
        <time>2022-09-25T09:35:10Z</time>
      </trkpt>
      <trkpt lat="45.78195" lon="5.43217">
        <ele>225.8</ele>
        <time>2022-09-25T09:35:11Z</time>
      </trkpt>
      <trkpt lat="45.78191" lon="5.43218">
        <ele>226</ele>
        <time>2022-09-25T09:35:12Z</time>
      </trkpt>
      <trkpt lat="45.78186" lon="5.43221">
        <ele>226.1</ele>
        <time>2022-09-25T09:35:13Z</time>
      </trkpt>
      <trkpt lat="45.78181" lon="5.43224">
        <ele>226.3</ele>
        <time>2022-09-25T09:35:14Z</time>
      </trkpt>
      <trkpt lat="45.78177" lon="5.43227">
        <ele>226.4</ele>
        <time>2022-09-25T09:35:15Z</time>
      </trkpt>
      <trkpt lat="45.78173" lon="5.4323">
        <ele>226.5</ele>
        <time>2022-09-25T09:35:16Z</time>
      </trkpt>
      <trkpt lat="45.78169" lon="5.43233">
        <ele>226.6</ele>
        <time>2022-09-25T09:35:17Z</time>
      </trkpt>
      <trkpt lat="45.78165" lon="5.43235">
        <ele>226.7</ele>
        <time>2022-09-25T09:35:18Z</time>
      </trkpt>
      <trkpt lat="45.78162" lon="5.43237">
        <ele>226.6</ele>
        <time>2022-09-25T09:35:19Z</time>
      </trkpt>
      <trkpt lat="45.78157" lon="5.43239">
        <ele>226.6</ele>
        <time>2022-09-25T09:35:20Z</time>
      </trkpt>
      <trkpt lat="45.78152" lon="5.43241">
        <ele>226.5</ele>
        <time>2022-09-25T09:35:21Z</time>
      </trkpt>
      <trkpt lat="45.78148" lon="5.43243">
        <ele>226.5</ele>
        <time>2022-09-25T09:35:22Z</time>
      </trkpt>
      <trkpt lat="45.78143" lon="5.43246">
        <ele>226.4</ele>
        <time>2022-09-25T09:35:23Z</time>
      </trkpt>
      <trkpt lat="45.78138" lon="5.43248">
        <ele>226.3</ele>
        <time>2022-09-25T09:35:24Z</time>
      </trkpt>
      <trkpt lat="45.78133" lon="5.43251">
        <ele>226.3</ele>
        <time>2022-09-25T09:35:25Z</time>
      </trkpt>
      <trkpt lat="45.78127" lon="5.43254">
        <ele>226.2</ele>
        <time>2022-09-25T09:35:26Z</time>
      </trkpt>
      <trkpt lat="45.78123" lon="5.43257">
        <ele>226.2</ele>
        <time>2022-09-25T09:35:27Z</time>
      </trkpt>
      <trkpt lat="45.78119" lon="5.43261">
        <ele>226.1</ele>
        <time>2022-09-25T09:35:28Z</time>
      </trkpt>
      <trkpt lat="45.78115" lon="5.43266">
        <ele>226.1</ele>
        <time>2022-09-25T09:35:29Z</time>
      </trkpt>
      <trkpt lat="45.78113" lon="5.43273">
        <ele>226.1</ele>
        <time>2022-09-25T09:35:30Z</time>
      </trkpt>
      <trkpt lat="45.78114" lon="5.43277">
        <ele>226</ele>
        <time>2022-09-25T09:35:31Z</time>
      </trkpt>
      <trkpt lat="45.78115" lon="5.43281">
        <ele>226</ele>
        <time>2022-09-25T09:35:32Z</time>
      </trkpt>
      <trkpt lat="45.78114" lon="5.43285">
        <ele>226</ele>
        <time>2022-09-25T09:35:33Z</time>
      </trkpt>
      <trkpt lat="45.78115" lon="5.43289">
        <ele>225.9</ele>
        <time>2022-09-25T09:35:34Z</time>
      </trkpt>
      <trkpt lat="45.78115" lon="5.4329">
        <ele>225.9</ele>
        <time>2022-09-25T09:35:35Z</time>
      </trkpt>
      <trkpt lat="45.78113" lon="5.43294">
        <ele>225.8</ele>
        <time>2022-09-25T09:35:36Z</time>
      </trkpt>
      <trkpt lat="45.78113" lon="5.43296">
        <ele>225.8</ele>
        <time>2022-09-25T09:35:37Z</time>
      </trkpt>
      <trkpt lat="45.7811" lon="5.43298">
        <ele>225.7</ele>
        <time>2022-09-25T09:35:38Z</time>
      </trkpt>
      <trkpt lat="45.78109" lon="5.433">
        <ele>225.7</ele>
        <time>2022-09-25T09:35:39Z</time>
      </trkpt>
      <trkpt lat="45.78105" lon="5.43302">
        <ele>225.6</ele>
        <time>2022-09-25T09:35:40Z</time>
      </trkpt>
      <trkpt lat="45.78103" lon="5.43305">
        <ele>225.5</ele>
        <time>2022-09-25T09:35:41Z</time>
      </trkpt>
      <trkpt lat="45.78098" lon="5.43302">
        <ele>225.4</ele>
        <time>2022-09-25T09:35:42Z</time>
      </trkpt>
      <trkpt lat="45.78094" lon="5.43303">
        <ele>225.3</ele>
        <time>2022-09-25T09:35:43Z</time>
      </trkpt>
      <trkpt lat="45.7809" lon="5.43303">
        <ele>225.2</ele>
        <time>2022-09-25T09:35:44Z</time>
      </trkpt>
      <trkpt lat="45.78086" lon="5.43304">
        <ele>225.2</ele>
        <time>2022-09-25T09:35:45Z</time>
      </trkpt>
      <trkpt lat="45.78082" lon="5.43304">
        <ele>225.1</ele>
        <time>2022-09-25T09:35:46Z</time>
      </trkpt>
      <trkpt lat="45.78078" lon="5.43305">
        <ele>225.1</ele>
        <time>2022-09-25T09:35:47Z</time>
      </trkpt>
      <trkpt lat="45.78073" lon="5.43307">
        <ele>225</ele>
        <time>2022-09-25T09:35:48Z</time>
      </trkpt>
      <trkpt lat="45.78069" lon="5.4331">
        <ele>225</ele>
        <time>2022-09-25T09:35:49Z</time>
      </trkpt>
      <trkpt lat="45.78066" lon="5.43315">
        <ele>224.9</ele>
        <time>2022-09-25T09:35:50Z</time>
      </trkpt>
      <trkpt lat="45.78063" lon="5.4332">
        <ele>224.9</ele>
        <time>2022-09-25T09:35:51Z</time>
      </trkpt>
      <trkpt lat="45.78061" lon="5.43324">
        <ele>224.9</ele>
        <time>2022-09-25T09:35:52Z</time>
      </trkpt>
      <trkpt lat="45.78058" lon="5.4333">
        <ele>224.9</ele>
        <time>2022-09-25T09:35:53Z</time>
      </trkpt>
      <trkpt lat="45.78056" lon="5.43334">
        <ele>225</ele>
        <time>2022-09-25T09:35:54Z</time>
      </trkpt>
      <trkpt lat="45.78052" lon="5.43341">
        <ele>225</ele>
        <time>2022-09-25T09:35:55Z</time>
      </trkpt>
      <trkpt lat="45.78049" lon="5.43347">
        <ele>225.1</ele>
        <time>2022-09-25T09:35:56Z</time>
      </trkpt>
      <trkpt lat="45.78046" lon="5.43352">
        <ele>225.3</ele>
        <time>2022-09-25T09:35:57Z</time>
      </trkpt>
      <trkpt lat="45.78043" lon="5.43357">
        <ele>225.4</ele>
        <time>2022-09-25T09:35:58Z</time>
      </trkpt>
      <trkpt lat="45.7804" lon="5.43361">
        <ele>225.5</ele>
        <time>2022-09-25T09:35:59Z</time>
      </trkpt>
      <trkpt lat="45.78036" lon="5.43367">
        <ele>225.7</ele>
        <time>2022-09-25T09:36:00Z</time>
      </trkpt>
      <trkpt lat="45.78033" lon="5.43371">
        <ele>225.8</ele>
        <time>2022-09-25T09:36:01Z</time>
      </trkpt>
      <trkpt lat="45.78029" lon="5.43376">
        <ele>225.9</ele>
        <time>2022-09-25T09:36:02Z</time>
      </trkpt>
      <trkpt lat="45.78025" lon="5.4338">
        <ele>226</ele>
        <time>2022-09-25T09:36:03Z</time>
      </trkpt>
      <trkpt lat="45.78023" lon="5.43383">
        <ele>226.1</ele>
        <time>2022-09-25T09:36:04Z</time>
      </trkpt>
      <trkpt lat="45.78019" lon="5.43387">
        <ele>226.1</ele>
        <time>2022-09-25T09:36:05Z</time>
      </trkpt>
      <trkpt lat="45.78016" lon="5.43391">
        <ele>226.1</ele>
        <time>2022-09-25T09:36:06Z</time>
      </trkpt>
      <trkpt lat="45.78012" lon="5.43396">
        <ele>226.1</ele>
        <time>2022-09-25T09:36:07Z</time>
      </trkpt>
      <trkpt lat="45.78008" lon="5.43401">
        <ele>226</ele>
        <time>2022-09-25T09:36:08Z</time>
      </trkpt>
      <trkpt lat="45.78005" lon="5.43406">
        <ele>225.9</ele>
        <time>2022-09-25T09:36:09Z</time>
      </trkpt>
      <trkpt lat="45.78001" lon="5.43411">
        <ele>225.8</ele>
        <time>2022-09-25T09:36:10Z</time>
      </trkpt>
      <trkpt lat="45.77998" lon="5.43416">
        <ele>225.7</ele>
        <time>2022-09-25T09:36:11Z</time>
      </trkpt>
      <trkpt lat="45.77994" lon="5.43424">
        <ele>225.5</ele>
        <time>2022-09-25T09:36:12Z</time>
      </trkpt>
      <trkpt lat="45.7799" lon="5.43431">
        <ele>225.4</ele>
        <time>2022-09-25T09:36:13Z</time>
      </trkpt>
      <trkpt lat="45.77986" lon="5.43439">
        <ele>225.2</ele>
        <time>2022-09-25T09:36:14Z</time>
      </trkpt>
      <trkpt lat="45.77983" lon="5.43447">
        <ele>225.1</ele>
        <time>2022-09-25T09:36:15Z</time>
      </trkpt>
      <trkpt lat="45.77979" lon="5.43455">
        <ele>225</ele>
        <time>2022-09-25T09:36:16Z</time>
      </trkpt>
      <trkpt lat="45.77976" lon="5.43462">
        <ele>224.9</ele>
        <time>2022-09-25T09:36:17Z</time>
      </trkpt>
      <trkpt lat="45.77972" lon="5.43472">
        <ele>224.8</ele>
        <time>2022-09-25T09:36:18Z</time>
      </trkpt>
      <trkpt lat="45.77968" lon="5.4348">
        <ele>224.7</ele>
        <time>2022-09-25T09:36:19Z</time>
      </trkpt>
      <trkpt lat="45.77965" lon="5.43489">
        <ele>224.6</ele>
        <time>2022-09-25T09:36:20Z</time>
      </trkpt>
      <trkpt lat="45.77961" lon="5.43497">
        <ele>224.6</ele>
        <time>2022-09-25T09:36:21Z</time>
      </trkpt>
      <trkpt lat="45.77958" lon="5.43505">
        <ele>224.6</ele>
        <time>2022-09-25T09:36:22Z</time>
      </trkpt>
      <trkpt lat="45.77954" lon="5.43513">
        <ele>224.6</ele>
        <time>2022-09-25T09:36:23Z</time>
      </trkpt>
      <trkpt lat="45.7795" lon="5.43521">
        <ele>224.6</ele>
        <time>2022-09-25T09:36:24Z</time>
      </trkpt>
      <trkpt lat="45.77946" lon="5.43529">
        <ele>224.5</ele>
        <time>2022-09-25T09:36:25Z</time>
      </trkpt>
      <trkpt lat="45.77943" lon="5.43536">
        <ele>224.5</ele>
        <time>2022-09-25T09:36:26Z</time>
      </trkpt>
      <trkpt lat="45.77939" lon="5.43544">
        <ele>224.4</ele>
        <time>2022-09-25T09:36:27Z</time>
      </trkpt>
      <trkpt lat="45.77935" lon="5.43552">
        <ele>224.4</ele>
        <time>2022-09-25T09:36:28Z</time>
      </trkpt>
      <trkpt lat="45.77931" lon="5.4356">
        <ele>224.3</ele>
        <time>2022-09-25T09:36:29Z</time>
      </trkpt>
      <trkpt lat="45.77928" lon="5.43568">
        <ele>224.2</ele>
        <time>2022-09-25T09:36:30Z</time>
      </trkpt>
      <trkpt lat="45.77923" lon="5.43575">
        <ele>224.2</ele>
        <time>2022-09-25T09:36:31Z</time>
      </trkpt>
      <trkpt lat="45.77919" lon="5.43583">
        <ele>224.1</ele>
        <time>2022-09-25T09:36:32Z</time>
      </trkpt>
      <trkpt lat="45.77915" lon="5.4359">
        <ele>224.1</ele>
        <time>2022-09-25T09:36:33Z</time>
      </trkpt>
      <trkpt lat="45.77911" lon="5.43598">
        <ele>224.1</ele>
        <time>2022-09-25T09:36:34Z</time>
      </trkpt>
      <trkpt lat="45.77907" lon="5.43605">
        <ele>224.1</ele>
        <time>2022-09-25T09:36:35Z</time>
      </trkpt>
      <trkpt lat="45.77903" lon="5.43612">
        <ele>224.1</ele>
        <time>2022-09-25T09:36:36Z</time>
      </trkpt>
      <trkpt lat="45.77899" lon="5.43617">
        <ele>224.2</ele>
        <time>2022-09-25T09:36:37Z</time>
      </trkpt>
      <trkpt lat="45.77896" lon="5.43623">
        <ele>224.2</ele>
        <time>2022-09-25T09:36:38Z</time>
      </trkpt>
      <trkpt lat="45.77892" lon="5.43628">
        <ele>224.3</ele>
        <time>2022-09-25T09:36:39Z</time>
      </trkpt>
      <trkpt lat="45.77887" lon="5.43632">
        <ele>224.4</ele>
        <time>2022-09-25T09:36:40Z</time>
      </trkpt>
      <trkpt lat="45.77883" lon="5.43631">
        <ele>224.5</ele>
        <time>2022-09-25T09:36:41Z</time>
      </trkpt>
      <trkpt lat="45.77882" lon="5.4363">
        <ele>224.4</ele>
        <time>2022-09-25T09:36:42Z</time>
      </trkpt>
      <trkpt lat="45.77879" lon="5.43626">
        <ele>224.4</ele>
        <time>2022-09-25T09:36:43Z</time>
      </trkpt>
      <trkpt lat="45.77878" lon="5.43621">
        <ele>224.3</ele>
        <time>2022-09-25T09:36:44Z</time>
      </trkpt>
      <trkpt lat="45.77876" lon="5.43616">
        <ele>224.3</ele>
        <time>2022-09-25T09:36:45Z</time>
      </trkpt>
      <trkpt lat="45.77874" lon="5.43611">
        <ele>224.2</ele>
        <time>2022-09-25T09:36:46Z</time>
      </trkpt>
      <trkpt lat="45.77872" lon="5.43606">
        <ele>224.2</ele>
        <time>2022-09-25T09:36:47Z</time>
      </trkpt>
      <trkpt lat="45.7787" lon="5.43601">
        <ele>224.1</ele>
        <time>2022-09-25T09:36:48Z</time>
      </trkpt>
      <trkpt lat="45.77869" lon="5.43596">
        <ele>224.1</ele>
        <time>2022-09-25T09:36:49Z</time>
      </trkpt>
      <trkpt lat="45.77867" lon="5.4359">
        <ele>224.1</ele>
        <time>2022-09-25T09:36:50Z</time>
      </trkpt>
      <trkpt lat="45.77865" lon="5.43584">
        <ele>224.1</ele>
        <time>2022-09-25T09:36:51Z</time>
      </trkpt>
      <trkpt lat="45.77864" lon="5.43578">
        <ele>224.1</ele>
        <time>2022-09-25T09:36:52Z</time>
      </trkpt>
      <trkpt lat="45.77861" lon="5.43572">
        <ele>224.1</ele>
        <time>2022-09-25T09:36:53Z</time>
      </trkpt>
      <trkpt lat="45.7786" lon="5.43567">
        <ele>224.1</ele>
        <time>2022-09-25T09:36:54Z</time>
      </trkpt>
      <trkpt lat="45.77857" lon="5.43561">
        <ele>224.1</ele>
        <time>2022-09-25T09:36:55Z</time>
      </trkpt>
      <trkpt lat="45.77855" lon="5.43555">
        <ele>224.1</ele>
        <time>2022-09-25T09:36:56Z</time>
      </trkpt>
      <trkpt lat="45.77853" lon="5.43549">
        <ele>224.2</ele>
        <time>2022-09-25T09:36:57Z</time>
      </trkpt>
      <trkpt lat="45.77851" lon="5.43543">
        <ele>224.2</ele>
        <time>2022-09-25T09:36:58Z</time>
      </trkpt>
      <trkpt lat="45.77849" lon="5.43537">
        <ele>224.2</ele>
        <time>2022-09-25T09:36:59Z</time>
      </trkpt>
      <trkpt lat="45.77847" lon="5.43531">
        <ele>224.3</ele>
        <time>2022-09-25T09:37:00Z</time>
      </trkpt>
      <trkpt lat="45.77845" lon="5.43525">
        <ele>224.3</ele>
        <time>2022-09-25T09:37:01Z</time>
      </trkpt>
      <trkpt lat="45.77843" lon="5.43519">
        <ele>224.3</ele>
        <time>2022-09-25T09:37:02Z</time>
      </trkpt>
      <trkpt lat="45.77841" lon="5.43513">
        <ele>224.4</ele>
        <time>2022-09-25T09:37:03Z</time>
      </trkpt>
      <trkpt lat="45.77838" lon="5.43508">
        <ele>224.4</ele>
        <time>2022-09-25T09:37:04Z</time>
      </trkpt>
      <trkpt lat="45.77836" lon="5.435">
        <ele>224.4</ele>
        <time>2022-09-25T09:37:05Z</time>
      </trkpt>
      <trkpt lat="45.77834" lon="5.43494">
        <ele>224.4</ele>
        <time>2022-09-25T09:37:06Z</time>
      </trkpt>
      <trkpt lat="45.77831" lon="5.43488">
        <ele>224.5</ele>
        <time>2022-09-25T09:37:07Z</time>
      </trkpt>
      <trkpt lat="45.77829" lon="5.43482">
        <ele>224.5</ele>
        <time>2022-09-25T09:37:08Z</time>
      </trkpt>
      <trkpt lat="45.77826" lon="5.43475">
        <ele>224.5</ele>
        <time>2022-09-25T09:37:09Z</time>
      </trkpt>
      <trkpt lat="45.77824" lon="5.43469">
        <ele>224.6</ele>
        <time>2022-09-25T09:37:10Z</time>
      </trkpt>
      <trkpt lat="45.77822" lon="5.43462">
        <ele>224.6</ele>
        <time>2022-09-25T09:37:11Z</time>
      </trkpt>
      <trkpt lat="45.7782" lon="5.43455">
        <ele>224.6</ele>
        <time>2022-09-25T09:37:12Z</time>
      </trkpt>
      <trkpt lat="45.77818" lon="5.43449">
        <ele>224.7</ele>
        <time>2022-09-25T09:37:13Z</time>
      </trkpt>
      <trkpt lat="45.77816" lon="5.43443">
        <ele>224.7</ele>
        <time>2022-09-25T09:37:14Z</time>
      </trkpt>
      <trkpt lat="45.77814" lon="5.43437">
        <ele>224.7</ele>
        <time>2022-09-25T09:37:15Z</time>
      </trkpt>
      <trkpt lat="45.77812" lon="5.4343">
        <ele>224.8</ele>
        <time>2022-09-25T09:37:16Z</time>
      </trkpt>
      <trkpt lat="45.7781" lon="5.43423">
        <ele>224.8</ele>
        <time>2022-09-25T09:37:17Z</time>
      </trkpt>
      <trkpt lat="45.77808" lon="5.43417">
        <ele>224.8</ele>
        <time>2022-09-25T09:37:18Z</time>
      </trkpt>
      <trkpt lat="45.77806" lon="5.43411">
        <ele>224.8</ele>
        <time>2022-09-25T09:37:19Z</time>
      </trkpt>
      <trkpt lat="45.77804" lon="5.43404">
        <ele>224.8</ele>
        <time>2022-09-25T09:37:20Z</time>
      </trkpt>
      <trkpt lat="45.77803" lon="5.43398">
        <ele>224.7</ele>
        <time>2022-09-25T09:37:21Z</time>
      </trkpt>
      <trkpt lat="45.778" lon="5.43392">
        <ele>224.7</ele>
        <time>2022-09-25T09:37:22Z</time>
      </trkpt>
      <trkpt lat="45.77799" lon="5.43385">
        <ele>224.7</ele>
        <time>2022-09-25T09:37:23Z</time>
      </trkpt>
      <trkpt lat="45.77796" lon="5.43379">
        <ele>224.7</ele>
        <time>2022-09-25T09:37:24Z</time>
      </trkpt>
      <trkpt lat="45.77794" lon="5.43373">
        <ele>224.7</ele>
        <time>2022-09-25T09:37:25Z</time>
      </trkpt>
      <trkpt lat="45.77792" lon="5.43366">
        <ele>224.7</ele>
        <time>2022-09-25T09:37:26Z</time>
      </trkpt>
      <trkpt lat="45.7779" lon="5.43361">
        <ele>224.8</ele>
        <time>2022-09-25T09:37:27Z</time>
      </trkpt>
      <trkpt lat="45.77788" lon="5.43355">
        <ele>224.8</ele>
        <time>2022-09-25T09:37:28Z</time>
      </trkpt>
      <trkpt lat="45.77786" lon="5.43349">
        <ele>224.8</ele>
        <time>2022-09-25T09:37:29Z</time>
      </trkpt>
      <trkpt lat="45.77784" lon="5.43343">
        <ele>224.9</ele>
        <time>2022-09-25T09:37:30Z</time>
      </trkpt>
      <trkpt lat="45.77782" lon="5.43337">
        <ele>225</ele>
        <time>2022-09-25T09:37:31Z</time>
      </trkpt>
      <trkpt lat="45.7778" lon="5.43333">
        <ele>225.1</ele>
        <time>2022-09-25T09:37:32Z</time>
      </trkpt>
      <trkpt lat="45.77779" lon="5.43331">
        <ele>225.1</ele>
        <time>2022-09-25T09:37:33Z</time>
      </trkpt>
      <trkpt lat="45.77776" lon="5.4333">
        <ele>225.2</ele>
        <time>2022-09-25T09:37:34Z</time>
      </trkpt>
      <trkpt lat="45.77773" lon="5.43329">
        <ele>225.1</ele>
        <time>2022-09-25T09:37:35Z</time>
      </trkpt>
      <trkpt lat="45.7777" lon="5.43329">
        <ele>225</ele>
        <time>2022-09-25T09:37:36Z</time>
      </trkpt>
      <trkpt lat="45.77765" lon="5.4333">
        <ele>224.8</ele>
        <time>2022-09-25T09:37:37Z</time>
      </trkpt>
      <trkpt lat="45.7776" lon="5.43331">
        <ele>224.6</ele>
        <time>2022-09-25T09:37:38Z</time>
      </trkpt>
      <trkpt lat="45.77755" lon="5.43332">
        <ele>224.5</ele>
        <time>2022-09-25T09:37:39Z</time>
      </trkpt>
      <trkpt lat="45.77749" lon="5.43332">
        <ele>224.4</ele>
        <time>2022-09-25T09:37:40Z</time>
      </trkpt>
      <trkpt lat="45.77744" lon="5.43332">
        <ele>224.3</ele>
        <time>2022-09-25T09:37:41Z</time>
      </trkpt>
      <trkpt lat="45.77739" lon="5.43333">
        <ele>224.3</ele>
        <time>2022-09-25T09:37:42Z</time>
      </trkpt>
      <trkpt lat="45.77734" lon="5.43333">
        <ele>224.2</ele>
        <time>2022-09-25T09:37:43Z</time>
      </trkpt>
      <trkpt lat="45.77728" lon="5.43335">
        <ele>224.1</ele>
        <time>2022-09-25T09:37:44Z</time>
      </trkpt>
      <trkpt lat="45.77722" lon="5.43335">
        <ele>224.1</ele>
        <time>2022-09-25T09:37:45Z</time>
      </trkpt>
      <trkpt lat="45.77717" lon="5.43336">
        <ele>224</ele>
        <time>2022-09-25T09:37:46Z</time>
      </trkpt>
      <trkpt lat="45.77711" lon="5.43336">
        <ele>224</ele>
        <time>2022-09-25T09:37:47Z</time>
      </trkpt>
      <trkpt lat="45.77705" lon="5.43338">
        <ele>223.9</ele>
        <time>2022-09-25T09:37:48Z</time>
      </trkpt>
      <trkpt lat="45.77699" lon="5.43338">
        <ele>223.9</ele>
        <time>2022-09-25T09:37:49Z</time>
      </trkpt>
      <trkpt lat="45.77693" lon="5.43339">
        <ele>223.8</ele>
        <time>2022-09-25T09:37:50Z</time>
      </trkpt>
      <trkpt lat="45.77687" lon="5.4334">
        <ele>223.8</ele>
        <time>2022-09-25T09:37:51Z</time>
      </trkpt>
      <trkpt lat="45.7768" lon="5.43341">
        <ele>223.8</ele>
        <time>2022-09-25T09:37:52Z</time>
      </trkpt>
      <trkpt lat="45.77675" lon="5.43342">
        <ele>223.7</ele>
        <time>2022-09-25T09:37:53Z</time>
      </trkpt>
      <trkpt lat="45.77668" lon="5.43342">
        <ele>223.7</ele>
        <time>2022-09-25T09:37:54Z</time>
      </trkpt>
      <trkpt lat="45.77662" lon="5.43343">
        <ele>223.7</ele>
        <time>2022-09-25T09:37:55Z</time>
      </trkpt>
      <trkpt lat="45.77656" lon="5.43344">
        <ele>223.6</ele>
        <time>2022-09-25T09:37:56Z</time>
      </trkpt>
      <trkpt lat="45.7765" lon="5.43345">
        <ele>223.6</ele>
        <time>2022-09-25T09:37:57Z</time>
      </trkpt>
      <trkpt lat="45.77643" lon="5.43345">
        <ele>223.6</ele>
        <time>2022-09-25T09:37:58Z</time>
      </trkpt>
      <trkpt lat="45.77637" lon="5.43346">
        <ele>223.6</ele>
        <time>2022-09-25T09:37:59Z</time>
      </trkpt>
      <trkpt lat="45.77631" lon="5.43347">
        <ele>223.5</ele>
        <time>2022-09-25T09:38:00Z</time>
      </trkpt>
      <trkpt lat="45.77624" lon="5.43348">
        <ele>223.5</ele>
        <time>2022-09-25T09:38:01Z</time>
      </trkpt>
      <trkpt lat="45.77618" lon="5.43348">
        <ele>223.6</ele>
        <time>2022-09-25T09:38:02Z</time>
      </trkpt>
      <trkpt lat="45.77611" lon="5.43348">
        <ele>223.6</ele>
        <time>2022-09-25T09:38:03Z</time>
      </trkpt>
      <trkpt lat="45.77605" lon="5.43349">
        <ele>223.7</ele>
        <time>2022-09-25T09:38:04Z</time>
      </trkpt>
      <trkpt lat="45.77599" lon="5.43349">
        <ele>223.8</ele>
        <time>2022-09-25T09:38:05Z</time>
      </trkpt>
      <trkpt lat="45.77593" lon="5.43349">
        <ele>223.9</ele>
        <time>2022-09-25T09:38:06Z</time>
      </trkpt>
      <trkpt lat="45.77587" lon="5.43349">
        <ele>224.1</ele>
        <time>2022-09-25T09:38:07Z</time>
      </trkpt>
      <trkpt lat="45.77583" lon="5.43351">
        <ele>224.2</ele>
        <time>2022-09-25T09:38:08Z</time>
      </trkpt>
      <trkpt lat="45.77578" lon="5.43352">
        <ele>224.4</ele>
        <time>2022-09-25T09:38:09Z</time>
      </trkpt>
      <trkpt lat="45.77574" lon="5.43354">
        <ele>224.5</ele>
        <time>2022-09-25T09:38:10Z</time>
      </trkpt>
      <trkpt lat="45.77571" lon="5.43355">
        <ele>224.6</ele>
        <time>2022-09-25T09:38:11Z</time>
      </trkpt>
      <trkpt lat="45.77569" lon="5.43356">
        <ele>224.6</ele>
        <time>2022-09-25T09:38:12Z</time>
      </trkpt>
      <trkpt lat="45.77569" lon="5.43355">
        <ele>224.6</ele>
        <time>2022-09-25T09:38:13Z</time>
      </trkpt>
      <trkpt lat="45.77568" lon="5.43355">
        <ele>224.6</ele>
        <time>2022-09-25T09:38:14Z</time>
      </trkpt>
      <trkpt lat="45.77568" lon="5.43355">
        <ele>224.6</ele>
        <time>2022-09-25T09:38:15Z</time>
      </trkpt>
      <trkpt lat="45.77568" lon="5.43355">
        <ele>224.6</ele>
        <time>2022-09-25T09:38:16Z</time>
      </trkpt>
      <trkpt lat="45.77568" lon="5.43355">
        <ele>224.6</ele>
        <time>2022-09-25T09:38:17Z</time>
      </trkpt>
      <trkpt lat="45.77567" lon="5.43355">
        <ele>224.7</ele>
        <time>2022-09-25T09:38:18Z</time>
      </trkpt>
      <trkpt lat="45.77567" lon="5.43354">
        <ele>224.7</ele>
        <time>2022-09-25T09:38:19Z</time>
      </trkpt>
      <trkpt lat="45.77567" lon="5.43354">
        <ele>224.7</ele>
        <time>2022-09-25T09:38:20Z</time>
      </trkpt>
      <trkpt lat="45.77567" lon="5.43354">
        <ele>224.7</ele>
        <time>2022-09-25T09:38:21Z</time>
      </trkpt>
      <trkpt lat="45.77566" lon="5.43354">
        <ele>224.7</ele>
        <time>2022-09-25T09:38:22Z</time>
      </trkpt>
      <trkpt lat="45.77566" lon="5.43354">
        <ele>224.7</ele>
        <time>2022-09-25T09:38:23Z</time>
      </trkpt>
      <trkpt lat="45.77566" lon="5.43354">
        <ele>224.7</ele>
        <time>2022-09-25T09:38:25Z</time>
      </trkpt>
      <trkpt lat="45.77566" lon="5.43354">
        <ele>224.7</ele>
        <time>2022-09-25T09:38:26Z</time>
      </trkpt>
      <trkpt lat="45.77565" lon="5.43353">
        <ele>224.7</ele>
        <time>2022-09-25T09:38:27Z</time>
      </trkpt>
      <trkpt lat="45.77564" lon="5.4335">
        <ele>224.7</ele>
        <time>2022-09-25T09:38:28Z</time>
      </trkpt>
      <trkpt lat="45.77564" lon="5.43348">
        <ele>224.8</ele>
        <time>2022-09-25T09:38:29Z</time>
      </trkpt>
      <trkpt lat="45.77563" lon="5.43343">
        <ele>224.8</ele>
        <time>2022-09-25T09:38:30Z</time>
      </trkpt>
      <trkpt lat="45.77563" lon="5.43341">
        <ele>224.8</ele>
        <time>2022-09-25T09:38:31Z</time>
      </trkpt>
      <trkpt lat="45.77561" lon="5.43338">
        <ele>224.8</ele>
        <time>2022-09-25T09:38:32Z</time>
      </trkpt>
      <trkpt lat="45.7756" lon="5.43336">
        <ele>224.8</ele>
        <time>2022-09-25T09:38:33Z</time>
      </trkpt>
      <trkpt lat="45.77557" lon="5.43336">
        <ele>224.7</ele>
        <time>2022-09-25T09:38:34Z</time>
      </trkpt>
      <trkpt lat="45.77553" lon="5.43336">
        <ele>224.6</ele>
        <time>2022-09-25T09:38:35Z</time>
      </trkpt>
      <trkpt lat="45.77551" lon="5.43336">
        <ele>224.5</ele>
        <time>2022-09-25T09:38:36Z</time>
      </trkpt>
      <trkpt lat="45.77548" lon="5.43336">
        <ele>224.4</ele>
        <time>2022-09-25T09:38:37Z</time>
      </trkpt>
      <trkpt lat="45.77544" lon="5.43336">
        <ele>224.2</ele>
        <time>2022-09-25T09:38:38Z</time>
      </trkpt>
      <trkpt lat="45.77539" lon="5.43335">
        <ele>224</ele>
        <time>2022-09-25T09:38:39Z</time>
      </trkpt>
      <trkpt lat="45.77535" lon="5.43334">
        <ele>223.8</ele>
        <time>2022-09-25T09:38:40Z</time>
      </trkpt>
      <trkpt lat="45.77529" lon="5.43334">
        <ele>223.7</ele>
        <time>2022-09-25T09:38:41Z</time>
      </trkpt>
      <trkpt lat="45.77524" lon="5.43332">
        <ele>223.5</ele>
        <time>2022-09-25T09:38:42Z</time>
      </trkpt>
      <trkpt lat="45.77519" lon="5.43331">
        <ele>223.4</ele>
        <time>2022-09-25T09:38:43Z</time>
      </trkpt>
      <trkpt lat="45.77514" lon="5.43329">
        <ele>223.3</ele>
        <time>2022-09-25T09:38:44Z</time>
      </trkpt>
      <trkpt lat="45.77509" lon="5.43328">
        <ele>223.2</ele>
        <time>2022-09-25T09:38:45Z</time>
      </trkpt>
      <trkpt lat="45.77503" lon="5.43327">
        <ele>223.2</ele>
        <time>2022-09-25T09:38:46Z</time>
      </trkpt>
      <trkpt lat="45.77498" lon="5.43326">
        <ele>223.1</ele>
        <time>2022-09-25T09:38:47Z</time>
      </trkpt>
      <trkpt lat="45.77493" lon="5.43324">
        <ele>223.1</ele>
        <time>2022-09-25T09:38:48Z</time>
      </trkpt>
      <trkpt lat="45.77488" lon="5.43322">
        <ele>223</ele>
        <time>2022-09-25T09:38:49Z</time>
      </trkpt>
      <trkpt lat="45.77483" lon="5.4332">
        <ele>223</ele>
        <time>2022-09-25T09:38:50Z</time>
      </trkpt>
      <trkpt lat="45.77477" lon="5.43318">
        <ele>223</ele>
        <time>2022-09-25T09:38:51Z</time>
      </trkpt>
      <trkpt lat="45.77472" lon="5.43315">
        <ele>223</ele>
        <time>2022-09-25T09:38:52Z</time>
      </trkpt>
      <trkpt lat="45.77466" lon="5.43314">
        <ele>223</ele>
        <time>2022-09-25T09:38:53Z</time>
      </trkpt>
      <trkpt lat="45.77461" lon="5.43311">
        <ele>223</ele>
        <time>2022-09-25T09:38:54Z</time>
      </trkpt>
      <trkpt lat="45.77456" lon="5.43309">
        <ele>223</ele>
        <time>2022-09-25T09:38:55Z</time>
      </trkpt>
      <trkpt lat="45.77451" lon="5.43307">
        <ele>223</ele>
        <time>2022-09-25T09:38:56Z</time>
      </trkpt>
      <trkpt lat="45.77445" lon="5.43304">
        <ele>223</ele>
        <time>2022-09-25T09:38:57Z</time>
      </trkpt>
      <trkpt lat="45.7744" lon="5.43302">
        <ele>223</ele>
        <time>2022-09-25T09:38:58Z</time>
      </trkpt>
      <trkpt lat="45.77435" lon="5.43298">
        <ele>223.1</ele>
        <time>2022-09-25T09:38:59Z</time>
      </trkpt>
      <trkpt lat="45.77431" lon="5.43294">
        <ele>223.1</ele>
        <time>2022-09-25T09:39:00Z</time>
      </trkpt>
      <trkpt lat="45.77426" lon="5.43288">
        <ele>223.2</ele>
        <time>2022-09-25T09:39:01Z</time>
      </trkpt>
      <trkpt lat="45.77422" lon="5.43283">
        <ele>223.2</ele>
        <time>2022-09-25T09:39:02Z</time>
      </trkpt>
      <trkpt lat="45.77417" lon="5.43279">
        <ele>223.3</ele>
        <time>2022-09-25T09:39:03Z</time>
      </trkpt>
      <trkpt lat="45.77413" lon="5.43276">
        <ele>223.3</ele>
        <time>2022-09-25T09:39:04Z</time>
      </trkpt>
      <trkpt lat="45.77408" lon="5.43273">
        <ele>223.3</ele>
        <time>2022-09-25T09:39:05Z</time>
      </trkpt>
      <trkpt lat="45.77404" lon="5.4327">
        <ele>223.3</ele>
        <time>2022-09-25T09:39:06Z</time>
      </trkpt>
      <trkpt lat="45.77399" lon="5.43267">
        <ele>223.3</ele>
        <time>2022-09-25T09:39:07Z</time>
      </trkpt>
      <trkpt lat="45.77395" lon="5.43265">
        <ele>223.2</ele>
        <time>2022-09-25T09:39:08Z</time>
      </trkpt>
      <trkpt lat="45.77391" lon="5.43262">
        <ele>223.2</ele>
        <time>2022-09-25T09:39:09Z</time>
      </trkpt>
      <trkpt lat="45.77386" lon="5.43259">
        <ele>223</ele>
        <time>2022-09-25T09:39:10Z</time>
      </trkpt>
      <trkpt lat="45.77381" lon="5.43255">
        <ele>222.9</ele>
        <time>2022-09-25T09:39:11Z</time>
      </trkpt>
      <trkpt lat="45.77376" lon="5.43252">
        <ele>222.7</ele>
        <time>2022-09-25T09:39:12Z</time>
      </trkpt>
      <trkpt lat="45.77373" lon="5.43248">
        <ele>222.5</ele>
        <time>2022-09-25T09:39:13Z</time>
      </trkpt>
      <trkpt lat="45.77367" lon="5.43242">
        <ele>222.3</ele>
        <time>2022-09-25T09:39:14Z</time>
      </trkpt>
      <trkpt lat="45.77362" lon="5.43237">
        <ele>222.1</ele>
        <time>2022-09-25T09:39:15Z</time>
      </trkpt>
      <trkpt lat="45.77356" lon="5.43233">
        <ele>221.9</ele>
        <time>2022-09-25T09:39:16Z</time>
      </trkpt>
      <trkpt lat="45.7735" lon="5.43228">
        <ele>221.8</ele>
        <time>2022-09-25T09:39:17Z</time>
      </trkpt>
      <trkpt lat="45.77344" lon="5.43223">
        <ele>221.7</ele>
        <time>2022-09-25T09:39:18Z</time>
      </trkpt>
      <trkpt lat="45.77339" lon="5.43217">
        <ele>221.7</ele>
        <time>2022-09-25T09:39:19Z</time>
      </trkpt>
      <trkpt lat="45.77333" lon="5.43212">
        <ele>221.6</ele>
        <time>2022-09-25T09:39:20Z</time>
      </trkpt>
      <trkpt lat="45.77329" lon="5.43206">
        <ele>221.7</ele>
        <time>2022-09-25T09:39:21Z</time>
      </trkpt>
      <trkpt lat="45.77324" lon="5.43201">
        <ele>221.7</ele>
        <time>2022-09-25T09:39:22Z</time>
      </trkpt>
      <trkpt lat="45.7732" lon="5.43196">
        <ele>221.7</ele>
        <time>2022-09-25T09:39:23Z</time>
      </trkpt>
      <trkpt lat="45.77315" lon="5.4319">
        <ele>221.7</ele>
        <time>2022-09-25T09:39:24Z</time>
      </trkpt>
      <trkpt lat="45.7731" lon="5.43185">
        <ele>221.7</ele>
        <time>2022-09-25T09:39:25Z</time>
      </trkpt>
      <trkpt lat="45.77305" lon="5.4318">
        <ele>221.7</ele>
        <time>2022-09-25T09:39:26Z</time>
      </trkpt>
      <trkpt lat="45.77302" lon="5.43175">
        <ele>221.7</ele>
        <time>2022-09-25T09:39:27Z</time>
      </trkpt>
      <trkpt lat="45.77296" lon="5.43169">
        <ele>221.7</ele>
        <time>2022-09-25T09:39:28Z</time>
      </trkpt>
      <trkpt lat="45.77293" lon="5.43163">
        <ele>221.7</ele>
        <time>2022-09-25T09:39:29Z</time>
      </trkpt>
      <trkpt lat="45.77289" lon="5.43158">
        <ele>221.7</ele>
        <time>2022-09-25T09:39:30Z</time>
      </trkpt>
      <trkpt lat="45.77284" lon="5.43152">
        <ele>221.8</ele>
        <time>2022-09-25T09:39:31Z</time>
      </trkpt>
      <trkpt lat="45.7728" lon="5.43146">
        <ele>221.8</ele>
        <time>2022-09-25T09:39:32Z</time>
      </trkpt>
      <trkpt lat="45.77276" lon="5.4314">
        <ele>221.8</ele>
        <time>2022-09-25T09:39:33Z</time>
      </trkpt>
      <trkpt lat="45.77272" lon="5.43135">
        <ele>221.8</ele>
        <time>2022-09-25T09:39:34Z</time>
      </trkpt>
      <trkpt lat="45.77268" lon="5.43128">
        <ele>221.8</ele>
        <time>2022-09-25T09:39:35Z</time>
      </trkpt>
      <trkpt lat="45.77264" lon="5.43123">
        <ele>221.8</ele>
        <time>2022-09-25T09:39:36Z</time>
      </trkpt>
      <trkpt lat="45.7726" lon="5.43117">
        <ele>221.8</ele>
        <time>2022-09-25T09:39:37Z</time>
      </trkpt>
      <trkpt lat="45.77256" lon="5.43111">
        <ele>221.8</ele>
        <time>2022-09-25T09:39:38Z</time>
      </trkpt>
      <trkpt lat="45.77253" lon="5.43106">
        <ele>221.8</ele>
        <time>2022-09-25T09:39:39Z</time>
      </trkpt>
      <trkpt lat="45.77249" lon="5.431">
        <ele>221.9</ele>
        <time>2022-09-25T09:39:40Z</time>
      </trkpt>
      <trkpt lat="45.77246" lon="5.43094">
        <ele>222</ele>
        <time>2022-09-25T09:39:41Z</time>
      </trkpt>
      <trkpt lat="45.77243" lon="5.43089">
        <ele>222</ele>
        <time>2022-09-25T09:39:42Z</time>
      </trkpt>
      <trkpt lat="45.77241" lon="5.43084">
        <ele>222.1</ele>
        <time>2022-09-25T09:39:43Z</time>
      </trkpt>
      <trkpt lat="45.77238" lon="5.43079">
        <ele>222.2</ele>
        <time>2022-09-25T09:39:44Z</time>
      </trkpt>
      <trkpt lat="45.77235" lon="5.43074">
        <ele>222.3</ele>
        <time>2022-09-25T09:39:45Z</time>
      </trkpt>
      <trkpt lat="45.7723" lon="5.43068">
        <ele>222.5</ele>
        <time>2022-09-25T09:39:46Z</time>
      </trkpt>
      <trkpt lat="45.77227" lon="5.43064">
        <ele>222.7</ele>
        <time>2022-09-25T09:39:47Z</time>
      </trkpt>
      <trkpt lat="45.77225" lon="5.43059">
        <ele>222.8</ele>
        <time>2022-09-25T09:39:48Z</time>
      </trkpt>
      <trkpt lat="45.77223" lon="5.43055">
        <ele>222.9</ele>
        <time>2022-09-25T09:39:49Z</time>
      </trkpt>
      <trkpt lat="45.7722" lon="5.43052">
        <ele>223.3</ele>
        <time>2022-09-25T09:39:50Z</time>
      </trkpt>
      <trkpt lat="45.77218" lon="5.43051">
        <ele>223.3</ele>
        <time>2022-09-25T09:39:51Z</time>
      </trkpt>
      <trkpt lat="45.77215" lon="5.43053">
        <ele>223.3</ele>
        <time>2022-09-25T09:39:52Z</time>
      </trkpt>
      <trkpt lat="45.77214" lon="5.43054">
        <ele>223.3</ele>
        <time>2022-09-25T09:39:53Z</time>
      </trkpt>
      <trkpt lat="45.77211" lon="5.43057">
        <ele>223.2</ele>
        <time>2022-09-25T09:39:54Z</time>
      </trkpt>
      <trkpt lat="45.77211" lon="5.43058">
        <ele>223.2</ele>
        <time>2022-09-25T09:39:55Z</time>
      </trkpt>
      <trkpt lat="45.77208" lon="5.43062">
        <ele>223.2</ele>
        <time>2022-09-25T09:39:56Z</time>
      </trkpt>
      <trkpt lat="45.77205" lon="5.43065">
        <ele>223.2</ele>
        <time>2022-09-25T09:39:57Z</time>
      </trkpt>
      <trkpt lat="45.77202" lon="5.43067">
        <ele>223.2</ele>
        <time>2022-09-25T09:39:58Z</time>
      </trkpt>
      <trkpt lat="45.77199" lon="5.43071">
        <ele>223.2</ele>
        <time>2022-09-25T09:39:59Z</time>
      </trkpt>
      <trkpt lat="45.77196" lon="5.43075">
        <ele>223.2</ele>
        <time>2022-09-25T09:40:00Z</time>
      </trkpt>
      <trkpt lat="45.77191" lon="5.43079">
        <ele>223.2</ele>
        <time>2022-09-25T09:40:01Z</time>
      </trkpt>
      <trkpt lat="45.77188" lon="5.43083">
        <ele>223.2</ele>
        <time>2022-09-25T09:40:02Z</time>
      </trkpt>
      <trkpt lat="45.77184" lon="5.43087">
        <ele>223.2</ele>
        <time>2022-09-25T09:40:03Z</time>
      </trkpt>
      <trkpt lat="45.7718" lon="5.43091">
        <ele>223.2</ele>
        <time>2022-09-25T09:40:04Z</time>
      </trkpt>
      <trkpt lat="45.77177" lon="5.43096">
        <ele>223.2</ele>
        <time>2022-09-25T09:40:05Z</time>
      </trkpt>
      <trkpt lat="45.77176" lon="5.43103">
        <ele>223.2</ele>
        <time>2022-09-25T09:40:06Z</time>
      </trkpt>
      <trkpt lat="45.77175" lon="5.43109">
        <ele>223.2</ele>
        <time>2022-09-25T09:40:07Z</time>
      </trkpt>
      <trkpt lat="45.77177" lon="5.43115">
        <ele>223.3</ele>
        <time>2022-09-25T09:40:08Z</time>
      </trkpt>
      <trkpt lat="45.7718" lon="5.43121">
        <ele>223.3</ele>
        <time>2022-09-25T09:40:09Z</time>
      </trkpt>
      <trkpt lat="45.77183" lon="5.43126">
        <ele>223.3</ele>
        <time>2022-09-25T09:40:10Z</time>
      </trkpt>
      <trkpt lat="45.77186" lon="5.43131">
        <ele>223.3</ele>
        <time>2022-09-25T09:40:11Z</time>
      </trkpt>
      <trkpt lat="45.77189" lon="5.43136">
        <ele>223.3</ele>
        <time>2022-09-25T09:40:12Z</time>
      </trkpt>
      <trkpt lat="45.77191" lon="5.4314">
        <ele>223.3</ele>
        <time>2022-09-25T09:40:13Z</time>
      </trkpt>
      <trkpt lat="45.77193" lon="5.43144">
        <ele>223.3</ele>
        <time>2022-09-25T09:40:14Z</time>
      </trkpt>
      <trkpt lat="45.77195" lon="5.43149">
        <ele>223.3</ele>
        <time>2022-09-25T09:40:15Z</time>
      </trkpt>
      <trkpt lat="45.77196" lon="5.43153">
        <ele>223.3</ele>
        <time>2022-09-25T09:40:16Z</time>
      </trkpt>
      <trkpt lat="45.77195" lon="5.43158">
        <ele>223.3</ele>
        <time>2022-09-25T09:40:17Z</time>
      </trkpt>
      <trkpt lat="45.77195" lon="5.43161">
        <ele>223.3</ele>
        <time>2022-09-25T09:40:18Z</time>
      </trkpt>
      <trkpt lat="45.77191" lon="5.43163">
        <ele>223.3</ele>
        <time>2022-09-25T09:40:19Z</time>
      </trkpt>
      <trkpt lat="45.77188" lon="5.43166">
        <ele>223.3</ele>
        <time>2022-09-25T09:40:20Z</time>
      </trkpt>
      <trkpt lat="45.77185" lon="5.43168">
        <ele>223.3</ele>
        <time>2022-09-25T09:40:21Z</time>
      </trkpt>
      <trkpt lat="45.77182" lon="5.43171">
        <ele>223.3</ele>
        <time>2022-09-25T09:40:22Z</time>
      </trkpt>
      <trkpt lat="45.77178" lon="5.43175">
        <ele>223.3</ele>
        <time>2022-09-25T09:40:23Z</time>
      </trkpt>
      <trkpt lat="45.77175" lon="5.43178">
        <ele>223.4</ele>
        <time>2022-09-25T09:40:24Z</time>
      </trkpt>
      <trkpt lat="45.77172" lon="5.43181">
        <ele>223.4</ele>
        <time>2022-09-25T09:40:25Z</time>
      </trkpt>
      <trkpt lat="45.77169" lon="5.43184">
        <ele>223.5</ele>
        <time>2022-09-25T09:40:26Z</time>
      </trkpt>
      <trkpt lat="45.77166" lon="5.43188">
        <ele>223.6</ele>
        <time>2022-09-25T09:40:27Z</time>
      </trkpt>
      <trkpt lat="45.77162" lon="5.43191">
        <ele>223.7</ele>
        <time>2022-09-25T09:40:28Z</time>
      </trkpt>
      <trkpt lat="45.77159" lon="5.43194">
        <ele>223.8</ele>
        <time>2022-09-25T09:40:29Z</time>
      </trkpt>
      <trkpt lat="45.77156" lon="5.43197">
        <ele>224</ele>
        <time>2022-09-25T09:40:30Z</time>
      </trkpt>
      <trkpt lat="45.77153" lon="5.432">
        <ele>224.1</ele>
        <time>2022-09-25T09:40:31Z</time>
      </trkpt>
      <trkpt lat="45.77149" lon="5.43203">
        <ele>224.2</ele>
        <time>2022-09-25T09:40:32Z</time>
      </trkpt>
      <trkpt lat="45.77147" lon="5.43205">
        <ele>224.3</ele>
        <time>2022-09-25T09:40:33Z</time>
      </trkpt>
      <trkpt lat="45.77144" lon="5.43209">
        <ele>224.5</ele>
        <time>2022-09-25T09:40:34Z</time>
      </trkpt>
      <trkpt lat="45.77141" lon="5.43212">
        <ele>224.7</ele>
        <time>2022-09-25T09:40:35Z</time>
      </trkpt>
      <trkpt lat="45.77138" lon="5.43215">
        <ele>224.8</ele>
        <time>2022-09-25T09:40:36Z</time>
      </trkpt>
      <trkpt lat="45.77135" lon="5.43218">
        <ele>225</ele>
        <time>2022-09-25T09:40:37Z</time>
      </trkpt>
      <trkpt lat="45.77132" lon="5.43221">
        <ele>225.2</ele>
        <time>2022-09-25T09:40:38Z</time>
      </trkpt>
      <trkpt lat="45.77129" lon="5.43224">
        <ele>225.3</ele>
        <time>2022-09-25T09:40:39Z</time>
      </trkpt>
      <trkpt lat="45.77126" lon="5.43227">
        <ele>225.5</ele>
        <time>2022-09-25T09:40:40Z</time>
      </trkpt>
      <trkpt lat="45.77123" lon="5.43229">
        <ele>225.6</ele>
        <time>2022-09-25T09:40:41Z</time>
      </trkpt>
      <trkpt lat="45.7712" lon="5.43232">
        <ele>225.8</ele>
        <time>2022-09-25T09:40:42Z</time>
      </trkpt>
      <trkpt lat="45.77117" lon="5.43235">
        <ele>225.9</ele>
        <time>2022-09-25T09:40:43Z</time>
      </trkpt>
      <trkpt lat="45.77114" lon="5.43238">
        <ele>226.1</ele>
        <time>2022-09-25T09:40:44Z</time>
      </trkpt>
      <trkpt lat="45.77111" lon="5.4324">
        <ele>226.3</ele>
        <time>2022-09-25T09:40:45Z</time>
      </trkpt>
      <trkpt lat="45.77108" lon="5.43243">
        <ele>226.4</ele>
        <time>2022-09-25T09:40:46Z</time>
      </trkpt>
      <trkpt lat="45.77106" lon="5.43245">
        <ele>226.5</ele>
        <time>2022-09-25T09:40:47Z</time>
      </trkpt>
      <trkpt lat="45.77103" lon="5.43248">
        <ele>226.7</ele>
        <time>2022-09-25T09:40:48Z</time>
      </trkpt>
      <trkpt lat="45.771" lon="5.43251">
        <ele>226.8</ele>
        <time>2022-09-25T09:40:49Z</time>
      </trkpt>
      <trkpt lat="45.77097" lon="5.43254">
        <ele>227</ele>
        <time>2022-09-25T09:40:50Z</time>
      </trkpt>
      <trkpt lat="45.77095" lon="5.43259">
        <ele>227.1</ele>
        <time>2022-09-25T09:40:51Z</time>
      </trkpt>
      <trkpt lat="45.77094" lon="5.43263">
        <ele>227.3</ele>
        <time>2022-09-25T09:40:52Z</time>
      </trkpt>
      <trkpt lat="45.77093" lon="5.43267">
        <ele>227.4</ele>
        <time>2022-09-25T09:40:53Z</time>
      </trkpt>
      <trkpt lat="45.77092" lon="5.43273">
        <ele>227.5</ele>
        <time>2022-09-25T09:40:54Z</time>
      </trkpt>
      <trkpt lat="45.77092" lon="5.43278">
        <ele>227.6</ele>
        <time>2022-09-25T09:40:55Z</time>
      </trkpt>
      <trkpt lat="45.77092" lon="5.43283">
        <ele>227.7</ele>
        <time>2022-09-25T09:40:56Z</time>
      </trkpt>
      <trkpt lat="45.77092" lon="5.43287">
        <ele>227.8</ele>
        <time>2022-09-25T09:40:57Z</time>
      </trkpt>
      <trkpt lat="45.77091" lon="5.43292">
        <ele>227.9</ele>
        <time>2022-09-25T09:40:58Z</time>
      </trkpt>
      <trkpt lat="45.7709" lon="5.43297">
        <ele>228</ele>
        <time>2022-09-25T09:40:59Z</time>
      </trkpt>
      <trkpt lat="45.7709" lon="5.43302">
        <ele>228.1</ele>
        <time>2022-09-25T09:41:00Z</time>
      </trkpt>
      <trkpt lat="45.7709" lon="5.43306">
        <ele>228.2</ele>
        <time>2022-09-25T09:41:01Z</time>
      </trkpt>
      <trkpt lat="45.77089" lon="5.43312">
        <ele>228.2</ele>
        <time>2022-09-25T09:41:02Z</time>
      </trkpt>
      <trkpt lat="45.77089" lon="5.43317">
        <ele>228.3</ele>
        <time>2022-09-25T09:41:03Z</time>
      </trkpt>
      <trkpt lat="45.77089" lon="5.43322">
        <ele>228.3</ele>
        <time>2022-09-25T09:41:04Z</time>
      </trkpt>
      <trkpt lat="45.77089" lon="5.43327">
        <ele>228.3</ele>
        <time>2022-09-25T09:41:05Z</time>
      </trkpt>
      <trkpt lat="45.77089" lon="5.43332">
        <ele>228.3</ele>
        <time>2022-09-25T09:41:06Z</time>
      </trkpt>
      <trkpt lat="45.7709" lon="5.43338">
        <ele>228.2</ele>
        <time>2022-09-25T09:41:07Z</time>
      </trkpt>
      <trkpt lat="45.7709" lon="5.43343">
        <ele>228.2</ele>
        <time>2022-09-25T09:41:08Z</time>
      </trkpt>
      <trkpt lat="45.7709" lon="5.43349">
        <ele>228.1</ele>
        <time>2022-09-25T09:41:09Z</time>
      </trkpt>
      <trkpt lat="45.77092" lon="5.43354">
        <ele>228</ele>
        <time>2022-09-25T09:41:10Z</time>
      </trkpt>
      <trkpt lat="45.77093" lon="5.43361">
        <ele>227.8</ele>
        <time>2022-09-25T09:41:11Z</time>
      </trkpt>
      <trkpt lat="45.77094" lon="5.43366">
        <ele>227.7</ele>
        <time>2022-09-25T09:41:12Z</time>
      </trkpt>
      <trkpt lat="45.77095" lon="5.43372">
        <ele>227.5</ele>
        <time>2022-09-25T09:41:13Z</time>
      </trkpt>
      <trkpt lat="45.77096" lon="5.43379">
        <ele>227.4</ele>
        <time>2022-09-25T09:41:14Z</time>
      </trkpt>
      <trkpt lat="45.77097" lon="5.43385">
        <ele>227.2</ele>
        <time>2022-09-25T09:41:15Z</time>
      </trkpt>
      <trkpt lat="45.77097" lon="5.43391">
        <ele>227</ele>
        <time>2022-09-25T09:41:16Z</time>
      </trkpt>
      <trkpt lat="45.77097" lon="5.43397">
        <ele>226.9</ele>
        <time>2022-09-25T09:41:17Z</time>
      </trkpt>
      <trkpt lat="45.77095" lon="5.43403">
        <ele>226.7</ele>
        <time>2022-09-25T09:41:18Z</time>
      </trkpt>
      <trkpt lat="45.77093" lon="5.43407">
        <ele>226.6</ele>
        <time>2022-09-25T09:41:19Z</time>
      </trkpt>
      <trkpt lat="45.77088" lon="5.4341">
        <ele>226.4</ele>
        <time>2022-09-25T09:41:20Z</time>
      </trkpt>
      <trkpt lat="45.77084" lon="5.43412">
        <ele>226.3</ele>
        <time>2022-09-25T09:41:21Z</time>
      </trkpt>
      <trkpt lat="45.7708" lon="5.43413">
        <ele>226.2</ele>
        <time>2022-09-25T09:41:22Z</time>
      </trkpt>
      <trkpt lat="45.77075" lon="5.43415">
        <ele>226.1</ele>
        <time>2022-09-25T09:41:23Z</time>
      </trkpt>
      <trkpt lat="45.7707" lon="5.43418">
        <ele>226</ele>
        <time>2022-09-25T09:41:24Z</time>
      </trkpt>
      <trkpt lat="45.77066" lon="5.4342">
        <ele>226</ele>
        <time>2022-09-25T09:41:25Z</time>
      </trkpt>
      <trkpt lat="45.77062" lon="5.43421">
        <ele>226</ele>
        <time>2022-09-25T09:41:26Z</time>
      </trkpt>
      <trkpt lat="45.77058" lon="5.43421">
        <ele>226</ele>
        <time>2022-09-25T09:41:27Z</time>
      </trkpt>
      <trkpt lat="45.77054" lon="5.43419">
        <ele>226</ele>
        <time>2022-09-25T09:41:28Z</time>
      </trkpt>
      <trkpt lat="45.77051" lon="5.43416">
        <ele>226</ele>
        <time>2022-09-25T09:41:29Z</time>
      </trkpt>
      <trkpt lat="45.7705" lon="5.4341">
        <ele>226</ele>
        <time>2022-09-25T09:41:30Z</time>
      </trkpt>
      <trkpt lat="45.77049" lon="5.43404">
        <ele>226</ele>
        <time>2022-09-25T09:41:31Z</time>
      </trkpt>
      <trkpt lat="45.77048" lon="5.43398">
        <ele>226</ele>
        <time>2022-09-25T09:41:32Z</time>
      </trkpt>
      <trkpt lat="45.77046" lon="5.43393">
        <ele>226</ele>
        <time>2022-09-25T09:41:33Z</time>
      </trkpt>
      <trkpt lat="45.77045" lon="5.43387">
        <ele>226</ele>
        <time>2022-09-25T09:41:34Z</time>
      </trkpt>
      <trkpt lat="45.77043" lon="5.43381">
        <ele>226.1</ele>
        <time>2022-09-25T09:41:35Z</time>
      </trkpt>
      <trkpt lat="45.77042" lon="5.43375">
        <ele>226.1</ele>
        <time>2022-09-25T09:41:36Z</time>
      </trkpt>
      <trkpt lat="45.7704" lon="5.43369">
        <ele>226.1</ele>
        <time>2022-09-25T09:41:37Z</time>
      </trkpt>
      <trkpt lat="45.77038" lon="5.43363">
        <ele>226.1</ele>
        <time>2022-09-25T09:41:38Z</time>
      </trkpt>
      <trkpt lat="45.77036" lon="5.43356">
        <ele>226.1</ele>
        <time>2022-09-25T09:41:39Z</time>
      </trkpt>
      <trkpt lat="45.77035" lon="5.4335">
        <ele>226.2</ele>
        <time>2022-09-25T09:41:40Z</time>
      </trkpt>
      <trkpt lat="45.77033" lon="5.43344">
        <ele>226.2</ele>
        <time>2022-09-25T09:41:41Z</time>
      </trkpt>
      <trkpt lat="45.77031" lon="5.43338">
        <ele>226.2</ele>
        <time>2022-09-25T09:41:42Z</time>
      </trkpt>
      <trkpt lat="45.77029" lon="5.43332">
        <ele>226.3</ele>
        <time>2022-09-25T09:41:43Z</time>
      </trkpt>
      <trkpt lat="45.77028" lon="5.43326">
        <ele>226.3</ele>
        <time>2022-09-25T09:41:44Z</time>
      </trkpt>
      <trkpt lat="45.77026" lon="5.43321">
        <ele>226.3</ele>
        <time>2022-09-25T09:41:45Z</time>
      </trkpt>
      <trkpt lat="45.77024" lon="5.43314">
        <ele>226.4</ele>
        <time>2022-09-25T09:41:46Z</time>
      </trkpt>
      <trkpt lat="45.77023" lon="5.43308">
        <ele>226.4</ele>
        <time>2022-09-25T09:41:47Z</time>
      </trkpt>
      <trkpt lat="45.77021" lon="5.43302">
        <ele>226.5</ele>
        <time>2022-09-25T09:41:48Z</time>
      </trkpt>
      <trkpt lat="45.7702" lon="5.43296">
        <ele>226.5</ele>
        <time>2022-09-25T09:41:49Z</time>
      </trkpt>
      <trkpt lat="45.77018" lon="5.4329">
        <ele>226.5</ele>
        <time>2022-09-25T09:41:50Z</time>
      </trkpt>
      <trkpt lat="45.77017" lon="5.43284">
        <ele>226.5</ele>
        <time>2022-09-25T09:41:51Z</time>
      </trkpt>
      <trkpt lat="45.77015" lon="5.43279">
        <ele>226.6</ele>
        <time>2022-09-25T09:41:52Z</time>
      </trkpt>
      <trkpt lat="45.77014" lon="5.43273">
        <ele>226.6</ele>
        <time>2022-09-25T09:41:53Z</time>
      </trkpt>
      <trkpt lat="45.77013" lon="5.43266">
        <ele>226.6</ele>
        <time>2022-09-25T09:41:54Z</time>
      </trkpt>
      <trkpt lat="45.77012" lon="5.43261">
        <ele>226.7</ele>
        <time>2022-09-25T09:41:55Z</time>
      </trkpt>
      <trkpt lat="45.77011" lon="5.43255">
        <ele>226.7</ele>
        <time>2022-09-25T09:41:56Z</time>
      </trkpt>
      <trkpt lat="45.77009" lon="5.43249">
        <ele>226.8</ele>
        <time>2022-09-25T09:41:57Z</time>
      </trkpt>
      <trkpt lat="45.77008" lon="5.43243">
        <ele>226.8</ele>
        <time>2022-09-25T09:41:58Z</time>
      </trkpt>
      <trkpt lat="45.77006" lon="5.43236">
        <ele>226.8</ele>
        <time>2022-09-25T09:41:59Z</time>
      </trkpt>
      <trkpt lat="45.77005" lon="5.4323">
        <ele>226.9</ele>
        <time>2022-09-25T09:42:00Z</time>
      </trkpt>
      <trkpt lat="45.77004" lon="5.43225">
        <ele>226.9</ele>
        <time>2022-09-25T09:42:01Z</time>
      </trkpt>
      <trkpt lat="45.77002" lon="5.43219">
        <ele>226.9</ele>
        <time>2022-09-25T09:42:02Z</time>
      </trkpt>
      <trkpt lat="45.77" lon="5.43213">
        <ele>226.9</ele>
        <time>2022-09-25T09:42:03Z</time>
      </trkpt>
      <trkpt lat="45.76998" lon="5.43207">
        <ele>226.9</ele>
        <time>2022-09-25T09:42:04Z</time>
      </trkpt>
      <trkpt lat="45.76996" lon="5.43201">
        <ele>226.9</ele>
        <time>2022-09-25T09:42:05Z</time>
      </trkpt>
      <trkpt lat="45.76994" lon="5.43195">
        <ele>226.9</ele>
        <time>2022-09-25T09:42:06Z</time>
      </trkpt>
      <trkpt lat="45.76992" lon="5.4319">
        <ele>226.9</ele>
        <time>2022-09-25T09:42:07Z</time>
      </trkpt>
      <trkpt lat="45.7699" lon="5.43184">
        <ele>226.9</ele>
        <time>2022-09-25T09:42:08Z</time>
      </trkpt>
      <trkpt lat="45.76987" lon="5.43179">
        <ele>226.9</ele>
        <time>2022-09-25T09:42:09Z</time>
      </trkpt>
      <trkpt lat="45.76986" lon="5.43174">
        <ele>226.9</ele>
        <time>2022-09-25T09:42:10Z</time>
      </trkpt>
      <trkpt lat="45.76983" lon="5.43169">
        <ele>226.8</ele>
        <time>2022-09-25T09:42:11Z</time>
      </trkpt>
      <trkpt lat="45.76981" lon="5.43164">
        <ele>226.8</ele>
        <time>2022-09-25T09:42:12Z</time>
      </trkpt>
      <trkpt lat="45.76978" lon="5.43158">
        <ele>226.8</ele>
        <time>2022-09-25T09:42:13Z</time>
      </trkpt>
      <trkpt lat="45.76976" lon="5.43153">
        <ele>226.7</ele>
        <time>2022-09-25T09:42:14Z</time>
      </trkpt>
      <trkpt lat="45.76973" lon="5.43145">
        <ele>226.7</ele>
        <time>2022-09-25T09:42:15Z</time>
      </trkpt>
      <trkpt lat="45.76971" lon="5.4314">
        <ele>226.7</ele>
        <time>2022-09-25T09:42:16Z</time>
      </trkpt>
      <trkpt lat="45.76969" lon="5.43134">
        <ele>226.6</ele>
        <time>2022-09-25T09:42:17Z</time>
      </trkpt>
      <trkpt lat="45.76967" lon="5.43128">
        <ele>226.6</ele>
        <time>2022-09-25T09:42:18Z</time>
      </trkpt>
      <trkpt lat="45.76965" lon="5.43121">
        <ele>226.5</ele>
        <time>2022-09-25T09:42:19Z</time>
      </trkpt>
      <trkpt lat="45.76964" lon="5.43115">
        <ele>226.5</ele>
        <time>2022-09-25T09:42:20Z</time>
      </trkpt>
      <trkpt lat="45.76962" lon="5.43109">
        <ele>226.5</ele>
        <time>2022-09-25T09:42:21Z</time>
      </trkpt>
      <trkpt lat="45.7696" lon="5.43103">
        <ele>226.5</ele>
        <time>2022-09-25T09:42:22Z</time>
      </trkpt>
      <trkpt lat="45.76957" lon="5.43097">
        <ele>226.5</ele>
        <time>2022-09-25T09:42:23Z</time>
      </trkpt>
      <trkpt lat="45.76955" lon="5.43091">
        <ele>226.5</ele>
        <time>2022-09-25T09:42:24Z</time>
      </trkpt>
      <trkpt lat="45.76954" lon="5.43084">
        <ele>226.5</ele>
        <time>2022-09-25T09:42:25Z</time>
      </trkpt>
      <trkpt lat="45.76952" lon="5.43078">
        <ele>226.4</ele>
        <time>2022-09-25T09:42:26Z</time>
      </trkpt>
      <trkpt lat="45.76949" lon="5.43072">
        <ele>226.4</ele>
        <time>2022-09-25T09:42:27Z</time>
      </trkpt>
      <trkpt lat="45.76947" lon="5.43067">
        <ele>226.4</ele>
        <time>2022-09-25T09:42:28Z</time>
      </trkpt>
      <trkpt lat="45.76945" lon="5.43061">
        <ele>226.3</ele>
        <time>2022-09-25T09:42:29Z</time>
      </trkpt>
      <trkpt lat="45.76942" lon="5.43054">
        <ele>226.3</ele>
        <time>2022-09-25T09:42:30Z</time>
      </trkpt>
      <trkpt lat="45.7694" lon="5.43048">
        <ele>226.3</ele>
        <time>2022-09-25T09:42:31Z</time>
      </trkpt>
      <trkpt lat="45.76938" lon="5.43042">
        <ele>226.2</ele>
        <time>2022-09-25T09:42:32Z</time>
      </trkpt>
      <trkpt lat="45.76936" lon="5.43036">
        <ele>226.2</ele>
        <time>2022-09-25T09:42:33Z</time>
      </trkpt>
      <trkpt lat="45.76933" lon="5.43031">
        <ele>226.2</ele>
        <time>2022-09-25T09:42:34Z</time>
      </trkpt>
      <trkpt lat="45.76931" lon="5.43025">
        <ele>226.2</ele>
        <time>2022-09-25T09:42:35Z</time>
      </trkpt>
      <trkpt lat="45.7693" lon="5.43018">
        <ele>226.2</ele>
        <time>2022-09-25T09:42:36Z</time>
      </trkpt>
      <trkpt lat="45.76928" lon="5.43012">
        <ele>226.2</ele>
        <time>2022-09-25T09:42:37Z</time>
      </trkpt>
      <trkpt lat="45.76926" lon="5.43006">
        <ele>226.2</ele>
        <time>2022-09-25T09:42:38Z</time>
      </trkpt>
      <trkpt lat="45.76924" lon="5.43">
        <ele>226.1</ele>
        <time>2022-09-25T09:42:39Z</time>
      </trkpt>
      <trkpt lat="45.76923" lon="5.42995">
        <ele>226.1</ele>
        <time>2022-09-25T09:42:40Z</time>
      </trkpt>
      <trkpt lat="45.76923" lon="5.42989">
        <ele>226</ele>
        <time>2022-09-25T09:42:41Z</time>
      </trkpt>
      <trkpt lat="45.76922" lon="5.42983">
        <ele>225.9</ele>
        <time>2022-09-25T09:42:42Z</time>
      </trkpt>
      <trkpt lat="45.76919" lon="5.42976">
        <ele>225.7</ele>
        <time>2022-09-25T09:42:43Z</time>
      </trkpt>
      <trkpt lat="45.76918" lon="5.42967">
        <ele>225.5</ele>
        <time>2022-09-25T09:42:44Z</time>
      </trkpt>
      <trkpt lat="45.76916" lon="5.4296">
        <ele>225.3</ele>
        <time>2022-09-25T09:42:45Z</time>
      </trkpt>
      <trkpt lat="45.76914" lon="5.42952">
        <ele>225</ele>
        <time>2022-09-25T09:42:46Z</time>
      </trkpt>
      <trkpt lat="45.76912" lon="5.42942">
        <ele>224.8</ele>
        <time>2022-09-25T09:42:47Z</time>
      </trkpt>
      <trkpt lat="45.76908" lon="5.42935">
        <ele>224.6</ele>
        <time>2022-09-25T09:42:48Z</time>
      </trkpt>
      <trkpt lat="45.76907" lon="5.4293">
        <ele>224.5</ele>
        <time>2022-09-25T09:42:49Z</time>
      </trkpt>
      <trkpt lat="45.76904" lon="5.42922">
        <ele>224.4</ele>
        <time>2022-09-25T09:42:50Z</time>
      </trkpt>
      <trkpt lat="45.76901" lon="5.42915">
        <ele>224.4</ele>
        <time>2022-09-25T09:42:51Z</time>
      </trkpt>
      <trkpt lat="45.76897" lon="5.42908">
        <ele>224.3</ele>
        <time>2022-09-25T09:42:52Z</time>
      </trkpt>
      <trkpt lat="45.76893" lon="5.42899">
        <ele>224.3</ele>
        <time>2022-09-25T09:42:53Z</time>
      </trkpt>
      <trkpt lat="45.76889" lon="5.42892">
        <ele>224.2</ele>
        <time>2022-09-25T09:42:54Z</time>
      </trkpt>
      <trkpt lat="45.76885" lon="5.42884">
        <ele>224.2</ele>
        <time>2022-09-25T09:42:55Z</time>
      </trkpt>
      <trkpt lat="45.76881" lon="5.42875">
        <ele>224.3</ele>
        <time>2022-09-25T09:42:56Z</time>
      </trkpt>
      <trkpt lat="45.76877" lon="5.42868">
        <ele>224.3</ele>
        <time>2022-09-25T09:42:57Z</time>
      </trkpt>
      <trkpt lat="45.76873" lon="5.42861">
        <ele>224.3</ele>
        <time>2022-09-25T09:42:58Z</time>
      </trkpt>
      <trkpt lat="45.76869" lon="5.42854">
        <ele>224.3</ele>
        <time>2022-09-25T09:42:59Z</time>
      </trkpt>
      <trkpt lat="45.76865" lon="5.42848">
        <ele>224.2</ele>
        <time>2022-09-25T09:43:00Z</time>
      </trkpt>
      <trkpt lat="45.76861" lon="5.42842">
        <ele>224.2</ele>
        <time>2022-09-25T09:43:01Z</time>
      </trkpt>
      <trkpt lat="45.76857" lon="5.42837">
        <ele>224.2</ele>
        <time>2022-09-25T09:43:02Z</time>
      </trkpt>
      <trkpt lat="45.76852" lon="5.42831">
        <ele>224.2</ele>
        <time>2022-09-25T09:43:03Z</time>
      </trkpt>
      <trkpt lat="45.76848" lon="5.42826">
        <ele>224.2</ele>
        <time>2022-09-25T09:43:04Z</time>
      </trkpt>
      <trkpt lat="45.76843" lon="5.42822">
        <ele>224.2</ele>
        <time>2022-09-25T09:43:05Z</time>
      </trkpt>
      <trkpt lat="45.76839" lon="5.42817">
        <ele>224.1</ele>
        <time>2022-09-25T09:43:06Z</time>
      </trkpt>
      <trkpt lat="45.76834" lon="5.42814">
        <ele>224.1</ele>
        <time>2022-09-25T09:43:07Z</time>
      </trkpt>
      <trkpt lat="45.7683" lon="5.42809">
        <ele>224.1</ele>
        <time>2022-09-25T09:43:08Z</time>
      </trkpt>
      <trkpt lat="45.76825" lon="5.42805">
        <ele>224</ele>
        <time>2022-09-25T09:43:09Z</time>
      </trkpt>
      <trkpt lat="45.76821" lon="5.42799">
        <ele>224</ele>
        <time>2022-09-25T09:43:10Z</time>
      </trkpt>
      <trkpt lat="45.76817" lon="5.42794">
        <ele>223.9</ele>
        <time>2022-09-25T09:43:11Z</time>
      </trkpt>
      <trkpt lat="45.76813" lon="5.42789">
        <ele>223.9</ele>
        <time>2022-09-25T09:43:12Z</time>
      </trkpt>
      <trkpt lat="45.76809" lon="5.42783">
        <ele>223.8</ele>
        <time>2022-09-25T09:43:13Z</time>
      </trkpt>
      <trkpt lat="45.76805" lon="5.42778">
        <ele>223.8</ele>
        <time>2022-09-25T09:43:14Z</time>
      </trkpt>
      <trkpt lat="45.76801" lon="5.42772">
        <ele>223.7</ele>
        <time>2022-09-25T09:43:15Z</time>
      </trkpt>
      <trkpt lat="45.76798" lon="5.42766">
        <ele>223.7</ele>
        <time>2022-09-25T09:43:16Z</time>
      </trkpt>
      <trkpt lat="45.76794" lon="5.4276">
        <ele>223.6</ele>
        <time>2022-09-25T09:43:17Z</time>
      </trkpt>
      <trkpt lat="45.76791" lon="5.42754">
        <ele>223.6</ele>
        <time>2022-09-25T09:43:18Z</time>
      </trkpt>
      <trkpt lat="45.76788" lon="5.42748">
        <ele>223.6</ele>
        <time>2022-09-25T09:43:19Z</time>
      </trkpt>
      <trkpt lat="45.76785" lon="5.42743">
        <ele>223.6</ele>
        <time>2022-09-25T09:43:20Z</time>
      </trkpt>
      <trkpt lat="45.76782" lon="5.42737">
        <ele>223.6</ele>
        <time>2022-09-25T09:43:21Z</time>
      </trkpt>
      <trkpt lat="45.76778" lon="5.42732">
        <ele>223.6</ele>
        <time>2022-09-25T09:43:22Z</time>
      </trkpt>
      <trkpt lat="45.76776" lon="5.42729">
        <ele>223.6</ele>
        <time>2022-09-25T09:43:23Z</time>
      </trkpt>
      <trkpt lat="45.76774" lon="5.42724">
        <ele>223.6</ele>
        <time>2022-09-25T09:43:24Z</time>
      </trkpt>
      <trkpt lat="45.76771" lon="5.42722">
        <ele>223.7</ele>
        <time>2022-09-25T09:43:25Z</time>
      </trkpt>
      <trkpt lat="45.7677" lon="5.42713">
        <ele>223.7</ele>
        <time>2022-09-25T09:43:26Z</time>
      </trkpt>
      <trkpt lat="45.76768" lon="5.42711">
        <ele>223.7</ele>
        <time>2022-09-25T09:43:27Z</time>
      </trkpt>
      <trkpt lat="45.76765" lon="5.42701">
        <ele>223.8</ele>
        <time>2022-09-25T09:43:28Z</time>
      </trkpt>
      <trkpt lat="45.76763" lon="5.42697">
        <ele>223.9</ele>
        <time>2022-09-25T09:43:29Z</time>
      </trkpt>
      <trkpt lat="45.76761" lon="5.42691">
        <ele>223.9</ele>
        <time>2022-09-25T09:43:30Z</time>
      </trkpt>
      <trkpt lat="45.76759" lon="5.42685">
        <ele>224</ele>
        <time>2022-09-25T09:43:31Z</time>
      </trkpt>
      <trkpt lat="45.76757" lon="5.42681">
        <ele>224.1</ele>
        <time>2022-09-25T09:43:32Z</time>
      </trkpt>
      <trkpt lat="45.76755" lon="5.42675">
        <ele>224.2</ele>
        <time>2022-09-25T09:43:33Z</time>
      </trkpt>
      <trkpt lat="45.76754" lon="5.42669">
        <ele>224.2</ele>
        <time>2022-09-25T09:43:34Z</time>
      </trkpt>
      <trkpt lat="45.7675" lon="5.42663">
        <ele>224.4</ele>
        <time>2022-09-25T09:43:35Z</time>
      </trkpt>
      <trkpt lat="45.76748" lon="5.42658">
        <ele>224.5</ele>
        <time>2022-09-25T09:43:36Z</time>
      </trkpt>
      <trkpt lat="45.76744" lon="5.42652">
        <ele>224.6</ele>
        <time>2022-09-25T09:43:37Z</time>
      </trkpt>
      <trkpt lat="45.76741" lon="5.42645">
        <ele>224.7</ele>
        <time>2022-09-25T09:43:38Z</time>
      </trkpt>
      <trkpt lat="45.76738" lon="5.4264">
        <ele>224.8</ele>
        <time>2022-09-25T09:43:39Z</time>
      </trkpt>
      <trkpt lat="45.76735" lon="5.42636">
        <ele>224.9</ele>
        <time>2022-09-25T09:43:40Z</time>
      </trkpt>
      <trkpt lat="45.76731" lon="5.4263">
        <ele>225</ele>
        <time>2022-09-25T09:43:41Z</time>
      </trkpt>
      <trkpt lat="45.76727" lon="5.42626">
        <ele>225.1</ele>
        <time>2022-09-25T09:43:42Z</time>
      </trkpt>
      <trkpt lat="45.76723" lon="5.42621">
        <ele>225.1</ele>
        <time>2022-09-25T09:43:43Z</time>
      </trkpt>
      <trkpt lat="45.76719" lon="5.42618">
        <ele>225.2</ele>
        <time>2022-09-25T09:43:44Z</time>
      </trkpt>
      <trkpt lat="45.76715" lon="5.42614">
        <ele>225.2</ele>
        <time>2022-09-25T09:43:45Z</time>
      </trkpt>
      <trkpt lat="45.7671" lon="5.42609">
        <ele>225.3</ele>
        <time>2022-09-25T09:43:46Z</time>
      </trkpt>
      <trkpt lat="45.76705" lon="5.42605">
        <ele>225.3</ele>
        <time>2022-09-25T09:43:47Z</time>
      </trkpt>
      <trkpt lat="45.767" lon="5.42602">
        <ele>225.4</ele>
        <time>2022-09-25T09:43:48Z</time>
      </trkpt>
      <trkpt lat="45.76695" lon="5.42599">
        <ele>225.4</ele>
        <time>2022-09-25T09:43:49Z</time>
      </trkpt>
      <trkpt lat="45.7669" lon="5.42595">
        <ele>225.4</ele>
        <time>2022-09-25T09:43:50Z</time>
      </trkpt>
      <trkpt lat="45.76685" lon="5.42591">
        <ele>225.5</ele>
        <time>2022-09-25T09:43:51Z</time>
      </trkpt>
      <trkpt lat="45.7668" lon="5.42588">
        <ele>225.5</ele>
        <time>2022-09-25T09:43:52Z</time>
      </trkpt>
      <trkpt lat="45.76676" lon="5.42585">
        <ele>225.5</ele>
        <time>2022-09-25T09:43:53Z</time>
      </trkpt>
      <trkpt lat="45.76671" lon="5.42581">
        <ele>225.5</ele>
        <time>2022-09-25T09:43:54Z</time>
      </trkpt>
      <trkpt lat="45.76666" lon="5.42577">
        <ele>225.6</ele>
        <time>2022-09-25T09:43:55Z</time>
      </trkpt>
      <trkpt lat="45.76661" lon="5.42573">
        <ele>225.6</ele>
        <time>2022-09-25T09:43:56Z</time>
      </trkpt>
      <trkpt lat="45.76657" lon="5.42571">
        <ele>225.6</ele>
        <time>2022-09-25T09:43:57Z</time>
      </trkpt>
      <trkpt lat="45.76652" lon="5.42567">
        <ele>225.6</ele>
        <time>2022-09-25T09:43:58Z</time>
      </trkpt>
      <trkpt lat="45.76647" lon="5.42563">
        <ele>225.7</ele>
        <time>2022-09-25T09:43:59Z</time>
      </trkpt>
      <trkpt lat="45.76644" lon="5.4256">
        <ele>225.7</ele>
        <time>2022-09-25T09:44:00Z</time>
      </trkpt>
      <trkpt lat="45.76638" lon="5.42557">
        <ele>225.8</ele>
        <time>2022-09-25T09:44:01Z</time>
      </trkpt>
      <trkpt lat="45.76633" lon="5.42554">
        <ele>225.8</ele>
        <time>2022-09-25T09:44:02Z</time>
      </trkpt>
      <trkpt lat="45.76629" lon="5.4255">
        <ele>225.8</ele>
        <time>2022-09-25T09:44:03Z</time>
      </trkpt>
      <trkpt lat="45.76625" lon="5.42546">
        <ele>225.8</ele>
        <time>2022-09-25T09:44:04Z</time>
      </trkpt>
      <trkpt lat="45.76621" lon="5.42542">
        <ele>225.8</ele>
        <time>2022-09-25T09:44:05Z</time>
      </trkpt>
      <trkpt lat="45.76616" lon="5.42539">
        <ele>225.8</ele>
        <time>2022-09-25T09:44:06Z</time>
      </trkpt>
      <trkpt lat="45.76611" lon="5.42535">
        <ele>225.8</ele>
        <time>2022-09-25T09:44:07Z</time>
      </trkpt>
      <trkpt lat="45.76606" lon="5.42531">
        <ele>225.8</ele>
        <time>2022-09-25T09:44:08Z</time>
      </trkpt>
      <trkpt lat="45.76601" lon="5.42529">
        <ele>225.8</ele>
        <time>2022-09-25T09:44:09Z</time>
      </trkpt>
      <trkpt lat="45.76596" lon="5.42527">
        <ele>225.8</ele>
        <time>2022-09-25T09:44:10Z</time>
      </trkpt>
      <trkpt lat="45.76591" lon="5.42524">
        <ele>225.8</ele>
        <time>2022-09-25T09:44:11Z</time>
      </trkpt>
      <trkpt lat="45.76588" lon="5.42521">
        <ele>225.8</ele>
        <time>2022-09-25T09:44:12Z</time>
      </trkpt>
      <trkpt lat="45.76584" lon="5.42519">
        <ele>225.8</ele>
        <time>2022-09-25T09:44:13Z</time>
      </trkpt>
      <trkpt lat="45.7658" lon="5.42517">
        <ele>225.8</ele>
        <time>2022-09-25T09:44:14Z</time>
      </trkpt>
      <trkpt lat="45.76574" lon="5.42513">
        <ele>225.8</ele>
        <time>2022-09-25T09:44:15Z</time>
      </trkpt>
      <trkpt lat="45.76569" lon="5.42508">
        <ele>225.8</ele>
        <time>2022-09-25T09:44:16Z</time>
      </trkpt>
      <trkpt lat="45.76563" lon="5.42505">
        <ele>225.8</ele>
        <time>2022-09-25T09:44:17Z</time>
      </trkpt>
      <trkpt lat="45.76557" lon="5.42501">
        <ele>225.8</ele>
        <time>2022-09-25T09:44:18Z</time>
      </trkpt>
      <trkpt lat="45.7655" lon="5.42498">
        <ele>225.8</ele>
        <time>2022-09-25T09:44:19Z</time>
      </trkpt>
      <trkpt lat="45.76546" lon="5.42496">
        <ele>225.8</ele>
        <time>2022-09-25T09:44:20Z</time>
      </trkpt>
      <trkpt lat="45.76542" lon="5.42492">
        <ele>225.8</ele>
        <time>2022-09-25T09:44:21Z</time>
      </trkpt>
      <trkpt lat="45.76535" lon="5.4249">
        <ele>225.8</ele>
        <time>2022-09-25T09:44:22Z</time>
      </trkpt>
      <trkpt lat="45.76529" lon="5.42487">
        <ele>225.8</ele>
        <time>2022-09-25T09:44:23Z</time>
      </trkpt>
      <trkpt lat="45.76523" lon="5.42483">
        <ele>225.7</ele>
        <time>2022-09-25T09:44:24Z</time>
      </trkpt>
      <trkpt lat="45.76517" lon="5.4248">
        <ele>225.7</ele>
        <time>2022-09-25T09:44:25Z</time>
      </trkpt>
      <trkpt lat="45.76512" lon="5.42477">
        <ele>225.7</ele>
        <time>2022-09-25T09:44:26Z</time>
      </trkpt>
      <trkpt lat="45.76506" lon="5.42473">
        <ele>225.6</ele>
        <time>2022-09-25T09:44:27Z</time>
      </trkpt>
      <trkpt lat="45.76501" lon="5.42469">
        <ele>225.6</ele>
        <time>2022-09-25T09:44:28Z</time>
      </trkpt>
      <trkpt lat="45.76496" lon="5.42466">
        <ele>225.6</ele>
        <time>2022-09-25T09:44:29Z</time>
      </trkpt>
      <trkpt lat="45.7649" lon="5.42463">
        <ele>225.5</ele>
        <time>2022-09-25T09:44:30Z</time>
      </trkpt>
      <trkpt lat="45.76485" lon="5.42461">
        <ele>225.5</ele>
        <time>2022-09-25T09:44:31Z</time>
      </trkpt>
      <trkpt lat="45.76479" lon="5.42461">
        <ele>225.5</ele>
        <time>2022-09-25T09:44:32Z</time>
      </trkpt>
      <trkpt lat="45.76474" lon="5.4246">
        <ele>225.5</ele>
        <time>2022-09-25T09:44:33Z</time>
      </trkpt>
      <trkpt lat="45.7647" lon="5.42461">
        <ele>225.6</ele>
        <time>2022-09-25T09:44:34Z</time>
      </trkpt>
      <trkpt lat="45.76465" lon="5.42459">
        <ele>225.6</ele>
        <time>2022-09-25T09:44:35Z</time>
      </trkpt>
      <trkpt lat="45.7646" lon="5.4246">
        <ele>225.5</ele>
        <time>2022-09-25T09:44:36Z</time>
      </trkpt>
      <trkpt lat="45.76454" lon="5.42461">
        <ele>225.5</ele>
        <time>2022-09-25T09:44:37Z</time>
      </trkpt>
      <trkpt lat="45.76449" lon="5.42461">
        <ele>225.5</ele>
        <time>2022-09-25T09:44:38Z</time>
      </trkpt>
      <trkpt lat="45.76442" lon="5.42462">
        <ele>225.4</ele>
        <time>2022-09-25T09:44:39Z</time>
      </trkpt>
      <trkpt lat="45.76436" lon="5.42463">
        <ele>225.4</ele>
        <time>2022-09-25T09:44:40Z</time>
      </trkpt>
      <trkpt lat="45.7643" lon="5.42465">
        <ele>225.4</ele>
        <time>2022-09-25T09:44:41Z</time>
      </trkpt>
      <trkpt lat="45.76426" lon="5.42466">
        <ele>225.4</ele>
        <time>2022-09-25T09:44:42Z</time>
      </trkpt>
      <trkpt lat="45.7642" lon="5.42468">
        <ele>225.4</ele>
        <time>2022-09-25T09:44:43Z</time>
      </trkpt>
      <trkpt lat="45.76415" lon="5.42471">
        <ele>225.4</ele>
        <time>2022-09-25T09:44:44Z</time>
      </trkpt>
      <trkpt lat="45.76409" lon="5.42473">
        <ele>225.4</ele>
        <time>2022-09-25T09:44:45Z</time>
      </trkpt>
      <trkpt lat="45.76403" lon="5.42477">
        <ele>225.4</ele>
        <time>2022-09-25T09:44:46Z</time>
      </trkpt>
      <trkpt lat="45.76399" lon="5.42479">
        <ele>225.4</ele>
        <time>2022-09-25T09:44:47Z</time>
      </trkpt>
      <trkpt lat="45.76394" lon="5.42482">
        <ele>225.4</ele>
        <time>2022-09-25T09:44:48Z</time>
      </trkpt>
      <trkpt lat="45.7639" lon="5.42484">
        <ele>225.4</ele>
        <time>2022-09-25T09:44:49Z</time>
      </trkpt>
      <trkpt lat="45.76385" lon="5.42484">
        <ele>225.4</ele>
        <time>2022-09-25T09:44:50Z</time>
      </trkpt>
      <trkpt lat="45.7638" lon="5.42486">
        <ele>225.4</ele>
        <time>2022-09-25T09:44:51Z</time>
      </trkpt>
      <trkpt lat="45.76375" lon="5.42484">
        <ele>225.5</ele>
        <time>2022-09-25T09:44:52Z</time>
      </trkpt>
      <trkpt lat="45.76371" lon="5.42483">
        <ele>225.5</ele>
        <time>2022-09-25T09:44:53Z</time>
      </trkpt>
      <trkpt lat="45.76367" lon="5.4248">
        <ele>225.5</ele>
        <time>2022-09-25T09:44:54Z</time>
      </trkpt>
      <trkpt lat="45.76364" lon="5.42477">
        <ele>225.5</ele>
        <time>2022-09-25T09:44:55Z</time>
      </trkpt>
      <trkpt lat="45.76359" lon="5.42473">
        <ele>225.5</ele>
        <time>2022-09-25T09:44:56Z</time>
      </trkpt>
      <trkpt lat="45.76355" lon="5.4247">
        <ele>225.5</ele>
        <time>2022-09-25T09:44:57Z</time>
      </trkpt>
      <trkpt lat="45.76352" lon="5.42466">
        <ele>225.5</ele>
        <time>2022-09-25T09:44:58Z</time>
      </trkpt>
      <trkpt lat="45.76348" lon="5.42464">
        <ele>225.5</ele>
        <time>2022-09-25T09:44:59Z</time>
      </trkpt>
      <trkpt lat="45.76342" lon="5.42461">
        <ele>225.5</ele>
        <time>2022-09-25T09:45:00Z</time>
      </trkpt>
      <trkpt lat="45.76338" lon="5.4246">
        <ele>225.5</ele>
        <time>2022-09-25T09:45:01Z</time>
      </trkpt>
      <trkpt lat="45.76333" lon="5.42458">
        <ele>225.5</ele>
        <time>2022-09-25T09:45:02Z</time>
      </trkpt>
      <trkpt lat="45.76328" lon="5.42459">
        <ele>225.6</ele>
        <time>2022-09-25T09:45:03Z</time>
      </trkpt>
      <trkpt lat="45.76323" lon="5.4246">
        <ele>225.6</ele>
        <time>2022-09-25T09:45:04Z</time>
      </trkpt>
      <trkpt lat="45.76319" lon="5.42462">
        <ele>225.6</ele>
        <time>2022-09-25T09:45:05Z</time>
      </trkpt>
      <trkpt lat="45.76314" lon="5.42466">
        <ele>225.6</ele>
        <time>2022-09-25T09:45:06Z</time>
      </trkpt>
      <trkpt lat="45.76309" lon="5.42468">
        <ele>225.6</ele>
        <time>2022-09-25T09:45:07Z</time>
      </trkpt>
      <trkpt lat="45.76305" lon="5.42469">
        <ele>225.5</ele>
        <time>2022-09-25T09:45:08Z</time>
      </trkpt>
      <trkpt lat="45.763" lon="5.42469">
        <ele>225.5</ele>
        <time>2022-09-25T09:45:09Z</time>
      </trkpt>
      <trkpt lat="45.76297" lon="5.42471">
        <ele>225.5</ele>
        <time>2022-09-25T09:45:10Z</time>
      </trkpt>
      <trkpt lat="45.76292" lon="5.42473">
        <ele>225.5</ele>
        <time>2022-09-25T09:45:11Z</time>
      </trkpt>
      <trkpt lat="45.76285" lon="5.42472">
        <ele>225.4</ele>
        <time>2022-09-25T09:45:12Z</time>
      </trkpt>
      <trkpt lat="45.76279" lon="5.42472">
        <ele>225.4</ele>
        <time>2022-09-25T09:45:13Z</time>
      </trkpt>
      <trkpt lat="45.76273" lon="5.42473">
        <ele>225.4</ele>
        <time>2022-09-25T09:45:14Z</time>
      </trkpt>
      <trkpt lat="45.76268" lon="5.42472">
        <ele>225.3</ele>
        <time>2022-09-25T09:45:15Z</time>
      </trkpt>
      <trkpt lat="45.76261" lon="5.42471">
        <ele>225.3</ele>
        <time>2022-09-25T09:45:16Z</time>
      </trkpt>
      <trkpt lat="45.76257" lon="5.42471">
        <ele>225.2</ele>
        <time>2022-09-25T09:45:17Z</time>
      </trkpt>
      <trkpt lat="45.7625" lon="5.42469">
        <ele>225.2</ele>
        <time>2022-09-25T09:45:18Z</time>
      </trkpt>
      <trkpt lat="45.76243" lon="5.42469">
        <ele>225.1</ele>
        <time>2022-09-25T09:45:19Z</time>
      </trkpt>
      <trkpt lat="45.76237" lon="5.42467">
        <ele>225.1</ele>
        <time>2022-09-25T09:45:20Z</time>
      </trkpt>
      <trkpt lat="45.76231" lon="5.42467">
        <ele>225</ele>
        <time>2022-09-25T09:45:21Z</time>
      </trkpt>
      <trkpt lat="45.76224" lon="5.42464">
        <ele>225</ele>
        <time>2022-09-25T09:45:22Z</time>
      </trkpt>
      <trkpt lat="45.76219" lon="5.42465">
        <ele>225</ele>
        <time>2022-09-25T09:45:23Z</time>
      </trkpt>
      <trkpt lat="45.76213" lon="5.42465">
        <ele>225</ele>
        <time>2022-09-25T09:45:24Z</time>
      </trkpt>
      <trkpt lat="45.76208" lon="5.42467">
        <ele>225</ele>
        <time>2022-09-25T09:45:25Z</time>
      </trkpt>
      <trkpt lat="45.76201" lon="5.42466">
        <ele>225</ele>
        <time>2022-09-25T09:45:26Z</time>
      </trkpt>
      <trkpt lat="45.76195" lon="5.42465">
        <ele>225</ele>
        <time>2022-09-25T09:45:27Z</time>
      </trkpt>
      <trkpt lat="45.76189" lon="5.42466">
        <ele>225</ele>
        <time>2022-09-25T09:45:28Z</time>
      </trkpt>
      <trkpt lat="45.76183" lon="5.42468">
        <ele>225.1</ele>
        <time>2022-09-25T09:45:29Z</time>
      </trkpt>
      <trkpt lat="45.76177" lon="5.42469">
        <ele>225.2</ele>
        <time>2022-09-25T09:45:30Z</time>
      </trkpt>
      <trkpt lat="45.76171" lon="5.42469">
        <ele>225.3</ele>
        <time>2022-09-25T09:45:31Z</time>
      </trkpt>
      <trkpt lat="45.76165" lon="5.4247">
        <ele>225.5</ele>
        <time>2022-09-25T09:45:32Z</time>
      </trkpt>
      <trkpt lat="45.76161" lon="5.42472">
        <ele>225.6</ele>
        <time>2022-09-25T09:45:33Z</time>
      </trkpt>
      <trkpt lat="45.76156" lon="5.42472">
        <ele>225.7</ele>
        <time>2022-09-25T09:45:34Z</time>
      </trkpt>
      <trkpt lat="45.76151" lon="5.42472">
        <ele>225.9</ele>
        <time>2022-09-25T09:45:35Z</time>
      </trkpt>
      <trkpt lat="45.76146" lon="5.42472">
        <ele>226</ele>
        <time>2022-09-25T09:45:36Z</time>
      </trkpt>
      <trkpt lat="45.76141" lon="5.42471">
        <ele>226.2</ele>
        <time>2022-09-25T09:45:37Z</time>
      </trkpt>
      <trkpt lat="45.76137" lon="5.42471">
        <ele>226.3</ele>
        <time>2022-09-25T09:45:38Z</time>
      </trkpt>
      <trkpt lat="45.76133" lon="5.42472">
        <ele>226.5</ele>
        <time>2022-09-25T09:45:39Z</time>
      </trkpt>
      <trkpt lat="45.76129" lon="5.42472">
        <ele>226.6</ele>
        <time>2022-09-25T09:45:40Z</time>
      </trkpt>
      <trkpt lat="45.76125" lon="5.42473">
        <ele>226.9</ele>
        <time>2022-09-25T09:45:41Z</time>
      </trkpt>
      <trkpt lat="45.76121" lon="5.42475">
        <ele>227</ele>
        <time>2022-09-25T09:45:42Z</time>
      </trkpt>
      <trkpt lat="45.76116" lon="5.42477">
        <ele>227.1</ele>
        <time>2022-09-25T09:45:43Z</time>
      </trkpt>
      <trkpt lat="45.76113" lon="5.4248">
        <ele>227.3</ele>
        <time>2022-09-25T09:45:44Z</time>
      </trkpt>
      <trkpt lat="45.7611" lon="5.42483">
        <ele>227.4</ele>
        <time>2022-09-25T09:45:45Z</time>
      </trkpt>
      <trkpt lat="45.76106" lon="5.42487">
        <ele>227.6</ele>
        <time>2022-09-25T09:45:46Z</time>
      </trkpt>
      <trkpt lat="45.76103" lon="5.42489">
        <ele>227.7</ele>
        <time>2022-09-25T09:45:47Z</time>
      </trkpt>
      <trkpt lat="45.76101" lon="5.4249">
        <ele>227.7</ele>
        <time>2022-09-25T09:45:48Z</time>
      </trkpt>
      <trkpt lat="45.76098" lon="5.42493">
        <ele>227.8</ele>
        <time>2022-09-25T09:45:49Z</time>
      </trkpt>
      <trkpt lat="45.76095" lon="5.42496">
        <ele>227.9</ele>
        <time>2022-09-25T09:45:50Z</time>
      </trkpt>
      <trkpt lat="45.76092" lon="5.42498">
        <ele>228</ele>
        <time>2022-09-25T09:45:51Z</time>
      </trkpt>
      <trkpt lat="45.76089" lon="5.42501">
        <ele>228.1</ele>
        <time>2022-09-25T09:45:52Z</time>
      </trkpt>
      <trkpt lat="45.76086" lon="5.42505">
        <ele>228.2</ele>
        <time>2022-09-25T09:45:53Z</time>
      </trkpt>
      <trkpt lat="45.76084" lon="5.42509">
        <ele>228.3</ele>
        <time>2022-09-25T09:45:54Z</time>
      </trkpt>
      <trkpt lat="45.76081" lon="5.42513">
        <ele>228.4</ele>
        <time>2022-09-25T09:45:55Z</time>
      </trkpt>
      <trkpt lat="45.76079" lon="5.42517">
        <ele>228.5</ele>
        <time>2022-09-25T09:45:56Z</time>
      </trkpt>
      <trkpt lat="45.76076" lon="5.42521">
        <ele>228.6</ele>
        <time>2022-09-25T09:45:57Z</time>
      </trkpt>
      <trkpt lat="45.76074" lon="5.42524">
        <ele>228.7</ele>
        <time>2022-09-25T09:45:58Z</time>
      </trkpt>
      <trkpt lat="45.76072" lon="5.42529">
        <ele>228.8</ele>
        <time>2022-09-25T09:45:59Z</time>
      </trkpt>
      <trkpt lat="45.76069" lon="5.42534">
        <ele>228.9</ele>
        <time>2022-09-25T09:46:00Z</time>
      </trkpt>
      <trkpt lat="45.76067" lon="5.42537">
        <ele>229</ele>
        <time>2022-09-25T09:46:01Z</time>
      </trkpt>
      <trkpt lat="45.76065" lon="5.42541">
        <ele>229.1</ele>
        <time>2022-09-25T09:46:02Z</time>
      </trkpt>
      <trkpt lat="45.76062" lon="5.42544">
        <ele>229.2</ele>
        <time>2022-09-25T09:46:03Z</time>
      </trkpt>
      <trkpt lat="45.7606" lon="5.42548">
        <ele>229.3</ele>
        <time>2022-09-25T09:46:04Z</time>
      </trkpt>
      <trkpt lat="45.76058" lon="5.42552">
        <ele>229.3</ele>
        <time>2022-09-25T09:46:05Z</time>
      </trkpt>
      <trkpt lat="45.76055" lon="5.42557">
        <ele>229.4</ele>
        <time>2022-09-25T09:46:06Z</time>
      </trkpt>
      <trkpt lat="45.76053" lon="5.42562">
        <ele>229.5</ele>
        <time>2022-09-25T09:46:07Z</time>
      </trkpt>
      <trkpt lat="45.7605" lon="5.42566">
        <ele>229.5</ele>
        <time>2022-09-25T09:46:08Z</time>
      </trkpt>
      <trkpt lat="45.76048" lon="5.42572">
        <ele>229.6</ele>
        <time>2022-09-25T09:46:09Z</time>
      </trkpt>
      <trkpt lat="45.76047" lon="5.42574">
        <ele>229.6</ele>
        <time>2022-09-25T09:46:10Z</time>
      </trkpt>
      <trkpt lat="45.76043" lon="5.42579">
        <ele>229.7</ele>
        <time>2022-09-25T09:46:11Z</time>
      </trkpt>
      <trkpt lat="45.76041" lon="5.42583">
        <ele>229.7</ele>
        <time>2022-09-25T09:46:12Z</time>
      </trkpt>
      <trkpt lat="45.76039" lon="5.42588">
        <ele>229.7</ele>
        <time>2022-09-25T09:46:13Z</time>
      </trkpt>
      <trkpt lat="45.76036" lon="5.42592">
        <ele>229.8</ele>
        <time>2022-09-25T09:46:14Z</time>
      </trkpt>
      <trkpt lat="45.76034" lon="5.42595">
        <ele>229.8</ele>
        <time>2022-09-25T09:46:15Z</time>
      </trkpt>
      <trkpt lat="45.76032" lon="5.42601">
        <ele>229.8</ele>
        <time>2022-09-25T09:46:16Z</time>
      </trkpt>
      <trkpt lat="45.76029" lon="5.42604">
        <ele>229.8</ele>
        <time>2022-09-25T09:46:17Z</time>
      </trkpt>
      <trkpt lat="45.76026" lon="5.42609">
        <ele>229.8</ele>
        <time>2022-09-25T09:46:18Z</time>
      </trkpt>
      <trkpt lat="45.76023" lon="5.42613">
        <ele>229.8</ele>
        <time>2022-09-25T09:46:19Z</time>
      </trkpt>
      <trkpt lat="45.76018" lon="5.42616">
        <ele>229.8</ele>
        <time>2022-09-25T09:46:20Z</time>
      </trkpt>
      <trkpt lat="45.76014" lon="5.42618">
        <ele>229.8</ele>
        <time>2022-09-25T09:46:21Z</time>
      </trkpt>
      <trkpt lat="45.76009" lon="5.42619">
        <ele>229.8</ele>
        <time>2022-09-25T09:46:22Z</time>
      </trkpt>
      <trkpt lat="45.76005" lon="5.42621">
        <ele>229.8</ele>
        <time>2022-09-25T09:46:23Z</time>
      </trkpt>
      <trkpt lat="45.76" lon="5.42623">
        <ele>229.8</ele>
        <time>2022-09-25T09:46:24Z</time>
      </trkpt>
      <trkpt lat="45.75995" lon="5.42623">
        <ele>229.8</ele>
        <time>2022-09-25T09:46:25Z</time>
      </trkpt>
      <trkpt lat="45.75991" lon="5.42623">
        <ele>229.8</ele>
        <time>2022-09-25T09:46:26Z</time>
      </trkpt>
      <trkpt lat="45.75986" lon="5.42624">
        <ele>229.8</ele>
        <time>2022-09-25T09:46:27Z</time>
      </trkpt>
      <trkpt lat="45.75981" lon="5.42625">
        <ele>229.7</ele>
        <time>2022-09-25T09:46:28Z</time>
      </trkpt>
      <trkpt lat="45.75976" lon="5.42626">
        <ele>229.7</ele>
        <time>2022-09-25T09:46:29Z</time>
      </trkpt>
      <trkpt lat="45.75971" lon="5.42626">
        <ele>229.7</ele>
        <time>2022-09-25T09:46:30Z</time>
      </trkpt>
      <trkpt lat="45.75966" lon="5.42627">
        <ele>229.7</ele>
        <time>2022-09-25T09:46:31Z</time>
      </trkpt>
      <trkpt lat="45.75961" lon="5.42628">
        <ele>229.7</ele>
        <time>2022-09-25T09:46:32Z</time>
      </trkpt>
      <trkpt lat="45.75956" lon="5.42629">
        <ele>229.7</ele>
        <time>2022-09-25T09:46:33Z</time>
      </trkpt>
      <trkpt lat="45.75951" lon="5.4263">
        <ele>229.7</ele>
        <time>2022-09-25T09:46:34Z</time>
      </trkpt>
      <trkpt lat="45.75946" lon="5.42631">
        <ele>229.7</ele>
        <time>2022-09-25T09:46:35Z</time>
      </trkpt>
      <trkpt lat="45.75941" lon="5.42631">
        <ele>229.7</ele>
        <time>2022-09-25T09:46:36Z</time>
      </trkpt>
      <trkpt lat="45.75936" lon="5.42632">
        <ele>229.7</ele>
        <time>2022-09-25T09:46:37Z</time>
      </trkpt>
      <trkpt lat="45.75931" lon="5.42633">
        <ele>229.7</ele>
        <time>2022-09-25T09:46:38Z</time>
      </trkpt>
      <trkpt lat="45.75926" lon="5.42634">
        <ele>229.7</ele>
        <time>2022-09-25T09:46:39Z</time>
      </trkpt>
      <trkpt lat="45.75921" lon="5.42635">
        <ele>229.7</ele>
        <time>2022-09-25T09:46:40Z</time>
      </trkpt>
      <trkpt lat="45.75916" lon="5.42636">
        <ele>229.7</ele>
        <time>2022-09-25T09:46:41Z</time>
      </trkpt>
      <trkpt lat="45.75911" lon="5.42637">
        <ele>229.7</ele>
        <time>2022-09-25T09:46:42Z</time>
      </trkpt>
      <trkpt lat="45.75906" lon="5.42638">
        <ele>229.8</ele>
        <time>2022-09-25T09:46:43Z</time>
      </trkpt>
      <trkpt lat="45.75901" lon="5.42639">
        <ele>229.8</ele>
        <time>2022-09-25T09:46:44Z</time>
      </trkpt>
      <trkpt lat="45.75896" lon="5.42639">
        <ele>229.8</ele>
        <time>2022-09-25T09:46:45Z</time>
      </trkpt>
      <trkpt lat="45.75892" lon="5.4264">
        <ele>229.8</ele>
        <time>2022-09-25T09:46:46Z</time>
      </trkpt>
      <trkpt lat="45.75887" lon="5.42641">
        <ele>229.8</ele>
        <time>2022-09-25T09:46:47Z</time>
      </trkpt>
      <trkpt lat="45.75882" lon="5.42642">
        <ele>229.8</ele>
        <time>2022-09-25T09:46:48Z</time>
      </trkpt>
      <trkpt lat="45.75877" lon="5.42643">
        <ele>229.8</ele>
        <time>2022-09-25T09:46:49Z</time>
      </trkpt>
      <trkpt lat="45.75872" lon="5.42644">
        <ele>229.8</ele>
        <time>2022-09-25T09:46:50Z</time>
      </trkpt>
      <trkpt lat="45.75867" lon="5.42645">
        <ele>229.7</ele>
        <time>2022-09-25T09:46:51Z</time>
      </trkpt>
      <trkpt lat="45.75862" lon="5.42645">
        <ele>229.7</ele>
        <time>2022-09-25T09:46:52Z</time>
      </trkpt>
      <trkpt lat="45.75857" lon="5.42646">
        <ele>229.6</ele>
        <time>2022-09-25T09:46:53Z</time>
      </trkpt>
      <trkpt lat="45.75851" lon="5.42646">
        <ele>229.5</ele>
        <time>2022-09-25T09:46:54Z</time>
      </trkpt>
      <trkpt lat="45.75846" lon="5.42647">
        <ele>229.4</ele>
        <time>2022-09-25T09:46:55Z</time>
      </trkpt>
      <trkpt lat="45.7584" lon="5.42648">
        <ele>229.4</ele>
        <time>2022-09-25T09:46:56Z</time>
      </trkpt>
      <trkpt lat="45.75835" lon="5.42648">
        <ele>229.4</ele>
        <time>2022-09-25T09:46:57Z</time>
      </trkpt>
      <trkpt lat="45.75829" lon="5.42649">
        <ele>229.3</ele>
        <time>2022-09-25T09:46:58Z</time>
      </trkpt>
      <trkpt lat="45.75823" lon="5.42649">
        <ele>229.3</ele>
        <time>2022-09-25T09:46:59Z</time>
      </trkpt>
      <trkpt lat="45.75818" lon="5.4265">
        <ele>229.3</ele>
        <time>2022-09-25T09:47:00Z</time>
      </trkpt>
      <trkpt lat="45.75812" lon="5.42651">
        <ele>229.3</ele>
        <time>2022-09-25T09:47:01Z</time>
      </trkpt>
      <trkpt lat="45.75807" lon="5.4265">
        <ele>229.2</ele>
        <time>2022-09-25T09:47:02Z</time>
      </trkpt>
      <trkpt lat="45.75801" lon="5.42651">
        <ele>229.2</ele>
        <time>2022-09-25T09:47:03Z</time>
      </trkpt>
      <trkpt lat="45.75796" lon="5.42651">
        <ele>229.2</ele>
        <time>2022-09-25T09:47:04Z</time>
      </trkpt>
      <trkpt lat="45.7579" lon="5.42651">
        <ele>229.2</ele>
        <time>2022-09-25T09:47:05Z</time>
      </trkpt>
      <trkpt lat="45.75785" lon="5.42651">
        <ele>229.2</ele>
        <time>2022-09-25T09:47:06Z</time>
      </trkpt>
      <trkpt lat="45.7578" lon="5.42651">
        <ele>229.3</ele>
        <time>2022-09-25T09:47:07Z</time>
      </trkpt>
      <trkpt lat="45.75775" lon="5.42652">
        <ele>229.3</ele>
        <time>2022-09-25T09:47:08Z</time>
      </trkpt>
      <trkpt lat="45.7577" lon="5.42652">
        <ele>229.3</ele>
        <time>2022-09-25T09:47:09Z</time>
      </trkpt>
      <trkpt lat="45.75764" lon="5.42652">
        <ele>229.3</ele>
        <time>2022-09-25T09:47:10Z</time>
      </trkpt>
      <trkpt lat="45.75759" lon="5.42652">
        <ele>229.3</ele>
        <time>2022-09-25T09:47:11Z</time>
      </trkpt>
      <trkpt lat="45.75753" lon="5.42652">
        <ele>229.2</ele>
        <time>2022-09-25T09:47:12Z</time>
      </trkpt>
      <trkpt lat="45.75747" lon="5.42653">
        <ele>229.2</ele>
        <time>2022-09-25T09:47:13Z</time>
      </trkpt>
      <trkpt lat="45.75741" lon="5.42654">
        <ele>229.1</ele>
        <time>2022-09-25T09:47:14Z</time>
      </trkpt>
      <trkpt lat="45.75735" lon="5.42655">
        <ele>229.1</ele>
        <time>2022-09-25T09:47:15Z</time>
      </trkpt>
      <trkpt lat="45.75729" lon="5.42656">
        <ele>229</ele>
        <time>2022-09-25T09:47:16Z</time>
      </trkpt>
      <trkpt lat="45.75723" lon="5.42657">
        <ele>229</ele>
        <time>2022-09-25T09:47:17Z</time>
      </trkpt>
      <trkpt lat="45.75717" lon="5.42658">
        <ele>229</ele>
        <time>2022-09-25T09:47:18Z</time>
      </trkpt>
      <trkpt lat="45.7571" lon="5.4266">
        <ele>229</ele>
        <time>2022-09-25T09:47:19Z</time>
      </trkpt>
      <trkpt lat="45.75705" lon="5.42662">
        <ele>229</ele>
        <time>2022-09-25T09:47:20Z</time>
      </trkpt>
      <trkpt lat="45.75699" lon="5.42663">
        <ele>229</ele>
        <time>2022-09-25T09:47:21Z</time>
      </trkpt>
      <trkpt lat="45.75693" lon="5.42664">
        <ele>229</ele>
        <time>2022-09-25T09:47:22Z</time>
      </trkpt>
      <trkpt lat="45.75687" lon="5.42665">
        <ele>229.1</ele>
        <time>2022-09-25T09:47:23Z</time>
      </trkpt>
      <trkpt lat="45.75681" lon="5.42667">
        <ele>229.2</ele>
        <time>2022-09-25T09:47:24Z</time>
      </trkpt>
      <trkpt lat="45.75675" lon="5.42669">
        <ele>229.3</ele>
        <time>2022-09-25T09:47:25Z</time>
      </trkpt>
      <trkpt lat="45.7567" lon="5.4267">
        <ele>229.4</ele>
        <time>2022-09-25T09:47:26Z</time>
      </trkpt>
      <trkpt lat="45.75665" lon="5.42672">
        <ele>229.5</ele>
        <time>2022-09-25T09:47:27Z</time>
      </trkpt>
      <trkpt lat="45.7566" lon="5.42674">
        <ele>229.7</ele>
        <time>2022-09-25T09:47:28Z</time>
      </trkpt>
      <trkpt lat="45.75654" lon="5.42675">
        <ele>229.9</ele>
        <time>2022-09-25T09:47:29Z</time>
      </trkpt>
      <trkpt lat="45.7565" lon="5.42678">
        <ele>230.2</ele>
        <time>2022-09-25T09:47:30Z</time>
      </trkpt>
      <trkpt lat="45.75645" lon="5.42679">
        <ele>230.4</ele>
        <time>2022-09-25T09:47:31Z</time>
      </trkpt>
      <trkpt lat="45.75641" lon="5.42682">
        <ele>230.7</ele>
        <time>2022-09-25T09:47:32Z</time>
      </trkpt>
      <trkpt lat="45.75638" lon="5.42686">
        <ele>230.9</ele>
        <time>2022-09-25T09:47:33Z</time>
      </trkpt>
      <trkpt lat="45.75634" lon="5.4269">
        <ele>231.1</ele>
        <time>2022-09-25T09:47:34Z</time>
      </trkpt>
      <trkpt lat="45.75631" lon="5.42694">
        <ele>231.4</ele>
        <time>2022-09-25T09:47:35Z</time>
      </trkpt>
      <trkpt lat="45.75629" lon="5.42698">
        <ele>231.6</ele>
        <time>2022-09-25T09:47:36Z</time>
      </trkpt>
      <trkpt lat="45.75627" lon="5.42704">
        <ele>231.9</ele>
        <time>2022-09-25T09:47:37Z</time>
      </trkpt>
      <trkpt lat="45.75624" lon="5.42708">
        <ele>232.2</ele>
        <time>2022-09-25T09:47:38Z</time>
      </trkpt>
      <trkpt lat="45.75621" lon="5.42712">
        <ele>232.4</ele>
        <time>2022-09-25T09:47:39Z</time>
      </trkpt>
      <trkpt lat="45.75618" lon="5.42714">
        <ele>233.2</ele>
        <time>2022-09-25T09:47:40Z</time>
      </trkpt>
      <trkpt lat="45.75615" lon="5.42714">
        <ele>233.3</ele>
        <time>2022-09-25T09:47:41Z</time>
      </trkpt>
      <trkpt lat="45.75612" lon="5.42712">
        <ele>233.4</ele>
        <time>2022-09-25T09:47:42Z</time>
      </trkpt>
      <trkpt lat="45.7561" lon="5.42707">
        <ele>233.5</ele>
        <time>2022-09-25T09:47:43Z</time>
      </trkpt>
      <trkpt lat="45.7561" lon="5.42704">
        <ele>233.5</ele>
        <time>2022-09-25T09:47:44Z</time>
      </trkpt>
      <trkpt lat="45.75609" lon="5.42698">
        <ele>233.6</ele>
        <time>2022-09-25T09:47:45Z</time>
      </trkpt>
      <trkpt lat="45.75608" lon="5.42696">
        <ele>233.6</ele>
        <time>2022-09-25T09:47:46Z</time>
      </trkpt>
      <trkpt lat="45.75606" lon="5.42692">
        <ele>233.7</ele>
        <time>2022-09-25T09:47:47Z</time>
      </trkpt>
      <trkpt lat="45.75604" lon="5.42687">
        <ele>233.8</ele>
        <time>2022-09-25T09:47:48Z</time>
      </trkpt>
      <trkpt lat="45.75603" lon="5.42683">
        <ele>233.9</ele>
        <time>2022-09-25T09:47:49Z</time>
      </trkpt>
      <trkpt lat="45.75601" lon="5.42678">
        <ele>233.9</ele>
        <time>2022-09-25T09:47:50Z</time>
      </trkpt>
      <trkpt lat="45.756" lon="5.42674">
        <ele>234</ele>
        <time>2022-09-25T09:47:51Z</time>
      </trkpt>
      <trkpt lat="45.75598" lon="5.42671">
        <ele>234.1</ele>
        <time>2022-09-25T09:47:52Z</time>
      </trkpt>
      <trkpt lat="45.75597" lon="5.42667">
        <ele>234.2</ele>
        <time>2022-09-25T09:47:53Z</time>
      </trkpt>
      <trkpt lat="45.75594" lon="5.42663">
        <ele>234.3</ele>
        <time>2022-09-25T09:47:54Z</time>
      </trkpt>
      <trkpt lat="45.75593" lon="5.42661">
        <ele>234.3</ele>
        <time>2022-09-25T09:47:55Z</time>
      </trkpt>
      <trkpt lat="45.75591" lon="5.42658">
        <ele>234.4</ele>
        <time>2022-09-25T09:47:56Z</time>
      </trkpt>
      <trkpt lat="45.75589" lon="5.42654">
        <ele>234.4</ele>
        <time>2022-09-25T09:47:57Z</time>
      </trkpt>
      <trkpt lat="45.75587" lon="5.4265">
        <ele>234.5</ele>
        <time>2022-09-25T09:47:58Z</time>
      </trkpt>
      <trkpt lat="45.75585" lon="5.42647">
        <ele>234.6</ele>
        <time>2022-09-25T09:47:59Z</time>
      </trkpt>
      <trkpt lat="45.75583" lon="5.42644">
        <ele>234.6</ele>
        <time>2022-09-25T09:48:00Z</time>
      </trkpt>
      <trkpt lat="45.75581" lon="5.4264">
        <ele>234.7</ele>
        <time>2022-09-25T09:48:01Z</time>
      </trkpt>
      <trkpt lat="45.75579" lon="5.42637">
        <ele>234.7</ele>
        <time>2022-09-25T09:48:02Z</time>
      </trkpt>
      <trkpt lat="45.75577" lon="5.42633">
        <ele>234.8</ele>
        <time>2022-09-25T09:48:03Z</time>
      </trkpt>
      <trkpt lat="45.75575" lon="5.42631">
        <ele>234.8</ele>
        <time>2022-09-25T09:48:04Z</time>
      </trkpt>
      <trkpt lat="45.75573" lon="5.42627">
        <ele>234.9</ele>
        <time>2022-09-25T09:48:05Z</time>
      </trkpt>
      <trkpt lat="45.75571" lon="5.42624">
        <ele>234.9</ele>
        <time>2022-09-25T09:48:06Z</time>
      </trkpt>
      <trkpt lat="45.75569" lon="5.4262">
        <ele>234.9</ele>
        <time>2022-09-25T09:48:07Z</time>
      </trkpt>
      <trkpt lat="45.75566" lon="5.42617">
        <ele>234.9</ele>
        <time>2022-09-25T09:48:08Z</time>
      </trkpt>
      <trkpt lat="45.75564" lon="5.42614">
        <ele>234.9</ele>
        <time>2022-09-25T09:48:09Z</time>
      </trkpt>
      <trkpt lat="45.75561" lon="5.4261">
        <ele>234.9</ele>
        <time>2022-09-25T09:48:10Z</time>
      </trkpt>
      <trkpt lat="45.75559" lon="5.42607">
        <ele>234.9</ele>
        <time>2022-09-25T09:48:11Z</time>
      </trkpt>
      <trkpt lat="45.75556" lon="5.42604">
        <ele>234.9</ele>
        <time>2022-09-25T09:48:12Z</time>
      </trkpt>
      <trkpt lat="45.75553" lon="5.426">
        <ele>234.8</ele>
        <time>2022-09-25T09:48:13Z</time>
      </trkpt>
      <trkpt lat="45.7555" lon="5.42597">
        <ele>234.7</ele>
        <time>2022-09-25T09:48:14Z</time>
      </trkpt>
      <trkpt lat="45.75547" lon="5.42594">
        <ele>234.6</ele>
        <time>2022-09-25T09:48:15Z</time>
      </trkpt>
      <trkpt lat="45.75543" lon="5.42591">
        <ele>234.5</ele>
        <time>2022-09-25T09:48:16Z</time>
      </trkpt>
      <trkpt lat="45.75538" lon="5.42588">
        <ele>234.3</ele>
        <time>2022-09-25T09:48:17Z</time>
      </trkpt>
      <trkpt lat="45.75534" lon="5.42586">
        <ele>234.1</ele>
        <time>2022-09-25T09:48:18Z</time>
      </trkpt>
      <trkpt lat="45.75529" lon="5.42584">
        <ele>233.8</ele>
        <time>2022-09-25T09:48:19Z</time>
      </trkpt>
      <trkpt lat="45.75523" lon="5.42582">
        <ele>233.6</ele>
        <time>2022-09-25T09:48:20Z</time>
      </trkpt>
      <trkpt lat="45.75517" lon="5.4258">
        <ele>233.3</ele>
        <time>2022-09-25T09:48:21Z</time>
      </trkpt>
      <trkpt lat="45.75512" lon="5.4258">
        <ele>233.1</ele>
        <time>2022-09-25T09:48:22Z</time>
      </trkpt>
      <trkpt lat="45.75505" lon="5.42577">
        <ele>232.8</ele>
        <time>2022-09-25T09:48:23Z</time>
      </trkpt>
      <trkpt lat="45.75499" lon="5.42575">
        <ele>232.5</ele>
        <time>2022-09-25T09:48:24Z</time>
      </trkpt>
      <trkpt lat="45.75492" lon="5.42573">
        <ele>232.2</ele>
        <time>2022-09-25T09:48:25Z</time>
      </trkpt>
      <trkpt lat="45.75486" lon="5.42571">
        <ele>232</ele>
        <time>2022-09-25T09:48:26Z</time>
      </trkpt>
      <trkpt lat="45.7548" lon="5.4257">
        <ele>231.8</ele>
        <time>2022-09-25T09:48:27Z</time>
      </trkpt>
      <trkpt lat="45.75472" lon="5.42567">
        <ele>231.5</ele>
        <time>2022-09-25T09:48:28Z</time>
      </trkpt>
      <trkpt lat="45.75466" lon="5.42564">
        <ele>231.4</ele>
        <time>2022-09-25T09:48:29Z</time>
      </trkpt>
      <trkpt lat="45.75459" lon="5.42561">
        <ele>231.2</ele>
        <time>2022-09-25T09:48:30Z</time>
      </trkpt>
      <trkpt lat="45.75451" lon="5.42559">
        <ele>231.1</ele>
        <time>2022-09-25T09:48:31Z</time>
      </trkpt>
      <trkpt lat="45.75443" lon="5.42556">
        <ele>231</ele>
        <time>2022-09-25T09:48:32Z</time>
      </trkpt>
      <trkpt lat="45.75437" lon="5.42556">
        <ele>231</ele>
        <time>2022-09-25T09:48:33Z</time>
      </trkpt>
      <trkpt lat="45.7543" lon="5.42556">
        <ele>230.9</ele>
        <time>2022-09-25T09:48:34Z</time>
      </trkpt>
      <trkpt lat="45.75423" lon="5.42555">
        <ele>231</ele>
        <time>2022-09-25T09:48:35Z</time>
      </trkpt>
      <trkpt lat="45.75417" lon="5.42554">
        <ele>231</ele>
        <time>2022-09-25T09:48:36Z</time>
      </trkpt>
      <trkpt lat="45.75409" lon="5.42554">
        <ele>231.1</ele>
        <time>2022-09-25T09:48:37Z</time>
      </trkpt>
      <trkpt lat="45.75403" lon="5.42554">
        <ele>231.2</ele>
        <time>2022-09-25T09:48:38Z</time>
      </trkpt>
      <trkpt lat="45.75397" lon="5.42554">
        <ele>231.4</ele>
        <time>2022-09-25T09:48:39Z</time>
      </trkpt>
      <trkpt lat="45.7539" lon="5.42552">
        <ele>231.6</ele>
        <time>2022-09-25T09:48:40Z</time>
      </trkpt>
      <trkpt lat="45.75384" lon="5.42553">
        <ele>231.8</ele>
        <time>2022-09-25T09:48:41Z</time>
      </trkpt>
      <trkpt lat="45.75378" lon="5.42553">
        <ele>232</ele>
        <time>2022-09-25T09:48:42Z</time>
      </trkpt>
      <trkpt lat="45.75373" lon="5.42555">
        <ele>232.2</ele>
        <time>2022-09-25T09:48:43Z</time>
      </trkpt>
      <trkpt lat="45.75367" lon="5.42556">
        <ele>232.4</ele>
        <time>2022-09-25T09:48:44Z</time>
      </trkpt>
      <trkpt lat="45.75362" lon="5.42555">
        <ele>232.5</ele>
        <time>2022-09-25T09:48:45Z</time>
      </trkpt>
      <trkpt lat="45.75356" lon="5.42555">
        <ele>232.7</ele>
        <time>2022-09-25T09:48:46Z</time>
      </trkpt>
      <trkpt lat="45.75352" lon="5.42554">
        <ele>232.8</ele>
        <time>2022-09-25T09:48:47Z</time>
      </trkpt>
      <trkpt lat="45.75348" lon="5.42554">
        <ele>232.8</ele>
        <time>2022-09-25T09:48:48Z</time>
      </trkpt>
      <trkpt lat="45.75344" lon="5.42555">
        <ele>232.9</ele>
        <time>2022-09-25T09:48:49Z</time>
      </trkpt>
      <trkpt lat="45.7534" lon="5.42553">
        <ele>233</ele>
        <time>2022-09-25T09:48:50Z</time>
      </trkpt>
      <trkpt lat="45.75336" lon="5.42553">
        <ele>233</ele>
        <time>2022-09-25T09:48:51Z</time>
      </trkpt>
      <trkpt lat="45.75331" lon="5.42552">
        <ele>233</ele>
        <time>2022-09-25T09:48:52Z</time>
      </trkpt>
      <trkpt lat="45.75327" lon="5.4255">
        <ele>233</ele>
        <time>2022-09-25T09:48:53Z</time>
      </trkpt>
      <trkpt lat="45.75321" lon="5.42549">
        <ele>232.9</ele>
        <time>2022-09-25T09:48:54Z</time>
      </trkpt>
      <trkpt lat="45.75316" lon="5.42548">
        <ele>232.8</ele>
        <time>2022-09-25T09:48:55Z</time>
      </trkpt>
      <trkpt lat="45.75309" lon="5.42547">
        <ele>232.7</ele>
        <time>2022-09-25T09:48:56Z</time>
      </trkpt>
      <trkpt lat="45.75303" lon="5.42546">
        <ele>232.6</ele>
        <time>2022-09-25T09:48:57Z</time>
      </trkpt>
      <trkpt lat="45.75295" lon="5.42545">
        <ele>232.4</ele>
        <time>2022-09-25T09:48:58Z</time>
      </trkpt>
      <trkpt lat="45.75289" lon="5.42546">
        <ele>232.2</ele>
        <time>2022-09-25T09:48:59Z</time>
      </trkpt>
      <trkpt lat="45.75282" lon="5.42546">
        <ele>232</ele>
        <time>2022-09-25T09:49:00Z</time>
      </trkpt>
      <trkpt lat="45.75276" lon="5.42546">
        <ele>231.9</ele>
        <time>2022-09-25T09:49:01Z</time>
      </trkpt>
      <trkpt lat="45.7527" lon="5.42547">
        <ele>231.8</ele>
        <time>2022-09-25T09:49:02Z</time>
      </trkpt>
      <trkpt lat="45.75263" lon="5.42545">
        <ele>231.8</ele>
        <time>2022-09-25T09:49:03Z</time>
      </trkpt>
      <trkpt lat="45.75258" lon="5.42546">
        <ele>231.7</ele>
        <time>2022-09-25T09:49:04Z</time>
      </trkpt>
      <trkpt lat="45.75249" lon="5.42546">
        <ele>231.6</ele>
        <time>2022-09-25T09:49:05Z</time>
      </trkpt>
      <trkpt lat="45.75241" lon="5.42544">
        <ele>231.6</ele>
        <time>2022-09-25T09:49:06Z</time>
      </trkpt>
      <trkpt lat="45.75234" lon="5.42542">
        <ele>231.6</ele>
        <time>2022-09-25T09:49:07Z</time>
      </trkpt>
      <trkpt lat="45.75227" lon="5.42537">
        <ele>231.6</ele>
        <time>2022-09-25T09:49:08Z</time>
      </trkpt>
      <trkpt lat="45.7522" lon="5.42538">
        <ele>231.6</ele>
        <time>2022-09-25T09:49:09Z</time>
      </trkpt>
      <trkpt lat="45.75212" lon="5.42537">
        <ele>231.7</ele>
        <time>2022-09-25T09:49:10Z</time>
      </trkpt>
      <trkpt lat="45.75207" lon="5.42538">
        <ele>231.7</ele>
        <time>2022-09-25T09:49:11Z</time>
      </trkpt>
      <trkpt lat="45.75201" lon="5.42537">
        <ele>231.7</ele>
        <time>2022-09-25T09:49:12Z</time>
      </trkpt>
      <trkpt lat="45.75194" lon="5.42537">
        <ele>231.8</ele>
        <time>2022-09-25T09:49:13Z</time>
      </trkpt>
      <trkpt lat="45.75188" lon="5.42536">
        <ele>231.9</ele>
        <time>2022-09-25T09:49:14Z</time>
      </trkpt>
      <trkpt lat="45.75182" lon="5.42535">
        <ele>231.9</ele>
        <time>2022-09-25T09:49:15Z</time>
      </trkpt>
      <trkpt lat="45.75175" lon="5.42533">
        <ele>232</ele>
        <time>2022-09-25T09:49:16Z</time>
      </trkpt>
      <trkpt lat="45.75169" lon="5.42534">
        <ele>232</ele>
        <time>2022-09-25T09:49:17Z</time>
      </trkpt>
      <trkpt lat="45.75162" lon="5.42534">
        <ele>232.1</ele>
        <time>2022-09-25T09:49:18Z</time>
      </trkpt>
      <trkpt lat="45.75158" lon="5.42535">
        <ele>232.1</ele>
        <time>2022-09-25T09:49:19Z</time>
      </trkpt>
      <trkpt lat="45.75151" lon="5.42532">
        <ele>232.2</ele>
        <time>2022-09-25T09:49:20Z</time>
      </trkpt>
      <trkpt lat="45.75144" lon="5.42532">
        <ele>232.2</ele>
        <time>2022-09-25T09:49:21Z</time>
      </trkpt>
      <trkpt lat="45.75137" lon="5.42531">
        <ele>232.3</ele>
        <time>2022-09-25T09:49:22Z</time>
      </trkpt>
      <trkpt lat="45.75132" lon="5.4253">
        <ele>232.3</ele>
        <time>2022-09-25T09:49:23Z</time>
      </trkpt>
      <trkpt lat="45.75126" lon="5.42529">
        <ele>232.4</ele>
        <time>2022-09-25T09:49:24Z</time>
      </trkpt>
      <trkpt lat="45.7512" lon="5.42529">
        <ele>232.5</ele>
        <time>2022-09-25T09:49:25Z</time>
      </trkpt>
      <trkpt lat="45.75113" lon="5.42527">
        <ele>232.5</ele>
        <time>2022-09-25T09:49:26Z</time>
      </trkpt>
      <trkpt lat="45.75108" lon="5.42525">
        <ele>232.6</ele>
        <time>2022-09-25T09:49:27Z</time>
      </trkpt>
      <trkpt lat="45.75102" lon="5.42525">
        <ele>232.7</ele>
        <time>2022-09-25T09:49:28Z</time>
      </trkpt>
      <trkpt lat="45.75097" lon="5.42523">
        <ele>232.7</ele>
        <time>2022-09-25T09:49:29Z</time>
      </trkpt>
      <trkpt lat="45.75092" lon="5.42523">
        <ele>232.8</ele>
        <time>2022-09-25T09:49:30Z</time>
      </trkpt>
      <trkpt lat="45.75087" lon="5.42521">
        <ele>232.8</ele>
        <time>2022-09-25T09:49:31Z</time>
      </trkpt>
      <trkpt lat="45.75081" lon="5.4252">
        <ele>232.8</ele>
        <time>2022-09-25T09:49:32Z</time>
      </trkpt>
      <trkpt lat="45.75076" lon="5.4252">
        <ele>232.8</ele>
        <time>2022-09-25T09:49:33Z</time>
      </trkpt>
      <trkpt lat="45.75071" lon="5.42519">
        <ele>232.8</ele>
        <time>2022-09-25T09:49:34Z</time>
      </trkpt>
      <trkpt lat="45.75065" lon="5.42516">
        <ele>232.9</ele>
        <time>2022-09-25T09:49:35Z</time>
      </trkpt>
      <trkpt lat="45.7506" lon="5.42515">
        <ele>232.9</ele>
        <time>2022-09-25T09:49:36Z</time>
      </trkpt>
      <trkpt lat="45.75055" lon="5.42514">
        <ele>232.8</ele>
        <time>2022-09-25T09:49:37Z</time>
      </trkpt>
      <trkpt lat="45.7505" lon="5.42512">
        <ele>232.8</ele>
        <time>2022-09-25T09:49:38Z</time>
      </trkpt>
      <trkpt lat="45.75045" lon="5.42512">
        <ele>232.8</ele>
        <time>2022-09-25T09:49:39Z</time>
      </trkpt>
      <trkpt lat="45.7504" lon="5.42511">
        <ele>232.8</ele>
        <time>2022-09-25T09:49:40Z</time>
      </trkpt>
      <trkpt lat="45.75035" lon="5.4251">
        <ele>232.7</ele>
        <time>2022-09-25T09:49:41Z</time>
      </trkpt>
      <trkpt lat="45.7503" lon="5.4251">
        <ele>232.7</ele>
        <time>2022-09-25T09:49:42Z</time>
      </trkpt>
      <trkpt lat="45.75024" lon="5.4251">
        <ele>232.7</ele>
        <time>2022-09-25T09:49:43Z</time>
      </trkpt>
      <trkpt lat="45.7502" lon="5.4251">
        <ele>232.7</ele>
        <time>2022-09-25T09:49:44Z</time>
      </trkpt>
      <trkpt lat="45.75012" lon="5.42511">
        <ele>232.7</ele>
        <time>2022-09-25T09:49:45Z</time>
      </trkpt>
      <trkpt lat="45.75008" lon="5.42512">
        <ele>232.7</ele>
        <time>2022-09-25T09:49:46Z</time>
      </trkpt>
      <trkpt lat="45.75003" lon="5.42513">
        <ele>232.7</ele>
        <time>2022-09-25T09:49:47Z</time>
      </trkpt>
      <trkpt lat="45.74997" lon="5.42514">
        <ele>232.8</ele>
        <time>2022-09-25T09:49:48Z</time>
      </trkpt>
      <trkpt lat="45.74993" lon="5.42512">
        <ele>232.8</ele>
        <time>2022-09-25T09:49:49Z</time>
      </trkpt>
      <trkpt lat="45.74988" lon="5.4251">
        <ele>232.9</ele>
        <time>2022-09-25T09:49:50Z</time>
      </trkpt>
      <trkpt lat="45.74985" lon="5.42507">
        <ele>232.9</ele>
        <time>2022-09-25T09:49:51Z</time>
      </trkpt>
      <trkpt lat="45.74984" lon="5.42502">
        <ele>232.9</ele>
        <time>2022-09-25T09:49:52Z</time>
      </trkpt>
      <trkpt lat="45.74985" lon="5.42497">
        <ele>232.9</ele>
        <time>2022-09-25T09:49:53Z</time>
      </trkpt>
      <trkpt lat="45.74985" lon="5.42491">
        <ele>232.9</ele>
        <time>2022-09-25T09:49:54Z</time>
      </trkpt>
      <trkpt lat="45.74984" lon="5.42488">
        <ele>232.9</ele>
        <time>2022-09-25T09:49:55Z</time>
      </trkpt>
      <trkpt lat="45.74983" lon="5.42481">
        <ele>232.9</ele>
        <time>2022-09-25T09:49:56Z</time>
      </trkpt>
      <trkpt lat="45.74982" lon="5.42476">
        <ele>232.9</ele>
        <time>2022-09-25T09:49:57Z</time>
      </trkpt>
      <trkpt lat="45.74979" lon="5.42477">
        <ele>232.9</ele>
        <time>2022-09-25T09:49:58Z</time>
      </trkpt>
      <trkpt lat="45.74975" lon="5.42476">
        <ele>232.8</ele>
        <time>2022-09-25T09:49:59Z</time>
      </trkpt>
      <trkpt lat="45.74973" lon="5.42475">
        <ele>232.8</ele>
        <time>2022-09-25T09:50:00Z</time>
      </trkpt>
      <trkpt lat="45.74969" lon="5.42477">
        <ele>232.7</ele>
        <time>2022-09-25T09:50:01Z</time>
      </trkpt>
      <trkpt lat="45.74966" lon="5.42475">
        <ele>232.6</ele>
        <time>2022-09-25T09:50:02Z</time>
      </trkpt>
      <trkpt lat="45.74962" lon="5.42476">
        <ele>232.5</ele>
        <time>2022-09-25T09:50:03Z</time>
      </trkpt>
      <trkpt lat="45.74961" lon="5.42476">
        <ele>232.5</ele>
        <time>2022-09-25T09:50:04Z</time>
      </trkpt>
      <trkpt lat="45.74959" lon="5.42477">
        <ele>232.5</ele>
        <time>2022-09-25T09:50:05Z</time>
      </trkpt>
      <trkpt lat="45.74959" lon="5.42476">
        <ele>232.4</ele>
        <time>2022-09-25T09:50:06Z</time>
      </trkpt>
      <trkpt lat="45.74958" lon="5.42477">
        <ele>232.4</ele>
        <time>2022-09-25T09:50:07Z</time>
      </trkpt>
      <trkpt lat="45.74958" lon="5.42477">
        <ele>232.4</ele>
        <time>2022-09-25T09:50:08Z</time>
      </trkpt>
      <trkpt lat="45.74958" lon="5.42476">
        <ele>232.4</ele>
        <time>2022-09-25T09:50:09Z</time>
      </trkpt>
      <trkpt lat="45.74958" lon="5.42475">
        <ele>232.4</ele>
        <time>2022-09-25T09:50:10Z</time>
      </trkpt>
      <trkpt lat="45.74957" lon="5.42476">
        <ele>232.4</ele>
        <time>2022-09-25T09:50:11Z</time>
      </trkpt>
      <trkpt lat="45.74957" lon="5.42477">
        <ele>232.4</ele>
        <time>2022-09-25T09:50:12Z</time>
      </trkpt>
      <trkpt lat="45.74957" lon="5.42477">
        <ele>232.4</ele>
        <time>2022-09-25T09:50:13Z</time>
      </trkpt>
      <trkpt lat="45.74957" lon="5.42476">
        <ele>232.4</ele>
        <time>2022-09-25T09:50:14Z</time>
      </trkpt>
      <trkpt lat="45.74954" lon="5.42475">
        <ele>232.3</ele>
        <time>2022-09-25T09:50:15Z</time>
      </trkpt>
      <trkpt lat="45.74952" lon="5.42474">
        <ele>232.3</ele>
        <time>2022-09-25T09:50:16Z</time>
      </trkpt>
      <trkpt lat="45.7495" lon="5.42473">
        <ele>232.3</ele>
        <time>2022-09-25T09:50:17Z</time>
      </trkpt>
      <trkpt lat="45.74948" lon="5.42472">
        <ele>232.2</ele>
        <time>2022-09-25T09:54:11Z</time>
      </trkpt>
      <trkpt lat="45.74945" lon="5.42472">
        <ele>232.2</ele>
        <time>2022-09-25T09:54:12Z</time>
      </trkpt>
      <trkpt lat="45.74942" lon="5.42471">
        <ele>232.1</ele>
        <time>2022-09-25T09:54:13Z</time>
      </trkpt>
      <trkpt lat="45.74938" lon="5.42471">
        <ele>232.1</ele>
        <time>2022-09-25T09:54:14Z</time>
      </trkpt>
      <trkpt lat="45.74936" lon="5.42471">
        <ele>232</ele>
        <time>2022-09-25T09:54:15Z</time>
      </trkpt>
      <trkpt lat="45.74933" lon="5.42471">
        <ele>232</ele>
        <time>2022-09-25T09:54:16Z</time>
      </trkpt>
      <trkpt lat="45.7493" lon="5.4247">
        <ele>232</ele>
        <time>2022-09-25T09:54:17Z</time>
      </trkpt>
      <trkpt lat="45.74926" lon="5.42469">
        <ele>231.9</ele>
        <time>2022-09-25T09:54:18Z</time>
      </trkpt>
      <trkpt lat="45.74922" lon="5.42466">
        <ele>231.9</ele>
        <time>2022-09-25T09:54:19Z</time>
      </trkpt>
      <trkpt lat="45.74917" lon="5.42465">
        <ele>231.9</ele>
        <time>2022-09-25T09:54:20Z</time>
      </trkpt>
      <trkpt lat="45.74913" lon="5.42464">
        <ele>231.8</ele>
        <time>2022-09-25T09:54:21Z</time>
      </trkpt>
      <trkpt lat="45.74907" lon="5.42464">
        <ele>231.8</ele>
        <time>2022-09-25T09:54:22Z</time>
      </trkpt>
      <trkpt lat="45.74903" lon="5.42462">
        <ele>231.8</ele>
        <time>2022-09-25T09:54:23Z</time>
      </trkpt>
      <trkpt lat="45.74899" lon="5.42463">
        <ele>231.8</ele>
        <time>2022-09-25T09:54:24Z</time>
      </trkpt>
      <trkpt lat="45.74894" lon="5.42462">
        <ele>231.7</ele>
        <time>2022-09-25T09:54:25Z</time>
      </trkpt>
      <trkpt lat="45.7489" lon="5.42461">
        <ele>231.7</ele>
        <time>2022-09-25T09:54:26Z</time>
      </trkpt>
      <trkpt lat="45.74885" lon="5.42461">
        <ele>231.7</ele>
        <time>2022-09-25T09:54:27Z</time>
      </trkpt>
      <trkpt lat="45.74879" lon="5.4246">
        <ele>231.6</ele>
        <time>2022-09-25T09:54:28Z</time>
      </trkpt>
      <trkpt lat="45.74875" lon="5.4246">
        <ele>231.6</ele>
        <time>2022-09-25T09:54:29Z</time>
      </trkpt>
      <trkpt lat="45.74869" lon="5.42459">
        <ele>231.5</ele>
        <time>2022-09-25T09:54:30Z</time>
      </trkpt>
      <trkpt lat="45.74863" lon="5.42457">
        <ele>231.5</ele>
        <time>2022-09-25T09:54:31Z</time>
      </trkpt>
      <trkpt lat="45.74858" lon="5.42455">
        <ele>231.6</ele>
        <time>2022-09-25T09:54:32Z</time>
      </trkpt>
      <trkpt lat="45.74853" lon="5.42452">
        <ele>231.6</ele>
        <time>2022-09-25T09:54:33Z</time>
      </trkpt>
      <trkpt lat="45.74846" lon="5.42452">
        <ele>231.6</ele>
        <time>2022-09-25T09:54:34Z</time>
      </trkpt>
      <trkpt lat="45.74839" lon="5.42451">
        <ele>231.6</ele>
        <time>2022-09-25T09:54:35Z</time>
      </trkpt>
      <trkpt lat="45.74833" lon="5.4245">
        <ele>231.6</ele>
        <time>2022-09-25T09:54:36Z</time>
      </trkpt>
      <trkpt lat="45.74827" lon="5.42448">
        <ele>231.5</ele>
        <time>2022-09-25T09:54:37Z</time>
      </trkpt>
      <trkpt lat="45.74821" lon="5.42446">
        <ele>231.6</ele>
        <time>2022-09-25T09:54:38Z</time>
      </trkpt>
      <trkpt lat="45.74816" lon="5.42446">
        <ele>231.6</ele>
        <time>2022-09-25T09:54:39Z</time>
      </trkpt>
      <trkpt lat="45.7481" lon="5.42444">
        <ele>231.6</ele>
        <time>2022-09-25T09:54:40Z</time>
      </trkpt>
      <trkpt lat="45.74804" lon="5.42442">
        <ele>231.7</ele>
        <time>2022-09-25T09:54:41Z</time>
      </trkpt>
      <trkpt lat="45.74799" lon="5.4244">
        <ele>231.7</ele>
        <time>2022-09-25T09:54:42Z</time>
      </trkpt>
      <trkpt lat="45.74794" lon="5.42439">
        <ele>231.8</ele>
        <time>2022-09-25T09:54:43Z</time>
      </trkpt>
      <trkpt lat="45.7479" lon="5.42438">
        <ele>231.8</ele>
        <time>2022-09-25T09:54:44Z</time>
      </trkpt>
      <trkpt lat="45.74785" lon="5.42437">
        <ele>231.9</ele>
        <time>2022-09-25T09:54:45Z</time>
      </trkpt>
      <trkpt lat="45.74781" lon="5.42437">
        <ele>231.9</ele>
        <time>2022-09-25T09:54:46Z</time>
      </trkpt>
      <trkpt lat="45.74777" lon="5.42437">
        <ele>232</ele>
        <time>2022-09-25T09:54:47Z</time>
      </trkpt>
      <trkpt lat="45.74772" lon="5.42434">
        <ele>232</ele>
        <time>2022-09-25T09:54:48Z</time>
      </trkpt>
      <trkpt lat="45.74766" lon="5.42433">
        <ele>232</ele>
        <time>2022-09-25T09:54:49Z</time>
      </trkpt>
      <trkpt lat="45.74761" lon="5.42431">
        <ele>232</ele>
        <time>2022-09-25T09:54:50Z</time>
      </trkpt>
      <trkpt lat="45.74755" lon="5.4243">
        <ele>232</ele>
        <time>2022-09-25T09:54:51Z</time>
      </trkpt>
      <trkpt lat="45.74749" lon="5.42428">
        <ele>231.9</ele>
        <time>2022-09-25T09:54:52Z</time>
      </trkpt>
      <trkpt lat="45.74744" lon="5.42426">
        <ele>231.9</ele>
        <time>2022-09-25T09:54:53Z</time>
      </trkpt>
      <trkpt lat="45.74738" lon="5.42424">
        <ele>231.9</ele>
        <time>2022-09-25T09:54:54Z</time>
      </trkpt>
      <trkpt lat="45.74731" lon="5.42422">
        <ele>231.9</ele>
        <time>2022-09-25T09:54:55Z</time>
      </trkpt>
      <trkpt lat="45.74727" lon="5.42422">
        <ele>231.9</ele>
        <time>2022-09-25T09:54:56Z</time>
      </trkpt>
      <trkpt lat="45.74722" lon="5.4242">
        <ele>231.9</ele>
        <time>2022-09-25T09:54:57Z</time>
      </trkpt>
      <trkpt lat="45.74715" lon="5.4242">
        <ele>231.9</ele>
        <time>2022-09-25T09:54:58Z</time>
      </trkpt>
      <trkpt lat="45.74709" lon="5.42419">
        <ele>231.9</ele>
        <time>2022-09-25T09:54:59Z</time>
      </trkpt>
      <trkpt lat="45.74704" lon="5.42416">
        <ele>232</ele>
        <time>2022-09-25T09:55:00Z</time>
      </trkpt>
      <trkpt lat="45.74699" lon="5.42415">
        <ele>232</ele>
        <time>2022-09-25T09:55:01Z</time>
      </trkpt>
      <trkpt lat="45.74692" lon="5.42414">
        <ele>232.1</ele>
        <time>2022-09-25T09:55:02Z</time>
      </trkpt>
      <trkpt lat="45.74687" lon="5.42414">
        <ele>232.1</ele>
        <time>2022-09-25T09:55:03Z</time>
      </trkpt>
      <trkpt lat="45.74682" lon="5.42412">
        <ele>232.1</ele>
        <time>2022-09-25T09:55:04Z</time>
      </trkpt>
      <trkpt lat="45.74677" lon="5.42409">
        <ele>232.2</ele>
        <time>2022-09-25T09:55:05Z</time>
      </trkpt>
      <trkpt lat="45.74671" lon="5.42408">
        <ele>232.2</ele>
        <time>2022-09-25T09:55:06Z</time>
      </trkpt>
      <trkpt lat="45.74664" lon="5.42408">
        <ele>232.2</ele>
        <time>2022-09-25T09:55:07Z</time>
      </trkpt>
      <trkpt lat="45.74658" lon="5.42405">
        <ele>232.2</ele>
        <time>2022-09-25T09:55:08Z</time>
      </trkpt>
      <trkpt lat="45.74651" lon="5.42403">
        <ele>232.3</ele>
        <time>2022-09-25T09:55:09Z</time>
      </trkpt>
      <trkpt lat="45.74645" lon="5.42402">
        <ele>232.3</ele>
        <time>2022-09-25T09:55:10Z</time>
      </trkpt>
      <trkpt lat="45.7464" lon="5.424">
        <ele>232.4</ele>
        <time>2022-09-25T09:55:11Z</time>
      </trkpt>
      <trkpt lat="45.74635" lon="5.424">
        <ele>232.4</ele>
        <time>2022-09-25T09:55:12Z</time>
      </trkpt>
      <trkpt lat="45.74629" lon="5.42399">
        <ele>232.4</ele>
        <time>2022-09-25T09:55:13Z</time>
      </trkpt>
      <trkpt lat="45.74623" lon="5.42397">
        <ele>232.5</ele>
        <time>2022-09-25T09:55:14Z</time>
      </trkpt>
      <trkpt lat="45.74617" lon="5.42395">
        <ele>232.5</ele>
        <time>2022-09-25T09:55:15Z</time>
      </trkpt>
      <trkpt lat="45.74612" lon="5.42395">
        <ele>232.5</ele>
        <time>2022-09-25T09:55:16Z</time>
      </trkpt>
      <trkpt lat="45.74607" lon="5.42393">
        <ele>232.6</ele>
        <time>2022-09-25T09:55:17Z</time>
      </trkpt>
      <trkpt lat="45.74601" lon="5.42393">
        <ele>232.6</ele>
        <time>2022-09-25T09:55:18Z</time>
      </trkpt>
      <trkpt lat="45.74596" lon="5.42389">
        <ele>232.6</ele>
        <time>2022-09-25T09:55:19Z</time>
      </trkpt>
      <trkpt lat="45.7459" lon="5.42389">
        <ele>232.5</ele>
        <time>2022-09-25T09:55:20Z</time>
      </trkpt>
      <trkpt lat="45.74585" lon="5.42388">
        <ele>232.5</ele>
        <time>2022-09-25T09:55:21Z</time>
      </trkpt>
      <trkpt lat="45.74581" lon="5.42386">
        <ele>232.5</ele>
        <time>2022-09-25T09:55:22Z</time>
      </trkpt>
      <trkpt lat="45.74575" lon="5.42385">
        <ele>232.5</ele>
        <time>2022-09-25T09:55:23Z</time>
      </trkpt>
      <trkpt lat="45.74569" lon="5.42382">
        <ele>232.5</ele>
        <time>2022-09-25T09:55:24Z</time>
      </trkpt>
      <trkpt lat="45.74564" lon="5.42381">
        <ele>232.5</ele>
        <time>2022-09-25T09:55:25Z</time>
      </trkpt>
      <trkpt lat="45.74559" lon="5.42379">
        <ele>232.5</ele>
        <time>2022-09-25T09:55:26Z</time>
      </trkpt>
      <trkpt lat="45.74555" lon="5.42378">
        <ele>232.5</ele>
        <time>2022-09-25T09:55:27Z</time>
      </trkpt>
      <trkpt lat="45.74551" lon="5.42375">
        <ele>232.5</ele>
        <time>2022-09-25T09:55:28Z</time>
      </trkpt>
      <trkpt lat="45.74545" lon="5.42372">
        <ele>232.5</ele>
        <time>2022-09-25T09:55:29Z</time>
      </trkpt>
      <trkpt lat="45.74539" lon="5.42372">
        <ele>232.4</ele>
        <time>2022-09-25T09:55:30Z</time>
      </trkpt>
      <trkpt lat="45.74534" lon="5.42371">
        <ele>232.4</ele>
        <time>2022-09-25T09:55:31Z</time>
      </trkpt>
      <trkpt lat="45.74528" lon="5.42367">
        <ele>232.4</ele>
        <time>2022-09-25T09:55:32Z</time>
      </trkpt>
      <trkpt lat="45.74522" lon="5.42367">
        <ele>232.5</ele>
        <time>2022-09-25T09:55:33Z</time>
      </trkpt>
      <trkpt lat="45.74517" lon="5.42366">
        <ele>232.5</ele>
        <time>2022-09-25T09:55:34Z</time>
      </trkpt>
      <trkpt lat="45.74512" lon="5.42363">
        <ele>232.6</ele>
        <time>2022-09-25T09:55:35Z</time>
      </trkpt>
      <trkpt lat="45.74507" lon="5.42361">
        <ele>232.6</ele>
        <time>2022-09-25T09:55:36Z</time>
      </trkpt>
      <trkpt lat="45.74503" lon="5.42361">
        <ele>232.7</ele>
        <time>2022-09-25T09:55:37Z</time>
      </trkpt>
      <trkpt lat="45.74497" lon="5.42362">
        <ele>232.7</ele>
        <time>2022-09-25T09:55:38Z</time>
      </trkpt>
      <trkpt lat="45.74493" lon="5.4236">
        <ele>232.8</ele>
        <time>2022-09-25T09:55:39Z</time>
      </trkpt>
      <trkpt lat="45.74489" lon="5.42359">
        <ele>232.8</ele>
        <time>2022-09-25T09:55:40Z</time>
      </trkpt>
      <trkpt lat="45.74484" lon="5.42359">
        <ele>232.8</ele>
        <time>2022-09-25T09:55:41Z</time>
      </trkpt>
      <trkpt lat="45.74478" lon="5.42358">
        <ele>232.8</ele>
        <time>2022-09-25T09:55:42Z</time>
      </trkpt>
      <trkpt lat="45.74473" lon="5.42359">
        <ele>232.8</ele>
        <time>2022-09-25T09:55:43Z</time>
      </trkpt>
      <trkpt lat="45.74468" lon="5.4236">
        <ele>232.8</ele>
        <time>2022-09-25T09:55:44Z</time>
      </trkpt>
      <trkpt lat="45.74462" lon="5.42362">
        <ele>232.8</ele>
        <time>2022-09-25T09:55:45Z</time>
      </trkpt>
      <trkpt lat="45.74456" lon="5.42359">
        <ele>232.7</ele>
        <time>2022-09-25T09:55:46Z</time>
      </trkpt>
      <trkpt lat="45.74449" lon="5.42359">
        <ele>232.7</ele>
        <time>2022-09-25T09:55:47Z</time>
      </trkpt>
      <trkpt lat="45.74442" lon="5.42359">
        <ele>232.7</ele>
        <time>2022-09-25T09:55:48Z</time>
      </trkpt>
      <trkpt lat="45.74437" lon="5.4236">
        <ele>232.7</ele>
        <time>2022-09-25T09:55:49Z</time>
      </trkpt>
      <trkpt lat="45.74431" lon="5.42361">
        <ele>232.7</ele>
        <time>2022-09-25T09:55:50Z</time>
      </trkpt>
      <trkpt lat="45.74427" lon="5.42363">
        <ele>232.8</ele>
        <time>2022-09-25T09:55:51Z</time>
      </trkpt>
      <trkpt lat="45.74424" lon="5.42364">
        <ele>232.8</ele>
        <time>2022-09-25T09:55:52Z</time>
      </trkpt>
      <trkpt lat="45.74418" lon="5.42365">
        <ele>232.8</ele>
        <time>2022-09-25T09:55:53Z</time>
      </trkpt>
      <trkpt lat="45.74415" lon="5.42364">
        <ele>232.8</ele>
        <time>2022-09-25T09:55:54Z</time>
      </trkpt>
      <trkpt lat="45.74411" lon="5.42363">
        <ele>232.9</ele>
        <time>2022-09-25T09:55:55Z</time>
      </trkpt>
      <trkpt lat="45.74407" lon="5.42361">
        <ele>232.9</ele>
        <time>2022-09-25T09:55:56Z</time>
      </trkpt>
      <trkpt lat="45.74401" lon="5.4236">
        <ele>233</ele>
        <time>2022-09-25T09:55:57Z</time>
      </trkpt>
      <trkpt lat="45.74397" lon="5.42358">
        <ele>233</ele>
        <time>2022-09-25T09:55:58Z</time>
      </trkpt>
      <trkpt lat="45.74392" lon="5.42357">
        <ele>233.1</ele>
        <time>2022-09-25T09:55:59Z</time>
      </trkpt>
      <trkpt lat="45.74387" lon="5.42357">
        <ele>233.1</ele>
        <time>2022-09-25T09:56:00Z</time>
      </trkpt>
      <trkpt lat="45.74383" lon="5.42356">
        <ele>233.1</ele>
        <time>2022-09-25T09:56:01Z</time>
      </trkpt>
      <trkpt lat="45.74377" lon="5.42354">
        <ele>233.1</ele>
        <time>2022-09-25T09:56:02Z</time>
      </trkpt>
      <trkpt lat="45.74373" lon="5.42355">
        <ele>233.1</ele>
        <time>2022-09-25T09:56:03Z</time>
      </trkpt>
      <trkpt lat="45.74369" lon="5.42353">
        <ele>233.2</ele>
        <time>2022-09-25T09:56:04Z</time>
      </trkpt>
      <trkpt lat="45.74363" lon="5.42353">
        <ele>233.2</ele>
        <time>2022-09-25T09:56:05Z</time>
      </trkpt>
      <trkpt lat="45.74357" lon="5.42353">
        <ele>233.2</ele>
        <time>2022-09-25T09:56:06Z</time>
      </trkpt>
      <trkpt lat="45.74352" lon="5.42351">
        <ele>233.2</ele>
        <time>2022-09-25T09:56:07Z</time>
      </trkpt>
      <trkpt lat="45.74347" lon="5.4235">
        <ele>233.2</ele>
        <time>2022-09-25T09:56:08Z</time>
      </trkpt>
      <trkpt lat="45.74343" lon="5.4235">
        <ele>233.3</ele>
        <time>2022-09-25T09:56:09Z</time>
      </trkpt>
      <trkpt lat="45.74337" lon="5.42349">
        <ele>233.3</ele>
        <time>2022-09-25T09:56:10Z</time>
      </trkpt>
      <trkpt lat="45.74331" lon="5.42348">
        <ele>233.3</ele>
        <time>2022-09-25T09:56:11Z</time>
      </trkpt>
      <trkpt lat="45.74324" lon="5.42345">
        <ele>233.4</ele>
        <time>2022-09-25T09:56:12Z</time>
      </trkpt>
      <trkpt lat="45.7432" lon="5.42344">
        <ele>233.4</ele>
        <time>2022-09-25T09:56:13Z</time>
      </trkpt>
      <trkpt lat="45.74315" lon="5.42344">
        <ele>233.4</ele>
        <time>2022-09-25T09:56:14Z</time>
      </trkpt>
      <trkpt lat="45.7431" lon="5.42344">
        <ele>233.4</ele>
        <time>2022-09-25T09:56:15Z</time>
      </trkpt>
      <trkpt lat="45.74302" lon="5.42341">
        <ele>233.5</ele>
        <time>2022-09-25T09:56:16Z</time>
      </trkpt>
      <trkpt lat="45.74297" lon="5.42339">
        <ele>233.5</ele>
        <time>2022-09-25T09:56:17Z</time>
      </trkpt>
      <trkpt lat="45.74292" lon="5.42338">
        <ele>233.5</ele>
        <time>2022-09-25T09:56:18Z</time>
      </trkpt>
      <trkpt lat="45.74287" lon="5.42337">
        <ele>233.5</ele>
        <time>2022-09-25T09:56:19Z</time>
      </trkpt>
      <trkpt lat="45.74282" lon="5.42337">
        <ele>233.6</ele>
        <time>2022-09-25T09:56:20Z</time>
      </trkpt>
      <trkpt lat="45.74276" lon="5.42336">
        <ele>233.6</ele>
        <time>2022-09-25T09:56:21Z</time>
      </trkpt>
      <trkpt lat="45.7427" lon="5.42334">
        <ele>233.7</ele>
        <time>2022-09-25T09:56:22Z</time>
      </trkpt>
      <trkpt lat="45.74264" lon="5.42333">
        <ele>233.8</ele>
        <time>2022-09-25T09:56:23Z</time>
      </trkpt>
      <trkpt lat="45.74261" lon="5.42332">
        <ele>233.8</ele>
        <time>2022-09-25T09:56:24Z</time>
      </trkpt>
      <trkpt lat="45.74256" lon="5.42331">
        <ele>233.8</ele>
        <time>2022-09-25T09:56:25Z</time>
      </trkpt>
      <trkpt lat="45.74252" lon="5.42332">
        <ele>233.9</ele>
        <time>2022-09-25T09:56:26Z</time>
      </trkpt>
      <trkpt lat="45.74247" lon="5.42331">
        <ele>233.9</ele>
        <time>2022-09-25T09:56:27Z</time>
      </trkpt>
      <trkpt lat="45.74243" lon="5.42328">
        <ele>233.9</ele>
        <time>2022-09-25T09:56:28Z</time>
      </trkpt>
      <trkpt lat="45.74237" lon="5.42326">
        <ele>233.8</ele>
        <time>2022-09-25T09:56:29Z</time>
      </trkpt>
      <trkpt lat="45.7423" lon="5.42325">
        <ele>233.7</ele>
        <time>2022-09-25T09:56:30Z</time>
      </trkpt>
      <trkpt lat="45.74224" lon="5.42323">
        <ele>233.6</ele>
        <time>2022-09-25T09:56:31Z</time>
      </trkpt>
      <trkpt lat="45.74217" lon="5.42322">
        <ele>233.6</ele>
        <time>2022-09-25T09:56:32Z</time>
      </trkpt>
      <trkpt lat="45.74211" lon="5.4232">
        <ele>233.6</ele>
        <time>2022-09-25T09:56:33Z</time>
      </trkpt>
      <trkpt lat="45.74204" lon="5.42317">
        <ele>233.6</ele>
        <time>2022-09-25T09:56:34Z</time>
      </trkpt>
      <trkpt lat="45.74198" lon="5.42317">
        <ele>233.6</ele>
        <time>2022-09-25T09:56:35Z</time>
      </trkpt>
      <trkpt lat="45.74191" lon="5.42314">
        <ele>233.6</ele>
        <time>2022-09-25T09:56:36Z</time>
      </trkpt>
      <trkpt lat="45.74185" lon="5.42313">
        <ele>233.7</ele>
        <time>2022-09-25T09:56:37Z</time>
      </trkpt>
      <trkpt lat="45.74179" lon="5.42311">
        <ele>233.6</ele>
        <time>2022-09-25T09:56:38Z</time>
      </trkpt>
      <trkpt lat="45.74173" lon="5.42309">
        <ele>233.6</ele>
        <time>2022-09-25T09:56:39Z</time>
      </trkpt>
      <trkpt lat="45.74167" lon="5.42308">
        <ele>233.6</ele>
        <time>2022-09-25T09:56:40Z</time>
      </trkpt>
      <trkpt lat="45.74161" lon="5.42307">
        <ele>233.6</ele>
        <time>2022-09-25T09:56:41Z</time>
      </trkpt>
      <trkpt lat="45.74156" lon="5.42304">
        <ele>233.7</ele>
        <time>2022-09-25T09:56:42Z</time>
      </trkpt>
      <trkpt lat="45.7415" lon="5.42303">
        <ele>233.7</ele>
        <time>2022-09-25T09:56:43Z</time>
      </trkpt>
      <trkpt lat="45.74144" lon="5.42301">
        <ele>233.7</ele>
        <time>2022-09-25T09:56:44Z</time>
      </trkpt>
      <trkpt lat="45.74138" lon="5.423">
        <ele>233.7</ele>
        <time>2022-09-25T09:56:45Z</time>
      </trkpt>
      <trkpt lat="45.74132" lon="5.42299">
        <ele>233.7</ele>
        <time>2022-09-25T09:56:46Z</time>
      </trkpt>
      <trkpt lat="45.74127" lon="5.42297">
        <ele>233.7</ele>
        <time>2022-09-25T09:56:47Z</time>
      </trkpt>
      <trkpt lat="45.74121" lon="5.42296">
        <ele>233.7</ele>
        <time>2022-09-25T09:56:48Z</time>
      </trkpt>
      <trkpt lat="45.74116" lon="5.42294">
        <ele>233.7</ele>
        <time>2022-09-25T09:56:49Z</time>
      </trkpt>
      <trkpt lat="45.7411" lon="5.42293">
        <ele>233.7</ele>
        <time>2022-09-25T09:56:50Z</time>
      </trkpt>
      <trkpt lat="45.74104" lon="5.42291">
        <ele>233.7</ele>
        <time>2022-09-25T09:56:51Z</time>
      </trkpt>
      <trkpt lat="45.74099" lon="5.4229">
        <ele>233.7</ele>
        <time>2022-09-25T09:56:52Z</time>
      </trkpt>
      <trkpt lat="45.74093" lon="5.42289">
        <ele>233.7</ele>
        <time>2022-09-25T09:56:53Z</time>
      </trkpt>
      <trkpt lat="45.74088" lon="5.42288">
        <ele>233.6</ele>
        <time>2022-09-25T09:56:54Z</time>
      </trkpt>
      <trkpt lat="45.74082" lon="5.42286">
        <ele>233.6</ele>
        <time>2022-09-25T09:56:55Z</time>
      </trkpt>
      <trkpt lat="45.74075" lon="5.42285">
        <ele>233.6</ele>
        <time>2022-09-25T09:56:56Z</time>
      </trkpt>
      <trkpt lat="45.7407" lon="5.42284">
        <ele>233.6</ele>
        <time>2022-09-25T09:56:57Z</time>
      </trkpt>
      <trkpt lat="45.74064" lon="5.42282">
        <ele>233.6</ele>
        <time>2022-09-25T09:56:58Z</time>
      </trkpt>
      <trkpt lat="45.74058" lon="5.42281">
        <ele>233.6</ele>
        <time>2022-09-25T09:56:59Z</time>
      </trkpt>
      <trkpt lat="45.74053" lon="5.4228">
        <ele>233.6</ele>
        <time>2022-09-25T09:57:00Z</time>
      </trkpt>
      <trkpt lat="45.74047" lon="5.42279">
        <ele>233.6</ele>
        <time>2022-09-25T09:57:01Z</time>
      </trkpt>
      <trkpt lat="45.74041" lon="5.42277">
        <ele>233.7</ele>
        <time>2022-09-25T09:57:02Z</time>
      </trkpt>
      <trkpt lat="45.74035" lon="5.42275">
        <ele>233.7</ele>
        <time>2022-09-25T09:57:03Z</time>
      </trkpt>
      <trkpt lat="45.7403" lon="5.42274">
        <ele>233.7</ele>
        <time>2022-09-25T09:57:04Z</time>
      </trkpt>
      <trkpt lat="45.74024" lon="5.42272">
        <ele>233.7</ele>
        <time>2022-09-25T09:57:05Z</time>
      </trkpt>
      <trkpt lat="45.74018" lon="5.42271">
        <ele>233.7</ele>
        <time>2022-09-25T09:57:06Z</time>
      </trkpt>
      <trkpt lat="45.74012" lon="5.42269">
        <ele>233.7</ele>
        <time>2022-09-25T09:57:07Z</time>
      </trkpt>
      <trkpt lat="45.74006" lon="5.42268">
        <ele>233.7</ele>
        <time>2022-09-25T09:57:08Z</time>
      </trkpt>
      <trkpt lat="45.74" lon="5.42266">
        <ele>233.7</ele>
        <time>2022-09-25T09:57:09Z</time>
      </trkpt>
      <trkpt lat="45.73994" lon="5.42265">
        <ele>233.7</ele>
        <time>2022-09-25T09:57:10Z</time>
      </trkpt>
      <trkpt lat="45.73988" lon="5.42263">
        <ele>233.7</ele>
        <time>2022-09-25T09:57:11Z</time>
      </trkpt>
      <trkpt lat="45.73981" lon="5.42263">
        <ele>233.8</ele>
        <time>2022-09-25T09:57:12Z</time>
      </trkpt>
      <trkpt lat="45.73976" lon="5.42262">
        <ele>233.8</ele>
        <time>2022-09-25T09:57:13Z</time>
      </trkpt>
      <trkpt lat="45.7397" lon="5.4226">
        <ele>233.8</ele>
        <time>2022-09-25T09:57:14Z</time>
      </trkpt>
      <trkpt lat="45.73964" lon="5.42259">
        <ele>233.8</ele>
        <time>2022-09-25T09:57:15Z</time>
      </trkpt>
      <trkpt lat="45.73958" lon="5.42259">
        <ele>233.8</ele>
        <time>2022-09-25T09:57:16Z</time>
      </trkpt>
      <trkpt lat="45.73952" lon="5.42257">
        <ele>233.8</ele>
        <time>2022-09-25T09:57:17Z</time>
      </trkpt>
      <trkpt lat="45.73945" lon="5.42255">
        <ele>233.8</ele>
        <time>2022-09-25T09:57:18Z</time>
      </trkpt>
      <trkpt lat="45.7394" lon="5.42253">
        <ele>233.8</ele>
        <time>2022-09-25T09:57:19Z</time>
      </trkpt>
      <trkpt lat="45.73934" lon="5.42253">
        <ele>233.8</ele>
        <time>2022-09-25T09:57:20Z</time>
      </trkpt>
      <trkpt lat="45.73928" lon="5.42252">
        <ele>233.8</ele>
        <time>2022-09-25T09:57:21Z</time>
      </trkpt>
      <trkpt lat="45.73923" lon="5.4225">
        <ele>233.7</ele>
        <time>2022-09-25T09:57:22Z</time>
      </trkpt>
      <trkpt lat="45.73917" lon="5.42248">
        <ele>233.7</ele>
        <time>2022-09-25T09:57:23Z</time>
      </trkpt>
      <trkpt lat="45.73911" lon="5.42247">
        <ele>233.7</ele>
        <time>2022-09-25T09:57:24Z</time>
      </trkpt>
      <trkpt lat="45.73905" lon="5.42246">
        <ele>233.7</ele>
        <time>2022-09-25T09:57:25Z</time>
      </trkpt>
      <trkpt lat="45.73899" lon="5.42243">
        <ele>233.7</ele>
        <time>2022-09-25T09:57:26Z</time>
      </trkpt>
      <trkpt lat="45.73893" lon="5.42242">
        <ele>233.7</ele>
        <time>2022-09-25T09:57:27Z</time>
      </trkpt>
      <trkpt lat="45.73887" lon="5.42241">
        <ele>233.6</ele>
        <time>2022-09-25T09:57:28Z</time>
      </trkpt>
      <trkpt lat="45.73881" lon="5.4224">
        <ele>233.6</ele>
        <time>2022-09-25T09:57:29Z</time>
      </trkpt>
      <trkpt lat="45.73875" lon="5.42239">
        <ele>233.6</ele>
        <time>2022-09-25T09:57:30Z</time>
      </trkpt>
      <trkpt lat="45.7387" lon="5.42239">
        <ele>233.6</ele>
        <time>2022-09-25T09:57:31Z</time>
      </trkpt>
      <trkpt lat="45.73863" lon="5.42238">
        <ele>233.6</ele>
        <time>2022-09-25T09:57:32Z</time>
      </trkpt>
      <trkpt lat="45.73858" lon="5.42235">
        <ele>233.6</ele>
        <time>2022-09-25T09:57:33Z</time>
      </trkpt>
      <trkpt lat="45.73852" lon="5.42235">
        <ele>233.6</ele>
        <time>2022-09-25T09:57:34Z</time>
      </trkpt>
      <trkpt lat="45.73846" lon="5.42234">
        <ele>233.6</ele>
        <time>2022-09-25T09:57:35Z</time>
      </trkpt>
      <trkpt lat="45.73841" lon="5.42232">
        <ele>233.6</ele>
        <time>2022-09-25T09:57:36Z</time>
      </trkpt>
      <trkpt lat="45.73835" lon="5.42231">
        <ele>233.6</ele>
        <time>2022-09-25T09:57:37Z</time>
      </trkpt>
      <trkpt lat="45.73829" lon="5.4223">
        <ele>233.6</ele>
        <time>2022-09-25T09:57:38Z</time>
      </trkpt>
      <trkpt lat="45.73823" lon="5.42229">
        <ele>233.6</ele>
        <time>2022-09-25T09:57:39Z</time>
      </trkpt>
      <trkpt lat="45.73818" lon="5.42227">
        <ele>233.6</ele>
        <time>2022-09-25T09:57:40Z</time>
      </trkpt>
      <trkpt lat="45.73813" lon="5.42226">
        <ele>233.6</ele>
        <time>2022-09-25T09:57:41Z</time>
      </trkpt>
      <trkpt lat="45.73807" lon="5.42227">
        <ele>233.6</ele>
        <time>2022-09-25T09:57:42Z</time>
      </trkpt>
      <trkpt lat="45.73801" lon="5.42225">
        <ele>233.6</ele>
        <time>2022-09-25T09:57:43Z</time>
      </trkpt>
      <trkpt lat="45.73795" lon="5.42224">
        <ele>233.6</ele>
        <time>2022-09-25T09:57:44Z</time>
      </trkpt>
      <trkpt lat="45.73789" lon="5.42222">
        <ele>233.6</ele>
        <time>2022-09-25T09:57:45Z</time>
      </trkpt>
      <trkpt lat="45.73784" lon="5.42221">
        <ele>233.6</ele>
        <time>2022-09-25T09:57:46Z</time>
      </trkpt>
      <trkpt lat="45.73778" lon="5.4222">
        <ele>233.6</ele>
        <time>2022-09-25T09:57:47Z</time>
      </trkpt>
      <trkpt lat="45.73772" lon="5.42218">
        <ele>233.6</ele>
        <time>2022-09-25T09:57:48Z</time>
      </trkpt>
      <trkpt lat="45.73767" lon="5.42218">
        <ele>233.6</ele>
        <time>2022-09-25T09:57:49Z</time>
      </trkpt>
      <trkpt lat="45.73762" lon="5.42217">
        <ele>233.6</ele>
        <time>2022-09-25T09:57:50Z</time>
      </trkpt>
      <trkpt lat="45.73757" lon="5.42218">
        <ele>233.6</ele>
        <time>2022-09-25T09:57:51Z</time>
      </trkpt>
      <trkpt lat="45.73753" lon="5.42216">
        <ele>233.6</ele>
        <time>2022-09-25T09:57:52Z</time>
      </trkpt>
      <trkpt lat="45.7375" lon="5.42216">
        <ele>233.7</ele>
        <time>2022-09-25T09:57:53Z</time>
      </trkpt>
      <trkpt lat="45.73745" lon="5.42213">
        <ele>233.7</ele>
        <time>2022-09-25T09:57:54Z</time>
      </trkpt>
      <trkpt lat="45.7374" lon="5.42212">
        <ele>233.7</ele>
        <time>2022-09-25T09:57:55Z</time>
      </trkpt>
      <trkpt lat="45.73734" lon="5.42212">
        <ele>233.7</ele>
        <time>2022-09-25T09:57:56Z</time>
      </trkpt>
      <trkpt lat="45.7373" lon="5.42211">
        <ele>233.7</ele>
        <time>2022-09-25T09:57:57Z</time>
      </trkpt>
      <trkpt lat="45.73723" lon="5.42212">
        <ele>233.7</ele>
        <time>2022-09-25T09:57:58Z</time>
      </trkpt>
      <trkpt lat="45.73716" lon="5.42209">
        <ele>233.7</ele>
        <time>2022-09-25T09:57:59Z</time>
      </trkpt>
      <trkpt lat="45.73713" lon="5.42207">
        <ele>233.7</ele>
        <time>2022-09-25T09:58:00Z</time>
      </trkpt>
      <trkpt lat="45.73706" lon="5.42206">
        <ele>233.6</ele>
        <time>2022-09-25T09:58:01Z</time>
      </trkpt>
      <trkpt lat="45.737" lon="5.42205">
        <ele>233.6</ele>
        <time>2022-09-25T09:58:02Z</time>
      </trkpt>
      <trkpt lat="45.73695" lon="5.42204">
        <ele>233.6</ele>
        <time>2022-09-25T09:58:03Z</time>
      </trkpt>
      <trkpt lat="45.7369" lon="5.42204">
        <ele>233.6</ele>
        <time>2022-09-25T09:58:04Z</time>
      </trkpt>
      <trkpt lat="45.73684" lon="5.42204">
        <ele>233.6</ele>
        <time>2022-09-25T09:58:05Z</time>
      </trkpt>
      <trkpt lat="45.73677" lon="5.42202">
        <ele>233.5</ele>
        <time>2022-09-25T09:58:06Z</time>
      </trkpt>
      <trkpt lat="45.73672" lon="5.42202">
        <ele>233.5</ele>
        <time>2022-09-25T09:58:07Z</time>
      </trkpt>
      <trkpt lat="45.73667" lon="5.42201">
        <ele>233.5</ele>
        <time>2022-09-25T09:58:08Z</time>
      </trkpt>
      <trkpt lat="45.73662" lon="5.422">
        <ele>233.5</ele>
        <time>2022-09-25T09:58:09Z</time>
      </trkpt>
      <trkpt lat="45.73657" lon="5.42201">
        <ele>233.5</ele>
        <time>2022-09-25T09:58:10Z</time>
      </trkpt>
      <trkpt lat="45.73652" lon="5.422">
        <ele>233.5</ele>
        <time>2022-09-25T09:58:11Z</time>
      </trkpt>
      <trkpt lat="45.73645" lon="5.42201">
        <ele>233.5</ele>
        <time>2022-09-25T09:58:12Z</time>
      </trkpt>
      <trkpt lat="45.73639" lon="5.422">
        <ele>233.5</ele>
        <time>2022-09-25T09:58:13Z</time>
      </trkpt>
      <trkpt lat="45.73633" lon="5.42201">
        <ele>233.5</ele>
        <time>2022-09-25T09:58:14Z</time>
      </trkpt>
      <trkpt lat="45.73629" lon="5.422">
        <ele>233.6</ele>
        <time>2022-09-25T09:58:15Z</time>
      </trkpt>
      <trkpt lat="45.73624" lon="5.42202">
        <ele>233.6</ele>
        <time>2022-09-25T09:58:16Z</time>
      </trkpt>
      <trkpt lat="45.73619" lon="5.42204">
        <ele>233.6</ele>
        <time>2022-09-25T09:58:17Z</time>
      </trkpt>
      <trkpt lat="45.73613" lon="5.42205">
        <ele>233.6</ele>
        <time>2022-09-25T09:58:18Z</time>
      </trkpt>
      <trkpt lat="45.73608" lon="5.42205">
        <ele>233.7</ele>
        <time>2022-09-25T09:58:19Z</time>
      </trkpt>
      <trkpt lat="45.73603" lon="5.42204">
        <ele>233.7</ele>
        <time>2022-09-25T09:58:20Z</time>
      </trkpt>
      <trkpt lat="45.73599" lon="5.42206">
        <ele>233.7</ele>
        <time>2022-09-25T09:58:21Z</time>
      </trkpt>
      <trkpt lat="45.73595" lon="5.42207">
        <ele>233.8</ele>
        <time>2022-09-25T09:58:22Z</time>
      </trkpt>
      <trkpt lat="45.73589" lon="5.42208">
        <ele>233.8</ele>
        <time>2022-09-25T09:58:23Z</time>
      </trkpt>
      <trkpt lat="45.73584" lon="5.42209">
        <ele>233.8</ele>
        <time>2022-09-25T09:58:24Z</time>
      </trkpt>
      <trkpt lat="45.73579" lon="5.4221">
        <ele>233.9</ele>
        <time>2022-09-25T09:58:25Z</time>
      </trkpt>
      <trkpt lat="45.73573" lon="5.42211">
        <ele>233.9</ele>
        <time>2022-09-25T09:58:26Z</time>
      </trkpt>
      <trkpt lat="45.73568" lon="5.42214">
        <ele>233.9</ele>
        <time>2022-09-25T09:58:27Z</time>
      </trkpt>
      <trkpt lat="45.73562" lon="5.42215">
        <ele>233.9</ele>
        <time>2022-09-25T09:58:28Z</time>
      </trkpt>
      <trkpt lat="45.73556" lon="5.42216">
        <ele>234</ele>
        <time>2022-09-25T09:58:29Z</time>
      </trkpt>
      <trkpt lat="45.73551" lon="5.42217">
        <ele>234</ele>
        <time>2022-09-25T09:58:30Z</time>
      </trkpt>
      <trkpt lat="45.73546" lon="5.42219">
        <ele>233.9</ele>
        <time>2022-09-25T09:58:31Z</time>
      </trkpt>
      <trkpt lat="45.7354" lon="5.42219">
        <ele>233.9</ele>
        <time>2022-09-25T09:58:32Z</time>
      </trkpt>
      <trkpt lat="45.73534" lon="5.42222">
        <ele>233.9</ele>
        <time>2022-09-25T09:58:33Z</time>
      </trkpt>
      <trkpt lat="45.73529" lon="5.42223">
        <ele>233.9</ele>
        <time>2022-09-25T09:58:34Z</time>
      </trkpt>
      <trkpt lat="45.73522" lon="5.42226">
        <ele>233.9</ele>
        <time>2022-09-25T09:58:35Z</time>
      </trkpt>
      <trkpt lat="45.73516" lon="5.42229">
        <ele>233.8</ele>
        <time>2022-09-25T09:58:36Z</time>
      </trkpt>
      <trkpt lat="45.7351" lon="5.42232">
        <ele>233.8</ele>
        <time>2022-09-25T09:58:37Z</time>
      </trkpt>
      <trkpt lat="45.73504" lon="5.42232">
        <ele>233.7</ele>
        <time>2022-09-25T09:58:38Z</time>
      </trkpt>
      <trkpt lat="45.735" lon="5.42235">
        <ele>233.7</ele>
        <time>2022-09-25T09:58:39Z</time>
      </trkpt>
      <trkpt lat="45.73494" lon="5.42238">
        <ele>233.6</ele>
        <time>2022-09-25T09:58:40Z</time>
      </trkpt>
      <trkpt lat="45.73488" lon="5.4224">
        <ele>233.5</ele>
        <time>2022-09-25T09:58:41Z</time>
      </trkpt>
      <trkpt lat="45.73482" lon="5.42242">
        <ele>233.5</ele>
        <time>2022-09-25T09:58:42Z</time>
      </trkpt>
      <trkpt lat="45.73476" lon="5.42244">
        <ele>233.4</ele>
        <time>2022-09-25T09:58:43Z</time>
      </trkpt>
      <trkpt lat="45.73471" lon="5.42248">
        <ele>233.4</ele>
        <time>2022-09-25T09:58:44Z</time>
      </trkpt>
      <trkpt lat="45.73465" lon="5.42249">
        <ele>233.3</ele>
        <time>2022-09-25T09:58:45Z</time>
      </trkpt>
      <trkpt lat="45.73459" lon="5.42253">
        <ele>233.3</ele>
        <time>2022-09-25T09:58:46Z</time>
      </trkpt>
      <trkpt lat="45.73452" lon="5.42257">
        <ele>233.2</ele>
        <time>2022-09-25T09:58:47Z</time>
      </trkpt>
      <trkpt lat="45.73445" lon="5.4226">
        <ele>233.2</ele>
        <time>2022-09-25T09:58:48Z</time>
      </trkpt>
      <trkpt lat="45.7344" lon="5.42263">
        <ele>233.2</ele>
        <time>2022-09-25T09:58:49Z</time>
      </trkpt>
      <trkpt lat="45.73434" lon="5.42267">
        <ele>233.1</ele>
        <time>2022-09-25T09:58:50Z</time>
      </trkpt>
      <trkpt lat="45.73429" lon="5.4227">
        <ele>233.1</ele>
        <time>2022-09-25T09:58:51Z</time>
      </trkpt>
      <trkpt lat="45.73423" lon="5.42275">
        <ele>233.1</ele>
        <time>2022-09-25T09:58:52Z</time>
      </trkpt>
      <trkpt lat="45.73417" lon="5.4228">
        <ele>233.1</ele>
        <time>2022-09-25T09:58:53Z</time>
      </trkpt>
      <trkpt lat="45.73412" lon="5.42283">
        <ele>233.2</ele>
        <time>2022-09-25T09:58:54Z</time>
      </trkpt>
      <trkpt lat="45.73408" lon="5.42286">
        <ele>233.2</ele>
        <time>2022-09-25T09:58:55Z</time>
      </trkpt>
      <trkpt lat="45.73402" lon="5.42291">
        <ele>233.2</ele>
        <time>2022-09-25T09:58:56Z</time>
      </trkpt>
      <trkpt lat="45.73398" lon="5.42296">
        <ele>233.2</ele>
        <time>2022-09-25T09:58:57Z</time>
      </trkpt>
      <trkpt lat="45.73392" lon="5.42302">
        <ele>233.2</ele>
        <time>2022-09-25T09:58:58Z</time>
      </trkpt>
      <trkpt lat="45.73387" lon="5.42305">
        <ele>233.2</ele>
        <time>2022-09-25T09:58:59Z</time>
      </trkpt>
      <trkpt lat="45.73381" lon="5.4231">
        <ele>233.1</ele>
        <time>2022-09-25T09:59:00Z</time>
      </trkpt>
      <trkpt lat="45.73376" lon="5.42314">
        <ele>233.1</ele>
        <time>2022-09-25T09:59:01Z</time>
      </trkpt>
      <trkpt lat="45.7337" lon="5.4232">
        <ele>233.1</ele>
        <time>2022-09-25T09:59:02Z</time>
      </trkpt>
      <trkpt lat="45.73365" lon="5.42326">
        <ele>233.1</ele>
        <time>2022-09-25T09:59:03Z</time>
      </trkpt>
      <trkpt lat="45.7336" lon="5.42332">
        <ele>233.1</ele>
        <time>2022-09-25T09:59:04Z</time>
      </trkpt>
      <trkpt lat="45.73356" lon="5.42337">
        <ele>233.1</ele>
        <time>2022-09-25T09:59:05Z</time>
      </trkpt>
      <trkpt lat="45.73351" lon="5.42344">
        <ele>233.1</ele>
        <time>2022-09-25T09:59:06Z</time>
      </trkpt>
      <trkpt lat="45.73345" lon="5.42349">
        <ele>233</ele>
        <time>2022-09-25T09:59:07Z</time>
      </trkpt>
      <trkpt lat="45.73341" lon="5.42356">
        <ele>233</ele>
        <time>2022-09-25T09:59:08Z</time>
      </trkpt>
      <trkpt lat="45.73337" lon="5.4236">
        <ele>233</ele>
        <time>2022-09-25T09:59:09Z</time>
      </trkpt>
      <trkpt lat="45.73332" lon="5.42367">
        <ele>233</ele>
        <time>2022-09-25T09:59:10Z</time>
      </trkpt>
      <trkpt lat="45.73327" lon="5.42373">
        <ele>233</ele>
        <time>2022-09-25T09:59:11Z</time>
      </trkpt>
      <trkpt lat="45.73322" lon="5.4238">
        <ele>233.1</ele>
        <time>2022-09-25T09:59:12Z</time>
      </trkpt>
      <trkpt lat="45.73318" lon="5.42386">
        <ele>233.1</ele>
        <time>2022-09-25T09:59:13Z</time>
      </trkpt>
      <trkpt lat="45.73314" lon="5.42393">
        <ele>233</ele>
        <time>2022-09-25T09:59:14Z</time>
      </trkpt>
      <trkpt lat="45.73308" lon="5.42398">
        <ele>233</ele>
        <time>2022-09-25T09:59:15Z</time>
      </trkpt>
      <trkpt lat="45.73304" lon="5.42404">
        <ele>233</ele>
        <time>2022-09-25T09:59:16Z</time>
      </trkpt>
      <trkpt lat="45.73299" lon="5.42411">
        <ele>233</ele>
        <time>2022-09-25T09:59:17Z</time>
      </trkpt>
      <trkpt lat="45.73295" lon="5.42417">
        <ele>233.1</ele>
        <time>2022-09-25T09:59:18Z</time>
      </trkpt>
      <trkpt lat="45.7329" lon="5.42423">
        <ele>233.1</ele>
        <time>2022-09-25T09:59:19Z</time>
      </trkpt>
      <trkpt lat="45.73286" lon="5.42429">
        <ele>233.2</ele>
        <time>2022-09-25T09:59:20Z</time>
      </trkpt>
      <trkpt lat="45.73281" lon="5.42434">
        <ele>233.3</ele>
        <time>2022-09-25T09:59:21Z</time>
      </trkpt>
      <trkpt lat="45.73277" lon="5.42439">
        <ele>233.4</ele>
        <time>2022-09-25T09:59:22Z</time>
      </trkpt>
      <trkpt lat="45.73273" lon="5.42445">
        <ele>233.5</ele>
        <time>2022-09-25T09:59:23Z</time>
      </trkpt>
      <trkpt lat="45.7327" lon="5.42449">
        <ele>233.5</ele>
        <time>2022-09-25T09:59:24Z</time>
      </trkpt>
      <trkpt lat="45.73266" lon="5.42455">
        <ele>233.6</ele>
        <time>2022-09-25T09:59:25Z</time>
      </trkpt>
      <trkpt lat="45.73262" lon="5.42459">
        <ele>233.7</ele>
        <time>2022-09-25T09:59:26Z</time>
      </trkpt>
      <trkpt lat="45.7326" lon="5.42465">
        <ele>233.7</ele>
        <time>2022-09-25T09:59:27Z</time>
      </trkpt>
      <trkpt lat="45.73256" lon="5.42468">
        <ele>233.7</ele>
        <time>2022-09-25T09:59:28Z</time>
      </trkpt>
      <trkpt lat="45.73252" lon="5.42472">
        <ele>233.7</ele>
        <time>2022-09-25T09:59:29Z</time>
      </trkpt>
      <trkpt lat="45.73249" lon="5.42477">
        <ele>233.7</ele>
        <time>2022-09-25T09:59:30Z</time>
      </trkpt>
      <trkpt lat="45.73245" lon="5.42482">
        <ele>233.7</ele>
        <time>2022-09-25T09:59:31Z</time>
      </trkpt>
      <trkpt lat="45.73241" lon="5.42488">
        <ele>233.7</ele>
        <time>2022-09-25T09:59:32Z</time>
      </trkpt>
      <trkpt lat="45.73235" lon="5.42494">
        <ele>233.6</ele>
        <time>2022-09-25T09:59:33Z</time>
      </trkpt>
      <trkpt lat="45.73231" lon="5.42498">
        <ele>233.6</ele>
        <time>2022-09-25T09:59:34Z</time>
      </trkpt>
      <trkpt lat="45.73226" lon="5.42503">
        <ele>233.6</ele>
        <time>2022-09-25T09:59:35Z</time>
      </trkpt>
      <trkpt lat="45.73223" lon="5.42506">
        <ele>233.5</ele>
        <time>2022-09-25T09:59:36Z</time>
      </trkpt>
      <trkpt lat="45.73218" lon="5.42512">
        <ele>233.5</ele>
        <time>2022-09-25T09:59:37Z</time>
      </trkpt>
      <trkpt lat="45.73214" lon="5.42518">
        <ele>233.5</ele>
        <time>2022-09-25T09:59:38Z</time>
      </trkpt>
      <trkpt lat="45.7321" lon="5.42522">
        <ele>233.5</ele>
        <time>2022-09-25T09:59:39Z</time>
      </trkpt>
      <trkpt lat="45.73205" lon="5.42525">
        <ele>233.5</ele>
        <time>2022-09-25T09:59:40Z</time>
      </trkpt>
      <trkpt lat="45.73202" lon="5.42529">
        <ele>233.5</ele>
        <time>2022-09-25T09:59:41Z</time>
      </trkpt>
      <trkpt lat="45.73198" lon="5.42533">
        <ele>233.5</ele>
        <time>2022-09-25T09:59:42Z</time>
      </trkpt>
      <trkpt lat="45.73194" lon="5.42538">
        <ele>233.5</ele>
        <time>2022-09-25T09:59:43Z</time>
      </trkpt>
      <trkpt lat="45.73189" lon="5.42542">
        <ele>233.5</ele>
        <time>2022-09-25T09:59:44Z</time>
      </trkpt>
      <trkpt lat="45.73186" lon="5.42544">
        <ele>233.5</ele>
        <time>2022-09-25T09:59:45Z</time>
      </trkpt>
      <trkpt lat="45.73182" lon="5.42547">
        <ele>233.5</ele>
        <time>2022-09-25T09:59:46Z</time>
      </trkpt>
      <trkpt lat="45.73179" lon="5.4255">
        <ele>233.5</ele>
        <time>2022-09-25T09:59:47Z</time>
      </trkpt>
      <trkpt lat="45.73173" lon="5.42555">
        <ele>233.5</ele>
        <time>2022-09-25T09:59:48Z</time>
      </trkpt>
      <trkpt lat="45.73169" lon="5.42559">
        <ele>233.5</ele>
        <time>2022-09-25T09:59:49Z</time>
      </trkpt>
      <trkpt lat="45.73164" lon="5.42563">
        <ele>233.5</ele>
        <time>2022-09-25T09:59:50Z</time>
      </trkpt>
      <trkpt lat="45.73159" lon="5.42567">
        <ele>233.5</ele>
        <time>2022-09-25T09:59:51Z</time>
      </trkpt>
      <trkpt lat="45.73155" lon="5.4257">
        <ele>233.5</ele>
        <time>2022-09-25T09:59:52Z</time>
      </trkpt>
      <trkpt lat="45.7315" lon="5.42572">
        <ele>233.5</ele>
        <time>2022-09-25T09:59:53Z</time>
      </trkpt>
      <trkpt lat="45.73145" lon="5.42577">
        <ele>233.5</ele>
        <time>2022-09-25T09:59:54Z</time>
      </trkpt>
      <trkpt lat="45.73141" lon="5.4258">
        <ele>233.4</ele>
        <time>2022-09-25T09:59:55Z</time>
      </trkpt>
      <trkpt lat="45.73137" lon="5.42583">
        <ele>233.4</ele>
        <time>2022-09-25T09:59:56Z</time>
      </trkpt>
      <trkpt lat="45.73131" lon="5.42586">
        <ele>233.4</ele>
        <time>2022-09-25T09:59:57Z</time>
      </trkpt>
      <trkpt lat="45.73128" lon="5.42588">
        <ele>233.4</ele>
        <time>2022-09-25T09:59:58Z</time>
      </trkpt>
      <trkpt lat="45.73124" lon="5.42591">
        <ele>233.4</ele>
        <time>2022-09-25T09:59:59Z</time>
      </trkpt>
      <trkpt lat="45.73119" lon="5.42594">
        <ele>233.3</ele>
        <time>2022-09-25T10:00:00Z</time>
      </trkpt>
      <trkpt lat="45.73113" lon="5.42597">
        <ele>233.3</ele>
        <time>2022-09-25T10:00:01Z</time>
      </trkpt>
      <trkpt lat="45.73108" lon="5.426">
        <ele>233.3</ele>
        <time>2022-09-25T10:00:02Z</time>
      </trkpt>
      <trkpt lat="45.73101" lon="5.42602">
        <ele>233.2</ele>
        <time>2022-09-25T10:00:03Z</time>
      </trkpt>
      <trkpt lat="45.73096" lon="5.42604">
        <ele>233.2</ele>
        <time>2022-09-25T10:00:04Z</time>
      </trkpt>
      <trkpt lat="45.73092" lon="5.42607">
        <ele>233.2</ele>
        <time>2022-09-25T10:00:05Z</time>
      </trkpt>
      <trkpt lat="45.73087" lon="5.4261">
        <ele>233.2</ele>
        <time>2022-09-25T10:00:06Z</time>
      </trkpt>
      <trkpt lat="45.73083" lon="5.42613">
        <ele>233.2</ele>
        <time>2022-09-25T10:00:07Z</time>
      </trkpt>
      <trkpt lat="45.73079" lon="5.42615">
        <ele>233.2</ele>
        <time>2022-09-25T10:00:08Z</time>
      </trkpt>
      <trkpt lat="45.73072" lon="5.42616">
        <ele>233.3</ele>
        <time>2022-09-25T10:00:09Z</time>
      </trkpt>
      <trkpt lat="45.73067" lon="5.42618">
        <ele>233.3</ele>
        <time>2022-09-25T10:00:10Z</time>
      </trkpt>
      <trkpt lat="45.73062" lon="5.42621">
        <ele>233.3</ele>
        <time>2022-09-25T10:00:11Z</time>
      </trkpt>
      <trkpt lat="45.73057" lon="5.42622">
        <ele>233.4</ele>
        <time>2022-09-25T10:00:12Z</time>
      </trkpt>
      <trkpt lat="45.73053" lon="5.42623">
        <ele>233.4</ele>
        <time>2022-09-25T10:00:13Z</time>
      </trkpt>
      <trkpt lat="45.73048" lon="5.42625">
        <ele>233.4</ele>
        <time>2022-09-25T10:00:14Z</time>
      </trkpt>
      <trkpt lat="45.73042" lon="5.42625">
        <ele>233.4</ele>
        <time>2022-09-25T10:00:15Z</time>
      </trkpt>
      <trkpt lat="45.73039" lon="5.42627">
        <ele>233.4</ele>
        <time>2022-09-25T10:00:16Z</time>
      </trkpt>
      <trkpt lat="45.73036" lon="5.42628">
        <ele>233.4</ele>
        <time>2022-09-25T10:00:17Z</time>
      </trkpt>
      <trkpt lat="45.73031" lon="5.4263">
        <ele>233.4</ele>
        <time>2022-09-25T10:00:18Z</time>
      </trkpt>
      <trkpt lat="45.73026" lon="5.42633">
        <ele>233.4</ele>
        <time>2022-09-25T10:00:19Z</time>
      </trkpt>
      <trkpt lat="45.73021" lon="5.42633">
        <ele>233.4</ele>
        <time>2022-09-25T10:00:20Z</time>
      </trkpt>
      <trkpt lat="45.73016" lon="5.42635">
        <ele>233.4</ele>
        <time>2022-09-25T10:00:21Z</time>
      </trkpt>
      <trkpt lat="45.7301" lon="5.42636">
        <ele>233.4</ele>
        <time>2022-09-25T10:00:22Z</time>
      </trkpt>
      <trkpt lat="45.73004" lon="5.42638">
        <ele>233.3</ele>
        <time>2022-09-25T10:00:23Z</time>
      </trkpt>
      <trkpt lat="45.73" lon="5.4264">
        <ele>233.3</ele>
        <time>2022-09-25T10:00:24Z</time>
      </trkpt>
      <trkpt lat="45.72994" lon="5.42641">
        <ele>233.3</ele>
        <time>2022-09-25T10:00:25Z</time>
      </trkpt>
      <trkpt lat="45.72987" lon="5.42642">
        <ele>233.2</ele>
        <time>2022-09-25T10:00:26Z</time>
      </trkpt>
      <trkpt lat="45.72981" lon="5.42642">
        <ele>233.2</ele>
        <time>2022-09-25T10:00:27Z</time>
      </trkpt>
      <trkpt lat="45.72975" lon="5.42642">
        <ele>233.2</ele>
        <time>2022-09-25T10:00:28Z</time>
      </trkpt>
      <trkpt lat="45.7297" lon="5.42642">
        <ele>233.2</ele>
        <time>2022-09-25T10:00:29Z</time>
      </trkpt>
      <trkpt lat="45.72964" lon="5.42645">
        <ele>233.2</ele>
        <time>2022-09-25T10:00:30Z</time>
      </trkpt>
      <trkpt lat="45.72957" lon="5.42643">
        <ele>233.2</ele>
        <time>2022-09-25T10:00:31Z</time>
      </trkpt>
      <trkpt lat="45.72951" lon="5.42641">
        <ele>233.2</ele>
        <time>2022-09-25T10:00:32Z</time>
      </trkpt>
      <trkpt lat="45.72945" lon="5.42643">
        <ele>233.2</ele>
        <time>2022-09-25T10:00:33Z</time>
      </trkpt>
      <trkpt lat="45.72939" lon="5.42642">
        <ele>233.2</ele>
        <time>2022-09-25T10:00:34Z</time>
      </trkpt>
      <trkpt lat="45.72933" lon="5.42642">
        <ele>233.3</ele>
        <time>2022-09-25T10:00:35Z</time>
      </trkpt>
      <trkpt lat="45.72927" lon="5.4264">
        <ele>233.3</ele>
        <time>2022-09-25T10:00:36Z</time>
      </trkpt>
      <trkpt lat="45.72921" lon="5.4264">
        <ele>233.4</ele>
        <time>2022-09-25T10:00:37Z</time>
      </trkpt>
      <trkpt lat="45.72917" lon="5.42638">
        <ele>233.4</ele>
        <time>2022-09-25T10:00:38Z</time>
      </trkpt>
      <trkpt lat="45.72911" lon="5.42639">
        <ele>233.4</ele>
        <time>2022-09-25T10:00:39Z</time>
      </trkpt>
      <trkpt lat="45.72906" lon="5.42641">
        <ele>233.4</ele>
        <time>2022-09-25T10:00:40Z</time>
      </trkpt>
      <trkpt lat="45.72901" lon="5.42637">
        <ele>233.4</ele>
        <time>2022-09-25T10:00:41Z</time>
      </trkpt>
      <trkpt lat="45.72895" lon="5.42636">
        <ele>233.4</ele>
        <time>2022-09-25T10:00:42Z</time>
      </trkpt>
      <trkpt lat="45.72889" lon="5.42635">
        <ele>233.3</ele>
        <time>2022-09-25T10:00:43Z</time>
      </trkpt>
      <trkpt lat="45.72883" lon="5.42634">
        <ele>233.3</ele>
        <time>2022-09-25T10:00:44Z</time>
      </trkpt>
      <trkpt lat="45.72878" lon="5.42631">
        <ele>233.3</ele>
        <time>2022-09-25T10:00:45Z</time>
      </trkpt>
      <trkpt lat="45.72872" lon="5.42631">
        <ele>233.2</ele>
        <time>2022-09-25T10:00:46Z</time>
      </trkpt>
      <trkpt lat="45.72867" lon="5.42629">
        <ele>233.2</ele>
        <time>2022-09-25T10:00:47Z</time>
      </trkpt>
      <trkpt lat="45.72861" lon="5.42627">
        <ele>233.2</ele>
        <time>2022-09-25T10:00:48Z</time>
      </trkpt>
      <trkpt lat="45.72855" lon="5.42624">
        <ele>233.2</ele>
        <time>2022-09-25T10:00:49Z</time>
      </trkpt>
      <trkpt lat="45.72849" lon="5.42622">
        <ele>233.2</ele>
        <time>2022-09-25T10:00:50Z</time>
      </trkpt>
      <trkpt lat="45.72843" lon="5.4262">
        <ele>233.2</ele>
        <time>2022-09-25T10:00:51Z</time>
      </trkpt>
      <trkpt lat="45.72837" lon="5.42618">
        <ele>233.2</ele>
        <time>2022-09-25T10:00:52Z</time>
      </trkpt>
      <trkpt lat="45.72832" lon="5.42616">
        <ele>233.2</ele>
        <time>2022-09-25T10:00:53Z</time>
      </trkpt>
      <trkpt lat="45.72826" lon="5.42613">
        <ele>233.2</ele>
        <time>2022-09-25T10:00:54Z</time>
      </trkpt>
      <trkpt lat="45.72821" lon="5.4261">
        <ele>233.2</ele>
        <time>2022-09-25T10:00:55Z</time>
      </trkpt>
      <trkpt lat="45.72815" lon="5.42608">
        <ele>233.2</ele>
        <time>2022-09-25T10:00:56Z</time>
      </trkpt>
      <trkpt lat="45.72809" lon="5.42605">
        <ele>233.1</ele>
        <time>2022-09-25T10:00:57Z</time>
      </trkpt>
      <trkpt lat="45.72804" lon="5.42602">
        <ele>233.1</ele>
        <time>2022-09-25T10:00:58Z</time>
      </trkpt>
      <trkpt lat="45.72798" lon="5.42598">
        <ele>233.1</ele>
        <time>2022-09-25T10:00:59Z</time>
      </trkpt>
      <trkpt lat="45.72792" lon="5.42596">
        <ele>233.1</ele>
        <time>2022-09-25T10:01:00Z</time>
      </trkpt>
      <trkpt lat="45.72787" lon="5.42593">
        <ele>233.1</ele>
        <time>2022-09-25T10:01:01Z</time>
      </trkpt>
      <trkpt lat="45.72781" lon="5.42589">
        <ele>233.1</ele>
        <time>2022-09-25T10:01:02Z</time>
      </trkpt>
      <trkpt lat="45.72776" lon="5.42586">
        <ele>233.1</ele>
        <time>2022-09-25T10:01:03Z</time>
      </trkpt>
      <trkpt lat="45.7277" lon="5.42583">
        <ele>233</ele>
        <time>2022-09-25T10:01:04Z</time>
      </trkpt>
      <trkpt lat="45.72765" lon="5.4258">
        <ele>233</ele>
        <time>2022-09-25T10:01:05Z</time>
      </trkpt>
      <trkpt lat="45.72759" lon="5.42577">
        <ele>233</ele>
        <time>2022-09-25T10:01:06Z</time>
      </trkpt>
      <trkpt lat="45.72753" lon="5.42576">
        <ele>233</ele>
        <time>2022-09-25T10:01:07Z</time>
      </trkpt>
      <trkpt lat="45.72747" lon="5.42572">
        <ele>233</ele>
        <time>2022-09-25T10:01:08Z</time>
      </trkpt>
      <trkpt lat="45.72742" lon="5.42568">
        <ele>233</ele>
        <time>2022-09-25T10:01:09Z</time>
      </trkpt>
      <trkpt lat="45.72737" lon="5.42564">
        <ele>233</ele>
        <time>2022-09-25T10:01:10Z</time>
      </trkpt>
      <trkpt lat="45.72731" lon="5.4256">
        <ele>233.1</ele>
        <time>2022-09-25T10:01:11Z</time>
      </trkpt>
      <trkpt lat="45.72726" lon="5.42559">
        <ele>233.1</ele>
        <time>2022-09-25T10:01:12Z</time>
      </trkpt>
      <trkpt lat="45.72721" lon="5.42555">
        <ele>233.1</ele>
        <time>2022-09-25T10:01:13Z</time>
      </trkpt>
      <trkpt lat="45.72717" lon="5.42554">
        <ele>233.2</ele>
        <time>2022-09-25T10:01:14Z</time>
      </trkpt>
      <trkpt lat="45.72711" lon="5.42551">
        <ele>233.2</ele>
        <time>2022-09-25T10:01:15Z</time>
      </trkpt>
      <trkpt lat="45.72706" lon="5.4255">
        <ele>233.2</ele>
        <time>2022-09-25T10:01:16Z</time>
      </trkpt>
      <trkpt lat="45.72701" lon="5.42546">
        <ele>233.3</ele>
        <time>2022-09-25T10:01:17Z</time>
      </trkpt>
      <trkpt lat="45.72697" lon="5.42542">
        <ele>233.3</ele>
        <time>2022-09-25T10:01:18Z</time>
      </trkpt>
      <trkpt lat="45.72694" lon="5.42541">
        <ele>233.3</ele>
        <time>2022-09-25T10:01:19Z</time>
      </trkpt>
      <trkpt lat="45.72691" lon="5.42538">
        <ele>233.3</ele>
        <time>2022-09-25T10:01:20Z</time>
      </trkpt>
      <trkpt lat="45.72689" lon="5.42534">
        <ele>233.3</ele>
        <time>2022-09-25T10:01:21Z</time>
      </trkpt>
      <trkpt lat="45.72685" lon="5.4253">
        <ele>233.2</ele>
        <time>2022-09-25T10:01:22Z</time>
      </trkpt>
      <trkpt lat="45.72684" lon="5.42528">
        <ele>233.2</ele>
        <time>2022-09-25T10:01:23Z</time>
      </trkpt>
      <trkpt lat="45.7268" lon="5.42524">
        <ele>233.2</ele>
        <time>2022-09-25T10:01:24Z</time>
      </trkpt>
      <trkpt lat="45.72678" lon="5.4252">
        <ele>233.1</ele>
        <time>2022-09-25T10:01:25Z</time>
      </trkpt>
      <trkpt lat="45.72672" lon="5.42516">
        <ele>233</ele>
        <time>2022-09-25T10:01:26Z</time>
      </trkpt>
      <trkpt lat="45.72667" lon="5.42512">
        <ele>232.8</ele>
        <time>2022-09-25T10:01:27Z</time>
      </trkpt>
      <trkpt lat="45.72662" lon="5.42508">
        <ele>232.8</ele>
        <time>2022-09-25T10:01:28Z</time>
      </trkpt>
      <trkpt lat="45.72657" lon="5.42506">
        <ele>232.7</ele>
        <time>2022-09-25T10:01:29Z</time>
      </trkpt>
      <trkpt lat="45.72653" lon="5.42504">
        <ele>232.6</ele>
        <time>2022-09-25T10:01:30Z</time>
      </trkpt>
      <trkpt lat="45.72648" lon="5.42501">
        <ele>232.6</ele>
        <time>2022-09-25T10:01:31Z</time>
      </trkpt>
      <trkpt lat="45.72643" lon="5.42497">
        <ele>232.6</ele>
        <time>2022-09-25T10:01:32Z</time>
      </trkpt>
      <trkpt lat="45.72639" lon="5.42495">
        <ele>232.6</ele>
        <time>2022-09-25T10:01:33Z</time>
      </trkpt>
      <trkpt lat="45.72634" lon="5.42492">
        <ele>232.6</ele>
        <time>2022-09-25T10:01:34Z</time>
      </trkpt>
      <trkpt lat="45.72629" lon="5.42489">
        <ele>232.7</ele>
        <time>2022-09-25T10:01:35Z</time>
      </trkpt>
      <trkpt lat="45.72625" lon="5.42488">
        <ele>232.8</ele>
        <time>2022-09-25T10:01:36Z</time>
      </trkpt>
      <trkpt lat="45.7262" lon="5.42486">
        <ele>232.9</ele>
        <time>2022-09-25T10:01:37Z</time>
      </trkpt>
      <trkpt lat="45.72616" lon="5.42485">
        <ele>233</ele>
        <time>2022-09-25T10:01:38Z</time>
      </trkpt>
      <trkpt lat="45.72613" lon="5.42483">
        <ele>233.1</ele>
        <time>2022-09-25T10:01:39Z</time>
      </trkpt>
      <trkpt lat="45.72609" lon="5.4248">
        <ele>233.2</ele>
        <time>2022-09-25T10:01:40Z</time>
      </trkpt>
      <trkpt lat="45.72605" lon="5.42478">
        <ele>233.2</ele>
        <time>2022-09-25T10:01:41Z</time>
      </trkpt>
      <trkpt lat="45.72601" lon="5.42476">
        <ele>233.2</ele>
        <time>2022-09-25T10:01:42Z</time>
      </trkpt>
      <trkpt lat="45.72597" lon="5.42476">
        <ele>233.3</ele>
        <time>2022-09-25T10:01:43Z</time>
      </trkpt>
      <trkpt lat="45.72594" lon="5.42474">
        <ele>233.3</ele>
        <time>2022-09-25T10:01:44Z</time>
      </trkpt>
      <trkpt lat="45.72591" lon="5.4247">
        <ele>233.3</ele>
        <time>2022-09-25T10:01:45Z</time>
      </trkpt>
      <trkpt lat="45.72587" lon="5.42468">
        <ele>233.3</ele>
        <time>2022-09-25T10:01:46Z</time>
      </trkpt>
      <trkpt lat="45.72583" lon="5.42468">
        <ele>233.3</ele>
        <time>2022-09-25T10:01:47Z</time>
      </trkpt>
      <trkpt lat="45.72579" lon="5.42465">
        <ele>233.3</ele>
        <time>2022-09-25T10:01:48Z</time>
      </trkpt>
      <trkpt lat="45.72574" lon="5.42463">
        <ele>233.3</ele>
        <time>2022-09-25T10:01:49Z</time>
      </trkpt>
      <trkpt lat="45.7257" lon="5.4246">
        <ele>233.3</ele>
        <time>2022-09-25T10:01:50Z</time>
      </trkpt>
      <trkpt lat="45.72566" lon="5.42457">
        <ele>233.3</ele>
        <time>2022-09-25T10:01:51Z</time>
      </trkpt>
      <trkpt lat="45.72562" lon="5.42454">
        <ele>233.3</ele>
        <time>2022-09-25T10:01:52Z</time>
      </trkpt>
      <trkpt lat="45.72558" lon="5.42453">
        <ele>233.3</ele>
        <time>2022-09-25T10:01:53Z</time>
      </trkpt>
      <trkpt lat="45.72554" lon="5.42451">
        <ele>233.3</ele>
        <time>2022-09-25T10:01:54Z</time>
      </trkpt>
      <trkpt lat="45.72549" lon="5.42449">
        <ele>233.3</ele>
        <time>2022-09-25T10:01:55Z</time>
      </trkpt>
      <trkpt lat="45.72545" lon="5.42446">
        <ele>233.2</ele>
        <time>2022-09-25T10:01:56Z</time>
      </trkpt>
      <trkpt lat="45.72541" lon="5.42443">
        <ele>233.2</ele>
        <time>2022-09-25T10:01:57Z</time>
      </trkpt>
      <trkpt lat="45.72537" lon="5.42441">
        <ele>233.2</ele>
        <time>2022-09-25T10:01:58Z</time>
      </trkpt>
      <trkpt lat="45.72532" lon="5.42439">
        <ele>233.2</ele>
        <time>2022-09-25T10:01:59Z</time>
      </trkpt>
      <trkpt lat="45.72528" lon="5.42437">
        <ele>233.2</ele>
        <time>2022-09-25T10:02:00Z</time>
      </trkpt>
      <trkpt lat="45.72524" lon="5.42435">
        <ele>233.2</ele>
        <time>2022-09-25T10:02:01Z</time>
      </trkpt>
      <trkpt lat="45.72519" lon="5.42432">
        <ele>233.2</ele>
        <time>2022-09-25T10:02:02Z</time>
      </trkpt>
      <trkpt lat="45.72516" lon="5.4243">
        <ele>233.2</ele>
        <time>2022-09-25T10:02:03Z</time>
      </trkpt>
      <trkpt lat="45.72511" lon="5.42428">
        <ele>233.2</ele>
        <time>2022-09-25T10:02:04Z</time>
      </trkpt>
      <trkpt lat="45.72506" lon="5.42425">
        <ele>233.1</ele>
        <time>2022-09-25T10:02:05Z</time>
      </trkpt>
      <trkpt lat="45.72502" lon="5.42423">
        <ele>233.1</ele>
        <time>2022-09-25T10:02:06Z</time>
      </trkpt>
      <trkpt lat="45.72498" lon="5.4242">
        <ele>233.1</ele>
        <time>2022-09-25T10:02:07Z</time>
      </trkpt>
      <trkpt lat="45.72493" lon="5.42417">
        <ele>233.1</ele>
        <time>2022-09-25T10:02:08Z</time>
      </trkpt>
      <trkpt lat="45.72489" lon="5.42415">
        <ele>233</ele>
        <time>2022-09-25T10:02:09Z</time>
      </trkpt>
      <trkpt lat="45.72485" lon="5.42413">
        <ele>233</ele>
        <time>2022-09-25T10:02:10Z</time>
      </trkpt>
      <trkpt lat="45.7248" lon="5.42412">
        <ele>233</ele>
        <time>2022-09-25T10:02:11Z</time>
      </trkpt>
      <trkpt lat="45.72475" lon="5.4241">
        <ele>233</ele>
        <time>2022-09-25T10:02:12Z</time>
      </trkpt>
      <trkpt lat="45.72471" lon="5.42408">
        <ele>233</ele>
        <time>2022-09-25T10:02:13Z</time>
      </trkpt>
      <trkpt lat="45.72467" lon="5.42406">
        <ele>232.9</ele>
        <time>2022-09-25T10:02:14Z</time>
      </trkpt>
      <trkpt lat="45.72463" lon="5.42405">
        <ele>232.9</ele>
        <time>2022-09-25T10:02:15Z</time>
      </trkpt>
      <trkpt lat="45.72459" lon="5.42403">
        <ele>232.9</ele>
        <time>2022-09-25T10:02:16Z</time>
      </trkpt>
      <trkpt lat="45.72454" lon="5.42401">
        <ele>232.9</ele>
        <time>2022-09-25T10:02:17Z</time>
      </trkpt>
      <trkpt lat="45.7245" lon="5.424">
        <ele>232.8</ele>
        <time>2022-09-25T10:02:18Z</time>
      </trkpt>
      <trkpt lat="45.72446" lon="5.42397">
        <ele>232.8</ele>
        <time>2022-09-25T10:02:19Z</time>
      </trkpt>
      <trkpt lat="45.72442" lon="5.42396">
        <ele>232.8</ele>
        <time>2022-09-25T10:02:20Z</time>
      </trkpt>
      <trkpt lat="45.72436" lon="5.42395">
        <ele>232.8</ele>
        <time>2022-09-25T10:02:21Z</time>
      </trkpt>
      <trkpt lat="45.72433" lon="5.42394">
        <ele>232.8</ele>
        <time>2022-09-25T10:02:22Z</time>
      </trkpt>
      <trkpt lat="45.72428" lon="5.42391">
        <ele>232.8</ele>
        <time>2022-09-25T10:02:23Z</time>
      </trkpt>
      <trkpt lat="45.72424" lon="5.4239">
        <ele>232.8</ele>
        <time>2022-09-25T10:02:24Z</time>
      </trkpt>
      <trkpt lat="45.72419" lon="5.42389">
        <ele>232.8</ele>
        <time>2022-09-25T10:02:25Z</time>
      </trkpt>
      <trkpt lat="45.72415" lon="5.42386">
        <ele>232.9</ele>
        <time>2022-09-25T10:02:26Z</time>
      </trkpt>
      <trkpt lat="45.72411" lon="5.42384">
        <ele>233</ele>
        <time>2022-09-25T10:02:27Z</time>
      </trkpt>
      <trkpt lat="45.72407" lon="5.42382">
        <ele>233</ele>
        <time>2022-09-25T10:02:28Z</time>
      </trkpt>
      <trkpt lat="45.72404" lon="5.42381">
        <ele>233.1</ele>
        <time>2022-09-25T10:02:29Z</time>
      </trkpt>
      <trkpt lat="45.72399" lon="5.42379">
        <ele>233.1</ele>
        <time>2022-09-25T10:02:30Z</time>
      </trkpt>
      <trkpt lat="45.72395" lon="5.42378">
        <ele>233.2</ele>
        <time>2022-09-25T10:02:31Z</time>
      </trkpt>
      <trkpt lat="45.72391" lon="5.42376">
        <ele>233.2</ele>
        <time>2022-09-25T10:02:32Z</time>
      </trkpt>
      <trkpt lat="45.72386" lon="5.42375">
        <ele>233.2</ele>
        <time>2022-09-25T10:02:33Z</time>
      </trkpt>
      <trkpt lat="45.72382" lon="5.42373">
        <ele>233.2</ele>
        <time>2022-09-25T10:02:34Z</time>
      </trkpt>
      <trkpt lat="45.72379" lon="5.42373">
        <ele>233.2</ele>
        <time>2022-09-25T10:02:35Z</time>
      </trkpt>
      <trkpt lat="45.72375" lon="5.4237">
        <ele>233.2</ele>
        <time>2022-09-25T10:02:36Z</time>
      </trkpt>
      <trkpt lat="45.72371" lon="5.42369">
        <ele>233.1</ele>
        <time>2022-09-25T10:02:37Z</time>
      </trkpt>
      <trkpt lat="45.72367" lon="5.42368">
        <ele>233.1</ele>
        <time>2022-09-25T10:02:38Z</time>
      </trkpt>
      <trkpt lat="45.72363" lon="5.42365">
        <ele>233.1</ele>
        <time>2022-09-25T10:02:39Z</time>
      </trkpt>
      <trkpt lat="45.7236" lon="5.42363">
        <ele>233.1</ele>
        <time>2022-09-25T10:02:40Z</time>
      </trkpt>
      <trkpt lat="45.72355" lon="5.42362">
        <ele>233.1</ele>
        <time>2022-09-25T10:02:41Z</time>
      </trkpt>
      <trkpt lat="45.7235" lon="5.4236">
        <ele>233.1</ele>
        <time>2022-09-25T10:02:42Z</time>
      </trkpt>
      <trkpt lat="45.72346" lon="5.42358">
        <ele>233.1</ele>
        <time>2022-09-25T10:02:43Z</time>
      </trkpt>
      <trkpt lat="45.72342" lon="5.42357">
        <ele>233.1</ele>
        <time>2022-09-25T10:02:44Z</time>
      </trkpt>
      <trkpt lat="45.72337" lon="5.42355">
        <ele>233.1</ele>
        <time>2022-09-25T10:02:45Z</time>
      </trkpt>
      <trkpt lat="45.72333" lon="5.42354">
        <ele>233.1</ele>
        <time>2022-09-25T10:02:46Z</time>
      </trkpt>
      <trkpt lat="45.72329" lon="5.42353">
        <ele>233.1</ele>
        <time>2022-09-25T10:02:47Z</time>
      </trkpt>
      <trkpt lat="45.72325" lon="5.42352">
        <ele>233.1</ele>
        <time>2022-09-25T10:02:48Z</time>
      </trkpt>
      <trkpt lat="45.72321" lon="5.4235">
        <ele>233.1</ele>
        <time>2022-09-25T10:02:49Z</time>
      </trkpt>
      <trkpt lat="45.72317" lon="5.42348">
        <ele>233.1</ele>
        <time>2022-09-25T10:02:50Z</time>
      </trkpt>
      <trkpt lat="45.72313" lon="5.42346">
        <ele>233.1</ele>
        <time>2022-09-25T10:02:51Z</time>
      </trkpt>
      <trkpt lat="45.72309" lon="5.42345">
        <ele>233.1</ele>
        <time>2022-09-25T10:02:52Z</time>
      </trkpt>
      <trkpt lat="45.72305" lon="5.42343">
        <ele>233.1</ele>
        <time>2022-09-25T10:02:53Z</time>
      </trkpt>
      <trkpt lat="45.72301" lon="5.42342">
        <ele>233.1</ele>
        <time>2022-09-25T10:02:54Z</time>
      </trkpt>
      <trkpt lat="45.72297" lon="5.4234">
        <ele>233.1</ele>
        <time>2022-09-25T10:02:55Z</time>
      </trkpt>
      <trkpt lat="45.72291" lon="5.42338">
        <ele>233.1</ele>
        <time>2022-09-25T10:02:56Z</time>
      </trkpt>
      <trkpt lat="45.72287" lon="5.42336">
        <ele>233.1</ele>
        <time>2022-09-25T10:02:57Z</time>
      </trkpt>
      <trkpt lat="45.72282" lon="5.42335">
        <ele>233.1</ele>
        <time>2022-09-25T10:02:58Z</time>
      </trkpt>
      <trkpt lat="45.72277" lon="5.42334">
        <ele>233.1</ele>
        <time>2022-09-25T10:02:59Z</time>
      </trkpt>
      <trkpt lat="45.72273" lon="5.42333">
        <ele>233</ele>
        <time>2022-09-25T10:03:00Z</time>
      </trkpt>
      <trkpt lat="45.72268" lon="5.42331">
        <ele>233</ele>
        <time>2022-09-25T10:03:01Z</time>
      </trkpt>
      <trkpt lat="45.72262" lon="5.42328">
        <ele>233</ele>
        <time>2022-09-25T10:03:02Z</time>
      </trkpt>
      <trkpt lat="45.72257" lon="5.42326">
        <ele>233</ele>
        <time>2022-09-25T10:03:03Z</time>
      </trkpt>
      <trkpt lat="45.72252" lon="5.42325">
        <ele>233</ele>
        <time>2022-09-25T10:03:04Z</time>
      </trkpt>
      <trkpt lat="45.72247" lon="5.42323">
        <ele>232.9</ele>
        <time>2022-09-25T10:03:05Z</time>
      </trkpt>
      <trkpt lat="45.72242" lon="5.42322">
        <ele>232.9</ele>
        <time>2022-09-25T10:03:06Z</time>
      </trkpt>
      <trkpt lat="45.72236" lon="5.42321">
        <ele>232.9</ele>
        <time>2022-09-25T10:03:07Z</time>
      </trkpt>
      <trkpt lat="45.72231" lon="5.4232">
        <ele>232.9</ele>
        <time>2022-09-25T10:03:08Z</time>
      </trkpt>
      <trkpt lat="45.72226" lon="5.42319">
        <ele>233</ele>
        <time>2022-09-25T10:03:09Z</time>
      </trkpt>
      <trkpt lat="45.72222" lon="5.42316">
        <ele>233</ele>
        <time>2022-09-25T10:03:10Z</time>
      </trkpt>
      <trkpt lat="45.72218" lon="5.42315">
        <ele>233</ele>
        <time>2022-09-25T10:03:11Z</time>
      </trkpt>
      <trkpt lat="45.72214" lon="5.42314">
        <ele>233</ele>
        <time>2022-09-25T10:03:12Z</time>
      </trkpt>
      <trkpt lat="45.7221" lon="5.42314">
        <ele>233</ele>
        <time>2022-09-25T10:03:13Z</time>
      </trkpt>
      <trkpt lat="45.72205" lon="5.42312">
        <ele>233</ele>
        <time>2022-09-25T10:03:14Z</time>
      </trkpt>
      <trkpt lat="45.72201" lon="5.4231">
        <ele>233</ele>
        <time>2022-09-25T10:03:15Z</time>
      </trkpt>
      <trkpt lat="45.72197" lon="5.42309">
        <ele>232.9</ele>
        <time>2022-09-25T10:03:16Z</time>
      </trkpt>
      <trkpt lat="45.72193" lon="5.42308">
        <ele>232.9</ele>
        <time>2022-09-25T10:03:17Z</time>
      </trkpt>
      <trkpt lat="45.7219" lon="5.42306">
        <ele>232.8</ele>
        <time>2022-09-25T10:03:18Z</time>
      </trkpt>
      <trkpt lat="45.72184" lon="5.42304">
        <ele>232.6</ele>
        <time>2022-09-25T10:03:19Z</time>
      </trkpt>
      <trkpt lat="45.72179" lon="5.42302">
        <ele>232.5</ele>
        <time>2022-09-25T10:03:20Z</time>
      </trkpt>
      <trkpt lat="45.72173" lon="5.42301">
        <ele>232.3</ele>
        <time>2022-09-25T10:03:21Z</time>
      </trkpt>
      <trkpt lat="45.7217" lon="5.423">
        <ele>232.2</ele>
        <time>2022-09-25T10:03:22Z</time>
      </trkpt>
      <trkpt lat="45.72166" lon="5.42297">
        <ele>232</ele>
        <time>2022-09-25T10:03:23Z</time>
      </trkpt>
      <trkpt lat="45.72162" lon="5.42296">
        <ele>231.9</ele>
        <time>2022-09-25T10:03:24Z</time>
      </trkpt>
      <trkpt lat="45.72157" lon="5.42295">
        <ele>231.7</ele>
        <time>2022-09-25T10:03:25Z</time>
      </trkpt>
      <trkpt lat="45.72152" lon="5.42293">
        <ele>231.6</ele>
        <time>2022-09-25T10:03:26Z</time>
      </trkpt>
      <trkpt lat="45.72149" lon="5.42292">
        <ele>231.5</ele>
        <time>2022-09-25T10:03:27Z</time>
      </trkpt>
      <trkpt lat="45.72144" lon="5.42289">
        <ele>231.4</ele>
        <time>2022-09-25T10:03:28Z</time>
      </trkpt>
      <trkpt lat="45.72136" lon="5.42285">
        <ele>231.3</ele>
        <time>2022-09-25T10:03:29Z</time>
      </trkpt>
      <trkpt lat="45.72131" lon="5.42285">
        <ele>231.2</ele>
        <time>2022-09-25T10:03:30Z</time>
      </trkpt>
      <trkpt lat="45.72126" lon="5.42283">
        <ele>231.1</ele>
        <time>2022-09-25T10:03:31Z</time>
      </trkpt>
      <trkpt lat="45.72122" lon="5.42281">
        <ele>231.1</ele>
        <time>2022-09-25T10:03:32Z</time>
      </trkpt>
      <trkpt lat="45.72116" lon="5.42279">
        <ele>231</ele>
        <time>2022-09-25T10:03:33Z</time>
      </trkpt>
      <trkpt lat="45.72111" lon="5.42277">
        <ele>231</ele>
        <time>2022-09-25T10:03:34Z</time>
      </trkpt>
      <trkpt lat="45.72106" lon="5.42275">
        <ele>230.9</ele>
        <time>2022-09-25T10:03:35Z</time>
      </trkpt>
      <trkpt lat="45.72101" lon="5.42272">
        <ele>230.9</ele>
        <time>2022-09-25T10:03:36Z</time>
      </trkpt>
      <trkpt lat="45.72096" lon="5.4227">
        <ele>230.9</ele>
        <time>2022-09-25T10:03:37Z</time>
      </trkpt>
      <trkpt lat="45.72091" lon="5.42269">
        <ele>231</ele>
        <time>2022-09-25T10:03:38Z</time>
      </trkpt>
      <trkpt lat="45.72087" lon="5.42268">
        <ele>231</ele>
        <time>2022-09-25T10:03:39Z</time>
      </trkpt>
      <trkpt lat="45.72082" lon="5.42266">
        <ele>231</ele>
        <time>2022-09-25T10:03:40Z</time>
      </trkpt>
      <trkpt lat="45.72078" lon="5.42265">
        <ele>231</ele>
        <time>2022-09-25T10:03:41Z</time>
      </trkpt>
      <trkpt lat="45.72074" lon="5.42262">
        <ele>231.1</ele>
        <time>2022-09-25T10:03:42Z</time>
      </trkpt>
      <trkpt lat="45.7207" lon="5.42261">
        <ele>231.1</ele>
        <time>2022-09-25T10:03:43Z</time>
      </trkpt>
      <trkpt lat="45.72066" lon="5.4226">
        <ele>231.1</ele>
        <time>2022-09-25T10:03:44Z</time>
      </trkpt>
      <trkpt lat="45.72061" lon="5.4226">
        <ele>231.1</ele>
        <time>2022-09-25T10:03:45Z</time>
      </trkpt>
      <trkpt lat="45.72056" lon="5.42258">
        <ele>231.2</ele>
        <time>2022-09-25T10:03:46Z</time>
      </trkpt>
      <trkpt lat="45.72051" lon="5.42256">
        <ele>231.2</ele>
        <time>2022-09-25T10:03:47Z</time>
      </trkpt>
      <trkpt lat="45.72047" lon="5.42254">
        <ele>231.2</ele>
        <time>2022-09-25T10:03:48Z</time>
      </trkpt>
      <trkpt lat="45.72043" lon="5.42251">
        <ele>231.3</ele>
        <time>2022-09-25T10:03:49Z</time>
      </trkpt>
      <trkpt lat="45.72038" lon="5.42251">
        <ele>231.3</ele>
        <time>2022-09-25T10:03:50Z</time>
      </trkpt>
      <trkpt lat="45.72034" lon="5.4225">
        <ele>231.3</ele>
        <time>2022-09-25T10:03:51Z</time>
      </trkpt>
      <trkpt lat="45.7203" lon="5.42249">
        <ele>231.3</ele>
        <time>2022-09-25T10:03:52Z</time>
      </trkpt>
      <trkpt lat="45.72027" lon="5.42248">
        <ele>231.3</ele>
        <time>2022-09-25T10:03:53Z</time>
      </trkpt>
      <trkpt lat="45.72022" lon="5.42247">
        <ele>231.4</ele>
        <time>2022-09-25T10:03:54Z</time>
      </trkpt>
      <trkpt lat="45.72018" lon="5.42245">
        <ele>231.4</ele>
        <time>2022-09-25T10:03:55Z</time>
      </trkpt>
      <trkpt lat="45.72013" lon="5.42244">
        <ele>231.4</ele>
        <time>2022-09-25T10:03:56Z</time>
      </trkpt>
      <trkpt lat="45.72008" lon="5.42243">
        <ele>231.4</ele>
        <time>2022-09-25T10:03:57Z</time>
      </trkpt>
      <trkpt lat="45.72002" lon="5.42242">
        <ele>231.4</ele>
        <time>2022-09-25T10:03:58Z</time>
      </trkpt>
      <trkpt lat="45.71998" lon="5.4224">
        <ele>231.4</ele>
        <time>2022-09-25T10:03:59Z</time>
      </trkpt>
      <trkpt lat="45.71994" lon="5.42239">
        <ele>231.4</ele>
        <time>2022-09-25T10:04:00Z</time>
      </trkpt>
      <trkpt lat="45.71989" lon="5.42238">
        <ele>231.5</ele>
        <time>2022-09-25T10:04:01Z</time>
      </trkpt>
      <trkpt lat="45.71985" lon="5.42237">
        <ele>231.5</ele>
        <time>2022-09-25T10:04:02Z</time>
      </trkpt>
      <trkpt lat="45.71981" lon="5.42236">
        <ele>231.6</ele>
        <time>2022-09-25T10:04:03Z</time>
      </trkpt>
      <trkpt lat="45.71977" lon="5.42235">
        <ele>231.6</ele>
        <time>2022-09-25T10:04:04Z</time>
      </trkpt>
      <trkpt lat="45.71972" lon="5.42234">
        <ele>231.6</ele>
        <time>2022-09-25T10:04:05Z</time>
      </trkpt>
      <trkpt lat="45.71968" lon="5.42232">
        <ele>231.7</ele>
        <time>2022-09-25T10:04:06Z</time>
      </trkpt>
      <trkpt lat="45.71963" lon="5.42232">
        <ele>231.7</ele>
        <time>2022-09-25T10:04:07Z</time>
      </trkpt>
      <trkpt lat="45.7196" lon="5.42231">
        <ele>231.7</ele>
        <time>2022-09-25T10:04:08Z</time>
      </trkpt>
      <trkpt lat="45.71956" lon="5.42232">
        <ele>231.8</ele>
        <time>2022-09-25T10:04:09Z</time>
      </trkpt>
      <trkpt lat="45.71952" lon="5.4223">
        <ele>231.8</ele>
        <time>2022-09-25T10:04:10Z</time>
      </trkpt>
      <trkpt lat="45.71947" lon="5.42228">
        <ele>231.8</ele>
        <time>2022-09-25T10:04:11Z</time>
      </trkpt>
      <trkpt lat="45.71942" lon="5.42226">
        <ele>231.9</ele>
        <time>2022-09-25T10:04:12Z</time>
      </trkpt>
      <trkpt lat="45.71938" lon="5.42226">
        <ele>231.9</ele>
        <time>2022-09-25T10:04:13Z</time>
      </trkpt>
      <trkpt lat="45.71934" lon="5.42224">
        <ele>231.9</ele>
        <time>2022-09-25T10:04:14Z</time>
      </trkpt>
      <trkpt lat="45.71931" lon="5.42221">
        <ele>231.9</ele>
        <time>2022-09-25T10:04:15Z</time>
      </trkpt>
      <trkpt lat="45.71927" lon="5.42218">
        <ele>231.9</ele>
        <time>2022-09-25T10:04:16Z</time>
      </trkpt>
      <trkpt lat="45.71924" lon="5.42214">
        <ele>231.9</ele>
        <time>2022-09-25T10:04:17Z</time>
      </trkpt>
      <trkpt lat="45.71919" lon="5.42211">
        <ele>231.8</ele>
        <time>2022-09-25T10:04:18Z</time>
      </trkpt>
      <trkpt lat="45.71915" lon="5.4221">
        <ele>231.7</ele>
        <time>2022-09-25T10:04:19Z</time>
      </trkpt>
      <trkpt lat="45.71911" lon="5.42209">
        <ele>231.6</ele>
        <time>2022-09-25T10:04:20Z</time>
      </trkpt>
      <trkpt lat="45.71906" lon="5.42208">
        <ele>231.5</ele>
        <time>2022-09-25T10:04:21Z</time>
      </trkpt>
      <trkpt lat="45.71901" lon="5.42207">
        <ele>231.4</ele>
        <time>2022-09-25T10:04:22Z</time>
      </trkpt>
      <trkpt lat="45.71896" lon="5.42206">
        <ele>231.3</ele>
        <time>2022-09-25T10:04:23Z</time>
      </trkpt>
      <trkpt lat="45.71891" lon="5.42206">
        <ele>231.2</ele>
        <time>2022-09-25T10:04:24Z</time>
      </trkpt>
      <trkpt lat="45.71885" lon="5.42205">
        <ele>231.1</ele>
        <time>2022-09-25T10:04:25Z</time>
      </trkpt>
      <trkpt lat="45.7188" lon="5.42205">
        <ele>231</ele>
        <time>2022-09-25T10:04:26Z</time>
      </trkpt>
      <trkpt lat="45.71875" lon="5.42205">
        <ele>230.9</ele>
        <time>2022-09-25T10:04:27Z</time>
      </trkpt>
      <trkpt lat="45.71869" lon="5.42205">
        <ele>230.8</ele>
        <time>2022-09-25T10:04:28Z</time>
      </trkpt>
      <trkpt lat="45.71863" lon="5.42206">
        <ele>230.7</ele>
        <time>2022-09-25T10:04:29Z</time>
      </trkpt>
      <trkpt lat="45.71858" lon="5.42207">
        <ele>230.6</ele>
        <time>2022-09-25T10:04:30Z</time>
      </trkpt>
      <trkpt lat="45.71852" lon="5.42209">
        <ele>230.4</ele>
        <time>2022-09-25T10:04:31Z</time>
      </trkpt>
      <trkpt lat="45.71846" lon="5.42211">
        <ele>230.3</ele>
        <time>2022-09-25T10:04:32Z</time>
      </trkpt>
      <trkpt lat="45.71839" lon="5.42212">
        <ele>230.2</ele>
        <time>2022-09-25T10:04:33Z</time>
      </trkpt>
      <trkpt lat="45.71835" lon="5.42214">
        <ele>230.2</ele>
        <time>2022-09-25T10:04:34Z</time>
      </trkpt>
      <trkpt lat="45.71829" lon="5.42216">
        <ele>230.2</ele>
        <time>2022-09-25T10:04:35Z</time>
      </trkpt>
      <trkpt lat="45.71824" lon="5.42216">
        <ele>230.2</ele>
        <time>2022-09-25T10:04:36Z</time>
      </trkpt>
      <trkpt lat="45.71817" lon="5.42218">
        <ele>230.2</ele>
        <time>2022-09-25T10:04:37Z</time>
      </trkpt>
      <trkpt lat="45.71811" lon="5.4222">
        <ele>230.2</ele>
        <time>2022-09-25T10:04:38Z</time>
      </trkpt>
      <trkpt lat="45.71805" lon="5.42221">
        <ele>230.2</ele>
        <time>2022-09-25T10:04:39Z</time>
      </trkpt>
      <trkpt lat="45.71801" lon="5.42223">
        <ele>230.2</ele>
        <time>2022-09-25T10:04:40Z</time>
      </trkpt>
      <trkpt lat="45.71796" lon="5.42225">
        <ele>230.3</ele>
        <time>2022-09-25T10:04:41Z</time>
      </trkpt>
      <trkpt lat="45.71791" lon="5.42226">
        <ele>230.3</ele>
        <time>2022-09-25T10:04:42Z</time>
      </trkpt>
      <trkpt lat="45.71787" lon="5.42228">
        <ele>230.4</ele>
        <time>2022-09-25T10:04:43Z</time>
      </trkpt>
      <trkpt lat="45.71782" lon="5.42228">
        <ele>230.5</ele>
        <time>2022-09-25T10:04:44Z</time>
      </trkpt>
      <trkpt lat="45.71778" lon="5.42229">
        <ele>230.6</ele>
        <time>2022-09-25T10:04:45Z</time>
      </trkpt>
      <trkpt lat="45.71774" lon="5.4223">
        <ele>230.7</ele>
        <time>2022-09-25T10:04:46Z</time>
      </trkpt>
      <trkpt lat="45.71771" lon="5.4223">
        <ele>230.8</ele>
        <time>2022-09-25T10:04:47Z</time>
      </trkpt>
      <trkpt lat="45.71766" lon="5.42229">
        <ele>230.9</ele>
        <time>2022-09-25T10:04:48Z</time>
      </trkpt>
      <trkpt lat="45.71761" lon="5.42228">
        <ele>231</ele>
        <time>2022-09-25T10:04:49Z</time>
      </trkpt>
      <trkpt lat="45.71757" lon="5.42229">
        <ele>231.1</ele>
        <time>2022-09-25T10:04:50Z</time>
      </trkpt>
      <trkpt lat="45.71753" lon="5.42228">
        <ele>231.2</ele>
        <time>2022-09-25T10:04:51Z</time>
      </trkpt>
      <trkpt lat="45.71748" lon="5.42227">
        <ele>231.2</ele>
        <time>2022-09-25T10:04:52Z</time>
      </trkpt>
      <trkpt lat="45.71745" lon="5.42227">
        <ele>231.3</ele>
        <time>2022-09-25T10:04:53Z</time>
      </trkpt>
      <trkpt lat="45.71739" lon="5.42227">
        <ele>231.3</ele>
        <time>2022-09-25T10:04:54Z</time>
      </trkpt>
      <trkpt lat="45.71734" lon="5.42227">
        <ele>231.2</ele>
        <time>2022-09-25T10:04:55Z</time>
      </trkpt>
      <trkpt lat="45.7173" lon="5.42227">
        <ele>231.2</ele>
        <time>2022-09-25T10:04:56Z</time>
      </trkpt>
      <trkpt lat="45.71723" lon="5.42227">
        <ele>231.1</ele>
        <time>2022-09-25T10:04:57Z</time>
      </trkpt>
      <trkpt lat="45.71719" lon="5.42228">
        <ele>231.1</ele>
        <time>2022-09-25T10:04:58Z</time>
      </trkpt>
      <trkpt lat="45.71714" lon="5.42228">
        <ele>231</ele>
        <time>2022-09-25T10:04:59Z</time>
      </trkpt>
      <trkpt lat="45.71709" lon="5.42227">
        <ele>231</ele>
        <time>2022-09-25T10:05:00Z</time>
      </trkpt>
      <trkpt lat="45.71704" lon="5.42226">
        <ele>230.9</ele>
        <time>2022-09-25T10:05:01Z</time>
      </trkpt>
      <trkpt lat="45.71698" lon="5.42228">
        <ele>230.8</ele>
        <time>2022-09-25T10:05:02Z</time>
      </trkpt>
      <trkpt lat="45.71693" lon="5.42227">
        <ele>230.8</ele>
        <time>2022-09-25T10:05:03Z</time>
      </trkpt>
      <trkpt lat="45.71689" lon="5.42227">
        <ele>230.7</ele>
        <time>2022-09-25T10:05:04Z</time>
      </trkpt>
      <trkpt lat="45.71683" lon="5.42228">
        <ele>230.6</ele>
        <time>2022-09-25T10:05:05Z</time>
      </trkpt>
      <trkpt lat="45.71678" lon="5.42228">
        <ele>230.6</ele>
        <time>2022-09-25T10:05:06Z</time>
      </trkpt>
      <trkpt lat="45.71675" lon="5.42229">
        <ele>230.6</ele>
        <time>2022-09-25T10:05:07Z</time>
      </trkpt>
      <trkpt lat="45.71668" lon="5.4223">
        <ele>230.5</ele>
        <time>2022-09-25T10:05:08Z</time>
      </trkpt>
      <trkpt lat="45.71662" lon="5.42229">
        <ele>230.4</ele>
        <time>2022-09-25T10:05:09Z</time>
      </trkpt>
      <trkpt lat="45.71658" lon="5.4223">
        <ele>230.4</ele>
        <time>2022-09-25T10:05:10Z</time>
      </trkpt>
      <trkpt lat="45.71652" lon="5.42231">
        <ele>230.3</ele>
        <time>2022-09-25T10:05:11Z</time>
      </trkpt>
      <trkpt lat="45.71647" lon="5.42231">
        <ele>230.2</ele>
        <time>2022-09-25T10:05:12Z</time>
      </trkpt>
      <trkpt lat="45.7164" lon="5.4223">
        <ele>230.1</ele>
        <time>2022-09-25T10:05:13Z</time>
      </trkpt>
      <trkpt lat="45.71634" lon="5.4223">
        <ele>230</ele>
        <time>2022-09-25T10:05:14Z</time>
      </trkpt>
      <trkpt lat="45.71628" lon="5.42229">
        <ele>229.9</ele>
        <time>2022-09-25T10:05:15Z</time>
      </trkpt>
      <trkpt lat="45.71622" lon="5.42228">
        <ele>229.9</ele>
        <time>2022-09-25T10:05:16Z</time>
      </trkpt>
      <trkpt lat="45.71616" lon="5.42229">
        <ele>229.8</ele>
        <time>2022-09-25T10:05:17Z</time>
      </trkpt>
      <trkpt lat="45.71612" lon="5.4223">
        <ele>229.8</ele>
        <time>2022-09-25T10:05:18Z</time>
      </trkpt>
      <trkpt lat="45.71607" lon="5.42232">
        <ele>229.7</ele>
        <time>2022-09-25T10:05:19Z</time>
      </trkpt>
      <trkpt lat="45.71602" lon="5.42232">
        <ele>229.7</ele>
        <time>2022-09-25T10:05:20Z</time>
      </trkpt>
      <trkpt lat="45.71597" lon="5.42233">
        <ele>229.7</ele>
        <time>2022-09-25T10:05:21Z</time>
      </trkpt>
      <trkpt lat="45.71594" lon="5.42233">
        <ele>229.7</ele>
        <time>2022-09-25T10:05:22Z</time>
      </trkpt>
      <trkpt lat="45.71588" lon="5.4223">
        <ele>229.6</ele>
        <time>2022-09-25T10:05:23Z</time>
      </trkpt>
      <trkpt lat="45.7158" lon="5.42231">
        <ele>229.6</ele>
        <time>2022-09-25T10:05:24Z</time>
      </trkpt>
      <trkpt lat="45.71574" lon="5.42232">
        <ele>229.6</ele>
        <time>2022-09-25T10:05:25Z</time>
      </trkpt>
      <trkpt lat="45.71569" lon="5.42234">
        <ele>229.5</ele>
        <time>2022-09-25T10:05:26Z</time>
      </trkpt>
      <trkpt lat="45.71564" lon="5.42234">
        <ele>229.5</ele>
        <time>2022-09-25T10:05:27Z</time>
      </trkpt>
      <trkpt lat="45.71556" lon="5.4223">
        <ele>229.4</ele>
        <time>2022-09-25T10:05:28Z</time>
      </trkpt>
      <trkpt lat="45.71551" lon="5.4223">
        <ele>229.3</ele>
        <time>2022-09-25T10:05:29Z</time>
      </trkpt>
      <trkpt lat="45.71546" lon="5.42232">
        <ele>229.2</ele>
        <time>2022-09-25T10:05:30Z</time>
      </trkpt>
      <trkpt lat="45.71538" lon="5.42232">
        <ele>229.1</ele>
        <time>2022-09-25T10:05:31Z</time>
      </trkpt>
      <trkpt lat="45.71533" lon="5.42233">
        <ele>229.1</ele>
        <time>2022-09-25T10:05:32Z</time>
      </trkpt>
      <trkpt lat="45.71527" lon="5.42231">
        <ele>229</ele>
        <time>2022-09-25T10:05:33Z</time>
      </trkpt>
      <trkpt lat="45.7152" lon="5.42231">
        <ele>228.9</ele>
        <time>2022-09-25T10:05:34Z</time>
      </trkpt>
      <trkpt lat="45.71512" lon="5.42231">
        <ele>228.8</ele>
        <time>2022-09-25T10:05:35Z</time>
      </trkpt>
      <trkpt lat="45.71504" lon="5.42231">
        <ele>228.7</ele>
        <time>2022-09-25T10:05:36Z</time>
      </trkpt>
      <trkpt lat="45.71497" lon="5.42232">
        <ele>228.6</ele>
        <time>2022-09-25T10:05:37Z</time>
      </trkpt>
      <trkpt lat="45.71493" lon="5.42231">
        <ele>228.6</ele>
        <time>2022-09-25T10:05:38Z</time>
      </trkpt>
      <trkpt lat="45.71485" lon="5.42229">
        <ele>228.5</ele>
        <time>2022-09-25T10:05:39Z</time>
      </trkpt>
      <trkpt lat="45.71477" lon="5.4223">
        <ele>228.4</ele>
        <time>2022-09-25T10:05:40Z</time>
      </trkpt>
      <trkpt lat="45.71471" lon="5.42229">
        <ele>228.3</ele>
        <time>2022-09-25T10:05:41Z</time>
      </trkpt>
      <trkpt lat="45.71465" lon="5.42229">
        <ele>228.2</ele>
        <time>2022-09-25T10:05:42Z</time>
      </trkpt>
      <trkpt lat="45.71458" lon="5.42229">
        <ele>228.2</ele>
        <time>2022-09-25T10:05:43Z</time>
      </trkpt>
      <trkpt lat="45.71451" lon="5.42228">
        <ele>228.1</ele>
        <time>2022-09-25T10:05:44Z</time>
      </trkpt>
      <trkpt lat="45.71445" lon="5.42226">
        <ele>228</ele>
        <time>2022-09-25T10:05:45Z</time>
      </trkpt>
      <trkpt lat="45.71439" lon="5.42226">
        <ele>227.9</ele>
        <time>2022-09-25T10:05:46Z</time>
      </trkpt>
      <trkpt lat="45.71432" lon="5.42227">
        <ele>227.8</ele>
        <time>2022-09-25T10:05:47Z</time>
      </trkpt>
      <trkpt lat="45.71426" lon="5.42227">
        <ele>227.8</ele>
        <time>2022-09-25T10:05:48Z</time>
      </trkpt>
      <trkpt lat="45.7142" lon="5.42226">
        <ele>227.7</ele>
        <time>2022-09-25T10:05:49Z</time>
      </trkpt>
      <trkpt lat="45.71413" lon="5.42225">
        <ele>227.6</ele>
        <time>2022-09-25T10:05:50Z</time>
      </trkpt>
      <trkpt lat="45.71408" lon="5.42225">
        <ele>227.6</ele>
        <time>2022-09-25T10:05:51Z</time>
      </trkpt>
      <trkpt lat="45.71401" lon="5.42224">
        <ele>227.6</ele>
        <time>2022-09-25T10:05:52Z</time>
      </trkpt>
      <trkpt lat="45.71395" lon="5.42222">
        <ele>227.5</ele>
        <time>2022-09-25T10:05:53Z</time>
      </trkpt>
      <trkpt lat="45.71388" lon="5.4222">
        <ele>227.5</ele>
        <time>2022-09-25T10:05:54Z</time>
      </trkpt>
      <trkpt lat="45.71382" lon="5.4222">
        <ele>227.5</ele>
        <time>2022-09-25T10:05:55Z</time>
      </trkpt>
      <trkpt lat="45.71376" lon="5.42218">
        <ele>227.4</ele>
        <time>2022-09-25T10:05:56Z</time>
      </trkpt>
      <trkpt lat="45.7137" lon="5.42217">
        <ele>227.3</ele>
        <time>2022-09-25T10:05:57Z</time>
      </trkpt>
      <trkpt lat="45.71364" lon="5.42215">
        <ele>227.3</ele>
        <time>2022-09-25T10:05:58Z</time>
      </trkpt>
      <trkpt lat="45.71358" lon="5.42213">
        <ele>227.2</ele>
        <time>2022-09-25T10:05:59Z</time>
      </trkpt>
      <trkpt lat="45.71352" lon="5.42211">
        <ele>227.1</ele>
        <time>2022-09-25T10:06:00Z</time>
      </trkpt>
      <trkpt lat="45.71346" lon="5.42209">
        <ele>227.1</ele>
        <time>2022-09-25T10:06:01Z</time>
      </trkpt>
      <trkpt lat="45.7134" lon="5.42206">
        <ele>227</ele>
        <time>2022-09-25T10:06:02Z</time>
      </trkpt>
      <trkpt lat="45.71334" lon="5.42206">
        <ele>226.9</ele>
        <time>2022-09-25T10:06:03Z</time>
      </trkpt>
      <trkpt lat="45.71327" lon="5.42204">
        <ele>226.9</ele>
        <time>2022-09-25T10:06:04Z</time>
      </trkpt>
      <trkpt lat="45.71323" lon="5.422">
        <ele>226.8</ele>
        <time>2022-09-25T10:06:05Z</time>
      </trkpt>
      <trkpt lat="45.71316" lon="5.42198">
        <ele>226.8</ele>
        <time>2022-09-25T10:06:06Z</time>
      </trkpt>
      <trkpt lat="45.71311" lon="5.42195">
        <ele>226.7</ele>
        <time>2022-09-25T10:06:07Z</time>
      </trkpt>
      <trkpt lat="45.71304" lon="5.42192">
        <ele>226.7</ele>
        <time>2022-09-25T10:06:08Z</time>
      </trkpt>
      <trkpt lat="45.71298" lon="5.42188">
        <ele>226.6</ele>
        <time>2022-09-25T10:06:09Z</time>
      </trkpt>
      <trkpt lat="45.71291" lon="5.42186">
        <ele>226.6</ele>
        <time>2022-09-25T10:06:10Z</time>
      </trkpt>
      <trkpt lat="45.71287" lon="5.42184">
        <ele>226.5</ele>
        <time>2022-09-25T10:06:11Z</time>
      </trkpt>
      <trkpt lat="45.71281" lon="5.42179">
        <ele>226.5</ele>
        <time>2022-09-25T10:06:12Z</time>
      </trkpt>
      <trkpt lat="45.71275" lon="5.42177">
        <ele>226.5</ele>
        <time>2022-09-25T10:06:13Z</time>
      </trkpt>
      <trkpt lat="45.7127" lon="5.42174">
        <ele>226.4</ele>
        <time>2022-09-25T10:06:14Z</time>
      </trkpt>
      <trkpt lat="45.71264" lon="5.4217">
        <ele>226.4</ele>
        <time>2022-09-25T10:06:15Z</time>
      </trkpt>
      <trkpt lat="45.71258" lon="5.42165">
        <ele>226.3</ele>
        <time>2022-09-25T10:06:16Z</time>
      </trkpt>
      <trkpt lat="45.71252" lon="5.42161">
        <ele>226.3</ele>
        <time>2022-09-25T10:06:17Z</time>
      </trkpt>
      <trkpt lat="45.71245" lon="5.42157">
        <ele>226.2</ele>
        <time>2022-09-25T10:06:18Z</time>
      </trkpt>
      <trkpt lat="45.71239" lon="5.42154">
        <ele>226.2</ele>
        <time>2022-09-25T10:06:19Z</time>
      </trkpt>
      <trkpt lat="45.71234" lon="5.42151">
        <ele>226.2</ele>
        <time>2022-09-25T10:06:20Z</time>
      </trkpt>
      <trkpt lat="45.71228" lon="5.42148">
        <ele>226.1</ele>
        <time>2022-09-25T10:06:21Z</time>
      </trkpt>
      <trkpt lat="45.71222" lon="5.42143">
        <ele>226</ele>
        <time>2022-09-25T10:06:22Z</time>
      </trkpt>
      <trkpt lat="45.71217" lon="5.42138">
        <ele>226</ele>
        <time>2022-09-25T10:06:23Z</time>
      </trkpt>
      <trkpt lat="45.71211" lon="5.42133">
        <ele>225.9</ele>
        <time>2022-09-25T10:06:24Z</time>
      </trkpt>
      <trkpt lat="45.71205" lon="5.42127">
        <ele>225.9</ele>
        <time>2022-09-25T10:06:25Z</time>
      </trkpt>
      <trkpt lat="45.71199" lon="5.42122">
        <ele>225.8</ele>
        <time>2022-09-25T10:06:26Z</time>
      </trkpt>
      <trkpt lat="45.71194" lon="5.42116">
        <ele>225.7</ele>
        <time>2022-09-25T10:06:27Z</time>
      </trkpt>
      <trkpt lat="45.71188" lon="5.4211">
        <ele>225.7</ele>
        <time>2022-09-25T10:06:28Z</time>
      </trkpt>
      <trkpt lat="45.71183" lon="5.42105">
        <ele>225.6</ele>
        <time>2022-09-25T10:06:29Z</time>
      </trkpt>
      <trkpt lat="45.71177" lon="5.421">
        <ele>225.5</ele>
        <time>2022-09-25T10:06:30Z</time>
      </trkpt>
      <trkpt lat="45.71173" lon="5.42094">
        <ele>225.5</ele>
        <time>2022-09-25T10:06:31Z</time>
      </trkpt>
      <trkpt lat="45.71166" lon="5.42087">
        <ele>225.4</ele>
        <time>2022-09-25T10:06:32Z</time>
      </trkpt>
      <trkpt lat="45.71162" lon="5.42082">
        <ele>225.4</ele>
        <time>2022-09-25T10:06:33Z</time>
      </trkpt>
      <trkpt lat="45.71155" lon="5.42077">
        <ele>225.4</ele>
        <time>2022-09-25T10:06:34Z</time>
      </trkpt>
      <trkpt lat="45.71152" lon="5.42072">
        <ele>225.4</ele>
        <time>2022-09-25T10:06:35Z</time>
      </trkpt>
      <trkpt lat="45.71149" lon="5.42066">
        <ele>225.4</ele>
        <time>2022-09-25T10:06:36Z</time>
      </trkpt>
      <trkpt lat="45.71147" lon="5.4206">
        <ele>225.4</ele>
        <time>2022-09-25T10:06:37Z</time>
      </trkpt>
      <trkpt lat="45.71142" lon="5.42056">
        <ele>225.4</ele>
        <time>2022-09-25T10:06:38Z</time>
      </trkpt>
      <trkpt lat="45.71137" lon="5.42051">
        <ele>225.5</ele>
        <time>2022-09-25T10:06:39Z</time>
      </trkpt>
      <trkpt lat="45.71132" lon="5.42044">
        <ele>225.5</ele>
        <time>2022-09-25T10:06:40Z</time>
      </trkpt>
      <trkpt lat="45.71129" lon="5.42042">
        <ele>225.5</ele>
        <time>2022-09-25T10:06:41Z</time>
      </trkpt>
      <trkpt lat="45.71127" lon="5.42037">
        <ele>225.5</ele>
        <time>2022-09-25T10:06:42Z</time>
      </trkpt>
      <trkpt lat="45.71125" lon="5.42033">
        <ele>225.6</ele>
        <time>2022-09-25T10:06:43Z</time>
      </trkpt>
      <trkpt lat="45.71124" lon="5.42032">
        <ele>225.6</ele>
        <time>2022-09-25T10:06:44Z</time>
      </trkpt>
      <trkpt lat="45.71122" lon="5.42031">
        <ele>225.6</ele>
        <time>2022-09-25T10:06:45Z</time>
      </trkpt>
      <trkpt lat="45.71121" lon="5.42031">
        <ele>225.6</ele>
        <time>2022-09-25T10:06:46Z</time>
      </trkpt>
      <trkpt lat="45.7112" lon="5.4203">
        <ele>225.5</ele>
        <time>2022-09-25T10:06:47Z</time>
      </trkpt>
      <trkpt lat="45.71119" lon="5.42029">
        <ele>225.5</ele>
        <time>2022-09-25T10:06:48Z</time>
      </trkpt>
      <trkpt lat="45.71118" lon="5.42028">
        <ele>225.5</ele>
        <time>2022-09-25T10:06:49Z</time>
      </trkpt>
      <trkpt lat="45.71115" lon="5.42028">
        <ele>225.5</ele>
        <time>2022-09-25T10:06:50Z</time>
      </trkpt>
      <trkpt lat="45.71112" lon="5.4203">
        <ele>225.4</ele>
        <time>2022-09-25T10:06:51Z</time>
      </trkpt>
      <trkpt lat="45.71111" lon="5.42031">
        <ele>225.4</ele>
        <time>2022-09-25T10:06:52Z</time>
      </trkpt>
      <trkpt lat="45.7111" lon="5.42032">
        <ele>225.4</ele>
        <time>2022-09-25T10:06:53Z</time>
      </trkpt>
      <trkpt lat="45.71108" lon="5.42032">
        <ele>225.3</ele>
        <time>2022-09-25T10:06:54Z</time>
      </trkpt>
      <trkpt lat="45.71106" lon="5.42034">
        <ele>225.2</ele>
        <time>2022-09-25T10:06:55Z</time>
      </trkpt>
      <trkpt lat="45.71105" lon="5.42033">
        <ele>225.2</ele>
        <time>2022-09-25T10:06:56Z</time>
      </trkpt>
      <trkpt lat="45.711" lon="5.42036">
        <ele>224.9</ele>
        <time>2022-09-25T10:06:57Z</time>
      </trkpt>
      <trkpt lat="45.71098" lon="5.42037">
        <ele>224.8</ele>
        <time>2022-09-25T10:06:58Z</time>
      </trkpt>
      <trkpt lat="45.71095" lon="5.42037">
        <ele>224.7</ele>
        <time>2022-09-25T10:06:59Z</time>
      </trkpt>
      <trkpt lat="45.71092" lon="5.42039">
        <ele>224.5</ele>
        <time>2022-09-25T10:07:00Z</time>
      </trkpt>
      <trkpt lat="45.71089" lon="5.42042">
        <ele>224.3</ele>
        <time>2022-09-25T10:07:01Z</time>
      </trkpt>
      <trkpt lat="45.71084" lon="5.42044">
        <ele>224.1</ele>
        <time>2022-09-25T10:07:02Z</time>
      </trkpt>
      <trkpt lat="45.7108" lon="5.42049">
        <ele>223.9</ele>
        <time>2022-09-25T10:07:03Z</time>
      </trkpt>
      <trkpt lat="45.71075" lon="5.42051">
        <ele>223.7</ele>
        <time>2022-09-25T10:07:04Z</time>
      </trkpt>
      <trkpt lat="45.71072" lon="5.42053">
        <ele>223.5</ele>
        <time>2022-09-25T10:07:05Z</time>
      </trkpt>
      <trkpt lat="45.71066" lon="5.42056">
        <ele>223.3</ele>
        <time>2022-09-25T10:07:06Z</time>
      </trkpt>
      <trkpt lat="45.71061" lon="5.42059">
        <ele>223.2</ele>
        <time>2022-09-25T10:07:07Z</time>
      </trkpt>
      <trkpt lat="45.71057" lon="5.42062">
        <ele>223</ele>
        <time>2022-09-25T10:07:08Z</time>
      </trkpt>
      <trkpt lat="45.71052" lon="5.42066">
        <ele>222.9</ele>
        <time>2022-09-25T10:07:09Z</time>
      </trkpt>
      <trkpt lat="45.71047" lon="5.42069">
        <ele>222.8</ele>
        <time>2022-09-25T10:07:10Z</time>
      </trkpt>
      <trkpt lat="45.71043" lon="5.42071">
        <ele>222.7</ele>
        <time>2022-09-25T10:07:11Z</time>
      </trkpt>
      <trkpt lat="45.71039" lon="5.42071">
        <ele>222.6</ele>
        <time>2022-09-25T10:07:12Z</time>
      </trkpt>
      <trkpt lat="45.71036" lon="5.42074">
        <ele>222.5</ele>
        <time>2022-09-25T10:07:13Z</time>
      </trkpt>
      <trkpt lat="45.71032" lon="5.42076">
        <ele>222.3</ele>
        <time>2022-09-25T10:07:14Z</time>
      </trkpt>
      <trkpt lat="45.71026" lon="5.42079">
        <ele>222.2</ele>
        <time>2022-09-25T10:07:15Z</time>
      </trkpt>
      <trkpt lat="45.7102" lon="5.4208">
        <ele>222</ele>
        <time>2022-09-25T10:07:16Z</time>
      </trkpt>
      <trkpt lat="45.71015" lon="5.42083">
        <ele>221.9</ele>
        <time>2022-09-25T10:07:17Z</time>
      </trkpt>
      <trkpt lat="45.7101" lon="5.42085">
        <ele>221.7</ele>
        <time>2022-09-25T10:07:18Z</time>
      </trkpt>
      <trkpt lat="45.71005" lon="5.42086">
        <ele>221.7</ele>
        <time>2022-09-25T10:07:19Z</time>
      </trkpt>
      <trkpt lat="45.71" lon="5.42087">
        <ele>221.5</ele>
        <time>2022-09-25T10:07:20Z</time>
      </trkpt>
      <trkpt lat="45.70995" lon="5.42089">
        <ele>221.5</ele>
        <time>2022-09-25T10:07:21Z</time>
      </trkpt>
      <trkpt lat="45.70989" lon="5.42091">
        <ele>221.4</ele>
        <time>2022-09-25T10:07:22Z</time>
      </trkpt>
      <trkpt lat="45.70984" lon="5.42092">
        <ele>221.4</ele>
        <time>2022-09-25T10:07:23Z</time>
      </trkpt>
      <trkpt lat="45.70979" lon="5.42093">
        <ele>221.3</ele>
        <time>2022-09-25T10:07:24Z</time>
      </trkpt>
      <trkpt lat="45.70975" lon="5.42094">
        <ele>221.3</ele>
        <time>2022-09-25T10:07:25Z</time>
      </trkpt>
      <trkpt lat="45.7097" lon="5.42096">
        <ele>221.3</ele>
        <time>2022-09-25T10:07:26Z</time>
      </trkpt>
      <trkpt lat="45.70965" lon="5.42098">
        <ele>221.4</ele>
        <time>2022-09-25T10:07:27Z</time>
      </trkpt>
      <trkpt lat="45.70961" lon="5.42099">
        <ele>221.4</ele>
        <time>2022-09-25T10:07:28Z</time>
      </trkpt>
      <trkpt lat="45.70957" lon="5.42101">
        <ele>221.4</ele>
        <time>2022-09-25T10:07:29Z</time>
      </trkpt>
      <trkpt lat="45.70954" lon="5.42101">
        <ele>221.4</ele>
        <time>2022-09-25T10:07:30Z</time>
      </trkpt>
      <trkpt lat="45.70949" lon="5.42102">
        <ele>221.5</ele>
        <time>2022-09-25T10:07:31Z</time>
      </trkpt>
      <trkpt lat="45.70945" lon="5.42101">
        <ele>221.5</ele>
        <time>2022-09-25T10:07:32Z</time>
      </trkpt>
      <trkpt lat="45.70942" lon="5.42102">
        <ele>221.6</ele>
        <time>2022-09-25T10:07:33Z</time>
      </trkpt>
      <trkpt lat="45.7094" lon="5.42101">
        <ele>221.6</ele>
        <time>2022-09-25T10:07:34Z</time>
      </trkpt>
      <trkpt lat="45.7094" lon="5.42101">
        <ele>221.6</ele>
        <time>2022-09-25T10:07:35Z</time>
      </trkpt>
      <trkpt lat="45.7094" lon="5.421">
        <ele>221.6</ele>
        <time>2022-09-25T10:07:36Z</time>
      </trkpt>
      <trkpt lat="45.70939" lon="5.421">
        <ele>221.6</ele>
        <time>2022-09-25T10:07:37Z</time>
      </trkpt>
      <trkpt lat="45.70937" lon="5.421">
        <ele>221.6</ele>
        <time>2022-09-25T10:07:38Z</time>
      </trkpt>
      <trkpt lat="45.70936" lon="5.42099">
        <ele>221.6</ele>
        <time>2022-09-25T10:07:39Z</time>
      </trkpt>
      <trkpt lat="45.70935" lon="5.42099">
        <ele>221.6</ele>
        <time>2022-09-25T10:07:40Z</time>
      </trkpt>
      <trkpt lat="45.70932" lon="5.42099">
        <ele>221.7</ele>
        <time>2022-09-25T10:07:41Z</time>
      </trkpt>
      <trkpt lat="45.70931" lon="5.42099">
        <ele>221.7</ele>
        <time>2022-09-25T10:07:42Z</time>
      </trkpt>
      <trkpt lat="45.70927" lon="5.42097">
        <ele>221.6</ele>
        <time>2022-09-25T10:07:43Z</time>
      </trkpt>
      <trkpt lat="45.70926" lon="5.42095">
        <ele>221.6</ele>
        <time>2022-09-25T10:07:44Z</time>
      </trkpt>
      <trkpt lat="45.70924" lon="5.42094">
        <ele>221.5</ele>
        <time>2022-09-25T10:07:45Z</time>
      </trkpt>
      <trkpt lat="45.70921" lon="5.42092">
        <ele>221.4</ele>
        <time>2022-09-25T10:07:46Z</time>
      </trkpt>
      <trkpt lat="45.70917" lon="5.4209">
        <ele>221.4</ele>
        <time>2022-09-25T10:07:47Z</time>
      </trkpt>
      <trkpt lat="45.70913" lon="5.42091">
        <ele>221.3</ele>
        <time>2022-09-25T10:07:48Z</time>
      </trkpt>
      <trkpt lat="45.70909" lon="5.42092">
        <ele>221.2</ele>
        <time>2022-09-25T10:07:49Z</time>
      </trkpt>
      <trkpt lat="45.70904" lon="5.42091">
        <ele>221.2</ele>
        <time>2022-09-25T10:07:50Z</time>
      </trkpt>
      <trkpt lat="45.709" lon="5.42091">
        <ele>221.1</ele>
        <time>2022-09-25T10:07:51Z</time>
      </trkpt>
      <trkpt lat="45.70897" lon="5.42092">
        <ele>221.1</ele>
        <time>2022-09-25T10:07:52Z</time>
      </trkpt>
      <trkpt lat="45.70892" lon="5.42091">
        <ele>221.1</ele>
        <time>2022-09-25T10:07:53Z</time>
      </trkpt>
      <trkpt lat="45.70887" lon="5.42091">
        <ele>221.1</ele>
        <time>2022-09-25T10:07:54Z</time>
      </trkpt>
      <trkpt lat="45.70883" lon="5.42092">
        <ele>221.1</ele>
        <time>2022-09-25T10:07:55Z</time>
      </trkpt>
      <trkpt lat="45.70879" lon="5.42092">
        <ele>221.1</ele>
        <time>2022-09-25T10:07:56Z</time>
      </trkpt>
      <trkpt lat="45.70875" lon="5.42092">
        <ele>221.1</ele>
        <time>2022-09-25T10:07:57Z</time>
      </trkpt>
      <trkpt lat="45.7087" lon="5.42092">
        <ele>221.2</ele>
        <time>2022-09-25T10:07:58Z</time>
      </trkpt>
      <trkpt lat="45.70865" lon="5.42092">
        <ele>221.2</ele>
        <time>2022-09-25T10:07:59Z</time>
      </trkpt>
      <trkpt lat="45.7086" lon="5.42092">
        <ele>221.2</ele>
        <time>2022-09-25T10:08:00Z</time>
      </trkpt>
      <trkpt lat="45.70855" lon="5.42093">
        <ele>221.2</ele>
        <time>2022-09-25T10:08:01Z</time>
      </trkpt>
      <trkpt lat="45.7085" lon="5.42092">
        <ele>221.2</ele>
        <time>2022-09-25T10:08:02Z</time>
      </trkpt>
      <trkpt lat="45.70845" lon="5.42093">
        <ele>221.2</ele>
        <time>2022-09-25T10:08:03Z</time>
      </trkpt>
      <trkpt lat="45.7084" lon="5.42093">
        <ele>221.2</ele>
        <time>2022-09-25T10:08:04Z</time>
      </trkpt>
      <trkpt lat="45.70834" lon="5.42092">
        <ele>221.2</ele>
        <time>2022-09-25T10:08:05Z</time>
      </trkpt>
      <trkpt lat="45.70828" lon="5.42091">
        <ele>221.2</ele>
        <time>2022-09-25T10:08:06Z</time>
      </trkpt>
      <trkpt lat="45.70822" lon="5.42092">
        <ele>221.2</ele>
        <time>2022-09-25T10:08:07Z</time>
      </trkpt>
      <trkpt lat="45.70817" lon="5.42091">
        <ele>221.1</ele>
        <time>2022-09-25T10:08:08Z</time>
      </trkpt>
      <trkpt lat="45.7081" lon="5.42091">
        <ele>221.1</ele>
        <time>2022-09-25T10:08:09Z</time>
      </trkpt>
      <trkpt lat="45.70805" lon="5.42091">
        <ele>221</ele>
        <time>2022-09-25T10:08:10Z</time>
      </trkpt>
      <trkpt lat="45.70799" lon="5.42091">
        <ele>221</ele>
        <time>2022-09-25T10:08:11Z</time>
      </trkpt>
      <trkpt lat="45.70794" lon="5.42092">
        <ele>221</ele>
        <time>2022-09-25T10:08:12Z</time>
      </trkpt>
      <trkpt lat="45.70788" lon="5.42092">
        <ele>221</ele>
        <time>2022-09-25T10:08:13Z</time>
      </trkpt>
      <trkpt lat="45.70784" lon="5.42093">
        <ele>220.9</ele>
        <time>2022-09-25T10:08:14Z</time>
      </trkpt>
      <trkpt lat="45.70779" lon="5.42092">
        <ele>220.9</ele>
        <time>2022-09-25T10:08:15Z</time>
      </trkpt>
      <trkpt lat="45.70774" lon="5.42091">
        <ele>220.9</ele>
        <time>2022-09-25T10:08:16Z</time>
      </trkpt>
      <trkpt lat="45.70769" lon="5.42091">
        <ele>220.9</ele>
        <time>2022-09-25T10:08:17Z</time>
      </trkpt>
      <trkpt lat="45.70763" lon="5.42093">
        <ele>220.9</ele>
        <time>2022-09-25T10:08:18Z</time>
      </trkpt>
      <trkpt lat="45.70759" lon="5.42092">
        <ele>220.9</ele>
        <time>2022-09-25T10:08:19Z</time>
      </trkpt>
      <trkpt lat="45.70755" lon="5.42092">
        <ele>220.9</ele>
        <time>2022-09-25T10:08:20Z</time>
      </trkpt>
      <trkpt lat="45.7075" lon="5.42093">
        <ele>221</ele>
        <time>2022-09-25T10:08:21Z</time>
      </trkpt>
      <trkpt lat="45.70743" lon="5.42092">
        <ele>221</ele>
        <time>2022-09-25T10:08:22Z</time>
      </trkpt>
      <trkpt lat="45.70739" lon="5.42092">
        <ele>221</ele>
        <time>2022-09-25T10:08:23Z</time>
      </trkpt>
      <trkpt lat="45.70733" lon="5.42091">
        <ele>221</ele>
        <time>2022-09-25T10:08:24Z</time>
      </trkpt>
      <trkpt lat="45.70728" lon="5.42091">
        <ele>221.1</ele>
        <time>2022-09-25T10:08:25Z</time>
      </trkpt>
      <trkpt lat="45.70723" lon="5.42091">
        <ele>221.1</ele>
        <time>2022-09-25T10:08:26Z</time>
      </trkpt>
      <trkpt lat="45.70718" lon="5.42091">
        <ele>221.1</ele>
        <time>2022-09-25T10:08:27Z</time>
      </trkpt>
      <trkpt lat="45.70713" lon="5.4209">
        <ele>221.2</ele>
        <time>2022-09-25T10:08:28Z</time>
      </trkpt>
      <trkpt lat="45.70708" lon="5.42089">
        <ele>221.2</ele>
        <time>2022-09-25T10:08:29Z</time>
      </trkpt>
      <trkpt lat="45.70704" lon="5.4209">
        <ele>221.2</ele>
        <time>2022-09-25T10:08:30Z</time>
      </trkpt>
      <trkpt lat="45.707" lon="5.42092">
        <ele>221.3</ele>
        <time>2022-09-25T10:08:31Z</time>
      </trkpt>
      <trkpt lat="45.70697" lon="5.42096">
        <ele>221.2</ele>
        <time>2022-09-25T10:08:32Z</time>
      </trkpt>
      <trkpt lat="45.70694" lon="5.421">
        <ele>221.1</ele>
        <time>2022-09-25T10:08:33Z</time>
      </trkpt>
      <trkpt lat="45.70692" lon="5.42105">
        <ele>221</ele>
        <time>2022-09-25T10:08:34Z</time>
      </trkpt>
      <trkpt lat="45.70692" lon="5.42112">
        <ele>220.9</ele>
        <time>2022-09-25T10:08:35Z</time>
      </trkpt>
      <trkpt lat="45.70693" lon="5.42119">
        <ele>220.9</ele>
        <time>2022-09-25T10:08:36Z</time>
      </trkpt>
      <trkpt lat="45.70694" lon="5.42125">
        <ele>220.9</ele>
        <time>2022-09-25T10:08:37Z</time>
      </trkpt>
      <trkpt lat="45.70695" lon="5.42133">
        <ele>220.9</ele>
        <time>2022-09-25T10:08:38Z</time>
      </trkpt>
      <trkpt lat="45.70697" lon="5.42139">
        <ele>220.9</ele>
        <time>2022-09-25T10:08:39Z</time>
      </trkpt>
      <trkpt lat="45.70699" lon="5.42145">
        <ele>220.9</ele>
        <time>2022-09-25T10:08:40Z</time>
      </trkpt>
      <trkpt lat="45.707" lon="5.4215">
        <ele>220.9</ele>
        <time>2022-09-25T10:08:41Z</time>
      </trkpt>
      <trkpt lat="45.70702" lon="5.42155">
        <ele>220.9</ele>
        <time>2022-09-25T10:08:42Z</time>
      </trkpt>
      <trkpt lat="45.70704" lon="5.4216">
        <ele>220.9</ele>
        <time>2022-09-25T10:08:43Z</time>
      </trkpt>
      <trkpt lat="45.70705" lon="5.42164">
        <ele>220.9</ele>
        <time>2022-09-25T10:08:44Z</time>
      </trkpt>
      <trkpt lat="45.70708" lon="5.42169">
        <ele>220.9</ele>
        <time>2022-09-25T10:08:45Z</time>
      </trkpt>
      <trkpt lat="45.70709" lon="5.42175">
        <ele>220.9</ele>
        <time>2022-09-25T10:08:46Z</time>
      </trkpt>
      <trkpt lat="45.70711" lon="5.42182">
        <ele>220.8</ele>
        <time>2022-09-25T10:08:47Z</time>
      </trkpt>
      <trkpt lat="45.70711" lon="5.42188">
        <ele>220.7</ele>
        <time>2022-09-25T10:08:48Z</time>
      </trkpt>
      <trkpt lat="45.70712" lon="5.42196">
        <ele>220.6</ele>
        <time>2022-09-25T10:08:49Z</time>
      </trkpt>
      <trkpt lat="45.70715" lon="5.42203">
        <ele>220.6</ele>
        <time>2022-09-25T10:08:50Z</time>
      </trkpt>
      <trkpt lat="45.70716" lon="5.4221">
        <ele>220.5</ele>
        <time>2022-09-25T10:08:51Z</time>
      </trkpt>
      <trkpt lat="45.70717" lon="5.42219">
        <ele>220.5</ele>
        <time>2022-09-25T10:08:52Z</time>
      </trkpt>
      <trkpt lat="45.70719" lon="5.42226">
        <ele>220.4</ele>
        <time>2022-09-25T10:08:53Z</time>
      </trkpt>
      <trkpt lat="45.70719" lon="5.42233">
        <ele>220.4</ele>
        <time>2022-09-25T10:08:54Z</time>
      </trkpt>
      <trkpt lat="45.7072" lon="5.42238">
        <ele>220.4</ele>
        <time>2022-09-25T10:08:55Z</time>
      </trkpt>
      <trkpt lat="45.70721" lon="5.42246">
        <ele>220.4</ele>
        <time>2022-09-25T10:08:56Z</time>
      </trkpt>
      <trkpt lat="45.70722" lon="5.42254">
        <ele>220.3</ele>
        <time>2022-09-25T10:08:57Z</time>
      </trkpt>
      <trkpt lat="45.70723" lon="5.42261">
        <ele>220.3</ele>
        <time>2022-09-25T10:08:58Z</time>
      </trkpt>
      <trkpt lat="45.70724" lon="5.4227">
        <ele>220.3</ele>
        <time>2022-09-25T10:08:59Z</time>
      </trkpt>
      <trkpt lat="45.70723" lon="5.42279">
        <ele>220.3</ele>
        <time>2022-09-25T10:09:00Z</time>
      </trkpt>
      <trkpt lat="45.70723" lon="5.42285">
        <ele>220.3</ele>
        <time>2022-09-25T10:09:01Z</time>
      </trkpt>
      <trkpt lat="45.70724" lon="5.42292">
        <ele>220.4</ele>
        <time>2022-09-25T10:09:02Z</time>
      </trkpt>
      <trkpt lat="45.70722" lon="5.42298">
        <ele>220.4</ele>
        <time>2022-09-25T10:09:03Z</time>
      </trkpt>
      <trkpt lat="45.70721" lon="5.42303">
        <ele>220.4</ele>
        <time>2022-09-25T10:09:04Z</time>
      </trkpt>
      <trkpt lat="45.7072" lon="5.42307">
        <ele>220.4</ele>
        <time>2022-09-25T10:09:05Z</time>
      </trkpt>
      <trkpt lat="45.7072" lon="5.42313">
        <ele>220.4</ele>
        <time>2022-09-25T10:09:06Z</time>
      </trkpt>
      <trkpt lat="45.7072" lon="5.42318">
        <ele>220.4</ele>
        <time>2022-09-25T10:09:07Z</time>
      </trkpt>
      <trkpt lat="45.70718" lon="5.42324">
        <ele>220.3</ele>
        <time>2022-09-25T10:09:08Z</time>
      </trkpt>
      <trkpt lat="45.70717" lon="5.42328">
        <ele>220.3</ele>
        <time>2022-09-25T10:09:09Z</time>
      </trkpt>
      <trkpt lat="45.70716" lon="5.42333">
        <ele>220.3</ele>
        <time>2022-09-25T10:09:10Z</time>
      </trkpt>
      <trkpt lat="45.70715" lon="5.42338">
        <ele>220.2</ele>
        <time>2022-09-25T10:09:11Z</time>
      </trkpt>
      <trkpt lat="45.70714" lon="5.42344">
        <ele>220.2</ele>
        <time>2022-09-25T10:09:12Z</time>
      </trkpt>
      <trkpt lat="45.70713" lon="5.4235">
        <ele>220.1</ele>
        <time>2022-09-25T10:09:13Z</time>
      </trkpt>
      <trkpt lat="45.70712" lon="5.42356">
        <ele>220.1</ele>
        <time>2022-09-25T10:09:14Z</time>
      </trkpt>
      <trkpt lat="45.70712" lon="5.42362">
        <ele>220.1</ele>
        <time>2022-09-25T10:09:15Z</time>
      </trkpt>
      <trkpt lat="45.70712" lon="5.42368">
        <ele>220</ele>
        <time>2022-09-25T10:09:16Z</time>
      </trkpt>
      <trkpt lat="45.70712" lon="5.42372">
        <ele>220</ele>
        <time>2022-09-25T10:09:17Z</time>
      </trkpt>
      <trkpt lat="45.70713" lon="5.42377">
        <ele>220</ele>
        <time>2022-09-25T10:09:18Z</time>
      </trkpt>
      <trkpt lat="45.70713" lon="5.42379">
        <ele>220</ele>
        <time>2022-09-25T10:09:19Z</time>
      </trkpt>
      <trkpt lat="45.70713" lon="5.42384">
        <ele>220</ele>
        <time>2022-09-25T10:09:20Z</time>
      </trkpt>
      <trkpt lat="45.70713" lon="5.42386">
        <ele>219.9</ele>
        <time>2022-09-25T10:09:21Z</time>
      </trkpt>
      <trkpt lat="45.70713" lon="5.42393">
        <ele>219.9</ele>
        <time>2022-09-25T10:09:22Z</time>
      </trkpt>
      <trkpt lat="45.70714" lon="5.42397">
        <ele>219.9</ele>
        <time>2022-09-25T10:09:23Z</time>
      </trkpt>
      <trkpt lat="45.70714" lon="5.42402">
        <ele>219.9</ele>
        <time>2022-09-25T10:09:24Z</time>
      </trkpt>
      <trkpt lat="45.70714" lon="5.42409">
        <ele>219.9</ele>
        <time>2022-09-25T10:09:25Z</time>
      </trkpt>
      <trkpt lat="45.70715" lon="5.42417">
        <ele>220</ele>
        <time>2022-09-25T10:09:26Z</time>
      </trkpt>
      <trkpt lat="45.70716" lon="5.42426">
        <ele>220</ele>
        <time>2022-09-25T10:09:27Z</time>
      </trkpt>
      <trkpt lat="45.70717" lon="5.42436">
        <ele>220</ele>
        <time>2022-09-25T10:09:28Z</time>
      </trkpt>
      <trkpt lat="45.70717" lon="5.42441">
        <ele>220</ele>
        <time>2022-09-25T10:09:29Z</time>
      </trkpt>
      <trkpt lat="45.70718" lon="5.42445">
        <ele>220</ele>
        <time>2022-09-25T10:09:30Z</time>
      </trkpt>
      <trkpt lat="45.70717" lon="5.42453">
        <ele>220.1</ele>
        <time>2022-09-25T10:09:31Z</time>
      </trkpt>
      <trkpt lat="45.70717" lon="5.42459">
        <ele>220.1</ele>
        <time>2022-09-25T10:09:32Z</time>
      </trkpt>
      <trkpt lat="45.70719" lon="5.42465">
        <ele>220.2</ele>
        <time>2022-09-25T10:09:33Z</time>
      </trkpt>
      <trkpt lat="45.70719" lon="5.42472">
        <ele>220.2</ele>
        <time>2022-09-25T10:09:34Z</time>
      </trkpt>
      <trkpt lat="45.70719" lon="5.42475">
        <ele>220.2</ele>
        <time>2022-09-25T10:09:35Z</time>
      </trkpt>
      <trkpt lat="45.70718" lon="5.42482">
        <ele>220.3</ele>
        <time>2022-09-25T10:09:36Z</time>
      </trkpt>
      <trkpt lat="45.7072" lon="5.42488">
        <ele>220.3</ele>
        <time>2022-09-25T10:09:37Z</time>
      </trkpt>
      <trkpt lat="45.70719" lon="5.42497">
        <ele>220.4</ele>
        <time>2022-09-25T10:09:38Z</time>
      </trkpt>
      <trkpt lat="45.70718" lon="5.42505">
        <ele>220.5</ele>
        <time>2022-09-25T10:09:39Z</time>
      </trkpt>
      <trkpt lat="45.70718" lon="5.4251">
        <ele>220.5</ele>
        <time>2022-09-25T10:09:40Z</time>
      </trkpt>
      <trkpt lat="45.70718" lon="5.42517">
        <ele>220.6</ele>
        <time>2022-09-25T10:09:41Z</time>
      </trkpt>
      <trkpt lat="45.70717" lon="5.42522">
        <ele>220.7</ele>
        <time>2022-09-25T10:09:42Z</time>
      </trkpt>
      <trkpt lat="45.70716" lon="5.42528">
        <ele>220.7</ele>
        <time>2022-09-25T10:09:43Z</time>
      </trkpt>
      <trkpt lat="45.70716" lon="5.42534">
        <ele>220.8</ele>
        <time>2022-09-25T10:09:44Z</time>
      </trkpt>
      <trkpt lat="45.70715" lon="5.4254">
        <ele>220.8</ele>
        <time>2022-09-25T10:09:45Z</time>
      </trkpt>
      <trkpt lat="45.70713" lon="5.42548">
        <ele>221</ele>
        <time>2022-09-25T10:09:46Z</time>
      </trkpt>
      <trkpt lat="45.70711" lon="5.42554">
        <ele>221</ele>
        <time>2022-09-25T10:09:47Z</time>
      </trkpt>
      <trkpt lat="45.7071" lon="5.42561">
        <ele>221.1</ele>
        <time>2022-09-25T10:09:48Z</time>
      </trkpt>
      <trkpt lat="45.70709" lon="5.42567">
        <ele>221.3</ele>
        <time>2022-09-25T10:09:49Z</time>
      </trkpt>
      <trkpt lat="45.70708" lon="5.42571">
        <ele>221.3</ele>
        <time>2022-09-25T10:09:50Z</time>
      </trkpt>
      <trkpt lat="45.70707" lon="5.42577">
        <ele>221.5</ele>
        <time>2022-09-25T10:09:51Z</time>
      </trkpt>
      <trkpt lat="45.70705" lon="5.42584">
        <ele>221.6</ele>
        <time>2022-09-25T10:09:52Z</time>
      </trkpt>
      <trkpt lat="45.70703" lon="5.42591">
        <ele>221.8</ele>
        <time>2022-09-25T10:09:53Z</time>
      </trkpt>
      <trkpt lat="45.70702" lon="5.42596">
        <ele>221.9</ele>
        <time>2022-09-25T10:09:54Z</time>
      </trkpt>
      <trkpt lat="45.707" lon="5.42602">
        <ele>222.1</ele>
        <time>2022-09-25T10:09:55Z</time>
      </trkpt>
      <trkpt lat="45.70698" lon="5.42607">
        <ele>222.2</ele>
        <time>2022-09-25T10:09:56Z</time>
      </trkpt>
      <trkpt lat="45.70696" lon="5.42611">
        <ele>222.3</ele>
        <time>2022-09-25T10:09:57Z</time>
      </trkpt>
      <trkpt lat="45.70694" lon="5.42615">
        <ele>222.5</ele>
        <time>2022-09-25T10:09:58Z</time>
      </trkpt>
      <trkpt lat="45.70693" lon="5.42619">
        <ele>222.6</ele>
        <time>2022-09-25T10:09:59Z</time>
      </trkpt>
      <trkpt lat="45.70691" lon="5.42625">
        <ele>222.8</ele>
        <time>2022-09-25T10:10:00Z</time>
      </trkpt>
      <trkpt lat="45.70689" lon="5.42629">
        <ele>222.9</ele>
        <time>2022-09-25T10:10:01Z</time>
      </trkpt>
      <trkpt lat="45.70686" lon="5.42635">
        <ele>223.2</ele>
        <time>2022-09-25T10:10:02Z</time>
      </trkpt>
      <trkpt lat="45.70683" lon="5.42639">
        <ele>223.4</ele>
        <time>2022-09-25T10:10:03Z</time>
      </trkpt>
      <trkpt lat="45.7068" lon="5.42643">
        <ele>223.7</ele>
        <time>2022-09-25T10:10:04Z</time>
      </trkpt>
      <trkpt lat="45.70677" lon="5.42648">
        <ele>224</ele>
        <time>2022-09-25T10:10:05Z</time>
      </trkpt>
      <trkpt lat="45.70675" lon="5.42653">
        <ele>224.3</ele>
        <time>2022-09-25T10:10:06Z</time>
      </trkpt>
      <trkpt lat="45.70673" lon="5.42656">
        <ele>224.5</ele>
        <time>2022-09-25T10:10:07Z</time>
      </trkpt>
      <trkpt lat="45.7067" lon="5.42661">
        <ele>224.8</ele>
        <time>2022-09-25T10:10:08Z</time>
      </trkpt>
      <trkpt lat="45.70667" lon="5.42664">
        <ele>225.1</ele>
        <time>2022-09-25T10:10:09Z</time>
      </trkpt>
      <trkpt lat="45.70663" lon="5.42668">
        <ele>225.5</ele>
        <time>2022-09-25T10:10:10Z</time>
      </trkpt>
      <trkpt lat="45.7066" lon="5.4267">
        <ele>225.8</ele>
        <time>2022-09-25T10:10:11Z</time>
      </trkpt>
      <trkpt lat="45.70658" lon="5.42673">
        <ele>226.1</ele>
        <time>2022-09-25T10:10:12Z</time>
      </trkpt>
      <trkpt lat="45.70657" lon="5.42674">
        <ele>226.2</ele>
        <time>2022-09-25T10:10:13Z</time>
      </trkpt>
      <trkpt lat="45.70655" lon="5.42676">
        <ele>226.4</ele>
        <time>2022-09-25T10:10:14Z</time>
      </trkpt>
      <trkpt lat="45.70652" lon="5.42679">
        <ele>226.7</ele>
        <time>2022-09-25T10:10:15Z</time>
      </trkpt>
      <trkpt lat="45.70651" lon="5.4268">
        <ele>226.9</ele>
        <time>2022-09-25T10:10:16Z</time>
      </trkpt>
      <trkpt lat="45.70649" lon="5.42683">
        <ele>227.2</ele>
        <time>2022-09-25T10:10:17Z</time>
      </trkpt>
      <trkpt lat="45.70646" lon="5.42685">
        <ele>227.6</ele>
        <time>2022-09-25T10:10:18Z</time>
      </trkpt>
      <trkpt lat="45.70645" lon="5.42686">
        <ele>227.7</ele>
        <time>2022-09-25T10:10:19Z</time>
      </trkpt>
      <trkpt lat="45.70643" lon="5.42689">
        <ele>228</ele>
        <time>2022-09-25T10:10:20Z</time>
      </trkpt>
      <trkpt lat="45.70642" lon="5.4269">
        <ele>228.1</ele>
        <time>2022-09-25T10:10:21Z</time>
      </trkpt>
      <trkpt lat="45.7064" lon="5.42693">
        <ele>228.4</ele>
        <time>2022-09-25T10:10:22Z</time>
      </trkpt>
      <trkpt lat="45.70639" lon="5.42694">
        <ele>228.5</ele>
        <time>2022-09-25T10:10:23Z</time>
      </trkpt>
      <trkpt lat="45.70637" lon="5.42696">
        <ele>228.8</ele>
        <time>2022-09-25T10:10:24Z</time>
      </trkpt>
      <trkpt lat="45.70635" lon="5.42699">
        <ele>229.1</ele>
        <time>2022-09-25T10:10:25Z</time>
      </trkpt>
      <trkpt lat="45.70634" lon="5.427">
        <ele>229.2</ele>
        <time>2022-09-25T10:10:26Z</time>
      </trkpt>
      <trkpt lat="45.70631" lon="5.42702">
        <ele>229.6</ele>
        <time>2022-09-25T10:10:27Z</time>
      </trkpt>
      <trkpt lat="45.7063" lon="5.42703">
        <ele>229.7</ele>
        <time>2022-09-25T10:10:28Z</time>
      </trkpt>
      <trkpt lat="45.70627" lon="5.42706">
        <ele>230.1</ele>
        <time>2022-09-25T10:10:29Z</time>
      </trkpt>
      <trkpt lat="45.70626" lon="5.42707">
        <ele>230.2</ele>
        <time>2022-09-25T10:10:30Z</time>
      </trkpt>
      <trkpt lat="45.70624" lon="5.4271">
        <ele>230.5</ele>
        <time>2022-09-25T10:10:31Z</time>
      </trkpt>
      <trkpt lat="45.70623" lon="5.42711">
        <ele>230.6</ele>
        <time>2022-09-25T10:10:32Z</time>
      </trkpt>
      <trkpt lat="45.70621" lon="5.42714">
        <ele>230.9</ele>
        <time>2022-09-25T10:10:33Z</time>
      </trkpt>
      <trkpt lat="45.7062" lon="5.42715">
        <ele>231</ele>
        <time>2022-09-25T10:10:34Z</time>
      </trkpt>
      <trkpt lat="45.70617" lon="5.42719">
        <ele>231.4</ele>
        <time>2022-09-25T10:10:35Z</time>
      </trkpt>
      <trkpt lat="45.70615" lon="5.42722">
        <ele>231.7</ele>
        <time>2022-09-25T10:10:36Z</time>
      </trkpt>
      <trkpt lat="45.70614" lon="5.42723">
        <ele>231.8</ele>
        <time>2022-09-25T10:10:37Z</time>
      </trkpt>
      <trkpt lat="45.7061" lon="5.42728">
        <ele>232.2</ele>
        <time>2022-09-25T10:10:38Z</time>
      </trkpt>
      <trkpt lat="45.70608" lon="5.4273">
        <ele>232.5</ele>
        <time>2022-09-25T10:10:39Z</time>
      </trkpt>
      <trkpt lat="45.70605" lon="5.42733">
        <ele>232.9</ele>
        <time>2022-09-25T10:10:40Z</time>
      </trkpt>
      <trkpt lat="45.70604" lon="5.42734">
        <ele>232.9</ele>
        <time>2022-09-25T10:10:41Z</time>
      </trkpt>
      <trkpt lat="45.70602" lon="5.42738">
        <ele>233.2</ele>
        <time>2022-09-25T10:10:42Z</time>
      </trkpt>
      <trkpt lat="45.70601" lon="5.42739">
        <ele>233.3</ele>
        <time>2022-09-25T10:10:43Z</time>
      </trkpt>
      <trkpt lat="45.70601" lon="5.42741">
        <ele>233.5</ele>
        <time>2022-09-25T10:10:44Z</time>
      </trkpt>
      <trkpt lat="45.70599" lon="5.42742">
        <ele>233.6</ele>
        <time>2022-09-25T10:10:45Z</time>
      </trkpt>
      <trkpt lat="45.70598" lon="5.42744">
        <ele>233.7</ele>
        <time>2022-09-25T10:10:46Z</time>
      </trkpt>
      <trkpt lat="45.70597" lon="5.42746">
        <ele>233.9</ele>
        <time>2022-09-25T10:10:47Z</time>
      </trkpt>
      <trkpt lat="45.70596" lon="5.4275">
        <ele>234.1</ele>
        <time>2022-09-25T10:10:48Z</time>
      </trkpt>
      <trkpt lat="45.70595" lon="5.42751">
        <ele>234.2</ele>
        <time>2022-09-25T10:10:49Z</time>
      </trkpt>
      <trkpt lat="45.70594" lon="5.42754">
        <ele>234.4</ele>
        <time>2022-09-25T10:10:50Z</time>
      </trkpt>
      <trkpt lat="45.70593" lon="5.42756">
        <ele>234.4</ele>
        <time>2022-09-25T10:10:51Z</time>
      </trkpt>
      <trkpt lat="45.70593" lon="5.42757">
        <ele>234.5</ele>
        <time>2022-09-25T10:10:52Z</time>
      </trkpt>
      <trkpt lat="45.70591" lon="5.42761">
        <ele>234.7</ele>
        <time>2022-09-25T10:10:53Z</time>
      </trkpt>
      <trkpt lat="45.70589" lon="5.42766">
        <ele>235</ele>
        <time>2022-09-25T10:10:54Z</time>
      </trkpt>
      <trkpt lat="45.70588" lon="5.42768">
        <ele>235.1</ele>
        <time>2022-09-25T10:10:55Z</time>
      </trkpt>
      <trkpt lat="45.70587" lon="5.42772">
        <ele>235.2</ele>
        <time>2022-09-25T10:10:56Z</time>
      </trkpt>
      <trkpt lat="45.70587" lon="5.42773">
        <ele>235.3</ele>
        <time>2022-09-25T10:10:57Z</time>
      </trkpt>
      <trkpt lat="45.70586" lon="5.42776">
        <ele>235.4</ele>
        <time>2022-09-25T10:10:58Z</time>
      </trkpt>
      <trkpt lat="45.70585" lon="5.42777">
        <ele>235.5</ele>
        <time>2022-09-25T10:10:59Z</time>
      </trkpt>
      <trkpt lat="45.70585" lon="5.42778">
        <ele>235.5</ele>
        <time>2022-09-25T10:11:00Z</time>
      </trkpt>
      <trkpt lat="45.70583" lon="5.42783">
        <ele>235.7</ele>
        <time>2022-09-25T10:11:01Z</time>
      </trkpt>
      <trkpt lat="45.70582" lon="5.42786">
        <ele>235.9</ele>
        <time>2022-09-25T10:11:02Z</time>
      </trkpt>
      <trkpt lat="45.7058" lon="5.42791">
        <ele>236.1</ele>
        <time>2022-09-25T10:11:03Z</time>
      </trkpt>
      <trkpt lat="45.7058" lon="5.42792">
        <ele>236.1</ele>
        <time>2022-09-25T10:11:04Z</time>
      </trkpt>
      <trkpt lat="45.70579" lon="5.42795">
        <ele>236.2</ele>
        <time>2022-09-25T10:11:05Z</time>
      </trkpt>
      <trkpt lat="45.70579" lon="5.42797">
        <ele>236.3</ele>
        <time>2022-09-25T10:11:06Z</time>
      </trkpt>
      <trkpt lat="45.70579" lon="5.42801">
        <ele>236.4</ele>
        <time>2022-09-25T10:11:07Z</time>
      </trkpt>
      <trkpt lat="45.70578" lon="5.42802">
        <ele>236.4</ele>
        <time>2022-09-25T10:11:08Z</time>
      </trkpt>
      <trkpt lat="45.70577" lon="5.42803">
        <ele>236.5</ele>
        <time>2022-09-25T10:11:09Z</time>
      </trkpt>
      <trkpt lat="45.70577" lon="5.42804">
        <ele>236.5</ele>
        <time>2022-09-25T10:11:10Z</time>
      </trkpt>
      <trkpt lat="45.70577" lon="5.42805">
        <ele>236.5</ele>
        <time>2022-09-25T10:11:11Z</time>
      </trkpt>
      <trkpt lat="45.70577" lon="5.42805">
        <ele>236.6</ele>
        <time>2022-09-25T10:11:12Z</time>
      </trkpt>
      <trkpt lat="45.70577" lon="5.42806">
        <ele>236.6</ele>
        <time>2022-09-25T10:11:13Z</time>
      </trkpt>
      <trkpt lat="45.70577" lon="5.42806">
        <ele>236.6</ele>
        <time>2022-09-25T10:11:14Z</time>
      </trkpt>
      <trkpt lat="45.70577" lon="5.42807">
        <ele>236.6</ele>
        <time>2022-09-25T10:11:15Z</time>
      </trkpt>
      <trkpt lat="45.70577" lon="5.42807">
        <ele>236.6</ele>
        <time>2022-09-25T10:11:16Z</time>
      </trkpt>
      <trkpt lat="45.70577" lon="5.42808">
        <ele>236.6</ele>
        <time>2022-09-25T10:11:17Z</time>
      </trkpt>
      <trkpt lat="45.70577" lon="5.42808">
        <ele>236.6</ele>
        <time>2022-09-25T10:11:18Z</time>
      </trkpt>
      <trkpt lat="45.70577" lon="5.42809">
        <ele>236.7</ele>
        <time>2022-09-25T10:11:19Z</time>
      </trkpt>
      <trkpt lat="45.70577" lon="5.42809">
        <ele>236.7</ele>
        <time>2022-09-25T10:11:20Z</time>
      </trkpt>
      <trkpt lat="45.70576" lon="5.42809">
        <ele>236.7</ele>
        <time>2022-09-25T10:11:30Z</time>
      </trkpt>
      <trkpt lat="45.70576" lon="5.4281">
        <ele>236.7</ele>
        <time>2022-09-25T10:11:31Z</time>
      </trkpt>
      <trkpt lat="45.70576" lon="5.4281">
        <ele>236.7</ele>
        <time>2022-09-25T10:11:32Z</time>
      </trkpt>
      <trkpt lat="45.70576" lon="5.42811">
        <ele>236.7</ele>
        <time>2022-09-25T10:11:33Z</time>
      </trkpt>
      <trkpt lat="45.70576" lon="5.42811">
        <ele>236.7</ele>
        <time>2022-09-25T10:11:34Z</time>
      </trkpt>
      <trkpt lat="45.70576" lon="5.42812">
        <ele>236.8</ele>
        <time>2022-09-25T10:11:35Z</time>
      </trkpt>
      <trkpt lat="45.70576" lon="5.42812">
        <ele>236.8</ele>
        <time>2022-09-25T10:11:36Z</time>
      </trkpt>
      <trkpt lat="45.70576" lon="5.42813">
        <ele>236.8</ele>
        <time>2022-09-25T10:11:37Z</time>
      </trkpt>
      <trkpt lat="45.70576" lon="5.42813">
        <ele>236.8</ele>
        <time>2022-09-25T10:11:38Z</time>
      </trkpt>
      <trkpt lat="45.70576" lon="5.42814">
        <ele>236.8</ele>
        <time>2022-09-25T10:11:39Z</time>
      </trkpt>
      <trkpt lat="45.70576" lon="5.42814">
        <ele>236.8</ele>
        <time>2022-09-25T10:13:06Z</time>
      </trkpt>
      <trkpt lat="45.70576" lon="5.42814">
        <ele>236.8</ele>
        <time>2022-09-25T10:13:07Z</time>
      </trkpt>
      <trkpt lat="45.70576" lon="5.42815">
        <ele>236.9</ele>
        <time>2022-09-25T10:13:08Z</time>
      </trkpt>
      <trkpt lat="45.70575" lon="5.42819">
        <ele>237</ele>
        <time>2022-09-25T10:13:09Z</time>
      </trkpt>
      <trkpt lat="45.70573" lon="5.42823">
        <ele>237.2</ele>
        <time>2022-09-25T10:13:10Z</time>
      </trkpt>
      <trkpt lat="45.70573" lon="5.42824">
        <ele>237.2</ele>
        <time>2022-09-25T10:13:11Z</time>
      </trkpt>
      <trkpt lat="45.70571" lon="5.42828">
        <ele>237.4</ele>
        <time>2022-09-25T10:13:12Z</time>
      </trkpt>
      <trkpt lat="45.70569" lon="5.42832">
        <ele>237.6</ele>
        <time>2022-09-25T10:13:13Z</time>
      </trkpt>
      <trkpt lat="45.70567" lon="5.42835">
        <ele>237.7</ele>
        <time>2022-09-25T10:13:14Z</time>
      </trkpt>
      <trkpt lat="45.70566" lon="5.42839">
        <ele>237.9</ele>
        <time>2022-09-25T10:13:15Z</time>
      </trkpt>
      <trkpt lat="45.70564" lon="5.42843">
        <ele>238</ele>
        <time>2022-09-25T10:13:16Z</time>
      </trkpt>
      <trkpt lat="45.70563" lon="5.42846">
        <ele>238.2</ele>
        <time>2022-09-25T10:13:17Z</time>
      </trkpt>
      <trkpt lat="45.70561" lon="5.42849">
        <ele>238.4</ele>
        <time>2022-09-25T10:13:18Z</time>
      </trkpt>
      <trkpt lat="45.70559" lon="5.42853">
        <ele>238.6</ele>
        <time>2022-09-25T10:13:19Z</time>
      </trkpt>
      <trkpt lat="45.70558" lon="5.42855">
        <ele>238.7</ele>
        <time>2022-09-25T10:13:20Z</time>
      </trkpt>
      <trkpt lat="45.70557" lon="5.42858">
        <ele>238.8</ele>
        <time>2022-09-25T10:13:21Z</time>
      </trkpt>
      <trkpt lat="45.70555" lon="5.42861">
        <ele>239</ele>
        <time>2022-09-25T10:13:22Z</time>
      </trkpt>
      <trkpt lat="45.70551" lon="5.42864">
        <ele>239.3</ele>
        <time>2022-09-25T10:13:23Z</time>
      </trkpt>
      <trkpt lat="45.7055" lon="5.42865">
        <ele>239.4</ele>
        <time>2022-09-25T10:13:24Z</time>
      </trkpt>
      <trkpt lat="45.70548" lon="5.42869">
        <ele>239.7</ele>
        <time>2022-09-25T10:13:25Z</time>
      </trkpt>
      <trkpt lat="45.70545" lon="5.4287">
        <ele>239.9</ele>
        <time>2022-09-25T10:13:26Z</time>
      </trkpt>
      <trkpt lat="45.70542" lon="5.42871">
        <ele>240.1</ele>
        <time>2022-09-25T10:13:27Z</time>
      </trkpt>
      <trkpt lat="45.70539" lon="5.42871">
        <ele>240.3</ele>
        <time>2022-09-25T10:13:28Z</time>
      </trkpt>
      <trkpt lat="45.70535" lon="5.42871">
        <ele>240.6</ele>
        <time>2022-09-25T10:13:29Z</time>
      </trkpt>
      <trkpt lat="45.70532" lon="5.42871">
        <ele>240.8</ele>
        <time>2022-09-25T10:13:30Z</time>
      </trkpt>
      <trkpt lat="45.70529" lon="5.42871">
        <ele>241</ele>
        <time>2022-09-25T10:13:31Z</time>
      </trkpt>
      <trkpt lat="45.70526" lon="5.4287">
        <ele>241.2</ele>
        <time>2022-09-25T10:13:32Z</time>
      </trkpt>
      <trkpt lat="45.70523" lon="5.42871">
        <ele>241.5</ele>
        <time>2022-09-25T10:13:33Z</time>
      </trkpt>
      <trkpt lat="45.70522" lon="5.42871">
        <ele>241.5</ele>
        <time>2022-09-25T10:13:34Z</time>
      </trkpt>
      <trkpt lat="45.70518" lon="5.42871">
        <ele>241.8</ele>
        <time>2022-09-25T10:13:35Z</time>
      </trkpt>
      <trkpt lat="45.70517" lon="5.42872">
        <ele>241.8</ele>
        <time>2022-09-25T10:13:36Z</time>
      </trkpt>
      <trkpt lat="45.70514" lon="5.42872">
        <ele>242</ele>
        <time>2022-09-25T10:13:37Z</time>
      </trkpt>
      <trkpt lat="45.70513" lon="5.42871">
        <ele>242</ele>
        <time>2022-09-25T10:13:38Z</time>
      </trkpt>
      <trkpt lat="45.70509" lon="5.42872">
        <ele>242.2</ele>
        <time>2022-09-25T10:13:39Z</time>
      </trkpt>
      <trkpt lat="45.70508" lon="5.42872">
        <ele>242.3</ele>
        <time>2022-09-25T10:13:40Z</time>
      </trkpt>
      <trkpt lat="45.70504" lon="5.42874">
        <ele>242.4</ele>
        <time>2022-09-25T10:13:41Z</time>
      </trkpt>
      <trkpt lat="45.70503" lon="5.42874">
        <ele>242.5</ele>
        <time>2022-09-25T10:13:42Z</time>
      </trkpt>
      <trkpt lat="45.705" lon="5.42878">
        <ele>242.6</ele>
        <time>2022-09-25T10:13:43Z</time>
      </trkpt>
      <trkpt lat="45.70499" lon="5.42879">
        <ele>242.6</ele>
        <time>2022-09-25T10:13:44Z</time>
      </trkpt>
      <trkpt lat="45.70497" lon="5.42882">
        <ele>242.7</ele>
        <time>2022-09-25T10:13:45Z</time>
      </trkpt>
      <trkpt lat="45.70496" lon="5.42885">
        <ele>242.8</ele>
        <time>2022-09-25T10:13:46Z</time>
      </trkpt>
      <trkpt lat="45.70494" lon="5.42889">
        <ele>242.8</ele>
        <time>2022-09-25T10:13:47Z</time>
      </trkpt>
      <trkpt lat="45.70493" lon="5.42893">
        <ele>242.8</ele>
        <time>2022-09-25T10:13:48Z</time>
      </trkpt>
      <trkpt lat="45.70492" lon="5.42897">
        <ele>242.8</ele>
        <time>2022-09-25T10:13:49Z</time>
      </trkpt>
      <trkpt lat="45.7049" lon="5.42901">
        <ele>242.9</ele>
        <time>2022-09-25T10:13:50Z</time>
      </trkpt>
      <trkpt lat="45.70489" lon="5.42905">
        <ele>242.9</ele>
        <time>2022-09-25T10:13:51Z</time>
      </trkpt>
      <trkpt lat="45.70487" lon="5.4291">
        <ele>242.9</ele>
        <time>2022-09-25T10:13:52Z</time>
      </trkpt>
      <trkpt lat="45.70485" lon="5.42915">
        <ele>242.9</ele>
        <time>2022-09-25T10:13:53Z</time>
      </trkpt>
      <trkpt lat="45.70484" lon="5.4292">
        <ele>243</ele>
        <time>2022-09-25T10:13:54Z</time>
      </trkpt>
      <trkpt lat="45.70482" lon="5.42924">
        <ele>243</ele>
        <time>2022-09-25T10:13:55Z</time>
      </trkpt>
      <trkpt lat="45.70479" lon="5.42928">
        <ele>243</ele>
        <time>2022-09-25T10:13:56Z</time>
      </trkpt>
      <trkpt lat="45.70477" lon="5.42933">
        <ele>243.1</ele>
        <time>2022-09-25T10:13:57Z</time>
      </trkpt>
      <trkpt lat="45.70475" lon="5.42937">
        <ele>243.1</ele>
        <time>2022-09-25T10:13:58Z</time>
      </trkpt>
      <trkpt lat="45.70473" lon="5.42941">
        <ele>243.2</ele>
        <time>2022-09-25T10:13:59Z</time>
      </trkpt>
      <trkpt lat="45.7047" lon="5.42945">
        <ele>243.2</ele>
        <time>2022-09-25T10:14:00Z</time>
      </trkpt>
      <trkpt lat="45.70468" lon="5.42949">
        <ele>243.3</ele>
        <time>2022-09-25T10:14:01Z</time>
      </trkpt>
      <trkpt lat="45.70466" lon="5.42953">
        <ele>243.4</ele>
        <time>2022-09-25T10:14:02Z</time>
      </trkpt>
      <trkpt lat="45.70463" lon="5.42957">
        <ele>243.4</ele>
        <time>2022-09-25T10:14:03Z</time>
      </trkpt>
      <trkpt lat="45.7046" lon="5.42961">
        <ele>243.5</ele>
        <time>2022-09-25T10:14:04Z</time>
      </trkpt>
      <trkpt lat="45.70457" lon="5.42964">
        <ele>243.6</ele>
        <time>2022-09-25T10:14:05Z</time>
      </trkpt>
      <trkpt lat="45.70455" lon="5.42968">
        <ele>243.7</ele>
        <time>2022-09-25T10:14:06Z</time>
      </trkpt>
      <trkpt lat="45.70452" lon="5.42974">
        <ele>243.8</ele>
        <time>2022-09-25T10:14:07Z</time>
      </trkpt>
      <trkpt lat="45.70449" lon="5.42979">
        <ele>243.9</ele>
        <time>2022-09-25T10:14:08Z</time>
      </trkpt>
      <trkpt lat="45.70447" lon="5.42981">
        <ele>243.9</ele>
        <time>2022-09-25T10:14:09Z</time>
      </trkpt>
      <trkpt lat="45.70445" lon="5.42985">
        <ele>244</ele>
        <time>2022-09-25T10:14:10Z</time>
      </trkpt>
      <trkpt lat="45.70443" lon="5.42989">
        <ele>244.1</ele>
        <time>2022-09-25T10:14:11Z</time>
      </trkpt>
      <trkpt lat="45.70439" lon="5.42992">
        <ele>244.2</ele>
        <time>2022-09-25T10:14:12Z</time>
      </trkpt>
      <trkpt lat="45.70437" lon="5.42996">
        <ele>244.3</ele>
        <time>2022-09-25T10:14:13Z</time>
      </trkpt>
      <trkpt lat="45.70435" lon="5.43">
        <ele>244.4</ele>
        <time>2022-09-25T10:14:14Z</time>
      </trkpt>
      <trkpt lat="45.70433" lon="5.43004">
        <ele>244.5</ele>
        <time>2022-09-25T10:14:15Z</time>
      </trkpt>
      <trkpt lat="45.70429" lon="5.43007">
        <ele>244.7</ele>
        <time>2022-09-25T10:14:16Z</time>
      </trkpt>
      <trkpt lat="45.70428" lon="5.43011">
        <ele>244.8</ele>
        <time>2022-09-25T10:14:17Z</time>
      </trkpt>
      <trkpt lat="45.70424" lon="5.43013">
        <ele>245</ele>
        <time>2022-09-25T10:14:18Z</time>
      </trkpt>
      <trkpt lat="45.70421" lon="5.43016">
        <ele>245.1</ele>
        <time>2022-09-25T10:14:19Z</time>
      </trkpt>
      <trkpt lat="45.70418" lon="5.43018">
        <ele>245.3</ele>
        <time>2022-09-25T10:14:20Z</time>
      </trkpt>
      <trkpt lat="45.70414" lon="5.43021">
        <ele>245.4</ele>
        <time>2022-09-25T10:14:21Z</time>
      </trkpt>
      <trkpt lat="45.70411" lon="5.43024">
        <ele>245.5</ele>
        <time>2022-09-25T10:14:22Z</time>
      </trkpt>
      <trkpt lat="45.70408" lon="5.43025">
        <ele>245.7</ele>
        <time>2022-09-25T10:14:23Z</time>
      </trkpt>
      <trkpt lat="45.70403" lon="5.43022">
        <ele>245.9</ele>
        <time>2022-09-25T10:14:24Z</time>
      </trkpt>
      <trkpt lat="45.70401" lon="5.43023">
        <ele>245.9</ele>
        <time>2022-09-25T10:14:25Z</time>
      </trkpt>
      <trkpt lat="45.70399" lon="5.43022">
        <ele>246</ele>
        <time>2022-09-25T10:14:26Z</time>
      </trkpt>
      <trkpt lat="45.70397" lon="5.43019">
        <ele>246</ele>
        <time>2022-09-25T10:14:27Z</time>
      </trkpt>
      <trkpt lat="45.70396" lon="5.43018">
        <ele>246</ele>
        <time>2022-09-25T10:14:28Z</time>
      </trkpt>
      <trkpt lat="45.70393" lon="5.43016">
        <ele>246</ele>
        <time>2022-09-25T10:14:29Z</time>
      </trkpt>
      <trkpt lat="45.70391" lon="5.43015">
        <ele>245.9</ele>
        <time>2022-09-25T10:14:30Z</time>
      </trkpt>
      <trkpt lat="45.70389" lon="5.43012">
        <ele>245.8</ele>
        <time>2022-09-25T10:14:31Z</time>
      </trkpt>
      <trkpt lat="45.70386" lon="5.43011">
        <ele>245.7</ele>
        <time>2022-09-25T10:14:32Z</time>
      </trkpt>
      <trkpt lat="45.70381" lon="5.43007">
        <ele>245.5</ele>
        <time>2022-09-25T10:14:33Z</time>
      </trkpt>
      <trkpt lat="45.70376" lon="5.43005">
        <ele>245.3</ele>
        <time>2022-09-25T10:14:34Z</time>
      </trkpt>
      <trkpt lat="45.70371" lon="5.43003">
        <ele>245</ele>
        <time>2022-09-25T10:14:35Z</time>
      </trkpt>
      <trkpt lat="45.70366" lon="5.43003">
        <ele>244.9</ele>
        <time>2022-09-25T10:14:36Z</time>
      </trkpt>
      <trkpt lat="45.70361" lon="5.43001">
        <ele>244.8</ele>
        <time>2022-09-25T10:14:37Z</time>
      </trkpt>
      <trkpt lat="45.70356" lon="5.43002">
        <ele>244.7</ele>
        <time>2022-09-25T10:14:38Z</time>
      </trkpt>
      <trkpt lat="45.7035" lon="5.43001">
        <ele>244.6</ele>
        <time>2022-09-25T10:14:39Z</time>
      </trkpt>
      <trkpt lat="45.70345" lon="5.43002">
        <ele>244.6</ele>
        <time>2022-09-25T10:14:40Z</time>
      </trkpt>
      <trkpt lat="45.70339" lon="5.43002">
        <ele>244.6</ele>
        <time>2022-09-25T10:14:41Z</time>
      </trkpt>
      <trkpt lat="45.70335" lon="5.43001">
        <ele>244.7</ele>
        <time>2022-09-25T10:14:42Z</time>
      </trkpt>
      <trkpt lat="45.7033" lon="5.43002">
        <ele>244.7</ele>
        <time>2022-09-25T10:14:43Z</time>
      </trkpt>
      <trkpt lat="45.70325" lon="5.43004">
        <ele>244.9</ele>
        <time>2022-09-25T10:14:44Z</time>
      </trkpt>
      <trkpt lat="45.7032" lon="5.43006">
        <ele>245</ele>
        <time>2022-09-25T10:14:45Z</time>
      </trkpt>
      <trkpt lat="45.70316" lon="5.43008">
        <ele>245.1</ele>
        <time>2022-09-25T10:14:46Z</time>
      </trkpt>
      <trkpt lat="45.70311" lon="5.43008">
        <ele>245.2</ele>
        <time>2022-09-25T10:14:47Z</time>
      </trkpt>
      <trkpt lat="45.70307" lon="5.4301">
        <ele>245.4</ele>
        <time>2022-09-25T10:14:48Z</time>
      </trkpt>
      <trkpt lat="45.70303" lon="5.43011">
        <ele>245.5</ele>
        <time>2022-09-25T10:14:49Z</time>
      </trkpt>
      <trkpt lat="45.70298" lon="5.43011">
        <ele>245.7</ele>
        <time>2022-09-25T10:14:50Z</time>
      </trkpt>
      <trkpt lat="45.70294" lon="5.43012">
        <ele>245.8</ele>
        <time>2022-09-25T10:14:51Z</time>
      </trkpt>
      <trkpt lat="45.7029" lon="5.43014">
        <ele>246</ele>
        <time>2022-09-25T10:14:52Z</time>
      </trkpt>
      <trkpt lat="45.70286" lon="5.43015">
        <ele>246.1</ele>
        <time>2022-09-25T10:14:53Z</time>
      </trkpt>
      <trkpt lat="45.70282" lon="5.43017">
        <ele>246.3</ele>
        <time>2022-09-25T10:14:54Z</time>
      </trkpt>
      <trkpt lat="45.70278" lon="5.43019">
        <ele>246.4</ele>
        <time>2022-09-25T10:14:55Z</time>
      </trkpt>
      <trkpt lat="45.70274" lon="5.4302">
        <ele>246.5</ele>
        <time>2022-09-25T10:14:56Z</time>
      </trkpt>
      <trkpt lat="45.7027" lon="5.43022">
        <ele>246.6</ele>
        <time>2022-09-25T10:14:57Z</time>
      </trkpt>
      <trkpt lat="45.70266" lon="5.43024">
        <ele>246.7</ele>
        <time>2022-09-25T10:14:58Z</time>
      </trkpt>
      <trkpt lat="45.70262" lon="5.43025">
        <ele>246.8</ele>
        <time>2022-09-25T10:14:59Z</time>
      </trkpt>
      <trkpt lat="45.70258" lon="5.43025">
        <ele>246.9</ele>
        <time>2022-09-25T10:15:00Z</time>
      </trkpt>
      <trkpt lat="45.70254" lon="5.43026">
        <ele>247</ele>
        <time>2022-09-25T10:15:01Z</time>
      </trkpt>
      <trkpt lat="45.70249" lon="5.43026">
        <ele>247</ele>
        <time>2022-09-25T10:15:02Z</time>
      </trkpt>
      <trkpt lat="45.70245" lon="5.43027">
        <ele>247.1</ele>
        <time>2022-09-25T10:15:03Z</time>
      </trkpt>
      <trkpt lat="45.7024" lon="5.43027">
        <ele>247.2</ele>
        <time>2022-09-25T10:15:04Z</time>
      </trkpt>
      <trkpt lat="45.70236" lon="5.43028">
        <ele>247.2</ele>
        <time>2022-09-25T10:15:05Z</time>
      </trkpt>
      <trkpt lat="45.70231" lon="5.43028">
        <ele>247.3</ele>
        <time>2022-09-25T10:15:06Z</time>
      </trkpt>
      <trkpt lat="45.70227" lon="5.43028">
        <ele>247.3</ele>
        <time>2022-09-25T10:15:07Z</time>
      </trkpt>
      <trkpt lat="45.70222" lon="5.43028">
        <ele>247.4</ele>
        <time>2022-09-25T10:15:08Z</time>
      </trkpt>
      <trkpt lat="45.70218" lon="5.43028">
        <ele>247.4</ele>
        <time>2022-09-25T10:15:09Z</time>
      </trkpt>
      <trkpt lat="45.70214" lon="5.43029">
        <ele>247.5</ele>
        <time>2022-09-25T10:15:10Z</time>
      </trkpt>
      <trkpt lat="45.70209" lon="5.43029">
        <ele>247.5</ele>
        <time>2022-09-25T10:15:11Z</time>
      </trkpt>
      <trkpt lat="45.70205" lon="5.43029">
        <ele>247.4</ele>
        <time>2022-09-25T10:15:12Z</time>
      </trkpt>
      <trkpt lat="45.70201" lon="5.43029">
        <ele>247.4</ele>
        <time>2022-09-25T10:15:13Z</time>
      </trkpt>
      <trkpt lat="45.70197" lon="5.43029">
        <ele>247.3</ele>
        <time>2022-09-25T10:15:14Z</time>
      </trkpt>
      <trkpt lat="45.70193" lon="5.4303">
        <ele>247.2</ele>
        <time>2022-09-25T10:15:15Z</time>
      </trkpt>
      <trkpt lat="45.70188" lon="5.43031">
        <ele>247.1</ele>
        <time>2022-09-25T10:15:16Z</time>
      </trkpt>
      <trkpt lat="45.70184" lon="5.43032">
        <ele>247</ele>
        <time>2022-09-25T10:15:17Z</time>
      </trkpt>
      <trkpt lat="45.70179" lon="5.43034">
        <ele>246.8</ele>
        <time>2022-09-25T10:15:18Z</time>
      </trkpt>
      <trkpt lat="45.70174" lon="5.43036">
        <ele>246.6</ele>
        <time>2022-09-25T10:15:19Z</time>
      </trkpt>
      <trkpt lat="45.70169" lon="5.43038">
        <ele>246.5</ele>
        <time>2022-09-25T10:15:20Z</time>
      </trkpt>
      <trkpt lat="45.70163" lon="5.43041">
        <ele>246.3</ele>
        <time>2022-09-25T10:15:21Z</time>
      </trkpt>
      <trkpt lat="45.70158" lon="5.43044">
        <ele>246.1</ele>
        <time>2022-09-25T10:15:22Z</time>
      </trkpt>
      <trkpt lat="45.70153" lon="5.43047">
        <ele>246</ele>
        <time>2022-09-25T10:15:23Z</time>
      </trkpt>
      <trkpt lat="45.70148" lon="5.43049">
        <ele>245.9</ele>
        <time>2022-09-25T10:15:24Z</time>
      </trkpt>
      <trkpt lat="45.70143" lon="5.43052">
        <ele>245.8</ele>
        <time>2022-09-25T10:15:25Z</time>
      </trkpt>
      <trkpt lat="45.70139" lon="5.43054">
        <ele>245.8</ele>
        <time>2022-09-25T10:15:26Z</time>
      </trkpt>
      <trkpt lat="45.70137" lon="5.43055">
        <ele>245.8</ele>
        <time>2022-09-25T10:15:27Z</time>
      </trkpt>
      <trkpt lat="45.70133" lon="5.43058">
        <ele>245.7</ele>
        <time>2022-09-25T10:15:28Z</time>
      </trkpt>
      <trkpt lat="45.70132" lon="5.43059">
        <ele>245.7</ele>
        <time>2022-09-25T10:15:29Z</time>
      </trkpt>
      <trkpt lat="45.70131" lon="5.43064">
        <ele>245.6</ele>
        <time>2022-09-25T10:15:30Z</time>
      </trkpt>
      <trkpt lat="45.70129" lon="5.4307">
        <ele>245.4</ele>
        <time>2022-09-25T10:15:31Z</time>
      </trkpt>
      <trkpt lat="45.70129" lon="5.43072">
        <ele>245.4</ele>
        <time>2022-09-25T10:15:32Z</time>
      </trkpt>
      <trkpt lat="45.70127" lon="5.43077">
        <ele>245.3</ele>
        <time>2022-09-25T10:15:33Z</time>
      </trkpt>
      <trkpt lat="45.70126" lon="5.43084">
        <ele>245.2</ele>
        <time>2022-09-25T10:15:34Z</time>
      </trkpt>
      <trkpt lat="45.70126" lon="5.43087">
        <ele>245.1</ele>
        <time>2022-09-25T10:15:35Z</time>
      </trkpt>
      <trkpt lat="45.70125" lon="5.43093">
        <ele>245.1</ele>
        <time>2022-09-25T10:15:36Z</time>
      </trkpt>
      <trkpt lat="45.70124" lon="5.43099">
        <ele>245</ele>
        <time>2022-09-25T10:15:37Z</time>
      </trkpt>
      <trkpt lat="45.70123" lon="5.43105">
        <ele>245</ele>
        <time>2022-09-25T10:15:38Z</time>
      </trkpt>
      <trkpt lat="45.70121" lon="5.43111">
        <ele>245</ele>
        <time>2022-09-25T10:15:39Z</time>
      </trkpt>
      <trkpt lat="45.70121" lon="5.43117">
        <ele>245</ele>
        <time>2022-09-25T10:15:40Z</time>
      </trkpt>
      <trkpt lat="45.7012" lon="5.43123">
        <ele>245</ele>
        <time>2022-09-25T10:15:41Z</time>
      </trkpt>
      <trkpt lat="45.7012" lon="5.43129">
        <ele>245.1</ele>
        <time>2022-09-25T10:15:42Z</time>
      </trkpt>
      <trkpt lat="45.70119" lon="5.43136">
        <ele>245.1</ele>
        <time>2022-09-25T10:15:43Z</time>
      </trkpt>
      <trkpt lat="45.70119" lon="5.43143">
        <ele>245.2</ele>
        <time>2022-09-25T10:15:44Z</time>
      </trkpt>
      <trkpt lat="45.7012" lon="5.43149">
        <ele>245.2</ele>
        <time>2022-09-25T10:15:45Z</time>
      </trkpt>
      <trkpt lat="45.7012" lon="5.43155">
        <ele>245.3</ele>
        <time>2022-09-25T10:15:46Z</time>
      </trkpt>
      <trkpt lat="45.7012" lon="5.43162">
        <ele>245.4</ele>
        <time>2022-09-25T10:15:47Z</time>
      </trkpt>
      <trkpt lat="45.7012" lon="5.43168">
        <ele>245.4</ele>
        <time>2022-09-25T10:15:48Z</time>
      </trkpt>
      <trkpt lat="45.70121" lon="5.43174">
        <ele>245.5</ele>
        <time>2022-09-25T10:15:49Z</time>
      </trkpt>
      <trkpt lat="45.70121" lon="5.4318">
        <ele>245.5</ele>
        <time>2022-09-25T10:15:50Z</time>
      </trkpt>
      <trkpt lat="45.70122" lon="5.43186">
        <ele>245.6</ele>
        <time>2022-09-25T10:15:51Z</time>
      </trkpt>
      <trkpt lat="45.70122" lon="5.43192">
        <ele>245.6</ele>
        <time>2022-09-25T10:15:52Z</time>
      </trkpt>
      <trkpt lat="45.70123" lon="5.43198">
        <ele>245.7</ele>
        <time>2022-09-25T10:15:53Z</time>
      </trkpt>
      <trkpt lat="45.70123" lon="5.43204">
        <ele>245.7</ele>
        <time>2022-09-25T10:15:54Z</time>
      </trkpt>
      <trkpt lat="45.70123" lon="5.4321">
        <ele>245.8</ele>
        <time>2022-09-25T10:15:55Z</time>
      </trkpt>
      <trkpt lat="45.70124" lon="5.43217">
        <ele>245.8</ele>
        <time>2022-09-25T10:15:56Z</time>
      </trkpt>
      <trkpt lat="45.70124" lon="5.43223">
        <ele>245.9</ele>
        <time>2022-09-25T10:15:57Z</time>
      </trkpt>
      <trkpt lat="45.70125" lon="5.43229">
        <ele>245.9</ele>
        <time>2022-09-25T10:15:58Z</time>
      </trkpt>
      <trkpt lat="45.70125" lon="5.43235">
        <ele>246</ele>
        <time>2022-09-25T10:15:59Z</time>
      </trkpt>
      <trkpt lat="45.70126" lon="5.43241">
        <ele>246</ele>
        <time>2022-09-25T10:16:00Z</time>
      </trkpt>
      <trkpt lat="45.70126" lon="5.43247">
        <ele>246</ele>
        <time>2022-09-25T10:16:01Z</time>
      </trkpt>
      <trkpt lat="45.70126" lon="5.43254">
        <ele>246.1</ele>
        <time>2022-09-25T10:16:02Z</time>
      </trkpt>
      <trkpt lat="45.70127" lon="5.4326">
        <ele>246.1</ele>
        <time>2022-09-25T10:16:03Z</time>
      </trkpt>
      <trkpt lat="45.70128" lon="5.43267">
        <ele>246.1</ele>
        <time>2022-09-25T10:16:04Z</time>
      </trkpt>
      <trkpt lat="45.70127" lon="5.43274">
        <ele>246.1</ele>
        <time>2022-09-25T10:16:05Z</time>
      </trkpt>
      <trkpt lat="45.70128" lon="5.43281">
        <ele>246.1</ele>
        <time>2022-09-25T10:16:06Z</time>
      </trkpt>
      <trkpt lat="45.70128" lon="5.43287">
        <ele>246.1</ele>
        <time>2022-09-25T10:16:07Z</time>
      </trkpt>
      <trkpt lat="45.70128" lon="5.43293">
        <ele>246.2</ele>
        <time>2022-09-25T10:16:08Z</time>
      </trkpt>
      <trkpt lat="45.70128" lon="5.43298">
        <ele>246.2</ele>
        <time>2022-09-25T10:16:09Z</time>
      </trkpt>
      <trkpt lat="45.70128" lon="5.43304">
        <ele>246.2</ele>
        <time>2022-09-25T10:16:10Z</time>
      </trkpt>
      <trkpt lat="45.70127" lon="5.43309">
        <ele>246.1</ele>
        <time>2022-09-25T10:16:11Z</time>
      </trkpt>
      <trkpt lat="45.70125" lon="5.43313">
        <ele>246</ele>
        <time>2022-09-25T10:16:12Z</time>
      </trkpt>
      <trkpt lat="45.70123" lon="5.43318">
        <ele>245.9</ele>
        <time>2022-09-25T10:16:13Z</time>
      </trkpt>
      <trkpt lat="45.70121" lon="5.43322">
        <ele>245.7</ele>
        <time>2022-09-25T10:16:14Z</time>
      </trkpt>
      <trkpt lat="45.70119" lon="5.43327">
        <ele>245.6</ele>
        <time>2022-09-25T10:16:15Z</time>
      </trkpt>
      <trkpt lat="45.70116" lon="5.43333">
        <ele>245.4</ele>
        <time>2022-09-25T10:16:16Z</time>
      </trkpt>
      <trkpt lat="45.70112" lon="5.43337">
        <ele>245.3</ele>
        <time>2022-09-25T10:16:17Z</time>
      </trkpt>
      <trkpt lat="45.70107" lon="5.43344">
        <ele>245.1</ele>
        <time>2022-09-25T10:16:18Z</time>
      </trkpt>
      <trkpt lat="45.70104" lon="5.43349">
        <ele>245</ele>
        <time>2022-09-25T10:16:19Z</time>
      </trkpt>
      <trkpt lat="45.70099" lon="5.43354">
        <ele>244.9</ele>
        <time>2022-09-25T10:16:20Z</time>
      </trkpt>
      <trkpt lat="45.70095" lon="5.43359">
        <ele>244.8</ele>
        <time>2022-09-25T10:16:21Z</time>
      </trkpt>
      <trkpt lat="45.70091" lon="5.43363">
        <ele>244.8</ele>
        <time>2022-09-25T10:16:22Z</time>
      </trkpt>
      <trkpt lat="45.70087" lon="5.43366">
        <ele>244.7</ele>
        <time>2022-09-25T10:16:23Z</time>
      </trkpt>
      <trkpt lat="45.70081" lon="5.43371">
        <ele>244.7</ele>
        <time>2022-09-25T10:16:24Z</time>
      </trkpt>
      <trkpt lat="45.70077" lon="5.43376">
        <ele>244.6</ele>
        <time>2022-09-25T10:16:25Z</time>
      </trkpt>
      <trkpt lat="45.70071" lon="5.43379">
        <ele>244.6</ele>
        <time>2022-09-25T10:16:26Z</time>
      </trkpt>
      <trkpt lat="45.70066" lon="5.43381">
        <ele>244.6</ele>
        <time>2022-09-25T10:16:27Z</time>
      </trkpt>
      <trkpt lat="45.7006" lon="5.43384">
        <ele>244.6</ele>
        <time>2022-09-25T10:16:28Z</time>
      </trkpt>
      <trkpt lat="45.70054" lon="5.43387">
        <ele>244.6</ele>
        <time>2022-09-25T10:16:29Z</time>
      </trkpt>
      <trkpt lat="45.7005" lon="5.4339">
        <ele>244.6</ele>
        <time>2022-09-25T10:16:30Z</time>
      </trkpt>
      <trkpt lat="45.70046" lon="5.43396">
        <ele>244.6</ele>
        <time>2022-09-25T10:16:31Z</time>
      </trkpt>
      <trkpt lat="45.70043" lon="5.43398">
        <ele>244.5</ele>
        <time>2022-09-25T10:16:32Z</time>
      </trkpt>
      <trkpt lat="45.70039" lon="5.43402">
        <ele>244.5</ele>
        <time>2022-09-25T10:16:33Z</time>
      </trkpt>
      <trkpt lat="45.70035" lon="5.43406">
        <ele>244.5</ele>
        <time>2022-09-25T10:16:34Z</time>
      </trkpt>
      <trkpt lat="45.7003" lon="5.43408">
        <ele>244.6</ele>
        <time>2022-09-25T10:16:35Z</time>
      </trkpt>
      <trkpt lat="45.70025" lon="5.43414">
        <ele>244.6</ele>
        <time>2022-09-25T10:16:36Z</time>
      </trkpt>
      <trkpt lat="45.7002" lon="5.43419">
        <ele>244.6</ele>
        <time>2022-09-25T10:16:37Z</time>
      </trkpt>
      <trkpt lat="45.70016" lon="5.43423">
        <ele>244.7</ele>
        <time>2022-09-25T10:16:38Z</time>
      </trkpt>
      <trkpt lat="45.70012" lon="5.43427">
        <ele>244.7</ele>
        <time>2022-09-25T10:16:39Z</time>
      </trkpt>
      <trkpt lat="45.70008" lon="5.43432">
        <ele>244.8</ele>
        <time>2022-09-25T10:16:40Z</time>
      </trkpt>
      <trkpt lat="45.70004" lon="5.43435">
        <ele>244.8</ele>
        <time>2022-09-25T10:16:41Z</time>
      </trkpt>
      <trkpt lat="45.70001" lon="5.4344">
        <ele>244.9</ele>
        <time>2022-09-25T10:16:42Z</time>
      </trkpt>
      <trkpt lat="45.69996" lon="5.43443">
        <ele>244.9</ele>
        <time>2022-09-25T10:16:43Z</time>
      </trkpt>
      <trkpt lat="45.69993" lon="5.43447">
        <ele>245</ele>
        <time>2022-09-25T10:16:44Z</time>
      </trkpt>
      <trkpt lat="45.6999" lon="5.43452">
        <ele>245.1</ele>
        <time>2022-09-25T10:16:45Z</time>
      </trkpt>
      <trkpt lat="45.69986" lon="5.43457">
        <ele>245.1</ele>
        <time>2022-09-25T10:16:46Z</time>
      </trkpt>
      <trkpt lat="45.69982" lon="5.43461">
        <ele>245.2</ele>
        <time>2022-09-25T10:16:47Z</time>
      </trkpt>
      <trkpt lat="45.6998" lon="5.43464">
        <ele>245.2</ele>
        <time>2022-09-25T10:16:48Z</time>
      </trkpt>
      <trkpt lat="45.69977" lon="5.43468">
        <ele>245.3</ele>
        <time>2022-09-25T10:16:49Z</time>
      </trkpt>
      <trkpt lat="45.69973" lon="5.4347">
        <ele>245.3</ele>
        <time>2022-09-25T10:16:50Z</time>
      </trkpt>
      <trkpt lat="45.69969" lon="5.43474">
        <ele>245.3</ele>
        <time>2022-09-25T10:16:51Z</time>
      </trkpt>
      <trkpt lat="45.69966" lon="5.43476">
        <ele>245.4</ele>
        <time>2022-09-25T10:16:52Z</time>
      </trkpt>
      <trkpt lat="45.69962" lon="5.4348">
        <ele>245.4</ele>
        <time>2022-09-25T10:16:53Z</time>
      </trkpt>
      <trkpt lat="45.69958" lon="5.43483">
        <ele>245.4</ele>
        <time>2022-09-25T10:16:54Z</time>
      </trkpt>
      <trkpt lat="45.69953" lon="5.43486">
        <ele>245.4</ele>
        <time>2022-09-25T10:16:55Z</time>
      </trkpt>
      <trkpt lat="45.69946" lon="5.43489">
        <ele>245.4</ele>
        <time>2022-09-25T10:16:56Z</time>
      </trkpt>
      <trkpt lat="45.6994" lon="5.43491">
        <ele>245.4</ele>
        <time>2022-09-25T10:16:57Z</time>
      </trkpt>
      <trkpt lat="45.69934" lon="5.43494">
        <ele>245.4</ele>
        <time>2022-09-25T10:16:58Z</time>
      </trkpt>
      <trkpt lat="45.69929" lon="5.43496">
        <ele>245.4</ele>
        <time>2022-09-25T10:16:59Z</time>
      </trkpt>
      <trkpt lat="45.69923" lon="5.43498">
        <ele>245.4</ele>
        <time>2022-09-25T10:17:00Z</time>
      </trkpt>
      <trkpt lat="45.69918" lon="5.43501">
        <ele>245.4</ele>
        <time>2022-09-25T10:17:01Z</time>
      </trkpt>
      <trkpt lat="45.69912" lon="5.43503">
        <ele>245.4</ele>
        <time>2022-09-25T10:17:02Z</time>
      </trkpt>
      <trkpt lat="45.69907" lon="5.43506">
        <ele>245.5</ele>
        <time>2022-09-25T10:17:03Z</time>
      </trkpt>
      <trkpt lat="45.69902" lon="5.43509">
        <ele>245.5</ele>
        <time>2022-09-25T10:17:04Z</time>
      </trkpt>
      <trkpt lat="45.69897" lon="5.43513">
        <ele>245.5</ele>
        <time>2022-09-25T10:17:05Z</time>
      </trkpt>
      <trkpt lat="45.69893" lon="5.43516">
        <ele>245.5</ele>
        <time>2022-09-25T10:17:06Z</time>
      </trkpt>
      <trkpt lat="45.69889" lon="5.43519">
        <ele>245.5</ele>
        <time>2022-09-25T10:17:07Z</time>
      </trkpt>
      <trkpt lat="45.69886" lon="5.43523">
        <ele>245.4</ele>
        <time>2022-09-25T10:17:08Z</time>
      </trkpt>
      <trkpt lat="45.69884" lon="5.43527">
        <ele>245.4</ele>
        <time>2022-09-25T10:17:09Z</time>
      </trkpt>
      <trkpt lat="45.69878" lon="5.43531">
        <ele>245.3</ele>
        <time>2022-09-25T10:17:10Z</time>
      </trkpt>
      <trkpt lat="45.69874" lon="5.43535">
        <ele>245.2</ele>
        <time>2022-09-25T10:17:11Z</time>
      </trkpt>
      <trkpt lat="45.6987" lon="5.43538">
        <ele>245.2</ele>
        <time>2022-09-25T10:17:12Z</time>
      </trkpt>
      <trkpt lat="45.69865" lon="5.43541">
        <ele>245.1</ele>
        <time>2022-09-25T10:17:13Z</time>
      </trkpt>
      <trkpt lat="45.69861" lon="5.43545">
        <ele>245</ele>
        <time>2022-09-25T10:17:14Z</time>
      </trkpt>
      <trkpt lat="45.69856" lon="5.43549">
        <ele>244.9</ele>
        <time>2022-09-25T10:17:15Z</time>
      </trkpt>
      <trkpt lat="45.6985" lon="5.43552">
        <ele>244.8</ele>
        <time>2022-09-25T10:17:16Z</time>
      </trkpt>
      <trkpt lat="45.69844" lon="5.43556">
        <ele>244.7</ele>
        <time>2022-09-25T10:17:17Z</time>
      </trkpt>
      <trkpt lat="45.69837" lon="5.43559">
        <ele>244.7</ele>
        <time>2022-09-25T10:17:18Z</time>
      </trkpt>
      <trkpt lat="45.69831" lon="5.43563">
        <ele>244.6</ele>
        <time>2022-09-25T10:17:19Z</time>
      </trkpt>
      <trkpt lat="45.69826" lon="5.43567">
        <ele>244.5</ele>
        <time>2022-09-25T10:17:20Z</time>
      </trkpt>
      <trkpt lat="45.6982" lon="5.4357">
        <ele>244.5</ele>
        <time>2022-09-25T10:17:21Z</time>
      </trkpt>
      <trkpt lat="45.69815" lon="5.43573">
        <ele>244.4</ele>
        <time>2022-09-25T10:17:22Z</time>
      </trkpt>
      <trkpt lat="45.69809" lon="5.43578">
        <ele>244.4</ele>
        <time>2022-09-25T10:17:23Z</time>
      </trkpt>
      <trkpt lat="45.69804" lon="5.43581">
        <ele>244.3</ele>
        <time>2022-09-25T10:17:24Z</time>
      </trkpt>
      <trkpt lat="45.69799" lon="5.43585">
        <ele>244.3</ele>
        <time>2022-09-25T10:17:25Z</time>
      </trkpt>
      <trkpt lat="45.69793" lon="5.43588">
        <ele>244.3</ele>
        <time>2022-09-25T10:17:26Z</time>
      </trkpt>
      <trkpt lat="45.69788" lon="5.43592">
        <ele>244.3</ele>
        <time>2022-09-25T10:17:27Z</time>
      </trkpt>
      <trkpt lat="45.69784" lon="5.43597">
        <ele>244.2</ele>
        <time>2022-09-25T10:17:28Z</time>
      </trkpt>
      <trkpt lat="45.69779" lon="5.43601">
        <ele>244.2</ele>
        <time>2022-09-25T10:17:29Z</time>
      </trkpt>
      <trkpt lat="45.69773" lon="5.43606">
        <ele>244.2</ele>
        <time>2022-09-25T10:17:30Z</time>
      </trkpt>
      <trkpt lat="45.69768" lon="5.43611">
        <ele>244.2</ele>
        <time>2022-09-25T10:17:31Z</time>
      </trkpt>
      <trkpt lat="45.69764" lon="5.43615">
        <ele>244.2</ele>
        <time>2022-09-25T10:17:32Z</time>
      </trkpt>
      <trkpt lat="45.69759" lon="5.43618">
        <ele>244.2</ele>
        <time>2022-09-25T10:17:33Z</time>
      </trkpt>
      <trkpt lat="45.69755" lon="5.43623">
        <ele>244.2</ele>
        <time>2022-09-25T10:17:34Z</time>
      </trkpt>
      <trkpt lat="45.6975" lon="5.43628">
        <ele>244.2</ele>
        <time>2022-09-25T10:17:35Z</time>
      </trkpt>
      <trkpt lat="45.69746" lon="5.43632">
        <ele>244.2</ele>
        <time>2022-09-25T10:17:36Z</time>
      </trkpt>
      <trkpt lat="45.69742" lon="5.43637">
        <ele>244.2</ele>
        <time>2022-09-25T10:17:37Z</time>
      </trkpt>
      <trkpt lat="45.69738" lon="5.43642">
        <ele>244.2</ele>
        <time>2022-09-25T10:17:38Z</time>
      </trkpt>
      <trkpt lat="45.69735" lon="5.43647">
        <ele>244.2</ele>
        <time>2022-09-25T10:17:39Z</time>
      </trkpt>
      <trkpt lat="45.69731" lon="5.43652">
        <ele>244.2</ele>
        <time>2022-09-25T10:17:40Z</time>
      </trkpt>
      <trkpt lat="45.69728" lon="5.43657">
        <ele>244.2</ele>
        <time>2022-09-25T10:17:41Z</time>
      </trkpt>
      <trkpt lat="45.69725" lon="5.43661">
        <ele>244.2</ele>
        <time>2022-09-25T10:17:42Z</time>
      </trkpt>
      <trkpt lat="45.69723" lon="5.43665">
        <ele>244.2</ele>
        <time>2022-09-25T10:17:43Z</time>
      </trkpt>
      <trkpt lat="45.69721" lon="5.43669">
        <ele>244.1</ele>
        <time>2022-09-25T10:17:44Z</time>
      </trkpt>
      <trkpt lat="45.69717" lon="5.43671">
        <ele>244.1</ele>
        <time>2022-09-25T10:17:45Z</time>
      </trkpt>
      <trkpt lat="45.69713" lon="5.43672">
        <ele>244.1</ele>
        <time>2022-09-25T10:17:46Z</time>
      </trkpt>
      <trkpt lat="45.69709" lon="5.43674">
        <ele>244.1</ele>
        <time>2022-09-25T10:17:47Z</time>
      </trkpt>
      <trkpt lat="45.69705" lon="5.43676">
        <ele>244.1</ele>
        <time>2022-09-25T10:17:48Z</time>
      </trkpt>
      <trkpt lat="45.697" lon="5.43677">
        <ele>244.1</ele>
        <time>2022-09-25T10:17:49Z</time>
      </trkpt>
      <trkpt lat="45.69696" lon="5.43678">
        <ele>244.1</ele>
        <time>2022-09-25T10:17:50Z</time>
      </trkpt>
      <trkpt lat="45.69691" lon="5.4368">
        <ele>244.1</ele>
        <time>2022-09-25T10:17:51Z</time>
      </trkpt>
      <trkpt lat="45.69687" lon="5.43681">
        <ele>244</ele>
        <time>2022-09-25T10:17:52Z</time>
      </trkpt>
      <trkpt lat="45.69682" lon="5.43683">
        <ele>244</ele>
        <time>2022-09-25T10:17:53Z</time>
      </trkpt>
      <trkpt lat="45.69678" lon="5.43687">
        <ele>244</ele>
        <time>2022-09-25T10:17:54Z</time>
      </trkpt>
      <trkpt lat="45.69675" lon="5.43692">
        <ele>244</ele>
        <time>2022-09-25T10:17:55Z</time>
      </trkpt>
      <trkpt lat="45.69672" lon="5.43696">
        <ele>244</ele>
        <time>2022-09-25T10:17:56Z</time>
      </trkpt>
      <trkpt lat="45.69669" lon="5.43701">
        <ele>244</ele>
        <time>2022-09-25T10:17:57Z</time>
      </trkpt>
      <trkpt lat="45.69667" lon="5.43708">
        <ele>244</ele>
        <time>2022-09-25T10:17:58Z</time>
      </trkpt>
      <trkpt lat="45.69665" lon="5.43715">
        <ele>243.9</ele>
        <time>2022-09-25T10:17:59Z</time>
      </trkpt>
      <trkpt lat="45.69664" lon="5.43721">
        <ele>243.9</ele>
        <time>2022-09-25T10:18:00Z</time>
      </trkpt>
      <trkpt lat="45.69664" lon="5.43727">
        <ele>243.9</ele>
        <time>2022-09-25T10:18:01Z</time>
      </trkpt>
      <trkpt lat="45.69664" lon="5.43735">
        <ele>243.8</ele>
        <time>2022-09-25T10:18:02Z</time>
      </trkpt>
      <trkpt lat="45.69664" lon="5.43743">
        <ele>243.8</ele>
        <time>2022-09-25T10:18:03Z</time>
      </trkpt>
      <trkpt lat="45.69664" lon="5.4375">
        <ele>243.7</ele>
        <time>2022-09-25T10:18:04Z</time>
      </trkpt>
      <trkpt lat="45.69664" lon="5.43758">
        <ele>243.7</ele>
        <time>2022-09-25T10:18:05Z</time>
      </trkpt>
      <trkpt lat="45.69665" lon="5.43765">
        <ele>243.7</ele>
        <time>2022-09-25T10:18:06Z</time>
      </trkpt>
      <trkpt lat="45.69666" lon="5.43773">
        <ele>243.6</ele>
        <time>2022-09-25T10:18:07Z</time>
      </trkpt>
      <trkpt lat="45.69666" lon="5.4378">
        <ele>243.6</ele>
        <time>2022-09-25T10:18:08Z</time>
      </trkpt>
      <trkpt lat="45.69667" lon="5.43788">
        <ele>243.5</ele>
        <time>2022-09-25T10:18:09Z</time>
      </trkpt>
      <trkpt lat="45.69668" lon="5.43795">
        <ele>243.5</ele>
        <time>2022-09-25T10:18:10Z</time>
      </trkpt>
      <trkpt lat="45.69668" lon="5.43803">
        <ele>243.4</ele>
        <time>2022-09-25T10:18:11Z</time>
      </trkpt>
      <trkpt lat="45.69668" lon="5.43811">
        <ele>243.4</ele>
        <time>2022-09-25T10:18:12Z</time>
      </trkpt>
      <trkpt lat="45.69668" lon="5.43819">
        <ele>243.4</ele>
        <time>2022-09-25T10:18:13Z</time>
      </trkpt>
      <trkpt lat="45.69669" lon="5.43827">
        <ele>243.4</ele>
        <time>2022-09-25T10:18:14Z</time>
      </trkpt>
      <trkpt lat="45.69669" lon="5.43834">
        <ele>243.4</ele>
        <time>2022-09-25T10:18:15Z</time>
      </trkpt>
      <trkpt lat="45.69669" lon="5.43842">
        <ele>243.4</ele>
        <time>2022-09-25T10:18:16Z</time>
      </trkpt>
      <trkpt lat="45.69668" lon="5.4385">
        <ele>243.4</ele>
        <time>2022-09-25T10:18:17Z</time>
      </trkpt>
      <trkpt lat="45.69667" lon="5.43857">
        <ele>243.4</ele>
        <time>2022-09-25T10:18:18Z</time>
      </trkpt>
      <trkpt lat="45.69666" lon="5.43865">
        <ele>243.4</ele>
        <time>2022-09-25T10:18:19Z</time>
      </trkpt>
      <trkpt lat="45.69664" lon="5.43872">
        <ele>243.5</ele>
        <time>2022-09-25T10:18:20Z</time>
      </trkpt>
      <trkpt lat="45.69663" lon="5.43877">
        <ele>243.5</ele>
        <time>2022-09-25T10:18:21Z</time>
      </trkpt>
      <trkpt lat="45.69662" lon="5.43882">
        <ele>243.5</ele>
        <time>2022-09-25T10:18:22Z</time>
      </trkpt>
      <trkpt lat="45.69662" lon="5.43883">
        <ele>243.5</ele>
        <time>2022-09-25T10:18:23Z</time>
      </trkpt>
      <trkpt lat="45.6966" lon="5.43887">
        <ele>243.5</ele>
        <time>2022-09-25T10:18:24Z</time>
      </trkpt>
      <trkpt lat="45.6966" lon="5.43889">
        <ele>243.4</ele>
        <time>2022-09-25T10:18:25Z</time>
      </trkpt>
      <trkpt lat="45.69659" lon="5.43894">
        <ele>243.3</ele>
        <time>2022-09-25T10:18:26Z</time>
      </trkpt>
      <trkpt lat="45.69658" lon="5.43899">
        <ele>243.1</ele>
        <time>2022-09-25T10:18:27Z</time>
      </trkpt>
      <trkpt lat="45.69657" lon="5.43905">
        <ele>243</ele>
        <time>2022-09-25T10:18:28Z</time>
      </trkpt>
      <trkpt lat="45.69655" lon="5.43911">
        <ele>242.8</ele>
        <time>2022-09-25T10:18:29Z</time>
      </trkpt>
      <trkpt lat="45.69653" lon="5.43916">
        <ele>242.6</ele>
        <time>2022-09-25T10:18:30Z</time>
      </trkpt>
      <trkpt lat="45.69651" lon="5.43922">
        <ele>242.4</ele>
        <time>2022-09-25T10:18:31Z</time>
      </trkpt>
      <trkpt lat="45.69648" lon="5.43929">
        <ele>242.2</ele>
        <time>2022-09-25T10:18:32Z</time>
      </trkpt>
      <trkpt lat="45.69646" lon="5.43935">
        <ele>242.1</ele>
        <time>2022-09-25T10:18:33Z</time>
      </trkpt>
      <trkpt lat="45.69644" lon="5.43942">
        <ele>241.9</ele>
        <time>2022-09-25T10:18:34Z</time>
      </trkpt>
      <trkpt lat="45.69641" lon="5.43946">
        <ele>241.7</ele>
        <time>2022-09-25T10:18:35Z</time>
      </trkpt>
      <trkpt lat="45.69639" lon="5.43951">
        <ele>241.6</ele>
        <time>2022-09-25T10:18:36Z</time>
      </trkpt>
      <trkpt lat="45.69636" lon="5.43958">
        <ele>241.4</ele>
        <time>2022-09-25T10:18:37Z</time>
      </trkpt>
      <trkpt lat="45.69632" lon="5.43964">
        <ele>241.2</ele>
        <time>2022-09-25T10:18:38Z</time>
      </trkpt>
      <trkpt lat="45.69628" lon="5.4397">
        <ele>241</ele>
        <time>2022-09-25T10:18:39Z</time>
      </trkpt>
      <trkpt lat="45.69624" lon="5.43976">
        <ele>240.8</ele>
        <time>2022-09-25T10:18:40Z</time>
      </trkpt>
      <trkpt lat="45.6962" lon="5.43982">
        <ele>240.6</ele>
        <time>2022-09-25T10:18:41Z</time>
      </trkpt>
      <trkpt lat="45.69614" lon="5.43989">
        <ele>240.4</ele>
        <time>2022-09-25T10:18:42Z</time>
      </trkpt>
      <trkpt lat="45.6961" lon="5.43996">
        <ele>240.2</ele>
        <time>2022-09-25T10:18:43Z</time>
      </trkpt>
      <trkpt lat="45.69605" lon="5.44003">
        <ele>240</ele>
        <time>2022-09-25T10:18:44Z</time>
      </trkpt>
      <trkpt lat="45.696" lon="5.44009">
        <ele>239.9</ele>
        <time>2022-09-25T10:18:45Z</time>
      </trkpt>
      <trkpt lat="45.69596" lon="5.44017">
        <ele>239.7</ele>
        <time>2022-09-25T10:18:46Z</time>
      </trkpt>
      <trkpt lat="45.69591" lon="5.44024">
        <ele>239.6</ele>
        <time>2022-09-25T10:18:47Z</time>
      </trkpt>
      <trkpt lat="45.69587" lon="5.4403">
        <ele>239.5</ele>
        <time>2022-09-25T10:18:48Z</time>
      </trkpt>
      <trkpt lat="45.69585" lon="5.44037">
        <ele>239.4</ele>
        <time>2022-09-25T10:18:49Z</time>
      </trkpt>
      <trkpt lat="45.69582" lon="5.44044">
        <ele>239.3</ele>
        <time>2022-09-25T10:18:50Z</time>
      </trkpt>
      <trkpt lat="45.6958" lon="5.44052">
        <ele>239.2</ele>
        <time>2022-09-25T10:18:51Z</time>
      </trkpt>
      <trkpt lat="45.69578" lon="5.4406">
        <ele>239.1</ele>
        <time>2022-09-25T10:18:52Z</time>
      </trkpt>
      <trkpt lat="45.69577" lon="5.44069">
        <ele>239</ele>
        <time>2022-09-25T10:18:53Z</time>
      </trkpt>
      <trkpt lat="45.69576" lon="5.44077">
        <ele>238.9</ele>
        <time>2022-09-25T10:18:54Z</time>
      </trkpt>
      <trkpt lat="45.69575" lon="5.44085">
        <ele>238.8</ele>
        <time>2022-09-25T10:18:55Z</time>
      </trkpt>
      <trkpt lat="45.69575" lon="5.44092">
        <ele>238.7</ele>
        <time>2022-09-25T10:18:56Z</time>
      </trkpt>
      <trkpt lat="45.69574" lon="5.441">
        <ele>238.6</ele>
        <time>2022-09-25T10:18:57Z</time>
      </trkpt>
      <trkpt lat="45.69574" lon="5.44108">
        <ele>238.5</ele>
        <time>2022-09-25T10:18:58Z</time>
      </trkpt>
      <trkpt lat="45.69573" lon="5.44114">
        <ele>238.5</ele>
        <time>2022-09-25T10:18:59Z</time>
      </trkpt>
      <trkpt lat="45.69573" lon="5.44119">
        <ele>238.4</ele>
        <time>2022-09-25T10:19:00Z</time>
      </trkpt>
      <trkpt lat="45.6957" lon="5.44123">
        <ele>238.3</ele>
        <time>2022-09-25T10:19:01Z</time>
      </trkpt>
      <trkpt lat="45.69568" lon="5.44129">
        <ele>238.3</ele>
        <time>2022-09-25T10:19:02Z</time>
      </trkpt>
      <trkpt lat="45.69565" lon="5.44133">
        <ele>238.2</ele>
        <time>2022-09-25T10:19:03Z</time>
      </trkpt>
      <trkpt lat="45.69562" lon="5.44136">
        <ele>238.1</ele>
        <time>2022-09-25T10:19:04Z</time>
      </trkpt>
      <trkpt lat="45.69558" lon="5.44141">
        <ele>238.1</ele>
        <time>2022-09-25T10:19:05Z</time>
      </trkpt>
      <trkpt lat="45.69555" lon="5.44145">
        <ele>238.1</ele>
        <time>2022-09-25T10:19:06Z</time>
      </trkpt>
      <trkpt lat="45.69551" lon="5.4415">
        <ele>238.1</ele>
        <time>2022-09-25T10:19:07Z</time>
      </trkpt>
      <trkpt lat="45.69547" lon="5.44155">
        <ele>238.1</ele>
        <time>2022-09-25T10:19:08Z</time>
      </trkpt>
      <trkpt lat="45.69543" lon="5.4416">
        <ele>238.1</ele>
        <time>2022-09-25T10:19:09Z</time>
      </trkpt>
      <trkpt lat="45.69539" lon="5.44165">
        <ele>238.1</ele>
        <time>2022-09-25T10:19:10Z</time>
      </trkpt>
      <trkpt lat="45.69535" lon="5.44169">
        <ele>238.2</ele>
        <time>2022-09-25T10:19:11Z</time>
      </trkpt>
      <trkpt lat="45.69531" lon="5.44174">
        <ele>238.3</ele>
        <time>2022-09-25T10:19:12Z</time>
      </trkpt>
      <trkpt lat="45.69527" lon="5.44178">
        <ele>238.4</ele>
        <time>2022-09-25T10:19:13Z</time>
      </trkpt>
      <trkpt lat="45.69523" lon="5.44182">
        <ele>238.5</ele>
        <time>2022-09-25T10:19:14Z</time>
      </trkpt>
      <trkpt lat="45.69519" lon="5.44185">
        <ele>238.7</ele>
        <time>2022-09-25T10:19:15Z</time>
      </trkpt>
      <trkpt lat="45.69515" lon="5.44189">
        <ele>238.8</ele>
        <time>2022-09-25T10:19:16Z</time>
      </trkpt>
      <trkpt lat="45.69513" lon="5.44195">
        <ele>239</ele>
        <time>2022-09-25T10:19:17Z</time>
      </trkpt>
      <trkpt lat="45.69511" lon="5.44201">
        <ele>239.2</ele>
        <time>2022-09-25T10:19:18Z</time>
      </trkpt>
      <trkpt lat="45.69509" lon="5.44206">
        <ele>239.3</ele>
        <time>2022-09-25T10:19:19Z</time>
      </trkpt>
      <trkpt lat="45.69508" lon="5.44212">
        <ele>239.4</ele>
        <time>2022-09-25T10:19:20Z</time>
      </trkpt>
      <trkpt lat="45.69507" lon="5.44216">
        <ele>239.5</ele>
        <time>2022-09-25T10:19:21Z</time>
      </trkpt>
      <trkpt lat="45.69505" lon="5.44222">
        <ele>239.6</ele>
        <time>2022-09-25T10:19:22Z</time>
      </trkpt>
      <trkpt lat="45.69503" lon="5.44226">
        <ele>239.7</ele>
        <time>2022-09-25T10:19:23Z</time>
      </trkpt>
      <trkpt lat="45.69501" lon="5.4423">
        <ele>239.8</ele>
        <time>2022-09-25T10:19:24Z</time>
      </trkpt>
      <trkpt lat="45.69498" lon="5.44235">
        <ele>239.9</ele>
        <time>2022-09-25T10:19:25Z</time>
      </trkpt>
      <trkpt lat="45.69496" lon="5.4424">
        <ele>239.9</ele>
        <time>2022-09-25T10:19:26Z</time>
      </trkpt>
      <trkpt lat="45.69492" lon="5.44244">
        <ele>240</ele>
        <time>2022-09-25T10:19:27Z</time>
      </trkpt>
      <trkpt lat="45.6949" lon="5.44249">
        <ele>240.1</ele>
        <time>2022-09-25T10:19:28Z</time>
      </trkpt>
      <trkpt lat="45.69488" lon="5.44254">
        <ele>240.2</ele>
        <time>2022-09-25T10:19:29Z</time>
      </trkpt>
      <trkpt lat="45.69485" lon="5.44258">
        <ele>240.3</ele>
        <time>2022-09-25T10:19:30Z</time>
      </trkpt>
      <trkpt lat="45.69482" lon="5.44263">
        <ele>240.3</ele>
        <time>2022-09-25T10:19:31Z</time>
      </trkpt>
      <trkpt lat="45.69479" lon="5.44267">
        <ele>240.4</ele>
        <time>2022-09-25T10:19:32Z</time>
      </trkpt>
      <trkpt lat="45.69477" lon="5.44272">
        <ele>240.5</ele>
        <time>2022-09-25T10:19:33Z</time>
      </trkpt>
      <trkpt lat="45.69474" lon="5.44276">
        <ele>240.6</ele>
        <time>2022-09-25T10:19:34Z</time>
      </trkpt>
      <trkpt lat="45.6947" lon="5.4428">
        <ele>240.6</ele>
        <time>2022-09-25T10:19:35Z</time>
      </trkpt>
      <trkpt lat="45.69468" lon="5.44285">
        <ele>240.7</ele>
        <time>2022-09-25T10:19:36Z</time>
      </trkpt>
      <trkpt lat="45.69465" lon="5.44289">
        <ele>240.7</ele>
        <time>2022-09-25T10:19:37Z</time>
      </trkpt>
      <trkpt lat="45.69462" lon="5.44293">
        <ele>240.7</ele>
        <time>2022-09-25T10:19:38Z</time>
      </trkpt>
      <trkpt lat="45.69459" lon="5.44297">
        <ele>240.8</ele>
        <time>2022-09-25T10:19:39Z</time>
      </trkpt>
      <trkpt lat="45.69456" lon="5.44302">
        <ele>240.8</ele>
        <time>2022-09-25T10:19:40Z</time>
      </trkpt>
      <trkpt lat="45.69453" lon="5.44306">
        <ele>240.8</ele>
        <time>2022-09-25T10:19:41Z</time>
      </trkpt>
      <trkpt lat="45.6945" lon="5.44311">
        <ele>240.9</ele>
        <time>2022-09-25T10:19:42Z</time>
      </trkpt>
      <trkpt lat="45.69447" lon="5.44315">
        <ele>240.9</ele>
        <time>2022-09-25T10:19:43Z</time>
      </trkpt>
      <trkpt lat="45.69444" lon="5.4432">
        <ele>240.9</ele>
        <time>2022-09-25T10:19:44Z</time>
      </trkpt>
      <trkpt lat="45.69441" lon="5.44324">
        <ele>241</ele>
        <time>2022-09-25T10:19:45Z</time>
      </trkpt>
      <trkpt lat="45.69438" lon="5.44329">
        <ele>241</ele>
        <time>2022-09-25T10:19:46Z</time>
      </trkpt>
      <trkpt lat="45.69436" lon="5.44333">
        <ele>241.1</ele>
        <time>2022-09-25T10:19:47Z</time>
      </trkpt>
      <trkpt lat="45.69433" lon="5.44338">
        <ele>241.1</ele>
        <time>2022-09-25T10:19:48Z</time>
      </trkpt>
      <trkpt lat="45.69431" lon="5.44343">
        <ele>241.1</ele>
        <time>2022-09-25T10:19:49Z</time>
      </trkpt>
      <trkpt lat="45.69428" lon="5.44347">
        <ele>241.2</ele>
        <time>2022-09-25T10:19:50Z</time>
      </trkpt>
      <trkpt lat="45.69426" lon="5.44352">
        <ele>241.2</ele>
        <time>2022-09-25T10:19:51Z</time>
      </trkpt>
      <trkpt lat="45.69423" lon="5.44357">
        <ele>241.3</ele>
        <time>2022-09-25T10:19:52Z</time>
      </trkpt>
      <trkpt lat="45.69421" lon="5.44362">
        <ele>241.3</ele>
        <time>2022-09-25T10:19:53Z</time>
      </trkpt>
      <trkpt lat="45.69418" lon="5.44367">
        <ele>241.3</ele>
        <time>2022-09-25T10:19:54Z</time>
      </trkpt>
      <trkpt lat="45.69416" lon="5.44371">
        <ele>241.4</ele>
        <time>2022-09-25T10:19:55Z</time>
      </trkpt>
      <trkpt lat="45.69414" lon="5.44377">
        <ele>241.4</ele>
        <time>2022-09-25T10:19:56Z</time>
      </trkpt>
      <trkpt lat="45.69412" lon="5.4438">
        <ele>241.4</ele>
        <time>2022-09-25T10:19:57Z</time>
      </trkpt>
      <trkpt lat="45.69409" lon="5.44386">
        <ele>241.5</ele>
        <time>2022-09-25T10:19:58Z</time>
      </trkpt>
      <trkpt lat="45.69407" lon="5.44392">
        <ele>241.5</ele>
        <time>2022-09-25T10:19:59Z</time>
      </trkpt>
      <trkpt lat="45.69405" lon="5.44397">
        <ele>241.6</ele>
        <time>2022-09-25T10:20:00Z</time>
      </trkpt>
      <trkpt lat="45.69403" lon="5.44402">
        <ele>241.6</ele>
        <time>2022-09-25T10:20:01Z</time>
      </trkpt>
      <trkpt lat="45.69401" lon="5.44407">
        <ele>241.6</ele>
        <time>2022-09-25T10:20:02Z</time>
      </trkpt>
      <trkpt lat="45.69399" lon="5.44413">
        <ele>241.7</ele>
        <time>2022-09-25T10:20:03Z</time>
      </trkpt>
      <trkpt lat="45.69396" lon="5.44418">
        <ele>241.7</ele>
        <time>2022-09-25T10:20:04Z</time>
      </trkpt>
      <trkpt lat="45.69395" lon="5.44423">
        <ele>241.7</ele>
        <time>2022-09-25T10:20:05Z</time>
      </trkpt>
      <trkpt lat="45.69393" lon="5.44429">
        <ele>241.8</ele>
        <time>2022-09-25T10:20:06Z</time>
      </trkpt>
      <trkpt lat="45.69391" lon="5.44436">
        <ele>241.8</ele>
        <time>2022-09-25T10:20:07Z</time>
      </trkpt>
      <trkpt lat="45.69389" lon="5.44442">
        <ele>241.8</ele>
        <time>2022-09-25T10:20:08Z</time>
      </trkpt>
      <trkpt lat="45.69387" lon="5.44447">
        <ele>241.9</ele>
        <time>2022-09-25T10:20:09Z</time>
      </trkpt>
      <trkpt lat="45.69385" lon="5.44453">
        <ele>241.9</ele>
        <time>2022-09-25T10:20:10Z</time>
      </trkpt>
      <trkpt lat="45.69384" lon="5.44459">
        <ele>241.9</ele>
        <time>2022-09-25T10:20:11Z</time>
      </trkpt>
      <trkpt lat="45.69383" lon="5.44465">
        <ele>241.9</ele>
        <time>2022-09-25T10:20:12Z</time>
      </trkpt>
      <trkpt lat="45.69381" lon="5.44472">
        <ele>242</ele>
        <time>2022-09-25T10:20:13Z</time>
      </trkpt>
      <trkpt lat="45.69381" lon="5.44478">
        <ele>242</ele>
        <time>2022-09-25T10:20:14Z</time>
      </trkpt>
      <trkpt lat="45.6938" lon="5.44484">
        <ele>242</ele>
        <time>2022-09-25T10:20:15Z</time>
      </trkpt>
      <trkpt lat="45.69378" lon="5.44491">
        <ele>241.9</ele>
        <time>2022-09-25T10:20:16Z</time>
      </trkpt>
      <trkpt lat="45.69378" lon="5.44497">
        <ele>241.9</ele>
        <time>2022-09-25T10:20:17Z</time>
      </trkpt>
      <trkpt lat="45.69377" lon="5.44503">
        <ele>241.9</ele>
        <time>2022-09-25T10:20:18Z</time>
      </trkpt>
      <trkpt lat="45.69376" lon="5.4451">
        <ele>242</ele>
        <time>2022-09-25T10:20:19Z</time>
      </trkpt>
      <trkpt lat="45.69375" lon="5.44516">
        <ele>242</ele>
        <time>2022-09-25T10:20:20Z</time>
      </trkpt>
      <trkpt lat="45.69374" lon="5.44522">
        <ele>242</ele>
        <time>2022-09-25T10:20:21Z</time>
      </trkpt>
      <trkpt lat="45.69374" lon="5.44528">
        <ele>242</ele>
        <time>2022-09-25T10:20:22Z</time>
      </trkpt>
      <trkpt lat="45.69373" lon="5.44534">
        <ele>242</ele>
        <time>2022-09-25T10:20:23Z</time>
      </trkpt>
      <trkpt lat="45.69372" lon="5.4454">
        <ele>242.1</ele>
        <time>2022-09-25T10:20:24Z</time>
      </trkpt>
      <trkpt lat="45.69372" lon="5.44546">
        <ele>242.1</ele>
        <time>2022-09-25T10:20:25Z</time>
      </trkpt>
      <trkpt lat="45.69371" lon="5.44552">
        <ele>242.1</ele>
        <time>2022-09-25T10:20:26Z</time>
      </trkpt>
      <trkpt lat="45.6937" lon="5.44558">
        <ele>242.1</ele>
        <time>2022-09-25T10:20:27Z</time>
      </trkpt>
      <trkpt lat="45.6937" lon="5.44564">
        <ele>242.1</ele>
        <time>2022-09-25T10:20:28Z</time>
      </trkpt>
      <trkpt lat="45.69369" lon="5.4457">
        <ele>242.1</ele>
        <time>2022-09-25T10:20:29Z</time>
      </trkpt>
      <trkpt lat="45.69368" lon="5.44576">
        <ele>242.1</ele>
        <time>2022-09-25T10:20:30Z</time>
      </trkpt>
      <trkpt lat="45.69367" lon="5.44582">
        <ele>242.1</ele>
        <time>2022-09-25T10:20:31Z</time>
      </trkpt>
      <trkpt lat="45.69367" lon="5.44588">
        <ele>242.1</ele>
        <time>2022-09-25T10:20:32Z</time>
      </trkpt>
      <trkpt lat="45.69366" lon="5.44595">
        <ele>242</ele>
        <time>2022-09-25T10:20:33Z</time>
      </trkpt>
      <trkpt lat="45.69365" lon="5.44601">
        <ele>242</ele>
        <time>2022-09-25T10:20:34Z</time>
      </trkpt>
      <trkpt lat="45.69364" lon="5.44608">
        <ele>241.9</ele>
        <time>2022-09-25T10:20:35Z</time>
      </trkpt>
      <trkpt lat="45.69363" lon="5.44615">
        <ele>241.9</ele>
        <time>2022-09-25T10:20:36Z</time>
      </trkpt>
      <trkpt lat="45.69362" lon="5.44622">
        <ele>241.8</ele>
        <time>2022-09-25T10:20:37Z</time>
      </trkpt>
      <trkpt lat="45.69362" lon="5.44629">
        <ele>241.8</ele>
        <time>2022-09-25T10:20:38Z</time>
      </trkpt>
      <trkpt lat="45.69361" lon="5.44637">
        <ele>241.8</ele>
        <time>2022-09-25T10:20:39Z</time>
      </trkpt>
      <trkpt lat="45.69361" lon="5.44644">
        <ele>241.7</ele>
        <time>2022-09-25T10:20:40Z</time>
      </trkpt>
      <trkpt lat="45.6936" lon="5.44651">
        <ele>241.7</ele>
        <time>2022-09-25T10:20:41Z</time>
      </trkpt>
      <trkpt lat="45.6936" lon="5.44659">
        <ele>241.6</ele>
        <time>2022-09-25T10:20:42Z</time>
      </trkpt>
      <trkpt lat="45.6936" lon="5.44666">
        <ele>241.5</ele>
        <time>2022-09-25T10:20:43Z</time>
      </trkpt>
      <trkpt lat="45.6936" lon="5.44673">
        <ele>241.5</ele>
        <time>2022-09-25T10:20:44Z</time>
      </trkpt>
      <trkpt lat="45.69359" lon="5.44681">
        <ele>241.3</ele>
        <time>2022-09-25T10:20:45Z</time>
      </trkpt>
      <trkpt lat="45.69359" lon="5.44689">
        <ele>241.2</ele>
        <time>2022-09-25T10:20:46Z</time>
      </trkpt>
      <trkpt lat="45.69359" lon="5.44696">
        <ele>241</ele>
        <time>2022-09-25T10:20:47Z</time>
      </trkpt>
      <trkpt lat="45.69359" lon="5.44704">
        <ele>240.8</ele>
        <time>2022-09-25T10:20:48Z</time>
      </trkpt>
      <trkpt lat="45.69359" lon="5.44712">
        <ele>240.6</ele>
        <time>2022-09-25T10:20:49Z</time>
      </trkpt>
      <trkpt lat="45.6936" lon="5.44718">
        <ele>240.4</ele>
        <time>2022-09-25T10:20:50Z</time>
      </trkpt>
      <trkpt lat="45.69361" lon="5.44726">
        <ele>240.1</ele>
        <time>2022-09-25T10:20:51Z</time>
      </trkpt>
      <trkpt lat="45.69362" lon="5.44735">
        <ele>239.8</ele>
        <time>2022-09-25T10:20:52Z</time>
      </trkpt>
      <trkpt lat="45.69363" lon="5.44744">
        <ele>239.5</ele>
        <time>2022-09-25T10:20:53Z</time>
      </trkpt>
      <trkpt lat="45.69365" lon="5.44752">
        <ele>239.2</ele>
        <time>2022-09-25T10:20:54Z</time>
      </trkpt>
      <trkpt lat="45.69367" lon="5.4476">
        <ele>238.9</ele>
        <time>2022-09-25T10:20:55Z</time>
      </trkpt>
      <trkpt lat="45.69371" lon="5.44768">
        <ele>238.5</ele>
        <time>2022-09-25T10:20:56Z</time>
      </trkpt>
      <trkpt lat="45.69373" lon="5.44777">
        <ele>238.2</ele>
        <time>2022-09-25T10:20:57Z</time>
      </trkpt>
      <trkpt lat="45.69375" lon="5.44785">
        <ele>237.9</ele>
        <time>2022-09-25T10:20:58Z</time>
      </trkpt>
      <trkpt lat="45.69376" lon="5.44791">
        <ele>237.7</ele>
        <time>2022-09-25T10:20:59Z</time>
      </trkpt>
      <trkpt lat="45.69378" lon="5.44799">
        <ele>237.4</ele>
        <time>2022-09-25T10:21:00Z</time>
      </trkpt>
      <trkpt lat="45.6938" lon="5.44806">
        <ele>237.2</ele>
        <time>2022-09-25T10:21:01Z</time>
      </trkpt>
      <trkpt lat="45.6938" lon="5.44812">
        <ele>236.9</ele>
        <time>2022-09-25T10:21:02Z</time>
      </trkpt>
      <trkpt lat="45.69382" lon="5.44819">
        <ele>236.6</ele>
        <time>2022-09-25T10:21:03Z</time>
      </trkpt>
      <trkpt lat="45.69381" lon="5.44825">
        <ele>236.4</ele>
        <time>2022-09-25T10:21:04Z</time>
      </trkpt>
      <trkpt lat="45.69379" lon="5.4483">
        <ele>236.2</ele>
        <time>2022-09-25T10:21:05Z</time>
      </trkpt>
      <trkpt lat="45.69376" lon="5.44835">
        <ele>235.9</ele>
        <time>2022-09-25T10:21:06Z</time>
      </trkpt>
      <trkpt lat="45.69372" lon="5.4484">
        <ele>235.6</ele>
        <time>2022-09-25T10:21:07Z</time>
      </trkpt>
      <trkpt lat="45.69369" lon="5.44845">
        <ele>235.4</ele>
        <time>2022-09-25T10:21:08Z</time>
      </trkpt>
      <trkpt lat="45.69366" lon="5.4485">
        <ele>235.2</ele>
        <time>2022-09-25T10:21:09Z</time>
      </trkpt>
      <trkpt lat="45.69363" lon="5.44858">
        <ele>235</ele>
        <time>2022-09-25T10:21:10Z</time>
      </trkpt>
      <trkpt lat="45.69358" lon="5.44864">
        <ele>234.8</ele>
        <time>2022-09-25T10:21:11Z</time>
      </trkpt>
      <trkpt lat="45.69355" lon="5.4487">
        <ele>234.6</ele>
        <time>2022-09-25T10:21:12Z</time>
      </trkpt>
      <trkpt lat="45.69352" lon="5.44877">
        <ele>234.5</ele>
        <time>2022-09-25T10:21:13Z</time>
      </trkpt>
      <trkpt lat="45.69349" lon="5.44884">
        <ele>234.4</ele>
        <time>2022-09-25T10:21:14Z</time>
      </trkpt>
      <trkpt lat="45.69346" lon="5.4489">
        <ele>234.3</ele>
        <time>2022-09-25T10:21:15Z</time>
      </trkpt>
      <trkpt lat="45.69343" lon="5.44897">
        <ele>234.2</ele>
        <time>2022-09-25T10:21:16Z</time>
      </trkpt>
      <trkpt lat="45.6934" lon="5.44906">
        <ele>234.2</ele>
        <time>2022-09-25T10:21:17Z</time>
      </trkpt>
      <trkpt lat="45.69336" lon="5.44915">
        <ele>234.1</ele>
        <time>2022-09-25T10:21:18Z</time>
      </trkpt>
      <trkpt lat="45.69333" lon="5.44923">
        <ele>234.1</ele>
        <time>2022-09-25T10:21:19Z</time>
      </trkpt>
      <trkpt lat="45.6933" lon="5.44932">
        <ele>234.1</ele>
        <time>2022-09-25T10:21:20Z</time>
      </trkpt>
      <trkpt lat="45.69328" lon="5.44939">
        <ele>234.1</ele>
        <time>2022-09-25T10:21:21Z</time>
      </trkpt>
      <trkpt lat="45.69325" lon="5.44949">
        <ele>234.1</ele>
        <time>2022-09-25T10:21:22Z</time>
      </trkpt>
      <trkpt lat="45.69322" lon="5.44959">
        <ele>234.1</ele>
        <time>2022-09-25T10:21:23Z</time>
      </trkpt>
      <trkpt lat="45.69318" lon="5.44969">
        <ele>234.2</ele>
        <time>2022-09-25T10:21:24Z</time>
      </trkpt>
      <trkpt lat="45.69314" lon="5.44978">
        <ele>234.2</ele>
        <time>2022-09-25T10:21:25Z</time>
      </trkpt>
      <trkpt lat="45.69312" lon="5.44986">
        <ele>234.3</ele>
        <time>2022-09-25T10:21:26Z</time>
      </trkpt>
      <trkpt lat="45.6931" lon="5.44994">
        <ele>234.3</ele>
        <time>2022-09-25T10:21:27Z</time>
      </trkpt>
      <trkpt lat="45.69306" lon="5.45003">
        <ele>234.4</ele>
        <time>2022-09-25T10:21:28Z</time>
      </trkpt>
      <trkpt lat="45.69304" lon="5.45011">
        <ele>234.4</ele>
        <time>2022-09-25T10:21:29Z</time>
      </trkpt>
      <trkpt lat="45.69302" lon="5.45017">
        <ele>234.5</ele>
        <time>2022-09-25T10:21:30Z</time>
      </trkpt>
      <trkpt lat="45.69299" lon="5.45026">
        <ele>234.5</ele>
        <time>2022-09-25T10:21:31Z</time>
      </trkpt>
      <trkpt lat="45.69296" lon="5.45034">
        <ele>234.5</ele>
        <time>2022-09-25T10:21:32Z</time>
      </trkpt>
      <trkpt lat="45.69294" lon="5.45042">
        <ele>234.6</ele>
        <time>2022-09-25T10:21:33Z</time>
      </trkpt>
      <trkpt lat="45.69291" lon="5.4505">
        <ele>234.6</ele>
        <time>2022-09-25T10:21:34Z</time>
      </trkpt>
      <trkpt lat="45.69289" lon="5.45059">
        <ele>234.6</ele>
        <time>2022-09-25T10:21:35Z</time>
      </trkpt>
      <trkpt lat="45.69287" lon="5.45066">
        <ele>234.6</ele>
        <time>2022-09-25T10:21:36Z</time>
      </trkpt>
      <trkpt lat="45.69286" lon="5.45074">
        <ele>234.5</ele>
        <time>2022-09-25T10:21:37Z</time>
      </trkpt>
      <trkpt lat="45.69283" lon="5.45083">
        <ele>234.5</ele>
        <time>2022-09-25T10:21:38Z</time>
      </trkpt>
      <trkpt lat="45.6928" lon="5.45089">
        <ele>234.5</ele>
        <time>2022-09-25T10:21:39Z</time>
      </trkpt>
      <trkpt lat="45.69278" lon="5.45098">
        <ele>234.4</ele>
        <time>2022-09-25T10:21:40Z</time>
      </trkpt>
      <trkpt lat="45.69276" lon="5.45106">
        <ele>234.4</ele>
        <time>2022-09-25T10:21:41Z</time>
      </trkpt>
      <trkpt lat="45.69274" lon="5.45113">
        <ele>234.3</ele>
        <time>2022-09-25T10:21:42Z</time>
      </trkpt>
      <trkpt lat="45.69271" lon="5.45121">
        <ele>234.2</ele>
        <time>2022-09-25T10:21:43Z</time>
      </trkpt>
      <trkpt lat="45.69269" lon="5.45128">
        <ele>234.1</ele>
        <time>2022-09-25T10:21:44Z</time>
      </trkpt>
      <trkpt lat="45.69266" lon="5.45135">
        <ele>234.1</ele>
        <time>2022-09-25T10:21:45Z</time>
      </trkpt>
      <trkpt lat="45.69263" lon="5.45141">
        <ele>234</ele>
        <time>2022-09-25T10:21:46Z</time>
      </trkpt>
      <trkpt lat="45.6926" lon="5.45147">
        <ele>234</ele>
        <time>2022-09-25T10:21:47Z</time>
      </trkpt>
      <trkpt lat="45.69257" lon="5.45154">
        <ele>233.9</ele>
        <time>2022-09-25T10:21:48Z</time>
      </trkpt>
      <trkpt lat="45.69255" lon="5.45161">
        <ele>233.9</ele>
        <time>2022-09-25T10:21:49Z</time>
      </trkpt>
      <trkpt lat="45.69252" lon="5.45166">
        <ele>233.8</ele>
        <time>2022-09-25T10:21:50Z</time>
      </trkpt>
      <trkpt lat="45.69248" lon="5.45171">
        <ele>233.8</ele>
        <time>2022-09-25T10:21:51Z</time>
      </trkpt>
      <trkpt lat="45.69245" lon="5.45176">
        <ele>233.7</ele>
        <time>2022-09-25T10:21:52Z</time>
      </trkpt>
      <trkpt lat="45.69242" lon="5.45182">
        <ele>233.7</ele>
        <time>2022-09-25T10:21:53Z</time>
      </trkpt>
      <trkpt lat="45.69238" lon="5.45189">
        <ele>233.6</ele>
        <time>2022-09-25T10:21:54Z</time>
      </trkpt>
      <trkpt lat="45.69235" lon="5.45195">
        <ele>233.6</ele>
        <time>2022-09-25T10:21:55Z</time>
      </trkpt>
      <trkpt lat="45.69231" lon="5.452">
        <ele>233.6</ele>
        <time>2022-09-25T10:21:56Z</time>
      </trkpt>
      <trkpt lat="45.69227" lon="5.45206">
        <ele>233.6</ele>
        <time>2022-09-25T10:21:57Z</time>
      </trkpt>
      <trkpt lat="45.69223" lon="5.45212">
        <ele>233.6</ele>
        <time>2022-09-25T10:21:58Z</time>
      </trkpt>
      <trkpt lat="45.6922" lon="5.45217">
        <ele>233.6</ele>
        <time>2022-09-25T10:21:59Z</time>
      </trkpt>
      <trkpt lat="45.69216" lon="5.45223">
        <ele>233.7</ele>
        <time>2022-09-25T10:22:00Z</time>
      </trkpt>
      <trkpt lat="45.69212" lon="5.45227">
        <ele>233.7</ele>
        <time>2022-09-25T10:22:01Z</time>
      </trkpt>
      <trkpt lat="45.69208" lon="5.45233">
        <ele>233.7</ele>
        <time>2022-09-25T10:22:02Z</time>
      </trkpt>
      <trkpt lat="45.69204" lon="5.45237">
        <ele>233.7</ele>
        <time>2022-09-25T10:22:03Z</time>
      </trkpt>
      <trkpt lat="45.692" lon="5.45243">
        <ele>233.7</ele>
        <time>2022-09-25T10:22:04Z</time>
      </trkpt>
      <trkpt lat="45.69196" lon="5.45247">
        <ele>233.6</ele>
        <time>2022-09-25T10:22:05Z</time>
      </trkpt>
      <trkpt lat="45.69192" lon="5.45253">
        <ele>233.6</ele>
        <time>2022-09-25T10:22:06Z</time>
      </trkpt>
      <trkpt lat="45.69188" lon="5.45259">
        <ele>233.5</ele>
        <time>2022-09-25T10:22:07Z</time>
      </trkpt>
      <trkpt lat="45.69183" lon="5.45263">
        <ele>233.5</ele>
        <time>2022-09-25T10:22:08Z</time>
      </trkpt>
      <trkpt lat="45.69179" lon="5.45269">
        <ele>233.5</ele>
        <time>2022-09-25T10:22:09Z</time>
      </trkpt>
      <trkpt lat="45.69174" lon="5.45275">
        <ele>233.5</ele>
        <time>2022-09-25T10:22:10Z</time>
      </trkpt>
      <trkpt lat="45.6917" lon="5.4528">
        <ele>233.5</ele>
        <time>2022-09-25T10:22:11Z</time>
      </trkpt>
      <trkpt lat="45.69165" lon="5.45285">
        <ele>233.6</ele>
        <time>2022-09-25T10:22:12Z</time>
      </trkpt>
      <trkpt lat="45.6916" lon="5.4529">
        <ele>233.6</ele>
        <time>2022-09-25T10:22:13Z</time>
      </trkpt>
      <trkpt lat="45.69155" lon="5.45294">
        <ele>233.6</ele>
        <time>2022-09-25T10:22:14Z</time>
      </trkpt>
      <trkpt lat="45.69151" lon="5.45299">
        <ele>233.7</ele>
        <time>2022-09-25T10:22:15Z</time>
      </trkpt>
      <trkpt lat="45.69146" lon="5.45304">
        <ele>233.7</ele>
        <time>2022-09-25T10:22:16Z</time>
      </trkpt>
      <trkpt lat="45.69141" lon="5.45309">
        <ele>233.8</ele>
        <time>2022-09-25T10:22:17Z</time>
      </trkpt>
      <trkpt lat="45.69137" lon="5.45314">
        <ele>233.8</ele>
        <time>2022-09-25T10:22:18Z</time>
      </trkpt>
      <trkpt lat="45.69132" lon="5.45318">
        <ele>233.9</ele>
        <time>2022-09-25T10:22:19Z</time>
      </trkpt>
      <trkpt lat="45.69128" lon="5.45323">
        <ele>233.9</ele>
        <time>2022-09-25T10:22:20Z</time>
      </trkpt>
      <trkpt lat="45.69123" lon="5.45328">
        <ele>233.9</ele>
        <time>2022-09-25T10:22:21Z</time>
      </trkpt>
      <trkpt lat="45.69119" lon="5.45333">
        <ele>233.9</ele>
        <time>2022-09-25T10:22:22Z</time>
      </trkpt>
      <trkpt lat="45.69113" lon="5.45337">
        <ele>233.9</ele>
        <time>2022-09-25T10:22:23Z</time>
      </trkpt>
      <trkpt lat="45.69108" lon="5.45341">
        <ele>233.9</ele>
        <time>2022-09-25T10:22:24Z</time>
      </trkpt>
      <trkpt lat="45.69104" lon="5.45346">
        <ele>233.8</ele>
        <time>2022-09-25T10:22:25Z</time>
      </trkpt>
      <trkpt lat="45.69099" lon="5.4535">
        <ele>233.8</ele>
        <time>2022-09-25T10:22:26Z</time>
      </trkpt>
      <trkpt lat="45.69094" lon="5.45355">
        <ele>233.7</ele>
        <time>2022-09-25T10:22:27Z</time>
      </trkpt>
      <trkpt lat="45.69088" lon="5.45359">
        <ele>233.7</ele>
        <time>2022-09-25T10:22:28Z</time>
      </trkpt>
      <trkpt lat="45.69083" lon="5.45364">
        <ele>233.6</ele>
        <time>2022-09-25T10:22:29Z</time>
      </trkpt>
      <trkpt lat="45.69077" lon="5.45368">
        <ele>233.5</ele>
        <time>2022-09-25T10:22:30Z</time>
      </trkpt>
      <trkpt lat="45.69072" lon="5.45373">
        <ele>233.5</ele>
        <time>2022-09-25T10:22:31Z</time>
      </trkpt>
      <trkpt lat="45.69068" lon="5.45377">
        <ele>233.4</ele>
        <time>2022-09-25T10:22:32Z</time>
      </trkpt>
      <trkpt lat="45.69063" lon="5.45382">
        <ele>233.3</ele>
        <time>2022-09-25T10:22:33Z</time>
      </trkpt>
      <trkpt lat="45.69058" lon="5.45387">
        <ele>233.2</ele>
        <time>2022-09-25T10:22:34Z</time>
      </trkpt>
      <trkpt lat="45.69053" lon="5.45392">
        <ele>233.1</ele>
        <time>2022-09-25T10:22:35Z</time>
      </trkpt>
      <trkpt lat="45.69047" lon="5.45396">
        <ele>233.1</ele>
        <time>2022-09-25T10:22:36Z</time>
      </trkpt>
      <trkpt lat="45.69041" lon="5.45401">
        <ele>233</ele>
        <time>2022-09-25T10:22:37Z</time>
      </trkpt>
      <trkpt lat="45.69036" lon="5.45406">
        <ele>233</ele>
        <time>2022-09-25T10:22:38Z</time>
      </trkpt>
      <trkpt lat="45.6903" lon="5.4541">
        <ele>232.9</ele>
        <time>2022-09-25T10:22:39Z</time>
      </trkpt>
      <trkpt lat="45.69024" lon="5.45415">
        <ele>232.9</ele>
        <time>2022-09-25T10:22:40Z</time>
      </trkpt>
      <trkpt lat="45.69019" lon="5.45419">
        <ele>232.9</ele>
        <time>2022-09-25T10:22:41Z</time>
      </trkpt>
      <trkpt lat="45.69014" lon="5.45425">
        <ele>232.9</ele>
        <time>2022-09-25T10:22:42Z</time>
      </trkpt>
      <trkpt lat="45.69009" lon="5.4543">
        <ele>232.9</ele>
        <time>2022-09-25T10:22:43Z</time>
      </trkpt>
      <trkpt lat="45.69003" lon="5.45435">
        <ele>232.8</ele>
        <time>2022-09-25T10:22:44Z</time>
      </trkpt>
      <trkpt lat="45.68997" lon="5.4544">
        <ele>232.8</ele>
        <time>2022-09-25T10:22:45Z</time>
      </trkpt>
      <trkpt lat="45.68992" lon="5.45445">
        <ele>232.8</ele>
        <time>2022-09-25T10:22:46Z</time>
      </trkpt>
      <trkpt lat="45.68987" lon="5.4545">
        <ele>232.8</ele>
        <time>2022-09-25T10:22:47Z</time>
      </trkpt>
      <trkpt lat="45.68982" lon="5.45456">
        <ele>232.8</ele>
        <time>2022-09-25T10:22:48Z</time>
      </trkpt>
      <trkpt lat="45.68977" lon="5.45461">
        <ele>232.8</ele>
        <time>2022-09-25T10:22:49Z</time>
      </trkpt>
      <trkpt lat="45.68972" lon="5.45466">
        <ele>232.8</ele>
        <time>2022-09-25T10:22:50Z</time>
      </trkpt>
      <trkpt lat="45.68967" lon="5.45471">
        <ele>232.8</ele>
        <time>2022-09-25T10:22:51Z</time>
      </trkpt>
      <trkpt lat="45.68962" lon="5.45476">
        <ele>232.8</ele>
        <time>2022-09-25T10:22:52Z</time>
      </trkpt>
      <trkpt lat="45.68957" lon="5.45481">
        <ele>232.8</ele>
        <time>2022-09-25T10:22:53Z</time>
      </trkpt>
      <trkpt lat="45.68952" lon="5.45485">
        <ele>232.8</ele>
        <time>2022-09-25T10:22:54Z</time>
      </trkpt>
      <trkpt lat="45.68947" lon="5.4549">
        <ele>232.8</ele>
        <time>2022-09-25T10:22:55Z</time>
      </trkpt>
      <trkpt lat="45.68942" lon="5.45494">
        <ele>232.7</ele>
        <time>2022-09-25T10:22:56Z</time>
      </trkpt>
      <trkpt lat="45.68936" lon="5.45499">
        <ele>232.6</ele>
        <time>2022-09-25T10:22:57Z</time>
      </trkpt>
      <trkpt lat="45.68931" lon="5.45504">
        <ele>232.5</ele>
        <time>2022-09-25T10:22:58Z</time>
      </trkpt>
      <trkpt lat="45.68925" lon="5.45509">
        <ele>232.4</ele>
        <time>2022-09-25T10:22:59Z</time>
      </trkpt>
      <trkpt lat="45.6892" lon="5.45513">
        <ele>232.3</ele>
        <time>2022-09-25T10:23:00Z</time>
      </trkpt>
      <trkpt lat="45.68914" lon="5.45517">
        <ele>232.2</ele>
        <time>2022-09-25T10:23:01Z</time>
      </trkpt>
      <trkpt lat="45.68908" lon="5.45523">
        <ele>232.1</ele>
        <time>2022-09-25T10:23:02Z</time>
      </trkpt>
      <trkpt lat="45.68902" lon="5.45528">
        <ele>232</ele>
        <time>2022-09-25T10:23:03Z</time>
      </trkpt>
      <trkpt lat="45.68896" lon="5.45532">
        <ele>231.9</ele>
        <time>2022-09-25T10:23:04Z</time>
      </trkpt>
      <trkpt lat="45.6889" lon="5.45537">
        <ele>231.8</ele>
        <time>2022-09-25T10:23:05Z</time>
      </trkpt>
      <trkpt lat="45.68884" lon="5.45542">
        <ele>231.7</ele>
        <time>2022-09-25T10:23:06Z</time>
      </trkpt>
      <trkpt lat="45.68878" lon="5.45546">
        <ele>231.6</ele>
        <time>2022-09-25T10:23:07Z</time>
      </trkpt>
      <trkpt lat="45.68872" lon="5.45551">
        <ele>231.5</ele>
        <time>2022-09-25T10:23:08Z</time>
      </trkpt>
      <trkpt lat="45.68865" lon="5.45556">
        <ele>231.4</ele>
        <time>2022-09-25T10:23:09Z</time>
      </trkpt>
      <trkpt lat="45.68859" lon="5.45561">
        <ele>231.2</ele>
        <time>2022-09-25T10:23:10Z</time>
      </trkpt>
      <trkpt lat="45.68853" lon="5.45566">
        <ele>231.1</ele>
        <time>2022-09-25T10:23:11Z</time>
      </trkpt>
      <trkpt lat="45.68846" lon="5.45571">
        <ele>231</ele>
        <time>2022-09-25T10:23:12Z</time>
      </trkpt>
      <trkpt lat="45.6884" lon="5.45576">
        <ele>230.9</ele>
        <time>2022-09-25T10:23:13Z</time>
      </trkpt>
      <trkpt lat="45.68833" lon="5.45581">
        <ele>230.8</ele>
        <time>2022-09-25T10:23:14Z</time>
      </trkpt>
      <trkpt lat="45.68827" lon="5.45586">
        <ele>230.6</ele>
        <time>2022-09-25T10:23:15Z</time>
      </trkpt>
      <trkpt lat="45.68821" lon="5.45591">
        <ele>230.5</ele>
        <time>2022-09-25T10:23:16Z</time>
      </trkpt>
      <trkpt lat="45.68815" lon="5.45596">
        <ele>230.3</ele>
        <time>2022-09-25T10:23:17Z</time>
      </trkpt>
      <trkpt lat="45.68808" lon="5.45601">
        <ele>230.2</ele>
        <time>2022-09-25T10:23:18Z</time>
      </trkpt>
      <trkpt lat="45.68801" lon="5.45606">
        <ele>230</ele>
        <time>2022-09-25T10:23:19Z</time>
      </trkpt>
      <trkpt lat="45.68794" lon="5.45611">
        <ele>229.8</ele>
        <time>2022-09-25T10:23:20Z</time>
      </trkpt>
      <trkpt lat="45.68787" lon="5.45616">
        <ele>229.6</ele>
        <time>2022-09-25T10:23:21Z</time>
      </trkpt>
      <trkpt lat="45.6878" lon="5.4562">
        <ele>229.4</ele>
        <time>2022-09-25T10:23:22Z</time>
      </trkpt>
      <trkpt lat="45.68773" lon="5.45625">
        <ele>229.2</ele>
        <time>2022-09-25T10:23:23Z</time>
      </trkpt>
      <trkpt lat="45.68766" lon="5.45629">
        <ele>229</ele>
        <time>2022-09-25T10:23:24Z</time>
      </trkpt>
      <trkpt lat="45.6876" lon="5.45636">
        <ele>228.8</ele>
        <time>2022-09-25T10:23:25Z</time>
      </trkpt>
      <trkpt lat="45.68752" lon="5.45641">
        <ele>228.6</ele>
        <time>2022-09-25T10:23:26Z</time>
      </trkpt>
      <trkpt lat="45.68746" lon="5.45647">
        <ele>228.4</ele>
        <time>2022-09-25T10:23:27Z</time>
      </trkpt>
      <trkpt lat="45.6874" lon="5.45653">
        <ele>228.2</ele>
        <time>2022-09-25T10:23:28Z</time>
      </trkpt>
      <trkpt lat="45.68733" lon="5.45659">
        <ele>228</ele>
        <time>2022-09-25T10:23:29Z</time>
      </trkpt>
      <trkpt lat="45.68726" lon="5.45664">
        <ele>227.8</ele>
        <time>2022-09-25T10:23:30Z</time>
      </trkpt>
      <trkpt lat="45.6872" lon="5.45669">
        <ele>227.6</ele>
        <time>2022-09-25T10:23:31Z</time>
      </trkpt>
      <trkpt lat="45.68713" lon="5.45675">
        <ele>227.4</ele>
        <time>2022-09-25T10:23:32Z</time>
      </trkpt>
      <trkpt lat="45.68706" lon="5.45682">
        <ele>227.2</ele>
        <time>2022-09-25T10:23:33Z</time>
      </trkpt>
      <trkpt lat="45.68699" lon="5.45689">
        <ele>226.9</ele>
        <time>2022-09-25T10:23:34Z</time>
      </trkpt>
      <trkpt lat="45.68692" lon="5.45696">
        <ele>226.6</ele>
        <time>2022-09-25T10:23:35Z</time>
      </trkpt>
      <trkpt lat="45.68685" lon="5.45702">
        <ele>226.4</ele>
        <time>2022-09-25T10:23:36Z</time>
      </trkpt>
      <trkpt lat="45.68677" lon="5.45709">
        <ele>226.1</ele>
        <time>2022-09-25T10:23:37Z</time>
      </trkpt>
      <trkpt lat="45.6867" lon="5.45714">
        <ele>225.8</ele>
        <time>2022-09-25T10:23:38Z</time>
      </trkpt>
      <trkpt lat="45.68662" lon="5.45719">
        <ele>225.5</ele>
        <time>2022-09-25T10:23:39Z</time>
      </trkpt>
      <trkpt lat="45.68655" lon="5.45725">
        <ele>225.3</ele>
        <time>2022-09-25T10:23:40Z</time>
      </trkpt>
      <trkpt lat="45.68647" lon="5.4573">
        <ele>225.1</ele>
        <time>2022-09-25T10:23:41Z</time>
      </trkpt>
      <trkpt lat="45.68639" lon="5.45735">
        <ele>224.9</ele>
        <time>2022-09-25T10:23:42Z</time>
      </trkpt>
      <trkpt lat="45.68631" lon="5.45739">
        <ele>224.8</ele>
        <time>2022-09-25T10:23:43Z</time>
      </trkpt>
      <trkpt lat="45.68624" lon="5.45743">
        <ele>224.7</ele>
        <time>2022-09-25T10:23:44Z</time>
      </trkpt>
      <trkpt lat="45.68616" lon="5.45746">
        <ele>224.6</ele>
        <time>2022-09-25T10:23:45Z</time>
      </trkpt>
      <trkpt lat="45.68608" lon="5.4575">
        <ele>224.4</ele>
        <time>2022-09-25T10:23:46Z</time>
      </trkpt>
      <trkpt lat="45.68601" lon="5.45753">
        <ele>224.3</ele>
        <time>2022-09-25T10:23:47Z</time>
      </trkpt>
      <trkpt lat="45.68593" lon="5.45756">
        <ele>224.2</ele>
        <time>2022-09-25T10:23:48Z</time>
      </trkpt>
      <trkpt lat="45.68586" lon="5.45759">
        <ele>224.1</ele>
        <time>2022-09-25T10:23:49Z</time>
      </trkpt>
      <trkpt lat="45.68578" lon="5.45763">
        <ele>224</ele>
        <time>2022-09-25T10:23:50Z</time>
      </trkpt>
      <trkpt lat="45.68571" lon="5.45765">
        <ele>223.9</ele>
        <time>2022-09-25T10:23:51Z</time>
      </trkpt>
      <trkpt lat="45.68563" lon="5.45769">
        <ele>223.8</ele>
        <time>2022-09-25T10:23:52Z</time>
      </trkpt>
      <trkpt lat="45.68556" lon="5.45772">
        <ele>223.7</ele>
        <time>2022-09-25T10:23:53Z</time>
      </trkpt>
      <trkpt lat="45.68549" lon="5.45776">
        <ele>223.7</ele>
        <time>2022-09-25T10:23:54Z</time>
      </trkpt>
      <trkpt lat="45.68543" lon="5.4578">
        <ele>223.6</ele>
        <time>2022-09-25T10:23:55Z</time>
      </trkpt>
      <trkpt lat="45.68535" lon="5.45784">
        <ele>223.5</ele>
        <time>2022-09-25T10:23:56Z</time>
      </trkpt>
      <trkpt lat="45.68529" lon="5.45789">
        <ele>223.5</ele>
        <time>2022-09-25T10:23:57Z</time>
      </trkpt>
      <trkpt lat="45.68522" lon="5.45794">
        <ele>223.4</ele>
        <time>2022-09-25T10:23:58Z</time>
      </trkpt>
      <trkpt lat="45.68516" lon="5.45799">
        <ele>223.4</ele>
        <time>2022-09-25T10:23:59Z</time>
      </trkpt>
      <trkpt lat="45.6851" lon="5.45805">
        <ele>223.3</ele>
        <time>2022-09-25T10:24:00Z</time>
      </trkpt>
      <trkpt lat="45.68505" lon="5.4581">
        <ele>223.2</ele>
        <time>2022-09-25T10:24:01Z</time>
      </trkpt>
      <trkpt lat="45.68498" lon="5.45815">
        <ele>223.1</ele>
        <time>2022-09-25T10:24:02Z</time>
      </trkpt>
      <trkpt lat="45.68492" lon="5.45821">
        <ele>223.1</ele>
        <time>2022-09-25T10:24:03Z</time>
      </trkpt>
      <trkpt lat="45.68486" lon="5.45826">
        <ele>223</ele>
        <time>2022-09-25T10:24:04Z</time>
      </trkpt>
      <trkpt lat="45.68481" lon="5.45832">
        <ele>223</ele>
        <time>2022-09-25T10:24:05Z</time>
      </trkpt>
      <trkpt lat="45.68475" lon="5.45836">
        <ele>222.9</ele>
        <time>2022-09-25T10:24:06Z</time>
      </trkpt>
      <trkpt lat="45.68469" lon="5.45841">
        <ele>222.9</ele>
        <time>2022-09-25T10:24:07Z</time>
      </trkpt>
      <trkpt lat="45.68463" lon="5.45846">
        <ele>222.9</ele>
        <time>2022-09-25T10:24:08Z</time>
      </trkpt>
      <trkpt lat="45.68458" lon="5.45851">
        <ele>222.9</ele>
        <time>2022-09-25T10:24:09Z</time>
      </trkpt>
      <trkpt lat="45.68453" lon="5.45855">
        <ele>222.9</ele>
        <time>2022-09-25T10:24:10Z</time>
      </trkpt>
      <trkpt lat="45.68449" lon="5.45859">
        <ele>222.9</ele>
        <time>2022-09-25T10:24:11Z</time>
      </trkpt>
      <trkpt lat="45.68444" lon="5.45863">
        <ele>222.9</ele>
        <time>2022-09-25T10:24:12Z</time>
      </trkpt>
      <trkpt lat="45.6844" lon="5.45866">
        <ele>222.9</ele>
        <time>2022-09-25T10:24:13Z</time>
      </trkpt>
      <trkpt lat="45.68436" lon="5.4587">
        <ele>222.9</ele>
        <time>2022-09-25T10:24:14Z</time>
      </trkpt>
      <trkpt lat="45.68433" lon="5.45873">
        <ele>223</ele>
        <time>2022-09-25T10:24:15Z</time>
      </trkpt>
      <trkpt lat="45.68429" lon="5.45877">
        <ele>223</ele>
        <time>2022-09-25T10:24:16Z</time>
      </trkpt>
      <trkpt lat="45.68426" lon="5.45881">
        <ele>223</ele>
        <time>2022-09-25T10:24:17Z</time>
      </trkpt>
      <trkpt lat="45.68423" lon="5.45885">
        <ele>223</ele>
        <time>2022-09-25T10:24:18Z</time>
      </trkpt>
      <trkpt lat="45.68419" lon="5.45887">
        <ele>223.1</ele>
        <time>2022-09-25T10:24:19Z</time>
      </trkpt>
      <trkpt lat="45.68414" lon="5.45887">
        <ele>223.1</ele>
        <time>2022-09-25T10:24:20Z</time>
      </trkpt>
      <trkpt lat="45.6841" lon="5.45885">
        <ele>223.1</ele>
        <time>2022-09-25T10:24:21Z</time>
      </trkpt>
      <trkpt lat="45.68406" lon="5.45882">
        <ele>223.2</ele>
        <time>2022-09-25T10:24:22Z</time>
      </trkpt>
      <trkpt lat="45.68402" lon="5.4588">
        <ele>223.2</ele>
        <time>2022-09-25T10:24:23Z</time>
      </trkpt>
      <trkpt lat="45.68398" lon="5.45877">
        <ele>223.3</ele>
        <time>2022-09-25T10:24:24Z</time>
      </trkpt>
      <trkpt lat="45.68394" lon="5.45875">
        <ele>223.3</ele>
        <time>2022-09-25T10:24:25Z</time>
      </trkpt>
      <trkpt lat="45.68391" lon="5.45873">
        <ele>223.4</ele>
        <time>2022-09-25T10:24:26Z</time>
      </trkpt>
      <trkpt lat="45.68386" lon="5.45872">
        <ele>223.5</ele>
        <time>2022-09-25T10:24:27Z</time>
      </trkpt>
      <trkpt lat="45.68383" lon="5.45869">
        <ele>223.6</ele>
        <time>2022-09-25T10:24:28Z</time>
      </trkpt>
      <trkpt lat="45.6838" lon="5.45867">
        <ele>223.6</ele>
        <time>2022-09-25T10:24:29Z</time>
      </trkpt>
      <trkpt lat="45.68377" lon="5.45866">
        <ele>223.7</ele>
        <time>2022-09-25T10:24:30Z</time>
      </trkpt>
      <trkpt lat="45.68374" lon="5.45864">
        <ele>223.8</ele>
        <time>2022-09-25T10:24:31Z</time>
      </trkpt>
      <trkpt lat="45.68371" lon="5.45862">
        <ele>223.9</ele>
        <time>2022-09-25T10:24:32Z</time>
      </trkpt>
      <trkpt lat="45.68367" lon="5.45861">
        <ele>223.9</ele>
        <time>2022-09-25T10:24:33Z</time>
      </trkpt>
      <trkpt lat="45.68363" lon="5.45858">
        <ele>224</ele>
        <time>2022-09-25T10:24:34Z</time>
      </trkpt>
      <trkpt lat="45.68359" lon="5.45856">
        <ele>224</ele>
        <time>2022-09-25T10:24:35Z</time>
      </trkpt>
      <trkpt lat="45.68355" lon="5.45855">
        <ele>224.1</ele>
        <time>2022-09-25T10:24:36Z</time>
      </trkpt>
      <trkpt lat="45.6835" lon="5.45853">
        <ele>224.1</ele>
        <time>2022-09-25T10:24:37Z</time>
      </trkpt>
      <trkpt lat="45.68346" lon="5.4585">
        <ele>224.2</ele>
        <time>2022-09-25T10:24:38Z</time>
      </trkpt>
      <trkpt lat="45.68342" lon="5.45848">
        <ele>224.2</ele>
        <time>2022-09-25T10:24:39Z</time>
      </trkpt>
      <trkpt lat="45.68337" lon="5.45846">
        <ele>224.2</ele>
        <time>2022-09-25T10:24:40Z</time>
      </trkpt>
      <trkpt lat="45.68333" lon="5.45844">
        <ele>224.3</ele>
        <time>2022-09-25T10:24:41Z</time>
      </trkpt>
      <trkpt lat="45.68329" lon="5.45842">
        <ele>224.3</ele>
        <time>2022-09-25T10:24:42Z</time>
      </trkpt>
      <trkpt lat="45.68325" lon="5.45842">
        <ele>224.4</ele>
        <time>2022-09-25T10:24:43Z</time>
      </trkpt>
      <trkpt lat="45.68321" lon="5.4584">
        <ele>224.5</ele>
        <time>2022-09-25T10:24:44Z</time>
      </trkpt>
      <trkpt lat="45.68316" lon="5.45839">
        <ele>224.5</ele>
        <time>2022-09-25T10:24:45Z</time>
      </trkpt>
      <trkpt lat="45.68312" lon="5.45837">
        <ele>224.6</ele>
        <time>2022-09-25T10:24:46Z</time>
      </trkpt>
      <trkpt lat="45.68308" lon="5.45836">
        <ele>224.6</ele>
        <time>2022-09-25T10:24:47Z</time>
      </trkpt>
      <trkpt lat="45.68303" lon="5.45836">
        <ele>224.7</ele>
        <time>2022-09-25T10:24:48Z</time>
      </trkpt>
      <trkpt lat="45.68299" lon="5.45835">
        <ele>224.8</ele>
        <time>2022-09-25T10:24:49Z</time>
      </trkpt>
      <trkpt lat="45.68295" lon="5.45834">
        <ele>224.8</ele>
        <time>2022-09-25T10:24:50Z</time>
      </trkpt>
      <trkpt lat="45.68291" lon="5.45833">
        <ele>224.9</ele>
        <time>2022-09-25T10:24:51Z</time>
      </trkpt>
      <trkpt lat="45.68286" lon="5.45832">
        <ele>225</ele>
        <time>2022-09-25T10:24:52Z</time>
      </trkpt>
      <trkpt lat="45.68282" lon="5.45832">
        <ele>225</ele>
        <time>2022-09-25T10:24:53Z</time>
      </trkpt>
      <trkpt lat="45.68278" lon="5.4583">
        <ele>225.1</ele>
        <time>2022-09-25T10:24:54Z</time>
      </trkpt>
      <trkpt lat="45.68275" lon="5.45828">
        <ele>225.2</ele>
        <time>2022-09-25T10:24:55Z</time>
      </trkpt>
      <trkpt lat="45.68271" lon="5.45827">
        <ele>225.3</ele>
        <time>2022-09-25T10:24:56Z</time>
      </trkpt>
      <trkpt lat="45.68267" lon="5.45824">
        <ele>225.4</ele>
        <time>2022-09-25T10:24:57Z</time>
      </trkpt>
      <trkpt lat="45.68263" lon="5.45823">
        <ele>225.5</ele>
        <time>2022-09-25T10:24:58Z</time>
      </trkpt>
      <trkpt lat="45.6826" lon="5.4582">
        <ele>225.6</ele>
        <time>2022-09-25T10:24:59Z</time>
      </trkpt>
      <trkpt lat="45.68257" lon="5.45818">
        <ele>225.7</ele>
        <time>2022-09-25T10:25:00Z</time>
      </trkpt>
      <trkpt lat="45.68253" lon="5.45817">
        <ele>225.8</ele>
        <time>2022-09-25T10:25:01Z</time>
      </trkpt>
      <trkpt lat="45.68251" lon="5.45816">
        <ele>225.9</ele>
        <time>2022-09-25T10:25:02Z</time>
      </trkpt>
      <trkpt lat="45.68247" lon="5.45816">
        <ele>225.9</ele>
        <time>2022-09-25T10:25:03Z</time>
      </trkpt>
      <trkpt lat="45.68243" lon="5.45816">
        <ele>226</ele>
        <time>2022-09-25T10:25:04Z</time>
      </trkpt>
      <trkpt lat="45.68239" lon="5.45815">
        <ele>226.1</ele>
        <time>2022-09-25T10:25:05Z</time>
      </trkpt>
      <trkpt lat="45.68236" lon="5.45815">
        <ele>226.2</ele>
        <time>2022-09-25T10:25:06Z</time>
      </trkpt>
      <trkpt lat="45.68232" lon="5.45816">
        <ele>226.2</ele>
        <time>2022-09-25T10:25:07Z</time>
      </trkpt>
      <trkpt lat="45.68228" lon="5.45816">
        <ele>226.3</ele>
        <time>2022-09-25T10:25:08Z</time>
      </trkpt>
      <trkpt lat="45.68224" lon="5.45817">
        <ele>226.3</ele>
        <time>2022-09-25T10:25:09Z</time>
      </trkpt>
      <trkpt lat="45.6822" lon="5.45817">
        <ele>226.4</ele>
        <time>2022-09-25T10:25:10Z</time>
      </trkpt>
      <trkpt lat="45.68215" lon="5.45815">
        <ele>226.4</ele>
        <time>2022-09-25T10:25:11Z</time>
      </trkpt>
      <trkpt lat="45.6821" lon="5.45813">
        <ele>226.5</ele>
        <time>2022-09-25T10:25:12Z</time>
      </trkpt>
      <trkpt lat="45.68206" lon="5.45812">
        <ele>226.5</ele>
        <time>2022-09-25T10:25:13Z</time>
      </trkpt>
      <trkpt lat="45.68201" lon="5.4581">
        <ele>226.6</ele>
        <time>2022-09-25T10:25:14Z</time>
      </trkpt>
      <trkpt lat="45.68197" lon="5.45808">
        <ele>226.6</ele>
        <time>2022-09-25T10:25:15Z</time>
      </trkpt>
      <trkpt lat="45.68194" lon="5.45809">
        <ele>226.6</ele>
        <time>2022-09-25T10:25:16Z</time>
      </trkpt>
      <trkpt lat="45.68191" lon="5.45808">
        <ele>226.7</ele>
        <time>2022-09-25T10:25:17Z</time>
      </trkpt>
      <trkpt lat="45.6819" lon="5.45807">
        <ele>226.7</ele>
        <time>2022-09-25T10:25:18Z</time>
      </trkpt>
      <trkpt lat="45.68187" lon="5.45807">
        <ele>226.7</ele>
        <time>2022-09-25T10:25:19Z</time>
      </trkpt>
      <trkpt lat="45.68184" lon="5.45806">
        <ele>226.7</ele>
        <time>2022-09-25T10:25:20Z</time>
      </trkpt>
      <trkpt lat="45.68181" lon="5.45805">
        <ele>226.8</ele>
        <time>2022-09-25T10:25:21Z</time>
      </trkpt>
      <trkpt lat="45.68178" lon="5.45803">
        <ele>226.9</ele>
        <time>2022-09-25T10:25:22Z</time>
      </trkpt>
      <trkpt lat="45.68175" lon="5.45799">
        <ele>226.9</ele>
        <time>2022-09-25T10:25:23Z</time>
      </trkpt>
      <trkpt lat="45.68173" lon="5.45796">
        <ele>226.8</ele>
        <time>2022-09-25T10:25:24Z</time>
      </trkpt>
      <trkpt lat="45.68171" lon="5.4579">
        <ele>226.7</ele>
        <time>2022-09-25T10:25:25Z</time>
      </trkpt>
      <trkpt lat="45.6817" lon="5.45788">
        <ele>226.6</ele>
        <time>2022-09-25T10:25:26Z</time>
      </trkpt>
      <trkpt lat="45.68167" lon="5.45788">
        <ele>226.5</ele>
        <time>2022-09-25T10:25:27Z</time>
      </trkpt>
      <trkpt lat="45.68162" lon="5.45788">
        <ele>226.2</ele>
        <time>2022-09-25T10:25:28Z</time>
      </trkpt>
      <trkpt lat="45.68158" lon="5.45791">
        <ele>226</ele>
        <time>2022-09-25T10:25:29Z</time>
      </trkpt>
      <trkpt lat="45.68154" lon="5.45793">
        <ele>225.8</ele>
        <time>2022-09-25T10:25:30Z</time>
      </trkpt>
      <trkpt lat="45.68149" lon="5.45795">
        <ele>225.6</ele>
        <time>2022-09-25T10:25:31Z</time>
      </trkpt>
      <trkpt lat="45.68145" lon="5.45798">
        <ele>225.4</ele>
        <time>2022-09-25T10:25:32Z</time>
      </trkpt>
      <trkpt lat="45.6814" lon="5.45801">
        <ele>225.2</ele>
        <time>2022-09-25T10:25:33Z</time>
      </trkpt>
      <trkpt lat="45.68136" lon="5.45802">
        <ele>225</ele>
        <time>2022-09-25T10:25:34Z</time>
      </trkpt>
      <trkpt lat="45.68133" lon="5.45804">
        <ele>224.9</ele>
        <time>2022-09-25T10:25:35Z</time>
      </trkpt>
      <trkpt lat="45.6813" lon="5.45806">
        <ele>224.8</ele>
        <time>2022-09-25T10:25:36Z</time>
      </trkpt>
      <trkpt lat="45.68126" lon="5.45807">
        <ele>224.6</ele>
        <time>2022-09-25T10:25:37Z</time>
      </trkpt>
      <trkpt lat="45.68123" lon="5.45806">
        <ele>224.5</ele>
        <time>2022-09-25T10:25:38Z</time>
      </trkpt>
      <trkpt lat="45.68119" lon="5.45804">
        <ele>224.4</ele>
        <time>2022-09-25T10:25:39Z</time>
      </trkpt>
      <trkpt lat="45.68115" lon="5.45802">
        <ele>224.3</ele>
        <time>2022-09-25T10:25:40Z</time>
      </trkpt>
      <trkpt lat="45.68111" lon="5.458">
        <ele>224.1</ele>
        <time>2022-09-25T10:25:41Z</time>
      </trkpt>
      <trkpt lat="45.68106" lon="5.458">
        <ele>224</ele>
        <time>2022-09-25T10:25:42Z</time>
      </trkpt>
      <trkpt lat="45.68101" lon="5.45799">
        <ele>223.9</ele>
        <time>2022-09-25T10:25:43Z</time>
      </trkpt>
      <trkpt lat="45.68096" lon="5.45797">
        <ele>223.8</ele>
        <time>2022-09-25T10:25:44Z</time>
      </trkpt>
      <trkpt lat="45.68092" lon="5.45795">
        <ele>223.7</ele>
        <time>2022-09-25T10:25:45Z</time>
      </trkpt>
      <trkpt lat="45.68087" lon="5.45794">
        <ele>223.6</ele>
        <time>2022-09-25T10:25:46Z</time>
      </trkpt>
      <trkpt lat="45.68082" lon="5.45793">
        <ele>223.6</ele>
        <time>2022-09-25T10:25:47Z</time>
      </trkpt>
      <trkpt lat="45.68076" lon="5.45792">
        <ele>223.5</ele>
        <time>2022-09-25T10:25:48Z</time>
      </trkpt>
      <trkpt lat="45.68071" lon="5.4579">
        <ele>223.4</ele>
        <time>2022-09-25T10:25:49Z</time>
      </trkpt>
      <trkpt lat="45.68066" lon="5.45789">
        <ele>223.4</ele>
        <time>2022-09-25T10:25:50Z</time>
      </trkpt>
      <trkpt lat="45.6806" lon="5.45787">
        <ele>223.3</ele>
        <time>2022-09-25T10:25:51Z</time>
      </trkpt>
      <trkpt lat="45.68054" lon="5.45786">
        <ele>223.2</ele>
        <time>2022-09-25T10:25:52Z</time>
      </trkpt>
      <trkpt lat="45.68049" lon="5.45783">
        <ele>223.2</ele>
        <time>2022-09-25T10:25:53Z</time>
      </trkpt>
      <trkpt lat="45.68043" lon="5.45782">
        <ele>223.1</ele>
        <time>2022-09-25T10:25:54Z</time>
      </trkpt>
      <trkpt lat="45.68038" lon="5.45781">
        <ele>223.1</ele>
        <time>2022-09-25T10:25:55Z</time>
      </trkpt>
      <trkpt lat="45.68032" lon="5.4578">
        <ele>223.1</ele>
        <time>2022-09-25T10:25:56Z</time>
      </trkpt>
      <trkpt lat="45.68027" lon="5.45779">
        <ele>223</ele>
        <time>2022-09-25T10:25:57Z</time>
      </trkpt>
      <trkpt lat="45.68021" lon="5.45778">
        <ele>222.9</ele>
        <time>2022-09-25T10:25:58Z</time>
      </trkpt>
      <trkpt lat="45.68016" lon="5.45777">
        <ele>222.9</ele>
        <time>2022-09-25T10:25:59Z</time>
      </trkpt>
      <trkpt lat="45.68011" lon="5.45776">
        <ele>222.8</ele>
        <time>2022-09-25T10:26:00Z</time>
      </trkpt>
      <trkpt lat="45.68005" lon="5.45774">
        <ele>222.8</ele>
        <time>2022-09-25T10:26:01Z</time>
      </trkpt>
      <trkpt lat="45.68" lon="5.45773">
        <ele>222.7</ele>
        <time>2022-09-25T10:26:02Z</time>
      </trkpt>
      <trkpt lat="45.67995" lon="5.45771">
        <ele>222.7</ele>
        <time>2022-09-25T10:26:03Z</time>
      </trkpt>
      <trkpt lat="45.67989" lon="5.4577">
        <ele>222.7</ele>
        <time>2022-09-25T10:26:04Z</time>
      </trkpt>
      <trkpt lat="45.67984" lon="5.45769">
        <ele>222.7</ele>
        <time>2022-09-25T10:26:05Z</time>
      </trkpt>
      <trkpt lat="45.67978" lon="5.45767">
        <ele>222.7</ele>
        <time>2022-09-25T10:26:06Z</time>
      </trkpt>
      <trkpt lat="45.67973" lon="5.45766">
        <ele>222.7</ele>
        <time>2022-09-25T10:26:07Z</time>
      </trkpt>
      <trkpt lat="45.67968" lon="5.45765">
        <ele>222.7</ele>
        <time>2022-09-25T10:26:08Z</time>
      </trkpt>
      <trkpt lat="45.67962" lon="5.45763">
        <ele>222.7</ele>
        <time>2022-09-25T10:26:09Z</time>
      </trkpt>
      <trkpt lat="45.67957" lon="5.45762">
        <ele>222.8</ele>
        <time>2022-09-25T10:26:10Z</time>
      </trkpt>
      <trkpt lat="45.67952" lon="5.45761">
        <ele>222.8</ele>
        <time>2022-09-25T10:26:11Z</time>
      </trkpt>
      <trkpt lat="45.67947" lon="5.4576">
        <ele>222.8</ele>
        <time>2022-09-25T10:26:12Z</time>
      </trkpt>
      <trkpt lat="45.67942" lon="5.45759">
        <ele>222.8</ele>
        <time>2022-09-25T10:26:13Z</time>
      </trkpt>
      <trkpt lat="45.67937" lon="5.45758">
        <ele>222.9</ele>
        <time>2022-09-25T10:26:14Z</time>
      </trkpt>
      <trkpt lat="45.67932" lon="5.45756">
        <ele>222.9</ele>
        <time>2022-09-25T10:26:15Z</time>
      </trkpt>
      <trkpt lat="45.67927" lon="5.45755">
        <ele>223</ele>
        <time>2022-09-25T10:26:16Z</time>
      </trkpt>
      <trkpt lat="45.67922" lon="5.45754">
        <ele>223</ele>
        <time>2022-09-25T10:26:17Z</time>
      </trkpt>
      <trkpt lat="45.67916" lon="5.45753">
        <ele>223.1</ele>
        <time>2022-09-25T10:26:18Z</time>
      </trkpt>
      <trkpt lat="45.67911" lon="5.45752">
        <ele>223.1</ele>
        <time>2022-09-25T10:26:19Z</time>
      </trkpt>
      <trkpt lat="45.67907" lon="5.45751">
        <ele>223.1</ele>
        <time>2022-09-25T10:26:20Z</time>
      </trkpt>
      <trkpt lat="45.67902" lon="5.4575">
        <ele>223.2</ele>
        <time>2022-09-25T10:26:21Z</time>
      </trkpt>
      <trkpt lat="45.67896" lon="5.45749">
        <ele>223.2</ele>
        <time>2022-09-25T10:26:22Z</time>
      </trkpt>
      <trkpt lat="45.67891" lon="5.45748">
        <ele>223.2</ele>
        <time>2022-09-25T10:26:23Z</time>
      </trkpt>
      <trkpt lat="45.67886" lon="5.45747">
        <ele>223.3</ele>
        <time>2022-09-25T10:26:24Z</time>
      </trkpt>
      <trkpt lat="45.67882" lon="5.45746">
        <ele>223.3</ele>
        <time>2022-09-25T10:26:25Z</time>
      </trkpt>
      <trkpt lat="45.67878" lon="5.45745">
        <ele>223.4</ele>
        <time>2022-09-25T10:26:26Z</time>
      </trkpt>
      <trkpt lat="45.67873" lon="5.45743">
        <ele>223.4</ele>
        <time>2022-09-25T10:26:27Z</time>
      </trkpt>
      <trkpt lat="45.6787" lon="5.45741">
        <ele>223.5</ele>
        <time>2022-09-25T10:26:28Z</time>
      </trkpt>
      <trkpt lat="45.67867" lon="5.45739">
        <ele>223.5</ele>
        <time>2022-09-25T10:26:29Z</time>
      </trkpt>
      <trkpt lat="45.67863" lon="5.45738">
        <ele>223.5</ele>
        <time>2022-09-25T10:26:30Z</time>
      </trkpt>
      <trkpt lat="45.67862" lon="5.45738">
        <ele>223.5</ele>
        <time>2022-09-25T10:26:31Z</time>
      </trkpt>
      <trkpt lat="45.67859" lon="5.45739">
        <ele>223.5</ele>
        <time>2022-09-25T10:26:32Z</time>
      </trkpt>
      <trkpt lat="45.67856" lon="5.45741">
        <ele>223.4</ele>
        <time>2022-09-25T10:26:33Z</time>
      </trkpt>
      <trkpt lat="45.67852" lon="5.45743">
        <ele>223.3</ele>
        <time>2022-09-25T10:26:34Z</time>
      </trkpt>
      <trkpt lat="45.67848" lon="5.45745">
        <ele>223.2</ele>
        <time>2022-09-25T10:26:35Z</time>
      </trkpt>
      <trkpt lat="45.67845" lon="5.45747">
        <ele>223</ele>
        <time>2022-09-25T10:26:36Z</time>
      </trkpt>
      <trkpt lat="45.6784" lon="5.4575">
        <ele>222.9</ele>
        <time>2022-09-25T10:26:37Z</time>
      </trkpt>
      <trkpt lat="45.67835" lon="5.45752">
        <ele>222.7</ele>
        <time>2022-09-25T10:26:38Z</time>
      </trkpt>
      <trkpt lat="45.6783" lon="5.45755">
        <ele>222.6</ele>
        <time>2022-09-25T10:26:39Z</time>
      </trkpt>
      <trkpt lat="45.67825" lon="5.45758">
        <ele>222.5</ele>
        <time>2022-09-25T10:26:40Z</time>
      </trkpt>
      <trkpt lat="45.6782" lon="5.45761">
        <ele>222.3</ele>
        <time>2022-09-25T10:26:41Z</time>
      </trkpt>
      <trkpt lat="45.67815" lon="5.45764">
        <ele>222.2</ele>
        <time>2022-09-25T10:26:42Z</time>
      </trkpt>
      <trkpt lat="45.6781" lon="5.45767">
        <ele>222</ele>
        <time>2022-09-25T10:26:43Z</time>
      </trkpt>
      <trkpt lat="45.67804" lon="5.4577">
        <ele>221.9</ele>
        <time>2022-09-25T10:26:44Z</time>
      </trkpt>
      <trkpt lat="45.67799" lon="5.45775">
        <ele>221.7</ele>
        <time>2022-09-25T10:26:45Z</time>
      </trkpt>
      <trkpt lat="45.67794" lon="5.4578">
        <ele>221.6</ele>
        <time>2022-09-25T10:26:46Z</time>
      </trkpt>
      <trkpt lat="45.67789" lon="5.45784">
        <ele>221.4</ele>
        <time>2022-09-25T10:26:47Z</time>
      </trkpt>
      <trkpt lat="45.67784" lon="5.4579">
        <ele>221.3</ele>
        <time>2022-09-25T10:26:48Z</time>
      </trkpt>
      <trkpt lat="45.67778" lon="5.45795">
        <ele>221.1</ele>
        <time>2022-09-25T10:26:49Z</time>
      </trkpt>
      <trkpt lat="45.67773" lon="5.45801">
        <ele>220.9</ele>
        <time>2022-09-25T10:26:50Z</time>
      </trkpt>
      <trkpt lat="45.67768" lon="5.45807">
        <ele>220.7</ele>
        <time>2022-09-25T10:26:51Z</time>
      </trkpt>
      <trkpt lat="45.67763" lon="5.45814">
        <ele>220.5</ele>
        <time>2022-09-25T10:26:52Z</time>
      </trkpt>
      <trkpt lat="45.67758" lon="5.4582">
        <ele>220.3</ele>
        <time>2022-09-25T10:26:53Z</time>
      </trkpt>
      <trkpt lat="45.67753" lon="5.45826">
        <ele>220.1</ele>
        <time>2022-09-25T10:26:54Z</time>
      </trkpt>
      <trkpt lat="45.67748" lon="5.45833">
        <ele>219.9</ele>
        <time>2022-09-25T10:26:55Z</time>
      </trkpt>
      <trkpt lat="45.67743" lon="5.45839">
        <ele>219.8</ele>
        <time>2022-09-25T10:26:56Z</time>
      </trkpt>
      <trkpt lat="45.67737" lon="5.45846">
        <ele>219.6</ele>
        <time>2022-09-25T10:26:57Z</time>
      </trkpt>
      <trkpt lat="45.67732" lon="5.45853">
        <ele>219.4</ele>
        <time>2022-09-25T10:26:58Z</time>
      </trkpt>
      <trkpt lat="45.67726" lon="5.4586">
        <ele>219.3</ele>
        <time>2022-09-25T10:26:59Z</time>
      </trkpt>
      <trkpt lat="45.67721" lon="5.45866">
        <ele>219.1</ele>
        <time>2022-09-25T10:27:00Z</time>
      </trkpt>
      <trkpt lat="45.67715" lon="5.45874">
        <ele>219</ele>
        <time>2022-09-25T10:27:01Z</time>
      </trkpt>
      <trkpt lat="45.67709" lon="5.45881">
        <ele>218.8</ele>
        <time>2022-09-25T10:27:02Z</time>
      </trkpt>
      <trkpt lat="45.67704" lon="5.45888">
        <ele>218.6</ele>
        <time>2022-09-25T10:27:03Z</time>
      </trkpt>
      <trkpt lat="45.67698" lon="5.45895">
        <ele>218.5</ele>
        <time>2022-09-25T10:27:04Z</time>
      </trkpt>
      <trkpt lat="45.67692" lon="5.45902">
        <ele>218.3</ele>
        <time>2022-09-25T10:27:05Z</time>
      </trkpt>
      <trkpt lat="45.67686" lon="5.45909">
        <ele>218.1</ele>
        <time>2022-09-25T10:27:06Z</time>
      </trkpt>
      <trkpt lat="45.67681" lon="5.45917">
        <ele>217.8</ele>
        <time>2022-09-25T10:27:07Z</time>
      </trkpt>
      <trkpt lat="45.67675" lon="5.45924">
        <ele>217.6</ele>
        <time>2022-09-25T10:27:08Z</time>
      </trkpt>
      <trkpt lat="45.67669" lon="5.45932">
        <ele>217.3</ele>
        <time>2022-09-25T10:27:09Z</time>
      </trkpt>
      <trkpt lat="45.67663" lon="5.45939">
        <ele>217.1</ele>
        <time>2022-09-25T10:27:10Z</time>
      </trkpt>
      <trkpt lat="45.67657" lon="5.45946">
        <ele>216.8</ele>
        <time>2022-09-25T10:27:11Z</time>
      </trkpt>
      <trkpt lat="45.67651" lon="5.45954">
        <ele>216.5</ele>
        <time>2022-09-25T10:27:12Z</time>
      </trkpt>
      <trkpt lat="45.67645" lon="5.45962">
        <ele>216.2</ele>
        <time>2022-09-25T10:27:13Z</time>
      </trkpt>
      <trkpt lat="45.67639" lon="5.45969">
        <ele>215.9</ele>
        <time>2022-09-25T10:27:14Z</time>
      </trkpt>
      <trkpt lat="45.67633" lon="5.45977">
        <ele>215.6</ele>
        <time>2022-09-25T10:27:15Z</time>
      </trkpt>
      <trkpt lat="45.67627" lon="5.45984">
        <ele>215.3</ele>
        <time>2022-09-25T10:27:16Z</time>
      </trkpt>
      <trkpt lat="45.67621" lon="5.45991">
        <ele>215</ele>
        <time>2022-09-25T10:27:17Z</time>
      </trkpt>
      <trkpt lat="45.67614" lon="5.45999">
        <ele>214.7</ele>
        <time>2022-09-25T10:27:18Z</time>
      </trkpt>
      <trkpt lat="45.67607" lon="5.46008">
        <ele>214.4</ele>
        <time>2022-09-25T10:27:19Z</time>
      </trkpt>
      <trkpt lat="45.67601" lon="5.46016">
        <ele>214.2</ele>
        <time>2022-09-25T10:27:20Z</time>
      </trkpt>
      <trkpt lat="45.67594" lon="5.46024">
        <ele>213.9</ele>
        <time>2022-09-25T10:27:21Z</time>
      </trkpt>
      <trkpt lat="45.67588" lon="5.46032">
        <ele>213.7</ele>
        <time>2022-09-25T10:27:22Z</time>
      </trkpt>
      <trkpt lat="45.6758" lon="5.46041">
        <ele>213.5</ele>
        <time>2022-09-25T10:27:23Z</time>
      </trkpt>
      <trkpt lat="45.67574" lon="5.46049">
        <ele>213.3</ele>
        <time>2022-09-25T10:27:24Z</time>
      </trkpt>
      <trkpt lat="45.67568" lon="5.46058">
        <ele>213.1</ele>
        <time>2022-09-25T10:27:25Z</time>
      </trkpt>
      <trkpt lat="45.67561" lon="5.46066">
        <ele>213</ele>
        <time>2022-09-25T10:27:26Z</time>
      </trkpt>
      <trkpt lat="45.67555" lon="5.46074">
        <ele>212.9</ele>
        <time>2022-09-25T10:27:27Z</time>
      </trkpt>
      <trkpt lat="45.67548" lon="5.46082">
        <ele>212.8</ele>
        <time>2022-09-25T10:27:28Z</time>
      </trkpt>
      <trkpt lat="45.67542" lon="5.4609">
        <ele>212.7</ele>
        <time>2022-09-25T10:27:29Z</time>
      </trkpt>
      <trkpt lat="45.67535" lon="5.46097">
        <ele>212.6</ele>
        <time>2022-09-25T10:27:30Z</time>
      </trkpt>
      <trkpt lat="45.67529" lon="5.46104">
        <ele>212.6</ele>
        <time>2022-09-25T10:27:31Z</time>
      </trkpt>
      <trkpt lat="45.67524" lon="5.46111">
        <ele>212.5</ele>
        <time>2022-09-25T10:27:32Z</time>
      </trkpt>
      <trkpt lat="45.67519" lon="5.46118">
        <ele>212.5</ele>
        <time>2022-09-25T10:27:33Z</time>
      </trkpt>
      <trkpt lat="45.67513" lon="5.46125">
        <ele>212.4</ele>
        <time>2022-09-25T10:27:34Z</time>
      </trkpt>
      <trkpt lat="45.67508" lon="5.46131">
        <ele>212.4</ele>
        <time>2022-09-25T10:27:35Z</time>
      </trkpt>
      <trkpt lat="45.67503" lon="5.46137">
        <ele>212.4</ele>
        <time>2022-09-25T10:27:36Z</time>
      </trkpt>
      <trkpt lat="45.67499" lon="5.46143">
        <ele>212.5</ele>
        <time>2022-09-25T10:27:37Z</time>
      </trkpt>
      <trkpt lat="45.67494" lon="5.46148">
        <ele>212.5</ele>
        <time>2022-09-25T10:27:38Z</time>
      </trkpt>
      <trkpt lat="45.67492" lon="5.46151">
        <ele>212.5</ele>
        <time>2022-09-25T10:27:39Z</time>
      </trkpt>
      <trkpt lat="45.67489" lon="5.46155">
        <ele>212.5</ele>
        <time>2022-09-25T10:27:40Z</time>
      </trkpt>
      <trkpt lat="45.67486" lon="5.46158">
        <ele>212.6</ele>
        <time>2022-09-25T10:27:41Z</time>
      </trkpt>
      <trkpt lat="45.67484" lon="5.46161">
        <ele>212.6</ele>
        <time>2022-09-25T10:27:42Z</time>
      </trkpt>
      <trkpt lat="45.67482" lon="5.46163">
        <ele>212.6</ele>
        <time>2022-09-25T10:27:43Z</time>
      </trkpt>
      <trkpt lat="45.67479" lon="5.46162">
        <ele>212.6</ele>
        <time>2022-09-25T10:27:44Z</time>
      </trkpt>
      <trkpt lat="45.67476" lon="5.46161">
        <ele>212.6</ele>
        <time>2022-09-25T10:27:45Z</time>
      </trkpt>
      <trkpt lat="45.67473" lon="5.46159">
        <ele>212.6</ele>
        <time>2022-09-25T10:27:46Z</time>
      </trkpt>
      <trkpt lat="45.67473" lon="5.46159">
        <ele>212.6</ele>
        <time>2022-09-25T10:27:47Z</time>
      </trkpt>
      <trkpt lat="45.67472" lon="5.46159">
        <ele>212.6</ele>
        <time>2022-09-25T10:27:48Z</time>
      </trkpt>
      <trkpt lat="45.67471" lon="5.46159">
        <ele>212.6</ele>
        <time>2022-09-25T10:27:49Z</time>
      </trkpt>
      <trkpt lat="45.6747" lon="5.46159">
        <ele>212.6</ele>
        <time>2022-09-25T10:27:50Z</time>
      </trkpt>
      <trkpt lat="45.67469" lon="5.46159">
        <ele>212.6</ele>
        <time>2022-09-25T10:27:51Z</time>
      </trkpt>
      <trkpt lat="45.67468" lon="5.4616">
        <ele>212.6</ele>
        <time>2022-09-25T10:27:52Z</time>
      </trkpt>
      <trkpt lat="45.67467" lon="5.4616">
        <ele>212.6</ele>
        <time>2022-09-25T10:27:53Z</time>
      </trkpt>
      <trkpt lat="45.67467" lon="5.4616">
        <ele>212.6</ele>
        <time>2022-09-25T10:27:54Z</time>
      </trkpt>
      <trkpt lat="45.67466" lon="5.4616">
        <ele>212.6</ele>
        <time>2022-09-25T10:27:55Z</time>
      </trkpt>
      <trkpt lat="45.67465" lon="5.4616">
        <ele>212.6</ele>
        <time>2022-09-25T10:27:56Z</time>
      </trkpt>
      <trkpt lat="45.67464" lon="5.46161">
        <ele>212.5</ele>
        <time>2022-09-25T10:28:04Z</time>
      </trkpt>
      <trkpt lat="45.67463" lon="5.46161">
        <ele>212.5</ele>
        <time>2022-09-25T10:28:05Z</time>
      </trkpt>
      <trkpt lat="45.67462" lon="5.46161">
        <ele>212.5</ele>
        <time>2022-09-25T10:28:06Z</time>
      </trkpt>
      <trkpt lat="45.67462" lon="5.46163">
        <ele>212.5</ele>
        <time>2022-09-25T10:28:07Z</time>
      </trkpt>
      <trkpt lat="45.67462" lon="5.46166">
        <ele>212.5</ele>
        <time>2022-09-25T10:28:08Z</time>
      </trkpt>
      <trkpt lat="45.67462" lon="5.4617">
        <ele>212.5</ele>
        <time>2022-09-25T10:28:09Z</time>
      </trkpt>
      <trkpt lat="45.67462" lon="5.46172">
        <ele>212.5</ele>
        <time>2022-09-25T10:28:10Z</time>
      </trkpt>
      <trkpt lat="45.67462" lon="5.46176">
        <ele>212.4</ele>
        <time>2022-09-25T10:28:11Z</time>
      </trkpt>
      <trkpt lat="45.67462" lon="5.46178">
        <ele>212.4</ele>
        <time>2022-09-25T10:28:12Z</time>
      </trkpt>
      <trkpt lat="45.67462" lon="5.46182">
        <ele>212.4</ele>
        <time>2022-09-25T10:28:13Z</time>
      </trkpt>
      <trkpt lat="45.67462" lon="5.46186">
        <ele>212.4</ele>
        <time>2022-09-25T10:28:14Z</time>
      </trkpt>
      <trkpt lat="45.67462" lon="5.46192">
        <ele>212.3</ele>
        <time>2022-09-25T10:28:15Z</time>
      </trkpt>
      <trkpt lat="45.67462" lon="5.46197">
        <ele>212.3</ele>
        <time>2022-09-25T10:28:16Z</time>
      </trkpt>
      <trkpt lat="45.6746" lon="5.46202">
        <ele>212.2</ele>
        <time>2022-09-25T10:28:17Z</time>
      </trkpt>
      <trkpt lat="45.67457" lon="5.46208">
        <ele>212.2</ele>
        <time>2022-09-25T10:28:18Z</time>
      </trkpt>
      <trkpt lat="45.67454" lon="5.46213">
        <ele>212.1</ele>
        <time>2022-09-25T10:28:19Z</time>
      </trkpt>
      <trkpt lat="45.67452" lon="5.46219">
        <ele>212.1</ele>
        <time>2022-09-25T10:28:20Z</time>
      </trkpt>
      <trkpt lat="45.6745" lon="5.46223">
        <ele>212.1</ele>
        <time>2022-09-25T10:28:21Z</time>
      </trkpt>
      <trkpt lat="45.67448" lon="5.46229">
        <ele>212</ele>
        <time>2022-09-25T10:28:22Z</time>
      </trkpt>
      <trkpt lat="45.67445" lon="5.46233">
        <ele>212</ele>
        <time>2022-09-25T10:28:23Z</time>
      </trkpt>
      <trkpt lat="45.67444" lon="5.46235">
        <ele>212</ele>
        <time>2022-09-25T10:28:24Z</time>
      </trkpt>
      <trkpt lat="45.67441" lon="5.4624">
        <ele>212</ele>
        <time>2022-09-25T10:28:25Z</time>
      </trkpt>
      <trkpt lat="45.67438" lon="5.46245">
        <ele>212</ele>
        <time>2022-09-25T10:28:26Z</time>
      </trkpt>
      <trkpt lat="45.67436" lon="5.4625">
        <ele>212</ele>
        <time>2022-09-25T10:28:27Z</time>
      </trkpt>
      <trkpt lat="45.67433" lon="5.46255">
        <ele>212</ele>
        <time>2022-09-25T10:28:28Z</time>
      </trkpt>
      <trkpt lat="45.6743" lon="5.46261">
        <ele>212</ele>
        <time>2022-09-25T10:28:29Z</time>
      </trkpt>
      <trkpt lat="45.67427" lon="5.46266">
        <ele>212</ele>
        <time>2022-09-25T10:28:30Z</time>
      </trkpt>
      <trkpt lat="45.67424" lon="5.46272">
        <ele>212</ele>
        <time>2022-09-25T10:28:31Z</time>
      </trkpt>
      <trkpt lat="45.67421" lon="5.46277">
        <ele>212</ele>
        <time>2022-09-25T10:28:32Z</time>
      </trkpt>
      <trkpt lat="45.67419" lon="5.46283">
        <ele>212</ele>
        <time>2022-09-25T10:28:33Z</time>
      </trkpt>
      <trkpt lat="45.67417" lon="5.46288">
        <ele>212</ele>
        <time>2022-09-25T10:28:34Z</time>
      </trkpt>
      <trkpt lat="45.67414" lon="5.46294">
        <ele>212</ele>
        <time>2022-09-25T10:28:35Z</time>
      </trkpt>
      <trkpt lat="45.67412" lon="5.46299">
        <ele>212</ele>
        <time>2022-09-25T10:28:36Z</time>
      </trkpt>
      <trkpt lat="45.6741" lon="5.46305">
        <ele>211.9</ele>
        <time>2022-09-25T10:28:37Z</time>
      </trkpt>
      <trkpt lat="45.67407" lon="5.46311">
        <ele>211.9</ele>
        <time>2022-09-25T10:28:38Z</time>
      </trkpt>
      <trkpt lat="45.67404" lon="5.46317">
        <ele>211.9</ele>
        <time>2022-09-25T10:28:39Z</time>
      </trkpt>
      <trkpt lat="45.67403" lon="5.46322">
        <ele>211.9</ele>
        <time>2022-09-25T10:28:40Z</time>
      </trkpt>
      <trkpt lat="45.67401" lon="5.46328">
        <ele>211.9</ele>
        <time>2022-09-25T10:28:41Z</time>
      </trkpt>
      <trkpt lat="45.67399" lon="5.46333">
        <ele>211.9</ele>
        <time>2022-09-25T10:28:42Z</time>
      </trkpt>
      <trkpt lat="45.67398" lon="5.46338">
        <ele>211.9</ele>
        <time>2022-09-25T10:28:43Z</time>
      </trkpt>
      <trkpt lat="45.67396" lon="5.46343">
        <ele>211.8</ele>
        <time>2022-09-25T10:28:44Z</time>
      </trkpt>
      <trkpt lat="45.67395" lon="5.46348">
        <ele>211.8</ele>
        <time>2022-09-25T10:28:45Z</time>
      </trkpt>
      <trkpt lat="45.67393" lon="5.46352">
        <ele>211.8</ele>
        <time>2022-09-25T10:28:46Z</time>
      </trkpt>
      <trkpt lat="45.67392" lon="5.46356">
        <ele>211.8</ele>
        <time>2022-09-25T10:28:47Z</time>
      </trkpt>
      <trkpt lat="45.6739" lon="5.46362">
        <ele>211.8</ele>
        <time>2022-09-25T10:28:48Z</time>
      </trkpt>
      <trkpt lat="45.67389" lon="5.46367">
        <ele>211.8</ele>
        <time>2022-09-25T10:28:49Z</time>
      </trkpt>
      <trkpt lat="45.67388" lon="5.46373">
        <ele>211.8</ele>
        <time>2022-09-25T10:28:50Z</time>
      </trkpt>
      <trkpt lat="45.67387" lon="5.46375">
        <ele>211.8</ele>
        <time>2022-09-25T10:28:51Z</time>
      </trkpt>
      <trkpt lat="45.67386" lon="5.46379">
        <ele>211.7</ele>
        <time>2022-09-25T10:28:52Z</time>
      </trkpt>
      <trkpt lat="45.67385" lon="5.46383">
        <ele>211.7</ele>
        <time>2022-09-25T10:28:53Z</time>
      </trkpt>
      <trkpt lat="45.67384" lon="5.46388">
        <ele>211.7</ele>
        <time>2022-09-25T10:28:54Z</time>
      </trkpt>
      <trkpt lat="45.67383" lon="5.46392">
        <ele>211.7</ele>
        <time>2022-09-25T10:28:55Z</time>
      </trkpt>
      <trkpt lat="45.67382" lon="5.46397">
        <ele>211.6</ele>
        <time>2022-09-25T10:28:56Z</time>
      </trkpt>
      <trkpt lat="45.67381" lon="5.46402">
        <ele>211.6</ele>
        <time>2022-09-25T10:28:57Z</time>
      </trkpt>
      <trkpt lat="45.67379" lon="5.46407">
        <ele>211.6</ele>
        <time>2022-09-25T10:28:58Z</time>
      </trkpt>
      <trkpt lat="45.67378" lon="5.46413">
        <ele>211.6</ele>
        <time>2022-09-25T10:28:59Z</time>
      </trkpt>
      <trkpt lat="45.67376" lon="5.46418">
        <ele>211.5</ele>
        <time>2022-09-25T10:29:00Z</time>
      </trkpt>
      <trkpt lat="45.67375" lon="5.46424">
        <ele>211.5</ele>
        <time>2022-09-25T10:29:01Z</time>
      </trkpt>
      <trkpt lat="45.67374" lon="5.46429">
        <ele>211.5</ele>
        <time>2022-09-25T10:29:02Z</time>
      </trkpt>
      <trkpt lat="45.67372" lon="5.46433">
        <ele>211.5</ele>
        <time>2022-09-25T10:29:03Z</time>
      </trkpt>
      <trkpt lat="45.67371" lon="5.46437">
        <ele>211.5</ele>
        <time>2022-09-25T10:29:04Z</time>
      </trkpt>
      <trkpt lat="45.67371" lon="5.46438">
        <ele>211.5</ele>
        <time>2022-09-25T10:29:05Z</time>
      </trkpt>
      <trkpt lat="45.67369" lon="5.46439">
        <ele>211.5</ele>
        <time>2022-09-25T10:29:06Z</time>
      </trkpt>
      <trkpt lat="45.67368" lon="5.4644">
        <ele>211.5</ele>
        <time>2022-09-25T10:29:07Z</time>
      </trkpt>
      <trkpt lat="45.67367" lon="5.46441">
        <ele>211.5</ele>
        <time>2022-09-25T10:29:08Z</time>
      </trkpt>
      <trkpt lat="45.67367" lon="5.46442">
        <ele>211.5</ele>
        <time>2022-09-25T10:29:09Z</time>
      </trkpt>
      <trkpt lat="45.67366" lon="5.46443">
        <ele>211.5</ele>
        <time>2022-09-25T10:29:10Z</time>
      </trkpt>
      <trkpt lat="45.67366" lon="5.46442">
        <ele>211.5</ele>
        <time>2022-09-25T10:29:11Z</time>
      </trkpt>
      <trkpt lat="45.67365" lon="5.46444">
        <ele>211.5</ele>
        <time>2022-09-25T10:29:12Z</time>
      </trkpt>
      <trkpt lat="45.67365" lon="5.4645">
        <ele>211.5</ele>
        <time>2022-09-25T10:29:13Z</time>
      </trkpt>
      <trkpt lat="45.67365" lon="5.46456">
        <ele>211.5</ele>
        <time>2022-09-25T10:29:14Z</time>
      </trkpt>
      <trkpt lat="45.67364" lon="5.46463">
        <ele>211.5</ele>
        <time>2022-09-25T10:29:15Z</time>
      </trkpt>
      <trkpt lat="45.67364" lon="5.46469">
        <ele>211.5</ele>
        <time>2022-09-25T10:38:53Z</time>
      </trkpt>
      <trkpt lat="45.67363" lon="5.46475">
        <ele>211.5</ele>
        <time>2022-09-25T10:38:54Z</time>
      </trkpt>
      <trkpt lat="45.67362" lon="5.4648">
        <ele>211.5</ele>
        <time>2022-09-25T10:38:55Z</time>
      </trkpt>
      <trkpt lat="45.67361" lon="5.46482">
        <ele>211.5</ele>
        <time>2022-09-25T10:38:56Z</time>
      </trkpt>
      <trkpt lat="45.6736" lon="5.46486">
        <ele>211.5</ele>
        <time>2022-09-25T10:38:57Z</time>
      </trkpt>
      <trkpt lat="45.67358" lon="5.46491">
        <ele>211.5</ele>
        <time>2022-09-25T10:38:58Z</time>
      </trkpt>
      <trkpt lat="45.67357" lon="5.46496">
        <ele>211.5</ele>
        <time>2022-09-25T10:38:59Z</time>
      </trkpt>
      <trkpt lat="45.67356" lon="5.46501">
        <ele>211.5</ele>
        <time>2022-09-25T10:39:00Z</time>
      </trkpt>
      <trkpt lat="45.67355" lon="5.46505">
        <ele>211.5</ele>
        <time>2022-09-25T10:39:01Z</time>
      </trkpt>
      <trkpt lat="45.67355" lon="5.46509">
        <ele>211.5</ele>
        <time>2022-09-25T10:39:02Z</time>
      </trkpt>
      <trkpt lat="45.67354" lon="5.46512">
        <ele>211.5</ele>
        <time>2022-09-25T10:39:03Z</time>
      </trkpt>
      <trkpt lat="45.67352" lon="5.46517">
        <ele>211.5</ele>
        <time>2022-09-25T10:39:04Z</time>
      </trkpt>
      <trkpt lat="45.67351" lon="5.46522">
        <ele>211.5</ele>
        <time>2022-09-25T10:39:05Z</time>
      </trkpt>
      <trkpt lat="45.6735" lon="5.46528">
        <ele>211.5</ele>
        <time>2022-09-25T10:39:06Z</time>
      </trkpt>
      <trkpt lat="45.67348" lon="5.46534">
        <ele>211.5</ele>
        <time>2022-09-25T10:39:07Z</time>
      </trkpt>
      <trkpt lat="45.67348" lon="5.46537">
        <ele>211.6</ele>
        <time>2022-09-25T10:39:08Z</time>
      </trkpt>
      <trkpt lat="45.67347" lon="5.46542">
        <ele>211.6</ele>
        <time>2022-09-25T10:39:09Z</time>
      </trkpt>
      <trkpt lat="45.67346" lon="5.46546">
        <ele>211.6</ele>
        <time>2022-09-25T10:39:10Z</time>
      </trkpt>
      <trkpt lat="45.67344" lon="5.46551">
        <ele>211.6</ele>
        <time>2022-09-25T10:39:11Z</time>
      </trkpt>
      <trkpt lat="45.67344" lon="5.46552">
        <ele>211.6</ele>
        <time>2022-09-25T10:39:12Z</time>
      </trkpt>
      <trkpt lat="45.67343" lon="5.46557">
        <ele>211.6</ele>
        <time>2022-09-25T10:39:13Z</time>
      </trkpt>
      <trkpt lat="45.67342" lon="5.4656">
        <ele>211.6</ele>
        <time>2022-09-25T10:39:14Z</time>
      </trkpt>
      <trkpt lat="45.67341" lon="5.46564">
        <ele>211.6</ele>
        <time>2022-09-25T10:39:15Z</time>
      </trkpt>
      <trkpt lat="45.6734" lon="5.46569">
        <ele>211.5</ele>
        <time>2022-09-25T10:39:16Z</time>
      </trkpt>
      <trkpt lat="45.6734" lon="5.46575">
        <ele>211.5</ele>
        <time>2022-09-25T10:39:17Z</time>
      </trkpt>
      <trkpt lat="45.67339" lon="5.46581">
        <ele>211.5</ele>
        <time>2022-09-25T10:39:18Z</time>
      </trkpt>
      <trkpt lat="45.67339" lon="5.46587">
        <ele>211.5</ele>
        <time>2022-09-25T10:39:19Z</time>
      </trkpt>
      <trkpt lat="45.67338" lon="5.46593">
        <ele>211.5</ele>
        <time>2022-09-25T10:39:20Z</time>
      </trkpt>
      <trkpt lat="45.67337" lon="5.46599">
        <ele>211.4</ele>
        <time>2022-09-25T10:39:21Z</time>
      </trkpt>
      <trkpt lat="45.67336" lon="5.46606">
        <ele>211.4</ele>
        <time>2022-09-25T10:39:22Z</time>
      </trkpt>
      <trkpt lat="45.67336" lon="5.46612">
        <ele>211.4</ele>
        <time>2022-09-25T10:39:23Z</time>
      </trkpt>
      <trkpt lat="45.67336" lon="5.46619">
        <ele>211.4</ele>
        <time>2022-09-25T10:39:24Z</time>
      </trkpt>
      <trkpt lat="45.67336" lon="5.46626">
        <ele>211.5</ele>
        <time>2022-09-25T10:39:25Z</time>
      </trkpt>
      <trkpt lat="45.67336" lon="5.46633">
        <ele>211.5</ele>
        <time>2022-09-25T10:39:26Z</time>
      </trkpt>
      <trkpt lat="45.67336" lon="5.46639">
        <ele>211.4</ele>
        <time>2022-09-25T10:39:27Z</time>
      </trkpt>
      <trkpt lat="45.67335" lon="5.46645">
        <ele>211.4</ele>
        <time>2022-09-25T10:39:28Z</time>
      </trkpt>
      <trkpt lat="45.67335" lon="5.4665">
        <ele>211.4</ele>
        <time>2022-09-25T10:39:29Z</time>
      </trkpt>
      <trkpt lat="45.67335" lon="5.46656">
        <ele>211.4</ele>
        <time>2022-09-25T10:39:30Z</time>
      </trkpt>
      <trkpt lat="45.67335" lon="5.46662">
        <ele>211.3</ele>
        <time>2022-09-25T10:39:31Z</time>
      </trkpt>
      <trkpt lat="45.67336" lon="5.46666">
        <ele>211.3</ele>
        <time>2022-09-25T10:39:32Z</time>
      </trkpt>
      <trkpt lat="45.67336" lon="5.46671">
        <ele>211.3</ele>
        <time>2022-09-25T10:39:33Z</time>
      </trkpt>
      <trkpt lat="45.67336" lon="5.46673">
        <ele>211.3</ele>
        <time>2022-09-25T10:39:34Z</time>
      </trkpt>
      <trkpt lat="45.67336" lon="5.46679">
        <ele>211.3</ele>
        <time>2022-09-25T10:39:35Z</time>
      </trkpt>
      <trkpt lat="45.67337" lon="5.46681">
        <ele>211.2</ele>
        <time>2022-09-25T10:39:36Z</time>
      </trkpt>
      <trkpt lat="45.67337" lon="5.46686">
        <ele>211.2</ele>
        <time>2022-09-25T10:39:37Z</time>
      </trkpt>
      <trkpt lat="45.67337" lon="5.46691">
        <ele>211.2</ele>
        <time>2022-09-25T10:39:38Z</time>
      </trkpt>
      <trkpt lat="45.67338" lon="5.46697">
        <ele>211.2</ele>
        <time>2022-09-25T10:39:39Z</time>
      </trkpt>
      <trkpt lat="45.67338" lon="5.46703">
        <ele>211.1</ele>
        <time>2022-09-25T10:39:40Z</time>
      </trkpt>
      <trkpt lat="45.67338" lon="5.46709">
        <ele>211.1</ele>
        <time>2022-09-25T10:39:41Z</time>
      </trkpt>
      <trkpt lat="45.67339" lon="5.46715">
        <ele>211.1</ele>
        <time>2022-09-25T10:39:42Z</time>
      </trkpt>
      <trkpt lat="45.67339" lon="5.46721">
        <ele>211.1</ele>
        <time>2022-09-25T10:39:43Z</time>
      </trkpt>
      <trkpt lat="45.6734" lon="5.46728">
        <ele>211.1</ele>
        <time>2022-09-25T10:39:44Z</time>
      </trkpt>
      <trkpt lat="45.6734" lon="5.46734">
        <ele>211.1</ele>
        <time>2022-09-25T10:39:45Z</time>
      </trkpt>
      <trkpt lat="45.6734" lon="5.46741">
        <ele>211.1</ele>
        <time>2022-09-25T10:39:46Z</time>
      </trkpt>
      <trkpt lat="45.67341" lon="5.46747">
        <ele>211.1</ele>
        <time>2022-09-25T10:39:47Z</time>
      </trkpt>
      <trkpt lat="45.67341" lon="5.46753">
        <ele>211.1</ele>
        <time>2022-09-25T10:39:48Z</time>
      </trkpt>
      <trkpt lat="45.67341" lon="5.4676">
        <ele>211.1</ele>
        <time>2022-09-25T10:39:49Z</time>
      </trkpt>
      <trkpt lat="45.67342" lon="5.46766">
        <ele>211.1</ele>
        <time>2022-09-25T10:39:50Z</time>
      </trkpt>
      <trkpt lat="45.67342" lon="5.46773">
        <ele>211.1</ele>
        <time>2022-09-25T10:39:51Z</time>
      </trkpt>
      <trkpt lat="45.67342" lon="5.4678">
        <ele>211.1</ele>
        <time>2022-09-25T10:39:52Z</time>
      </trkpt>
      <trkpt lat="45.67343" lon="5.46788">
        <ele>211.1</ele>
        <time>2022-09-25T10:39:53Z</time>
      </trkpt>
      <trkpt lat="45.67343" lon="5.46796">
        <ele>211.1</ele>
        <time>2022-09-25T10:39:54Z</time>
      </trkpt>
      <trkpt lat="45.67344" lon="5.46803">
        <ele>211.1</ele>
        <time>2022-09-25T10:39:55Z</time>
      </trkpt>
      <trkpt lat="45.67344" lon="5.46812">
        <ele>211.1</ele>
        <time>2022-09-25T10:39:56Z</time>
      </trkpt>
      <trkpt lat="45.67344" lon="5.46819">
        <ele>211.2</ele>
        <time>2022-09-25T10:39:57Z</time>
      </trkpt>
      <trkpt lat="45.67345" lon="5.46828">
        <ele>211.2</ele>
        <time>2022-09-25T10:39:58Z</time>
      </trkpt>
      <trkpt lat="45.67345" lon="5.46835">
        <ele>211.2</ele>
        <time>2022-09-25T10:39:59Z</time>
      </trkpt>
      <trkpt lat="45.67345" lon="5.46842">
        <ele>211.1</ele>
        <time>2022-09-25T10:40:00Z</time>
      </trkpt>
      <trkpt lat="45.67345" lon="5.4685">
        <ele>211.1</ele>
        <time>2022-09-25T10:40:01Z</time>
      </trkpt>
      <trkpt lat="45.67344" lon="5.46857">
        <ele>211.1</ele>
        <time>2022-09-25T10:40:02Z</time>
      </trkpt>
      <trkpt lat="45.67344" lon="5.46864">
        <ele>211</ele>
        <time>2022-09-25T10:40:03Z</time>
      </trkpt>
      <trkpt lat="45.67344" lon="5.46872">
        <ele>211</ele>
        <time>2022-09-25T10:40:04Z</time>
      </trkpt>
      <trkpt lat="45.67343" lon="5.4688">
        <ele>210.9</ele>
        <time>2022-09-25T10:40:05Z</time>
      </trkpt>
      <trkpt lat="45.67341" lon="5.46888">
        <ele>210.9</ele>
        <time>2022-09-25T10:40:06Z</time>
      </trkpt>
      <trkpt lat="45.6734" lon="5.46895">
        <ele>210.9</ele>
        <time>2022-09-25T10:40:07Z</time>
      </trkpt>
      <trkpt lat="45.67338" lon="5.46903">
        <ele>210.9</ele>
        <time>2022-09-25T10:40:08Z</time>
      </trkpt>
      <trkpt lat="45.67337" lon="5.4691">
        <ele>210.9</ele>
        <time>2022-09-25T10:40:09Z</time>
      </trkpt>
      <trkpt lat="45.67334" lon="5.46916">
        <ele>210.9</ele>
        <time>2022-09-25T10:40:10Z</time>
      </trkpt>
      <trkpt lat="45.67332" lon="5.46924">
        <ele>210.9</ele>
        <time>2022-09-25T10:40:11Z</time>
      </trkpt>
      <trkpt lat="45.6733" lon="5.46931">
        <ele>210.9</ele>
        <time>2022-09-25T10:40:12Z</time>
      </trkpt>
      <trkpt lat="45.67329" lon="5.46937">
        <ele>210.9</ele>
        <time>2022-09-25T10:40:13Z</time>
      </trkpt>
      <trkpt lat="45.67327" lon="5.46942">
        <ele>210.9</ele>
        <time>2022-09-25T10:40:14Z</time>
      </trkpt>
      <trkpt lat="45.67325" lon="5.46948">
        <ele>210.9</ele>
        <time>2022-09-25T10:40:15Z</time>
      </trkpt>
      <trkpt lat="45.67323" lon="5.46954">
        <ele>211</ele>
        <time>2022-09-25T10:40:16Z</time>
      </trkpt>
      <trkpt lat="45.67321" lon="5.4696">
        <ele>211</ele>
        <time>2022-09-25T10:40:17Z</time>
      </trkpt>
      <trkpt lat="45.67319" lon="5.46965">
        <ele>211</ele>
        <time>2022-09-25T10:40:18Z</time>
      </trkpt>
      <trkpt lat="45.67317" lon="5.46969">
        <ele>211</ele>
        <time>2022-09-25T10:40:19Z</time>
      </trkpt>
      <trkpt lat="45.67315" lon="5.46974">
        <ele>211</ele>
        <time>2022-09-25T10:40:20Z</time>
      </trkpt>
      <trkpt lat="45.67313" lon="5.4698">
        <ele>211</ele>
        <time>2022-09-25T10:40:21Z</time>
      </trkpt>
      <trkpt lat="45.67311" lon="5.46985">
        <ele>211</ele>
        <time>2022-09-25T10:40:22Z</time>
      </trkpt>
      <trkpt lat="45.67309" lon="5.4699">
        <ele>211</ele>
        <time>2022-09-25T10:40:23Z</time>
      </trkpt>
      <trkpt lat="45.67307" lon="5.46994">
        <ele>211</ele>
        <time>2022-09-25T10:40:24Z</time>
      </trkpt>
      <trkpt lat="45.67306" lon="5.46999">
        <ele>211</ele>
        <time>2022-09-25T10:40:25Z</time>
      </trkpt>
      <trkpt lat="45.67304" lon="5.47003">
        <ele>211</ele>
        <time>2022-09-25T10:40:26Z</time>
      </trkpt>
      <trkpt lat="45.67303" lon="5.47008">
        <ele>211</ele>
        <time>2022-09-25T10:40:27Z</time>
      </trkpt>
      <trkpt lat="45.67301" lon="5.47012">
        <ele>211.1</ele>
        <time>2022-09-25T10:40:28Z</time>
      </trkpt>
      <trkpt lat="45.673" lon="5.47017">
        <ele>211.1</ele>
        <time>2022-09-25T10:40:29Z</time>
      </trkpt>
      <trkpt lat="45.67298" lon="5.47021">
        <ele>211.1</ele>
        <time>2022-09-25T10:40:30Z</time>
      </trkpt>
      <trkpt lat="45.67296" lon="5.47025">
        <ele>211.1</ele>
        <time>2022-09-25T10:40:31Z</time>
      </trkpt>
      <trkpt lat="45.67293" lon="5.4703">
        <ele>211.1</ele>
        <time>2022-09-25T10:40:32Z</time>
      </trkpt>
      <trkpt lat="45.67291" lon="5.47033">
        <ele>211.1</ele>
        <time>2022-09-25T10:40:33Z</time>
      </trkpt>
      <trkpt lat="45.67288" lon="5.47037">
        <ele>211.2</ele>
        <time>2022-09-25T10:40:34Z</time>
      </trkpt>
      <trkpt lat="45.67284" lon="5.47039">
        <ele>211.2</ele>
        <time>2022-09-25T10:40:35Z</time>
      </trkpt>
      <trkpt lat="45.67281" lon="5.47042">
        <ele>211.2</ele>
        <time>2022-09-25T10:40:36Z</time>
      </trkpt>
      <trkpt lat="45.67278" lon="5.47044">
        <ele>211.3</ele>
        <time>2022-09-25T10:40:37Z</time>
      </trkpt>
      <trkpt lat="45.67275" lon="5.47046">
        <ele>211.3</ele>
        <time>2022-09-25T10:40:38Z</time>
      </trkpt>
      <trkpt lat="45.67273" lon="5.47048">
        <ele>211.3</ele>
        <time>2022-09-25T10:40:39Z</time>
      </trkpt>
      <trkpt lat="45.6727" lon="5.4705">
        <ele>211.4</ele>
        <time>2022-09-25T10:40:40Z</time>
      </trkpt>
      <trkpt lat="45.67269" lon="5.4705">
        <ele>211.4</ele>
        <time>2022-09-25T10:40:41Z</time>
      </trkpt>
      <trkpt lat="45.67266" lon="5.47052">
        <ele>211.4</ele>
        <time>2022-09-25T10:40:42Z</time>
      </trkpt>
      <trkpt lat="45.67266" lon="5.47056">
        <ele>211.4</ele>
        <time>2022-09-25T10:40:43Z</time>
      </trkpt>
      <trkpt lat="45.67266" lon="5.47058">
        <ele>211.4</ele>
        <time>2022-09-25T10:40:44Z</time>
      </trkpt>
      <trkpt lat="45.67266" lon="5.47062">
        <ele>211.5</ele>
        <time>2022-09-25T10:40:45Z</time>
      </trkpt>
      <trkpt lat="45.67266" lon="5.47062">
        <ele>211.5</ele>
        <time>2022-09-25T10:40:46Z</time>
      </trkpt>
      <trkpt lat="45.67265" lon="5.47064">
        <ele>211.5</ele>
        <time>2022-09-25T10:40:47Z</time>
      </trkpt>
      <trkpt lat="45.67263" lon="5.47064">
        <ele>211.5</ele>
        <time>2022-09-25T10:40:48Z</time>
      </trkpt>
      <trkpt lat="45.6726" lon="5.47063">
        <ele>211.6</ele>
        <time>2022-09-25T10:40:49Z</time>
      </trkpt>
      <trkpt lat="45.67259" lon="5.47063">
        <ele>211.6</ele>
        <time>2022-09-25T10:40:50Z</time>
      </trkpt>
      <trkpt lat="45.67257" lon="5.47064">
        <ele>211.6</ele>
        <time>2022-09-25T10:40:51Z</time>
      </trkpt>
      <trkpt lat="45.67256" lon="5.47067">
        <ele>211.6</ele>
        <time>2022-09-25T10:40:52Z</time>
      </trkpt>
      <trkpt lat="45.67255" lon="5.47069">
        <ele>211.7</ele>
        <time>2022-09-25T10:40:53Z</time>
      </trkpt>
      <trkpt lat="45.67253" lon="5.47072">
        <ele>211.7</ele>
        <time>2022-09-25T10:40:54Z</time>
      </trkpt>
      <trkpt lat="45.67252" lon="5.47075">
        <ele>211.8</ele>
        <time>2022-09-25T10:40:55Z</time>
      </trkpt>
      <trkpt lat="45.67251" lon="5.47077">
        <ele>211.7</ele>
        <time>2022-09-25T10:41:05Z</time>
      </trkpt>
      <trkpt lat="45.67249" lon="5.4708">
        <ele>211.6</ele>
        <time>2022-09-25T10:41:06Z</time>
      </trkpt>
      <trkpt lat="45.67248" lon="5.47082">
        <ele>211.6</ele>
        <time>2022-09-25T10:41:07Z</time>
      </trkpt>
      <trkpt lat="45.67249" lon="5.47087">
        <ele>211.6</ele>
        <time>2022-09-25T10:41:08Z</time>
      </trkpt>
      <trkpt lat="45.67252" lon="5.47089">
        <ele>211.5</ele>
        <time>2022-09-25T10:41:09Z</time>
      </trkpt>
      <trkpt lat="45.67254" lon="5.47092">
        <ele>211.5</ele>
        <time>2022-09-25T10:41:10Z</time>
      </trkpt>
      <trkpt lat="45.67257" lon="5.47093">
        <ele>211.5</ele>
        <time>2022-09-25T10:41:11Z</time>
      </trkpt>
      <trkpt lat="45.6726" lon="5.47095">
        <ele>211.4</ele>
        <time>2022-09-25T10:41:12Z</time>
      </trkpt>
      <trkpt lat="45.67262" lon="5.47098">
        <ele>211.4</ele>
        <time>2022-09-25T10:41:13Z</time>
      </trkpt>
      <trkpt lat="45.67263" lon="5.47103">
        <ele>211.4</ele>
        <time>2022-09-25T10:41:14Z</time>
      </trkpt>
      <trkpt lat="45.67263" lon="5.47107">
        <ele>211.3</ele>
        <time>2022-09-25T10:41:15Z</time>
      </trkpt>
      <trkpt lat="45.67264" lon="5.47111">
        <ele>211.3</ele>
        <time>2022-09-25T10:41:16Z</time>
      </trkpt>
      <trkpt lat="45.67266" lon="5.47116">
        <ele>211.3</ele>
        <time>2022-09-25T10:41:17Z</time>
      </trkpt>
      <trkpt lat="45.67268" lon="5.47119">
        <ele>211.3</ele>
        <time>2022-09-25T10:41:18Z</time>
      </trkpt>
      <trkpt lat="45.6727" lon="5.47123">
        <ele>211.3</ele>
        <time>2022-09-25T10:41:19Z</time>
      </trkpt>
      <trkpt lat="45.67272" lon="5.47126">
        <ele>211.3</ele>
        <time>2022-09-25T10:41:20Z</time>
      </trkpt>
      <trkpt lat="45.67272" lon="5.47127">
        <ele>211.2</ele>
        <time>2022-09-25T10:41:21Z</time>
      </trkpt>
      <trkpt lat="45.67274" lon="5.47128">
        <ele>211.2</ele>
        <time>2022-09-25T10:41:22Z</time>
      </trkpt>
      <trkpt lat="45.67275" lon="5.47128">
        <ele>211.2</ele>
        <time>2022-09-25T10:41:23Z</time>
      </trkpt>
      <trkpt lat="45.67275" lon="5.47128">
        <ele>211.3</ele>
        <time>2022-09-25T10:41:24Z</time>
      </trkpt>
      <trkpt lat="45.67276" lon="5.47128">
        <ele>211.3</ele>
        <time>2022-09-25T10:41:25Z</time>
      </trkpt>
      <trkpt lat="45.67277" lon="5.47129">
        <ele>211.3</ele>
        <time>2022-09-25T10:41:26Z</time>
      </trkpt>
      <trkpt lat="45.67278" lon="5.47129">
        <ele>211.3</ele>
        <time>2022-09-25T10:41:27Z</time>
      </trkpt>
      <trkpt lat="45.67278" lon="5.47129">
        <ele>211.3</ele>
        <time>2022-09-25T10:41:28Z</time>
      </trkpt>
      <trkpt lat="45.67279" lon="5.47129">
        <ele>211.3</ele>
        <time>2022-09-25T10:41:29Z</time>
      </trkpt>
      <trkpt lat="45.6728" lon="5.47129">
        <ele>211.3</ele>
        <time>2022-09-25T10:41:30Z</time>
      </trkpt>
      <trkpt lat="45.67281" lon="5.4713">
        <ele>211.3</ele>
        <time>2022-09-25T10:41:31Z</time>
      </trkpt>
      <trkpt lat="45.67281" lon="5.4713">
        <ele>211.3</ele>
        <time>2022-09-25T10:41:51Z</time>
      </trkpt>
      <trkpt lat="45.67282" lon="5.4713">
        <ele>211.3</ele>
        <time>2022-09-25T10:41:52Z</time>
      </trkpt>
      <trkpt lat="45.67284" lon="5.47131">
        <ele>211.3</ele>
        <time>2022-09-25T10:41:53Z</time>
      </trkpt>
      <trkpt lat="45.67285" lon="5.47132">
        <ele>211.3</ele>
        <time>2022-09-25T10:41:54Z</time>
      </trkpt>
      <trkpt lat="45.67285" lon="5.47138">
        <ele>211.2</ele>
        <time>2022-09-25T10:41:55Z</time>
      </trkpt>
      <trkpt lat="45.67284" lon="5.47143">
        <ele>211.2</ele>
        <time>2022-09-25T10:41:56Z</time>
      </trkpt>
      <trkpt lat="45.67284" lon="5.47145">
        <ele>211.1</ele>
        <time>2022-09-25T10:41:57Z</time>
      </trkpt>
      <trkpt lat="45.67283" lon="5.47149">
        <ele>211.1</ele>
        <time>2022-09-25T10:41:58Z</time>
      </trkpt>
      <trkpt lat="45.67282" lon="5.47154">
        <ele>211.1</ele>
        <time>2022-09-25T10:41:59Z</time>
      </trkpt>
      <trkpt lat="45.67281" lon="5.47158">
        <ele>211</ele>
        <time>2022-09-25T10:42:00Z</time>
      </trkpt>
      <trkpt lat="45.67282" lon="5.47162">
        <ele>211</ele>
        <time>2022-09-25T10:42:01Z</time>
      </trkpt>
      <trkpt lat="45.67281" lon="5.47168">
        <ele>211</ele>
        <time>2022-09-25T10:42:02Z</time>
      </trkpt>
      <trkpt lat="45.67281" lon="5.47172">
        <ele>211</ele>
        <time>2022-09-25T10:42:03Z</time>
      </trkpt>
      <trkpt lat="45.6728" lon="5.47179">
        <ele>210.9</ele>
        <time>2022-09-25T10:42:04Z</time>
      </trkpt>
      <trkpt lat="45.6728" lon="5.47181">
        <ele>210.9</ele>
        <time>2022-09-25T10:42:05Z</time>
      </trkpt>
      <trkpt lat="45.6728" lon="5.47186">
        <ele>210.9</ele>
        <time>2022-09-25T10:42:06Z</time>
      </trkpt>
      <trkpt lat="45.6728" lon="5.47192">
        <ele>210.8</ele>
        <time>2022-09-25T10:42:07Z</time>
      </trkpt>
      <trkpt lat="45.6728" lon="5.47198">
        <ele>210.8</ele>
        <time>2022-09-25T10:42:08Z</time>
      </trkpt>
      <trkpt lat="45.67279" lon="5.47203">
        <ele>210.7</ele>
        <time>2022-09-25T10:42:09Z</time>
      </trkpt>
      <trkpt lat="45.67279" lon="5.47209">
        <ele>210.7</ele>
        <time>2022-09-25T10:42:10Z</time>
      </trkpt>
      <trkpt lat="45.67279" lon="5.47214">
        <ele>210.7</ele>
        <time>2022-09-25T10:42:11Z</time>
      </trkpt>
      <trkpt lat="45.67278" lon="5.47219">
        <ele>210.7</ele>
        <time>2022-09-25T10:42:12Z</time>
      </trkpt>
      <trkpt lat="45.67278" lon="5.47223">
        <ele>210.7</ele>
        <time>2022-09-25T10:42:13Z</time>
      </trkpt>
      <trkpt lat="45.67278" lon="5.47227">
        <ele>210.7</ele>
        <time>2022-09-25T10:42:14Z</time>
      </trkpt>
      <trkpt lat="45.67277" lon="5.47232">
        <ele>210.6</ele>
        <time>2022-09-25T10:42:15Z</time>
      </trkpt>
      <trkpt lat="45.67277" lon="5.47237">
        <ele>210.6</ele>
        <time>2022-09-25T10:42:16Z</time>
      </trkpt>
      <trkpt lat="45.67277" lon="5.47242">
        <ele>210.6</ele>
        <time>2022-09-25T10:42:17Z</time>
      </trkpt>
      <trkpt lat="45.67276" lon="5.47246">
        <ele>210.7</ele>
        <time>2022-09-25T10:42:18Z</time>
      </trkpt>
      <trkpt lat="45.67276" lon="5.47252">
        <ele>210.7</ele>
        <time>2022-09-25T10:42:19Z</time>
      </trkpt>
      <trkpt lat="45.67275" lon="5.47258">
        <ele>210.7</ele>
        <time>2022-09-25T10:42:20Z</time>
      </trkpt>
      <trkpt lat="45.67275" lon="5.4726">
        <ele>210.7</ele>
        <time>2022-09-25T10:42:21Z</time>
      </trkpt>
      <trkpt lat="45.67275" lon="5.47264">
        <ele>210.7</ele>
        <time>2022-09-25T10:42:22Z</time>
      </trkpt>
      <trkpt lat="45.67275" lon="5.4727">
        <ele>210.7</ele>
        <time>2022-09-25T10:42:23Z</time>
      </trkpt>
      <trkpt lat="45.67274" lon="5.47274">
        <ele>210.7</ele>
        <time>2022-09-25T10:42:24Z</time>
      </trkpt>
      <trkpt lat="45.67274" lon="5.47275">
        <ele>210.7</ele>
        <time>2022-09-25T10:42:25Z</time>
      </trkpt>
      <trkpt lat="45.67275" lon="5.47279">
        <ele>210.7</ele>
        <time>2022-09-25T10:42:26Z</time>
      </trkpt>
      <trkpt lat="45.67275" lon="5.4728">
        <ele>210.7</ele>
        <time>2022-09-25T10:42:27Z</time>
      </trkpt>
      <trkpt lat="45.67277" lon="5.47284">
        <ele>210.6</ele>
        <time>2022-09-25T10:42:28Z</time>
      </trkpt>
      <trkpt lat="45.67277" lon="5.47286">
        <ele>210.6</ele>
        <time>2022-09-25T10:42:29Z</time>
      </trkpt>
      <trkpt lat="45.67279" lon="5.47291">
        <ele>210.6</ele>
        <time>2022-09-25T10:42:30Z</time>
      </trkpt>
      <trkpt lat="45.67279" lon="5.47293">
        <ele>210.6</ele>
        <time>2022-09-25T10:42:31Z</time>
      </trkpt>
      <trkpt lat="45.67278" lon="5.47299">
        <ele>210.6</ele>
        <time>2022-09-25T10:42:32Z</time>
      </trkpt>
      <trkpt lat="45.67277" lon="5.47303">
        <ele>210.6</ele>
        <time>2022-09-25T10:42:33Z</time>
      </trkpt>
      <trkpt lat="45.67276" lon="5.47308">
        <ele>210.6</ele>
        <time>2022-09-25T10:42:34Z</time>
      </trkpt>
      <trkpt lat="45.67275" lon="5.47313">
        <ele>210.6</ele>
        <time>2022-09-25T10:42:35Z</time>
      </trkpt>
      <trkpt lat="45.67274" lon="5.47318">
        <ele>210.6</ele>
        <time>2022-09-25T10:42:36Z</time>
      </trkpt>
      <trkpt lat="45.67273" lon="5.47324">
        <ele>210.6</ele>
        <time>2022-09-25T10:42:37Z</time>
      </trkpt>
      <trkpt lat="45.67272" lon="5.4733">
        <ele>210.6</ele>
        <time>2022-09-25T10:42:38Z</time>
      </trkpt>
      <trkpt lat="45.67271" lon="5.47336">
        <ele>210.6</ele>
        <time>2022-09-25T10:42:39Z</time>
      </trkpt>
      <trkpt lat="45.67272" lon="5.47341">
        <ele>210.5</ele>
        <time>2022-09-25T10:42:40Z</time>
      </trkpt>
      <trkpt lat="45.67271" lon="5.47347">
        <ele>210.5</ele>
        <time>2022-09-25T10:42:41Z</time>
      </trkpt>
      <trkpt lat="45.67271" lon="5.47354">
        <ele>210.5</ele>
        <time>2022-09-25T10:42:42Z</time>
      </trkpt>
      <trkpt lat="45.6727" lon="5.47361">
        <ele>210.5</ele>
        <time>2022-09-25T10:42:43Z</time>
      </trkpt>
      <trkpt lat="45.67269" lon="5.47367">
        <ele>210.5</ele>
        <time>2022-09-25T10:42:44Z</time>
      </trkpt>
      <trkpt lat="45.67269" lon="5.47374">
        <ele>210.5</ele>
        <time>2022-09-25T10:42:45Z</time>
      </trkpt>
      <trkpt lat="45.67268" lon="5.47381">
        <ele>210.5</ele>
        <time>2022-09-25T10:42:46Z</time>
      </trkpt>
      <trkpt lat="45.67268" lon="5.47386">
        <ele>210.4</ele>
        <time>2022-09-25T10:42:47Z</time>
      </trkpt>
      <trkpt lat="45.67267" lon="5.47394">
        <ele>210.4</ele>
        <time>2022-09-25T10:42:48Z</time>
      </trkpt>
      <trkpt lat="45.67267" lon="5.474">
        <ele>210.4</ele>
        <time>2022-09-25T10:42:49Z</time>
      </trkpt>
      <trkpt lat="45.67267" lon="5.47408">
        <ele>210.4</ele>
        <time>2022-09-25T10:42:50Z</time>
      </trkpt>
      <trkpt lat="45.67266" lon="5.47415">
        <ele>210.3</ele>
        <time>2022-09-25T10:42:51Z</time>
      </trkpt>
      <trkpt lat="45.67265" lon="5.47422">
        <ele>210.3</ele>
        <time>2022-09-25T10:42:52Z</time>
      </trkpt>
      <trkpt lat="45.67265" lon="5.47429">
        <ele>210.2</ele>
        <time>2022-09-25T10:42:53Z</time>
      </trkpt>
      <trkpt lat="45.67265" lon="5.47436">
        <ele>210.2</ele>
        <time>2022-09-25T10:42:54Z</time>
      </trkpt>
      <trkpt lat="45.67264" lon="5.47443">
        <ele>210.2</ele>
        <time>2022-09-25T10:42:55Z</time>
      </trkpt>
      <trkpt lat="45.67264" lon="5.4745">
        <ele>210.1</ele>
        <time>2022-09-25T10:42:56Z</time>
      </trkpt>
      <trkpt lat="45.67264" lon="5.47457">
        <ele>210.1</ele>
        <time>2022-09-25T10:42:57Z</time>
      </trkpt>
      <trkpt lat="45.67264" lon="5.47463">
        <ele>210.1</ele>
        <time>2022-09-25T10:42:58Z</time>
      </trkpt>
      <trkpt lat="45.67263" lon="5.47471">
        <ele>210</ele>
        <time>2022-09-25T10:42:59Z</time>
      </trkpt>
      <trkpt lat="45.67257" lon="5.47479">
        <ele>210</ele>
        <time>2022-09-25T10:43:00Z</time>
      </trkpt>
      <trkpt lat="45.67256" lon="5.47486">
        <ele>210</ele>
        <time>2022-09-25T10:43:01Z</time>
      </trkpt>
      <trkpt lat="45.67255" lon="5.47494">
        <ele>209.9</ele>
        <time>2022-09-25T10:43:02Z</time>
      </trkpt>
      <trkpt lat="45.67255" lon="5.47502">
        <ele>209.9</ele>
        <time>2022-09-25T10:43:03Z</time>
      </trkpt>
      <trkpt lat="45.67254" lon="5.47509">
        <ele>209.9</ele>
        <time>2022-09-25T10:43:04Z</time>
      </trkpt>
      <trkpt lat="45.67254" lon="5.47517">
        <ele>209.9</ele>
        <time>2022-09-25T10:43:05Z</time>
      </trkpt>
      <trkpt lat="45.67253" lon="5.47524">
        <ele>209.9</ele>
        <time>2022-09-25T10:43:06Z</time>
      </trkpt>
      <trkpt lat="45.67253" lon="5.47531">
        <ele>209.9</ele>
        <time>2022-09-25T10:43:07Z</time>
      </trkpt>
      <trkpt lat="45.67252" lon="5.4754">
        <ele>209.8</ele>
        <time>2022-09-25T10:43:08Z</time>
      </trkpt>
      <trkpt lat="45.67252" lon="5.47547">
        <ele>209.8</ele>
        <time>2022-09-25T10:43:09Z</time>
      </trkpt>
      <trkpt lat="45.67252" lon="5.47556">
        <ele>209.8</ele>
        <time>2022-09-25T10:43:10Z</time>
      </trkpt>
      <trkpt lat="45.67252" lon="5.47565">
        <ele>209.7</ele>
        <time>2022-09-25T10:43:11Z</time>
      </trkpt>
      <trkpt lat="45.67252" lon="5.47573">
        <ele>209.6</ele>
        <time>2022-09-25T10:43:12Z</time>
      </trkpt>
      <trkpt lat="45.67251" lon="5.47583">
        <ele>209.6</ele>
        <time>2022-09-25T10:43:13Z</time>
      </trkpt>
      <trkpt lat="45.67251" lon="5.47591">
        <ele>209.6</ele>
        <time>2022-09-25T10:43:14Z</time>
      </trkpt>
      <trkpt lat="45.6725" lon="5.476">
        <ele>209.5</ele>
        <time>2022-09-25T10:43:15Z</time>
      </trkpt>
      <trkpt lat="45.6725" lon="5.47608">
        <ele>209.5</ele>
        <time>2022-09-25T10:43:16Z</time>
      </trkpt>
      <trkpt lat="45.67249" lon="5.47616">
        <ele>209.5</ele>
        <time>2022-09-25T10:43:17Z</time>
      </trkpt>
      <trkpt lat="45.67249" lon="5.47624">
        <ele>209.5</ele>
        <time>2022-09-25T10:43:18Z</time>
      </trkpt>
      <trkpt lat="45.67249" lon="5.47633">
        <ele>209.5</ele>
        <time>2022-09-25T10:43:19Z</time>
      </trkpt>
      <trkpt lat="45.67249" lon="5.47641">
        <ele>209.5</ele>
        <time>2022-09-25T10:43:20Z</time>
      </trkpt>
      <trkpt lat="45.67248" lon="5.4765">
        <ele>209.5</ele>
        <time>2022-09-25T10:43:21Z</time>
      </trkpt>
      <trkpt lat="45.67248" lon="5.47658">
        <ele>209.5</ele>
        <time>2022-09-25T10:43:22Z</time>
      </trkpt>
      <trkpt lat="45.67247" lon="5.47667">
        <ele>209.5</ele>
        <time>2022-09-25T10:43:23Z</time>
      </trkpt>
      <trkpt lat="45.67247" lon="5.47676">
        <ele>209.5</ele>
        <time>2022-09-25T10:43:24Z</time>
      </trkpt>
      <trkpt lat="45.67247" lon="5.47685">
        <ele>209.5</ele>
        <time>2022-09-25T10:43:25Z</time>
      </trkpt>
      <trkpt lat="45.67246" lon="5.47694">
        <ele>209.5</ele>
        <time>2022-09-25T10:43:26Z</time>
      </trkpt>
      <trkpt lat="45.67246" lon="5.47702">
        <ele>209.5</ele>
        <time>2022-09-25T10:43:27Z</time>
      </trkpt>
      <trkpt lat="45.67246" lon="5.47709">
        <ele>209.5</ele>
        <time>2022-09-25T10:43:28Z</time>
      </trkpt>
      <trkpt lat="45.67246" lon="5.47717">
        <ele>209.6</ele>
        <time>2022-09-25T10:43:29Z</time>
      </trkpt>
      <trkpt lat="45.67245" lon="5.47724">
        <ele>209.6</ele>
        <time>2022-09-25T10:43:30Z</time>
      </trkpt>
      <trkpt lat="45.67245" lon="5.47731">
        <ele>209.7</ele>
        <time>2022-09-25T10:43:31Z</time>
      </trkpt>
      <trkpt lat="45.67246" lon="5.47736">
        <ele>209.7</ele>
        <time>2022-09-25T10:43:32Z</time>
      </trkpt>
      <trkpt lat="45.67246" lon="5.47737">
        <ele>209.7</ele>
        <time>2022-09-25T10:43:33Z</time>
      </trkpt>
      <trkpt lat="45.67249" lon="5.4774">
        <ele>209.8</ele>
        <time>2022-09-25T10:43:34Z</time>
      </trkpt>
      <trkpt lat="45.67252" lon="5.47742">
        <ele>209.8</ele>
        <time>2022-09-25T10:43:35Z</time>
      </trkpt>
      <trkpt lat="45.67255" lon="5.47743">
        <ele>209.8</ele>
        <time>2022-09-25T10:43:36Z</time>
      </trkpt>
      <trkpt lat="45.67259" lon="5.47746">
        <ele>209.8</ele>
        <time>2022-09-25T10:43:37Z</time>
      </trkpt>
      <trkpt lat="45.67262" lon="5.47748">
        <ele>209.8</ele>
        <time>2022-09-25T10:43:38Z</time>
      </trkpt>
      <trkpt lat="45.67266" lon="5.47751">
        <ele>209.8</ele>
        <time>2022-09-25T10:43:39Z</time>
      </trkpt>
      <trkpt lat="45.6727" lon="5.47754">
        <ele>209.7</ele>
        <time>2022-09-25T10:43:40Z</time>
      </trkpt>
      <trkpt lat="45.67275" lon="5.47757">
        <ele>209.7</ele>
        <time>2022-09-25T10:43:41Z</time>
      </trkpt>
      <trkpt lat="45.67279" lon="5.4776">
        <ele>209.7</ele>
        <time>2022-09-25T10:43:42Z</time>
      </trkpt>
      <trkpt lat="45.67283" lon="5.47762">
        <ele>209.7</ele>
        <time>2022-09-25T10:43:43Z</time>
      </trkpt>
      <trkpt lat="45.67288" lon="5.47765">
        <ele>209.6</ele>
        <time>2022-09-25T10:43:44Z</time>
      </trkpt>
      <trkpt lat="45.67292" lon="5.47769">
        <ele>209.6</ele>
        <time>2022-09-25T10:43:45Z</time>
      </trkpt>
      <trkpt lat="45.67297" lon="5.47774">
        <ele>209.6</ele>
        <time>2022-09-25T10:43:46Z</time>
      </trkpt>
      <trkpt lat="45.67302" lon="5.47777">
        <ele>209.6</ele>
        <time>2022-09-25T10:43:47Z</time>
      </trkpt>
      <trkpt lat="45.67309" lon="5.47778">
        <ele>209.6</ele>
        <time>2022-09-25T10:43:48Z</time>
      </trkpt>
      <trkpt lat="45.67314" lon="5.47778">
        <ele>209.6</ele>
        <time>2022-09-25T10:43:49Z</time>
      </trkpt>
      <trkpt lat="45.67319" lon="5.47778">
        <ele>209.7</ele>
        <time>2022-09-25T10:43:50Z</time>
      </trkpt>
      <trkpt lat="45.67324" lon="5.47779">
        <ele>209.7</ele>
        <time>2022-09-25T10:43:51Z</time>
      </trkpt>
      <trkpt lat="45.67329" lon="5.4778">
        <ele>209.7</ele>
        <time>2022-09-25T10:43:52Z</time>
      </trkpt>
      <trkpt lat="45.67334" lon="5.47783">
        <ele>209.6</ele>
        <time>2022-09-25T10:43:53Z</time>
      </trkpt>
      <trkpt lat="45.67339" lon="5.47786">
        <ele>209.6</ele>
        <time>2022-09-25T10:43:54Z</time>
      </trkpt>
      <trkpt lat="45.67344" lon="5.47788">
        <ele>209.6</ele>
        <time>2022-09-25T10:43:55Z</time>
      </trkpt>
      <trkpt lat="45.67349" lon="5.47791">
        <ele>209.5</ele>
        <time>2022-09-25T10:43:56Z</time>
      </trkpt>
      <trkpt lat="45.67355" lon="5.47794">
        <ele>209.5</ele>
        <time>2022-09-25T10:43:57Z</time>
      </trkpt>
      <trkpt lat="45.67361" lon="5.47797">
        <ele>209.4</ele>
        <time>2022-09-25T10:43:58Z</time>
      </trkpt>
      <trkpt lat="45.67366" lon="5.47801">
        <ele>209.4</ele>
        <time>2022-09-25T10:43:59Z</time>
      </trkpt>
      <trkpt lat="45.67371" lon="5.47804">
        <ele>209.3</ele>
        <time>2022-09-25T10:44:00Z</time>
      </trkpt>
      <trkpt lat="45.67377" lon="5.47806">
        <ele>209.3</ele>
        <time>2022-09-25T10:44:01Z</time>
      </trkpt>
      <trkpt lat="45.67382" lon="5.47808">
        <ele>209.3</ele>
        <time>2022-09-25T10:44:02Z</time>
      </trkpt>
      <trkpt lat="45.67388" lon="5.4781">
        <ele>209.3</ele>
        <time>2022-09-25T10:44:03Z</time>
      </trkpt>
      <trkpt lat="45.67393" lon="5.47812">
        <ele>209.3</ele>
        <time>2022-09-25T10:44:04Z</time>
      </trkpt>
      <trkpt lat="45.67399" lon="5.47814">
        <ele>209.3</ele>
        <time>2022-09-25T10:44:05Z</time>
      </trkpt>
      <trkpt lat="45.67403" lon="5.47816">
        <ele>209.3</ele>
        <time>2022-09-25T10:44:06Z</time>
      </trkpt>
      <trkpt lat="45.67408" lon="5.47817">
        <ele>209.3</ele>
        <time>2022-09-25T10:44:07Z</time>
      </trkpt>
      <trkpt lat="45.67414" lon="5.4782">
        <ele>209.3</ele>
        <time>2022-09-25T10:44:08Z</time>
      </trkpt>
      <trkpt lat="45.67419" lon="5.47822">
        <ele>209.3</ele>
        <time>2022-09-25T10:44:09Z</time>
      </trkpt>
      <trkpt lat="45.67424" lon="5.47824">
        <ele>209.3</ele>
        <time>2022-09-25T10:44:10Z</time>
      </trkpt>
      <trkpt lat="45.67429" lon="5.47827">
        <ele>209.3</ele>
        <time>2022-09-25T10:44:11Z</time>
      </trkpt>
      <trkpt lat="45.67434" lon="5.47829">
        <ele>209.3</ele>
        <time>2022-09-25T10:44:12Z</time>
      </trkpt>
      <trkpt lat="45.67439" lon="5.47831">
        <ele>209.4</ele>
        <time>2022-09-25T10:44:13Z</time>
      </trkpt>
      <trkpt lat="45.67444" lon="5.47833">
        <ele>209.4</ele>
        <time>2022-09-25T10:44:14Z</time>
      </trkpt>
      <trkpt lat="45.67448" lon="5.47835">
        <ele>209.4</ele>
        <time>2022-09-25T10:44:15Z</time>
      </trkpt>
      <trkpt lat="45.67452" lon="5.47837">
        <ele>209.5</ele>
        <time>2022-09-25T10:44:16Z</time>
      </trkpt>
      <trkpt lat="45.67457" lon="5.47838">
        <ele>209.6</ele>
        <time>2022-09-25T10:44:17Z</time>
      </trkpt>
      <trkpt lat="45.6746" lon="5.4784">
        <ele>209.6</ele>
        <time>2022-09-25T10:44:18Z</time>
      </trkpt>
      <trkpt lat="45.67462" lon="5.47841">
        <ele>209.6</ele>
        <time>2022-09-25T10:44:19Z</time>
      </trkpt>
      <trkpt lat="45.67465" lon="5.47843">
        <ele>209.6</ele>
        <time>2022-09-25T10:44:20Z</time>
      </trkpt>
      <trkpt lat="45.67466" lon="5.47843">
        <ele>209.7</ele>
        <time>2022-09-25T10:44:21Z</time>
      </trkpt>
      <trkpt lat="45.67468" lon="5.47844">
        <ele>209.7</ele>
        <time>2022-09-25T10:44:22Z</time>
      </trkpt>
      <trkpt lat="45.67469" lon="5.47845">
        <ele>209.7</ele>
        <time>2022-09-25T10:44:23Z</time>
      </trkpt>
      <trkpt lat="45.67472" lon="5.47846">
        <ele>209.7</ele>
        <time>2022-09-25T10:44:24Z</time>
      </trkpt>
      <trkpt lat="45.67474" lon="5.47847">
        <ele>209.7</ele>
        <time>2022-09-25T10:44:25Z</time>
      </trkpt>
      <trkpt lat="45.67478" lon="5.47848">
        <ele>209.7</ele>
        <time>2022-09-25T10:44:26Z</time>
      </trkpt>
      <trkpt lat="45.67481" lon="5.47849">
        <ele>209.7</ele>
        <time>2022-09-25T10:44:27Z</time>
      </trkpt>
      <trkpt lat="45.67485" lon="5.4785">
        <ele>209.7</ele>
        <time>2022-09-25T10:44:28Z</time>
      </trkpt>
      <trkpt lat="45.67488" lon="5.47851">
        <ele>209.7</ele>
        <time>2022-09-25T10:44:29Z</time>
      </trkpt>
      <trkpt lat="45.67492" lon="5.47853">
        <ele>209.7</ele>
        <time>2022-09-25T10:44:30Z</time>
      </trkpt>
      <trkpt lat="45.67496" lon="5.47855">
        <ele>209.7</ele>
        <time>2022-09-25T10:44:31Z</time>
      </trkpt>
      <trkpt lat="45.67499" lon="5.47856">
        <ele>209.7</ele>
        <time>2022-09-25T10:44:32Z</time>
      </trkpt>
      <trkpt lat="45.67502" lon="5.47857">
        <ele>209.7</ele>
        <time>2022-09-25T10:44:33Z</time>
      </trkpt>
      <trkpt lat="45.67506" lon="5.47857">
        <ele>209.7</ele>
        <time>2022-09-25T10:44:34Z</time>
      </trkpt>
      <trkpt lat="45.67509" lon="5.47856">
        <ele>209.7</ele>
        <time>2022-09-25T10:44:35Z</time>
      </trkpt>
      <trkpt lat="45.6751" lon="5.47855">
        <ele>209.7</ele>
        <time>2022-09-25T10:44:36Z</time>
      </trkpt>
      <trkpt lat="45.67512" lon="5.47852">
        <ele>209.7</ele>
        <time>2022-09-25T10:44:37Z</time>
      </trkpt>
      <trkpt lat="45.67513" lon="5.47851">
        <ele>209.7</ele>
        <time>2022-09-25T10:44:38Z</time>
      </trkpt>
      <trkpt lat="45.67513" lon="5.47851">
        <ele>209.6</ele>
        <time>2022-09-25T10:44:39Z</time>
      </trkpt>
      <trkpt lat="45.67513" lon="5.47851">
        <ele>209.6</ele>
        <time>2022-09-25T10:44:40Z</time>
      </trkpt>
      <trkpt lat="45.67513" lon="5.47851">
        <ele>209.6</ele>
        <time>2022-09-25T10:44:41Z</time>
      </trkpt>
      <trkpt lat="45.67513" lon="5.47851">
        <ele>209.6</ele>
        <time>2022-09-25T10:44:42Z</time>
      </trkpt>
      <trkpt lat="45.67513" lon="5.4785">
        <ele>209.6</ele>
        <time>2022-09-25T10:44:43Z</time>
      </trkpt>
      <trkpt lat="45.67513" lon="5.4785">
        <ele>209.6</ele>
        <time>2022-09-25T10:44:44Z</time>
      </trkpt>
      <trkpt lat="45.67513" lon="5.4785">
        <ele>209.6</ele>
        <time>2022-09-25T10:44:45Z</time>
      </trkpt>
      <trkpt lat="45.67513" lon="5.4785">
        <ele>209.6</ele>
        <time>2022-09-25T10:44:46Z</time>
      </trkpt>
      <trkpt lat="45.67513" lon="5.4785">
        <ele>209.6</ele>
        <time>2022-09-25T10:44:47Z</time>
      </trkpt>
      <trkpt lat="45.67513" lon="5.4785">
        <ele>209.6</ele>
        <time>2022-09-25T10:44:48Z</time>
      </trkpt>
      <trkpt lat="45.67513" lon="5.4785">
        <ele>209.6</ele>
        <time>2022-09-25T10:44:49Z</time>
      </trkpt>
      <trkpt lat="45.67454" lon="5.47881">
        <ele>209.3</ele>
        <time>2022-09-25T10:46:07Z</time>
      </trkpt>
      <trkpt lat="45.67452" lon="5.47886">
        <ele>209.3</ele>
        <time>2022-09-25T10:46:08Z</time>
      </trkpt>
      <trkpt lat="45.67451" lon="5.47892">
        <ele>209.3</ele>
        <time>2022-09-25T10:46:09Z</time>
      </trkpt>
      <trkpt lat="45.67449" lon="5.47898">
        <ele>209.2</ele>
        <time>2022-09-25T10:46:10Z</time>
      </trkpt>
      <trkpt lat="45.67447" lon="5.47903">
        <ele>209.2</ele>
        <time>2022-09-25T10:46:11Z</time>
      </trkpt>
      <trkpt lat="45.67445" lon="5.4791">
        <ele>209.2</ele>
        <time>2022-09-25T10:46:12Z</time>
      </trkpt>
      <trkpt lat="45.67444" lon="5.47916">
        <ele>209.2</ele>
        <time>2022-09-25T10:46:13Z</time>
      </trkpt>
      <trkpt lat="45.67442" lon="5.47922">
        <ele>209.2</ele>
        <time>2022-09-25T10:46:14Z</time>
      </trkpt>
      <trkpt lat="45.67439" lon="5.47929">
        <ele>209.2</ele>
        <time>2022-09-25T10:46:15Z</time>
      </trkpt>
      <trkpt lat="45.67438" lon="5.47936">
        <ele>209.2</ele>
        <time>2022-09-25T10:46:16Z</time>
      </trkpt>
      <trkpt lat="45.67435" lon="5.47942">
        <ele>209.2</ele>
        <time>2022-09-25T10:46:17Z</time>
      </trkpt>
      <trkpt lat="45.67433" lon="5.47949">
        <ele>209.2</ele>
        <time>2022-09-25T10:46:18Z</time>
      </trkpt>
      <trkpt lat="45.67431" lon="5.47956">
        <ele>209.2</ele>
        <time>2022-09-25T10:46:19Z</time>
      </trkpt>
      <trkpt lat="45.67429" lon="5.47963">
        <ele>209.2</ele>
        <time>2022-09-25T10:46:20Z</time>
      </trkpt>
      <trkpt lat="45.67426" lon="5.4797">
        <ele>209.2</ele>
        <time>2022-09-25T10:46:21Z</time>
      </trkpt>
      <trkpt lat="45.67424" lon="5.47977">
        <ele>209.2</ele>
        <time>2022-09-25T10:46:22Z</time>
      </trkpt>
      <trkpt lat="45.67422" lon="5.47984">
        <ele>209.2</ele>
        <time>2022-09-25T10:46:23Z</time>
      </trkpt>
      <trkpt lat="45.6742" lon="5.47992">
        <ele>209.1</ele>
        <time>2022-09-25T10:46:24Z</time>
      </trkpt>
      <trkpt lat="45.67418" lon="5.47999">
        <ele>209.1</ele>
        <time>2022-09-25T10:46:25Z</time>
      </trkpt>
      <trkpt lat="45.67416" lon="5.48007">
        <ele>209.1</ele>
        <time>2022-09-25T10:46:26Z</time>
      </trkpt>
      <trkpt lat="45.67414" lon="5.48014">
        <ele>209.1</ele>
        <time>2022-09-25T10:46:27Z</time>
      </trkpt>
      <trkpt lat="45.67412" lon="5.48021">
        <ele>209.1</ele>
        <time>2022-09-25T10:46:28Z</time>
      </trkpt>
      <trkpt lat="45.6741" lon="5.48029">
        <ele>209.1</ele>
        <time>2022-09-25T10:46:29Z</time>
      </trkpt>
      <trkpt lat="45.67407" lon="5.48037">
        <ele>209.1</ele>
        <time>2022-09-25T10:46:30Z</time>
      </trkpt>
      <trkpt lat="45.67405" lon="5.48045">
        <ele>209.1</ele>
        <time>2022-09-25T10:46:31Z</time>
      </trkpt>
      <trkpt lat="45.67403" lon="5.48053">
        <ele>209.1</ele>
        <time>2022-09-25T10:46:32Z</time>
      </trkpt>
      <trkpt lat="45.67401" lon="5.48061">
        <ele>209.1</ele>
        <time>2022-09-25T10:46:33Z</time>
      </trkpt>
      <trkpt lat="45.67399" lon="5.48069">
        <ele>209.1</ele>
        <time>2022-09-25T10:46:34Z</time>
      </trkpt>
      <trkpt lat="45.67397" lon="5.48077">
        <ele>209.1</ele>
        <time>2022-09-25T10:46:35Z</time>
      </trkpt>
      <trkpt lat="45.67394" lon="5.48085">
        <ele>209.1</ele>
        <time>2022-09-25T10:46:36Z</time>
      </trkpt>
      <trkpt lat="45.67392" lon="5.48093">
        <ele>209.1</ele>
        <time>2022-09-25T10:46:37Z</time>
      </trkpt>
      <trkpt lat="45.6739" lon="5.481">
        <ele>209.1</ele>
        <time>2022-09-25T10:46:38Z</time>
      </trkpt>
      <trkpt lat="45.67388" lon="5.48108">
        <ele>209.1</ele>
        <time>2022-09-25T10:46:39Z</time>
      </trkpt>
      <trkpt lat="45.67385" lon="5.48117">
        <ele>209.1</ele>
        <time>2022-09-25T10:46:40Z</time>
      </trkpt>
      <trkpt lat="45.67383" lon="5.48125">
        <ele>209.1</ele>
        <time>2022-09-25T10:46:41Z</time>
      </trkpt>
      <trkpt lat="45.67381" lon="5.48133">
        <ele>209</ele>
        <time>2022-09-25T10:46:42Z</time>
      </trkpt>
      <trkpt lat="45.67379" lon="5.48141">
        <ele>209</ele>
        <time>2022-09-25T10:46:43Z</time>
      </trkpt>
      <trkpt lat="45.67371" lon="5.48147">
        <ele>209</ele>
        <time>2022-09-25T10:46:44Z</time>
      </trkpt>
      <trkpt lat="45.67368" lon="5.48155">
        <ele>209</ele>
        <time>2022-09-25T10:46:45Z</time>
      </trkpt>
      <trkpt lat="45.67365" lon="5.48162">
        <ele>209</ele>
        <time>2022-09-25T10:46:46Z</time>
      </trkpt>
      <trkpt lat="45.67363" lon="5.4817">
        <ele>209</ele>
        <time>2022-09-25T10:46:47Z</time>
      </trkpt>
      <trkpt lat="45.6736" lon="5.48177">
        <ele>209</ele>
        <time>2022-09-25T10:46:48Z</time>
      </trkpt>
      <trkpt lat="45.67358" lon="5.48185">
        <ele>209</ele>
        <time>2022-09-25T10:46:49Z</time>
      </trkpt>
      <trkpt lat="45.67356" lon="5.48192">
        <ele>209</ele>
        <time>2022-09-25T10:46:50Z</time>
      </trkpt>
      <trkpt lat="45.67354" lon="5.48199">
        <ele>209</ele>
        <time>2022-09-25T10:46:51Z</time>
      </trkpt>
      <trkpt lat="45.67352" lon="5.48206">
        <ele>209</ele>
        <time>2022-09-25T10:46:52Z</time>
      </trkpt>
      <trkpt lat="45.67349" lon="5.48212">
        <ele>209</ele>
        <time>2022-09-25T10:46:53Z</time>
      </trkpt>
      <trkpt lat="45.67348" lon="5.48219">
        <ele>209</ele>
        <time>2022-09-25T10:46:54Z</time>
      </trkpt>
      <trkpt lat="45.67346" lon="5.48224">
        <ele>209.1</ele>
        <time>2022-09-25T10:46:55Z</time>
      </trkpt>
      <trkpt lat="45.67345" lon="5.4823">
        <ele>209.1</ele>
        <time>2022-09-25T10:46:56Z</time>
      </trkpt>
      <trkpt lat="45.67343" lon="5.48234">
        <ele>209.1</ele>
        <time>2022-09-25T10:46:57Z</time>
      </trkpt>
      <trkpt lat="45.67342" lon="5.48238">
        <ele>209.1</ele>
        <time>2022-09-25T10:46:58Z</time>
      </trkpt>
      <trkpt lat="45.67341" lon="5.48242">
        <ele>209.1</ele>
        <time>2022-09-25T10:46:59Z</time>
      </trkpt>
      <trkpt lat="45.6734" lon="5.48243">
        <ele>209.1</ele>
        <time>2022-09-25T10:47:00Z</time>
      </trkpt>
      <trkpt lat="45.67339" lon="5.48245">
        <ele>209.1</ele>
        <time>2022-09-25T10:47:01Z</time>
      </trkpt>
      <trkpt lat="45.67337" lon="5.48246">
        <ele>209.1</ele>
        <time>2022-09-25T10:47:02Z</time>
      </trkpt>
      <trkpt lat="45.67334" lon="5.48248">
        <ele>209.1</ele>
        <time>2022-09-25T10:47:03Z</time>
      </trkpt>
      <trkpt lat="45.67333" lon="5.48248">
        <ele>209.1</ele>
        <time>2022-09-25T10:47:04Z</time>
      </trkpt>
      <trkpt lat="45.67331" lon="5.48249">
        <ele>209.1</ele>
        <time>2022-09-25T10:47:05Z</time>
      </trkpt>
      <trkpt lat="45.6733" lon="5.48251">
        <ele>209.1</ele>
        <time>2022-09-25T10:47:06Z</time>
      </trkpt>
      <trkpt lat="45.67329" lon="5.48253">
        <ele>209.1</ele>
        <time>2022-09-25T10:47:07Z</time>
      </trkpt>
      <trkpt lat="45.67329" lon="5.48254">
        <ele>209.1</ele>
        <time>2022-09-25T10:47:08Z</time>
      </trkpt>
      <trkpt lat="45.67329" lon="5.48254">
        <ele>209.1</ele>
        <time>2022-09-25T10:47:09Z</time>
      </trkpt>
      <trkpt lat="45.67329" lon="5.48255">
        <ele>209.1</ele>
        <time>2022-09-25T10:47:10Z</time>
      </trkpt>
      <trkpt lat="45.67329" lon="5.48255">
        <ele>209.1</ele>
        <time>2022-09-25T10:47:11Z</time>
      </trkpt>
      <trkpt lat="45.67328" lon="5.48256">
        <ele>209.1</ele>
        <time>2022-09-25T10:47:12Z</time>
      </trkpt>
      <trkpt lat="45.67328" lon="5.48256">
        <ele>209.1</ele>
        <time>2022-09-25T10:47:13Z</time>
      </trkpt>
      <trkpt lat="45.67328" lon="5.48257">
        <ele>209.1</ele>
        <time>2022-09-25T10:47:14Z</time>
      </trkpt>
      <trkpt lat="45.67327" lon="5.48262">
        <ele>209.1</ele>
        <time>2022-09-25T10:47:15Z</time>
      </trkpt>
      <trkpt lat="45.67328" lon="5.48263">
        <ele>209.1</ele>
        <time>2022-09-25T10:47:16Z</time>
      </trkpt>
      <trkpt lat="45.67329" lon="5.48268">
        <ele>209.1</ele>
        <time>2022-09-25T10:47:17Z</time>
      </trkpt>
      <trkpt lat="45.6733" lon="5.48272">
        <ele>209</ele>
        <time>2022-09-25T10:47:18Z</time>
      </trkpt>
      <trkpt lat="45.67332" lon="5.48276">
        <ele>209</ele>
        <time>2022-09-25T10:47:19Z</time>
      </trkpt>
      <trkpt lat="45.67333" lon="5.48281">
        <ele>209</ele>
        <time>2022-09-25T10:47:20Z</time>
      </trkpt>
      <trkpt lat="45.67335" lon="5.48286">
        <ele>208.9</ele>
        <time>2022-09-25T10:47:21Z</time>
      </trkpt>
      <trkpt lat="45.67337" lon="5.48292">
        <ele>208.9</ele>
        <time>2022-09-25T10:47:22Z</time>
      </trkpt>
      <trkpt lat="45.6734" lon="5.48298">
        <ele>208.9</ele>
        <time>2022-09-25T10:47:23Z</time>
      </trkpt>
      <trkpt lat="45.67343" lon="5.48303">
        <ele>208.9</ele>
        <time>2022-09-25T10:47:24Z</time>
      </trkpt>
      <trkpt lat="45.67346" lon="5.4831">
        <ele>208.9</ele>
        <time>2022-09-25T10:47:25Z</time>
      </trkpt>
      <trkpt lat="45.67348" lon="5.48315">
        <ele>208.9</ele>
        <time>2022-09-25T10:47:26Z</time>
      </trkpt>
      <trkpt lat="45.67351" lon="5.48321">
        <ele>208.9</ele>
        <time>2022-09-25T10:47:27Z</time>
      </trkpt>
      <trkpt lat="45.67353" lon="5.48327">
        <ele>208.9</ele>
        <time>2022-09-25T10:47:28Z</time>
      </trkpt>
      <trkpt lat="45.67356" lon="5.48333">
        <ele>208.9</ele>
        <time>2022-09-25T10:47:29Z</time>
      </trkpt>
      <trkpt lat="45.67359" lon="5.48339">
        <ele>208.9</ele>
        <time>2022-09-25T10:47:30Z</time>
      </trkpt>
      <trkpt lat="45.67361" lon="5.48346">
        <ele>208.9</ele>
        <time>2022-09-25T10:47:31Z</time>
      </trkpt>
      <trkpt lat="45.67364" lon="5.48352">
        <ele>208.9</ele>
        <time>2022-09-25T10:47:32Z</time>
      </trkpt>
      <trkpt lat="45.67367" lon="5.48357">
        <ele>208.9</ele>
        <time>2022-09-25T10:47:33Z</time>
      </trkpt>
      <trkpt lat="45.67369" lon="5.48364">
        <ele>208.9</ele>
        <time>2022-09-25T10:47:34Z</time>
      </trkpt>
      <trkpt lat="45.67372" lon="5.4837">
        <ele>208.9</ele>
        <time>2022-09-25T10:47:35Z</time>
      </trkpt>
      <trkpt lat="45.67375" lon="5.48376">
        <ele>208.9</ele>
        <time>2022-09-25T10:47:36Z</time>
      </trkpt>
      <trkpt lat="45.67377" lon="5.48382">
        <ele>208.9</ele>
        <time>2022-09-25T10:47:37Z</time>
      </trkpt>
      <trkpt lat="45.67381" lon="5.48389">
        <ele>208.9</ele>
        <time>2022-09-25T10:47:38Z</time>
      </trkpt>
      <trkpt lat="45.67384" lon="5.48396">
        <ele>208.9</ele>
        <time>2022-09-25T10:47:39Z</time>
      </trkpt>
      <trkpt lat="45.67387" lon="5.48403">
        <ele>208.9</ele>
        <time>2022-09-25T10:47:40Z</time>
      </trkpt>
      <trkpt lat="45.6739" lon="5.4841">
        <ele>208.9</ele>
        <time>2022-09-25T10:47:41Z</time>
      </trkpt>
      <trkpt lat="45.67393" lon="5.48416">
        <ele>208.9</ele>
        <time>2022-09-25T10:47:42Z</time>
      </trkpt>
      <trkpt lat="45.67396" lon="5.48423">
        <ele>208.9</ele>
        <time>2022-09-25T10:47:43Z</time>
      </trkpt>
      <trkpt lat="45.67399" lon="5.4843">
        <ele>208.8</ele>
        <time>2022-09-25T10:47:44Z</time>
      </trkpt>
      <trkpt lat="45.67402" lon="5.48436">
        <ele>208.8</ele>
        <time>2022-09-25T10:47:45Z</time>
      </trkpt>
      <trkpt lat="45.67405" lon="5.48443">
        <ele>208.8</ele>
        <time>2022-09-25T10:47:46Z</time>
      </trkpt>
      <trkpt lat="45.67409" lon="5.4845">
        <ele>208.8</ele>
        <time>2022-09-25T10:47:47Z</time>
      </trkpt>
      <trkpt lat="45.67412" lon="5.48457">
        <ele>208.8</ele>
        <time>2022-09-25T10:47:48Z</time>
      </trkpt>
      <trkpt lat="45.67415" lon="5.48464">
        <ele>208.8</ele>
        <time>2022-09-25T10:47:49Z</time>
      </trkpt>
      <trkpt lat="45.67418" lon="5.48471">
        <ele>208.8</ele>
        <time>2022-09-25T10:47:50Z</time>
      </trkpt>
      <trkpt lat="45.67421" lon="5.48478">
        <ele>208.8</ele>
        <time>2022-09-25T10:47:51Z</time>
      </trkpt>
      <trkpt lat="45.67424" lon="5.48485">
        <ele>208.8</ele>
        <time>2022-09-25T10:47:52Z</time>
      </trkpt>
      <trkpt lat="45.67427" lon="5.48492">
        <ele>208.8</ele>
        <time>2022-09-25T10:47:53Z</time>
      </trkpt>
      <trkpt lat="45.6743" lon="5.48499">
        <ele>208.7</ele>
        <time>2022-09-25T10:47:54Z</time>
      </trkpt>
      <trkpt lat="45.67433" lon="5.48505">
        <ele>208.7</ele>
        <time>2022-09-25T10:47:55Z</time>
      </trkpt>
      <trkpt lat="45.67437" lon="5.48512">
        <ele>208.7</ele>
        <time>2022-09-25T10:47:56Z</time>
      </trkpt>
      <trkpt lat="45.6744" lon="5.48519">
        <ele>208.7</ele>
        <time>2022-09-25T10:47:57Z</time>
      </trkpt>
      <trkpt lat="45.67443" lon="5.48526">
        <ele>208.7</ele>
        <time>2022-09-25T10:47:58Z</time>
      </trkpt>
      <trkpt lat="45.67446" lon="5.48533">
        <ele>208.7</ele>
        <time>2022-09-25T10:47:59Z</time>
      </trkpt>
      <trkpt lat="45.67449" lon="5.4854">
        <ele>208.7</ele>
        <time>2022-09-25T10:48:00Z</time>
      </trkpt>
      <trkpt lat="45.67452" lon="5.48547">
        <ele>208.7</ele>
        <time>2022-09-25T10:48:01Z</time>
      </trkpt>
      <trkpt lat="45.67455" lon="5.48554">
        <ele>208.7</ele>
        <time>2022-09-25T10:48:02Z</time>
      </trkpt>
      <trkpt lat="45.67458" lon="5.4856">
        <ele>208.7</ele>
        <time>2022-09-25T10:48:03Z</time>
      </trkpt>
      <trkpt lat="45.67461" lon="5.48567">
        <ele>208.7</ele>
        <time>2022-09-25T10:48:04Z</time>
      </trkpt>
      <trkpt lat="45.67465" lon="5.48574">
        <ele>208.7</ele>
        <time>2022-09-25T10:48:05Z</time>
      </trkpt>
      <trkpt lat="45.67468" lon="5.48581">
        <ele>208.7</ele>
        <time>2022-09-25T10:48:06Z</time>
      </trkpt>
      <trkpt lat="45.67471" lon="5.48587">
        <ele>208.7</ele>
        <time>2022-09-25T10:48:07Z</time>
      </trkpt>
      <trkpt lat="45.67474" lon="5.48594">
        <ele>208.6</ele>
        <time>2022-09-25T10:48:08Z</time>
      </trkpt>
      <trkpt lat="45.67477" lon="5.48601">
        <ele>208.6</ele>
        <time>2022-09-25T10:48:09Z</time>
      </trkpt>
      <trkpt lat="45.6748" lon="5.48608">
        <ele>208.6</ele>
        <time>2022-09-25T10:48:10Z</time>
      </trkpt>
      <trkpt lat="45.67483" lon="5.48616">
        <ele>208.6</ele>
        <time>2022-09-25T10:48:11Z</time>
      </trkpt>
      <trkpt lat="45.67486" lon="5.48623">
        <ele>208.6</ele>
        <time>2022-09-25T10:48:12Z</time>
      </trkpt>
      <trkpt lat="45.6749" lon="5.4863">
        <ele>208.6</ele>
        <time>2022-09-25T10:48:13Z</time>
      </trkpt>
      <trkpt lat="45.67493" lon="5.48637">
        <ele>208.7</ele>
        <time>2022-09-25T10:48:14Z</time>
      </trkpt>
      <trkpt lat="45.67496" lon="5.48644">
        <ele>208.7</ele>
        <time>2022-09-25T10:48:15Z</time>
      </trkpt>
      <trkpt lat="45.67499" lon="5.48652">
        <ele>208.7</ele>
        <time>2022-09-25T10:48:16Z</time>
      </trkpt>
      <trkpt lat="45.67503" lon="5.48659">
        <ele>208.7</ele>
        <time>2022-09-25T10:48:17Z</time>
      </trkpt>
      <trkpt lat="45.67506" lon="5.48667">
        <ele>208.7</ele>
        <time>2022-09-25T10:48:18Z</time>
      </trkpt>
      <trkpt lat="45.6751" lon="5.48675">
        <ele>208.7</ele>
        <time>2022-09-25T10:48:19Z</time>
      </trkpt>
      <trkpt lat="45.67513" lon="5.48682">
        <ele>208.7</ele>
        <time>2022-09-25T10:48:20Z</time>
      </trkpt>
      <trkpt lat="45.67516" lon="5.48691">
        <ele>208.7</ele>
        <time>2022-09-25T10:48:21Z</time>
      </trkpt>
      <trkpt lat="45.67519" lon="5.48698">
        <ele>208.7</ele>
        <time>2022-09-25T10:48:22Z</time>
      </trkpt>
      <trkpt lat="45.67523" lon="5.48705">
        <ele>208.7</ele>
        <time>2022-09-25T10:48:23Z</time>
      </trkpt>
      <trkpt lat="45.67526" lon="5.48713">
        <ele>208.7</ele>
        <time>2022-09-25T10:48:24Z</time>
      </trkpt>
      <trkpt lat="45.67529" lon="5.48719">
        <ele>208.7</ele>
        <time>2022-09-25T10:48:25Z</time>
      </trkpt>
      <trkpt lat="45.67532" lon="5.48726">
        <ele>208.7</ele>
        <time>2022-09-25T10:48:26Z</time>
      </trkpt>
      <trkpt lat="45.67535" lon="5.48734">
        <ele>208.8</ele>
        <time>2022-09-25T10:48:27Z</time>
      </trkpt>
      <trkpt lat="45.67539" lon="5.48741">
        <ele>208.8</ele>
        <time>2022-09-25T10:48:28Z</time>
      </trkpt>
      <trkpt lat="45.67542" lon="5.48748">
        <ele>208.8</ele>
        <time>2022-09-25T10:48:29Z</time>
      </trkpt>
      <trkpt lat="45.67545" lon="5.48755">
        <ele>208.8</ele>
        <time>2022-09-25T10:48:30Z</time>
      </trkpt>
      <trkpt lat="45.67548" lon="5.48762">
        <ele>208.8</ele>
        <time>2022-09-25T10:48:31Z</time>
      </trkpt>
      <trkpt lat="45.67551" lon="5.4877">
        <ele>208.8</ele>
        <time>2022-09-25T10:48:32Z</time>
      </trkpt>
      <trkpt lat="45.67554" lon="5.48777">
        <ele>208.8</ele>
        <time>2022-09-25T10:48:33Z</time>
      </trkpt>
      <trkpt lat="45.67558" lon="5.48783">
        <ele>208.8</ele>
        <time>2022-09-25T10:48:34Z</time>
      </trkpt>
      <trkpt lat="45.67561" lon="5.4879">
        <ele>208.8</ele>
        <time>2022-09-25T10:48:35Z</time>
      </trkpt>
      <trkpt lat="45.67564" lon="5.48796">
        <ele>208.8</ele>
        <time>2022-09-25T10:48:36Z</time>
      </trkpt>
      <trkpt lat="45.67567" lon="5.48803">
        <ele>208.8</ele>
        <time>2022-09-25T10:48:37Z</time>
      </trkpt>
      <trkpt lat="45.6757" lon="5.4881">
        <ele>208.8</ele>
        <time>2022-09-25T10:48:38Z</time>
      </trkpt>
      <trkpt lat="45.67573" lon="5.48816">
        <ele>208.8</ele>
        <time>2022-09-25T10:48:39Z</time>
      </trkpt>
      <trkpt lat="45.67576" lon="5.48824">
        <ele>208.8</ele>
        <time>2022-09-25T10:48:40Z</time>
      </trkpt>
      <trkpt lat="45.6758" lon="5.48831">
        <ele>208.8</ele>
        <time>2022-09-25T10:48:41Z</time>
      </trkpt>
      <trkpt lat="45.67583" lon="5.48838">
        <ele>208.8</ele>
        <time>2022-09-25T10:48:42Z</time>
      </trkpt>
      <trkpt lat="45.67586" lon="5.48845">
        <ele>208.8</ele>
        <time>2022-09-25T10:48:43Z</time>
      </trkpt>
      <trkpt lat="45.67589" lon="5.48852">
        <ele>208.8</ele>
        <time>2022-09-25T10:48:44Z</time>
      </trkpt>
      <trkpt lat="45.67592" lon="5.48859">
        <ele>208.8</ele>
        <time>2022-09-25T10:48:45Z</time>
      </trkpt>
      <trkpt lat="45.67595" lon="5.48866">
        <ele>208.8</ele>
        <time>2022-09-25T10:48:46Z</time>
      </trkpt>
      <trkpt lat="45.67599" lon="5.48874">
        <ele>208.8</ele>
        <time>2022-09-25T10:48:47Z</time>
      </trkpt>
      <trkpt lat="45.67602" lon="5.48881">
        <ele>208.8</ele>
        <time>2022-09-25T10:48:48Z</time>
      </trkpt>
      <trkpt lat="45.67605" lon="5.48887">
        <ele>208.8</ele>
        <time>2022-09-25T10:48:49Z</time>
      </trkpt>
      <trkpt lat="45.67608" lon="5.48894">
        <ele>208.8</ele>
        <time>2022-09-25T10:48:50Z</time>
      </trkpt>
      <trkpt lat="45.67611" lon="5.48901">
        <ele>208.8</ele>
        <time>2022-09-25T10:48:51Z</time>
      </trkpt>
      <trkpt lat="45.67614" lon="5.48909">
        <ele>208.9</ele>
        <time>2022-09-25T10:48:52Z</time>
      </trkpt>
      <trkpt lat="45.67618" lon="5.48916">
        <ele>208.9</ele>
        <time>2022-09-25T10:48:53Z</time>
      </trkpt>
      <trkpt lat="45.67621" lon="5.48923">
        <ele>208.9</ele>
        <time>2022-09-25T10:48:54Z</time>
      </trkpt>
      <trkpt lat="45.67624" lon="5.4893">
        <ele>208.9</ele>
        <time>2022-09-25T10:48:55Z</time>
      </trkpt>
      <trkpt lat="45.67628" lon="5.48937">
        <ele>208.9</ele>
        <time>2022-09-25T10:48:56Z</time>
      </trkpt>
      <trkpt lat="45.67631" lon="5.48944">
        <ele>208.9</ele>
        <time>2022-09-25T10:48:57Z</time>
      </trkpt>
      <trkpt lat="45.67634" lon="5.48951">
        <ele>208.9</ele>
        <time>2022-09-25T10:48:58Z</time>
      </trkpt>
      <trkpt lat="45.67636" lon="5.48959">
        <ele>208.9</ele>
        <time>2022-09-25T10:48:59Z</time>
      </trkpt>
      <trkpt lat="45.6764" lon="5.48967">
        <ele>208.9</ele>
        <time>2022-09-25T10:49:00Z</time>
      </trkpt>
      <trkpt lat="45.67643" lon="5.48973">
        <ele>208.9</ele>
        <time>2022-09-25T10:49:01Z</time>
      </trkpt>
      <trkpt lat="45.67645" lon="5.4898">
        <ele>208.9</ele>
        <time>2022-09-25T10:49:02Z</time>
      </trkpt>
      <trkpt lat="45.67648" lon="5.48986">
        <ele>208.9</ele>
        <time>2022-09-25T10:49:03Z</time>
      </trkpt>
      <trkpt lat="45.67651" lon="5.48992">
        <ele>208.9</ele>
        <time>2022-09-25T10:49:04Z</time>
      </trkpt>
      <trkpt lat="45.67654" lon="5.48999">
        <ele>208.9</ele>
        <time>2022-09-25T10:49:05Z</time>
      </trkpt>
      <trkpt lat="45.67656" lon="5.49004">
        <ele>208.9</ele>
        <time>2022-09-25T10:49:06Z</time>
      </trkpt>
      <trkpt lat="45.67658" lon="5.4901">
        <ele>208.9</ele>
        <time>2022-09-25T10:49:07Z</time>
      </trkpt>
      <trkpt lat="45.67661" lon="5.49015">
        <ele>208.9</ele>
        <time>2022-09-25T10:49:08Z</time>
      </trkpt>
      <trkpt lat="45.67663" lon="5.49023">
        <ele>208.9</ele>
        <time>2022-09-25T10:49:09Z</time>
      </trkpt>
      <trkpt lat="45.67666" lon="5.49028">
        <ele>208.8</ele>
        <time>2022-09-25T10:49:10Z</time>
      </trkpt>
      <trkpt lat="45.67669" lon="5.49036">
        <ele>208.8</ele>
        <time>2022-09-25T10:49:11Z</time>
      </trkpt>
      <trkpt lat="45.67672" lon="5.49042">
        <ele>208.9</ele>
        <time>2022-09-25T10:49:12Z</time>
      </trkpt>
      <trkpt lat="45.67674" lon="5.49048">
        <ele>208.9</ele>
        <time>2022-09-25T10:49:13Z</time>
      </trkpt>
      <trkpt lat="45.67678" lon="5.49055">
        <ele>208.9</ele>
        <time>2022-09-25T10:49:14Z</time>
      </trkpt>
      <trkpt lat="45.67681" lon="5.49063">
        <ele>208.8</ele>
        <time>2022-09-25T10:49:15Z</time>
      </trkpt>
      <trkpt lat="45.67685" lon="5.4907">
        <ele>208.8</ele>
        <time>2022-09-25T10:49:16Z</time>
      </trkpt>
      <trkpt lat="45.67688" lon="5.49077">
        <ele>208.8</ele>
        <time>2022-09-25T10:49:17Z</time>
      </trkpt>
      <trkpt lat="45.67691" lon="5.49083">
        <ele>208.8</ele>
        <time>2022-09-25T10:49:18Z</time>
      </trkpt>
      <trkpt lat="45.67693" lon="5.4909">
        <ele>208.8</ele>
        <time>2022-09-25T10:49:19Z</time>
      </trkpt>
      <trkpt lat="45.67696" lon="5.49096">
        <ele>208.8</ele>
        <time>2022-09-25T10:49:20Z</time>
      </trkpt>
      <trkpt lat="45.67699" lon="5.49102">
        <ele>208.7</ele>
        <time>2022-09-25T10:49:21Z</time>
      </trkpt>
      <trkpt lat="45.67702" lon="5.49109">
        <ele>208.7</ele>
        <time>2022-09-25T10:49:22Z</time>
      </trkpt>
      <trkpt lat="45.67705" lon="5.49116">
        <ele>208.7</ele>
        <time>2022-09-25T10:49:23Z</time>
      </trkpt>
      <trkpt lat="45.67709" lon="5.49123">
        <ele>208.7</ele>
        <time>2022-09-25T10:49:24Z</time>
      </trkpt>
      <trkpt lat="45.67712" lon="5.4913">
        <ele>208.7</ele>
        <time>2022-09-25T10:49:25Z</time>
      </trkpt>
      <trkpt lat="45.67716" lon="5.49137">
        <ele>208.7</ele>
        <time>2022-09-25T10:49:26Z</time>
      </trkpt>
      <trkpt lat="45.6772" lon="5.49144">
        <ele>208.7</ele>
        <time>2022-09-25T10:49:27Z</time>
      </trkpt>
      <trkpt lat="45.67723" lon="5.49152">
        <ele>208.7</ele>
        <time>2022-09-25T10:49:28Z</time>
      </trkpt>
      <trkpt lat="45.67727" lon="5.4916">
        <ele>208.7</ele>
        <time>2022-09-25T10:49:29Z</time>
      </trkpt>
      <trkpt lat="45.67731" lon="5.49168">
        <ele>208.7</ele>
        <time>2022-09-25T10:49:30Z</time>
      </trkpt>
      <trkpt lat="45.67732" lon="5.49178">
        <ele>208.7</ele>
        <time>2022-09-25T10:49:31Z</time>
      </trkpt>
      <trkpt lat="45.67735" lon="5.49184">
        <ele>208.7</ele>
        <time>2022-09-25T10:49:32Z</time>
      </trkpt>
      <trkpt lat="45.67738" lon="5.49191">
        <ele>208.7</ele>
        <time>2022-09-25T10:49:33Z</time>
      </trkpt>
      <trkpt lat="45.67742" lon="5.49198">
        <ele>208.7</ele>
        <time>2022-09-25T10:49:34Z</time>
      </trkpt>
      <trkpt lat="45.67745" lon="5.49205">
        <ele>208.8</ele>
        <time>2022-09-25T10:49:35Z</time>
      </trkpt>
      <trkpt lat="45.67748" lon="5.49212">
        <ele>208.8</ele>
        <time>2022-09-25T10:49:36Z</time>
      </trkpt>
      <trkpt lat="45.67751" lon="5.49219">
        <ele>208.8</ele>
        <time>2022-09-25T10:49:37Z</time>
      </trkpt>
      <trkpt lat="45.67753" lon="5.49224">
        <ele>208.8</ele>
        <time>2022-09-25T10:49:38Z</time>
      </trkpt>
      <trkpt lat="45.67757" lon="5.49231">
        <ele>208.8</ele>
        <time>2022-09-25T10:49:39Z</time>
      </trkpt>
      <trkpt lat="45.6776" lon="5.49238">
        <ele>208.9</ele>
        <time>2022-09-25T10:49:40Z</time>
      </trkpt>
      <trkpt lat="45.67763" lon="5.49244">
        <ele>208.9</ele>
        <time>2022-09-25T10:49:41Z</time>
      </trkpt>
      <trkpt lat="45.67765" lon="5.49251">
        <ele>208.9</ele>
        <time>2022-09-25T10:49:42Z</time>
      </trkpt>
      <trkpt lat="45.67768" lon="5.49257">
        <ele>208.9</ele>
        <time>2022-09-25T10:49:43Z</time>
      </trkpt>
      <trkpt lat="45.67771" lon="5.49263">
        <ele>208.9</ele>
        <time>2022-09-25T10:49:44Z</time>
      </trkpt>
      <trkpt lat="45.67774" lon="5.4927">
        <ele>208.8</ele>
        <time>2022-09-25T10:49:45Z</time>
      </trkpt>
      <trkpt lat="45.67778" lon="5.49278">
        <ele>208.8</ele>
        <time>2022-09-25T10:49:46Z</time>
      </trkpt>
      <trkpt lat="45.67781" lon="5.49285">
        <ele>208.8</ele>
        <time>2022-09-25T10:49:47Z</time>
      </trkpt>
      <trkpt lat="45.67784" lon="5.49291">
        <ele>208.8</ele>
        <time>2022-09-25T10:49:48Z</time>
      </trkpt>
      <trkpt lat="45.67787" lon="5.49298">
        <ele>208.8</ele>
        <time>2022-09-25T10:49:49Z</time>
      </trkpt>
      <trkpt lat="45.6779" lon="5.49305">
        <ele>208.8</ele>
        <time>2022-09-25T10:49:50Z</time>
      </trkpt>
      <trkpt lat="45.67793" lon="5.49312">
        <ele>208.8</ele>
        <time>2022-09-25T10:49:51Z</time>
      </trkpt>
      <trkpt lat="45.67796" lon="5.49318">
        <ele>208.8</ele>
        <time>2022-09-25T10:49:52Z</time>
      </trkpt>
      <trkpt lat="45.67799" lon="5.49324">
        <ele>208.8</ele>
        <time>2022-09-25T10:49:53Z</time>
      </trkpt>
      <trkpt lat="45.67802" lon="5.4933">
        <ele>208.8</ele>
        <time>2022-09-25T10:49:54Z</time>
      </trkpt>
      <trkpt lat="45.67805" lon="5.49338">
        <ele>208.8</ele>
        <time>2022-09-25T10:49:55Z</time>
      </trkpt>
      <trkpt lat="45.67808" lon="5.49344">
        <ele>208.8</ele>
        <time>2022-09-25T10:49:56Z</time>
      </trkpt>
      <trkpt lat="45.67811" lon="5.49351">
        <ele>208.8</ele>
        <time>2022-09-25T10:49:57Z</time>
      </trkpt>
      <trkpt lat="45.67814" lon="5.49359">
        <ele>208.8</ele>
        <time>2022-09-25T10:49:58Z</time>
      </trkpt>
      <trkpt lat="45.67817" lon="5.49366">
        <ele>208.7</ele>
        <time>2022-09-25T10:49:59Z</time>
      </trkpt>
      <trkpt lat="45.6782" lon="5.49373">
        <ele>208.7</ele>
        <time>2022-09-25T10:50:00Z</time>
      </trkpt>
      <trkpt lat="45.67824" lon="5.49381">
        <ele>208.7</ele>
        <time>2022-09-25T10:50:01Z</time>
      </trkpt>
      <trkpt lat="45.67827" lon="5.49389">
        <ele>208.7</ele>
        <time>2022-09-25T10:50:02Z</time>
      </trkpt>
      <trkpt lat="45.6783" lon="5.49396">
        <ele>208.7</ele>
        <time>2022-09-25T10:50:03Z</time>
      </trkpt>
      <trkpt lat="45.67834" lon="5.49403">
        <ele>208.7</ele>
        <time>2022-09-25T10:50:04Z</time>
      </trkpt>
      <trkpt lat="45.67837" lon="5.49411">
        <ele>208.7</ele>
        <time>2022-09-25T10:50:05Z</time>
      </trkpt>
      <trkpt lat="45.6784" lon="5.49418">
        <ele>208.7</ele>
        <time>2022-09-25T10:50:06Z</time>
      </trkpt>
      <trkpt lat="45.67843" lon="5.49425">
        <ele>208.7</ele>
        <time>2022-09-25T10:50:07Z</time>
      </trkpt>
      <trkpt lat="45.67846" lon="5.49432">
        <ele>208.7</ele>
        <time>2022-09-25T10:50:08Z</time>
      </trkpt>
      <trkpt lat="45.67849" lon="5.49439">
        <ele>208.7</ele>
        <time>2022-09-25T10:50:09Z</time>
      </trkpt>
      <trkpt lat="45.67852" lon="5.49445">
        <ele>208.7</ele>
        <time>2022-09-25T10:50:10Z</time>
      </trkpt>
      <trkpt lat="45.67855" lon="5.49452">
        <ele>208.7</ele>
        <time>2022-09-25T10:50:11Z</time>
      </trkpt>
      <trkpt lat="45.67858" lon="5.49458">
        <ele>208.7</ele>
        <time>2022-09-25T10:50:12Z</time>
      </trkpt>
      <trkpt lat="45.67861" lon="5.49465">
        <ele>208.7</ele>
        <time>2022-09-25T10:50:13Z</time>
      </trkpt>
      <trkpt lat="45.67865" lon="5.49472">
        <ele>208.7</ele>
        <time>2022-09-25T10:50:14Z</time>
      </trkpt>
      <trkpt lat="45.67868" lon="5.49479">
        <ele>208.7</ele>
        <time>2022-09-25T10:50:15Z</time>
      </trkpt>
      <trkpt lat="45.67871" lon="5.49486">
        <ele>208.6</ele>
        <time>2022-09-25T10:50:16Z</time>
      </trkpt>
      <trkpt lat="45.67874" lon="5.49493">
        <ele>208.6</ele>
        <time>2022-09-25T10:50:17Z</time>
      </trkpt>
      <trkpt lat="45.67877" lon="5.495">
        <ele>208.6</ele>
        <time>2022-09-25T10:50:18Z</time>
      </trkpt>
      <trkpt lat="45.67881" lon="5.49507">
        <ele>208.6</ele>
        <time>2022-09-25T10:50:19Z</time>
      </trkpt>
      <trkpt lat="45.67884" lon="5.49514">
        <ele>208.6</ele>
        <time>2022-09-25T10:50:20Z</time>
      </trkpt>
      <trkpt lat="45.67888" lon="5.4952">
        <ele>208.6</ele>
        <time>2022-09-25T10:50:21Z</time>
      </trkpt>
      <trkpt lat="45.67892" lon="5.49526">
        <ele>208.6</ele>
        <time>2022-09-25T10:50:22Z</time>
      </trkpt>
      <trkpt lat="45.67895" lon="5.49533">
        <ele>208.5</ele>
        <time>2022-09-25T10:50:23Z</time>
      </trkpt>
      <trkpt lat="45.67899" lon="5.49539">
        <ele>208.5</ele>
        <time>2022-09-25T10:50:24Z</time>
      </trkpt>
      <trkpt lat="45.67902" lon="5.49545">
        <ele>208.5</ele>
        <time>2022-09-25T10:50:25Z</time>
      </trkpt>
      <trkpt lat="45.67905" lon="5.49551">
        <ele>208.5</ele>
        <time>2022-09-25T10:50:26Z</time>
      </trkpt>
      <trkpt lat="45.67909" lon="5.49557">
        <ele>208.5</ele>
        <time>2022-09-25T10:50:27Z</time>
      </trkpt>
      <trkpt lat="45.67913" lon="5.49563">
        <ele>208.5</ele>
        <time>2022-09-25T10:50:28Z</time>
      </trkpt>
      <trkpt lat="45.67916" lon="5.4957">
        <ele>208.5</ele>
        <time>2022-09-25T10:50:29Z</time>
      </trkpt>
      <trkpt lat="45.67921" lon="5.49578">
        <ele>208.5</ele>
        <time>2022-09-25T10:50:30Z</time>
      </trkpt>
      <trkpt lat="45.67924" lon="5.49584">
        <ele>208.4</ele>
        <time>2022-09-25T10:50:31Z</time>
      </trkpt>
      <trkpt lat="45.67929" lon="5.4959">
        <ele>208.4</ele>
        <time>2022-09-25T10:50:32Z</time>
      </trkpt>
      <trkpt lat="45.67933" lon="5.49597">
        <ele>208.4</ele>
        <time>2022-09-25T10:50:33Z</time>
      </trkpt>
      <trkpt lat="45.67938" lon="5.49603">
        <ele>208.4</ele>
        <time>2022-09-25T10:50:34Z</time>
      </trkpt>
      <trkpt lat="45.67943" lon="5.4961">
        <ele>208.4</ele>
        <time>2022-09-25T10:50:35Z</time>
      </trkpt>
      <trkpt lat="45.67947" lon="5.49617">
        <ele>208.3</ele>
        <time>2022-09-25T10:50:36Z</time>
      </trkpt>
      <trkpt lat="45.67951" lon="5.49624">
        <ele>208.3</ele>
        <time>2022-09-25T10:50:37Z</time>
      </trkpt>
      <trkpt lat="45.67954" lon="5.49629">
        <ele>208.3</ele>
        <time>2022-09-25T10:50:38Z</time>
      </trkpt>
      <trkpt lat="45.67958" lon="5.49633">
        <ele>208.3</ele>
        <time>2022-09-25T10:50:39Z</time>
      </trkpt>
      <trkpt lat="45.67962" lon="5.49636">
        <ele>208.3</ele>
        <time>2022-09-25T10:50:40Z</time>
      </trkpt>
      <trkpt lat="45.67967" lon="5.49639">
        <ele>208.3</ele>
        <time>2022-09-25T10:50:41Z</time>
      </trkpt>
      <trkpt lat="45.67972" lon="5.49641">
        <ele>208.3</ele>
        <time>2022-09-25T10:50:42Z</time>
      </trkpt>
      <trkpt lat="45.67976" lon="5.49642">
        <ele>208.3</ele>
        <time>2022-09-25T10:50:43Z</time>
      </trkpt>
      <trkpt lat="45.67981" lon="5.49643">
        <ele>208.3</ele>
        <time>2022-09-25T10:50:44Z</time>
      </trkpt>
      <trkpt lat="45.67985" lon="5.49645">
        <ele>208.3</ele>
        <time>2022-09-25T10:50:45Z</time>
      </trkpt>
      <trkpt lat="45.67988" lon="5.49647">
        <ele>208.3</ele>
        <time>2022-09-25T10:50:46Z</time>
      </trkpt>
      <trkpt lat="45.67992" lon="5.49648">
        <ele>208.3</ele>
        <time>2022-09-25T10:50:47Z</time>
      </trkpt>
      <trkpt lat="45.67996" lon="5.49649">
        <ele>208.3</ele>
        <time>2022-09-25T10:50:48Z</time>
      </trkpt>
      <trkpt lat="45.67999" lon="5.49651">
        <ele>208.3</ele>
        <time>2022-09-25T10:50:49Z</time>
      </trkpt>
      <trkpt lat="45.68001" lon="5.49653">
        <ele>208.3</ele>
        <time>2022-09-25T10:50:50Z</time>
      </trkpt>
      <trkpt lat="45.68002" lon="5.49653">
        <ele>208.3</ele>
        <time>2022-09-25T10:50:51Z</time>
      </trkpt>
      <trkpt lat="45.68006" lon="5.49656">
        <ele>208.3</ele>
        <time>2022-09-25T10:50:52Z</time>
      </trkpt>
      <trkpt lat="45.68007" lon="5.49657">
        <ele>208.2</ele>
        <time>2022-09-25T10:50:53Z</time>
      </trkpt>
      <trkpt lat="45.68013" lon="5.49662">
        <ele>208.1</ele>
        <time>2022-09-25T10:50:54Z</time>
      </trkpt>
      <trkpt lat="45.68017" lon="5.49666">
        <ele>208.1</ele>
        <time>2022-09-25T10:50:55Z</time>
      </trkpt>
      <trkpt lat="45.68021" lon="5.49672">
        <ele>208</ele>
        <time>2022-09-25T10:50:56Z</time>
      </trkpt>
      <trkpt lat="45.68024" lon="5.49677">
        <ele>208</ele>
        <time>2022-09-25T10:50:57Z</time>
      </trkpt>
      <trkpt lat="45.68028" lon="5.49682">
        <ele>208</ele>
        <time>2022-09-25T10:50:58Z</time>
      </trkpt>
      <trkpt lat="45.68032" lon="5.49687">
        <ele>208</ele>
        <time>2022-09-25T10:50:59Z</time>
      </trkpt>
      <trkpt lat="45.68035" lon="5.49692">
        <ele>207.9</ele>
        <time>2022-09-25T10:51:00Z</time>
      </trkpt>
      <trkpt lat="45.68039" lon="5.49697">
        <ele>207.9</ele>
        <time>2022-09-25T10:51:01Z</time>
      </trkpt>
      <trkpt lat="45.68043" lon="5.49702">
        <ele>207.9</ele>
        <time>2022-09-25T10:51:02Z</time>
      </trkpt>
      <trkpt lat="45.68047" lon="5.49706">
        <ele>207.9</ele>
        <time>2022-09-25T10:51:03Z</time>
      </trkpt>
      <trkpt lat="45.68051" lon="5.4971">
        <ele>207.9</ele>
        <time>2022-09-25T10:51:04Z</time>
      </trkpt>
      <trkpt lat="45.68054" lon="5.49714">
        <ele>207.9</ele>
        <time>2022-09-25T10:51:05Z</time>
      </trkpt>
      <trkpt lat="45.68059" lon="5.49718">
        <ele>207.9</ele>
        <time>2022-09-25T10:51:06Z</time>
      </trkpt>
      <trkpt lat="45.68063" lon="5.49722">
        <ele>207.9</ele>
        <time>2022-09-25T10:51:07Z</time>
      </trkpt>
      <trkpt lat="45.68067" lon="5.49726">
        <ele>207.9</ele>
        <time>2022-09-25T10:51:08Z</time>
      </trkpt>
      <trkpt lat="45.68071" lon="5.4973">
        <ele>207.9</ele>
        <time>2022-09-25T10:51:09Z</time>
      </trkpt>
      <trkpt lat="45.68076" lon="5.49735">
        <ele>207.9</ele>
        <time>2022-09-25T10:51:10Z</time>
      </trkpt>
      <trkpt lat="45.6808" lon="5.49739">
        <ele>207.9</ele>
        <time>2022-09-25T10:51:11Z</time>
      </trkpt>
      <trkpt lat="45.68085" lon="5.49744">
        <ele>207.9</ele>
        <time>2022-09-25T10:51:12Z</time>
      </trkpt>
      <trkpt lat="45.68089" lon="5.49748">
        <ele>207.9</ele>
        <time>2022-09-25T10:51:13Z</time>
      </trkpt>
      <trkpt lat="45.68093" lon="5.49753">
        <ele>208</ele>
        <time>2022-09-25T10:51:14Z</time>
      </trkpt>
      <trkpt lat="45.68098" lon="5.49757">
        <ele>208</ele>
        <time>2022-09-25T10:51:15Z</time>
      </trkpt>
      <trkpt lat="45.68102" lon="5.49761">
        <ele>208</ele>
        <time>2022-09-25T10:51:16Z</time>
      </trkpt>
      <trkpt lat="45.68107" lon="5.49766">
        <ele>208</ele>
        <time>2022-09-25T10:51:17Z</time>
      </trkpt>
      <trkpt lat="45.68112" lon="5.49771">
        <ele>207.9</ele>
        <time>2022-09-25T10:51:18Z</time>
      </trkpt>
      <trkpt lat="45.68116" lon="5.49775">
        <ele>207.9</ele>
        <time>2022-09-25T10:51:19Z</time>
      </trkpt>
      <trkpt lat="45.68121" lon="5.4978">
        <ele>207.9</ele>
        <time>2022-09-25T10:51:20Z</time>
      </trkpt>
      <trkpt lat="45.68126" lon="5.49785">
        <ele>207.9</ele>
        <time>2022-09-25T10:51:21Z</time>
      </trkpt>
      <trkpt lat="45.68131" lon="5.4979">
        <ele>207.9</ele>
        <time>2022-09-25T10:51:22Z</time>
      </trkpt>
      <trkpt lat="45.68135" lon="5.49795">
        <ele>207.9</ele>
        <time>2022-09-25T10:51:23Z</time>
      </trkpt>
      <trkpt lat="45.6814" lon="5.49799">
        <ele>207.9</ele>
        <time>2022-09-25T10:51:24Z</time>
      </trkpt>
      <trkpt lat="45.68145" lon="5.49804">
        <ele>207.9</ele>
        <time>2022-09-25T10:51:25Z</time>
      </trkpt>
      <trkpt lat="45.68149" lon="5.49809">
        <ele>207.9</ele>
        <time>2022-09-25T10:51:26Z</time>
      </trkpt>
      <trkpt lat="45.68154" lon="5.49814">
        <ele>207.9</ele>
        <time>2022-09-25T10:51:27Z</time>
      </trkpt>
      <trkpt lat="45.68158" lon="5.49818">
        <ele>207.9</ele>
        <time>2022-09-25T10:51:28Z</time>
      </trkpt>
      <trkpt lat="45.68163" lon="5.49823">
        <ele>207.9</ele>
        <time>2022-09-25T10:51:29Z</time>
      </trkpt>
      <trkpt lat="45.68167" lon="5.49827">
        <ele>207.9</ele>
        <time>2022-09-25T10:51:30Z</time>
      </trkpt>
      <trkpt lat="45.68172" lon="5.49832">
        <ele>207.8</ele>
        <time>2022-09-25T10:51:31Z</time>
      </trkpt>
      <trkpt lat="45.68177" lon="5.49837">
        <ele>207.7</ele>
        <time>2022-09-25T10:51:32Z</time>
      </trkpt>
      <trkpt lat="45.68181" lon="5.49841">
        <ele>207.7</ele>
        <time>2022-09-25T10:51:33Z</time>
      </trkpt>
      <trkpt lat="45.68186" lon="5.49844">
        <ele>207.6</ele>
        <time>2022-09-25T10:51:34Z</time>
      </trkpt>
      <trkpt lat="45.68191" lon="5.49848">
        <ele>207.5</ele>
        <time>2022-09-25T10:51:35Z</time>
      </trkpt>
      <trkpt lat="45.68196" lon="5.49852">
        <ele>207.5</ele>
        <time>2022-09-25T10:51:36Z</time>
      </trkpt>
      <trkpt lat="45.68201" lon="5.49855">
        <ele>207.4</ele>
        <time>2022-09-25T10:51:37Z</time>
      </trkpt>
      <trkpt lat="45.68207" lon="5.49858">
        <ele>207.4</ele>
        <time>2022-09-25T10:51:38Z</time>
      </trkpt>
      <trkpt lat="45.68213" lon="5.49862">
        <ele>207.3</ele>
        <time>2022-09-25T10:51:39Z</time>
      </trkpt>
      <trkpt lat="45.68218" lon="5.49865">
        <ele>207.3</ele>
        <time>2022-09-25T10:51:40Z</time>
      </trkpt>
      <trkpt lat="45.68224" lon="5.49869">
        <ele>207.2</ele>
        <time>2022-09-25T10:51:41Z</time>
      </trkpt>
      <trkpt lat="45.6823" lon="5.49873">
        <ele>207.2</ele>
        <time>2022-09-25T10:51:42Z</time>
      </trkpt>
      <trkpt lat="45.68235" lon="5.49877">
        <ele>207.2</ele>
        <time>2022-09-25T10:51:43Z</time>
      </trkpt>
      <trkpt lat="45.68241" lon="5.4988">
        <ele>207.2</ele>
        <time>2022-09-25T10:51:44Z</time>
      </trkpt>
      <trkpt lat="45.68247" lon="5.49885">
        <ele>207.3</ele>
        <time>2022-09-25T10:51:45Z</time>
      </trkpt>
      <trkpt lat="45.68252" lon="5.4989">
        <ele>207.3</ele>
        <time>2022-09-25T10:51:46Z</time>
      </trkpt>
      <trkpt lat="45.68257" lon="5.49895">
        <ele>207.3</ele>
        <time>2022-09-25T10:51:47Z</time>
      </trkpt>
      <trkpt lat="45.68261" lon="5.499">
        <ele>207.4</ele>
        <time>2022-09-25T10:51:48Z</time>
      </trkpt>
      <trkpt lat="45.68266" lon="5.49906">
        <ele>207.4</ele>
        <time>2022-09-25T10:51:49Z</time>
      </trkpt>
      <trkpt lat="45.6827" lon="5.49911">
        <ele>207.4</ele>
        <time>2022-09-25T10:51:50Z</time>
      </trkpt>
      <trkpt lat="45.68275" lon="5.49916">
        <ele>207.5</ele>
        <time>2022-09-25T10:51:51Z</time>
      </trkpt>
      <trkpt lat="45.68279" lon="5.49921">
        <ele>207.5</ele>
        <time>2022-09-25T10:51:52Z</time>
      </trkpt>
      <trkpt lat="45.68283" lon="5.49926">
        <ele>207.5</ele>
        <time>2022-09-25T10:51:53Z</time>
      </trkpt>
      <trkpt lat="45.68288" lon="5.49932">
        <ele>207.5</ele>
        <time>2022-09-25T10:51:54Z</time>
      </trkpt>
      <trkpt lat="45.68292" lon="5.49937">
        <ele>207.5</ele>
        <time>2022-09-25T10:51:55Z</time>
      </trkpt>
      <trkpt lat="45.68296" lon="5.49942">
        <ele>207.5</ele>
        <time>2022-09-25T10:51:56Z</time>
      </trkpt>
      <trkpt lat="45.68301" lon="5.49947">
        <ele>207.6</ele>
        <time>2022-09-25T10:51:57Z</time>
      </trkpt>
      <trkpt lat="45.68306" lon="5.49952">
        <ele>207.6</ele>
        <time>2022-09-25T10:51:58Z</time>
      </trkpt>
      <trkpt lat="45.6831" lon="5.49957">
        <ele>207.6</ele>
        <time>2022-09-25T10:51:59Z</time>
      </trkpt>
      <trkpt lat="45.68315" lon="5.49962">
        <ele>207.6</ele>
        <time>2022-09-25T10:52:00Z</time>
      </trkpt>
      <trkpt lat="45.68319" lon="5.49968">
        <ele>207.6</ele>
        <time>2022-09-25T10:52:01Z</time>
      </trkpt>
      <trkpt lat="45.68323" lon="5.49974">
        <ele>207.7</ele>
        <time>2022-09-25T10:52:02Z</time>
      </trkpt>
      <trkpt lat="45.68328" lon="5.4998">
        <ele>207.7</ele>
        <time>2022-09-25T10:52:03Z</time>
      </trkpt>
      <trkpt lat="45.68333" lon="5.49985">
        <ele>207.7</ele>
        <time>2022-09-25T10:52:04Z</time>
      </trkpt>
      <trkpt lat="45.68338" lon="5.49991">
        <ele>207.8</ele>
        <time>2022-09-25T10:52:05Z</time>
      </trkpt>
      <trkpt lat="45.68342" lon="5.49996">
        <ele>207.8</ele>
        <time>2022-09-25T10:52:06Z</time>
      </trkpt>
      <trkpt lat="45.68347" lon="5.50001">
        <ele>207.8</ele>
        <time>2022-09-25T10:52:07Z</time>
      </trkpt>
      <trkpt lat="45.68351" lon="5.50007">
        <ele>207.9</ele>
        <time>2022-09-25T10:52:08Z</time>
      </trkpt>
      <trkpt lat="45.68356" lon="5.50012">
        <ele>207.9</ele>
        <time>2022-09-25T10:52:09Z</time>
      </trkpt>
      <trkpt lat="45.6836" lon="5.50017">
        <ele>207.9</ele>
        <time>2022-09-25T10:52:10Z</time>
      </trkpt>
      <trkpt lat="45.68364" lon="5.50022">
        <ele>207.9</ele>
        <time>2022-09-25T10:52:11Z</time>
      </trkpt>
      <trkpt lat="45.68369" lon="5.50027">
        <ele>208</ele>
        <time>2022-09-25T10:52:12Z</time>
      </trkpt>
      <trkpt lat="45.68374" lon="5.50031">
        <ele>208</ele>
        <time>2022-09-25T10:52:13Z</time>
      </trkpt>
      <trkpt lat="45.68379" lon="5.50036">
        <ele>208</ele>
        <time>2022-09-25T10:52:14Z</time>
      </trkpt>
      <trkpt lat="45.68383" lon="5.50041">
        <ele>208</ele>
        <time>2022-09-25T10:52:15Z</time>
      </trkpt>
      <trkpt lat="45.68388" lon="5.50045">
        <ele>208</ele>
        <time>2022-09-25T10:52:16Z</time>
      </trkpt>
      <trkpt lat="45.68393" lon="5.5005">
        <ele>208.1</ele>
        <time>2022-09-25T10:52:17Z</time>
      </trkpt>
      <trkpt lat="45.68397" lon="5.50055">
        <ele>208.1</ele>
        <time>2022-09-25T10:52:18Z</time>
      </trkpt>
      <trkpt lat="45.68402" lon="5.5006">
        <ele>208.1</ele>
        <time>2022-09-25T10:52:19Z</time>
      </trkpt>
      <trkpt lat="45.68406" lon="5.50066">
        <ele>208.1</ele>
        <time>2022-09-25T10:52:20Z</time>
      </trkpt>
      <trkpt lat="45.68411" lon="5.50071">
        <ele>208.1</ele>
        <time>2022-09-25T10:52:21Z</time>
      </trkpt>
      <trkpt lat="45.68416" lon="5.50076">
        <ele>208</ele>
        <time>2022-09-25T10:52:22Z</time>
      </trkpt>
      <trkpt lat="45.6842" lon="5.50082">
        <ele>208</ele>
        <time>2022-09-25T10:52:23Z</time>
      </trkpt>
      <trkpt lat="45.68425" lon="5.50087">
        <ele>208</ele>
        <time>2022-09-25T10:52:24Z</time>
      </trkpt>
      <trkpt lat="45.6843" lon="5.50092">
        <ele>208</ele>
        <time>2022-09-25T10:52:25Z</time>
      </trkpt>
      <trkpt lat="45.68435" lon="5.50097">
        <ele>208</ele>
        <time>2022-09-25T10:52:26Z</time>
      </trkpt>
      <trkpt lat="45.6844" lon="5.50102">
        <ele>208</ele>
        <time>2022-09-25T10:52:27Z</time>
      </trkpt>
      <trkpt lat="45.68445" lon="5.50106">
        <ele>208</ele>
        <time>2022-09-25T10:52:28Z</time>
      </trkpt>
      <trkpt lat="45.6845" lon="5.50112">
        <ele>208</ele>
        <time>2022-09-25T10:52:29Z</time>
      </trkpt>
      <trkpt lat="45.68455" lon="5.50117">
        <ele>208</ele>
        <time>2022-09-25T10:52:30Z</time>
      </trkpt>
      <trkpt lat="45.6846" lon="5.50121">
        <ele>208</ele>
        <time>2022-09-25T10:52:31Z</time>
      </trkpt>
      <trkpt lat="45.68465" lon="5.50126">
        <ele>208</ele>
        <time>2022-09-25T10:52:32Z</time>
      </trkpt>
      <trkpt lat="45.68469" lon="5.50131">
        <ele>208</ele>
        <time>2022-09-25T10:52:33Z</time>
      </trkpt>
      <trkpt lat="45.68474" lon="5.50135">
        <ele>208</ele>
        <time>2022-09-25T10:52:34Z</time>
      </trkpt>
      <trkpt lat="45.68479" lon="5.5014">
        <ele>208</ele>
        <time>2022-09-25T10:52:35Z</time>
      </trkpt>
      <trkpt lat="45.68484" lon="5.50144">
        <ele>208</ele>
        <time>2022-09-25T10:52:36Z</time>
      </trkpt>
      <trkpt lat="45.68488" lon="5.50149">
        <ele>208.1</ele>
        <time>2022-09-25T10:52:37Z</time>
      </trkpt>
      <trkpt lat="45.68493" lon="5.50153">
        <ele>208.1</ele>
        <time>2022-09-25T10:52:38Z</time>
      </trkpt>
      <trkpt lat="45.68498" lon="5.50158">
        <ele>208.1</ele>
        <time>2022-09-25T10:52:39Z</time>
      </trkpt>
      <trkpt lat="45.68502" lon="5.50162">
        <ele>208.1</ele>
        <time>2022-09-25T10:52:40Z</time>
      </trkpt>
      <trkpt lat="45.68507" lon="5.50166">
        <ele>208.1</ele>
        <time>2022-09-25T10:52:41Z</time>
      </trkpt>
      <trkpt lat="45.68512" lon="5.5017">
        <ele>208.1</ele>
        <time>2022-09-25T10:52:42Z</time>
      </trkpt>
      <trkpt lat="45.68517" lon="5.50173">
        <ele>208.1</ele>
        <time>2022-09-25T10:52:43Z</time>
      </trkpt>
      <trkpt lat="45.68522" lon="5.50177">
        <ele>208.1</ele>
        <time>2022-09-25T10:52:44Z</time>
      </trkpt>
      <trkpt lat="45.68526" lon="5.50187">
        <ele>208.1</ele>
        <time>2022-09-25T10:52:45Z</time>
      </trkpt>
      <trkpt lat="45.6853" lon="5.50193">
        <ele>208.1</ele>
        <time>2022-09-25T10:52:46Z</time>
      </trkpt>
      <trkpt lat="45.68535" lon="5.50197">
        <ele>208.1</ele>
        <time>2022-09-25T10:52:47Z</time>
      </trkpt>
      <trkpt lat="45.6854" lon="5.50202">
        <ele>208.1</ele>
        <time>2022-09-25T10:52:48Z</time>
      </trkpt>
      <trkpt lat="45.68544" lon="5.50206">
        <ele>208.1</ele>
        <time>2022-09-25T10:52:49Z</time>
      </trkpt>
      <trkpt lat="45.68549" lon="5.5021">
        <ele>208.1</ele>
        <time>2022-09-25T10:52:50Z</time>
      </trkpt>
      <trkpt lat="45.68554" lon="5.50213">
        <ele>208</ele>
        <time>2022-09-25T10:52:51Z</time>
      </trkpt>
      <trkpt lat="45.68559" lon="5.50217">
        <ele>208</ele>
        <time>2022-09-25T10:52:52Z</time>
      </trkpt>
      <trkpt lat="45.68564" lon="5.50221">
        <ele>208</ele>
        <time>2022-09-25T10:52:53Z</time>
      </trkpt>
      <trkpt lat="45.68568" lon="5.50225">
        <ele>208</ele>
        <time>2022-09-25T10:52:54Z</time>
      </trkpt>
      <trkpt lat="45.68573" lon="5.50229">
        <ele>208</ele>
        <time>2022-09-25T10:52:55Z</time>
      </trkpt>
      <trkpt lat="45.68578" lon="5.50233">
        <ele>208</ele>
        <time>2022-09-25T10:52:56Z</time>
      </trkpt>
      <trkpt lat="45.68583" lon="5.50237">
        <ele>208</ele>
        <time>2022-09-25T10:52:57Z</time>
      </trkpt>
      <trkpt lat="45.68587" lon="5.5024">
        <ele>208</ele>
        <time>2022-09-25T10:52:58Z</time>
      </trkpt>
      <trkpt lat="45.68592" lon="5.50244">
        <ele>208</ele>
        <time>2022-09-25T10:52:59Z</time>
      </trkpt>
      <trkpt lat="45.68596" lon="5.50247">
        <ele>208</ele>
        <time>2022-09-25T10:53:00Z</time>
      </trkpt>
      <trkpt lat="45.68601" lon="5.50251">
        <ele>208</ele>
        <time>2022-09-25T10:53:01Z</time>
      </trkpt>
      <trkpt lat="45.68606" lon="5.50254">
        <ele>207.9</ele>
        <time>2022-09-25T10:53:02Z</time>
      </trkpt>
      <trkpt lat="45.68611" lon="5.50258">
        <ele>207.9</ele>
        <time>2022-09-25T10:53:03Z</time>
      </trkpt>
      <trkpt lat="45.68615" lon="5.50262">
        <ele>207.9</ele>
        <time>2022-09-25T10:53:04Z</time>
      </trkpt>
      <trkpt lat="45.6862" lon="5.50265">
        <ele>208</ele>
        <time>2022-09-25T10:53:05Z</time>
      </trkpt>
      <trkpt lat="45.68624" lon="5.50269">
        <ele>208</ele>
        <time>2022-09-25T10:53:06Z</time>
      </trkpt>
      <trkpt lat="45.68628" lon="5.50273">
        <ele>208</ele>
        <time>2022-09-25T10:53:07Z</time>
      </trkpt>
      <trkpt lat="45.68633" lon="5.50276">
        <ele>208</ele>
        <time>2022-09-25T10:53:08Z</time>
      </trkpt>
      <trkpt lat="45.68637" lon="5.50279">
        <ele>208</ele>
        <time>2022-09-25T10:53:09Z</time>
      </trkpt>
      <trkpt lat="45.68642" lon="5.50283">
        <ele>207.9</ele>
        <time>2022-09-25T10:53:10Z</time>
      </trkpt>
      <trkpt lat="45.68647" lon="5.50286">
        <ele>207.9</ele>
        <time>2022-09-25T10:53:11Z</time>
      </trkpt>
      <trkpt lat="45.68651" lon="5.5029">
        <ele>207.9</ele>
        <time>2022-09-25T10:53:12Z</time>
      </trkpt>
      <trkpt lat="45.68656" lon="5.50293">
        <ele>207.9</ele>
        <time>2022-09-25T10:53:13Z</time>
      </trkpt>
      <trkpt lat="45.6866" lon="5.50297">
        <ele>207.9</ele>
        <time>2022-09-25T10:53:14Z</time>
      </trkpt>
      <trkpt lat="45.68665" lon="5.503">
        <ele>207.9</ele>
        <time>2022-09-25T10:53:15Z</time>
      </trkpt>
      <trkpt lat="45.68669" lon="5.50304">
        <ele>207.9</ele>
        <time>2022-09-25T10:53:16Z</time>
      </trkpt>
      <trkpt lat="45.68674" lon="5.50308">
        <ele>207.9</ele>
        <time>2022-09-25T10:53:17Z</time>
      </trkpt>
      <trkpt lat="45.68678" lon="5.50311">
        <ele>207.8</ele>
        <time>2022-09-25T10:53:18Z</time>
      </trkpt>
      <trkpt lat="45.68682" lon="5.50316">
        <ele>207.8</ele>
        <time>2022-09-25T10:53:19Z</time>
      </trkpt>
      <trkpt lat="45.68687" lon="5.50319">
        <ele>207.8</ele>
        <time>2022-09-25T10:53:20Z</time>
      </trkpt>
      <trkpt lat="45.68691" lon="5.50322">
        <ele>207.8</ele>
        <time>2022-09-25T10:53:21Z</time>
      </trkpt>
      <trkpt lat="45.68695" lon="5.50325">
        <ele>207.8</ele>
        <time>2022-09-25T10:53:22Z</time>
      </trkpt>
      <trkpt lat="45.687" lon="5.5033">
        <ele>207.7</ele>
        <time>2022-09-25T10:53:23Z</time>
      </trkpt>
      <trkpt lat="45.68704" lon="5.50333">
        <ele>207.7</ele>
        <time>2022-09-25T10:53:24Z</time>
      </trkpt>
      <trkpt lat="45.6871" lon="5.50337">
        <ele>207.7</ele>
        <time>2022-09-25T10:53:25Z</time>
      </trkpt>
      <trkpt lat="45.68714" lon="5.5034">
        <ele>207.8</ele>
        <time>2022-09-25T10:53:26Z</time>
      </trkpt>
      <trkpt lat="45.68719" lon="5.50344">
        <ele>207.8</ele>
        <time>2022-09-25T10:53:27Z</time>
      </trkpt>
      <trkpt lat="45.68723" lon="5.50348">
        <ele>207.8</ele>
        <time>2022-09-25T10:53:28Z</time>
      </trkpt>
      <trkpt lat="45.68728" lon="5.50349">
        <ele>207.8</ele>
        <time>2022-09-25T10:53:29Z</time>
      </trkpt>
      <trkpt lat="45.68733" lon="5.50351">
        <ele>207.8</ele>
        <time>2022-09-25T10:53:30Z</time>
      </trkpt>
      <trkpt lat="45.68737" lon="5.50353">
        <ele>207.8</ele>
        <time>2022-09-25T10:53:31Z</time>
      </trkpt>
      <trkpt lat="45.68742" lon="5.50357">
        <ele>207.7</ele>
        <time>2022-09-25T10:53:32Z</time>
      </trkpt>
      <trkpt lat="45.68747" lon="5.50361">
        <ele>207.7</ele>
        <time>2022-09-25T10:53:33Z</time>
      </trkpt>
      <trkpt lat="45.68752" lon="5.50365">
        <ele>207.7</ele>
        <time>2022-09-25T10:53:34Z</time>
      </trkpt>
      <trkpt lat="45.68756" lon="5.5037">
        <ele>207.7</ele>
        <time>2022-09-25T10:53:35Z</time>
      </trkpt>
      <trkpt lat="45.68761" lon="5.50375">
        <ele>207.8</ele>
        <time>2022-09-25T10:53:36Z</time>
      </trkpt>
      <trkpt lat="45.68765" lon="5.50381">
        <ele>207.8</ele>
        <time>2022-09-25T10:53:37Z</time>
      </trkpt>
      <trkpt lat="45.6877" lon="5.50386">
        <ele>207.8</ele>
        <time>2022-09-25T10:53:38Z</time>
      </trkpt>
      <trkpt lat="45.68773" lon="5.50392">
        <ele>207.8</ele>
        <time>2022-09-25T10:53:39Z</time>
      </trkpt>
      <trkpt lat="45.68777" lon="5.50397">
        <ele>207.8</ele>
        <time>2022-09-25T10:53:40Z</time>
      </trkpt>
      <trkpt lat="45.68781" lon="5.50401">
        <ele>207.8</ele>
        <time>2022-09-25T10:53:41Z</time>
      </trkpt>
      <trkpt lat="45.68785" lon="5.50404">
        <ele>207.8</ele>
        <time>2022-09-25T10:53:42Z</time>
      </trkpt>
      <trkpt lat="45.68788" lon="5.50407">
        <ele>207.8</ele>
        <time>2022-09-25T10:53:43Z</time>
      </trkpt>
      <trkpt lat="45.68791" lon="5.5041">
        <ele>207.8</ele>
        <time>2022-09-25T10:53:44Z</time>
      </trkpt>
      <trkpt lat="45.68795" lon="5.50413">
        <ele>207.8</ele>
        <time>2022-09-25T10:53:45Z</time>
      </trkpt>
      <trkpt lat="45.68799" lon="5.50415">
        <ele>207.8</ele>
        <time>2022-09-25T10:53:46Z</time>
      </trkpt>
      <trkpt lat="45.68802" lon="5.50418">
        <ele>207.8</ele>
        <time>2022-09-25T10:53:47Z</time>
      </trkpt>
      <trkpt lat="45.68805" lon="5.50422">
        <ele>207.8</ele>
        <time>2022-09-25T10:53:48Z</time>
      </trkpt>
      <trkpt lat="45.68809" lon="5.50425">
        <ele>207.8</ele>
        <time>2022-09-25T10:53:49Z</time>
      </trkpt>
      <trkpt lat="45.68813" lon="5.50428">
        <ele>207.8</ele>
        <time>2022-09-25T10:53:50Z</time>
      </trkpt>
      <trkpt lat="45.68818" lon="5.50432">
        <ele>207.8</ele>
        <time>2022-09-25T10:53:51Z</time>
      </trkpt>
      <trkpt lat="45.68822" lon="5.50435">
        <ele>207.7</ele>
        <time>2022-09-25T10:53:52Z</time>
      </trkpt>
      <trkpt lat="45.68826" lon="5.50439">
        <ele>207.7</ele>
        <time>2022-09-25T10:53:53Z</time>
      </trkpt>
      <trkpt lat="45.68831" lon="5.50442">
        <ele>207.7</ele>
        <time>2022-09-25T10:53:54Z</time>
      </trkpt>
      <trkpt lat="45.68836" lon="5.50446">
        <ele>207.7</ele>
        <time>2022-09-25T10:53:55Z</time>
      </trkpt>
      <trkpt lat="45.68841" lon="5.50449">
        <ele>207.7</ele>
        <time>2022-09-25T10:53:56Z</time>
      </trkpt>
      <trkpt lat="45.68846" lon="5.50453">
        <ele>207.7</ele>
        <time>2022-09-25T10:53:57Z</time>
      </trkpt>
      <trkpt lat="45.6885" lon="5.50456">
        <ele>207.7</ele>
        <time>2022-09-25T10:53:58Z</time>
      </trkpt>
      <trkpt lat="45.68854" lon="5.50459">
        <ele>207.7</ele>
        <time>2022-09-25T10:53:59Z</time>
      </trkpt>
      <trkpt lat="45.68858" lon="5.50463">
        <ele>207.7</ele>
        <time>2022-09-25T10:54:00Z</time>
      </trkpt>
      <trkpt lat="45.68862" lon="5.50466">
        <ele>207.7</ele>
        <time>2022-09-25T10:54:01Z</time>
      </trkpt>
      <trkpt lat="45.68866" lon="5.50469">
        <ele>207.7</ele>
        <time>2022-09-25T10:54:02Z</time>
      </trkpt>
      <trkpt lat="45.6887" lon="5.50471">
        <ele>207.8</ele>
        <time>2022-09-25T10:54:03Z</time>
      </trkpt>
      <trkpt lat="45.68875" lon="5.50471">
        <ele>207.8</ele>
        <time>2022-09-25T10:54:04Z</time>
      </trkpt>
      <trkpt lat="45.68879" lon="5.50471">
        <ele>207.8</ele>
        <time>2022-09-25T10:54:05Z</time>
      </trkpt>
      <trkpt lat="45.68883" lon="5.50472">
        <ele>207.7</ele>
        <time>2022-09-25T10:54:06Z</time>
      </trkpt>
      <trkpt lat="45.68887" lon="5.50472">
        <ele>207.7</ele>
        <time>2022-09-25T10:54:07Z</time>
      </trkpt>
      <trkpt lat="45.68892" lon="5.50472">
        <ele>207.7</ele>
        <time>2022-09-25T10:54:08Z</time>
      </trkpt>
      <trkpt lat="45.68896" lon="5.50471">
        <ele>207.7</ele>
        <time>2022-09-25T10:54:09Z</time>
      </trkpt>
      <trkpt lat="45.68901" lon="5.50472">
        <ele>207.6</ele>
        <time>2022-09-25T10:54:10Z</time>
      </trkpt>
      <trkpt lat="45.68906" lon="5.50472">
        <ele>207.6</ele>
        <time>2022-09-25T10:54:11Z</time>
      </trkpt>
      <trkpt lat="45.6891" lon="5.50472">
        <ele>207.6</ele>
        <time>2022-09-25T10:54:12Z</time>
      </trkpt>
      <trkpt lat="45.68914" lon="5.50473">
        <ele>207.6</ele>
        <time>2022-09-25T10:54:13Z</time>
      </trkpt>
      <trkpt lat="45.68918" lon="5.50474">
        <ele>207.6</ele>
        <time>2022-09-25T10:54:14Z</time>
      </trkpt>
      <trkpt lat="45.68921" lon="5.50474">
        <ele>207.6</ele>
        <time>2022-09-25T10:54:15Z</time>
      </trkpt>
      <trkpt lat="45.68925" lon="5.50475">
        <ele>207.6</ele>
        <time>2022-09-25T10:54:16Z</time>
      </trkpt>
      <trkpt lat="45.68928" lon="5.50475">
        <ele>207.6</ele>
        <time>2022-09-25T10:54:17Z</time>
      </trkpt>
      <trkpt lat="45.68931" lon="5.50474">
        <ele>207.6</ele>
        <time>2022-09-25T10:54:18Z</time>
      </trkpt>
      <trkpt lat="45.68934" lon="5.50472">
        <ele>207.6</ele>
        <time>2022-09-25T10:54:19Z</time>
      </trkpt>
      <trkpt lat="45.68937" lon="5.5047">
        <ele>207.6</ele>
        <time>2022-09-25T10:54:20Z</time>
      </trkpt>
      <trkpt lat="45.6894" lon="5.50469">
        <ele>207.6</ele>
        <time>2022-09-25T10:54:21Z</time>
      </trkpt>
      <trkpt lat="45.68941" lon="5.50469">
        <ele>207.6</ele>
        <time>2022-09-25T10:54:22Z</time>
      </trkpt>
      <trkpt lat="45.68944" lon="5.50471">
        <ele>207.6</ele>
        <time>2022-09-25T10:54:23Z</time>
      </trkpt>
      <trkpt lat="45.68945" lon="5.50472">
        <ele>207.6</ele>
        <time>2022-09-25T10:54:24Z</time>
      </trkpt>
      <trkpt lat="45.68948" lon="5.50476">
        <ele>207.6</ele>
        <time>2022-09-25T10:54:25Z</time>
      </trkpt>
      <trkpt lat="45.68949" lon="5.50477">
        <ele>207.6</ele>
        <time>2022-09-25T10:54:26Z</time>
      </trkpt>
      <trkpt lat="45.6895" lon="5.50481">
        <ele>207.6</ele>
        <time>2022-09-25T10:54:27Z</time>
      </trkpt>
      <trkpt lat="45.68951" lon="5.50485">
        <ele>207.5</ele>
        <time>2022-09-25T10:54:28Z</time>
      </trkpt>
      <trkpt lat="45.68951" lon="5.5049">
        <ele>207.5</ele>
        <time>2022-09-25T10:54:29Z</time>
      </trkpt>
      <trkpt lat="45.68952" lon="5.50494">
        <ele>207.5</ele>
        <time>2022-09-25T10:54:30Z</time>
      </trkpt>
      <trkpt lat="45.68953" lon="5.50498">
        <ele>207.5</ele>
        <time>2022-09-25T10:54:31Z</time>
      </trkpt>
      <trkpt lat="45.68954" lon="5.50503">
        <ele>207.5</ele>
        <time>2022-09-25T10:54:32Z</time>
      </trkpt>
      <trkpt lat="45.68955" lon="5.50509">
        <ele>207.4</ele>
        <time>2022-09-25T10:54:33Z</time>
      </trkpt>
      <trkpt lat="45.68956" lon="5.50515">
        <ele>207.4</ele>
        <time>2022-09-25T10:54:34Z</time>
      </trkpt>
      <trkpt lat="45.68956" lon="5.50521">
        <ele>207.4</ele>
        <time>2022-09-25T10:54:35Z</time>
      </trkpt>
      <trkpt lat="45.68957" lon="5.50527">
        <ele>207.4</ele>
        <time>2022-09-25T10:54:36Z</time>
      </trkpt>
      <trkpt lat="45.68957" lon="5.50534">
        <ele>207.4</ele>
        <time>2022-09-25T10:54:37Z</time>
      </trkpt>
      <trkpt lat="45.68957" lon="5.5054">
        <ele>207.4</ele>
        <time>2022-09-25T10:54:38Z</time>
      </trkpt>
      <trkpt lat="45.68958" lon="5.50547">
        <ele>207.4</ele>
        <time>2022-09-25T10:54:39Z</time>
      </trkpt>
      <trkpt lat="45.68959" lon="5.50553">
        <ele>207.4</ele>
        <time>2022-09-25T10:54:40Z</time>
      </trkpt>
      <trkpt lat="45.6896" lon="5.5056">
        <ele>207.4</ele>
        <time>2022-09-25T10:54:41Z</time>
      </trkpt>
      <trkpt lat="45.68961" lon="5.50566">
        <ele>207.4</ele>
        <time>2022-09-25T10:54:42Z</time>
      </trkpt>
      <trkpt lat="45.68961" lon="5.50574">
        <ele>207.4</ele>
        <time>2022-09-25T10:54:43Z</time>
      </trkpt>
      <trkpt lat="45.68962" lon="5.50581">
        <ele>207.5</ele>
        <time>2022-09-25T10:54:44Z</time>
      </trkpt>
      <trkpt lat="45.68963" lon="5.50588">
        <ele>207.5</ele>
        <time>2022-09-25T10:54:45Z</time>
      </trkpt>
      <trkpt lat="45.68964" lon="5.50594">
        <ele>207.6</ele>
        <time>2022-09-25T10:54:46Z</time>
      </trkpt>
      <trkpt lat="45.68965" lon="5.506">
        <ele>207.6</ele>
        <time>2022-09-25T10:54:47Z</time>
      </trkpt>
      <trkpt lat="45.68965" lon="5.50605">
        <ele>207.6</ele>
        <time>2022-09-25T10:54:48Z</time>
      </trkpt>
      <trkpt lat="45.68966" lon="5.50611">
        <ele>207.5</ele>
        <time>2022-09-25T10:54:49Z</time>
      </trkpt>
      <trkpt lat="45.68967" lon="5.50615">
        <ele>207.5</ele>
        <time>2022-09-25T10:54:50Z</time>
      </trkpt>
      <trkpt lat="45.6897" lon="5.50619">
        <ele>207.5</ele>
        <time>2022-09-25T10:54:51Z</time>
      </trkpt>
      <trkpt lat="45.6897" lon="5.5062">
        <ele>207.5</ele>
        <time>2022-09-25T10:54:52Z</time>
      </trkpt>
      <trkpt lat="45.68974" lon="5.5062">
        <ele>207.5</ele>
        <time>2022-09-25T10:54:53Z</time>
      </trkpt>
      <trkpt lat="45.68976" lon="5.5062">
        <ele>207.5</ele>
        <time>2022-09-25T10:54:54Z</time>
      </trkpt>
      <trkpt lat="45.68976" lon="5.50621">
        <ele>207.5</ele>
        <time>2022-09-25T10:54:55Z</time>
      </trkpt>
      <trkpt lat="45.68977" lon="5.50624">
        <ele>207.5</ele>
        <time>2022-09-25T10:54:56Z</time>
      </trkpt>
      <trkpt lat="45.68979" lon="5.50629">
        <ele>207.4</ele>
        <time>2022-09-25T10:54:57Z</time>
      </trkpt>
      <trkpt lat="45.6898" lon="5.50631">
        <ele>207.4</ele>
        <time>2022-09-25T10:54:58Z</time>
      </trkpt>
      <trkpt lat="45.68983" lon="5.50633">
        <ele>207.4</ele>
        <time>2022-09-25T10:54:59Z</time>
      </trkpt>
      <trkpt lat="45.68986" lon="5.50635">
        <ele>207.3</ele>
        <time>2022-09-25T10:55:00Z</time>
      </trkpt>
      <trkpt lat="45.6899" lon="5.50636">
        <ele>207.2</ele>
        <time>2022-09-25T10:55:01Z</time>
      </trkpt>
      <trkpt lat="45.68994" lon="5.50637">
        <ele>207.2</ele>
        <time>2022-09-25T10:55:02Z</time>
      </trkpt>
      <trkpt lat="45.68998" lon="5.50637">
        <ele>207.1</ele>
        <time>2022-09-25T10:55:03Z</time>
      </trkpt>
      <trkpt lat="45.69002" lon="5.50638">
        <ele>207.1</ele>
        <time>2022-09-25T10:55:04Z</time>
      </trkpt>
      <trkpt lat="45.69006" lon="5.50638">
        <ele>207</ele>
        <time>2022-09-25T10:55:05Z</time>
      </trkpt>
      <trkpt lat="45.69011" lon="5.50639">
        <ele>207</ele>
        <time>2022-09-25T10:55:06Z</time>
      </trkpt>
      <trkpt lat="45.69015" lon="5.50639">
        <ele>207</ele>
        <time>2022-09-25T10:55:07Z</time>
      </trkpt>
      <trkpt lat="45.69019" lon="5.5064">
        <ele>206.9</ele>
        <time>2022-09-25T10:55:08Z</time>
      </trkpt>
      <trkpt lat="45.69024" lon="5.5064">
        <ele>206.9</ele>
        <time>2022-09-25T10:55:09Z</time>
      </trkpt>
      <trkpt lat="45.69027" lon="5.50641">
        <ele>206.9</ele>
        <time>2022-09-25T10:55:10Z</time>
      </trkpt>
      <trkpt lat="45.69032" lon="5.50641">
        <ele>206.9</ele>
        <time>2022-09-25T10:55:11Z</time>
      </trkpt>
      <trkpt lat="45.69036" lon="5.50642">
        <ele>206.9</ele>
        <time>2022-09-25T10:55:12Z</time>
      </trkpt>
      <trkpt lat="45.69041" lon="5.50642">
        <ele>206.9</ele>
        <time>2022-09-25T10:55:13Z</time>
      </trkpt>
      <trkpt lat="45.69045" lon="5.50643">
        <ele>206.9</ele>
        <time>2022-09-25T10:55:14Z</time>
      </trkpt>
      <trkpt lat="45.69049" lon="5.50643">
        <ele>206.9</ele>
        <time>2022-09-25T10:55:15Z</time>
      </trkpt>
      <trkpt lat="45.69054" lon="5.50644">
        <ele>206.9</ele>
        <time>2022-09-25T10:55:16Z</time>
      </trkpt>
      <trkpt lat="45.69058" lon="5.50645">
        <ele>206.9</ele>
        <time>2022-09-25T10:55:17Z</time>
      </trkpt>
      <trkpt lat="45.69063" lon="5.50645">
        <ele>206.9</ele>
        <time>2022-09-25T10:55:18Z</time>
      </trkpt>
      <trkpt lat="45.69068" lon="5.50646">
        <ele>206.9</ele>
        <time>2022-09-25T10:55:19Z</time>
      </trkpt>
      <trkpt lat="45.69073" lon="5.50647">
        <ele>206.8</ele>
        <time>2022-09-25T10:55:20Z</time>
      </trkpt>
      <trkpt lat="45.69078" lon="5.50647">
        <ele>206.8</ele>
        <time>2022-09-25T10:55:21Z</time>
      </trkpt>
      <trkpt lat="45.69083" lon="5.50648">
        <ele>206.8</ele>
        <time>2022-09-25T10:55:22Z</time>
      </trkpt>
      <trkpt lat="45.69088" lon="5.50648">
        <ele>206.8</ele>
        <time>2022-09-25T10:55:23Z</time>
      </trkpt>
      <trkpt lat="45.69093" lon="5.50649">
        <ele>206.8</ele>
        <time>2022-09-25T10:55:24Z</time>
      </trkpt>
      <trkpt lat="45.69098" lon="5.50649">
        <ele>206.8</ele>
        <time>2022-09-25T10:55:25Z</time>
      </trkpt>
      <trkpt lat="45.69102" lon="5.50649">
        <ele>206.8</ele>
        <time>2022-09-25T10:55:26Z</time>
      </trkpt>
      <trkpt lat="45.69108" lon="5.50649">
        <ele>206.8</ele>
        <time>2022-09-25T10:55:27Z</time>
      </trkpt>
      <trkpt lat="45.69113" lon="5.50649">
        <ele>206.7</ele>
        <time>2022-09-25T10:55:28Z</time>
      </trkpt>
      <trkpt lat="45.69117" lon="5.50649">
        <ele>206.7</ele>
        <time>2022-09-25T10:55:29Z</time>
      </trkpt>
      <trkpt lat="45.69123" lon="5.50649">
        <ele>206.7</ele>
        <time>2022-09-25T10:55:30Z</time>
      </trkpt>
      <trkpt lat="45.69127" lon="5.50649">
        <ele>206.7</ele>
        <time>2022-09-25T10:55:31Z</time>
      </trkpt>
      <trkpt lat="45.69132" lon="5.50649">
        <ele>206.7</ele>
        <time>2022-09-25T10:55:32Z</time>
      </trkpt>
      <trkpt lat="45.69137" lon="5.5065">
        <ele>206.7</ele>
        <time>2022-09-25T10:55:33Z</time>
      </trkpt>
      <trkpt lat="45.69143" lon="5.5065">
        <ele>206.7</ele>
        <time>2022-09-25T10:55:34Z</time>
      </trkpt>
      <trkpt lat="45.69149" lon="5.5065">
        <ele>206.7</ele>
        <time>2022-09-25T10:55:35Z</time>
      </trkpt>
      <trkpt lat="45.69153" lon="5.5065">
        <ele>206.7</ele>
        <time>2022-09-25T10:55:36Z</time>
      </trkpt>
      <trkpt lat="45.69158" lon="5.5065">
        <ele>206.7</ele>
        <time>2022-09-25T10:55:37Z</time>
      </trkpt>
      <trkpt lat="45.69163" lon="5.5065">
        <ele>206.7</ele>
        <time>2022-09-25T10:55:38Z</time>
      </trkpt>
      <trkpt lat="45.69168" lon="5.50649">
        <ele>206.7</ele>
        <time>2022-09-25T10:55:39Z</time>
      </trkpt>
      <trkpt lat="45.69173" lon="5.50649">
        <ele>206.7</ele>
        <time>2022-09-25T10:55:40Z</time>
      </trkpt>
      <trkpt lat="45.69177" lon="5.50649">
        <ele>206.7</ele>
        <time>2022-09-25T10:55:41Z</time>
      </trkpt>
      <trkpt lat="45.69182" lon="5.50648">
        <ele>206.7</ele>
        <time>2022-09-25T10:55:42Z</time>
      </trkpt>
      <trkpt lat="45.69187" lon="5.50648">
        <ele>206.7</ele>
        <time>2022-09-25T10:55:43Z</time>
      </trkpt>
      <trkpt lat="45.69192" lon="5.50647">
        <ele>206.7</ele>
        <time>2022-09-25T10:55:44Z</time>
      </trkpt>
      <trkpt lat="45.69197" lon="5.50647">
        <ele>206.7</ele>
        <time>2022-09-25T10:55:45Z</time>
      </trkpt>
      <trkpt lat="45.69203" lon="5.50647">
        <ele>206.7</ele>
        <time>2022-09-25T10:55:46Z</time>
      </trkpt>
      <trkpt lat="45.69209" lon="5.50646">
        <ele>206.7</ele>
        <time>2022-09-25T10:55:47Z</time>
      </trkpt>
      <trkpt lat="45.69214" lon="5.50646">
        <ele>206.7</ele>
        <time>2022-09-25T10:55:48Z</time>
      </trkpt>
      <trkpt lat="45.6922" lon="5.50645">
        <ele>206.7</ele>
        <time>2022-09-25T10:55:49Z</time>
      </trkpt>
      <trkpt lat="45.69225" lon="5.50645">
        <ele>206.8</ele>
        <time>2022-09-25T10:55:50Z</time>
      </trkpt>
      <trkpt lat="45.6923" lon="5.50645">
        <ele>206.8</ele>
        <time>2022-09-25T10:55:51Z</time>
      </trkpt>
      <trkpt lat="45.69235" lon="5.50646">
        <ele>206.8</ele>
        <time>2022-09-25T10:55:52Z</time>
      </trkpt>
      <trkpt lat="45.69241" lon="5.50647">
        <ele>206.8</ele>
        <time>2022-09-25T10:55:53Z</time>
      </trkpt>
      <trkpt lat="45.69246" lon="5.50648">
        <ele>206.8</ele>
        <time>2022-09-25T10:55:54Z</time>
      </trkpt>
      <trkpt lat="45.6925" lon="5.50651">
        <ele>206.9</ele>
        <time>2022-09-25T10:55:55Z</time>
      </trkpt>
      <trkpt lat="45.69255" lon="5.50654">
        <ele>206.9</ele>
        <time>2022-09-25T10:55:56Z</time>
      </trkpt>
      <trkpt lat="45.6926" lon="5.50658">
        <ele>206.9</ele>
        <time>2022-09-25T10:55:57Z</time>
      </trkpt>
      <trkpt lat="45.69265" lon="5.50662">
        <ele>207</ele>
        <time>2022-09-25T10:55:58Z</time>
      </trkpt>
      <trkpt lat="45.6927" lon="5.50667">
        <ele>207</ele>
        <time>2022-09-25T10:55:59Z</time>
      </trkpt>
      <trkpt lat="45.69272" lon="5.50676">
        <ele>207.1</ele>
        <time>2022-09-25T10:56:00Z</time>
      </trkpt>
      <trkpt lat="45.69276" lon="5.50681">
        <ele>207.1</ele>
        <time>2022-09-25T10:56:01Z</time>
      </trkpt>
      <trkpt lat="45.6928" lon="5.50686">
        <ele>207.2</ele>
        <time>2022-09-25T10:56:02Z</time>
      </trkpt>
      <trkpt lat="45.69284" lon="5.50691">
        <ele>207.3</ele>
        <time>2022-09-25T10:56:03Z</time>
      </trkpt>
      <trkpt lat="45.69288" lon="5.50695">
        <ele>207.4</ele>
        <time>2022-09-25T10:56:04Z</time>
      </trkpt>
      <trkpt lat="45.69291" lon="5.50699">
        <ele>207.4</ele>
        <time>2022-09-25T10:56:05Z</time>
      </trkpt>
      <trkpt lat="45.69293" lon="5.50701">
        <ele>207.5</ele>
        <time>2022-09-25T10:56:06Z</time>
      </trkpt>
      <trkpt lat="45.69295" lon="5.50705">
        <ele>207.6</ele>
        <time>2022-09-25T10:56:07Z</time>
      </trkpt>
      <trkpt lat="45.69296" lon="5.50707">
        <ele>207.6</ele>
        <time>2022-09-25T10:56:08Z</time>
      </trkpt>
      <trkpt lat="45.69294" lon="5.50711">
        <ele>207.6</ele>
        <time>2022-09-25T10:56:09Z</time>
      </trkpt>
      <trkpt lat="45.69293" lon="5.50713">
        <ele>207.6</ele>
        <time>2022-09-25T10:56:10Z</time>
      </trkpt>
      <trkpt lat="45.6929" lon="5.50714">
        <ele>207.5</ele>
        <time>2022-09-25T10:56:11Z</time>
      </trkpt>
      <trkpt lat="45.69287" lon="5.50716">
        <ele>207.5</ele>
        <time>2022-09-25T10:56:12Z</time>
      </trkpt>
      <trkpt lat="45.69284" lon="5.50717">
        <ele>207.5</ele>
        <time>2022-09-25T10:56:13Z</time>
      </trkpt>
      <trkpt lat="45.6928" lon="5.5072">
        <ele>207.5</ele>
        <time>2022-09-25T10:56:14Z</time>
      </trkpt>
      <trkpt lat="45.69277" lon="5.50723">
        <ele>207.5</ele>
        <time>2022-09-25T10:56:15Z</time>
      </trkpt>
      <trkpt lat="45.69273" lon="5.50727">
        <ele>207.5</ele>
        <time>2022-09-25T10:56:16Z</time>
      </trkpt>
      <trkpt lat="45.69269" lon="5.50729">
        <ele>207.6</ele>
        <time>2022-09-25T10:56:17Z</time>
      </trkpt>
      <trkpt lat="45.69265" lon="5.50732">
        <ele>207.6</ele>
        <time>2022-09-25T10:56:18Z</time>
      </trkpt>
      <trkpt lat="45.69262" lon="5.50735">
        <ele>207.6</ele>
        <time>2022-09-25T10:56:19Z</time>
      </trkpt>
      <trkpt lat="45.69258" lon="5.50739">
        <ele>207.7</ele>
        <time>2022-09-25T10:56:20Z</time>
      </trkpt>
      <trkpt lat="45.69255" lon="5.50743">
        <ele>207.7</ele>
        <time>2022-09-25T10:56:21Z</time>
      </trkpt>
      <trkpt lat="45.69252" lon="5.50748">
        <ele>207.7</ele>
        <time>2022-09-25T10:56:22Z</time>
      </trkpt>
      <trkpt lat="45.69249" lon="5.50753">
        <ele>207.8</ele>
        <time>2022-09-25T10:56:23Z</time>
      </trkpt>
      <trkpt lat="45.69247" lon="5.5076">
        <ele>207.8</ele>
        <time>2022-09-25T10:56:24Z</time>
      </trkpt>
      <trkpt lat="45.69245" lon="5.50766">
        <ele>207.8</ele>
        <time>2022-09-25T10:56:25Z</time>
      </trkpt>
      <trkpt lat="45.69244" lon="5.50772">
        <ele>207.8</ele>
        <time>2022-09-25T10:56:26Z</time>
      </trkpt>
      <trkpt lat="45.69242" lon="5.50778">
        <ele>207.8</ele>
        <time>2022-09-25T10:56:27Z</time>
      </trkpt>
      <trkpt lat="45.69241" lon="5.50785">
        <ele>207.8</ele>
        <time>2022-09-25T10:56:28Z</time>
      </trkpt>
      <trkpt lat="45.6924" lon="5.50791">
        <ele>207.9</ele>
        <time>2022-09-25T10:56:29Z</time>
      </trkpt>
      <trkpt lat="45.69236" lon="5.50798">
        <ele>207.9</ele>
        <time>2022-09-25T10:56:30Z</time>
      </trkpt>
      <trkpt lat="45.69234" lon="5.50803">
        <ele>207.9</ele>
        <time>2022-09-25T10:56:31Z</time>
      </trkpt>
      <trkpt lat="45.69233" lon="5.50809">
        <ele>207.9</ele>
        <time>2022-09-25T10:56:32Z</time>
      </trkpt>
      <trkpt lat="45.69232" lon="5.50815">
        <ele>207.9</ele>
        <time>2022-09-25T10:56:33Z</time>
      </trkpt>
      <trkpt lat="45.6923" lon="5.50822">
        <ele>207.9</ele>
        <time>2022-09-25T10:56:34Z</time>
      </trkpt>
      <trkpt lat="45.69229" lon="5.50829">
        <ele>207.9</ele>
        <time>2022-09-25T10:56:35Z</time>
      </trkpt>
      <trkpt lat="45.69227" lon="5.50836">
        <ele>207.9</ele>
        <time>2022-09-25T10:56:36Z</time>
      </trkpt>
      <trkpt lat="45.69226" lon="5.50844">
        <ele>207.9</ele>
        <time>2022-09-25T10:56:37Z</time>
      </trkpt>
      <trkpt lat="45.69225" lon="5.50851">
        <ele>207.9</ele>
        <time>2022-09-25T10:56:38Z</time>
      </trkpt>
      <trkpt lat="45.69223" lon="5.50858">
        <ele>207.9</ele>
        <time>2022-09-25T10:56:39Z</time>
      </trkpt>
      <trkpt lat="45.69222" lon="5.50866">
        <ele>207.9</ele>
        <time>2022-09-25T10:56:40Z</time>
      </trkpt>
      <trkpt lat="45.69222" lon="5.50874">
        <ele>207.9</ele>
        <time>2022-09-25T10:56:41Z</time>
      </trkpt>
      <trkpt lat="45.69221" lon="5.50882">
        <ele>207.9</ele>
        <time>2022-09-25T10:56:42Z</time>
      </trkpt>
      <trkpt lat="45.69221" lon="5.5089">
        <ele>207.9</ele>
        <time>2022-09-25T10:56:43Z</time>
      </trkpt>
      <trkpt lat="45.69221" lon="5.50898">
        <ele>207.9</ele>
        <time>2022-09-25T10:56:44Z</time>
      </trkpt>
      <trkpt lat="45.69221" lon="5.50905">
        <ele>207.8</ele>
        <time>2022-09-25T10:56:45Z</time>
      </trkpt>
      <trkpt lat="45.69221" lon="5.50913">
        <ele>207.8</ele>
        <time>2022-09-25T10:56:46Z</time>
      </trkpt>
      <trkpt lat="45.69221" lon="5.50921">
        <ele>207.8</ele>
        <time>2022-09-25T10:56:47Z</time>
      </trkpt>
      <trkpt lat="45.69221" lon="5.50929">
        <ele>207.9</ele>
        <time>2022-09-25T10:56:48Z</time>
      </trkpt>
      <trkpt lat="45.6922" lon="5.50937">
        <ele>207.9</ele>
        <time>2022-09-25T10:56:49Z</time>
      </trkpt>
      <trkpt lat="45.6922" lon="5.50945">
        <ele>207.9</ele>
        <time>2022-09-25T10:56:50Z</time>
      </trkpt>
      <trkpt lat="45.6922" lon="5.50952">
        <ele>207.9</ele>
        <time>2022-09-25T10:56:51Z</time>
      </trkpt>
      <trkpt lat="45.69219" lon="5.50958">
        <ele>207.9</ele>
        <time>2022-09-25T10:56:52Z</time>
      </trkpt>
      <trkpt lat="45.69219" lon="5.50965">
        <ele>207.9</ele>
        <time>2022-09-25T10:56:53Z</time>
      </trkpt>
      <trkpt lat="45.69218" lon="5.50973">
        <ele>207.9</ele>
        <time>2022-09-25T10:56:54Z</time>
      </trkpt>
      <trkpt lat="45.69218" lon="5.50981">
        <ele>207.9</ele>
        <time>2022-09-25T10:56:55Z</time>
      </trkpt>
      <trkpt lat="45.69217" lon="5.50988">
        <ele>207.8</ele>
        <time>2022-09-25T10:56:56Z</time>
      </trkpt>
      <trkpt lat="45.69215" lon="5.50995">
        <ele>207.8</ele>
        <time>2022-09-25T10:56:57Z</time>
      </trkpt>
      <trkpt lat="45.69213" lon="5.51002">
        <ele>207.8</ele>
        <time>2022-09-25T10:56:58Z</time>
      </trkpt>
      <trkpt lat="45.6921" lon="5.51009">
        <ele>207.8</ele>
        <time>2022-09-25T10:56:59Z</time>
      </trkpt>
      <trkpt lat="45.69208" lon="5.51016">
        <ele>207.8</ele>
        <time>2022-09-25T10:57:00Z</time>
      </trkpt>
      <trkpt lat="45.69205" lon="5.51022">
        <ele>207.8</ele>
        <time>2022-09-25T10:57:01Z</time>
      </trkpt>
      <trkpt lat="45.69203" lon="5.51029">
        <ele>207.8</ele>
        <time>2022-09-25T10:57:02Z</time>
      </trkpt>
      <trkpt lat="45.692" lon="5.51035">
        <ele>207.7</ele>
        <time>2022-09-25T10:57:03Z</time>
      </trkpt>
      <trkpt lat="45.69198" lon="5.51042">
        <ele>207.7</ele>
        <time>2022-09-25T10:57:04Z</time>
      </trkpt>
      <trkpt lat="45.69196" lon="5.51048">
        <ele>207.7</ele>
        <time>2022-09-25T10:57:05Z</time>
      </trkpt>
      <trkpt lat="45.69193" lon="5.51055">
        <ele>207.7</ele>
        <time>2022-09-25T10:57:06Z</time>
      </trkpt>
      <trkpt lat="45.69191" lon="5.51062">
        <ele>207.7</ele>
        <time>2022-09-25T10:57:07Z</time>
      </trkpt>
      <trkpt lat="45.6919" lon="5.51069">
        <ele>207.7</ele>
        <time>2022-09-25T10:57:08Z</time>
      </trkpt>
      <trkpt lat="45.69189" lon="5.51077">
        <ele>207.7</ele>
        <time>2022-09-25T10:57:09Z</time>
      </trkpt>
      <trkpt lat="45.69188" lon="5.51084">
        <ele>207.7</ele>
        <time>2022-09-25T10:57:10Z</time>
      </trkpt>
      <trkpt lat="45.69187" lon="5.51092">
        <ele>207.7</ele>
        <time>2022-09-25T10:57:11Z</time>
      </trkpt>
      <trkpt lat="45.69186" lon="5.51099">
        <ele>207.7</ele>
        <time>2022-09-25T10:57:12Z</time>
      </trkpt>
      <trkpt lat="45.69185" lon="5.51106">
        <ele>207.7</ele>
        <time>2022-09-25T10:57:13Z</time>
      </trkpt>
      <trkpt lat="45.69184" lon="5.51113">
        <ele>207.7</ele>
        <time>2022-09-25T10:57:14Z</time>
      </trkpt>
      <trkpt lat="45.69183" lon="5.51121">
        <ele>207.7</ele>
        <time>2022-09-25T10:57:15Z</time>
      </trkpt>
      <trkpt lat="45.69182" lon="5.51128">
        <ele>207.8</ele>
        <time>2022-09-25T10:57:16Z</time>
      </trkpt>
      <trkpt lat="45.69181" lon="5.51135">
        <ele>207.8</ele>
        <time>2022-09-25T10:57:17Z</time>
      </trkpt>
      <trkpt lat="45.69179" lon="5.51142">
        <ele>207.8</ele>
        <time>2022-09-25T10:57:18Z</time>
      </trkpt>
      <trkpt lat="45.69178" lon="5.51149">
        <ele>207.9</ele>
        <time>2022-09-25T10:57:19Z</time>
      </trkpt>
      <trkpt lat="45.69176" lon="5.51155">
        <ele>207.9</ele>
        <time>2022-09-25T10:57:20Z</time>
      </trkpt>
      <trkpt lat="45.69175" lon="5.51162">
        <ele>208</ele>
        <time>2022-09-25T10:57:21Z</time>
      </trkpt>
      <trkpt lat="45.69173" lon="5.51168">
        <ele>208</ele>
        <time>2022-09-25T10:57:22Z</time>
      </trkpt>
      <trkpt lat="45.69172" lon="5.51174">
        <ele>208.1</ele>
        <time>2022-09-25T10:57:23Z</time>
      </trkpt>
      <trkpt lat="45.6917" lon="5.51181">
        <ele>208.1</ele>
        <time>2022-09-25T10:57:24Z</time>
      </trkpt>
      <trkpt lat="45.69168" lon="5.51188">
        <ele>208.1</ele>
        <time>2022-09-25T10:57:25Z</time>
      </trkpt>
      <trkpt lat="45.69167" lon="5.51195">
        <ele>208.1</ele>
        <time>2022-09-25T10:57:26Z</time>
      </trkpt>
      <trkpt lat="45.69165" lon="5.51203">
        <ele>208.1</ele>
        <time>2022-09-25T10:57:27Z</time>
      </trkpt>
      <trkpt lat="45.69163" lon="5.5121">
        <ele>208.1</ele>
        <time>2022-09-25T10:57:28Z</time>
      </trkpt>
      <trkpt lat="45.69161" lon="5.51217">
        <ele>208.2</ele>
        <time>2022-09-25T10:57:29Z</time>
      </trkpt>
      <trkpt lat="45.69159" lon="5.51223">
        <ele>208.2</ele>
        <time>2022-09-25T10:57:30Z</time>
      </trkpt>
      <trkpt lat="45.69157" lon="5.5123">
        <ele>208.2</ele>
        <time>2022-09-25T10:57:31Z</time>
      </trkpt>
      <trkpt lat="45.69154" lon="5.51237">
        <ele>208.2</ele>
        <time>2022-09-25T10:57:32Z</time>
      </trkpt>
      <trkpt lat="45.69152" lon="5.51243">
        <ele>208.2</ele>
        <time>2022-09-25T10:57:33Z</time>
      </trkpt>
      <trkpt lat="45.69149" lon="5.51249">
        <ele>208.2</ele>
        <time>2022-09-25T10:57:34Z</time>
      </trkpt>
      <trkpt lat="45.69144" lon="5.51253">
        <ele>208.2</ele>
        <time>2022-09-25T10:57:35Z</time>
      </trkpt>
      <trkpt lat="45.69139" lon="5.51255">
        <ele>208.1</ele>
        <time>2022-09-25T10:57:36Z</time>
      </trkpt>
      <trkpt lat="45.69134" lon="5.51255">
        <ele>208.1</ele>
        <time>2022-09-25T10:57:37Z</time>
      </trkpt>
      <trkpt lat="45.69128" lon="5.51254">
        <ele>208</ele>
        <time>2022-09-25T10:57:38Z</time>
      </trkpt>
      <trkpt lat="45.69122" lon="5.51253">
        <ele>208</ele>
        <time>2022-09-25T10:57:39Z</time>
      </trkpt>
      <trkpt lat="45.69117" lon="5.51252">
        <ele>208</ele>
        <time>2022-09-25T10:57:40Z</time>
      </trkpt>
      <trkpt lat="45.69111" lon="5.51252">
        <ele>208</ele>
        <time>2022-09-25T10:57:41Z</time>
      </trkpt>
      <trkpt lat="45.69105" lon="5.51253">
        <ele>208</ele>
        <time>2022-09-25T10:57:42Z</time>
      </trkpt>
      <trkpt lat="45.691" lon="5.51254">
        <ele>208</ele>
        <time>2022-09-25T10:57:43Z</time>
      </trkpt>
      <trkpt lat="45.69094" lon="5.51254">
        <ele>208</ele>
        <time>2022-09-25T10:57:44Z</time>
      </trkpt>
      <trkpt lat="45.69089" lon="5.51255">
        <ele>208.1</ele>
        <time>2022-09-25T10:57:45Z</time>
      </trkpt>
      <trkpt lat="45.69085" lon="5.51256">
        <ele>208.1</ele>
        <time>2022-09-25T10:57:46Z</time>
      </trkpt>
      <trkpt lat="45.69082" lon="5.51259">
        <ele>208.2</ele>
        <time>2022-09-25T10:57:47Z</time>
      </trkpt>
      <trkpt lat="45.69081" lon="5.51265">
        <ele>208.1</ele>
        <time>2022-09-25T10:57:48Z</time>
      </trkpt>
      <trkpt lat="45.69081" lon="5.51271">
        <ele>208</ele>
        <time>2022-09-25T10:57:49Z</time>
      </trkpt>
      <trkpt lat="45.69083" lon="5.51277">
        <ele>208</ele>
        <time>2022-09-25T10:57:50Z</time>
      </trkpt>
      <trkpt lat="45.69084" lon="5.51282">
        <ele>207.9</ele>
        <time>2022-09-25T10:57:51Z</time>
      </trkpt>
      <trkpt lat="45.69085" lon="5.51288">
        <ele>207.9</ele>
        <time>2022-09-25T10:57:52Z</time>
      </trkpt>
      <trkpt lat="45.69086" lon="5.51295">
        <ele>207.8</ele>
        <time>2022-09-25T10:57:53Z</time>
      </trkpt>
      <trkpt lat="45.69087" lon="5.51302">
        <ele>207.8</ele>
        <time>2022-09-25T10:57:54Z</time>
      </trkpt>
      <trkpt lat="45.69087" lon="5.51308">
        <ele>207.8</ele>
        <time>2022-09-25T10:57:55Z</time>
      </trkpt>
      <trkpt lat="45.69086" lon="5.51316">
        <ele>207.7</ele>
        <time>2022-09-25T10:57:56Z</time>
      </trkpt>
      <trkpt lat="45.69087" lon="5.51323">
        <ele>207.7</ele>
        <time>2022-09-25T10:57:57Z</time>
      </trkpt>
      <trkpt lat="45.69087" lon="5.51331">
        <ele>207.7</ele>
        <time>2022-09-25T10:57:58Z</time>
      </trkpt>
      <trkpt lat="45.69088" lon="5.51338">
        <ele>207.7</ele>
        <time>2022-09-25T10:57:59Z</time>
      </trkpt>
      <trkpt lat="45.69089" lon="5.51347">
        <ele>207.6</ele>
        <time>2022-09-25T10:58:00Z</time>
      </trkpt>
      <trkpt lat="45.69089" lon="5.51354">
        <ele>207.6</ele>
        <time>2022-09-25T10:58:01Z</time>
      </trkpt>
      <trkpt lat="45.6909" lon="5.51362">
        <ele>207.6</ele>
        <time>2022-09-25T10:58:02Z</time>
      </trkpt>
      <trkpt lat="45.69091" lon="5.51369">
        <ele>207.6</ele>
        <time>2022-09-25T10:58:03Z</time>
      </trkpt>
      <trkpt lat="45.69092" lon="5.51377">
        <ele>207.6</ele>
        <time>2022-09-25T10:58:04Z</time>
      </trkpt>
      <trkpt lat="45.69093" lon="5.51384">
        <ele>207.7</ele>
        <time>2022-09-25T10:58:05Z</time>
      </trkpt>
      <trkpt lat="45.69094" lon="5.51393">
        <ele>207.7</ele>
        <time>2022-09-25T10:58:06Z</time>
      </trkpt>
      <trkpt lat="45.69094" lon="5.51401">
        <ele>207.7</ele>
        <time>2022-09-25T10:58:07Z</time>
      </trkpt>
      <trkpt lat="45.69095" lon="5.51408">
        <ele>207.7</ele>
        <time>2022-09-25T10:58:08Z</time>
      </trkpt>
      <trkpt lat="45.69096" lon="5.51415">
        <ele>207.7</ele>
        <time>2022-09-25T10:58:09Z</time>
      </trkpt>
      <trkpt lat="45.69097" lon="5.51423">
        <ele>207.7</ele>
        <time>2022-09-25T10:58:10Z</time>
      </trkpt>
      <trkpt lat="45.69098" lon="5.5143">
        <ele>207.7</ele>
        <time>2022-09-25T10:58:11Z</time>
      </trkpt>
      <trkpt lat="45.69098" lon="5.51438">
        <ele>207.7</ele>
        <time>2022-09-25T10:58:12Z</time>
      </trkpt>
      <trkpt lat="45.69099" lon="5.51445">
        <ele>207.7</ele>
        <time>2022-09-25T10:58:13Z</time>
      </trkpt>
      <trkpt lat="45.691" lon="5.51454">
        <ele>207.7</ele>
        <time>2022-09-25T10:58:14Z</time>
      </trkpt>
      <trkpt lat="45.69101" lon="5.51462">
        <ele>207.7</ele>
        <time>2022-09-25T10:58:15Z</time>
      </trkpt>
      <trkpt lat="45.69101" lon="5.5147">
        <ele>207.7</ele>
        <time>2022-09-25T10:58:16Z</time>
      </trkpt>
      <trkpt lat="45.69102" lon="5.51477">
        <ele>207.7</ele>
        <time>2022-09-25T10:58:17Z</time>
      </trkpt>
      <trkpt lat="45.69103" lon="5.51485">
        <ele>207.7</ele>
        <time>2022-09-25T10:58:18Z</time>
      </trkpt>
      <trkpt lat="45.69104" lon="5.51493">
        <ele>207.7</ele>
        <time>2022-09-25T10:58:19Z</time>
      </trkpt>
      <trkpt lat="45.69104" lon="5.515">
        <ele>207.7</ele>
        <time>2022-09-25T10:58:20Z</time>
      </trkpt>
      <trkpt lat="45.69105" lon="5.51507">
        <ele>207.7</ele>
        <time>2022-09-25T10:58:21Z</time>
      </trkpt>
      <trkpt lat="45.69106" lon="5.51514">
        <ele>207.7</ele>
        <time>2022-09-25T10:58:22Z</time>
      </trkpt>
      <trkpt lat="45.69106" lon="5.51522">
        <ele>207.7</ele>
        <time>2022-09-25T10:58:23Z</time>
      </trkpt>
      <trkpt lat="45.69107" lon="5.51529">
        <ele>207.7</ele>
        <time>2022-09-25T10:58:24Z</time>
      </trkpt>
      <trkpt lat="45.69108" lon="5.51536">
        <ele>207.8</ele>
        <time>2022-09-25T10:58:25Z</time>
      </trkpt>
      <trkpt lat="45.69109" lon="5.51542">
        <ele>207.8</ele>
        <time>2022-09-25T10:58:26Z</time>
      </trkpt>
      <trkpt lat="45.6911" lon="5.5155">
        <ele>207.9</ele>
        <time>2022-09-25T10:58:27Z</time>
      </trkpt>
      <trkpt lat="45.69111" lon="5.51557">
        <ele>207.9</ele>
        <time>2022-09-25T10:58:28Z</time>
      </trkpt>
      <trkpt lat="45.69112" lon="5.51564">
        <ele>208</ele>
        <time>2022-09-25T10:58:29Z</time>
      </trkpt>
      <trkpt lat="45.69113" lon="5.51571">
        <ele>208.1</ele>
        <time>2022-09-25T10:58:30Z</time>
      </trkpt>
      <trkpt lat="45.69114" lon="5.51577">
        <ele>208.2</ele>
        <time>2022-09-25T10:58:31Z</time>
      </trkpt>
      <trkpt lat="45.69114" lon="5.51584">
        <ele>208.3</ele>
        <time>2022-09-25T10:58:32Z</time>
      </trkpt>
      <trkpt lat="45.69114" lon="5.5159">
        <ele>208.4</ele>
        <time>2022-09-25T10:58:33Z</time>
      </trkpt>
      <trkpt lat="45.69113" lon="5.51594">
        <ele>208.5</ele>
        <time>2022-09-25T10:58:34Z</time>
      </trkpt>
      <trkpt lat="45.69113" lon="5.51598">
        <ele>208.6</ele>
        <time>2022-09-25T10:58:35Z</time>
      </trkpt>
      <trkpt lat="45.69115" lon="5.51603">
        <ele>208.7</ele>
        <time>2022-09-25T10:58:36Z</time>
      </trkpt>
      <trkpt lat="45.69115" lon="5.51605">
        <ele>208.7</ele>
        <time>2022-09-25T10:58:37Z</time>
      </trkpt>
      <trkpt lat="45.69118" lon="5.51608">
        <ele>208.7</ele>
        <time>2022-09-25T10:58:38Z</time>
      </trkpt>
      <trkpt lat="45.6912" lon="5.5161">
        <ele>208.7</ele>
        <time>2022-09-25T10:58:39Z</time>
      </trkpt>
      <trkpt lat="45.69124" lon="5.51611">
        <ele>208.7</ele>
        <time>2022-09-25T10:58:40Z</time>
      </trkpt>
      <trkpt lat="45.69127" lon="5.51613">
        <ele>208.7</ele>
        <time>2022-09-25T10:58:41Z</time>
      </trkpt>
      <trkpt lat="45.6913" lon="5.51615">
        <ele>208.7</ele>
        <time>2022-09-25T10:58:42Z</time>
      </trkpt>
      <trkpt lat="45.69134" lon="5.51618">
        <ele>208.7</ele>
        <time>2022-09-25T10:58:43Z</time>
      </trkpt>
      <trkpt lat="45.69137" lon="5.51621">
        <ele>208.6</ele>
        <time>2022-09-25T10:58:44Z</time>
      </trkpt>
      <trkpt lat="45.69141" lon="5.51623">
        <ele>208.6</ele>
        <time>2022-09-25T10:58:45Z</time>
      </trkpt>
      <trkpt lat="45.69144" lon="5.51625">
        <ele>208.6</ele>
        <time>2022-09-25T10:58:46Z</time>
      </trkpt>
      <trkpt lat="45.69147" lon="5.51629">
        <ele>208.6</ele>
        <time>2022-09-25T10:58:47Z</time>
      </trkpt>
      <trkpt lat="45.69151" lon="5.51632">
        <ele>208.6</ele>
        <time>2022-09-25T10:58:48Z</time>
      </trkpt>
      <trkpt lat="45.69155" lon="5.51635">
        <ele>208.7</ele>
        <time>2022-09-25T10:58:49Z</time>
      </trkpt>
      <trkpt lat="45.69159" lon="5.51638">
        <ele>208.7</ele>
        <time>2022-09-25T10:58:50Z</time>
      </trkpt>
      <trkpt lat="45.69163" lon="5.51641">
        <ele>208.7</ele>
        <time>2022-09-25T10:58:51Z</time>
      </trkpt>
      <trkpt lat="45.69167" lon="5.51645">
        <ele>208.7</ele>
        <time>2022-09-25T10:58:52Z</time>
      </trkpt>
      <trkpt lat="45.69171" lon="5.51648">
        <ele>208.7</ele>
        <time>2022-09-25T10:58:53Z</time>
      </trkpt>
      <trkpt lat="45.69175" lon="5.5165">
        <ele>208.7</ele>
        <time>2022-09-25T10:58:54Z</time>
      </trkpt>
      <trkpt lat="45.69179" lon="5.51654">
        <ele>208.7</ele>
        <time>2022-09-25T10:58:55Z</time>
      </trkpt>
      <trkpt lat="45.69183" lon="5.51657">
        <ele>208.8</ele>
        <time>2022-09-25T10:58:56Z</time>
      </trkpt>
      <trkpt lat="45.69187" lon="5.5166">
        <ele>208.8</ele>
        <time>2022-09-25T10:58:57Z</time>
      </trkpt>
      <trkpt lat="45.69191" lon="5.51663">
        <ele>208.8</ele>
        <time>2022-09-25T10:58:58Z</time>
      </trkpt>
      <trkpt lat="45.69196" lon="5.51666">
        <ele>208.8</ele>
        <time>2022-09-25T10:58:59Z</time>
      </trkpt>
      <trkpt lat="45.692" lon="5.51668">
        <ele>208.9</ele>
        <time>2022-09-25T10:59:00Z</time>
      </trkpt>
      <trkpt lat="45.69204" lon="5.51671">
        <ele>208.8</ele>
        <time>2022-09-25T10:59:01Z</time>
      </trkpt>
      <trkpt lat="45.69209" lon="5.51675">
        <ele>208.8</ele>
        <time>2022-09-25T10:59:02Z</time>
      </trkpt>
      <trkpt lat="45.69213" lon="5.51678">
        <ele>208.8</ele>
        <time>2022-09-25T10:59:03Z</time>
      </trkpt>
      <trkpt lat="45.69218" lon="5.51681">
        <ele>208.8</ele>
        <time>2022-09-25T10:59:04Z</time>
      </trkpt>
      <trkpt lat="45.69222" lon="5.51685">
        <ele>208.8</ele>
        <time>2022-09-25T10:59:05Z</time>
      </trkpt>
      <trkpt lat="45.69226" lon="5.51689">
        <ele>208.8</ele>
        <time>2022-09-25T10:59:06Z</time>
      </trkpt>
      <trkpt lat="45.69229" lon="5.51692">
        <ele>208.8</ele>
        <time>2022-09-25T10:59:07Z</time>
      </trkpt>
      <trkpt lat="45.69232" lon="5.51695">
        <ele>208.8</ele>
        <time>2022-09-25T10:59:08Z</time>
      </trkpt>
      <trkpt lat="45.69236" lon="5.51699">
        <ele>208.8</ele>
        <time>2022-09-25T10:59:09Z</time>
      </trkpt>
      <trkpt lat="45.6924" lon="5.51702">
        <ele>208.8</ele>
        <time>2022-09-25T10:59:10Z</time>
      </trkpt>
      <trkpt lat="45.69244" lon="5.51705">
        <ele>208.8</ele>
        <time>2022-09-25T10:59:11Z</time>
      </trkpt>
      <trkpt lat="45.69248" lon="5.51708">
        <ele>208.8</ele>
        <time>2022-09-25T10:59:12Z</time>
      </trkpt>
      <trkpt lat="45.69252" lon="5.51712">
        <ele>208.8</ele>
        <time>2022-09-25T10:59:13Z</time>
      </trkpt>
      <trkpt lat="45.69257" lon="5.51715">
        <ele>208.8</ele>
        <time>2022-09-25T10:59:14Z</time>
      </trkpt>
      <trkpt lat="45.69262" lon="5.51719">
        <ele>208.8</ele>
        <time>2022-09-25T10:59:15Z</time>
      </trkpt>
      <trkpt lat="45.69267" lon="5.51722">
        <ele>208.8</ele>
        <time>2022-09-25T10:59:16Z</time>
      </trkpt>
      <trkpt lat="45.69272" lon="5.51725">
        <ele>208.8</ele>
        <time>2022-09-25T10:59:17Z</time>
      </trkpt>
      <trkpt lat="45.69276" lon="5.51729">
        <ele>208.8</ele>
        <time>2022-09-25T10:59:18Z</time>
      </trkpt>
      <trkpt lat="45.69281" lon="5.51732">
        <ele>208.8</ele>
        <time>2022-09-25T10:59:19Z</time>
      </trkpt>
      <trkpt lat="45.69285" lon="5.51736">
        <ele>208.8</ele>
        <time>2022-09-25T10:59:20Z</time>
      </trkpt>
      <trkpt lat="45.6929" lon="5.51739">
        <ele>208.8</ele>
        <time>2022-09-25T10:59:21Z</time>
      </trkpt>
      <trkpt lat="45.69293" lon="5.51741">
        <ele>208.8</ele>
        <time>2022-09-25T10:59:22Z</time>
      </trkpt>
      <trkpt lat="45.69297" lon="5.51744">
        <ele>208.9</ele>
        <time>2022-09-25T10:59:23Z</time>
      </trkpt>
      <trkpt lat="45.69299" lon="5.51749">
        <ele>208.9</ele>
        <time>2022-09-25T10:59:24Z</time>
      </trkpt>
      <trkpt lat="45.69301" lon="5.51751">
        <ele>208.9</ele>
        <time>2022-09-25T10:59:25Z</time>
      </trkpt>
      <trkpt lat="45.69304" lon="5.51754">
        <ele>208.9</ele>
        <time>2022-09-25T10:59:26Z</time>
      </trkpt>
      <trkpt lat="45.69307" lon="5.51757">
        <ele>209</ele>
        <time>2022-09-25T10:59:27Z</time>
      </trkpt>
      <trkpt lat="45.69311" lon="5.51761">
        <ele>209</ele>
        <time>2022-09-25T10:59:28Z</time>
      </trkpt>
      <trkpt lat="45.69315" lon="5.51764">
        <ele>209</ele>
        <time>2022-09-25T10:59:29Z</time>
      </trkpt>
      <trkpt lat="45.69318" lon="5.51767">
        <ele>209</ele>
        <time>2022-09-25T10:59:30Z</time>
      </trkpt>
      <trkpt lat="45.69321" lon="5.51769">
        <ele>209</ele>
        <time>2022-09-25T10:59:31Z</time>
      </trkpt>
      <trkpt lat="45.69324" lon="5.51772">
        <ele>209</ele>
        <time>2022-09-25T10:59:32Z</time>
      </trkpt>
      <trkpt lat="45.69327" lon="5.51775">
        <ele>209</ele>
        <time>2022-09-25T10:59:33Z</time>
      </trkpt>
      <trkpt lat="45.69331" lon="5.51779">
        <ele>209</ele>
        <time>2022-09-25T10:59:34Z</time>
      </trkpt>
      <trkpt lat="45.69335" lon="5.51782">
        <ele>209</ele>
        <time>2022-09-25T10:59:35Z</time>
      </trkpt>
      <trkpt lat="45.6934" lon="5.51787">
        <ele>209</ele>
        <time>2022-09-25T10:59:36Z</time>
      </trkpt>
      <trkpt lat="45.69343" lon="5.5179">
        <ele>209</ele>
        <time>2022-09-25T10:59:37Z</time>
      </trkpt>
      <trkpt lat="45.69348" lon="5.51794">
        <ele>209</ele>
        <time>2022-09-25T10:59:38Z</time>
      </trkpt>
      <trkpt lat="45.69352" lon="5.51798">
        <ele>209</ele>
        <time>2022-09-25T10:59:39Z</time>
      </trkpt>
      <trkpt lat="45.69356" lon="5.51802">
        <ele>209</ele>
        <time>2022-09-25T10:59:40Z</time>
      </trkpt>
      <trkpt lat="45.69361" lon="5.51808">
        <ele>209</ele>
        <time>2022-09-25T10:59:41Z</time>
      </trkpt>
      <trkpt lat="45.69366" lon="5.51813">
        <ele>208.9</ele>
        <time>2022-09-25T10:59:42Z</time>
      </trkpt>
      <trkpt lat="45.69371" lon="5.5182">
        <ele>208.9</ele>
        <time>2022-09-25T10:59:43Z</time>
      </trkpt>
      <trkpt lat="45.69376" lon="5.51827">
        <ele>208.9</ele>
        <time>2022-09-25T10:59:44Z</time>
      </trkpt>
      <trkpt lat="45.6938" lon="5.51833">
        <ele>208.9</ele>
        <time>2022-09-25T10:59:45Z</time>
      </trkpt>
      <trkpt lat="45.69386" lon="5.51838">
        <ele>209</ele>
        <time>2022-09-25T10:59:46Z</time>
      </trkpt>
      <trkpt lat="45.6939" lon="5.51843">
        <ele>209</ele>
        <time>2022-09-25T10:59:47Z</time>
      </trkpt>
      <trkpt lat="45.69393" lon="5.51848">
        <ele>209</ele>
        <time>2022-09-25T10:59:48Z</time>
      </trkpt>
      <trkpt lat="45.69396" lon="5.51854">
        <ele>209</ele>
        <time>2022-09-25T10:59:49Z</time>
      </trkpt>
      <trkpt lat="45.694" lon="5.51859">
        <ele>209</ele>
        <time>2022-09-25T10:59:50Z</time>
      </trkpt>
      <trkpt lat="45.69403" lon="5.51864">
        <ele>209</ele>
        <time>2022-09-25T10:59:51Z</time>
      </trkpt>
      <trkpt lat="45.69406" lon="5.51869">
        <ele>209</ele>
        <time>2022-09-25T10:59:52Z</time>
      </trkpt>
      <trkpt lat="45.69409" lon="5.51873">
        <ele>209</ele>
        <time>2022-09-25T10:59:53Z</time>
      </trkpt>
      <trkpt lat="45.69412" lon="5.51878">
        <ele>208.9</ele>
        <time>2022-09-25T10:59:54Z</time>
      </trkpt>
      <trkpt lat="45.69415" lon="5.51882">
        <ele>208.9</ele>
        <time>2022-09-25T10:59:55Z</time>
      </trkpt>
      <trkpt lat="45.69417" lon="5.51885">
        <ele>208.9</ele>
        <time>2022-09-25T10:59:56Z</time>
      </trkpt>
      <trkpt lat="45.6942" lon="5.5189">
        <ele>208.9</ele>
        <time>2022-09-25T10:59:57Z</time>
      </trkpt>
      <trkpt lat="45.69423" lon="5.51895">
        <ele>208.9</ele>
        <time>2022-09-25T10:59:58Z</time>
      </trkpt>
      <trkpt lat="45.69426" lon="5.519">
        <ele>208.8</ele>
        <time>2022-09-25T10:59:59Z</time>
      </trkpt>
      <trkpt lat="45.69429" lon="5.51905">
        <ele>208.8</ele>
        <time>2022-09-25T11:00:00Z</time>
      </trkpt>
      <trkpt lat="45.69434" lon="5.51914">
        <ele>208.8</ele>
        <time>2022-09-25T11:00:01Z</time>
      </trkpt>
      <trkpt lat="45.69437" lon="5.51919">
        <ele>208.8</ele>
        <time>2022-09-25T11:00:02Z</time>
      </trkpt>
      <trkpt lat="45.6944" lon="5.51924">
        <ele>208.7</ele>
        <time>2022-09-25T11:00:03Z</time>
      </trkpt>
      <trkpt lat="45.69444" lon="5.5193">
        <ele>208.7</ele>
        <time>2022-09-25T11:00:04Z</time>
      </trkpt>
      <trkpt lat="45.69448" lon="5.51936">
        <ele>208.7</ele>
        <time>2022-09-25T11:00:05Z</time>
      </trkpt>
      <trkpt lat="45.69451" lon="5.51941">
        <ele>208.7</ele>
        <time>2022-09-25T11:00:06Z</time>
      </trkpt>
      <trkpt lat="45.69455" lon="5.51947">
        <ele>208.7</ele>
        <time>2022-09-25T11:00:07Z</time>
      </trkpt>
      <trkpt lat="45.69458" lon="5.51953">
        <ele>208.6</ele>
        <time>2022-09-25T11:00:08Z</time>
      </trkpt>
      <trkpt lat="45.69462" lon="5.51959">
        <ele>208.6</ele>
        <time>2022-09-25T11:00:09Z</time>
      </trkpt>
      <trkpt lat="45.69466" lon="5.51965">
        <ele>208.6</ele>
        <time>2022-09-25T11:00:10Z</time>
      </trkpt>
      <trkpt lat="45.69469" lon="5.5197">
        <ele>208.7</ele>
        <time>2022-09-25T11:00:11Z</time>
      </trkpt>
      <trkpt lat="45.69472" lon="5.51975">
        <ele>208.7</ele>
        <time>2022-09-25T11:00:12Z</time>
      </trkpt>
      <trkpt lat="45.69475" lon="5.5198">
        <ele>208.7</ele>
        <time>2022-09-25T11:00:13Z</time>
      </trkpt>
      <trkpt lat="45.69478" lon="5.51984">
        <ele>208.7</ele>
        <time>2022-09-25T11:00:14Z</time>
      </trkpt>
      <trkpt lat="45.6948" lon="5.51988">
        <ele>208.7</ele>
        <time>2022-09-25T11:00:15Z</time>
      </trkpt>
      <trkpt lat="45.69483" lon="5.51993">
        <ele>208.7</ele>
        <time>2022-09-25T11:00:16Z</time>
      </trkpt>
      <trkpt lat="45.69487" lon="5.51999">
        <ele>208.7</ele>
        <time>2022-09-25T11:00:17Z</time>
      </trkpt>
      <trkpt lat="45.69491" lon="5.52005">
        <ele>208.7</ele>
        <time>2022-09-25T11:00:18Z</time>
      </trkpt>
      <trkpt lat="45.69495" lon="5.52011">
        <ele>208.7</ele>
        <time>2022-09-25T11:00:19Z</time>
      </trkpt>
      <trkpt lat="45.69498" lon="5.52016">
        <ele>208.7</ele>
        <time>2022-09-25T11:00:20Z</time>
      </trkpt>
      <trkpt lat="45.69502" lon="5.52023">
        <ele>208.7</ele>
        <time>2022-09-25T11:00:21Z</time>
      </trkpt>
      <trkpt lat="45.69505" lon="5.52028">
        <ele>208.8</ele>
        <time>2022-09-25T11:00:22Z</time>
      </trkpt>
      <trkpt lat="45.69508" lon="5.52033">
        <ele>208.8</ele>
        <time>2022-09-25T11:00:23Z</time>
      </trkpt>
      <trkpt lat="45.69512" lon="5.52037">
        <ele>208.9</ele>
        <time>2022-09-25T11:00:24Z</time>
      </trkpt>
      <trkpt lat="45.69514" lon="5.52041">
        <ele>208.9</ele>
        <time>2022-09-25T11:00:25Z</time>
      </trkpt>
      <trkpt lat="45.69517" lon="5.52046">
        <ele>209</ele>
        <time>2022-09-25T11:00:26Z</time>
      </trkpt>
      <trkpt lat="45.6952" lon="5.5205">
        <ele>209</ele>
        <time>2022-09-25T11:00:27Z</time>
      </trkpt>
      <trkpt lat="45.69523" lon="5.52055">
        <ele>209.1</ele>
        <time>2022-09-25T11:00:28Z</time>
      </trkpt>
      <trkpt lat="45.69525" lon="5.52058">
        <ele>209.2</ele>
        <time>2022-09-25T11:00:29Z</time>
      </trkpt>
      <trkpt lat="45.69527" lon="5.52061">
        <ele>209.2</ele>
        <time>2022-09-25T11:00:30Z</time>
      </trkpt>
      <trkpt lat="45.6953" lon="5.52066">
        <ele>209.3</ele>
        <time>2022-09-25T11:00:31Z</time>
      </trkpt>
      <trkpt lat="45.69533" lon="5.5207">
        <ele>209.4</ele>
        <time>2022-09-25T11:00:32Z</time>
      </trkpt>
      <trkpt lat="45.69536" lon="5.52074">
        <ele>209.5</ele>
        <time>2022-09-25T11:00:33Z</time>
      </trkpt>
      <trkpt lat="45.69538" lon="5.52078">
        <ele>209.6</ele>
        <time>2022-09-25T11:00:34Z</time>
      </trkpt>
      <trkpt lat="45.6954" lon="5.52081">
        <ele>209.7</ele>
        <time>2022-09-25T11:00:35Z</time>
      </trkpt>
      <trkpt lat="45.69543" lon="5.52085">
        <ele>209.9</ele>
        <time>2022-09-25T11:00:36Z</time>
      </trkpt>
      <trkpt lat="45.69546" lon="5.52089">
        <ele>210</ele>
        <time>2022-09-25T11:00:37Z</time>
      </trkpt>
      <trkpt lat="45.69549" lon="5.52094">
        <ele>210.2</ele>
        <time>2022-09-25T11:00:38Z</time>
      </trkpt>
      <trkpt lat="45.69553" lon="5.52099">
        <ele>210.4</ele>
        <time>2022-09-25T11:00:39Z</time>
      </trkpt>
      <trkpt lat="45.69555" lon="5.52104">
        <ele>210.6</ele>
        <time>2022-09-25T11:00:40Z</time>
      </trkpt>
      <trkpt lat="45.69558" lon="5.52108">
        <ele>210.8</ele>
        <time>2022-09-25T11:00:41Z</time>
      </trkpt>
      <trkpt lat="45.69559" lon="5.52114">
        <ele>211</ele>
        <time>2022-09-25T11:00:42Z</time>
      </trkpt>
      <trkpt lat="45.69562" lon="5.52118">
        <ele>211.2</ele>
        <time>2022-09-25T11:00:43Z</time>
      </trkpt>
      <trkpt lat="45.69564" lon="5.52121">
        <ele>211.4</ele>
        <time>2022-09-25T11:00:44Z</time>
      </trkpt>
      <trkpt lat="45.69566" lon="5.52125">
        <ele>211.6</ele>
        <time>2022-09-25T11:00:45Z</time>
      </trkpt>
      <trkpt lat="45.69568" lon="5.52128">
        <ele>211.8</ele>
        <time>2022-09-25T11:00:46Z</time>
      </trkpt>
      <trkpt lat="45.6957" lon="5.52131">
        <ele>212</ele>
        <time>2022-09-25T11:00:47Z</time>
      </trkpt>
      <trkpt lat="45.69572" lon="5.52134">
        <ele>212.2</ele>
        <time>2022-09-25T11:00:48Z</time>
      </trkpt>
      <trkpt lat="45.69574" lon="5.52137">
        <ele>212.4</ele>
        <time>2022-09-25T11:00:49Z</time>
      </trkpt>
      <trkpt lat="45.69576" lon="5.52141">
        <ele>212.6</ele>
        <time>2022-09-25T11:00:50Z</time>
      </trkpt>
      <trkpt lat="45.69578" lon="5.52144">
        <ele>212.8</ele>
        <time>2022-09-25T11:00:51Z</time>
      </trkpt>
      <trkpt lat="45.69581" lon="5.52148">
        <ele>213.1</ele>
        <time>2022-09-25T11:00:52Z</time>
      </trkpt>
      <trkpt lat="45.69582" lon="5.52149">
        <ele>213.2</ele>
        <time>2022-09-25T11:00:53Z</time>
      </trkpt>
      <trkpt lat="45.69584" lon="5.52153">
        <ele>213.4</ele>
        <time>2022-09-25T11:00:54Z</time>
      </trkpt>
      <trkpt lat="45.69585" lon="5.52154">
        <ele>213.5</ele>
        <time>2022-09-25T11:00:55Z</time>
      </trkpt>
      <trkpt lat="45.69587" lon="5.52157">
        <ele>213.8</ele>
        <time>2022-09-25T11:00:56Z</time>
      </trkpt>
      <trkpt lat="45.69588" lon="5.52159">
        <ele>213.9</ele>
        <time>2022-09-25T11:00:57Z</time>
      </trkpt>
      <trkpt lat="45.6959" lon="5.52162">
        <ele>214.1</ele>
        <time>2022-09-25T11:00:58Z</time>
      </trkpt>
      <trkpt lat="45.6959" lon="5.52163">
        <ele>214.2</ele>
        <time>2022-09-25T11:00:59Z</time>
      </trkpt>
      <trkpt lat="45.69592" lon="5.52165">
        <ele>214.3</ele>
        <time>2022-09-25T11:01:00Z</time>
      </trkpt>
      <trkpt lat="45.69592" lon="5.52166">
        <ele>214.4</ele>
        <time>2022-09-25T11:01:01Z</time>
      </trkpt>
      <trkpt lat="45.69594" lon="5.52168">
        <ele>214.5</ele>
        <time>2022-09-25T11:01:02Z</time>
      </trkpt>
      <trkpt lat="45.69594" lon="5.52169">
        <ele>214.6</ele>
        <time>2022-09-25T11:01:03Z</time>
      </trkpt>
      <trkpt lat="45.69595" lon="5.5217">
        <ele>214.7</ele>
        <time>2022-09-25T11:01:04Z</time>
      </trkpt>
      <trkpt lat="45.69596" lon="5.52172">
        <ele>214.8</ele>
        <time>2022-09-25T11:01:05Z</time>
      </trkpt>
      <trkpt lat="45.69597" lon="5.52173">
        <ele>215</ele>
        <time>2022-09-25T11:01:06Z</time>
      </trkpt>
      <trkpt lat="45.69599" lon="5.52177">
        <ele>215.2</ele>
        <time>2022-09-25T11:01:07Z</time>
      </trkpt>
      <trkpt lat="45.696" lon="5.52178">
        <ele>215.3</ele>
        <time>2022-09-25T11:01:08Z</time>
      </trkpt>
      <trkpt lat="45.69602" lon="5.52181">
        <ele>215.6</ele>
        <time>2022-09-25T11:01:09Z</time>
      </trkpt>
      <trkpt lat="45.69602" lon="5.52182">
        <ele>215.6</ele>
        <time>2022-09-25T11:01:10Z</time>
      </trkpt>
      <trkpt lat="45.69609" lon="5.52193">
        <ele>216.4</ele>
        <time>2022-09-25T11:01:11Z</time>
      </trkpt>
      <trkpt lat="45.69614" lon="5.52201">
        <ele>216.9</ele>
        <time>2022-09-25T11:01:20Z</time>
      </trkpt>
      <trkpt lat="45.6962" lon="5.5221">
        <ele>217.3</ele>
        <time>2022-09-25T11:01:21Z</time>
      </trkpt>
      <trkpt lat="45.69622" lon="5.52213">
        <ele>217.4</ele>
        <time>2022-09-25T11:01:22Z</time>
      </trkpt>
      <trkpt lat="45.69622" lon="5.52214">
        <ele>217.4</ele>
        <time>2022-09-25T11:01:23Z</time>
      </trkpt>
      <trkpt lat="45.69624" lon="5.52215">
        <ele>217.4</ele>
        <time>2022-09-25T11:01:24Z</time>
      </trkpt>
      <trkpt lat="45.69624" lon="5.52216">
        <ele>217.4</ele>
        <time>2022-09-25T11:01:25Z</time>
      </trkpt>
      <trkpt lat="45.69625" lon="5.52215">
        <ele>217.4</ele>
        <time>2022-09-25T11:01:26Z</time>
      </trkpt>
      <trkpt lat="45.69625" lon="5.52216">
        <ele>217.4</ele>
        <time>2022-09-25T11:01:27Z</time>
      </trkpt>
      <trkpt lat="45.69625" lon="5.52215">
        <ele>217.4</ele>
        <time>2022-09-25T11:01:28Z</time>
      </trkpt>
      <trkpt lat="45.69626" lon="5.52216">
        <ele>217.4</ele>
        <time>2022-09-25T11:01:29Z</time>
      </trkpt>
      <trkpt lat="45.69626" lon="5.52216">
        <ele>217.4</ele>
        <time>2022-09-25T11:01:30Z</time>
      </trkpt>
      <trkpt lat="45.69626" lon="5.52216">
        <ele>217.4</ele>
        <time>2022-09-25T11:01:31Z</time>
      </trkpt>
      <trkpt lat="45.69626" lon="5.52216">
        <ele>217.4</ele>
        <time>2022-09-25T11:01:32Z</time>
      </trkpt>
      <trkpt lat="45.69625" lon="5.52216">
        <ele>217.4</ele>
        <time>2022-09-25T11:01:33Z</time>
      </trkpt>
      <trkpt lat="45.69626" lon="5.52216">
        <ele>217.4</ele>
        <time>2022-09-25T11:01:34Z</time>
      </trkpt>
      <trkpt lat="45.69641" lon="5.52158">
        <ele>216.4</ele>
        <time>2022-09-25T11:02:02Z</time>
      </trkpt>
      <trkpt lat="45.69642" lon="5.52152">
        <ele>216.2</ele>
        <time>2022-09-25T11:02:03Z</time>
      </trkpt>
      <trkpt lat="45.69643" lon="5.52145">
        <ele>216</ele>
        <time>2022-09-25T11:02:04Z</time>
      </trkpt>
      <trkpt lat="45.69644" lon="5.52139">
        <ele>215.8</ele>
        <time>2022-09-25T11:02:05Z</time>
      </trkpt>
      <trkpt lat="45.69645" lon="5.52132">
        <ele>215.6</ele>
        <time>2022-09-25T11:02:06Z</time>
      </trkpt>
      <trkpt lat="45.69646" lon="5.52125">
        <ele>215.4</ele>
        <time>2022-09-25T11:02:07Z</time>
      </trkpt>
      <trkpt lat="45.69647" lon="5.5212">
        <ele>215.3</ele>
        <time>2022-09-25T11:02:08Z</time>
      </trkpt>
      <trkpt lat="45.69647" lon="5.52116">
        <ele>215.2</ele>
        <time>2022-09-25T11:02:09Z</time>
      </trkpt>
      <trkpt lat="45.69648" lon="5.52111">
        <ele>214.7</ele>
        <time>2022-09-25T11:02:10Z</time>
      </trkpt>
      <trkpt lat="45.69649" lon="5.5211">
        <ele>214.7</ele>
        <time>2022-09-25T11:02:11Z</time>
      </trkpt>
      <trkpt lat="45.69652" lon="5.52109">
        <ele>214.5</ele>
        <time>2022-09-25T11:02:12Z</time>
      </trkpt>
      <trkpt lat="45.69653" lon="5.52109">
        <ele>214.4</ele>
        <time>2022-09-25T11:02:13Z</time>
      </trkpt>
      <trkpt lat="45.69657" lon="5.5211">
        <ele>214.2</ele>
        <time>2022-09-25T11:02:14Z</time>
      </trkpt>
      <trkpt lat="45.6966" lon="5.52114">
        <ele>214</ele>
        <time>2022-09-25T11:02:15Z</time>
      </trkpt>
      <trkpt lat="45.69662" lon="5.52119">
        <ele>213.8</ele>
        <time>2022-09-25T11:02:16Z</time>
      </trkpt>
      <trkpt lat="45.69665" lon="5.52123">
        <ele>213.6</ele>
        <time>2022-09-25T11:02:17Z</time>
      </trkpt>
      <trkpt lat="45.69669" lon="5.52127">
        <ele>213.4</ele>
        <time>2022-09-25T11:02:18Z</time>
      </trkpt>
      <trkpt lat="45.69672" lon="5.52131">
        <ele>213.2</ele>
        <time>2022-09-25T11:02:19Z</time>
      </trkpt>
      <trkpt lat="45.69675" lon="5.52136">
        <ele>213</ele>
        <time>2022-09-25T11:02:20Z</time>
      </trkpt>
      <trkpt lat="45.69679" lon="5.52142">
        <ele>212.7</ele>
        <time>2022-09-25T11:02:21Z</time>
      </trkpt>
      <trkpt lat="45.69683" lon="5.52147">
        <ele>212.5</ele>
        <time>2022-09-25T11:02:22Z</time>
      </trkpt>
      <trkpt lat="45.69687" lon="5.52152">
        <ele>212.3</ele>
        <time>2022-09-25T11:02:23Z</time>
      </trkpt>
      <trkpt lat="45.69691" lon="5.52158">
        <ele>212.1</ele>
        <time>2022-09-25T11:02:24Z</time>
      </trkpt>
      <trkpt lat="45.69696" lon="5.52163">
        <ele>211.9</ele>
        <time>2022-09-25T11:02:25Z</time>
      </trkpt>
      <trkpt lat="45.69701" lon="5.52168">
        <ele>211.8</ele>
        <time>2022-09-25T11:02:26Z</time>
      </trkpt>
      <trkpt lat="45.69705" lon="5.52173">
        <ele>211.7</ele>
        <time>2022-09-25T11:02:27Z</time>
      </trkpt>
      <trkpt lat="45.69711" lon="5.52178">
        <ele>211.7</ele>
        <time>2022-09-25T11:02:28Z</time>
      </trkpt>
      <trkpt lat="45.69716" lon="5.52183">
        <ele>211.6</ele>
        <time>2022-09-25T11:02:29Z</time>
      </trkpt>
      <trkpt lat="45.69722" lon="5.52188">
        <ele>211.6</ele>
        <time>2022-09-25T11:02:30Z</time>
      </trkpt>
      <trkpt lat="45.69727" lon="5.52193">
        <ele>211.6</ele>
        <time>2022-09-25T11:02:31Z</time>
      </trkpt>
      <trkpt lat="45.69732" lon="5.52198">
        <ele>211.6</ele>
        <time>2022-09-25T11:02:32Z</time>
      </trkpt>
      <trkpt lat="45.69738" lon="5.52203">
        <ele>211.8</ele>
        <time>2022-09-25T11:02:33Z</time>
      </trkpt>
      <trkpt lat="45.69743" lon="5.52207">
        <ele>211.9</ele>
        <time>2022-09-25T11:02:34Z</time>
      </trkpt>
      <trkpt lat="45.69748" lon="5.52211">
        <ele>212.1</ele>
        <time>2022-09-25T11:02:35Z</time>
      </trkpt>
      <trkpt lat="45.69752" lon="5.52215">
        <ele>212.3</ele>
        <time>2022-09-25T11:02:36Z</time>
      </trkpt>
      <trkpt lat="45.69754" lon="5.52217">
        <ele>212.4</ele>
        <time>2022-09-25T11:02:37Z</time>
      </trkpt>
      <trkpt lat="45.69755" lon="5.52217">
        <ele>212.4</ele>
        <time>2022-09-25T11:02:38Z</time>
      </trkpt>
      <trkpt lat="45.69755" lon="5.52217">
        <ele>212.5</ele>
        <time>2022-09-25T11:02:39Z</time>
      </trkpt>
      <trkpt lat="45.69756" lon="5.52218">
        <ele>212.5</ele>
        <time>2022-09-25T11:02:40Z</time>
      </trkpt>
      <trkpt lat="45.69755" lon="5.52218">
        <ele>212.5</ele>
        <time>2022-09-25T11:02:41Z</time>
      </trkpt>
      <trkpt lat="45.69756" lon="5.52219">
        <ele>212.5</ele>
        <time>2022-09-25T11:02:42Z</time>
      </trkpt>
      <trkpt lat="45.69756" lon="5.52219">
        <ele>212.5</ele>
        <time>2022-09-25T11:02:43Z</time>
      </trkpt>
      <trkpt lat="45.69756" lon="5.52219">
        <ele>212.5</ele>
        <time>2022-09-25T11:02:44Z</time>
      </trkpt>
      <trkpt lat="45.69757" lon="5.52219">
        <ele>212.6</ele>
        <time>2022-09-25T11:02:45Z</time>
      </trkpt>
      <trkpt lat="45.69766" lon="5.52226">
        <ele>213</ele>
        <time>2022-09-25T11:02:46Z</time>
      </trkpt>
      <trkpt lat="45.69775" lon="5.52232">
        <ele>213.2</ele>
        <time>2022-09-25T11:02:47Z</time>
      </trkpt>
      <trkpt lat="45.69784" lon="5.52238">
        <ele>213.1</ele>
        <time>2022-09-25T11:04:55Z</time>
      </trkpt>
      <trkpt lat="45.69793" lon="5.52244">
        <ele>212.8</ele>
        <time>2022-09-25T11:04:56Z</time>
      </trkpt>
      <trkpt lat="45.69797" lon="5.52245">
        <ele>212.6</ele>
        <time>2022-09-25T11:04:57Z</time>
      </trkpt>
      <trkpt lat="45.698" lon="5.52246">
        <ele>212.5</ele>
        <time>2022-09-25T11:04:58Z</time>
      </trkpt>
      <trkpt lat="45.69804" lon="5.52246">
        <ele>212.3</ele>
        <time>2022-09-25T11:04:59Z</time>
      </trkpt>
      <trkpt lat="45.69809" lon="5.52246">
        <ele>212</ele>
        <time>2022-09-25T11:05:00Z</time>
      </trkpt>
      <trkpt lat="45.69813" lon="5.52247">
        <ele>211.8</ele>
        <time>2022-09-25T11:05:01Z</time>
      </trkpt>
      <trkpt lat="45.69819" lon="5.52247">
        <ele>211.5</ele>
        <time>2022-09-25T11:05:02Z</time>
      </trkpt>
      <trkpt lat="45.69824" lon="5.52247">
        <ele>211.2</ele>
        <time>2022-09-25T11:05:03Z</time>
      </trkpt>
      <trkpt lat="45.6983" lon="5.52248">
        <ele>211</ele>
        <time>2022-09-25T11:05:04Z</time>
      </trkpt>
      <trkpt lat="45.69836" lon="5.52248">
        <ele>210.7</ele>
        <time>2022-09-25T11:05:05Z</time>
      </trkpt>
      <trkpt lat="45.69843" lon="5.52247">
        <ele>210.5</ele>
        <time>2022-09-25T11:05:06Z</time>
      </trkpt>
      <trkpt lat="45.69848" lon="5.52247">
        <ele>210.4</ele>
        <time>2022-09-25T11:05:07Z</time>
      </trkpt>
      <trkpt lat="45.69853" lon="5.52245">
        <ele>210.2</ele>
        <time>2022-09-25T11:05:08Z</time>
      </trkpt>
      <trkpt lat="45.69858" lon="5.52243">
        <ele>210.1</ele>
        <time>2022-09-25T11:05:09Z</time>
      </trkpt>
      <trkpt lat="45.69863" lon="5.5224">
        <ele>209.9</ele>
        <time>2022-09-25T11:05:10Z</time>
      </trkpt>
      <trkpt lat="45.69866" lon="5.52236">
        <ele>209.8</ele>
        <time>2022-09-25T11:05:11Z</time>
      </trkpt>
      <trkpt lat="45.69869" lon="5.52235">
        <ele>209.6</ele>
        <time>2022-09-25T11:05:12Z</time>
      </trkpt>
      <trkpt lat="45.69873" lon="5.52235">
        <ele>209.5</ele>
        <time>2022-09-25T11:05:13Z</time>
      </trkpt>
      <trkpt lat="45.69879" lon="5.52237">
        <ele>209.3</ele>
        <time>2022-09-25T11:05:14Z</time>
      </trkpt>
      <trkpt lat="45.69882" lon="5.52241">
        <ele>209.3</ele>
        <time>2022-09-25T11:05:15Z</time>
      </trkpt>
      <trkpt lat="45.69885" lon="5.52247">
        <ele>209.2</ele>
        <time>2022-09-25T11:05:16Z</time>
      </trkpt>
      <trkpt lat="45.69888" lon="5.52254">
        <ele>209.1</ele>
        <time>2022-09-25T11:05:17Z</time>
      </trkpt>
      <trkpt lat="45.69892" lon="5.52261">
        <ele>209.1</ele>
        <time>2022-09-25T11:05:18Z</time>
      </trkpt>
      <trkpt lat="45.69895" lon="5.52268">
        <ele>209.2</ele>
        <time>2022-09-25T11:05:19Z</time>
      </trkpt>
      <trkpt lat="45.69897" lon="5.52276">
        <ele>209.2</ele>
        <time>2022-09-25T11:05:20Z</time>
      </trkpt>
      <trkpt lat="45.69899" lon="5.52284">
        <ele>209.2</ele>
        <time>2022-09-25T11:05:21Z</time>
      </trkpt>
      <trkpt lat="45.69901" lon="5.52292">
        <ele>209.2</ele>
        <time>2022-09-25T11:05:22Z</time>
      </trkpt>
      <trkpt lat="45.69902" lon="5.52301">
        <ele>209.2</ele>
        <time>2022-09-25T11:05:23Z</time>
      </trkpt>
      <trkpt lat="45.69904" lon="5.5231">
        <ele>209.3</ele>
        <time>2022-09-25T11:05:24Z</time>
      </trkpt>
      <trkpt lat="45.69906" lon="5.5232">
        <ele>209.3</ele>
        <time>2022-09-25T11:05:25Z</time>
      </trkpt>
      <trkpt lat="45.69908" lon="5.52329">
        <ele>209.3</ele>
        <time>2022-09-25T11:05:26Z</time>
      </trkpt>
      <trkpt lat="45.69908" lon="5.52338">
        <ele>209.2</ele>
        <time>2022-09-25T11:05:27Z</time>
      </trkpt>
      <trkpt lat="45.6991" lon="5.52348">
        <ele>209.2</ele>
        <time>2022-09-25T11:05:28Z</time>
      </trkpt>
      <trkpt lat="45.6991" lon="5.52356">
        <ele>209.2</ele>
        <time>2022-09-25T11:05:29Z</time>
      </trkpt>
      <trkpt lat="45.69911" lon="5.52366">
        <ele>209.2</ele>
        <time>2022-09-25T11:05:30Z</time>
      </trkpt>
      <trkpt lat="45.69911" lon="5.52376">
        <ele>209.2</ele>
        <time>2022-09-25T11:05:31Z</time>
      </trkpt>
      <trkpt lat="45.69912" lon="5.52384">
        <ele>209.2</ele>
        <time>2022-09-25T11:05:32Z</time>
      </trkpt>
      <trkpt lat="45.69912" lon="5.52393">
        <ele>209.2</ele>
        <time>2022-09-25T11:05:33Z</time>
      </trkpt>
      <trkpt lat="45.69912" lon="5.52402">
        <ele>209.2</ele>
        <time>2022-09-25T11:05:34Z</time>
      </trkpt>
      <trkpt lat="45.69912" lon="5.52412">
        <ele>209.3</ele>
        <time>2022-09-25T11:05:35Z</time>
      </trkpt>
      <trkpt lat="45.69912" lon="5.52421">
        <ele>209.3</ele>
        <time>2022-09-25T11:05:36Z</time>
      </trkpt>
      <trkpt lat="45.69911" lon="5.5243">
        <ele>209.3</ele>
        <time>2022-09-25T11:05:37Z</time>
      </trkpt>
      <trkpt lat="45.69911" lon="5.52439">
        <ele>209.3</ele>
        <time>2022-09-25T11:05:38Z</time>
      </trkpt>
      <trkpt lat="45.69911" lon="5.52448">
        <ele>209.4</ele>
        <time>2022-09-25T11:05:39Z</time>
      </trkpt>
      <trkpt lat="45.69911" lon="5.52456">
        <ele>209.4</ele>
        <time>2022-09-25T11:05:40Z</time>
      </trkpt>
      <trkpt lat="45.69911" lon="5.52464">
        <ele>209.4</ele>
        <time>2022-09-25T11:05:41Z</time>
      </trkpt>
      <trkpt lat="45.69911" lon="5.52472">
        <ele>209.4</ele>
        <time>2022-09-25T11:05:42Z</time>
      </trkpt>
      <trkpt lat="45.6991" lon="5.5248">
        <ele>209.4</ele>
        <time>2022-09-25T11:05:43Z</time>
      </trkpt>
      <trkpt lat="45.69909" lon="5.52488">
        <ele>209.4</ele>
        <time>2022-09-25T11:05:44Z</time>
      </trkpt>
      <trkpt lat="45.69909" lon="5.52496">
        <ele>209.4</ele>
        <time>2022-09-25T11:05:45Z</time>
      </trkpt>
      <trkpt lat="45.69909" lon="5.52502">
        <ele>209.4</ele>
        <time>2022-09-25T11:05:46Z</time>
      </trkpt>
      <trkpt lat="45.6991" lon="5.52508">
        <ele>209.4</ele>
        <time>2022-09-25T11:05:47Z</time>
      </trkpt>
      <trkpt lat="45.6991" lon="5.52515">
        <ele>209.4</ele>
        <time>2022-09-25T11:05:48Z</time>
      </trkpt>
      <trkpt lat="45.6991" lon="5.52521">
        <ele>209.5</ele>
        <time>2022-09-25T11:05:49Z</time>
      </trkpt>
      <trkpt lat="45.69909" lon="5.52527">
        <ele>209.5</ele>
        <time>2022-09-25T11:05:50Z</time>
      </trkpt>
      <trkpt lat="45.69911" lon="5.52534">
        <ele>209.5</ele>
        <time>2022-09-25T11:05:51Z</time>
      </trkpt>
      <trkpt lat="45.69912" lon="5.52541">
        <ele>209.5</ele>
        <time>2022-09-25T11:05:52Z</time>
      </trkpt>
      <trkpt lat="45.69912" lon="5.52548">
        <ele>209.4</ele>
        <time>2022-09-25T11:05:53Z</time>
      </trkpt>
      <trkpt lat="45.69912" lon="5.52554">
        <ele>209.4</ele>
        <time>2022-09-25T11:05:54Z</time>
      </trkpt>
      <trkpt lat="45.69915" lon="5.5256">
        <ele>209.3</ele>
        <time>2022-09-25T11:05:55Z</time>
      </trkpt>
      <trkpt lat="45.69918" lon="5.52565">
        <ele>209.2</ele>
        <time>2022-09-25T11:05:56Z</time>
      </trkpt>
      <trkpt lat="45.69922" lon="5.5257">
        <ele>209.2</ele>
        <time>2022-09-25T11:05:57Z</time>
      </trkpt>
      <trkpt lat="45.69926" lon="5.52575">
        <ele>209.1</ele>
        <time>2022-09-25T11:05:58Z</time>
      </trkpt>
      <trkpt lat="45.69929" lon="5.52581">
        <ele>209</ele>
        <time>2022-09-25T11:05:59Z</time>
      </trkpt>
      <trkpt lat="45.69933" lon="5.52586">
        <ele>209</ele>
        <time>2022-09-25T11:06:00Z</time>
      </trkpt>
      <trkpt lat="45.69937" lon="5.52592">
        <ele>209</ele>
        <time>2022-09-25T11:06:01Z</time>
      </trkpt>
      <trkpt lat="45.6994" lon="5.52597">
        <ele>209</ele>
        <time>2022-09-25T11:06:02Z</time>
      </trkpt>
      <trkpt lat="45.69942" lon="5.52602">
        <ele>209</ele>
        <time>2022-09-25T11:06:03Z</time>
      </trkpt>
      <trkpt lat="45.69945" lon="5.52607">
        <ele>209</ele>
        <time>2022-09-25T11:06:04Z</time>
      </trkpt>
      <trkpt lat="45.69949" lon="5.52612">
        <ele>209</ele>
        <time>2022-09-25T11:06:05Z</time>
      </trkpt>
      <trkpt lat="45.69951" lon="5.52617">
        <ele>209</ele>
        <time>2022-09-25T11:06:06Z</time>
      </trkpt>
      <trkpt lat="45.69954" lon="5.52622">
        <ele>209</ele>
        <time>2022-09-25T11:06:07Z</time>
      </trkpt>
      <trkpt lat="45.69955" lon="5.52628">
        <ele>209</ele>
        <time>2022-09-25T11:06:08Z</time>
      </trkpt>
      <trkpt lat="45.69957" lon="5.52634">
        <ele>209</ele>
        <time>2022-09-25T11:06:09Z</time>
      </trkpt>
      <trkpt lat="45.6996" lon="5.52639">
        <ele>209</ele>
        <time>2022-09-25T11:06:10Z</time>
      </trkpt>
      <trkpt lat="45.69962" lon="5.52644">
        <ele>209</ele>
        <time>2022-09-25T11:06:11Z</time>
      </trkpt>
      <trkpt lat="45.69964" lon="5.52648">
        <ele>209</ele>
        <time>2022-09-25T11:06:12Z</time>
      </trkpt>
      <trkpt lat="45.69966" lon="5.52652">
        <ele>209</ele>
        <time>2022-09-25T11:06:13Z</time>
      </trkpt>
      <trkpt lat="45.69969" lon="5.52658">
        <ele>209</ele>
        <time>2022-09-25T11:06:14Z</time>
      </trkpt>
      <trkpt lat="45.69972" lon="5.52664">
        <ele>209</ele>
        <time>2022-09-25T11:06:15Z</time>
      </trkpt>
      <trkpt lat="45.69975" lon="5.52669">
        <ele>209</ele>
        <time>2022-09-25T11:06:16Z</time>
      </trkpt>
      <trkpt lat="45.69977" lon="5.52674">
        <ele>209</ele>
        <time>2022-09-25T11:06:17Z</time>
      </trkpt>
      <trkpt lat="45.69981" lon="5.52679">
        <ele>209</ele>
        <time>2022-09-25T11:06:18Z</time>
      </trkpt>
      <trkpt lat="45.69984" lon="5.52685">
        <ele>209</ele>
        <time>2022-09-25T11:06:19Z</time>
      </trkpt>
      <trkpt lat="45.69988" lon="5.52691">
        <ele>208.9</ele>
        <time>2022-09-25T11:06:20Z</time>
      </trkpt>
      <trkpt lat="45.69991" lon="5.52697">
        <ele>208.9</ele>
        <time>2022-09-25T11:06:21Z</time>
      </trkpt>
      <trkpt lat="45.69994" lon="5.52703">
        <ele>208.9</ele>
        <time>2022-09-25T11:06:22Z</time>
      </trkpt>
      <trkpt lat="45.69998" lon="5.52708">
        <ele>208.9</ele>
        <time>2022-09-25T11:06:23Z</time>
      </trkpt>
      <trkpt lat="45.70002" lon="5.52714">
        <ele>208.9</ele>
        <time>2022-09-25T11:06:24Z</time>
      </trkpt>
      <trkpt lat="45.70005" lon="5.52719">
        <ele>208.9</ele>
        <time>2022-09-25T11:06:25Z</time>
      </trkpt>
      <trkpt lat="45.70009" lon="5.52726">
        <ele>208.9</ele>
        <time>2022-09-25T11:06:26Z</time>
      </trkpt>
      <trkpt lat="45.70012" lon="5.52732">
        <ele>208.9</ele>
        <time>2022-09-25T11:06:27Z</time>
      </trkpt>
      <trkpt lat="45.70016" lon="5.52737">
        <ele>208.9</ele>
        <time>2022-09-25T11:06:28Z</time>
      </trkpt>
      <trkpt lat="45.70019" lon="5.52742">
        <ele>209</ele>
        <time>2022-09-25T11:06:29Z</time>
      </trkpt>
      <trkpt lat="45.70022" lon="5.52748">
        <ele>209</ele>
        <time>2022-09-25T11:06:30Z</time>
      </trkpt>
      <trkpt lat="45.70025" lon="5.52754">
        <ele>209</ele>
        <time>2022-09-25T11:06:31Z</time>
      </trkpt>
      <trkpt lat="45.70028" lon="5.52759">
        <ele>209</ele>
        <time>2022-09-25T11:06:32Z</time>
      </trkpt>
      <trkpt lat="45.70031" lon="5.52765">
        <ele>209</ele>
        <time>2022-09-25T11:06:33Z</time>
      </trkpt>
      <trkpt lat="45.70033" lon="5.52771">
        <ele>208.9</ele>
        <time>2022-09-25T11:06:34Z</time>
      </trkpt>
      <trkpt lat="45.70036" lon="5.52777">
        <ele>208.9</ele>
        <time>2022-09-25T11:06:35Z</time>
      </trkpt>
      <trkpt lat="45.7004" lon="5.52782">
        <ele>208.9</ele>
        <time>2022-09-25T11:06:36Z</time>
      </trkpt>
      <trkpt lat="45.70043" lon="5.52787">
        <ele>208.9</ele>
        <time>2022-09-25T11:06:37Z</time>
      </trkpt>
      <trkpt lat="45.70046" lon="5.52792">
        <ele>208.8</ele>
        <time>2022-09-25T11:06:38Z</time>
      </trkpt>
      <trkpt lat="45.70048" lon="5.52797">
        <ele>208.8</ele>
        <time>2022-09-25T11:06:39Z</time>
      </trkpt>
      <trkpt lat="45.70051" lon="5.52802">
        <ele>208.8</ele>
        <time>2022-09-25T11:06:40Z</time>
      </trkpt>
      <trkpt lat="45.70054" lon="5.52808">
        <ele>208.7</ele>
        <time>2022-09-25T11:06:41Z</time>
      </trkpt>
      <trkpt lat="45.70056" lon="5.52816">
        <ele>208.7</ele>
        <time>2022-09-25T11:06:42Z</time>
      </trkpt>
      <trkpt lat="45.70059" lon="5.52821">
        <ele>208.6</ele>
        <time>2022-09-25T11:06:43Z</time>
      </trkpt>
      <trkpt lat="45.70063" lon="5.52825">
        <ele>208.6</ele>
        <time>2022-09-25T11:06:44Z</time>
      </trkpt>
      <trkpt lat="45.70067" lon="5.5283">
        <ele>208.5</ele>
        <time>2022-09-25T11:06:45Z</time>
      </trkpt>
      <trkpt lat="45.7007" lon="5.52835">
        <ele>208.4</ele>
        <time>2022-09-25T11:06:46Z</time>
      </trkpt>
      <trkpt lat="45.70074" lon="5.52842">
        <ele>208.4</ele>
        <time>2022-09-25T11:06:47Z</time>
      </trkpt>
      <trkpt lat="45.70078" lon="5.52848">
        <ele>208.3</ele>
        <time>2022-09-25T11:06:48Z</time>
      </trkpt>
      <trkpt lat="45.70081" lon="5.52853">
        <ele>208.3</ele>
        <time>2022-09-25T11:06:49Z</time>
      </trkpt>
      <trkpt lat="45.70082" lon="5.52859">
        <ele>208.4</ele>
        <time>2022-09-25T11:06:50Z</time>
      </trkpt>
      <trkpt lat="45.70083" lon="5.52866">
        <ele>208.4</ele>
        <time>2022-09-25T11:06:51Z</time>
      </trkpt>
      <trkpt lat="45.70086" lon="5.52872">
        <ele>208.4</ele>
        <time>2022-09-25T11:06:52Z</time>
      </trkpt>
      <trkpt lat="45.70088" lon="5.52878">
        <ele>208.5</ele>
        <time>2022-09-25T11:06:53Z</time>
      </trkpt>
      <trkpt lat="45.70091" lon="5.52882">
        <ele>208.5</ele>
        <time>2022-09-25T11:06:54Z</time>
      </trkpt>
      <trkpt lat="45.70095" lon="5.52887">
        <ele>208.6</ele>
        <time>2022-09-25T11:06:55Z</time>
      </trkpt>
      <trkpt lat="45.70099" lon="5.5289">
        <ele>208.6</ele>
        <time>2022-09-25T11:06:56Z</time>
      </trkpt>
      <trkpt lat="45.70103" lon="5.52892">
        <ele>208.7</ele>
        <time>2022-09-25T11:06:57Z</time>
      </trkpt>
      <trkpt lat="45.70107" lon="5.52893">
        <ele>208.8</ele>
        <time>2022-09-25T11:06:58Z</time>
      </trkpt>
      <trkpt lat="45.7011" lon="5.52893">
        <ele>208.8</ele>
        <time>2022-09-25T11:06:59Z</time>
      </trkpt>
      <trkpt lat="45.70114" lon="5.52894">
        <ele>208.9</ele>
        <time>2022-09-25T11:07:00Z</time>
      </trkpt>
      <trkpt lat="45.70119" lon="5.52894">
        <ele>208.9</ele>
        <time>2022-09-25T11:07:01Z</time>
      </trkpt>
      <trkpt lat="45.70123" lon="5.52893">
        <ele>209</ele>
        <time>2022-09-25T11:07:02Z</time>
      </trkpt>
      <trkpt lat="45.70127" lon="5.52891">
        <ele>209</ele>
        <time>2022-09-25T11:07:03Z</time>
      </trkpt>
      <trkpt lat="45.70131" lon="5.52889">
        <ele>209</ele>
        <time>2022-09-25T11:07:04Z</time>
      </trkpt>
      <trkpt lat="45.70135" lon="5.52888">
        <ele>208.9</ele>
        <time>2022-09-25T11:07:05Z</time>
      </trkpt>
      <trkpt lat="45.70139" lon="5.52885">
        <ele>208.9</ele>
        <time>2022-09-25T11:07:06Z</time>
      </trkpt>
      <trkpt lat="45.70143" lon="5.52882">
        <ele>208.8</ele>
        <time>2022-09-25T11:07:07Z</time>
      </trkpt>
      <trkpt lat="45.70148" lon="5.5288">
        <ele>208.7</ele>
        <time>2022-09-25T11:07:08Z</time>
      </trkpt>
      <trkpt lat="45.70153" lon="5.52878">
        <ele>208.5</ele>
        <time>2022-09-25T11:07:09Z</time>
      </trkpt>
      <trkpt lat="45.70158" lon="5.52876">
        <ele>208.4</ele>
        <time>2022-09-25T11:07:10Z</time>
      </trkpt>
      <trkpt lat="45.70163" lon="5.52874">
        <ele>208.3</ele>
        <time>2022-09-25T11:07:11Z</time>
      </trkpt>
      <trkpt lat="45.70168" lon="5.52871">
        <ele>208.2</ele>
        <time>2022-09-25T11:07:12Z</time>
      </trkpt>
      <trkpt lat="45.70172" lon="5.52869">
        <ele>208.1</ele>
        <time>2022-09-25T11:07:13Z</time>
      </trkpt>
      <trkpt lat="45.70177" lon="5.52867">
        <ele>208.1</ele>
        <time>2022-09-25T11:07:14Z</time>
      </trkpt>
      <trkpt lat="45.70181" lon="5.52865">
        <ele>208</ele>
        <time>2022-09-25T11:07:15Z</time>
      </trkpt>
      <trkpt lat="45.70186" lon="5.52863">
        <ele>208</ele>
        <time>2022-09-25T11:07:16Z</time>
      </trkpt>
      <trkpt lat="45.70189" lon="5.52861">
        <ele>208</ele>
        <time>2022-09-25T11:07:17Z</time>
      </trkpt>
      <trkpt lat="45.70194" lon="5.52859">
        <ele>208</ele>
        <time>2022-09-25T11:07:18Z</time>
      </trkpt>
      <trkpt lat="45.70199" lon="5.52857">
        <ele>208.1</ele>
        <time>2022-09-25T11:07:19Z</time>
      </trkpt>
      <trkpt lat="45.70203" lon="5.52855">
        <ele>208.1</ele>
        <time>2022-09-25T11:07:20Z</time>
      </trkpt>
      <trkpt lat="45.70207" lon="5.52854">
        <ele>208.1</ele>
        <time>2022-09-25T11:07:21Z</time>
      </trkpt>
      <trkpt lat="45.7021" lon="5.52852">
        <ele>208.1</ele>
        <time>2022-09-25T11:07:22Z</time>
      </trkpt>
      <trkpt lat="45.70214" lon="5.52851">
        <ele>208.1</ele>
        <time>2022-09-25T11:07:23Z</time>
      </trkpt>
      <trkpt lat="45.70219" lon="5.52848">
        <ele>208.2</ele>
        <time>2022-09-25T11:07:24Z</time>
      </trkpt>
      <trkpt lat="45.70222" lon="5.52847">
        <ele>208.2</ele>
        <time>2022-09-25T11:07:25Z</time>
      </trkpt>
      <trkpt lat="45.70226" lon="5.52845">
        <ele>208.2</ele>
        <time>2022-09-25T11:07:26Z</time>
      </trkpt>
      <trkpt lat="45.70231" lon="5.52843">
        <ele>208.2</ele>
        <time>2022-09-25T11:07:27Z</time>
      </trkpt>
      <trkpt lat="45.70234" lon="5.52842">
        <ele>208.2</ele>
        <time>2022-09-25T11:07:28Z</time>
      </trkpt>
      <trkpt lat="45.70238" lon="5.5284">
        <ele>208.2</ele>
        <time>2022-09-25T11:07:29Z</time>
      </trkpt>
      <trkpt lat="45.70242" lon="5.52837">
        <ele>208.3</ele>
        <time>2022-09-25T11:07:30Z</time>
      </trkpt>
      <trkpt lat="45.70248" lon="5.52832">
        <ele>208.3</ele>
        <time>2022-09-25T11:07:31Z</time>
      </trkpt>
      <trkpt lat="45.70253" lon="5.52828">
        <ele>208.3</ele>
        <time>2022-09-25T11:07:32Z</time>
      </trkpt>
      <trkpt lat="45.70256" lon="5.52823">
        <ele>208.3</ele>
        <time>2022-09-25T11:07:33Z</time>
      </trkpt>
      <trkpt lat="45.7026" lon="5.52819">
        <ele>208.3</ele>
        <time>2022-09-25T11:07:34Z</time>
      </trkpt>
      <trkpt lat="45.70265" lon="5.52813">
        <ele>208.3</ele>
        <time>2022-09-25T11:07:35Z</time>
      </trkpt>
      <trkpt lat="45.70268" lon="5.5281">
        <ele>208.4</ele>
        <time>2022-09-25T11:07:36Z</time>
      </trkpt>
      <trkpt lat="45.70274" lon="5.52804">
        <ele>208.5</ele>
        <time>2022-09-25T11:07:37Z</time>
      </trkpt>
      <trkpt lat="45.70279" lon="5.52801">
        <ele>208.6</ele>
        <time>2022-09-25T11:07:38Z</time>
      </trkpt>
      <trkpt lat="45.70284" lon="5.52796">
        <ele>208.7</ele>
        <time>2022-09-25T11:07:39Z</time>
      </trkpt>
      <trkpt lat="45.7029" lon="5.52793">
        <ele>208.8</ele>
        <time>2022-09-25T11:07:40Z</time>
      </trkpt>
      <trkpt lat="45.70294" lon="5.5279">
        <ele>208.8</ele>
        <time>2022-09-25T11:07:41Z</time>
      </trkpt>
      <trkpt lat="45.70299" lon="5.52787">
        <ele>208.8</ele>
        <time>2022-09-25T11:07:42Z</time>
      </trkpt>
      <trkpt lat="45.70303" lon="5.52784">
        <ele>208.9</ele>
        <time>2022-09-25T11:07:43Z</time>
      </trkpt>
      <trkpt lat="45.70307" lon="5.5278">
        <ele>208.9</ele>
        <time>2022-09-25T11:07:44Z</time>
      </trkpt>
      <trkpt lat="45.70312" lon="5.52776">
        <ele>209</ele>
        <time>2022-09-25T11:07:45Z</time>
      </trkpt>
      <trkpt lat="45.70317" lon="5.52772">
        <ele>209.1</ele>
        <time>2022-09-25T11:07:46Z</time>
      </trkpt>
      <trkpt lat="45.70321" lon="5.52768">
        <ele>209.2</ele>
        <time>2022-09-25T11:07:47Z</time>
      </trkpt>
      <trkpt lat="45.70326" lon="5.52764">
        <ele>209.3</ele>
        <time>2022-09-25T11:07:48Z</time>
      </trkpt>
      <trkpt lat="45.7033" lon="5.52759">
        <ele>209.4</ele>
        <time>2022-09-25T11:07:49Z</time>
      </trkpt>
      <trkpt lat="45.70335" lon="5.52757">
        <ele>209.5</ele>
        <time>2022-09-25T11:07:50Z</time>
      </trkpt>
      <trkpt lat="45.70339" lon="5.52752">
        <ele>209.5</ele>
        <time>2022-09-25T11:07:51Z</time>
      </trkpt>
      <trkpt lat="45.70343" lon="5.52749">
        <ele>209.6</ele>
        <time>2022-09-25T11:07:52Z</time>
      </trkpt>
      <trkpt lat="45.70347" lon="5.52745">
        <ele>209.6</ele>
        <time>2022-09-25T11:07:53Z</time>
      </trkpt>
      <trkpt lat="45.70351" lon="5.52741">
        <ele>209.7</ele>
        <time>2022-09-25T11:07:54Z</time>
      </trkpt>
      <trkpt lat="45.70355" lon="5.52738">
        <ele>209.7</ele>
        <time>2022-09-25T11:07:55Z</time>
      </trkpt>
      <trkpt lat="45.70359" lon="5.52735">
        <ele>209.7</ele>
        <time>2022-09-25T11:07:56Z</time>
      </trkpt>
      <trkpt lat="45.70362" lon="5.52732">
        <ele>209.7</ele>
        <time>2022-09-25T11:07:57Z</time>
      </trkpt>
      <trkpt lat="45.70367" lon="5.52729">
        <ele>209.7</ele>
        <time>2022-09-25T11:07:58Z</time>
      </trkpt>
      <trkpt lat="45.70371" lon="5.52726">
        <ele>209.7</ele>
        <time>2022-09-25T11:07:59Z</time>
      </trkpt>
      <trkpt lat="45.70375" lon="5.52724">
        <ele>209.8</ele>
        <time>2022-09-25T11:08:00Z</time>
      </trkpt>
      <trkpt lat="45.7038" lon="5.52722">
        <ele>209.8</ele>
        <time>2022-09-25T11:08:01Z</time>
      </trkpt>
      <trkpt lat="45.70385" lon="5.52719">
        <ele>209.8</ele>
        <time>2022-09-25T11:08:02Z</time>
      </trkpt>
      <trkpt lat="45.7039" lon="5.52718">
        <ele>209.9</ele>
        <time>2022-09-25T11:08:03Z</time>
      </trkpt>
      <trkpt lat="45.70395" lon="5.52717">
        <ele>210</ele>
        <time>2022-09-25T11:08:04Z</time>
      </trkpt>
      <trkpt lat="45.70399" lon="5.52717">
        <ele>210.1</ele>
        <time>2022-09-25T11:08:05Z</time>
      </trkpt>
      <trkpt lat="45.70404" lon="5.52714">
        <ele>210.1</ele>
        <time>2022-09-25T11:08:06Z</time>
      </trkpt>
      <trkpt lat="45.70409" lon="5.52714">
        <ele>210.2</ele>
        <time>2022-09-25T11:08:07Z</time>
      </trkpt>
      <trkpt lat="45.70413" lon="5.52714">
        <ele>210.3</ele>
        <time>2022-09-25T11:08:08Z</time>
      </trkpt>
      <trkpt lat="45.70417" lon="5.52713">
        <ele>210.4</ele>
        <time>2022-09-25T11:08:09Z</time>
      </trkpt>
      <trkpt lat="45.70421" lon="5.52713">
        <ele>210.5</ele>
        <time>2022-09-25T11:08:10Z</time>
      </trkpt>
      <trkpt lat="45.70426" lon="5.52712">
        <ele>210.6</ele>
        <time>2022-09-25T11:08:11Z</time>
      </trkpt>
      <trkpt lat="45.70431" lon="5.52712">
        <ele>210.6</ele>
        <time>2022-09-25T11:08:12Z</time>
      </trkpt>
      <trkpt lat="45.70436" lon="5.52712">
        <ele>210.7</ele>
        <time>2022-09-25T11:08:13Z</time>
      </trkpt>
      <trkpt lat="45.7044" lon="5.52712">
        <ele>210.7</ele>
        <time>2022-09-25T11:08:14Z</time>
      </trkpt>
      <trkpt lat="45.70444" lon="5.52712">
        <ele>210.7</ele>
        <time>2022-09-25T11:08:15Z</time>
      </trkpt>
      <trkpt lat="45.70449" lon="5.52711">
        <ele>210.7</ele>
        <time>2022-09-25T11:08:16Z</time>
      </trkpt>
      <trkpt lat="45.70453" lon="5.5271">
        <ele>210.7</ele>
        <time>2022-09-25T11:08:17Z</time>
      </trkpt>
      <trkpt lat="45.70458" lon="5.5271">
        <ele>210.7</ele>
        <time>2022-09-25T11:08:18Z</time>
      </trkpt>
      <trkpt lat="45.70463" lon="5.5271">
        <ele>210.6</ele>
        <time>2022-09-25T11:08:19Z</time>
      </trkpt>
      <trkpt lat="45.70468" lon="5.5271">
        <ele>210.6</ele>
        <time>2022-09-25T11:08:20Z</time>
      </trkpt>
      <trkpt lat="45.70474" lon="5.5271">
        <ele>210.6</ele>
        <time>2022-09-25T11:08:21Z</time>
      </trkpt>
      <trkpt lat="45.70479" lon="5.5271">
        <ele>210.6</ele>
        <time>2022-09-25T11:08:22Z</time>
      </trkpt>
      <trkpt lat="45.70485" lon="5.52709">
        <ele>210.6</ele>
        <time>2022-09-25T11:08:23Z</time>
      </trkpt>
      <trkpt lat="45.7049" lon="5.52709">
        <ele>210.5</ele>
        <time>2022-09-25T11:08:24Z</time>
      </trkpt>
      <trkpt lat="45.70495" lon="5.52709">
        <ele>210.5</ele>
        <time>2022-09-25T11:08:25Z</time>
      </trkpt>
      <trkpt lat="45.705" lon="5.52709">
        <ele>210.5</ele>
        <time>2022-09-25T11:08:26Z</time>
      </trkpt>
      <trkpt lat="45.70505" lon="5.52709">
        <ele>210.5</ele>
        <time>2022-09-25T11:08:27Z</time>
      </trkpt>
      <trkpt lat="45.70511" lon="5.52708">
        <ele>210.5</ele>
        <time>2022-09-25T11:08:28Z</time>
      </trkpt>
      <trkpt lat="45.70516" lon="5.52708">
        <ele>210.4</ele>
        <time>2022-09-25T11:08:29Z</time>
      </trkpt>
      <trkpt lat="45.70522" lon="5.52707">
        <ele>210.4</ele>
        <time>2022-09-25T11:08:30Z</time>
      </trkpt>
      <trkpt lat="45.70527" lon="5.52707">
        <ele>210.4</ele>
        <time>2022-09-25T11:08:31Z</time>
      </trkpt>
      <trkpt lat="45.70532" lon="5.52706">
        <ele>210.4</ele>
        <time>2022-09-25T11:08:32Z</time>
      </trkpt>
      <trkpt lat="45.70538" lon="5.52705">
        <ele>210.3</ele>
        <time>2022-09-25T11:08:33Z</time>
      </trkpt>
      <trkpt lat="45.70543" lon="5.52704">
        <ele>210.3</ele>
        <time>2022-09-25T11:08:34Z</time>
      </trkpt>
      <trkpt lat="45.70548" lon="5.52704">
        <ele>210.2</ele>
        <time>2022-09-25T11:08:35Z</time>
      </trkpt>
      <trkpt lat="45.70553" lon="5.52703">
        <ele>210.1</ele>
        <time>2022-09-25T11:08:36Z</time>
      </trkpt>
      <trkpt lat="45.70558" lon="5.52701">
        <ele>210.1</ele>
        <time>2022-09-25T11:08:37Z</time>
      </trkpt>
      <trkpt lat="45.70563" lon="5.527">
        <ele>210</ele>
        <time>2022-09-25T11:08:38Z</time>
      </trkpt>
      <trkpt lat="45.70568" lon="5.52699">
        <ele>209.9</ele>
        <time>2022-09-25T11:08:39Z</time>
      </trkpt>
      <trkpt lat="45.70573" lon="5.52698">
        <ele>209.8</ele>
        <time>2022-09-25T11:08:40Z</time>
      </trkpt>
      <trkpt lat="45.70578" lon="5.52698">
        <ele>209.8</ele>
        <time>2022-09-25T11:08:41Z</time>
      </trkpt>
      <trkpt lat="45.70584" lon="5.52698">
        <ele>209.8</ele>
        <time>2022-09-25T11:08:42Z</time>
      </trkpt>
      <trkpt lat="45.70589" lon="5.52698">
        <ele>209.9</ele>
        <time>2022-09-25T11:08:43Z</time>
      </trkpt>
      <trkpt lat="45.70594" lon="5.52699">
        <ele>210</ele>
        <time>2022-09-25T11:08:44Z</time>
      </trkpt>
      <trkpt lat="45.70599" lon="5.527">
        <ele>210.1</ele>
        <time>2022-09-25T11:08:45Z</time>
      </trkpt>
      <trkpt lat="45.70604" lon="5.527">
        <ele>210.2</ele>
        <time>2022-09-25T11:08:46Z</time>
      </trkpt>
      <trkpt lat="45.70609" lon="5.52701">
        <ele>210.3</ele>
        <time>2022-09-25T11:08:47Z</time>
      </trkpt>
      <trkpt lat="45.70613" lon="5.52702">
        <ele>210.4</ele>
        <time>2022-09-25T11:08:48Z</time>
      </trkpt>
      <trkpt lat="45.70617" lon="5.52703">
        <ele>210.6</ele>
        <time>2022-09-25T11:08:49Z</time>
      </trkpt>
      <trkpt lat="45.70621" lon="5.52703">
        <ele>210.7</ele>
        <time>2022-09-25T11:08:50Z</time>
      </trkpt>
      <trkpt lat="45.70624" lon="5.52704">
        <ele>210.9</ele>
        <time>2022-09-25T11:08:51Z</time>
      </trkpt>
      <trkpt lat="45.70627" lon="5.52704">
        <ele>211</ele>
        <time>2022-09-25T11:08:52Z</time>
      </trkpt>
      <trkpt lat="45.70631" lon="5.52705">
        <ele>211.2</ele>
        <time>2022-09-25T11:08:53Z</time>
      </trkpt>
      <trkpt lat="45.70635" lon="5.52705">
        <ele>211.4</ele>
        <time>2022-09-25T11:08:54Z</time>
      </trkpt>
      <trkpt lat="45.70639" lon="5.52706">
        <ele>211.6</ele>
        <time>2022-09-25T11:08:55Z</time>
      </trkpt>
      <trkpt lat="45.70644" lon="5.52707">
        <ele>211.9</ele>
        <time>2022-09-25T11:08:56Z</time>
      </trkpt>
      <trkpt lat="45.70649" lon="5.52708">
        <ele>212.2</ele>
        <time>2022-09-25T11:08:57Z</time>
      </trkpt>
      <trkpt lat="45.70653" lon="5.52709">
        <ele>212.4</ele>
        <time>2022-09-25T11:08:58Z</time>
      </trkpt>
      <trkpt lat="45.70658" lon="5.5271">
        <ele>212.6</ele>
        <time>2022-09-25T11:08:59Z</time>
      </trkpt>
      <trkpt lat="45.70661" lon="5.5271">
        <ele>212.8</ele>
        <time>2022-09-25T11:09:00Z</time>
      </trkpt>
      <trkpt lat="45.70664" lon="5.52711">
        <ele>213</ele>
        <time>2022-09-25T11:09:01Z</time>
      </trkpt>
      <trkpt lat="45.70668" lon="5.52712">
        <ele>213.1</ele>
        <time>2022-09-25T11:09:02Z</time>
      </trkpt>
      <trkpt lat="45.70671" lon="5.52713">
        <ele>213.2</ele>
        <time>2022-09-25T11:09:03Z</time>
      </trkpt>
      <trkpt lat="45.70673" lon="5.52713">
        <ele>213.2</ele>
        <time>2022-09-25T11:09:04Z</time>
      </trkpt>
      <trkpt lat="45.70675" lon="5.52715">
        <ele>213.3</ele>
        <time>2022-09-25T11:09:05Z</time>
      </trkpt>
      <trkpt lat="45.70678" lon="5.52716">
        <ele>213.3</ele>
        <time>2022-09-25T11:09:06Z</time>
      </trkpt>
      <trkpt lat="45.70683" lon="5.52715">
        <ele>213.4</ele>
        <time>2022-09-25T11:09:07Z</time>
      </trkpt>
      <trkpt lat="45.70684" lon="5.52715">
        <ele>213.4</ele>
        <time>2022-09-25T11:09:08Z</time>
      </trkpt>
      <trkpt lat="45.70688" lon="5.52715">
        <ele>213.4</ele>
        <time>2022-09-25T11:09:09Z</time>
      </trkpt>
      <trkpt lat="45.70692" lon="5.52715">
        <ele>213.3</ele>
        <time>2022-09-25T11:09:10Z</time>
      </trkpt>
      <trkpt lat="45.70698" lon="5.52715">
        <ele>213.2</ele>
        <time>2022-09-25T11:09:11Z</time>
      </trkpt>
      <trkpt lat="45.70701" lon="5.52716">
        <ele>213.1</ele>
        <time>2022-09-25T11:09:12Z</time>
      </trkpt>
      <trkpt lat="45.70706" lon="5.52717">
        <ele>212.9</ele>
        <time>2022-09-25T11:09:13Z</time>
      </trkpt>
      <trkpt lat="45.70711" lon="5.52717">
        <ele>212.7</ele>
        <time>2022-09-25T11:09:14Z</time>
      </trkpt>
      <trkpt lat="45.70717" lon="5.52718">
        <ele>212.4</ele>
        <time>2022-09-25T11:09:15Z</time>
      </trkpt>
      <trkpt lat="45.70725" lon="5.52722">
        <ele>212</ele>
        <time>2022-09-25T11:09:16Z</time>
      </trkpt>
      <trkpt lat="45.7073" lon="5.52724">
        <ele>211.8</ele>
        <time>2022-09-25T11:09:17Z</time>
      </trkpt>
      <trkpt lat="45.70736" lon="5.52726">
        <ele>211.6</ele>
        <time>2022-09-25T11:09:18Z</time>
      </trkpt>
      <trkpt lat="45.70743" lon="5.52728">
        <ele>211.4</ele>
        <time>2022-09-25T11:09:19Z</time>
      </trkpt>
      <trkpt lat="45.7075" lon="5.52731">
        <ele>211.3</ele>
        <time>2022-09-25T11:09:20Z</time>
      </trkpt>
      <trkpt lat="45.70756" lon="5.52733">
        <ele>211.2</ele>
        <time>2022-09-25T11:09:21Z</time>
      </trkpt>
      <trkpt lat="45.70762" lon="5.52735">
        <ele>211.1</ele>
        <time>2022-09-25T11:09:22Z</time>
      </trkpt>
      <trkpt lat="45.70767" lon="5.52738">
        <ele>211.1</ele>
        <time>2022-09-25T11:09:23Z</time>
      </trkpt>
      <trkpt lat="45.70773" lon="5.5274">
        <ele>211.1</ele>
        <time>2022-09-25T11:09:24Z</time>
      </trkpt>
      <trkpt lat="45.70778" lon="5.52742">
        <ele>211.1</ele>
        <time>2022-09-25T11:09:25Z</time>
      </trkpt>
      <trkpt lat="45.70784" lon="5.52744">
        <ele>211.1</ele>
        <time>2022-09-25T11:09:26Z</time>
      </trkpt>
      <trkpt lat="45.70788" lon="5.52746">
        <ele>211</ele>
        <time>2022-09-25T11:09:27Z</time>
      </trkpt>
      <trkpt lat="45.70794" lon="5.52748">
        <ele>211</ele>
        <time>2022-09-25T11:09:28Z</time>
      </trkpt>
      <trkpt lat="45.70799" lon="5.52751">
        <ele>210.9</ele>
        <time>2022-09-25T11:09:29Z</time>
      </trkpt>
      <trkpt lat="45.70804" lon="5.52753">
        <ele>210.8</ele>
        <time>2022-09-25T11:09:30Z</time>
      </trkpt>
      <trkpt lat="45.7081" lon="5.52756">
        <ele>210.6</ele>
        <time>2022-09-25T11:09:31Z</time>
      </trkpt>
      <trkpt lat="45.70816" lon="5.52759">
        <ele>210.5</ele>
        <time>2022-09-25T11:09:32Z</time>
      </trkpt>
      <trkpt lat="45.70822" lon="5.52762">
        <ele>210.3</ele>
        <time>2022-09-25T11:09:33Z</time>
      </trkpt>
      <trkpt lat="45.70827" lon="5.52764">
        <ele>210.2</ele>
        <time>2022-09-25T11:09:34Z</time>
      </trkpt>
      <trkpt lat="45.70833" lon="5.52768">
        <ele>210.1</ele>
        <time>2022-09-25T11:09:35Z</time>
      </trkpt>
      <trkpt lat="45.70839" lon="5.5277">
        <ele>210</ele>
        <time>2022-09-25T11:09:36Z</time>
      </trkpt>
      <trkpt lat="45.70844" lon="5.52773">
        <ele>209.9</ele>
        <time>2022-09-25T11:09:37Z</time>
      </trkpt>
      <trkpt lat="45.7085" lon="5.52776">
        <ele>209.9</ele>
        <time>2022-09-25T11:09:38Z</time>
      </trkpt>
      <trkpt lat="45.70855" lon="5.52778">
        <ele>209.8</ele>
        <time>2022-09-25T11:09:39Z</time>
      </trkpt>
      <trkpt lat="45.70859" lon="5.52777">
        <ele>209.8</ele>
        <time>2022-09-25T11:09:40Z</time>
      </trkpt>
      <trkpt lat="45.70864" lon="5.52774">
        <ele>209.7</ele>
        <time>2022-09-25T11:09:41Z</time>
      </trkpt>
      <trkpt lat="45.70867" lon="5.5277">
        <ele>209.7</ele>
        <time>2022-09-25T11:09:42Z</time>
      </trkpt>
      <trkpt lat="45.7087" lon="5.52764">
        <ele>209.6</ele>
        <time>2022-09-25T11:09:43Z</time>
      </trkpt>
      <trkpt lat="45.70872" lon="5.52758">
        <ele>209.6</ele>
        <time>2022-09-25T11:09:44Z</time>
      </trkpt>
      <trkpt lat="45.70874" lon="5.52753">
        <ele>209.6</ele>
        <time>2022-09-25T11:09:45Z</time>
      </trkpt>
      <trkpt lat="45.70877" lon="5.52748">
        <ele>209.6</ele>
        <time>2022-09-25T11:09:46Z</time>
      </trkpt>
      <trkpt lat="45.70879" lon="5.52744">
        <ele>209.7</ele>
        <time>2022-09-25T11:09:47Z</time>
      </trkpt>
      <trkpt lat="45.70881" lon="5.52738">
        <ele>209.7</ele>
        <time>2022-09-25T11:09:48Z</time>
      </trkpt>
      <trkpt lat="45.70883" lon="5.52732">
        <ele>209.8</ele>
        <time>2022-09-25T11:09:49Z</time>
      </trkpt>
      <trkpt lat="45.70885" lon="5.52727">
        <ele>209.8</ele>
        <time>2022-09-25T11:09:50Z</time>
      </trkpt>
      <trkpt lat="45.70887" lon="5.52723">
        <ele>209.9</ele>
        <time>2022-09-25T11:09:51Z</time>
      </trkpt>
      <trkpt lat="45.7089" lon="5.5272">
        <ele>210</ele>
        <time>2022-09-25T11:09:52Z</time>
      </trkpt>
      <trkpt lat="45.70891" lon="5.52719">
        <ele>210</ele>
        <time>2022-09-25T11:09:53Z</time>
      </trkpt>
      <trkpt lat="45.70895" lon="5.52719">
        <ele>209.9</ele>
        <time>2022-09-25T11:09:54Z</time>
      </trkpt>
      <trkpt lat="45.70899" lon="5.5272">
        <ele>209.8</ele>
        <time>2022-09-25T11:09:55Z</time>
      </trkpt>
      <trkpt lat="45.70902" lon="5.52721">
        <ele>209.7</ele>
        <time>2022-09-25T11:09:56Z</time>
      </trkpt>
      <trkpt lat="45.70906" lon="5.52722">
        <ele>209.6</ele>
        <time>2022-09-25T11:09:57Z</time>
      </trkpt>
      <trkpt lat="45.7091" lon="5.52723">
        <ele>209.6</ele>
        <time>2022-09-25T11:09:58Z</time>
      </trkpt>
      <trkpt lat="45.70913" lon="5.52723">
        <ele>209.5</ele>
        <time>2022-09-25T11:09:59Z</time>
      </trkpt>
      <trkpt lat="45.70917" lon="5.52723">
        <ele>209.4</ele>
        <time>2022-09-25T11:10:00Z</time>
      </trkpt>
      <trkpt lat="45.70922" lon="5.52722">
        <ele>209.2</ele>
        <time>2022-09-25T11:10:01Z</time>
      </trkpt>
      <trkpt lat="45.70928" lon="5.52723">
        <ele>209.1</ele>
        <time>2022-09-25T11:10:02Z</time>
      </trkpt>
      <trkpt lat="45.70934" lon="5.52723">
        <ele>209</ele>
        <time>2022-09-25T11:10:03Z</time>
      </trkpt>
      <trkpt lat="45.7094" lon="5.52725">
        <ele>208.9</ele>
        <time>2022-09-25T11:10:04Z</time>
      </trkpt>
      <trkpt lat="45.70946" lon="5.52725">
        <ele>208.9</ele>
        <time>2022-09-25T11:10:05Z</time>
      </trkpt>
      <trkpt lat="45.70951" lon="5.52726">
        <ele>208.8</ele>
        <time>2022-09-25T11:10:06Z</time>
      </trkpt>
      <trkpt lat="45.70957" lon="5.52727">
        <ele>208.8</ele>
        <time>2022-09-25T11:10:07Z</time>
      </trkpt>
      <trkpt lat="45.70963" lon="5.52727">
        <ele>208.7</ele>
        <time>2022-09-25T11:10:08Z</time>
      </trkpt>
      <trkpt lat="45.70968" lon="5.52728">
        <ele>208.7</ele>
        <time>2022-09-25T11:10:09Z</time>
      </trkpt>
      <trkpt lat="45.70973" lon="5.52728">
        <ele>208.6</ele>
        <time>2022-09-25T11:10:10Z</time>
      </trkpt>
      <trkpt lat="45.70978" lon="5.52728">
        <ele>208.6</ele>
        <time>2022-09-25T11:10:11Z</time>
      </trkpt>
      <trkpt lat="45.70984" lon="5.52729">
        <ele>208.5</ele>
        <time>2022-09-25T11:10:12Z</time>
      </trkpt>
      <trkpt lat="45.70989" lon="5.52729">
        <ele>208.4</ele>
        <time>2022-09-25T11:10:13Z</time>
      </trkpt>
      <trkpt lat="45.70994" lon="5.52729">
        <ele>208.4</ele>
        <time>2022-09-25T11:10:14Z</time>
      </trkpt>
      <trkpt lat="45.71" lon="5.5273">
        <ele>208.3</ele>
        <time>2022-09-25T11:10:15Z</time>
      </trkpt>
      <trkpt lat="45.71006" lon="5.52731">
        <ele>208.2</ele>
        <time>2022-09-25T11:10:16Z</time>
      </trkpt>
      <trkpt lat="45.7101" lon="5.52733">
        <ele>208.1</ele>
        <time>2022-09-25T11:10:17Z</time>
      </trkpt>
      <trkpt lat="45.71015" lon="5.52735">
        <ele>208.1</ele>
        <time>2022-09-25T11:10:18Z</time>
      </trkpt>
      <trkpt lat="45.7102" lon="5.52737">
        <ele>208</ele>
        <time>2022-09-25T11:10:19Z</time>
      </trkpt>
      <trkpt lat="45.71025" lon="5.52738">
        <ele>207.9</ele>
        <time>2022-09-25T11:10:20Z</time>
      </trkpt>
      <trkpt lat="45.7103" lon="5.52741">
        <ele>207.9</ele>
        <time>2022-09-25T11:10:21Z</time>
      </trkpt>
      <trkpt lat="45.71035" lon="5.52743">
        <ele>207.9</ele>
        <time>2022-09-25T11:10:22Z</time>
      </trkpt>
      <trkpt lat="45.71039" lon="5.52745">
        <ele>207.8</ele>
        <time>2022-09-25T11:10:23Z</time>
      </trkpt>
      <trkpt lat="45.71043" lon="5.52748">
        <ele>207.8</ele>
        <time>2022-09-25T11:10:24Z</time>
      </trkpt>
      <trkpt lat="45.71048" lon="5.52751">
        <ele>207.8</ele>
        <time>2022-09-25T11:10:25Z</time>
      </trkpt>
      <trkpt lat="45.71052" lon="5.52755">
        <ele>207.7</ele>
        <time>2022-09-25T11:10:26Z</time>
      </trkpt>
      <trkpt lat="45.71056" lon="5.5276">
        <ele>207.5</ele>
        <time>2022-09-25T11:10:27Z</time>
      </trkpt>
      <trkpt lat="45.71061" lon="5.52765">
        <ele>207.4</ele>
        <time>2022-09-25T11:10:28Z</time>
      </trkpt>
      <trkpt lat="45.71066" lon="5.52769">
        <ele>207.3</ele>
        <time>2022-09-25T11:10:29Z</time>
      </trkpt>
      <trkpt lat="45.7107" lon="5.52773">
        <ele>207.1</ele>
        <time>2022-09-25T11:10:30Z</time>
      </trkpt>
      <trkpt lat="45.71074" lon="5.52776">
        <ele>207.1</ele>
        <time>2022-09-25T11:10:31Z</time>
      </trkpt>
      <trkpt lat="45.71078" lon="5.52779">
        <ele>207</ele>
        <time>2022-09-25T11:10:32Z</time>
      </trkpt>
      <trkpt lat="45.71083" lon="5.52783">
        <ele>206.9</ele>
        <time>2022-09-25T11:10:33Z</time>
      </trkpt>
      <trkpt lat="45.71087" lon="5.52786">
        <ele>206.9</ele>
        <time>2022-09-25T11:10:34Z</time>
      </trkpt>
      <trkpt lat="45.71093" lon="5.52791">
        <ele>206.8</ele>
        <time>2022-09-25T11:10:35Z</time>
      </trkpt>
      <trkpt lat="45.71098" lon="5.52795">
        <ele>206.7</ele>
        <time>2022-09-25T11:10:36Z</time>
      </trkpt>
      <trkpt lat="45.71103" lon="5.52799">
        <ele>206.7</ele>
        <time>2022-09-25T11:10:37Z</time>
      </trkpt>
      <trkpt lat="45.71109" lon="5.52803">
        <ele>206.7</ele>
        <time>2022-09-25T11:10:38Z</time>
      </trkpt>
      <trkpt lat="45.71114" lon="5.52807">
        <ele>206.6</ele>
        <time>2022-09-25T11:10:39Z</time>
      </trkpt>
      <trkpt lat="45.71119" lon="5.52811">
        <ele>206.6</ele>
        <time>2022-09-25T11:10:40Z</time>
      </trkpt>
      <trkpt lat="45.71124" lon="5.52815">
        <ele>206.5</ele>
        <time>2022-09-25T11:10:41Z</time>
      </trkpt>
      <trkpt lat="45.7113" lon="5.52819">
        <ele>206.5</ele>
        <time>2022-09-25T11:10:42Z</time>
      </trkpt>
      <trkpt lat="45.71135" lon="5.52823">
        <ele>206.4</ele>
        <time>2022-09-25T11:10:43Z</time>
      </trkpt>
      <trkpt lat="45.71139" lon="5.52826">
        <ele>206.3</ele>
        <time>2022-09-25T11:10:44Z</time>
      </trkpt>
      <trkpt lat="45.71143" lon="5.52832">
        <ele>206.3</ele>
        <time>2022-09-25T11:10:45Z</time>
      </trkpt>
      <trkpt lat="45.71148" lon="5.52835">
        <ele>206.3</ele>
        <time>2022-09-25T11:10:46Z</time>
      </trkpt>
      <trkpt lat="45.71152" lon="5.52839">
        <ele>206.2</ele>
        <time>2022-09-25T11:10:47Z</time>
      </trkpt>
      <trkpt lat="45.71157" lon="5.52842">
        <ele>206.2</ele>
        <time>2022-09-25T11:10:48Z</time>
      </trkpt>
      <trkpt lat="45.71161" lon="5.52846">
        <ele>206.2</ele>
        <time>2022-09-25T11:10:49Z</time>
      </trkpt>
      <trkpt lat="45.71166" lon="5.52849">
        <ele>206.2</ele>
        <time>2022-09-25T11:10:50Z</time>
      </trkpt>
      <trkpt lat="45.7117" lon="5.52853">
        <ele>206.2</ele>
        <time>2022-09-25T11:10:51Z</time>
      </trkpt>
      <trkpt lat="45.71175" lon="5.52856">
        <ele>206.2</ele>
        <time>2022-09-25T11:10:52Z</time>
      </trkpt>
      <trkpt lat="45.71179" lon="5.5286">
        <ele>206.2</ele>
        <time>2022-09-25T11:10:53Z</time>
      </trkpt>
      <trkpt lat="45.71183" lon="5.52866">
        <ele>206.2</ele>
        <time>2022-09-25T11:10:54Z</time>
      </trkpt>
      <trkpt lat="45.71186" lon="5.52872">
        <ele>206.2</ele>
        <time>2022-09-25T11:10:55Z</time>
      </trkpt>
      <trkpt lat="45.71188" lon="5.5288">
        <ele>206.2</ele>
        <time>2022-09-25T11:10:56Z</time>
      </trkpt>
      <trkpt lat="45.71189" lon="5.52888">
        <ele>206.1</ele>
        <time>2022-09-25T11:10:57Z</time>
      </trkpt>
      <trkpt lat="45.71189" lon="5.52896">
        <ele>206.1</ele>
        <time>2022-09-25T11:10:58Z</time>
      </trkpt>
      <trkpt lat="45.71187" lon="5.52904">
        <ele>206.1</ele>
        <time>2022-09-25T11:10:59Z</time>
      </trkpt>
      <trkpt lat="45.71185" lon="5.52911">
        <ele>206.1</ele>
        <time>2022-09-25T11:11:00Z</time>
      </trkpt>
      <trkpt lat="45.71183" lon="5.52918">
        <ele>206</ele>
        <time>2022-09-25T11:11:01Z</time>
      </trkpt>
      <trkpt lat="45.71181" lon="5.52925">
        <ele>206</ele>
        <time>2022-09-25T11:11:02Z</time>
      </trkpt>
      <trkpt lat="45.71179" lon="5.52933">
        <ele>206</ele>
        <time>2022-09-25T11:11:03Z</time>
      </trkpt>
      <trkpt lat="45.71178" lon="5.52941">
        <ele>206</ele>
        <time>2022-09-25T11:11:04Z</time>
      </trkpt>
      <trkpt lat="45.71176" lon="5.52948">
        <ele>206</ele>
        <time>2022-09-25T11:11:05Z</time>
      </trkpt>
      <trkpt lat="45.71175" lon="5.52956">
        <ele>205.9</ele>
        <time>2022-09-25T11:11:06Z</time>
      </trkpt>
      <trkpt lat="45.71174" lon="5.52964">
        <ele>205.9</ele>
        <time>2022-09-25T11:11:07Z</time>
      </trkpt>
      <trkpt lat="45.71173" lon="5.52972">
        <ele>205.9</ele>
        <time>2022-09-25T11:11:08Z</time>
      </trkpt>
      <trkpt lat="45.71172" lon="5.52981">
        <ele>205.8</ele>
        <time>2022-09-25T11:11:09Z</time>
      </trkpt>
      <trkpt lat="45.71171" lon="5.52989">
        <ele>205.8</ele>
        <time>2022-09-25T11:11:10Z</time>
      </trkpt>
      <trkpt lat="45.7117" lon="5.52997">
        <ele>205.8</ele>
        <time>2022-09-25T11:11:11Z</time>
      </trkpt>
      <trkpt lat="45.71168" lon="5.53005">
        <ele>205.8</ele>
        <time>2022-09-25T11:11:12Z</time>
      </trkpt>
      <trkpt lat="45.71166" lon="5.53012">
        <ele>205.8</ele>
        <time>2022-09-25T11:11:13Z</time>
      </trkpt>
      <trkpt lat="45.71165" lon="5.53021">
        <ele>205.8</ele>
        <time>2022-09-25T11:11:14Z</time>
      </trkpt>
      <trkpt lat="45.71163" lon="5.53029">
        <ele>205.8</ele>
        <time>2022-09-25T11:11:15Z</time>
      </trkpt>
      <trkpt lat="45.71162" lon="5.53036">
        <ele>205.8</ele>
        <time>2022-09-25T11:11:16Z</time>
      </trkpt>
      <trkpt lat="45.71161" lon="5.53043">
        <ele>205.8</ele>
        <time>2022-09-25T11:11:17Z</time>
      </trkpt>
      <trkpt lat="45.71159" lon="5.5305">
        <ele>205.8</ele>
        <time>2022-09-25T11:11:18Z</time>
      </trkpt>
      <trkpt lat="45.71158" lon="5.53057">
        <ele>205.8</ele>
        <time>2022-09-25T11:11:19Z</time>
      </trkpt>
      <trkpt lat="45.71156" lon="5.53064">
        <ele>205.8</ele>
        <time>2022-09-25T11:11:20Z</time>
      </trkpt>
      <trkpt lat="45.71153" lon="5.53071">
        <ele>205.8</ele>
        <time>2022-09-25T11:11:21Z</time>
      </trkpt>
      <trkpt lat="45.71151" lon="5.53076">
        <ele>205.8</ele>
        <time>2022-09-25T11:11:22Z</time>
      </trkpt>
      <trkpt lat="45.71148" lon="5.53081">
        <ele>205.8</ele>
        <time>2022-09-25T11:11:23Z</time>
      </trkpt>
      <trkpt lat="45.71145" lon="5.53086">
        <ele>205.8</ele>
        <time>2022-09-25T11:11:24Z</time>
      </trkpt>
      <trkpt lat="45.71142" lon="5.5309">
        <ele>205.8</ele>
        <time>2022-09-25T11:11:25Z</time>
      </trkpt>
      <trkpt lat="45.7114" lon="5.53095">
        <ele>205.8</ele>
        <time>2022-09-25T11:11:26Z</time>
      </trkpt>
      <trkpt lat="45.71137" lon="5.53097">
        <ele>205.8</ele>
        <time>2022-09-25T11:11:27Z</time>
      </trkpt>
      <trkpt lat="45.71134" lon="5.53102">
        <ele>205.8</ele>
        <time>2022-09-25T11:11:28Z</time>
      </trkpt>
      <trkpt lat="45.7113" lon="5.53108">
        <ele>205.8</ele>
        <time>2022-09-25T11:11:29Z</time>
      </trkpt>
      <trkpt lat="45.71126" lon="5.53114">
        <ele>205.8</ele>
        <time>2022-09-25T11:11:30Z</time>
      </trkpt>
      <trkpt lat="45.7112" lon="5.53125">
        <ele>205.8</ele>
        <time>2022-09-25T11:11:31Z</time>
      </trkpt>
      <trkpt lat="45.71117" lon="5.5313">
        <ele>205.8</ele>
        <time>2022-09-25T11:11:32Z</time>
      </trkpt>
      <trkpt lat="45.71113" lon="5.53136">
        <ele>205.7</ele>
        <time>2022-09-25T11:11:33Z</time>
      </trkpt>
      <trkpt lat="45.71109" lon="5.53142">
        <ele>205.7</ele>
        <time>2022-09-25T11:11:34Z</time>
      </trkpt>
      <trkpt lat="45.71106" lon="5.53147">
        <ele>205.7</ele>
        <time>2022-09-25T11:11:35Z</time>
      </trkpt>
      <trkpt lat="45.71101" lon="5.53154">
        <ele>205.7</ele>
        <time>2022-09-25T11:11:36Z</time>
      </trkpt>
      <trkpt lat="45.71099" lon="5.5316">
        <ele>205.7</ele>
        <time>2022-09-25T11:11:37Z</time>
      </trkpt>
      <trkpt lat="45.71097" lon="5.53164">
        <ele>205.7</ele>
        <time>2022-09-25T11:11:38Z</time>
      </trkpt>
      <trkpt lat="45.71095" lon="5.53169">
        <ele>205.7</ele>
        <time>2022-09-25T11:11:39Z</time>
      </trkpt>
      <trkpt lat="45.71092" lon="5.53175">
        <ele>205.7</ele>
        <time>2022-09-25T11:11:40Z</time>
      </trkpt>
      <trkpt lat="45.71089" lon="5.53181">
        <ele>205.7</ele>
        <time>2022-09-25T11:11:41Z</time>
      </trkpt>
      <trkpt lat="45.71086" lon="5.53186">
        <ele>205.7</ele>
        <time>2022-09-25T11:11:42Z</time>
      </trkpt>
      <trkpt lat="45.71083" lon="5.53192">
        <ele>205.8</ele>
        <time>2022-09-25T11:11:43Z</time>
      </trkpt>
      <trkpt lat="45.7108" lon="5.53198">
        <ele>205.8</ele>
        <time>2022-09-25T11:11:44Z</time>
      </trkpt>
      <trkpt lat="45.71077" lon="5.53204">
        <ele>205.8</ele>
        <time>2022-09-25T11:11:45Z</time>
      </trkpt>
      <trkpt lat="45.71074" lon="5.5321">
        <ele>205.9</ele>
        <time>2022-09-25T11:11:46Z</time>
      </trkpt>
      <trkpt lat="45.71071" lon="5.53217">
        <ele>206</ele>
        <time>2022-09-25T11:11:47Z</time>
      </trkpt>
      <trkpt lat="45.71069" lon="5.53222">
        <ele>206</ele>
        <time>2022-09-25T11:11:48Z</time>
      </trkpt>
      <trkpt lat="45.71066" lon="5.53227">
        <ele>206.1</ele>
        <time>2022-09-25T11:11:49Z</time>
      </trkpt>
      <trkpt lat="45.71064" lon="5.53233">
        <ele>206.2</ele>
        <time>2022-09-25T11:11:50Z</time>
      </trkpt>
      <trkpt lat="45.71061" lon="5.53239">
        <ele>206.3</ele>
        <time>2022-09-25T11:11:51Z</time>
      </trkpt>
      <trkpt lat="45.71059" lon="5.53246">
        <ele>206.4</ele>
        <time>2022-09-25T11:11:52Z</time>
      </trkpt>
      <trkpt lat="45.71057" lon="5.53251">
        <ele>206.5</ele>
        <time>2022-09-25T11:11:53Z</time>
      </trkpt>
      <trkpt lat="45.71054" lon="5.53258">
        <ele>206.6</ele>
        <time>2022-09-25T11:11:54Z</time>
      </trkpt>
      <trkpt lat="45.71052" lon="5.53264">
        <ele>206.8</ele>
        <time>2022-09-25T11:11:55Z</time>
      </trkpt>
      <trkpt lat="45.7105" lon="5.5327">
        <ele>206.9</ele>
        <time>2022-09-25T11:11:56Z</time>
      </trkpt>
      <trkpt lat="45.71048" lon="5.53275">
        <ele>207</ele>
        <time>2022-09-25T11:11:57Z</time>
      </trkpt>
      <trkpt lat="45.71046" lon="5.53281">
        <ele>207.2</ele>
        <time>2022-09-25T11:11:58Z</time>
      </trkpt>
      <trkpt lat="45.71045" lon="5.53286">
        <ele>207.3</ele>
        <time>2022-09-25T11:11:59Z</time>
      </trkpt>
      <trkpt lat="45.71046" lon="5.53291">
        <ele>207.4</ele>
        <time>2022-09-25T11:12:00Z</time>
      </trkpt>
      <trkpt lat="45.71049" lon="5.53293">
        <ele>207.2</ele>
        <time>2022-09-25T11:12:01Z</time>
      </trkpt>
      <trkpt lat="45.71052" lon="5.53294">
        <ele>207.1</ele>
        <time>2022-09-25T11:12:02Z</time>
      </trkpt>
      <trkpt lat="45.71055" lon="5.53296">
        <ele>207</ele>
        <time>2022-09-25T11:12:03Z</time>
      </trkpt>
      <trkpt lat="45.71059" lon="5.53297">
        <ele>206.8</ele>
        <time>2022-09-25T11:12:04Z</time>
      </trkpt>
      <trkpt lat="45.71062" lon="5.533">
        <ele>206.6</ele>
        <time>2022-09-25T11:12:05Z</time>
      </trkpt>
      <trkpt lat="45.71066" lon="5.53302">
        <ele>206.5</ele>
        <time>2022-09-25T11:12:06Z</time>
      </trkpt>
      <trkpt lat="45.7107" lon="5.53304">
        <ele>206.3</ele>
        <time>2022-09-25T11:12:07Z</time>
      </trkpt>
      <trkpt lat="45.71075" lon="5.53306">
        <ele>206.1</ele>
        <time>2022-09-25T11:12:08Z</time>
      </trkpt>
      <trkpt lat="45.7108" lon="5.53308">
        <ele>205.9</ele>
        <time>2022-09-25T11:12:09Z</time>
      </trkpt>
      <trkpt lat="45.71084" lon="5.53311">
        <ele>205.8</ele>
        <time>2022-09-25T11:12:10Z</time>
      </trkpt>
      <trkpt lat="45.71088" lon="5.53314">
        <ele>205.7</ele>
        <time>2022-09-25T11:12:11Z</time>
      </trkpt>
      <trkpt lat="45.71093" lon="5.53316">
        <ele>205.7</ele>
        <time>2022-09-25T11:12:12Z</time>
      </trkpt>
      <trkpt lat="45.71098" lon="5.53319">
        <ele>205.6</ele>
        <time>2022-09-25T11:12:13Z</time>
      </trkpt>
      <trkpt lat="45.71104" lon="5.53322">
        <ele>205.6</ele>
        <time>2022-09-25T11:12:14Z</time>
      </trkpt>
      <trkpt lat="45.7111" lon="5.53325">
        <ele>205.6</ele>
        <time>2022-09-25T11:12:15Z</time>
      </trkpt>
      <trkpt lat="45.71115" lon="5.53329">
        <ele>205.6</ele>
        <time>2022-09-25T11:12:16Z</time>
      </trkpt>
      <trkpt lat="45.7112" lon="5.53331">
        <ele>205.6</ele>
        <time>2022-09-25T11:12:17Z</time>
      </trkpt>
      <trkpt lat="45.71124" lon="5.53334">
        <ele>205.6</ele>
        <time>2022-09-25T11:12:18Z</time>
      </trkpt>
      <trkpt lat="45.71129" lon="5.53337">
        <ele>205.6</ele>
        <time>2022-09-25T11:12:19Z</time>
      </trkpt>
      <trkpt lat="45.71133" lon="5.5334">
        <ele>205.6</ele>
        <time>2022-09-25T11:12:20Z</time>
      </trkpt>
      <trkpt lat="45.71138" lon="5.53342">
        <ele>205.6</ele>
        <time>2022-09-25T11:12:21Z</time>
      </trkpt>
      <trkpt lat="45.71142" lon="5.53345">
        <ele>205.6</ele>
        <time>2022-09-25T11:12:22Z</time>
      </trkpt>
      <trkpt lat="45.71147" lon="5.53347">
        <ele>205.6</ele>
        <time>2022-09-25T11:12:23Z</time>
      </trkpt>
      <trkpt lat="45.71152" lon="5.5335">
        <ele>205.6</ele>
        <time>2022-09-25T11:12:24Z</time>
      </trkpt>
      <trkpt lat="45.71157" lon="5.53352">
        <ele>205.6</ele>
        <time>2022-09-25T11:12:25Z</time>
      </trkpt>
      <trkpt lat="45.71161" lon="5.53355">
        <ele>205.7</ele>
        <time>2022-09-25T11:12:26Z</time>
      </trkpt>
      <trkpt lat="45.71166" lon="5.53358">
        <ele>205.7</ele>
        <time>2022-09-25T11:12:27Z</time>
      </trkpt>
      <trkpt lat="45.7117" lon="5.5336">
        <ele>205.7</ele>
        <time>2022-09-25T11:12:28Z</time>
      </trkpt>
      <trkpt lat="45.71174" lon="5.53362">
        <ele>205.7</ele>
        <time>2022-09-25T11:12:29Z</time>
      </trkpt>
      <trkpt lat="45.71178" lon="5.53365">
        <ele>205.7</ele>
        <time>2022-09-25T11:12:30Z</time>
      </trkpt>
      <trkpt lat="45.71184" lon="5.53367">
        <ele>205.7</ele>
        <time>2022-09-25T11:12:31Z</time>
      </trkpt>
      <trkpt lat="45.71189" lon="5.5337">
        <ele>205.7</ele>
        <time>2022-09-25T11:12:32Z</time>
      </trkpt>
      <trkpt lat="45.71194" lon="5.53373">
        <ele>205.7</ele>
        <time>2022-09-25T11:12:33Z</time>
      </trkpt>
      <trkpt lat="45.712" lon="5.53376">
        <ele>205.7</ele>
        <time>2022-09-25T11:12:34Z</time>
      </trkpt>
      <trkpt lat="45.71205" lon="5.53378">
        <ele>205.7</ele>
        <time>2022-09-25T11:12:35Z</time>
      </trkpt>
      <trkpt lat="45.7121" lon="5.53381">
        <ele>205.8</ele>
        <time>2022-09-25T11:12:36Z</time>
      </trkpt>
      <trkpt lat="45.71215" lon="5.53384">
        <ele>205.8</ele>
        <time>2022-09-25T11:12:37Z</time>
      </trkpt>
      <trkpt lat="45.7122" lon="5.53386">
        <ele>205.8</ele>
        <time>2022-09-25T11:12:38Z</time>
      </trkpt>
      <trkpt lat="45.71225" lon="5.53389">
        <ele>205.9</ele>
        <time>2022-09-25T11:12:39Z</time>
      </trkpt>
      <trkpt lat="45.7123" lon="5.53391">
        <ele>205.9</ele>
        <time>2022-09-25T11:12:40Z</time>
      </trkpt>
      <trkpt lat="45.71235" lon="5.53394">
        <ele>205.9</ele>
        <time>2022-09-25T11:12:41Z</time>
      </trkpt>
      <trkpt lat="45.71241" lon="5.53397">
        <ele>205.9</ele>
        <time>2022-09-25T11:12:42Z</time>
      </trkpt>
      <trkpt lat="45.71246" lon="5.53399">
        <ele>205.9</ele>
        <time>2022-09-25T11:12:43Z</time>
      </trkpt>
      <trkpt lat="45.7125" lon="5.53402">
        <ele>206</ele>
        <time>2022-09-25T11:12:44Z</time>
      </trkpt>
      <trkpt lat="45.71256" lon="5.53404">
        <ele>206</ele>
        <time>2022-09-25T11:12:45Z</time>
      </trkpt>
      <trkpt lat="45.7126" lon="5.53407">
        <ele>206</ele>
        <time>2022-09-25T11:12:46Z</time>
      </trkpt>
      <trkpt lat="45.71265" lon="5.53409">
        <ele>206.1</ele>
        <time>2022-09-25T11:12:47Z</time>
      </trkpt>
      <trkpt lat="45.7127" lon="5.53411">
        <ele>206.1</ele>
        <time>2022-09-25T11:12:48Z</time>
      </trkpt>
      <trkpt lat="45.71275" lon="5.53413">
        <ele>206.2</ele>
        <time>2022-09-25T11:12:49Z</time>
      </trkpt>
      <trkpt lat="45.71279" lon="5.53415">
        <ele>206.2</ele>
        <time>2022-09-25T11:12:50Z</time>
      </trkpt>
      <trkpt lat="45.71284" lon="5.53417">
        <ele>206.3</ele>
        <time>2022-09-25T11:12:51Z</time>
      </trkpt>
      <trkpt lat="45.71288" lon="5.53419">
        <ele>206.4</ele>
        <time>2022-09-25T11:12:52Z</time>
      </trkpt>
      <trkpt lat="45.71291" lon="5.5342">
        <ele>206.4</ele>
        <time>2022-09-25T11:12:53Z</time>
      </trkpt>
      <trkpt lat="45.71293" lon="5.53423">
        <ele>206.4</ele>
        <time>2022-09-25T11:12:54Z</time>
      </trkpt>
      <trkpt lat="45.71294" lon="5.53428">
        <ele>206.3</ele>
        <time>2022-09-25T11:12:55Z</time>
      </trkpt>
      <trkpt lat="45.71295" lon="5.53434">
        <ele>206.3</ele>
        <time>2022-09-25T11:12:56Z</time>
      </trkpt>
      <trkpt lat="45.71294" lon="5.5344">
        <ele>206.2</ele>
        <time>2022-09-25T11:12:57Z</time>
      </trkpt>
      <trkpt lat="45.71294" lon="5.53445">
        <ele>206.1</ele>
        <time>2022-09-25T11:12:58Z</time>
      </trkpt>
      <trkpt lat="45.71294" lon="5.53451">
        <ele>206.1</ele>
        <time>2022-09-25T11:12:59Z</time>
      </trkpt>
      <trkpt lat="45.71295" lon="5.53457">
        <ele>206</ele>
        <time>2022-09-25T11:13:00Z</time>
      </trkpt>
      <trkpt lat="45.71295" lon="5.53462">
        <ele>205.9</ele>
        <time>2022-09-25T11:13:01Z</time>
      </trkpt>
      <trkpt lat="45.71295" lon="5.53469">
        <ele>205.9</ele>
        <time>2022-09-25T11:13:02Z</time>
      </trkpt>
      <trkpt lat="45.71295" lon="5.53475">
        <ele>205.8</ele>
        <time>2022-09-25T11:13:03Z</time>
      </trkpt>
      <trkpt lat="45.71296" lon="5.53482">
        <ele>205.8</ele>
        <time>2022-09-25T11:13:04Z</time>
      </trkpt>
      <trkpt lat="45.71295" lon="5.53489">
        <ele>205.8</ele>
        <time>2022-09-25T11:13:05Z</time>
      </trkpt>
      <trkpt lat="45.71296" lon="5.53495">
        <ele>205.8</ele>
        <time>2022-09-25T11:13:06Z</time>
      </trkpt>
      <trkpt lat="45.71296" lon="5.53502">
        <ele>205.7</ele>
        <time>2022-09-25T11:13:07Z</time>
      </trkpt>
      <trkpt lat="45.71296" lon="5.53508">
        <ele>205.7</ele>
        <time>2022-09-25T11:13:08Z</time>
      </trkpt>
      <trkpt lat="45.71297" lon="5.53515">
        <ele>205.7</ele>
        <time>2022-09-25T11:13:09Z</time>
      </trkpt>
      <trkpt lat="45.71297" lon="5.53522">
        <ele>205.7</ele>
        <time>2022-09-25T11:13:10Z</time>
      </trkpt>
      <trkpt lat="45.71297" lon="5.53529">
        <ele>205.7</ele>
        <time>2022-09-25T11:13:11Z</time>
      </trkpt>
      <trkpt lat="45.71297" lon="5.53536">
        <ele>205.7</ele>
        <time>2022-09-25T11:13:12Z</time>
      </trkpt>
      <trkpt lat="45.71298" lon="5.53543">
        <ele>205.7</ele>
        <time>2022-09-25T11:13:13Z</time>
      </trkpt>
      <trkpt lat="45.71298" lon="5.53549">
        <ele>205.7</ele>
        <time>2022-09-25T11:13:14Z</time>
      </trkpt>
      <trkpt lat="45.71298" lon="5.53555">
        <ele>205.7</ele>
        <time>2022-09-25T11:13:15Z</time>
      </trkpt>
      <trkpt lat="45.71298" lon="5.53562">
        <ele>205.7</ele>
        <time>2022-09-25T11:13:16Z</time>
      </trkpt>
      <trkpt lat="45.71299" lon="5.53569">
        <ele>205.6</ele>
        <time>2022-09-25T11:13:17Z</time>
      </trkpt>
      <trkpt lat="45.71297" lon="5.53576">
        <ele>205.6</ele>
        <time>2022-09-25T11:13:18Z</time>
      </trkpt>
      <trkpt lat="45.71298" lon="5.53582">
        <ele>205.6</ele>
        <time>2022-09-25T11:13:19Z</time>
      </trkpt>
      <trkpt lat="45.71298" lon="5.5359">
        <ele>205.6</ele>
        <time>2022-09-25T11:13:20Z</time>
      </trkpt>
      <trkpt lat="45.71299" lon="5.53599">
        <ele>205.6</ele>
        <time>2022-09-25T11:13:21Z</time>
      </trkpt>
      <trkpt lat="45.71299" lon="5.53607">
        <ele>205.6</ele>
        <time>2022-09-25T11:13:22Z</time>
      </trkpt>
      <trkpt lat="45.713" lon="5.53614">
        <ele>205.6</ele>
        <time>2022-09-25T11:13:23Z</time>
      </trkpt>
      <trkpt lat="45.713" lon="5.53622">
        <ele>205.6</ele>
        <time>2022-09-25T11:13:24Z</time>
      </trkpt>
      <trkpt lat="45.713" lon="5.53629">
        <ele>205.6</ele>
        <time>2022-09-25T11:13:25Z</time>
      </trkpt>
      <trkpt lat="45.71301" lon="5.53637">
        <ele>205.6</ele>
        <time>2022-09-25T11:13:26Z</time>
      </trkpt>
      <trkpt lat="45.71301" lon="5.53644">
        <ele>205.6</ele>
        <time>2022-09-25T11:13:27Z</time>
      </trkpt>
      <trkpt lat="45.71301" lon="5.53652">
        <ele>205.6</ele>
        <time>2022-09-25T11:13:28Z</time>
      </trkpt>
      <trkpt lat="45.71302" lon="5.53659">
        <ele>205.6</ele>
        <time>2022-09-25T11:13:29Z</time>
      </trkpt>
      <trkpt lat="45.71302" lon="5.53666">
        <ele>205.6</ele>
        <time>2022-09-25T11:13:30Z</time>
      </trkpt>
      <trkpt lat="45.71302" lon="5.53674">
        <ele>205.6</ele>
        <time>2022-09-25T11:13:31Z</time>
      </trkpt>
      <trkpt lat="45.71303" lon="5.53681">
        <ele>205.6</ele>
        <time>2022-09-25T11:13:32Z</time>
      </trkpt>
      <trkpt lat="45.71301" lon="5.53688">
        <ele>205.6</ele>
        <time>2022-09-25T11:13:33Z</time>
      </trkpt>
      <trkpt lat="45.71301" lon="5.53695">
        <ele>205.6</ele>
        <time>2022-09-25T11:13:34Z</time>
      </trkpt>
      <trkpt lat="45.71302" lon="5.53703">
        <ele>205.6</ele>
        <time>2022-09-25T11:13:35Z</time>
      </trkpt>
      <trkpt lat="45.71302" lon="5.5371">
        <ele>205.6</ele>
        <time>2022-09-25T11:13:36Z</time>
      </trkpt>
      <trkpt lat="45.71303" lon="5.53717">
        <ele>205.6</ele>
        <time>2022-09-25T11:13:37Z</time>
      </trkpt>
      <trkpt lat="45.71302" lon="5.53725">
        <ele>205.6</ele>
        <time>2022-09-25T11:13:38Z</time>
      </trkpt>
      <trkpt lat="45.71303" lon="5.53732">
        <ele>205.6</ele>
        <time>2022-09-25T11:13:39Z</time>
      </trkpt>
      <trkpt lat="45.71303" lon="5.5374">
        <ele>205.6</ele>
        <time>2022-09-25T11:13:40Z</time>
      </trkpt>
      <trkpt lat="45.71303" lon="5.53748">
        <ele>205.6</ele>
        <time>2022-09-25T11:13:41Z</time>
      </trkpt>
      <trkpt lat="45.71304" lon="5.53756">
        <ele>205.6</ele>
        <time>2022-09-25T11:13:42Z</time>
      </trkpt>
      <trkpt lat="45.71305" lon="5.53763">
        <ele>205.6</ele>
        <time>2022-09-25T11:13:43Z</time>
      </trkpt>
      <trkpt lat="45.71305" lon="5.53771">
        <ele>205.6</ele>
        <time>2022-09-25T11:13:44Z</time>
      </trkpt>
      <trkpt lat="45.71306" lon="5.53778">
        <ele>205.6</ele>
        <time>2022-09-25T11:13:45Z</time>
      </trkpt>
      <trkpt lat="45.71306" lon="5.53786">
        <ele>205.6</ele>
        <time>2022-09-25T11:13:46Z</time>
      </trkpt>
      <trkpt lat="45.71307" lon="5.53793">
        <ele>205.6</ele>
        <time>2022-09-25T11:13:47Z</time>
      </trkpt>
      <trkpt lat="45.71307" lon="5.53801">
        <ele>205.6</ele>
        <time>2022-09-25T11:13:48Z</time>
      </trkpt>
      <trkpt lat="45.71308" lon="5.53809">
        <ele>205.7</ele>
        <time>2022-09-25T11:13:49Z</time>
      </trkpt>
      <trkpt lat="45.71307" lon="5.53817">
        <ele>205.7</ele>
        <time>2022-09-25T11:13:50Z</time>
      </trkpt>
      <trkpt lat="45.71307" lon="5.53824">
        <ele>205.7</ele>
        <time>2022-09-25T11:13:51Z</time>
      </trkpt>
      <trkpt lat="45.71308" lon="5.53832">
        <ele>205.7</ele>
        <time>2022-09-25T11:13:52Z</time>
      </trkpt>
      <trkpt lat="45.71308" lon="5.5384">
        <ele>205.7</ele>
        <time>2022-09-25T11:13:53Z</time>
      </trkpt>
      <trkpt lat="45.71308" lon="5.53847">
        <ele>205.7</ele>
        <time>2022-09-25T11:13:54Z</time>
      </trkpt>
      <trkpt lat="45.71308" lon="5.53855">
        <ele>205.8</ele>
        <time>2022-09-25T11:13:55Z</time>
      </trkpt>
      <trkpt lat="45.71308" lon="5.53863">
        <ele>205.8</ele>
        <time>2022-09-25T11:13:56Z</time>
      </trkpt>
      <trkpt lat="45.71308" lon="5.5387">
        <ele>205.8</ele>
        <time>2022-09-25T11:13:57Z</time>
      </trkpt>
      <trkpt lat="45.71309" lon="5.53878">
        <ele>205.8</ele>
        <time>2022-09-25T11:13:58Z</time>
      </trkpt>
      <trkpt lat="45.71309" lon="5.53885">
        <ele>205.8</ele>
        <time>2022-09-25T11:13:59Z</time>
      </trkpt>
      <trkpt lat="45.71309" lon="5.53893">
        <ele>205.8</ele>
        <time>2022-09-25T11:14:00Z</time>
      </trkpt>
      <trkpt lat="45.71309" lon="5.539">
        <ele>205.8</ele>
        <time>2022-09-25T11:14:01Z</time>
      </trkpt>
      <trkpt lat="45.71309" lon="5.53908">
        <ele>205.8</ele>
        <time>2022-09-25T11:14:02Z</time>
      </trkpt>
      <trkpt lat="45.71309" lon="5.53915">
        <ele>205.8</ele>
        <time>2022-09-25T11:14:03Z</time>
      </trkpt>
      <trkpt lat="45.71309" lon="5.53923">
        <ele>205.8</ele>
        <time>2022-09-25T11:14:04Z</time>
      </trkpt>
      <trkpt lat="45.7131" lon="5.5393">
        <ele>205.8</ele>
        <time>2022-09-25T11:14:05Z</time>
      </trkpt>
      <trkpt lat="45.71309" lon="5.53937">
        <ele>205.8</ele>
        <time>2022-09-25T11:14:06Z</time>
      </trkpt>
      <trkpt lat="45.7131" lon="5.53945">
        <ele>205.9</ele>
        <time>2022-09-25T11:14:07Z</time>
      </trkpt>
      <trkpt lat="45.71309" lon="5.53952">
        <ele>205.9</ele>
        <time>2022-09-25T11:14:08Z</time>
      </trkpt>
      <trkpt lat="45.71309" lon="5.5396">
        <ele>205.9</ele>
        <time>2022-09-25T11:14:09Z</time>
      </trkpt>
      <trkpt lat="45.71309" lon="5.53968">
        <ele>205.9</ele>
        <time>2022-09-25T11:14:10Z</time>
      </trkpt>
      <trkpt lat="45.71307" lon="5.53976">
        <ele>205.9</ele>
        <time>2022-09-25T11:14:11Z</time>
      </trkpt>
      <trkpt lat="45.71307" lon="5.53984">
        <ele>205.9</ele>
        <time>2022-09-25T11:14:12Z</time>
      </trkpt>
      <trkpt lat="45.71307" lon="5.53991">
        <ele>205.9</ele>
        <time>2022-09-25T11:14:13Z</time>
      </trkpt>
      <trkpt lat="45.71307" lon="5.53999">
        <ele>205.9</ele>
        <time>2022-09-25T11:14:14Z</time>
      </trkpt>
      <trkpt lat="45.71307" lon="5.54007">
        <ele>205.9</ele>
        <time>2022-09-25T11:14:15Z</time>
      </trkpt>
      <trkpt lat="45.71307" lon="5.54015">
        <ele>205.9</ele>
        <time>2022-09-25T11:14:16Z</time>
      </trkpt>
      <trkpt lat="45.71306" lon="5.54023">
        <ele>205.9</ele>
        <time>2022-09-25T11:14:17Z</time>
      </trkpt>
      <trkpt lat="45.71306" lon="5.5403">
        <ele>205.9</ele>
        <time>2022-09-25T11:14:18Z</time>
      </trkpt>
      <trkpt lat="45.71306" lon="5.54038">
        <ele>205.9</ele>
        <time>2022-09-25T11:14:19Z</time>
      </trkpt>
      <trkpt lat="45.71306" lon="5.54046">
        <ele>206</ele>
        <time>2022-09-25T11:14:20Z</time>
      </trkpt>
      <trkpt lat="45.71306" lon="5.54054">
        <ele>206</ele>
        <time>2022-09-25T11:14:21Z</time>
      </trkpt>
      <trkpt lat="45.71306" lon="5.54061">
        <ele>206</ele>
        <time>2022-09-25T11:14:22Z</time>
      </trkpt>
      <trkpt lat="45.71306" lon="5.54069">
        <ele>206</ele>
        <time>2022-09-25T11:14:23Z</time>
      </trkpt>
      <trkpt lat="45.71306" lon="5.54077">
        <ele>206</ele>
        <time>2022-09-25T11:14:24Z</time>
      </trkpt>
      <trkpt lat="45.71305" lon="5.54084">
        <ele>205.9</ele>
        <time>2022-09-25T11:14:25Z</time>
      </trkpt>
      <trkpt lat="45.71304" lon="5.54091">
        <ele>205.9</ele>
        <time>2022-09-25T11:14:26Z</time>
      </trkpt>
      <trkpt lat="45.71304" lon="5.54099">
        <ele>205.9</ele>
        <time>2022-09-25T11:14:27Z</time>
      </trkpt>
      <trkpt lat="45.71304" lon="5.54107">
        <ele>205.9</ele>
        <time>2022-09-25T11:14:28Z</time>
      </trkpt>
      <trkpt lat="45.71304" lon="5.54115">
        <ele>205.9</ele>
        <time>2022-09-25T11:14:29Z</time>
      </trkpt>
      <trkpt lat="45.71304" lon="5.54123">
        <ele>205.9</ele>
        <time>2022-09-25T11:14:30Z</time>
      </trkpt>
      <trkpt lat="45.71303" lon="5.54131">
        <ele>206</ele>
        <time>2022-09-25T11:14:31Z</time>
      </trkpt>
      <trkpt lat="45.71303" lon="5.54139">
        <ele>206</ele>
        <time>2022-09-25T11:14:32Z</time>
      </trkpt>
      <trkpt lat="45.71303" lon="5.54147">
        <ele>206</ele>
        <time>2022-09-25T11:14:33Z</time>
      </trkpt>
      <trkpt lat="45.71302" lon="5.54156">
        <ele>206</ele>
        <time>2022-09-25T11:14:34Z</time>
      </trkpt>
      <trkpt lat="45.71301" lon="5.54164">
        <ele>206</ele>
        <time>2022-09-25T11:14:35Z</time>
      </trkpt>
      <trkpt lat="45.71301" lon="5.54172">
        <ele>206.1</ele>
        <time>2022-09-25T11:14:36Z</time>
      </trkpt>
      <trkpt lat="45.713" lon="5.5418">
        <ele>206.1</ele>
        <time>2022-09-25T11:14:37Z</time>
      </trkpt>
      <trkpt lat="45.713" lon="5.54188">
        <ele>206.1</ele>
        <time>2022-09-25T11:14:38Z</time>
      </trkpt>
      <trkpt lat="45.71299" lon="5.54196">
        <ele>206.1</ele>
        <time>2022-09-25T11:14:39Z</time>
      </trkpt>
      <trkpt lat="45.71298" lon="5.54203">
        <ele>206.1</ele>
        <time>2022-09-25T11:14:40Z</time>
      </trkpt>
      <trkpt lat="45.71297" lon="5.54211">
        <ele>206.1</ele>
        <time>2022-09-25T11:14:41Z</time>
      </trkpt>
      <trkpt lat="45.71297" lon="5.54219">
        <ele>206.1</ele>
        <time>2022-09-25T11:14:42Z</time>
      </trkpt>
      <trkpt lat="45.71296" lon="5.54226">
        <ele>206.1</ele>
        <time>2022-09-25T11:14:44Z</time>
      </trkpt>
      <trkpt lat="45.71294" lon="5.54234">
        <ele>206.1</ele>
        <time>2022-09-25T11:14:45Z</time>
      </trkpt>
      <trkpt lat="45.71293" lon="5.54241">
        <ele>206.1</ele>
        <time>2022-09-25T11:14:46Z</time>
      </trkpt>
      <trkpt lat="45.71292" lon="5.54249">
        <ele>206.1</ele>
        <time>2022-09-25T11:14:47Z</time>
      </trkpt>
      <trkpt lat="45.71291" lon="5.54256">
        <ele>206.1</ele>
        <time>2022-09-25T11:14:48Z</time>
      </trkpt>
      <trkpt lat="45.7129" lon="5.54263">
        <ele>206.1</ele>
        <time>2022-09-25T11:14:49Z</time>
      </trkpt>
      <trkpt lat="45.71289" lon="5.54271">
        <ele>206.1</ele>
        <time>2022-09-25T11:14:50Z</time>
      </trkpt>
      <trkpt lat="45.71289" lon="5.54279">
        <ele>206.1</ele>
        <time>2022-09-25T11:14:51Z</time>
      </trkpt>
      <trkpt lat="45.71288" lon="5.54286">
        <ele>206.1</ele>
        <time>2022-09-25T11:14:52Z</time>
      </trkpt>
      <trkpt lat="45.71287" lon="5.54294">
        <ele>206.1</ele>
        <time>2022-09-25T11:14:53Z</time>
      </trkpt>
      <trkpt lat="45.71286" lon="5.54302">
        <ele>206.1</ele>
        <time>2022-09-25T11:14:54Z</time>
      </trkpt>
      <trkpt lat="45.71285" lon="5.5431">
        <ele>206.1</ele>
        <time>2022-09-25T11:14:55Z</time>
      </trkpt>
      <trkpt lat="45.71284" lon="5.54318">
        <ele>206.2</ele>
        <time>2022-09-25T11:14:56Z</time>
      </trkpt>
      <trkpt lat="45.71283" lon="5.54325">
        <ele>206.2</ele>
        <time>2022-09-25T11:14:57Z</time>
      </trkpt>
      <trkpt lat="45.71282" lon="5.54333">
        <ele>206.2</ele>
        <time>2022-09-25T11:14:58Z</time>
      </trkpt>
      <trkpt lat="45.71281" lon="5.54341">
        <ele>206.2</ele>
        <time>2022-09-25T11:14:59Z</time>
      </trkpt>
      <trkpt lat="45.71279" lon="5.54356">
        <ele>206.2</ele>
        <time>2022-09-25T11:15:00Z</time>
      </trkpt>
      <trkpt lat="45.71275" lon="5.54371">
        <ele>206.1</ele>
        <time>2022-09-25T11:15:02Z</time>
      </trkpt>
      <trkpt lat="45.71274" lon="5.54379">
        <ele>206.1</ele>
        <time>2022-09-25T11:15:03Z</time>
      </trkpt>
      <trkpt lat="45.71272" lon="5.54386">
        <ele>206.1</ele>
        <time>2022-09-25T11:15:04Z</time>
      </trkpt>
      <trkpt lat="45.71271" lon="5.54394">
        <ele>206.2</ele>
        <time>2022-09-25T11:15:05Z</time>
      </trkpt>
      <trkpt lat="45.7127" lon="5.54402">
        <ele>206.2</ele>
        <time>2022-09-25T11:15:06Z</time>
      </trkpt>
      <trkpt lat="45.71269" lon="5.54409">
        <ele>206.2</ele>
        <time>2022-09-25T11:15:07Z</time>
      </trkpt>
      <trkpt lat="45.71268" lon="5.54417">
        <ele>206.2</ele>
        <time>2022-09-25T11:15:08Z</time>
      </trkpt>
      <trkpt lat="45.71266" lon="5.54424">
        <ele>206.2</ele>
        <time>2022-09-25T11:15:09Z</time>
      </trkpt>
      <trkpt lat="45.71265" lon="5.54431">
        <ele>206.2</ele>
        <time>2022-09-25T11:15:10Z</time>
      </trkpt>
      <trkpt lat="45.71263" lon="5.54439">
        <ele>206.2</ele>
        <time>2022-09-25T11:15:11Z</time>
      </trkpt>
      <trkpt lat="45.71261" lon="5.54446">
        <ele>206.2</ele>
        <time>2022-09-25T11:15:12Z</time>
      </trkpt>
      <trkpt lat="45.71259" lon="5.54453">
        <ele>206.2</ele>
        <time>2022-09-25T11:15:13Z</time>
      </trkpt>
      <trkpt lat="45.71257" lon="5.5446">
        <ele>206.2</ele>
        <time>2022-09-25T11:15:14Z</time>
      </trkpt>
      <trkpt lat="45.71254" lon="5.54467">
        <ele>206.2</ele>
        <time>2022-09-25T11:15:15Z</time>
      </trkpt>
      <trkpt lat="45.71252" lon="5.54473">
        <ele>206.2</ele>
        <time>2022-09-25T11:15:16Z</time>
      </trkpt>
      <trkpt lat="45.71249" lon="5.5448">
        <ele>206.2</ele>
        <time>2022-09-25T11:15:17Z</time>
      </trkpt>
      <trkpt lat="45.71245" lon="5.54486">
        <ele>206.3</ele>
        <time>2022-09-25T11:15:18Z</time>
      </trkpt>
      <trkpt lat="45.71242" lon="5.54492">
        <ele>206.3</ele>
        <time>2022-09-25T11:15:19Z</time>
      </trkpt>
      <trkpt lat="45.71239" lon="5.54499">
        <ele>206.3</ele>
        <time>2022-09-25T11:15:20Z</time>
      </trkpt>
      <trkpt lat="45.71236" lon="5.54504">
        <ele>206.3</ele>
        <time>2022-09-25T11:15:21Z</time>
      </trkpt>
      <trkpt lat="45.71233" lon="5.54511">
        <ele>206.4</ele>
        <time>2022-09-25T11:15:22Z</time>
      </trkpt>
      <trkpt lat="45.7123" lon="5.54517">
        <ele>206.4</ele>
        <time>2022-09-25T11:15:23Z</time>
      </trkpt>
      <trkpt lat="45.71228" lon="5.54524">
        <ele>206.4</ele>
        <time>2022-09-25T11:15:24Z</time>
      </trkpt>
      <trkpt lat="45.71225" lon="5.5453">
        <ele>206.4</ele>
        <time>2022-09-25T11:15:25Z</time>
      </trkpt>
      <trkpt lat="45.71222" lon="5.54537">
        <ele>206.4</ele>
        <time>2022-09-25T11:15:26Z</time>
      </trkpt>
      <trkpt lat="45.71219" lon="5.54543">
        <ele>206.5</ele>
        <time>2022-09-25T11:15:27Z</time>
      </trkpt>
      <trkpt lat="45.71216" lon="5.54549">
        <ele>206.5</ele>
        <time>2022-09-25T11:15:28Z</time>
      </trkpt>
      <trkpt lat="45.71213" lon="5.54556">
        <ele>206.5</ele>
        <time>2022-09-25T11:15:29Z</time>
      </trkpt>
      <trkpt lat="45.7121" lon="5.54562">
        <ele>206.5</ele>
        <time>2022-09-25T11:15:30Z</time>
      </trkpt>
      <trkpt lat="45.71207" lon="5.54569">
        <ele>206.5</ele>
        <time>2022-09-25T11:15:31Z</time>
      </trkpt>
      <trkpt lat="45.71204" lon="5.54575">
        <ele>206.5</ele>
        <time>2022-09-25T11:15:32Z</time>
      </trkpt>
      <trkpt lat="45.71201" lon="5.54583">
        <ele>206.5</ele>
        <time>2022-09-25T11:15:33Z</time>
      </trkpt>
      <trkpt lat="45.71197" lon="5.5459">
        <ele>206.5</ele>
        <time>2022-09-25T11:15:34Z</time>
      </trkpt>
      <trkpt lat="45.71194" lon="5.54597">
        <ele>206.6</ele>
        <time>2022-09-25T11:15:35Z</time>
      </trkpt>
      <trkpt lat="45.71191" lon="5.54604">
        <ele>206.6</ele>
        <time>2022-09-25T11:15:36Z</time>
      </trkpt>
      <trkpt lat="45.71188" lon="5.5461">
        <ele>206.6</ele>
        <time>2022-09-25T11:15:37Z</time>
      </trkpt>
      <trkpt lat="45.71184" lon="5.54617">
        <ele>206.6</ele>
        <time>2022-09-25T11:15:38Z</time>
      </trkpt>
      <trkpt lat="45.71181" lon="5.54623">
        <ele>206.6</ele>
        <time>2022-09-25T11:15:39Z</time>
      </trkpt>
      <trkpt lat="45.71178" lon="5.54629">
        <ele>206.6</ele>
        <time>2022-09-25T11:15:40Z</time>
      </trkpt>
      <trkpt lat="45.71175" lon="5.54635">
        <ele>206.7</ele>
        <time>2022-09-25T11:15:41Z</time>
      </trkpt>
      <trkpt lat="45.71172" lon="5.54642">
        <ele>206.7</ele>
        <time>2022-09-25T11:15:42Z</time>
      </trkpt>
      <trkpt lat="45.71168" lon="5.54649">
        <ele>206.7</ele>
        <time>2022-09-25T11:15:43Z</time>
      </trkpt>
      <trkpt lat="45.71165" lon="5.54655">
        <ele>206.7</ele>
        <time>2022-09-25T11:15:44Z</time>
      </trkpt>
      <trkpt lat="45.71162" lon="5.54661">
        <ele>206.7</ele>
        <time>2022-09-25T11:15:45Z</time>
      </trkpt>
      <trkpt lat="45.71159" lon="5.54668">
        <ele>206.7</ele>
        <time>2022-09-25T11:15:46Z</time>
      </trkpt>
      <trkpt lat="45.71155" lon="5.54674">
        <ele>206.7</ele>
        <time>2022-09-25T11:15:47Z</time>
      </trkpt>
      <trkpt lat="45.71152" lon="5.5468">
        <ele>206.7</ele>
        <time>2022-09-25T11:15:48Z</time>
      </trkpt>
      <trkpt lat="45.71149" lon="5.54686">
        <ele>206.8</ele>
        <time>2022-09-25T11:15:49Z</time>
      </trkpt>
      <trkpt lat="45.71146" lon="5.54691">
        <ele>206.8</ele>
        <time>2022-09-25T11:15:50Z</time>
      </trkpt>
      <trkpt lat="45.71143" lon="5.54697">
        <ele>206.8</ele>
        <time>2022-09-25T11:15:51Z</time>
      </trkpt>
      <trkpt lat="45.71139" lon="5.54704">
        <ele>206.8</ele>
        <time>2022-09-25T11:15:52Z</time>
      </trkpt>
      <trkpt lat="45.71136" lon="5.5471">
        <ele>206.8</ele>
        <time>2022-09-25T11:15:53Z</time>
      </trkpt>
      <trkpt lat="45.71132" lon="5.54715">
        <ele>206.8</ele>
        <time>2022-09-25T11:15:54Z</time>
      </trkpt>
      <trkpt lat="45.7113" lon="5.5472">
        <ele>206.8</ele>
        <time>2022-09-25T11:15:55Z</time>
      </trkpt>
      <trkpt lat="45.71127" lon="5.54725">
        <ele>206.8</ele>
        <time>2022-09-25T11:15:56Z</time>
      </trkpt>
      <trkpt lat="45.71125" lon="5.54728">
        <ele>206.8</ele>
        <time>2022-09-25T11:15:57Z</time>
      </trkpt>
      <trkpt lat="45.71121" lon="5.5473">
        <ele>206.7</ele>
        <time>2022-09-25T11:15:58Z</time>
      </trkpt>
      <trkpt lat="45.71117" lon="5.54731">
        <ele>206.7</ele>
        <time>2022-09-25T11:15:59Z</time>
      </trkpt>
      <trkpt lat="45.71113" lon="5.54731">
        <ele>206.6</ele>
        <time>2022-09-25T11:16:00Z</time>
      </trkpt>
      <trkpt lat="45.71107" lon="5.54729">
        <ele>206.6</ele>
        <time>2022-09-25T11:16:01Z</time>
      </trkpt>
      <trkpt lat="45.71103" lon="5.54729">
        <ele>206.6</ele>
        <time>2022-09-25T11:16:02Z</time>
      </trkpt>
      <trkpt lat="45.71098" lon="5.54729">
        <ele>206.5</ele>
        <time>2022-09-25T11:16:03Z</time>
      </trkpt>
      <trkpt lat="45.71093" lon="5.54729">
        <ele>206.5</ele>
        <time>2022-09-25T11:16:04Z</time>
      </trkpt>
      <trkpt lat="45.71089" lon="5.54727">
        <ele>206.5</ele>
        <time>2022-09-25T11:16:05Z</time>
      </trkpt>
      <trkpt lat="45.71084" lon="5.54725">
        <ele>206.5</ele>
        <time>2022-09-25T11:16:06Z</time>
      </trkpt>
      <trkpt lat="45.7108" lon="5.54722">
        <ele>206.5</ele>
        <time>2022-09-25T11:16:07Z</time>
      </trkpt>
      <trkpt lat="45.71076" lon="5.5472">
        <ele>206.6</ele>
        <time>2022-09-25T11:16:08Z</time>
      </trkpt>
      <trkpt lat="45.71073" lon="5.54716">
        <ele>206.6</ele>
        <time>2022-09-25T11:16:09Z</time>
      </trkpt>
      <trkpt lat="45.71069" lon="5.54713">
        <ele>206.7</ele>
        <time>2022-09-25T11:16:10Z</time>
      </trkpt>
      <trkpt lat="45.71066" lon="5.54711">
        <ele>206.7</ele>
        <time>2022-09-25T11:16:11Z</time>
      </trkpt>
      <trkpt lat="45.71063" lon="5.54709">
        <ele>206.8</ele>
        <time>2022-09-25T11:16:12Z</time>
      </trkpt>
      <trkpt lat="45.7106" lon="5.54707">
        <ele>206.9</ele>
        <time>2022-09-25T11:16:13Z</time>
      </trkpt>
      <trkpt lat="45.71057" lon="5.54705">
        <ele>207</ele>
        <time>2022-09-25T11:16:14Z</time>
      </trkpt>
      <trkpt lat="45.71056" lon="5.54705">
        <ele>207</ele>
        <time>2022-09-25T11:16:15Z</time>
      </trkpt>
      <trkpt lat="45.71054" lon="5.54706">
        <ele>207.1</ele>
        <time>2022-09-25T11:16:16Z</time>
      </trkpt>
      <trkpt lat="45.71053" lon="5.54706">
        <ele>207.1</ele>
        <time>2022-09-25T11:16:17Z</time>
      </trkpt>
      <trkpt lat="45.71052" lon="5.54706">
        <ele>207.1</ele>
        <time>2022-09-25T11:16:18Z</time>
      </trkpt>
      <trkpt lat="45.71051" lon="5.54706">
        <ele>207.2</ele>
        <time>2022-09-25T11:16:19Z</time>
      </trkpt>
      <trkpt lat="45.71049" lon="5.54708">
        <ele>207.3</ele>
        <time>2022-09-25T11:16:20Z</time>
      </trkpt>
      <trkpt lat="45.71049" lon="5.54713">
        <ele>207.3</ele>
        <time>2022-09-25T11:16:21Z</time>
      </trkpt>
      <trkpt lat="45.7105" lon="5.54714">
        <ele>207.4</ele>
        <time>2022-09-25T11:16:22Z</time>
      </trkpt>
      <trkpt lat="45.71051" lon="5.54718">
        <ele>207.4</ele>
        <time>2022-09-25T11:16:23Z</time>
      </trkpt>
      <trkpt lat="45.71053" lon="5.54721">
        <ele>207.5</ele>
        <time>2022-09-25T11:16:24Z</time>
      </trkpt>
      <trkpt lat="45.71057" lon="5.54723">
        <ele>207.6</ele>
        <time>2022-09-25T11:16:25Z</time>
      </trkpt>
      <trkpt lat="45.7106" lon="5.54726">
        <ele>207.7</ele>
        <time>2022-09-25T11:16:26Z</time>
      </trkpt>
      <trkpt lat="45.71063" lon="5.54728">
        <ele>207.8</ele>
        <time>2022-09-25T11:16:27Z</time>
      </trkpt>
      <trkpt lat="45.71066" lon="5.54731">
        <ele>207.9</ele>
        <time>2022-09-25T11:16:28Z</time>
      </trkpt>
      <trkpt lat="45.71069" lon="5.54733">
        <ele>207.9</ele>
        <time>2022-09-25T11:16:29Z</time>
      </trkpt>
      <trkpt lat="45.71072" lon="5.54736">
        <ele>208.1</ele>
        <time>2022-09-25T11:16:30Z</time>
      </trkpt>
      <trkpt lat="45.71076" lon="5.54738">
        <ele>208.2</ele>
        <time>2022-09-25T11:16:31Z</time>
      </trkpt>
      <trkpt lat="45.71078" lon="5.5474">
        <ele>208.2</ele>
        <time>2022-09-25T11:16:32Z</time>
      </trkpt>
      <trkpt lat="45.71082" lon="5.54742">
        <ele>208.3</ele>
        <time>2022-09-25T11:16:33Z</time>
      </trkpt>
      <trkpt lat="45.71085" lon="5.54744">
        <ele>208.4</ele>
        <time>2022-09-25T11:16:34Z</time>
      </trkpt>
      <trkpt lat="45.71089" lon="5.54746">
        <ele>208.6</ele>
        <time>2022-09-25T11:16:35Z</time>
      </trkpt>
      <trkpt lat="45.71092" lon="5.54748">
        <ele>208.7</ele>
        <time>2022-09-25T11:16:36Z</time>
      </trkpt>
      <trkpt lat="45.71095" lon="5.54751">
        <ele>208.7</ele>
        <time>2022-09-25T11:16:37Z</time>
      </trkpt>
      <trkpt lat="45.71098" lon="5.54753">
        <ele>208.8</ele>
        <time>2022-09-25T11:16:38Z</time>
      </trkpt>
      <trkpt lat="45.71101" lon="5.54756">
        <ele>208.9</ele>
        <time>2022-09-25T11:16:39Z</time>
      </trkpt>
      <trkpt lat="45.71105" lon="5.5476">
        <ele>209</ele>
        <time>2022-09-25T11:16:40Z</time>
      </trkpt>
      <trkpt lat="45.71108" lon="5.54762">
        <ele>209</ele>
        <time>2022-09-25T11:16:41Z</time>
      </trkpt>
      <trkpt lat="45.71112" lon="5.54764">
        <ele>209.1</ele>
        <time>2022-09-25T11:16:42Z</time>
      </trkpt>
      <trkpt lat="45.71115" lon="5.54766">
        <ele>209.2</ele>
        <time>2022-09-25T11:16:43Z</time>
      </trkpt>
      <trkpt lat="45.71118" lon="5.54769">
        <ele>209.3</ele>
        <time>2022-09-25T11:16:44Z</time>
      </trkpt>
      <trkpt lat="45.71123" lon="5.54771">
        <ele>209.4</ele>
        <time>2022-09-25T11:16:45Z</time>
      </trkpt>
      <trkpt lat="45.71126" lon="5.54774">
        <ele>209.5</ele>
        <time>2022-09-25T11:16:46Z</time>
      </trkpt>
      <trkpt lat="45.71129" lon="5.54776">
        <ele>209.6</ele>
        <time>2022-09-25T11:16:47Z</time>
      </trkpt>
      <trkpt lat="45.71133" lon="5.54779">
        <ele>209.7</ele>
        <time>2022-09-25T11:16:48Z</time>
      </trkpt>
      <trkpt lat="45.71136" lon="5.54783">
        <ele>209.9</ele>
        <time>2022-09-25T11:16:49Z</time>
      </trkpt>
      <trkpt lat="45.71139" lon="5.54785">
        <ele>210</ele>
        <time>2022-09-25T11:16:50Z</time>
      </trkpt>
      <trkpt lat="45.71142" lon="5.54787">
        <ele>210.1</ele>
        <time>2022-09-25T11:16:51Z</time>
      </trkpt>
      <trkpt lat="45.71146" lon="5.5479">
        <ele>210.2</ele>
        <time>2022-09-25T11:16:52Z</time>
      </trkpt>
      <trkpt lat="45.71149" lon="5.54793">
        <ele>210.3</ele>
        <time>2022-09-25T11:16:53Z</time>
      </trkpt>
      <trkpt lat="45.71152" lon="5.54795">
        <ele>210.5</ele>
        <time>2022-09-25T11:16:54Z</time>
      </trkpt>
      <trkpt lat="45.71154" lon="5.54798">
        <ele>210.6</ele>
        <time>2022-09-25T11:16:55Z</time>
      </trkpt>
      <trkpt lat="45.71158" lon="5.54799">
        <ele>210.7</ele>
        <time>2022-09-25T11:16:56Z</time>
      </trkpt>
      <trkpt lat="45.71164" lon="5.54804">
        <ele>210.9</ele>
        <time>2022-09-25T11:16:58Z</time>
      </trkpt>
      <trkpt lat="45.7117" lon="5.54809">
        <ele>211.1</ele>
        <time>2022-09-25T11:17:00Z</time>
      </trkpt>
      <trkpt lat="45.71176" lon="5.54814">
        <ele>211.3</ele>
        <time>2022-09-25T11:17:02Z</time>
      </trkpt>
      <trkpt lat="45.71181" lon="5.54818">
        <ele>211.5</ele>
        <time>2022-09-25T11:17:04Z</time>
      </trkpt>
      <trkpt lat="45.71184" lon="5.5482">
        <ele>211.6</ele>
        <time>2022-09-25T11:17:06Z</time>
      </trkpt>
      <trkpt lat="45.71187" lon="5.54823">
        <ele>211.6</ele>
        <time>2022-09-25T11:17:07Z</time>
      </trkpt>
      <trkpt lat="45.71194" lon="5.54828">
        <ele>211.8</ele>
        <time>2022-09-25T11:17:08Z</time>
      </trkpt>
      <trkpt lat="45.71197" lon="5.5483">
        <ele>211.9</ele>
        <time>2022-09-25T11:17:09Z</time>
      </trkpt>
      <trkpt lat="45.712" lon="5.54833">
        <ele>211.9</ele>
        <time>2022-09-25T11:17:10Z</time>
      </trkpt>
      <trkpt lat="45.71204" lon="5.54836">
        <ele>212</ele>
        <time>2022-09-25T11:17:11Z</time>
      </trkpt>
      <trkpt lat="45.71207" lon="5.54838">
        <ele>212</ele>
        <time>2022-09-25T11:17:12Z</time>
      </trkpt>
      <trkpt lat="45.71211" lon="5.54841">
        <ele>212.1</ele>
        <time>2022-09-25T11:17:13Z</time>
      </trkpt>
      <trkpt lat="45.71214" lon="5.54843">
        <ele>212.1</ele>
        <time>2022-09-25T11:17:14Z</time>
      </trkpt>
      <trkpt lat="45.71217" lon="5.54846">
        <ele>212.1</ele>
        <time>2022-09-25T11:17:15Z</time>
      </trkpt>
      <trkpt lat="45.71221" lon="5.54849">
        <ele>212.1</ele>
        <time>2022-09-25T11:17:16Z</time>
      </trkpt>
      <trkpt lat="45.71224" lon="5.54851">
        <ele>212.1</ele>
        <time>2022-09-25T11:17:17Z</time>
      </trkpt>
      <trkpt lat="45.71227" lon="5.54853">
        <ele>212.1</ele>
        <time>2022-09-25T11:17:18Z</time>
      </trkpt>
      <trkpt lat="45.71231" lon="5.54856">
        <ele>212.1</ele>
        <time>2022-09-25T11:17:19Z</time>
      </trkpt>
      <trkpt lat="45.71234" lon="5.54859">
        <ele>212.1</ele>
        <time>2022-09-25T11:17:20Z</time>
      </trkpt>
      <trkpt lat="45.71238" lon="5.54861">
        <ele>212.1</ele>
        <time>2022-09-25T11:17:21Z</time>
      </trkpt>
      <trkpt lat="45.71241" lon="5.54864">
        <ele>212.1</ele>
        <time>2022-09-25T11:17:22Z</time>
      </trkpt>
      <trkpt lat="45.71245" lon="5.54867">
        <ele>212</ele>
        <time>2022-09-25T11:17:23Z</time>
      </trkpt>
      <trkpt lat="45.71248" lon="5.54869">
        <ele>212</ele>
        <time>2022-09-25T11:17:24Z</time>
      </trkpt>
      <trkpt lat="45.71252" lon="5.54872">
        <ele>211.9</ele>
        <time>2022-09-25T11:17:25Z</time>
      </trkpt>
      <trkpt lat="45.71255" lon="5.54874">
        <ele>211.9</ele>
        <time>2022-09-25T11:17:26Z</time>
      </trkpt>
      <trkpt lat="45.71258" lon="5.54877">
        <ele>211.8</ele>
        <time>2022-09-25T11:17:27Z</time>
      </trkpt>
      <trkpt lat="45.71262" lon="5.5488">
        <ele>211.7</ele>
        <time>2022-09-25T11:17:28Z</time>
      </trkpt>
      <trkpt lat="45.71266" lon="5.54882">
        <ele>211.7</ele>
        <time>2022-09-25T11:17:29Z</time>
      </trkpt>
      <trkpt lat="45.71269" lon="5.54885">
        <ele>211.6</ele>
        <time>2022-09-25T11:17:30Z</time>
      </trkpt>
      <trkpt lat="45.71273" lon="5.54888">
        <ele>211.5</ele>
        <time>2022-09-25T11:17:31Z</time>
      </trkpt>
      <trkpt lat="45.71276" lon="5.54891">
        <ele>211.4</ele>
        <time>2022-09-25T11:17:32Z</time>
      </trkpt>
      <trkpt lat="45.7128" lon="5.54894">
        <ele>211.3</ele>
        <time>2022-09-25T11:17:33Z</time>
      </trkpt>
      <trkpt lat="45.71284" lon="5.54896">
        <ele>211.2</ele>
        <time>2022-09-25T11:17:34Z</time>
      </trkpt>
      <trkpt lat="45.71287" lon="5.54899">
        <ele>211</ele>
        <time>2022-09-25T11:17:35Z</time>
      </trkpt>
      <trkpt lat="45.71291" lon="5.54902">
        <ele>210.9</ele>
        <time>2022-09-25T11:17:36Z</time>
      </trkpt>
      <trkpt lat="45.71296" lon="5.54905">
        <ele>210.8</ele>
        <time>2022-09-25T11:17:37Z</time>
      </trkpt>
      <trkpt lat="45.71299" lon="5.54907">
        <ele>210.7</ele>
        <time>2022-09-25T11:17:38Z</time>
      </trkpt>
      <trkpt lat="45.71302" lon="5.54909">
        <ele>210.6</ele>
        <time>2022-09-25T11:17:39Z</time>
      </trkpt>
      <trkpt lat="45.71305" lon="5.54911">
        <ele>210.4</ele>
        <time>2022-09-25T11:17:40Z</time>
      </trkpt>
      <trkpt lat="45.71309" lon="5.54914">
        <ele>210.3</ele>
        <time>2022-09-25T11:17:41Z</time>
      </trkpt>
      <trkpt lat="45.71312" lon="5.54916">
        <ele>210.2</ele>
        <time>2022-09-25T11:17:42Z</time>
      </trkpt>
      <trkpt lat="45.71314" lon="5.54918">
        <ele>210.1</ele>
        <time>2022-09-25T11:17:43Z</time>
      </trkpt>
      <trkpt lat="45.71317" lon="5.5492">
        <ele>210</ele>
        <time>2022-09-25T11:17:44Z</time>
      </trkpt>
      <trkpt lat="45.71319" lon="5.54922">
        <ele>209.9</ele>
        <time>2022-09-25T11:17:45Z</time>
      </trkpt>
      <trkpt lat="45.71322" lon="5.54926">
        <ele>209.7</ele>
        <time>2022-09-25T11:17:46Z</time>
      </trkpt>
      <trkpt lat="45.71324" lon="5.54927">
        <ele>209.7</ele>
        <time>2022-09-25T11:17:47Z</time>
      </trkpt>
      <trkpt lat="45.71325" lon="5.54931">
        <ele>209.5</ele>
        <time>2022-09-25T11:17:48Z</time>
      </trkpt>
      <trkpt lat="45.71325" lon="5.54936">
        <ele>209.5</ele>
        <time>2022-09-25T11:17:49Z</time>
      </trkpt>
      <trkpt lat="45.71325" lon="5.54942">
        <ele>209.4</ele>
        <time>2022-09-25T11:17:50Z</time>
      </trkpt>
      <trkpt lat="45.71323" lon="5.54947">
        <ele>209.4</ele>
        <time>2022-09-25T11:17:51Z</time>
      </trkpt>
      <trkpt lat="45.71321" lon="5.54953">
        <ele>209.4</ele>
        <time>2022-09-25T11:17:52Z</time>
      </trkpt>
      <trkpt lat="45.7132" lon="5.54959">
        <ele>209.4</ele>
        <time>2022-09-25T11:17:53Z</time>
      </trkpt>
      <trkpt lat="45.71319" lon="5.54965">
        <ele>209.4</ele>
        <time>2022-09-25T11:17:54Z</time>
      </trkpt>
      <trkpt lat="45.71318" lon="5.5497">
        <ele>209.3</ele>
        <time>2022-09-25T11:17:55Z</time>
      </trkpt>
      <trkpt lat="45.71317" lon="5.54976">
        <ele>209.3</ele>
        <time>2022-09-25T11:17:56Z</time>
      </trkpt>
      <trkpt lat="45.71315" lon="5.54982">
        <ele>209.3</ele>
        <time>2022-09-25T11:17:57Z</time>
      </trkpt>
      <trkpt lat="45.71314" lon="5.5499">
        <ele>209.3</ele>
        <time>2022-09-25T11:17:58Z</time>
      </trkpt>
      <trkpt lat="45.71313" lon="5.54995">
        <ele>209.3</ele>
        <time>2022-09-25T11:17:59Z</time>
      </trkpt>
      <trkpt lat="45.71313" lon="5.55">
        <ele>209.3</ele>
        <time>2022-09-25T11:18:00Z</time>
      </trkpt>
      <trkpt lat="45.71312" lon="5.55006">
        <ele>209.3</ele>
        <time>2022-09-25T11:18:01Z</time>
      </trkpt>
      <trkpt lat="45.7131" lon="5.55011">
        <ele>209.3</ele>
        <time>2022-09-25T11:18:02Z</time>
      </trkpt>
      <trkpt lat="45.71307" lon="5.55017">
        <ele>209.2</ele>
        <time>2022-09-25T11:18:03Z</time>
      </trkpt>
      <trkpt lat="45.71306" lon="5.55022">
        <ele>209.2</ele>
        <time>2022-09-25T11:18:04Z</time>
      </trkpt>
      <trkpt lat="45.71305" lon="5.55028">
        <ele>209.2</ele>
        <time>2022-09-25T11:18:05Z</time>
      </trkpt>
      <trkpt lat="45.71302" lon="5.55035">
        <ele>209.2</ele>
        <time>2022-09-25T11:18:06Z</time>
      </trkpt>
      <trkpt lat="45.713" lon="5.55042">
        <ele>209.1</ele>
        <time>2022-09-25T11:18:07Z</time>
      </trkpt>
      <trkpt lat="45.71298" lon="5.55048">
        <ele>209.1</ele>
        <time>2022-09-25T11:18:08Z</time>
      </trkpt>
      <trkpt lat="45.71297" lon="5.55054">
        <ele>209.1</ele>
        <time>2022-09-25T11:18:09Z</time>
      </trkpt>
      <trkpt lat="45.71294" lon="5.55059">
        <ele>209</ele>
        <time>2022-09-25T11:18:10Z</time>
      </trkpt>
      <trkpt lat="45.71292" lon="5.55066">
        <ele>209</ele>
        <time>2022-09-25T11:18:11Z</time>
      </trkpt>
      <trkpt lat="45.7129" lon="5.55072">
        <ele>209</ele>
        <time>2022-09-25T11:18:12Z</time>
      </trkpt>
      <trkpt lat="45.71288" lon="5.55078">
        <ele>209</ele>
        <time>2022-09-25T11:18:13Z</time>
      </trkpt>
      <trkpt lat="45.71286" lon="5.55084">
        <ele>209.1</ele>
        <time>2022-09-25T11:18:14Z</time>
      </trkpt>
      <trkpt lat="45.71284" lon="5.55089">
        <ele>209.1</ele>
        <time>2022-09-25T11:18:15Z</time>
      </trkpt>
      <trkpt lat="45.71283" lon="5.55094">
        <ele>209.1</ele>
        <time>2022-09-25T11:18:16Z</time>
      </trkpt>
      <trkpt lat="45.71281" lon="5.55096">
        <ele>209.2</ele>
        <time>2022-09-25T11:18:17Z</time>
      </trkpt>
      <trkpt lat="45.71279" lon="5.55096">
        <ele>208.9</ele>
        <time>2022-09-25T11:18:18Z</time>
      </trkpt>
      <trkpt lat="45.71275" lon="5.55094">
        <ele>208.6</ele>
        <time>2022-09-25T11:18:19Z</time>
      </trkpt>
      <trkpt lat="45.71271" lon="5.55092">
        <ele>208.3</ele>
        <time>2022-09-25T11:18:20Z</time>
      </trkpt>
      <trkpt lat="45.71267" lon="5.55089">
        <ele>208</ele>
        <time>2022-09-25T11:18:21Z</time>
      </trkpt>
      <trkpt lat="45.71264" lon="5.55085">
        <ele>207.7</ele>
        <time>2022-09-25T11:18:22Z</time>
      </trkpt>
      <trkpt lat="45.71261" lon="5.55082">
        <ele>207.5</ele>
        <time>2022-09-25T11:18:23Z</time>
      </trkpt>
      <trkpt lat="45.71259" lon="5.55077">
        <ele>207.3</ele>
        <time>2022-09-25T11:18:24Z</time>
      </trkpt>
      <trkpt lat="45.71257" lon="5.55073">
        <ele>207.1</ele>
        <time>2022-09-25T11:18:25Z</time>
      </trkpt>
      <trkpt lat="45.71256" lon="5.55068">
        <ele>207</ele>
        <time>2022-09-25T11:18:26Z</time>
      </trkpt>
      <trkpt lat="45.71254" lon="5.55063">
        <ele>206.8</ele>
        <time>2022-09-25T11:18:27Z</time>
      </trkpt>
      <trkpt lat="45.71254" lon="5.55062">
        <ele>206.8</ele>
        <time>2022-09-25T11:18:28Z</time>
      </trkpt>
      <trkpt lat="45.71251" lon="5.5506">
        <ele>206.7</ele>
        <time>2022-09-25T11:18:29Z</time>
      </trkpt>
      <trkpt lat="45.71249" lon="5.5506">
        <ele>206.6</ele>
        <time>2022-09-25T11:18:30Z</time>
      </trkpt>
      <trkpt lat="45.71246" lon="5.55061">
        <ele>206.4</ele>
        <time>2022-09-25T11:18:31Z</time>
      </trkpt>
      <trkpt lat="45.71243" lon="5.55061">
        <ele>206.3</ele>
        <time>2022-09-25T11:18:32Z</time>
      </trkpt>
      <trkpt lat="45.7124" lon="5.55062">
        <ele>206.3</ele>
        <time>2022-09-25T11:18:33Z</time>
      </trkpt>
      <trkpt lat="45.71238" lon="5.55066">
        <ele>206.3</ele>
        <time>2022-09-25T11:18:34Z</time>
      </trkpt>
      <trkpt lat="45.71235" lon="5.5507">
        <ele>206.2</ele>
        <time>2022-09-25T11:18:35Z</time>
      </trkpt>
      <trkpt lat="45.71231" lon="5.55073">
        <ele>206.2</ele>
        <time>2022-09-25T11:18:36Z</time>
      </trkpt>
      <trkpt lat="45.71228" lon="5.55076">
        <ele>206.1</ele>
        <time>2022-09-25T11:18:37Z</time>
      </trkpt>
      <trkpt lat="45.71224" lon="5.5508">
        <ele>206.1</ele>
        <time>2022-09-25T11:18:38Z</time>
      </trkpt>
      <trkpt lat="45.71221" lon="5.55084">
        <ele>206.1</ele>
        <time>2022-09-25T11:18:39Z</time>
      </trkpt>
      <trkpt lat="45.71218" lon="5.55089">
        <ele>206.1</ele>
        <time>2022-09-25T11:18:40Z</time>
      </trkpt>
      <trkpt lat="45.71215" lon="5.55092">
        <ele>206</ele>
        <time>2022-09-25T11:18:41Z</time>
      </trkpt>
      <trkpt lat="45.71212" lon="5.55096">
        <ele>206</ele>
        <time>2022-09-25T11:18:42Z</time>
      </trkpt>
      <trkpt lat="45.71209" lon="5.551">
        <ele>206</ele>
        <time>2022-09-25T11:18:43Z</time>
      </trkpt>
      <trkpt lat="45.71206" lon="5.55103">
        <ele>206</ele>
        <time>2022-09-25T11:18:44Z</time>
      </trkpt>
      <trkpt lat="45.71203" lon="5.55107">
        <ele>206</ele>
        <time>2022-09-25T11:18:45Z</time>
      </trkpt>
      <trkpt lat="45.71202" lon="5.55112">
        <ele>206</ele>
        <time>2022-09-25T11:18:46Z</time>
      </trkpt>
      <trkpt lat="45.712" lon="5.55118">
        <ele>205.9</ele>
        <time>2022-09-25T11:18:47Z</time>
      </trkpt>
      <trkpt lat="45.71198" lon="5.55121">
        <ele>205.9</ele>
        <time>2022-09-25T11:18:48Z</time>
      </trkpt>
      <trkpt lat="45.71195" lon="5.55126">
        <ele>205.9</ele>
        <time>2022-09-25T11:18:49Z</time>
      </trkpt>
      <trkpt lat="45.71193" lon="5.5513">
        <ele>205.9</ele>
        <time>2022-09-25T11:18:50Z</time>
      </trkpt>
      <trkpt lat="45.7119" lon="5.55134">
        <ele>205.9</ele>
        <time>2022-09-25T11:18:51Z</time>
      </trkpt>
      <trkpt lat="45.71189" lon="5.55139">
        <ele>205.8</ele>
        <time>2022-09-25T11:18:52Z</time>
      </trkpt>
      <trkpt lat="45.71187" lon="5.55142">
        <ele>205.8</ele>
        <time>2022-09-25T11:18:53Z</time>
      </trkpt>
      <trkpt lat="45.71185" lon="5.55146">
        <ele>205.8</ele>
        <time>2022-09-25T11:18:54Z</time>
      </trkpt>
      <trkpt lat="45.71182" lon="5.5515">
        <ele>205.8</ele>
        <time>2022-09-25T11:18:55Z</time>
      </trkpt>
      <trkpt lat="45.71181" lon="5.55151">
        <ele>205.8</ele>
        <time>2022-09-25T11:18:56Z</time>
      </trkpt>
      <trkpt lat="45.71178" lon="5.55155">
        <ele>205.9</ele>
        <time>2022-09-25T11:18:57Z</time>
      </trkpt>
      <trkpt lat="45.71176" lon="5.55159">
        <ele>205.9</ele>
        <time>2022-09-25T11:18:58Z</time>
      </trkpt>
      <trkpt lat="45.71172" lon="5.55164">
        <ele>205.9</ele>
        <time>2022-09-25T11:18:59Z</time>
      </trkpt>
      <trkpt lat="45.71169" lon="5.55168">
        <ele>205.9</ele>
        <time>2022-09-25T11:19:00Z</time>
      </trkpt>
      <trkpt lat="45.71166" lon="5.55172">
        <ele>205.9</ele>
        <time>2022-09-25T11:19:01Z</time>
      </trkpt>
      <trkpt lat="45.71163" lon="5.55176">
        <ele>206</ele>
        <time>2022-09-25T11:19:02Z</time>
      </trkpt>
      <trkpt lat="45.7116" lon="5.5518">
        <ele>206</ele>
        <time>2022-09-25T11:19:03Z</time>
      </trkpt>
      <trkpt lat="45.71156" lon="5.55182">
        <ele>206</ele>
        <time>2022-09-25T11:19:04Z</time>
      </trkpt>
      <trkpt lat="45.71152" lon="5.55186">
        <ele>206</ele>
        <time>2022-09-25T11:19:05Z</time>
      </trkpt>
      <trkpt lat="45.71149" lon="5.5519">
        <ele>206</ele>
        <time>2022-09-25T11:19:06Z</time>
      </trkpt>
      <trkpt lat="45.71145" lon="5.55193">
        <ele>206.1</ele>
        <time>2022-09-25T11:19:07Z</time>
      </trkpt>
      <trkpt lat="45.71142" lon="5.55196">
        <ele>206.1</ele>
        <time>2022-09-25T11:19:08Z</time>
      </trkpt>
      <trkpt lat="45.71138" lon="5.55199">
        <ele>206.1</ele>
        <time>2022-09-25T11:19:09Z</time>
      </trkpt>
      <trkpt lat="45.71136" lon="5.55202">
        <ele>206.1</ele>
        <time>2022-09-25T11:19:10Z</time>
      </trkpt>
      <trkpt lat="45.71132" lon="5.55206">
        <ele>206.1</ele>
        <time>2022-09-25T11:19:11Z</time>
      </trkpt>
      <trkpt lat="45.71129" lon="5.55208">
        <ele>206.1</ele>
        <time>2022-09-25T11:19:12Z</time>
      </trkpt>
      <trkpt lat="45.71126" lon="5.55211">
        <ele>206.1</ele>
        <time>2022-09-25T11:19:13Z</time>
      </trkpt>
      <trkpt lat="45.71125" lon="5.55216">
        <ele>206.1</ele>
        <time>2022-09-25T11:19:14Z</time>
      </trkpt>
      <trkpt lat="45.71124" lon="5.55221">
        <ele>206.1</ele>
        <time>2022-09-25T11:19:15Z</time>
      </trkpt>
      <trkpt lat="45.71125" lon="5.55225">
        <ele>206.3</ele>
        <time>2022-09-25T11:19:16Z</time>
      </trkpt>
      <trkpt lat="45.71127" lon="5.5523">
        <ele>206.3</ele>
        <time>2022-09-25T11:19:17Z</time>
      </trkpt>
      <trkpt lat="45.7113" lon="5.55234">
        <ele>206.3</ele>
        <time>2022-09-25T11:19:18Z</time>
      </trkpt>
      <trkpt lat="45.71132" lon="5.55238">
        <ele>206.3</ele>
        <time>2022-09-25T11:19:19Z</time>
      </trkpt>
      <trkpt lat="45.71135" lon="5.55243">
        <ele>206.3</ele>
        <time>2022-09-25T11:19:20Z</time>
      </trkpt>
      <trkpt lat="45.71137" lon="5.55247">
        <ele>206.3</ele>
        <time>2022-09-25T11:19:21Z</time>
      </trkpt>
      <trkpt lat="45.71138" lon="5.5525">
        <ele>206.3</ele>
        <time>2022-09-25T11:19:22Z</time>
      </trkpt>
      <trkpt lat="45.71141" lon="5.55252">
        <ele>206.3</ele>
        <time>2022-09-25T11:19:23Z</time>
      </trkpt>
      <trkpt lat="45.71143" lon="5.55253">
        <ele>206.3</ele>
        <time>2022-09-25T11:19:24Z</time>
      </trkpt>
      <trkpt lat="45.71144" lon="5.55255">
        <ele>206.3</ele>
        <time>2022-09-25T11:19:25Z</time>
      </trkpt>
      <trkpt lat="45.71146" lon="5.55257">
        <ele>206.3</ele>
        <time>2022-09-25T11:19:26Z</time>
      </trkpt>
      <trkpt lat="45.71147" lon="5.55258">
        <ele>206.3</ele>
        <time>2022-09-25T11:19:27Z</time>
      </trkpt>
      <trkpt lat="45.71149" lon="5.5526">
        <ele>206.3</ele>
        <time>2022-09-25T11:19:28Z</time>
      </trkpt>
      <trkpt lat="45.71151" lon="5.55263">
        <ele>206.3</ele>
        <time>2022-09-25T11:19:29Z</time>
      </trkpt>
      <trkpt lat="45.71151" lon="5.55263">
        <ele>206.3</ele>
        <time>2022-09-25T11:19:30Z</time>
      </trkpt>
      <trkpt lat="45.71152" lon="5.55265">
        <ele>206.3</ele>
        <time>2022-09-25T11:19:31Z</time>
      </trkpt>
      <trkpt lat="45.71153" lon="5.55266">
        <ele>206.3</ele>
        <time>2022-09-25T11:19:32Z</time>
      </trkpt>
      <trkpt lat="45.71153" lon="5.55266">
        <ele>206.3</ele>
        <time>2022-09-25T11:19:33Z</time>
      </trkpt>
      <trkpt lat="45.71153" lon="5.55264">
        <ele>206.3</ele>
        <time>2022-09-25T11:19:34Z</time>
      </trkpt>
      <trkpt lat="45.71153" lon="5.55263">
        <ele>206.3</ele>
        <time>2022-09-25T11:19:35Z</time>
      </trkpt>
      <trkpt lat="45.71154" lon="5.55264">
        <ele>206.3</ele>
        <time>2022-09-25T11:19:36Z</time>
      </trkpt>
      <trkpt lat="45.71153" lon="5.55262">
        <ele>206.3</ele>
        <time>2022-09-25T11:19:37Z</time>
      </trkpt>
      <trkpt lat="45.71153" lon="5.55262">
        <ele>206.3</ele>
        <time>2022-09-25T11:19:38Z</time>
      </trkpt>
      <trkpt lat="45.71153" lon="5.55261">
        <ele>206.3</ele>
        <time>2022-09-25T11:19:39Z</time>
      </trkpt>
      <trkpt lat="45.71152" lon="5.55261">
        <ele>206.3</ele>
        <time>2022-09-25T11:19:40Z</time>
      </trkpt>
      <trkpt lat="45.71152" lon="5.5526">
        <ele>206.3</ele>
        <time>2022-09-25T11:19:41Z</time>
      </trkpt>
      <trkpt lat="45.71152" lon="5.5526">
        <ele>206.3</ele>
        <time>2022-09-25T11:19:42Z</time>
      </trkpt>
      <trkpt lat="45.71152" lon="5.55259">
        <ele>206.3</ele>
        <time>2022-09-25T11:19:43Z</time>
      </trkpt>
      <trkpt lat="45.71151" lon="5.55259">
        <ele>206.3</ele>
        <time>2022-09-25T11:19:44Z</time>
      </trkpt>
      <trkpt lat="45.71151" lon="5.55259">
        <ele>206.3</ele>
        <time>2022-09-25T11:19:45Z</time>
      </trkpt>
      <trkpt lat="45.71151" lon="5.55259">
        <ele>206.3</ele>
        <time>2022-09-25T11:19:46Z</time>
      </trkpt>
      <trkpt lat="45.71151" lon="5.55259">
        <ele>206.3</ele>
        <time>2022-09-25T11:27:25Z</time>
      </trkpt>
      <trkpt lat="45.71151" lon="5.55259">
        <ele>206.3</ele>
        <time>2022-09-25T11:27:26Z</time>
      </trkpt>
      <trkpt lat="45.7115" lon="5.55259">
        <ele>206.3</ele>
        <time>2022-09-25T11:27:27Z</time>
      </trkpt>
      <trkpt lat="45.7115" lon="5.55258">
        <ele>206.3</ele>
        <time>2022-09-25T11:27:28Z</time>
      </trkpt>
      <trkpt lat="45.7115" lon="5.55258">
        <ele>206.3</ele>
        <time>2022-09-25T11:27:29Z</time>
      </trkpt>
      <trkpt lat="45.7115" lon="5.55258">
        <ele>206.3</ele>
        <time>2022-09-25T11:27:30Z</time>
      </trkpt>
      <trkpt lat="45.7115" lon="5.55258">
        <ele>206.3</ele>
        <time>2022-09-25T11:27:31Z</time>
      </trkpt>
      <trkpt lat="45.71149" lon="5.55258">
        <ele>206.3</ele>
        <time>2022-09-25T11:27:32Z</time>
      </trkpt>
      <trkpt lat="45.71149" lon="5.55258">
        <ele>206.3</ele>
        <time>2022-09-25T11:27:33Z</time>
      </trkpt>
      <trkpt lat="45.71149" lon="5.55258">
        <ele>206.3</ele>
        <time>2022-09-25T11:27:34Z</time>
      </trkpt>
      <trkpt lat="45.71149" lon="5.55258">
        <ele>206.3</ele>
        <time>2022-09-25T12:05:31Z</time>
      </trkpt>
      <trkpt lat="45.71149" lon="5.55258">
        <ele>206.3</ele>
        <time>2022-09-25T12:05:32Z</time>
      </trkpt>
      <trkpt lat="45.71148" lon="5.55258">
        <ele>206.3</ele>
        <time>2022-09-25T12:05:33Z</time>
      </trkpt>
      <trkpt lat="45.71148" lon="5.55257">
        <ele>206.3</ele>
        <time>2022-09-25T12:05:34Z</time>
      </trkpt>
      <trkpt lat="45.71148" lon="5.55257">
        <ele>206.3</ele>
        <time>2022-09-25T12:05:35Z</time>
      </trkpt>
      <trkpt lat="45.71148" lon="5.55257">
        <ele>206.3</ele>
        <time>2022-09-25T12:05:36Z</time>
      </trkpt>
      <trkpt lat="45.71148" lon="5.55257">
        <ele>206.3</ele>
        <time>2022-09-25T12:05:37Z</time>
      </trkpt>
      <trkpt lat="45.71147" lon="5.55257">
        <ele>206.3</ele>
        <time>2022-09-25T12:05:38Z</time>
      </trkpt>
      <trkpt lat="45.71147" lon="5.55257">
        <ele>206.4</ele>
        <time>2022-09-25T12:05:39Z</time>
      </trkpt>
      <trkpt lat="45.71147" lon="5.55257">
        <ele>206.4</ele>
        <time>2022-09-25T12:05:40Z</time>
      </trkpt>
      <trkpt lat="45.71147" lon="5.55257">
        <ele>206.4</ele>
        <time>2022-09-25T12:05:41Z</time>
      </trkpt>
      <trkpt lat="45.71147" lon="5.55257">
        <ele>206.4</ele>
        <time>2022-09-25T12:06:15Z</time>
      </trkpt>
      <trkpt lat="45.71146" lon="5.55257">
        <ele>206.4</ele>
        <time>2022-09-25T12:06:16Z</time>
      </trkpt>
      <trkpt lat="45.71146" lon="5.55256">
        <ele>206.4</ele>
        <time>2022-09-25T12:06:17Z</time>
      </trkpt>
      <trkpt lat="45.71146" lon="5.55255">
        <ele>206.4</ele>
        <time>2022-09-25T12:06:18Z</time>
      </trkpt>
      <trkpt lat="45.71145" lon="5.55256">
        <ele>206.4</ele>
        <time>2022-09-25T12:06:19Z</time>
      </trkpt>
      <trkpt lat="45.71144" lon="5.55256">
        <ele>206.4</ele>
        <time>2022-09-25T12:06:20Z</time>
      </trkpt>
      <trkpt lat="45.71143" lon="5.55256">
        <ele>206.4</ele>
        <time>2022-09-25T12:06:21Z</time>
      </trkpt>
      <trkpt lat="45.71142" lon="5.55256">
        <ele>206.4</ele>
        <time>2022-09-25T12:06:22Z</time>
      </trkpt>
      <trkpt lat="45.71142" lon="5.55256">
        <ele>206.4</ele>
        <time>2022-09-25T12:06:23Z</time>
      </trkpt>
      <trkpt lat="45.71141" lon="5.55256">
        <ele>206.4</ele>
        <time>2022-09-25T12:06:24Z</time>
      </trkpt>
      <trkpt lat="45.71141" lon="5.55256">
        <ele>206.4</ele>
        <time>2022-09-25T12:06:25Z</time>
      </trkpt>
      <trkpt lat="45.71141" lon="5.55256">
        <ele>206.4</ele>
        <time>2022-09-25T12:06:26Z</time>
      </trkpt>
      <trkpt lat="45.7114" lon="5.55256">
        <ele>206.4</ele>
        <time>2022-09-25T12:06:27Z</time>
      </trkpt>
      <trkpt lat="45.7114" lon="5.55256">
        <ele>206.4</ele>
        <time>2022-09-25T12:06:28Z</time>
      </trkpt>
      <trkpt lat="45.7114" lon="5.55256">
        <ele>206.4</ele>
        <time>2022-09-25T12:06:29Z</time>
      </trkpt>
      <trkpt lat="45.71139" lon="5.55256">
        <ele>206.3</ele>
        <time>2022-09-25T12:06:30Z</time>
      </trkpt>
      <trkpt lat="45.71139" lon="5.55256">
        <ele>206.3</ele>
        <time>2022-09-25T12:06:31Z</time>
      </trkpt>
      <trkpt lat="45.71138" lon="5.55256">
        <ele>206.3</ele>
        <time>2022-09-25T12:06:32Z</time>
      </trkpt>
      <trkpt lat="45.71136" lon="5.55256">
        <ele>206.3</ele>
        <time>2022-09-25T12:06:33Z</time>
      </trkpt>
      <trkpt lat="45.71133" lon="5.55255">
        <ele>206.3</ele>
        <time>2022-09-25T12:06:34Z</time>
      </trkpt>
      <trkpt lat="45.71132" lon="5.55255">
        <ele>206.3</ele>
        <time>2022-09-25T12:06:35Z</time>
      </trkpt>
      <trkpt lat="45.71128" lon="5.55256">
        <ele>206.2</ele>
        <time>2022-09-25T12:06:36Z</time>
      </trkpt>
      <trkpt lat="45.71127" lon="5.55256">
        <ele>206.2</ele>
        <time>2022-09-25T12:06:37Z</time>
      </trkpt>
      <trkpt lat="45.71124" lon="5.55257">
        <ele>206.2</ele>
        <time>2022-09-25T12:06:38Z</time>
      </trkpt>
      <trkpt lat="45.71121" lon="5.55257">
        <ele>206.2</ele>
        <time>2022-09-25T12:06:39Z</time>
      </trkpt>
      <trkpt lat="45.71118" lon="5.55258">
        <ele>206.1</ele>
        <time>2022-09-25T12:06:40Z</time>
      </trkpt>
      <trkpt lat="45.71114" lon="5.55259">
        <ele>206.1</ele>
        <time>2022-09-25T12:06:41Z</time>
      </trkpt>
      <trkpt lat="45.7111" lon="5.5526">
        <ele>206.1</ele>
        <time>2022-09-25T12:06:42Z</time>
      </trkpt>
      <trkpt lat="45.71106" lon="5.55261">
        <ele>206</ele>
        <time>2022-09-25T12:06:43Z</time>
      </trkpt>
      <trkpt lat="45.71102" lon="5.55261">
        <ele>206</ele>
        <time>2022-09-25T12:06:44Z</time>
      </trkpt>
      <trkpt lat="45.71099" lon="5.55261">
        <ele>206</ele>
        <time>2022-09-25T12:06:45Z</time>
      </trkpt>
      <trkpt lat="45.71095" lon="5.55261">
        <ele>206</ele>
        <time>2022-09-25T12:06:46Z</time>
      </trkpt>
      <trkpt lat="45.71092" lon="5.55261">
        <ele>206</ele>
        <time>2022-09-25T12:06:47Z</time>
      </trkpt>
      <trkpt lat="45.71089" lon="5.55261">
        <ele>206</ele>
        <time>2022-09-25T12:06:48Z</time>
      </trkpt>
      <trkpt lat="45.71085" lon="5.55262">
        <ele>206</ele>
        <time>2022-09-25T12:06:49Z</time>
      </trkpt>
      <trkpt lat="45.71081" lon="5.55263">
        <ele>206</ele>
        <time>2022-09-25T12:06:50Z</time>
      </trkpt>
      <trkpt lat="45.71078" lon="5.55264">
        <ele>206</ele>
        <time>2022-09-25T12:06:51Z</time>
      </trkpt>
      <trkpt lat="45.71075" lon="5.55267">
        <ele>205.9</ele>
        <time>2022-09-25T12:06:52Z</time>
      </trkpt>
      <trkpt lat="45.71071" lon="5.55272">
        <ele>205.9</ele>
        <time>2022-09-25T12:06:53Z</time>
      </trkpt>
      <trkpt lat="45.71069" lon="5.55275">
        <ele>205.9</ele>
        <time>2022-09-25T12:06:54Z</time>
      </trkpt>
      <trkpt lat="45.71066" lon="5.55279">
        <ele>205.8</ele>
        <time>2022-09-25T12:06:55Z</time>
      </trkpt>
      <trkpt lat="45.71064" lon="5.55284">
        <ele>205.8</ele>
        <time>2022-09-25T12:06:56Z</time>
      </trkpt>
      <trkpt lat="45.71062" lon="5.55288">
        <ele>205.8</ele>
        <time>2022-09-25T12:06:57Z</time>
      </trkpt>
      <trkpt lat="45.7106" lon="5.55291">
        <ele>205.7</ele>
        <time>2022-09-25T12:06:58Z</time>
      </trkpt>
      <trkpt lat="45.71057" lon="5.55296">
        <ele>205.7</ele>
        <time>2022-09-25T12:06:59Z</time>
      </trkpt>
      <trkpt lat="45.71053" lon="5.553">
        <ele>205.7</ele>
        <time>2022-09-25T12:07:00Z</time>
      </trkpt>
      <trkpt lat="45.71051" lon="5.55302">
        <ele>205.6</ele>
        <time>2022-09-25T12:07:01Z</time>
      </trkpt>
      <trkpt lat="45.71047" lon="5.55303">
        <ele>205.6</ele>
        <time>2022-09-25T12:07:02Z</time>
      </trkpt>
      <trkpt lat="45.71042" lon="5.55304">
        <ele>205.6</ele>
        <time>2022-09-25T12:07:03Z</time>
      </trkpt>
      <trkpt lat="45.71039" lon="5.55306">
        <ele>205.5</ele>
        <time>2022-09-25T12:07:04Z</time>
      </trkpt>
      <trkpt lat="45.71036" lon="5.55309">
        <ele>205.5</ele>
        <time>2022-09-25T12:07:05Z</time>
      </trkpt>
      <trkpt lat="45.71031" lon="5.55312">
        <ele>205.5</ele>
        <time>2022-09-25T12:07:06Z</time>
      </trkpt>
      <trkpt lat="45.71027" lon="5.55315">
        <ele>205.4</ele>
        <time>2022-09-25T12:07:07Z</time>
      </trkpt>
      <trkpt lat="45.71024" lon="5.5532">
        <ele>205.4</ele>
        <time>2022-09-25T12:07:08Z</time>
      </trkpt>
      <trkpt lat="45.71021" lon="5.55325">
        <ele>205.4</ele>
        <time>2022-09-25T12:07:09Z</time>
      </trkpt>
      <trkpt lat="45.71017" lon="5.55332">
        <ele>205.3</ele>
        <time>2022-09-25T12:07:10Z</time>
      </trkpt>
      <trkpt lat="45.71014" lon="5.55337">
        <ele>205.3</ele>
        <time>2022-09-25T12:07:11Z</time>
      </trkpt>
      <trkpt lat="45.7101" lon="5.55342">
        <ele>205.3</ele>
        <time>2022-09-25T12:07:12Z</time>
      </trkpt>
      <trkpt lat="45.71006" lon="5.55348">
        <ele>205.3</ele>
        <time>2022-09-25T12:07:14Z</time>
      </trkpt>
      <trkpt lat="45.71002" lon="5.55353">
        <ele>205.3</ele>
        <time>2022-09-25T12:07:15Z</time>
      </trkpt>
      <trkpt lat="45.70999" lon="5.55357">
        <ele>205.3</ele>
        <time>2022-09-25T12:07:16Z</time>
      </trkpt>
      <trkpt lat="45.70994" lon="5.55362">
        <ele>205.3</ele>
        <time>2022-09-25T12:07:17Z</time>
      </trkpt>
      <trkpt lat="45.70991" lon="5.55365">
        <ele>205.3</ele>
        <time>2022-09-25T12:07:18Z</time>
      </trkpt>
      <trkpt lat="45.70987" lon="5.5537">
        <ele>205.3</ele>
        <time>2022-09-25T12:07:19Z</time>
      </trkpt>
      <trkpt lat="45.70983" lon="5.55374">
        <ele>205.3</ele>
        <time>2022-09-25T12:07:20Z</time>
      </trkpt>
      <trkpt lat="45.70979" lon="5.55377">
        <ele>205.3</ele>
        <time>2022-09-25T12:07:21Z</time>
      </trkpt>
      <trkpt lat="45.70975" lon="5.5538">
        <ele>205.3</ele>
        <time>2022-09-25T12:07:22Z</time>
      </trkpt>
      <trkpt lat="45.70971" lon="5.55383">
        <ele>205.3</ele>
        <time>2022-09-25T12:07:23Z</time>
      </trkpt>
      <trkpt lat="45.70969" lon="5.55385">
        <ele>205.3</ele>
        <time>2022-09-25T12:07:24Z</time>
      </trkpt>
      <trkpt lat="45.70967" lon="5.55388">
        <ele>205.3</ele>
        <time>2022-09-25T12:07:25Z</time>
      </trkpt>
      <trkpt lat="45.70963" lon="5.55389">
        <ele>205.3</ele>
        <time>2022-09-25T12:07:26Z</time>
      </trkpt>
      <trkpt lat="45.70957" lon="5.55395">
        <ele>205.3</ele>
        <time>2022-09-25T12:07:27Z</time>
      </trkpt>
      <trkpt lat="45.70955" lon="5.55398">
        <ele>205.3</ele>
        <time>2022-09-25T12:07:28Z</time>
      </trkpt>
      <trkpt lat="45.70951" lon="5.55403">
        <ele>205.3</ele>
        <time>2022-09-25T12:07:29Z</time>
      </trkpt>
      <trkpt lat="45.70947" lon="5.55408">
        <ele>205.3</ele>
        <time>2022-09-25T12:07:30Z</time>
      </trkpt>
      <trkpt lat="45.70944" lon="5.55415">
        <ele>205.3</ele>
        <time>2022-09-25T12:07:31Z</time>
      </trkpt>
      <trkpt lat="45.70941" lon="5.55422">
        <ele>205.3</ele>
        <time>2022-09-25T12:07:32Z</time>
      </trkpt>
      <trkpt lat="45.70938" lon="5.55428">
        <ele>205.3</ele>
        <time>2022-09-25T12:07:33Z</time>
      </trkpt>
      <trkpt lat="45.70935" lon="5.55434">
        <ele>205.3</ele>
        <time>2022-09-25T12:07:34Z</time>
      </trkpt>
      <trkpt lat="45.70932" lon="5.55439">
        <ele>205.3</ele>
        <time>2022-09-25T12:07:35Z</time>
      </trkpt>
      <trkpt lat="45.70928" lon="5.55444">
        <ele>205.3</ele>
        <time>2022-09-25T12:07:36Z</time>
      </trkpt>
      <trkpt lat="45.70924" lon="5.55448">
        <ele>205.3</ele>
        <time>2022-09-25T12:07:37Z</time>
      </trkpt>
      <trkpt lat="45.7092" lon="5.55452">
        <ele>205.3</ele>
        <time>2022-09-25T12:07:38Z</time>
      </trkpt>
      <trkpt lat="45.70915" lon="5.55456">
        <ele>205.3</ele>
        <time>2022-09-25T12:07:39Z</time>
      </trkpt>
      <trkpt lat="45.70911" lon="5.55459">
        <ele>205.3</ele>
        <time>2022-09-25T12:07:40Z</time>
      </trkpt>
      <trkpt lat="45.70906" lon="5.55463">
        <ele>205.3</ele>
        <time>2022-09-25T12:07:41Z</time>
      </trkpt>
      <trkpt lat="45.70901" lon="5.55467">
        <ele>205.2</ele>
        <time>2022-09-25T12:07:42Z</time>
      </trkpt>
      <trkpt lat="45.70897" lon="5.5547">
        <ele>205.2</ele>
        <time>2022-09-25T12:07:43Z</time>
      </trkpt>
      <trkpt lat="45.70892" lon="5.55473">
        <ele>205.3</ele>
        <time>2022-09-25T12:07:44Z</time>
      </trkpt>
      <trkpt lat="45.70886" lon="5.55476">
        <ele>205.3</ele>
        <time>2022-09-25T12:07:45Z</time>
      </trkpt>
      <trkpt lat="45.70882" lon="5.5548">
        <ele>205.3</ele>
        <time>2022-09-25T12:07:46Z</time>
      </trkpt>
      <trkpt lat="45.70877" lon="5.55484">
        <ele>205.3</ele>
        <time>2022-09-25T12:07:47Z</time>
      </trkpt>
      <trkpt lat="45.70873" lon="5.55488">
        <ele>205.3</ele>
        <time>2022-09-25T12:07:48Z</time>
      </trkpt>
      <trkpt lat="45.70869" lon="5.55491">
        <ele>205.3</ele>
        <time>2022-09-25T12:07:49Z</time>
      </trkpt>
      <trkpt lat="45.70864" lon="5.55496">
        <ele>205.4</ele>
        <time>2022-09-25T12:07:50Z</time>
      </trkpt>
      <trkpt lat="45.70859" lon="5.55498">
        <ele>205.4</ele>
        <time>2022-09-25T12:07:51Z</time>
      </trkpt>
      <trkpt lat="45.70855" lon="5.55503">
        <ele>205.4</ele>
        <time>2022-09-25T12:07:52Z</time>
      </trkpt>
      <trkpt lat="45.7085" lon="5.55507">
        <ele>205.4</ele>
        <time>2022-09-25T12:07:53Z</time>
      </trkpt>
      <trkpt lat="45.70846" lon="5.55511">
        <ele>205.4</ele>
        <time>2022-09-25T12:07:54Z</time>
      </trkpt>
      <trkpt lat="45.7084" lon="5.55517">
        <ele>205.4</ele>
        <time>2022-09-25T12:07:55Z</time>
      </trkpt>
      <trkpt lat="45.70836" lon="5.55521">
        <ele>205.4</ele>
        <time>2022-09-25T12:07:56Z</time>
      </trkpt>
      <trkpt lat="45.70832" lon="5.55527">
        <ele>205.4</ele>
        <time>2022-09-25T12:07:57Z</time>
      </trkpt>
      <trkpt lat="45.70827" lon="5.55531">
        <ele>205.5</ele>
        <time>2022-09-25T12:07:58Z</time>
      </trkpt>
      <trkpt lat="45.70822" lon="5.55536">
        <ele>205.5</ele>
        <time>2022-09-25T12:07:59Z</time>
      </trkpt>
      <trkpt lat="45.70817" lon="5.55539">
        <ele>205.6</ele>
        <time>2022-09-25T12:08:00Z</time>
      </trkpt>
      <trkpt lat="45.70811" lon="5.55541">
        <ele>205.6</ele>
        <time>2022-09-25T12:08:01Z</time>
      </trkpt>
      <trkpt lat="45.70807" lon="5.55544">
        <ele>205.7</ele>
        <time>2022-09-25T12:08:02Z</time>
      </trkpt>
      <trkpt lat="45.70801" lon="5.55545">
        <ele>205.8</ele>
        <time>2022-09-25T12:08:03Z</time>
      </trkpt>
      <trkpt lat="45.70796" lon="5.55545">
        <ele>205.8</ele>
        <time>2022-09-25T12:08:04Z</time>
      </trkpt>
      <trkpt lat="45.70791" lon="5.55544">
        <ele>205.9</ele>
        <time>2022-09-25T12:08:05Z</time>
      </trkpt>
      <trkpt lat="45.70781" lon="5.55541">
        <ele>205.9</ele>
        <time>2022-09-25T12:08:06Z</time>
      </trkpt>
      <trkpt lat="45.70776" lon="5.5554">
        <ele>205.9</ele>
        <time>2022-09-25T12:08:07Z</time>
      </trkpt>
      <trkpt lat="45.7077" lon="5.5554">
        <ele>205.9</ele>
        <time>2022-09-25T12:08:08Z</time>
      </trkpt>
      <trkpt lat="45.70765" lon="5.5554">
        <ele>205.9</ele>
        <time>2022-09-25T12:08:09Z</time>
      </trkpt>
      <trkpt lat="45.7076" lon="5.55541">
        <ele>205.9</ele>
        <time>2022-09-25T12:08:10Z</time>
      </trkpt>
      <trkpt lat="45.70754" lon="5.55541">
        <ele>205.9</ele>
        <time>2022-09-25T12:08:11Z</time>
      </trkpt>
      <trkpt lat="45.70749" lon="5.55542">
        <ele>205.9</ele>
        <time>2022-09-25T12:08:12Z</time>
      </trkpt>
      <trkpt lat="45.70744" lon="5.55543">
        <ele>205.9</ele>
        <time>2022-09-25T12:08:13Z</time>
      </trkpt>
      <trkpt lat="45.70738" lon="5.55544">
        <ele>205.9</ele>
        <time>2022-09-25T12:08:14Z</time>
      </trkpt>
      <trkpt lat="45.70732" lon="5.55543">
        <ele>205.9</ele>
        <time>2022-09-25T12:08:15Z</time>
      </trkpt>
      <trkpt lat="45.70728" lon="5.55546">
        <ele>206</ele>
        <time>2022-09-25T12:08:16Z</time>
      </trkpt>
      <trkpt lat="45.70722" lon="5.55545">
        <ele>206</ele>
        <time>2022-09-25T12:08:17Z</time>
      </trkpt>
      <trkpt lat="45.70717" lon="5.55546">
        <ele>206</ele>
        <time>2022-09-25T12:08:18Z</time>
      </trkpt>
      <trkpt lat="45.70712" lon="5.55547">
        <ele>206</ele>
        <time>2022-09-25T12:08:19Z</time>
      </trkpt>
      <trkpt lat="45.70707" lon="5.55547">
        <ele>206</ele>
        <time>2022-09-25T12:08:20Z</time>
      </trkpt>
      <trkpt lat="45.70702" lon="5.55548">
        <ele>206</ele>
        <time>2022-09-25T12:08:21Z</time>
      </trkpt>
      <trkpt lat="45.70697" lon="5.55549">
        <ele>206</ele>
        <time>2022-09-25T12:08:22Z</time>
      </trkpt>
      <trkpt lat="45.70692" lon="5.5555">
        <ele>206</ele>
        <time>2022-09-25T12:08:23Z</time>
      </trkpt>
      <trkpt lat="45.70687" lon="5.55551">
        <ele>206</ele>
        <time>2022-09-25T12:08:24Z</time>
      </trkpt>
      <trkpt lat="45.70683" lon="5.55551">
        <ele>206</ele>
        <time>2022-09-25T12:08:25Z</time>
      </trkpt>
      <trkpt lat="45.70679" lon="5.55552">
        <ele>206</ele>
        <time>2022-09-25T12:08:26Z</time>
      </trkpt>
      <trkpt lat="45.70672" lon="5.55553">
        <ele>206</ele>
        <time>2022-09-25T12:08:27Z</time>
      </trkpt>
      <trkpt lat="45.70666" lon="5.55553">
        <ele>206</ele>
        <time>2022-09-25T12:08:28Z</time>
      </trkpt>
      <trkpt lat="45.70661" lon="5.55553">
        <ele>206</ele>
        <time>2022-09-25T12:08:29Z</time>
      </trkpt>
      <trkpt lat="45.70655" lon="5.55553">
        <ele>206</ele>
        <time>2022-09-25T12:08:30Z</time>
      </trkpt>
      <trkpt lat="45.70651" lon="5.55553">
        <ele>206</ele>
        <time>2022-09-25T12:08:31Z</time>
      </trkpt>
      <trkpt lat="45.70645" lon="5.55556">
        <ele>206</ele>
        <time>2022-09-25T12:08:32Z</time>
      </trkpt>
      <trkpt lat="45.7064" lon="5.55557">
        <ele>206</ele>
        <time>2022-09-25T12:08:33Z</time>
      </trkpt>
      <trkpt lat="45.70634" lon="5.55558">
        <ele>206</ele>
        <time>2022-09-25T12:08:34Z</time>
      </trkpt>
      <trkpt lat="45.70629" lon="5.55559">
        <ele>206</ele>
        <time>2022-09-25T12:08:35Z</time>
      </trkpt>
      <trkpt lat="45.70623" lon="5.55559">
        <ele>206</ele>
        <time>2022-09-25T12:08:36Z</time>
      </trkpt>
      <trkpt lat="45.70618" lon="5.5556">
        <ele>206</ele>
        <time>2022-09-25T12:08:37Z</time>
      </trkpt>
      <trkpt lat="45.70614" lon="5.55561">
        <ele>206</ele>
        <time>2022-09-25T12:08:38Z</time>
      </trkpt>
      <trkpt lat="45.70607" lon="5.55563">
        <ele>206</ele>
        <time>2022-09-25T12:08:39Z</time>
      </trkpt>
      <trkpt lat="45.70601" lon="5.55566">
        <ele>206</ele>
        <time>2022-09-25T12:08:40Z</time>
      </trkpt>
      <trkpt lat="45.70596" lon="5.55567">
        <ele>206</ele>
        <time>2022-09-25T12:08:41Z</time>
      </trkpt>
      <trkpt lat="45.7059" lon="5.55571">
        <ele>206</ele>
        <time>2022-09-25T12:08:42Z</time>
      </trkpt>
      <trkpt lat="45.70585" lon="5.55573">
        <ele>206</ele>
        <time>2022-09-25T12:08:43Z</time>
      </trkpt>
      <trkpt lat="45.70579" lon="5.55576">
        <ele>206</ele>
        <time>2022-09-25T12:08:44Z</time>
      </trkpt>
      <trkpt lat="45.70573" lon="5.55579">
        <ele>206</ele>
        <time>2022-09-25T12:08:45Z</time>
      </trkpt>
      <trkpt lat="45.70567" lon="5.55581">
        <ele>206</ele>
        <time>2022-09-25T12:08:46Z</time>
      </trkpt>
      <trkpt lat="45.70562" lon="5.55585">
        <ele>206</ele>
        <time>2022-09-25T12:08:47Z</time>
      </trkpt>
      <trkpt lat="45.70557" lon="5.55587">
        <ele>206</ele>
        <time>2022-09-25T12:08:48Z</time>
      </trkpt>
      <trkpt lat="45.70551" lon="5.55588">
        <ele>206</ele>
        <time>2022-09-25T12:08:49Z</time>
      </trkpt>
      <trkpt lat="45.70545" lon="5.5559">
        <ele>206</ele>
        <time>2022-09-25T12:08:50Z</time>
      </trkpt>
      <trkpt lat="45.70539" lon="5.55592">
        <ele>206</ele>
        <time>2022-09-25T12:08:51Z</time>
      </trkpt>
      <trkpt lat="45.70534" lon="5.55591">
        <ele>206</ele>
        <time>2022-09-25T12:08:52Z</time>
      </trkpt>
      <trkpt lat="45.70528" lon="5.55592">
        <ele>206</ele>
        <time>2022-09-25T12:08:53Z</time>
      </trkpt>
      <trkpt lat="45.70522" lon="5.55593">
        <ele>206</ele>
        <time>2022-09-25T12:08:54Z</time>
      </trkpt>
      <trkpt lat="45.70516" lon="5.55594">
        <ele>206</ele>
        <time>2022-09-25T12:08:55Z</time>
      </trkpt>
      <trkpt lat="45.7051" lon="5.55593">
        <ele>206</ele>
        <time>2022-09-25T12:08:56Z</time>
      </trkpt>
      <trkpt lat="45.70504" lon="5.55591">
        <ele>206</ele>
        <time>2022-09-25T12:08:57Z</time>
      </trkpt>
      <trkpt lat="45.70499" lon="5.5559">
        <ele>206</ele>
        <time>2022-09-25T12:08:58Z</time>
      </trkpt>
      <trkpt lat="45.70494" lon="5.55588">
        <ele>206</ele>
        <time>2022-09-25T12:08:59Z</time>
      </trkpt>
      <trkpt lat="45.70488" lon="5.55585">
        <ele>206</ele>
        <time>2022-09-25T12:09:00Z</time>
      </trkpt>
      <trkpt lat="45.70483" lon="5.55583">
        <ele>206</ele>
        <time>2022-09-25T12:09:01Z</time>
      </trkpt>
      <trkpt lat="45.70477" lon="5.5558">
        <ele>206</ele>
        <time>2022-09-25T12:09:02Z</time>
      </trkpt>
      <trkpt lat="45.70472" lon="5.55577">
        <ele>206</ele>
        <time>2022-09-25T12:09:03Z</time>
      </trkpt>
      <trkpt lat="45.70467" lon="5.55575">
        <ele>206</ele>
        <time>2022-09-25T12:09:04Z</time>
      </trkpt>
      <trkpt lat="45.70462" lon="5.55573">
        <ele>206</ele>
        <time>2022-09-25T12:09:05Z</time>
      </trkpt>
      <trkpt lat="45.70457" lon="5.5557">
        <ele>206</ele>
        <time>2022-09-25T12:09:06Z</time>
      </trkpt>
      <trkpt lat="45.70451" lon="5.55568">
        <ele>206</ele>
        <time>2022-09-25T12:09:07Z</time>
      </trkpt>
      <trkpt lat="45.70445" lon="5.55567">
        <ele>206</ele>
        <time>2022-09-25T12:09:08Z</time>
      </trkpt>
      <trkpt lat="45.7044" lon="5.55565">
        <ele>206</ele>
        <time>2022-09-25T12:09:09Z</time>
      </trkpt>
      <trkpt lat="45.70435" lon="5.55564">
        <ele>206</ele>
        <time>2022-09-25T12:09:10Z</time>
      </trkpt>
      <trkpt lat="45.70429" lon="5.55562">
        <ele>206</ele>
        <time>2022-09-25T12:09:11Z</time>
      </trkpt>
      <trkpt lat="45.70424" lon="5.55561">
        <ele>206</ele>
        <time>2022-09-25T12:09:12Z</time>
      </trkpt>
      <trkpt lat="45.70418" lon="5.5556">
        <ele>205.9</ele>
        <time>2022-09-25T12:09:13Z</time>
      </trkpt>
      <trkpt lat="45.70413" lon="5.5556">
        <ele>205.9</ele>
        <time>2022-09-25T12:09:14Z</time>
      </trkpt>
      <trkpt lat="45.70407" lon="5.55558">
        <ele>205.9</ele>
        <time>2022-09-25T12:09:15Z</time>
      </trkpt>
      <trkpt lat="45.70402" lon="5.55558">
        <ele>206</ele>
        <time>2022-09-25T12:09:16Z</time>
      </trkpt>
      <trkpt lat="45.70396" lon="5.55557">
        <ele>206</ele>
        <time>2022-09-25T12:09:17Z</time>
      </trkpt>
      <trkpt lat="45.7039" lon="5.55556">
        <ele>206</ele>
        <time>2022-09-25T12:09:18Z</time>
      </trkpt>
      <trkpt lat="45.70385" lon="5.55555">
        <ele>206</ele>
        <time>2022-09-25T12:09:20Z</time>
      </trkpt>
      <trkpt lat="45.70379" lon="5.55553">
        <ele>206</ele>
        <time>2022-09-25T12:09:21Z</time>
      </trkpt>
      <trkpt lat="45.70374" lon="5.55551">
        <ele>206</ele>
        <time>2022-09-25T12:09:22Z</time>
      </trkpt>
      <trkpt lat="45.70369" lon="5.5555">
        <ele>206</ele>
        <time>2022-09-25T12:09:23Z</time>
      </trkpt>
      <trkpt lat="45.70363" lon="5.55547">
        <ele>206</ele>
        <time>2022-09-25T12:09:24Z</time>
      </trkpt>
      <trkpt lat="45.70358" lon="5.55544">
        <ele>206</ele>
        <time>2022-09-25T12:09:25Z</time>
      </trkpt>
      <trkpt lat="45.70352" lon="5.55541">
        <ele>206</ele>
        <time>2022-09-25T12:09:26Z</time>
      </trkpt>
      <trkpt lat="45.70349" lon="5.55538">
        <ele>206</ele>
        <time>2022-09-25T12:09:27Z</time>
      </trkpt>
      <trkpt lat="45.70344" lon="5.55535">
        <ele>206</ele>
        <time>2022-09-25T12:09:28Z</time>
      </trkpt>
      <trkpt lat="45.70338" lon="5.55532">
        <ele>205.9</ele>
        <time>2022-09-25T12:09:29Z</time>
      </trkpt>
      <trkpt lat="45.70333" lon="5.55528">
        <ele>205.9</ele>
        <time>2022-09-25T12:09:30Z</time>
      </trkpt>
      <trkpt lat="45.70328" lon="5.55525">
        <ele>205.9</ele>
        <time>2022-09-25T12:09:31Z</time>
      </trkpt>
      <trkpt lat="45.70323" lon="5.55521">
        <ele>206</ele>
        <time>2022-09-25T12:09:32Z</time>
      </trkpt>
      <trkpt lat="45.70318" lon="5.55519">
        <ele>206</ele>
        <time>2022-09-25T12:09:33Z</time>
      </trkpt>
      <trkpt lat="45.70313" lon="5.55517">
        <ele>206</ele>
        <time>2022-09-25T12:09:34Z</time>
      </trkpt>
      <trkpt lat="45.70308" lon="5.55513">
        <ele>206</ele>
        <time>2022-09-25T12:09:35Z</time>
      </trkpt>
      <trkpt lat="45.70303" lon="5.55511">
        <ele>206</ele>
        <time>2022-09-25T12:09:36Z</time>
      </trkpt>
      <trkpt lat="45.70298" lon="5.55507">
        <ele>206</ele>
        <time>2022-09-25T12:09:37Z</time>
      </trkpt>
      <trkpt lat="45.70294" lon="5.55504">
        <ele>206</ele>
        <time>2022-09-25T12:09:38Z</time>
      </trkpt>
      <trkpt lat="45.70288" lon="5.555">
        <ele>206</ele>
        <time>2022-09-25T12:09:39Z</time>
      </trkpt>
      <trkpt lat="45.70282" lon="5.55497">
        <ele>206</ele>
        <time>2022-09-25T12:09:40Z</time>
      </trkpt>
      <trkpt lat="45.70277" lon="5.55493">
        <ele>206</ele>
        <time>2022-09-25T12:09:41Z</time>
      </trkpt>
      <trkpt lat="45.70272" lon="5.55489">
        <ele>206</ele>
        <time>2022-09-25T12:09:42Z</time>
      </trkpt>
      <trkpt lat="45.70268" lon="5.55488">
        <ele>206.1</ele>
        <time>2022-09-25T12:09:43Z</time>
      </trkpt>
      <trkpt lat="45.70262" lon="5.55484">
        <ele>206.1</ele>
        <time>2022-09-25T12:09:44Z</time>
      </trkpt>
      <trkpt lat="45.70257" lon="5.5548">
        <ele>206.1</ele>
        <time>2022-09-25T12:09:45Z</time>
      </trkpt>
      <trkpt lat="45.70251" lon="5.55478">
        <ele>206.1</ele>
        <time>2022-09-25T12:09:46Z</time>
      </trkpt>
      <trkpt lat="45.70245" lon="5.55475">
        <ele>206.1</ele>
        <time>2022-09-25T12:09:47Z</time>
      </trkpt>
      <trkpt lat="45.7024" lon="5.55473">
        <ele>206.1</ele>
        <time>2022-09-25T12:09:48Z</time>
      </trkpt>
      <trkpt lat="45.70235" lon="5.55471">
        <ele>206.1</ele>
        <time>2022-09-25T12:09:49Z</time>
      </trkpt>
      <trkpt lat="45.7023" lon="5.55469">
        <ele>206.1</ele>
        <time>2022-09-25T12:09:50Z</time>
      </trkpt>
      <trkpt lat="45.70224" lon="5.55467">
        <ele>206.1</ele>
        <time>2022-09-25T12:09:51Z</time>
      </trkpt>
      <trkpt lat="45.70219" lon="5.55466">
        <ele>206.1</ele>
        <time>2022-09-25T12:09:52Z</time>
      </trkpt>
      <trkpt lat="45.70213" lon="5.55464">
        <ele>206.1</ele>
        <time>2022-09-25T12:09:53Z</time>
      </trkpt>
      <trkpt lat="45.70207" lon="5.55462">
        <ele>206.1</ele>
        <time>2022-09-25T12:09:54Z</time>
      </trkpt>
      <trkpt lat="45.70201" lon="5.5546">
        <ele>206.1</ele>
        <time>2022-09-25T12:09:55Z</time>
      </trkpt>
      <trkpt lat="45.70195" lon="5.55457">
        <ele>206.1</ele>
        <time>2022-09-25T12:09:56Z</time>
      </trkpt>
      <trkpt lat="45.7019" lon="5.55456">
        <ele>206.1</ele>
        <time>2022-09-25T12:09:57Z</time>
      </trkpt>
      <trkpt lat="45.70185" lon="5.55453">
        <ele>206.1</ele>
        <time>2022-09-25T12:09:58Z</time>
      </trkpt>
      <trkpt lat="45.70179" lon="5.5545">
        <ele>206.1</ele>
        <time>2022-09-25T12:09:59Z</time>
      </trkpt>
      <trkpt lat="45.70174" lon="5.55448">
        <ele>206.2</ele>
        <time>2022-09-25T12:10:00Z</time>
      </trkpt>
      <trkpt lat="45.70169" lon="5.55445">
        <ele>206.2</ele>
        <time>2022-09-25T12:10:01Z</time>
      </trkpt>
      <trkpt lat="45.70164" lon="5.55443">
        <ele>206.2</ele>
        <time>2022-09-25T12:10:02Z</time>
      </trkpt>
      <trkpt lat="45.70159" lon="5.55441">
        <ele>206.3</ele>
        <time>2022-09-25T12:10:03Z</time>
      </trkpt>
      <trkpt lat="45.70154" lon="5.55438">
        <ele>206.3</ele>
        <time>2022-09-25T12:10:04Z</time>
      </trkpt>
      <trkpt lat="45.70149" lon="5.55436">
        <ele>206.3</ele>
        <time>2022-09-25T12:10:05Z</time>
      </trkpt>
      <trkpt lat="45.70143" lon="5.55433">
        <ele>206.3</ele>
        <time>2022-09-25T12:10:06Z</time>
      </trkpt>
      <trkpt lat="45.70139" lon="5.55431">
        <ele>206.3</ele>
        <time>2022-09-25T12:10:07Z</time>
      </trkpt>
      <trkpt lat="45.70133" lon="5.55429">
        <ele>206.3</ele>
        <time>2022-09-25T12:10:08Z</time>
      </trkpt>
      <trkpt lat="45.70128" lon="5.55429">
        <ele>206.4</ele>
        <time>2022-09-25T12:10:09Z</time>
      </trkpt>
      <trkpt lat="45.70123" lon="5.55429">
        <ele>206.4</ele>
        <time>2022-09-25T12:10:10Z</time>
      </trkpt>
      <trkpt lat="45.70112" lon="5.55426">
        <ele>206.4</ele>
        <time>2022-09-25T12:10:11Z</time>
      </trkpt>
      <trkpt lat="45.70108" lon="5.55424">
        <ele>206.5</ele>
        <time>2022-09-25T12:10:12Z</time>
      </trkpt>
      <trkpt lat="45.70102" lon="5.55423">
        <ele>206.5</ele>
        <time>2022-09-25T12:10:13Z</time>
      </trkpt>
      <trkpt lat="45.70098" lon="5.55421">
        <ele>206.5</ele>
        <time>2022-09-25T12:10:14Z</time>
      </trkpt>
      <trkpt lat="45.70094" lon="5.5542">
        <ele>206.5</ele>
        <time>2022-09-25T12:10:15Z</time>
      </trkpt>
      <trkpt lat="45.7009" lon="5.55418">
        <ele>206.5</ele>
        <time>2022-09-25T12:10:16Z</time>
      </trkpt>
      <trkpt lat="45.70085" lon="5.55416">
        <ele>206.5</ele>
        <time>2022-09-25T12:10:17Z</time>
      </trkpt>
      <trkpt lat="45.7008" lon="5.55412">
        <ele>206.5</ele>
        <time>2022-09-25T12:10:18Z</time>
      </trkpt>
      <trkpt lat="45.70077" lon="5.55412">
        <ele>206.5</ele>
        <time>2022-09-25T12:10:19Z</time>
      </trkpt>
      <trkpt lat="45.70073" lon="5.5541">
        <ele>206.4</ele>
        <time>2022-09-25T12:10:20Z</time>
      </trkpt>
      <trkpt lat="45.70067" lon="5.55409">
        <ele>206.4</ele>
        <time>2022-09-25T12:10:21Z</time>
      </trkpt>
      <trkpt lat="45.70062" lon="5.55409">
        <ele>206.4</ele>
        <time>2022-09-25T12:10:22Z</time>
      </trkpt>
      <trkpt lat="45.70057" lon="5.55409">
        <ele>206.4</ele>
        <time>2022-09-25T12:10:23Z</time>
      </trkpt>
      <trkpt lat="45.70052" lon="5.55408">
        <ele>206.4</ele>
        <time>2022-09-25T12:10:24Z</time>
      </trkpt>
      <trkpt lat="45.70047" lon="5.55407">
        <ele>206.4</ele>
        <time>2022-09-25T12:10:25Z</time>
      </trkpt>
      <trkpt lat="45.70042" lon="5.55405">
        <ele>206.4</ele>
        <time>2022-09-25T12:10:26Z</time>
      </trkpt>
      <trkpt lat="45.70038" lon="5.55403">
        <ele>206.4</ele>
        <time>2022-09-25T12:10:27Z</time>
      </trkpt>
      <trkpt lat="45.70033" lon="5.55402">
        <ele>206.4</ele>
        <time>2022-09-25T12:10:28Z</time>
      </trkpt>
      <trkpt lat="45.70028" lon="5.554">
        <ele>206.4</ele>
        <time>2022-09-25T12:10:29Z</time>
      </trkpt>
      <trkpt lat="45.70024" lon="5.55399">
        <ele>206.3</ele>
        <time>2022-09-25T12:10:30Z</time>
      </trkpt>
      <trkpt lat="45.70018" lon="5.55397">
        <ele>206.3</ele>
        <time>2022-09-25T12:10:31Z</time>
      </trkpt>
      <trkpt lat="45.70014" lon="5.55395">
        <ele>206.3</ele>
        <time>2022-09-25T12:10:32Z</time>
      </trkpt>
      <trkpt lat="45.7001" lon="5.55392">
        <ele>206.3</ele>
        <time>2022-09-25T12:10:33Z</time>
      </trkpt>
      <trkpt lat="45.70004" lon="5.5539">
        <ele>206.3</ele>
        <time>2022-09-25T12:10:34Z</time>
      </trkpt>
      <trkpt lat="45.7" lon="5.5539">
        <ele>206.3</ele>
        <time>2022-09-25T12:10:35Z</time>
      </trkpt>
      <trkpt lat="45.69995" lon="5.55388">
        <ele>206.3</ele>
        <time>2022-09-25T12:10:36Z</time>
      </trkpt>
      <trkpt lat="45.6999" lon="5.55386">
        <ele>206.3</ele>
        <time>2022-09-25T12:10:37Z</time>
      </trkpt>
      <trkpt lat="45.69984" lon="5.55384">
        <ele>206.3</ele>
        <time>2022-09-25T12:10:38Z</time>
      </trkpt>
      <trkpt lat="45.6998" lon="5.55383">
        <ele>206.3</ele>
        <time>2022-09-25T12:10:39Z</time>
      </trkpt>
      <trkpt lat="45.69975" lon="5.55381">
        <ele>206.3</ele>
        <time>2022-09-25T12:10:40Z</time>
      </trkpt>
      <trkpt lat="45.69969" lon="5.5538">
        <ele>206.3</ele>
        <time>2022-09-25T12:10:41Z</time>
      </trkpt>
      <trkpt lat="45.69964" lon="5.55379">
        <ele>206.2</ele>
        <time>2022-09-25T12:10:42Z</time>
      </trkpt>
      <trkpt lat="45.69959" lon="5.55378">
        <ele>206.2</ele>
        <time>2022-09-25T12:10:43Z</time>
      </trkpt>
      <trkpt lat="45.69953" lon="5.55375">
        <ele>206.2</ele>
        <time>2022-09-25T12:10:44Z</time>
      </trkpt>
      <trkpt lat="45.69949" lon="5.55373">
        <ele>206.2</ele>
        <time>2022-09-25T12:10:45Z</time>
      </trkpt>
      <trkpt lat="45.69944" lon="5.55372">
        <ele>206.2</ele>
        <time>2022-09-25T12:10:46Z</time>
      </trkpt>
      <trkpt lat="45.69939" lon="5.5537">
        <ele>206.2</ele>
        <time>2022-09-25T12:10:47Z</time>
      </trkpt>
      <trkpt lat="45.69934" lon="5.55367">
        <ele>206.2</ele>
        <time>2022-09-25T12:10:48Z</time>
      </trkpt>
      <trkpt lat="45.69929" lon="5.55367">
        <ele>206.2</ele>
        <time>2022-09-25T12:10:49Z</time>
      </trkpt>
      <trkpt lat="45.69923" lon="5.55366">
        <ele>206.2</ele>
        <time>2022-09-25T12:10:50Z</time>
      </trkpt>
      <trkpt lat="45.69917" lon="5.55364">
        <ele>206.2</ele>
        <time>2022-09-25T12:10:51Z</time>
      </trkpt>
      <trkpt lat="45.69912" lon="5.55362">
        <ele>206.2</ele>
        <time>2022-09-25T12:10:52Z</time>
      </trkpt>
      <trkpt lat="45.69907" lon="5.55359">
        <ele>206.2</ele>
        <time>2022-09-25T12:10:53Z</time>
      </trkpt>
      <trkpt lat="45.69902" lon="5.55357">
        <ele>206.2</ele>
        <time>2022-09-25T12:10:54Z</time>
      </trkpt>
      <trkpt lat="45.69897" lon="5.55356">
        <ele>206.2</ele>
        <time>2022-09-25T12:10:55Z</time>
      </trkpt>
      <trkpt lat="45.69891" lon="5.55355">
        <ele>206.2</ele>
        <time>2022-09-25T12:10:56Z</time>
      </trkpt>
      <trkpt lat="45.69886" lon="5.55352">
        <ele>206.2</ele>
        <time>2022-09-25T12:10:57Z</time>
      </trkpt>
      <trkpt lat="45.6988" lon="5.5535">
        <ele>206.2</ele>
        <time>2022-09-25T12:10:58Z</time>
      </trkpt>
      <trkpt lat="45.69876" lon="5.55348">
        <ele>206.2</ele>
        <time>2022-09-25T12:10:59Z</time>
      </trkpt>
      <trkpt lat="45.69871" lon="5.55346">
        <ele>206.2</ele>
        <time>2022-09-25T12:11:00Z</time>
      </trkpt>
      <trkpt lat="45.69865" lon="5.55344">
        <ele>206.2</ele>
        <time>2022-09-25T12:11:01Z</time>
      </trkpt>
      <trkpt lat="45.6986" lon="5.55342">
        <ele>206.3</ele>
        <time>2022-09-25T12:11:02Z</time>
      </trkpt>
      <trkpt lat="45.69855" lon="5.55342">
        <ele>206.3</ele>
        <time>2022-09-25T12:11:03Z</time>
      </trkpt>
      <trkpt lat="45.69851" lon="5.55341">
        <ele>206.3</ele>
        <time>2022-09-25T12:11:04Z</time>
      </trkpt>
      <trkpt lat="45.69845" lon="5.55341">
        <ele>206.2</ele>
        <time>2022-09-25T12:11:05Z</time>
      </trkpt>
      <trkpt lat="45.6984" lon="5.55342">
        <ele>206.2</ele>
        <time>2022-09-25T12:11:06Z</time>
      </trkpt>
      <trkpt lat="45.69835" lon="5.55344">
        <ele>206.2</ele>
        <time>2022-09-25T12:11:07Z</time>
      </trkpt>
      <trkpt lat="45.69831" lon="5.55348">
        <ele>206.2</ele>
        <time>2022-09-25T12:11:08Z</time>
      </trkpt>
      <trkpt lat="45.69827" lon="5.55353">
        <ele>206.2</ele>
        <time>2022-09-25T12:11:09Z</time>
      </trkpt>
      <trkpt lat="45.69823" lon="5.5536">
        <ele>206.2</ele>
        <time>2022-09-25T12:11:10Z</time>
      </trkpt>
      <trkpt lat="45.69819" lon="5.55365">
        <ele>206.2</ele>
        <time>2022-09-25T12:11:11Z</time>
      </trkpt>
      <trkpt lat="45.69816" lon="5.5537">
        <ele>206.2</ele>
        <time>2022-09-25T12:11:12Z</time>
      </trkpt>
      <trkpt lat="45.69812" lon="5.55377">
        <ele>206.1</ele>
        <time>2022-09-25T12:11:13Z</time>
      </trkpt>
      <trkpt lat="45.69809" lon="5.55383">
        <ele>206.1</ele>
        <time>2022-09-25T12:11:14Z</time>
      </trkpt>
      <trkpt lat="45.69807" lon="5.5539">
        <ele>206.1</ele>
        <time>2022-09-25T12:11:15Z</time>
      </trkpt>
      <trkpt lat="45.69802" lon="5.55394">
        <ele>206.1</ele>
        <time>2022-09-25T12:11:16Z</time>
      </trkpt>
      <trkpt lat="45.698" lon="5.55401">
        <ele>206.1</ele>
        <time>2022-09-25T12:11:17Z</time>
      </trkpt>
      <trkpt lat="45.69799" lon="5.55406">
        <ele>206.1</ele>
        <time>2022-09-25T12:11:18Z</time>
      </trkpt>
      <trkpt lat="45.69795" lon="5.55413">
        <ele>206.1</ele>
        <time>2022-09-25T12:11:19Z</time>
      </trkpt>
      <trkpt lat="45.69792" lon="5.5542">
        <ele>206.1</ele>
        <time>2022-09-25T12:11:20Z</time>
      </trkpt>
      <trkpt lat="45.69789" lon="5.55426">
        <ele>206.1</ele>
        <time>2022-09-25T12:11:21Z</time>
      </trkpt>
      <trkpt lat="45.69786" lon="5.55433">
        <ele>206.1</ele>
        <time>2022-09-25T12:11:22Z</time>
      </trkpt>
      <trkpt lat="45.69783" lon="5.5544">
        <ele>206.1</ele>
        <time>2022-09-25T12:11:23Z</time>
      </trkpt>
      <trkpt lat="45.6978" lon="5.55447">
        <ele>206.1</ele>
        <time>2022-09-25T12:11:24Z</time>
      </trkpt>
      <trkpt lat="45.69776" lon="5.55454">
        <ele>206.1</ele>
        <time>2022-09-25T12:11:26Z</time>
      </trkpt>
      <trkpt lat="45.69773" lon="5.55461">
        <ele>206.1</ele>
        <time>2022-09-25T12:11:27Z</time>
      </trkpt>
      <trkpt lat="45.6977" lon="5.55467">
        <ele>206.1</ele>
        <time>2022-09-25T12:11:28Z</time>
      </trkpt>
      <trkpt lat="45.69767" lon="5.55474">
        <ele>206.1</ele>
        <time>2022-09-25T12:11:29Z</time>
      </trkpt>
      <trkpt lat="45.69764" lon="5.55481">
        <ele>206.1</ele>
        <time>2022-09-25T12:11:30Z</time>
      </trkpt>
      <trkpt lat="45.69763" lon="5.55489">
        <ele>206.1</ele>
        <time>2022-09-25T12:11:31Z</time>
      </trkpt>
      <trkpt lat="45.6976" lon="5.55496">
        <ele>206.1</ele>
        <time>2022-09-25T12:11:32Z</time>
      </trkpt>
      <trkpt lat="45.69758" lon="5.55502">
        <ele>206.1</ele>
        <time>2022-09-25T12:11:33Z</time>
      </trkpt>
      <trkpt lat="45.69755" lon="5.55511">
        <ele>206.1</ele>
        <time>2022-09-25T12:11:34Z</time>
      </trkpt>
      <trkpt lat="45.69752" lon="5.55518">
        <ele>206.1</ele>
        <time>2022-09-25T12:11:35Z</time>
      </trkpt>
      <trkpt lat="45.6975" lon="5.55526">
        <ele>206.1</ele>
        <time>2022-09-25T12:11:36Z</time>
      </trkpt>
      <trkpt lat="45.69747" lon="5.55533">
        <ele>206.1</ele>
        <time>2022-09-25T12:11:37Z</time>
      </trkpt>
      <trkpt lat="45.69745" lon="5.55541">
        <ele>206.1</ele>
        <time>2022-09-25T12:11:38Z</time>
      </trkpt>
      <trkpt lat="45.6974" lon="5.55556">
        <ele>206.1</ele>
        <time>2022-09-25T12:11:39Z</time>
      </trkpt>
      <trkpt lat="45.69738" lon="5.55564">
        <ele>206.1</ele>
        <time>2022-09-25T12:11:40Z</time>
      </trkpt>
      <trkpt lat="45.69735" lon="5.55572">
        <ele>206.1</ele>
        <time>2022-09-25T12:11:41Z</time>
      </trkpt>
      <trkpt lat="45.69732" lon="5.55579">
        <ele>206.1</ele>
        <time>2022-09-25T12:11:42Z</time>
      </trkpt>
      <trkpt lat="45.69729" lon="5.55587">
        <ele>206.1</ele>
        <time>2022-09-25T12:11:43Z</time>
      </trkpt>
      <trkpt lat="45.69728" lon="5.55594">
        <ele>206.1</ele>
        <time>2022-09-25T12:11:44Z</time>
      </trkpt>
      <trkpt lat="45.69726" lon="5.55603">
        <ele>206.1</ele>
        <time>2022-09-25T12:11:45Z</time>
      </trkpt>
      <trkpt lat="45.69724" lon="5.5561">
        <ele>206.1</ele>
        <time>2022-09-25T12:11:46Z</time>
      </trkpt>
      <trkpt lat="45.6972" lon="5.55615">
        <ele>206.1</ele>
        <time>2022-09-25T12:11:47Z</time>
      </trkpt>
      <trkpt lat="45.69715" lon="5.55621">
        <ele>206.1</ele>
        <time>2022-09-25T12:11:48Z</time>
      </trkpt>
      <trkpt lat="45.69711" lon="5.55627">
        <ele>206.1</ele>
        <time>2022-09-25T12:11:49Z</time>
      </trkpt>
      <trkpt lat="45.69706" lon="5.5563">
        <ele>206.2</ele>
        <time>2022-09-25T12:11:50Z</time>
      </trkpt>
      <trkpt lat="45.69701" lon="5.55635">
        <ele>206.2</ele>
        <time>2022-09-25T12:11:51Z</time>
      </trkpt>
      <trkpt lat="45.69696" lon="5.55639">
        <ele>206.2</ele>
        <time>2022-09-25T12:11:52Z</time>
      </trkpt>
      <trkpt lat="45.6969" lon="5.55643">
        <ele>206.2</ele>
        <time>2022-09-25T12:11:53Z</time>
      </trkpt>
      <trkpt lat="45.69684" lon="5.55646">
        <ele>206.2</ele>
        <time>2022-09-25T12:11:54Z</time>
      </trkpt>
      <trkpt lat="45.69679" lon="5.55649">
        <ele>206.2</ele>
        <time>2022-09-25T12:11:55Z</time>
      </trkpt>
      <trkpt lat="45.69673" lon="5.55651">
        <ele>206.2</ele>
        <time>2022-09-25T12:11:56Z</time>
      </trkpt>
      <trkpt lat="45.69668" lon="5.55654">
        <ele>206.2</ele>
        <time>2022-09-25T12:11:57Z</time>
      </trkpt>
      <trkpt lat="45.69662" lon="5.55658">
        <ele>206.2</ele>
        <time>2022-09-25T12:11:58Z</time>
      </trkpt>
      <trkpt lat="45.69656" lon="5.55662">
        <ele>206.2</ele>
        <time>2022-09-25T12:11:59Z</time>
      </trkpt>
      <trkpt lat="45.6965" lon="5.55665">
        <ele>206.2</ele>
        <time>2022-09-25T12:12:00Z</time>
      </trkpt>
      <trkpt lat="45.69645" lon="5.55669">
        <ele>206.2</ele>
        <time>2022-09-25T12:12:01Z</time>
      </trkpt>
      <trkpt lat="45.69639" lon="5.55672">
        <ele>206.2</ele>
        <time>2022-09-25T12:12:02Z</time>
      </trkpt>
      <trkpt lat="45.69634" lon="5.55674">
        <ele>206.2</ele>
        <time>2022-09-25T12:12:03Z</time>
      </trkpt>
      <trkpt lat="45.69629" lon="5.55675">
        <ele>206.1</ele>
        <time>2022-09-25T12:12:04Z</time>
      </trkpt>
      <trkpt lat="45.69624" lon="5.55676">
        <ele>206.1</ele>
        <time>2022-09-25T12:12:05Z</time>
      </trkpt>
      <trkpt lat="45.69618" lon="5.55676">
        <ele>206.1</ele>
        <time>2022-09-25T12:12:06Z</time>
      </trkpt>
      <trkpt lat="45.69612" lon="5.55675">
        <ele>206.1</ele>
        <time>2022-09-25T12:12:07Z</time>
      </trkpt>
      <trkpt lat="45.69606" lon="5.55673">
        <ele>206.1</ele>
        <time>2022-09-25T12:12:08Z</time>
      </trkpt>
      <trkpt lat="45.69601" lon="5.55671">
        <ele>206.1</ele>
        <time>2022-09-25T12:12:09Z</time>
      </trkpt>
      <trkpt lat="45.69595" lon="5.55668">
        <ele>206.1</ele>
        <time>2022-09-25T12:12:10Z</time>
      </trkpt>
      <trkpt lat="45.6959" lon="5.55666">
        <ele>206.1</ele>
        <time>2022-09-25T12:12:11Z</time>
      </trkpt>
      <trkpt lat="45.69585" lon="5.55662">
        <ele>206.1</ele>
        <time>2022-09-25T12:12:12Z</time>
      </trkpt>
      <trkpt lat="45.69579" lon="5.55658">
        <ele>206.1</ele>
        <time>2022-09-25T12:12:13Z</time>
      </trkpt>
      <trkpt lat="45.69575" lon="5.55655">
        <ele>206.1</ele>
        <time>2022-09-25T12:12:14Z</time>
      </trkpt>
      <trkpt lat="45.6957" lon="5.55653">
        <ele>206.1</ele>
        <time>2022-09-25T12:12:15Z</time>
      </trkpt>
      <trkpt lat="45.69564" lon="5.55651">
        <ele>206.1</ele>
        <time>2022-09-25T12:12:16Z</time>
      </trkpt>
      <trkpt lat="45.69559" lon="5.5565">
        <ele>206.1</ele>
        <time>2022-09-25T12:12:17Z</time>
      </trkpt>
      <trkpt lat="45.69555" lon="5.55647">
        <ele>206.1</ele>
        <time>2022-09-25T12:12:18Z</time>
      </trkpt>
      <trkpt lat="45.69548" lon="5.55647">
        <ele>206.1</ele>
        <time>2022-09-25T12:12:19Z</time>
      </trkpt>
      <trkpt lat="45.69543" lon="5.55648">
        <ele>206.1</ele>
        <time>2022-09-25T12:12:20Z</time>
      </trkpt>
      <trkpt lat="45.69538" lon="5.55651">
        <ele>206.1</ele>
        <time>2022-09-25T12:12:21Z</time>
      </trkpt>
      <trkpt lat="45.69532" lon="5.55653">
        <ele>206.1</ele>
        <time>2022-09-25T12:12:22Z</time>
      </trkpt>
      <trkpt lat="45.69528" lon="5.55657">
        <ele>206.1</ele>
        <time>2022-09-25T12:12:23Z</time>
      </trkpt>
      <trkpt lat="45.69523" lon="5.5566">
        <ele>206.1</ele>
        <time>2022-09-25T12:12:24Z</time>
      </trkpt>
      <trkpt lat="45.69518" lon="5.55664">
        <ele>206.1</ele>
        <time>2022-09-25T12:12:25Z</time>
      </trkpt>
      <trkpt lat="45.69513" lon="5.55668">
        <ele>206.1</ele>
        <time>2022-09-25T12:12:26Z</time>
      </trkpt>
      <trkpt lat="45.69508" lon="5.55672">
        <ele>206.1</ele>
        <time>2022-09-25T12:12:27Z</time>
      </trkpt>
      <trkpt lat="45.69503" lon="5.55676">
        <ele>206.1</ele>
        <time>2022-09-25T12:12:28Z</time>
      </trkpt>
      <trkpt lat="45.69498" lon="5.55679">
        <ele>206.1</ele>
        <time>2022-09-25T12:12:29Z</time>
      </trkpt>
      <trkpt lat="45.69492" lon="5.55683">
        <ele>206</ele>
        <time>2022-09-25T12:12:30Z</time>
      </trkpt>
      <trkpt lat="45.69488" lon="5.55687">
        <ele>206</ele>
        <time>2022-09-25T12:12:31Z</time>
      </trkpt>
      <trkpt lat="45.69483" lon="5.5569">
        <ele>206</ele>
        <time>2022-09-25T12:12:32Z</time>
      </trkpt>
      <trkpt lat="45.69478" lon="5.55692">
        <ele>206</ele>
        <time>2022-09-25T12:12:33Z</time>
      </trkpt>
      <trkpt lat="45.69474" lon="5.55697">
        <ele>206</ele>
        <time>2022-09-25T12:12:34Z</time>
      </trkpt>
      <trkpt lat="45.69469" lon="5.557">
        <ele>206</ele>
        <time>2022-09-25T12:12:35Z</time>
      </trkpt>
      <trkpt lat="45.69463" lon="5.55704">
        <ele>206</ele>
        <time>2022-09-25T12:12:36Z</time>
      </trkpt>
      <trkpt lat="45.69459" lon="5.55708">
        <ele>206</ele>
        <time>2022-09-25T12:12:37Z</time>
      </trkpt>
      <trkpt lat="45.69454" lon="5.55711">
        <ele>206</ele>
        <time>2022-09-25T12:12:38Z</time>
      </trkpt>
      <trkpt lat="45.6945" lon="5.55714">
        <ele>206</ele>
        <time>2022-09-25T12:12:39Z</time>
      </trkpt>
      <trkpt lat="45.69445" lon="5.55718">
        <ele>206.1</ele>
        <time>2022-09-25T12:12:40Z</time>
      </trkpt>
      <trkpt lat="45.6944" lon="5.55721">
        <ele>206.1</ele>
        <time>2022-09-25T12:12:41Z</time>
      </trkpt>
      <trkpt lat="45.69436" lon="5.55725">
        <ele>206.1</ele>
        <time>2022-09-25T12:12:42Z</time>
      </trkpt>
      <trkpt lat="45.69431" lon="5.55727">
        <ele>206.1</ele>
        <time>2022-09-25T12:12:43Z</time>
      </trkpt>
      <trkpt lat="45.69426" lon="5.55731">
        <ele>206.1</ele>
        <time>2022-09-25T12:12:44Z</time>
      </trkpt>
      <trkpt lat="45.69422" lon="5.55735">
        <ele>206.1</ele>
        <time>2022-09-25T12:12:45Z</time>
      </trkpt>
      <trkpt lat="45.69418" lon="5.55738">
        <ele>206.1</ele>
        <time>2022-09-25T12:12:46Z</time>
      </trkpt>
      <trkpt lat="45.69414" lon="5.55742">
        <ele>206.1</ele>
        <time>2022-09-25T12:12:47Z</time>
      </trkpt>
      <trkpt lat="45.69409" lon="5.55747">
        <ele>206.1</ele>
        <time>2022-09-25T12:12:48Z</time>
      </trkpt>
      <trkpt lat="45.69406" lon="5.55753">
        <ele>206.1</ele>
        <time>2022-09-25T12:12:49Z</time>
      </trkpt>
      <trkpt lat="45.69401" lon="5.55758">
        <ele>206.1</ele>
        <time>2022-09-25T12:12:50Z</time>
      </trkpt>
      <trkpt lat="45.69397" lon="5.55763">
        <ele>206.1</ele>
        <time>2022-09-25T12:12:51Z</time>
      </trkpt>
      <trkpt lat="45.69394" lon="5.55769">
        <ele>206.1</ele>
        <time>2022-09-25T12:12:52Z</time>
      </trkpt>
      <trkpt lat="45.6939" lon="5.55775">
        <ele>206.1</ele>
        <time>2022-09-25T12:12:53Z</time>
      </trkpt>
      <trkpt lat="45.69386" lon="5.55781">
        <ele>206.1</ele>
        <time>2022-09-25T12:12:54Z</time>
      </trkpt>
      <trkpt lat="45.69383" lon="5.55786">
        <ele>206.1</ele>
        <time>2022-09-25T12:12:55Z</time>
      </trkpt>
      <trkpt lat="45.69379" lon="5.55793">
        <ele>206.1</ele>
        <time>2022-09-25T12:12:56Z</time>
      </trkpt>
      <trkpt lat="45.69375" lon="5.558">
        <ele>206.1</ele>
        <time>2022-09-25T12:12:57Z</time>
      </trkpt>
      <trkpt lat="45.69372" lon="5.55805">
        <ele>206.1</ele>
        <time>2022-09-25T12:12:58Z</time>
      </trkpt>
      <trkpt lat="45.69368" lon="5.55811">
        <ele>206.1</ele>
        <time>2022-09-25T12:12:59Z</time>
      </trkpt>
      <trkpt lat="45.69364" lon="5.55817">
        <ele>206.1</ele>
        <time>2022-09-25T12:13:00Z</time>
      </trkpt>
      <trkpt lat="45.6936" lon="5.55822">
        <ele>206.1</ele>
        <time>2022-09-25T12:13:01Z</time>
      </trkpt>
      <trkpt lat="45.69356" lon="5.55828">
        <ele>206.1</ele>
        <time>2022-09-25T12:13:02Z</time>
      </trkpt>
      <trkpt lat="45.69352" lon="5.55832">
        <ele>206.1</ele>
        <time>2022-09-25T12:13:03Z</time>
      </trkpt>
      <trkpt lat="45.69347" lon="5.55837">
        <ele>206.1</ele>
        <time>2022-09-25T12:13:04Z</time>
      </trkpt>
      <trkpt lat="45.69342" lon="5.55841">
        <ele>206.1</ele>
        <time>2022-09-25T12:13:05Z</time>
      </trkpt>
      <trkpt lat="45.69337" lon="5.55843">
        <ele>206.1</ele>
        <time>2022-09-25T12:13:06Z</time>
      </trkpt>
      <trkpt lat="45.69332" lon="5.55847">
        <ele>206.1</ele>
        <time>2022-09-25T12:13:07Z</time>
      </trkpt>
      <trkpt lat="45.69327" lon="5.55849">
        <ele>206.1</ele>
        <time>2022-09-25T12:13:08Z</time>
      </trkpt>
      <trkpt lat="45.69321" lon="5.55852">
        <ele>206.1</ele>
        <time>2022-09-25T12:13:09Z</time>
      </trkpt>
      <trkpt lat="45.69316" lon="5.55853">
        <ele>206.1</ele>
        <time>2022-09-25T12:13:10Z</time>
      </trkpt>
      <trkpt lat="45.69311" lon="5.55855">
        <ele>206.1</ele>
        <time>2022-09-25T12:13:11Z</time>
      </trkpt>
      <trkpt lat="45.69305" lon="5.55856">
        <ele>206.1</ele>
        <time>2022-09-25T12:13:12Z</time>
      </trkpt>
      <trkpt lat="45.693" lon="5.55856">
        <ele>206.1</ele>
        <time>2022-09-25T12:13:13Z</time>
      </trkpt>
      <trkpt lat="45.69294" lon="5.55857">
        <ele>206.1</ele>
        <time>2022-09-25T12:13:14Z</time>
      </trkpt>
      <trkpt lat="45.69289" lon="5.55858">
        <ele>206.1</ele>
        <time>2022-09-25T12:13:15Z</time>
      </trkpt>
      <trkpt lat="45.69283" lon="5.55858">
        <ele>206.1</ele>
        <time>2022-09-25T12:13:16Z</time>
      </trkpt>
      <trkpt lat="45.69278" lon="5.55859">
        <ele>206.1</ele>
        <time>2022-09-25T12:13:17Z</time>
      </trkpt>
      <trkpt lat="45.69274" lon="5.55859">
        <ele>206.1</ele>
        <time>2022-09-25T12:13:18Z</time>
      </trkpt>
      <trkpt lat="45.69268" lon="5.55859">
        <ele>206.1</ele>
        <time>2022-09-25T12:13:19Z</time>
      </trkpt>
      <trkpt lat="45.69263" lon="5.55859">
        <ele>206.1</ele>
        <time>2022-09-25T12:13:20Z</time>
      </trkpt>
      <trkpt lat="45.69257" lon="5.55859">
        <ele>206.1</ele>
        <time>2022-09-25T12:13:21Z</time>
      </trkpt>
      <trkpt lat="45.69253" lon="5.55859">
        <ele>206.1</ele>
        <time>2022-09-25T12:13:22Z</time>
      </trkpt>
      <trkpt lat="45.69247" lon="5.55859">
        <ele>206.2</ele>
        <time>2022-09-25T12:13:23Z</time>
      </trkpt>
      <trkpt lat="45.69242" lon="5.5586">
        <ele>206.2</ele>
        <time>2022-09-25T12:13:24Z</time>
      </trkpt>
      <trkpt lat="45.69236" lon="5.55859">
        <ele>206.2</ele>
        <time>2022-09-25T12:13:25Z</time>
      </trkpt>
      <trkpt lat="45.69231" lon="5.5586">
        <ele>206.2</ele>
        <time>2022-09-25T12:13:26Z</time>
      </trkpt>
      <trkpt lat="45.69226" lon="5.55861">
        <ele>206.2</ele>
        <time>2022-09-25T12:13:27Z</time>
      </trkpt>
      <trkpt lat="45.69221" lon="5.55861">
        <ele>206.2</ele>
        <time>2022-09-25T12:13:28Z</time>
      </trkpt>
      <trkpt lat="45.69216" lon="5.55861">
        <ele>206.2</ele>
        <time>2022-09-25T12:13:29Z</time>
      </trkpt>
      <trkpt lat="45.6921" lon="5.55861">
        <ele>206.2</ele>
        <time>2022-09-25T12:13:30Z</time>
      </trkpt>
      <trkpt lat="45.69205" lon="5.55861">
        <ele>206.2</ele>
        <time>2022-09-25T12:13:32Z</time>
      </trkpt>
      <trkpt lat="45.69198" lon="5.55861">
        <ele>206.2</ele>
        <time>2022-09-25T12:13:33Z</time>
      </trkpt>
      <trkpt lat="45.69194" lon="5.55861">
        <ele>206.2</ele>
        <time>2022-09-25T12:13:34Z</time>
      </trkpt>
      <trkpt lat="45.69188" lon="5.5586">
        <ele>206.2</ele>
        <time>2022-09-25T12:13:35Z</time>
      </trkpt>
      <trkpt lat="45.69184" lon="5.5586">
        <ele>206.2</ele>
        <time>2022-09-25T12:13:36Z</time>
      </trkpt>
      <trkpt lat="45.69179" lon="5.5586">
        <ele>206.2</ele>
        <time>2022-09-25T12:13:37Z</time>
      </trkpt>
      <trkpt lat="45.69173" lon="5.55858">
        <ele>206.3</ele>
        <time>2022-09-25T12:13:38Z</time>
      </trkpt>
      <trkpt lat="45.69167" lon="5.55858">
        <ele>206.3</ele>
        <time>2022-09-25T12:13:39Z</time>
      </trkpt>
      <trkpt lat="45.69162" lon="5.55857">
        <ele>206.3</ele>
        <time>2022-09-25T12:13:40Z</time>
      </trkpt>
      <trkpt lat="45.69156" lon="5.55856">
        <ele>206.3</ele>
        <time>2022-09-25T12:13:41Z</time>
      </trkpt>
      <trkpt lat="45.69152" lon="5.55855">
        <ele>206.3</ele>
        <time>2022-09-25T12:13:42Z</time>
      </trkpt>
      <trkpt lat="45.69146" lon="5.55854">
        <ele>206.3</ele>
        <time>2022-09-25T12:13:43Z</time>
      </trkpt>
      <trkpt lat="45.69141" lon="5.55854">
        <ele>206.3</ele>
        <time>2022-09-25T12:13:44Z</time>
      </trkpt>
      <trkpt lat="45.69136" lon="5.55853">
        <ele>206.3</ele>
        <time>2022-09-25T12:13:45Z</time>
      </trkpt>
      <trkpt lat="45.6913" lon="5.55853">
        <ele>206.3</ele>
        <time>2022-09-25T12:13:46Z</time>
      </trkpt>
      <trkpt lat="45.69125" lon="5.55853">
        <ele>206.3</ele>
        <time>2022-09-25T12:13:47Z</time>
      </trkpt>
      <trkpt lat="45.6912" lon="5.55853">
        <ele>206.3</ele>
        <time>2022-09-25T12:13:48Z</time>
      </trkpt>
      <trkpt lat="45.69114" lon="5.55853">
        <ele>206.3</ele>
        <time>2022-09-25T12:13:49Z</time>
      </trkpt>
      <trkpt lat="45.69109" lon="5.55853">
        <ele>206.3</ele>
        <time>2022-09-25T12:13:50Z</time>
      </trkpt>
      <trkpt lat="45.69104" lon="5.55854">
        <ele>206.3</ele>
        <time>2022-09-25T12:13:51Z</time>
      </trkpt>
      <trkpt lat="45.69099" lon="5.55853">
        <ele>206.3</ele>
        <time>2022-09-25T12:13:52Z</time>
      </trkpt>
      <trkpt lat="45.69094" lon="5.55854">
        <ele>206.3</ele>
        <time>2022-09-25T12:13:53Z</time>
      </trkpt>
      <trkpt lat="45.69089" lon="5.55854">
        <ele>206.3</ele>
        <time>2022-09-25T12:13:54Z</time>
      </trkpt>
      <trkpt lat="45.69083" lon="5.55855">
        <ele>206.3</ele>
        <time>2022-09-25T12:13:55Z</time>
      </trkpt>
      <trkpt lat="45.69078" lon="5.55855">
        <ele>206.3</ele>
        <time>2022-09-25T12:13:56Z</time>
      </trkpt>
      <trkpt lat="45.69073" lon="5.55856">
        <ele>206.2</ele>
        <time>2022-09-25T12:13:57Z</time>
      </trkpt>
      <trkpt lat="45.69068" lon="5.55856">
        <ele>206.2</ele>
        <time>2022-09-25T12:13:58Z</time>
      </trkpt>
      <trkpt lat="45.69063" lon="5.55858">
        <ele>206.2</ele>
        <time>2022-09-25T12:13:59Z</time>
      </trkpt>
      <trkpt lat="45.69058" lon="5.55857">
        <ele>206.2</ele>
        <time>2022-09-25T12:14:00Z</time>
      </trkpt>
      <trkpt lat="45.69052" lon="5.55857">
        <ele>206.2</ele>
        <time>2022-09-25T12:14:01Z</time>
      </trkpt>
      <trkpt lat="45.69047" lon="5.55858">
        <ele>206.1</ele>
        <time>2022-09-25T12:14:02Z</time>
      </trkpt>
      <trkpt lat="45.69041" lon="5.55858">
        <ele>206.1</ele>
        <time>2022-09-25T12:14:03Z</time>
      </trkpt>
      <trkpt lat="45.69036" lon="5.55859">
        <ele>206.1</ele>
        <time>2022-09-25T12:14:04Z</time>
      </trkpt>
      <trkpt lat="45.69031" lon="5.5586">
        <ele>206.1</ele>
        <time>2022-09-25T12:14:05Z</time>
      </trkpt>
      <trkpt lat="45.69026" lon="5.5586">
        <ele>206.1</ele>
        <time>2022-09-25T12:14:06Z</time>
      </trkpt>
      <trkpt lat="45.69021" lon="5.55861">
        <ele>206.1</ele>
        <time>2022-09-25T12:14:07Z</time>
      </trkpt>
      <trkpt lat="45.69016" lon="5.55862">
        <ele>206.1</ele>
        <time>2022-09-25T12:14:08Z</time>
      </trkpt>
      <trkpt lat="45.6901" lon="5.55863">
        <ele>206.1</ele>
        <time>2022-09-25T12:14:09Z</time>
      </trkpt>
      <trkpt lat="45.69005" lon="5.55864">
        <ele>206.1</ele>
        <time>2022-09-25T12:14:10Z</time>
      </trkpt>
      <trkpt lat="45.69001" lon="5.55865">
        <ele>206.1</ele>
        <time>2022-09-25T12:14:11Z</time>
      </trkpt>
      <trkpt lat="45.68995" lon="5.55866">
        <ele>206.1</ele>
        <time>2022-09-25T12:14:12Z</time>
      </trkpt>
      <trkpt lat="45.6899" lon="5.55868">
        <ele>206.1</ele>
        <time>2022-09-25T12:14:13Z</time>
      </trkpt>
      <trkpt lat="45.68985" lon="5.5587">
        <ele>206.1</ele>
        <time>2022-09-25T12:14:14Z</time>
      </trkpt>
      <trkpt lat="45.6898" lon="5.55873">
        <ele>206.1</ele>
        <time>2022-09-25T12:14:15Z</time>
      </trkpt>
      <trkpt lat="45.68975" lon="5.55877">
        <ele>206.1</ele>
        <time>2022-09-25T12:14:16Z</time>
      </trkpt>
      <trkpt lat="45.6897" lon="5.55879">
        <ele>206.1</ele>
        <time>2022-09-25T12:14:17Z</time>
      </trkpt>
      <trkpt lat="45.68966" lon="5.55882">
        <ele>206.1</ele>
        <time>2022-09-25T12:14:18Z</time>
      </trkpt>
      <trkpt lat="45.68961" lon="5.55884">
        <ele>206.1</ele>
        <time>2022-09-25T12:14:19Z</time>
      </trkpt>
      <trkpt lat="45.68956" lon="5.55887">
        <ele>206.1</ele>
        <time>2022-09-25T12:14:20Z</time>
      </trkpt>
      <trkpt lat="45.68951" lon="5.5589">
        <ele>206.1</ele>
        <time>2022-09-25T12:14:21Z</time>
      </trkpt>
      <trkpt lat="45.68945" lon="5.55892">
        <ele>206.1</ele>
        <time>2022-09-25T12:14:22Z</time>
      </trkpt>
      <trkpt lat="45.68941" lon="5.55895">
        <ele>206.1</ele>
        <time>2022-09-25T12:14:23Z</time>
      </trkpt>
      <trkpt lat="45.68936" lon="5.55898">
        <ele>206.1</ele>
        <time>2022-09-25T12:14:24Z</time>
      </trkpt>
      <trkpt lat="45.68931" lon="5.559">
        <ele>206.1</ele>
        <time>2022-09-25T12:14:25Z</time>
      </trkpt>
      <trkpt lat="45.68926" lon="5.55903">
        <ele>206.1</ele>
        <time>2022-09-25T12:14:26Z</time>
      </trkpt>
      <trkpt lat="45.68921" lon="5.55905">
        <ele>206.1</ele>
        <time>2022-09-25T12:14:27Z</time>
      </trkpt>
      <trkpt lat="45.68911" lon="5.5591">
        <ele>206.1</ele>
        <time>2022-09-25T12:14:28Z</time>
      </trkpt>
      <trkpt lat="45.68907" lon="5.55912">
        <ele>206.1</ele>
        <time>2022-09-25T12:14:29Z</time>
      </trkpt>
      <trkpt lat="45.68901" lon="5.55914">
        <ele>206.1</ele>
        <time>2022-09-25T12:14:30Z</time>
      </trkpt>
      <trkpt lat="45.68896" lon="5.55916">
        <ele>206.1</ele>
        <time>2022-09-25T12:14:31Z</time>
      </trkpt>
      <trkpt lat="45.68891" lon="5.55917">
        <ele>206</ele>
        <time>2022-09-25T12:14:32Z</time>
      </trkpt>
      <trkpt lat="45.68887" lon="5.5592">
        <ele>206</ele>
        <time>2022-09-25T12:14:33Z</time>
      </trkpt>
      <trkpt lat="45.68882" lon="5.55922">
        <ele>206</ele>
        <time>2022-09-25T12:14:34Z</time>
      </trkpt>
      <trkpt lat="45.68877" lon="5.55923">
        <ele>206</ele>
        <time>2022-09-25T12:14:35Z</time>
      </trkpt>
      <trkpt lat="45.68872" lon="5.55925">
        <ele>206</ele>
        <time>2022-09-25T12:14:36Z</time>
      </trkpt>
      <trkpt lat="45.68866" lon="5.55926">
        <ele>206</ele>
        <time>2022-09-25T12:14:37Z</time>
      </trkpt>
      <trkpt lat="45.68862" lon="5.55929">
        <ele>206</ele>
        <time>2022-09-25T12:14:38Z</time>
      </trkpt>
      <trkpt lat="45.68857" lon="5.55929">
        <ele>206</ele>
        <time>2022-09-25T12:14:39Z</time>
      </trkpt>
      <trkpt lat="45.68852" lon="5.55931">
        <ele>206</ele>
        <time>2022-09-25T12:14:40Z</time>
      </trkpt>
      <trkpt lat="45.68847" lon="5.55933">
        <ele>206</ele>
        <time>2022-09-25T12:14:41Z</time>
      </trkpt>
      <trkpt lat="45.68841" lon="5.55935">
        <ele>206</ele>
        <time>2022-09-25T12:14:42Z</time>
      </trkpt>
      <trkpt lat="45.68836" lon="5.55936">
        <ele>206</ele>
        <time>2022-09-25T12:14:43Z</time>
      </trkpt>
      <trkpt lat="45.68832" lon="5.55939">
        <ele>206</ele>
        <time>2022-09-25T12:14:44Z</time>
      </trkpt>
      <trkpt lat="45.68827" lon="5.55941">
        <ele>206</ele>
        <time>2022-09-25T12:14:45Z</time>
      </trkpt>
      <trkpt lat="45.68822" lon="5.55944">
        <ele>206</ele>
        <time>2022-09-25T12:14:46Z</time>
      </trkpt>
      <trkpt lat="45.68817" lon="5.55946">
        <ele>206</ele>
        <time>2022-09-25T12:14:47Z</time>
      </trkpt>
      <trkpt lat="45.68812" lon="5.55949">
        <ele>205.9</ele>
        <time>2022-09-25T12:14:48Z</time>
      </trkpt>
      <trkpt lat="45.68807" lon="5.55954">
        <ele>205.9</ele>
        <time>2022-09-25T12:14:49Z</time>
      </trkpt>
      <trkpt lat="45.68803" lon="5.55956">
        <ele>205.9</ele>
        <time>2022-09-25T12:14:50Z</time>
      </trkpt>
      <trkpt lat="45.68799" lon="5.55961">
        <ele>205.9</ele>
        <time>2022-09-25T12:14:51Z</time>
      </trkpt>
      <trkpt lat="45.68793" lon="5.55965">
        <ele>205.9</ele>
        <time>2022-09-25T12:14:52Z</time>
      </trkpt>
      <trkpt lat="45.68789" lon="5.55968">
        <ele>205.9</ele>
        <time>2022-09-25T12:14:53Z</time>
      </trkpt>
      <trkpt lat="45.68784" lon="5.55972">
        <ele>205.9</ele>
        <time>2022-09-25T12:14:54Z</time>
      </trkpt>
      <trkpt lat="45.68779" lon="5.55976">
        <ele>205.9</ele>
        <time>2022-09-25T12:14:55Z</time>
      </trkpt>
      <trkpt lat="45.68774" lon="5.55979">
        <ele>205.9</ele>
        <time>2022-09-25T12:14:56Z</time>
      </trkpt>
      <trkpt lat="45.68768" lon="5.5598">
        <ele>205.9</ele>
        <time>2022-09-25T12:14:57Z</time>
      </trkpt>
      <trkpt lat="45.68763" lon="5.55982">
        <ele>205.8</ele>
        <time>2022-09-25T12:14:58Z</time>
      </trkpt>
      <trkpt lat="45.68758" lon="5.55982">
        <ele>205.8</ele>
        <time>2022-09-25T12:14:59Z</time>
      </trkpt>
      <trkpt lat="45.68752" lon="5.55984">
        <ele>205.8</ele>
        <time>2022-09-25T12:15:00Z</time>
      </trkpt>
      <trkpt lat="45.68746" lon="5.55985">
        <ele>205.8</ele>
        <time>2022-09-25T12:15:01Z</time>
      </trkpt>
      <trkpt lat="45.68741" lon="5.55985">
        <ele>205.8</ele>
        <time>2022-09-25T12:15:02Z</time>
      </trkpt>
      <trkpt lat="45.68735" lon="5.55986">
        <ele>205.8</ele>
        <time>2022-09-25T12:15:03Z</time>
      </trkpt>
      <trkpt lat="45.6873" lon="5.55986">
        <ele>205.8</ele>
        <time>2022-09-25T12:15:04Z</time>
      </trkpt>
      <trkpt lat="45.68724" lon="5.55988">
        <ele>205.8</ele>
        <time>2022-09-25T12:15:05Z</time>
      </trkpt>
      <trkpt lat="45.6872" lon="5.5599">
        <ele>205.9</ele>
        <time>2022-09-25T12:15:06Z</time>
      </trkpt>
      <trkpt lat="45.68716" lon="5.55992">
        <ele>205.9</ele>
        <time>2022-09-25T12:15:07Z</time>
      </trkpt>
      <trkpt lat="45.6871" lon="5.55996">
        <ele>205.9</ele>
        <time>2022-09-25T12:15:08Z</time>
      </trkpt>
      <trkpt lat="45.68706" lon="5.55999">
        <ele>205.9</ele>
        <time>2022-09-25T12:15:09Z</time>
      </trkpt>
      <trkpt lat="45.68701" lon="5.56004">
        <ele>206</ele>
        <time>2022-09-25T12:15:10Z</time>
      </trkpt>
      <trkpt lat="45.68696" lon="5.56009">
        <ele>206.1</ele>
        <time>2022-09-25T12:15:11Z</time>
      </trkpt>
      <trkpt lat="45.68692" lon="5.56014">
        <ele>206.1</ele>
        <time>2022-09-25T12:15:12Z</time>
      </trkpt>
      <trkpt lat="45.68687" lon="5.56018">
        <ele>206.2</ele>
        <time>2022-09-25T12:15:13Z</time>
      </trkpt>
      <trkpt lat="45.68684" lon="5.56021">
        <ele>206.2</ele>
        <time>2022-09-25T12:15:14Z</time>
      </trkpt>
      <trkpt lat="45.68682" lon="5.56023">
        <ele>206.2</ele>
        <time>2022-09-25T12:15:15Z</time>
      </trkpt>
      <trkpt lat="45.68682" lon="5.56028">
        <ele>206.2</ele>
        <time>2022-09-25T12:15:16Z</time>
      </trkpt>
      <trkpt lat="45.68681" lon="5.5603">
        <ele>206.2</ele>
        <time>2022-09-25T12:15:17Z</time>
      </trkpt>
      <trkpt lat="45.68679" lon="5.56035">
        <ele>206.2</ele>
        <time>2022-09-25T12:15:18Z</time>
      </trkpt>
      <trkpt lat="45.68678" lon="5.56036">
        <ele>206.2</ele>
        <time>2022-09-25T12:15:19Z</time>
      </trkpt>
      <trkpt lat="45.68675" lon="5.56041">
        <ele>206.1</ele>
        <time>2022-09-25T12:15:20Z</time>
      </trkpt>
      <trkpt lat="45.68671" lon="5.56045">
        <ele>206</ele>
        <time>2022-09-25T12:15:21Z</time>
      </trkpt>
      <trkpt lat="45.68668" lon="5.56049">
        <ele>206</ele>
        <time>2022-09-25T12:15:22Z</time>
      </trkpt>
      <trkpt lat="45.68666" lon="5.56053">
        <ele>206</ele>
        <time>2022-09-25T12:15:23Z</time>
      </trkpt>
      <trkpt lat="45.68663" lon="5.56058">
        <ele>206</ele>
        <time>2022-09-25T12:15:24Z</time>
      </trkpt>
      <trkpt lat="45.6866" lon="5.56064">
        <ele>205.9</ele>
        <time>2022-09-25T12:15:25Z</time>
      </trkpt>
      <trkpt lat="45.68657" lon="5.56069">
        <ele>205.9</ele>
        <time>2022-09-25T12:15:26Z</time>
      </trkpt>
      <trkpt lat="45.68653" lon="5.56074">
        <ele>205.9</ele>
        <time>2022-09-25T12:15:27Z</time>
      </trkpt>
      <trkpt lat="45.68649" lon="5.56078">
        <ele>205.9</ele>
        <time>2022-09-25T12:15:28Z</time>
      </trkpt>
      <trkpt lat="45.68646" lon="5.5608">
        <ele>205.9</ele>
        <time>2022-09-25T12:15:29Z</time>
      </trkpt>
      <trkpt lat="45.68641" lon="5.56085">
        <ele>206</ele>
        <time>2022-09-25T12:15:30Z</time>
      </trkpt>
      <trkpt lat="45.68638" lon="5.56089">
        <ele>205.9</ele>
        <time>2022-09-25T12:15:31Z</time>
      </trkpt>
      <trkpt lat="45.68634" lon="5.56092">
        <ele>205.9</ele>
        <time>2022-09-25T12:15:32Z</time>
      </trkpt>
      <trkpt lat="45.68629" lon="5.56096">
        <ele>205.9</ele>
        <time>2022-09-25T12:15:33Z</time>
      </trkpt>
      <trkpt lat="45.68626" lon="5.561">
        <ele>205.9</ele>
        <time>2022-09-25T12:15:34Z</time>
      </trkpt>
      <trkpt lat="45.68622" lon="5.56103">
        <ele>205.9</ele>
        <time>2022-09-25T12:15:35Z</time>
      </trkpt>
      <trkpt lat="45.68618" lon="5.56106">
        <ele>205.9</ele>
        <time>2022-09-25T12:15:36Z</time>
      </trkpt>
      <trkpt lat="45.68614" lon="5.56109">
        <ele>205.9</ele>
        <time>2022-09-25T12:15:38Z</time>
      </trkpt>
      <trkpt lat="45.68609" lon="5.56114">
        <ele>205.9</ele>
        <time>2022-09-25T12:15:39Z</time>
      </trkpt>
      <trkpt lat="45.68605" lon="5.56116">
        <ele>205.9</ele>
        <time>2022-09-25T12:15:40Z</time>
      </trkpt>
      <trkpt lat="45.68602" lon="5.56121">
        <ele>205.9</ele>
        <time>2022-09-25T12:15:41Z</time>
      </trkpt>
      <trkpt lat="45.68597" lon="5.56123">
        <ele>205.9</ele>
        <time>2022-09-25T12:15:42Z</time>
      </trkpt>
      <trkpt lat="45.68593" lon="5.56126">
        <ele>205.9</ele>
        <time>2022-09-25T12:15:43Z</time>
      </trkpt>
      <trkpt lat="45.6859" lon="5.56128">
        <ele>205.9</ele>
        <time>2022-09-25T12:15:44Z</time>
      </trkpt>
      <trkpt lat="45.68587" lon="5.56132">
        <ele>205.9</ele>
        <time>2022-09-25T12:15:45Z</time>
      </trkpt>
      <trkpt lat="45.68582" lon="5.56136">
        <ele>205.9</ele>
        <time>2022-09-25T12:15:46Z</time>
      </trkpt>
      <trkpt lat="45.68578" lon="5.5614">
        <ele>205.9</ele>
        <time>2022-09-25T12:15:47Z</time>
      </trkpt>
      <trkpt lat="45.68572" lon="5.56143">
        <ele>205.8</ele>
        <time>2022-09-25T12:15:48Z</time>
      </trkpt>
      <trkpt lat="45.68568" lon="5.56146">
        <ele>205.8</ele>
        <time>2022-09-25T12:15:49Z</time>
      </trkpt>
      <trkpt lat="45.68564" lon="5.5615">
        <ele>205.8</ele>
        <time>2022-09-25T12:15:50Z</time>
      </trkpt>
      <trkpt lat="45.68559" lon="5.56154">
        <ele>205.7</ele>
        <time>2022-09-25T12:15:51Z</time>
      </trkpt>
      <trkpt lat="45.68554" lon="5.56158">
        <ele>205.7</ele>
        <time>2022-09-25T12:15:52Z</time>
      </trkpt>
      <trkpt lat="45.68549" lon="5.56161">
        <ele>205.7</ele>
        <time>2022-09-25T12:15:53Z</time>
      </trkpt>
      <trkpt lat="45.68544" lon="5.56165">
        <ele>205.7</ele>
        <time>2022-09-25T12:15:54Z</time>
      </trkpt>
      <trkpt lat="45.6854" lon="5.56169">
        <ele>205.6</ele>
        <time>2022-09-25T12:15:55Z</time>
      </trkpt>
      <trkpt lat="45.68535" lon="5.56173">
        <ele>205.6</ele>
        <time>2022-09-25T12:15:56Z</time>
      </trkpt>
      <trkpt lat="45.6853" lon="5.56178">
        <ele>205.6</ele>
        <time>2022-09-25T12:15:57Z</time>
      </trkpt>
      <trkpt lat="45.68527" lon="5.56182">
        <ele>205.5</ele>
        <time>2022-09-25T12:15:58Z</time>
      </trkpt>
      <trkpt lat="45.68522" lon="5.56187">
        <ele>205.5</ele>
        <time>2022-09-25T12:15:59Z</time>
      </trkpt>
      <trkpt lat="45.68518" lon="5.56192">
        <ele>205.5</ele>
        <time>2022-09-25T12:16:00Z</time>
      </trkpt>
      <trkpt lat="45.68515" lon="5.56196">
        <ele>205.4</ele>
        <time>2022-09-25T12:16:01Z</time>
      </trkpt>
      <trkpt lat="45.68511" lon="5.56202">
        <ele>205.4</ele>
        <time>2022-09-25T12:16:02Z</time>
      </trkpt>
      <trkpt lat="45.68508" lon="5.56207">
        <ele>205.4</ele>
        <time>2022-09-25T12:16:03Z</time>
      </trkpt>
      <trkpt lat="45.68505" lon="5.56213">
        <ele>205.3</ele>
        <time>2022-09-25T12:16:04Z</time>
      </trkpt>
      <trkpt lat="45.68502" lon="5.56219">
        <ele>205.3</ele>
        <time>2022-09-25T12:16:05Z</time>
      </trkpt>
      <trkpt lat="45.68498" lon="5.56223">
        <ele>205.3</ele>
        <time>2022-09-25T12:16:06Z</time>
      </trkpt>
      <trkpt lat="45.68496" lon="5.56229">
        <ele>205.3</ele>
        <time>2022-09-25T12:16:07Z</time>
      </trkpt>
      <trkpt lat="45.68493" lon="5.56234">
        <ele>205.3</ele>
        <time>2022-09-25T12:16:08Z</time>
      </trkpt>
      <trkpt lat="45.6849" lon="5.5624">
        <ele>205.3</ele>
        <time>2022-09-25T12:16:09Z</time>
      </trkpt>
      <trkpt lat="45.68486" lon="5.56244">
        <ele>205.4</ele>
        <time>2022-09-25T12:16:10Z</time>
      </trkpt>
      <trkpt lat="45.68483" lon="5.56248">
        <ele>205.4</ele>
        <time>2022-09-25T12:16:11Z</time>
      </trkpt>
      <trkpt lat="45.6848" lon="5.56253">
        <ele>205.4</ele>
        <time>2022-09-25T12:16:12Z</time>
      </trkpt>
      <trkpt lat="45.68476" lon="5.56258">
        <ele>205.4</ele>
        <time>2022-09-25T12:16:13Z</time>
      </trkpt>
      <trkpt lat="45.68472" lon="5.56262">
        <ele>205.5</ele>
        <time>2022-09-25T12:16:14Z</time>
      </trkpt>
      <trkpt lat="45.68469" lon="5.56267">
        <ele>205.5</ele>
        <time>2022-09-25T12:16:15Z</time>
      </trkpt>
      <trkpt lat="45.68466" lon="5.56272">
        <ele>205.5</ele>
        <time>2022-09-25T12:16:16Z</time>
      </trkpt>
      <trkpt lat="45.68461" lon="5.56276">
        <ele>205.5</ele>
        <time>2022-09-25T12:16:17Z</time>
      </trkpt>
      <trkpt lat="45.68458" lon="5.56279">
        <ele>205.5</ele>
        <time>2022-09-25T12:16:18Z</time>
      </trkpt>
      <trkpt lat="45.68454" lon="5.56282">
        <ele>205.5</ele>
        <time>2022-09-25T12:16:19Z</time>
      </trkpt>
      <trkpt lat="45.6845" lon="5.56287">
        <ele>205.6</ele>
        <time>2022-09-25T12:16:20Z</time>
      </trkpt>
      <trkpt lat="45.68447" lon="5.56289">
        <ele>205.6</ele>
        <time>2022-09-25T12:16:21Z</time>
      </trkpt>
      <trkpt lat="45.68444" lon="5.56292">
        <ele>205.6</ele>
        <time>2022-09-25T12:16:22Z</time>
      </trkpt>
      <trkpt lat="45.6844" lon="5.56296">
        <ele>205.6</ele>
        <time>2022-09-25T12:16:23Z</time>
      </trkpt>
      <trkpt lat="45.68436" lon="5.563">
        <ele>205.6</ele>
        <time>2022-09-25T12:16:24Z</time>
      </trkpt>
      <trkpt lat="45.68433" lon="5.56304">
        <ele>205.6</ele>
        <time>2022-09-25T12:16:25Z</time>
      </trkpt>
      <trkpt lat="45.6843" lon="5.56309">
        <ele>205.6</ele>
        <time>2022-09-25T12:16:26Z</time>
      </trkpt>
      <trkpt lat="45.68427" lon="5.56314">
        <ele>205.6</ele>
        <time>2022-09-25T12:16:27Z</time>
      </trkpt>
      <trkpt lat="45.68426" lon="5.56319">
        <ele>205.6</ele>
        <time>2022-09-25T12:16:28Z</time>
      </trkpt>
      <trkpt lat="45.68425" lon="5.56325">
        <ele>205.6</ele>
        <time>2022-09-25T12:16:29Z</time>
      </trkpt>
      <trkpt lat="45.68423" lon="5.56332">
        <ele>205.6</ele>
        <time>2022-09-25T12:16:30Z</time>
      </trkpt>
      <trkpt lat="45.68421" lon="5.56337">
        <ele>205.6</ele>
        <time>2022-09-25T12:16:31Z</time>
      </trkpt>
      <trkpt lat="45.68419" lon="5.56344">
        <ele>205.6</ele>
        <time>2022-09-25T12:16:32Z</time>
      </trkpt>
      <trkpt lat="45.68417" lon="5.5635">
        <ele>205.6</ele>
        <time>2022-09-25T12:16:33Z</time>
      </trkpt>
      <trkpt lat="45.68414" lon="5.56363">
        <ele>205.7</ele>
        <time>2022-09-25T12:16:34Z</time>
      </trkpt>
      <trkpt lat="45.68411" lon="5.5637">
        <ele>205.8</ele>
        <time>2022-09-25T12:16:35Z</time>
      </trkpt>
      <trkpt lat="45.6841" lon="5.56376">
        <ele>205.9</ele>
        <time>2022-09-25T12:16:36Z</time>
      </trkpt>
      <trkpt lat="45.68409" lon="5.56383">
        <ele>205.9</ele>
        <time>2022-09-25T12:16:37Z</time>
      </trkpt>
      <trkpt lat="45.68407" lon="5.56389">
        <ele>206</ele>
        <time>2022-09-25T12:16:38Z</time>
      </trkpt>
      <trkpt lat="45.68406" lon="5.56396">
        <ele>206.1</ele>
        <time>2022-09-25T12:16:39Z</time>
      </trkpt>
      <trkpt lat="45.68405" lon="5.56402">
        <ele>206.1</ele>
        <time>2022-09-25T12:16:40Z</time>
      </trkpt>
      <trkpt lat="45.68404" lon="5.56407">
        <ele>206.2</ele>
        <time>2022-09-25T12:16:41Z</time>
      </trkpt>
      <trkpt lat="45.68401" lon="5.56411">
        <ele>206.2</ele>
        <time>2022-09-25T12:16:42Z</time>
      </trkpt>
      <trkpt lat="45.684" lon="5.56418">
        <ele>206.3</ele>
        <time>2022-09-25T12:16:43Z</time>
      </trkpt>
      <trkpt lat="45.68399" lon="5.56424">
        <ele>206.3</ele>
        <time>2022-09-25T12:16:44Z</time>
      </trkpt>
      <trkpt lat="45.68398" lon="5.56431">
        <ele>206.4</ele>
        <time>2022-09-25T12:16:45Z</time>
      </trkpt>
      <trkpt lat="45.68397" lon="5.56437">
        <ele>206.4</ele>
        <time>2022-09-25T12:16:46Z</time>
      </trkpt>
      <trkpt lat="45.68396" lon="5.56444">
        <ele>206.5</ele>
        <time>2022-09-25T12:16:47Z</time>
      </trkpt>
      <trkpt lat="45.68395" lon="5.5645">
        <ele>206.5</ele>
        <time>2022-09-25T12:16:48Z</time>
      </trkpt>
      <trkpt lat="45.68395" lon="5.56457">
        <ele>206.5</ele>
        <time>2022-09-25T12:16:49Z</time>
      </trkpt>
      <trkpt lat="45.68396" lon="5.56461">
        <ele>206.5</ele>
        <time>2022-09-25T12:16:50Z</time>
      </trkpt>
      <trkpt lat="45.68393" lon="5.56469">
        <ele>206.6</ele>
        <time>2022-09-25T12:16:51Z</time>
      </trkpt>
      <trkpt lat="45.68392" lon="5.56474">
        <ele>206.6</ele>
        <time>2022-09-25T12:16:52Z</time>
      </trkpt>
      <trkpt lat="45.68391" lon="5.5648">
        <ele>206.6</ele>
        <time>2022-09-25T12:16:53Z</time>
      </trkpt>
      <trkpt lat="45.68388" lon="5.56485">
        <ele>206.6</ele>
        <time>2022-09-25T12:16:54Z</time>
      </trkpt>
      <trkpt lat="45.68386" lon="5.56493">
        <ele>206.7</ele>
        <time>2022-09-25T12:16:55Z</time>
      </trkpt>
      <trkpt lat="45.68385" lon="5.56497">
        <ele>206.7</ele>
        <time>2022-09-25T12:16:56Z</time>
      </trkpt>
      <trkpt lat="45.68382" lon="5.56505">
        <ele>206.7</ele>
        <time>2022-09-25T12:16:57Z</time>
      </trkpt>
      <trkpt lat="45.68379" lon="5.56511">
        <ele>206.7</ele>
        <time>2022-09-25T12:16:58Z</time>
      </trkpt>
      <trkpt lat="45.68378" lon="5.56518">
        <ele>206.8</ele>
        <time>2022-09-25T12:16:59Z</time>
      </trkpt>
      <trkpt lat="45.68376" lon="5.56523">
        <ele>206.8</ele>
        <time>2022-09-25T12:17:00Z</time>
      </trkpt>
      <trkpt lat="45.68373" lon="5.56529">
        <ele>206.9</ele>
        <time>2022-09-25T12:17:01Z</time>
      </trkpt>
      <trkpt lat="45.68373" lon="5.56537">
        <ele>206.9</ele>
        <time>2022-09-25T12:17:02Z</time>
      </trkpt>
      <trkpt lat="45.6837" lon="5.56542">
        <ele>207</ele>
        <time>2022-09-25T12:17:03Z</time>
      </trkpt>
      <trkpt lat="45.68369" lon="5.56549">
        <ele>207.1</ele>
        <time>2022-09-25T12:17:04Z</time>
      </trkpt>
      <trkpt lat="45.68367" lon="5.56555">
        <ele>207.1</ele>
        <time>2022-09-25T12:17:05Z</time>
      </trkpt>
      <trkpt lat="45.68365" lon="5.56561">
        <ele>207.2</ele>
        <time>2022-09-25T12:17:06Z</time>
      </trkpt>
      <trkpt lat="45.68363" lon="5.56568">
        <ele>207.2</ele>
        <time>2022-09-25T12:17:07Z</time>
      </trkpt>
      <trkpt lat="45.68361" lon="5.56574">
        <ele>207.2</ele>
        <time>2022-09-25T12:17:08Z</time>
      </trkpt>
      <trkpt lat="45.6836" lon="5.56581">
        <ele>207.3</ele>
        <time>2022-09-25T12:17:09Z</time>
      </trkpt>
      <trkpt lat="45.68359" lon="5.56587">
        <ele>207.3</ele>
        <time>2022-09-25T12:17:10Z</time>
      </trkpt>
      <trkpt lat="45.68358" lon="5.56594">
        <ele>207.3</ele>
        <time>2022-09-25T12:17:11Z</time>
      </trkpt>
      <trkpt lat="45.68356" lon="5.56598">
        <ele>207.3</ele>
        <time>2022-09-25T12:17:12Z</time>
      </trkpt>
      <trkpt lat="45.68353" lon="5.56602">
        <ele>207.3</ele>
        <time>2022-09-25T12:17:13Z</time>
      </trkpt>
      <trkpt lat="45.68351" lon="5.56609">
        <ele>207.3</ele>
        <time>2022-09-25T12:17:14Z</time>
      </trkpt>
      <trkpt lat="45.68351" lon="5.56618">
        <ele>207.4</ele>
        <time>2022-09-25T12:17:15Z</time>
      </trkpt>
      <trkpt lat="45.68351" lon="5.56626">
        <ele>207.4</ele>
        <time>2022-09-25T12:17:16Z</time>
      </trkpt>
      <trkpt lat="45.68352" lon="5.56634">
        <ele>207.4</ele>
        <time>2022-09-25T12:17:17Z</time>
      </trkpt>
      <trkpt lat="45.68352" lon="5.56642">
        <ele>207.5</ele>
        <time>2022-09-25T12:17:18Z</time>
      </trkpt>
      <trkpt lat="45.68352" lon="5.56649">
        <ele>207.5</ele>
        <time>2022-09-25T12:17:19Z</time>
      </trkpt>
      <trkpt lat="45.68351" lon="5.56657">
        <ele>207.5</ele>
        <time>2022-09-25T12:17:20Z</time>
      </trkpt>
      <trkpt lat="45.68351" lon="5.56664">
        <ele>207.6</ele>
        <time>2022-09-25T12:17:21Z</time>
      </trkpt>
      <trkpt lat="45.68351" lon="5.5667">
        <ele>207.6</ele>
        <time>2022-09-25T12:17:22Z</time>
      </trkpt>
      <trkpt lat="45.68351" lon="5.56675">
        <ele>207.6</ele>
        <time>2022-09-25T12:17:23Z</time>
      </trkpt>
      <trkpt lat="45.6835" lon="5.56682">
        <ele>207.7</ele>
        <time>2022-09-25T12:17:24Z</time>
      </trkpt>
      <trkpt lat="45.68351" lon="5.56688">
        <ele>207.7</ele>
        <time>2022-09-25T12:17:25Z</time>
      </trkpt>
      <trkpt lat="45.68351" lon="5.56694">
        <ele>207.8</ele>
        <time>2022-09-25T12:17:26Z</time>
      </trkpt>
      <trkpt lat="45.6835" lon="5.56701">
        <ele>207.8</ele>
        <time>2022-09-25T12:17:27Z</time>
      </trkpt>
      <trkpt lat="45.68348" lon="5.56708">
        <ele>207.9</ele>
        <time>2022-09-25T12:17:28Z</time>
      </trkpt>
      <trkpt lat="45.68346" lon="5.56712">
        <ele>207.9</ele>
        <time>2022-09-25T12:17:29Z</time>
      </trkpt>
      <trkpt lat="45.68343" lon="5.56717">
        <ele>208</ele>
        <time>2022-09-25T12:17:30Z</time>
      </trkpt>
      <trkpt lat="45.68339" lon="5.56722">
        <ele>207.9</ele>
        <time>2022-09-25T12:17:31Z</time>
      </trkpt>
      <trkpt lat="45.68335" lon="5.56725">
        <ele>207.9</ele>
        <time>2022-09-25T12:17:32Z</time>
      </trkpt>
      <trkpt lat="45.68331" lon="5.56729">
        <ele>207.9</ele>
        <time>2022-09-25T12:17:33Z</time>
      </trkpt>
      <trkpt lat="45.68328" lon="5.56732">
        <ele>207.9</ele>
        <time>2022-09-25T12:17:34Z</time>
      </trkpt>
      <trkpt lat="45.68324" lon="5.56735">
        <ele>207.9</ele>
        <time>2022-09-25T12:17:35Z</time>
      </trkpt>
      <trkpt lat="45.68321" lon="5.56739">
        <ele>207.9</ele>
        <time>2022-09-25T12:17:36Z</time>
      </trkpt>
      <trkpt lat="45.68315" lon="5.56742">
        <ele>207.9</ele>
        <time>2022-09-25T12:17:37Z</time>
      </trkpt>
      <trkpt lat="45.68312" lon="5.56744">
        <ele>207.9</ele>
        <time>2022-09-25T12:17:38Z</time>
      </trkpt>
      <trkpt lat="45.68308" lon="5.56747">
        <ele>207.9</ele>
        <time>2022-09-25T12:17:39Z</time>
      </trkpt>
      <trkpt lat="45.68303" lon="5.5675">
        <ele>207.9</ele>
        <time>2022-09-25T12:17:40Z</time>
      </trkpt>
      <trkpt lat="45.68299" lon="5.56752">
        <ele>207.9</ele>
        <time>2022-09-25T12:17:41Z</time>
      </trkpt>
      <trkpt lat="45.68295" lon="5.56756">
        <ele>208</ele>
        <time>2022-09-25T12:17:42Z</time>
      </trkpt>
      <trkpt lat="45.68291" lon="5.56759">
        <ele>208</ele>
        <time>2022-09-25T12:17:44Z</time>
      </trkpt>
      <trkpt lat="45.68287" lon="5.56761">
        <ele>208</ele>
        <time>2022-09-25T12:17:45Z</time>
      </trkpt>
      <trkpt lat="45.68282" lon="5.56764">
        <ele>208.1</ele>
        <time>2022-09-25T12:17:46Z</time>
      </trkpt>
      <trkpt lat="45.68279" lon="5.56766">
        <ele>208.1</ele>
        <time>2022-09-25T12:17:47Z</time>
      </trkpt>
      <trkpt lat="45.68275" lon="5.56769">
        <ele>208.1</ele>
        <time>2022-09-25T12:17:48Z</time>
      </trkpt>
      <trkpt lat="45.68271" lon="5.56771">
        <ele>208.2</ele>
        <time>2022-09-25T12:17:49Z</time>
      </trkpt>
      <trkpt lat="45.68267" lon="5.56773">
        <ele>208.2</ele>
        <time>2022-09-25T12:17:50Z</time>
      </trkpt>
      <trkpt lat="45.68262" lon="5.56776">
        <ele>208.2</ele>
        <time>2022-09-25T12:17:51Z</time>
      </trkpt>
      <trkpt lat="45.68258" lon="5.56779">
        <ele>208.2</ele>
        <time>2022-09-25T12:17:52Z</time>
      </trkpt>
      <trkpt lat="45.68254" lon="5.56781">
        <ele>208.3</ele>
        <time>2022-09-25T12:17:53Z</time>
      </trkpt>
      <trkpt lat="45.6825" lon="5.56784">
        <ele>208.3</ele>
        <time>2022-09-25T12:17:54Z</time>
      </trkpt>
      <trkpt lat="45.68245" lon="5.56787">
        <ele>208.3</ele>
        <time>2022-09-25T12:17:55Z</time>
      </trkpt>
      <trkpt lat="45.68241" lon="5.56791">
        <ele>208.3</ele>
        <time>2022-09-25T12:17:56Z</time>
      </trkpt>
      <trkpt lat="45.68237" lon="5.56792">
        <ele>208.3</ele>
        <time>2022-09-25T12:17:57Z</time>
      </trkpt>
      <trkpt lat="45.68232" lon="5.56796">
        <ele>208.3</ele>
        <time>2022-09-25T12:17:58Z</time>
      </trkpt>
      <trkpt lat="45.68228" lon="5.56798">
        <ele>208.3</ele>
        <time>2022-09-25T12:17:59Z</time>
      </trkpt>
      <trkpt lat="45.68224" lon="5.56802">
        <ele>208.3</ele>
        <time>2022-09-25T12:18:00Z</time>
      </trkpt>
      <trkpt lat="45.6822" lon="5.56804">
        <ele>208.3</ele>
        <time>2022-09-25T12:18:01Z</time>
      </trkpt>
      <trkpt lat="45.68215" lon="5.56808">
        <ele>208.3</ele>
        <time>2022-09-25T12:18:02Z</time>
      </trkpt>
      <trkpt lat="45.68211" lon="5.56811">
        <ele>208.3</ele>
        <time>2022-09-25T12:18:03Z</time>
      </trkpt>
      <trkpt lat="45.68206" lon="5.56814">
        <ele>208.3</ele>
        <time>2022-09-25T12:18:04Z</time>
      </trkpt>
      <trkpt lat="45.68202" lon="5.56818">
        <ele>208.4</ele>
        <time>2022-09-25T12:18:05Z</time>
      </trkpt>
      <trkpt lat="45.68198" lon="5.56821">
        <ele>208.4</ele>
        <time>2022-09-25T12:18:06Z</time>
      </trkpt>
      <trkpt lat="45.68195" lon="5.56825">
        <ele>208.4</ele>
        <time>2022-09-25T12:18:07Z</time>
      </trkpt>
      <trkpt lat="45.6819" lon="5.56828">
        <ele>208.4</ele>
        <time>2022-09-25T12:18:08Z</time>
      </trkpt>
      <trkpt lat="45.68187" lon="5.56832">
        <ele>208.4</ele>
        <time>2022-09-25T12:18:09Z</time>
      </trkpt>
      <trkpt lat="45.68184" lon="5.56836">
        <ele>208.5</ele>
        <time>2022-09-25T12:18:10Z</time>
      </trkpt>
      <trkpt lat="45.6818" lon="5.56839">
        <ele>208.5</ele>
        <time>2022-09-25T12:18:11Z</time>
      </trkpt>
      <trkpt lat="45.68177" lon="5.56844">
        <ele>208.5</ele>
        <time>2022-09-25T12:18:12Z</time>
      </trkpt>
      <trkpt lat="45.68173" lon="5.5685">
        <ele>208.5</ele>
        <time>2022-09-25T12:18:13Z</time>
      </trkpt>
      <trkpt lat="45.68169" lon="5.56855">
        <ele>208.5</ele>
        <time>2022-09-25T12:18:14Z</time>
      </trkpt>
      <trkpt lat="45.68166" lon="5.5686">
        <ele>208.5</ele>
        <time>2022-09-25T12:18:15Z</time>
      </trkpt>
      <trkpt lat="45.68163" lon="5.56865">
        <ele>208.5</ele>
        <time>2022-09-25T12:18:16Z</time>
      </trkpt>
      <trkpt lat="45.6816" lon="5.5687">
        <ele>208.5</ele>
        <time>2022-09-25T12:18:17Z</time>
      </trkpt>
      <trkpt lat="45.68157" lon="5.56875">
        <ele>208.6</ele>
        <time>2022-09-25T12:18:18Z</time>
      </trkpt>
      <trkpt lat="45.68153" lon="5.56881">
        <ele>208.6</ele>
        <time>2022-09-25T12:18:19Z</time>
      </trkpt>
      <trkpt lat="45.6815" lon="5.56887">
        <ele>208.6</ele>
        <time>2022-09-25T12:18:20Z</time>
      </trkpt>
      <trkpt lat="45.68146" lon="5.56892">
        <ele>208.6</ele>
        <time>2022-09-25T12:18:21Z</time>
      </trkpt>
      <trkpt lat="45.68143" lon="5.56898">
        <ele>208.6</ele>
        <time>2022-09-25T12:18:22Z</time>
      </trkpt>
      <trkpt lat="45.68139" lon="5.56903">
        <ele>208.6</ele>
        <time>2022-09-25T12:18:23Z</time>
      </trkpt>
      <trkpt lat="45.68137" lon="5.56908">
        <ele>208.6</ele>
        <time>2022-09-25T12:18:24Z</time>
      </trkpt>
      <trkpt lat="45.68134" lon="5.56912">
        <ele>208.6</ele>
        <time>2022-09-25T12:18:25Z</time>
      </trkpt>
      <trkpt lat="45.6813" lon="5.56917">
        <ele>208.6</ele>
        <time>2022-09-25T12:18:26Z</time>
      </trkpt>
      <trkpt lat="45.68126" lon="5.56922">
        <ele>208.6</ele>
        <time>2022-09-25T12:18:27Z</time>
      </trkpt>
      <trkpt lat="45.68121" lon="5.56926">
        <ele>208.6</ele>
        <time>2022-09-25T12:18:28Z</time>
      </trkpt>
      <trkpt lat="45.68117" lon="5.5693">
        <ele>208.6</ele>
        <time>2022-09-25T12:18:29Z</time>
      </trkpt>
      <trkpt lat="45.68112" lon="5.56933">
        <ele>208.7</ele>
        <time>2022-09-25T12:18:30Z</time>
      </trkpt>
      <trkpt lat="45.68107" lon="5.56937">
        <ele>208.7</ele>
        <time>2022-09-25T12:18:31Z</time>
      </trkpt>
      <trkpt lat="45.68103" lon="5.5694">
        <ele>208.7</ele>
        <time>2022-09-25T12:18:32Z</time>
      </trkpt>
      <trkpt lat="45.68098" lon="5.56942">
        <ele>208.7</ele>
        <time>2022-09-25T12:18:33Z</time>
      </trkpt>
      <trkpt lat="45.68094" lon="5.56945">
        <ele>208.7</ele>
        <time>2022-09-25T12:18:34Z</time>
      </trkpt>
      <trkpt lat="45.68091" lon="5.56946">
        <ele>208.7</ele>
        <time>2022-09-25T12:18:35Z</time>
      </trkpt>
      <trkpt lat="45.68085" lon="5.56949">
        <ele>208.7</ele>
        <time>2022-09-25T12:18:36Z</time>
      </trkpt>
      <trkpt lat="45.6808" lon="5.56951">
        <ele>208.8</ele>
        <time>2022-09-25T12:18:37Z</time>
      </trkpt>
      <trkpt lat="45.68074" lon="5.56953">
        <ele>208.8</ele>
        <time>2022-09-25T12:18:38Z</time>
      </trkpt>
      <trkpt lat="45.68068" lon="5.56956">
        <ele>208.8</ele>
        <time>2022-09-25T12:18:39Z</time>
      </trkpt>
      <trkpt lat="45.68058" lon="5.56961">
        <ele>208.9</ele>
        <time>2022-09-25T12:18:40Z</time>
      </trkpt>
      <trkpt lat="45.68052" lon="5.56966">
        <ele>208.9</ele>
        <time>2022-09-25T12:18:41Z</time>
      </trkpt>
      <trkpt lat="45.68047" lon="5.56969">
        <ele>208.9</ele>
        <time>2022-09-25T12:18:42Z</time>
      </trkpt>
      <trkpt lat="45.68042" lon="5.56972">
        <ele>208.9</ele>
        <time>2022-09-25T12:18:43Z</time>
      </trkpt>
      <trkpt lat="45.68037" lon="5.56975">
        <ele>209</ele>
        <time>2022-09-25T12:18:44Z</time>
      </trkpt>
      <trkpt lat="45.68031" lon="5.56978">
        <ele>209</ele>
        <time>2022-09-25T12:18:45Z</time>
      </trkpt>
      <trkpt lat="45.68025" lon="5.56981">
        <ele>209</ele>
        <time>2022-09-25T12:18:46Z</time>
      </trkpt>
      <trkpt lat="45.68019" lon="5.56981">
        <ele>209</ele>
        <time>2022-09-25T12:18:47Z</time>
      </trkpt>
      <trkpt lat="45.68014" lon="5.56984">
        <ele>209</ele>
        <time>2022-09-25T12:18:48Z</time>
      </trkpt>
      <trkpt lat="45.68012" lon="5.56987">
        <ele>209</ele>
        <time>2022-09-25T12:18:49Z</time>
      </trkpt>
      <trkpt lat="45.68006" lon="5.56988">
        <ele>209</ele>
        <time>2022-09-25T12:18:50Z</time>
      </trkpt>
      <trkpt lat="45.68001" lon="5.5699">
        <ele>209</ele>
        <time>2022-09-25T12:18:51Z</time>
      </trkpt>
      <trkpt lat="45.67996" lon="5.56993">
        <ele>209</ele>
        <time>2022-09-25T12:18:52Z</time>
      </trkpt>
      <trkpt lat="45.6799" lon="5.56995">
        <ele>209</ele>
        <time>2022-09-25T12:18:53Z</time>
      </trkpt>
      <trkpt lat="45.67984" lon="5.56997">
        <ele>209</ele>
        <time>2022-09-25T12:18:54Z</time>
      </trkpt>
      <trkpt lat="45.6798" lon="5.56999">
        <ele>209</ele>
        <time>2022-09-25T12:18:55Z</time>
      </trkpt>
      <trkpt lat="45.67975" lon="5.57001">
        <ele>209</ele>
        <time>2022-09-25T12:18:56Z</time>
      </trkpt>
      <trkpt lat="45.67969" lon="5.57003">
        <ele>208.9</ele>
        <time>2022-09-25T12:18:57Z</time>
      </trkpt>
      <trkpt lat="45.67963" lon="5.57006">
        <ele>208.9</ele>
        <time>2022-09-25T12:18:58Z</time>
      </trkpt>
      <trkpt lat="45.67958" lon="5.57005">
        <ele>208.9</ele>
        <time>2022-09-25T12:18:59Z</time>
      </trkpt>
      <trkpt lat="45.67953" lon="5.57007">
        <ele>208.9</ele>
        <time>2022-09-25T12:19:00Z</time>
      </trkpt>
      <trkpt lat="45.67947" lon="5.57008">
        <ele>208.9</ele>
        <time>2022-09-25T12:19:01Z</time>
      </trkpt>
      <trkpt lat="45.67942" lon="5.5701">
        <ele>208.9</ele>
        <time>2022-09-25T12:19:02Z</time>
      </trkpt>
      <trkpt lat="45.67936" lon="5.57011">
        <ele>208.9</ele>
        <time>2022-09-25T12:19:03Z</time>
      </trkpt>
      <trkpt lat="45.67931" lon="5.57015">
        <ele>208.9</ele>
        <time>2022-09-25T12:19:04Z</time>
      </trkpt>
      <trkpt lat="45.67926" lon="5.57016">
        <ele>208.9</ele>
        <time>2022-09-25T12:19:05Z</time>
      </trkpt>
      <trkpt lat="45.6792" lon="5.57017">
        <ele>208.9</ele>
        <time>2022-09-25T12:19:06Z</time>
      </trkpt>
      <trkpt lat="45.67915" lon="5.57019">
        <ele>208.9</ele>
        <time>2022-09-25T12:19:07Z</time>
      </trkpt>
      <trkpt lat="45.67909" lon="5.5702">
        <ele>208.9</ele>
        <time>2022-09-25T12:19:08Z</time>
      </trkpt>
      <trkpt lat="45.67904" lon="5.57022">
        <ele>208.9</ele>
        <time>2022-09-25T12:19:09Z</time>
      </trkpt>
      <trkpt lat="45.67898" lon="5.5702">
        <ele>208.9</ele>
        <time>2022-09-25T12:19:10Z</time>
      </trkpt>
      <trkpt lat="45.67894" lon="5.5702">
        <ele>208.9</ele>
        <time>2022-09-25T12:19:11Z</time>
      </trkpt>
      <trkpt lat="45.67887" lon="5.5702">
        <ele>208.9</ele>
        <time>2022-09-25T12:19:12Z</time>
      </trkpt>
      <trkpt lat="45.67882" lon="5.5702">
        <ele>208.9</ele>
        <time>2022-09-25T12:19:13Z</time>
      </trkpt>
      <trkpt lat="45.67876" lon="5.57019">
        <ele>208.9</ele>
        <time>2022-09-25T12:19:14Z</time>
      </trkpt>
      <trkpt lat="45.67871" lon="5.57018">
        <ele>209</ele>
        <time>2022-09-25T12:19:15Z</time>
      </trkpt>
      <trkpt lat="45.67867" lon="5.57017">
        <ele>209</ele>
        <time>2022-09-25T12:19:16Z</time>
      </trkpt>
      <trkpt lat="45.67862" lon="5.57016">
        <ele>209</ele>
        <time>2022-09-25T12:19:17Z</time>
      </trkpt>
      <trkpt lat="45.67856" lon="5.57015">
        <ele>209.1</ele>
        <time>2022-09-25T12:19:18Z</time>
      </trkpt>
      <trkpt lat="45.67851" lon="5.57013">
        <ele>209.1</ele>
        <time>2022-09-25T12:19:19Z</time>
      </trkpt>
      <trkpt lat="45.67848" lon="5.5701">
        <ele>209.1</ele>
        <time>2022-09-25T12:19:20Z</time>
      </trkpt>
      <trkpt lat="45.67842" lon="5.57008">
        <ele>209.1</ele>
        <time>2022-09-25T12:19:21Z</time>
      </trkpt>
      <trkpt lat="45.67837" lon="5.57007">
        <ele>209.2</ele>
        <time>2022-09-25T12:19:22Z</time>
      </trkpt>
      <trkpt lat="45.67832" lon="5.57006">
        <ele>209.2</ele>
        <time>2022-09-25T12:19:23Z</time>
      </trkpt>
      <trkpt lat="45.67828" lon="5.57003">
        <ele>209.2</ele>
        <time>2022-09-25T12:19:24Z</time>
      </trkpt>
      <trkpt lat="45.67824" lon="5.57">
        <ele>209.2</ele>
        <time>2022-09-25T12:19:25Z</time>
      </trkpt>
      <trkpt lat="45.6782" lon="5.56999">
        <ele>209.2</ele>
        <time>2022-09-25T12:19:26Z</time>
      </trkpt>
      <trkpt lat="45.67815" lon="5.56997">
        <ele>209.2</ele>
        <time>2022-09-25T12:19:27Z</time>
      </trkpt>
      <trkpt lat="45.67811" lon="5.56995">
        <ele>209.2</ele>
        <time>2022-09-25T12:19:28Z</time>
      </trkpt>
      <trkpt lat="45.67806" lon="5.56993">
        <ele>209.2</ele>
        <time>2022-09-25T12:19:29Z</time>
      </trkpt>
      <trkpt lat="45.67801" lon="5.56992">
        <ele>209.2</ele>
        <time>2022-09-25T12:19:30Z</time>
      </trkpt>
      <trkpt lat="45.67795" lon="5.5699">
        <ele>209.2</ele>
        <time>2022-09-25T12:19:31Z</time>
      </trkpt>
      <trkpt lat="45.6779" lon="5.56987">
        <ele>209.2</ele>
        <time>2022-09-25T12:19:32Z</time>
      </trkpt>
      <trkpt lat="45.67784" lon="5.56983">
        <ele>209.2</ele>
        <time>2022-09-25T12:19:33Z</time>
      </trkpt>
      <trkpt lat="45.67778" lon="5.56979">
        <ele>209.2</ele>
        <time>2022-09-25T12:19:34Z</time>
      </trkpt>
      <trkpt lat="45.67773" lon="5.56976">
        <ele>209.2</ele>
        <time>2022-09-25T12:19:35Z</time>
      </trkpt>
      <trkpt lat="45.67767" lon="5.56972">
        <ele>209.2</ele>
        <time>2022-09-25T12:19:36Z</time>
      </trkpt>
      <trkpt lat="45.67761" lon="5.56971">
        <ele>209.2</ele>
        <time>2022-09-25T12:19:37Z</time>
      </trkpt>
      <trkpt lat="45.67755" lon="5.56968">
        <ele>209.2</ele>
        <time>2022-09-25T12:19:38Z</time>
      </trkpt>
      <trkpt lat="45.6775" lon="5.56964">
        <ele>209.2</ele>
        <time>2022-09-25T12:19:39Z</time>
      </trkpt>
      <trkpt lat="45.67744" lon="5.56962">
        <ele>209.2</ele>
        <time>2022-09-25T12:19:40Z</time>
      </trkpt>
      <trkpt lat="45.67739" lon="5.5696">
        <ele>209.2</ele>
        <time>2022-09-25T12:19:41Z</time>
      </trkpt>
      <trkpt lat="45.67732" lon="5.56957">
        <ele>209.2</ele>
        <time>2022-09-25T12:19:42Z</time>
      </trkpt>
      <trkpt lat="45.67727" lon="5.56955">
        <ele>209.2</ele>
        <time>2022-09-25T12:19:43Z</time>
      </trkpt>
      <trkpt lat="45.67722" lon="5.56953">
        <ele>209.2</ele>
        <time>2022-09-25T12:19:44Z</time>
      </trkpt>
      <trkpt lat="45.67717" lon="5.56951">
        <ele>209.1</ele>
        <time>2022-09-25T12:19:45Z</time>
      </trkpt>
      <trkpt lat="45.6771" lon="5.5695">
        <ele>209.1</ele>
        <time>2022-09-25T12:19:46Z</time>
      </trkpt>
      <trkpt lat="45.67706" lon="5.5695">
        <ele>209</ele>
        <time>2022-09-25T12:19:47Z</time>
      </trkpt>
      <trkpt lat="45.67699" lon="5.56948">
        <ele>209</ele>
        <time>2022-09-25T12:19:48Z</time>
      </trkpt>
      <trkpt lat="45.67691" lon="5.56947">
        <ele>208.8</ele>
        <time>2022-09-25T12:19:50Z</time>
      </trkpt>
      <trkpt lat="45.67685" lon="5.56949">
        <ele>208.8</ele>
        <time>2022-09-25T12:19:51Z</time>
      </trkpt>
      <trkpt lat="45.67679" lon="5.56952">
        <ele>208.6</ele>
        <time>2022-09-25T12:19:52Z</time>
      </trkpt>
      <trkpt lat="45.67673" lon="5.56955">
        <ele>208.6</ele>
        <time>2022-09-25T12:19:53Z</time>
      </trkpt>
      <trkpt lat="45.67669" lon="5.56959">
        <ele>208.5</ele>
        <time>2022-09-25T12:19:54Z</time>
      </trkpt>
      <trkpt lat="45.67663" lon="5.56962">
        <ele>208.5</ele>
        <time>2022-09-25T12:19:55Z</time>
      </trkpt>
      <trkpt lat="45.67657" lon="5.56966">
        <ele>208.5</ele>
        <time>2022-09-25T12:19:56Z</time>
      </trkpt>
      <trkpt lat="45.67652" lon="5.5697">
        <ele>208.5</ele>
        <time>2022-09-25T12:19:57Z</time>
      </trkpt>
      <trkpt lat="45.67647" lon="5.56975">
        <ele>208.5</ele>
        <time>2022-09-25T12:19:58Z</time>
      </trkpt>
      <trkpt lat="45.67642" lon="5.56979">
        <ele>208.5</ele>
        <time>2022-09-25T12:19:59Z</time>
      </trkpt>
      <trkpt lat="45.67637" lon="5.56983">
        <ele>208.6</ele>
        <time>2022-09-25T12:20:00Z</time>
      </trkpt>
      <trkpt lat="45.67632" lon="5.56988">
        <ele>208.6</ele>
        <time>2022-09-25T12:20:01Z</time>
      </trkpt>
      <trkpt lat="45.67629" lon="5.56992">
        <ele>208.7</ele>
        <time>2022-09-25T12:20:02Z</time>
      </trkpt>
      <trkpt lat="45.67624" lon="5.56996">
        <ele>208.8</ele>
        <time>2022-09-25T12:20:03Z</time>
      </trkpt>
      <trkpt lat="45.6762" lon="5.57001">
        <ele>208.9</ele>
        <time>2022-09-25T12:20:04Z</time>
      </trkpt>
      <trkpt lat="45.67617" lon="5.57007">
        <ele>209</ele>
        <time>2022-09-25T12:20:05Z</time>
      </trkpt>
      <trkpt lat="45.67613" lon="5.57012">
        <ele>209.1</ele>
        <time>2022-09-25T12:20:06Z</time>
      </trkpt>
      <trkpt lat="45.67608" lon="5.57018">
        <ele>209.2</ele>
        <time>2022-09-25T12:20:07Z</time>
      </trkpt>
      <trkpt lat="45.67601" lon="5.57031">
        <ele>209.5</ele>
        <time>2022-09-25T12:20:08Z</time>
      </trkpt>
      <trkpt lat="45.67596" lon="5.57036">
        <ele>209.7</ele>
        <time>2022-09-25T12:20:09Z</time>
      </trkpt>
      <trkpt lat="45.67593" lon="5.57041">
        <ele>209.9</ele>
        <time>2022-09-25T12:20:10Z</time>
      </trkpt>
      <trkpt lat="45.67589" lon="5.57046">
        <ele>210.2</ele>
        <time>2022-09-25T12:20:11Z</time>
      </trkpt>
      <trkpt lat="45.67585" lon="5.57051">
        <ele>210.4</ele>
        <time>2022-09-25T12:20:12Z</time>
      </trkpt>
      <trkpt lat="45.67581" lon="5.57055">
        <ele>210.7</ele>
        <time>2022-09-25T12:20:13Z</time>
      </trkpt>
      <trkpt lat="45.67578" lon="5.5706">
        <ele>210.9</ele>
        <time>2022-09-25T12:20:14Z</time>
      </trkpt>
      <trkpt lat="45.67574" lon="5.57063">
        <ele>211.2</ele>
        <time>2022-09-25T12:20:15Z</time>
      </trkpt>
      <trkpt lat="45.67571" lon="5.57066">
        <ele>211.4</ele>
        <time>2022-09-25T12:20:16Z</time>
      </trkpt>
      <trkpt lat="45.67568" lon="5.5707">
        <ele>211.6</ele>
        <time>2022-09-25T12:20:17Z</time>
      </trkpt>
      <trkpt lat="45.67565" lon="5.57073">
        <ele>211.8</ele>
        <time>2022-09-25T12:20:18Z</time>
      </trkpt>
      <trkpt lat="45.67563" lon="5.57076">
        <ele>212</ele>
        <time>2022-09-25T12:20:19Z</time>
      </trkpt>
      <trkpt lat="45.67559" lon="5.57079">
        <ele>212.3</ele>
        <time>2022-09-25T12:20:20Z</time>
      </trkpt>
      <trkpt lat="45.67556" lon="5.57083">
        <ele>212.5</ele>
        <time>2022-09-25T12:20:21Z</time>
      </trkpt>
      <trkpt lat="45.67554" lon="5.57086">
        <ele>212.7</ele>
        <time>2022-09-25T12:20:22Z</time>
      </trkpt>
      <trkpt lat="45.67551" lon="5.5709">
        <ele>213</ele>
        <time>2022-09-25T12:20:23Z</time>
      </trkpt>
      <trkpt lat="45.67549" lon="5.57093">
        <ele>213.2</ele>
        <time>2022-09-25T12:20:24Z</time>
      </trkpt>
      <trkpt lat="45.67545" lon="5.57097">
        <ele>213.5</ele>
        <time>2022-09-25T12:20:25Z</time>
      </trkpt>
      <trkpt lat="45.67543" lon="5.57101">
        <ele>213.8</ele>
        <time>2022-09-25T12:20:26Z</time>
      </trkpt>
      <trkpt lat="45.67542" lon="5.57102">
        <ele>213.8</ele>
        <time>2022-09-25T12:20:27Z</time>
      </trkpt>
      <trkpt lat="45.6754" lon="5.57105">
        <ele>214.1</ele>
        <time>2022-09-25T12:20:28Z</time>
      </trkpt>
      <trkpt lat="45.67538" lon="5.57108">
        <ele>214.3</ele>
        <time>2022-09-25T12:20:29Z</time>
      </trkpt>
      <trkpt lat="45.67536" lon="5.5711">
        <ele>214.5</ele>
        <time>2022-09-25T12:20:30Z</time>
      </trkpt>
      <trkpt lat="45.67535" lon="5.57113">
        <ele>214.7</ele>
        <time>2022-09-25T12:20:31Z</time>
      </trkpt>
      <trkpt lat="45.67533" lon="5.57115">
        <ele>214.8</ele>
        <time>2022-09-25T12:20:32Z</time>
      </trkpt>
      <trkpt lat="45.67532" lon="5.57117">
        <ele>215</ele>
        <time>2022-09-25T12:20:33Z</time>
      </trkpt>
      <trkpt lat="45.67527" lon="5.57118">
        <ele>215.4</ele>
        <time>2022-09-25T12:20:34Z</time>
      </trkpt>
      <trkpt lat="45.67525" lon="5.57122">
        <ele>215.7</ele>
        <time>2022-09-25T12:20:35Z</time>
      </trkpt>
      <trkpt lat="45.67524" lon="5.57123">
        <ele>215.8</ele>
        <time>2022-09-25T12:20:36Z</time>
      </trkpt>
      <trkpt lat="45.67521" lon="5.57127">
        <ele>216.1</ele>
        <time>2022-09-25T12:20:37Z</time>
      </trkpt>
      <trkpt lat="45.67519" lon="5.57128">
        <ele>216.2</ele>
        <time>2022-09-25T12:20:38Z</time>
      </trkpt>
      <trkpt lat="45.67516" lon="5.57131">
        <ele>216.6</ele>
        <time>2022-09-25T12:20:39Z</time>
      </trkpt>
      <trkpt lat="45.67513" lon="5.57135">
        <ele>216.9</ele>
        <time>2022-09-25T12:20:40Z</time>
      </trkpt>
      <trkpt lat="45.67512" lon="5.57136">
        <ele>217</ele>
        <time>2022-09-25T12:20:41Z</time>
      </trkpt>
      <trkpt lat="45.67509" lon="5.57138">
        <ele>217.3</ele>
        <time>2022-09-25T12:20:42Z</time>
      </trkpt>
      <trkpt lat="45.67507" lon="5.57142">
        <ele>217.6</ele>
        <time>2022-09-25T12:20:43Z</time>
      </trkpt>
      <trkpt lat="45.67505" lon="5.57143">
        <ele>217.7</ele>
        <time>2022-09-25T12:20:44Z</time>
      </trkpt>
      <trkpt lat="45.67502" lon="5.57146">
        <ele>218</ele>
        <time>2022-09-25T12:20:45Z</time>
      </trkpt>
      <trkpt lat="45.67501" lon="5.57147">
        <ele>218.1</ele>
        <time>2022-09-25T12:20:46Z</time>
      </trkpt>
      <trkpt lat="45.67498" lon="5.5715">
        <ele>218.4</ele>
        <time>2022-09-25T12:20:47Z</time>
      </trkpt>
      <trkpt lat="45.67498" lon="5.57151">
        <ele>218.5</ele>
        <time>2022-09-25T12:20:48Z</time>
      </trkpt>
      <trkpt lat="45.67495" lon="5.57154">
        <ele>218.8</ele>
        <time>2022-09-25T12:20:49Z</time>
      </trkpt>
      <trkpt lat="45.67494" lon="5.57155">
        <ele>218.9</ele>
        <time>2022-09-25T12:20:50Z</time>
      </trkpt>
      <trkpt lat="45.67491" lon="5.57157">
        <ele>219.1</ele>
        <time>2022-09-25T12:20:51Z</time>
      </trkpt>
      <trkpt lat="45.6749" lon="5.57158">
        <ele>219.2</ele>
        <time>2022-09-25T12:20:52Z</time>
      </trkpt>
      <trkpt lat="45.67487" lon="5.57161">
        <ele>219.5</ele>
        <time>2022-09-25T12:20:53Z</time>
      </trkpt>
      <trkpt lat="45.67486" lon="5.57162">
        <ele>219.6</ele>
        <time>2022-09-25T12:20:54Z</time>
      </trkpt>
      <trkpt lat="45.67483" lon="5.57164">
        <ele>219.8</ele>
        <time>2022-09-25T12:20:55Z</time>
      </trkpt>
      <trkpt lat="45.67482" lon="5.57165">
        <ele>219.9</ele>
        <time>2022-09-25T12:20:56Z</time>
      </trkpt>
      <trkpt lat="45.6748" lon="5.57168">
        <ele>220.2</ele>
        <time>2022-09-25T12:20:57Z</time>
      </trkpt>
      <trkpt lat="45.67479" lon="5.57169">
        <ele>220.2</ele>
        <time>2022-09-25T12:20:58Z</time>
      </trkpt>
      <trkpt lat="45.67476" lon="5.57171">
        <ele>220.5</ele>
        <time>2022-09-25T12:20:59Z</time>
      </trkpt>
      <trkpt lat="45.67475" lon="5.57172">
        <ele>220.6</ele>
        <time>2022-09-25T12:21:00Z</time>
      </trkpt>
      <trkpt lat="45.67472" lon="5.57174">
        <ele>220.7</ele>
        <time>2022-09-25T12:21:01Z</time>
      </trkpt>
      <trkpt lat="45.67471" lon="5.57175">
        <ele>220.8</ele>
        <time>2022-09-25T12:21:02Z</time>
      </trkpt>
      <trkpt lat="45.67469" lon="5.57177">
        <ele>221</ele>
        <time>2022-09-25T12:21:03Z</time>
      </trkpt>
      <trkpt lat="45.67468" lon="5.57177">
        <ele>221.1</ele>
        <time>2022-09-25T12:21:04Z</time>
      </trkpt>
      <trkpt lat="45.67465" lon="5.5718">
        <ele>221.3</ele>
        <time>2022-09-25T12:21:05Z</time>
      </trkpt>
      <trkpt lat="45.67464" lon="5.57181">
        <ele>221.4</ele>
        <time>2022-09-25T12:21:06Z</time>
      </trkpt>
      <trkpt lat="45.67462" lon="5.57183">
        <ele>221.5</ele>
        <time>2022-09-25T12:21:07Z</time>
      </trkpt>
      <trkpt lat="45.67461" lon="5.57184">
        <ele>221.6</ele>
        <time>2022-09-25T12:21:08Z</time>
      </trkpt>
      <trkpt lat="45.6746" lon="5.57185">
        <ele>221.6</ele>
        <time>2022-09-25T12:21:09Z</time>
      </trkpt>
      <trkpt lat="45.67458" lon="5.57187">
        <ele>221.8</ele>
        <time>2022-09-25T12:21:10Z</time>
      </trkpt>
      <trkpt lat="45.67455" lon="5.57189">
        <ele>222</ele>
        <time>2022-09-25T12:21:11Z</time>
      </trkpt>
      <trkpt lat="45.67455" lon="5.57191">
        <ele>222.1</ele>
        <time>2022-09-25T12:21:12Z</time>
      </trkpt>
      <trkpt lat="45.67454" lon="5.57192">
        <ele>222.1</ele>
        <time>2022-09-25T12:21:13Z</time>
      </trkpt>
      <trkpt lat="45.67453" lon="5.57193">
        <ele>222.2</ele>
        <time>2022-09-25T12:21:14Z</time>
      </trkpt>
      <trkpt lat="45.67451" lon="5.57195">
        <ele>222.3</ele>
        <time>2022-09-25T12:21:15Z</time>
      </trkpt>
      <trkpt lat="45.6745" lon="5.57195">
        <ele>222.3</ele>
        <time>2022-09-25T12:21:16Z</time>
      </trkpt>
      <trkpt lat="45.67448" lon="5.57198">
        <ele>222.5</ele>
        <time>2022-09-25T12:21:17Z</time>
      </trkpt>
      <trkpt lat="45.67445" lon="5.57202">
        <ele>222.6</ele>
        <time>2022-09-25T12:21:18Z</time>
      </trkpt>
      <trkpt lat="45.67444" lon="5.57203">
        <ele>222.7</ele>
        <time>2022-09-25T12:21:19Z</time>
      </trkpt>
      <trkpt lat="45.67443" lon="5.57205">
        <ele>222.7</ele>
        <time>2022-09-25T12:21:20Z</time>
      </trkpt>
      <trkpt lat="45.67443" lon="5.57207">
        <ele>222.8</ele>
        <time>2022-09-25T12:21:21Z</time>
      </trkpt>
      <trkpt lat="45.6744" lon="5.57211">
        <ele>222.9</ele>
        <time>2022-09-25T12:21:22Z</time>
      </trkpt>
      <trkpt lat="45.67438" lon="5.57215">
        <ele>223.1</ele>
        <time>2022-09-25T12:21:23Z</time>
      </trkpt>
      <trkpt lat="45.67437" lon="5.57216">
        <ele>223.1</ele>
        <time>2022-09-25T12:21:24Z</time>
      </trkpt>
      <trkpt lat="45.67434" lon="5.5722">
        <ele>223.2</ele>
        <time>2022-09-25T12:21:25Z</time>
      </trkpt>
      <trkpt lat="45.67433" lon="5.57221">
        <ele>223.3</ele>
        <time>2022-09-25T12:21:26Z</time>
      </trkpt>
      <trkpt lat="45.67432" lon="5.57224">
        <ele>223.3</ele>
        <time>2022-09-25T12:21:27Z</time>
      </trkpt>
      <trkpt lat="45.67429" lon="5.57228">
        <ele>223.4</ele>
        <time>2022-09-25T12:21:28Z</time>
      </trkpt>
      <trkpt lat="45.67429" lon="5.57229">
        <ele>223.5</ele>
        <time>2022-09-25T12:21:29Z</time>
      </trkpt>
      <trkpt lat="45.67426" lon="5.57232">
        <ele>223.6</ele>
        <time>2022-09-25T12:21:30Z</time>
      </trkpt>
      <trkpt lat="45.67424" lon="5.57233">
        <ele>223.6</ele>
        <time>2022-09-25T12:21:31Z</time>
      </trkpt>
      <trkpt lat="45.67423" lon="5.57237">
        <ele>223.7</ele>
        <time>2022-09-25T12:21:32Z</time>
      </trkpt>
      <trkpt lat="45.67421" lon="5.5724">
        <ele>223.8</ele>
        <time>2022-09-25T12:21:33Z</time>
      </trkpt>
      <trkpt lat="45.67419" lon="5.57243">
        <ele>223.8</ele>
        <time>2022-09-25T12:21:34Z</time>
      </trkpt>
      <trkpt lat="45.67419" lon="5.57244">
        <ele>223.9</ele>
        <time>2022-09-25T12:21:35Z</time>
      </trkpt>
      <trkpt lat="45.67417" lon="5.57248">
        <ele>223.9</ele>
        <time>2022-09-25T12:21:36Z</time>
      </trkpt>
      <trkpt lat="45.67417" lon="5.57252">
        <ele>224</ele>
        <time>2022-09-25T12:21:37Z</time>
      </trkpt>
      <trkpt lat="45.67416" lon="5.57253">
        <ele>224</ele>
        <time>2022-09-25T12:21:38Z</time>
      </trkpt>
      <trkpt lat="45.67414" lon="5.57257">
        <ele>224.1</ele>
        <time>2022-09-25T12:21:39Z</time>
      </trkpt>
      <trkpt lat="45.67412" lon="5.57259">
        <ele>224.2</ele>
        <time>2022-09-25T12:21:40Z</time>
      </trkpt>
      <trkpt lat="45.6741" lon="5.57262">
        <ele>224.3</ele>
        <time>2022-09-25T12:21:41Z</time>
      </trkpt>
      <trkpt lat="45.6741" lon="5.57264">
        <ele>224.3</ele>
        <time>2022-09-25T12:21:42Z</time>
      </trkpt>
      <trkpt lat="45.67406" lon="5.57267">
        <ele>224.4</ele>
        <time>2022-09-25T12:21:43Z</time>
      </trkpt>
      <trkpt lat="45.67405" lon="5.57268">
        <ele>224.4</ele>
        <time>2022-09-25T12:21:44Z</time>
      </trkpt>
      <trkpt lat="45.67402" lon="5.57272">
        <ele>224.5</ele>
        <time>2022-09-25T12:21:45Z</time>
      </trkpt>
      <trkpt lat="45.67401" lon="5.57275">
        <ele>224.6</ele>
        <time>2022-09-25T12:21:46Z</time>
      </trkpt>
      <trkpt lat="45.67398" lon="5.5728">
        <ele>224.7</ele>
        <time>2022-09-25T12:21:47Z</time>
      </trkpt>
      <trkpt lat="45.67397" lon="5.57284">
        <ele>224.8</ele>
        <time>2022-09-25T12:21:48Z</time>
      </trkpt>
      <trkpt lat="45.67394" lon="5.57288">
        <ele>224.8</ele>
        <time>2022-09-25T12:21:49Z</time>
      </trkpt>
      <trkpt lat="45.67393" lon="5.57291">
        <ele>224.9</ele>
        <time>2022-09-25T12:21:50Z</time>
      </trkpt>
      <trkpt lat="45.67391" lon="5.57294">
        <ele>224.9</ele>
        <time>2022-09-25T12:21:51Z</time>
      </trkpt>
      <trkpt lat="45.6739" lon="5.57298">
        <ele>224.9</ele>
        <time>2022-09-25T12:21:52Z</time>
      </trkpt>
      <trkpt lat="45.67388" lon="5.57304">
        <ele>225</ele>
        <time>2022-09-25T12:21:53Z</time>
      </trkpt>
      <trkpt lat="45.67387" lon="5.57306">
        <ele>225</ele>
        <time>2022-09-25T12:21:54Z</time>
      </trkpt>
      <trkpt lat="45.67386" lon="5.57311">
        <ele>225.1</ele>
        <time>2022-09-25T12:21:56Z</time>
      </trkpt>
      <trkpt lat="45.67385" lon="5.57313">
        <ele>225.1</ele>
        <time>2022-09-25T12:21:57Z</time>
      </trkpt>
      <trkpt lat="45.67384" lon="5.57318">
        <ele>225.1</ele>
        <time>2022-09-25T12:21:58Z</time>
      </trkpt>
      <trkpt lat="45.67384" lon="5.57319">
        <ele>225.1</ele>
        <time>2022-09-25T12:21:59Z</time>
      </trkpt>
      <trkpt lat="45.67383" lon="5.57322">
        <ele>225.1</ele>
        <time>2022-09-25T12:22:00Z</time>
      </trkpt>
      <trkpt lat="45.67383" lon="5.57326">
        <ele>225.1</ele>
        <time>2022-09-25T12:22:01Z</time>
      </trkpt>
      <trkpt lat="45.67384" lon="5.57332">
        <ele>225.1</ele>
        <time>2022-09-25T12:22:02Z</time>
      </trkpt>
      <trkpt lat="45.67384" lon="5.57334">
        <ele>225.1</ele>
        <time>2022-09-25T12:22:03Z</time>
      </trkpt>
      <trkpt lat="45.67385" lon="5.57338">
        <ele>225.1</ele>
        <time>2022-09-25T12:22:04Z</time>
      </trkpt>
      <trkpt lat="45.67384" lon="5.57344">
        <ele>225</ele>
        <time>2022-09-25T12:22:05Z</time>
      </trkpt>
      <trkpt lat="45.67387" lon="5.57349">
        <ele>224.8</ele>
        <time>2022-09-25T12:22:06Z</time>
      </trkpt>
      <trkpt lat="45.67388" lon="5.57352">
        <ele>224.8</ele>
        <time>2022-09-25T12:22:07Z</time>
      </trkpt>
      <trkpt lat="45.67389" lon="5.57357">
        <ele>224.7</ele>
        <time>2022-09-25T12:22:08Z</time>
      </trkpt>
      <trkpt lat="45.6739" lon="5.57363">
        <ele>224.6</ele>
        <time>2022-09-25T12:22:09Z</time>
      </trkpt>
      <trkpt lat="45.67391" lon="5.57368">
        <ele>224.4</ele>
        <time>2022-09-25T12:22:10Z</time>
      </trkpt>
      <trkpt lat="45.67391" lon="5.57374">
        <ele>224.3</ele>
        <time>2022-09-25T12:22:11Z</time>
      </trkpt>
      <trkpt lat="45.67392" lon="5.57381">
        <ele>224.2</ele>
        <time>2022-09-25T12:22:12Z</time>
      </trkpt>
      <trkpt lat="45.67394" lon="5.57389">
        <ele>224</ele>
        <time>2022-09-25T12:22:13Z</time>
      </trkpt>
      <trkpt lat="45.67394" lon="5.57395">
        <ele>223.9</ele>
        <time>2022-09-25T12:22:14Z</time>
      </trkpt>
      <trkpt lat="45.67395" lon="5.574">
        <ele>223.8</ele>
        <time>2022-09-25T12:22:15Z</time>
      </trkpt>
      <trkpt lat="45.67394" lon="5.57409">
        <ele>223.7</ele>
        <time>2022-09-25T12:22:16Z</time>
      </trkpt>
      <trkpt lat="45.67391" lon="5.57424">
        <ele>223.5</ele>
        <time>2022-09-25T12:22:17Z</time>
      </trkpt>
      <trkpt lat="45.6739" lon="5.57432">
        <ele>223.3</ele>
        <time>2022-09-25T12:22:18Z</time>
      </trkpt>
      <trkpt lat="45.67387" lon="5.57439">
        <ele>223.2</ele>
        <time>2022-09-25T12:22:19Z</time>
      </trkpt>
      <trkpt lat="45.67386" lon="5.57444">
        <ele>223.2</ele>
        <time>2022-09-25T12:22:20Z</time>
      </trkpt>
      <trkpt lat="45.67384" lon="5.57451">
        <ele>223</ele>
        <time>2022-09-25T12:22:21Z</time>
      </trkpt>
      <trkpt lat="45.67382" lon="5.57457">
        <ele>222.9</ele>
        <time>2022-09-25T12:22:22Z</time>
      </trkpt>
      <trkpt lat="45.6738" lon="5.57463">
        <ele>222.8</ele>
        <time>2022-09-25T12:22:23Z</time>
      </trkpt>
      <trkpt lat="45.67378" lon="5.57471">
        <ele>222.7</ele>
        <time>2022-09-25T12:22:24Z</time>
      </trkpt>
      <trkpt lat="45.67377" lon="5.57479">
        <ele>222.6</ele>
        <time>2022-09-25T12:22:25Z</time>
      </trkpt>
      <trkpt lat="45.67375" lon="5.57487">
        <ele>222.4</ele>
        <time>2022-09-25T12:22:26Z</time>
      </trkpt>
      <trkpt lat="45.67373" lon="5.57495">
        <ele>222.3</ele>
        <time>2022-09-25T12:22:27Z</time>
      </trkpt>
      <trkpt lat="45.67371" lon="5.57503">
        <ele>222.1</ele>
        <time>2022-09-25T12:22:28Z</time>
      </trkpt>
      <trkpt lat="45.67369" lon="5.57512">
        <ele>222</ele>
        <time>2022-09-25T12:22:29Z</time>
      </trkpt>
      <trkpt lat="45.67367" lon="5.57521">
        <ele>221.8</ele>
        <time>2022-09-25T12:22:30Z</time>
      </trkpt>
      <trkpt lat="45.67363" lon="5.57529">
        <ele>221.7</ele>
        <time>2022-09-25T12:22:31Z</time>
      </trkpt>
      <trkpt lat="45.67361" lon="5.57536">
        <ele>221.6</ele>
        <time>2022-09-25T12:22:32Z</time>
      </trkpt>
      <trkpt lat="45.67359" lon="5.57543">
        <ele>221.6</ele>
        <time>2022-09-25T12:22:33Z</time>
      </trkpt>
      <trkpt lat="45.67356" lon="5.57552">
        <ele>221.5</ele>
        <time>2022-09-25T12:22:34Z</time>
      </trkpt>
      <trkpt lat="45.67354" lon="5.57559">
        <ele>221.4</ele>
        <time>2022-09-25T12:22:35Z</time>
      </trkpt>
      <trkpt lat="45.67352" lon="5.57568">
        <ele>221.3</ele>
        <time>2022-09-25T12:22:36Z</time>
      </trkpt>
      <trkpt lat="45.67349" lon="5.57576">
        <ele>221.3</ele>
        <time>2022-09-25T12:22:37Z</time>
      </trkpt>
      <trkpt lat="45.67347" lon="5.57585">
        <ele>221.2</ele>
        <time>2022-09-25T12:22:38Z</time>
      </trkpt>
      <trkpt lat="45.67345" lon="5.57592">
        <ele>221.2</ele>
        <time>2022-09-25T12:22:39Z</time>
      </trkpt>
      <trkpt lat="45.67341" lon="5.57599">
        <ele>221.2</ele>
        <time>2022-09-25T12:22:40Z</time>
      </trkpt>
      <trkpt lat="45.67338" lon="5.57605">
        <ele>221.2</ele>
        <time>2022-09-25T12:22:41Z</time>
      </trkpt>
      <trkpt lat="45.67333" lon="5.57611">
        <ele>221.2</ele>
        <time>2022-09-25T12:22:42Z</time>
      </trkpt>
      <trkpt lat="45.67329" lon="5.57617">
        <ele>221.2</ele>
        <time>2022-09-25T12:22:43Z</time>
      </trkpt>
      <trkpt lat="45.67325" lon="5.57621">
        <ele>221.2</ele>
        <time>2022-09-25T12:22:44Z</time>
      </trkpt>
      <trkpt lat="45.67322" lon="5.57625">
        <ele>221.3</ele>
        <time>2022-09-25T12:22:45Z</time>
      </trkpt>
      <trkpt lat="45.67319" lon="5.57628">
        <ele>221.3</ele>
        <time>2022-09-25T12:22:46Z</time>
      </trkpt>
      <trkpt lat="45.67315" lon="5.57631">
        <ele>221.4</ele>
        <time>2022-09-25T12:22:47Z</time>
      </trkpt>
      <trkpt lat="45.67311" lon="5.57634">
        <ele>221.4</ele>
        <time>2022-09-25T12:22:48Z</time>
      </trkpt>
      <trkpt lat="45.67307" lon="5.57637">
        <ele>221.4</ele>
        <time>2022-09-25T12:22:49Z</time>
      </trkpt>
      <trkpt lat="45.67303" lon="5.5764">
        <ele>221.3</ele>
        <time>2022-09-25T12:22:50Z</time>
      </trkpt>
      <trkpt lat="45.673" lon="5.57643">
        <ele>221.3</ele>
        <time>2022-09-25T12:22:51Z</time>
      </trkpt>
      <trkpt lat="45.67296" lon="5.57647">
        <ele>221.3</ele>
        <time>2022-09-25T12:22:52Z</time>
      </trkpt>
      <trkpt lat="45.67291" lon="5.57648">
        <ele>221.2</ele>
        <time>2022-09-25T12:22:53Z</time>
      </trkpt>
      <trkpt lat="45.67286" lon="5.57651">
        <ele>221.2</ele>
        <time>2022-09-25T12:22:54Z</time>
      </trkpt>
      <trkpt lat="45.67282" lon="5.57653">
        <ele>221.2</ele>
        <time>2022-09-25T12:22:55Z</time>
      </trkpt>
      <trkpt lat="45.67277" lon="5.57655">
        <ele>221.1</ele>
        <time>2022-09-25T12:22:56Z</time>
      </trkpt>
      <trkpt lat="45.67273" lon="5.57656">
        <ele>221.1</ele>
        <time>2022-09-25T12:22:57Z</time>
      </trkpt>
      <trkpt lat="45.67269" lon="5.57657">
        <ele>221</ele>
        <time>2022-09-25T12:22:58Z</time>
      </trkpt>
      <trkpt lat="45.67266" lon="5.57656">
        <ele>221</ele>
        <time>2022-09-25T12:22:59Z</time>
      </trkpt>
      <trkpt lat="45.67264" lon="5.57657">
        <ele>221</ele>
        <time>2022-09-25T12:23:00Z</time>
      </trkpt>
      <trkpt lat="45.67263" lon="5.57657">
        <ele>221</ele>
        <time>2022-09-25T12:23:01Z</time>
      </trkpt>
      <trkpt lat="45.67261" lon="5.57661">
        <ele>220.9</ele>
        <time>2022-09-25T12:23:02Z</time>
      </trkpt>
      <trkpt lat="45.6726" lon="5.57662">
        <ele>220.9</ele>
        <time>2022-09-25T12:23:03Z</time>
      </trkpt>
      <trkpt lat="45.6726" lon="5.57663">
        <ele>220.9</ele>
        <time>2022-09-25T12:23:04Z</time>
      </trkpt>
      <trkpt lat="45.6726" lon="5.57663">
        <ele>220.9</ele>
        <time>2022-09-25T12:23:05Z</time>
      </trkpt>
      <trkpt lat="45.6726" lon="5.57664">
        <ele>220.9</ele>
        <time>2022-09-25T12:23:06Z</time>
      </trkpt>
      <trkpt lat="45.6726" lon="5.57664">
        <ele>220.9</ele>
        <time>2022-09-25T12:23:07Z</time>
      </trkpt>
      <trkpt lat="45.6726" lon="5.57665">
        <ele>220.9</ele>
        <time>2022-09-25T12:23:08Z</time>
      </trkpt>
      <trkpt lat="45.6726" lon="5.57665">
        <ele>220.9</ele>
        <time>2022-09-25T12:23:09Z</time>
      </trkpt>
      <trkpt lat="45.6726" lon="5.57666">
        <ele>220.9</ele>
        <time>2022-09-25T12:23:10Z</time>
      </trkpt>
      <trkpt lat="45.67259" lon="5.57666">
        <ele>220.9</ele>
        <time>2022-09-25T12:23:11Z</time>
      </trkpt>
      <trkpt lat="45.67259" lon="5.57666">
        <ele>220.9</ele>
        <time>2022-09-25T12:23:12Z</time>
      </trkpt>
      <trkpt lat="45.67259" lon="5.57667">
        <ele>220.9</ele>
        <time>2022-09-25T12:23:13Z</time>
      </trkpt>
      <trkpt lat="45.67259" lon="5.57667">
        <ele>220.9</ele>
        <time>2022-09-25T12:23:14Z</time>
      </trkpt>
      <trkpt lat="45.67258" lon="5.57672">
        <ele>220.9</ele>
        <time>2022-09-25T12:23:15Z</time>
      </trkpt>
      <trkpt lat="45.67258" lon="5.57674">
        <ele>220.9</ele>
        <time>2022-09-25T12:23:16Z</time>
      </trkpt>
      <trkpt lat="45.67256" lon="5.57679">
        <ele>220.8</ele>
        <time>2022-09-25T12:23:17Z</time>
      </trkpt>
      <trkpt lat="45.67256" lon="5.57681">
        <ele>220.8</ele>
        <time>2022-09-25T12:23:18Z</time>
      </trkpt>
      <trkpt lat="45.67256" lon="5.57686">
        <ele>220.8</ele>
        <time>2022-09-25T12:23:19Z</time>
      </trkpt>
      <trkpt lat="45.67255" lon="5.57691">
        <ele>220.8</ele>
        <time>2022-09-25T12:23:20Z</time>
      </trkpt>
      <trkpt lat="45.67253" lon="5.57697">
        <ele>220.7</ele>
        <time>2022-09-25T12:23:21Z</time>
      </trkpt>
      <trkpt lat="45.67252" lon="5.57699">
        <ele>220.7</ele>
        <time>2022-09-25T12:23:22Z</time>
      </trkpt>
      <trkpt lat="45.6725" lon="5.57705">
        <ele>220.7</ele>
        <time>2022-09-25T12:23:23Z</time>
      </trkpt>
      <trkpt lat="45.67248" lon="5.57709">
        <ele>220.7</ele>
        <time>2022-09-25T12:23:24Z</time>
      </trkpt>
      <trkpt lat="45.67246" lon="5.57713">
        <ele>220.6</ele>
        <time>2022-09-25T12:23:25Z</time>
      </trkpt>
      <trkpt lat="45.67242" lon="5.57716">
        <ele>220.6</ele>
        <time>2022-09-25T12:23:26Z</time>
      </trkpt>
      <trkpt lat="45.67239" lon="5.5772">
        <ele>220.6</ele>
        <time>2022-09-25T12:23:27Z</time>
      </trkpt>
      <trkpt lat="45.67238" lon="5.57726">
        <ele>220.6</ele>
        <time>2022-09-25T12:23:28Z</time>
      </trkpt>
      <trkpt lat="45.67234" lon="5.5773">
        <ele>220.5</ele>
        <time>2022-09-25T12:23:29Z</time>
      </trkpt>
      <trkpt lat="45.67231" lon="5.57734">
        <ele>220.5</ele>
        <time>2022-09-25T12:23:30Z</time>
      </trkpt>
      <trkpt lat="45.67228" lon="5.57739">
        <ele>220.4</ele>
        <time>2022-09-25T12:23:31Z</time>
      </trkpt>
      <trkpt lat="45.67225" lon="5.57744">
        <ele>220.4</ele>
        <time>2022-09-25T12:23:32Z</time>
      </trkpt>
      <trkpt lat="45.67222" lon="5.57748">
        <ele>220.4</ele>
        <time>2022-09-25T12:23:33Z</time>
      </trkpt>
      <trkpt lat="45.6722" lon="5.57753">
        <ele>220.3</ele>
        <time>2022-09-25T12:23:34Z</time>
      </trkpt>
      <trkpt lat="45.67216" lon="5.57757">
        <ele>220.2</ele>
        <time>2022-09-25T12:23:35Z</time>
      </trkpt>
      <trkpt lat="45.67214" lon="5.57762">
        <ele>220.2</ele>
        <time>2022-09-25T12:23:36Z</time>
      </trkpt>
      <trkpt lat="45.67211" lon="5.57768">
        <ele>220.1</ele>
        <time>2022-09-25T12:23:37Z</time>
      </trkpt>
      <trkpt lat="45.67208" lon="5.57772">
        <ele>220</ele>
        <time>2022-09-25T12:23:38Z</time>
      </trkpt>
      <trkpt lat="45.67204" lon="5.57775">
        <ele>219.9</ele>
        <time>2022-09-25T12:23:39Z</time>
      </trkpt>
      <trkpt lat="45.67202" lon="5.57777">
        <ele>219.9</ele>
        <time>2022-09-25T12:23:40Z</time>
      </trkpt>
      <trkpt lat="45.67199" lon="5.57782">
        <ele>219.8</ele>
        <time>2022-09-25T12:23:41Z</time>
      </trkpt>
      <trkpt lat="45.67196" lon="5.57785">
        <ele>219.7</ele>
        <time>2022-09-25T12:23:42Z</time>
      </trkpt>
      <trkpt lat="45.67191" lon="5.57788">
        <ele>219.6</ele>
        <time>2022-09-25T12:23:43Z</time>
      </trkpt>
      <trkpt lat="45.67187" lon="5.57793">
        <ele>219.5</ele>
        <time>2022-09-25T12:23:44Z</time>
      </trkpt>
      <trkpt lat="45.67183" lon="5.57797">
        <ele>219.4</ele>
        <time>2022-09-25T12:23:45Z</time>
      </trkpt>
      <trkpt lat="45.67179" lon="5.57802">
        <ele>219.3</ele>
        <time>2022-09-25T12:23:46Z</time>
      </trkpt>
      <trkpt lat="45.67175" lon="5.57805">
        <ele>219.2</ele>
        <time>2022-09-25T12:23:47Z</time>
      </trkpt>
      <trkpt lat="45.6717" lon="5.57811">
        <ele>219</ele>
        <time>2022-09-25T12:23:48Z</time>
      </trkpt>
      <trkpt lat="45.67167" lon="5.57817">
        <ele>218.9</ele>
        <time>2022-09-25T12:23:49Z</time>
      </trkpt>
      <trkpt lat="45.67164" lon="5.57824">
        <ele>218.8</ele>
        <time>2022-09-25T12:23:50Z</time>
      </trkpt>
      <trkpt lat="45.6716" lon="5.57829">
        <ele>218.7</ele>
        <time>2022-09-25T12:23:51Z</time>
      </trkpt>
      <trkpt lat="45.67159" lon="5.57835">
        <ele>218.6</ele>
        <time>2022-09-25T12:23:52Z</time>
      </trkpt>
      <trkpt lat="45.67155" lon="5.57842">
        <ele>218.5</ele>
        <time>2022-09-25T12:23:53Z</time>
      </trkpt>
      <trkpt lat="45.6715" lon="5.57846">
        <ele>218.4</ele>
        <time>2022-09-25T12:23:54Z</time>
      </trkpt>
      <trkpt lat="45.67147" lon="5.57855">
        <ele>218.3</ele>
        <time>2022-09-25T12:23:55Z</time>
      </trkpt>
      <trkpt lat="45.67144" lon="5.57862">
        <ele>218.1</ele>
        <time>2022-09-25T12:23:56Z</time>
      </trkpt>
      <trkpt lat="45.6714" lon="5.57867">
        <ele>218</ele>
        <time>2022-09-25T12:23:57Z</time>
      </trkpt>
      <trkpt lat="45.67138" lon="5.57874">
        <ele>217.9</ele>
        <time>2022-09-25T12:23:58Z</time>
      </trkpt>
      <trkpt lat="45.67135" lon="5.57881">
        <ele>217.7</ele>
        <time>2022-09-25T12:23:59Z</time>
      </trkpt>
      <trkpt lat="45.67131" lon="5.57888">
        <ele>217.6</ele>
        <time>2022-09-25T12:24:00Z</time>
      </trkpt>
      <trkpt lat="45.67128" lon="5.57896">
        <ele>217.4</ele>
        <time>2022-09-25T12:24:02Z</time>
      </trkpt>
      <trkpt lat="45.67124" lon="5.57903">
        <ele>217.2</ele>
        <time>2022-09-25T12:24:03Z</time>
      </trkpt>
      <trkpt lat="45.67121" lon="5.57909">
        <ele>217.1</ele>
        <time>2022-09-25T12:24:04Z</time>
      </trkpt>
      <trkpt lat="45.67118" lon="5.57918">
        <ele>216.9</ele>
        <time>2022-09-25T12:24:05Z</time>
      </trkpt>
      <trkpt lat="45.67115" lon="5.57925">
        <ele>216.8</ele>
        <time>2022-09-25T12:24:06Z</time>
      </trkpt>
      <trkpt lat="45.67111" lon="5.57933">
        <ele>216.6</ele>
        <time>2022-09-25T12:24:07Z</time>
      </trkpt>
      <trkpt lat="45.67107" lon="5.57941">
        <ele>216.5</ele>
        <time>2022-09-25T12:24:08Z</time>
      </trkpt>
      <trkpt lat="45.67105" lon="5.57948">
        <ele>216.4</ele>
        <time>2022-09-25T12:24:09Z</time>
      </trkpt>
      <trkpt lat="45.67101" lon="5.57956">
        <ele>216.2</ele>
        <time>2022-09-25T12:24:10Z</time>
      </trkpt>
      <trkpt lat="45.67097" lon="5.57964">
        <ele>216.1</ele>
        <time>2022-09-25T12:24:11Z</time>
      </trkpt>
      <trkpt lat="45.67094" lon="5.57971">
        <ele>216</ele>
        <time>2022-09-25T12:24:12Z</time>
      </trkpt>
      <trkpt lat="45.67091" lon="5.5798">
        <ele>215.8</ele>
        <time>2022-09-25T12:24:13Z</time>
      </trkpt>
      <trkpt lat="45.67087" lon="5.57987">
        <ele>215.7</ele>
        <time>2022-09-25T12:24:14Z</time>
      </trkpt>
      <trkpt lat="45.67085" lon="5.57994">
        <ele>215.6</ele>
        <time>2022-09-25T12:24:15Z</time>
      </trkpt>
      <trkpt lat="45.67081" lon="5.58002">
        <ele>215.5</ele>
        <time>2022-09-25T12:24:16Z</time>
      </trkpt>
      <trkpt lat="45.67077" lon="5.5801">
        <ele>215.4</ele>
        <time>2022-09-25T12:24:17Z</time>
      </trkpt>
      <trkpt lat="45.67074" lon="5.58017">
        <ele>215.4</ele>
        <time>2022-09-25T12:24:18Z</time>
      </trkpt>
      <trkpt lat="45.67071" lon="5.58025">
        <ele>215.3</ele>
        <time>2022-09-25T12:24:19Z</time>
      </trkpt>
      <trkpt lat="45.67067" lon="5.58032">
        <ele>215.2</ele>
        <time>2022-09-25T12:24:20Z</time>
      </trkpt>
      <trkpt lat="45.67065" lon="5.58038">
        <ele>215.1</ele>
        <time>2022-09-25T12:24:21Z</time>
      </trkpt>
      <trkpt lat="45.67062" lon="5.58045">
        <ele>215</ele>
        <time>2022-09-25T12:24:22Z</time>
      </trkpt>
      <trkpt lat="45.67058" lon="5.58052">
        <ele>214.9</ele>
        <time>2022-09-25T12:24:23Z</time>
      </trkpt>
      <trkpt lat="45.67055" lon="5.58059">
        <ele>214.8</ele>
        <time>2022-09-25T12:24:24Z</time>
      </trkpt>
      <trkpt lat="45.67052" lon="5.58067">
        <ele>214.7</ele>
        <time>2022-09-25T12:24:25Z</time>
      </trkpt>
      <trkpt lat="45.67049" lon="5.58075">
        <ele>214.6</ele>
        <time>2022-09-25T12:24:26Z</time>
      </trkpt>
      <trkpt lat="45.67046" lon="5.58082">
        <ele>214.4</ele>
        <time>2022-09-25T12:24:27Z</time>
      </trkpt>
      <trkpt lat="45.67044" lon="5.5809">
        <ele>214.3</ele>
        <time>2022-09-25T12:24:28Z</time>
      </trkpt>
      <trkpt lat="45.67042" lon="5.58099">
        <ele>214.1</ele>
        <time>2022-09-25T12:24:29Z</time>
      </trkpt>
      <trkpt lat="45.67039" lon="5.58108">
        <ele>214</ele>
        <time>2022-09-25T12:24:30Z</time>
      </trkpt>
      <trkpt lat="45.67037" lon="5.58117">
        <ele>213.8</ele>
        <time>2022-09-25T12:24:31Z</time>
      </trkpt>
      <trkpt lat="45.67035" lon="5.58126">
        <ele>213.5</ele>
        <time>2022-09-25T12:24:32Z</time>
      </trkpt>
      <trkpt lat="45.67033" lon="5.58135">
        <ele>213.3</ele>
        <time>2022-09-25T12:24:33Z</time>
      </trkpt>
      <trkpt lat="45.67031" lon="5.58144">
        <ele>213.1</ele>
        <time>2022-09-25T12:24:34Z</time>
      </trkpt>
      <trkpt lat="45.6703" lon="5.58153">
        <ele>212.8</ele>
        <time>2022-09-25T12:24:35Z</time>
      </trkpt>
      <trkpt lat="45.67029" lon="5.58162">
        <ele>212.6</ele>
        <time>2022-09-25T12:24:36Z</time>
      </trkpt>
      <trkpt lat="45.67029" lon="5.5817">
        <ele>212.4</ele>
        <time>2022-09-25T12:24:37Z</time>
      </trkpt>
      <trkpt lat="45.67029" lon="5.58178">
        <ele>212.2</ele>
        <time>2022-09-25T12:24:38Z</time>
      </trkpt>
      <trkpt lat="45.67029" lon="5.58185">
        <ele>212</ele>
        <time>2022-09-25T12:24:39Z</time>
      </trkpt>
      <trkpt lat="45.6703" lon="5.58191">
        <ele>211.9</ele>
        <time>2022-09-25T12:24:40Z</time>
      </trkpt>
      <trkpt lat="45.67031" lon="5.58195">
        <ele>211.8</ele>
        <time>2022-09-25T12:24:41Z</time>
      </trkpt>
      <trkpt lat="45.67034" lon="5.582">
        <ele>211.7</ele>
        <time>2022-09-25T12:24:42Z</time>
      </trkpt>
      <trkpt lat="45.67035" lon="5.58201">
        <ele>211.7</ele>
        <time>2022-09-25T12:24:43Z</time>
      </trkpt>
      <trkpt lat="45.67038" lon="5.582">
        <ele>211.6</ele>
        <time>2022-09-25T12:24:44Z</time>
      </trkpt>
      <trkpt lat="45.6704" lon="5.58197">
        <ele>211.5</ele>
        <time>2022-09-25T12:24:45Z</time>
      </trkpt>
      <trkpt lat="45.67042" lon="5.58192">
        <ele>211.4</ele>
        <time>2022-09-25T12:24:46Z</time>
      </trkpt>
      <trkpt lat="45.67042" lon="5.58191">
        <ele>211.4</ele>
        <time>2022-09-25T12:24:47Z</time>
      </trkpt>
      <trkpt lat="45.67042" lon="5.5819">
        <ele>211.4</ele>
        <time>2022-09-25T12:24:48Z</time>
      </trkpt>
      <trkpt lat="45.67042" lon="5.58188">
        <ele>211.3</ele>
        <time>2022-09-25T12:24:49Z</time>
      </trkpt>
      <trkpt lat="45.67042" lon="5.58188">
        <ele>211.3</ele>
        <time>2022-09-25T12:24:50Z</time>
      </trkpt>
      <trkpt lat="45.67042" lon="5.58189">
        <ele>211.3</ele>
        <time>2022-09-25T12:24:51Z</time>
      </trkpt>
      <trkpt lat="45.67042" lon="5.58189">
        <ele>211.3</ele>
        <time>2022-09-25T12:24:52Z</time>
      </trkpt>
      <trkpt lat="45.67043" lon="5.58188">
        <ele>211.3</ele>
        <time>2022-09-25T12:24:53Z</time>
      </trkpt>
      <trkpt lat="45.67043" lon="5.58188">
        <ele>211.3</ele>
        <time>2022-09-25T12:24:54Z</time>
      </trkpt>
      <trkpt lat="45.67043" lon="5.58188">
        <ele>211.3</ele>
        <time>2022-09-25T12:24:55Z</time>
      </trkpt>
      <trkpt lat="45.67043" lon="5.58187">
        <ele>211.2</ele>
        <time>2022-09-25T12:24:56Z</time>
      </trkpt>
      <trkpt lat="45.67042" lon="5.58189">
        <ele>211.2</ele>
        <time>2022-09-25T12:24:57Z</time>
      </trkpt>
      <trkpt lat="45.6704" lon="5.58191">
        <ele>211.2</ele>
        <time>2022-09-25T12:24:58Z</time>
      </trkpt>
      <trkpt lat="45.67039" lon="5.58193">
        <ele>211.1</ele>
        <time>2022-09-25T12:26:28Z</time>
      </trkpt>
      <trkpt lat="45.67037" lon="5.58194">
        <ele>211</ele>
        <time>2022-09-25T12:26:29Z</time>
      </trkpt>
      <trkpt lat="45.67035" lon="5.58199">
        <ele>211</ele>
        <time>2022-09-25T12:26:30Z</time>
      </trkpt>
      <trkpt lat="45.67035" lon="5.58201">
        <ele>210.9</ele>
        <time>2022-09-25T12:26:31Z</time>
      </trkpt>
      <trkpt lat="45.67035" lon="5.58206">
        <ele>210.8</ele>
        <time>2022-09-25T12:26:32Z</time>
      </trkpt>
      <trkpt lat="45.67036" lon="5.5821">
        <ele>210.8</ele>
        <time>2022-09-25T12:26:33Z</time>
      </trkpt>
      <trkpt lat="45.67037" lon="5.58216">
        <ele>210.6</ele>
        <time>2022-09-25T12:26:34Z</time>
      </trkpt>
      <trkpt lat="45.67038" lon="5.58222">
        <ele>210.5</ele>
        <time>2022-09-25T12:26:35Z</time>
      </trkpt>
      <trkpt lat="45.6704" lon="5.58228">
        <ele>210.4</ele>
        <time>2022-09-25T12:26:36Z</time>
      </trkpt>
      <trkpt lat="45.67041" lon="5.58236">
        <ele>210.3</ele>
        <time>2022-09-25T12:26:37Z</time>
      </trkpt>
      <trkpt lat="45.67043" lon="5.58242">
        <ele>210.2</ele>
        <time>2022-09-25T12:26:38Z</time>
      </trkpt>
      <trkpt lat="45.67044" lon="5.5825">
        <ele>210.1</ele>
        <time>2022-09-25T12:26:39Z</time>
      </trkpt>
      <trkpt lat="45.67046" lon="5.58257">
        <ele>210</ele>
        <time>2022-09-25T12:26:40Z</time>
      </trkpt>
      <trkpt lat="45.67048" lon="5.58264">
        <ele>209.8</ele>
        <time>2022-09-25T12:26:41Z</time>
      </trkpt>
      <trkpt lat="45.6705" lon="5.58271">
        <ele>209.7</ele>
        <time>2022-09-25T12:26:42Z</time>
      </trkpt>
      <trkpt lat="45.67052" lon="5.58277">
        <ele>209.6</ele>
        <time>2022-09-25T12:26:43Z</time>
      </trkpt>
      <trkpt lat="45.67053" lon="5.58284">
        <ele>209.5</ele>
        <time>2022-09-25T12:26:44Z</time>
      </trkpt>
      <trkpt lat="45.67054" lon="5.58291">
        <ele>209.4</ele>
        <time>2022-09-25T12:26:45Z</time>
      </trkpt>
      <trkpt lat="45.67056" lon="5.58296">
        <ele>209.3</ele>
        <time>2022-09-25T12:26:46Z</time>
      </trkpt>
      <trkpt lat="45.67057" lon="5.58301">
        <ele>209.2</ele>
        <time>2022-09-25T12:26:47Z</time>
      </trkpt>
      <trkpt lat="45.67058" lon="5.58305">
        <ele>209.2</ele>
        <time>2022-09-25T12:26:48Z</time>
      </trkpt>
      <trkpt lat="45.67057" lon="5.58309">
        <ele>209</ele>
        <time>2022-09-25T12:26:49Z</time>
      </trkpt>
      <trkpt lat="45.67056" lon="5.5831">
        <ele>209</ele>
        <time>2022-09-25T12:26:50Z</time>
      </trkpt>
      <trkpt lat="45.67053" lon="5.58311">
        <ele>209</ele>
        <time>2022-09-25T12:26:51Z</time>
      </trkpt>
      <trkpt lat="45.67052" lon="5.58311">
        <ele>209</ele>
        <time>2022-09-25T12:26:52Z</time>
      </trkpt>
      <trkpt lat="45.67049" lon="5.58309">
        <ele>209</ele>
        <time>2022-09-25T12:26:53Z</time>
      </trkpt>
      <trkpt lat="45.67047" lon="5.58306">
        <ele>209</ele>
        <time>2022-09-25T12:26:54Z</time>
      </trkpt>
      <trkpt lat="45.67045" lon="5.58303">
        <ele>209</ele>
        <time>2022-09-25T12:26:55Z</time>
      </trkpt>
      <trkpt lat="45.67042" lon="5.58301">
        <ele>209</ele>
        <time>2022-09-25T12:26:56Z</time>
      </trkpt>
      <trkpt lat="45.67039" lon="5.58299">
        <ele>209</ele>
        <time>2022-09-25T12:26:57Z</time>
      </trkpt>
      <trkpt lat="45.67036" lon="5.58295">
        <ele>209.1</ele>
        <time>2022-09-25T12:26:58Z</time>
      </trkpt>
      <trkpt lat="45.67033" lon="5.58292">
        <ele>209.1</ele>
        <time>2022-09-25T12:26:59Z</time>
      </trkpt>
      <trkpt lat="45.6703" lon="5.5829">
        <ele>209.1</ele>
        <time>2022-09-25T12:27:00Z</time>
      </trkpt>
      <trkpt lat="45.67027" lon="5.58287">
        <ele>209.2</ele>
        <time>2022-09-25T12:27:01Z</time>
      </trkpt>
      <trkpt lat="45.67024" lon="5.58285">
        <ele>209.2</ele>
        <time>2022-09-25T12:27:02Z</time>
      </trkpt>
      <trkpt lat="45.67022" lon="5.58282">
        <ele>209.3</ele>
        <time>2022-09-25T12:27:03Z</time>
      </trkpt>
      <trkpt lat="45.67019" lon="5.58279">
        <ele>209.3</ele>
        <time>2022-09-25T12:27:04Z</time>
      </trkpt>
      <trkpt lat="45.67015" lon="5.58276">
        <ele>209.3</ele>
        <time>2022-09-25T12:27:05Z</time>
      </trkpt>
      <trkpt lat="45.67012" lon="5.58273">
        <ele>209.4</ele>
        <time>2022-09-25T12:27:06Z</time>
      </trkpt>
      <trkpt lat="45.67009" lon="5.5827">
        <ele>209.4</ele>
        <time>2022-09-25T12:27:07Z</time>
      </trkpt>
      <trkpt lat="45.67006" lon="5.58266">
        <ele>209.4</ele>
        <time>2022-09-25T12:27:08Z</time>
      </trkpt>
      <trkpt lat="45.67002" lon="5.58265">
        <ele>209.5</ele>
        <time>2022-09-25T12:27:09Z</time>
      </trkpt>
      <trkpt lat="45.66999" lon="5.58262">
        <ele>209.5</ele>
        <time>2022-09-25T12:27:10Z</time>
      </trkpt>
      <trkpt lat="45.66996" lon="5.58259">
        <ele>209.5</ele>
        <time>2022-09-25T12:27:11Z</time>
      </trkpt>
      <trkpt lat="45.66993" lon="5.58255">
        <ele>209.6</ele>
        <time>2022-09-25T12:27:12Z</time>
      </trkpt>
      <trkpt lat="45.6699" lon="5.58252">
        <ele>209.6</ele>
        <time>2022-09-25T12:27:13Z</time>
      </trkpt>
      <trkpt lat="45.66989" lon="5.58251">
        <ele>209.6</ele>
        <time>2022-09-25T12:27:14Z</time>
      </trkpt>
      <trkpt lat="45.66985" lon="5.58249">
        <ele>209.4</ele>
        <time>2022-09-25T12:27:15Z</time>
      </trkpt>
      <trkpt lat="45.66981" lon="5.58247">
        <ele>209.3</ele>
        <time>2022-09-25T12:27:16Z</time>
      </trkpt>
      <trkpt lat="45.66978" lon="5.58244">
        <ele>209.2</ele>
        <time>2022-09-25T12:27:17Z</time>
      </trkpt>
      <trkpt lat="45.66975" lon="5.58241">
        <ele>209.1</ele>
        <time>2022-09-25T12:27:18Z</time>
      </trkpt>
      <trkpt lat="45.66971" lon="5.58238">
        <ele>209</ele>
        <time>2022-09-25T12:27:19Z</time>
      </trkpt>
      <trkpt lat="45.66967" lon="5.58235">
        <ele>208.9</ele>
        <time>2022-09-25T12:27:20Z</time>
      </trkpt>
      <trkpt lat="45.66963" lon="5.58232">
        <ele>208.8</ele>
        <time>2022-09-25T12:27:21Z</time>
      </trkpt>
      <trkpt lat="45.6696" lon="5.58229">
        <ele>208.7</ele>
        <time>2022-09-25T12:27:22Z</time>
      </trkpt>
      <trkpt lat="45.66957" lon="5.58225">
        <ele>208.6</ele>
        <time>2022-09-25T12:27:23Z</time>
      </trkpt>
      <trkpt lat="45.66953" lon="5.58221">
        <ele>208.5</ele>
        <time>2022-09-25T12:27:24Z</time>
      </trkpt>
      <trkpt lat="45.66949" lon="5.58217">
        <ele>208.4</ele>
        <time>2022-09-25T12:27:25Z</time>
      </trkpt>
      <trkpt lat="45.66945" lon="5.58214">
        <ele>208.3</ele>
        <time>2022-09-25T12:27:26Z</time>
      </trkpt>
      <trkpt lat="45.66942" lon="5.58211">
        <ele>208.2</ele>
        <time>2022-09-25T12:27:27Z</time>
      </trkpt>
      <trkpt lat="45.66938" lon="5.58207">
        <ele>208.1</ele>
        <time>2022-09-25T12:27:28Z</time>
      </trkpt>
      <trkpt lat="45.66934" lon="5.58203">
        <ele>208.1</ele>
        <time>2022-09-25T12:27:29Z</time>
      </trkpt>
      <trkpt lat="45.6693" lon="5.582">
        <ele>208</ele>
        <time>2022-09-25T12:27:30Z</time>
      </trkpt>
      <trkpt lat="45.66927" lon="5.58196">
        <ele>208</ele>
        <time>2022-09-25T12:27:31Z</time>
      </trkpt>
      <trkpt lat="45.66925" lon="5.58194">
        <ele>208</ele>
        <time>2022-09-25T12:27:32Z</time>
      </trkpt>
      <trkpt lat="45.66922" lon="5.5819">
        <ele>207.9</ele>
        <time>2022-09-25T12:27:33Z</time>
      </trkpt>
      <trkpt lat="45.66919" lon="5.58187">
        <ele>207.9</ele>
        <time>2022-09-25T12:27:34Z</time>
      </trkpt>
      <trkpt lat="45.66918" lon="5.58187">
        <ele>207.9</ele>
        <time>2022-09-25T12:27:35Z</time>
      </trkpt>
      <trkpt lat="45.66917" lon="5.58186">
        <ele>207.8</ele>
        <time>2022-09-25T12:27:36Z</time>
      </trkpt>
      <trkpt lat="45.66915" lon="5.58187">
        <ele>207.8</ele>
        <time>2022-09-25T12:27:37Z</time>
      </trkpt>
      <trkpt lat="45.66912" lon="5.58189">
        <ele>207.8</ele>
        <time>2022-09-25T12:27:38Z</time>
      </trkpt>
      <trkpt lat="45.66911" lon="5.5819">
        <ele>207.8</ele>
        <time>2022-09-25T12:27:39Z</time>
      </trkpt>
      <trkpt lat="45.6691" lon="5.58195">
        <ele>207.8</ele>
        <time>2022-09-25T12:27:40Z</time>
      </trkpt>
      <trkpt lat="45.66909" lon="5.582">
        <ele>207.8</ele>
        <time>2022-09-25T12:27:41Z</time>
      </trkpt>
      <trkpt lat="45.66908" lon="5.58205">
        <ele>207.8</ele>
        <time>2022-09-25T12:27:42Z</time>
      </trkpt>
      <trkpt lat="45.66907" lon="5.5821">
        <ele>207.8</ele>
        <time>2022-09-25T12:27:43Z</time>
      </trkpt>
      <trkpt lat="45.66907" lon="5.58215">
        <ele>207.8</ele>
        <time>2022-09-25T12:27:44Z</time>
      </trkpt>
      <trkpt lat="45.66906" lon="5.58221">
        <ele>207.8</ele>
        <time>2022-09-25T12:27:45Z</time>
      </trkpt>
      <trkpt lat="45.66906" lon="5.58228">
        <ele>207.8</ele>
        <time>2022-09-25T12:27:46Z</time>
      </trkpt>
      <trkpt lat="45.66906" lon="5.58234">
        <ele>207.8</ele>
        <time>2022-09-25T12:27:47Z</time>
      </trkpt>
      <trkpt lat="45.66907" lon="5.5824">
        <ele>207.8</ele>
        <time>2022-09-25T12:27:48Z</time>
      </trkpt>
      <trkpt lat="45.66908" lon="5.58246">
        <ele>207.7</ele>
        <time>2022-09-25T12:27:49Z</time>
      </trkpt>
      <trkpt lat="45.66908" lon="5.58253">
        <ele>207.7</ele>
        <time>2022-09-25T12:27:50Z</time>
      </trkpt>
      <trkpt lat="45.66906" lon="5.5826">
        <ele>207.6</ele>
        <time>2022-09-25T12:27:51Z</time>
      </trkpt>
      <trkpt lat="45.66902" lon="5.58268">
        <ele>207.5</ele>
        <time>2022-09-25T12:27:52Z</time>
      </trkpt>
      <trkpt lat="45.66898" lon="5.58273">
        <ele>207.4</ele>
        <time>2022-09-25T12:27:53Z</time>
      </trkpt>
      <trkpt lat="45.66893" lon="5.58277">
        <ele>207.4</ele>
        <time>2022-09-25T12:27:54Z</time>
      </trkpt>
      <trkpt lat="45.66889" lon="5.58283">
        <ele>207.4</ele>
        <time>2022-09-25T12:27:55Z</time>
      </trkpt>
      <trkpt lat="45.66887" lon="5.58289">
        <ele>207.4</ele>
        <time>2022-09-25T12:27:56Z</time>
      </trkpt>
      <trkpt lat="45.66884" lon="5.58295">
        <ele>207.3</ele>
        <time>2022-09-25T12:27:57Z</time>
      </trkpt>
      <trkpt lat="45.66881" lon="5.58301">
        <ele>207.3</ele>
        <time>2022-09-25T12:27:58Z</time>
      </trkpt>
      <trkpt lat="45.66879" lon="5.58307">
        <ele>207.3</ele>
        <time>2022-09-25T12:27:59Z</time>
      </trkpt>
      <trkpt lat="45.66876" lon="5.58312">
        <ele>207.3</ele>
        <time>2022-09-25T12:28:00Z</time>
      </trkpt>
      <trkpt lat="45.66874" lon="5.58318">
        <ele>207.2</ele>
        <time>2022-09-25T12:28:01Z</time>
      </trkpt>
      <trkpt lat="45.66872" lon="5.58324">
        <ele>207.2</ele>
        <time>2022-09-25T12:28:02Z</time>
      </trkpt>
      <trkpt lat="45.66869" lon="5.5833">
        <ele>207.2</ele>
        <time>2022-09-25T12:28:03Z</time>
      </trkpt>
      <trkpt lat="45.66867" lon="5.58336">
        <ele>207.2</ele>
        <time>2022-09-25T12:28:04Z</time>
      </trkpt>
      <trkpt lat="45.66865" lon="5.58342">
        <ele>207.1</ele>
        <time>2022-09-25T12:28:05Z</time>
      </trkpt>
      <trkpt lat="45.66863" lon="5.58348">
        <ele>207</ele>
        <time>2022-09-25T12:28:06Z</time>
      </trkpt>
      <trkpt lat="45.66861" lon="5.58355">
        <ele>206.8</ele>
        <time>2022-09-25T12:28:07Z</time>
      </trkpt>
      <trkpt lat="45.66858" lon="5.58363">
        <ele>206.6</ele>
        <time>2022-09-25T12:28:08Z</time>
      </trkpt>
      <trkpt lat="45.66856" lon="5.58371">
        <ele>206.5</ele>
        <time>2022-09-25T12:28:09Z</time>
      </trkpt>
      <trkpt lat="45.66854" lon="5.5838">
        <ele>206.3</ele>
        <time>2022-09-25T12:28:10Z</time>
      </trkpt>
      <trkpt lat="45.66851" lon="5.58389">
        <ele>206.1</ele>
        <time>2022-09-25T12:28:11Z</time>
      </trkpt>
      <trkpt lat="45.66849" lon="5.58398">
        <ele>206</ele>
        <time>2022-09-25T12:28:12Z</time>
      </trkpt>
      <trkpt lat="45.66848" lon="5.58406">
        <ele>206</ele>
        <time>2022-09-25T12:28:14Z</time>
      </trkpt>
      <trkpt lat="45.66845" lon="5.58415">
        <ele>205.9</ele>
        <time>2022-09-25T12:28:15Z</time>
      </trkpt>
      <trkpt lat="45.66843" lon="5.58424">
        <ele>205.9</ele>
        <time>2022-09-25T12:28:16Z</time>
      </trkpt>
      <trkpt lat="45.66841" lon="5.58432">
        <ele>205.8</ele>
        <time>2022-09-25T12:28:17Z</time>
      </trkpt>
      <trkpt lat="45.66838" lon="5.58441">
        <ele>205.8</ele>
        <time>2022-09-25T12:28:18Z</time>
      </trkpt>
      <trkpt lat="45.66836" lon="5.58448">
        <ele>205.8</ele>
        <time>2022-09-25T12:28:19Z</time>
      </trkpt>
      <trkpt lat="45.66834" lon="5.58458">
        <ele>205.8</ele>
        <time>2022-09-25T12:28:20Z</time>
      </trkpt>
      <trkpt lat="45.66831" lon="5.58466">
        <ele>205.8</ele>
        <time>2022-09-25T12:28:21Z</time>
      </trkpt>
      <trkpt lat="45.66829" lon="5.58474">
        <ele>205.8</ele>
        <time>2022-09-25T12:28:22Z</time>
      </trkpt>
      <trkpt lat="45.66826" lon="5.58482">
        <ele>205.8</ele>
        <time>2022-09-25T12:28:23Z</time>
      </trkpt>
      <trkpt lat="45.66823" lon="5.5849">
        <ele>205.8</ele>
        <time>2022-09-25T12:28:24Z</time>
      </trkpt>
      <trkpt lat="45.66821" lon="5.58498">
        <ele>205.9</ele>
        <time>2022-09-25T12:28:25Z</time>
      </trkpt>
      <trkpt lat="45.66818" lon="5.58506">
        <ele>205.9</ele>
        <time>2022-09-25T12:28:26Z</time>
      </trkpt>
      <trkpt lat="45.66815" lon="5.58514">
        <ele>205.9</ele>
        <time>2022-09-25T12:28:27Z</time>
      </trkpt>
      <trkpt lat="45.66812" lon="5.58522">
        <ele>206</ele>
        <time>2022-09-25T12:28:28Z</time>
      </trkpt>
      <trkpt lat="45.6681" lon="5.5853">
        <ele>206</ele>
        <time>2022-09-25T12:28:29Z</time>
      </trkpt>
      <trkpt lat="45.66806" lon="5.58538">
        <ele>206.1</ele>
        <time>2022-09-25T12:28:30Z</time>
      </trkpt>
      <trkpt lat="45.66804" lon="5.58546">
        <ele>206.1</ele>
        <time>2022-09-25T12:28:31Z</time>
      </trkpt>
      <trkpt lat="45.668" lon="5.58554">
        <ele>206.1</ele>
        <time>2022-09-25T12:28:32Z</time>
      </trkpt>
      <trkpt lat="45.66797" lon="5.58561">
        <ele>206.2</ele>
        <time>2022-09-25T12:28:33Z</time>
      </trkpt>
      <trkpt lat="45.66795" lon="5.58569">
        <ele>206.2</ele>
        <time>2022-09-25T12:28:34Z</time>
      </trkpt>
      <trkpt lat="45.66791" lon="5.58577">
        <ele>206.2</ele>
        <time>2022-09-25T12:28:35Z</time>
      </trkpt>
      <trkpt lat="45.66788" lon="5.58584">
        <ele>206.2</ele>
        <time>2022-09-25T12:28:36Z</time>
      </trkpt>
      <trkpt lat="45.66785" lon="5.58591">
        <ele>206.2</ele>
        <time>2022-09-25T12:28:37Z</time>
      </trkpt>
      <trkpt lat="45.66782" lon="5.58598">
        <ele>206.2</ele>
        <time>2022-09-25T12:28:38Z</time>
      </trkpt>
      <trkpt lat="45.66779" lon="5.58605">
        <ele>206.2</ele>
        <time>2022-09-25T12:28:39Z</time>
      </trkpt>
      <trkpt lat="45.66776" lon="5.58613">
        <ele>206.2</ele>
        <time>2022-09-25T12:28:40Z</time>
      </trkpt>
      <trkpt lat="45.66772" lon="5.58621">
        <ele>206.2</ele>
        <time>2022-09-25T12:28:41Z</time>
      </trkpt>
      <trkpt lat="45.66769" lon="5.58627">
        <ele>206.2</ele>
        <time>2022-09-25T12:28:42Z</time>
      </trkpt>
      <trkpt lat="45.66762" lon="5.58642">
        <ele>206.2</ele>
        <time>2022-09-25T12:28:43Z</time>
      </trkpt>
      <trkpt lat="45.66758" lon="5.58649">
        <ele>206.2</ele>
        <time>2022-09-25T12:28:44Z</time>
      </trkpt>
      <trkpt lat="45.66754" lon="5.58656">
        <ele>206.1</ele>
        <time>2022-09-25T12:28:45Z</time>
      </trkpt>
      <trkpt lat="45.6675" lon="5.58662">
        <ele>206.1</ele>
        <time>2022-09-25T12:28:46Z</time>
      </trkpt>
      <trkpt lat="45.66747" lon="5.58669">
        <ele>206.1</ele>
        <time>2022-09-25T12:28:47Z</time>
      </trkpt>
      <trkpt lat="45.66743" lon="5.58676">
        <ele>206.1</ele>
        <time>2022-09-25T12:28:48Z</time>
      </trkpt>
      <trkpt lat="45.66738" lon="5.58683">
        <ele>206</ele>
        <time>2022-09-25T12:28:49Z</time>
      </trkpt>
      <trkpt lat="45.66734" lon="5.5869">
        <ele>206</ele>
        <time>2022-09-25T12:28:50Z</time>
      </trkpt>
      <trkpt lat="45.6673" lon="5.58696">
        <ele>206</ele>
        <time>2022-09-25T12:28:51Z</time>
      </trkpt>
      <trkpt lat="45.66726" lon="5.58703">
        <ele>206</ele>
        <time>2022-09-25T12:28:52Z</time>
      </trkpt>
      <trkpt lat="45.66721" lon="5.58708">
        <ele>206</ele>
        <time>2022-09-25T12:28:53Z</time>
      </trkpt>
      <trkpt lat="45.66717" lon="5.58715">
        <ele>206</ele>
        <time>2022-09-25T12:28:54Z</time>
      </trkpt>
      <trkpt lat="45.66712" lon="5.58721">
        <ele>205.9</ele>
        <time>2022-09-25T12:28:55Z</time>
      </trkpt>
      <trkpt lat="45.66708" lon="5.58727">
        <ele>205.9</ele>
        <time>2022-09-25T12:28:56Z</time>
      </trkpt>
      <trkpt lat="45.66703" lon="5.58732">
        <ele>205.9</ele>
        <time>2022-09-25T12:28:57Z</time>
      </trkpt>
      <trkpt lat="45.66698" lon="5.58738">
        <ele>205.9</ele>
        <time>2022-09-25T12:28:58Z</time>
      </trkpt>
      <trkpt lat="45.66694" lon="5.58745">
        <ele>205.9</ele>
        <time>2022-09-25T12:28:59Z</time>
      </trkpt>
      <trkpt lat="45.66689" lon="5.58751">
        <ele>205.9</ele>
        <time>2022-09-25T12:29:00Z</time>
      </trkpt>
      <trkpt lat="45.66685" lon="5.58757">
        <ele>205.9</ele>
        <time>2022-09-25T12:29:01Z</time>
      </trkpt>
      <trkpt lat="45.66681" lon="5.58762">
        <ele>205.9</ele>
        <time>2022-09-25T12:29:02Z</time>
      </trkpt>
      <trkpt lat="45.66676" lon="5.58767">
        <ele>205.9</ele>
        <time>2022-09-25T12:29:03Z</time>
      </trkpt>
      <trkpt lat="45.66672" lon="5.58773">
        <ele>205.9</ele>
        <time>2022-09-25T12:29:04Z</time>
      </trkpt>
      <trkpt lat="45.66668" lon="5.58779">
        <ele>205.9</ele>
        <time>2022-09-25T12:29:05Z</time>
      </trkpt>
      <trkpt lat="45.66663" lon="5.58784">
        <ele>205.8</ele>
        <time>2022-09-25T12:29:06Z</time>
      </trkpt>
      <trkpt lat="45.66659" lon="5.5879">
        <ele>205.8</ele>
        <time>2022-09-25T12:29:07Z</time>
      </trkpt>
      <trkpt lat="45.66654" lon="5.58795">
        <ele>205.8</ele>
        <time>2022-09-25T12:29:08Z</time>
      </trkpt>
      <trkpt lat="45.6665" lon="5.58801">
        <ele>205.8</ele>
        <time>2022-09-25T12:29:09Z</time>
      </trkpt>
      <trkpt lat="45.66645" lon="5.58806">
        <ele>205.8</ele>
        <time>2022-09-25T12:29:10Z</time>
      </trkpt>
      <trkpt lat="45.6664" lon="5.58812">
        <ele>205.8</ele>
        <time>2022-09-25T12:29:11Z</time>
      </trkpt>
      <trkpt lat="45.66635" lon="5.58816">
        <ele>205.8</ele>
        <time>2022-09-25T12:29:12Z</time>
      </trkpt>
      <trkpt lat="45.66631" lon="5.58822">
        <ele>205.8</ele>
        <time>2022-09-25T12:29:13Z</time>
      </trkpt>
      <trkpt lat="45.66627" lon="5.58828">
        <ele>205.8</ele>
        <time>2022-09-25T12:29:14Z</time>
      </trkpt>
      <trkpt lat="45.66622" lon="5.58832">
        <ele>205.8</ele>
        <time>2022-09-25T12:29:15Z</time>
      </trkpt>
      <trkpt lat="45.66617" lon="5.58838">
        <ele>205.8</ele>
        <time>2022-09-25T12:29:16Z</time>
      </trkpt>
      <trkpt lat="45.66613" lon="5.58842">
        <ele>205.8</ele>
        <time>2022-09-25T12:29:17Z</time>
      </trkpt>
      <trkpt lat="45.66608" lon="5.58847">
        <ele>205.8</ele>
        <time>2022-09-25T12:29:18Z</time>
      </trkpt>
      <trkpt lat="45.66603" lon="5.58852">
        <ele>205.8</ele>
        <time>2022-09-25T12:29:19Z</time>
      </trkpt>
      <trkpt lat="45.66599" lon="5.58858">
        <ele>205.8</ele>
        <time>2022-09-25T12:29:20Z</time>
      </trkpt>
      <trkpt lat="45.66594" lon="5.58862">
        <ele>205.8</ele>
        <time>2022-09-25T12:29:21Z</time>
      </trkpt>
      <trkpt lat="45.66589" lon="5.58867">
        <ele>205.8</ele>
        <time>2022-09-25T12:29:22Z</time>
      </trkpt>
      <trkpt lat="45.66584" lon="5.58872">
        <ele>205.9</ele>
        <time>2022-09-25T12:29:23Z</time>
      </trkpt>
      <trkpt lat="45.66579" lon="5.58877">
        <ele>205.9</ele>
        <time>2022-09-25T12:29:24Z</time>
      </trkpt>
      <trkpt lat="45.66575" lon="5.58882">
        <ele>205.9</ele>
        <time>2022-09-25T12:29:25Z</time>
      </trkpt>
      <trkpt lat="45.6657" lon="5.58886">
        <ele>205.9</ele>
        <time>2022-09-25T12:29:26Z</time>
      </trkpt>
      <trkpt lat="45.66565" lon="5.58891">
        <ele>205.9</ele>
        <time>2022-09-25T12:29:27Z</time>
      </trkpt>
      <trkpt lat="45.6656" lon="5.58896">
        <ele>205.9</ele>
        <time>2022-09-25T12:29:28Z</time>
      </trkpt>
      <trkpt lat="45.66555" lon="5.589">
        <ele>205.9</ele>
        <time>2022-09-25T12:29:29Z</time>
      </trkpt>
      <trkpt lat="45.6655" lon="5.58905">
        <ele>205.9</ele>
        <time>2022-09-25T12:29:30Z</time>
      </trkpt>
      <trkpt lat="45.66545" lon="5.58909">
        <ele>205.9</ele>
        <time>2022-09-25T12:29:31Z</time>
      </trkpt>
      <trkpt lat="45.6654" lon="5.58914">
        <ele>205.9</ele>
        <time>2022-09-25T12:29:32Z</time>
      </trkpt>
      <trkpt lat="45.66535" lon="5.58918">
        <ele>205.9</ele>
        <time>2022-09-25T12:29:33Z</time>
      </trkpt>
      <trkpt lat="45.6653" lon="5.58923">
        <ele>205.9</ele>
        <time>2022-09-25T12:29:34Z</time>
      </trkpt>
      <trkpt lat="45.66525" lon="5.58927">
        <ele>205.9</ele>
        <time>2022-09-25T12:29:35Z</time>
      </trkpt>
      <trkpt lat="45.66519" lon="5.58931">
        <ele>205.9</ele>
        <time>2022-09-25T12:29:36Z</time>
      </trkpt>
      <trkpt lat="45.66515" lon="5.58935">
        <ele>206</ele>
        <time>2022-09-25T12:29:37Z</time>
      </trkpt>
      <trkpt lat="45.66509" lon="5.58939">
        <ele>206</ele>
        <time>2022-09-25T12:29:38Z</time>
      </trkpt>
      <trkpt lat="45.66504" lon="5.58943">
        <ele>206</ele>
        <time>2022-09-25T12:29:39Z</time>
      </trkpt>
      <trkpt lat="45.66499" lon="5.58947">
        <ele>206</ele>
        <time>2022-09-25T12:29:40Z</time>
      </trkpt>
      <trkpt lat="45.66494" lon="5.58951">
        <ele>206</ele>
        <time>2022-09-25T12:29:41Z</time>
      </trkpt>
      <trkpt lat="45.66489" lon="5.58956">
        <ele>206.1</ele>
        <time>2022-09-25T12:29:42Z</time>
      </trkpt>
      <trkpt lat="45.66484" lon="5.58959">
        <ele>206.1</ele>
        <time>2022-09-25T12:29:43Z</time>
      </trkpt>
      <trkpt lat="45.66479" lon="5.58963">
        <ele>206.1</ele>
        <time>2022-09-25T12:29:44Z</time>
      </trkpt>
      <trkpt lat="45.66473" lon="5.58966">
        <ele>206.1</ele>
        <time>2022-09-25T12:29:45Z</time>
      </trkpt>
      <trkpt lat="45.66468" lon="5.5897">
        <ele>206.1</ele>
        <time>2022-09-25T12:29:46Z</time>
      </trkpt>
      <trkpt lat="45.66462" lon="5.58973">
        <ele>206.1</ele>
        <time>2022-09-25T12:29:47Z</time>
      </trkpt>
      <trkpt lat="45.66457" lon="5.58976">
        <ele>206.1</ele>
        <time>2022-09-25T12:29:48Z</time>
      </trkpt>
      <trkpt lat="45.66452" lon="5.5898">
        <ele>206.1</ele>
        <time>2022-09-25T12:29:49Z</time>
      </trkpt>
      <trkpt lat="45.66447" lon="5.58983">
        <ele>206.2</ele>
        <time>2022-09-25T12:29:50Z</time>
      </trkpt>
      <trkpt lat="45.66441" lon="5.58986">
        <ele>206.2</ele>
        <time>2022-09-25T12:29:51Z</time>
      </trkpt>
      <trkpt lat="45.66436" lon="5.5899">
        <ele>206.2</ele>
        <time>2022-09-25T12:29:52Z</time>
      </trkpt>
      <trkpt lat="45.66431" lon="5.58993">
        <ele>206.2</ele>
        <time>2022-09-25T12:29:53Z</time>
      </trkpt>
      <trkpt lat="45.66425" lon="5.58996">
        <ele>206.2</ele>
        <time>2022-09-25T12:29:54Z</time>
      </trkpt>
      <trkpt lat="45.66421" lon="5.58999">
        <ele>206.2</ele>
        <time>2022-09-25T12:29:55Z</time>
      </trkpt>
      <trkpt lat="45.66415" lon="5.59002">
        <ele>206.2</ele>
        <time>2022-09-25T12:29:56Z</time>
      </trkpt>
      <trkpt lat="45.66409" lon="5.59005">
        <ele>206.2</ele>
        <time>2022-09-25T12:29:57Z</time>
      </trkpt>
      <trkpt lat="45.66403" lon="5.59009">
        <ele>206.2</ele>
        <time>2022-09-25T12:29:58Z</time>
      </trkpt>
      <trkpt lat="45.66398" lon="5.59012">
        <ele>206.2</ele>
        <time>2022-09-25T12:29:59Z</time>
      </trkpt>
      <trkpt lat="45.66393" lon="5.59015">
        <ele>206.2</ele>
        <time>2022-09-25T12:30:00Z</time>
      </trkpt>
      <trkpt lat="45.66388" lon="5.59018">
        <ele>206.2</ele>
        <time>2022-09-25T12:30:01Z</time>
      </trkpt>
      <trkpt lat="45.66382" lon="5.59021">
        <ele>206.2</ele>
        <time>2022-09-25T12:30:02Z</time>
      </trkpt>
      <trkpt lat="45.66377" lon="5.59024">
        <ele>206.2</ele>
        <time>2022-09-25T12:30:03Z</time>
      </trkpt>
      <trkpt lat="45.66371" lon="5.59027">
        <ele>206.2</ele>
        <time>2022-09-25T12:30:04Z</time>
      </trkpt>
      <trkpt lat="45.66365" lon="5.5903">
        <ele>206.3</ele>
        <time>2022-09-25T12:30:05Z</time>
      </trkpt>
      <trkpt lat="45.6636" lon="5.59033">
        <ele>206.3</ele>
        <time>2022-09-25T12:30:06Z</time>
      </trkpt>
      <trkpt lat="45.66355" lon="5.59037">
        <ele>206.3</ele>
        <time>2022-09-25T12:30:07Z</time>
      </trkpt>
      <trkpt lat="45.66349" lon="5.5904">
        <ele>206.3</ele>
        <time>2022-09-25T12:30:08Z</time>
      </trkpt>
      <trkpt lat="45.66344" lon="5.59043">
        <ele>206.3</ele>
        <time>2022-09-25T12:30:09Z</time>
      </trkpt>
      <trkpt lat="45.66337" lon="5.59048">
        <ele>206.3</ele>
        <time>2022-09-25T12:30:10Z</time>
      </trkpt>
      <trkpt lat="45.66333" lon="5.59051">
        <ele>206.3</ele>
        <time>2022-09-25T12:30:11Z</time>
      </trkpt>
      <trkpt lat="45.66328" lon="5.59056">
        <ele>206.3</ele>
        <time>2022-09-25T12:30:12Z</time>
      </trkpt>
      <trkpt lat="45.66323" lon="5.59061">
        <ele>206.2</ele>
        <time>2022-09-25T12:30:13Z</time>
      </trkpt>
      <trkpt lat="45.66318" lon="5.59065">
        <ele>206.2</ele>
        <time>2022-09-25T12:30:14Z</time>
      </trkpt>
      <trkpt lat="45.66312" lon="5.59069">
        <ele>206.2</ele>
        <time>2022-09-25T12:30:15Z</time>
      </trkpt>
      <trkpt lat="45.66307" lon="5.59072">
        <ele>206.2</ele>
        <time>2022-09-25T12:30:16Z</time>
      </trkpt>
      <trkpt lat="45.66302" lon="5.59077">
        <ele>206.2</ele>
        <time>2022-09-25T12:30:17Z</time>
      </trkpt>
      <trkpt lat="45.66296" lon="5.59081">
        <ele>206.2</ele>
        <time>2022-09-25T12:30:18Z</time>
      </trkpt>
      <trkpt lat="45.66291" lon="5.59085">
        <ele>206.2</ele>
        <time>2022-09-25T12:30:20Z</time>
      </trkpt>
      <trkpt lat="45.66286" lon="5.59091">
        <ele>206.2</ele>
        <time>2022-09-25T12:30:21Z</time>
      </trkpt>
      <trkpt lat="45.66282" lon="5.59095">
        <ele>206.2</ele>
        <time>2022-09-25T12:30:22Z</time>
      </trkpt>
      <trkpt lat="45.66276" lon="5.591">
        <ele>206.2</ele>
        <time>2022-09-25T12:30:23Z</time>
      </trkpt>
      <trkpt lat="45.66272" lon="5.59104">
        <ele>206.3</ele>
        <time>2022-09-25T12:30:24Z</time>
      </trkpt>
      <trkpt lat="45.66266" lon="5.59109">
        <ele>206.3</ele>
        <time>2022-09-25T12:30:25Z</time>
      </trkpt>
      <trkpt lat="45.66262" lon="5.59113">
        <ele>206.3</ele>
        <time>2022-09-25T12:30:26Z</time>
      </trkpt>
      <trkpt lat="45.66257" lon="5.59118">
        <ele>206.3</ele>
        <time>2022-09-25T12:30:27Z</time>
      </trkpt>
      <trkpt lat="45.66253" lon="5.59123">
        <ele>206.3</ele>
        <time>2022-09-25T12:30:28Z</time>
      </trkpt>
      <trkpt lat="45.66248" lon="5.59128">
        <ele>206.3</ele>
        <time>2022-09-25T12:30:29Z</time>
      </trkpt>
      <trkpt lat="45.66244" lon="5.59133">
        <ele>206.3</ele>
        <time>2022-09-25T12:30:30Z</time>
      </trkpt>
      <trkpt lat="45.66239" lon="5.59139">
        <ele>206.3</ele>
        <time>2022-09-25T12:30:31Z</time>
      </trkpt>
      <trkpt lat="45.66234" lon="5.59142">
        <ele>206.3</ele>
        <time>2022-09-25T12:30:32Z</time>
      </trkpt>
      <trkpt lat="45.66229" lon="5.59149">
        <ele>206.3</ele>
        <time>2022-09-25T12:30:33Z</time>
      </trkpt>
      <trkpt lat="45.66225" lon="5.59154">
        <ele>206.3</ele>
        <time>2022-09-25T12:30:34Z</time>
      </trkpt>
      <trkpt lat="45.6622" lon="5.5916">
        <ele>206.3</ele>
        <time>2022-09-25T12:30:35Z</time>
      </trkpt>
      <trkpt lat="45.66215" lon="5.59165">
        <ele>206.3</ele>
        <time>2022-09-25T12:30:36Z</time>
      </trkpt>
      <trkpt lat="45.66211" lon="5.5917">
        <ele>206.3</ele>
        <time>2022-09-25T12:30:37Z</time>
      </trkpt>
      <trkpt lat="45.66207" lon="5.59177">
        <ele>206.3</ele>
        <time>2022-09-25T12:30:38Z</time>
      </trkpt>
      <trkpt lat="45.66202" lon="5.59182">
        <ele>206.3</ele>
        <time>2022-09-25T12:30:39Z</time>
      </trkpt>
      <trkpt lat="45.66197" lon="5.59188">
        <ele>206.3</ele>
        <time>2022-09-25T12:30:40Z</time>
      </trkpt>
      <trkpt lat="45.66193" lon="5.59193">
        <ele>206.3</ele>
        <time>2022-09-25T12:30:41Z</time>
      </trkpt>
      <trkpt lat="45.66189" lon="5.592">
        <ele>206.3</ele>
        <time>2022-09-25T12:30:42Z</time>
      </trkpt>
      <trkpt lat="45.66183" lon="5.59206">
        <ele>206.3</ele>
        <time>2022-09-25T12:30:43Z</time>
      </trkpt>
      <trkpt lat="45.66179" lon="5.59212">
        <ele>206.3</ele>
        <time>2022-09-25T12:30:44Z</time>
      </trkpt>
      <trkpt lat="45.66175" lon="5.59218">
        <ele>206.3</ele>
        <time>2022-09-25T12:30:45Z</time>
      </trkpt>
      <trkpt lat="45.66171" lon="5.59224">
        <ele>206.3</ele>
        <time>2022-09-25T12:30:46Z</time>
      </trkpt>
      <trkpt lat="45.66167" lon="5.5923">
        <ele>206.3</ele>
        <time>2022-09-25T12:30:47Z</time>
      </trkpt>
      <trkpt lat="45.66163" lon="5.59236">
        <ele>206.3</ele>
        <time>2022-09-25T12:30:48Z</time>
      </trkpt>
      <trkpt lat="45.66159" lon="5.59242">
        <ele>206.4</ele>
        <time>2022-09-25T12:30:49Z</time>
      </trkpt>
      <trkpt lat="45.66154" lon="5.5925">
        <ele>206.4</ele>
        <time>2022-09-25T12:30:50Z</time>
      </trkpt>
      <trkpt lat="45.6615" lon="5.59253">
        <ele>206.4</ele>
        <time>2022-09-25T12:30:51Z</time>
      </trkpt>
      <trkpt lat="45.66147" lon="5.59261">
        <ele>206.3</ele>
        <time>2022-09-25T12:30:52Z</time>
      </trkpt>
      <trkpt lat="45.66143" lon="5.59268">
        <ele>206.3</ele>
        <time>2022-09-25T12:30:53Z</time>
      </trkpt>
      <trkpt lat="45.66139" lon="5.59274">
        <ele>206.3</ele>
        <time>2022-09-25T12:30:54Z</time>
      </trkpt>
      <trkpt lat="45.66135" lon="5.59281">
        <ele>206.3</ele>
        <time>2022-09-25T12:30:55Z</time>
      </trkpt>
      <trkpt lat="45.66132" lon="5.59288">
        <ele>206.3</ele>
        <time>2022-09-25T12:30:56Z</time>
      </trkpt>
      <trkpt lat="45.66128" lon="5.59297">
        <ele>206.4</ele>
        <time>2022-09-25T12:30:57Z</time>
      </trkpt>
      <trkpt lat="45.66125" lon="5.59303">
        <ele>206.4</ele>
        <time>2022-09-25T12:30:58Z</time>
      </trkpt>
      <trkpt lat="45.66121" lon="5.5931">
        <ele>206.4</ele>
        <time>2022-09-25T12:30:59Z</time>
      </trkpt>
      <trkpt lat="45.66118" lon="5.59317">
        <ele>206.4</ele>
        <time>2022-09-25T12:31:00Z</time>
      </trkpt>
      <trkpt lat="45.66115" lon="5.59324">
        <ele>206.4</ele>
        <time>2022-09-25T12:31:01Z</time>
      </trkpt>
      <trkpt lat="45.66112" lon="5.59331">
        <ele>206.4</ele>
        <time>2022-09-25T12:31:02Z</time>
      </trkpt>
      <trkpt lat="45.66109" lon="5.59338">
        <ele>206.4</ele>
        <time>2022-09-25T12:31:03Z</time>
      </trkpt>
      <trkpt lat="45.66106" lon="5.59346">
        <ele>206.4</ele>
        <time>2022-09-25T12:31:04Z</time>
      </trkpt>
      <trkpt lat="45.66102" lon="5.59352">
        <ele>206.4</ele>
        <time>2022-09-25T12:31:05Z</time>
      </trkpt>
      <trkpt lat="45.66099" lon="5.5936">
        <ele>206.4</ele>
        <time>2022-09-25T12:31:06Z</time>
      </trkpt>
      <trkpt lat="45.66096" lon="5.59366">
        <ele>206.4</ele>
        <time>2022-09-25T12:31:07Z</time>
      </trkpt>
      <trkpt lat="45.66093" lon="5.59375">
        <ele>206.4</ele>
        <time>2022-09-25T12:31:08Z</time>
      </trkpt>
      <trkpt lat="45.6609" lon="5.59382">
        <ele>206.4</ele>
        <time>2022-09-25T12:31:09Z</time>
      </trkpt>
      <trkpt lat="45.66087" lon="5.5939">
        <ele>206.4</ele>
        <time>2022-09-25T12:31:10Z</time>
      </trkpt>
      <trkpt lat="45.66083" lon="5.59398">
        <ele>206.3</ele>
        <time>2022-09-25T12:31:11Z</time>
      </trkpt>
      <trkpt lat="45.66081" lon="5.59405">
        <ele>206.3</ele>
        <time>2022-09-25T12:31:12Z</time>
      </trkpt>
      <trkpt lat="45.66078" lon="5.59413">
        <ele>206.3</ele>
        <time>2022-09-25T12:31:13Z</time>
      </trkpt>
      <trkpt lat="45.66076" lon="5.59421">
        <ele>206.3</ele>
        <time>2022-09-25T12:31:14Z</time>
      </trkpt>
      <trkpt lat="45.66073" lon="5.59428">
        <ele>206.3</ele>
        <time>2022-09-25T12:31:15Z</time>
      </trkpt>
      <trkpt lat="45.6607" lon="5.59436">
        <ele>206.3</ele>
        <time>2022-09-25T12:31:16Z</time>
      </trkpt>
      <trkpt lat="45.66068" lon="5.59443">
        <ele>206.3</ele>
        <time>2022-09-25T12:31:17Z</time>
      </trkpt>
      <trkpt lat="45.66066" lon="5.59451">
        <ele>206.3</ele>
        <time>2022-09-25T12:31:18Z</time>
      </trkpt>
      <trkpt lat="45.66064" lon="5.5946">
        <ele>206.3</ele>
        <time>2022-09-25T12:31:19Z</time>
      </trkpt>
      <trkpt lat="45.66061" lon="5.59467">
        <ele>206.3</ele>
        <time>2022-09-25T12:31:20Z</time>
      </trkpt>
      <trkpt lat="45.66059" lon="5.59476">
        <ele>206.3</ele>
        <time>2022-09-25T12:31:21Z</time>
      </trkpt>
      <trkpt lat="45.66057" lon="5.59483">
        <ele>206.3</ele>
        <time>2022-09-25T12:31:22Z</time>
      </trkpt>
      <trkpt lat="45.66053" lon="5.59499">
        <ele>206.4</ele>
        <time>2022-09-25T12:31:23Z</time>
      </trkpt>
      <trkpt lat="45.66051" lon="5.59506">
        <ele>206.4</ele>
        <time>2022-09-25T12:31:24Z</time>
      </trkpt>
      <trkpt lat="45.66049" lon="5.59515">
        <ele>206.4</ele>
        <time>2022-09-25T12:31:25Z</time>
      </trkpt>
      <trkpt lat="45.66047" lon="5.59523">
        <ele>206.4</ele>
        <time>2022-09-25T12:31:26Z</time>
      </trkpt>
      <trkpt lat="45.66045" lon="5.59531">
        <ele>206.4</ele>
        <time>2022-09-25T12:31:27Z</time>
      </trkpt>
      <trkpt lat="45.66043" lon="5.59538">
        <ele>206.4</ele>
        <time>2022-09-25T12:31:28Z</time>
      </trkpt>
      <trkpt lat="45.66042" lon="5.59546">
        <ele>206.4</ele>
        <time>2022-09-25T12:31:29Z</time>
      </trkpt>
      <trkpt lat="45.6604" lon="5.59554">
        <ele>206.4</ele>
        <time>2022-09-25T12:31:30Z</time>
      </trkpt>
      <trkpt lat="45.66038" lon="5.59562">
        <ele>206.4</ele>
        <time>2022-09-25T12:31:31Z</time>
      </trkpt>
      <trkpt lat="45.66037" lon="5.5957">
        <ele>206.4</ele>
        <time>2022-09-25T12:31:32Z</time>
      </trkpt>
      <trkpt lat="45.66035" lon="5.59579">
        <ele>206.4</ele>
        <time>2022-09-25T12:31:33Z</time>
      </trkpt>
      <trkpt lat="45.66033" lon="5.59587">
        <ele>206.4</ele>
        <time>2022-09-25T12:31:34Z</time>
      </trkpt>
      <trkpt lat="45.66033" lon="5.59595">
        <ele>206.4</ele>
        <time>2022-09-25T12:31:35Z</time>
      </trkpt>
      <trkpt lat="45.66031" lon="5.59603">
        <ele>206.4</ele>
        <time>2022-09-25T12:31:36Z</time>
      </trkpt>
      <trkpt lat="45.6603" lon="5.59611">
        <ele>206.4</ele>
        <time>2022-09-25T12:31:37Z</time>
      </trkpt>
      <trkpt lat="45.66029" lon="5.59619">
        <ele>206.4</ele>
        <time>2022-09-25T12:31:38Z</time>
      </trkpt>
      <trkpt lat="45.66028" lon="5.59627">
        <ele>206.4</ele>
        <time>2022-09-25T12:31:39Z</time>
      </trkpt>
      <trkpt lat="45.66026" lon="5.59636">
        <ele>206.5</ele>
        <time>2022-09-25T12:31:40Z</time>
      </trkpt>
      <trkpt lat="45.66025" lon="5.59644">
        <ele>206.5</ele>
        <time>2022-09-25T12:31:41Z</time>
      </trkpt>
      <trkpt lat="45.66023" lon="5.59653">
        <ele>206.5</ele>
        <time>2022-09-25T12:31:42Z</time>
      </trkpt>
      <trkpt lat="45.66022" lon="5.59661">
        <ele>206.5</ele>
        <time>2022-09-25T12:31:43Z</time>
      </trkpt>
      <trkpt lat="45.66021" lon="5.59669">
        <ele>206.5</ele>
        <time>2022-09-25T12:31:44Z</time>
      </trkpt>
      <trkpt lat="45.6602" lon="5.59677">
        <ele>206.5</ele>
        <time>2022-09-25T12:31:45Z</time>
      </trkpt>
      <trkpt lat="45.66019" lon="5.59685">
        <ele>206.5</ele>
        <time>2022-09-25T12:31:46Z</time>
      </trkpt>
      <trkpt lat="45.66018" lon="5.59694">
        <ele>206.5</ele>
        <time>2022-09-25T12:31:47Z</time>
      </trkpt>
      <trkpt lat="45.66016" lon="5.59702">
        <ele>206.5</ele>
        <time>2022-09-25T12:31:48Z</time>
      </trkpt>
      <trkpt lat="45.66015" lon="5.59709">
        <ele>206.5</ele>
        <time>2022-09-25T12:31:49Z</time>
      </trkpt>
      <trkpt lat="45.66013" lon="5.59718">
        <ele>206.5</ele>
        <time>2022-09-25T12:31:50Z</time>
      </trkpt>
      <trkpt lat="45.66012" lon="5.59726">
        <ele>206.5</ele>
        <time>2022-09-25T12:31:51Z</time>
      </trkpt>
      <trkpt lat="45.6601" lon="5.59734">
        <ele>206.5</ele>
        <time>2022-09-25T12:31:52Z</time>
      </trkpt>
      <trkpt lat="45.66009" lon="5.59742">
        <ele>206.5</ele>
        <time>2022-09-25T12:31:53Z</time>
      </trkpt>
      <trkpt lat="45.66007" lon="5.5975">
        <ele>206.5</ele>
        <time>2022-09-25T12:31:54Z</time>
      </trkpt>
      <trkpt lat="45.66005" lon="5.59758">
        <ele>206.5</ele>
        <time>2022-09-25T12:31:55Z</time>
      </trkpt>
      <trkpt lat="45.66003" lon="5.59766">
        <ele>206.5</ele>
        <time>2022-09-25T12:31:56Z</time>
      </trkpt>
      <trkpt lat="45.66001" lon="5.59773">
        <ele>206.5</ele>
        <time>2022-09-25T12:31:57Z</time>
      </trkpt>
      <trkpt lat="45.65999" lon="5.59781">
        <ele>206.5</ele>
        <time>2022-09-25T12:31:58Z</time>
      </trkpt>
      <trkpt lat="45.65997" lon="5.5979">
        <ele>206.5</ele>
        <time>2022-09-25T12:31:59Z</time>
      </trkpt>
      <trkpt lat="45.65995" lon="5.59796">
        <ele>206.5</ele>
        <time>2022-09-25T12:32:00Z</time>
      </trkpt>
      <trkpt lat="45.65994" lon="5.59804">
        <ele>206.5</ele>
        <time>2022-09-25T12:32:01Z</time>
      </trkpt>
      <trkpt lat="45.65991" lon="5.59812">
        <ele>206.5</ele>
        <time>2022-09-25T12:32:02Z</time>
      </trkpt>
      <trkpt lat="45.6599" lon="5.5982">
        <ele>206.6</ele>
        <time>2022-09-25T12:32:03Z</time>
      </trkpt>
      <trkpt lat="45.65988" lon="5.59828">
        <ele>206.6</ele>
        <time>2022-09-25T12:32:04Z</time>
      </trkpt>
      <trkpt lat="45.65985" lon="5.59835">
        <ele>206.6</ele>
        <time>2022-09-25T12:32:05Z</time>
      </trkpt>
      <trkpt lat="45.65983" lon="5.59843">
        <ele>206.6</ele>
        <time>2022-09-25T12:32:06Z</time>
      </trkpt>
      <trkpt lat="45.65981" lon="5.5985">
        <ele>206.6</ele>
        <time>2022-09-25T12:32:07Z</time>
      </trkpt>
      <trkpt lat="45.65979" lon="5.59858">
        <ele>206.6</ele>
        <time>2022-09-25T12:32:08Z</time>
      </trkpt>
      <trkpt lat="45.65977" lon="5.59865">
        <ele>206.6</ele>
        <time>2022-09-25T12:32:09Z</time>
      </trkpt>
      <trkpt lat="45.65975" lon="5.59873">
        <ele>206.6</ele>
        <time>2022-09-25T12:32:10Z</time>
      </trkpt>
      <trkpt lat="45.65973" lon="5.5988">
        <ele>206.6</ele>
        <time>2022-09-25T12:32:11Z</time>
      </trkpt>
      <trkpt lat="45.65971" lon="5.59887">
        <ele>206.6</ele>
        <time>2022-09-25T12:32:12Z</time>
      </trkpt>
      <trkpt lat="45.65968" lon="5.59894">
        <ele>206.6</ele>
        <time>2022-09-25T12:32:13Z</time>
      </trkpt>
      <trkpt lat="45.65966" lon="5.59901">
        <ele>206.6</ele>
        <time>2022-09-25T12:32:14Z</time>
      </trkpt>
      <trkpt lat="45.65964" lon="5.59908">
        <ele>206.6</ele>
        <time>2022-09-25T12:32:15Z</time>
      </trkpt>
      <trkpt lat="45.65961" lon="5.59916">
        <ele>206.6</ele>
        <time>2022-09-25T12:32:16Z</time>
      </trkpt>
      <trkpt lat="45.65958" lon="5.59921">
        <ele>206.6</ele>
        <time>2022-09-25T12:32:17Z</time>
      </trkpt>
      <trkpt lat="45.65956" lon="5.59929">
        <ele>206.6</ele>
        <time>2022-09-25T12:32:18Z</time>
      </trkpt>
      <trkpt lat="45.65954" lon="5.59935">
        <ele>206.7</ele>
        <time>2022-09-25T12:32:19Z</time>
      </trkpt>
      <trkpt lat="45.65951" lon="5.59942">
        <ele>206.7</ele>
        <time>2022-09-25T12:32:20Z</time>
      </trkpt>
      <trkpt lat="45.65948" lon="5.59948">
        <ele>206.6</ele>
        <time>2022-09-25T12:32:21Z</time>
      </trkpt>
      <trkpt lat="45.65946" lon="5.59955">
        <ele>206.6</ele>
        <time>2022-09-25T12:32:22Z</time>
      </trkpt>
      <trkpt lat="45.65943" lon="5.59962">
        <ele>206.6</ele>
        <time>2022-09-25T12:32:23Z</time>
      </trkpt>
      <trkpt lat="45.6594" lon="5.59969">
        <ele>206.6</ele>
        <time>2022-09-25T12:32:25Z</time>
      </trkpt>
      <trkpt lat="45.65937" lon="5.59976">
        <ele>206.6</ele>
        <time>2022-09-25T12:32:26Z</time>
      </trkpt>
      <trkpt lat="45.65935" lon="5.59982">
        <ele>206.6</ele>
        <time>2022-09-25T12:32:27Z</time>
      </trkpt>
      <trkpt lat="45.65932" lon="5.59989">
        <ele>206.6</ele>
        <time>2022-09-25T12:32:28Z</time>
      </trkpt>
      <trkpt lat="45.65929" lon="5.59996">
        <ele>206.6</ele>
        <time>2022-09-25T12:32:29Z</time>
      </trkpt>
      <trkpt lat="45.65926" lon="5.60002">
        <ele>206.6</ele>
        <time>2022-09-25T12:32:30Z</time>
      </trkpt>
      <trkpt lat="45.65923" lon="5.60009">
        <ele>206.6</ele>
        <time>2022-09-25T12:32:31Z</time>
      </trkpt>
      <trkpt lat="45.6592" lon="5.60016">
        <ele>206.6</ele>
        <time>2022-09-25T12:32:32Z</time>
      </trkpt>
      <trkpt lat="45.65917" lon="5.60023">
        <ele>206.5</ele>
        <time>2022-09-25T12:32:33Z</time>
      </trkpt>
      <trkpt lat="45.65914" lon="5.60029">
        <ele>206.5</ele>
        <time>2022-09-25T12:32:34Z</time>
      </trkpt>
      <trkpt lat="45.6591" lon="5.60036">
        <ele>206.5</ele>
        <time>2022-09-25T12:32:35Z</time>
      </trkpt>
      <trkpt lat="45.65907" lon="5.60043">
        <ele>206.5</ele>
        <time>2022-09-25T12:32:36Z</time>
      </trkpt>
      <trkpt lat="45.65903" lon="5.6005">
        <ele>206.5</ele>
        <time>2022-09-25T12:32:37Z</time>
      </trkpt>
      <trkpt lat="45.659" lon="5.60056">
        <ele>206.5</ele>
        <time>2022-09-25T12:32:38Z</time>
      </trkpt>
      <trkpt lat="45.65897" lon="5.60063">
        <ele>206.5</ele>
        <time>2022-09-25T12:32:39Z</time>
      </trkpt>
      <trkpt lat="45.65893" lon="5.6007">
        <ele>206.5</ele>
        <time>2022-09-25T12:32:40Z</time>
      </trkpt>
      <trkpt lat="45.6589" lon="5.60076">
        <ele>206.6</ele>
        <time>2022-09-25T12:32:41Z</time>
      </trkpt>
      <trkpt lat="45.65886" lon="5.60083">
        <ele>206.6</ele>
        <time>2022-09-25T12:32:42Z</time>
      </trkpt>
      <trkpt lat="45.65882" lon="5.60089">
        <ele>206.6</ele>
        <time>2022-09-25T12:32:43Z</time>
      </trkpt>
      <trkpt lat="45.65878" lon="5.60095">
        <ele>206.6</ele>
        <time>2022-09-25T12:32:44Z</time>
      </trkpt>
      <trkpt lat="45.65875" lon="5.60101">
        <ele>206.6</ele>
        <time>2022-09-25T12:32:45Z</time>
      </trkpt>
      <trkpt lat="45.65871" lon="5.60107">
        <ele>206.6</ele>
        <time>2022-09-25T12:32:46Z</time>
      </trkpt>
      <trkpt lat="45.65867" lon="5.60113">
        <ele>206.6</ele>
        <time>2022-09-25T12:32:47Z</time>
      </trkpt>
      <trkpt lat="45.65863" lon="5.60119">
        <ele>206.6</ele>
        <time>2022-09-25T12:32:48Z</time>
      </trkpt>
      <trkpt lat="45.6586" lon="5.60126">
        <ele>206.7</ele>
        <time>2022-09-25T12:32:49Z</time>
      </trkpt>
      <trkpt lat="45.65855" lon="5.60132">
        <ele>206.7</ele>
        <time>2022-09-25T12:32:50Z</time>
      </trkpt>
      <trkpt lat="45.65851" lon="5.60138">
        <ele>206.7</ele>
        <time>2022-09-25T12:32:51Z</time>
      </trkpt>
      <trkpt lat="45.65848" lon="5.60144">
        <ele>206.7</ele>
        <time>2022-09-25T12:32:52Z</time>
      </trkpt>
      <trkpt lat="45.65844" lon="5.6015">
        <ele>206.7</ele>
        <time>2022-09-25T12:32:53Z</time>
      </trkpt>
      <trkpt lat="45.6584" lon="5.60155">
        <ele>206.8</ele>
        <time>2022-09-25T12:32:54Z</time>
      </trkpt>
      <trkpt lat="45.65836" lon="5.60161">
        <ele>206.8</ele>
        <time>2022-09-25T12:32:55Z</time>
      </trkpt>
      <trkpt lat="45.65831" lon="5.60167">
        <ele>206.8</ele>
        <time>2022-09-25T12:32:56Z</time>
      </trkpt>
      <trkpt lat="45.65827" lon="5.60173">
        <ele>206.8</ele>
        <time>2022-09-25T12:32:57Z</time>
      </trkpt>
      <trkpt lat="45.65823" lon="5.60178">
        <ele>206.8</ele>
        <time>2022-09-25T12:32:58Z</time>
      </trkpt>
      <trkpt lat="45.6582" lon="5.60184">
        <ele>206.8</ele>
        <time>2022-09-25T12:32:59Z</time>
      </trkpt>
      <trkpt lat="45.65816" lon="5.6019">
        <ele>206.8</ele>
        <time>2022-09-25T12:33:00Z</time>
      </trkpt>
      <trkpt lat="45.65811" lon="5.60195">
        <ele>206.8</ele>
        <time>2022-09-25T12:33:01Z</time>
      </trkpt>
      <trkpt lat="45.65808" lon="5.60201">
        <ele>206.8</ele>
        <time>2022-09-25T12:33:02Z</time>
      </trkpt>
      <trkpt lat="45.65803" lon="5.60206">
        <ele>206.8</ele>
        <time>2022-09-25T12:33:03Z</time>
      </trkpt>
      <trkpt lat="45.65799" lon="5.60211">
        <ele>206.8</ele>
        <time>2022-09-25T12:33:04Z</time>
      </trkpt>
      <trkpt lat="45.65794" lon="5.60217">
        <ele>206.8</ele>
        <time>2022-09-25T12:33:05Z</time>
      </trkpt>
      <trkpt lat="45.6579" lon="5.60222">
        <ele>206.8</ele>
        <time>2022-09-25T12:33:06Z</time>
      </trkpt>
      <trkpt lat="45.65786" lon="5.60228">
        <ele>206.8</ele>
        <time>2022-09-25T12:33:07Z</time>
      </trkpt>
      <trkpt lat="45.65782" lon="5.60233">
        <ele>206.8</ele>
        <time>2022-09-25T12:33:08Z</time>
      </trkpt>
      <trkpt lat="45.65778" lon="5.60239">
        <ele>206.9</ele>
        <time>2022-09-25T12:33:09Z</time>
      </trkpt>
      <trkpt lat="45.65772" lon="5.60244">
        <ele>206.9</ele>
        <time>2022-09-25T12:33:10Z</time>
      </trkpt>
      <trkpt lat="45.65768" lon="5.60248">
        <ele>206.9</ele>
        <time>2022-09-25T12:33:11Z</time>
      </trkpt>
      <trkpt lat="45.65764" lon="5.60253">
        <ele>206.9</ele>
        <time>2022-09-25T12:33:12Z</time>
      </trkpt>
      <trkpt lat="45.65759" lon="5.60257">
        <ele>206.9</ele>
        <time>2022-09-25T12:33:13Z</time>
      </trkpt>
      <trkpt lat="45.65755" lon="5.60263">
        <ele>206.9</ele>
        <time>2022-09-25T12:33:14Z</time>
      </trkpt>
      <trkpt lat="45.65751" lon="5.60267">
        <ele>206.9</ele>
        <time>2022-09-25T12:33:15Z</time>
      </trkpt>
      <trkpt lat="45.65746" lon="5.60272">
        <ele>206.9</ele>
        <time>2022-09-25T12:33:16Z</time>
      </trkpt>
      <trkpt lat="45.65742" lon="5.60277">
        <ele>206.9</ele>
        <time>2022-09-25T12:33:17Z</time>
      </trkpt>
      <trkpt lat="45.65737" lon="5.60282">
        <ele>206.9</ele>
        <time>2022-09-25T12:33:18Z</time>
      </trkpt>
      <trkpt lat="45.65732" lon="5.60287">
        <ele>206.9</ele>
        <time>2022-09-25T12:33:19Z</time>
      </trkpt>
      <trkpt lat="45.65728" lon="5.60291">
        <ele>206.9</ele>
        <time>2022-09-25T12:33:20Z</time>
      </trkpt>
      <trkpt lat="45.65723" lon="5.60296">
        <ele>206.9</ele>
        <time>2022-09-25T12:33:21Z</time>
      </trkpt>
      <trkpt lat="45.65719" lon="5.60301">
        <ele>207</ele>
        <time>2022-09-25T12:33:22Z</time>
      </trkpt>
      <trkpt lat="45.65714" lon="5.60306">
        <ele>207</ele>
        <time>2022-09-25T12:33:23Z</time>
      </trkpt>
      <trkpt lat="45.6571" lon="5.60311">
        <ele>207</ele>
        <time>2022-09-25T12:33:24Z</time>
      </trkpt>
      <trkpt lat="45.65705" lon="5.60317">
        <ele>207</ele>
        <time>2022-09-25T12:33:25Z</time>
      </trkpt>
      <trkpt lat="45.65701" lon="5.60323">
        <ele>207.1</ele>
        <time>2022-09-25T12:33:26Z</time>
      </trkpt>
      <trkpt lat="45.65697" lon="5.60328">
        <ele>207.1</ele>
        <time>2022-09-25T12:33:27Z</time>
      </trkpt>
      <trkpt lat="45.65693" lon="5.60332">
        <ele>207.2</ele>
        <time>2022-09-25T12:33:28Z</time>
      </trkpt>
      <trkpt lat="45.65689" lon="5.60338">
        <ele>207.3</ele>
        <time>2022-09-25T12:33:29Z</time>
      </trkpt>
      <trkpt lat="45.65685" lon="5.60343">
        <ele>207.3</ele>
        <time>2022-09-25T12:33:30Z</time>
      </trkpt>
      <trkpt lat="45.65682" lon="5.60348">
        <ele>207.4</ele>
        <time>2022-09-25T12:33:31Z</time>
      </trkpt>
      <trkpt lat="45.65675" lon="5.60359">
        <ele>207.5</ele>
        <time>2022-09-25T12:33:32Z</time>
      </trkpt>
      <trkpt lat="45.65672" lon="5.60365">
        <ele>207.5</ele>
        <time>2022-09-25T12:33:33Z</time>
      </trkpt>
      <trkpt lat="45.6567" lon="5.60371">
        <ele>207.6</ele>
        <time>2022-09-25T12:33:34Z</time>
      </trkpt>
      <trkpt lat="45.65667" lon="5.60378">
        <ele>207.6</ele>
        <time>2022-09-25T12:33:35Z</time>
      </trkpt>
      <trkpt lat="45.65664" lon="5.60384">
        <ele>207.7</ele>
        <time>2022-09-25T12:33:36Z</time>
      </trkpt>
      <trkpt lat="45.65662" lon="5.60391">
        <ele>207.7</ele>
        <time>2022-09-25T12:33:37Z</time>
      </trkpt>
      <trkpt lat="45.65659" lon="5.60397">
        <ele>207.8</ele>
        <time>2022-09-25T12:33:38Z</time>
      </trkpt>
      <trkpt lat="45.65657" lon="5.60403">
        <ele>207.9</ele>
        <time>2022-09-25T12:33:39Z</time>
      </trkpt>
      <trkpt lat="45.65654" lon="5.6041">
        <ele>208</ele>
        <time>2022-09-25T12:33:40Z</time>
      </trkpt>
      <trkpt lat="45.65652" lon="5.60416">
        <ele>208.1</ele>
        <time>2022-09-25T12:33:41Z</time>
      </trkpt>
      <trkpt lat="45.6565" lon="5.60422">
        <ele>208.2</ele>
        <time>2022-09-25T12:33:42Z</time>
      </trkpt>
      <trkpt lat="45.65648" lon="5.60429">
        <ele>208.3</ele>
        <time>2022-09-25T12:33:43Z</time>
      </trkpt>
      <trkpt lat="45.65645" lon="5.60435">
        <ele>208.4</ele>
        <time>2022-09-25T12:33:44Z</time>
      </trkpt>
      <trkpt lat="45.65641" lon="5.60437">
        <ele>208.4</ele>
        <time>2022-09-25T12:33:45Z</time>
      </trkpt>
      <trkpt lat="45.65638" lon="5.60437">
        <ele>208.5</ele>
        <time>2022-09-25T12:33:46Z</time>
      </trkpt>
      <trkpt lat="45.65634" lon="5.60438">
        <ele>208.5</ele>
        <time>2022-09-25T12:33:47Z</time>
      </trkpt>
      <trkpt lat="45.6563" lon="5.6044">
        <ele>208.6</ele>
        <time>2022-09-25T12:33:48Z</time>
      </trkpt>
      <trkpt lat="45.65627" lon="5.60444">
        <ele>208.6</ele>
        <time>2022-09-25T12:33:49Z</time>
      </trkpt>
      <trkpt lat="45.65625" lon="5.60449">
        <ele>208.7</ele>
        <time>2022-09-25T12:33:50Z</time>
      </trkpt>
      <trkpt lat="45.65624" lon="5.60455">
        <ele>208.7</ele>
        <time>2022-09-25T12:33:51Z</time>
      </trkpt>
      <trkpt lat="45.65624" lon="5.6046">
        <ele>208.8</ele>
        <time>2022-09-25T12:33:52Z</time>
      </trkpt>
      <trkpt lat="45.65622" lon="5.60465">
        <ele>208.9</ele>
        <time>2022-09-25T12:33:53Z</time>
      </trkpt>
      <trkpt lat="45.6562" lon="5.60469">
        <ele>208.9</ele>
        <time>2022-09-25T12:33:54Z</time>
      </trkpt>
      <trkpt lat="45.65616" lon="5.60474">
        <ele>209</ele>
        <time>2022-09-25T12:33:55Z</time>
      </trkpt>
      <trkpt lat="45.65613" lon="5.60478">
        <ele>209.1</ele>
        <time>2022-09-25T12:33:56Z</time>
      </trkpt>
      <trkpt lat="45.6561" lon="5.60482">
        <ele>209.2</ele>
        <time>2022-09-25T12:33:57Z</time>
      </trkpt>
      <trkpt lat="45.65607" lon="5.60485">
        <ele>209.2</ele>
        <time>2022-09-25T12:33:58Z</time>
      </trkpt>
      <trkpt lat="45.65603" lon="5.60488">
        <ele>209.3</ele>
        <time>2022-09-25T12:33:59Z</time>
      </trkpt>
      <trkpt lat="45.65599" lon="5.60491">
        <ele>209.3</ele>
        <time>2022-09-25T12:34:00Z</time>
      </trkpt>
      <trkpt lat="45.65596" lon="5.60494">
        <ele>209.4</ele>
        <time>2022-09-25T12:34:01Z</time>
      </trkpt>
      <trkpt lat="45.65592" lon="5.60497">
        <ele>209.4</ele>
        <time>2022-09-25T12:34:02Z</time>
      </trkpt>
      <trkpt lat="45.65588" lon="5.60501">
        <ele>209.4</ele>
        <time>2022-09-25T12:34:03Z</time>
      </trkpt>
      <trkpt lat="45.65584" lon="5.60505">
        <ele>209.5</ele>
        <time>2022-09-25T12:34:04Z</time>
      </trkpt>
      <trkpt lat="45.65581" lon="5.60508">
        <ele>209.5</ele>
        <time>2022-09-25T12:34:05Z</time>
      </trkpt>
      <trkpt lat="45.65577" lon="5.60512">
        <ele>209.5</ele>
        <time>2022-09-25T12:34:06Z</time>
      </trkpt>
      <trkpt lat="45.65573" lon="5.60515">
        <ele>209.6</ele>
        <time>2022-09-25T12:34:07Z</time>
      </trkpt>
      <trkpt lat="45.65569" lon="5.60518">
        <ele>209.6</ele>
        <time>2022-09-25T12:34:08Z</time>
      </trkpt>
      <trkpt lat="45.65565" lon="5.60521">
        <ele>209.6</ele>
        <time>2022-09-25T12:34:09Z</time>
      </trkpt>
      <trkpt lat="45.6556" lon="5.60524">
        <ele>209.6</ele>
        <time>2022-09-25T12:34:10Z</time>
      </trkpt>
      <trkpt lat="45.65556" lon="5.60527">
        <ele>209.6</ele>
        <time>2022-09-25T12:34:11Z</time>
      </trkpt>
      <trkpt lat="45.65552" lon="5.6053">
        <ele>209.7</ele>
        <time>2022-09-25T12:34:12Z</time>
      </trkpt>
      <trkpt lat="45.65549" lon="5.60533">
        <ele>209.7</ele>
        <time>2022-09-25T12:34:13Z</time>
      </trkpt>
      <trkpt lat="45.65544" lon="5.60536">
        <ele>209.7</ele>
        <time>2022-09-25T12:34:14Z</time>
      </trkpt>
      <trkpt lat="45.6554" lon="5.60539">
        <ele>209.7</ele>
        <time>2022-09-25T12:34:15Z</time>
      </trkpt>
      <trkpt lat="45.65536" lon="5.60542">
        <ele>209.8</ele>
        <time>2022-09-25T12:34:16Z</time>
      </trkpt>
      <trkpt lat="45.65532" lon="5.60544">
        <ele>209.8</ele>
        <time>2022-09-25T12:34:17Z</time>
      </trkpt>
      <trkpt lat="45.65528" lon="5.60547">
        <ele>209.8</ele>
        <time>2022-09-25T12:34:18Z</time>
      </trkpt>
      <trkpt lat="45.65524" lon="5.60549">
        <ele>209.8</ele>
        <time>2022-09-25T12:34:19Z</time>
      </trkpt>
      <trkpt lat="45.6552" lon="5.60552">
        <ele>209.9</ele>
        <time>2022-09-25T12:34:20Z</time>
      </trkpt>
      <trkpt lat="45.65516" lon="5.60555">
        <ele>209.9</ele>
        <time>2022-09-25T12:34:21Z</time>
      </trkpt>
      <trkpt lat="45.65512" lon="5.60558">
        <ele>209.9</ele>
        <time>2022-09-25T12:34:22Z</time>
      </trkpt>
      <trkpt lat="45.65507" lon="5.6056">
        <ele>210</ele>
        <time>2022-09-25T12:34:23Z</time>
      </trkpt>
      <trkpt lat="45.65503" lon="5.60563">
        <ele>210</ele>
        <time>2022-09-25T12:34:24Z</time>
      </trkpt>
      <trkpt lat="45.65499" lon="5.60566">
        <ele>210</ele>
        <time>2022-09-25T12:34:25Z</time>
      </trkpt>
      <trkpt lat="45.65495" lon="5.60568">
        <ele>210.1</ele>
        <time>2022-09-25T12:34:26Z</time>
      </trkpt>
      <trkpt lat="45.65491" lon="5.60571">
        <ele>210.1</ele>
        <time>2022-09-25T12:34:27Z</time>
      </trkpt>
      <trkpt lat="45.65487" lon="5.60572">
        <ele>210.1</ele>
        <time>2022-09-25T12:34:28Z</time>
      </trkpt>
      <trkpt lat="45.65482" lon="5.60574">
        <ele>210.2</ele>
        <time>2022-09-25T12:34:29Z</time>
      </trkpt>
      <trkpt lat="45.65478" lon="5.60574">
        <ele>210.2</ele>
        <time>2022-09-25T12:34:31Z</time>
      </trkpt>
      <trkpt lat="45.65475" lon="5.60576">
        <ele>210.2</ele>
        <time>2022-09-25T12:34:32Z</time>
      </trkpt>
      <trkpt lat="45.65472" lon="5.60577">
        <ele>210.3</ele>
        <time>2022-09-25T12:34:33Z</time>
      </trkpt>
      <trkpt lat="45.65469" lon="5.60576">
        <ele>210.3</ele>
        <time>2022-09-25T12:34:34Z</time>
      </trkpt>
      <trkpt lat="45.65468" lon="5.60574">
        <ele>210.3</ele>
        <time>2022-09-25T12:34:35Z</time>
      </trkpt>
      <trkpt lat="45.65467" lon="5.60571">
        <ele>210.3</ele>
        <time>2022-09-25T12:34:36Z</time>
      </trkpt>
      <trkpt lat="45.65466" lon="5.60566">
        <ele>210.3</ele>
        <time>2022-09-25T12:34:37Z</time>
      </trkpt>
      <trkpt lat="45.65465" lon="5.60561">
        <ele>210.3</ele>
        <time>2022-09-25T12:34:38Z</time>
      </trkpt>
      <trkpt lat="45.65464" lon="5.60556">
        <ele>210.2</ele>
        <time>2022-09-25T12:34:39Z</time>
      </trkpt>
      <trkpt lat="45.65462" lon="5.60551">
        <ele>210.2</ele>
        <time>2022-09-25T12:34:40Z</time>
      </trkpt>
      <trkpt lat="45.6546" lon="5.60546">
        <ele>210.2</ele>
        <time>2022-09-25T12:34:41Z</time>
      </trkpt>
      <trkpt lat="45.65459" lon="5.60541">
        <ele>210.2</ele>
        <time>2022-09-25T12:34:42Z</time>
      </trkpt>
      <trkpt lat="45.65457" lon="5.60535">
        <ele>210.2</ele>
        <time>2022-09-25T12:34:43Z</time>
      </trkpt>
      <trkpt lat="45.65455" lon="5.6053">
        <ele>210.1</ele>
        <time>2022-09-25T12:34:44Z</time>
      </trkpt>
      <trkpt lat="45.65454" lon="5.60524">
        <ele>210.1</ele>
        <time>2022-09-25T12:34:45Z</time>
      </trkpt>
      <trkpt lat="45.65451" lon="5.60518">
        <ele>210.1</ele>
        <time>2022-09-25T12:34:46Z</time>
      </trkpt>
      <trkpt lat="45.6545" lon="5.60511">
        <ele>210.1</ele>
        <time>2022-09-25T12:34:47Z</time>
      </trkpt>
      <trkpt lat="45.65448" lon="5.60505">
        <ele>210.1</ele>
        <time>2022-09-25T12:34:48Z</time>
      </trkpt>
      <trkpt lat="45.65446" lon="5.60499">
        <ele>210.1</ele>
        <time>2022-09-25T12:34:49Z</time>
      </trkpt>
      <trkpt lat="45.65444" lon="5.60493">
        <ele>210.1</ele>
        <time>2022-09-25T12:34:50Z</time>
      </trkpt>
      <trkpt lat="45.65442" lon="5.60487">
        <ele>210.1</ele>
        <time>2022-09-25T12:34:51Z</time>
      </trkpt>
      <trkpt lat="45.6544" lon="5.60481">
        <ele>210.1</ele>
        <time>2022-09-25T12:34:52Z</time>
      </trkpt>
      <trkpt lat="45.65438" lon="5.60475">
        <ele>210.1</ele>
        <time>2022-09-25T12:34:53Z</time>
      </trkpt>
      <trkpt lat="45.65435" lon="5.60469">
        <ele>210.1</ele>
        <time>2022-09-25T12:34:54Z</time>
      </trkpt>
      <trkpt lat="45.65433" lon="5.60463">
        <ele>210.1</ele>
        <time>2022-09-25T12:34:55Z</time>
      </trkpt>
      <trkpt lat="45.65432" lon="5.60457">
        <ele>210.1</ele>
        <time>2022-09-25T12:34:56Z</time>
      </trkpt>
      <trkpt lat="45.6543" lon="5.6045">
        <ele>210.1</ele>
        <time>2022-09-25T12:34:57Z</time>
      </trkpt>
      <trkpt lat="45.65428" lon="5.60444">
        <ele>210.1</ele>
        <time>2022-09-25T12:34:58Z</time>
      </trkpt>
      <trkpt lat="45.65426" lon="5.60437">
        <ele>210.1</ele>
        <time>2022-09-25T12:34:59Z</time>
      </trkpt>
      <trkpt lat="45.65424" lon="5.60432">
        <ele>210.1</ele>
        <time>2022-09-25T12:35:00Z</time>
      </trkpt>
      <trkpt lat="45.65422" lon="5.60425">
        <ele>210.2</ele>
        <time>2022-09-25T12:35:01Z</time>
      </trkpt>
      <trkpt lat="45.6542" lon="5.60419">
        <ele>210.2</ele>
        <time>2022-09-25T12:35:02Z</time>
      </trkpt>
      <trkpt lat="45.65418" lon="5.60411">
        <ele>210.2</ele>
        <time>2022-09-25T12:35:03Z</time>
      </trkpt>
      <trkpt lat="45.65415" lon="5.60405">
        <ele>210.2</ele>
        <time>2022-09-25T12:35:04Z</time>
      </trkpt>
      <trkpt lat="45.65414" lon="5.604">
        <ele>210.2</ele>
        <time>2022-09-25T12:35:05Z</time>
      </trkpt>
      <trkpt lat="45.65412" lon="5.60394">
        <ele>210.2</ele>
        <time>2022-09-25T12:35:06Z</time>
      </trkpt>
      <trkpt lat="45.6541" lon="5.60387">
        <ele>210.2</ele>
        <time>2022-09-25T12:35:07Z</time>
      </trkpt>
      <trkpt lat="45.65408" lon="5.6038">
        <ele>210.2</ele>
        <time>2022-09-25T12:35:08Z</time>
      </trkpt>
      <trkpt lat="45.65406" lon="5.60374">
        <ele>210.2</ele>
        <time>2022-09-25T12:35:09Z</time>
      </trkpt>
      <trkpt lat="45.65404" lon="5.60367">
        <ele>210.3</ele>
        <time>2022-09-25T12:35:10Z</time>
      </trkpt>
      <trkpt lat="45.65402" lon="5.60362">
        <ele>210.3</ele>
        <time>2022-09-25T12:35:11Z</time>
      </trkpt>
      <trkpt lat="45.654" lon="5.60355">
        <ele>210.3</ele>
        <time>2022-09-25T12:35:12Z</time>
      </trkpt>
      <trkpt lat="45.65398" lon="5.60348">
        <ele>210.4</ele>
        <time>2022-09-25T12:35:13Z</time>
      </trkpt>
      <trkpt lat="45.65396" lon="5.60341">
        <ele>210.5</ele>
        <time>2022-09-25T12:35:14Z</time>
      </trkpt>
      <trkpt lat="45.65394" lon="5.60335">
        <ele>210.6</ele>
        <time>2022-09-25T12:35:15Z</time>
      </trkpt>
      <trkpt lat="45.65392" lon="5.60329">
        <ele>210.6</ele>
        <time>2022-09-25T12:35:16Z</time>
      </trkpt>
      <trkpt lat="45.6539" lon="5.60323">
        <ele>210.7</ele>
        <time>2022-09-25T12:35:17Z</time>
      </trkpt>
      <trkpt lat="45.65389" lon="5.60319">
        <ele>210.7</ele>
        <time>2022-09-25T12:35:18Z</time>
      </trkpt>
      <trkpt lat="45.65387" lon="5.60313">
        <ele>210.8</ele>
        <time>2022-09-25T12:35:19Z</time>
      </trkpt>
      <trkpt lat="45.65385" lon="5.60307">
        <ele>210.9</ele>
        <time>2022-09-25T12:35:20Z</time>
      </trkpt>
      <trkpt lat="45.65383" lon="5.60301">
        <ele>211</ele>
        <time>2022-09-25T12:35:21Z</time>
      </trkpt>
      <trkpt lat="45.65382" lon="5.60296">
        <ele>211.1</ele>
        <time>2022-09-25T12:35:22Z</time>
      </trkpt>
      <trkpt lat="45.6538" lon="5.60291">
        <ele>211.1</ele>
        <time>2022-09-25T12:35:23Z</time>
      </trkpt>
      <trkpt lat="45.65379" lon="5.60287">
        <ele>211.2</ele>
        <time>2022-09-25T12:35:24Z</time>
      </trkpt>
      <trkpt lat="45.65378" lon="5.60283">
        <ele>211.3</ele>
        <time>2022-09-25T12:35:25Z</time>
      </trkpt>
      <trkpt lat="45.65376" lon="5.6028">
        <ele>211.4</ele>
        <time>2022-09-25T12:35:26Z</time>
      </trkpt>
      <trkpt lat="45.65374" lon="5.60276">
        <ele>211.4</ele>
        <time>2022-09-25T12:35:27Z</time>
      </trkpt>
      <trkpt lat="45.65373" lon="5.60274">
        <ele>211.4</ele>
        <time>2022-09-25T12:35:28Z</time>
      </trkpt>
      <trkpt lat="45.6537" lon="5.60271">
        <ele>211.5</ele>
        <time>2022-09-25T12:35:29Z</time>
      </trkpt>
      <trkpt lat="45.65367" lon="5.6027">
        <ele>211.5</ele>
        <time>2022-09-25T12:35:30Z</time>
      </trkpt>
      <trkpt lat="45.65363" lon="5.60272">
        <ele>211.4</ele>
        <time>2022-09-25T12:35:31Z</time>
      </trkpt>
      <trkpt lat="45.65365" lon="5.60275">
        <ele>211.4</ele>
        <time>2022-09-25T12:35:32Z</time>
      </trkpt>
      <trkpt lat="45.65365" lon="5.60274">
        <ele>211.4</ele>
        <time>2022-09-25T12:35:33Z</time>
      </trkpt>
      <trkpt lat="45.65364" lon="5.60274">
        <ele>211.4</ele>
        <time>2022-09-25T12:35:34Z</time>
      </trkpt>
      <trkpt lat="45.65363" lon="5.60274">
        <ele>211.4</ele>
        <time>2022-09-25T12:35:35Z</time>
      </trkpt>
      <trkpt lat="45.65362" lon="5.60275">
        <ele>211.4</ele>
        <time>2022-09-25T12:35:36Z</time>
      </trkpt>
      <trkpt lat="45.65362" lon="5.60275">
        <ele>211.4</ele>
        <time>2022-09-25T12:35:37Z</time>
      </trkpt>
      <trkpt lat="45.65361" lon="5.60276">
        <ele>211.4</ele>
        <time>2022-09-25T12:35:38Z</time>
      </trkpt>
      <trkpt lat="45.6536" lon="5.60276">
        <ele>211.4</ele>
        <time>2022-09-25T12:35:39Z</time>
      </trkpt>
      <trkpt lat="45.6536" lon="5.60276">
        <ele>211.4</ele>
        <time>2022-09-25T12:35:40Z</time>
      </trkpt>
      <trkpt lat="45.65359" lon="5.60277">
        <ele>211.4</ele>
        <time>2022-09-25T12:35:41Z</time>
      </trkpt>
      <trkpt lat="45.65358" lon="5.60277">
        <ele>211.4</ele>
        <time>2022-09-25T12:41:49Z</time>
      </trkpt>
      <trkpt lat="45.65358" lon="5.60277">
        <ele>211.4</ele>
        <time>2022-09-25T12:41:50Z</time>
      </trkpt>
      <trkpt lat="45.65357" lon="5.60278">
        <ele>211.4</ele>
        <time>2022-09-25T12:41:51Z</time>
      </trkpt>
      <trkpt lat="45.65356" lon="5.60279">
        <ele>211.4</ele>
        <time>2022-09-25T12:41:52Z</time>
      </trkpt>
      <trkpt lat="45.65354" lon="5.6028">
        <ele>211.4</ele>
        <time>2022-09-25T12:41:53Z</time>
      </trkpt>
      <trkpt lat="45.65351" lon="5.60281">
        <ele>211.4</ele>
        <time>2022-09-25T12:41:54Z</time>
      </trkpt>
      <trkpt lat="45.6535" lon="5.60282">
        <ele>211.4</ele>
        <time>2022-09-25T12:41:55Z</time>
      </trkpt>
      <trkpt lat="45.65347" lon="5.60284">
        <ele>211.4</ele>
        <time>2022-09-25T12:41:56Z</time>
      </trkpt>
      <trkpt lat="45.65346" lon="5.60285">
        <ele>211.4</ele>
        <time>2022-09-25T12:41:57Z</time>
      </trkpt>
      <trkpt lat="45.65343" lon="5.60288">
        <ele>211.5</ele>
        <time>2022-09-25T12:41:58Z</time>
      </trkpt>
      <trkpt lat="45.65342" lon="5.60289">
        <ele>211.5</ele>
        <time>2022-09-25T12:41:59Z</time>
      </trkpt>
      <trkpt lat="45.65338" lon="5.60291">
        <ele>211.5</ele>
        <time>2022-09-25T12:42:00Z</time>
      </trkpt>
      <trkpt lat="45.65337" lon="5.60292">
        <ele>211.5</ele>
        <time>2022-09-25T12:42:01Z</time>
      </trkpt>
      <trkpt lat="45.65335" lon="5.60293">
        <ele>211.6</ele>
        <time>2022-09-25T12:42:02Z</time>
      </trkpt>
      <trkpt lat="45.6533" lon="5.60297">
        <ele>211.6</ele>
        <time>2022-09-25T12:42:03Z</time>
      </trkpt>
      <trkpt lat="45.65327" lon="5.60299">
        <ele>211.6</ele>
        <time>2022-09-25T12:42:04Z</time>
      </trkpt>
      <trkpt lat="45.65325" lon="5.60301">
        <ele>211.7</ele>
        <time>2022-09-25T12:42:05Z</time>
      </trkpt>
      <trkpt lat="45.65322" lon="5.60304">
        <ele>211.7</ele>
        <time>2022-09-25T12:42:06Z</time>
      </trkpt>
      <trkpt lat="45.65319" lon="5.60307">
        <ele>211.7</ele>
        <time>2022-09-25T12:42:07Z</time>
      </trkpt>
      <trkpt lat="45.65317" lon="5.60309">
        <ele>211.8</ele>
        <time>2022-09-25T12:42:08Z</time>
      </trkpt>
      <trkpt lat="45.65314" lon="5.60312">
        <ele>211.8</ele>
        <time>2022-09-25T12:42:09Z</time>
      </trkpt>
      <trkpt lat="45.65312" lon="5.60315">
        <ele>211.9</ele>
        <time>2022-09-25T12:42:10Z</time>
      </trkpt>
      <trkpt lat="45.65309" lon="5.60317">
        <ele>211.9</ele>
        <time>2022-09-25T12:42:11Z</time>
      </trkpt>
      <trkpt lat="45.65306" lon="5.6032">
        <ele>211.9</ele>
        <time>2022-09-25T12:42:12Z</time>
      </trkpt>
      <trkpt lat="45.65303" lon="5.60323">
        <ele>212</ele>
        <time>2022-09-25T12:42:13Z</time>
      </trkpt>
      <trkpt lat="45.653" lon="5.60326">
        <ele>212</ele>
        <time>2022-09-25T12:42:14Z</time>
      </trkpt>
      <trkpt lat="45.65297" lon="5.60329">
        <ele>212.1</ele>
        <time>2022-09-25T12:42:15Z</time>
      </trkpt>
      <trkpt lat="45.65294" lon="5.60332">
        <ele>212.1</ele>
        <time>2022-09-25T12:42:16Z</time>
      </trkpt>
      <trkpt lat="45.65291" lon="5.60335">
        <ele>212.2</ele>
        <time>2022-09-25T12:42:17Z</time>
      </trkpt>
      <trkpt lat="45.65288" lon="5.60338">
        <ele>212.2</ele>
        <time>2022-09-25T12:42:18Z</time>
      </trkpt>
      <trkpt lat="45.65286" lon="5.60341">
        <ele>212.3</ele>
        <time>2022-09-25T12:42:19Z</time>
      </trkpt>
      <trkpt lat="45.65283" lon="5.60344">
        <ele>212.3</ele>
        <time>2022-09-25T12:42:20Z</time>
      </trkpt>
      <trkpt lat="45.6528" lon="5.60347">
        <ele>212.4</ele>
        <time>2022-09-25T12:42:21Z</time>
      </trkpt>
      <trkpt lat="45.65277" lon="5.6035">
        <ele>212.4</ele>
        <time>2022-09-25T12:42:22Z</time>
      </trkpt>
      <trkpt lat="45.65273" lon="5.60353">
        <ele>212.5</ele>
        <time>2022-09-25T12:42:23Z</time>
      </trkpt>
      <trkpt lat="45.6527" lon="5.60356">
        <ele>212.6</ele>
        <time>2022-09-25T12:42:24Z</time>
      </trkpt>
      <trkpt lat="45.65268" lon="5.6036">
        <ele>212.6</ele>
        <time>2022-09-25T12:42:25Z</time>
      </trkpt>
      <trkpt lat="45.65265" lon="5.60364">
        <ele>212.7</ele>
        <time>2022-09-25T12:42:26Z</time>
      </trkpt>
      <trkpt lat="45.65262" lon="5.60367">
        <ele>212.7</ele>
        <time>2022-09-25T12:42:27Z</time>
      </trkpt>
      <trkpt lat="45.65259" lon="5.6037">
        <ele>212.8</ele>
        <time>2022-09-25T12:42:28Z</time>
      </trkpt>
      <trkpt lat="45.65256" lon="5.60373">
        <ele>212.9</ele>
        <time>2022-09-25T12:42:29Z</time>
      </trkpt>
      <trkpt lat="45.65253" lon="5.60377">
        <ele>212.9</ele>
        <time>2022-09-25T12:42:30Z</time>
      </trkpt>
      <trkpt lat="45.65249" lon="5.60379">
        <ele>213</ele>
        <time>2022-09-25T12:42:31Z</time>
      </trkpt>
      <trkpt lat="45.65246" lon="5.60382">
        <ele>213</ele>
        <time>2022-09-25T12:42:32Z</time>
      </trkpt>
      <trkpt lat="45.65242" lon="5.60385">
        <ele>213.1</ele>
        <time>2022-09-25T12:42:33Z</time>
      </trkpt>
      <trkpt lat="45.65239" lon="5.60388">
        <ele>213.2</ele>
        <time>2022-09-25T12:42:34Z</time>
      </trkpt>
      <trkpt lat="45.65236" lon="5.60391">
        <ele>213.2</ele>
        <time>2022-09-25T12:42:35Z</time>
      </trkpt>
      <trkpt lat="45.65232" lon="5.60394">
        <ele>213.3</ele>
        <time>2022-09-25T12:42:36Z</time>
      </trkpt>
      <trkpt lat="45.65229" lon="5.60397">
        <ele>213.3</ele>
        <time>2022-09-25T12:42:37Z</time>
      </trkpt>
      <trkpt lat="45.65226" lon="5.604">
        <ele>213.4</ele>
        <time>2022-09-25T12:42:38Z</time>
      </trkpt>
      <trkpt lat="45.65222" lon="5.60403">
        <ele>213.4</ele>
        <time>2022-09-25T12:42:39Z</time>
      </trkpt>
      <trkpt lat="45.65218" lon="5.60406">
        <ele>213.5</ele>
        <time>2022-09-25T12:42:40Z</time>
      </trkpt>
      <trkpt lat="45.65215" lon="5.60409">
        <ele>213.6</ele>
        <time>2022-09-25T12:42:41Z</time>
      </trkpt>
      <trkpt lat="45.65211" lon="5.60412">
        <ele>213.7</ele>
        <time>2022-09-25T12:42:42Z</time>
      </trkpt>
      <trkpt lat="45.65207" lon="5.60414">
        <ele>213.7</ele>
        <time>2022-09-25T12:42:43Z</time>
      </trkpt>
      <trkpt lat="45.65203" lon="5.60417">
        <ele>213.8</ele>
        <time>2022-09-25T12:42:44Z</time>
      </trkpt>
      <trkpt lat="45.652" lon="5.60419">
        <ele>213.9</ele>
        <time>2022-09-25T12:42:45Z</time>
      </trkpt>
      <trkpt lat="45.65196" lon="5.60422">
        <ele>214</ele>
        <time>2022-09-25T12:42:46Z</time>
      </trkpt>
      <trkpt lat="45.65192" lon="5.60425">
        <ele>214</ele>
        <time>2022-09-25T12:42:47Z</time>
      </trkpt>
      <trkpt lat="45.65188" lon="5.60427">
        <ele>214.1</ele>
        <time>2022-09-25T12:42:48Z</time>
      </trkpt>
      <trkpt lat="45.65185" lon="5.6043">
        <ele>214.1</ele>
        <time>2022-09-25T12:42:49Z</time>
      </trkpt>
      <trkpt lat="45.65181" lon="5.60432">
        <ele>214.2</ele>
        <time>2022-09-25T12:42:50Z</time>
      </trkpt>
      <trkpt lat="45.65177" lon="5.60435">
        <ele>214.3</ele>
        <time>2022-09-25T12:42:51Z</time>
      </trkpt>
      <trkpt lat="45.65173" lon="5.60438">
        <ele>214.3</ele>
        <time>2022-09-25T12:42:52Z</time>
      </trkpt>
      <trkpt lat="45.65169" lon="5.60439">
        <ele>214.4</ele>
        <time>2022-09-25T12:42:53Z</time>
      </trkpt>
      <trkpt lat="45.65166" lon="5.60442">
        <ele>214.4</ele>
        <time>2022-09-25T12:42:55Z</time>
      </trkpt>
      <trkpt lat="45.65162" lon="5.60444">
        <ele>214.5</ele>
        <time>2022-09-25T12:42:56Z</time>
      </trkpt>
      <trkpt lat="45.65158" lon="5.60447">
        <ele>214.5</ele>
        <time>2022-09-25T12:42:57Z</time>
      </trkpt>
      <trkpt lat="45.65156" lon="5.6045">
        <ele>214.6</ele>
        <time>2022-09-25T12:42:58Z</time>
      </trkpt>
      <trkpt lat="45.65151" lon="5.60453">
        <ele>214.7</ele>
        <time>2022-09-25T12:42:59Z</time>
      </trkpt>
      <trkpt lat="45.65147" lon="5.60455">
        <ele>214.8</ele>
        <time>2022-09-25T12:43:00Z</time>
      </trkpt>
      <trkpt lat="45.65143" lon="5.60457">
        <ele>214.8</ele>
        <time>2022-09-25T12:43:01Z</time>
      </trkpt>
      <trkpt lat="45.6514" lon="5.6046">
        <ele>214.9</ele>
        <time>2022-09-25T12:43:02Z</time>
      </trkpt>
      <trkpt lat="45.65136" lon="5.60463">
        <ele>215</ele>
        <time>2022-09-25T12:43:03Z</time>
      </trkpt>
      <trkpt lat="45.65132" lon="5.60465">
        <ele>215.1</ele>
        <time>2022-09-25T12:43:04Z</time>
      </trkpt>
      <trkpt lat="45.65128" lon="5.60468">
        <ele>215.1</ele>
        <time>2022-09-25T12:43:05Z</time>
      </trkpt>
      <trkpt lat="45.65124" lon="5.6047">
        <ele>215.2</ele>
        <time>2022-09-25T12:43:06Z</time>
      </trkpt>
      <trkpt lat="45.65121" lon="5.60473">
        <ele>215.3</ele>
        <time>2022-09-25T12:43:07Z</time>
      </trkpt>
      <trkpt lat="45.65117" lon="5.60477">
        <ele>215.4</ele>
        <time>2022-09-25T12:43:08Z</time>
      </trkpt>
      <trkpt lat="45.65113" lon="5.6048">
        <ele>215.4</ele>
        <time>2022-09-25T12:43:09Z</time>
      </trkpt>
      <trkpt lat="45.6511" lon="5.60483">
        <ele>215.5</ele>
        <time>2022-09-25T12:43:10Z</time>
      </trkpt>
      <trkpt lat="45.65106" lon="5.60487">
        <ele>215.6</ele>
        <time>2022-09-25T12:43:11Z</time>
      </trkpt>
      <trkpt lat="45.65103" lon="5.6049">
        <ele>215.7</ele>
        <time>2022-09-25T12:43:12Z</time>
      </trkpt>
      <trkpt lat="45.65099" lon="5.60494">
        <ele>215.8</ele>
        <time>2022-09-25T12:43:13Z</time>
      </trkpt>
      <trkpt lat="45.65096" lon="5.60498">
        <ele>215.9</ele>
        <time>2022-09-25T12:43:14Z</time>
      </trkpt>
      <trkpt lat="45.65092" lon="5.60502">
        <ele>216</ele>
        <time>2022-09-25T12:43:15Z</time>
      </trkpt>
      <trkpt lat="45.65089" lon="5.60506">
        <ele>216</ele>
        <time>2022-09-25T12:43:16Z</time>
      </trkpt>
      <trkpt lat="45.65086" lon="5.6051">
        <ele>216.1</ele>
        <time>2022-09-25T12:43:17Z</time>
      </trkpt>
      <trkpt lat="45.65082" lon="5.60514">
        <ele>216.2</ele>
        <time>2022-09-25T12:43:18Z</time>
      </trkpt>
      <trkpt lat="45.6508" lon="5.60519">
        <ele>216.3</ele>
        <time>2022-09-25T12:43:19Z</time>
      </trkpt>
      <trkpt lat="45.65076" lon="5.60522">
        <ele>216.4</ele>
        <time>2022-09-25T12:43:20Z</time>
      </trkpt>
      <trkpt lat="45.65073" lon="5.60526">
        <ele>216.4</ele>
        <time>2022-09-25T12:43:21Z</time>
      </trkpt>
      <trkpt lat="45.65069" lon="5.6053">
        <ele>216.5</ele>
        <time>2022-09-25T12:43:22Z</time>
      </trkpt>
      <trkpt lat="45.65066" lon="5.60534">
        <ele>216.6</ele>
        <time>2022-09-25T12:43:23Z</time>
      </trkpt>
      <trkpt lat="45.65063" lon="5.60538">
        <ele>216.7</ele>
        <time>2022-09-25T12:43:24Z</time>
      </trkpt>
      <trkpt lat="45.6506" lon="5.60542">
        <ele>216.8</ele>
        <time>2022-09-25T12:43:25Z</time>
      </trkpt>
      <trkpt lat="45.65058" lon="5.60547">
        <ele>216.9</ele>
        <time>2022-09-25T12:43:26Z</time>
      </trkpt>
      <trkpt lat="45.65055" lon="5.60551">
        <ele>217</ele>
        <time>2022-09-25T12:43:27Z</time>
      </trkpt>
      <trkpt lat="45.65053" lon="5.60555">
        <ele>217</ele>
        <time>2022-09-25T12:43:28Z</time>
      </trkpt>
      <trkpt lat="45.65051" lon="5.60558">
        <ele>217.1</ele>
        <time>2022-09-25T12:43:29Z</time>
      </trkpt>
      <trkpt lat="45.65048" lon="5.60562">
        <ele>217.1</ele>
        <time>2022-09-25T12:43:30Z</time>
      </trkpt>
      <trkpt lat="45.65046" lon="5.60564">
        <ele>217.2</ele>
        <time>2022-09-25T12:43:31Z</time>
      </trkpt>
      <trkpt lat="45.65043" lon="5.60565">
        <ele>217.2</ele>
        <time>2022-09-25T12:43:32Z</time>
      </trkpt>
      <trkpt lat="45.65039" lon="5.60567">
        <ele>217.2</ele>
        <time>2022-09-25T12:43:33Z</time>
      </trkpt>
      <trkpt lat="45.65038" lon="5.60568">
        <ele>217.2</ele>
        <time>2022-09-25T12:43:34Z</time>
      </trkpt>
      <trkpt lat="45.65034" lon="5.6057">
        <ele>217.2</ele>
        <time>2022-09-25T12:43:35Z</time>
      </trkpt>
      <trkpt lat="45.65033" lon="5.60571">
        <ele>217.2</ele>
        <time>2022-09-25T12:43:36Z</time>
      </trkpt>
      <trkpt lat="45.65029" lon="5.60573">
        <ele>217.2</ele>
        <time>2022-09-25T12:43:37Z</time>
      </trkpt>
      <trkpt lat="45.65026" lon="5.60574">
        <ele>217.2</ele>
        <time>2022-09-25T12:43:38Z</time>
      </trkpt>
      <trkpt lat="45.65023" lon="5.60577">
        <ele>217.2</ele>
        <time>2022-09-25T12:43:39Z</time>
      </trkpt>
      <trkpt lat="45.65019" lon="5.60579">
        <ele>217.1</ele>
        <time>2022-09-25T12:43:40Z</time>
      </trkpt>
      <trkpt lat="45.65015" lon="5.60581">
        <ele>217.1</ele>
        <time>2022-09-25T12:43:41Z</time>
      </trkpt>
      <trkpt lat="45.65012" lon="5.60584">
        <ele>217.1</ele>
        <time>2022-09-25T12:43:42Z</time>
      </trkpt>
      <trkpt lat="45.65007" lon="5.60586">
        <ele>217.1</ele>
        <time>2022-09-25T12:43:43Z</time>
      </trkpt>
      <trkpt lat="45.65003" lon="5.60589">
        <ele>217.1</ele>
        <time>2022-09-25T12:43:44Z</time>
      </trkpt>
      <trkpt lat="45.64999" lon="5.60591">
        <ele>217.1</ele>
        <time>2022-09-25T12:43:45Z</time>
      </trkpt>
      <trkpt lat="45.64995" lon="5.60594">
        <ele>217.1</ele>
        <time>2022-09-25T12:43:46Z</time>
      </trkpt>
      <trkpt lat="45.64991" lon="5.60597">
        <ele>217.1</ele>
        <time>2022-09-25T12:43:47Z</time>
      </trkpt>
      <trkpt lat="45.64987" lon="5.606">
        <ele>217.1</ele>
        <time>2022-09-25T12:43:48Z</time>
      </trkpt>
      <trkpt lat="45.64982" lon="5.60602">
        <ele>217.1</ele>
        <time>2022-09-25T12:43:49Z</time>
      </trkpt>
      <trkpt lat="45.64977" lon="5.60605">
        <ele>217.1</ele>
        <time>2022-09-25T12:43:50Z</time>
      </trkpt>
      <trkpt lat="45.64972" lon="5.60608">
        <ele>217</ele>
        <time>2022-09-25T12:43:51Z</time>
      </trkpt>
      <trkpt lat="45.64969" lon="5.60612">
        <ele>217</ele>
        <time>2022-09-25T12:43:52Z</time>
      </trkpt>
      <trkpt lat="45.64964" lon="5.60614">
        <ele>217</ele>
        <time>2022-09-25T12:43:53Z</time>
      </trkpt>
      <trkpt lat="45.6496" lon="5.60617">
        <ele>217</ele>
        <time>2022-09-25T12:43:54Z</time>
      </trkpt>
      <trkpt lat="45.64955" lon="5.6062">
        <ele>217</ele>
        <time>2022-09-25T12:43:55Z</time>
      </trkpt>
      <trkpt lat="45.64951" lon="5.60623">
        <ele>216.9</ele>
        <time>2022-09-25T12:43:56Z</time>
      </trkpt>
      <trkpt lat="45.64946" lon="5.60627">
        <ele>216.9</ele>
        <time>2022-09-25T12:43:57Z</time>
      </trkpt>
      <trkpt lat="45.64941" lon="5.6063">
        <ele>216.9</ele>
        <time>2022-09-25T12:43:58Z</time>
      </trkpt>
      <trkpt lat="45.64936" lon="5.60632">
        <ele>217</ele>
        <time>2022-09-25T12:43:59Z</time>
      </trkpt>
      <trkpt lat="45.64931" lon="5.60635">
        <ele>217</ele>
        <time>2022-09-25T12:44:00Z</time>
      </trkpt>
      <trkpt lat="45.64926" lon="5.60638">
        <ele>217</ele>
        <time>2022-09-25T12:44:01Z</time>
      </trkpt>
      <trkpt lat="45.64922" lon="5.60642">
        <ele>217</ele>
        <time>2022-09-25T12:44:02Z</time>
      </trkpt>
      <trkpt lat="45.64917" lon="5.60644">
        <ele>217</ele>
        <time>2022-09-25T12:44:03Z</time>
      </trkpt>
      <trkpt lat="45.64912" lon="5.60648">
        <ele>217</ele>
        <time>2022-09-25T12:44:04Z</time>
      </trkpt>
      <trkpt lat="45.64907" lon="5.6065">
        <ele>217</ele>
        <time>2022-09-25T12:44:05Z</time>
      </trkpt>
      <trkpt lat="45.64903" lon="5.60653">
        <ele>217</ele>
        <time>2022-09-25T12:44:06Z</time>
      </trkpt>
      <trkpt lat="45.64898" lon="5.60656">
        <ele>217</ele>
        <time>2022-09-25T12:44:07Z</time>
      </trkpt>
      <trkpt lat="45.64893" lon="5.60659">
        <ele>217</ele>
        <time>2022-09-25T12:44:08Z</time>
      </trkpt>
      <trkpt lat="45.64888" lon="5.60662">
        <ele>217</ele>
        <time>2022-09-25T12:44:09Z</time>
      </trkpt>
      <trkpt lat="45.64883" lon="5.60665">
        <ele>217</ele>
        <time>2022-09-25T12:44:10Z</time>
      </trkpt>
      <trkpt lat="45.64874" lon="5.60671">
        <ele>217</ele>
        <time>2022-09-25T12:44:11Z</time>
      </trkpt>
      <trkpt lat="45.64869" lon="5.60674">
        <ele>217</ele>
        <time>2022-09-25T12:44:12Z</time>
      </trkpt>
      <trkpt lat="45.64864" lon="5.60677">
        <ele>217.1</ele>
        <time>2022-09-25T12:44:13Z</time>
      </trkpt>
      <trkpt lat="45.6486" lon="5.6068">
        <ele>217.1</ele>
        <time>2022-09-25T12:44:14Z</time>
      </trkpt>
      <trkpt lat="45.64855" lon="5.60683">
        <ele>217</ele>
        <time>2022-09-25T12:44:15Z</time>
      </trkpt>
      <trkpt lat="45.6485" lon="5.60686">
        <ele>217</ele>
        <time>2022-09-25T12:44:16Z</time>
      </trkpt>
      <trkpt lat="45.64845" lon="5.60689">
        <ele>217</ele>
        <time>2022-09-25T12:44:17Z</time>
      </trkpt>
      <trkpt lat="45.64841" lon="5.60692">
        <ele>217</ele>
        <time>2022-09-25T12:44:18Z</time>
      </trkpt>
      <trkpt lat="45.64836" lon="5.60695">
        <ele>217</ele>
        <time>2022-09-25T12:44:19Z</time>
      </trkpt>
      <trkpt lat="45.64831" lon="5.60698">
        <ele>217</ele>
        <time>2022-09-25T12:44:20Z</time>
      </trkpt>
      <trkpt lat="45.64826" lon="5.60701">
        <ele>217</ele>
        <time>2022-09-25T12:44:21Z</time>
      </trkpt>
      <trkpt lat="45.64821" lon="5.60704">
        <ele>217</ele>
        <time>2022-09-25T12:44:22Z</time>
      </trkpt>
      <trkpt lat="45.64816" lon="5.60707">
        <ele>217</ele>
        <time>2022-09-25T12:44:23Z</time>
      </trkpt>
      <trkpt lat="45.64811" lon="5.60711">
        <ele>217</ele>
        <time>2022-09-25T12:44:24Z</time>
      </trkpt>
      <trkpt lat="45.64806" lon="5.60714">
        <ele>217</ele>
        <time>2022-09-25T12:44:25Z</time>
      </trkpt>
      <trkpt lat="45.64801" lon="5.60717">
        <ele>217</ele>
        <time>2022-09-25T12:44:26Z</time>
      </trkpt>
      <trkpt lat="45.64796" lon="5.6072">
        <ele>217</ele>
        <time>2022-09-25T12:44:27Z</time>
      </trkpt>
      <trkpt lat="45.64791" lon="5.60723">
        <ele>217</ele>
        <time>2022-09-25T12:44:28Z</time>
      </trkpt>
      <trkpt lat="45.64786" lon="5.60726">
        <ele>217</ele>
        <time>2022-09-25T12:44:29Z</time>
      </trkpt>
      <trkpt lat="45.64781" lon="5.60729">
        <ele>217</ele>
        <time>2022-09-25T12:44:30Z</time>
      </trkpt>
      <trkpt lat="45.64776" lon="5.60733">
        <ele>217</ele>
        <time>2022-09-25T12:44:31Z</time>
      </trkpt>
      <trkpt lat="45.6477" lon="5.60736">
        <ele>217.1</ele>
        <time>2022-09-25T12:44:32Z</time>
      </trkpt>
      <trkpt lat="45.64765" lon="5.6074">
        <ele>217.1</ele>
        <time>2022-09-25T12:44:33Z</time>
      </trkpt>
      <trkpt lat="45.6476" lon="5.60743">
        <ele>217.1</ele>
        <time>2022-09-25T12:44:34Z</time>
      </trkpt>
      <trkpt lat="45.64755" lon="5.60746">
        <ele>217.1</ele>
        <time>2022-09-25T12:44:35Z</time>
      </trkpt>
      <trkpt lat="45.6475" lon="5.60749">
        <ele>217.1</ele>
        <time>2022-09-25T12:44:36Z</time>
      </trkpt>
      <trkpt lat="45.64744" lon="5.60753">
        <ele>217.1</ele>
        <time>2022-09-25T12:44:37Z</time>
      </trkpt>
      <trkpt lat="45.64739" lon="5.60756">
        <ele>217.1</ele>
        <time>2022-09-25T12:44:38Z</time>
      </trkpt>
      <trkpt lat="45.64734" lon="5.6076">
        <ele>217.1</ele>
        <time>2022-09-25T12:44:39Z</time>
      </trkpt>
      <trkpt lat="45.64729" lon="5.60763">
        <ele>217.2</ele>
        <time>2022-09-25T12:44:40Z</time>
      </trkpt>
      <trkpt lat="45.64723" lon="5.60766">
        <ele>217.2</ele>
        <time>2022-09-25T12:44:41Z</time>
      </trkpt>
      <trkpt lat="45.64718" lon="5.60769">
        <ele>217.2</ele>
        <time>2022-09-25T12:44:42Z</time>
      </trkpt>
      <trkpt lat="45.64712" lon="5.60773">
        <ele>217.2</ele>
        <time>2022-09-25T12:44:43Z</time>
      </trkpt>
      <trkpt lat="45.64707" lon="5.60777">
        <ele>217.2</ele>
        <time>2022-09-25T12:44:44Z</time>
      </trkpt>
      <trkpt lat="45.64701" lon="5.6078">
        <ele>217.2</ele>
        <time>2022-09-25T12:44:45Z</time>
      </trkpt>
      <trkpt lat="45.64696" lon="5.60783">
        <ele>217.3</ele>
        <time>2022-09-25T12:44:46Z</time>
      </trkpt>
      <trkpt lat="45.64691" lon="5.60786">
        <ele>217.3</ele>
        <time>2022-09-25T12:44:47Z</time>
      </trkpt>
      <trkpt lat="45.64685" lon="5.6079">
        <ele>217.3</ele>
        <time>2022-09-25T12:44:48Z</time>
      </trkpt>
      <trkpt lat="45.64679" lon="5.60794">
        <ele>217.3</ele>
        <time>2022-09-25T12:44:49Z</time>
      </trkpt>
      <trkpt lat="45.64674" lon="5.60798">
        <ele>217.3</ele>
        <time>2022-09-25T12:44:50Z</time>
      </trkpt>
      <trkpt lat="45.64668" lon="5.60801">
        <ele>217.3</ele>
        <time>2022-09-25T12:44:51Z</time>
      </trkpt>
      <trkpt lat="45.64663" lon="5.60804">
        <ele>217.3</ele>
        <time>2022-09-25T12:44:52Z</time>
      </trkpt>
      <trkpt lat="45.64658" lon="5.60807">
        <ele>217.4</ele>
        <time>2022-09-25T12:44:53Z</time>
      </trkpt>
      <trkpt lat="45.64652" lon="5.60811">
        <ele>217.4</ele>
        <time>2022-09-25T12:44:54Z</time>
      </trkpt>
      <trkpt lat="45.64646" lon="5.60814">
        <ele>217.4</ele>
        <time>2022-09-25T12:44:55Z</time>
      </trkpt>
      <trkpt lat="45.64641" lon="5.60817">
        <ele>217.4</ele>
        <time>2022-09-25T12:44:56Z</time>
      </trkpt>
      <trkpt lat="45.64635" lon="5.60821">
        <ele>217.4</ele>
        <time>2022-09-25T12:44:57Z</time>
      </trkpt>
      <trkpt lat="45.64631" lon="5.60825">
        <ele>217.4</ele>
        <time>2022-09-25T12:44:58Z</time>
      </trkpt>
      <trkpt lat="45.64624" lon="5.60828">
        <ele>217.4</ele>
        <time>2022-09-25T12:44:59Z</time>
      </trkpt>
      <trkpt lat="45.64619" lon="5.60832">
        <ele>217.5</ele>
        <time>2022-09-25T12:45:01Z</time>
      </trkpt>
      <trkpt lat="45.64613" lon="5.60835">
        <ele>217.5</ele>
        <time>2022-09-25T12:45:02Z</time>
      </trkpt>
      <trkpt lat="45.64608" lon="5.60838">
        <ele>217.5</ele>
        <time>2022-09-25T12:45:03Z</time>
      </trkpt>
      <trkpt lat="45.64602" lon="5.60843">
        <ele>217.5</ele>
        <time>2022-09-25T12:45:04Z</time>
      </trkpt>
      <trkpt lat="45.64597" lon="5.60846">
        <ele>217.5</ele>
        <time>2022-09-25T12:45:05Z</time>
      </trkpt>
      <trkpt lat="45.64592" lon="5.60849">
        <ele>217.6</ele>
        <time>2022-09-25T12:45:06Z</time>
      </trkpt>
      <trkpt lat="45.64586" lon="5.60853">
        <ele>217.6</ele>
        <time>2022-09-25T12:45:07Z</time>
      </trkpt>
      <trkpt lat="45.64581" lon="5.60856">
        <ele>217.6</ele>
        <time>2022-09-25T12:45:08Z</time>
      </trkpt>
      <trkpt lat="45.64575" lon="5.60859">
        <ele>217.6</ele>
        <time>2022-09-25T12:45:09Z</time>
      </trkpt>
      <trkpt lat="45.6457" lon="5.60862">
        <ele>217.6</ele>
        <time>2022-09-25T12:45:10Z</time>
      </trkpt>
      <trkpt lat="45.64564" lon="5.60866">
        <ele>217.6</ele>
        <time>2022-09-25T12:45:11Z</time>
      </trkpt>
      <trkpt lat="45.64559" lon="5.60869">
        <ele>217.6</ele>
        <time>2022-09-25T12:45:12Z</time>
      </trkpt>
      <trkpt lat="45.64554" lon="5.60873">
        <ele>217.6</ele>
        <time>2022-09-25T12:45:13Z</time>
      </trkpt>
      <trkpt lat="45.64548" lon="5.60876">
        <ele>217.6</ele>
        <time>2022-09-25T12:45:14Z</time>
      </trkpt>
      <trkpt lat="45.64543" lon="5.60879">
        <ele>217.6</ele>
        <time>2022-09-25T12:45:15Z</time>
      </trkpt>
      <trkpt lat="45.64538" lon="5.60883">
        <ele>217.7</ele>
        <time>2022-09-25T12:45:16Z</time>
      </trkpt>
      <trkpt lat="45.64532" lon="5.60886">
        <ele>217.7</ele>
        <time>2022-09-25T12:45:17Z</time>
      </trkpt>
      <trkpt lat="45.64527" lon="5.60889">
        <ele>217.7</ele>
        <time>2022-09-25T12:45:18Z</time>
      </trkpt>
      <trkpt lat="45.64522" lon="5.60893">
        <ele>217.7</ele>
        <time>2022-09-25T12:45:19Z</time>
      </trkpt>
      <trkpt lat="45.64517" lon="5.60896">
        <ele>217.7</ele>
        <time>2022-09-25T12:45:20Z</time>
      </trkpt>
      <trkpt lat="45.64511" lon="5.60899">
        <ele>217.7</ele>
        <time>2022-09-25T12:45:21Z</time>
      </trkpt>
      <trkpt lat="45.64506" lon="5.60902">
        <ele>217.7</ele>
        <time>2022-09-25T12:45:22Z</time>
      </trkpt>
      <trkpt lat="45.645" lon="5.60906">
        <ele>217.7</ele>
        <time>2022-09-25T12:45:23Z</time>
      </trkpt>
      <trkpt lat="45.64495" lon="5.60909">
        <ele>217.7</ele>
        <time>2022-09-25T12:45:24Z</time>
      </trkpt>
      <trkpt lat="45.6449" lon="5.60913">
        <ele>217.7</ele>
        <time>2022-09-25T12:45:25Z</time>
      </trkpt>
      <trkpt lat="45.64485" lon="5.60916">
        <ele>217.6</ele>
        <time>2022-09-25T12:45:26Z</time>
      </trkpt>
      <trkpt lat="45.64479" lon="5.60919">
        <ele>217.6</ele>
        <time>2022-09-25T12:45:27Z</time>
      </trkpt>
      <trkpt lat="45.64474" lon="5.60922">
        <ele>217.6</ele>
        <time>2022-09-25T12:45:28Z</time>
      </trkpt>
      <trkpt lat="45.64469" lon="5.60925">
        <ele>217.6</ele>
        <time>2022-09-25T12:45:29Z</time>
      </trkpt>
      <trkpt lat="45.64464" lon="5.60928">
        <ele>217.6</ele>
        <time>2022-09-25T12:45:30Z</time>
      </trkpt>
      <trkpt lat="45.64458" lon="5.60932">
        <ele>217.6</ele>
        <time>2022-09-25T12:45:31Z</time>
      </trkpt>
      <trkpt lat="45.64453" lon="5.60935">
        <ele>217.6</ele>
        <time>2022-09-25T12:45:32Z</time>
      </trkpt>
      <trkpt lat="45.64448" lon="5.60939">
        <ele>217.6</ele>
        <time>2022-09-25T12:45:33Z</time>
      </trkpt>
      <trkpt lat="45.64443" lon="5.60942">
        <ele>217.6</ele>
        <time>2022-09-25T12:45:34Z</time>
      </trkpt>
      <trkpt lat="45.64437" lon="5.60945">
        <ele>217.6</ele>
        <time>2022-09-25T12:45:35Z</time>
      </trkpt>
      <trkpt lat="45.64432" lon="5.60948">
        <ele>217.6</ele>
        <time>2022-09-25T12:45:36Z</time>
      </trkpt>
      <trkpt lat="45.64426" lon="5.60952">
        <ele>217.6</ele>
        <time>2022-09-25T12:45:37Z</time>
      </trkpt>
      <trkpt lat="45.64421" lon="5.60955">
        <ele>217.6</ele>
        <time>2022-09-25T12:45:38Z</time>
      </trkpt>
      <trkpt lat="45.64416" lon="5.60959">
        <ele>217.6</ele>
        <time>2022-09-25T12:45:39Z</time>
      </trkpt>
      <trkpt lat="45.64411" lon="5.60961">
        <ele>217.6</ele>
        <time>2022-09-25T12:45:40Z</time>
      </trkpt>
      <trkpt lat="45.64406" lon="5.60965">
        <ele>217.6</ele>
        <time>2022-09-25T12:45:41Z</time>
      </trkpt>
      <trkpt lat="45.644" lon="5.60968">
        <ele>217.6</ele>
        <time>2022-09-25T12:45:42Z</time>
      </trkpt>
      <trkpt lat="45.64395" lon="5.60972">
        <ele>217.6</ele>
        <time>2022-09-25T12:45:43Z</time>
      </trkpt>
      <trkpt lat="45.6439" lon="5.60975">
        <ele>217.6</ele>
        <time>2022-09-25T12:45:44Z</time>
      </trkpt>
      <trkpt lat="45.64385" lon="5.60978">
        <ele>217.6</ele>
        <time>2022-09-25T12:45:45Z</time>
      </trkpt>
      <trkpt lat="45.64379" lon="5.60982">
        <ele>217.6</ele>
        <time>2022-09-25T12:45:46Z</time>
      </trkpt>
      <trkpt lat="45.64375" lon="5.60987">
        <ele>217.6</ele>
        <time>2022-09-25T12:45:47Z</time>
      </trkpt>
      <trkpt lat="45.64369" lon="5.60989">
        <ele>217.6</ele>
        <time>2022-09-25T12:45:48Z</time>
      </trkpt>
      <trkpt lat="45.64363" lon="5.60991">
        <ele>217.6</ele>
        <time>2022-09-25T12:45:49Z</time>
      </trkpt>
      <trkpt lat="45.64358" lon="5.60995">
        <ele>217.6</ele>
        <time>2022-09-25T12:45:50Z</time>
      </trkpt>
      <trkpt lat="45.64352" lon="5.60998">
        <ele>217.7</ele>
        <time>2022-09-25T12:45:51Z</time>
      </trkpt>
      <trkpt lat="45.64347" lon="5.61002">
        <ele>217.7</ele>
        <time>2022-09-25T12:45:52Z</time>
      </trkpt>
      <trkpt lat="45.64342" lon="5.61005">
        <ele>217.7</ele>
        <time>2022-09-25T12:45:53Z</time>
      </trkpt>
      <trkpt lat="45.64336" lon="5.61008">
        <ele>217.7</ele>
        <time>2022-09-25T12:45:54Z</time>
      </trkpt>
      <trkpt lat="45.64331" lon="5.61012">
        <ele>217.7</ele>
        <time>2022-09-25T12:45:55Z</time>
      </trkpt>
      <trkpt lat="45.64326" lon="5.61015">
        <ele>217.7</ele>
        <time>2022-09-25T12:45:56Z</time>
      </trkpt>
      <trkpt lat="45.64321" lon="5.61018">
        <ele>217.7</ele>
        <time>2022-09-25T12:45:57Z</time>
      </trkpt>
      <trkpt lat="45.64315" lon="5.61022">
        <ele>217.8</ele>
        <time>2022-09-25T12:45:58Z</time>
      </trkpt>
      <trkpt lat="45.6431" lon="5.61025">
        <ele>217.8</ele>
        <time>2022-09-25T12:45:59Z</time>
      </trkpt>
      <trkpt lat="45.64305" lon="5.61028">
        <ele>217.8</ele>
        <time>2022-09-25T12:46:00Z</time>
      </trkpt>
      <trkpt lat="45.643" lon="5.61032">
        <ele>217.8</ele>
        <time>2022-09-25T12:46:01Z</time>
      </trkpt>
      <trkpt lat="45.64294" lon="5.61036">
        <ele>217.8</ele>
        <time>2022-09-25T12:46:02Z</time>
      </trkpt>
      <trkpt lat="45.64289" lon="5.61039">
        <ele>217.8</ele>
        <time>2022-09-25T12:46:03Z</time>
      </trkpt>
      <trkpt lat="45.64283" lon="5.61042">
        <ele>217.8</ele>
        <time>2022-09-25T12:46:04Z</time>
      </trkpt>
      <trkpt lat="45.64278" lon="5.61045">
        <ele>217.8</ele>
        <time>2022-09-25T12:46:05Z</time>
      </trkpt>
      <trkpt lat="45.64272" lon="5.61049">
        <ele>217.8</ele>
        <time>2022-09-25T12:46:06Z</time>
      </trkpt>
      <trkpt lat="45.64267" lon="5.61052">
        <ele>217.8</ele>
        <time>2022-09-25T12:46:07Z</time>
      </trkpt>
      <trkpt lat="45.64262" lon="5.61056">
        <ele>217.8</ele>
        <time>2022-09-25T12:46:08Z</time>
      </trkpt>
      <trkpt lat="45.64252" lon="5.61062">
        <ele>217.8</ele>
        <time>2022-09-25T12:46:09Z</time>
      </trkpt>
      <trkpt lat="45.64246" lon="5.61065">
        <ele>217.8</ele>
        <time>2022-09-25T12:46:10Z</time>
      </trkpt>
      <trkpt lat="45.64241" lon="5.61069">
        <ele>217.8</ele>
        <time>2022-09-25T12:46:11Z</time>
      </trkpt>
      <trkpt lat="45.64236" lon="5.61072">
        <ele>217.8</ele>
        <time>2022-09-25T12:46:12Z</time>
      </trkpt>
      <trkpt lat="45.64231" lon="5.61075">
        <ele>217.8</ele>
        <time>2022-09-25T12:46:13Z</time>
      </trkpt>
      <trkpt lat="45.64226" lon="5.61078">
        <ele>217.8</ele>
        <time>2022-09-25T12:46:14Z</time>
      </trkpt>
      <trkpt lat="45.6422" lon="5.61082">
        <ele>217.8</ele>
        <time>2022-09-25T12:46:15Z</time>
      </trkpt>
      <trkpt lat="45.64215" lon="5.61085">
        <ele>217.8</ele>
        <time>2022-09-25T12:46:16Z</time>
      </trkpt>
      <trkpt lat="45.6421" lon="5.61088">
        <ele>217.8</ele>
        <time>2022-09-25T12:46:17Z</time>
      </trkpt>
      <trkpt lat="45.64205" lon="5.61092">
        <ele>217.9</ele>
        <time>2022-09-25T12:46:18Z</time>
      </trkpt>
      <trkpt lat="45.642" lon="5.61095">
        <ele>217.9</ele>
        <time>2022-09-25T12:46:19Z</time>
      </trkpt>
      <trkpt lat="45.64194" lon="5.61098">
        <ele>217.9</ele>
        <time>2022-09-25T12:46:20Z</time>
      </trkpt>
      <trkpt lat="45.64189" lon="5.61101">
        <ele>217.9</ele>
        <time>2022-09-25T12:46:21Z</time>
      </trkpt>
      <trkpt lat="45.64184" lon="5.61105">
        <ele>217.9</ele>
        <time>2022-09-25T12:46:22Z</time>
      </trkpt>
      <trkpt lat="45.64179" lon="5.61108">
        <ele>217.9</ele>
        <time>2022-09-25T12:46:23Z</time>
      </trkpt>
      <trkpt lat="45.64174" lon="5.61111">
        <ele>217.9</ele>
        <time>2022-09-25T12:46:24Z</time>
      </trkpt>
      <trkpt lat="45.64169" lon="5.61115">
        <ele>217.9</ele>
        <time>2022-09-25T12:46:25Z</time>
      </trkpt>
      <trkpt lat="45.64164" lon="5.61118">
        <ele>217.9</ele>
        <time>2022-09-25T12:46:26Z</time>
      </trkpt>
      <trkpt lat="45.64158" lon="5.61122">
        <ele>217.9</ele>
        <time>2022-09-25T12:46:27Z</time>
      </trkpt>
      <trkpt lat="45.64153" lon="5.61126">
        <ele>217.9</ele>
        <time>2022-09-25T12:46:28Z</time>
      </trkpt>
      <trkpt lat="45.64148" lon="5.61129">
        <ele>217.9</ele>
        <time>2022-09-25T12:46:29Z</time>
      </trkpt>
      <trkpt lat="45.64143" lon="5.61133">
        <ele>217.9</ele>
        <time>2022-09-25T12:46:30Z</time>
      </trkpt>
      <trkpt lat="45.64138" lon="5.61137">
        <ele>217.9</ele>
        <time>2022-09-25T12:46:31Z</time>
      </trkpt>
      <trkpt lat="45.64132" lon="5.61141">
        <ele>217.9</ele>
        <time>2022-09-25T12:46:32Z</time>
      </trkpt>
      <trkpt lat="45.64128" lon="5.61146">
        <ele>217.9</ele>
        <time>2022-09-25T12:46:33Z</time>
      </trkpt>
      <trkpt lat="45.64123" lon="5.6115">
        <ele>217.9</ele>
        <time>2022-09-25T12:46:34Z</time>
      </trkpt>
      <trkpt lat="45.64117" lon="5.61153">
        <ele>217.9</ele>
        <time>2022-09-25T12:46:35Z</time>
      </trkpt>
      <trkpt lat="45.64112" lon="5.61159">
        <ele>217.9</ele>
        <time>2022-09-25T12:46:36Z</time>
      </trkpt>
      <trkpt lat="45.64107" lon="5.61163">
        <ele>217.9</ele>
        <time>2022-09-25T12:46:37Z</time>
      </trkpt>
      <trkpt lat="45.64102" lon="5.61168">
        <ele>217.9</ele>
        <time>2022-09-25T12:46:38Z</time>
      </trkpt>
      <trkpt lat="45.64097" lon="5.61173">
        <ele>217.9</ele>
        <time>2022-09-25T12:46:39Z</time>
      </trkpt>
      <trkpt lat="45.64092" lon="5.61177">
        <ele>217.9</ele>
        <time>2022-09-25T12:46:40Z</time>
      </trkpt>
      <trkpt lat="45.64087" lon="5.61182">
        <ele>217.9</ele>
        <time>2022-09-25T12:46:41Z</time>
      </trkpt>
      <trkpt lat="45.64082" lon="5.61187">
        <ele>217.9</ele>
        <time>2022-09-25T12:46:42Z</time>
      </trkpt>
      <trkpt lat="45.64077" lon="5.61191">
        <ele>217.9</ele>
        <time>2022-09-25T12:46:43Z</time>
      </trkpt>
      <trkpt lat="45.64072" lon="5.61194">
        <ele>217.9</ele>
        <time>2022-09-25T12:46:44Z</time>
      </trkpt>
      <trkpt lat="45.64068" lon="5.612">
        <ele>217.9</ele>
        <time>2022-09-25T12:46:45Z</time>
      </trkpt>
      <trkpt lat="45.64062" lon="5.61205">
        <ele>217.9</ele>
        <time>2022-09-25T12:46:46Z</time>
      </trkpt>
      <trkpt lat="45.64057" lon="5.6121">
        <ele>217.9</ele>
        <time>2022-09-25T12:46:47Z</time>
      </trkpt>
      <trkpt lat="45.64053" lon="5.61215">
        <ele>217.9</ele>
        <time>2022-09-25T12:46:48Z</time>
      </trkpt>
      <trkpt lat="45.64049" lon="5.6122">
        <ele>217.9</ele>
        <time>2022-09-25T12:46:49Z</time>
      </trkpt>
      <trkpt lat="45.64044" lon="5.61225">
        <ele>217.9</ele>
        <time>2022-09-25T12:46:50Z</time>
      </trkpt>
      <trkpt lat="45.64039" lon="5.61231">
        <ele>217.9</ele>
        <time>2022-09-25T12:46:51Z</time>
      </trkpt>
      <trkpt lat="45.64035" lon="5.61236">
        <ele>217.9</ele>
        <time>2022-09-25T12:46:52Z</time>
      </trkpt>
      <trkpt lat="45.6403" lon="5.61242">
        <ele>217.9</ele>
        <time>2022-09-25T12:46:53Z</time>
      </trkpt>
      <trkpt lat="45.64025" lon="5.61248">
        <ele>217.9</ele>
        <time>2022-09-25T12:46:54Z</time>
      </trkpt>
      <trkpt lat="45.64021" lon="5.61252">
        <ele>217.9</ele>
        <time>2022-09-25T12:46:55Z</time>
      </trkpt>
      <trkpt lat="45.64016" lon="5.61258">
        <ele>217.9</ele>
        <time>2022-09-25T12:46:56Z</time>
      </trkpt>
      <trkpt lat="45.64012" lon="5.61263">
        <ele>217.9</ele>
        <time>2022-09-25T12:46:57Z</time>
      </trkpt>
      <trkpt lat="45.64008" lon="5.61269">
        <ele>217.9</ele>
        <time>2022-09-25T12:46:58Z</time>
      </trkpt>
      <trkpt lat="45.64003" lon="5.61275">
        <ele>217.9</ele>
        <time>2022-09-25T12:46:59Z</time>
      </trkpt>
      <trkpt lat="45.63999" lon="5.61281">
        <ele>217.9</ele>
        <time>2022-09-25T12:47:00Z</time>
      </trkpt>
      <trkpt lat="45.63995" lon="5.61286">
        <ele>217.9</ele>
        <time>2022-09-25T12:47:01Z</time>
      </trkpt>
      <trkpt lat="45.6399" lon="5.61292">
        <ele>217.9</ele>
        <time>2022-09-25T12:47:02Z</time>
      </trkpt>
      <trkpt lat="45.63986" lon="5.61298">
        <ele>217.9</ele>
        <time>2022-09-25T12:47:03Z</time>
      </trkpt>
      <trkpt lat="45.63982" lon="5.61304">
        <ele>217.9</ele>
        <time>2022-09-25T12:47:04Z</time>
      </trkpt>
      <trkpt lat="45.63978" lon="5.6131">
        <ele>217.9</ele>
        <time>2022-09-25T12:47:05Z</time>
      </trkpt>
      <trkpt lat="45.63973" lon="5.61316">
        <ele>217.9</ele>
        <time>2022-09-25T12:47:07Z</time>
      </trkpt>
      <trkpt lat="45.63969" lon="5.61322">
        <ele>218</ele>
        <time>2022-09-25T12:47:08Z</time>
      </trkpt>
      <trkpt lat="45.63965" lon="5.61328">
        <ele>218</ele>
        <time>2022-09-25T12:47:09Z</time>
      </trkpt>
      <trkpt lat="45.63961" lon="5.61334">
        <ele>218</ele>
        <time>2022-09-25T12:47:10Z</time>
      </trkpt>
      <trkpt lat="45.63957" lon="5.61341">
        <ele>218</ele>
        <time>2022-09-25T12:47:11Z</time>
      </trkpt>
      <trkpt lat="45.63953" lon="5.61347">
        <ele>218</ele>
        <time>2022-09-25T12:47:12Z</time>
      </trkpt>
      <trkpt lat="45.63949" lon="5.61353">
        <ele>218</ele>
        <time>2022-09-25T12:47:13Z</time>
      </trkpt>
      <trkpt lat="45.63945" lon="5.6136">
        <ele>218</ele>
        <time>2022-09-25T12:47:14Z</time>
      </trkpt>
      <trkpt lat="45.63941" lon="5.61365">
        <ele>218</ele>
        <time>2022-09-25T12:47:15Z</time>
      </trkpt>
      <trkpt lat="45.63937" lon="5.61372">
        <ele>218</ele>
        <time>2022-09-25T12:47:16Z</time>
      </trkpt>
      <trkpt lat="45.63934" lon="5.61378">
        <ele>218</ele>
        <time>2022-09-25T12:47:17Z</time>
      </trkpt>
      <trkpt lat="45.6393" lon="5.61385">
        <ele>218</ele>
        <time>2022-09-25T12:47:18Z</time>
      </trkpt>
      <trkpt lat="45.63927" lon="5.61391">
        <ele>218</ele>
        <time>2022-09-25T12:47:19Z</time>
      </trkpt>
      <trkpt lat="45.63923" lon="5.61397">
        <ele>218</ele>
        <time>2022-09-25T12:47:20Z</time>
      </trkpt>
      <trkpt lat="45.6392" lon="5.61403">
        <ele>218</ele>
        <time>2022-09-25T12:47:21Z</time>
      </trkpt>
      <trkpt lat="45.63916" lon="5.6141">
        <ele>218</ele>
        <time>2022-09-25T12:47:22Z</time>
      </trkpt>
      <trkpt lat="45.63912" lon="5.61416">
        <ele>218</ele>
        <time>2022-09-25T12:47:23Z</time>
      </trkpt>
      <trkpt lat="45.63909" lon="5.61422">
        <ele>218</ele>
        <time>2022-09-25T12:47:24Z</time>
      </trkpt>
      <trkpt lat="45.63906" lon="5.61429">
        <ele>218</ele>
        <time>2022-09-25T12:47:25Z</time>
      </trkpt>
      <trkpt lat="45.63902" lon="5.61436">
        <ele>218</ele>
        <time>2022-09-25T12:47:26Z</time>
      </trkpt>
      <trkpt lat="45.63899" lon="5.61443">
        <ele>218.1</ele>
        <time>2022-09-25T12:47:27Z</time>
      </trkpt>
      <trkpt lat="45.63896" lon="5.61449">
        <ele>218.1</ele>
        <time>2022-09-25T12:47:28Z</time>
      </trkpt>
      <trkpt lat="45.63893" lon="5.61457">
        <ele>218.1</ele>
        <time>2022-09-25T12:47:29Z</time>
      </trkpt>
      <trkpt lat="45.6389" lon="5.61463">
        <ele>218</ele>
        <time>2022-09-25T12:47:30Z</time>
      </trkpt>
      <trkpt lat="45.63887" lon="5.6147">
        <ele>218</ele>
        <time>2022-09-25T12:47:31Z</time>
      </trkpt>
      <trkpt lat="45.63883" lon="5.61477">
        <ele>218</ele>
        <time>2022-09-25T12:47:32Z</time>
      </trkpt>
      <trkpt lat="45.6388" lon="5.61483">
        <ele>218</ele>
        <time>2022-09-25T12:47:33Z</time>
      </trkpt>
      <trkpt lat="45.63877" lon="5.61491">
        <ele>218</ele>
        <time>2022-09-25T12:47:34Z</time>
      </trkpt>
      <trkpt lat="45.63874" lon="5.61498">
        <ele>217.9</ele>
        <time>2022-09-25T12:47:35Z</time>
      </trkpt>
      <trkpt lat="45.63871" lon="5.61505">
        <ele>217.9</ele>
        <time>2022-09-25T12:47:36Z</time>
      </trkpt>
      <trkpt lat="45.63869" lon="5.61512">
        <ele>217.9</ele>
        <time>2022-09-25T12:47:37Z</time>
      </trkpt>
      <trkpt lat="45.63866" lon="5.61519">
        <ele>217.9</ele>
        <time>2022-09-25T12:47:38Z</time>
      </trkpt>
      <trkpt lat="45.63862" lon="5.61526">
        <ele>217.9</ele>
        <time>2022-09-25T12:47:39Z</time>
      </trkpt>
      <trkpt lat="45.63859" lon="5.61533">
        <ele>217.9</ele>
        <time>2022-09-25T12:47:40Z</time>
      </trkpt>
      <trkpt lat="45.63857" lon="5.6154">
        <ele>217.8</ele>
        <time>2022-09-25T12:47:41Z</time>
      </trkpt>
      <trkpt lat="45.63854" lon="5.61547">
        <ele>217.8</ele>
        <time>2022-09-25T12:47:42Z</time>
      </trkpt>
      <trkpt lat="45.63851" lon="5.61554">
        <ele>217.8</ele>
        <time>2022-09-25T12:47:43Z</time>
      </trkpt>
      <trkpt lat="45.63848" lon="5.61561">
        <ele>217.8</ele>
        <time>2022-09-25T12:47:44Z</time>
      </trkpt>
      <trkpt lat="45.63846" lon="5.61569">
        <ele>217.8</ele>
        <time>2022-09-25T12:47:45Z</time>
      </trkpt>
      <trkpt lat="45.63844" lon="5.61576">
        <ele>217.8</ele>
        <time>2022-09-25T12:47:46Z</time>
      </trkpt>
      <trkpt lat="45.63841" lon="5.61583">
        <ele>217.9</ele>
        <time>2022-09-25T12:47:47Z</time>
      </trkpt>
      <trkpt lat="45.63839" lon="5.61591">
        <ele>217.9</ele>
        <time>2022-09-25T12:47:48Z</time>
      </trkpt>
      <trkpt lat="45.63835" lon="5.61598">
        <ele>217.9</ele>
        <time>2022-09-25T12:47:49Z</time>
      </trkpt>
      <trkpt lat="45.63833" lon="5.61605">
        <ele>217.9</ele>
        <time>2022-09-25T12:47:50Z</time>
      </trkpt>
      <trkpt lat="45.63831" lon="5.61612">
        <ele>217.9</ele>
        <time>2022-09-25T12:47:51Z</time>
      </trkpt>
      <trkpt lat="45.63829" lon="5.6162">
        <ele>217.9</ele>
        <time>2022-09-25T12:47:52Z</time>
      </trkpt>
      <trkpt lat="45.63826" lon="5.61627">
        <ele>217.9</ele>
        <time>2022-09-25T12:47:53Z</time>
      </trkpt>
      <trkpt lat="45.63824" lon="5.61634">
        <ele>218</ele>
        <time>2022-09-25T12:47:54Z</time>
      </trkpt>
      <trkpt lat="45.63821" lon="5.61642">
        <ele>218</ele>
        <time>2022-09-25T12:47:55Z</time>
      </trkpt>
      <trkpt lat="45.6382" lon="5.61649">
        <ele>218</ele>
        <time>2022-09-25T12:47:56Z</time>
      </trkpt>
      <trkpt lat="45.63818" lon="5.61656">
        <ele>218</ele>
        <time>2022-09-25T12:47:57Z</time>
      </trkpt>
      <trkpt lat="45.63816" lon="5.61663">
        <ele>218</ele>
        <time>2022-09-25T12:47:58Z</time>
      </trkpt>
      <trkpt lat="45.63814" lon="5.61671">
        <ele>218</ele>
        <time>2022-09-25T12:47:59Z</time>
      </trkpt>
      <trkpt lat="45.63812" lon="5.61678">
        <ele>218</ele>
        <time>2022-09-25T12:48:00Z</time>
      </trkpt>
      <trkpt lat="45.6381" lon="5.61685">
        <ele>218.1</ele>
        <time>2022-09-25T12:48:01Z</time>
      </trkpt>
      <trkpt lat="45.63809" lon="5.61691">
        <ele>218.1</ele>
        <time>2022-09-25T12:48:02Z</time>
      </trkpt>
      <trkpt lat="45.63807" lon="5.61698">
        <ele>218.1</ele>
        <time>2022-09-25T12:48:03Z</time>
      </trkpt>
      <trkpt lat="45.63805" lon="5.61704">
        <ele>218.2</ele>
        <time>2022-09-25T12:48:04Z</time>
      </trkpt>
      <trkpt lat="45.63804" lon="5.6171">
        <ele>218.2</ele>
        <time>2022-09-25T12:48:05Z</time>
      </trkpt>
      <trkpt lat="45.63803" lon="5.61716">
        <ele>218.3</ele>
        <time>2022-09-25T12:48:06Z</time>
      </trkpt>
      <trkpt lat="45.63802" lon="5.61721">
        <ele>218.3</ele>
        <time>2022-09-25T12:48:07Z</time>
      </trkpt>
      <trkpt lat="45.63801" lon="5.61725">
        <ele>218.3</ele>
        <time>2022-09-25T12:48:08Z</time>
      </trkpt>
      <trkpt lat="45.638" lon="5.6173">
        <ele>218.3</ele>
        <time>2022-09-25T12:48:09Z</time>
      </trkpt>
      <trkpt lat="45.638" lon="5.61731">
        <ele>218.3</ele>
        <time>2022-09-25T12:48:10Z</time>
      </trkpt>
      <trkpt lat="45.63799" lon="5.61736">
        <ele>218.3</ele>
        <time>2022-09-25T12:48:11Z</time>
      </trkpt>
      <trkpt lat="45.638" lon="5.6174">
        <ele>218.3</ele>
        <time>2022-09-25T12:48:12Z</time>
      </trkpt>
      <trkpt lat="45.63799" lon="5.61745">
        <ele>218.3</ele>
        <time>2022-09-25T12:48:13Z</time>
      </trkpt>
      <trkpt lat="45.63798" lon="5.61749">
        <ele>218.3</ele>
        <time>2022-09-25T12:48:14Z</time>
      </trkpt>
      <trkpt lat="45.63796" lon="5.61753">
        <ele>218.3</ele>
        <time>2022-09-25T12:48:15Z</time>
      </trkpt>
      <trkpt lat="45.63794" lon="5.61758">
        <ele>218.2</ele>
        <time>2022-09-25T12:48:16Z</time>
      </trkpt>
      <trkpt lat="45.63793" lon="5.61764">
        <ele>218.2</ele>
        <time>2022-09-25T12:48:17Z</time>
      </trkpt>
      <trkpt lat="45.63792" lon="5.6177">
        <ele>218.1</ele>
        <time>2022-09-25T12:48:18Z</time>
      </trkpt>
      <trkpt lat="45.63792" lon="5.61776">
        <ele>218.1</ele>
        <time>2022-09-25T12:48:19Z</time>
      </trkpt>
      <trkpt lat="45.6379" lon="5.6179">
        <ele>218</ele>
        <time>2022-09-25T12:48:20Z</time>
      </trkpt>
      <trkpt lat="45.63789" lon="5.61797">
        <ele>218</ele>
        <time>2022-09-25T12:48:21Z</time>
      </trkpt>
      <trkpt lat="45.63788" lon="5.61804">
        <ele>218</ele>
        <time>2022-09-25T12:48:22Z</time>
      </trkpt>
      <trkpt lat="45.63788" lon="5.61811">
        <ele>218</ele>
        <time>2022-09-25T12:48:23Z</time>
      </trkpt>
      <trkpt lat="45.63787" lon="5.61817">
        <ele>218</ele>
        <time>2022-09-25T12:48:24Z</time>
      </trkpt>
      <trkpt lat="45.63786" lon="5.61824">
        <ele>218</ele>
        <time>2022-09-25T12:48:25Z</time>
      </trkpt>
      <trkpt lat="45.63785" lon="5.6183">
        <ele>218</ele>
        <time>2022-09-25T12:48:26Z</time>
      </trkpt>
      <trkpt lat="45.63784" lon="5.61837">
        <ele>218</ele>
        <time>2022-09-25T12:48:27Z</time>
      </trkpt>
      <trkpt lat="45.63784" lon="5.61843">
        <ele>218</ele>
        <time>2022-09-25T12:48:28Z</time>
      </trkpt>
      <trkpt lat="45.63782" lon="5.6185">
        <ele>218</ele>
        <time>2022-09-25T12:48:29Z</time>
      </trkpt>
      <trkpt lat="45.63783" lon="5.61856">
        <ele>218</ele>
        <time>2022-09-25T12:48:30Z</time>
      </trkpt>
      <trkpt lat="45.63781" lon="5.61863">
        <ele>218</ele>
        <time>2022-09-25T12:48:31Z</time>
      </trkpt>
      <trkpt lat="45.63781" lon="5.61869">
        <ele>218</ele>
        <time>2022-09-25T12:48:32Z</time>
      </trkpt>
      <trkpt lat="45.6378" lon="5.61876">
        <ele>218</ele>
        <time>2022-09-25T12:48:33Z</time>
      </trkpt>
      <trkpt lat="45.6378" lon="5.61883">
        <ele>218</ele>
        <time>2022-09-25T12:48:34Z</time>
      </trkpt>
      <trkpt lat="45.63779" lon="5.61889">
        <ele>218</ele>
        <time>2022-09-25T12:48:35Z</time>
      </trkpt>
      <trkpt lat="45.63778" lon="5.61896">
        <ele>218</ele>
        <time>2022-09-25T12:48:36Z</time>
      </trkpt>
      <trkpt lat="45.63778" lon="5.61903">
        <ele>218.1</ele>
        <time>2022-09-25T12:48:37Z</time>
      </trkpt>
      <trkpt lat="45.63777" lon="5.6191">
        <ele>218.1</ele>
        <time>2022-09-25T12:48:38Z</time>
      </trkpt>
      <trkpt lat="45.63777" lon="5.61917">
        <ele>218.1</ele>
        <time>2022-09-25T12:48:39Z</time>
      </trkpt>
      <trkpt lat="45.63776" lon="5.61924">
        <ele>218.1</ele>
        <time>2022-09-25T12:48:40Z</time>
      </trkpt>
      <trkpt lat="45.63776" lon="5.61932">
        <ele>218.1</ele>
        <time>2022-09-25T12:48:41Z</time>
      </trkpt>
      <trkpt lat="45.63775" lon="5.61939">
        <ele>218.2</ele>
        <time>2022-09-25T12:48:42Z</time>
      </trkpt>
      <trkpt lat="45.63775" lon="5.61946">
        <ele>218.2</ele>
        <time>2022-09-25T12:48:43Z</time>
      </trkpt>
      <trkpt lat="45.63775" lon="5.61954">
        <ele>218.2</ele>
        <time>2022-09-25T12:48:44Z</time>
      </trkpt>
      <trkpt lat="45.63774" lon="5.61961">
        <ele>218.2</ele>
        <time>2022-09-25T12:48:45Z</time>
      </trkpt>
      <trkpt lat="45.63774" lon="5.61969">
        <ele>218.2</ele>
        <time>2022-09-25T12:48:46Z</time>
      </trkpt>
      <trkpt lat="45.63774" lon="5.61976">
        <ele>218.2</ele>
        <time>2022-09-25T12:48:47Z</time>
      </trkpt>
      <trkpt lat="45.63774" lon="5.61984">
        <ele>218.2</ele>
        <time>2022-09-25T12:48:48Z</time>
      </trkpt>
      <trkpt lat="45.63774" lon="5.61992">
        <ele>218.2</ele>
        <time>2022-09-25T12:48:49Z</time>
      </trkpt>
      <trkpt lat="45.63773" lon="5.61999">
        <ele>218.1</ele>
        <time>2022-09-25T12:48:50Z</time>
      </trkpt>
      <trkpt lat="45.63773" lon="5.62007">
        <ele>218.1</ele>
        <time>2022-09-25T12:48:51Z</time>
      </trkpt>
      <trkpt lat="45.63773" lon="5.62015">
        <ele>218.1</ele>
        <time>2022-09-25T12:48:52Z</time>
      </trkpt>
      <trkpt lat="45.63773" lon="5.62022">
        <ele>218.1</ele>
        <time>2022-09-25T12:48:53Z</time>
      </trkpt>
      <trkpt lat="45.63773" lon="5.6203">
        <ele>218.2</ele>
        <time>2022-09-25T12:48:54Z</time>
      </trkpt>
      <trkpt lat="45.63773" lon="5.62038">
        <ele>218.2</ele>
        <time>2022-09-25T12:48:55Z</time>
      </trkpt>
      <trkpt lat="45.63773" lon="5.62045">
        <ele>218.2</ele>
        <time>2022-09-25T12:48:56Z</time>
      </trkpt>
      <trkpt lat="45.63773" lon="5.62053">
        <ele>218.2</ele>
        <time>2022-09-25T12:48:57Z</time>
      </trkpt>
      <trkpt lat="45.63774" lon="5.62061">
        <ele>218.2</ele>
        <time>2022-09-25T12:48:58Z</time>
      </trkpt>
      <trkpt lat="45.63774" lon="5.62068">
        <ele>218.2</ele>
        <time>2022-09-25T12:48:59Z</time>
      </trkpt>
      <trkpt lat="45.63775" lon="5.62076">
        <ele>218.2</ele>
        <time>2022-09-25T12:49:00Z</time>
      </trkpt>
      <trkpt lat="45.63774" lon="5.62084">
        <ele>218.3</ele>
        <time>2022-09-25T12:49:01Z</time>
      </trkpt>
      <trkpt lat="45.63775" lon="5.62091">
        <ele>218.3</ele>
        <time>2022-09-25T12:49:02Z</time>
      </trkpt>
      <trkpt lat="45.63775" lon="5.62099">
        <ele>218.4</ele>
        <time>2022-09-25T12:49:03Z</time>
      </trkpt>
      <trkpt lat="45.63776" lon="5.62106">
        <ele>218.4</ele>
        <time>2022-09-25T12:49:04Z</time>
      </trkpt>
      <trkpt lat="45.63777" lon="5.62113">
        <ele>218.4</ele>
        <time>2022-09-25T12:49:05Z</time>
      </trkpt>
      <trkpt lat="45.63777" lon="5.62121">
        <ele>218.5</ele>
        <time>2022-09-25T12:49:06Z</time>
      </trkpt>
      <trkpt lat="45.63777" lon="5.62128">
        <ele>218.5</ele>
        <time>2022-09-25T12:49:07Z</time>
      </trkpt>
      <trkpt lat="45.63778" lon="5.62135">
        <ele>218.6</ele>
        <time>2022-09-25T12:49:08Z</time>
      </trkpt>
      <trkpt lat="45.63779" lon="5.62142">
        <ele>218.7</ele>
        <time>2022-09-25T12:49:09Z</time>
      </trkpt>
      <trkpt lat="45.63779" lon="5.62149">
        <ele>218.7</ele>
        <time>2022-09-25T12:49:10Z</time>
      </trkpt>
      <trkpt lat="45.63779" lon="5.62155">
        <ele>218.7</ele>
        <time>2022-09-25T12:49:11Z</time>
      </trkpt>
      <trkpt lat="45.63779" lon="5.62162">
        <ele>218.8</ele>
        <time>2022-09-25T12:49:13Z</time>
      </trkpt>
      <trkpt lat="45.63777" lon="5.62168">
        <ele>218.8</ele>
        <time>2022-09-25T12:49:14Z</time>
      </trkpt>
      <trkpt lat="45.63775" lon="5.62174">
        <ele>218.9</ele>
        <time>2022-09-25T12:49:15Z</time>
      </trkpt>
      <trkpt lat="45.63773" lon="5.6218">
        <ele>219</ele>
        <time>2022-09-25T12:49:16Z</time>
      </trkpt>
      <trkpt lat="45.6377" lon="5.62184">
        <ele>219.1</ele>
        <time>2022-09-25T12:49:17Z</time>
      </trkpt>
      <trkpt lat="45.63768" lon="5.62189">
        <ele>219.2</ele>
        <time>2022-09-25T12:49:18Z</time>
      </trkpt>
      <trkpt lat="45.63765" lon="5.62193">
        <ele>219.4</ele>
        <time>2022-09-25T12:49:19Z</time>
      </trkpt>
      <trkpt lat="45.63762" lon="5.62197">
        <ele>219.5</ele>
        <time>2022-09-25T12:49:20Z</time>
      </trkpt>
      <trkpt lat="45.63759" lon="5.622">
        <ele>219.6</ele>
        <time>2022-09-25T12:49:21Z</time>
      </trkpt>
      <trkpt lat="45.63756" lon="5.62202">
        <ele>219.7</ele>
        <time>2022-09-25T12:49:22Z</time>
      </trkpt>
      <trkpt lat="45.63753" lon="5.62203">
        <ele>219.8</ele>
        <time>2022-09-25T12:49:23Z</time>
      </trkpt>
      <trkpt lat="45.6375" lon="5.62205">
        <ele>219.9</ele>
        <time>2022-09-25T12:49:24Z</time>
      </trkpt>
      <trkpt lat="45.63747" lon="5.62206">
        <ele>220.1</ele>
        <time>2022-09-25T12:49:25Z</time>
      </trkpt>
      <trkpt lat="45.63743" lon="5.62207">
        <ele>220.2</ele>
        <time>2022-09-25T12:49:26Z</time>
      </trkpt>
      <trkpt lat="45.6374" lon="5.62208">
        <ele>220.4</ele>
        <time>2022-09-25T12:49:27Z</time>
      </trkpt>
      <trkpt lat="45.63737" lon="5.62208">
        <ele>220.5</ele>
        <time>2022-09-25T12:49:28Z</time>
      </trkpt>
      <trkpt lat="45.63734" lon="5.62209">
        <ele>220.7</ele>
        <time>2022-09-25T12:49:29Z</time>
      </trkpt>
      <trkpt lat="45.6373" lon="5.62209">
        <ele>220.9</ele>
        <time>2022-09-25T12:49:30Z</time>
      </trkpt>
      <trkpt lat="45.63727" lon="5.62209">
        <ele>221</ele>
        <time>2022-09-25T12:49:31Z</time>
      </trkpt>
      <trkpt lat="45.63725" lon="5.62209">
        <ele>221.2</ele>
        <time>2022-09-25T12:49:32Z</time>
      </trkpt>
      <trkpt lat="45.63722" lon="5.6221">
        <ele>221.3</ele>
        <time>2022-09-25T12:49:33Z</time>
      </trkpt>
      <trkpt lat="45.63719" lon="5.6221">
        <ele>221.5</ele>
        <time>2022-09-25T12:49:34Z</time>
      </trkpt>
      <trkpt lat="45.63715" lon="5.6221">
        <ele>221.7</ele>
        <time>2022-09-25T12:49:35Z</time>
      </trkpt>
      <trkpt lat="45.63714" lon="5.6221">
        <ele>221.8</ele>
        <time>2022-09-25T12:49:36Z</time>
      </trkpt>
      <trkpt lat="45.6371" lon="5.6221">
        <ele>222</ele>
        <time>2022-09-25T12:49:37Z</time>
      </trkpt>
      <trkpt lat="45.63708" lon="5.62211">
        <ele>222.1</ele>
        <time>2022-09-25T12:49:38Z</time>
      </trkpt>
      <trkpt lat="45.63705" lon="5.6221">
        <ele>222.3</ele>
        <time>2022-09-25T12:49:39Z</time>
      </trkpt>
      <trkpt lat="45.63704" lon="5.62209">
        <ele>222.4</ele>
        <time>2022-09-25T12:49:40Z</time>
      </trkpt>
      <trkpt lat="45.63701" lon="5.62211">
        <ele>222.5</ele>
        <time>2022-09-25T12:49:41Z</time>
      </trkpt>
      <trkpt lat="45.63698" lon="5.62212">
        <ele>222.9</ele>
        <time>2022-09-25T12:49:42Z</time>
      </trkpt>
      <trkpt lat="45.63697" lon="5.62213">
        <ele>223</ele>
        <time>2022-09-25T12:49:43Z</time>
      </trkpt>
      <trkpt lat="45.63695" lon="5.62217">
        <ele>223.3</ele>
        <time>2022-09-25T12:49:44Z</time>
      </trkpt>
      <trkpt lat="45.63694" lon="5.62218">
        <ele>223.4</ele>
        <time>2022-09-25T12:49:45Z</time>
      </trkpt>
      <trkpt lat="45.63693" lon="5.62223">
        <ele>223.8</ele>
        <time>2022-09-25T12:49:46Z</time>
      </trkpt>
      <trkpt lat="45.63692" lon="5.62224">
        <ele>223.9</ele>
        <time>2022-09-25T12:49:47Z</time>
      </trkpt>
      <trkpt lat="45.6369" lon="5.62228">
        <ele>224.2</ele>
        <time>2022-09-25T12:49:48Z</time>
      </trkpt>
      <trkpt lat="45.6369" lon="5.62228">
        <ele>224.3</ele>
        <time>2022-09-25T12:49:49Z</time>
      </trkpt>
      <trkpt lat="45.63689" lon="5.62232">
        <ele>224.6</ele>
        <time>2022-09-25T12:49:50Z</time>
      </trkpt>
      <trkpt lat="45.63689" lon="5.62234">
        <ele>224.6</ele>
        <time>2022-09-25T12:49:51Z</time>
      </trkpt>
      <trkpt lat="45.63688" lon="5.62236">
        <ele>224.9</ele>
        <time>2022-09-25T12:49:52Z</time>
      </trkpt>
      <trkpt lat="45.63687" lon="5.62238">
        <ele>225</ele>
        <time>2022-09-25T12:49:53Z</time>
      </trkpt>
      <trkpt lat="45.63687" lon="5.6224">
        <ele>225.1</ele>
        <time>2022-09-25T12:49:54Z</time>
      </trkpt>
      <trkpt lat="45.63687" lon="5.6224">
        <ele>225.1</ele>
        <time>2022-09-25T12:49:55Z</time>
      </trkpt>
      <trkpt lat="45.63687" lon="5.6224">
        <ele>225.2</ele>
        <time>2022-09-25T12:49:56Z</time>
      </trkpt>
      <trkpt lat="45.63686" lon="5.6224">
        <ele>225.2</ele>
        <time>2022-09-25T12:49:57Z</time>
      </trkpt>
      <trkpt lat="45.63686" lon="5.6224">
        <ele>225.2</ele>
        <time>2022-09-25T12:49:58Z</time>
      </trkpt>
      <trkpt lat="45.63686" lon="5.62241">
        <ele>225.3</ele>
        <time>2022-09-25T12:49:59Z</time>
      </trkpt>
      <trkpt lat="45.63686" lon="5.62242">
        <ele>225.3</ele>
        <time>2022-09-25T12:50:00Z</time>
      </trkpt>
      <trkpt lat="45.63685" lon="5.62243">
        <ele>225.4</ele>
        <time>2022-09-25T12:50:01Z</time>
      </trkpt>
      <trkpt lat="45.63685" lon="5.62244">
        <ele>225.5</ele>
        <time>2022-09-25T12:50:02Z</time>
      </trkpt>
      <trkpt lat="45.63685" lon="5.62245">
        <ele>225.5</ele>
        <time>2022-09-25T12:50:03Z</time>
      </trkpt>
      <trkpt lat="45.63685" lon="5.62246">
        <ele>225.6</ele>
        <time>2022-09-25T12:50:04Z</time>
      </trkpt>
      <trkpt lat="45.63685" lon="5.62247">
        <ele>225.6</ele>
        <time>2022-09-25T12:50:08Z</time>
      </trkpt>
      <trkpt lat="45.63685" lon="5.62247">
        <ele>225.7</ele>
        <time>2022-09-25T12:50:09Z</time>
      </trkpt>
      <trkpt lat="45.63685" lon="5.62248">
        <ele>225.7</ele>
        <time>2022-09-25T12:50:10Z</time>
      </trkpt>
      <trkpt lat="45.63685" lon="5.62249">
        <ele>225.8</ele>
        <time>2022-09-25T12:50:11Z</time>
      </trkpt>
      <trkpt lat="45.63685" lon="5.6225">
        <ele>225.8</ele>
        <time>2022-09-25T12:50:12Z</time>
      </trkpt>
      <trkpt lat="45.63684" lon="5.62251">
        <ele>225.8</ele>
        <time>2022-09-25T12:50:13Z</time>
      </trkpt>
      <trkpt lat="45.63684" lon="5.62252">
        <ele>225.9</ele>
        <time>2022-09-25T12:50:14Z</time>
      </trkpt>
      <trkpt lat="45.63685" lon="5.62253">
        <ele>225.9</ele>
        <time>2022-09-25T12:50:15Z</time>
      </trkpt>
      <trkpt lat="45.63685" lon="5.62254">
        <ele>225.9</ele>
        <time>2022-09-25T12:50:16Z</time>
      </trkpt>
      <trkpt lat="45.63686" lon="5.62255">
        <ele>225.9</ele>
        <time>2022-09-25T12:50:17Z</time>
      </trkpt>
      <trkpt lat="45.63686" lon="5.62256">
        <ele>225.9</ele>
        <time>2022-09-25T12:50:18Z</time>
      </trkpt>
      <trkpt lat="45.63691" lon="5.62257">
        <ele>225.9</ele>
        <time>2022-09-25T12:50:19Z</time>
      </trkpt>
      <trkpt lat="45.63693" lon="5.62258">
        <ele>225.9</ele>
        <time>2022-09-25T12:50:20Z</time>
      </trkpt>
      <trkpt lat="45.63695" lon="5.62258">
        <ele>225.9</ele>
        <time>2022-09-25T12:50:21Z</time>
      </trkpt>
      <trkpt lat="45.63699" lon="5.62259">
        <ele>226</ele>
        <time>2022-09-25T12:50:22Z</time>
      </trkpt>
      <trkpt lat="45.637" lon="5.6226">
        <ele>226</ele>
        <time>2022-09-25T12:50:23Z</time>
      </trkpt>
      <trkpt lat="45.63704" lon="5.6226">
        <ele>226</ele>
        <time>2022-09-25T12:50:24Z</time>
      </trkpt>
      <trkpt lat="45.63706" lon="5.6226">
        <ele>226</ele>
        <time>2022-09-25T12:50:25Z</time>
      </trkpt>
      <trkpt lat="45.6371" lon="5.62262">
        <ele>226</ele>
        <time>2022-09-25T12:50:26Z</time>
      </trkpt>
      <trkpt lat="45.63711" lon="5.62263">
        <ele>226</ele>
        <time>2022-09-25T12:50:27Z</time>
      </trkpt>
      <trkpt lat="45.63714" lon="5.62263">
        <ele>226.1</ele>
        <time>2022-09-25T12:50:28Z</time>
      </trkpt>
      <trkpt lat="45.63718" lon="5.62264">
        <ele>226.1</ele>
        <time>2022-09-25T12:50:29Z</time>
      </trkpt>
      <trkpt lat="45.6372" lon="5.62265">
        <ele>226.1</ele>
        <time>2022-09-25T12:50:30Z</time>
      </trkpt>
      <trkpt lat="45.63723" lon="5.62266">
        <ele>226.1</ele>
        <time>2022-09-25T12:50:31Z</time>
      </trkpt>
      <trkpt lat="45.63726" lon="5.62268">
        <ele>226.2</ele>
        <time>2022-09-25T12:50:32Z</time>
      </trkpt>
      <trkpt lat="45.63729" lon="5.62268">
        <ele>226.2</ele>
        <time>2022-09-25T12:50:33Z</time>
      </trkpt>
      <trkpt lat="45.63732" lon="5.62269">
        <ele>226.2</ele>
        <time>2022-09-25T12:50:34Z</time>
      </trkpt>
      <trkpt lat="45.63735" lon="5.6227">
        <ele>226.2</ele>
        <time>2022-09-25T12:50:35Z</time>
      </trkpt>
      <trkpt lat="45.63739" lon="5.62271">
        <ele>226.3</ele>
        <time>2022-09-25T12:50:36Z</time>
      </trkpt>
      <trkpt lat="45.63742" lon="5.62272">
        <ele>226.3</ele>
        <time>2022-09-25T12:50:37Z</time>
      </trkpt>
      <trkpt lat="45.63746" lon="5.62273">
        <ele>226.4</ele>
        <time>2022-09-25T12:50:38Z</time>
      </trkpt>
      <trkpt lat="45.63749" lon="5.62274">
        <ele>226.4</ele>
        <time>2022-09-25T12:50:39Z</time>
      </trkpt>
      <trkpt lat="45.63752" lon="5.62275">
        <ele>226.4</ele>
        <time>2022-09-25T12:50:40Z</time>
      </trkpt>
      <trkpt lat="45.63756" lon="5.62276">
        <ele>226.5</ele>
        <time>2022-09-25T12:50:41Z</time>
      </trkpt>
      <trkpt lat="45.6376" lon="5.62278">
        <ele>226.5</ele>
        <time>2022-09-25T12:50:42Z</time>
      </trkpt>
      <trkpt lat="45.63763" lon="5.62279">
        <ele>226.6</ele>
        <time>2022-09-25T12:50:43Z</time>
      </trkpt>
      <trkpt lat="45.63766" lon="5.6228">
        <ele>226.6</ele>
        <time>2022-09-25T12:50:44Z</time>
      </trkpt>
      <trkpt lat="45.63771" lon="5.62281">
        <ele>226.7</ele>
        <time>2022-09-25T12:50:45Z</time>
      </trkpt>
      <trkpt lat="45.63775" lon="5.62282">
        <ele>226.7</ele>
        <time>2022-09-25T12:50:46Z</time>
      </trkpt>
      <trkpt lat="45.63778" lon="5.62283">
        <ele>226.7</ele>
        <time>2022-09-25T12:50:47Z</time>
      </trkpt>
      <trkpt lat="45.63782" lon="5.62285">
        <ele>226.7</ele>
        <time>2022-09-25T12:50:48Z</time>
      </trkpt>
      <trkpt lat="45.63785" lon="5.62286">
        <ele>226.7</ele>
        <time>2022-09-25T12:50:49Z</time>
      </trkpt>
      <trkpt lat="45.63788" lon="5.62287">
        <ele>226.7</ele>
        <time>2022-09-25T12:50:50Z</time>
      </trkpt>
      <trkpt lat="45.63792" lon="5.62288">
        <ele>226.8</ele>
        <time>2022-09-25T12:50:51Z</time>
      </trkpt>
      <trkpt lat="45.63796" lon="5.62289">
        <ele>226.8</ele>
        <time>2022-09-25T12:50:52Z</time>
      </trkpt>
      <trkpt lat="45.638" lon="5.62291">
        <ele>226.8</ele>
        <time>2022-09-25T12:50:53Z</time>
      </trkpt>
      <trkpt lat="45.63803" lon="5.62292">
        <ele>226.9</ele>
        <time>2022-09-25T12:50:54Z</time>
      </trkpt>
      <trkpt lat="45.63807" lon="5.62293">
        <ele>226.9</ele>
        <time>2022-09-25T12:50:55Z</time>
      </trkpt>
      <trkpt lat="45.63811" lon="5.62294">
        <ele>227</ele>
        <time>2022-09-25T12:50:56Z</time>
      </trkpt>
      <trkpt lat="45.63815" lon="5.62296">
        <ele>227</ele>
        <time>2022-09-25T12:50:57Z</time>
      </trkpt>
      <trkpt lat="45.63818" lon="5.62296">
        <ele>227.1</ele>
        <time>2022-09-25T12:50:58Z</time>
      </trkpt>
      <trkpt lat="45.63823" lon="5.62298">
        <ele>227.1</ele>
        <time>2022-09-25T12:50:59Z</time>
      </trkpt>
      <trkpt lat="45.63827" lon="5.62299">
        <ele>227.2</ele>
        <time>2022-09-25T12:51:00Z</time>
      </trkpt>
      <trkpt lat="45.63831" lon="5.623">
        <ele>227.2</ele>
        <time>2022-09-25T12:51:01Z</time>
      </trkpt>
      <trkpt lat="45.63836" lon="5.62301">
        <ele>227.2</ele>
        <time>2022-09-25T12:51:02Z</time>
      </trkpt>
      <trkpt lat="45.6384" lon="5.62302">
        <ele>227.3</ele>
        <time>2022-09-25T12:51:03Z</time>
      </trkpt>
      <trkpt lat="45.63844" lon="5.62304">
        <ele>227.3</ele>
        <time>2022-09-25T12:51:04Z</time>
      </trkpt>
      <trkpt lat="45.63849" lon="5.62305">
        <ele>227.3</ele>
        <time>2022-09-25T12:51:05Z</time>
      </trkpt>
      <trkpt lat="45.63853" lon="5.62306">
        <ele>227.3</ele>
        <time>2022-09-25T12:51:06Z</time>
      </trkpt>
      <trkpt lat="45.63857" lon="5.62307">
        <ele>227.3</ele>
        <time>2022-09-25T12:51:07Z</time>
      </trkpt>
      <trkpt lat="45.63862" lon="5.62309">
        <ele>227.3</ele>
        <time>2022-09-25T12:51:08Z</time>
      </trkpt>
      <trkpt lat="45.63866" lon="5.6231">
        <ele>227.3</ele>
        <time>2022-09-25T12:51:09Z</time>
      </trkpt>
      <trkpt lat="45.63871" lon="5.62311">
        <ele>227.3</ele>
        <time>2022-09-25T12:51:10Z</time>
      </trkpt>
      <trkpt lat="45.63876" lon="5.62312">
        <ele>227.3</ele>
        <time>2022-09-25T12:51:11Z</time>
      </trkpt>
      <trkpt lat="45.63881" lon="5.62313">
        <ele>227.2</ele>
        <time>2022-09-25T12:51:12Z</time>
      </trkpt>
      <trkpt lat="45.63885" lon="5.62314">
        <ele>227.2</ele>
        <time>2022-09-25T12:51:13Z</time>
      </trkpt>
      <trkpt lat="45.6389" lon="5.62316">
        <ele>227.1</ele>
        <time>2022-09-25T12:51:14Z</time>
      </trkpt>
      <trkpt lat="45.63894" lon="5.62318">
        <ele>227.1</ele>
        <time>2022-09-25T12:51:15Z</time>
      </trkpt>
      <trkpt lat="45.63899" lon="5.62319">
        <ele>227</ele>
        <time>2022-09-25T12:51:16Z</time>
      </trkpt>
      <trkpt lat="45.63904" lon="5.6232">
        <ele>226.9</ele>
        <time>2022-09-25T12:51:17Z</time>
      </trkpt>
      <trkpt lat="45.63908" lon="5.62322">
        <ele>226.9</ele>
        <time>2022-09-25T12:51:19Z</time>
      </trkpt>
      <trkpt lat="45.63913" lon="5.62323">
        <ele>226.8</ele>
        <time>2022-09-25T12:51:20Z</time>
      </trkpt>
      <trkpt lat="45.63918" lon="5.62325">
        <ele>226.7</ele>
        <time>2022-09-25T12:51:21Z</time>
      </trkpt>
      <trkpt lat="45.63923" lon="5.62326">
        <ele>226.7</ele>
        <time>2022-09-25T12:51:22Z</time>
      </trkpt>
      <trkpt lat="45.63927" lon="5.62327">
        <ele>226.6</ele>
        <time>2022-09-25T12:51:23Z</time>
      </trkpt>
      <trkpt lat="45.63932" lon="5.62329">
        <ele>226.6</ele>
        <time>2022-09-25T12:51:24Z</time>
      </trkpt>
      <trkpt lat="45.63937" lon="5.6233">
        <ele>226.6</ele>
        <time>2022-09-25T12:51:25Z</time>
      </trkpt>
      <trkpt lat="45.63942" lon="5.62332">
        <ele>226.6</ele>
        <time>2022-09-25T12:51:26Z</time>
      </trkpt>
      <trkpt lat="45.63947" lon="5.62334">
        <ele>226.5</ele>
        <time>2022-09-25T12:51:27Z</time>
      </trkpt>
      <trkpt lat="45.63952" lon="5.62336">
        <ele>226.5</ele>
        <time>2022-09-25T12:51:28Z</time>
      </trkpt>
      <trkpt lat="45.63957" lon="5.62338">
        <ele>226.5</ele>
        <time>2022-09-25T12:51:29Z</time>
      </trkpt>
      <trkpt lat="45.63962" lon="5.62341">
        <ele>226.5</ele>
        <time>2022-09-25T12:51:30Z</time>
      </trkpt>
      <trkpt lat="45.63967" lon="5.62343">
        <ele>226.5</ele>
        <time>2022-09-25T12:51:31Z</time>
      </trkpt>
      <trkpt lat="45.63972" lon="5.62347">
        <ele>226.5</ele>
        <time>2022-09-25T12:51:32Z</time>
      </trkpt>
      <trkpt lat="45.63977" lon="5.62351">
        <ele>226.4</ele>
        <time>2022-09-25T12:51:33Z</time>
      </trkpt>
      <trkpt lat="45.63982" lon="5.62355">
        <ele>226.4</ele>
        <time>2022-09-25T12:51:34Z</time>
      </trkpt>
      <trkpt lat="45.63986" lon="5.62358">
        <ele>226.4</ele>
        <time>2022-09-25T12:51:35Z</time>
      </trkpt>
      <trkpt lat="45.6399" lon="5.62362">
        <ele>226.4</ele>
        <time>2022-09-25T12:51:36Z</time>
      </trkpt>
      <trkpt lat="45.63994" lon="5.62366">
        <ele>226.4</ele>
        <time>2022-09-25T12:51:37Z</time>
      </trkpt>
      <trkpt lat="45.63998" lon="5.6237">
        <ele>226.4</ele>
        <time>2022-09-25T12:51:38Z</time>
      </trkpt>
      <trkpt lat="45.64002" lon="5.62375">
        <ele>226.4</ele>
        <time>2022-09-25T12:51:39Z</time>
      </trkpt>
      <trkpt lat="45.64006" lon="5.62379">
        <ele>226.3</ele>
        <time>2022-09-25T12:51:40Z</time>
      </trkpt>
      <trkpt lat="45.6401" lon="5.62384">
        <ele>226.3</ele>
        <time>2022-09-25T12:51:41Z</time>
      </trkpt>
      <trkpt lat="45.64013" lon="5.62388">
        <ele>226.3</ele>
        <time>2022-09-25T12:51:42Z</time>
      </trkpt>
      <trkpt lat="45.64017" lon="5.62394">
        <ele>226.3</ele>
        <time>2022-09-25T12:51:43Z</time>
      </trkpt>
      <trkpt lat="45.6402" lon="5.62399">
        <ele>226.3</ele>
        <time>2022-09-25T12:51:44Z</time>
      </trkpt>
      <trkpt lat="45.64023" lon="5.62405">
        <ele>226.3</ele>
        <time>2022-09-25T12:51:45Z</time>
      </trkpt>
      <trkpt lat="45.64026" lon="5.62411">
        <ele>226.3</ele>
        <time>2022-09-25T12:51:46Z</time>
      </trkpt>
      <trkpt lat="45.64029" lon="5.62418">
        <ele>226.3</ele>
        <time>2022-09-25T12:51:47Z</time>
      </trkpt>
      <trkpt lat="45.64033" lon="5.62424">
        <ele>226.3</ele>
        <time>2022-09-25T12:51:48Z</time>
      </trkpt>
      <trkpt lat="45.64036" lon="5.62431">
        <ele>226.3</ele>
        <time>2022-09-25T12:51:49Z</time>
      </trkpt>
      <trkpt lat="45.64039" lon="5.62436">
        <ele>226.4</ele>
        <time>2022-09-25T12:51:50Z</time>
      </trkpt>
      <trkpt lat="45.64042" lon="5.62442">
        <ele>226.4</ele>
        <time>2022-09-25T12:51:51Z</time>
      </trkpt>
      <trkpt lat="45.64045" lon="5.62448">
        <ele>226.4</ele>
        <time>2022-09-25T12:51:52Z</time>
      </trkpt>
      <trkpt lat="45.64048" lon="5.62453">
        <ele>226.4</ele>
        <time>2022-09-25T12:51:53Z</time>
      </trkpt>
      <trkpt lat="45.6405" lon="5.62458">
        <ele>226.5</ele>
        <time>2022-09-25T12:51:54Z</time>
      </trkpt>
      <trkpt lat="45.64053" lon="5.62464">
        <ele>226.5</ele>
        <time>2022-09-25T12:51:55Z</time>
      </trkpt>
      <trkpt lat="45.64056" lon="5.62469">
        <ele>226.5</ele>
        <time>2022-09-25T12:51:56Z</time>
      </trkpt>
      <trkpt lat="45.64059" lon="5.62474">
        <ele>226.5</ele>
        <time>2022-09-25T12:51:57Z</time>
      </trkpt>
      <trkpt lat="45.64062" lon="5.62479">
        <ele>226.5</ele>
        <time>2022-09-25T12:51:58Z</time>
      </trkpt>
      <trkpt lat="45.64065" lon="5.62483">
        <ele>226.6</ele>
        <time>2022-09-25T12:51:59Z</time>
      </trkpt>
      <trkpt lat="45.64068" lon="5.62488">
        <ele>226.6</ele>
        <time>2022-09-25T12:52:00Z</time>
      </trkpt>
      <trkpt lat="45.6407" lon="5.62492">
        <ele>226.6</ele>
        <time>2022-09-25T12:52:01Z</time>
      </trkpt>
      <trkpt lat="45.64073" lon="5.62496">
        <ele>226.7</ele>
        <time>2022-09-25T12:52:02Z</time>
      </trkpt>
      <trkpt lat="45.64077" lon="5.62501">
        <ele>226.7</ele>
        <time>2022-09-25T12:52:03Z</time>
      </trkpt>
      <trkpt lat="45.6408" lon="5.62505">
        <ele>226.7</ele>
        <time>2022-09-25T12:52:04Z</time>
      </trkpt>
      <trkpt lat="45.64083" lon="5.6251">
        <ele>226.8</ele>
        <time>2022-09-25T12:52:05Z</time>
      </trkpt>
      <trkpt lat="45.64086" lon="5.62514">
        <ele>226.8</ele>
        <time>2022-09-25T12:52:06Z</time>
      </trkpt>
      <trkpt lat="45.64089" lon="5.62518">
        <ele>226.8</ele>
        <time>2022-09-25T12:52:07Z</time>
      </trkpt>
      <trkpt lat="45.64091" lon="5.62523">
        <ele>226.8</ele>
        <time>2022-09-25T12:52:08Z</time>
      </trkpt>
      <trkpt lat="45.64093" lon="5.62527">
        <ele>226.8</ele>
        <time>2022-09-25T12:52:09Z</time>
      </trkpt>
      <trkpt lat="45.64097" lon="5.6253">
        <ele>226.8</ele>
        <time>2022-09-25T12:52:10Z</time>
      </trkpt>
      <trkpt lat="45.64101" lon="5.62534">
        <ele>226.8</ele>
        <time>2022-09-25T12:52:11Z</time>
      </trkpt>
      <trkpt lat="45.64104" lon="5.62538">
        <ele>226.8</ele>
        <time>2022-09-25T12:52:12Z</time>
      </trkpt>
      <trkpt lat="45.64107" lon="5.62542">
        <ele>226.8</ele>
        <time>2022-09-25T12:52:13Z</time>
      </trkpt>
      <trkpt lat="45.64109" lon="5.62545">
        <ele>226.8</ele>
        <time>2022-09-25T12:52:14Z</time>
      </trkpt>
      <trkpt lat="45.64113" lon="5.62549">
        <ele>226.7</ele>
        <time>2022-09-25T12:52:15Z</time>
      </trkpt>
      <trkpt lat="45.64114" lon="5.62551">
        <ele>226.7</ele>
        <time>2022-09-25T12:52:16Z</time>
      </trkpt>
      <trkpt lat="45.64118" lon="5.62554">
        <ele>226.7</ele>
        <time>2022-09-25T12:52:17Z</time>
      </trkpt>
      <trkpt lat="45.64122" lon="5.62557">
        <ele>226.6</ele>
        <time>2022-09-25T12:52:18Z</time>
      </trkpt>
      <trkpt lat="45.64127" lon="5.62561">
        <ele>226.6</ele>
        <time>2022-09-25T12:52:19Z</time>
      </trkpt>
      <trkpt lat="45.6413" lon="5.62565">
        <ele>226.6</ele>
        <time>2022-09-25T12:52:20Z</time>
      </trkpt>
      <trkpt lat="45.64133" lon="5.6257">
        <ele>226.6</ele>
        <time>2022-09-25T12:52:21Z</time>
      </trkpt>
      <trkpt lat="45.64135" lon="5.62573">
        <ele>226.6</ele>
        <time>2022-09-25T12:52:22Z</time>
      </trkpt>
      <trkpt lat="45.64137" lon="5.62577">
        <ele>226.6</ele>
        <time>2022-09-25T12:52:23Z</time>
      </trkpt>
      <trkpt lat="45.64138" lon="5.62582">
        <ele>226.6</ele>
        <time>2022-09-25T12:52:24Z</time>
      </trkpt>
      <trkpt lat="45.6414" lon="5.62587">
        <ele>226.6</ele>
        <time>2022-09-25T12:52:25Z</time>
      </trkpt>
      <trkpt lat="45.64142" lon="5.62593">
        <ele>226.4</ele>
        <time>2022-09-25T12:52:26Z</time>
      </trkpt>
      <trkpt lat="45.64144" lon="5.62598">
        <ele>226.3</ele>
        <time>2022-09-25T12:52:27Z</time>
      </trkpt>
      <trkpt lat="45.64146" lon="5.62605">
        <ele>226.2</ele>
        <time>2022-09-25T12:52:28Z</time>
      </trkpt>
      <trkpt lat="45.64147" lon="5.62611">
        <ele>226.1</ele>
        <time>2022-09-25T12:52:29Z</time>
      </trkpt>
      <trkpt lat="45.64149" lon="5.62618">
        <ele>225.9</ele>
        <time>2022-09-25T12:52:30Z</time>
      </trkpt>
      <trkpt lat="45.6415" lon="5.62626">
        <ele>225.8</ele>
        <time>2022-09-25T12:52:31Z</time>
      </trkpt>
      <trkpt lat="45.64152" lon="5.62634">
        <ele>225.7</ele>
        <time>2022-09-25T12:52:32Z</time>
      </trkpt>
      <trkpt lat="45.64152" lon="5.62642">
        <ele>225.5</ele>
        <time>2022-09-25T12:52:33Z</time>
      </trkpt>
      <trkpt lat="45.64154" lon="5.62648">
        <ele>225.4</ele>
        <time>2022-09-25T12:52:34Z</time>
      </trkpt>
      <trkpt lat="45.64154" lon="5.62655">
        <ele>225.3</ele>
        <time>2022-09-25T12:52:35Z</time>
      </trkpt>
      <trkpt lat="45.64156" lon="5.62663">
        <ele>225.2</ele>
        <time>2022-09-25T12:52:36Z</time>
      </trkpt>
      <trkpt lat="45.64155" lon="5.62668">
        <ele>225.1</ele>
        <time>2022-09-25T12:52:37Z</time>
      </trkpt>
      <trkpt lat="45.64154" lon="5.62683">
        <ele>224.9</ele>
        <time>2022-09-25T12:52:38Z</time>
      </trkpt>
      <trkpt lat="45.64152" lon="5.62689">
        <ele>224.7</ele>
        <time>2022-09-25T12:52:39Z</time>
      </trkpt>
      <trkpt lat="45.64152" lon="5.62695">
        <ele>224.6</ele>
        <time>2022-09-25T12:52:40Z</time>
      </trkpt>
      <trkpt lat="45.6415" lon="5.62702">
        <ele>224.4</ele>
        <time>2022-09-25T12:52:41Z</time>
      </trkpt>
      <trkpt lat="45.64148" lon="5.62709">
        <ele>224.2</ele>
        <time>2022-09-25T12:52:42Z</time>
      </trkpt>
      <trkpt lat="45.64147" lon="5.62717">
        <ele>224</ele>
        <time>2022-09-25T12:52:43Z</time>
      </trkpt>
      <trkpt lat="45.64146" lon="5.62723">
        <ele>223.8</ele>
        <time>2022-09-25T12:52:44Z</time>
      </trkpt>
      <trkpt lat="45.64144" lon="5.62731">
        <ele>223.6</ele>
        <time>2022-09-25T12:52:45Z</time>
      </trkpt>
      <trkpt lat="45.64142" lon="5.62738">
        <ele>223.4</ele>
        <time>2022-09-25T12:52:46Z</time>
      </trkpt>
      <trkpt lat="45.64139" lon="5.62746">
        <ele>223.1</ele>
        <time>2022-09-25T12:52:47Z</time>
      </trkpt>
      <trkpt lat="45.64136" lon="5.62752">
        <ele>222.9</ele>
        <time>2022-09-25T12:52:48Z</time>
      </trkpt>
      <trkpt lat="45.64134" lon="5.62759">
        <ele>222.7</ele>
        <time>2022-09-25T12:52:49Z</time>
      </trkpt>
      <trkpt lat="45.64131" lon="5.62768">
        <ele>222.5</ele>
        <time>2022-09-25T12:52:50Z</time>
      </trkpt>
      <trkpt lat="45.64129" lon="5.62778">
        <ele>222.2</ele>
        <time>2022-09-25T12:52:51Z</time>
      </trkpt>
      <trkpt lat="45.64128" lon="5.62786">
        <ele>221.9</ele>
        <time>2022-09-25T12:52:52Z</time>
      </trkpt>
      <trkpt lat="45.64127" lon="5.62793">
        <ele>221.8</ele>
        <time>2022-09-25T12:52:53Z</time>
      </trkpt>
      <trkpt lat="45.64125" lon="5.62802">
        <ele>221.7</ele>
        <time>2022-09-25T12:52:54Z</time>
      </trkpt>
      <trkpt lat="45.64123" lon="5.62812">
        <ele>221.5</ele>
        <time>2022-09-25T12:52:55Z</time>
      </trkpt>
      <trkpt lat="45.64121" lon="5.62819">
        <ele>221.4</ele>
        <time>2022-09-25T12:52:56Z</time>
      </trkpt>
      <trkpt lat="45.64119" lon="5.62828">
        <ele>221.3</ele>
        <time>2022-09-25T12:52:57Z</time>
      </trkpt>
      <trkpt lat="45.64118" lon="5.62838">
        <ele>221.2</ele>
        <time>2022-09-25T12:52:58Z</time>
      </trkpt>
      <trkpt lat="45.64117" lon="5.62847">
        <ele>221.2</ele>
        <time>2022-09-25T12:52:59Z</time>
      </trkpt>
      <trkpt lat="45.64116" lon="5.62857">
        <ele>221.1</ele>
        <time>2022-09-25T12:53:00Z</time>
      </trkpt>
      <trkpt lat="45.64116" lon="5.62866">
        <ele>221.1</ele>
        <time>2022-09-25T12:53:01Z</time>
      </trkpt>
      <trkpt lat="45.64116" lon="5.62874">
        <ele>221.2</ele>
        <time>2022-09-25T12:53:02Z</time>
      </trkpt>
      <trkpt lat="45.64115" lon="5.62884">
        <ele>221.2</ele>
        <time>2022-09-25T12:53:03Z</time>
      </trkpt>
      <trkpt lat="45.64114" lon="5.62892">
        <ele>221.3</ele>
        <time>2022-09-25T12:53:04Z</time>
      </trkpt>
      <trkpt lat="45.64114" lon="5.629">
        <ele>221.4</ele>
        <time>2022-09-25T12:53:05Z</time>
      </trkpt>
      <trkpt lat="45.64114" lon="5.62908">
        <ele>221.5</ele>
        <time>2022-09-25T12:53:06Z</time>
      </trkpt>
      <trkpt lat="45.64114" lon="5.62915">
        <ele>221.6</ele>
        <time>2022-09-25T12:53:07Z</time>
      </trkpt>
      <trkpt lat="45.64113" lon="5.62923">
        <ele>221.8</ele>
        <time>2022-09-25T12:53:08Z</time>
      </trkpt>
      <trkpt lat="45.64113" lon="5.6293">
        <ele>221.9</ele>
        <time>2022-09-25T12:53:09Z</time>
      </trkpt>
      <trkpt lat="45.64112" lon="5.62937">
        <ele>222</ele>
        <time>2022-09-25T12:53:10Z</time>
      </trkpt>
      <trkpt lat="45.64112" lon="5.62944">
        <ele>222.1</ele>
        <time>2022-09-25T12:53:11Z</time>
      </trkpt>
      <trkpt lat="45.64112" lon="5.62951">
        <ele>222.3</ele>
        <time>2022-09-25T12:53:12Z</time>
      </trkpt>
      <trkpt lat="45.64111" lon="5.62958">
        <ele>222.4</ele>
        <time>2022-09-25T12:53:13Z</time>
      </trkpt>
      <trkpt lat="45.64111" lon="5.62964">
        <ele>222.6</ele>
        <time>2022-09-25T12:53:14Z</time>
      </trkpt>
      <trkpt lat="45.64111" lon="5.62971">
        <ele>222.7</ele>
        <time>2022-09-25T12:53:15Z</time>
      </trkpt>
      <trkpt lat="45.64111" lon="5.62977">
        <ele>222.9</ele>
        <time>2022-09-25T12:53:16Z</time>
      </trkpt>
      <trkpt lat="45.6411" lon="5.62984">
        <ele>223</ele>
        <time>2022-09-25T12:53:17Z</time>
      </trkpt>
      <trkpt lat="45.64109" lon="5.6299">
        <ele>223.2</ele>
        <time>2022-09-25T12:53:18Z</time>
      </trkpt>
      <trkpt lat="45.64109" lon="5.62996">
        <ele>223.3</ele>
        <time>2022-09-25T12:53:19Z</time>
      </trkpt>
      <trkpt lat="45.64108" lon="5.63002">
        <ele>223.4</ele>
        <time>2022-09-25T12:53:20Z</time>
      </trkpt>
      <trkpt lat="45.64107" lon="5.63008">
        <ele>223.5</ele>
        <time>2022-09-25T12:53:21Z</time>
      </trkpt>
      <trkpt lat="45.64106" lon="5.63014">
        <ele>223.6</ele>
        <time>2022-09-25T12:53:22Z</time>
      </trkpt>
      <trkpt lat="45.64105" lon="5.63019">
        <ele>223.7</ele>
        <time>2022-09-25T12:53:23Z</time>
      </trkpt>
      <trkpt lat="45.64103" lon="5.63024">
        <ele>223.8</ele>
        <time>2022-09-25T12:53:25Z</time>
      </trkpt>
      <trkpt lat="45.64102" lon="5.6303">
        <ele>223.9</ele>
        <time>2022-09-25T12:53:26Z</time>
      </trkpt>
      <trkpt lat="45.641" lon="5.63035">
        <ele>224</ele>
        <time>2022-09-25T12:53:27Z</time>
      </trkpt>
      <trkpt lat="45.64099" lon="5.63041">
        <ele>224.1</ele>
        <time>2022-09-25T12:53:28Z</time>
      </trkpt>
      <trkpt lat="45.64098" lon="5.63046">
        <ele>224.1</ele>
        <time>2022-09-25T12:53:29Z</time>
      </trkpt>
      <trkpt lat="45.64097" lon="5.63051">
        <ele>224.1</ele>
        <time>2022-09-25T12:53:30Z</time>
      </trkpt>
      <trkpt lat="45.64095" lon="5.63056">
        <ele>224.1</ele>
        <time>2022-09-25T12:53:31Z</time>
      </trkpt>
      <trkpt lat="45.64093" lon="5.63062">
        <ele>224.1</ele>
        <time>2022-09-25T12:53:32Z</time>
      </trkpt>
      <trkpt lat="45.64092" lon="5.63067">
        <ele>224.1</ele>
        <time>2022-09-25T12:53:33Z</time>
      </trkpt>
      <trkpt lat="45.64091" lon="5.63073">
        <ele>224</ele>
        <time>2022-09-25T12:53:34Z</time>
      </trkpt>
      <trkpt lat="45.64089" lon="5.63078">
        <ele>223.9</ele>
        <time>2022-09-25T12:53:35Z</time>
      </trkpt>
      <trkpt lat="45.64087" lon="5.63084">
        <ele>223.8</ele>
        <time>2022-09-25T12:53:36Z</time>
      </trkpt>
      <trkpt lat="45.64085" lon="5.6309">
        <ele>223.7</ele>
        <time>2022-09-25T12:53:37Z</time>
      </trkpt>
      <trkpt lat="45.64083" lon="5.63097">
        <ele>223.6</ele>
        <time>2022-09-25T12:53:38Z</time>
      </trkpt>
      <trkpt lat="45.64081" lon="5.63101">
        <ele>223.5</ele>
        <time>2022-09-25T12:53:39Z</time>
      </trkpt>
      <trkpt lat="45.64081" lon="5.63106">
        <ele>223.4</ele>
        <time>2022-09-25T12:53:40Z</time>
      </trkpt>
      <trkpt lat="45.6408" lon="5.63113">
        <ele>223.2</ele>
        <time>2022-09-25T12:53:41Z</time>
      </trkpt>
      <trkpt lat="45.64079" lon="5.6312">
        <ele>223</ele>
        <time>2022-09-25T12:53:42Z</time>
      </trkpt>
      <trkpt lat="45.64077" lon="5.63127">
        <ele>222.9</ele>
        <time>2022-09-25T12:53:43Z</time>
      </trkpt>
      <trkpt lat="45.64076" lon="5.63133">
        <ele>222.7</ele>
        <time>2022-09-25T12:53:44Z</time>
      </trkpt>
      <trkpt lat="45.64075" lon="5.6314">
        <ele>222.5</ele>
        <time>2022-09-25T12:53:45Z</time>
      </trkpt>
      <trkpt lat="45.64075" lon="5.63147">
        <ele>222.3</ele>
        <time>2022-09-25T12:53:46Z</time>
      </trkpt>
      <trkpt lat="45.64075" lon="5.63154">
        <ele>222.1</ele>
        <time>2022-09-25T12:53:47Z</time>
      </trkpt>
      <trkpt lat="45.64075" lon="5.63159">
        <ele>222</ele>
        <time>2022-09-25T12:53:48Z</time>
      </trkpt>
      <trkpt lat="45.64074" lon="5.63167">
        <ele>221.7</ele>
        <time>2022-09-25T12:53:49Z</time>
      </trkpt>
      <trkpt lat="45.64073" lon="5.63175">
        <ele>221.5</ele>
        <time>2022-09-25T12:53:50Z</time>
      </trkpt>
      <trkpt lat="45.64073" lon="5.63183">
        <ele>221.3</ele>
        <time>2022-09-25T12:53:51Z</time>
      </trkpt>
      <trkpt lat="45.64073" lon="5.6319">
        <ele>221.2</ele>
        <time>2022-09-25T12:53:52Z</time>
      </trkpt>
      <trkpt lat="45.64073" lon="5.63198">
        <ele>221</ele>
        <time>2022-09-25T12:53:53Z</time>
      </trkpt>
      <trkpt lat="45.64071" lon="5.63206">
        <ele>220.8</ele>
        <time>2022-09-25T12:53:54Z</time>
      </trkpt>
      <trkpt lat="45.64071" lon="5.63214">
        <ele>220.7</ele>
        <time>2022-09-25T12:53:55Z</time>
      </trkpt>
      <trkpt lat="45.6407" lon="5.63223">
        <ele>220.5</ele>
        <time>2022-09-25T12:53:56Z</time>
      </trkpt>
      <trkpt lat="45.6407" lon="5.63232">
        <ele>220.3</ele>
        <time>2022-09-25T12:53:57Z</time>
      </trkpt>
      <trkpt lat="45.64069" lon="5.63241">
        <ele>220.2</ele>
        <time>2022-09-25T12:53:58Z</time>
      </trkpt>
      <trkpt lat="45.64069" lon="5.6325">
        <ele>220.1</ele>
        <time>2022-09-25T12:53:59Z</time>
      </trkpt>
      <trkpt lat="45.64069" lon="5.63259">
        <ele>220</ele>
        <time>2022-09-25T12:54:00Z</time>
      </trkpt>
      <trkpt lat="45.64069" lon="5.63267">
        <ele>219.8</ele>
        <time>2022-09-25T12:54:01Z</time>
      </trkpt>
      <trkpt lat="45.64069" lon="5.63274">
        <ele>219.8</ele>
        <time>2022-09-25T12:54:02Z</time>
      </trkpt>
      <trkpt lat="45.64069" lon="5.63279">
        <ele>219.7</ele>
        <time>2022-09-25T12:54:03Z</time>
      </trkpt>
      <trkpt lat="45.64068" lon="5.63283">
        <ele>219.7</ele>
        <time>2022-09-25T12:54:04Z</time>
      </trkpt>
      <trkpt lat="45.64067" lon="5.63288">
        <ele>219.6</ele>
        <time>2022-09-25T12:54:05Z</time>
      </trkpt>
      <trkpt lat="45.64066" lon="5.63291">
        <ele>219.6</ele>
        <time>2022-09-25T12:54:06Z</time>
      </trkpt>
      <trkpt lat="45.64065" lon="5.63296">
        <ele>219.5</ele>
        <time>2022-09-25T12:54:07Z</time>
      </trkpt>
      <trkpt lat="45.64064" lon="5.63298">
        <ele>219.5</ele>
        <time>2022-09-25T12:54:08Z</time>
      </trkpt>
      <trkpt lat="45.64063" lon="5.63302">
        <ele>219.4</ele>
        <time>2022-09-25T12:54:09Z</time>
      </trkpt>
      <trkpt lat="45.64062" lon="5.63306">
        <ele>219.4</ele>
        <time>2022-09-25T12:54:10Z</time>
      </trkpt>
      <trkpt lat="45.64059" lon="5.6331">
        <ele>219.3</ele>
        <time>2022-09-25T12:54:11Z</time>
      </trkpt>
      <trkpt lat="45.64057" lon="5.63314">
        <ele>219.2</ele>
        <time>2022-09-25T12:54:12Z</time>
      </trkpt>
      <trkpt lat="45.64056" lon="5.6332">
        <ele>219.1</ele>
        <time>2022-09-25T12:54:13Z</time>
      </trkpt>
      <trkpt lat="45.64055" lon="5.63325">
        <ele>219.1</ele>
        <time>2022-09-25T12:54:14Z</time>
      </trkpt>
      <trkpt lat="45.64054" lon="5.63331">
        <ele>219</ele>
        <time>2022-09-25T12:54:15Z</time>
      </trkpt>
      <trkpt lat="45.64053" lon="5.63337">
        <ele>218.9</ele>
        <time>2022-09-25T12:54:16Z</time>
      </trkpt>
      <trkpt lat="45.64052" lon="5.63343">
        <ele>218.9</ele>
        <time>2022-09-25T12:54:17Z</time>
      </trkpt>
      <trkpt lat="45.64051" lon="5.6335">
        <ele>218.8</ele>
        <time>2022-09-25T12:54:18Z</time>
      </trkpt>
      <trkpt lat="45.6405" lon="5.63357">
        <ele>218.7</ele>
        <time>2022-09-25T12:54:19Z</time>
      </trkpt>
      <trkpt lat="45.64049" lon="5.63363">
        <ele>218.7</ele>
        <time>2022-09-25T12:54:20Z</time>
      </trkpt>
      <trkpt lat="45.64048" lon="5.6337">
        <ele>218.6</ele>
        <time>2022-09-25T12:54:21Z</time>
      </trkpt>
      <trkpt lat="45.64048" lon="5.63375">
        <ele>218.6</ele>
        <time>2022-09-25T12:54:22Z</time>
      </trkpt>
      <trkpt lat="45.64047" lon="5.63382">
        <ele>218.6</ele>
        <time>2022-09-25T12:54:23Z</time>
      </trkpt>
      <trkpt lat="45.64047" lon="5.63388">
        <ele>218.5</ele>
        <time>2022-09-25T12:54:24Z</time>
      </trkpt>
      <trkpt lat="45.64047" lon="5.63395">
        <ele>218.5</ele>
        <time>2022-09-25T12:54:25Z</time>
      </trkpt>
      <trkpt lat="45.64047" lon="5.63402">
        <ele>218.5</ele>
        <time>2022-09-25T12:54:26Z</time>
      </trkpt>
      <trkpt lat="45.64047" lon="5.63408">
        <ele>218.4</ele>
        <time>2022-09-25T12:54:27Z</time>
      </trkpt>
      <trkpt lat="45.64048" lon="5.63415">
        <ele>218.4</ele>
        <time>2022-09-25T12:54:28Z</time>
      </trkpt>
      <trkpt lat="45.64048" lon="5.63421">
        <ele>218.4</ele>
        <time>2022-09-25T12:54:29Z</time>
      </trkpt>
      <trkpt lat="45.6405" lon="5.63428">
        <ele>218.3</ele>
        <time>2022-09-25T12:54:30Z</time>
      </trkpt>
      <trkpt lat="45.6405" lon="5.63435">
        <ele>218.3</ele>
        <time>2022-09-25T12:54:31Z</time>
      </trkpt>
      <trkpt lat="45.64051" lon="5.63443">
        <ele>218.2</ele>
        <time>2022-09-25T12:54:32Z</time>
      </trkpt>
      <trkpt lat="45.64053" lon="5.6345">
        <ele>218.2</ele>
        <time>2022-09-25T12:54:33Z</time>
      </trkpt>
      <trkpt lat="45.64053" lon="5.63457">
        <ele>218.1</ele>
        <time>2022-09-25T12:54:34Z</time>
      </trkpt>
      <trkpt lat="45.64053" lon="5.63464">
        <ele>218.1</ele>
        <time>2022-09-25T12:54:35Z</time>
      </trkpt>
      <trkpt lat="45.64054" lon="5.63472">
        <ele>218.1</ele>
        <time>2022-09-25T12:54:36Z</time>
      </trkpt>
      <trkpt lat="45.64054" lon="5.6348">
        <ele>218</ele>
        <time>2022-09-25T12:54:37Z</time>
      </trkpt>
      <trkpt lat="45.64055" lon="5.63487">
        <ele>218</ele>
        <time>2022-09-25T12:54:38Z</time>
      </trkpt>
      <trkpt lat="45.64056" lon="5.63494">
        <ele>218</ele>
        <time>2022-09-25T12:54:39Z</time>
      </trkpt>
      <trkpt lat="45.64057" lon="5.63501">
        <ele>217.9</ele>
        <time>2022-09-25T12:54:40Z</time>
      </trkpt>
      <trkpt lat="45.64058" lon="5.63509">
        <ele>217.9</ele>
        <time>2022-09-25T12:54:41Z</time>
      </trkpt>
      <trkpt lat="45.6406" lon="5.63516">
        <ele>217.9</ele>
        <time>2022-09-25T12:54:42Z</time>
      </trkpt>
      <trkpt lat="45.64062" lon="5.63523">
        <ele>217.9</ele>
        <time>2022-09-25T12:54:43Z</time>
      </trkpt>
      <trkpt lat="45.64063" lon="5.6353">
        <ele>217.9</ele>
        <time>2022-09-25T12:54:44Z</time>
      </trkpt>
      <trkpt lat="45.64065" lon="5.63537">
        <ele>217.9</ele>
        <time>2022-09-25T12:54:45Z</time>
      </trkpt>
      <trkpt lat="45.64066" lon="5.63544">
        <ele>218</ele>
        <time>2022-09-25T12:54:46Z</time>
      </trkpt>
      <trkpt lat="45.64068" lon="5.63551">
        <ele>218</ele>
        <time>2022-09-25T12:54:47Z</time>
      </trkpt>
      <trkpt lat="45.6407" lon="5.63557">
        <ele>218.1</ele>
        <time>2022-09-25T12:54:48Z</time>
      </trkpt>
      <trkpt lat="45.64071" lon="5.63564">
        <ele>218.1</ele>
        <time>2022-09-25T12:54:49Z</time>
      </trkpt>
      <trkpt lat="45.64074" lon="5.63576">
        <ele>218.2</ele>
        <time>2022-09-25T12:54:50Z</time>
      </trkpt>
      <trkpt lat="45.64075" lon="5.63583">
        <ele>218.2</ele>
        <time>2022-09-25T12:54:51Z</time>
      </trkpt>
      <trkpt lat="45.64076" lon="5.63589">
        <ele>218.3</ele>
        <time>2022-09-25T12:54:52Z</time>
      </trkpt>
      <trkpt lat="45.64078" lon="5.63595">
        <ele>218.3</ele>
        <time>2022-09-25T12:54:53Z</time>
      </trkpt>
      <trkpt lat="45.64079" lon="5.63602">
        <ele>218.3</ele>
        <time>2022-09-25T12:54:54Z</time>
      </trkpt>
      <trkpt lat="45.64079" lon="5.63608">
        <ele>218.4</ele>
        <time>2022-09-25T12:54:55Z</time>
      </trkpt>
      <trkpt lat="45.6408" lon="5.63614">
        <ele>218.4</ele>
        <time>2022-09-25T12:54:56Z</time>
      </trkpt>
      <trkpt lat="45.6408" lon="5.63622">
        <ele>218.4</ele>
        <time>2022-09-25T12:54:57Z</time>
      </trkpt>
      <trkpt lat="45.6408" lon="5.63629">
        <ele>218.4</ele>
        <time>2022-09-25T12:54:58Z</time>
      </trkpt>
      <trkpt lat="45.64079" lon="5.63635">
        <ele>218.4</ele>
        <time>2022-09-25T12:54:59Z</time>
      </trkpt>
      <trkpt lat="45.64079" lon="5.63642">
        <ele>218.4</ele>
        <time>2022-09-25T12:55:00Z</time>
      </trkpt>
      <trkpt lat="45.64078" lon="5.63649">
        <ele>218.4</ele>
        <time>2022-09-25T12:55:01Z</time>
      </trkpt>
      <trkpt lat="45.64077" lon="5.63655">
        <ele>218.4</ele>
        <time>2022-09-25T12:55:02Z</time>
      </trkpt>
      <trkpt lat="45.64076" lon="5.63662">
        <ele>218.4</ele>
        <time>2022-09-25T12:55:03Z</time>
      </trkpt>
      <trkpt lat="45.64075" lon="5.63669">
        <ele>218.3</ele>
        <time>2022-09-25T12:55:04Z</time>
      </trkpt>
      <trkpt lat="45.64074" lon="5.63675">
        <ele>218.3</ele>
        <time>2022-09-25T12:55:05Z</time>
      </trkpt>
      <trkpt lat="45.64073" lon="5.63682">
        <ele>218.3</ele>
        <time>2022-09-25T12:55:06Z</time>
      </trkpt>
      <trkpt lat="45.64073" lon="5.63689">
        <ele>218.3</ele>
        <time>2022-09-25T12:55:07Z</time>
      </trkpt>
      <trkpt lat="45.64072" lon="5.63696">
        <ele>218.3</ele>
        <time>2022-09-25T12:55:08Z</time>
      </trkpt>
      <trkpt lat="45.64072" lon="5.63703">
        <ele>218.3</ele>
        <time>2022-09-25T12:55:09Z</time>
      </trkpt>
      <trkpt lat="45.64073" lon="5.63709">
        <ele>218.3</ele>
        <time>2022-09-25T12:55:10Z</time>
      </trkpt>
      <trkpt lat="45.64073" lon="5.63716">
        <ele>218.3</ele>
        <time>2022-09-25T12:55:11Z</time>
      </trkpt>
      <trkpt lat="45.64074" lon="5.63722">
        <ele>218.3</ele>
        <time>2022-09-25T12:55:12Z</time>
      </trkpt>
      <trkpt lat="45.64074" lon="5.63728">
        <ele>218.4</ele>
        <time>2022-09-25T12:55:13Z</time>
      </trkpt>
      <trkpt lat="45.64075" lon="5.63734">
        <ele>218.4</ele>
        <time>2022-09-25T12:55:14Z</time>
      </trkpt>
      <trkpt lat="45.64075" lon="5.63741">
        <ele>218.4</ele>
        <time>2022-09-25T12:55:15Z</time>
      </trkpt>
      <trkpt lat="45.64075" lon="5.63747">
        <ele>218.4</ele>
        <time>2022-09-25T12:55:16Z</time>
      </trkpt>
      <trkpt lat="45.64076" lon="5.63754">
        <ele>218.4</ele>
        <time>2022-09-25T12:55:17Z</time>
      </trkpt>
      <trkpt lat="45.64076" lon="5.6376">
        <ele>218.4</ele>
        <time>2022-09-25T12:55:18Z</time>
      </trkpt>
      <trkpt lat="45.64077" lon="5.63767">
        <ele>218.4</ele>
        <time>2022-09-25T12:55:19Z</time>
      </trkpt>
      <trkpt lat="45.64077" lon="5.63774">
        <ele>218.4</ele>
        <time>2022-09-25T12:55:20Z</time>
      </trkpt>
      <trkpt lat="45.64078" lon="5.63781">
        <ele>218.4</ele>
        <time>2022-09-25T12:55:21Z</time>
      </trkpt>
      <trkpt lat="45.64078" lon="5.63787">
        <ele>218.4</ele>
        <time>2022-09-25T12:55:22Z</time>
      </trkpt>
      <trkpt lat="45.64078" lon="5.63795">
        <ele>218.4</ele>
        <time>2022-09-25T12:55:23Z</time>
      </trkpt>
      <trkpt lat="45.64079" lon="5.63802">
        <ele>218.5</ele>
        <time>2022-09-25T12:55:24Z</time>
      </trkpt>
      <trkpt lat="45.6408" lon="5.63809">
        <ele>218.5</ele>
        <time>2022-09-25T12:55:25Z</time>
      </trkpt>
      <trkpt lat="45.6408" lon="5.63816">
        <ele>218.5</ele>
        <time>2022-09-25T12:55:26Z</time>
      </trkpt>
      <trkpt lat="45.64081" lon="5.63823">
        <ele>218.5</ele>
        <time>2022-09-25T12:55:27Z</time>
      </trkpt>
      <trkpt lat="45.64081" lon="5.6383">
        <ele>218.6</ele>
        <time>2022-09-25T12:55:28Z</time>
      </trkpt>
      <trkpt lat="45.64082" lon="5.63838">
        <ele>218.6</ele>
        <time>2022-09-25T12:55:29Z</time>
      </trkpt>
      <trkpt lat="45.64082" lon="5.63845">
        <ele>218.6</ele>
        <time>2022-09-25T12:55:31Z</time>
      </trkpt>
      <trkpt lat="45.64082" lon="5.63853">
        <ele>218.6</ele>
        <time>2022-09-25T12:55:32Z</time>
      </trkpt>
      <trkpt lat="45.64083" lon="5.6386">
        <ele>218.6</ele>
        <time>2022-09-25T12:55:33Z</time>
      </trkpt>
      <trkpt lat="45.64083" lon="5.63867">
        <ele>218.6</ele>
        <time>2022-09-25T12:55:34Z</time>
      </trkpt>
      <trkpt lat="45.64084" lon="5.63874">
        <ele>218.6</ele>
        <time>2022-09-25T12:55:35Z</time>
      </trkpt>
      <trkpt lat="45.64084" lon="5.63882">
        <ele>218.6</ele>
        <time>2022-09-25T12:55:36Z</time>
      </trkpt>
      <trkpt lat="45.64084" lon="5.6389">
        <ele>218.6</ele>
        <time>2022-09-25T12:55:37Z</time>
      </trkpt>
      <trkpt lat="45.64085" lon="5.63898">
        <ele>218.6</ele>
        <time>2022-09-25T12:55:38Z</time>
      </trkpt>
      <trkpt lat="45.64085" lon="5.63905">
        <ele>218.5</ele>
        <time>2022-09-25T12:55:39Z</time>
      </trkpt>
      <trkpt lat="45.64085" lon="5.63912">
        <ele>218.5</ele>
        <time>2022-09-25T12:55:40Z</time>
      </trkpt>
      <trkpt lat="45.64086" lon="5.6392">
        <ele>218.5</ele>
        <time>2022-09-25T12:55:41Z</time>
      </trkpt>
      <trkpt lat="45.64086" lon="5.63928">
        <ele>218.5</ele>
        <time>2022-09-25T12:55:42Z</time>
      </trkpt>
      <trkpt lat="45.64085" lon="5.63936">
        <ele>218.5</ele>
        <time>2022-09-25T12:55:43Z</time>
      </trkpt>
      <trkpt lat="45.64085" lon="5.63944">
        <ele>218.5</ele>
        <time>2022-09-25T12:55:44Z</time>
      </trkpt>
      <trkpt lat="45.64086" lon="5.63952">
        <ele>218.5</ele>
        <time>2022-09-25T12:55:45Z</time>
      </trkpt>
      <trkpt lat="45.64085" lon="5.6396">
        <ele>218.5</ele>
        <time>2022-09-25T12:55:46Z</time>
      </trkpt>
      <trkpt lat="45.64084" lon="5.63976">
        <ele>218.4</ele>
        <time>2022-09-25T12:55:47Z</time>
      </trkpt>
      <trkpt lat="45.64084" lon="5.63984">
        <ele>218.4</ele>
        <time>2022-09-25T12:55:48Z</time>
      </trkpt>
      <trkpt lat="45.64084" lon="5.63992">
        <ele>218.4</ele>
        <time>2022-09-25T12:55:49Z</time>
      </trkpt>
      <trkpt lat="45.64084" lon="5.64">
        <ele>218.4</ele>
        <time>2022-09-25T12:55:50Z</time>
      </trkpt>
      <trkpt lat="45.64084" lon="5.64008">
        <ele>218.4</ele>
        <time>2022-09-25T12:55:51Z</time>
      </trkpt>
      <trkpt lat="45.64084" lon="5.64016">
        <ele>218.4</ele>
        <time>2022-09-25T12:55:52Z</time>
      </trkpt>
      <trkpt lat="45.64084" lon="5.64025">
        <ele>218.4</ele>
        <time>2022-09-25T12:55:53Z</time>
      </trkpt>
      <trkpt lat="45.64083" lon="5.64032">
        <ele>218.4</ele>
        <time>2022-09-25T12:55:54Z</time>
      </trkpt>
      <trkpt lat="45.64083" lon="5.6404">
        <ele>218.4</ele>
        <time>2022-09-25T12:55:55Z</time>
      </trkpt>
      <trkpt lat="45.64083" lon="5.64048">
        <ele>218.4</ele>
        <time>2022-09-25T12:55:56Z</time>
      </trkpt>
      <trkpt lat="45.64083" lon="5.64056">
        <ele>218.4</ele>
        <time>2022-09-25T12:55:57Z</time>
      </trkpt>
      <trkpt lat="45.64082" lon="5.64063">
        <ele>218.4</ele>
        <time>2022-09-25T12:55:58Z</time>
      </trkpt>
      <trkpt lat="45.64082" lon="5.64072">
        <ele>218.4</ele>
        <time>2022-09-25T12:55:59Z</time>
      </trkpt>
      <trkpt lat="45.64081" lon="5.64079">
        <ele>218.3</ele>
        <time>2022-09-25T12:56:00Z</time>
      </trkpt>
      <trkpt lat="45.64081" lon="5.64087">
        <ele>218.3</ele>
        <time>2022-09-25T12:56:01Z</time>
      </trkpt>
      <trkpt lat="45.6408" lon="5.64095">
        <ele>218.3</ele>
        <time>2022-09-25T12:56:02Z</time>
      </trkpt>
      <trkpt lat="45.6408" lon="5.64103">
        <ele>218.3</ele>
        <time>2022-09-25T12:56:03Z</time>
      </trkpt>
      <trkpt lat="45.64079" lon="5.64111">
        <ele>218.3</ele>
        <time>2022-09-25T12:56:04Z</time>
      </trkpt>
      <trkpt lat="45.64079" lon="5.64119">
        <ele>218.3</ele>
        <time>2022-09-25T12:56:05Z</time>
      </trkpt>
      <trkpt lat="45.64078" lon="5.64127">
        <ele>218.4</ele>
        <time>2022-09-25T12:56:06Z</time>
      </trkpt>
      <trkpt lat="45.64078" lon="5.64134">
        <ele>218.4</ele>
        <time>2022-09-25T12:56:07Z</time>
      </trkpt>
      <trkpt lat="45.64077" lon="5.64142">
        <ele>218.4</ele>
        <time>2022-09-25T12:56:08Z</time>
      </trkpt>
      <trkpt lat="45.64076" lon="5.6415">
        <ele>218.4</ele>
        <time>2022-09-25T12:56:09Z</time>
      </trkpt>
      <trkpt lat="45.64074" lon="5.64157">
        <ele>218.4</ele>
        <time>2022-09-25T12:56:10Z</time>
      </trkpt>
      <trkpt lat="45.64072" lon="5.64164">
        <ele>218.3</ele>
        <time>2022-09-25T12:56:11Z</time>
      </trkpt>
      <trkpt lat="45.6407" lon="5.64171">
        <ele>218.3</ele>
        <time>2022-09-25T12:56:12Z</time>
      </trkpt>
      <trkpt lat="45.64067" lon="5.64177">
        <ele>218.2</ele>
        <time>2022-09-25T12:56:13Z</time>
      </trkpt>
      <trkpt lat="45.64063" lon="5.64183">
        <ele>218.2</ele>
        <time>2022-09-25T12:56:14Z</time>
      </trkpt>
      <trkpt lat="45.64059" lon="5.64188">
        <ele>218.1</ele>
        <time>2022-09-25T12:56:15Z</time>
      </trkpt>
      <trkpt lat="45.64055" lon="5.64194">
        <ele>218.1</ele>
        <time>2022-09-25T12:56:16Z</time>
      </trkpt>
      <trkpt lat="45.64052" lon="5.642">
        <ele>218.1</ele>
        <time>2022-09-25T12:56:17Z</time>
      </trkpt>
      <trkpt lat="45.64052" lon="5.64207">
        <ele>218</ele>
        <time>2022-09-25T12:56:18Z</time>
      </trkpt>
      <trkpt lat="45.64053" lon="5.64214">
        <ele>218</ele>
        <time>2022-09-25T12:56:19Z</time>
      </trkpt>
      <trkpt lat="45.64055" lon="5.64221">
        <ele>218</ele>
        <time>2022-09-25T12:56:20Z</time>
      </trkpt>
      <trkpt lat="45.64057" lon="5.64228">
        <ele>218</ele>
        <time>2022-09-25T12:56:21Z</time>
      </trkpt>
      <trkpt lat="45.64057" lon="5.64235">
        <ele>218</ele>
        <time>2022-09-25T12:56:22Z</time>
      </trkpt>
      <trkpt lat="45.64057" lon="5.64242">
        <ele>218</ele>
        <time>2022-09-25T12:56:23Z</time>
      </trkpt>
      <trkpt lat="45.64057" lon="5.64249">
        <ele>218.1</ele>
        <time>2022-09-25T12:56:24Z</time>
      </trkpt>
      <trkpt lat="45.64056" lon="5.64255">
        <ele>218.1</ele>
        <time>2022-09-25T12:56:25Z</time>
      </trkpt>
      <trkpt lat="45.64054" lon="5.64262">
        <ele>218.2</ele>
        <time>2022-09-25T12:56:26Z</time>
      </trkpt>
      <trkpt lat="45.64052" lon="5.64269">
        <ele>218.2</ele>
        <time>2022-09-25T12:56:27Z</time>
      </trkpt>
      <trkpt lat="45.6405" lon="5.64275">
        <ele>218.2</ele>
        <time>2022-09-25T12:56:28Z</time>
      </trkpt>
      <trkpt lat="45.64048" lon="5.64281">
        <ele>218.3</ele>
        <time>2022-09-25T12:56:29Z</time>
      </trkpt>
      <trkpt lat="45.64045" lon="5.64286">
        <ele>218.4</ele>
        <time>2022-09-25T12:56:30Z</time>
      </trkpt>
      <trkpt lat="45.64044" lon="5.64291">
        <ele>218.5</ele>
        <time>2022-09-25T12:56:31Z</time>
      </trkpt>
      <trkpt lat="45.64045" lon="5.64296">
        <ele>218.6</ele>
        <time>2022-09-25T12:56:32Z</time>
      </trkpt>
      <trkpt lat="45.64047" lon="5.643">
        <ele>218.7</ele>
        <time>2022-09-25T12:56:33Z</time>
      </trkpt>
      <trkpt lat="45.64049" lon="5.64304">
        <ele>218.8</ele>
        <time>2022-09-25T12:56:34Z</time>
      </trkpt>
      <trkpt lat="45.64051" lon="5.64309">
        <ele>219</ele>
        <time>2022-09-25T12:56:35Z</time>
      </trkpt>
      <trkpt lat="45.64054" lon="5.64313">
        <ele>219.1</ele>
        <time>2022-09-25T12:56:36Z</time>
      </trkpt>
      <trkpt lat="45.64057" lon="5.64316">
        <ele>219.3</ele>
        <time>2022-09-25T12:56:37Z</time>
      </trkpt>
      <trkpt lat="45.64059" lon="5.64319">
        <ele>219.5</ele>
        <time>2022-09-25T12:56:38Z</time>
      </trkpt>
      <trkpt lat="45.64062" lon="5.64323">
        <ele>219.7</ele>
        <time>2022-09-25T12:56:39Z</time>
      </trkpt>
      <trkpt lat="45.64065" lon="5.64324">
        <ele>219.9</ele>
        <time>2022-09-25T12:56:40Z</time>
      </trkpt>
      <trkpt lat="45.64068" lon="5.64327">
        <ele>220.2</ele>
        <time>2022-09-25T12:56:41Z</time>
      </trkpt>
      <trkpt lat="45.6407" lon="5.64328">
        <ele>220.3</ele>
        <time>2022-09-25T12:56:42Z</time>
      </trkpt>
      <trkpt lat="45.64071" lon="5.64329">
        <ele>220.5</ele>
        <time>2022-09-25T12:56:43Z</time>
      </trkpt>
      <trkpt lat="45.64072" lon="5.6433">
        <ele>220.6</ele>
        <time>2022-09-25T12:56:44Z</time>
      </trkpt>
      <trkpt lat="45.64074" lon="5.64333">
        <ele>220.9</ele>
        <time>2022-09-25T12:56:45Z</time>
      </trkpt>
      <trkpt lat="45.64075" lon="5.64334">
        <ele>220.9</ele>
        <time>2022-09-25T12:56:46Z</time>
      </trkpt>
      <trkpt lat="45.64076" lon="5.64338">
        <ele>221.2</ele>
        <time>2022-09-25T12:56:47Z</time>
      </trkpt>
      <trkpt lat="45.64076" lon="5.64339">
        <ele>221.2</ele>
        <time>2022-09-25T12:56:48Z</time>
      </trkpt>
      <trkpt lat="45.64075" lon="5.64342">
        <ele>221.2</ele>
        <time>2022-09-25T12:56:49Z</time>
      </trkpt>
      <trkpt lat="45.64074" lon="5.64343">
        <ele>221.2</ele>
        <time>2022-09-25T12:56:50Z</time>
      </trkpt>
      <trkpt lat="45.64072" lon="5.64346">
        <ele>221.2</ele>
        <time>2022-09-25T12:56:51Z</time>
      </trkpt>
      <trkpt lat="45.6407" lon="5.6435">
        <ele>221.2</ele>
        <time>2022-09-25T12:56:52Z</time>
      </trkpt>
      <trkpt lat="45.64068" lon="5.64353">
        <ele>221.2</ele>
        <time>2022-09-25T12:56:53Z</time>
      </trkpt>
      <trkpt lat="45.64066" lon="5.64357">
        <ele>221.2</ele>
        <time>2022-09-25T12:56:54Z</time>
      </trkpt>
      <trkpt lat="45.64064" lon="5.64358">
        <ele>221.2</ele>
        <time>2022-09-25T12:56:55Z</time>
      </trkpt>
      <trkpt lat="45.64061" lon="5.6436">
        <ele>221.2</ele>
        <time>2022-09-25T12:56:56Z</time>
      </trkpt>
      <trkpt lat="45.64061" lon="5.6436">
        <ele>221.2</ele>
        <time>2022-09-25T12:56:57Z</time>
      </trkpt>
      <trkpt lat="45.6406" lon="5.64361">
        <ele>221.2</ele>
        <time>2022-09-25T12:56:58Z</time>
      </trkpt>
      <trkpt lat="45.6406" lon="5.64361">
        <ele>221.2</ele>
        <time>2022-09-25T12:56:59Z</time>
      </trkpt>
      <trkpt lat="45.6406" lon="5.64361">
        <ele>221.2</ele>
        <time>2022-09-25T12:57:00Z</time>
      </trkpt>
      <trkpt lat="45.6406" lon="5.64361">
        <ele>221.2</ele>
        <time>2022-09-25T12:57:01Z</time>
      </trkpt>
      <trkpt lat="45.64059" lon="5.64363">
        <ele>221.2</ele>
        <time>2022-09-25T12:57:02Z</time>
      </trkpt>
      <trkpt lat="45.64058" lon="5.64365">
        <ele>221.2</ele>
        <time>2022-09-25T12:57:03Z</time>
      </trkpt>
      <trkpt lat="45.64057" lon="5.64366">
        <ele>221.2</ele>
        <time>2022-09-25T12:57:04Z</time>
      </trkpt>
      <trkpt lat="45.64055" lon="5.64364">
        <ele>221.2</ele>
        <time>2022-09-25T12:57:05Z</time>
      </trkpt>
      <trkpt lat="45.64054" lon="5.64363">
        <ele>221.2</ele>
        <time>2022-09-25T12:57:06Z</time>
      </trkpt>
      <trkpt lat="45.64052" lon="5.64359">
        <ele>221.1</ele>
        <time>2022-09-25T12:57:07Z</time>
      </trkpt>
      <trkpt lat="45.64052" lon="5.64355">
        <ele>221.7</ele>
        <time>2022-09-25T12:57:08Z</time>
      </trkpt>
      <trkpt lat="45.64052" lon="5.64351">
        <ele>221.9</ele>
        <time>2022-09-25T12:57:09Z</time>
      </trkpt>
      <trkpt lat="45.64051" lon="5.64349">
        <ele>222</ele>
        <time>2022-09-25T12:57:10Z</time>
      </trkpt>
      <trkpt lat="45.6405" lon="5.64344">
        <ele>222.2</ele>
        <time>2022-09-25T12:57:11Z</time>
      </trkpt>
      <trkpt lat="45.64049" lon="5.64342">
        <ele>222.3</ele>
        <time>2022-09-25T12:57:12Z</time>
      </trkpt>
      <trkpt lat="45.64047" lon="5.64338">
        <ele>222.5</ele>
        <time>2022-09-25T12:57:13Z</time>
      </trkpt>
      <trkpt lat="45.64046" lon="5.64336">
        <ele>222.6</ele>
        <time>2022-09-25T12:57:14Z</time>
      </trkpt>
      <trkpt lat="45.64044" lon="5.64332">
        <ele>222.8</ele>
        <time>2022-09-25T12:57:15Z</time>
      </trkpt>
      <trkpt lat="45.64043" lon="5.6433">
        <ele>222.9</ele>
        <time>2022-09-25T12:57:16Z</time>
      </trkpt>
      <trkpt lat="45.64041" lon="5.64326">
        <ele>223.2</ele>
        <time>2022-09-25T12:57:17Z</time>
      </trkpt>
      <trkpt lat="45.6404" lon="5.64325">
        <ele>223.2</ele>
        <time>2022-09-25T12:57:18Z</time>
      </trkpt>
      <trkpt lat="45.64037" lon="5.64321">
        <ele>223.5</ele>
        <time>2022-09-25T12:57:19Z</time>
      </trkpt>
      <trkpt lat="45.64036" lon="5.6432">
        <ele>223.6</ele>
        <time>2022-09-25T12:57:20Z</time>
      </trkpt>
      <trkpt lat="45.64033" lon="5.64317">
        <ele>223.8</ele>
        <time>2022-09-25T12:57:21Z</time>
      </trkpt>
      <trkpt lat="45.64032" lon="5.64316">
        <ele>223.9</ele>
        <time>2022-09-25T12:57:22Z</time>
      </trkpt>
      <trkpt lat="45.64029" lon="5.64313">
        <ele>224.1</ele>
        <time>2022-09-25T12:57:23Z</time>
      </trkpt>
      <trkpt lat="45.64028" lon="5.64312">
        <ele>224.2</ele>
        <time>2022-09-25T12:57:24Z</time>
      </trkpt>
      <trkpt lat="45.64025" lon="5.6431">
        <ele>224.4</ele>
        <time>2022-09-25T12:57:25Z</time>
      </trkpt>
      <trkpt lat="45.64024" lon="5.64309">
        <ele>224.5</ele>
        <time>2022-09-25T12:57:26Z</time>
      </trkpt>
      <trkpt lat="45.64021" lon="5.64307">
        <ele>224.7</ele>
        <time>2022-09-25T12:57:27Z</time>
      </trkpt>
      <trkpt lat="45.64021" lon="5.64306">
        <ele>224.8</ele>
        <time>2022-09-25T12:57:28Z</time>
      </trkpt>
      <trkpt lat="45.64017" lon="5.64303">
        <ele>225</ele>
        <time>2022-09-25T12:57:29Z</time>
      </trkpt>
      <trkpt lat="45.64016" lon="5.64302">
        <ele>225</ele>
        <time>2022-09-25T12:57:30Z</time>
      </trkpt>
      <trkpt lat="45.64013" lon="5.643">
        <ele>225.2</ele>
        <time>2022-09-25T12:57:31Z</time>
      </trkpt>
      <trkpt lat="45.64012" lon="5.64299">
        <ele>225.3</ele>
        <time>2022-09-25T12:57:32Z</time>
      </trkpt>
      <trkpt lat="45.64009" lon="5.64296">
        <ele>225.5</ele>
        <time>2022-09-25T12:57:33Z</time>
      </trkpt>
      <trkpt lat="45.64008" lon="5.64296">
        <ele>225.5</ele>
        <time>2022-09-25T12:57:34Z</time>
      </trkpt>
      <trkpt lat="45.64005" lon="5.64294">
        <ele>225.7</ele>
        <time>2022-09-25T12:57:35Z</time>
      </trkpt>
      <trkpt lat="45.64004" lon="5.64293">
        <ele>225.7</ele>
        <time>2022-09-25T12:57:36Z</time>
      </trkpt>
      <trkpt lat="45.64" lon="5.64291">
        <ele>225.9</ele>
        <time>2022-09-25T12:57:37Z</time>
      </trkpt>
      <trkpt lat="45.63999" lon="5.6429">
        <ele>225.9</ele>
        <time>2022-09-25T12:57:38Z</time>
      </trkpt>
      <trkpt lat="45.63997" lon="5.64288">
        <ele>226</ele>
        <time>2022-09-25T12:57:39Z</time>
      </trkpt>
      <trkpt lat="45.63993" lon="5.64286">
        <ele>226.1</ele>
        <time>2022-09-25T12:57:40Z</time>
      </trkpt>
      <trkpt lat="45.63992" lon="5.64286">
        <ele>226.2</ele>
        <time>2022-09-25T12:57:41Z</time>
      </trkpt>
      <trkpt lat="45.63989" lon="5.64283">
        <ele>226.3</ele>
        <time>2022-09-25T12:57:42Z</time>
      </trkpt>
      <trkpt lat="45.63988" lon="5.64283">
        <ele>226.4</ele>
        <time>2022-09-25T12:57:43Z</time>
      </trkpt>
      <trkpt lat="45.63984" lon="5.6428">
        <ele>226.5</ele>
        <time>2022-09-25T12:57:44Z</time>
      </trkpt>
      <trkpt lat="45.63983" lon="5.64279">
        <ele>226.5</ele>
        <time>2022-09-25T12:57:45Z</time>
      </trkpt>
      <trkpt lat="45.6398" lon="5.64278">
        <ele>226.6</ele>
        <time>2022-09-25T12:57:46Z</time>
      </trkpt>
      <trkpt lat="45.63978" lon="5.64276">
        <ele>226.7</ele>
        <time>2022-09-25T12:57:47Z</time>
      </trkpt>
      <trkpt lat="45.63975" lon="5.64273">
        <ele>226.8</ele>
        <time>2022-09-25T12:57:48Z</time>
      </trkpt>
      <trkpt lat="45.63972" lon="5.64272">
        <ele>226.8</ele>
        <time>2022-09-25T12:57:49Z</time>
      </trkpt>
      <trkpt lat="45.63969" lon="5.6427">
        <ele>226.9</ele>
        <time>2022-09-25T12:57:50Z</time>
      </trkpt>
      <trkpt lat="45.63966" lon="5.64268">
        <ele>227</ele>
        <time>2022-09-25T12:57:51Z</time>
      </trkpt>
      <trkpt lat="45.63963" lon="5.64265">
        <ele>227</ele>
        <time>2022-09-25T12:57:52Z</time>
      </trkpt>
      <trkpt lat="45.6396" lon="5.64263">
        <ele>227</ele>
        <time>2022-09-25T12:57:53Z</time>
      </trkpt>
      <trkpt lat="45.63958" lon="5.64262">
        <ele>227</ele>
        <time>2022-09-25T12:57:54Z</time>
      </trkpt>
      <trkpt lat="45.63955" lon="5.6426">
        <ele>227</ele>
        <time>2022-09-25T12:57:55Z</time>
      </trkpt>
      <trkpt lat="45.63952" lon="5.64257">
        <ele>227</ele>
        <time>2022-09-25T12:57:56Z</time>
      </trkpt>
      <trkpt lat="45.63949" lon="5.64256">
        <ele>227</ele>
        <time>2022-09-25T12:57:57Z</time>
      </trkpt>
      <trkpt lat="45.63946" lon="5.64254">
        <ele>227</ele>
        <time>2022-09-25T12:57:58Z</time>
      </trkpt>
      <trkpt lat="45.63943" lon="5.64252">
        <ele>227</ele>
        <time>2022-09-25T12:57:59Z</time>
      </trkpt>
      <trkpt lat="45.63939" lon="5.64249">
        <ele>226.9</ele>
        <time>2022-09-25T12:58:00Z</time>
      </trkpt>
      <trkpt lat="45.63936" lon="5.64247">
        <ele>226.8</ele>
        <time>2022-09-25T12:58:01Z</time>
      </trkpt>
      <trkpt lat="45.63932" lon="5.64244">
        <ele>226.7</ele>
        <time>2022-09-25T12:58:02Z</time>
      </trkpt>
      <trkpt lat="45.63929" lon="5.64242">
        <ele>226.6</ele>
        <time>2022-09-25T12:58:03Z</time>
      </trkpt>
      <trkpt lat="45.63925" lon="5.64239">
        <ele>226.5</ele>
        <time>2022-09-25T12:58:04Z</time>
      </trkpt>
      <trkpt lat="45.6392" lon="5.64236">
        <ele>226.3</ele>
        <time>2022-09-25T12:58:05Z</time>
      </trkpt>
      <trkpt lat="45.63916" lon="5.64233">
        <ele>226.2</ele>
        <time>2022-09-25T12:58:06Z</time>
      </trkpt>
      <trkpt lat="45.63912" lon="5.6423">
        <ele>226</ele>
        <time>2022-09-25T12:58:07Z</time>
      </trkpt>
      <trkpt lat="45.63908" lon="5.64227">
        <ele>225.8</ele>
        <time>2022-09-25T12:58:08Z</time>
      </trkpt>
      <trkpt lat="45.63903" lon="5.64224">
        <ele>225.7</ele>
        <time>2022-09-25T12:58:09Z</time>
      </trkpt>
      <trkpt lat="45.63899" lon="5.64221">
        <ele>225.5</ele>
        <time>2022-09-25T12:58:10Z</time>
      </trkpt>
      <trkpt lat="45.63895" lon="5.64218">
        <ele>225.4</ele>
        <time>2022-09-25T12:58:11Z</time>
      </trkpt>
      <trkpt lat="45.6389" lon="5.64215">
        <ele>225.2</ele>
        <time>2022-09-25T12:58:12Z</time>
      </trkpt>
      <trkpt lat="45.63886" lon="5.64212">
        <ele>225</ele>
        <time>2022-09-25T12:58:13Z</time>
      </trkpt>
      <trkpt lat="45.63881" lon="5.64209">
        <ele>224.9</ele>
        <time>2022-09-25T12:58:14Z</time>
      </trkpt>
      <trkpt lat="45.63876" lon="5.64206">
        <ele>224.7</ele>
        <time>2022-09-25T12:58:15Z</time>
      </trkpt>
      <trkpt lat="45.63872" lon="5.64203">
        <ele>224.6</ele>
        <time>2022-09-25T12:58:16Z</time>
      </trkpt>
      <trkpt lat="45.63868" lon="5.642">
        <ele>224.4</ele>
        <time>2022-09-25T12:58:17Z</time>
      </trkpt>
      <trkpt lat="45.63864" lon="5.64197">
        <ele>224.3</ele>
        <time>2022-09-25T12:58:18Z</time>
      </trkpt>
      <trkpt lat="45.63861" lon="5.64195">
        <ele>224.2</ele>
        <time>2022-09-25T12:58:19Z</time>
      </trkpt>
      <trkpt lat="45.63858" lon="5.64192">
        <ele>224.1</ele>
        <time>2022-09-25T12:58:20Z</time>
      </trkpt>
      <trkpt lat="45.63856" lon="5.6419">
        <ele>223.6</ele>
        <time>2022-09-25T12:58:21Z</time>
      </trkpt>
      <trkpt lat="45.63855" lon="5.64187">
        <ele>223.4</ele>
        <time>2022-09-25T12:58:22Z</time>
      </trkpt>
      <trkpt lat="45.63856" lon="5.64185">
        <ele>223.3</ele>
        <time>2022-09-25T12:58:23Z</time>
      </trkpt>
      <trkpt lat="45.63857" lon="5.64183">
        <ele>223.2</ele>
        <time>2022-09-25T12:58:24Z</time>
      </trkpt>
      <trkpt lat="45.63858" lon="5.64184">
        <ele>223</ele>
        <time>2022-09-25T12:58:25Z</time>
      </trkpt>
      <trkpt lat="45.63861" lon="5.64185">
        <ele>222.8</ele>
        <time>2022-09-25T12:58:26Z</time>
      </trkpt>
      <trkpt lat="45.63862" lon="5.64186">
        <ele>222.7</ele>
        <time>2022-09-25T12:58:27Z</time>
      </trkpt>
      <trkpt lat="45.63866" lon="5.64188">
        <ele>222.4</ele>
        <time>2022-09-25T12:58:28Z</time>
      </trkpt>
      <trkpt lat="45.63867" lon="5.64188">
        <ele>222.3</ele>
        <time>2022-09-25T12:58:29Z</time>
      </trkpt>
      <trkpt lat="45.63871" lon="5.64189">
        <ele>222.1</ele>
        <time>2022-09-25T12:58:30Z</time>
      </trkpt>
      <trkpt lat="45.63874" lon="5.64191">
        <ele>221.8</ele>
        <time>2022-09-25T12:58:31Z</time>
      </trkpt>
      <trkpt lat="45.63878" lon="5.64192">
        <ele>221.5</ele>
        <time>2022-09-25T12:58:32Z</time>
      </trkpt>
      <trkpt lat="45.63882" lon="5.64194">
        <ele>221.2</ele>
        <time>2022-09-25T12:58:33Z</time>
      </trkpt>
      <trkpt lat="45.63886" lon="5.64196">
        <ele>221</ele>
        <time>2022-09-25T12:58:34Z</time>
      </trkpt>
      <trkpt lat="45.63891" lon="5.64198">
        <ele>220.7</ele>
        <time>2022-09-25T12:58:35Z</time>
      </trkpt>
      <trkpt lat="45.63896" lon="5.64199">
        <ele>220.4</ele>
        <time>2022-09-25T12:58:36Z</time>
      </trkpt>
      <trkpt lat="45.639" lon="5.642">
        <ele>220.2</ele>
        <time>2022-09-25T12:58:37Z</time>
      </trkpt>
      <trkpt lat="45.63905" lon="5.64201">
        <ele>220</ele>
        <time>2022-09-25T12:58:38Z</time>
      </trkpt>
      <trkpt lat="45.6391" lon="5.64202">
        <ele>219.8</ele>
        <time>2022-09-25T12:58:39Z</time>
      </trkpt>
      <trkpt lat="45.63913" lon="5.64206">
        <ele>219.7</ele>
        <time>2022-09-25T12:58:40Z</time>
      </trkpt>
      <trkpt lat="45.63915" lon="5.64211">
        <ele>219.5</ele>
        <time>2022-09-25T12:58:41Z</time>
      </trkpt>
      <trkpt lat="45.63915" lon="5.64215">
        <ele>219.4</ele>
        <time>2022-09-25T12:58:42Z</time>
      </trkpt>
      <trkpt lat="45.63914" lon="5.64222">
        <ele>219.2</ele>
        <time>2022-09-25T12:58:43Z</time>
      </trkpt>
      <trkpt lat="45.63913" lon="5.64228">
        <ele>219.1</ele>
        <time>2022-09-25T12:58:44Z</time>
      </trkpt>
      <trkpt lat="45.63911" lon="5.64234">
        <ele>218.9</ele>
        <time>2022-09-25T12:58:45Z</time>
      </trkpt>
      <trkpt lat="45.6391" lon="5.6424">
        <ele>218.8</ele>
        <time>2022-09-25T12:58:46Z</time>
      </trkpt>
      <trkpt lat="45.63907" lon="5.64246">
        <ele>218.6</ele>
        <time>2022-09-25T12:58:47Z</time>
      </trkpt>
      <trkpt lat="45.63904" lon="5.64252">
        <ele>218.5</ele>
        <time>2022-09-25T12:58:48Z</time>
      </trkpt>
      <trkpt lat="45.63902" lon="5.64257">
        <ele>218.5</ele>
        <time>2022-09-25T12:58:49Z</time>
      </trkpt>
      <trkpt lat="45.63899" lon="5.64263">
        <ele>218.5</ele>
        <time>2022-09-25T12:58:50Z</time>
      </trkpt>
      <trkpt lat="45.63896" lon="5.64269">
        <ele>218.5</ele>
        <time>2022-09-25T12:58:51Z</time>
      </trkpt>
      <trkpt lat="45.63894" lon="5.64275">
        <ele>218.5</ele>
        <time>2022-09-25T12:58:52Z</time>
      </trkpt>
      <trkpt lat="45.63892" lon="5.6428">
        <ele>218.5</ele>
        <time>2022-09-25T12:58:53Z</time>
      </trkpt>
      <trkpt lat="45.63889" lon="5.64285">
        <ele>218.6</ele>
        <time>2022-09-25T12:58:54Z</time>
      </trkpt>
      <trkpt lat="45.63887" lon="5.64291">
        <ele>218.7</ele>
        <time>2022-09-25T12:58:55Z</time>
      </trkpt>
      <trkpt lat="45.63884" lon="5.64295">
        <ele>218.7</ele>
        <time>2022-09-25T12:58:56Z</time>
      </trkpt>
      <trkpt lat="45.63881" lon="5.643">
        <ele>218.8</ele>
        <time>2022-09-25T12:58:57Z</time>
      </trkpt>
      <trkpt lat="45.63879" lon="5.64304">
        <ele>218.8</ele>
        <time>2022-09-25T12:58:58Z</time>
      </trkpt>
      <trkpt lat="45.63877" lon="5.64306">
        <ele>218.9</ele>
        <time>2022-09-25T12:58:59Z</time>
      </trkpt>
      <trkpt lat="45.63873" lon="5.64307">
        <ele>218.9</ele>
        <time>2022-09-25T12:59:00Z</time>
      </trkpt>
      <trkpt lat="45.63869" lon="5.64307">
        <ele>219</ele>
        <time>2022-09-25T12:59:01Z</time>
      </trkpt>
      <trkpt lat="45.63866" lon="5.64306">
        <ele>219</ele>
        <time>2022-09-25T12:59:02Z</time>
      </trkpt>
      <trkpt lat="45.63863" lon="5.64302">
        <ele>219</ele>
        <time>2022-09-25T12:59:03Z</time>
      </trkpt>
      <trkpt lat="45.6386" lon="5.643">
        <ele>219</ele>
        <time>2022-09-25T12:59:04Z</time>
      </trkpt>
      <trkpt lat="45.63857" lon="5.64297">
        <ele>219</ele>
        <time>2022-09-25T12:59:05Z</time>
      </trkpt>
      <trkpt lat="45.63854" lon="5.64294">
        <ele>219</ele>
        <time>2022-09-25T12:59:06Z</time>
      </trkpt>
      <trkpt lat="45.63851" lon="5.64291">
        <ele>219.1</ele>
        <time>2022-09-25T12:59:07Z</time>
      </trkpt>
      <trkpt lat="45.63848" lon="5.64287">
        <ele>219.1</ele>
        <time>2022-09-25T12:59:08Z</time>
      </trkpt>
      <trkpt lat="45.63844" lon="5.64283">
        <ele>219.1</ele>
        <time>2022-09-25T12:59:09Z</time>
      </trkpt>
      <trkpt lat="45.63841" lon="5.6428">
        <ele>219.1</ele>
        <time>2022-09-25T12:59:10Z</time>
      </trkpt>
      <trkpt lat="45.63838" lon="5.64276">
        <ele>219.1</ele>
        <time>2022-09-25T12:59:11Z</time>
      </trkpt>
      <trkpt lat="45.63836" lon="5.64272">
        <ele>219.1</ele>
        <time>2022-09-25T12:59:12Z</time>
      </trkpt>
      <trkpt lat="45.63832" lon="5.64268">
        <ele>219.1</ele>
        <time>2022-09-25T12:59:13Z</time>
      </trkpt>
      <trkpt lat="45.63829" lon="5.64263">
        <ele>219.1</ele>
        <time>2022-09-25T12:59:14Z</time>
      </trkpt>
      <trkpt lat="45.63826" lon="5.64259">
        <ele>219.1</ele>
        <time>2022-09-25T12:59:15Z</time>
      </trkpt>
      <trkpt lat="45.63822" lon="5.64255">
        <ele>219.1</ele>
        <time>2022-09-25T12:59:16Z</time>
      </trkpt>
      <trkpt lat="45.63819" lon="5.64251">
        <ele>219.1</ele>
        <time>2022-09-25T12:59:17Z</time>
      </trkpt>
      <trkpt lat="45.63816" lon="5.64248">
        <ele>219.1</ele>
        <time>2022-09-25T12:59:18Z</time>
      </trkpt>
      <trkpt lat="45.63812" lon="5.64243">
        <ele>219.2</ele>
        <time>2022-09-25T12:59:19Z</time>
      </trkpt>
      <trkpt lat="45.63809" lon="5.64239">
        <ele>219.2</ele>
        <time>2022-09-25T12:59:20Z</time>
      </trkpt>
      <trkpt lat="45.63806" lon="5.64235">
        <ele>219.3</ele>
        <time>2022-09-25T12:59:21Z</time>
      </trkpt>
      <trkpt lat="45.63803" lon="5.64231">
        <ele>219.3</ele>
        <time>2022-09-25T12:59:22Z</time>
      </trkpt>
      <trkpt lat="45.63799" lon="5.64227">
        <ele>219.4</ele>
        <time>2022-09-25T12:59:23Z</time>
      </trkpt>
      <trkpt lat="45.63796" lon="5.64222">
        <ele>219.4</ele>
        <time>2022-09-25T12:59:24Z</time>
      </trkpt>
      <trkpt lat="45.63792" lon="5.64218">
        <ele>219.5</ele>
        <time>2022-09-25T12:59:25Z</time>
      </trkpt>
      <trkpt lat="45.6379" lon="5.64214">
        <ele>219.6</ele>
        <time>2022-09-25T12:59:26Z</time>
      </trkpt>
      <trkpt lat="45.63787" lon="5.64209">
        <ele>219.7</ele>
        <time>2022-09-25T12:59:27Z</time>
      </trkpt>
      <trkpt lat="45.63784" lon="5.64206">
        <ele>219.8</ele>
        <time>2022-09-25T12:59:28Z</time>
      </trkpt>
      <trkpt lat="45.6378" lon="5.64202">
        <ele>219.9</ele>
        <time>2022-09-25T12:59:29Z</time>
      </trkpt>
      <trkpt lat="45.63777" lon="5.64198">
        <ele>220</ele>
        <time>2022-09-25T12:59:30Z</time>
      </trkpt>
      <trkpt lat="45.63774" lon="5.64194">
        <ele>220.1</ele>
        <time>2022-09-25T12:59:31Z</time>
      </trkpt>
      <trkpt lat="45.63772" lon="5.6419">
        <ele>220.2</ele>
        <time>2022-09-25T12:59:32Z</time>
      </trkpt>
      <trkpt lat="45.63771" lon="5.64186">
        <ele>220.3</ele>
        <time>2022-09-25T12:59:33Z</time>
      </trkpt>
      <trkpt lat="45.63769" lon="5.64182">
        <ele>220.4</ele>
        <time>2022-09-25T12:59:34Z</time>
      </trkpt>
      <trkpt lat="45.63769" lon="5.64177">
        <ele>220.7</ele>
        <time>2022-09-25T12:59:35Z</time>
      </trkpt>
      <trkpt lat="45.6377" lon="5.64172">
        <ele>220.9</ele>
        <time>2022-09-25T12:59:36Z</time>
      </trkpt>
      <trkpt lat="45.63769" lon="5.6417">
        <ele>221</ele>
        <time>2022-09-25T12:59:37Z</time>
      </trkpt>
      <trkpt lat="45.63769" lon="5.64167">
        <ele>221.1</ele>
        <time>2022-09-25T12:59:38Z</time>
      </trkpt>
      <trkpt lat="45.63769" lon="5.64165">
        <ele>221.2</ele>
        <time>2022-09-25T12:59:39Z</time>
      </trkpt>
      <trkpt lat="45.63769" lon="5.64162">
        <ele>221.3</ele>
        <time>2022-09-25T12:59:40Z</time>
      </trkpt>
      <trkpt lat="45.63768" lon="5.6416">
        <ele>221.4</ele>
        <time>2022-09-25T12:59:41Z</time>
      </trkpt>
      <trkpt lat="45.63768" lon="5.64158">
        <ele>221.7</ele>
        <time>2022-09-25T12:59:42Z</time>
      </trkpt>
      <trkpt lat="45.63767" lon="5.64156">
        <ele>221.7</ele>
        <time>2022-09-25T12:59:43Z</time>
      </trkpt>
      <trkpt lat="45.63763" lon="5.64155">
        <ele>221.6</ele>
        <time>2022-09-25T12:59:44Z</time>
      </trkpt>
      <trkpt lat="45.63762" lon="5.64155">
        <ele>221.5</ele>
        <time>2022-09-25T12:59:45Z</time>
      </trkpt>
      <trkpt lat="45.63759" lon="5.64156">
        <ele>221.4</ele>
        <time>2022-09-25T12:59:46Z</time>
      </trkpt>
      <trkpt lat="45.63758" lon="5.64157">
        <ele>221.4</ele>
        <time>2022-09-25T12:59:47Z</time>
      </trkpt>
      <trkpt lat="45.63755" lon="5.64159">
        <ele>221.3</ele>
        <time>2022-09-25T12:59:48Z</time>
      </trkpt>
      <trkpt lat="45.63752" lon="5.64158">
        <ele>221.2</ele>
        <time>2022-09-25T12:59:49Z</time>
      </trkpt>
      <trkpt lat="45.63749" lon="5.64158">
        <ele>221</ele>
        <time>2022-09-25T12:59:50Z</time>
      </trkpt>
      <trkpt lat="45.63745" lon="5.64155">
        <ele>220.8</ele>
        <time>2022-09-25T12:59:51Z</time>
      </trkpt>
      <trkpt lat="45.63743" lon="5.64154">
        <ele>220.7</ele>
        <time>2022-09-25T12:59:52Z</time>
      </trkpt>
      <trkpt lat="45.63739" lon="5.64154">
        <ele>220.5</ele>
        <time>2022-09-25T12:59:53Z</time>
      </trkpt>
      <trkpt lat="45.63736" lon="5.64152">
        <ele>220.3</ele>
        <time>2022-09-25T12:59:54Z</time>
      </trkpt>
      <trkpt lat="45.63731" lon="5.64148">
        <ele>220</ele>
        <time>2022-09-25T12:59:55Z</time>
      </trkpt>
      <trkpt lat="45.63728" lon="5.64146">
        <ele>219.8</ele>
        <time>2022-09-25T12:59:56Z</time>
      </trkpt>
      <trkpt lat="45.63723" lon="5.64143">
        <ele>219.6</ele>
        <time>2022-09-25T12:59:57Z</time>
      </trkpt>
      <trkpt lat="45.63718" lon="5.64141">
        <ele>219.4</ele>
        <time>2022-09-25T12:59:58Z</time>
      </trkpt>
      <trkpt lat="45.63712" lon="5.64137">
        <ele>219.2</ele>
        <time>2022-09-25T12:59:59Z</time>
      </trkpt>
      <trkpt lat="45.63708" lon="5.64134">
        <ele>219.1</ele>
        <time>2022-09-25T13:00:00Z</time>
      </trkpt>
      <trkpt lat="45.63702" lon="5.6413">
        <ele>218.9</ele>
        <time>2022-09-25T13:00:01Z</time>
      </trkpt>
      <trkpt lat="45.63697" lon="5.64127">
        <ele>218.9</ele>
        <time>2022-09-25T13:00:02Z</time>
      </trkpt>
      <trkpt lat="45.63693" lon="5.64123">
        <ele>218.8</ele>
        <time>2022-09-25T13:00:03Z</time>
      </trkpt>
      <trkpt lat="45.63688" lon="5.6412">
        <ele>218.8</ele>
        <time>2022-09-25T13:00:04Z</time>
      </trkpt>
      <trkpt lat="45.63682" lon="5.64116">
        <ele>218.7</ele>
        <time>2022-09-25T13:00:05Z</time>
      </trkpt>
      <trkpt lat="45.63678" lon="5.64113">
        <ele>218.7</ele>
        <time>2022-09-25T13:00:06Z</time>
      </trkpt>
      <trkpt lat="45.63673" lon="5.64111">
        <ele>218.7</ele>
        <time>2022-09-25T13:00:07Z</time>
      </trkpt>
      <trkpt lat="45.63667" lon="5.64109">
        <ele>218.7</ele>
        <time>2022-09-25T13:00:08Z</time>
      </trkpt>
      <trkpt lat="45.63661" lon="5.64107">
        <ele>218.7</ele>
        <time>2022-09-25T13:00:09Z</time>
      </trkpt>
      <trkpt lat="45.63656" lon="5.64105">
        <ele>218.7</ele>
        <time>2022-09-25T13:00:10Z</time>
      </trkpt>
      <trkpt lat="45.63651" lon="5.64104">
        <ele>218.7</ele>
        <time>2022-09-25T13:00:11Z</time>
      </trkpt>
      <trkpt lat="45.63645" lon="5.64104">
        <ele>218.7</ele>
        <time>2022-09-25T13:00:12Z</time>
      </trkpt>
      <trkpt lat="45.63639" lon="5.64102">
        <ele>218.7</ele>
        <time>2022-09-25T13:00:13Z</time>
      </trkpt>
      <trkpt lat="45.63634" lon="5.64101">
        <ele>218.7</ele>
        <time>2022-09-25T13:00:14Z</time>
      </trkpt>
      <trkpt lat="45.63629" lon="5.641">
        <ele>218.7</ele>
        <time>2022-09-25T13:00:15Z</time>
      </trkpt>
      <trkpt lat="45.63624" lon="5.64099">
        <ele>218.7</ele>
        <time>2022-09-25T13:00:16Z</time>
      </trkpt>
      <trkpt lat="45.63619" lon="5.64098">
        <ele>218.7</ele>
        <time>2022-09-25T13:00:17Z</time>
      </trkpt>
      <trkpt lat="45.63614" lon="5.64099">
        <ele>218.7</ele>
        <time>2022-09-25T13:00:18Z</time>
      </trkpt>
      <trkpt lat="45.6361" lon="5.64098">
        <ele>218.8</ele>
        <time>2022-09-25T13:00:19Z</time>
      </trkpt>
      <trkpt lat="45.63606" lon="5.64096">
        <ele>218.8</ele>
        <time>2022-09-25T13:00:20Z</time>
      </trkpt>
      <trkpt lat="45.63602" lon="5.64096">
        <ele>218.8</ele>
        <time>2022-09-25T13:00:21Z</time>
      </trkpt>
      <trkpt lat="45.63598" lon="5.64096">
        <ele>218.8</ele>
        <time>2022-09-25T13:00:22Z</time>
      </trkpt>
      <trkpt lat="45.63594" lon="5.64096">
        <ele>218.8</ele>
        <time>2022-09-25T13:00:23Z</time>
      </trkpt>
      <trkpt lat="45.63589" lon="5.64097">
        <ele>218.9</ele>
        <time>2022-09-25T13:00:24Z</time>
      </trkpt>
      <trkpt lat="45.63585" lon="5.64097">
        <ele>218.9</ele>
        <time>2022-09-25T13:00:25Z</time>
      </trkpt>
      <trkpt lat="45.63581" lon="5.64099">
        <ele>218.8</ele>
        <time>2022-09-25T13:00:26Z</time>
      </trkpt>
      <trkpt lat="45.63576" lon="5.64101">
        <ele>218.8</ele>
        <time>2022-09-25T13:00:27Z</time>
      </trkpt>
      <trkpt lat="45.63572" lon="5.64103">
        <ele>218.8</ele>
        <time>2022-09-25T13:00:28Z</time>
      </trkpt>
      <trkpt lat="45.63567" lon="5.64106">
        <ele>218.8</ele>
        <time>2022-09-25T13:00:29Z</time>
      </trkpt>
      <trkpt lat="45.63563" lon="5.64108">
        <ele>218.8</ele>
        <time>2022-09-25T13:00:30Z</time>
      </trkpt>
      <trkpt lat="45.63558" lon="5.64111">
        <ele>218.8</ele>
        <time>2022-09-25T13:00:31Z</time>
      </trkpt>
      <trkpt lat="45.63554" lon="5.64114">
        <ele>218.8</ele>
        <time>2022-09-25T13:00:32Z</time>
      </trkpt>
      <trkpt lat="45.6355" lon="5.64117">
        <ele>218.8</ele>
        <time>2022-09-25T13:00:33Z</time>
      </trkpt>
      <trkpt lat="45.63546" lon="5.64121">
        <ele>218.7</ele>
        <time>2022-09-25T13:00:34Z</time>
      </trkpt>
      <trkpt lat="45.63542" lon="5.64124">
        <ele>218.7</ele>
        <time>2022-09-25T13:00:35Z</time>
      </trkpt>
      <trkpt lat="45.63538" lon="5.64127">
        <ele>218.7</ele>
        <time>2022-09-25T13:00:36Z</time>
      </trkpt>
      <trkpt lat="45.63535" lon="5.64132">
        <ele>218.7</ele>
        <time>2022-09-25T13:00:37Z</time>
      </trkpt>
      <trkpt lat="45.63532" lon="5.64136">
        <ele>218.7</ele>
        <time>2022-09-25T13:00:38Z</time>
      </trkpt>
      <trkpt lat="45.63529" lon="5.6414">
        <ele>218.7</ele>
        <time>2022-09-25T13:00:39Z</time>
      </trkpt>
      <trkpt lat="45.63526" lon="5.64143">
        <ele>218.7</ele>
        <time>2022-09-25T13:00:40Z</time>
      </trkpt>
      <trkpt lat="45.63523" lon="5.64147">
        <ele>218.7</ele>
        <time>2022-09-25T13:00:41Z</time>
      </trkpt>
      <trkpt lat="45.6352" lon="5.6415">
        <ele>218.7</ele>
        <time>2022-09-25T13:00:42Z</time>
      </trkpt>
      <trkpt lat="45.63516" lon="5.64153">
        <ele>218.7</ele>
        <time>2022-09-25T13:00:43Z</time>
      </trkpt>
      <trkpt lat="45.63513" lon="5.64157">
        <ele>218.7</ele>
        <time>2022-09-25T13:00:44Z</time>
      </trkpt>
      <trkpt lat="45.6351" lon="5.64161">
        <ele>218.7</ele>
        <time>2022-09-25T13:00:45Z</time>
      </trkpt>
      <trkpt lat="45.63506" lon="5.64166">
        <ele>218.6</ele>
        <time>2022-09-25T13:00:46Z</time>
      </trkpt>
      <trkpt lat="45.63503" lon="5.6417">
        <ele>218.6</ele>
        <time>2022-09-25T13:00:47Z</time>
      </trkpt>
      <trkpt lat="45.63499" lon="5.64174">
        <ele>218.6</ele>
        <time>2022-09-25T13:00:48Z</time>
      </trkpt>
      <trkpt lat="45.63495" lon="5.64177">
        <ele>218.6</ele>
        <time>2022-09-25T13:00:49Z</time>
      </trkpt>
      <trkpt lat="45.6349" lon="5.64181">
        <ele>218.6</ele>
        <time>2022-09-25T13:00:50Z</time>
      </trkpt>
      <trkpt lat="45.63487" lon="5.64185">
        <ele>218.6</ele>
        <time>2022-09-25T13:00:51Z</time>
      </trkpt>
      <trkpt lat="45.63483" lon="5.6419">
        <ele>218.6</ele>
        <time>2022-09-25T13:00:52Z</time>
      </trkpt>
      <trkpt lat="45.6348" lon="5.64195">
        <ele>218.7</ele>
        <time>2022-09-25T13:00:53Z</time>
      </trkpt>
      <trkpt lat="45.63477" lon="5.642">
        <ele>218.7</ele>
        <time>2022-09-25T13:00:54Z</time>
      </trkpt>
      <trkpt lat="45.63475" lon="5.64205">
        <ele>218.7</ele>
        <time>2022-09-25T13:00:55Z</time>
      </trkpt>
      <trkpt lat="45.63472" lon="5.64211">
        <ele>218.7</ele>
        <time>2022-09-25T13:00:56Z</time>
      </trkpt>
      <trkpt lat="45.6347" lon="5.64218">
        <ele>218.7</ele>
        <time>2022-09-25T13:00:57Z</time>
      </trkpt>
      <trkpt lat="45.63468" lon="5.64224">
        <ele>218.7</ele>
        <time>2022-09-25T13:00:58Z</time>
      </trkpt>
      <trkpt lat="45.63466" lon="5.64231">
        <ele>218.7</ele>
        <time>2022-09-25T13:00:59Z</time>
      </trkpt>
      <trkpt lat="45.63465" lon="5.64238">
        <ele>218.7</ele>
        <time>2022-09-25T13:01:00Z</time>
      </trkpt>
      <trkpt lat="45.63463" lon="5.64245">
        <ele>218.7</ele>
        <time>2022-09-25T13:01:01Z</time>
      </trkpt>
      <trkpt lat="45.63462" lon="5.64252">
        <ele>218.7</ele>
        <time>2022-09-25T13:01:02Z</time>
      </trkpt>
      <trkpt lat="45.63461" lon="5.6426">
        <ele>218.6</ele>
        <time>2022-09-25T13:01:03Z</time>
      </trkpt>
      <trkpt lat="45.6346" lon="5.64267">
        <ele>218.6</ele>
        <time>2022-09-25T13:01:04Z</time>
      </trkpt>
      <trkpt lat="45.63459" lon="5.64274">
        <ele>218.6</ele>
        <time>2022-09-25T13:01:05Z</time>
      </trkpt>
      <trkpt lat="45.63458" lon="5.64281">
        <ele>218.5</ele>
        <time>2022-09-25T13:01:06Z</time>
      </trkpt>
      <trkpt lat="45.63456" lon="5.64289">
        <ele>218.5</ele>
        <time>2022-09-25T13:01:07Z</time>
      </trkpt>
      <trkpt lat="45.63455" lon="5.64296">
        <ele>218.4</ele>
        <time>2022-09-25T13:01:08Z</time>
      </trkpt>
      <trkpt lat="45.63454" lon="5.64304">
        <ele>218.4</ele>
        <time>2022-09-25T13:01:09Z</time>
      </trkpt>
      <trkpt lat="45.63453" lon="5.64313">
        <ele>218.3</ele>
        <time>2022-09-25T13:01:10Z</time>
      </trkpt>
      <trkpt lat="45.63453" lon="5.6432">
        <ele>218.3</ele>
        <time>2022-09-25T13:01:11Z</time>
      </trkpt>
      <trkpt lat="45.63452" lon="5.64328">
        <ele>218.2</ele>
        <time>2022-09-25T13:01:12Z</time>
      </trkpt>
      <trkpt lat="45.63451" lon="5.64337">
        <ele>218.1</ele>
        <time>2022-09-25T13:01:13Z</time>
      </trkpt>
      <trkpt lat="45.6345" lon="5.64345">
        <ele>218</ele>
        <time>2022-09-25T13:01:14Z</time>
      </trkpt>
      <trkpt lat="45.63449" lon="5.64353">
        <ele>218</ele>
        <time>2022-09-25T13:01:15Z</time>
      </trkpt>
      <trkpt lat="45.63448" lon="5.64362">
        <ele>217.9</ele>
        <time>2022-09-25T13:01:16Z</time>
      </trkpt>
      <trkpt lat="45.63447" lon="5.6437">
        <ele>217.9</ele>
        <time>2022-09-25T13:01:17Z</time>
      </trkpt>
      <trkpt lat="45.63446" lon="5.64378">
        <ele>217.9</ele>
        <time>2022-09-25T13:01:18Z</time>
      </trkpt>
      <trkpt lat="45.63444" lon="5.64386">
        <ele>217.9</ele>
        <time>2022-09-25T13:01:19Z</time>
      </trkpt>
      <trkpt lat="45.63442" lon="5.64394">
        <ele>217.8</ele>
        <time>2022-09-25T13:01:20Z</time>
      </trkpt>
      <trkpt lat="45.6344" lon="5.64402">
        <ele>217.8</ele>
        <time>2022-09-25T13:01:21Z</time>
      </trkpt>
      <trkpt lat="45.63437" lon="5.64409">
        <ele>217.8</ele>
        <time>2022-09-25T13:01:22Z</time>
      </trkpt>
      <trkpt lat="45.63435" lon="5.64417">
        <ele>217.8</ele>
        <time>2022-09-25T13:01:23Z</time>
      </trkpt>
      <trkpt lat="45.63432" lon="5.64424">
        <ele>217.8</ele>
        <time>2022-09-25T13:01:24Z</time>
      </trkpt>
      <trkpt lat="45.63429" lon="5.64432">
        <ele>217.8</ele>
        <time>2022-09-25T13:01:25Z</time>
      </trkpt>
      <trkpt lat="45.63427" lon="5.64439">
        <ele>217.8</ele>
        <time>2022-09-25T13:01:26Z</time>
      </trkpt>
      <trkpt lat="45.63425" lon="5.64447">
        <ele>217.8</ele>
        <time>2022-09-25T13:01:27Z</time>
      </trkpt>
      <trkpt lat="45.63423" lon="5.64455">
        <ele>217.8</ele>
        <time>2022-09-25T13:01:28Z</time>
      </trkpt>
      <trkpt lat="45.6342" lon="5.64462">
        <ele>217.8</ele>
        <time>2022-09-25T13:01:29Z</time>
      </trkpt>
      <trkpt lat="45.63417" lon="5.6447">
        <ele>217.7</ele>
        <time>2022-09-25T13:01:30Z</time>
      </trkpt>
      <trkpt lat="45.63415" lon="5.64478">
        <ele>217.7</ele>
        <time>2022-09-25T13:01:31Z</time>
      </trkpt>
      <trkpt lat="45.63412" lon="5.64486">
        <ele>217.7</ele>
        <time>2022-09-25T13:01:32Z</time>
      </trkpt>
      <trkpt lat="45.63409" lon="5.64493">
        <ele>217.7</ele>
        <time>2022-09-25T13:01:33Z</time>
      </trkpt>
      <trkpt lat="45.63407" lon="5.64501">
        <ele>217.6</ele>
        <time>2022-09-25T13:01:34Z</time>
      </trkpt>
      <trkpt lat="45.63405" lon="5.64509">
        <ele>217.6</ele>
        <time>2022-09-25T13:01:35Z</time>
      </trkpt>
      <trkpt lat="45.63402" lon="5.64517">
        <ele>217.6</ele>
        <time>2022-09-25T13:01:36Z</time>
      </trkpt>
      <trkpt lat="45.63401" lon="5.64525">
        <ele>217.6</ele>
        <time>2022-09-25T13:01:37Z</time>
      </trkpt>
      <trkpt lat="45.63399" lon="5.64532">
        <ele>217.6</ele>
        <time>2022-09-25T13:01:38Z</time>
      </trkpt>
      <trkpt lat="45.63397" lon="5.6454">
        <ele>217.6</ele>
        <time>2022-09-25T13:01:39Z</time>
      </trkpt>
      <trkpt lat="45.63397" lon="5.64548">
        <ele>217.5</ele>
        <time>2022-09-25T13:01:40Z</time>
      </trkpt>
      <trkpt lat="45.63396" lon="5.64556">
        <ele>217.5</ele>
        <time>2022-09-25T13:01:41Z</time>
      </trkpt>
      <trkpt lat="45.63395" lon="5.64565">
        <ele>217.5</ele>
        <time>2022-09-25T13:01:42Z</time>
      </trkpt>
      <trkpt lat="45.63395" lon="5.64572">
        <ele>217.4</ele>
        <time>2022-09-25T13:01:43Z</time>
      </trkpt>
      <trkpt lat="45.63395" lon="5.64581">
        <ele>217.4</ele>
        <time>2022-09-25T13:01:44Z</time>
      </trkpt>
      <trkpt lat="45.63395" lon="5.64588">
        <ele>217.3</ele>
        <time>2022-09-25T13:01:45Z</time>
      </trkpt>
      <trkpt lat="45.63396" lon="5.64596">
        <ele>217.2</ele>
        <time>2022-09-25T13:01:46Z</time>
      </trkpt>
      <trkpt lat="45.63397" lon="5.64603">
        <ele>217</ele>
        <time>2022-09-25T13:01:47Z</time>
      </trkpt>
      <trkpt lat="45.63397" lon="5.64611">
        <ele>216.8</ele>
        <time>2022-09-25T13:01:48Z</time>
      </trkpt>
      <trkpt lat="45.63397" lon="5.6462">
        <ele>216.5</ele>
        <time>2022-09-25T13:01:49Z</time>
      </trkpt>
      <trkpt lat="45.63398" lon="5.64628">
        <ele>216.1</ele>
        <time>2022-09-25T13:01:50Z</time>
      </trkpt>
      <trkpt lat="45.63399" lon="5.64637">
        <ele>215.7</ele>
        <time>2022-09-25T13:01:51Z</time>
      </trkpt>
      <trkpt lat="45.63401" lon="5.64647">
        <ele>215.2</ele>
        <time>2022-09-25T13:01:52Z</time>
      </trkpt>
      <trkpt lat="45.63403" lon="5.64657">
        <ele>214.7</ele>
        <time>2022-09-25T13:01:53Z</time>
      </trkpt>
      <trkpt lat="45.63406" lon="5.64667">
        <ele>214.3</ele>
        <time>2022-09-25T13:01:54Z</time>
      </trkpt>
      <trkpt lat="45.63409" lon="5.64676">
        <ele>214</ele>
        <time>2022-09-25T13:01:55Z</time>
      </trkpt>
      <trkpt lat="45.63412" lon="5.64686">
        <ele>213.8</ele>
        <time>2022-09-25T13:01:56Z</time>
      </trkpt>
      <trkpt lat="45.63416" lon="5.64696">
        <ele>213.6</ele>
        <time>2022-09-25T13:01:57Z</time>
      </trkpt>
      <trkpt lat="45.6342" lon="5.64705">
        <ele>213.5</ele>
        <time>2022-09-25T13:01:58Z</time>
      </trkpt>
      <trkpt lat="45.63424" lon="5.64713">
        <ele>213.5</ele>
        <time>2022-09-25T13:01:59Z</time>
      </trkpt>
      <trkpt lat="45.63429" lon="5.6472">
        <ele>213.4</ele>
        <time>2022-09-25T13:02:00Z</time>
      </trkpt>
      <trkpt lat="45.63434" lon="5.64728">
        <ele>213.4</ele>
        <time>2022-09-25T13:02:01Z</time>
      </trkpt>
      <trkpt lat="45.63439" lon="5.64735">
        <ele>213.3</ele>
        <time>2022-09-25T13:02:02Z</time>
      </trkpt>
      <trkpt lat="45.63443" lon="5.64741">
        <ele>213.3</ele>
        <time>2022-09-25T13:02:03Z</time>
      </trkpt>
      <trkpt lat="45.63448" lon="5.64748">
        <ele>213.2</ele>
        <time>2022-09-25T13:02:04Z</time>
      </trkpt>
      <trkpt lat="45.63453" lon="5.64755">
        <ele>213.2</ele>
        <time>2022-09-25T13:02:05Z</time>
      </trkpt>
      <trkpt lat="45.63457" lon="5.64761">
        <ele>213.2</ele>
        <time>2022-09-25T13:02:06Z</time>
      </trkpt>
      <trkpt lat="45.63462" lon="5.64767">
        <ele>213.2</ele>
        <time>2022-09-25T13:02:07Z</time>
      </trkpt>
      <trkpt lat="45.63467" lon="5.64773">
        <ele>213.1</ele>
        <time>2022-09-25T13:02:08Z</time>
      </trkpt>
      <trkpt lat="45.63471" lon="5.6478">
        <ele>213.1</ele>
        <time>2022-09-25T13:02:09Z</time>
      </trkpt>
      <trkpt lat="45.63475" lon="5.64786">
        <ele>213.1</ele>
        <time>2022-09-25T13:02:10Z</time>
      </trkpt>
      <trkpt lat="45.6348" lon="5.64793">
        <ele>213.1</ele>
        <time>2022-09-25T13:02:11Z</time>
      </trkpt>
      <trkpt lat="45.63484" lon="5.64799">
        <ele>213.1</ele>
        <time>2022-09-25T13:02:12Z</time>
      </trkpt>
      <trkpt lat="45.63488" lon="5.64805">
        <ele>213.1</ele>
        <time>2022-09-25T13:02:13Z</time>
      </trkpt>
      <trkpt lat="45.63493" lon="5.64811">
        <ele>213.1</ele>
        <time>2022-09-25T13:02:14Z</time>
      </trkpt>
      <trkpt lat="45.63497" lon="5.64817">
        <ele>213.1</ele>
        <time>2022-09-25T13:02:15Z</time>
      </trkpt>
      <trkpt lat="45.63501" lon="5.64824">
        <ele>213.1</ele>
        <time>2022-09-25T13:02:16Z</time>
      </trkpt>
      <trkpt lat="45.63506" lon="5.6483">
        <ele>213.1</ele>
        <time>2022-09-25T13:02:17Z</time>
      </trkpt>
      <trkpt lat="45.6351" lon="5.64836">
        <ele>213.1</ele>
        <time>2022-09-25T13:02:18Z</time>
      </trkpt>
      <trkpt lat="45.63515" lon="5.64842">
        <ele>213.1</ele>
        <time>2022-09-25T13:02:19Z</time>
      </trkpt>
      <trkpt lat="45.63519" lon="5.64848">
        <ele>213.1</ele>
        <time>2022-09-25T13:02:20Z</time>
      </trkpt>
      <trkpt lat="45.63523" lon="5.64854">
        <ele>213.2</ele>
        <time>2022-09-25T13:02:21Z</time>
      </trkpt>
      <trkpt lat="45.63527" lon="5.6486">
        <ele>213.2</ele>
        <time>2022-09-25T13:02:22Z</time>
      </trkpt>
      <trkpt lat="45.63532" lon="5.64866">
        <ele>213.2</ele>
        <time>2022-09-25T13:02:23Z</time>
      </trkpt>
      <trkpt lat="45.63536" lon="5.64872">
        <ele>213.2</ele>
        <time>2022-09-25T13:02:24Z</time>
      </trkpt>
      <trkpt lat="45.6354" lon="5.64878">
        <ele>213.2</ele>
        <time>2022-09-25T13:02:25Z</time>
      </trkpt>
      <trkpt lat="45.63544" lon="5.64884">
        <ele>213.2</ele>
        <time>2022-09-25T13:02:26Z</time>
      </trkpt>
      <trkpt lat="45.63549" lon="5.6489">
        <ele>213.2</ele>
        <time>2022-09-25T13:02:27Z</time>
      </trkpt>
      <trkpt lat="45.63553" lon="5.64896">
        <ele>213.2</ele>
        <time>2022-09-25T13:02:28Z</time>
      </trkpt>
      <trkpt lat="45.63554" lon="5.64907">
        <ele>213.2</ele>
        <time>2022-09-25T13:02:29Z</time>
      </trkpt>
      <trkpt lat="45.63559" lon="5.64913">
        <ele>213.2</ele>
        <time>2022-09-25T13:02:30Z</time>
      </trkpt>
      <trkpt lat="45.63562" lon="5.64919">
        <ele>213.2</ele>
        <time>2022-09-25T13:02:31Z</time>
      </trkpt>
      <trkpt lat="45.63566" lon="5.64926">
        <ele>213.2</ele>
        <time>2022-09-25T13:02:32Z</time>
      </trkpt>
      <trkpt lat="45.63571" lon="5.64932">
        <ele>213.2</ele>
        <time>2022-09-25T13:02:33Z</time>
      </trkpt>
      <trkpt lat="45.63575" lon="5.64937">
        <ele>213.2</ele>
        <time>2022-09-25T13:02:34Z</time>
      </trkpt>
      <trkpt lat="45.6358" lon="5.64943">
        <ele>213.2</ele>
        <time>2022-09-25T13:02:35Z</time>
      </trkpt>
      <trkpt lat="45.63583" lon="5.64949">
        <ele>213.2</ele>
        <time>2022-09-25T13:02:36Z</time>
      </trkpt>
      <trkpt lat="45.63587" lon="5.64956">
        <ele>213.3</ele>
        <time>2022-09-25T13:02:37Z</time>
      </trkpt>
      <trkpt lat="45.63592" lon="5.64962">
        <ele>213.3</ele>
        <time>2022-09-25T13:02:38Z</time>
      </trkpt>
      <trkpt lat="45.63596" lon="5.64968">
        <ele>213.3</ele>
        <time>2022-09-25T13:02:39Z</time>
      </trkpt>
      <trkpt lat="45.636" lon="5.64973">
        <ele>213.3</ele>
        <time>2022-09-25T13:02:40Z</time>
      </trkpt>
      <trkpt lat="45.63604" lon="5.64979">
        <ele>213.3</ele>
        <time>2022-09-25T13:02:41Z</time>
      </trkpt>
      <trkpt lat="45.63608" lon="5.64985">
        <ele>213.2</ele>
        <time>2022-09-25T13:02:42Z</time>
      </trkpt>
      <trkpt lat="45.63612" lon="5.64991">
        <ele>213.2</ele>
        <time>2022-09-25T13:02:43Z</time>
      </trkpt>
      <trkpt lat="45.63616" lon="5.64996">
        <ele>213.2</ele>
        <time>2022-09-25T13:02:44Z</time>
      </trkpt>
      <trkpt lat="45.6362" lon="5.65002">
        <ele>213.2</ele>
        <time>2022-09-25T13:02:45Z</time>
      </trkpt>
      <trkpt lat="45.63624" lon="5.65008">
        <ele>213.2</ele>
        <time>2022-09-25T13:02:46Z</time>
      </trkpt>
      <trkpt lat="45.63628" lon="5.65014">
        <ele>213.2</ele>
        <time>2022-09-25T13:02:47Z</time>
      </trkpt>
      <trkpt lat="45.63632" lon="5.65019">
        <ele>213.2</ele>
        <time>2022-09-25T13:02:48Z</time>
      </trkpt>
      <trkpt lat="45.63636" lon="5.65025">
        <ele>213.2</ele>
        <time>2022-09-25T13:02:49Z</time>
      </trkpt>
      <trkpt lat="45.6364" lon="5.65031">
        <ele>213.2</ele>
        <time>2022-09-25T13:02:50Z</time>
      </trkpt>
      <trkpt lat="45.63644" lon="5.65037">
        <ele>213.2</ele>
        <time>2022-09-25T13:02:51Z</time>
      </trkpt>
      <trkpt lat="45.63648" lon="5.65042">
        <ele>213.2</ele>
        <time>2022-09-25T13:02:52Z</time>
      </trkpt>
      <trkpt lat="45.63652" lon="5.65048">
        <ele>213.2</ele>
        <time>2022-09-25T13:02:53Z</time>
      </trkpt>
      <trkpt lat="45.63656" lon="5.65055">
        <ele>213.2</ele>
        <time>2022-09-25T13:02:54Z</time>
      </trkpt>
      <trkpt lat="45.6366" lon="5.65061">
        <ele>213.2</ele>
        <time>2022-09-25T13:02:55Z</time>
      </trkpt>
      <trkpt lat="45.63664" lon="5.65066">
        <ele>213.2</ele>
        <time>2022-09-25T13:02:56Z</time>
      </trkpt>
      <trkpt lat="45.63668" lon="5.65072">
        <ele>213.2</ele>
        <time>2022-09-25T13:02:57Z</time>
      </trkpt>
      <trkpt lat="45.63672" lon="5.65078">
        <ele>213.2</ele>
        <time>2022-09-25T13:02:58Z</time>
      </trkpt>
      <trkpt lat="45.63676" lon="5.65084">
        <ele>213.2</ele>
        <time>2022-09-25T13:02:59Z</time>
      </trkpt>
      <trkpt lat="45.63678" lon="5.65091">
        <ele>213.2</ele>
        <time>2022-09-25T13:03:00Z</time>
      </trkpt>
      <trkpt lat="45.63682" lon="5.65097">
        <ele>213.2</ele>
        <time>2022-09-25T13:03:01Z</time>
      </trkpt>
      <trkpt lat="45.63685" lon="5.65103">
        <ele>213.2</ele>
        <time>2022-09-25T13:03:02Z</time>
      </trkpt>
      <trkpt lat="45.63689" lon="5.6511">
        <ele>213.2</ele>
        <time>2022-09-25T13:03:03Z</time>
      </trkpt>
      <trkpt lat="45.63692" lon="5.65116">
        <ele>213.2</ele>
        <time>2022-09-25T13:03:04Z</time>
      </trkpt>
      <trkpt lat="45.63695" lon="5.65122">
        <ele>213.2</ele>
        <time>2022-09-25T13:03:05Z</time>
      </trkpt>
      <trkpt lat="45.63698" lon="5.65129">
        <ele>213.2</ele>
        <time>2022-09-25T13:03:06Z</time>
      </trkpt>
      <trkpt lat="45.63701" lon="5.65135">
        <ele>213.3</ele>
        <time>2022-09-25T13:03:07Z</time>
      </trkpt>
      <trkpt lat="45.63702" lon="5.65143">
        <ele>213.3</ele>
        <time>2022-09-25T13:03:08Z</time>
      </trkpt>
      <trkpt lat="45.63704" lon="5.6515">
        <ele>213.4</ele>
        <time>2022-09-25T13:03:09Z</time>
      </trkpt>
      <trkpt lat="45.63707" lon="5.65156">
        <ele>213.4</ele>
        <time>2022-09-25T13:03:10Z</time>
      </trkpt>
      <trkpt lat="45.63709" lon="5.65163">
        <ele>213.5</ele>
        <time>2022-09-25T13:03:11Z</time>
      </trkpt>
      <trkpt lat="45.63711" lon="5.6517">
        <ele>213.5</ele>
        <time>2022-09-25T13:03:12Z</time>
      </trkpt>
      <trkpt lat="45.63713" lon="5.65177">
        <ele>213.6</ele>
        <time>2022-09-25T13:03:13Z</time>
      </trkpt>
      <trkpt lat="45.63714" lon="5.65184">
        <ele>213.7</ele>
        <time>2022-09-25T13:03:14Z</time>
      </trkpt>
      <trkpt lat="45.63716" lon="5.65191">
        <ele>213.7</ele>
        <time>2022-09-25T13:03:15Z</time>
      </trkpt>
      <trkpt lat="45.63717" lon="5.65197">
        <ele>213.8</ele>
        <time>2022-09-25T13:03:16Z</time>
      </trkpt>
      <trkpt lat="45.63718" lon="5.65203">
        <ele>213.9</ele>
        <time>2022-09-25T13:03:17Z</time>
      </trkpt>
      <trkpt lat="45.63719" lon="5.6521">
        <ele>213.9</ele>
        <time>2022-09-25T13:03:18Z</time>
      </trkpt>
      <trkpt lat="45.6372" lon="5.65217">
        <ele>214</ele>
        <time>2022-09-25T13:03:19Z</time>
      </trkpt>
      <trkpt lat="45.63721" lon="5.65224">
        <ele>214.1</ele>
        <time>2022-09-25T13:03:20Z</time>
      </trkpt>
      <trkpt lat="45.63723" lon="5.6523">
        <ele>214.2</ele>
        <time>2022-09-25T13:03:21Z</time>
      </trkpt>
      <trkpt lat="45.63725" lon="5.65236">
        <ele>214.3</ele>
        <time>2022-09-25T13:03:22Z</time>
      </trkpt>
      <trkpt lat="45.63726" lon="5.65243">
        <ele>214.4</ele>
        <time>2022-09-25T13:03:23Z</time>
      </trkpt>
      <trkpt lat="45.63728" lon="5.65249">
        <ele>214.5</ele>
        <time>2022-09-25T13:03:24Z</time>
      </trkpt>
      <trkpt lat="45.63729" lon="5.65254">
        <ele>214.5</ele>
        <time>2022-09-25T13:03:25Z</time>
      </trkpt>
      <trkpt lat="45.63731" lon="5.6526">
        <ele>214.6</ele>
        <time>2022-09-25T13:03:26Z</time>
      </trkpt>
      <trkpt lat="45.63732" lon="5.65266">
        <ele>214.7</ele>
        <time>2022-09-25T13:03:27Z</time>
      </trkpt>
      <trkpt lat="45.63732" lon="5.65271">
        <ele>214.7</ele>
        <time>2022-09-25T13:03:28Z</time>
      </trkpt>
      <trkpt lat="45.63732" lon="5.65277">
        <ele>214.8</ele>
        <time>2022-09-25T13:03:29Z</time>
      </trkpt>
      <trkpt lat="45.63732" lon="5.65283">
        <ele>214.8</ele>
        <time>2022-09-25T13:03:30Z</time>
      </trkpt>
      <trkpt lat="45.63731" lon="5.6529">
        <ele>214.8</ele>
        <time>2022-09-25T13:03:31Z</time>
      </trkpt>
      <trkpt lat="45.6373" lon="5.65296">
        <ele>214.8</ele>
        <time>2022-09-25T13:03:32Z</time>
      </trkpt>
      <trkpt lat="45.63729" lon="5.65302">
        <ele>214.9</ele>
        <time>2022-09-25T13:03:33Z</time>
      </trkpt>
      <trkpt lat="45.63727" lon="5.65309">
        <ele>214.9</ele>
        <time>2022-09-25T13:03:34Z</time>
      </trkpt>
      <trkpt lat="45.63726" lon="5.65314">
        <ele>215</ele>
        <time>2022-09-25T13:03:35Z</time>
      </trkpt>
      <trkpt lat="45.63724" lon="5.6532">
        <ele>215</ele>
        <time>2022-09-25T13:03:36Z</time>
      </trkpt>
      <trkpt lat="45.63721" lon="5.65326">
        <ele>215.1</ele>
        <time>2022-09-25T13:03:37Z</time>
      </trkpt>
      <trkpt lat="45.63717" lon="5.6533">
        <ele>215.2</ele>
        <time>2022-09-25T13:03:38Z</time>
      </trkpt>
      <trkpt lat="45.63714" lon="5.65334">
        <ele>215.3</ele>
        <time>2022-09-25T13:03:39Z</time>
      </trkpt>
      <trkpt lat="45.6371" lon="5.65338">
        <ele>215.4</ele>
        <time>2022-09-25T13:03:40Z</time>
      </trkpt>
      <trkpt lat="45.63707" lon="5.65342">
        <ele>215.5</ele>
        <time>2022-09-25T13:03:41Z</time>
      </trkpt>
      <trkpt lat="45.63704" lon="5.65345">
        <ele>215.7</ele>
        <time>2022-09-25T13:03:42Z</time>
      </trkpt>
      <trkpt lat="45.637" lon="5.65347">
        <ele>215.8</ele>
        <time>2022-09-25T13:03:43Z</time>
      </trkpt>
      <trkpt lat="45.63696" lon="5.65349">
        <ele>215.9</ele>
        <time>2022-09-25T13:03:44Z</time>
      </trkpt>
      <trkpt lat="45.63692" lon="5.65351">
        <ele>216.1</ele>
        <time>2022-09-25T13:03:45Z</time>
      </trkpt>
      <trkpt lat="45.63688" lon="5.65352">
        <ele>216.2</ele>
        <time>2022-09-25T13:03:46Z</time>
      </trkpt>
      <trkpt lat="45.63684" lon="5.65354">
        <ele>216.4</ele>
        <time>2022-09-25T13:03:47Z</time>
      </trkpt>
      <trkpt lat="45.6368" lon="5.65354">
        <ele>216.5</ele>
        <time>2022-09-25T13:03:48Z</time>
      </trkpt>
      <trkpt lat="45.63677" lon="5.65354">
        <ele>216.7</ele>
        <time>2022-09-25T13:03:49Z</time>
      </trkpt>
      <trkpt lat="45.63674" lon="5.65353">
        <ele>216.8</ele>
        <time>2022-09-25T13:03:50Z</time>
      </trkpt>
      <trkpt lat="45.6367" lon="5.65353">
        <ele>217</ele>
        <time>2022-09-25T13:03:51Z</time>
      </trkpt>
      <trkpt lat="45.63667" lon="5.65352">
        <ele>217.1</ele>
        <time>2022-09-25T13:03:52Z</time>
      </trkpt>
      <trkpt lat="45.63664" lon="5.65352">
        <ele>217.2</ele>
        <time>2022-09-25T13:03:53Z</time>
      </trkpt>
      <trkpt lat="45.6366" lon="5.65352">
        <ele>217.4</ele>
        <time>2022-09-25T13:03:54Z</time>
      </trkpt>
      <trkpt lat="45.63657" lon="5.65352">
        <ele>217.5</ele>
        <time>2022-09-25T13:03:55Z</time>
      </trkpt>
      <trkpt lat="45.63653" lon="5.65352">
        <ele>217.6</ele>
        <time>2022-09-25T13:03:56Z</time>
      </trkpt>
      <trkpt lat="45.6365" lon="5.65352">
        <ele>217.8</ele>
        <time>2022-09-25T13:03:57Z</time>
      </trkpt>
      <trkpt lat="45.63647" lon="5.65354">
        <ele>217.9</ele>
        <time>2022-09-25T13:03:58Z</time>
      </trkpt>
      <trkpt lat="45.63644" lon="5.65356">
        <ele>218</ele>
        <time>2022-09-25T13:03:59Z</time>
      </trkpt>
      <trkpt lat="45.63641" lon="5.65358">
        <ele>218.2</ele>
        <time>2022-09-25T13:04:00Z</time>
      </trkpt>
      <trkpt lat="45.63639" lon="5.65361">
        <ele>218.3</ele>
        <time>2022-09-25T13:04:01Z</time>
      </trkpt>
      <trkpt lat="45.63637" lon="5.65362">
        <ele>218.3</ele>
        <time>2022-09-25T13:04:02Z</time>
      </trkpt>
      <trkpt lat="45.63636" lon="5.65362">
        <ele>218.3</ele>
        <time>2022-09-25T13:04:03Z</time>
      </trkpt>
      <trkpt lat="45.63636" lon="5.65362">
        <ele>218.3</ele>
        <time>2022-09-25T13:04:04Z</time>
      </trkpt>
      <trkpt lat="45.63636" lon="5.65362">
        <ele>218.3</ele>
        <time>2022-09-25T13:04:05Z</time>
      </trkpt>
      <trkpt lat="45.63636" lon="5.65362">
        <ele>218.3</ele>
        <time>2022-09-25T13:04:06Z</time>
      </trkpt>
      <trkpt lat="45.63635" lon="5.65363">
        <ele>218.3</ele>
        <time>2022-09-25T13:04:07Z</time>
      </trkpt>
      <trkpt lat="45.63633" lon="5.65362">
        <ele>218.3</ele>
        <time>2022-09-25T13:04:08Z</time>
      </trkpt>
      <trkpt lat="45.63632" lon="5.65361">
        <ele>218.3</ele>
        <time>2022-09-25T13:04:09Z</time>
      </trkpt>
      <trkpt lat="45.63631" lon="5.65359">
        <ele>218.4</ele>
        <time>2022-09-25T13:04:10Z</time>
      </trkpt>
      <trkpt lat="45.6363" lon="5.65357">
        <ele>218.4</ele>
        <time>2022-09-25T13:04:11Z</time>
      </trkpt>
      <trkpt lat="45.63625" lon="5.65357">
        <ele>218.4</ele>
        <time>2022-09-25T13:04:12Z</time>
      </trkpt>
      <trkpt lat="45.63623" lon="5.65358">
        <ele>218.4</ele>
        <time>2022-09-25T13:04:13Z</time>
      </trkpt>
      <trkpt lat="45.63621" lon="5.65359">
        <ele>218.4</ele>
        <time>2022-09-25T13:04:14Z</time>
      </trkpt>
      <trkpt lat="45.63619" lon="5.65362">
        <ele>218.4</ele>
        <time>2022-09-25T13:04:15Z</time>
      </trkpt>
      <trkpt lat="45.63617" lon="5.65365">
        <ele>218.5</ele>
        <time>2022-09-25T13:04:16Z</time>
      </trkpt>
      <trkpt lat="45.63615" lon="5.65369">
        <ele>218.5</ele>
        <time>2022-09-25T13:04:17Z</time>
      </trkpt>
      <trkpt lat="45.63613" lon="5.65372">
        <ele>218.5</ele>
        <time>2022-09-25T13:04:18Z</time>
      </trkpt>
      <trkpt lat="45.63611" lon="5.65375">
        <ele>218.5</ele>
        <time>2022-09-25T13:04:19Z</time>
      </trkpt>
      <trkpt lat="45.63608" lon="5.65379">
        <ele>218.6</ele>
        <time>2022-09-25T13:04:20Z</time>
      </trkpt>
      <trkpt lat="45.63606" lon="5.65381">
        <ele>218.6</ele>
        <time>2022-09-25T13:04:21Z</time>
      </trkpt>
      <trkpt lat="45.63604" lon="5.65385">
        <ele>218.6</ele>
        <time>2022-09-25T13:04:22Z</time>
      </trkpt>
      <trkpt lat="45.63602" lon="5.65388">
        <ele>218.7</ele>
        <time>2022-09-25T13:04:23Z</time>
      </trkpt>
      <trkpt lat="45.636" lon="5.65391">
        <ele>218.7</ele>
        <time>2022-09-25T13:04:24Z</time>
      </trkpt>
      <trkpt lat="45.63598" lon="5.65395">
        <ele>218.7</ele>
        <time>2022-09-25T13:04:25Z</time>
      </trkpt>
      <trkpt lat="45.63595" lon="5.65398">
        <ele>218.7</ele>
        <time>2022-09-25T13:04:26Z</time>
      </trkpt>
      <trkpt lat="45.63593" lon="5.65402">
        <ele>218.7</ele>
        <time>2022-09-25T13:04:27Z</time>
      </trkpt>
      <trkpt lat="45.6359" lon="5.65405">
        <ele>218.8</ele>
        <time>2022-09-25T13:04:28Z</time>
      </trkpt>
      <trkpt lat="45.63587" lon="5.65409">
        <ele>218.8</ele>
        <time>2022-09-25T13:04:29Z</time>
      </trkpt>
      <trkpt lat="45.63585" lon="5.65413">
        <ele>218.8</ele>
        <time>2022-09-25T13:04:30Z</time>
      </trkpt>
      <trkpt lat="45.63582" lon="5.65417">
        <ele>218.8</ele>
        <time>2022-09-25T13:04:31Z</time>
      </trkpt>
      <trkpt lat="45.63578" lon="5.6542">
        <ele>218.8</ele>
        <time>2022-09-25T13:04:32Z</time>
      </trkpt>
      <trkpt lat="45.63576" lon="5.65424">
        <ele>218.8</ele>
        <time>2022-09-25T13:04:33Z</time>
      </trkpt>
      <trkpt lat="45.63573" lon="5.65428">
        <ele>218.8</ele>
        <time>2022-09-25T13:04:34Z</time>
      </trkpt>
      <trkpt lat="45.6357" lon="5.65432">
        <ele>218.8</ele>
        <time>2022-09-25T13:04:35Z</time>
      </trkpt>
      <trkpt lat="45.63568" lon="5.65436">
        <ele>218.9</ele>
        <time>2022-09-25T13:04:36Z</time>
      </trkpt>
      <trkpt lat="45.63565" lon="5.65441">
        <ele>218.9</ele>
        <time>2022-09-25T13:04:37Z</time>
      </trkpt>
      <trkpt lat="45.63562" lon="5.65445">
        <ele>218.9</ele>
        <time>2022-09-25T13:04:38Z</time>
      </trkpt>
      <trkpt lat="45.63559" lon="5.6545">
        <ele>218.9</ele>
        <time>2022-09-25T13:04:39Z</time>
      </trkpt>
      <trkpt lat="45.63556" lon="5.65454">
        <ele>218.9</ele>
        <time>2022-09-25T13:04:40Z</time>
      </trkpt>
      <trkpt lat="45.63553" lon="5.65459">
        <ele>218.9</ele>
        <time>2022-09-25T13:04:41Z</time>
      </trkpt>
      <trkpt lat="45.6355" lon="5.65464">
        <ele>218.9</ele>
        <time>2022-09-25T13:04:42Z</time>
      </trkpt>
      <trkpt lat="45.63547" lon="5.65469">
        <ele>218.9</ele>
        <time>2022-09-25T13:04:43Z</time>
      </trkpt>
      <trkpt lat="45.63543" lon="5.65473">
        <ele>218.9</ele>
        <time>2022-09-25T13:04:44Z</time>
      </trkpt>
      <trkpt lat="45.6354" lon="5.65477">
        <ele>218.9</ele>
        <time>2022-09-25T13:04:45Z</time>
      </trkpt>
      <trkpt lat="45.63537" lon="5.65483">
        <ele>218.9</ele>
        <time>2022-09-25T13:04:46Z</time>
      </trkpt>
      <trkpt lat="45.63534" lon="5.65487">
        <ele>218.9</ele>
        <time>2022-09-25T13:04:47Z</time>
      </trkpt>
      <trkpt lat="45.63531" lon="5.65491">
        <ele>218.9</ele>
        <time>2022-09-25T13:04:48Z</time>
      </trkpt>
      <trkpt lat="45.63528" lon="5.65495">
        <ele>218.8</ele>
        <time>2022-09-25T13:04:49Z</time>
      </trkpt>
      <trkpt lat="45.63525" lon="5.655">
        <ele>218.8</ele>
        <time>2022-09-25T13:04:50Z</time>
      </trkpt>
      <trkpt lat="45.63521" lon="5.65505">
        <ele>218.7</ele>
        <time>2022-09-25T13:04:51Z</time>
      </trkpt>
      <trkpt lat="45.63518" lon="5.6551">
        <ele>218.6</ele>
        <time>2022-09-25T13:04:52Z</time>
      </trkpt>
      <trkpt lat="45.63515" lon="5.65515">
        <ele>218.5</ele>
        <time>2022-09-25T13:04:53Z</time>
      </trkpt>
      <trkpt lat="45.63512" lon="5.65519">
        <ele>218.5</ele>
        <time>2022-09-25T13:04:54Z</time>
      </trkpt>
      <trkpt lat="45.63509" lon="5.65523">
        <ele>218.4</ele>
        <time>2022-09-25T13:04:55Z</time>
      </trkpt>
      <trkpt lat="45.63505" lon="5.65529">
        <ele>218.3</ele>
        <time>2022-09-25T13:04:56Z</time>
      </trkpt>
      <trkpt lat="45.63501" lon="5.65535">
        <ele>218.1</ele>
        <time>2022-09-25T13:04:57Z</time>
      </trkpt>
      <trkpt lat="45.63498" lon="5.6554">
        <ele>218.1</ele>
        <time>2022-09-25T13:04:58Z</time>
      </trkpt>
      <trkpt lat="45.63495" lon="5.65546">
        <ele>217.9</ele>
        <time>2022-09-25T13:04:59Z</time>
      </trkpt>
      <trkpt lat="45.6349" lon="5.65553">
        <ele>217.8</ele>
        <time>2022-09-25T13:05:00Z</time>
      </trkpt>
      <trkpt lat="45.63485" lon="5.6556">
        <ele>217.6</ele>
        <time>2022-09-25T13:05:01Z</time>
      </trkpt>
      <trkpt lat="45.63481" lon="5.65566">
        <ele>217.5</ele>
        <time>2022-09-25T13:05:02Z</time>
      </trkpt>
      <trkpt lat="45.63477" lon="5.65572">
        <ele>217.4</ele>
        <time>2022-09-25T13:05:03Z</time>
      </trkpt>
      <trkpt lat="45.63473" lon="5.65577">
        <ele>217.2</ele>
        <time>2022-09-25T13:05:04Z</time>
      </trkpt>
      <trkpt lat="45.6347" lon="5.65582">
        <ele>217.1</ele>
        <time>2022-09-25T13:05:05Z</time>
      </trkpt>
      <trkpt lat="45.63466" lon="5.65586">
        <ele>217</ele>
        <time>2022-09-25T13:05:06Z</time>
      </trkpt>
      <trkpt lat="45.63461" lon="5.65589">
        <ele>216.8</ele>
        <time>2022-09-25T13:05:07Z</time>
      </trkpt>
      <trkpt lat="45.63456" lon="5.6559">
        <ele>216.7</ele>
        <time>2022-09-25T13:05:08Z</time>
      </trkpt>
      <trkpt lat="45.63451" lon="5.65589">
        <ele>216.5</ele>
        <time>2022-09-25T13:05:09Z</time>
      </trkpt>
      <trkpt lat="45.63445" lon="5.65588">
        <ele>216.4</ele>
        <time>2022-09-25T13:05:10Z</time>
      </trkpt>
      <trkpt lat="45.6344" lon="5.65586">
        <ele>216.3</ele>
        <time>2022-09-25T13:05:11Z</time>
      </trkpt>
      <trkpt lat="45.63435" lon="5.65583">
        <ele>216.2</ele>
        <time>2022-09-25T13:05:12Z</time>
      </trkpt>
      <trkpt lat="45.63429" lon="5.6558">
        <ele>216.1</ele>
        <time>2022-09-25T13:05:13Z</time>
      </trkpt>
      <trkpt lat="45.63424" lon="5.65578">
        <ele>216</ele>
        <time>2022-09-25T13:05:14Z</time>
      </trkpt>
      <trkpt lat="45.63419" lon="5.65574">
        <ele>215.9</ele>
        <time>2022-09-25T13:05:15Z</time>
      </trkpt>
      <trkpt lat="45.63416" lon="5.65572">
        <ele>215.9</ele>
        <time>2022-09-25T13:05:16Z</time>
      </trkpt>
      <trkpt lat="45.63412" lon="5.65571">
        <ele>215.8</ele>
        <time>2022-09-25T13:05:17Z</time>
      </trkpt>
      <trkpt lat="45.63409" lon="5.65571">
        <ele>215.8</ele>
        <time>2022-09-25T13:05:18Z</time>
      </trkpt>
      <trkpt lat="45.63407" lon="5.65574">
        <ele>215.8</ele>
        <time>2022-09-25T13:05:19Z</time>
      </trkpt>
      <trkpt lat="45.63406" lon="5.65579">
        <ele>215.8</ele>
        <time>2022-09-25T13:05:20Z</time>
      </trkpt>
      <trkpt lat="45.63406" lon="5.6558">
        <ele>215.8</ele>
        <time>2022-09-25T13:05:21Z</time>
      </trkpt>
      <trkpt lat="45.63408" lon="5.65584">
        <ele>215.7</ele>
        <time>2022-09-25T13:05:22Z</time>
      </trkpt>
      <trkpt lat="45.6341" lon="5.65587">
        <ele>215.8</ele>
        <time>2022-09-25T13:05:23Z</time>
      </trkpt>
      <trkpt lat="45.63413" lon="5.65588">
        <ele>215.8</ele>
        <time>2022-09-25T13:05:24Z</time>
      </trkpt>
      <trkpt lat="45.63416" lon="5.6559">
        <ele>215.8</ele>
        <time>2022-09-25T13:05:25Z</time>
      </trkpt>
      <trkpt lat="45.63419" lon="5.65592">
        <ele>215.9</ele>
        <time>2022-09-25T13:05:26Z</time>
      </trkpt>
      <trkpt lat="45.63422" lon="5.65594">
        <ele>215.9</ele>
        <time>2022-09-25T13:05:27Z</time>
      </trkpt>
      <trkpt lat="45.63425" lon="5.65596">
        <ele>216</ele>
        <time>2022-09-25T13:05:28Z</time>
      </trkpt>
      <trkpt lat="45.63428" lon="5.65598">
        <ele>216</ele>
        <time>2022-09-25T13:05:29Z</time>
      </trkpt>
      <trkpt lat="45.63431" lon="5.656">
        <ele>216.1</ele>
        <time>2022-09-25T13:05:30Z</time>
      </trkpt>
      <trkpt lat="45.63434" lon="5.65602">
        <ele>216.1</ele>
        <time>2022-09-25T13:05:31Z</time>
      </trkpt>
      <trkpt lat="45.63436" lon="5.65604">
        <ele>216.2</ele>
        <time>2022-09-25T13:05:32Z</time>
      </trkpt>
      <trkpt lat="45.63439" lon="5.65606">
        <ele>216.3</ele>
        <time>2022-09-25T13:05:33Z</time>
      </trkpt>
      <trkpt lat="45.63442" lon="5.65608">
        <ele>216.4</ele>
        <time>2022-09-25T13:05:34Z</time>
      </trkpt>
      <trkpt lat="45.63444" lon="5.6561">
        <ele>216.4</ele>
        <time>2022-09-25T13:05:35Z</time>
      </trkpt>
      <trkpt lat="45.63447" lon="5.65611">
        <ele>216.1</ele>
        <time>2022-09-25T13:05:36Z</time>
      </trkpt>
      <trkpt lat="45.6345" lon="5.65613">
        <ele>216.1</ele>
        <time>2022-09-25T13:05:37Z</time>
      </trkpt>
      <trkpt lat="45.63452" lon="5.65615">
        <ele>216.1</ele>
        <time>2022-09-25T13:05:38Z</time>
      </trkpt>
      <trkpt lat="45.63456" lon="5.65618">
        <ele>216</ele>
        <time>2022-09-25T13:05:39Z</time>
      </trkpt>
      <trkpt lat="45.63458" lon="5.6562">
        <ele>215.9</ele>
        <time>2022-09-25T13:05:40Z</time>
      </trkpt>
      <trkpt lat="45.63461" lon="5.65622">
        <ele>215.9</ele>
        <time>2022-09-25T13:05:41Z</time>
      </trkpt>
      <trkpt lat="45.63465" lon="5.65624">
        <ele>215.8</ele>
        <time>2022-09-25T13:05:42Z</time>
      </trkpt>
      <trkpt lat="45.63468" lon="5.65627">
        <ele>215.7</ele>
        <time>2022-09-25T13:05:43Z</time>
      </trkpt>
      <trkpt lat="45.63472" lon="5.6563">
        <ele>215.6</ele>
        <time>2022-09-25T13:05:44Z</time>
      </trkpt>
      <trkpt lat="45.63474" lon="5.65634">
        <ele>215.5</ele>
        <time>2022-09-25T13:05:45Z</time>
      </trkpt>
      <trkpt lat="45.63476" lon="5.65639">
        <ele>215.4</ele>
        <time>2022-09-25T13:05:46Z</time>
      </trkpt>
      <trkpt lat="45.63478" lon="5.65645">
        <ele>215.2</ele>
        <time>2022-09-25T13:05:47Z</time>
      </trkpt>
      <trkpt lat="45.63478" lon="5.65647">
        <ele>215.2</ele>
        <time>2022-09-25T13:05:48Z</time>
      </trkpt>
      <trkpt lat="45.63481" lon="5.65651">
        <ele>215</ele>
        <time>2022-09-25T13:05:49Z</time>
      </trkpt>
      <trkpt lat="45.63484" lon="5.65654">
        <ele>214.9</ele>
        <time>2022-09-25T13:05:50Z</time>
      </trkpt>
      <trkpt lat="45.63489" lon="5.65656">
        <ele>214.8</ele>
        <time>2022-09-25T13:05:51Z</time>
      </trkpt>
      <trkpt lat="45.63492" lon="5.65659">
        <ele>214.7</ele>
        <time>2022-09-25T13:05:52Z</time>
      </trkpt>
      <trkpt lat="45.63496" lon="5.65662">
        <ele>214.6</ele>
        <time>2022-09-25T13:05:53Z</time>
      </trkpt>
      <trkpt lat="45.635" lon="5.65665">
        <ele>214.5</ele>
        <time>2022-09-25T13:05:54Z</time>
      </trkpt>
      <trkpt lat="45.63504" lon="5.65668">
        <ele>214.4</ele>
        <time>2022-09-25T13:05:55Z</time>
      </trkpt>
      <trkpt lat="45.63508" lon="5.65672">
        <ele>214.3</ele>
        <time>2022-09-25T13:05:56Z</time>
      </trkpt>
      <trkpt lat="45.63512" lon="5.65675">
        <ele>214.2</ele>
        <time>2022-09-25T13:05:57Z</time>
      </trkpt>
      <trkpt lat="45.63515" lon="5.65679">
        <ele>214.2</ele>
        <time>2022-09-25T13:05:58Z</time>
      </trkpt>
      <trkpt lat="45.63518" lon="5.65684">
        <ele>214.1</ele>
        <time>2022-09-25T13:05:59Z</time>
      </trkpt>
      <trkpt lat="45.63522" lon="5.65688">
        <ele>214</ele>
        <time>2022-09-25T13:06:00Z</time>
      </trkpt>
      <trkpt lat="45.63525" lon="5.65694">
        <ele>213.9</ele>
        <time>2022-09-25T13:06:01Z</time>
      </trkpt>
      <trkpt lat="45.63528" lon="5.65699">
        <ele>213.8</ele>
        <time>2022-09-25T13:06:02Z</time>
      </trkpt>
      <trkpt lat="45.63532" lon="5.65704">
        <ele>213.8</ele>
        <time>2022-09-25T13:06:03Z</time>
      </trkpt>
      <trkpt lat="45.63536" lon="5.6571">
        <ele>213.7</ele>
        <time>2022-09-25T13:06:04Z</time>
      </trkpt>
      <trkpt lat="45.63539" lon="5.65715">
        <ele>213.6</ele>
        <time>2022-09-25T13:06:05Z</time>
      </trkpt>
      <trkpt lat="45.63543" lon="5.6572">
        <ele>213.5</ele>
        <time>2022-09-25T13:06:06Z</time>
      </trkpt>
      <trkpt lat="45.63547" lon="5.65725">
        <ele>213.5</ele>
        <time>2022-09-25T13:06:07Z</time>
      </trkpt>
      <trkpt lat="45.6355" lon="5.65731">
        <ele>213.5</ele>
        <time>2022-09-25T13:06:08Z</time>
      </trkpt>
      <trkpt lat="45.63554" lon="5.65736">
        <ele>213.5</ele>
        <time>2022-09-25T13:06:09Z</time>
      </trkpt>
      <trkpt lat="45.63558" lon="5.65742">
        <ele>213.5</ele>
        <time>2022-09-25T13:06:10Z</time>
      </trkpt>
      <trkpt lat="45.63562" lon="5.65747">
        <ele>213.4</ele>
        <time>2022-09-25T13:06:11Z</time>
      </trkpt>
      <trkpt lat="45.63565" lon="5.65753">
        <ele>213.4</ele>
        <time>2022-09-25T13:06:12Z</time>
      </trkpt>
      <trkpt lat="45.63569" lon="5.65758">
        <ele>213.4</ele>
        <time>2022-09-25T13:06:13Z</time>
      </trkpt>
      <trkpt lat="45.63573" lon="5.65763">
        <ele>213.4</ele>
        <time>2022-09-25T13:06:14Z</time>
      </trkpt>
      <trkpt lat="45.63577" lon="5.65769">
        <ele>213.4</ele>
        <time>2022-09-25T13:06:15Z</time>
      </trkpt>
      <trkpt lat="45.63581" lon="5.65774">
        <ele>213.4</ele>
        <time>2022-09-25T13:06:16Z</time>
      </trkpt>
      <trkpt lat="45.63585" lon="5.6578">
        <ele>213.4</ele>
        <time>2022-09-25T13:06:17Z</time>
      </trkpt>
      <trkpt lat="45.63588" lon="5.65786">
        <ele>213.4</ele>
        <time>2022-09-25T13:06:18Z</time>
      </trkpt>
      <trkpt lat="45.63592" lon="5.65791">
        <ele>213.4</ele>
        <time>2022-09-25T13:06:19Z</time>
      </trkpt>
      <trkpt lat="45.63596" lon="5.65796">
        <ele>213.5</ele>
        <time>2022-09-25T13:06:20Z</time>
      </trkpt>
      <trkpt lat="45.636" lon="5.65801">
        <ele>213.5</ele>
        <time>2022-09-25T13:06:21Z</time>
      </trkpt>
      <trkpt lat="45.63605" lon="5.65805">
        <ele>213.5</ele>
        <time>2022-09-25T13:06:22Z</time>
      </trkpt>
      <trkpt lat="45.63609" lon="5.65809">
        <ele>213.6</ele>
        <time>2022-09-25T13:06:23Z</time>
      </trkpt>
      <trkpt lat="45.63614" lon="5.65812">
        <ele>213.6</ele>
        <time>2022-09-25T13:06:24Z</time>
      </trkpt>
      <trkpt lat="45.63619" lon="5.65815">
        <ele>213.6</ele>
        <time>2022-09-25T13:06:25Z</time>
      </trkpt>
      <trkpt lat="45.63622" lon="5.65819">
        <ele>213.7</ele>
        <time>2022-09-25T13:06:26Z</time>
      </trkpt>
      <trkpt lat="45.63625" lon="5.65823">
        <ele>213.7</ele>
        <time>2022-09-25T13:06:27Z</time>
      </trkpt>
      <trkpt lat="45.63627" lon="5.65829">
        <ele>213.7</ele>
        <time>2022-09-25T13:06:28Z</time>
      </trkpt>
      <trkpt lat="45.6363" lon="5.65834">
        <ele>213.8</ele>
        <time>2022-09-25T13:06:29Z</time>
      </trkpt>
      <trkpt lat="45.63633" lon="5.6584">
        <ele>213.8</ele>
        <time>2022-09-25T13:06:30Z</time>
      </trkpt>
      <trkpt lat="45.63635" lon="5.65846">
        <ele>213.9</ele>
        <time>2022-09-25T13:06:31Z</time>
      </trkpt>
      <trkpt lat="45.63637" lon="5.65851">
        <ele>213.9</ele>
        <time>2022-09-25T13:06:32Z</time>
      </trkpt>
      <trkpt lat="45.6364" lon="5.65856">
        <ele>214</ele>
        <time>2022-09-25T13:06:33Z</time>
      </trkpt>
      <trkpt lat="45.63643" lon="5.6586">
        <ele>214</ele>
        <time>2022-09-25T13:06:34Z</time>
      </trkpt>
      <trkpt lat="45.63646" lon="5.65863">
        <ele>214</ele>
        <time>2022-09-25T13:06:35Z</time>
      </trkpt>
      <trkpt lat="45.63649" lon="5.65864">
        <ele>214.1</ele>
        <time>2022-09-25T13:06:36Z</time>
      </trkpt>
      <trkpt lat="45.63653" lon="5.65864">
        <ele>214.1</ele>
        <time>2022-09-25T13:06:37Z</time>
      </trkpt>
      <trkpt lat="45.63656" lon="5.65864">
        <ele>214.1</ele>
        <time>2022-09-25T13:06:38Z</time>
      </trkpt>
      <trkpt lat="45.63658" lon="5.65866">
        <ele>214.1</ele>
        <time>2022-09-25T13:06:39Z</time>
      </trkpt>
      <trkpt lat="45.6366" lon="5.65871">
        <ele>214.1</ele>
        <time>2022-09-25T13:06:40Z</time>
      </trkpt>
      <trkpt lat="45.63661" lon="5.65877">
        <ele>214</ele>
        <time>2022-09-25T13:06:41Z</time>
      </trkpt>
      <trkpt lat="45.63662" lon="5.65883">
        <ele>214</ele>
        <time>2022-09-25T13:06:42Z</time>
      </trkpt>
      <trkpt lat="45.63663" lon="5.65889">
        <ele>214</ele>
        <time>2022-09-25T13:06:43Z</time>
      </trkpt>
      <trkpt lat="45.63665" lon="5.65894">
        <ele>214</ele>
        <time>2022-09-25T13:06:44Z</time>
      </trkpt>
      <trkpt lat="45.63666" lon="5.659">
        <ele>213.9</ele>
        <time>2022-09-25T13:06:45Z</time>
      </trkpt>
      <trkpt lat="45.63668" lon="5.65906">
        <ele>213.9</ele>
        <time>2022-09-25T13:06:46Z</time>
      </trkpt>
      <trkpt lat="45.63669" lon="5.65912">
        <ele>213.9</ele>
        <time>2022-09-25T13:06:47Z</time>
      </trkpt>
      <trkpt lat="45.6367" lon="5.65918">
        <ele>213.9</ele>
        <time>2022-09-25T13:06:48Z</time>
      </trkpt>
      <trkpt lat="45.63672" lon="5.65925">
        <ele>213.9</ele>
        <time>2022-09-25T13:06:49Z</time>
      </trkpt>
      <trkpt lat="45.63673" lon="5.65931">
        <ele>213.8</ele>
        <time>2022-09-25T13:06:50Z</time>
      </trkpt>
      <trkpt lat="45.63674" lon="5.65938">
        <ele>213.8</ele>
        <time>2022-09-25T13:06:51Z</time>
      </trkpt>
      <trkpt lat="45.63675" lon="5.65944">
        <ele>213.8</ele>
        <time>2022-09-25T13:06:52Z</time>
      </trkpt>
      <trkpt lat="45.63677" lon="5.65951">
        <ele>213.9</ele>
        <time>2022-09-25T13:06:53Z</time>
      </trkpt>
      <trkpt lat="45.63678" lon="5.65957">
        <ele>213.9</ele>
        <time>2022-09-25T13:06:54Z</time>
      </trkpt>
      <trkpt lat="45.63679" lon="5.65964">
        <ele>213.9</ele>
        <time>2022-09-25T13:06:55Z</time>
      </trkpt>
      <trkpt lat="45.6368" lon="5.65971">
        <ele>213.9</ele>
        <time>2022-09-25T13:06:56Z</time>
      </trkpt>
      <trkpt lat="45.63681" lon="5.65978">
        <ele>213.9</ele>
        <time>2022-09-25T13:06:57Z</time>
      </trkpt>
      <trkpt lat="45.63681" lon="5.65985">
        <ele>213.9</ele>
        <time>2022-09-25T13:06:58Z</time>
      </trkpt>
      <trkpt lat="45.63682" lon="5.65991">
        <ele>213.9</ele>
        <time>2022-09-25T13:06:59Z</time>
      </trkpt>
      <trkpt lat="45.63683" lon="5.65999">
        <ele>213.9</ele>
        <time>2022-09-25T13:07:00Z</time>
      </trkpt>
      <trkpt lat="45.63684" lon="5.66006">
        <ele>213.9</ele>
        <time>2022-09-25T13:07:01Z</time>
      </trkpt>
      <trkpt lat="45.63684" lon="5.66013">
        <ele>213.9</ele>
        <time>2022-09-25T13:07:02Z</time>
      </trkpt>
      <trkpt lat="45.63685" lon="5.6602">
        <ele>213.9</ele>
        <time>2022-09-25T13:07:03Z</time>
      </trkpt>
      <trkpt lat="45.63685" lon="5.66028">
        <ele>214</ele>
        <time>2022-09-25T13:07:04Z</time>
      </trkpt>
      <trkpt lat="45.63685" lon="5.66035">
        <ele>214</ele>
        <time>2022-09-25T13:07:05Z</time>
      </trkpt>
      <trkpt lat="45.63686" lon="5.66042">
        <ele>213.9</ele>
        <time>2022-09-25T13:07:06Z</time>
      </trkpt>
      <trkpt lat="45.63686" lon="5.6605">
        <ele>213.9</ele>
        <time>2022-09-25T13:07:07Z</time>
      </trkpt>
      <trkpt lat="45.63686" lon="5.66057">
        <ele>213.9</ele>
        <time>2022-09-25T13:07:08Z</time>
      </trkpt>
      <trkpt lat="45.63686" lon="5.66065">
        <ele>213.9</ele>
        <time>2022-09-25T13:07:09Z</time>
      </trkpt>
      <trkpt lat="45.63686" lon="5.66073">
        <ele>213.9</ele>
        <time>2022-09-25T13:07:10Z</time>
      </trkpt>
      <trkpt lat="45.63686" lon="5.6608">
        <ele>213.9</ele>
        <time>2022-09-25T13:07:11Z</time>
      </trkpt>
      <trkpt lat="45.63686" lon="5.66088">
        <ele>213.9</ele>
        <time>2022-09-25T13:07:12Z</time>
      </trkpt>
      <trkpt lat="45.63685" lon="5.66096">
        <ele>213.9</ele>
        <time>2022-09-25T13:07:13Z</time>
      </trkpt>
      <trkpt lat="45.63685" lon="5.66104">
        <ele>213.9</ele>
        <time>2022-09-25T13:07:14Z</time>
      </trkpt>
      <trkpt lat="45.63685" lon="5.66112">
        <ele>213.9</ele>
        <time>2022-09-25T13:07:15Z</time>
      </trkpt>
      <trkpt lat="45.63685" lon="5.6612">
        <ele>213.9</ele>
        <time>2022-09-25T13:07:16Z</time>
      </trkpt>
      <trkpt lat="45.63685" lon="5.66128">
        <ele>213.9</ele>
        <time>2022-09-25T13:07:17Z</time>
      </trkpt>
      <trkpt lat="45.63684" lon="5.66136">
        <ele>213.9</ele>
        <time>2022-09-25T13:07:18Z</time>
      </trkpt>
      <trkpt lat="45.63684" lon="5.66144">
        <ele>213.9</ele>
        <time>2022-09-25T13:07:19Z</time>
      </trkpt>
      <trkpt lat="45.63684" lon="5.66152">
        <ele>213.9</ele>
        <time>2022-09-25T13:07:20Z</time>
      </trkpt>
      <trkpt lat="45.63684" lon="5.6616">
        <ele>213.9</ele>
        <time>2022-09-25T13:07:21Z</time>
      </trkpt>
      <trkpt lat="45.63683" lon="5.66168">
        <ele>213.9</ele>
        <time>2022-09-25T13:07:22Z</time>
      </trkpt>
      <trkpt lat="45.63683" lon="5.66176">
        <ele>213.9</ele>
        <time>2022-09-25T13:07:23Z</time>
      </trkpt>
      <trkpt lat="45.63683" lon="5.66184">
        <ele>214</ele>
        <time>2022-09-25T13:07:24Z</time>
      </trkpt>
      <trkpt lat="45.63683" lon="5.66192">
        <ele>214</ele>
        <time>2022-09-25T13:07:25Z</time>
      </trkpt>
      <trkpt lat="45.63683" lon="5.66201">
        <ele>214</ele>
        <time>2022-09-25T13:07:26Z</time>
      </trkpt>
      <trkpt lat="45.63682" lon="5.66209">
        <ele>214</ele>
        <time>2022-09-25T13:07:27Z</time>
      </trkpt>
      <trkpt lat="45.63682" lon="5.66217">
        <ele>214</ele>
        <time>2022-09-25T13:07:28Z</time>
      </trkpt>
      <trkpt lat="45.63682" lon="5.66226">
        <ele>214</ele>
        <time>2022-09-25T13:07:29Z</time>
      </trkpt>
      <trkpt lat="45.63681" lon="5.66234">
        <ele>214.1</ele>
        <time>2022-09-25T13:07:30Z</time>
      </trkpt>
      <trkpt lat="45.63681" lon="5.66242">
        <ele>214.1</ele>
        <time>2022-09-25T13:07:31Z</time>
      </trkpt>
      <trkpt lat="45.63681" lon="5.66251">
        <ele>214.1</ele>
        <time>2022-09-25T13:07:32Z</time>
      </trkpt>
      <trkpt lat="45.63681" lon="5.66259">
        <ele>214.1</ele>
        <time>2022-09-25T13:07:33Z</time>
      </trkpt>
      <trkpt lat="45.6368" lon="5.66268">
        <ele>214.2</ele>
        <time>2022-09-25T13:07:34Z</time>
      </trkpt>
      <trkpt lat="45.6368" lon="5.66276">
        <ele>214.2</ele>
        <time>2022-09-25T13:07:35Z</time>
      </trkpt>
      <trkpt lat="45.6368" lon="5.66284">
        <ele>214.2</ele>
        <time>2022-09-25T13:07:36Z</time>
      </trkpt>
      <trkpt lat="45.6368" lon="5.66293">
        <ele>214.2</ele>
        <time>2022-09-25T13:07:37Z</time>
      </trkpt>
      <trkpt lat="45.63679" lon="5.66301">
        <ele>214.2</ele>
        <time>2022-09-25T13:07:38Z</time>
      </trkpt>
      <trkpt lat="45.63679" lon="5.6631">
        <ele>214.2</ele>
        <time>2022-09-25T13:07:39Z</time>
      </trkpt>
      <trkpt lat="45.63679" lon="5.66318">
        <ele>214.2</ele>
        <time>2022-09-25T13:07:40Z</time>
      </trkpt>
      <trkpt lat="45.63679" lon="5.66327">
        <ele>214.2</ele>
        <time>2022-09-25T13:07:41Z</time>
      </trkpt>
      <trkpt lat="45.63678" lon="5.66336">
        <ele>214.2</ele>
        <time>2022-09-25T13:07:42Z</time>
      </trkpt>
      <trkpt lat="45.63678" lon="5.66345">
        <ele>214.2</ele>
        <time>2022-09-25T13:07:43Z</time>
      </trkpt>
      <trkpt lat="45.63678" lon="5.66354">
        <ele>214.2</ele>
        <time>2022-09-25T13:07:44Z</time>
      </trkpt>
      <trkpt lat="45.63677" lon="5.66362">
        <ele>214.2</ele>
        <time>2022-09-25T13:07:45Z</time>
      </trkpt>
      <trkpt lat="45.63677" lon="5.66371">
        <ele>214.2</ele>
        <time>2022-09-25T13:07:46Z</time>
      </trkpt>
      <trkpt lat="45.63677" lon="5.66379">
        <ele>214.2</ele>
        <time>2022-09-25T13:07:47Z</time>
      </trkpt>
      <trkpt lat="45.63677" lon="5.66388">
        <ele>214.2</ele>
        <time>2022-09-25T13:07:48Z</time>
      </trkpt>
      <trkpt lat="45.63676" lon="5.66396">
        <ele>214.2</ele>
        <time>2022-09-25T13:07:49Z</time>
      </trkpt>
      <trkpt lat="45.63676" lon="5.66405">
        <ele>214.2</ele>
        <time>2022-09-25T13:07:50Z</time>
      </trkpt>
      <trkpt lat="45.63676" lon="5.66413">
        <ele>214.2</ele>
        <time>2022-09-25T13:07:51Z</time>
      </trkpt>
      <trkpt lat="45.63676" lon="5.66421">
        <ele>214.2</ele>
        <time>2022-09-25T13:07:52Z</time>
      </trkpt>
      <trkpt lat="45.63676" lon="5.66429">
        <ele>214.2</ele>
        <time>2022-09-25T13:07:53Z</time>
      </trkpt>
      <trkpt lat="45.63675" lon="5.66438">
        <ele>214.2</ele>
        <time>2022-09-25T13:07:54Z</time>
      </trkpt>
      <trkpt lat="45.63675" lon="5.66446">
        <ele>214.2</ele>
        <time>2022-09-25T13:07:55Z</time>
      </trkpt>
      <trkpt lat="45.63675" lon="5.66454">
        <ele>214.2</ele>
        <time>2022-09-25T13:07:56Z</time>
      </trkpt>
      <trkpt lat="45.63675" lon="5.66462">
        <ele>214.2</ele>
        <time>2022-09-25T13:07:57Z</time>
      </trkpt>
      <trkpt lat="45.63675" lon="5.6647">
        <ele>214.2</ele>
        <time>2022-09-25T13:07:58Z</time>
      </trkpt>
      <trkpt lat="45.63675" lon="5.66478">
        <ele>214.2</ele>
        <time>2022-09-25T13:07:59Z</time>
      </trkpt>
      <trkpt lat="45.63674" lon="5.66486">
        <ele>214.3</ele>
        <time>2022-09-25T13:08:00Z</time>
      </trkpt>
      <trkpt lat="45.63674" lon="5.66494">
        <ele>214.3</ele>
        <time>2022-09-25T13:08:01Z</time>
      </trkpt>
      <trkpt lat="45.63674" lon="5.66502">
        <ele>214.3</ele>
        <time>2022-09-25T13:08:02Z</time>
      </trkpt>
      <trkpt lat="45.63673" lon="5.66509">
        <ele>214.3</ele>
        <time>2022-09-25T13:08:03Z</time>
      </trkpt>
      <trkpt lat="45.63673" lon="5.66517">
        <ele>214.3</ele>
        <time>2022-09-25T13:08:04Z</time>
      </trkpt>
      <trkpt lat="45.63673" lon="5.66524">
        <ele>214.3</ele>
        <time>2022-09-25T13:08:05Z</time>
      </trkpt>
      <trkpt lat="45.63673" lon="5.6653">
        <ele>214.3</ele>
        <time>2022-09-25T13:08:06Z</time>
      </trkpt>
      <trkpt lat="45.63672" lon="5.66535">
        <ele>214.4</ele>
        <time>2022-09-25T13:08:07Z</time>
      </trkpt>
      <trkpt lat="45.63672" lon="5.6654">
        <ele>214.4</ele>
        <time>2022-09-25T13:08:08Z</time>
      </trkpt>
      <trkpt lat="45.63672" lon="5.66546">
        <ele>214.4</ele>
        <time>2022-09-25T13:08:09Z</time>
      </trkpt>
      <trkpt lat="45.63672" lon="5.66548">
        <ele>214.4</ele>
        <time>2022-09-25T13:08:10Z</time>
      </trkpt>
      <trkpt lat="45.63672" lon="5.66553">
        <ele>214.4</ele>
        <time>2022-09-25T13:08:11Z</time>
      </trkpt>
      <trkpt lat="45.63672" lon="5.66558">
        <ele>214.4</ele>
        <time>2022-09-25T13:08:12Z</time>
      </trkpt>
      <trkpt lat="45.63671" lon="5.66564">
        <ele>214.4</ele>
        <time>2022-09-25T13:08:13Z</time>
      </trkpt>
      <trkpt lat="45.63671" lon="5.6657">
        <ele>214.5</ele>
        <time>2022-09-25T13:08:14Z</time>
      </trkpt>
      <trkpt lat="45.63671" lon="5.66577">
        <ele>214.5</ele>
        <time>2022-09-25T13:08:15Z</time>
      </trkpt>
      <trkpt lat="45.63671" lon="5.66583">
        <ele>214.5</ele>
        <time>2022-09-25T13:08:16Z</time>
      </trkpt>
      <trkpt lat="45.63671" lon="5.6659">
        <ele>214.5</ele>
        <time>2022-09-25T13:08:17Z</time>
      </trkpt>
      <trkpt lat="45.63671" lon="5.66596">
        <ele>214.5</ele>
        <time>2022-09-25T13:08:18Z</time>
      </trkpt>
      <trkpt lat="45.6367" lon="5.66603">
        <ele>214.5</ele>
        <time>2022-09-25T13:08:19Z</time>
      </trkpt>
      <trkpt lat="45.6367" lon="5.6661">
        <ele>214.5</ele>
        <time>2022-09-25T13:08:20Z</time>
      </trkpt>
      <trkpt lat="45.6367" lon="5.66617">
        <ele>214.5</ele>
        <time>2022-09-25T13:08:21Z</time>
      </trkpt>
      <trkpt lat="45.6367" lon="5.66625">
        <ele>214.5</ele>
        <time>2022-09-25T13:08:22Z</time>
      </trkpt>
      <trkpt lat="45.63669" lon="5.66632">
        <ele>214.5</ele>
        <time>2022-09-25T13:08:23Z</time>
      </trkpt>
      <trkpt lat="45.63669" lon="5.6664">
        <ele>214.5</ele>
        <time>2022-09-25T13:08:24Z</time>
      </trkpt>
      <trkpt lat="45.63669" lon="5.66647">
        <ele>214.5</ele>
        <time>2022-09-25T13:08:25Z</time>
      </trkpt>
      <trkpt lat="45.63669" lon="5.66654">
        <ele>214.5</ele>
        <time>2022-09-25T13:08:26Z</time>
      </trkpt>
      <trkpt lat="45.63668" lon="5.66662">
        <ele>214.5</ele>
        <time>2022-09-25T13:08:27Z</time>
      </trkpt>
      <trkpt lat="45.63668" lon="5.66669">
        <ele>214.5</ele>
        <time>2022-09-25T13:08:28Z</time>
      </trkpt>
      <trkpt lat="45.63668" lon="5.66676">
        <ele>214.5</ele>
        <time>2022-09-25T13:08:29Z</time>
      </trkpt>
      <trkpt lat="45.63668" lon="5.66684">
        <ele>214.5</ele>
        <time>2022-09-25T13:08:30Z</time>
      </trkpt>
      <trkpt lat="45.63668" lon="5.66691">
        <ele>214.5</ele>
        <time>2022-09-25T13:08:31Z</time>
      </trkpt>
      <trkpt lat="45.63668" lon="5.66699">
        <ele>214.5</ele>
        <time>2022-09-25T13:08:32Z</time>
      </trkpt>
      <trkpt lat="45.63668" lon="5.66706">
        <ele>214.5</ele>
        <time>2022-09-25T13:08:33Z</time>
      </trkpt>
      <trkpt lat="45.63667" lon="5.66713">
        <ele>214.6</ele>
        <time>2022-09-25T13:08:34Z</time>
      </trkpt>
      <trkpt lat="45.63667" lon="5.66719">
        <ele>214.6</ele>
        <time>2022-09-25T13:08:35Z</time>
      </trkpt>
      <trkpt lat="45.63672" lon="5.66725">
        <ele>214.6</ele>
        <time>2022-09-25T13:08:36Z</time>
      </trkpt>
      <trkpt lat="45.63672" lon="5.66732">
        <ele>214.6</ele>
        <time>2022-09-25T13:08:37Z</time>
      </trkpt>
      <trkpt lat="45.63672" lon="5.66738">
        <ele>214.7</ele>
        <time>2022-09-25T13:08:38Z</time>
      </trkpt>
      <trkpt lat="45.63672" lon="5.66744">
        <ele>214.7</ele>
        <time>2022-09-25T13:08:39Z</time>
      </trkpt>
      <trkpt lat="45.63672" lon="5.66749">
        <ele>214.7</ele>
        <time>2022-09-25T13:08:40Z</time>
      </trkpt>
      <trkpt lat="45.63671" lon="5.66755">
        <ele>214.7</ele>
        <time>2022-09-25T13:08:41Z</time>
      </trkpt>
      <trkpt lat="45.63671" lon="5.66759">
        <ele>214.8</ele>
        <time>2022-09-25T13:08:42Z</time>
      </trkpt>
      <trkpt lat="45.63671" lon="5.66763">
        <ele>214.8</ele>
        <time>2022-09-25T13:08:43Z</time>
      </trkpt>
      <trkpt lat="45.63669" lon="5.66768">
        <ele>214.8</ele>
        <time>2022-09-25T13:08:44Z</time>
      </trkpt>
      <trkpt lat="45.63668" lon="5.6677">
        <ele>214.8</ele>
        <time>2022-09-25T13:08:45Z</time>
      </trkpt>
      <trkpt lat="45.63666" lon="5.66774">
        <ele>214.8</ele>
        <time>2022-09-25T13:08:46Z</time>
      </trkpt>
      <trkpt lat="45.63666" lon="5.66778">
        <ele>214.8</ele>
        <time>2022-09-25T13:08:47Z</time>
      </trkpt>
      <trkpt lat="45.63667" lon="5.66783">
        <ele>214.8</ele>
        <time>2022-09-25T13:08:48Z</time>
      </trkpt>
      <trkpt lat="45.63667" lon="5.66788">
        <ele>214.7</ele>
        <time>2022-09-25T13:08:49Z</time>
      </trkpt>
      <trkpt lat="45.63668" lon="5.66793">
        <ele>214.7</ele>
        <time>2022-09-25T13:08:50Z</time>
      </trkpt>
      <trkpt lat="45.63668" lon="5.66798">
        <ele>214.7</ele>
        <time>2022-09-25T13:08:51Z</time>
      </trkpt>
      <trkpt lat="45.63668" lon="5.66803">
        <ele>214.6</ele>
        <time>2022-09-25T13:08:52Z</time>
      </trkpt>
      <trkpt lat="45.63667" lon="5.66808">
        <ele>214.6</ele>
        <time>2022-09-25T13:08:53Z</time>
      </trkpt>
      <trkpt lat="45.63667" lon="5.66813">
        <ele>214.6</ele>
        <time>2022-09-25T13:08:54Z</time>
      </trkpt>
      <trkpt lat="45.63667" lon="5.66819">
        <ele>214.6</ele>
        <time>2022-09-25T13:08:55Z</time>
      </trkpt>
      <trkpt lat="45.63667" lon="5.66825">
        <ele>214.5</ele>
        <time>2022-09-25T13:08:56Z</time>
      </trkpt>
      <trkpt lat="45.63666" lon="5.66831">
        <ele>214.5</ele>
        <time>2022-09-25T13:08:57Z</time>
      </trkpt>
      <trkpt lat="45.63666" lon="5.66837">
        <ele>214.5</ele>
        <time>2022-09-25T13:08:58Z</time>
      </trkpt>
      <trkpt lat="45.63666" lon="5.66844">
        <ele>214.5</ele>
        <time>2022-09-25T13:08:59Z</time>
      </trkpt>
      <trkpt lat="45.63665" lon="5.6685">
        <ele>214.5</ele>
        <time>2022-09-25T13:09:00Z</time>
      </trkpt>
      <trkpt lat="45.63665" lon="5.66857">
        <ele>214.4</ele>
        <time>2022-09-25T13:09:01Z</time>
      </trkpt>
      <trkpt lat="45.63665" lon="5.66863">
        <ele>214.4</ele>
        <time>2022-09-25T13:09:02Z</time>
      </trkpt>
      <trkpt lat="45.63664" lon="5.6687">
        <ele>214.4</ele>
        <time>2022-09-25T13:09:03Z</time>
      </trkpt>
      <trkpt lat="45.63664" lon="5.66877">
        <ele>214.4</ele>
        <time>2022-09-25T13:09:04Z</time>
      </trkpt>
      <trkpt lat="45.63664" lon="5.66884">
        <ele>214.4</ele>
        <time>2022-09-25T13:09:05Z</time>
      </trkpt>
      <trkpt lat="45.63664" lon="5.66891">
        <ele>214.4</ele>
        <time>2022-09-25T13:09:06Z</time>
      </trkpt>
      <trkpt lat="45.63663" lon="5.66898">
        <ele>214.3</ele>
        <time>2022-09-25T13:09:07Z</time>
      </trkpt>
      <trkpt lat="45.63663" lon="5.66905">
        <ele>214.3</ele>
        <time>2022-09-25T13:09:08Z</time>
      </trkpt>
      <trkpt lat="45.63662" lon="5.66912">
        <ele>214.3</ele>
        <time>2022-09-25T13:09:09Z</time>
      </trkpt>
      <trkpt lat="45.63662" lon="5.6692">
        <ele>214.4</ele>
        <time>2022-09-25T13:09:10Z</time>
      </trkpt>
      <trkpt lat="45.63662" lon="5.66927">
        <ele>214.4</ele>
        <time>2022-09-25T13:09:11Z</time>
      </trkpt>
      <trkpt lat="45.63662" lon="5.66935">
        <ele>214.4</ele>
        <time>2022-09-25T13:09:12Z</time>
      </trkpt>
      <trkpt lat="45.63661" lon="5.66942">
        <ele>214.4</ele>
        <time>2022-09-25T13:09:13Z</time>
      </trkpt>
      <trkpt lat="45.63661" lon="5.6695">
        <ele>214.4</ele>
        <time>2022-09-25T13:09:14Z</time>
      </trkpt>
      <trkpt lat="45.63661" lon="5.66957">
        <ele>214.4</ele>
        <time>2022-09-25T13:09:15Z</time>
      </trkpt>
      <trkpt lat="45.63661" lon="5.66965">
        <ele>214.4</ele>
        <time>2022-09-25T13:09:16Z</time>
      </trkpt>
      <trkpt lat="45.63661" lon="5.66972">
        <ele>214.4</ele>
        <time>2022-09-25T13:09:17Z</time>
      </trkpt>
      <trkpt lat="45.6366" lon="5.6698">
        <ele>214.4</ele>
        <time>2022-09-25T13:09:18Z</time>
      </trkpt>
      <trkpt lat="45.6366" lon="5.66988">
        <ele>214.4</ele>
        <time>2022-09-25T13:09:19Z</time>
      </trkpt>
      <trkpt lat="45.6366" lon="5.66996">
        <ele>214.3</ele>
        <time>2022-09-25T13:09:20Z</time>
      </trkpt>
      <trkpt lat="45.63659" lon="5.67003">
        <ele>214.3</ele>
        <time>2022-09-25T13:09:21Z</time>
      </trkpt>
      <trkpt lat="45.63659" lon="5.67011">
        <ele>214.3</ele>
        <time>2022-09-25T13:09:22Z</time>
      </trkpt>
      <trkpt lat="45.63659" lon="5.67019">
        <ele>214.3</ele>
        <time>2022-09-25T13:09:23Z</time>
      </trkpt>
      <trkpt lat="45.63659" lon="5.67028">
        <ele>214.3</ele>
        <time>2022-09-25T13:09:24Z</time>
      </trkpt>
      <trkpt lat="45.63659" lon="5.67036">
        <ele>214.3</ele>
        <time>2022-09-25T13:09:25Z</time>
      </trkpt>
      <trkpt lat="45.63659" lon="5.67044">
        <ele>214.3</ele>
        <time>2022-09-25T13:09:26Z</time>
      </trkpt>
      <trkpt lat="45.63658" lon="5.67052">
        <ele>214.3</ele>
        <time>2022-09-25T13:09:27Z</time>
      </trkpt>
      <trkpt lat="45.63658" lon="5.6706">
        <ele>214.3</ele>
        <time>2022-09-25T13:09:28Z</time>
      </trkpt>
      <trkpt lat="45.63658" lon="5.67068">
        <ele>214.3</ele>
        <time>2022-09-25T13:09:29Z</time>
      </trkpt>
      <trkpt lat="45.63658" lon="5.67077">
        <ele>214.3</ele>
        <time>2022-09-25T13:09:30Z</time>
      </trkpt>
      <trkpt lat="45.63657" lon="5.67085">
        <ele>214.3</ele>
        <time>2022-09-25T13:09:31Z</time>
      </trkpt>
      <trkpt lat="45.63657" lon="5.67093">
        <ele>214.3</ele>
        <time>2022-09-25T13:09:32Z</time>
      </trkpt>
      <trkpt lat="45.63656" lon="5.67101">
        <ele>214.3</ele>
        <time>2022-09-25T13:09:33Z</time>
      </trkpt>
      <trkpt lat="45.63656" lon="5.67109">
        <ele>214.3</ele>
        <time>2022-09-25T13:09:34Z</time>
      </trkpt>
      <trkpt lat="45.63656" lon="5.67117">
        <ele>214.4</ele>
        <time>2022-09-25T13:09:35Z</time>
      </trkpt>
      <trkpt lat="45.63656" lon="5.67125">
        <ele>214.4</ele>
        <time>2022-09-25T13:09:36Z</time>
      </trkpt>
      <trkpt lat="45.63655" lon="5.67134">
        <ele>214.4</ele>
        <time>2022-09-25T13:09:37Z</time>
      </trkpt>
      <trkpt lat="45.63655" lon="5.67142">
        <ele>214.4</ele>
        <time>2022-09-25T13:09:38Z</time>
      </trkpt>
      <trkpt lat="45.63655" lon="5.6715">
        <ele>214.4</ele>
        <time>2022-09-25T13:09:39Z</time>
      </trkpt>
      <trkpt lat="45.63655" lon="5.67158">
        <ele>214.4</ele>
        <time>2022-09-25T13:09:40Z</time>
      </trkpt>
      <trkpt lat="45.63655" lon="5.67167">
        <ele>214.4</ele>
        <time>2022-09-25T13:09:41Z</time>
      </trkpt>
      <trkpt lat="45.63654" lon="5.67175">
        <ele>214.4</ele>
        <time>2022-09-25T13:09:42Z</time>
      </trkpt>
      <trkpt lat="45.63654" lon="5.67183">
        <ele>214.4</ele>
        <time>2022-09-25T13:09:43Z</time>
      </trkpt>
      <trkpt lat="45.63654" lon="5.67192">
        <ele>214.4</ele>
        <time>2022-09-25T13:09:44Z</time>
      </trkpt>
      <trkpt lat="45.63654" lon="5.672">
        <ele>214.4</ele>
        <time>2022-09-25T13:09:45Z</time>
      </trkpt>
      <trkpt lat="45.63654" lon="5.67209">
        <ele>214.4</ele>
        <time>2022-09-25T13:09:46Z</time>
      </trkpt>
      <trkpt lat="45.63653" lon="5.67218">
        <ele>214.4</ele>
        <time>2022-09-25T13:09:47Z</time>
      </trkpt>
      <trkpt lat="45.63653" lon="5.67226">
        <ele>214.4</ele>
        <time>2022-09-25T13:09:48Z</time>
      </trkpt>
      <trkpt lat="45.63653" lon="5.67235">
        <ele>214.4</ele>
        <time>2022-09-25T13:09:49Z</time>
      </trkpt>
      <trkpt lat="45.63653" lon="5.67243">
        <ele>214.4</ele>
        <time>2022-09-25T13:09:50Z</time>
      </trkpt>
      <trkpt lat="45.63652" lon="5.67252">
        <ele>214.4</ele>
        <time>2022-09-25T13:09:51Z</time>
      </trkpt>
      <trkpt lat="45.63652" lon="5.6726">
        <ele>214.4</ele>
        <time>2022-09-25T13:09:52Z</time>
      </trkpt>
      <trkpt lat="45.63652" lon="5.67269">
        <ele>214.4</ele>
        <time>2022-09-25T13:09:53Z</time>
      </trkpt>
      <trkpt lat="45.63652" lon="5.67277">
        <ele>214.4</ele>
        <time>2022-09-25T13:09:54Z</time>
      </trkpt>
      <trkpt lat="45.63652" lon="5.67286">
        <ele>214.4</ele>
        <time>2022-09-25T13:09:55Z</time>
      </trkpt>
      <trkpt lat="45.63651" lon="5.67295">
        <ele>214.4</ele>
        <time>2022-09-25T13:09:56Z</time>
      </trkpt>
      <trkpt lat="45.63651" lon="5.67303">
        <ele>214.4</ele>
        <time>2022-09-25T13:09:57Z</time>
      </trkpt>
      <trkpt lat="45.63651" lon="5.67311">
        <ele>214.4</ele>
        <time>2022-09-25T13:09:58Z</time>
      </trkpt>
      <trkpt lat="45.6365" lon="5.6732">
        <ele>214.5</ele>
        <time>2022-09-25T13:09:59Z</time>
      </trkpt>
      <trkpt lat="45.6365" lon="5.67328">
        <ele>214.5</ele>
        <time>2022-09-25T13:10:00Z</time>
      </trkpt>
      <trkpt lat="45.6365" lon="5.67336">
        <ele>214.5</ele>
        <time>2022-09-25T13:10:01Z</time>
      </trkpt>
      <trkpt lat="45.6365" lon="5.67344">
        <ele>214.5</ele>
        <time>2022-09-25T13:10:02Z</time>
      </trkpt>
      <trkpt lat="45.63649" lon="5.67352">
        <ele>214.5</ele>
        <time>2022-09-25T13:10:03Z</time>
      </trkpt>
      <trkpt lat="45.63649" lon="5.6736">
        <ele>214.5</ele>
        <time>2022-09-25T13:10:04Z</time>
      </trkpt>
      <trkpt lat="45.63649" lon="5.67368">
        <ele>214.5</ele>
        <time>2022-09-25T13:10:05Z</time>
      </trkpt>
      <trkpt lat="45.63649" lon="5.67375">
        <ele>214.5</ele>
        <time>2022-09-25T13:10:06Z</time>
      </trkpt>
      <trkpt lat="45.63648" lon="5.67383">
        <ele>214.5</ele>
        <time>2022-09-25T13:10:07Z</time>
      </trkpt>
      <trkpt lat="45.63648" lon="5.67391">
        <ele>214.5</ele>
        <time>2022-09-25T13:10:08Z</time>
      </trkpt>
      <trkpt lat="45.63647" lon="5.67399">
        <ele>214.5</ele>
        <time>2022-09-25T13:10:09Z</time>
      </trkpt>
      <trkpt lat="45.63647" lon="5.67406">
        <ele>214.5</ele>
        <time>2022-09-25T13:10:10Z</time>
      </trkpt>
      <trkpt lat="45.63647" lon="5.67414">
        <ele>214.6</ele>
        <time>2022-09-25T13:10:11Z</time>
      </trkpt>
      <trkpt lat="45.63647" lon="5.67422">
        <ele>214.6</ele>
        <time>2022-09-25T13:10:12Z</time>
      </trkpt>
      <trkpt lat="45.63647" lon="5.67429">
        <ele>214.6</ele>
        <time>2022-09-25T13:10:13Z</time>
      </trkpt>
      <trkpt lat="45.63647" lon="5.67437">
        <ele>214.6</ele>
        <time>2022-09-25T13:10:14Z</time>
      </trkpt>
      <trkpt lat="45.63647" lon="5.67445">
        <ele>214.6</ele>
        <time>2022-09-25T13:10:15Z</time>
      </trkpt>
      <trkpt lat="45.63646" lon="5.67453">
        <ele>214.6</ele>
        <time>2022-09-25T13:10:16Z</time>
      </trkpt>
      <trkpt lat="45.63646" lon="5.6746">
        <ele>214.6</ele>
        <time>2022-09-25T13:10:17Z</time>
      </trkpt>
      <trkpt lat="45.63646" lon="5.67468">
        <ele>214.6</ele>
        <time>2022-09-25T13:10:18Z</time>
      </trkpt>
      <trkpt lat="45.63646" lon="5.67476">
        <ele>214.6</ele>
        <time>2022-09-25T13:10:19Z</time>
      </trkpt>
      <trkpt lat="45.63645" lon="5.67484">
        <ele>214.7</ele>
        <time>2022-09-25T13:10:20Z</time>
      </trkpt>
      <trkpt lat="45.63645" lon="5.67492">
        <ele>214.7</ele>
        <time>2022-09-25T13:10:21Z</time>
      </trkpt>
      <trkpt lat="45.63645" lon="5.675">
        <ele>214.7</ele>
        <time>2022-09-25T13:10:22Z</time>
      </trkpt>
      <trkpt lat="45.63645" lon="5.67508">
        <ele>214.7</ele>
        <time>2022-09-25T13:10:23Z</time>
      </trkpt>
      <trkpt lat="45.63645" lon="5.67516">
        <ele>214.7</ele>
        <time>2022-09-25T13:10:24Z</time>
      </trkpt>
      <trkpt lat="45.63645" lon="5.67524">
        <ele>214.8</ele>
        <time>2022-09-25T13:10:25Z</time>
      </trkpt>
      <trkpt lat="45.63645" lon="5.67532">
        <ele>214.8</ele>
        <time>2022-09-25T13:10:26Z</time>
      </trkpt>
      <trkpt lat="45.63646" lon="5.6754">
        <ele>214.8</ele>
        <time>2022-09-25T13:10:27Z</time>
      </trkpt>
      <trkpt lat="45.63646" lon="5.67548">
        <ele>214.9</ele>
        <time>2022-09-25T13:10:28Z</time>
      </trkpt>
      <trkpt lat="45.63646" lon="5.67557">
        <ele>214.9</ele>
        <time>2022-09-25T13:10:29Z</time>
      </trkpt>
      <trkpt lat="45.63647" lon="5.67564">
        <ele>214.9</ele>
        <time>2022-09-25T13:10:30Z</time>
      </trkpt>
      <trkpt lat="45.63647" lon="5.67572">
        <ele>215</ele>
        <time>2022-09-25T13:10:31Z</time>
      </trkpt>
      <trkpt lat="45.63647" lon="5.6758">
        <ele>215</ele>
        <time>2022-09-25T13:10:32Z</time>
      </trkpt>
      <trkpt lat="45.63647" lon="5.67588">
        <ele>215.1</ele>
        <time>2022-09-25T13:10:33Z</time>
      </trkpt>
      <trkpt lat="45.63648" lon="5.67596">
        <ele>215.1</ele>
        <time>2022-09-25T13:10:34Z</time>
      </trkpt>
      <trkpt lat="45.63649" lon="5.67604">
        <ele>215.2</ele>
        <time>2022-09-25T13:10:35Z</time>
      </trkpt>
      <trkpt lat="45.63649" lon="5.67611">
        <ele>215.3</ele>
        <time>2022-09-25T13:10:36Z</time>
      </trkpt>
      <trkpt lat="45.6365" lon="5.67619">
        <ele>215.4</ele>
        <time>2022-09-25T13:10:37Z</time>
      </trkpt>
      <trkpt lat="45.63651" lon="5.67627">
        <ele>215.5</ele>
        <time>2022-09-25T13:10:38Z</time>
      </trkpt>
      <trkpt lat="45.63652" lon="5.67634">
        <ele>215.6</ele>
        <time>2022-09-25T13:10:39Z</time>
      </trkpt>
      <trkpt lat="45.63653" lon="5.67641">
        <ele>215.7</ele>
        <time>2022-09-25T13:10:40Z</time>
      </trkpt>
      <trkpt lat="45.63654" lon="5.67648">
        <ele>215.7</ele>
        <time>2022-09-25T13:10:41Z</time>
      </trkpt>
      <trkpt lat="45.63656" lon="5.67655">
        <ele>215.8</ele>
        <time>2022-09-25T13:10:42Z</time>
      </trkpt>
      <trkpt lat="45.63658" lon="5.67659">
        <ele>215.9</ele>
        <time>2022-09-25T13:10:43Z</time>
      </trkpt>
      <trkpt lat="45.6366" lon="5.67662">
        <ele>216</ele>
        <time>2022-09-25T13:10:44Z</time>
      </trkpt>
      <trkpt lat="45.63665" lon="5.67664">
        <ele>216.1</ele>
        <time>2022-09-25T13:10:45Z</time>
      </trkpt>
      <trkpt lat="45.63666" lon="5.67664">
        <ele>216.1</ele>
        <time>2022-09-25T13:10:46Z</time>
      </trkpt>
      <trkpt lat="45.6367" lon="5.67664">
        <ele>216.2</ele>
        <time>2022-09-25T13:10:47Z</time>
      </trkpt>
      <trkpt lat="45.63673" lon="5.67664">
        <ele>216.3</ele>
        <time>2022-09-25T13:10:48Z</time>
      </trkpt>
      <trkpt lat="45.63677" lon="5.67664">
        <ele>216.4</ele>
        <time>2022-09-25T13:10:49Z</time>
      </trkpt>
      <trkpt lat="45.63681" lon="5.67664">
        <ele>216.5</ele>
        <time>2022-09-25T13:10:50Z</time>
      </trkpt>
      <trkpt lat="45.63684" lon="5.67665">
        <ele>216.7</ele>
        <time>2022-09-25T13:10:51Z</time>
      </trkpt>
      <trkpt lat="45.63688" lon="5.67666">
        <ele>216.8</ele>
        <time>2022-09-25T13:10:52Z</time>
      </trkpt>
      <trkpt lat="45.63691" lon="5.67669">
        <ele>217</ele>
        <time>2022-09-25T13:10:53Z</time>
      </trkpt>
      <trkpt lat="45.63693" lon="5.67671">
        <ele>217.1</ele>
        <time>2022-09-25T13:10:54Z</time>
      </trkpt>
      <trkpt lat="45.63696" lon="5.67675">
        <ele>217.2</ele>
        <time>2022-09-25T13:10:55Z</time>
      </trkpt>
      <trkpt lat="45.63697" lon="5.67677">
        <ele>217.3</ele>
        <time>2022-09-25T13:10:56Z</time>
      </trkpt>
      <trkpt lat="45.63699" lon="5.67681">
        <ele>217.4</ele>
        <time>2022-09-25T13:10:57Z</time>
      </trkpt>
      <trkpt lat="45.63699" lon="5.67683">
        <ele>217.5</ele>
        <time>2022-09-25T13:10:58Z</time>
      </trkpt>
      <trkpt lat="45.63701" lon="5.67687">
        <ele>217.6</ele>
        <time>2022-09-25T13:10:59Z</time>
      </trkpt>
      <trkpt lat="45.63701" lon="5.67689">
        <ele>217.6</ele>
        <time>2022-09-25T13:11:00Z</time>
      </trkpt>
      <trkpt lat="45.63703" lon="5.67693">
        <ele>217.7</ele>
        <time>2022-09-25T13:11:01Z</time>
      </trkpt>
      <trkpt lat="45.63704" lon="5.67694">
        <ele>217.7</ele>
        <time>2022-09-25T13:11:02Z</time>
      </trkpt>
      <trkpt lat="45.63706" lon="5.67699">
        <ele>217.8</ele>
        <time>2022-09-25T13:11:03Z</time>
      </trkpt>
      <trkpt lat="45.63707" lon="5.67701">
        <ele>217.8</ele>
        <time>2022-09-25T13:11:04Z</time>
      </trkpt>
      <trkpt lat="45.63708" lon="5.67706">
        <ele>217.9</ele>
        <time>2022-09-25T13:11:05Z</time>
      </trkpt>
      <trkpt lat="45.63709" lon="5.67709">
        <ele>217.9</ele>
        <time>2022-09-25T13:11:06Z</time>
      </trkpt>
      <trkpt lat="45.6371" lon="5.67713">
        <ele>218</ele>
        <time>2022-09-25T13:11:07Z</time>
      </trkpt>
      <trkpt lat="45.63711" lon="5.67717">
        <ele>218</ele>
        <time>2022-09-25T13:11:08Z</time>
      </trkpt>
      <trkpt lat="45.63713" lon="5.67722">
        <ele>218</ele>
        <time>2022-09-25T13:11:09Z</time>
      </trkpt>
      <trkpt lat="45.63714" lon="5.67727">
        <ele>218</ele>
        <time>2022-09-25T13:11:10Z</time>
      </trkpt>
      <trkpt lat="45.63716" lon="5.67732">
        <ele>218.1</ele>
        <time>2022-09-25T13:11:11Z</time>
      </trkpt>
      <trkpt lat="45.63717" lon="5.67737">
        <ele>218.1</ele>
        <time>2022-09-25T13:11:12Z</time>
      </trkpt>
      <trkpt lat="45.63718" lon="5.67743">
        <ele>218.1</ele>
        <time>2022-09-25T13:11:13Z</time>
      </trkpt>
      <trkpt lat="45.6372" lon="5.67748">
        <ele>218.2</ele>
        <time>2022-09-25T13:11:14Z</time>
      </trkpt>
      <trkpt lat="45.63721" lon="5.67754">
        <ele>218.2</ele>
        <time>2022-09-25T13:11:15Z</time>
      </trkpt>
      <trkpt lat="45.63722" lon="5.6776">
        <ele>218.3</ele>
        <time>2022-09-25T13:11:16Z</time>
      </trkpt>
      <trkpt lat="45.63723" lon="5.67766">
        <ele>218.3</ele>
        <time>2022-09-25T13:11:17Z</time>
      </trkpt>
      <trkpt lat="45.63725" lon="5.67773">
        <ele>218.4</ele>
        <time>2022-09-25T13:11:18Z</time>
      </trkpt>
      <trkpt lat="45.63727" lon="5.67779">
        <ele>218.4</ele>
        <time>2022-09-25T13:11:19Z</time>
      </trkpt>
      <trkpt lat="45.63728" lon="5.67785">
        <ele>218.5</ele>
        <time>2022-09-25T13:11:20Z</time>
      </trkpt>
      <trkpt lat="45.6373" lon="5.67791">
        <ele>218.5</ele>
        <time>2022-09-25T13:11:21Z</time>
      </trkpt>
      <trkpt lat="45.63732" lon="5.67798">
        <ele>218.5</ele>
        <time>2022-09-25T13:11:22Z</time>
      </trkpt>
      <trkpt lat="45.63733" lon="5.67804">
        <ele>218.6</ele>
        <time>2022-09-25T13:11:23Z</time>
      </trkpt>
      <trkpt lat="45.63735" lon="5.6781">
        <ele>218.6</ele>
        <time>2022-09-25T13:11:24Z</time>
      </trkpt>
      <trkpt lat="45.63737" lon="5.67817">
        <ele>218.6</ele>
        <time>2022-09-25T13:11:25Z</time>
      </trkpt>
      <trkpt lat="45.63739" lon="5.67823">
        <ele>218.6</ele>
        <time>2022-09-25T13:11:26Z</time>
      </trkpt>
      <trkpt lat="45.63741" lon="5.67829">
        <ele>218.7</ele>
        <time>2022-09-25T13:11:27Z</time>
      </trkpt>
      <trkpt lat="45.63743" lon="5.67835">
        <ele>218.7</ele>
        <time>2022-09-25T13:11:28Z</time>
      </trkpt>
      <trkpt lat="45.63745" lon="5.67842">
        <ele>218.7</ele>
        <time>2022-09-25T13:11:29Z</time>
      </trkpt>
      <trkpt lat="45.63747" lon="5.67848">
        <ele>218.7</ele>
        <time>2022-09-25T13:11:30Z</time>
      </trkpt>
      <trkpt lat="45.63749" lon="5.67855">
        <ele>218.7</ele>
        <time>2022-09-25T13:11:31Z</time>
      </trkpt>
      <trkpt lat="45.63751" lon="5.67861">
        <ele>218.7</ele>
        <time>2022-09-25T13:11:32Z</time>
      </trkpt>
      <trkpt lat="45.63753" lon="5.67868">
        <ele>218.8</ele>
        <time>2022-09-25T13:11:33Z</time>
      </trkpt>
      <trkpt lat="45.63755" lon="5.67874">
        <ele>218.8</ele>
        <time>2022-09-25T13:11:34Z</time>
      </trkpt>
      <trkpt lat="45.63757" lon="5.67881">
        <ele>218.8</ele>
        <time>2022-09-25T13:11:35Z</time>
      </trkpt>
      <trkpt lat="45.6376" lon="5.67888">
        <ele>218.8</ele>
        <time>2022-09-25T13:11:36Z</time>
      </trkpt>
      <trkpt lat="45.63762" lon="5.67893">
        <ele>218.8</ele>
        <time>2022-09-25T13:11:37Z</time>
      </trkpt>
      <trkpt lat="45.63762" lon="5.679">
        <ele>218.8</ele>
        <time>2022-09-25T13:11:38Z</time>
      </trkpt>
      <trkpt lat="45.63765" lon="5.67907">
        <ele>218.8</ele>
        <time>2022-09-25T13:11:39Z</time>
      </trkpt>
      <trkpt lat="45.63766" lon="5.67913">
        <ele>218.8</ele>
        <time>2022-09-25T13:11:40Z</time>
      </trkpt>
      <trkpt lat="45.63768" lon="5.67921">
        <ele>218.8</ele>
        <time>2022-09-25T13:11:41Z</time>
      </trkpt>
      <trkpt lat="45.6377" lon="5.67927">
        <ele>218.8</ele>
        <time>2022-09-25T13:11:42Z</time>
      </trkpt>
      <trkpt lat="45.63772" lon="5.67933">
        <ele>218.8</ele>
        <time>2022-09-25T13:11:43Z</time>
      </trkpt>
      <trkpt lat="45.63774" lon="5.6794">
        <ele>218.8</ele>
        <time>2022-09-25T13:11:44Z</time>
      </trkpt>
      <trkpt lat="45.63776" lon="5.67946">
        <ele>218.8</ele>
        <time>2022-09-25T13:11:45Z</time>
      </trkpt>
      <trkpt lat="45.63778" lon="5.67953">
        <ele>218.8</ele>
        <time>2022-09-25T13:11:46Z</time>
      </trkpt>
      <trkpt lat="45.6378" lon="5.67959">
        <ele>218.8</ele>
        <time>2022-09-25T13:11:47Z</time>
      </trkpt>
      <trkpt lat="45.63782" lon="5.67966">
        <ele>218.8</ele>
        <time>2022-09-25T13:11:48Z</time>
      </trkpt>
      <trkpt lat="45.63784" lon="5.67973">
        <ele>218.8</ele>
        <time>2022-09-25T13:11:49Z</time>
      </trkpt>
      <trkpt lat="45.63786" lon="5.67979">
        <ele>218.8</ele>
        <time>2022-09-25T13:11:50Z</time>
      </trkpt>
      <trkpt lat="45.63788" lon="5.67985">
        <ele>218.8</ele>
        <time>2022-09-25T13:11:51Z</time>
      </trkpt>
      <trkpt lat="45.6379" lon="5.67993">
        <ele>218.7</ele>
        <time>2022-09-25T13:11:52Z</time>
      </trkpt>
      <trkpt lat="45.63792" lon="5.68">
        <ele>218.7</ele>
        <time>2022-09-25T13:11:53Z</time>
      </trkpt>
      <trkpt lat="45.63794" lon="5.68006">
        <ele>218.7</ele>
        <time>2022-09-25T13:11:54Z</time>
      </trkpt>
      <trkpt lat="45.63796" lon="5.68013">
        <ele>218.7</ele>
        <time>2022-09-25T13:11:55Z</time>
      </trkpt>
      <trkpt lat="45.63798" lon="5.6802">
        <ele>218.7</ele>
        <time>2022-09-25T13:11:56Z</time>
      </trkpt>
      <trkpt lat="45.638" lon="5.68027">
        <ele>218.7</ele>
        <time>2022-09-25T13:11:57Z</time>
      </trkpt>
      <trkpt lat="45.63802" lon="5.68033">
        <ele>218.7</ele>
        <time>2022-09-25T13:11:58Z</time>
      </trkpt>
      <trkpt lat="45.63804" lon="5.6804">
        <ele>218.7</ele>
        <time>2022-09-25T13:11:59Z</time>
      </trkpt>
      <trkpt lat="45.63806" lon="5.68047">
        <ele>218.7</ele>
        <time>2022-09-25T13:12:00Z</time>
      </trkpt>
      <trkpt lat="45.63808" lon="5.68053">
        <ele>218.7</ele>
        <time>2022-09-25T13:12:01Z</time>
      </trkpt>
      <trkpt lat="45.63811" lon="5.6806">
        <ele>218.7</ele>
        <time>2022-09-25T13:12:02Z</time>
      </trkpt>
      <trkpt lat="45.63812" lon="5.68068">
        <ele>218.6</ele>
        <time>2022-09-25T13:12:03Z</time>
      </trkpt>
      <trkpt lat="45.63815" lon="5.68075">
        <ele>218.6</ele>
        <time>2022-09-25T13:12:04Z</time>
      </trkpt>
      <trkpt lat="45.63817" lon="5.68082">
        <ele>218.6</ele>
        <time>2022-09-25T13:12:05Z</time>
      </trkpt>
      <trkpt lat="45.63819" lon="5.68089">
        <ele>218.6</ele>
        <time>2022-09-25T13:12:06Z</time>
      </trkpt>
      <trkpt lat="45.63821" lon="5.68096">
        <ele>218.5</ele>
        <time>2022-09-25T13:12:07Z</time>
      </trkpt>
      <trkpt lat="45.63823" lon="5.68103">
        <ele>218.5</ele>
        <time>2022-09-25T13:12:08Z</time>
      </trkpt>
      <trkpt lat="45.63825" lon="5.6811">
        <ele>218.5</ele>
        <time>2022-09-25T13:12:09Z</time>
      </trkpt>
      <trkpt lat="45.63827" lon="5.68117">
        <ele>218.5</ele>
        <time>2022-09-25T13:12:10Z</time>
      </trkpt>
      <trkpt lat="45.63829" lon="5.68124">
        <ele>218.5</ele>
        <time>2022-09-25T13:12:11Z</time>
      </trkpt>
      <trkpt lat="45.63831" lon="5.68131">
        <ele>218.5</ele>
        <time>2022-09-25T13:12:12Z</time>
      </trkpt>
      <trkpt lat="45.63833" lon="5.68138">
        <ele>218.5</ele>
        <time>2022-09-25T13:12:13Z</time>
      </trkpt>
      <trkpt lat="45.63835" lon="5.68145">
        <ele>218.5</ele>
        <time>2022-09-25T13:12:14Z</time>
      </trkpt>
      <trkpt lat="45.63837" lon="5.68152">
        <ele>218.4</ele>
        <time>2022-09-25T13:12:15Z</time>
      </trkpt>
      <trkpt lat="45.63839" lon="5.68159">
        <ele>218.4</ele>
        <time>2022-09-25T13:12:16Z</time>
      </trkpt>
      <trkpt lat="45.6384" lon="5.68167">
        <ele>218.4</ele>
        <time>2022-09-25T13:12:17Z</time>
      </trkpt>
      <trkpt lat="45.63842" lon="5.68174">
        <ele>218.4</ele>
        <time>2022-09-25T13:12:18Z</time>
      </trkpt>
      <trkpt lat="45.63843" lon="5.68182">
        <ele>218.4</ele>
        <time>2022-09-25T13:12:19Z</time>
      </trkpt>
      <trkpt lat="45.63844" lon="5.68189">
        <ele>218.4</ele>
        <time>2022-09-25T13:12:20Z</time>
      </trkpt>
      <trkpt lat="45.63845" lon="5.68196">
        <ele>218.4</ele>
        <time>2022-09-25T13:12:21Z</time>
      </trkpt>
      <trkpt lat="45.63846" lon="5.68204">
        <ele>218.4</ele>
        <time>2022-09-25T13:12:22Z</time>
      </trkpt>
      <trkpt lat="45.63846" lon="5.68211">
        <ele>218.3</ele>
        <time>2022-09-25T13:12:23Z</time>
      </trkpt>
      <trkpt lat="45.63847" lon="5.68219">
        <ele>218.3</ele>
        <time>2022-09-25T13:12:24Z</time>
      </trkpt>
      <trkpt lat="45.63848" lon="5.68226">
        <ele>218.3</ele>
        <time>2022-09-25T13:12:25Z</time>
      </trkpt>
      <trkpt lat="45.63848" lon="5.68234">
        <ele>218.2</ele>
        <time>2022-09-25T13:12:26Z</time>
      </trkpt>
      <trkpt lat="45.63848" lon="5.68241">
        <ele>218.1</ele>
        <time>2022-09-25T13:12:27Z</time>
      </trkpt>
      <trkpt lat="45.63848" lon="5.68248">
        <ele>218</ele>
        <time>2022-09-25T13:12:28Z</time>
      </trkpt>
      <trkpt lat="45.63849" lon="5.68255">
        <ele>217.8</ele>
        <time>2022-09-25T13:12:29Z</time>
      </trkpt>
      <trkpt lat="45.63849" lon="5.68261">
        <ele>217.7</ele>
        <time>2022-09-25T13:12:30Z</time>
      </trkpt>
      <trkpt lat="45.63849" lon="5.68268">
        <ele>217.5</ele>
        <time>2022-09-25T13:12:31Z</time>
      </trkpt>
      <trkpt lat="45.63849" lon="5.68275">
        <ele>217.4</ele>
        <time>2022-09-25T13:12:32Z</time>
      </trkpt>
      <trkpt lat="45.63849" lon="5.68283">
        <ele>217.2</ele>
        <time>2022-09-25T13:12:33Z</time>
      </trkpt>
      <trkpt lat="45.6385" lon="5.6829">
        <ele>217</ele>
        <time>2022-09-25T13:12:34Z</time>
      </trkpt>
      <trkpt lat="45.6385" lon="5.68297">
        <ele>216.9</ele>
        <time>2022-09-25T13:12:35Z</time>
      </trkpt>
      <trkpt lat="45.63851" lon="5.68305">
        <ele>216.7</ele>
        <time>2022-09-25T13:12:36Z</time>
      </trkpt>
      <trkpt lat="45.63851" lon="5.68312">
        <ele>216.6</ele>
        <time>2022-09-25T13:12:37Z</time>
      </trkpt>
      <trkpt lat="45.6385" lon="5.6832">
        <ele>216.5</ele>
        <time>2022-09-25T13:12:38Z</time>
      </trkpt>
      <trkpt lat="45.63848" lon="5.68326">
        <ele>216.4</ele>
        <time>2022-09-25T13:12:39Z</time>
      </trkpt>
      <trkpt lat="45.63846" lon="5.68331">
        <ele>216.3</ele>
        <time>2022-09-25T13:12:40Z</time>
      </trkpt>
      <trkpt lat="45.63843" lon="5.68336">
        <ele>216.3</ele>
        <time>2022-09-25T13:12:41Z</time>
      </trkpt>
      <trkpt lat="45.63839" lon="5.68338">
        <ele>216.2</ele>
        <time>2022-09-25T13:12:42Z</time>
      </trkpt>
      <trkpt lat="45.63836" lon="5.68337">
        <ele>216.2</ele>
        <time>2022-09-25T13:12:43Z</time>
      </trkpt>
      <trkpt lat="45.63832" lon="5.68336">
        <ele>216.1</ele>
        <time>2022-09-25T13:12:44Z</time>
      </trkpt>
      <trkpt lat="45.6383" lon="5.68339">
        <ele>216</ele>
        <time>2022-09-25T13:12:45Z</time>
      </trkpt>
      <trkpt lat="45.63829" lon="5.68343">
        <ele>215.9</ele>
        <time>2022-09-25T13:12:46Z</time>
      </trkpt>
      <trkpt lat="45.63829" lon="5.68348">
        <ele>215.8</ele>
        <time>2022-09-25T13:12:47Z</time>
      </trkpt>
      <trkpt lat="45.63829" lon="5.68353">
        <ele>215.7</ele>
        <time>2022-09-25T13:12:48Z</time>
      </trkpt>
      <trkpt lat="45.63829" lon="5.68359">
        <ele>215.6</ele>
        <time>2022-09-25T13:12:49Z</time>
      </trkpt>
      <trkpt lat="45.63829" lon="5.68364">
        <ele>215.5</ele>
        <time>2022-09-25T13:12:50Z</time>
      </trkpt>
      <trkpt lat="45.63829" lon="5.68371">
        <ele>215.4</ele>
        <time>2022-09-25T13:12:51Z</time>
      </trkpt>
      <trkpt lat="45.6383" lon="5.68376">
        <ele>215.3</ele>
        <time>2022-09-25T13:12:52Z</time>
      </trkpt>
      <trkpt lat="45.6383" lon="5.68383">
        <ele>215.2</ele>
        <time>2022-09-25T13:12:53Z</time>
      </trkpt>
      <trkpt lat="45.6383" lon="5.6839">
        <ele>215.1</ele>
        <time>2022-09-25T13:12:54Z</time>
      </trkpt>
      <trkpt lat="45.6383" lon="5.68397">
        <ele>215.1</ele>
        <time>2022-09-25T13:12:55Z</time>
      </trkpt>
      <trkpt lat="45.63831" lon="5.68404">
        <ele>215</ele>
        <time>2022-09-25T13:12:56Z</time>
      </trkpt>
      <trkpt lat="45.63831" lon="5.68412">
        <ele>215</ele>
        <time>2022-09-25T13:12:57Z</time>
      </trkpt>
      <trkpt lat="45.63832" lon="5.68419">
        <ele>214.9</ele>
        <time>2022-09-25T13:12:58Z</time>
      </trkpt>
      <trkpt lat="45.63832" lon="5.68427">
        <ele>214.9</ele>
        <time>2022-09-25T13:12:59Z</time>
      </trkpt>
      <trkpt lat="45.63833" lon="5.68434">
        <ele>214.8</ele>
        <time>2022-09-25T13:13:00Z</time>
      </trkpt>
      <trkpt lat="45.63833" lon="5.68442">
        <ele>214.8</ele>
        <time>2022-09-25T13:13:01Z</time>
      </trkpt>
      <trkpt lat="45.63834" lon="5.68449">
        <ele>214.8</ele>
        <time>2022-09-25T13:13:02Z</time>
      </trkpt>
      <trkpt lat="45.63835" lon="5.68457">
        <ele>214.8</ele>
        <time>2022-09-25T13:13:03Z</time>
      </trkpt>
      <trkpt lat="45.63836" lon="5.68464">
        <ele>214.8</ele>
        <time>2022-09-25T13:13:04Z</time>
      </trkpt>
      <trkpt lat="45.63837" lon="5.68472">
        <ele>214.8</ele>
        <time>2022-09-25T13:13:05Z</time>
      </trkpt>
      <trkpt lat="45.63838" lon="5.68479">
        <ele>214.8</ele>
        <time>2022-09-25T13:13:06Z</time>
      </trkpt>
      <trkpt lat="45.63839" lon="5.68486">
        <ele>214.8</ele>
        <time>2022-09-25T13:13:07Z</time>
      </trkpt>
      <trkpt lat="45.6384" lon="5.68492">
        <ele>214.8</ele>
        <time>2022-09-25T13:13:08Z</time>
      </trkpt>
      <trkpt lat="45.63841" lon="5.68499">
        <ele>214.8</ele>
        <time>2022-09-25T13:13:09Z</time>
      </trkpt>
      <trkpt lat="45.63842" lon="5.68506">
        <ele>214.8</ele>
        <time>2022-09-25T13:13:10Z</time>
      </trkpt>
      <trkpt lat="45.63842" lon="5.68513">
        <ele>214.8</ele>
        <time>2022-09-25T13:13:11Z</time>
      </trkpt>
      <trkpt lat="45.63844" lon="5.6852">
        <ele>214.9</ele>
        <time>2022-09-25T13:13:12Z</time>
      </trkpt>
      <trkpt lat="45.63845" lon="5.68526">
        <ele>214.9</ele>
        <time>2022-09-25T13:13:13Z</time>
      </trkpt>
      <trkpt lat="45.63846" lon="5.68533">
        <ele>214.9</ele>
        <time>2022-09-25T13:13:14Z</time>
      </trkpt>
      <trkpt lat="45.63847" lon="5.6854">
        <ele>214.9</ele>
        <time>2022-09-25T13:13:15Z</time>
      </trkpt>
      <trkpt lat="45.63849" lon="5.68547">
        <ele>215</ele>
        <time>2022-09-25T13:13:16Z</time>
      </trkpt>
      <trkpt lat="45.63851" lon="5.68553">
        <ele>215</ele>
        <time>2022-09-25T13:13:17Z</time>
      </trkpt>
      <trkpt lat="45.63853" lon="5.68559">
        <ele>215</ele>
        <time>2022-09-25T13:13:18Z</time>
      </trkpt>
      <trkpt lat="45.63855" lon="5.68566">
        <ele>215.1</ele>
        <time>2022-09-25T13:13:19Z</time>
      </trkpt>
      <trkpt lat="45.63857" lon="5.68572">
        <ele>215.1</ele>
        <time>2022-09-25T13:13:20Z</time>
      </trkpt>
      <trkpt lat="45.63859" lon="5.68578">
        <ele>215.2</ele>
        <time>2022-09-25T13:13:21Z</time>
      </trkpt>
      <trkpt lat="45.63862" lon="5.68584">
        <ele>215.2</ele>
        <time>2022-09-25T13:13:22Z</time>
      </trkpt>
      <trkpt lat="45.63864" lon="5.6859">
        <ele>215.3</ele>
        <time>2022-09-25T13:13:23Z</time>
      </trkpt>
      <trkpt lat="45.63866" lon="5.68595">
        <ele>215.3</ele>
        <time>2022-09-25T13:13:24Z</time>
      </trkpt>
      <trkpt lat="45.63868" lon="5.68602">
        <ele>215.4</ele>
        <time>2022-09-25T13:13:25Z</time>
      </trkpt>
      <trkpt lat="45.63871" lon="5.68607">
        <ele>215.4</ele>
        <time>2022-09-25T13:13:26Z</time>
      </trkpt>
      <trkpt lat="45.63873" lon="5.68613">
        <ele>215.5</ele>
        <time>2022-09-25T13:13:27Z</time>
      </trkpt>
      <trkpt lat="45.63875" lon="5.68619">
        <ele>215.5</ele>
        <time>2022-09-25T13:13:28Z</time>
      </trkpt>
      <trkpt lat="45.63877" lon="5.68624">
        <ele>215.5</ele>
        <time>2022-09-25T13:13:29Z</time>
      </trkpt>
      <trkpt lat="45.63879" lon="5.6863">
        <ele>215.6</ele>
        <time>2022-09-25T13:13:30Z</time>
      </trkpt>
      <trkpt lat="45.63881" lon="5.68636">
        <ele>215.5</ele>
        <time>2022-09-25T13:13:31Z</time>
      </trkpt>
      <trkpt lat="45.63884" lon="5.68642">
        <ele>215.5</ele>
        <time>2022-09-25T13:13:32Z</time>
      </trkpt>
      <trkpt lat="45.63886" lon="5.68648">
        <ele>215.4</ele>
        <time>2022-09-25T13:13:33Z</time>
      </trkpt>
      <trkpt lat="45.63888" lon="5.68654">
        <ele>215.3</ele>
        <time>2022-09-25T13:13:34Z</time>
      </trkpt>
      <trkpt lat="45.6389" lon="5.68659">
        <ele>215.2</ele>
        <time>2022-09-25T13:13:35Z</time>
      </trkpt>
      <trkpt lat="45.63894" lon="5.68666">
        <ele>215.1</ele>
        <time>2022-09-25T13:13:36Z</time>
      </trkpt>
      <trkpt lat="45.63898" lon="5.68672">
        <ele>215</ele>
        <time>2022-09-25T13:13:37Z</time>
      </trkpt>
      <trkpt lat="45.639" lon="5.68678">
        <ele>214.9</ele>
        <time>2022-09-25T13:13:38Z</time>
      </trkpt>
      <trkpt lat="45.63903" lon="5.68685">
        <ele>214.8</ele>
        <time>2022-09-25T13:13:39Z</time>
      </trkpt>
      <trkpt lat="45.63907" lon="5.6869">
        <ele>214.7</ele>
        <time>2022-09-25T13:13:40Z</time>
      </trkpt>
      <trkpt lat="45.63911" lon="5.68697">
        <ele>214.6</ele>
        <time>2022-09-25T13:13:41Z</time>
      </trkpt>
      <trkpt lat="45.63914" lon="5.68704">
        <ele>214.5</ele>
        <time>2022-09-25T13:13:42Z</time>
      </trkpt>
      <trkpt lat="45.63918" lon="5.68711">
        <ele>214.4</ele>
        <time>2022-09-25T13:13:43Z</time>
      </trkpt>
      <trkpt lat="45.63921" lon="5.68717">
        <ele>214.3</ele>
        <time>2022-09-25T13:13:44Z</time>
      </trkpt>
      <trkpt lat="45.63925" lon="5.68723">
        <ele>214.3</ele>
        <time>2022-09-25T13:13:45Z</time>
      </trkpt>
      <trkpt lat="45.63928" lon="5.6873">
        <ele>214.3</ele>
        <time>2022-09-25T13:13:46Z</time>
      </trkpt>
      <trkpt lat="45.63932" lon="5.68737">
        <ele>214.2</ele>
        <time>2022-09-25T13:13:47Z</time>
      </trkpt>
      <trkpt lat="45.63935" lon="5.68743">
        <ele>214.2</ele>
        <time>2022-09-25T13:13:48Z</time>
      </trkpt>
      <trkpt lat="45.63939" lon="5.68748">
        <ele>214.2</ele>
        <time>2022-09-25T13:13:49Z</time>
      </trkpt>
      <trkpt lat="45.63943" lon="5.68755">
        <ele>214.2</ele>
        <time>2022-09-25T13:13:50Z</time>
      </trkpt>
      <trkpt lat="45.63947" lon="5.68761">
        <ele>214.2</ele>
        <time>2022-09-25T13:13:51Z</time>
      </trkpt>
      <trkpt lat="45.6395" lon="5.68767">
        <ele>214.2</ele>
        <time>2022-09-25T13:13:52Z</time>
      </trkpt>
      <trkpt lat="45.63954" lon="5.68775">
        <ele>214.3</ele>
        <time>2022-09-25T13:13:53Z</time>
      </trkpt>
      <trkpt lat="45.63958" lon="5.68779">
        <ele>214.3</ele>
        <time>2022-09-25T13:13:54Z</time>
      </trkpt>
      <trkpt lat="45.63962" lon="5.68785">
        <ele>214.3</ele>
        <time>2022-09-25T13:13:55Z</time>
      </trkpt>
      <trkpt lat="45.63966" lon="5.68791">
        <ele>214.3</ele>
        <time>2022-09-25T13:13:56Z</time>
      </trkpt>
      <trkpt lat="45.63969" lon="5.68797">
        <ele>214.4</ele>
        <time>2022-09-25T13:13:57Z</time>
      </trkpt>
      <trkpt lat="45.63972" lon="5.68803">
        <ele>214.4</ele>
        <time>2022-09-25T13:13:58Z</time>
      </trkpt>
      <trkpt lat="45.63976" lon="5.68809">
        <ele>214.5</ele>
        <time>2022-09-25T13:13:59Z</time>
      </trkpt>
      <trkpt lat="45.6398" lon="5.68815">
        <ele>214.5</ele>
        <time>2022-09-25T13:14:00Z</time>
      </trkpt>
      <trkpt lat="45.63984" lon="5.68821">
        <ele>214.5</ele>
        <time>2022-09-25T13:14:01Z</time>
      </trkpt>
      <trkpt lat="45.63987" lon="5.68826">
        <ele>214.6</ele>
        <time>2022-09-25T13:14:02Z</time>
      </trkpt>
      <trkpt lat="45.63992" lon="5.68832">
        <ele>214.6</ele>
        <time>2022-09-25T13:14:03Z</time>
      </trkpt>
      <trkpt lat="45.63995" lon="5.68837">
        <ele>214.7</ele>
        <time>2022-09-25T13:14:04Z</time>
      </trkpt>
      <trkpt lat="45.63999" lon="5.68843">
        <ele>214.7</ele>
        <time>2022-09-25T13:14:05Z</time>
      </trkpt>
      <trkpt lat="45.64003" lon="5.68849">
        <ele>214.7</ele>
        <time>2022-09-25T13:14:06Z</time>
      </trkpt>
      <trkpt lat="45.64007" lon="5.68854">
        <ele>214.8</ele>
        <time>2022-09-25T13:14:07Z</time>
      </trkpt>
      <trkpt lat="45.6401" lon="5.6886">
        <ele>214.8</ele>
        <time>2022-09-25T13:14:08Z</time>
      </trkpt>
      <trkpt lat="45.64014" lon="5.68866">
        <ele>214.8</ele>
        <time>2022-09-25T13:14:09Z</time>
      </trkpt>
      <trkpt lat="45.64018" lon="5.68871">
        <ele>214.8</ele>
        <time>2022-09-25T13:14:10Z</time>
      </trkpt>
      <trkpt lat="45.64022" lon="5.68876">
        <ele>214.8</ele>
        <time>2022-09-25T13:14:11Z</time>
      </trkpt>
      <trkpt lat="45.64026" lon="5.68882">
        <ele>214.8</ele>
        <time>2022-09-25T13:14:12Z</time>
      </trkpt>
      <trkpt lat="45.6403" lon="5.68886">
        <ele>214.8</ele>
        <time>2022-09-25T13:14:13Z</time>
      </trkpt>
      <trkpt lat="45.64034" lon="5.68893">
        <ele>214.8</ele>
        <time>2022-09-25T13:14:14Z</time>
      </trkpt>
      <trkpt lat="45.64038" lon="5.68898">
        <ele>214.8</ele>
        <time>2022-09-25T13:14:15Z</time>
      </trkpt>
      <trkpt lat="45.64042" lon="5.68903">
        <ele>214.9</ele>
        <time>2022-09-25T13:14:16Z</time>
      </trkpt>
      <trkpt lat="45.64046" lon="5.68908">
        <ele>214.9</ele>
        <time>2022-09-25T13:14:17Z</time>
      </trkpt>
      <trkpt lat="45.64051" lon="5.68914">
        <ele>214.9</ele>
        <time>2022-09-25T13:14:18Z</time>
      </trkpt>
      <trkpt lat="45.64055" lon="5.68918">
        <ele>214.9</ele>
        <time>2022-09-25T13:14:19Z</time>
      </trkpt>
      <trkpt lat="45.64059" lon="5.68923">
        <ele>214.9</ele>
        <time>2022-09-25T13:14:20Z</time>
      </trkpt>
      <trkpt lat="45.64063" lon="5.68928">
        <ele>215</ele>
        <time>2022-09-25T13:14:21Z</time>
      </trkpt>
      <trkpt lat="45.64067" lon="5.68933">
        <ele>215</ele>
        <time>2022-09-25T13:14:22Z</time>
      </trkpt>
      <trkpt lat="45.64072" lon="5.68938">
        <ele>215</ele>
        <time>2022-09-25T13:14:23Z</time>
      </trkpt>
      <trkpt lat="45.64076" lon="5.68943">
        <ele>215</ele>
        <time>2022-09-25T13:14:24Z</time>
      </trkpt>
      <trkpt lat="45.64081" lon="5.68948">
        <ele>215.1</ele>
        <time>2022-09-25T13:14:25Z</time>
      </trkpt>
      <trkpt lat="45.64085" lon="5.68952">
        <ele>215.1</ele>
        <time>2022-09-25T13:14:26Z</time>
      </trkpt>
      <trkpt lat="45.64089" lon="5.68957">
        <ele>215.1</ele>
        <time>2022-09-25T13:14:27Z</time>
      </trkpt>
      <trkpt lat="45.64093" lon="5.68961">
        <ele>215.2</ele>
        <time>2022-09-25T13:14:28Z</time>
      </trkpt>
      <trkpt lat="45.64098" lon="5.68966">
        <ele>215.2</ele>
        <time>2022-09-25T13:14:29Z</time>
      </trkpt>
      <trkpt lat="45.64102" lon="5.6897">
        <ele>215.2</ele>
        <time>2022-09-25T13:14:30Z</time>
      </trkpt>
      <trkpt lat="45.64106" lon="5.68974">
        <ele>215.2</ele>
        <time>2022-09-25T13:14:31Z</time>
      </trkpt>
      <trkpt lat="45.64111" lon="5.68978">
        <ele>215.2</ele>
        <time>2022-09-25T13:14:32Z</time>
      </trkpt>
      <trkpt lat="45.64115" lon="5.68983">
        <ele>215.2</ele>
        <time>2022-09-25T13:14:33Z</time>
      </trkpt>
      <trkpt lat="45.64119" lon="5.68987">
        <ele>215.2</ele>
        <time>2022-09-25T13:14:34Z</time>
      </trkpt>
      <trkpt lat="45.64123" lon="5.68992">
        <ele>215.3</ele>
        <time>2022-09-25T13:14:35Z</time>
      </trkpt>
      <trkpt lat="45.64128" lon="5.68996">
        <ele>215.3</ele>
        <time>2022-09-25T13:14:36Z</time>
      </trkpt>
      <trkpt lat="45.64132" lon="5.69001">
        <ele>215.3</ele>
        <time>2022-09-25T13:14:37Z</time>
      </trkpt>
      <trkpt lat="45.64137" lon="5.69005">
        <ele>215.3</ele>
        <time>2022-09-25T13:14:38Z</time>
      </trkpt>
      <trkpt lat="45.64141" lon="5.69009">
        <ele>215.3</ele>
        <time>2022-09-25T13:14:39Z</time>
      </trkpt>
      <trkpt lat="45.64146" lon="5.69013">
        <ele>215.3</ele>
        <time>2022-09-25T13:14:40Z</time>
      </trkpt>
      <trkpt lat="45.6415" lon="5.69017">
        <ele>215.4</ele>
        <time>2022-09-25T13:14:41Z</time>
      </trkpt>
      <trkpt lat="45.64154" lon="5.69021">
        <ele>215.4</ele>
        <time>2022-09-25T13:14:42Z</time>
      </trkpt>
      <trkpt lat="45.64159" lon="5.69026">
        <ele>215.4</ele>
        <time>2022-09-25T13:14:43Z</time>
      </trkpt>
      <trkpt lat="45.64164" lon="5.69029">
        <ele>215.4</ele>
        <time>2022-09-25T13:14:44Z</time>
      </trkpt>
      <trkpt lat="45.64169" lon="5.69033">
        <ele>215.4</ele>
        <time>2022-09-25T13:14:45Z</time>
      </trkpt>
      <trkpt lat="45.64174" lon="5.69037">
        <ele>215.4</ele>
        <time>2022-09-25T13:14:46Z</time>
      </trkpt>
      <trkpt lat="45.64178" lon="5.6904">
        <ele>215.4</ele>
        <time>2022-09-25T13:14:47Z</time>
      </trkpt>
      <trkpt lat="45.64183" lon="5.69044">
        <ele>215.5</ele>
        <time>2022-09-25T13:14:48Z</time>
      </trkpt>
      <trkpt lat="45.64188" lon="5.69048">
        <ele>215.5</ele>
        <time>2022-09-25T13:14:49Z</time>
      </trkpt>
      <trkpt lat="45.64192" lon="5.69051">
        <ele>215.5</ele>
        <time>2022-09-25T13:14:50Z</time>
      </trkpt>
      <trkpt lat="45.64197" lon="5.69055">
        <ele>215.5</ele>
        <time>2022-09-25T13:14:51Z</time>
      </trkpt>
      <trkpt lat="45.64202" lon="5.69059">
        <ele>215.5</ele>
        <time>2022-09-25T13:14:52Z</time>
      </trkpt>
      <trkpt lat="45.64206" lon="5.69062">
        <ele>215.6</ele>
        <time>2022-09-25T13:14:53Z</time>
      </trkpt>
      <trkpt lat="45.6421" lon="5.69065">
        <ele>215.6</ele>
        <time>2022-09-25T13:14:54Z</time>
      </trkpt>
      <trkpt lat="45.64215" lon="5.69069">
        <ele>215.6</ele>
        <time>2022-09-25T13:14:55Z</time>
      </trkpt>
      <trkpt lat="45.64219" lon="5.69072">
        <ele>215.7</ele>
        <time>2022-09-25T13:14:56Z</time>
      </trkpt>
      <trkpt lat="45.64224" lon="5.69076">
        <ele>215.7</ele>
        <time>2022-09-25T13:14:57Z</time>
      </trkpt>
      <trkpt lat="45.64228" lon="5.69078">
        <ele>215.7</ele>
        <time>2022-09-25T13:14:58Z</time>
      </trkpt>
      <trkpt lat="45.64233" lon="5.69082">
        <ele>215.8</ele>
        <time>2022-09-25T13:14:59Z</time>
      </trkpt>
      <trkpt lat="45.64237" lon="5.69085">
        <ele>215.8</ele>
        <time>2022-09-25T13:15:00Z</time>
      </trkpt>
      <trkpt lat="45.64241" lon="5.69087">
        <ele>215.7</ele>
        <time>2022-09-25T13:15:01Z</time>
      </trkpt>
      <trkpt lat="45.64246" lon="5.69091">
        <ele>215.7</ele>
        <time>2022-09-25T13:15:02Z</time>
      </trkpt>
      <trkpt lat="45.64251" lon="5.69093">
        <ele>215.7</ele>
        <time>2022-09-25T13:15:03Z</time>
      </trkpt>
      <trkpt lat="45.64255" lon="5.69096">
        <ele>215.7</ele>
        <time>2022-09-25T13:15:04Z</time>
      </trkpt>
      <trkpt lat="45.6426" lon="5.69099">
        <ele>215.6</ele>
        <time>2022-09-25T13:15:05Z</time>
      </trkpt>
      <trkpt lat="45.64265" lon="5.69102">
        <ele>215.6</ele>
        <time>2022-09-25T13:15:06Z</time>
      </trkpt>
      <trkpt lat="45.6427" lon="5.69104">
        <ele>215.5</ele>
        <time>2022-09-25T13:15:07Z</time>
      </trkpt>
      <trkpt lat="45.64275" lon="5.69107">
        <ele>215.5</ele>
        <time>2022-09-25T13:15:08Z</time>
      </trkpt>
      <trkpt lat="45.6428" lon="5.6911">
        <ele>215.4</ele>
        <time>2022-09-25T13:15:09Z</time>
      </trkpt>
      <trkpt lat="45.64284" lon="5.69113">
        <ele>215.4</ele>
        <time>2022-09-25T13:15:10Z</time>
      </trkpt>
      <trkpt lat="45.64289" lon="5.69116">
        <ele>215.4</ele>
        <time>2022-09-25T13:15:11Z</time>
      </trkpt>
      <trkpt lat="45.64294" lon="5.69119">
        <ele>215.3</ele>
        <time>2022-09-25T13:15:12Z</time>
      </trkpt>
      <trkpt lat="45.64299" lon="5.69121">
        <ele>215.3</ele>
        <time>2022-09-25T13:15:13Z</time>
      </trkpt>
      <trkpt lat="45.64304" lon="5.69124">
        <ele>215.3</ele>
        <time>2022-09-25T13:15:14Z</time>
      </trkpt>
      <trkpt lat="45.64309" lon="5.69126">
        <ele>215.4</ele>
        <time>2022-09-25T13:15:15Z</time>
      </trkpt>
      <trkpt lat="45.64313" lon="5.69128">
        <ele>215.4</ele>
        <time>2022-09-25T13:15:16Z</time>
      </trkpt>
      <trkpt lat="45.64318" lon="5.6913">
        <ele>215.4</ele>
        <time>2022-09-25T13:15:17Z</time>
      </trkpt>
      <trkpt lat="45.64323" lon="5.69132">
        <ele>215.4</ele>
        <time>2022-09-25T13:15:18Z</time>
      </trkpt>
      <trkpt lat="45.64327" lon="5.69135">
        <ele>215.4</ele>
        <time>2022-09-25T13:15:19Z</time>
      </trkpt>
      <trkpt lat="45.64331" lon="5.69136">
        <ele>215.4</ele>
        <time>2022-09-25T13:15:20Z</time>
      </trkpt>
      <trkpt lat="45.64335" lon="5.69139">
        <ele>215.5</ele>
        <time>2022-09-25T13:15:21Z</time>
      </trkpt>
      <trkpt lat="45.6434" lon="5.69142">
        <ele>215.5</ele>
        <time>2022-09-25T13:15:22Z</time>
      </trkpt>
      <trkpt lat="45.64343" lon="5.69146">
        <ele>215.5</ele>
        <time>2022-09-25T13:15:23Z</time>
      </trkpt>
      <trkpt lat="45.64346" lon="5.6915">
        <ele>215.6</ele>
        <time>2022-09-25T13:15:24Z</time>
      </trkpt>
      <trkpt lat="45.64349" lon="5.69156">
        <ele>215.6</ele>
        <time>2022-09-25T13:15:25Z</time>
      </trkpt>
      <trkpt lat="45.64352" lon="5.69161">
        <ele>215.6</ele>
        <time>2022-09-25T13:15:26Z</time>
      </trkpt>
      <trkpt lat="45.64355" lon="5.69167">
        <ele>215.7</ele>
        <time>2022-09-25T13:15:27Z</time>
      </trkpt>
      <trkpt lat="45.64357" lon="5.69172">
        <ele>215.7</ele>
        <time>2022-09-25T13:15:28Z</time>
      </trkpt>
      <trkpt lat="45.64359" lon="5.69178">
        <ele>215.7</ele>
        <time>2022-09-25T13:15:29Z</time>
      </trkpt>
      <trkpt lat="45.64362" lon="5.69184">
        <ele>215.7</ele>
        <time>2022-09-25T13:15:30Z</time>
      </trkpt>
      <trkpt lat="45.64365" lon="5.69189">
        <ele>215.7</ele>
        <time>2022-09-25T13:15:31Z</time>
      </trkpt>
      <trkpt lat="45.64368" lon="5.69194">
        <ele>215.7</ele>
        <time>2022-09-25T13:15:32Z</time>
      </trkpt>
      <trkpt lat="45.6437" lon="5.692">
        <ele>215.7</ele>
        <time>2022-09-25T13:15:33Z</time>
      </trkpt>
      <trkpt lat="45.64373" lon="5.69205">
        <ele>215.7</ele>
        <time>2022-09-25T13:15:34Z</time>
      </trkpt>
      <trkpt lat="45.64376" lon="5.6921">
        <ele>215.7</ele>
        <time>2022-09-25T13:15:35Z</time>
      </trkpt>
      <trkpt lat="45.64379" lon="5.69216">
        <ele>215.7</ele>
        <time>2022-09-25T13:15:36Z</time>
      </trkpt>
      <trkpt lat="45.64382" lon="5.69221">
        <ele>215.7</ele>
        <time>2022-09-25T13:15:37Z</time>
      </trkpt>
      <trkpt lat="45.64385" lon="5.69226">
        <ele>215.7</ele>
        <time>2022-09-25T13:15:38Z</time>
      </trkpt>
      <trkpt lat="45.6439" lon="5.69231">
        <ele>215.7</ele>
        <time>2022-09-25T13:15:39Z</time>
      </trkpt>
      <trkpt lat="45.64391" lon="5.69237">
        <ele>215.7</ele>
        <time>2022-09-25T13:15:40Z</time>
      </trkpt>
      <trkpt lat="45.64395" lon="5.69242">
        <ele>215.8</ele>
        <time>2022-09-25T13:15:41Z</time>
      </trkpt>
      <trkpt lat="45.64398" lon="5.69247">
        <ele>215.8</ele>
        <time>2022-09-25T13:15:42Z</time>
      </trkpt>
      <trkpt lat="45.64401" lon="5.69252">
        <ele>215.8</ele>
        <time>2022-09-25T13:15:43Z</time>
      </trkpt>
      <trkpt lat="45.64405" lon="5.69257">
        <ele>215.8</ele>
        <time>2022-09-25T13:15:44Z</time>
      </trkpt>
      <trkpt lat="45.64408" lon="5.69262">
        <ele>215.8</ele>
        <time>2022-09-25T13:15:45Z</time>
      </trkpt>
      <trkpt lat="45.64412" lon="5.69268">
        <ele>215.8</ele>
        <time>2022-09-25T13:15:46Z</time>
      </trkpt>
      <trkpt lat="45.64415" lon="5.69272">
        <ele>215.8</ele>
        <time>2022-09-25T13:15:47Z</time>
      </trkpt>
      <trkpt lat="45.64419" lon="5.69276">
        <ele>215.9</ele>
        <time>2022-09-25T13:15:48Z</time>
      </trkpt>
      <trkpt lat="45.64422" lon="5.69281">
        <ele>215.9</ele>
        <time>2022-09-25T13:15:49Z</time>
      </trkpt>
      <trkpt lat="45.64426" lon="5.69285">
        <ele>215.9</ele>
        <time>2022-09-25T13:15:50Z</time>
      </trkpt>
      <trkpt lat="45.6443" lon="5.6929">
        <ele>215.9</ele>
        <time>2022-09-25T13:15:51Z</time>
      </trkpt>
      <trkpt lat="45.64433" lon="5.69295">
        <ele>215.9</ele>
        <time>2022-09-25T13:15:52Z</time>
      </trkpt>
      <trkpt lat="45.64437" lon="5.69298">
        <ele>215.9</ele>
        <time>2022-09-25T13:15:53Z</time>
      </trkpt>
      <trkpt lat="45.64441" lon="5.69303">
        <ele>215.9</ele>
        <time>2022-09-25T13:15:54Z</time>
      </trkpt>
      <trkpt lat="45.64445" lon="5.69307">
        <ele>215.8</ele>
        <time>2022-09-25T13:15:55Z</time>
      </trkpt>
      <trkpt lat="45.64449" lon="5.6931">
        <ele>215.8</ele>
        <time>2022-09-25T13:15:56Z</time>
      </trkpt>
      <trkpt lat="45.64453" lon="5.69313">
        <ele>215.8</ele>
        <time>2022-09-25T13:15:57Z</time>
      </trkpt>
      <trkpt lat="45.64457" lon="5.69316">
        <ele>215.8</ele>
        <time>2022-09-25T13:15:58Z</time>
      </trkpt>
      <trkpt lat="45.64461" lon="5.69318">
        <ele>215.8</ele>
        <time>2022-09-25T13:15:59Z</time>
      </trkpt>
      <trkpt lat="45.64466" lon="5.6932">
        <ele>215.7</ele>
        <time>2022-09-25T13:16:00Z</time>
      </trkpt>
      <trkpt lat="45.64471" lon="5.69321">
        <ele>215.7</ele>
        <time>2022-09-25T13:16:01Z</time>
      </trkpt>
      <trkpt lat="45.64475" lon="5.69323">
        <ele>215.6</ele>
        <time>2022-09-25T13:16:02Z</time>
      </trkpt>
      <trkpt lat="45.6448" lon="5.69322">
        <ele>215.6</ele>
        <time>2022-09-25T13:16:03Z</time>
      </trkpt>
      <trkpt lat="45.64485" lon="5.69322">
        <ele>215.5</ele>
        <time>2022-09-25T13:16:04Z</time>
      </trkpt>
      <trkpt lat="45.6449" lon="5.69322">
        <ele>215.4</ele>
        <time>2022-09-25T13:16:05Z</time>
      </trkpt>
      <trkpt lat="45.64494" lon="5.6932">
        <ele>215.4</ele>
        <time>2022-09-25T13:16:06Z</time>
      </trkpt>
      <trkpt lat="45.645" lon="5.6932">
        <ele>215.3</ele>
        <time>2022-09-25T13:16:07Z</time>
      </trkpt>
      <trkpt lat="45.64505" lon="5.69318">
        <ele>215.3</ele>
        <time>2022-09-25T13:16:08Z</time>
      </trkpt>
      <trkpt lat="45.6451" lon="5.69317">
        <ele>215.3</ele>
        <time>2022-09-25T13:16:09Z</time>
      </trkpt>
      <trkpt lat="45.64515" lon="5.69316">
        <ele>215.2</ele>
        <time>2022-09-25T13:16:10Z</time>
      </trkpt>
      <trkpt lat="45.6452" lon="5.69315">
        <ele>215.2</ele>
        <time>2022-09-25T13:16:11Z</time>
      </trkpt>
      <trkpt lat="45.64525" lon="5.69314">
        <ele>215.2</ele>
        <time>2022-09-25T13:16:12Z</time>
      </trkpt>
      <trkpt lat="45.6453" lon="5.69313">
        <ele>215.2</ele>
        <time>2022-09-25T13:16:13Z</time>
      </trkpt>
      <trkpt lat="45.64535" lon="5.69311">
        <ele>215.2</ele>
        <time>2022-09-25T13:16:14Z</time>
      </trkpt>
      <trkpt lat="45.64539" lon="5.69311">
        <ele>215.2</ele>
        <time>2022-09-25T13:16:15Z</time>
      </trkpt>
      <trkpt lat="45.64544" lon="5.69309">
        <ele>215.2</ele>
        <time>2022-09-25T13:16:16Z</time>
      </trkpt>
      <trkpt lat="45.64549" lon="5.69308">
        <ele>215.2</ele>
        <time>2022-09-25T13:16:17Z</time>
      </trkpt>
      <trkpt lat="45.64554" lon="5.69303">
        <ele>215.3</ele>
        <time>2022-09-25T13:16:18Z</time>
      </trkpt>
      <trkpt lat="45.64558" lon="5.69301">
        <ele>215.3</ele>
        <time>2022-09-25T13:16:19Z</time>
      </trkpt>
      <trkpt lat="45.64562" lon="5.69297">
        <ele>215.3</ele>
        <time>2022-09-25T13:16:20Z</time>
      </trkpt>
      <trkpt lat="45.64566" lon="5.69293">
        <ele>215.3</ele>
        <time>2022-09-25T13:16:21Z</time>
      </trkpt>
      <trkpt lat="45.64569" lon="5.69288">
        <ele>215.3</ele>
        <time>2022-09-25T13:16:22Z</time>
      </trkpt>
      <trkpt lat="45.64573" lon="5.69283">
        <ele>215.4</ele>
        <time>2022-09-25T13:16:23Z</time>
      </trkpt>
      <trkpt lat="45.64577" lon="5.69279">
        <ele>215.4</ele>
        <time>2022-09-25T13:16:24Z</time>
      </trkpt>
      <trkpt lat="45.64581" lon="5.69275">
        <ele>215.4</ele>
        <time>2022-09-25T13:16:25Z</time>
      </trkpt>
      <trkpt lat="45.64585" lon="5.69273">
        <ele>215.5</ele>
        <time>2022-09-25T13:16:26Z</time>
      </trkpt>
      <trkpt lat="45.64589" lon="5.69272">
        <ele>215.5</ele>
        <time>2022-09-25T13:16:27Z</time>
      </trkpt>
      <trkpt lat="45.64593" lon="5.69272">
        <ele>215.5</ele>
        <time>2022-09-25T13:16:28Z</time>
      </trkpt>
      <trkpt lat="45.64598" lon="5.69273">
        <ele>215.5</ele>
        <time>2022-09-25T13:16:29Z</time>
      </trkpt>
      <trkpt lat="45.64603" lon="5.69274">
        <ele>215.5</ele>
        <time>2022-09-25T13:16:30Z</time>
      </trkpt>
      <trkpt lat="45.64608" lon="5.69274">
        <ele>215.5</ele>
        <time>2022-09-25T13:16:31Z</time>
      </trkpt>
      <trkpt lat="45.64612" lon="5.69275">
        <ele>215.5</ele>
        <time>2022-09-25T13:16:32Z</time>
      </trkpt>
      <trkpt lat="45.64618" lon="5.69276">
        <ele>215.5</ele>
        <time>2022-09-25T13:16:33Z</time>
      </trkpt>
      <trkpt lat="45.64622" lon="5.69278">
        <ele>215.5</ele>
        <time>2022-09-25T13:16:34Z</time>
      </trkpt>
      <trkpt lat="45.64627" lon="5.69279">
        <ele>215.5</ele>
        <time>2022-09-25T13:16:35Z</time>
      </trkpt>
      <trkpt lat="45.64632" lon="5.69281">
        <ele>215.5</ele>
        <time>2022-09-25T13:16:36Z</time>
      </trkpt>
      <trkpt lat="45.64636" lon="5.69284">
        <ele>215.5</ele>
        <time>2022-09-25T13:16:37Z</time>
      </trkpt>
      <trkpt lat="45.64641" lon="5.69286">
        <ele>215.5</ele>
        <time>2022-09-25T13:16:38Z</time>
      </trkpt>
      <trkpt lat="45.64646" lon="5.69288">
        <ele>215.5</ele>
        <time>2022-09-25T13:16:39Z</time>
      </trkpt>
      <trkpt lat="45.6465" lon="5.69291">
        <ele>215.5</ele>
        <time>2022-09-25T13:16:40Z</time>
      </trkpt>
      <trkpt lat="45.64655" lon="5.69294">
        <ele>215.5</ele>
        <time>2022-09-25T13:16:41Z</time>
      </trkpt>
      <trkpt lat="45.64659" lon="5.69296">
        <ele>215.5</ele>
        <time>2022-09-25T13:16:42Z</time>
      </trkpt>
      <trkpt lat="45.64664" lon="5.69299">
        <ele>215.5</ele>
        <time>2022-09-25T13:16:43Z</time>
      </trkpt>
      <trkpt lat="45.64669" lon="5.69301">
        <ele>215.5</ele>
        <time>2022-09-25T13:16:44Z</time>
      </trkpt>
      <trkpt lat="45.64673" lon="5.69303">
        <ele>215.5</ele>
        <time>2022-09-25T13:16:45Z</time>
      </trkpt>
      <trkpt lat="45.64679" lon="5.69305">
        <ele>215.5</ele>
        <time>2022-09-25T13:16:46Z</time>
      </trkpt>
      <trkpt lat="45.64684" lon="5.69306">
        <ele>215.5</ele>
        <time>2022-09-25T13:16:47Z</time>
      </trkpt>
      <trkpt lat="45.64689" lon="5.69307">
        <ele>215.5</ele>
        <time>2022-09-25T13:16:48Z</time>
      </trkpt>
      <trkpt lat="45.64695" lon="5.69307">
        <ele>215.5</ele>
        <time>2022-09-25T13:16:49Z</time>
      </trkpt>
      <trkpt lat="45.64699" lon="5.69307">
        <ele>215.5</ele>
        <time>2022-09-25T13:16:50Z</time>
      </trkpt>
      <trkpt lat="45.64704" lon="5.69306">
        <ele>215.5</ele>
        <time>2022-09-25T13:16:51Z</time>
      </trkpt>
      <trkpt lat="45.6471" lon="5.69306">
        <ele>215.5</ele>
        <time>2022-09-25T13:16:52Z</time>
      </trkpt>
      <trkpt lat="45.64715" lon="5.69305">
        <ele>215.5</ele>
        <time>2022-09-25T13:16:53Z</time>
      </trkpt>
      <trkpt lat="45.6472" lon="5.69303">
        <ele>215.5</ele>
        <time>2022-09-25T13:16:54Z</time>
      </trkpt>
      <trkpt lat="45.64726" lon="5.69301">
        <ele>215.5</ele>
        <time>2022-09-25T13:16:55Z</time>
      </trkpt>
      <trkpt lat="45.64732" lon="5.693">
        <ele>215.5</ele>
        <time>2022-09-25T13:16:56Z</time>
      </trkpt>
      <trkpt lat="45.64737" lon="5.69297">
        <ele>215.5</ele>
        <time>2022-09-25T13:16:57Z</time>
      </trkpt>
      <trkpt lat="45.64742" lon="5.69295">
        <ele>215.5</ele>
        <time>2022-09-25T13:16:58Z</time>
      </trkpt>
      <trkpt lat="45.64747" lon="5.69292">
        <ele>215.5</ele>
        <time>2022-09-25T13:16:59Z</time>
      </trkpt>
      <trkpt lat="45.64753" lon="5.6929">
        <ele>215.5</ele>
        <time>2022-09-25T13:17:00Z</time>
      </trkpt>
      <trkpt lat="45.64758" lon="5.69286">
        <ele>215.5</ele>
        <time>2022-09-25T13:17:01Z</time>
      </trkpt>
      <trkpt lat="45.64762" lon="5.69283">
        <ele>215.5</ele>
        <time>2022-09-25T13:17:02Z</time>
      </trkpt>
      <trkpt lat="45.64767" lon="5.6928">
        <ele>215.5</ele>
        <time>2022-09-25T13:17:03Z</time>
      </trkpt>
      <trkpt lat="45.64772" lon="5.69276">
        <ele>215.5</ele>
        <time>2022-09-25T13:17:04Z</time>
      </trkpt>
      <trkpt lat="45.64777" lon="5.69273">
        <ele>215.5</ele>
        <time>2022-09-25T13:17:05Z</time>
      </trkpt>
      <trkpt lat="45.64781" lon="5.69269">
        <ele>215.5</ele>
        <time>2022-09-25T13:17:06Z</time>
      </trkpt>
      <trkpt lat="45.64786" lon="5.69266">
        <ele>215.5</ele>
        <time>2022-09-25T13:17:07Z</time>
      </trkpt>
      <trkpt lat="45.6479" lon="5.69262">
        <ele>215.4</ele>
        <time>2022-09-25T13:17:08Z</time>
      </trkpt>
      <trkpt lat="45.64795" lon="5.69258">
        <ele>215.4</ele>
        <time>2022-09-25T13:17:09Z</time>
      </trkpt>
      <trkpt lat="45.648" lon="5.69254">
        <ele>215.4</ele>
        <time>2022-09-25T13:17:10Z</time>
      </trkpt>
      <trkpt lat="45.64804" lon="5.6925">
        <ele>215.4</ele>
        <time>2022-09-25T13:17:11Z</time>
      </trkpt>
      <trkpt lat="45.64809" lon="5.69246">
        <ele>215.4</ele>
        <time>2022-09-25T13:17:12Z</time>
      </trkpt>
      <trkpt lat="45.64813" lon="5.69242">
        <ele>215.4</ele>
        <time>2022-09-25T13:17:13Z</time>
      </trkpt>
      <trkpt lat="45.64817" lon="5.69237">
        <ele>215.4</ele>
        <time>2022-09-25T13:17:14Z</time>
      </trkpt>
      <trkpt lat="45.64821" lon="5.69233">
        <ele>215.4</ele>
        <time>2022-09-25T13:17:15Z</time>
      </trkpt>
      <trkpt lat="45.64825" lon="5.6923">
        <ele>215.4</ele>
        <time>2022-09-25T13:17:16Z</time>
      </trkpt>
      <trkpt lat="45.64829" lon="5.69226">
        <ele>215.4</ele>
        <time>2022-09-25T13:17:17Z</time>
      </trkpt>
      <trkpt lat="45.64833" lon="5.69222">
        <ele>215.4</ele>
        <time>2022-09-25T13:17:18Z</time>
      </trkpt>
      <trkpt lat="45.64837" lon="5.69217">
        <ele>215.5</ele>
        <time>2022-09-25T13:17:19Z</time>
      </trkpt>
      <trkpt lat="45.64842" lon="5.69214">
        <ele>215.5</ele>
        <time>2022-09-25T13:17:20Z</time>
      </trkpt>
      <trkpt lat="45.64846" lon="5.69209">
        <ele>215.5</ele>
        <time>2022-09-25T13:17:21Z</time>
      </trkpt>
      <trkpt lat="45.6485" lon="5.69206">
        <ele>215.5</ele>
        <time>2022-09-25T13:17:22Z</time>
      </trkpt>
      <trkpt lat="45.64854" lon="5.69202">
        <ele>215.5</ele>
        <time>2022-09-25T13:17:23Z</time>
      </trkpt>
      <trkpt lat="45.64858" lon="5.69197">
        <ele>215.6</ele>
        <time>2022-09-25T13:17:24Z</time>
      </trkpt>
      <trkpt lat="45.64862" lon="5.69194">
        <ele>215.6</ele>
        <time>2022-09-25T13:17:25Z</time>
      </trkpt>
      <trkpt lat="45.64866" lon="5.6919">
        <ele>215.6</ele>
        <time>2022-09-25T13:17:26Z</time>
      </trkpt>
      <trkpt lat="45.6487" lon="5.69186">
        <ele>215.6</ele>
        <time>2022-09-25T13:17:27Z</time>
      </trkpt>
      <trkpt lat="45.64875" lon="5.69182">
        <ele>215.6</ele>
        <time>2022-09-25T13:17:28Z</time>
      </trkpt>
      <trkpt lat="45.64879" lon="5.69177">
        <ele>215.6</ele>
        <time>2022-09-25T13:17:29Z</time>
      </trkpt>
      <trkpt lat="45.64883" lon="5.69173">
        <ele>215.6</ele>
        <time>2022-09-25T13:17:30Z</time>
      </trkpt>
      <trkpt lat="45.64887" lon="5.69169">
        <ele>215.6</ele>
        <time>2022-09-25T13:17:31Z</time>
      </trkpt>
      <trkpt lat="45.64891" lon="5.69165">
        <ele>215.6</ele>
        <time>2022-09-25T13:17:32Z</time>
      </trkpt>
      <trkpt lat="45.64896" lon="5.6916">
        <ele>215.6</ele>
        <time>2022-09-25T13:17:33Z</time>
      </trkpt>
      <trkpt lat="45.649" lon="5.69157">
        <ele>215.6</ele>
        <time>2022-09-25T13:17:34Z</time>
      </trkpt>
      <trkpt lat="45.64904" lon="5.69153">
        <ele>215.6</ele>
        <time>2022-09-25T13:17:35Z</time>
      </trkpt>
      <trkpt lat="45.64909" lon="5.69149">
        <ele>215.6</ele>
        <time>2022-09-25T13:17:36Z</time>
      </trkpt>
      <trkpt lat="45.64914" lon="5.69146">
        <ele>215.6</ele>
        <time>2022-09-25T13:17:37Z</time>
      </trkpt>
      <trkpt lat="45.64919" lon="5.69143">
        <ele>215.6</ele>
        <time>2022-09-25T13:17:38Z</time>
      </trkpt>
      <trkpt lat="45.64924" lon="5.69141">
        <ele>215.6</ele>
        <time>2022-09-25T13:17:39Z</time>
      </trkpt>
      <trkpt lat="45.64929" lon="5.69138">
        <ele>215.6</ele>
        <time>2022-09-25T13:17:40Z</time>
      </trkpt>
      <trkpt lat="45.64934" lon="5.69137">
        <ele>215.6</ele>
        <time>2022-09-25T13:17:41Z</time>
      </trkpt>
      <trkpt lat="45.6494" lon="5.69134">
        <ele>215.7</ele>
        <time>2022-09-25T13:17:42Z</time>
      </trkpt>
      <trkpt lat="45.64945" lon="5.69133">
        <ele>215.7</ele>
        <time>2022-09-25T13:17:43Z</time>
      </trkpt>
      <trkpt lat="45.64951" lon="5.69133">
        <ele>215.7</ele>
        <time>2022-09-25T13:17:44Z</time>
      </trkpt>
      <trkpt lat="45.64956" lon="5.69132">
        <ele>215.7</ele>
        <time>2022-09-25T13:17:45Z</time>
      </trkpt>
      <trkpt lat="45.64962" lon="5.69131">
        <ele>215.7</ele>
        <time>2022-09-25T13:17:46Z</time>
      </trkpt>
      <trkpt lat="45.64967" lon="5.69131">
        <ele>215.7</ele>
        <time>2022-09-25T13:17:47Z</time>
      </trkpt>
      <trkpt lat="45.64973" lon="5.6913">
        <ele>215.7</ele>
        <time>2022-09-25T13:17:48Z</time>
      </trkpt>
      <trkpt lat="45.64978" lon="5.6913">
        <ele>215.7</ele>
        <time>2022-09-25T13:17:49Z</time>
      </trkpt>
      <trkpt lat="45.64984" lon="5.69129">
        <ele>215.7</ele>
        <time>2022-09-25T13:17:50Z</time>
      </trkpt>
      <trkpt lat="45.6499" lon="5.69128">
        <ele>215.7</ele>
        <time>2022-09-25T13:17:51Z</time>
      </trkpt>
      <trkpt lat="45.64995" lon="5.69128">
        <ele>215.7</ele>
        <time>2022-09-25T13:17:52Z</time>
      </trkpt>
      <trkpt lat="45.65" lon="5.69127">
        <ele>215.7</ele>
        <time>2022-09-25T13:17:53Z</time>
      </trkpt>
      <trkpt lat="45.65006" lon="5.69126">
        <ele>215.7</ele>
        <time>2022-09-25T13:17:54Z</time>
      </trkpt>
      <trkpt lat="45.65011" lon="5.69125">
        <ele>215.7</ele>
        <time>2022-09-25T13:17:55Z</time>
      </trkpt>
      <trkpt lat="45.65017" lon="5.69124">
        <ele>215.7</ele>
        <time>2022-09-25T13:17:56Z</time>
      </trkpt>
      <trkpt lat="45.65023" lon="5.69123">
        <ele>215.7</ele>
        <time>2022-09-25T13:17:57Z</time>
      </trkpt>
      <trkpt lat="45.65028" lon="5.69122">
        <ele>215.7</ele>
        <time>2022-09-25T13:17:58Z</time>
      </trkpt>
      <trkpt lat="45.65033" lon="5.69121">
        <ele>215.7</ele>
        <time>2022-09-25T13:17:59Z</time>
      </trkpt>
      <trkpt lat="45.6504" lon="5.69119">
        <ele>215.7</ele>
        <time>2022-09-25T13:18:00Z</time>
      </trkpt>
      <trkpt lat="45.65046" lon="5.69118">
        <ele>215.6</ele>
        <time>2022-09-25T13:18:01Z</time>
      </trkpt>
      <trkpt lat="45.65051" lon="5.69116">
        <ele>215.6</ele>
        <time>2022-09-25T13:18:02Z</time>
      </trkpt>
      <trkpt lat="45.65057" lon="5.69115">
        <ele>215.5</ele>
        <time>2022-09-25T13:18:03Z</time>
      </trkpt>
      <trkpt lat="45.65063" lon="5.69114">
        <ele>215.5</ele>
        <time>2022-09-25T13:18:04Z</time>
      </trkpt>
      <trkpt lat="45.65069" lon="5.69112">
        <ele>215.5</ele>
        <time>2022-09-25T13:18:05Z</time>
      </trkpt>
      <trkpt lat="45.65074" lon="5.69111">
        <ele>215.5</ele>
        <time>2022-09-25T13:18:06Z</time>
      </trkpt>
      <trkpt lat="45.6508" lon="5.69109">
        <ele>215.5</ele>
        <time>2022-09-25T13:18:07Z</time>
      </trkpt>
      <trkpt lat="45.65086" lon="5.69108">
        <ele>215.5</ele>
        <time>2022-09-25T13:18:08Z</time>
      </trkpt>
      <trkpt lat="45.65092" lon="5.69107">
        <ele>215.5</ele>
        <time>2022-09-25T13:18:09Z</time>
      </trkpt>
      <trkpt lat="45.65097" lon="5.69105">
        <ele>215.6</ele>
        <time>2022-09-25T13:18:10Z</time>
      </trkpt>
      <trkpt lat="45.65103" lon="5.69103">
        <ele>215.6</ele>
        <time>2022-09-25T13:18:11Z</time>
      </trkpt>
      <trkpt lat="45.65109" lon="5.69101">
        <ele>215.7</ele>
        <time>2022-09-25T13:18:12Z</time>
      </trkpt>
      <trkpt lat="45.65114" lon="5.691">
        <ele>215.8</ele>
        <time>2022-09-25T13:18:13Z</time>
      </trkpt>
      <trkpt lat="45.65119" lon="5.69098">
        <ele>215.9</ele>
        <time>2022-09-25T13:18:14Z</time>
      </trkpt>
      <trkpt lat="45.65125" lon="5.69097">
        <ele>216</ele>
        <time>2022-09-25T13:18:15Z</time>
      </trkpt>
      <trkpt lat="45.6513" lon="5.69095">
        <ele>216.2</ele>
        <time>2022-09-25T13:18:16Z</time>
      </trkpt>
      <trkpt lat="45.65134" lon="5.69093">
        <ele>216.3</ele>
        <time>2022-09-25T13:18:17Z</time>
      </trkpt>
      <trkpt lat="45.65139" lon="5.69091">
        <ele>216.5</ele>
        <time>2022-09-25T13:18:18Z</time>
      </trkpt>
      <trkpt lat="45.65143" lon="5.69088">
        <ele>216.6</ele>
        <time>2022-09-25T13:18:19Z</time>
      </trkpt>
      <trkpt lat="45.65146" lon="5.69085">
        <ele>216.7</ele>
        <time>2022-09-25T13:18:20Z</time>
      </trkpt>
      <trkpt lat="45.65148" lon="5.6908">
        <ele>216.8</ele>
        <time>2022-09-25T13:18:21Z</time>
      </trkpt>
      <trkpt lat="45.65149" lon="5.69075">
        <ele>216.9</ele>
        <time>2022-09-25T13:18:22Z</time>
      </trkpt>
      <trkpt lat="45.6515" lon="5.6907">
        <ele>217</ele>
        <time>2022-09-25T13:18:23Z</time>
      </trkpt>
      <trkpt lat="45.6515" lon="5.69066">
        <ele>217.1</ele>
        <time>2022-09-25T13:18:24Z</time>
      </trkpt>
      <trkpt lat="45.65148" lon="5.69063">
        <ele>217.1</ele>
        <time>2022-09-25T13:18:25Z</time>
      </trkpt>
      <trkpt lat="45.65146" lon="5.69058">
        <ele>217.2</ele>
        <time>2022-09-25T13:18:26Z</time>
      </trkpt>
      <trkpt lat="45.65146" lon="5.69057">
        <ele>217.2</ele>
        <time>2022-09-25T13:18:27Z</time>
      </trkpt>
      <trkpt lat="45.65147" lon="5.69052">
        <ele>217.3</ele>
        <time>2022-09-25T13:18:28Z</time>
      </trkpt>
      <trkpt lat="45.65147" lon="5.6905">
        <ele>217.3</ele>
        <time>2022-09-25T13:18:29Z</time>
      </trkpt>
      <trkpt lat="45.65148" lon="5.69045">
        <ele>217.4</ele>
        <time>2022-09-25T13:18:30Z</time>
      </trkpt>
      <trkpt lat="45.65149" lon="5.69044">
        <ele>217.4</ele>
        <time>2022-09-25T13:18:31Z</time>
      </trkpt>
      <trkpt lat="45.65152" lon="5.6904">
        <ele>217.5</ele>
        <time>2022-09-25T13:18:32Z</time>
      </trkpt>
      <trkpt lat="45.65153" lon="5.69039">
        <ele>217.5</ele>
        <time>2022-09-25T13:18:33Z</time>
      </trkpt>
      <trkpt lat="45.65155" lon="5.69037">
        <ele>217.6</ele>
        <time>2022-09-25T13:18:34Z</time>
      </trkpt>
      <trkpt lat="45.65159" lon="5.69035">
        <ele>217.6</ele>
        <time>2022-09-25T13:18:35Z</time>
      </trkpt>
      <trkpt lat="45.6516" lon="5.69034">
        <ele>217.7</ele>
        <time>2022-09-25T13:18:36Z</time>
      </trkpt>
      <trkpt lat="45.65164" lon="5.69032">
        <ele>217.8</ele>
        <time>2022-09-25T13:18:37Z</time>
      </trkpt>
      <trkpt lat="45.65165" lon="5.69031">
        <ele>217.8</ele>
        <time>2022-09-25T13:18:38Z</time>
      </trkpt>
      <trkpt lat="45.65169" lon="5.69029">
        <ele>217.9</ele>
        <time>2022-09-25T13:18:39Z</time>
      </trkpt>
      <trkpt lat="45.6517" lon="5.69028">
        <ele>217.9</ele>
        <time>2022-09-25T13:18:40Z</time>
      </trkpt>
      <trkpt lat="45.65173" lon="5.69025">
        <ele>218</ele>
        <time>2022-09-25T13:18:41Z</time>
      </trkpt>
      <trkpt lat="45.65174" lon="5.69025">
        <ele>218</ele>
        <time>2022-09-25T13:18:42Z</time>
      </trkpt>
      <trkpt lat="45.65178" lon="5.69022">
        <ele>218.1</ele>
        <time>2022-09-25T13:18:43Z</time>
      </trkpt>
      <trkpt lat="45.65179" lon="5.69022">
        <ele>218.1</ele>
        <time>2022-09-25T13:18:44Z</time>
      </trkpt>
      <trkpt lat="45.65182" lon="5.69019">
        <ele>218.2</ele>
        <time>2022-09-25T13:18:45Z</time>
      </trkpt>
      <trkpt lat="45.65183" lon="5.69017">
        <ele>218.2</ele>
        <time>2022-09-25T13:18:46Z</time>
      </trkpt>
      <trkpt lat="45.65186" lon="5.69015">
        <ele>218.2</ele>
        <time>2022-09-25T13:18:47Z</time>
      </trkpt>
      <trkpt lat="45.65188" lon="5.69013">
        <ele>218.3</ele>
        <time>2022-09-25T13:18:48Z</time>
      </trkpt>
      <trkpt lat="45.65191" lon="5.69011">
        <ele>218.3</ele>
        <time>2022-09-25T13:18:49Z</time>
      </trkpt>
      <trkpt lat="45.65194" lon="5.6901">
        <ele>218.3</ele>
        <time>2022-09-25T13:18:50Z</time>
      </trkpt>
      <trkpt lat="45.65197" lon="5.69009">
        <ele>218.3</ele>
        <time>2022-09-25T13:18:51Z</time>
      </trkpt>
      <trkpt lat="45.65201" lon="5.69008">
        <ele>218.4</ele>
        <time>2022-09-25T13:18:52Z</time>
      </trkpt>
      <trkpt lat="45.65204" lon="5.69006">
        <ele>218.4</ele>
        <time>2022-09-25T13:18:53Z</time>
      </trkpt>
      <trkpt lat="45.65209" lon="5.69005">
        <ele>218.4</ele>
        <time>2022-09-25T13:18:54Z</time>
      </trkpt>
      <trkpt lat="45.65213" lon="5.69003">
        <ele>218.4</ele>
        <time>2022-09-25T13:18:55Z</time>
      </trkpt>
      <trkpt lat="45.65217" lon="5.69002">
        <ele>218.4</ele>
        <time>2022-09-25T13:18:56Z</time>
      </trkpt>
      <trkpt lat="45.65221" lon="5.69">
        <ele>218.4</ele>
        <time>2022-09-25T13:18:57Z</time>
      </trkpt>
      <trkpt lat="45.65226" lon="5.68998">
        <ele>218.4</ele>
        <time>2022-09-25T13:18:58Z</time>
      </trkpt>
      <trkpt lat="45.65231" lon="5.68996">
        <ele>218.5</ele>
        <time>2022-09-25T13:18:59Z</time>
      </trkpt>
      <trkpt lat="45.65235" lon="5.68995">
        <ele>218.5</ele>
        <time>2022-09-25T13:19:00Z</time>
      </trkpt>
      <trkpt lat="45.6524" lon="5.68993">
        <ele>218.5</ele>
        <time>2022-09-25T13:19:01Z</time>
      </trkpt>
      <trkpt lat="45.65244" lon="5.68991">
        <ele>218.5</ele>
        <time>2022-09-25T13:19:02Z</time>
      </trkpt>
      <trkpt lat="45.65249" lon="5.68989">
        <ele>218.5</ele>
        <time>2022-09-25T13:19:03Z</time>
      </trkpt>
      <trkpt lat="45.65254" lon="5.68987">
        <ele>218.6</ele>
        <time>2022-09-25T13:19:04Z</time>
      </trkpt>
      <trkpt lat="45.65259" lon="5.68985">
        <ele>218.6</ele>
        <time>2022-09-25T13:19:05Z</time>
      </trkpt>
      <trkpt lat="45.65264" lon="5.68984">
        <ele>218.6</ele>
        <time>2022-09-25T13:19:06Z</time>
      </trkpt>
      <trkpt lat="45.6527" lon="5.68982">
        <ele>218.7</ele>
        <time>2022-09-25T13:19:07Z</time>
      </trkpt>
      <trkpt lat="45.65275" lon="5.6898">
        <ele>218.7</ele>
        <time>2022-09-25T13:19:08Z</time>
      </trkpt>
      <trkpt lat="45.6528" lon="5.68977">
        <ele>218.7</ele>
        <time>2022-09-25T13:19:09Z</time>
      </trkpt>
      <trkpt lat="45.65286" lon="5.68975">
        <ele>218.8</ele>
        <time>2022-09-25T13:19:10Z</time>
      </trkpt>
      <trkpt lat="45.65291" lon="5.68973">
        <ele>218.8</ele>
        <time>2022-09-25T13:19:11Z</time>
      </trkpt>
      <trkpt lat="45.65295" lon="5.68971">
        <ele>218.8</ele>
        <time>2022-09-25T13:19:12Z</time>
      </trkpt>
      <trkpt lat="45.65301" lon="5.68968">
        <ele>218.9</ele>
        <time>2022-09-25T13:19:13Z</time>
      </trkpt>
      <trkpt lat="45.65306" lon="5.68966">
        <ele>218.9</ele>
        <time>2022-09-25T13:19:14Z</time>
      </trkpt>
      <trkpt lat="45.65312" lon="5.68965">
        <ele>218.8</ele>
        <time>2022-09-25T13:19:15Z</time>
      </trkpt>
      <trkpt lat="45.65317" lon="5.68963">
        <ele>218.8</ele>
        <time>2022-09-25T13:19:16Z</time>
      </trkpt>
      <trkpt lat="45.65322" lon="5.6896">
        <ele>218.8</ele>
        <time>2022-09-25T13:19:17Z</time>
      </trkpt>
      <trkpt lat="45.65327" lon="5.68958">
        <ele>218.8</ele>
        <time>2022-09-25T13:19:18Z</time>
      </trkpt>
      <trkpt lat="45.65333" lon="5.68956">
        <ele>218.8</ele>
        <time>2022-09-25T13:19:19Z</time>
      </trkpt>
      <trkpt lat="45.65338" lon="5.68953">
        <ele>218.8</ele>
        <time>2022-09-25T13:19:20Z</time>
      </trkpt>
      <trkpt lat="45.65344" lon="5.68952">
        <ele>218.8</ele>
        <time>2022-09-25T13:19:21Z</time>
      </trkpt>
      <trkpt lat="45.65349" lon="5.68949">
        <ele>218.8</ele>
        <time>2022-09-25T13:19:22Z</time>
      </trkpt>
      <trkpt lat="45.65354" lon="5.68947">
        <ele>218.8</ele>
        <time>2022-09-25T13:19:23Z</time>
      </trkpt>
      <trkpt lat="45.6536" lon="5.68945">
        <ele>218.8</ele>
        <time>2022-09-25T13:19:24Z</time>
      </trkpt>
      <trkpt lat="45.65365" lon="5.68943">
        <ele>218.8</ele>
        <time>2022-09-25T13:19:25Z</time>
      </trkpt>
      <trkpt lat="45.6537" lon="5.6894">
        <ele>218.7</ele>
        <time>2022-09-25T13:19:26Z</time>
      </trkpt>
      <trkpt lat="45.65376" lon="5.68938">
        <ele>218.7</ele>
        <time>2022-09-25T13:19:27Z</time>
      </trkpt>
      <trkpt lat="45.65381" lon="5.68936">
        <ele>218.7</ele>
        <time>2022-09-25T13:19:28Z</time>
      </trkpt>
      <trkpt lat="45.65387" lon="5.68934">
        <ele>218.7</ele>
        <time>2022-09-25T13:19:29Z</time>
      </trkpt>
      <trkpt lat="45.65393" lon="5.68931">
        <ele>218.7</ele>
        <time>2022-09-25T13:19:30Z</time>
      </trkpt>
      <trkpt lat="45.65397" lon="5.68929">
        <ele>218.7</ele>
        <time>2022-09-25T13:19:31Z</time>
      </trkpt>
      <trkpt lat="45.65403" lon="5.68927">
        <ele>218.7</ele>
        <time>2022-09-25T13:19:32Z</time>
      </trkpt>
      <trkpt lat="45.65408" lon="5.68925">
        <ele>218.6</ele>
        <time>2022-09-25T13:19:33Z</time>
      </trkpt>
      <trkpt lat="45.65414" lon="5.68923">
        <ele>218.6</ele>
        <time>2022-09-25T13:19:34Z</time>
      </trkpt>
      <trkpt lat="45.65419" lon="5.6892">
        <ele>218.6</ele>
        <time>2022-09-25T13:19:35Z</time>
      </trkpt>
      <trkpt lat="45.65425" lon="5.68918">
        <ele>218.6</ele>
        <time>2022-09-25T13:19:36Z</time>
      </trkpt>
      <trkpt lat="45.6543" lon="5.68916">
        <ele>218.6</ele>
        <time>2022-09-25T13:19:37Z</time>
      </trkpt>
      <trkpt lat="45.65435" lon="5.68914">
        <ele>218.6</ele>
        <time>2022-09-25T13:19:38Z</time>
      </trkpt>
      <trkpt lat="45.65441" lon="5.68912">
        <ele>218.6</ele>
        <time>2022-09-25T13:19:39Z</time>
      </trkpt>
      <trkpt lat="45.65447" lon="5.6891">
        <ele>218.5</ele>
        <time>2022-09-25T13:19:40Z</time>
      </trkpt>
      <trkpt lat="45.65452" lon="5.68908">
        <ele>218.5</ele>
        <time>2022-09-25T13:19:41Z</time>
      </trkpt>
      <trkpt lat="45.65457" lon="5.68905">
        <ele>218.5</ele>
        <time>2022-09-25T13:19:42Z</time>
      </trkpt>
      <trkpt lat="45.65463" lon="5.68904">
        <ele>218.5</ele>
        <time>2022-09-25T13:19:43Z</time>
      </trkpt>
      <trkpt lat="45.65468" lon="5.68901">
        <ele>218.6</ele>
        <time>2022-09-25T13:19:44Z</time>
      </trkpt>
      <trkpt lat="45.65474" lon="5.68899">
        <ele>218.6</ele>
        <time>2022-09-25T13:19:45Z</time>
      </trkpt>
      <trkpt lat="45.65479" lon="5.68897">
        <ele>218.6</ele>
        <time>2022-09-25T13:19:46Z</time>
      </trkpt>
      <trkpt lat="45.65484" lon="5.68895">
        <ele>218.6</ele>
        <time>2022-09-25T13:19:47Z</time>
      </trkpt>
      <trkpt lat="45.6549" lon="5.68893">
        <ele>218.6</ele>
        <time>2022-09-25T13:19:48Z</time>
      </trkpt>
      <trkpt lat="45.65495" lon="5.68891">
        <ele>218.6</ele>
        <time>2022-09-25T13:19:49Z</time>
      </trkpt>
      <trkpt lat="45.655" lon="5.68888">
        <ele>218.6</ele>
        <time>2022-09-25T13:19:50Z</time>
      </trkpt>
      <trkpt lat="45.65505" lon="5.68886">
        <ele>218.6</ele>
        <time>2022-09-25T13:19:51Z</time>
      </trkpt>
      <trkpt lat="45.65511" lon="5.68884">
        <ele>218.7</ele>
        <time>2022-09-25T13:19:52Z</time>
      </trkpt>
      <trkpt lat="45.65516" lon="5.68882">
        <ele>218.7</ele>
        <time>2022-09-25T13:19:53Z</time>
      </trkpt>
      <trkpt lat="45.65522" lon="5.6888">
        <ele>218.7</ele>
        <time>2022-09-25T13:19:54Z</time>
      </trkpt>
      <trkpt lat="45.65527" lon="5.68877">
        <ele>218.7</ele>
        <time>2022-09-25T13:19:55Z</time>
      </trkpt>
      <trkpt lat="45.65533" lon="5.68875">
        <ele>218.7</ele>
        <time>2022-09-25T13:19:56Z</time>
      </trkpt>
      <trkpt lat="45.65538" lon="5.68873">
        <ele>218.7</ele>
        <time>2022-09-25T13:19:57Z</time>
      </trkpt>
      <trkpt lat="45.65544" lon="5.68871">
        <ele>218.7</ele>
        <time>2022-09-25T13:19:58Z</time>
      </trkpt>
      <trkpt lat="45.65549" lon="5.68868">
        <ele>218.7</ele>
        <time>2022-09-25T13:19:59Z</time>
      </trkpt>
      <trkpt lat="45.65555" lon="5.68866">
        <ele>218.7</ele>
        <time>2022-09-25T13:20:00Z</time>
      </trkpt>
      <trkpt lat="45.6556" lon="5.68864">
        <ele>218.7</ele>
        <time>2022-09-25T13:20:01Z</time>
      </trkpt>
      <trkpt lat="45.65566" lon="5.68862">
        <ele>218.7</ele>
        <time>2022-09-25T13:20:02Z</time>
      </trkpt>
      <trkpt lat="45.65571" lon="5.6886">
        <ele>218.7</ele>
        <time>2022-09-25T13:20:03Z</time>
      </trkpt>
      <trkpt lat="45.65577" lon="5.68858">
        <ele>218.7</ele>
        <time>2022-09-25T13:20:04Z</time>
      </trkpt>
      <trkpt lat="45.65583" lon="5.68856">
        <ele>218.6</ele>
        <time>2022-09-25T13:20:05Z</time>
      </trkpt>
      <trkpt lat="45.65588" lon="5.68853">
        <ele>218.6</ele>
        <time>2022-09-25T13:20:06Z</time>
      </trkpt>
      <trkpt lat="45.65594" lon="5.68851">
        <ele>218.6</ele>
        <time>2022-09-25T13:20:07Z</time>
      </trkpt>
      <trkpt lat="45.65599" lon="5.68849">
        <ele>218.6</ele>
        <time>2022-09-25T13:20:08Z</time>
      </trkpt>
      <trkpt lat="45.65605" lon="5.68847">
        <ele>218.6</ele>
        <time>2022-09-25T13:20:09Z</time>
      </trkpt>
      <trkpt lat="45.6561" lon="5.68844">
        <ele>218.6</ele>
        <time>2022-09-25T13:20:10Z</time>
      </trkpt>
      <trkpt lat="45.65616" lon="5.68842">
        <ele>218.6</ele>
        <time>2022-09-25T13:20:11Z</time>
      </trkpt>
      <trkpt lat="45.65621" lon="5.68839">
        <ele>218.6</ele>
        <time>2022-09-25T13:20:12Z</time>
      </trkpt>
      <trkpt lat="45.65627" lon="5.68837">
        <ele>218.6</ele>
        <time>2022-09-25T13:20:13Z</time>
      </trkpt>
      <trkpt lat="45.65632" lon="5.68835">
        <ele>218.6</ele>
        <time>2022-09-25T13:20:14Z</time>
      </trkpt>
      <trkpt lat="45.65638" lon="5.68833">
        <ele>218.6</ele>
        <time>2022-09-25T13:20:15Z</time>
      </trkpt>
      <trkpt lat="45.65643" lon="5.68831">
        <ele>218.6</ele>
        <time>2022-09-25T13:20:16Z</time>
      </trkpt>
      <trkpt lat="45.65649" lon="5.68828">
        <ele>218.6</ele>
        <time>2022-09-25T13:20:17Z</time>
      </trkpt>
      <trkpt lat="45.65654" lon="5.68826">
        <ele>218.6</ele>
        <time>2022-09-25T13:20:18Z</time>
      </trkpt>
      <trkpt lat="45.65659" lon="5.68824">
        <ele>218.6</ele>
        <time>2022-09-25T13:20:19Z</time>
      </trkpt>
      <trkpt lat="45.65665" lon="5.68822">
        <ele>218.6</ele>
        <time>2022-09-25T13:20:20Z</time>
      </trkpt>
      <trkpt lat="45.65671" lon="5.6882">
        <ele>218.6</ele>
        <time>2022-09-25T13:20:21Z</time>
      </trkpt>
      <trkpt lat="45.65676" lon="5.68818">
        <ele>218.5</ele>
        <time>2022-09-25T13:20:22Z</time>
      </trkpt>
      <trkpt lat="45.65681" lon="5.68815">
        <ele>218.5</ele>
        <time>2022-09-25T13:20:23Z</time>
      </trkpt>
      <trkpt lat="45.65687" lon="5.68813">
        <ele>218.5</ele>
        <time>2022-09-25T13:20:24Z</time>
      </trkpt>
      <trkpt lat="45.65692" lon="5.68812">
        <ele>218.5</ele>
        <time>2022-09-25T13:20:25Z</time>
      </trkpt>
      <trkpt lat="45.65697" lon="5.6881">
        <ele>218.5</ele>
        <time>2022-09-25T13:20:26Z</time>
      </trkpt>
      <trkpt lat="45.65703" lon="5.68807">
        <ele>218.5</ele>
        <time>2022-09-25T13:20:27Z</time>
      </trkpt>
      <trkpt lat="45.65708" lon="5.68805">
        <ele>218.5</ele>
        <time>2022-09-25T13:20:28Z</time>
      </trkpt>
      <trkpt lat="45.65713" lon="5.68803">
        <ele>218.5</ele>
        <time>2022-09-25T13:20:29Z</time>
      </trkpt>
      <trkpt lat="45.65719" lon="5.688">
        <ele>218.5</ele>
        <time>2022-09-25T13:20:30Z</time>
      </trkpt>
      <trkpt lat="45.65724" lon="5.68798">
        <ele>218.5</ele>
        <time>2022-09-25T13:20:31Z</time>
      </trkpt>
      <trkpt lat="45.65729" lon="5.68796">
        <ele>218.5</ele>
        <time>2022-09-25T13:20:32Z</time>
      </trkpt>
      <trkpt lat="45.65734" lon="5.68794">
        <ele>218.5</ele>
        <time>2022-09-25T13:20:33Z</time>
      </trkpt>
      <trkpt lat="45.65739" lon="5.68792">
        <ele>218.4</ele>
        <time>2022-09-25T13:20:34Z</time>
      </trkpt>
      <trkpt lat="45.65745" lon="5.6879">
        <ele>218.4</ele>
        <time>2022-09-25T13:20:35Z</time>
      </trkpt>
      <trkpt lat="45.65751" lon="5.68788">
        <ele>218.4</ele>
        <time>2022-09-25T13:20:36Z</time>
      </trkpt>
      <trkpt lat="45.65756" lon="5.68785">
        <ele>218.4</ele>
        <time>2022-09-25T13:20:37Z</time>
      </trkpt>
      <trkpt lat="45.65761" lon="5.68783">
        <ele>218.4</ele>
        <time>2022-09-25T13:20:38Z</time>
      </trkpt>
      <trkpt lat="45.65766" lon="5.68781">
        <ele>218.4</ele>
        <time>2022-09-25T13:20:39Z</time>
      </trkpt>
      <trkpt lat="45.65772" lon="5.68778">
        <ele>218.4</ele>
        <time>2022-09-25T13:20:40Z</time>
      </trkpt>
      <trkpt lat="45.65777" lon="5.68777">
        <ele>218.3</ele>
        <time>2022-09-25T13:20:41Z</time>
      </trkpt>
      <trkpt lat="45.65783" lon="5.68774">
        <ele>218.3</ele>
        <time>2022-09-25T13:20:42Z</time>
      </trkpt>
      <trkpt lat="45.65788" lon="5.68772">
        <ele>218.3</ele>
        <time>2022-09-25T13:20:43Z</time>
      </trkpt>
      <trkpt lat="45.65794" lon="5.68769">
        <ele>218.3</ele>
        <time>2022-09-25T13:20:44Z</time>
      </trkpt>
      <trkpt lat="45.65799" lon="5.68768">
        <ele>218.3</ele>
        <time>2022-09-25T13:20:45Z</time>
      </trkpt>
      <trkpt lat="45.65804" lon="5.68766">
        <ele>218.3</ele>
        <time>2022-09-25T13:20:46Z</time>
      </trkpt>
      <trkpt lat="45.6581" lon="5.68764">
        <ele>218.2</ele>
        <time>2022-09-25T13:20:47Z</time>
      </trkpt>
      <trkpt lat="45.65815" lon="5.68761">
        <ele>218.2</ele>
        <time>2022-09-25T13:20:48Z</time>
      </trkpt>
      <trkpt lat="45.65821" lon="5.68759">
        <ele>218.2</ele>
        <time>2022-09-25T13:20:49Z</time>
      </trkpt>
      <trkpt lat="45.65826" lon="5.68757">
        <ele>218.3</ele>
        <time>2022-09-25T13:20:50Z</time>
      </trkpt>
      <trkpt lat="45.65831" lon="5.68755">
        <ele>218.3</ele>
        <time>2022-09-25T13:20:51Z</time>
      </trkpt>
      <trkpt lat="45.65837" lon="5.68753">
        <ele>218.3</ele>
        <time>2022-09-25T13:20:52Z</time>
      </trkpt>
      <trkpt lat="45.65842" lon="5.68751">
        <ele>218.3</ele>
        <time>2022-09-25T13:20:53Z</time>
      </trkpt>
      <trkpt lat="45.65848" lon="5.68748">
        <ele>218.3</ele>
        <time>2022-09-25T13:20:54Z</time>
      </trkpt>
      <trkpt lat="45.65853" lon="5.68746">
        <ele>218.3</ele>
        <time>2022-09-25T13:20:55Z</time>
      </trkpt>
      <trkpt lat="45.65859" lon="5.68744">
        <ele>218.3</ele>
        <time>2022-09-25T13:20:56Z</time>
      </trkpt>
      <trkpt lat="45.65864" lon="5.68742">
        <ele>218.3</ele>
        <time>2022-09-25T13:20:57Z</time>
      </trkpt>
      <trkpt lat="45.6587" lon="5.6874">
        <ele>218.3</ele>
        <time>2022-09-25T13:20:58Z</time>
      </trkpt>
      <trkpt lat="45.65875" lon="5.68738">
        <ele>218.3</ele>
        <time>2022-09-25T13:20:59Z</time>
      </trkpt>
      <trkpt lat="45.6588" lon="5.68736">
        <ele>218.3</ele>
        <time>2022-09-25T13:21:00Z</time>
      </trkpt>
      <trkpt lat="45.65885" lon="5.68733">
        <ele>218.3</ele>
        <time>2022-09-25T13:21:01Z</time>
      </trkpt>
      <trkpt lat="45.6589" lon="5.68731">
        <ele>218.3</ele>
        <time>2022-09-25T13:21:02Z</time>
      </trkpt>
      <trkpt lat="45.65896" lon="5.68729">
        <ele>218.3</ele>
        <time>2022-09-25T13:21:03Z</time>
      </trkpt>
      <trkpt lat="45.65901" lon="5.68727">
        <ele>218.3</ele>
        <time>2022-09-25T13:21:04Z</time>
      </trkpt>
      <trkpt lat="45.65906" lon="5.68725">
        <ele>218.3</ele>
        <time>2022-09-25T13:21:05Z</time>
      </trkpt>
      <trkpt lat="45.65911" lon="5.68723">
        <ele>218.3</ele>
        <time>2022-09-25T13:21:06Z</time>
      </trkpt>
      <trkpt lat="45.65917" lon="5.68721">
        <ele>218.3</ele>
        <time>2022-09-25T13:21:07Z</time>
      </trkpt>
      <trkpt lat="45.65922" lon="5.68719">
        <ele>218.3</ele>
        <time>2022-09-25T13:21:08Z</time>
      </trkpt>
      <trkpt lat="45.65928" lon="5.68716">
        <ele>218.3</ele>
        <time>2022-09-25T13:21:09Z</time>
      </trkpt>
      <trkpt lat="45.65933" lon="5.68714">
        <ele>218.4</ele>
        <time>2022-09-25T13:21:10Z</time>
      </trkpt>
      <trkpt lat="45.65938" lon="5.68711">
        <ele>218.4</ele>
        <time>2022-09-25T13:21:11Z</time>
      </trkpt>
      <trkpt lat="45.65944" lon="5.6871">
        <ele>218.4</ele>
        <time>2022-09-25T13:21:12Z</time>
      </trkpt>
      <trkpt lat="45.65949" lon="5.68707">
        <ele>218.4</ele>
        <time>2022-09-25T13:21:13Z</time>
      </trkpt>
      <trkpt lat="45.65954" lon="5.68706">
        <ele>218.4</ele>
        <time>2022-09-25T13:21:14Z</time>
      </trkpt>
      <trkpt lat="45.65959" lon="5.68703">
        <ele>218.4</ele>
        <time>2022-09-25T13:21:15Z</time>
      </trkpt>
      <trkpt lat="45.65965" lon="5.68701">
        <ele>218.4</ele>
        <time>2022-09-25T13:21:16Z</time>
      </trkpt>
      <trkpt lat="45.6597" lon="5.68699">
        <ele>218.4</ele>
        <time>2022-09-25T13:21:17Z</time>
      </trkpt>
      <trkpt lat="45.65975" lon="5.68697">
        <ele>218.4</ele>
        <time>2022-09-25T13:21:18Z</time>
      </trkpt>
      <trkpt lat="45.65981" lon="5.68695">
        <ele>218.4</ele>
        <time>2022-09-25T13:21:19Z</time>
      </trkpt>
      <trkpt lat="45.65986" lon="5.68693">
        <ele>218.4</ele>
        <time>2022-09-25T13:21:20Z</time>
      </trkpt>
      <trkpt lat="45.65992" lon="5.68691">
        <ele>218.4</ele>
        <time>2022-09-25T13:21:21Z</time>
      </trkpt>
      <trkpt lat="45.65997" lon="5.68688">
        <ele>218.5</ele>
        <time>2022-09-25T13:21:22Z</time>
      </trkpt>
      <trkpt lat="45.66003" lon="5.68686">
        <ele>218.5</ele>
        <time>2022-09-25T13:21:23Z</time>
      </trkpt>
      <trkpt lat="45.66008" lon="5.68684">
        <ele>218.5</ele>
        <time>2022-09-25T13:21:24Z</time>
      </trkpt>
      <trkpt lat="45.66014" lon="5.68683">
        <ele>218.5</ele>
        <time>2022-09-25T13:21:25Z</time>
      </trkpt>
      <trkpt lat="45.66019" lon="5.6868">
        <ele>218.5</ele>
        <time>2022-09-25T13:21:26Z</time>
      </trkpt>
      <trkpt lat="45.66024" lon="5.68678">
        <ele>218.5</ele>
        <time>2022-09-25T13:21:27Z</time>
      </trkpt>
      <trkpt lat="45.66029" lon="5.68676">
        <ele>218.5</ele>
        <time>2022-09-25T13:21:28Z</time>
      </trkpt>
      <trkpt lat="45.66035" lon="5.68674">
        <ele>218.4</ele>
        <time>2022-09-25T13:21:29Z</time>
      </trkpt>
      <trkpt lat="45.6604" lon="5.68671">
        <ele>218.4</ele>
        <time>2022-09-25T13:21:30Z</time>
      </trkpt>
      <trkpt lat="45.66047" lon="5.68668">
        <ele>218.4</ele>
        <time>2022-09-25T13:21:31Z</time>
      </trkpt>
      <trkpt lat="45.66052" lon="5.68667">
        <ele>218.4</ele>
        <time>2022-09-25T13:21:32Z</time>
      </trkpt>
      <trkpt lat="45.66058" lon="5.68664">
        <ele>218.4</ele>
        <time>2022-09-25T13:21:33Z</time>
      </trkpt>
      <trkpt lat="45.66063" lon="5.68662">
        <ele>218.4</ele>
        <time>2022-09-25T13:21:34Z</time>
      </trkpt>
      <trkpt lat="45.66069" lon="5.6866">
        <ele>218.4</ele>
        <time>2022-09-25T13:21:35Z</time>
      </trkpt>
      <trkpt lat="45.66075" lon="5.68658">
        <ele>218.5</ele>
        <time>2022-09-25T13:21:36Z</time>
      </trkpt>
      <trkpt lat="45.6608" lon="5.68655">
        <ele>218.5</ele>
        <time>2022-09-25T13:21:37Z</time>
      </trkpt>
      <trkpt lat="45.66085" lon="5.68653">
        <ele>218.5</ele>
        <time>2022-09-25T13:21:38Z</time>
      </trkpt>
      <trkpt lat="45.66091" lon="5.68651">
        <ele>218.5</ele>
        <time>2022-09-25T13:21:39Z</time>
      </trkpt>
      <trkpt lat="45.66097" lon="5.68649">
        <ele>218.6</ele>
        <time>2022-09-25T13:21:40Z</time>
      </trkpt>
      <trkpt lat="45.66102" lon="5.68647">
        <ele>218.6</ele>
        <time>2022-09-25T13:21:41Z</time>
      </trkpt>
      <trkpt lat="45.66108" lon="5.68645">
        <ele>218.7</ele>
        <time>2022-09-25T13:21:42Z</time>
      </trkpt>
      <trkpt lat="45.66113" lon="5.68642">
        <ele>218.8</ele>
        <time>2022-09-25T13:21:43Z</time>
      </trkpt>
      <trkpt lat="45.66118" lon="5.6864">
        <ele>218.9</ele>
        <time>2022-09-25T13:21:44Z</time>
      </trkpt>
      <trkpt lat="45.66123" lon="5.68638">
        <ele>218.9</ele>
        <time>2022-09-25T13:21:45Z</time>
      </trkpt>
      <trkpt lat="45.66128" lon="5.68636">
        <ele>219</ele>
        <time>2022-09-25T13:21:46Z</time>
      </trkpt>
      <trkpt lat="45.66132" lon="5.68634">
        <ele>219.1</ele>
        <time>2022-09-25T13:21:47Z</time>
      </trkpt>
      <trkpt lat="45.66137" lon="5.68633">
        <ele>219.2</ele>
        <time>2022-09-25T13:21:48Z</time>
      </trkpt>
      <trkpt lat="45.6614" lon="5.68632">
        <ele>219.3</ele>
        <time>2022-09-25T13:21:49Z</time>
      </trkpt>
      <trkpt lat="45.66144" lon="5.68633">
        <ele>219.3</ele>
        <time>2022-09-25T13:21:50Z</time>
      </trkpt>
      <trkpt lat="45.66146" lon="5.68636">
        <ele>219.3</ele>
        <time>2022-09-25T13:21:51Z</time>
      </trkpt>
      <trkpt lat="45.66148" lon="5.6864">
        <ele>219.3</ele>
        <time>2022-09-25T13:21:52Z</time>
      </trkpt>
      <trkpt lat="45.66149" lon="5.68644">
        <ele>219.3</ele>
        <time>2022-09-25T13:21:53Z</time>
      </trkpt>
      <trkpt lat="45.66149" lon="5.68648">
        <ele>219.3</ele>
        <time>2022-09-25T13:21:54Z</time>
      </trkpt>
      <trkpt lat="45.6615" lon="5.68654">
        <ele>219.3</ele>
        <time>2022-09-25T13:21:55Z</time>
      </trkpt>
      <trkpt lat="45.66149" lon="5.68658">
        <ele>219.3</ele>
        <time>2022-09-25T13:21:56Z</time>
      </trkpt>
      <trkpt lat="45.6615" lon="5.68663">
        <ele>219.3</ele>
        <time>2022-09-25T13:21:57Z</time>
      </trkpt>
      <trkpt lat="45.66151" lon="5.68667">
        <ele>219.3</ele>
        <time>2022-09-25T13:21:58Z</time>
      </trkpt>
      <trkpt lat="45.66151" lon="5.68673">
        <ele>219.3</ele>
        <time>2022-09-25T13:21:59Z</time>
      </trkpt>
      <trkpt lat="45.66151" lon="5.68679">
        <ele>219.3</ele>
        <time>2022-09-25T13:22:00Z</time>
      </trkpt>
      <trkpt lat="45.66152" lon="5.68684">
        <ele>219.3</ele>
        <time>2022-09-25T13:22:01Z</time>
      </trkpt>
      <trkpt lat="45.66152" lon="5.6869">
        <ele>219.3</ele>
        <time>2022-09-25T13:22:02Z</time>
      </trkpt>
      <trkpt lat="45.66152" lon="5.68695">
        <ele>219.3</ele>
        <time>2022-09-25T13:22:03Z</time>
      </trkpt>
      <trkpt lat="45.66153" lon="5.68701">
        <ele>219.2</ele>
        <time>2022-09-25T13:22:04Z</time>
      </trkpt>
      <trkpt lat="45.66153" lon="5.68706">
        <ele>219.2</ele>
        <time>2022-09-25T13:22:05Z</time>
      </trkpt>
      <trkpt lat="45.66154" lon="5.68713">
        <ele>219.2</ele>
        <time>2022-09-25T13:22:06Z</time>
      </trkpt>
      <trkpt lat="45.66154" lon="5.68719">
        <ele>219.1</ele>
        <time>2022-09-25T13:22:07Z</time>
      </trkpt>
      <trkpt lat="45.66155" lon="5.68725">
        <ele>219.1</ele>
        <time>2022-09-25T13:22:08Z</time>
      </trkpt>
      <trkpt lat="45.66156" lon="5.68731">
        <ele>219.1</ele>
        <time>2022-09-25T13:22:09Z</time>
      </trkpt>
      <trkpt lat="45.66156" lon="5.68738">
        <ele>219</ele>
        <time>2022-09-25T13:22:10Z</time>
      </trkpt>
      <trkpt lat="45.66157" lon="5.68744">
        <ele>219</ele>
        <time>2022-09-25T13:22:11Z</time>
      </trkpt>
      <trkpt lat="45.66157" lon="5.68751">
        <ele>218.9</ele>
        <time>2022-09-25T13:22:12Z</time>
      </trkpt>
      <trkpt lat="45.66158" lon="5.68758">
        <ele>218.9</ele>
        <time>2022-09-25T13:22:13Z</time>
      </trkpt>
      <trkpt lat="45.66159" lon="5.68764">
        <ele>218.8</ele>
        <time>2022-09-25T13:22:14Z</time>
      </trkpt>
      <trkpt lat="45.66159" lon="5.68772">
        <ele>218.8</ele>
        <time>2022-09-25T13:22:15Z</time>
      </trkpt>
      <trkpt lat="45.6616" lon="5.68779">
        <ele>218.7</ele>
        <time>2022-09-25T13:22:16Z</time>
      </trkpt>
      <trkpt lat="45.6616" lon="5.68786">
        <ele>218.7</ele>
        <time>2022-09-25T13:22:17Z</time>
      </trkpt>
      <trkpt lat="45.6616" lon="5.68793">
        <ele>218.6</ele>
        <time>2022-09-25T13:22:18Z</time>
      </trkpt>
      <trkpt lat="45.66161" lon="5.688">
        <ele>218.6</ele>
        <time>2022-09-25T13:22:19Z</time>
      </trkpt>
      <trkpt lat="45.66162" lon="5.68808">
        <ele>218.6</ele>
        <time>2022-09-25T13:22:20Z</time>
      </trkpt>
      <trkpt lat="45.66162" lon="5.68814">
        <ele>218.5</ele>
        <time>2022-09-25T13:22:21Z</time>
      </trkpt>
      <trkpt lat="45.66163" lon="5.68822">
        <ele>218.5</ele>
        <time>2022-09-25T13:22:22Z</time>
      </trkpt>
      <trkpt lat="45.66164" lon="5.68828">
        <ele>218.5</ele>
        <time>2022-09-25T13:22:23Z</time>
      </trkpt>
      <trkpt lat="45.66164" lon="5.68836">
        <ele>218.4</ele>
        <time>2022-09-25T13:22:24Z</time>
      </trkpt>
      <trkpt lat="45.66165" lon="5.68842">
        <ele>218.4</ele>
        <time>2022-09-25T13:22:25Z</time>
      </trkpt>
      <trkpt lat="45.66165" lon="5.68849">
        <ele>218.3</ele>
        <time>2022-09-25T13:22:26Z</time>
      </trkpt>
      <trkpt lat="45.66166" lon="5.68856">
        <ele>218.3</ele>
        <time>2022-09-25T13:22:27Z</time>
      </trkpt>
      <trkpt lat="45.66167" lon="5.68862">
        <ele>218.2</ele>
        <time>2022-09-25T13:22:28Z</time>
      </trkpt>
      <trkpt lat="45.66167" lon="5.6887">
        <ele>218.1</ele>
        <time>2022-09-25T13:22:29Z</time>
      </trkpt>
      <trkpt lat="45.66167" lon="5.68877">
        <ele>218</ele>
        <time>2022-09-25T13:22:30Z</time>
      </trkpt>
      <trkpt lat="45.66168" lon="5.68884">
        <ele>217.9</ele>
        <time>2022-09-25T13:22:31Z</time>
      </trkpt>
      <trkpt lat="45.66169" lon="5.68889">
        <ele>217.8</ele>
        <time>2022-09-25T13:22:32Z</time>
      </trkpt>
      <trkpt lat="45.6617" lon="5.68895">
        <ele>217.8</ele>
        <time>2022-09-25T13:22:33Z</time>
      </trkpt>
      <trkpt lat="45.66169" lon="5.68899">
        <ele>217.7</ele>
        <time>2022-09-25T13:22:34Z</time>
      </trkpt>
      <trkpt lat="45.6617" lon="5.68903">
        <ele>217.6</ele>
        <time>2022-09-25T13:22:35Z</time>
      </trkpt>
      <trkpt lat="45.66171" lon="5.68907">
        <ele>217.5</ele>
        <time>2022-09-25T13:22:36Z</time>
      </trkpt>
      <trkpt lat="45.66172" lon="5.68911">
        <ele>217.5</ele>
        <time>2022-09-25T13:22:37Z</time>
      </trkpt>
      <trkpt lat="45.66175" lon="5.68914">
        <ele>217.4</ele>
        <time>2022-09-25T13:22:38Z</time>
      </trkpt>
      <trkpt lat="45.66179" lon="5.68915">
        <ele>217.3</ele>
        <time>2022-09-25T13:22:39Z</time>
      </trkpt>
      <trkpt lat="45.66181" lon="5.68915">
        <ele>217.2</ele>
        <time>2022-09-25T13:22:40Z</time>
      </trkpt>
      <trkpt lat="45.66185" lon="5.68916">
        <ele>217.1</ele>
        <time>2022-09-25T13:22:41Z</time>
      </trkpt>
      <trkpt lat="45.66189" lon="5.68915">
        <ele>217</ele>
        <time>2022-09-25T13:22:42Z</time>
      </trkpt>
      <trkpt lat="45.66193" lon="5.68914">
        <ele>217</ele>
        <time>2022-09-25T13:22:43Z</time>
      </trkpt>
      <trkpt lat="45.66197" lon="5.6891">
        <ele>216.8</ele>
        <time>2022-09-25T13:22:44Z</time>
      </trkpt>
      <trkpt lat="45.66201" lon="5.68907">
        <ele>216.7</ele>
        <time>2022-09-25T13:22:45Z</time>
      </trkpt>
      <trkpt lat="45.66205" lon="5.68904">
        <ele>216.7</ele>
        <time>2022-09-25T13:22:46Z</time>
      </trkpt>
      <trkpt lat="45.66208" lon="5.68901">
        <ele>216.6</ele>
        <time>2022-09-25T13:22:47Z</time>
      </trkpt>
      <trkpt lat="45.66212" lon="5.68898">
        <ele>216.5</ele>
        <time>2022-09-25T13:22:48Z</time>
      </trkpt>
      <trkpt lat="45.66216" lon="5.68894">
        <ele>216.5</ele>
        <time>2022-09-25T13:22:49Z</time>
      </trkpt>
      <trkpt lat="45.66219" lon="5.6889">
        <ele>216.4</ele>
        <time>2022-09-25T13:22:50Z</time>
      </trkpt>
      <trkpt lat="45.66224" lon="5.68887">
        <ele>216.4</ele>
        <time>2022-09-25T13:22:51Z</time>
      </trkpt>
      <trkpt lat="45.66228" lon="5.68883">
        <ele>216.3</ele>
        <time>2022-09-25T13:22:52Z</time>
      </trkpt>
      <trkpt lat="45.66232" lon="5.68879">
        <ele>216.3</ele>
        <time>2022-09-25T13:22:53Z</time>
      </trkpt>
      <trkpt lat="45.66236" lon="5.68875">
        <ele>216.3</ele>
        <time>2022-09-25T13:22:54Z</time>
      </trkpt>
      <trkpt lat="45.6624" lon="5.68871">
        <ele>216.2</ele>
        <time>2022-09-25T13:22:55Z</time>
      </trkpt>
      <trkpt lat="45.66244" lon="5.68867">
        <ele>216.2</ele>
        <time>2022-09-25T13:22:56Z</time>
      </trkpt>
      <trkpt lat="45.66249" lon="5.68863">
        <ele>216.2</ele>
        <time>2022-09-25T13:22:57Z</time>
      </trkpt>
      <trkpt lat="45.66253" lon="5.68858">
        <ele>216.2</ele>
        <time>2022-09-25T13:22:58Z</time>
      </trkpt>
      <trkpt lat="45.66257" lon="5.68854">
        <ele>216.2</ele>
        <time>2022-09-25T13:22:59Z</time>
      </trkpt>
      <trkpt lat="45.66261" lon="5.68849">
        <ele>216.2</ele>
        <time>2022-09-25T13:23:00Z</time>
      </trkpt>
      <trkpt lat="45.66265" lon="5.68845">
        <ele>216.2</ele>
        <time>2022-09-25T13:23:01Z</time>
      </trkpt>
      <trkpt lat="45.66269" lon="5.6884">
        <ele>216.2</ele>
        <time>2022-09-25T13:23:02Z</time>
      </trkpt>
      <trkpt lat="45.66273" lon="5.68836">
        <ele>216.2</ele>
        <time>2022-09-25T13:23:03Z</time>
      </trkpt>
      <trkpt lat="45.66277" lon="5.68832">
        <ele>216.2</ele>
        <time>2022-09-25T13:23:04Z</time>
      </trkpt>
      <trkpt lat="45.66281" lon="5.68827">
        <ele>216.2</ele>
        <time>2022-09-25T13:23:05Z</time>
      </trkpt>
      <trkpt lat="45.66286" lon="5.68823">
        <ele>216.2</ele>
        <time>2022-09-25T13:23:06Z</time>
      </trkpt>
      <trkpt lat="45.6629" lon="5.68818">
        <ele>216.2</ele>
        <time>2022-09-25T13:23:07Z</time>
      </trkpt>
      <trkpt lat="45.66295" lon="5.68813">
        <ele>216.3</ele>
        <time>2022-09-25T13:23:08Z</time>
      </trkpt>
      <trkpt lat="45.66298" lon="5.68809">
        <ele>216.3</ele>
        <time>2022-09-25T13:23:09Z</time>
      </trkpt>
      <trkpt lat="45.66302" lon="5.68804">
        <ele>216.3</ele>
        <time>2022-09-25T13:23:10Z</time>
      </trkpt>
      <trkpt lat="45.66307" lon="5.688">
        <ele>216.3</ele>
        <time>2022-09-25T13:23:11Z</time>
      </trkpt>
      <trkpt lat="45.66311" lon="5.68795">
        <ele>216.4</ele>
        <time>2022-09-25T13:23:12Z</time>
      </trkpt>
      <trkpt lat="45.66314" lon="5.68791">
        <ele>216.4</ele>
        <time>2022-09-25T13:23:13Z</time>
      </trkpt>
      <trkpt lat="45.66319" lon="5.68787">
        <ele>216.4</ele>
        <time>2022-09-25T13:23:14Z</time>
      </trkpt>
      <trkpt lat="45.66322" lon="5.68782">
        <ele>216.5</ele>
        <time>2022-09-25T13:23:15Z</time>
      </trkpt>
      <trkpt lat="45.66326" lon="5.68778">
        <ele>216.5</ele>
        <time>2022-09-25T13:23:16Z</time>
      </trkpt>
      <trkpt lat="45.6633" lon="5.68774">
        <ele>216.5</ele>
        <time>2022-09-25T13:23:17Z</time>
      </trkpt>
      <trkpt lat="45.66334" lon="5.68769">
        <ele>216.5</ele>
        <time>2022-09-25T13:23:18Z</time>
      </trkpt>
      <trkpt lat="45.66338" lon="5.68765">
        <ele>216.6</ele>
        <time>2022-09-25T13:23:19Z</time>
      </trkpt>
      <trkpt lat="45.66341" lon="5.68761">
        <ele>216.6</ele>
        <time>2022-09-25T13:23:20Z</time>
      </trkpt>
      <trkpt lat="45.66345" lon="5.68756">
        <ele>216.6</ele>
        <time>2022-09-25T13:23:21Z</time>
      </trkpt>
      <trkpt lat="45.66349" lon="5.68752">
        <ele>216.6</ele>
        <time>2022-09-25T13:23:22Z</time>
      </trkpt>
      <trkpt lat="45.66354" lon="5.68747">
        <ele>216.7</ele>
        <time>2022-09-25T13:23:23Z</time>
      </trkpt>
      <trkpt lat="45.66358" lon="5.68743">
        <ele>216.7</ele>
        <time>2022-09-25T13:23:24Z</time>
      </trkpt>
      <trkpt lat="45.66361" lon="5.68738">
        <ele>216.7</ele>
        <time>2022-09-25T13:23:25Z</time>
      </trkpt>
      <trkpt lat="45.66365" lon="5.68734">
        <ele>216.7</ele>
        <time>2022-09-25T13:23:26Z</time>
      </trkpt>
      <trkpt lat="45.66369" lon="5.6873">
        <ele>216.8</ele>
        <time>2022-09-25T13:23:27Z</time>
      </trkpt>
      <trkpt lat="45.66373" lon="5.68725">
        <ele>216.8</ele>
        <time>2022-09-25T13:23:28Z</time>
      </trkpt>
      <trkpt lat="45.66378" lon="5.68721">
        <ele>216.8</ele>
        <time>2022-09-25T13:23:29Z</time>
      </trkpt>
      <trkpt lat="45.66382" lon="5.68717">
        <ele>216.8</ele>
        <time>2022-09-25T13:23:30Z</time>
      </trkpt>
      <trkpt lat="45.66386" lon="5.68713">
        <ele>216.9</ele>
        <time>2022-09-25T13:23:31Z</time>
      </trkpt>
      <trkpt lat="45.66391" lon="5.6871">
        <ele>216.9</ele>
        <time>2022-09-25T13:23:32Z</time>
      </trkpt>
      <trkpt lat="45.66396" lon="5.68707">
        <ele>216.9</ele>
        <time>2022-09-25T13:23:33Z</time>
      </trkpt>
      <trkpt lat="45.664" lon="5.68705">
        <ele>217</ele>
        <time>2022-09-25T13:23:34Z</time>
      </trkpt>
      <trkpt lat="45.66405" lon="5.68703">
        <ele>217</ele>
        <time>2022-09-25T13:23:35Z</time>
      </trkpt>
      <trkpt lat="45.6641" lon="5.68702">
        <ele>217.1</ele>
        <time>2022-09-25T13:23:36Z</time>
      </trkpt>
      <trkpt lat="45.66414" lon="5.68701">
        <ele>217.1</ele>
        <time>2022-09-25T13:23:37Z</time>
      </trkpt>
      <trkpt lat="45.66419" lon="5.68701">
        <ele>217.2</ele>
        <time>2022-09-25T13:23:38Z</time>
      </trkpt>
      <trkpt lat="45.66423" lon="5.68701">
        <ele>217.2</ele>
        <time>2022-09-25T13:23:39Z</time>
      </trkpt>
      <trkpt lat="45.66428" lon="5.68702">
        <ele>217.3</ele>
        <time>2022-09-25T13:23:40Z</time>
      </trkpt>
      <trkpt lat="45.66432" lon="5.68704">
        <ele>217.3</ele>
        <time>2022-09-25T13:23:41Z</time>
      </trkpt>
      <trkpt lat="45.66437" lon="5.68705">
        <ele>217.4</ele>
        <time>2022-09-25T13:23:42Z</time>
      </trkpt>
      <trkpt lat="45.66441" lon="5.68706">
        <ele>217.5</ele>
        <time>2022-09-25T13:23:43Z</time>
      </trkpt>
      <trkpt lat="45.66445" lon="5.68708">
        <ele>217.5</ele>
        <time>2022-09-25T13:23:44Z</time>
      </trkpt>
      <trkpt lat="45.66448" lon="5.6871">
        <ele>217.5</ele>
        <time>2022-09-25T13:23:45Z</time>
      </trkpt>
      <trkpt lat="45.66451" lon="5.68711">
        <ele>217.5</ele>
        <time>2022-09-25T13:23:46Z</time>
      </trkpt>
      <trkpt lat="45.66456" lon="5.68714">
        <ele>217.5</ele>
        <time>2022-09-25T13:23:47Z</time>
      </trkpt>
      <trkpt lat="45.6646" lon="5.68717">
        <ele>217.5</ele>
        <time>2022-09-25T13:23:48Z</time>
      </trkpt>
      <trkpt lat="45.66465" lon="5.68718">
        <ele>217.5</ele>
        <time>2022-09-25T13:23:49Z</time>
      </trkpt>
      <trkpt lat="45.66468" lon="5.68721">
        <ele>217.5</ele>
        <time>2022-09-25T13:23:50Z</time>
      </trkpt>
      <trkpt lat="45.66472" lon="5.68723">
        <ele>217.6</ele>
        <time>2022-09-25T13:23:51Z</time>
      </trkpt>
      <trkpt lat="45.66476" lon="5.68725">
        <ele>217.6</ele>
        <time>2022-09-25T13:23:52Z</time>
      </trkpt>
      <trkpt lat="45.6648" lon="5.68727">
        <ele>217.6</ele>
        <time>2022-09-25T13:23:53Z</time>
      </trkpt>
      <trkpt lat="45.66484" lon="5.6873">
        <ele>217.5</ele>
        <time>2022-09-25T13:23:54Z</time>
      </trkpt>
      <trkpt lat="45.66488" lon="5.68733">
        <ele>217.5</ele>
        <time>2022-09-25T13:23:55Z</time>
      </trkpt>
      <trkpt lat="45.66493" lon="5.68735">
        <ele>217.5</ele>
        <time>2022-09-25T13:23:56Z</time>
      </trkpt>
      <trkpt lat="45.66497" lon="5.68737">
        <ele>217.5</ele>
        <time>2022-09-25T13:23:57Z</time>
      </trkpt>
      <trkpt lat="45.66501" lon="5.6874">
        <ele>217.5</ele>
        <time>2022-09-25T13:23:58Z</time>
      </trkpt>
      <trkpt lat="45.66505" lon="5.68742">
        <ele>217.5</ele>
        <time>2022-09-25T13:23:59Z</time>
      </trkpt>
      <trkpt lat="45.66508" lon="5.68745">
        <ele>217.5</ele>
        <time>2022-09-25T13:24:00Z</time>
      </trkpt>
      <trkpt lat="45.66512" lon="5.68748">
        <ele>217.5</ele>
        <time>2022-09-25T13:24:01Z</time>
      </trkpt>
      <trkpt lat="45.66516" lon="5.68751">
        <ele>217.5</ele>
        <time>2022-09-25T13:24:02Z</time>
      </trkpt>
      <trkpt lat="45.6652" lon="5.68754">
        <ele>217.5</ele>
        <time>2022-09-25T13:24:03Z</time>
      </trkpt>
      <trkpt lat="45.66525" lon="5.68757">
        <ele>217.5</ele>
        <time>2022-09-25T13:24:04Z</time>
      </trkpt>
      <trkpt lat="45.66529" lon="5.6876">
        <ele>217.5</ele>
        <time>2022-09-25T13:24:05Z</time>
      </trkpt>
      <trkpt lat="45.66533" lon="5.68763">
        <ele>217.5</ele>
        <time>2022-09-25T13:24:06Z</time>
      </trkpt>
      <trkpt lat="45.66537" lon="5.68767">
        <ele>217.6</ele>
        <time>2022-09-25T13:24:07Z</time>
      </trkpt>
      <trkpt lat="45.66541" lon="5.6877">
        <ele>217.6</ele>
        <time>2022-09-25T13:24:08Z</time>
      </trkpt>
      <trkpt lat="45.66545" lon="5.68774">
        <ele>217.6</ele>
        <time>2022-09-25T13:24:09Z</time>
      </trkpt>
      <trkpt lat="45.66549" lon="5.68778">
        <ele>217.6</ele>
        <time>2022-09-25T13:24:10Z</time>
      </trkpt>
      <trkpt lat="45.66553" lon="5.68781">
        <ele>217.6</ele>
        <time>2022-09-25T13:24:11Z</time>
      </trkpt>
      <trkpt lat="45.66557" lon="5.68785">
        <ele>217.7</ele>
        <time>2022-09-25T13:24:12Z</time>
      </trkpt>
      <trkpt lat="45.6656" lon="5.68788">
        <ele>217.7</ele>
        <time>2022-09-25T13:24:13Z</time>
      </trkpt>
      <trkpt lat="45.66563" lon="5.68792">
        <ele>217.7</ele>
        <time>2022-09-25T13:24:14Z</time>
      </trkpt>
      <trkpt lat="45.66567" lon="5.68795">
        <ele>217.7</ele>
        <time>2022-09-25T13:24:15Z</time>
      </trkpt>
      <trkpt lat="45.66572" lon="5.68799">
        <ele>217.8</ele>
        <time>2022-09-25T13:24:16Z</time>
      </trkpt>
      <trkpt lat="45.66575" lon="5.68802">
        <ele>217.8</ele>
        <time>2022-09-25T13:24:17Z</time>
      </trkpt>
      <trkpt lat="45.66579" lon="5.68806">
        <ele>217.8</ele>
        <time>2022-09-25T13:24:18Z</time>
      </trkpt>
      <trkpt lat="45.66582" lon="5.6881">
        <ele>217.9</ele>
        <time>2022-09-25T13:24:19Z</time>
      </trkpt>
      <trkpt lat="45.66586" lon="5.68814">
        <ele>217.9</ele>
        <time>2022-09-25T13:24:20Z</time>
      </trkpt>
      <trkpt lat="45.66591" lon="5.68817">
        <ele>218</ele>
        <time>2022-09-25T13:24:21Z</time>
      </trkpt>
      <trkpt lat="45.66594" lon="5.68821">
        <ele>218</ele>
        <time>2022-09-25T13:24:22Z</time>
      </trkpt>
      <trkpt lat="45.66598" lon="5.68825">
        <ele>218</ele>
        <time>2022-09-25T13:24:23Z</time>
      </trkpt>
      <trkpt lat="45.66602" lon="5.68829">
        <ele>218</ele>
        <time>2022-09-25T13:24:24Z</time>
      </trkpt>
      <trkpt lat="45.66606" lon="5.68832">
        <ele>218</ele>
        <time>2022-09-25T13:24:25Z</time>
      </trkpt>
      <trkpt lat="45.66609" lon="5.68836">
        <ele>218</ele>
        <time>2022-09-25T13:24:26Z</time>
      </trkpt>
      <trkpt lat="45.66613" lon="5.6884">
        <ele>218.1</ele>
        <time>2022-09-25T13:24:27Z</time>
      </trkpt>
      <trkpt lat="45.66616" lon="5.68844">
        <ele>218.1</ele>
        <time>2022-09-25T13:24:28Z</time>
      </trkpt>
      <trkpt lat="45.6662" lon="5.68848">
        <ele>218.1</ele>
        <time>2022-09-25T13:24:29Z</time>
      </trkpt>
      <trkpt lat="45.66623" lon="5.68852">
        <ele>218.1</ele>
        <time>2022-09-25T13:24:30Z</time>
      </trkpt>
      <trkpt lat="45.66627" lon="5.68856">
        <ele>218.1</ele>
        <time>2022-09-25T13:24:31Z</time>
      </trkpt>
      <trkpt lat="45.6663" lon="5.68862">
        <ele>218.1</ele>
        <time>2022-09-25T13:24:32Z</time>
      </trkpt>
      <trkpt lat="45.66634" lon="5.68864">
        <ele>218.1</ele>
        <time>2022-09-25T13:24:33Z</time>
      </trkpt>
      <trkpt lat="45.66637" lon="5.68869">
        <ele>218.1</ele>
        <time>2022-09-25T13:24:34Z</time>
      </trkpt>
      <trkpt lat="45.6664" lon="5.68874">
        <ele>218.1</ele>
        <time>2022-09-25T13:24:35Z</time>
      </trkpt>
      <trkpt lat="45.66643" lon="5.68879">
        <ele>218.1</ele>
        <time>2022-09-25T13:24:36Z</time>
      </trkpt>
      <trkpt lat="45.66646" lon="5.68883">
        <ele>218.1</ele>
        <time>2022-09-25T13:24:37Z</time>
      </trkpt>
      <trkpt lat="45.6665" lon="5.68888">
        <ele>218.1</ele>
        <time>2022-09-25T13:24:38Z</time>
      </trkpt>
      <trkpt lat="45.66653" lon="5.68893">
        <ele>218.1</ele>
        <time>2022-09-25T13:24:39Z</time>
      </trkpt>
      <trkpt lat="45.66657" lon="5.68897">
        <ele>218</ele>
        <time>2022-09-25T13:24:40Z</time>
      </trkpt>
      <trkpt lat="45.6666" lon="5.68902">
        <ele>218</ele>
        <time>2022-09-25T13:24:41Z</time>
      </trkpt>
      <trkpt lat="45.66663" lon="5.68907">
        <ele>218</ele>
        <time>2022-09-25T13:24:42Z</time>
      </trkpt>
      <trkpt lat="45.66666" lon="5.68912">
        <ele>218</ele>
        <time>2022-09-25T13:24:43Z</time>
      </trkpt>
      <trkpt lat="45.6667" lon="5.68917">
        <ele>217.9</ele>
        <time>2022-09-25T13:24:44Z</time>
      </trkpt>
      <trkpt lat="45.66674" lon="5.68922">
        <ele>217.9</ele>
        <time>2022-09-25T13:24:45Z</time>
      </trkpt>
      <trkpt lat="45.66677" lon="5.68927">
        <ele>217.9</ele>
        <time>2022-09-25T13:24:46Z</time>
      </trkpt>
      <trkpt lat="45.66681" lon="5.6893">
        <ele>217.9</ele>
        <time>2022-09-25T13:24:47Z</time>
      </trkpt>
      <trkpt lat="45.66683" lon="5.68936">
        <ele>217.8</ele>
        <time>2022-09-25T13:24:48Z</time>
      </trkpt>
      <trkpt lat="45.66685" lon="5.68942">
        <ele>217.8</ele>
        <time>2022-09-25T13:24:49Z</time>
      </trkpt>
      <trkpt lat="45.66688" lon="5.68948">
        <ele>217.8</ele>
        <time>2022-09-25T13:24:50Z</time>
      </trkpt>
      <trkpt lat="45.66692" lon="5.68953">
        <ele>217.8</ele>
        <time>2022-09-25T13:24:51Z</time>
      </trkpt>
      <trkpt lat="45.66695" lon="5.68958">
        <ele>217.7</ele>
        <time>2022-09-25T13:24:52Z</time>
      </trkpt>
      <trkpt lat="45.66698" lon="5.68964">
        <ele>217.7</ele>
        <time>2022-09-25T13:24:53Z</time>
      </trkpt>
      <trkpt lat="45.66701" lon="5.6897">
        <ele>217.7</ele>
        <time>2022-09-25T13:24:54Z</time>
      </trkpt>
      <trkpt lat="45.66704" lon="5.68975">
        <ele>217.7</ele>
        <time>2022-09-25T13:24:55Z</time>
      </trkpt>
      <trkpt lat="45.66707" lon="5.68981">
        <ele>217.7</ele>
        <time>2022-09-25T13:24:56Z</time>
      </trkpt>
      <trkpt lat="45.6671" lon="5.68987">
        <ele>217.7</ele>
        <time>2022-09-25T13:24:57Z</time>
      </trkpt>
      <trkpt lat="45.66713" lon="5.68993">
        <ele>217.7</ele>
        <time>2022-09-25T13:24:58Z</time>
      </trkpt>
      <trkpt lat="45.66716" lon="5.68998">
        <ele>217.7</ele>
        <time>2022-09-25T13:24:59Z</time>
      </trkpt>
      <trkpt lat="45.66719" lon="5.69004">
        <ele>217.7</ele>
        <time>2022-09-25T13:25:00Z</time>
      </trkpt>
      <trkpt lat="45.66721" lon="5.69009">
        <ele>217.7</ele>
        <time>2022-09-25T13:25:01Z</time>
      </trkpt>
      <trkpt lat="45.66724" lon="5.69015">
        <ele>217.7</ele>
        <time>2022-09-25T13:25:02Z</time>
      </trkpt>
      <trkpt lat="45.66727" lon="5.69021">
        <ele>217.8</ele>
        <time>2022-09-25T13:25:03Z</time>
      </trkpt>
      <trkpt lat="45.6673" lon="5.69026">
        <ele>217.8</ele>
        <time>2022-09-25T13:25:04Z</time>
      </trkpt>
      <trkpt lat="45.66733" lon="5.69033">
        <ele>217.8</ele>
        <time>2022-09-25T13:25:05Z</time>
      </trkpt>
      <trkpt lat="45.66736" lon="5.69038">
        <ele>217.8</ele>
        <time>2022-09-25T13:25:06Z</time>
      </trkpt>
      <trkpt lat="45.66739" lon="5.69043">
        <ele>217.8</ele>
        <time>2022-09-25T13:25:07Z</time>
      </trkpt>
      <trkpt lat="45.66742" lon="5.69049">
        <ele>217.7</ele>
        <time>2022-09-25T13:25:08Z</time>
      </trkpt>
      <trkpt lat="45.66745" lon="5.69055">
        <ele>217.7</ele>
        <time>2022-09-25T13:25:09Z</time>
      </trkpt>
      <trkpt lat="45.66748" lon="5.6906">
        <ele>217.7</ele>
        <time>2022-09-25T13:25:10Z</time>
      </trkpt>
      <trkpt lat="45.66751" lon="5.69066">
        <ele>217.7</ele>
        <time>2022-09-25T13:25:11Z</time>
      </trkpt>
      <trkpt lat="45.66754" lon="5.69072">
        <ele>217.7</ele>
        <time>2022-09-25T13:25:12Z</time>
      </trkpt>
      <trkpt lat="45.66757" lon="5.69078">
        <ele>217.7</ele>
        <time>2022-09-25T13:25:13Z</time>
      </trkpt>
      <trkpt lat="45.6676" lon="5.69083">
        <ele>217.7</ele>
        <time>2022-09-25T13:25:14Z</time>
      </trkpt>
      <trkpt lat="45.66763" lon="5.69089">
        <ele>217.7</ele>
        <time>2022-09-25T13:25:15Z</time>
      </trkpt>
      <trkpt lat="45.66765" lon="5.69095">
        <ele>217.7</ele>
        <time>2022-09-25T13:25:16Z</time>
      </trkpt>
      <trkpt lat="45.66768" lon="5.69101">
        <ele>217.7</ele>
        <time>2022-09-25T13:25:17Z</time>
      </trkpt>
      <trkpt lat="45.66772" lon="5.69107">
        <ele>217.6</ele>
        <time>2022-09-25T13:25:18Z</time>
      </trkpt>
      <trkpt lat="45.66775" lon="5.69113">
        <ele>217.6</ele>
        <time>2022-09-25T13:25:19Z</time>
      </trkpt>
      <trkpt lat="45.66778" lon="5.69119">
        <ele>217.6</ele>
        <time>2022-09-25T13:25:20Z</time>
      </trkpt>
      <trkpt lat="45.66781" lon="5.69125">
        <ele>217.6</ele>
        <time>2022-09-25T13:25:21Z</time>
      </trkpt>
      <trkpt lat="45.66784" lon="5.69131">
        <ele>217.6</ele>
        <time>2022-09-25T13:25:22Z</time>
      </trkpt>
      <trkpt lat="45.66787" lon="5.69137">
        <ele>217.6</ele>
        <time>2022-09-25T13:25:23Z</time>
      </trkpt>
      <trkpt lat="45.6679" lon="5.69143">
        <ele>217.6</ele>
        <time>2022-09-25T13:25:24Z</time>
      </trkpt>
      <trkpt lat="45.66793" lon="5.69149">
        <ele>217.6</ele>
        <time>2022-09-25T13:25:25Z</time>
      </trkpt>
      <trkpt lat="45.66796" lon="5.69155">
        <ele>217.6</ele>
        <time>2022-09-25T13:25:26Z</time>
      </trkpt>
      <trkpt lat="45.66799" lon="5.69161">
        <ele>217.6</ele>
        <time>2022-09-25T13:25:27Z</time>
      </trkpt>
      <trkpt lat="45.66802" lon="5.69167">
        <ele>217.6</ele>
        <time>2022-09-25T13:25:28Z</time>
      </trkpt>
      <trkpt lat="45.66805" lon="5.69173">
        <ele>217.6</ele>
        <time>2022-09-25T13:25:29Z</time>
      </trkpt>
      <trkpt lat="45.66808" lon="5.69179">
        <ele>217.6</ele>
        <time>2022-09-25T13:25:30Z</time>
      </trkpt>
      <trkpt lat="45.66811" lon="5.69185">
        <ele>217.6</ele>
        <time>2022-09-25T13:25:31Z</time>
      </trkpt>
      <trkpt lat="45.66814" lon="5.69191">
        <ele>217.6</ele>
        <time>2022-09-25T13:25:32Z</time>
      </trkpt>
      <trkpt lat="45.66817" lon="5.69197">
        <ele>217.6</ele>
        <time>2022-09-25T13:25:33Z</time>
      </trkpt>
      <trkpt lat="45.6682" lon="5.69203">
        <ele>217.6</ele>
        <time>2022-09-25T13:25:34Z</time>
      </trkpt>
      <trkpt lat="45.66823" lon="5.69208">
        <ele>217.7</ele>
        <time>2022-09-25T13:25:35Z</time>
      </trkpt>
      <trkpt lat="45.66826" lon="5.69214">
        <ele>217.7</ele>
        <time>2022-09-25T13:25:36Z</time>
      </trkpt>
      <trkpt lat="45.66829" lon="5.6922">
        <ele>217.7</ele>
        <time>2022-09-25T13:25:37Z</time>
      </trkpt>
      <trkpt lat="45.66832" lon="5.69226">
        <ele>217.8</ele>
        <time>2022-09-25T13:25:38Z</time>
      </trkpt>
      <trkpt lat="45.66835" lon="5.69232">
        <ele>217.8</ele>
        <time>2022-09-25T13:25:39Z</time>
      </trkpt>
      <trkpt lat="45.66838" lon="5.69238">
        <ele>217.8</ele>
        <time>2022-09-25T13:25:40Z</time>
      </trkpt>
      <trkpt lat="45.66841" lon="5.69243">
        <ele>217.8</ele>
        <time>2022-09-25T13:25:41Z</time>
      </trkpt>
      <trkpt lat="45.66844" lon="5.69249">
        <ele>217.9</ele>
        <time>2022-09-25T13:25:42Z</time>
      </trkpt>
      <trkpt lat="45.66846" lon="5.69254">
        <ele>217.9</ele>
        <time>2022-09-25T13:25:43Z</time>
      </trkpt>
      <trkpt lat="45.6685" lon="5.6926">
        <ele>217.9</ele>
        <time>2022-09-25T13:25:44Z</time>
      </trkpt>
      <trkpt lat="45.66852" lon="5.69266">
        <ele>217.9</ele>
        <time>2022-09-25T13:25:45Z</time>
      </trkpt>
      <trkpt lat="45.66856" lon="5.69271">
        <ele>218</ele>
        <time>2022-09-25T13:25:46Z</time>
      </trkpt>
      <trkpt lat="45.66858" lon="5.69277">
        <ele>218</ele>
        <time>2022-09-25T13:25:47Z</time>
      </trkpt>
      <trkpt lat="45.66861" lon="5.69283">
        <ele>218</ele>
        <time>2022-09-25T13:25:48Z</time>
      </trkpt>
      <trkpt lat="45.66864" lon="5.69289">
        <ele>218</ele>
        <time>2022-09-25T13:25:49Z</time>
      </trkpt>
      <trkpt lat="45.66867" lon="5.69294">
        <ele>218</ele>
        <time>2022-09-25T13:25:50Z</time>
      </trkpt>
      <trkpt lat="45.6687" lon="5.693">
        <ele>218</ele>
        <time>2022-09-25T13:25:51Z</time>
      </trkpt>
      <trkpt lat="45.66873" lon="5.69306">
        <ele>218.1</ele>
        <time>2022-09-25T13:25:52Z</time>
      </trkpt>
      <trkpt lat="45.66876" lon="5.69312">
        <ele>218.1</ele>
        <time>2022-09-25T13:25:53Z</time>
      </trkpt>
      <trkpt lat="45.66879" lon="5.69318">
        <ele>218.1</ele>
        <time>2022-09-25T13:25:54Z</time>
      </trkpt>
      <trkpt lat="45.66881" lon="5.69324">
        <ele>218.1</ele>
        <time>2022-09-25T13:25:55Z</time>
      </trkpt>
      <trkpt lat="45.66884" lon="5.6933">
        <ele>218.1</ele>
        <time>2022-09-25T13:25:56Z</time>
      </trkpt>
      <trkpt lat="45.66887" lon="5.69336">
        <ele>218.1</ele>
        <time>2022-09-25T13:25:57Z</time>
      </trkpt>
      <trkpt lat="45.6689" lon="5.69342">
        <ele>218.1</ele>
        <time>2022-09-25T13:25:58Z</time>
      </trkpt>
      <trkpt lat="45.66893" lon="5.69347">
        <ele>218.1</ele>
        <time>2022-09-25T13:25:59Z</time>
      </trkpt>
      <trkpt lat="45.66896" lon="5.69354">
        <ele>218.1</ele>
        <time>2022-09-25T13:26:00Z</time>
      </trkpt>
      <trkpt lat="45.66899" lon="5.6936">
        <ele>218.1</ele>
        <time>2022-09-25T13:26:01Z</time>
      </trkpt>
      <trkpt lat="45.66902" lon="5.69366">
        <ele>218</ele>
        <time>2022-09-25T13:26:02Z</time>
      </trkpt>
      <trkpt lat="45.66906" lon="5.69372">
        <ele>218</ele>
        <time>2022-09-25T13:26:03Z</time>
      </trkpt>
      <trkpt lat="45.66909" lon="5.69377">
        <ele>218</ele>
        <time>2022-09-25T13:26:04Z</time>
      </trkpt>
      <trkpt lat="45.66912" lon="5.69384">
        <ele>218</ele>
        <time>2022-09-25T13:26:05Z</time>
      </trkpt>
      <trkpt lat="45.66915" lon="5.69389">
        <ele>217.9</ele>
        <time>2022-09-25T13:26:06Z</time>
      </trkpt>
      <trkpt lat="45.66919" lon="5.69396">
        <ele>217.9</ele>
        <time>2022-09-25T13:26:07Z</time>
      </trkpt>
      <trkpt lat="45.66922" lon="5.69401">
        <ele>217.9</ele>
        <time>2022-09-25T13:26:08Z</time>
      </trkpt>
      <trkpt lat="45.66925" lon="5.69407">
        <ele>217.9</ele>
        <time>2022-09-25T13:26:09Z</time>
      </trkpt>
      <trkpt lat="45.66929" lon="5.69414">
        <ele>218</ele>
        <time>2022-09-25T13:26:10Z</time>
      </trkpt>
      <trkpt lat="45.66932" lon="5.69419">
        <ele>218</ele>
        <time>2022-09-25T13:26:11Z</time>
      </trkpt>
      <trkpt lat="45.66935" lon="5.69425">
        <ele>218</ele>
        <time>2022-09-25T13:26:12Z</time>
      </trkpt>
      <trkpt lat="45.66939" lon="5.6943">
        <ele>218</ele>
        <time>2022-09-25T13:26:13Z</time>
      </trkpt>
      <trkpt lat="45.66942" lon="5.69437">
        <ele>218.1</ele>
        <time>2022-09-25T13:26:14Z</time>
      </trkpt>
      <trkpt lat="45.66945" lon="5.69442">
        <ele>218.1</ele>
        <time>2022-09-25T13:26:15Z</time>
      </trkpt>
      <trkpt lat="45.66948" lon="5.69447">
        <ele>218.1</ele>
        <time>2022-09-25T13:26:16Z</time>
      </trkpt>
      <trkpt lat="45.66951" lon="5.69455">
        <ele>218.1</ele>
        <time>2022-09-25T13:26:17Z</time>
      </trkpt>
      <trkpt lat="45.66953" lon="5.69459">
        <ele>218.1</ele>
        <time>2022-09-25T13:26:18Z</time>
      </trkpt>
      <trkpt lat="45.66956" lon="5.69467">
        <ele>218.1</ele>
        <time>2022-09-25T13:26:19Z</time>
      </trkpt>
      <trkpt lat="45.66959" lon="5.69474">
        <ele>218</ele>
        <time>2022-09-25T13:26:20Z</time>
      </trkpt>
      <trkpt lat="45.66962" lon="5.6948">
        <ele>218</ele>
        <time>2022-09-25T13:26:21Z</time>
      </trkpt>
      <trkpt lat="45.66966" lon="5.69485">
        <ele>218</ele>
        <time>2022-09-25T13:26:22Z</time>
      </trkpt>
      <trkpt lat="45.66968" lon="5.69492">
        <ele>218</ele>
        <time>2022-09-25T13:26:23Z</time>
      </trkpt>
      <trkpt lat="45.66972" lon="5.69499">
        <ele>217.9</ele>
        <time>2022-09-25T13:26:24Z</time>
      </trkpt>
      <trkpt lat="45.66975" lon="5.69504">
        <ele>217.9</ele>
        <time>2022-09-25T13:26:25Z</time>
      </trkpt>
      <trkpt lat="45.6698" lon="5.6951">
        <ele>217.9</ele>
        <time>2022-09-25T13:26:26Z</time>
      </trkpt>
      <trkpt lat="45.66983" lon="5.69516">
        <ele>217.9</ele>
        <time>2022-09-25T13:26:27Z</time>
      </trkpt>
      <trkpt lat="45.66986" lon="5.69522">
        <ele>217.9</ele>
        <time>2022-09-25T13:26:28Z</time>
      </trkpt>
      <trkpt lat="45.6699" lon="5.69528">
        <ele>217.8</ele>
        <time>2022-09-25T13:26:29Z</time>
      </trkpt>
      <trkpt lat="45.66993" lon="5.69534">
        <ele>217.8</ele>
        <time>2022-09-25T13:26:30Z</time>
      </trkpt>
      <trkpt lat="45.66996" lon="5.6954">
        <ele>217.8</ele>
        <time>2022-09-25T13:26:31Z</time>
      </trkpt>
      <trkpt lat="45.67" lon="5.69546">
        <ele>217.9</ele>
        <time>2022-09-25T13:26:32Z</time>
      </trkpt>
      <trkpt lat="45.67003" lon="5.69552">
        <ele>217.9</ele>
        <time>2022-09-25T13:26:33Z</time>
      </trkpt>
      <trkpt lat="45.67007" lon="5.69557">
        <ele>217.9</ele>
        <time>2022-09-25T13:26:34Z</time>
      </trkpt>
      <trkpt lat="45.6701" lon="5.69563">
        <ele>217.9</ele>
        <time>2022-09-25T13:26:35Z</time>
      </trkpt>
      <trkpt lat="45.67014" lon="5.69569">
        <ele>217.9</ele>
        <time>2022-09-25T13:26:36Z</time>
      </trkpt>
      <trkpt lat="45.67017" lon="5.69574">
        <ele>218</ele>
        <time>2022-09-25T13:26:37Z</time>
      </trkpt>
      <trkpt lat="45.6702" lon="5.6958">
        <ele>218</ele>
        <time>2022-09-25T13:26:38Z</time>
      </trkpt>
      <trkpt lat="45.67023" lon="5.69585">
        <ele>218</ele>
        <time>2022-09-25T13:26:39Z</time>
      </trkpt>
      <trkpt lat="45.67027" lon="5.69591">
        <ele>218</ele>
        <time>2022-09-25T13:26:40Z</time>
      </trkpt>
      <trkpt lat="45.6703" lon="5.69596">
        <ele>218</ele>
        <time>2022-09-25T13:26:41Z</time>
      </trkpt>
      <trkpt lat="45.67034" lon="5.69601">
        <ele>218.1</ele>
        <time>2022-09-25T13:26:42Z</time>
      </trkpt>
      <trkpt lat="45.67037" lon="5.69606">
        <ele>218.1</ele>
        <time>2022-09-25T13:26:43Z</time>
      </trkpt>
      <trkpt lat="45.67041" lon="5.69612">
        <ele>218.1</ele>
        <time>2022-09-25T13:26:44Z</time>
      </trkpt>
      <trkpt lat="45.67044" lon="5.69617">
        <ele>218.1</ele>
        <time>2022-09-25T13:26:45Z</time>
      </trkpt>
      <trkpt lat="45.67047" lon="5.69622">
        <ele>218.1</ele>
        <time>2022-09-25T13:26:46Z</time>
      </trkpt>
      <trkpt lat="45.6705" lon="5.69629">
        <ele>218.1</ele>
        <time>2022-09-25T13:26:47Z</time>
      </trkpt>
      <trkpt lat="45.67055" lon="5.69632">
        <ele>218.1</ele>
        <time>2022-09-25T13:26:48Z</time>
      </trkpt>
      <trkpt lat="45.67058" lon="5.69638">
        <ele>218.1</ele>
        <time>2022-09-25T13:26:49Z</time>
      </trkpt>
      <trkpt lat="45.67062" lon="5.69643">
        <ele>218.2</ele>
        <time>2022-09-25T13:26:50Z</time>
      </trkpt>
      <trkpt lat="45.67065" lon="5.69648">
        <ele>218.2</ele>
        <time>2022-09-25T13:26:51Z</time>
      </trkpt>
      <trkpt lat="45.67069" lon="5.69653">
        <ele>218.2</ele>
        <time>2022-09-25T13:26:52Z</time>
      </trkpt>
      <trkpt lat="45.67072" lon="5.69658">
        <ele>218.2</ele>
        <time>2022-09-25T13:26:53Z</time>
      </trkpt>
      <trkpt lat="45.67076" lon="5.69663">
        <ele>218.2</ele>
        <time>2022-09-25T13:26:54Z</time>
      </trkpt>
      <trkpt lat="45.6708" lon="5.69669">
        <ele>218.2</ele>
        <time>2022-09-25T13:26:55Z</time>
      </trkpt>
      <trkpt lat="45.67083" lon="5.69674">
        <ele>218.2</ele>
        <time>2022-09-25T13:26:56Z</time>
      </trkpt>
      <trkpt lat="45.67087" lon="5.69679">
        <ele>218.2</ele>
        <time>2022-09-25T13:26:57Z</time>
      </trkpt>
      <trkpt lat="45.6709" lon="5.69684">
        <ele>218.2</ele>
        <time>2022-09-25T13:26:58Z</time>
      </trkpt>
      <trkpt lat="45.67094" lon="5.69689">
        <ele>218.2</ele>
        <time>2022-09-25T13:26:59Z</time>
      </trkpt>
      <trkpt lat="45.67098" lon="5.69694">
        <ele>218.2</ele>
        <time>2022-09-25T13:27:00Z</time>
      </trkpt>
      <trkpt lat="45.67101" lon="5.69699">
        <ele>218.2</ele>
        <time>2022-09-25T13:27:01Z</time>
      </trkpt>
      <trkpt lat="45.67105" lon="5.69704">
        <ele>218.3</ele>
        <time>2022-09-25T13:27:02Z</time>
      </trkpt>
      <trkpt lat="45.67108" lon="5.69709">
        <ele>218.3</ele>
        <time>2022-09-25T13:27:03Z</time>
      </trkpt>
      <trkpt lat="45.67112" lon="5.69714">
        <ele>218.3</ele>
        <time>2022-09-25T13:27:04Z</time>
      </trkpt>
      <trkpt lat="45.67115" lon="5.6972">
        <ele>218.3</ele>
        <time>2022-09-25T13:27:05Z</time>
      </trkpt>
      <trkpt lat="45.67118" lon="5.69724">
        <ele>218.3</ele>
        <time>2022-09-25T13:27:06Z</time>
      </trkpt>
      <trkpt lat="45.67122" lon="5.69729">
        <ele>218.3</ele>
        <time>2022-09-25T13:27:07Z</time>
      </trkpt>
      <trkpt lat="45.67125" lon="5.69734">
        <ele>218.3</ele>
        <time>2022-09-25T13:27:08Z</time>
      </trkpt>
      <trkpt lat="45.67128" lon="5.69739">
        <ele>218.4</ele>
        <time>2022-09-25T13:27:09Z</time>
      </trkpt>
      <trkpt lat="45.67132" lon="5.69744">
        <ele>218.3</ele>
        <time>2022-09-25T13:27:10Z</time>
      </trkpt>
      <trkpt lat="45.67135" lon="5.69749">
        <ele>218.3</ele>
        <time>2022-09-25T13:27:11Z</time>
      </trkpt>
      <trkpt lat="45.67139" lon="5.69754">
        <ele>218.3</ele>
        <time>2022-09-25T13:27:12Z</time>
      </trkpt>
      <trkpt lat="45.67143" lon="5.69758">
        <ele>218.3</ele>
        <time>2022-09-25T13:27:13Z</time>
      </trkpt>
      <trkpt lat="45.67146" lon="5.69763">
        <ele>218.3</ele>
        <time>2022-09-25T13:27:14Z</time>
      </trkpt>
      <trkpt lat="45.6715" lon="5.69768">
        <ele>218.3</ele>
        <time>2022-09-25T13:27:15Z</time>
      </trkpt>
      <trkpt lat="45.67154" lon="5.69772">
        <ele>218.3</ele>
        <time>2022-09-25T13:27:16Z</time>
      </trkpt>
      <trkpt lat="45.67158" lon="5.69777">
        <ele>218.3</ele>
        <time>2022-09-25T13:27:17Z</time>
      </trkpt>
      <trkpt lat="45.67162" lon="5.69782">
        <ele>218.3</ele>
        <time>2022-09-25T13:27:18Z</time>
      </trkpt>
      <trkpt lat="45.67165" lon="5.69787">
        <ele>218.2</ele>
        <time>2022-09-25T13:27:19Z</time>
      </trkpt>
      <trkpt lat="45.67169" lon="5.69791">
        <ele>218.2</ele>
        <time>2022-09-25T13:27:20Z</time>
      </trkpt>
      <trkpt lat="45.67173" lon="5.69796">
        <ele>218.2</ele>
        <time>2022-09-25T13:27:21Z</time>
      </trkpt>
      <trkpt lat="45.67177" lon="5.69801">
        <ele>218.2</ele>
        <time>2022-09-25T13:27:22Z</time>
      </trkpt>
      <trkpt lat="45.67181" lon="5.69806">
        <ele>218.2</ele>
        <time>2022-09-25T13:27:23Z</time>
      </trkpt>
      <trkpt lat="45.67185" lon="5.69811">
        <ele>218.2</ele>
        <time>2022-09-25T13:27:24Z</time>
      </trkpt>
      <trkpt lat="45.67189" lon="5.69815">
        <ele>218.2</ele>
        <time>2022-09-25T13:27:25Z</time>
      </trkpt>
      <trkpt lat="45.67193" lon="5.6982">
        <ele>218.2</ele>
        <time>2022-09-25T13:27:26Z</time>
      </trkpt>
      <trkpt lat="45.67197" lon="5.69825">
        <ele>218.2</ele>
        <time>2022-09-25T13:27:27Z</time>
      </trkpt>
      <trkpt lat="45.67201" lon="5.6983">
        <ele>218.2</ele>
        <time>2022-09-25T13:27:28Z</time>
      </trkpt>
      <trkpt lat="45.67205" lon="5.69834">
        <ele>218.2</ele>
        <time>2022-09-25T13:27:29Z</time>
      </trkpt>
      <trkpt lat="45.67209" lon="5.69839">
        <ele>218.2</ele>
        <time>2022-09-25T13:27:30Z</time>
      </trkpt>
      <trkpt lat="45.67213" lon="5.69844">
        <ele>218.1</ele>
        <time>2022-09-25T13:27:31Z</time>
      </trkpt>
      <trkpt lat="45.67218" lon="5.69849">
        <ele>218.1</ele>
        <time>2022-09-25T13:27:32Z</time>
      </trkpt>
      <trkpt lat="45.67221" lon="5.69854">
        <ele>218.1</ele>
        <time>2022-09-25T13:27:33Z</time>
      </trkpt>
      <trkpt lat="45.67226" lon="5.69858">
        <ele>218.1</ele>
        <time>2022-09-25T13:27:34Z</time>
      </trkpt>
      <trkpt lat="45.6723" lon="5.69863">
        <ele>218.1</ele>
        <time>2022-09-25T13:27:35Z</time>
      </trkpt>
      <trkpt lat="45.67235" lon="5.69868">
        <ele>218.1</ele>
        <time>2022-09-25T13:27:36Z</time>
      </trkpt>
      <trkpt lat="45.67239" lon="5.69873">
        <ele>218.1</ele>
        <time>2022-09-25T13:27:37Z</time>
      </trkpt>
      <trkpt lat="45.67243" lon="5.69878">
        <ele>218.1</ele>
        <time>2022-09-25T13:27:38Z</time>
      </trkpt>
      <trkpt lat="45.67247" lon="5.69883">
        <ele>218.1</ele>
        <time>2022-09-25T13:27:39Z</time>
      </trkpt>
      <trkpt lat="45.67252" lon="5.69888">
        <ele>218.1</ele>
        <time>2022-09-25T13:27:40Z</time>
      </trkpt>
      <trkpt lat="45.67256" lon="5.69891">
        <ele>218.1</ele>
        <time>2022-09-25T13:27:41Z</time>
      </trkpt>
      <trkpt lat="45.6726" lon="5.69896">
        <ele>218.1</ele>
        <time>2022-09-25T13:27:42Z</time>
      </trkpt>
      <trkpt lat="45.67264" lon="5.69901">
        <ele>218.1</ele>
        <time>2022-09-25T13:27:43Z</time>
      </trkpt>
      <trkpt lat="45.67269" lon="5.69906">
        <ele>218.1</ele>
        <time>2022-09-25T13:27:44Z</time>
      </trkpt>
      <trkpt lat="45.67273" lon="5.6991">
        <ele>218.1</ele>
        <time>2022-09-25T13:27:45Z</time>
      </trkpt>
      <trkpt lat="45.67277" lon="5.69914">
        <ele>218.1</ele>
        <time>2022-09-25T13:27:46Z</time>
      </trkpt>
      <trkpt lat="45.67281" lon="5.69919">
        <ele>218.1</ele>
        <time>2022-09-25T13:27:47Z</time>
      </trkpt>
      <trkpt lat="45.67285" lon="5.69923">
        <ele>218.1</ele>
        <time>2022-09-25T13:27:48Z</time>
      </trkpt>
      <trkpt lat="45.6729" lon="5.69928">
        <ele>218.1</ele>
        <time>2022-09-25T13:27:49Z</time>
      </trkpt>
      <trkpt lat="45.67294" lon="5.69932">
        <ele>218.1</ele>
        <time>2022-09-25T13:27:50Z</time>
      </trkpt>
      <trkpt lat="45.67298" lon="5.69937">
        <ele>218.1</ele>
        <time>2022-09-25T13:27:51Z</time>
      </trkpt>
      <trkpt lat="45.67302" lon="5.69941">
        <ele>218.1</ele>
        <time>2022-09-25T13:27:52Z</time>
      </trkpt>
      <trkpt lat="45.67307" lon="5.69946">
        <ele>218.1</ele>
        <time>2022-09-25T13:27:53Z</time>
      </trkpt>
      <trkpt lat="45.67311" lon="5.69951">
        <ele>218.1</ele>
        <time>2022-09-25T13:27:54Z</time>
      </trkpt>
      <trkpt lat="45.67315" lon="5.69955">
        <ele>218.1</ele>
        <time>2022-09-25T13:27:55Z</time>
      </trkpt>
      <trkpt lat="45.67319" lon="5.6996">
        <ele>218.1</ele>
        <time>2022-09-25T13:27:56Z</time>
      </trkpt>
      <trkpt lat="45.67324" lon="5.69965">
        <ele>218.1</ele>
        <time>2022-09-25T13:27:57Z</time>
      </trkpt>
      <trkpt lat="45.67328" lon="5.69969">
        <ele>218.1</ele>
        <time>2022-09-25T13:27:58Z</time>
      </trkpt>
      <trkpt lat="45.67332" lon="5.69974">
        <ele>218.2</ele>
        <time>2022-09-25T13:27:59Z</time>
      </trkpt>
      <trkpt lat="45.67336" lon="5.69978">
        <ele>218.2</ele>
        <time>2022-09-25T13:28:00Z</time>
      </trkpt>
      <trkpt lat="45.6734" lon="5.69983">
        <ele>218.3</ele>
        <time>2022-09-25T13:28:01Z</time>
      </trkpt>
      <trkpt lat="45.67344" lon="5.69987">
        <ele>218.4</ele>
        <time>2022-09-25T13:28:02Z</time>
      </trkpt>
      <trkpt lat="45.67348" lon="5.69992">
        <ele>218.5</ele>
        <time>2022-09-25T13:28:03Z</time>
      </trkpt>
      <trkpt lat="45.67352" lon="5.69995">
        <ele>218.6</ele>
        <time>2022-09-25T13:28:04Z</time>
      </trkpt>
      <trkpt lat="45.67356" lon="5.69999">
        <ele>218.8</ele>
        <time>2022-09-25T13:28:05Z</time>
      </trkpt>
      <trkpt lat="45.6736" lon="5.70003">
        <ele>218.9</ele>
        <time>2022-09-25T13:28:06Z</time>
      </trkpt>
      <trkpt lat="45.67362" lon="5.70007">
        <ele>219</ele>
        <time>2022-09-25T13:28:07Z</time>
      </trkpt>
      <trkpt lat="45.67366" lon="5.7001">
        <ele>219.1</ele>
        <time>2022-09-25T13:28:08Z</time>
      </trkpt>
      <trkpt lat="45.67367" lon="5.70011">
        <ele>219.1</ele>
        <time>2022-09-25T13:28:09Z</time>
      </trkpt>
      <trkpt lat="45.6737" lon="5.70011">
        <ele>219.2</ele>
        <time>2022-09-25T13:28:10Z</time>
      </trkpt>
      <trkpt lat="45.67372" lon="5.7001">
        <ele>219.2</ele>
        <time>2022-09-25T13:28:11Z</time>
      </trkpt>
      <trkpt lat="45.67374" lon="5.70007">
        <ele>219.2</ele>
        <time>2022-09-25T13:28:12Z</time>
      </trkpt>
      <trkpt lat="45.67376" lon="5.70004">
        <ele>219.3</ele>
        <time>2022-09-25T13:28:13Z</time>
      </trkpt>
      <trkpt lat="45.67377" lon="5.70001">
        <ele>219.3</ele>
        <time>2022-09-25T13:28:14Z</time>
      </trkpt>
      <trkpt lat="45.67379" lon="5.69997">
        <ele>219.3</ele>
        <time>2022-09-25T13:28:15Z</time>
      </trkpt>
      <trkpt lat="45.6738" lon="5.69994">
        <ele>219.3</ele>
        <time>2022-09-25T13:28:16Z</time>
      </trkpt>
      <trkpt lat="45.67382" lon="5.69991">
        <ele>219.4</ele>
        <time>2022-09-25T13:28:17Z</time>
      </trkpt>
      <trkpt lat="45.67384" lon="5.69989">
        <ele>219.4</ele>
        <time>2022-09-25T13:28:18Z</time>
      </trkpt>
      <trkpt lat="45.67386" lon="5.69984">
        <ele>219.4</ele>
        <time>2022-09-25T13:28:19Z</time>
      </trkpt>
      <trkpt lat="45.67387" lon="5.69982">
        <ele>219.4</ele>
        <time>2022-09-25T13:28:20Z</time>
      </trkpt>
      <trkpt lat="45.67387" lon="5.69977">
        <ele>219.5</ele>
        <time>2022-09-25T13:28:21Z</time>
      </trkpt>
      <trkpt lat="45.67387" lon="5.69976">
        <ele>219.5</ele>
        <time>2022-09-25T13:28:22Z</time>
      </trkpt>
      <trkpt lat="45.67385" lon="5.69972">
        <ele>219.5</ele>
        <time>2022-09-25T13:28:23Z</time>
      </trkpt>
      <trkpt lat="45.67384" lon="5.69969">
        <ele>219.5</ele>
        <time>2022-09-25T13:28:24Z</time>
      </trkpt>
      <trkpt lat="45.67384" lon="5.69969">
        <ele>219.5</ele>
        <time>2022-09-25T13:28:25Z</time>
      </trkpt>
      <trkpt lat="45.67384" lon="5.69969">
        <ele>219.5</ele>
        <time>2022-09-25T13:28:26Z</time>
      </trkpt>
      <trkpt lat="45.67384" lon="5.69969">
        <ele>219.5</ele>
        <time>2022-09-25T13:28:27Z</time>
      </trkpt>
      <trkpt lat="45.67384" lon="5.69968">
        <ele>219.5</ele>
        <time>2022-09-25T13:28:28Z</time>
      </trkpt>
      <trkpt lat="45.67384" lon="5.69968">
        <ele>219.5</ele>
        <time>2022-09-25T13:28:29Z</time>
      </trkpt>
      <trkpt lat="45.67384" lon="5.69968">
        <ele>219.5</ele>
        <time>2022-09-25T13:28:30Z</time>
      </trkpt>
      <trkpt lat="45.67384" lon="5.69968">
        <ele>219.5</ele>
        <time>2022-09-25T13:28:31Z</time>
      </trkpt>
      <trkpt lat="45.67383" lon="5.69968">
        <ele>219.5</ele>
        <time>2022-09-25T13:28:32Z</time>
      </trkpt>
      <trkpt lat="45.67383" lon="5.69968">
        <ele>219.5</ele>
        <time>2022-09-25T13:28:33Z</time>
      </trkpt>
      <trkpt lat="45.67383" lon="5.69968">
        <ele>219.5</ele>
        <time>2022-09-25T13:28:34Z</time>
      </trkpt>
      <trkpt lat="45.67383" lon="5.69968">
        <ele>219.5</ele>
        <time>2022-09-25T13:28:35Z</time>
      </trkpt>
      <trkpt lat="45.67383" lon="5.69968">
        <ele>219.5</ele>
        <time>2022-09-25T13:28:36Z</time>
      </trkpt>
      <trkpt lat="45.67382" lon="5.69967">
        <ele>219.5</ele>
        <time>2022-09-25T13:28:37Z</time>
      </trkpt>
      <trkpt lat="45.67381" lon="5.69968">
        <ele>219.5</ele>
        <time>2022-09-25T13:28:38Z</time>
      </trkpt>
      <trkpt lat="45.6738" lon="5.69968">
        <ele>219.5</ele>
        <time>2022-09-25T13:28:39Z</time>
      </trkpt>
      <trkpt lat="45.67379" lon="5.69968">
        <ele>219.5</ele>
        <time>2022-09-25T13:28:40Z</time>
      </trkpt>
      <trkpt lat="45.6738" lon="5.69968">
        <ele>219.5</ele>
        <time>2022-09-25T13:28:41Z</time>
      </trkpt>
      <trkpt lat="45.67381" lon="5.69969">
        <ele>219.5</ele>
        <time>2022-09-25T13:28:42Z</time>
      </trkpt>
      <trkpt lat="45.67382" lon="5.69969">
        <ele>219.5</ele>
        <time>2022-09-25T13:28:43Z</time>
      </trkpt>
      <trkpt lat="45.67383" lon="5.6997">
        <ele>219.5</ele>
        <time>2022-09-25T13:28:44Z</time>
      </trkpt>
      <trkpt lat="45.67383" lon="5.6997">
        <ele>219.5</ele>
        <time>2022-09-25T13:28:45Z</time>
      </trkpt>
      <trkpt lat="45.67384" lon="5.69971">
        <ele>219.5</ele>
        <time>2022-09-25T13:28:46Z</time>
      </trkpt>
      <trkpt lat="45.67385" lon="5.69971">
        <ele>219.5</ele>
        <time>2022-09-25T13:28:47Z</time>
      </trkpt>
      <trkpt lat="45.67386" lon="5.69972">
        <ele>219.5</ele>
        <time>2022-09-25T13:28:48Z</time>
      </trkpt>
      <trkpt lat="45.67387" lon="5.69972">
        <ele>219.5</ele>
        <time>2022-09-25T13:28:49Z</time>
      </trkpt>
      <trkpt lat="45.67388" lon="5.69973">
        <ele>219.5</ele>
        <time>2022-09-25T13:28:50Z</time>
      </trkpt>
      <trkpt lat="45.67388" lon="5.69973">
        <ele>219.5</ele>
        <time>2022-09-25T13:45:01Z</time>
      </trkpt>
      <trkpt lat="45.67389" lon="5.69973">
        <ele>219.5</ele>
        <time>2022-09-25T13:45:02Z</time>
      </trkpt>
      <trkpt lat="45.6739" lon="5.69974">
        <ele>219.5</ele>
        <time>2022-09-25T13:45:03Z</time>
      </trkpt>
      <trkpt lat="45.67391" lon="5.69974">
        <ele>219.5</ele>
        <time>2022-09-25T13:45:04Z</time>
      </trkpt>
      <trkpt lat="45.67392" lon="5.69974">
        <ele>219.5</ele>
        <time>2022-09-25T13:45:05Z</time>
      </trkpt>
      <trkpt lat="45.67392" lon="5.69974">
        <ele>219.5</ele>
        <time>2022-09-25T13:45:06Z</time>
      </trkpt>
      <trkpt lat="45.67393" lon="5.69973">
        <ele>219.5</ele>
        <time>2022-09-25T13:45:07Z</time>
      </trkpt>
      <trkpt lat="45.67395" lon="5.69972">
        <ele>219.5</ele>
        <time>2022-09-25T13:45:08Z</time>
      </trkpt>
      <trkpt lat="45.67396" lon="5.69971">
        <ele>219.5</ele>
        <time>2022-09-25T13:45:09Z</time>
      </trkpt>
      <trkpt lat="45.67397" lon="5.69971">
        <ele>219.4</ele>
        <time>2022-09-25T13:45:10Z</time>
      </trkpt>
      <trkpt lat="45.67397" lon="5.69972">
        <ele>219.4</ele>
        <time>2022-09-25T13:45:11Z</time>
      </trkpt>
      <trkpt lat="45.67397" lon="5.69972">
        <ele>219.4</ele>
        <time>2022-09-25T13:45:12Z</time>
      </trkpt>
      <trkpt lat="45.67397" lon="5.69972">
        <ele>219.4</ele>
        <time>2022-09-25T13:45:13Z</time>
      </trkpt>
      <trkpt lat="45.67397" lon="5.69972">
        <ele>219.4</ele>
        <time>2022-09-25T13:45:14Z</time>
      </trkpt>
      <trkpt lat="45.67397" lon="5.69972">
        <ele>219.4</ele>
        <time>2022-09-25T13:45:15Z</time>
      </trkpt>
      <trkpt lat="45.67398" lon="5.69972">
        <ele>219.4</ele>
        <time>2022-09-25T13:45:16Z</time>
      </trkpt>
      <trkpt lat="45.67399" lon="5.69972">
        <ele>219.4</ele>
        <time>2022-09-25T13:45:17Z</time>
      </trkpt>
      <trkpt lat="45.674" lon="5.69972">
        <ele>219.4</ele>
        <time>2022-09-25T13:45:18Z</time>
      </trkpt>
      <trkpt lat="45.67401" lon="5.69973">
        <ele>219.4</ele>
        <time>2022-09-25T13:45:19Z</time>
      </trkpt>
      <trkpt lat="45.67403" lon="5.69974">
        <ele>219.4</ele>
        <time>2022-09-25T13:45:20Z</time>
      </trkpt>
      <trkpt lat="45.67404" lon="5.69976">
        <ele>219.3</ele>
        <time>2022-09-25T13:45:21Z</time>
      </trkpt>
      <trkpt lat="45.67404" lon="5.69978">
        <ele>219.3</ele>
        <time>2022-09-25T13:45:22Z</time>
      </trkpt>
      <trkpt lat="45.67406" lon="5.69982">
        <ele>219.3</ele>
        <time>2022-09-25T13:45:23Z</time>
      </trkpt>
      <trkpt lat="45.67408" lon="5.69986">
        <ele>219.3</ele>
        <time>2022-09-25T13:45:24Z</time>
      </trkpt>
      <trkpt lat="45.67409" lon="5.69987">
        <ele>219.2</ele>
        <time>2022-09-25T13:45:25Z</time>
      </trkpt>
      <trkpt lat="45.67412" lon="5.6999">
        <ele>219.2</ele>
        <time>2022-09-25T13:45:26Z</time>
      </trkpt>
      <trkpt lat="45.67413" lon="5.69991">
        <ele>219.2</ele>
        <time>2022-09-25T13:45:27Z</time>
      </trkpt>
      <trkpt lat="45.67416" lon="5.69994">
        <ele>219.2</ele>
        <time>2022-09-25T13:45:28Z</time>
      </trkpt>
      <trkpt lat="45.67417" lon="5.69995">
        <ele>219.2</ele>
        <time>2022-09-25T13:45:29Z</time>
      </trkpt>
      <trkpt lat="45.6742" lon="5.69998">
        <ele>219.2</ele>
        <time>2022-09-25T13:45:30Z</time>
      </trkpt>
      <trkpt lat="45.67422" lon="5.70001">
        <ele>219.1</ele>
        <time>2022-09-25T13:45:31Z</time>
      </trkpt>
      <trkpt lat="45.67425" lon="5.70004">
        <ele>219.1</ele>
        <time>2022-09-25T13:45:32Z</time>
      </trkpt>
      <trkpt lat="45.67427" lon="5.70006">
        <ele>219.1</ele>
        <time>2022-09-25T13:45:33Z</time>
      </trkpt>
      <trkpt lat="45.6743" lon="5.70009">
        <ele>219.1</ele>
        <time>2022-09-25T13:45:34Z</time>
      </trkpt>
      <trkpt lat="45.67433" lon="5.70013">
        <ele>219.1</ele>
        <time>2022-09-25T13:45:35Z</time>
      </trkpt>
      <trkpt lat="45.67434" lon="5.70015">
        <ele>219.1</ele>
        <time>2022-09-25T13:45:36Z</time>
      </trkpt>
      <trkpt lat="45.67436" lon="5.70017">
        <ele>219.1</ele>
        <time>2022-09-25T13:45:37Z</time>
      </trkpt>
      <trkpt lat="45.67439" lon="5.7002">
        <ele>219.1</ele>
        <time>2022-09-25T13:45:38Z</time>
      </trkpt>
      <trkpt lat="45.67441" lon="5.70023">
        <ele>219.1</ele>
        <time>2022-09-25T13:45:39Z</time>
      </trkpt>
      <trkpt lat="45.67443" lon="5.70026">
        <ele>219.1</ele>
        <time>2022-09-25T13:45:40Z</time>
      </trkpt>
      <trkpt lat="45.67445" lon="5.70029">
        <ele>219.1</ele>
        <time>2022-09-25T13:45:41Z</time>
      </trkpt>
      <trkpt lat="45.67448" lon="5.70032">
        <ele>219.1</ele>
        <time>2022-09-25T13:45:42Z</time>
      </trkpt>
      <trkpt lat="45.6745" lon="5.70035">
        <ele>219.1</ele>
        <time>2022-09-25T13:45:43Z</time>
      </trkpt>
      <trkpt lat="45.67452" lon="5.70038">
        <ele>219.1</ele>
        <time>2022-09-25T13:45:44Z</time>
      </trkpt>
      <trkpt lat="45.67454" lon="5.70041">
        <ele>219.1</ele>
        <time>2022-09-25T13:45:45Z</time>
      </trkpt>
      <trkpt lat="45.67458" lon="5.70045">
        <ele>219.1</ele>
        <time>2022-09-25T13:45:46Z</time>
      </trkpt>
      <trkpt lat="45.67459" lon="5.70046">
        <ele>219.1</ele>
        <time>2022-09-25T13:45:47Z</time>
      </trkpt>
      <trkpt lat="45.67461" lon="5.70049">
        <ele>219.1</ele>
        <time>2022-09-25T13:45:48Z</time>
      </trkpt>
      <trkpt lat="45.67463" lon="5.70051">
        <ele>219.1</ele>
        <time>2022-09-25T13:45:49Z</time>
      </trkpt>
      <trkpt lat="45.67466" lon="5.70054">
        <ele>219.1</ele>
        <time>2022-09-25T13:45:50Z</time>
      </trkpt>
      <trkpt lat="45.67468" lon="5.70057">
        <ele>219.1</ele>
        <time>2022-09-25T13:45:51Z</time>
      </trkpt>
      <trkpt lat="45.67469" lon="5.70059">
        <ele>219.1</ele>
        <time>2022-09-25T13:45:52Z</time>
      </trkpt>
      <trkpt lat="45.67472" lon="5.70062">
        <ele>219.1</ele>
        <time>2022-09-25T13:45:53Z</time>
      </trkpt>
      <trkpt lat="45.67473" lon="5.70064">
        <ele>219.1</ele>
        <time>2022-09-25T13:45:54Z</time>
      </trkpt>
      <trkpt lat="45.67476" lon="5.70068">
        <ele>219.2</ele>
        <time>2022-09-25T13:45:55Z</time>
      </trkpt>
      <trkpt lat="45.67477" lon="5.70069">
        <ele>219.2</ele>
        <time>2022-09-25T13:45:56Z</time>
      </trkpt>
      <trkpt lat="45.67479" lon="5.70072">
        <ele>219.2</ele>
        <time>2022-09-25T13:45:57Z</time>
      </trkpt>
      <trkpt lat="45.67482" lon="5.70075">
        <ele>219.2</ele>
        <time>2022-09-25T13:45:58Z</time>
      </trkpt>
      <trkpt lat="45.67483" lon="5.70077">
        <ele>219.2</ele>
        <time>2022-09-25T13:45:59Z</time>
      </trkpt>
      <trkpt lat="45.67485" lon="5.70079">
        <ele>219.2</ele>
        <time>2022-09-25T13:46:00Z</time>
      </trkpt>
      <trkpt lat="45.67488" lon="5.70083">
        <ele>219.2</ele>
        <time>2022-09-25T13:46:01Z</time>
      </trkpt>
      <trkpt lat="45.67489" lon="5.70084">
        <ele>219.2</ele>
        <time>2022-09-25T13:46:02Z</time>
      </trkpt>
      <trkpt lat="45.67491" lon="5.70087">
        <ele>219.2</ele>
        <time>2022-09-25T13:46:03Z</time>
      </trkpt>
      <trkpt lat="45.67493" lon="5.7009">
        <ele>219.2</ele>
        <time>2022-09-25T13:46:04Z</time>
      </trkpt>
      <trkpt lat="45.67496" lon="5.70094">
        <ele>219.3</ele>
        <time>2022-09-25T13:46:05Z</time>
      </trkpt>
      <trkpt lat="45.67498" lon="5.70095">
        <ele>219.3</ele>
        <time>2022-09-25T13:46:06Z</time>
      </trkpt>
      <trkpt lat="45.675" lon="5.70098">
        <ele>219.3</ele>
        <time>2022-09-25T13:46:07Z</time>
      </trkpt>
      <trkpt lat="45.67503" lon="5.70102">
        <ele>219.3</ele>
        <time>2022-09-25T13:46:08Z</time>
      </trkpt>
      <trkpt lat="45.67505" lon="5.70105">
        <ele>219.3</ele>
        <time>2022-09-25T13:46:09Z</time>
      </trkpt>
      <trkpt lat="45.67508" lon="5.70109">
        <ele>219.3</ele>
        <time>2022-09-25T13:46:10Z</time>
      </trkpt>
      <trkpt lat="45.67511" lon="5.70113">
        <ele>219.3</ele>
        <time>2022-09-25T13:46:11Z</time>
      </trkpt>
      <trkpt lat="45.67513" lon="5.70117">
        <ele>219.3</ele>
        <time>2022-09-25T13:46:12Z</time>
      </trkpt>
      <trkpt lat="45.67517" lon="5.70121">
        <ele>219.3</ele>
        <time>2022-09-25T13:46:13Z</time>
      </trkpt>
      <trkpt lat="45.67519" lon="5.70124">
        <ele>219.3</ele>
        <time>2022-09-25T13:46:14Z</time>
      </trkpt>
      <trkpt lat="45.67523" lon="5.70128">
        <ele>219.3</ele>
        <time>2022-09-25T13:46:15Z</time>
      </trkpt>
      <trkpt lat="45.67525" lon="5.70132">
        <ele>219.3</ele>
        <time>2022-09-25T13:46:16Z</time>
      </trkpt>
      <trkpt lat="45.67528" lon="5.70136">
        <ele>219.3</ele>
        <time>2022-09-25T13:46:17Z</time>
      </trkpt>
      <trkpt lat="45.67531" lon="5.7014">
        <ele>219.3</ele>
        <time>2022-09-25T13:46:18Z</time>
      </trkpt>
      <trkpt lat="45.67535" lon="5.70145">
        <ele>219.4</ele>
        <time>2022-09-25T13:46:19Z</time>
      </trkpt>
      <trkpt lat="45.67538" lon="5.70149">
        <ele>219.4</ele>
        <time>2022-09-25T13:46:20Z</time>
      </trkpt>
      <trkpt lat="45.67541" lon="5.70153">
        <ele>219.4</ele>
        <time>2022-09-25T13:46:21Z</time>
      </trkpt>
      <trkpt lat="45.67544" lon="5.70158">
        <ele>219.4</ele>
        <time>2022-09-25T13:46:22Z</time>
      </trkpt>
      <trkpt lat="45.67547" lon="5.70163">
        <ele>219.4</ele>
        <time>2022-09-25T13:46:23Z</time>
      </trkpt>
      <trkpt lat="45.6755" lon="5.70167">
        <ele>219.4</ele>
        <time>2022-09-25T13:46:24Z</time>
      </trkpt>
      <trkpt lat="45.67554" lon="5.70172">
        <ele>219.5</ele>
        <time>2022-09-25T13:46:25Z</time>
      </trkpt>
      <trkpt lat="45.67557" lon="5.70177">
        <ele>219.5</ele>
        <time>2022-09-25T13:46:26Z</time>
      </trkpt>
      <trkpt lat="45.67561" lon="5.70181">
        <ele>219.5</ele>
        <time>2022-09-25T13:46:27Z</time>
      </trkpt>
      <trkpt lat="45.67564" lon="5.70187">
        <ele>219.5</ele>
        <time>2022-09-25T13:46:28Z</time>
      </trkpt>
      <trkpt lat="45.67567" lon="5.70192">
        <ele>219.5</ele>
        <time>2022-09-25T13:46:29Z</time>
      </trkpt>
      <trkpt lat="45.67571" lon="5.70197">
        <ele>219.5</ele>
        <time>2022-09-25T13:46:30Z</time>
      </trkpt>
      <trkpt lat="45.67574" lon="5.70202">
        <ele>219.5</ele>
        <time>2022-09-25T13:46:31Z</time>
      </trkpt>
      <trkpt lat="45.67578" lon="5.70207">
        <ele>219.5</ele>
        <time>2022-09-25T13:46:32Z</time>
      </trkpt>
      <trkpt lat="45.67581" lon="5.70212">
        <ele>219.5</ele>
        <time>2022-09-25T13:46:33Z</time>
      </trkpt>
      <trkpt lat="45.67585" lon="5.70217">
        <ele>219.5</ele>
        <time>2022-09-25T13:46:34Z</time>
      </trkpt>
      <trkpt lat="45.67588" lon="5.70223">
        <ele>219.5</ele>
        <time>2022-09-25T13:46:35Z</time>
      </trkpt>
      <trkpt lat="45.67591" lon="5.70228">
        <ele>219.5</ele>
        <time>2022-09-25T13:46:36Z</time>
      </trkpt>
      <trkpt lat="45.67595" lon="5.70233">
        <ele>219.5</ele>
        <time>2022-09-25T13:46:37Z</time>
      </trkpt>
      <trkpt lat="45.67599" lon="5.70239">
        <ele>219.5</ele>
        <time>2022-09-25T13:46:38Z</time>
      </trkpt>
      <trkpt lat="45.67602" lon="5.70244">
        <ele>219.5</ele>
        <time>2022-09-25T13:46:39Z</time>
      </trkpt>
      <trkpt lat="45.67606" lon="5.70249">
        <ele>219.5</ele>
        <time>2022-09-25T13:46:40Z</time>
      </trkpt>
      <trkpt lat="45.67608" lon="5.70254">
        <ele>219.5</ele>
        <time>2022-09-25T13:46:41Z</time>
      </trkpt>
      <trkpt lat="45.67612" lon="5.7026">
        <ele>219.6</ele>
        <time>2022-09-25T13:46:42Z</time>
      </trkpt>
      <trkpt lat="45.67616" lon="5.70266">
        <ele>219.6</ele>
        <time>2022-09-25T13:46:43Z</time>
      </trkpt>
      <trkpt lat="45.67619" lon="5.70272">
        <ele>219.6</ele>
        <time>2022-09-25T13:46:44Z</time>
      </trkpt>
      <trkpt lat="45.67623" lon="5.70277">
        <ele>219.6</ele>
        <time>2022-09-25T13:46:45Z</time>
      </trkpt>
      <trkpt lat="45.67626" lon="5.70283">
        <ele>219.6</ele>
        <time>2022-09-25T13:46:46Z</time>
      </trkpt>
      <trkpt lat="45.67629" lon="5.70288">
        <ele>219.7</ele>
        <time>2022-09-25T13:46:47Z</time>
      </trkpt>
      <trkpt lat="45.67633" lon="5.70294">
        <ele>219.7</ele>
        <time>2022-09-25T13:46:48Z</time>
      </trkpt>
      <trkpt lat="45.67636" lon="5.703">
        <ele>219.7</ele>
        <time>2022-09-25T13:46:49Z</time>
      </trkpt>
      <trkpt lat="45.6764" lon="5.70305">
        <ele>219.7</ele>
        <time>2022-09-25T13:46:50Z</time>
      </trkpt>
      <trkpt lat="45.67643" lon="5.70311">
        <ele>219.7</ele>
        <time>2022-09-25T13:46:51Z</time>
      </trkpt>
      <trkpt lat="45.67646" lon="5.70316">
        <ele>219.8</ele>
        <time>2022-09-25T13:46:52Z</time>
      </trkpt>
      <trkpt lat="45.67649" lon="5.70322">
        <ele>219.8</ele>
        <time>2022-09-25T13:46:53Z</time>
      </trkpt>
      <trkpt lat="45.67653" lon="5.70327">
        <ele>219.8</ele>
        <time>2022-09-25T13:46:54Z</time>
      </trkpt>
      <trkpt lat="45.67656" lon="5.70333">
        <ele>219.8</ele>
        <time>2022-09-25T13:46:55Z</time>
      </trkpt>
      <trkpt lat="45.67659" lon="5.70338">
        <ele>219.8</ele>
        <time>2022-09-25T13:46:56Z</time>
      </trkpt>
      <trkpt lat="45.67662" lon="5.70344">
        <ele>219.8</ele>
        <time>2022-09-25T13:46:57Z</time>
      </trkpt>
      <trkpt lat="45.67665" lon="5.70349">
        <ele>219.8</ele>
        <time>2022-09-25T13:46:58Z</time>
      </trkpt>
      <trkpt lat="45.67668" lon="5.70355">
        <ele>219.8</ele>
        <time>2022-09-25T13:46:59Z</time>
      </trkpt>
      <trkpt lat="45.67672" lon="5.7036">
        <ele>219.8</ele>
        <time>2022-09-25T13:47:00Z</time>
      </trkpt>
      <trkpt lat="45.67675" lon="5.70366">
        <ele>219.8</ele>
        <time>2022-09-25T13:47:01Z</time>
      </trkpt>
      <trkpt lat="45.67679" lon="5.70372">
        <ele>219.8</ele>
        <time>2022-09-25T13:47:02Z</time>
      </trkpt>
      <trkpt lat="45.67682" lon="5.70378">
        <ele>219.8</ele>
        <time>2022-09-25T13:47:03Z</time>
      </trkpt>
      <trkpt lat="45.67685" lon="5.70383">
        <ele>219.8</ele>
        <time>2022-09-25T13:47:04Z</time>
      </trkpt>
      <trkpt lat="45.67688" lon="5.70389">
        <ele>219.9</ele>
        <time>2022-09-25T13:47:05Z</time>
      </trkpt>
      <trkpt lat="45.67692" lon="5.70395">
        <ele>219.9</ele>
        <time>2022-09-25T13:47:06Z</time>
      </trkpt>
      <trkpt lat="45.67695" lon="5.70401">
        <ele>219.9</ele>
        <time>2022-09-25T13:47:07Z</time>
      </trkpt>
      <trkpt lat="45.67699" lon="5.70408">
        <ele>219.9</ele>
        <time>2022-09-25T13:47:08Z</time>
      </trkpt>
      <trkpt lat="45.67702" lon="5.70411">
        <ele>219.9</ele>
        <time>2022-09-25T13:47:09Z</time>
      </trkpt>
      <trkpt lat="45.67706" lon="5.70418">
        <ele>219.9</ele>
        <time>2022-09-25T13:47:10Z</time>
      </trkpt>
      <trkpt lat="45.67709" lon="5.70424">
        <ele>219.9</ele>
        <time>2022-09-25T13:47:11Z</time>
      </trkpt>
      <trkpt lat="45.67712" lon="5.7043">
        <ele>219.9</ele>
        <time>2022-09-25T13:47:12Z</time>
      </trkpt>
      <trkpt lat="45.67715" lon="5.70435">
        <ele>220</ele>
        <time>2022-09-25T13:47:13Z</time>
      </trkpt>
      <trkpt lat="45.67719" lon="5.70441">
        <ele>220</ele>
        <time>2022-09-25T13:47:14Z</time>
      </trkpt>
      <trkpt lat="45.67723" lon="5.70448">
        <ele>220</ele>
        <time>2022-09-25T13:47:15Z</time>
      </trkpt>
      <trkpt lat="45.67726" lon="5.70453">
        <ele>220</ele>
        <time>2022-09-25T13:47:16Z</time>
      </trkpt>
      <trkpt lat="45.67729" lon="5.70459">
        <ele>220</ele>
        <time>2022-09-25T13:47:17Z</time>
      </trkpt>
      <trkpt lat="45.67734" lon="5.70465">
        <ele>220</ele>
        <time>2022-09-25T13:47:18Z</time>
      </trkpt>
      <trkpt lat="45.67736" lon="5.70471">
        <ele>220</ele>
        <time>2022-09-25T13:47:19Z</time>
      </trkpt>
      <trkpt lat="45.6774" lon="5.70477">
        <ele>220</ele>
        <time>2022-09-25T13:47:20Z</time>
      </trkpt>
      <trkpt lat="45.67743" lon="5.70482">
        <ele>220</ele>
        <time>2022-09-25T13:47:21Z</time>
      </trkpt>
      <trkpt lat="45.67747" lon="5.70488">
        <ele>220</ele>
        <time>2022-09-25T13:47:22Z</time>
      </trkpt>
      <trkpt lat="45.67749" lon="5.70493">
        <ele>220</ele>
        <time>2022-09-25T13:47:23Z</time>
      </trkpt>
      <trkpt lat="45.67753" lon="5.70499">
        <ele>220</ele>
        <time>2022-09-25T13:47:24Z</time>
      </trkpt>
      <trkpt lat="45.67757" lon="5.70505">
        <ele>220</ele>
        <time>2022-09-25T13:47:25Z</time>
      </trkpt>
      <trkpt lat="45.6776" lon="5.7051">
        <ele>220</ele>
        <time>2022-09-25T13:47:26Z</time>
      </trkpt>
      <trkpt lat="45.67764" lon="5.70516">
        <ele>220</ele>
        <time>2022-09-25T13:47:27Z</time>
      </trkpt>
      <trkpt lat="45.67768" lon="5.70522">
        <ele>220</ele>
        <time>2022-09-25T13:47:28Z</time>
      </trkpt>
      <trkpt lat="45.67772" lon="5.70527">
        <ele>220</ele>
        <time>2022-09-25T13:47:29Z</time>
      </trkpt>
      <trkpt lat="45.67776" lon="5.70533">
        <ele>220</ele>
        <time>2022-09-25T13:47:30Z</time>
      </trkpt>
      <trkpt lat="45.67779" lon="5.70538">
        <ele>220.1</ele>
        <time>2022-09-25T13:47:31Z</time>
      </trkpt>
      <trkpt lat="45.67783" lon="5.70544">
        <ele>220.1</ele>
        <time>2022-09-25T13:47:32Z</time>
      </trkpt>
      <trkpt lat="45.67786" lon="5.70549">
        <ele>220.1</ele>
        <time>2022-09-25T13:47:33Z</time>
      </trkpt>
      <trkpt lat="45.6779" lon="5.70553">
        <ele>220.1</ele>
        <time>2022-09-25T13:47:34Z</time>
      </trkpt>
      <trkpt lat="45.67794" lon="5.70559">
        <ele>220.1</ele>
        <time>2022-09-25T13:47:35Z</time>
      </trkpt>
      <trkpt lat="45.67798" lon="5.70565">
        <ele>220.2</ele>
        <time>2022-09-25T13:47:36Z</time>
      </trkpt>
      <trkpt lat="45.67802" lon="5.7057">
        <ele>220.2</ele>
        <time>2022-09-25T13:47:37Z</time>
      </trkpt>
      <trkpt lat="45.67805" lon="5.70574">
        <ele>220.2</ele>
        <time>2022-09-25T13:47:38Z</time>
      </trkpt>
      <trkpt lat="45.67809" lon="5.70579">
        <ele>220.2</ele>
        <time>2022-09-25T13:47:39Z</time>
      </trkpt>
      <trkpt lat="45.67812" lon="5.70585">
        <ele>220.2</ele>
        <time>2022-09-25T13:47:40Z</time>
      </trkpt>
      <trkpt lat="45.67816" lon="5.7059">
        <ele>220.2</ele>
        <time>2022-09-25T13:47:41Z</time>
      </trkpt>
      <trkpt lat="45.67819" lon="5.70595">
        <ele>220.2</ele>
        <time>2022-09-25T13:47:42Z</time>
      </trkpt>
      <trkpt lat="45.67823" lon="5.706">
        <ele>220.2</ele>
        <time>2022-09-25T13:47:43Z</time>
      </trkpt>
      <trkpt lat="45.67827" lon="5.70605">
        <ele>220.2</ele>
        <time>2022-09-25T13:47:44Z</time>
      </trkpt>
      <trkpt lat="45.67831" lon="5.70611">
        <ele>220.2</ele>
        <time>2022-09-25T13:47:45Z</time>
      </trkpt>
      <trkpt lat="45.67834" lon="5.70616">
        <ele>220.2</ele>
        <time>2022-09-25T13:47:46Z</time>
      </trkpt>
      <trkpt lat="45.67838" lon="5.70621">
        <ele>220.2</ele>
        <time>2022-09-25T13:47:47Z</time>
      </trkpt>
      <trkpt lat="45.67843" lon="5.70626">
        <ele>220.3</ele>
        <time>2022-09-25T13:47:48Z</time>
      </trkpt>
      <trkpt lat="45.67847" lon="5.70632">
        <ele>220.3</ele>
        <time>2022-09-25T13:47:49Z</time>
      </trkpt>
      <trkpt lat="45.67851" lon="5.70636">
        <ele>220.3</ele>
        <time>2022-09-25T13:47:50Z</time>
      </trkpt>
      <trkpt lat="45.67855" lon="5.70641">
        <ele>220.3</ele>
        <time>2022-09-25T13:47:51Z</time>
      </trkpt>
      <trkpt lat="45.67859" lon="5.70646">
        <ele>220.4</ele>
        <time>2022-09-25T13:47:52Z</time>
      </trkpt>
      <trkpt lat="45.67863" lon="5.7065">
        <ele>220.4</ele>
        <time>2022-09-25T13:47:53Z</time>
      </trkpt>
      <trkpt lat="45.67867" lon="5.70655">
        <ele>220.5</ele>
        <time>2022-09-25T13:47:54Z</time>
      </trkpt>
      <trkpt lat="45.67872" lon="5.7066">
        <ele>220.5</ele>
        <time>2022-09-25T13:47:55Z</time>
      </trkpt>
      <trkpt lat="45.67875" lon="5.70664">
        <ele>220.6</ele>
        <time>2022-09-25T13:47:56Z</time>
      </trkpt>
      <trkpt lat="45.67879" lon="5.70667">
        <ele>220.6</ele>
        <time>2022-09-25T13:47:57Z</time>
      </trkpt>
      <trkpt lat="45.67884" lon="5.70671">
        <ele>220.6</ele>
        <time>2022-09-25T13:47:58Z</time>
      </trkpt>
      <trkpt lat="45.67888" lon="5.70675">
        <ele>220.7</ele>
        <time>2022-09-25T13:47:59Z</time>
      </trkpt>
      <trkpt lat="45.67892" lon="5.70678">
        <ele>220.7</ele>
        <time>2022-09-25T13:48:00Z</time>
      </trkpt>
      <trkpt lat="45.67896" lon="5.70682">
        <ele>220.7</ele>
        <time>2022-09-25T13:48:01Z</time>
      </trkpt>
      <trkpt lat="45.67901" lon="5.70685">
        <ele>220.7</ele>
        <time>2022-09-25T13:48:02Z</time>
      </trkpt>
      <trkpt lat="45.67905" lon="5.70689">
        <ele>220.7</ele>
        <time>2022-09-25T13:48:03Z</time>
      </trkpt>
      <trkpt lat="45.67909" lon="5.70692">
        <ele>220.8</ele>
        <time>2022-09-25T13:48:04Z</time>
      </trkpt>
      <trkpt lat="45.67914" lon="5.70695">
        <ele>220.8</ele>
        <time>2022-09-25T13:48:05Z</time>
      </trkpt>
      <trkpt lat="45.67919" lon="5.70699">
        <ele>220.8</ele>
        <time>2022-09-25T13:48:06Z</time>
      </trkpt>
      <trkpt lat="45.67923" lon="5.70702">
        <ele>220.7</ele>
        <time>2022-09-25T13:48:07Z</time>
      </trkpt>
      <trkpt lat="45.67928" lon="5.70705">
        <ele>220.7</ele>
        <time>2022-09-25T13:48:08Z</time>
      </trkpt>
      <trkpt lat="45.67933" lon="5.70708">
        <ele>220.8</ele>
        <time>2022-09-25T13:48:09Z</time>
      </trkpt>
      <trkpt lat="45.67937" lon="5.70711">
        <ele>220.8</ele>
        <time>2022-09-25T13:48:10Z</time>
      </trkpt>
      <trkpt lat="45.67942" lon="5.70714">
        <ele>220.8</ele>
        <time>2022-09-25T13:48:11Z</time>
      </trkpt>
      <trkpt lat="45.67946" lon="5.70717">
        <ele>220.8</ele>
        <time>2022-09-25T13:48:12Z</time>
      </trkpt>
      <trkpt lat="45.67951" lon="5.70719">
        <ele>220.8</ele>
        <time>2022-09-25T13:48:13Z</time>
      </trkpt>
      <trkpt lat="45.67956" lon="5.70723">
        <ele>220.8</ele>
        <time>2022-09-25T13:48:14Z</time>
      </trkpt>
      <trkpt lat="45.6796" lon="5.70727">
        <ele>220.9</ele>
        <time>2022-09-25T13:48:15Z</time>
      </trkpt>
      <trkpt lat="45.67964" lon="5.7073">
        <ele>220.9</ele>
        <time>2022-09-25T13:48:16Z</time>
      </trkpt>
      <trkpt lat="45.67968" lon="5.70733">
        <ele>220.9</ele>
        <time>2022-09-25T13:48:17Z</time>
      </trkpt>
      <trkpt lat="45.67972" lon="5.70736">
        <ele>220.9</ele>
        <time>2022-09-25T13:48:18Z</time>
      </trkpt>
      <trkpt lat="45.67977" lon="5.70738">
        <ele>220.8</ele>
        <time>2022-09-25T13:48:19Z</time>
      </trkpt>
      <trkpt lat="45.67982" lon="5.70739">
        <ele>220.7</ele>
        <time>2022-09-25T13:48:20Z</time>
      </trkpt>
      <trkpt lat="45.67986" lon="5.7074">
        <ele>220.6</ele>
        <time>2022-09-25T13:48:21Z</time>
      </trkpt>
      <trkpt lat="45.67991" lon="5.7074">
        <ele>220.6</ele>
        <time>2022-09-25T13:48:22Z</time>
      </trkpt>
      <trkpt lat="45.67998" lon="5.7074">
        <ele>220.4</ele>
        <time>2022-09-25T13:48:23Z</time>
      </trkpt>
      <trkpt lat="45.68003" lon="5.70741">
        <ele>220.3</ele>
        <time>2022-09-25T13:48:24Z</time>
      </trkpt>
      <trkpt lat="45.68009" lon="5.70742">
        <ele>220.3</ele>
        <time>2022-09-25T13:48:25Z</time>
      </trkpt>
      <trkpt lat="45.68015" lon="5.70744">
        <ele>220.2</ele>
        <time>2022-09-25T13:48:26Z</time>
      </trkpt>
      <trkpt lat="45.68021" lon="5.70746">
        <ele>220.2</ele>
        <time>2022-09-25T13:48:27Z</time>
      </trkpt>
      <trkpt lat="45.68026" lon="5.70748">
        <ele>220.2</ele>
        <time>2022-09-25T13:48:28Z</time>
      </trkpt>
      <trkpt lat="45.68031" lon="5.70751">
        <ele>220.1</ele>
        <time>2022-09-25T13:48:29Z</time>
      </trkpt>
      <trkpt lat="45.68036" lon="5.70754">
        <ele>220.1</ele>
        <time>2022-09-25T13:48:30Z</time>
      </trkpt>
      <trkpt lat="45.68041" lon="5.70758">
        <ele>220.2</ele>
        <time>2022-09-25T13:48:31Z</time>
      </trkpt>
      <trkpt lat="45.68045" lon="5.70761">
        <ele>220.2</ele>
        <time>2022-09-25T13:48:32Z</time>
      </trkpt>
      <trkpt lat="45.6805" lon="5.70765">
        <ele>220.2</ele>
        <time>2022-09-25T13:48:33Z</time>
      </trkpt>
      <trkpt lat="45.68055" lon="5.70768">
        <ele>220.2</ele>
        <time>2022-09-25T13:48:34Z</time>
      </trkpt>
      <trkpt lat="45.6806" lon="5.70772">
        <ele>220.2</ele>
        <time>2022-09-25T13:48:35Z</time>
      </trkpt>
      <trkpt lat="45.68064" lon="5.70776">
        <ele>220.2</ele>
        <time>2022-09-25T13:48:36Z</time>
      </trkpt>
      <trkpt lat="45.68069" lon="5.70779">
        <ele>220.2</ele>
        <time>2022-09-25T13:48:37Z</time>
      </trkpt>
      <trkpt lat="45.68074" lon="5.70783">
        <ele>220.3</ele>
        <time>2022-09-25T13:48:38Z</time>
      </trkpt>
      <trkpt lat="45.68078" lon="5.70786">
        <ele>220.3</ele>
        <time>2022-09-25T13:48:39Z</time>
      </trkpt>
      <trkpt lat="45.68082" lon="5.70791">
        <ele>220.4</ele>
        <time>2022-09-25T13:48:40Z</time>
      </trkpt>
      <trkpt lat="45.68087" lon="5.70794">
        <ele>220.4</ele>
        <time>2022-09-25T13:48:41Z</time>
      </trkpt>
      <trkpt lat="45.68091" lon="5.70799">
        <ele>220.5</ele>
        <time>2022-09-25T13:48:42Z</time>
      </trkpt>
      <trkpt lat="45.68095" lon="5.70803">
        <ele>220.5</ele>
        <time>2022-09-25T13:48:43Z</time>
      </trkpt>
      <trkpt lat="45.68099" lon="5.70806">
        <ele>220.5</ele>
        <time>2022-09-25T13:48:44Z</time>
      </trkpt>
      <trkpt lat="45.68104" lon="5.70809">
        <ele>220.5</ele>
        <time>2022-09-25T13:48:45Z</time>
      </trkpt>
      <trkpt lat="45.68108" lon="5.70812">
        <ele>220.5</ele>
        <time>2022-09-25T13:48:46Z</time>
      </trkpt>
      <trkpt lat="45.68113" lon="5.70815">
        <ele>220.5</ele>
        <time>2022-09-25T13:48:47Z</time>
      </trkpt>
      <trkpt lat="45.68118" lon="5.70818">
        <ele>220.5</ele>
        <time>2022-09-25T13:48:48Z</time>
      </trkpt>
      <trkpt lat="45.68123" lon="5.70821">
        <ele>220.5</ele>
        <time>2022-09-25T13:48:49Z</time>
      </trkpt>
      <trkpt lat="45.68128" lon="5.70824">
        <ele>220.5</ele>
        <time>2022-09-25T13:48:50Z</time>
      </trkpt>
      <trkpt lat="45.68133" lon="5.70827">
        <ele>220.5</ele>
        <time>2022-09-25T13:48:51Z</time>
      </trkpt>
      <trkpt lat="45.68137" lon="5.7083">
        <ele>220.5</ele>
        <time>2022-09-25T13:48:52Z</time>
      </trkpt>
      <trkpt lat="45.68142" lon="5.70833">
        <ele>220.4</ele>
        <time>2022-09-25T13:48:53Z</time>
      </trkpt>
      <trkpt lat="45.68147" lon="5.70836">
        <ele>220.4</ele>
        <time>2022-09-25T13:48:54Z</time>
      </trkpt>
      <trkpt lat="45.68151" lon="5.70838">
        <ele>220.4</ele>
        <time>2022-09-25T13:48:55Z</time>
      </trkpt>
      <trkpt lat="45.68155" lon="5.70842">
        <ele>220.4</ele>
        <time>2022-09-25T13:48:56Z</time>
      </trkpt>
      <trkpt lat="45.68161" lon="5.70844">
        <ele>220.3</ele>
        <time>2022-09-25T13:48:57Z</time>
      </trkpt>
      <trkpt lat="45.68166" lon="5.70847">
        <ele>220.3</ele>
        <time>2022-09-25T13:48:58Z</time>
      </trkpt>
      <trkpt lat="45.68171" lon="5.7085">
        <ele>220.2</ele>
        <time>2022-09-25T13:48:59Z</time>
      </trkpt>
      <trkpt lat="45.68176" lon="5.70853">
        <ele>220.2</ele>
        <time>2022-09-25T13:49:00Z</time>
      </trkpt>
      <trkpt lat="45.68182" lon="5.70856">
        <ele>220.1</ele>
        <time>2022-09-25T13:49:01Z</time>
      </trkpt>
      <trkpt lat="45.68187" lon="5.70859">
        <ele>220.1</ele>
        <time>2022-09-25T13:49:02Z</time>
      </trkpt>
      <trkpt lat="45.68192" lon="5.70861">
        <ele>220</ele>
        <time>2022-09-25T13:49:03Z</time>
      </trkpt>
      <trkpt lat="45.68197" lon="5.70863">
        <ele>220</ele>
        <time>2022-09-25T13:49:04Z</time>
      </trkpt>
      <trkpt lat="45.68202" lon="5.70865">
        <ele>220</ele>
        <time>2022-09-25T13:49:05Z</time>
      </trkpt>
      <trkpt lat="45.68208" lon="5.70868">
        <ele>219.9</ele>
        <time>2022-09-25T13:49:06Z</time>
      </trkpt>
      <trkpt lat="45.68214" lon="5.7087">
        <ele>219.9</ele>
        <time>2022-09-25T13:49:07Z</time>
      </trkpt>
      <trkpt lat="45.68219" lon="5.70871">
        <ele>219.8</ele>
        <time>2022-09-25T13:49:08Z</time>
      </trkpt>
      <trkpt lat="45.68225" lon="5.70872">
        <ele>219.8</ele>
        <time>2022-09-25T13:49:09Z</time>
      </trkpt>
      <trkpt lat="45.6823" lon="5.70875">
        <ele>219.7</ele>
        <time>2022-09-25T13:49:10Z</time>
      </trkpt>
      <trkpt lat="45.68234" lon="5.70876">
        <ele>219.7</ele>
        <time>2022-09-25T13:49:11Z</time>
      </trkpt>
      <trkpt lat="45.68239" lon="5.70878">
        <ele>219.6</ele>
        <time>2022-09-25T13:49:12Z</time>
      </trkpt>
      <trkpt lat="45.68244" lon="5.7088">
        <ele>219.6</ele>
        <time>2022-09-25T13:49:13Z</time>
      </trkpt>
      <trkpt lat="45.68249" lon="5.70881">
        <ele>219.6</ele>
        <time>2022-09-25T13:49:14Z</time>
      </trkpt>
      <trkpt lat="45.68253" lon="5.70882">
        <ele>219.6</ele>
        <time>2022-09-25T13:49:15Z</time>
      </trkpt>
      <trkpt lat="45.68259" lon="5.70884">
        <ele>219.5</ele>
        <time>2022-09-25T13:49:16Z</time>
      </trkpt>
      <trkpt lat="45.68264" lon="5.70885">
        <ele>219.5</ele>
        <time>2022-09-25T13:49:17Z</time>
      </trkpt>
      <trkpt lat="45.68269" lon="5.70886">
        <ele>219.4</ele>
        <time>2022-09-25T13:49:18Z</time>
      </trkpt>
      <trkpt lat="45.68276" lon="5.70886">
        <ele>219.4</ele>
        <time>2022-09-25T13:49:19Z</time>
      </trkpt>
      <trkpt lat="45.68281" lon="5.70887">
        <ele>219.4</ele>
        <time>2022-09-25T13:49:20Z</time>
      </trkpt>
      <trkpt lat="45.68286" lon="5.70888">
        <ele>219.4</ele>
        <time>2022-09-25T13:49:21Z</time>
      </trkpt>
      <trkpt lat="45.68292" lon="5.70889">
        <ele>219.3</ele>
        <time>2022-09-25T13:49:22Z</time>
      </trkpt>
      <trkpt lat="45.68298" lon="5.70889">
        <ele>219.3</ele>
        <time>2022-09-25T13:49:23Z</time>
      </trkpt>
      <trkpt lat="45.68303" lon="5.7089">
        <ele>219.3</ele>
        <time>2022-09-25T13:49:24Z</time>
      </trkpt>
      <trkpt lat="45.68308" lon="5.70891">
        <ele>219.3</ele>
        <time>2022-09-25T13:49:25Z</time>
      </trkpt>
      <trkpt lat="45.68314" lon="5.70891">
        <ele>219.3</ele>
        <time>2022-09-25T13:49:26Z</time>
      </trkpt>
      <trkpt lat="45.68319" lon="5.70893">
        <ele>219.4</ele>
        <time>2022-09-25T13:49:27Z</time>
      </trkpt>
      <trkpt lat="45.68322" lon="5.70894">
        <ele>219.4</ele>
        <time>2022-09-25T13:49:28Z</time>
      </trkpt>
      <trkpt lat="45.68328" lon="5.70895">
        <ele>219.5</ele>
        <time>2022-09-25T13:49:29Z</time>
      </trkpt>
      <trkpt lat="45.68332" lon="5.70896">
        <ele>219.6</ele>
        <time>2022-09-25T13:49:30Z</time>
      </trkpt>
      <trkpt lat="45.68337" lon="5.70897">
        <ele>219.7</ele>
        <time>2022-09-25T13:49:31Z</time>
      </trkpt>
      <trkpt lat="45.68341" lon="5.70899">
        <ele>219.8</ele>
        <time>2022-09-25T13:49:32Z</time>
      </trkpt>
      <trkpt lat="45.68347" lon="5.70901">
        <ele>220</ele>
        <time>2022-09-25T13:49:33Z</time>
      </trkpt>
      <trkpt lat="45.6835" lon="5.70901">
        <ele>220.1</ele>
        <time>2022-09-25T13:49:34Z</time>
      </trkpt>
      <trkpt lat="45.68355" lon="5.70901">
        <ele>220.2</ele>
        <time>2022-09-25T13:49:35Z</time>
      </trkpt>
      <trkpt lat="45.68358" lon="5.70903">
        <ele>220.3</ele>
        <time>2022-09-25T13:49:36Z</time>
      </trkpt>
      <trkpt lat="45.68363" lon="5.70903">
        <ele>220.5</ele>
        <time>2022-09-25T13:49:37Z</time>
      </trkpt>
      <trkpt lat="45.68368" lon="5.70903">
        <ele>220.6</ele>
        <time>2022-09-25T13:49:38Z</time>
      </trkpt>
      <trkpt lat="45.68372" lon="5.70904">
        <ele>220.7</ele>
        <time>2022-09-25T13:49:39Z</time>
      </trkpt>
      <trkpt lat="45.68376" lon="5.70905">
        <ele>220.8</ele>
        <time>2022-09-25T13:49:40Z</time>
      </trkpt>
      <trkpt lat="45.68381" lon="5.70907">
        <ele>220.9</ele>
        <time>2022-09-25T13:49:41Z</time>
      </trkpt>
      <trkpt lat="45.68384" lon="5.70907">
        <ele>221</ele>
        <time>2022-09-25T13:49:42Z</time>
      </trkpt>
      <trkpt lat="45.68388" lon="5.70908">
        <ele>221.1</ele>
        <time>2022-09-25T13:49:43Z</time>
      </trkpt>
      <trkpt lat="45.68392" lon="5.70909">
        <ele>221.1</ele>
        <time>2022-09-25T13:49:44Z</time>
      </trkpt>
      <trkpt lat="45.68396" lon="5.70911">
        <ele>221.2</ele>
        <time>2022-09-25T13:49:45Z</time>
      </trkpt>
      <trkpt lat="45.68399" lon="5.70913">
        <ele>221.3</ele>
        <time>2022-09-25T13:49:46Z</time>
      </trkpt>
      <trkpt lat="45.68403" lon="5.70915">
        <ele>221.3</ele>
        <time>2022-09-25T13:49:47Z</time>
      </trkpt>
      <trkpt lat="45.68406" lon="5.70917">
        <ele>221.4</ele>
        <time>2022-09-25T13:49:48Z</time>
      </trkpt>
      <trkpt lat="45.68409" lon="5.70918">
        <ele>221.4</ele>
        <time>2022-09-25T13:49:49Z</time>
      </trkpt>
      <trkpt lat="45.68413" lon="5.7092">
        <ele>221.5</ele>
        <time>2022-09-25T13:49:50Z</time>
      </trkpt>
      <trkpt lat="45.68416" lon="5.70921">
        <ele>221.5</ele>
        <time>2022-09-25T13:49:51Z</time>
      </trkpt>
      <trkpt lat="45.6842" lon="5.70923">
        <ele>221.5</ele>
        <time>2022-09-25T13:49:52Z</time>
      </trkpt>
      <trkpt lat="45.68422" lon="5.70925">
        <ele>221.6</ele>
        <time>2022-09-25T13:49:53Z</time>
      </trkpt>
      <trkpt lat="45.68426" lon="5.70926">
        <ele>221.6</ele>
        <time>2022-09-25T13:49:54Z</time>
      </trkpt>
      <trkpt lat="45.6843" lon="5.70927">
        <ele>221.6</ele>
        <time>2022-09-25T13:49:55Z</time>
      </trkpt>
      <trkpt lat="45.68434" lon="5.70929">
        <ele>221.6</ele>
        <time>2022-09-25T13:49:56Z</time>
      </trkpt>
      <trkpt lat="45.68438" lon="5.70931">
        <ele>221.6</ele>
        <time>2022-09-25T13:49:57Z</time>
      </trkpt>
      <trkpt lat="45.68441" lon="5.70934">
        <ele>221.6</ele>
        <time>2022-09-25T13:49:58Z</time>
      </trkpt>
      <trkpt lat="45.68445" lon="5.70936">
        <ele>221.6</ele>
        <time>2022-09-25T13:49:59Z</time>
      </trkpt>
      <trkpt lat="45.68448" lon="5.70938">
        <ele>221.6</ele>
        <time>2022-09-25T13:50:00Z</time>
      </trkpt>
      <trkpt lat="45.68452" lon="5.7094">
        <ele>221.7</ele>
        <time>2022-09-25T13:50:01Z</time>
      </trkpt>
      <trkpt lat="45.68456" lon="5.70943">
        <ele>221.7</ele>
        <time>2022-09-25T13:50:02Z</time>
      </trkpt>
      <trkpt lat="45.6846" lon="5.70946">
        <ele>221.7</ele>
        <time>2022-09-25T13:50:03Z</time>
      </trkpt>
      <trkpt lat="45.68464" lon="5.70949">
        <ele>221.7</ele>
        <time>2022-09-25T13:50:04Z</time>
      </trkpt>
      <trkpt lat="45.68468" lon="5.70952">
        <ele>221.7</ele>
        <time>2022-09-25T13:50:05Z</time>
      </trkpt>
      <trkpt lat="45.68472" lon="5.70954">
        <ele>221.8</ele>
        <time>2022-09-25T13:50:06Z</time>
      </trkpt>
      <trkpt lat="45.68477" lon="5.70957">
        <ele>221.8</ele>
        <time>2022-09-25T13:50:07Z</time>
      </trkpt>
      <trkpt lat="45.68481" lon="5.7096">
        <ele>221.8</ele>
        <time>2022-09-25T13:50:08Z</time>
      </trkpt>
      <trkpt lat="45.68485" lon="5.70963">
        <ele>221.9</ele>
        <time>2022-09-25T13:50:09Z</time>
      </trkpt>
      <trkpt lat="45.68489" lon="5.70966">
        <ele>221.9</ele>
        <time>2022-09-25T13:50:10Z</time>
      </trkpt>
      <trkpt lat="45.68494" lon="5.70969">
        <ele>221.9</ele>
        <time>2022-09-25T13:50:11Z</time>
      </trkpt>
      <trkpt lat="45.68498" lon="5.70972">
        <ele>221.9</ele>
        <time>2022-09-25T13:50:12Z</time>
      </trkpt>
      <trkpt lat="45.68502" lon="5.70975">
        <ele>222</ele>
        <time>2022-09-25T13:50:13Z</time>
      </trkpt>
      <trkpt lat="45.68506" lon="5.70977">
        <ele>222</ele>
        <time>2022-09-25T13:50:14Z</time>
      </trkpt>
      <trkpt lat="45.6851" lon="5.70979">
        <ele>222</ele>
        <time>2022-09-25T13:50:15Z</time>
      </trkpt>
      <trkpt lat="45.68514" lon="5.70982">
        <ele>222</ele>
        <time>2022-09-25T13:50:16Z</time>
      </trkpt>
      <trkpt lat="45.68518" lon="5.70985">
        <ele>222</ele>
        <time>2022-09-25T13:50:17Z</time>
      </trkpt>
      <trkpt lat="45.68523" lon="5.70988">
        <ele>222</ele>
        <time>2022-09-25T13:50:18Z</time>
      </trkpt>
      <trkpt lat="45.68526" lon="5.70991">
        <ele>222.1</ele>
        <time>2022-09-25T13:50:19Z</time>
      </trkpt>
      <trkpt lat="45.68531" lon="5.70993">
        <ele>222.1</ele>
        <time>2022-09-25T13:50:20Z</time>
      </trkpt>
      <trkpt lat="45.68535" lon="5.70996">
        <ele>222.1</ele>
        <time>2022-09-25T13:50:21Z</time>
      </trkpt>
      <trkpt lat="45.6854" lon="5.70998">
        <ele>222.1</ele>
        <time>2022-09-25T13:50:22Z</time>
      </trkpt>
      <trkpt lat="45.68544" lon="5.71001">
        <ele>222.1</ele>
        <time>2022-09-25T13:50:23Z</time>
      </trkpt>
      <trkpt lat="45.68549" lon="5.71003">
        <ele>222.2</ele>
        <time>2022-09-25T13:50:24Z</time>
      </trkpt>
      <trkpt lat="45.68553" lon="5.71005">
        <ele>222.2</ele>
        <time>2022-09-25T13:50:25Z</time>
      </trkpt>
      <trkpt lat="45.68557" lon="5.71008">
        <ele>222.2</ele>
        <time>2022-09-25T13:50:26Z</time>
      </trkpt>
      <trkpt lat="45.68561" lon="5.71011">
        <ele>222.2</ele>
        <time>2022-09-25T13:50:27Z</time>
      </trkpt>
      <trkpt lat="45.68566" lon="5.71013">
        <ele>222.2</ele>
        <time>2022-09-25T13:50:28Z</time>
      </trkpt>
      <trkpt lat="45.68571" lon="5.71016">
        <ele>222.2</ele>
        <time>2022-09-25T13:50:29Z</time>
      </trkpt>
      <trkpt lat="45.68575" lon="5.71019">
        <ele>222.3</ele>
        <time>2022-09-25T13:50:30Z</time>
      </trkpt>
      <trkpt lat="45.6858" lon="5.71021">
        <ele>222.3</ele>
        <time>2022-09-25T13:50:31Z</time>
      </trkpt>
      <trkpt lat="45.68585" lon="5.71024">
        <ele>222.3</ele>
        <time>2022-09-25T13:50:32Z</time>
      </trkpt>
      <trkpt lat="45.68589" lon="5.71027">
        <ele>222.2</ele>
        <time>2022-09-25T13:50:33Z</time>
      </trkpt>
      <trkpt lat="45.68594" lon="5.7103">
        <ele>222.2</ele>
        <time>2022-09-25T13:50:34Z</time>
      </trkpt>
      <trkpt lat="45.68599" lon="5.71031">
        <ele>222.2</ele>
        <time>2022-09-25T13:50:35Z</time>
      </trkpt>
      <trkpt lat="45.68604" lon="5.71034">
        <ele>222.1</ele>
        <time>2022-09-25T13:50:36Z</time>
      </trkpt>
      <trkpt lat="45.68609" lon="5.71037">
        <ele>222.1</ele>
        <time>2022-09-25T13:50:37Z</time>
      </trkpt>
      <trkpt lat="45.68614" lon="5.7104">
        <ele>222.1</ele>
        <time>2022-09-25T13:50:38Z</time>
      </trkpt>
      <trkpt lat="45.68619" lon="5.71042">
        <ele>222.1</ele>
        <time>2022-09-25T13:50:39Z</time>
      </trkpt>
      <trkpt lat="45.68624" lon="5.71045">
        <ele>222.1</ele>
        <time>2022-09-25T13:50:40Z</time>
      </trkpt>
      <trkpt lat="45.68628" lon="5.71048">
        <ele>222.2</ele>
        <time>2022-09-25T13:50:41Z</time>
      </trkpt>
      <trkpt lat="45.68633" lon="5.71049">
        <ele>222.2</ele>
        <time>2022-09-25T13:50:42Z</time>
      </trkpt>
      <trkpt lat="45.68639" lon="5.71052">
        <ele>222.3</ele>
        <time>2022-09-25T13:50:43Z</time>
      </trkpt>
      <trkpt lat="45.68644" lon="5.71054">
        <ele>222.4</ele>
        <time>2022-09-25T13:50:44Z</time>
      </trkpt>
      <trkpt lat="45.68649" lon="5.71056">
        <ele>222.4</ele>
        <time>2022-09-25T13:50:45Z</time>
      </trkpt>
      <trkpt lat="45.68654" lon="5.71058">
        <ele>222.5</ele>
        <time>2022-09-25T13:50:46Z</time>
      </trkpt>
      <trkpt lat="45.68659" lon="5.7106">
        <ele>222.6</ele>
        <time>2022-09-25T13:50:47Z</time>
      </trkpt>
      <trkpt lat="45.68664" lon="5.71062">
        <ele>222.7</ele>
        <time>2022-09-25T13:50:48Z</time>
      </trkpt>
      <trkpt lat="45.68669" lon="5.71064">
        <ele>222.8</ele>
        <time>2022-09-25T13:50:49Z</time>
      </trkpt>
      <trkpt lat="45.68673" lon="5.71066">
        <ele>222.9</ele>
        <time>2022-09-25T13:50:50Z</time>
      </trkpt>
      <trkpt lat="45.68677" lon="5.71068">
        <ele>223</ele>
        <time>2022-09-25T13:50:51Z</time>
      </trkpt>
      <trkpt lat="45.68683" lon="5.71069">
        <ele>223.2</ele>
        <time>2022-09-25T13:50:52Z</time>
      </trkpt>
      <trkpt lat="45.68687" lon="5.71071">
        <ele>223.3</ele>
        <time>2022-09-25T13:50:53Z</time>
      </trkpt>
      <trkpt lat="45.68691" lon="5.71073">
        <ele>223.4</ele>
        <time>2022-09-25T13:50:54Z</time>
      </trkpt>
      <trkpt lat="45.68695" lon="5.71074">
        <ele>223.5</ele>
        <time>2022-09-25T13:50:55Z</time>
      </trkpt>
      <trkpt lat="45.68699" lon="5.71077">
        <ele>223.6</ele>
        <time>2022-09-25T13:50:56Z</time>
      </trkpt>
      <trkpt lat="45.68703" lon="5.71078">
        <ele>223.8</ele>
        <time>2022-09-25T13:50:57Z</time>
      </trkpt>
      <trkpt lat="45.68708" lon="5.7108">
        <ele>223.9</ele>
        <time>2022-09-25T13:50:58Z</time>
      </trkpt>
      <trkpt lat="45.68712" lon="5.71082">
        <ele>224</ele>
        <time>2022-09-25T13:50:59Z</time>
      </trkpt>
      <trkpt lat="45.68716" lon="5.71084">
        <ele>224</ele>
        <time>2022-09-25T13:51:00Z</time>
      </trkpt>
      <trkpt lat="45.6872" lon="5.71087">
        <ele>224.1</ele>
        <time>2022-09-25T13:51:01Z</time>
      </trkpt>
      <trkpt lat="45.68724" lon="5.7109">
        <ele>224.2</ele>
        <time>2022-09-25T13:51:02Z</time>
      </trkpt>
      <trkpt lat="45.68728" lon="5.71093">
        <ele>224.2</ele>
        <time>2022-09-25T13:51:03Z</time>
      </trkpt>
      <trkpt lat="45.68732" lon="5.71095">
        <ele>224.3</ele>
        <time>2022-09-25T13:51:04Z</time>
      </trkpt>
      <trkpt lat="45.68736" lon="5.71098">
        <ele>224.4</ele>
        <time>2022-09-25T13:51:05Z</time>
      </trkpt>
      <trkpt lat="45.6874" lon="5.71101">
        <ele>224.4</ele>
        <time>2022-09-25T13:51:06Z</time>
      </trkpt>
      <trkpt lat="45.68744" lon="5.71104">
        <ele>224.5</ele>
        <time>2022-09-25T13:51:07Z</time>
      </trkpt>
      <trkpt lat="45.68748" lon="5.71106">
        <ele>224.5</ele>
        <time>2022-09-25T13:51:08Z</time>
      </trkpt>
      <trkpt lat="45.68751" lon="5.71109">
        <ele>224.6</ele>
        <time>2022-09-25T13:51:09Z</time>
      </trkpt>
      <trkpt lat="45.68754" lon="5.71111">
        <ele>224.6</ele>
        <time>2022-09-25T13:51:10Z</time>
      </trkpt>
      <trkpt lat="45.68757" lon="5.71113">
        <ele>224.6</ele>
        <time>2022-09-25T13:51:11Z</time>
      </trkpt>
      <trkpt lat="45.6876" lon="5.71115">
        <ele>224.6</ele>
        <time>2022-09-25T13:51:12Z</time>
      </trkpt>
      <trkpt lat="45.68765" lon="5.71117">
        <ele>224.5</ele>
        <time>2022-09-25T13:51:13Z</time>
      </trkpt>
      <trkpt lat="45.6877" lon="5.71118">
        <ele>224.4</ele>
        <time>2022-09-25T13:51:14Z</time>
      </trkpt>
      <trkpt lat="45.68773" lon="5.71121">
        <ele>224.3</ele>
        <time>2022-09-25T13:51:15Z</time>
      </trkpt>
      <trkpt lat="45.68778" lon="5.71123">
        <ele>224.2</ele>
        <time>2022-09-25T13:51:16Z</time>
      </trkpt>
      <trkpt lat="45.68783" lon="5.71126">
        <ele>224.1</ele>
        <time>2022-09-25T13:51:17Z</time>
      </trkpt>
      <trkpt lat="45.68787" lon="5.71128">
        <ele>223.9</ele>
        <time>2022-09-25T13:51:18Z</time>
      </trkpt>
      <trkpt lat="45.68793" lon="5.7113">
        <ele>223.8</ele>
        <time>2022-09-25T13:51:19Z</time>
      </trkpt>
      <trkpt lat="45.68798" lon="5.71133">
        <ele>223.6</ele>
        <time>2022-09-25T13:51:20Z</time>
      </trkpt>
      <trkpt lat="45.68804" lon="5.71136">
        <ele>223.4</ele>
        <time>2022-09-25T13:51:21Z</time>
      </trkpt>
      <trkpt lat="45.68809" lon="5.71137">
        <ele>223.2</ele>
        <time>2022-09-25T13:51:22Z</time>
      </trkpt>
      <trkpt lat="45.68815" lon="5.71139">
        <ele>223</ele>
        <time>2022-09-25T13:51:23Z</time>
      </trkpt>
      <trkpt lat="45.68821" lon="5.71141">
        <ele>222.8</ele>
        <time>2022-09-25T13:51:24Z</time>
      </trkpt>
      <trkpt lat="45.68827" lon="5.71142">
        <ele>222.6</ele>
        <time>2022-09-25T13:51:25Z</time>
      </trkpt>
      <trkpt lat="45.68834" lon="5.71144">
        <ele>222.4</ele>
        <time>2022-09-25T13:51:26Z</time>
      </trkpt>
      <trkpt lat="45.68842" lon="5.71146">
        <ele>222.1</ele>
        <time>2022-09-25T13:51:27Z</time>
      </trkpt>
      <trkpt lat="45.68848" lon="5.71148">
        <ele>221.9</ele>
        <time>2022-09-25T13:51:28Z</time>
      </trkpt>
      <trkpt lat="45.68855" lon="5.71149">
        <ele>221.7</ele>
        <time>2022-09-25T13:51:29Z</time>
      </trkpt>
      <trkpt lat="45.68861" lon="5.71151">
        <ele>221.5</ele>
        <time>2022-09-25T13:51:30Z</time>
      </trkpt>
      <trkpt lat="45.68868" lon="5.71153">
        <ele>221.3</ele>
        <time>2022-09-25T13:51:31Z</time>
      </trkpt>
      <trkpt lat="45.68875" lon="5.71155">
        <ele>221.1</ele>
        <time>2022-09-25T13:51:32Z</time>
      </trkpt>
      <trkpt lat="45.68881" lon="5.71158">
        <ele>221</ele>
        <time>2022-09-25T13:51:33Z</time>
      </trkpt>
      <trkpt lat="45.68887" lon="5.71159">
        <ele>220.9</ele>
        <time>2022-09-25T13:51:34Z</time>
      </trkpt>
      <trkpt lat="45.68893" lon="5.71162">
        <ele>220.7</ele>
        <time>2022-09-25T13:51:35Z</time>
      </trkpt>
      <trkpt lat="45.68899" lon="5.71165">
        <ele>220.6</ele>
        <time>2022-09-25T13:51:36Z</time>
      </trkpt>
      <trkpt lat="45.68905" lon="5.71167">
        <ele>220.4</ele>
        <time>2022-09-25T13:51:37Z</time>
      </trkpt>
      <trkpt lat="45.6891" lon="5.7117">
        <ele>220.2</ele>
        <time>2022-09-25T13:51:38Z</time>
      </trkpt>
      <trkpt lat="45.68916" lon="5.71172">
        <ele>220.1</ele>
        <time>2022-09-25T13:51:39Z</time>
      </trkpt>
      <trkpt lat="45.68922" lon="5.71175">
        <ele>220</ele>
        <time>2022-09-25T13:51:40Z</time>
      </trkpt>
      <trkpt lat="45.68928" lon="5.71177">
        <ele>219.9</ele>
        <time>2022-09-25T13:51:41Z</time>
      </trkpt>
      <trkpt lat="45.68934" lon="5.71179">
        <ele>219.9</ele>
        <time>2022-09-25T13:51:42Z</time>
      </trkpt>
      <trkpt lat="45.68939" lon="5.7118">
        <ele>219.8</ele>
        <time>2022-09-25T13:51:43Z</time>
      </trkpt>
      <trkpt lat="45.68944" lon="5.71183">
        <ele>219.8</ele>
        <time>2022-09-25T13:51:44Z</time>
      </trkpt>
      <trkpt lat="45.68949" lon="5.71185">
        <ele>219.7</ele>
        <time>2022-09-25T13:51:45Z</time>
      </trkpt>
      <trkpt lat="45.68955" lon="5.71186">
        <ele>219.7</ele>
        <time>2022-09-25T13:51:46Z</time>
      </trkpt>
      <trkpt lat="45.68962" lon="5.71188">
        <ele>219.7</ele>
        <time>2022-09-25T13:51:47Z</time>
      </trkpt>
      <trkpt lat="45.68968" lon="5.7119">
        <ele>219.7</ele>
        <time>2022-09-25T13:51:48Z</time>
      </trkpt>
      <trkpt lat="45.68974" lon="5.71192">
        <ele>219.6</ele>
        <time>2022-09-25T13:51:49Z</time>
      </trkpt>
      <trkpt lat="45.68979" lon="5.71193">
        <ele>219.6</ele>
        <time>2022-09-25T13:51:50Z</time>
      </trkpt>
      <trkpt lat="45.68985" lon="5.71195">
        <ele>219.6</ele>
        <time>2022-09-25T13:51:51Z</time>
      </trkpt>
      <trkpt lat="45.68991" lon="5.71197">
        <ele>219.6</ele>
        <time>2022-09-25T13:51:52Z</time>
      </trkpt>
      <trkpt lat="45.68996" lon="5.71199">
        <ele>219.6</ele>
        <time>2022-09-25T13:51:53Z</time>
      </trkpt>
      <trkpt lat="45.69002" lon="5.71201">
        <ele>219.6</ele>
        <time>2022-09-25T13:51:54Z</time>
      </trkpt>
      <trkpt lat="45.69007" lon="5.71203">
        <ele>219.6</ele>
        <time>2022-09-25T13:51:55Z</time>
      </trkpt>
      <trkpt lat="45.69012" lon="5.71205">
        <ele>219.6</ele>
        <time>2022-09-25T13:51:56Z</time>
      </trkpt>
      <trkpt lat="45.69018" lon="5.71207">
        <ele>219.5</ele>
        <time>2022-09-25T13:51:57Z</time>
      </trkpt>
      <trkpt lat="45.69022" lon="5.7121">
        <ele>219.5</ele>
        <time>2022-09-25T13:51:58Z</time>
      </trkpt>
      <trkpt lat="45.69026" lon="5.71212">
        <ele>219.5</ele>
        <time>2022-09-25T13:51:59Z</time>
      </trkpt>
      <trkpt lat="45.6903" lon="5.71215">
        <ele>219.5</ele>
        <time>2022-09-25T13:52:00Z</time>
      </trkpt>
      <trkpt lat="45.69035" lon="5.71218">
        <ele>219.4</ele>
        <time>2022-09-25T13:52:01Z</time>
      </trkpt>
      <trkpt lat="45.6904" lon="5.7122">
        <ele>219.4</ele>
        <time>2022-09-25T13:52:02Z</time>
      </trkpt>
      <trkpt lat="45.69044" lon="5.71223">
        <ele>219.4</ele>
        <time>2022-09-25T13:52:03Z</time>
      </trkpt>
      <trkpt lat="45.69049" lon="5.71227">
        <ele>219.4</ele>
        <time>2022-09-25T13:52:04Z</time>
      </trkpt>
      <trkpt lat="45.69053" lon="5.7123">
        <ele>219.4</ele>
        <time>2022-09-25T13:52:05Z</time>
      </trkpt>
      <trkpt lat="45.69057" lon="5.71234">
        <ele>219.4</ele>
        <time>2022-09-25T13:52:06Z</time>
      </trkpt>
      <trkpt lat="45.69062" lon="5.71238">
        <ele>219.4</ele>
        <time>2022-09-25T13:52:07Z</time>
      </trkpt>
      <trkpt lat="45.69068" lon="5.71241">
        <ele>219.5</ele>
        <time>2022-09-25T13:52:08Z</time>
      </trkpt>
      <trkpt lat="45.69072" lon="5.71245">
        <ele>219.6</ele>
        <time>2022-09-25T13:52:09Z</time>
      </trkpt>
      <trkpt lat="45.69076" lon="5.71249">
        <ele>219.7</ele>
        <time>2022-09-25T13:52:10Z</time>
      </trkpt>
      <trkpt lat="45.69079" lon="5.71251">
        <ele>219.8</ele>
        <time>2022-09-25T13:52:11Z</time>
      </trkpt>
      <trkpt lat="45.69084" lon="5.71253">
        <ele>219.9</ele>
        <time>2022-09-25T13:52:12Z</time>
      </trkpt>
      <trkpt lat="45.69088" lon="5.71255">
        <ele>220.1</ele>
        <time>2022-09-25T13:52:13Z</time>
      </trkpt>
      <trkpt lat="45.69092" lon="5.71257">
        <ele>220.3</ele>
        <time>2022-09-25T13:52:14Z</time>
      </trkpt>
      <trkpt lat="45.69095" lon="5.7126">
        <ele>220.4</ele>
        <time>2022-09-25T13:52:15Z</time>
      </trkpt>
      <trkpt lat="45.69098" lon="5.71261">
        <ele>220.6</ele>
        <time>2022-09-25T13:52:16Z</time>
      </trkpt>
      <trkpt lat="45.691" lon="5.71263">
        <ele>220.7</ele>
        <time>2022-09-25T13:52:17Z</time>
      </trkpt>
      <trkpt lat="45.69103" lon="5.71264">
        <ele>220.7</ele>
        <time>2022-09-25T13:52:18Z</time>
      </trkpt>
      <trkpt lat="45.69106" lon="5.71264">
        <ele>220.8</ele>
        <time>2022-09-25T13:52:19Z</time>
      </trkpt>
      <trkpt lat="45.69109" lon="5.71264">
        <ele>220.9</ele>
        <time>2022-09-25T13:52:20Z</time>
      </trkpt>
      <trkpt lat="45.69113" lon="5.71262">
        <ele>220.9</ele>
        <time>2022-09-25T13:52:21Z</time>
      </trkpt>
      <trkpt lat="45.69116" lon="5.71259">
        <ele>220.7</ele>
        <time>2022-09-25T13:52:22Z</time>
      </trkpt>
      <trkpt lat="45.69118" lon="5.71255">
        <ele>220.5</ele>
        <time>2022-09-25T13:52:23Z</time>
      </trkpt>
      <trkpt lat="45.69121" lon="5.7125">
        <ele>220.3</ele>
        <time>2022-09-25T13:52:24Z</time>
      </trkpt>
      <trkpt lat="45.69122" lon="5.71243">
        <ele>220.1</ele>
        <time>2022-09-25T13:52:25Z</time>
      </trkpt>
      <trkpt lat="45.69124" lon="5.71237">
        <ele>219.9</ele>
        <time>2022-09-25T13:52:26Z</time>
      </trkpt>
      <trkpt lat="45.69125" lon="5.71231">
        <ele>219.8</ele>
        <time>2022-09-25T13:52:27Z</time>
      </trkpt>
      <trkpt lat="45.69126" lon="5.71224">
        <ele>219.6</ele>
        <time>2022-09-25T13:52:28Z</time>
      </trkpt>
      <trkpt lat="45.69128" lon="5.71217">
        <ele>219.5</ele>
        <time>2022-09-25T13:52:29Z</time>
      </trkpt>
      <trkpt lat="45.6913" lon="5.71211">
        <ele>219.5</ele>
        <time>2022-09-25T13:52:30Z</time>
      </trkpt>
      <trkpt lat="45.69131" lon="5.71204">
        <ele>219.4</ele>
        <time>2022-09-25T13:52:31Z</time>
      </trkpt>
      <trkpt lat="45.69132" lon="5.71198">
        <ele>219.3</ele>
        <time>2022-09-25T13:52:32Z</time>
      </trkpt>
      <trkpt lat="45.69133" lon="5.71191">
        <ele>219.3</ele>
        <time>2022-09-25T13:52:33Z</time>
      </trkpt>
      <trkpt lat="45.69134" lon="5.71183">
        <ele>219.2</ele>
        <time>2022-09-25T13:52:34Z</time>
      </trkpt>
      <trkpt lat="45.69133" lon="5.71176">
        <ele>219.2</ele>
        <time>2022-09-25T13:52:35Z</time>
      </trkpt>
      <trkpt lat="45.69135" lon="5.71171">
        <ele>219.2</ele>
        <time>2022-09-25T13:52:36Z</time>
      </trkpt>
      <trkpt lat="45.69137" lon="5.71164">
        <ele>219.2</ele>
        <time>2022-09-25T13:52:37Z</time>
      </trkpt>
      <trkpt lat="45.69138" lon="5.71156">
        <ele>219.2</ele>
        <time>2022-09-25T13:52:38Z</time>
      </trkpt>
      <trkpt lat="45.69139" lon="5.7115">
        <ele>219.2</ele>
        <time>2022-09-25T13:52:39Z</time>
      </trkpt>
      <trkpt lat="45.69139" lon="5.71143">
        <ele>219.2</ele>
        <time>2022-09-25T13:52:40Z</time>
      </trkpt>
      <trkpt lat="45.6914" lon="5.71137">
        <ele>219.2</ele>
        <time>2022-09-25T13:52:41Z</time>
      </trkpt>
      <trkpt lat="45.69141" lon="5.71129">
        <ele>219.2</ele>
        <time>2022-09-25T13:52:42Z</time>
      </trkpt>
      <trkpt lat="45.69143" lon="5.71123">
        <ele>219.2</ele>
        <time>2022-09-25T13:52:43Z</time>
      </trkpt>
      <trkpt lat="45.69143" lon="5.71115">
        <ele>219.2</ele>
        <time>2022-09-25T13:52:44Z</time>
      </trkpt>
      <trkpt lat="45.69145" lon="5.7111">
        <ele>219.3</ele>
        <time>2022-09-25T13:52:45Z</time>
      </trkpt>
      <trkpt lat="45.69146" lon="5.71103">
        <ele>219.3</ele>
        <time>2022-09-25T13:52:46Z</time>
      </trkpt>
      <trkpt lat="45.69146" lon="5.71096">
        <ele>219.3</ele>
        <time>2022-09-25T13:52:47Z</time>
      </trkpt>
      <trkpt lat="45.69146" lon="5.71089">
        <ele>219.4</ele>
        <time>2022-09-25T13:52:48Z</time>
      </trkpt>
      <trkpt lat="45.69148" lon="5.71083">
        <ele>219.4</ele>
        <time>2022-09-25T13:52:49Z</time>
      </trkpt>
      <trkpt lat="45.6915" lon="5.71077">
        <ele>219.4</ele>
        <time>2022-09-25T13:52:50Z</time>
      </trkpt>
      <trkpt lat="45.69153" lon="5.71071">
        <ele>219.5</ele>
        <time>2022-09-25T13:52:51Z</time>
      </trkpt>
      <trkpt lat="45.69157" lon="5.71068">
        <ele>219.5</ele>
        <time>2022-09-25T13:52:52Z</time>
      </trkpt>
      <trkpt lat="45.69161" lon="5.71066">
        <ele>219.5</ele>
        <time>2022-09-25T13:52:53Z</time>
      </trkpt>
      <trkpt lat="45.69165" lon="5.71064">
        <ele>219.5</ele>
        <time>2022-09-25T13:52:54Z</time>
      </trkpt>
      <trkpt lat="45.6917" lon="5.71062">
        <ele>219.4</ele>
        <time>2022-09-25T13:52:55Z</time>
      </trkpt>
      <trkpt lat="45.69173" lon="5.7106">
        <ele>219.4</ele>
        <time>2022-09-25T13:52:56Z</time>
      </trkpt>
      <trkpt lat="45.69178" lon="5.71058">
        <ele>219.4</ele>
        <time>2022-09-25T13:52:57Z</time>
      </trkpt>
      <trkpt lat="45.69182" lon="5.71056">
        <ele>219.4</ele>
        <time>2022-09-25T13:52:58Z</time>
      </trkpt>
      <trkpt lat="45.69187" lon="5.71053">
        <ele>219.4</ele>
        <time>2022-09-25T13:52:59Z</time>
      </trkpt>
      <trkpt lat="45.6919" lon="5.71051">
        <ele>219.4</ele>
        <time>2022-09-25T13:53:00Z</time>
      </trkpt>
      <trkpt lat="45.69195" lon="5.71048">
        <ele>219.4</ele>
        <time>2022-09-25T13:53:01Z</time>
      </trkpt>
      <trkpt lat="45.692" lon="5.71046">
        <ele>219.5</ele>
        <time>2022-09-25T13:53:02Z</time>
      </trkpt>
      <trkpt lat="45.69205" lon="5.71041">
        <ele>219.6</ele>
        <time>2022-09-25T13:53:03Z</time>
      </trkpt>
      <trkpt lat="45.69209" lon="5.71039">
        <ele>219.6</ele>
        <time>2022-09-25T13:53:04Z</time>
      </trkpt>
      <trkpt lat="45.69214" lon="5.71035">
        <ele>219.7</ele>
        <time>2022-09-25T13:53:05Z</time>
      </trkpt>
      <trkpt lat="45.69218" lon="5.71032">
        <ele>219.7</ele>
        <time>2022-09-25T13:53:06Z</time>
      </trkpt>
      <trkpt lat="45.69223" lon="5.71028">
        <ele>219.8</ele>
        <time>2022-09-25T13:53:07Z</time>
      </trkpt>
      <trkpt lat="45.69227" lon="5.71025">
        <ele>219.8</ele>
        <time>2022-09-25T13:53:08Z</time>
      </trkpt>
      <trkpt lat="45.69232" lon="5.71021">
        <ele>219.8</ele>
        <time>2022-09-25T13:53:09Z</time>
      </trkpt>
      <trkpt lat="45.69234" lon="5.71018">
        <ele>219.8</ele>
        <time>2022-09-25T13:53:10Z</time>
      </trkpt>
      <trkpt lat="45.69238" lon="5.71014">
        <ele>219.9</ele>
        <time>2022-09-25T13:53:11Z</time>
      </trkpt>
      <trkpt lat="45.69243" lon="5.7101">
        <ele>219.9</ele>
        <time>2022-09-25T13:53:12Z</time>
      </trkpt>
      <trkpt lat="45.69248" lon="5.71007">
        <ele>219.9</ele>
        <time>2022-09-25T13:53:13Z</time>
      </trkpt>
      <trkpt lat="45.69252" lon="5.71004">
        <ele>219.9</ele>
        <time>2022-09-25T13:53:14Z</time>
      </trkpt>
      <trkpt lat="45.69257" lon="5.71001">
        <ele>220</ele>
        <time>2022-09-25T13:53:15Z</time>
      </trkpt>
      <trkpt lat="45.69262" lon="5.70997">
        <ele>220</ele>
        <time>2022-09-25T13:53:16Z</time>
      </trkpt>
      <trkpt lat="45.69265" lon="5.70993">
        <ele>220</ele>
        <time>2022-09-25T13:53:17Z</time>
      </trkpt>
      <trkpt lat="45.6927" lon="5.70991">
        <ele>220</ele>
        <time>2022-09-25T13:53:18Z</time>
      </trkpt>
      <trkpt lat="45.69272" lon="5.70985">
        <ele>220</ele>
        <time>2022-09-25T13:53:19Z</time>
      </trkpt>
      <trkpt lat="45.69278" lon="5.70984">
        <ele>220</ele>
        <time>2022-09-25T13:53:20Z</time>
      </trkpt>
      <trkpt lat="45.69283" lon="5.7098">
        <ele>220</ele>
        <time>2022-09-25T13:53:21Z</time>
      </trkpt>
      <trkpt lat="45.69288" lon="5.70976">
        <ele>220</ele>
        <time>2022-09-25T13:53:22Z</time>
      </trkpt>
      <trkpt lat="45.69292" lon="5.70972">
        <ele>220.1</ele>
        <time>2022-09-25T13:53:23Z</time>
      </trkpt>
      <trkpt lat="45.69296" lon="5.70969">
        <ele>220.1</ele>
        <time>2022-09-25T13:53:24Z</time>
      </trkpt>
      <trkpt lat="45.69301" lon="5.70966">
        <ele>220.1</ele>
        <time>2022-09-25T13:53:25Z</time>
      </trkpt>
      <trkpt lat="45.69306" lon="5.70963">
        <ele>220.1</ele>
        <time>2022-09-25T13:53:26Z</time>
      </trkpt>
      <trkpt lat="45.69309" lon="5.70961">
        <ele>220.1</ele>
        <time>2022-09-25T13:53:27Z</time>
      </trkpt>
      <trkpt lat="45.69312" lon="5.70958">
        <ele>220.1</ele>
        <time>2022-09-25T13:53:28Z</time>
      </trkpt>
      <trkpt lat="45.69317" lon="5.70955">
        <ele>220</ele>
        <time>2022-09-25T13:53:29Z</time>
      </trkpt>
      <trkpt lat="45.69323" lon="5.70952">
        <ele>220</ele>
        <time>2022-09-25T13:53:30Z</time>
      </trkpt>
      <trkpt lat="45.69327" lon="5.70949">
        <ele>219.9</ele>
        <time>2022-09-25T13:53:31Z</time>
      </trkpt>
      <trkpt lat="45.69332" lon="5.70946">
        <ele>219.9</ele>
        <time>2022-09-25T13:53:32Z</time>
      </trkpt>
      <trkpt lat="45.69336" lon="5.70944">
        <ele>219.9</ele>
        <time>2022-09-25T13:53:33Z</time>
      </trkpt>
      <trkpt lat="45.69342" lon="5.70942">
        <ele>219.8</ele>
        <time>2022-09-25T13:53:34Z</time>
      </trkpt>
      <trkpt lat="45.69347" lon="5.70941">
        <ele>219.8</ele>
        <time>2022-09-25T13:53:35Z</time>
      </trkpt>
      <trkpt lat="45.69351" lon="5.7094">
        <ele>219.8</ele>
        <time>2022-09-25T13:53:36Z</time>
      </trkpt>
      <trkpt lat="45.69357" lon="5.70938">
        <ele>219.9</ele>
        <time>2022-09-25T13:53:37Z</time>
      </trkpt>
      <trkpt lat="45.69362" lon="5.70937">
        <ele>219.9</ele>
        <time>2022-09-25T13:53:38Z</time>
      </trkpt>
      <trkpt lat="45.69368" lon="5.70938">
        <ele>219.9</ele>
        <time>2022-09-25T13:53:39Z</time>
      </trkpt>
      <trkpt lat="45.69372" lon="5.70939">
        <ele>219.9</ele>
        <time>2022-09-25T13:53:40Z</time>
      </trkpt>
      <trkpt lat="45.69377" lon="5.7094">
        <ele>220</ele>
        <time>2022-09-25T13:53:41Z</time>
      </trkpt>
      <trkpt lat="45.69382" lon="5.7094">
        <ele>220</ele>
        <time>2022-09-25T13:53:42Z</time>
      </trkpt>
      <trkpt lat="45.69386" lon="5.70942">
        <ele>220.1</ele>
        <time>2022-09-25T13:53:43Z</time>
      </trkpt>
      <trkpt lat="45.6939" lon="5.70943">
        <ele>220.1</ele>
        <time>2022-09-25T13:53:44Z</time>
      </trkpt>
      <trkpt lat="45.69394" lon="5.70944">
        <ele>220.1</ele>
        <time>2022-09-25T13:53:45Z</time>
      </trkpt>
      <trkpt lat="45.69397" lon="5.70947">
        <ele>220.2</ele>
        <time>2022-09-25T13:53:46Z</time>
      </trkpt>
      <trkpt lat="45.69401" lon="5.70951">
        <ele>220.2</ele>
        <time>2022-09-25T13:53:47Z</time>
      </trkpt>
      <trkpt lat="45.69404" lon="5.70955">
        <ele>220.2</ele>
        <time>2022-09-25T13:53:48Z</time>
      </trkpt>
      <trkpt lat="45.69406" lon="5.7096">
        <ele>220.2</ele>
        <time>2022-09-25T13:53:49Z</time>
      </trkpt>
      <trkpt lat="45.69409" lon="5.70966">
        <ele>220.2</ele>
        <time>2022-09-25T13:53:50Z</time>
      </trkpt>
      <trkpt lat="45.69412" lon="5.70971">
        <ele>220.2</ele>
        <time>2022-09-25T13:53:51Z</time>
      </trkpt>
      <trkpt lat="45.69415" lon="5.70977">
        <ele>220.2</ele>
        <time>2022-09-25T13:53:52Z</time>
      </trkpt>
      <trkpt lat="45.69417" lon="5.70981">
        <ele>220.2</ele>
        <time>2022-09-25T13:53:53Z</time>
      </trkpt>
      <trkpt lat="45.69422" lon="5.70985">
        <ele>220.2</ele>
        <time>2022-09-25T13:53:54Z</time>
      </trkpt>
      <trkpt lat="45.69426" lon="5.70989">
        <ele>220.2</ele>
        <time>2022-09-25T13:53:55Z</time>
      </trkpt>
      <trkpt lat="45.69432" lon="5.70992">
        <ele>220.2</ele>
        <time>2022-09-25T13:53:56Z</time>
      </trkpt>
      <trkpt lat="45.69436" lon="5.70995">
        <ele>220.2</ele>
        <time>2022-09-25T13:53:57Z</time>
      </trkpt>
      <trkpt lat="45.69441" lon="5.70998">
        <ele>220.2</ele>
        <time>2022-09-25T13:53:58Z</time>
      </trkpt>
      <trkpt lat="45.69445" lon="5.70998">
        <ele>220.2</ele>
        <time>2022-09-25T13:53:59Z</time>
      </trkpt>
      <trkpt lat="45.6945" lon="5.70999">
        <ele>220.2</ele>
        <time>2022-09-25T13:54:00Z</time>
      </trkpt>
      <trkpt lat="45.69456" lon="5.71">
        <ele>220.2</ele>
        <time>2022-09-25T13:54:01Z</time>
      </trkpt>
      <trkpt lat="45.69461" lon="5.71002">
        <ele>220.2</ele>
        <time>2022-09-25T13:54:02Z</time>
      </trkpt>
      <trkpt lat="45.69466" lon="5.71001">
        <ele>220.2</ele>
        <time>2022-09-25T13:54:03Z</time>
      </trkpt>
      <trkpt lat="45.69472" lon="5.71001">
        <ele>220.2</ele>
        <time>2022-09-25T13:54:04Z</time>
      </trkpt>
      <trkpt lat="45.69478" lon="5.71001">
        <ele>220.3</ele>
        <time>2022-09-25T13:54:05Z</time>
      </trkpt>
      <trkpt lat="45.69484" lon="5.71002">
        <ele>220.3</ele>
        <time>2022-09-25T13:54:06Z</time>
      </trkpt>
      <trkpt lat="45.69489" lon="5.71002">
        <ele>220.4</ele>
        <time>2022-09-25T13:54:07Z</time>
      </trkpt>
      <trkpt lat="45.69494" lon="5.71003">
        <ele>220.4</ele>
        <time>2022-09-25T13:54:08Z</time>
      </trkpt>
      <trkpt lat="45.69499" lon="5.71004">
        <ele>220.4</ele>
        <time>2022-09-25T13:54:09Z</time>
      </trkpt>
      <trkpt lat="45.69504" lon="5.71005">
        <ele>220.4</ele>
        <time>2022-09-25T13:54:10Z</time>
      </trkpt>
      <trkpt lat="45.69508" lon="5.71006">
        <ele>220.5</ele>
        <time>2022-09-25T13:54:11Z</time>
      </trkpt>
      <trkpt lat="45.69515" lon="5.71009">
        <ele>220.5</ele>
        <time>2022-09-25T13:54:12Z</time>
      </trkpt>
      <trkpt lat="45.69519" lon="5.71008">
        <ele>220.5</ele>
        <time>2022-09-25T13:54:13Z</time>
      </trkpt>
      <trkpt lat="45.69524" lon="5.71008">
        <ele>220.6</ele>
        <time>2022-09-25T13:54:14Z</time>
      </trkpt>
      <trkpt lat="45.69529" lon="5.71007">
        <ele>220.6</ele>
        <time>2022-09-25T13:54:15Z</time>
      </trkpt>
      <trkpt lat="45.69534" lon="5.71007">
        <ele>220.6</ele>
        <time>2022-09-25T13:54:16Z</time>
      </trkpt>
      <trkpt lat="45.69538" lon="5.71007">
        <ele>220.6</ele>
        <time>2022-09-25T13:54:17Z</time>
      </trkpt>
      <trkpt lat="45.69543" lon="5.71005">
        <ele>220.6</ele>
        <time>2022-09-25T13:54:18Z</time>
      </trkpt>
      <trkpt lat="45.69548" lon="5.71002">
        <ele>220.6</ele>
        <time>2022-09-25T13:54:19Z</time>
      </trkpt>
      <trkpt lat="45.69553" lon="5.71">
        <ele>220.6</ele>
        <time>2022-09-25T13:54:20Z</time>
      </trkpt>
      <trkpt lat="45.69558" lon="5.70998">
        <ele>220.6</ele>
        <time>2022-09-25T13:54:21Z</time>
      </trkpt>
      <trkpt lat="45.69562" lon="5.70996">
        <ele>220.6</ele>
        <time>2022-09-25T13:54:22Z</time>
      </trkpt>
      <trkpt lat="45.69567" lon="5.70993">
        <ele>220.5</ele>
        <time>2022-09-25T13:54:23Z</time>
      </trkpt>
      <trkpt lat="45.69572" lon="5.70992">
        <ele>220.5</ele>
        <time>2022-09-25T13:54:24Z</time>
      </trkpt>
      <trkpt lat="45.69578" lon="5.70988">
        <ele>220.4</ele>
        <time>2022-09-25T13:54:25Z</time>
      </trkpt>
      <trkpt lat="45.69582" lon="5.70985">
        <ele>220.4</ele>
        <time>2022-09-25T13:54:26Z</time>
      </trkpt>
      <trkpt lat="45.69586" lon="5.70982">
        <ele>220.4</ele>
        <time>2022-09-25T13:54:27Z</time>
      </trkpt>
      <trkpt lat="45.69589" lon="5.7098">
        <ele>220.4</ele>
        <time>2022-09-25T13:54:28Z</time>
      </trkpt>
      <trkpt lat="45.69594" lon="5.70977">
        <ele>220.4</ele>
        <time>2022-09-25T13:54:29Z</time>
      </trkpt>
      <trkpt lat="45.69598" lon="5.70974">
        <ele>220.3</ele>
        <time>2022-09-25T13:54:30Z</time>
      </trkpt>
      <trkpt lat="45.69602" lon="5.70971">
        <ele>220.3</ele>
        <time>2022-09-25T13:54:31Z</time>
      </trkpt>
      <trkpt lat="45.69607" lon="5.70968">
        <ele>220.3</ele>
        <time>2022-09-25T13:54:32Z</time>
      </trkpt>
      <trkpt lat="45.69612" lon="5.70965">
        <ele>220.3</ele>
        <time>2022-09-25T13:54:33Z</time>
      </trkpt>
      <trkpt lat="45.69617" lon="5.70963">
        <ele>220.3</ele>
        <time>2022-09-25T13:54:34Z</time>
      </trkpt>
      <trkpt lat="45.69622" lon="5.70959">
        <ele>220.3</ele>
        <time>2022-09-25T13:54:35Z</time>
      </trkpt>
      <trkpt lat="45.69627" lon="5.70956">
        <ele>220.3</ele>
        <time>2022-09-25T13:54:36Z</time>
      </trkpt>
      <trkpt lat="45.69632" lon="5.70952">
        <ele>220.3</ele>
        <time>2022-09-25T13:54:37Z</time>
      </trkpt>
      <trkpt lat="45.69637" lon="5.70949">
        <ele>220.3</ele>
        <time>2022-09-25T13:54:38Z</time>
      </trkpt>
      <trkpt lat="45.69642" lon="5.70946">
        <ele>220.3</ele>
        <time>2022-09-25T13:54:39Z</time>
      </trkpt>
      <trkpt lat="45.69647" lon="5.70943">
        <ele>220.3</ele>
        <time>2022-09-25T13:54:40Z</time>
      </trkpt>
      <trkpt lat="45.69653" lon="5.70939">
        <ele>220.3</ele>
        <time>2022-09-25T13:54:41Z</time>
      </trkpt>
      <trkpt lat="45.69658" lon="5.70937">
        <ele>220.3</ele>
        <time>2022-09-25T13:54:42Z</time>
      </trkpt>
      <trkpt lat="45.69661" lon="5.70934">
        <ele>220.3</ele>
        <time>2022-09-25T13:54:43Z</time>
      </trkpt>
      <trkpt lat="45.69665" lon="5.70933">
        <ele>220.3</ele>
        <time>2022-09-25T13:54:44Z</time>
      </trkpt>
      <trkpt lat="45.69668" lon="5.70931">
        <ele>220.3</ele>
        <time>2022-09-25T13:54:45Z</time>
      </trkpt>
      <trkpt lat="45.69673" lon="5.70929">
        <ele>220.4</ele>
        <time>2022-09-25T13:54:46Z</time>
      </trkpt>
      <trkpt lat="45.69677" lon="5.70925">
        <ele>220.4</ele>
        <time>2022-09-25T13:54:47Z</time>
      </trkpt>
      <trkpt lat="45.6968" lon="5.70922">
        <ele>220.4</ele>
        <time>2022-09-25T13:54:48Z</time>
      </trkpt>
      <trkpt lat="45.69686" lon="5.70921">
        <ele>220.4</ele>
        <time>2022-09-25T13:54:49Z</time>
      </trkpt>
      <trkpt lat="45.69689" lon="5.70917">
        <ele>220.4</ele>
        <time>2022-09-25T13:54:50Z</time>
      </trkpt>
      <trkpt lat="45.69692" lon="5.70914">
        <ele>220.4</ele>
        <time>2022-09-25T13:54:51Z</time>
      </trkpt>
      <trkpt lat="45.69695" lon="5.70909">
        <ele>220.4</ele>
        <time>2022-09-25T13:54:52Z</time>
      </trkpt>
      <trkpt lat="45.69697" lon="5.70904">
        <ele>220.4</ele>
        <time>2022-09-25T13:54:53Z</time>
      </trkpt>
      <trkpt lat="45.697" lon="5.70899">
        <ele>220.4</ele>
        <time>2022-09-25T13:54:54Z</time>
      </trkpt>
      <trkpt lat="45.69702" lon="5.70894">
        <ele>220.4</ele>
        <time>2022-09-25T13:54:55Z</time>
      </trkpt>
      <trkpt lat="45.69704" lon="5.70889">
        <ele>220.4</ele>
        <time>2022-09-25T13:54:56Z</time>
      </trkpt>
      <trkpt lat="45.69706" lon="5.70884">
        <ele>220.4</ele>
        <time>2022-09-25T13:54:57Z</time>
      </trkpt>
      <trkpt lat="45.69708" lon="5.70879">
        <ele>220.4</ele>
        <time>2022-09-25T13:54:58Z</time>
      </trkpt>
      <trkpt lat="45.6971" lon="5.70873">
        <ele>220.4</ele>
        <time>2022-09-25T13:54:59Z</time>
      </trkpt>
      <trkpt lat="45.69713" lon="5.70869">
        <ele>220.4</ele>
        <time>2022-09-25T13:55:00Z</time>
      </trkpt>
      <trkpt lat="45.69714" lon="5.70863">
        <ele>220.4</ele>
        <time>2022-09-25T13:55:01Z</time>
      </trkpt>
      <trkpt lat="45.69716" lon="5.70859">
        <ele>220.4</ele>
        <time>2022-09-25T13:55:02Z</time>
      </trkpt>
      <trkpt lat="45.69718" lon="5.70853">
        <ele>220.4</ele>
        <time>2022-09-25T13:55:03Z</time>
      </trkpt>
      <trkpt lat="45.69718" lon="5.70848">
        <ele>220.4</ele>
        <time>2022-09-25T13:55:04Z</time>
      </trkpt>
      <trkpt lat="45.6972" lon="5.70842">
        <ele>220.5</ele>
        <time>2022-09-25T13:55:05Z</time>
      </trkpt>
      <trkpt lat="45.69722" lon="5.70838">
        <ele>220.5</ele>
        <time>2022-09-25T13:55:06Z</time>
      </trkpt>
      <trkpt lat="45.69724" lon="5.70834">
        <ele>220.5</ele>
        <time>2022-09-25T13:55:07Z</time>
      </trkpt>
      <trkpt lat="45.69727" lon="5.70831">
        <ele>220.5</ele>
        <time>2022-09-25T13:55:08Z</time>
      </trkpt>
      <trkpt lat="45.69731" lon="5.70828">
        <ele>220.5</ele>
        <time>2022-09-25T13:55:09Z</time>
      </trkpt>
      <trkpt lat="45.69734" lon="5.70826">
        <ele>220.5</ele>
        <time>2022-09-25T13:55:10Z</time>
      </trkpt>
      <trkpt lat="45.69738" lon="5.70825">
        <ele>220.5</ele>
        <time>2022-09-25T13:55:11Z</time>
      </trkpt>
      <trkpt lat="45.69742" lon="5.70825">
        <ele>220.5</ele>
        <time>2022-09-25T13:55:12Z</time>
      </trkpt>
      <trkpt lat="45.69747" lon="5.70826">
        <ele>220.5</ele>
        <time>2022-09-25T13:55:13Z</time>
      </trkpt>
      <trkpt lat="45.69751" lon="5.70827">
        <ele>220.5</ele>
        <time>2022-09-25T13:55:14Z</time>
      </trkpt>
      <trkpt lat="45.69754" lon="5.70828">
        <ele>220.5</ele>
        <time>2022-09-25T13:55:15Z</time>
      </trkpt>
      <trkpt lat="45.69758" lon="5.70827">
        <ele>220.5</ele>
        <time>2022-09-25T13:55:16Z</time>
      </trkpt>
      <trkpt lat="45.69762" lon="5.70828">
        <ele>220.6</ele>
        <time>2022-09-25T13:55:17Z</time>
      </trkpt>
      <trkpt lat="45.69766" lon="5.70827">
        <ele>220.6</ele>
        <time>2022-09-25T13:55:18Z</time>
      </trkpt>
      <trkpt lat="45.69769" lon="5.70826">
        <ele>220.6</ele>
        <time>2022-09-25T13:55:19Z</time>
      </trkpt>
      <trkpt lat="45.69773" lon="5.70824">
        <ele>220.6</ele>
        <time>2022-09-25T13:55:20Z</time>
      </trkpt>
      <trkpt lat="45.69776" lon="5.70823">
        <ele>220.7</ele>
        <time>2022-09-25T13:55:21Z</time>
      </trkpt>
      <trkpt lat="45.6978" lon="5.70821">
        <ele>220.7</ele>
        <time>2022-09-25T13:55:22Z</time>
      </trkpt>
      <trkpt lat="45.69783" lon="5.70818">
        <ele>220.7</ele>
        <time>2022-09-25T13:55:23Z</time>
      </trkpt>
      <trkpt lat="45.69786" lon="5.70815">
        <ele>220.8</ele>
        <time>2022-09-25T13:55:24Z</time>
      </trkpt>
      <trkpt lat="45.6979" lon="5.70811">
        <ele>220.8</ele>
        <time>2022-09-25T13:55:25Z</time>
      </trkpt>
      <trkpt lat="45.69794" lon="5.70807">
        <ele>220.8</ele>
        <time>2022-09-25T13:55:26Z</time>
      </trkpt>
      <trkpt lat="45.69797" lon="5.70803">
        <ele>220.8</ele>
        <time>2022-09-25T13:55:27Z</time>
      </trkpt>
      <trkpt lat="45.69801" lon="5.70799">
        <ele>220.9</ele>
        <time>2022-09-25T13:55:28Z</time>
      </trkpt>
      <trkpt lat="45.69804" lon="5.70794">
        <ele>220.9</ele>
        <time>2022-09-25T13:55:29Z</time>
      </trkpt>
      <trkpt lat="45.69808" lon="5.7079">
        <ele>220.9</ele>
        <time>2022-09-25T13:55:30Z</time>
      </trkpt>
      <trkpt lat="45.69811" lon="5.70785">
        <ele>220.9</ele>
        <time>2022-09-25T13:55:31Z</time>
      </trkpt>
      <trkpt lat="45.69815" lon="5.70781">
        <ele>220.9</ele>
        <time>2022-09-25T13:55:32Z</time>
      </trkpt>
      <trkpt lat="45.69818" lon="5.70776">
        <ele>220.9</ele>
        <time>2022-09-25T13:55:33Z</time>
      </trkpt>
      <trkpt lat="45.69822" lon="5.70771">
        <ele>220.9</ele>
        <time>2022-09-25T13:55:34Z</time>
      </trkpt>
      <trkpt lat="45.69825" lon="5.70766">
        <ele>220.9</ele>
        <time>2022-09-25T13:55:35Z</time>
      </trkpt>
      <trkpt lat="45.69828" lon="5.70761">
        <ele>220.9</ele>
        <time>2022-09-25T13:55:36Z</time>
      </trkpt>
      <trkpt lat="45.69832" lon="5.70756">
        <ele>220.9</ele>
        <time>2022-09-25T13:55:37Z</time>
      </trkpt>
      <trkpt lat="45.69835" lon="5.70751">
        <ele>220.9</ele>
        <time>2022-09-25T13:55:38Z</time>
      </trkpt>
      <trkpt lat="45.69838" lon="5.70745">
        <ele>220.9</ele>
        <time>2022-09-25T13:55:39Z</time>
      </trkpt>
      <trkpt lat="45.69841" lon="5.70739">
        <ele>220.9</ele>
        <time>2022-09-25T13:55:40Z</time>
      </trkpt>
      <trkpt lat="45.69844" lon="5.70734">
        <ele>220.9</ele>
        <time>2022-09-25T13:55:41Z</time>
      </trkpt>
      <trkpt lat="45.69846" lon="5.70728">
        <ele>220.9</ele>
        <time>2022-09-25T13:55:42Z</time>
      </trkpt>
      <trkpt lat="45.69849" lon="5.70723">
        <ele>220.9</ele>
        <time>2022-09-25T13:55:43Z</time>
      </trkpt>
      <trkpt lat="45.69852" lon="5.70717">
        <ele>220.9</ele>
        <time>2022-09-25T13:55:44Z</time>
      </trkpt>
      <trkpt lat="45.69854" lon="5.70712">
        <ele>220.9</ele>
        <time>2022-09-25T13:55:45Z</time>
      </trkpt>
      <trkpt lat="45.69856" lon="5.70706">
        <ele>220.9</ele>
        <time>2022-09-25T13:55:46Z</time>
      </trkpt>
      <trkpt lat="45.69859" lon="5.707">
        <ele>220.9</ele>
        <time>2022-09-25T13:55:47Z</time>
      </trkpt>
      <trkpt lat="45.69862" lon="5.70694">
        <ele>221</ele>
        <time>2022-09-25T13:55:48Z</time>
      </trkpt>
      <trkpt lat="45.69864" lon="5.70688">
        <ele>221</ele>
        <time>2022-09-25T13:55:49Z</time>
      </trkpt>
      <trkpt lat="45.69866" lon="5.70682">
        <ele>221</ele>
        <time>2022-09-25T13:55:50Z</time>
      </trkpt>
      <trkpt lat="45.69869" lon="5.70676">
        <ele>221</ele>
        <time>2022-09-25T13:55:51Z</time>
      </trkpt>
      <trkpt lat="45.69871" lon="5.7067">
        <ele>221</ele>
        <time>2022-09-25T13:55:52Z</time>
      </trkpt>
      <trkpt lat="45.69873" lon="5.70664">
        <ele>221</ele>
        <time>2022-09-25T13:55:53Z</time>
      </trkpt>
      <trkpt lat="45.69875" lon="5.70657">
        <ele>221</ele>
        <time>2022-09-25T13:55:54Z</time>
      </trkpt>
      <trkpt lat="45.69878" lon="5.70652">
        <ele>221.1</ele>
        <time>2022-09-25T13:55:55Z</time>
      </trkpt>
      <trkpt lat="45.69879" lon="5.70645">
        <ele>221.1</ele>
        <time>2022-09-25T13:55:56Z</time>
      </trkpt>
      <trkpt lat="45.69881" lon="5.70639">
        <ele>221.1</ele>
        <time>2022-09-25T13:55:57Z</time>
      </trkpt>
      <trkpt lat="45.69883" lon="5.70633">
        <ele>221.1</ele>
        <time>2022-09-25T13:55:58Z</time>
      </trkpt>
      <trkpt lat="45.69885" lon="5.70627">
        <ele>221.1</ele>
        <time>2022-09-25T13:55:59Z</time>
      </trkpt>
      <trkpt lat="45.69887" lon="5.70622">
        <ele>221.1</ele>
        <time>2022-09-25T13:56:00Z</time>
      </trkpt>
      <trkpt lat="45.69888" lon="5.70616">
        <ele>221.1</ele>
        <time>2022-09-25T13:56:01Z</time>
      </trkpt>
      <trkpt lat="45.6989" lon="5.70611">
        <ele>221.1</ele>
        <time>2022-09-25T13:56:02Z</time>
      </trkpt>
      <trkpt lat="45.69891" lon="5.70607">
        <ele>221.1</ele>
        <time>2022-09-25T13:56:03Z</time>
      </trkpt>
      <trkpt lat="45.69892" lon="5.70603">
        <ele>221.1</ele>
        <time>2022-09-25T13:56:04Z</time>
      </trkpt>
      <trkpt lat="45.69893" lon="5.70599">
        <ele>221.1</ele>
        <time>2022-09-25T13:56:05Z</time>
      </trkpt>
      <trkpt lat="45.69893" lon="5.70597">
        <ele>221.1</ele>
        <time>2022-09-25T13:56:06Z</time>
      </trkpt>
      <trkpt lat="45.69893" lon="5.70594">
        <ele>221.2</ele>
        <time>2022-09-25T13:56:07Z</time>
      </trkpt>
      <trkpt lat="45.69892" lon="5.70593">
        <ele>221.2</ele>
        <time>2022-09-25T13:56:08Z</time>
      </trkpt>
      <trkpt lat="45.69892" lon="5.70592">
        <ele>221.2</ele>
        <time>2022-09-25T13:56:09Z</time>
      </trkpt>
      <trkpt lat="45.69891" lon="5.70589">
        <ele>221.2</ele>
        <time>2022-09-25T13:56:10Z</time>
      </trkpt>
      <trkpt lat="45.69891" lon="5.7059">
        <ele>221.2</ele>
        <time>2022-09-25T13:56:11Z</time>
      </trkpt>
      <trkpt lat="45.69891" lon="5.70589">
        <ele>221.2</ele>
        <time>2022-09-25T13:56:12Z</time>
      </trkpt>
      <trkpt lat="45.69891" lon="5.70588">
        <ele>221.2</ele>
        <time>2022-09-25T13:56:13Z</time>
      </trkpt>
      <trkpt lat="45.6989" lon="5.70586">
        <ele>221.2</ele>
        <time>2022-09-25T13:56:14Z</time>
      </trkpt>
      <trkpt lat="45.6989" lon="5.70585">
        <ele>221.2</ele>
        <time>2022-09-25T13:56:15Z</time>
      </trkpt>
      <trkpt lat="45.6989" lon="5.70583">
        <ele>221.2</ele>
        <time>2022-09-25T13:56:16Z</time>
      </trkpt>
      <trkpt lat="45.6989" lon="5.70582">
        <ele>221.2</ele>
        <time>2022-09-25T13:56:17Z</time>
      </trkpt>
      <trkpt lat="45.69889" lon="5.7058">
        <ele>221.2</ele>
        <time>2022-09-25T13:56:18Z</time>
      </trkpt>
      <trkpt lat="45.69889" lon="5.70578">
        <ele>221.2</ele>
        <time>2022-09-25T13:56:19Z</time>
      </trkpt>
      <trkpt lat="45.69889" lon="5.70577">
        <ele>221.2</ele>
        <time>2022-09-25T13:56:20Z</time>
      </trkpt>
      <trkpt lat="45.69889" lon="5.70575">
        <ele>221.2</ele>
        <time>2022-09-25T13:58:50Z</time>
      </trkpt>
      <trkpt lat="45.69888" lon="5.70574">
        <ele>221.2</ele>
        <time>2022-09-25T13:58:51Z</time>
      </trkpt>
      <trkpt lat="45.6989" lon="5.7057">
        <ele>221.2</ele>
        <time>2022-09-25T13:58:52Z</time>
      </trkpt>
      <trkpt lat="45.6989" lon="5.70568">
        <ele>221.2</ele>
        <time>2022-09-25T13:58:53Z</time>
      </trkpt>
      <trkpt lat="45.69891" lon="5.70564">
        <ele>221.2</ele>
        <time>2022-09-25T13:58:54Z</time>
      </trkpt>
      <trkpt lat="45.69892" lon="5.70562">
        <ele>221.2</ele>
        <time>2022-09-25T13:58:55Z</time>
      </trkpt>
      <trkpt lat="45.69894" lon="5.70558">
        <ele>221.1</ele>
        <time>2022-09-25T13:58:56Z</time>
      </trkpt>
      <trkpt lat="45.69895" lon="5.70553">
        <ele>221.1</ele>
        <time>2022-09-25T13:58:57Z</time>
      </trkpt>
      <trkpt lat="45.69896" lon="5.70548">
        <ele>221.1</ele>
        <time>2022-09-25T13:58:58Z</time>
      </trkpt>
      <trkpt lat="45.69897" lon="5.70544">
        <ele>221.1</ele>
        <time>2022-09-25T13:58:59Z</time>
      </trkpt>
      <trkpt lat="45.69897" lon="5.70537">
        <ele>221.1</ele>
        <time>2022-09-25T13:59:00Z</time>
      </trkpt>
      <trkpt lat="45.69898" lon="5.7053">
        <ele>221.1</ele>
        <time>2022-09-25T13:59:01Z</time>
      </trkpt>
      <trkpt lat="45.69899" lon="5.70524">
        <ele>221</ele>
        <time>2022-09-25T13:59:02Z</time>
      </trkpt>
      <trkpt lat="45.699" lon="5.70517">
        <ele>221</ele>
        <time>2022-09-25T13:59:03Z</time>
      </trkpt>
      <trkpt lat="45.69901" lon="5.7051">
        <ele>221</ele>
        <time>2022-09-25T13:59:04Z</time>
      </trkpt>
      <trkpt lat="45.69902" lon="5.70504">
        <ele>221</ele>
        <time>2022-09-25T13:59:05Z</time>
      </trkpt>
      <trkpt lat="45.69903" lon="5.70497">
        <ele>221</ele>
        <time>2022-09-25T13:59:06Z</time>
      </trkpt>
      <trkpt lat="45.69904" lon="5.70491">
        <ele>221</ele>
        <time>2022-09-25T13:59:07Z</time>
      </trkpt>
      <trkpt lat="45.69907" lon="5.70484">
        <ele>220.9</ele>
        <time>2022-09-25T13:59:08Z</time>
      </trkpt>
      <trkpt lat="45.69909" lon="5.70478">
        <ele>220.9</ele>
        <time>2022-09-25T13:59:09Z</time>
      </trkpt>
      <trkpt lat="45.69911" lon="5.7047">
        <ele>220.9</ele>
        <time>2022-09-25T13:59:10Z</time>
      </trkpt>
      <trkpt lat="45.69913" lon="5.70464">
        <ele>221</ele>
        <time>2022-09-25T13:59:11Z</time>
      </trkpt>
      <trkpt lat="45.69915" lon="5.70456">
        <ele>221</ele>
        <time>2022-09-25T13:59:12Z</time>
      </trkpt>
      <trkpt lat="45.69919" lon="5.7045">
        <ele>221</ele>
        <time>2022-09-25T13:59:13Z</time>
      </trkpt>
      <trkpt lat="45.6992" lon="5.70444">
        <ele>221</ele>
        <time>2022-09-25T13:59:14Z</time>
      </trkpt>
      <trkpt lat="45.69923" lon="5.70438">
        <ele>221</ele>
        <time>2022-09-25T13:59:15Z</time>
      </trkpt>
      <trkpt lat="45.69926" lon="5.70432">
        <ele>221</ele>
        <time>2022-09-25T13:59:16Z</time>
      </trkpt>
      <trkpt lat="45.69929" lon="5.70426">
        <ele>221.1</ele>
        <time>2022-09-25T13:59:17Z</time>
      </trkpt>
      <trkpt lat="45.69933" lon="5.70421">
        <ele>221.1</ele>
        <time>2022-09-25T13:59:18Z</time>
      </trkpt>
      <trkpt lat="45.69936" lon="5.70415">
        <ele>221.1</ele>
        <time>2022-09-25T13:59:19Z</time>
      </trkpt>
      <trkpt lat="45.69939" lon="5.70409">
        <ele>221.1</ele>
        <time>2022-09-25T13:59:20Z</time>
      </trkpt>
      <trkpt lat="45.69942" lon="5.70404">
        <ele>221</ele>
        <time>2022-09-25T13:59:21Z</time>
      </trkpt>
      <trkpt lat="45.69946" lon="5.70399">
        <ele>221</ele>
        <time>2022-09-25T13:59:22Z</time>
      </trkpt>
      <trkpt lat="45.69949" lon="5.70393">
        <ele>221</ele>
        <time>2022-09-25T13:59:23Z</time>
      </trkpt>
      <trkpt lat="45.69952" lon="5.70387">
        <ele>221</ele>
        <time>2022-09-25T13:59:24Z</time>
      </trkpt>
      <trkpt lat="45.69956" lon="5.70382">
        <ele>221.1</ele>
        <time>2022-09-25T13:59:25Z</time>
      </trkpt>
      <trkpt lat="45.6996" lon="5.70376">
        <ele>221.1</ele>
        <time>2022-09-25T13:59:26Z</time>
      </trkpt>
      <trkpt lat="45.69963" lon="5.70371">
        <ele>221.1</ele>
        <time>2022-09-25T13:59:27Z</time>
      </trkpt>
      <trkpt lat="45.69967" lon="5.70367">
        <ele>221.2</ele>
        <time>2022-09-25T13:59:28Z</time>
      </trkpt>
      <trkpt lat="45.69971" lon="5.70363">
        <ele>221.2</ele>
        <time>2022-09-25T13:59:29Z</time>
      </trkpt>
      <trkpt lat="45.69976" lon="5.70358">
        <ele>221.3</ele>
        <time>2022-09-25T13:59:30Z</time>
      </trkpt>
      <trkpt lat="45.6998" lon="5.70354">
        <ele>221.3</ele>
        <time>2022-09-25T13:59:31Z</time>
      </trkpt>
      <trkpt lat="45.69984" lon="5.70351">
        <ele>221.3</ele>
        <time>2022-09-25T13:59:32Z</time>
      </trkpt>
      <trkpt lat="45.69988" lon="5.70346">
        <ele>221.3</ele>
        <time>2022-09-25T13:59:33Z</time>
      </trkpt>
      <trkpt lat="45.69993" lon="5.70343">
        <ele>221.3</ele>
        <time>2022-09-25T13:59:34Z</time>
      </trkpt>
      <trkpt lat="45.69998" lon="5.70339">
        <ele>221.4</ele>
        <time>2022-09-25T13:59:35Z</time>
      </trkpt>
      <trkpt lat="45.70002" lon="5.70335">
        <ele>221.4</ele>
        <time>2022-09-25T13:59:36Z</time>
      </trkpt>
      <trkpt lat="45.70007" lon="5.70331">
        <ele>221.4</ele>
        <time>2022-09-25T13:59:37Z</time>
      </trkpt>
      <trkpt lat="45.70012" lon="5.70327">
        <ele>221.4</ele>
        <time>2022-09-25T13:59:38Z</time>
      </trkpt>
      <trkpt lat="45.70016" lon="5.70324">
        <ele>221.5</ele>
        <time>2022-09-25T13:59:39Z</time>
      </trkpt>
      <trkpt lat="45.70021" lon="5.7032">
        <ele>221.5</ele>
        <time>2022-09-25T13:59:40Z</time>
      </trkpt>
      <trkpt lat="45.70025" lon="5.70316">
        <ele>221.5</ele>
        <time>2022-09-25T13:59:41Z</time>
      </trkpt>
      <trkpt lat="45.70031" lon="5.70313">
        <ele>221.5</ele>
        <time>2022-09-25T13:59:42Z</time>
      </trkpt>
      <trkpt lat="45.70035" lon="5.70309">
        <ele>221.5</ele>
        <time>2022-09-25T13:59:43Z</time>
      </trkpt>
      <trkpt lat="45.70039" lon="5.70305">
        <ele>221.5</ele>
        <time>2022-09-25T13:59:44Z</time>
      </trkpt>
      <trkpt lat="45.70044" lon="5.70302">
        <ele>221.5</ele>
        <time>2022-09-25T13:59:45Z</time>
      </trkpt>
      <trkpt lat="45.70049" lon="5.70298">
        <ele>221.6</ele>
        <time>2022-09-25T13:59:46Z</time>
      </trkpt>
      <trkpt lat="45.70054" lon="5.70295">
        <ele>221.6</ele>
        <time>2022-09-25T13:59:47Z</time>
      </trkpt>
      <trkpt lat="45.70059" lon="5.70292">
        <ele>221.6</ele>
        <time>2022-09-25T13:59:48Z</time>
      </trkpt>
      <trkpt lat="45.70063" lon="5.70289">
        <ele>221.6</ele>
        <time>2022-09-25T13:59:49Z</time>
      </trkpt>
      <trkpt lat="45.70069" lon="5.70286">
        <ele>221.6</ele>
        <time>2022-09-25T13:59:50Z</time>
      </trkpt>
      <trkpt lat="45.70074" lon="5.70282">
        <ele>221.6</ele>
        <time>2022-09-25T13:59:51Z</time>
      </trkpt>
      <trkpt lat="45.70078" lon="5.7028">
        <ele>221.6</ele>
        <time>2022-09-25T13:59:52Z</time>
      </trkpt>
      <trkpt lat="45.70083" lon="5.70276">
        <ele>221.6</ele>
        <time>2022-09-25T13:59:53Z</time>
      </trkpt>
      <trkpt lat="45.70088" lon="5.70273">
        <ele>221.6</ele>
        <time>2022-09-25T13:59:54Z</time>
      </trkpt>
      <trkpt lat="45.70094" lon="5.7027">
        <ele>221.6</ele>
        <time>2022-09-25T13:59:55Z</time>
      </trkpt>
      <trkpt lat="45.70098" lon="5.70266">
        <ele>221.6</ele>
        <time>2022-09-25T13:59:56Z</time>
      </trkpt>
      <trkpt lat="45.70103" lon="5.70264">
        <ele>221.6</ele>
        <time>2022-09-25T13:59:57Z</time>
      </trkpt>
      <trkpt lat="45.70108" lon="5.70261">
        <ele>221.6</ele>
        <time>2022-09-25T13:59:58Z</time>
      </trkpt>
      <trkpt lat="45.70114" lon="5.70257">
        <ele>221.6</ele>
        <time>2022-09-25T13:59:59Z</time>
      </trkpt>
      <trkpt lat="45.70117" lon="5.70254">
        <ele>221.7</ele>
        <time>2022-09-25T14:00:00Z</time>
      </trkpt>
      <trkpt lat="45.70123" lon="5.70252">
        <ele>221.7</ele>
        <time>2022-09-25T14:00:01Z</time>
      </trkpt>
      <trkpt lat="45.70128" lon="5.70247">
        <ele>221.7</ele>
        <time>2022-09-25T14:00:02Z</time>
      </trkpt>
      <trkpt lat="45.70132" lon="5.70245">
        <ele>221.7</ele>
        <time>2022-09-25T14:00:03Z</time>
      </trkpt>
      <trkpt lat="45.70137" lon="5.70242">
        <ele>221.7</ele>
        <time>2022-09-25T14:00:04Z</time>
      </trkpt>
      <trkpt lat="45.70142" lon="5.70238">
        <ele>221.8</ele>
        <time>2022-09-25T14:00:05Z</time>
      </trkpt>
      <trkpt lat="45.70147" lon="5.70235">
        <ele>221.8</ele>
        <time>2022-09-25T14:00:06Z</time>
      </trkpt>
      <trkpt lat="45.70151" lon="5.70232">
        <ele>221.9</ele>
        <time>2022-09-25T14:00:07Z</time>
      </trkpt>
      <trkpt lat="45.70156" lon="5.70229">
        <ele>221.9</ele>
        <time>2022-09-25T14:00:08Z</time>
      </trkpt>
      <trkpt lat="45.7016" lon="5.70225">
        <ele>222</ele>
        <time>2022-09-25T14:00:09Z</time>
      </trkpt>
      <trkpt lat="45.70165" lon="5.70222">
        <ele>222</ele>
        <time>2022-09-25T14:00:10Z</time>
      </trkpt>
      <trkpt lat="45.70169" lon="5.70218">
        <ele>222.1</ele>
        <time>2022-09-25T14:00:11Z</time>
      </trkpt>
      <trkpt lat="45.70174" lon="5.70214">
        <ele>222.1</ele>
        <time>2022-09-25T14:00:12Z</time>
      </trkpt>
      <trkpt lat="45.70178" lon="5.70211">
        <ele>222.1</ele>
        <time>2022-09-25T14:00:13Z</time>
      </trkpt>
      <trkpt lat="45.70183" lon="5.70208">
        <ele>222.1</ele>
        <time>2022-09-25T14:00:14Z</time>
      </trkpt>
      <trkpt lat="45.70188" lon="5.70204">
        <ele>222.2</ele>
        <time>2022-09-25T14:00:15Z</time>
      </trkpt>
      <trkpt lat="45.70191" lon="5.70202">
        <ele>222.2</ele>
        <time>2022-09-25T14:00:16Z</time>
      </trkpt>
      <trkpt lat="45.70197" lon="5.70199">
        <ele>222.2</ele>
        <time>2022-09-25T14:00:17Z</time>
      </trkpt>
      <trkpt lat="45.70202" lon="5.70195">
        <ele>222.2</ele>
        <time>2022-09-25T14:00:18Z</time>
      </trkpt>
      <trkpt lat="45.70205" lon="5.70191">
        <ele>222.2</ele>
        <time>2022-09-25T14:00:19Z</time>
      </trkpt>
      <trkpt lat="45.70209" lon="5.70188">
        <ele>222.2</ele>
        <time>2022-09-25T14:00:20Z</time>
      </trkpt>
      <trkpt lat="45.70215" lon="5.70184">
        <ele>222.1</ele>
        <time>2022-09-25T14:00:21Z</time>
      </trkpt>
      <trkpt lat="45.70219" lon="5.7018">
        <ele>222.1</ele>
        <time>2022-09-25T14:00:22Z</time>
      </trkpt>
      <trkpt lat="45.70224" lon="5.70176">
        <ele>222.1</ele>
        <time>2022-09-25T14:00:23Z</time>
      </trkpt>
      <trkpt lat="45.70229" lon="5.70172">
        <ele>222.1</ele>
        <time>2022-09-25T14:00:24Z</time>
      </trkpt>
      <trkpt lat="45.70234" lon="5.70169">
        <ele>222.1</ele>
        <time>2022-09-25T14:00:25Z</time>
      </trkpt>
      <trkpt lat="45.70239" lon="5.70165">
        <ele>222.1</ele>
        <time>2022-09-25T14:00:26Z</time>
      </trkpt>
      <trkpt lat="45.70243" lon="5.70162">
        <ele>222.1</ele>
        <time>2022-09-25T14:00:27Z</time>
      </trkpt>
      <trkpt lat="45.70249" lon="5.70158">
        <ele>222.1</ele>
        <time>2022-09-25T14:00:28Z</time>
      </trkpt>
      <trkpt lat="45.70254" lon="5.70154">
        <ele>222.1</ele>
        <time>2022-09-25T14:00:29Z</time>
      </trkpt>
      <trkpt lat="45.70258" lon="5.7015">
        <ele>222.1</ele>
        <time>2022-09-25T14:00:30Z</time>
      </trkpt>
      <trkpt lat="45.70262" lon="5.70147">
        <ele>222.1</ele>
        <time>2022-09-25T14:00:31Z</time>
      </trkpt>
      <trkpt lat="45.70268" lon="5.70143">
        <ele>222</ele>
        <time>2022-09-25T14:00:32Z</time>
      </trkpt>
      <trkpt lat="45.70272" lon="5.70141">
        <ele>222</ele>
        <time>2022-09-25T14:00:33Z</time>
      </trkpt>
      <trkpt lat="45.70277" lon="5.70138">
        <ele>222</ele>
        <time>2022-09-25T14:00:34Z</time>
      </trkpt>
      <trkpt lat="45.70283" lon="5.70135">
        <ele>221.9</ele>
        <time>2022-09-25T14:00:35Z</time>
      </trkpt>
      <trkpt lat="45.70289" lon="5.70133">
        <ele>221.8</ele>
        <time>2022-09-25T14:00:36Z</time>
      </trkpt>
      <trkpt lat="45.70294" lon="5.70131">
        <ele>221.8</ele>
        <time>2022-09-25T14:00:37Z</time>
      </trkpt>
      <trkpt lat="45.70299" lon="5.70129">
        <ele>221.7</ele>
        <time>2022-09-25T14:00:38Z</time>
      </trkpt>
      <trkpt lat="45.70305" lon="5.70129">
        <ele>221.7</ele>
        <time>2022-09-25T14:00:39Z</time>
      </trkpt>
      <trkpt lat="45.70311" lon="5.70129">
        <ele>221.6</ele>
        <time>2022-09-25T14:00:40Z</time>
      </trkpt>
      <trkpt lat="45.70316" lon="5.7013">
        <ele>221.6</ele>
        <time>2022-09-25T14:00:41Z</time>
      </trkpt>
      <trkpt lat="45.70321" lon="5.70131">
        <ele>221.5</ele>
        <time>2022-09-25T14:00:42Z</time>
      </trkpt>
      <trkpt lat="45.70327" lon="5.70131">
        <ele>221.4</ele>
        <time>2022-09-25T14:00:43Z</time>
      </trkpt>
      <trkpt lat="45.70333" lon="5.70132">
        <ele>221.4</ele>
        <time>2022-09-25T14:00:44Z</time>
      </trkpt>
      <trkpt lat="45.70339" lon="5.70133">
        <ele>221.3</ele>
        <time>2022-09-25T14:00:45Z</time>
      </trkpt>
      <trkpt lat="45.70345" lon="5.70135">
        <ele>221.2</ele>
        <time>2022-09-25T14:00:46Z</time>
      </trkpt>
      <trkpt lat="45.7035" lon="5.70136">
        <ele>221.2</ele>
        <time>2022-09-25T14:00:47Z</time>
      </trkpt>
      <trkpt lat="45.70355" lon="5.70138">
        <ele>221.1</ele>
        <time>2022-09-25T14:00:48Z</time>
      </trkpt>
      <trkpt lat="45.7036" lon="5.70139">
        <ele>221.1</ele>
        <time>2022-09-25T14:00:49Z</time>
      </trkpt>
      <trkpt lat="45.70364" lon="5.70141">
        <ele>221.1</ele>
        <time>2022-09-25T14:00:50Z</time>
      </trkpt>
      <trkpt lat="45.7037" lon="5.70142">
        <ele>221</ele>
        <time>2022-09-25T14:00:51Z</time>
      </trkpt>
      <trkpt lat="45.70376" lon="5.70143">
        <ele>221</ele>
        <time>2022-09-25T14:00:52Z</time>
      </trkpt>
      <trkpt lat="45.70382" lon="5.70144">
        <ele>220.9</ele>
        <time>2022-09-25T14:00:53Z</time>
      </trkpt>
      <trkpt lat="45.70387" lon="5.70145">
        <ele>220.9</ele>
        <time>2022-09-25T14:00:54Z</time>
      </trkpt>
      <trkpt lat="45.70393" lon="5.70146">
        <ele>220.9</ele>
        <time>2022-09-25T14:00:55Z</time>
      </trkpt>
      <trkpt lat="45.70398" lon="5.70146">
        <ele>220.9</ele>
        <time>2022-09-25T14:00:56Z</time>
      </trkpt>
      <trkpt lat="45.70404" lon="5.70145">
        <ele>220.8</ele>
        <time>2022-09-25T14:00:57Z</time>
      </trkpt>
      <trkpt lat="45.7041" lon="5.70145">
        <ele>220.8</ele>
        <time>2022-09-25T14:00:58Z</time>
      </trkpt>
      <trkpt lat="45.70415" lon="5.70144">
        <ele>220.8</ele>
        <time>2022-09-25T14:00:59Z</time>
      </trkpt>
      <trkpt lat="45.70421" lon="5.70142">
        <ele>220.7</ele>
        <time>2022-09-25T14:01:00Z</time>
      </trkpt>
      <trkpt lat="45.70426" lon="5.7014">
        <ele>220.7</ele>
        <time>2022-09-25T14:01:01Z</time>
      </trkpt>
      <trkpt lat="45.70431" lon="5.70139">
        <ele>220.7</ele>
        <time>2022-09-25T14:01:02Z</time>
      </trkpt>
      <trkpt lat="45.70436" lon="5.70136">
        <ele>220.7</ele>
        <time>2022-09-25T14:01:03Z</time>
      </trkpt>
      <trkpt lat="45.7044" lon="5.70136">
        <ele>220.7</ele>
        <time>2022-09-25T14:01:04Z</time>
      </trkpt>
      <trkpt lat="45.70447" lon="5.70134">
        <ele>220.7</ele>
        <time>2022-09-25T14:01:05Z</time>
      </trkpt>
      <trkpt lat="45.70453" lon="5.70131">
        <ele>220.7</ele>
        <time>2022-09-25T14:01:06Z</time>
      </trkpt>
      <trkpt lat="45.70458" lon="5.70129">
        <ele>220.7</ele>
        <time>2022-09-25T14:01:07Z</time>
      </trkpt>
      <trkpt lat="45.70463" lon="5.70128">
        <ele>220.8</ele>
        <time>2022-09-25T14:01:08Z</time>
      </trkpt>
      <trkpt lat="45.70469" lon="5.70126">
        <ele>220.8</ele>
        <time>2022-09-25T14:01:09Z</time>
      </trkpt>
      <trkpt lat="45.70473" lon="5.70123">
        <ele>220.8</ele>
        <time>2022-09-25T14:01:10Z</time>
      </trkpt>
      <trkpt lat="45.70478" lon="5.70121">
        <ele>220.9</ele>
        <time>2022-09-25T14:01:11Z</time>
      </trkpt>
      <trkpt lat="45.70483" lon="5.70121">
        <ele>220.9</ele>
        <time>2022-09-25T14:01:12Z</time>
      </trkpt>
      <trkpt lat="45.70488" lon="5.70117">
        <ele>220.9</ele>
        <time>2022-09-25T14:01:13Z</time>
      </trkpt>
      <trkpt lat="45.70494" lon="5.70116">
        <ele>220.8</ele>
        <time>2022-09-25T14:01:14Z</time>
      </trkpt>
      <trkpt lat="45.70499" lon="5.70112">
        <ele>220.8</ele>
        <time>2022-09-25T14:01:15Z</time>
      </trkpt>
      <trkpt lat="45.70505" lon="5.70111">
        <ele>220.9</ele>
        <time>2022-09-25T14:01:16Z</time>
      </trkpt>
      <trkpt lat="45.7051" lon="5.70109">
        <ele>220.9</ele>
        <time>2022-09-25T14:01:17Z</time>
      </trkpt>
      <trkpt lat="45.70515" lon="5.70107">
        <ele>220.9</ele>
        <time>2022-09-25T14:01:18Z</time>
      </trkpt>
      <trkpt lat="45.7052" lon="5.70105">
        <ele>220.9</ele>
        <time>2022-09-25T14:01:19Z</time>
      </trkpt>
      <trkpt lat="45.70525" lon="5.70102">
        <ele>221</ele>
        <time>2022-09-25T14:01:20Z</time>
      </trkpt>
      <trkpt lat="45.70531" lon="5.70102">
        <ele>221</ele>
        <time>2022-09-25T14:01:21Z</time>
      </trkpt>
      <trkpt lat="45.70536" lon="5.70099">
        <ele>221</ele>
        <time>2022-09-25T14:01:22Z</time>
      </trkpt>
      <trkpt lat="45.70541" lon="5.70098">
        <ele>221</ele>
        <time>2022-09-25T14:01:23Z</time>
      </trkpt>
      <trkpt lat="45.70546" lon="5.70096">
        <ele>221</ele>
        <time>2022-09-25T14:01:24Z</time>
      </trkpt>
      <trkpt lat="45.70551" lon="5.70096">
        <ele>221</ele>
        <time>2022-09-25T14:01:25Z</time>
      </trkpt>
      <trkpt lat="45.70556" lon="5.70094">
        <ele>221</ele>
        <time>2022-09-25T14:01:26Z</time>
      </trkpt>
      <trkpt lat="45.70561" lon="5.70092">
        <ele>221</ele>
        <time>2022-09-25T14:01:27Z</time>
      </trkpt>
      <trkpt lat="45.70566" lon="5.7009">
        <ele>221</ele>
        <time>2022-09-25T14:01:28Z</time>
      </trkpt>
      <trkpt lat="45.70571" lon="5.7009">
        <ele>221</ele>
        <time>2022-09-25T14:01:29Z</time>
      </trkpt>
      <trkpt lat="45.70577" lon="5.7009">
        <ele>221</ele>
        <time>2022-09-25T14:01:30Z</time>
      </trkpt>
      <trkpt lat="45.70582" lon="5.70089">
        <ele>221.1</ele>
        <time>2022-09-25T14:01:31Z</time>
      </trkpt>
      <trkpt lat="45.70588" lon="5.70087">
        <ele>221.1</ele>
        <time>2022-09-25T14:01:32Z</time>
      </trkpt>
      <trkpt lat="45.70593" lon="5.70087">
        <ele>221.1</ele>
        <time>2022-09-25T14:01:33Z</time>
      </trkpt>
      <trkpt lat="45.70598" lon="5.70087">
        <ele>221.1</ele>
        <time>2022-09-25T14:01:34Z</time>
      </trkpt>
      <trkpt lat="45.70604" lon="5.70087">
        <ele>221.1</ele>
        <time>2022-09-25T14:01:35Z</time>
      </trkpt>
      <trkpt lat="45.70609" lon="5.70086">
        <ele>221.1</ele>
        <time>2022-09-25T14:01:36Z</time>
      </trkpt>
      <trkpt lat="45.70613" lon="5.70085">
        <ele>221</ele>
        <time>2022-09-25T14:01:37Z</time>
      </trkpt>
      <trkpt lat="45.70619" lon="5.70085">
        <ele>221</ele>
        <time>2022-09-25T14:01:38Z</time>
      </trkpt>
      <trkpt lat="45.70625" lon="5.70084">
        <ele>221</ele>
        <time>2022-09-25T14:01:39Z</time>
      </trkpt>
      <trkpt lat="45.70631" lon="5.70083">
        <ele>221</ele>
        <time>2022-09-25T14:01:40Z</time>
      </trkpt>
      <trkpt lat="45.70637" lon="5.70084">
        <ele>220.9</ele>
        <time>2022-09-25T14:01:41Z</time>
      </trkpt>
      <trkpt lat="45.70641" lon="5.70083">
        <ele>220.9</ele>
        <time>2022-09-25T14:01:42Z</time>
      </trkpt>
      <trkpt lat="45.70648" lon="5.70083">
        <ele>220.9</ele>
        <time>2022-09-25T14:01:43Z</time>
      </trkpt>
      <trkpt lat="45.70653" lon="5.70082">
        <ele>220.9</ele>
        <time>2022-09-25T14:01:44Z</time>
      </trkpt>
      <trkpt lat="45.70659" lon="5.70081">
        <ele>220.9</ele>
        <time>2022-09-25T14:01:45Z</time>
      </trkpt>
      <trkpt lat="45.70665" lon="5.7008">
        <ele>220.8</ele>
        <time>2022-09-25T14:01:46Z</time>
      </trkpt>
      <trkpt lat="45.7067" lon="5.70079">
        <ele>220.8</ele>
        <time>2022-09-25T14:01:47Z</time>
      </trkpt>
      <trkpt lat="45.70676" lon="5.70079">
        <ele>220.8</ele>
        <time>2022-09-25T14:01:48Z</time>
      </trkpt>
      <trkpt lat="45.70682" lon="5.70078">
        <ele>220.8</ele>
        <time>2022-09-25T14:01:49Z</time>
      </trkpt>
      <trkpt lat="45.70687" lon="5.70077">
        <ele>220.7</ele>
        <time>2022-09-25T14:01:50Z</time>
      </trkpt>
      <trkpt lat="45.70693" lon="5.70076">
        <ele>220.7</ele>
        <time>2022-09-25T14:01:51Z</time>
      </trkpt>
      <trkpt lat="45.70698" lon="5.70075">
        <ele>220.7</ele>
        <time>2022-09-25T14:01:52Z</time>
      </trkpt>
      <trkpt lat="45.70704" lon="5.70073">
        <ele>220.7</ele>
        <time>2022-09-25T14:01:53Z</time>
      </trkpt>
      <trkpt lat="45.70709" lon="5.70072">
        <ele>220.8</ele>
        <time>2022-09-25T14:01:54Z</time>
      </trkpt>
      <trkpt lat="45.70715" lon="5.70071">
        <ele>220.8</ele>
        <time>2022-09-25T14:01:55Z</time>
      </trkpt>
      <trkpt lat="45.70721" lon="5.7007">
        <ele>220.8</ele>
        <time>2022-09-25T14:01:56Z</time>
      </trkpt>
      <trkpt lat="45.70726" lon="5.70069">
        <ele>220.8</ele>
        <time>2022-09-25T14:01:57Z</time>
      </trkpt>
      <trkpt lat="45.70731" lon="5.70068">
        <ele>220.9</ele>
        <time>2022-09-25T14:01:58Z</time>
      </trkpt>
      <trkpt lat="45.70737" lon="5.70067">
        <ele>220.9</ele>
        <time>2022-09-25T14:01:59Z</time>
      </trkpt>
      <trkpt lat="45.70742" lon="5.70067">
        <ele>220.9</ele>
        <time>2022-09-25T14:02:00Z</time>
      </trkpt>
      <trkpt lat="45.70748" lon="5.70066">
        <ele>220.9</ele>
        <time>2022-09-25T14:02:01Z</time>
      </trkpt>
      <trkpt lat="45.70753" lon="5.70065">
        <ele>220.9</ele>
        <time>2022-09-25T14:02:02Z</time>
      </trkpt>
      <trkpt lat="45.70758" lon="5.70064">
        <ele>220.9</ele>
        <time>2022-09-25T14:02:03Z</time>
      </trkpt>
      <trkpt lat="45.70764" lon="5.70061">
        <ele>220.9</ele>
        <time>2022-09-25T14:02:04Z</time>
      </trkpt>
      <trkpt lat="45.70768" lon="5.70059">
        <ele>220.9</ele>
        <time>2022-09-25T14:02:05Z</time>
      </trkpt>
      <trkpt lat="45.70774" lon="5.70058">
        <ele>220.9</ele>
        <time>2022-09-25T14:02:06Z</time>
      </trkpt>
      <trkpt lat="45.7078" lon="5.70057">
        <ele>220.9</ele>
        <time>2022-09-25T14:02:07Z</time>
      </trkpt>
      <trkpt lat="45.70785" lon="5.70055">
        <ele>220.9</ele>
        <time>2022-09-25T14:02:08Z</time>
      </trkpt>
      <trkpt lat="45.70791" lon="5.70053">
        <ele>220.9</ele>
        <time>2022-09-25T14:02:09Z</time>
      </trkpt>
      <trkpt lat="45.70795" lon="5.70051">
        <ele>220.9</ele>
        <time>2022-09-25T14:02:10Z</time>
      </trkpt>
      <trkpt lat="45.70801" lon="5.70049">
        <ele>221</ele>
        <time>2022-09-25T14:02:11Z</time>
      </trkpt>
      <trkpt lat="45.70805" lon="5.70047">
        <ele>221.1</ele>
        <time>2022-09-25T14:02:12Z</time>
      </trkpt>
      <trkpt lat="45.7081" lon="5.70045">
        <ele>221.1</ele>
        <time>2022-09-25T14:02:13Z</time>
      </trkpt>
      <trkpt lat="45.70814" lon="5.70042">
        <ele>221.2</ele>
        <time>2022-09-25T14:02:14Z</time>
      </trkpt>
      <trkpt lat="45.70818" lon="5.70042">
        <ele>221.3</ele>
        <time>2022-09-25T14:02:15Z</time>
      </trkpt>
      <trkpt lat="45.70822" lon="5.7004">
        <ele>221.4</ele>
        <time>2022-09-25T14:02:16Z</time>
      </trkpt>
      <trkpt lat="45.70826" lon="5.70039">
        <ele>221.5</ele>
        <time>2022-09-25T14:02:17Z</time>
      </trkpt>
      <trkpt lat="45.7083" lon="5.70035">
        <ele>221.6</ele>
        <time>2022-09-25T14:02:18Z</time>
      </trkpt>
      <trkpt lat="45.70833" lon="5.70035">
        <ele>221.7</ele>
        <time>2022-09-25T14:02:19Z</time>
      </trkpt>
      <trkpt lat="45.70836" lon="5.70036">
        <ele>221.7</ele>
        <time>2022-09-25T14:02:20Z</time>
      </trkpt>
      <trkpt lat="45.70837" lon="5.70038">
        <ele>221.7</ele>
        <time>2022-09-25T14:02:21Z</time>
      </trkpt>
      <trkpt lat="45.70838" lon="5.70043">
        <ele>221.6</ele>
        <time>2022-09-25T14:02:22Z</time>
      </trkpt>
      <trkpt lat="45.70837" lon="5.70047">
        <ele>221.5</ele>
        <time>2022-09-25T14:02:23Z</time>
      </trkpt>
      <trkpt lat="45.70836" lon="5.70051">
        <ele>221.4</ele>
        <time>2022-09-25T14:02:24Z</time>
      </trkpt>
      <trkpt lat="45.70834" lon="5.70055">
        <ele>221.4</ele>
        <time>2022-09-25T14:02:25Z</time>
      </trkpt>
      <trkpt lat="45.70833" lon="5.70057">
        <ele>221.3</ele>
        <time>2022-09-25T14:02:26Z</time>
      </trkpt>
      <trkpt lat="45.70832" lon="5.70063">
        <ele>221.2</ele>
        <time>2022-09-25T14:02:27Z</time>
      </trkpt>
      <trkpt lat="45.7083" lon="5.70072">
        <ele>221</ele>
        <time>2022-09-25T14:02:28Z</time>
      </trkpt>
      <trkpt lat="45.7083" lon="5.70078">
        <ele>221</ele>
        <time>2022-09-25T14:02:29Z</time>
      </trkpt>
      <trkpt lat="45.70829" lon="5.70085">
        <ele>220.9</ele>
        <time>2022-09-25T14:02:30Z</time>
      </trkpt>
      <trkpt lat="45.70828" lon="5.70092">
        <ele>220.8</ele>
        <time>2022-09-25T14:02:31Z</time>
      </trkpt>
      <trkpt lat="45.70828" lon="5.70098">
        <ele>220.7</ele>
        <time>2022-09-25T14:02:32Z</time>
      </trkpt>
      <trkpt lat="45.70827" lon="5.70106">
        <ele>220.7</ele>
        <time>2022-09-25T14:02:33Z</time>
      </trkpt>
      <trkpt lat="45.70826" lon="5.70113">
        <ele>220.6</ele>
        <time>2022-09-25T14:02:34Z</time>
      </trkpt>
      <trkpt lat="45.70826" lon="5.70121">
        <ele>220.6</ele>
        <time>2022-09-25T14:02:35Z</time>
      </trkpt>
      <trkpt lat="45.70826" lon="5.70127">
        <ele>220.5</ele>
        <time>2022-09-25T14:02:36Z</time>
      </trkpt>
      <trkpt lat="45.70825" lon="5.70135">
        <ele>220.5</ele>
        <time>2022-09-25T14:02:37Z</time>
      </trkpt>
      <trkpt lat="45.70823" lon="5.70142">
        <ele>220.5</ele>
        <time>2022-09-25T14:02:38Z</time>
      </trkpt>
      <trkpt lat="45.70821" lon="5.70151">
        <ele>220.5</ele>
        <time>2022-09-25T14:02:39Z</time>
      </trkpt>
      <trkpt lat="45.7082" lon="5.70158">
        <ele>220.5</ele>
        <time>2022-09-25T14:02:40Z</time>
      </trkpt>
      <trkpt lat="45.7082" lon="5.70164">
        <ele>220.5</ele>
        <time>2022-09-25T14:02:41Z</time>
      </trkpt>
      <trkpt lat="45.7082" lon="5.70173">
        <ele>220.6</ele>
        <time>2022-09-25T14:02:42Z</time>
      </trkpt>
      <trkpt lat="45.70819" lon="5.7018">
        <ele>220.6</ele>
        <time>2022-09-25T14:02:43Z</time>
      </trkpt>
      <trkpt lat="45.70818" lon="5.70188">
        <ele>220.6</ele>
        <time>2022-09-25T14:02:44Z</time>
      </trkpt>
      <trkpt lat="45.70817" lon="5.70196">
        <ele>220.7</ele>
        <time>2022-09-25T14:02:45Z</time>
      </trkpt>
      <trkpt lat="45.70815" lon="5.70203">
        <ele>220.7</ele>
        <time>2022-09-25T14:02:46Z</time>
      </trkpt>
      <trkpt lat="45.70814" lon="5.70209">
        <ele>220.8</ele>
        <time>2022-09-25T14:02:47Z</time>
      </trkpt>
      <trkpt lat="45.70812" lon="5.70216">
        <ele>220.9</ele>
        <time>2022-09-25T14:02:48Z</time>
      </trkpt>
      <trkpt lat="45.70813" lon="5.7022">
        <ele>220.9</ele>
        <time>2022-09-25T14:02:49Z</time>
      </trkpt>
      <trkpt lat="45.70811" lon="5.70227">
        <ele>221.1</ele>
        <time>2022-09-25T14:02:50Z</time>
      </trkpt>
      <trkpt lat="45.7081" lon="5.70234">
        <ele>221.2</ele>
        <time>2022-09-25T14:02:51Z</time>
      </trkpt>
      <trkpt lat="45.70811" lon="5.70239">
        <ele>221.3</ele>
        <time>2022-09-25T14:02:52Z</time>
      </trkpt>
      <trkpt lat="45.70811" lon="5.70244">
        <ele>221.4</ele>
        <time>2022-09-25T14:02:53Z</time>
      </trkpt>
      <trkpt lat="45.70813" lon="5.70247">
        <ele>221.5</ele>
        <time>2022-09-25T14:02:54Z</time>
      </trkpt>
      <trkpt lat="45.70816" lon="5.70249">
        <ele>221.6</ele>
        <time>2022-09-25T14:02:55Z</time>
      </trkpt>
      <trkpt lat="45.70819" lon="5.70252">
        <ele>221.8</ele>
        <time>2022-09-25T14:02:56Z</time>
      </trkpt>
      <trkpt lat="45.70823" lon="5.70254">
        <ele>221.8</ele>
        <time>2022-09-25T14:02:57Z</time>
      </trkpt>
      <trkpt lat="45.70827" lon="5.70254">
        <ele>221.8</ele>
        <time>2022-09-25T14:02:58Z</time>
      </trkpt>
      <trkpt lat="45.70831" lon="5.70256">
        <ele>221.7</ele>
        <time>2022-09-25T14:02:59Z</time>
      </trkpt>
      <trkpt lat="45.70835" lon="5.70256">
        <ele>221.7</ele>
        <time>2022-09-25T14:03:00Z</time>
      </trkpt>
      <trkpt lat="45.7084" lon="5.70257">
        <ele>221.7</ele>
        <time>2022-09-25T14:03:01Z</time>
      </trkpt>
      <trkpt lat="45.70844" lon="5.70257">
        <ele>221.7</ele>
        <time>2022-09-25T14:03:02Z</time>
      </trkpt>
      <trkpt lat="45.70848" lon="5.70256">
        <ele>221.7</ele>
        <time>2022-09-25T14:03:03Z</time>
      </trkpt>
      <trkpt lat="45.70853" lon="5.70256">
        <ele>221.7</ele>
        <time>2022-09-25T14:03:04Z</time>
      </trkpt>
      <trkpt lat="45.70856" lon="5.70255">
        <ele>221.8</ele>
        <time>2022-09-25T14:03:05Z</time>
      </trkpt>
      <trkpt lat="45.70861" lon="5.70255">
        <ele>221.8</ele>
        <time>2022-09-25T14:03:06Z</time>
      </trkpt>
      <trkpt lat="45.70865" lon="5.70254">
        <ele>221.8</ele>
        <time>2022-09-25T14:03:07Z</time>
      </trkpt>
      <trkpt lat="45.70868" lon="5.70254">
        <ele>221.8</ele>
        <time>2022-09-25T14:03:08Z</time>
      </trkpt>
      <trkpt lat="45.70872" lon="5.70255">
        <ele>221.9</ele>
        <time>2022-09-25T14:03:09Z</time>
      </trkpt>
      <trkpt lat="45.70874" lon="5.70255">
        <ele>221.9</ele>
        <time>2022-09-25T14:03:10Z</time>
      </trkpt>
      <trkpt lat="45.70879" lon="5.70254">
        <ele>221.9</ele>
        <time>2022-09-25T14:03:11Z</time>
      </trkpt>
      <trkpt lat="45.70884" lon="5.70254">
        <ele>222</ele>
        <time>2022-09-25T14:03:12Z</time>
      </trkpt>
      <trkpt lat="45.70888" lon="5.70254">
        <ele>222</ele>
        <time>2022-09-25T14:03:13Z</time>
      </trkpt>
      <trkpt lat="45.70892" lon="5.70254">
        <ele>222</ele>
        <time>2022-09-25T14:03:14Z</time>
      </trkpt>
      <trkpt lat="45.70896" lon="5.70252">
        <ele>222</ele>
        <time>2022-09-25T14:03:15Z</time>
      </trkpt>
      <trkpt lat="45.70899" lon="5.70252">
        <ele>222.1</ele>
        <time>2022-09-25T14:03:16Z</time>
      </trkpt>
      <trkpt lat="45.70903" lon="5.70253">
        <ele>222.1</ele>
        <time>2022-09-25T14:03:17Z</time>
      </trkpt>
      <trkpt lat="45.70906" lon="5.70251">
        <ele>222.1</ele>
        <time>2022-09-25T14:03:18Z</time>
      </trkpt>
      <trkpt lat="45.7091" lon="5.70251">
        <ele>222.1</ele>
        <time>2022-09-25T14:03:19Z</time>
      </trkpt>
      <trkpt lat="45.70913" lon="5.70252">
        <ele>222.1</ele>
        <time>2022-09-25T14:03:20Z</time>
      </trkpt>
      <trkpt lat="45.70916" lon="5.70254">
        <ele>222.1</ele>
        <time>2022-09-25T14:03:21Z</time>
      </trkpt>
      <trkpt lat="45.7092" lon="5.70256">
        <ele>222.1</ele>
        <time>2022-09-25T14:03:22Z</time>
      </trkpt>
      <trkpt lat="45.70925" lon="5.70261">
        <ele>222.1</ele>
        <time>2022-09-25T14:03:23Z</time>
      </trkpt>
      <trkpt lat="45.70929" lon="5.70264">
        <ele>222.1</ele>
        <time>2022-09-25T14:03:24Z</time>
      </trkpt>
      <trkpt lat="45.70932" lon="5.70267">
        <ele>222.1</ele>
        <time>2022-09-25T14:03:25Z</time>
      </trkpt>
      <trkpt lat="45.70935" lon="5.70274">
        <ele>222.1</ele>
        <time>2022-09-25T14:03:26Z</time>
      </trkpt>
      <trkpt lat="45.70938" lon="5.70279">
        <ele>222.1</ele>
        <time>2022-09-25T14:03:27Z</time>
      </trkpt>
      <trkpt lat="45.7094" lon="5.70286">
        <ele>222.1</ele>
        <time>2022-09-25T14:03:28Z</time>
      </trkpt>
      <trkpt lat="45.70942" lon="5.70292">
        <ele>222.1</ele>
        <time>2022-09-25T14:03:29Z</time>
      </trkpt>
      <trkpt lat="45.70945" lon="5.703">
        <ele>222.1</ele>
        <time>2022-09-25T14:03:30Z</time>
      </trkpt>
      <trkpt lat="45.70946" lon="5.70308">
        <ele>222.1</ele>
        <time>2022-09-25T14:03:31Z</time>
      </trkpt>
      <trkpt lat="45.70947" lon="5.70314">
        <ele>222.1</ele>
        <time>2022-09-25T14:03:32Z</time>
      </trkpt>
      <trkpt lat="45.70949" lon="5.7032">
        <ele>222.1</ele>
        <time>2022-09-25T14:03:33Z</time>
      </trkpt>
      <trkpt lat="45.7095" lon="5.70325">
        <ele>222.1</ele>
        <time>2022-09-25T14:03:34Z</time>
      </trkpt>
      <trkpt lat="45.70951" lon="5.70332">
        <ele>222.2</ele>
        <time>2022-09-25T14:03:35Z</time>
      </trkpt>
      <trkpt lat="45.70951" lon="5.70339">
        <ele>222.2</ele>
        <time>2022-09-25T14:03:36Z</time>
      </trkpt>
      <trkpt lat="45.70951" lon="5.70346">
        <ele>222.2</ele>
        <time>2022-09-25T14:03:37Z</time>
      </trkpt>
      <trkpt lat="45.70952" lon="5.70352">
        <ele>222.2</ele>
        <time>2022-09-25T14:03:38Z</time>
      </trkpt>
      <trkpt lat="45.70952" lon="5.70359">
        <ele>222.2</ele>
        <time>2022-09-25T14:03:39Z</time>
      </trkpt>
      <trkpt lat="45.70953" lon="5.70364">
        <ele>222.2</ele>
        <time>2022-09-25T14:03:40Z</time>
      </trkpt>
      <trkpt lat="45.70953" lon="5.70371">
        <ele>222.3</ele>
        <time>2022-09-25T14:03:41Z</time>
      </trkpt>
      <trkpt lat="45.70953" lon="5.70376">
        <ele>222.3</ele>
        <time>2022-09-25T14:03:42Z</time>
      </trkpt>
      <trkpt lat="45.70954" lon="5.70381">
        <ele>222.3</ele>
        <time>2022-09-25T14:03:43Z</time>
      </trkpt>
      <trkpt lat="45.70954" lon="5.70387">
        <ele>222.3</ele>
        <time>2022-09-25T14:03:44Z</time>
      </trkpt>
      <trkpt lat="45.70955" lon="5.70395">
        <ele>222.3</ele>
        <time>2022-09-25T14:03:45Z</time>
      </trkpt>
      <trkpt lat="45.70956" lon="5.70403">
        <ele>222.3</ele>
        <time>2022-09-25T14:03:46Z</time>
      </trkpt>
      <trkpt lat="45.70957" lon="5.7041">
        <ele>222.3</ele>
        <time>2022-09-25T14:03:47Z</time>
      </trkpt>
      <trkpt lat="45.70958" lon="5.70417">
        <ele>222.3</ele>
        <time>2022-09-25T14:03:48Z</time>
      </trkpt>
      <trkpt lat="45.70959" lon="5.70423">
        <ele>222.3</ele>
        <time>2022-09-25T14:03:49Z</time>
      </trkpt>
      <trkpt lat="45.7096" lon="5.70431">
        <ele>222.3</ele>
        <time>2022-09-25T14:03:50Z</time>
      </trkpt>
      <trkpt lat="45.70961" lon="5.70439">
        <ele>222.4</ele>
        <time>2022-09-25T14:03:51Z</time>
      </trkpt>
      <trkpt lat="45.70962" lon="5.70444">
        <ele>222.4</ele>
        <time>2022-09-25T14:03:52Z</time>
      </trkpt>
      <trkpt lat="45.70964" lon="5.70452">
        <ele>222.4</ele>
        <time>2022-09-25T14:03:53Z</time>
      </trkpt>
      <trkpt lat="45.70965" lon="5.7046">
        <ele>222.5</ele>
        <time>2022-09-25T14:03:54Z</time>
      </trkpt>
      <trkpt lat="45.70966" lon="5.70466">
        <ele>222.6</ele>
        <time>2022-09-25T14:03:55Z</time>
      </trkpt>
      <trkpt lat="45.70967" lon="5.70472">
        <ele>222.6</ele>
        <time>2022-09-25T14:03:56Z</time>
      </trkpt>
      <trkpt lat="45.70967" lon="5.70479">
        <ele>222.7</ele>
        <time>2022-09-25T14:03:57Z</time>
      </trkpt>
      <trkpt lat="45.70969" lon="5.70486">
        <ele>222.7</ele>
        <time>2022-09-25T14:03:58Z</time>
      </trkpt>
      <trkpt lat="45.7097" lon="5.70493">
        <ele>222.8</ele>
        <time>2022-09-25T14:03:59Z</time>
      </trkpt>
      <trkpt lat="45.70971" lon="5.70498">
        <ele>222.8</ele>
        <time>2022-09-25T14:04:00Z</time>
      </trkpt>
      <trkpt lat="45.70972" lon="5.70505">
        <ele>222.9</ele>
        <time>2022-09-25T14:04:01Z</time>
      </trkpt>
      <trkpt lat="45.70971" lon="5.70512">
        <ele>222.9</ele>
        <time>2022-09-25T14:04:02Z</time>
      </trkpt>
      <trkpt lat="45.70972" lon="5.70518">
        <ele>222.9</ele>
        <time>2022-09-25T14:04:03Z</time>
      </trkpt>
      <trkpt lat="45.70973" lon="5.70523">
        <ele>223</ele>
        <time>2022-09-25T14:04:04Z</time>
      </trkpt>
      <trkpt lat="45.70974" lon="5.70527">
        <ele>223</ele>
        <time>2022-09-25T14:04:05Z</time>
      </trkpt>
      <trkpt lat="45.70975" lon="5.70531">
        <ele>223</ele>
        <time>2022-09-25T14:04:06Z</time>
      </trkpt>
      <trkpt lat="45.70976" lon="5.70533">
        <ele>223</ele>
        <time>2022-09-25T14:04:07Z</time>
      </trkpt>
      <trkpt lat="45.70977" lon="5.70535">
        <ele>223.1</ele>
        <time>2022-09-25T14:04:08Z</time>
      </trkpt>
      <trkpt lat="45.70979" lon="5.70534">
        <ele>223.1</ele>
        <time>2022-09-25T14:04:09Z</time>
      </trkpt>
      <trkpt lat="45.7098" lon="5.70531">
        <ele>223.2</ele>
        <time>2022-09-25T14:04:10Z</time>
      </trkpt>
      <trkpt lat="45.70981" lon="5.7053">
        <ele>223.2</ele>
        <time>2022-09-25T14:04:11Z</time>
      </trkpt>
      <trkpt lat="45.70982" lon="5.70527">
        <ele>223.3</ele>
        <time>2022-09-25T14:04:12Z</time>
      </trkpt>
      <trkpt lat="45.70982" lon="5.70525">
        <ele>223.3</ele>
        <time>2022-09-25T14:04:13Z</time>
      </trkpt>
      <trkpt lat="45.70983" lon="5.70523">
        <ele>223.3</ele>
        <time>2022-09-25T14:04:14Z</time>
      </trkpt>
      <trkpt lat="45.70983" lon="5.70521">
        <ele>223.4</ele>
        <time>2022-09-25T14:04:15Z</time>
      </trkpt>
      <trkpt lat="45.70984" lon="5.70521">
        <ele>223.4</ele>
        <time>2022-09-25T14:04:16Z</time>
      </trkpt>
      <trkpt lat="45.70985" lon="5.70521">
        <ele>223.4</ele>
        <time>2022-09-25T14:04:17Z</time>
      </trkpt>
      <trkpt lat="45.70985" lon="5.70521">
        <ele>223.4</ele>
        <time>2022-09-25T14:04:18Z</time>
      </trkpt>
      <trkpt lat="45.70986" lon="5.70521">
        <ele>223.4</ele>
        <time>2022-09-25T14:04:19Z</time>
      </trkpt>
      <trkpt lat="45.70986" lon="5.70521">
        <ele>223.4</ele>
        <time>2022-09-25T14:04:20Z</time>
      </trkpt>
      <trkpt lat="45.70987" lon="5.7052">
        <ele>223.5</ele>
        <time>2022-09-25T14:04:21Z</time>
      </trkpt>
      <trkpt lat="45.70988" lon="5.7052">
        <ele>223.5</ele>
        <time>2022-09-25T14:04:22Z</time>
      </trkpt>
      <trkpt lat="45.70988" lon="5.7052">
        <ele>223.5</ele>
        <time>2022-09-25T14:04:23Z</time>
      </trkpt>
      <trkpt lat="45.70989" lon="5.7052">
        <ele>223.5</ele>
        <time>2022-09-25T14:04:24Z</time>
      </trkpt>
      <trkpt lat="45.70989" lon="5.7052">
        <ele>223.5</ele>
        <time>2022-09-25T14:04:25Z</time>
      </trkpt>
      <trkpt lat="45.7099" lon="5.7052">
        <ele>223.5</ele>
        <time>2022-09-25T14:04:35Z</time>
      </trkpt>
      <trkpt lat="45.7099" lon="5.70519">
        <ele>223.5</ele>
        <time>2022-09-25T14:04:36Z</time>
      </trkpt>
      <trkpt lat="45.70991" lon="5.70519">
        <ele>223.6</ele>
        <time>2022-09-25T14:04:37Z</time>
      </trkpt>
      <trkpt lat="45.70992" lon="5.70519">
        <ele>223.6</ele>
        <time>2022-09-25T14:04:38Z</time>
      </trkpt>
      <trkpt lat="45.70994" lon="5.70519">
        <ele>223.6</ele>
        <time>2022-09-25T14:04:39Z</time>
      </trkpt>
      <trkpt lat="45.70996" lon="5.7052">
        <ele>223.7</ele>
        <time>2022-09-25T14:04:40Z</time>
      </trkpt>
      <trkpt lat="45.70998" lon="5.70519">
        <ele>223.7</ele>
        <time>2022-09-25T14:04:41Z</time>
      </trkpt>
      <trkpt lat="45.71" lon="5.70518">
        <ele>223.8</ele>
        <time>2022-09-25T14:04:42Z</time>
      </trkpt>
      <trkpt lat="45.71001" lon="5.70518">
        <ele>223.8</ele>
        <time>2022-09-25T14:04:43Z</time>
      </trkpt>
      <trkpt lat="45.71004" lon="5.70518">
        <ele>223.9</ele>
        <time>2022-09-25T14:04:44Z</time>
      </trkpt>
      <trkpt lat="45.71005" lon="5.70518">
        <ele>224</ele>
        <time>2022-09-25T14:04:45Z</time>
      </trkpt>
      <trkpt lat="45.71007" lon="5.70518">
        <ele>224</ele>
        <time>2022-09-25T14:04:46Z</time>
      </trkpt>
      <trkpt lat="45.71008" lon="5.70518">
        <ele>224.1</ele>
        <time>2022-09-25T14:04:47Z</time>
      </trkpt>
      <trkpt lat="45.7101" lon="5.70518">
        <ele>224.1</ele>
        <time>2022-09-25T14:04:48Z</time>
      </trkpt>
      <trkpt lat="45.71011" lon="5.70518">
        <ele>224.1</ele>
        <time>2022-09-25T14:04:49Z</time>
      </trkpt>
      <trkpt lat="45.71015" lon="5.70518">
        <ele>224.2</ele>
        <time>2022-09-25T14:04:50Z</time>
      </trkpt>
      <trkpt lat="45.71016" lon="5.70518">
        <ele>224.3</ele>
        <time>2022-09-25T14:04:51Z</time>
      </trkpt>
      <trkpt lat="45.71019" lon="5.70517">
        <ele>224.4</ele>
        <time>2022-09-25T14:04:52Z</time>
      </trkpt>
      <trkpt lat="45.7102" lon="5.70517">
        <ele>224.4</ele>
        <time>2022-09-25T14:04:53Z</time>
      </trkpt>
      <trkpt lat="45.71022" lon="5.70517">
        <ele>224.5</ele>
        <time>2022-09-25T14:04:54Z</time>
      </trkpt>
      <trkpt lat="45.71023" lon="5.70517">
        <ele>224.5</ele>
        <time>2022-09-25T14:04:55Z</time>
      </trkpt>
      <trkpt lat="45.71027" lon="5.70517">
        <ele>224.6</ele>
        <time>2022-09-25T14:04:56Z</time>
      </trkpt>
      <trkpt lat="45.71028" lon="5.70517">
        <ele>224.6</ele>
        <time>2022-09-25T14:04:57Z</time>
      </trkpt>
      <trkpt lat="45.71031" lon="5.70516">
        <ele>224.7</ele>
        <time>2022-09-25T14:04:58Z</time>
      </trkpt>
      <trkpt lat="45.71032" lon="5.70516">
        <ele>224.7</ele>
        <time>2022-09-25T14:04:59Z</time>
      </trkpt>
      <trkpt lat="45.71034" lon="5.70516">
        <ele>224.8</ele>
        <time>2022-09-25T14:05:00Z</time>
      </trkpt>
      <trkpt lat="45.71035" lon="5.70515">
        <ele>224.8</ele>
        <time>2022-09-25T14:05:01Z</time>
      </trkpt>
      <trkpt lat="45.71039" lon="5.70515">
        <ele>224.9</ele>
        <time>2022-09-25T14:05:02Z</time>
      </trkpt>
      <trkpt lat="45.7104" lon="5.70515">
        <ele>225</ele>
        <time>2022-09-25T14:05:03Z</time>
      </trkpt>
      <trkpt lat="45.71043" lon="5.70514">
        <ele>225</ele>
        <time>2022-09-25T14:05:04Z</time>
      </trkpt>
      <trkpt lat="45.71044" lon="5.70514">
        <ele>225.1</ele>
        <time>2022-09-25T14:05:05Z</time>
      </trkpt>
      <trkpt lat="45.71047" lon="5.70514">
        <ele>225.1</ele>
        <time>2022-09-25T14:05:06Z</time>
      </trkpt>
      <trkpt lat="45.71048" lon="5.70514">
        <ele>225.1</ele>
        <time>2022-09-25T14:05:07Z</time>
      </trkpt>
      <trkpt lat="45.71052" lon="5.70514">
        <ele>225.2</ele>
        <time>2022-09-25T14:05:08Z</time>
      </trkpt>
      <trkpt lat="45.71053" lon="5.70513">
        <ele>225.2</ele>
        <time>2022-09-25T14:05:09Z</time>
      </trkpt>
      <trkpt lat="45.71056" lon="5.70513">
        <ele>225.3</ele>
        <time>2022-09-25T14:05:10Z</time>
      </trkpt>
      <trkpt lat="45.71057" lon="5.70513">
        <ele>225.3</ele>
        <time>2022-09-25T14:05:11Z</time>
      </trkpt>
      <trkpt lat="45.71061" lon="5.70512">
        <ele>225.4</ele>
        <time>2022-09-25T14:05:12Z</time>
      </trkpt>
      <trkpt lat="45.71062" lon="5.70512">
        <ele>225.4</ele>
        <time>2022-09-25T14:05:13Z</time>
      </trkpt>
      <trkpt lat="45.71066" lon="5.70512">
        <ele>225.4</ele>
        <time>2022-09-25T14:05:14Z</time>
      </trkpt>
      <trkpt lat="45.71067" lon="5.70512">
        <ele>225.4</ele>
        <time>2022-09-25T14:05:15Z</time>
      </trkpt>
      <trkpt lat="45.71071" lon="5.70512">
        <ele>225.5</ele>
        <time>2022-09-25T14:05:16Z</time>
      </trkpt>
      <trkpt lat="45.71072" lon="5.70511">
        <ele>225.5</ele>
        <time>2022-09-25T14:05:17Z</time>
      </trkpt>
      <trkpt lat="45.71076" lon="5.70511">
        <ele>225.5</ele>
        <time>2022-09-25T14:05:18Z</time>
      </trkpt>
      <trkpt lat="45.71077" lon="5.70511">
        <ele>225.5</ele>
        <time>2022-09-25T14:05:19Z</time>
      </trkpt>
      <trkpt lat="45.7108" lon="5.70511">
        <ele>225.5</ele>
        <time>2022-09-25T14:05:20Z</time>
      </trkpt>
      <trkpt lat="45.71083" lon="5.7051">
        <ele>225.5</ele>
        <time>2022-09-25T14:05:21Z</time>
      </trkpt>
      <trkpt lat="45.71086" lon="5.7051">
        <ele>225.5</ele>
        <time>2022-09-25T14:05:22Z</time>
      </trkpt>
      <trkpt lat="45.7109" lon="5.70509">
        <ele>225.4</ele>
        <time>2022-09-25T14:05:23Z</time>
      </trkpt>
      <trkpt lat="45.71092" lon="5.70509">
        <ele>225.4</ele>
        <time>2022-09-25T14:05:24Z</time>
      </trkpt>
      <trkpt lat="45.71095" lon="5.70509">
        <ele>225.4</ele>
        <time>2022-09-25T14:05:25Z</time>
      </trkpt>
      <trkpt lat="45.71097" lon="5.70508">
        <ele>225.4</ele>
        <time>2022-09-25T14:05:26Z</time>
      </trkpt>
      <trkpt lat="45.711" lon="5.70508">
        <ele>225.3</ele>
        <time>2022-09-25T14:05:27Z</time>
      </trkpt>
      <trkpt lat="45.71104" lon="5.70508">
        <ele>225.3</ele>
        <time>2022-09-25T14:05:28Z</time>
      </trkpt>
      <trkpt lat="45.71106" lon="5.70508">
        <ele>225.3</ele>
        <time>2022-09-25T14:05:29Z</time>
      </trkpt>
      <trkpt lat="45.71109" lon="5.70507">
        <ele>225.2</ele>
        <time>2022-09-25T14:05:30Z</time>
      </trkpt>
      <trkpt lat="45.71112" lon="5.70507">
        <ele>225.2</ele>
        <time>2022-09-25T14:05:31Z</time>
      </trkpt>
      <trkpt lat="45.71116" lon="5.70506">
        <ele>225.1</ele>
        <time>2022-09-25T14:05:32Z</time>
      </trkpt>
      <trkpt lat="45.71118" lon="5.70506">
        <ele>225.1</ele>
        <time>2022-09-25T14:05:33Z</time>
      </trkpt>
      <trkpt lat="45.7112" lon="5.70505">
        <ele>225</ele>
        <time>2022-09-25T14:05:34Z</time>
      </trkpt>
      <trkpt lat="45.71124" lon="5.70505">
        <ele>224.9</ele>
        <time>2022-09-25T14:05:35Z</time>
      </trkpt>
      <trkpt lat="45.71127" lon="5.70505">
        <ele>224.8</ele>
        <time>2022-09-25T14:05:36Z</time>
      </trkpt>
      <trkpt lat="45.7113" lon="5.70506">
        <ele>224.8</ele>
        <time>2022-09-25T14:05:37Z</time>
      </trkpt>
      <trkpt lat="45.71133" lon="5.70506">
        <ele>224.6</ele>
        <time>2022-09-25T14:05:38Z</time>
      </trkpt>
      <trkpt lat="45.71136" lon="5.70505">
        <ele>224.5</ele>
        <time>2022-09-25T14:05:39Z</time>
      </trkpt>
      <trkpt lat="45.7114" lon="5.70505">
        <ele>224.4</ele>
        <time>2022-09-25T14:05:40Z</time>
      </trkpt>
      <trkpt lat="45.71142" lon="5.70504">
        <ele>224.4</ele>
        <time>2022-09-25T14:05:41Z</time>
      </trkpt>
      <trkpt lat="45.71145" lon="5.70503">
        <ele>224.3</ele>
        <time>2022-09-25T14:05:42Z</time>
      </trkpt>
      <trkpt lat="45.71147" lon="5.70502">
        <ele>224.2</ele>
        <time>2022-09-25T14:05:43Z</time>
      </trkpt>
      <trkpt lat="45.7115" lon="5.70502">
        <ele>224.1</ele>
        <time>2022-09-25T14:05:44Z</time>
      </trkpt>
      <trkpt lat="45.71153" lon="5.70502">
        <ele>224</ele>
        <time>2022-09-25T14:05:45Z</time>
      </trkpt>
      <trkpt lat="45.71156" lon="5.70503">
        <ele>223.9</ele>
        <time>2022-09-25T14:05:46Z</time>
      </trkpt>
      <trkpt lat="45.71158" lon="5.70503">
        <ele>223.8</ele>
        <time>2022-09-25T14:05:47Z</time>
      </trkpt>
      <trkpt lat="45.71161" lon="5.70501">
        <ele>223.7</ele>
        <time>2022-09-25T14:05:48Z</time>
      </trkpt>
      <trkpt lat="45.71164" lon="5.70501">
        <ele>223.6</ele>
        <time>2022-09-25T14:05:49Z</time>
      </trkpt>
      <trkpt lat="45.71166" lon="5.70501">
        <ele>223.6</ele>
        <time>2022-09-25T14:05:50Z</time>
      </trkpt>
      <trkpt lat="45.71169" lon="5.705">
        <ele>223.5</ele>
        <time>2022-09-25T14:05:51Z</time>
      </trkpt>
      <trkpt lat="45.71173" lon="5.705">
        <ele>223.4</ele>
        <time>2022-09-25T14:05:52Z</time>
      </trkpt>
      <trkpt lat="45.71176" lon="5.70499">
        <ele>223.3</ele>
        <time>2022-09-25T14:05:53Z</time>
      </trkpt>
      <trkpt lat="45.7118" lon="5.70499">
        <ele>223.2</ele>
        <time>2022-09-25T14:05:54Z</time>
      </trkpt>
      <trkpt lat="45.71184" lon="5.70498">
        <ele>223.2</ele>
        <time>2022-09-25T14:05:55Z</time>
      </trkpt>
      <trkpt lat="45.71187" lon="5.70498">
        <ele>223.2</ele>
        <time>2022-09-25T14:05:56Z</time>
      </trkpt>
      <trkpt lat="45.71191" lon="5.70498">
        <ele>223.1</ele>
        <time>2022-09-25T14:05:57Z</time>
      </trkpt>
      <trkpt lat="45.71194" lon="5.70497">
        <ele>223.1</ele>
        <time>2022-09-25T14:05:58Z</time>
      </trkpt>
      <trkpt lat="45.71197" lon="5.70496">
        <ele>223.1</ele>
        <time>2022-09-25T14:05:59Z</time>
      </trkpt>
      <trkpt lat="45.71199" lon="5.70494">
        <ele>223.1</ele>
        <time>2022-09-25T14:06:00Z</time>
      </trkpt>
      <trkpt lat="45.71202" lon="5.70491">
        <ele>223.1</ele>
        <time>2022-09-25T14:06:01Z</time>
      </trkpt>
      <trkpt lat="45.71204" lon="5.70488">
        <ele>223</ele>
        <time>2022-09-25T14:06:02Z</time>
      </trkpt>
      <trkpt lat="45.71205" lon="5.70483">
        <ele>223</ele>
        <time>2022-09-25T14:06:03Z</time>
      </trkpt>
      <trkpt lat="45.71206" lon="5.70478">
        <ele>223</ele>
        <time>2022-09-25T14:06:04Z</time>
      </trkpt>
      <trkpt lat="45.71206" lon="5.70474">
        <ele>222.9</ele>
        <time>2022-09-25T14:06:05Z</time>
      </trkpt>
      <trkpt lat="45.71205" lon="5.70469">
        <ele>222.9</ele>
        <time>2022-09-25T14:06:06Z</time>
      </trkpt>
      <trkpt lat="45.71204" lon="5.70465">
        <ele>222.9</ele>
        <time>2022-09-25T14:06:07Z</time>
      </trkpt>
      <trkpt lat="45.71202" lon="5.70461">
        <ele>222.8</ele>
        <time>2022-09-25T14:06:08Z</time>
      </trkpt>
      <trkpt lat="45.712" lon="5.70457">
        <ele>222.8</ele>
        <time>2022-09-25T14:06:09Z</time>
      </trkpt>
      <trkpt lat="45.71198" lon="5.70454">
        <ele>222.8</ele>
        <time>2022-09-25T14:06:10Z</time>
      </trkpt>
      <trkpt lat="45.71197" lon="5.70449">
        <ele>222.7</ele>
        <time>2022-09-25T14:06:11Z</time>
      </trkpt>
      <trkpt lat="45.71195" lon="5.70445">
        <ele>222.7</ele>
        <time>2022-09-25T14:06:12Z</time>
      </trkpt>
      <trkpt lat="45.71193" lon="5.70441">
        <ele>222.7</ele>
        <time>2022-09-25T14:06:13Z</time>
      </trkpt>
      <trkpt lat="45.7119" lon="5.70437">
        <ele>222.6</ele>
        <time>2022-09-25T14:06:14Z</time>
      </trkpt>
      <trkpt lat="45.71188" lon="5.70433">
        <ele>222.6</ele>
        <time>2022-09-25T14:06:15Z</time>
      </trkpt>
      <trkpt lat="45.71185" lon="5.70428">
        <ele>222.5</ele>
        <time>2022-09-25T14:06:16Z</time>
      </trkpt>
      <trkpt lat="45.71183" lon="5.70424">
        <ele>222.5</ele>
        <time>2022-09-25T14:06:17Z</time>
      </trkpt>
      <trkpt lat="45.71181" lon="5.70418">
        <ele>222.5</ele>
        <time>2022-09-25T14:06:18Z</time>
      </trkpt>
      <trkpt lat="45.71178" lon="5.70414">
        <ele>222.4</ele>
        <time>2022-09-25T14:06:19Z</time>
      </trkpt>
      <trkpt lat="45.71176" lon="5.70409">
        <ele>222.4</ele>
        <time>2022-09-25T14:06:20Z</time>
      </trkpt>
      <trkpt lat="45.71173" lon="5.70404">
        <ele>222.4</ele>
        <time>2022-09-25T14:06:21Z</time>
      </trkpt>
      <trkpt lat="45.71171" lon="5.70399">
        <ele>222.4</ele>
        <time>2022-09-25T14:06:22Z</time>
      </trkpt>
      <trkpt lat="45.71168" lon="5.70394">
        <ele>222.4</ele>
        <time>2022-09-25T14:06:23Z</time>
      </trkpt>
      <trkpt lat="45.71165" lon="5.70389">
        <ele>222.4</ele>
        <time>2022-09-25T14:06:24Z</time>
      </trkpt>
      <trkpt lat="45.71163" lon="5.70384">
        <ele>222.4</ele>
        <time>2022-09-25T14:06:25Z</time>
      </trkpt>
      <trkpt lat="45.71161" lon="5.7038">
        <ele>222.4</ele>
        <time>2022-09-25T14:06:26Z</time>
      </trkpt>
      <trkpt lat="45.71159" lon="5.70375">
        <ele>222.4</ele>
        <time>2022-09-25T14:06:27Z</time>
      </trkpt>
      <trkpt lat="45.71159" lon="5.7037">
        <ele>222.4</ele>
        <time>2022-09-25T14:06:28Z</time>
      </trkpt>
      <trkpt lat="45.71159" lon="5.70364">
        <ele>222.4</ele>
        <time>2022-09-25T14:06:29Z</time>
      </trkpt>
      <trkpt lat="45.71159" lon="5.70358">
        <ele>222.3</ele>
        <time>2022-09-25T14:06:30Z</time>
      </trkpt>
      <trkpt lat="45.71158" lon="5.70352">
        <ele>222.3</ele>
        <time>2022-09-25T14:06:31Z</time>
      </trkpt>
      <trkpt lat="45.71158" lon="5.70346">
        <ele>222.3</ele>
        <time>2022-09-25T14:06:32Z</time>
      </trkpt>
      <trkpt lat="45.71157" lon="5.7034">
        <ele>222.3</ele>
        <time>2022-09-25T14:06:33Z</time>
      </trkpt>
      <trkpt lat="45.71156" lon="5.70333">
        <ele>222.3</ele>
        <time>2022-09-25T14:06:34Z</time>
      </trkpt>
      <trkpt lat="45.71155" lon="5.70327">
        <ele>222.3</ele>
        <time>2022-09-25T14:06:35Z</time>
      </trkpt>
      <trkpt lat="45.71155" lon="5.70321">
        <ele>222.3</ele>
        <time>2022-09-25T14:06:36Z</time>
      </trkpt>
      <trkpt lat="45.71154" lon="5.70314">
        <ele>222.3</ele>
        <time>2022-09-25T14:06:37Z</time>
      </trkpt>
      <trkpt lat="45.71154" lon="5.70308">
        <ele>222.3</ele>
        <time>2022-09-25T14:06:38Z</time>
      </trkpt>
      <trkpt lat="45.71153" lon="5.70302">
        <ele>222.3</ele>
        <time>2022-09-25T14:06:39Z</time>
      </trkpt>
      <trkpt lat="45.71152" lon="5.70295">
        <ele>222.3</ele>
        <time>2022-09-25T14:06:40Z</time>
      </trkpt>
      <trkpt lat="45.71151" lon="5.70289">
        <ele>222.3</ele>
        <time>2022-09-25T14:06:41Z</time>
      </trkpt>
      <trkpt lat="45.71151" lon="5.70283">
        <ele>222.3</ele>
        <time>2022-09-25T14:06:42Z</time>
      </trkpt>
      <trkpt lat="45.7115" lon="5.70276">
        <ele>222.3</ele>
        <time>2022-09-25T14:06:43Z</time>
      </trkpt>
      <trkpt lat="45.71149" lon="5.7027">
        <ele>222.3</ele>
        <time>2022-09-25T14:06:44Z</time>
      </trkpt>
      <trkpt lat="45.71148" lon="5.70263">
        <ele>222.4</ele>
        <time>2022-09-25T14:06:45Z</time>
      </trkpt>
      <trkpt lat="45.71147" lon="5.70256">
        <ele>222.4</ele>
        <time>2022-09-25T14:06:46Z</time>
      </trkpt>
      <trkpt lat="45.71146" lon="5.70249">
        <ele>222.4</ele>
        <time>2022-09-25T14:06:47Z</time>
      </trkpt>
      <trkpt lat="45.71145" lon="5.70243">
        <ele>222.4</ele>
        <time>2022-09-25T14:06:48Z</time>
      </trkpt>
      <trkpt lat="45.71144" lon="5.70237">
        <ele>222.4</ele>
        <time>2022-09-25T14:06:49Z</time>
      </trkpt>
      <trkpt lat="45.71143" lon="5.70231">
        <ele>222.4</ele>
        <time>2022-09-25T14:06:50Z</time>
      </trkpt>
      <trkpt lat="45.71142" lon="5.70224">
        <ele>222.5</ele>
        <time>2022-09-25T14:06:51Z</time>
      </trkpt>
      <trkpt lat="45.71141" lon="5.70218">
        <ele>222.5</ele>
        <time>2022-09-25T14:06:52Z</time>
      </trkpt>
      <trkpt lat="45.71139" lon="5.70211">
        <ele>222.5</ele>
        <time>2022-09-25T14:06:53Z</time>
      </trkpt>
      <trkpt lat="45.71137" lon="5.70205">
        <ele>222.5</ele>
        <time>2022-09-25T14:06:54Z</time>
      </trkpt>
      <trkpt lat="45.71136" lon="5.70199">
        <ele>222.4</ele>
        <time>2022-09-25T14:06:55Z</time>
      </trkpt>
      <trkpt lat="45.71135" lon="5.70192">
        <ele>222.4</ele>
        <time>2022-09-25T14:06:56Z</time>
      </trkpt>
      <trkpt lat="45.71134" lon="5.70185">
        <ele>222.4</ele>
        <time>2022-09-25T14:06:57Z</time>
      </trkpt>
      <trkpt lat="45.71132" lon="5.7018">
        <ele>222.4</ele>
        <time>2022-09-25T14:06:58Z</time>
      </trkpt>
      <trkpt lat="45.7113" lon="5.70173">
        <ele>222.4</ele>
        <time>2022-09-25T14:06:59Z</time>
      </trkpt>
      <trkpt lat="45.71129" lon="5.70167">
        <ele>222.4</ele>
        <time>2022-09-25T14:07:00Z</time>
      </trkpt>
      <trkpt lat="45.71127" lon="5.70162">
        <ele>222.4</ele>
        <time>2022-09-25T14:07:01Z</time>
      </trkpt>
      <trkpt lat="45.71125" lon="5.70156">
        <ele>222.4</ele>
        <time>2022-09-25T14:07:02Z</time>
      </trkpt>
      <trkpt lat="45.71123" lon="5.70151">
        <ele>222.4</ele>
        <time>2022-09-25T14:07:03Z</time>
      </trkpt>
      <trkpt lat="45.71122" lon="5.70146">
        <ele>222.5</ele>
        <time>2022-09-25T14:07:04Z</time>
      </trkpt>
      <trkpt lat="45.7112" lon="5.70141">
        <ele>222.5</ele>
        <time>2022-09-25T14:07:05Z</time>
      </trkpt>
      <trkpt lat="45.71118" lon="5.70135">
        <ele>222.5</ele>
        <time>2022-09-25T14:07:06Z</time>
      </trkpt>
      <trkpt lat="45.71117" lon="5.7013">
        <ele>222.5</ele>
        <time>2022-09-25T14:07:07Z</time>
      </trkpt>
      <trkpt lat="45.71115" lon="5.70125">
        <ele>222.5</ele>
        <time>2022-09-25T14:07:08Z</time>
      </trkpt>
      <trkpt lat="45.71114" lon="5.7012">
        <ele>222.5</ele>
        <time>2022-09-25T14:07:09Z</time>
      </trkpt>
      <trkpt lat="45.71112" lon="5.70116">
        <ele>222.5</ele>
        <time>2022-09-25T14:07:10Z</time>
      </trkpt>
      <trkpt lat="45.71112" lon="5.70111">
        <ele>222.6</ele>
        <time>2022-09-25T14:07:11Z</time>
      </trkpt>
      <trkpt lat="45.71113" lon="5.70106">
        <ele>222.6</ele>
        <time>2022-09-25T14:07:12Z</time>
      </trkpt>
      <trkpt lat="45.71114" lon="5.70101">
        <ele>222.6</ele>
        <time>2022-09-25T14:07:13Z</time>
      </trkpt>
      <trkpt lat="45.71116" lon="5.70098">
        <ele>222.6</ele>
        <time>2022-09-25T14:07:14Z</time>
      </trkpt>
      <trkpt lat="45.71119" lon="5.70095">
        <ele>222.5</ele>
        <time>2022-09-25T14:07:15Z</time>
      </trkpt>
      <trkpt lat="45.71122" lon="5.70094">
        <ele>222.4</ele>
        <time>2022-09-25T14:07:16Z</time>
      </trkpt>
      <trkpt lat="45.71126" lon="5.70093">
        <ele>222.4</ele>
        <time>2022-09-25T14:07:17Z</time>
      </trkpt>
      <trkpt lat="45.71131" lon="5.70093">
        <ele>222.3</ele>
        <time>2022-09-25T14:07:18Z</time>
      </trkpt>
      <trkpt lat="45.71135" lon="5.70093">
        <ele>222.2</ele>
        <time>2022-09-25T14:07:19Z</time>
      </trkpt>
      <trkpt lat="45.71139" lon="5.70092">
        <ele>222.2</ele>
        <time>2022-09-25T14:07:20Z</time>
      </trkpt>
      <trkpt lat="45.71144" lon="5.70091">
        <ele>222.2</ele>
        <time>2022-09-25T14:07:21Z</time>
      </trkpt>
      <trkpt lat="45.71148" lon="5.70091">
        <ele>222.1</ele>
        <time>2022-09-25T14:07:22Z</time>
      </trkpt>
      <trkpt lat="45.71153" lon="5.70091">
        <ele>222.1</ele>
        <time>2022-09-25T14:07:23Z</time>
      </trkpt>
      <trkpt lat="45.71157" lon="5.70091">
        <ele>222.1</ele>
        <time>2022-09-25T14:07:24Z</time>
      </trkpt>
      <trkpt lat="45.71162" lon="5.70091">
        <ele>222.1</ele>
        <time>2022-09-25T14:07:25Z</time>
      </trkpt>
      <trkpt lat="45.71166" lon="5.70091">
        <ele>222</ele>
        <time>2022-09-25T14:07:26Z</time>
      </trkpt>
      <trkpt lat="45.71171" lon="5.7009">
        <ele>222</ele>
        <time>2022-09-25T14:07:27Z</time>
      </trkpt>
      <trkpt lat="45.71175" lon="5.7009">
        <ele>222</ele>
        <time>2022-09-25T14:07:28Z</time>
      </trkpt>
      <trkpt lat="45.7118" lon="5.7009">
        <ele>222</ele>
        <time>2022-09-25T14:07:29Z</time>
      </trkpt>
      <trkpt lat="45.71184" lon="5.7009">
        <ele>222</ele>
        <time>2022-09-25T14:07:30Z</time>
      </trkpt>
      <trkpt lat="45.71189" lon="5.7009">
        <ele>222</ele>
        <time>2022-09-25T14:07:31Z</time>
      </trkpt>
      <trkpt lat="45.71194" lon="5.7009">
        <ele>222</ele>
        <time>2022-09-25T14:07:32Z</time>
      </trkpt>
      <trkpt lat="45.71198" lon="5.7009">
        <ele>222</ele>
        <time>2022-09-25T14:07:33Z</time>
      </trkpt>
      <trkpt lat="45.71203" lon="5.7009">
        <ele>222</ele>
        <time>2022-09-25T14:07:34Z</time>
      </trkpt>
      <trkpt lat="45.71208" lon="5.7009">
        <ele>222</ele>
        <time>2022-09-25T14:07:35Z</time>
      </trkpt>
      <trkpt lat="45.71213" lon="5.70089">
        <ele>222</ele>
        <time>2022-09-25T14:07:36Z</time>
      </trkpt>
      <trkpt lat="45.71218" lon="5.70089">
        <ele>222</ele>
        <time>2022-09-25T14:07:37Z</time>
      </trkpt>
      <trkpt lat="45.71223" lon="5.70089">
        <ele>222</ele>
        <time>2022-09-25T14:07:38Z</time>
      </trkpt>
      <trkpt lat="45.71227" lon="5.70089">
        <ele>222</ele>
        <time>2022-09-25T14:07:39Z</time>
      </trkpt>
      <trkpt lat="45.71233" lon="5.70089">
        <ele>222</ele>
        <time>2022-09-25T14:07:40Z</time>
      </trkpt>
      <trkpt lat="45.71238" lon="5.70088">
        <ele>221.9</ele>
        <time>2022-09-25T14:07:41Z</time>
      </trkpt>
      <trkpt lat="45.71243" lon="5.70088">
        <ele>221.9</ele>
        <time>2022-09-25T14:07:42Z</time>
      </trkpt>
      <trkpt lat="45.71248" lon="5.70089">
        <ele>221.9</ele>
        <time>2022-09-25T14:07:43Z</time>
      </trkpt>
      <trkpt lat="45.71253" lon="5.70088">
        <ele>221.9</ele>
        <time>2022-09-25T14:07:44Z</time>
      </trkpt>
      <trkpt lat="45.71257" lon="5.70088">
        <ele>221.9</ele>
        <time>2022-09-25T14:07:45Z</time>
      </trkpt>
      <trkpt lat="45.71264" lon="5.70088">
        <ele>221.9</ele>
        <time>2022-09-25T14:07:46Z</time>
      </trkpt>
      <trkpt lat="45.71269" lon="5.70088">
        <ele>221.9</ele>
        <time>2022-09-25T14:07:47Z</time>
      </trkpt>
      <trkpt lat="45.71274" lon="5.70088">
        <ele>221.9</ele>
        <time>2022-09-25T14:07:48Z</time>
      </trkpt>
      <trkpt lat="45.71279" lon="5.70088">
        <ele>221.9</ele>
        <time>2022-09-25T14:07:49Z</time>
      </trkpt>
      <trkpt lat="45.71284" lon="5.70088">
        <ele>221.9</ele>
        <time>2022-09-25T14:07:50Z</time>
      </trkpt>
      <trkpt lat="45.7129" lon="5.70088">
        <ele>221.9</ele>
        <time>2022-09-25T14:07:51Z</time>
      </trkpt>
      <trkpt lat="45.71295" lon="5.70088">
        <ele>221.9</ele>
        <time>2022-09-25T14:07:52Z</time>
      </trkpt>
      <trkpt lat="45.71301" lon="5.70088">
        <ele>221.9</ele>
        <time>2022-09-25T14:07:53Z</time>
      </trkpt>
      <trkpt lat="45.71305" lon="5.70088">
        <ele>221.9</ele>
        <time>2022-09-25T14:07:54Z</time>
      </trkpt>
      <trkpt lat="45.7131" lon="5.70088">
        <ele>221.9</ele>
        <time>2022-09-25T14:07:55Z</time>
      </trkpt>
      <trkpt lat="45.71316" lon="5.70087">
        <ele>221.9</ele>
        <time>2022-09-25T14:07:56Z</time>
      </trkpt>
      <trkpt lat="45.71321" lon="5.70087">
        <ele>221.9</ele>
        <time>2022-09-25T14:07:57Z</time>
      </trkpt>
      <trkpt lat="45.71327" lon="5.70087">
        <ele>221.9</ele>
        <time>2022-09-25T14:07:58Z</time>
      </trkpt>
      <trkpt lat="45.71332" lon="5.70087">
        <ele>221.9</ele>
        <time>2022-09-25T14:07:59Z</time>
      </trkpt>
      <trkpt lat="45.71338" lon="5.70087">
        <ele>221.9</ele>
        <time>2022-09-25T14:08:00Z</time>
      </trkpt>
      <trkpt lat="45.71343" lon="5.70086">
        <ele>221.9</ele>
        <time>2022-09-25T14:08:01Z</time>
      </trkpt>
      <trkpt lat="45.71349" lon="5.70086">
        <ele>221.9</ele>
        <time>2022-09-25T14:08:02Z</time>
      </trkpt>
      <trkpt lat="45.71354" lon="5.70086">
        <ele>221.9</ele>
        <time>2022-09-25T14:08:03Z</time>
      </trkpt>
      <trkpt lat="45.71359" lon="5.70085">
        <ele>222</ele>
        <time>2022-09-25T14:08:04Z</time>
      </trkpt>
      <trkpt lat="45.71364" lon="5.70085">
        <ele>222</ele>
        <time>2022-09-25T14:08:05Z</time>
      </trkpt>
      <trkpt lat="45.7137" lon="5.70085">
        <ele>222</ele>
        <time>2022-09-25T14:08:06Z</time>
      </trkpt>
      <trkpt lat="45.71375" lon="5.70085">
        <ele>222</ele>
        <time>2022-09-25T14:08:07Z</time>
      </trkpt>
      <trkpt lat="45.7138" lon="5.70084">
        <ele>222</ele>
        <time>2022-09-25T14:08:08Z</time>
      </trkpt>
      <trkpt lat="45.71385" lon="5.70084">
        <ele>222.1</ele>
        <time>2022-09-25T14:08:09Z</time>
      </trkpt>
      <trkpt lat="45.71391" lon="5.70084">
        <ele>222.1</ele>
        <time>2022-09-25T14:08:10Z</time>
      </trkpt>
      <trkpt lat="45.71396" lon="5.70084">
        <ele>222.1</ele>
        <time>2022-09-25T14:08:11Z</time>
      </trkpt>
      <trkpt lat="45.71401" lon="5.70084">
        <ele>222.2</ele>
        <time>2022-09-25T14:08:12Z</time>
      </trkpt>
      <trkpt lat="45.71407" lon="5.70083">
        <ele>222.3</ele>
        <time>2022-09-25T14:08:13Z</time>
      </trkpt>
      <trkpt lat="45.71412" lon="5.70083">
        <ele>222.3</ele>
        <time>2022-09-25T14:08:14Z</time>
      </trkpt>
      <trkpt lat="45.71417" lon="5.70083">
        <ele>222.4</ele>
        <time>2022-09-25T14:08:15Z</time>
      </trkpt>
      <trkpt lat="45.71422" lon="5.70083">
        <ele>222.5</ele>
        <time>2022-09-25T14:08:16Z</time>
      </trkpt>
      <trkpt lat="45.71427" lon="5.70082">
        <ele>222.6</ele>
        <time>2022-09-25T14:08:17Z</time>
      </trkpt>
      <trkpt lat="45.71431" lon="5.70082">
        <ele>222.7</ele>
        <time>2022-09-25T14:08:18Z</time>
      </trkpt>
      <trkpt lat="45.71435" lon="5.70082">
        <ele>222.7</ele>
        <time>2022-09-25T14:08:19Z</time>
      </trkpt>
      <trkpt lat="45.71439" lon="5.70082">
        <ele>222.8</ele>
        <time>2022-09-25T14:08:20Z</time>
      </trkpt>
      <trkpt lat="45.71443" lon="5.70082">
        <ele>222.8</ele>
        <time>2022-09-25T14:08:21Z</time>
      </trkpt>
      <trkpt lat="45.71447" lon="5.70083">
        <ele>222.9</ele>
        <time>2022-09-25T14:08:22Z</time>
      </trkpt>
      <trkpt lat="45.71451" lon="5.70083">
        <ele>222.9</ele>
        <time>2022-09-25T14:08:23Z</time>
      </trkpt>
      <trkpt lat="45.71454" lon="5.70083">
        <ele>222.9</ele>
        <time>2022-09-25T14:08:24Z</time>
      </trkpt>
      <trkpt lat="45.71457" lon="5.70082">
        <ele>222.9</ele>
        <time>2022-09-25T14:08:25Z</time>
      </trkpt>
      <trkpt lat="45.71458" lon="5.70082">
        <ele>222.9</ele>
        <time>2022-09-25T14:08:26Z</time>
      </trkpt>
      <trkpt lat="45.71461" lon="5.7008">
        <ele>223</ele>
        <time>2022-09-25T14:08:27Z</time>
      </trkpt>
      <trkpt lat="45.71464" lon="5.70078">
        <ele>222.9</ele>
        <time>2022-09-25T14:08:28Z</time>
      </trkpt>
      <trkpt lat="45.71466" lon="5.70076">
        <ele>222.8</ele>
        <time>2022-09-25T14:08:29Z</time>
      </trkpt>
      <trkpt lat="45.7147" lon="5.70074">
        <ele>222.7</ele>
        <time>2022-09-25T14:08:30Z</time>
      </trkpt>
      <trkpt lat="45.71474" lon="5.70071">
        <ele>222.6</ele>
        <time>2022-09-25T14:08:31Z</time>
      </trkpt>
      <trkpt lat="45.71477" lon="5.70068">
        <ele>222.4</ele>
        <time>2022-09-25T14:08:32Z</time>
      </trkpt>
      <trkpt lat="45.71481" lon="5.70066">
        <ele>222.3</ele>
        <time>2022-09-25T14:08:33Z</time>
      </trkpt>
      <trkpt lat="45.71486" lon="5.70064">
        <ele>222.3</ele>
        <time>2022-09-25T14:08:34Z</time>
      </trkpt>
      <trkpt lat="45.7149" lon="5.70063">
        <ele>222.2</ele>
        <time>2022-09-25T14:08:35Z</time>
      </trkpt>
      <trkpt lat="45.71495" lon="5.70064">
        <ele>222.2</ele>
        <time>2022-09-25T14:08:36Z</time>
      </trkpt>
      <trkpt lat="45.71499" lon="5.70067">
        <ele>222.2</ele>
        <time>2022-09-25T14:08:37Z</time>
      </trkpt>
      <trkpt lat="45.71503" lon="5.70068">
        <ele>222.2</ele>
        <time>2022-09-25T14:08:38Z</time>
      </trkpt>
      <trkpt lat="45.71507" lon="5.70068">
        <ele>222.3</ele>
        <time>2022-09-25T14:08:39Z</time>
      </trkpt>
      <trkpt lat="45.71511" lon="5.70069">
        <ele>222.4</ele>
        <time>2022-09-25T14:08:40Z</time>
      </trkpt>
      <trkpt lat="45.71516" lon="5.70069">
        <ele>222.4</ele>
        <time>2022-09-25T14:08:41Z</time>
      </trkpt>
      <trkpt lat="45.71519" lon="5.7007">
        <ele>222.5</ele>
        <time>2022-09-25T14:08:42Z</time>
      </trkpt>
      <trkpt lat="45.71523" lon="5.7007">
        <ele>222.6</ele>
        <time>2022-09-25T14:08:43Z</time>
      </trkpt>
      <trkpt lat="45.71528" lon="5.70071">
        <ele>222.6</ele>
        <time>2022-09-25T14:08:44Z</time>
      </trkpt>
      <trkpt lat="45.71531" lon="5.70072">
        <ele>222.7</ele>
        <time>2022-09-25T14:08:45Z</time>
      </trkpt>
      <trkpt lat="45.71535" lon="5.70072">
        <ele>222.8</ele>
        <time>2022-09-25T14:08:46Z</time>
      </trkpt>
      <trkpt lat="45.71539" lon="5.70072">
        <ele>222.8</ele>
        <time>2022-09-25T14:08:47Z</time>
      </trkpt>
      <trkpt lat="45.71543" lon="5.70073">
        <ele>222.8</ele>
        <time>2022-09-25T14:08:48Z</time>
      </trkpt>
      <trkpt lat="45.71546" lon="5.70073">
        <ele>222.8</ele>
        <time>2022-09-25T14:08:49Z</time>
      </trkpt>
      <trkpt lat="45.71551" lon="5.70073">
        <ele>222.8</ele>
        <time>2022-09-25T14:08:50Z</time>
      </trkpt>
      <trkpt lat="45.71555" lon="5.70073">
        <ele>222.8</ele>
        <time>2022-09-25T14:08:51Z</time>
      </trkpt>
      <trkpt lat="45.71559" lon="5.70073">
        <ele>222.8</ele>
        <time>2022-09-25T14:08:52Z</time>
      </trkpt>
      <trkpt lat="45.71563" lon="5.70074">
        <ele>222.8</ele>
        <time>2022-09-25T14:08:53Z</time>
      </trkpt>
      <trkpt lat="45.71568" lon="5.70074">
        <ele>222.7</ele>
        <time>2022-09-25T14:08:54Z</time>
      </trkpt>
      <trkpt lat="45.71573" lon="5.70074">
        <ele>222.6</ele>
        <time>2022-09-25T14:08:55Z</time>
      </trkpt>
      <trkpt lat="45.71578" lon="5.70074">
        <ele>222.5</ele>
        <time>2022-09-25T14:08:56Z</time>
      </trkpt>
      <trkpt lat="45.71583" lon="5.70074">
        <ele>222.5</ele>
        <time>2022-09-25T14:08:57Z</time>
      </trkpt>
      <trkpt lat="45.71588" lon="5.70074">
        <ele>222.4</ele>
        <time>2022-09-25T14:08:58Z</time>
      </trkpt>
      <trkpt lat="45.71594" lon="5.70074">
        <ele>222.3</ele>
        <time>2022-09-25T14:08:59Z</time>
      </trkpt>
      <trkpt lat="45.71599" lon="5.70073">
        <ele>222.3</ele>
        <time>2022-09-25T14:09:00Z</time>
      </trkpt>
      <trkpt lat="45.71604" lon="5.70073">
        <ele>222.2</ele>
        <time>2022-09-25T14:09:01Z</time>
      </trkpt>
      <trkpt lat="45.7161" lon="5.70073">
        <ele>222.2</ele>
        <time>2022-09-25T14:09:02Z</time>
      </trkpt>
      <trkpt lat="45.71614" lon="5.70073">
        <ele>222.2</ele>
        <time>2022-09-25T14:09:03Z</time>
      </trkpt>
      <trkpt lat="45.7162" lon="5.70073">
        <ele>222.2</ele>
        <time>2022-09-25T14:09:04Z</time>
      </trkpt>
      <trkpt lat="45.71625" lon="5.70073">
        <ele>222.2</ele>
        <time>2022-09-25T14:09:05Z</time>
      </trkpt>
      <trkpt lat="45.7163" lon="5.70073">
        <ele>222.2</ele>
        <time>2022-09-25T14:09:06Z</time>
      </trkpt>
      <trkpt lat="45.71635" lon="5.70073">
        <ele>222.2</ele>
        <time>2022-09-25T14:09:07Z</time>
      </trkpt>
      <trkpt lat="45.7164" lon="5.70073">
        <ele>222.2</ele>
        <time>2022-09-25T14:09:08Z</time>
      </trkpt>
      <trkpt lat="45.71645" lon="5.70072">
        <ele>222.2</ele>
        <time>2022-09-25T14:09:09Z</time>
      </trkpt>
      <trkpt lat="45.7165" lon="5.70072">
        <ele>222.2</ele>
        <time>2022-09-25T14:09:10Z</time>
      </trkpt>
      <trkpt lat="45.71656" lon="5.70072">
        <ele>222.2</ele>
        <time>2022-09-25T14:09:11Z</time>
      </trkpt>
      <trkpt lat="45.71662" lon="5.70071">
        <ele>222.2</ele>
        <time>2022-09-25T14:09:12Z</time>
      </trkpt>
      <trkpt lat="45.71667" lon="5.70071">
        <ele>222.2</ele>
        <time>2022-09-25T14:09:13Z</time>
      </trkpt>
      <trkpt lat="45.71672" lon="5.70071">
        <ele>222.2</ele>
        <time>2022-09-25T14:09:14Z</time>
      </trkpt>
      <trkpt lat="45.71677" lon="5.70071">
        <ele>222.2</ele>
        <time>2022-09-25T14:09:15Z</time>
      </trkpt>
      <trkpt lat="45.71683" lon="5.7007">
        <ele>222.3</ele>
        <time>2022-09-25T14:09:16Z</time>
      </trkpt>
      <trkpt lat="45.71688" lon="5.7007">
        <ele>222.3</ele>
        <time>2022-09-25T14:09:17Z</time>
      </trkpt>
      <trkpt lat="45.71693" lon="5.7007">
        <ele>222.3</ele>
        <time>2022-09-25T14:09:18Z</time>
      </trkpt>
      <trkpt lat="45.71699" lon="5.7007">
        <ele>222.3</ele>
        <time>2022-09-25T14:09:19Z</time>
      </trkpt>
      <trkpt lat="45.71704" lon="5.7007">
        <ele>222.3</ele>
        <time>2022-09-25T14:09:20Z</time>
      </trkpt>
      <trkpt lat="45.71709" lon="5.70069">
        <ele>222.3</ele>
        <time>2022-09-25T14:09:21Z</time>
      </trkpt>
      <trkpt lat="45.71715" lon="5.70069">
        <ele>222.3</ele>
        <time>2022-09-25T14:09:22Z</time>
      </trkpt>
      <trkpt lat="45.7172" lon="5.70069">
        <ele>222.3</ele>
        <time>2022-09-25T14:09:23Z</time>
      </trkpt>
      <trkpt lat="45.71725" lon="5.70069">
        <ele>222.3</ele>
        <time>2022-09-25T14:09:24Z</time>
      </trkpt>
      <trkpt lat="45.71731" lon="5.70069">
        <ele>222.3</ele>
        <time>2022-09-25T14:09:25Z</time>
      </trkpt>
      <trkpt lat="45.71736" lon="5.70069">
        <ele>222.3</ele>
        <time>2022-09-25T14:09:26Z</time>
      </trkpt>
      <trkpt lat="45.71742" lon="5.70069">
        <ele>222.3</ele>
        <time>2022-09-25T14:09:27Z</time>
      </trkpt>
      <trkpt lat="45.71747" lon="5.70068">
        <ele>222.3</ele>
        <time>2022-09-25T14:09:28Z</time>
      </trkpt>
      <trkpt lat="45.71753" lon="5.70068">
        <ele>222.3</ele>
        <time>2022-09-25T14:09:29Z</time>
      </trkpt>
      <trkpt lat="45.71758" lon="5.70068">
        <ele>222.4</ele>
        <time>2022-09-25T14:09:30Z</time>
      </trkpt>
      <trkpt lat="45.71764" lon="5.70068">
        <ele>222.4</ele>
        <time>2022-09-25T14:09:31Z</time>
      </trkpt>
      <trkpt lat="45.7177" lon="5.70068">
        <ele>222.4</ele>
        <time>2022-09-25T14:09:32Z</time>
      </trkpt>
      <trkpt lat="45.71775" lon="5.70068">
        <ele>222.4</ele>
        <time>2022-09-25T14:09:33Z</time>
      </trkpt>
      <trkpt lat="45.71781" lon="5.70068">
        <ele>222.4</ele>
        <time>2022-09-25T14:09:34Z</time>
      </trkpt>
      <trkpt lat="45.71786" lon="5.70068">
        <ele>222.4</ele>
        <time>2022-09-25T14:09:35Z</time>
      </trkpt>
      <trkpt lat="45.71792" lon="5.70068">
        <ele>222.4</ele>
        <time>2022-09-25T14:09:36Z</time>
      </trkpt>
      <trkpt lat="45.71798" lon="5.70068">
        <ele>222.5</ele>
        <time>2022-09-25T14:09:37Z</time>
      </trkpt>
      <trkpt lat="45.71803" lon="5.70068">
        <ele>222.5</ele>
        <time>2022-09-25T14:09:38Z</time>
      </trkpt>
      <trkpt lat="45.71809" lon="5.70068">
        <ele>222.6</ele>
        <time>2022-09-25T14:09:39Z</time>
      </trkpt>
      <trkpt lat="45.71814" lon="5.70067">
        <ele>222.6</ele>
        <time>2022-09-25T14:09:40Z</time>
      </trkpt>
      <trkpt lat="45.7182" lon="5.70068">
        <ele>222.6</ele>
        <time>2022-09-25T14:09:41Z</time>
      </trkpt>
      <trkpt lat="45.71825" lon="5.70068">
        <ele>222.7</ele>
        <time>2022-09-25T14:09:42Z</time>
      </trkpt>
      <trkpt lat="45.7183" lon="5.70067">
        <ele>222.7</ele>
        <time>2022-09-25T14:09:43Z</time>
      </trkpt>
      <trkpt lat="45.71836" lon="5.70067">
        <ele>222.8</ele>
        <time>2022-09-25T14:09:44Z</time>
      </trkpt>
      <trkpt lat="45.71841" lon="5.70067">
        <ele>222.8</ele>
        <time>2022-09-25T14:09:45Z</time>
      </trkpt>
      <trkpt lat="45.71847" lon="5.70067">
        <ele>222.9</ele>
        <time>2022-09-25T14:09:46Z</time>
      </trkpt>
      <trkpt lat="45.71852" lon="5.70067">
        <ele>222.9</ele>
        <time>2022-09-25T14:09:47Z</time>
      </trkpt>
      <trkpt lat="45.71857" lon="5.70068">
        <ele>222.9</ele>
        <time>2022-09-25T14:09:48Z</time>
      </trkpt>
      <trkpt lat="45.71863" lon="5.70068">
        <ele>223</ele>
        <time>2022-09-25T14:09:49Z</time>
      </trkpt>
      <trkpt lat="45.71868" lon="5.70068">
        <ele>223</ele>
        <time>2022-09-25T14:09:50Z</time>
      </trkpt>
      <trkpt lat="45.71873" lon="5.70067">
        <ele>223</ele>
        <time>2022-09-25T14:09:51Z</time>
      </trkpt>
      <trkpt lat="45.71879" lon="5.70068">
        <ele>223.1</ele>
        <time>2022-09-25T14:09:52Z</time>
      </trkpt>
      <trkpt lat="45.71884" lon="5.70068">
        <ele>223.1</ele>
        <time>2022-09-25T14:09:53Z</time>
      </trkpt>
      <trkpt lat="45.71889" lon="5.70068">
        <ele>223.1</ele>
        <time>2022-09-25T14:09:54Z</time>
      </trkpt>
      <trkpt lat="45.71895" lon="5.70068">
        <ele>223.1</ele>
        <time>2022-09-25T14:09:55Z</time>
      </trkpt>
      <trkpt lat="45.719" lon="5.70068">
        <ele>223.2</ele>
        <time>2022-09-25T14:09:56Z</time>
      </trkpt>
      <trkpt lat="45.71905" lon="5.70067">
        <ele>223.2</ele>
        <time>2022-09-25T14:09:57Z</time>
      </trkpt>
      <trkpt lat="45.71911" lon="5.70068">
        <ele>223.2</ele>
        <time>2022-09-25T14:09:58Z</time>
      </trkpt>
      <trkpt lat="45.71916" lon="5.70068">
        <ele>223.2</ele>
        <time>2022-09-25T14:09:59Z</time>
      </trkpt>
      <trkpt lat="45.71921" lon="5.70067">
        <ele>223.2</ele>
        <time>2022-09-25T14:10:00Z</time>
      </trkpt>
      <trkpt lat="45.71926" lon="5.70067">
        <ele>223.3</ele>
        <time>2022-09-25T14:10:01Z</time>
      </trkpt>
      <trkpt lat="45.71932" lon="5.70067">
        <ele>223.3</ele>
        <time>2022-09-25T14:10:02Z</time>
      </trkpt>
      <trkpt lat="45.71937" lon="5.70067">
        <ele>223.4</ele>
        <time>2022-09-25T14:10:03Z</time>
      </trkpt>
      <trkpt lat="45.71942" lon="5.70067">
        <ele>223.4</ele>
        <time>2022-09-25T14:10:04Z</time>
      </trkpt>
      <trkpt lat="45.71947" lon="5.70067">
        <ele>223.4</ele>
        <time>2022-09-25T14:10:05Z</time>
      </trkpt>
      <trkpt lat="45.71952" lon="5.70067">
        <ele>223.5</ele>
        <time>2022-09-25T14:10:06Z</time>
      </trkpt>
      <trkpt lat="45.71958" lon="5.70067">
        <ele>223.5</ele>
        <time>2022-09-25T14:10:07Z</time>
      </trkpt>
      <trkpt lat="45.71963" lon="5.70067">
        <ele>223.6</ele>
        <time>2022-09-25T14:10:08Z</time>
      </trkpt>
      <trkpt lat="45.71968" lon="5.70067">
        <ele>223.6</ele>
        <time>2022-09-25T14:10:09Z</time>
      </trkpt>
      <trkpt lat="45.71973" lon="5.70066">
        <ele>223.6</ele>
        <time>2022-09-25T14:10:10Z</time>
      </trkpt>
      <trkpt lat="45.71979" lon="5.70067">
        <ele>223.6</ele>
        <time>2022-09-25T14:10:11Z</time>
      </trkpt>
      <trkpt lat="45.71984" lon="5.70067">
        <ele>223.7</ele>
        <time>2022-09-25T14:10:12Z</time>
      </trkpt>
      <trkpt lat="45.71989" lon="5.70066">
        <ele>223.7</ele>
        <time>2022-09-25T14:10:13Z</time>
      </trkpt>
      <trkpt lat="45.71994" lon="5.70066">
        <ele>223.7</ele>
        <time>2022-09-25T14:10:14Z</time>
      </trkpt>
      <trkpt lat="45.71999" lon="5.70066">
        <ele>223.7</ele>
        <time>2022-09-25T14:10:15Z</time>
      </trkpt>
      <trkpt lat="45.72004" lon="5.70066">
        <ele>223.7</ele>
        <time>2022-09-25T14:10:16Z</time>
      </trkpt>
      <trkpt lat="45.72009" lon="5.70066">
        <ele>223.7</ele>
        <time>2022-09-25T14:10:17Z</time>
      </trkpt>
      <trkpt lat="45.72015" lon="5.70066">
        <ele>223.7</ele>
        <time>2022-09-25T14:10:18Z</time>
      </trkpt>
      <trkpt lat="45.7202" lon="5.70065">
        <ele>223.7</ele>
        <time>2022-09-25T14:10:19Z</time>
      </trkpt>
      <trkpt lat="45.72025" lon="5.70065">
        <ele>223.8</ele>
        <time>2022-09-25T14:10:20Z</time>
      </trkpt>
      <trkpt lat="45.7203" lon="5.70065">
        <ele>223.8</ele>
        <time>2022-09-25T14:10:21Z</time>
      </trkpt>
      <trkpt lat="45.72035" lon="5.70064">
        <ele>223.8</ele>
        <time>2022-09-25T14:10:22Z</time>
      </trkpt>
      <trkpt lat="45.7204" lon="5.70064">
        <ele>223.8</ele>
        <time>2022-09-25T14:10:23Z</time>
      </trkpt>
      <trkpt lat="45.72045" lon="5.70064">
        <ele>223.8</ele>
        <time>2022-09-25T14:10:24Z</time>
      </trkpt>
      <trkpt lat="45.72049" lon="5.70064">
        <ele>223.9</ele>
        <time>2022-09-25T14:10:25Z</time>
      </trkpt>
      <trkpt lat="45.72053" lon="5.70065">
        <ele>223.9</ele>
        <time>2022-09-25T14:10:26Z</time>
      </trkpt>
      <trkpt lat="45.72057" lon="5.70067">
        <ele>223.9</ele>
        <time>2022-09-25T14:10:27Z</time>
      </trkpt>
      <trkpt lat="45.7206" lon="5.70069">
        <ele>223.9</ele>
        <time>2022-09-25T14:10:28Z</time>
      </trkpt>
      <trkpt lat="45.72064" lon="5.70071">
        <ele>223.9</ele>
        <time>2022-09-25T14:10:29Z</time>
      </trkpt>
      <trkpt lat="45.72068" lon="5.70073">
        <ele>224</ele>
        <time>2022-09-25T14:10:30Z</time>
      </trkpt>
      <trkpt lat="45.72072" lon="5.70074">
        <ele>224</ele>
        <time>2022-09-25T14:10:31Z</time>
      </trkpt>
      <trkpt lat="45.72076" lon="5.70075">
        <ele>224</ele>
        <time>2022-09-25T14:10:32Z</time>
      </trkpt>
      <trkpt lat="45.7208" lon="5.70075">
        <ele>224</ele>
        <time>2022-09-25T14:10:33Z</time>
      </trkpt>
      <trkpt lat="45.72085" lon="5.70077">
        <ele>224</ele>
        <time>2022-09-25T14:10:34Z</time>
      </trkpt>
      <trkpt lat="45.72089" lon="5.70078">
        <ele>224.1</ele>
        <time>2022-09-25T14:10:35Z</time>
      </trkpt>
      <trkpt lat="45.72093" lon="5.7008">
        <ele>224.1</ele>
        <time>2022-09-25T14:10:36Z</time>
      </trkpt>
      <trkpt lat="45.72097" lon="5.70082">
        <ele>224.1</ele>
        <time>2022-09-25T14:10:37Z</time>
      </trkpt>
      <trkpt lat="45.72101" lon="5.70084">
        <ele>224.1</ele>
        <time>2022-09-25T14:10:38Z</time>
      </trkpt>
      <trkpt lat="45.72105" lon="5.70087">
        <ele>224.1</ele>
        <time>2022-09-25T14:10:39Z</time>
      </trkpt>
      <trkpt lat="45.72109" lon="5.70089">
        <ele>224.2</ele>
        <time>2022-09-25T14:10:40Z</time>
      </trkpt>
      <trkpt lat="45.72113" lon="5.70091">
        <ele>224.2</ele>
        <time>2022-09-25T14:10:41Z</time>
      </trkpt>
      <trkpt lat="45.72117" lon="5.70094">
        <ele>224.2</ele>
        <time>2022-09-25T14:10:42Z</time>
      </trkpt>
      <trkpt lat="45.72121" lon="5.70095">
        <ele>224.2</ele>
        <time>2022-09-25T14:10:43Z</time>
      </trkpt>
      <trkpt lat="45.72126" lon="5.70098">
        <ele>224.2</ele>
        <time>2022-09-25T14:10:44Z</time>
      </trkpt>
      <trkpt lat="45.7213" lon="5.70101">
        <ele>224.3</ele>
        <time>2022-09-25T14:10:45Z</time>
      </trkpt>
      <trkpt lat="45.72134" lon="5.70103">
        <ele>224.3</ele>
        <time>2022-09-25T14:10:46Z</time>
      </trkpt>
      <trkpt lat="45.72138" lon="5.70105">
        <ele>224.3</ele>
        <time>2022-09-25T14:10:47Z</time>
      </trkpt>
      <trkpt lat="45.72143" lon="5.70108">
        <ele>224.3</ele>
        <time>2022-09-25T14:10:48Z</time>
      </trkpt>
      <trkpt lat="45.72147" lon="5.7011">
        <ele>224.3</ele>
        <time>2022-09-25T14:10:49Z</time>
      </trkpt>
      <trkpt lat="45.72152" lon="5.70112">
        <ele>224.4</ele>
        <time>2022-09-25T14:10:50Z</time>
      </trkpt>
      <trkpt lat="45.72157" lon="5.70115">
        <ele>224.4</ele>
        <time>2022-09-25T14:10:51Z</time>
      </trkpt>
      <trkpt lat="45.72161" lon="5.70117">
        <ele>224.4</ele>
        <time>2022-09-25T14:10:52Z</time>
      </trkpt>
      <trkpt lat="45.72166" lon="5.70119">
        <ele>224.4</ele>
        <time>2022-09-25T14:10:53Z</time>
      </trkpt>
      <trkpt lat="45.72171" lon="5.7012">
        <ele>224.4</ele>
        <time>2022-09-25T14:10:54Z</time>
      </trkpt>
      <trkpt lat="45.72175" lon="5.70123">
        <ele>224.4</ele>
        <time>2022-09-25T14:10:55Z</time>
      </trkpt>
      <trkpt lat="45.7218" lon="5.70124">
        <ele>224.5</ele>
        <time>2022-09-25T14:10:56Z</time>
      </trkpt>
      <trkpt lat="45.72185" lon="5.70126">
        <ele>224.5</ele>
        <time>2022-09-25T14:10:57Z</time>
      </trkpt>
      <trkpt lat="45.72189" lon="5.70128">
        <ele>224.5</ele>
        <time>2022-09-25T14:10:58Z</time>
      </trkpt>
      <trkpt lat="45.72194" lon="5.7013">
        <ele>224.5</ele>
        <time>2022-09-25T14:10:59Z</time>
      </trkpt>
      <trkpt lat="45.72199" lon="5.70132">
        <ele>224.5</ele>
        <time>2022-09-25T14:11:00Z</time>
      </trkpt>
      <trkpt lat="45.72204" lon="5.70134">
        <ele>224.5</ele>
        <time>2022-09-25T14:11:01Z</time>
      </trkpt>
      <trkpt lat="45.72208" lon="5.70136">
        <ele>224.5</ele>
        <time>2022-09-25T14:11:02Z</time>
      </trkpt>
      <trkpt lat="45.72213" lon="5.70138">
        <ele>224.6</ele>
        <time>2022-09-25T14:11:03Z</time>
      </trkpt>
      <trkpt lat="45.72218" lon="5.7014">
        <ele>224.6</ele>
        <time>2022-09-25T14:11:04Z</time>
      </trkpt>
      <trkpt lat="45.72223" lon="5.70142">
        <ele>224.6</ele>
        <time>2022-09-25T14:11:05Z</time>
      </trkpt>
      <trkpt lat="45.72227" lon="5.70145">
        <ele>224.6</ele>
        <time>2022-09-25T14:11:06Z</time>
      </trkpt>
      <trkpt lat="45.72232" lon="5.70147">
        <ele>224.6</ele>
        <time>2022-09-25T14:11:07Z</time>
      </trkpt>
      <trkpt lat="45.72237" lon="5.70149">
        <ele>224.6</ele>
        <time>2022-09-25T14:11:08Z</time>
      </trkpt>
      <trkpt lat="45.72241" lon="5.70151">
        <ele>224.7</ele>
        <time>2022-09-25T14:11:09Z</time>
      </trkpt>
      <trkpt lat="45.72246" lon="5.70154">
        <ele>224.7</ele>
        <time>2022-09-25T14:11:10Z</time>
      </trkpt>
      <trkpt lat="45.72251" lon="5.70155">
        <ele>224.7</ele>
        <time>2022-09-25T14:11:11Z</time>
      </trkpt>
      <trkpt lat="45.72255" lon="5.70158">
        <ele>224.7</ele>
        <time>2022-09-25T14:11:12Z</time>
      </trkpt>
      <trkpt lat="45.7226" lon="5.70161">
        <ele>224.7</ele>
        <time>2022-09-25T14:11:13Z</time>
      </trkpt>
      <trkpt lat="45.72264" lon="5.70163">
        <ele>224.8</ele>
        <time>2022-09-25T14:11:14Z</time>
      </trkpt>
      <trkpt lat="45.72269" lon="5.70166">
        <ele>224.8</ele>
        <time>2022-09-25T14:11:15Z</time>
      </trkpt>
      <trkpt lat="45.72273" lon="5.70169">
        <ele>224.8</ele>
        <time>2022-09-25T14:11:16Z</time>
      </trkpt>
      <trkpt lat="45.72277" lon="5.70172">
        <ele>224.9</ele>
        <time>2022-09-25T14:11:17Z</time>
      </trkpt>
      <trkpt lat="45.7228" lon="5.70175">
        <ele>224.9</ele>
        <time>2022-09-25T14:11:18Z</time>
      </trkpt>
      <trkpt lat="45.72285" lon="5.70177">
        <ele>224.9</ele>
        <time>2022-09-25T14:11:19Z</time>
      </trkpt>
      <trkpt lat="45.72289" lon="5.7018">
        <ele>225</ele>
        <time>2022-09-25T14:11:20Z</time>
      </trkpt>
      <trkpt lat="45.72293" lon="5.70182">
        <ele>225.1</ele>
        <time>2022-09-25T14:11:21Z</time>
      </trkpt>
      <trkpt lat="45.72297" lon="5.70182">
        <ele>225.1</ele>
        <time>2022-09-25T14:11:22Z</time>
      </trkpt>
      <trkpt lat="45.72301" lon="5.70181">
        <ele>225.2</ele>
        <time>2022-09-25T14:11:23Z</time>
      </trkpt>
      <trkpt lat="45.72306" lon="5.70179">
        <ele>225.3</ele>
        <time>2022-09-25T14:11:24Z</time>
      </trkpt>
      <trkpt lat="45.72309" lon="5.70177">
        <ele>225.4</ele>
        <time>2022-09-25T14:11:25Z</time>
      </trkpt>
      <trkpt lat="45.72313" lon="5.70175">
        <ele>225.4</ele>
        <time>2022-09-25T14:11:26Z</time>
      </trkpt>
      <trkpt lat="45.72318" lon="5.70174">
        <ele>225.5</ele>
        <time>2022-09-25T14:11:27Z</time>
      </trkpt>
      <trkpt lat="45.72322" lon="5.70175">
        <ele>225.6</ele>
        <time>2022-09-25T14:11:28Z</time>
      </trkpt>
      <trkpt lat="45.72326" lon="5.70176">
        <ele>225.7</ele>
        <time>2022-09-25T14:11:29Z</time>
      </trkpt>
      <trkpt lat="45.7233" lon="5.70177">
        <ele>225.8</ele>
        <time>2022-09-25T14:11:30Z</time>
      </trkpt>
      <trkpt lat="45.72333" lon="5.70179">
        <ele>225.8</ele>
        <time>2022-09-25T14:11:31Z</time>
      </trkpt>
      <trkpt lat="45.72337" lon="5.70181">
        <ele>225.9</ele>
        <time>2022-09-25T14:11:32Z</time>
      </trkpt>
      <trkpt lat="45.7234" lon="5.70183">
        <ele>226</ele>
        <time>2022-09-25T14:11:33Z</time>
      </trkpt>
      <trkpt lat="45.72344" lon="5.70184">
        <ele>226.1</ele>
        <time>2022-09-25T14:11:34Z</time>
      </trkpt>
      <trkpt lat="45.72347" lon="5.70186">
        <ele>226.1</ele>
        <time>2022-09-25T14:11:35Z</time>
      </trkpt>
      <trkpt lat="45.72351" lon="5.70188">
        <ele>226.1</ele>
        <time>2022-09-25T14:11:36Z</time>
      </trkpt>
      <trkpt lat="45.72354" lon="5.70189">
        <ele>226.2</ele>
        <time>2022-09-25T14:11:37Z</time>
      </trkpt>
      <trkpt lat="45.72357" lon="5.70191">
        <ele>226.2</ele>
        <time>2022-09-25T14:11:38Z</time>
      </trkpt>
      <trkpt lat="45.72361" lon="5.70194">
        <ele>226.2</ele>
        <time>2022-09-25T14:11:39Z</time>
      </trkpt>
      <trkpt lat="45.72364" lon="5.70196">
        <ele>226.2</ele>
        <time>2022-09-25T14:11:40Z</time>
      </trkpt>
      <trkpt lat="45.72367" lon="5.70199">
        <ele>226.2</ele>
        <time>2022-09-25T14:11:41Z</time>
      </trkpt>
      <trkpt lat="45.72371" lon="5.70201">
        <ele>226.3</ele>
        <time>2022-09-25T14:11:42Z</time>
      </trkpt>
      <trkpt lat="45.72374" lon="5.70204">
        <ele>226.3</ele>
        <time>2022-09-25T14:11:43Z</time>
      </trkpt>
      <trkpt lat="45.72378" lon="5.70207">
        <ele>226.3</ele>
        <time>2022-09-25T14:11:44Z</time>
      </trkpt>
      <trkpt lat="45.72381" lon="5.7021">
        <ele>226.4</ele>
        <time>2022-09-25T14:11:45Z</time>
      </trkpt>
      <trkpt lat="45.72384" lon="5.70213">
        <ele>226.4</ele>
        <time>2022-09-25T14:11:46Z</time>
      </trkpt>
      <trkpt lat="45.72386" lon="5.70217">
        <ele>226.4</ele>
        <time>2022-09-25T14:11:47Z</time>
      </trkpt>
      <trkpt lat="45.72389" lon="5.7022">
        <ele>226.5</ele>
        <time>2022-09-25T14:11:48Z</time>
      </trkpt>
      <trkpt lat="45.7239" lon="5.70223">
        <ele>226.5</ele>
        <time>2022-09-25T14:11:49Z</time>
      </trkpt>
      <trkpt lat="45.72392" lon="5.70227">
        <ele>226.5</ele>
        <time>2022-09-25T14:11:50Z</time>
      </trkpt>
      <trkpt lat="45.72393" lon="5.70231">
        <ele>226.6</ele>
        <time>2022-09-25T14:11:51Z</time>
      </trkpt>
      <trkpt lat="45.72393" lon="5.70233">
        <ele>226.6</ele>
        <time>2022-09-25T14:11:52Z</time>
      </trkpt>
      <trkpt lat="45.72394" lon="5.70237">
        <ele>226.6</ele>
        <time>2022-09-25T14:11:53Z</time>
      </trkpt>
      <trkpt lat="45.72395" lon="5.70239">
        <ele>226.6</ele>
        <time>2022-09-25T14:11:54Z</time>
      </trkpt>
      <trkpt lat="45.72397" lon="5.70243">
        <ele>226.6</ele>
        <time>2022-09-25T14:11:55Z</time>
      </trkpt>
      <trkpt lat="45.72398" lon="5.70244">
        <ele>226.6</ele>
        <time>2022-09-25T14:11:56Z</time>
      </trkpt>
      <trkpt lat="45.724" lon="5.70249">
        <ele>226.6</ele>
        <time>2022-09-25T14:11:57Z</time>
      </trkpt>
      <trkpt lat="45.72401" lon="5.70251">
        <ele>226.6</ele>
        <time>2022-09-25T14:11:58Z</time>
      </trkpt>
      <trkpt lat="45.72402" lon="5.70254">
        <ele>226.6</ele>
        <time>2022-09-25T14:11:59Z</time>
      </trkpt>
      <trkpt lat="45.72404" lon="5.70257">
        <ele>226.7</ele>
        <time>2022-09-25T14:12:00Z</time>
      </trkpt>
      <trkpt lat="45.72406" lon="5.7026">
        <ele>226.7</ele>
        <time>2022-09-25T14:12:01Z</time>
      </trkpt>
      <trkpt lat="45.72409" lon="5.70264">
        <ele>226.7</ele>
        <time>2022-09-25T14:12:02Z</time>
      </trkpt>
      <trkpt lat="45.72411" lon="5.70267">
        <ele>226.7</ele>
        <time>2022-09-25T14:12:03Z</time>
      </trkpt>
      <trkpt lat="45.72414" lon="5.70271">
        <ele>226.7</ele>
        <time>2022-09-25T14:12:04Z</time>
      </trkpt>
      <trkpt lat="45.72416" lon="5.70274">
        <ele>226.7</ele>
        <time>2022-09-25T14:12:05Z</time>
      </trkpt>
      <trkpt lat="45.7242" lon="5.70277">
        <ele>226.7</ele>
        <time>2022-09-25T14:12:06Z</time>
      </trkpt>
      <trkpt lat="45.72422" lon="5.70279">
        <ele>226.7</ele>
        <time>2022-09-25T14:12:07Z</time>
      </trkpt>
      <trkpt lat="45.72426" lon="5.70281">
        <ele>226.7</ele>
        <time>2022-09-25T14:12:08Z</time>
      </trkpt>
      <trkpt lat="45.72429" lon="5.70284">
        <ele>226.7</ele>
        <time>2022-09-25T14:12:09Z</time>
      </trkpt>
      <trkpt lat="45.72433" lon="5.70287">
        <ele>226.7</ele>
        <time>2022-09-25T14:12:10Z</time>
      </trkpt>
      <trkpt lat="45.72437" lon="5.70288">
        <ele>226.7</ele>
        <time>2022-09-25T14:12:11Z</time>
      </trkpt>
      <trkpt lat="45.7244" lon="5.7029">
        <ele>226.6</ele>
        <time>2022-09-25T14:12:12Z</time>
      </trkpt>
      <trkpt lat="45.72444" lon="5.70292">
        <ele>226.6</ele>
        <time>2022-09-25T14:12:13Z</time>
      </trkpt>
      <trkpt lat="45.72447" lon="5.70294">
        <ele>226.6</ele>
        <time>2022-09-25T14:12:14Z</time>
      </trkpt>
      <trkpt lat="45.72451" lon="5.70296">
        <ele>226.6</ele>
        <time>2022-09-25T14:12:15Z</time>
      </trkpt>
      <trkpt lat="45.72454" lon="5.70297">
        <ele>226.6</ele>
        <time>2022-09-25T14:12:16Z</time>
      </trkpt>
      <trkpt lat="45.72455" lon="5.70298">
        <ele>226.6</ele>
        <time>2022-09-25T14:12:17Z</time>
      </trkpt>
      <trkpt lat="45.72455" lon="5.70297">
        <ele>226.6</ele>
        <time>2022-09-25T14:12:18Z</time>
      </trkpt>
      <trkpt lat="45.72455" lon="5.70297">
        <ele>226.6</ele>
        <time>2022-09-25T14:12:19Z</time>
      </trkpt>
      <trkpt lat="45.72455" lon="5.70298">
        <ele>226.6</ele>
        <time>2022-09-25T14:12:20Z</time>
      </trkpt>
      <trkpt lat="45.72455" lon="5.70298">
        <ele>226.6</ele>
        <time>2022-09-25T14:12:21Z</time>
      </trkpt>
      <trkpt lat="45.72455" lon="5.70298">
        <ele>226.6</ele>
        <time>2022-09-25T14:12:22Z</time>
      </trkpt>
      <trkpt lat="45.72455" lon="5.70298">
        <ele>226.6</ele>
        <time>2022-09-25T14:12:23Z</time>
      </trkpt>
      <trkpt lat="45.72455" lon="5.70298">
        <ele>226.6</ele>
        <time>2022-09-25T14:12:24Z</time>
      </trkpt>
      <trkpt lat="45.72455" lon="5.70298">
        <ele>226.6</ele>
        <time>2022-09-25T14:12:25Z</time>
      </trkpt>
      <trkpt lat="45.72455" lon="5.70297">
        <ele>226.6</ele>
        <time>2022-09-25T14:12:26Z</time>
      </trkpt>
      <trkpt lat="45.72455" lon="5.70297">
        <ele>226.6</ele>
        <time>2022-09-25T14:12:27Z</time>
      </trkpt>
      <trkpt lat="45.72472" lon="5.70309">
        <ele>226.7</ele>
        <time>2022-09-25T14:14:47Z</time>
      </trkpt>
      <trkpt lat="45.72474" lon="5.70311">
        <ele>226.7</ele>
        <time>2022-09-25T14:14:48Z</time>
      </trkpt>
      <trkpt lat="45.72477" lon="5.70311">
        <ele>226.7</ele>
        <time>2022-09-25T14:14:49Z</time>
      </trkpt>
      <trkpt lat="45.7248" lon="5.70312">
        <ele>226.7</ele>
        <time>2022-09-25T14:14:50Z</time>
      </trkpt>
      <trkpt lat="45.72483" lon="5.70313">
        <ele>226.7</ele>
        <time>2022-09-25T14:14:51Z</time>
      </trkpt>
      <trkpt lat="45.72487" lon="5.70314">
        <ele>226.7</ele>
        <time>2022-09-25T14:14:52Z</time>
      </trkpt>
      <trkpt lat="45.7249" lon="5.70316">
        <ele>226.7</ele>
        <time>2022-09-25T14:14:53Z</time>
      </trkpt>
      <trkpt lat="45.72492" lon="5.70317">
        <ele>226.7</ele>
        <time>2022-09-25T14:14:54Z</time>
      </trkpt>
      <trkpt lat="45.72496" lon="5.70319">
        <ele>226.7</ele>
        <time>2022-09-25T14:14:55Z</time>
      </trkpt>
      <trkpt lat="45.72499" lon="5.7032">
        <ele>226.7</ele>
        <time>2022-09-25T14:14:56Z</time>
      </trkpt>
      <trkpt lat="45.72502" lon="5.70322">
        <ele>226.7</ele>
        <time>2022-09-25T14:14:57Z</time>
      </trkpt>
      <trkpt lat="45.72505" lon="5.70325">
        <ele>226.7</ele>
        <time>2022-09-25T14:14:58Z</time>
      </trkpt>
      <trkpt lat="45.72509" lon="5.70326">
        <ele>226.7</ele>
        <time>2022-09-25T14:14:59Z</time>
      </trkpt>
      <trkpt lat="45.72512" lon="5.70328">
        <ele>226.7</ele>
        <time>2022-09-25T14:15:00Z</time>
      </trkpt>
      <trkpt lat="45.72515" lon="5.7033">
        <ele>226.7</ele>
        <time>2022-09-25T14:15:01Z</time>
      </trkpt>
      <trkpt lat="45.72518" lon="5.70333">
        <ele>226.7</ele>
        <time>2022-09-25T14:15:02Z</time>
      </trkpt>
      <trkpt lat="45.72521" lon="5.70335">
        <ele>226.7</ele>
        <time>2022-09-25T14:15:03Z</time>
      </trkpt>
      <trkpt lat="45.72524" lon="5.70336">
        <ele>226.7</ele>
        <time>2022-09-25T14:15:04Z</time>
      </trkpt>
      <trkpt lat="45.72527" lon="5.70337">
        <ele>226.7</ele>
        <time>2022-09-25T14:15:05Z</time>
      </trkpt>
      <trkpt lat="45.7253" lon="5.70338">
        <ele>226.8</ele>
        <time>2022-09-25T14:15:06Z</time>
      </trkpt>
      <trkpt lat="45.72533" lon="5.70339">
        <ele>226.8</ele>
        <time>2022-09-25T14:15:07Z</time>
      </trkpt>
      <trkpt lat="45.72536" lon="5.7034">
        <ele>226.8</ele>
        <time>2022-09-25T14:15:08Z</time>
      </trkpt>
      <trkpt lat="45.72539" lon="5.70342">
        <ele>226.8</ele>
        <time>2022-09-25T14:15:09Z</time>
      </trkpt>
      <trkpt lat="45.72543" lon="5.70342">
        <ele>226.8</ele>
        <time>2022-09-25T14:15:10Z</time>
      </trkpt>
      <trkpt lat="45.72544" lon="5.70343">
        <ele>226.8</ele>
        <time>2022-09-25T14:15:11Z</time>
      </trkpt>
      <trkpt lat="45.72548" lon="5.70343">
        <ele>226.8</ele>
        <time>2022-09-25T14:15:12Z</time>
      </trkpt>
      <trkpt lat="45.72551" lon="5.70343">
        <ele>226.8</ele>
        <time>2022-09-25T14:15:13Z</time>
      </trkpt>
      <trkpt lat="45.72554" lon="5.70344">
        <ele>226.8</ele>
        <time>2022-09-25T14:15:14Z</time>
      </trkpt>
      <trkpt lat="45.72557" lon="5.70344">
        <ele>226.8</ele>
        <time>2022-09-25T14:15:15Z</time>
      </trkpt>
      <trkpt lat="45.7256" lon="5.70343">
        <ele>226.7</ele>
        <time>2022-09-25T14:15:16Z</time>
      </trkpt>
      <trkpt lat="45.72564" lon="5.70343">
        <ele>226.7</ele>
        <time>2022-09-25T14:15:17Z</time>
      </trkpt>
      <trkpt lat="45.72568" lon="5.70343">
        <ele>226.7</ele>
        <time>2022-09-25T14:15:18Z</time>
      </trkpt>
      <trkpt lat="45.72572" lon="5.70343">
        <ele>226.7</ele>
        <time>2022-09-25T14:15:19Z</time>
      </trkpt>
      <trkpt lat="45.72577" lon="5.70342">
        <ele>226.7</ele>
        <time>2022-09-25T14:15:20Z</time>
      </trkpt>
      <trkpt lat="45.72581" lon="5.70341">
        <ele>226.7</ele>
        <time>2022-09-25T14:15:21Z</time>
      </trkpt>
      <trkpt lat="45.72585" lon="5.70339">
        <ele>226.7</ele>
        <time>2022-09-25T14:15:22Z</time>
      </trkpt>
      <trkpt lat="45.7259" lon="5.70337">
        <ele>226.6</ele>
        <time>2022-09-25T14:15:23Z</time>
      </trkpt>
      <trkpt lat="45.72594" lon="5.70335">
        <ele>226.6</ele>
        <time>2022-09-25T14:15:24Z</time>
      </trkpt>
      <trkpt lat="45.72597" lon="5.70333">
        <ele>226.6</ele>
        <time>2022-09-25T14:15:25Z</time>
      </trkpt>
      <trkpt lat="45.72601" lon="5.70331">
        <ele>226.6</ele>
        <time>2022-09-25T14:15:26Z</time>
      </trkpt>
      <trkpt lat="45.72605" lon="5.70327">
        <ele>226.6</ele>
        <time>2022-09-25T14:15:27Z</time>
      </trkpt>
      <trkpt lat="45.72609" lon="5.70324">
        <ele>226.6</ele>
        <time>2022-09-25T14:15:28Z</time>
      </trkpt>
      <trkpt lat="45.72612" lon="5.70321">
        <ele>226.6</ele>
        <time>2022-09-25T14:15:29Z</time>
      </trkpt>
      <trkpt lat="45.72615" lon="5.70318">
        <ele>226.6</ele>
        <time>2022-09-25T14:15:30Z</time>
      </trkpt>
      <trkpt lat="45.72619" lon="5.70315">
        <ele>226.6</ele>
        <time>2022-09-25T14:15:31Z</time>
      </trkpt>
      <trkpt lat="45.72621" lon="5.70313">
        <ele>226.6</ele>
        <time>2022-09-25T14:15:32Z</time>
      </trkpt>
      <trkpt lat="45.72624" lon="5.70311">
        <ele>226.6</ele>
        <time>2022-09-25T14:15:33Z</time>
      </trkpt>
      <trkpt lat="45.72628" lon="5.70309">
        <ele>226.5</ele>
        <time>2022-09-25T14:15:34Z</time>
      </trkpt>
      <trkpt lat="45.72631" lon="5.70307">
        <ele>226.5</ele>
        <time>2022-09-25T14:15:35Z</time>
      </trkpt>
      <trkpt lat="45.72634" lon="5.70304">
        <ele>226.4</ele>
        <time>2022-09-25T14:15:36Z</time>
      </trkpt>
      <trkpt lat="45.72638" lon="5.70301">
        <ele>226.4</ele>
        <time>2022-09-25T14:15:37Z</time>
      </trkpt>
      <trkpt lat="45.72642" lon="5.70299">
        <ele>226.3</ele>
        <time>2022-09-25T14:15:38Z</time>
      </trkpt>
      <trkpt lat="45.72646" lon="5.70296">
        <ele>226.3</ele>
        <time>2022-09-25T14:15:39Z</time>
      </trkpt>
      <trkpt lat="45.7265" lon="5.70293">
        <ele>226.2</ele>
        <time>2022-09-25T14:15:40Z</time>
      </trkpt>
      <trkpt lat="45.72655" lon="5.7029">
        <ele>226.2</ele>
        <time>2022-09-25T14:15:41Z</time>
      </trkpt>
      <trkpt lat="45.72659" lon="5.70287">
        <ele>226.1</ele>
        <time>2022-09-25T14:15:42Z</time>
      </trkpt>
      <trkpt lat="45.72664" lon="5.70284">
        <ele>226.1</ele>
        <time>2022-09-25T14:15:43Z</time>
      </trkpt>
      <trkpt lat="45.72669" lon="5.7028">
        <ele>226.1</ele>
        <time>2022-09-25T14:15:44Z</time>
      </trkpt>
      <trkpt lat="45.72673" lon="5.70278">
        <ele>226.1</ele>
        <time>2022-09-25T14:15:45Z</time>
      </trkpt>
      <trkpt lat="45.72678" lon="5.70275">
        <ele>226.1</ele>
        <time>2022-09-25T14:15:46Z</time>
      </trkpt>
      <trkpt lat="45.72682" lon="5.70272">
        <ele>226.1</ele>
        <time>2022-09-25T14:15:47Z</time>
      </trkpt>
      <trkpt lat="45.72688" lon="5.70269">
        <ele>226.1</ele>
        <time>2022-09-25T14:15:48Z</time>
      </trkpt>
      <trkpt lat="45.72692" lon="5.70266">
        <ele>226.1</ele>
        <time>2022-09-25T14:15:49Z</time>
      </trkpt>
      <trkpt lat="45.72697" lon="5.70265">
        <ele>226.1</ele>
        <time>2022-09-25T14:15:50Z</time>
      </trkpt>
      <trkpt lat="45.72702" lon="5.70262">
        <ele>226.1</ele>
        <time>2022-09-25T14:15:51Z</time>
      </trkpt>
      <trkpt lat="45.72707" lon="5.7026">
        <ele>226.2</ele>
        <time>2022-09-25T14:15:52Z</time>
      </trkpt>
      <trkpt lat="45.72712" lon="5.70258">
        <ele>226.2</ele>
        <time>2022-09-25T14:15:53Z</time>
      </trkpt>
      <trkpt lat="45.72717" lon="5.70256">
        <ele>226.2</ele>
        <time>2022-09-25T14:15:54Z</time>
      </trkpt>
      <trkpt lat="45.72722" lon="5.70253">
        <ele>226.2</ele>
        <time>2022-09-25T14:15:55Z</time>
      </trkpt>
      <trkpt lat="45.72727" lon="5.70251">
        <ele>226.2</ele>
        <time>2022-09-25T14:15:56Z</time>
      </trkpt>
      <trkpt lat="45.72732" lon="5.70249">
        <ele>226.2</ele>
        <time>2022-09-25T14:15:57Z</time>
      </trkpt>
      <trkpt lat="45.72737" lon="5.70247">
        <ele>226.2</ele>
        <time>2022-09-25T14:15:58Z</time>
      </trkpt>
      <trkpt lat="45.72742" lon="5.70244">
        <ele>226.2</ele>
        <time>2022-09-25T14:15:59Z</time>
      </trkpt>
      <trkpt lat="45.72748" lon="5.70242">
        <ele>226.2</ele>
        <time>2022-09-25T14:16:00Z</time>
      </trkpt>
      <trkpt lat="45.72753" lon="5.70239">
        <ele>226.2</ele>
        <time>2022-09-25T14:16:01Z</time>
      </trkpt>
      <trkpt lat="45.72757" lon="5.70237">
        <ele>226.2</ele>
        <time>2022-09-25T14:16:02Z</time>
      </trkpt>
      <trkpt lat="45.72763" lon="5.70235">
        <ele>226.2</ele>
        <time>2022-09-25T14:16:03Z</time>
      </trkpt>
      <trkpt lat="45.72768" lon="5.70233">
        <ele>226.2</ele>
        <time>2022-09-25T14:16:04Z</time>
      </trkpt>
      <trkpt lat="45.72773" lon="5.7023">
        <ele>226.2</ele>
        <time>2022-09-25T14:16:05Z</time>
      </trkpt>
      <trkpt lat="45.72778" lon="5.70228">
        <ele>226.2</ele>
        <time>2022-09-25T14:16:06Z</time>
      </trkpt>
      <trkpt lat="45.72783" lon="5.70225">
        <ele>226.2</ele>
        <time>2022-09-25T14:16:07Z</time>
      </trkpt>
      <trkpt lat="45.72788" lon="5.70223">
        <ele>226.2</ele>
        <time>2022-09-25T14:16:08Z</time>
      </trkpt>
      <trkpt lat="45.72793" lon="5.7022">
        <ele>226.2</ele>
        <time>2022-09-25T14:16:09Z</time>
      </trkpt>
      <trkpt lat="45.72798" lon="5.70217">
        <ele>226.2</ele>
        <time>2022-09-25T14:16:10Z</time>
      </trkpt>
      <trkpt lat="45.72803" lon="5.70215">
        <ele>226.1</ele>
        <time>2022-09-25T14:16:11Z</time>
      </trkpt>
      <trkpt lat="45.72809" lon="5.70213">
        <ele>226.1</ele>
        <time>2022-09-25T14:16:12Z</time>
      </trkpt>
      <trkpt lat="45.72814" lon="5.70211">
        <ele>226</ele>
        <time>2022-09-25T14:16:13Z</time>
      </trkpt>
      <trkpt lat="45.72819" lon="5.7021">
        <ele>225.9</ele>
        <time>2022-09-25T14:16:14Z</time>
      </trkpt>
      <trkpt lat="45.72825" lon="5.7021">
        <ele>225.9</ele>
        <time>2022-09-25T14:16:15Z</time>
      </trkpt>
      <trkpt lat="45.7283" lon="5.70209">
        <ele>225.8</ele>
        <time>2022-09-25T14:16:16Z</time>
      </trkpt>
      <trkpt lat="45.72836" lon="5.7021">
        <ele>225.8</ele>
        <time>2022-09-25T14:16:17Z</time>
      </trkpt>
      <trkpt lat="45.72841" lon="5.70211">
        <ele>225.7</ele>
        <time>2022-09-25T14:16:18Z</time>
      </trkpt>
      <trkpt lat="45.72847" lon="5.70213">
        <ele>225.7</ele>
        <time>2022-09-25T14:16:19Z</time>
      </trkpt>
      <trkpt lat="45.72852" lon="5.70216">
        <ele>225.7</ele>
        <time>2022-09-25T14:16:20Z</time>
      </trkpt>
      <trkpt lat="45.72857" lon="5.70218">
        <ele>225.7</ele>
        <time>2022-09-25T14:16:21Z</time>
      </trkpt>
      <trkpt lat="45.72862" lon="5.70222">
        <ele>225.7</ele>
        <time>2022-09-25T14:16:22Z</time>
      </trkpt>
      <trkpt lat="45.72867" lon="5.70225">
        <ele>225.7</ele>
        <time>2022-09-25T14:16:23Z</time>
      </trkpt>
      <trkpt lat="45.72871" lon="5.70229">
        <ele>225.8</ele>
        <time>2022-09-25T14:16:24Z</time>
      </trkpt>
      <trkpt lat="45.72876" lon="5.70234">
        <ele>225.8</ele>
        <time>2022-09-25T14:16:25Z</time>
      </trkpt>
      <trkpt lat="45.7288" lon="5.70238">
        <ele>225.8</ele>
        <time>2022-09-25T14:16:26Z</time>
      </trkpt>
      <trkpt lat="45.72884" lon="5.70243">
        <ele>225.9</ele>
        <time>2022-09-25T14:16:27Z</time>
      </trkpt>
      <trkpt lat="45.72888" lon="5.70247">
        <ele>225.9</ele>
        <time>2022-09-25T14:16:28Z</time>
      </trkpt>
      <trkpt lat="45.72892" lon="5.70251">
        <ele>225.9</ele>
        <time>2022-09-25T14:16:29Z</time>
      </trkpt>
      <trkpt lat="45.72897" lon="5.70255">
        <ele>225.9</ele>
        <time>2022-09-25T14:16:30Z</time>
      </trkpt>
      <trkpt lat="45.72902" lon="5.70259">
        <ele>225.9</ele>
        <time>2022-09-25T14:16:31Z</time>
      </trkpt>
      <trkpt lat="45.72907" lon="5.70262">
        <ele>225.9</ele>
        <time>2022-09-25T14:16:32Z</time>
      </trkpt>
      <trkpt lat="45.72911" lon="5.70266">
        <ele>225.9</ele>
        <time>2022-09-25T14:16:33Z</time>
      </trkpt>
      <trkpt lat="45.72916" lon="5.70269">
        <ele>225.9</ele>
        <time>2022-09-25T14:16:34Z</time>
      </trkpt>
      <trkpt lat="45.7292" lon="5.70273">
        <ele>225.9</ele>
        <time>2022-09-25T14:16:35Z</time>
      </trkpt>
      <trkpt lat="45.72924" lon="5.70278">
        <ele>225.9</ele>
        <time>2022-09-25T14:16:36Z</time>
      </trkpt>
      <trkpt lat="45.72928" lon="5.70282">
        <ele>225.9</ele>
        <time>2022-09-25T14:16:37Z</time>
      </trkpt>
      <trkpt lat="45.72933" lon="5.70287">
        <ele>225.9</ele>
        <time>2022-09-25T14:16:38Z</time>
      </trkpt>
      <trkpt lat="45.72937" lon="5.70292">
        <ele>225.9</ele>
        <time>2022-09-25T14:16:39Z</time>
      </trkpt>
      <trkpt lat="45.72941" lon="5.70297">
        <ele>226</ele>
        <time>2022-09-25T14:16:40Z</time>
      </trkpt>
      <trkpt lat="45.72946" lon="5.70302">
        <ele>226</ele>
        <time>2022-09-25T14:16:41Z</time>
      </trkpt>
      <trkpt lat="45.7295" lon="5.70307">
        <ele>226</ele>
        <time>2022-09-25T14:16:42Z</time>
      </trkpt>
      <trkpt lat="45.72954" lon="5.70311">
        <ele>226.1</ele>
        <time>2022-09-25T14:16:43Z</time>
      </trkpt>
      <trkpt lat="45.72958" lon="5.70316">
        <ele>226.1</ele>
        <time>2022-09-25T14:16:44Z</time>
      </trkpt>
      <trkpt lat="45.72962" lon="5.70321">
        <ele>226.2</ele>
        <time>2022-09-25T14:16:45Z</time>
      </trkpt>
      <trkpt lat="45.72966" lon="5.70325">
        <ele>226.2</ele>
        <time>2022-09-25T14:16:46Z</time>
      </trkpt>
      <trkpt lat="45.72971" lon="5.7033">
        <ele>226.3</ele>
        <time>2022-09-25T14:16:47Z</time>
      </trkpt>
      <trkpt lat="45.72975" lon="5.70335">
        <ele>226.4</ele>
        <time>2022-09-25T14:16:48Z</time>
      </trkpt>
      <trkpt lat="45.72979" lon="5.70339">
        <ele>226.4</ele>
        <time>2022-09-25T14:16:49Z</time>
      </trkpt>
      <trkpt lat="45.72983" lon="5.70343">
        <ele>226.5</ele>
        <time>2022-09-25T14:16:50Z</time>
      </trkpt>
      <trkpt lat="45.72987" lon="5.70347">
        <ele>226.6</ele>
        <time>2022-09-25T14:16:51Z</time>
      </trkpt>
      <trkpt lat="45.72991" lon="5.70352">
        <ele>226.7</ele>
        <time>2022-09-25T14:16:52Z</time>
      </trkpt>
      <trkpt lat="45.72995" lon="5.70354">
        <ele>226.8</ele>
        <time>2022-09-25T14:16:53Z</time>
      </trkpt>
      <trkpt lat="45.72999" lon="5.70357">
        <ele>226.8</ele>
        <time>2022-09-25T14:16:54Z</time>
      </trkpt>
      <trkpt lat="45.73003" lon="5.7036">
        <ele>226.9</ele>
        <time>2022-09-25T14:16:55Z</time>
      </trkpt>
      <trkpt lat="45.73007" lon="5.70362">
        <ele>226.9</ele>
        <time>2022-09-25T14:16:56Z</time>
      </trkpt>
      <trkpt lat="45.73011" lon="5.70365">
        <ele>227</ele>
        <time>2022-09-25T14:16:57Z</time>
      </trkpt>
      <trkpt lat="45.73015" lon="5.70367">
        <ele>227</ele>
        <time>2022-09-25T14:16:58Z</time>
      </trkpt>
      <trkpt lat="45.73019" lon="5.70369">
        <ele>227</ele>
        <time>2022-09-25T14:16:59Z</time>
      </trkpt>
      <trkpt lat="45.73023" lon="5.70371">
        <ele>227.1</ele>
        <time>2022-09-25T14:17:00Z</time>
      </trkpt>
      <trkpt lat="45.73028" lon="5.70374">
        <ele>227.1</ele>
        <time>2022-09-25T14:17:01Z</time>
      </trkpt>
      <trkpt lat="45.73033" lon="5.70377">
        <ele>227.2</ele>
        <time>2022-09-25T14:17:02Z</time>
      </trkpt>
      <trkpt lat="45.73037" lon="5.7038">
        <ele>227.3</ele>
        <time>2022-09-25T14:17:03Z</time>
      </trkpt>
      <trkpt lat="45.73042" lon="5.70382">
        <ele>227.4</ele>
        <time>2022-09-25T14:17:04Z</time>
      </trkpt>
      <trkpt lat="45.73047" lon="5.70385">
        <ele>227.5</ele>
        <time>2022-09-25T14:17:05Z</time>
      </trkpt>
      <trkpt lat="45.73051" lon="5.70388">
        <ele>227.6</ele>
        <time>2022-09-25T14:17:06Z</time>
      </trkpt>
      <trkpt lat="45.73055" lon="5.7039">
        <ele>227.8</ele>
        <time>2022-09-25T14:17:07Z</time>
      </trkpt>
      <trkpt lat="45.7306" lon="5.70392">
        <ele>228</ele>
        <time>2022-09-25T14:17:08Z</time>
      </trkpt>
      <trkpt lat="45.73064" lon="5.70395">
        <ele>228.2</ele>
        <time>2022-09-25T14:17:09Z</time>
      </trkpt>
      <trkpt lat="45.73068" lon="5.70395">
        <ele>228.4</ele>
        <time>2022-09-25T14:17:10Z</time>
      </trkpt>
      <trkpt lat="45.73072" lon="5.70399">
        <ele>228.7</ele>
        <time>2022-09-25T14:17:11Z</time>
      </trkpt>
      <trkpt lat="45.73076" lon="5.70401">
        <ele>228.9</ele>
        <time>2022-09-25T14:17:12Z</time>
      </trkpt>
      <trkpt lat="45.73079" lon="5.70402">
        <ele>229.2</ele>
        <time>2022-09-25T14:17:13Z</time>
      </trkpt>
      <trkpt lat="45.73083" lon="5.70404">
        <ele>229.5</ele>
        <time>2022-09-25T14:17:14Z</time>
      </trkpt>
      <trkpt lat="45.73086" lon="5.70406">
        <ele>229.8</ele>
        <time>2022-09-25T14:17:15Z</time>
      </trkpt>
      <trkpt lat="45.73089" lon="5.70408">
        <ele>230</ele>
        <time>2022-09-25T14:17:16Z</time>
      </trkpt>
      <trkpt lat="45.73092" lon="5.7041">
        <ele>230.3</ele>
        <time>2022-09-25T14:17:17Z</time>
      </trkpt>
      <trkpt lat="45.73096" lon="5.70412">
        <ele>230.7</ele>
        <time>2022-09-25T14:17:18Z</time>
      </trkpt>
      <trkpt lat="45.73098" lon="5.70413">
        <ele>230.8</ele>
        <time>2022-09-25T14:17:19Z</time>
      </trkpt>
      <trkpt lat="45.731" lon="5.70415">
        <ele>231.1</ele>
        <time>2022-09-25T14:17:20Z</time>
      </trkpt>
      <trkpt lat="45.73104" lon="5.70416">
        <ele>231.4</ele>
        <time>2022-09-25T14:17:21Z</time>
      </trkpt>
      <trkpt lat="45.73105" lon="5.70416">
        <ele>231.6</ele>
        <time>2022-09-25T14:17:22Z</time>
      </trkpt>
      <trkpt lat="45.73108" lon="5.70418">
        <ele>231.9</ele>
        <time>2022-09-25T14:17:23Z</time>
      </trkpt>
      <trkpt lat="45.73109" lon="5.70418">
        <ele>232</ele>
        <time>2022-09-25T14:17:24Z</time>
      </trkpt>
      <trkpt lat="45.73112" lon="5.7042">
        <ele>232.4</ele>
        <time>2022-09-25T14:17:25Z</time>
      </trkpt>
      <trkpt lat="45.73113" lon="5.70421">
        <ele>232.5</ele>
        <time>2022-09-25T14:17:26Z</time>
      </trkpt>
      <trkpt lat="45.73116" lon="5.70423">
        <ele>232.8</ele>
        <time>2022-09-25T14:17:27Z</time>
      </trkpt>
      <trkpt lat="45.73117" lon="5.70423">
        <ele>232.9</ele>
        <time>2022-09-25T14:17:28Z</time>
      </trkpt>
      <trkpt lat="45.7312" lon="5.70425">
        <ele>233.2</ele>
        <time>2022-09-25T14:17:29Z</time>
      </trkpt>
      <trkpt lat="45.73121" lon="5.70425">
        <ele>233.3</ele>
        <time>2022-09-25T14:17:30Z</time>
      </trkpt>
      <trkpt lat="45.73123" lon="5.70426">
        <ele>233.6</ele>
        <time>2022-09-25T14:17:31Z</time>
      </trkpt>
      <trkpt lat="45.73124" lon="5.70427">
        <ele>233.7</ele>
        <time>2022-09-25T14:17:32Z</time>
      </trkpt>
      <trkpt lat="45.73127" lon="5.70428">
        <ele>234</ele>
        <time>2022-09-25T14:17:33Z</time>
      </trkpt>
      <trkpt lat="45.73128" lon="5.70429">
        <ele>234.1</ele>
        <time>2022-09-25T14:17:34Z</time>
      </trkpt>
      <trkpt lat="45.73129" lon="5.7043">
        <ele>234.3</ele>
        <time>2022-09-25T14:17:35Z</time>
      </trkpt>
      <trkpt lat="45.73131" lon="5.70431">
        <ele>234.4</ele>
        <time>2022-09-25T14:17:36Z</time>
      </trkpt>
      <trkpt lat="45.73133" lon="5.70432">
        <ele>234.6</ele>
        <time>2022-09-25T14:17:37Z</time>
      </trkpt>
      <trkpt lat="45.73134" lon="5.70432">
        <ele>234.8</ele>
        <time>2022-09-25T14:17:38Z</time>
      </trkpt>
      <trkpt lat="45.73136" lon="5.70433">
        <ele>235</ele>
        <time>2022-09-25T14:17:39Z</time>
      </trkpt>
      <trkpt lat="45.73138" lon="5.70434">
        <ele>235.1</ele>
        <time>2022-09-25T14:17:40Z</time>
      </trkpt>
      <trkpt lat="45.73139" lon="5.70435">
        <ele>235.3</ele>
        <time>2022-09-25T14:17:41Z</time>
      </trkpt>
      <trkpt lat="45.73141" lon="5.70436">
        <ele>235.5</ele>
        <time>2022-09-25T14:17:42Z</time>
      </trkpt>
      <trkpt lat="45.73143" lon="5.70437">
        <ele>235.8</ele>
        <time>2022-09-25T14:17:43Z</time>
      </trkpt>
      <trkpt lat="45.73144" lon="5.70438">
        <ele>235.8</ele>
        <time>2022-09-25T14:17:44Z</time>
      </trkpt>
      <trkpt lat="45.73146" lon="5.70438">
        <ele>235.9</ele>
        <time>2022-09-25T14:17:45Z</time>
      </trkpt>
      <trkpt lat="45.73148" lon="5.70439">
        <ele>236</ele>
        <time>2022-09-25T14:17:46Z</time>
      </trkpt>
      <trkpt lat="45.7315" lon="5.70441">
        <ele>236.1</ele>
        <time>2022-09-25T14:17:47Z</time>
      </trkpt>
      <trkpt lat="45.73151" lon="5.70442">
        <ele>236.2</ele>
        <time>2022-09-25T14:17:48Z</time>
      </trkpt>
      <trkpt lat="45.73154" lon="5.70443">
        <ele>236.3</ele>
        <time>2022-09-25T14:17:49Z</time>
      </trkpt>
      <trkpt lat="45.73156" lon="5.70444">
        <ele>236.4</ele>
        <time>2022-09-25T14:17:50Z</time>
      </trkpt>
      <trkpt lat="45.73159" lon="5.70447">
        <ele>236.5</ele>
        <time>2022-09-25T14:17:51Z</time>
      </trkpt>
      <trkpt lat="45.7316" lon="5.70448">
        <ele>236.6</ele>
        <time>2022-09-25T14:17:52Z</time>
      </trkpt>
      <trkpt lat="45.73164" lon="5.7045">
        <ele>236.7</ele>
        <time>2022-09-25T14:17:53Z</time>
      </trkpt>
      <trkpt lat="45.73165" lon="5.70451">
        <ele>236.8</ele>
        <time>2022-09-25T14:17:54Z</time>
      </trkpt>
      <trkpt lat="45.73168" lon="5.70455">
        <ele>236.9</ele>
        <time>2022-09-25T14:17:55Z</time>
      </trkpt>
      <trkpt lat="45.73169" lon="5.70456">
        <ele>236.9</ele>
        <time>2022-09-25T14:17:56Z</time>
      </trkpt>
      <trkpt lat="45.73171" lon="5.70458">
        <ele>237.1</ele>
        <time>2022-09-25T14:17:57Z</time>
      </trkpt>
      <trkpt lat="45.73173" lon="5.70462">
        <ele>237.2</ele>
        <time>2022-09-25T14:17:58Z</time>
      </trkpt>
      <trkpt lat="45.73174" lon="5.70463">
        <ele>237.3</ele>
        <time>2022-09-25T14:17:59Z</time>
      </trkpt>
      <trkpt lat="45.73177" lon="5.70465">
        <ele>237.3</ele>
        <time>2022-09-25T14:18:00Z</time>
      </trkpt>
      <trkpt lat="45.73177" lon="5.70466">
        <ele>237.4</ele>
        <time>2022-09-25T14:18:01Z</time>
      </trkpt>
      <trkpt lat="45.73178" lon="5.70466">
        <ele>237.4</ele>
        <time>2022-09-25T14:18:02Z</time>
      </trkpt>
      <trkpt lat="45.73179" lon="5.70466">
        <ele>237.5</ele>
        <time>2022-09-25T14:18:03Z</time>
      </trkpt>
      <trkpt lat="45.73181" lon="5.70465">
        <ele>237.6</ele>
        <time>2022-09-25T14:18:04Z</time>
      </trkpt>
      <trkpt lat="45.73182" lon="5.70461">
        <ele>237.7</ele>
        <time>2022-09-25T14:18:05Z</time>
      </trkpt>
      <trkpt lat="45.73183" lon="5.7046">
        <ele>237.7</ele>
        <time>2022-09-25T14:18:06Z</time>
      </trkpt>
      <trkpt lat="45.73184" lon="5.70458">
        <ele>237.7</ele>
        <time>2022-09-25T14:18:07Z</time>
      </trkpt>
      <trkpt lat="45.73185" lon="5.70458">
        <ele>237.8</ele>
        <time>2022-09-25T14:18:08Z</time>
      </trkpt>
      <trkpt lat="45.73187" lon="5.70457">
        <ele>237.8</ele>
        <time>2022-09-25T14:18:09Z</time>
      </trkpt>
      <trkpt lat="45.73188" lon="5.70455">
        <ele>237.8</ele>
        <time>2022-09-25T14:18:10Z</time>
      </trkpt>
      <trkpt lat="45.73191" lon="5.70455">
        <ele>237.8</ele>
        <time>2022-09-25T14:18:11Z</time>
      </trkpt>
      <trkpt lat="45.73195" lon="5.70454">
        <ele>237.8</ele>
        <time>2022-09-25T14:18:12Z</time>
      </trkpt>
      <trkpt lat="45.73197" lon="5.70455">
        <ele>237.8</ele>
        <time>2022-09-25T14:18:13Z</time>
      </trkpt>
      <trkpt lat="45.732" lon="5.70452">
        <ele>237.8</ele>
        <time>2022-09-25T14:18:14Z</time>
      </trkpt>
      <trkpt lat="45.73202" lon="5.70451">
        <ele>237.7</ele>
        <time>2022-09-25T14:18:15Z</time>
      </trkpt>
      <trkpt lat="45.73205" lon="5.7045">
        <ele>237.7</ele>
        <time>2022-09-25T14:18:16Z</time>
      </trkpt>
      <trkpt lat="45.73208" lon="5.7045">
        <ele>237.7</ele>
        <time>2022-09-25T14:18:17Z</time>
      </trkpt>
      <trkpt lat="45.73211" lon="5.70448">
        <ele>237.6</ele>
        <time>2022-09-25T14:18:18Z</time>
      </trkpt>
      <trkpt lat="45.73214" lon="5.70447">
        <ele>237.5</ele>
        <time>2022-09-25T14:18:19Z</time>
      </trkpt>
      <trkpt lat="45.73218" lon="5.70445">
        <ele>237.5</ele>
        <time>2022-09-25T14:18:20Z</time>
      </trkpt>
      <trkpt lat="45.73221" lon="5.70444">
        <ele>237.4</ele>
        <time>2022-09-25T14:18:21Z</time>
      </trkpt>
      <trkpt lat="45.73225" lon="5.70444">
        <ele>237.3</ele>
        <time>2022-09-25T14:18:22Z</time>
      </trkpt>
      <trkpt lat="45.73227" lon="5.70443">
        <ele>237.3</ele>
        <time>2022-09-25T14:18:23Z</time>
      </trkpt>
      <trkpt lat="45.73232" lon="5.70442">
        <ele>237.2</ele>
        <time>2022-09-25T14:18:24Z</time>
      </trkpt>
      <trkpt lat="45.73235" lon="5.70441">
        <ele>237.1</ele>
        <time>2022-09-25T14:18:25Z</time>
      </trkpt>
      <trkpt lat="45.73241" lon="5.70443">
        <ele>237.1</ele>
        <time>2022-09-25T14:18:26Z</time>
      </trkpt>
      <trkpt lat="45.73247" lon="5.70443">
        <ele>237</ele>
        <time>2022-09-25T14:18:27Z</time>
      </trkpt>
      <trkpt lat="45.73251" lon="5.70443">
        <ele>237</ele>
        <time>2022-09-25T14:18:28Z</time>
      </trkpt>
      <trkpt lat="45.73257" lon="5.70443">
        <ele>237</ele>
        <time>2022-09-25T14:18:29Z</time>
      </trkpt>
      <trkpt lat="45.73263" lon="5.70442">
        <ele>237.1</ele>
        <time>2022-09-25T14:18:30Z</time>
      </trkpt>
      <trkpt lat="45.73268" lon="5.70441">
        <ele>237.2</ele>
        <time>2022-09-25T14:18:31Z</time>
      </trkpt>
      <trkpt lat="45.73272" lon="5.7044">
        <ele>237.3</ele>
        <time>2022-09-25T14:18:32Z</time>
      </trkpt>
      <trkpt lat="45.73277" lon="5.70439">
        <ele>237.4</ele>
        <time>2022-09-25T14:18:33Z</time>
      </trkpt>
      <trkpt lat="45.73281" lon="5.70438">
        <ele>237.5</ele>
        <time>2022-09-25T14:18:34Z</time>
      </trkpt>
      <trkpt lat="45.73285" lon="5.70437">
        <ele>237.7</ele>
        <time>2022-09-25T14:18:35Z</time>
      </trkpt>
      <trkpt lat="45.73289" lon="5.70435">
        <ele>237.9</ele>
        <time>2022-09-25T14:18:36Z</time>
      </trkpt>
      <trkpt lat="45.73293" lon="5.70435">
        <ele>238.1</ele>
        <time>2022-09-25T14:18:37Z</time>
      </trkpt>
      <trkpt lat="45.73297" lon="5.70434">
        <ele>238.4</ele>
        <time>2022-09-25T14:18:38Z</time>
      </trkpt>
      <trkpt lat="45.73301" lon="5.70434">
        <ele>238.6</ele>
        <time>2022-09-25T14:18:39Z</time>
      </trkpt>
      <trkpt lat="45.73304" lon="5.70434">
        <ele>238.7</ele>
        <time>2022-09-25T14:18:40Z</time>
      </trkpt>
      <trkpt lat="45.73307" lon="5.70434">
        <ele>238.9</ele>
        <time>2022-09-25T14:18:41Z</time>
      </trkpt>
      <trkpt lat="45.7331" lon="5.70434">
        <ele>239</ele>
        <time>2022-09-25T14:18:42Z</time>
      </trkpt>
      <trkpt lat="45.73314" lon="5.70434">
        <ele>239.2</ele>
        <time>2022-09-25T14:18:43Z</time>
      </trkpt>
      <trkpt lat="45.73316" lon="5.70433">
        <ele>239.2</ele>
        <time>2022-09-25T14:18:44Z</time>
      </trkpt>
      <trkpt lat="45.73319" lon="5.70435">
        <ele>239.3</ele>
        <time>2022-09-25T14:18:45Z</time>
      </trkpt>
      <trkpt lat="45.73323" lon="5.70434">
        <ele>239.5</ele>
        <time>2022-09-25T14:18:46Z</time>
      </trkpt>
      <trkpt lat="45.73326" lon="5.70433">
        <ele>239.6</ele>
        <time>2022-09-25T14:18:47Z</time>
      </trkpt>
      <trkpt lat="45.73329" lon="5.70434">
        <ele>239.7</ele>
        <time>2022-09-25T14:18:48Z</time>
      </trkpt>
      <trkpt lat="45.73333" lon="5.70434">
        <ele>239.8</ele>
        <time>2022-09-25T14:18:49Z</time>
      </trkpt>
      <trkpt lat="45.73337" lon="5.70434">
        <ele>239.9</ele>
        <time>2022-09-25T14:18:50Z</time>
      </trkpt>
      <trkpt lat="45.7334" lon="5.70436">
        <ele>240</ele>
        <time>2022-09-25T14:18:51Z</time>
      </trkpt>
      <trkpt lat="45.73343" lon="5.70437">
        <ele>240.1</ele>
        <time>2022-09-25T14:18:52Z</time>
      </trkpt>
      <trkpt lat="45.73347" lon="5.70439">
        <ele>240.2</ele>
        <time>2022-09-25T14:18:53Z</time>
      </trkpt>
      <trkpt lat="45.7335" lon="5.70439">
        <ele>240.3</ele>
        <time>2022-09-25T14:18:54Z</time>
      </trkpt>
      <trkpt lat="45.73353" lon="5.70442">
        <ele>240.4</ele>
        <time>2022-09-25T14:18:55Z</time>
      </trkpt>
      <trkpt lat="45.73356" lon="5.70443">
        <ele>240.5</ele>
        <time>2022-09-25T14:18:56Z</time>
      </trkpt>
      <trkpt lat="45.73359" lon="5.70445">
        <ele>240.5</ele>
        <time>2022-09-25T14:18:57Z</time>
      </trkpt>
      <trkpt lat="45.73361" lon="5.70447">
        <ele>240.6</ele>
        <time>2022-09-25T14:18:58Z</time>
      </trkpt>
      <trkpt lat="45.73363" lon="5.70448">
        <ele>240.6</ele>
        <time>2022-09-25T14:18:59Z</time>
      </trkpt>
      <trkpt lat="45.73367" lon="5.7045">
        <ele>240.6</ele>
        <time>2022-09-25T14:19:00Z</time>
      </trkpt>
      <trkpt lat="45.73369" lon="5.70451">
        <ele>240.7</ele>
        <time>2022-09-25T14:19:01Z</time>
      </trkpt>
      <trkpt lat="45.73372" lon="5.70452">
        <ele>240.6</ele>
        <time>2022-09-25T14:19:02Z</time>
      </trkpt>
      <trkpt lat="45.73375" lon="5.70454">
        <ele>240.6</ele>
        <time>2022-09-25T14:19:03Z</time>
      </trkpt>
      <trkpt lat="45.7338" lon="5.70456">
        <ele>240.6</ele>
        <time>2022-09-25T14:19:04Z</time>
      </trkpt>
      <trkpt lat="45.73384" lon="5.70458">
        <ele>240.5</ele>
        <time>2022-09-25T14:19:05Z</time>
      </trkpt>
      <trkpt lat="45.73389" lon="5.7046">
        <ele>240.4</ele>
        <time>2022-09-25T14:19:06Z</time>
      </trkpt>
      <trkpt lat="45.73393" lon="5.7046">
        <ele>240.4</ele>
        <time>2022-09-25T14:19:07Z</time>
      </trkpt>
      <trkpt lat="45.734" lon="5.70462">
        <ele>240.3</ele>
        <time>2022-09-25T14:19:08Z</time>
      </trkpt>
      <trkpt lat="45.73404" lon="5.70461">
        <ele>240.3</ele>
        <time>2022-09-25T14:19:09Z</time>
      </trkpt>
      <trkpt lat="45.73409" lon="5.70463">
        <ele>240.3</ele>
        <time>2022-09-25T14:19:10Z</time>
      </trkpt>
      <trkpt lat="45.73416" lon="5.70464">
        <ele>240.3</ele>
        <time>2022-09-25T14:19:11Z</time>
      </trkpt>
      <trkpt lat="45.73422" lon="5.70465">
        <ele>240.4</ele>
        <time>2022-09-25T14:19:12Z</time>
      </trkpt>
      <trkpt lat="45.73426" lon="5.70465">
        <ele>240.5</ele>
        <time>2022-09-25T14:19:13Z</time>
      </trkpt>
      <trkpt lat="45.7343" lon="5.70467">
        <ele>240.7</ele>
        <time>2022-09-25T14:19:14Z</time>
      </trkpt>
      <trkpt lat="45.73434" lon="5.70467">
        <ele>240.8</ele>
        <time>2022-09-25T14:19:15Z</time>
      </trkpt>
      <trkpt lat="45.73436" lon="5.70467">
        <ele>240.9</ele>
        <time>2022-09-25T14:19:16Z</time>
      </trkpt>
      <trkpt lat="45.7344" lon="5.70467">
        <ele>241</ele>
        <time>2022-09-25T14:19:17Z</time>
      </trkpt>
      <trkpt lat="45.73444" lon="5.70468">
        <ele>241.2</ele>
        <time>2022-09-25T14:19:18Z</time>
      </trkpt>
      <trkpt lat="45.73447" lon="5.70469">
        <ele>241.3</ele>
        <time>2022-09-25T14:19:19Z</time>
      </trkpt>
      <trkpt lat="45.7345" lon="5.70468">
        <ele>241.5</ele>
        <time>2022-09-25T14:19:20Z</time>
      </trkpt>
      <trkpt lat="45.73454" lon="5.70469">
        <ele>241.6</ele>
        <time>2022-09-25T14:19:21Z</time>
      </trkpt>
      <trkpt lat="45.73457" lon="5.70469">
        <ele>241.7</ele>
        <time>2022-09-25T14:19:22Z</time>
      </trkpt>
      <trkpt lat="45.73458" lon="5.70469">
        <ele>241.8</ele>
        <time>2022-09-25T14:19:23Z</time>
      </trkpt>
      <trkpt lat="45.73462" lon="5.70468">
        <ele>241.9</ele>
        <time>2022-09-25T14:19:24Z</time>
      </trkpt>
      <trkpt lat="45.73465" lon="5.70468">
        <ele>242</ele>
        <time>2022-09-25T14:19:25Z</time>
      </trkpt>
      <trkpt lat="45.73469" lon="5.7047">
        <ele>242.1</ele>
        <time>2022-09-25T14:19:26Z</time>
      </trkpt>
      <trkpt lat="45.73472" lon="5.7047">
        <ele>242.1</ele>
        <time>2022-09-25T14:19:27Z</time>
      </trkpt>
      <trkpt lat="45.73477" lon="5.7047">
        <ele>242.2</ele>
        <time>2022-09-25T14:19:28Z</time>
      </trkpt>
      <trkpt lat="45.73482" lon="5.7047">
        <ele>242.2</ele>
        <time>2022-09-25T14:19:29Z</time>
      </trkpt>
      <trkpt lat="45.73486" lon="5.7047">
        <ele>242.3</ele>
        <time>2022-09-25T14:19:30Z</time>
      </trkpt>
      <trkpt lat="45.7349" lon="5.70471">
        <ele>242.3</ele>
        <time>2022-09-25T14:19:31Z</time>
      </trkpt>
      <trkpt lat="45.73496" lon="5.70472">
        <ele>242.3</ele>
        <time>2022-09-25T14:19:32Z</time>
      </trkpt>
      <trkpt lat="45.73502" lon="5.70474">
        <ele>242.3</ele>
        <time>2022-09-25T14:19:33Z</time>
      </trkpt>
      <trkpt lat="45.73507" lon="5.70475">
        <ele>242.4</ele>
        <time>2022-09-25T14:19:34Z</time>
      </trkpt>
      <trkpt lat="45.73512" lon="5.70475">
        <ele>242.4</ele>
        <time>2022-09-25T14:19:35Z</time>
      </trkpt>
      <trkpt lat="45.73517" lon="5.70478">
        <ele>242.4</ele>
        <time>2022-09-25T14:19:36Z</time>
      </trkpt>
      <trkpt lat="45.73522" lon="5.7048">
        <ele>242.4</ele>
        <time>2022-09-25T14:19:37Z</time>
      </trkpt>
      <trkpt lat="45.73527" lon="5.70483">
        <ele>242.4</ele>
        <time>2022-09-25T14:19:38Z</time>
      </trkpt>
      <trkpt lat="45.7353" lon="5.70484">
        <ele>242.4</ele>
        <time>2022-09-25T14:19:39Z</time>
      </trkpt>
      <trkpt lat="45.73534" lon="5.70487">
        <ele>242.4</ele>
        <time>2022-09-25T14:19:40Z</time>
      </trkpt>
      <trkpt lat="45.73539" lon="5.7049">
        <ele>242.5</ele>
        <time>2022-09-25T14:19:41Z</time>
      </trkpt>
      <trkpt lat="45.73544" lon="5.70493">
        <ele>242.5</ele>
        <time>2022-09-25T14:19:42Z</time>
      </trkpt>
      <trkpt lat="45.73547" lon="5.70495">
        <ele>242.5</ele>
        <time>2022-09-25T14:19:43Z</time>
      </trkpt>
      <trkpt lat="45.73551" lon="5.70496">
        <ele>242.5</ele>
        <time>2022-09-25T14:19:44Z</time>
      </trkpt>
      <trkpt lat="45.73555" lon="5.70501">
        <ele>242.6</ele>
        <time>2022-09-25T14:19:45Z</time>
      </trkpt>
      <trkpt lat="45.73561" lon="5.70505">
        <ele>242.6</ele>
        <time>2022-09-25T14:19:46Z</time>
      </trkpt>
      <trkpt lat="45.73565" lon="5.70508">
        <ele>242.6</ele>
        <time>2022-09-25T14:19:47Z</time>
      </trkpt>
      <trkpt lat="45.73567" lon="5.70511">
        <ele>242.7</ele>
        <time>2022-09-25T14:19:48Z</time>
      </trkpt>
      <trkpt lat="45.73571" lon="5.70515">
        <ele>242.7</ele>
        <time>2022-09-25T14:19:49Z</time>
      </trkpt>
      <trkpt lat="45.73575" lon="5.70519">
        <ele>242.7</ele>
        <time>2022-09-25T14:19:50Z</time>
      </trkpt>
      <trkpt lat="45.73577" lon="5.70522">
        <ele>242.7</ele>
        <time>2022-09-25T14:19:51Z</time>
      </trkpt>
      <trkpt lat="45.7358" lon="5.70524">
        <ele>242.7</ele>
        <time>2022-09-25T14:19:52Z</time>
      </trkpt>
      <trkpt lat="45.73584" lon="5.70526">
        <ele>242.7</ele>
        <time>2022-09-25T14:19:53Z</time>
      </trkpt>
      <trkpt lat="45.73586" lon="5.7053">
        <ele>242.7</ele>
        <time>2022-09-25T14:19:54Z</time>
      </trkpt>
      <trkpt lat="45.73588" lon="5.70534">
        <ele>242.7</ele>
        <time>2022-09-25T14:19:55Z</time>
      </trkpt>
      <trkpt lat="45.73589" lon="5.70534">
        <ele>242.7</ele>
        <time>2022-09-25T14:19:56Z</time>
      </trkpt>
      <trkpt lat="45.73593" lon="5.70538">
        <ele>242.6</ele>
        <time>2022-09-25T14:19:57Z</time>
      </trkpt>
      <trkpt lat="45.73599" lon="5.70544">
        <ele>242.5</ele>
        <time>2022-09-25T14:19:58Z</time>
      </trkpt>
      <trkpt lat="45.73602" lon="5.70548">
        <ele>242.5</ele>
        <time>2022-09-25T14:19:59Z</time>
      </trkpt>
      <trkpt lat="45.73607" lon="5.70553">
        <ele>242.4</ele>
        <time>2022-09-25T14:20:00Z</time>
      </trkpt>
      <trkpt lat="45.7361" lon="5.70556">
        <ele>242.3</ele>
        <time>2022-09-25T14:20:01Z</time>
      </trkpt>
      <trkpt lat="45.73613" lon="5.7056">
        <ele>242.2</ele>
        <time>2022-09-25T14:20:02Z</time>
      </trkpt>
      <trkpt lat="45.73616" lon="5.70563">
        <ele>242.1</ele>
        <time>2022-09-25T14:20:03Z</time>
      </trkpt>
      <trkpt lat="45.73619" lon="5.70568">
        <ele>241.9</ele>
        <time>2022-09-25T14:20:04Z</time>
      </trkpt>
      <trkpt lat="45.73623" lon="5.70571">
        <ele>241.8</ele>
        <time>2022-09-25T14:20:05Z</time>
      </trkpt>
      <trkpt lat="45.73625" lon="5.70574">
        <ele>241.7</ele>
        <time>2022-09-25T14:20:06Z</time>
      </trkpt>
      <trkpt lat="45.73627" lon="5.70577">
        <ele>241.6</ele>
        <time>2022-09-25T14:20:07Z</time>
      </trkpt>
      <trkpt lat="45.73629" lon="5.7058">
        <ele>241.5</ele>
        <time>2022-09-25T14:20:08Z</time>
      </trkpt>
      <trkpt lat="45.7363" lon="5.70581">
        <ele>241.5</ele>
        <time>2022-09-25T14:20:09Z</time>
      </trkpt>
      <trkpt lat="45.73634" lon="5.70582">
        <ele>241.3</ele>
        <time>2022-09-25T14:20:10Z</time>
      </trkpt>
      <trkpt lat="45.73639" lon="5.70582">
        <ele>241.1</ele>
        <time>2022-09-25T14:20:11Z</time>
      </trkpt>
      <trkpt lat="45.73643" lon="5.7058">
        <ele>240.8</ele>
        <time>2022-09-25T14:20:12Z</time>
      </trkpt>
      <trkpt lat="45.7365" lon="5.70581">
        <ele>240.3</ele>
        <time>2022-09-25T14:20:13Z</time>
      </trkpt>
      <trkpt lat="45.73655" lon="5.70581">
        <ele>239.8</ele>
        <time>2022-09-25T14:20:14Z</time>
      </trkpt>
      <trkpt lat="45.73662" lon="5.70582">
        <ele>239.2</ele>
        <time>2022-09-25T14:20:15Z</time>
      </trkpt>
      <trkpt lat="45.73669" lon="5.7058">
        <ele>238.7</ele>
        <time>2022-09-25T14:20:16Z</time>
      </trkpt>
      <trkpt lat="45.73676" lon="5.70577">
        <ele>238.1</ele>
        <time>2022-09-25T14:20:17Z</time>
      </trkpt>
      <trkpt lat="45.73683" lon="5.70573">
        <ele>237.7</ele>
        <time>2022-09-25T14:20:18Z</time>
      </trkpt>
      <trkpt lat="45.73689" lon="5.70568">
        <ele>237.3</ele>
        <time>2022-09-25T14:20:19Z</time>
      </trkpt>
      <trkpt lat="45.73695" lon="5.70564">
        <ele>237.1</ele>
        <time>2022-09-25T14:20:20Z</time>
      </trkpt>
      <trkpt lat="45.73701" lon="5.7056">
        <ele>236.9</ele>
        <time>2022-09-25T14:20:21Z</time>
      </trkpt>
      <trkpt lat="45.73707" lon="5.70556">
        <ele>236.8</ele>
        <time>2022-09-25T14:20:22Z</time>
      </trkpt>
      <trkpt lat="45.73713" lon="5.70553">
        <ele>236.7</ele>
        <time>2022-09-25T14:20:23Z</time>
      </trkpt>
      <trkpt lat="45.73719" lon="5.70549">
        <ele>236.7</ele>
        <time>2022-09-25T14:20:24Z</time>
      </trkpt>
      <trkpt lat="45.73724" lon="5.70549">
        <ele>236.6</ele>
        <time>2022-09-25T14:20:25Z</time>
      </trkpt>
      <trkpt lat="45.73728" lon="5.7055">
        <ele>236.6</ele>
        <time>2022-09-25T14:20:26Z</time>
      </trkpt>
      <trkpt lat="45.73731" lon="5.70552">
        <ele>236.6</ele>
        <time>2022-09-25T14:20:27Z</time>
      </trkpt>
      <trkpt lat="45.73734" lon="5.70553">
        <ele>236.6</ele>
        <time>2022-09-25T14:20:28Z</time>
      </trkpt>
      <trkpt lat="45.73737" lon="5.70558">
        <ele>236.6</ele>
        <time>2022-09-25T14:20:29Z</time>
      </trkpt>
      <trkpt lat="45.7374" lon="5.70562">
        <ele>236.5</ele>
        <time>2022-09-25T14:20:30Z</time>
      </trkpt>
      <trkpt lat="45.73742" lon="5.70566">
        <ele>236.5</ele>
        <time>2022-09-25T14:20:31Z</time>
      </trkpt>
      <trkpt lat="45.73742" lon="5.70571">
        <ele>236.5</ele>
        <time>2022-09-25T14:20:32Z</time>
      </trkpt>
      <trkpt lat="45.73741" lon="5.70576">
        <ele>236.5</ele>
        <time>2022-09-25T14:20:33Z</time>
      </trkpt>
      <trkpt lat="45.7374" lon="5.70581">
        <ele>236.5</ele>
        <time>2022-09-25T14:20:34Z</time>
      </trkpt>
      <trkpt lat="45.73739" lon="5.70587">
        <ele>236.5</ele>
        <time>2022-09-25T14:20:35Z</time>
      </trkpt>
      <trkpt lat="45.73737" lon="5.7059">
        <ele>236.5</ele>
        <time>2022-09-25T14:20:36Z</time>
      </trkpt>
      <trkpt lat="45.73735" lon="5.70594">
        <ele>236.5</ele>
        <time>2022-09-25T14:20:37Z</time>
      </trkpt>
      <trkpt lat="45.73733" lon="5.70599">
        <ele>236.5</ele>
        <time>2022-09-25T14:20:38Z</time>
      </trkpt>
      <trkpt lat="45.73732" lon="5.70604">
        <ele>236.5</ele>
        <time>2022-09-25T14:20:39Z</time>
      </trkpt>
      <trkpt lat="45.73729" lon="5.70609">
        <ele>236.5</ele>
        <time>2022-09-25T14:20:40Z</time>
      </trkpt>
      <trkpt lat="45.73727" lon="5.70614">
        <ele>236.5</ele>
        <time>2022-09-25T14:20:41Z</time>
      </trkpt>
      <trkpt lat="45.73725" lon="5.70619">
        <ele>236.6</ele>
        <time>2022-09-25T14:20:42Z</time>
      </trkpt>
      <trkpt lat="45.73722" lon="5.70624">
        <ele>236.6</ele>
        <time>2022-09-25T14:20:43Z</time>
      </trkpt>
      <trkpt lat="45.7372" lon="5.70629">
        <ele>236.6</ele>
        <time>2022-09-25T14:20:44Z</time>
      </trkpt>
      <trkpt lat="45.73719" lon="5.70634">
        <ele>236.6</ele>
        <time>2022-09-25T14:20:45Z</time>
      </trkpt>
      <trkpt lat="45.73719" lon="5.70636">
        <ele>236.6</ele>
        <time>2022-09-25T14:20:46Z</time>
      </trkpt>
      <trkpt lat="45.73717" lon="5.7064">
        <ele>236.6</ele>
        <time>2022-09-25T14:20:47Z</time>
      </trkpt>
      <trkpt lat="45.73717" lon="5.70642">
        <ele>236.6</ele>
        <time>2022-09-25T14:20:48Z</time>
      </trkpt>
      <trkpt lat="45.73717" lon="5.70644">
        <ele>236.6</ele>
        <time>2022-09-25T14:20:49Z</time>
      </trkpt>
      <trkpt lat="45.73718" lon="5.70646">
        <ele>236.7</ele>
        <time>2022-09-25T14:20:50Z</time>
      </trkpt>
      <trkpt lat="45.73717" lon="5.70647">
        <ele>236.7</ele>
        <time>2022-09-25T14:20:51Z</time>
      </trkpt>
      <trkpt lat="45.73717" lon="5.70647">
        <ele>236.7</ele>
        <time>2022-09-25T14:20:52Z</time>
      </trkpt>
      <trkpt lat="45.73718" lon="5.70648">
        <ele>236.7</ele>
        <time>2022-09-25T14:20:53Z</time>
      </trkpt>
      <trkpt lat="45.73718" lon="5.70648">
        <ele>236.7</ele>
        <time>2022-09-25T14:20:54Z</time>
      </trkpt>
      <trkpt lat="45.73718" lon="5.70648">
        <ele>236.7</ele>
        <time>2022-09-25T14:20:55Z</time>
      </trkpt>
      <trkpt lat="45.73717" lon="5.70648">
        <ele>236.7</ele>
        <time>2022-09-25T14:20:56Z</time>
      </trkpt>
      <trkpt lat="45.73717" lon="5.70649">
        <ele>236.7</ele>
        <time>2022-09-25T14:20:57Z</time>
      </trkpt>
      <trkpt lat="45.73716" lon="5.7065">
        <ele>236.7</ele>
        <time>2022-09-25T14:20:58Z</time>
      </trkpt>
      <trkpt lat="45.73716" lon="5.70651">
        <ele>236.7</ele>
        <time>2022-09-25T14:20:59Z</time>
      </trkpt>
      <trkpt lat="45.73715" lon="5.70652">
        <ele>236.7</ele>
        <time>2022-09-25T14:21:00Z</time>
      </trkpt>
      <trkpt lat="45.73715" lon="5.70653">
        <ele>236.7</ele>
        <time>2022-09-25T14:21:15Z</time>
      </trkpt>
      <trkpt lat="45.73714" lon="5.70654">
        <ele>236.7</ele>
        <time>2022-09-25T14:21:16Z</time>
      </trkpt>
      <trkpt lat="45.73713" lon="5.70655">
        <ele>236.7</ele>
        <time>2022-09-25T14:21:17Z</time>
      </trkpt>
      <trkpt lat="45.73713" lon="5.70656">
        <ele>236.7</ele>
        <time>2022-09-25T14:21:18Z</time>
      </trkpt>
      <trkpt lat="45.73712" lon="5.70657">
        <ele>236.7</ele>
        <time>2022-09-25T14:21:19Z</time>
      </trkpt>
      <trkpt lat="45.7371" lon="5.70659">
        <ele>236.7</ele>
        <time>2022-09-25T14:21:20Z</time>
      </trkpt>
      <trkpt lat="45.73708" lon="5.70662">
        <ele>236.8</ele>
        <time>2022-09-25T14:21:21Z</time>
      </trkpt>
      <trkpt lat="45.73707" lon="5.70663">
        <ele>236.8</ele>
        <time>2022-09-25T14:21:22Z</time>
      </trkpt>
      <trkpt lat="45.73704" lon="5.70667">
        <ele>236.8</ele>
        <time>2022-09-25T14:21:23Z</time>
      </trkpt>
      <trkpt lat="45.73703" lon="5.70668">
        <ele>236.8</ele>
        <time>2022-09-25T14:21:24Z</time>
      </trkpt>
      <trkpt lat="45.73701" lon="5.70673">
        <ele>236.8</ele>
        <time>2022-09-25T14:21:25Z</time>
      </trkpt>
      <trkpt lat="45.737" lon="5.70675">
        <ele>236.8</ele>
        <time>2022-09-25T14:21:26Z</time>
      </trkpt>
      <trkpt lat="45.73697" lon="5.70679">
        <ele>236.9</ele>
        <time>2022-09-25T14:21:27Z</time>
      </trkpt>
      <trkpt lat="45.73696" lon="5.7068">
        <ele>236.9</ele>
        <time>2022-09-25T14:21:28Z</time>
      </trkpt>
      <trkpt lat="45.73694" lon="5.70684">
        <ele>236.9</ele>
        <time>2022-09-25T14:21:29Z</time>
      </trkpt>
      <trkpt lat="45.73692" lon="5.70686">
        <ele>236.9</ele>
        <time>2022-09-25T14:21:30Z</time>
      </trkpt>
      <trkpt lat="45.73689" lon="5.70689">
        <ele>237</ele>
        <time>2022-09-25T14:21:31Z</time>
      </trkpt>
      <trkpt lat="45.73688" lon="5.70691">
        <ele>237</ele>
        <time>2022-09-25T14:21:32Z</time>
      </trkpt>
      <trkpt lat="45.73685" lon="5.70692">
        <ele>237.1</ele>
        <time>2022-09-25T14:21:33Z</time>
      </trkpt>
      <trkpt lat="45.73683" lon="5.70694">
        <ele>237.2</ele>
        <time>2022-09-25T14:21:34Z</time>
      </trkpt>
      <trkpt lat="45.7368" lon="5.70695">
        <ele>237.3</ele>
        <time>2022-09-25T14:21:35Z</time>
      </trkpt>
      <trkpt lat="45.73678" lon="5.70698">
        <ele>237.4</ele>
        <time>2022-09-25T14:21:36Z</time>
      </trkpt>
      <trkpt lat="45.73674" lon="5.70699">
        <ele>237.6</ele>
        <time>2022-09-25T14:21:37Z</time>
      </trkpt>
      <trkpt lat="45.73673" lon="5.707">
        <ele>237.7</ele>
        <time>2022-09-25T14:21:38Z</time>
      </trkpt>
      <trkpt lat="45.7367" lon="5.70701">
        <ele>237.9</ele>
        <time>2022-09-25T14:21:39Z</time>
      </trkpt>
      <trkpt lat="45.73669" lon="5.70701">
        <ele>238</ele>
        <time>2022-09-25T14:21:40Z</time>
      </trkpt>
      <trkpt lat="45.73667" lon="5.70703">
        <ele>238.2</ele>
        <time>2022-09-25T14:21:41Z</time>
      </trkpt>
      <trkpt lat="45.73665" lon="5.70704">
        <ele>238.3</ele>
        <time>2022-09-25T14:21:42Z</time>
      </trkpt>
      <trkpt lat="45.73662" lon="5.70703">
        <ele>238.6</ele>
        <time>2022-09-25T14:21:43Z</time>
      </trkpt>
      <trkpt lat="45.73661" lon="5.70703">
        <ele>238.6</ele>
        <time>2022-09-25T14:21:44Z</time>
      </trkpt>
      <trkpt lat="45.7366" lon="5.70702">
        <ele>238.9</ele>
        <time>2022-09-25T14:21:45Z</time>
      </trkpt>
      <trkpt lat="45.73658" lon="5.70702">
        <ele>239.3</ele>
        <time>2022-09-25T14:21:46Z</time>
      </trkpt>
      <trkpt lat="45.73655" lon="5.70702">
        <ele>239.6</ele>
        <time>2022-09-25T14:21:47Z</time>
      </trkpt>
      <trkpt lat="45.73653" lon="5.70702">
        <ele>239.9</ele>
        <time>2022-09-25T14:21:48Z</time>
      </trkpt>
      <trkpt lat="45.73652" lon="5.70703">
        <ele>240.2</ele>
        <time>2022-09-25T14:21:49Z</time>
      </trkpt>
      <trkpt lat="45.7365" lon="5.70703">
        <ele>241.9</ele>
        <time>2022-09-25T14:21:50Z</time>
      </trkpt>
      <trkpt lat="45.73647" lon="5.70704">
        <ele>242.2</ele>
        <time>2022-09-25T14:21:51Z</time>
      </trkpt>
      <trkpt lat="45.73646" lon="5.70705">
        <ele>242.5</ele>
        <time>2022-09-25T14:21:52Z</time>
      </trkpt>
      <trkpt lat="45.73644" lon="5.70705">
        <ele>242.8</ele>
        <time>2022-09-25T14:21:53Z</time>
      </trkpt>
      <trkpt lat="45.73642" lon="5.70705">
        <ele>243.1</ele>
        <time>2022-09-25T14:21:54Z</time>
      </trkpt>
      <trkpt lat="45.7364" lon="5.70704">
        <ele>243</ele>
        <time>2022-09-25T14:21:55Z</time>
      </trkpt>
      <trkpt lat="45.73639" lon="5.70704">
        <ele>243</ele>
        <time>2022-09-25T14:21:56Z</time>
      </trkpt>
      <trkpt lat="45.73637" lon="5.70703">
        <ele>242.9</ele>
        <time>2022-09-25T14:21:57Z</time>
      </trkpt>
      <trkpt lat="45.73636" lon="5.70702">
        <ele>242.9</ele>
        <time>2022-09-25T14:21:58Z</time>
      </trkpt>
      <trkpt lat="45.73635" lon="5.70702">
        <ele>242.9</ele>
        <time>2022-09-25T14:21:59Z</time>
      </trkpt>
      <trkpt lat="45.73635" lon="5.70701">
        <ele>242.8</ele>
        <time>2022-09-25T14:22:00Z</time>
      </trkpt>
      <trkpt lat="45.73636" lon="5.707">
        <ele>242.8</ele>
        <time>2022-09-25T14:22:01Z</time>
      </trkpt>
      <trkpt lat="45.73638" lon="5.707">
        <ele>242.7</ele>
        <time>2022-09-25T14:22:02Z</time>
      </trkpt>
      <trkpt lat="45.73641" lon="5.707">
        <ele>242.7</ele>
        <time>2022-09-25T14:22:03Z</time>
      </trkpt>
      <trkpt lat="45.73641" lon="5.707">
        <ele>242.6</ele>
        <time>2022-09-25T14:22:04Z</time>
      </trkpt>
      <trkpt lat="45.73644" lon="5.707">
        <ele>242.6</ele>
        <time>2022-09-25T14:22:05Z</time>
      </trkpt>
      <trkpt lat="45.73647" lon="5.70699">
        <ele>242.5</ele>
        <time>2022-09-25T14:22:06Z</time>
      </trkpt>
      <trkpt lat="45.73649" lon="5.70698">
        <ele>242.4</ele>
        <time>2022-09-25T14:22:07Z</time>
      </trkpt>
      <trkpt lat="45.73652" lon="5.70695">
        <ele>242.3</ele>
        <time>2022-09-25T14:22:08Z</time>
      </trkpt>
      <trkpt lat="45.73655" lon="5.70693">
        <ele>242.3</ele>
        <time>2022-09-25T14:22:09Z</time>
      </trkpt>
      <trkpt lat="45.7366" lon="5.7069">
        <ele>242.1</ele>
        <time>2022-09-25T14:22:10Z</time>
      </trkpt>
      <trkpt lat="45.73666" lon="5.70687">
        <ele>242</ele>
        <time>2022-09-25T14:22:11Z</time>
      </trkpt>
      <trkpt lat="45.7367" lon="5.70684">
        <ele>241.9</ele>
        <time>2022-09-25T14:22:12Z</time>
      </trkpt>
      <trkpt lat="45.73675" lon="5.70679">
        <ele>241.7</ele>
        <time>2022-09-25T14:22:13Z</time>
      </trkpt>
      <trkpt lat="45.73679" lon="5.70674">
        <ele>241.6</ele>
        <time>2022-09-25T14:22:14Z</time>
      </trkpt>
      <trkpt lat="45.73684" lon="5.70669">
        <ele>241.5</ele>
        <time>2022-09-25T14:22:15Z</time>
      </trkpt>
      <trkpt lat="45.73688" lon="5.70664">
        <ele>241.4</ele>
        <time>2022-09-25T14:22:16Z</time>
      </trkpt>
      <trkpt lat="45.73693" lon="5.70658">
        <ele>241.3</ele>
        <time>2022-09-25T14:22:17Z</time>
      </trkpt>
      <trkpt lat="45.73696" lon="5.70652">
        <ele>241.3</ele>
        <time>2022-09-25T14:22:18Z</time>
      </trkpt>
      <trkpt lat="45.73701" lon="5.70646">
        <ele>241.3</ele>
        <time>2022-09-25T14:22:19Z</time>
      </trkpt>
      <trkpt lat="45.73704" lon="5.7064">
        <ele>241.3</ele>
        <time>2022-09-25T14:22:20Z</time>
      </trkpt>
      <trkpt lat="45.73706" lon="5.70634">
        <ele>241.4</ele>
        <time>2022-09-25T14:22:21Z</time>
      </trkpt>
      <trkpt lat="45.73708" lon="5.70629">
        <ele>241.4</ele>
        <time>2022-09-25T14:22:22Z</time>
      </trkpt>
      <trkpt lat="45.73711" lon="5.70624">
        <ele>241.5</ele>
        <time>2022-09-25T14:22:23Z</time>
      </trkpt>
      <trkpt lat="45.73713" lon="5.70619">
        <ele>241.6</ele>
        <time>2022-09-25T14:22:24Z</time>
      </trkpt>
      <trkpt lat="45.73715" lon="5.70612">
        <ele>241.7</ele>
        <time>2022-09-25T14:22:25Z</time>
      </trkpt>
      <trkpt lat="45.73717" lon="5.70607">
        <ele>241.8</ele>
        <time>2022-09-25T14:22:26Z</time>
      </trkpt>
      <trkpt lat="45.73719" lon="5.70602">
        <ele>241.9</ele>
        <time>2022-09-25T14:22:27Z</time>
      </trkpt>
      <trkpt lat="45.7372" lon="5.70596">
        <ele>242.1</ele>
        <time>2022-09-25T14:22:28Z</time>
      </trkpt>
      <trkpt lat="45.73722" lon="5.70591">
        <ele>242.2</ele>
        <time>2022-09-25T14:22:29Z</time>
      </trkpt>
      <trkpt lat="45.73724" lon="5.70587">
        <ele>242.4</ele>
        <time>2022-09-25T14:22:30Z</time>
      </trkpt>
      <trkpt lat="45.73726" lon="5.70582">
        <ele>242.5</ele>
        <time>2022-09-25T14:22:31Z</time>
      </trkpt>
      <trkpt lat="45.73727" lon="5.70577">
        <ele>242.7</ele>
        <time>2022-09-25T14:22:32Z</time>
      </trkpt>
      <trkpt lat="45.73728" lon="5.70572">
        <ele>242.8</ele>
        <time>2022-09-25T14:22:33Z</time>
      </trkpt>
      <trkpt lat="45.7373" lon="5.70567">
        <ele>242.9</ele>
        <time>2022-09-25T14:22:34Z</time>
      </trkpt>
      <trkpt lat="45.73731" lon="5.70562">
        <ele>243</ele>
        <time>2022-09-25T14:22:35Z</time>
      </trkpt>
      <trkpt lat="45.73733" lon="5.70558">
        <ele>243.2</ele>
        <time>2022-09-25T14:22:36Z</time>
      </trkpt>
      <trkpt lat="45.73735" lon="5.70554">
        <ele>243.2</ele>
        <time>2022-09-25T14:22:37Z</time>
      </trkpt>
      <trkpt lat="45.73736" lon="5.7055">
        <ele>243.3</ele>
        <time>2022-09-25T14:22:38Z</time>
      </trkpt>
      <trkpt lat="45.73738" lon="5.70545">
        <ele>243.4</ele>
        <time>2022-09-25T14:22:39Z</time>
      </trkpt>
      <trkpt lat="45.73739" lon="5.70541">
        <ele>243.5</ele>
        <time>2022-09-25T14:22:40Z</time>
      </trkpt>
      <trkpt lat="45.73741" lon="5.70537">
        <ele>243.6</ele>
        <time>2022-09-25T14:22:41Z</time>
      </trkpt>
      <trkpt lat="45.73742" lon="5.70532">
        <ele>243.7</ele>
        <time>2022-09-25T14:22:42Z</time>
      </trkpt>
      <trkpt lat="45.73744" lon="5.70528">
        <ele>243.7</ele>
        <time>2022-09-25T14:22:43Z</time>
      </trkpt>
      <trkpt lat="45.73746" lon="5.70523">
        <ele>243.8</ele>
        <time>2022-09-25T14:22:44Z</time>
      </trkpt>
      <trkpt lat="45.73747" lon="5.70518">
        <ele>243.9</ele>
        <time>2022-09-25T14:22:45Z</time>
      </trkpt>
      <trkpt lat="45.73749" lon="5.70513">
        <ele>243.9</ele>
        <time>2022-09-25T14:22:46Z</time>
      </trkpt>
      <trkpt lat="45.7375" lon="5.70509">
        <ele>244</ele>
        <time>2022-09-25T14:22:47Z</time>
      </trkpt>
      <trkpt lat="45.73752" lon="5.70504">
        <ele>244</ele>
        <time>2022-09-25T14:22:48Z</time>
      </trkpt>
      <trkpt lat="45.73754" lon="5.70499">
        <ele>244</ele>
        <time>2022-09-25T14:22:49Z</time>
      </trkpt>
      <trkpt lat="45.73756" lon="5.70494">
        <ele>244</ele>
        <time>2022-09-25T14:22:50Z</time>
      </trkpt>
      <trkpt lat="45.73758" lon="5.70489">
        <ele>244</ele>
        <time>2022-09-25T14:22:51Z</time>
      </trkpt>
      <trkpt lat="45.73759" lon="5.70484">
        <ele>244</ele>
        <time>2022-09-25T14:22:52Z</time>
      </trkpt>
      <trkpt lat="45.73761" lon="5.70478">
        <ele>243.9</ele>
        <time>2022-09-25T14:22:53Z</time>
      </trkpt>
      <trkpt lat="45.73763" lon="5.70473">
        <ele>243.9</ele>
        <time>2022-09-25T14:22:54Z</time>
      </trkpt>
      <trkpt lat="45.73765" lon="5.70467">
        <ele>243.8</ele>
        <time>2022-09-25T14:22:55Z</time>
      </trkpt>
      <trkpt lat="45.73767" lon="5.70462">
        <ele>243.7</ele>
        <time>2022-09-25T14:22:56Z</time>
      </trkpt>
      <trkpt lat="45.73769" lon="5.70457">
        <ele>243.6</ele>
        <time>2022-09-25T14:22:57Z</time>
      </trkpt>
      <trkpt lat="45.73771" lon="5.70451">
        <ele>243.5</ele>
        <time>2022-09-25T14:22:58Z</time>
      </trkpt>
      <trkpt lat="45.73773" lon="5.70445">
        <ele>243.3</ele>
        <time>2022-09-25T14:22:59Z</time>
      </trkpt>
      <trkpt lat="45.73776" lon="5.70439">
        <ele>243.1</ele>
        <time>2022-09-25T14:23:00Z</time>
      </trkpt>
      <trkpt lat="45.73778" lon="5.70433">
        <ele>243</ele>
        <time>2022-09-25T14:23:01Z</time>
      </trkpt>
      <trkpt lat="45.7378" lon="5.70428">
        <ele>242.8</ele>
        <time>2022-09-25T14:23:02Z</time>
      </trkpt>
      <trkpt lat="45.73782" lon="5.70422">
        <ele>242.6</ele>
        <time>2022-09-25T14:23:03Z</time>
      </trkpt>
      <trkpt lat="45.73784" lon="5.70416">
        <ele>242.3</ele>
        <time>2022-09-25T14:23:04Z</time>
      </trkpt>
      <trkpt lat="45.73787" lon="5.7041">
        <ele>242.1</ele>
        <time>2022-09-25T14:23:05Z</time>
      </trkpt>
      <trkpt lat="45.73789" lon="5.70403">
        <ele>241.7</ele>
        <time>2022-09-25T14:23:06Z</time>
      </trkpt>
      <trkpt lat="45.73792" lon="5.70396">
        <ele>241.4</ele>
        <time>2022-09-25T14:23:07Z</time>
      </trkpt>
      <trkpt lat="45.73796" lon="5.70389">
        <ele>241.1</ele>
        <time>2022-09-25T14:23:08Z</time>
      </trkpt>
      <trkpt lat="45.738" lon="5.70383">
        <ele>240.7</ele>
        <time>2022-09-25T14:23:09Z</time>
      </trkpt>
      <trkpt lat="45.73802" lon="5.70377">
        <ele>240.5</ele>
        <time>2022-09-25T14:23:10Z</time>
      </trkpt>
      <trkpt lat="45.73806" lon="5.70371">
        <ele>240.1</ele>
        <time>2022-09-25T14:23:11Z</time>
      </trkpt>
      <trkpt lat="45.73811" lon="5.70364">
        <ele>239.8</ele>
        <time>2022-09-25T14:23:12Z</time>
      </trkpt>
      <trkpt lat="45.73815" lon="5.70358">
        <ele>239.4</ele>
        <time>2022-09-25T14:23:13Z</time>
      </trkpt>
      <trkpt lat="45.7382" lon="5.70353">
        <ele>239.1</ele>
        <time>2022-09-25T14:23:14Z</time>
      </trkpt>
      <trkpt lat="45.73825" lon="5.70348">
        <ele>238.7</ele>
        <time>2022-09-25T14:23:15Z</time>
      </trkpt>
      <trkpt lat="45.73831" lon="5.70343">
        <ele>238.2</ele>
        <time>2022-09-25T14:23:16Z</time>
      </trkpt>
      <trkpt lat="45.73836" lon="5.70338">
        <ele>237.9</ele>
        <time>2022-09-25T14:23:17Z</time>
      </trkpt>
      <trkpt lat="45.73842" lon="5.70335">
        <ele>237.5</ele>
        <time>2022-09-25T14:23:18Z</time>
      </trkpt>
      <trkpt lat="45.73849" lon="5.70333">
        <ele>237.1</ele>
        <time>2022-09-25T14:23:19Z</time>
      </trkpt>
      <trkpt lat="45.73856" lon="5.70329">
        <ele>236.6</ele>
        <time>2022-09-25T14:23:20Z</time>
      </trkpt>
      <trkpt lat="45.73863" lon="5.70327">
        <ele>236.1</ele>
        <time>2022-09-25T14:23:21Z</time>
      </trkpt>
      <trkpt lat="45.73869" lon="5.70325">
        <ele>235.7</ele>
        <time>2022-09-25T14:23:22Z</time>
      </trkpt>
      <trkpt lat="45.73875" lon="5.70323">
        <ele>235.3</ele>
        <time>2022-09-25T14:23:23Z</time>
      </trkpt>
      <trkpt lat="45.73884" lon="5.70319">
        <ele>234.7</ele>
        <time>2022-09-25T14:23:24Z</time>
      </trkpt>
      <trkpt lat="45.73892" lon="5.70316">
        <ele>234.2</ele>
        <time>2022-09-25T14:23:25Z</time>
      </trkpt>
      <trkpt lat="45.73899" lon="5.70313">
        <ele>233.7</ele>
        <time>2022-09-25T14:23:26Z</time>
      </trkpt>
      <trkpt lat="45.73907" lon="5.7031">
        <ele>233.2</ele>
        <time>2022-09-25T14:23:27Z</time>
      </trkpt>
      <trkpt lat="45.73915" lon="5.70307">
        <ele>232.7</ele>
        <time>2022-09-25T14:23:28Z</time>
      </trkpt>
      <trkpt lat="45.73921" lon="5.70303">
        <ele>232.4</ele>
        <time>2022-09-25T14:23:29Z</time>
      </trkpt>
      <trkpt lat="45.73928" lon="5.70301">
        <ele>232</ele>
        <time>2022-09-25T14:23:30Z</time>
      </trkpt>
      <trkpt lat="45.73935" lon="5.70298">
        <ele>231.7</ele>
        <time>2022-09-25T14:23:31Z</time>
      </trkpt>
      <trkpt lat="45.73941" lon="5.70296">
        <ele>231.4</ele>
        <time>2022-09-25T14:23:32Z</time>
      </trkpt>
      <trkpt lat="45.73946" lon="5.70293">
        <ele>231.2</ele>
        <time>2022-09-25T14:23:33Z</time>
      </trkpt>
      <trkpt lat="45.73952" lon="5.7029">
        <ele>231</ele>
        <time>2022-09-25T14:23:34Z</time>
      </trkpt>
      <trkpt lat="45.73956" lon="5.70287">
        <ele>230.9</ele>
        <time>2022-09-25T14:23:35Z</time>
      </trkpt>
      <trkpt lat="45.73961" lon="5.70284">
        <ele>230.8</ele>
        <time>2022-09-25T14:23:36Z</time>
      </trkpt>
      <trkpt lat="45.73966" lon="5.7028">
        <ele>230.6</ele>
        <time>2022-09-25T14:23:37Z</time>
      </trkpt>
      <trkpt lat="45.73971" lon="5.70276">
        <ele>230.5</ele>
        <time>2022-09-25T14:23:38Z</time>
      </trkpt>
      <trkpt lat="45.73975" lon="5.70273">
        <ele>230.4</ele>
        <time>2022-09-25T14:23:39Z</time>
      </trkpt>
      <trkpt lat="45.73978" lon="5.70271">
        <ele>230.3</ele>
        <time>2022-09-25T14:23:40Z</time>
      </trkpt>
      <trkpt lat="45.73979" lon="5.70271">
        <ele>230.3</ele>
        <time>2022-09-25T14:23:41Z</time>
      </trkpt>
      <trkpt lat="45.7398" lon="5.70271">
        <ele>229.9</ele>
        <time>2022-09-25T14:23:42Z</time>
      </trkpt>
      <trkpt lat="45.73981" lon="5.70271">
        <ele>229.8</ele>
        <time>2022-09-25T14:23:43Z</time>
      </trkpt>
      <trkpt lat="45.73982" lon="5.70275">
        <ele>229.6</ele>
        <time>2022-09-25T14:23:44Z</time>
      </trkpt>
      <trkpt lat="45.73982" lon="5.70277">
        <ele>229.5</ele>
        <time>2022-09-25T14:23:45Z</time>
      </trkpt>
      <trkpt lat="45.7398" lon="5.7028">
        <ele>229.3</ele>
        <time>2022-09-25T14:23:46Z</time>
      </trkpt>
      <trkpt lat="45.73977" lon="5.70282">
        <ele>229</ele>
        <time>2022-09-25T14:23:47Z</time>
      </trkpt>
      <trkpt lat="45.73974" lon="5.70285">
        <ele>228.8</ele>
        <time>2022-09-25T14:23:48Z</time>
      </trkpt>
      <trkpt lat="45.7397" lon="5.70288">
        <ele>228.5</ele>
        <time>2022-09-25T14:23:49Z</time>
      </trkpt>
      <trkpt lat="45.73966" lon="5.70292">
        <ele>228.3</ele>
        <time>2022-09-25T14:23:50Z</time>
      </trkpt>
      <trkpt lat="45.73961" lon="5.70296">
        <ele>228</ele>
        <time>2022-09-25T14:23:51Z</time>
      </trkpt>
      <trkpt lat="45.73957" lon="5.70299">
        <ele>227.9</ele>
        <time>2022-09-25T14:23:52Z</time>
      </trkpt>
      <trkpt lat="45.73952" lon="5.70302">
        <ele>227.7</ele>
        <time>2022-09-25T14:23:53Z</time>
      </trkpt>
      <trkpt lat="45.73947" lon="5.70304">
        <ele>227.6</ele>
        <time>2022-09-25T14:23:54Z</time>
      </trkpt>
      <trkpt lat="45.73942" lon="5.70307">
        <ele>227.5</ele>
        <time>2022-09-25T14:23:55Z</time>
      </trkpt>
      <trkpt lat="45.73938" lon="5.7031">
        <ele>227.4</ele>
        <time>2022-09-25T14:23:56Z</time>
      </trkpt>
      <trkpt lat="45.73935" lon="5.70312">
        <ele>227.3</ele>
        <time>2022-09-25T14:23:57Z</time>
      </trkpt>
      <trkpt lat="45.7393" lon="5.70315">
        <ele>227.3</ele>
        <time>2022-09-25T14:23:58Z</time>
      </trkpt>
      <trkpt lat="45.73926" lon="5.70316">
        <ele>227.2</ele>
        <time>2022-09-25T14:23:59Z</time>
      </trkpt>
      <trkpt lat="45.73923" lon="5.70318">
        <ele>227.2</ele>
        <time>2022-09-25T14:24:00Z</time>
      </trkpt>
      <trkpt lat="45.73919" lon="5.70321">
        <ele>227.2</ele>
        <time>2022-09-25T14:24:01Z</time>
      </trkpt>
      <trkpt lat="45.73914" lon="5.70325">
        <ele>227.1</ele>
        <time>2022-09-25T14:24:02Z</time>
      </trkpt>
      <trkpt lat="45.7391" lon="5.70329">
        <ele>227.1</ele>
        <time>2022-09-25T14:24:03Z</time>
      </trkpt>
      <trkpt lat="45.73907" lon="5.70335">
        <ele>227.1</ele>
        <time>2022-09-25T14:24:04Z</time>
      </trkpt>
      <trkpt lat="45.73906" lon="5.7034">
        <ele>227.1</ele>
        <time>2022-09-25T14:24:05Z</time>
      </trkpt>
      <trkpt lat="45.73904" lon="5.70347">
        <ele>227.1</ele>
        <time>2022-09-25T14:24:06Z</time>
      </trkpt>
      <trkpt lat="45.73903" lon="5.70353">
        <ele>227</ele>
        <time>2022-09-25T14:24:07Z</time>
      </trkpt>
      <trkpt lat="45.73901" lon="5.70361">
        <ele>227</ele>
        <time>2022-09-25T14:24:08Z</time>
      </trkpt>
      <trkpt lat="45.73899" lon="5.70368">
        <ele>227.1</ele>
        <time>2022-09-25T14:24:09Z</time>
      </trkpt>
      <trkpt lat="45.73898" lon="5.70374">
        <ele>227.1</ele>
        <time>2022-09-25T14:24:10Z</time>
      </trkpt>
      <trkpt lat="45.73897" lon="5.7038">
        <ele>227.1</ele>
        <time>2022-09-25T14:24:11Z</time>
      </trkpt>
      <trkpt lat="45.73895" lon="5.70386">
        <ele>227.2</ele>
        <time>2022-09-25T14:24:12Z</time>
      </trkpt>
      <trkpt lat="45.73893" lon="5.70391">
        <ele>227.3</ele>
        <time>2022-09-25T14:24:13Z</time>
      </trkpt>
      <trkpt lat="45.73893" lon="5.70397">
        <ele>227.4</ele>
        <time>2022-09-25T14:24:14Z</time>
      </trkpt>
      <trkpt lat="45.73891" lon="5.70402">
        <ele>227.5</ele>
        <time>2022-09-25T14:24:15Z</time>
      </trkpt>
      <trkpt lat="45.7389" lon="5.70406">
        <ele>227.6</ele>
        <time>2022-09-25T14:24:16Z</time>
      </trkpt>
      <trkpt lat="45.73889" lon="5.7041">
        <ele>227.7</ele>
        <time>2022-09-25T14:24:17Z</time>
      </trkpt>
      <trkpt lat="45.73889" lon="5.70412">
        <ele>227.8</ele>
        <time>2022-09-25T14:24:18Z</time>
      </trkpt>
      <trkpt lat="45.73889" lon="5.70414">
        <ele>227.8</ele>
        <time>2022-09-25T14:24:19Z</time>
      </trkpt>
      <trkpt lat="45.7389" lon="5.70416">
        <ele>227.9</ele>
        <time>2022-09-25T14:24:20Z</time>
      </trkpt>
      <trkpt lat="45.73892" lon="5.70418">
        <ele>227.9</ele>
        <time>2022-09-25T14:24:21Z</time>
      </trkpt>
      <trkpt lat="45.73893" lon="5.70418">
        <ele>227.8</ele>
        <time>2022-09-25T14:24:22Z</time>
      </trkpt>
      <trkpt lat="45.73897" lon="5.70419">
        <ele>227.8</ele>
        <time>2022-09-25T14:24:23Z</time>
      </trkpt>
      <trkpt lat="45.73899" lon="5.70418">
        <ele>227.8</ele>
        <time>2022-09-25T14:24:24Z</time>
      </trkpt>
      <trkpt lat="45.73902" lon="5.70418">
        <ele>227.7</ele>
        <time>2022-09-25T14:24:25Z</time>
      </trkpt>
      <trkpt lat="45.73905" lon="5.70418">
        <ele>227.7</ele>
        <time>2022-09-25T14:24:26Z</time>
      </trkpt>
      <trkpt lat="45.73908" lon="5.70418">
        <ele>227.7</ele>
        <time>2022-09-25T14:24:27Z</time>
      </trkpt>
      <trkpt lat="45.73912" lon="5.70418">
        <ele>227.6</ele>
        <time>2022-09-25T14:24:28Z</time>
      </trkpt>
      <trkpt lat="45.73916" lon="5.70417">
        <ele>227.6</ele>
        <time>2022-09-25T14:24:29Z</time>
      </trkpt>
      <trkpt lat="45.73919" lon="5.70416">
        <ele>227.6</ele>
        <time>2022-09-25T14:24:30Z</time>
      </trkpt>
      <trkpt lat="45.73923" lon="5.70415">
        <ele>227.6</ele>
        <time>2022-09-25T14:24:31Z</time>
      </trkpt>
      <trkpt lat="45.73927" lon="5.70413">
        <ele>227.6</ele>
        <time>2022-09-25T14:24:32Z</time>
      </trkpt>
      <trkpt lat="45.73931" lon="5.70412">
        <ele>227.6</ele>
        <time>2022-09-25T14:24:33Z</time>
      </trkpt>
      <trkpt lat="45.73935" lon="5.7041">
        <ele>227.6</ele>
        <time>2022-09-25T14:24:34Z</time>
      </trkpt>
      <trkpt lat="45.73939" lon="5.70407">
        <ele>227.6</ele>
        <time>2022-09-25T14:24:35Z</time>
      </trkpt>
      <trkpt lat="45.73943" lon="5.70404">
        <ele>227.6</ele>
        <time>2022-09-25T14:24:36Z</time>
      </trkpt>
      <trkpt lat="45.73946" lon="5.70401">
        <ele>227.6</ele>
        <time>2022-09-25T14:24:37Z</time>
      </trkpt>
      <trkpt lat="45.7395" lon="5.70398">
        <ele>227.6</ele>
        <time>2022-09-25T14:24:38Z</time>
      </trkpt>
      <trkpt lat="45.73955" lon="5.70394">
        <ele>227.6</ele>
        <time>2022-09-25T14:24:39Z</time>
      </trkpt>
      <trkpt lat="45.73959" lon="5.70392">
        <ele>227.7</ele>
        <time>2022-09-25T14:24:40Z</time>
      </trkpt>
      <trkpt lat="45.73962" lon="5.70387">
        <ele>227.7</ele>
        <time>2022-09-25T14:24:41Z</time>
      </trkpt>
      <trkpt lat="45.73966" lon="5.70383">
        <ele>227.7</ele>
        <time>2022-09-25T14:24:42Z</time>
      </trkpt>
      <trkpt lat="45.7397" lon="5.7038">
        <ele>227.8</ele>
        <time>2022-09-25T14:24:43Z</time>
      </trkpt>
      <trkpt lat="45.73974" lon="5.70376">
        <ele>227.8</ele>
        <time>2022-09-25T14:24:44Z</time>
      </trkpt>
      <trkpt lat="45.73978" lon="5.70372">
        <ele>227.9</ele>
        <time>2022-09-25T14:24:45Z</time>
      </trkpt>
      <trkpt lat="45.73981" lon="5.70368">
        <ele>227.9</ele>
        <time>2022-09-25T14:24:46Z</time>
      </trkpt>
      <trkpt lat="45.73984" lon="5.70364">
        <ele>227.9</ele>
        <time>2022-09-25T14:24:47Z</time>
      </trkpt>
      <trkpt lat="45.73989" lon="5.70361">
        <ele>228</ele>
        <time>2022-09-25T14:24:48Z</time>
      </trkpt>
      <trkpt lat="45.73993" lon="5.70357">
        <ele>228</ele>
        <time>2022-09-25T14:24:49Z</time>
      </trkpt>
      <trkpt lat="45.73998" lon="5.70353">
        <ele>228.1</ele>
        <time>2022-09-25T14:24:50Z</time>
      </trkpt>
      <trkpt lat="45.74" lon="5.70348">
        <ele>228.1</ele>
        <time>2022-09-25T14:24:51Z</time>
      </trkpt>
      <trkpt lat="45.74004" lon="5.70344">
        <ele>228.2</ele>
        <time>2022-09-25T14:24:52Z</time>
      </trkpt>
      <trkpt lat="45.74008" lon="5.7034">
        <ele>228.2</ele>
        <time>2022-09-25T14:24:53Z</time>
      </trkpt>
      <trkpt lat="45.74012" lon="5.70337">
        <ele>228.3</ele>
        <time>2022-09-25T14:24:54Z</time>
      </trkpt>
      <trkpt lat="45.74016" lon="5.70333">
        <ele>228.4</ele>
        <time>2022-09-25T14:24:55Z</time>
      </trkpt>
      <trkpt lat="45.7402" lon="5.70329">
        <ele>228.5</ele>
        <time>2022-09-25T14:24:56Z</time>
      </trkpt>
      <trkpt lat="45.74025" lon="5.70325">
        <ele>228.6</ele>
        <time>2022-09-25T14:24:57Z</time>
      </trkpt>
      <trkpt lat="45.74028" lon="5.70322">
        <ele>228.7</ele>
        <time>2022-09-25T14:24:58Z</time>
      </trkpt>
      <trkpt lat="45.74033" lon="5.70318">
        <ele>228.8</ele>
        <time>2022-09-25T14:24:59Z</time>
      </trkpt>
      <trkpt lat="45.74037" lon="5.70315">
        <ele>228.9</ele>
        <time>2022-09-25T14:25:00Z</time>
      </trkpt>
      <trkpt lat="45.74041" lon="5.70311">
        <ele>229</ele>
        <time>2022-09-25T14:25:01Z</time>
      </trkpt>
      <trkpt lat="45.74046" lon="5.70308">
        <ele>229.1</ele>
        <time>2022-09-25T14:25:02Z</time>
      </trkpt>
      <trkpt lat="45.7405" lon="5.70306">
        <ele>229.2</ele>
        <time>2022-09-25T14:25:03Z</time>
      </trkpt>
      <trkpt lat="45.74054" lon="5.70302">
        <ele>229.3</ele>
        <time>2022-09-25T14:25:04Z</time>
      </trkpt>
      <trkpt lat="45.74058" lon="5.70299">
        <ele>229.4</ele>
        <time>2022-09-25T14:25:05Z</time>
      </trkpt>
      <trkpt lat="45.74062" lon="5.70297">
        <ele>229.5</ele>
        <time>2022-09-25T14:25:06Z</time>
      </trkpt>
      <trkpt lat="45.74066" lon="5.70294">
        <ele>229.6</ele>
        <time>2022-09-25T14:25:07Z</time>
      </trkpt>
      <trkpt lat="45.7407" lon="5.70291">
        <ele>229.7</ele>
        <time>2022-09-25T14:25:08Z</time>
      </trkpt>
      <trkpt lat="45.74074" lon="5.70289">
        <ele>229.8</ele>
        <time>2022-09-25T14:25:09Z</time>
      </trkpt>
      <trkpt lat="45.74078" lon="5.70286">
        <ele>229.9</ele>
        <time>2022-09-25T14:25:10Z</time>
      </trkpt>
      <trkpt lat="45.74083" lon="5.70284">
        <ele>230</ele>
        <time>2022-09-25T14:25:11Z</time>
      </trkpt>
      <trkpt lat="45.74086" lon="5.70281">
        <ele>230.1</ele>
        <time>2022-09-25T14:25:12Z</time>
      </trkpt>
      <trkpt lat="45.7409" lon="5.70279">
        <ele>230.2</ele>
        <time>2022-09-25T14:25:13Z</time>
      </trkpt>
      <trkpt lat="45.74095" lon="5.70277">
        <ele>230.3</ele>
        <time>2022-09-25T14:25:14Z</time>
      </trkpt>
      <trkpt lat="45.74099" lon="5.70274">
        <ele>230.4</ele>
        <time>2022-09-25T14:25:15Z</time>
      </trkpt>
      <trkpt lat="45.74103" lon="5.70272">
        <ele>230.5</ele>
        <time>2022-09-25T14:25:16Z</time>
      </trkpt>
      <trkpt lat="45.74106" lon="5.70271">
        <ele>230.5</ele>
        <time>2022-09-25T14:25:17Z</time>
      </trkpt>
      <trkpt lat="45.7411" lon="5.70269">
        <ele>230.6</ele>
        <time>2022-09-25T14:25:18Z</time>
      </trkpt>
      <trkpt lat="45.74115" lon="5.70266">
        <ele>230.7</ele>
        <time>2022-09-25T14:25:19Z</time>
      </trkpt>
      <trkpt lat="45.74119" lon="5.70265">
        <ele>230.7</ele>
        <time>2022-09-25T14:25:20Z</time>
      </trkpt>
      <trkpt lat="45.74123" lon="5.70263">
        <ele>230.8</ele>
        <time>2022-09-25T14:25:21Z</time>
      </trkpt>
      <trkpt lat="45.74128" lon="5.70261">
        <ele>230.8</ele>
        <time>2022-09-25T14:25:22Z</time>
      </trkpt>
      <trkpt lat="45.74132" lon="5.7026">
        <ele>230.9</ele>
        <time>2022-09-25T14:25:23Z</time>
      </trkpt>
      <trkpt lat="45.74137" lon="5.70258">
        <ele>230.9</ele>
        <time>2022-09-25T14:25:24Z</time>
      </trkpt>
      <trkpt lat="45.74141" lon="5.70256">
        <ele>230.9</ele>
        <time>2022-09-25T14:25:25Z</time>
      </trkpt>
      <trkpt lat="45.74145" lon="5.70255">
        <ele>231</ele>
        <time>2022-09-25T14:25:26Z</time>
      </trkpt>
      <trkpt lat="45.7415" lon="5.70253">
        <ele>231</ele>
        <time>2022-09-25T14:25:27Z</time>
      </trkpt>
      <trkpt lat="45.74154" lon="5.70252">
        <ele>231.1</ele>
        <time>2022-09-25T14:25:28Z</time>
      </trkpt>
      <trkpt lat="45.74159" lon="5.70251">
        <ele>231.1</ele>
        <time>2022-09-25T14:25:29Z</time>
      </trkpt>
      <trkpt lat="45.74162" lon="5.7025">
        <ele>231.1</ele>
        <time>2022-09-25T14:25:30Z</time>
      </trkpt>
      <trkpt lat="45.74167" lon="5.70249">
        <ele>231.2</ele>
        <time>2022-09-25T14:25:31Z</time>
      </trkpt>
      <trkpt lat="45.74171" lon="5.70248">
        <ele>231.2</ele>
        <time>2022-09-25T14:25:32Z</time>
      </trkpt>
      <trkpt lat="45.74176" lon="5.70248">
        <ele>231.2</ele>
        <time>2022-09-25T14:25:33Z</time>
      </trkpt>
      <trkpt lat="45.7418" lon="5.70247">
        <ele>231.2</ele>
        <time>2022-09-25T14:25:34Z</time>
      </trkpt>
      <trkpt lat="45.74184" lon="5.70246">
        <ele>231.3</ele>
        <time>2022-09-25T14:25:35Z</time>
      </trkpt>
      <trkpt lat="45.74189" lon="5.70245">
        <ele>231.3</ele>
        <time>2022-09-25T14:25:36Z</time>
      </trkpt>
      <trkpt lat="45.74194" lon="5.70245">
        <ele>231.3</ele>
        <time>2022-09-25T14:25:37Z</time>
      </trkpt>
      <trkpt lat="45.74199" lon="5.70245">
        <ele>231.3</ele>
        <time>2022-09-25T14:25:38Z</time>
      </trkpt>
      <trkpt lat="45.74203" lon="5.70244">
        <ele>231.3</ele>
        <time>2022-09-25T14:25:39Z</time>
      </trkpt>
      <trkpt lat="45.74208" lon="5.70244">
        <ele>231.3</ele>
        <time>2022-09-25T14:25:40Z</time>
      </trkpt>
      <trkpt lat="45.74213" lon="5.70243">
        <ele>231.2</ele>
        <time>2022-09-25T14:25:41Z</time>
      </trkpt>
      <trkpt lat="45.74218" lon="5.70243">
        <ele>231.2</ele>
        <time>2022-09-25T14:25:42Z</time>
      </trkpt>
      <trkpt lat="45.74222" lon="5.70243">
        <ele>231.1</ele>
        <time>2022-09-25T14:25:43Z</time>
      </trkpt>
      <trkpt lat="45.74228" lon="5.70244">
        <ele>231.1</ele>
        <time>2022-09-25T14:25:44Z</time>
      </trkpt>
      <trkpt lat="45.74233" lon="5.70244">
        <ele>231</ele>
        <time>2022-09-25T14:25:45Z</time>
      </trkpt>
      <trkpt lat="45.74238" lon="5.70244">
        <ele>231</ele>
        <time>2022-09-25T14:25:46Z</time>
      </trkpt>
      <trkpt lat="45.74243" lon="5.70245">
        <ele>230.9</ele>
        <time>2022-09-25T14:25:47Z</time>
      </trkpt>
      <trkpt lat="45.74248" lon="5.70246">
        <ele>230.8</ele>
        <time>2022-09-25T14:25:48Z</time>
      </trkpt>
      <trkpt lat="45.74254" lon="5.70246">
        <ele>230.8</ele>
        <time>2022-09-25T14:25:49Z</time>
      </trkpt>
      <trkpt lat="45.74259" lon="5.70247">
        <ele>230.7</ele>
        <time>2022-09-25T14:25:50Z</time>
      </trkpt>
      <trkpt lat="45.74264" lon="5.70248">
        <ele>230.6</ele>
        <time>2022-09-25T14:25:51Z</time>
      </trkpt>
      <trkpt lat="45.7427" lon="5.70248">
        <ele>230.5</ele>
        <time>2022-09-25T14:25:52Z</time>
      </trkpt>
      <trkpt lat="45.74276" lon="5.70249">
        <ele>230.5</ele>
        <time>2022-09-25T14:25:53Z</time>
      </trkpt>
      <trkpt lat="45.74281" lon="5.7025">
        <ele>230.4</ele>
        <time>2022-09-25T14:25:54Z</time>
      </trkpt>
      <trkpt lat="45.74287" lon="5.7025">
        <ele>230.3</ele>
        <time>2022-09-25T14:25:55Z</time>
      </trkpt>
      <trkpt lat="45.74293" lon="5.70251">
        <ele>230.3</ele>
        <time>2022-09-25T14:25:56Z</time>
      </trkpt>
      <trkpt lat="45.74298" lon="5.70252">
        <ele>230.2</ele>
        <time>2022-09-25T14:25:57Z</time>
      </trkpt>
      <trkpt lat="45.74304" lon="5.70252">
        <ele>230.2</ele>
        <time>2022-09-25T14:25:58Z</time>
      </trkpt>
      <trkpt lat="45.7431" lon="5.70253">
        <ele>230.1</ele>
        <time>2022-09-25T14:25:59Z</time>
      </trkpt>
      <trkpt lat="45.74316" lon="5.70254">
        <ele>230.1</ele>
        <time>2022-09-25T14:26:00Z</time>
      </trkpt>
      <trkpt lat="45.74322" lon="5.70255">
        <ele>230</ele>
        <time>2022-09-25T14:26:01Z</time>
      </trkpt>
      <trkpt lat="45.74327" lon="5.70256">
        <ele>230</ele>
        <time>2022-09-25T14:26:02Z</time>
      </trkpt>
      <trkpt lat="45.74333" lon="5.70255">
        <ele>229.9</ele>
        <time>2022-09-25T14:26:03Z</time>
      </trkpt>
      <trkpt lat="45.74339" lon="5.70257">
        <ele>229.8</ele>
        <time>2022-09-25T14:26:04Z</time>
      </trkpt>
      <trkpt lat="45.74345" lon="5.70258">
        <ele>229.8</ele>
        <time>2022-09-25T14:26:05Z</time>
      </trkpt>
      <trkpt lat="45.74351" lon="5.70258">
        <ele>229.7</ele>
        <time>2022-09-25T14:26:06Z</time>
      </trkpt>
      <trkpt lat="45.74357" lon="5.70259">
        <ele>229.7</ele>
        <time>2022-09-25T14:26:07Z</time>
      </trkpt>
      <trkpt lat="45.74363" lon="5.70259">
        <ele>229.7</ele>
        <time>2022-09-25T14:26:08Z</time>
      </trkpt>
      <trkpt lat="45.74369" lon="5.7026">
        <ele>229.6</ele>
        <time>2022-09-25T14:26:09Z</time>
      </trkpt>
      <trkpt lat="45.74375" lon="5.70261">
        <ele>229.6</ele>
        <time>2022-09-25T14:26:10Z</time>
      </trkpt>
      <trkpt lat="45.74381" lon="5.70262">
        <ele>229.6</ele>
        <time>2022-09-25T14:26:11Z</time>
      </trkpt>
      <trkpt lat="45.74387" lon="5.70262">
        <ele>229.6</ele>
        <time>2022-09-25T14:26:12Z</time>
      </trkpt>
      <trkpt lat="45.74393" lon="5.70264">
        <ele>229.6</ele>
        <time>2022-09-25T14:26:13Z</time>
      </trkpt>
      <trkpt lat="45.74398" lon="5.70264">
        <ele>229.6</ele>
        <time>2022-09-25T14:26:14Z</time>
      </trkpt>
      <trkpt lat="45.74404" lon="5.70265">
        <ele>229.6</ele>
        <time>2022-09-25T14:26:15Z</time>
      </trkpt>
      <trkpt lat="45.7441" lon="5.70266">
        <ele>229.6</ele>
        <time>2022-09-25T14:26:16Z</time>
      </trkpt>
      <trkpt lat="45.74417" lon="5.70266">
        <ele>229.6</ele>
        <time>2022-09-25T14:26:17Z</time>
      </trkpt>
      <trkpt lat="45.74422" lon="5.70267">
        <ele>229.5</ele>
        <time>2022-09-25T14:26:18Z</time>
      </trkpt>
      <trkpt lat="45.74428" lon="5.70268">
        <ele>229.5</ele>
        <time>2022-09-25T14:26:19Z</time>
      </trkpt>
      <trkpt lat="45.74435" lon="5.70269">
        <ele>229.5</ele>
        <time>2022-09-25T14:26:20Z</time>
      </trkpt>
      <trkpt lat="45.74441" lon="5.7027">
        <ele>229.4</ele>
        <time>2022-09-25T14:26:21Z</time>
      </trkpt>
      <trkpt lat="45.74447" lon="5.70271">
        <ele>229.4</ele>
        <time>2022-09-25T14:26:22Z</time>
      </trkpt>
      <trkpt lat="45.74453" lon="5.70271">
        <ele>229.4</ele>
        <time>2022-09-25T14:26:23Z</time>
      </trkpt>
      <trkpt lat="45.74459" lon="5.70272">
        <ele>229.3</ele>
        <time>2022-09-25T14:26:24Z</time>
      </trkpt>
      <trkpt lat="45.74465" lon="5.70273">
        <ele>229.3</ele>
        <time>2022-09-25T14:26:25Z</time>
      </trkpt>
      <trkpt lat="45.74471" lon="5.70274">
        <ele>229.3</ele>
        <time>2022-09-25T14:26:26Z</time>
      </trkpt>
      <trkpt lat="45.74478" lon="5.70274">
        <ele>229.2</ele>
        <time>2022-09-25T14:26:27Z</time>
      </trkpt>
      <trkpt lat="45.74484" lon="5.70275">
        <ele>229.2</ele>
        <time>2022-09-25T14:26:28Z</time>
      </trkpt>
      <trkpt lat="45.7449" lon="5.70276">
        <ele>229.2</ele>
        <time>2022-09-25T14:26:29Z</time>
      </trkpt>
      <trkpt lat="45.74496" lon="5.70276">
        <ele>229.2</ele>
        <time>2022-09-25T14:26:30Z</time>
      </trkpt>
      <trkpt lat="45.74503" lon="5.70276">
        <ele>229.2</ele>
        <time>2022-09-25T14:26:31Z</time>
      </trkpt>
      <trkpt lat="45.74508" lon="5.70277">
        <ele>229.2</ele>
        <time>2022-09-25T14:26:32Z</time>
      </trkpt>
      <trkpt lat="45.74514" lon="5.70278">
        <ele>229.2</ele>
        <time>2022-09-25T14:26:33Z</time>
      </trkpt>
      <trkpt lat="45.7452" lon="5.70278">
        <ele>229.2</ele>
        <time>2022-09-25T14:26:34Z</time>
      </trkpt>
      <trkpt lat="45.74526" lon="5.7028">
        <ele>229.2</ele>
        <time>2022-09-25T14:26:35Z</time>
      </trkpt>
      <trkpt lat="45.74531" lon="5.7028">
        <ele>229.2</ele>
        <time>2022-09-25T14:26:36Z</time>
      </trkpt>
      <trkpt lat="45.74536" lon="5.7028">
        <ele>229.2</ele>
        <time>2022-09-25T14:26:37Z</time>
      </trkpt>
      <trkpt lat="45.74541" lon="5.70281">
        <ele>229.2</ele>
        <time>2022-09-25T14:26:38Z</time>
      </trkpt>
      <trkpt lat="45.74545" lon="5.70281">
        <ele>229.2</ele>
        <time>2022-09-25T14:26:39Z</time>
      </trkpt>
      <trkpt lat="45.7455" lon="5.70283">
        <ele>229.2</ele>
        <time>2022-09-25T14:26:40Z</time>
      </trkpt>
      <trkpt lat="45.74555" lon="5.70285">
        <ele>229.2</ele>
        <time>2022-09-25T14:26:41Z</time>
      </trkpt>
      <trkpt lat="45.74561" lon="5.70285">
        <ele>229.2</ele>
        <time>2022-09-25T14:26:42Z</time>
      </trkpt>
      <trkpt lat="45.74566" lon="5.70286">
        <ele>229.2</ele>
        <time>2022-09-25T14:26:43Z</time>
      </trkpt>
      <trkpt lat="45.74571" lon="5.70286">
        <ele>229.2</ele>
        <time>2022-09-25T14:26:44Z</time>
      </trkpt>
      <trkpt lat="45.74577" lon="5.70286">
        <ele>229.2</ele>
        <time>2022-09-25T14:26:45Z</time>
      </trkpt>
      <trkpt lat="45.74584" lon="5.70286">
        <ele>229.2</ele>
        <time>2022-09-25T14:26:46Z</time>
      </trkpt>
      <trkpt lat="45.74589" lon="5.70286">
        <ele>229.2</ele>
        <time>2022-09-25T14:26:47Z</time>
      </trkpt>
      <trkpt lat="45.74594" lon="5.70286">
        <ele>229.2</ele>
        <time>2022-09-25T14:26:48Z</time>
      </trkpt>
      <trkpt lat="45.746" lon="5.70285">
        <ele>229.2</ele>
        <time>2022-09-25T14:26:49Z</time>
      </trkpt>
      <trkpt lat="45.74605" lon="5.70285">
        <ele>229.3</ele>
        <time>2022-09-25T14:26:50Z</time>
      </trkpt>
      <trkpt lat="45.74611" lon="5.70283">
        <ele>229.3</ele>
        <time>2022-09-25T14:26:51Z</time>
      </trkpt>
      <trkpt lat="45.74616" lon="5.70281">
        <ele>229.4</ele>
        <time>2022-09-25T14:26:52Z</time>
      </trkpt>
      <trkpt lat="45.74621" lon="5.7028">
        <ele>229.4</ele>
        <time>2022-09-25T14:26:53Z</time>
      </trkpt>
      <trkpt lat="45.74626" lon="5.70279">
        <ele>229.5</ele>
        <time>2022-09-25T14:26:54Z</time>
      </trkpt>
      <trkpt lat="45.74632" lon="5.70275">
        <ele>229.5</ele>
        <time>2022-09-25T14:26:55Z</time>
      </trkpt>
      <trkpt lat="45.74636" lon="5.70272">
        <ele>229.6</ele>
        <time>2022-09-25T14:26:56Z</time>
      </trkpt>
      <trkpt lat="45.74641" lon="5.7027">
        <ele>229.7</ele>
        <time>2022-09-25T14:26:57Z</time>
      </trkpt>
      <trkpt lat="45.74646" lon="5.70267">
        <ele>229.7</ele>
        <time>2022-09-25T14:26:58Z</time>
      </trkpt>
      <trkpt lat="45.7465" lon="5.70264">
        <ele>229.8</ele>
        <time>2022-09-25T14:26:59Z</time>
      </trkpt>
      <trkpt lat="45.74653" lon="5.70261">
        <ele>229.8</ele>
        <time>2022-09-25T14:27:00Z</time>
      </trkpt>
      <trkpt lat="45.74659" lon="5.70259">
        <ele>229.9</ele>
        <time>2022-09-25T14:27:01Z</time>
      </trkpt>
      <trkpt lat="45.74664" lon="5.70256">
        <ele>229.9</ele>
        <time>2022-09-25T14:27:02Z</time>
      </trkpt>
      <trkpt lat="45.74669" lon="5.70252">
        <ele>230</ele>
        <time>2022-09-25T14:27:03Z</time>
      </trkpt>
      <trkpt lat="45.74673" lon="5.70249">
        <ele>230</ele>
        <time>2022-09-25T14:27:04Z</time>
      </trkpt>
      <trkpt lat="45.74678" lon="5.70245">
        <ele>230.1</ele>
        <time>2022-09-25T14:27:05Z</time>
      </trkpt>
      <trkpt lat="45.74685" lon="5.70241">
        <ele>230.1</ele>
        <time>2022-09-25T14:27:06Z</time>
      </trkpt>
      <trkpt lat="45.7469" lon="5.70237">
        <ele>230.2</ele>
        <time>2022-09-25T14:27:07Z</time>
      </trkpt>
      <trkpt lat="45.74693" lon="5.70234">
        <ele>230.2</ele>
        <time>2022-09-25T14:27:08Z</time>
      </trkpt>
      <trkpt lat="45.74698" lon="5.7023">
        <ele>230.3</ele>
        <time>2022-09-25T14:27:09Z</time>
      </trkpt>
      <trkpt lat="45.74703" lon="5.70226">
        <ele>230.4</ele>
        <time>2022-09-25T14:27:10Z</time>
      </trkpt>
      <trkpt lat="45.74707" lon="5.70221">
        <ele>230.5</ele>
        <time>2022-09-25T14:27:11Z</time>
      </trkpt>
      <trkpt lat="45.74711" lon="5.70217">
        <ele>230.6</ele>
        <time>2022-09-25T14:27:12Z</time>
      </trkpt>
      <trkpt lat="45.74715" lon="5.70214">
        <ele>230.6</ele>
        <time>2022-09-25T14:27:13Z</time>
      </trkpt>
      <trkpt lat="45.74718" lon="5.7021">
        <ele>230.7</ele>
        <time>2022-09-25T14:27:14Z</time>
      </trkpt>
      <trkpt lat="45.74722" lon="5.70206">
        <ele>230.7</ele>
        <time>2022-09-25T14:27:15Z</time>
      </trkpt>
      <trkpt lat="45.74726" lon="5.70201">
        <ele>230.7</ele>
        <time>2022-09-25T14:27:16Z</time>
      </trkpt>
      <trkpt lat="45.7473" lon="5.70198">
        <ele>230.8</ele>
        <time>2022-09-25T14:27:17Z</time>
      </trkpt>
      <trkpt lat="45.74734" lon="5.70194">
        <ele>230.8</ele>
        <time>2022-09-25T14:27:18Z</time>
      </trkpt>
      <trkpt lat="45.74737" lon="5.7019">
        <ele>230.9</ele>
        <time>2022-09-25T14:27:19Z</time>
      </trkpt>
      <trkpt lat="45.74741" lon="5.70189">
        <ele>230.9</ele>
        <time>2022-09-25T14:27:20Z</time>
      </trkpt>
      <trkpt lat="45.74745" lon="5.70188">
        <ele>230.9</ele>
        <time>2022-09-25T14:27:21Z</time>
      </trkpt>
      <trkpt lat="45.74749" lon="5.70187">
        <ele>231</ele>
        <time>2022-09-25T14:27:22Z</time>
      </trkpt>
      <trkpt lat="45.74752" lon="5.70184">
        <ele>231</ele>
        <time>2022-09-25T14:27:23Z</time>
      </trkpt>
      <trkpt lat="45.74756" lon="5.70182">
        <ele>231.1</ele>
        <time>2022-09-25T14:27:24Z</time>
      </trkpt>
      <trkpt lat="45.7476" lon="5.70179">
        <ele>231.2</ele>
        <time>2022-09-25T14:27:25Z</time>
      </trkpt>
      <trkpt lat="45.74762" lon="5.70175">
        <ele>231.2</ele>
        <time>2022-09-25T14:27:26Z</time>
      </trkpt>
      <trkpt lat="45.74765" lon="5.70173">
        <ele>231.2</ele>
        <time>2022-09-25T14:27:27Z</time>
      </trkpt>
      <trkpt lat="45.74769" lon="5.70172">
        <ele>231.3</ele>
        <time>2022-09-25T14:27:28Z</time>
      </trkpt>
      <trkpt lat="45.74772" lon="5.7017">
        <ele>231.3</ele>
        <time>2022-09-25T14:27:29Z</time>
      </trkpt>
      <trkpt lat="45.74777" lon="5.70167">
        <ele>231.4</ele>
        <time>2022-09-25T14:27:30Z</time>
      </trkpt>
      <trkpt lat="45.7478" lon="5.70165">
        <ele>231.4</ele>
        <time>2022-09-25T14:27:31Z</time>
      </trkpt>
      <trkpt lat="45.74785" lon="5.70164">
        <ele>231.4</ele>
        <time>2022-09-25T14:27:32Z</time>
      </trkpt>
      <trkpt lat="45.7479" lon="5.70163">
        <ele>231.4</ele>
        <time>2022-09-25T14:27:33Z</time>
      </trkpt>
      <trkpt lat="45.74794" lon="5.70162">
        <ele>231.4</ele>
        <time>2022-09-25T14:27:34Z</time>
      </trkpt>
      <trkpt lat="45.74799" lon="5.70162">
        <ele>231.4</ele>
        <time>2022-09-25T14:27:35Z</time>
      </trkpt>
      <trkpt lat="45.74803" lon="5.70161">
        <ele>231.4</ele>
        <time>2022-09-25T14:27:36Z</time>
      </trkpt>
      <trkpt lat="45.74807" lon="5.70162">
        <ele>231.4</ele>
        <time>2022-09-25T14:27:37Z</time>
      </trkpt>
      <trkpt lat="45.74812" lon="5.70162">
        <ele>231.3</ele>
        <time>2022-09-25T14:27:38Z</time>
      </trkpt>
      <trkpt lat="45.74816" lon="5.70162">
        <ele>231.3</ele>
        <time>2022-09-25T14:27:39Z</time>
      </trkpt>
      <trkpt lat="45.74821" lon="5.70163">
        <ele>231.2</ele>
        <time>2022-09-25T14:27:40Z</time>
      </trkpt>
      <trkpt lat="45.74826" lon="5.70164">
        <ele>231.2</ele>
        <time>2022-09-25T14:27:41Z</time>
      </trkpt>
      <trkpt lat="45.74831" lon="5.70166">
        <ele>231.1</ele>
        <time>2022-09-25T14:27:42Z</time>
      </trkpt>
      <trkpt lat="45.74836" lon="5.70167">
        <ele>231</ele>
        <time>2022-09-25T14:27:43Z</time>
      </trkpt>
      <trkpt lat="45.74841" lon="5.7017">
        <ele>230.9</ele>
        <time>2022-09-25T14:27:44Z</time>
      </trkpt>
      <trkpt lat="45.74846" lon="5.70173">
        <ele>230.9</ele>
        <time>2022-09-25T14:27:45Z</time>
      </trkpt>
      <trkpt lat="45.74851" lon="5.70175">
        <ele>230.8</ele>
        <time>2022-09-25T14:27:46Z</time>
      </trkpt>
      <trkpt lat="45.74856" lon="5.70178">
        <ele>230.7</ele>
        <time>2022-09-25T14:27:47Z</time>
      </trkpt>
      <trkpt lat="45.74861" lon="5.70181">
        <ele>230.6</ele>
        <time>2022-09-25T14:27:48Z</time>
      </trkpt>
      <trkpt lat="45.74866" lon="5.70185">
        <ele>230.5</ele>
        <time>2022-09-25T14:27:49Z</time>
      </trkpt>
      <trkpt lat="45.74871" lon="5.70189">
        <ele>230.4</ele>
        <time>2022-09-25T14:27:50Z</time>
      </trkpt>
      <trkpt lat="45.74875" lon="5.70193">
        <ele>230.4</ele>
        <time>2022-09-25T14:27:51Z</time>
      </trkpt>
      <trkpt lat="45.74879" lon="5.70197">
        <ele>230.3</ele>
        <time>2022-09-25T14:27:52Z</time>
      </trkpt>
      <trkpt lat="45.74883" lon="5.70201">
        <ele>230.2</ele>
        <time>2022-09-25T14:27:53Z</time>
      </trkpt>
      <trkpt lat="45.74887" lon="5.70206">
        <ele>230.1</ele>
        <time>2022-09-25T14:27:54Z</time>
      </trkpt>
      <trkpt lat="45.74891" lon="5.70212">
        <ele>230</ele>
        <time>2022-09-25T14:27:55Z</time>
      </trkpt>
      <trkpt lat="45.74895" lon="5.70218">
        <ele>229.9</ele>
        <time>2022-09-25T14:27:56Z</time>
      </trkpt>
      <trkpt lat="45.74899" lon="5.70224">
        <ele>229.8</ele>
        <time>2022-09-25T14:27:57Z</time>
      </trkpt>
      <trkpt lat="45.74903" lon="5.7023">
        <ele>229.8</ele>
        <time>2022-09-25T14:27:58Z</time>
      </trkpt>
      <trkpt lat="45.74907" lon="5.70237">
        <ele>229.7</ele>
        <time>2022-09-25T14:27:59Z</time>
      </trkpt>
      <trkpt lat="45.74911" lon="5.70244">
        <ele>229.6</ele>
        <time>2022-09-25T14:28:00Z</time>
      </trkpt>
      <trkpt lat="45.74913" lon="5.7025">
        <ele>229.6</ele>
        <time>2022-09-25T14:28:01Z</time>
      </trkpt>
      <trkpt lat="45.74917" lon="5.70257">
        <ele>229.5</ele>
        <time>2022-09-25T14:28:02Z</time>
      </trkpt>
      <trkpt lat="45.74921" lon="5.70265">
        <ele>229.5</ele>
        <time>2022-09-25T14:28:03Z</time>
      </trkpt>
      <trkpt lat="45.74924" lon="5.70272">
        <ele>229.5</ele>
        <time>2022-09-25T14:28:04Z</time>
      </trkpt>
      <trkpt lat="45.74926" lon="5.70279">
        <ele>229.5</ele>
        <time>2022-09-25T14:28:05Z</time>
      </trkpt>
      <trkpt lat="45.7493" lon="5.70285">
        <ele>229.5</ele>
        <time>2022-09-25T14:28:06Z</time>
      </trkpt>
      <trkpt lat="45.74932" lon="5.70292">
        <ele>229.5</ele>
        <time>2022-09-25T14:28:07Z</time>
      </trkpt>
      <trkpt lat="45.74936" lon="5.703">
        <ele>229.4</ele>
        <time>2022-09-25T14:28:08Z</time>
      </trkpt>
      <trkpt lat="45.74939" lon="5.70306">
        <ele>229.4</ele>
        <time>2022-09-25T14:28:09Z</time>
      </trkpt>
      <trkpt lat="45.74943" lon="5.70313">
        <ele>229.3</ele>
        <time>2022-09-25T14:28:10Z</time>
      </trkpt>
      <trkpt lat="45.74946" lon="5.70319">
        <ele>229.3</ele>
        <time>2022-09-25T14:28:11Z</time>
      </trkpt>
      <trkpt lat="45.7495" lon="5.70324">
        <ele>229.2</ele>
        <time>2022-09-25T14:28:12Z</time>
      </trkpt>
      <trkpt lat="45.74955" lon="5.70328">
        <ele>229.2</ele>
        <time>2022-09-25T14:28:13Z</time>
      </trkpt>
      <trkpt lat="45.7496" lon="5.70331">
        <ele>229.1</ele>
        <time>2022-09-25T14:28:14Z</time>
      </trkpt>
      <trkpt lat="45.74966" lon="5.70333">
        <ele>229.1</ele>
        <time>2022-09-25T14:28:15Z</time>
      </trkpt>
      <trkpt lat="45.74971" lon="5.70335">
        <ele>229</ele>
        <time>2022-09-25T14:28:16Z</time>
      </trkpt>
      <trkpt lat="45.74977" lon="5.70336">
        <ele>229</ele>
        <time>2022-09-25T14:28:17Z</time>
      </trkpt>
      <trkpt lat="45.74982" lon="5.70337">
        <ele>228.9</ele>
        <time>2022-09-25T14:28:18Z</time>
      </trkpt>
      <trkpt lat="45.74988" lon="5.70338">
        <ele>228.9</ele>
        <time>2022-09-25T14:28:19Z</time>
      </trkpt>
      <trkpt lat="45.74994" lon="5.70338">
        <ele>228.8</ele>
        <time>2022-09-25T14:28:20Z</time>
      </trkpt>
      <trkpt lat="45.75" lon="5.70339">
        <ele>228.8</ele>
        <time>2022-09-25T14:28:21Z</time>
      </trkpt>
      <trkpt lat="45.75006" lon="5.70339">
        <ele>228.8</ele>
        <time>2022-09-25T14:28:22Z</time>
      </trkpt>
      <trkpt lat="45.75012" lon="5.70339">
        <ele>228.7</ele>
        <time>2022-09-25T14:28:23Z</time>
      </trkpt>
      <trkpt lat="45.75018" lon="5.7034">
        <ele>228.7</ele>
        <time>2022-09-25T14:28:24Z</time>
      </trkpt>
      <trkpt lat="45.75024" lon="5.7034">
        <ele>228.7</ele>
        <time>2022-09-25T14:28:25Z</time>
      </trkpt>
      <trkpt lat="45.7503" lon="5.7034">
        <ele>228.7</ele>
        <time>2022-09-25T14:28:26Z</time>
      </trkpt>
      <trkpt lat="45.75036" lon="5.7034">
        <ele>228.7</ele>
        <time>2022-09-25T14:28:27Z</time>
      </trkpt>
      <trkpt lat="45.75042" lon="5.7034">
        <ele>228.7</ele>
        <time>2022-09-25T14:28:28Z</time>
      </trkpt>
      <trkpt lat="45.75047" lon="5.70341">
        <ele>228.7</ele>
        <time>2022-09-25T14:28:29Z</time>
      </trkpt>
      <trkpt lat="45.75053" lon="5.70341">
        <ele>228.7</ele>
        <time>2022-09-25T14:28:30Z</time>
      </trkpt>
      <trkpt lat="45.75059" lon="5.70342">
        <ele>228.7</ele>
        <time>2022-09-25T14:28:31Z</time>
      </trkpt>
      <trkpt lat="45.75065" lon="5.70342">
        <ele>228.7</ele>
        <time>2022-09-25T14:28:32Z</time>
      </trkpt>
      <trkpt lat="45.7507" lon="5.70343">
        <ele>228.7</ele>
        <time>2022-09-25T14:28:33Z</time>
      </trkpt>
      <trkpt lat="45.75076" lon="5.70345">
        <ele>228.7</ele>
        <time>2022-09-25T14:28:34Z</time>
      </trkpt>
      <trkpt lat="45.75082" lon="5.70346">
        <ele>228.7</ele>
        <time>2022-09-25T14:28:35Z</time>
      </trkpt>
      <trkpt lat="45.75087" lon="5.70347">
        <ele>228.7</ele>
        <time>2022-09-25T14:28:36Z</time>
      </trkpt>
      <trkpt lat="45.75093" lon="5.70347">
        <ele>228.7</ele>
        <time>2022-09-25T14:28:37Z</time>
      </trkpt>
      <trkpt lat="45.75098" lon="5.70348">
        <ele>228.7</ele>
        <time>2022-09-25T14:28:38Z</time>
      </trkpt>
      <trkpt lat="45.75104" lon="5.70349">
        <ele>228.7</ele>
        <time>2022-09-25T14:28:39Z</time>
      </trkpt>
      <trkpt lat="45.75109" lon="5.70349">
        <ele>228.7</ele>
        <time>2022-09-25T14:28:40Z</time>
      </trkpt>
      <trkpt lat="45.75115" lon="5.70351">
        <ele>228.7</ele>
        <time>2022-09-25T14:28:41Z</time>
      </trkpt>
      <trkpt lat="45.75119" lon="5.70352">
        <ele>228.7</ele>
        <time>2022-09-25T14:28:42Z</time>
      </trkpt>
      <trkpt lat="45.75126" lon="5.70353">
        <ele>228.8</ele>
        <time>2022-09-25T14:28:43Z</time>
      </trkpt>
      <trkpt lat="45.75131" lon="5.70355">
        <ele>228.8</ele>
        <time>2022-09-25T14:28:44Z</time>
      </trkpt>
      <trkpt lat="45.75137" lon="5.70356">
        <ele>228.8</ele>
        <time>2022-09-25T14:28:45Z</time>
      </trkpt>
      <trkpt lat="45.75142" lon="5.70358">
        <ele>228.8</ele>
        <time>2022-09-25T14:28:46Z</time>
      </trkpt>
      <trkpt lat="45.75147" lon="5.7036">
        <ele>228.8</ele>
        <time>2022-09-25T14:28:47Z</time>
      </trkpt>
      <trkpt lat="45.75153" lon="5.70361">
        <ele>228.8</ele>
        <time>2022-09-25T14:28:48Z</time>
      </trkpt>
      <trkpt lat="45.75158" lon="5.70362">
        <ele>228.9</ele>
        <time>2022-09-25T14:28:49Z</time>
      </trkpt>
      <trkpt lat="45.75164" lon="5.70363">
        <ele>228.9</ele>
        <time>2022-09-25T14:28:50Z</time>
      </trkpt>
      <trkpt lat="45.75169" lon="5.70365">
        <ele>228.9</ele>
        <time>2022-09-25T14:28:51Z</time>
      </trkpt>
      <trkpt lat="45.75175" lon="5.70367">
        <ele>228.9</ele>
        <time>2022-09-25T14:28:52Z</time>
      </trkpt>
      <trkpt lat="45.7518" lon="5.70368">
        <ele>228.9</ele>
        <time>2022-09-25T14:28:53Z</time>
      </trkpt>
      <trkpt lat="45.75185" lon="5.7037">
        <ele>228.9</ele>
        <time>2022-09-25T14:28:54Z</time>
      </trkpt>
      <trkpt lat="45.7519" lon="5.70371">
        <ele>228.9</ele>
        <time>2022-09-25T14:28:55Z</time>
      </trkpt>
      <trkpt lat="45.75195" lon="5.70373">
        <ele>229</ele>
        <time>2022-09-25T14:28:56Z</time>
      </trkpt>
      <trkpt lat="45.75201" lon="5.70375">
        <ele>229</ele>
        <time>2022-09-25T14:28:57Z</time>
      </trkpt>
      <trkpt lat="45.75206" lon="5.70377">
        <ele>229</ele>
        <time>2022-09-25T14:28:58Z</time>
      </trkpt>
      <trkpt lat="45.75211" lon="5.70379">
        <ele>229</ele>
        <time>2022-09-25T14:28:59Z</time>
      </trkpt>
      <trkpt lat="45.75216" lon="5.70381">
        <ele>229</ele>
        <time>2022-09-25T14:29:00Z</time>
      </trkpt>
      <trkpt lat="45.7522" lon="5.70383">
        <ele>229.1</ele>
        <time>2022-09-25T14:29:01Z</time>
      </trkpt>
      <trkpt lat="45.75225" lon="5.70385">
        <ele>229.1</ele>
        <time>2022-09-25T14:29:02Z</time>
      </trkpt>
      <trkpt lat="45.7523" lon="5.70387">
        <ele>229.1</ele>
        <time>2022-09-25T14:29:03Z</time>
      </trkpt>
      <trkpt lat="45.75235" lon="5.70388">
        <ele>229.1</ele>
        <time>2022-09-25T14:29:04Z</time>
      </trkpt>
      <trkpt lat="45.75239" lon="5.7039">
        <ele>229.2</ele>
        <time>2022-09-25T14:29:05Z</time>
      </trkpt>
      <trkpt lat="45.75243" lon="5.70394">
        <ele>229.2</ele>
        <time>2022-09-25T14:29:06Z</time>
      </trkpt>
      <trkpt lat="45.75248" lon="5.70396">
        <ele>229.2</ele>
        <time>2022-09-25T14:29:07Z</time>
      </trkpt>
      <trkpt lat="45.75251" lon="5.70398">
        <ele>229.2</ele>
        <time>2022-09-25T14:29:08Z</time>
      </trkpt>
      <trkpt lat="45.75256" lon="5.70401">
        <ele>229.2</ele>
        <time>2022-09-25T14:29:09Z</time>
      </trkpt>
      <trkpt lat="45.75262" lon="5.70404">
        <ele>229.2</ele>
        <time>2022-09-25T14:29:10Z</time>
      </trkpt>
      <trkpt lat="45.75266" lon="5.70408">
        <ele>229.2</ele>
        <time>2022-09-25T14:29:11Z</time>
      </trkpt>
      <trkpt lat="45.75271" lon="5.70411">
        <ele>229.2</ele>
        <time>2022-09-25T14:29:12Z</time>
      </trkpt>
      <trkpt lat="45.75276" lon="5.70414">
        <ele>229.2</ele>
        <time>2022-09-25T14:29:13Z</time>
      </trkpt>
      <trkpt lat="45.75282" lon="5.70417">
        <ele>229.2</ele>
        <time>2022-09-25T14:29:14Z</time>
      </trkpt>
      <trkpt lat="45.75286" lon="5.7042">
        <ele>229.2</ele>
        <time>2022-09-25T14:29:15Z</time>
      </trkpt>
      <trkpt lat="45.75291" lon="5.70424">
        <ele>229.2</ele>
        <time>2022-09-25T14:29:16Z</time>
      </trkpt>
      <trkpt lat="45.75295" lon="5.70427">
        <ele>229.2</ele>
        <time>2022-09-25T14:29:17Z</time>
      </trkpt>
      <trkpt lat="45.75301" lon="5.70431">
        <ele>229.2</ele>
        <time>2022-09-25T14:29:18Z</time>
      </trkpt>
      <trkpt lat="45.75305" lon="5.70434">
        <ele>229.2</ele>
        <time>2022-09-25T14:29:19Z</time>
      </trkpt>
      <trkpt lat="45.7531" lon="5.70438">
        <ele>229.2</ele>
        <time>2022-09-25T14:29:20Z</time>
      </trkpt>
      <trkpt lat="45.75315" lon="5.70441">
        <ele>229.3</ele>
        <time>2022-09-25T14:29:21Z</time>
      </trkpt>
      <trkpt lat="45.75319" lon="5.70445">
        <ele>229.3</ele>
        <time>2022-09-25T14:29:22Z</time>
      </trkpt>
      <trkpt lat="45.75324" lon="5.70449">
        <ele>229.3</ele>
        <time>2022-09-25T14:29:23Z</time>
      </trkpt>
      <trkpt lat="45.75328" lon="5.70453">
        <ele>229.4</ele>
        <time>2022-09-25T14:29:24Z</time>
      </trkpt>
      <trkpt lat="45.75333" lon="5.70457">
        <ele>229.4</ele>
        <time>2022-09-25T14:29:25Z</time>
      </trkpt>
      <trkpt lat="45.75337" lon="5.70461">
        <ele>229.5</ele>
        <time>2022-09-25T14:29:26Z</time>
      </trkpt>
      <trkpt lat="45.75341" lon="5.70464">
        <ele>229.5</ele>
        <time>2022-09-25T14:29:27Z</time>
      </trkpt>
      <trkpt lat="45.75346" lon="5.70469">
        <ele>229.6</ele>
        <time>2022-09-25T14:29:28Z</time>
      </trkpt>
      <trkpt lat="45.75349" lon="5.70474">
        <ele>229.6</ele>
        <time>2022-09-25T14:29:29Z</time>
      </trkpt>
      <trkpt lat="45.75353" lon="5.70478">
        <ele>229.6</ele>
        <time>2022-09-25T14:29:30Z</time>
      </trkpt>
      <trkpt lat="45.75357" lon="5.70483">
        <ele>229.7</ele>
        <time>2022-09-25T14:29:31Z</time>
      </trkpt>
      <trkpt lat="45.7536" lon="5.70488">
        <ele>229.7</ele>
        <time>2022-09-25T14:29:32Z</time>
      </trkpt>
      <trkpt lat="45.75364" lon="5.70492">
        <ele>229.8</ele>
        <time>2022-09-25T14:29:33Z</time>
      </trkpt>
      <trkpt lat="45.75368" lon="5.70497">
        <ele>229.8</ele>
        <time>2022-09-25T14:29:34Z</time>
      </trkpt>
      <trkpt lat="45.75372" lon="5.70501">
        <ele>229.9</ele>
        <time>2022-09-25T14:29:35Z</time>
      </trkpt>
      <trkpt lat="45.75375" lon="5.70506">
        <ele>229.9</ele>
        <time>2022-09-25T14:29:36Z</time>
      </trkpt>
      <trkpt lat="45.75379" lon="5.7051">
        <ele>230</ele>
        <time>2022-09-25T14:29:37Z</time>
      </trkpt>
      <trkpt lat="45.75383" lon="5.70515">
        <ele>230</ele>
        <time>2022-09-25T14:29:38Z</time>
      </trkpt>
      <trkpt lat="45.75386" lon="5.7052">
        <ele>230</ele>
        <time>2022-09-25T14:29:39Z</time>
      </trkpt>
      <trkpt lat="45.7539" lon="5.70524">
        <ele>230.1</ele>
        <time>2022-09-25T14:29:40Z</time>
      </trkpt>
      <trkpt lat="45.75393" lon="5.70529">
        <ele>230.1</ele>
        <time>2022-09-25T14:29:41Z</time>
      </trkpt>
      <trkpt lat="45.75397" lon="5.70533">
        <ele>230.2</ele>
        <time>2022-09-25T14:29:42Z</time>
      </trkpt>
      <trkpt lat="45.75401" lon="5.70538">
        <ele>230.2</ele>
        <time>2022-09-25T14:29:43Z</time>
      </trkpt>
      <trkpt lat="45.75404" lon="5.70542">
        <ele>230.3</ele>
        <time>2022-09-25T14:29:44Z</time>
      </trkpt>
      <trkpt lat="45.75408" lon="5.70547">
        <ele>230.3</ele>
        <time>2022-09-25T14:29:45Z</time>
      </trkpt>
      <trkpt lat="45.75411" lon="5.7055">
        <ele>230.3</ele>
        <time>2022-09-25T14:29:46Z</time>
      </trkpt>
      <trkpt lat="45.75414" lon="5.70554">
        <ele>230.4</ele>
        <time>2022-09-25T14:29:47Z</time>
      </trkpt>
      <trkpt lat="45.75417" lon="5.70559">
        <ele>230.4</ele>
        <time>2022-09-25T14:29:48Z</time>
      </trkpt>
      <trkpt lat="45.75419" lon="5.70563">
        <ele>230.4</ele>
        <time>2022-09-25T14:29:49Z</time>
      </trkpt>
      <trkpt lat="45.75422" lon="5.70567">
        <ele>230.4</ele>
        <time>2022-09-25T14:29:50Z</time>
      </trkpt>
      <trkpt lat="45.75426" lon="5.70571">
        <ele>230.4</ele>
        <time>2022-09-25T14:29:51Z</time>
      </trkpt>
      <trkpt lat="45.75429" lon="5.70576">
        <ele>230.4</ele>
        <time>2022-09-25T14:29:52Z</time>
      </trkpt>
      <trkpt lat="45.75432" lon="5.7058">
        <ele>230.5</ele>
        <time>2022-09-25T14:29:53Z</time>
      </trkpt>
      <trkpt lat="45.75437" lon="5.70585">
        <ele>230.5</ele>
        <time>2022-09-25T14:29:54Z</time>
      </trkpt>
      <trkpt lat="45.7544" lon="5.7059">
        <ele>230.5</ele>
        <time>2022-09-25T14:29:55Z</time>
      </trkpt>
      <trkpt lat="45.75443" lon="5.70596">
        <ele>230.6</ele>
        <time>2022-09-25T14:29:56Z</time>
      </trkpt>
      <trkpt lat="45.75447" lon="5.70601">
        <ele>230.7</ele>
        <time>2022-09-25T14:29:57Z</time>
      </trkpt>
      <trkpt lat="45.75451" lon="5.70605">
        <ele>230.7</ele>
        <time>2022-09-25T14:29:58Z</time>
      </trkpt>
      <trkpt lat="45.75455" lon="5.7061">
        <ele>230.8</ele>
        <time>2022-09-25T14:29:59Z</time>
      </trkpt>
      <trkpt lat="45.75458" lon="5.70615">
        <ele>230.8</ele>
        <time>2022-09-25T14:30:00Z</time>
      </trkpt>
      <trkpt lat="45.75462" lon="5.7062">
        <ele>230.8</ele>
        <time>2022-09-25T14:30:01Z</time>
      </trkpt>
      <trkpt lat="45.75465" lon="5.70625">
        <ele>230.9</ele>
        <time>2022-09-25T14:30:02Z</time>
      </trkpt>
      <trkpt lat="45.75468" lon="5.7063">
        <ele>230.9</ele>
        <time>2022-09-25T14:30:03Z</time>
      </trkpt>
      <trkpt lat="45.75472" lon="5.70635">
        <ele>231</ele>
        <time>2022-09-25T14:30:04Z</time>
      </trkpt>
      <trkpt lat="45.75474" lon="5.7064">
        <ele>231</ele>
        <time>2022-09-25T14:30:05Z</time>
      </trkpt>
      <trkpt lat="45.75478" lon="5.70644">
        <ele>231.1</ele>
        <time>2022-09-25T14:30:06Z</time>
      </trkpt>
      <trkpt lat="45.75481" lon="5.70648">
        <ele>231.2</ele>
        <time>2022-09-25T14:30:07Z</time>
      </trkpt>
      <trkpt lat="45.75484" lon="5.70653">
        <ele>231.2</ele>
        <time>2022-09-25T14:30:08Z</time>
      </trkpt>
      <trkpt lat="45.75487" lon="5.70657">
        <ele>231.3</ele>
        <time>2022-09-25T14:30:09Z</time>
      </trkpt>
      <trkpt lat="45.7549" lon="5.70662">
        <ele>231.3</ele>
        <time>2022-09-25T14:30:10Z</time>
      </trkpt>
      <trkpt lat="45.75493" lon="5.70665">
        <ele>231.4</ele>
        <time>2022-09-25T14:30:11Z</time>
      </trkpt>
      <trkpt lat="45.75495" lon="5.70669">
        <ele>231.5</ele>
        <time>2022-09-25T14:30:12Z</time>
      </trkpt>
      <trkpt lat="45.75498" lon="5.70674">
        <ele>231.5</ele>
        <time>2022-09-25T14:30:13Z</time>
      </trkpt>
      <trkpt lat="45.75501" lon="5.70677">
        <ele>231.6</ele>
        <time>2022-09-25T14:30:14Z</time>
      </trkpt>
      <trkpt lat="45.75503" lon="5.70681">
        <ele>231.7</ele>
        <time>2022-09-25T14:30:15Z</time>
      </trkpt>
      <trkpt lat="45.75506" lon="5.70684">
        <ele>231.7</ele>
        <time>2022-09-25T14:30:16Z</time>
      </trkpt>
      <trkpt lat="45.75508" lon="5.70688">
        <ele>231.7</ele>
        <time>2022-09-25T14:30:17Z</time>
      </trkpt>
      <trkpt lat="45.7551" lon="5.70691">
        <ele>231.7</ele>
        <time>2022-09-25T14:30:18Z</time>
      </trkpt>
      <trkpt lat="45.75513" lon="5.70691">
        <ele>231.6</ele>
        <time>2022-09-25T14:30:19Z</time>
      </trkpt>
      <trkpt lat="45.75514" lon="5.70691">
        <ele>231.6</ele>
        <time>2022-09-25T14:30:20Z</time>
      </trkpt>
      <trkpt lat="45.75517" lon="5.70689">
        <ele>231.5</ele>
        <time>2022-09-25T14:30:21Z</time>
      </trkpt>
      <trkpt lat="45.7552" lon="5.70689">
        <ele>231.5</ele>
        <time>2022-09-25T14:30:22Z</time>
      </trkpt>
      <trkpt lat="45.75523" lon="5.7069">
        <ele>231.4</ele>
        <time>2022-09-25T14:30:23Z</time>
      </trkpt>
      <trkpt lat="45.75527" lon="5.70691">
        <ele>231.3</ele>
        <time>2022-09-25T14:30:24Z</time>
      </trkpt>
      <trkpt lat="45.75531" lon="5.70692">
        <ele>231.3</ele>
        <time>2022-09-25T14:30:25Z</time>
      </trkpt>
      <trkpt lat="45.75534" lon="5.70694">
        <ele>231.2</ele>
        <time>2022-09-25T14:30:26Z</time>
      </trkpt>
      <trkpt lat="45.75538" lon="5.70694">
        <ele>231.2</ele>
        <time>2022-09-25T14:30:27Z</time>
      </trkpt>
      <trkpt lat="45.75542" lon="5.70695">
        <ele>231.2</ele>
        <time>2022-09-25T14:30:28Z</time>
      </trkpt>
      <trkpt lat="45.75546" lon="5.70696">
        <ele>231.1</ele>
        <time>2022-09-25T14:30:29Z</time>
      </trkpt>
      <trkpt lat="45.75551" lon="5.70696">
        <ele>231.1</ele>
        <time>2022-09-25T14:30:30Z</time>
      </trkpt>
      <trkpt lat="45.75555" lon="5.70697">
        <ele>231.2</ele>
        <time>2022-09-25T14:30:31Z</time>
      </trkpt>
      <trkpt lat="45.7556" lon="5.70697">
        <ele>231.2</ele>
        <time>2022-09-25T14:30:32Z</time>
      </trkpt>
      <trkpt lat="45.75564" lon="5.70697">
        <ele>231.2</ele>
        <time>2022-09-25T14:30:33Z</time>
      </trkpt>
      <trkpt lat="45.75569" lon="5.70697">
        <ele>231.2</ele>
        <time>2022-09-25T14:30:34Z</time>
      </trkpt>
      <trkpt lat="45.75573" lon="5.70696">
        <ele>231.2</ele>
        <time>2022-09-25T14:30:35Z</time>
      </trkpt>
      <trkpt lat="45.75578" lon="5.70695">
        <ele>231.3</ele>
        <time>2022-09-25T14:30:36Z</time>
      </trkpt>
      <trkpt lat="45.75583" lon="5.70695">
        <ele>231.3</ele>
        <time>2022-09-25T14:30:37Z</time>
      </trkpt>
      <trkpt lat="45.75587" lon="5.70694">
        <ele>231.3</ele>
        <time>2022-09-25T14:30:38Z</time>
      </trkpt>
      <trkpt lat="45.75591" lon="5.70692">
        <ele>231.3</ele>
        <time>2022-09-25T14:30:39Z</time>
      </trkpt>
      <trkpt lat="45.75597" lon="5.70691">
        <ele>231.3</ele>
        <time>2022-09-25T14:30:40Z</time>
      </trkpt>
      <trkpt lat="45.75601" lon="5.7069">
        <ele>231.3</ele>
        <time>2022-09-25T14:30:41Z</time>
      </trkpt>
      <trkpt lat="45.75606" lon="5.70687">
        <ele>231.3</ele>
        <time>2022-09-25T14:30:42Z</time>
      </trkpt>
      <trkpt lat="45.75611" lon="5.70686">
        <ele>231.3</ele>
        <time>2022-09-25T14:30:43Z</time>
      </trkpt>
      <trkpt lat="45.75615" lon="5.70684">
        <ele>231.3</ele>
        <time>2022-09-25T14:30:44Z</time>
      </trkpt>
      <trkpt lat="45.7562" lon="5.70681">
        <ele>231.3</ele>
        <time>2022-09-25T14:30:45Z</time>
      </trkpt>
      <trkpt lat="45.75625" lon="5.70679">
        <ele>231.3</ele>
        <time>2022-09-25T14:30:46Z</time>
      </trkpt>
      <trkpt lat="45.7563" lon="5.70677">
        <ele>231.3</ele>
        <time>2022-09-25T14:30:47Z</time>
      </trkpt>
      <trkpt lat="45.75634" lon="5.70675">
        <ele>231.3</ele>
        <time>2022-09-25T14:30:48Z</time>
      </trkpt>
      <trkpt lat="45.75639" lon="5.70672">
        <ele>231.3</ele>
        <time>2022-09-25T14:30:49Z</time>
      </trkpt>
      <trkpt lat="45.75643" lon="5.70669">
        <ele>231.3</ele>
        <time>2022-09-25T14:30:50Z</time>
      </trkpt>
      <trkpt lat="45.75648" lon="5.70666">
        <ele>231.3</ele>
        <time>2022-09-25T14:30:51Z</time>
      </trkpt>
      <trkpt lat="45.75653" lon="5.70663">
        <ele>231.4</ele>
        <time>2022-09-25T14:30:52Z</time>
      </trkpt>
      <trkpt lat="45.75657" lon="5.7066">
        <ele>231.4</ele>
        <time>2022-09-25T14:30:53Z</time>
      </trkpt>
      <trkpt lat="45.75661" lon="5.70656">
        <ele>231.4</ele>
        <time>2022-09-25T14:30:54Z</time>
      </trkpt>
      <trkpt lat="45.75665" lon="5.70653">
        <ele>231.4</ele>
        <time>2022-09-25T14:30:55Z</time>
      </trkpt>
      <trkpt lat="45.7567" lon="5.70649">
        <ele>231.4</ele>
        <time>2022-09-25T14:30:56Z</time>
      </trkpt>
      <trkpt lat="45.75675" lon="5.70645">
        <ele>231.4</ele>
        <time>2022-09-25T14:30:57Z</time>
      </trkpt>
      <trkpt lat="45.75678" lon="5.70641">
        <ele>231.4</ele>
        <time>2022-09-25T14:30:58Z</time>
      </trkpt>
      <trkpt lat="45.75681" lon="5.70637">
        <ele>231.4</ele>
        <time>2022-09-25T14:30:59Z</time>
      </trkpt>
      <trkpt lat="45.75686" lon="5.70632">
        <ele>231.4</ele>
        <time>2022-09-25T14:31:00Z</time>
      </trkpt>
      <trkpt lat="45.7569" lon="5.70628">
        <ele>231.4</ele>
        <time>2022-09-25T14:31:01Z</time>
      </trkpt>
      <trkpt lat="45.75694" lon="5.70623">
        <ele>231.4</ele>
        <time>2022-09-25T14:31:02Z</time>
      </trkpt>
      <trkpt lat="45.75697" lon="5.70619">
        <ele>231.4</ele>
        <time>2022-09-25T14:31:03Z</time>
      </trkpt>
      <trkpt lat="45.75701" lon="5.70614">
        <ele>231.4</ele>
        <time>2022-09-25T14:31:04Z</time>
      </trkpt>
      <trkpt lat="45.75705" lon="5.70609">
        <ele>231.4</ele>
        <time>2022-09-25T14:31:05Z</time>
      </trkpt>
      <trkpt lat="45.75708" lon="5.70605">
        <ele>231.4</ele>
        <time>2022-09-25T14:31:06Z</time>
      </trkpt>
      <trkpt lat="45.75712" lon="5.706">
        <ele>231.5</ele>
        <time>2022-09-25T14:31:07Z</time>
      </trkpt>
      <trkpt lat="45.75716" lon="5.70596">
        <ele>231.5</ele>
        <time>2022-09-25T14:31:08Z</time>
      </trkpt>
      <trkpt lat="45.75719" lon="5.70591">
        <ele>231.5</ele>
        <time>2022-09-25T14:31:09Z</time>
      </trkpt>
      <trkpt lat="45.75723" lon="5.70587">
        <ele>231.5</ele>
        <time>2022-09-25T14:31:10Z</time>
      </trkpt>
      <trkpt lat="45.75726" lon="5.70582">
        <ele>231.5</ele>
        <time>2022-09-25T14:31:11Z</time>
      </trkpt>
      <trkpt lat="45.7573" lon="5.70578">
        <ele>231.5</ele>
        <time>2022-09-25T14:31:12Z</time>
      </trkpt>
      <trkpt lat="45.75733" lon="5.70573">
        <ele>231.6</ele>
        <time>2022-09-25T14:31:13Z</time>
      </trkpt>
      <trkpt lat="45.75737" lon="5.70569">
        <ele>231.6</ele>
        <time>2022-09-25T14:31:14Z</time>
      </trkpt>
      <trkpt lat="45.75739" lon="5.70564">
        <ele>231.6</ele>
        <time>2022-09-25T14:31:15Z</time>
      </trkpt>
      <trkpt lat="45.75742" lon="5.7056">
        <ele>231.6</ele>
        <time>2022-09-25T14:31:16Z</time>
      </trkpt>
      <trkpt lat="45.75744" lon="5.70555">
        <ele>231.6</ele>
        <time>2022-09-25T14:31:17Z</time>
      </trkpt>
      <trkpt lat="45.75745" lon="5.7055">
        <ele>231.6</ele>
        <time>2022-09-25T14:31:18Z</time>
      </trkpt>
      <trkpt lat="45.75746" lon="5.70546">
        <ele>231.6</ele>
        <time>2022-09-25T14:31:19Z</time>
      </trkpt>
      <trkpt lat="45.75747" lon="5.70541">
        <ele>231.7</ele>
        <time>2022-09-25T14:31:20Z</time>
      </trkpt>
      <trkpt lat="45.75748" lon="5.70535">
        <ele>231.7</ele>
        <time>2022-09-25T14:31:21Z</time>
      </trkpt>
      <trkpt lat="45.75749" lon="5.70533">
        <ele>231.7</ele>
        <time>2022-09-25T14:31:22Z</time>
      </trkpt>
      <trkpt lat="45.75751" lon="5.7053">
        <ele>231.8</ele>
        <time>2022-09-25T14:31:23Z</time>
      </trkpt>
      <trkpt lat="45.75752" lon="5.70529">
        <ele>231.8</ele>
        <time>2022-09-25T14:31:24Z</time>
      </trkpt>
      <trkpt lat="45.75756" lon="5.70528">
        <ele>231.8</ele>
        <time>2022-09-25T14:31:25Z</time>
      </trkpt>
      <trkpt lat="45.75757" lon="5.70529">
        <ele>231.8</ele>
        <time>2022-09-25T14:31:26Z</time>
      </trkpt>
      <trkpt lat="45.7576" lon="5.7053">
        <ele>231.8</ele>
        <time>2022-09-25T14:31:27Z</time>
      </trkpt>
      <trkpt lat="45.75763" lon="5.7053">
        <ele>231.8</ele>
        <time>2022-09-25T14:31:28Z</time>
      </trkpt>
      <trkpt lat="45.75766" lon="5.70532">
        <ele>231.8</ele>
        <time>2022-09-25T14:31:29Z</time>
      </trkpt>
      <trkpt lat="45.75769" lon="5.70533">
        <ele>231.8</ele>
        <time>2022-09-25T14:31:30Z</time>
      </trkpt>
      <trkpt lat="45.75772" lon="5.70536">
        <ele>231.8</ele>
        <time>2022-09-25T14:31:31Z</time>
      </trkpt>
      <trkpt lat="45.75774" lon="5.70538">
        <ele>231.6</ele>
        <time>2022-09-25T14:31:32Z</time>
      </trkpt>
      <trkpt lat="45.75777" lon="5.70542">
        <ele>231.6</ele>
        <time>2022-09-25T14:31:33Z</time>
      </trkpt>
      <trkpt lat="45.75777" lon="5.70543">
        <ele>231.6</ele>
        <time>2022-09-25T14:31:34Z</time>
      </trkpt>
      <trkpt lat="45.75778" lon="5.70545">
        <ele>231.5</ele>
        <time>2022-09-25T14:31:35Z</time>
      </trkpt>
      <trkpt lat="45.75778" lon="5.70547">
        <ele>231.5</ele>
        <time>2022-09-25T14:31:36Z</time>
      </trkpt>
      <trkpt lat="45.75778" lon="5.70548">
        <ele>231.5</ele>
        <time>2022-09-25T14:31:37Z</time>
      </trkpt>
      <trkpt lat="45.75779" lon="5.7055">
        <ele>231.5</ele>
        <time>2022-09-25T14:31:38Z</time>
      </trkpt>
      <trkpt lat="45.75779" lon="5.70551">
        <ele>231.4</ele>
        <time>2022-09-25T14:31:39Z</time>
      </trkpt>
      <trkpt lat="45.75779" lon="5.70552">
        <ele>231.4</ele>
        <time>2022-09-25T14:31:40Z</time>
      </trkpt>
      <trkpt lat="45.75778" lon="5.70554">
        <ele>231.4</ele>
        <time>2022-09-25T14:31:41Z</time>
      </trkpt>
      <trkpt lat="45.75776" lon="5.70555">
        <ele>231.4</ele>
        <time>2022-09-25T14:31:42Z</time>
      </trkpt>
      <trkpt lat="45.75773" lon="5.70556">
        <ele>231.4</ele>
        <time>2022-09-25T14:31:43Z</time>
      </trkpt>
      <trkpt lat="45.75769" lon="5.70558">
        <ele>231.4</ele>
        <time>2022-09-25T14:31:44Z</time>
      </trkpt>
      <trkpt lat="45.75767" lon="5.70559">
        <ele>231.4</ele>
        <time>2022-09-25T14:31:45Z</time>
      </trkpt>
      <trkpt lat="45.75763" lon="5.70561">
        <ele>231.4</ele>
        <time>2022-09-25T14:31:46Z</time>
      </trkpt>
      <trkpt lat="45.75762" lon="5.70562">
        <ele>231.4</ele>
        <time>2022-09-25T14:31:47Z</time>
      </trkpt>
      <trkpt lat="45.75759" lon="5.70564">
        <ele>231.3</ele>
        <time>2022-09-25T14:31:48Z</time>
      </trkpt>
      <trkpt lat="45.75756" lon="5.70566">
        <ele>231.3</ele>
        <time>2022-09-25T14:31:49Z</time>
      </trkpt>
      <trkpt lat="45.75752" lon="5.70569">
        <ele>231.3</ele>
        <time>2022-09-25T14:31:50Z</time>
      </trkpt>
      <trkpt lat="45.75749" lon="5.70571">
        <ele>231.3</ele>
        <time>2022-09-25T14:31:51Z</time>
      </trkpt>
      <trkpt lat="45.75746" lon="5.70573">
        <ele>231.3</ele>
        <time>2022-09-25T14:31:52Z</time>
      </trkpt>
      <trkpt lat="45.75743" lon="5.70577">
        <ele>231.3</ele>
        <time>2022-09-25T14:31:53Z</time>
      </trkpt>
      <trkpt lat="45.75739" lon="5.7058">
        <ele>231.3</ele>
        <time>2022-09-25T14:31:54Z</time>
      </trkpt>
      <trkpt lat="45.75736" lon="5.70583">
        <ele>231.3</ele>
        <time>2022-09-25T14:31:55Z</time>
      </trkpt>
      <trkpt lat="45.75732" lon="5.70588">
        <ele>231.3</ele>
        <time>2022-09-25T14:31:56Z</time>
      </trkpt>
      <trkpt lat="45.75729" lon="5.70592">
        <ele>231.3</ele>
        <time>2022-09-25T14:31:57Z</time>
      </trkpt>
      <trkpt lat="45.75725" lon="5.70597">
        <ele>231.3</ele>
        <time>2022-09-25T14:31:58Z</time>
      </trkpt>
      <trkpt lat="45.75722" lon="5.70601">
        <ele>231.4</ele>
        <time>2022-09-25T14:31:59Z</time>
      </trkpt>
      <trkpt lat="45.75719" lon="5.70605">
        <ele>231.4</ele>
        <time>2022-09-25T14:32:00Z</time>
      </trkpt>
      <trkpt lat="45.75716" lon="5.70609">
        <ele>231.4</ele>
        <time>2022-09-25T14:32:01Z</time>
      </trkpt>
      <trkpt lat="45.75712" lon="5.70613">
        <ele>231.5</ele>
        <time>2022-09-25T14:32:02Z</time>
      </trkpt>
      <trkpt lat="45.75709" lon="5.70617">
        <ele>231.5</ele>
        <time>2022-09-25T14:32:03Z</time>
      </trkpt>
      <trkpt lat="45.75706" lon="5.70622">
        <ele>231.6</ele>
        <time>2022-09-25T14:32:04Z</time>
      </trkpt>
      <trkpt lat="45.75703" lon="5.70626">
        <ele>231.6</ele>
        <time>2022-09-25T14:32:05Z</time>
      </trkpt>
      <trkpt lat="45.75699" lon="5.7063">
        <ele>231.7</ele>
        <time>2022-09-25T14:32:07Z</time>
      </trkpt>
      <trkpt lat="45.75696" lon="5.70634">
        <ele>231.8</ele>
        <time>2022-09-25T14:32:08Z</time>
      </trkpt>
      <trkpt lat="45.75693" lon="5.70638">
        <ele>231.8</ele>
        <time>2022-09-25T14:32:09Z</time>
      </trkpt>
      <trkpt lat="45.75689" lon="5.70642">
        <ele>231.9</ele>
        <time>2022-09-25T14:32:10Z</time>
      </trkpt>
      <trkpt lat="45.75686" lon="5.70646">
        <ele>232</ele>
        <time>2022-09-25T14:32:11Z</time>
      </trkpt>
      <trkpt lat="45.75684" lon="5.7065">
        <ele>232.1</ele>
        <time>2022-09-25T14:32:12Z</time>
      </trkpt>
      <trkpt lat="45.7568" lon="5.70653">
        <ele>232.3</ele>
        <time>2022-09-25T14:32:13Z</time>
      </trkpt>
      <trkpt lat="45.75677" lon="5.70656">
        <ele>232.4</ele>
        <time>2022-09-25T14:32:14Z</time>
      </trkpt>
      <trkpt lat="45.75674" lon="5.7066">
        <ele>232.5</ele>
        <time>2022-09-25T14:32:15Z</time>
      </trkpt>
      <trkpt lat="45.75671" lon="5.70663">
        <ele>232.7</ele>
        <time>2022-09-25T14:32:16Z</time>
      </trkpt>
      <trkpt lat="45.75668" lon="5.70666">
        <ele>232.8</ele>
        <time>2022-09-25T14:32:17Z</time>
      </trkpt>
      <trkpt lat="45.75665" lon="5.70669">
        <ele>233</ele>
        <time>2022-09-25T14:32:18Z</time>
      </trkpt>
      <trkpt lat="45.75661" lon="5.70672">
        <ele>233.2</ele>
        <time>2022-09-25T14:32:19Z</time>
      </trkpt>
      <trkpt lat="45.75658" lon="5.70676">
        <ele>233.3</ele>
        <time>2022-09-25T14:32:20Z</time>
      </trkpt>
      <trkpt lat="45.75655" lon="5.70678">
        <ele>233.5</ele>
        <time>2022-09-25T14:32:21Z</time>
      </trkpt>
      <trkpt lat="45.75652" lon="5.70681">
        <ele>233.8</ele>
        <time>2022-09-25T14:32:22Z</time>
      </trkpt>
      <trkpt lat="45.75649" lon="5.70683">
        <ele>234</ele>
        <time>2022-09-25T14:32:23Z</time>
      </trkpt>
      <trkpt lat="45.75646" lon="5.70685">
        <ele>234.2</ele>
        <time>2022-09-25T14:32:24Z</time>
      </trkpt>
      <trkpt lat="45.75642" lon="5.70687">
        <ele>234.4</ele>
        <time>2022-09-25T14:32:25Z</time>
      </trkpt>
      <trkpt lat="45.75637" lon="5.70692">
        <ele>234.8</ele>
        <time>2022-09-25T14:32:26Z</time>
      </trkpt>
      <trkpt lat="45.75633" lon="5.70693">
        <ele>235.1</ele>
        <time>2022-09-25T14:32:27Z</time>
      </trkpt>
      <trkpt lat="45.7563" lon="5.70695">
        <ele>235.3</ele>
        <time>2022-09-25T14:32:28Z</time>
      </trkpt>
      <trkpt lat="45.75627" lon="5.70697">
        <ele>235.6</ele>
        <time>2022-09-25T14:32:29Z</time>
      </trkpt>
      <trkpt lat="45.75625" lon="5.70699">
        <ele>235.8</ele>
        <time>2022-09-25T14:32:30Z</time>
      </trkpt>
      <trkpt lat="45.75622" lon="5.707">
        <ele>236</ele>
        <time>2022-09-25T14:32:31Z</time>
      </trkpt>
      <trkpt lat="45.75619" lon="5.70702">
        <ele>236.2</ele>
        <time>2022-09-25T14:32:32Z</time>
      </trkpt>
      <trkpt lat="45.75615" lon="5.70704">
        <ele>236.5</ele>
        <time>2022-09-25T14:32:33Z</time>
      </trkpt>
      <trkpt lat="45.75613" lon="5.70705">
        <ele>236.7</ele>
        <time>2022-09-25T14:32:34Z</time>
      </trkpt>
      <trkpt lat="45.7561" lon="5.70707">
        <ele>236.9</ele>
        <time>2022-09-25T14:32:35Z</time>
      </trkpt>
      <trkpt lat="45.75607" lon="5.70708">
        <ele>237.1</ele>
        <time>2022-09-25T14:32:36Z</time>
      </trkpt>
      <trkpt lat="45.75604" lon="5.7071">
        <ele>237.3</ele>
        <time>2022-09-25T14:32:37Z</time>
      </trkpt>
      <trkpt lat="45.75601" lon="5.70711">
        <ele>237.5</ele>
        <time>2022-09-25T14:32:38Z</time>
      </trkpt>
      <trkpt lat="45.75597" lon="5.70713">
        <ele>237.7</ele>
        <time>2022-09-25T14:32:39Z</time>
      </trkpt>
      <trkpt lat="45.75594" lon="5.70714">
        <ele>237.9</ele>
        <time>2022-09-25T14:32:40Z</time>
      </trkpt>
      <trkpt lat="45.75592" lon="5.70715">
        <ele>238.1</ele>
        <time>2022-09-25T14:32:41Z</time>
      </trkpt>
      <trkpt lat="45.75589" lon="5.70716">
        <ele>238.3</ele>
        <time>2022-09-25T14:32:42Z</time>
      </trkpt>
      <trkpt lat="45.75586" lon="5.70717">
        <ele>238.5</ele>
        <time>2022-09-25T14:32:43Z</time>
      </trkpt>
      <trkpt lat="45.75583" lon="5.70719">
        <ele>238.7</ele>
        <time>2022-09-25T14:32:44Z</time>
      </trkpt>
      <trkpt lat="45.75579" lon="5.7072">
        <ele>239</ele>
        <time>2022-09-25T14:32:45Z</time>
      </trkpt>
      <trkpt lat="45.75578" lon="5.70721">
        <ele>239</ele>
        <time>2022-09-25T14:32:46Z</time>
      </trkpt>
      <trkpt lat="45.75575" lon="5.70722">
        <ele>239.2</ele>
        <time>2022-09-25T14:32:47Z</time>
      </trkpt>
      <trkpt lat="45.75572" lon="5.70723">
        <ele>239.4</ele>
        <time>2022-09-25T14:32:48Z</time>
      </trkpt>
      <trkpt lat="45.7557" lon="5.70724">
        <ele>239.6</ele>
        <time>2022-09-25T14:32:49Z</time>
      </trkpt>
      <trkpt lat="45.75567" lon="5.70725">
        <ele>239.8</ele>
        <time>2022-09-25T14:32:50Z</time>
      </trkpt>
      <trkpt lat="45.75564" lon="5.70726">
        <ele>240</ele>
        <time>2022-09-25T14:32:51Z</time>
      </trkpt>
      <trkpt lat="45.7556" lon="5.70728">
        <ele>240.3</ele>
        <time>2022-09-25T14:32:52Z</time>
      </trkpt>
      <trkpt lat="45.75559" lon="5.70728">
        <ele>240.4</ele>
        <time>2022-09-25T14:32:53Z</time>
      </trkpt>
      <trkpt lat="45.75557" lon="5.7073">
        <ele>240.5</ele>
        <time>2022-09-25T14:32:54Z</time>
      </trkpt>
      <trkpt lat="45.75553" lon="5.70731">
        <ele>240.8</ele>
        <time>2022-09-25T14:32:55Z</time>
      </trkpt>
      <trkpt lat="45.75552" lon="5.70732">
        <ele>240.9</ele>
        <time>2022-09-25T14:32:56Z</time>
      </trkpt>
      <trkpt lat="45.75548" lon="5.70733">
        <ele>241.1</ele>
        <time>2022-09-25T14:32:57Z</time>
      </trkpt>
      <trkpt lat="45.75547" lon="5.70734">
        <ele>241.2</ele>
        <time>2022-09-25T14:32:58Z</time>
      </trkpt>
      <trkpt lat="45.75544" lon="5.70735">
        <ele>241.4</ele>
        <time>2022-09-25T14:32:59Z</time>
      </trkpt>
      <trkpt lat="45.75542" lon="5.70736">
        <ele>241.5</ele>
        <time>2022-09-25T14:33:00Z</time>
      </trkpt>
      <trkpt lat="45.75539" lon="5.70737">
        <ele>241.8</ele>
        <time>2022-09-25T14:33:01Z</time>
      </trkpt>
      <trkpt lat="45.75538" lon="5.70738">
        <ele>241.9</ele>
        <time>2022-09-25T14:33:02Z</time>
      </trkpt>
      <trkpt lat="45.75534" lon="5.70739">
        <ele>242.1</ele>
        <time>2022-09-25T14:33:03Z</time>
      </trkpt>
      <trkpt lat="45.75533" lon="5.7074">
        <ele>242.2</ele>
        <time>2022-09-25T14:33:04Z</time>
      </trkpt>
      <trkpt lat="45.7553" lon="5.70741">
        <ele>242.4</ele>
        <time>2022-09-25T14:33:05Z</time>
      </trkpt>
      <trkpt lat="45.75528" lon="5.70741">
        <ele>242.5</ele>
        <time>2022-09-25T14:33:06Z</time>
      </trkpt>
      <trkpt lat="45.75525" lon="5.70743">
        <ele>242.7</ele>
        <time>2022-09-25T14:33:07Z</time>
      </trkpt>
      <trkpt lat="45.75524" lon="5.70743">
        <ele>242.8</ele>
        <time>2022-09-25T14:33:08Z</time>
      </trkpt>
      <trkpt lat="45.7552" lon="5.70744">
        <ele>243</ele>
        <time>2022-09-25T14:33:09Z</time>
      </trkpt>
      <trkpt lat="45.75518" lon="5.70745">
        <ele>243.1</ele>
        <time>2022-09-25T14:33:10Z</time>
      </trkpt>
      <trkpt lat="45.75516" lon="5.70747">
        <ele>243.3</ele>
        <time>2022-09-25T14:33:11Z</time>
      </trkpt>
      <trkpt lat="45.75515" lon="5.70748">
        <ele>243.3</ele>
        <time>2022-09-25T14:33:12Z</time>
      </trkpt>
      <trkpt lat="45.75511" lon="5.70748">
        <ele>243.6</ele>
        <time>2022-09-25T14:33:13Z</time>
      </trkpt>
      <trkpt lat="45.7551" lon="5.70749">
        <ele>243.6</ele>
        <time>2022-09-25T14:33:14Z</time>
      </trkpt>
      <trkpt lat="45.75507" lon="5.70751">
        <ele>243.8</ele>
        <time>2022-09-25T14:33:15Z</time>
      </trkpt>
      <trkpt lat="45.75506" lon="5.70751">
        <ele>243.9</ele>
        <time>2022-09-25T14:33:16Z</time>
      </trkpt>
      <trkpt lat="45.75503" lon="5.70753">
        <ele>244</ele>
        <time>2022-09-25T14:33:17Z</time>
      </trkpt>
      <trkpt lat="45.75502" lon="5.70753">
        <ele>244.1</ele>
        <time>2022-09-25T14:33:18Z</time>
      </trkpt>
      <trkpt lat="45.75498" lon="5.70754">
        <ele>244.3</ele>
        <time>2022-09-25T14:33:19Z</time>
      </trkpt>
      <trkpt lat="45.75497" lon="5.70755">
        <ele>244.3</ele>
        <time>2022-09-25T14:33:20Z</time>
      </trkpt>
      <trkpt lat="45.75494" lon="5.70756">
        <ele>244.5</ele>
        <time>2022-09-25T14:33:21Z</time>
      </trkpt>
      <trkpt lat="45.75493" lon="5.70756">
        <ele>244.5</ele>
        <time>2022-09-25T14:33:22Z</time>
      </trkpt>
      <trkpt lat="45.75489" lon="5.70758">
        <ele>244.7</ele>
        <time>2022-09-25T14:33:23Z</time>
      </trkpt>
      <trkpt lat="45.75488" lon="5.70758">
        <ele>244.7</ele>
        <time>2022-09-25T14:33:24Z</time>
      </trkpt>
      <trkpt lat="45.75484" lon="5.7076">
        <ele>244.8</ele>
        <time>2022-09-25T14:33:25Z</time>
      </trkpt>
      <trkpt lat="45.75483" lon="5.7076">
        <ele>244.9</ele>
        <time>2022-09-25T14:33:26Z</time>
      </trkpt>
      <trkpt lat="45.7548" lon="5.70762">
        <ele>245</ele>
        <time>2022-09-25T14:33:27Z</time>
      </trkpt>
      <trkpt lat="45.75479" lon="5.70763">
        <ele>245</ele>
        <time>2022-09-25T14:33:28Z</time>
      </trkpt>
      <trkpt lat="45.75475" lon="5.70764">
        <ele>245.2</ele>
        <time>2022-09-25T14:33:29Z</time>
      </trkpt>
      <trkpt lat="45.75474" lon="5.70764">
        <ele>245.2</ele>
        <time>2022-09-25T14:33:30Z</time>
      </trkpt>
      <trkpt lat="45.7547" lon="5.70766">
        <ele>245.3</ele>
        <time>2022-09-25T14:33:31Z</time>
      </trkpt>
      <trkpt lat="45.75469" lon="5.70767">
        <ele>245.3</ele>
        <time>2022-09-25T14:33:32Z</time>
      </trkpt>
      <trkpt lat="45.75465" lon="5.70768">
        <ele>245.4</ele>
        <time>2022-09-25T14:33:33Z</time>
      </trkpt>
      <trkpt lat="45.75464" lon="5.70768">
        <ele>245.4</ele>
        <time>2022-09-25T14:33:34Z</time>
      </trkpt>
      <trkpt lat="45.75461" lon="5.7077">
        <ele>245.5</ele>
        <time>2022-09-25T14:33:35Z</time>
      </trkpt>
      <trkpt lat="45.75459" lon="5.70771">
        <ele>245.5</ele>
        <time>2022-09-25T14:33:36Z</time>
      </trkpt>
      <trkpt lat="45.75456" lon="5.70772">
        <ele>245.5</ele>
        <time>2022-09-25T14:33:37Z</time>
      </trkpt>
      <trkpt lat="45.75453" lon="5.70773">
        <ele>245.6</ele>
        <time>2022-09-25T14:33:38Z</time>
      </trkpt>
      <trkpt lat="45.7545" lon="5.70774">
        <ele>245.6</ele>
        <time>2022-09-25T14:33:39Z</time>
      </trkpt>
      <trkpt lat="45.75447" lon="5.70776">
        <ele>245.6</ele>
        <time>2022-09-25T14:33:40Z</time>
      </trkpt>
      <trkpt lat="45.75445" lon="5.70777">
        <ele>245.6</ele>
        <time>2022-09-25T14:33:41Z</time>
      </trkpt>
      <trkpt lat="45.75441" lon="5.70777">
        <ele>245.6</ele>
        <time>2022-09-25T14:33:42Z</time>
      </trkpt>
      <trkpt lat="45.75438" lon="5.70779">
        <ele>245.6</ele>
        <time>2022-09-25T14:33:43Z</time>
      </trkpt>
      <trkpt lat="45.75435" lon="5.70781">
        <ele>245.6</ele>
        <time>2022-09-25T14:33:44Z</time>
      </trkpt>
      <trkpt lat="45.75431" lon="5.70782">
        <ele>245.6</ele>
        <time>2022-09-25T14:33:45Z</time>
      </trkpt>
      <trkpt lat="45.75428" lon="5.70784">
        <ele>245.5</ele>
        <time>2022-09-25T14:33:46Z</time>
      </trkpt>
      <trkpt lat="45.75424" lon="5.70785">
        <ele>245.5</ele>
        <time>2022-09-25T14:33:47Z</time>
      </trkpt>
      <trkpt lat="45.75421" lon="5.70786">
        <ele>245.4</ele>
        <time>2022-09-25T14:33:48Z</time>
      </trkpt>
      <trkpt lat="45.75418" lon="5.70788">
        <ele>245.3</ele>
        <time>2022-09-25T14:33:49Z</time>
      </trkpt>
      <trkpt lat="45.75414" lon="5.7079">
        <ele>245.2</ele>
        <time>2022-09-25T14:33:50Z</time>
      </trkpt>
      <trkpt lat="45.7541" lon="5.70791">
        <ele>245.1</ele>
        <time>2022-09-25T14:33:51Z</time>
      </trkpt>
      <trkpt lat="45.75406" lon="5.70793">
        <ele>245</ele>
        <time>2022-09-25T14:33:52Z</time>
      </trkpt>
      <trkpt lat="45.75402" lon="5.70795">
        <ele>244.9</ele>
        <time>2022-09-25T14:33:53Z</time>
      </trkpt>
      <trkpt lat="45.75397" lon="5.70796">
        <ele>244.7</ele>
        <time>2022-09-25T14:33:54Z</time>
      </trkpt>
      <trkpt lat="45.75393" lon="5.70798">
        <ele>244.6</ele>
        <time>2022-09-25T14:33:55Z</time>
      </trkpt>
      <trkpt lat="45.75389" lon="5.708">
        <ele>244.4</ele>
        <time>2022-09-25T14:33:56Z</time>
      </trkpt>
      <trkpt lat="45.75384" lon="5.70802">
        <ele>244.2</ele>
        <time>2022-09-25T14:33:57Z</time>
      </trkpt>
      <trkpt lat="45.75379" lon="5.70804">
        <ele>244</ele>
        <time>2022-09-25T14:33:58Z</time>
      </trkpt>
      <trkpt lat="45.75375" lon="5.70806">
        <ele>243.8</ele>
        <time>2022-09-25T14:33:59Z</time>
      </trkpt>
      <trkpt lat="45.7537" lon="5.70808">
        <ele>243.6</ele>
        <time>2022-09-25T14:34:00Z</time>
      </trkpt>
      <trkpt lat="45.75364" lon="5.7081">
        <ele>243.3</ele>
        <time>2022-09-25T14:34:01Z</time>
      </trkpt>
      <trkpt lat="45.75359" lon="5.70812">
        <ele>243</ele>
        <time>2022-09-25T14:34:02Z</time>
      </trkpt>
      <trkpt lat="45.75353" lon="5.70814">
        <ele>242.7</ele>
        <time>2022-09-25T14:34:03Z</time>
      </trkpt>
      <trkpt lat="45.75348" lon="5.70815">
        <ele>242.4</ele>
        <time>2022-09-25T14:34:04Z</time>
      </trkpt>
      <trkpt lat="45.75343" lon="5.70816">
        <ele>242.1</ele>
        <time>2022-09-25T14:34:05Z</time>
      </trkpt>
      <trkpt lat="45.75337" lon="5.70817">
        <ele>241.8</ele>
        <time>2022-09-25T14:34:06Z</time>
      </trkpt>
      <trkpt lat="45.75331" lon="5.70818">
        <ele>241.5</ele>
        <time>2022-09-25T14:34:07Z</time>
      </trkpt>
      <trkpt lat="45.75326" lon="5.70818">
        <ele>241.2</ele>
        <time>2022-09-25T14:34:08Z</time>
      </trkpt>
      <trkpt lat="45.7532" lon="5.70819">
        <ele>240.9</ele>
        <time>2022-09-25T14:34:09Z</time>
      </trkpt>
      <trkpt lat="45.75314" lon="5.70819">
        <ele>240.5</ele>
        <time>2022-09-25T14:34:10Z</time>
      </trkpt>
      <trkpt lat="45.75309" lon="5.70819">
        <ele>240.2</ele>
        <time>2022-09-25T14:34:11Z</time>
      </trkpt>
      <trkpt lat="45.75303" lon="5.70819">
        <ele>239.9</ele>
        <time>2022-09-25T14:34:13Z</time>
      </trkpt>
      <trkpt lat="45.75297" lon="5.70819">
        <ele>239.6</ele>
        <time>2022-09-25T14:34:14Z</time>
      </trkpt>
      <trkpt lat="45.75292" lon="5.70818">
        <ele>239.2</ele>
        <time>2022-09-25T14:34:15Z</time>
      </trkpt>
      <trkpt lat="45.75286" lon="5.70817">
        <ele>238.9</ele>
        <time>2022-09-25T14:34:16Z</time>
      </trkpt>
      <trkpt lat="45.7528" lon="5.70816">
        <ele>238.6</ele>
        <time>2022-09-25T14:34:17Z</time>
      </trkpt>
      <trkpt lat="45.75274" lon="5.70814">
        <ele>238.2</ele>
        <time>2022-09-25T14:34:18Z</time>
      </trkpt>
      <trkpt lat="45.75268" lon="5.70812">
        <ele>237.9</ele>
        <time>2022-09-25T14:34:19Z</time>
      </trkpt>
      <trkpt lat="45.75261" lon="5.7081">
        <ele>237.5</ele>
        <time>2022-09-25T14:34:20Z</time>
      </trkpt>
      <trkpt lat="45.75256" lon="5.70808">
        <ele>237.2</ele>
        <time>2022-09-25T14:34:21Z</time>
      </trkpt>
      <trkpt lat="45.7525" lon="5.70805">
        <ele>236.8</ele>
        <time>2022-09-25T14:34:22Z</time>
      </trkpt>
      <trkpt lat="45.75243" lon="5.70801">
        <ele>236.4</ele>
        <time>2022-09-25T14:34:23Z</time>
      </trkpt>
      <trkpt lat="45.75237" lon="5.70799">
        <ele>236</ele>
        <time>2022-09-25T14:34:24Z</time>
      </trkpt>
      <trkpt lat="45.75231" lon="5.70795">
        <ele>235.7</ele>
        <time>2022-09-25T14:34:25Z</time>
      </trkpt>
      <trkpt lat="45.75225" lon="5.70791">
        <ele>235.4</ele>
        <time>2022-09-25T14:34:26Z</time>
      </trkpt>
      <trkpt lat="45.7522" lon="5.70788">
        <ele>235.1</ele>
        <time>2022-09-25T14:34:27Z</time>
      </trkpt>
      <trkpt lat="45.75214" lon="5.70784">
        <ele>234.7</ele>
        <time>2022-09-25T14:34:28Z</time>
      </trkpt>
      <trkpt lat="45.75208" lon="5.70779">
        <ele>234.4</ele>
        <time>2022-09-25T14:34:29Z</time>
      </trkpt>
      <trkpt lat="45.75196" lon="5.7077">
        <ele>233.8</ele>
        <time>2022-09-25T14:34:30Z</time>
      </trkpt>
      <trkpt lat="45.75189" lon="5.70765">
        <ele>233.5</ele>
        <time>2022-09-25T14:34:31Z</time>
      </trkpt>
      <trkpt lat="45.75183" lon="5.70761">
        <ele>233.2</ele>
        <time>2022-09-25T14:34:32Z</time>
      </trkpt>
      <trkpt lat="45.75177" lon="5.70755">
        <ele>232.9</ele>
        <time>2022-09-25T14:34:33Z</time>
      </trkpt>
      <trkpt lat="45.75171" lon="5.70753">
        <ele>232.7</ele>
        <time>2022-09-25T14:34:34Z</time>
      </trkpt>
      <trkpt lat="45.75164" lon="5.70749">
        <ele>232.5</ele>
        <time>2022-09-25T14:34:35Z</time>
      </trkpt>
      <trkpt lat="45.75157" lon="5.70746">
        <ele>232.4</ele>
        <time>2022-09-25T14:34:36Z</time>
      </trkpt>
      <trkpt lat="45.75151" lon="5.70743">
        <ele>232.2</ele>
        <time>2022-09-25T14:34:37Z</time>
      </trkpt>
      <trkpt lat="45.75145" lon="5.70741">
        <ele>232.1</ele>
        <time>2022-09-25T14:34:38Z</time>
      </trkpt>
      <trkpt lat="45.75138" lon="5.70739">
        <ele>232</ele>
        <time>2022-09-25T14:34:39Z</time>
      </trkpt>
      <trkpt lat="45.75132" lon="5.70737">
        <ele>231.9</ele>
        <time>2022-09-25T14:34:40Z</time>
      </trkpt>
      <trkpt lat="45.75126" lon="5.70735">
        <ele>231.9</ele>
        <time>2022-09-25T14:34:41Z</time>
      </trkpt>
      <trkpt lat="45.75121" lon="5.70733">
        <ele>231.9</ele>
        <time>2022-09-25T14:34:42Z</time>
      </trkpt>
      <trkpt lat="45.75115" lon="5.70731">
        <ele>231.9</ele>
        <time>2022-09-25T14:34:43Z</time>
      </trkpt>
      <trkpt lat="45.75109" lon="5.70729">
        <ele>232</ele>
        <time>2022-09-25T14:34:44Z</time>
      </trkpt>
      <trkpt lat="45.75104" lon="5.70727">
        <ele>232.1</ele>
        <time>2022-09-25T14:34:45Z</time>
      </trkpt>
      <trkpt lat="45.75099" lon="5.70726">
        <ele>232.1</ele>
        <time>2022-09-25T14:34:46Z</time>
      </trkpt>
      <trkpt lat="45.75094" lon="5.70725">
        <ele>232.2</ele>
        <time>2022-09-25T14:34:47Z</time>
      </trkpt>
      <trkpt lat="45.75089" lon="5.70726">
        <ele>232.2</ele>
        <time>2022-09-25T14:34:48Z</time>
      </trkpt>
      <trkpt lat="45.75085" lon="5.70728">
        <ele>232.3</ele>
        <time>2022-09-25T14:34:49Z</time>
      </trkpt>
      <trkpt lat="45.75081" lon="5.70732">
        <ele>232.3</ele>
        <time>2022-09-25T14:34:50Z</time>
      </trkpt>
      <trkpt lat="45.75077" lon="5.70736">
        <ele>232.2</ele>
        <time>2022-09-25T14:34:51Z</time>
      </trkpt>
      <trkpt lat="45.75074" lon="5.70742">
        <ele>232.2</ele>
        <time>2022-09-25T14:34:52Z</time>
      </trkpt>
      <trkpt lat="45.75073" lon="5.70748">
        <ele>232.1</ele>
        <time>2022-09-25T14:34:53Z</time>
      </trkpt>
      <trkpt lat="45.75072" lon="5.70755">
        <ele>232</ele>
        <time>2022-09-25T14:34:54Z</time>
      </trkpt>
      <trkpt lat="45.75073" lon="5.70761">
        <ele>232</ele>
        <time>2022-09-25T14:34:55Z</time>
      </trkpt>
      <trkpt lat="45.75075" lon="5.70767">
        <ele>231.9</ele>
        <time>2022-09-25T14:34:56Z</time>
      </trkpt>
      <trkpt lat="45.75075" lon="5.70774">
        <ele>231.9</ele>
        <time>2022-09-25T14:34:57Z</time>
      </trkpt>
      <trkpt lat="45.75076" lon="5.70781">
        <ele>231.9</ele>
        <time>2022-09-25T14:34:58Z</time>
      </trkpt>
      <trkpt lat="45.75076" lon="5.70789">
        <ele>231.9</ele>
        <time>2022-09-25T14:34:59Z</time>
      </trkpt>
      <trkpt lat="45.75078" lon="5.70796">
        <ele>231.8</ele>
        <time>2022-09-25T14:35:00Z</time>
      </trkpt>
      <trkpt lat="45.75079" lon="5.70802">
        <ele>231.8</ele>
        <time>2022-09-25T14:35:01Z</time>
      </trkpt>
      <trkpt lat="45.7508" lon="5.7081">
        <ele>231.8</ele>
        <time>2022-09-25T14:35:02Z</time>
      </trkpt>
      <trkpt lat="45.7508" lon="5.70817">
        <ele>231.8</ele>
        <time>2022-09-25T14:35:03Z</time>
      </trkpt>
      <trkpt lat="45.75081" lon="5.70824">
        <ele>231.8</ele>
        <time>2022-09-25T14:35:04Z</time>
      </trkpt>
      <trkpt lat="45.75081" lon="5.7083">
        <ele>231.9</ele>
        <time>2022-09-25T14:35:05Z</time>
      </trkpt>
      <trkpt lat="45.75082" lon="5.70837">
        <ele>231.9</ele>
        <time>2022-09-25T14:35:06Z</time>
      </trkpt>
      <trkpt lat="45.75084" lon="5.70842">
        <ele>231.9</ele>
        <time>2022-09-25T14:35:07Z</time>
      </trkpt>
      <trkpt lat="45.75085" lon="5.70849">
        <ele>231.9</ele>
        <time>2022-09-25T14:35:08Z</time>
      </trkpt>
      <trkpt lat="45.75086" lon="5.70853">
        <ele>231.9</ele>
        <time>2022-09-25T14:35:09Z</time>
      </trkpt>
      <trkpt lat="45.75088" lon="5.70857">
        <ele>231.9</ele>
        <time>2022-09-25T14:35:10Z</time>
      </trkpt>
      <trkpt lat="45.7509" lon="5.70861">
        <ele>231.9</ele>
        <time>2022-09-25T14:35:11Z</time>
      </trkpt>
      <trkpt lat="45.75092" lon="5.70864">
        <ele>231.9</ele>
        <time>2022-09-25T14:35:12Z</time>
      </trkpt>
      <trkpt lat="45.75093" lon="5.70864">
        <ele>231.9</ele>
        <time>2022-09-25T14:35:13Z</time>
      </trkpt>
      <trkpt lat="45.75093" lon="5.70864">
        <ele>231.9</ele>
        <time>2022-09-25T14:35:14Z</time>
      </trkpt>
      <trkpt lat="45.75094" lon="5.70865">
        <ele>231.9</ele>
        <time>2022-09-25T14:35:15Z</time>
      </trkpt>
      <trkpt lat="45.75094" lon="5.70864">
        <ele>231.9</ele>
        <time>2022-09-25T14:35:16Z</time>
      </trkpt>
      <trkpt lat="45.75095" lon="5.70864">
        <ele>231.9</ele>
        <time>2022-09-25T14:35:17Z</time>
      </trkpt>
      <trkpt lat="45.75095" lon="5.70864">
        <ele>231.9</ele>
        <time>2022-09-25T14:35:18Z</time>
      </trkpt>
      <trkpt lat="45.75095" lon="5.70864">
        <ele>231.9</ele>
        <time>2022-09-25T14:35:19Z</time>
      </trkpt>
      <trkpt lat="45.75096" lon="5.70864">
        <ele>231.9</ele>
        <time>2022-09-25T14:35:20Z</time>
      </trkpt>
      <trkpt lat="45.75097" lon="5.70864">
        <ele>231.9</ele>
        <time>2022-09-25T14:35:21Z</time>
      </trkpt>
      <trkpt lat="45.75098" lon="5.70863">
        <ele>231.9</ele>
        <time>2022-09-25T14:35:22Z</time>
      </trkpt>
      <trkpt lat="45.751" lon="5.70863">
        <ele>231.9</ele>
        <time>2022-09-25T14:35:23Z</time>
      </trkpt>
      <trkpt lat="45.75101" lon="5.70863">
        <ele>231.9</ele>
        <time>2022-09-25T14:35:24Z</time>
      </trkpt>
      <trkpt lat="45.75102" lon="5.70862">
        <ele>231.9</ele>
        <time>2022-09-25T14:35:25Z</time>
      </trkpt>
      <trkpt lat="45.75103" lon="5.70862">
        <ele>231.9</ele>
        <time>2022-09-25T14:35:26Z</time>
      </trkpt>
      <trkpt lat="45.75105" lon="5.70861">
        <ele>231.9</ele>
        <time>2022-09-25T14:35:27Z</time>
      </trkpt>
      <trkpt lat="45.75106" lon="5.70861">
        <ele>231.9</ele>
        <time>2022-09-25T14:38:16Z</time>
      </trkpt>
      <trkpt lat="45.75107" lon="5.70861">
        <ele>231.9</ele>
        <time>2022-09-25T14:38:17Z</time>
      </trkpt>
      <trkpt lat="45.75111" lon="5.70861">
        <ele>232</ele>
        <time>2022-09-25T14:38:18Z</time>
      </trkpt>
      <trkpt lat="45.75112" lon="5.70861">
        <ele>232</ele>
        <time>2022-09-25T14:38:19Z</time>
      </trkpt>
      <trkpt lat="45.75115" lon="5.70862">
        <ele>232</ele>
        <time>2022-09-25T14:38:20Z</time>
      </trkpt>
      <trkpt lat="45.75119" lon="5.70863">
        <ele>232</ele>
        <time>2022-09-25T14:38:21Z</time>
      </trkpt>
      <trkpt lat="45.75122" lon="5.70863">
        <ele>232</ele>
        <time>2022-09-25T14:38:22Z</time>
      </trkpt>
      <trkpt lat="45.75125" lon="5.70863">
        <ele>232</ele>
        <time>2022-09-25T14:38:23Z</time>
      </trkpt>
      <trkpt lat="45.75129" lon="5.70863">
        <ele>232</ele>
        <time>2022-09-25T14:38:25Z</time>
      </trkpt>
      <trkpt lat="45.75132" lon="5.70862">
        <ele>232</ele>
        <time>2022-09-25T14:38:26Z</time>
      </trkpt>
      <trkpt lat="45.75136" lon="5.70863">
        <ele>232</ele>
        <time>2022-09-25T14:38:27Z</time>
      </trkpt>
      <trkpt lat="45.7514" lon="5.70863">
        <ele>232</ele>
        <time>2022-09-25T14:38:28Z</time>
      </trkpt>
      <trkpt lat="45.75148" lon="5.70862">
        <ele>232</ele>
        <time>2022-09-25T14:38:29Z</time>
      </trkpt>
      <trkpt lat="45.75153" lon="5.70862">
        <ele>232</ele>
        <time>2022-09-25T14:38:30Z</time>
      </trkpt>
      <trkpt lat="45.75157" lon="5.70862">
        <ele>232.1</ele>
        <time>2022-09-25T14:38:31Z</time>
      </trkpt>
      <trkpt lat="45.75161" lon="5.70862">
        <ele>232.1</ele>
        <time>2022-09-25T14:38:32Z</time>
      </trkpt>
      <trkpt lat="45.75166" lon="5.70863">
        <ele>232.1</ele>
        <time>2022-09-25T14:38:33Z</time>
      </trkpt>
      <trkpt lat="45.75171" lon="5.70862">
        <ele>232.1</ele>
        <time>2022-09-25T14:38:34Z</time>
      </trkpt>
      <trkpt lat="45.75174" lon="5.70863">
        <ele>232.1</ele>
        <time>2022-09-25T14:38:35Z</time>
      </trkpt>
      <trkpt lat="45.75179" lon="5.70863">
        <ele>232.1</ele>
        <time>2022-09-25T14:38:36Z</time>
      </trkpt>
      <trkpt lat="45.75184" lon="5.70863">
        <ele>232.1</ele>
        <time>2022-09-25T14:38:37Z</time>
      </trkpt>
      <trkpt lat="45.75188" lon="5.70863">
        <ele>232.2</ele>
        <time>2022-09-25T14:38:39Z</time>
      </trkpt>
      <trkpt lat="45.75192" lon="5.70863">
        <ele>232.2</ele>
        <time>2022-09-25T14:38:40Z</time>
      </trkpt>
      <trkpt lat="45.75197" lon="5.70863">
        <ele>232.2</ele>
        <time>2022-09-25T14:38:41Z</time>
      </trkpt>
      <trkpt lat="45.75201" lon="5.70863">
        <ele>232.2</ele>
        <time>2022-09-25T14:38:42Z</time>
      </trkpt>
      <trkpt lat="45.7521" lon="5.70863">
        <ele>232.2</ele>
        <time>2022-09-25T14:38:43Z</time>
      </trkpt>
      <trkpt lat="45.75215" lon="5.70863">
        <ele>232.3</ele>
        <time>2022-09-25T14:38:44Z</time>
      </trkpt>
      <trkpt lat="45.75219" lon="5.70863">
        <ele>232.3</ele>
        <time>2022-09-25T14:38:45Z</time>
      </trkpt>
      <trkpt lat="45.75224" lon="5.70863">
        <ele>232.3</ele>
        <time>2022-09-25T14:38:46Z</time>
      </trkpt>
      <trkpt lat="45.75228" lon="5.70863">
        <ele>232.3</ele>
        <time>2022-09-25T14:38:47Z</time>
      </trkpt>
      <trkpt lat="45.75233" lon="5.70863">
        <ele>232.4</ele>
        <time>2022-09-25T14:38:48Z</time>
      </trkpt>
      <trkpt lat="45.75238" lon="5.70863">
        <ele>232.4</ele>
        <time>2022-09-25T14:38:49Z</time>
      </trkpt>
      <trkpt lat="45.75242" lon="5.70863">
        <ele>232.4</ele>
        <time>2022-09-25T14:38:50Z</time>
      </trkpt>
      <trkpt lat="45.75246" lon="5.70863">
        <ele>232.4</ele>
        <time>2022-09-25T14:38:51Z</time>
      </trkpt>
      <trkpt lat="45.75251" lon="5.70862">
        <ele>232.5</ele>
        <time>2022-09-25T14:38:52Z</time>
      </trkpt>
      <trkpt lat="45.75256" lon="5.70862">
        <ele>232.5</ele>
        <time>2022-09-25T14:38:53Z</time>
      </trkpt>
      <trkpt lat="45.75261" lon="5.70862">
        <ele>232.5</ele>
        <time>2022-09-25T14:38:54Z</time>
      </trkpt>
      <trkpt lat="45.75265" lon="5.70862">
        <ele>232.5</ele>
        <time>2022-09-25T14:38:55Z</time>
      </trkpt>
      <trkpt lat="45.7527" lon="5.70862">
        <ele>232.6</ele>
        <time>2022-09-25T14:38:56Z</time>
      </trkpt>
      <trkpt lat="45.75275" lon="5.70862">
        <ele>232.6</ele>
        <time>2022-09-25T14:38:57Z</time>
      </trkpt>
      <trkpt lat="45.75279" lon="5.70862">
        <ele>232.6</ele>
        <time>2022-09-25T14:38:58Z</time>
      </trkpt>
      <trkpt lat="45.75284" lon="5.70862">
        <ele>232.7</ele>
        <time>2022-09-25T14:38:59Z</time>
      </trkpt>
      <trkpt lat="45.75289" lon="5.70862">
        <ele>232.7</ele>
        <time>2022-09-25T14:39:00Z</time>
      </trkpt>
      <trkpt lat="45.75293" lon="5.70862">
        <ele>232.7</ele>
        <time>2022-09-25T14:39:01Z</time>
      </trkpt>
      <trkpt lat="45.75298" lon="5.70863">
        <ele>232.7</ele>
        <time>2022-09-25T14:39:02Z</time>
      </trkpt>
      <trkpt lat="45.75302" lon="5.70862">
        <ele>232.8</ele>
        <time>2022-09-25T14:39:03Z</time>
      </trkpt>
      <trkpt lat="45.75306" lon="5.70862">
        <ele>232.8</ele>
        <time>2022-09-25T14:39:04Z</time>
      </trkpt>
      <trkpt lat="45.7531" lon="5.70862">
        <ele>232.9</ele>
        <time>2022-09-25T14:39:05Z</time>
      </trkpt>
      <trkpt lat="45.75314" lon="5.70863">
        <ele>232.9</ele>
        <time>2022-09-25T14:39:06Z</time>
      </trkpt>
      <trkpt lat="45.75319" lon="5.70863">
        <ele>233</ele>
        <time>2022-09-25T14:39:07Z</time>
      </trkpt>
      <trkpt lat="45.75323" lon="5.70864">
        <ele>233</ele>
        <time>2022-09-25T14:39:08Z</time>
      </trkpt>
      <trkpt lat="45.75328" lon="5.70866">
        <ele>233.1</ele>
        <time>2022-09-25T14:39:09Z</time>
      </trkpt>
      <trkpt lat="45.75332" lon="5.70867">
        <ele>233.1</ele>
        <time>2022-09-25T14:39:10Z</time>
      </trkpt>
      <trkpt lat="45.75336" lon="5.70869">
        <ele>233.1</ele>
        <time>2022-09-25T14:39:11Z</time>
      </trkpt>
      <trkpt lat="45.7534" lon="5.70872">
        <ele>233.1</ele>
        <time>2022-09-25T14:39:12Z</time>
      </trkpt>
      <trkpt lat="45.75344" lon="5.70876">
        <ele>233.1</ele>
        <time>2022-09-25T14:39:13Z</time>
      </trkpt>
      <trkpt lat="45.75347" lon="5.70881">
        <ele>233.1</ele>
        <time>2022-09-25T14:39:14Z</time>
      </trkpt>
      <trkpt lat="45.75351" lon="5.70885">
        <ele>233.1</ele>
        <time>2022-09-25T14:39:15Z</time>
      </trkpt>
      <trkpt lat="45.75353" lon="5.70891">
        <ele>233.2</ele>
        <time>2022-09-25T14:39:16Z</time>
      </trkpt>
      <trkpt lat="45.75356" lon="5.70895">
        <ele>233.2</ele>
        <time>2022-09-25T14:39:17Z</time>
      </trkpt>
      <trkpt lat="45.75357" lon="5.70903">
        <ele>233.2</ele>
        <time>2022-09-25T14:39:18Z</time>
      </trkpt>
      <trkpt lat="45.75361" lon="5.70907">
        <ele>233.2</ele>
        <time>2022-09-25T14:39:19Z</time>
      </trkpt>
      <trkpt lat="45.75362" lon="5.70915">
        <ele>233.3</ele>
        <time>2022-09-25T14:39:20Z</time>
      </trkpt>
      <trkpt lat="45.75363" lon="5.70921">
        <ele>233.3</ele>
        <time>2022-09-25T14:39:21Z</time>
      </trkpt>
      <trkpt lat="45.75364" lon="5.70928">
        <ele>233.3</ele>
        <time>2022-09-25T14:39:22Z</time>
      </trkpt>
      <trkpt lat="45.75362" lon="5.70935">
        <ele>233.3</ele>
        <time>2022-09-25T14:39:23Z</time>
      </trkpt>
      <trkpt lat="45.75363" lon="5.70942">
        <ele>233.4</ele>
        <time>2022-09-25T14:39:24Z</time>
      </trkpt>
      <trkpt lat="45.75362" lon="5.70949">
        <ele>233.4</ele>
        <time>2022-09-25T14:39:25Z</time>
      </trkpt>
      <trkpt lat="45.7536" lon="5.70956">
        <ele>233.4</ele>
        <time>2022-09-25T14:39:26Z</time>
      </trkpt>
      <trkpt lat="45.7536" lon="5.70962">
        <ele>233.5</ele>
        <time>2022-09-25T14:39:27Z</time>
      </trkpt>
      <trkpt lat="45.75359" lon="5.70968">
        <ele>233.5</ele>
        <time>2022-09-25T14:39:28Z</time>
      </trkpt>
      <trkpt lat="45.75358" lon="5.70975">
        <ele>233.5</ele>
        <time>2022-09-25T14:39:29Z</time>
      </trkpt>
      <trkpt lat="45.75356" lon="5.70981">
        <ele>233.5</ele>
        <time>2022-09-25T14:39:30Z</time>
      </trkpt>
      <trkpt lat="45.75354" lon="5.70987">
        <ele>233.6</ele>
        <time>2022-09-25T14:39:31Z</time>
      </trkpt>
      <trkpt lat="45.75353" lon="5.70993">
        <ele>233.6</ele>
        <time>2022-09-25T14:39:32Z</time>
      </trkpt>
      <trkpt lat="45.75352" lon="5.70999">
        <ele>233.6</ele>
        <time>2022-09-25T14:39:33Z</time>
      </trkpt>
      <trkpt lat="45.7535" lon="5.71006">
        <ele>233.7</ele>
        <time>2022-09-25T14:39:34Z</time>
      </trkpt>
      <trkpt lat="45.75348" lon="5.71013">
        <ele>233.8</ele>
        <time>2022-09-25T14:39:35Z</time>
      </trkpt>
      <trkpt lat="45.75346" lon="5.7102">
        <ele>233.8</ele>
        <time>2022-09-25T14:39:36Z</time>
      </trkpt>
      <trkpt lat="45.75345" lon="5.71025">
        <ele>233.9</ele>
        <time>2022-09-25T14:39:37Z</time>
      </trkpt>
      <trkpt lat="45.75343" lon="5.71032">
        <ele>233.9</ele>
        <time>2022-09-25T14:39:38Z</time>
      </trkpt>
      <trkpt lat="45.75342" lon="5.71039">
        <ele>234.1</ele>
        <time>2022-09-25T14:39:39Z</time>
      </trkpt>
      <trkpt lat="45.75341" lon="5.71045">
        <ele>234.2</ele>
        <time>2022-09-25T14:39:40Z</time>
      </trkpt>
      <trkpt lat="45.7534" lon="5.71052">
        <ele>234.3</ele>
        <time>2022-09-25T14:39:41Z</time>
      </trkpt>
      <trkpt lat="45.75339" lon="5.71059">
        <ele>234.4</ele>
        <time>2022-09-25T14:39:42Z</time>
      </trkpt>
      <trkpt lat="45.75337" lon="5.71065">
        <ele>234.6</ele>
        <time>2022-09-25T14:39:43Z</time>
      </trkpt>
      <trkpt lat="45.75336" lon="5.71069">
        <ele>234.7</ele>
        <time>2022-09-25T14:39:44Z</time>
      </trkpt>
      <trkpt lat="45.75334" lon="5.71075">
        <ele>234.8</ele>
        <time>2022-09-25T14:39:45Z</time>
      </trkpt>
      <trkpt lat="45.75332" lon="5.7108">
        <ele>235</ele>
        <time>2022-09-25T14:39:46Z</time>
      </trkpt>
      <trkpt lat="45.7533" lon="5.71085">
        <ele>235.2</ele>
        <time>2022-09-25T14:39:47Z</time>
      </trkpt>
      <trkpt lat="45.75328" lon="5.7109">
        <ele>235.4</ele>
        <time>2022-09-25T14:39:48Z</time>
      </trkpt>
      <trkpt lat="45.75326" lon="5.71095">
        <ele>235.6</ele>
        <time>2022-09-25T14:39:49Z</time>
      </trkpt>
      <trkpt lat="45.75324" lon="5.71098">
        <ele>235.8</ele>
        <time>2022-09-25T14:39:50Z</time>
      </trkpt>
      <trkpt lat="45.75322" lon="5.71102">
        <ele>236</ele>
        <time>2022-09-25T14:39:51Z</time>
      </trkpt>
      <trkpt lat="45.75321" lon="5.71104">
        <ele>236.1</ele>
        <time>2022-09-25T14:39:52Z</time>
      </trkpt>
      <trkpt lat="45.75318" lon="5.71107">
        <ele>236.3</ele>
        <time>2022-09-25T14:39:53Z</time>
      </trkpt>
      <trkpt lat="45.75316" lon="5.71111">
        <ele>236.6</ele>
        <time>2022-09-25T14:39:54Z</time>
      </trkpt>
      <trkpt lat="45.75315" lon="5.71112">
        <ele>236.7</ele>
        <time>2022-09-25T14:39:55Z</time>
      </trkpt>
      <trkpt lat="45.75313" lon="5.71117">
        <ele>236.9</ele>
        <time>2022-09-25T14:39:56Z</time>
      </trkpt>
      <trkpt lat="45.75312" lon="5.7112">
        <ele>237.2</ele>
        <time>2022-09-25T14:39:57Z</time>
      </trkpt>
      <trkpt lat="45.75311" lon="5.71125">
        <ele>237.4</ele>
        <time>2022-09-25T14:39:58Z</time>
      </trkpt>
      <trkpt lat="45.7531" lon="5.71126">
        <ele>237.5</ele>
        <time>2022-09-25T14:39:59Z</time>
      </trkpt>
      <trkpt lat="45.75308" lon="5.71128">
        <ele>237.8</ele>
        <time>2022-09-25T14:40:00Z</time>
      </trkpt>
      <trkpt lat="45.75308" lon="5.71132">
        <ele>238</ele>
        <time>2022-09-25T14:40:01Z</time>
      </trkpt>
      <trkpt lat="45.75307" lon="5.71134">
        <ele>238.2</ele>
        <time>2022-09-25T14:40:02Z</time>
      </trkpt>
      <trkpt lat="45.75305" lon="5.71137">
        <ele>238.5</ele>
        <time>2022-09-25T14:40:03Z</time>
      </trkpt>
      <trkpt lat="45.75303" lon="5.7114">
        <ele>238.7</ele>
        <time>2022-09-25T14:40:04Z</time>
      </trkpt>
      <trkpt lat="45.75302" lon="5.71145">
        <ele>239.1</ele>
        <time>2022-09-25T14:40:05Z</time>
      </trkpt>
      <trkpt lat="45.75301" lon="5.71147">
        <ele>239.3</ele>
        <time>2022-09-25T14:40:06Z</time>
      </trkpt>
      <trkpt lat="45.753" lon="5.71151">
        <ele>239.6</ele>
        <time>2022-09-25T14:40:07Z</time>
      </trkpt>
      <trkpt lat="45.75298" lon="5.71154">
        <ele>239.9</ele>
        <time>2022-09-25T14:40:08Z</time>
      </trkpt>
      <trkpt lat="45.75296" lon="5.71159">
        <ele>240.4</ele>
        <time>2022-09-25T14:40:09Z</time>
      </trkpt>
      <trkpt lat="45.75295" lon="5.71161">
        <ele>240.5</ele>
        <time>2022-09-25T14:40:10Z</time>
      </trkpt>
      <trkpt lat="45.75294" lon="5.71163">
        <ele>240.7</ele>
        <time>2022-09-25T14:40:11Z</time>
      </trkpt>
      <trkpt lat="45.75293" lon="5.71165">
        <ele>240.9</ele>
        <time>2022-09-25T14:40:12Z</time>
      </trkpt>
      <trkpt lat="45.75291" lon="5.71169">
        <ele>241.2</ele>
        <time>2022-09-25T14:40:13Z</time>
      </trkpt>
      <trkpt lat="45.75291" lon="5.71171">
        <ele>241.4</ele>
        <time>2022-09-25T14:40:14Z</time>
      </trkpt>
      <trkpt lat="45.7529" lon="5.71173">
        <ele>241.6</ele>
        <time>2022-09-25T14:40:15Z</time>
      </trkpt>
      <trkpt lat="45.7529" lon="5.71174">
        <ele>241.6</ele>
        <time>2022-09-25T14:40:16Z</time>
      </trkpt>
      <trkpt lat="45.75288" lon="5.71178">
        <ele>241.9</ele>
        <time>2022-09-25T14:40:17Z</time>
      </trkpt>
      <trkpt lat="45.75287" lon="5.71179">
        <ele>242</ele>
        <time>2022-09-25T14:40:18Z</time>
      </trkpt>
      <trkpt lat="45.75286" lon="5.71183">
        <ele>242.3</ele>
        <time>2022-09-25T14:40:19Z</time>
      </trkpt>
      <trkpt lat="45.75285" lon="5.71184">
        <ele>242.4</ele>
        <time>2022-09-25T14:40:20Z</time>
      </trkpt>
      <trkpt lat="45.75284" lon="5.71187">
        <ele>242.6</ele>
        <time>2022-09-25T14:40:21Z</time>
      </trkpt>
      <trkpt lat="45.75283" lon="5.71188">
        <ele>242.7</ele>
        <time>2022-09-25T14:40:22Z</time>
      </trkpt>
      <trkpt lat="45.75281" lon="5.7119">
        <ele>242.9</ele>
        <time>2022-09-25T14:40:23Z</time>
      </trkpt>
      <trkpt lat="45.7528" lon="5.71192">
        <ele>243</ele>
        <time>2022-09-25T14:40:24Z</time>
      </trkpt>
      <trkpt lat="45.75279" lon="5.71194">
        <ele>243.2</ele>
        <time>2022-09-25T14:40:25Z</time>
      </trkpt>
      <trkpt lat="45.75279" lon="5.71196">
        <ele>243.3</ele>
        <time>2022-09-25T14:40:26Z</time>
      </trkpt>
      <trkpt lat="45.75278" lon="5.712">
        <ele>243.5</ele>
        <time>2022-09-25T14:40:27Z</time>
      </trkpt>
      <trkpt lat="45.75277" lon="5.71205">
        <ele>243.8</ele>
        <time>2022-09-25T14:40:28Z</time>
      </trkpt>
      <trkpt lat="45.75277" lon="5.71207">
        <ele>243.9</ele>
        <time>2022-09-25T14:40:29Z</time>
      </trkpt>
      <trkpt lat="45.75275" lon="5.71211">
        <ele>244.1</ele>
        <time>2022-09-25T14:40:31Z</time>
      </trkpt>
      <trkpt lat="45.75273" lon="5.71214">
        <ele>244.3</ele>
        <time>2022-09-25T14:40:32Z</time>
      </trkpt>
      <trkpt lat="45.7527" lon="5.71218">
        <ele>244.6</ele>
        <time>2022-09-25T14:40:33Z</time>
      </trkpt>
      <trkpt lat="45.75269" lon="5.7122">
        <ele>244.7</ele>
        <time>2022-09-25T14:40:34Z</time>
      </trkpt>
      <trkpt lat="45.75268" lon="5.71222">
        <ele>244.8</ele>
        <time>2022-09-25T14:40:35Z</time>
      </trkpt>
      <trkpt lat="45.75267" lon="5.71224">
        <ele>244.9</ele>
        <time>2022-09-25T14:40:36Z</time>
      </trkpt>
      <trkpt lat="45.75266" lon="5.71228">
        <ele>245.1</ele>
        <time>2022-09-25T14:40:37Z</time>
      </trkpt>
      <trkpt lat="45.75265" lon="5.71229">
        <ele>245.2</ele>
        <time>2022-09-25T14:40:38Z</time>
      </trkpt>
      <trkpt lat="45.75265" lon="5.71231">
        <ele>245.3</ele>
        <time>2022-09-25T14:40:39Z</time>
      </trkpt>
      <trkpt lat="45.75263" lon="5.71235">
        <ele>245.4</ele>
        <time>2022-09-25T14:40:40Z</time>
      </trkpt>
      <trkpt lat="45.75263" lon="5.71236">
        <ele>245.5</ele>
        <time>2022-09-25T14:40:41Z</time>
      </trkpt>
      <trkpt lat="45.75261" lon="5.71239">
        <ele>245.6</ele>
        <time>2022-09-25T14:40:42Z</time>
      </trkpt>
      <trkpt lat="45.75261" lon="5.71242">
        <ele>245.7</ele>
        <time>2022-09-25T14:40:43Z</time>
      </trkpt>
      <trkpt lat="45.75261" lon="5.71244">
        <ele>245.8</ele>
        <time>2022-09-25T14:40:44Z</time>
      </trkpt>
      <trkpt lat="45.75259" lon="5.71247">
        <ele>246</ele>
        <time>2022-09-25T14:40:45Z</time>
      </trkpt>
      <trkpt lat="45.75258" lon="5.71248">
        <ele>246</ele>
        <time>2022-09-25T14:40:46Z</time>
      </trkpt>
      <trkpt lat="45.75257" lon="5.71251">
        <ele>246.1</ele>
        <time>2022-09-25T14:40:47Z</time>
      </trkpt>
      <trkpt lat="45.75256" lon="5.71252">
        <ele>246.2</ele>
        <time>2022-09-25T14:40:48Z</time>
      </trkpt>
      <trkpt lat="45.75255" lon="5.71256">
        <ele>246.3</ele>
        <time>2022-09-25T14:40:49Z</time>
      </trkpt>
      <trkpt lat="45.75254" lon="5.71258">
        <ele>246.4</ele>
        <time>2022-09-25T14:40:50Z</time>
      </trkpt>
      <trkpt lat="45.75253" lon="5.7126">
        <ele>246.5</ele>
        <time>2022-09-25T14:40:51Z</time>
      </trkpt>
      <trkpt lat="45.75252" lon="5.71264">
        <ele>246.6</ele>
        <time>2022-09-25T14:40:52Z</time>
      </trkpt>
      <trkpt lat="45.75251" lon="5.71265">
        <ele>246.6</ele>
        <time>2022-09-25T14:40:53Z</time>
      </trkpt>
      <trkpt lat="45.75249" lon="5.7127">
        <ele>246.8</ele>
        <time>2022-09-25T14:40:54Z</time>
      </trkpt>
      <trkpt lat="45.75247" lon="5.71273">
        <ele>247</ele>
        <time>2022-09-25T14:40:55Z</time>
      </trkpt>
      <trkpt lat="45.75247" lon="5.71275">
        <ele>247</ele>
        <time>2022-09-25T14:40:56Z</time>
      </trkpt>
      <trkpt lat="45.75245" lon="5.71279">
        <ele>247.2</ele>
        <time>2022-09-25T14:40:57Z</time>
      </trkpt>
      <trkpt lat="45.75245" lon="5.71281">
        <ele>247.2</ele>
        <time>2022-09-25T14:40:58Z</time>
      </trkpt>
      <trkpt lat="45.75244" lon="5.71283">
        <ele>247.3</ele>
        <time>2022-09-25T14:40:59Z</time>
      </trkpt>
      <trkpt lat="45.75243" lon="5.71285">
        <ele>247.4</ele>
        <time>2022-09-25T14:41:00Z</time>
      </trkpt>
      <trkpt lat="45.75242" lon="5.7129">
        <ele>247.6</ele>
        <time>2022-09-25T14:41:01Z</time>
      </trkpt>
      <trkpt lat="45.75242" lon="5.71291">
        <ele>247.6</ele>
        <time>2022-09-25T14:41:02Z</time>
      </trkpt>
      <trkpt lat="45.75239" lon="5.71295">
        <ele>247.8</ele>
        <time>2022-09-25T14:41:03Z</time>
      </trkpt>
      <trkpt lat="45.75238" lon="5.71296">
        <ele>247.9</ele>
        <time>2022-09-25T14:41:04Z</time>
      </trkpt>
      <trkpt lat="45.75237" lon="5.713">
        <ele>248</ele>
        <time>2022-09-25T14:41:05Z</time>
      </trkpt>
      <trkpt lat="45.75237" lon="5.71302">
        <ele>248.1</ele>
        <time>2022-09-25T14:41:06Z</time>
      </trkpt>
      <trkpt lat="45.75236" lon="5.71306">
        <ele>248.2</ele>
        <time>2022-09-25T14:41:07Z</time>
      </trkpt>
      <trkpt lat="45.75235" lon="5.71307">
        <ele>248.3</ele>
        <time>2022-09-25T14:41:08Z</time>
      </trkpt>
      <trkpt lat="45.75233" lon="5.71311">
        <ele>248.4</ele>
        <time>2022-09-25T14:41:09Z</time>
      </trkpt>
      <trkpt lat="45.75233" lon="5.71312">
        <ele>248.5</ele>
        <time>2022-09-25T14:41:10Z</time>
      </trkpt>
      <trkpt lat="45.75232" lon="5.71315">
        <ele>248.6</ele>
        <time>2022-09-25T14:41:11Z</time>
      </trkpt>
      <trkpt lat="45.75232" lon="5.71317">
        <ele>248.6</ele>
        <time>2022-09-25T14:41:12Z</time>
      </trkpt>
      <trkpt lat="45.75231" lon="5.71321">
        <ele>248.8</ele>
        <time>2022-09-25T14:41:13Z</time>
      </trkpt>
      <trkpt lat="45.7523" lon="5.71322">
        <ele>248.8</ele>
        <time>2022-09-25T14:41:14Z</time>
      </trkpt>
      <trkpt lat="45.75229" lon="5.71325">
        <ele>248.9</ele>
        <time>2022-09-25T14:41:15Z</time>
      </trkpt>
      <trkpt lat="45.75229" lon="5.71326">
        <ele>249</ele>
        <time>2022-09-25T14:41:16Z</time>
      </trkpt>
      <trkpt lat="45.75228" lon="5.71328">
        <ele>249</ele>
        <time>2022-09-25T14:41:17Z</time>
      </trkpt>
      <trkpt lat="45.75227" lon="5.71332">
        <ele>249.1</ele>
        <time>2022-09-25T14:41:18Z</time>
      </trkpt>
      <trkpt lat="45.75227" lon="5.71334">
        <ele>249.2</ele>
        <time>2022-09-25T14:41:19Z</time>
      </trkpt>
      <trkpt lat="45.75226" lon="5.71338">
        <ele>249.3</ele>
        <time>2022-09-25T14:41:20Z</time>
      </trkpt>
      <trkpt lat="45.75225" lon="5.7134">
        <ele>249.3</ele>
        <time>2022-09-25T14:41:21Z</time>
      </trkpt>
      <trkpt lat="45.75223" lon="5.71344">
        <ele>249.4</ele>
        <time>2022-09-25T14:41:22Z</time>
      </trkpt>
      <trkpt lat="45.75223" lon="5.71345">
        <ele>249.4</ele>
        <time>2022-09-25T14:41:23Z</time>
      </trkpt>
      <trkpt lat="45.75221" lon="5.7135">
        <ele>249.4</ele>
        <time>2022-09-25T14:41:24Z</time>
      </trkpt>
      <trkpt lat="45.75221" lon="5.71352">
        <ele>249.4</ele>
        <time>2022-09-25T14:41:25Z</time>
      </trkpt>
      <trkpt lat="45.7522" lon="5.71356">
        <ele>249.5</ele>
        <time>2022-09-25T14:41:26Z</time>
      </trkpt>
      <trkpt lat="45.7522" lon="5.71357">
        <ele>249.5</ele>
        <time>2022-09-25T14:41:27Z</time>
      </trkpt>
      <trkpt lat="45.75218" lon="5.71361">
        <ele>249.5</ele>
        <time>2022-09-25T14:41:28Z</time>
      </trkpt>
      <trkpt lat="45.75218" lon="5.71362">
        <ele>249.5</ele>
        <time>2022-09-25T14:41:29Z</time>
      </trkpt>
      <trkpt lat="45.75217" lon="5.71365">
        <ele>249.4</ele>
        <time>2022-09-25T14:41:30Z</time>
      </trkpt>
      <trkpt lat="45.75216" lon="5.71368">
        <ele>249.4</ele>
        <time>2022-09-25T14:41:31Z</time>
      </trkpt>
      <trkpt lat="45.75215" lon="5.71373">
        <ele>249.4</ele>
        <time>2022-09-25T14:41:32Z</time>
      </trkpt>
      <trkpt lat="45.75215" lon="5.71374">
        <ele>249.4</ele>
        <time>2022-09-25T14:41:33Z</time>
      </trkpt>
      <trkpt lat="45.75214" lon="5.7138">
        <ele>249.3</ele>
        <time>2022-09-25T14:41:34Z</time>
      </trkpt>
      <trkpt lat="45.75213" lon="5.71382">
        <ele>249.3</ele>
        <time>2022-09-25T14:41:35Z</time>
      </trkpt>
      <trkpt lat="45.75212" lon="5.71388">
        <ele>249.3</ele>
        <time>2022-09-25T14:41:36Z</time>
      </trkpt>
      <trkpt lat="45.75211" lon="5.71393">
        <ele>249.2</ele>
        <time>2022-09-25T14:41:37Z</time>
      </trkpt>
      <trkpt lat="45.7521" lon="5.71399">
        <ele>249.2</ele>
        <time>2022-09-25T14:41:38Z</time>
      </trkpt>
      <trkpt lat="45.75209" lon="5.71404">
        <ele>249.2</ele>
        <time>2022-09-25T14:41:39Z</time>
      </trkpt>
      <trkpt lat="45.75208" lon="5.71409">
        <ele>249.1</ele>
        <time>2022-09-25T14:41:40Z</time>
      </trkpt>
      <trkpt lat="45.75208" lon="5.71414">
        <ele>249.1</ele>
        <time>2022-09-25T14:41:41Z</time>
      </trkpt>
      <trkpt lat="45.75207" lon="5.7142">
        <ele>249.1</ele>
        <time>2022-09-25T14:41:42Z</time>
      </trkpt>
      <trkpt lat="45.75206" lon="5.71425">
        <ele>249.1</ele>
        <time>2022-09-25T14:41:43Z</time>
      </trkpt>
      <trkpt lat="45.75204" lon="5.7143">
        <ele>249.2</ele>
        <time>2022-09-25T14:41:44Z</time>
      </trkpt>
      <trkpt lat="45.75203" lon="5.71434">
        <ele>249.2</ele>
        <time>2022-09-25T14:41:45Z</time>
      </trkpt>
      <trkpt lat="45.75201" lon="5.71439">
        <ele>249.2</ele>
        <time>2022-09-25T14:41:46Z</time>
      </trkpt>
      <trkpt lat="45.752" lon="5.71443">
        <ele>249.3</ele>
        <time>2022-09-25T14:41:47Z</time>
      </trkpt>
      <trkpt lat="45.75198" lon="5.71447">
        <ele>249.3</ele>
        <time>2022-09-25T14:41:48Z</time>
      </trkpt>
      <trkpt lat="45.75197" lon="5.71451">
        <ele>249.4</ele>
        <time>2022-09-25T14:41:49Z</time>
      </trkpt>
      <trkpt lat="45.75194" lon="5.71454">
        <ele>249.4</ele>
        <time>2022-09-25T14:41:50Z</time>
      </trkpt>
      <trkpt lat="45.75192" lon="5.71459">
        <ele>249.5</ele>
        <time>2022-09-25T14:41:51Z</time>
      </trkpt>
      <trkpt lat="45.75189" lon="5.71462">
        <ele>249.5</ele>
        <time>2022-09-25T14:41:52Z</time>
      </trkpt>
      <trkpt lat="45.75187" lon="5.71464">
        <ele>249.5</ele>
        <time>2022-09-25T14:41:53Z</time>
      </trkpt>
      <trkpt lat="45.75184" lon="5.71466">
        <ele>249.6</ele>
        <time>2022-09-25T14:41:54Z</time>
      </trkpt>
      <trkpt lat="45.75184" lon="5.71471">
        <ele>249.6</ele>
        <time>2022-09-25T14:41:55Z</time>
      </trkpt>
      <trkpt lat="45.75183" lon="5.71472">
        <ele>249.6</ele>
        <time>2022-09-25T14:41:56Z</time>
      </trkpt>
      <trkpt lat="45.75182" lon="5.71475">
        <ele>249.7</ele>
        <time>2022-09-25T14:41:57Z</time>
      </trkpt>
      <trkpt lat="45.75179" lon="5.71477">
        <ele>249.8</ele>
        <time>2022-09-25T14:41:58Z</time>
      </trkpt>
      <trkpt lat="45.75178" lon="5.71481">
        <ele>249.8</ele>
        <time>2022-09-25T14:41:59Z</time>
      </trkpt>
      <trkpt lat="45.75175" lon="5.71485">
        <ele>249.9</ele>
        <time>2022-09-25T14:42:00Z</time>
      </trkpt>
      <trkpt lat="45.75175" lon="5.71486">
        <ele>250</ele>
        <time>2022-09-25T14:42:01Z</time>
      </trkpt>
      <trkpt lat="45.75173" lon="5.7149">
        <ele>250.3</ele>
        <time>2022-09-25T14:42:02Z</time>
      </trkpt>
      <trkpt lat="45.75172" lon="5.71491">
        <ele>250.3</ele>
        <time>2022-09-25T14:42:03Z</time>
      </trkpt>
      <trkpt lat="45.75171" lon="5.71494">
        <ele>250.6</ele>
        <time>2022-09-25T14:42:04Z</time>
      </trkpt>
      <trkpt lat="45.75169" lon="5.71498">
        <ele>250.8</ele>
        <time>2022-09-25T14:42:05Z</time>
      </trkpt>
      <trkpt lat="45.75168" lon="5.71499">
        <ele>250.9</ele>
        <time>2022-09-25T14:42:06Z</time>
      </trkpt>
      <trkpt lat="45.75166" lon="5.71503">
        <ele>251.2</ele>
        <time>2022-09-25T14:42:07Z</time>
      </trkpt>
      <trkpt lat="45.75166" lon="5.71504">
        <ele>251.3</ele>
        <time>2022-09-25T14:42:08Z</time>
      </trkpt>
      <trkpt lat="45.75164" lon="5.71508">
        <ele>251.6</ele>
        <time>2022-09-25T14:42:09Z</time>
      </trkpt>
      <trkpt lat="45.75164" lon="5.71509">
        <ele>251.7</ele>
        <time>2022-09-25T14:42:10Z</time>
      </trkpt>
      <trkpt lat="45.75163" lon="5.7151">
        <ele>251.8</ele>
        <time>2022-09-25T14:42:11Z</time>
      </trkpt>
      <trkpt lat="45.75162" lon="5.71513">
        <ele>252</ele>
        <time>2022-09-25T14:42:12Z</time>
      </trkpt>
      <trkpt lat="45.75161" lon="5.71518">
        <ele>252.4</ele>
        <time>2022-09-25T14:42:13Z</time>
      </trkpt>
      <trkpt lat="45.7516" lon="5.7152">
        <ele>252.5</ele>
        <time>2022-09-25T14:42:14Z</time>
      </trkpt>
      <trkpt lat="45.75158" lon="5.71524">
        <ele>252.8</ele>
        <time>2022-09-25T14:42:15Z</time>
      </trkpt>
      <trkpt lat="45.75157" lon="5.71525">
        <ele>252.9</ele>
        <time>2022-09-25T14:42:16Z</time>
      </trkpt>
      <trkpt lat="45.75157" lon="5.71527">
        <ele>253</ele>
        <time>2022-09-25T14:42:17Z</time>
      </trkpt>
      <trkpt lat="45.75156" lon="5.71529">
        <ele>253.2</ele>
        <time>2022-09-25T14:42:18Z</time>
      </trkpt>
      <trkpt lat="45.75154" lon="5.71533">
        <ele>253.5</ele>
        <time>2022-09-25T14:42:19Z</time>
      </trkpt>
      <trkpt lat="45.75154" lon="5.71534">
        <ele>253.6</ele>
        <time>2022-09-25T14:42:20Z</time>
      </trkpt>
      <trkpt lat="45.75153" lon="5.71536">
        <ele>253.7</ele>
        <time>2022-09-25T14:42:21Z</time>
      </trkpt>
      <trkpt lat="45.75152" lon="5.71538">
        <ele>253.8</ele>
        <time>2022-09-25T14:42:22Z</time>
      </trkpt>
      <trkpt lat="45.7515" lon="5.71541">
        <ele>254.1</ele>
        <time>2022-09-25T14:42:23Z</time>
      </trkpt>
      <trkpt lat="45.75148" lon="5.71545">
        <ele>254.3</ele>
        <time>2022-09-25T14:42:24Z</time>
      </trkpt>
      <trkpt lat="45.75147" lon="5.71547">
        <ele>254.5</ele>
        <time>2022-09-25T14:42:25Z</time>
      </trkpt>
      <trkpt lat="45.75147" lon="5.71551">
        <ele>254.7</ele>
        <time>2022-09-25T14:42:26Z</time>
      </trkpt>
      <trkpt lat="45.75146" lon="5.71553">
        <ele>254.8</ele>
        <time>2022-09-25T14:42:27Z</time>
      </trkpt>
      <trkpt lat="45.75146" lon="5.71554">
        <ele>254.9</ele>
        <time>2022-09-25T14:42:28Z</time>
      </trkpt>
      <trkpt lat="45.75145" lon="5.71557">
        <ele>255.1</ele>
        <time>2022-09-25T14:42:29Z</time>
      </trkpt>
      <trkpt lat="45.75143" lon="5.7156">
        <ele>255.3</ele>
        <time>2022-09-25T14:42:30Z</time>
      </trkpt>
      <trkpt lat="45.75142" lon="5.71562">
        <ele>255.4</ele>
        <time>2022-09-25T14:42:31Z</time>
      </trkpt>
      <trkpt lat="45.75141" lon="5.71566">
        <ele>255.6</ele>
        <time>2022-09-25T14:42:32Z</time>
      </trkpt>
      <trkpt lat="45.7514" lon="5.71567">
        <ele>255.7</ele>
        <time>2022-09-25T14:42:33Z</time>
      </trkpt>
      <trkpt lat="45.75138" lon="5.7157">
        <ele>256</ele>
        <time>2022-09-25T14:42:34Z</time>
      </trkpt>
      <trkpt lat="45.75137" lon="5.71572">
        <ele>256.1</ele>
        <time>2022-09-25T14:42:35Z</time>
      </trkpt>
      <trkpt lat="45.75135" lon="5.71575">
        <ele>256.3</ele>
        <time>2022-09-25T14:42:37Z</time>
      </trkpt>
      <trkpt lat="45.75133" lon="5.7158">
        <ele>256.7</ele>
        <time>2022-09-25T14:42:38Z</time>
      </trkpt>
      <trkpt lat="45.75132" lon="5.71581">
        <ele>256.8</ele>
        <time>2022-09-25T14:42:39Z</time>
      </trkpt>
      <trkpt lat="45.7513" lon="5.71584">
        <ele>257</ele>
        <time>2022-09-25T14:42:40Z</time>
      </trkpt>
      <trkpt lat="45.7513" lon="5.71586">
        <ele>257.1</ele>
        <time>2022-09-25T14:42:41Z</time>
      </trkpt>
      <trkpt lat="45.75129" lon="5.71587">
        <ele>257.2</ele>
        <time>2022-09-25T14:42:42Z</time>
      </trkpt>
      <trkpt lat="45.75128" lon="5.7159">
        <ele>257.5</ele>
        <time>2022-09-25T14:42:43Z</time>
      </trkpt>
      <trkpt lat="45.75127" lon="5.71591">
        <ele>257.6</ele>
        <time>2022-09-25T14:42:44Z</time>
      </trkpt>
      <trkpt lat="45.75126" lon="5.71594">
        <ele>257.8</ele>
        <time>2022-09-25T14:42:45Z</time>
      </trkpt>
      <trkpt lat="45.75125" lon="5.71597">
        <ele>258</ele>
        <time>2022-09-25T14:42:46Z</time>
      </trkpt>
      <trkpt lat="45.75124" lon="5.71599">
        <ele>258.1</ele>
        <time>2022-09-25T14:42:47Z</time>
      </trkpt>
      <trkpt lat="45.75123" lon="5.71602">
        <ele>258.4</ele>
        <time>2022-09-25T14:42:48Z</time>
      </trkpt>
      <trkpt lat="45.75122" lon="5.71604">
        <ele>258.5</ele>
        <time>2022-09-25T14:42:49Z</time>
      </trkpt>
      <trkpt lat="45.75121" lon="5.71607">
        <ele>258.8</ele>
        <time>2022-09-25T14:42:50Z</time>
      </trkpt>
      <trkpt lat="45.7512" lon="5.71608">
        <ele>258.9</ele>
        <time>2022-09-25T14:42:51Z</time>
      </trkpt>
      <trkpt lat="45.75119" lon="5.71612">
        <ele>259.2</ele>
        <time>2022-09-25T14:42:52Z</time>
      </trkpt>
      <trkpt lat="45.75118" lon="5.71614">
        <ele>259.4</ele>
        <time>2022-09-25T14:42:53Z</time>
      </trkpt>
      <trkpt lat="45.75116" lon="5.71618">
        <ele>259.7</ele>
        <time>2022-09-25T14:42:54Z</time>
      </trkpt>
      <trkpt lat="45.75114" lon="5.71622">
        <ele>260.1</ele>
        <time>2022-09-25T14:42:55Z</time>
      </trkpt>
      <trkpt lat="45.75114" lon="5.71623">
        <ele>260.1</ele>
        <time>2022-09-25T14:42:56Z</time>
      </trkpt>
      <trkpt lat="45.75113" lon="5.71625">
        <ele>260.3</ele>
        <time>2022-09-25T14:42:57Z</time>
      </trkpt>
      <trkpt lat="45.75112" lon="5.71626">
        <ele>260.4</ele>
        <time>2022-09-25T14:42:58Z</time>
      </trkpt>
      <trkpt lat="45.75111" lon="5.7163">
        <ele>260.7</ele>
        <time>2022-09-25T14:42:59Z</time>
      </trkpt>
      <trkpt lat="45.7511" lon="5.71631">
        <ele>260.8</ele>
        <time>2022-09-25T14:43:00Z</time>
      </trkpt>
      <trkpt lat="45.75109" lon="5.71634">
        <ele>261.1</ele>
        <time>2022-09-25T14:43:01Z</time>
      </trkpt>
      <trkpt lat="45.75108" lon="5.71636">
        <ele>261.2</ele>
        <time>2022-09-25T14:43:02Z</time>
      </trkpt>
      <trkpt lat="45.75106" lon="5.7164">
        <ele>261.6</ele>
        <time>2022-09-25T14:43:03Z</time>
      </trkpt>
      <trkpt lat="45.75105" lon="5.71643">
        <ele>261.8</ele>
        <time>2022-09-25T14:43:04Z</time>
      </trkpt>
      <trkpt lat="45.75104" lon="5.71644">
        <ele>261.9</ele>
        <time>2022-09-25T14:43:05Z</time>
      </trkpt>
      <trkpt lat="45.75103" lon="5.71648">
        <ele>262.2</ele>
        <time>2022-09-25T14:43:06Z</time>
      </trkpt>
      <trkpt lat="45.75103" lon="5.71649">
        <ele>262.3</ele>
        <time>2022-09-25T14:43:07Z</time>
      </trkpt>
      <trkpt lat="45.75102" lon="5.71652">
        <ele>262.5</ele>
        <time>2022-09-25T14:43:08Z</time>
      </trkpt>
      <trkpt lat="45.75101" lon="5.71653">
        <ele>262.6</ele>
        <time>2022-09-25T14:43:09Z</time>
      </trkpt>
      <trkpt lat="45.751" lon="5.71656">
        <ele>262.9</ele>
        <time>2022-09-25T14:43:10Z</time>
      </trkpt>
      <trkpt lat="45.75099" lon="5.71658">
        <ele>263</ele>
        <time>2022-09-25T14:43:11Z</time>
      </trkpt>
      <trkpt lat="45.75098" lon="5.71661">
        <ele>263.2</ele>
        <time>2022-09-25T14:43:12Z</time>
      </trkpt>
      <trkpt lat="45.75098" lon="5.71662">
        <ele>263.3</ele>
        <time>2022-09-25T14:43:13Z</time>
      </trkpt>
      <trkpt lat="45.75096" lon="5.71665">
        <ele>263.5</ele>
        <time>2022-09-25T14:43:14Z</time>
      </trkpt>
      <trkpt lat="45.75096" lon="5.71666">
        <ele>263.6</ele>
        <time>2022-09-25T14:43:15Z</time>
      </trkpt>
      <trkpt lat="45.75094" lon="5.71668">
        <ele>263.8</ele>
        <time>2022-09-25T14:43:16Z</time>
      </trkpt>
      <trkpt lat="45.75094" lon="5.71669">
        <ele>263.9</ele>
        <time>2022-09-25T14:43:17Z</time>
      </trkpt>
      <trkpt lat="45.75093" lon="5.71672">
        <ele>264.1</ele>
        <time>2022-09-25T14:43:18Z</time>
      </trkpt>
      <trkpt lat="45.75093" lon="5.71673">
        <ele>264.2</ele>
        <time>2022-09-25T14:43:19Z</time>
      </trkpt>
      <trkpt lat="45.75092" lon="5.71676">
        <ele>264.3</ele>
        <time>2022-09-25T14:43:20Z</time>
      </trkpt>
      <trkpt lat="45.75091" lon="5.71677">
        <ele>264.4</ele>
        <time>2022-09-25T14:43:21Z</time>
      </trkpt>
      <trkpt lat="45.7509" lon="5.71679">
        <ele>264.6</ele>
        <time>2022-09-25T14:43:22Z</time>
      </trkpt>
      <trkpt lat="45.7509" lon="5.71681">
        <ele>264.7</ele>
        <time>2022-09-25T14:43:23Z</time>
      </trkpt>
      <trkpt lat="45.75089" lon="5.71682">
        <ele>264.8</ele>
        <time>2022-09-25T14:43:24Z</time>
      </trkpt>
      <trkpt lat="45.75088" lon="5.71685">
        <ele>264.9</ele>
        <time>2022-09-25T14:43:25Z</time>
      </trkpt>
      <trkpt lat="45.75087" lon="5.71687">
        <ele>265.1</ele>
        <time>2022-09-25T14:43:26Z</time>
      </trkpt>
      <trkpt lat="45.75087" lon="5.71689">
        <ele>265.2</ele>
        <time>2022-09-25T14:43:27Z</time>
      </trkpt>
      <trkpt lat="45.75086" lon="5.7169">
        <ele>265.3</ele>
        <time>2022-09-25T14:43:28Z</time>
      </trkpt>
      <trkpt lat="45.75085" lon="5.71694">
        <ele>265.5</ele>
        <time>2022-09-25T14:43:29Z</time>
      </trkpt>
      <trkpt lat="45.75085" lon="5.71695">
        <ele>265.6</ele>
        <time>2022-09-25T14:43:30Z</time>
      </trkpt>
      <trkpt lat="45.75084" lon="5.71696">
        <ele>265.6</ele>
        <time>2022-09-25T14:43:31Z</time>
      </trkpt>
      <trkpt lat="45.75083" lon="5.71699">
        <ele>265.8</ele>
        <time>2022-09-25T14:43:32Z</time>
      </trkpt>
      <trkpt lat="45.75082" lon="5.717">
        <ele>265.9</ele>
        <time>2022-09-25T14:43:33Z</time>
      </trkpt>
      <trkpt lat="45.75081" lon="5.71702">
        <ele>266</ele>
        <time>2022-09-25T14:43:34Z</time>
      </trkpt>
      <trkpt lat="45.75081" lon="5.71704">
        <ele>266.1</ele>
        <time>2022-09-25T14:43:35Z</time>
      </trkpt>
      <trkpt lat="45.7508" lon="5.71707">
        <ele>266.2</ele>
        <time>2022-09-25T14:43:36Z</time>
      </trkpt>
      <trkpt lat="45.75078" lon="5.71709">
        <ele>266.3</ele>
        <time>2022-09-25T14:43:37Z</time>
      </trkpt>
      <trkpt lat="45.75078" lon="5.71711">
        <ele>266.4</ele>
        <time>2022-09-25T14:43:38Z</time>
      </trkpt>
      <trkpt lat="45.75077" lon="5.71712">
        <ele>266.5</ele>
        <time>2022-09-25T14:43:39Z</time>
      </trkpt>
      <trkpt lat="45.75076" lon="5.71713">
        <ele>266.5</ele>
        <time>2022-09-25T14:43:40Z</time>
      </trkpt>
      <trkpt lat="45.75075" lon="5.71716">
        <ele>266.6</ele>
        <time>2022-09-25T14:43:41Z</time>
      </trkpt>
      <trkpt lat="45.75075" lon="5.71717">
        <ele>266.7</ele>
        <time>2022-09-25T14:43:42Z</time>
      </trkpt>
      <trkpt lat="45.75074" lon="5.7172">
        <ele>266.8</ele>
        <time>2022-09-25T14:43:43Z</time>
      </trkpt>
      <trkpt lat="45.75073" lon="5.71724">
        <ele>266.9</ele>
        <time>2022-09-25T14:43:44Z</time>
      </trkpt>
      <trkpt lat="45.75072" lon="5.71725">
        <ele>267</ele>
        <time>2022-09-25T14:43:45Z</time>
      </trkpt>
      <trkpt lat="45.7507" lon="5.7173">
        <ele>267.2</ele>
        <time>2022-09-25T14:43:46Z</time>
      </trkpt>
      <trkpt lat="45.75068" lon="5.71733">
        <ele>267.3</ele>
        <time>2022-09-25T14:43:47Z</time>
      </trkpt>
      <trkpt lat="45.75067" lon="5.71735">
        <ele>267.3</ele>
        <time>2022-09-25T14:43:48Z</time>
      </trkpt>
      <trkpt lat="45.75067" lon="5.71737">
        <ele>267.4</ele>
        <time>2022-09-25T14:43:49Z</time>
      </trkpt>
      <trkpt lat="45.75065" lon="5.71741">
        <ele>267.5</ele>
        <time>2022-09-25T14:43:50Z</time>
      </trkpt>
      <trkpt lat="45.75064" lon="5.71743">
        <ele>267.5</ele>
        <time>2022-09-25T14:43:51Z</time>
      </trkpt>
      <trkpt lat="45.75063" lon="5.71747">
        <ele>267.6</ele>
        <time>2022-09-25T14:43:52Z</time>
      </trkpt>
      <trkpt lat="45.75063" lon="5.71748">
        <ele>267.6</ele>
        <time>2022-09-25T14:43:53Z</time>
      </trkpt>
      <trkpt lat="45.75061" lon="5.71752">
        <ele>267.7</ele>
        <time>2022-09-25T14:43:54Z</time>
      </trkpt>
      <trkpt lat="45.7506" lon="5.71754">
        <ele>267.8</ele>
        <time>2022-09-25T14:43:55Z</time>
      </trkpt>
      <trkpt lat="45.75058" lon="5.71758">
        <ele>267.8</ele>
        <time>2022-09-25T14:43:56Z</time>
      </trkpt>
      <trkpt lat="45.75057" lon="5.71759">
        <ele>267.9</ele>
        <time>2022-09-25T14:43:57Z</time>
      </trkpt>
      <trkpt lat="45.75056" lon="5.71764">
        <ele>267.9</ele>
        <time>2022-09-25T14:43:58Z</time>
      </trkpt>
      <trkpt lat="45.75056" lon="5.71765">
        <ele>267.9</ele>
        <time>2022-09-25T14:43:59Z</time>
      </trkpt>
      <trkpt lat="45.75054" lon="5.71769">
        <ele>268</ele>
        <time>2022-09-25T14:44:00Z</time>
      </trkpt>
      <trkpt lat="45.75053" lon="5.71773">
        <ele>268</ele>
        <time>2022-09-25T14:44:01Z</time>
      </trkpt>
      <trkpt lat="45.75052" lon="5.71775">
        <ele>268</ele>
        <time>2022-09-25T14:44:02Z</time>
      </trkpt>
      <trkpt lat="45.75051" lon="5.7178">
        <ele>268.1</ele>
        <time>2022-09-25T14:44:03Z</time>
      </trkpt>
      <trkpt lat="45.7505" lon="5.71782">
        <ele>268.1</ele>
        <time>2022-09-25T14:44:04Z</time>
      </trkpt>
      <trkpt lat="45.75049" lon="5.71785">
        <ele>268.1</ele>
        <time>2022-09-25T14:44:05Z</time>
      </trkpt>
      <trkpt lat="45.75048" lon="5.7179">
        <ele>268.2</ele>
        <time>2022-09-25T14:44:06Z</time>
      </trkpt>
      <trkpt lat="45.75047" lon="5.71795">
        <ele>268.2</ele>
        <time>2022-09-25T14:44:07Z</time>
      </trkpt>
      <trkpt lat="45.75047" lon="5.71799">
        <ele>268.2</ele>
        <time>2022-09-25T14:44:08Z</time>
      </trkpt>
      <trkpt lat="45.75047" lon="5.71804">
        <ele>268.2</ele>
        <time>2022-09-25T14:44:09Z</time>
      </trkpt>
      <trkpt lat="45.75046" lon="5.71809">
        <ele>268.2</ele>
        <time>2022-09-25T14:44:10Z</time>
      </trkpt>
      <trkpt lat="45.75046" lon="5.71814">
        <ele>268.3</ele>
        <time>2022-09-25T14:44:11Z</time>
      </trkpt>
      <trkpt lat="45.75046" lon="5.71819">
        <ele>268.3</ele>
        <time>2022-09-25T14:44:12Z</time>
      </trkpt>
      <trkpt lat="45.75045" lon="5.71825">
        <ele>268.3</ele>
        <time>2022-09-25T14:44:13Z</time>
      </trkpt>
      <trkpt lat="45.75046" lon="5.7183">
        <ele>268.3</ele>
        <time>2022-09-25T14:44:14Z</time>
      </trkpt>
      <trkpt lat="45.75045" lon="5.71835">
        <ele>268.4</ele>
        <time>2022-09-25T14:44:15Z</time>
      </trkpt>
      <trkpt lat="45.75046" lon="5.7184">
        <ele>268.4</ele>
        <time>2022-09-25T14:44:16Z</time>
      </trkpt>
      <trkpt lat="45.75046" lon="5.71846">
        <ele>268.4</ele>
        <time>2022-09-25T14:44:17Z</time>
      </trkpt>
      <trkpt lat="45.75047" lon="5.71851">
        <ele>268.4</ele>
        <time>2022-09-25T14:44:18Z</time>
      </trkpt>
      <trkpt lat="45.75047" lon="5.71856">
        <ele>268.5</ele>
        <time>2022-09-25T14:44:19Z</time>
      </trkpt>
      <trkpt lat="45.75048" lon="5.7186">
        <ele>268.5</ele>
        <time>2022-09-25T14:44:20Z</time>
      </trkpt>
      <trkpt lat="45.75048" lon="5.71866">
        <ele>268.6</ele>
        <time>2022-09-25T14:44:21Z</time>
      </trkpt>
      <trkpt lat="45.75049" lon="5.7187">
        <ele>268.6</ele>
        <time>2022-09-25T14:44:22Z</time>
      </trkpt>
      <trkpt lat="45.75049" lon="5.71875">
        <ele>268.7</ele>
        <time>2022-09-25T14:44:23Z</time>
      </trkpt>
      <trkpt lat="45.7505" lon="5.7188">
        <ele>268.8</ele>
        <time>2022-09-25T14:44:24Z</time>
      </trkpt>
      <trkpt lat="45.75051" lon="5.71885">
        <ele>268.9</ele>
        <time>2022-09-25T14:44:25Z</time>
      </trkpt>
      <trkpt lat="45.75051" lon="5.71889">
        <ele>268.9</ele>
        <time>2022-09-25T14:44:26Z</time>
      </trkpt>
      <trkpt lat="45.75052" lon="5.71894">
        <ele>269</ele>
        <time>2022-09-25T14:44:27Z</time>
      </trkpt>
      <trkpt lat="45.75053" lon="5.71899">
        <ele>269.1</ele>
        <time>2022-09-25T14:44:28Z</time>
      </trkpt>
      <trkpt lat="45.75053" lon="5.71904">
        <ele>269.2</ele>
        <time>2022-09-25T14:44:29Z</time>
      </trkpt>
      <trkpt lat="45.75053" lon="5.71909">
        <ele>269.3</ele>
        <time>2022-09-25T14:44:30Z</time>
      </trkpt>
      <trkpt lat="45.75054" lon="5.71913">
        <ele>269.4</ele>
        <time>2022-09-25T14:44:31Z</time>
      </trkpt>
      <trkpt lat="45.75054" lon="5.71918">
        <ele>269.5</ele>
        <time>2022-09-25T14:44:32Z</time>
      </trkpt>
      <trkpt lat="45.75054" lon="5.71922">
        <ele>269.5</ele>
        <time>2022-09-25T14:44:33Z</time>
      </trkpt>
      <trkpt lat="45.75055" lon="5.71927">
        <ele>269.6</ele>
        <time>2022-09-25T14:44:34Z</time>
      </trkpt>
      <trkpt lat="45.75055" lon="5.71932">
        <ele>269.7</ele>
        <time>2022-09-25T14:44:35Z</time>
      </trkpt>
      <trkpt lat="45.75056" lon="5.71937">
        <ele>269.8</ele>
        <time>2022-09-25T14:44:36Z</time>
      </trkpt>
      <trkpt lat="45.75056" lon="5.71942">
        <ele>269.9</ele>
        <time>2022-09-25T14:44:37Z</time>
      </trkpt>
      <trkpt lat="45.75057" lon="5.71946">
        <ele>269.9</ele>
        <time>2022-09-25T14:44:38Z</time>
      </trkpt>
      <trkpt lat="45.75057" lon="5.71951">
        <ele>270</ele>
        <time>2022-09-25T14:44:39Z</time>
      </trkpt>
      <trkpt lat="45.75058" lon="5.71957">
        <ele>270.1</ele>
        <time>2022-09-25T14:44:40Z</time>
      </trkpt>
      <trkpt lat="45.75059" lon="5.71962">
        <ele>270.2</ele>
        <time>2022-09-25T14:44:41Z</time>
      </trkpt>
      <trkpt lat="45.75059" lon="5.71967">
        <ele>270.3</ele>
        <time>2022-09-25T14:44:43Z</time>
      </trkpt>
      <trkpt lat="45.75059" lon="5.71972">
        <ele>270.4</ele>
        <time>2022-09-25T14:44:44Z</time>
      </trkpt>
      <trkpt lat="45.75061" lon="5.71977">
        <ele>270.4</ele>
        <time>2022-09-25T14:44:45Z</time>
      </trkpt>
      <trkpt lat="45.75061" lon="5.71982">
        <ele>270.5</ele>
        <time>2022-09-25T14:44:46Z</time>
      </trkpt>
      <trkpt lat="45.75062" lon="5.71987">
        <ele>270.6</ele>
        <time>2022-09-25T14:44:47Z</time>
      </trkpt>
      <trkpt lat="45.75062" lon="5.71992">
        <ele>270.7</ele>
        <time>2022-09-25T14:44:48Z</time>
      </trkpt>
      <trkpt lat="45.75062" lon="5.71996">
        <ele>270.8</ele>
        <time>2022-09-25T14:44:49Z</time>
      </trkpt>
      <trkpt lat="45.75063" lon="5.72001">
        <ele>270.8</ele>
        <time>2022-09-25T14:44:50Z</time>
      </trkpt>
      <trkpt lat="45.75063" lon="5.72006">
        <ele>270.9</ele>
        <time>2022-09-25T14:44:51Z</time>
      </trkpt>
      <trkpt lat="45.75064" lon="5.7201">
        <ele>270.9</ele>
        <time>2022-09-25T14:44:52Z</time>
      </trkpt>
      <trkpt lat="45.75065" lon="5.72016">
        <ele>271</ele>
        <time>2022-09-25T14:44:53Z</time>
      </trkpt>
      <trkpt lat="45.75065" lon="5.72021">
        <ele>271.1</ele>
        <time>2022-09-25T14:44:54Z</time>
      </trkpt>
      <trkpt lat="45.75066" lon="5.72026">
        <ele>271.1</ele>
        <time>2022-09-25T14:44:55Z</time>
      </trkpt>
      <trkpt lat="45.75067" lon="5.72031">
        <ele>271.2</ele>
        <time>2022-09-25T14:44:56Z</time>
      </trkpt>
      <trkpt lat="45.75067" lon="5.72035">
        <ele>271.3</ele>
        <time>2022-09-25T14:44:57Z</time>
      </trkpt>
      <trkpt lat="45.75068" lon="5.72041">
        <ele>271.3</ele>
        <time>2022-09-25T14:44:58Z</time>
      </trkpt>
      <trkpt lat="45.75068" lon="5.72046">
        <ele>271.4</ele>
        <time>2022-09-25T14:44:59Z</time>
      </trkpt>
      <trkpt lat="45.75069" lon="5.72051">
        <ele>271.5</ele>
        <time>2022-09-25T14:45:00Z</time>
      </trkpt>
      <trkpt lat="45.7507" lon="5.72056">
        <ele>271.6</ele>
        <time>2022-09-25T14:45:01Z</time>
      </trkpt>
      <trkpt lat="45.75071" lon="5.72061">
        <ele>271.7</ele>
        <time>2022-09-25T14:45:02Z</time>
      </trkpt>
      <trkpt lat="45.75072" lon="5.72065">
        <ele>271.7</ele>
        <time>2022-09-25T14:45:03Z</time>
      </trkpt>
      <trkpt lat="45.75073" lon="5.7207">
        <ele>271.8</ele>
        <time>2022-09-25T14:45:04Z</time>
      </trkpt>
      <trkpt lat="45.75074" lon="5.72074">
        <ele>271.9</ele>
        <time>2022-09-25T14:45:05Z</time>
      </trkpt>
      <trkpt lat="45.75076" lon="5.72079">
        <ele>272</ele>
        <time>2022-09-25T14:45:06Z</time>
      </trkpt>
      <trkpt lat="45.75077" lon="5.72084">
        <ele>272.1</ele>
        <time>2022-09-25T14:45:07Z</time>
      </trkpt>
      <trkpt lat="45.75079" lon="5.7209">
        <ele>272.1</ele>
        <time>2022-09-25T14:45:08Z</time>
      </trkpt>
      <trkpt lat="45.75079" lon="5.72092">
        <ele>272.2</ele>
        <time>2022-09-25T14:45:09Z</time>
      </trkpt>
      <trkpt lat="45.75081" lon="5.72097">
        <ele>272.3</ele>
        <time>2022-09-25T14:45:10Z</time>
      </trkpt>
      <trkpt lat="45.75081" lon="5.72102">
        <ele>272.3</ele>
        <time>2022-09-25T14:45:11Z</time>
      </trkpt>
      <trkpt lat="45.75083" lon="5.7211">
        <ele>272.5</ele>
        <time>2022-09-25T14:45:12Z</time>
      </trkpt>
      <trkpt lat="45.75085" lon="5.72115">
        <ele>272.5</ele>
        <time>2022-09-25T14:45:13Z</time>
      </trkpt>
      <trkpt lat="45.75086" lon="5.72119">
        <ele>272.6</ele>
        <time>2022-09-25T14:45:14Z</time>
      </trkpt>
      <trkpt lat="45.75087" lon="5.72124">
        <ele>272.7</ele>
        <time>2022-09-25T14:45:15Z</time>
      </trkpt>
      <trkpt lat="45.75089" lon="5.72127">
        <ele>272.7</ele>
        <time>2022-09-25T14:45:16Z</time>
      </trkpt>
      <trkpt lat="45.75091" lon="5.72132">
        <ele>272.8</ele>
        <time>2022-09-25T14:45:17Z</time>
      </trkpt>
      <trkpt lat="45.75093" lon="5.72135">
        <ele>272.9</ele>
        <time>2022-09-25T14:45:18Z</time>
      </trkpt>
      <trkpt lat="45.75095" lon="5.72138">
        <ele>272.9</ele>
        <time>2022-09-25T14:45:19Z</time>
      </trkpt>
      <trkpt lat="45.75097" lon="5.72142">
        <ele>273</ele>
        <time>2022-09-25T14:45:20Z</time>
      </trkpt>
      <trkpt lat="45.75099" lon="5.72145">
        <ele>273.1</ele>
        <time>2022-09-25T14:45:21Z</time>
      </trkpt>
      <trkpt lat="45.75104" lon="5.72148">
        <ele>273.2</ele>
        <time>2022-09-25T14:45:22Z</time>
      </trkpt>
      <trkpt lat="45.75107" lon="5.72151">
        <ele>273.3</ele>
        <time>2022-09-25T14:45:23Z</time>
      </trkpt>
      <trkpt lat="45.7511" lon="5.72154">
        <ele>273.3</ele>
        <time>2022-09-25T14:45:24Z</time>
      </trkpt>
      <trkpt lat="45.75114" lon="5.72157">
        <ele>273.4</ele>
        <time>2022-09-25T14:45:25Z</time>
      </trkpt>
      <trkpt lat="45.75118" lon="5.72159">
        <ele>273.5</ele>
        <time>2022-09-25T14:45:26Z</time>
      </trkpt>
      <trkpt lat="45.75121" lon="5.72162">
        <ele>273.6</ele>
        <time>2022-09-25T14:45:27Z</time>
      </trkpt>
      <trkpt lat="45.75123" lon="5.72165">
        <ele>273.7</ele>
        <time>2022-09-25T14:45:28Z</time>
      </trkpt>
      <trkpt lat="45.75125" lon="5.72166">
        <ele>273.8</ele>
        <time>2022-09-25T14:45:29Z</time>
      </trkpt>
      <trkpt lat="45.7513" lon="5.72168">
        <ele>273.9</ele>
        <time>2022-09-25T14:45:30Z</time>
      </trkpt>
      <trkpt lat="45.75134" lon="5.7217">
        <ele>274</ele>
        <time>2022-09-25T14:45:31Z</time>
      </trkpt>
      <trkpt lat="45.75136" lon="5.72174">
        <ele>274.1</ele>
        <time>2022-09-25T14:45:32Z</time>
      </trkpt>
      <trkpt lat="45.75137" lon="5.72175">
        <ele>274.2</ele>
        <time>2022-09-25T14:45:33Z</time>
      </trkpt>
      <trkpt lat="45.75141" lon="5.72178">
        <ele>274.3</ele>
        <time>2022-09-25T14:45:34Z</time>
      </trkpt>
      <trkpt lat="45.75145" lon="5.72181">
        <ele>274.4</ele>
        <time>2022-09-25T14:45:35Z</time>
      </trkpt>
      <trkpt lat="45.75149" lon="5.72182">
        <ele>274.5</ele>
        <time>2022-09-25T14:45:36Z</time>
      </trkpt>
      <trkpt lat="45.75151" lon="5.72186">
        <ele>274.7</ele>
        <time>2022-09-25T14:45:37Z</time>
      </trkpt>
      <trkpt lat="45.75153" lon="5.72187">
        <ele>274.7</ele>
        <time>2022-09-25T14:45:38Z</time>
      </trkpt>
      <trkpt lat="45.75156" lon="5.72189">
        <ele>274.8</ele>
        <time>2022-09-25T14:45:39Z</time>
      </trkpt>
      <trkpt lat="45.7516" lon="5.72192">
        <ele>275</ele>
        <time>2022-09-25T14:45:40Z</time>
      </trkpt>
      <trkpt lat="45.75164" lon="5.72194">
        <ele>275.2</ele>
        <time>2022-09-25T14:45:41Z</time>
      </trkpt>
      <trkpt lat="45.75167" lon="5.72197">
        <ele>275.3</ele>
        <time>2022-09-25T14:45:42Z</time>
      </trkpt>
      <trkpt lat="45.75169" lon="5.722">
        <ele>275.5</ele>
        <time>2022-09-25T14:45:43Z</time>
      </trkpt>
      <trkpt lat="45.75172" lon="5.72203">
        <ele>275.7</ele>
        <time>2022-09-25T14:45:44Z</time>
      </trkpt>
      <trkpt lat="45.75174" lon="5.72205">
        <ele>275.9</ele>
        <time>2022-09-25T14:45:45Z</time>
      </trkpt>
      <trkpt lat="45.75176" lon="5.7221">
        <ele>276.1</ele>
        <time>2022-09-25T14:45:46Z</time>
      </trkpt>
      <trkpt lat="45.75176" lon="5.72211">
        <ele>276.2</ele>
        <time>2022-09-25T14:45:47Z</time>
      </trkpt>
      <trkpt lat="45.75175" lon="5.72213">
        <ele>276.3</ele>
        <time>2022-09-25T14:45:48Z</time>
      </trkpt>
      <trkpt lat="45.75174" lon="5.72214">
        <ele>276.4</ele>
        <time>2022-09-25T14:45:49Z</time>
      </trkpt>
      <trkpt lat="45.75174" lon="5.72214">
        <ele>276.4</ele>
        <time>2022-09-25T14:45:50Z</time>
      </trkpt>
      <trkpt lat="45.75173" lon="5.72218">
        <ele>276.7</ele>
        <time>2022-09-25T14:45:51Z</time>
      </trkpt>
      <trkpt lat="45.75172" lon="5.72219">
        <ele>276.8</ele>
        <time>2022-09-25T14:45:52Z</time>
      </trkpt>
      <trkpt lat="45.7517" lon="5.72222">
        <ele>277</ele>
        <time>2022-09-25T14:45:53Z</time>
      </trkpt>
      <trkpt lat="45.75168" lon="5.72222">
        <ele>277.2</ele>
        <time>2022-09-25T14:45:54Z</time>
      </trkpt>
      <trkpt lat="45.75165" lon="5.72223">
        <ele>277.5</ele>
        <time>2022-09-25T14:45:55Z</time>
      </trkpt>
      <trkpt lat="45.75164" lon="5.72224">
        <ele>277.6</ele>
        <time>2022-09-25T14:45:56Z</time>
      </trkpt>
      <trkpt lat="45.75163" lon="5.72223">
        <ele>277.7</ele>
        <time>2022-09-25T14:45:57Z</time>
      </trkpt>
      <trkpt lat="45.75161" lon="5.72225">
        <ele>277.9</ele>
        <time>2022-09-25T14:45:58Z</time>
      </trkpt>
      <trkpt lat="45.75159" lon="5.72225">
        <ele>278.1</ele>
        <time>2022-09-25T14:45:59Z</time>
      </trkpt>
      <trkpt lat="45.75158" lon="5.72226">
        <ele>278.2</ele>
        <time>2022-09-25T14:46:00Z</time>
      </trkpt>
      <trkpt lat="45.75155" lon="5.72226">
        <ele>278.5</ele>
        <time>2022-09-25T14:46:01Z</time>
      </trkpt>
      <trkpt lat="45.75154" lon="5.72227">
        <ele>278.6</ele>
        <time>2022-09-25T14:46:02Z</time>
      </trkpt>
      <trkpt lat="45.75152" lon="5.72227">
        <ele>278.8</ele>
        <time>2022-09-25T14:46:03Z</time>
      </trkpt>
      <trkpt lat="45.75151" lon="5.72227">
        <ele>278.9</ele>
        <time>2022-09-25T14:46:04Z</time>
      </trkpt>
      <trkpt lat="45.7515" lon="5.72227">
        <ele>279</ele>
        <time>2022-09-25T14:46:05Z</time>
      </trkpt>
      <trkpt lat="45.75148" lon="5.72228">
        <ele>279.2</ele>
        <time>2022-09-25T14:46:06Z</time>
      </trkpt>
      <trkpt lat="45.75147" lon="5.72228">
        <ele>279.3</ele>
        <time>2022-09-25T14:46:07Z</time>
      </trkpt>
      <trkpt lat="45.75144" lon="5.72228">
        <ele>279.6</ele>
        <time>2022-09-25T14:46:08Z</time>
      </trkpt>
      <trkpt lat="45.75142" lon="5.72229">
        <ele>279.8</ele>
        <time>2022-09-25T14:46:09Z</time>
      </trkpt>
      <trkpt lat="45.75138" lon="5.7223">
        <ele>280.2</ele>
        <time>2022-09-25T14:46:10Z</time>
      </trkpt>
      <trkpt lat="45.75137" lon="5.72231">
        <ele>280.3</ele>
        <time>2022-09-25T14:46:11Z</time>
      </trkpt>
      <trkpt lat="45.75136" lon="5.72231">
        <ele>280.4</ele>
        <time>2022-09-25T14:46:12Z</time>
      </trkpt>
      <trkpt lat="45.75134" lon="5.72233">
        <ele>280.6</ele>
        <time>2022-09-25T14:46:13Z</time>
      </trkpt>
      <trkpt lat="45.75133" lon="5.72234">
        <ele>280.8</ele>
        <time>2022-09-25T14:46:14Z</time>
      </trkpt>
      <trkpt lat="45.75131" lon="5.72235">
        <ele>280.9</ele>
        <time>2022-09-25T14:46:15Z</time>
      </trkpt>
      <trkpt lat="45.7513" lon="5.72235">
        <ele>281.1</ele>
        <time>2022-09-25T14:46:16Z</time>
      </trkpt>
      <trkpt lat="45.75129" lon="5.72236">
        <ele>281.2</ele>
        <time>2022-09-25T14:46:17Z</time>
      </trkpt>
      <trkpt lat="45.75127" lon="5.72236">
        <ele>281.4</ele>
        <time>2022-09-25T14:46:18Z</time>
      </trkpt>
      <trkpt lat="45.75125" lon="5.72236">
        <ele>281.6</ele>
        <time>2022-09-25T14:46:19Z</time>
      </trkpt>
      <trkpt lat="45.75124" lon="5.72236">
        <ele>281.7</ele>
        <time>2022-09-25T14:46:20Z</time>
      </trkpt>
      <trkpt lat="45.75121" lon="5.72238">
        <ele>282</ele>
        <time>2022-09-25T14:46:21Z</time>
      </trkpt>
      <trkpt lat="45.7512" lon="5.72238">
        <ele>282.1</ele>
        <time>2022-09-25T14:46:22Z</time>
      </trkpt>
      <trkpt lat="45.75119" lon="5.7224">
        <ele>282.2</ele>
        <time>2022-09-25T14:46:23Z</time>
      </trkpt>
      <trkpt lat="45.75117" lon="5.7224">
        <ele>282.4</ele>
        <time>2022-09-25T14:46:24Z</time>
      </trkpt>
      <trkpt lat="45.75115" lon="5.72242">
        <ele>282.7</ele>
        <time>2022-09-25T14:46:25Z</time>
      </trkpt>
      <trkpt lat="45.75114" lon="5.72243">
        <ele>282.8</ele>
        <time>2022-09-25T14:46:26Z</time>
      </trkpt>
      <trkpt lat="45.75111" lon="5.72243">
        <ele>283</ele>
        <time>2022-09-25T14:46:27Z</time>
      </trkpt>
      <trkpt lat="45.7511" lon="5.72243">
        <ele>283.1</ele>
        <time>2022-09-25T14:46:28Z</time>
      </trkpt>
      <trkpt lat="45.75108" lon="5.72244">
        <ele>283.3</ele>
        <time>2022-09-25T14:46:29Z</time>
      </trkpt>
      <trkpt lat="45.75106" lon="5.72245">
        <ele>283.4</ele>
        <time>2022-09-25T14:46:30Z</time>
      </trkpt>
      <trkpt lat="45.75105" lon="5.72246">
        <ele>283.6</ele>
        <time>2022-09-25T14:46:31Z</time>
      </trkpt>
      <trkpt lat="45.75103" lon="5.72245">
        <ele>283.7</ele>
        <time>2022-09-25T14:46:32Z</time>
      </trkpt>
      <trkpt lat="45.751" lon="5.72246">
        <ele>284</ele>
        <time>2022-09-25T14:46:33Z</time>
      </trkpt>
      <trkpt lat="45.75098" lon="5.72247">
        <ele>284.1</ele>
        <time>2022-09-25T14:46:34Z</time>
      </trkpt>
      <trkpt lat="45.75095" lon="5.72247">
        <ele>284.4</ele>
        <time>2022-09-25T14:46:35Z</time>
      </trkpt>
      <trkpt lat="45.75094" lon="5.72247">
        <ele>284.4</ele>
        <time>2022-09-25T14:46:36Z</time>
      </trkpt>
      <trkpt lat="45.75092" lon="5.72248">
        <ele>284.6</ele>
        <time>2022-09-25T14:46:37Z</time>
      </trkpt>
      <trkpt lat="45.75091" lon="5.72249">
        <ele>284.7</ele>
        <time>2022-09-25T14:46:38Z</time>
      </trkpt>
      <trkpt lat="45.75088" lon="5.72249">
        <ele>284.9</ele>
        <time>2022-09-25T14:46:39Z</time>
      </trkpt>
      <trkpt lat="45.75087" lon="5.72249">
        <ele>285</ele>
        <time>2022-09-25T14:46:40Z</time>
      </trkpt>
      <trkpt lat="45.75086" lon="5.72251">
        <ele>285.1</ele>
        <time>2022-09-25T14:46:41Z</time>
      </trkpt>
      <trkpt lat="45.75084" lon="5.72251">
        <ele>285.3</ele>
        <time>2022-09-25T14:46:42Z</time>
      </trkpt>
      <trkpt lat="45.75082" lon="5.72252">
        <ele>285.4</ele>
        <time>2022-09-25T14:46:43Z</time>
      </trkpt>
      <trkpt lat="45.75081" lon="5.72251">
        <ele>285.6</ele>
        <time>2022-09-25T14:46:44Z</time>
      </trkpt>
      <trkpt lat="45.75079" lon="5.72252">
        <ele>285.7</ele>
        <time>2022-09-25T14:46:45Z</time>
      </trkpt>
      <trkpt lat="45.75077" lon="5.72251">
        <ele>285.9</ele>
        <time>2022-09-25T14:46:46Z</time>
      </trkpt>
      <trkpt lat="45.75075" lon="5.72252">
        <ele>286.1</ele>
        <time>2022-09-25T14:46:47Z</time>
      </trkpt>
      <trkpt lat="45.75073" lon="5.72253">
        <ele>286.2</ele>
        <time>2022-09-25T14:46:49Z</time>
      </trkpt>
      <trkpt lat="45.7507" lon="5.72253">
        <ele>286.4</ele>
        <time>2022-09-25T14:46:50Z</time>
      </trkpt>
      <trkpt lat="45.7507" lon="5.72253">
        <ele>286.5</ele>
        <time>2022-09-25T14:46:51Z</time>
      </trkpt>
      <trkpt lat="45.75068" lon="5.72253">
        <ele>286.6</ele>
        <time>2022-09-25T14:46:52Z</time>
      </trkpt>
      <trkpt lat="45.75066" lon="5.72254">
        <ele>286.8</ele>
        <time>2022-09-25T14:46:53Z</time>
      </trkpt>
      <trkpt lat="45.75064" lon="5.72254">
        <ele>286.9</ele>
        <time>2022-09-25T14:46:54Z</time>
      </trkpt>
      <trkpt lat="45.75063" lon="5.72254">
        <ele>287</ele>
        <time>2022-09-25T14:46:55Z</time>
      </trkpt>
      <trkpt lat="45.7506" lon="5.72254">
        <ele>287.2</ele>
        <time>2022-09-25T14:46:56Z</time>
      </trkpt>
      <trkpt lat="45.75059" lon="5.72254">
        <ele>287.3</ele>
        <time>2022-09-25T14:46:57Z</time>
      </trkpt>
      <trkpt lat="45.75057" lon="5.72253">
        <ele>287.4</ele>
        <time>2022-09-25T14:46:58Z</time>
      </trkpt>
      <trkpt lat="45.75055" lon="5.72254">
        <ele>287.6</ele>
        <time>2022-09-25T14:46:59Z</time>
      </trkpt>
      <trkpt lat="45.75054" lon="5.72254">
        <ele>287.7</ele>
        <time>2022-09-25T14:47:00Z</time>
      </trkpt>
      <trkpt lat="45.75053" lon="5.72253">
        <ele>287.8</ele>
        <time>2022-09-25T14:47:01Z</time>
      </trkpt>
      <trkpt lat="45.75051" lon="5.72254">
        <ele>287.9</ele>
        <time>2022-09-25T14:47:02Z</time>
      </trkpt>
      <trkpt lat="45.75049" lon="5.72254">
        <ele>288</ele>
        <time>2022-09-25T14:47:03Z</time>
      </trkpt>
      <trkpt lat="45.75048" lon="5.72254">
        <ele>288.1</ele>
        <time>2022-09-25T14:47:04Z</time>
      </trkpt>
      <trkpt lat="45.75046" lon="5.72255">
        <ele>288.2</ele>
        <time>2022-09-25T14:47:05Z</time>
      </trkpt>
      <trkpt lat="45.75043" lon="5.72254">
        <ele>288.5</ele>
        <time>2022-09-25T14:47:06Z</time>
      </trkpt>
      <trkpt lat="45.75042" lon="5.72254">
        <ele>288.5</ele>
        <time>2022-09-25T14:47:07Z</time>
      </trkpt>
      <trkpt lat="45.75042" lon="5.72255">
        <ele>288.6</ele>
        <time>2022-09-25T14:47:08Z</time>
      </trkpt>
      <trkpt lat="45.75039" lon="5.72256">
        <ele>288.8</ele>
        <time>2022-09-25T14:47:09Z</time>
      </trkpt>
      <trkpt lat="45.75036" lon="5.72255">
        <ele>289</ele>
        <time>2022-09-25T14:47:10Z</time>
      </trkpt>
      <trkpt lat="45.75034" lon="5.72256">
        <ele>289.2</ele>
        <time>2022-09-25T14:47:11Z</time>
      </trkpt>
      <trkpt lat="45.75031" lon="5.72257">
        <ele>289.4</ele>
        <time>2022-09-25T14:47:12Z</time>
      </trkpt>
      <trkpt lat="45.7503" lon="5.72257">
        <ele>289.5</ele>
        <time>2022-09-25T14:47:13Z</time>
      </trkpt>
      <trkpt lat="45.75029" lon="5.72256">
        <ele>289.6</ele>
        <time>2022-09-25T14:47:14Z</time>
      </trkpt>
      <trkpt lat="45.75027" lon="5.72257">
        <ele>289.8</ele>
        <time>2022-09-25T14:47:15Z</time>
      </trkpt>
      <trkpt lat="45.75024" lon="5.72257">
        <ele>290</ele>
        <time>2022-09-25T14:47:16Z</time>
      </trkpt>
      <trkpt lat="45.75023" lon="5.72258">
        <ele>290.1</ele>
        <time>2022-09-25T14:47:17Z</time>
      </trkpt>
      <trkpt lat="45.7502" lon="5.72258">
        <ele>290.3</ele>
        <time>2022-09-25T14:47:18Z</time>
      </trkpt>
      <trkpt lat="45.75019" lon="5.72259">
        <ele>290.4</ele>
        <time>2022-09-25T14:47:19Z</time>
      </trkpt>
      <trkpt lat="45.75017" lon="5.72259">
        <ele>290.6</ele>
        <time>2022-09-25T14:47:20Z</time>
      </trkpt>
      <trkpt lat="45.75016" lon="5.72259">
        <ele>290.6</ele>
        <time>2022-09-25T14:47:21Z</time>
      </trkpt>
      <trkpt lat="45.75015" lon="5.72259">
        <ele>290.7</ele>
        <time>2022-09-25T14:47:22Z</time>
      </trkpt>
      <trkpt lat="45.75012" lon="5.7226">
        <ele>291</ele>
        <time>2022-09-25T14:47:23Z</time>
      </trkpt>
      <trkpt lat="45.75011" lon="5.7226">
        <ele>291</ele>
        <time>2022-09-25T14:47:24Z</time>
      </trkpt>
      <trkpt lat="45.7501" lon="5.7226">
        <ele>291.1</ele>
        <time>2022-09-25T14:47:25Z</time>
      </trkpt>
      <trkpt lat="45.75008" lon="5.72261">
        <ele>291.3</ele>
        <time>2022-09-25T14:47:26Z</time>
      </trkpt>
      <trkpt lat="45.75006" lon="5.72261">
        <ele>291.4</ele>
        <time>2022-09-25T14:47:27Z</time>
      </trkpt>
      <trkpt lat="45.75004" lon="5.72262">
        <ele>291.6</ele>
        <time>2022-09-25T14:47:28Z</time>
      </trkpt>
      <trkpt lat="45.75003" lon="5.72261">
        <ele>291.7</ele>
        <time>2022-09-25T14:47:29Z</time>
      </trkpt>
      <trkpt lat="45.75001" lon="5.72261">
        <ele>291.8</ele>
        <time>2022-09-25T14:47:30Z</time>
      </trkpt>
      <trkpt lat="45.74998" lon="5.72262">
        <ele>292.1</ele>
        <time>2022-09-25T14:47:31Z</time>
      </trkpt>
      <trkpt lat="45.74996" lon="5.72261">
        <ele>292.2</ele>
        <time>2022-09-25T14:47:32Z</time>
      </trkpt>
      <trkpt lat="45.74995" lon="5.72261">
        <ele>292.3</ele>
        <time>2022-09-25T14:47:33Z</time>
      </trkpt>
      <trkpt lat="45.74993" lon="5.72262">
        <ele>292.5</ele>
        <time>2022-09-25T14:47:34Z</time>
      </trkpt>
      <trkpt lat="45.7499" lon="5.72262">
        <ele>292.7</ele>
        <time>2022-09-25T14:47:35Z</time>
      </trkpt>
      <trkpt lat="45.74989" lon="5.72261">
        <ele>292.8</ele>
        <time>2022-09-25T14:47:36Z</time>
      </trkpt>
      <trkpt lat="45.74988" lon="5.72262">
        <ele>292.9</ele>
        <time>2022-09-25T14:47:37Z</time>
      </trkpt>
      <trkpt lat="45.74987" lon="5.72262">
        <ele>293</ele>
        <time>2022-09-25T14:47:38Z</time>
      </trkpt>
      <trkpt lat="45.74983" lon="5.72262">
        <ele>293.2</ele>
        <time>2022-09-25T14:47:39Z</time>
      </trkpt>
      <trkpt lat="45.74983" lon="5.72262">
        <ele>293.3</ele>
        <time>2022-09-25T14:47:40Z</time>
      </trkpt>
      <trkpt lat="45.7498" lon="5.72261">
        <ele>293.5</ele>
        <time>2022-09-25T14:47:41Z</time>
      </trkpt>
      <trkpt lat="45.74979" lon="5.72261">
        <ele>293.6</ele>
        <time>2022-09-25T14:47:42Z</time>
      </trkpt>
      <trkpt lat="45.74977" lon="5.7226">
        <ele>293.7</ele>
        <time>2022-09-25T14:47:43Z</time>
      </trkpt>
      <trkpt lat="45.74975" lon="5.7226">
        <ele>293.8</ele>
        <time>2022-09-25T14:47:44Z</time>
      </trkpt>
      <trkpt lat="45.74974" lon="5.72259">
        <ele>293.9</ele>
        <time>2022-09-25T14:47:45Z</time>
      </trkpt>
      <trkpt lat="45.74972" lon="5.72259">
        <ele>294.1</ele>
        <time>2022-09-25T14:47:46Z</time>
      </trkpt>
      <trkpt lat="45.74969" lon="5.72258">
        <ele>294.3</ele>
        <time>2022-09-25T14:47:47Z</time>
      </trkpt>
      <trkpt lat="45.74968" lon="5.72259">
        <ele>294.4</ele>
        <time>2022-09-25T14:47:48Z</time>
      </trkpt>
      <trkpt lat="45.74967" lon="5.72257">
        <ele>294.5</ele>
        <time>2022-09-25T14:47:49Z</time>
      </trkpt>
      <trkpt lat="45.74965" lon="5.72258">
        <ele>294.6</ele>
        <time>2022-09-25T14:47:50Z</time>
      </trkpt>
      <trkpt lat="45.74964" lon="5.72258">
        <ele>294.7</ele>
        <time>2022-09-25T14:47:51Z</time>
      </trkpt>
      <trkpt lat="45.74962" lon="5.72257">
        <ele>294.8</ele>
        <time>2022-09-25T14:47:52Z</time>
      </trkpt>
      <trkpt lat="45.74962" lon="5.72257">
        <ele>294.9</ele>
        <time>2022-09-25T14:47:53Z</time>
      </trkpt>
      <trkpt lat="45.74959" lon="5.72256">
        <ele>295</ele>
        <time>2022-09-25T14:47:54Z</time>
      </trkpt>
      <trkpt lat="45.74957" lon="5.72255">
        <ele>295.2</ele>
        <time>2022-09-25T14:47:55Z</time>
      </trkpt>
      <trkpt lat="45.74956" lon="5.72255">
        <ele>295.3</ele>
        <time>2022-09-25T14:47:56Z</time>
      </trkpt>
      <trkpt lat="45.74955" lon="5.72255">
        <ele>295.3</ele>
        <time>2022-09-25T14:47:57Z</time>
      </trkpt>
      <trkpt lat="45.74953" lon="5.72254">
        <ele>295.5</ele>
        <time>2022-09-25T14:47:58Z</time>
      </trkpt>
      <trkpt lat="45.74952" lon="5.72253">
        <ele>295.6</ele>
        <time>2022-09-25T14:47:59Z</time>
      </trkpt>
      <trkpt lat="45.74949" lon="5.72252">
        <ele>295.8</ele>
        <time>2022-09-25T14:48:00Z</time>
      </trkpt>
      <trkpt lat="45.74948" lon="5.72251">
        <ele>295.8</ele>
        <time>2022-09-25T14:48:01Z</time>
      </trkpt>
      <trkpt lat="45.74946" lon="5.7225">
        <ele>296</ele>
        <time>2022-09-25T14:48:02Z</time>
      </trkpt>
      <trkpt lat="45.74945" lon="5.7225">
        <ele>296.1</ele>
        <time>2022-09-25T14:48:03Z</time>
      </trkpt>
      <trkpt lat="45.74944" lon="5.7225">
        <ele>296.1</ele>
        <time>2022-09-25T14:48:04Z</time>
      </trkpt>
      <trkpt lat="45.74942" lon="5.72249">
        <ele>296.3</ele>
        <time>2022-09-25T14:48:05Z</time>
      </trkpt>
      <trkpt lat="45.74941" lon="5.72249">
        <ele>296.4</ele>
        <time>2022-09-25T14:48:06Z</time>
      </trkpt>
      <trkpt lat="45.7494" lon="5.72249">
        <ele>296.4</ele>
        <time>2022-09-25T14:48:07Z</time>
      </trkpt>
      <trkpt lat="45.74938" lon="5.72248">
        <ele>296.6</ele>
        <time>2022-09-25T14:48:08Z</time>
      </trkpt>
      <trkpt lat="45.74937" lon="5.72248">
        <ele>296.7</ele>
        <time>2022-09-25T14:48:09Z</time>
      </trkpt>
      <trkpt lat="45.74935" lon="5.72247">
        <ele>296.8</ele>
        <time>2022-09-25T14:48:10Z</time>
      </trkpt>
      <trkpt lat="45.74934" lon="5.72247">
        <ele>296.9</ele>
        <time>2022-09-25T14:48:11Z</time>
      </trkpt>
      <trkpt lat="45.74932" lon="5.72247">
        <ele>297</ele>
        <time>2022-09-25T14:48:12Z</time>
      </trkpt>
      <trkpt lat="45.74931" lon="5.72247">
        <ele>297.1</ele>
        <time>2022-09-25T14:48:13Z</time>
      </trkpt>
      <trkpt lat="45.74929" lon="5.72246">
        <ele>297.3</ele>
        <time>2022-09-25T14:48:14Z</time>
      </trkpt>
      <trkpt lat="45.74928" lon="5.72246">
        <ele>297.4</ele>
        <time>2022-09-25T14:48:15Z</time>
      </trkpt>
      <trkpt lat="45.74927" lon="5.72246">
        <ele>297.4</ele>
        <time>2022-09-25T14:48:16Z</time>
      </trkpt>
      <trkpt lat="45.74924" lon="5.72245">
        <ele>297.7</ele>
        <time>2022-09-25T14:48:17Z</time>
      </trkpt>
      <trkpt lat="45.74923" lon="5.72245">
        <ele>297.7</ele>
        <time>2022-09-25T14:48:18Z</time>
      </trkpt>
      <trkpt lat="45.74921" lon="5.72244">
        <ele>297.9</ele>
        <time>2022-09-25T14:48:19Z</time>
      </trkpt>
      <trkpt lat="45.7492" lon="5.72244">
        <ele>298</ele>
        <time>2022-09-25T14:48:20Z</time>
      </trkpt>
      <trkpt lat="45.74918" lon="5.72244">
        <ele>298.1</ele>
        <time>2022-09-25T14:48:21Z</time>
      </trkpt>
      <trkpt lat="45.74917" lon="5.72244">
        <ele>298.2</ele>
        <time>2022-09-25T14:48:22Z</time>
      </trkpt>
      <trkpt lat="45.74915" lon="5.72243">
        <ele>298.3</ele>
        <time>2022-09-25T14:48:23Z</time>
      </trkpt>
      <trkpt lat="45.74913" lon="5.72243">
        <ele>298.4</ele>
        <time>2022-09-25T14:48:24Z</time>
      </trkpt>
      <trkpt lat="45.74912" lon="5.72243">
        <ele>298.6</ele>
        <time>2022-09-25T14:48:25Z</time>
      </trkpt>
      <trkpt lat="45.7491" lon="5.72243">
        <ele>298.7</ele>
        <time>2022-09-25T14:48:26Z</time>
      </trkpt>
      <trkpt lat="45.74909" lon="5.72243">
        <ele>298.8</ele>
        <time>2022-09-25T14:48:27Z</time>
      </trkpt>
      <trkpt lat="45.74907" lon="5.72243">
        <ele>298.9</ele>
        <time>2022-09-25T14:48:28Z</time>
      </trkpt>
      <trkpt lat="45.74906" lon="5.72243">
        <ele>299</ele>
        <time>2022-09-25T14:48:29Z</time>
      </trkpt>
      <trkpt lat="45.74904" lon="5.72242">
        <ele>299.1</ele>
        <time>2022-09-25T14:48:30Z</time>
      </trkpt>
      <trkpt lat="45.74903" lon="5.72243">
        <ele>299.2</ele>
        <time>2022-09-25T14:48:31Z</time>
      </trkpt>
      <trkpt lat="45.74902" lon="5.72242">
        <ele>299.4</ele>
        <time>2022-09-25T14:48:32Z</time>
      </trkpt>
      <trkpt lat="45.749" lon="5.72241">
        <ele>299.5</ele>
        <time>2022-09-25T14:48:33Z</time>
      </trkpt>
      <trkpt lat="45.74899" lon="5.72242">
        <ele>299.6</ele>
        <time>2022-09-25T14:48:34Z</time>
      </trkpt>
      <trkpt lat="45.74897" lon="5.72241">
        <ele>299.7</ele>
        <time>2022-09-25T14:48:35Z</time>
      </trkpt>
      <trkpt lat="45.74896" lon="5.72241">
        <ele>299.8</ele>
        <time>2022-09-25T14:48:36Z</time>
      </trkpt>
      <trkpt lat="45.74895" lon="5.72241">
        <ele>299.9</ele>
        <time>2022-09-25T14:48:37Z</time>
      </trkpt>
      <trkpt lat="45.74892" lon="5.72239">
        <ele>300.1</ele>
        <time>2022-09-25T14:48:38Z</time>
      </trkpt>
      <trkpt lat="45.74891" lon="5.72239">
        <ele>300.2</ele>
        <time>2022-09-25T14:48:39Z</time>
      </trkpt>
      <trkpt lat="45.74889" lon="5.72239">
        <ele>300.3</ele>
        <time>2022-09-25T14:48:40Z</time>
      </trkpt>
      <trkpt lat="45.74888" lon="5.72238">
        <ele>300.4</ele>
        <time>2022-09-25T14:48:41Z</time>
      </trkpt>
      <trkpt lat="45.74887" lon="5.72238">
        <ele>300.5</ele>
        <time>2022-09-25T14:48:42Z</time>
      </trkpt>
      <trkpt lat="45.74886" lon="5.72238">
        <ele>300.6</ele>
        <time>2022-09-25T14:48:43Z</time>
      </trkpt>
      <trkpt lat="45.74884" lon="5.72238">
        <ele>300.8</ele>
        <time>2022-09-25T14:48:44Z</time>
      </trkpt>
      <trkpt lat="45.74881" lon="5.72237">
        <ele>301</ele>
        <time>2022-09-25T14:48:45Z</time>
      </trkpt>
      <trkpt lat="45.74879" lon="5.72237">
        <ele>301.1</ele>
        <time>2022-09-25T14:48:46Z</time>
      </trkpt>
      <trkpt lat="45.74877" lon="5.72237">
        <ele>301.3</ele>
        <time>2022-09-25T14:48:47Z</time>
      </trkpt>
      <trkpt lat="45.74876" lon="5.72236">
        <ele>301.4</ele>
        <time>2022-09-25T14:48:48Z</time>
      </trkpt>
      <trkpt lat="45.74874" lon="5.72236">
        <ele>301.5</ele>
        <time>2022-09-25T14:48:49Z</time>
      </trkpt>
      <trkpt lat="45.74873" lon="5.72235">
        <ele>301.6</ele>
        <time>2022-09-25T14:48:50Z</time>
      </trkpt>
      <trkpt lat="45.74871" lon="5.72235">
        <ele>301.8</ele>
        <time>2022-09-25T14:48:51Z</time>
      </trkpt>
      <trkpt lat="45.7487" lon="5.72235">
        <ele>301.9</ele>
        <time>2022-09-25T14:48:52Z</time>
      </trkpt>
      <trkpt lat="45.74869" lon="5.72235">
        <ele>301.9</ele>
        <time>2022-09-25T14:48:53Z</time>
      </trkpt>
      <trkpt lat="45.74867" lon="5.72235">
        <ele>302.1</ele>
        <time>2022-09-25T14:48:55Z</time>
      </trkpt>
      <trkpt lat="45.74866" lon="5.72234">
        <ele>302.1</ele>
        <time>2022-09-25T14:48:56Z</time>
      </trkpt>
      <trkpt lat="45.74864" lon="5.72234">
        <ele>302.3</ele>
        <time>2022-09-25T14:48:57Z</time>
      </trkpt>
      <trkpt lat="45.74863" lon="5.72234">
        <ele>302.3</ele>
        <time>2022-09-25T14:48:58Z</time>
      </trkpt>
      <trkpt lat="45.7486" lon="5.72233">
        <ele>302.6</ele>
        <time>2022-09-25T14:48:59Z</time>
      </trkpt>
      <trkpt lat="45.74859" lon="5.72233">
        <ele>302.6</ele>
        <time>2022-09-25T14:49:00Z</time>
      </trkpt>
      <trkpt lat="45.74858" lon="5.72233">
        <ele>302.8</ele>
        <time>2022-09-25T14:49:01Z</time>
      </trkpt>
      <trkpt lat="45.74856" lon="5.72232">
        <ele>302.9</ele>
        <time>2022-09-25T14:49:02Z</time>
      </trkpt>
      <trkpt lat="45.74855" lon="5.72231">
        <ele>303</ele>
        <time>2022-09-25T14:49:03Z</time>
      </trkpt>
      <trkpt lat="45.74853" lon="5.72231">
        <ele>303.1</ele>
        <time>2022-09-25T14:49:04Z</time>
      </trkpt>
      <trkpt lat="45.74851" lon="5.72231">
        <ele>303.2</ele>
        <time>2022-09-25T14:49:05Z</time>
      </trkpt>
      <trkpt lat="45.7485" lon="5.72231">
        <ele>303.4</ele>
        <time>2022-09-25T14:49:06Z</time>
      </trkpt>
      <trkpt lat="45.74848" lon="5.7223">
        <ele>303.5</ele>
        <time>2022-09-25T14:49:07Z</time>
      </trkpt>
      <trkpt lat="45.74846" lon="5.72231">
        <ele>303.6</ele>
        <time>2022-09-25T14:49:08Z</time>
      </trkpt>
      <trkpt lat="45.74845" lon="5.72231">
        <ele>303.7</ele>
        <time>2022-09-25T14:49:09Z</time>
      </trkpt>
      <trkpt lat="45.74843" lon="5.72231">
        <ele>303.9</ele>
        <time>2022-09-25T14:49:10Z</time>
      </trkpt>
      <trkpt lat="45.74842" lon="5.72231">
        <ele>304</ele>
        <time>2022-09-25T14:49:11Z</time>
      </trkpt>
      <trkpt lat="45.7484" lon="5.72232">
        <ele>304.1</ele>
        <time>2022-09-25T14:49:12Z</time>
      </trkpt>
      <trkpt lat="45.74838" lon="5.72233">
        <ele>304.2</ele>
        <time>2022-09-25T14:49:13Z</time>
      </trkpt>
      <trkpt lat="45.74837" lon="5.72234">
        <ele>304.3</ele>
        <time>2022-09-25T14:49:14Z</time>
      </trkpt>
      <trkpt lat="45.74836" lon="5.72235">
        <ele>304.4</ele>
        <time>2022-09-25T14:49:15Z</time>
      </trkpt>
      <trkpt lat="45.74835" lon="5.72237">
        <ele>304.6</ele>
        <time>2022-09-25T14:49:16Z</time>
      </trkpt>
      <trkpt lat="45.74834" lon="5.72239">
        <ele>304.7</ele>
        <time>2022-09-25T14:49:17Z</time>
      </trkpt>
      <trkpt lat="45.74833" lon="5.72241">
        <ele>304.8</ele>
        <time>2022-09-25T14:49:18Z</time>
      </trkpt>
      <trkpt lat="45.74833" lon="5.72242">
        <ele>304.9</ele>
        <time>2022-09-25T14:49:19Z</time>
      </trkpt>
      <trkpt lat="45.74833" lon="5.72244">
        <ele>305</ele>
        <time>2022-09-25T14:49:20Z</time>
      </trkpt>
      <trkpt lat="45.74832" lon="5.72247">
        <ele>305.1</ele>
        <time>2022-09-25T14:49:21Z</time>
      </trkpt>
      <trkpt lat="45.74832" lon="5.72249">
        <ele>305.2</ele>
        <time>2022-09-25T14:49:22Z</time>
      </trkpt>
      <trkpt lat="45.74832" lon="5.72251">
        <ele>305.3</ele>
        <time>2022-09-25T14:49:23Z</time>
      </trkpt>
      <trkpt lat="45.74832" lon="5.72255">
        <ele>305.4</ele>
        <time>2022-09-25T14:49:24Z</time>
      </trkpt>
      <trkpt lat="45.74832" lon="5.72257">
        <ele>305.5</ele>
        <time>2022-09-25T14:49:25Z</time>
      </trkpt>
      <trkpt lat="45.74833" lon="5.72262">
        <ele>305.7</ele>
        <time>2022-09-25T14:49:26Z</time>
      </trkpt>
      <trkpt lat="45.74833" lon="5.72263">
        <ele>305.7</ele>
        <time>2022-09-25T14:49:27Z</time>
      </trkpt>
      <trkpt lat="45.74835" lon="5.72265">
        <ele>305.7</ele>
        <time>2022-09-25T14:49:28Z</time>
      </trkpt>
      <trkpt lat="45.74837" lon="5.72267">
        <ele>305.7</ele>
        <time>2022-09-25T14:49:29Z</time>
      </trkpt>
      <trkpt lat="45.74838" lon="5.72268">
        <ele>305.8</ele>
        <time>2022-09-25T14:49:30Z</time>
      </trkpt>
      <trkpt lat="45.74839" lon="5.72269">
        <ele>305.8</ele>
        <time>2022-09-25T14:49:31Z</time>
      </trkpt>
      <trkpt lat="45.7484" lon="5.7227">
        <ele>305.9</ele>
        <time>2022-09-25T14:49:32Z</time>
      </trkpt>
      <trkpt lat="45.74841" lon="5.7227">
        <ele>305.9</ele>
        <time>2022-09-25T14:49:33Z</time>
      </trkpt>
      <trkpt lat="45.74842" lon="5.7227">
        <ele>306</ele>
        <time>2022-09-25T14:49:34Z</time>
      </trkpt>
      <trkpt lat="45.74844" lon="5.72271">
        <ele>306.1</ele>
        <time>2022-09-25T14:49:35Z</time>
      </trkpt>
      <trkpt lat="45.74844" lon="5.72271">
        <ele>306.1</ele>
        <time>2022-09-25T14:49:36Z</time>
      </trkpt>
      <trkpt lat="45.74847" lon="5.72271">
        <ele>306.2</ele>
        <time>2022-09-25T14:49:37Z</time>
      </trkpt>
      <trkpt lat="45.7485" lon="5.72272">
        <ele>306.4</ele>
        <time>2022-09-25T14:49:38Z</time>
      </trkpt>
      <trkpt lat="45.74851" lon="5.72273">
        <ele>306.5</ele>
        <time>2022-09-25T14:49:39Z</time>
      </trkpt>
      <trkpt lat="45.74853" lon="5.72273">
        <ele>306.5</ele>
        <time>2022-09-25T14:49:40Z</time>
      </trkpt>
      <trkpt lat="45.74853" lon="5.72273">
        <ele>306.6</ele>
        <time>2022-09-25T14:49:41Z</time>
      </trkpt>
      <trkpt lat="45.74856" lon="5.72274">
        <ele>306.7</ele>
        <time>2022-09-25T14:49:42Z</time>
      </trkpt>
      <trkpt lat="45.74857" lon="5.72274">
        <ele>306.7</ele>
        <time>2022-09-25T14:49:43Z</time>
      </trkpt>
      <trkpt lat="45.74858" lon="5.72274">
        <ele>306.8</ele>
        <time>2022-09-25T14:49:44Z</time>
      </trkpt>
      <trkpt lat="45.74859" lon="5.72275">
        <ele>306.8</ele>
        <time>2022-09-25T14:49:45Z</time>
      </trkpt>
      <trkpt lat="45.74862" lon="5.72276">
        <ele>307</ele>
        <time>2022-09-25T14:49:46Z</time>
      </trkpt>
      <trkpt lat="45.74863" lon="5.72276">
        <ele>307</ele>
        <time>2022-09-25T14:49:47Z</time>
      </trkpt>
      <trkpt lat="45.74865" lon="5.72277">
        <ele>307.1</ele>
        <time>2022-09-25T14:49:48Z</time>
      </trkpt>
      <trkpt lat="45.74866" lon="5.72277">
        <ele>307.2</ele>
        <time>2022-09-25T14:49:49Z</time>
      </trkpt>
      <trkpt lat="45.74868" lon="5.72277">
        <ele>307.3</ele>
        <time>2022-09-25T14:49:50Z</time>
      </trkpt>
      <trkpt lat="45.7487" lon="5.72278">
        <ele>307.4</ele>
        <time>2022-09-25T14:49:51Z</time>
      </trkpt>
      <trkpt lat="45.74871" lon="5.72278">
        <ele>307.4</ele>
        <time>2022-09-25T14:49:52Z</time>
      </trkpt>
      <trkpt lat="45.74873" lon="5.72278">
        <ele>307.5</ele>
        <time>2022-09-25T14:49:53Z</time>
      </trkpt>
      <trkpt lat="45.74875" lon="5.7228">
        <ele>307.6</ele>
        <time>2022-09-25T14:49:54Z</time>
      </trkpt>
      <trkpt lat="45.74877" lon="5.72281">
        <ele>307.7</ele>
        <time>2022-09-25T14:49:55Z</time>
      </trkpt>
      <trkpt lat="45.74878" lon="5.72281">
        <ele>307.8</ele>
        <time>2022-09-25T14:49:56Z</time>
      </trkpt>
      <trkpt lat="45.74879" lon="5.72282">
        <ele>307.9</ele>
        <time>2022-09-25T14:49:57Z</time>
      </trkpt>
      <trkpt lat="45.74882" lon="5.72283">
        <ele>308</ele>
        <time>2022-09-25T14:49:58Z</time>
      </trkpt>
      <trkpt lat="45.74883" lon="5.72283">
        <ele>308.1</ele>
        <time>2022-09-25T14:49:59Z</time>
      </trkpt>
      <trkpt lat="45.74884" lon="5.72284">
        <ele>308.1</ele>
        <time>2022-09-25T14:50:00Z</time>
      </trkpt>
      <trkpt lat="45.74887" lon="5.72285">
        <ele>308.3</ele>
        <time>2022-09-25T14:50:01Z</time>
      </trkpt>
      <trkpt lat="45.74889" lon="5.72286">
        <ele>308.4</ele>
        <time>2022-09-25T14:50:02Z</time>
      </trkpt>
      <trkpt lat="45.7489" lon="5.72286">
        <ele>308.5</ele>
        <time>2022-09-25T14:50:03Z</time>
      </trkpt>
      <trkpt lat="45.74892" lon="5.72287">
        <ele>308.6</ele>
        <time>2022-09-25T14:50:04Z</time>
      </trkpt>
      <trkpt lat="45.74893" lon="5.72288">
        <ele>308.6</ele>
        <time>2022-09-25T14:50:05Z</time>
      </trkpt>
      <trkpt lat="45.74895" lon="5.72288">
        <ele>308.8</ele>
        <time>2022-09-25T14:50:06Z</time>
      </trkpt>
      <trkpt lat="45.74897" lon="5.72288">
        <ele>308.8</ele>
        <time>2022-09-25T14:50:07Z</time>
      </trkpt>
      <trkpt lat="45.74898" lon="5.72288">
        <ele>308.9</ele>
        <time>2022-09-25T14:50:08Z</time>
      </trkpt>
      <trkpt lat="45.749" lon="5.7229">
        <ele>309</ele>
        <time>2022-09-25T14:50:09Z</time>
      </trkpt>
      <trkpt lat="45.74901" lon="5.72291">
        <ele>309.1</ele>
        <time>2022-09-25T14:50:10Z</time>
      </trkpt>
      <trkpt lat="45.74902" lon="5.72292">
        <ele>309.2</ele>
        <time>2022-09-25T14:50:11Z</time>
      </trkpt>
      <trkpt lat="45.74904" lon="5.72293">
        <ele>309.3</ele>
        <time>2022-09-25T14:50:12Z</time>
      </trkpt>
      <trkpt lat="45.74907" lon="5.72293">
        <ele>309.5</ele>
        <time>2022-09-25T14:50:13Z</time>
      </trkpt>
      <trkpt lat="45.74908" lon="5.72293">
        <ele>309.5</ele>
        <time>2022-09-25T14:50:14Z</time>
      </trkpt>
      <trkpt lat="45.74909" lon="5.72294">
        <ele>309.7</ele>
        <time>2022-09-25T14:50:15Z</time>
      </trkpt>
      <trkpt lat="45.74911" lon="5.72294">
        <ele>309.8</ele>
        <time>2022-09-25T14:50:16Z</time>
      </trkpt>
      <trkpt lat="45.74914" lon="5.72295">
        <ele>309.9</ele>
        <time>2022-09-25T14:50:17Z</time>
      </trkpt>
      <trkpt lat="45.74915" lon="5.72295">
        <ele>310</ele>
        <time>2022-09-25T14:50:18Z</time>
      </trkpt>
      <trkpt lat="45.74917" lon="5.72297">
        <ele>310.2</ele>
        <time>2022-09-25T14:50:19Z</time>
      </trkpt>
      <trkpt lat="45.74918" lon="5.72297">
        <ele>310.2</ele>
        <time>2022-09-25T14:50:20Z</time>
      </trkpt>
      <trkpt lat="45.7492" lon="5.72297">
        <ele>310.3</ele>
        <time>2022-09-25T14:50:21Z</time>
      </trkpt>
      <trkpt lat="45.74921" lon="5.72297">
        <ele>310.4</ele>
        <time>2022-09-25T14:50:22Z</time>
      </trkpt>
      <trkpt lat="45.74923" lon="5.72298">
        <ele>310.6</ele>
        <time>2022-09-25T14:50:23Z</time>
      </trkpt>
      <trkpt lat="45.74924" lon="5.72298">
        <ele>310.6</ele>
        <time>2022-09-25T14:50:24Z</time>
      </trkpt>
      <trkpt lat="45.74925" lon="5.72298">
        <ele>310.7</ele>
        <time>2022-09-25T14:50:25Z</time>
      </trkpt>
      <trkpt lat="45.74926" lon="5.72299">
        <ele>310.8</ele>
        <time>2022-09-25T14:50:26Z</time>
      </trkpt>
      <trkpt lat="45.74928" lon="5.723">
        <ele>310.9</ele>
        <time>2022-09-25T14:50:27Z</time>
      </trkpt>
      <trkpt lat="45.74931" lon="5.72301">
        <ele>311.1</ele>
        <time>2022-09-25T14:50:28Z</time>
      </trkpt>
      <trkpt lat="45.74932" lon="5.72302">
        <ele>311.1</ele>
        <time>2022-09-25T14:50:29Z</time>
      </trkpt>
      <trkpt lat="45.74933" lon="5.72302">
        <ele>311.2</ele>
        <time>2022-09-25T14:50:30Z</time>
      </trkpt>
      <trkpt lat="45.74934" lon="5.72302">
        <ele>311.3</ele>
        <time>2022-09-25T14:50:31Z</time>
      </trkpt>
      <trkpt lat="45.74938" lon="5.72303">
        <ele>311.6</ele>
        <time>2022-09-25T14:50:32Z</time>
      </trkpt>
      <trkpt lat="45.74941" lon="5.72304">
        <ele>311.7</ele>
        <time>2022-09-25T14:50:33Z</time>
      </trkpt>
      <trkpt lat="45.74943" lon="5.72305">
        <ele>311.8</ele>
        <time>2022-09-25T14:50:34Z</time>
      </trkpt>
      <trkpt lat="45.74944" lon="5.72305">
        <ele>311.9</ele>
        <time>2022-09-25T14:50:35Z</time>
      </trkpt>
      <trkpt lat="45.74947" lon="5.72306">
        <ele>312.1</ele>
        <time>2022-09-25T14:50:36Z</time>
      </trkpt>
      <trkpt lat="45.74948" lon="5.72306">
        <ele>312.2</ele>
        <time>2022-09-25T14:50:37Z</time>
      </trkpt>
      <trkpt lat="45.74949" lon="5.72307">
        <ele>312.2</ele>
        <time>2022-09-25T14:50:38Z</time>
      </trkpt>
      <trkpt lat="45.74952" lon="5.72308">
        <ele>312.4</ele>
        <time>2022-09-25T14:50:39Z</time>
      </trkpt>
      <trkpt lat="45.74952" lon="5.72308">
        <ele>312.5</ele>
        <time>2022-09-25T14:50:40Z</time>
      </trkpt>
      <trkpt lat="45.74955" lon="5.7231">
        <ele>312.7</ele>
        <time>2022-09-25T14:50:41Z</time>
      </trkpt>
      <trkpt lat="45.74957" lon="5.7231">
        <ele>312.8</ele>
        <time>2022-09-25T14:50:42Z</time>
      </trkpt>
      <trkpt lat="45.74958" lon="5.7231">
        <ele>312.8</ele>
        <time>2022-09-25T14:50:43Z</time>
      </trkpt>
      <trkpt lat="45.74959" lon="5.72311">
        <ele>312.9</ele>
        <time>2022-09-25T14:50:44Z</time>
      </trkpt>
      <trkpt lat="45.74961" lon="5.72311">
        <ele>313</ele>
        <time>2022-09-25T14:50:45Z</time>
      </trkpt>
      <trkpt lat="45.74962" lon="5.72311">
        <ele>313.1</ele>
        <time>2022-09-25T14:50:46Z</time>
      </trkpt>
      <trkpt lat="45.74965" lon="5.72312">
        <ele>313.3</ele>
        <time>2022-09-25T14:50:47Z</time>
      </trkpt>
      <trkpt lat="45.74966" lon="5.72312">
        <ele>313.4</ele>
        <time>2022-09-25T14:50:48Z</time>
      </trkpt>
      <trkpt lat="45.74969" lon="5.72313">
        <ele>313.6</ele>
        <time>2022-09-25T14:50:49Z</time>
      </trkpt>
      <trkpt lat="45.7497" lon="5.72313">
        <ele>313.6</ele>
        <time>2022-09-25T14:50:50Z</time>
      </trkpt>
      <trkpt lat="45.74973" lon="5.72314">
        <ele>313.8</ele>
        <time>2022-09-25T14:50:51Z</time>
      </trkpt>
      <trkpt lat="45.74974" lon="5.72314">
        <ele>313.9</ele>
        <time>2022-09-25T14:50:52Z</time>
      </trkpt>
      <trkpt lat="45.74976" lon="5.72314">
        <ele>314</ele>
        <time>2022-09-25T14:50:53Z</time>
      </trkpt>
      <trkpt lat="45.74977" lon="5.72316">
        <ele>314.1</ele>
        <time>2022-09-25T14:50:54Z</time>
      </trkpt>
      <trkpt lat="45.74979" lon="5.72317">
        <ele>314.2</ele>
        <time>2022-09-25T14:50:55Z</time>
      </trkpt>
      <trkpt lat="45.7498" lon="5.72317">
        <ele>314.4</ele>
        <time>2022-09-25T14:50:56Z</time>
      </trkpt>
      <trkpt lat="45.74982" lon="5.72318">
        <ele>314.5</ele>
        <time>2022-09-25T14:50:57Z</time>
      </trkpt>
      <trkpt lat="45.74983" lon="5.72317">
        <ele>314.6</ele>
        <time>2022-09-25T14:50:58Z</time>
      </trkpt>
      <trkpt lat="45.74986" lon="5.72318">
        <ele>314.7</ele>
        <time>2022-09-25T14:50:59Z</time>
      </trkpt>
      <trkpt lat="45.74988" lon="5.72318">
        <ele>314.8</ele>
        <time>2022-09-25T14:51:01Z</time>
      </trkpt>
      <trkpt lat="45.74989" lon="5.72319">
        <ele>314.9</ele>
        <time>2022-09-25T14:51:02Z</time>
      </trkpt>
      <trkpt lat="45.74991" lon="5.72319">
        <ele>315.1</ele>
        <time>2022-09-25T14:51:03Z</time>
      </trkpt>
      <trkpt lat="45.74994" lon="5.7232">
        <ele>315.3</ele>
        <time>2022-09-25T14:51:04Z</time>
      </trkpt>
      <trkpt lat="45.74995" lon="5.7232">
        <ele>315.3</ele>
        <time>2022-09-25T14:51:05Z</time>
      </trkpt>
      <trkpt lat="45.74996" lon="5.72321">
        <ele>315.4</ele>
        <time>2022-09-25T14:51:06Z</time>
      </trkpt>
      <trkpt lat="45.74998" lon="5.72321">
        <ele>315.5</ele>
        <time>2022-09-25T14:51:07Z</time>
      </trkpt>
      <trkpt lat="45.75001" lon="5.72322">
        <ele>315.7</ele>
        <time>2022-09-25T14:51:08Z</time>
      </trkpt>
      <trkpt lat="45.75002" lon="5.72322">
        <ele>315.8</ele>
        <time>2022-09-25T14:51:09Z</time>
      </trkpt>
      <trkpt lat="45.75003" lon="5.72322">
        <ele>315.9</ele>
        <time>2022-09-25T14:51:10Z</time>
      </trkpt>
      <trkpt lat="45.75005" lon="5.72323">
        <ele>316</ele>
        <time>2022-09-25T14:51:11Z</time>
      </trkpt>
      <trkpt lat="45.75007" lon="5.72324">
        <ele>316.2</ele>
        <time>2022-09-25T14:51:12Z</time>
      </trkpt>
      <trkpt lat="45.75008" lon="5.72324">
        <ele>316.2</ele>
        <time>2022-09-25T14:51:13Z</time>
      </trkpt>
      <trkpt lat="45.75009" lon="5.72324">
        <ele>316.3</ele>
        <time>2022-09-25T14:51:14Z</time>
      </trkpt>
      <trkpt lat="45.75011" lon="5.72324">
        <ele>316.4</ele>
        <time>2022-09-25T14:51:15Z</time>
      </trkpt>
      <trkpt lat="45.75013" lon="5.72324">
        <ele>316.5</ele>
        <time>2022-09-25T14:51:16Z</time>
      </trkpt>
      <trkpt lat="45.75014" lon="5.72325">
        <ele>316.7</ele>
        <time>2022-09-25T14:51:17Z</time>
      </trkpt>
      <trkpt lat="45.75015" lon="5.72326">
        <ele>316.7</ele>
        <time>2022-09-25T14:51:18Z</time>
      </trkpt>
      <trkpt lat="45.75018" lon="5.72327">
        <ele>316.9</ele>
        <time>2022-09-25T14:51:19Z</time>
      </trkpt>
      <trkpt lat="45.75019" lon="5.72327">
        <ele>317</ele>
        <time>2022-09-25T14:51:20Z</time>
      </trkpt>
      <trkpt lat="45.75021" lon="5.72326">
        <ele>317.2</ele>
        <time>2022-09-25T14:51:21Z</time>
      </trkpt>
      <trkpt lat="45.75022" lon="5.72326">
        <ele>317.2</ele>
        <time>2022-09-25T14:51:22Z</time>
      </trkpt>
      <trkpt lat="45.75023" lon="5.72326">
        <ele>317.2</ele>
        <time>2022-09-25T14:51:23Z</time>
      </trkpt>
      <trkpt lat="45.75026" lon="5.72327">
        <ele>317.4</ele>
        <time>2022-09-25T14:51:24Z</time>
      </trkpt>
      <trkpt lat="45.75029" lon="5.72326">
        <ele>317.7</ele>
        <time>2022-09-25T14:51:25Z</time>
      </trkpt>
      <trkpt lat="45.7503" lon="5.72326">
        <ele>317.8</ele>
        <time>2022-09-25T14:51:26Z</time>
      </trkpt>
      <trkpt lat="45.75031" lon="5.72326">
        <ele>317.8</ele>
        <time>2022-09-25T14:51:27Z</time>
      </trkpt>
      <trkpt lat="45.75033" lon="5.72327">
        <ele>318</ele>
        <time>2022-09-25T14:51:28Z</time>
      </trkpt>
      <trkpt lat="45.75035" lon="5.72326">
        <ele>318.1</ele>
        <time>2022-09-25T14:51:29Z</time>
      </trkpt>
      <trkpt lat="45.75037" lon="5.72326">
        <ele>318.2</ele>
        <time>2022-09-25T14:51:30Z</time>
      </trkpt>
      <trkpt lat="45.75039" lon="5.72326">
        <ele>318.3</ele>
        <time>2022-09-25T14:51:31Z</time>
      </trkpt>
      <trkpt lat="45.7504" lon="5.72326">
        <ele>318.4</ele>
        <time>2022-09-25T14:51:32Z</time>
      </trkpt>
      <trkpt lat="45.75043" lon="5.72327">
        <ele>318.6</ele>
        <time>2022-09-25T14:51:33Z</time>
      </trkpt>
      <trkpt lat="45.75044" lon="5.72327">
        <ele>318.7</ele>
        <time>2022-09-25T14:51:34Z</time>
      </trkpt>
      <trkpt lat="45.75047" lon="5.72327">
        <ele>318.9</ele>
        <time>2022-09-25T14:51:35Z</time>
      </trkpt>
      <trkpt lat="45.75048" lon="5.72328">
        <ele>318.9</ele>
        <time>2022-09-25T14:51:36Z</time>
      </trkpt>
      <trkpt lat="45.75051" lon="5.72328">
        <ele>319.2</ele>
        <time>2022-09-25T14:51:37Z</time>
      </trkpt>
      <trkpt lat="45.75052" lon="5.72328">
        <ele>319.2</ele>
        <time>2022-09-25T14:51:38Z</time>
      </trkpt>
      <trkpt lat="45.75055" lon="5.72329">
        <ele>319.4</ele>
        <time>2022-09-25T14:51:39Z</time>
      </trkpt>
      <trkpt lat="45.75056" lon="5.72329">
        <ele>319.5</ele>
        <time>2022-09-25T14:51:40Z</time>
      </trkpt>
      <trkpt lat="45.75059" lon="5.72329">
        <ele>319.7</ele>
        <time>2022-09-25T14:51:41Z</time>
      </trkpt>
      <trkpt lat="45.7506" lon="5.72329">
        <ele>319.7</ele>
        <time>2022-09-25T14:51:42Z</time>
      </trkpt>
      <trkpt lat="45.75063" lon="5.7233">
        <ele>319.9</ele>
        <time>2022-09-25T14:51:43Z</time>
      </trkpt>
      <trkpt lat="45.75064" lon="5.7233">
        <ele>320</ele>
        <time>2022-09-25T14:51:44Z</time>
      </trkpt>
      <trkpt lat="45.75065" lon="5.72331">
        <ele>320.1</ele>
        <time>2022-09-25T14:51:45Z</time>
      </trkpt>
      <trkpt lat="45.75067" lon="5.72331">
        <ele>320.2</ele>
        <time>2022-09-25T14:51:46Z</time>
      </trkpt>
      <trkpt lat="45.75068" lon="5.72332">
        <ele>320.3</ele>
        <time>2022-09-25T14:51:47Z</time>
      </trkpt>
      <trkpt lat="45.7507" lon="5.72332">
        <ele>320.5</ele>
        <time>2022-09-25T14:51:48Z</time>
      </trkpt>
      <trkpt lat="45.75072" lon="5.72334">
        <ele>320.6</ele>
        <time>2022-09-25T14:51:49Z</time>
      </trkpt>
      <trkpt lat="45.75073" lon="5.72334">
        <ele>320.7</ele>
        <time>2022-09-25T14:51:50Z</time>
      </trkpt>
      <trkpt lat="45.75076" lon="5.72334">
        <ele>320.9</ele>
        <time>2022-09-25T14:51:51Z</time>
      </trkpt>
      <trkpt lat="45.75077" lon="5.72335">
        <ele>320.9</ele>
        <time>2022-09-25T14:51:52Z</time>
      </trkpt>
      <trkpt lat="45.7508" lon="5.72335">
        <ele>321.1</ele>
        <time>2022-09-25T14:51:53Z</time>
      </trkpt>
      <trkpt lat="45.75081" lon="5.72335">
        <ele>321.2</ele>
        <time>2022-09-25T14:51:54Z</time>
      </trkpt>
      <trkpt lat="45.75084" lon="5.72336">
        <ele>321.4</ele>
        <time>2022-09-25T14:51:55Z</time>
      </trkpt>
      <trkpt lat="45.75085" lon="5.72336">
        <ele>321.5</ele>
        <time>2022-09-25T14:51:56Z</time>
      </trkpt>
      <trkpt lat="45.75086" lon="5.72337">
        <ele>321.5</ele>
        <time>2022-09-25T14:51:57Z</time>
      </trkpt>
      <trkpt lat="45.75087" lon="5.72338">
        <ele>321.6</ele>
        <time>2022-09-25T14:51:58Z</time>
      </trkpt>
      <trkpt lat="45.75088" lon="5.72338">
        <ele>321.7</ele>
        <time>2022-09-25T14:51:59Z</time>
      </trkpt>
      <trkpt lat="45.75089" lon="5.72337">
        <ele>321.8</ele>
        <time>2022-09-25T14:52:00Z</time>
      </trkpt>
      <trkpt lat="45.75091" lon="5.72338">
        <ele>322</ele>
        <time>2022-09-25T14:52:01Z</time>
      </trkpt>
      <trkpt lat="45.75092" lon="5.72338">
        <ele>322</ele>
        <time>2022-09-25T14:52:02Z</time>
      </trkpt>
      <trkpt lat="45.75094" lon="5.72339">
        <ele>322.1</ele>
        <time>2022-09-25T14:52:03Z</time>
      </trkpt>
      <trkpt lat="45.75095" lon="5.72339">
        <ele>322.2</ele>
        <time>2022-09-25T14:52:04Z</time>
      </trkpt>
      <trkpt lat="45.75097" lon="5.7234">
        <ele>322.4</ele>
        <time>2022-09-25T14:52:05Z</time>
      </trkpt>
      <trkpt lat="45.751" lon="5.72341">
        <ele>322.5</ele>
        <time>2022-09-25T14:52:06Z</time>
      </trkpt>
      <trkpt lat="45.75101" lon="5.72342">
        <ele>322.6</ele>
        <time>2022-09-25T14:52:07Z</time>
      </trkpt>
      <trkpt lat="45.75102" lon="5.72344">
        <ele>322.7</ele>
        <time>2022-09-25T14:52:08Z</time>
      </trkpt>
      <trkpt lat="45.75104" lon="5.72343">
        <ele>322.8</ele>
        <time>2022-09-25T14:52:09Z</time>
      </trkpt>
      <trkpt lat="45.75105" lon="5.72343">
        <ele>322.9</ele>
        <time>2022-09-25T14:52:10Z</time>
      </trkpt>
      <trkpt lat="45.75107" lon="5.72343">
        <ele>323</ele>
        <time>2022-09-25T14:52:11Z</time>
      </trkpt>
      <trkpt lat="45.75109" lon="5.72344">
        <ele>323.2</ele>
        <time>2022-09-25T14:52:12Z</time>
      </trkpt>
      <trkpt lat="45.7511" lon="5.72344">
        <ele>323.2</ele>
        <time>2022-09-25T14:52:13Z</time>
      </trkpt>
      <trkpt lat="45.75111" lon="5.72344">
        <ele>323.3</ele>
        <time>2022-09-25T14:52:14Z</time>
      </trkpt>
      <trkpt lat="45.75113" lon="5.72344">
        <ele>323.4</ele>
        <time>2022-09-25T14:52:15Z</time>
      </trkpt>
      <trkpt lat="45.75114" lon="5.72343">
        <ele>323.5</ele>
        <time>2022-09-25T14:52:16Z</time>
      </trkpt>
      <trkpt lat="45.75117" lon="5.72343">
        <ele>323.7</ele>
        <time>2022-09-25T14:52:17Z</time>
      </trkpt>
      <trkpt lat="45.75118" lon="5.72343">
        <ele>323.8</ele>
        <time>2022-09-25T14:52:18Z</time>
      </trkpt>
      <trkpt lat="45.7512" lon="5.72344">
        <ele>323.9</ele>
        <time>2022-09-25T14:52:19Z</time>
      </trkpt>
      <trkpt lat="45.75121" lon="5.72343">
        <ele>324</ele>
        <time>2022-09-25T14:52:20Z</time>
      </trkpt>
      <trkpt lat="45.75124" lon="5.72344">
        <ele>324.1</ele>
        <time>2022-09-25T14:52:21Z</time>
      </trkpt>
      <trkpt lat="45.75125" lon="5.72344">
        <ele>324.2</ele>
        <time>2022-09-25T14:52:22Z</time>
      </trkpt>
      <trkpt lat="45.75128" lon="5.72343">
        <ele>324.4</ele>
        <time>2022-09-25T14:52:23Z</time>
      </trkpt>
      <trkpt lat="45.75128" lon="5.72343">
        <ele>324.4</ele>
        <time>2022-09-25T14:52:24Z</time>
      </trkpt>
      <trkpt lat="45.75129" lon="5.72343">
        <ele>324.5</ele>
        <time>2022-09-25T14:52:25Z</time>
      </trkpt>
      <trkpt lat="45.75131" lon="5.72343">
        <ele>324.6</ele>
        <time>2022-09-25T14:52:26Z</time>
      </trkpt>
      <trkpt lat="45.75132" lon="5.72344">
        <ele>324.7</ele>
        <time>2022-09-25T14:52:27Z</time>
      </trkpt>
      <trkpt lat="45.75135" lon="5.72344">
        <ele>324.8</ele>
        <time>2022-09-25T14:52:28Z</time>
      </trkpt>
      <trkpt lat="45.75135" lon="5.72345">
        <ele>324.9</ele>
        <time>2022-09-25T14:52:29Z</time>
      </trkpt>
      <trkpt lat="45.75138" lon="5.72346">
        <ele>325.1</ele>
        <time>2022-09-25T14:52:30Z</time>
      </trkpt>
      <trkpt lat="45.7514" lon="5.72346">
        <ele>325.2</ele>
        <time>2022-09-25T14:52:31Z</time>
      </trkpt>
      <trkpt lat="45.75141" lon="5.72346">
        <ele>325.3</ele>
        <time>2022-09-25T14:52:32Z</time>
      </trkpt>
      <trkpt lat="45.75143" lon="5.72346">
        <ele>325.4</ele>
        <time>2022-09-25T14:52:33Z</time>
      </trkpt>
      <trkpt lat="45.75144" lon="5.72347">
        <ele>325.5</ele>
        <time>2022-09-25T14:52:34Z</time>
      </trkpt>
      <trkpt lat="45.75146" lon="5.72347">
        <ele>325.6</ele>
        <time>2022-09-25T14:52:35Z</time>
      </trkpt>
      <trkpt lat="45.75148" lon="5.72348">
        <ele>325.7</ele>
        <time>2022-09-25T14:52:36Z</time>
      </trkpt>
      <trkpt lat="45.7515" lon="5.72348">
        <ele>325.8</ele>
        <time>2022-09-25T14:52:37Z</time>
      </trkpt>
      <trkpt lat="45.75151" lon="5.72348">
        <ele>325.9</ele>
        <time>2022-09-25T14:52:38Z</time>
      </trkpt>
      <trkpt lat="45.75152" lon="5.72348">
        <ele>326</ele>
        <time>2022-09-25T14:52:39Z</time>
      </trkpt>
      <trkpt lat="45.75154" lon="5.72349">
        <ele>326.1</ele>
        <time>2022-09-25T14:52:40Z</time>
      </trkpt>
      <trkpt lat="45.75156" lon="5.7235">
        <ele>326.2</ele>
        <time>2022-09-25T14:52:41Z</time>
      </trkpt>
      <trkpt lat="45.75157" lon="5.7235">
        <ele>326.2</ele>
        <time>2022-09-25T14:52:42Z</time>
      </trkpt>
      <trkpt lat="45.75159" lon="5.7235">
        <ele>326.3</ele>
        <time>2022-09-25T14:52:43Z</time>
      </trkpt>
      <trkpt lat="45.75162" lon="5.72351">
        <ele>326.5</ele>
        <time>2022-09-25T14:52:44Z</time>
      </trkpt>
      <trkpt lat="45.75162" lon="5.72351">
        <ele>326.5</ele>
        <time>2022-09-25T14:52:45Z</time>
      </trkpt>
      <trkpt lat="45.75165" lon="5.72352">
        <ele>326.7</ele>
        <time>2022-09-25T14:52:46Z</time>
      </trkpt>
      <trkpt lat="45.75166" lon="5.72353">
        <ele>326.7</ele>
        <time>2022-09-25T14:52:47Z</time>
      </trkpt>
      <trkpt lat="45.75167" lon="5.72353">
        <ele>326.8</ele>
        <time>2022-09-25T14:52:48Z</time>
      </trkpt>
      <trkpt lat="45.75171" lon="5.72354">
        <ele>327</ele>
        <time>2022-09-25T14:52:49Z</time>
      </trkpt>
      <trkpt lat="45.75172" lon="5.72355">
        <ele>327</ele>
        <time>2022-09-25T14:52:50Z</time>
      </trkpt>
      <trkpt lat="45.75174" lon="5.72354">
        <ele>327.1</ele>
        <time>2022-09-25T14:52:51Z</time>
      </trkpt>
      <trkpt lat="45.75175" lon="5.72355">
        <ele>327.2</ele>
        <time>2022-09-25T14:52:52Z</time>
      </trkpt>
      <trkpt lat="45.75179" lon="5.72355">
        <ele>327.3</ele>
        <time>2022-09-25T14:52:53Z</time>
      </trkpt>
      <trkpt lat="45.7518" lon="5.72356">
        <ele>327.4</ele>
        <time>2022-09-25T14:52:54Z</time>
      </trkpt>
      <trkpt lat="45.75182" lon="5.72356">
        <ele>327.5</ele>
        <time>2022-09-25T14:52:55Z</time>
      </trkpt>
      <trkpt lat="45.75183" lon="5.72357">
        <ele>327.5</ele>
        <time>2022-09-25T14:52:56Z</time>
      </trkpt>
      <trkpt lat="45.75186" lon="5.72358">
        <ele>327.7</ele>
        <time>2022-09-25T14:52:57Z</time>
      </trkpt>
      <trkpt lat="45.75187" lon="5.72359">
        <ele>327.7</ele>
        <time>2022-09-25T14:52:58Z</time>
      </trkpt>
      <trkpt lat="45.75189" lon="5.72359">
        <ele>327.8</ele>
        <time>2022-09-25T14:52:59Z</time>
      </trkpt>
      <trkpt lat="45.7519" lon="5.72359">
        <ele>327.9</ele>
        <time>2022-09-25T14:53:00Z</time>
      </trkpt>
      <trkpt lat="45.75192" lon="5.7236">
        <ele>328</ele>
        <time>2022-09-25T14:53:01Z</time>
      </trkpt>
      <trkpt lat="45.75193" lon="5.7236">
        <ele>328</ele>
        <time>2022-09-25T14:53:02Z</time>
      </trkpt>
      <trkpt lat="45.75195" lon="5.72361">
        <ele>328.1</ele>
        <time>2022-09-25T14:53:03Z</time>
      </trkpt>
      <trkpt lat="45.75197" lon="5.72361">
        <ele>328.2</ele>
        <time>2022-09-25T14:53:04Z</time>
      </trkpt>
      <trkpt lat="45.75199" lon="5.72362">
        <ele>328.3</ele>
        <time>2022-09-25T14:53:05Z</time>
      </trkpt>
      <trkpt lat="45.75201" lon="5.72362">
        <ele>328.4</ele>
        <time>2022-09-25T14:53:07Z</time>
      </trkpt>
      <trkpt lat="45.75204" lon="5.72363">
        <ele>328.5</ele>
        <time>2022-09-25T14:53:08Z</time>
      </trkpt>
      <trkpt lat="45.75205" lon="5.72363">
        <ele>328.5</ele>
        <time>2022-09-25T14:53:09Z</time>
      </trkpt>
      <trkpt lat="45.75207" lon="5.72364">
        <ele>328.6</ele>
        <time>2022-09-25T14:53:10Z</time>
      </trkpt>
      <trkpt lat="45.75208" lon="5.72365">
        <ele>328.7</ele>
        <time>2022-09-25T14:53:11Z</time>
      </trkpt>
      <trkpt lat="45.75212" lon="5.72365">
        <ele>328.8</ele>
        <time>2022-09-25T14:53:12Z</time>
      </trkpt>
      <trkpt lat="45.75212" lon="5.72366">
        <ele>328.8</ele>
        <time>2022-09-25T14:53:13Z</time>
      </trkpt>
      <trkpt lat="45.75214" lon="5.72367">
        <ele>328.9</ele>
        <time>2022-09-25T14:53:14Z</time>
      </trkpt>
      <trkpt lat="45.75215" lon="5.72367">
        <ele>329</ele>
        <time>2022-09-25T14:53:15Z</time>
      </trkpt>
      <trkpt lat="45.75218" lon="5.72367">
        <ele>329.1</ele>
        <time>2022-09-25T14:53:16Z</time>
      </trkpt>
      <trkpt lat="45.75219" lon="5.72368">
        <ele>329.1</ele>
        <time>2022-09-25T14:53:17Z</time>
      </trkpt>
      <trkpt lat="45.75221" lon="5.72369">
        <ele>329.2</ele>
        <time>2022-09-25T14:53:18Z</time>
      </trkpt>
      <trkpt lat="45.75222" lon="5.72369">
        <ele>329.3</ele>
        <time>2022-09-25T14:53:19Z</time>
      </trkpt>
      <trkpt lat="45.75225" lon="5.72371">
        <ele>329.4</ele>
        <time>2022-09-25T14:53:20Z</time>
      </trkpt>
      <trkpt lat="45.75226" lon="5.72371">
        <ele>329.5</ele>
        <time>2022-09-25T14:53:21Z</time>
      </trkpt>
      <trkpt lat="45.7523" lon="5.72372">
        <ele>329.7</ele>
        <time>2022-09-25T14:53:22Z</time>
      </trkpt>
      <trkpt lat="45.75232" lon="5.72374">
        <ele>329.7</ele>
        <time>2022-09-25T14:53:23Z</time>
      </trkpt>
      <trkpt lat="45.75234" lon="5.72375">
        <ele>329.8</ele>
        <time>2022-09-25T14:53:25Z</time>
      </trkpt>
      <trkpt lat="45.75235" lon="5.72375">
        <ele>329.9</ele>
        <time>2022-09-25T14:53:26Z</time>
      </trkpt>
      <trkpt lat="45.75237" lon="5.72376">
        <ele>330</ele>
        <time>2022-09-25T14:53:27Z</time>
      </trkpt>
      <trkpt lat="45.75239" lon="5.72377">
        <ele>330.1</ele>
        <time>2022-09-25T14:53:28Z</time>
      </trkpt>
      <trkpt lat="45.75242" lon="5.72378">
        <ele>330.2</ele>
        <time>2022-09-25T14:53:29Z</time>
      </trkpt>
      <trkpt lat="45.75243" lon="5.72379">
        <ele>330.3</ele>
        <time>2022-09-25T14:53:30Z</time>
      </trkpt>
      <trkpt lat="45.75245" lon="5.72379">
        <ele>330.4</ele>
        <time>2022-09-25T14:53:31Z</time>
      </trkpt>
      <trkpt lat="45.75246" lon="5.7238">
        <ele>330.4</ele>
        <time>2022-09-25T14:53:32Z</time>
      </trkpt>
      <trkpt lat="45.75248" lon="5.7238">
        <ele>330.5</ele>
        <time>2022-09-25T14:53:33Z</time>
      </trkpt>
      <trkpt lat="45.7525" lon="5.72382">
        <ele>330.6</ele>
        <time>2022-09-25T14:53:34Z</time>
      </trkpt>
      <trkpt lat="45.75252" lon="5.72384">
        <ele>330.8</ele>
        <time>2022-09-25T14:53:35Z</time>
      </trkpt>
      <trkpt lat="45.75253" lon="5.72385">
        <ele>330.8</ele>
        <time>2022-09-25T14:53:36Z</time>
      </trkpt>
      <trkpt lat="45.75256" lon="5.72387">
        <ele>331</ele>
        <time>2022-09-25T14:53:37Z</time>
      </trkpt>
      <trkpt lat="45.75256" lon="5.72387">
        <ele>331</ele>
        <time>2022-09-25T14:53:38Z</time>
      </trkpt>
      <trkpt lat="45.7526" lon="5.72391">
        <ele>331.3</ele>
        <time>2022-09-25T14:53:39Z</time>
      </trkpt>
      <trkpt lat="45.75262" lon="5.72393">
        <ele>331.4</ele>
        <time>2022-09-25T14:53:40Z</time>
      </trkpt>
      <trkpt lat="45.75263" lon="5.72394">
        <ele>331.5</ele>
        <time>2022-09-25T14:53:41Z</time>
      </trkpt>
      <trkpt lat="45.75266" lon="5.72396">
        <ele>331.7</ele>
        <time>2022-09-25T14:53:42Z</time>
      </trkpt>
      <trkpt lat="45.75267" lon="5.72397">
        <ele>331.7</ele>
        <time>2022-09-25T14:53:43Z</time>
      </trkpt>
      <trkpt lat="45.75268" lon="5.72398">
        <ele>331.8</ele>
        <time>2022-09-25T14:53:44Z</time>
      </trkpt>
      <trkpt lat="45.75269" lon="5.724">
        <ele>332</ele>
        <time>2022-09-25T14:53:45Z</time>
      </trkpt>
      <trkpt lat="45.7527" lon="5.72402">
        <ele>332.1</ele>
        <time>2022-09-25T14:53:46Z</time>
      </trkpt>
      <trkpt lat="45.75272" lon="5.72403">
        <ele>332.2</ele>
        <time>2022-09-25T14:53:47Z</time>
      </trkpt>
      <trkpt lat="45.75273" lon="5.72405">
        <ele>332.3</ele>
        <time>2022-09-25T14:53:48Z</time>
      </trkpt>
      <trkpt lat="45.75275" lon="5.72407">
        <ele>332.4</ele>
        <time>2022-09-25T14:53:49Z</time>
      </trkpt>
      <trkpt lat="45.75277" lon="5.72409">
        <ele>332.6</ele>
        <time>2022-09-25T14:53:50Z</time>
      </trkpt>
      <trkpt lat="45.75277" lon="5.7241">
        <ele>332.6</ele>
        <time>2022-09-25T14:53:51Z</time>
      </trkpt>
      <trkpt lat="45.75279" lon="5.72412">
        <ele>332.7</ele>
        <time>2022-09-25T14:53:52Z</time>
      </trkpt>
      <trkpt lat="45.7528" lon="5.72413">
        <ele>332.8</ele>
        <time>2022-09-25T14:53:53Z</time>
      </trkpt>
      <trkpt lat="45.75281" lon="5.72415">
        <ele>332.9</ele>
        <time>2022-09-25T14:53:54Z</time>
      </trkpt>
      <trkpt lat="45.75283" lon="5.72416">
        <ele>333</ele>
        <time>2022-09-25T14:53:55Z</time>
      </trkpt>
      <trkpt lat="45.75285" lon="5.72418">
        <ele>333.2</ele>
        <time>2022-09-25T14:53:56Z</time>
      </trkpt>
      <trkpt lat="45.75285" lon="5.72419">
        <ele>333.2</ele>
        <time>2022-09-25T14:53:57Z</time>
      </trkpt>
      <trkpt lat="45.75287" lon="5.72421">
        <ele>333.4</ele>
        <time>2022-09-25T14:53:58Z</time>
      </trkpt>
      <trkpt lat="45.75288" lon="5.72422">
        <ele>333.5</ele>
        <time>2022-09-25T14:53:59Z</time>
      </trkpt>
      <trkpt lat="45.75288" lon="5.72423">
        <ele>333.5</ele>
        <time>2022-09-25T14:54:00Z</time>
      </trkpt>
      <trkpt lat="45.75291" lon="5.72426">
        <ele>333.7</ele>
        <time>2022-09-25T14:54:01Z</time>
      </trkpt>
      <trkpt lat="45.75291" lon="5.72426">
        <ele>333.8</ele>
        <time>2022-09-25T14:54:02Z</time>
      </trkpt>
      <trkpt lat="45.75292" lon="5.72428">
        <ele>333.9</ele>
        <time>2022-09-25T14:54:03Z</time>
      </trkpt>
      <trkpt lat="45.75294" lon="5.72429">
        <ele>334</ele>
        <time>2022-09-25T14:54:04Z</time>
      </trkpt>
      <trkpt lat="45.75295" lon="5.7243">
        <ele>334</ele>
        <time>2022-09-25T14:54:05Z</time>
      </trkpt>
      <trkpt lat="45.75296" lon="5.72432">
        <ele>334.2</ele>
        <time>2022-09-25T14:54:06Z</time>
      </trkpt>
      <trkpt lat="45.75298" lon="5.72433">
        <ele>334.3</ele>
        <time>2022-09-25T14:54:07Z</time>
      </trkpt>
      <trkpt lat="45.75299" lon="5.72435">
        <ele>334.4</ele>
        <time>2022-09-25T14:54:08Z</time>
      </trkpt>
      <trkpt lat="45.753" lon="5.72436">
        <ele>334.5</ele>
        <time>2022-09-25T14:54:09Z</time>
      </trkpt>
      <trkpt lat="45.75301" lon="5.72438">
        <ele>334.6</ele>
        <time>2022-09-25T14:54:10Z</time>
      </trkpt>
      <trkpt lat="45.75303" lon="5.7244">
        <ele>334.7</ele>
        <time>2022-09-25T14:54:11Z</time>
      </trkpt>
      <trkpt lat="45.75304" lon="5.72441">
        <ele>334.8</ele>
        <time>2022-09-25T14:54:12Z</time>
      </trkpt>
      <trkpt lat="45.75306" lon="5.72443">
        <ele>335</ele>
        <time>2022-09-25T14:54:13Z</time>
      </trkpt>
      <trkpt lat="45.75306" lon="5.72444">
        <ele>335</ele>
        <time>2022-09-25T14:54:14Z</time>
      </trkpt>
      <trkpt lat="45.75308" lon="5.72446">
        <ele>335.2</ele>
        <time>2022-09-25T14:54:15Z</time>
      </trkpt>
      <trkpt lat="45.75309" lon="5.72447">
        <ele>335.3</ele>
        <time>2022-09-25T14:54:16Z</time>
      </trkpt>
      <trkpt lat="45.75311" lon="5.7245">
        <ele>335.4</ele>
        <time>2022-09-25T14:54:17Z</time>
      </trkpt>
      <trkpt lat="45.75311" lon="5.72451">
        <ele>335.5</ele>
        <time>2022-09-25T14:54:18Z</time>
      </trkpt>
      <trkpt lat="45.75313" lon="5.72454">
        <ele>335.7</ele>
        <time>2022-09-25T14:54:19Z</time>
      </trkpt>
      <trkpt lat="45.75314" lon="5.72455">
        <ele>335.8</ele>
        <time>2022-09-25T14:54:20Z</time>
      </trkpt>
      <trkpt lat="45.75316" lon="5.72456">
        <ele>335.9</ele>
        <time>2022-09-25T14:54:21Z</time>
      </trkpt>
      <trkpt lat="45.75317" lon="5.72457">
        <ele>336</ele>
        <time>2022-09-25T14:54:22Z</time>
      </trkpt>
      <trkpt lat="45.75319" lon="5.7246">
        <ele>336.2</ele>
        <time>2022-09-25T14:54:23Z</time>
      </trkpt>
      <trkpt lat="45.75319" lon="5.72461">
        <ele>336.2</ele>
        <time>2022-09-25T14:54:24Z</time>
      </trkpt>
      <trkpt lat="45.75321" lon="5.72463">
        <ele>336.4</ele>
        <time>2022-09-25T14:54:25Z</time>
      </trkpt>
      <trkpt lat="45.75322" lon="5.72464">
        <ele>336.5</ele>
        <time>2022-09-25T14:54:26Z</time>
      </trkpt>
      <trkpt lat="45.75323" lon="5.72466">
        <ele>336.6</ele>
        <time>2022-09-25T14:54:27Z</time>
      </trkpt>
      <trkpt lat="45.75324" lon="5.72468">
        <ele>336.7</ele>
        <time>2022-09-25T14:54:28Z</time>
      </trkpt>
      <trkpt lat="45.75326" lon="5.7247">
        <ele>336.8</ele>
        <time>2022-09-25T14:54:29Z</time>
      </trkpt>
      <trkpt lat="45.75326" lon="5.72471">
        <ele>336.9</ele>
        <time>2022-09-25T14:54:30Z</time>
      </trkpt>
      <trkpt lat="45.75328" lon="5.72473">
        <ele>337.1</ele>
        <time>2022-09-25T14:54:31Z</time>
      </trkpt>
      <trkpt lat="45.75329" lon="5.72474">
        <ele>337.2</ele>
        <time>2022-09-25T14:54:32Z</time>
      </trkpt>
      <trkpt lat="45.75332" lon="5.72477">
        <ele>337.4</ele>
        <time>2022-09-25T14:54:33Z</time>
      </trkpt>
      <trkpt lat="45.75332" lon="5.72478">
        <ele>337.5</ele>
        <time>2022-09-25T14:54:34Z</time>
      </trkpt>
      <trkpt lat="45.75333" lon="5.7248">
        <ele>337.6</ele>
        <time>2022-09-25T14:54:35Z</time>
      </trkpt>
      <trkpt lat="45.75335" lon="5.72482">
        <ele>337.7</ele>
        <time>2022-09-25T14:54:36Z</time>
      </trkpt>
      <trkpt lat="45.75336" lon="5.72485">
        <ele>337.9</ele>
        <time>2022-09-25T14:54:37Z</time>
      </trkpt>
      <trkpt lat="45.75337" lon="5.72486">
        <ele>337.9</ele>
        <time>2022-09-25T14:54:38Z</time>
      </trkpt>
      <trkpt lat="45.75338" lon="5.72488">
        <ele>338.1</ele>
        <time>2022-09-25T14:54:39Z</time>
      </trkpt>
      <trkpt lat="45.75339" lon="5.72489">
        <ele>338.2</ele>
        <time>2022-09-25T14:54:40Z</time>
      </trkpt>
      <trkpt lat="45.75339" lon="5.7249">
        <ele>338.2</ele>
        <time>2022-09-25T14:54:41Z</time>
      </trkpt>
      <trkpt lat="45.75341" lon="5.72494">
        <ele>338.4</ele>
        <time>2022-09-25T14:54:42Z</time>
      </trkpt>
      <trkpt lat="45.75342" lon="5.72494">
        <ele>338.5</ele>
        <time>2022-09-25T14:54:43Z</time>
      </trkpt>
      <trkpt lat="45.75343" lon="5.72497">
        <ele>338.6</ele>
        <time>2022-09-25T14:54:44Z</time>
      </trkpt>
      <trkpt lat="45.75344" lon="5.72499">
        <ele>338.7</ele>
        <time>2022-09-25T14:54:45Z</time>
      </trkpt>
      <trkpt lat="45.75345" lon="5.72501">
        <ele>338.9</ele>
        <time>2022-09-25T14:54:46Z</time>
      </trkpt>
      <trkpt lat="45.75346" lon="5.72503">
        <ele>339</ele>
        <time>2022-09-25T14:54:47Z</time>
      </trkpt>
      <trkpt lat="45.75347" lon="5.72505">
        <ele>339.1</ele>
        <time>2022-09-25T14:54:48Z</time>
      </trkpt>
      <trkpt lat="45.75348" lon="5.72507">
        <ele>339.2</ele>
        <time>2022-09-25T14:54:49Z</time>
      </trkpt>
      <trkpt lat="45.75348" lon="5.7251">
        <ele>339.3</ele>
        <time>2022-09-25T14:54:50Z</time>
      </trkpt>
      <trkpt lat="45.75349" lon="5.72512">
        <ele>339.4</ele>
        <time>2022-09-25T14:54:51Z</time>
      </trkpt>
      <trkpt lat="45.75349" lon="5.72514">
        <ele>339.6</ele>
        <time>2022-09-25T14:54:52Z</time>
      </trkpt>
      <trkpt lat="45.7535" lon="5.72515">
        <ele>339.7</ele>
        <time>2022-09-25T14:54:53Z</time>
      </trkpt>
      <trkpt lat="45.75352" lon="5.72519">
        <ele>339.9</ele>
        <time>2022-09-25T14:54:54Z</time>
      </trkpt>
      <trkpt lat="45.75352" lon="5.7252">
        <ele>339.9</ele>
        <time>2022-09-25T14:54:55Z</time>
      </trkpt>
      <trkpt lat="45.75353" lon="5.72524">
        <ele>340.1</ele>
        <time>2022-09-25T14:54:56Z</time>
      </trkpt>
      <trkpt lat="45.75354" lon="5.72525">
        <ele>340.2</ele>
        <time>2022-09-25T14:54:57Z</time>
      </trkpt>
      <trkpt lat="45.75354" lon="5.72527">
        <ele>340.3</ele>
        <time>2022-09-25T14:54:58Z</time>
      </trkpt>
      <trkpt lat="45.75355" lon="5.72529">
        <ele>340.4</ele>
        <time>2022-09-25T14:54:59Z</time>
      </trkpt>
      <trkpt lat="45.75356" lon="5.72531">
        <ele>340.5</ele>
        <time>2022-09-25T14:55:00Z</time>
      </trkpt>
      <trkpt lat="45.75357" lon="5.72533">
        <ele>340.7</ele>
        <time>2022-09-25T14:55:01Z</time>
      </trkpt>
      <trkpt lat="45.75358" lon="5.72535">
        <ele>340.8</ele>
        <time>2022-09-25T14:55:02Z</time>
      </trkpt>
      <trkpt lat="45.75358" lon="5.72537">
        <ele>340.9</ele>
        <time>2022-09-25T14:55:03Z</time>
      </trkpt>
      <trkpt lat="45.75359" lon="5.72539">
        <ele>341</ele>
        <time>2022-09-25T14:55:04Z</time>
      </trkpt>
      <trkpt lat="45.7536" lon="5.72541">
        <ele>341.1</ele>
        <time>2022-09-25T14:55:05Z</time>
      </trkpt>
      <trkpt lat="45.75361" lon="5.72543">
        <ele>341.2</ele>
        <time>2022-09-25T14:55:06Z</time>
      </trkpt>
      <trkpt lat="45.75361" lon="5.72545">
        <ele>341.3</ele>
        <time>2022-09-25T14:55:07Z</time>
      </trkpt>
      <trkpt lat="45.75362" lon="5.72547">
        <ele>341.5</ele>
        <time>2022-09-25T14:55:08Z</time>
      </trkpt>
      <trkpt lat="45.75363" lon="5.72549">
        <ele>341.6</ele>
        <time>2022-09-25T14:55:09Z</time>
      </trkpt>
      <trkpt lat="45.75364" lon="5.72552">
        <ele>341.8</ele>
        <time>2022-09-25T14:55:10Z</time>
      </trkpt>
      <trkpt lat="45.75365" lon="5.72553">
        <ele>341.9</ele>
        <time>2022-09-25T14:55:11Z</time>
      </trkpt>
      <trkpt lat="45.75365" lon="5.72555">
        <ele>341.9</ele>
        <time>2022-09-25T14:55:13Z</time>
      </trkpt>
      <trkpt lat="45.75367" lon="5.72556">
        <ele>342.1</ele>
        <time>2022-09-25T14:55:14Z</time>
      </trkpt>
      <trkpt lat="45.75367" lon="5.72558">
        <ele>342.2</ele>
        <time>2022-09-25T14:55:15Z</time>
      </trkpt>
      <trkpt lat="45.75368" lon="5.7256">
        <ele>342.3</ele>
        <time>2022-09-25T14:55:16Z</time>
      </trkpt>
      <trkpt lat="45.75369" lon="5.72562">
        <ele>342.4</ele>
        <time>2022-09-25T14:55:17Z</time>
      </trkpt>
      <trkpt lat="45.75369" lon="5.72564">
        <ele>342.5</ele>
        <time>2022-09-25T14:55:18Z</time>
      </trkpt>
      <trkpt lat="45.7537" lon="5.72565">
        <ele>342.6</ele>
        <time>2022-09-25T14:55:19Z</time>
      </trkpt>
      <trkpt lat="45.7537" lon="5.72568">
        <ele>342.7</ele>
        <time>2022-09-25T14:55:20Z</time>
      </trkpt>
      <trkpt lat="45.75371" lon="5.72571">
        <ele>342.9</ele>
        <time>2022-09-25T14:55:21Z</time>
      </trkpt>
      <trkpt lat="45.75371" lon="5.72572">
        <ele>343</ele>
        <time>2022-09-25T14:55:22Z</time>
      </trkpt>
      <trkpt lat="45.75372" lon="5.72573">
        <ele>343</ele>
        <time>2022-09-25T14:55:23Z</time>
      </trkpt>
      <trkpt lat="45.75372" lon="5.72577">
        <ele>343.2</ele>
        <time>2022-09-25T14:55:24Z</time>
      </trkpt>
      <trkpt lat="45.75373" lon="5.72578">
        <ele>343.3</ele>
        <time>2022-09-25T14:55:25Z</time>
      </trkpt>
      <trkpt lat="45.75373" lon="5.7258">
        <ele>343.4</ele>
        <time>2022-09-25T14:55:26Z</time>
      </trkpt>
      <trkpt lat="45.75373" lon="5.72581">
        <ele>343.5</ele>
        <time>2022-09-25T14:55:27Z</time>
      </trkpt>
      <trkpt lat="45.75373" lon="5.72584">
        <ele>343.6</ele>
        <time>2022-09-25T14:55:28Z</time>
      </trkpt>
      <trkpt lat="45.75374" lon="5.72587">
        <ele>343.8</ele>
        <time>2022-09-25T14:55:29Z</time>
      </trkpt>
      <trkpt lat="45.75375" lon="5.72589">
        <ele>343.9</ele>
        <time>2022-09-25T14:55:30Z</time>
      </trkpt>
      <trkpt lat="45.75375" lon="5.72592">
        <ele>344</ele>
        <time>2022-09-25T14:55:31Z</time>
      </trkpt>
      <trkpt lat="45.75376" lon="5.72594">
        <ele>344.1</ele>
        <time>2022-09-25T14:55:32Z</time>
      </trkpt>
      <trkpt lat="45.75376" lon="5.72596">
        <ele>344.2</ele>
        <time>2022-09-25T14:55:33Z</time>
      </trkpt>
      <trkpt lat="45.75376" lon="5.72599">
        <ele>344.4</ele>
        <time>2022-09-25T14:55:34Z</time>
      </trkpt>
      <trkpt lat="45.75376" lon="5.72601">
        <ele>344.5</ele>
        <time>2022-09-25T14:55:35Z</time>
      </trkpt>
      <trkpt lat="45.75376" lon="5.72604">
        <ele>344.6</ele>
        <time>2022-09-25T14:55:36Z</time>
      </trkpt>
      <trkpt lat="45.75376" lon="5.72606">
        <ele>344.7</ele>
        <time>2022-09-25T14:55:37Z</time>
      </trkpt>
      <trkpt lat="45.75376" lon="5.72608">
        <ele>344.8</ele>
        <time>2022-09-25T14:55:38Z</time>
      </trkpt>
      <trkpt lat="45.75376" lon="5.7261">
        <ele>344.9</ele>
        <time>2022-09-25T14:55:39Z</time>
      </trkpt>
      <trkpt lat="45.75376" lon="5.72612">
        <ele>345</ele>
        <time>2022-09-25T14:55:40Z</time>
      </trkpt>
      <trkpt lat="45.75375" lon="5.72615">
        <ele>345.2</ele>
        <time>2022-09-25T14:55:41Z</time>
      </trkpt>
      <trkpt lat="45.75375" lon="5.72617">
        <ele>345.3</ele>
        <time>2022-09-25T14:55:42Z</time>
      </trkpt>
      <trkpt lat="45.75374" lon="5.72619">
        <ele>345.4</ele>
        <time>2022-09-25T14:55:43Z</time>
      </trkpt>
      <trkpt lat="45.75374" lon="5.72621">
        <ele>345.5</ele>
        <time>2022-09-25T14:55:44Z</time>
      </trkpt>
      <trkpt lat="45.75373" lon="5.72625">
        <ele>345.7</ele>
        <time>2022-09-25T14:55:45Z</time>
      </trkpt>
      <trkpt lat="45.75372" lon="5.72627">
        <ele>345.8</ele>
        <time>2022-09-25T14:55:46Z</time>
      </trkpt>
      <trkpt lat="45.75371" lon="5.72628">
        <ele>345.9</ele>
        <time>2022-09-25T14:55:47Z</time>
      </trkpt>
      <trkpt lat="45.75371" lon="5.7263">
        <ele>346</ele>
        <time>2022-09-25T14:55:48Z</time>
      </trkpt>
      <trkpt lat="45.7537" lon="5.72632">
        <ele>346.1</ele>
        <time>2022-09-25T14:55:49Z</time>
      </trkpt>
      <trkpt lat="45.75369" lon="5.72635">
        <ele>346.2</ele>
        <time>2022-09-25T14:55:50Z</time>
      </trkpt>
      <trkpt lat="45.75368" lon="5.72636">
        <ele>346.3</ele>
        <time>2022-09-25T14:55:51Z</time>
      </trkpt>
      <trkpt lat="45.75368" lon="5.72637">
        <ele>346.4</ele>
        <time>2022-09-25T14:55:52Z</time>
      </trkpt>
      <trkpt lat="45.75368" lon="5.72638">
        <ele>346.4</ele>
        <time>2022-09-25T14:55:53Z</time>
      </trkpt>
      <trkpt lat="45.75367" lon="5.7264">
        <ele>346.5</ele>
        <time>2022-09-25T14:55:54Z</time>
      </trkpt>
      <trkpt lat="45.75366" lon="5.72641">
        <ele>346.6</ele>
        <time>2022-09-25T14:55:55Z</time>
      </trkpt>
      <trkpt lat="45.75364" lon="5.72644">
        <ele>346.8</ele>
        <time>2022-09-25T14:55:56Z</time>
      </trkpt>
      <trkpt lat="45.75364" lon="5.72646">
        <ele>346.9</ele>
        <time>2022-09-25T14:55:57Z</time>
      </trkpt>
      <trkpt lat="45.75362" lon="5.72649">
        <ele>347.1</ele>
        <time>2022-09-25T14:55:58Z</time>
      </trkpt>
      <trkpt lat="45.75362" lon="5.7265">
        <ele>347.2</ele>
        <time>2022-09-25T14:55:59Z</time>
      </trkpt>
      <trkpt lat="45.75361" lon="5.72651">
        <ele>347.3</ele>
        <time>2022-09-25T14:56:00Z</time>
      </trkpt>
      <trkpt lat="45.7536" lon="5.72654">
        <ele>347.5</ele>
        <time>2022-09-25T14:56:01Z</time>
      </trkpt>
      <trkpt lat="45.75359" lon="5.72656">
        <ele>347.6</ele>
        <time>2022-09-25T14:56:02Z</time>
      </trkpt>
      <trkpt lat="45.75358" lon="5.72657">
        <ele>347.7</ele>
        <time>2022-09-25T14:56:03Z</time>
      </trkpt>
      <trkpt lat="45.75357" lon="5.72658">
        <ele>347.8</ele>
        <time>2022-09-25T14:56:04Z</time>
      </trkpt>
      <trkpt lat="45.75357" lon="5.7266">
        <ele>347.9</ele>
        <time>2022-09-25T14:56:05Z</time>
      </trkpt>
      <trkpt lat="45.75357" lon="5.72661">
        <ele>348</ele>
        <time>2022-09-25T14:56:06Z</time>
      </trkpt>
      <trkpt lat="45.75356" lon="5.72663">
        <ele>348.1</ele>
        <time>2022-09-25T14:56:07Z</time>
      </trkpt>
      <trkpt lat="45.75355" lon="5.72665">
        <ele>348.3</ele>
        <time>2022-09-25T14:56:08Z</time>
      </trkpt>
      <trkpt lat="45.75354" lon="5.72669">
        <ele>348.5</ele>
        <time>2022-09-25T14:56:09Z</time>
      </trkpt>
      <trkpt lat="45.75353" lon="5.72671">
        <ele>348.6</ele>
        <time>2022-09-25T14:56:10Z</time>
      </trkpt>
      <trkpt lat="45.75353" lon="5.72674">
        <ele>348.8</ele>
        <time>2022-09-25T14:56:11Z</time>
      </trkpt>
      <trkpt lat="45.75353" lon="5.72675">
        <ele>348.9</ele>
        <time>2022-09-25T14:56:12Z</time>
      </trkpt>
      <trkpt lat="45.75352" lon="5.72676">
        <ele>348.9</ele>
        <time>2022-09-25T14:56:13Z</time>
      </trkpt>
      <trkpt lat="45.75352" lon="5.72678">
        <ele>349</ele>
        <time>2022-09-25T14:56:14Z</time>
      </trkpt>
      <trkpt lat="45.75351" lon="5.72679">
        <ele>349</ele>
        <time>2022-09-25T14:56:15Z</time>
      </trkpt>
      <trkpt lat="45.75351" lon="5.72681">
        <ele>349.1</ele>
        <time>2022-09-25T14:56:16Z</time>
      </trkpt>
      <trkpt lat="45.75351" lon="5.72682">
        <ele>349.1</ele>
        <time>2022-09-25T14:56:17Z</time>
      </trkpt>
      <trkpt lat="45.75351" lon="5.72685">
        <ele>349.2</ele>
        <time>2022-09-25T14:56:18Z</time>
      </trkpt>
      <trkpt lat="45.7535" lon="5.72688">
        <ele>349.3</ele>
        <time>2022-09-25T14:56:19Z</time>
      </trkpt>
      <trkpt lat="45.7535" lon="5.7269">
        <ele>349.4</ele>
        <time>2022-09-25T14:56:20Z</time>
      </trkpt>
      <trkpt lat="45.7535" lon="5.72691">
        <ele>349.4</ele>
        <time>2022-09-25T14:56:21Z</time>
      </trkpt>
      <trkpt lat="45.75349" lon="5.72693">
        <ele>349.5</ele>
        <time>2022-09-25T14:56:22Z</time>
      </trkpt>
      <trkpt lat="45.75349" lon="5.72694">
        <ele>349.5</ele>
        <time>2022-09-25T14:56:23Z</time>
      </trkpt>
      <trkpt lat="45.75349" lon="5.72697">
        <ele>349.6</ele>
        <time>2022-09-25T14:56:24Z</time>
      </trkpt>
      <trkpt lat="45.75349" lon="5.72698">
        <ele>349.7</ele>
        <time>2022-09-25T14:56:25Z</time>
      </trkpt>
      <trkpt lat="45.75349" lon="5.727">
        <ele>349.7</ele>
        <time>2022-09-25T14:56:26Z</time>
      </trkpt>
      <trkpt lat="45.75348" lon="5.72701">
        <ele>349.7</ele>
        <time>2022-09-25T14:56:27Z</time>
      </trkpt>
      <trkpt lat="45.75348" lon="5.72702">
        <ele>349.8</ele>
        <time>2022-09-25T14:56:28Z</time>
      </trkpt>
      <trkpt lat="45.75347" lon="5.72704">
        <ele>349.9</ele>
        <time>2022-09-25T14:56:29Z</time>
      </trkpt>
      <trkpt lat="45.75347" lon="5.72706">
        <ele>349.9</ele>
        <time>2022-09-25T14:56:30Z</time>
      </trkpt>
      <trkpt lat="45.75347" lon="5.72708">
        <ele>350</ele>
        <time>2022-09-25T14:56:31Z</time>
      </trkpt>
      <trkpt lat="45.75345" lon="5.7271">
        <ele>350.2</ele>
        <time>2022-09-25T14:56:32Z</time>
      </trkpt>
      <trkpt lat="45.75345" lon="5.72711">
        <ele>350.3</ele>
        <time>2022-09-25T14:56:33Z</time>
      </trkpt>
      <trkpt lat="45.75344" lon="5.72713">
        <ele>350.4</ele>
        <time>2022-09-25T14:56:34Z</time>
      </trkpt>
      <trkpt lat="45.75343" lon="5.72715">
        <ele>350.5</ele>
        <time>2022-09-25T14:56:35Z</time>
      </trkpt>
      <trkpt lat="45.75341" lon="5.72718">
        <ele>350.7</ele>
        <time>2022-09-25T14:56:36Z</time>
      </trkpt>
      <trkpt lat="45.75339" lon="5.72721">
        <ele>351</ele>
        <time>2022-09-25T14:56:37Z</time>
      </trkpt>
      <trkpt lat="45.75339" lon="5.72722">
        <ele>351</ele>
        <time>2022-09-25T14:56:38Z</time>
      </trkpt>
      <trkpt lat="45.75337" lon="5.72725">
        <ele>351.3</ele>
        <time>2022-09-25T14:56:39Z</time>
      </trkpt>
      <trkpt lat="45.75336" lon="5.72726">
        <ele>351.3</ele>
        <time>2022-09-25T14:56:40Z</time>
      </trkpt>
      <trkpt lat="45.75334" lon="5.72728">
        <ele>351.6</ele>
        <time>2022-09-25T14:56:41Z</time>
      </trkpt>
      <trkpt lat="45.75333" lon="5.72728">
        <ele>351.6</ele>
        <time>2022-09-25T14:56:42Z</time>
      </trkpt>
      <trkpt lat="45.7533" lon="5.72729">
        <ele>351.9</ele>
        <time>2022-09-25T14:56:43Z</time>
      </trkpt>
      <trkpt lat="45.75329" lon="5.7273">
        <ele>352</ele>
        <time>2022-09-25T14:56:44Z</time>
      </trkpt>
      <trkpt lat="45.75326" lon="5.7273">
        <ele>352.2</ele>
        <time>2022-09-25T14:56:45Z</time>
      </trkpt>
      <trkpt lat="45.75325" lon="5.72731">
        <ele>352.2</ele>
        <time>2022-09-25T14:56:46Z</time>
      </trkpt>
      <trkpt lat="45.75322" lon="5.72732">
        <ele>352.5</ele>
        <time>2022-09-25T14:56:47Z</time>
      </trkpt>
      <trkpt lat="45.75321" lon="5.72732">
        <ele>352.6</ele>
        <time>2022-09-25T14:56:48Z</time>
      </trkpt>
      <trkpt lat="45.75321" lon="5.72732">
        <ele>352.6</ele>
        <time>2022-09-25T14:56:49Z</time>
      </trkpt>
      <trkpt lat="45.7532" lon="5.72732">
        <ele>352.7</ele>
        <time>2022-09-25T14:56:50Z</time>
      </trkpt>
      <trkpt lat="45.75319" lon="5.72732">
        <ele>352.8</ele>
        <time>2022-09-25T14:56:51Z</time>
      </trkpt>
      <trkpt lat="45.75316" lon="5.72732">
        <ele>353</ele>
        <time>2022-09-25T14:56:52Z</time>
      </trkpt>
      <trkpt lat="45.75315" lon="5.72731">
        <ele>353.1</ele>
        <time>2022-09-25T14:56:53Z</time>
      </trkpt>
      <trkpt lat="45.75314" lon="5.72731">
        <ele>353.2</ele>
        <time>2022-09-25T14:56:54Z</time>
      </trkpt>
      <trkpt lat="45.75312" lon="5.7273">
        <ele>353.4</ele>
        <time>2022-09-25T14:56:55Z</time>
      </trkpt>
      <trkpt lat="45.75311" lon="5.72729">
        <ele>353.5</ele>
        <time>2022-09-25T14:56:56Z</time>
      </trkpt>
      <trkpt lat="45.7531" lon="5.72728">
        <ele>353.6</ele>
        <time>2022-09-25T14:56:57Z</time>
      </trkpt>
      <trkpt lat="45.75307" lon="5.72727">
        <ele>353.8</ele>
        <time>2022-09-25T14:56:58Z</time>
      </trkpt>
      <trkpt lat="45.75306" lon="5.72726">
        <ele>353.8</ele>
        <time>2022-09-25T14:56:59Z</time>
      </trkpt>
      <trkpt lat="45.75304" lon="5.72724">
        <ele>353.8</ele>
        <time>2022-09-25T14:57:00Z</time>
      </trkpt>
      <trkpt lat="45.75303" lon="5.72724">
        <ele>353.8</ele>
        <time>2022-09-25T14:57:01Z</time>
      </trkpt>
      <trkpt lat="45.75303" lon="5.72723">
        <ele>353.9</ele>
        <time>2022-09-25T14:57:02Z</time>
      </trkpt>
      <trkpt lat="45.75301" lon="5.72721">
        <ele>354</ele>
        <time>2022-09-25T14:57:03Z</time>
      </trkpt>
      <trkpt lat="45.753" lon="5.72719">
        <ele>354.1</ele>
        <time>2022-09-25T14:57:04Z</time>
      </trkpt>
      <trkpt lat="45.75299" lon="5.72718">
        <ele>354.1</ele>
        <time>2022-09-25T14:57:05Z</time>
      </trkpt>
      <trkpt lat="45.75298" lon="5.72717">
        <ele>354.2</ele>
        <time>2022-09-25T14:57:06Z</time>
      </trkpt>
      <trkpt lat="45.75298" lon="5.72715">
        <ele>354.3</ele>
        <time>2022-09-25T14:57:07Z</time>
      </trkpt>
      <trkpt lat="45.75297" lon="5.72714">
        <ele>354.4</ele>
        <time>2022-09-25T14:57:08Z</time>
      </trkpt>
      <trkpt lat="45.75297" lon="5.72713">
        <ele>354.4</ele>
        <time>2022-09-25T14:57:09Z</time>
      </trkpt>
      <trkpt lat="45.75296" lon="5.7271">
        <ele>354.6</ele>
        <time>2022-09-25T14:57:10Z</time>
      </trkpt>
      <trkpt lat="45.75295" lon="5.72709">
        <ele>354.6</ele>
        <time>2022-09-25T14:57:11Z</time>
      </trkpt>
      <trkpt lat="45.75295" lon="5.72706">
        <ele>354.8</ele>
        <time>2022-09-25T14:57:12Z</time>
      </trkpt>
      <trkpt lat="45.75294" lon="5.72705">
        <ele>354.8</ele>
        <time>2022-09-25T14:57:13Z</time>
      </trkpt>
      <trkpt lat="45.75294" lon="5.72703">
        <ele>354.9</ele>
        <time>2022-09-25T14:57:14Z</time>
      </trkpt>
      <trkpt lat="45.75294" lon="5.72699">
        <ele>355.1</ele>
        <time>2022-09-25T14:57:15Z</time>
      </trkpt>
      <trkpt lat="45.75293" lon="5.72697">
        <ele>355.2</ele>
        <time>2022-09-25T14:57:16Z</time>
      </trkpt>
      <trkpt lat="45.75293" lon="5.72695">
        <ele>355.3</ele>
        <time>2022-09-25T14:57:17Z</time>
      </trkpt>
      <trkpt lat="45.75292" lon="5.72694">
        <ele>355.4</ele>
        <time>2022-09-25T14:57:19Z</time>
      </trkpt>
      <trkpt lat="45.75292" lon="5.72692">
        <ele>355.4</ele>
        <time>2022-09-25T14:57:20Z</time>
      </trkpt>
      <trkpt lat="45.75291" lon="5.7269">
        <ele>355.6</ele>
        <time>2022-09-25T14:57:21Z</time>
      </trkpt>
      <trkpt lat="45.7529" lon="5.72688">
        <ele>355.7</ele>
        <time>2022-09-25T14:57:22Z</time>
      </trkpt>
      <trkpt lat="45.75291" lon="5.72684">
        <ele>355.8</ele>
        <time>2022-09-25T14:57:23Z</time>
      </trkpt>
      <trkpt lat="45.75291" lon="5.72683">
        <ele>355.9</ele>
        <time>2022-09-25T14:57:24Z</time>
      </trkpt>
      <trkpt lat="45.7529" lon="5.72679">
        <ele>356</ele>
        <time>2022-09-25T14:57:25Z</time>
      </trkpt>
      <trkpt lat="45.7529" lon="5.72677">
        <ele>356.1</ele>
        <time>2022-09-25T14:57:26Z</time>
      </trkpt>
      <trkpt lat="45.7529" lon="5.72676">
        <ele>356.2</ele>
        <time>2022-09-25T14:57:27Z</time>
      </trkpt>
      <trkpt lat="45.7529" lon="5.72674">
        <ele>356.3</ele>
        <time>2022-09-25T14:57:28Z</time>
      </trkpt>
      <trkpt lat="45.75289" lon="5.72672">
        <ele>356.4</ele>
        <time>2022-09-25T14:57:29Z</time>
      </trkpt>
      <trkpt lat="45.75288" lon="5.7267">
        <ele>356.5</ele>
        <time>2022-09-25T14:57:30Z</time>
      </trkpt>
      <trkpt lat="45.75288" lon="5.72668">
        <ele>356.6</ele>
        <time>2022-09-25T14:57:31Z</time>
      </trkpt>
      <trkpt lat="45.75287" lon="5.72666">
        <ele>356.7</ele>
        <time>2022-09-25T14:57:32Z</time>
      </trkpt>
      <trkpt lat="45.75286" lon="5.72664">
        <ele>356.8</ele>
        <time>2022-09-25T14:57:33Z</time>
      </trkpt>
      <trkpt lat="45.75285" lon="5.72661">
        <ele>357</ele>
        <time>2022-09-25T14:57:34Z</time>
      </trkpt>
      <trkpt lat="45.75285" lon="5.7266">
        <ele>357</ele>
        <time>2022-09-25T14:57:35Z</time>
      </trkpt>
      <trkpt lat="45.75284" lon="5.72658">
        <ele>357.1</ele>
        <time>2022-09-25T14:57:36Z</time>
      </trkpt>
      <trkpt lat="45.75283" lon="5.72655">
        <ele>357.2</ele>
        <time>2022-09-25T14:57:37Z</time>
      </trkpt>
      <trkpt lat="45.75282" lon="5.72652">
        <ele>357.4</ele>
        <time>2022-09-25T14:57:38Z</time>
      </trkpt>
      <trkpt lat="45.75282" lon="5.72651">
        <ele>357.5</ele>
        <time>2022-09-25T14:57:39Z</time>
      </trkpt>
      <trkpt lat="45.7528" lon="5.72647">
        <ele>357.7</ele>
        <time>2022-09-25T14:57:40Z</time>
      </trkpt>
      <trkpt lat="45.75279" lon="5.72645">
        <ele>357.8</ele>
        <time>2022-09-25T14:57:41Z</time>
      </trkpt>
      <trkpt lat="45.75278" lon="5.72644">
        <ele>357.9</ele>
        <time>2022-09-25T14:57:42Z</time>
      </trkpt>
      <trkpt lat="45.75278" lon="5.72642">
        <ele>358</ele>
        <time>2022-09-25T14:57:43Z</time>
      </trkpt>
      <trkpt lat="45.75276" lon="5.7264">
        <ele>358.1</ele>
        <time>2022-09-25T14:57:44Z</time>
      </trkpt>
      <trkpt lat="45.75276" lon="5.72638">
        <ele>358.2</ele>
        <time>2022-09-25T14:57:45Z</time>
      </trkpt>
      <trkpt lat="45.75275" lon="5.72636">
        <ele>358.3</ele>
        <time>2022-09-25T14:57:46Z</time>
      </trkpt>
      <trkpt lat="45.75273" lon="5.72634">
        <ele>358.4</ele>
        <time>2022-09-25T14:57:47Z</time>
      </trkpt>
      <trkpt lat="45.75271" lon="5.72631">
        <ele>358.6</ele>
        <time>2022-09-25T14:57:48Z</time>
      </trkpt>
      <trkpt lat="45.75269" lon="5.7263">
        <ele>358.7</ele>
        <time>2022-09-25T14:57:49Z</time>
      </trkpt>
      <trkpt lat="45.75268" lon="5.72628">
        <ele>358.8</ele>
        <time>2022-09-25T14:57:50Z</time>
      </trkpt>
      <trkpt lat="45.75266" lon="5.72626">
        <ele>359</ele>
        <time>2022-09-25T14:57:51Z</time>
      </trkpt>
      <trkpt lat="45.75265" lon="5.72626">
        <ele>359</ele>
        <time>2022-09-25T14:57:52Z</time>
      </trkpt>
      <trkpt lat="45.75263" lon="5.72624">
        <ele>359.1</ele>
        <time>2022-09-25T14:57:53Z</time>
      </trkpt>
      <trkpt lat="45.75262" lon="5.72623">
        <ele>359.3</ele>
        <time>2022-09-25T14:57:54Z</time>
      </trkpt>
      <trkpt lat="45.7526" lon="5.7262">
        <ele>359.4</ele>
        <time>2022-09-25T14:57:55Z</time>
      </trkpt>
      <trkpt lat="45.75259" lon="5.72619">
        <ele>359.5</ele>
        <time>2022-09-25T14:57:56Z</time>
      </trkpt>
      <trkpt lat="45.75257" lon="5.72616">
        <ele>359.7</ele>
        <time>2022-09-25T14:57:57Z</time>
      </trkpt>
      <trkpt lat="45.75256" lon="5.72615">
        <ele>359.7</ele>
        <time>2022-09-25T14:57:58Z</time>
      </trkpt>
      <trkpt lat="45.75254" lon="5.72612">
        <ele>359.9</ele>
        <time>2022-09-25T14:57:59Z</time>
      </trkpt>
      <trkpt lat="45.75253" lon="5.72611">
        <ele>360</ele>
        <time>2022-09-25T14:58:00Z</time>
      </trkpt>
      <trkpt lat="45.75252" lon="5.7261">
        <ele>360.1</ele>
        <time>2022-09-25T14:58:01Z</time>
      </trkpt>
      <trkpt lat="45.75251" lon="5.72608">
        <ele>360.2</ele>
        <time>2022-09-25T14:58:02Z</time>
      </trkpt>
      <trkpt lat="45.75249" lon="5.72607">
        <ele>360.3</ele>
        <time>2022-09-25T14:58:03Z</time>
      </trkpt>
      <trkpt lat="45.75248" lon="5.72606">
        <ele>360.4</ele>
        <time>2022-09-25T14:58:04Z</time>
      </trkpt>
      <trkpt lat="45.75246" lon="5.72605">
        <ele>360.5</ele>
        <time>2022-09-25T14:58:05Z</time>
      </trkpt>
      <trkpt lat="45.75245" lon="5.72604">
        <ele>360.6</ele>
        <time>2022-09-25T14:58:06Z</time>
      </trkpt>
      <trkpt lat="45.75244" lon="5.72602">
        <ele>360.7</ele>
        <time>2022-09-25T14:58:07Z</time>
      </trkpt>
      <trkpt lat="45.75243" lon="5.72601">
        <ele>360.8</ele>
        <time>2022-09-25T14:58:08Z</time>
      </trkpt>
      <trkpt lat="45.75241" lon="5.726">
        <ele>360.9</ele>
        <time>2022-09-25T14:58:09Z</time>
      </trkpt>
      <trkpt lat="45.7524" lon="5.72598">
        <ele>361</ele>
        <time>2022-09-25T14:58:10Z</time>
      </trkpt>
      <trkpt lat="45.75239" lon="5.72597">
        <ele>361.1</ele>
        <time>2022-09-25T14:58:11Z</time>
      </trkpt>
      <trkpt lat="45.75237" lon="5.72595">
        <ele>361.2</ele>
        <time>2022-09-25T14:58:12Z</time>
      </trkpt>
      <trkpt lat="45.75235" lon="5.72593">
        <ele>361.3</ele>
        <time>2022-09-25T14:58:13Z</time>
      </trkpt>
      <trkpt lat="45.75235" lon="5.72592">
        <ele>361.4</ele>
        <time>2022-09-25T14:58:14Z</time>
      </trkpt>
      <trkpt lat="45.75233" lon="5.7259">
        <ele>361.5</ele>
        <time>2022-09-25T14:58:15Z</time>
      </trkpt>
      <trkpt lat="45.75232" lon="5.72589">
        <ele>361.6</ele>
        <time>2022-09-25T14:58:16Z</time>
      </trkpt>
      <trkpt lat="45.7523" lon="5.72586">
        <ele>361.7</ele>
        <time>2022-09-25T14:58:17Z</time>
      </trkpt>
      <trkpt lat="45.75229" lon="5.72586">
        <ele>361.8</ele>
        <time>2022-09-25T14:58:18Z</time>
      </trkpt>
      <trkpt lat="45.75228" lon="5.72584">
        <ele>361.9</ele>
        <time>2022-09-25T14:58:19Z</time>
      </trkpt>
      <trkpt lat="45.75227" lon="5.72582">
        <ele>362</ele>
        <time>2022-09-25T14:58:20Z</time>
      </trkpt>
      <trkpt lat="45.75226" lon="5.7258">
        <ele>362.1</ele>
        <time>2022-09-25T14:58:21Z</time>
      </trkpt>
      <trkpt lat="45.75225" lon="5.72578">
        <ele>362.2</ele>
        <time>2022-09-25T14:58:22Z</time>
      </trkpt>
      <trkpt lat="45.75223" lon="5.72574">
        <ele>362.3</ele>
        <time>2022-09-25T14:58:23Z</time>
      </trkpt>
      <trkpt lat="45.75223" lon="5.72574">
        <ele>362.4</ele>
        <time>2022-09-25T14:58:24Z</time>
      </trkpt>
      <trkpt lat="45.75222" lon="5.72573">
        <ele>362.4</ele>
        <time>2022-09-25T14:58:25Z</time>
      </trkpt>
      <trkpt lat="45.7522" lon="5.7257">
        <ele>362.5</ele>
        <time>2022-09-25T14:58:26Z</time>
      </trkpt>
      <trkpt lat="45.75219" lon="5.72569">
        <ele>362.6</ele>
        <time>2022-09-25T14:58:27Z</time>
      </trkpt>
      <trkpt lat="45.75218" lon="5.72567">
        <ele>362.7</ele>
        <time>2022-09-25T14:58:28Z</time>
      </trkpt>
      <trkpt lat="45.75216" lon="5.72564">
        <ele>362.9</ele>
        <time>2022-09-25T14:58:29Z</time>
      </trkpt>
      <trkpt lat="45.75216" lon="5.72563">
        <ele>362.9</ele>
        <time>2022-09-25T14:58:30Z</time>
      </trkpt>
      <trkpt lat="45.75214" lon="5.72561">
        <ele>363</ele>
        <time>2022-09-25T14:58:31Z</time>
      </trkpt>
      <trkpt lat="45.75213" lon="5.72559">
        <ele>363.1</ele>
        <time>2022-09-25T14:58:32Z</time>
      </trkpt>
      <trkpt lat="45.75211" lon="5.72556">
        <ele>363.2</ele>
        <time>2022-09-25T14:58:33Z</time>
      </trkpt>
      <trkpt lat="45.75211" lon="5.72556">
        <ele>363.3</ele>
        <time>2022-09-25T14:58:34Z</time>
      </trkpt>
      <trkpt lat="45.7521" lon="5.72554">
        <ele>363.4</ele>
        <time>2022-09-25T14:58:35Z</time>
      </trkpt>
      <trkpt lat="45.75209" lon="5.72553">
        <ele>363.4</ele>
        <time>2022-09-25T14:58:36Z</time>
      </trkpt>
      <trkpt lat="45.75208" lon="5.7255">
        <ele>363.6</ele>
        <time>2022-09-25T14:58:37Z</time>
      </trkpt>
      <trkpt lat="45.75207" lon="5.72549">
        <ele>363.6</ele>
        <time>2022-09-25T14:58:38Z</time>
      </trkpt>
      <trkpt lat="45.75206" lon="5.72547">
        <ele>363.8</ele>
        <time>2022-09-25T14:58:39Z</time>
      </trkpt>
      <trkpt lat="45.75204" lon="5.72545">
        <ele>363.8</ele>
        <time>2022-09-25T14:58:40Z</time>
      </trkpt>
      <trkpt lat="45.75204" lon="5.72543">
        <ele>363.9</ele>
        <time>2022-09-25T14:58:41Z</time>
      </trkpt>
      <trkpt lat="45.75203" lon="5.72541">
        <ele>364</ele>
        <time>2022-09-25T14:58:42Z</time>
      </trkpt>
      <trkpt lat="45.752" lon="5.72539">
        <ele>364.2</ele>
        <time>2022-09-25T14:58:43Z</time>
      </trkpt>
      <trkpt lat="45.752" lon="5.72538">
        <ele>364.3</ele>
        <time>2022-09-25T14:58:44Z</time>
      </trkpt>
      <trkpt lat="45.75198" lon="5.72534">
        <ele>364.5</ele>
        <time>2022-09-25T14:58:45Z</time>
      </trkpt>
      <trkpt lat="45.75197" lon="5.72534">
        <ele>364.5</ele>
        <time>2022-09-25T14:58:46Z</time>
      </trkpt>
      <trkpt lat="45.75196" lon="5.72533">
        <ele>364.6</ele>
        <time>2022-09-25T14:58:47Z</time>
      </trkpt>
      <trkpt lat="45.75195" lon="5.72531">
        <ele>364.7</ele>
        <time>2022-09-25T14:58:48Z</time>
      </trkpt>
      <trkpt lat="45.75192" lon="5.72528">
        <ele>364.9</ele>
        <time>2022-09-25T14:58:49Z</time>
      </trkpt>
      <trkpt lat="45.75191" lon="5.72527">
        <ele>365</ele>
        <time>2022-09-25T14:58:50Z</time>
      </trkpt>
      <trkpt lat="45.75189" lon="5.72526">
        <ele>365.1</ele>
        <time>2022-09-25T14:58:51Z</time>
      </trkpt>
      <trkpt lat="45.75189" lon="5.72525">
        <ele>365.2</ele>
        <time>2022-09-25T14:58:52Z</time>
      </trkpt>
      <trkpt lat="45.75188" lon="5.72524">
        <ele>365.3</ele>
        <time>2022-09-25T14:58:53Z</time>
      </trkpt>
      <trkpt lat="45.75187" lon="5.72523">
        <ele>365.3</ele>
        <time>2022-09-25T14:58:54Z</time>
      </trkpt>
      <trkpt lat="45.75184" lon="5.7252">
        <ele>365.5</ele>
        <time>2022-09-25T14:58:55Z</time>
      </trkpt>
      <trkpt lat="45.75184" lon="5.7252">
        <ele>365.6</ele>
        <time>2022-09-25T14:58:56Z</time>
      </trkpt>
      <trkpt lat="45.75182" lon="5.72519">
        <ele>365.7</ele>
        <time>2022-09-25T14:58:57Z</time>
      </trkpt>
      <trkpt lat="45.75181" lon="5.72518">
        <ele>365.8</ele>
        <time>2022-09-25T14:58:58Z</time>
      </trkpt>
      <trkpt lat="45.75179" lon="5.72517">
        <ele>365.9</ele>
        <time>2022-09-25T14:58:59Z</time>
      </trkpt>
      <trkpt lat="45.75178" lon="5.72516">
        <ele>366</ele>
        <time>2022-09-25T14:59:00Z</time>
      </trkpt>
      <trkpt lat="45.75176" lon="5.72515">
        <ele>366.1</ele>
        <time>2022-09-25T14:59:01Z</time>
      </trkpt>
      <trkpt lat="45.75175" lon="5.72514">
        <ele>366.3</ele>
        <time>2022-09-25T14:59:02Z</time>
      </trkpt>
      <trkpt lat="45.75173" lon="5.72513">
        <ele>366.4</ele>
        <time>2022-09-25T14:59:03Z</time>
      </trkpt>
      <trkpt lat="45.75172" lon="5.72513">
        <ele>366.4</ele>
        <time>2022-09-25T14:59:04Z</time>
      </trkpt>
      <trkpt lat="45.7517" lon="5.72513">
        <ele>366.6</ele>
        <time>2022-09-25T14:59:05Z</time>
      </trkpt>
      <trkpt lat="45.75169" lon="5.72512">
        <ele>366.6</ele>
        <time>2022-09-25T14:59:06Z</time>
      </trkpt>
      <trkpt lat="45.75167" lon="5.72511">
        <ele>366.8</ele>
        <time>2022-09-25T14:59:07Z</time>
      </trkpt>
      <trkpt lat="45.75166" lon="5.72511">
        <ele>366.9</ele>
        <time>2022-09-25T14:59:08Z</time>
      </trkpt>
      <trkpt lat="45.75164" lon="5.72511">
        <ele>367</ele>
        <time>2022-09-25T14:59:09Z</time>
      </trkpt>
      <trkpt lat="45.75163" lon="5.72511">
        <ele>367.1</ele>
        <time>2022-09-25T14:59:10Z</time>
      </trkpt>
      <trkpt lat="45.75161" lon="5.72511">
        <ele>367.2</ele>
        <time>2022-09-25T14:59:11Z</time>
      </trkpt>
      <trkpt lat="45.7516" lon="5.7251">
        <ele>367.3</ele>
        <time>2022-09-25T14:59:12Z</time>
      </trkpt>
      <trkpt lat="45.75158" lon="5.72509">
        <ele>367.4</ele>
        <time>2022-09-25T14:59:13Z</time>
      </trkpt>
      <trkpt lat="45.75156" lon="5.72509">
        <ele>367.5</ele>
        <time>2022-09-25T14:59:14Z</time>
      </trkpt>
      <trkpt lat="45.75155" lon="5.7251">
        <ele>367.6</ele>
        <time>2022-09-25T14:59:15Z</time>
      </trkpt>
      <trkpt lat="45.75154" lon="5.7251">
        <ele>367.7</ele>
        <time>2022-09-25T14:59:16Z</time>
      </trkpt>
      <trkpt lat="45.75151" lon="5.7251">
        <ele>367.8</ele>
        <time>2022-09-25T14:59:17Z</time>
      </trkpt>
      <trkpt lat="45.7515" lon="5.7251">
        <ele>367.9</ele>
        <time>2022-09-25T14:59:18Z</time>
      </trkpt>
      <trkpt lat="45.75147" lon="5.72509">
        <ele>368.1</ele>
        <time>2022-09-25T14:59:19Z</time>
      </trkpt>
      <trkpt lat="45.75147" lon="5.72509">
        <ele>368.1</ele>
        <time>2022-09-25T14:59:20Z</time>
      </trkpt>
      <trkpt lat="45.75144" lon="5.72509">
        <ele>368.3</ele>
        <time>2022-09-25T14:59:21Z</time>
      </trkpt>
      <trkpt lat="45.75143" lon="5.72509">
        <ele>368.4</ele>
        <time>2022-09-25T14:59:22Z</time>
      </trkpt>
      <trkpt lat="45.75143" lon="5.72509">
        <ele>368.4</ele>
        <time>2022-09-25T14:59:23Z</time>
      </trkpt>
      <trkpt lat="45.75141" lon="5.72508">
        <ele>368.6</ele>
        <time>2022-09-25T14:59:25Z</time>
      </trkpt>
      <trkpt lat="45.75139" lon="5.72508">
        <ele>368.6</ele>
        <time>2022-09-25T14:59:26Z</time>
      </trkpt>
      <trkpt lat="45.75138" lon="5.72508">
        <ele>368.7</ele>
        <time>2022-09-25T14:59:27Z</time>
      </trkpt>
      <trkpt lat="45.75135" lon="5.72507">
        <ele>368.9</ele>
        <time>2022-09-25T14:59:28Z</time>
      </trkpt>
      <trkpt lat="45.75134" lon="5.72507">
        <ele>369</ele>
        <time>2022-09-25T14:59:29Z</time>
      </trkpt>
      <trkpt lat="45.75133" lon="5.72507">
        <ele>369</ele>
        <time>2022-09-25T14:59:30Z</time>
      </trkpt>
      <trkpt lat="45.75131" lon="5.72506">
        <ele>369.2</ele>
        <time>2022-09-25T14:59:31Z</time>
      </trkpt>
      <trkpt lat="45.75129" lon="5.72505">
        <ele>369.3</ele>
        <time>2022-09-25T14:59:32Z</time>
      </trkpt>
      <trkpt lat="45.75128" lon="5.72505">
        <ele>369.4</ele>
        <time>2022-09-25T14:59:33Z</time>
      </trkpt>
      <trkpt lat="45.75126" lon="5.72505">
        <ele>369.5</ele>
        <time>2022-09-25T14:59:34Z</time>
      </trkpt>
      <trkpt lat="45.75125" lon="5.72504">
        <ele>369.6</ele>
        <time>2022-09-25T14:59:35Z</time>
      </trkpt>
      <trkpt lat="45.75123" lon="5.72504">
        <ele>369.7</ele>
        <time>2022-09-25T14:59:36Z</time>
      </trkpt>
      <trkpt lat="45.75122" lon="5.72504">
        <ele>369.7</ele>
        <time>2022-09-25T14:59:37Z</time>
      </trkpt>
      <trkpt lat="45.7512" lon="5.72504">
        <ele>369.9</ele>
        <time>2022-09-25T14:59:38Z</time>
      </trkpt>
      <trkpt lat="45.75118" lon="5.72503">
        <ele>370</ele>
        <time>2022-09-25T14:59:39Z</time>
      </trkpt>
      <trkpt lat="45.75117" lon="5.72503">
        <ele>370.1</ele>
        <time>2022-09-25T14:59:40Z</time>
      </trkpt>
      <trkpt lat="45.75116" lon="5.72503">
        <ele>370.2</ele>
        <time>2022-09-25T14:59:41Z</time>
      </trkpt>
      <trkpt lat="45.75114" lon="5.72502">
        <ele>370.3</ele>
        <time>2022-09-25T14:59:42Z</time>
      </trkpt>
      <trkpt lat="45.75112" lon="5.72501">
        <ele>370.4</ele>
        <time>2022-09-25T14:59:43Z</time>
      </trkpt>
      <trkpt lat="45.7511" lon="5.72501">
        <ele>370.6</ele>
        <time>2022-09-25T14:59:44Z</time>
      </trkpt>
      <trkpt lat="45.75109" lon="5.72501">
        <ele>370.6</ele>
        <time>2022-09-25T14:59:45Z</time>
      </trkpt>
      <trkpt lat="45.75106" lon="5.725">
        <ele>370.8</ele>
        <time>2022-09-25T14:59:46Z</time>
      </trkpt>
      <trkpt lat="45.75103" lon="5.725">
        <ele>371</ele>
        <time>2022-09-25T14:59:47Z</time>
      </trkpt>
      <trkpt lat="45.75102" lon="5.725">
        <ele>371</ele>
        <time>2022-09-25T14:59:48Z</time>
      </trkpt>
      <trkpt lat="45.75101" lon="5.72499">
        <ele>371.1</ele>
        <time>2022-09-25T14:59:49Z</time>
      </trkpt>
      <trkpt lat="45.75099" lon="5.72499">
        <ele>371.2</ele>
        <time>2022-09-25T14:59:50Z</time>
      </trkpt>
      <trkpt lat="45.75098" lon="5.72498">
        <ele>371.3</ele>
        <time>2022-09-25T14:59:51Z</time>
      </trkpt>
      <trkpt lat="45.75096" lon="5.72497">
        <ele>371.4</ele>
        <time>2022-09-25T14:59:52Z</time>
      </trkpt>
      <trkpt lat="45.75095" lon="5.72496">
        <ele>371.5</ele>
        <time>2022-09-25T14:59:53Z</time>
      </trkpt>
      <trkpt lat="45.75093" lon="5.72495">
        <ele>371.6</ele>
        <time>2022-09-25T14:59:54Z</time>
      </trkpt>
      <trkpt lat="45.75092" lon="5.72495">
        <ele>371.7</ele>
        <time>2022-09-25T14:59:55Z</time>
      </trkpt>
      <trkpt lat="45.7509" lon="5.72495">
        <ele>371.8</ele>
        <time>2022-09-25T14:59:56Z</time>
      </trkpt>
      <trkpt lat="45.75088" lon="5.72494">
        <ele>372</ele>
        <time>2022-09-25T14:59:57Z</time>
      </trkpt>
      <trkpt lat="45.75087" lon="5.72494">
        <ele>372</ele>
        <time>2022-09-25T14:59:58Z</time>
      </trkpt>
      <trkpt lat="45.75083" lon="5.72492">
        <ele>372.2</ele>
        <time>2022-09-25T14:59:59Z</time>
      </trkpt>
      <trkpt lat="45.75081" lon="5.72491">
        <ele>372.4</ele>
        <time>2022-09-25T15:00:00Z</time>
      </trkpt>
      <trkpt lat="45.7508" lon="5.7249">
        <ele>372.5</ele>
        <time>2022-09-25T15:00:01Z</time>
      </trkpt>
      <trkpt lat="45.75078" lon="5.7249">
        <ele>372.6</ele>
        <time>2022-09-25T15:00:02Z</time>
      </trkpt>
      <trkpt lat="45.75077" lon="5.72489">
        <ele>372.6</ele>
        <time>2022-09-25T15:00:03Z</time>
      </trkpt>
      <trkpt lat="45.75075" lon="5.72489">
        <ele>372.7</ele>
        <time>2022-09-25T15:00:04Z</time>
      </trkpt>
      <trkpt lat="45.75074" lon="5.72488">
        <ele>372.8</ele>
        <time>2022-09-25T15:00:05Z</time>
      </trkpt>
      <trkpt lat="45.75072" lon="5.72488">
        <ele>372.9</ele>
        <time>2022-09-25T15:00:06Z</time>
      </trkpt>
      <trkpt lat="45.7507" lon="5.72487">
        <ele>373</ele>
        <time>2022-09-25T15:00:07Z</time>
      </trkpt>
      <trkpt lat="45.75069" lon="5.72487">
        <ele>373.1</ele>
        <time>2022-09-25T15:00:08Z</time>
      </trkpt>
      <trkpt lat="45.75067" lon="5.72487">
        <ele>373.2</ele>
        <time>2022-09-25T15:00:09Z</time>
      </trkpt>
      <trkpt lat="45.75066" lon="5.72486">
        <ele>373.3</ele>
        <time>2022-09-25T15:00:10Z</time>
      </trkpt>
      <trkpt lat="45.75064" lon="5.72486">
        <ele>373.4</ele>
        <time>2022-09-25T15:00:11Z</time>
      </trkpt>
      <trkpt lat="45.75061" lon="5.72485">
        <ele>373.5</ele>
        <time>2022-09-25T15:00:12Z</time>
      </trkpt>
      <trkpt lat="45.75061" lon="5.72484">
        <ele>373.6</ele>
        <time>2022-09-25T15:00:13Z</time>
      </trkpt>
      <trkpt lat="45.75058" lon="5.72483">
        <ele>373.7</ele>
        <time>2022-09-25T15:00:14Z</time>
      </trkpt>
      <trkpt lat="45.75057" lon="5.72483">
        <ele>373.8</ele>
        <time>2022-09-25T15:00:15Z</time>
      </trkpt>
      <trkpt lat="45.75054" lon="5.72482">
        <ele>374</ele>
        <time>2022-09-25T15:00:16Z</time>
      </trkpt>
      <trkpt lat="45.75053" lon="5.72482">
        <ele>374</ele>
        <time>2022-09-25T15:00:17Z</time>
      </trkpt>
      <trkpt lat="45.7505" lon="5.72481">
        <ele>374.2</ele>
        <time>2022-09-25T15:00:18Z</time>
      </trkpt>
      <trkpt lat="45.75049" lon="5.7248">
        <ele>374.2</ele>
        <time>2022-09-25T15:00:19Z</time>
      </trkpt>
      <trkpt lat="45.75047" lon="5.72479">
        <ele>374.4</ele>
        <time>2022-09-25T15:00:20Z</time>
      </trkpt>
      <trkpt lat="45.75046" lon="5.72479">
        <ele>374.5</ele>
        <time>2022-09-25T15:00:21Z</time>
      </trkpt>
      <trkpt lat="45.75043" lon="5.72477">
        <ele>374.7</ele>
        <time>2022-09-25T15:00:22Z</time>
      </trkpt>
      <trkpt lat="45.75042" lon="5.72477">
        <ele>374.7</ele>
        <time>2022-09-25T15:00:23Z</time>
      </trkpt>
      <trkpt lat="45.75041" lon="5.72476">
        <ele>374.8</ele>
        <time>2022-09-25T15:00:24Z</time>
      </trkpt>
      <trkpt lat="45.75039" lon="5.72476">
        <ele>374.9</ele>
        <time>2022-09-25T15:00:25Z</time>
      </trkpt>
      <trkpt lat="45.75038" lon="5.72475">
        <ele>375</ele>
        <time>2022-09-25T15:00:26Z</time>
      </trkpt>
      <trkpt lat="45.75036" lon="5.72475">
        <ele>375.1</ele>
        <time>2022-09-25T15:00:27Z</time>
      </trkpt>
      <trkpt lat="45.75034" lon="5.72474">
        <ele>375.2</ele>
        <time>2022-09-25T15:00:28Z</time>
      </trkpt>
      <trkpt lat="45.75033" lon="5.72473">
        <ele>375.3</ele>
        <time>2022-09-25T15:00:29Z</time>
      </trkpt>
      <trkpt lat="45.7503" lon="5.72473">
        <ele>375.4</ele>
        <time>2022-09-25T15:00:30Z</time>
      </trkpt>
      <trkpt lat="45.75029" lon="5.72472">
        <ele>375.5</ele>
        <time>2022-09-25T15:00:31Z</time>
      </trkpt>
      <trkpt lat="45.75028" lon="5.72472">
        <ele>375.6</ele>
        <time>2022-09-25T15:00:32Z</time>
      </trkpt>
      <trkpt lat="45.75026" lon="5.72471">
        <ele>375.7</ele>
        <time>2022-09-25T15:00:33Z</time>
      </trkpt>
      <trkpt lat="45.75025" lon="5.7247">
        <ele>375.8</ele>
        <time>2022-09-25T15:00:34Z</time>
      </trkpt>
      <trkpt lat="45.75025" lon="5.7247">
        <ele>375.8</ele>
        <time>2022-09-25T15:00:35Z</time>
      </trkpt>
      <trkpt lat="45.75023" lon="5.72469">
        <ele>375.9</ele>
        <time>2022-09-25T15:00:36Z</time>
      </trkpt>
      <trkpt lat="45.75022" lon="5.72469">
        <ele>376</ele>
        <time>2022-09-25T15:00:37Z</time>
      </trkpt>
      <trkpt lat="45.7502" lon="5.72467">
        <ele>376.1</ele>
        <time>2022-09-25T15:00:38Z</time>
      </trkpt>
      <trkpt lat="45.75018" lon="5.72466">
        <ele>376.2</ele>
        <time>2022-09-25T15:00:39Z</time>
      </trkpt>
      <trkpt lat="45.75017" lon="5.72465">
        <ele>376.3</ele>
        <time>2022-09-25T15:00:40Z</time>
      </trkpt>
      <trkpt lat="45.75016" lon="5.72464">
        <ele>376.5</ele>
        <time>2022-09-25T15:00:41Z</time>
      </trkpt>
      <trkpt lat="45.75014" lon="5.72464">
        <ele>376.6</ele>
        <time>2022-09-25T15:00:42Z</time>
      </trkpt>
      <trkpt lat="45.75012" lon="5.72463">
        <ele>376.7</ele>
        <time>2022-09-25T15:00:43Z</time>
      </trkpt>
      <trkpt lat="45.75011" lon="5.72462">
        <ele>376.8</ele>
        <time>2022-09-25T15:00:44Z</time>
      </trkpt>
      <trkpt lat="45.75009" lon="5.72461">
        <ele>376.9</ele>
        <time>2022-09-25T15:00:45Z</time>
      </trkpt>
      <trkpt lat="45.75008" lon="5.72461">
        <ele>377</ele>
        <time>2022-09-25T15:00:46Z</time>
      </trkpt>
      <trkpt lat="45.75006" lon="5.72459">
        <ele>377.1</ele>
        <time>2022-09-25T15:00:47Z</time>
      </trkpt>
      <trkpt lat="45.75004" lon="5.72457">
        <ele>377.3</ele>
        <time>2022-09-25T15:00:48Z</time>
      </trkpt>
      <trkpt lat="45.75003" lon="5.72457">
        <ele>377.4</ele>
        <time>2022-09-25T15:00:49Z</time>
      </trkpt>
      <trkpt lat="45.75002" lon="5.72456">
        <ele>377.5</ele>
        <time>2022-09-25T15:00:50Z</time>
      </trkpt>
      <trkpt lat="45.75" lon="5.72455">
        <ele>377.6</ele>
        <time>2022-09-25T15:00:51Z</time>
      </trkpt>
      <trkpt lat="45.74999" lon="5.72454">
        <ele>377.7</ele>
        <time>2022-09-25T15:00:52Z</time>
      </trkpt>
      <trkpt lat="45.74997" lon="5.72453">
        <ele>377.8</ele>
        <time>2022-09-25T15:00:53Z</time>
      </trkpt>
      <trkpt lat="45.74994" lon="5.72452">
        <ele>378</ele>
        <time>2022-09-25T15:00:54Z</time>
      </trkpt>
      <trkpt lat="45.74993" lon="5.72451">
        <ele>378</ele>
        <time>2022-09-25T15:00:55Z</time>
      </trkpt>
      <trkpt lat="45.74991" lon="5.7245">
        <ele>378.2</ele>
        <time>2022-09-25T15:00:56Z</time>
      </trkpt>
      <trkpt lat="45.7499" lon="5.72449">
        <ele>378.3</ele>
        <time>2022-09-25T15:00:57Z</time>
      </trkpt>
      <trkpt lat="45.74989" lon="5.72448">
        <ele>378.4</ele>
        <time>2022-09-25T15:00:58Z</time>
      </trkpt>
      <trkpt lat="45.74987" lon="5.72447">
        <ele>378.5</ele>
        <time>2022-09-25T15:00:59Z</time>
      </trkpt>
      <trkpt lat="45.74985" lon="5.72446">
        <ele>378.7</ele>
        <time>2022-09-25T15:01:00Z</time>
      </trkpt>
      <trkpt lat="45.74984" lon="5.72446">
        <ele>378.8</ele>
        <time>2022-09-25T15:01:01Z</time>
      </trkpt>
      <trkpt lat="45.74983" lon="5.72445">
        <ele>378.9</ele>
        <time>2022-09-25T15:01:02Z</time>
      </trkpt>
      <trkpt lat="45.74982" lon="5.72444">
        <ele>378.9</ele>
        <time>2022-09-25T15:01:03Z</time>
      </trkpt>
      <trkpt lat="45.7498" lon="5.72443">
        <ele>379.1</ele>
        <time>2022-09-25T15:01:04Z</time>
      </trkpt>
      <trkpt lat="45.74979" lon="5.72443">
        <ele>379.2</ele>
        <time>2022-09-25T15:01:05Z</time>
      </trkpt>
      <trkpt lat="45.74977" lon="5.72442">
        <ele>379.3</ele>
        <time>2022-09-25T15:01:06Z</time>
      </trkpt>
      <trkpt lat="45.74976" lon="5.72442">
        <ele>379.4</ele>
        <time>2022-09-25T15:01:07Z</time>
      </trkpt>
      <trkpt lat="45.74974" lon="5.72442">
        <ele>379.5</ele>
        <time>2022-09-25T15:01:08Z</time>
      </trkpt>
      <trkpt lat="45.74973" lon="5.72441">
        <ele>379.6</ele>
        <time>2022-09-25T15:01:09Z</time>
      </trkpt>
      <trkpt lat="45.7497" lon="5.7244">
        <ele>379.8</ele>
        <time>2022-09-25T15:01:10Z</time>
      </trkpt>
      <trkpt lat="45.74969" lon="5.7244">
        <ele>379.8</ele>
        <time>2022-09-25T15:01:11Z</time>
      </trkpt>
      <trkpt lat="45.74968" lon="5.72439">
        <ele>379.9</ele>
        <time>2022-09-25T15:01:12Z</time>
      </trkpt>
      <trkpt lat="45.74967" lon="5.72438">
        <ele>380</ele>
        <time>2022-09-25T15:01:13Z</time>
      </trkpt>
      <trkpt lat="45.74965" lon="5.72437">
        <ele>380.1</ele>
        <time>2022-09-25T15:01:14Z</time>
      </trkpt>
      <trkpt lat="45.74963" lon="5.72437">
        <ele>380.2</ele>
        <time>2022-09-25T15:01:15Z</time>
      </trkpt>
      <trkpt lat="45.74962" lon="5.72437">
        <ele>380.3</ele>
        <time>2022-09-25T15:01:16Z</time>
      </trkpt>
      <trkpt lat="45.7496" lon="5.72437">
        <ele>380.4</ele>
        <time>2022-09-25T15:01:17Z</time>
      </trkpt>
      <trkpt lat="45.74959" lon="5.72436">
        <ele>380.5</ele>
        <time>2022-09-25T15:01:18Z</time>
      </trkpt>
      <trkpt lat="45.74958" lon="5.72436">
        <ele>380.6</ele>
        <time>2022-09-25T15:01:19Z</time>
      </trkpt>
      <trkpt lat="45.74956" lon="5.72436">
        <ele>380.7</ele>
        <time>2022-09-25T15:01:20Z</time>
      </trkpt>
      <trkpt lat="45.74955" lon="5.72435">
        <ele>380.8</ele>
        <time>2022-09-25T15:01:21Z</time>
      </trkpt>
      <trkpt lat="45.74952" lon="5.72434">
        <ele>381</ele>
        <time>2022-09-25T15:01:22Z</time>
      </trkpt>
      <trkpt lat="45.74951" lon="5.72434">
        <ele>381</ele>
        <time>2022-09-25T15:01:23Z</time>
      </trkpt>
      <trkpt lat="45.7495" lon="5.72434">
        <ele>381.1</ele>
        <time>2022-09-25T15:01:24Z</time>
      </trkpt>
      <trkpt lat="45.74948" lon="5.72433">
        <ele>381.2</ele>
        <time>2022-09-25T15:01:25Z</time>
      </trkpt>
      <trkpt lat="45.74946" lon="5.72433">
        <ele>381.4</ele>
        <time>2022-09-25T15:01:26Z</time>
      </trkpt>
      <trkpt lat="45.74945" lon="5.72433">
        <ele>381.4</ele>
        <time>2022-09-25T15:01:27Z</time>
      </trkpt>
      <trkpt lat="45.74944" lon="5.72433">
        <ele>381.5</ele>
        <time>2022-09-25T15:01:28Z</time>
      </trkpt>
      <trkpt lat="45.74941" lon="5.72432">
        <ele>381.7</ele>
        <time>2022-09-25T15:01:29Z</time>
      </trkpt>
      <trkpt lat="45.7494" lon="5.72432">
        <ele>381.7</ele>
        <time>2022-09-25T15:01:31Z</time>
      </trkpt>
      <trkpt lat="45.74938" lon="5.72432">
        <ele>381.8</ele>
        <time>2022-09-25T15:01:32Z</time>
      </trkpt>
      <trkpt lat="45.74937" lon="5.72432">
        <ele>381.9</ele>
        <time>2022-09-25T15:01:33Z</time>
      </trkpt>
      <trkpt lat="45.74935" lon="5.72432">
        <ele>382</ele>
        <time>2022-09-25T15:01:34Z</time>
      </trkpt>
      <trkpt lat="45.74934" lon="5.72431">
        <ele>382.1</ele>
        <time>2022-09-25T15:01:35Z</time>
      </trkpt>
      <trkpt lat="45.74931" lon="5.7243">
        <ele>382.3</ele>
        <time>2022-09-25T15:01:36Z</time>
      </trkpt>
      <trkpt lat="45.7493" lon="5.7243">
        <ele>382.4</ele>
        <time>2022-09-25T15:01:37Z</time>
      </trkpt>
      <trkpt lat="45.74928" lon="5.7243">
        <ele>382.5</ele>
        <time>2022-09-25T15:01:38Z</time>
      </trkpt>
      <trkpt lat="45.74927" lon="5.7243">
        <ele>382.6</ele>
        <time>2022-09-25T15:01:39Z</time>
      </trkpt>
      <trkpt lat="45.74925" lon="5.7243">
        <ele>382.7</ele>
        <time>2022-09-25T15:01:40Z</time>
      </trkpt>
      <trkpt lat="45.74924" lon="5.7243">
        <ele>382.8</ele>
        <time>2022-09-25T15:01:41Z</time>
      </trkpt>
      <trkpt lat="45.74921" lon="5.7243">
        <ele>382.9</ele>
        <time>2022-09-25T15:01:42Z</time>
      </trkpt>
      <trkpt lat="45.7492" lon="5.72431">
        <ele>383</ele>
        <time>2022-09-25T15:01:43Z</time>
      </trkpt>
      <trkpt lat="45.7492" lon="5.72431">
        <ele>383</ele>
        <time>2022-09-25T15:01:44Z</time>
      </trkpt>
      <trkpt lat="45.74918" lon="5.72432">
        <ele>383.2</ele>
        <time>2022-09-25T15:01:45Z</time>
      </trkpt>
      <trkpt lat="45.74917" lon="5.72432">
        <ele>383.3</ele>
        <time>2022-09-25T15:01:46Z</time>
      </trkpt>
      <trkpt lat="45.74915" lon="5.72433">
        <ele>383.4</ele>
        <time>2022-09-25T15:01:47Z</time>
      </trkpt>
      <trkpt lat="45.74914" lon="5.72433">
        <ele>383.5</ele>
        <time>2022-09-25T15:01:48Z</time>
      </trkpt>
      <trkpt lat="45.74913" lon="5.72435">
        <ele>383.6</ele>
        <time>2022-09-25T15:01:49Z</time>
      </trkpt>
      <trkpt lat="45.74911" lon="5.72435">
        <ele>383.6</ele>
        <time>2022-09-25T15:01:50Z</time>
      </trkpt>
      <trkpt lat="45.7491" lon="5.72437">
        <ele>383.8</ele>
        <time>2022-09-25T15:01:51Z</time>
      </trkpt>
      <trkpt lat="45.74909" lon="5.72438">
        <ele>383.9</ele>
        <time>2022-09-25T15:01:52Z</time>
      </trkpt>
      <trkpt lat="45.74907" lon="5.72439">
        <ele>384</ele>
        <time>2022-09-25T15:01:53Z</time>
      </trkpt>
      <trkpt lat="45.74906" lon="5.72441">
        <ele>384.1</ele>
        <time>2022-09-25T15:01:54Z</time>
      </trkpt>
      <trkpt lat="45.74905" lon="5.72443">
        <ele>384.2</ele>
        <time>2022-09-25T15:01:55Z</time>
      </trkpt>
      <trkpt lat="45.74905" lon="5.72444">
        <ele>384.3</ele>
        <time>2022-09-25T15:01:56Z</time>
      </trkpt>
      <trkpt lat="45.74904" lon="5.72445">
        <ele>384.3</ele>
        <time>2022-09-25T15:01:57Z</time>
      </trkpt>
      <trkpt lat="45.74903" lon="5.72447">
        <ele>384.4</ele>
        <time>2022-09-25T15:01:58Z</time>
      </trkpt>
      <trkpt lat="45.74902" lon="5.72449">
        <ele>384.6</ele>
        <time>2022-09-25T15:01:59Z</time>
      </trkpt>
      <trkpt lat="45.74901" lon="5.72453">
        <ele>384.5</ele>
        <time>2022-09-25T15:02:00Z</time>
      </trkpt>
      <trkpt lat="45.74901" lon="5.72455">
        <ele>384.5</ele>
        <time>2022-09-25T15:02:01Z</time>
      </trkpt>
      <trkpt lat="45.749" lon="5.72458">
        <ele>384.5</ele>
        <time>2022-09-25T15:02:02Z</time>
      </trkpt>
      <trkpt lat="45.749" lon="5.72459">
        <ele>384.6</ele>
        <time>2022-09-25T15:02:03Z</time>
      </trkpt>
      <trkpt lat="45.749" lon="5.72461">
        <ele>384.6</ele>
        <time>2022-09-25T15:02:04Z</time>
      </trkpt>
      <trkpt lat="45.74899" lon="5.72462">
        <ele>384.7</ele>
        <time>2022-09-25T15:02:05Z</time>
      </trkpt>
      <trkpt lat="45.749" lon="5.72465">
        <ele>384.8</ele>
        <time>2022-09-25T15:02:06Z</time>
      </trkpt>
      <trkpt lat="45.749" lon="5.72469">
        <ele>385</ele>
        <time>2022-09-25T15:02:07Z</time>
      </trkpt>
      <trkpt lat="45.74901" lon="5.72471">
        <ele>385.1</ele>
        <time>2022-09-25T15:02:08Z</time>
      </trkpt>
      <trkpt lat="45.74901" lon="5.72474">
        <ele>385.2</ele>
        <time>2022-09-25T15:02:09Z</time>
      </trkpt>
      <trkpt lat="45.74902" lon="5.72475">
        <ele>385.3</ele>
        <time>2022-09-25T15:02:10Z</time>
      </trkpt>
      <trkpt lat="45.74902" lon="5.72476">
        <ele>385.3</ele>
        <time>2022-09-25T15:02:11Z</time>
      </trkpt>
      <trkpt lat="45.74904" lon="5.72479">
        <ele>385.5</ele>
        <time>2022-09-25T15:02:12Z</time>
      </trkpt>
      <trkpt lat="45.74904" lon="5.7248">
        <ele>385.5</ele>
        <time>2022-09-25T15:02:13Z</time>
      </trkpt>
      <trkpt lat="45.74905" lon="5.72481">
        <ele>385.6</ele>
        <time>2022-09-25T15:02:14Z</time>
      </trkpt>
      <trkpt lat="45.74906" lon="5.72484">
        <ele>385.7</ele>
        <time>2022-09-25T15:02:15Z</time>
      </trkpt>
      <trkpt lat="45.74907" lon="5.72485">
        <ele>385.8</ele>
        <time>2022-09-25T15:02:16Z</time>
      </trkpt>
      <trkpt lat="45.74907" lon="5.72486">
        <ele>385.9</ele>
        <time>2022-09-25T15:02:17Z</time>
      </trkpt>
      <trkpt lat="45.74908" lon="5.72487">
        <ele>385.9</ele>
        <time>2022-09-25T15:02:18Z</time>
      </trkpt>
      <trkpt lat="45.74909" lon="5.72489">
        <ele>386</ele>
        <time>2022-09-25T15:02:19Z</time>
      </trkpt>
      <trkpt lat="45.7491" lon="5.72491">
        <ele>386.2</ele>
        <time>2022-09-25T15:02:20Z</time>
      </trkpt>
      <trkpt lat="45.74911" lon="5.72493">
        <ele>386.2</ele>
        <time>2022-09-25T15:02:21Z</time>
      </trkpt>
      <trkpt lat="45.74912" lon="5.72494">
        <ele>386.3</ele>
        <time>2022-09-25T15:02:22Z</time>
      </trkpt>
      <trkpt lat="45.74913" lon="5.72496">
        <ele>386.4</ele>
        <time>2022-09-25T15:02:23Z</time>
      </trkpt>
      <trkpt lat="45.74915" lon="5.72497">
        <ele>386.5</ele>
        <time>2022-09-25T15:02:24Z</time>
      </trkpt>
      <trkpt lat="45.74916" lon="5.72498">
        <ele>386.6</ele>
        <time>2022-09-25T15:02:25Z</time>
      </trkpt>
      <trkpt lat="45.74917" lon="5.72499">
        <ele>386.7</ele>
        <time>2022-09-25T15:02:26Z</time>
      </trkpt>
      <trkpt lat="45.74918" lon="5.72501">
        <ele>386.8</ele>
        <time>2022-09-25T15:02:27Z</time>
      </trkpt>
      <trkpt lat="45.74919" lon="5.72504">
        <ele>386.9</ele>
        <time>2022-09-25T15:02:28Z</time>
      </trkpt>
      <trkpt lat="45.7492" lon="5.72505">
        <ele>387</ele>
        <time>2022-09-25T15:02:29Z</time>
      </trkpt>
      <trkpt lat="45.74921" lon="5.72506">
        <ele>387</ele>
        <time>2022-09-25T15:02:30Z</time>
      </trkpt>
      <trkpt lat="45.74923" lon="5.72508">
        <ele>387.2</ele>
        <time>2022-09-25T15:02:31Z</time>
      </trkpt>
      <trkpt lat="45.74923" lon="5.72509">
        <ele>387.2</ele>
        <time>2022-09-25T15:02:32Z</time>
      </trkpt>
      <trkpt lat="45.74924" lon="5.7251">
        <ele>387.3</ele>
        <time>2022-09-25T15:02:33Z</time>
      </trkpt>
      <trkpt lat="45.74926" lon="5.72513">
        <ele>387.5</ele>
        <time>2022-09-25T15:02:34Z</time>
      </trkpt>
      <trkpt lat="45.74927" lon="5.72513">
        <ele>387.5</ele>
        <time>2022-09-25T15:02:35Z</time>
      </trkpt>
      <trkpt lat="45.74928" lon="5.72516">
        <ele>387.7</ele>
        <time>2022-09-25T15:02:36Z</time>
      </trkpt>
      <trkpt lat="45.74929" lon="5.72517">
        <ele>387.7</ele>
        <time>2022-09-25T15:02:37Z</time>
      </trkpt>
      <trkpt lat="45.7493" lon="5.72518">
        <ele>387.8</ele>
        <time>2022-09-25T15:02:38Z</time>
      </trkpt>
      <trkpt lat="45.74931" lon="5.72519">
        <ele>387.9</ele>
        <time>2022-09-25T15:02:39Z</time>
      </trkpt>
      <trkpt lat="45.74933" lon="5.72521">
        <ele>388</ele>
        <time>2022-09-25T15:02:40Z</time>
      </trkpt>
      <trkpt lat="45.74934" lon="5.72522">
        <ele>388</ele>
        <time>2022-09-25T15:02:41Z</time>
      </trkpt>
      <trkpt lat="45.74935" lon="5.72524">
        <ele>388.2</ele>
        <time>2022-09-25T15:02:42Z</time>
      </trkpt>
      <trkpt lat="45.74937" lon="5.72525">
        <ele>388.3</ele>
        <time>2022-09-25T15:02:43Z</time>
      </trkpt>
      <trkpt lat="45.74938" lon="5.72527">
        <ele>388.3</ele>
        <time>2022-09-25T15:02:44Z</time>
      </trkpt>
      <trkpt lat="45.74939" lon="5.72528">
        <ele>388.4</ele>
        <time>2022-09-25T15:02:45Z</time>
      </trkpt>
      <trkpt lat="45.7494" lon="5.72529">
        <ele>388.5</ele>
        <time>2022-09-25T15:02:46Z</time>
      </trkpt>
      <trkpt lat="45.74942" lon="5.72532">
        <ele>388.6</ele>
        <time>2022-09-25T15:02:47Z</time>
      </trkpt>
      <trkpt lat="45.74942" lon="5.72533">
        <ele>388.6</ele>
        <time>2022-09-25T15:02:48Z</time>
      </trkpt>
      <trkpt lat="45.74942" lon="5.72534">
        <ele>388.7</ele>
        <time>2022-09-25T15:02:49Z</time>
      </trkpt>
      <trkpt lat="45.74944" lon="5.72536">
        <ele>388.8</ele>
        <time>2022-09-25T15:02:50Z</time>
      </trkpt>
      <trkpt lat="45.74945" lon="5.72537">
        <ele>388.9</ele>
        <time>2022-09-25T15:02:51Z</time>
      </trkpt>
      <trkpt lat="45.74947" lon="5.72539">
        <ele>389</ele>
        <time>2022-09-25T15:02:52Z</time>
      </trkpt>
      <trkpt lat="45.74948" lon="5.7254">
        <ele>389.1</ele>
        <time>2022-09-25T15:02:53Z</time>
      </trkpt>
      <trkpt lat="45.74949" lon="5.72541">
        <ele>389.1</ele>
        <time>2022-09-25T15:02:54Z</time>
      </trkpt>
      <trkpt lat="45.74951" lon="5.72542">
        <ele>389.2</ele>
        <time>2022-09-25T15:02:55Z</time>
      </trkpt>
      <trkpt lat="45.74952" lon="5.72543">
        <ele>389.3</ele>
        <time>2022-09-25T15:02:56Z</time>
      </trkpt>
      <trkpt lat="45.74954" lon="5.72545">
        <ele>389.4</ele>
        <time>2022-09-25T15:02:57Z</time>
      </trkpt>
      <trkpt lat="45.74954" lon="5.72546">
        <ele>389.5</ele>
        <time>2022-09-25T15:02:58Z</time>
      </trkpt>
      <trkpt lat="45.74955" lon="5.72547">
        <ele>389.5</ele>
        <time>2022-09-25T15:02:59Z</time>
      </trkpt>
      <trkpt lat="45.74957" lon="5.7255">
        <ele>389.7</ele>
        <time>2022-09-25T15:03:00Z</time>
      </trkpt>
      <trkpt lat="45.74958" lon="5.72551">
        <ele>389.8</ele>
        <time>2022-09-25T15:03:01Z</time>
      </trkpt>
      <trkpt lat="45.7496" lon="5.72553">
        <ele>389.9</ele>
        <time>2022-09-25T15:03:02Z</time>
      </trkpt>
      <trkpt lat="45.7496" lon="5.72555">
        <ele>390</ele>
        <time>2022-09-25T15:03:03Z</time>
      </trkpt>
      <trkpt lat="45.74961" lon="5.72557">
        <ele>390.1</ele>
        <time>2022-09-25T15:03:04Z</time>
      </trkpt>
      <trkpt lat="45.74962" lon="5.72558">
        <ele>390.1</ele>
        <time>2022-09-25T15:03:05Z</time>
      </trkpt>
      <trkpt lat="45.74964" lon="5.7256">
        <ele>390.3</ele>
        <time>2022-09-25T15:03:06Z</time>
      </trkpt>
      <trkpt lat="45.74964" lon="5.72561">
        <ele>390.4</ele>
        <time>2022-09-25T15:03:07Z</time>
      </trkpt>
      <trkpt lat="45.74965" lon="5.72562">
        <ele>390.4</ele>
        <time>2022-09-25T15:03:08Z</time>
      </trkpt>
      <trkpt lat="45.74967" lon="5.72564">
        <ele>390.5</ele>
        <time>2022-09-25T15:03:09Z</time>
      </trkpt>
      <trkpt lat="45.74968" lon="5.72565">
        <ele>390.6</ele>
        <time>2022-09-25T15:03:10Z</time>
      </trkpt>
      <trkpt lat="45.7497" lon="5.72566">
        <ele>390.7</ele>
        <time>2022-09-25T15:03:11Z</time>
      </trkpt>
      <trkpt lat="45.74971" lon="5.72568">
        <ele>390.8</ele>
        <time>2022-09-25T15:03:12Z</time>
      </trkpt>
      <trkpt lat="45.74972" lon="5.72569">
        <ele>391</ele>
        <time>2022-09-25T15:03:13Z</time>
      </trkpt>
      <trkpt lat="45.74974" lon="5.72572">
        <ele>391.1</ele>
        <time>2022-09-25T15:03:14Z</time>
      </trkpt>
      <trkpt lat="45.74975" lon="5.72573">
        <ele>391.2</ele>
        <time>2022-09-25T15:03:15Z</time>
      </trkpt>
      <trkpt lat="45.74976" lon="5.72575">
        <ele>391.3</ele>
        <time>2022-09-25T15:03:16Z</time>
      </trkpt>
      <trkpt lat="45.74977" lon="5.72576">
        <ele>391.4</ele>
        <time>2022-09-25T15:03:17Z</time>
      </trkpt>
      <trkpt lat="45.74979" lon="5.72577">
        <ele>391.5</ele>
        <time>2022-09-25T15:03:18Z</time>
      </trkpt>
      <trkpt lat="45.7498" lon="5.72579">
        <ele>391.6</ele>
        <time>2022-09-25T15:03:19Z</time>
      </trkpt>
      <trkpt lat="45.74981" lon="5.72581">
        <ele>391.7</ele>
        <time>2022-09-25T15:03:20Z</time>
      </trkpt>
      <trkpt lat="45.74982" lon="5.72583">
        <ele>391.8</ele>
        <time>2022-09-25T15:03:21Z</time>
      </trkpt>
      <trkpt lat="45.74983" lon="5.72584">
        <ele>392</ele>
        <time>2022-09-25T15:03:22Z</time>
      </trkpt>
      <trkpt lat="45.74985" lon="5.72587">
        <ele>392.1</ele>
        <time>2022-09-25T15:03:23Z</time>
      </trkpt>
      <trkpt lat="45.74986" lon="5.72588">
        <ele>392.2</ele>
        <time>2022-09-25T15:03:24Z</time>
      </trkpt>
      <trkpt lat="45.74987" lon="5.7259">
        <ele>392.3</ele>
        <time>2022-09-25T15:03:25Z</time>
      </trkpt>
      <trkpt lat="45.74988" lon="5.72591">
        <ele>392.4</ele>
        <time>2022-09-25T15:03:26Z</time>
      </trkpt>
      <trkpt lat="45.7499" lon="5.72593">
        <ele>392.6</ele>
        <time>2022-09-25T15:03:27Z</time>
      </trkpt>
      <trkpt lat="45.74991" lon="5.72594">
        <ele>392.6</ele>
        <time>2022-09-25T15:03:28Z</time>
      </trkpt>
      <trkpt lat="45.74993" lon="5.72597">
        <ele>392.9</ele>
        <time>2022-09-25T15:03:29Z</time>
      </trkpt>
      <trkpt lat="45.74995" lon="5.72598">
        <ele>393</ele>
        <time>2022-09-25T15:03:30Z</time>
      </trkpt>
      <trkpt lat="45.74996" lon="5.72599">
        <ele>393.1</ele>
        <time>2022-09-25T15:03:31Z</time>
      </trkpt>
      <trkpt lat="45.74997" lon="5.72601">
        <ele>393.2</ele>
        <time>2022-09-25T15:03:32Z</time>
      </trkpt>
      <trkpt lat="45.74998" lon="5.72603">
        <ele>393.3</ele>
        <time>2022-09-25T15:03:33Z</time>
      </trkpt>
      <trkpt lat="45.74998" lon="5.72605">
        <ele>393.4</ele>
        <time>2022-09-25T15:03:34Z</time>
      </trkpt>
      <trkpt lat="45.75" lon="5.72608">
        <ele>393.6</ele>
        <time>2022-09-25T15:03:35Z</time>
      </trkpt>
      <trkpt lat="45.75001" lon="5.72609">
        <ele>393.7</ele>
        <time>2022-09-25T15:03:37Z</time>
      </trkpt>
      <trkpt lat="45.75001" lon="5.7261">
        <ele>393.7</ele>
        <time>2022-09-25T15:03:38Z</time>
      </trkpt>
      <trkpt lat="45.75003" lon="5.72611">
        <ele>393.9</ele>
        <time>2022-09-25T15:03:39Z</time>
      </trkpt>
      <trkpt lat="45.75004" lon="5.72612">
        <ele>394</ele>
        <time>2022-09-25T15:03:40Z</time>
      </trkpt>
      <trkpt lat="45.75005" lon="5.72613">
        <ele>394.1</ele>
        <time>2022-09-25T15:03:41Z</time>
      </trkpt>
      <trkpt lat="45.75007" lon="5.72614">
        <ele>394.2</ele>
        <time>2022-09-25T15:03:42Z</time>
      </trkpt>
      <trkpt lat="45.75008" lon="5.72615">
        <ele>394.3</ele>
        <time>2022-09-25T15:03:43Z</time>
      </trkpt>
      <trkpt lat="45.7501" lon="5.72618">
        <ele>394.5</ele>
        <time>2022-09-25T15:03:44Z</time>
      </trkpt>
      <trkpt lat="45.75011" lon="5.72619">
        <ele>394.6</ele>
        <time>2022-09-25T15:03:45Z</time>
      </trkpt>
      <trkpt lat="45.75011" lon="5.7262">
        <ele>394.6</ele>
        <time>2022-09-25T15:03:46Z</time>
      </trkpt>
      <trkpt lat="45.75013" lon="5.72622">
        <ele>394.8</ele>
        <time>2022-09-25T15:03:47Z</time>
      </trkpt>
      <trkpt lat="45.75015" lon="5.72624">
        <ele>395</ele>
        <time>2022-09-25T15:03:48Z</time>
      </trkpt>
      <trkpt lat="45.75016" lon="5.72625">
        <ele>395</ele>
        <time>2022-09-25T15:03:49Z</time>
      </trkpt>
      <trkpt lat="45.75017" lon="5.72625">
        <ele>395.1</ele>
        <time>2022-09-25T15:03:50Z</time>
      </trkpt>
      <trkpt lat="45.75018" lon="5.72627">
        <ele>395.2</ele>
        <time>2022-09-25T15:03:51Z</time>
      </trkpt>
      <trkpt lat="45.75019" lon="5.72628">
        <ele>395.3</ele>
        <time>2022-09-25T15:03:52Z</time>
      </trkpt>
      <trkpt lat="45.75021" lon="5.72629">
        <ele>395.5</ele>
        <time>2022-09-25T15:03:53Z</time>
      </trkpt>
      <trkpt lat="45.75022" lon="5.7263">
        <ele>395.6</ele>
        <time>2022-09-25T15:03:54Z</time>
      </trkpt>
      <trkpt lat="45.75023" lon="5.72631">
        <ele>395.7</ele>
        <time>2022-09-25T15:03:55Z</time>
      </trkpt>
      <trkpt lat="45.75024" lon="5.72633">
        <ele>395.8</ele>
        <time>2022-09-25T15:03:56Z</time>
      </trkpt>
      <trkpt lat="45.75025" lon="5.72634">
        <ele>395.9</ele>
        <time>2022-09-25T15:03:57Z</time>
      </trkpt>
      <trkpt lat="45.75026" lon="5.72635">
        <ele>396</ele>
        <time>2022-09-25T15:03:58Z</time>
      </trkpt>
      <trkpt lat="45.75028" lon="5.72638">
        <ele>396.2</ele>
        <time>2022-09-25T15:03:59Z</time>
      </trkpt>
      <trkpt lat="45.75028" lon="5.72638">
        <ele>396.2</ele>
        <time>2022-09-25T15:04:00Z</time>
      </trkpt>
      <trkpt lat="45.75029" lon="5.72639">
        <ele>396.3</ele>
        <time>2022-09-25T15:04:01Z</time>
      </trkpt>
      <trkpt lat="45.75031" lon="5.72641">
        <ele>396.5</ele>
        <time>2022-09-25T15:04:02Z</time>
      </trkpt>
      <trkpt lat="45.75032" lon="5.72642">
        <ele>396.5</ele>
        <time>2022-09-25T15:04:03Z</time>
      </trkpt>
      <trkpt lat="45.75032" lon="5.72642">
        <ele>396.6</ele>
        <time>2022-09-25T15:04:04Z</time>
      </trkpt>
      <trkpt lat="45.75034" lon="5.72643">
        <ele>396.7</ele>
        <time>2022-09-25T15:04:05Z</time>
      </trkpt>
      <trkpt lat="45.75036" lon="5.72644">
        <ele>396.9</ele>
        <time>2022-09-25T15:04:06Z</time>
      </trkpt>
      <trkpt lat="45.75038" lon="5.72647">
        <ele>397.1</ele>
        <time>2022-09-25T15:04:07Z</time>
      </trkpt>
      <trkpt lat="45.7504" lon="5.72648">
        <ele>397.3</ele>
        <time>2022-09-25T15:04:08Z</time>
      </trkpt>
      <trkpt lat="45.75042" lon="5.72649">
        <ele>397.4</ele>
        <time>2022-09-25T15:04:09Z</time>
      </trkpt>
      <trkpt lat="45.75043" lon="5.7265">
        <ele>397.5</ele>
        <time>2022-09-25T15:04:10Z</time>
      </trkpt>
      <trkpt lat="45.75044" lon="5.72652">
        <ele>397.6</ele>
        <time>2022-09-25T15:04:11Z</time>
      </trkpt>
      <trkpt lat="45.75046" lon="5.72653">
        <ele>397.7</ele>
        <time>2022-09-25T15:04:12Z</time>
      </trkpt>
      <trkpt lat="45.75047" lon="5.72654">
        <ele>397.8</ele>
        <time>2022-09-25T15:04:13Z</time>
      </trkpt>
      <trkpt lat="45.75048" lon="5.72656">
        <ele>397.9</ele>
        <time>2022-09-25T15:04:14Z</time>
      </trkpt>
      <trkpt lat="45.75049" lon="5.72657">
        <ele>398</ele>
        <time>2022-09-25T15:04:15Z</time>
      </trkpt>
      <trkpt lat="45.75051" lon="5.72657">
        <ele>398.2</ele>
        <time>2022-09-25T15:04:16Z</time>
      </trkpt>
      <trkpt lat="45.75052" lon="5.72659">
        <ele>398.3</ele>
        <time>2022-09-25T15:04:17Z</time>
      </trkpt>
      <trkpt lat="45.75055" lon="5.72661">
        <ele>398.5</ele>
        <time>2022-09-25T15:04:18Z</time>
      </trkpt>
      <trkpt lat="45.75056" lon="5.72661">
        <ele>398.5</ele>
        <time>2022-09-25T15:04:19Z</time>
      </trkpt>
      <trkpt lat="45.75057" lon="5.72662">
        <ele>398.7</ele>
        <time>2022-09-25T15:04:20Z</time>
      </trkpt>
      <trkpt lat="45.75058" lon="5.72663">
        <ele>398.8</ele>
        <time>2022-09-25T15:04:21Z</time>
      </trkpt>
      <trkpt lat="45.75059" lon="5.72665">
        <ele>398.8</ele>
        <time>2022-09-25T15:04:22Z</time>
      </trkpt>
      <trkpt lat="45.7506" lon="5.72666">
        <ele>399</ele>
        <time>2022-09-25T15:04:23Z</time>
      </trkpt>
      <trkpt lat="45.75062" lon="5.72667">
        <ele>399.1</ele>
        <time>2022-09-25T15:04:24Z</time>
      </trkpt>
      <trkpt lat="45.75064" lon="5.72668">
        <ele>399.2</ele>
        <time>2022-09-25T15:04:25Z</time>
      </trkpt>
      <trkpt lat="45.75065" lon="5.72669">
        <ele>399.4</ele>
        <time>2022-09-25T15:04:26Z</time>
      </trkpt>
      <trkpt lat="45.75066" lon="5.72671">
        <ele>399.5</ele>
        <time>2022-09-25T15:04:27Z</time>
      </trkpt>
      <trkpt lat="45.75068" lon="5.72672">
        <ele>399.6</ele>
        <time>2022-09-25T15:04:28Z</time>
      </trkpt>
      <trkpt lat="45.75069" lon="5.72673">
        <ele>399.7</ele>
        <time>2022-09-25T15:04:29Z</time>
      </trkpt>
      <trkpt lat="45.75069" lon="5.72674">
        <ele>399.7</ele>
        <time>2022-09-25T15:04:30Z</time>
      </trkpt>
      <trkpt lat="45.75071" lon="5.72676">
        <ele>399.9</ele>
        <time>2022-09-25T15:04:31Z</time>
      </trkpt>
      <trkpt lat="45.75072" lon="5.72677">
        <ele>400</ele>
        <time>2022-09-25T15:04:32Z</time>
      </trkpt>
      <trkpt lat="45.75073" lon="5.72678">
        <ele>400</ele>
        <time>2022-09-25T15:04:33Z</time>
      </trkpt>
      <trkpt lat="45.75075" lon="5.7268">
        <ele>400.2</ele>
        <time>2022-09-25T15:04:34Z</time>
      </trkpt>
      <trkpt lat="45.75076" lon="5.72681">
        <ele>400.3</ele>
        <time>2022-09-25T15:04:35Z</time>
      </trkpt>
      <trkpt lat="45.75077" lon="5.72682">
        <ele>400.4</ele>
        <time>2022-09-25T15:04:36Z</time>
      </trkpt>
      <trkpt lat="45.75079" lon="5.72683">
        <ele>400.5</ele>
        <time>2022-09-25T15:04:37Z</time>
      </trkpt>
      <trkpt lat="45.75081" lon="5.72685">
        <ele>400.7</ele>
        <time>2022-09-25T15:04:38Z</time>
      </trkpt>
      <trkpt lat="45.75081" lon="5.72686">
        <ele>400.8</ele>
        <time>2022-09-25T15:04:39Z</time>
      </trkpt>
      <trkpt lat="45.75083" lon="5.72688">
        <ele>400.9</ele>
        <time>2022-09-25T15:04:40Z</time>
      </trkpt>
      <trkpt lat="45.75084" lon="5.72689">
        <ele>401</ele>
        <time>2022-09-25T15:04:41Z</time>
      </trkpt>
      <trkpt lat="45.75085" lon="5.7269">
        <ele>401.1</ele>
        <time>2022-09-25T15:04:42Z</time>
      </trkpt>
      <trkpt lat="45.75086" lon="5.72692">
        <ele>401.2</ele>
        <time>2022-09-25T15:04:43Z</time>
      </trkpt>
      <trkpt lat="45.75087" lon="5.72694">
        <ele>401.4</ele>
        <time>2022-09-25T15:04:44Z</time>
      </trkpt>
      <trkpt lat="45.75087" lon="5.72695">
        <ele>401.5</ele>
        <time>2022-09-25T15:04:45Z</time>
      </trkpt>
      <trkpt lat="45.75089" lon="5.72696">
        <ele>401.6</ele>
        <time>2022-09-25T15:04:46Z</time>
      </trkpt>
      <trkpt lat="45.7509" lon="5.72698">
        <ele>401.7</ele>
        <time>2022-09-25T15:04:47Z</time>
      </trkpt>
      <trkpt lat="45.75091" lon="5.72699">
        <ele>401.8</ele>
        <time>2022-09-25T15:04:48Z</time>
      </trkpt>
      <trkpt lat="45.75092" lon="5.72701">
        <ele>401.9</ele>
        <time>2022-09-25T15:04:49Z</time>
      </trkpt>
      <trkpt lat="45.75093" lon="5.72702">
        <ele>402</ele>
        <time>2022-09-25T15:04:50Z</time>
      </trkpt>
      <trkpt lat="45.75095" lon="5.72703">
        <ele>402.2</ele>
        <time>2022-09-25T15:04:51Z</time>
      </trkpt>
      <trkpt lat="45.75097" lon="5.72704">
        <ele>402.3</ele>
        <time>2022-09-25T15:04:52Z</time>
      </trkpt>
      <trkpt lat="45.75098" lon="5.72705">
        <ele>402.4</ele>
        <time>2022-09-25T15:04:53Z</time>
      </trkpt>
      <trkpt lat="45.75099" lon="5.72706">
        <ele>402.5</ele>
        <time>2022-09-25T15:04:54Z</time>
      </trkpt>
      <trkpt lat="45.751" lon="5.72707">
        <ele>402.6</ele>
        <time>2022-09-25T15:04:55Z</time>
      </trkpt>
      <trkpt lat="45.75102" lon="5.72709">
        <ele>402.8</ele>
        <time>2022-09-25T15:04:56Z</time>
      </trkpt>
      <trkpt lat="45.75104" lon="5.7271">
        <ele>402.9</ele>
        <time>2022-09-25T15:04:57Z</time>
      </trkpt>
      <trkpt lat="45.75105" lon="5.72711">
        <ele>403</ele>
        <time>2022-09-25T15:04:58Z</time>
      </trkpt>
      <trkpt lat="45.75106" lon="5.72712">
        <ele>403.1</ele>
        <time>2022-09-25T15:04:59Z</time>
      </trkpt>
      <trkpt lat="45.75107" lon="5.72713">
        <ele>403.2</ele>
        <time>2022-09-25T15:05:00Z</time>
      </trkpt>
      <trkpt lat="45.75108" lon="5.72713">
        <ele>403.3</ele>
        <time>2022-09-25T15:05:01Z</time>
      </trkpt>
      <trkpt lat="45.75109" lon="5.72715">
        <ele>403.4</ele>
        <time>2022-09-25T15:05:02Z</time>
      </trkpt>
      <trkpt lat="45.75109" lon="5.72716">
        <ele>403.4</ele>
        <time>2022-09-25T15:05:03Z</time>
      </trkpt>
      <trkpt lat="45.75111" lon="5.72718">
        <ele>403.6</ele>
        <time>2022-09-25T15:05:04Z</time>
      </trkpt>
      <trkpt lat="45.75112" lon="5.72719">
        <ele>403.7</ele>
        <time>2022-09-25T15:05:05Z</time>
      </trkpt>
      <trkpt lat="45.75114" lon="5.7272">
        <ele>403.8</ele>
        <time>2022-09-25T15:05:06Z</time>
      </trkpt>
      <trkpt lat="45.75115" lon="5.72721">
        <ele>403.9</ele>
        <time>2022-09-25T15:05:07Z</time>
      </trkpt>
      <trkpt lat="45.75116" lon="5.72721">
        <ele>404</ele>
        <time>2022-09-25T15:05:08Z</time>
      </trkpt>
      <trkpt lat="45.75118" lon="5.72724">
        <ele>404.2</ele>
        <time>2022-09-25T15:05:09Z</time>
      </trkpt>
      <trkpt lat="45.75119" lon="5.72724">
        <ele>404.2</ele>
        <time>2022-09-25T15:05:10Z</time>
      </trkpt>
      <trkpt lat="45.7512" lon="5.72726">
        <ele>404.3</ele>
        <time>2022-09-25T15:05:11Z</time>
      </trkpt>
      <trkpt lat="45.75121" lon="5.72727">
        <ele>404.4</ele>
        <time>2022-09-25T15:05:12Z</time>
      </trkpt>
      <trkpt lat="45.75123" lon="5.7273">
        <ele>404.6</ele>
        <time>2022-09-25T15:05:13Z</time>
      </trkpt>
      <trkpt lat="45.75124" lon="5.7273">
        <ele>404.7</ele>
        <time>2022-09-25T15:05:14Z</time>
      </trkpt>
      <trkpt lat="45.75126" lon="5.72733">
        <ele>404.9</ele>
        <time>2022-09-25T15:05:15Z</time>
      </trkpt>
      <trkpt lat="45.75126" lon="5.72734">
        <ele>405</ele>
        <time>2022-09-25T15:05:16Z</time>
      </trkpt>
      <trkpt lat="45.75127" lon="5.72735">
        <ele>405</ele>
        <time>2022-09-25T15:05:17Z</time>
      </trkpt>
      <trkpt lat="45.75128" lon="5.72736">
        <ele>405.2</ele>
        <time>2022-09-25T15:05:18Z</time>
      </trkpt>
      <trkpt lat="45.75129" lon="5.72738">
        <ele>405.3</ele>
        <time>2022-09-25T15:05:19Z</time>
      </trkpt>
      <trkpt lat="45.75131" lon="5.72739">
        <ele>405.4</ele>
        <time>2022-09-25T15:05:20Z</time>
      </trkpt>
      <trkpt lat="45.75131" lon="5.72741">
        <ele>405.5</ele>
        <time>2022-09-25T15:05:21Z</time>
      </trkpt>
      <trkpt lat="45.75132" lon="5.72742">
        <ele>405.6</ele>
        <time>2022-09-25T15:05:22Z</time>
      </trkpt>
      <trkpt lat="45.75133" lon="5.72743">
        <ele>405.7</ele>
        <time>2022-09-25T15:05:23Z</time>
      </trkpt>
      <trkpt lat="45.75134" lon="5.72745">
        <ele>405.8</ele>
        <time>2022-09-25T15:05:24Z</time>
      </trkpt>
      <trkpt lat="45.75136" lon="5.72747">
        <ele>405.9</ele>
        <time>2022-09-25T15:05:25Z</time>
      </trkpt>
      <trkpt lat="45.75137" lon="5.72748">
        <ele>406</ele>
        <time>2022-09-25T15:05:26Z</time>
      </trkpt>
      <trkpt lat="45.75138" lon="5.72749">
        <ele>406.1</ele>
        <time>2022-09-25T15:05:27Z</time>
      </trkpt>
      <trkpt lat="45.75139" lon="5.72752">
        <ele>406.3</ele>
        <time>2022-09-25T15:05:28Z</time>
      </trkpt>
      <trkpt lat="45.7514" lon="5.72753">
        <ele>406.4</ele>
        <time>2022-09-25T15:05:29Z</time>
      </trkpt>
      <trkpt lat="45.7514" lon="5.72754">
        <ele>406.5</ele>
        <time>2022-09-25T15:05:30Z</time>
      </trkpt>
      <trkpt lat="45.75142" lon="5.72757">
        <ele>406.7</ele>
        <time>2022-09-25T15:05:31Z</time>
      </trkpt>
      <trkpt lat="45.75142" lon="5.72758">
        <ele>406.7</ele>
        <time>2022-09-25T15:05:32Z</time>
      </trkpt>
      <trkpt lat="45.75143" lon="5.72759">
        <ele>406.8</ele>
        <time>2022-09-25T15:05:33Z</time>
      </trkpt>
      <trkpt lat="45.75145" lon="5.7276">
        <ele>406.9</ele>
        <time>2022-09-25T15:05:34Z</time>
      </trkpt>
      <trkpt lat="45.75145" lon="5.72761">
        <ele>407</ele>
        <time>2022-09-25T15:05:35Z</time>
      </trkpt>
      <trkpt lat="45.75148" lon="5.72763">
        <ele>407.2</ele>
        <time>2022-09-25T15:05:36Z</time>
      </trkpt>
      <trkpt lat="45.75149" lon="5.72765">
        <ele>407.4</ele>
        <time>2022-09-25T15:05:37Z</time>
      </trkpt>
      <trkpt lat="45.7515" lon="5.72766">
        <ele>407.5</ele>
        <time>2022-09-25T15:05:38Z</time>
      </trkpt>
      <trkpt lat="45.75151" lon="5.72768">
        <ele>407.6</ele>
        <time>2022-09-25T15:05:39Z</time>
      </trkpt>
      <trkpt lat="45.75152" lon="5.72769">
        <ele>407.7</ele>
        <time>2022-09-25T15:05:40Z</time>
      </trkpt>
      <trkpt lat="45.75153" lon="5.72771">
        <ele>407.8</ele>
        <time>2022-09-25T15:05:41Z</time>
      </trkpt>
      <trkpt lat="45.75154" lon="5.72773">
        <ele>407.9</ele>
        <time>2022-09-25T15:05:43Z</time>
      </trkpt>
      <trkpt lat="45.75155" lon="5.72774">
        <ele>408.1</ele>
        <time>2022-09-25T15:05:44Z</time>
      </trkpt>
      <trkpt lat="45.75156" lon="5.72776">
        <ele>408.1</ele>
        <time>2022-09-25T15:05:45Z</time>
      </trkpt>
      <trkpt lat="45.75157" lon="5.72778">
        <ele>408.3</ele>
        <time>2022-09-25T15:05:46Z</time>
      </trkpt>
      <trkpt lat="45.75158" lon="5.72779">
        <ele>408.4</ele>
        <time>2022-09-25T15:05:47Z</time>
      </trkpt>
      <trkpt lat="45.75158" lon="5.7278">
        <ele>408.4</ele>
        <time>2022-09-25T15:05:48Z</time>
      </trkpt>
      <trkpt lat="45.7516" lon="5.72783">
        <ele>408.6</ele>
        <time>2022-09-25T15:05:49Z</time>
      </trkpt>
      <trkpt lat="45.75161" lon="5.72783">
        <ele>408.7</ele>
        <time>2022-09-25T15:05:50Z</time>
      </trkpt>
      <trkpt lat="45.75162" lon="5.72784">
        <ele>408.8</ele>
        <time>2022-09-25T15:05:51Z</time>
      </trkpt>
      <trkpt lat="45.75162" lon="5.72786">
        <ele>408.9</ele>
        <time>2022-09-25T15:05:52Z</time>
      </trkpt>
      <trkpt lat="45.75163" lon="5.72788">
        <ele>409</ele>
        <time>2022-09-25T15:05:53Z</time>
      </trkpt>
      <trkpt lat="45.75164" lon="5.7279">
        <ele>409.1</ele>
        <time>2022-09-25T15:05:54Z</time>
      </trkpt>
      <trkpt lat="45.75165" lon="5.72791">
        <ele>409.2</ele>
        <time>2022-09-25T15:05:55Z</time>
      </trkpt>
      <trkpt lat="45.75165" lon="5.72792">
        <ele>409.3</ele>
        <time>2022-09-25T15:05:56Z</time>
      </trkpt>
      <trkpt lat="45.75166" lon="5.72793">
        <ele>409.3</ele>
        <time>2022-09-25T15:05:57Z</time>
      </trkpt>
      <trkpt lat="45.75167" lon="5.72794">
        <ele>409.5</ele>
        <time>2022-09-25T15:05:58Z</time>
      </trkpt>
      <trkpt lat="45.75168" lon="5.72795">
        <ele>409.5</ele>
        <time>2022-09-25T15:05:59Z</time>
      </trkpt>
      <trkpt lat="45.7517" lon="5.72797">
        <ele>409.7</ele>
        <time>2022-09-25T15:06:00Z</time>
      </trkpt>
      <trkpt lat="45.7517" lon="5.72798">
        <ele>409.8</ele>
        <time>2022-09-25T15:06:01Z</time>
      </trkpt>
      <trkpt lat="45.75171" lon="5.72799">
        <ele>409.8</ele>
        <time>2022-09-25T15:06:02Z</time>
      </trkpt>
      <trkpt lat="45.75171" lon="5.72801">
        <ele>409.9</ele>
        <time>2022-09-25T15:06:03Z</time>
      </trkpt>
      <trkpt lat="45.75173" lon="5.72803">
        <ele>410.1</ele>
        <time>2022-09-25T15:06:04Z</time>
      </trkpt>
      <trkpt lat="45.75174" lon="5.72804">
        <ele>410.2</ele>
        <time>2022-09-25T15:06:05Z</time>
      </trkpt>
      <trkpt lat="45.75175" lon="5.72804">
        <ele>410.3</ele>
        <time>2022-09-25T15:06:06Z</time>
      </trkpt>
      <trkpt lat="45.75176" lon="5.72807">
        <ele>410.4</ele>
        <time>2022-09-25T15:06:07Z</time>
      </trkpt>
      <trkpt lat="45.75176" lon="5.72808">
        <ele>410.5</ele>
        <time>2022-09-25T15:06:08Z</time>
      </trkpt>
      <trkpt lat="45.75177" lon="5.72809">
        <ele>410.5</ele>
        <time>2022-09-25T15:06:09Z</time>
      </trkpt>
      <trkpt lat="45.75178" lon="5.7281">
        <ele>410.7</ele>
        <time>2022-09-25T15:06:10Z</time>
      </trkpt>
      <trkpt lat="45.75179" lon="5.72812">
        <ele>410.8</ele>
        <time>2022-09-25T15:06:11Z</time>
      </trkpt>
      <trkpt lat="45.7518" lon="5.72814">
        <ele>410.9</ele>
        <time>2022-09-25T15:06:12Z</time>
      </trkpt>
      <trkpt lat="45.75181" lon="5.72815">
        <ele>411</ele>
        <time>2022-09-25T15:06:13Z</time>
      </trkpt>
      <trkpt lat="45.75183" lon="5.72817">
        <ele>411.2</ele>
        <time>2022-09-25T15:06:14Z</time>
      </trkpt>
      <trkpt lat="45.75184" lon="5.72819">
        <ele>411.2</ele>
        <time>2022-09-25T15:06:15Z</time>
      </trkpt>
      <trkpt lat="45.75184" lon="5.7282">
        <ele>411.3</ele>
        <time>2022-09-25T15:06:16Z</time>
      </trkpt>
      <trkpt lat="45.75186" lon="5.72821">
        <ele>411.5</ele>
        <time>2022-09-25T15:06:17Z</time>
      </trkpt>
      <trkpt lat="45.75187" lon="5.72823">
        <ele>411.6</ele>
        <time>2022-09-25T15:06:18Z</time>
      </trkpt>
      <trkpt lat="45.75189" lon="5.72826">
        <ele>411.8</ele>
        <time>2022-09-25T15:06:19Z</time>
      </trkpt>
      <trkpt lat="45.7519" lon="5.72828">
        <ele>411.9</ele>
        <time>2022-09-25T15:06:20Z</time>
      </trkpt>
      <trkpt lat="45.75191" lon="5.72829">
        <ele>412</ele>
        <time>2022-09-25T15:06:21Z</time>
      </trkpt>
      <trkpt lat="45.75192" lon="5.72831">
        <ele>412.1</ele>
        <time>2022-09-25T15:06:22Z</time>
      </trkpt>
      <trkpt lat="45.75194" lon="5.72834">
        <ele>412.3</ele>
        <time>2022-09-25T15:06:23Z</time>
      </trkpt>
      <trkpt lat="45.75194" lon="5.72835">
        <ele>412.3</ele>
        <time>2022-09-25T15:06:24Z</time>
      </trkpt>
      <trkpt lat="45.75195" lon="5.72836">
        <ele>412.4</ele>
        <time>2022-09-25T15:06:25Z</time>
      </trkpt>
      <trkpt lat="45.75195" lon="5.72837">
        <ele>412.5</ele>
        <time>2022-09-25T15:06:26Z</time>
      </trkpt>
      <trkpt lat="45.75197" lon="5.72839">
        <ele>412.6</ele>
        <time>2022-09-25T15:06:27Z</time>
      </trkpt>
      <trkpt lat="45.75198" lon="5.7284">
        <ele>412.7</ele>
        <time>2022-09-25T15:06:28Z</time>
      </trkpt>
      <trkpt lat="45.75199" lon="5.72842">
        <ele>412.9</ele>
        <time>2022-09-25T15:06:29Z</time>
      </trkpt>
      <trkpt lat="45.752" lon="5.72843">
        <ele>412.9</ele>
        <time>2022-09-25T15:06:30Z</time>
      </trkpt>
      <trkpt lat="45.752" lon="5.72844">
        <ele>413</ele>
        <time>2022-09-25T15:06:31Z</time>
      </trkpt>
      <trkpt lat="45.75201" lon="5.72845">
        <ele>413.1</ele>
        <time>2022-09-25T15:06:32Z</time>
      </trkpt>
      <trkpt lat="45.75202" lon="5.72848">
        <ele>413.2</ele>
        <time>2022-09-25T15:06:33Z</time>
      </trkpt>
      <trkpt lat="45.75202" lon="5.72849">
        <ele>413.3</ele>
        <time>2022-09-25T15:06:34Z</time>
      </trkpt>
      <trkpt lat="45.75203" lon="5.72851">
        <ele>413.4</ele>
        <time>2022-09-25T15:06:35Z</time>
      </trkpt>
      <trkpt lat="45.75204" lon="5.72853">
        <ele>413.6</ele>
        <time>2022-09-25T15:06:36Z</time>
      </trkpt>
      <trkpt lat="45.75206" lon="5.72854">
        <ele>413.7</ele>
        <time>2022-09-25T15:06:37Z</time>
      </trkpt>
      <trkpt lat="45.75207" lon="5.72856">
        <ele>413.8</ele>
        <time>2022-09-25T15:06:38Z</time>
      </trkpt>
      <trkpt lat="45.75207" lon="5.72857">
        <ele>413.9</ele>
        <time>2022-09-25T15:06:39Z</time>
      </trkpt>
      <trkpt lat="45.75209" lon="5.72859">
        <ele>414</ele>
        <time>2022-09-25T15:06:40Z</time>
      </trkpt>
      <trkpt lat="45.7521" lon="5.72861">
        <ele>414.2</ele>
        <time>2022-09-25T15:06:41Z</time>
      </trkpt>
      <trkpt lat="45.75211" lon="5.72863">
        <ele>414.3</ele>
        <time>2022-09-25T15:06:42Z</time>
      </trkpt>
      <trkpt lat="45.75212" lon="5.72866">
        <ele>414.5</ele>
        <time>2022-09-25T15:06:43Z</time>
      </trkpt>
      <trkpt lat="45.75212" lon="5.72867">
        <ele>414.5</ele>
        <time>2022-09-25T15:06:44Z</time>
      </trkpt>
      <trkpt lat="45.75213" lon="5.72868">
        <ele>414.6</ele>
        <time>2022-09-25T15:06:45Z</time>
      </trkpt>
      <trkpt lat="45.75213" lon="5.72869">
        <ele>414.7</ele>
        <time>2022-09-25T15:06:46Z</time>
      </trkpt>
      <trkpt lat="45.75214" lon="5.72872">
        <ele>414.8</ele>
        <time>2022-09-25T15:06:47Z</time>
      </trkpt>
      <trkpt lat="45.75216" lon="5.72873">
        <ele>415</ele>
        <time>2022-09-25T15:06:48Z</time>
      </trkpt>
      <trkpt lat="45.75216" lon="5.72875">
        <ele>415.1</ele>
        <time>2022-09-25T15:06:49Z</time>
      </trkpt>
      <trkpt lat="45.75218" lon="5.72878">
        <ele>415.3</ele>
        <time>2022-09-25T15:06:50Z</time>
      </trkpt>
      <trkpt lat="45.75218" lon="5.72879">
        <ele>415.3</ele>
        <time>2022-09-25T15:06:51Z</time>
      </trkpt>
      <trkpt lat="45.75219" lon="5.7288">
        <ele>415.4</ele>
        <time>2022-09-25T15:06:52Z</time>
      </trkpt>
      <trkpt lat="45.7522" lon="5.72882">
        <ele>415.6</ele>
        <time>2022-09-25T15:06:53Z</time>
      </trkpt>
      <trkpt lat="45.7522" lon="5.72883">
        <ele>415.6</ele>
        <time>2022-09-25T15:06:54Z</time>
      </trkpt>
      <trkpt lat="45.75221" lon="5.72884">
        <ele>415.7</ele>
        <time>2022-09-25T15:06:55Z</time>
      </trkpt>
      <trkpt lat="45.7522" lon="5.72887">
        <ele>415.9</ele>
        <time>2022-09-25T15:06:56Z</time>
      </trkpt>
      <trkpt lat="45.7522" lon="5.72888">
        <ele>415.9</ele>
        <time>2022-09-25T15:06:57Z</time>
      </trkpt>
      <trkpt lat="45.7522" lon="5.72889">
        <ele>416</ele>
        <time>2022-09-25T15:06:58Z</time>
      </trkpt>
      <trkpt lat="45.75221" lon="5.72893">
        <ele>416.2</ele>
        <time>2022-09-25T15:06:59Z</time>
      </trkpt>
      <trkpt lat="45.75221" lon="5.72895">
        <ele>416.3</ele>
        <time>2022-09-25T15:07:00Z</time>
      </trkpt>
      <trkpt lat="45.75221" lon="5.72897">
        <ele>416.4</ele>
        <time>2022-09-25T15:07:01Z</time>
      </trkpt>
      <trkpt lat="45.75222" lon="5.72899">
        <ele>416.6</ele>
        <time>2022-09-25T15:07:02Z</time>
      </trkpt>
      <trkpt lat="45.75223" lon="5.72902">
        <ele>416.7</ele>
        <time>2022-09-25T15:07:03Z</time>
      </trkpt>
      <trkpt lat="45.75223" lon="5.72903">
        <ele>416.8</ele>
        <time>2022-09-25T15:07:04Z</time>
      </trkpt>
      <trkpt lat="45.75223" lon="5.72904">
        <ele>416.8</ele>
        <time>2022-09-25T15:07:05Z</time>
      </trkpt>
      <trkpt lat="45.75223" lon="5.72906">
        <ele>417</ele>
        <time>2022-09-25T15:07:06Z</time>
      </trkpt>
      <trkpt lat="45.75223" lon="5.72908">
        <ele>417.1</ele>
        <time>2022-09-25T15:07:07Z</time>
      </trkpt>
      <trkpt lat="45.75223" lon="5.72912">
        <ele>417.3</ele>
        <time>2022-09-25T15:07:08Z</time>
      </trkpt>
      <trkpt lat="45.75224" lon="5.72913">
        <ele>417.3</ele>
        <time>2022-09-25T15:07:09Z</time>
      </trkpt>
      <trkpt lat="45.75224" lon="5.72914">
        <ele>417.4</ele>
        <time>2022-09-25T15:07:10Z</time>
      </trkpt>
      <trkpt lat="45.75225" lon="5.72918">
        <ele>417.6</ele>
        <time>2022-09-25T15:07:11Z</time>
      </trkpt>
      <trkpt lat="45.75225" lon="5.72919">
        <ele>417.7</ele>
        <time>2022-09-25T15:07:12Z</time>
      </trkpt>
      <trkpt lat="45.75225" lon="5.72921">
        <ele>417.8</ele>
        <time>2022-09-25T15:07:13Z</time>
      </trkpt>
      <trkpt lat="45.75225" lon="5.72924">
        <ele>418</ele>
        <time>2022-09-25T15:07:14Z</time>
      </trkpt>
      <trkpt lat="45.75225" lon="5.72925">
        <ele>418</ele>
        <time>2022-09-25T15:07:15Z</time>
      </trkpt>
      <trkpt lat="45.75227" lon="5.72928">
        <ele>418.2</ele>
        <time>2022-09-25T15:07:16Z</time>
      </trkpt>
      <trkpt lat="45.75227" lon="5.72929">
        <ele>418.3</ele>
        <time>2022-09-25T15:07:17Z</time>
      </trkpt>
      <trkpt lat="45.75227" lon="5.72931">
        <ele>418.4</ele>
        <time>2022-09-25T15:07:18Z</time>
      </trkpt>
      <trkpt lat="45.75228" lon="5.72935">
        <ele>418.6</ele>
        <time>2022-09-25T15:07:19Z</time>
      </trkpt>
      <trkpt lat="45.75228" lon="5.72936">
        <ele>418.7</ele>
        <time>2022-09-25T15:07:20Z</time>
      </trkpt>
      <trkpt lat="45.75229" lon="5.72938">
        <ele>418.8</ele>
        <time>2022-09-25T15:07:21Z</time>
      </trkpt>
      <trkpt lat="45.7523" lon="5.7294">
        <ele>418.9</ele>
        <time>2022-09-25T15:07:22Z</time>
      </trkpt>
      <trkpt lat="45.7523" lon="5.72942">
        <ele>419</ele>
        <time>2022-09-25T15:07:23Z</time>
      </trkpt>
      <trkpt lat="45.7523" lon="5.72944">
        <ele>419.1</ele>
        <time>2022-09-25T15:07:24Z</time>
      </trkpt>
      <trkpt lat="45.75231" lon="5.72946">
        <ele>419.3</ele>
        <time>2022-09-25T15:07:25Z</time>
      </trkpt>
      <trkpt lat="45.75231" lon="5.72948">
        <ele>419.4</ele>
        <time>2022-09-25T15:07:26Z</time>
      </trkpt>
      <trkpt lat="45.75232" lon="5.7295">
        <ele>419.5</ele>
        <time>2022-09-25T15:07:27Z</time>
      </trkpt>
      <trkpt lat="45.75231" lon="5.72952">
        <ele>419.6</ele>
        <time>2022-09-25T15:07:28Z</time>
      </trkpt>
      <trkpt lat="45.75231" lon="5.72953">
        <ele>419.7</ele>
        <time>2022-09-25T15:07:29Z</time>
      </trkpt>
      <trkpt lat="45.75233" lon="5.72955">
        <ele>419.8</ele>
        <time>2022-09-25T15:07:30Z</time>
      </trkpt>
      <trkpt lat="45.75233" lon="5.72957">
        <ele>419.9</ele>
        <time>2022-09-25T15:07:31Z</time>
      </trkpt>
      <trkpt lat="45.75234" lon="5.72959">
        <ele>420</ele>
        <time>2022-09-25T15:07:32Z</time>
      </trkpt>
      <trkpt lat="45.75235" lon="5.72961">
        <ele>420.2</ele>
        <time>2022-09-25T15:07:33Z</time>
      </trkpt>
      <trkpt lat="45.75236" lon="5.72963">
        <ele>420.3</ele>
        <time>2022-09-25T15:07:34Z</time>
      </trkpt>
      <trkpt lat="45.75237" lon="5.72965">
        <ele>420.4</ele>
        <time>2022-09-25T15:07:35Z</time>
      </trkpt>
      <trkpt lat="45.75238" lon="5.72967">
        <ele>420.5</ele>
        <time>2022-09-25T15:07:36Z</time>
      </trkpt>
      <trkpt lat="45.75239" lon="5.72969">
        <ele>420.6</ele>
        <time>2022-09-25T15:07:37Z</time>
      </trkpt>
      <trkpt lat="45.75239" lon="5.72971">
        <ele>420.8</ele>
        <time>2022-09-25T15:07:38Z</time>
      </trkpt>
      <trkpt lat="45.75239" lon="5.72973">
        <ele>420.9</ele>
        <time>2022-09-25T15:07:39Z</time>
      </trkpt>
      <trkpt lat="45.75241" lon="5.72975">
        <ele>421</ele>
        <time>2022-09-25T15:07:40Z</time>
      </trkpt>
      <trkpt lat="45.75241" lon="5.72977">
        <ele>421.1</ele>
        <time>2022-09-25T15:07:41Z</time>
      </trkpt>
      <trkpt lat="45.75241" lon="5.72979">
        <ele>421.2</ele>
        <time>2022-09-25T15:07:42Z</time>
      </trkpt>
      <trkpt lat="45.75241" lon="5.72981">
        <ele>421.3</ele>
        <time>2022-09-25T15:07:43Z</time>
      </trkpt>
      <trkpt lat="45.7524" lon="5.72982">
        <ele>421.4</ele>
        <time>2022-09-25T15:07:44Z</time>
      </trkpt>
      <trkpt lat="45.75241" lon="5.72985">
        <ele>421.5</ele>
        <time>2022-09-25T15:07:45Z</time>
      </trkpt>
      <trkpt lat="45.75241" lon="5.72986">
        <ele>421.6</ele>
        <time>2022-09-25T15:07:46Z</time>
      </trkpt>
      <trkpt lat="45.75242" lon="5.72989">
        <ele>421.8</ele>
        <time>2022-09-25T15:07:47Z</time>
      </trkpt>
      <trkpt lat="45.75242" lon="5.7299">
        <ele>421.9</ele>
        <time>2022-09-25T15:07:49Z</time>
      </trkpt>
      <trkpt lat="45.75242" lon="5.72992">
        <ele>422</ele>
        <time>2022-09-25T15:07:50Z</time>
      </trkpt>
      <trkpt lat="45.75242" lon="5.72994">
        <ele>422.1</ele>
        <time>2022-09-25T15:07:51Z</time>
      </trkpt>
      <trkpt lat="45.75242" lon="5.72996">
        <ele>422.2</ele>
        <time>2022-09-25T15:07:52Z</time>
      </trkpt>
      <trkpt lat="45.75243" lon="5.72998">
        <ele>422.3</ele>
        <time>2022-09-25T15:07:53Z</time>
      </trkpt>
      <trkpt lat="45.75243" lon="5.73">
        <ele>422.4</ele>
        <time>2022-09-25T15:07:54Z</time>
      </trkpt>
      <trkpt lat="45.75243" lon="5.73002">
        <ele>422.5</ele>
        <time>2022-09-25T15:07:55Z</time>
      </trkpt>
      <trkpt lat="45.75243" lon="5.73004">
        <ele>422.6</ele>
        <time>2022-09-25T15:07:56Z</time>
      </trkpt>
      <trkpt lat="45.75244" lon="5.73006">
        <ele>422.7</ele>
        <time>2022-09-25T15:07:57Z</time>
      </trkpt>
      <trkpt lat="45.75244" lon="5.73009">
        <ele>422.9</ele>
        <time>2022-09-25T15:07:58Z</time>
      </trkpt>
      <trkpt lat="45.75244" lon="5.73011">
        <ele>423</ele>
        <time>2022-09-25T15:07:59Z</time>
      </trkpt>
      <trkpt lat="45.75244" lon="5.73012">
        <ele>423.1</ele>
        <time>2022-09-25T15:08:00Z</time>
      </trkpt>
      <trkpt lat="45.75244" lon="5.73014">
        <ele>423.2</ele>
        <time>2022-09-25T15:08:01Z</time>
      </trkpt>
      <trkpt lat="45.75244" lon="5.73016">
        <ele>423.3</ele>
        <time>2022-09-25T15:08:02Z</time>
      </trkpt>
      <trkpt lat="45.75244" lon="5.73017">
        <ele>423.4</ele>
        <time>2022-09-25T15:08:03Z</time>
      </trkpt>
      <trkpt lat="45.75244" lon="5.73019">
        <ele>423.5</ele>
        <time>2022-09-25T15:08:04Z</time>
      </trkpt>
      <trkpt lat="45.75245" lon="5.73022">
        <ele>423.6</ele>
        <time>2022-09-25T15:08:05Z</time>
      </trkpt>
      <trkpt lat="45.75245" lon="5.73023">
        <ele>423.8</ele>
        <time>2022-09-25T15:08:06Z</time>
      </trkpt>
      <trkpt lat="45.75246" lon="5.73025">
        <ele>423.9</ele>
        <time>2022-09-25T15:08:07Z</time>
      </trkpt>
      <trkpt lat="45.75246" lon="5.73027">
        <ele>424</ele>
        <time>2022-09-25T15:08:08Z</time>
      </trkpt>
      <trkpt lat="45.75247" lon="5.73029">
        <ele>424.1</ele>
        <time>2022-09-25T15:08:09Z</time>
      </trkpt>
      <trkpt lat="45.75247" lon="5.73032">
        <ele>424.2</ele>
        <time>2022-09-25T15:08:10Z</time>
      </trkpt>
      <trkpt lat="45.75247" lon="5.73034">
        <ele>424.4</ele>
        <time>2022-09-25T15:08:11Z</time>
      </trkpt>
      <trkpt lat="45.75247" lon="5.73035">
        <ele>424.4</ele>
        <time>2022-09-25T15:08:12Z</time>
      </trkpt>
      <trkpt lat="45.75247" lon="5.73037">
        <ele>424.6</ele>
        <time>2022-09-25T15:08:13Z</time>
      </trkpt>
      <trkpt lat="45.75247" lon="5.73038">
        <ele>424.6</ele>
        <time>2022-09-25T15:08:14Z</time>
      </trkpt>
      <trkpt lat="45.75247" lon="5.7304">
        <ele>424.7</ele>
        <time>2022-09-25T15:08:15Z</time>
      </trkpt>
      <trkpt lat="45.75247" lon="5.73041">
        <ele>424.8</ele>
        <time>2022-09-25T15:08:16Z</time>
      </trkpt>
      <trkpt lat="45.75248" lon="5.73043">
        <ele>424.9</ele>
        <time>2022-09-25T15:08:17Z</time>
      </trkpt>
      <trkpt lat="45.75248" lon="5.73045">
        <ele>425</ele>
        <time>2022-09-25T15:08:18Z</time>
      </trkpt>
      <trkpt lat="45.75249" lon="5.73047">
        <ele>425.2</ele>
        <time>2022-09-25T15:08:19Z</time>
      </trkpt>
      <trkpt lat="45.75248" lon="5.73049">
        <ele>425.3</ele>
        <time>2022-09-25T15:08:20Z</time>
      </trkpt>
      <trkpt lat="45.75249" lon="5.7305">
        <ele>425.4</ele>
        <time>2022-09-25T15:08:21Z</time>
      </trkpt>
      <trkpt lat="45.75249" lon="5.73051">
        <ele>425.4</ele>
        <time>2022-09-25T15:08:22Z</time>
      </trkpt>
      <trkpt lat="45.7525" lon="5.73053">
        <ele>425.6</ele>
        <time>2022-09-25T15:08:23Z</time>
      </trkpt>
      <trkpt lat="45.7525" lon="5.73055">
        <ele>425.7</ele>
        <time>2022-09-25T15:08:24Z</time>
      </trkpt>
      <trkpt lat="45.75251" lon="5.73059">
        <ele>425.9</ele>
        <time>2022-09-25T15:08:25Z</time>
      </trkpt>
      <trkpt lat="45.75251" lon="5.7306">
        <ele>426</ele>
        <time>2022-09-25T15:08:26Z</time>
      </trkpt>
      <trkpt lat="45.75252" lon="5.73063">
        <ele>426.1</ele>
        <time>2022-09-25T15:08:27Z</time>
      </trkpt>
      <trkpt lat="45.75252" lon="5.73065">
        <ele>426.2</ele>
        <time>2022-09-25T15:08:28Z</time>
      </trkpt>
      <trkpt lat="45.75253" lon="5.73067">
        <ele>426.3</ele>
        <time>2022-09-25T15:08:29Z</time>
      </trkpt>
      <trkpt lat="45.75254" lon="5.73069">
        <ele>426.5</ele>
        <time>2022-09-25T15:08:30Z</time>
      </trkpt>
      <trkpt lat="45.75254" lon="5.73072">
        <ele>426.6</ele>
        <time>2022-09-25T15:08:31Z</time>
      </trkpt>
      <trkpt lat="45.75254" lon="5.73074">
        <ele>426.7</ele>
        <time>2022-09-25T15:08:32Z</time>
      </trkpt>
      <trkpt lat="45.75255" lon="5.73077">
        <ele>426.9</ele>
        <time>2022-09-25T15:08:33Z</time>
      </trkpt>
      <trkpt lat="45.75255" lon="5.73078">
        <ele>427</ele>
        <time>2022-09-25T15:08:34Z</time>
      </trkpt>
      <trkpt lat="45.75255" lon="5.73079">
        <ele>427</ele>
        <time>2022-09-25T15:08:35Z</time>
      </trkpt>
      <trkpt lat="45.75256" lon="5.73082">
        <ele>427.2</ele>
        <time>2022-09-25T15:08:36Z</time>
      </trkpt>
      <trkpt lat="45.75256" lon="5.73084">
        <ele>427.3</ele>
        <time>2022-09-25T15:08:37Z</time>
      </trkpt>
      <trkpt lat="45.75256" lon="5.73085">
        <ele>427.4</ele>
        <time>2022-09-25T15:08:38Z</time>
      </trkpt>
      <trkpt lat="45.75257" lon="5.73088">
        <ele>427.5</ele>
        <time>2022-09-25T15:08:39Z</time>
      </trkpt>
      <trkpt lat="45.75257" lon="5.73089">
        <ele>427.6</ele>
        <time>2022-09-25T15:08:40Z</time>
      </trkpt>
      <trkpt lat="45.75257" lon="5.7309">
        <ele>427.6</ele>
        <time>2022-09-25T15:08:41Z</time>
      </trkpt>
      <trkpt lat="45.75257" lon="5.73091">
        <ele>427.7</ele>
        <time>2022-09-25T15:08:42Z</time>
      </trkpt>
      <trkpt lat="45.75257" lon="5.73093">
        <ele>427.8</ele>
        <time>2022-09-25T15:08:43Z</time>
      </trkpt>
      <trkpt lat="45.75258" lon="5.73094">
        <ele>427.9</ele>
        <time>2022-09-25T15:08:44Z</time>
      </trkpt>
      <trkpt lat="45.75259" lon="5.73098">
        <ele>428.1</ele>
        <time>2022-09-25T15:08:45Z</time>
      </trkpt>
      <trkpt lat="45.7526" lon="5.73099">
        <ele>428.1</ele>
        <time>2022-09-25T15:08:46Z</time>
      </trkpt>
      <trkpt lat="45.75261" lon="5.731">
        <ele>428.2</ele>
        <time>2022-09-25T15:08:47Z</time>
      </trkpt>
      <trkpt lat="45.75261" lon="5.73102">
        <ele>428.3</ele>
        <time>2022-09-25T15:08:48Z</time>
      </trkpt>
      <trkpt lat="45.75262" lon="5.73103">
        <ele>428.4</ele>
        <time>2022-09-25T15:08:49Z</time>
      </trkpt>
      <trkpt lat="45.75262" lon="5.73106">
        <ele>428.5</ele>
        <time>2022-09-25T15:08:50Z</time>
      </trkpt>
      <trkpt lat="45.75262" lon="5.73107">
        <ele>428.6</ele>
        <time>2022-09-25T15:08:51Z</time>
      </trkpt>
      <trkpt lat="45.75263" lon="5.73109">
        <ele>428.7</ele>
        <time>2022-09-25T15:08:52Z</time>
      </trkpt>
      <trkpt lat="45.75264" lon="5.73111">
        <ele>428.8</ele>
        <time>2022-09-25T15:08:53Z</time>
      </trkpt>
      <trkpt lat="45.75264" lon="5.73113">
        <ele>428.9</ele>
        <time>2022-09-25T15:08:54Z</time>
      </trkpt>
      <trkpt lat="45.75264" lon="5.73115">
        <ele>429</ele>
        <time>2022-09-25T15:08:55Z</time>
      </trkpt>
      <trkpt lat="45.75263" lon="5.73118">
        <ele>429.2</ele>
        <time>2022-09-25T15:08:56Z</time>
      </trkpt>
      <trkpt lat="45.75264" lon="5.7312">
        <ele>429.3</ele>
        <time>2022-09-25T15:08:57Z</time>
      </trkpt>
      <trkpt lat="45.75264" lon="5.73121">
        <ele>429.3</ele>
        <time>2022-09-25T15:08:58Z</time>
      </trkpt>
      <trkpt lat="45.75264" lon="5.73124">
        <ele>429.5</ele>
        <time>2022-09-25T15:08:59Z</time>
      </trkpt>
      <trkpt lat="45.75265" lon="5.73125">
        <ele>429.6</ele>
        <time>2022-09-25T15:09:00Z</time>
      </trkpt>
      <trkpt lat="45.75265" lon="5.73126">
        <ele>429.6</ele>
        <time>2022-09-25T15:09:01Z</time>
      </trkpt>
      <trkpt lat="45.75266" lon="5.73128">
        <ele>429.7</ele>
        <time>2022-09-25T15:09:02Z</time>
      </trkpt>
      <trkpt lat="45.75267" lon="5.73131">
        <ele>429.9</ele>
        <time>2022-09-25T15:09:03Z</time>
      </trkpt>
      <trkpt lat="45.75267" lon="5.73132">
        <ele>430</ele>
        <time>2022-09-25T15:09:04Z</time>
      </trkpt>
      <trkpt lat="45.75268" lon="5.73133">
        <ele>430</ele>
        <time>2022-09-25T15:09:05Z</time>
      </trkpt>
      <trkpt lat="45.75268" lon="5.73135">
        <ele>430.1</ele>
        <time>2022-09-25T15:09:06Z</time>
      </trkpt>
      <trkpt lat="45.75268" lon="5.73136">
        <ele>430.2</ele>
        <time>2022-09-25T15:09:07Z</time>
      </trkpt>
      <trkpt lat="45.75268" lon="5.73137">
        <ele>430.3</ele>
        <time>2022-09-25T15:09:08Z</time>
      </trkpt>
      <trkpt lat="45.75269" lon="5.73139">
        <ele>430.4</ele>
        <time>2022-09-25T15:09:09Z</time>
      </trkpt>
      <trkpt lat="45.75269" lon="5.73141">
        <ele>430.5</ele>
        <time>2022-09-25T15:09:10Z</time>
      </trkpt>
      <trkpt lat="45.7527" lon="5.73145">
        <ele>430.7</ele>
        <time>2022-09-25T15:09:11Z</time>
      </trkpt>
      <trkpt lat="45.75271" lon="5.73146">
        <ele>430.8</ele>
        <time>2022-09-25T15:09:12Z</time>
      </trkpt>
      <trkpt lat="45.75272" lon="5.73148">
        <ele>430.9</ele>
        <time>2022-09-25T15:09:13Z</time>
      </trkpt>
      <trkpt lat="45.75272" lon="5.7315">
        <ele>431</ele>
        <time>2022-09-25T15:09:14Z</time>
      </trkpt>
      <trkpt lat="45.75271" lon="5.73152">
        <ele>431.1</ele>
        <time>2022-09-25T15:09:15Z</time>
      </trkpt>
      <trkpt lat="45.75272" lon="5.73155">
        <ele>431.3</ele>
        <time>2022-09-25T15:09:16Z</time>
      </trkpt>
      <trkpt lat="45.75272" lon="5.73157">
        <ele>431.4</ele>
        <time>2022-09-25T15:09:17Z</time>
      </trkpt>
      <trkpt lat="45.75273" lon="5.73159">
        <ele>431.5</ele>
        <time>2022-09-25T15:09:18Z</time>
      </trkpt>
      <trkpt lat="45.75273" lon="5.7316">
        <ele>431.6</ele>
        <time>2022-09-25T15:09:19Z</time>
      </trkpt>
      <trkpt lat="45.75273" lon="5.73162">
        <ele>431.7</ele>
        <time>2022-09-25T15:09:20Z</time>
      </trkpt>
      <trkpt lat="45.75273" lon="5.73164">
        <ele>431.8</ele>
        <time>2022-09-25T15:09:21Z</time>
      </trkpt>
      <trkpt lat="45.75273" lon="5.73166">
        <ele>431.9</ele>
        <time>2022-09-25T15:09:22Z</time>
      </trkpt>
      <trkpt lat="45.75274" lon="5.73168">
        <ele>432</ele>
        <time>2022-09-25T15:09:23Z</time>
      </trkpt>
      <trkpt lat="45.75274" lon="5.7317">
        <ele>432.1</ele>
        <time>2022-09-25T15:09:24Z</time>
      </trkpt>
      <trkpt lat="45.75274" lon="5.73172">
        <ele>432.2</ele>
        <time>2022-09-25T15:09:25Z</time>
      </trkpt>
      <trkpt lat="45.75274" lon="5.73174">
        <ele>432.4</ele>
        <time>2022-09-25T15:09:26Z</time>
      </trkpt>
      <trkpt lat="45.75275" lon="5.73176">
        <ele>432.5</ele>
        <time>2022-09-25T15:09:27Z</time>
      </trkpt>
      <trkpt lat="45.75275" lon="5.73177">
        <ele>432.5</ele>
        <time>2022-09-25T15:09:28Z</time>
      </trkpt>
      <trkpt lat="45.75275" lon="5.7318">
        <ele>432.7</ele>
        <time>2022-09-25T15:09:29Z</time>
      </trkpt>
      <trkpt lat="45.75275" lon="5.73181">
        <ele>432.8</ele>
        <time>2022-09-25T15:09:30Z</time>
      </trkpt>
      <trkpt lat="45.75276" lon="5.73183">
        <ele>432.8</ele>
        <time>2022-09-25T15:09:31Z</time>
      </trkpt>
      <trkpt lat="45.75276" lon="5.73186">
        <ele>433</ele>
        <time>2022-09-25T15:09:32Z</time>
      </trkpt>
      <trkpt lat="45.75276" lon="5.73187">
        <ele>433.1</ele>
        <time>2022-09-25T15:09:33Z</time>
      </trkpt>
      <trkpt lat="45.75275" lon="5.73188">
        <ele>433.2</ele>
        <time>2022-09-25T15:09:34Z</time>
      </trkpt>
      <trkpt lat="45.75275" lon="5.7319">
        <ele>433.3</ele>
        <time>2022-09-25T15:09:35Z</time>
      </trkpt>
      <trkpt lat="45.75275" lon="5.73192">
        <ele>433.4</ele>
        <time>2022-09-25T15:09:36Z</time>
      </trkpt>
      <trkpt lat="45.75274" lon="5.73194">
        <ele>433.5</ele>
        <time>2022-09-25T15:09:37Z</time>
      </trkpt>
      <trkpt lat="45.75274" lon="5.73196">
        <ele>433.6</ele>
        <time>2022-09-25T15:09:38Z</time>
      </trkpt>
      <trkpt lat="45.75274" lon="5.73198">
        <ele>433.7</ele>
        <time>2022-09-25T15:09:39Z</time>
      </trkpt>
      <trkpt lat="45.75274" lon="5.732">
        <ele>433.8</ele>
        <time>2022-09-25T15:09:40Z</time>
      </trkpt>
      <trkpt lat="45.75273" lon="5.73201">
        <ele>433.9</ele>
        <time>2022-09-25T15:09:41Z</time>
      </trkpt>
      <trkpt lat="45.75273" lon="5.73202">
        <ele>434</ele>
        <time>2022-09-25T15:09:42Z</time>
      </trkpt>
      <trkpt lat="45.75273" lon="5.73205">
        <ele>434.1</ele>
        <time>2022-09-25T15:09:43Z</time>
      </trkpt>
      <trkpt lat="45.75273" lon="5.73207">
        <ele>434.2</ele>
        <time>2022-09-25T15:09:44Z</time>
      </trkpt>
      <trkpt lat="45.75273" lon="5.73209">
        <ele>434.3</ele>
        <time>2022-09-25T15:09:45Z</time>
      </trkpt>
      <trkpt lat="45.75273" lon="5.73212">
        <ele>434.5</ele>
        <time>2022-09-25T15:09:46Z</time>
      </trkpt>
      <trkpt lat="45.75273" lon="5.73213">
        <ele>434.6</ele>
        <time>2022-09-25T15:09:47Z</time>
      </trkpt>
      <trkpt lat="45.75273" lon="5.73214">
        <ele>434.7</ele>
        <time>2022-09-25T15:09:48Z</time>
      </trkpt>
      <trkpt lat="45.75272" lon="5.73216">
        <ele>434.8</ele>
        <time>2022-09-25T15:09:49Z</time>
      </trkpt>
      <trkpt lat="45.75272" lon="5.73219">
        <ele>434.9</ele>
        <time>2022-09-25T15:09:50Z</time>
      </trkpt>
      <trkpt lat="45.75271" lon="5.73221">
        <ele>435</ele>
        <time>2022-09-25T15:09:51Z</time>
      </trkpt>
      <trkpt lat="45.7527" lon="5.73223">
        <ele>435.2</ele>
        <time>2022-09-25T15:09:52Z</time>
      </trkpt>
      <trkpt lat="45.75269" lon="5.73225">
        <ele>435.3</ele>
        <time>2022-09-25T15:09:53Z</time>
      </trkpt>
      <trkpt lat="45.75269" lon="5.73226">
        <ele>435.4</ele>
        <time>2022-09-25T15:09:55Z</time>
      </trkpt>
      <trkpt lat="45.75269" lon="5.73227">
        <ele>435.4</ele>
        <time>2022-09-25T15:09:56Z</time>
      </trkpt>
      <trkpt lat="45.75268" lon="5.73229">
        <ele>435.5</ele>
        <time>2022-09-25T15:09:57Z</time>
      </trkpt>
      <trkpt lat="45.75268" lon="5.73231">
        <ele>435.7</ele>
        <time>2022-09-25T15:09:58Z</time>
      </trkpt>
      <trkpt lat="45.75267" lon="5.73233">
        <ele>435.8</ele>
        <time>2022-09-25T15:09:59Z</time>
      </trkpt>
      <trkpt lat="45.75267" lon="5.73235">
        <ele>435.9</ele>
        <time>2022-09-25T15:10:00Z</time>
      </trkpt>
      <trkpt lat="45.75266" lon="5.73237">
        <ele>436</ele>
        <time>2022-09-25T15:10:01Z</time>
      </trkpt>
      <trkpt lat="45.75265" lon="5.73238">
        <ele>436.1</ele>
        <time>2022-09-25T15:10:02Z</time>
      </trkpt>
      <trkpt lat="45.75265" lon="5.7324">
        <ele>436.2</ele>
        <time>2022-09-25T15:10:03Z</time>
      </trkpt>
      <trkpt lat="45.75264" lon="5.73242">
        <ele>436.4</ele>
        <time>2022-09-25T15:10:04Z</time>
      </trkpt>
      <trkpt lat="45.75264" lon="5.73245">
        <ele>436.5</ele>
        <time>2022-09-25T15:10:05Z</time>
      </trkpt>
      <trkpt lat="45.75263" lon="5.73247">
        <ele>436.6</ele>
        <time>2022-09-25T15:10:06Z</time>
      </trkpt>
      <trkpt lat="45.75263" lon="5.73248">
        <ele>436.7</ele>
        <time>2022-09-25T15:10:07Z</time>
      </trkpt>
      <trkpt lat="45.75262" lon="5.73251">
        <ele>436.9</ele>
        <time>2022-09-25T15:10:08Z</time>
      </trkpt>
      <trkpt lat="45.75262" lon="5.73252">
        <ele>436.9</ele>
        <time>2022-09-25T15:10:09Z</time>
      </trkpt>
      <trkpt lat="45.75261" lon="5.73253">
        <ele>437</ele>
        <time>2022-09-25T15:10:10Z</time>
      </trkpt>
      <trkpt lat="45.75261" lon="5.73256">
        <ele>437.1</ele>
        <time>2022-09-25T15:10:11Z</time>
      </trkpt>
      <trkpt lat="45.75261" lon="5.73257">
        <ele>437.2</ele>
        <time>2022-09-25T15:10:12Z</time>
      </trkpt>
      <trkpt lat="45.75261" lon="5.73259">
        <ele>437.3</ele>
        <time>2022-09-25T15:10:13Z</time>
      </trkpt>
      <trkpt lat="45.7526" lon="5.73261">
        <ele>437.4</ele>
        <time>2022-09-25T15:10:14Z</time>
      </trkpt>
      <trkpt lat="45.7526" lon="5.73262">
        <ele>437.5</ele>
        <time>2022-09-25T15:10:15Z</time>
      </trkpt>
      <trkpt lat="45.75259" lon="5.73264">
        <ele>437.6</ele>
        <time>2022-09-25T15:10:16Z</time>
      </trkpt>
      <trkpt lat="45.75259" lon="5.73266">
        <ele>437.7</ele>
        <time>2022-09-25T15:10:17Z</time>
      </trkpt>
      <trkpt lat="45.75259" lon="5.7327">
        <ele>437.9</ele>
        <time>2022-09-25T15:10:18Z</time>
      </trkpt>
      <trkpt lat="45.75258" lon="5.73271">
        <ele>438</ele>
        <time>2022-09-25T15:10:19Z</time>
      </trkpt>
      <trkpt lat="45.75258" lon="5.73273">
        <ele>438.1</ele>
        <time>2022-09-25T15:10:20Z</time>
      </trkpt>
      <trkpt lat="45.75257" lon="5.73274">
        <ele>438.2</ele>
        <time>2022-09-25T15:10:21Z</time>
      </trkpt>
      <trkpt lat="45.75257" lon="5.73276">
        <ele>438.2</ele>
        <time>2022-09-25T15:10:22Z</time>
      </trkpt>
      <trkpt lat="45.75257" lon="5.7328">
        <ele>438.5</ele>
        <time>2022-09-25T15:10:23Z</time>
      </trkpt>
      <trkpt lat="45.75256" lon="5.73281">
        <ele>438.5</ele>
        <time>2022-09-25T15:10:24Z</time>
      </trkpt>
      <trkpt lat="45.75256" lon="5.73285">
        <ele>438.7</ele>
        <time>2022-09-25T15:10:25Z</time>
      </trkpt>
      <trkpt lat="45.75256" lon="5.73286">
        <ele>438.8</ele>
        <time>2022-09-25T15:10:26Z</time>
      </trkpt>
      <trkpt lat="45.75256" lon="5.73288">
        <ele>438.9</ele>
        <time>2022-09-25T15:10:27Z</time>
      </trkpt>
      <trkpt lat="45.75257" lon="5.7329">
        <ele>439</ele>
        <time>2022-09-25T15:10:28Z</time>
      </trkpt>
      <trkpt lat="45.75257" lon="5.73292">
        <ele>439.1</ele>
        <time>2022-09-25T15:10:29Z</time>
      </trkpt>
      <trkpt lat="45.75257" lon="5.73294">
        <ele>439.2</ele>
        <time>2022-09-25T15:10:30Z</time>
      </trkpt>
      <trkpt lat="45.75257" lon="5.73295">
        <ele>439.3</ele>
        <time>2022-09-25T15:10:31Z</time>
      </trkpt>
      <trkpt lat="45.75258" lon="5.73298">
        <ele>439.5</ele>
        <time>2022-09-25T15:10:32Z</time>
      </trkpt>
      <trkpt lat="45.75258" lon="5.733">
        <ele>439.5</ele>
        <time>2022-09-25T15:10:33Z</time>
      </trkpt>
      <trkpt lat="45.75258" lon="5.73301">
        <ele>439.6</ele>
        <time>2022-09-25T15:10:34Z</time>
      </trkpt>
      <trkpt lat="45.75258" lon="5.73303">
        <ele>439.7</ele>
        <time>2022-09-25T15:10:35Z</time>
      </trkpt>
      <trkpt lat="45.75258" lon="5.73305">
        <ele>439.9</ele>
        <time>2022-09-25T15:10:36Z</time>
      </trkpt>
      <trkpt lat="45.75258" lon="5.73307">
        <ele>439.9</ele>
        <time>2022-09-25T15:10:37Z</time>
      </trkpt>
      <trkpt lat="45.75258" lon="5.73308">
        <ele>440</ele>
        <time>2022-09-25T15:10:38Z</time>
      </trkpt>
      <trkpt lat="45.75258" lon="5.7331">
        <ele>440.1</ele>
        <time>2022-09-25T15:10:39Z</time>
      </trkpt>
      <trkpt lat="45.75259" lon="5.73313">
        <ele>440.2</ele>
        <time>2022-09-25T15:10:40Z</time>
      </trkpt>
      <trkpt lat="45.75259" lon="5.73314">
        <ele>440.3</ele>
        <time>2022-09-25T15:10:41Z</time>
      </trkpt>
      <trkpt lat="45.75259" lon="5.73316">
        <ele>440.4</ele>
        <time>2022-09-25T15:10:42Z</time>
      </trkpt>
      <trkpt lat="45.7526" lon="5.73318">
        <ele>440.5</ele>
        <time>2022-09-25T15:10:43Z</time>
      </trkpt>
      <trkpt lat="45.7526" lon="5.7332">
        <ele>440.6</ele>
        <time>2022-09-25T15:10:44Z</time>
      </trkpt>
      <trkpt lat="45.7526" lon="5.73322">
        <ele>440.7</ele>
        <time>2022-09-25T15:10:45Z</time>
      </trkpt>
      <trkpt lat="45.7526" lon="5.73323">
        <ele>440.8</ele>
        <time>2022-09-25T15:10:46Z</time>
      </trkpt>
      <trkpt lat="45.7526" lon="5.73326">
        <ele>440.9</ele>
        <time>2022-09-25T15:10:47Z</time>
      </trkpt>
      <trkpt lat="45.7526" lon="5.73327">
        <ele>441</ele>
        <time>2022-09-25T15:10:48Z</time>
      </trkpt>
      <trkpt lat="45.7526" lon="5.73329">
        <ele>441.1</ele>
        <time>2022-09-25T15:10:49Z</time>
      </trkpt>
      <trkpt lat="45.75261" lon="5.73332">
        <ele>441.2</ele>
        <time>2022-09-25T15:10:50Z</time>
      </trkpt>
      <trkpt lat="45.75261" lon="5.73333">
        <ele>441.3</ele>
        <time>2022-09-25T15:10:51Z</time>
      </trkpt>
      <trkpt lat="45.75261" lon="5.73334">
        <ele>441.3</ele>
        <time>2022-09-25T15:10:52Z</time>
      </trkpt>
      <trkpt lat="45.75261" lon="5.73335">
        <ele>441.4</ele>
        <time>2022-09-25T15:10:53Z</time>
      </trkpt>
      <trkpt lat="45.75261" lon="5.73337">
        <ele>441.5</ele>
        <time>2022-09-25T15:10:54Z</time>
      </trkpt>
      <trkpt lat="45.75262" lon="5.73339">
        <ele>441.6</ele>
        <time>2022-09-25T15:10:55Z</time>
      </trkpt>
      <trkpt lat="45.75262" lon="5.7334">
        <ele>441.7</ele>
        <time>2022-09-25T15:10:56Z</time>
      </trkpt>
      <trkpt lat="45.75263" lon="5.73341">
        <ele>441.8</ele>
        <time>2022-09-25T15:10:57Z</time>
      </trkpt>
      <trkpt lat="45.75263" lon="5.73343">
        <ele>441.8</ele>
        <time>2022-09-25T15:10:58Z</time>
      </trkpt>
      <trkpt lat="45.75264" lon="5.73345">
        <ele>442</ele>
        <time>2022-09-25T15:10:59Z</time>
      </trkpt>
      <trkpt lat="45.75264" lon="5.73347">
        <ele>442.1</ele>
        <time>2022-09-25T15:11:00Z</time>
      </trkpt>
      <trkpt lat="45.75263" lon="5.73349">
        <ele>442.2</ele>
        <time>2022-09-25T15:11:01Z</time>
      </trkpt>
      <trkpt lat="45.75263" lon="5.7335">
        <ele>442.2</ele>
        <time>2022-09-25T15:11:02Z</time>
      </trkpt>
      <trkpt lat="45.75264" lon="5.73351">
        <ele>442.3</ele>
        <time>2022-09-25T15:11:03Z</time>
      </trkpt>
      <trkpt lat="45.75264" lon="5.73353">
        <ele>442.4</ele>
        <time>2022-09-25T15:11:04Z</time>
      </trkpt>
      <trkpt lat="45.75265" lon="5.73355">
        <ele>442.6</ele>
        <time>2022-09-25T15:11:05Z</time>
      </trkpt>
      <trkpt lat="45.75266" lon="5.73359">
        <ele>442.8</ele>
        <time>2022-09-25T15:11:06Z</time>
      </trkpt>
      <trkpt lat="45.75266" lon="5.7336">
        <ele>442.8</ele>
        <time>2022-09-25T15:11:07Z</time>
      </trkpt>
      <trkpt lat="45.75266" lon="5.73362">
        <ele>442.9</ele>
        <time>2022-09-25T15:11:08Z</time>
      </trkpt>
      <trkpt lat="45.75267" lon="5.73364">
        <ele>443.1</ele>
        <time>2022-09-25T15:11:09Z</time>
      </trkpt>
      <trkpt lat="45.75267" lon="5.73367">
        <ele>443.2</ele>
        <time>2022-09-25T15:11:10Z</time>
      </trkpt>
      <trkpt lat="45.75267" lon="5.73368">
        <ele>443.3</ele>
        <time>2022-09-25T15:11:11Z</time>
      </trkpt>
      <trkpt lat="45.75268" lon="5.73371">
        <ele>443.4</ele>
        <time>2022-09-25T15:11:12Z</time>
      </trkpt>
      <trkpt lat="45.75268" lon="5.73372">
        <ele>443.5</ele>
        <time>2022-09-25T15:11:13Z</time>
      </trkpt>
      <trkpt lat="45.75269" lon="5.73374">
        <ele>443.6</ele>
        <time>2022-09-25T15:11:14Z</time>
      </trkpt>
      <trkpt lat="45.75269" lon="5.73377">
        <ele>443.8</ele>
        <time>2022-09-25T15:11:15Z</time>
      </trkpt>
      <trkpt lat="45.7527" lon="5.73378">
        <ele>443.8</ele>
        <time>2022-09-25T15:11:16Z</time>
      </trkpt>
      <trkpt lat="45.7527" lon="5.7338">
        <ele>443.9</ele>
        <time>2022-09-25T15:11:17Z</time>
      </trkpt>
      <trkpt lat="45.7527" lon="5.73381">
        <ele>444</ele>
        <time>2022-09-25T15:11:18Z</time>
      </trkpt>
      <trkpt lat="45.75271" lon="5.73383">
        <ele>444.1</ele>
        <time>2022-09-25T15:11:19Z</time>
      </trkpt>
      <trkpt lat="45.75272" lon="5.73386">
        <ele>444.3</ele>
        <time>2022-09-25T15:11:20Z</time>
      </trkpt>
      <trkpt lat="45.75272" lon="5.73387">
        <ele>444.4</ele>
        <time>2022-09-25T15:11:21Z</time>
      </trkpt>
      <trkpt lat="45.75273" lon="5.73388">
        <ele>444.4</ele>
        <time>2022-09-25T15:11:22Z</time>
      </trkpt>
      <trkpt lat="45.75273" lon="5.73391">
        <ele>444.6</ele>
        <time>2022-09-25T15:11:23Z</time>
      </trkpt>
      <trkpt lat="45.75274" lon="5.73392">
        <ele>444.7</ele>
        <time>2022-09-25T15:11:24Z</time>
      </trkpt>
      <trkpt lat="45.75274" lon="5.73393">
        <ele>444.7</ele>
        <time>2022-09-25T15:11:25Z</time>
      </trkpt>
      <trkpt lat="45.75275" lon="5.73395">
        <ele>444.8</ele>
        <time>2022-09-25T15:11:26Z</time>
      </trkpt>
      <trkpt lat="45.75275" lon="5.73396">
        <ele>444.9</ele>
        <time>2022-09-25T15:11:27Z</time>
      </trkpt>
      <trkpt lat="45.75276" lon="5.73399">
        <ele>445.1</ele>
        <time>2022-09-25T15:11:28Z</time>
      </trkpt>
      <trkpt lat="45.75276" lon="5.734">
        <ele>445.1</ele>
        <time>2022-09-25T15:11:29Z</time>
      </trkpt>
      <trkpt lat="45.75276" lon="5.73402">
        <ele>445.2</ele>
        <time>2022-09-25T15:11:30Z</time>
      </trkpt>
      <trkpt lat="45.75277" lon="5.73404">
        <ele>445.3</ele>
        <time>2022-09-25T15:11:31Z</time>
      </trkpt>
      <trkpt lat="45.75277" lon="5.73405">
        <ele>445.4</ele>
        <time>2022-09-25T15:11:32Z</time>
      </trkpt>
      <trkpt lat="45.75277" lon="5.73407">
        <ele>445.5</ele>
        <time>2022-09-25T15:11:33Z</time>
      </trkpt>
      <trkpt lat="45.75278" lon="5.73409">
        <ele>445.6</ele>
        <time>2022-09-25T15:11:34Z</time>
      </trkpt>
      <trkpt lat="45.75278" lon="5.73411">
        <ele>445.7</ele>
        <time>2022-09-25T15:11:35Z</time>
      </trkpt>
      <trkpt lat="45.75278" lon="5.73413">
        <ele>445.8</ele>
        <time>2022-09-25T15:11:36Z</time>
      </trkpt>
      <trkpt lat="45.75279" lon="5.73415">
        <ele>445.9</ele>
        <time>2022-09-25T15:11:37Z</time>
      </trkpt>
      <trkpt lat="45.75279" lon="5.73417">
        <ele>446.1</ele>
        <time>2022-09-25T15:11:38Z</time>
      </trkpt>
      <trkpt lat="45.75279" lon="5.7342">
        <ele>446.2</ele>
        <time>2022-09-25T15:11:39Z</time>
      </trkpt>
      <trkpt lat="45.75279" lon="5.73421">
        <ele>446.3</ele>
        <time>2022-09-25T15:11:40Z</time>
      </trkpt>
      <trkpt lat="45.75279" lon="5.73422">
        <ele>446.3</ele>
        <time>2022-09-25T15:11:41Z</time>
      </trkpt>
      <trkpt lat="45.75279" lon="5.73425">
        <ele>446.5</ele>
        <time>2022-09-25T15:11:42Z</time>
      </trkpt>
      <trkpt lat="45.75279" lon="5.73427">
        <ele>446.6</ele>
        <time>2022-09-25T15:11:43Z</time>
      </trkpt>
      <trkpt lat="45.7528" lon="5.73429">
        <ele>446.7</ele>
        <time>2022-09-25T15:11:44Z</time>
      </trkpt>
      <trkpt lat="45.7528" lon="5.73431">
        <ele>446.8</ele>
        <time>2022-09-25T15:11:45Z</time>
      </trkpt>
      <trkpt lat="45.7528" lon="5.73433">
        <ele>446.9</ele>
        <time>2022-09-25T15:11:46Z</time>
      </trkpt>
      <trkpt lat="45.7528" lon="5.73435">
        <ele>447</ele>
        <time>2022-09-25T15:11:47Z</time>
      </trkpt>
      <trkpt lat="45.7528" lon="5.73438">
        <ele>447.2</ele>
        <time>2022-09-25T15:11:48Z</time>
      </trkpt>
      <trkpt lat="45.7528" lon="5.73439">
        <ele>447.3</ele>
        <time>2022-09-25T15:11:49Z</time>
      </trkpt>
      <trkpt lat="45.7528" lon="5.7344">
        <ele>447.3</ele>
        <time>2022-09-25T15:11:50Z</time>
      </trkpt>
      <trkpt lat="45.7528" lon="5.73442">
        <ele>447.4</ele>
        <time>2022-09-25T15:11:51Z</time>
      </trkpt>
      <trkpt lat="45.7528" lon="5.73444">
        <ele>447.5</ele>
        <time>2022-09-25T15:11:52Z</time>
      </trkpt>
      <trkpt lat="45.7528" lon="5.73446">
        <ele>447.6</ele>
        <time>2022-09-25T15:11:53Z</time>
      </trkpt>
      <trkpt lat="45.7528" lon="5.73448">
        <ele>447.7</ele>
        <time>2022-09-25T15:11:54Z</time>
      </trkpt>
      <trkpt lat="45.7528" lon="5.73451">
        <ele>447.9</ele>
        <time>2022-09-25T15:11:55Z</time>
      </trkpt>
      <trkpt lat="45.7528" lon="5.73453">
        <ele>448</ele>
        <time>2022-09-25T15:11:56Z</time>
      </trkpt>
      <trkpt lat="45.75281" lon="5.73454">
        <ele>448.1</ele>
        <time>2022-09-25T15:11:57Z</time>
      </trkpt>
      <trkpt lat="45.75281" lon="5.73456">
        <ele>448.2</ele>
        <time>2022-09-25T15:11:58Z</time>
      </trkpt>
      <trkpt lat="45.75281" lon="5.73458">
        <ele>448.3</ele>
        <time>2022-09-25T15:11:59Z</time>
      </trkpt>
      <trkpt lat="45.75281" lon="5.73459">
        <ele>448.4</ele>
        <time>2022-09-25T15:12:01Z</time>
      </trkpt>
      <trkpt lat="45.75281" lon="5.73461">
        <ele>448.4</ele>
        <time>2022-09-25T15:12:02Z</time>
      </trkpt>
      <trkpt lat="45.75281" lon="5.73463">
        <ele>448.6</ele>
        <time>2022-09-25T15:12:03Z</time>
      </trkpt>
      <trkpt lat="45.75282" lon="5.73466">
        <ele>448.7</ele>
        <time>2022-09-25T15:12:04Z</time>
      </trkpt>
      <trkpt lat="45.75282" lon="5.73468">
        <ele>448.8</ele>
        <time>2022-09-25T15:12:05Z</time>
      </trkpt>
      <trkpt lat="45.75283" lon="5.73469">
        <ele>448.9</ele>
        <time>2022-09-25T15:12:06Z</time>
      </trkpt>
      <trkpt lat="45.75282" lon="5.7347">
        <ele>449</ele>
        <time>2022-09-25T15:12:07Z</time>
      </trkpt>
      <trkpt lat="45.75282" lon="5.73472">
        <ele>449</ele>
        <time>2022-09-25T15:12:08Z</time>
      </trkpt>
      <trkpt lat="45.75282" lon="5.73473">
        <ele>449.1</ele>
        <time>2022-09-25T15:12:09Z</time>
      </trkpt>
      <trkpt lat="45.75282" lon="5.73476">
        <ele>449.3</ele>
        <time>2022-09-25T15:12:10Z</time>
      </trkpt>
      <trkpt lat="45.75282" lon="5.73477">
        <ele>449.3</ele>
        <time>2022-09-25T15:12:11Z</time>
      </trkpt>
      <trkpt lat="45.75282" lon="5.7348">
        <ele>449.5</ele>
        <time>2022-09-25T15:12:12Z</time>
      </trkpt>
      <trkpt lat="45.75282" lon="5.73481">
        <ele>449.5</ele>
        <time>2022-09-25T15:12:13Z</time>
      </trkpt>
      <trkpt lat="45.75282" lon="5.73483">
        <ele>449.6</ele>
        <time>2022-09-25T15:12:14Z</time>
      </trkpt>
      <trkpt lat="45.75282" lon="5.73485">
        <ele>449.7</ele>
        <time>2022-09-25T15:12:15Z</time>
      </trkpt>
      <trkpt lat="45.75282" lon="5.73487">
        <ele>449.8</ele>
        <time>2022-09-25T15:12:16Z</time>
      </trkpt>
      <trkpt lat="45.75283" lon="5.73488">
        <ele>449.9</ele>
        <time>2022-09-25T15:12:17Z</time>
      </trkpt>
      <trkpt lat="45.75284" lon="5.73492">
        <ele>450.1</ele>
        <time>2022-09-25T15:12:18Z</time>
      </trkpt>
      <trkpt lat="45.75283" lon="5.73494">
        <ele>450.2</ele>
        <time>2022-09-25T15:12:19Z</time>
      </trkpt>
      <trkpt lat="45.75284" lon="5.73496">
        <ele>450.3</ele>
        <time>2022-09-25T15:12:20Z</time>
      </trkpt>
      <trkpt lat="45.75284" lon="5.73498">
        <ele>450.4</ele>
        <time>2022-09-25T15:12:21Z</time>
      </trkpt>
      <trkpt lat="45.75285" lon="5.73501">
        <ele>450.5</ele>
        <time>2022-09-25T15:12:22Z</time>
      </trkpt>
      <trkpt lat="45.75285" lon="5.73503">
        <ele>450.7</ele>
        <time>2022-09-25T15:12:23Z</time>
      </trkpt>
      <trkpt lat="45.75285" lon="5.73505">
        <ele>450.8</ele>
        <time>2022-09-25T15:12:24Z</time>
      </trkpt>
      <trkpt lat="45.75286" lon="5.73507">
        <ele>450.9</ele>
        <time>2022-09-25T15:12:25Z</time>
      </trkpt>
      <trkpt lat="45.75286" lon="5.73509">
        <ele>451</ele>
        <time>2022-09-25T15:12:26Z</time>
      </trkpt>
      <trkpt lat="45.75286" lon="5.73511">
        <ele>451.1</ele>
        <time>2022-09-25T15:12:27Z</time>
      </trkpt>
      <trkpt lat="45.75286" lon="5.73513">
        <ele>451.2</ele>
        <time>2022-09-25T15:12:28Z</time>
      </trkpt>
      <trkpt lat="45.75286" lon="5.73517">
        <ele>451.4</ele>
        <time>2022-09-25T15:12:29Z</time>
      </trkpt>
      <trkpt lat="45.75286" lon="5.73518">
        <ele>451.4</ele>
        <time>2022-09-25T15:12:30Z</time>
      </trkpt>
      <trkpt lat="45.75286" lon="5.73519">
        <ele>451.5</ele>
        <time>2022-09-25T15:12:31Z</time>
      </trkpt>
      <trkpt lat="45.75286" lon="5.7352">
        <ele>451.6</ele>
        <time>2022-09-25T15:12:32Z</time>
      </trkpt>
      <trkpt lat="45.75286" lon="5.73522">
        <ele>451.7</ele>
        <time>2022-09-25T15:12:33Z</time>
      </trkpt>
      <trkpt lat="45.75286" lon="5.73524">
        <ele>451.8</ele>
        <time>2022-09-25T15:12:34Z</time>
      </trkpt>
      <trkpt lat="45.75286" lon="5.73526">
        <ele>451.9</ele>
        <time>2022-09-25T15:12:35Z</time>
      </trkpt>
      <trkpt lat="45.75286" lon="5.73528">
        <ele>452</ele>
        <time>2022-09-25T15:12:36Z</time>
      </trkpt>
      <trkpt lat="45.75286" lon="5.73529">
        <ele>452.1</ele>
        <time>2022-09-25T15:12:37Z</time>
      </trkpt>
      <trkpt lat="45.75286" lon="5.73532">
        <ele>452.2</ele>
        <time>2022-09-25T15:12:38Z</time>
      </trkpt>
      <trkpt lat="45.75286" lon="5.73534">
        <ele>452.4</ele>
        <time>2022-09-25T15:12:39Z</time>
      </trkpt>
      <trkpt lat="45.75287" lon="5.73538">
        <ele>452.6</ele>
        <time>2022-09-25T15:12:40Z</time>
      </trkpt>
      <trkpt lat="45.75287" lon="5.7354">
        <ele>452.7</ele>
        <time>2022-09-25T15:12:41Z</time>
      </trkpt>
      <trkpt lat="45.75288" lon="5.73542">
        <ele>452.8</ele>
        <time>2022-09-25T15:12:42Z</time>
      </trkpt>
      <trkpt lat="45.75288" lon="5.73544">
        <ele>452.9</ele>
        <time>2022-09-25T15:12:43Z</time>
      </trkpt>
      <trkpt lat="45.75288" lon="5.73546">
        <ele>453</ele>
        <time>2022-09-25T15:12:44Z</time>
      </trkpt>
      <trkpt lat="45.75287" lon="5.73548">
        <ele>453.2</ele>
        <time>2022-09-25T15:12:45Z</time>
      </trkpt>
      <trkpt lat="45.75287" lon="5.73551">
        <ele>453.3</ele>
        <time>2022-09-25T15:12:46Z</time>
      </trkpt>
      <trkpt lat="45.75287" lon="5.73553">
        <ele>453.4</ele>
        <time>2022-09-25T15:12:47Z</time>
      </trkpt>
      <trkpt lat="45.75287" lon="5.73554">
        <ele>453.5</ele>
        <time>2022-09-25T15:12:48Z</time>
      </trkpt>
      <trkpt lat="45.75287" lon="5.73557">
        <ele>453.6</ele>
        <time>2022-09-25T15:12:49Z</time>
      </trkpt>
      <trkpt lat="45.75287" lon="5.73558">
        <ele>453.7</ele>
        <time>2022-09-25T15:12:50Z</time>
      </trkpt>
      <trkpt lat="45.75287" lon="5.73559">
        <ele>453.8</ele>
        <time>2022-09-25T15:12:51Z</time>
      </trkpt>
      <trkpt lat="45.75287" lon="5.73561">
        <ele>453.9</ele>
        <time>2022-09-25T15:12:52Z</time>
      </trkpt>
      <trkpt lat="45.75287" lon="5.73564">
        <ele>454</ele>
        <time>2022-09-25T15:12:53Z</time>
      </trkpt>
      <trkpt lat="45.75286" lon="5.73565">
        <ele>454.1</ele>
        <time>2022-09-25T15:12:54Z</time>
      </trkpt>
      <trkpt lat="45.75286" lon="5.73567">
        <ele>454.2</ele>
        <time>2022-09-25T15:12:55Z</time>
      </trkpt>
      <trkpt lat="45.75287" lon="5.73568">
        <ele>454.3</ele>
        <time>2022-09-25T15:12:56Z</time>
      </trkpt>
      <trkpt lat="45.75287" lon="5.73571">
        <ele>454.5</ele>
        <time>2022-09-25T15:12:57Z</time>
      </trkpt>
      <trkpt lat="45.75287" lon="5.73573">
        <ele>454.6</ele>
        <time>2022-09-25T15:12:58Z</time>
      </trkpt>
      <trkpt lat="45.75287" lon="5.73574">
        <ele>454.6</ele>
        <time>2022-09-25T15:12:59Z</time>
      </trkpt>
      <trkpt lat="45.75287" lon="5.73576">
        <ele>454.8</ele>
        <time>2022-09-25T15:13:00Z</time>
      </trkpt>
      <trkpt lat="45.75287" lon="5.73577">
        <ele>454.8</ele>
        <time>2022-09-25T15:13:01Z</time>
      </trkpt>
      <trkpt lat="45.75287" lon="5.73579">
        <ele>454.9</ele>
        <time>2022-09-25T15:13:02Z</time>
      </trkpt>
      <trkpt lat="45.75287" lon="5.73581">
        <ele>455</ele>
        <time>2022-09-25T15:13:03Z</time>
      </trkpt>
      <trkpt lat="45.75286" lon="5.73583">
        <ele>455.2</ele>
        <time>2022-09-25T15:13:04Z</time>
      </trkpt>
      <trkpt lat="45.75286" lon="5.73584">
        <ele>455.2</ele>
        <time>2022-09-25T15:13:05Z</time>
      </trkpt>
      <trkpt lat="45.75286" lon="5.73586">
        <ele>455.3</ele>
        <time>2022-09-25T15:13:06Z</time>
      </trkpt>
      <trkpt lat="45.75286" lon="5.73588">
        <ele>455.4</ele>
        <time>2022-09-25T15:13:07Z</time>
      </trkpt>
      <trkpt lat="45.75286" lon="5.73589">
        <ele>455.5</ele>
        <time>2022-09-25T15:13:08Z</time>
      </trkpt>
      <trkpt lat="45.75285" lon="5.73591">
        <ele>455.6</ele>
        <time>2022-09-25T15:13:09Z</time>
      </trkpt>
      <trkpt lat="45.75286" lon="5.73592">
        <ele>455.7</ele>
        <time>2022-09-25T15:13:10Z</time>
      </trkpt>
      <trkpt lat="45.75285" lon="5.73595">
        <ele>455.8</ele>
        <time>2022-09-25T15:13:11Z</time>
      </trkpt>
      <trkpt lat="45.75286" lon="5.73596">
        <ele>455.9</ele>
        <time>2022-09-25T15:13:12Z</time>
      </trkpt>
      <trkpt lat="45.75286" lon="5.73598">
        <ele>456.1</ele>
        <time>2022-09-25T15:13:13Z</time>
      </trkpt>
      <trkpt lat="45.75286" lon="5.736">
        <ele>456.2</ele>
        <time>2022-09-25T15:13:14Z</time>
      </trkpt>
      <trkpt lat="45.75286" lon="5.73603">
        <ele>456.3</ele>
        <time>2022-09-25T15:13:15Z</time>
      </trkpt>
      <trkpt lat="45.75286" lon="5.73603">
        <ele>456.3</ele>
        <time>2022-09-25T15:13:16Z</time>
      </trkpt>
      <trkpt lat="45.75286" lon="5.73605">
        <ele>456.4</ele>
        <time>2022-09-25T15:13:17Z</time>
      </trkpt>
      <trkpt lat="45.75286" lon="5.73607">
        <ele>456.5</ele>
        <time>2022-09-25T15:13:18Z</time>
      </trkpt>
      <trkpt lat="45.75286" lon="5.73609">
        <ele>456.6</ele>
        <time>2022-09-25T15:13:19Z</time>
      </trkpt>
      <trkpt lat="45.75286" lon="5.73613">
        <ele>456.9</ele>
        <time>2022-09-25T15:13:20Z</time>
      </trkpt>
      <trkpt lat="45.75285" lon="5.73615">
        <ele>456.9</ele>
        <time>2022-09-25T15:13:21Z</time>
      </trkpt>
      <trkpt lat="45.75285" lon="5.73617">
        <ele>457</ele>
        <time>2022-09-25T15:13:22Z</time>
      </trkpt>
      <trkpt lat="45.75285" lon="5.73619">
        <ele>457.1</ele>
        <time>2022-09-25T15:13:23Z</time>
      </trkpt>
      <trkpt lat="45.75286" lon="5.73622">
        <ele>457.3</ele>
        <time>2022-09-25T15:13:24Z</time>
      </trkpt>
      <trkpt lat="45.75285" lon="5.73623">
        <ele>457.4</ele>
        <time>2022-09-25T15:13:25Z</time>
      </trkpt>
      <trkpt lat="45.75285" lon="5.73625">
        <ele>457.4</ele>
        <time>2022-09-25T15:13:26Z</time>
      </trkpt>
      <trkpt lat="45.75285" lon="5.73627">
        <ele>457.6</ele>
        <time>2022-09-25T15:13:27Z</time>
      </trkpt>
      <trkpt lat="45.75285" lon="5.73628">
        <ele>457.6</ele>
        <time>2022-09-25T15:13:28Z</time>
      </trkpt>
      <trkpt lat="45.75285" lon="5.73631">
        <ele>457.8</ele>
        <time>2022-09-25T15:13:29Z</time>
      </trkpt>
      <trkpt lat="45.75286" lon="5.73634">
        <ele>457.9</ele>
        <time>2022-09-25T15:13:30Z</time>
      </trkpt>
      <trkpt lat="45.75285" lon="5.73636">
        <ele>458</ele>
        <time>2022-09-25T15:13:31Z</time>
      </trkpt>
      <trkpt lat="45.75285" lon="5.73637">
        <ele>458.1</ele>
        <time>2022-09-25T15:13:32Z</time>
      </trkpt>
      <trkpt lat="45.75285" lon="5.7364">
        <ele>458.2</ele>
        <time>2022-09-25T15:13:33Z</time>
      </trkpt>
      <trkpt lat="45.75285" lon="5.73642">
        <ele>458.3</ele>
        <time>2022-09-25T15:13:34Z</time>
      </trkpt>
      <trkpt lat="45.75285" lon="5.73644">
        <ele>458.4</ele>
        <time>2022-09-25T15:13:35Z</time>
      </trkpt>
      <trkpt lat="45.75285" lon="5.73646">
        <ele>458.5</ele>
        <time>2022-09-25T15:13:36Z</time>
      </trkpt>
      <trkpt lat="45.75284" lon="5.73647">
        <ele>458.6</ele>
        <time>2022-09-25T15:13:37Z</time>
      </trkpt>
      <trkpt lat="45.75284" lon="5.7365">
        <ele>458.7</ele>
        <time>2022-09-25T15:13:38Z</time>
      </trkpt>
      <trkpt lat="45.75283" lon="5.73652">
        <ele>458.8</ele>
        <time>2022-09-25T15:13:39Z</time>
      </trkpt>
      <trkpt lat="45.75283" lon="5.73655">
        <ele>458.9</ele>
        <time>2022-09-25T15:13:40Z</time>
      </trkpt>
      <trkpt lat="45.75283" lon="5.73656">
        <ele>459</ele>
        <time>2022-09-25T15:13:41Z</time>
      </trkpt>
      <trkpt lat="45.75283" lon="5.73657">
        <ele>459.1</ele>
        <time>2022-09-25T15:13:42Z</time>
      </trkpt>
      <trkpt lat="45.75283" lon="5.7366">
        <ele>459.2</ele>
        <time>2022-09-25T15:13:43Z</time>
      </trkpt>
      <trkpt lat="45.75283" lon="5.73661">
        <ele>459.3</ele>
        <time>2022-09-25T15:13:44Z</time>
      </trkpt>
      <trkpt lat="45.75283" lon="5.73664">
        <ele>459.4</ele>
        <time>2022-09-25T15:13:45Z</time>
      </trkpt>
      <trkpt lat="45.75282" lon="5.73665">
        <ele>459.5</ele>
        <time>2022-09-25T15:13:46Z</time>
      </trkpt>
      <trkpt lat="45.75282" lon="5.73667">
        <ele>459.5</ele>
        <time>2022-09-25T15:13:47Z</time>
      </trkpt>
      <trkpt lat="45.75281" lon="5.7367">
        <ele>459.7</ele>
        <time>2022-09-25T15:13:48Z</time>
      </trkpt>
      <trkpt lat="45.75282" lon="5.73673">
        <ele>459.8</ele>
        <time>2022-09-25T15:13:49Z</time>
      </trkpt>
      <trkpt lat="45.75282" lon="5.73674">
        <ele>459.9</ele>
        <time>2022-09-25T15:13:50Z</time>
      </trkpt>
      <trkpt lat="45.75282" lon="5.73676">
        <ele>459.9</ele>
        <time>2022-09-25T15:13:51Z</time>
      </trkpt>
      <trkpt lat="45.75282" lon="5.73678">
        <ele>460</ele>
        <time>2022-09-25T15:13:52Z</time>
      </trkpt>
      <trkpt lat="45.75281" lon="5.73679">
        <ele>460.1</ele>
        <time>2022-09-25T15:13:53Z</time>
      </trkpt>
      <trkpt lat="45.75281" lon="5.73682">
        <ele>460.2</ele>
        <time>2022-09-25T15:13:54Z</time>
      </trkpt>
      <trkpt lat="45.75281" lon="5.73684">
        <ele>460.3</ele>
        <time>2022-09-25T15:13:55Z</time>
      </trkpt>
      <trkpt lat="45.75281" lon="5.73686">
        <ele>460.4</ele>
        <time>2022-09-25T15:13:56Z</time>
      </trkpt>
      <trkpt lat="45.75281" lon="5.73688">
        <ele>460.5</ele>
        <time>2022-09-25T15:13:57Z</time>
      </trkpt>
      <trkpt lat="45.7528" lon="5.73692">
        <ele>460.7</ele>
        <time>2022-09-25T15:13:58Z</time>
      </trkpt>
      <trkpt lat="45.7528" lon="5.73693">
        <ele>460.7</ele>
        <time>2022-09-25T15:13:59Z</time>
      </trkpt>
      <trkpt lat="45.7528" lon="5.73694">
        <ele>460.8</ele>
        <time>2022-09-25T15:14:00Z</time>
      </trkpt>
      <trkpt lat="45.7528" lon="5.73697">
        <ele>460.9</ele>
        <time>2022-09-25T15:14:01Z</time>
      </trkpt>
      <trkpt lat="45.7528" lon="5.73698">
        <ele>461</ele>
        <time>2022-09-25T15:14:02Z</time>
      </trkpt>
      <trkpt lat="45.7528" lon="5.73701">
        <ele>461.1</ele>
        <time>2022-09-25T15:14:03Z</time>
      </trkpt>
      <trkpt lat="45.7528" lon="5.73703">
        <ele>461.2</ele>
        <time>2022-09-25T15:14:04Z</time>
      </trkpt>
      <trkpt lat="45.75279" lon="5.73706">
        <ele>461.3</ele>
        <time>2022-09-25T15:14:05Z</time>
      </trkpt>
      <trkpt lat="45.75279" lon="5.73707">
        <ele>461.4</ele>
        <time>2022-09-25T15:14:07Z</time>
      </trkpt>
      <trkpt lat="45.75279" lon="5.73709">
        <ele>461.5</ele>
        <time>2022-09-25T15:14:08Z</time>
      </trkpt>
      <trkpt lat="45.75279" lon="5.73711">
        <ele>461.6</ele>
        <time>2022-09-25T15:14:09Z</time>
      </trkpt>
      <trkpt lat="45.75279" lon="5.73713">
        <ele>461.7</ele>
        <time>2022-09-25T15:14:10Z</time>
      </trkpt>
      <trkpt lat="45.75279" lon="5.73715">
        <ele>461.8</ele>
        <time>2022-09-25T15:14:11Z</time>
      </trkpt>
      <trkpt lat="45.75278" lon="5.73717">
        <ele>461.9</ele>
        <time>2022-09-25T15:14:12Z</time>
      </trkpt>
      <trkpt lat="45.75278" lon="5.73719">
        <ele>462</ele>
        <time>2022-09-25T15:14:13Z</time>
      </trkpt>
      <trkpt lat="45.75278" lon="5.73721">
        <ele>462.1</ele>
        <time>2022-09-25T15:14:14Z</time>
      </trkpt>
      <trkpt lat="45.75278" lon="5.73722">
        <ele>462.2</ele>
        <time>2022-09-25T15:14:15Z</time>
      </trkpt>
      <trkpt lat="45.75277" lon="5.73725">
        <ele>462.4</ele>
        <time>2022-09-25T15:14:16Z</time>
      </trkpt>
      <trkpt lat="45.75277" lon="5.73727">
        <ele>462.4</ele>
        <time>2022-09-25T15:14:17Z</time>
      </trkpt>
      <trkpt lat="45.75277" lon="5.73728">
        <ele>462.5</ele>
        <time>2022-09-25T15:14:18Z</time>
      </trkpt>
      <trkpt lat="45.75276" lon="5.73729">
        <ele>462.6</ele>
        <time>2022-09-25T15:14:19Z</time>
      </trkpt>
      <trkpt lat="45.75275" lon="5.73732">
        <ele>462.7</ele>
        <time>2022-09-25T15:14:20Z</time>
      </trkpt>
      <trkpt lat="45.75275" lon="5.73734">
        <ele>462.9</ele>
        <time>2022-09-25T15:14:21Z</time>
      </trkpt>
      <trkpt lat="45.75275" lon="5.73736">
        <ele>463</ele>
        <time>2022-09-25T15:14:22Z</time>
      </trkpt>
      <trkpt lat="45.75275" lon="5.73737">
        <ele>463</ele>
        <time>2022-09-25T15:14:23Z</time>
      </trkpt>
      <trkpt lat="45.75274" lon="5.7374">
        <ele>463.2</ele>
        <time>2022-09-25T15:14:24Z</time>
      </trkpt>
      <trkpt lat="45.75274" lon="5.73741">
        <ele>463.3</ele>
        <time>2022-09-25T15:14:25Z</time>
      </trkpt>
      <trkpt lat="45.75273" lon="5.73742">
        <ele>463.3</ele>
        <time>2022-09-25T15:14:26Z</time>
      </trkpt>
      <trkpt lat="45.75273" lon="5.73743">
        <ele>463.4</ele>
        <time>2022-09-25T15:14:27Z</time>
      </trkpt>
      <trkpt lat="45.75272" lon="5.73746">
        <ele>463.6</ele>
        <time>2022-09-25T15:14:28Z</time>
      </trkpt>
      <trkpt lat="45.75271" lon="5.73747">
        <ele>463.7</ele>
        <time>2022-09-25T15:14:29Z</time>
      </trkpt>
      <trkpt lat="45.75271" lon="5.73748">
        <ele>463.7</ele>
        <time>2022-09-25T15:14:30Z</time>
      </trkpt>
      <trkpt lat="45.7527" lon="5.7375">
        <ele>463.9</ele>
        <time>2022-09-25T15:14:31Z</time>
      </trkpt>
      <trkpt lat="45.75269" lon="5.73751">
        <ele>463.9</ele>
        <time>2022-09-25T15:14:32Z</time>
      </trkpt>
      <trkpt lat="45.75269" lon="5.73752">
        <ele>464</ele>
        <time>2022-09-25T15:14:33Z</time>
      </trkpt>
      <trkpt lat="45.75268" lon="5.73754">
        <ele>464.1</ele>
        <time>2022-09-25T15:14:34Z</time>
      </trkpt>
      <trkpt lat="45.75266" lon="5.73756">
        <ele>464.3</ele>
        <time>2022-09-25T15:14:35Z</time>
      </trkpt>
      <trkpt lat="45.75265" lon="5.73757">
        <ele>464.4</ele>
        <time>2022-09-25T15:14:36Z</time>
      </trkpt>
      <trkpt lat="45.75265" lon="5.73757">
        <ele>464.5</ele>
        <time>2022-09-25T15:14:37Z</time>
      </trkpt>
      <trkpt lat="45.75264" lon="5.73758">
        <ele>464.5</ele>
        <time>2022-09-25T15:14:38Z</time>
      </trkpt>
      <trkpt lat="45.75263" lon="5.73759">
        <ele>464.7</ele>
        <time>2022-09-25T15:14:39Z</time>
      </trkpt>
      <trkpt lat="45.75262" lon="5.7376">
        <ele>464.7</ele>
        <time>2022-09-25T15:14:40Z</time>
      </trkpt>
      <trkpt lat="45.75261" lon="5.73762">
        <ele>464.9</ele>
        <time>2022-09-25T15:14:41Z</time>
      </trkpt>
      <trkpt lat="45.75259" lon="5.73763">
        <ele>465</ele>
        <time>2022-09-25T15:14:42Z</time>
      </trkpt>
      <trkpt lat="45.75258" lon="5.73765">
        <ele>465.1</ele>
        <time>2022-09-25T15:14:43Z</time>
      </trkpt>
      <trkpt lat="45.75257" lon="5.73766">
        <ele>465.2</ele>
        <time>2022-09-25T15:14:44Z</time>
      </trkpt>
      <trkpt lat="45.75255" lon="5.73769">
        <ele>465.4</ele>
        <time>2022-09-25T15:14:45Z</time>
      </trkpt>
      <trkpt lat="45.75253" lon="5.73771">
        <ele>465.6</ele>
        <time>2022-09-25T15:14:46Z</time>
      </trkpt>
      <trkpt lat="45.75252" lon="5.73772">
        <ele>465.7</ele>
        <time>2022-09-25T15:14:47Z</time>
      </trkpt>
      <trkpt lat="45.75251" lon="5.73773">
        <ele>465.8</ele>
        <time>2022-09-25T15:14:48Z</time>
      </trkpt>
      <trkpt lat="45.75249" lon="5.73774">
        <ele>465.9</ele>
        <time>2022-09-25T15:14:49Z</time>
      </trkpt>
      <trkpt lat="45.75248" lon="5.73776">
        <ele>466.1</ele>
        <time>2022-09-25T15:14:50Z</time>
      </trkpt>
      <trkpt lat="45.75247" lon="5.73777">
        <ele>466.1</ele>
        <time>2022-09-25T15:14:51Z</time>
      </trkpt>
      <trkpt lat="45.75246" lon="5.73778">
        <ele>466.2</ele>
        <time>2022-09-25T15:14:52Z</time>
      </trkpt>
      <trkpt lat="45.75244" lon="5.73778">
        <ele>466.3</ele>
        <time>2022-09-25T15:14:53Z</time>
      </trkpt>
      <trkpt lat="45.75244" lon="5.73779">
        <ele>466.4</ele>
        <time>2022-09-25T15:14:54Z</time>
      </trkpt>
      <trkpt lat="45.75243" lon="5.7378">
        <ele>466.5</ele>
        <time>2022-09-25T15:14:55Z</time>
      </trkpt>
      <trkpt lat="45.75242" lon="5.73781">
        <ele>466.6</ele>
        <time>2022-09-25T15:14:56Z</time>
      </trkpt>
      <trkpt lat="45.7524" lon="5.73782">
        <ele>466.7</ele>
        <time>2022-09-25T15:14:57Z</time>
      </trkpt>
      <trkpt lat="45.75238" lon="5.73783">
        <ele>466.8</ele>
        <time>2022-09-25T15:14:58Z</time>
      </trkpt>
      <trkpt lat="45.75237" lon="5.73784">
        <ele>466.9</ele>
        <time>2022-09-25T15:14:59Z</time>
      </trkpt>
      <trkpt lat="45.75236" lon="5.73784">
        <ele>467</ele>
        <time>2022-09-25T15:15:00Z</time>
      </trkpt>
      <trkpt lat="45.75235" lon="5.73786">
        <ele>467.1</ele>
        <time>2022-09-25T15:15:01Z</time>
      </trkpt>
      <trkpt lat="45.75234" lon="5.73786">
        <ele>467.2</ele>
        <time>2022-09-25T15:15:02Z</time>
      </trkpt>
      <trkpt lat="45.75233" lon="5.73787">
        <ele>467.2</ele>
        <time>2022-09-25T15:15:03Z</time>
      </trkpt>
      <trkpt lat="45.75231" lon="5.73788">
        <ele>467.4</ele>
        <time>2022-09-25T15:15:04Z</time>
      </trkpt>
      <trkpt lat="45.7523" lon="5.73789">
        <ele>467.4</ele>
        <time>2022-09-25T15:15:05Z</time>
      </trkpt>
      <trkpt lat="45.7523" lon="5.73789">
        <ele>467.5</ele>
        <time>2022-09-25T15:15:06Z</time>
      </trkpt>
      <trkpt lat="45.75229" lon="5.7379">
        <ele>467.6</ele>
        <time>2022-09-25T15:15:07Z</time>
      </trkpt>
      <trkpt lat="45.75227" lon="5.73791">
        <ele>467.7</ele>
        <time>2022-09-25T15:15:08Z</time>
      </trkpt>
      <trkpt lat="45.75226" lon="5.73791">
        <ele>467.8</ele>
        <time>2022-09-25T15:15:09Z</time>
      </trkpt>
      <trkpt lat="45.75225" lon="5.73792">
        <ele>467.8</ele>
        <time>2022-09-25T15:15:10Z</time>
      </trkpt>
      <trkpt lat="45.75224" lon="5.73792">
        <ele>467.9</ele>
        <time>2022-09-25T15:15:11Z</time>
      </trkpt>
      <trkpt lat="45.75224" lon="5.73793">
        <ele>467.9</ele>
        <time>2022-09-25T15:15:12Z</time>
      </trkpt>
      <trkpt lat="45.75222" lon="5.73793">
        <ele>468</ele>
        <time>2022-09-25T15:15:13Z</time>
      </trkpt>
      <trkpt lat="45.75221" lon="5.73794">
        <ele>468.1</ele>
        <time>2022-09-25T15:15:14Z</time>
      </trkpt>
      <trkpt lat="45.7522" lon="5.73794">
        <ele>468.2</ele>
        <time>2022-09-25T15:15:15Z</time>
      </trkpt>
      <trkpt lat="45.75218" lon="5.73795">
        <ele>468.3</ele>
        <time>2022-09-25T15:15:16Z</time>
      </trkpt>
      <trkpt lat="45.75217" lon="5.73796">
        <ele>468.4</ele>
        <time>2022-09-25T15:15:17Z</time>
      </trkpt>
      <trkpt lat="45.75216" lon="5.73797">
        <ele>468.5</ele>
        <time>2022-09-25T15:15:18Z</time>
      </trkpt>
      <trkpt lat="45.75213" lon="5.73799">
        <ele>468.7</ele>
        <time>2022-09-25T15:15:19Z</time>
      </trkpt>
      <trkpt lat="45.75212" lon="5.738">
        <ele>468.8</ele>
        <time>2022-09-25T15:15:20Z</time>
      </trkpt>
      <trkpt lat="45.75212" lon="5.738">
        <ele>468.8</ele>
        <time>2022-09-25T15:15:21Z</time>
      </trkpt>
      <trkpt lat="45.7521" lon="5.73801">
        <ele>468.9</ele>
        <time>2022-09-25T15:15:22Z</time>
      </trkpt>
      <trkpt lat="45.75209" lon="5.73802">
        <ele>469</ele>
        <time>2022-09-25T15:15:23Z</time>
      </trkpt>
      <trkpt lat="45.75208" lon="5.73803">
        <ele>469.1</ele>
        <time>2022-09-25T15:15:24Z</time>
      </trkpt>
      <trkpt lat="45.75206" lon="5.73804">
        <ele>469.2</ele>
        <time>2022-09-25T15:15:25Z</time>
      </trkpt>
      <trkpt lat="45.75205" lon="5.73805">
        <ele>469.4</ele>
        <time>2022-09-25T15:15:26Z</time>
      </trkpt>
      <trkpt lat="45.75203" lon="5.73806">
        <ele>469.5</ele>
        <time>2022-09-25T15:15:27Z</time>
      </trkpt>
      <trkpt lat="45.75202" lon="5.73806">
        <ele>469.6</ele>
        <time>2022-09-25T15:15:28Z</time>
      </trkpt>
      <trkpt lat="45.752" lon="5.73807">
        <ele>469.7</ele>
        <time>2022-09-25T15:15:29Z</time>
      </trkpt>
      <trkpt lat="45.75199" lon="5.73808">
        <ele>469.8</ele>
        <time>2022-09-25T15:15:30Z</time>
      </trkpt>
      <trkpt lat="45.75197" lon="5.73808">
        <ele>469.9</ele>
        <time>2022-09-25T15:15:31Z</time>
      </trkpt>
      <trkpt lat="45.75196" lon="5.73809">
        <ele>470</ele>
        <time>2022-09-25T15:15:32Z</time>
      </trkpt>
      <trkpt lat="45.75195" lon="5.7381">
        <ele>470.1</ele>
        <time>2022-09-25T15:15:33Z</time>
      </trkpt>
      <trkpt lat="45.75193" lon="5.7381">
        <ele>470.2</ele>
        <time>2022-09-25T15:15:34Z</time>
      </trkpt>
      <trkpt lat="45.75192" lon="5.73811">
        <ele>470.3</ele>
        <time>2022-09-25T15:15:35Z</time>
      </trkpt>
      <trkpt lat="45.7519" lon="5.73811">
        <ele>470.4</ele>
        <time>2022-09-25T15:15:36Z</time>
      </trkpt>
      <trkpt lat="45.75189" lon="5.73812">
        <ele>470.5</ele>
        <time>2022-09-25T15:15:37Z</time>
      </trkpt>
      <trkpt lat="45.75187" lon="5.73812">
        <ele>470.6</ele>
        <time>2022-09-25T15:15:38Z</time>
      </trkpt>
      <trkpt lat="45.75186" lon="5.73813">
        <ele>470.7</ele>
        <time>2022-09-25T15:15:39Z</time>
      </trkpt>
      <trkpt lat="45.75185" lon="5.73813">
        <ele>470.7</ele>
        <time>2022-09-25T15:15:40Z</time>
      </trkpt>
      <trkpt lat="45.75183" lon="5.73813">
        <ele>470.9</ele>
        <time>2022-09-25T15:15:41Z</time>
      </trkpt>
      <trkpt lat="45.75182" lon="5.73814">
        <ele>470.9</ele>
        <time>2022-09-25T15:15:42Z</time>
      </trkpt>
      <trkpt lat="45.75181" lon="5.73814">
        <ele>471</ele>
        <time>2022-09-25T15:15:43Z</time>
      </trkpt>
      <trkpt lat="45.75179" lon="5.73815">
        <ele>471.2</ele>
        <time>2022-09-25T15:15:44Z</time>
      </trkpt>
      <trkpt lat="45.75178" lon="5.73815">
        <ele>471.2</ele>
        <time>2022-09-25T15:15:45Z</time>
      </trkpt>
      <trkpt lat="45.75177" lon="5.73816">
        <ele>471.3</ele>
        <time>2022-09-25T15:15:46Z</time>
      </trkpt>
      <trkpt lat="45.75176" lon="5.73816">
        <ele>471.4</ele>
        <time>2022-09-25T15:15:47Z</time>
      </trkpt>
      <trkpt lat="45.75174" lon="5.73815">
        <ele>471.5</ele>
        <time>2022-09-25T15:15:48Z</time>
      </trkpt>
      <trkpt lat="45.75172" lon="5.73816">
        <ele>471.6</ele>
        <time>2022-09-25T15:15:49Z</time>
      </trkpt>
      <trkpt lat="45.75171" lon="5.73816">
        <ele>471.7</ele>
        <time>2022-09-25T15:15:50Z</time>
      </trkpt>
      <trkpt lat="45.7517" lon="5.73816">
        <ele>471.8</ele>
        <time>2022-09-25T15:15:51Z</time>
      </trkpt>
      <trkpt lat="45.75169" lon="5.73816">
        <ele>471.9</ele>
        <time>2022-09-25T15:15:52Z</time>
      </trkpt>
      <trkpt lat="45.75168" lon="5.73817">
        <ele>471.9</ele>
        <time>2022-09-25T15:15:53Z</time>
      </trkpt>
      <trkpt lat="45.75165" lon="5.73817">
        <ele>472.1</ele>
        <time>2022-09-25T15:15:54Z</time>
      </trkpt>
      <trkpt lat="45.75165" lon="5.73817">
        <ele>472.1</ele>
        <time>2022-09-25T15:15:55Z</time>
      </trkpt>
      <trkpt lat="45.75164" lon="5.73817">
        <ele>472.2</ele>
        <time>2022-09-25T15:15:56Z</time>
      </trkpt>
      <trkpt lat="45.75163" lon="5.73817">
        <ele>472.3</ele>
        <time>2022-09-25T15:15:57Z</time>
      </trkpt>
      <trkpt lat="45.75162" lon="5.73817">
        <ele>472.4</ele>
        <time>2022-09-25T15:15:58Z</time>
      </trkpt>
      <trkpt lat="45.75161" lon="5.73817">
        <ele>472.4</ele>
        <time>2022-09-25T15:15:59Z</time>
      </trkpt>
      <trkpt lat="45.75159" lon="5.73817">
        <ele>472.5</ele>
        <time>2022-09-25T15:16:00Z</time>
      </trkpt>
      <trkpt lat="45.75158" lon="5.73817">
        <ele>472.6</ele>
        <time>2022-09-25T15:16:01Z</time>
      </trkpt>
      <trkpt lat="45.75156" lon="5.73817">
        <ele>472.7</ele>
        <time>2022-09-25T15:16:02Z</time>
      </trkpt>
      <trkpt lat="45.75155" lon="5.73817">
        <ele>472.8</ele>
        <time>2022-09-25T15:16:03Z</time>
      </trkpt>
      <trkpt lat="45.75154" lon="5.73816">
        <ele>472.9</ele>
        <time>2022-09-25T15:16:04Z</time>
      </trkpt>
      <trkpt lat="45.75153" lon="5.73816">
        <ele>473</ele>
        <time>2022-09-25T15:16:05Z</time>
      </trkpt>
      <trkpt lat="45.75152" lon="5.73816">
        <ele>473.1</ele>
        <time>2022-09-25T15:16:06Z</time>
      </trkpt>
      <trkpt lat="45.7515" lon="5.73816">
        <ele>473.1</ele>
        <time>2022-09-25T15:16:07Z</time>
      </trkpt>
      <trkpt lat="45.75149" lon="5.73817">
        <ele>473.2</ele>
        <time>2022-09-25T15:16:08Z</time>
      </trkpt>
      <trkpt lat="45.75147" lon="5.73817">
        <ele>473.4</ele>
        <time>2022-09-25T15:16:09Z</time>
      </trkpt>
      <trkpt lat="45.75146" lon="5.73817">
        <ele>473.5</ele>
        <time>2022-09-25T15:16:10Z</time>
      </trkpt>
      <trkpt lat="45.75144" lon="5.73818">
        <ele>473.6</ele>
        <time>2022-09-25T15:16:11Z</time>
      </trkpt>
      <trkpt lat="45.75143" lon="5.73818">
        <ele>473.7</ele>
        <time>2022-09-25T15:16:13Z</time>
      </trkpt>
      <trkpt lat="45.75142" lon="5.73819">
        <ele>473.8</ele>
        <time>2022-09-25T15:16:14Z</time>
      </trkpt>
      <trkpt lat="45.7514" lon="5.73819">
        <ele>473.9</ele>
        <time>2022-09-25T15:16:15Z</time>
      </trkpt>
      <trkpt lat="45.75137" lon="5.7382">
        <ele>474.1</ele>
        <time>2022-09-25T15:16:16Z</time>
      </trkpt>
      <trkpt lat="45.75136" lon="5.7382">
        <ele>474.2</ele>
        <time>2022-09-25T15:16:17Z</time>
      </trkpt>
      <trkpt lat="45.75133" lon="5.7382">
        <ele>474.3</ele>
        <time>2022-09-25T15:16:18Z</time>
      </trkpt>
      <trkpt lat="45.75133" lon="5.7382">
        <ele>474.4</ele>
        <time>2022-09-25T15:16:19Z</time>
      </trkpt>
      <trkpt lat="45.75132" lon="5.7382">
        <ele>474.4</ele>
        <time>2022-09-25T15:16:20Z</time>
      </trkpt>
      <trkpt lat="45.7513" lon="5.7382">
        <ele>474.5</ele>
        <time>2022-09-25T15:16:21Z</time>
      </trkpt>
      <trkpt lat="45.75129" lon="5.73821">
        <ele>474.6</ele>
        <time>2022-09-25T15:16:22Z</time>
      </trkpt>
      <trkpt lat="45.75128" lon="5.73821">
        <ele>474.7</ele>
        <time>2022-09-25T15:16:23Z</time>
      </trkpt>
      <trkpt lat="45.75127" lon="5.73821">
        <ele>474.7</ele>
        <time>2022-09-25T15:16:24Z</time>
      </trkpt>
      <trkpt lat="45.75126" lon="5.73821">
        <ele>474.8</ele>
        <time>2022-09-25T15:16:25Z</time>
      </trkpt>
      <trkpt lat="45.75124" lon="5.73821">
        <ele>474.9</ele>
        <time>2022-09-25T15:16:26Z</time>
      </trkpt>
      <trkpt lat="45.75123" lon="5.73822">
        <ele>475</ele>
        <time>2022-09-25T15:16:27Z</time>
      </trkpt>
      <trkpt lat="45.75122" lon="5.73822">
        <ele>475.1</ele>
        <time>2022-09-25T15:16:28Z</time>
      </trkpt>
      <trkpt lat="45.75121" lon="5.73822">
        <ele>475.2</ele>
        <time>2022-09-25T15:16:29Z</time>
      </trkpt>
      <trkpt lat="45.75119" lon="5.73822">
        <ele>475.2</ele>
        <time>2022-09-25T15:16:30Z</time>
      </trkpt>
      <trkpt lat="45.75118" lon="5.73822">
        <ele>475.3</ele>
        <time>2022-09-25T15:16:31Z</time>
      </trkpt>
      <trkpt lat="45.75116" lon="5.73823">
        <ele>475.5</ele>
        <time>2022-09-25T15:16:32Z</time>
      </trkpt>
      <trkpt lat="45.75114" lon="5.73824">
        <ele>475.6</ele>
        <time>2022-09-25T15:16:33Z</time>
      </trkpt>
      <trkpt lat="45.75114" lon="5.73824">
        <ele>475.6</ele>
        <time>2022-09-25T15:16:34Z</time>
      </trkpt>
      <trkpt lat="45.75113" lon="5.73825">
        <ele>475.7</ele>
        <time>2022-09-25T15:16:35Z</time>
      </trkpt>
      <trkpt lat="45.75111" lon="5.73825">
        <ele>475.8</ele>
        <time>2022-09-25T15:16:36Z</time>
      </trkpt>
      <trkpt lat="45.7511" lon="5.73826">
        <ele>475.8</ele>
        <time>2022-09-25T15:16:37Z</time>
      </trkpt>
      <trkpt lat="45.75109" lon="5.73827">
        <ele>475.9</ele>
        <time>2022-09-25T15:16:38Z</time>
      </trkpt>
      <trkpt lat="45.75107" lon="5.73827">
        <ele>476</ele>
        <time>2022-09-25T15:16:39Z</time>
      </trkpt>
      <trkpt lat="45.75105" lon="5.73827">
        <ele>476.1</ele>
        <time>2022-09-25T15:16:40Z</time>
      </trkpt>
      <trkpt lat="45.75104" lon="5.73828">
        <ele>476.1</ele>
        <time>2022-09-25T15:16:41Z</time>
      </trkpt>
      <trkpt lat="45.75103" lon="5.73828">
        <ele>476.2</ele>
        <time>2022-09-25T15:16:42Z</time>
      </trkpt>
      <trkpt lat="45.75101" lon="5.73829">
        <ele>476.3</ele>
        <time>2022-09-25T15:16:43Z</time>
      </trkpt>
      <trkpt lat="45.75101" lon="5.7383">
        <ele>476.3</ele>
        <time>2022-09-25T15:16:44Z</time>
      </trkpt>
      <trkpt lat="45.751" lon="5.73831">
        <ele>476.3</ele>
        <time>2022-09-25T15:16:45Z</time>
      </trkpt>
      <trkpt lat="45.75098" lon="5.73832">
        <ele>476.5</ele>
        <time>2022-09-25T15:16:46Z</time>
      </trkpt>
      <trkpt lat="45.75097" lon="5.73832">
        <ele>476.5</ele>
        <time>2022-09-25T15:16:47Z</time>
      </trkpt>
      <trkpt lat="45.75096" lon="5.73833">
        <ele>476.5</ele>
        <time>2022-09-25T15:16:48Z</time>
      </trkpt>
      <trkpt lat="45.75094" lon="5.73834">
        <ele>476.6</ele>
        <time>2022-09-25T15:16:49Z</time>
      </trkpt>
      <trkpt lat="45.75094" lon="5.73835">
        <ele>476.6</ele>
        <time>2022-09-25T15:16:50Z</time>
      </trkpt>
      <trkpt lat="45.75092" lon="5.73836">
        <ele>476.7</ele>
        <time>2022-09-25T15:16:51Z</time>
      </trkpt>
      <trkpt lat="45.75091" lon="5.73836">
        <ele>476.8</ele>
        <time>2022-09-25T15:16:52Z</time>
      </trkpt>
      <trkpt lat="45.75088" lon="5.73837">
        <ele>476.8</ele>
        <time>2022-09-25T15:16:53Z</time>
      </trkpt>
      <trkpt lat="45.75088" lon="5.73837">
        <ele>476.9</ele>
        <time>2022-09-25T15:16:54Z</time>
      </trkpt>
      <trkpt lat="45.75087" lon="5.73838">
        <ele>476.9</ele>
        <time>2022-09-25T15:16:55Z</time>
      </trkpt>
      <trkpt lat="45.75085" lon="5.73839">
        <ele>477</ele>
        <time>2022-09-25T15:16:56Z</time>
      </trkpt>
      <trkpt lat="45.75084" lon="5.7384">
        <ele>477</ele>
        <time>2022-09-25T15:16:57Z</time>
      </trkpt>
      <trkpt lat="45.75083" lon="5.73841">
        <ele>477</ele>
        <time>2022-09-25T15:16:58Z</time>
      </trkpt>
      <trkpt lat="45.75081" lon="5.73842">
        <ele>477.1</ele>
        <time>2022-09-25T15:16:59Z</time>
      </trkpt>
      <trkpt lat="45.7508" lon="5.73843">
        <ele>477.1</ele>
        <time>2022-09-25T15:17:00Z</time>
      </trkpt>
      <trkpt lat="45.75079" lon="5.73844">
        <ele>477.2</ele>
        <time>2022-09-25T15:17:01Z</time>
      </trkpt>
      <trkpt lat="45.75077" lon="5.73845">
        <ele>477.2</ele>
        <time>2022-09-25T15:17:02Z</time>
      </trkpt>
      <trkpt lat="45.75074" lon="5.73847">
        <ele>477.3</ele>
        <time>2022-09-25T15:17:03Z</time>
      </trkpt>
      <trkpt lat="45.75073" lon="5.73848">
        <ele>477.4</ele>
        <time>2022-09-25T15:17:04Z</time>
      </trkpt>
      <trkpt lat="45.75071" lon="5.73849">
        <ele>477.4</ele>
        <time>2022-09-25T15:17:05Z</time>
      </trkpt>
      <trkpt lat="45.75069" lon="5.73851">
        <ele>477.5</ele>
        <time>2022-09-25T15:17:06Z</time>
      </trkpt>
      <trkpt lat="45.75068" lon="5.73852">
        <ele>477.5</ele>
        <time>2022-09-25T15:17:07Z</time>
      </trkpt>
      <trkpt lat="45.75067" lon="5.73853">
        <ele>477.5</ele>
        <time>2022-09-25T15:17:08Z</time>
      </trkpt>
      <trkpt lat="45.75065" lon="5.73854">
        <ele>477.6</ele>
        <time>2022-09-25T15:17:09Z</time>
      </trkpt>
      <trkpt lat="45.75062" lon="5.73855">
        <ele>477.7</ele>
        <time>2022-09-25T15:17:10Z</time>
      </trkpt>
      <trkpt lat="45.75061" lon="5.73855">
        <ele>477.7</ele>
        <time>2022-09-25T15:17:11Z</time>
      </trkpt>
      <trkpt lat="45.75059" lon="5.73858">
        <ele>477.8</ele>
        <time>2022-09-25T15:17:12Z</time>
      </trkpt>
      <trkpt lat="45.75058" lon="5.73859">
        <ele>477.8</ele>
        <time>2022-09-25T15:17:13Z</time>
      </trkpt>
      <trkpt lat="45.75057" lon="5.7386">
        <ele>477.8</ele>
        <time>2022-09-25T15:17:14Z</time>
      </trkpt>
      <trkpt lat="45.75055" lon="5.73861">
        <ele>477.9</ele>
        <time>2022-09-25T15:17:15Z</time>
      </trkpt>
      <trkpt lat="45.75054" lon="5.73861">
        <ele>477.9</ele>
        <time>2022-09-25T15:17:16Z</time>
      </trkpt>
      <trkpt lat="45.75052" lon="5.73862">
        <ele>478</ele>
        <time>2022-09-25T15:17:17Z</time>
      </trkpt>
      <trkpt lat="45.75051" lon="5.73864">
        <ele>478.1</ele>
        <time>2022-09-25T15:17:18Z</time>
      </trkpt>
      <trkpt lat="45.7505" lon="5.73865">
        <ele>478.1</ele>
        <time>2022-09-25T15:17:19Z</time>
      </trkpt>
      <trkpt lat="45.75048" lon="5.73866">
        <ele>478.1</ele>
        <time>2022-09-25T15:17:20Z</time>
      </trkpt>
      <trkpt lat="45.75047" lon="5.73867">
        <ele>478.2</ele>
        <time>2022-09-25T15:17:21Z</time>
      </trkpt>
      <trkpt lat="45.75044" lon="5.73869">
        <ele>478.3</ele>
        <time>2022-09-25T15:17:22Z</time>
      </trkpt>
      <trkpt lat="45.75043" lon="5.7387">
        <ele>478.3</ele>
        <time>2022-09-25T15:17:23Z</time>
      </trkpt>
      <trkpt lat="45.75042" lon="5.73872">
        <ele>478.4</ele>
        <time>2022-09-25T15:17:24Z</time>
      </trkpt>
      <trkpt lat="45.75041" lon="5.73873">
        <ele>478.4</ele>
        <time>2022-09-25T15:17:25Z</time>
      </trkpt>
      <trkpt lat="45.7504" lon="5.73874">
        <ele>478.5</ele>
        <time>2022-09-25T15:17:26Z</time>
      </trkpt>
      <trkpt lat="45.75038" lon="5.73876">
        <ele>478.5</ele>
        <time>2022-09-25T15:17:27Z</time>
      </trkpt>
      <trkpt lat="45.75035" lon="5.73878">
        <ele>478.6</ele>
        <time>2022-09-25T15:17:28Z</time>
      </trkpt>
      <trkpt lat="45.75034" lon="5.73878">
        <ele>478.6</ele>
        <time>2022-09-25T15:17:29Z</time>
      </trkpt>
      <trkpt lat="45.75033" lon="5.73879">
        <ele>478.7</ele>
        <time>2022-09-25T15:17:30Z</time>
      </trkpt>
      <trkpt lat="45.75032" lon="5.7388">
        <ele>478.7</ele>
        <time>2022-09-25T15:17:31Z</time>
      </trkpt>
      <trkpt lat="45.7503" lon="5.73882">
        <ele>478.8</ele>
        <time>2022-09-25T15:17:32Z</time>
      </trkpt>
      <trkpt lat="45.75029" lon="5.73883">
        <ele>478.8</ele>
        <time>2022-09-25T15:17:33Z</time>
      </trkpt>
      <trkpt lat="45.75026" lon="5.73886">
        <ele>478.9</ele>
        <time>2022-09-25T15:17:34Z</time>
      </trkpt>
      <trkpt lat="45.75026" lon="5.73887">
        <ele>478.9</ele>
        <time>2022-09-25T15:17:35Z</time>
      </trkpt>
      <trkpt lat="45.75023" lon="5.73888">
        <ele>479</ele>
        <time>2022-09-25T15:17:36Z</time>
      </trkpt>
      <trkpt lat="45.75022" lon="5.73889">
        <ele>479</ele>
        <time>2022-09-25T15:17:37Z</time>
      </trkpt>
      <trkpt lat="45.75021" lon="5.7389">
        <ele>479.1</ele>
        <time>2022-09-25T15:17:38Z</time>
      </trkpt>
      <trkpt lat="45.7502" lon="5.73892">
        <ele>479.1</ele>
        <time>2022-09-25T15:17:39Z</time>
      </trkpt>
      <trkpt lat="45.75017" lon="5.73894">
        <ele>479.2</ele>
        <time>2022-09-25T15:17:40Z</time>
      </trkpt>
      <trkpt lat="45.75017" lon="5.73894">
        <ele>479.2</ele>
        <time>2022-09-25T15:17:41Z</time>
      </trkpt>
      <trkpt lat="45.75015" lon="5.73896">
        <ele>479.3</ele>
        <time>2022-09-25T15:17:42Z</time>
      </trkpt>
      <trkpt lat="45.75014" lon="5.73897">
        <ele>479.3</ele>
        <time>2022-09-25T15:17:43Z</time>
      </trkpt>
      <trkpt lat="45.75012" lon="5.73898">
        <ele>479.4</ele>
        <time>2022-09-25T15:17:44Z</time>
      </trkpt>
      <trkpt lat="45.75011" lon="5.739">
        <ele>479.4</ele>
        <time>2022-09-25T15:17:45Z</time>
      </trkpt>
      <trkpt lat="45.7501" lon="5.73901">
        <ele>479.5</ele>
        <time>2022-09-25T15:17:46Z</time>
      </trkpt>
      <trkpt lat="45.75008" lon="5.73902">
        <ele>479.6</ele>
        <time>2022-09-25T15:17:47Z</time>
      </trkpt>
      <trkpt lat="45.75007" lon="5.73903">
        <ele>479.6</ele>
        <time>2022-09-25T15:17:48Z</time>
      </trkpt>
      <trkpt lat="45.75006" lon="5.73905">
        <ele>479.7</ele>
        <time>2022-09-25T15:17:49Z</time>
      </trkpt>
      <trkpt lat="45.75004" lon="5.73907">
        <ele>479.7</ele>
        <time>2022-09-25T15:17:50Z</time>
      </trkpt>
      <trkpt lat="45.75003" lon="5.73908">
        <ele>479.8</ele>
        <time>2022-09-25T15:17:51Z</time>
      </trkpt>
      <trkpt lat="45.75002" lon="5.7391">
        <ele>479.8</ele>
        <time>2022-09-25T15:17:52Z</time>
      </trkpt>
      <trkpt lat="45.75001" lon="5.73911">
        <ele>479.9</ele>
        <time>2022-09-25T15:17:53Z</time>
      </trkpt>
      <trkpt lat="45.74999" lon="5.73912">
        <ele>480</ele>
        <time>2022-09-25T15:17:54Z</time>
      </trkpt>
      <trkpt lat="45.74998" lon="5.73913">
        <ele>480</ele>
        <time>2022-09-25T15:17:55Z</time>
      </trkpt>
      <trkpt lat="45.74996" lon="5.73914">
        <ele>480.1</ele>
        <time>2022-09-25T15:17:56Z</time>
      </trkpt>
      <trkpt lat="45.74995" lon="5.73915">
        <ele>480.1</ele>
        <time>2022-09-25T15:17:57Z</time>
      </trkpt>
      <trkpt lat="45.74993" lon="5.73916">
        <ele>480.2</ele>
        <time>2022-09-25T15:17:58Z</time>
      </trkpt>
      <trkpt lat="45.74992" lon="5.73918">
        <ele>480.3</ele>
        <time>2022-09-25T15:17:59Z</time>
      </trkpt>
      <trkpt lat="45.7499" lon="5.73919">
        <ele>480.4</ele>
        <time>2022-09-25T15:18:00Z</time>
      </trkpt>
      <trkpt lat="45.74989" lon="5.7392">
        <ele>480.4</ele>
        <time>2022-09-25T15:18:01Z</time>
      </trkpt>
      <trkpt lat="45.74988" lon="5.73921">
        <ele>480.4</ele>
        <time>2022-09-25T15:18:02Z</time>
      </trkpt>
      <trkpt lat="45.74987" lon="5.73922">
        <ele>480.5</ele>
        <time>2022-09-25T15:18:03Z</time>
      </trkpt>
      <trkpt lat="45.74986" lon="5.73923">
        <ele>480.6</ele>
        <time>2022-09-25T15:18:04Z</time>
      </trkpt>
      <trkpt lat="45.74985" lon="5.73924">
        <ele>480.6</ele>
        <time>2022-09-25T15:18:05Z</time>
      </trkpt>
      <trkpt lat="45.74983" lon="5.73925">
        <ele>480.7</ele>
        <time>2022-09-25T15:18:06Z</time>
      </trkpt>
      <trkpt lat="45.74982" lon="5.73926">
        <ele>480.8</ele>
        <time>2022-09-25T15:18:07Z</time>
      </trkpt>
      <trkpt lat="45.74981" lon="5.73927">
        <ele>480.8</ele>
        <time>2022-09-25T15:18:08Z</time>
      </trkpt>
      <trkpt lat="45.7498" lon="5.73928">
        <ele>480.9</ele>
        <time>2022-09-25T15:18:09Z</time>
      </trkpt>
      <trkpt lat="45.74979" lon="5.7393">
        <ele>480.9</ele>
        <time>2022-09-25T15:18:10Z</time>
      </trkpt>
      <trkpt lat="45.74978" lon="5.7393">
        <ele>481</ele>
        <time>2022-09-25T15:18:11Z</time>
      </trkpt>
      <trkpt lat="45.74977" lon="5.73933">
        <ele>481.1</ele>
        <time>2022-09-25T15:18:12Z</time>
      </trkpt>
      <trkpt lat="45.74976" lon="5.73933">
        <ele>481.1</ele>
        <time>2022-09-25T15:18:13Z</time>
      </trkpt>
      <trkpt lat="45.74974" lon="5.73934">
        <ele>481.2</ele>
        <time>2022-09-25T15:18:14Z</time>
      </trkpt>
      <trkpt lat="45.74972" lon="5.73936">
        <ele>481.3</ele>
        <time>2022-09-25T15:18:15Z</time>
      </trkpt>
      <trkpt lat="45.74971" lon="5.73937">
        <ele>481.3</ele>
        <time>2022-09-25T15:18:16Z</time>
      </trkpt>
      <trkpt lat="45.7497" lon="5.73938">
        <ele>481.4</ele>
        <time>2022-09-25T15:18:17Z</time>
      </trkpt>
      <trkpt lat="45.74969" lon="5.73939">
        <ele>481.5</ele>
        <time>2022-09-25T15:18:19Z</time>
      </trkpt>
      <trkpt lat="45.74968" lon="5.7394">
        <ele>481.5</ele>
        <time>2022-09-25T15:18:20Z</time>
      </trkpt>
      <trkpt lat="45.74965" lon="5.73942">
        <ele>481.6</ele>
        <time>2022-09-25T15:18:21Z</time>
      </trkpt>
      <trkpt lat="45.74964" lon="5.73942">
        <ele>481.7</ele>
        <time>2022-09-25T15:18:22Z</time>
      </trkpt>
      <trkpt lat="45.74962" lon="5.73945">
        <ele>481.8</ele>
        <time>2022-09-25T15:18:23Z</time>
      </trkpt>
      <trkpt lat="45.74961" lon="5.73945">
        <ele>481.9</ele>
        <time>2022-09-25T15:18:24Z</time>
      </trkpt>
      <trkpt lat="45.74958" lon="5.73948">
        <ele>482</ele>
        <time>2022-09-25T15:18:25Z</time>
      </trkpt>
      <trkpt lat="45.74957" lon="5.73948">
        <ele>482.1</ele>
        <time>2022-09-25T15:18:26Z</time>
      </trkpt>
      <trkpt lat="45.74956" lon="5.7395">
        <ele>482.2</ele>
        <time>2022-09-25T15:18:27Z</time>
      </trkpt>
      <trkpt lat="45.74954" lon="5.73951">
        <ele>482.3</ele>
        <time>2022-09-25T15:18:28Z</time>
      </trkpt>
      <trkpt lat="45.74953" lon="5.73952">
        <ele>482.4</ele>
        <time>2022-09-25T15:18:29Z</time>
      </trkpt>
      <trkpt lat="45.74952" lon="5.73954">
        <ele>482.4</ele>
        <time>2022-09-25T15:18:30Z</time>
      </trkpt>
      <trkpt lat="45.7495" lon="5.73955">
        <ele>482.5</ele>
        <time>2022-09-25T15:18:31Z</time>
      </trkpt>
      <trkpt lat="45.74949" lon="5.73956">
        <ele>482.6</ele>
        <time>2022-09-25T15:18:32Z</time>
      </trkpt>
      <trkpt lat="45.74949" lon="5.73957">
        <ele>482.6</ele>
        <time>2022-09-25T15:18:33Z</time>
      </trkpt>
      <trkpt lat="45.74947" lon="5.73958">
        <ele>482.7</ele>
        <time>2022-09-25T15:18:34Z</time>
      </trkpt>
      <trkpt lat="45.74946" lon="5.73958">
        <ele>482.8</ele>
        <time>2022-09-25T15:18:35Z</time>
      </trkpt>
      <trkpt lat="45.74944" lon="5.73959">
        <ele>482.9</ele>
        <time>2022-09-25T15:18:36Z</time>
      </trkpt>
      <trkpt lat="45.74943" lon="5.7396">
        <ele>483</ele>
        <time>2022-09-25T15:18:37Z</time>
      </trkpt>
      <trkpt lat="45.74942" lon="5.73961">
        <ele>483</ele>
        <time>2022-09-25T15:18:38Z</time>
      </trkpt>
      <trkpt lat="45.7494" lon="5.73963">
        <ele>483.1</ele>
        <time>2022-09-25T15:18:39Z</time>
      </trkpt>
      <trkpt lat="45.74939" lon="5.73964">
        <ele>483.2</ele>
        <time>2022-09-25T15:18:40Z</time>
      </trkpt>
      <trkpt lat="45.74938" lon="5.73965">
        <ele>483.3</ele>
        <time>2022-09-25T15:18:41Z</time>
      </trkpt>
      <trkpt lat="45.74937" lon="5.73968">
        <ele>483.4</ele>
        <time>2022-09-25T15:18:42Z</time>
      </trkpt>
      <trkpt lat="45.74936" lon="5.73969">
        <ele>483.4</ele>
        <time>2022-09-25T15:18:43Z</time>
      </trkpt>
      <trkpt lat="45.74936" lon="5.7397">
        <ele>483.5</ele>
        <time>2022-09-25T15:18:44Z</time>
      </trkpt>
      <trkpt lat="45.74935" lon="5.73972">
        <ele>483.6</ele>
        <time>2022-09-25T15:18:45Z</time>
      </trkpt>
      <trkpt lat="45.74933" lon="5.73973">
        <ele>483.7</ele>
        <time>2022-09-25T15:18:46Z</time>
      </trkpt>
      <trkpt lat="45.74932" lon="5.73974">
        <ele>483.7</ele>
        <time>2022-09-25T15:18:47Z</time>
      </trkpt>
      <trkpt lat="45.74931" lon="5.73975">
        <ele>483.8</ele>
        <time>2022-09-25T15:18:48Z</time>
      </trkpt>
      <trkpt lat="45.74929" lon="5.73977">
        <ele>483.9</ele>
        <time>2022-09-25T15:18:49Z</time>
      </trkpt>
      <trkpt lat="45.74928" lon="5.73978">
        <ele>484</ele>
        <time>2022-09-25T15:18:50Z</time>
      </trkpt>
      <trkpt lat="45.74928" lon="5.73979">
        <ele>484</ele>
        <time>2022-09-25T15:18:51Z</time>
      </trkpt>
      <trkpt lat="45.74926" lon="5.7398">
        <ele>484.1</ele>
        <time>2022-09-25T15:18:52Z</time>
      </trkpt>
      <trkpt lat="45.74925" lon="5.73982">
        <ele>484.2</ele>
        <time>2022-09-25T15:18:53Z</time>
      </trkpt>
      <trkpt lat="45.74923" lon="5.73983">
        <ele>484.3</ele>
        <time>2022-09-25T15:18:54Z</time>
      </trkpt>
      <trkpt lat="45.74922" lon="5.73984">
        <ele>484.4</ele>
        <time>2022-09-25T15:18:55Z</time>
      </trkpt>
      <trkpt lat="45.74921" lon="5.73984">
        <ele>484.4</ele>
        <time>2022-09-25T15:18:56Z</time>
      </trkpt>
      <trkpt lat="45.7492" lon="5.73985">
        <ele>484.5</ele>
        <time>2022-09-25T15:18:57Z</time>
      </trkpt>
      <trkpt lat="45.74919" lon="5.73987">
        <ele>484.6</ele>
        <time>2022-09-25T15:18:58Z</time>
      </trkpt>
      <trkpt lat="45.74918" lon="5.73988">
        <ele>484.7</ele>
        <time>2022-09-25T15:18:59Z</time>
      </trkpt>
      <trkpt lat="45.74917" lon="5.73989">
        <ele>484.8</ele>
        <time>2022-09-25T15:19:00Z</time>
      </trkpt>
      <trkpt lat="45.74915" lon="5.7399">
        <ele>484.9</ele>
        <time>2022-09-25T15:19:01Z</time>
      </trkpt>
      <trkpt lat="45.74913" lon="5.7399">
        <ele>485</ele>
        <time>2022-09-25T15:19:02Z</time>
      </trkpt>
      <trkpt lat="45.74912" lon="5.73991">
        <ele>485</ele>
        <time>2022-09-25T15:19:03Z</time>
      </trkpt>
      <trkpt lat="45.74911" lon="5.73992">
        <ele>485.1</ele>
        <time>2022-09-25T15:19:04Z</time>
      </trkpt>
      <trkpt lat="45.7491" lon="5.73993">
        <ele>485.2</ele>
        <time>2022-09-25T15:19:05Z</time>
      </trkpt>
      <trkpt lat="45.74909" lon="5.73994">
        <ele>485.3</ele>
        <time>2022-09-25T15:19:06Z</time>
      </trkpt>
      <trkpt lat="45.74906" lon="5.73999">
        <ele>485.5</ele>
        <time>2022-09-25T15:19:07Z</time>
      </trkpt>
      <trkpt lat="45.74904" lon="5.74">
        <ele>485.6</ele>
        <time>2022-09-25T15:19:08Z</time>
      </trkpt>
      <trkpt lat="45.74903" lon="5.74001">
        <ele>485.7</ele>
        <time>2022-09-25T15:19:09Z</time>
      </trkpt>
      <trkpt lat="45.74902" lon="5.74002">
        <ele>485.8</ele>
        <time>2022-09-25T15:19:10Z</time>
      </trkpt>
      <trkpt lat="45.749" lon="5.74003">
        <ele>485.9</ele>
        <time>2022-09-25T15:19:11Z</time>
      </trkpt>
      <trkpt lat="45.74898" lon="5.74004">
        <ele>486</ele>
        <time>2022-09-25T15:19:12Z</time>
      </trkpt>
      <trkpt lat="45.74897" lon="5.74005">
        <ele>486.1</ele>
        <time>2022-09-25T15:19:13Z</time>
      </trkpt>
      <trkpt lat="45.74895" lon="5.74007">
        <ele>486.2</ele>
        <time>2022-09-25T15:19:14Z</time>
      </trkpt>
      <trkpt lat="45.74894" lon="5.74007">
        <ele>486.3</ele>
        <time>2022-09-25T15:19:15Z</time>
      </trkpt>
      <trkpt lat="45.74893" lon="5.74008">
        <ele>486.3</ele>
        <time>2022-09-25T15:19:16Z</time>
      </trkpt>
      <trkpt lat="45.74891" lon="5.74009">
        <ele>486.4</ele>
        <time>2022-09-25T15:19:17Z</time>
      </trkpt>
      <trkpt lat="45.7489" lon="5.74009">
        <ele>486.5</ele>
        <time>2022-09-25T15:19:18Z</time>
      </trkpt>
      <trkpt lat="45.74888" lon="5.7401">
        <ele>486.6</ele>
        <time>2022-09-25T15:19:19Z</time>
      </trkpt>
      <trkpt lat="45.74887" lon="5.7401">
        <ele>486.7</ele>
        <time>2022-09-25T15:19:20Z</time>
      </trkpt>
      <trkpt lat="45.74886" lon="5.74011">
        <ele>486.8</ele>
        <time>2022-09-25T15:19:21Z</time>
      </trkpt>
      <trkpt lat="45.74884" lon="5.74012">
        <ele>486.9</ele>
        <time>2022-09-25T15:19:22Z</time>
      </trkpt>
      <trkpt lat="45.74882" lon="5.74012">
        <ele>487</ele>
        <time>2022-09-25T15:19:23Z</time>
      </trkpt>
      <trkpt lat="45.74881" lon="5.74013">
        <ele>487</ele>
        <time>2022-09-25T15:19:24Z</time>
      </trkpt>
      <trkpt lat="45.74879" lon="5.74013">
        <ele>487.1</ele>
        <time>2022-09-25T15:19:25Z</time>
      </trkpt>
      <trkpt lat="45.74878" lon="5.74013">
        <ele>487.2</ele>
        <time>2022-09-25T15:19:26Z</time>
      </trkpt>
      <trkpt lat="45.74877" lon="5.74013">
        <ele>487.2</ele>
        <time>2022-09-25T15:19:27Z</time>
      </trkpt>
      <trkpt lat="45.74876" lon="5.74014">
        <ele>487.3</ele>
        <time>2022-09-25T15:19:28Z</time>
      </trkpt>
      <trkpt lat="45.74875" lon="5.74015">
        <ele>487.4</ele>
        <time>2022-09-25T15:19:29Z</time>
      </trkpt>
      <trkpt lat="45.74873" lon="5.74016">
        <ele>487.5</ele>
        <time>2022-09-25T15:19:30Z</time>
      </trkpt>
      <trkpt lat="45.74872" lon="5.74016">
        <ele>487.6</ele>
        <time>2022-09-25T15:19:31Z</time>
      </trkpt>
      <trkpt lat="45.7487" lon="5.74016">
        <ele>487.7</ele>
        <time>2022-09-25T15:19:32Z</time>
      </trkpt>
      <trkpt lat="45.74869" lon="5.74016">
        <ele>487.7</ele>
        <time>2022-09-25T15:19:33Z</time>
      </trkpt>
      <trkpt lat="45.74867" lon="5.74017">
        <ele>487.8</ele>
        <time>2022-09-25T15:19:34Z</time>
      </trkpt>
      <trkpt lat="45.74866" lon="5.74017">
        <ele>487.9</ele>
        <time>2022-09-25T15:19:35Z</time>
      </trkpt>
      <trkpt lat="45.74864" lon="5.74017">
        <ele>488</ele>
        <time>2022-09-25T15:19:36Z</time>
      </trkpt>
      <trkpt lat="45.74863" lon="5.74018">
        <ele>488</ele>
        <time>2022-09-25T15:19:37Z</time>
      </trkpt>
      <trkpt lat="45.74861" lon="5.74018">
        <ele>488.1</ele>
        <time>2022-09-25T15:19:38Z</time>
      </trkpt>
      <trkpt lat="45.7486" lon="5.74019">
        <ele>488.2</ele>
        <time>2022-09-25T15:19:39Z</time>
      </trkpt>
      <trkpt lat="45.74858" lon="5.7402">
        <ele>488.3</ele>
        <time>2022-09-25T15:19:40Z</time>
      </trkpt>
      <trkpt lat="45.74857" lon="5.7402">
        <ele>488.3</ele>
        <time>2022-09-25T15:19:41Z</time>
      </trkpt>
      <trkpt lat="45.74856" lon="5.74021">
        <ele>488.4</ele>
        <time>2022-09-25T15:19:42Z</time>
      </trkpt>
      <trkpt lat="45.74855" lon="5.74022">
        <ele>488.5</ele>
        <time>2022-09-25T15:19:43Z</time>
      </trkpt>
      <trkpt lat="45.74853" lon="5.74023">
        <ele>488.5</ele>
        <time>2022-09-25T15:19:44Z</time>
      </trkpt>
      <trkpt lat="45.74852" lon="5.74023">
        <ele>488.6</ele>
        <time>2022-09-25T15:19:45Z</time>
      </trkpt>
      <trkpt lat="45.7485" lon="5.74024">
        <ele>488.7</ele>
        <time>2022-09-25T15:19:46Z</time>
      </trkpt>
      <trkpt lat="45.74849" lon="5.74024">
        <ele>488.8</ele>
        <time>2022-09-25T15:19:47Z</time>
      </trkpt>
      <trkpt lat="45.74847" lon="5.74026">
        <ele>488.9</ele>
        <time>2022-09-25T15:19:48Z</time>
      </trkpt>
      <trkpt lat="45.74846" lon="5.74026">
        <ele>488.9</ele>
        <time>2022-09-25T15:19:49Z</time>
      </trkpt>
      <trkpt lat="45.74844" lon="5.74027">
        <ele>489</ele>
        <time>2022-09-25T15:19:50Z</time>
      </trkpt>
      <trkpt lat="45.74842" lon="5.74027">
        <ele>489.1</ele>
        <time>2022-09-25T15:19:51Z</time>
      </trkpt>
      <trkpt lat="45.74841" lon="5.74028">
        <ele>489.2</ele>
        <time>2022-09-25T15:19:52Z</time>
      </trkpt>
      <trkpt lat="45.74839" lon="5.74027">
        <ele>489.3</ele>
        <time>2022-09-25T15:19:53Z</time>
      </trkpt>
      <trkpt lat="45.74838" lon="5.74027">
        <ele>489.3</ele>
        <time>2022-09-25T15:19:54Z</time>
      </trkpt>
      <trkpt lat="45.74836" lon="5.74027">
        <ele>489.4</ele>
        <time>2022-09-25T15:19:55Z</time>
      </trkpt>
      <trkpt lat="45.74835" lon="5.74027">
        <ele>489.5</ele>
        <time>2022-09-25T15:19:56Z</time>
      </trkpt>
      <trkpt lat="45.74832" lon="5.74028">
        <ele>489.6</ele>
        <time>2022-09-25T15:19:57Z</time>
      </trkpt>
      <trkpt lat="45.74831" lon="5.74027">
        <ele>489.6</ele>
        <time>2022-09-25T15:19:58Z</time>
      </trkpt>
      <trkpt lat="45.74829" lon="5.74028">
        <ele>489.8</ele>
        <time>2022-09-25T15:19:59Z</time>
      </trkpt>
      <trkpt lat="45.74828" lon="5.74029">
        <ele>489.8</ele>
        <time>2022-09-25T15:20:00Z</time>
      </trkpt>
      <trkpt lat="45.74828" lon="5.74029">
        <ele>489.8</ele>
        <time>2022-09-25T15:20:01Z</time>
      </trkpt>
      <trkpt lat="45.74825" lon="5.74031">
        <ele>489.9</ele>
        <time>2022-09-25T15:20:02Z</time>
      </trkpt>
      <trkpt lat="45.74824" lon="5.74031">
        <ele>490</ele>
        <time>2022-09-25T15:20:03Z</time>
      </trkpt>
      <trkpt lat="45.74823" lon="5.74031">
        <ele>490</ele>
        <time>2022-09-25T15:20:04Z</time>
      </trkpt>
      <trkpt lat="45.74822" lon="5.74032">
        <ele>490.1</ele>
        <time>2022-09-25T15:20:05Z</time>
      </trkpt>
      <trkpt lat="45.7482" lon="5.74033">
        <ele>490.2</ele>
        <time>2022-09-25T15:20:06Z</time>
      </trkpt>
      <trkpt lat="45.74819" lon="5.74034">
        <ele>490.2</ele>
        <time>2022-09-25T15:20:07Z</time>
      </trkpt>
      <trkpt lat="45.74816" lon="5.74034">
        <ele>490.3</ele>
        <time>2022-09-25T15:20:08Z</time>
      </trkpt>
      <trkpt lat="45.74815" lon="5.74034">
        <ele>490.4</ele>
        <time>2022-09-25T15:20:09Z</time>
      </trkpt>
      <trkpt lat="45.74814" lon="5.74035">
        <ele>490.4</ele>
        <time>2022-09-25T15:20:10Z</time>
      </trkpt>
      <trkpt lat="45.74813" lon="5.74036">
        <ele>490.5</ele>
        <time>2022-09-25T15:20:11Z</time>
      </trkpt>
      <trkpt lat="45.74811" lon="5.74037">
        <ele>490.6</ele>
        <time>2022-09-25T15:20:12Z</time>
      </trkpt>
      <trkpt lat="45.7481" lon="5.74038">
        <ele>490.6</ele>
        <time>2022-09-25T15:20:13Z</time>
      </trkpt>
      <trkpt lat="45.74808" lon="5.74039">
        <ele>490.7</ele>
        <time>2022-09-25T15:20:14Z</time>
      </trkpt>
      <trkpt lat="45.74806" lon="5.7404">
        <ele>490.8</ele>
        <time>2022-09-25T15:20:15Z</time>
      </trkpt>
      <trkpt lat="45.74805" lon="5.7404">
        <ele>490.9</ele>
        <time>2022-09-25T15:20:16Z</time>
      </trkpt>
      <trkpt lat="45.74803" lon="5.74041">
        <ele>490.9</ele>
        <time>2022-09-25T15:20:17Z</time>
      </trkpt>
      <trkpt lat="45.74802" lon="5.74041">
        <ele>491</ele>
        <time>2022-09-25T15:20:18Z</time>
      </trkpt>
      <trkpt lat="45.748" lon="5.74042">
        <ele>491.1</ele>
        <time>2022-09-25T15:20:19Z</time>
      </trkpt>
      <trkpt lat="45.74799" lon="5.74043">
        <ele>491.2</ele>
        <time>2022-09-25T15:20:20Z</time>
      </trkpt>
      <trkpt lat="45.74797" lon="5.74043">
        <ele>491.2</ele>
        <time>2022-09-25T15:20:21Z</time>
      </trkpt>
      <trkpt lat="45.74796" lon="5.74043">
        <ele>491.3</ele>
        <time>2022-09-25T15:20:22Z</time>
      </trkpt>
      <trkpt lat="45.74793" lon="5.74045">
        <ele>491.4</ele>
        <time>2022-09-25T15:20:23Z</time>
      </trkpt>
      <trkpt lat="45.74792" lon="5.74045">
        <ele>491.4</ele>
        <time>2022-09-25T15:20:25Z</time>
      </trkpt>
      <trkpt lat="45.74791" lon="5.74045">
        <ele>491.5</ele>
        <time>2022-09-25T15:20:26Z</time>
      </trkpt>
      <trkpt lat="45.7479" lon="5.74046">
        <ele>491.5</ele>
        <time>2022-09-25T15:20:27Z</time>
      </trkpt>
      <trkpt lat="45.74788" lon="5.74047">
        <ele>491.6</ele>
        <time>2022-09-25T15:20:28Z</time>
      </trkpt>
      <trkpt lat="45.74787" lon="5.74048">
        <ele>491.7</ele>
        <time>2022-09-25T15:20:29Z</time>
      </trkpt>
      <trkpt lat="45.74785" lon="5.74048">
        <ele>491.8</ele>
        <time>2022-09-25T15:20:30Z</time>
      </trkpt>
      <trkpt lat="45.74784" lon="5.74048">
        <ele>491.8</ele>
        <time>2022-09-25T15:20:31Z</time>
      </trkpt>
      <trkpt lat="45.74782" lon="5.74049">
        <ele>491.9</ele>
        <time>2022-09-25T15:20:32Z</time>
      </trkpt>
      <trkpt lat="45.7478" lon="5.74049">
        <ele>492</ele>
        <time>2022-09-25T15:20:33Z</time>
      </trkpt>
      <trkpt lat="45.74779" lon="5.7405">
        <ele>492</ele>
        <time>2022-09-25T15:20:34Z</time>
      </trkpt>
      <trkpt lat="45.74778" lon="5.7405">
        <ele>492.1</ele>
        <time>2022-09-25T15:20:35Z</time>
      </trkpt>
      <trkpt lat="45.74776" lon="5.74051">
        <ele>492.1</ele>
        <time>2022-09-25T15:20:36Z</time>
      </trkpt>
      <trkpt lat="45.74774" lon="5.74051">
        <ele>492.2</ele>
        <time>2022-09-25T15:20:37Z</time>
      </trkpt>
      <trkpt lat="45.74773" lon="5.74052">
        <ele>492.3</ele>
        <time>2022-09-25T15:20:38Z</time>
      </trkpt>
      <trkpt lat="45.7477" lon="5.74053">
        <ele>492.4</ele>
        <time>2022-09-25T15:20:39Z</time>
      </trkpt>
      <trkpt lat="45.74769" lon="5.74053">
        <ele>492.4</ele>
        <time>2022-09-25T15:20:40Z</time>
      </trkpt>
      <trkpt lat="45.74768" lon="5.74053">
        <ele>492.4</ele>
        <time>2022-09-25T15:20:41Z</time>
      </trkpt>
      <trkpt lat="45.74766" lon="5.74054">
        <ele>492.5</ele>
        <time>2022-09-25T15:20:42Z</time>
      </trkpt>
      <trkpt lat="45.74764" lon="5.74056">
        <ele>492.5</ele>
        <time>2022-09-25T15:20:43Z</time>
      </trkpt>
      <trkpt lat="45.74763" lon="5.74057">
        <ele>492.6</ele>
        <time>2022-09-25T15:20:44Z</time>
      </trkpt>
      <trkpt lat="45.74761" lon="5.74057">
        <ele>492.6</ele>
        <time>2022-09-25T15:20:45Z</time>
      </trkpt>
      <trkpt lat="45.74759" lon="5.74057">
        <ele>492.7</ele>
        <time>2022-09-25T15:20:46Z</time>
      </trkpt>
      <trkpt lat="45.74756" lon="5.74058">
        <ele>492.7</ele>
        <time>2022-09-25T15:20:47Z</time>
      </trkpt>
      <trkpt lat="45.74756" lon="5.74059">
        <ele>492.8</ele>
        <time>2022-09-25T15:20:48Z</time>
      </trkpt>
      <trkpt lat="45.74753" lon="5.7406">
        <ele>492.8</ele>
        <time>2022-09-25T15:20:49Z</time>
      </trkpt>
      <trkpt lat="45.74752" lon="5.74061">
        <ele>492.8</ele>
        <time>2022-09-25T15:20:50Z</time>
      </trkpt>
      <trkpt lat="45.74749" lon="5.74062">
        <ele>492.9</ele>
        <time>2022-09-25T15:20:51Z</time>
      </trkpt>
      <trkpt lat="45.74748" lon="5.74062">
        <ele>492.9</ele>
        <time>2022-09-25T15:20:52Z</time>
      </trkpt>
      <trkpt lat="45.74744" lon="5.74064">
        <ele>493</ele>
        <time>2022-09-25T15:20:53Z</time>
      </trkpt>
      <trkpt lat="45.74743" lon="5.74064">
        <ele>493</ele>
        <time>2022-09-25T15:20:54Z</time>
      </trkpt>
      <trkpt lat="45.7474" lon="5.74065">
        <ele>493.1</ele>
        <time>2022-09-25T15:20:55Z</time>
      </trkpt>
      <trkpt lat="45.74739" lon="5.74066">
        <ele>493.1</ele>
        <time>2022-09-25T15:20:56Z</time>
      </trkpt>
      <trkpt lat="45.74736" lon="5.74067">
        <ele>493.1</ele>
        <time>2022-09-25T15:20:57Z</time>
      </trkpt>
      <trkpt lat="45.74736" lon="5.74067">
        <ele>493.1</ele>
        <time>2022-09-25T15:20:58Z</time>
      </trkpt>
      <trkpt lat="45.74732" lon="5.74067">
        <ele>493.1</ele>
        <time>2022-09-25T15:20:59Z</time>
      </trkpt>
      <trkpt lat="45.74731" lon="5.74067">
        <ele>493.2</ele>
        <time>2022-09-25T15:21:00Z</time>
      </trkpt>
      <trkpt lat="45.74729" lon="5.74067">
        <ele>493.2</ele>
        <time>2022-09-25T15:21:01Z</time>
      </trkpt>
      <trkpt lat="45.74728" lon="5.74068">
        <ele>493.2</ele>
        <time>2022-09-25T15:21:02Z</time>
      </trkpt>
      <trkpt lat="45.74725" lon="5.74069">
        <ele>493.2</ele>
        <time>2022-09-25T15:21:03Z</time>
      </trkpt>
      <trkpt lat="45.74724" lon="5.74069">
        <ele>493.2</ele>
        <time>2022-09-25T15:21:04Z</time>
      </trkpt>
      <trkpt lat="45.74721" lon="5.74068">
        <ele>493.2</ele>
        <time>2022-09-25T15:21:05Z</time>
      </trkpt>
      <trkpt lat="45.7472" lon="5.74068">
        <ele>493.2</ele>
        <time>2022-09-25T15:21:06Z</time>
      </trkpt>
      <trkpt lat="45.74716" lon="5.74069">
        <ele>493.2</ele>
        <time>2022-09-25T15:21:07Z</time>
      </trkpt>
      <trkpt lat="45.74714" lon="5.74069">
        <ele>493.2</ele>
        <time>2022-09-25T15:21:08Z</time>
      </trkpt>
      <trkpt lat="45.74711" lon="5.74068">
        <ele>493.1</ele>
        <time>2022-09-25T15:21:09Z</time>
      </trkpt>
      <trkpt lat="45.7471" lon="5.74068">
        <ele>493.1</ele>
        <time>2022-09-25T15:21:10Z</time>
      </trkpt>
      <trkpt lat="45.74706" lon="5.74067">
        <ele>493.1</ele>
        <time>2022-09-25T15:21:11Z</time>
      </trkpt>
      <trkpt lat="45.74704" lon="5.74067">
        <ele>493.1</ele>
        <time>2022-09-25T15:21:12Z</time>
      </trkpt>
      <trkpt lat="45.74699" lon="5.74067">
        <ele>493.1</ele>
        <time>2022-09-25T15:21:13Z</time>
      </trkpt>
      <trkpt lat="45.74697" lon="5.74065">
        <ele>493.1</ele>
        <time>2022-09-25T15:21:14Z</time>
      </trkpt>
      <trkpt lat="45.74696" lon="5.74065">
        <ele>493</ele>
        <time>2022-09-25T15:21:15Z</time>
      </trkpt>
      <trkpt lat="45.74692" lon="5.74064">
        <ele>493</ele>
        <time>2022-09-25T15:21:16Z</time>
      </trkpt>
      <trkpt lat="45.74691" lon="5.74063">
        <ele>493</ele>
        <time>2022-09-25T15:21:17Z</time>
      </trkpt>
      <trkpt lat="45.74688" lon="5.74061">
        <ele>493</ele>
        <time>2022-09-25T15:21:18Z</time>
      </trkpt>
      <trkpt lat="45.74687" lon="5.7406">
        <ele>493</ele>
        <time>2022-09-25T15:21:19Z</time>
      </trkpt>
      <trkpt lat="45.74684" lon="5.74058">
        <ele>493</ele>
        <time>2022-09-25T15:21:20Z</time>
      </trkpt>
      <trkpt lat="45.74683" lon="5.74058">
        <ele>493</ele>
        <time>2022-09-25T15:21:21Z</time>
      </trkpt>
      <trkpt lat="45.74679" lon="5.74056">
        <ele>493</ele>
        <time>2022-09-25T15:21:22Z</time>
      </trkpt>
      <trkpt lat="45.74678" lon="5.74056">
        <ele>493</ele>
        <time>2022-09-25T15:21:23Z</time>
      </trkpt>
      <trkpt lat="45.74675" lon="5.74053">
        <ele>493</ele>
        <time>2022-09-25T15:21:24Z</time>
      </trkpt>
      <trkpt lat="45.74675" lon="5.74052">
        <ele>492.9</ele>
        <time>2022-09-25T15:21:25Z</time>
      </trkpt>
      <trkpt lat="45.74672" lon="5.7405">
        <ele>492.9</ele>
        <time>2022-09-25T15:21:26Z</time>
      </trkpt>
      <trkpt lat="45.74671" lon="5.7405">
        <ele>492.9</ele>
        <time>2022-09-25T15:21:27Z</time>
      </trkpt>
      <trkpt lat="45.74668" lon="5.74048">
        <ele>492.9</ele>
        <time>2022-09-25T15:21:28Z</time>
      </trkpt>
      <trkpt lat="45.74667" lon="5.74047">
        <ele>492.9</ele>
        <time>2022-09-25T15:21:29Z</time>
      </trkpt>
      <trkpt lat="45.74663" lon="5.74045">
        <ele>492.9</ele>
        <time>2022-09-25T15:21:30Z</time>
      </trkpt>
      <trkpt lat="45.74662" lon="5.74045">
        <ele>492.9</ele>
        <time>2022-09-25T15:21:31Z</time>
      </trkpt>
      <trkpt lat="45.74659" lon="5.74043">
        <ele>492.9</ele>
        <time>2022-09-25T15:21:32Z</time>
      </trkpt>
      <trkpt lat="45.74658" lon="5.74042">
        <ele>492.9</ele>
        <time>2022-09-25T15:21:33Z</time>
      </trkpt>
      <trkpt lat="45.74654" lon="5.7404">
        <ele>492.9</ele>
        <time>2022-09-25T15:21:34Z</time>
      </trkpt>
      <trkpt lat="45.74653" lon="5.74039">
        <ele>492.9</ele>
        <time>2022-09-25T15:21:35Z</time>
      </trkpt>
      <trkpt lat="45.74649" lon="5.74037">
        <ele>492.8</ele>
        <time>2022-09-25T15:21:36Z</time>
      </trkpt>
      <trkpt lat="45.74648" lon="5.74036">
        <ele>492.8</ele>
        <time>2022-09-25T15:21:37Z</time>
      </trkpt>
      <trkpt lat="45.74644" lon="5.74034">
        <ele>492.8</ele>
        <time>2022-09-25T15:21:38Z</time>
      </trkpt>
      <trkpt lat="45.74643" lon="5.74033">
        <ele>492.9</ele>
        <time>2022-09-25T15:21:39Z</time>
      </trkpt>
      <trkpt lat="45.7464" lon="5.74032">
        <ele>492.9</ele>
        <time>2022-09-25T15:21:40Z</time>
      </trkpt>
      <trkpt lat="45.74636" lon="5.7403">
        <ele>492.9</ele>
        <time>2022-09-25T15:21:41Z</time>
      </trkpt>
      <trkpt lat="45.74635" lon="5.7403">
        <ele>492.9</ele>
        <time>2022-09-25T15:21:42Z</time>
      </trkpt>
      <trkpt lat="45.74631" lon="5.74028">
        <ele>492.9</ele>
        <time>2022-09-25T15:21:43Z</time>
      </trkpt>
      <trkpt lat="45.7463" lon="5.74028">
        <ele>493</ele>
        <time>2022-09-25T15:21:44Z</time>
      </trkpt>
      <trkpt lat="45.74627" lon="5.74026">
        <ele>493</ele>
        <time>2022-09-25T15:21:45Z</time>
      </trkpt>
      <trkpt lat="45.74623" lon="5.74025">
        <ele>493.1</ele>
        <time>2022-09-25T15:21:46Z</time>
      </trkpt>
      <trkpt lat="45.74621" lon="5.74024">
        <ele>493.1</ele>
        <time>2022-09-25T15:21:47Z</time>
      </trkpt>
      <trkpt lat="45.74617" lon="5.74023">
        <ele>493.2</ele>
        <time>2022-09-25T15:21:48Z</time>
      </trkpt>
      <trkpt lat="45.74616" lon="5.74022">
        <ele>493.2</ele>
        <time>2022-09-25T15:21:49Z</time>
      </trkpt>
      <trkpt lat="45.74613" lon="5.74022">
        <ele>493.3</ele>
        <time>2022-09-25T15:21:50Z</time>
      </trkpt>
      <trkpt lat="45.74612" lon="5.74022">
        <ele>493.3</ele>
        <time>2022-09-25T15:21:51Z</time>
      </trkpt>
      <trkpt lat="45.74608" lon="5.74021">
        <ele>493.4</ele>
        <time>2022-09-25T15:21:52Z</time>
      </trkpt>
      <trkpt lat="45.74607" lon="5.74021">
        <ele>493.4</ele>
        <time>2022-09-25T15:21:53Z</time>
      </trkpt>
      <trkpt lat="45.74604" lon="5.7402">
        <ele>493.5</ele>
        <time>2022-09-25T15:21:54Z</time>
      </trkpt>
      <trkpt lat="45.74603" lon="5.7402">
        <ele>493.5</ele>
        <time>2022-09-25T15:21:55Z</time>
      </trkpt>
      <trkpt lat="45.746" lon="5.7402">
        <ele>493.6</ele>
        <time>2022-09-25T15:21:56Z</time>
      </trkpt>
      <trkpt lat="45.74599" lon="5.7402">
        <ele>493.7</ele>
        <time>2022-09-25T15:21:57Z</time>
      </trkpt>
      <trkpt lat="45.74595" lon="5.7402">
        <ele>493.8</ele>
        <time>2022-09-25T15:21:58Z</time>
      </trkpt>
      <trkpt lat="45.74594" lon="5.7402">
        <ele>493.8</ele>
        <time>2022-09-25T15:21:59Z</time>
      </trkpt>
      <trkpt lat="45.74591" lon="5.7402">
        <ele>493.9</ele>
        <time>2022-09-25T15:22:00Z</time>
      </trkpt>
      <trkpt lat="45.7459" lon="5.7402">
        <ele>493.9</ele>
        <time>2022-09-25T15:22:01Z</time>
      </trkpt>
      <trkpt lat="45.74587" lon="5.7402">
        <ele>494</ele>
        <time>2022-09-25T15:22:02Z</time>
      </trkpt>
      <trkpt lat="45.74586" lon="5.7402">
        <ele>494.1</ele>
        <time>2022-09-25T15:22:03Z</time>
      </trkpt>
      <trkpt lat="45.74583" lon="5.7402">
        <ele>494.2</ele>
        <time>2022-09-25T15:22:04Z</time>
      </trkpt>
      <trkpt lat="45.74582" lon="5.74021">
        <ele>494.2</ele>
        <time>2022-09-25T15:22:05Z</time>
      </trkpt>
      <trkpt lat="45.74579" lon="5.74021">
        <ele>494.3</ele>
        <time>2022-09-25T15:22:06Z</time>
      </trkpt>
      <trkpt lat="45.74578" lon="5.74022">
        <ele>494.4</ele>
        <time>2022-09-25T15:22:07Z</time>
      </trkpt>
      <trkpt lat="45.74575" lon="5.74022">
        <ele>494.5</ele>
        <time>2022-09-25T15:22:08Z</time>
      </trkpt>
      <trkpt lat="45.74575" lon="5.74022">
        <ele>494.5</ele>
        <time>2022-09-25T15:22:09Z</time>
      </trkpt>
      <trkpt lat="45.74573" lon="5.74022">
        <ele>494.6</ele>
        <time>2022-09-25T15:22:10Z</time>
      </trkpt>
      <trkpt lat="45.74571" lon="5.74022">
        <ele>494.6</ele>
        <time>2022-09-25T15:22:11Z</time>
      </trkpt>
      <trkpt lat="45.7457" lon="5.74022">
        <ele>494.7</ele>
        <time>2022-09-25T15:22:12Z</time>
      </trkpt>
      <trkpt lat="45.74568" lon="5.74023">
        <ele>494.7</ele>
        <time>2022-09-25T15:22:13Z</time>
      </trkpt>
      <trkpt lat="45.74567" lon="5.74024">
        <ele>494.8</ele>
        <time>2022-09-25T15:22:14Z</time>
      </trkpt>
      <trkpt lat="45.74565" lon="5.74024">
        <ele>494.9</ele>
        <time>2022-09-25T15:22:15Z</time>
      </trkpt>
      <trkpt lat="45.74563" lon="5.74024">
        <ele>494.9</ele>
        <time>2022-09-25T15:22:16Z</time>
      </trkpt>
      <trkpt lat="45.74562" lon="5.74025">
        <ele>495</ele>
        <time>2022-09-25T15:22:17Z</time>
      </trkpt>
      <trkpt lat="45.74561" lon="5.74024">
        <ele>495.1</ele>
        <time>2022-09-25T15:22:18Z</time>
      </trkpt>
      <trkpt lat="45.74559" lon="5.74024">
        <ele>495.1</ele>
        <time>2022-09-25T15:22:19Z</time>
      </trkpt>
      <trkpt lat="45.74556" lon="5.74023">
        <ele>495.2</ele>
        <time>2022-09-25T15:22:20Z</time>
      </trkpt>
      <trkpt lat="45.74555" lon="5.74023">
        <ele>495.3</ele>
        <time>2022-09-25T15:22:21Z</time>
      </trkpt>
      <trkpt lat="45.74554" lon="5.74023">
        <ele>495.3</ele>
        <time>2022-09-25T15:22:22Z</time>
      </trkpt>
      <trkpt lat="45.74552" lon="5.74023">
        <ele>495.4</ele>
        <time>2022-09-25T15:22:23Z</time>
      </trkpt>
      <trkpt lat="45.74551" lon="5.74023">
        <ele>495.4</ele>
        <time>2022-09-25T15:22:24Z</time>
      </trkpt>
      <trkpt lat="45.74549" lon="5.74023">
        <ele>495.5</ele>
        <time>2022-09-25T15:22:25Z</time>
      </trkpt>
      <trkpt lat="45.74548" lon="5.74023">
        <ele>495.6</ele>
        <time>2022-09-25T15:22:26Z</time>
      </trkpt>
      <trkpt lat="45.74546" lon="5.74023">
        <ele>495.7</ele>
        <time>2022-09-25T15:22:27Z</time>
      </trkpt>
      <trkpt lat="45.74544" lon="5.74023">
        <ele>495.8</ele>
        <time>2022-09-25T15:22:28Z</time>
      </trkpt>
      <trkpt lat="45.74543" lon="5.74022">
        <ele>495.9</ele>
        <time>2022-09-25T15:22:29Z</time>
      </trkpt>
      <trkpt lat="45.74542" lon="5.74022">
        <ele>495.9</ele>
        <time>2022-09-25T15:22:31Z</time>
      </trkpt>
      <trkpt lat="45.7454" lon="5.74022">
        <ele>496</ele>
        <time>2022-09-25T15:22:32Z</time>
      </trkpt>
      <trkpt lat="45.74539" lon="5.74022">
        <ele>496.1</ele>
        <time>2022-09-25T15:22:33Z</time>
      </trkpt>
      <trkpt lat="45.74537" lon="5.74021">
        <ele>496.2</ele>
        <time>2022-09-25T15:22:34Z</time>
      </trkpt>
      <trkpt lat="45.74536" lon="5.7402">
        <ele>496.3</ele>
        <time>2022-09-25T15:22:35Z</time>
      </trkpt>
      <trkpt lat="45.74535" lon="5.74019">
        <ele>496.4</ele>
        <time>2022-09-25T15:22:36Z</time>
      </trkpt>
      <trkpt lat="45.74532" lon="5.74018">
        <ele>496.6</ele>
        <time>2022-09-25T15:22:37Z</time>
      </trkpt>
      <trkpt lat="45.74532" lon="5.74018">
        <ele>496.6</ele>
        <time>2022-09-25T15:22:38Z</time>
      </trkpt>
      <trkpt lat="45.74531" lon="5.74018">
        <ele>496.7</ele>
        <time>2022-09-25T15:22:39Z</time>
      </trkpt>
      <trkpt lat="45.74529" lon="5.74017">
        <ele>496.8</ele>
        <time>2022-09-25T15:22:40Z</time>
      </trkpt>
      <trkpt lat="45.74528" lon="5.74017">
        <ele>496.9</ele>
        <time>2022-09-25T15:22:41Z</time>
      </trkpt>
      <trkpt lat="45.74527" lon="5.74016">
        <ele>497</ele>
        <time>2022-09-25T15:22:42Z</time>
      </trkpt>
      <trkpt lat="45.74525" lon="5.74016">
        <ele>497.1</ele>
        <time>2022-09-25T15:22:43Z</time>
      </trkpt>
      <trkpt lat="45.74525" lon="5.74016">
        <ele>497.1</ele>
        <time>2022-09-25T15:22:44Z</time>
      </trkpt>
      <trkpt lat="45.74523" lon="5.74015">
        <ele>497.2</ele>
        <time>2022-09-25T15:22:45Z</time>
      </trkpt>
      <trkpt lat="45.74522" lon="5.74015">
        <ele>497.3</ele>
        <time>2022-09-25T15:22:46Z</time>
      </trkpt>
      <trkpt lat="45.7452" lon="5.74014">
        <ele>497.4</ele>
        <time>2022-09-25T15:22:47Z</time>
      </trkpt>
      <trkpt lat="45.74519" lon="5.74014">
        <ele>497.6</ele>
        <time>2022-09-25T15:22:48Z</time>
      </trkpt>
      <trkpt lat="45.74518" lon="5.74014">
        <ele>497.6</ele>
        <time>2022-09-25T15:22:49Z</time>
      </trkpt>
      <trkpt lat="45.74517" lon="5.74013">
        <ele>497.7</ele>
        <time>2022-09-25T15:22:50Z</time>
      </trkpt>
      <trkpt lat="45.74515" lon="5.74013">
        <ele>497.8</ele>
        <time>2022-09-25T15:22:51Z</time>
      </trkpt>
      <trkpt lat="45.74513" lon="5.74012">
        <ele>498</ele>
        <time>2022-09-25T15:22:52Z</time>
      </trkpt>
      <trkpt lat="45.74513" lon="5.74012">
        <ele>498</ele>
        <time>2022-09-25T15:22:53Z</time>
      </trkpt>
      <trkpt lat="45.74512" lon="5.74011">
        <ele>498.1</ele>
        <time>2022-09-25T15:22:54Z</time>
      </trkpt>
      <trkpt lat="45.7451" lon="5.7401">
        <ele>498.3</ele>
        <time>2022-09-25T15:22:55Z</time>
      </trkpt>
      <trkpt lat="45.74509" lon="5.7401">
        <ele>498.3</ele>
        <time>2022-09-25T15:22:56Z</time>
      </trkpt>
      <trkpt lat="45.74508" lon="5.74009">
        <ele>498.4</ele>
        <time>2022-09-25T15:22:57Z</time>
      </trkpt>
      <trkpt lat="45.74506" lon="5.74008">
        <ele>498.6</ele>
        <time>2022-09-25T15:22:58Z</time>
      </trkpt>
      <trkpt lat="45.74505" lon="5.74008">
        <ele>498.6</ele>
        <time>2022-09-25T15:22:59Z</time>
      </trkpt>
      <trkpt lat="45.74505" lon="5.74008">
        <ele>498.7</ele>
        <time>2022-09-25T15:23:00Z</time>
      </trkpt>
      <trkpt lat="45.74503" lon="5.74007">
        <ele>498.9</ele>
        <time>2022-09-25T15:23:01Z</time>
      </trkpt>
      <trkpt lat="45.74502" lon="5.74006">
        <ele>498.9</ele>
        <time>2022-09-25T15:23:02Z</time>
      </trkpt>
      <trkpt lat="45.74501" lon="5.74005">
        <ele>499</ele>
        <time>2022-09-25T15:23:03Z</time>
      </trkpt>
      <trkpt lat="45.745" lon="5.74005">
        <ele>499.1</ele>
        <time>2022-09-25T15:23:04Z</time>
      </trkpt>
      <trkpt lat="45.74499" lon="5.74005">
        <ele>499.2</ele>
        <time>2022-09-25T15:23:05Z</time>
      </trkpt>
      <trkpt lat="45.74497" lon="5.74005">
        <ele>499.3</ele>
        <time>2022-09-25T15:23:06Z</time>
      </trkpt>
      <trkpt lat="45.74496" lon="5.74005">
        <ele>499.4</ele>
        <time>2022-09-25T15:23:07Z</time>
      </trkpt>
      <trkpt lat="45.74495" lon="5.74005">
        <ele>499.5</ele>
        <time>2022-09-25T15:23:08Z</time>
      </trkpt>
      <trkpt lat="45.74494" lon="5.74005">
        <ele>499.6</ele>
        <time>2022-09-25T15:23:09Z</time>
      </trkpt>
      <trkpt lat="45.74493" lon="5.74005">
        <ele>499.7</ele>
        <time>2022-09-25T15:23:10Z</time>
      </trkpt>
      <trkpt lat="45.74492" lon="5.74004">
        <ele>499.7</ele>
        <time>2022-09-25T15:23:11Z</time>
      </trkpt>
      <trkpt lat="45.74491" lon="5.74003">
        <ele>499.8</ele>
        <time>2022-09-25T15:23:12Z</time>
      </trkpt>
      <trkpt lat="45.74489" lon="5.74001">
        <ele>500</ele>
        <time>2022-09-25T15:23:13Z</time>
      </trkpt>
      <trkpt lat="45.74489" lon="5.74001">
        <ele>500</ele>
        <time>2022-09-25T15:23:14Z</time>
      </trkpt>
      <trkpt lat="45.74488" lon="5.74">
        <ele>500</ele>
        <time>2022-09-25T15:23:15Z</time>
      </trkpt>
      <trkpt lat="45.74487" lon="5.74">
        <ele>500</ele>
        <time>2022-09-25T15:23:16Z</time>
      </trkpt>
      <trkpt lat="45.74486" lon="5.74">
        <ele>500</ele>
        <time>2022-09-25T15:23:17Z</time>
      </trkpt>
      <trkpt lat="45.74486" lon="5.74">
        <ele>500</ele>
        <time>2022-09-25T15:23:18Z</time>
      </trkpt>
      <trkpt lat="45.74485" lon="5.74">
        <ele>500</ele>
        <time>2022-09-25T15:23:19Z</time>
      </trkpt>
      <trkpt lat="45.74484" lon="5.74">
        <ele>500</ele>
        <time>2022-09-25T15:23:20Z</time>
      </trkpt>
      <trkpt lat="45.74484" lon="5.74">
        <ele>500</ele>
        <time>2022-09-25T15:23:21Z</time>
      </trkpt>
      <trkpt lat="45.74483" lon="5.74">
        <ele>500</ele>
        <time>2022-09-25T15:23:22Z</time>
      </trkpt>
      <trkpt lat="45.74482" lon="5.74">
        <ele>500</ele>
        <time>2022-09-25T15:23:23Z</time>
      </trkpt>
      <trkpt lat="45.74482" lon="5.74">
        <ele>500</ele>
        <time>2022-09-25T15:23:24Z</time>
      </trkpt>
      <trkpt lat="45.74481" lon="5.74001">
        <ele>500.1</ele>
        <time>2022-09-25T15:23:25Z</time>
      </trkpt>
      <trkpt lat="45.74481" lon="5.74001">
        <ele>500.1</ele>
        <time>2022-09-25T15:26:43Z</time>
      </trkpt>
      <trkpt lat="45.7448" lon="5.74001">
        <ele>500.1</ele>
        <time>2022-09-25T15:26:44Z</time>
      </trkpt>
      <trkpt lat="45.74479" lon="5.74001">
        <ele>500.1</ele>
        <time>2022-09-25T15:26:45Z</time>
      </trkpt>
      <trkpt lat="45.74479" lon="5.74001">
        <ele>500.1</ele>
        <time>2022-09-25T15:26:46Z</time>
      </trkpt>
      <trkpt lat="45.74478" lon="5.74001">
        <ele>500.1</ele>
        <time>2022-09-25T15:26:47Z</time>
      </trkpt>
      <trkpt lat="45.74477" lon="5.74001">
        <ele>500.1</ele>
        <time>2022-09-25T15:26:48Z</time>
      </trkpt>
      <trkpt lat="45.74477" lon="5.74001">
        <ele>500.1</ele>
        <time>2022-09-25T15:26:49Z</time>
      </trkpt>
      <trkpt lat="45.74476" lon="5.74001">
        <ele>500.1</ele>
        <time>2022-09-25T15:26:50Z</time>
      </trkpt>
      <trkpt lat="45.74476" lon="5.74002">
        <ele>500.1</ele>
        <time>2022-09-25T15:26:51Z</time>
      </trkpt>
      <trkpt lat="45.74475" lon="5.74002">
        <ele>500.1</ele>
        <time>2022-09-25T15:26:52Z</time>
      </trkpt>
      <trkpt lat="45.74474" lon="5.74002">
        <ele>500.1</ele>
        <time>2022-09-25T15:30:22Z</time>
      </trkpt>
      <trkpt lat="45.74474" lon="5.74002">
        <ele>500.1</ele>
        <time>2022-09-25T15:30:23Z</time>
      </trkpt>
      <trkpt lat="45.74472" lon="5.74001">
        <ele>500.1</ele>
        <time>2022-09-25T15:30:24Z</time>
      </trkpt>
      <trkpt lat="45.74471" lon="5.74001">
        <ele>500.1</ele>
        <time>2022-09-25T15:30:25Z</time>
      </trkpt>
      <trkpt lat="45.7447" lon="5.74001">
        <ele>500.1</ele>
        <time>2022-09-25T15:30:26Z</time>
      </trkpt>
      <trkpt lat="45.74467" lon="5.74001">
        <ele>500.1</ele>
        <time>2022-09-25T15:30:27Z</time>
      </trkpt>
      <trkpt lat="45.74466" lon="5.74002">
        <ele>500.1</ele>
        <time>2022-09-25T15:30:28Z</time>
      </trkpt>
      <trkpt lat="45.74463" lon="5.74001">
        <ele>500.2</ele>
        <time>2022-09-25T15:30:29Z</time>
      </trkpt>
      <trkpt lat="45.74462" lon="5.74001">
        <ele>500.2</ele>
        <time>2022-09-25T15:30:30Z</time>
      </trkpt>
      <trkpt lat="45.7446" lon="5.74001">
        <ele>500.2</ele>
        <time>2022-09-25T15:30:31Z</time>
      </trkpt>
      <trkpt lat="45.74458" lon="5.74001">
        <ele>500.2</ele>
        <time>2022-09-25T15:30:32Z</time>
      </trkpt>
      <trkpt lat="45.74455" lon="5.74001">
        <ele>500.2</ele>
        <time>2022-09-25T15:30:33Z</time>
      </trkpt>
      <trkpt lat="45.74453" lon="5.74001">
        <ele>500.2</ele>
        <time>2022-09-25T15:30:34Z</time>
      </trkpt>
      <trkpt lat="45.7445" lon="5.74002">
        <ele>500.2</ele>
        <time>2022-09-25T15:30:35Z</time>
      </trkpt>
      <trkpt lat="45.74448" lon="5.74003">
        <ele>500.2</ele>
        <time>2022-09-25T15:30:36Z</time>
      </trkpt>
      <trkpt lat="45.74445" lon="5.74004">
        <ele>500.1</ele>
        <time>2022-09-25T15:30:37Z</time>
      </trkpt>
      <trkpt lat="45.74443" lon="5.74004">
        <ele>500.1</ele>
        <time>2022-09-25T15:30:38Z</time>
      </trkpt>
      <trkpt lat="45.74441" lon="5.74006">
        <ele>500.1</ele>
        <time>2022-09-25T15:30:39Z</time>
      </trkpt>
      <trkpt lat="45.74438" lon="5.74008">
        <ele>500</ele>
        <time>2022-09-25T15:30:40Z</time>
      </trkpt>
      <trkpt lat="45.74436" lon="5.74009">
        <ele>500</ele>
        <time>2022-09-25T15:30:41Z</time>
      </trkpt>
      <trkpt lat="45.74433" lon="5.74012">
        <ele>499.9</ele>
        <time>2022-09-25T15:30:42Z</time>
      </trkpt>
      <trkpt lat="45.74431" lon="5.74013">
        <ele>499.9</ele>
        <time>2022-09-25T15:30:43Z</time>
      </trkpt>
      <trkpt lat="45.74428" lon="5.74017">
        <ele>499.7</ele>
        <time>2022-09-25T15:30:44Z</time>
      </trkpt>
      <trkpt lat="45.74427" lon="5.74018">
        <ele>499.7</ele>
        <time>2022-09-25T15:30:45Z</time>
      </trkpt>
      <trkpt lat="45.74425" lon="5.7402">
        <ele>499.6</ele>
        <time>2022-09-25T15:30:46Z</time>
      </trkpt>
      <trkpt lat="45.74423" lon="5.74023">
        <ele>499.5</ele>
        <time>2022-09-25T15:30:47Z</time>
      </trkpt>
      <trkpt lat="45.7442" lon="5.74025">
        <ele>499.4</ele>
        <time>2022-09-25T15:30:48Z</time>
      </trkpt>
      <trkpt lat="45.74417" lon="5.74028">
        <ele>499.3</ele>
        <time>2022-09-25T15:30:49Z</time>
      </trkpt>
      <trkpt lat="45.74414" lon="5.74031">
        <ele>499.2</ele>
        <time>2022-09-25T15:30:50Z</time>
      </trkpt>
      <trkpt lat="45.74411" lon="5.74034">
        <ele>499.1</ele>
        <time>2022-09-25T15:30:51Z</time>
      </trkpt>
      <trkpt lat="45.74408" lon="5.74036">
        <ele>499</ele>
        <time>2022-09-25T15:30:52Z</time>
      </trkpt>
      <trkpt lat="45.74405" lon="5.74038">
        <ele>498.9</ele>
        <time>2022-09-25T15:30:53Z</time>
      </trkpt>
      <trkpt lat="45.74403" lon="5.74041">
        <ele>498.8</ele>
        <time>2022-09-25T15:30:55Z</time>
      </trkpt>
      <trkpt lat="45.744" lon="5.74044">
        <ele>498.7</ele>
        <time>2022-09-25T15:30:56Z</time>
      </trkpt>
      <trkpt lat="45.74398" lon="5.74047">
        <ele>498.6</ele>
        <time>2022-09-25T15:30:57Z</time>
      </trkpt>
      <trkpt lat="45.74395" lon="5.74049">
        <ele>498.6</ele>
        <time>2022-09-25T15:30:58Z</time>
      </trkpt>
      <trkpt lat="45.74392" lon="5.74052">
        <ele>498.5</ele>
        <time>2022-09-25T15:30:59Z</time>
      </trkpt>
      <trkpt lat="45.74389" lon="5.74056">
        <ele>498.4</ele>
        <time>2022-09-25T15:31:00Z</time>
      </trkpt>
      <trkpt lat="45.74387" lon="5.74058">
        <ele>498.3</ele>
        <time>2022-09-25T15:31:01Z</time>
      </trkpt>
      <trkpt lat="45.74385" lon="5.74062">
        <ele>498.2</ele>
        <time>2022-09-25T15:31:02Z</time>
      </trkpt>
      <trkpt lat="45.74382" lon="5.74066">
        <ele>498.1</ele>
        <time>2022-09-25T15:31:03Z</time>
      </trkpt>
      <trkpt lat="45.74379" lon="5.74069">
        <ele>498.1</ele>
        <time>2022-09-25T15:31:04Z</time>
      </trkpt>
      <trkpt lat="45.74377" lon="5.74073">
        <ele>498</ele>
        <time>2022-09-25T15:31:05Z</time>
      </trkpt>
      <trkpt lat="45.74374" lon="5.74076">
        <ele>498</ele>
        <time>2022-09-25T15:31:06Z</time>
      </trkpt>
      <trkpt lat="45.74371" lon="5.7408">
        <ele>497.9</ele>
        <time>2022-09-25T15:31:07Z</time>
      </trkpt>
      <trkpt lat="45.74369" lon="5.74084">
        <ele>497.8</ele>
        <time>2022-09-25T15:31:08Z</time>
      </trkpt>
      <trkpt lat="45.74367" lon="5.74087">
        <ele>497.8</ele>
        <time>2022-09-25T15:31:09Z</time>
      </trkpt>
      <trkpt lat="45.74364" lon="5.7409">
        <ele>497.7</ele>
        <time>2022-09-25T15:31:10Z</time>
      </trkpt>
      <trkpt lat="45.74362" lon="5.74094">
        <ele>497.7</ele>
        <time>2022-09-25T15:31:11Z</time>
      </trkpt>
      <trkpt lat="45.74359" lon="5.74097">
        <ele>497.6</ele>
        <time>2022-09-25T15:31:12Z</time>
      </trkpt>
      <trkpt lat="45.74358" lon="5.74101">
        <ele>497.6</ele>
        <time>2022-09-25T15:31:13Z</time>
      </trkpt>
      <trkpt lat="45.74355" lon="5.74104">
        <ele>497.5</ele>
        <time>2022-09-25T15:31:14Z</time>
      </trkpt>
      <trkpt lat="45.74353" lon="5.74109">
        <ele>497.5</ele>
        <time>2022-09-25T15:31:15Z</time>
      </trkpt>
      <trkpt lat="45.7435" lon="5.74112">
        <ele>497.5</ele>
        <time>2022-09-25T15:31:16Z</time>
      </trkpt>
      <trkpt lat="45.74348" lon="5.74115">
        <ele>497.5</ele>
        <time>2022-09-25T15:31:17Z</time>
      </trkpt>
      <trkpt lat="45.74346" lon="5.74119">
        <ele>497.5</ele>
        <time>2022-09-25T15:31:18Z</time>
      </trkpt>
      <trkpt lat="45.74343" lon="5.74123">
        <ele>497.6</ele>
        <time>2022-09-25T15:31:19Z</time>
      </trkpt>
      <trkpt lat="45.74341" lon="5.74125">
        <ele>497.6</ele>
        <time>2022-09-25T15:31:20Z</time>
      </trkpt>
      <trkpt lat="45.74339" lon="5.74129">
        <ele>497.7</ele>
        <time>2022-09-25T15:31:21Z</time>
      </trkpt>
      <trkpt lat="45.74337" lon="5.74133">
        <ele>497.8</ele>
        <time>2022-09-25T15:31:22Z</time>
      </trkpt>
      <trkpt lat="45.74335" lon="5.74137">
        <ele>497.9</ele>
        <time>2022-09-25T15:31:23Z</time>
      </trkpt>
      <trkpt lat="45.74333" lon="5.7414">
        <ele>498</ele>
        <time>2022-09-25T15:31:24Z</time>
      </trkpt>
      <trkpt lat="45.74331" lon="5.74144">
        <ele>498.1</ele>
        <time>2022-09-25T15:31:25Z</time>
      </trkpt>
      <trkpt lat="45.7433" lon="5.74146">
        <ele>498.2</ele>
        <time>2022-09-25T15:31:26Z</time>
      </trkpt>
      <trkpt lat="45.74328" lon="5.74148">
        <ele>498.3</ele>
        <time>2022-09-25T15:31:27Z</time>
      </trkpt>
      <trkpt lat="45.74326" lon="5.74152">
        <ele>498.4</ele>
        <time>2022-09-25T15:31:28Z</time>
      </trkpt>
      <trkpt lat="45.74326" lon="5.74154">
        <ele>498.5</ele>
        <time>2022-09-25T15:31:29Z</time>
      </trkpt>
      <trkpt lat="45.74325" lon="5.74158">
        <ele>498.7</ele>
        <time>2022-09-25T15:31:30Z</time>
      </trkpt>
      <trkpt lat="45.74323" lon="5.74162">
        <ele>498.8</ele>
        <time>2022-09-25T15:31:31Z</time>
      </trkpt>
      <trkpt lat="45.74323" lon="5.74164">
        <ele>498.9</ele>
        <time>2022-09-25T15:31:32Z</time>
      </trkpt>
      <trkpt lat="45.74322" lon="5.74166">
        <ele>499</ele>
        <time>2022-09-25T15:31:33Z</time>
      </trkpt>
      <trkpt lat="45.74321" lon="5.74168">
        <ele>499.1</ele>
        <time>2022-09-25T15:31:34Z</time>
      </trkpt>
      <trkpt lat="45.7432" lon="5.74171">
        <ele>499.2</ele>
        <time>2022-09-25T15:31:35Z</time>
      </trkpt>
      <trkpt lat="45.74321" lon="5.74173">
        <ele>499.1</ele>
        <time>2022-09-25T15:31:36Z</time>
      </trkpt>
      <trkpt lat="45.74322" lon="5.74177">
        <ele>499.1</ele>
        <time>2022-09-25T15:31:37Z</time>
      </trkpt>
      <trkpt lat="45.74322" lon="5.74178">
        <ele>499</ele>
        <time>2022-09-25T15:31:38Z</time>
      </trkpt>
      <trkpt lat="45.74325" lon="5.74183">
        <ele>498.9</ele>
        <time>2022-09-25T15:31:39Z</time>
      </trkpt>
      <trkpt lat="45.74325" lon="5.74185">
        <ele>498.9</ele>
        <time>2022-09-25T15:31:40Z</time>
      </trkpt>
      <trkpt lat="45.74327" lon="5.74189">
        <ele>498.8</ele>
        <time>2022-09-25T15:31:41Z</time>
      </trkpt>
      <trkpt lat="45.74329" lon="5.74193">
        <ele>498.6</ele>
        <time>2022-09-25T15:31:42Z</time>
      </trkpt>
      <trkpt lat="45.7433" lon="5.74195">
        <ele>498.5</ele>
        <time>2022-09-25T15:31:43Z</time>
      </trkpt>
      <trkpt lat="45.74331" lon="5.74199">
        <ele>498.3</ele>
        <time>2022-09-25T15:31:44Z</time>
      </trkpt>
      <trkpt lat="45.74332" lon="5.74201">
        <ele>498.2</ele>
        <time>2022-09-25T15:31:45Z</time>
      </trkpt>
      <trkpt lat="45.74333" lon="5.74206">
        <ele>497.9</ele>
        <time>2022-09-25T15:31:46Z</time>
      </trkpt>
      <trkpt lat="45.74334" lon="5.74208">
        <ele>497.8</ele>
        <time>2022-09-25T15:31:47Z</time>
      </trkpt>
      <trkpt lat="45.74335" lon="5.74212">
        <ele>497.6</ele>
        <time>2022-09-25T15:31:48Z</time>
      </trkpt>
      <trkpt lat="45.74338" lon="5.74215">
        <ele>497.4</ele>
        <time>2022-09-25T15:31:49Z</time>
      </trkpt>
      <trkpt lat="45.74339" lon="5.7422">
        <ele>497.1</ele>
        <time>2022-09-25T15:31:50Z</time>
      </trkpt>
      <trkpt lat="45.7434" lon="5.74226">
        <ele>496.8</ele>
        <time>2022-09-25T15:31:51Z</time>
      </trkpt>
      <trkpt lat="45.74341" lon="5.7423">
        <ele>496.6</ele>
        <time>2022-09-25T15:31:52Z</time>
      </trkpt>
      <trkpt lat="45.74341" lon="5.74234">
        <ele>496.3</ele>
        <time>2022-09-25T15:31:53Z</time>
      </trkpt>
      <trkpt lat="45.74343" lon="5.74243">
        <ele>495.8</ele>
        <time>2022-09-25T15:31:54Z</time>
      </trkpt>
      <trkpt lat="45.74344" lon="5.74247">
        <ele>495.5</ele>
        <time>2022-09-25T15:31:55Z</time>
      </trkpt>
      <trkpt lat="45.74345" lon="5.74252">
        <ele>495.2</ele>
        <time>2022-09-25T15:31:56Z</time>
      </trkpt>
      <trkpt lat="45.74345" lon="5.74257">
        <ele>494.8</ele>
        <time>2022-09-25T15:31:57Z</time>
      </trkpt>
      <trkpt lat="45.74347" lon="5.74262">
        <ele>494.5</ele>
        <time>2022-09-25T15:31:58Z</time>
      </trkpt>
      <trkpt lat="45.74348" lon="5.74266">
        <ele>494.1</ele>
        <time>2022-09-25T15:31:59Z</time>
      </trkpt>
      <trkpt lat="45.74348" lon="5.74271">
        <ele>493.8</ele>
        <time>2022-09-25T15:32:00Z</time>
      </trkpt>
      <trkpt lat="45.74349" lon="5.74276">
        <ele>493.5</ele>
        <time>2022-09-25T15:32:01Z</time>
      </trkpt>
      <trkpt lat="45.74349" lon="5.7428">
        <ele>493.2</ele>
        <time>2022-09-25T15:32:02Z</time>
      </trkpt>
      <trkpt lat="45.74349" lon="5.74284">
        <ele>492.9</ele>
        <time>2022-09-25T15:32:03Z</time>
      </trkpt>
      <trkpt lat="45.74348" lon="5.74288">
        <ele>492.6</ele>
        <time>2022-09-25T15:32:04Z</time>
      </trkpt>
      <trkpt lat="45.74348" lon="5.74292">
        <ele>492.3</ele>
        <time>2022-09-25T15:32:05Z</time>
      </trkpt>
      <trkpt lat="45.74349" lon="5.74297">
        <ele>492</ele>
        <time>2022-09-25T15:32:06Z</time>
      </trkpt>
      <trkpt lat="45.74349" lon="5.74301">
        <ele>491.8</ele>
        <time>2022-09-25T15:32:07Z</time>
      </trkpt>
      <trkpt lat="45.74349" lon="5.74306">
        <ele>491.4</ele>
        <time>2022-09-25T15:32:08Z</time>
      </trkpt>
      <trkpt lat="45.74349" lon="5.74311">
        <ele>491.2</ele>
        <time>2022-09-25T15:32:09Z</time>
      </trkpt>
      <trkpt lat="45.74349" lon="5.74316">
        <ele>490.9</ele>
        <time>2022-09-25T15:32:10Z</time>
      </trkpt>
      <trkpt lat="45.74349" lon="5.74321">
        <ele>490.5</ele>
        <time>2022-09-25T15:32:11Z</time>
      </trkpt>
      <trkpt lat="45.74349" lon="5.74324">
        <ele>490.4</ele>
        <time>2022-09-25T15:32:12Z</time>
      </trkpt>
      <trkpt lat="45.74348" lon="5.74328">
        <ele>490.2</ele>
        <time>2022-09-25T15:32:13Z</time>
      </trkpt>
      <trkpt lat="45.74348" lon="5.74332">
        <ele>489.9</ele>
        <time>2022-09-25T15:32:14Z</time>
      </trkpt>
      <trkpt lat="45.74349" lon="5.74337">
        <ele>489.6</ele>
        <time>2022-09-25T15:32:15Z</time>
      </trkpt>
      <trkpt lat="45.74349" lon="5.74342">
        <ele>489.3</ele>
        <time>2022-09-25T15:32:16Z</time>
      </trkpt>
      <trkpt lat="45.74349" lon="5.74347">
        <ele>489</ele>
        <time>2022-09-25T15:32:17Z</time>
      </trkpt>
      <trkpt lat="45.74349" lon="5.74351">
        <ele>488.8</ele>
        <time>2022-09-25T15:32:18Z</time>
      </trkpt>
      <trkpt lat="45.74349" lon="5.74355">
        <ele>488.6</ele>
        <time>2022-09-25T15:32:19Z</time>
      </trkpt>
      <trkpt lat="45.7435" lon="5.74359">
        <ele>488.3</ele>
        <time>2022-09-25T15:32:20Z</time>
      </trkpt>
      <trkpt lat="45.7435" lon="5.74364">
        <ele>488</ele>
        <time>2022-09-25T15:32:21Z</time>
      </trkpt>
      <trkpt lat="45.74351" lon="5.74369">
        <ele>487.7</ele>
        <time>2022-09-25T15:32:22Z</time>
      </trkpt>
      <trkpt lat="45.74351" lon="5.74374">
        <ele>487.5</ele>
        <time>2022-09-25T15:32:23Z</time>
      </trkpt>
      <trkpt lat="45.74352" lon="5.74377">
        <ele>487.3</ele>
        <time>2022-09-25T15:32:24Z</time>
      </trkpt>
      <trkpt lat="45.74352" lon="5.74382">
        <ele>487</ele>
        <time>2022-09-25T15:32:25Z</time>
      </trkpt>
      <trkpt lat="45.74353" lon="5.74383">
        <ele>486.9</ele>
        <time>2022-09-25T15:32:26Z</time>
      </trkpt>
      <trkpt lat="45.74353" lon="5.74388">
        <ele>486.6</ele>
        <time>2022-09-25T15:32:27Z</time>
      </trkpt>
      <trkpt lat="45.74353" lon="5.7439">
        <ele>486.6</ele>
        <time>2022-09-25T15:32:28Z</time>
      </trkpt>
      <trkpt lat="45.74353" lon="5.74394">
        <ele>486.3</ele>
        <time>2022-09-25T15:32:29Z</time>
      </trkpt>
      <trkpt lat="45.74354" lon="5.74398">
        <ele>486.1</ele>
        <time>2022-09-25T15:32:30Z</time>
      </trkpt>
      <trkpt lat="45.74354" lon="5.74402">
        <ele>485.9</ele>
        <time>2022-09-25T15:32:31Z</time>
      </trkpt>
      <trkpt lat="45.74355" lon="5.74407">
        <ele>485.7</ele>
        <time>2022-09-25T15:32:32Z</time>
      </trkpt>
      <trkpt lat="45.74355" lon="5.74409">
        <ele>485.6</ele>
        <time>2022-09-25T15:32:33Z</time>
      </trkpt>
      <trkpt lat="45.74356" lon="5.74413">
        <ele>485.4</ele>
        <time>2022-09-25T15:32:34Z</time>
      </trkpt>
      <trkpt lat="45.74356" lon="5.74417">
        <ele>485.2</ele>
        <time>2022-09-25T15:32:35Z</time>
      </trkpt>
      <trkpt lat="45.74357" lon="5.74422">
        <ele>484.9</ele>
        <time>2022-09-25T15:32:36Z</time>
      </trkpt>
      <trkpt lat="45.74358" lon="5.74427">
        <ele>484.6</ele>
        <time>2022-09-25T15:32:37Z</time>
      </trkpt>
      <trkpt lat="45.74358" lon="5.74432">
        <ele>484.4</ele>
        <time>2022-09-25T15:32:38Z</time>
      </trkpt>
      <trkpt lat="45.74359" lon="5.74437">
        <ele>484.1</ele>
        <time>2022-09-25T15:32:39Z</time>
      </trkpt>
      <trkpt lat="45.7436" lon="5.74442">
        <ele>483.8</ele>
        <time>2022-09-25T15:32:40Z</time>
      </trkpt>
      <trkpt lat="45.7436" lon="5.74448">
        <ele>483.5</ele>
        <time>2022-09-25T15:32:41Z</time>
      </trkpt>
      <trkpt lat="45.74361" lon="5.7445">
        <ele>483.4</ele>
        <time>2022-09-25T15:32:42Z</time>
      </trkpt>
      <trkpt lat="45.74362" lon="5.74454">
        <ele>483.1</ele>
        <time>2022-09-25T15:32:43Z</time>
      </trkpt>
      <trkpt lat="45.74362" lon="5.74459">
        <ele>482.9</ele>
        <time>2022-09-25T15:32:44Z</time>
      </trkpt>
      <trkpt lat="45.74363" lon="5.74463">
        <ele>482.6</ele>
        <time>2022-09-25T15:32:45Z</time>
      </trkpt>
      <trkpt lat="45.74364" lon="5.74466">
        <ele>482.4</ele>
        <time>2022-09-25T15:32:46Z</time>
      </trkpt>
      <trkpt lat="45.74365" lon="5.7447">
        <ele>482.2</ele>
        <time>2022-09-25T15:32:47Z</time>
      </trkpt>
      <trkpt lat="45.74366" lon="5.74474">
        <ele>481.9</ele>
        <time>2022-09-25T15:32:48Z</time>
      </trkpt>
      <trkpt lat="45.74368" lon="5.7448">
        <ele>481.6</ele>
        <time>2022-09-25T15:32:49Z</time>
      </trkpt>
      <trkpt lat="45.74368" lon="5.74481">
        <ele>481.5</ele>
        <time>2022-09-25T15:32:50Z</time>
      </trkpt>
      <trkpt lat="45.74369" lon="5.74485">
        <ele>481.2</ele>
        <time>2022-09-25T15:32:51Z</time>
      </trkpt>
      <trkpt lat="45.74371" lon="5.74489">
        <ele>481</ele>
        <time>2022-09-25T15:32:52Z</time>
      </trkpt>
      <trkpt lat="45.74372" lon="5.74494">
        <ele>480.6</ele>
        <time>2022-09-25T15:32:53Z</time>
      </trkpt>
      <trkpt lat="45.74373" lon="5.74496">
        <ele>480.5</ele>
        <time>2022-09-25T15:32:54Z</time>
      </trkpt>
      <trkpt lat="45.74375" lon="5.74501">
        <ele>480.1</ele>
        <time>2022-09-25T15:32:55Z</time>
      </trkpt>
      <trkpt lat="45.74376" lon="5.74503">
        <ele>480</ele>
        <time>2022-09-25T15:32:56Z</time>
      </trkpt>
      <trkpt lat="45.74378" lon="5.74508">
        <ele>479.7</ele>
        <time>2022-09-25T15:32:57Z</time>
      </trkpt>
      <trkpt lat="45.74378" lon="5.74509">
        <ele>479.6</ele>
        <time>2022-09-25T15:32:58Z</time>
      </trkpt>
      <trkpt lat="45.74379" lon="5.74512">
        <ele>479.4</ele>
        <time>2022-09-25T15:32:59Z</time>
      </trkpt>
      <trkpt lat="45.7438" lon="5.74514">
        <ele>479.3</ele>
        <time>2022-09-25T15:33:01Z</time>
      </trkpt>
      <trkpt lat="45.74381" lon="5.74517">
        <ele>479.1</ele>
        <time>2022-09-25T15:33:02Z</time>
      </trkpt>
      <trkpt lat="45.74381" lon="5.74518">
        <ele>479</ele>
        <time>2022-09-25T15:33:03Z</time>
      </trkpt>
      <trkpt lat="45.74382" lon="5.74521">
        <ele>478.8</ele>
        <time>2022-09-25T15:33:04Z</time>
      </trkpt>
      <trkpt lat="45.74382" lon="5.74522">
        <ele>478.8</ele>
        <time>2022-09-25T15:33:05Z</time>
      </trkpt>
      <trkpt lat="45.74383" lon="5.74523">
        <ele>478.7</ele>
        <time>2022-09-25T15:33:06Z</time>
      </trkpt>
      <trkpt lat="45.74383" lon="5.74524">
        <ele>478.6</ele>
        <time>2022-09-25T15:33:07Z</time>
      </trkpt>
      <trkpt lat="45.74384" lon="5.74526">
        <ele>478.5</ele>
        <time>2022-09-25T15:33:08Z</time>
      </trkpt>
      <trkpt lat="45.74384" lon="5.74527">
        <ele>478.4</ele>
        <time>2022-09-25T15:33:09Z</time>
      </trkpt>
      <trkpt lat="45.74385" lon="5.74528">
        <ele>478.3</ele>
        <time>2022-09-25T15:33:10Z</time>
      </trkpt>
      <trkpt lat="45.74385" lon="5.74529">
        <ele>478.3</ele>
        <time>2022-09-25T15:33:11Z</time>
      </trkpt>
      <trkpt lat="45.74386" lon="5.7453">
        <ele>478.2</ele>
        <time>2022-09-25T15:33:12Z</time>
      </trkpt>
      <trkpt lat="45.74386" lon="5.74531">
        <ele>478.2</ele>
        <time>2022-09-25T15:33:13Z</time>
      </trkpt>
      <trkpt lat="45.74386" lon="5.74532">
        <ele>478.1</ele>
        <time>2022-09-25T15:34:17Z</time>
      </trkpt>
      <trkpt lat="45.74387" lon="5.74533">
        <ele>478.1</ele>
        <time>2022-09-25T15:34:18Z</time>
      </trkpt>
      <trkpt lat="45.74387" lon="5.74534">
        <ele>478</ele>
        <time>2022-09-25T15:34:19Z</time>
      </trkpt>
      <trkpt lat="45.74388" lon="5.74539">
        <ele>477.8</ele>
        <time>2022-09-25T15:34:20Z</time>
      </trkpt>
      <trkpt lat="45.74388" lon="5.7454">
        <ele>477.8</ele>
        <time>2022-09-25T15:34:21Z</time>
      </trkpt>
      <trkpt lat="45.74389" lon="5.74544">
        <ele>477.6</ele>
        <time>2022-09-25T15:34:22Z</time>
      </trkpt>
      <trkpt lat="45.74389" lon="5.74545">
        <ele>477.6</ele>
        <time>2022-09-25T15:34:23Z</time>
      </trkpt>
      <trkpt lat="45.74389" lon="5.74551">
        <ele>477.3</ele>
        <time>2022-09-25T15:34:24Z</time>
      </trkpt>
      <trkpt lat="45.74389" lon="5.74553">
        <ele>477.3</ele>
        <time>2022-09-25T15:34:25Z</time>
      </trkpt>
      <trkpt lat="45.7439" lon="5.74559">
        <ele>477</ele>
        <time>2022-09-25T15:34:26Z</time>
      </trkpt>
      <trkpt lat="45.7439" lon="5.74561">
        <ele>477</ele>
        <time>2022-09-25T15:34:27Z</time>
      </trkpt>
      <trkpt lat="45.74389" lon="5.74566">
        <ele>476.8</ele>
        <time>2022-09-25T15:34:28Z</time>
      </trkpt>
      <trkpt lat="45.74389" lon="5.74568">
        <ele>476.7</ele>
        <time>2022-09-25T15:34:29Z</time>
      </trkpt>
      <trkpt lat="45.7439" lon="5.74572">
        <ele>476.5</ele>
        <time>2022-09-25T15:34:30Z</time>
      </trkpt>
      <trkpt lat="45.7439" lon="5.74575">
        <ele>476.4</ele>
        <time>2022-09-25T15:34:31Z</time>
      </trkpt>
      <trkpt lat="45.7439" lon="5.74576">
        <ele>476.3</ele>
        <time>2022-09-25T15:34:32Z</time>
      </trkpt>
      <trkpt lat="45.74389" lon="5.74575">
        <ele>476.3</ele>
        <time>2022-09-25T15:34:33Z</time>
      </trkpt>
      <trkpt lat="45.74389" lon="5.74576">
        <ele>476.3</ele>
        <time>2022-09-25T15:34:34Z</time>
      </trkpt>
      <trkpt lat="45.74389" lon="5.74576">
        <ele>476.3</ele>
        <time>2022-09-25T15:34:35Z</time>
      </trkpt>
      <trkpt lat="45.74388" lon="5.74577">
        <ele>476.2</ele>
        <time>2022-09-25T15:34:36Z</time>
      </trkpt>
      <trkpt lat="45.74388" lon="5.74577">
        <ele>476.2</ele>
        <time>2022-09-25T15:34:37Z</time>
      </trkpt>
      <trkpt lat="45.74388" lon="5.74577">
        <ele>476.2</ele>
        <time>2022-09-25T15:34:38Z</time>
      </trkpt>
      <trkpt lat="45.74387" lon="5.74578">
        <ele>476.2</ele>
        <time>2022-09-25T15:34:39Z</time>
      </trkpt>
      <trkpt lat="45.74387" lon="5.74578">
        <ele>476.1</ele>
        <time>2022-09-25T15:34:40Z</time>
      </trkpt>
      <trkpt lat="45.74386" lon="5.74578">
        <ele>476.1</ele>
        <time>2022-09-25T15:34:41Z</time>
      </trkpt>
      <trkpt lat="45.74386" lon="5.74579">
        <ele>476.1</ele>
        <time>2022-09-25T15:34:42Z</time>
      </trkpt>
      <trkpt lat="45.74386" lon="5.74579">
        <ele>476.1</ele>
        <time>2022-09-25T15:34:49Z</time>
      </trkpt>
      <trkpt lat="45.74385" lon="5.74579">
        <ele>476</ele>
        <time>2022-09-25T15:34:50Z</time>
      </trkpt>
      <trkpt lat="45.74385" lon="5.7458">
        <ele>476</ele>
        <time>2022-09-25T15:34:51Z</time>
      </trkpt>
      <trkpt lat="45.74384" lon="5.7458">
        <ele>476</ele>
        <time>2022-09-25T15:34:52Z</time>
      </trkpt>
      <trkpt lat="45.74384" lon="5.7458">
        <ele>476</ele>
        <time>2022-09-25T15:34:53Z</time>
      </trkpt>
      <trkpt lat="45.74384" lon="5.74581">
        <ele>475.9</ele>
        <time>2022-09-25T15:34:54Z</time>
      </trkpt>
      <trkpt lat="45.74383" lon="5.74581">
        <ele>475.9</ele>
        <time>2022-09-25T15:34:55Z</time>
      </trkpt>
      <trkpt lat="45.74383" lon="5.74582">
        <ele>475.9</ele>
        <time>2022-09-25T15:34:56Z</time>
      </trkpt>
      <trkpt lat="45.74383" lon="5.74582">
        <ele>475.8</ele>
        <time>2022-09-25T15:34:57Z</time>
      </trkpt>
      <trkpt lat="45.74382" lon="5.74582">
        <ele>475.8</ele>
        <time>2022-09-25T15:34:58Z</time>
      </trkpt>
      <trkpt lat="45.74382" lon="5.74583">
        <ele>475.8</ele>
        <time>2022-09-25T15:34:59Z</time>
      </trkpt>
      <trkpt lat="45.74381" lon="5.74583">
        <ele>475.8</ele>
        <time>2022-09-25T15:35:00Z</time>
      </trkpt>
      <trkpt lat="45.74381" lon="5.74583">
        <ele>475.7</ele>
        <time>2022-09-25T15:36:09Z</time>
      </trkpt>
      <trkpt lat="45.74381" lon="5.74584">
        <ele>475.7</ele>
        <time>2022-09-25T15:36:10Z</time>
      </trkpt>
      <trkpt lat="45.7438" lon="5.74584">
        <ele>475.7</ele>
        <time>2022-09-25T15:36:11Z</time>
      </trkpt>
      <trkpt lat="45.74379" lon="5.74584">
        <ele>475.6</ele>
        <time>2022-09-25T15:36:12Z</time>
      </trkpt>
      <trkpt lat="45.74379" lon="5.74584">
        <ele>475.6</ele>
        <time>2022-09-25T15:36:13Z</time>
      </trkpt>
      <trkpt lat="45.74378" lon="5.74584">
        <ele>475.5</ele>
        <time>2022-09-25T15:36:14Z</time>
      </trkpt>
      <trkpt lat="45.74378" lon="5.74583">
        <ele>475.5</ele>
        <time>2022-09-25T15:36:15Z</time>
      </trkpt>
      <trkpt lat="45.74378" lon="5.74583">
        <ele>475.5</ele>
        <time>2022-09-25T15:36:16Z</time>
      </trkpt>
      <trkpt lat="45.74378" lon="5.74584">
        <ele>475.4</ele>
        <time>2022-09-25T15:36:17Z</time>
      </trkpt>
      <trkpt lat="45.74377" lon="5.74584">
        <ele>475.4</ele>
        <time>2022-09-25T15:36:18Z</time>
      </trkpt>
      <trkpt lat="45.74377" lon="5.74583">
        <ele>475.4</ele>
        <time>2022-09-25T15:36:19Z</time>
      </trkpt>
      <trkpt lat="45.74376" lon="5.74583">
        <ele>475.3</ele>
        <time>2022-09-25T15:36:20Z</time>
      </trkpt>
      <trkpt lat="45.74376" lon="5.74583">
        <ele>475.3</ele>
        <time>2022-09-25T15:36:21Z</time>
      </trkpt>
      <trkpt lat="45.74376" lon="5.74583">
        <ele>475.3</ele>
        <time>2022-09-25T15:36:22Z</time>
      </trkpt>
      <trkpt lat="45.74375" lon="5.74583">
        <ele>475.3</ele>
        <time>2022-09-25T15:36:23Z</time>
      </trkpt>
      <trkpt lat="45.74375" lon="5.74584">
        <ele>475.3</ele>
        <time>2022-09-25T15:36:24Z</time>
      </trkpt>
      <trkpt lat="45.74374" lon="5.74584">
        <ele>475.2</ele>
        <time>2022-09-25T15:36:25Z</time>
      </trkpt>
      <trkpt lat="45.74372" lon="5.74583">
        <ele>475.1</ele>
        <time>2022-09-25T15:36:26Z</time>
      </trkpt>
      <trkpt lat="45.74372" lon="5.74583">
        <ele>475.1</ele>
        <time>2022-09-25T15:36:27Z</time>
      </trkpt>
      <trkpt lat="45.74371" lon="5.74583">
        <ele>475</ele>
        <time>2022-09-25T15:36:28Z</time>
      </trkpt>
      <trkpt lat="45.7437" lon="5.74583">
        <ele>475</ele>
        <time>2022-09-25T15:36:29Z</time>
      </trkpt>
      <trkpt lat="45.74371" lon="5.74582">
        <ele>474.9</ele>
        <time>2022-09-25T15:36:30Z</time>
      </trkpt>
      <trkpt lat="45.74372" lon="5.74581">
        <ele>474.9</ele>
        <time>2022-09-25T15:36:31Z</time>
      </trkpt>
      <trkpt lat="45.74372" lon="5.74581">
        <ele>474.8</ele>
        <time>2022-09-25T15:36:32Z</time>
      </trkpt>
      <trkpt lat="45.74373" lon="5.7458">
        <ele>474.8</ele>
        <time>2022-09-25T15:36:33Z</time>
      </trkpt>
      <trkpt lat="45.74373" lon="5.7458">
        <ele>474.8</ele>
        <time>2022-09-25T15:36:34Z</time>
      </trkpt>
      <trkpt lat="45.74374" lon="5.74579">
        <ele>474.7</ele>
        <time>2022-09-25T15:36:35Z</time>
      </trkpt>
      <trkpt lat="45.74374" lon="5.74579">
        <ele>474.7</ele>
        <time>2022-09-25T15:36:36Z</time>
      </trkpt>
      <trkpt lat="45.74375" lon="5.74578">
        <ele>474.7</ele>
        <time>2022-09-25T15:36:37Z</time>
      </trkpt>
      <trkpt lat="45.74376" lon="5.74578">
        <ele>474.6</ele>
        <time>2022-09-25T15:36:38Z</time>
      </trkpt>
      <trkpt lat="45.74376" lon="5.74577">
        <ele>474.6</ele>
        <time>2022-09-25T15:36:39Z</time>
      </trkpt>
      <trkpt lat="45.74377" lon="5.74577">
        <ele>474.6</ele>
        <time>2022-09-25T15:39:23Z</time>
      </trkpt>
      <trkpt lat="45.74377" lon="5.74577">
        <ele>474.5</ele>
        <time>2022-09-25T15:39:24Z</time>
      </trkpt>
      <trkpt lat="45.74378" lon="5.74576">
        <ele>474.5</ele>
        <time>2022-09-25T15:39:25Z</time>
      </trkpt>
      <trkpt lat="45.74378" lon="5.74576">
        <ele>474.4</ele>
        <time>2022-09-25T15:39:26Z</time>
      </trkpt>
      <trkpt lat="45.74379" lon="5.74575">
        <ele>474.4</ele>
        <time>2022-09-25T15:39:27Z</time>
      </trkpt>
      <trkpt lat="45.74379" lon="5.74575">
        <ele>474.4</ele>
        <time>2022-09-25T15:39:28Z</time>
      </trkpt>
      <trkpt lat="45.74379" lon="5.74574">
        <ele>474.3</ele>
        <time>2022-09-25T15:39:29Z</time>
      </trkpt>
      <trkpt lat="45.74379" lon="5.74574">
        <ele>474.3</ele>
        <time>2022-09-25T15:39:30Z</time>
      </trkpt>
      <trkpt lat="45.74379" lon="5.74574">
        <ele>474.3</ele>
        <time>2022-09-25T15:39:31Z</time>
      </trkpt>
      <trkpt lat="45.74379" lon="5.74574">
        <ele>474.3</ele>
        <time>2022-09-25T15:39:32Z</time>
      </trkpt>
      <trkpt lat="45.74379" lon="5.74574">
        <ele>474.3</ele>
        <time>2022-09-25T15:39:33Z</time>
      </trkpt>
      <trkpt lat="45.74379" lon="5.74574">
        <ele>474.3</ele>
        <time>2022-09-25T15:39:34Z</time>
      </trkpt>
      <trkpt lat="45.74379" lon="5.74574">
        <ele>474.3</ele>
        <time>2022-09-25T15:39:35Z</time>
      </trkpt>
      <trkpt lat="45.74379" lon="5.74574">
        <ele>474.3</ele>
        <time>2022-09-25T15:39:36Z</time>
      </trkpt>
      <trkpt lat="45.74379" lon="5.74574">
        <ele>474.3</ele>
        <time>2022-09-25T15:39:37Z</time>
      </trkpt>
      <trkpt lat="45.75719" lon="5.75982">
        <ele>315.1</ele>
        <time>2022-09-26T09:15:43Z</time>
      </trkpt>
      <trkpt lat="45.7572" lon="5.75982">
        <ele>315</ele>
        <time>2022-09-26T09:15:44Z</time>
      </trkpt>
      <trkpt lat="45.75721" lon="5.75983">
        <ele>315</ele>
        <time>2022-09-26T09:15:45Z</time>
      </trkpt>
      <trkpt lat="45.75722" lon="5.75983">
        <ele>314.9</ele>
        <time>2022-09-26T09:15:46Z</time>
      </trkpt>
      <trkpt lat="45.75723" lon="5.75983">
        <ele>314.9</ele>
        <time>2022-09-26T09:15:47Z</time>
      </trkpt>
      <trkpt lat="45.75724" lon="5.75984">
        <ele>314.9</ele>
        <time>2022-09-26T09:15:48Z</time>
      </trkpt>
      <trkpt lat="45.75725" lon="5.75984">
        <ele>314.8</ele>
        <time>2022-09-26T09:15:49Z</time>
      </trkpt>
      <trkpt lat="45.75726" lon="5.75984">
        <ele>314.8</ele>
        <time>2022-09-26T09:15:50Z</time>
      </trkpt>
      <trkpt lat="45.75727" lon="5.75985">
        <ele>314.7</ele>
        <time>2022-09-26T09:15:51Z</time>
      </trkpt>
      <trkpt lat="45.75728" lon="5.75985">
        <ele>314.7</ele>
        <time>2022-09-26T09:15:52Z</time>
      </trkpt>
      <trkpt lat="45.75729" lon="5.75985">
        <ele>314.7</ele>
        <time>2022-09-26T09:15:59Z</time>
      </trkpt>
      <trkpt lat="45.7573" lon="5.75986">
        <ele>314.6</ele>
        <time>2022-09-26T09:16:00Z</time>
      </trkpt>
      <trkpt lat="45.75731" lon="5.75986">
        <ele>314.6</ele>
        <time>2022-09-26T09:16:01Z</time>
      </trkpt>
      <trkpt lat="45.75733" lon="5.75985">
        <ele>314.4</ele>
        <time>2022-09-26T09:16:02Z</time>
      </trkpt>
      <trkpt lat="45.75736" lon="5.75985">
        <ele>314.3</ele>
        <time>2022-09-26T09:16:03Z</time>
      </trkpt>
      <trkpt lat="45.7574" lon="5.75985">
        <ele>314.1</ele>
        <time>2022-09-26T09:16:04Z</time>
      </trkpt>
      <trkpt lat="45.75743" lon="5.75985">
        <ele>313.9</ele>
        <time>2022-09-26T09:16:05Z</time>
      </trkpt>
      <trkpt lat="45.75747" lon="5.75984">
        <ele>313.7</ele>
        <time>2022-09-26T09:16:06Z</time>
      </trkpt>
      <trkpt lat="45.7575" lon="5.75984">
        <ele>313.5</ele>
        <time>2022-09-26T09:16:07Z</time>
      </trkpt>
      <trkpt lat="45.75754" lon="5.75983">
        <ele>313.3</ele>
        <time>2022-09-26T09:16:08Z</time>
      </trkpt>
      <trkpt lat="45.75757" lon="5.75982">
        <ele>313.2</ele>
        <time>2022-09-26T09:16:09Z</time>
      </trkpt>
      <trkpt lat="45.7576" lon="5.75981">
        <ele>313</ele>
        <time>2022-09-26T09:16:10Z</time>
      </trkpt>
      <trkpt lat="45.75764" lon="5.75979">
        <ele>312.9</ele>
        <time>2022-09-26T09:16:11Z</time>
      </trkpt>
      <trkpt lat="45.75768" lon="5.75978">
        <ele>312.8</ele>
        <time>2022-09-26T09:16:12Z</time>
      </trkpt>
      <trkpt lat="45.75771" lon="5.75977">
        <ele>312.6</ele>
        <time>2022-09-26T09:16:13Z</time>
      </trkpt>
      <trkpt lat="45.75774" lon="5.75975">
        <ele>312.4</ele>
        <time>2022-09-26T09:16:14Z</time>
      </trkpt>
      <trkpt lat="45.75778" lon="5.75972">
        <ele>312</ele>
        <time>2022-09-26T09:16:15Z</time>
      </trkpt>
      <trkpt lat="45.75781" lon="5.75969">
        <ele>311.7</ele>
        <time>2022-09-26T09:16:16Z</time>
      </trkpt>
      <trkpt lat="45.75785" lon="5.75966">
        <ele>311.4</ele>
        <time>2022-09-26T09:16:17Z</time>
      </trkpt>
      <trkpt lat="45.75788" lon="5.75961">
        <ele>311</ele>
        <time>2022-09-26T09:16:18Z</time>
      </trkpt>
      <trkpt lat="45.75792" lon="5.75957">
        <ele>310.7</ele>
        <time>2022-09-26T09:16:19Z</time>
      </trkpt>
      <trkpt lat="45.75796" lon="5.75952">
        <ele>310.3</ele>
        <time>2022-09-26T09:16:20Z</time>
      </trkpt>
      <trkpt lat="45.75801" lon="5.75947">
        <ele>310</ele>
        <time>2022-09-26T09:16:21Z</time>
      </trkpt>
      <trkpt lat="45.7581" lon="5.75939">
        <ele>309.3</ele>
        <time>2022-09-26T09:16:22Z</time>
      </trkpt>
      <trkpt lat="45.75814" lon="5.75935">
        <ele>309</ele>
        <time>2022-09-26T09:16:23Z</time>
      </trkpt>
      <trkpt lat="45.75819" lon="5.75931">
        <ele>308.7</ele>
        <time>2022-09-26T09:16:24Z</time>
      </trkpt>
      <trkpt lat="45.75823" lon="5.75928">
        <ele>308.4</ele>
        <time>2022-09-26T09:16:25Z</time>
      </trkpt>
      <trkpt lat="45.75825" lon="5.75924">
        <ele>308.3</ele>
        <time>2022-09-26T09:16:26Z</time>
      </trkpt>
      <trkpt lat="45.75828" lon="5.75926">
        <ele>308.1</ele>
        <time>2022-09-26T09:16:27Z</time>
      </trkpt>
      <trkpt lat="45.75832" lon="5.75925">
        <ele>307.9</ele>
        <time>2022-09-26T09:16:28Z</time>
      </trkpt>
      <trkpt lat="45.75834" lon="5.75926">
        <ele>307.7</ele>
        <time>2022-09-26T09:16:29Z</time>
      </trkpt>
      <trkpt lat="45.75839" lon="5.75927">
        <ele>307.4</ele>
        <time>2022-09-26T09:16:30Z</time>
      </trkpt>
      <trkpt lat="45.75842" lon="5.7593">
        <ele>307.1</ele>
        <time>2022-09-26T09:16:31Z</time>
      </trkpt>
      <trkpt lat="45.75845" lon="5.75929">
        <ele>306.9</ele>
        <time>2022-09-26T09:16:32Z</time>
      </trkpt>
      <trkpt lat="45.75848" lon="5.75931">
        <ele>306.7</ele>
        <time>2022-09-26T09:16:33Z</time>
      </trkpt>
      <trkpt lat="45.75851" lon="5.75931">
        <ele>306.5</ele>
        <time>2022-09-26T09:16:34Z</time>
      </trkpt>
      <trkpt lat="45.75851" lon="5.75933">
        <ele>306.4</ele>
        <time>2022-09-26T09:16:35Z</time>
      </trkpt>
      <trkpt lat="45.75852" lon="5.75933">
        <ele>306.4</ele>
        <time>2022-09-26T09:16:36Z</time>
      </trkpt>
      <trkpt lat="45.75852" lon="5.75933">
        <ele>306.3</ele>
        <time>2022-09-26T09:16:37Z</time>
      </trkpt>
      <trkpt lat="45.75853" lon="5.75933">
        <ele>306.3</ele>
        <time>2022-09-26T09:16:38Z</time>
      </trkpt>
      <trkpt lat="45.75853" lon="5.75934">
        <ele>306.3</ele>
        <time>2022-09-26T09:16:39Z</time>
      </trkpt>
      <trkpt lat="45.75854" lon="5.75934">
        <ele>306.2</ele>
        <time>2022-09-26T09:16:40Z</time>
      </trkpt>
      <trkpt lat="45.75854" lon="5.75934">
        <ele>306.2</ele>
        <time>2022-09-26T09:16:41Z</time>
      </trkpt>
      <trkpt lat="45.75855" lon="5.75934">
        <ele>306.2</ele>
        <time>2022-09-26T09:16:42Z</time>
      </trkpt>
      <trkpt lat="45.75855" lon="5.75934">
        <ele>306.1</ele>
        <time>2022-09-26T09:16:43Z</time>
      </trkpt>
      <trkpt lat="45.75856" lon="5.75935">
        <ele>306.1</ele>
        <time>2022-09-26T09:16:44Z</time>
      </trkpt>
      <trkpt lat="45.75856" lon="5.75935">
        <ele>306.1</ele>
        <time>2022-09-26T09:16:45Z</time>
      </trkpt>
      <trkpt lat="45.75857" lon="5.75935">
        <ele>306</ele>
        <time>2022-09-26T09:16:46Z</time>
      </trkpt>
      <trkpt lat="45.75858" lon="5.75935">
        <ele>306</ele>
        <time>2022-09-26T09:16:47Z</time>
      </trkpt>
      <trkpt lat="45.75858" lon="5.75935">
        <ele>305.9</ele>
        <time>2022-09-26T09:16:51Z</time>
      </trkpt>
      <trkpt lat="45.75859" lon="5.75935">
        <ele>305.9</ele>
        <time>2022-09-26T09:16:52Z</time>
      </trkpt>
      <trkpt lat="45.75861" lon="5.7594">
        <ele>305.7</ele>
        <time>2022-09-26T09:16:53Z</time>
      </trkpt>
      <trkpt lat="45.75863" lon="5.75945">
        <ele>305.5</ele>
        <time>2022-09-26T09:16:54Z</time>
      </trkpt>
      <trkpt lat="45.75866" lon="5.75949">
        <ele>305.3</ele>
        <time>2022-09-26T09:16:55Z</time>
      </trkpt>
      <trkpt lat="45.75869" lon="5.75953">
        <ele>305.1</ele>
        <time>2022-09-26T09:16:56Z</time>
      </trkpt>
      <trkpt lat="45.75873" lon="5.75958">
        <ele>304.8</ele>
        <time>2022-09-26T09:16:57Z</time>
      </trkpt>
      <trkpt lat="45.75877" lon="5.75961">
        <ele>304.6</ele>
        <time>2022-09-26T09:16:58Z</time>
      </trkpt>
      <trkpt lat="45.75881" lon="5.75966">
        <ele>304.3</ele>
        <time>2022-09-26T09:16:59Z</time>
      </trkpt>
      <trkpt lat="45.75885" lon="5.75968">
        <ele>304.1</ele>
        <time>2022-09-26T09:17:00Z</time>
      </trkpt>
      <trkpt lat="45.75889" lon="5.75973">
        <ele>303.9</ele>
        <time>2022-09-26T09:17:01Z</time>
      </trkpt>
      <trkpt lat="45.75893" lon="5.75976">
        <ele>303.7</ele>
        <time>2022-09-26T09:17:02Z</time>
      </trkpt>
      <trkpt lat="45.75897" lon="5.7598">
        <ele>303.4</ele>
        <time>2022-09-26T09:17:03Z</time>
      </trkpt>
      <trkpt lat="45.75901" lon="5.75983">
        <ele>303.2</ele>
        <time>2022-09-26T09:17:04Z</time>
      </trkpt>
      <trkpt lat="45.75905" lon="5.75985">
        <ele>303</ele>
        <time>2022-09-26T09:17:05Z</time>
      </trkpt>
      <trkpt lat="45.75908" lon="5.75989">
        <ele>302.8</ele>
        <time>2022-09-26T09:17:06Z</time>
      </trkpt>
      <trkpt lat="45.75912" lon="5.75993">
        <ele>302.5</ele>
        <time>2022-09-26T09:17:07Z</time>
      </trkpt>
      <trkpt lat="45.75915" lon="5.75997">
        <ele>302.3</ele>
        <time>2022-09-26T09:17:08Z</time>
      </trkpt>
      <trkpt lat="45.75918" lon="5.76001">
        <ele>302.1</ele>
        <time>2022-09-26T09:17:09Z</time>
      </trkpt>
      <trkpt lat="45.75921" lon="5.76005">
        <ele>301.9</ele>
        <time>2022-09-26T09:17:10Z</time>
      </trkpt>
      <trkpt lat="45.75923" lon="5.76011">
        <ele>301.6</ele>
        <time>2022-09-26T09:17:11Z</time>
      </trkpt>
      <trkpt lat="45.75925" lon="5.76017">
        <ele>301.4</ele>
        <time>2022-09-26T09:17:12Z</time>
      </trkpt>
      <trkpt lat="45.75926" lon="5.76023">
        <ele>301.1</ele>
        <time>2022-09-26T09:17:13Z</time>
      </trkpt>
      <trkpt lat="45.75926" lon="5.7603">
        <ele>300.9</ele>
        <time>2022-09-26T09:17:14Z</time>
      </trkpt>
      <trkpt lat="45.75927" lon="5.76036">
        <ele>300.6</ele>
        <time>2022-09-26T09:17:15Z</time>
      </trkpt>
      <trkpt lat="45.75927" lon="5.76042">
        <ele>300.4</ele>
        <time>2022-09-26T09:17:16Z</time>
      </trkpt>
      <trkpt lat="45.75926" lon="5.76049">
        <ele>300.1</ele>
        <time>2022-09-26T09:17:17Z</time>
      </trkpt>
      <trkpt lat="45.75925" lon="5.76056">
        <ele>299.8</ele>
        <time>2022-09-26T09:17:18Z</time>
      </trkpt>
      <trkpt lat="45.75924" lon="5.76063">
        <ele>299.6</ele>
        <time>2022-09-26T09:17:19Z</time>
      </trkpt>
      <trkpt lat="45.75924" lon="5.76071">
        <ele>299.3</ele>
        <time>2022-09-26T09:17:20Z</time>
      </trkpt>
      <trkpt lat="45.75922" lon="5.76079">
        <ele>299.1</ele>
        <time>2022-09-26T09:17:21Z</time>
      </trkpt>
      <trkpt lat="45.75921" lon="5.76085">
        <ele>298.9</ele>
        <time>2022-09-26T09:17:22Z</time>
      </trkpt>
      <trkpt lat="45.7592" lon="5.76092">
        <ele>298.7</ele>
        <time>2022-09-26T09:17:24Z</time>
      </trkpt>
      <trkpt lat="45.75919" lon="5.76099">
        <ele>298.5</ele>
        <time>2022-09-26T09:17:25Z</time>
      </trkpt>
      <trkpt lat="45.75918" lon="5.76107">
        <ele>298.3</ele>
        <time>2022-09-26T09:17:26Z</time>
      </trkpt>
      <trkpt lat="45.75916" lon="5.76114">
        <ele>298.1</ele>
        <time>2022-09-26T09:17:27Z</time>
      </trkpt>
      <trkpt lat="45.75915" lon="5.76121">
        <ele>298</ele>
        <time>2022-09-26T09:17:28Z</time>
      </trkpt>
      <trkpt lat="45.75914" lon="5.76129">
        <ele>297.9</ele>
        <time>2022-09-26T09:17:29Z</time>
      </trkpt>
      <trkpt lat="45.75913" lon="5.76136">
        <ele>297.7</ele>
        <time>2022-09-26T09:17:30Z</time>
      </trkpt>
      <trkpt lat="45.75912" lon="5.76144">
        <ele>297.6</ele>
        <time>2022-09-26T09:17:31Z</time>
      </trkpt>
      <trkpt lat="45.75911" lon="5.76152">
        <ele>297.5</ele>
        <time>2022-09-26T09:17:32Z</time>
      </trkpt>
      <trkpt lat="45.75909" lon="5.76159">
        <ele>297.3</ele>
        <time>2022-09-26T09:17:33Z</time>
      </trkpt>
      <trkpt lat="45.75909" lon="5.76166">
        <ele>297.2</ele>
        <time>2022-09-26T09:17:34Z</time>
      </trkpt>
      <trkpt lat="45.75908" lon="5.76173">
        <ele>297</ele>
        <time>2022-09-26T09:17:35Z</time>
      </trkpt>
      <trkpt lat="45.75907" lon="5.7618">
        <ele>296.8</ele>
        <time>2022-09-26T09:17:36Z</time>
      </trkpt>
      <trkpt lat="45.75907" lon="5.76188">
        <ele>296.7</ele>
        <time>2022-09-26T09:17:37Z</time>
      </trkpt>
      <trkpt lat="45.75906" lon="5.76195">
        <ele>296.5</ele>
        <time>2022-09-26T09:17:38Z</time>
      </trkpt>
      <trkpt lat="45.75905" lon="5.76202">
        <ele>296.3</ele>
        <time>2022-09-26T09:17:39Z</time>
      </trkpt>
      <trkpt lat="45.75905" lon="5.76208">
        <ele>296.1</ele>
        <time>2022-09-26T09:17:40Z</time>
      </trkpt>
      <trkpt lat="45.75904" lon="5.76215">
        <ele>295.9</ele>
        <time>2022-09-26T09:17:41Z</time>
      </trkpt>
      <trkpt lat="45.75903" lon="5.76222">
        <ele>295.6</ele>
        <time>2022-09-26T09:17:42Z</time>
      </trkpt>
      <trkpt lat="45.75903" lon="5.76229">
        <ele>295.3</ele>
        <time>2022-09-26T09:17:43Z</time>
      </trkpt>
      <trkpt lat="45.75902" lon="5.76236">
        <ele>295</ele>
        <time>2022-09-26T09:17:44Z</time>
      </trkpt>
      <trkpt lat="45.75904" lon="5.7625">
        <ele>294.4</ele>
        <time>2022-09-26T09:17:45Z</time>
      </trkpt>
      <trkpt lat="45.75904" lon="5.76258">
        <ele>294.1</ele>
        <time>2022-09-26T09:17:46Z</time>
      </trkpt>
      <trkpt lat="45.75906" lon="5.76263">
        <ele>293.8</ele>
        <time>2022-09-26T09:17:47Z</time>
      </trkpt>
      <trkpt lat="45.75908" lon="5.76271">
        <ele>293.5</ele>
        <time>2022-09-26T09:17:48Z</time>
      </trkpt>
      <trkpt lat="45.75911" lon="5.76276">
        <ele>293.3</ele>
        <time>2022-09-26T09:17:49Z</time>
      </trkpt>
      <trkpt lat="45.75914" lon="5.76282">
        <ele>293</ele>
        <time>2022-09-26T09:17:50Z</time>
      </trkpt>
      <trkpt lat="45.75917" lon="5.76287">
        <ele>292.8</ele>
        <time>2022-09-26T09:17:51Z</time>
      </trkpt>
      <trkpt lat="45.75919" lon="5.76292">
        <ele>292.6</ele>
        <time>2022-09-26T09:17:52Z</time>
      </trkpt>
      <trkpt lat="45.75922" lon="5.76295">
        <ele>292.4</ele>
        <time>2022-09-26T09:17:53Z</time>
      </trkpt>
      <trkpt lat="45.75925" lon="5.763">
        <ele>292.2</ele>
        <time>2022-09-26T09:17:54Z</time>
      </trkpt>
      <trkpt lat="45.75927" lon="5.76305">
        <ele>292</ele>
        <time>2022-09-26T09:17:55Z</time>
      </trkpt>
      <trkpt lat="45.7593" lon="5.76308">
        <ele>291.8</ele>
        <time>2022-09-26T09:17:56Z</time>
      </trkpt>
      <trkpt lat="45.75934" lon="5.76313">
        <ele>291.5</ele>
        <time>2022-09-26T09:17:57Z</time>
      </trkpt>
      <trkpt lat="45.75937" lon="5.76318">
        <ele>291.3</ele>
        <time>2022-09-26T09:17:58Z</time>
      </trkpt>
      <trkpt lat="45.7594" lon="5.76322">
        <ele>291</ele>
        <time>2022-09-26T09:17:59Z</time>
      </trkpt>
      <trkpt lat="45.75945" lon="5.76325">
        <ele>290.7</ele>
        <time>2022-09-26T09:18:00Z</time>
      </trkpt>
      <trkpt lat="45.7595" lon="5.76326">
        <ele>290.3</ele>
        <time>2022-09-26T09:18:01Z</time>
      </trkpt>
      <trkpt lat="45.75954" lon="5.76327">
        <ele>290</ele>
        <time>2022-09-26T09:18:02Z</time>
      </trkpt>
      <trkpt lat="45.75958" lon="5.7633">
        <ele>289.7</ele>
        <time>2022-09-26T09:18:03Z</time>
      </trkpt>
      <trkpt lat="45.75962" lon="5.76334">
        <ele>289.3</ele>
        <time>2022-09-26T09:18:04Z</time>
      </trkpt>
      <trkpt lat="45.75966" lon="5.76337">
        <ele>289</ele>
        <time>2022-09-26T09:18:05Z</time>
      </trkpt>
      <trkpt lat="45.7597" lon="5.76339">
        <ele>288.7</ele>
        <time>2022-09-26T09:18:06Z</time>
      </trkpt>
      <trkpt lat="45.75974" lon="5.7634">
        <ele>288.4</ele>
        <time>2022-09-26T09:18:07Z</time>
      </trkpt>
      <trkpt lat="45.75978" lon="5.76341">
        <ele>288</ele>
        <time>2022-09-26T09:18:08Z</time>
      </trkpt>
      <trkpt lat="45.75983" lon="5.76343">
        <ele>287.7</ele>
        <time>2022-09-26T09:18:09Z</time>
      </trkpt>
      <trkpt lat="45.75988" lon="5.76345">
        <ele>287.3</ele>
        <time>2022-09-26T09:18:10Z</time>
      </trkpt>
      <trkpt lat="45.75993" lon="5.76346">
        <ele>286.9</ele>
        <time>2022-09-26T09:18:11Z</time>
      </trkpt>
      <trkpt lat="45.75998" lon="5.76347">
        <ele>286.5</ele>
        <time>2022-09-26T09:18:12Z</time>
      </trkpt>
      <trkpt lat="45.76004" lon="5.76348">
        <ele>286.1</ele>
        <time>2022-09-26T09:18:13Z</time>
      </trkpt>
      <trkpt lat="45.7601" lon="5.76349">
        <ele>285.6</ele>
        <time>2022-09-26T09:18:14Z</time>
      </trkpt>
      <trkpt lat="45.76016" lon="5.7635">
        <ele>285.1</ele>
        <time>2022-09-26T09:18:15Z</time>
      </trkpt>
      <trkpt lat="45.76023" lon="5.76351">
        <ele>284.7</ele>
        <time>2022-09-26T09:18:16Z</time>
      </trkpt>
      <trkpt lat="45.76028" lon="5.76352">
        <ele>284.3</ele>
        <time>2022-09-26T09:18:17Z</time>
      </trkpt>
      <trkpt lat="45.76034" lon="5.76352">
        <ele>283.8</ele>
        <time>2022-09-26T09:18:18Z</time>
      </trkpt>
      <trkpt lat="45.76039" lon="5.76353">
        <ele>283.3</ele>
        <time>2022-09-26T09:18:19Z</time>
      </trkpt>
      <trkpt lat="45.76045" lon="5.76353">
        <ele>282.9</ele>
        <time>2022-09-26T09:18:20Z</time>
      </trkpt>
      <trkpt lat="45.76052" lon="5.76352">
        <ele>282.4</ele>
        <time>2022-09-26T09:18:21Z</time>
      </trkpt>
      <trkpt lat="45.76058" lon="5.76352">
        <ele>281.9</ele>
        <time>2022-09-26T09:18:22Z</time>
      </trkpt>
      <trkpt lat="45.76064" lon="5.76351">
        <ele>281.4</ele>
        <time>2022-09-26T09:18:23Z</time>
      </trkpt>
      <trkpt lat="45.7607" lon="5.7635">
        <ele>280.9</ele>
        <time>2022-09-26T09:18:24Z</time>
      </trkpt>
      <trkpt lat="45.76076" lon="5.76348">
        <ele>280.4</ele>
        <time>2022-09-26T09:18:25Z</time>
      </trkpt>
      <trkpt lat="45.76082" lon="5.76346">
        <ele>279.9</ele>
        <time>2022-09-26T09:18:26Z</time>
      </trkpt>
      <trkpt lat="45.76087" lon="5.76345">
        <ele>279.5</ele>
        <time>2022-09-26T09:18:27Z</time>
      </trkpt>
      <trkpt lat="45.76092" lon="5.76345">
        <ele>279.1</ele>
        <time>2022-09-26T09:18:28Z</time>
      </trkpt>
      <trkpt lat="45.76097" lon="5.76341">
        <ele>278.6</ele>
        <time>2022-09-26T09:18:29Z</time>
      </trkpt>
      <trkpt lat="45.76102" lon="5.76339">
        <ele>278.1</ele>
        <time>2022-09-26T09:18:30Z</time>
      </trkpt>
      <trkpt lat="45.76107" lon="5.76336">
        <ele>277.7</ele>
        <time>2022-09-26T09:18:31Z</time>
      </trkpt>
      <trkpt lat="45.76113" lon="5.76334">
        <ele>277.2</ele>
        <time>2022-09-26T09:18:32Z</time>
      </trkpt>
      <trkpt lat="45.76118" lon="5.7633">
        <ele>276.7</ele>
        <time>2022-09-26T09:18:33Z</time>
      </trkpt>
      <trkpt lat="45.76122" lon="5.76326">
        <ele>276.3</ele>
        <time>2022-09-26T09:18:34Z</time>
      </trkpt>
      <trkpt lat="45.76127" lon="5.76323">
        <ele>275.8</ele>
        <time>2022-09-26T09:18:35Z</time>
      </trkpt>
      <trkpt lat="45.76132" lon="5.76321">
        <ele>275.5</ele>
        <time>2022-09-26T09:18:36Z</time>
      </trkpt>
      <trkpt lat="45.76136" lon="5.76316">
        <ele>275</ele>
        <time>2022-09-26T09:18:37Z</time>
      </trkpt>
      <trkpt lat="45.76141" lon="5.76313">
        <ele>274.5</ele>
        <time>2022-09-26T09:18:38Z</time>
      </trkpt>
      <trkpt lat="45.76147" lon="5.7631">
        <ele>274</ele>
        <time>2022-09-26T09:18:39Z</time>
      </trkpt>
      <trkpt lat="45.76153" lon="5.76305">
        <ele>273.5</ele>
        <time>2022-09-26T09:18:40Z</time>
      </trkpt>
      <trkpt lat="45.76159" lon="5.763">
        <ele>273.1</ele>
        <time>2022-09-26T09:18:41Z</time>
      </trkpt>
      <trkpt lat="45.76163" lon="5.76296">
        <ele>272.7</ele>
        <time>2022-09-26T09:18:42Z</time>
      </trkpt>
      <trkpt lat="45.76168" lon="5.76292">
        <ele>272.3</ele>
        <time>2022-09-26T09:18:43Z</time>
      </trkpt>
      <trkpt lat="45.76173" lon="5.76288">
        <ele>271.9</ele>
        <time>2022-09-26T09:18:44Z</time>
      </trkpt>
      <trkpt lat="45.76178" lon="5.76283">
        <ele>271.5</ele>
        <time>2022-09-26T09:18:45Z</time>
      </trkpt>
      <trkpt lat="45.76182" lon="5.76279">
        <ele>271.1</ele>
        <time>2022-09-26T09:18:46Z</time>
      </trkpt>
      <trkpt lat="45.76187" lon="5.76274">
        <ele>270.7</ele>
        <time>2022-09-26T09:18:47Z</time>
      </trkpt>
      <trkpt lat="45.76192" lon="5.76269">
        <ele>270.2</ele>
        <time>2022-09-26T09:18:48Z</time>
      </trkpt>
      <trkpt lat="45.76196" lon="5.76264">
        <ele>269.8</ele>
        <time>2022-09-26T09:18:49Z</time>
      </trkpt>
      <trkpt lat="45.762" lon="5.76259">
        <ele>269.4</ele>
        <time>2022-09-26T09:18:50Z</time>
      </trkpt>
      <trkpt lat="45.76204" lon="5.76254">
        <ele>269</ele>
        <time>2022-09-26T09:18:51Z</time>
      </trkpt>
      <trkpt lat="45.76208" lon="5.76248">
        <ele>268.6</ele>
        <time>2022-09-26T09:18:52Z</time>
      </trkpt>
      <trkpt lat="45.76212" lon="5.76242">
        <ele>268.2</ele>
        <time>2022-09-26T09:18:53Z</time>
      </trkpt>
      <trkpt lat="45.76215" lon="5.76236">
        <ele>267.8</ele>
        <time>2022-09-26T09:18:54Z</time>
      </trkpt>
      <trkpt lat="45.76218" lon="5.76232">
        <ele>267.5</ele>
        <time>2022-09-26T09:18:55Z</time>
      </trkpt>
      <trkpt lat="45.76221" lon="5.76226">
        <ele>267.1</ele>
        <time>2022-09-26T09:18:56Z</time>
      </trkpt>
      <trkpt lat="45.76226" lon="5.76221">
        <ele>266.7</ele>
        <time>2022-09-26T09:18:57Z</time>
      </trkpt>
      <trkpt lat="45.76229" lon="5.76217">
        <ele>266.4</ele>
        <time>2022-09-26T09:18:58Z</time>
      </trkpt>
      <trkpt lat="45.76233" lon="5.76214">
        <ele>266</ele>
        <time>2022-09-26T09:18:59Z</time>
      </trkpt>
      <trkpt lat="45.76237" lon="5.76212">
        <ele>265.7</ele>
        <time>2022-09-26T09:19:00Z</time>
      </trkpt>
      <trkpt lat="45.7624" lon="5.76209">
        <ele>265.4</ele>
        <time>2022-09-26T09:19:01Z</time>
      </trkpt>
      <trkpt lat="45.76244" lon="5.76209">
        <ele>265.1</ele>
        <time>2022-09-26T09:19:02Z</time>
      </trkpt>
      <trkpt lat="45.76248" lon="5.7621">
        <ele>264.8</ele>
        <time>2022-09-26T09:19:03Z</time>
      </trkpt>
      <trkpt lat="45.76251" lon="5.76212">
        <ele>264.5</ele>
        <time>2022-09-26T09:19:04Z</time>
      </trkpt>
      <trkpt lat="45.76255" lon="5.76215">
        <ele>264.2</ele>
        <time>2022-09-26T09:19:05Z</time>
      </trkpt>
      <trkpt lat="45.76257" lon="5.7622">
        <ele>263.9</ele>
        <time>2022-09-26T09:19:06Z</time>
      </trkpt>
      <trkpt lat="45.76259" lon="5.76225">
        <ele>263.5</ele>
        <time>2022-09-26T09:19:07Z</time>
      </trkpt>
      <trkpt lat="45.76261" lon="5.76229">
        <ele>263.3</ele>
        <time>2022-09-26T09:19:08Z</time>
      </trkpt>
      <trkpt lat="45.76261" lon="5.76235">
        <ele>262.9</ele>
        <time>2022-09-26T09:19:09Z</time>
      </trkpt>
      <trkpt lat="45.76261" lon="5.76241">
        <ele>262.6</ele>
        <time>2022-09-26T09:19:10Z</time>
      </trkpt>
      <trkpt lat="45.7626" lon="5.76247">
        <ele>262.3</ele>
        <time>2022-09-26T09:19:11Z</time>
      </trkpt>
      <trkpt lat="45.76258" lon="5.76253">
        <ele>262</ele>
        <time>2022-09-26T09:19:12Z</time>
      </trkpt>
      <trkpt lat="45.76257" lon="5.76259">
        <ele>261.7</ele>
        <time>2022-09-26T09:19:13Z</time>
      </trkpt>
      <trkpt lat="45.76255" lon="5.76264">
        <ele>261.4</ele>
        <time>2022-09-26T09:19:14Z</time>
      </trkpt>
      <trkpt lat="45.76254" lon="5.7627">
        <ele>261.1</ele>
        <time>2022-09-26T09:19:15Z</time>
      </trkpt>
      <trkpt lat="45.76254" lon="5.76276">
        <ele>260.7</ele>
        <time>2022-09-26T09:19:16Z</time>
      </trkpt>
      <trkpt lat="45.76255" lon="5.76282">
        <ele>260.4</ele>
        <time>2022-09-26T09:19:17Z</time>
      </trkpt>
      <trkpt lat="45.76256" lon="5.76286">
        <ele>260.1</ele>
        <time>2022-09-26T09:19:18Z</time>
      </trkpt>
      <trkpt lat="45.76259" lon="5.76291">
        <ele>259.7</ele>
        <time>2022-09-26T09:19:19Z</time>
      </trkpt>
      <trkpt lat="45.76262" lon="5.76295">
        <ele>259.4</ele>
        <time>2022-09-26T09:19:20Z</time>
      </trkpt>
      <trkpt lat="45.76265" lon="5.76296">
        <ele>259.2</ele>
        <time>2022-09-26T09:19:21Z</time>
      </trkpt>
      <trkpt lat="45.76268" lon="5.76299">
        <ele>258.9</ele>
        <time>2022-09-26T09:19:22Z</time>
      </trkpt>
      <trkpt lat="45.76273" lon="5.76301">
        <ele>258.5</ele>
        <time>2022-09-26T09:19:23Z</time>
      </trkpt>
      <trkpt lat="45.76277" lon="5.763">
        <ele>258.3</ele>
        <time>2022-09-26T09:19:24Z</time>
      </trkpt>
      <trkpt lat="45.76282" lon="5.763">
        <ele>258</ele>
        <time>2022-09-26T09:19:25Z</time>
      </trkpt>
      <trkpt lat="45.76287" lon="5.763">
        <ele>257.7</ele>
        <time>2022-09-26T09:19:26Z</time>
      </trkpt>
      <trkpt lat="45.76292" lon="5.763">
        <ele>257.4</ele>
        <time>2022-09-26T09:19:27Z</time>
      </trkpt>
      <trkpt lat="45.76296" lon="5.763">
        <ele>257.2</ele>
        <time>2022-09-26T09:19:28Z</time>
      </trkpt>
      <trkpt lat="45.76301" lon="5.763">
        <ele>257</ele>
        <time>2022-09-26T09:19:30Z</time>
      </trkpt>
      <trkpt lat="45.76305" lon="5.76298">
        <ele>256.9</ele>
        <time>2022-09-26T09:19:31Z</time>
      </trkpt>
      <trkpt lat="45.7631" lon="5.763">
        <ele>256.7</ele>
        <time>2022-09-26T09:19:32Z</time>
      </trkpt>
      <trkpt lat="45.76314" lon="5.763">
        <ele>256.6</ele>
        <time>2022-09-26T09:19:33Z</time>
      </trkpt>
      <trkpt lat="45.76317" lon="5.76299">
        <ele>256.5</ele>
        <time>2022-09-26T09:19:34Z</time>
      </trkpt>
      <trkpt lat="45.76321" lon="5.76299">
        <ele>256.5</ele>
        <time>2022-09-26T09:19:35Z</time>
      </trkpt>
      <trkpt lat="45.76325" lon="5.76297">
        <ele>256.5</ele>
        <time>2022-09-26T09:19:36Z</time>
      </trkpt>
      <trkpt lat="45.76327" lon="5.76297">
        <ele>256.5</ele>
        <time>2022-09-26T09:19:37Z</time>
      </trkpt>
      <trkpt lat="45.76329" lon="5.76297">
        <ele>256.5</ele>
        <time>2022-09-26T09:19:38Z</time>
      </trkpt>
      <trkpt lat="45.7633" lon="5.76298">
        <ele>256.5</ele>
        <time>2022-09-26T09:19:39Z</time>
      </trkpt>
      <trkpt lat="45.76331" lon="5.76298">
        <ele>256.5</ele>
        <time>2022-09-26T09:19:40Z</time>
      </trkpt>
      <trkpt lat="45.76331" lon="5.76298">
        <ele>256.5</ele>
        <time>2022-09-26T09:19:41Z</time>
      </trkpt>
      <trkpt lat="45.76332" lon="5.76298">
        <ele>255.9</ele>
        <time>2022-09-26T09:19:42Z</time>
      </trkpt>
      <trkpt lat="45.76332" lon="5.76298">
        <ele>255.9</ele>
        <time>2022-09-26T09:19:43Z</time>
      </trkpt>
      <trkpt lat="45.76333" lon="5.76298">
        <ele>255.9</ele>
        <time>2022-09-26T09:19:44Z</time>
      </trkpt>
      <trkpt lat="45.76333" lon="5.76298">
        <ele>255.8</ele>
        <time>2022-09-26T09:19:45Z</time>
      </trkpt>
      <trkpt lat="45.76334" lon="5.76298">
        <ele>255.8</ele>
        <time>2022-09-26T09:19:46Z</time>
      </trkpt>
      <trkpt lat="45.76335" lon="5.76298">
        <ele>255.7</ele>
        <time>2022-09-26T09:19:47Z</time>
      </trkpt>
      <trkpt lat="45.76335" lon="5.76298">
        <ele>255.7</ele>
        <time>2022-09-26T09:19:48Z</time>
      </trkpt>
      <trkpt lat="45.76336" lon="5.76298">
        <ele>255.7</ele>
        <time>2022-09-26T09:20:10Z</time>
      </trkpt>
      <trkpt lat="45.76336" lon="5.76298">
        <ele>255.6</ele>
        <time>2022-09-26T09:20:11Z</time>
      </trkpt>
      <trkpt lat="45.76337" lon="5.76298">
        <ele>255.6</ele>
        <time>2022-09-26T09:20:12Z</time>
      </trkpt>
      <trkpt lat="45.7634" lon="5.76302">
        <ele>255.4</ele>
        <time>2022-09-26T09:20:13Z</time>
      </trkpt>
      <trkpt lat="45.76343" lon="5.76306">
        <ele>255.1</ele>
        <time>2022-09-26T09:20:14Z</time>
      </trkpt>
      <trkpt lat="45.76345" lon="5.76312">
        <ele>254.9</ele>
        <time>2022-09-26T09:20:15Z</time>
      </trkpt>
      <trkpt lat="45.76347" lon="5.76317">
        <ele>254.7</ele>
        <time>2022-09-26T09:20:16Z</time>
      </trkpt>
      <trkpt lat="45.76349" lon="5.76322">
        <ele>254.5</ele>
        <time>2022-09-26T09:20:17Z</time>
      </trkpt>
      <trkpt lat="45.7635" lon="5.76326">
        <ele>254.3</ele>
        <time>2022-09-26T09:20:18Z</time>
      </trkpt>
      <trkpt lat="45.76351" lon="5.76329">
        <ele>254.2</ele>
        <time>2022-09-26T09:20:19Z</time>
      </trkpt>
      <trkpt lat="45.76353" lon="5.76333">
        <ele>254</ele>
        <time>2022-09-26T09:20:20Z</time>
      </trkpt>
      <trkpt lat="45.76354" lon="5.76333">
        <ele>253.9</ele>
        <time>2022-09-26T09:20:21Z</time>
      </trkpt>
      <trkpt lat="45.76357" lon="5.76334">
        <ele>253.9</ele>
        <time>2022-09-26T09:20:22Z</time>
      </trkpt>
      <trkpt lat="45.76359" lon="5.76334">
        <ele>253.9</ele>
        <time>2022-09-26T09:20:23Z</time>
      </trkpt>
      <trkpt lat="45.76362" lon="5.76332">
        <ele>253.9</ele>
        <time>2022-09-26T09:20:24Z</time>
      </trkpt>
      <trkpt lat="45.76365" lon="5.7633">
        <ele>253.8</ele>
        <time>2022-09-26T09:20:25Z</time>
      </trkpt>
      <trkpt lat="45.76368" lon="5.76326">
        <ele>253.8</ele>
        <time>2022-09-26T09:20:26Z</time>
      </trkpt>
      <trkpt lat="45.76371" lon="5.76323">
        <ele>253.8</ele>
        <time>2022-09-26T09:20:27Z</time>
      </trkpt>
      <trkpt lat="45.76374" lon="5.7632">
        <ele>253.7</ele>
        <time>2022-09-26T09:20:28Z</time>
      </trkpt>
      <trkpt lat="45.76382" lon="5.76314">
        <ele>253.7</ele>
        <time>2022-09-26T09:20:29Z</time>
      </trkpt>
      <trkpt lat="45.76385" lon="5.76311">
        <ele>253.6</ele>
        <time>2022-09-26T09:20:30Z</time>
      </trkpt>
      <trkpt lat="45.76388" lon="5.76307">
        <ele>253.6</ele>
        <time>2022-09-26T09:20:31Z</time>
      </trkpt>
      <trkpt lat="45.76392" lon="5.76304">
        <ele>253.6</ele>
        <time>2022-09-26T09:20:32Z</time>
      </trkpt>
      <trkpt lat="45.76396" lon="5.76301">
        <ele>253.5</ele>
        <time>2022-09-26T09:20:33Z</time>
      </trkpt>
      <trkpt lat="45.764" lon="5.76297">
        <ele>253.5</ele>
        <time>2022-09-26T09:20:34Z</time>
      </trkpt>
      <trkpt lat="45.76404" lon="5.76294">
        <ele>253.5</ele>
        <time>2022-09-26T09:20:35Z</time>
      </trkpt>
      <trkpt lat="45.76408" lon="5.76291">
        <ele>253.4</ele>
        <time>2022-09-26T09:20:36Z</time>
      </trkpt>
      <trkpt lat="45.76413" lon="5.76288">
        <ele>253.4</ele>
        <time>2022-09-26T09:20:37Z</time>
      </trkpt>
      <trkpt lat="45.76417" lon="5.76285">
        <ele>253.4</ele>
        <time>2022-09-26T09:20:38Z</time>
      </trkpt>
      <trkpt lat="45.76421" lon="5.76281">
        <ele>253.3</ele>
        <time>2022-09-26T09:20:39Z</time>
      </trkpt>
      <trkpt lat="45.76425" lon="5.76277">
        <ele>253.3</ele>
        <time>2022-09-26T09:20:40Z</time>
      </trkpt>
      <trkpt lat="45.76429" lon="5.76273">
        <ele>253.2</ele>
        <time>2022-09-26T09:20:41Z</time>
      </trkpt>
      <trkpt lat="45.76433" lon="5.7627">
        <ele>253.2</ele>
        <time>2022-09-26T09:20:42Z</time>
      </trkpt>
      <trkpt lat="45.76436" lon="5.76266">
        <ele>253.1</ele>
        <time>2022-09-26T09:20:43Z</time>
      </trkpt>
      <trkpt lat="45.7644" lon="5.76263">
        <ele>253</ele>
        <time>2022-09-26T09:20:44Z</time>
      </trkpt>
      <trkpt lat="45.76444" lon="5.7626">
        <ele>253</ele>
        <time>2022-09-26T09:20:45Z</time>
      </trkpt>
      <trkpt lat="45.76447" lon="5.76256">
        <ele>252.9</ele>
        <time>2022-09-26T09:20:46Z</time>
      </trkpt>
      <trkpt lat="45.7645" lon="5.76253">
        <ele>252.8</ele>
        <time>2022-09-26T09:20:47Z</time>
      </trkpt>
      <trkpt lat="45.76454" lon="5.7625">
        <ele>252.7</ele>
        <time>2022-09-26T09:20:48Z</time>
      </trkpt>
      <trkpt lat="45.76457" lon="5.76249">
        <ele>252.6</ele>
        <time>2022-09-26T09:20:49Z</time>
      </trkpt>
      <trkpt lat="45.7646" lon="5.76249">
        <ele>252.5</ele>
        <time>2022-09-26T09:20:50Z</time>
      </trkpt>
      <trkpt lat="45.76463" lon="5.76251">
        <ele>251.6</ele>
        <time>2022-09-26T09:20:51Z</time>
      </trkpt>
      <trkpt lat="45.76466" lon="5.76254">
        <ele>251.5</ele>
        <time>2022-09-26T09:20:52Z</time>
      </trkpt>
      <trkpt lat="45.76468" lon="5.76259">
        <ele>251.3</ele>
        <time>2022-09-26T09:20:53Z</time>
      </trkpt>
      <trkpt lat="45.76469" lon="5.76262">
        <ele>251.1</ele>
        <time>2022-09-26T09:20:54Z</time>
      </trkpt>
      <trkpt lat="45.76469" lon="5.76268">
        <ele>251</ele>
        <time>2022-09-26T09:20:55Z</time>
      </trkpt>
      <trkpt lat="45.76469" lon="5.76274">
        <ele>250.8</ele>
        <time>2022-09-26T09:20:56Z</time>
      </trkpt>
      <trkpt lat="45.76469" lon="5.7628">
        <ele>250.7</ele>
        <time>2022-09-26T09:20:57Z</time>
      </trkpt>
      <trkpt lat="45.76468" lon="5.76286">
        <ele>250.5</ele>
        <time>2022-09-26T09:20:58Z</time>
      </trkpt>
      <trkpt lat="45.76468" lon="5.76293">
        <ele>250.4</ele>
        <time>2022-09-26T09:20:59Z</time>
      </trkpt>
      <trkpt lat="45.76467" lon="5.763">
        <ele>250.2</ele>
        <time>2022-09-26T09:21:00Z</time>
      </trkpt>
      <trkpt lat="45.76467" lon="5.76308">
        <ele>250.1</ele>
        <time>2022-09-26T09:21:01Z</time>
      </trkpt>
      <trkpt lat="45.76466" lon="5.76316">
        <ele>250</ele>
        <time>2022-09-26T09:21:02Z</time>
      </trkpt>
      <trkpt lat="45.76466" lon="5.76323">
        <ele>249.9</ele>
        <time>2022-09-26T09:21:03Z</time>
      </trkpt>
      <trkpt lat="45.76465" lon="5.76331">
        <ele>249.8</ele>
        <time>2022-09-26T09:21:04Z</time>
      </trkpt>
      <trkpt lat="45.76464" lon="5.76339">
        <ele>249.7</ele>
        <time>2022-09-26T09:21:05Z</time>
      </trkpt>
      <trkpt lat="45.76463" lon="5.76347">
        <ele>249.6</ele>
        <time>2022-09-26T09:21:06Z</time>
      </trkpt>
      <trkpt lat="45.76463" lon="5.76354">
        <ele>249.5</ele>
        <time>2022-09-26T09:21:07Z</time>
      </trkpt>
      <trkpt lat="45.76462" lon="5.76361">
        <ele>249.4</ele>
        <time>2022-09-26T09:21:08Z</time>
      </trkpt>
      <trkpt lat="45.76461" lon="5.76369">
        <ele>249.4</ele>
        <time>2022-09-26T09:21:09Z</time>
      </trkpt>
      <trkpt lat="45.7646" lon="5.76373">
        <ele>249.3</ele>
        <time>2022-09-26T09:21:10Z</time>
      </trkpt>
      <trkpt lat="45.7646" lon="5.76377">
        <ele>249.3</ele>
        <time>2022-09-26T09:21:11Z</time>
      </trkpt>
      <trkpt lat="45.76462" lon="5.76377">
        <ele>248.9</ele>
        <time>2022-09-26T09:21:12Z</time>
      </trkpt>
      <trkpt lat="45.76464" lon="5.7638">
        <ele>248.6</ele>
        <time>2022-09-26T09:21:13Z</time>
      </trkpt>
      <trkpt lat="45.76468" lon="5.76381">
        <ele>248.2</ele>
        <time>2022-09-26T09:21:14Z</time>
      </trkpt>
      <trkpt lat="45.7647" lon="5.76381">
        <ele>248</ele>
        <time>2022-09-26T09:21:15Z</time>
      </trkpt>
      <trkpt lat="45.76473" lon="5.7638">
        <ele>247.6</ele>
        <time>2022-09-26T09:21:16Z</time>
      </trkpt>
      <trkpt lat="45.76479" lon="5.76381">
        <ele>247.1</ele>
        <time>2022-09-26T09:21:17Z</time>
      </trkpt>
      <trkpt lat="45.76484" lon="5.76381">
        <ele>246.5</ele>
        <time>2022-09-26T09:21:18Z</time>
      </trkpt>
      <trkpt lat="45.7649" lon="5.7638">
        <ele>245.9</ele>
        <time>2022-09-26T09:21:19Z</time>
      </trkpt>
      <trkpt lat="45.76496" lon="5.76379">
        <ele>245.4</ele>
        <time>2022-09-26T09:21:20Z</time>
      </trkpt>
      <trkpt lat="45.76501" lon="5.7638">
        <ele>245</ele>
        <time>2022-09-26T09:21:21Z</time>
      </trkpt>
      <trkpt lat="45.76506" lon="5.76379">
        <ele>244.6</ele>
        <time>2022-09-26T09:21:22Z</time>
      </trkpt>
      <trkpt lat="45.76511" lon="5.76379">
        <ele>244.2</ele>
        <time>2022-09-26T09:21:23Z</time>
      </trkpt>
      <trkpt lat="45.76516" lon="5.76378">
        <ele>243.8</ele>
        <time>2022-09-26T09:21:24Z</time>
      </trkpt>
      <trkpt lat="45.76521" lon="5.76378">
        <ele>243.5</ele>
        <time>2022-09-26T09:21:25Z</time>
      </trkpt>
      <trkpt lat="45.76525" lon="5.76378">
        <ele>243.2</ele>
        <time>2022-09-26T09:21:26Z</time>
      </trkpt>
      <trkpt lat="45.76528" lon="5.76377">
        <ele>242.9</ele>
        <time>2022-09-26T09:21:27Z</time>
      </trkpt>
      <trkpt lat="45.76532" lon="5.76376">
        <ele>242.6</ele>
        <time>2022-09-26T09:21:28Z</time>
      </trkpt>
      <trkpt lat="45.76535" lon="5.76377">
        <ele>242.4</ele>
        <time>2022-09-26T09:21:29Z</time>
      </trkpt>
      <trkpt lat="45.76537" lon="5.76377">
        <ele>242.3</ele>
        <time>2022-09-26T09:21:30Z</time>
      </trkpt>
      <trkpt lat="45.76541" lon="5.76377">
        <ele>242</ele>
        <time>2022-09-26T09:21:31Z</time>
      </trkpt>
      <trkpt lat="45.76545" lon="5.76377">
        <ele>241.7</ele>
        <time>2022-09-26T09:21:32Z</time>
      </trkpt>
      <trkpt lat="45.7655" lon="5.76377">
        <ele>241.4</ele>
        <time>2022-09-26T09:21:33Z</time>
      </trkpt>
      <trkpt lat="45.76555" lon="5.76377">
        <ele>241</ele>
        <time>2022-09-26T09:21:34Z</time>
      </trkpt>
      <trkpt lat="45.7656" lon="5.76378">
        <ele>240.7</ele>
        <time>2022-09-26T09:21:36Z</time>
      </trkpt>
      <trkpt lat="45.76565" lon="5.76378">
        <ele>240.4</ele>
        <time>2022-09-26T09:21:37Z</time>
      </trkpt>
      <trkpt lat="45.7657" lon="5.76378">
        <ele>240.1</ele>
        <time>2022-09-26T09:21:38Z</time>
      </trkpt>
      <trkpt lat="45.76575" lon="5.76378">
        <ele>239.9</ele>
        <time>2022-09-26T09:21:39Z</time>
      </trkpt>
      <trkpt lat="45.76579" lon="5.76376">
        <ele>239.7</ele>
        <time>2022-09-26T09:21:40Z</time>
      </trkpt>
      <trkpt lat="45.76582" lon="5.76374">
        <ele>239.5</ele>
        <time>2022-09-26T09:21:41Z</time>
      </trkpt>
      <trkpt lat="45.76586" lon="5.7637">
        <ele>239.3</ele>
        <time>2022-09-26T09:21:42Z</time>
      </trkpt>
      <trkpt lat="45.76588" lon="5.76365">
        <ele>239.2</ele>
        <time>2022-09-26T09:21:43Z</time>
      </trkpt>
      <trkpt lat="45.76589" lon="5.76361">
        <ele>239.1</ele>
        <time>2022-09-26T09:21:44Z</time>
      </trkpt>
      <trkpt lat="45.76591" lon="5.76356">
        <ele>239</ele>
        <time>2022-09-26T09:21:45Z</time>
      </trkpt>
      <trkpt lat="45.76592" lon="5.7635">
        <ele>238.9</ele>
        <time>2022-09-26T09:21:46Z</time>
      </trkpt>
      <trkpt lat="45.76592" lon="5.76345">
        <ele>238.8</ele>
        <time>2022-09-26T09:21:47Z</time>
      </trkpt>
      <trkpt lat="45.76593" lon="5.76341">
        <ele>238.7</ele>
        <time>2022-09-26T09:21:48Z</time>
      </trkpt>
      <trkpt lat="45.76593" lon="5.76336">
        <ele>238.6</ele>
        <time>2022-09-26T09:21:49Z</time>
      </trkpt>
      <trkpt lat="45.76593" lon="5.76334">
        <ele>238.6</ele>
        <time>2022-09-26T09:21:50Z</time>
      </trkpt>
      <trkpt lat="45.76592" lon="5.76329">
        <ele>238.6</ele>
        <time>2022-09-26T09:21:51Z</time>
      </trkpt>
      <trkpt lat="45.76592" lon="5.76325">
        <ele>238.5</ele>
        <time>2022-09-26T09:21:52Z</time>
      </trkpt>
      <trkpt lat="45.76591" lon="5.76321">
        <ele>238.5</ele>
        <time>2022-09-26T09:21:53Z</time>
      </trkpt>
      <trkpt lat="45.76591" lon="5.76317">
        <ele>238.4</ele>
        <time>2022-09-26T09:21:54Z</time>
      </trkpt>
      <trkpt lat="45.76591" lon="5.76312">
        <ele>238.4</ele>
        <time>2022-09-26T09:21:55Z</time>
      </trkpt>
      <trkpt lat="45.7659" lon="5.76308">
        <ele>238.4</ele>
        <time>2022-09-26T09:21:56Z</time>
      </trkpt>
      <trkpt lat="45.76589" lon="5.76307">
        <ele>238.3</ele>
        <time>2022-09-26T09:21:57Z</time>
      </trkpt>
      <trkpt lat="45.76589" lon="5.76305">
        <ele>238.3</ele>
        <time>2022-09-26T09:21:58Z</time>
      </trkpt>
      <trkpt lat="45.76589" lon="5.76302">
        <ele>238.3</ele>
        <time>2022-09-26T09:21:59Z</time>
      </trkpt>
      <trkpt lat="45.76588" lon="5.76301">
        <ele>238.3</ele>
        <time>2022-09-26T09:22:00Z</time>
      </trkpt>
      <trkpt lat="45.76586" lon="5.76299">
        <ele>238.3</ele>
        <time>2022-09-26T09:22:01Z</time>
      </trkpt>
      <trkpt lat="45.76583" lon="5.76299">
        <ele>238.3</ele>
        <time>2022-09-26T09:22:02Z</time>
      </trkpt>
      <trkpt lat="45.76582" lon="5.76299">
        <ele>238.3</ele>
        <time>2022-09-26T09:22:03Z</time>
      </trkpt>
      <trkpt lat="45.76579" lon="5.76299">
        <ele>238.3</ele>
        <time>2022-09-26T09:22:04Z</time>
      </trkpt>
      <trkpt lat="45.76578" lon="5.76299">
        <ele>238.3</ele>
        <time>2022-09-26T09:22:05Z</time>
      </trkpt>
      <trkpt lat="45.76577" lon="5.76299">
        <ele>238.3</ele>
        <time>2022-09-26T09:22:06Z</time>
      </trkpt>
      <trkpt lat="45.76577" lon="5.76299">
        <ele>238.3</ele>
        <time>2022-09-26T09:22:07Z</time>
      </trkpt>
      <trkpt lat="45.76578" lon="5.76299">
        <ele>238.3</ele>
        <time>2022-09-26T09:22:08Z</time>
      </trkpt>
      <trkpt lat="45.76578" lon="5.76298">
        <ele>238.3</ele>
        <time>2022-09-26T09:22:09Z</time>
      </trkpt>
      <trkpt lat="45.76579" lon="5.76298">
        <ele>238.3</ele>
        <time>2022-09-26T09:22:10Z</time>
      </trkpt>
      <trkpt lat="45.76579" lon="5.76298">
        <ele>238.3</ele>
        <time>2022-09-26T09:22:11Z</time>
      </trkpt>
      <trkpt lat="45.76579" lon="5.76298">
        <ele>238.3</ele>
        <time>2022-09-26T09:22:12Z</time>
      </trkpt>
      <trkpt lat="45.7658" lon="5.76298">
        <ele>238.3</ele>
        <time>2022-09-26T09:22:13Z</time>
      </trkpt>
      <trkpt lat="45.7658" lon="5.76297">
        <ele>238.3</ele>
        <time>2022-09-26T09:22:14Z</time>
      </trkpt>
      <trkpt lat="45.76581" lon="5.76297">
        <ele>238.3</ele>
        <time>2022-09-26T09:22:15Z</time>
      </trkpt>
      <trkpt lat="45.76581" lon="5.76297">
        <ele>238.3</ele>
        <time>2022-09-26T09:29:02Z</time>
      </trkpt>
      <trkpt lat="45.76581" lon="5.76297">
        <ele>238.3</ele>
        <time>2022-09-26T09:29:03Z</time>
      </trkpt>
      <trkpt lat="45.76582" lon="5.76297">
        <ele>238.3</ele>
        <time>2022-09-26T09:29:04Z</time>
      </trkpt>
      <trkpt lat="45.76582" lon="5.76297">
        <ele>238.3</ele>
        <time>2022-09-26T09:29:05Z</time>
      </trkpt>
      <trkpt lat="45.76582" lon="5.76297">
        <ele>238.3</ele>
        <time>2022-09-26T09:29:06Z</time>
      </trkpt>
      <trkpt lat="45.76583" lon="5.76299">
        <ele>238.3</ele>
        <time>2022-09-26T09:29:07Z</time>
      </trkpt>
      <trkpt lat="45.76583" lon="5.763">
        <ele>238.3</ele>
        <time>2022-09-26T09:29:08Z</time>
      </trkpt>
      <trkpt lat="45.76584" lon="5.76301">
        <ele>238.3</ele>
        <time>2022-09-26T09:29:09Z</time>
      </trkpt>
      <trkpt lat="45.76584" lon="5.76301">
        <ele>238.3</ele>
        <time>2022-09-26T09:29:10Z</time>
      </trkpt>
      <trkpt lat="45.76584" lon="5.76302">
        <ele>238.3</ele>
        <time>2022-09-26T09:29:11Z</time>
      </trkpt>
      <trkpt lat="45.76585" lon="5.76303">
        <ele>238.3</ele>
        <time>2022-09-26T09:29:12Z</time>
      </trkpt>
      <trkpt lat="45.76585" lon="5.76304">
        <ele>238.3</ele>
        <time>2022-09-26T09:29:13Z</time>
      </trkpt>
      <trkpt lat="45.76585" lon="5.76305">
        <ele>238.3</ele>
        <time>2022-09-26T09:29:14Z</time>
      </trkpt>
      <trkpt lat="45.76586" lon="5.76305">
        <ele>238.3</ele>
        <time>2022-09-26T09:29:15Z</time>
      </trkpt>
      <trkpt lat="45.76586" lon="5.76306">
        <ele>238.3</ele>
        <time>2022-09-26T09:29:16Z</time>
      </trkpt>
      <trkpt lat="45.76586" lon="5.76307">
        <ele>238.3</ele>
        <time>2022-09-26T09:29:17Z</time>
      </trkpt>
      <trkpt lat="45.76587" lon="5.76308">
        <ele>238.3</ele>
        <time>2022-09-26T09:29:18Z</time>
      </trkpt>
      <trkpt lat="45.76587" lon="5.76309">
        <ele>238.3</ele>
        <time>2022-09-26T09:29:21Z</time>
      </trkpt>
      <trkpt lat="45.76587" lon="5.76309">
        <ele>238.4</ele>
        <time>2022-09-26T09:29:22Z</time>
      </trkpt>
      <trkpt lat="45.76588" lon="5.76314">
        <ele>238.4</ele>
        <time>2022-09-26T09:29:23Z</time>
      </trkpt>
      <trkpt lat="45.76588" lon="5.76318">
        <ele>238.4</ele>
        <time>2022-09-26T09:29:24Z</time>
      </trkpt>
      <trkpt lat="45.76589" lon="5.76322">
        <ele>238.5</ele>
        <time>2022-09-26T09:29:25Z</time>
      </trkpt>
      <trkpt lat="45.76589" lon="5.76327">
        <ele>238.5</ele>
        <time>2022-09-26T09:29:26Z</time>
      </trkpt>
      <trkpt lat="45.76589" lon="5.76331">
        <ele>238.6</ele>
        <time>2022-09-26T09:29:27Z</time>
      </trkpt>
      <trkpt lat="45.76589" lon="5.76336">
        <ele>238.6</ele>
        <time>2022-09-26T09:29:28Z</time>
      </trkpt>
      <trkpt lat="45.76589" lon="5.76341">
        <ele>238.7</ele>
        <time>2022-09-26T09:29:29Z</time>
      </trkpt>
      <trkpt lat="45.76589" lon="5.76346">
        <ele>238.8</ele>
        <time>2022-09-26T09:29:30Z</time>
      </trkpt>
      <trkpt lat="45.76588" lon="5.76351">
        <ele>238.9</ele>
        <time>2022-09-26T09:29:31Z</time>
      </trkpt>
      <trkpt lat="45.76587" lon="5.76355">
        <ele>239</ele>
        <time>2022-09-26T09:29:32Z</time>
      </trkpt>
      <trkpt lat="45.76587" lon="5.7636">
        <ele>239.1</ele>
        <time>2022-09-26T09:29:33Z</time>
      </trkpt>
      <trkpt lat="45.76587" lon="5.76364">
        <ele>239.2</ele>
        <time>2022-09-26T09:29:34Z</time>
      </trkpt>
      <trkpt lat="45.76586" lon="5.76368">
        <ele>239.3</ele>
        <time>2022-09-26T09:29:35Z</time>
      </trkpt>
      <trkpt lat="45.76585" lon="5.76372">
        <ele>239.4</ele>
        <time>2022-09-26T09:29:36Z</time>
      </trkpt>
      <trkpt lat="45.76586" lon="5.76377">
        <ele>239.5</ele>
        <time>2022-09-26T09:29:37Z</time>
      </trkpt>
      <trkpt lat="45.76585" lon="5.76382">
        <ele>239.7</ele>
        <time>2022-09-26T09:29:38Z</time>
      </trkpt>
      <trkpt lat="45.76585" lon="5.76385">
        <ele>239.8</ele>
        <time>2022-09-26T09:29:39Z</time>
      </trkpt>
      <trkpt lat="45.76585" lon="5.76389">
        <ele>239.9</ele>
        <time>2022-09-26T09:29:40Z</time>
      </trkpt>
      <trkpt lat="45.76586" lon="5.76393">
        <ele>240.1</ele>
        <time>2022-09-26T09:29:41Z</time>
      </trkpt>
      <trkpt lat="45.76587" lon="5.76397">
        <ele>240.2</ele>
        <time>2022-09-26T09:29:42Z</time>
      </trkpt>
      <trkpt lat="45.76588" lon="5.76401">
        <ele>240.4</ele>
        <time>2022-09-26T09:29:43Z</time>
      </trkpt>
      <trkpt lat="45.76589" lon="5.76405">
        <ele>240.5</ele>
        <time>2022-09-26T09:29:44Z</time>
      </trkpt>
      <trkpt lat="45.7659" lon="5.76409">
        <ele>240.7</ele>
        <time>2022-09-26T09:29:45Z</time>
      </trkpt>
      <trkpt lat="45.76592" lon="5.76412">
        <ele>240.9</ele>
        <time>2022-09-26T09:29:46Z</time>
      </trkpt>
      <trkpt lat="45.76594" lon="5.76416">
        <ele>241</ele>
        <time>2022-09-26T09:29:47Z</time>
      </trkpt>
      <trkpt lat="45.76596" lon="5.76418">
        <ele>241.2</ele>
        <time>2022-09-26T09:29:48Z</time>
      </trkpt>
      <trkpt lat="45.76598" lon="5.76422">
        <ele>241.3</ele>
        <time>2022-09-26T09:29:49Z</time>
      </trkpt>
      <trkpt lat="45.766" lon="5.76426">
        <ele>241.5</ele>
        <time>2022-09-26T09:29:50Z</time>
      </trkpt>
      <trkpt lat="45.76602" lon="5.76429">
        <ele>241.7</ele>
        <time>2022-09-26T09:29:51Z</time>
      </trkpt>
      <trkpt lat="45.76604" lon="5.76432">
        <ele>241.9</ele>
        <time>2022-09-26T09:29:52Z</time>
      </trkpt>
      <trkpt lat="45.76606" lon="5.76435">
        <ele>242</ele>
        <time>2022-09-26T09:29:53Z</time>
      </trkpt>
      <trkpt lat="45.76608" lon="5.7644">
        <ele>242.3</ele>
        <time>2022-09-26T09:29:54Z</time>
      </trkpt>
      <trkpt lat="45.76608" lon="5.76441">
        <ele>242.3</ele>
        <time>2022-09-26T09:29:55Z</time>
      </trkpt>
      <trkpt lat="45.7661" lon="5.76445">
        <ele>242.5</ele>
        <time>2022-09-26T09:29:56Z</time>
      </trkpt>
      <trkpt lat="45.76611" lon="5.76446">
        <ele>242.5</ele>
        <time>2022-09-26T09:29:57Z</time>
      </trkpt>
      <trkpt lat="45.76613" lon="5.76449">
        <ele>242.7</ele>
        <time>2022-09-26T09:29:58Z</time>
      </trkpt>
      <trkpt lat="45.76614" lon="5.76451">
        <ele>242.8</ele>
        <time>2022-09-26T09:30:00Z</time>
      </trkpt>
      <trkpt lat="45.76615" lon="5.76452">
        <ele>242.8</ele>
        <time>2022-09-26T09:30:01Z</time>
      </trkpt>
      <trkpt lat="45.76616" lon="5.76454">
        <ele>242.9</ele>
        <time>2022-09-26T09:30:02Z</time>
      </trkpt>
      <trkpt lat="45.76618" lon="5.76456">
        <ele>243</ele>
        <time>2022-09-26T09:30:03Z</time>
      </trkpt>
      <trkpt lat="45.76619" lon="5.76457">
        <ele>243.1</ele>
        <time>2022-09-26T09:30:04Z</time>
      </trkpt>
      <trkpt lat="45.7662" lon="5.7646">
        <ele>243.2</ele>
        <time>2022-09-26T09:30:05Z</time>
      </trkpt>
      <trkpt lat="45.76621" lon="5.76462">
        <ele>243.3</ele>
        <time>2022-09-26T09:30:06Z</time>
      </trkpt>
      <trkpt lat="45.76623" lon="5.76465">
        <ele>243.4</ele>
        <time>2022-09-26T09:30:07Z</time>
      </trkpt>
      <trkpt lat="45.76623" lon="5.76466">
        <ele>243.4</ele>
        <time>2022-09-26T09:30:08Z</time>
      </trkpt>
      <trkpt lat="45.76625" lon="5.7647">
        <ele>243.5</ele>
        <time>2022-09-26T09:30:09Z</time>
      </trkpt>
      <trkpt lat="45.76625" lon="5.76471">
        <ele>243.6</ele>
        <time>2022-09-26T09:30:10Z</time>
      </trkpt>
      <trkpt lat="45.76628" lon="5.76475">
        <ele>243.7</ele>
        <time>2022-09-26T09:30:11Z</time>
      </trkpt>
      <trkpt lat="45.76628" lon="5.76476">
        <ele>243.7</ele>
        <time>2022-09-26T09:30:12Z</time>
      </trkpt>
      <trkpt lat="45.7663" lon="5.7648">
        <ele>243.8</ele>
        <time>2022-09-26T09:30:13Z</time>
      </trkpt>
      <trkpt lat="45.76631" lon="5.76481">
        <ele>243.8</ele>
        <time>2022-09-26T09:30:14Z</time>
      </trkpt>
      <trkpt lat="45.76632" lon="5.76482">
        <ele>243.9</ele>
        <time>2022-09-26T09:30:15Z</time>
      </trkpt>
      <trkpt lat="45.76633" lon="5.76484">
        <ele>243.9</ele>
        <time>2022-09-26T09:30:16Z</time>
      </trkpt>
      <trkpt lat="45.76636" lon="5.76486">
        <ele>244</ele>
        <time>2022-09-26T09:30:17Z</time>
      </trkpt>
      <trkpt lat="45.76636" lon="5.76487">
        <ele>244.1</ele>
        <time>2022-09-26T09:30:18Z</time>
      </trkpt>
      <trkpt lat="45.76639" lon="5.76491">
        <ele>244.2</ele>
        <time>2022-09-26T09:30:19Z</time>
      </trkpt>
      <trkpt lat="45.7664" lon="5.76492">
        <ele>244.2</ele>
        <time>2022-09-26T09:30:20Z</time>
      </trkpt>
      <trkpt lat="45.76642" lon="5.76496">
        <ele>244.3</ele>
        <time>2022-09-26T09:30:21Z</time>
      </trkpt>
      <trkpt lat="45.76643" lon="5.76497">
        <ele>244.3</ele>
        <time>2022-09-26T09:30:22Z</time>
      </trkpt>
      <trkpt lat="45.76644" lon="5.76499">
        <ele>244.4</ele>
        <time>2022-09-26T09:30:23Z</time>
      </trkpt>
      <trkpt lat="45.76645" lon="5.765">
        <ele>244.4</ele>
        <time>2022-09-26T09:30:24Z</time>
      </trkpt>
      <trkpt lat="45.76647" lon="5.76502">
        <ele>244.5</ele>
        <time>2022-09-26T09:30:25Z</time>
      </trkpt>
      <trkpt lat="45.76647" lon="5.76503">
        <ele>244.5</ele>
        <time>2022-09-26T09:30:26Z</time>
      </trkpt>
      <trkpt lat="45.76647" lon="5.76503">
        <ele>244.5</ele>
        <time>2022-09-26T09:30:27Z</time>
      </trkpt>
      <trkpt lat="45.76648" lon="5.76504">
        <ele>244.5</ele>
        <time>2022-09-26T09:30:28Z</time>
      </trkpt>
      <trkpt lat="45.76648" lon="5.76504">
        <ele>244.5</ele>
        <time>2022-09-26T09:30:29Z</time>
      </trkpt>
      <trkpt lat="45.76648" lon="5.76505">
        <ele>244.5</ele>
        <time>2022-09-26T09:30:30Z</time>
      </trkpt>
      <trkpt lat="45.76649" lon="5.76506">
        <ele>244.5</ele>
        <time>2022-09-26T09:30:31Z</time>
      </trkpt>
      <trkpt lat="45.76649" lon="5.76506">
        <ele>244.6</ele>
        <time>2022-09-26T09:30:32Z</time>
      </trkpt>
      <trkpt lat="45.76649" lon="5.76507">
        <ele>244.6</ele>
        <time>2022-09-26T09:30:33Z</time>
      </trkpt>
      <trkpt lat="45.7665" lon="5.76508">
        <ele>244.6</ele>
        <time>2022-09-26T09:30:34Z</time>
      </trkpt>
      <trkpt lat="45.7665" lon="5.76508">
        <ele>244.6</ele>
        <time>2022-09-26T09:30:35Z</time>
      </trkpt>
      <trkpt lat="45.76651" lon="5.76509">
        <ele>244.6</ele>
        <time>2022-09-26T09:30:36Z</time>
      </trkpt>
      <trkpt lat="45.76651" lon="5.7651">
        <ele>244.6</ele>
        <time>2022-09-26T09:30:37Z</time>
      </trkpt>
      <trkpt lat="45.76651" lon="5.76511">
        <ele>244.6</ele>
        <time>2022-09-26T09:30:38Z</time>
      </trkpt>
      <trkpt lat="45.76652" lon="5.76511">
        <ele>244.7</ele>
        <time>2022-09-26T09:30:39Z</time>
      </trkpt>
      <trkpt lat="45.76652" lon="5.76512">
        <ele>244.7</ele>
        <time>2022-09-26T09:30:40Z</time>
      </trkpt>
      <trkpt lat="45.76653" lon="5.76513">
        <ele>244.7</ele>
        <time>2022-09-26T09:30:41Z</time>
      </trkpt>
      <trkpt lat="45.76653" lon="5.76513">
        <ele>244.7</ele>
        <time>2022-09-26T09:30:42Z</time>
      </trkpt>
      <trkpt lat="45.76653" lon="5.76514">
        <ele>244.7</ele>
        <time>2022-09-26T09:30:50Z</time>
      </trkpt>
      <trkpt lat="45.76654" lon="5.76515">
        <ele>244.7</ele>
        <time>2022-09-26T09:30:51Z</time>
      </trkpt>
      <trkpt lat="45.76654" lon="5.76515">
        <ele>244.7</ele>
        <time>2022-09-26T09:30:52Z</time>
      </trkpt>
      <trkpt lat="45.76655" lon="5.76516">
        <ele>244.7</ele>
        <time>2022-09-26T09:30:53Z</time>
      </trkpt>
      <trkpt lat="45.76655" lon="5.76517">
        <ele>244.8</ele>
        <time>2022-09-26T09:30:54Z</time>
      </trkpt>
      <trkpt lat="45.76655" lon="5.76518">
        <ele>244.8</ele>
        <time>2022-09-26T09:30:55Z</time>
      </trkpt>
      <trkpt lat="45.76656" lon="5.76518">
        <ele>244.8</ele>
        <time>2022-09-26T09:30:56Z</time>
      </trkpt>
      <trkpt lat="45.76656" lon="5.76519">
        <ele>244.8</ele>
        <time>2022-09-26T09:30:57Z</time>
      </trkpt>
      <trkpt lat="45.76656" lon="5.7652">
        <ele>244.8</ele>
        <time>2022-09-26T09:30:58Z</time>
      </trkpt>
      <trkpt lat="45.76657" lon="5.7652">
        <ele>244.8</ele>
        <time>2022-09-26T09:30:59Z</time>
      </trkpt>
      <trkpt lat="45.76657" lon="5.76521">
        <ele>244.8</ele>
        <time>2022-09-26T09:31:00Z</time>
      </trkpt>
      <trkpt lat="45.76658" lon="5.76522">
        <ele>244.8</ele>
        <time>2022-09-26T09:31:04Z</time>
      </trkpt>
      <trkpt lat="45.76658" lon="5.76522">
        <ele>244.8</ele>
        <time>2022-09-26T09:31:05Z</time>
      </trkpt>
      <trkpt lat="45.76658" lon="5.76523">
        <ele>244.8</ele>
        <time>2022-09-26T09:31:06Z</time>
      </trkpt>
      <trkpt lat="45.76659" lon="5.76524">
        <ele>244.9</ele>
        <time>2022-09-26T09:31:07Z</time>
      </trkpt>
      <trkpt lat="45.76659" lon="5.76525">
        <ele>244.9</ele>
        <time>2022-09-26T09:31:08Z</time>
      </trkpt>
      <trkpt lat="45.7666" lon="5.76525">
        <ele>244.9</ele>
        <time>2022-09-26T09:31:09Z</time>
      </trkpt>
      <trkpt lat="45.7666" lon="5.76526">
        <ele>244.9</ele>
        <time>2022-09-26T09:31:10Z</time>
      </trkpt>
      <trkpt lat="45.7666" lon="5.76527">
        <ele>244.9</ele>
        <time>2022-09-26T09:31:11Z</time>
      </trkpt>
      <trkpt lat="45.76661" lon="5.76527">
        <ele>244.9</ele>
        <time>2022-09-26T09:31:12Z</time>
      </trkpt>
      <trkpt lat="45.76661" lon="5.76528">
        <ele>244.9</ele>
        <time>2022-09-26T09:31:13Z</time>
      </trkpt>
      <trkpt lat="45.76662" lon="5.76529">
        <ele>244.9</ele>
        <time>2022-09-26T09:31:28Z</time>
      </trkpt>
      <trkpt lat="45.76662" lon="5.76529">
        <ele>244.9</ele>
        <time>2022-09-26T09:31:29Z</time>
      </trkpt>
      <trkpt lat="45.76665" lon="5.76533">
        <ele>245</ele>
        <time>2022-09-26T09:31:30Z</time>
      </trkpt>
      <trkpt lat="45.76666" lon="5.76534">
        <ele>245</ele>
        <time>2022-09-26T09:31:31Z</time>
      </trkpt>
      <trkpt lat="45.76668" lon="5.76538">
        <ele>245</ele>
        <time>2022-09-26T09:31:32Z</time>
      </trkpt>
      <trkpt lat="45.76668" lon="5.76539">
        <ele>245.1</ele>
        <time>2022-09-26T09:31:33Z</time>
      </trkpt>
      <trkpt lat="45.7667" lon="5.76542">
        <ele>245.1</ele>
        <time>2022-09-26T09:31:34Z</time>
      </trkpt>
      <trkpt lat="45.76672" lon="5.76545">
        <ele>245.1</ele>
        <time>2022-09-26T09:31:35Z</time>
      </trkpt>
      <trkpt lat="45.76674" lon="5.76549">
        <ele>245.2</ele>
        <time>2022-09-26T09:31:36Z</time>
      </trkpt>
      <trkpt lat="45.76676" lon="5.76552">
        <ele>245.2</ele>
        <time>2022-09-26T09:31:37Z</time>
      </trkpt>
      <trkpt lat="45.76678" lon="5.76556">
        <ele>245.2</ele>
        <time>2022-09-26T09:31:38Z</time>
      </trkpt>
      <trkpt lat="45.7668" lon="5.7656">
        <ele>245.3</ele>
        <time>2022-09-26T09:31:39Z</time>
      </trkpt>
      <trkpt lat="45.76682" lon="5.76563">
        <ele>245.3</ele>
        <time>2022-09-26T09:31:40Z</time>
      </trkpt>
      <trkpt lat="45.76684" lon="5.76566">
        <ele>245.4</ele>
        <time>2022-09-26T09:31:41Z</time>
      </trkpt>
      <trkpt lat="45.76686" lon="5.7657">
        <ele>245.5</ele>
        <time>2022-09-26T09:31:42Z</time>
      </trkpt>
      <trkpt lat="45.76687" lon="5.76574">
        <ele>245.5</ele>
        <time>2022-09-26T09:31:43Z</time>
      </trkpt>
      <trkpt lat="45.76689" lon="5.76579">
        <ele>245.6</ele>
        <time>2022-09-26T09:31:44Z</time>
      </trkpt>
      <trkpt lat="45.76689" lon="5.76581">
        <ele>245.6</ele>
        <time>2022-09-26T09:31:45Z</time>
      </trkpt>
      <trkpt lat="45.7669" lon="5.76587">
        <ele>245.7</ele>
        <time>2022-09-26T09:31:46Z</time>
      </trkpt>
      <trkpt lat="45.7669" lon="5.76589">
        <ele>245.7</ele>
        <time>2022-09-26T09:31:47Z</time>
      </trkpt>
      <trkpt lat="45.76691" lon="5.76593">
        <ele>245.7</ele>
        <time>2022-09-26T09:31:48Z</time>
      </trkpt>
      <trkpt lat="45.76692" lon="5.76595">
        <ele>245.7</ele>
        <time>2022-09-26T09:31:49Z</time>
      </trkpt>
      <trkpt lat="45.76693" lon="5.76599">
        <ele>245.8</ele>
        <time>2022-09-26T09:31:50Z</time>
      </trkpt>
      <trkpt lat="45.76694" lon="5.76604">
        <ele>245.8</ele>
        <time>2022-09-26T09:31:51Z</time>
      </trkpt>
      <trkpt lat="45.76695" lon="5.76608">
        <ele>245.8</ele>
        <time>2022-09-26T09:31:52Z</time>
      </trkpt>
      <trkpt lat="45.76696" lon="5.76613">
        <ele>245.8</ele>
        <time>2022-09-26T09:31:53Z</time>
      </trkpt>
      <trkpt lat="45.76697" lon="5.76617">
        <ele>245.8</ele>
        <time>2022-09-26T09:31:54Z</time>
      </trkpt>
      <trkpt lat="45.76699" lon="5.76621">
        <ele>245.9</ele>
        <time>2022-09-26T09:31:55Z</time>
      </trkpt>
      <trkpt lat="45.76701" lon="5.76625">
        <ele>245.9</ele>
        <time>2022-09-26T09:31:56Z</time>
      </trkpt>
      <trkpt lat="45.76702" lon="5.7663">
        <ele>245.9</ele>
        <time>2022-09-26T09:31:57Z</time>
      </trkpt>
      <trkpt lat="45.76704" lon="5.76635">
        <ele>245.9</ele>
        <time>2022-09-26T09:31:58Z</time>
      </trkpt>
      <trkpt lat="45.76705" lon="5.76639">
        <ele>245.9</ele>
        <time>2022-09-26T09:31:59Z</time>
      </trkpt>
      <trkpt lat="45.76707" lon="5.76644">
        <ele>245.9</ele>
        <time>2022-09-26T09:32:00Z</time>
      </trkpt>
      <trkpt lat="45.76708" lon="5.76649">
        <ele>246</ele>
        <time>2022-09-26T09:32:01Z</time>
      </trkpt>
      <trkpt lat="45.7671" lon="5.76655">
        <ele>246</ele>
        <time>2022-09-26T09:32:02Z</time>
      </trkpt>
      <trkpt lat="45.76711" lon="5.76659">
        <ele>246</ele>
        <time>2022-09-26T09:32:03Z</time>
      </trkpt>
      <trkpt lat="45.76713" lon="5.76664">
        <ele>246</ele>
        <time>2022-09-26T09:32:04Z</time>
      </trkpt>
      <trkpt lat="45.76714" lon="5.76669">
        <ele>246.1</ele>
        <time>2022-09-26T09:32:06Z</time>
      </trkpt>
      <trkpt lat="45.76715" lon="5.76674">
        <ele>246.1</ele>
        <time>2022-09-26T09:32:07Z</time>
      </trkpt>
      <trkpt lat="45.76716" lon="5.76678">
        <ele>246.1</ele>
        <time>2022-09-26T09:32:08Z</time>
      </trkpt>
      <trkpt lat="45.76717" lon="5.76683">
        <ele>246.1</ele>
        <time>2022-09-26T09:32:09Z</time>
      </trkpt>
      <trkpt lat="45.76718" lon="5.76688">
        <ele>246.1</ele>
        <time>2022-09-26T09:32:10Z</time>
      </trkpt>
      <trkpt lat="45.76719" lon="5.76693">
        <ele>246</ele>
        <time>2022-09-26T09:32:11Z</time>
      </trkpt>
      <trkpt lat="45.76721" lon="5.76697">
        <ele>246</ele>
        <time>2022-09-26T09:32:12Z</time>
      </trkpt>
      <trkpt lat="45.76723" lon="5.76703">
        <ele>245.9</ele>
        <time>2022-09-26T09:32:13Z</time>
      </trkpt>
      <trkpt lat="45.76724" lon="5.76708">
        <ele>245.7</ele>
        <time>2022-09-26T09:32:14Z</time>
      </trkpt>
      <trkpt lat="45.76726" lon="5.76714">
        <ele>245.6</ele>
        <time>2022-09-26T09:32:15Z</time>
      </trkpt>
      <trkpt lat="45.76728" lon="5.76721">
        <ele>245.5</ele>
        <time>2022-09-26T09:32:16Z</time>
      </trkpt>
      <trkpt lat="45.7673" lon="5.76727">
        <ele>245.3</ele>
        <time>2022-09-26T09:32:17Z</time>
      </trkpt>
      <trkpt lat="45.76732" lon="5.76733">
        <ele>245.2</ele>
        <time>2022-09-26T09:32:18Z</time>
      </trkpt>
      <trkpt lat="45.76734" lon="5.7674">
        <ele>245</ele>
        <time>2022-09-26T09:32:19Z</time>
      </trkpt>
      <trkpt lat="45.76735" lon="5.76747">
        <ele>244.9</ele>
        <time>2022-09-26T09:32:20Z</time>
      </trkpt>
      <trkpt lat="45.76737" lon="5.76754">
        <ele>244.7</ele>
        <time>2022-09-26T09:32:21Z</time>
      </trkpt>
      <trkpt lat="45.76738" lon="5.76761">
        <ele>244.6</ele>
        <time>2022-09-26T09:32:22Z</time>
      </trkpt>
      <trkpt lat="45.76739" lon="5.76768">
        <ele>244.4</ele>
        <time>2022-09-26T09:32:23Z</time>
      </trkpt>
      <trkpt lat="45.76739" lon="5.76776">
        <ele>244.3</ele>
        <time>2022-09-26T09:32:24Z</time>
      </trkpt>
      <trkpt lat="45.76739" lon="5.76785">
        <ele>244.1</ele>
        <time>2022-09-26T09:32:25Z</time>
      </trkpt>
      <trkpt lat="45.76739" lon="5.76793">
        <ele>244</ele>
        <time>2022-09-26T09:32:26Z</time>
      </trkpt>
      <trkpt lat="45.76739" lon="5.76801">
        <ele>243.9</ele>
        <time>2022-09-26T09:32:27Z</time>
      </trkpt>
      <trkpt lat="45.76739" lon="5.76808">
        <ele>243.8</ele>
        <time>2022-09-26T09:32:28Z</time>
      </trkpt>
      <trkpt lat="45.76739" lon="5.76815">
        <ele>243.6</ele>
        <time>2022-09-26T09:32:29Z</time>
      </trkpt>
      <trkpt lat="45.76739" lon="5.76823">
        <ele>243.5</ele>
        <time>2022-09-26T09:32:30Z</time>
      </trkpt>
      <trkpt lat="45.76739" lon="5.76831">
        <ele>243.4</ele>
        <time>2022-09-26T09:32:31Z</time>
      </trkpt>
      <trkpt lat="45.7674" lon="5.76838">
        <ele>243.2</ele>
        <time>2022-09-26T09:32:32Z</time>
      </trkpt>
      <trkpt lat="45.76741" lon="5.76846">
        <ele>243</ele>
        <time>2022-09-26T09:32:33Z</time>
      </trkpt>
      <trkpt lat="45.76742" lon="5.76854">
        <ele>242.8</ele>
        <time>2022-09-26T09:32:34Z</time>
      </trkpt>
      <trkpt lat="45.76743" lon="5.76862">
        <ele>242.5</ele>
        <time>2022-09-26T09:32:35Z</time>
      </trkpt>
      <trkpt lat="45.76745" lon="5.76869">
        <ele>242.3</ele>
        <time>2022-09-26T09:32:36Z</time>
      </trkpt>
      <trkpt lat="45.76747" lon="5.76878">
        <ele>242</ele>
        <time>2022-09-26T09:32:37Z</time>
      </trkpt>
      <trkpt lat="45.76748" lon="5.76885">
        <ele>241.8</ele>
        <time>2022-09-26T09:32:38Z</time>
      </trkpt>
      <trkpt lat="45.7675" lon="5.76894">
        <ele>241.6</ele>
        <time>2022-09-26T09:32:39Z</time>
      </trkpt>
      <trkpt lat="45.76752" lon="5.76902">
        <ele>241.4</ele>
        <time>2022-09-26T09:32:40Z</time>
      </trkpt>
      <trkpt lat="45.76754" lon="5.7691">
        <ele>241.3</ele>
        <time>2022-09-26T09:32:41Z</time>
      </trkpt>
      <trkpt lat="45.76756" lon="5.76918">
        <ele>241.1</ele>
        <time>2022-09-26T09:32:42Z</time>
      </trkpt>
      <trkpt lat="45.76759" lon="5.76924">
        <ele>241</ele>
        <time>2022-09-26T09:32:43Z</time>
      </trkpt>
      <trkpt lat="45.76762" lon="5.7693">
        <ele>240.9</ele>
        <time>2022-09-26T09:32:44Z</time>
      </trkpt>
      <trkpt lat="45.76765" lon="5.76936">
        <ele>240.9</ele>
        <time>2022-09-26T09:32:45Z</time>
      </trkpt>
      <trkpt lat="45.76768" lon="5.76941">
        <ele>240.8</ele>
        <time>2022-09-26T09:32:46Z</time>
      </trkpt>
      <trkpt lat="45.76772" lon="5.76948">
        <ele>240.8</ele>
        <time>2022-09-26T09:32:47Z</time>
      </trkpt>
      <trkpt lat="45.76776" lon="5.76954">
        <ele>240.8</ele>
        <time>2022-09-26T09:32:48Z</time>
      </trkpt>
      <trkpt lat="45.76779" lon="5.76959">
        <ele>240.9</ele>
        <time>2022-09-26T09:32:49Z</time>
      </trkpt>
      <trkpt lat="45.76782" lon="5.76964">
        <ele>241</ele>
        <time>2022-09-26T09:32:50Z</time>
      </trkpt>
      <trkpt lat="45.76786" lon="5.76969">
        <ele>241.1</ele>
        <time>2022-09-26T09:32:51Z</time>
      </trkpt>
      <trkpt lat="45.76789" lon="5.76974">
        <ele>241.3</ele>
        <time>2022-09-26T09:32:52Z</time>
      </trkpt>
      <trkpt lat="45.76792" lon="5.76978">
        <ele>241.4</ele>
        <time>2022-09-26T09:32:53Z</time>
      </trkpt>
      <trkpt lat="45.76794" lon="5.76981">
        <ele>241.5</ele>
        <time>2022-09-26T09:32:54Z</time>
      </trkpt>
      <trkpt lat="45.76797" lon="5.76983">
        <ele>241.6</ele>
        <time>2022-09-26T09:32:55Z</time>
      </trkpt>
      <trkpt lat="45.76798" lon="5.76983">
        <ele>241.6</ele>
        <time>2022-09-26T09:32:56Z</time>
      </trkpt>
      <trkpt lat="45.76801" lon="5.76984">
        <ele>241.6</ele>
        <time>2022-09-26T09:32:57Z</time>
      </trkpt>
      <trkpt lat="45.76802" lon="5.76984">
        <ele>241.6</ele>
        <time>2022-09-26T09:32:58Z</time>
      </trkpt>
      <trkpt lat="45.76805" lon="5.76984">
        <ele>241.5</ele>
        <time>2022-09-26T09:32:59Z</time>
      </trkpt>
      <trkpt lat="45.76808" lon="5.76982">
        <ele>241.5</ele>
        <time>2022-09-26T09:33:00Z</time>
      </trkpt>
      <trkpt lat="45.76816" lon="5.76982">
        <ele>241.3</ele>
        <time>2022-09-26T09:33:01Z</time>
      </trkpt>
      <trkpt lat="45.7682" lon="5.76982">
        <ele>241.3</ele>
        <time>2022-09-26T09:33:02Z</time>
      </trkpt>
      <trkpt lat="45.76825" lon="5.76984">
        <ele>241.3</ele>
        <time>2022-09-26T09:33:03Z</time>
      </trkpt>
      <trkpt lat="45.76829" lon="5.76986">
        <ele>241.3</ele>
        <time>2022-09-26T09:33:04Z</time>
      </trkpt>
      <trkpt lat="45.76833" lon="5.76988">
        <ele>241.3</ele>
        <time>2022-09-26T09:33:05Z</time>
      </trkpt>
      <trkpt lat="45.76837" lon="5.76988">
        <ele>241.3</ele>
        <time>2022-09-26T09:33:06Z</time>
      </trkpt>
      <trkpt lat="45.76841" lon="5.7699">
        <ele>241.4</ele>
        <time>2022-09-26T09:33:07Z</time>
      </trkpt>
      <trkpt lat="45.76845" lon="5.76991">
        <ele>241.4</ele>
        <time>2022-09-26T09:33:08Z</time>
      </trkpt>
      <trkpt lat="45.76849" lon="5.76993">
        <ele>241.5</ele>
        <time>2022-09-26T09:33:09Z</time>
      </trkpt>
      <trkpt lat="45.76852" lon="5.76995">
        <ele>241.5</ele>
        <time>2022-09-26T09:33:10Z</time>
      </trkpt>
      <trkpt lat="45.76856" lon="5.76997">
        <ele>241.6</ele>
        <time>2022-09-26T09:33:11Z</time>
      </trkpt>
      <trkpt lat="45.7686" lon="5.76998">
        <ele>241.7</ele>
        <time>2022-09-26T09:33:12Z</time>
      </trkpt>
      <trkpt lat="45.76864" lon="5.76999">
        <ele>241.7</ele>
        <time>2022-09-26T09:33:13Z</time>
      </trkpt>
      <trkpt lat="45.76867" lon="5.77001">
        <ele>241.8</ele>
        <time>2022-09-26T09:33:14Z</time>
      </trkpt>
      <trkpt lat="45.76871" lon="5.77003">
        <ele>241.8</ele>
        <time>2022-09-26T09:33:15Z</time>
      </trkpt>
      <trkpt lat="45.76875" lon="5.77003">
        <ele>241.9</ele>
        <time>2022-09-26T09:33:16Z</time>
      </trkpt>
      <trkpt lat="45.76879" lon="5.77005">
        <ele>241.9</ele>
        <time>2022-09-26T09:33:17Z</time>
      </trkpt>
      <trkpt lat="45.76882" lon="5.77007">
        <ele>241.9</ele>
        <time>2022-09-26T09:33:18Z</time>
      </trkpt>
      <trkpt lat="45.76886" lon="5.77008">
        <ele>242</ele>
        <time>2022-09-26T09:33:19Z</time>
      </trkpt>
      <trkpt lat="45.7689" lon="5.7701">
        <ele>242</ele>
        <time>2022-09-26T09:33:20Z</time>
      </trkpt>
      <trkpt lat="45.76894" lon="5.77012">
        <ele>242</ele>
        <time>2022-09-26T09:33:21Z</time>
      </trkpt>
      <trkpt lat="45.76897" lon="5.77014">
        <ele>242</ele>
        <time>2022-09-26T09:33:22Z</time>
      </trkpt>
      <trkpt lat="45.76901" lon="5.77016">
        <ele>242</ele>
        <time>2022-09-26T09:33:23Z</time>
      </trkpt>
      <trkpt lat="45.76905" lon="5.77018">
        <ele>242</ele>
        <time>2022-09-26T09:33:24Z</time>
      </trkpt>
      <trkpt lat="45.7691" lon="5.77019">
        <ele>242.1</ele>
        <time>2022-09-26T09:33:25Z</time>
      </trkpt>
      <trkpt lat="45.76913" lon="5.77022">
        <ele>242.1</ele>
        <time>2022-09-26T09:33:26Z</time>
      </trkpt>
      <trkpt lat="45.76917" lon="5.77024">
        <ele>242.1</ele>
        <time>2022-09-26T09:33:27Z</time>
      </trkpt>
      <trkpt lat="45.76921" lon="5.77026">
        <ele>242</ele>
        <time>2022-09-26T09:33:28Z</time>
      </trkpt>
      <trkpt lat="45.76926" lon="5.77028">
        <ele>242</ele>
        <time>2022-09-26T09:33:29Z</time>
      </trkpt>
      <trkpt lat="45.7693" lon="5.7703">
        <ele>242</ele>
        <time>2022-09-26T09:33:30Z</time>
      </trkpt>
      <trkpt lat="45.76935" lon="5.77031">
        <ele>242</ele>
        <time>2022-09-26T09:33:31Z</time>
      </trkpt>
      <trkpt lat="45.76939" lon="5.77033">
        <ele>242</ele>
        <time>2022-09-26T09:33:32Z</time>
      </trkpt>
      <trkpt lat="45.76944" lon="5.77035">
        <ele>242</ele>
        <time>2022-09-26T09:33:33Z</time>
      </trkpt>
      <trkpt lat="45.76948" lon="5.77036">
        <ele>241.9</ele>
        <time>2022-09-26T09:33:34Z</time>
      </trkpt>
      <trkpt lat="45.76953" lon="5.7704">
        <ele>241.8</ele>
        <time>2022-09-26T09:33:35Z</time>
      </trkpt>
      <trkpt lat="45.76958" lon="5.77041">
        <ele>241.8</ele>
        <time>2022-09-26T09:33:36Z</time>
      </trkpt>
      <trkpt lat="45.76963" lon="5.77043">
        <ele>241.6</ele>
        <time>2022-09-26T09:33:37Z</time>
      </trkpt>
      <trkpt lat="45.76968" lon="5.77045">
        <ele>241.5</ele>
        <time>2022-09-26T09:33:38Z</time>
      </trkpt>
      <trkpt lat="45.76973" lon="5.77047">
        <ele>241.3</ele>
        <time>2022-09-26T09:33:39Z</time>
      </trkpt>
      <trkpt lat="45.76979" lon="5.77049">
        <ele>241.1</ele>
        <time>2022-09-26T09:33:40Z</time>
      </trkpt>
      <trkpt lat="45.76984" lon="5.77051">
        <ele>240.8</ele>
        <time>2022-09-26T09:33:41Z</time>
      </trkpt>
      <trkpt lat="45.76989" lon="5.77051">
        <ele>240.6</ele>
        <time>2022-09-26T09:33:42Z</time>
      </trkpt>
      <trkpt lat="45.76996" lon="5.77053">
        <ele>240.2</ele>
        <time>2022-09-26T09:33:43Z</time>
      </trkpt>
      <trkpt lat="45.77002" lon="5.77054">
        <ele>239.9</ele>
        <time>2022-09-26T09:33:44Z</time>
      </trkpt>
      <trkpt lat="45.77008" lon="5.77056">
        <ele>239.5</ele>
        <time>2022-09-26T09:33:45Z</time>
      </trkpt>
      <trkpt lat="45.77014" lon="5.77057">
        <ele>239</ele>
        <time>2022-09-26T09:33:46Z</time>
      </trkpt>
      <trkpt lat="45.77019" lon="5.77058">
        <ele>238.6</ele>
        <time>2022-09-26T09:33:47Z</time>
      </trkpt>
      <trkpt lat="45.77025" lon="5.7706">
        <ele>238.2</ele>
        <time>2022-09-26T09:33:48Z</time>
      </trkpt>
      <trkpt lat="45.77028" lon="5.77061">
        <ele>237.9</ele>
        <time>2022-09-26T09:33:49Z</time>
      </trkpt>
      <trkpt lat="45.77032" lon="5.77059">
        <ele>237.7</ele>
        <time>2022-09-26T09:33:50Z</time>
      </trkpt>
      <trkpt lat="45.77033" lon="5.77055">
        <ele>237.4</ele>
        <time>2022-09-26T09:33:51Z</time>
      </trkpt>
      <trkpt lat="45.77034" lon="5.77051">
        <ele>237.3</ele>
        <time>2022-09-26T09:33:52Z</time>
      </trkpt>
      <trkpt lat="45.77032" lon="5.77051">
        <ele>237.2</ele>
        <time>2022-09-26T09:33:53Z</time>
      </trkpt>
      <trkpt lat="45.77032" lon="5.77051">
        <ele>237.1</ele>
        <time>2022-09-26T09:33:54Z</time>
      </trkpt>
      <trkpt lat="45.77032" lon="5.77051">
        <ele>237.1</ele>
        <time>2022-09-26T09:33:55Z</time>
      </trkpt>
      <trkpt lat="45.77032" lon="5.7705">
        <ele>237.1</ele>
        <time>2022-09-26T09:33:56Z</time>
      </trkpt>
      <trkpt lat="45.77032" lon="5.77049">
        <ele>237</ele>
        <time>2022-09-26T09:33:57Z</time>
      </trkpt>
      <trkpt lat="45.77032" lon="5.77047">
        <ele>236.9</ele>
        <time>2022-09-26T09:33:58Z</time>
      </trkpt>
      <trkpt lat="45.77032" lon="5.77047">
        <ele>236.9</ele>
        <time>2022-09-26T09:33:59Z</time>
      </trkpt>
      <trkpt lat="45.77032" lon="5.77047">
        <ele>236.9</ele>
        <time>2022-09-26T09:34:00Z</time>
      </trkpt>
      <trkpt lat="45.77032" lon="5.77047">
        <ele>236.9</ele>
        <time>2022-09-26T09:34:01Z</time>
      </trkpt>
      <trkpt lat="45.77031" lon="5.77047">
        <ele>236.9</ele>
        <time>2022-09-26T09:34:02Z</time>
      </trkpt>
      <trkpt lat="45.77033" lon="5.77049">
        <ele>236.8</ele>
        <time>2022-09-26T09:34:03Z</time>
      </trkpt>
      <trkpt lat="45.77034" lon="5.7705">
        <ele>236.7</ele>
        <time>2022-09-26T09:34:04Z</time>
      </trkpt>
      <trkpt lat="45.77035" lon="5.77052">
        <ele>236.5</ele>
        <time>2022-09-26T09:34:05Z</time>
      </trkpt>
      <trkpt lat="45.77036" lon="5.77054">
        <ele>236.4</ele>
        <time>2022-09-26T09:34:06Z</time>
      </trkpt>
      <trkpt lat="45.77037" lon="5.77056">
        <ele>236.3</ele>
        <time>2022-09-26T09:34:07Z</time>
      </trkpt>
      <trkpt lat="45.77038" lon="5.77057">
        <ele>236.2</ele>
        <time>2022-09-26T09:34:08Z</time>
      </trkpt>
      <trkpt lat="45.77039" lon="5.77059">
        <ele>236.1</ele>
        <time>2022-09-26T09:37:15Z</time>
      </trkpt>
      <trkpt lat="45.77041" lon="5.77061">
        <ele>236</ele>
        <time>2022-09-26T09:37:16Z</time>
      </trkpt>
      <trkpt lat="45.77049" lon="5.77067">
        <ele>235.3</ele>
        <time>2022-09-26T09:37:17Z</time>
      </trkpt>
      <trkpt lat="45.77055" lon="5.77067">
        <ele>234.9</ele>
        <time>2022-09-26T09:37:18Z</time>
      </trkpt>
      <trkpt lat="45.77062" lon="5.77069">
        <ele>234.5</ele>
        <time>2022-09-26T09:37:19Z</time>
      </trkpt>
      <trkpt lat="45.77069" lon="5.77071">
        <ele>234.1</ele>
        <time>2022-09-26T09:37:20Z</time>
      </trkpt>
      <trkpt lat="45.77076" lon="5.77072">
        <ele>233.7</ele>
        <time>2022-09-26T09:37:21Z</time>
      </trkpt>
      <trkpt lat="45.77083" lon="5.77074">
        <ele>233.3</ele>
        <time>2022-09-26T09:37:22Z</time>
      </trkpt>
      <trkpt lat="45.7709" lon="5.77075">
        <ele>233</ele>
        <time>2022-09-26T09:37:23Z</time>
      </trkpt>
      <trkpt lat="45.77098" lon="5.77077">
        <ele>232.7</ele>
        <time>2022-09-26T09:37:24Z</time>
      </trkpt>
      <trkpt lat="45.77106" lon="5.77079">
        <ele>232.4</ele>
        <time>2022-09-26T09:37:25Z</time>
      </trkpt>
      <trkpt lat="45.77114" lon="5.7708">
        <ele>232.3</ele>
        <time>2022-09-26T09:37:26Z</time>
      </trkpt>
      <trkpt lat="45.77121" lon="5.77082">
        <ele>232.1</ele>
        <time>2022-09-26T09:37:27Z</time>
      </trkpt>
      <trkpt lat="45.77128" lon="5.77085">
        <ele>232</ele>
        <time>2022-09-26T09:37:28Z</time>
      </trkpt>
      <trkpt lat="45.77135" lon="5.77087">
        <ele>232</ele>
        <time>2022-09-26T09:37:29Z</time>
      </trkpt>
      <trkpt lat="45.7714" lon="5.77091">
        <ele>231.9</ele>
        <time>2022-09-26T09:37:30Z</time>
      </trkpt>
      <trkpt lat="45.77145" lon="5.77095">
        <ele>231.8</ele>
        <time>2022-09-26T09:37:31Z</time>
      </trkpt>
      <trkpt lat="45.77149" lon="5.77101">
        <ele>231.8</ele>
        <time>2022-09-26T09:37:32Z</time>
      </trkpt>
      <trkpt lat="45.77153" lon="5.77108">
        <ele>231.7</ele>
        <time>2022-09-26T09:37:33Z</time>
      </trkpt>
      <trkpt lat="45.77155" lon="5.77115">
        <ele>231.8</ele>
        <time>2022-09-26T09:37:34Z</time>
      </trkpt>
      <trkpt lat="45.77158" lon="5.77123">
        <ele>231.8</ele>
        <time>2022-09-26T09:37:35Z</time>
      </trkpt>
      <trkpt lat="45.7716" lon="5.7713">
        <ele>231.8</ele>
        <time>2022-09-26T09:37:36Z</time>
      </trkpt>
      <trkpt lat="45.77163" lon="5.77138">
        <ele>231.8</ele>
        <time>2022-09-26T09:37:37Z</time>
      </trkpt>
      <trkpt lat="45.77165" lon="5.77145">
        <ele>231.8</ele>
        <time>2022-09-26T09:37:38Z</time>
      </trkpt>
      <trkpt lat="45.77167" lon="5.77151">
        <ele>231.8</ele>
        <time>2022-09-26T09:37:39Z</time>
      </trkpt>
      <trkpt lat="45.7717" lon="5.77157">
        <ele>231.8</ele>
        <time>2022-09-26T09:37:40Z</time>
      </trkpt>
      <trkpt lat="45.77174" lon="5.77162">
        <ele>231.8</ele>
        <time>2022-09-26T09:37:41Z</time>
      </trkpt>
      <trkpt lat="45.77177" lon="5.77165">
        <ele>231.8</ele>
        <time>2022-09-26T09:37:42Z</time>
      </trkpt>
      <trkpt lat="45.77182" lon="5.77169">
        <ele>231.8</ele>
        <time>2022-09-26T09:37:43Z</time>
      </trkpt>
      <trkpt lat="45.77186" lon="5.77172">
        <ele>231.8</ele>
        <time>2022-09-26T09:37:44Z</time>
      </trkpt>
      <trkpt lat="45.77189" lon="5.77177">
        <ele>231.7</ele>
        <time>2022-09-26T09:37:45Z</time>
      </trkpt>
      <trkpt lat="45.77192" lon="5.77181">
        <ele>231.7</ele>
        <time>2022-09-26T09:37:46Z</time>
      </trkpt>
      <trkpt lat="45.77197" lon="5.77186">
        <ele>231.7</ele>
        <time>2022-09-26T09:37:47Z</time>
      </trkpt>
      <trkpt lat="45.77201" lon="5.7719">
        <ele>231.7</ele>
        <time>2022-09-26T09:37:48Z</time>
      </trkpt>
      <trkpt lat="45.77205" lon="5.77194">
        <ele>231.6</ele>
        <time>2022-09-26T09:37:49Z</time>
      </trkpt>
      <trkpt lat="45.77209" lon="5.77199">
        <ele>231.6</ele>
        <time>2022-09-26T09:37:50Z</time>
      </trkpt>
      <trkpt lat="45.77213" lon="5.77203">
        <ele>231.6</ele>
        <time>2022-09-26T09:37:51Z</time>
      </trkpt>
      <trkpt lat="45.77218" lon="5.77207">
        <ele>231.5</ele>
        <time>2022-09-26T09:37:52Z</time>
      </trkpt>
      <trkpt lat="45.77223" lon="5.7721">
        <ele>231.5</ele>
        <time>2022-09-26T09:37:53Z</time>
      </trkpt>
      <trkpt lat="45.77228" lon="5.77213">
        <ele>231.5</ele>
        <time>2022-09-26T09:37:54Z</time>
      </trkpt>
      <trkpt lat="45.77233" lon="5.77216">
        <ele>231.4</ele>
        <time>2022-09-26T09:37:55Z</time>
      </trkpt>
      <trkpt lat="45.77239" lon="5.77217">
        <ele>231.3</ele>
        <time>2022-09-26T09:37:56Z</time>
      </trkpt>
      <trkpt lat="45.77245" lon="5.77219">
        <ele>231.3</ele>
        <time>2022-09-26T09:37:57Z</time>
      </trkpt>
      <trkpt lat="45.7725" lon="5.77218">
        <ele>231.2</ele>
        <time>2022-09-26T09:37:58Z</time>
      </trkpt>
      <trkpt lat="45.77257" lon="5.7722">
        <ele>231.2</ele>
        <time>2022-09-26T09:37:59Z</time>
      </trkpt>
      <trkpt lat="45.77263" lon="5.77221">
        <ele>231.1</ele>
        <time>2022-09-26T09:38:00Z</time>
      </trkpt>
      <trkpt lat="45.77268" lon="5.7722">
        <ele>231.1</ele>
        <time>2022-09-26T09:38:01Z</time>
      </trkpt>
      <trkpt lat="45.77274" lon="5.7722">
        <ele>231.2</ele>
        <time>2022-09-26T09:38:02Z</time>
      </trkpt>
      <trkpt lat="45.77279" lon="5.7722">
        <ele>231.2</ele>
        <time>2022-09-26T09:38:03Z</time>
      </trkpt>
      <trkpt lat="45.77285" lon="5.77218">
        <ele>231.2</ele>
        <time>2022-09-26T09:38:04Z</time>
      </trkpt>
      <trkpt lat="45.7729" lon="5.77217">
        <ele>231.2</ele>
        <time>2022-09-26T09:38:05Z</time>
      </trkpt>
      <trkpt lat="45.77296" lon="5.77216">
        <ele>231.2</ele>
        <time>2022-09-26T09:38:06Z</time>
      </trkpt>
      <trkpt lat="45.77301" lon="5.77214">
        <ele>231.1</ele>
        <time>2022-09-26T09:38:07Z</time>
      </trkpt>
      <trkpt lat="45.77307" lon="5.77213">
        <ele>231.1</ele>
        <time>2022-09-26T09:38:08Z</time>
      </trkpt>
      <trkpt lat="45.77313" lon="5.77212">
        <ele>231.1</ele>
        <time>2022-09-26T09:38:09Z</time>
      </trkpt>
      <trkpt lat="45.77319" lon="5.7721">
        <ele>231.1</ele>
        <time>2022-09-26T09:38:10Z</time>
      </trkpt>
      <trkpt lat="45.77325" lon="5.77208">
        <ele>231.1</ele>
        <time>2022-09-26T09:38:11Z</time>
      </trkpt>
      <trkpt lat="45.7733" lon="5.77208">
        <ele>231.1</ele>
        <time>2022-09-26T09:38:12Z</time>
      </trkpt>
      <trkpt lat="45.77336" lon="5.77206">
        <ele>231.1</ele>
        <time>2022-09-26T09:38:13Z</time>
      </trkpt>
      <trkpt lat="45.77342" lon="5.77204">
        <ele>231.1</ele>
        <time>2022-09-26T09:38:14Z</time>
      </trkpt>
      <trkpt lat="45.77347" lon="5.77204">
        <ele>231.1</ele>
        <time>2022-09-26T09:38:15Z</time>
      </trkpt>
      <trkpt lat="45.77353" lon="5.77202">
        <ele>231.1</ele>
        <time>2022-09-26T09:38:16Z</time>
      </trkpt>
      <trkpt lat="45.77359" lon="5.772">
        <ele>231.2</ele>
        <time>2022-09-26T09:38:17Z</time>
      </trkpt>
      <trkpt lat="45.77365" lon="5.77199">
        <ele>231.2</ele>
        <time>2022-09-26T09:38:18Z</time>
      </trkpt>
      <trkpt lat="45.77371" lon="5.77197">
        <ele>231.2</ele>
        <time>2022-09-26T09:38:19Z</time>
      </trkpt>
      <trkpt lat="45.77377" lon="5.77195">
        <ele>231.1</ele>
        <time>2022-09-26T09:38:20Z</time>
      </trkpt>
      <trkpt lat="45.77383" lon="5.77194">
        <ele>231.1</ele>
        <time>2022-09-26T09:38:21Z</time>
      </trkpt>
      <trkpt lat="45.77389" lon="5.77192">
        <ele>231.1</ele>
        <time>2022-09-26T09:38:22Z</time>
      </trkpt>
      <trkpt lat="45.77394" lon="5.77191">
        <ele>231.1</ele>
        <time>2022-09-26T09:38:24Z</time>
      </trkpt>
      <trkpt lat="45.77401" lon="5.77188">
        <ele>231.1</ele>
        <time>2022-09-26T09:38:25Z</time>
      </trkpt>
      <trkpt lat="45.77407" lon="5.77187">
        <ele>231.1</ele>
        <time>2022-09-26T09:38:26Z</time>
      </trkpt>
      <trkpt lat="45.77413" lon="5.77185">
        <ele>231.1</ele>
        <time>2022-09-26T09:38:27Z</time>
      </trkpt>
      <trkpt lat="45.77419" lon="5.77184">
        <ele>231.2</ele>
        <time>2022-09-26T09:38:28Z</time>
      </trkpt>
      <trkpt lat="45.77425" lon="5.77183">
        <ele>231.2</ele>
        <time>2022-09-26T09:38:29Z</time>
      </trkpt>
      <trkpt lat="45.77431" lon="5.77182">
        <ele>231.2</ele>
        <time>2022-09-26T09:38:30Z</time>
      </trkpt>
      <trkpt lat="45.77437" lon="5.7718">
        <ele>231.1</ele>
        <time>2022-09-26T09:38:31Z</time>
      </trkpt>
      <trkpt lat="45.77442" lon="5.77178">
        <ele>231.1</ele>
        <time>2022-09-26T09:38:32Z</time>
      </trkpt>
      <trkpt lat="45.77448" lon="5.77176">
        <ele>231.1</ele>
        <time>2022-09-26T09:38:33Z</time>
      </trkpt>
      <trkpt lat="45.77454" lon="5.77175">
        <ele>231.1</ele>
        <time>2022-09-26T09:38:34Z</time>
      </trkpt>
      <trkpt lat="45.7746" lon="5.77174">
        <ele>231.1</ele>
        <time>2022-09-26T09:38:35Z</time>
      </trkpt>
      <trkpt lat="45.77466" lon="5.77172">
        <ele>231.1</ele>
        <time>2022-09-26T09:38:36Z</time>
      </trkpt>
      <trkpt lat="45.77472" lon="5.77172">
        <ele>231.1</ele>
        <time>2022-09-26T09:38:37Z</time>
      </trkpt>
      <trkpt lat="45.77478" lon="5.77169">
        <ele>231.1</ele>
        <time>2022-09-26T09:38:38Z</time>
      </trkpt>
      <trkpt lat="45.77484" lon="5.77169">
        <ele>231.1</ele>
        <time>2022-09-26T09:38:39Z</time>
      </trkpt>
      <trkpt lat="45.77489" lon="5.77167">
        <ele>231.1</ele>
        <time>2022-09-26T09:38:40Z</time>
      </trkpt>
      <trkpt lat="45.77495" lon="5.77165">
        <ele>231.2</ele>
        <time>2022-09-26T09:38:41Z</time>
      </trkpt>
      <trkpt lat="45.77501" lon="5.77164">
        <ele>231.2</ele>
        <time>2022-09-26T09:38:42Z</time>
      </trkpt>
      <trkpt lat="45.77506" lon="5.77162">
        <ele>231.2</ele>
        <time>2022-09-26T09:38:43Z</time>
      </trkpt>
      <trkpt lat="45.77512" lon="5.7716">
        <ele>231.2</ele>
        <time>2022-09-26T09:38:44Z</time>
      </trkpt>
      <trkpt lat="45.77518" lon="5.77159">
        <ele>231.2</ele>
        <time>2022-09-26T09:38:45Z</time>
      </trkpt>
      <trkpt lat="45.77523" lon="5.77158">
        <ele>231.2</ele>
        <time>2022-09-26T09:38:46Z</time>
      </trkpt>
      <trkpt lat="45.77529" lon="5.77157">
        <ele>231.2</ele>
        <time>2022-09-26T09:38:47Z</time>
      </trkpt>
      <trkpt lat="45.77535" lon="5.77155">
        <ele>231.3</ele>
        <time>2022-09-26T09:38:48Z</time>
      </trkpt>
      <trkpt lat="45.7754" lon="5.77154">
        <ele>231.3</ele>
        <time>2022-09-26T09:38:49Z</time>
      </trkpt>
      <trkpt lat="45.77546" lon="5.77152">
        <ele>231.3</ele>
        <time>2022-09-26T09:38:50Z</time>
      </trkpt>
      <trkpt lat="45.77552" lon="5.77151">
        <ele>231.3</ele>
        <time>2022-09-26T09:38:51Z</time>
      </trkpt>
      <trkpt lat="45.77558" lon="5.77149">
        <ele>231.3</ele>
        <time>2022-09-26T09:38:52Z</time>
      </trkpt>
      <trkpt lat="45.77563" lon="5.77148">
        <ele>231.3</ele>
        <time>2022-09-26T09:38:53Z</time>
      </trkpt>
      <trkpt lat="45.77569" lon="5.77147">
        <ele>231.3</ele>
        <time>2022-09-26T09:38:54Z</time>
      </trkpt>
      <trkpt lat="45.77575" lon="5.77145">
        <ele>231.3</ele>
        <time>2022-09-26T09:38:55Z</time>
      </trkpt>
      <trkpt lat="45.7758" lon="5.77143">
        <ele>231.3</ele>
        <time>2022-09-26T09:38:56Z</time>
      </trkpt>
      <trkpt lat="45.77586" lon="5.77142">
        <ele>231.3</ele>
        <time>2022-09-26T09:38:57Z</time>
      </trkpt>
      <trkpt lat="45.77591" lon="5.7714">
        <ele>231.4</ele>
        <time>2022-09-26T09:38:58Z</time>
      </trkpt>
      <trkpt lat="45.77597" lon="5.77139">
        <ele>231.4</ele>
        <time>2022-09-26T09:38:59Z</time>
      </trkpt>
      <trkpt lat="45.77603" lon="5.77137">
        <ele>231.4</ele>
        <time>2022-09-26T09:39:00Z</time>
      </trkpt>
      <trkpt lat="45.77608" lon="5.77135">
        <ele>231.5</ele>
        <time>2022-09-26T09:39:01Z</time>
      </trkpt>
      <trkpt lat="45.77613" lon="5.77133">
        <ele>231.6</ele>
        <time>2022-09-26T09:39:02Z</time>
      </trkpt>
      <trkpt lat="45.77618" lon="5.7713">
        <ele>231.7</ele>
        <time>2022-09-26T09:39:03Z</time>
      </trkpt>
      <trkpt lat="45.77624" lon="5.77128">
        <ele>231.8</ele>
        <time>2022-09-26T09:39:04Z</time>
      </trkpt>
      <trkpt lat="45.77629" lon="5.77127">
        <ele>231.9</ele>
        <time>2022-09-26T09:39:05Z</time>
      </trkpt>
      <trkpt lat="45.77634" lon="5.77125">
        <ele>232.1</ele>
        <time>2022-09-26T09:39:06Z</time>
      </trkpt>
      <trkpt lat="45.77639" lon="5.77123">
        <ele>232.2</ele>
        <time>2022-09-26T09:39:07Z</time>
      </trkpt>
      <trkpt lat="45.77643" lon="5.77121">
        <ele>232.3</ele>
        <time>2022-09-26T09:39:08Z</time>
      </trkpt>
      <trkpt lat="45.77648" lon="5.77119">
        <ele>232.5</ele>
        <time>2022-09-26T09:39:09Z</time>
      </trkpt>
      <trkpt lat="45.77651" lon="5.77118">
        <ele>232.6</ele>
        <time>2022-09-26T09:39:10Z</time>
      </trkpt>
      <trkpt lat="45.77655" lon="5.77117">
        <ele>232.7</ele>
        <time>2022-09-26T09:39:11Z</time>
      </trkpt>
      <trkpt lat="45.77658" lon="5.77115">
        <ele>232.7</ele>
        <time>2022-09-26T09:39:12Z</time>
      </trkpt>
      <trkpt lat="45.7766" lon="5.77115">
        <ele>232.7</ele>
        <time>2022-09-26T09:39:13Z</time>
      </trkpt>
      <trkpt lat="45.77663" lon="5.77114">
        <ele>232.7</ele>
        <time>2022-09-26T09:39:14Z</time>
      </trkpt>
      <trkpt lat="45.77666" lon="5.77113">
        <ele>232.7</ele>
        <time>2022-09-26T09:39:15Z</time>
      </trkpt>
      <trkpt lat="45.77669" lon="5.77111">
        <ele>232.6</ele>
        <time>2022-09-26T09:39:16Z</time>
      </trkpt>
      <trkpt lat="45.77674" lon="5.77109">
        <ele>232.5</ele>
        <time>2022-09-26T09:39:17Z</time>
      </trkpt>
      <trkpt lat="45.77677" lon="5.77109">
        <ele>232.4</ele>
        <time>2022-09-26T09:39:18Z</time>
      </trkpt>
      <trkpt lat="45.77681" lon="5.77106">
        <ele>232.3</ele>
        <time>2022-09-26T09:39:19Z</time>
      </trkpt>
      <trkpt lat="45.77685" lon="5.77104">
        <ele>232.1</ele>
        <time>2022-09-26T09:39:20Z</time>
      </trkpt>
      <trkpt lat="45.7769" lon="5.77102">
        <ele>232</ele>
        <time>2022-09-26T09:39:21Z</time>
      </trkpt>
      <trkpt lat="45.77695" lon="5.771">
        <ele>231.8</ele>
        <time>2022-09-26T09:39:22Z</time>
      </trkpt>
      <trkpt lat="45.77701" lon="5.77099">
        <ele>231.6</ele>
        <time>2022-09-26T09:39:23Z</time>
      </trkpt>
      <trkpt lat="45.77707" lon="5.77097">
        <ele>231.4</ele>
        <time>2022-09-26T09:39:24Z</time>
      </trkpt>
      <trkpt lat="45.77713" lon="5.77096">
        <ele>231.3</ele>
        <time>2022-09-26T09:39:25Z</time>
      </trkpt>
      <trkpt lat="45.77718" lon="5.77094">
        <ele>231.1</ele>
        <time>2022-09-26T09:39:26Z</time>
      </trkpt>
      <trkpt lat="45.77724" lon="5.77092">
        <ele>231</ele>
        <time>2022-09-26T09:39:27Z</time>
      </trkpt>
      <trkpt lat="45.7773" lon="5.77091">
        <ele>230.9</ele>
        <time>2022-09-26T09:39:28Z</time>
      </trkpt>
      <trkpt lat="45.77736" lon="5.77089">
        <ele>230.8</ele>
        <time>2022-09-26T09:39:29Z</time>
      </trkpt>
      <trkpt lat="45.77742" lon="5.77088">
        <ele>230.7</ele>
        <time>2022-09-26T09:39:30Z</time>
      </trkpt>
      <trkpt lat="45.77748" lon="5.77086">
        <ele>230.7</ele>
        <time>2022-09-26T09:39:31Z</time>
      </trkpt>
      <trkpt lat="45.77754" lon="5.77085">
        <ele>230.7</ele>
        <time>2022-09-26T09:39:32Z</time>
      </trkpt>
      <trkpt lat="45.7776" lon="5.77083">
        <ele>230.7</ele>
        <time>2022-09-26T09:39:33Z</time>
      </trkpt>
      <trkpt lat="45.77765" lon="5.77082">
        <ele>230.7</ele>
        <time>2022-09-26T09:39:34Z</time>
      </trkpt>
      <trkpt lat="45.77771" lon="5.7708">
        <ele>230.7</ele>
        <time>2022-09-26T09:39:35Z</time>
      </trkpt>
      <trkpt lat="45.77777" lon="5.77079">
        <ele>230.7</ele>
        <time>2022-09-26T09:39:36Z</time>
      </trkpt>
      <trkpt lat="45.77782" lon="5.77078">
        <ele>230.7</ele>
        <time>2022-09-26T09:39:37Z</time>
      </trkpt>
      <trkpt lat="45.77788" lon="5.77077">
        <ele>230.7</ele>
        <time>2022-09-26T09:39:38Z</time>
      </trkpt>
      <trkpt lat="45.77794" lon="5.77076">
        <ele>230.6</ele>
        <time>2022-09-26T09:39:39Z</time>
      </trkpt>
      <trkpt lat="45.77799" lon="5.77077">
        <ele>230.6</ele>
        <time>2022-09-26T09:39:40Z</time>
      </trkpt>
      <trkpt lat="45.77805" lon="5.77076">
        <ele>230.6</ele>
        <time>2022-09-26T09:39:41Z</time>
      </trkpt>
      <trkpt lat="45.7781" lon="5.77076">
        <ele>230.6</ele>
        <time>2022-09-26T09:39:42Z</time>
      </trkpt>
      <trkpt lat="45.77816" lon="5.77076">
        <ele>230.6</ele>
        <time>2022-09-26T09:39:43Z</time>
      </trkpt>
      <trkpt lat="45.77822" lon="5.77076">
        <ele>230.6</ele>
        <time>2022-09-26T09:39:44Z</time>
      </trkpt>
      <trkpt lat="45.77828" lon="5.77076">
        <ele>230.6</ele>
        <time>2022-09-26T09:39:45Z</time>
      </trkpt>
      <trkpt lat="45.77833" lon="5.77077">
        <ele>230.5</ele>
        <time>2022-09-26T09:39:46Z</time>
      </trkpt>
      <trkpt lat="45.77839" lon="5.77077">
        <ele>230.5</ele>
        <time>2022-09-26T09:39:47Z</time>
      </trkpt>
      <trkpt lat="45.77845" lon="5.77077">
        <ele>230.5</ele>
        <time>2022-09-26T09:39:48Z</time>
      </trkpt>
      <trkpt lat="45.7785" lon="5.77078">
        <ele>230.5</ele>
        <time>2022-09-26T09:39:49Z</time>
      </trkpt>
      <trkpt lat="45.77856" lon="5.77079">
        <ele>230.5</ele>
        <time>2022-09-26T09:39:50Z</time>
      </trkpt>
      <trkpt lat="45.77862" lon="5.77079">
        <ele>230.5</ele>
        <time>2022-09-26T09:39:51Z</time>
      </trkpt>
      <trkpt lat="45.77868" lon="5.7708">
        <ele>230.4</ele>
        <time>2022-09-26T09:39:52Z</time>
      </trkpt>
      <trkpt lat="45.77873" lon="5.7708">
        <ele>230.4</ele>
        <time>2022-09-26T09:39:53Z</time>
      </trkpt>
      <trkpt lat="45.77879" lon="5.77081">
        <ele>230.4</ele>
        <time>2022-09-26T09:39:54Z</time>
      </trkpt>
      <trkpt lat="45.77885" lon="5.77082">
        <ele>230.4</ele>
        <time>2022-09-26T09:39:55Z</time>
      </trkpt>
      <trkpt lat="45.77891" lon="5.77084">
        <ele>230.3</ele>
        <time>2022-09-26T09:39:56Z</time>
      </trkpt>
      <trkpt lat="45.77897" lon="5.77086">
        <ele>230.3</ele>
        <time>2022-09-26T09:39:57Z</time>
      </trkpt>
      <trkpt lat="45.77903" lon="5.77087">
        <ele>230.3</ele>
        <time>2022-09-26T09:39:58Z</time>
      </trkpt>
      <trkpt lat="45.77909" lon="5.77089">
        <ele>230.3</ele>
        <time>2022-09-26T09:39:59Z</time>
      </trkpt>
      <trkpt lat="45.77914" lon="5.77091">
        <ele>230.3</ele>
        <time>2022-09-26T09:40:00Z</time>
      </trkpt>
      <trkpt lat="45.7792" lon="5.77093">
        <ele>230.3</ele>
        <time>2022-09-26T09:40:01Z</time>
      </trkpt>
      <trkpt lat="45.77927" lon="5.77095">
        <ele>230.3</ele>
        <time>2022-09-26T09:40:02Z</time>
      </trkpt>
      <trkpt lat="45.77931" lon="5.77097">
        <ele>230.3</ele>
        <time>2022-09-26T09:40:03Z</time>
      </trkpt>
      <trkpt lat="45.77936" lon="5.77101">
        <ele>230.3</ele>
        <time>2022-09-26T09:40:04Z</time>
      </trkpt>
      <trkpt lat="45.77942" lon="5.77103">
        <ele>230.3</ele>
        <time>2022-09-26T09:40:05Z</time>
      </trkpt>
      <trkpt lat="45.77947" lon="5.77107">
        <ele>230.3</ele>
        <time>2022-09-26T09:40:06Z</time>
      </trkpt>
      <trkpt lat="45.77953" lon="5.7711">
        <ele>230.3</ele>
        <time>2022-09-26T09:40:07Z</time>
      </trkpt>
      <trkpt lat="45.77958" lon="5.77112">
        <ele>230.3</ele>
        <time>2022-09-26T09:40:08Z</time>
      </trkpt>
      <trkpt lat="45.77964" lon="5.77116">
        <ele>230.3</ele>
        <time>2022-09-26T09:40:09Z</time>
      </trkpt>
      <trkpt lat="45.77969" lon="5.77119">
        <ele>230.3</ele>
        <time>2022-09-26T09:40:10Z</time>
      </trkpt>
      <trkpt lat="45.77974" lon="5.77122">
        <ele>230.4</ele>
        <time>2022-09-26T09:40:11Z</time>
      </trkpt>
      <trkpt lat="45.7798" lon="5.77125">
        <ele>230.4</ele>
        <time>2022-09-26T09:40:12Z</time>
      </trkpt>
      <trkpt lat="45.77985" lon="5.77129">
        <ele>230.3</ele>
        <time>2022-09-26T09:40:13Z</time>
      </trkpt>
      <trkpt lat="45.7799" lon="5.77133">
        <ele>230.3</ele>
        <time>2022-09-26T09:40:14Z</time>
      </trkpt>
      <trkpt lat="45.77995" lon="5.77137">
        <ele>230.3</ele>
        <time>2022-09-26T09:40:15Z</time>
      </trkpt>
      <trkpt lat="45.78" lon="5.77142">
        <ele>230.3</ele>
        <time>2022-09-26T09:40:16Z</time>
      </trkpt>
      <trkpt lat="45.78006" lon="5.77146">
        <ele>230.3</ele>
        <time>2022-09-26T09:40:17Z</time>
      </trkpt>
      <trkpt lat="45.78011" lon="5.7715">
        <ele>230.3</ele>
        <time>2022-09-26T09:40:18Z</time>
      </trkpt>
      <trkpt lat="45.78016" lon="5.77154">
        <ele>230.3</ele>
        <time>2022-09-26T09:40:19Z</time>
      </trkpt>
      <trkpt lat="45.78021" lon="5.77159">
        <ele>230.3</ele>
        <time>2022-09-26T09:40:20Z</time>
      </trkpt>
      <trkpt lat="45.78026" lon="5.77163">
        <ele>230.3</ele>
        <time>2022-09-26T09:40:21Z</time>
      </trkpt>
      <trkpt lat="45.78031" lon="5.77167">
        <ele>230.3</ele>
        <time>2022-09-26T09:40:22Z</time>
      </trkpt>
      <trkpt lat="45.78036" lon="5.77171">
        <ele>230.3</ele>
        <time>2022-09-26T09:40:23Z</time>
      </trkpt>
      <trkpt lat="45.7804" lon="5.77175">
        <ele>230.3</ele>
        <time>2022-09-26T09:40:24Z</time>
      </trkpt>
      <trkpt lat="45.78045" lon="5.77179">
        <ele>230.4</ele>
        <time>2022-09-26T09:40:25Z</time>
      </trkpt>
      <trkpt lat="45.7805" lon="5.77183">
        <ele>230.4</ele>
        <time>2022-09-26T09:40:26Z</time>
      </trkpt>
      <trkpt lat="45.78055" lon="5.77187">
        <ele>230.4</ele>
        <time>2022-09-26T09:40:27Z</time>
      </trkpt>
      <trkpt lat="45.78059" lon="5.77191">
        <ele>230.5</ele>
        <time>2022-09-26T09:40:28Z</time>
      </trkpt>
      <trkpt lat="45.78064" lon="5.77195">
        <ele>230.5</ele>
        <time>2022-09-26T09:40:30Z</time>
      </trkpt>
      <trkpt lat="45.78069" lon="5.77198">
        <ele>230.6</ele>
        <time>2022-09-26T09:40:31Z</time>
      </trkpt>
      <trkpt lat="45.78074" lon="5.77203">
        <ele>230.6</ele>
        <time>2022-09-26T09:40:32Z</time>
      </trkpt>
      <trkpt lat="45.78079" lon="5.77207">
        <ele>230.7</ele>
        <time>2022-09-26T09:40:33Z</time>
      </trkpt>
      <trkpt lat="45.78083" lon="5.77211">
        <ele>230.7</ele>
        <time>2022-09-26T09:40:34Z</time>
      </trkpt>
      <trkpt lat="45.78088" lon="5.77215">
        <ele>230.8</ele>
        <time>2022-09-26T09:40:35Z</time>
      </trkpt>
      <trkpt lat="45.78093" lon="5.77219">
        <ele>230.9</ele>
        <time>2022-09-26T09:40:36Z</time>
      </trkpt>
      <trkpt lat="45.78098" lon="5.77222">
        <ele>230.9</ele>
        <time>2022-09-26T09:40:37Z</time>
      </trkpt>
      <trkpt lat="45.78103" lon="5.77226">
        <ele>231</ele>
        <time>2022-09-26T09:40:38Z</time>
      </trkpt>
      <trkpt lat="45.78108" lon="5.77229">
        <ele>231.2</ele>
        <time>2022-09-26T09:40:39Z</time>
      </trkpt>
      <trkpt lat="45.78113" lon="5.77234">
        <ele>231.4</ele>
        <time>2022-09-26T09:40:40Z</time>
      </trkpt>
      <trkpt lat="45.78117" lon="5.77237">
        <ele>231.6</ele>
        <time>2022-09-26T09:40:41Z</time>
      </trkpt>
      <trkpt lat="45.78121" lon="5.7724">
        <ele>231.8</ele>
        <time>2022-09-26T09:40:42Z</time>
      </trkpt>
      <trkpt lat="45.78126" lon="5.77242">
        <ele>232.1</ele>
        <time>2022-09-26T09:40:43Z</time>
      </trkpt>
      <trkpt lat="45.78129" lon="5.77244">
        <ele>232.4</ele>
        <time>2022-09-26T09:40:44Z</time>
      </trkpt>
      <trkpt lat="45.78133" lon="5.77246">
        <ele>232.7</ele>
        <time>2022-09-26T09:40:45Z</time>
      </trkpt>
      <trkpt lat="45.78136" lon="5.77246">
        <ele>233</ele>
        <time>2022-09-26T09:40:46Z</time>
      </trkpt>
      <trkpt lat="45.78139" lon="5.77245">
        <ele>233.3</ele>
        <time>2022-09-26T09:40:47Z</time>
      </trkpt>
      <trkpt lat="45.78142" lon="5.77243">
        <ele>233.5</ele>
        <time>2022-09-26T09:40:48Z</time>
      </trkpt>
      <trkpt lat="45.78144" lon="5.7724">
        <ele>233.8</ele>
        <time>2022-09-26T09:40:49Z</time>
      </trkpt>
      <trkpt lat="45.78146" lon="5.77236">
        <ele>234.1</ele>
        <time>2022-09-26T09:40:50Z</time>
      </trkpt>
      <trkpt lat="45.78147" lon="5.77233">
        <ele>234.3</ele>
        <time>2022-09-26T09:40:51Z</time>
      </trkpt>
      <trkpt lat="45.7815" lon="5.77228">
        <ele>234.6</ele>
        <time>2022-09-26T09:40:52Z</time>
      </trkpt>
      <trkpt lat="45.7815" lon="5.77226">
        <ele>234.7</ele>
        <time>2022-09-26T09:40:53Z</time>
      </trkpt>
      <trkpt lat="45.78152" lon="5.77223">
        <ele>235</ele>
        <time>2022-09-26T09:40:54Z</time>
      </trkpt>
      <trkpt lat="45.78153" lon="5.77222">
        <ele>235.1</ele>
        <time>2022-09-26T09:40:55Z</time>
      </trkpt>
      <trkpt lat="45.78156" lon="5.77219">
        <ele>235.4</ele>
        <time>2022-09-26T09:40:56Z</time>
      </trkpt>
      <trkpt lat="45.78156" lon="5.77218">
        <ele>235.4</ele>
        <time>2022-09-26T09:40:57Z</time>
      </trkpt>
      <trkpt lat="45.78159" lon="5.77216">
        <ele>235.7</ele>
        <time>2022-09-26T09:40:58Z</time>
      </trkpt>
      <trkpt lat="45.7816" lon="5.77216">
        <ele>235.9</ele>
        <time>2022-09-26T09:40:59Z</time>
      </trkpt>
      <trkpt lat="45.78164" lon="5.77217">
        <ele>235.9</ele>
        <time>2022-09-26T09:41:00Z</time>
      </trkpt>
      <trkpt lat="45.78165" lon="5.77218">
        <ele>236</ele>
        <time>2022-09-26T09:41:01Z</time>
      </trkpt>
      <trkpt lat="45.78167" lon="5.7722">
        <ele>236</ele>
        <time>2022-09-26T09:41:02Z</time>
      </trkpt>
      <trkpt lat="45.78168" lon="5.77221">
        <ele>236</ele>
        <time>2022-09-26T09:41:03Z</time>
      </trkpt>
      <trkpt lat="45.7817" lon="5.77224">
        <ele>236.1</ele>
        <time>2022-09-26T09:41:04Z</time>
      </trkpt>
      <trkpt lat="45.78173" lon="5.77226">
        <ele>236.1</ele>
        <time>2022-09-26T09:41:05Z</time>
      </trkpt>
      <trkpt lat="45.78176" lon="5.77229">
        <ele>236.1</ele>
        <time>2022-09-26T09:41:06Z</time>
      </trkpt>
      <trkpt lat="45.78178" lon="5.77232">
        <ele>236</ele>
        <time>2022-09-26T09:41:07Z</time>
      </trkpt>
      <trkpt lat="45.78181" lon="5.77236">
        <ele>236</ele>
        <time>2022-09-26T09:41:08Z</time>
      </trkpt>
      <trkpt lat="45.78181" lon="5.77239">
        <ele>235.9</ele>
        <time>2022-09-26T09:41:09Z</time>
      </trkpt>
      <trkpt lat="45.78182" lon="5.77246">
        <ele>235.9</ele>
        <time>2022-09-26T09:41:10Z</time>
      </trkpt>
      <trkpt lat="45.78182" lon="5.77248">
        <ele>235.9</ele>
        <time>2022-09-26T09:41:11Z</time>
      </trkpt>
      <trkpt lat="45.78183" lon="5.77253">
        <ele>235.8</ele>
        <time>2022-09-26T09:41:12Z</time>
      </trkpt>
      <trkpt lat="45.78184" lon="5.77258">
        <ele>235.8</ele>
        <time>2022-09-26T09:41:13Z</time>
      </trkpt>
      <trkpt lat="45.78186" lon="5.77262">
        <ele>235.6</ele>
        <time>2022-09-26T09:41:14Z</time>
      </trkpt>
      <trkpt lat="45.78188" lon="5.77266">
        <ele>235.4</ele>
        <time>2022-09-26T09:41:15Z</time>
      </trkpt>
      <trkpt lat="45.78191" lon="5.77269">
        <ele>235.2</ele>
        <time>2022-09-26T09:41:16Z</time>
      </trkpt>
      <trkpt lat="45.78195" lon="5.77272">
        <ele>235</ele>
        <time>2022-09-26T09:41:17Z</time>
      </trkpt>
      <trkpt lat="45.782" lon="5.77275">
        <ele>234.8</ele>
        <time>2022-09-26T09:41:18Z</time>
      </trkpt>
      <trkpt lat="45.78204" lon="5.77279">
        <ele>234.6</ele>
        <time>2022-09-26T09:41:19Z</time>
      </trkpt>
      <trkpt lat="45.78208" lon="5.77283">
        <ele>234.4</ele>
        <time>2022-09-26T09:41:20Z</time>
      </trkpt>
      <trkpt lat="45.78213" lon="5.77286">
        <ele>234.3</ele>
        <time>2022-09-26T09:41:21Z</time>
      </trkpt>
      <trkpt lat="45.78218" lon="5.77289">
        <ele>234.2</ele>
        <time>2022-09-26T09:41:22Z</time>
      </trkpt>
      <trkpt lat="45.78222" lon="5.77292">
        <ele>234.2</ele>
        <time>2022-09-26T09:41:23Z</time>
      </trkpt>
      <trkpt lat="45.78227" lon="5.77296">
        <ele>234.1</ele>
        <time>2022-09-26T09:41:24Z</time>
      </trkpt>
      <trkpt lat="45.78232" lon="5.773">
        <ele>234.1</ele>
        <time>2022-09-26T09:41:25Z</time>
      </trkpt>
      <trkpt lat="45.78236" lon="5.77303">
        <ele>234</ele>
        <time>2022-09-26T09:41:26Z</time>
      </trkpt>
      <trkpt lat="45.78241" lon="5.77307">
        <ele>234</ele>
        <time>2022-09-26T09:41:27Z</time>
      </trkpt>
      <trkpt lat="45.78245" lon="5.7731">
        <ele>233.9</ele>
        <time>2022-09-26T09:41:28Z</time>
      </trkpt>
      <trkpt lat="45.78254" lon="5.77317">
        <ele>233.9</ele>
        <time>2022-09-26T09:41:29Z</time>
      </trkpt>
      <trkpt lat="45.78259" lon="5.77321">
        <ele>234</ele>
        <time>2022-09-26T09:41:30Z</time>
      </trkpt>
      <trkpt lat="45.78263" lon="5.77324">
        <ele>234</ele>
        <time>2022-09-26T09:41:31Z</time>
      </trkpt>
      <trkpt lat="45.78268" lon="5.77328">
        <ele>234</ele>
        <time>2022-09-26T09:41:32Z</time>
      </trkpt>
      <trkpt lat="45.78272" lon="5.77332">
        <ele>234</ele>
        <time>2022-09-26T09:41:33Z</time>
      </trkpt>
      <trkpt lat="45.78277" lon="5.77334">
        <ele>234</ele>
        <time>2022-09-26T09:41:34Z</time>
      </trkpt>
      <trkpt lat="45.78281" lon="5.77338">
        <ele>234.1</ele>
        <time>2022-09-26T09:41:35Z</time>
      </trkpt>
      <trkpt lat="45.78286" lon="5.77342">
        <ele>234.1</ele>
        <time>2022-09-26T09:41:36Z</time>
      </trkpt>
      <trkpt lat="45.7829" lon="5.77345">
        <ele>234.1</ele>
        <time>2022-09-26T09:41:37Z</time>
      </trkpt>
      <trkpt lat="45.78294" lon="5.77348">
        <ele>234.1</ele>
        <time>2022-09-26T09:41:38Z</time>
      </trkpt>
      <trkpt lat="45.78298" lon="5.77351">
        <ele>234.1</ele>
        <time>2022-09-26T09:41:39Z</time>
      </trkpt>
      <trkpt lat="45.78303" lon="5.77354">
        <ele>234.2</ele>
        <time>2022-09-26T09:41:40Z</time>
      </trkpt>
      <trkpt lat="45.78308" lon="5.77357">
        <ele>234.2</ele>
        <time>2022-09-26T09:41:41Z</time>
      </trkpt>
      <trkpt lat="45.78311" lon="5.7736">
        <ele>234.3</ele>
        <time>2022-09-26T09:41:42Z</time>
      </trkpt>
      <trkpt lat="45.78316" lon="5.77362">
        <ele>234.3</ele>
        <time>2022-09-26T09:41:43Z</time>
      </trkpt>
      <trkpt lat="45.7832" lon="5.77365">
        <ele>234.3</ele>
        <time>2022-09-26T09:41:44Z</time>
      </trkpt>
      <trkpt lat="45.78324" lon="5.77368">
        <ele>234.4</ele>
        <time>2022-09-26T09:41:45Z</time>
      </trkpt>
      <trkpt lat="45.78328" lon="5.77371">
        <ele>234.4</ele>
        <time>2022-09-26T09:41:46Z</time>
      </trkpt>
      <trkpt lat="45.78332" lon="5.77373">
        <ele>234.4</ele>
        <time>2022-09-26T09:41:47Z</time>
      </trkpt>
      <trkpt lat="45.78336" lon="5.77376">
        <ele>234.4</ele>
        <time>2022-09-26T09:41:48Z</time>
      </trkpt>
      <trkpt lat="45.7834" lon="5.77379">
        <ele>234.5</ele>
        <time>2022-09-26T09:41:49Z</time>
      </trkpt>
      <trkpt lat="45.78344" lon="5.77382">
        <ele>234.4</ele>
        <time>2022-09-26T09:41:50Z</time>
      </trkpt>
      <trkpt lat="45.78347" lon="5.77385">
        <ele>234.4</ele>
        <time>2022-09-26T09:41:51Z</time>
      </trkpt>
      <trkpt lat="45.7835" lon="5.77387">
        <ele>234.4</ele>
        <time>2022-09-26T09:41:52Z</time>
      </trkpt>
      <trkpt lat="45.78351" lon="5.77388">
        <ele>234.4</ele>
        <time>2022-09-26T09:41:53Z</time>
      </trkpt>
      <trkpt lat="45.78354" lon="5.77391">
        <ele>234.4</ele>
        <time>2022-09-26T09:41:54Z</time>
      </trkpt>
      <trkpt lat="45.78356" lon="5.77393">
        <ele>234.4</ele>
        <time>2022-09-26T09:41:55Z</time>
      </trkpt>
      <trkpt lat="45.7836" lon="5.77394">
        <ele>234.4</ele>
        <time>2022-09-26T09:41:56Z</time>
      </trkpt>
      <trkpt lat="45.78363" lon="5.77397">
        <ele>234.4</ele>
        <time>2022-09-26T09:41:57Z</time>
      </trkpt>
      <trkpt lat="45.78367" lon="5.774">
        <ele>234.4</ele>
        <time>2022-09-26T09:41:58Z</time>
      </trkpt>
      <trkpt lat="45.78371" lon="5.77402">
        <ele>234.4</ele>
        <time>2022-09-26T09:41:59Z</time>
      </trkpt>
      <trkpt lat="45.78375" lon="5.77404">
        <ele>234.4</ele>
        <time>2022-09-26T09:42:00Z</time>
      </trkpt>
      <trkpt lat="45.7838" lon="5.77406">
        <ele>234.4</ele>
        <time>2022-09-26T09:42:01Z</time>
      </trkpt>
      <trkpt lat="45.78384" lon="5.77408">
        <ele>234.4</ele>
        <time>2022-09-26T09:42:02Z</time>
      </trkpt>
      <trkpt lat="45.78388" lon="5.77411">
        <ele>234.3</ele>
        <time>2022-09-26T09:42:03Z</time>
      </trkpt>
      <trkpt lat="45.78392" lon="5.77413">
        <ele>234.3</ele>
        <time>2022-09-26T09:42:04Z</time>
      </trkpt>
      <trkpt lat="45.78397" lon="5.77415">
        <ele>234.3</ele>
        <time>2022-09-26T09:42:05Z</time>
      </trkpt>
      <trkpt lat="45.78401" lon="5.77418">
        <ele>234.3</ele>
        <time>2022-09-26T09:42:06Z</time>
      </trkpt>
      <trkpt lat="45.78406" lon="5.7742">
        <ele>234.3</ele>
        <time>2022-09-26T09:42:07Z</time>
      </trkpt>
      <trkpt lat="45.7841" lon="5.77423">
        <ele>234.2</ele>
        <time>2022-09-26T09:42:08Z</time>
      </trkpt>
      <trkpt lat="45.78415" lon="5.77426">
        <ele>234.2</ele>
        <time>2022-09-26T09:42:09Z</time>
      </trkpt>
      <trkpt lat="45.78419" lon="5.77429">
        <ele>234.2</ele>
        <time>2022-09-26T09:42:10Z</time>
      </trkpt>
      <trkpt lat="45.78424" lon="5.77431">
        <ele>234.2</ele>
        <time>2022-09-26T09:42:11Z</time>
      </trkpt>
      <trkpt lat="45.78429" lon="5.77434">
        <ele>234.2</ele>
        <time>2022-09-26T09:42:12Z</time>
      </trkpt>
      <trkpt lat="45.78434" lon="5.77437">
        <ele>234.2</ele>
        <time>2022-09-26T09:42:13Z</time>
      </trkpt>
      <trkpt lat="45.78439" lon="5.77439">
        <ele>234.2</ele>
        <time>2022-09-26T09:42:14Z</time>
      </trkpt>
      <trkpt lat="45.78444" lon="5.77442">
        <ele>234.2</ele>
        <time>2022-09-26T09:42:15Z</time>
      </trkpt>
      <trkpt lat="45.78449" lon="5.77444">
        <ele>234.2</ele>
        <time>2022-09-26T09:42:16Z</time>
      </trkpt>
      <trkpt lat="45.78454" lon="5.77446">
        <ele>234.2</ele>
        <time>2022-09-26T09:42:17Z</time>
      </trkpt>
      <trkpt lat="45.78459" lon="5.77449">
        <ele>234.2</ele>
        <time>2022-09-26T09:42:18Z</time>
      </trkpt>
      <trkpt lat="45.78464" lon="5.77451">
        <ele>234.2</ele>
        <time>2022-09-26T09:42:19Z</time>
      </trkpt>
      <trkpt lat="45.78468" lon="5.77453">
        <ele>234.2</ele>
        <time>2022-09-26T09:42:20Z</time>
      </trkpt>
      <trkpt lat="45.78473" lon="5.77455">
        <ele>234.2</ele>
        <time>2022-09-26T09:42:21Z</time>
      </trkpt>
      <trkpt lat="45.78478" lon="5.77457">
        <ele>234.2</ele>
        <time>2022-09-26T09:42:22Z</time>
      </trkpt>
      <trkpt lat="45.78483" lon="5.7746">
        <ele>234.2</ele>
        <time>2022-09-26T09:42:23Z</time>
      </trkpt>
      <trkpt lat="45.78487" lon="5.77462">
        <ele>234.3</ele>
        <time>2022-09-26T09:42:24Z</time>
      </trkpt>
      <trkpt lat="45.78493" lon="5.77464">
        <ele>234.3</ele>
        <time>2022-09-26T09:42:25Z</time>
      </trkpt>
      <trkpt lat="45.78497" lon="5.77467">
        <ele>234.3</ele>
        <time>2022-09-26T09:42:26Z</time>
      </trkpt>
      <trkpt lat="45.78502" lon="5.77469">
        <ele>234.3</ele>
        <time>2022-09-26T09:42:27Z</time>
      </trkpt>
      <trkpt lat="45.78507" lon="5.77471">
        <ele>234.3</ele>
        <time>2022-09-26T09:42:28Z</time>
      </trkpt>
      <trkpt lat="45.78512" lon="5.77473">
        <ele>234.3</ele>
        <time>2022-09-26T09:42:29Z</time>
      </trkpt>
      <trkpt lat="45.78516" lon="5.77475">
        <ele>234.2</ele>
        <time>2022-09-26T09:42:30Z</time>
      </trkpt>
      <trkpt lat="45.78521" lon="5.77477">
        <ele>234.2</ele>
        <time>2022-09-26T09:42:31Z</time>
      </trkpt>
      <trkpt lat="45.78526" lon="5.77478">
        <ele>234.2</ele>
        <time>2022-09-26T09:42:32Z</time>
      </trkpt>
      <trkpt lat="45.78531" lon="5.7748">
        <ele>234.2</ele>
        <time>2022-09-26T09:42:33Z</time>
      </trkpt>
      <trkpt lat="45.78536" lon="5.77482">
        <ele>234.2</ele>
        <time>2022-09-26T09:42:34Z</time>
      </trkpt>
      <trkpt lat="45.78541" lon="5.77484">
        <ele>234.2</ele>
        <time>2022-09-26T09:42:36Z</time>
      </trkpt>
      <trkpt lat="45.78546" lon="5.77486">
        <ele>234.1</ele>
        <time>2022-09-26T09:42:37Z</time>
      </trkpt>
      <trkpt lat="45.78551" lon="5.77488">
        <ele>234.1</ele>
        <time>2022-09-26T09:42:38Z</time>
      </trkpt>
      <trkpt lat="45.78555" lon="5.7749">
        <ele>234.1</ele>
        <time>2022-09-26T09:42:39Z</time>
      </trkpt>
      <trkpt lat="45.7856" lon="5.77491">
        <ele>234</ele>
        <time>2022-09-26T09:42:40Z</time>
      </trkpt>
      <trkpt lat="45.78565" lon="5.77493">
        <ele>234</ele>
        <time>2022-09-26T09:42:41Z</time>
      </trkpt>
      <trkpt lat="45.7857" lon="5.77495">
        <ele>234</ele>
        <time>2022-09-26T09:42:42Z</time>
      </trkpt>
      <trkpt lat="45.78575" lon="5.77496">
        <ele>234</ele>
        <time>2022-09-26T09:42:43Z</time>
      </trkpt>
      <trkpt lat="45.78579" lon="5.77498">
        <ele>233.9</ele>
        <time>2022-09-26T09:42:44Z</time>
      </trkpt>
      <trkpt lat="45.78583" lon="5.77499">
        <ele>233.9</ele>
        <time>2022-09-26T09:42:45Z</time>
      </trkpt>
      <trkpt lat="45.78585" lon="5.775">
        <ele>233.9</ele>
        <time>2022-09-26T09:42:46Z</time>
      </trkpt>
      <trkpt lat="45.78585" lon="5.775">
        <ele>233.9</ele>
        <time>2022-09-26T09:42:47Z</time>
      </trkpt>
      <trkpt lat="45.78584" lon="5.775">
        <ele>233.9</ele>
        <time>2022-09-26T09:42:48Z</time>
      </trkpt>
      <trkpt lat="45.78584" lon="5.77499">
        <ele>233.9</ele>
        <time>2022-09-26T09:42:49Z</time>
      </trkpt>
      <trkpt lat="45.78584" lon="5.775">
        <ele>233.9</ele>
        <time>2022-09-26T09:42:50Z</time>
      </trkpt>
      <trkpt lat="45.78585" lon="5.77501">
        <ele>233.9</ele>
        <time>2022-09-26T09:42:51Z</time>
      </trkpt>
      <trkpt lat="45.78586" lon="5.77501">
        <ele>233.9</ele>
        <time>2022-09-26T09:42:52Z</time>
      </trkpt>
      <trkpt lat="45.78587" lon="5.77501">
        <ele>233.9</ele>
        <time>2022-09-26T09:42:53Z</time>
      </trkpt>
      <trkpt lat="45.78588" lon="5.77501">
        <ele>233.9</ele>
        <time>2022-09-26T09:42:54Z</time>
      </trkpt>
      <trkpt lat="45.78588" lon="5.77502">
        <ele>233.9</ele>
        <time>2022-09-26T09:42:55Z</time>
      </trkpt>
      <trkpt lat="45.78589" lon="5.77502">
        <ele>233.9</ele>
        <time>2022-09-26T09:42:56Z</time>
      </trkpt>
      <trkpt lat="45.7859" lon="5.77502">
        <ele>233.9</ele>
        <time>2022-09-26T09:42:57Z</time>
      </trkpt>
      <trkpt lat="45.78591" lon="5.77502">
        <ele>233.9</ele>
        <time>2022-09-26T09:42:58Z</time>
      </trkpt>
      <trkpt lat="45.78592" lon="5.77503">
        <ele>233.9</ele>
        <time>2022-09-26T09:42:59Z</time>
      </trkpt>
      <trkpt lat="45.78592" lon="5.77503">
        <ele>233.9</ele>
        <time>2022-09-26T09:43:00Z</time>
      </trkpt>
      <trkpt lat="45.78593" lon="5.77503">
        <ele>233.9</ele>
        <time>2022-09-26T09:43:03Z</time>
      </trkpt>
      <trkpt lat="45.78594" lon="5.77503">
        <ele>233.9</ele>
        <time>2022-09-26T09:43:04Z</time>
      </trkpt>
      <trkpt lat="45.78597" lon="5.77504">
        <ele>233.9</ele>
        <time>2022-09-26T09:43:05Z</time>
      </trkpt>
      <trkpt lat="45.786" lon="5.77506">
        <ele>233.9</ele>
        <time>2022-09-26T09:43:06Z</time>
      </trkpt>
      <trkpt lat="45.78603" lon="5.77507">
        <ele>233.9</ele>
        <time>2022-09-26T09:43:07Z</time>
      </trkpt>
      <trkpt lat="45.78607" lon="5.77508">
        <ele>233.9</ele>
        <time>2022-09-26T09:43:08Z</time>
      </trkpt>
      <trkpt lat="45.7861" lon="5.77509">
        <ele>233.9</ele>
        <time>2022-09-26T09:43:09Z</time>
      </trkpt>
      <trkpt lat="45.78614" lon="5.77509">
        <ele>233.9</ele>
        <time>2022-09-26T09:43:10Z</time>
      </trkpt>
      <trkpt lat="45.78618" lon="5.7751">
        <ele>233.9</ele>
        <time>2022-09-26T09:43:11Z</time>
      </trkpt>
      <trkpt lat="45.78622" lon="5.77511">
        <ele>233.9</ele>
        <time>2022-09-26T09:43:12Z</time>
      </trkpt>
      <trkpt lat="45.78626" lon="5.77512">
        <ele>233.9</ele>
        <time>2022-09-26T09:43:13Z</time>
      </trkpt>
      <trkpt lat="45.7863" lon="5.77513">
        <ele>233.9</ele>
        <time>2022-09-26T09:43:14Z</time>
      </trkpt>
      <trkpt lat="45.78634" lon="5.77514">
        <ele>233.9</ele>
        <time>2022-09-26T09:43:15Z</time>
      </trkpt>
      <trkpt lat="45.78639" lon="5.77516">
        <ele>233.9</ele>
        <time>2022-09-26T09:43:16Z</time>
      </trkpt>
      <trkpt lat="45.78644" lon="5.77517">
        <ele>234</ele>
        <time>2022-09-26T09:43:17Z</time>
      </trkpt>
      <trkpt lat="45.78648" lon="5.77518">
        <ele>234</ele>
        <time>2022-09-26T09:43:18Z</time>
      </trkpt>
      <trkpt lat="45.78653" lon="5.77518">
        <ele>234</ele>
        <time>2022-09-26T09:43:19Z</time>
      </trkpt>
      <trkpt lat="45.78658" lon="5.77519">
        <ele>234</ele>
        <time>2022-09-26T09:43:20Z</time>
      </trkpt>
      <trkpt lat="45.78663" lon="5.7752">
        <ele>234</ele>
        <time>2022-09-26T09:43:21Z</time>
      </trkpt>
      <trkpt lat="45.78667" lon="5.77522">
        <ele>234</ele>
        <time>2022-09-26T09:43:22Z</time>
      </trkpt>
      <trkpt lat="45.78672" lon="5.77523">
        <ele>234</ele>
        <time>2022-09-26T09:43:23Z</time>
      </trkpt>
      <trkpt lat="45.78677" lon="5.77524">
        <ele>234</ele>
        <time>2022-09-26T09:43:24Z</time>
      </trkpt>
      <trkpt lat="45.78682" lon="5.77525">
        <ele>234</ele>
        <time>2022-09-26T09:43:25Z</time>
      </trkpt>
      <trkpt lat="45.78687" lon="5.77526">
        <ele>234</ele>
        <time>2022-09-26T09:43:26Z</time>
      </trkpt>
      <trkpt lat="45.78692" lon="5.77527">
        <ele>234</ele>
        <time>2022-09-26T09:43:27Z</time>
      </trkpt>
      <trkpt lat="45.78697" lon="5.77528">
        <ele>234</ele>
        <time>2022-09-26T09:43:28Z</time>
      </trkpt>
      <trkpt lat="45.78702" lon="5.7753">
        <ele>234</ele>
        <time>2022-09-26T09:43:29Z</time>
      </trkpt>
      <trkpt lat="45.78707" lon="5.77531">
        <ele>234</ele>
        <time>2022-09-26T09:43:30Z</time>
      </trkpt>
      <trkpt lat="45.78712" lon="5.77532">
        <ele>234</ele>
        <time>2022-09-26T09:43:31Z</time>
      </trkpt>
      <trkpt lat="45.78718" lon="5.77533">
        <ele>234</ele>
        <time>2022-09-26T09:43:32Z</time>
      </trkpt>
      <trkpt lat="45.78723" lon="5.77534">
        <ele>234</ele>
        <time>2022-09-26T09:43:33Z</time>
      </trkpt>
      <trkpt lat="45.78728" lon="5.77535">
        <ele>234</ele>
        <time>2022-09-26T09:43:34Z</time>
      </trkpt>
      <trkpt lat="45.78735" lon="5.77537">
        <ele>234</ele>
        <time>2022-09-26T09:43:35Z</time>
      </trkpt>
      <trkpt lat="45.78739" lon="5.77537">
        <ele>234</ele>
        <time>2022-09-26T09:43:36Z</time>
      </trkpt>
      <trkpt lat="45.78744" lon="5.77538">
        <ele>234</ele>
        <time>2022-09-26T09:43:37Z</time>
      </trkpt>
      <trkpt lat="45.7875" lon="5.7754">
        <ele>234</ele>
        <time>2022-09-26T09:43:38Z</time>
      </trkpt>
      <trkpt lat="45.78755" lon="5.77541">
        <ele>234</ele>
        <time>2022-09-26T09:43:39Z</time>
      </trkpt>
      <trkpt lat="45.7876" lon="5.77542">
        <ele>234</ele>
        <time>2022-09-26T09:43:40Z</time>
      </trkpt>
      <trkpt lat="45.78765" lon="5.77543">
        <ele>234</ele>
        <time>2022-09-26T09:43:41Z</time>
      </trkpt>
      <trkpt lat="45.7877" lon="5.77543">
        <ele>234</ele>
        <time>2022-09-26T09:43:42Z</time>
      </trkpt>
      <trkpt lat="45.78775" lon="5.77544">
        <ele>234</ele>
        <time>2022-09-26T09:43:43Z</time>
      </trkpt>
      <trkpt lat="45.7878" lon="5.77545">
        <ele>234</ele>
        <time>2022-09-26T09:43:44Z</time>
      </trkpt>
      <trkpt lat="45.78785" lon="5.77547">
        <ele>234</ele>
        <time>2022-09-26T09:43:45Z</time>
      </trkpt>
      <trkpt lat="45.7879" lon="5.77547">
        <ele>234</ele>
        <time>2022-09-26T09:43:46Z</time>
      </trkpt>
      <trkpt lat="45.78796" lon="5.77549">
        <ele>234</ele>
        <time>2022-09-26T09:43:47Z</time>
      </trkpt>
      <trkpt lat="45.78801" lon="5.7755">
        <ele>234</ele>
        <time>2022-09-26T09:43:48Z</time>
      </trkpt>
      <trkpt lat="45.78806" lon="5.77551">
        <ele>234</ele>
        <time>2022-09-26T09:43:49Z</time>
      </trkpt>
      <trkpt lat="45.78811" lon="5.77553">
        <ele>234</ele>
        <time>2022-09-26T09:43:50Z</time>
      </trkpt>
      <trkpt lat="45.78817" lon="5.77554">
        <ele>234</ele>
        <time>2022-09-26T09:43:51Z</time>
      </trkpt>
      <trkpt lat="45.78822" lon="5.77554">
        <ele>234</ele>
        <time>2022-09-26T09:43:52Z</time>
      </trkpt>
      <trkpt lat="45.78827" lon="5.77556">
        <ele>234</ele>
        <time>2022-09-26T09:43:53Z</time>
      </trkpt>
      <trkpt lat="45.78833" lon="5.77558">
        <ele>234</ele>
        <time>2022-09-26T09:43:54Z</time>
      </trkpt>
      <trkpt lat="45.78838" lon="5.77558">
        <ele>234</ele>
        <time>2022-09-26T09:43:55Z</time>
      </trkpt>
      <trkpt lat="45.78843" lon="5.77559">
        <ele>234</ele>
        <time>2022-09-26T09:43:56Z</time>
      </trkpt>
      <trkpt lat="45.78849" lon="5.7756">
        <ele>234</ele>
        <time>2022-09-26T09:43:57Z</time>
      </trkpt>
      <trkpt lat="45.78854" lon="5.77561">
        <ele>234</ele>
        <time>2022-09-26T09:43:58Z</time>
      </trkpt>
      <trkpt lat="45.7886" lon="5.77562">
        <ele>234</ele>
        <time>2022-09-26T09:43:59Z</time>
      </trkpt>
      <trkpt lat="45.78866" lon="5.77563">
        <ele>234</ele>
        <time>2022-09-26T09:44:00Z</time>
      </trkpt>
      <trkpt lat="45.78872" lon="5.77565">
        <ele>234</ele>
        <time>2022-09-26T09:44:01Z</time>
      </trkpt>
      <trkpt lat="45.78877" lon="5.77566">
        <ele>234</ele>
        <time>2022-09-26T09:44:02Z</time>
      </trkpt>
      <trkpt lat="45.78883" lon="5.77567">
        <ele>233.9</ele>
        <time>2022-09-26T09:44:03Z</time>
      </trkpt>
      <trkpt lat="45.78889" lon="5.77568">
        <ele>233.9</ele>
        <time>2022-09-26T09:44:04Z</time>
      </trkpt>
      <trkpt lat="45.78895" lon="5.7757">
        <ele>233.9</ele>
        <time>2022-09-26T09:44:05Z</time>
      </trkpt>
      <trkpt lat="45.78901" lon="5.77571">
        <ele>233.9</ele>
        <time>2022-09-26T09:44:06Z</time>
      </trkpt>
      <trkpt lat="45.78907" lon="5.77572">
        <ele>233.9</ele>
        <time>2022-09-26T09:44:07Z</time>
      </trkpt>
      <trkpt lat="45.78913" lon="5.77573">
        <ele>233.9</ele>
        <time>2022-09-26T09:44:08Z</time>
      </trkpt>
      <trkpt lat="45.78919" lon="5.77575">
        <ele>234</ele>
        <time>2022-09-26T09:44:09Z</time>
      </trkpt>
      <trkpt lat="45.78925" lon="5.77576">
        <ele>234</ele>
        <time>2022-09-26T09:44:10Z</time>
      </trkpt>
      <trkpt lat="45.78931" lon="5.77577">
        <ele>234</ele>
        <time>2022-09-26T09:44:11Z</time>
      </trkpt>
      <trkpt lat="45.78937" lon="5.77578">
        <ele>234</ele>
        <time>2022-09-26T09:44:12Z</time>
      </trkpt>
      <trkpt lat="45.78943" lon="5.7758">
        <ele>234</ele>
        <time>2022-09-26T09:44:13Z</time>
      </trkpt>
      <trkpt lat="45.78948" lon="5.77581">
        <ele>234</ele>
        <time>2022-09-26T09:44:14Z</time>
      </trkpt>
      <trkpt lat="45.78954" lon="5.77583">
        <ele>234</ele>
        <time>2022-09-26T09:44:15Z</time>
      </trkpt>
      <trkpt lat="45.7896" lon="5.77584">
        <ele>234.1</ele>
        <time>2022-09-26T09:44:16Z</time>
      </trkpt>
      <trkpt lat="45.78966" lon="5.77585">
        <ele>234.1</ele>
        <time>2022-09-26T09:44:17Z</time>
      </trkpt>
      <trkpt lat="45.78972" lon="5.77586">
        <ele>234</ele>
        <time>2022-09-26T09:44:18Z</time>
      </trkpt>
      <trkpt lat="45.78978" lon="5.77587">
        <ele>234</ele>
        <time>2022-09-26T09:44:19Z</time>
      </trkpt>
      <trkpt lat="45.78984" lon="5.77588">
        <ele>234</ele>
        <time>2022-09-26T09:44:20Z</time>
      </trkpt>
      <trkpt lat="45.7899" lon="5.77589">
        <ele>234</ele>
        <time>2022-09-26T09:44:21Z</time>
      </trkpt>
      <trkpt lat="45.78995" lon="5.77591">
        <ele>234</ele>
        <time>2022-09-26T09:44:22Z</time>
      </trkpt>
      <trkpt lat="45.79001" lon="5.77592">
        <ele>234</ele>
        <time>2022-09-26T09:44:23Z</time>
      </trkpt>
      <trkpt lat="45.79007" lon="5.77593">
        <ele>234</ele>
        <time>2022-09-26T09:44:24Z</time>
      </trkpt>
      <trkpt lat="45.79013" lon="5.77595">
        <ele>234</ele>
        <time>2022-09-26T09:44:25Z</time>
      </trkpt>
      <trkpt lat="45.79019" lon="5.77596">
        <ele>234.1</ele>
        <time>2022-09-26T09:44:26Z</time>
      </trkpt>
      <trkpt lat="45.79025" lon="5.77597">
        <ele>234.1</ele>
        <time>2022-09-26T09:44:27Z</time>
      </trkpt>
      <trkpt lat="45.79031" lon="5.77598">
        <ele>234.1</ele>
        <time>2022-09-26T09:44:28Z</time>
      </trkpt>
      <trkpt lat="45.79037" lon="5.77599">
        <ele>234.1</ele>
        <time>2022-09-26T09:44:29Z</time>
      </trkpt>
      <trkpt lat="45.79043" lon="5.77601">
        <ele>234.1</ele>
        <time>2022-09-26T09:44:30Z</time>
      </trkpt>
      <trkpt lat="45.79049" lon="5.77602">
        <ele>234.1</ele>
        <time>2022-09-26T09:44:31Z</time>
      </trkpt>
      <trkpt lat="45.79055" lon="5.77603">
        <ele>234.2</ele>
        <time>2022-09-26T09:44:32Z</time>
      </trkpt>
      <trkpt lat="45.79061" lon="5.77605">
        <ele>234.2</ele>
        <time>2022-09-26T09:44:33Z</time>
      </trkpt>
      <trkpt lat="45.79067" lon="5.77606">
        <ele>234.2</ele>
        <time>2022-09-26T09:44:34Z</time>
      </trkpt>
      <trkpt lat="45.79073" lon="5.77607">
        <ele>234.2</ele>
        <time>2022-09-26T09:44:35Z</time>
      </trkpt>
      <trkpt lat="45.79078" lon="5.77608">
        <ele>234.2</ele>
        <time>2022-09-26T09:44:36Z</time>
      </trkpt>
      <trkpt lat="45.79084" lon="5.7761">
        <ele>234.2</ele>
        <time>2022-09-26T09:44:37Z</time>
      </trkpt>
      <trkpt lat="45.7909" lon="5.77611">
        <ele>234.2</ele>
        <time>2022-09-26T09:44:38Z</time>
      </trkpt>
      <trkpt lat="45.79096" lon="5.77612">
        <ele>234.2</ele>
        <time>2022-09-26T09:44:39Z</time>
      </trkpt>
      <trkpt lat="45.79102" lon="5.77613">
        <ele>234.2</ele>
        <time>2022-09-26T09:44:40Z</time>
      </trkpt>
      <trkpt lat="45.79108" lon="5.77614">
        <ele>234.2</ele>
        <time>2022-09-26T09:44:42Z</time>
      </trkpt>
      <trkpt lat="45.79114" lon="5.77616">
        <ele>234.2</ele>
        <time>2022-09-26T09:44:43Z</time>
      </trkpt>
      <trkpt lat="45.79119" lon="5.77617">
        <ele>234.3</ele>
        <time>2022-09-26T09:44:44Z</time>
      </trkpt>
      <trkpt lat="45.79125" lon="5.77619">
        <ele>234.3</ele>
        <time>2022-09-26T09:44:45Z</time>
      </trkpt>
      <trkpt lat="45.79131" lon="5.77619">
        <ele>234.3</ele>
        <time>2022-09-26T09:44:46Z</time>
      </trkpt>
      <trkpt lat="45.79137" lon="5.77621">
        <ele>234.3</ele>
        <time>2022-09-26T09:44:47Z</time>
      </trkpt>
      <trkpt lat="45.79142" lon="5.77623">
        <ele>234.4</ele>
        <time>2022-09-26T09:44:48Z</time>
      </trkpt>
      <trkpt lat="45.79148" lon="5.77624">
        <ele>234.4</ele>
        <time>2022-09-26T09:44:49Z</time>
      </trkpt>
      <trkpt lat="45.79154" lon="5.77625">
        <ele>234.4</ele>
        <time>2022-09-26T09:44:50Z</time>
      </trkpt>
      <trkpt lat="45.79159" lon="5.77626">
        <ele>234.4</ele>
        <time>2022-09-26T09:44:51Z</time>
      </trkpt>
      <trkpt lat="45.79165" lon="5.77627">
        <ele>234.4</ele>
        <time>2022-09-26T09:44:52Z</time>
      </trkpt>
      <trkpt lat="45.79171" lon="5.77629">
        <ele>234.4</ele>
        <time>2022-09-26T09:44:53Z</time>
      </trkpt>
      <trkpt lat="45.79176" lon="5.7763">
        <ele>234.4</ele>
        <time>2022-09-26T09:44:54Z</time>
      </trkpt>
      <trkpt lat="45.79182" lon="5.77631">
        <ele>234.4</ele>
        <time>2022-09-26T09:44:55Z</time>
      </trkpt>
      <trkpt lat="45.79188" lon="5.77633">
        <ele>234.4</ele>
        <time>2022-09-26T09:44:56Z</time>
      </trkpt>
      <trkpt lat="45.79194" lon="5.77634">
        <ele>234.4</ele>
        <time>2022-09-26T09:44:57Z</time>
      </trkpt>
      <trkpt lat="45.79199" lon="5.77635">
        <ele>234.4</ele>
        <time>2022-09-26T09:44:58Z</time>
      </trkpt>
      <trkpt lat="45.79205" lon="5.77636">
        <ele>234.4</ele>
        <time>2022-09-26T09:44:59Z</time>
      </trkpt>
      <trkpt lat="45.7921" lon="5.77638">
        <ele>234.4</ele>
        <time>2022-09-26T09:45:00Z</time>
      </trkpt>
      <trkpt lat="45.79216" lon="5.77639">
        <ele>234.4</ele>
        <time>2022-09-26T09:45:01Z</time>
      </trkpt>
      <trkpt lat="45.79222" lon="5.7764">
        <ele>234.4</ele>
        <time>2022-09-26T09:45:02Z</time>
      </trkpt>
      <trkpt lat="45.79227" lon="5.77641">
        <ele>234.4</ele>
        <time>2022-09-26T09:45:03Z</time>
      </trkpt>
      <trkpt lat="45.79233" lon="5.77642">
        <ele>234.4</ele>
        <time>2022-09-26T09:45:04Z</time>
      </trkpt>
      <trkpt lat="45.79239" lon="5.77644">
        <ele>234.4</ele>
        <time>2022-09-26T09:45:05Z</time>
      </trkpt>
      <trkpt lat="45.79244" lon="5.77645">
        <ele>234.4</ele>
        <time>2022-09-26T09:45:06Z</time>
      </trkpt>
      <trkpt lat="45.7925" lon="5.77646">
        <ele>234.4</ele>
        <time>2022-09-26T09:45:07Z</time>
      </trkpt>
      <trkpt lat="45.79256" lon="5.77647">
        <ele>234.3</ele>
        <time>2022-09-26T09:45:08Z</time>
      </trkpt>
      <trkpt lat="45.79262" lon="5.77648">
        <ele>234.3</ele>
        <time>2022-09-26T09:45:09Z</time>
      </trkpt>
      <trkpt lat="45.79267" lon="5.77649">
        <ele>234.3</ele>
        <time>2022-09-26T09:45:10Z</time>
      </trkpt>
      <trkpt lat="45.79273" lon="5.77651">
        <ele>234.3</ele>
        <time>2022-09-26T09:45:11Z</time>
      </trkpt>
      <trkpt lat="45.79279" lon="5.77652">
        <ele>234.3</ele>
        <time>2022-09-26T09:45:12Z</time>
      </trkpt>
      <trkpt lat="45.79285" lon="5.77654">
        <ele>234.3</ele>
        <time>2022-09-26T09:45:13Z</time>
      </trkpt>
      <trkpt lat="45.7929" lon="5.77654">
        <ele>234.4</ele>
        <time>2022-09-26T09:45:14Z</time>
      </trkpt>
      <trkpt lat="45.79296" lon="5.77656">
        <ele>234.4</ele>
        <time>2022-09-26T09:45:15Z</time>
      </trkpt>
      <trkpt lat="45.79302" lon="5.77657">
        <ele>234.4</ele>
        <time>2022-09-26T09:45:16Z</time>
      </trkpt>
      <trkpt lat="45.79308" lon="5.77657">
        <ele>234.4</ele>
        <time>2022-09-26T09:45:17Z</time>
      </trkpt>
      <trkpt lat="45.79314" lon="5.77659">
        <ele>234.4</ele>
        <time>2022-09-26T09:45:18Z</time>
      </trkpt>
      <trkpt lat="45.7932" lon="5.77661">
        <ele>234.4</ele>
        <time>2022-09-26T09:45:19Z</time>
      </trkpt>
      <trkpt lat="45.79326" lon="5.77664">
        <ele>234.4</ele>
        <time>2022-09-26T09:45:20Z</time>
      </trkpt>
      <trkpt lat="45.79332" lon="5.77667">
        <ele>234.4</ele>
        <time>2022-09-26T09:45:21Z</time>
      </trkpt>
      <trkpt lat="45.79337" lon="5.7767">
        <ele>234.4</ele>
        <time>2022-09-26T09:45:22Z</time>
      </trkpt>
      <trkpt lat="45.79343" lon="5.77672">
        <ele>234.3</ele>
        <time>2022-09-26T09:45:23Z</time>
      </trkpt>
      <trkpt lat="45.79349" lon="5.77675">
        <ele>234.3</ele>
        <time>2022-09-26T09:45:24Z</time>
      </trkpt>
      <trkpt lat="45.79354" lon="5.77678">
        <ele>234.3</ele>
        <time>2022-09-26T09:45:25Z</time>
      </trkpt>
      <trkpt lat="45.7936" lon="5.7768">
        <ele>234.3</ele>
        <time>2022-09-26T09:45:26Z</time>
      </trkpt>
      <trkpt lat="45.79366" lon="5.77683">
        <ele>234.3</ele>
        <time>2022-09-26T09:45:27Z</time>
      </trkpt>
      <trkpt lat="45.79372" lon="5.77686">
        <ele>234.3</ele>
        <time>2022-09-26T09:45:28Z</time>
      </trkpt>
      <trkpt lat="45.79378" lon="5.77689">
        <ele>234.3</ele>
        <time>2022-09-26T09:45:29Z</time>
      </trkpt>
      <trkpt lat="45.79384" lon="5.77692">
        <ele>234.3</ele>
        <time>2022-09-26T09:45:30Z</time>
      </trkpt>
      <trkpt lat="45.79389" lon="5.77695">
        <ele>234.3</ele>
        <time>2022-09-26T09:45:31Z</time>
      </trkpt>
      <trkpt lat="45.79396" lon="5.77697">
        <ele>234.3</ele>
        <time>2022-09-26T09:45:32Z</time>
      </trkpt>
      <trkpt lat="45.79401" lon="5.77699">
        <ele>234.3</ele>
        <time>2022-09-26T09:45:33Z</time>
      </trkpt>
      <trkpt lat="45.79407" lon="5.77701">
        <ele>234.4</ele>
        <time>2022-09-26T09:45:34Z</time>
      </trkpt>
      <trkpt lat="45.79413" lon="5.77702">
        <ele>234.4</ele>
        <time>2022-09-26T09:45:35Z</time>
      </trkpt>
      <trkpt lat="45.79419" lon="5.77703">
        <ele>234.4</ele>
        <time>2022-09-26T09:45:36Z</time>
      </trkpt>
      <trkpt lat="45.79424" lon="5.77704">
        <ele>234.4</ele>
        <time>2022-09-26T09:45:37Z</time>
      </trkpt>
      <trkpt lat="45.7943" lon="5.77705">
        <ele>234.4</ele>
        <time>2022-09-26T09:45:38Z</time>
      </trkpt>
      <trkpt lat="45.79435" lon="5.77707">
        <ele>234.4</ele>
        <time>2022-09-26T09:45:39Z</time>
      </trkpt>
      <trkpt lat="45.7944" lon="5.77708">
        <ele>234.4</ele>
        <time>2022-09-26T09:45:40Z</time>
      </trkpt>
      <trkpt lat="45.79445" lon="5.77709">
        <ele>234.4</ele>
        <time>2022-09-26T09:45:41Z</time>
      </trkpt>
      <trkpt lat="45.79458" lon="5.77712">
        <ele>234.3</ele>
        <time>2022-09-26T09:45:42Z</time>
      </trkpt>
      <trkpt lat="45.79463" lon="5.77712">
        <ele>234.3</ele>
        <time>2022-09-26T09:45:43Z</time>
      </trkpt>
      <trkpt lat="45.7947" lon="5.77714">
        <ele>234.3</ele>
        <time>2022-09-26T09:45:44Z</time>
      </trkpt>
      <trkpt lat="45.79476" lon="5.77715">
        <ele>234.3</ele>
        <time>2022-09-26T09:45:45Z</time>
      </trkpt>
      <trkpt lat="45.79482" lon="5.77716">
        <ele>234.3</ele>
        <time>2022-09-26T09:45:46Z</time>
      </trkpt>
      <trkpt lat="45.79489" lon="5.77718">
        <ele>234.3</ele>
        <time>2022-09-26T09:45:47Z</time>
      </trkpt>
      <trkpt lat="45.79495" lon="5.77719">
        <ele>234.3</ele>
        <time>2022-09-26T09:45:48Z</time>
      </trkpt>
      <trkpt lat="45.79501" lon="5.77721">
        <ele>234.3</ele>
        <time>2022-09-26T09:45:49Z</time>
      </trkpt>
      <trkpt lat="45.79507" lon="5.77722">
        <ele>234.3</ele>
        <time>2022-09-26T09:45:50Z</time>
      </trkpt>
      <trkpt lat="45.79513" lon="5.77723">
        <ele>234.3</ele>
        <time>2022-09-26T09:45:51Z</time>
      </trkpt>
      <trkpt lat="45.7952" lon="5.77724">
        <ele>234.4</ele>
        <time>2022-09-26T09:45:52Z</time>
      </trkpt>
      <trkpt lat="45.79526" lon="5.77726">
        <ele>234.4</ele>
        <time>2022-09-26T09:45:53Z</time>
      </trkpt>
      <trkpt lat="45.79532" lon="5.77728">
        <ele>234.4</ele>
        <time>2022-09-26T09:45:54Z</time>
      </trkpt>
      <trkpt lat="45.79538" lon="5.77729">
        <ele>234.4</ele>
        <time>2022-09-26T09:45:55Z</time>
      </trkpt>
      <trkpt lat="45.79544" lon="5.7773">
        <ele>234.4</ele>
        <time>2022-09-26T09:45:56Z</time>
      </trkpt>
      <trkpt lat="45.79551" lon="5.77732">
        <ele>234.4</ele>
        <time>2022-09-26T09:45:57Z</time>
      </trkpt>
      <trkpt lat="45.79557" lon="5.77733">
        <ele>234.4</ele>
        <time>2022-09-26T09:45:58Z</time>
      </trkpt>
      <trkpt lat="45.79563" lon="5.77734">
        <ele>234.4</ele>
        <time>2022-09-26T09:45:59Z</time>
      </trkpt>
      <trkpt lat="45.79569" lon="5.77736">
        <ele>234.4</ele>
        <time>2022-09-26T09:46:00Z</time>
      </trkpt>
      <trkpt lat="45.79575" lon="5.77737">
        <ele>234.5</ele>
        <time>2022-09-26T09:46:01Z</time>
      </trkpt>
      <trkpt lat="45.79581" lon="5.77739">
        <ele>234.5</ele>
        <time>2022-09-26T09:46:02Z</time>
      </trkpt>
      <trkpt lat="45.79588" lon="5.7774">
        <ele>234.5</ele>
        <time>2022-09-26T09:46:03Z</time>
      </trkpt>
      <trkpt lat="45.79594" lon="5.77741">
        <ele>234.5</ele>
        <time>2022-09-26T09:46:04Z</time>
      </trkpt>
      <trkpt lat="45.796" lon="5.77742">
        <ele>234.5</ele>
        <time>2022-09-26T09:46:05Z</time>
      </trkpt>
      <trkpt lat="45.79606" lon="5.77744">
        <ele>234.5</ele>
        <time>2022-09-26T09:46:06Z</time>
      </trkpt>
      <trkpt lat="45.79613" lon="5.77745">
        <ele>234.5</ele>
        <time>2022-09-26T09:46:07Z</time>
      </trkpt>
      <trkpt lat="45.79619" lon="5.77746">
        <ele>234.5</ele>
        <time>2022-09-26T09:46:08Z</time>
      </trkpt>
      <trkpt lat="45.79625" lon="5.77748">
        <ele>234.5</ele>
        <time>2022-09-26T09:46:09Z</time>
      </trkpt>
      <trkpt lat="45.79632" lon="5.77749">
        <ele>234.6</ele>
        <time>2022-09-26T09:46:10Z</time>
      </trkpt>
      <trkpt lat="45.79638" lon="5.7775">
        <ele>234.6</ele>
        <time>2022-09-26T09:46:11Z</time>
      </trkpt>
      <trkpt lat="45.79644" lon="5.77752">
        <ele>234.6</ele>
        <time>2022-09-26T09:46:12Z</time>
      </trkpt>
      <trkpt lat="45.7965" lon="5.77753">
        <ele>234.6</ele>
        <time>2022-09-26T09:46:13Z</time>
      </trkpt>
      <trkpt lat="45.79656" lon="5.77754">
        <ele>234.6</ele>
        <time>2022-09-26T09:46:14Z</time>
      </trkpt>
      <trkpt lat="45.79663" lon="5.77755">
        <ele>234.6</ele>
        <time>2022-09-26T09:46:15Z</time>
      </trkpt>
      <trkpt lat="45.79669" lon="5.77757">
        <ele>234.6</ele>
        <time>2022-09-26T09:46:16Z</time>
      </trkpt>
      <trkpt lat="45.79675" lon="5.77759">
        <ele>234.6</ele>
        <time>2022-09-26T09:46:17Z</time>
      </trkpt>
      <trkpt lat="45.79681" lon="5.7776">
        <ele>234.6</ele>
        <time>2022-09-26T09:46:18Z</time>
      </trkpt>
      <trkpt lat="45.79687" lon="5.77761">
        <ele>234.6</ele>
        <time>2022-09-26T09:46:19Z</time>
      </trkpt>
      <trkpt lat="45.79694" lon="5.77762">
        <ele>234.6</ele>
        <time>2022-09-26T09:46:20Z</time>
      </trkpt>
      <trkpt lat="45.797" lon="5.77763">
        <ele>234.6</ele>
        <time>2022-09-26T09:46:21Z</time>
      </trkpt>
      <trkpt lat="45.79706" lon="5.77765">
        <ele>234.6</ele>
        <time>2022-09-26T09:46:22Z</time>
      </trkpt>
      <trkpt lat="45.79712" lon="5.77766">
        <ele>234.6</ele>
        <time>2022-09-26T09:46:23Z</time>
      </trkpt>
      <trkpt lat="45.79718" lon="5.77767">
        <ele>234.6</ele>
        <time>2022-09-26T09:46:24Z</time>
      </trkpt>
      <trkpt lat="45.79725" lon="5.77768">
        <ele>234.6</ele>
        <time>2022-09-26T09:46:25Z</time>
      </trkpt>
      <trkpt lat="45.79731" lon="5.77769">
        <ele>234.6</ele>
        <time>2022-09-26T09:46:26Z</time>
      </trkpt>
      <trkpt lat="45.79737" lon="5.7777">
        <ele>234.6</ele>
        <time>2022-09-26T09:46:27Z</time>
      </trkpt>
      <trkpt lat="45.79743" lon="5.77772">
        <ele>234.6</ele>
        <time>2022-09-26T09:46:28Z</time>
      </trkpt>
      <trkpt lat="45.79749" lon="5.77773">
        <ele>234.5</ele>
        <time>2022-09-26T09:46:29Z</time>
      </trkpt>
      <trkpt lat="45.79755" lon="5.77775">
        <ele>234.5</ele>
        <time>2022-09-26T09:46:30Z</time>
      </trkpt>
      <trkpt lat="45.79761" lon="5.77776">
        <ele>234.5</ele>
        <time>2022-09-26T09:46:31Z</time>
      </trkpt>
      <trkpt lat="45.79767" lon="5.77778">
        <ele>234.5</ele>
        <time>2022-09-26T09:46:32Z</time>
      </trkpt>
      <trkpt lat="45.79773" lon="5.77778">
        <ele>234.5</ele>
        <time>2022-09-26T09:46:33Z</time>
      </trkpt>
      <trkpt lat="45.79779" lon="5.77779">
        <ele>234.5</ele>
        <time>2022-09-26T09:46:34Z</time>
      </trkpt>
      <trkpt lat="45.79785" lon="5.77781">
        <ele>234.5</ele>
        <time>2022-09-26T09:46:35Z</time>
      </trkpt>
      <trkpt lat="45.79791" lon="5.77782">
        <ele>234.5</ele>
        <time>2022-09-26T09:46:36Z</time>
      </trkpt>
      <trkpt lat="45.79796" lon="5.77784">
        <ele>234.5</ele>
        <time>2022-09-26T09:46:37Z</time>
      </trkpt>
      <trkpt lat="45.79802" lon="5.77785">
        <ele>234.5</ele>
        <time>2022-09-26T09:46:38Z</time>
      </trkpt>
      <trkpt lat="45.79808" lon="5.77786">
        <ele>234.5</ele>
        <time>2022-09-26T09:46:39Z</time>
      </trkpt>
      <trkpt lat="45.79814" lon="5.77787">
        <ele>234.5</ele>
        <time>2022-09-26T09:46:40Z</time>
      </trkpt>
      <trkpt lat="45.7982" lon="5.77789">
        <ele>234.5</ele>
        <time>2022-09-26T09:46:41Z</time>
      </trkpt>
      <trkpt lat="45.79825" lon="5.7779">
        <ele>234.5</ele>
        <time>2022-09-26T09:46:42Z</time>
      </trkpt>
      <trkpt lat="45.79831" lon="5.77791">
        <ele>234.5</ele>
        <time>2022-09-26T09:46:43Z</time>
      </trkpt>
      <trkpt lat="45.79837" lon="5.77792">
        <ele>234.5</ele>
        <time>2022-09-26T09:46:44Z</time>
      </trkpt>
      <trkpt lat="45.79842" lon="5.77793">
        <ele>234.5</ele>
        <time>2022-09-26T09:46:45Z</time>
      </trkpt>
      <trkpt lat="45.79848" lon="5.77794">
        <ele>234.5</ele>
        <time>2022-09-26T09:46:46Z</time>
      </trkpt>
      <trkpt lat="45.79854" lon="5.77796">
        <ele>234.5</ele>
        <time>2022-09-26T09:46:48Z</time>
      </trkpt>
      <trkpt lat="45.79859" lon="5.77797">
        <ele>234.6</ele>
        <time>2022-09-26T09:46:49Z</time>
      </trkpt>
      <trkpt lat="45.79865" lon="5.77798">
        <ele>234.6</ele>
        <time>2022-09-26T09:46:50Z</time>
      </trkpt>
      <trkpt lat="45.79871" lon="5.77798">
        <ele>234.6</ele>
        <time>2022-09-26T09:46:51Z</time>
      </trkpt>
      <trkpt lat="45.79876" lon="5.778">
        <ele>234.6</ele>
        <time>2022-09-26T09:46:52Z</time>
      </trkpt>
      <trkpt lat="45.79882" lon="5.77801">
        <ele>234.6</ele>
        <time>2022-09-26T09:46:53Z</time>
      </trkpt>
      <trkpt lat="45.79888" lon="5.77803">
        <ele>234.6</ele>
        <time>2022-09-26T09:46:54Z</time>
      </trkpt>
      <trkpt lat="45.79893" lon="5.77804">
        <ele>234.6</ele>
        <time>2022-09-26T09:46:55Z</time>
      </trkpt>
      <trkpt lat="45.79899" lon="5.77805">
        <ele>234.6</ele>
        <time>2022-09-26T09:46:56Z</time>
      </trkpt>
      <trkpt lat="45.79904" lon="5.77807">
        <ele>234.6</ele>
        <time>2022-09-26T09:46:57Z</time>
      </trkpt>
      <trkpt lat="45.7991" lon="5.77807">
        <ele>234.6</ele>
        <time>2022-09-26T09:46:58Z</time>
      </trkpt>
      <trkpt lat="45.79916" lon="5.77809">
        <ele>234.6</ele>
        <time>2022-09-26T09:46:59Z</time>
      </trkpt>
      <trkpt lat="45.79921" lon="5.7781">
        <ele>234.6</ele>
        <time>2022-09-26T09:47:00Z</time>
      </trkpt>
      <trkpt lat="45.79927" lon="5.77811">
        <ele>234.6</ele>
        <time>2022-09-26T09:47:01Z</time>
      </trkpt>
      <trkpt lat="45.79932" lon="5.77813">
        <ele>234.6</ele>
        <time>2022-09-26T09:47:02Z</time>
      </trkpt>
      <trkpt lat="45.79938" lon="5.77814">
        <ele>234.6</ele>
        <time>2022-09-26T09:47:03Z</time>
      </trkpt>
      <trkpt lat="45.79944" lon="5.77815">
        <ele>234.6</ele>
        <time>2022-09-26T09:47:04Z</time>
      </trkpt>
      <trkpt lat="45.79949" lon="5.77816">
        <ele>234.6</ele>
        <time>2022-09-26T09:47:05Z</time>
      </trkpt>
      <trkpt lat="45.79955" lon="5.77817">
        <ele>234.6</ele>
        <time>2022-09-26T09:47:06Z</time>
      </trkpt>
      <trkpt lat="45.79961" lon="5.77818">
        <ele>234.6</ele>
        <time>2022-09-26T09:47:07Z</time>
      </trkpt>
      <trkpt lat="45.79966" lon="5.7782">
        <ele>234.6</ele>
        <time>2022-09-26T09:47:08Z</time>
      </trkpt>
      <trkpt lat="45.79973" lon="5.77821">
        <ele>234.6</ele>
        <time>2022-09-26T09:47:09Z</time>
      </trkpt>
      <trkpt lat="45.79978" lon="5.77822">
        <ele>234.7</ele>
        <time>2022-09-26T09:47:10Z</time>
      </trkpt>
      <trkpt lat="45.79984" lon="5.77823">
        <ele>234.7</ele>
        <time>2022-09-26T09:47:11Z</time>
      </trkpt>
      <trkpt lat="45.7999" lon="5.77825">
        <ele>234.7</ele>
        <time>2022-09-26T09:47:12Z</time>
      </trkpt>
      <trkpt lat="45.79995" lon="5.77826">
        <ele>234.7</ele>
        <time>2022-09-26T09:47:13Z</time>
      </trkpt>
      <trkpt lat="45.80001" lon="5.77827">
        <ele>234.7</ele>
        <time>2022-09-26T09:47:14Z</time>
      </trkpt>
      <trkpt lat="45.80007" lon="5.77828">
        <ele>234.6</ele>
        <time>2022-09-26T09:47:15Z</time>
      </trkpt>
      <trkpt lat="45.80013" lon="5.77829">
        <ele>234.6</ele>
        <time>2022-09-26T09:47:16Z</time>
      </trkpt>
      <trkpt lat="45.80019" lon="5.77831">
        <ele>234.6</ele>
        <time>2022-09-26T09:47:17Z</time>
      </trkpt>
      <trkpt lat="45.80025" lon="5.77832">
        <ele>234.6</ele>
        <time>2022-09-26T09:47:18Z</time>
      </trkpt>
      <trkpt lat="45.80031" lon="5.77833">
        <ele>234.6</ele>
        <time>2022-09-26T09:47:19Z</time>
      </trkpt>
      <trkpt lat="45.80037" lon="5.77835">
        <ele>234.6</ele>
        <time>2022-09-26T09:47:20Z</time>
      </trkpt>
      <trkpt lat="45.80043" lon="5.77836">
        <ele>234.6</ele>
        <time>2022-09-26T09:47:21Z</time>
      </trkpt>
      <trkpt lat="45.80049" lon="5.77837">
        <ele>234.6</ele>
        <time>2022-09-26T09:47:22Z</time>
      </trkpt>
      <trkpt lat="45.80055" lon="5.77839">
        <ele>234.6</ele>
        <time>2022-09-26T09:47:23Z</time>
      </trkpt>
      <trkpt lat="45.80061" lon="5.7784">
        <ele>234.6</ele>
        <time>2022-09-26T09:47:24Z</time>
      </trkpt>
      <trkpt lat="45.80066" lon="5.77841">
        <ele>234.6</ele>
        <time>2022-09-26T09:47:25Z</time>
      </trkpt>
      <trkpt lat="45.80072" lon="5.77842">
        <ele>234.6</ele>
        <time>2022-09-26T09:47:26Z</time>
      </trkpt>
      <trkpt lat="45.80078" lon="5.77843">
        <ele>234.6</ele>
        <time>2022-09-26T09:47:27Z</time>
      </trkpt>
      <trkpt lat="45.80084" lon="5.77844">
        <ele>234.6</ele>
        <time>2022-09-26T09:47:28Z</time>
      </trkpt>
      <trkpt lat="45.80089" lon="5.77846">
        <ele>234.6</ele>
        <time>2022-09-26T09:47:29Z</time>
      </trkpt>
      <trkpt lat="45.80095" lon="5.77846">
        <ele>234.6</ele>
        <time>2022-09-26T09:47:30Z</time>
      </trkpt>
      <trkpt lat="45.80101" lon="5.77846">
        <ele>234.6</ele>
        <time>2022-09-26T09:47:31Z</time>
      </trkpt>
      <trkpt lat="45.80107" lon="5.77848">
        <ele>234.6</ele>
        <time>2022-09-26T09:47:32Z</time>
      </trkpt>
      <trkpt lat="45.80113" lon="5.7785">
        <ele>234.6</ele>
        <time>2022-09-26T09:47:33Z</time>
      </trkpt>
      <trkpt lat="45.80118" lon="5.77851">
        <ele>234.6</ele>
        <time>2022-09-26T09:47:34Z</time>
      </trkpt>
      <trkpt lat="45.80124" lon="5.77852">
        <ele>234.5</ele>
        <time>2022-09-26T09:47:35Z</time>
      </trkpt>
      <trkpt lat="45.8013" lon="5.77853">
        <ele>234.5</ele>
        <time>2022-09-26T09:47:36Z</time>
      </trkpt>
      <trkpt lat="45.80135" lon="5.77855">
        <ele>234.5</ele>
        <time>2022-09-26T09:47:37Z</time>
      </trkpt>
      <trkpt lat="45.80141" lon="5.77856">
        <ele>234.5</ele>
        <time>2022-09-26T09:47:38Z</time>
      </trkpt>
      <trkpt lat="45.80147" lon="5.77857">
        <ele>234.5</ele>
        <time>2022-09-26T09:47:39Z</time>
      </trkpt>
      <trkpt lat="45.80153" lon="5.77857">
        <ele>234.5</ele>
        <time>2022-09-26T09:47:40Z</time>
      </trkpt>
      <trkpt lat="45.80159" lon="5.77858">
        <ele>234.5</ele>
        <time>2022-09-26T09:47:41Z</time>
      </trkpt>
      <trkpt lat="45.80165" lon="5.77861">
        <ele>234.5</ele>
        <time>2022-09-26T09:47:42Z</time>
      </trkpt>
      <trkpt lat="45.80171" lon="5.77861">
        <ele>234.5</ele>
        <time>2022-09-26T09:47:43Z</time>
      </trkpt>
      <trkpt lat="45.80176" lon="5.77863">
        <ele>234.5</ele>
        <time>2022-09-26T09:47:44Z</time>
      </trkpt>
      <trkpt lat="45.80182" lon="5.77863">
        <ele>234.5</ele>
        <time>2022-09-26T09:47:45Z</time>
      </trkpt>
      <trkpt lat="45.80187" lon="5.77866">
        <ele>234.5</ele>
        <time>2022-09-26T09:47:46Z</time>
      </trkpt>
      <trkpt lat="45.80193" lon="5.77866">
        <ele>234.5</ele>
        <time>2022-09-26T09:47:47Z</time>
      </trkpt>
      <trkpt lat="45.80205" lon="5.77869">
        <ele>234.5</ele>
        <time>2022-09-26T09:47:48Z</time>
      </trkpt>
      <trkpt lat="45.80211" lon="5.7787">
        <ele>234.5</ele>
        <time>2022-09-26T09:47:49Z</time>
      </trkpt>
      <trkpt lat="45.80217" lon="5.77871">
        <ele>234.5</ele>
        <time>2022-09-26T09:47:50Z</time>
      </trkpt>
      <trkpt lat="45.80223" lon="5.77873">
        <ele>234.5</ele>
        <time>2022-09-26T09:47:51Z</time>
      </trkpt>
      <trkpt lat="45.80228" lon="5.77874">
        <ele>234.5</ele>
        <time>2022-09-26T09:47:52Z</time>
      </trkpt>
      <trkpt lat="45.80234" lon="5.77874">
        <ele>234.5</ele>
        <time>2022-09-26T09:47:53Z</time>
      </trkpt>
      <trkpt lat="45.8024" lon="5.77876">
        <ele>234.5</ele>
        <time>2022-09-26T09:47:54Z</time>
      </trkpt>
      <trkpt lat="45.80246" lon="5.77877">
        <ele>234.5</ele>
        <time>2022-09-26T09:47:55Z</time>
      </trkpt>
      <trkpt lat="45.80251" lon="5.77878">
        <ele>234.5</ele>
        <time>2022-09-26T09:47:56Z</time>
      </trkpt>
      <trkpt lat="45.80257" lon="5.77879">
        <ele>234.5</ele>
        <time>2022-09-26T09:47:57Z</time>
      </trkpt>
      <trkpt lat="45.80263" lon="5.7788">
        <ele>234.5</ele>
        <time>2022-09-26T09:47:58Z</time>
      </trkpt>
      <trkpt lat="45.80269" lon="5.77881">
        <ele>234.5</ele>
        <time>2022-09-26T09:47:59Z</time>
      </trkpt>
      <trkpt lat="45.80275" lon="5.77883">
        <ele>234.5</ele>
        <time>2022-09-26T09:48:00Z</time>
      </trkpt>
      <trkpt lat="45.8028" lon="5.77884">
        <ele>234.5</ele>
        <time>2022-09-26T09:48:01Z</time>
      </trkpt>
      <trkpt lat="45.80286" lon="5.77885">
        <ele>234.5</ele>
        <time>2022-09-26T09:48:02Z</time>
      </trkpt>
      <trkpt lat="45.80292" lon="5.77887">
        <ele>234.5</ele>
        <time>2022-09-26T09:48:03Z</time>
      </trkpt>
      <trkpt lat="45.80298" lon="5.77888">
        <ele>234.4</ele>
        <time>2022-09-26T09:48:04Z</time>
      </trkpt>
      <trkpt lat="45.80304" lon="5.77889">
        <ele>234.4</ele>
        <time>2022-09-26T09:48:05Z</time>
      </trkpt>
      <trkpt lat="45.80309" lon="5.7789">
        <ele>234.4</ele>
        <time>2022-09-26T09:48:06Z</time>
      </trkpt>
      <trkpt lat="45.80315" lon="5.77891">
        <ele>234.4</ele>
        <time>2022-09-26T09:48:07Z</time>
      </trkpt>
      <trkpt lat="45.80321" lon="5.77893">
        <ele>234.4</ele>
        <time>2022-09-26T09:48:08Z</time>
      </trkpt>
      <trkpt lat="45.80326" lon="5.77894">
        <ele>234.4</ele>
        <time>2022-09-26T09:48:09Z</time>
      </trkpt>
      <trkpt lat="45.80332" lon="5.77895">
        <ele>234.4</ele>
        <time>2022-09-26T09:48:10Z</time>
      </trkpt>
      <trkpt lat="45.80338" lon="5.77896">
        <ele>234.4</ele>
        <time>2022-09-26T09:48:11Z</time>
      </trkpt>
      <trkpt lat="45.80344" lon="5.77897">
        <ele>234.4</ele>
        <time>2022-09-26T09:48:12Z</time>
      </trkpt>
      <trkpt lat="45.8035" lon="5.77899">
        <ele>234.4</ele>
        <time>2022-09-26T09:48:13Z</time>
      </trkpt>
      <trkpt lat="45.80355" lon="5.77899">
        <ele>234.4</ele>
        <time>2022-09-26T09:48:14Z</time>
      </trkpt>
      <trkpt lat="45.80361" lon="5.77901">
        <ele>234.4</ele>
        <time>2022-09-26T09:48:15Z</time>
      </trkpt>
      <trkpt lat="45.80367" lon="5.77902">
        <ele>234.4</ele>
        <time>2022-09-26T09:48:16Z</time>
      </trkpt>
      <trkpt lat="45.80373" lon="5.77904">
        <ele>234.4</ele>
        <time>2022-09-26T09:48:17Z</time>
      </trkpt>
      <trkpt lat="45.80379" lon="5.77904">
        <ele>234.4</ele>
        <time>2022-09-26T09:48:18Z</time>
      </trkpt>
      <trkpt lat="45.80385" lon="5.77906">
        <ele>234.5</ele>
        <time>2022-09-26T09:48:19Z</time>
      </trkpt>
      <trkpt lat="45.80391" lon="5.77907">
        <ele>234.5</ele>
        <time>2022-09-26T09:48:20Z</time>
      </trkpt>
      <trkpt lat="45.80396" lon="5.77908">
        <ele>234.5</ele>
        <time>2022-09-26T09:48:21Z</time>
      </trkpt>
      <trkpt lat="45.80402" lon="5.77909">
        <ele>234.5</ele>
        <time>2022-09-26T09:48:22Z</time>
      </trkpt>
      <trkpt lat="45.80408" lon="5.7791">
        <ele>234.4</ele>
        <time>2022-09-26T09:48:23Z</time>
      </trkpt>
      <trkpt lat="45.80413" lon="5.77912">
        <ele>234.4</ele>
        <time>2022-09-26T09:48:24Z</time>
      </trkpt>
      <trkpt lat="45.80419" lon="5.77914">
        <ele>234.4</ele>
        <time>2022-09-26T09:48:25Z</time>
      </trkpt>
      <trkpt lat="45.80424" lon="5.77914">
        <ele>234.4</ele>
        <time>2022-09-26T09:48:26Z</time>
      </trkpt>
      <trkpt lat="45.8043" lon="5.77915">
        <ele>234.4</ele>
        <time>2022-09-26T09:48:27Z</time>
      </trkpt>
      <trkpt lat="45.80436" lon="5.77917">
        <ele>234.4</ele>
        <time>2022-09-26T09:48:28Z</time>
      </trkpt>
      <trkpt lat="45.80441" lon="5.77918">
        <ele>234.4</ele>
        <time>2022-09-26T09:48:29Z</time>
      </trkpt>
      <trkpt lat="45.80447" lon="5.77919">
        <ele>234.4</ele>
        <time>2022-09-26T09:48:30Z</time>
      </trkpt>
      <trkpt lat="45.80452" lon="5.7792">
        <ele>234.5</ele>
        <time>2022-09-26T09:48:31Z</time>
      </trkpt>
      <trkpt lat="45.80458" lon="5.77922">
        <ele>234.5</ele>
        <time>2022-09-26T09:48:32Z</time>
      </trkpt>
      <trkpt lat="45.80463" lon="5.77923">
        <ele>234.5</ele>
        <time>2022-09-26T09:48:33Z</time>
      </trkpt>
      <trkpt lat="45.80469" lon="5.77924">
        <ele>234.4</ele>
        <time>2022-09-26T09:48:34Z</time>
      </trkpt>
      <trkpt lat="45.80475" lon="5.77925">
        <ele>234.4</ele>
        <time>2022-09-26T09:48:35Z</time>
      </trkpt>
      <trkpt lat="45.8048" lon="5.77926">
        <ele>234.4</ele>
        <time>2022-09-26T09:48:36Z</time>
      </trkpt>
      <trkpt lat="45.80486" lon="5.77927">
        <ele>234.4</ele>
        <time>2022-09-26T09:48:37Z</time>
      </trkpt>
      <trkpt lat="45.80492" lon="5.77928">
        <ele>234.4</ele>
        <time>2022-09-26T09:48:38Z</time>
      </trkpt>
      <trkpt lat="45.80497" lon="5.7793">
        <ele>234.4</ele>
        <time>2022-09-26T09:48:39Z</time>
      </trkpt>
      <trkpt lat="45.80503" lon="5.77931">
        <ele>234.4</ele>
        <time>2022-09-26T09:48:40Z</time>
      </trkpt>
      <trkpt lat="45.80509" lon="5.77932">
        <ele>234.4</ele>
        <time>2022-09-26T09:48:41Z</time>
      </trkpt>
      <trkpt lat="45.80514" lon="5.77933">
        <ele>234.4</ele>
        <time>2022-09-26T09:48:42Z</time>
      </trkpt>
      <trkpt lat="45.8052" lon="5.77934">
        <ele>234.4</ele>
        <time>2022-09-26T09:48:43Z</time>
      </trkpt>
      <trkpt lat="45.80526" lon="5.77935">
        <ele>234.4</ele>
        <time>2022-09-26T09:48:44Z</time>
      </trkpt>
      <trkpt lat="45.80532" lon="5.77937">
        <ele>234.4</ele>
        <time>2022-09-26T09:48:45Z</time>
      </trkpt>
      <trkpt lat="45.80537" lon="5.77938">
        <ele>234.4</ele>
        <time>2022-09-26T09:48:46Z</time>
      </trkpt>
      <trkpt lat="45.80543" lon="5.77939">
        <ele>234.4</ele>
        <time>2022-09-26T09:48:47Z</time>
      </trkpt>
      <trkpt lat="45.80549" lon="5.7794">
        <ele>234.4</ele>
        <time>2022-09-26T09:48:48Z</time>
      </trkpt>
      <trkpt lat="45.80554" lon="5.77941">
        <ele>234.4</ele>
        <time>2022-09-26T09:48:49Z</time>
      </trkpt>
      <trkpt lat="45.8056" lon="5.77943">
        <ele>234.4</ele>
        <time>2022-09-26T09:48:50Z</time>
      </trkpt>
      <trkpt lat="45.80565" lon="5.77944">
        <ele>234.4</ele>
        <time>2022-09-26T09:48:51Z</time>
      </trkpt>
      <trkpt lat="45.80571" lon="5.77946">
        <ele>234.4</ele>
        <time>2022-09-26T09:48:52Z</time>
      </trkpt>
      <trkpt lat="45.80576" lon="5.77947">
        <ele>234.4</ele>
        <time>2022-09-26T09:48:54Z</time>
      </trkpt>
      <trkpt lat="45.80582" lon="5.77948">
        <ele>234.5</ele>
        <time>2022-09-26T09:48:55Z</time>
      </trkpt>
      <trkpt lat="45.80588" lon="5.7795">
        <ele>234.5</ele>
        <time>2022-09-26T09:48:56Z</time>
      </trkpt>
      <trkpt lat="45.80592" lon="5.77951">
        <ele>234.5</ele>
        <time>2022-09-26T09:48:57Z</time>
      </trkpt>
      <trkpt lat="45.80598" lon="5.77953">
        <ele>234.4</ele>
        <time>2022-09-26T09:48:58Z</time>
      </trkpt>
      <trkpt lat="45.80603" lon="5.77955">
        <ele>234.4</ele>
        <time>2022-09-26T09:48:59Z</time>
      </trkpt>
      <trkpt lat="45.80609" lon="5.77957">
        <ele>234.4</ele>
        <time>2022-09-26T09:49:00Z</time>
      </trkpt>
      <trkpt lat="45.80614" lon="5.77959">
        <ele>234.4</ele>
        <time>2022-09-26T09:49:01Z</time>
      </trkpt>
      <trkpt lat="45.80619" lon="5.77961">
        <ele>234.5</ele>
        <time>2022-09-26T09:49:02Z</time>
      </trkpt>
      <trkpt lat="45.80624" lon="5.77963">
        <ele>234.5</ele>
        <time>2022-09-26T09:49:03Z</time>
      </trkpt>
      <trkpt lat="45.80629" lon="5.77966">
        <ele>234.5</ele>
        <time>2022-09-26T09:49:04Z</time>
      </trkpt>
      <trkpt lat="45.80634" lon="5.77968">
        <ele>234.5</ele>
        <time>2022-09-26T09:49:05Z</time>
      </trkpt>
      <trkpt lat="45.80639" lon="5.7797">
        <ele>234.5</ele>
        <time>2022-09-26T09:49:06Z</time>
      </trkpt>
      <trkpt lat="45.80643" lon="5.77972">
        <ele>234.5</ele>
        <time>2022-09-26T09:49:07Z</time>
      </trkpt>
      <trkpt lat="45.80647" lon="5.77973">
        <ele>234.5</ele>
        <time>2022-09-26T09:49:08Z</time>
      </trkpt>
      <trkpt lat="45.8065" lon="5.77975">
        <ele>234.5</ele>
        <time>2022-09-26T09:49:09Z</time>
      </trkpt>
      <trkpt lat="45.80654" lon="5.77977">
        <ele>234.5</ele>
        <time>2022-09-26T09:49:10Z</time>
      </trkpt>
      <trkpt lat="45.80657" lon="5.77978">
        <ele>234.5</ele>
        <time>2022-09-26T09:49:11Z</time>
      </trkpt>
      <trkpt lat="45.80661" lon="5.77981">
        <ele>234.4</ele>
        <time>2022-09-26T09:49:12Z</time>
      </trkpt>
      <trkpt lat="45.80665" lon="5.77983">
        <ele>234.4</ele>
        <time>2022-09-26T09:49:13Z</time>
      </trkpt>
      <trkpt lat="45.8067" lon="5.77985">
        <ele>234.4</ele>
        <time>2022-09-26T09:49:14Z</time>
      </trkpt>
      <trkpt lat="45.80674" lon="5.77988">
        <ele>234.4</ele>
        <time>2022-09-26T09:49:15Z</time>
      </trkpt>
      <trkpt lat="45.80677" lon="5.7799">
        <ele>234.4</ele>
        <time>2022-09-26T09:49:16Z</time>
      </trkpt>
      <trkpt lat="45.80682" lon="5.77991">
        <ele>234.4</ele>
        <time>2022-09-26T09:49:17Z</time>
      </trkpt>
      <trkpt lat="45.80686" lon="5.77994">
        <ele>234.4</ele>
        <time>2022-09-26T09:49:18Z</time>
      </trkpt>
      <trkpt lat="45.80691" lon="5.77996">
        <ele>234.4</ele>
        <time>2022-09-26T09:49:19Z</time>
      </trkpt>
      <trkpt lat="45.80695" lon="5.77998">
        <ele>234.4</ele>
        <time>2022-09-26T09:49:20Z</time>
      </trkpt>
      <trkpt lat="45.80699" lon="5.78001">
        <ele>234.4</ele>
        <time>2022-09-26T09:49:21Z</time>
      </trkpt>
      <trkpt lat="45.80703" lon="5.78003">
        <ele>234.5</ele>
        <time>2022-09-26T09:49:22Z</time>
      </trkpt>
      <trkpt lat="45.80708" lon="5.78006">
        <ele>234.5</ele>
        <time>2022-09-26T09:49:23Z</time>
      </trkpt>
      <trkpt lat="45.80711" lon="5.7801">
        <ele>234.6</ele>
        <time>2022-09-26T09:49:24Z</time>
      </trkpt>
      <trkpt lat="45.80715" lon="5.78015">
        <ele>234.7</ele>
        <time>2022-09-26T09:49:25Z</time>
      </trkpt>
      <trkpt lat="45.80717" lon="5.78021">
        <ele>234.8</ele>
        <time>2022-09-26T09:49:26Z</time>
      </trkpt>
      <trkpt lat="45.8072" lon="5.78026">
        <ele>235</ele>
        <time>2022-09-26T09:49:27Z</time>
      </trkpt>
      <trkpt lat="45.80722" lon="5.78031">
        <ele>235.1</ele>
        <time>2022-09-26T09:49:28Z</time>
      </trkpt>
      <trkpt lat="45.80724" lon="5.78036">
        <ele>235.3</ele>
        <time>2022-09-26T09:49:29Z</time>
      </trkpt>
      <trkpt lat="45.80726" lon="5.7804">
        <ele>235.4</ele>
        <time>2022-09-26T09:49:30Z</time>
      </trkpt>
      <trkpt lat="45.80728" lon="5.78044">
        <ele>235.6</ele>
        <time>2022-09-26T09:49:31Z</time>
      </trkpt>
      <trkpt lat="45.8073" lon="5.78048">
        <ele>235.7</ele>
        <time>2022-09-26T09:49:32Z</time>
      </trkpt>
      <trkpt lat="45.80732" lon="5.78052">
        <ele>235.9</ele>
        <time>2022-09-26T09:49:33Z</time>
      </trkpt>
      <trkpt lat="45.80734" lon="5.78055">
        <ele>236</ele>
        <time>2022-09-26T09:49:34Z</time>
      </trkpt>
      <trkpt lat="45.80735" lon="5.78058">
        <ele>236.1</ele>
        <time>2022-09-26T09:49:35Z</time>
      </trkpt>
      <trkpt lat="45.80736" lon="5.78061">
        <ele>236.3</ele>
        <time>2022-09-26T09:49:36Z</time>
      </trkpt>
      <trkpt lat="45.80738" lon="5.78066">
        <ele>236.5</ele>
        <time>2022-09-26T09:49:37Z</time>
      </trkpt>
      <trkpt lat="45.80739" lon="5.78068">
        <ele>236.6</ele>
        <time>2022-09-26T09:49:38Z</time>
      </trkpt>
      <trkpt lat="45.80742" lon="5.78073">
        <ele>236.8</ele>
        <time>2022-09-26T09:49:39Z</time>
      </trkpt>
      <trkpt lat="45.80742" lon="5.78074">
        <ele>236.8</ele>
        <time>2022-09-26T09:49:40Z</time>
      </trkpt>
      <trkpt lat="45.80742" lon="5.78079">
        <ele>237</ele>
        <time>2022-09-26T09:49:41Z</time>
      </trkpt>
      <trkpt lat="45.80742" lon="5.78081">
        <ele>237.1</ele>
        <time>2022-09-26T09:49:42Z</time>
      </trkpt>
      <trkpt lat="45.80741" lon="5.78085">
        <ele>237.1</ele>
        <time>2022-09-26T09:49:43Z</time>
      </trkpt>
      <trkpt lat="45.80741" lon="5.78091">
        <ele>237.2</ele>
        <time>2022-09-26T09:49:44Z</time>
      </trkpt>
      <trkpt lat="45.8074" lon="5.78093">
        <ele>237.2</ele>
        <time>2022-09-26T09:49:45Z</time>
      </trkpt>
      <trkpt lat="45.8074" lon="5.78097">
        <ele>237.2</ele>
        <time>2022-09-26T09:49:46Z</time>
      </trkpt>
      <trkpt lat="45.80738" lon="5.78101">
        <ele>237.3</ele>
        <time>2022-09-26T09:49:47Z</time>
      </trkpt>
      <trkpt lat="45.80735" lon="5.78104">
        <ele>237.3</ele>
        <time>2022-09-26T09:49:48Z</time>
      </trkpt>
      <trkpt lat="45.80734" lon="5.78107">
        <ele>237.3</ele>
        <time>2022-09-26T09:49:49Z</time>
      </trkpt>
      <trkpt lat="45.80734" lon="5.78112">
        <ele>237.4</ele>
        <time>2022-09-26T09:49:50Z</time>
      </trkpt>
      <trkpt lat="45.80735" lon="5.78118">
        <ele>237.5</ele>
        <time>2022-09-26T09:49:51Z</time>
      </trkpt>
      <trkpt lat="45.80737" lon="5.78122">
        <ele>237.5</ele>
        <time>2022-09-26T09:49:52Z</time>
      </trkpt>
      <trkpt lat="45.80741" lon="5.7813">
        <ele>237.6</ele>
        <time>2022-09-26T09:49:53Z</time>
      </trkpt>
      <trkpt lat="45.80743" lon="5.78133">
        <ele>237.7</ele>
        <time>2022-09-26T09:49:54Z</time>
      </trkpt>
      <trkpt lat="45.80746" lon="5.78137">
        <ele>237.7</ele>
        <time>2022-09-26T09:49:55Z</time>
      </trkpt>
      <trkpt lat="45.80747" lon="5.78139">
        <ele>237.8</ele>
        <time>2022-09-26T09:49:56Z</time>
      </trkpt>
      <trkpt lat="45.80748" lon="5.78143">
        <ele>237.8</ele>
        <time>2022-09-26T09:49:57Z</time>
      </trkpt>
      <trkpt lat="45.8075" lon="5.78146">
        <ele>237.9</ele>
        <time>2022-09-26T09:49:58Z</time>
      </trkpt>
      <trkpt lat="45.80752" lon="5.7815">
        <ele>237.9</ele>
        <time>2022-09-26T09:49:59Z</time>
      </trkpt>
      <trkpt lat="45.80754" lon="5.78153">
        <ele>238</ele>
        <time>2022-09-26T09:50:00Z</time>
      </trkpt>
      <trkpt lat="45.80756" lon="5.78157">
        <ele>238</ele>
        <time>2022-09-26T09:50:01Z</time>
      </trkpt>
      <trkpt lat="45.80758" lon="5.7816">
        <ele>238</ele>
        <time>2022-09-26T09:50:02Z</time>
      </trkpt>
      <trkpt lat="45.80759" lon="5.78164">
        <ele>238</ele>
        <time>2022-09-26T09:50:03Z</time>
      </trkpt>
      <trkpt lat="45.80762" lon="5.78168">
        <ele>238</ele>
        <time>2022-09-26T09:50:04Z</time>
      </trkpt>
      <trkpt lat="45.80763" lon="5.7817">
        <ele>238</ele>
        <time>2022-09-26T09:50:05Z</time>
      </trkpt>
      <trkpt lat="45.80765" lon="5.78173">
        <ele>238</ele>
        <time>2022-09-26T09:50:06Z</time>
      </trkpt>
      <trkpt lat="45.80767" lon="5.78176">
        <ele>238</ele>
        <time>2022-09-26T09:50:07Z</time>
      </trkpt>
      <trkpt lat="45.8077" lon="5.7818">
        <ele>238</ele>
        <time>2022-09-26T09:50:08Z</time>
      </trkpt>
      <trkpt lat="45.80773" lon="5.78184">
        <ele>237.9</ele>
        <time>2022-09-26T09:50:09Z</time>
      </trkpt>
      <trkpt lat="45.80777" lon="5.78187">
        <ele>237.8</ele>
        <time>2022-09-26T09:50:10Z</time>
      </trkpt>
      <trkpt lat="45.80781" lon="5.78188">
        <ele>237.8</ele>
        <time>2022-09-26T09:50:11Z</time>
      </trkpt>
      <trkpt lat="45.80785" lon="5.78188">
        <ele>237.7</ele>
        <time>2022-09-26T09:50:12Z</time>
      </trkpt>
      <trkpt lat="45.8079" lon="5.78188">
        <ele>237.7</ele>
        <time>2022-09-26T09:50:13Z</time>
      </trkpt>
      <trkpt lat="45.80794" lon="5.78188">
        <ele>237.6</ele>
        <time>2022-09-26T09:50:14Z</time>
      </trkpt>
      <trkpt lat="45.80799" lon="5.78188">
        <ele>237.6</ele>
        <time>2022-09-26T09:50:15Z</time>
      </trkpt>
      <trkpt lat="45.80804" lon="5.78188">
        <ele>237.5</ele>
        <time>2022-09-26T09:50:16Z</time>
      </trkpt>
      <trkpt lat="45.80808" lon="5.78188">
        <ele>237.5</ele>
        <time>2022-09-26T09:50:17Z</time>
      </trkpt>
      <trkpt lat="45.80813" lon="5.78187">
        <ele>237.5</ele>
        <time>2022-09-26T09:50:18Z</time>
      </trkpt>
      <trkpt lat="45.80817" lon="5.78185">
        <ele>237.6</ele>
        <time>2022-09-26T09:50:19Z</time>
      </trkpt>
      <trkpt lat="45.80821" lon="5.78183">
        <ele>237.6</ele>
        <time>2022-09-26T09:50:20Z</time>
      </trkpt>
      <trkpt lat="45.80824" lon="5.7818">
        <ele>237.6</ele>
        <time>2022-09-26T09:50:21Z</time>
      </trkpt>
      <trkpt lat="45.80828" lon="5.78177">
        <ele>237.6</ele>
        <time>2022-09-26T09:50:22Z</time>
      </trkpt>
      <trkpt lat="45.80831" lon="5.78174">
        <ele>237.7</ele>
        <time>2022-09-26T09:50:23Z</time>
      </trkpt>
      <trkpt lat="45.80835" lon="5.7817">
        <ele>237.7</ele>
        <time>2022-09-26T09:50:24Z</time>
      </trkpt>
      <trkpt lat="45.80839" lon="5.78167">
        <ele>237.8</ele>
        <time>2022-09-26T09:50:25Z</time>
      </trkpt>
      <trkpt lat="45.80842" lon="5.78165">
        <ele>237.9</ele>
        <time>2022-09-26T09:50:26Z</time>
      </trkpt>
      <trkpt lat="45.80846" lon="5.78164">
        <ele>237.9</ele>
        <time>2022-09-26T09:50:27Z</time>
      </trkpt>
      <trkpt lat="45.8085" lon="5.78164">
        <ele>238</ele>
        <time>2022-09-26T09:50:28Z</time>
      </trkpt>
      <trkpt lat="45.80854" lon="5.78166">
        <ele>238.1</ele>
        <time>2022-09-26T09:50:29Z</time>
      </trkpt>
      <trkpt lat="45.80858" lon="5.78168">
        <ele>238.1</ele>
        <time>2022-09-26T09:50:30Z</time>
      </trkpt>
      <trkpt lat="45.80859" lon="5.78171">
        <ele>238.2</ele>
        <time>2022-09-26T09:50:31Z</time>
      </trkpt>
      <trkpt lat="45.80861" lon="5.78177">
        <ele>238.3</ele>
        <time>2022-09-26T09:50:32Z</time>
      </trkpt>
      <trkpt lat="45.80861" lon="5.78182">
        <ele>238.3</ele>
        <time>2022-09-26T09:50:33Z</time>
      </trkpt>
      <trkpt lat="45.80861" lon="5.78186">
        <ele>238.4</ele>
        <time>2022-09-26T09:50:34Z</time>
      </trkpt>
      <trkpt lat="45.8086" lon="5.78192">
        <ele>238.5</ele>
        <time>2022-09-26T09:50:35Z</time>
      </trkpt>
      <trkpt lat="45.80859" lon="5.78197">
        <ele>238.5</ele>
        <time>2022-09-26T09:50:36Z</time>
      </trkpt>
      <trkpt lat="45.80858" lon="5.78202">
        <ele>238.6</ele>
        <time>2022-09-26T09:50:37Z</time>
      </trkpt>
      <trkpt lat="45.80858" lon="5.78207">
        <ele>238.6</ele>
        <time>2022-09-26T09:50:38Z</time>
      </trkpt>
      <trkpt lat="45.80858" lon="5.78212">
        <ele>238.7</ele>
        <time>2022-09-26T09:50:39Z</time>
      </trkpt>
      <trkpt lat="45.80858" lon="5.78217">
        <ele>238.7</ele>
        <time>2022-09-26T09:50:40Z</time>
      </trkpt>
      <trkpt lat="45.80858" lon="5.78222">
        <ele>238.7</ele>
        <time>2022-09-26T09:50:41Z</time>
      </trkpt>
      <trkpt lat="45.80859" lon="5.78228">
        <ele>238.7</ele>
        <time>2022-09-26T09:50:42Z</time>
      </trkpt>
      <trkpt lat="45.80859" lon="5.78233">
        <ele>238.7</ele>
        <time>2022-09-26T09:50:43Z</time>
      </trkpt>
      <trkpt lat="45.80859" lon="5.78239">
        <ele>238.7</ele>
        <time>2022-09-26T09:50:44Z</time>
      </trkpt>
      <trkpt lat="45.8086" lon="5.78245">
        <ele>238.8</ele>
        <time>2022-09-26T09:50:45Z</time>
      </trkpt>
      <trkpt lat="45.8086" lon="5.78251">
        <ele>238.8</ele>
        <time>2022-09-26T09:50:46Z</time>
      </trkpt>
      <trkpt lat="45.80861" lon="5.78257">
        <ele>238.8</ele>
        <time>2022-09-26T09:50:47Z</time>
      </trkpt>
      <trkpt lat="45.80861" lon="5.78263">
        <ele>238.8</ele>
        <time>2022-09-26T09:50:48Z</time>
      </trkpt>
      <trkpt lat="45.80862" lon="5.78268">
        <ele>238.8</ele>
        <time>2022-09-26T09:50:49Z</time>
      </trkpt>
      <trkpt lat="45.80862" lon="5.78275">
        <ele>238.8</ele>
        <time>2022-09-26T09:50:50Z</time>
      </trkpt>
      <trkpt lat="45.80862" lon="5.78281">
        <ele>238.8</ele>
        <time>2022-09-26T09:50:51Z</time>
      </trkpt>
      <trkpt lat="45.80863" lon="5.78286">
        <ele>238.8</ele>
        <time>2022-09-26T09:50:52Z</time>
      </trkpt>
      <trkpt lat="45.80863" lon="5.78292">
        <ele>238.7</ele>
        <time>2022-09-26T09:50:53Z</time>
      </trkpt>
      <trkpt lat="45.80863" lon="5.78298">
        <ele>238.7</ele>
        <time>2022-09-26T09:50:54Z</time>
      </trkpt>
      <trkpt lat="45.80864" lon="5.78304">
        <ele>238.7</ele>
        <time>2022-09-26T09:50:55Z</time>
      </trkpt>
      <trkpt lat="45.80864" lon="5.78309">
        <ele>238.7</ele>
        <time>2022-09-26T09:50:56Z</time>
      </trkpt>
      <trkpt lat="45.80864" lon="5.78315">
        <ele>238.6</ele>
        <time>2022-09-26T09:50:57Z</time>
      </trkpt>
      <trkpt lat="45.80864" lon="5.78321">
        <ele>238.6</ele>
        <time>2022-09-26T09:50:58Z</time>
      </trkpt>
      <trkpt lat="45.80865" lon="5.78327">
        <ele>238.6</ele>
        <time>2022-09-26T09:51:00Z</time>
      </trkpt>
      <trkpt lat="45.80865" lon="5.78332">
        <ele>238.5</ele>
        <time>2022-09-26T09:51:01Z</time>
      </trkpt>
      <trkpt lat="45.80866" lon="5.78338">
        <ele>238.5</ele>
        <time>2022-09-26T09:51:02Z</time>
      </trkpt>
      <trkpt lat="45.80866" lon="5.78344">
        <ele>238.4</ele>
        <time>2022-09-26T09:51:03Z</time>
      </trkpt>
      <trkpt lat="45.80867" lon="5.78351">
        <ele>238.4</ele>
        <time>2022-09-26T09:51:04Z</time>
      </trkpt>
      <trkpt lat="45.80867" lon="5.78358">
        <ele>238.3</ele>
        <time>2022-09-26T09:51:05Z</time>
      </trkpt>
      <trkpt lat="45.80867" lon="5.78364">
        <ele>238.2</ele>
        <time>2022-09-26T09:51:06Z</time>
      </trkpt>
      <trkpt lat="45.80868" lon="5.7837">
        <ele>238.2</ele>
        <time>2022-09-26T09:51:07Z</time>
      </trkpt>
      <trkpt lat="45.80869" lon="5.78376">
        <ele>238.1</ele>
        <time>2022-09-26T09:51:08Z</time>
      </trkpt>
      <trkpt lat="45.80872" lon="5.7838">
        <ele>238</ele>
        <time>2022-09-26T09:51:09Z</time>
      </trkpt>
      <trkpt lat="45.80875" lon="5.78383">
        <ele>238</ele>
        <time>2022-09-26T09:51:10Z</time>
      </trkpt>
      <trkpt lat="45.8088" lon="5.78384">
        <ele>238</ele>
        <time>2022-09-26T09:51:11Z</time>
      </trkpt>
      <trkpt lat="45.80884" lon="5.78384">
        <ele>237.9</ele>
        <time>2022-09-26T09:51:12Z</time>
      </trkpt>
      <trkpt lat="45.80888" lon="5.78385">
        <ele>237.9</ele>
        <time>2022-09-26T09:51:13Z</time>
      </trkpt>
      <trkpt lat="45.80893" lon="5.78384">
        <ele>237.9</ele>
        <time>2022-09-26T09:51:14Z</time>
      </trkpt>
      <trkpt lat="45.80897" lon="5.78383">
        <ele>237.9</ele>
        <time>2022-09-26T09:51:15Z</time>
      </trkpt>
      <trkpt lat="45.80902" lon="5.78382">
        <ele>237.9</ele>
        <time>2022-09-26T09:51:16Z</time>
      </trkpt>
      <trkpt lat="45.80906" lon="5.78381">
        <ele>237.9</ele>
        <time>2022-09-26T09:51:17Z</time>
      </trkpt>
      <trkpt lat="45.80911" lon="5.78381">
        <ele>237.9</ele>
        <time>2022-09-26T09:51:18Z</time>
      </trkpt>
      <trkpt lat="45.80915" lon="5.78381">
        <ele>237.9</ele>
        <time>2022-09-26T09:51:19Z</time>
      </trkpt>
      <trkpt lat="45.8092" lon="5.78381">
        <ele>237.9</ele>
        <time>2022-09-26T09:51:20Z</time>
      </trkpt>
      <trkpt lat="45.80924" lon="5.78382">
        <ele>237.9</ele>
        <time>2022-09-26T09:51:21Z</time>
      </trkpt>
      <trkpt lat="45.80927" lon="5.78385">
        <ele>237.9</ele>
        <time>2022-09-26T09:51:22Z</time>
      </trkpt>
      <trkpt lat="45.80931" lon="5.78388">
        <ele>237.9</ele>
        <time>2022-09-26T09:51:23Z</time>
      </trkpt>
      <trkpt lat="45.80935" lon="5.78392">
        <ele>237.9</ele>
        <time>2022-09-26T09:51:24Z</time>
      </trkpt>
      <trkpt lat="45.80937" lon="5.78394">
        <ele>237.9</ele>
        <time>2022-09-26T09:51:25Z</time>
      </trkpt>
      <trkpt lat="45.8094" lon="5.78396">
        <ele>237.9</ele>
        <time>2022-09-26T09:51:26Z</time>
      </trkpt>
      <trkpt lat="45.80941" lon="5.78397">
        <ele>237.9</ele>
        <time>2022-09-26T09:51:27Z</time>
      </trkpt>
      <trkpt lat="45.80945" lon="5.78399">
        <ele>237.9</ele>
        <time>2022-09-26T09:51:28Z</time>
      </trkpt>
      <trkpt lat="45.80947" lon="5.784">
        <ele>237.9</ele>
        <time>2022-09-26T09:51:29Z</time>
      </trkpt>
      <trkpt lat="45.8095" lon="5.78402">
        <ele>237.8</ele>
        <time>2022-09-26T09:51:30Z</time>
      </trkpt>
      <trkpt lat="45.80953" lon="5.78405">
        <ele>237.8</ele>
        <time>2022-09-26T09:51:31Z</time>
      </trkpt>
      <trkpt lat="45.80956" lon="5.78408">
        <ele>237.8</ele>
        <time>2022-09-26T09:51:32Z</time>
      </trkpt>
      <trkpt lat="45.8096" lon="5.78412">
        <ele>237.7</ele>
        <time>2022-09-26T09:51:33Z</time>
      </trkpt>
      <trkpt lat="45.80963" lon="5.78415">
        <ele>237.7</ele>
        <time>2022-09-26T09:51:34Z</time>
      </trkpt>
      <trkpt lat="45.80967" lon="5.78419">
        <ele>237.7</ele>
        <time>2022-09-26T09:51:35Z</time>
      </trkpt>
      <trkpt lat="45.80975" lon="5.78426">
        <ele>237.6</ele>
        <time>2022-09-26T09:51:36Z</time>
      </trkpt>
      <trkpt lat="45.80979" lon="5.7843">
        <ele>237.6</ele>
        <time>2022-09-26T09:51:37Z</time>
      </trkpt>
      <trkpt lat="45.80983" lon="5.78433">
        <ele>237.6</ele>
        <time>2022-09-26T09:51:38Z</time>
      </trkpt>
      <trkpt lat="45.80987" lon="5.78437">
        <ele>237.6</ele>
        <time>2022-09-26T09:51:39Z</time>
      </trkpt>
      <trkpt lat="45.80991" lon="5.78441">
        <ele>237.6</ele>
        <time>2022-09-26T09:51:40Z</time>
      </trkpt>
      <trkpt lat="45.80995" lon="5.78444">
        <ele>237.6</ele>
        <time>2022-09-26T09:51:41Z</time>
      </trkpt>
      <trkpt lat="45.80999" lon="5.78448">
        <ele>237.6</ele>
        <time>2022-09-26T09:51:42Z</time>
      </trkpt>
      <trkpt lat="45.81003" lon="5.78452">
        <ele>237.6</ele>
        <time>2022-09-26T09:51:43Z</time>
      </trkpt>
      <trkpt lat="45.81008" lon="5.78456">
        <ele>237.6</ele>
        <time>2022-09-26T09:51:44Z</time>
      </trkpt>
      <trkpt lat="45.81012" lon="5.7846">
        <ele>237.6</ele>
        <time>2022-09-26T09:51:45Z</time>
      </trkpt>
      <trkpt lat="45.81016" lon="5.78464">
        <ele>237.6</ele>
        <time>2022-09-26T09:51:46Z</time>
      </trkpt>
      <trkpt lat="45.8102" lon="5.78468">
        <ele>237.7</ele>
        <time>2022-09-26T09:51:47Z</time>
      </trkpt>
      <trkpt lat="45.81025" lon="5.78471">
        <ele>237.7</ele>
        <time>2022-09-26T09:51:48Z</time>
      </trkpt>
      <trkpt lat="45.81029" lon="5.78475">
        <ele>237.7</ele>
        <time>2022-09-26T09:51:49Z</time>
      </trkpt>
      <trkpt lat="45.81033" lon="5.78479">
        <ele>237.7</ele>
        <time>2022-09-26T09:51:50Z</time>
      </trkpt>
      <trkpt lat="45.81037" lon="5.78483">
        <ele>237.7</ele>
        <time>2022-09-26T09:51:51Z</time>
      </trkpt>
      <trkpt lat="45.81041" lon="5.78488">
        <ele>237.7</ele>
        <time>2022-09-26T09:51:52Z</time>
      </trkpt>
      <trkpt lat="45.81045" lon="5.78492">
        <ele>237.7</ele>
        <time>2022-09-26T09:51:53Z</time>
      </trkpt>
      <trkpt lat="45.8105" lon="5.78496">
        <ele>237.7</ele>
        <time>2022-09-26T09:51:54Z</time>
      </trkpt>
      <trkpt lat="45.81054" lon="5.785">
        <ele>237.7</ele>
        <time>2022-09-26T09:51:55Z</time>
      </trkpt>
      <trkpt lat="45.81058" lon="5.78504">
        <ele>237.7</ele>
        <time>2022-09-26T09:51:56Z</time>
      </trkpt>
      <trkpt lat="45.81062" lon="5.78508">
        <ele>237.8</ele>
        <time>2022-09-26T09:51:57Z</time>
      </trkpt>
      <trkpt lat="45.81067" lon="5.78512">
        <ele>237.8</ele>
        <time>2022-09-26T09:51:58Z</time>
      </trkpt>
      <trkpt lat="45.81071" lon="5.78516">
        <ele>237.8</ele>
        <time>2022-09-26T09:51:59Z</time>
      </trkpt>
      <trkpt lat="45.81076" lon="5.7852">
        <ele>237.8</ele>
        <time>2022-09-26T09:52:00Z</time>
      </trkpt>
      <trkpt lat="45.8108" lon="5.78524">
        <ele>237.8</ele>
        <time>2022-09-26T09:52:01Z</time>
      </trkpt>
      <trkpt lat="45.81085" lon="5.78528">
        <ele>237.8</ele>
        <time>2022-09-26T09:52:02Z</time>
      </trkpt>
      <trkpt lat="45.81089" lon="5.78533">
        <ele>237.8</ele>
        <time>2022-09-26T09:52:03Z</time>
      </trkpt>
      <trkpt lat="45.81093" lon="5.78536">
        <ele>237.8</ele>
        <time>2022-09-26T09:52:04Z</time>
      </trkpt>
      <trkpt lat="45.81098" lon="5.7854">
        <ele>237.8</ele>
        <time>2022-09-26T09:52:05Z</time>
      </trkpt>
      <trkpt lat="45.81102" lon="5.78544">
        <ele>237.8</ele>
        <time>2022-09-26T09:52:06Z</time>
      </trkpt>
      <trkpt lat="45.81107" lon="5.78549">
        <ele>237.8</ele>
        <time>2022-09-26T09:52:07Z</time>
      </trkpt>
      <trkpt lat="45.81111" lon="5.78553">
        <ele>237.8</ele>
        <time>2022-09-26T09:52:08Z</time>
      </trkpt>
      <trkpt lat="45.81115" lon="5.78557">
        <ele>237.8</ele>
        <time>2022-09-26T09:52:09Z</time>
      </trkpt>
      <trkpt lat="45.8112" lon="5.78561">
        <ele>237.8</ele>
        <time>2022-09-26T09:52:10Z</time>
      </trkpt>
      <trkpt lat="45.81124" lon="5.78565">
        <ele>237.8</ele>
        <time>2022-09-26T09:52:11Z</time>
      </trkpt>
      <trkpt lat="45.81128" lon="5.78569">
        <ele>237.9</ele>
        <time>2022-09-26T09:52:12Z</time>
      </trkpt>
      <trkpt lat="45.81132" lon="5.78573">
        <ele>237.9</ele>
        <time>2022-09-26T09:52:13Z</time>
      </trkpt>
      <trkpt lat="45.81137" lon="5.78577">
        <ele>237.9</ele>
        <time>2022-09-26T09:52:14Z</time>
      </trkpt>
      <trkpt lat="45.81141" lon="5.78581">
        <ele>237.9</ele>
        <time>2022-09-26T09:52:15Z</time>
      </trkpt>
      <trkpt lat="45.81145" lon="5.78585">
        <ele>238</ele>
        <time>2022-09-26T09:52:16Z</time>
      </trkpt>
      <trkpt lat="45.81149" lon="5.78589">
        <ele>238</ele>
        <time>2022-09-26T09:52:17Z</time>
      </trkpt>
      <trkpt lat="45.81153" lon="5.78593">
        <ele>238</ele>
        <time>2022-09-26T09:52:18Z</time>
      </trkpt>
      <trkpt lat="45.81157" lon="5.78597">
        <ele>238.1</ele>
        <time>2022-09-26T09:52:19Z</time>
      </trkpt>
      <trkpt lat="45.81161" lon="5.786">
        <ele>238.1</ele>
        <time>2022-09-26T09:52:20Z</time>
      </trkpt>
      <trkpt lat="45.81165" lon="5.78603">
        <ele>238.1</ele>
        <time>2022-09-26T09:52:21Z</time>
      </trkpt>
      <trkpt lat="45.81168" lon="5.78607">
        <ele>238.1</ele>
        <time>2022-09-26T09:52:22Z</time>
      </trkpt>
      <trkpt lat="45.81172" lon="5.78611">
        <ele>238.2</ele>
        <time>2022-09-26T09:52:23Z</time>
      </trkpt>
      <trkpt lat="45.81177" lon="5.78615">
        <ele>238.2</ele>
        <time>2022-09-26T09:52:24Z</time>
      </trkpt>
      <trkpt lat="45.81181" lon="5.78619">
        <ele>238.2</ele>
        <time>2022-09-26T09:52:25Z</time>
      </trkpt>
      <trkpt lat="45.81185" lon="5.78623">
        <ele>238.3</ele>
        <time>2022-09-26T09:52:26Z</time>
      </trkpt>
      <trkpt lat="45.81189" lon="5.78627">
        <ele>238.3</ele>
        <time>2022-09-26T09:52:27Z</time>
      </trkpt>
      <trkpt lat="45.81194" lon="5.78631">
        <ele>238.4</ele>
        <time>2022-09-26T09:52:28Z</time>
      </trkpt>
      <trkpt lat="45.81197" lon="5.78635">
        <ele>238.5</ele>
        <time>2022-09-26T09:52:29Z</time>
      </trkpt>
      <trkpt lat="45.81201" lon="5.78638">
        <ele>238.5</ele>
        <time>2022-09-26T09:52:30Z</time>
      </trkpt>
      <trkpt lat="45.81204" lon="5.78641">
        <ele>238.6</ele>
        <time>2022-09-26T09:52:31Z</time>
      </trkpt>
      <trkpt lat="45.81208" lon="5.78645">
        <ele>238.7</ele>
        <time>2022-09-26T09:52:32Z</time>
      </trkpt>
      <trkpt lat="45.81211" lon="5.78647">
        <ele>238.7</ele>
        <time>2022-09-26T09:52:33Z</time>
      </trkpt>
      <trkpt lat="45.81213" lon="5.7865">
        <ele>238.8</ele>
        <time>2022-09-26T09:52:34Z</time>
      </trkpt>
      <trkpt lat="45.81216" lon="5.78652">
        <ele>238.8</ele>
        <time>2022-09-26T09:52:35Z</time>
      </trkpt>
      <trkpt lat="45.81218" lon="5.78654">
        <ele>238.9</ele>
        <time>2022-09-26T09:52:36Z</time>
      </trkpt>
      <trkpt lat="45.81221" lon="5.78657">
        <ele>238.9</ele>
        <time>2022-09-26T09:52:37Z</time>
      </trkpt>
      <trkpt lat="45.81224" lon="5.7866">
        <ele>238.9</ele>
        <time>2022-09-26T09:52:38Z</time>
      </trkpt>
      <trkpt lat="45.81225" lon="5.78661">
        <ele>238.9</ele>
        <time>2022-09-26T09:52:39Z</time>
      </trkpt>
      <trkpt lat="45.81228" lon="5.78664">
        <ele>239</ele>
        <time>2022-09-26T09:52:40Z</time>
      </trkpt>
      <trkpt lat="45.81229" lon="5.78665">
        <ele>239</ele>
        <time>2022-09-26T09:52:41Z</time>
      </trkpt>
      <trkpt lat="45.81232" lon="5.78668">
        <ele>239</ele>
        <time>2022-09-26T09:52:42Z</time>
      </trkpt>
      <trkpt lat="45.81234" lon="5.78668">
        <ele>239</ele>
        <time>2022-09-26T09:52:43Z</time>
      </trkpt>
      <trkpt lat="45.81236" lon="5.7867">
        <ele>239</ele>
        <time>2022-09-26T09:52:44Z</time>
      </trkpt>
      <trkpt lat="45.81239" lon="5.78673">
        <ele>239</ele>
        <time>2022-09-26T09:52:45Z</time>
      </trkpt>
      <trkpt lat="45.8124" lon="5.78674">
        <ele>239</ele>
        <time>2022-09-26T09:52:46Z</time>
      </trkpt>
      <trkpt lat="45.81243" lon="5.78677">
        <ele>239</ele>
        <time>2022-09-26T09:52:47Z</time>
      </trkpt>
      <trkpt lat="45.81245" lon="5.7868">
        <ele>239</ele>
        <time>2022-09-26T09:52:48Z</time>
      </trkpt>
      <trkpt lat="45.81248" lon="5.78682">
        <ele>238.9</ele>
        <time>2022-09-26T09:52:49Z</time>
      </trkpt>
      <trkpt lat="45.8125" lon="5.78685">
        <ele>238.9</ele>
        <time>2022-09-26T09:52:50Z</time>
      </trkpt>
      <trkpt lat="45.81253" lon="5.78687">
        <ele>238.8</ele>
        <time>2022-09-26T09:52:51Z</time>
      </trkpt>
      <trkpt lat="45.81255" lon="5.78689">
        <ele>238.7</ele>
        <time>2022-09-26T09:52:52Z</time>
      </trkpt>
      <trkpt lat="45.81258" lon="5.78692">
        <ele>238.6</ele>
        <time>2022-09-26T09:52:53Z</time>
      </trkpt>
      <trkpt lat="45.81261" lon="5.78694">
        <ele>238.5</ele>
        <time>2022-09-26T09:52:54Z</time>
      </trkpt>
      <trkpt lat="45.81264" lon="5.78698">
        <ele>238.3</ele>
        <time>2022-09-26T09:52:55Z</time>
      </trkpt>
      <trkpt lat="45.81267" lon="5.78702">
        <ele>238.2</ele>
        <time>2022-09-26T09:52:56Z</time>
      </trkpt>
      <trkpt lat="45.8127" lon="5.78706">
        <ele>238</ele>
        <time>2022-09-26T09:52:57Z</time>
      </trkpt>
      <trkpt lat="45.81273" lon="5.78711">
        <ele>237.7</ele>
        <time>2022-09-26T09:52:58Z</time>
      </trkpt>
      <trkpt lat="45.81276" lon="5.78718">
        <ele>237.5</ele>
        <time>2022-09-26T09:52:59Z</time>
      </trkpt>
      <trkpt lat="45.81278" lon="5.78724">
        <ele>237.3</ele>
        <time>2022-09-26T09:53:00Z</time>
      </trkpt>
      <trkpt lat="45.8128" lon="5.78732">
        <ele>237.1</ele>
        <time>2022-09-26T09:53:01Z</time>
      </trkpt>
      <trkpt lat="45.81281" lon="5.78739">
        <ele>237</ele>
        <time>2022-09-26T09:53:02Z</time>
      </trkpt>
      <trkpt lat="45.81281" lon="5.78747">
        <ele>236.9</ele>
        <time>2022-09-26T09:53:03Z</time>
      </trkpt>
      <trkpt lat="45.81282" lon="5.78754">
        <ele>236.7</ele>
        <time>2022-09-26T09:53:04Z</time>
      </trkpt>
      <trkpt lat="45.81281" lon="5.78759">
        <ele>236.6</ele>
        <time>2022-09-26T09:53:06Z</time>
      </trkpt>
      <trkpt lat="45.81282" lon="5.78765">
        <ele>236.5</ele>
        <time>2022-09-26T09:53:07Z</time>
      </trkpt>
      <trkpt lat="45.81281" lon="5.7877">
        <ele>236.5</ele>
        <time>2022-09-26T09:53:08Z</time>
      </trkpt>
      <trkpt lat="45.8128" lon="5.78775">
        <ele>236.3</ele>
        <time>2022-09-26T09:53:09Z</time>
      </trkpt>
      <trkpt lat="45.81277" lon="5.78779">
        <ele>236.2</ele>
        <time>2022-09-26T09:53:10Z</time>
      </trkpt>
      <trkpt lat="45.81274" lon="5.7878">
        <ele>236.1</ele>
        <time>2022-09-26T09:53:11Z</time>
      </trkpt>
      <trkpt lat="45.8127" lon="5.78782">
        <ele>236.1</ele>
        <time>2022-09-26T09:53:12Z</time>
      </trkpt>
      <trkpt lat="45.81267" lon="5.78782">
        <ele>236</ele>
        <time>2022-09-26T09:53:13Z</time>
      </trkpt>
      <trkpt lat="45.81262" lon="5.78784">
        <ele>235.9</ele>
        <time>2022-09-26T09:53:14Z</time>
      </trkpt>
      <trkpt lat="45.81258" lon="5.78784">
        <ele>235.8</ele>
        <time>2022-09-26T09:53:15Z</time>
      </trkpt>
      <trkpt lat="45.81254" lon="5.78784">
        <ele>235.8</ele>
        <time>2022-09-26T09:53:16Z</time>
      </trkpt>
      <trkpt lat="45.81249" lon="5.78785">
        <ele>235.8</ele>
        <time>2022-09-26T09:53:17Z</time>
      </trkpt>
      <trkpt lat="45.81245" lon="5.78785">
        <ele>235.7</ele>
        <time>2022-09-26T09:53:18Z</time>
      </trkpt>
      <trkpt lat="45.81241" lon="5.78786">
        <ele>235.7</ele>
        <time>2022-09-26T09:53:19Z</time>
      </trkpt>
      <trkpt lat="45.81237" lon="5.78787">
        <ele>235.7</ele>
        <time>2022-09-26T09:53:20Z</time>
      </trkpt>
      <trkpt lat="45.81232" lon="5.78787">
        <ele>235.7</ele>
        <time>2022-09-26T09:53:21Z</time>
      </trkpt>
      <trkpt lat="45.81228" lon="5.78787">
        <ele>235.8</ele>
        <time>2022-09-26T09:53:22Z</time>
      </trkpt>
      <trkpt lat="45.81223" lon="5.78787">
        <ele>235.8</ele>
        <time>2022-09-26T09:53:23Z</time>
      </trkpt>
      <trkpt lat="45.8122" lon="5.78786">
        <ele>235.8</ele>
        <time>2022-09-26T09:53:24Z</time>
      </trkpt>
      <trkpt lat="45.81216" lon="5.78785">
        <ele>235.9</ele>
        <time>2022-09-26T09:53:25Z</time>
      </trkpt>
      <trkpt lat="45.81212" lon="5.78785">
        <ele>235.9</ele>
        <time>2022-09-26T09:53:26Z</time>
      </trkpt>
      <trkpt lat="45.81207" lon="5.78785">
        <ele>236</ele>
        <time>2022-09-26T09:53:27Z</time>
      </trkpt>
      <trkpt lat="45.81204" lon="5.78786">
        <ele>236</ele>
        <time>2022-09-26T09:53:28Z</time>
      </trkpt>
      <trkpt lat="45.81201" lon="5.78788">
        <ele>236.1</ele>
        <time>2022-09-26T09:53:29Z</time>
      </trkpt>
      <trkpt lat="45.81196" lon="5.7879">
        <ele>236.2</ele>
        <time>2022-09-26T09:53:30Z</time>
      </trkpt>
      <trkpt lat="45.81193" lon="5.78793">
        <ele>236.2</ele>
        <time>2022-09-26T09:53:31Z</time>
      </trkpt>
      <trkpt lat="45.8119" lon="5.78795">
        <ele>236.3</ele>
        <time>2022-09-26T09:53:32Z</time>
      </trkpt>
      <trkpt lat="45.81187" lon="5.78798">
        <ele>236.3</ele>
        <time>2022-09-26T09:53:33Z</time>
      </trkpt>
      <trkpt lat="45.81184" lon="5.788">
        <ele>236.3</ele>
        <time>2022-09-26T09:53:34Z</time>
      </trkpt>
      <trkpt lat="45.81181" lon="5.78801">
        <ele>236.3</ele>
        <time>2022-09-26T09:53:35Z</time>
      </trkpt>
      <trkpt lat="45.81178" lon="5.788">
        <ele>236.4</ele>
        <time>2022-09-26T09:53:36Z</time>
      </trkpt>
      <trkpt lat="45.81174" lon="5.788">
        <ele>236.4</ele>
        <time>2022-09-26T09:53:37Z</time>
      </trkpt>
      <trkpt lat="45.81171" lon="5.788">
        <ele>236.4</ele>
        <time>2022-09-26T09:53:38Z</time>
      </trkpt>
      <trkpt lat="45.81167" lon="5.78799">
        <ele>236.3</ele>
        <time>2022-09-26T09:53:39Z</time>
      </trkpt>
      <trkpt lat="45.81163" lon="5.78799">
        <ele>236.3</ele>
        <time>2022-09-26T09:53:40Z</time>
      </trkpt>
      <trkpt lat="45.81159" lon="5.78798">
        <ele>236.3</ele>
        <time>2022-09-26T09:53:41Z</time>
      </trkpt>
      <trkpt lat="45.81155" lon="5.78798">
        <ele>236.3</ele>
        <time>2022-09-26T09:53:42Z</time>
      </trkpt>
      <trkpt lat="45.81152" lon="5.78798">
        <ele>236.3</ele>
        <time>2022-09-26T09:53:43Z</time>
      </trkpt>
      <trkpt lat="45.81147" lon="5.78798">
        <ele>236.3</ele>
        <time>2022-09-26T09:53:44Z</time>
      </trkpt>
      <trkpt lat="45.81144" lon="5.78797">
        <ele>236.3</ele>
        <time>2022-09-26T09:53:45Z</time>
      </trkpt>
      <trkpt lat="45.81139" lon="5.78797">
        <ele>236.3</ele>
        <time>2022-09-26T09:53:46Z</time>
      </trkpt>
      <trkpt lat="45.81134" lon="5.78797">
        <ele>236.3</ele>
        <time>2022-09-26T09:53:47Z</time>
      </trkpt>
      <trkpt lat="45.8113" lon="5.78796">
        <ele>236.3</ele>
        <time>2022-09-26T09:53:48Z</time>
      </trkpt>
      <trkpt lat="45.81126" lon="5.78795">
        <ele>236.3</ele>
        <time>2022-09-26T09:53:49Z</time>
      </trkpt>
      <trkpt lat="45.81122" lon="5.78793">
        <ele>236.3</ele>
        <time>2022-09-26T09:53:50Z</time>
      </trkpt>
      <trkpt lat="45.81117" lon="5.78793">
        <ele>236.3</ele>
        <time>2022-09-26T09:53:51Z</time>
      </trkpt>
      <trkpt lat="45.81113" lon="5.78792">
        <ele>236.3</ele>
        <time>2022-09-26T09:53:52Z</time>
      </trkpt>
      <trkpt lat="45.81108" lon="5.78791">
        <ele>236.3</ele>
        <time>2022-09-26T09:53:53Z</time>
      </trkpt>
      <trkpt lat="45.81104" lon="5.78789">
        <ele>236.3</ele>
        <time>2022-09-26T09:53:54Z</time>
      </trkpt>
      <trkpt lat="45.81099" lon="5.78787">
        <ele>236.3</ele>
        <time>2022-09-26T09:53:55Z</time>
      </trkpt>
      <trkpt lat="45.81094" lon="5.78787">
        <ele>236.3</ele>
        <time>2022-09-26T09:53:56Z</time>
      </trkpt>
      <trkpt lat="45.81089" lon="5.78786">
        <ele>236.3</ele>
        <time>2022-09-26T09:53:57Z</time>
      </trkpt>
      <trkpt lat="45.81085" lon="5.78785">
        <ele>236.3</ele>
        <time>2022-09-26T09:53:58Z</time>
      </trkpt>
      <trkpt lat="45.8108" lon="5.78783">
        <ele>236.3</ele>
        <time>2022-09-26T09:53:59Z</time>
      </trkpt>
      <trkpt lat="45.81075" lon="5.78782">
        <ele>236.3</ele>
        <time>2022-09-26T09:54:00Z</time>
      </trkpt>
      <trkpt lat="45.8107" lon="5.7878">
        <ele>236.2</ele>
        <time>2022-09-26T09:54:01Z</time>
      </trkpt>
      <trkpt lat="45.81064" lon="5.7878">
        <ele>236.2</ele>
        <time>2022-09-26T09:54:02Z</time>
      </trkpt>
      <trkpt lat="45.8106" lon="5.78779">
        <ele>236.2</ele>
        <time>2022-09-26T09:54:03Z</time>
      </trkpt>
      <trkpt lat="45.81055" lon="5.78779">
        <ele>236.2</ele>
        <time>2022-09-26T09:54:04Z</time>
      </trkpt>
      <trkpt lat="45.81051" lon="5.78778">
        <ele>236.1</ele>
        <time>2022-09-26T09:54:05Z</time>
      </trkpt>
      <trkpt lat="45.81046" lon="5.7878">
        <ele>236.1</ele>
        <time>2022-09-26T09:54:06Z</time>
      </trkpt>
      <trkpt lat="45.81042" lon="5.78782">
        <ele>236.1</ele>
        <time>2022-09-26T09:54:07Z</time>
      </trkpt>
      <trkpt lat="45.81038" lon="5.78784">
        <ele>236.1</ele>
        <time>2022-09-26T09:54:08Z</time>
      </trkpt>
      <trkpt lat="45.81034" lon="5.78785">
        <ele>236.1</ele>
        <time>2022-09-26T09:54:09Z</time>
      </trkpt>
      <trkpt lat="45.8103" lon="5.78785">
        <ele>236</ele>
        <time>2022-09-26T09:54:10Z</time>
      </trkpt>
      <trkpt lat="45.81025" lon="5.78785">
        <ele>236</ele>
        <time>2022-09-26T09:54:11Z</time>
      </trkpt>
      <trkpt lat="45.81021" lon="5.78783">
        <ele>236</ele>
        <time>2022-09-26T09:54:12Z</time>
      </trkpt>
      <trkpt lat="45.81017" lon="5.78782">
        <ele>236</ele>
        <time>2022-09-26T09:54:13Z</time>
      </trkpt>
      <trkpt lat="45.81013" lon="5.78781">
        <ele>236</ele>
        <time>2022-09-26T09:54:14Z</time>
      </trkpt>
      <trkpt lat="45.81004" lon="5.7878">
        <ele>236</ele>
        <time>2022-09-26T09:54:15Z</time>
      </trkpt>
      <trkpt lat="45.81" lon="5.78779">
        <ele>236</ele>
        <time>2022-09-26T09:54:16Z</time>
      </trkpt>
      <trkpt lat="45.80997" lon="5.78775">
        <ele>236</ele>
        <time>2022-09-26T09:54:17Z</time>
      </trkpt>
      <trkpt lat="45.80993" lon="5.78771">
        <ele>235.9</ele>
        <time>2022-09-26T09:54:18Z</time>
      </trkpt>
      <trkpt lat="45.8099" lon="5.78767">
        <ele>235.9</ele>
        <time>2022-09-26T09:54:19Z</time>
      </trkpt>
      <trkpt lat="45.80986" lon="5.78765">
        <ele>235.9</ele>
        <time>2022-09-26T09:54:20Z</time>
      </trkpt>
      <trkpt lat="45.80981" lon="5.78763">
        <ele>235.9</ele>
        <time>2022-09-26T09:54:21Z</time>
      </trkpt>
      <trkpt lat="45.80977" lon="5.78763">
        <ele>235.9</ele>
        <time>2022-09-26T09:54:22Z</time>
      </trkpt>
      <trkpt lat="45.80973" lon="5.78764">
        <ele>235.9</ele>
        <time>2022-09-26T09:54:23Z</time>
      </trkpt>
      <trkpt lat="45.8097" lon="5.78768">
        <ele>235.9</ele>
        <time>2022-09-26T09:54:24Z</time>
      </trkpt>
      <trkpt lat="45.80968" lon="5.78772">
        <ele>235.9</ele>
        <time>2022-09-26T09:54:25Z</time>
      </trkpt>
      <trkpt lat="45.80967" lon="5.78776">
        <ele>235.9</ele>
        <time>2022-09-26T09:54:26Z</time>
      </trkpt>
      <trkpt lat="45.80967" lon="5.7878">
        <ele>235.9</ele>
        <time>2022-09-26T09:54:27Z</time>
      </trkpt>
      <trkpt lat="45.80967" lon="5.78785">
        <ele>235.8</ele>
        <time>2022-09-26T09:54:28Z</time>
      </trkpt>
      <trkpt lat="45.80968" lon="5.7879">
        <ele>235.8</ele>
        <time>2022-09-26T09:54:29Z</time>
      </trkpt>
      <trkpt lat="45.80968" lon="5.78794">
        <ele>235.7</ele>
        <time>2022-09-26T09:54:30Z</time>
      </trkpt>
      <trkpt lat="45.80969" lon="5.788">
        <ele>235.7</ele>
        <time>2022-09-26T09:54:31Z</time>
      </trkpt>
      <trkpt lat="45.80969" lon="5.78806">
        <ele>235.6</ele>
        <time>2022-09-26T09:54:32Z</time>
      </trkpt>
      <trkpt lat="45.80969" lon="5.78812">
        <ele>235.6</ele>
        <time>2022-09-26T09:54:33Z</time>
      </trkpt>
      <trkpt lat="45.80971" lon="5.78819">
        <ele>235.6</ele>
        <time>2022-09-26T09:54:34Z</time>
      </trkpt>
      <trkpt lat="45.80971" lon="5.78824">
        <ele>235.6</ele>
        <time>2022-09-26T09:54:35Z</time>
      </trkpt>
      <trkpt lat="45.80972" lon="5.78831">
        <ele>235.6</ele>
        <time>2022-09-26T09:54:36Z</time>
      </trkpt>
      <trkpt lat="45.80972" lon="5.78838">
        <ele>235.6</ele>
        <time>2022-09-26T09:54:37Z</time>
      </trkpt>
      <trkpt lat="45.80973" lon="5.78845">
        <ele>235.6</ele>
        <time>2022-09-26T09:54:38Z</time>
      </trkpt>
      <trkpt lat="45.80974" lon="5.78851">
        <ele>235.6</ele>
        <time>2022-09-26T09:54:39Z</time>
      </trkpt>
      <trkpt lat="45.80974" lon="5.78858">
        <ele>235.6</ele>
        <time>2022-09-26T09:54:40Z</time>
      </trkpt>
      <trkpt lat="45.80974" lon="5.78864">
        <ele>235.6</ele>
        <time>2022-09-26T09:54:41Z</time>
      </trkpt>
      <trkpt lat="45.80973" lon="5.7887">
        <ele>235.6</ele>
        <time>2022-09-26T09:54:42Z</time>
      </trkpt>
      <trkpt lat="45.80972" lon="5.78876">
        <ele>235.7</ele>
        <time>2022-09-26T09:54:43Z</time>
      </trkpt>
      <trkpt lat="45.80971" lon="5.7888">
        <ele>235.7</ele>
        <time>2022-09-26T09:54:44Z</time>
      </trkpt>
      <trkpt lat="45.80971" lon="5.78889">
        <ele>235.8</ele>
        <time>2022-09-26T09:54:45Z</time>
      </trkpt>
      <trkpt lat="45.80971" lon="5.78894">
        <ele>235.9</ele>
        <time>2022-09-26T09:54:46Z</time>
      </trkpt>
      <trkpt lat="45.80971" lon="5.789">
        <ele>235.9</ele>
        <time>2022-09-26T09:54:47Z</time>
      </trkpt>
      <trkpt lat="45.80971" lon="5.78904">
        <ele>235.9</ele>
        <time>2022-09-26T09:54:48Z</time>
      </trkpt>
      <trkpt lat="45.80971" lon="5.78909">
        <ele>236</ele>
        <time>2022-09-26T09:54:49Z</time>
      </trkpt>
      <trkpt lat="45.8097" lon="5.78914">
        <ele>236</ele>
        <time>2022-09-26T09:54:50Z</time>
      </trkpt>
      <trkpt lat="45.80969" lon="5.7892">
        <ele>236</ele>
        <time>2022-09-26T09:54:51Z</time>
      </trkpt>
      <trkpt lat="45.80967" lon="5.78926">
        <ele>236</ele>
        <time>2022-09-26T09:54:52Z</time>
      </trkpt>
      <trkpt lat="45.80964" lon="5.78931">
        <ele>236</ele>
        <time>2022-09-26T09:54:53Z</time>
      </trkpt>
      <trkpt lat="45.80961" lon="5.78935">
        <ele>235.9</ele>
        <time>2022-09-26T09:54:54Z</time>
      </trkpt>
      <trkpt lat="45.80958" lon="5.7894">
        <ele>235.9</ele>
        <time>2022-09-26T09:54:55Z</time>
      </trkpt>
      <trkpt lat="45.80955" lon="5.78945">
        <ele>235.9</ele>
        <time>2022-09-26T09:54:56Z</time>
      </trkpt>
      <trkpt lat="45.80953" lon="5.78951">
        <ele>235.8</ele>
        <time>2022-09-26T09:54:57Z</time>
      </trkpt>
      <trkpt lat="45.80952" lon="5.78956">
        <ele>235.8</ele>
        <time>2022-09-26T09:54:58Z</time>
      </trkpt>
      <trkpt lat="45.8095" lon="5.78963">
        <ele>235.8</ele>
        <time>2022-09-26T09:54:59Z</time>
      </trkpt>
      <trkpt lat="45.80947" lon="5.78967">
        <ele>235.8</ele>
        <time>2022-09-26T09:55:00Z</time>
      </trkpt>
      <trkpt lat="45.80946" lon="5.78973">
        <ele>235.7</ele>
        <time>2022-09-26T09:55:01Z</time>
      </trkpt>
      <trkpt lat="45.80943" lon="5.7898">
        <ele>235.7</ele>
        <time>2022-09-26T09:55:02Z</time>
      </trkpt>
      <trkpt lat="45.8094" lon="5.78986">
        <ele>235.7</ele>
        <time>2022-09-26T09:55:03Z</time>
      </trkpt>
      <trkpt lat="45.80938" lon="5.78991">
        <ele>235.7</ele>
        <time>2022-09-26T09:55:04Z</time>
      </trkpt>
      <trkpt lat="45.80937" lon="5.78997">
        <ele>235.7</ele>
        <time>2022-09-26T09:55:05Z</time>
      </trkpt>
      <trkpt lat="45.80935" lon="5.79003">
        <ele>235.7</ele>
        <time>2022-09-26T09:55:06Z</time>
      </trkpt>
      <trkpt lat="45.80933" lon="5.79009">
        <ele>235.7</ele>
        <time>2022-09-26T09:55:07Z</time>
      </trkpt>
      <trkpt lat="45.80931" lon="5.79015">
        <ele>235.7</ele>
        <time>2022-09-26T09:55:08Z</time>
      </trkpt>
      <trkpt lat="45.80929" lon="5.7902">
        <ele>235.6</ele>
        <time>2022-09-26T09:55:09Z</time>
      </trkpt>
      <trkpt lat="45.80928" lon="5.79026">
        <ele>235.6</ele>
        <time>2022-09-26T09:55:10Z</time>
      </trkpt>
      <trkpt lat="45.80926" lon="5.79031">
        <ele>235.6</ele>
        <time>2022-09-26T09:55:12Z</time>
      </trkpt>
      <trkpt lat="45.80924" lon="5.79037">
        <ele>235.6</ele>
        <time>2022-09-26T09:55:13Z</time>
      </trkpt>
      <trkpt lat="45.80922" lon="5.79042">
        <ele>235.6</ele>
        <time>2022-09-26T09:55:14Z</time>
      </trkpt>
      <trkpt lat="45.80921" lon="5.79048">
        <ele>235.6</ele>
        <time>2022-09-26T09:55:15Z</time>
      </trkpt>
      <trkpt lat="45.8092" lon="5.79054">
        <ele>235.6</ele>
        <time>2022-09-26T09:55:16Z</time>
      </trkpt>
      <trkpt lat="45.80918" lon="5.7906">
        <ele>235.6</ele>
        <time>2022-09-26T09:55:17Z</time>
      </trkpt>
      <trkpt lat="45.80917" lon="5.79066">
        <ele>235.6</ele>
        <time>2022-09-26T09:55:18Z</time>
      </trkpt>
      <trkpt lat="45.80916" lon="5.79073">
        <ele>235.5</ele>
        <time>2022-09-26T09:55:19Z</time>
      </trkpt>
      <trkpt lat="45.80914" lon="5.79079">
        <ele>235.5</ele>
        <time>2022-09-26T09:55:20Z</time>
      </trkpt>
      <trkpt lat="45.80913" lon="5.79087">
        <ele>235.5</ele>
        <time>2022-09-26T09:55:21Z</time>
      </trkpt>
      <trkpt lat="45.80912" lon="5.79093">
        <ele>235.5</ele>
        <time>2022-09-26T09:55:22Z</time>
      </trkpt>
      <trkpt lat="45.80911" lon="5.791">
        <ele>235.5</ele>
        <time>2022-09-26T09:55:23Z</time>
      </trkpt>
      <trkpt lat="45.80911" lon="5.79108">
        <ele>235.5</ele>
        <time>2022-09-26T09:55:24Z</time>
      </trkpt>
      <trkpt lat="45.80911" lon="5.79114">
        <ele>235.5</ele>
        <time>2022-09-26T09:55:25Z</time>
      </trkpt>
      <trkpt lat="45.8091" lon="5.79121">
        <ele>235.5</ele>
        <time>2022-09-26T09:55:26Z</time>
      </trkpt>
      <trkpt lat="45.80911" lon="5.79129">
        <ele>235.5</ele>
        <time>2022-09-26T09:55:27Z</time>
      </trkpt>
      <trkpt lat="45.80912" lon="5.79137">
        <ele>235.5</ele>
        <time>2022-09-26T09:55:28Z</time>
      </trkpt>
      <trkpt lat="45.80913" lon="5.79144">
        <ele>235.5</ele>
        <time>2022-09-26T09:55:29Z</time>
      </trkpt>
      <trkpt lat="45.80913" lon="5.79151">
        <ele>235.5</ele>
        <time>2022-09-26T09:55:30Z</time>
      </trkpt>
      <trkpt lat="45.80914" lon="5.79159">
        <ele>235.5</ele>
        <time>2022-09-26T09:55:31Z</time>
      </trkpt>
      <trkpt lat="45.80914" lon="5.79166">
        <ele>235.5</ele>
        <time>2022-09-26T09:55:32Z</time>
      </trkpt>
      <trkpt lat="45.80916" lon="5.79173">
        <ele>235.5</ele>
        <time>2022-09-26T09:55:33Z</time>
      </trkpt>
      <trkpt lat="45.80917" lon="5.7918">
        <ele>235.5</ele>
        <time>2022-09-26T09:55:34Z</time>
      </trkpt>
      <trkpt lat="45.80918" lon="5.79188">
        <ele>235.5</ele>
        <time>2022-09-26T09:55:35Z</time>
      </trkpt>
      <trkpt lat="45.80919" lon="5.79195">
        <ele>235.5</ele>
        <time>2022-09-26T09:55:36Z</time>
      </trkpt>
      <trkpt lat="45.80921" lon="5.79203">
        <ele>235.5</ele>
        <time>2022-09-26T09:55:37Z</time>
      </trkpt>
      <trkpt lat="45.80922" lon="5.7921">
        <ele>235.5</ele>
        <time>2022-09-26T09:55:38Z</time>
      </trkpt>
      <trkpt lat="45.80924" lon="5.79218">
        <ele>235.5</ele>
        <time>2022-09-26T09:55:39Z</time>
      </trkpt>
      <trkpt lat="45.80927" lon="5.79226">
        <ele>235.5</ele>
        <time>2022-09-26T09:55:40Z</time>
      </trkpt>
      <trkpt lat="45.80929" lon="5.79233">
        <ele>235.5</ele>
        <time>2022-09-26T09:55:41Z</time>
      </trkpt>
      <trkpt lat="45.80932" lon="5.7924">
        <ele>235.5</ele>
        <time>2022-09-26T09:55:42Z</time>
      </trkpt>
      <trkpt lat="45.80935" lon="5.79247">
        <ele>235.4</ele>
        <time>2022-09-26T09:55:43Z</time>
      </trkpt>
      <trkpt lat="45.80939" lon="5.79254">
        <ele>235.4</ele>
        <time>2022-09-26T09:55:44Z</time>
      </trkpt>
      <trkpt lat="45.80942" lon="5.7926">
        <ele>235.4</ele>
        <time>2022-09-26T09:55:45Z</time>
      </trkpt>
      <trkpt lat="45.80946" lon="5.79267">
        <ele>235.4</ele>
        <time>2022-09-26T09:55:46Z</time>
      </trkpt>
      <trkpt lat="45.80949" lon="5.79274">
        <ele>235.4</ele>
        <time>2022-09-26T09:55:47Z</time>
      </trkpt>
      <trkpt lat="45.80953" lon="5.7928">
        <ele>235.4</ele>
        <time>2022-09-26T09:55:48Z</time>
      </trkpt>
      <trkpt lat="45.80957" lon="5.79286">
        <ele>235.4</ele>
        <time>2022-09-26T09:55:49Z</time>
      </trkpt>
      <trkpt lat="45.80961" lon="5.79291">
        <ele>235.4</ele>
        <time>2022-09-26T09:55:50Z</time>
      </trkpt>
      <trkpt lat="45.80966" lon="5.79297">
        <ele>235.4</ele>
        <time>2022-09-26T09:55:51Z</time>
      </trkpt>
      <trkpt lat="45.8097" lon="5.79303">
        <ele>235.4</ele>
        <time>2022-09-26T09:55:52Z</time>
      </trkpt>
      <trkpt lat="45.80974" lon="5.79309">
        <ele>235.4</ele>
        <time>2022-09-26T09:55:53Z</time>
      </trkpt>
      <trkpt lat="45.80979" lon="5.79314">
        <ele>235.4</ele>
        <time>2022-09-26T09:55:54Z</time>
      </trkpt>
      <trkpt lat="45.80983" lon="5.7932">
        <ele>235.4</ele>
        <time>2022-09-26T09:55:55Z</time>
      </trkpt>
      <trkpt lat="45.80987" lon="5.79325">
        <ele>235.4</ele>
        <time>2022-09-26T09:55:56Z</time>
      </trkpt>
      <trkpt lat="45.80992" lon="5.79331">
        <ele>235.4</ele>
        <time>2022-09-26T09:55:57Z</time>
      </trkpt>
      <trkpt lat="45.80996" lon="5.79336">
        <ele>235.4</ele>
        <time>2022-09-26T09:55:58Z</time>
      </trkpt>
      <trkpt lat="45.81" lon="5.79341">
        <ele>235.3</ele>
        <time>2022-09-26T09:55:59Z</time>
      </trkpt>
      <trkpt lat="45.81004" lon="5.79346">
        <ele>235.3</ele>
        <time>2022-09-26T09:56:00Z</time>
      </trkpt>
      <trkpt lat="45.81009" lon="5.79351">
        <ele>235.3</ele>
        <time>2022-09-26T09:56:01Z</time>
      </trkpt>
      <trkpt lat="45.81013" lon="5.79356">
        <ele>235.3</ele>
        <time>2022-09-26T09:56:02Z</time>
      </trkpt>
      <trkpt lat="45.81017" lon="5.79362">
        <ele>235.3</ele>
        <time>2022-09-26T09:56:03Z</time>
      </trkpt>
      <trkpt lat="45.81021" lon="5.79368">
        <ele>235.3</ele>
        <time>2022-09-26T09:56:04Z</time>
      </trkpt>
      <trkpt lat="45.81025" lon="5.79373">
        <ele>235.3</ele>
        <time>2022-09-26T09:56:05Z</time>
      </trkpt>
      <trkpt lat="45.81029" lon="5.79378">
        <ele>235.3</ele>
        <time>2022-09-26T09:56:06Z</time>
      </trkpt>
      <trkpt lat="45.81033" lon="5.79383">
        <ele>235.4</ele>
        <time>2022-09-26T09:56:07Z</time>
      </trkpt>
      <trkpt lat="45.81037" lon="5.79388">
        <ele>235.4</ele>
        <time>2022-09-26T09:56:08Z</time>
      </trkpt>
      <trkpt lat="45.81041" lon="5.79393">
        <ele>235.4</ele>
        <time>2022-09-26T09:56:09Z</time>
      </trkpt>
      <trkpt lat="45.81045" lon="5.79399">
        <ele>235.4</ele>
        <time>2022-09-26T09:56:10Z</time>
      </trkpt>
      <trkpt lat="45.81048" lon="5.79405">
        <ele>235.4</ele>
        <time>2022-09-26T09:56:11Z</time>
      </trkpt>
      <trkpt lat="45.81051" lon="5.7941">
        <ele>235.4</ele>
        <time>2022-09-26T09:56:12Z</time>
      </trkpt>
      <trkpt lat="45.81055" lon="5.79416">
        <ele>235.5</ele>
        <time>2022-09-26T09:56:13Z</time>
      </trkpt>
      <trkpt lat="45.81058" lon="5.79422">
        <ele>235.5</ele>
        <time>2022-09-26T09:56:14Z</time>
      </trkpt>
      <trkpt lat="45.81061" lon="5.79428">
        <ele>235.6</ele>
        <time>2022-09-26T09:56:15Z</time>
      </trkpt>
      <trkpt lat="45.81066" lon="5.79437">
        <ele>235.6</ele>
        <time>2022-09-26T09:56:16Z</time>
      </trkpt>
      <trkpt lat="45.8107" lon="5.7944">
        <ele>235.6</ele>
        <time>2022-09-26T09:56:17Z</time>
      </trkpt>
      <trkpt lat="45.81074" lon="5.79443">
        <ele>235.6</ele>
        <time>2022-09-26T09:56:18Z</time>
      </trkpt>
      <trkpt lat="45.81078" lon="5.79445">
        <ele>235.6</ele>
        <time>2022-09-26T09:56:19Z</time>
      </trkpt>
      <trkpt lat="45.81083" lon="5.79444">
        <ele>235.5</ele>
        <time>2022-09-26T09:56:20Z</time>
      </trkpt>
      <trkpt lat="45.81087" lon="5.79446">
        <ele>235.5</ele>
        <time>2022-09-26T09:56:21Z</time>
      </trkpt>
      <trkpt lat="45.81092" lon="5.79446">
        <ele>235.4</ele>
        <time>2022-09-26T09:56:22Z</time>
      </trkpt>
      <trkpt lat="45.81097" lon="5.79446">
        <ele>235.4</ele>
        <time>2022-09-26T09:56:23Z</time>
      </trkpt>
      <trkpt lat="45.81102" lon="5.79446">
        <ele>235.4</ele>
        <time>2022-09-26T09:56:24Z</time>
      </trkpt>
      <trkpt lat="45.81107" lon="5.79445">
        <ele>235.4</ele>
        <time>2022-09-26T09:56:25Z</time>
      </trkpt>
      <trkpt lat="45.81112" lon="5.79445">
        <ele>235.3</ele>
        <time>2022-09-26T09:56:26Z</time>
      </trkpt>
      <trkpt lat="45.81117" lon="5.79445">
        <ele>235.3</ele>
        <time>2022-09-26T09:56:27Z</time>
      </trkpt>
      <trkpt lat="45.81122" lon="5.79445">
        <ele>235.3</ele>
        <time>2022-09-26T09:56:28Z</time>
      </trkpt>
      <trkpt lat="45.81127" lon="5.79446">
        <ele>235.3</ele>
        <time>2022-09-26T09:56:29Z</time>
      </trkpt>
      <trkpt lat="45.81131" lon="5.79444">
        <ele>235.3</ele>
        <time>2022-09-26T09:56:30Z</time>
      </trkpt>
      <trkpt lat="45.81137" lon="5.79444">
        <ele>235.3</ele>
        <time>2022-09-26T09:56:31Z</time>
      </trkpt>
      <trkpt lat="45.81142" lon="5.79443">
        <ele>235.3</ele>
        <time>2022-09-26T09:56:32Z</time>
      </trkpt>
      <trkpt lat="45.81148" lon="5.79443">
        <ele>235.4</ele>
        <time>2022-09-26T09:56:33Z</time>
      </trkpt>
      <trkpt lat="45.81153" lon="5.79442">
        <ele>235.4</ele>
        <time>2022-09-26T09:56:34Z</time>
      </trkpt>
      <trkpt lat="45.81159" lon="5.79441">
        <ele>235.4</ele>
        <time>2022-09-26T09:56:35Z</time>
      </trkpt>
      <trkpt lat="45.81164" lon="5.79442">
        <ele>235.4</ele>
        <time>2022-09-26T09:56:36Z</time>
      </trkpt>
      <trkpt lat="45.8117" lon="5.79441">
        <ele>235.4</ele>
        <time>2022-09-26T09:56:37Z</time>
      </trkpt>
      <trkpt lat="45.81174" lon="5.7944">
        <ele>235.5</ele>
        <time>2022-09-26T09:56:38Z</time>
      </trkpt>
      <trkpt lat="45.8118" lon="5.7944">
        <ele>235.5</ele>
        <time>2022-09-26T09:56:39Z</time>
      </trkpt>
      <trkpt lat="45.81186" lon="5.79439">
        <ele>235.5</ele>
        <time>2022-09-26T09:56:40Z</time>
      </trkpt>
      <trkpt lat="45.8119" lon="5.79439">
        <ele>235.5</ele>
        <time>2022-09-26T09:56:41Z</time>
      </trkpt>
      <trkpt lat="45.81195" lon="5.79441">
        <ele>235.5</ele>
        <time>2022-09-26T09:56:42Z</time>
      </trkpt>
      <trkpt lat="45.81199" lon="5.79443">
        <ele>235.5</ele>
        <time>2022-09-26T09:56:43Z</time>
      </trkpt>
      <trkpt lat="45.81205" lon="5.79442">
        <ele>235.4</ele>
        <time>2022-09-26T09:56:44Z</time>
      </trkpt>
      <trkpt lat="45.81211" lon="5.79442">
        <ele>235.4</ele>
        <time>2022-09-26T09:56:45Z</time>
      </trkpt>
      <trkpt lat="45.81217" lon="5.79442">
        <ele>235.4</ele>
        <time>2022-09-26T09:56:46Z</time>
      </trkpt>
      <trkpt lat="45.81222" lon="5.79442">
        <ele>235.4</ele>
        <time>2022-09-26T09:56:47Z</time>
      </trkpt>
      <trkpt lat="45.81227" lon="5.79444">
        <ele>235.4</ele>
        <time>2022-09-26T09:56:48Z</time>
      </trkpt>
      <trkpt lat="45.81233" lon="5.79446">
        <ele>235.4</ele>
        <time>2022-09-26T09:56:49Z</time>
      </trkpt>
      <trkpt lat="45.81238" lon="5.7945">
        <ele>235.4</ele>
        <time>2022-09-26T09:56:50Z</time>
      </trkpt>
      <trkpt lat="45.81243" lon="5.79454">
        <ele>235.4</ele>
        <time>2022-09-26T09:56:51Z</time>
      </trkpt>
      <trkpt lat="45.81248" lon="5.79458">
        <ele>235.4</ele>
        <time>2022-09-26T09:56:52Z</time>
      </trkpt>
      <trkpt lat="45.81252" lon="5.79462">
        <ele>235.4</ele>
        <time>2022-09-26T09:56:53Z</time>
      </trkpt>
      <trkpt lat="45.81256" lon="5.79468">
        <ele>235.4</ele>
        <time>2022-09-26T09:56:54Z</time>
      </trkpt>
      <trkpt lat="45.81259" lon="5.79474">
        <ele>235.4</ele>
        <time>2022-09-26T09:56:55Z</time>
      </trkpt>
      <trkpt lat="45.81262" lon="5.7948">
        <ele>235.4</ele>
        <time>2022-09-26T09:56:56Z</time>
      </trkpt>
      <trkpt lat="45.81266" lon="5.79485">
        <ele>235.4</ele>
        <time>2022-09-26T09:56:57Z</time>
      </trkpt>
      <trkpt lat="45.8127" lon="5.7949">
        <ele>235.5</ele>
        <time>2022-09-26T09:56:58Z</time>
      </trkpt>
      <trkpt lat="45.81273" lon="5.79495">
        <ele>235.5</ele>
        <time>2022-09-26T09:56:59Z</time>
      </trkpt>
      <trkpt lat="45.81277" lon="5.79499">
        <ele>235.6</ele>
        <time>2022-09-26T09:57:00Z</time>
      </trkpt>
      <trkpt lat="45.81281" lon="5.79502">
        <ele>235.6</ele>
        <time>2022-09-26T09:57:01Z</time>
      </trkpt>
      <trkpt lat="45.81284" lon="5.79504">
        <ele>235.7</ele>
        <time>2022-09-26T09:57:02Z</time>
      </trkpt>
      <trkpt lat="45.81287" lon="5.79506">
        <ele>235.7</ele>
        <time>2022-09-26T09:57:03Z</time>
      </trkpt>
      <trkpt lat="45.8129" lon="5.79508">
        <ele>235.7</ele>
        <time>2022-09-26T09:57:04Z</time>
      </trkpt>
      <trkpt lat="45.81292" lon="5.7951">
        <ele>235.8</ele>
        <time>2022-09-26T09:57:05Z</time>
      </trkpt>
      <trkpt lat="45.81293" lon="5.7951">
        <ele>235.8</ele>
        <time>2022-09-26T09:57:06Z</time>
      </trkpt>
      <trkpt lat="45.81294" lon="5.79511">
        <ele>235.8</ele>
        <time>2022-09-26T09:57:07Z</time>
      </trkpt>
      <trkpt lat="45.81295" lon="5.79512">
        <ele>235.8</ele>
        <time>2022-09-26T09:57:08Z</time>
      </trkpt>
      <trkpt lat="45.81296" lon="5.79513">
        <ele>235.8</ele>
        <time>2022-09-26T09:57:09Z</time>
      </trkpt>
      <trkpt lat="45.81297" lon="5.79515">
        <ele>235.8</ele>
        <time>2022-09-26T09:57:10Z</time>
      </trkpt>
      <trkpt lat="45.81298" lon="5.79516">
        <ele>235.9</ele>
        <time>2022-09-26T09:57:11Z</time>
      </trkpt>
      <trkpt lat="45.81298" lon="5.79517">
        <ele>235.9</ele>
        <time>2022-09-26T09:57:12Z</time>
      </trkpt>
      <trkpt lat="45.81302" lon="5.79516">
        <ele>236</ele>
        <time>2022-09-26T09:57:13Z</time>
      </trkpt>
      <trkpt lat="45.81303" lon="5.79515">
        <ele>236</ele>
        <time>2022-09-26T09:57:14Z</time>
      </trkpt>
      <trkpt lat="45.81304" lon="5.79512">
        <ele>236</ele>
        <time>2022-09-26T09:57:15Z</time>
      </trkpt>
      <trkpt lat="45.81306" lon="5.79509">
        <ele>235.9</ele>
        <time>2022-09-26T09:57:16Z</time>
      </trkpt>
      <trkpt lat="45.81308" lon="5.79506">
        <ele>235.9</ele>
        <time>2022-09-26T09:57:18Z</time>
      </trkpt>
      <trkpt lat="45.8131" lon="5.79502">
        <ele>235.9</ele>
        <time>2022-09-26T09:57:19Z</time>
      </trkpt>
      <trkpt lat="45.81313" lon="5.79497">
        <ele>235.9</ele>
        <time>2022-09-26T09:57:20Z</time>
      </trkpt>
      <trkpt lat="45.81316" lon="5.79493">
        <ele>235.9</ele>
        <time>2022-09-26T09:57:21Z</time>
      </trkpt>
      <trkpt lat="45.81318" lon="5.79488">
        <ele>235.8</ele>
        <time>2022-09-26T09:57:22Z</time>
      </trkpt>
      <trkpt lat="45.81321" lon="5.79483">
        <ele>235.8</ele>
        <time>2022-09-26T09:57:23Z</time>
      </trkpt>
      <trkpt lat="45.81323" lon="5.79478">
        <ele>235.8</ele>
        <time>2022-09-26T09:57:24Z</time>
      </trkpt>
      <trkpt lat="45.81325" lon="5.79473">
        <ele>235.7</ele>
        <time>2022-09-26T09:57:25Z</time>
      </trkpt>
      <trkpt lat="45.81328" lon="5.79468">
        <ele>235.7</ele>
        <time>2022-09-26T09:57:26Z</time>
      </trkpt>
      <trkpt lat="45.81331" lon="5.79462">
        <ele>235.7</ele>
        <time>2022-09-26T09:57:27Z</time>
      </trkpt>
      <trkpt lat="45.81333" lon="5.79457">
        <ele>235.7</ele>
        <time>2022-09-26T09:57:28Z</time>
      </trkpt>
      <trkpt lat="45.81335" lon="5.79451">
        <ele>235.7</ele>
        <time>2022-09-26T09:57:29Z</time>
      </trkpt>
      <trkpt lat="45.81339" lon="5.79445">
        <ele>235.7</ele>
        <time>2022-09-26T09:57:30Z</time>
      </trkpt>
      <trkpt lat="45.81341" lon="5.79441">
        <ele>235.7</ele>
        <time>2022-09-26T09:57:31Z</time>
      </trkpt>
      <trkpt lat="45.81344" lon="5.79436">
        <ele>235.7</ele>
        <time>2022-09-26T09:57:32Z</time>
      </trkpt>
      <trkpt lat="45.81346" lon="5.79431">
        <ele>235.6</ele>
        <time>2022-09-26T09:57:33Z</time>
      </trkpt>
      <trkpt lat="45.81349" lon="5.79425">
        <ele>235.6</ele>
        <time>2022-09-26T09:57:34Z</time>
      </trkpt>
      <trkpt lat="45.81352" lon="5.79419">
        <ele>235.6</ele>
        <time>2022-09-26T09:57:35Z</time>
      </trkpt>
      <trkpt lat="45.81355" lon="5.79413">
        <ele>235.6</ele>
        <time>2022-09-26T09:57:36Z</time>
      </trkpt>
      <trkpt lat="45.81358" lon="5.79408">
        <ele>235.6</ele>
        <time>2022-09-26T09:57:37Z</time>
      </trkpt>
      <trkpt lat="45.8136" lon="5.79402">
        <ele>235.6</ele>
        <time>2022-09-26T09:57:38Z</time>
      </trkpt>
      <trkpt lat="45.81363" lon="5.79397">
        <ele>235.7</ele>
        <time>2022-09-26T09:57:39Z</time>
      </trkpt>
      <trkpt lat="45.81366" lon="5.79392">
        <ele>235.7</ele>
        <time>2022-09-26T09:57:40Z</time>
      </trkpt>
      <trkpt lat="45.81369" lon="5.79386">
        <ele>235.7</ele>
        <time>2022-09-26T09:57:41Z</time>
      </trkpt>
      <trkpt lat="45.81372" lon="5.7938">
        <ele>235.7</ele>
        <time>2022-09-26T09:57:42Z</time>
      </trkpt>
      <trkpt lat="45.81375" lon="5.79375">
        <ele>235.8</ele>
        <time>2022-09-26T09:57:43Z</time>
      </trkpt>
      <trkpt lat="45.81377" lon="5.7937">
        <ele>235.8</ele>
        <time>2022-09-26T09:57:44Z</time>
      </trkpt>
      <trkpt lat="45.81379" lon="5.79364">
        <ele>235.9</ele>
        <time>2022-09-26T09:57:45Z</time>
      </trkpt>
      <trkpt lat="45.81381" lon="5.79358">
        <ele>235.9</ele>
        <time>2022-09-26T09:57:46Z</time>
      </trkpt>
      <trkpt lat="45.81383" lon="5.79353">
        <ele>235.9</ele>
        <time>2022-09-26T09:57:47Z</time>
      </trkpt>
      <trkpt lat="45.81384" lon="5.79348">
        <ele>236</ele>
        <time>2022-09-26T09:57:48Z</time>
      </trkpt>
      <trkpt lat="45.81385" lon="5.79343">
        <ele>236</ele>
        <time>2022-09-26T09:57:49Z</time>
      </trkpt>
      <trkpt lat="45.81387" lon="5.7934">
        <ele>236.1</ele>
        <time>2022-09-26T09:57:50Z</time>
      </trkpt>
      <trkpt lat="45.81387" lon="5.7934">
        <ele>236.1</ele>
        <time>2022-09-26T09:57:51Z</time>
      </trkpt>
      <trkpt lat="45.8139" lon="5.79337">
        <ele>236.1</ele>
        <time>2022-09-26T09:57:52Z</time>
      </trkpt>
      <trkpt lat="45.81391" lon="5.79337">
        <ele>236.1</ele>
        <time>2022-09-26T09:57:53Z</time>
      </trkpt>
      <trkpt lat="45.81393" lon="5.79335">
        <ele>236.1</ele>
        <time>2022-09-26T09:57:54Z</time>
      </trkpt>
      <trkpt lat="45.81394" lon="5.79334">
        <ele>236.1</ele>
        <time>2022-09-26T09:57:55Z</time>
      </trkpt>
      <trkpt lat="45.81396" lon="5.79333">
        <ele>236.1</ele>
        <time>2022-09-26T09:57:56Z</time>
      </trkpt>
      <trkpt lat="45.81397" lon="5.7933">
        <ele>236.1</ele>
        <time>2022-09-26T09:57:57Z</time>
      </trkpt>
      <trkpt lat="45.81397" lon="5.79326">
        <ele>236.1</ele>
        <time>2022-09-26T09:57:58Z</time>
      </trkpt>
      <trkpt lat="45.81396" lon="5.79325">
        <ele>236</ele>
        <time>2022-09-26T09:57:59Z</time>
      </trkpt>
      <trkpt lat="45.81395" lon="5.79323">
        <ele>236</ele>
        <time>2022-09-26T09:58:00Z</time>
      </trkpt>
      <trkpt lat="45.81395" lon="5.79321">
        <ele>235.9</ele>
        <time>2022-09-26T09:58:01Z</time>
      </trkpt>
      <trkpt lat="45.81396" lon="5.79322">
        <ele>235.9</ele>
        <time>2022-09-26T09:58:02Z</time>
      </trkpt>
      <trkpt lat="45.81397" lon="5.79323">
        <ele>235.9</ele>
        <time>2022-09-26T09:58:03Z</time>
      </trkpt>
      <trkpt lat="45.81398" lon="5.79324">
        <ele>235.9</ele>
        <time>2022-09-26T09:58:04Z</time>
      </trkpt>
      <trkpt lat="45.81399" lon="5.79326">
        <ele>235.8</ele>
        <time>2022-09-26T09:58:05Z</time>
      </trkpt>
      <trkpt lat="45.814" lon="5.79327">
        <ele>235.8</ele>
        <time>2022-09-26T09:58:06Z</time>
      </trkpt>
      <trkpt lat="45.81401" lon="5.79328">
        <ele>235.8</ele>
        <time>2022-09-26T09:58:07Z</time>
      </trkpt>
      <trkpt lat="45.81402" lon="5.7933">
        <ele>235.7</ele>
        <time>2022-09-26T09:58:08Z</time>
      </trkpt>
      <trkpt lat="45.81403" lon="5.79331">
        <ele>235.7</ele>
        <time>2022-09-26T09:58:09Z</time>
      </trkpt>
      <trkpt lat="45.81404" lon="5.79332">
        <ele>235.7</ele>
        <time>2022-09-26T09:58:10Z</time>
      </trkpt>
      <trkpt lat="45.81405" lon="5.79333">
        <ele>235.7</ele>
        <time>2022-09-26T09:59:28Z</time>
      </trkpt>
      <trkpt lat="45.81406" lon="5.79335">
        <ele>235.6</ele>
        <time>2022-09-26T09:59:29Z</time>
      </trkpt>
      <trkpt lat="45.81409" lon="5.79338">
        <ele>235.6</ele>
        <time>2022-09-26T09:59:30Z</time>
      </trkpt>
      <trkpt lat="45.81413" lon="5.79341">
        <ele>235.5</ele>
        <time>2022-09-26T09:59:31Z</time>
      </trkpt>
      <trkpt lat="45.81415" lon="5.79343">
        <ele>235.5</ele>
        <time>2022-09-26T09:59:32Z</time>
      </trkpt>
      <trkpt lat="45.81418" lon="5.79347">
        <ele>235.4</ele>
        <time>2022-09-26T09:59:33Z</time>
      </trkpt>
      <trkpt lat="45.81421" lon="5.79351">
        <ele>235.4</ele>
        <time>2022-09-26T09:59:34Z</time>
      </trkpt>
      <trkpt lat="45.81424" lon="5.79355">
        <ele>235.4</ele>
        <time>2022-09-26T09:59:35Z</time>
      </trkpt>
      <trkpt lat="45.81426" lon="5.79359">
        <ele>235.4</ele>
        <time>2022-09-26T09:59:36Z</time>
      </trkpt>
      <trkpt lat="45.8143" lon="5.79362">
        <ele>235.3</ele>
        <time>2022-09-26T09:59:37Z</time>
      </trkpt>
      <trkpt lat="45.81433" lon="5.79366">
        <ele>235.3</ele>
        <time>2022-09-26T09:59:38Z</time>
      </trkpt>
      <trkpt lat="45.81436" lon="5.79369">
        <ele>235.3</ele>
        <time>2022-09-26T09:59:39Z</time>
      </trkpt>
      <trkpt lat="45.81439" lon="5.79372">
        <ele>235.3</ele>
        <time>2022-09-26T09:59:40Z</time>
      </trkpt>
      <trkpt lat="45.81443" lon="5.79375">
        <ele>235.3</ele>
        <time>2022-09-26T09:59:41Z</time>
      </trkpt>
      <trkpt lat="45.81447" lon="5.79378">
        <ele>235.3</ele>
        <time>2022-09-26T09:59:42Z</time>
      </trkpt>
      <trkpt lat="45.8145" lon="5.7938">
        <ele>235.2</ele>
        <time>2022-09-26T09:59:43Z</time>
      </trkpt>
      <trkpt lat="45.81454" lon="5.79381">
        <ele>235.2</ele>
        <time>2022-09-26T09:59:44Z</time>
      </trkpt>
      <trkpt lat="45.81458" lon="5.79383">
        <ele>235.2</ele>
        <time>2022-09-26T09:59:45Z</time>
      </trkpt>
      <trkpt lat="45.81461" lon="5.79385">
        <ele>235.2</ele>
        <time>2022-09-26T09:59:46Z</time>
      </trkpt>
      <trkpt lat="45.81465" lon="5.79387">
        <ele>235.2</ele>
        <time>2022-09-26T09:59:47Z</time>
      </trkpt>
      <trkpt lat="45.81469" lon="5.79389">
        <ele>235.1</ele>
        <time>2022-09-26T09:59:48Z</time>
      </trkpt>
      <trkpt lat="45.81473" lon="5.79391">
        <ele>235.1</ele>
        <time>2022-09-26T09:59:49Z</time>
      </trkpt>
      <trkpt lat="45.81477" lon="5.79394">
        <ele>235.1</ele>
        <time>2022-09-26T09:59:50Z</time>
      </trkpt>
      <trkpt lat="45.8148" lon="5.79397">
        <ele>235.1</ele>
        <time>2022-09-26T09:59:51Z</time>
      </trkpt>
      <trkpt lat="45.81484" lon="5.794">
        <ele>235.1</ele>
        <time>2022-09-26T09:59:52Z</time>
      </trkpt>
      <trkpt lat="45.81487" lon="5.79404">
        <ele>235.1</ele>
        <time>2022-09-26T09:59:53Z</time>
      </trkpt>
      <trkpt lat="45.81489" lon="5.79408">
        <ele>235.1</ele>
        <time>2022-09-26T09:59:54Z</time>
      </trkpt>
      <trkpt lat="45.81493" lon="5.79413">
        <ele>235.1</ele>
        <time>2022-09-26T09:59:55Z</time>
      </trkpt>
      <trkpt lat="45.81495" lon="5.79416">
        <ele>235.1</ele>
        <time>2022-09-26T09:59:56Z</time>
      </trkpt>
      <trkpt lat="45.81499" lon="5.79418">
        <ele>235.1</ele>
        <time>2022-09-26T09:59:57Z</time>
      </trkpt>
      <trkpt lat="45.81503" lon="5.7942">
        <ele>235.1</ele>
        <time>2022-09-26T09:59:58Z</time>
      </trkpt>
      <trkpt lat="45.81507" lon="5.79419">
        <ele>235.1</ele>
        <time>2022-09-26T09:59:59Z</time>
      </trkpt>
      <trkpt lat="45.81512" lon="5.79418">
        <ele>235.2</ele>
        <time>2022-09-26T10:00:00Z</time>
      </trkpt>
      <trkpt lat="45.81516" lon="5.79417">
        <ele>235.2</ele>
        <time>2022-09-26T10:00:01Z</time>
      </trkpt>
      <trkpt lat="45.8152" lon="5.79416">
        <ele>235.2</ele>
        <time>2022-09-26T10:00:02Z</time>
      </trkpt>
      <trkpt lat="45.81524" lon="5.79414">
        <ele>235.2</ele>
        <time>2022-09-26T10:00:03Z</time>
      </trkpt>
      <trkpt lat="45.81527" lon="5.79411">
        <ele>235.2</ele>
        <time>2022-09-26T10:00:04Z</time>
      </trkpt>
      <trkpt lat="45.81532" lon="5.79409">
        <ele>235.2</ele>
        <time>2022-09-26T10:00:05Z</time>
      </trkpt>
      <trkpt lat="45.81535" lon="5.79407">
        <ele>235.2</ele>
        <time>2022-09-26T10:00:06Z</time>
      </trkpt>
      <trkpt lat="45.81539" lon="5.79405">
        <ele>235.2</ele>
        <time>2022-09-26T10:00:07Z</time>
      </trkpt>
      <trkpt lat="45.81543" lon="5.79403">
        <ele>235.2</ele>
        <time>2022-09-26T10:00:08Z</time>
      </trkpt>
      <trkpt lat="45.81547" lon="5.79401">
        <ele>235.2</ele>
        <time>2022-09-26T10:00:09Z</time>
      </trkpt>
      <trkpt lat="45.81551" lon="5.794">
        <ele>235.2</ele>
        <time>2022-09-26T10:00:10Z</time>
      </trkpt>
      <trkpt lat="45.81555" lon="5.79398">
        <ele>235.2</ele>
        <time>2022-09-26T10:00:11Z</time>
      </trkpt>
      <trkpt lat="45.81559" lon="5.79396">
        <ele>235.2</ele>
        <time>2022-09-26T10:00:12Z</time>
      </trkpt>
      <trkpt lat="45.81563" lon="5.79395">
        <ele>235.2</ele>
        <time>2022-09-26T10:00:13Z</time>
      </trkpt>
      <trkpt lat="45.81568" lon="5.79393">
        <ele>235.2</ele>
        <time>2022-09-26T10:00:14Z</time>
      </trkpt>
      <trkpt lat="45.81572" lon="5.79391">
        <ele>235.2</ele>
        <time>2022-09-26T10:00:15Z</time>
      </trkpt>
      <trkpt lat="45.81576" lon="5.7939">
        <ele>235.2</ele>
        <time>2022-09-26T10:00:16Z</time>
      </trkpt>
      <trkpt lat="45.8158" lon="5.79388">
        <ele>235.2</ele>
        <time>2022-09-26T10:00:17Z</time>
      </trkpt>
      <trkpt lat="45.81584" lon="5.79386">
        <ele>235.2</ele>
        <time>2022-09-26T10:00:18Z</time>
      </trkpt>
      <trkpt lat="45.81589" lon="5.79383">
        <ele>235.3</ele>
        <time>2022-09-26T10:00:19Z</time>
      </trkpt>
      <trkpt lat="45.81593" lon="5.79381">
        <ele>235.3</ele>
        <time>2022-09-26T10:00:20Z</time>
      </trkpt>
      <trkpt lat="45.81597" lon="5.79378">
        <ele>235.3</ele>
        <time>2022-09-26T10:00:21Z</time>
      </trkpt>
      <trkpt lat="45.81606" lon="5.79373">
        <ele>235.3</ele>
        <time>2022-09-26T10:00:22Z</time>
      </trkpt>
      <trkpt lat="45.8161" lon="5.79371">
        <ele>235.3</ele>
        <time>2022-09-26T10:00:23Z</time>
      </trkpt>
      <trkpt lat="45.81614" lon="5.79368">
        <ele>235.3</ele>
        <time>2022-09-26T10:00:24Z</time>
      </trkpt>
      <trkpt lat="45.81619" lon="5.79365">
        <ele>235.3</ele>
        <time>2022-09-26T10:00:25Z</time>
      </trkpt>
      <trkpt lat="45.81623" lon="5.79363">
        <ele>235.3</ele>
        <time>2022-09-26T10:00:26Z</time>
      </trkpt>
      <trkpt lat="45.81628" lon="5.79361">
        <ele>235.3</ele>
        <time>2022-09-26T10:00:27Z</time>
      </trkpt>
      <trkpt lat="45.81633" lon="5.79359">
        <ele>235.4</ele>
        <time>2022-09-26T10:00:28Z</time>
      </trkpt>
      <trkpt lat="45.81638" lon="5.79357">
        <ele>235.4</ele>
        <time>2022-09-26T10:00:29Z</time>
      </trkpt>
      <trkpt lat="45.81642" lon="5.79356">
        <ele>235.4</ele>
        <time>2022-09-26T10:00:30Z</time>
      </trkpt>
      <trkpt lat="45.81646" lon="5.79355">
        <ele>235.5</ele>
        <time>2022-09-26T10:00:31Z</time>
      </trkpt>
      <trkpt lat="45.81652" lon="5.79355">
        <ele>235.5</ele>
        <time>2022-09-26T10:00:32Z</time>
      </trkpt>
      <trkpt lat="45.81657" lon="5.79356">
        <ele>235.5</ele>
        <time>2022-09-26T10:00:33Z</time>
      </trkpt>
      <trkpt lat="45.81662" lon="5.79357">
        <ele>235.5</ele>
        <time>2022-09-26T10:00:34Z</time>
      </trkpt>
      <trkpt lat="45.81666" lon="5.79358">
        <ele>235.5</ele>
        <time>2022-09-26T10:00:35Z</time>
      </trkpt>
      <trkpt lat="45.81671" lon="5.79359">
        <ele>235.5</ele>
        <time>2022-09-26T10:00:36Z</time>
      </trkpt>
      <trkpt lat="45.81676" lon="5.79361">
        <ele>235.4</ele>
        <time>2022-09-26T10:00:37Z</time>
      </trkpt>
      <trkpt lat="45.81681" lon="5.79362">
        <ele>235.4</ele>
        <time>2022-09-26T10:00:38Z</time>
      </trkpt>
      <trkpt lat="45.81686" lon="5.79364">
        <ele>235.4</ele>
        <time>2022-09-26T10:00:39Z</time>
      </trkpt>
      <trkpt lat="45.8169" lon="5.79365">
        <ele>235.4</ele>
        <time>2022-09-26T10:00:40Z</time>
      </trkpt>
      <trkpt lat="45.81696" lon="5.79366">
        <ele>235.4</ele>
        <time>2022-09-26T10:00:41Z</time>
      </trkpt>
      <trkpt lat="45.81701" lon="5.79367">
        <ele>235.4</ele>
        <time>2022-09-26T10:00:42Z</time>
      </trkpt>
      <trkpt lat="45.81706" lon="5.79368">
        <ele>235.4</ele>
        <time>2022-09-26T10:00:43Z</time>
      </trkpt>
      <trkpt lat="45.81711" lon="5.79369">
        <ele>235.5</ele>
        <time>2022-09-26T10:00:44Z</time>
      </trkpt>
      <trkpt lat="45.81716" lon="5.79369">
        <ele>235.5</ele>
        <time>2022-09-26T10:00:45Z</time>
      </trkpt>
      <trkpt lat="45.8172" lon="5.79368">
        <ele>235.5</ele>
        <time>2022-09-26T10:00:46Z</time>
      </trkpt>
      <trkpt lat="45.81726" lon="5.79368">
        <ele>235.5</ele>
        <time>2022-09-26T10:00:47Z</time>
      </trkpt>
      <trkpt lat="45.81731" lon="5.79366">
        <ele>235.6</ele>
        <time>2022-09-26T10:00:48Z</time>
      </trkpt>
      <trkpt lat="45.81736" lon="5.79364">
        <ele>235.6</ele>
        <time>2022-09-26T10:00:49Z</time>
      </trkpt>
      <trkpt lat="45.81741" lon="5.79361">
        <ele>235.7</ele>
        <time>2022-09-26T10:00:50Z</time>
      </trkpt>
      <trkpt lat="45.81745" lon="5.79359">
        <ele>235.7</ele>
        <time>2022-09-26T10:00:51Z</time>
      </trkpt>
      <trkpt lat="45.8175" lon="5.79357">
        <ele>235.7</ele>
        <time>2022-09-26T10:00:52Z</time>
      </trkpt>
      <trkpt lat="45.81754" lon="5.79355">
        <ele>235.7</ele>
        <time>2022-09-26T10:00:53Z</time>
      </trkpt>
      <trkpt lat="45.81759" lon="5.79353">
        <ele>235.7</ele>
        <time>2022-09-26T10:00:54Z</time>
      </trkpt>
      <trkpt lat="45.81763" lon="5.79351">
        <ele>235.7</ele>
        <time>2022-09-26T10:00:55Z</time>
      </trkpt>
      <trkpt lat="45.81768" lon="5.79349">
        <ele>235.7</ele>
        <time>2022-09-26T10:00:56Z</time>
      </trkpt>
      <trkpt lat="45.81773" lon="5.79347">
        <ele>235.7</ele>
        <time>2022-09-26T10:00:57Z</time>
      </trkpt>
      <trkpt lat="45.81778" lon="5.79344">
        <ele>235.7</ele>
        <time>2022-09-26T10:00:58Z</time>
      </trkpt>
      <trkpt lat="45.81783" lon="5.79342">
        <ele>235.7</ele>
        <time>2022-09-26T10:00:59Z</time>
      </trkpt>
      <trkpt lat="45.81787" lon="5.7934">
        <ele>235.7</ele>
        <time>2022-09-26T10:01:00Z</time>
      </trkpt>
      <trkpt lat="45.81792" lon="5.79336">
        <ele>235.8</ele>
        <time>2022-09-26T10:01:01Z</time>
      </trkpt>
      <trkpt lat="45.81795" lon="5.79331">
        <ele>235.8</ele>
        <time>2022-09-26T10:01:02Z</time>
      </trkpt>
      <trkpt lat="45.81798" lon="5.79326">
        <ele>235.8</ele>
        <time>2022-09-26T10:01:03Z</time>
      </trkpt>
      <trkpt lat="45.818" lon="5.79321">
        <ele>235.8</ele>
        <time>2022-09-26T10:01:04Z</time>
      </trkpt>
      <trkpt lat="45.81804" lon="5.79315">
        <ele>235.9</ele>
        <time>2022-09-26T10:01:05Z</time>
      </trkpt>
      <trkpt lat="45.81807" lon="5.79311">
        <ele>235.9</ele>
        <time>2022-09-26T10:01:06Z</time>
      </trkpt>
      <trkpt lat="45.8181" lon="5.79307">
        <ele>235.9</ele>
        <time>2022-09-26T10:01:07Z</time>
      </trkpt>
      <trkpt lat="45.81813" lon="5.79304">
        <ele>235.9</ele>
        <time>2022-09-26T10:01:08Z</time>
      </trkpt>
      <trkpt lat="45.81817" lon="5.79302">
        <ele>235.9</ele>
        <time>2022-09-26T10:01:09Z</time>
      </trkpt>
      <trkpt lat="45.81822" lon="5.793">
        <ele>235.9</ele>
        <time>2022-09-26T10:01:10Z</time>
      </trkpt>
      <trkpt lat="45.81827" lon="5.79299">
        <ele>235.9</ele>
        <time>2022-09-26T10:01:11Z</time>
      </trkpt>
      <trkpt lat="45.81832" lon="5.79297">
        <ele>235.9</ele>
        <time>2022-09-26T10:01:12Z</time>
      </trkpt>
      <trkpt lat="45.81837" lon="5.79295">
        <ele>235.9</ele>
        <time>2022-09-26T10:01:13Z</time>
      </trkpt>
      <trkpt lat="45.81842" lon="5.79293">
        <ele>235.9</ele>
        <time>2022-09-26T10:01:14Z</time>
      </trkpt>
      <trkpt lat="45.81847" lon="5.79292">
        <ele>235.9</ele>
        <time>2022-09-26T10:01:15Z</time>
      </trkpt>
      <trkpt lat="45.81851" lon="5.7929">
        <ele>235.9</ele>
        <time>2022-09-26T10:01:16Z</time>
      </trkpt>
      <trkpt lat="45.81856" lon="5.79288">
        <ele>235.9</ele>
        <time>2022-09-26T10:01:17Z</time>
      </trkpt>
      <trkpt lat="45.81861" lon="5.79286">
        <ele>235.9</ele>
        <time>2022-09-26T10:01:18Z</time>
      </trkpt>
      <trkpt lat="45.81866" lon="5.79284">
        <ele>235.9</ele>
        <time>2022-09-26T10:01:19Z</time>
      </trkpt>
      <trkpt lat="45.8187" lon="5.79282">
        <ele>235.9</ele>
        <time>2022-09-26T10:01:20Z</time>
      </trkpt>
      <trkpt lat="45.81875" lon="5.7928">
        <ele>236</ele>
        <time>2022-09-26T10:01:21Z</time>
      </trkpt>
      <trkpt lat="45.81879" lon="5.79277">
        <ele>236</ele>
        <time>2022-09-26T10:01:22Z</time>
      </trkpt>
      <trkpt lat="45.81884" lon="5.79275">
        <ele>236</ele>
        <time>2022-09-26T10:01:23Z</time>
      </trkpt>
      <trkpt lat="45.81888" lon="5.79272">
        <ele>236</ele>
        <time>2022-09-26T10:01:24Z</time>
      </trkpt>
      <trkpt lat="45.81893" lon="5.7927">
        <ele>236.1</ele>
        <time>2022-09-26T10:01:25Z</time>
      </trkpt>
      <trkpt lat="45.81897" lon="5.79268">
        <ele>236.1</ele>
        <time>2022-09-26T10:01:26Z</time>
      </trkpt>
      <trkpt lat="45.81901" lon="5.79266">
        <ele>236.1</ele>
        <time>2022-09-26T10:01:27Z</time>
      </trkpt>
      <trkpt lat="45.81905" lon="5.79263">
        <ele>236.1</ele>
        <time>2022-09-26T10:01:28Z</time>
      </trkpt>
      <trkpt lat="45.81909" lon="5.79261">
        <ele>236.1</ele>
        <time>2022-09-26T10:01:30Z</time>
      </trkpt>
      <trkpt lat="45.81913" lon="5.79258">
        <ele>236.2</ele>
        <time>2022-09-26T10:01:31Z</time>
      </trkpt>
      <trkpt lat="45.81917" lon="5.79254">
        <ele>236.2</ele>
        <time>2022-09-26T10:01:32Z</time>
      </trkpt>
      <trkpt lat="45.81921" lon="5.79251">
        <ele>236.3</ele>
        <time>2022-09-26T10:01:33Z</time>
      </trkpt>
      <trkpt lat="45.81925" lon="5.79248">
        <ele>236.3</ele>
        <time>2022-09-26T10:01:34Z</time>
      </trkpt>
      <trkpt lat="45.81928" lon="5.79244">
        <ele>236.4</ele>
        <time>2022-09-26T10:01:35Z</time>
      </trkpt>
      <trkpt lat="45.81931" lon="5.79241">
        <ele>236.5</ele>
        <time>2022-09-26T10:01:36Z</time>
      </trkpt>
      <trkpt lat="45.81935" lon="5.79239">
        <ele>236.5</ele>
        <time>2022-09-26T10:01:37Z</time>
      </trkpt>
      <trkpt lat="45.81938" lon="5.79238">
        <ele>236.6</ele>
        <time>2022-09-26T10:01:38Z</time>
      </trkpt>
      <trkpt lat="45.81942" lon="5.79237">
        <ele>236.7</ele>
        <time>2022-09-26T10:01:39Z</time>
      </trkpt>
      <trkpt lat="45.81946" lon="5.7924">
        <ele>236.8</ele>
        <time>2022-09-26T10:01:40Z</time>
      </trkpt>
      <trkpt lat="45.81948" lon="5.79243">
        <ele>236.8</ele>
        <time>2022-09-26T10:01:41Z</time>
      </trkpt>
      <trkpt lat="45.81952" lon="5.79247">
        <ele>236.9</ele>
        <time>2022-09-26T10:01:42Z</time>
      </trkpt>
      <trkpt lat="45.81956" lon="5.7925">
        <ele>236.9</ele>
        <time>2022-09-26T10:01:43Z</time>
      </trkpt>
      <trkpt lat="45.81958" lon="5.79253">
        <ele>236.9</ele>
        <time>2022-09-26T10:01:44Z</time>
      </trkpt>
      <trkpt lat="45.81962" lon="5.79257">
        <ele>237</ele>
        <time>2022-09-26T10:01:45Z</time>
      </trkpt>
      <trkpt lat="45.81963" lon="5.79259">
        <ele>237</ele>
        <time>2022-09-26T10:01:46Z</time>
      </trkpt>
      <trkpt lat="45.81966" lon="5.79263">
        <ele>237</ele>
        <time>2022-09-26T10:01:47Z</time>
      </trkpt>
      <trkpt lat="45.81969" lon="5.79266">
        <ele>236.9</ele>
        <time>2022-09-26T10:01:48Z</time>
      </trkpt>
      <trkpt lat="45.81974" lon="5.79268">
        <ele>236.9</ele>
        <time>2022-09-26T10:01:49Z</time>
      </trkpt>
      <trkpt lat="45.81978" lon="5.79272">
        <ele>236.9</ele>
        <time>2022-09-26T10:01:50Z</time>
      </trkpt>
      <trkpt lat="45.81982" lon="5.79276">
        <ele>236.9</ele>
        <time>2022-09-26T10:01:51Z</time>
      </trkpt>
      <trkpt lat="45.81986" lon="5.7928">
        <ele>236.9</ele>
        <time>2022-09-26T10:01:52Z</time>
      </trkpt>
      <trkpt lat="45.81992" lon="5.79283">
        <ele>236.8</ele>
        <time>2022-09-26T10:01:53Z</time>
      </trkpt>
      <trkpt lat="45.81996" lon="5.79287">
        <ele>236.8</ele>
        <time>2022-09-26T10:01:54Z</time>
      </trkpt>
      <trkpt lat="45.82" lon="5.7929">
        <ele>236.8</ele>
        <time>2022-09-26T10:01:55Z</time>
      </trkpt>
      <trkpt lat="45.82004" lon="5.79295">
        <ele>236.8</ele>
        <time>2022-09-26T10:01:56Z</time>
      </trkpt>
      <trkpt lat="45.82008" lon="5.79299">
        <ele>236.8</ele>
        <time>2022-09-26T10:01:57Z</time>
      </trkpt>
      <trkpt lat="45.82012" lon="5.79303">
        <ele>236.8</ele>
        <time>2022-09-26T10:01:58Z</time>
      </trkpt>
      <trkpt lat="45.82017" lon="5.79307">
        <ele>236.8</ele>
        <time>2022-09-26T10:01:59Z</time>
      </trkpt>
      <trkpt lat="45.82021" lon="5.79312">
        <ele>236.8</ele>
        <time>2022-09-26T10:02:00Z</time>
      </trkpt>
      <trkpt lat="45.82024" lon="5.79316">
        <ele>236.8</ele>
        <time>2022-09-26T10:02:01Z</time>
      </trkpt>
      <trkpt lat="45.82029" lon="5.79321">
        <ele>236.8</ele>
        <time>2022-09-26T10:02:02Z</time>
      </trkpt>
      <trkpt lat="45.82033" lon="5.79324">
        <ele>236.8</ele>
        <time>2022-09-26T10:02:03Z</time>
      </trkpt>
      <trkpt lat="45.82037" lon="5.79329">
        <ele>236.8</ele>
        <time>2022-09-26T10:02:04Z</time>
      </trkpt>
      <trkpt lat="45.8204" lon="5.79332">
        <ele>236.8</ele>
        <time>2022-09-26T10:02:05Z</time>
      </trkpt>
      <trkpt lat="45.82044" lon="5.79335">
        <ele>236.8</ele>
        <time>2022-09-26T10:02:06Z</time>
      </trkpt>
      <trkpt lat="45.82048" lon="5.79339">
        <ele>236.8</ele>
        <time>2022-09-26T10:02:07Z</time>
      </trkpt>
      <trkpt lat="45.82053" lon="5.79343">
        <ele>236.8</ele>
        <time>2022-09-26T10:02:08Z</time>
      </trkpt>
      <trkpt lat="45.82057" lon="5.79345">
        <ele>236.8</ele>
        <time>2022-09-26T10:02:09Z</time>
      </trkpt>
      <trkpt lat="45.82061" lon="5.79348">
        <ele>236.8</ele>
        <time>2022-09-26T10:02:10Z</time>
      </trkpt>
      <trkpt lat="45.82065" lon="5.79351">
        <ele>236.8</ele>
        <time>2022-09-26T10:02:11Z</time>
      </trkpt>
      <trkpt lat="45.82069" lon="5.79354">
        <ele>236.8</ele>
        <time>2022-09-26T10:02:12Z</time>
      </trkpt>
      <trkpt lat="45.82073" lon="5.79356">
        <ele>236.8</ele>
        <time>2022-09-26T10:02:13Z</time>
      </trkpt>
      <trkpt lat="45.82076" lon="5.7936">
        <ele>236.8</ele>
        <time>2022-09-26T10:02:14Z</time>
      </trkpt>
      <trkpt lat="45.82079" lon="5.79366">
        <ele>236.8</ele>
        <time>2022-09-26T10:02:15Z</time>
      </trkpt>
      <trkpt lat="45.82082" lon="5.79373">
        <ele>236.8</ele>
        <time>2022-09-26T10:02:16Z</time>
      </trkpt>
      <trkpt lat="45.82083" lon="5.79378">
        <ele>236.9</ele>
        <time>2022-09-26T10:02:17Z</time>
      </trkpt>
      <trkpt lat="45.82085" lon="5.79385">
        <ele>236.9</ele>
        <time>2022-09-26T10:02:18Z</time>
      </trkpt>
      <trkpt lat="45.82087" lon="5.79391">
        <ele>236.8</ele>
        <time>2022-09-26T10:02:19Z</time>
      </trkpt>
      <trkpt lat="45.82089" lon="5.79397">
        <ele>236.8</ele>
        <time>2022-09-26T10:02:20Z</time>
      </trkpt>
      <trkpt lat="45.82092" lon="5.79402">
        <ele>236.8</ele>
        <time>2022-09-26T10:02:21Z</time>
      </trkpt>
      <trkpt lat="45.82096" lon="5.79408">
        <ele>236.8</ele>
        <time>2022-09-26T10:02:22Z</time>
      </trkpt>
      <trkpt lat="45.82099" lon="5.79413">
        <ele>236.8</ele>
        <time>2022-09-26T10:02:23Z</time>
      </trkpt>
      <trkpt lat="45.82101" lon="5.79418">
        <ele>236.8</ele>
        <time>2022-09-26T10:02:24Z</time>
      </trkpt>
      <trkpt lat="45.82106" lon="5.79422">
        <ele>236.8</ele>
        <time>2022-09-26T10:02:25Z</time>
      </trkpt>
      <trkpt lat="45.8211" lon="5.79426">
        <ele>236.8</ele>
        <time>2022-09-26T10:02:26Z</time>
      </trkpt>
      <trkpt lat="45.82114" lon="5.79431">
        <ele>236.8</ele>
        <time>2022-09-26T10:02:27Z</time>
      </trkpt>
      <trkpt lat="45.82119" lon="5.79434">
        <ele>236.8</ele>
        <time>2022-09-26T10:02:28Z</time>
      </trkpt>
      <trkpt lat="45.82124" lon="5.79437">
        <ele>236.8</ele>
        <time>2022-09-26T10:02:29Z</time>
      </trkpt>
      <trkpt lat="45.82128" lon="5.79439">
        <ele>236.8</ele>
        <time>2022-09-26T10:02:30Z</time>
      </trkpt>
      <trkpt lat="45.82132" lon="5.79442">
        <ele>236.8</ele>
        <time>2022-09-26T10:02:31Z</time>
      </trkpt>
      <trkpt lat="45.82136" lon="5.79446">
        <ele>236.8</ele>
        <time>2022-09-26T10:02:32Z</time>
      </trkpt>
      <trkpt lat="45.82141" lon="5.7945">
        <ele>236.8</ele>
        <time>2022-09-26T10:02:33Z</time>
      </trkpt>
      <trkpt lat="45.82146" lon="5.7945">
        <ele>236.8</ele>
        <time>2022-09-26T10:02:34Z</time>
      </trkpt>
      <trkpt lat="45.82154" lon="5.79458">
        <ele>236.8</ele>
        <time>2022-09-26T10:02:35Z</time>
      </trkpt>
      <trkpt lat="45.82158" lon="5.79461">
        <ele>236.8</ele>
        <time>2022-09-26T10:02:36Z</time>
      </trkpt>
      <trkpt lat="45.82163" lon="5.79466">
        <ele>236.8</ele>
        <time>2022-09-26T10:02:37Z</time>
      </trkpt>
      <trkpt lat="45.82167" lon="5.79468">
        <ele>236.8</ele>
        <time>2022-09-26T10:02:38Z</time>
      </trkpt>
      <trkpt lat="45.8217" lon="5.7947">
        <ele>236.8</ele>
        <time>2022-09-26T10:02:39Z</time>
      </trkpt>
      <trkpt lat="45.82174" lon="5.79473">
        <ele>236.8</ele>
        <time>2022-09-26T10:02:40Z</time>
      </trkpt>
      <trkpt lat="45.82179" lon="5.79479">
        <ele>236.8</ele>
        <time>2022-09-26T10:02:41Z</time>
      </trkpt>
      <trkpt lat="45.82183" lon="5.79483">
        <ele>236.8</ele>
        <time>2022-09-26T10:02:42Z</time>
      </trkpt>
      <trkpt lat="45.82187" lon="5.79487">
        <ele>236.8</ele>
        <time>2022-09-26T10:02:43Z</time>
      </trkpt>
      <trkpt lat="45.82191" lon="5.7949">
        <ele>236.8</ele>
        <time>2022-09-26T10:02:44Z</time>
      </trkpt>
      <trkpt lat="45.82194" lon="5.79495">
        <ele>236.8</ele>
        <time>2022-09-26T10:02:45Z</time>
      </trkpt>
      <trkpt lat="45.82197" lon="5.79499">
        <ele>236.7</ele>
        <time>2022-09-26T10:02:46Z</time>
      </trkpt>
      <trkpt lat="45.82199" lon="5.79507">
        <ele>236.7</ele>
        <time>2022-09-26T10:02:47Z</time>
      </trkpt>
      <trkpt lat="45.82201" lon="5.79514">
        <ele>236.7</ele>
        <time>2022-09-26T10:02:48Z</time>
      </trkpt>
      <trkpt lat="45.82202" lon="5.79521">
        <ele>236.7</ele>
        <time>2022-09-26T10:02:49Z</time>
      </trkpt>
      <trkpt lat="45.82204" lon="5.79528">
        <ele>236.6</ele>
        <time>2022-09-26T10:02:50Z</time>
      </trkpt>
      <trkpt lat="45.82205" lon="5.79535">
        <ele>236.6</ele>
        <time>2022-09-26T10:02:51Z</time>
      </trkpt>
      <trkpt lat="45.82208" lon="5.79541">
        <ele>236.6</ele>
        <time>2022-09-26T10:02:52Z</time>
      </trkpt>
      <trkpt lat="45.82211" lon="5.79547">
        <ele>236.7</ele>
        <time>2022-09-26T10:02:53Z</time>
      </trkpt>
      <trkpt lat="45.82215" lon="5.79552">
        <ele>236.7</ele>
        <time>2022-09-26T10:02:54Z</time>
      </trkpt>
      <trkpt lat="45.82219" lon="5.79556">
        <ele>236.7</ele>
        <time>2022-09-26T10:02:55Z</time>
      </trkpt>
      <trkpt lat="45.82224" lon="5.79559">
        <ele>236.7</ele>
        <time>2022-09-26T10:02:56Z</time>
      </trkpt>
      <trkpt lat="45.82229" lon="5.79562">
        <ele>236.7</ele>
        <time>2022-09-26T10:02:57Z</time>
      </trkpt>
      <trkpt lat="45.82234" lon="5.79563">
        <ele>236.7</ele>
        <time>2022-09-26T10:02:58Z</time>
      </trkpt>
      <trkpt lat="45.82239" lon="5.79565">
        <ele>236.8</ele>
        <time>2022-09-26T10:02:59Z</time>
      </trkpt>
      <trkpt lat="45.82244" lon="5.79567">
        <ele>236.8</ele>
        <time>2022-09-26T10:03:00Z</time>
      </trkpt>
      <trkpt lat="45.82248" lon="5.79569">
        <ele>236.8</ele>
        <time>2022-09-26T10:03:01Z</time>
      </trkpt>
      <trkpt lat="45.82253" lon="5.79571">
        <ele>236.9</ele>
        <time>2022-09-26T10:03:02Z</time>
      </trkpt>
      <trkpt lat="45.82258" lon="5.79574">
        <ele>236.9</ele>
        <time>2022-09-26T10:03:03Z</time>
      </trkpt>
      <trkpt lat="45.82262" lon="5.79578">
        <ele>236.9</ele>
        <time>2022-09-26T10:03:04Z</time>
      </trkpt>
      <trkpt lat="45.82266" lon="5.79582">
        <ele>236.9</ele>
        <time>2022-09-26T10:03:05Z</time>
      </trkpt>
      <trkpt lat="45.82269" lon="5.79588">
        <ele>237</ele>
        <time>2022-09-26T10:03:06Z</time>
      </trkpt>
      <trkpt lat="45.82272" lon="5.79594">
        <ele>237</ele>
        <time>2022-09-26T10:03:07Z</time>
      </trkpt>
      <trkpt lat="45.82275" lon="5.79599">
        <ele>237</ele>
        <time>2022-09-26T10:03:08Z</time>
      </trkpt>
      <trkpt lat="45.82278" lon="5.79604">
        <ele>237.1</ele>
        <time>2022-09-26T10:03:09Z</time>
      </trkpt>
      <trkpt lat="45.82282" lon="5.79608">
        <ele>237.1</ele>
        <time>2022-09-26T10:03:10Z</time>
      </trkpt>
      <trkpt lat="45.82287" lon="5.79611">
        <ele>237.1</ele>
        <time>2022-09-26T10:03:11Z</time>
      </trkpt>
      <trkpt lat="45.82291" lon="5.79614">
        <ele>237.2</ele>
        <time>2022-09-26T10:03:12Z</time>
      </trkpt>
      <trkpt lat="45.82297" lon="5.79614">
        <ele>237.2</ele>
        <time>2022-09-26T10:03:13Z</time>
      </trkpt>
      <trkpt lat="45.82302" lon="5.79614">
        <ele>237.2</ele>
        <time>2022-09-26T10:03:14Z</time>
      </trkpt>
      <trkpt lat="45.82306" lon="5.79615">
        <ele>237.3</ele>
        <time>2022-09-26T10:03:15Z</time>
      </trkpt>
      <trkpt lat="45.8231" lon="5.79618">
        <ele>237.3</ele>
        <time>2022-09-26T10:03:16Z</time>
      </trkpt>
      <trkpt lat="45.82313" lon="5.79622">
        <ele>237.3</ele>
        <time>2022-09-26T10:03:17Z</time>
      </trkpt>
      <trkpt lat="45.82316" lon="5.79626">
        <ele>237.3</ele>
        <time>2022-09-26T10:03:18Z</time>
      </trkpt>
      <trkpt lat="45.82316" lon="5.79632">
        <ele>237.3</ele>
        <time>2022-09-26T10:03:19Z</time>
      </trkpt>
      <trkpt lat="45.82316" lon="5.79637">
        <ele>237.3</ele>
        <time>2022-09-26T10:03:20Z</time>
      </trkpt>
      <trkpt lat="45.82313" lon="5.79643">
        <ele>237.3</ele>
        <time>2022-09-26T10:03:21Z</time>
      </trkpt>
      <trkpt lat="45.82312" lon="5.79649">
        <ele>237.3</ele>
        <time>2022-09-26T10:03:22Z</time>
      </trkpt>
      <trkpt lat="45.8231" lon="5.79655">
        <ele>237.2</ele>
        <time>2022-09-26T10:03:23Z</time>
      </trkpt>
      <trkpt lat="45.82309" lon="5.79662">
        <ele>237.2</ele>
        <time>2022-09-26T10:03:24Z</time>
      </trkpt>
      <trkpt lat="45.82309" lon="5.79668">
        <ele>237.1</ele>
        <time>2022-09-26T10:03:25Z</time>
      </trkpt>
      <trkpt lat="45.82308" lon="5.79674">
        <ele>237.1</ele>
        <time>2022-09-26T10:03:26Z</time>
      </trkpt>
      <trkpt lat="45.82308" lon="5.79682">
        <ele>237.1</ele>
        <time>2022-09-26T10:03:27Z</time>
      </trkpt>
      <trkpt lat="45.82308" lon="5.79689">
        <ele>237</ele>
        <time>2022-09-26T10:03:28Z</time>
      </trkpt>
      <trkpt lat="45.8231" lon="5.79694">
        <ele>237</ele>
        <time>2022-09-26T10:03:29Z</time>
      </trkpt>
      <trkpt lat="45.82312" lon="5.79702">
        <ele>236.9</ele>
        <time>2022-09-26T10:03:30Z</time>
      </trkpt>
      <trkpt lat="45.82314" lon="5.79707">
        <ele>236.9</ele>
        <time>2022-09-26T10:03:31Z</time>
      </trkpt>
      <trkpt lat="45.82318" lon="5.79713">
        <ele>236.9</ele>
        <time>2022-09-26T10:03:32Z</time>
      </trkpt>
      <trkpt lat="45.82321" lon="5.79719">
        <ele>236.9</ele>
        <time>2022-09-26T10:03:33Z</time>
      </trkpt>
      <trkpt lat="45.82325" lon="5.79724">
        <ele>236.9</ele>
        <time>2022-09-26T10:03:34Z</time>
      </trkpt>
      <trkpt lat="45.8233" lon="5.79729">
        <ele>236.9</ele>
        <time>2022-09-26T10:03:36Z</time>
      </trkpt>
      <trkpt lat="45.82334" lon="5.79733">
        <ele>236.9</ele>
        <time>2022-09-26T10:03:37Z</time>
      </trkpt>
      <trkpt lat="45.82339" lon="5.79737">
        <ele>236.9</ele>
        <time>2022-09-26T10:03:38Z</time>
      </trkpt>
      <trkpt lat="45.82343" lon="5.79741">
        <ele>236.9</ele>
        <time>2022-09-26T10:03:39Z</time>
      </trkpt>
      <trkpt lat="45.82347" lon="5.79744">
        <ele>236.9</ele>
        <time>2022-09-26T10:03:40Z</time>
      </trkpt>
      <trkpt lat="45.82351" lon="5.79748">
        <ele>236.8</ele>
        <time>2022-09-26T10:03:41Z</time>
      </trkpt>
      <trkpt lat="45.82356" lon="5.79752">
        <ele>236.8</ele>
        <time>2022-09-26T10:03:42Z</time>
      </trkpt>
      <trkpt lat="45.8236" lon="5.79758">
        <ele>236.8</ele>
        <time>2022-09-26T10:03:43Z</time>
      </trkpt>
      <trkpt lat="45.82363" lon="5.79763">
        <ele>236.8</ele>
        <time>2022-09-26T10:03:44Z</time>
      </trkpt>
      <trkpt lat="45.82365" lon="5.79769">
        <ele>236.8</ele>
        <time>2022-09-26T10:03:45Z</time>
      </trkpt>
      <trkpt lat="45.82367" lon="5.79776">
        <ele>236.8</ele>
        <time>2022-09-26T10:03:46Z</time>
      </trkpt>
      <trkpt lat="45.8237" lon="5.79783">
        <ele>236.7</ele>
        <time>2022-09-26T10:03:47Z</time>
      </trkpt>
      <trkpt lat="45.82371" lon="5.7979">
        <ele>236.7</ele>
        <time>2022-09-26T10:03:48Z</time>
      </trkpt>
      <trkpt lat="45.82373" lon="5.79796">
        <ele>236.7</ele>
        <time>2022-09-26T10:03:49Z</time>
      </trkpt>
      <trkpt lat="45.82375" lon="5.79802">
        <ele>236.7</ele>
        <time>2022-09-26T10:03:50Z</time>
      </trkpt>
      <trkpt lat="45.82378" lon="5.79808">
        <ele>236.7</ele>
        <time>2022-09-26T10:03:51Z</time>
      </trkpt>
      <trkpt lat="45.82379" lon="5.79814">
        <ele>236.7</ele>
        <time>2022-09-26T10:03:52Z</time>
      </trkpt>
      <trkpt lat="45.82383" lon="5.79821">
        <ele>236.8</ele>
        <time>2022-09-26T10:03:53Z</time>
      </trkpt>
      <trkpt lat="45.82386" lon="5.79826">
        <ele>236.8</ele>
        <time>2022-09-26T10:03:54Z</time>
      </trkpt>
      <trkpt lat="45.8239" lon="5.79833">
        <ele>236.8</ele>
        <time>2022-09-26T10:03:55Z</time>
      </trkpt>
      <trkpt lat="45.82393" lon="5.79837">
        <ele>236.8</ele>
        <time>2022-09-26T10:03:56Z</time>
      </trkpt>
      <trkpt lat="45.82397" lon="5.79842">
        <ele>236.8</ele>
        <time>2022-09-26T10:03:57Z</time>
      </trkpt>
      <trkpt lat="45.82401" lon="5.79846">
        <ele>236.9</ele>
        <time>2022-09-26T10:03:58Z</time>
      </trkpt>
      <trkpt lat="45.82404" lon="5.7985">
        <ele>236.9</ele>
        <time>2022-09-26T10:03:59Z</time>
      </trkpt>
      <trkpt lat="45.82407" lon="5.79853">
        <ele>236.9</ele>
        <time>2022-09-26T10:04:00Z</time>
      </trkpt>
      <trkpt lat="45.8241" lon="5.79856">
        <ele>236.9</ele>
        <time>2022-09-26T10:04:01Z</time>
      </trkpt>
      <trkpt lat="45.82414" lon="5.79858">
        <ele>236.9</ele>
        <time>2022-09-26T10:04:02Z</time>
      </trkpt>
      <trkpt lat="45.82418" lon="5.7986">
        <ele>236.9</ele>
        <time>2022-09-26T10:04:03Z</time>
      </trkpt>
      <trkpt lat="45.82423" lon="5.7986">
        <ele>236.8</ele>
        <time>2022-09-26T10:04:04Z</time>
      </trkpt>
      <trkpt lat="45.82427" lon="5.7986">
        <ele>236.8</ele>
        <time>2022-09-26T10:04:05Z</time>
      </trkpt>
      <trkpt lat="45.82431" lon="5.7986">
        <ele>236.7</ele>
        <time>2022-09-26T10:04:06Z</time>
      </trkpt>
      <trkpt lat="45.82435" lon="5.79859">
        <ele>236.7</ele>
        <time>2022-09-26T10:04:07Z</time>
      </trkpt>
      <trkpt lat="45.8244" lon="5.79859">
        <ele>236.7</ele>
        <time>2022-09-26T10:04:08Z</time>
      </trkpt>
      <trkpt lat="45.82445" lon="5.79859">
        <ele>236.7</ele>
        <time>2022-09-26T10:04:09Z</time>
      </trkpt>
      <trkpt lat="45.8245" lon="5.79859">
        <ele>236.7</ele>
        <time>2022-09-26T10:04:10Z</time>
      </trkpt>
      <trkpt lat="45.82454" lon="5.79861">
        <ele>236.7</ele>
        <time>2022-09-26T10:04:11Z</time>
      </trkpt>
      <trkpt lat="45.82458" lon="5.79863">
        <ele>236.7</ele>
        <time>2022-09-26T10:04:12Z</time>
      </trkpt>
      <trkpt lat="45.82462" lon="5.79867">
        <ele>236.8</ele>
        <time>2022-09-26T10:04:13Z</time>
      </trkpt>
      <trkpt lat="45.82466" lon="5.7987">
        <ele>236.8</ele>
        <time>2022-09-26T10:04:14Z</time>
      </trkpt>
      <trkpt lat="45.82468" lon="5.79874">
        <ele>236.8</ele>
        <time>2022-09-26T10:04:15Z</time>
      </trkpt>
      <trkpt lat="45.82471" lon="5.79878">
        <ele>236.8</ele>
        <time>2022-09-26T10:04:16Z</time>
      </trkpt>
      <trkpt lat="45.82474" lon="5.79883">
        <ele>236.8</ele>
        <time>2022-09-26T10:04:17Z</time>
      </trkpt>
      <trkpt lat="45.82478" lon="5.79888">
        <ele>236.8</ele>
        <time>2022-09-26T10:04:18Z</time>
      </trkpt>
      <trkpt lat="45.82481" lon="5.79893">
        <ele>236.7</ele>
        <time>2022-09-26T10:04:19Z</time>
      </trkpt>
      <trkpt lat="45.82484" lon="5.79898">
        <ele>236.7</ele>
        <time>2022-09-26T10:04:20Z</time>
      </trkpt>
      <trkpt lat="45.82487" lon="5.79902">
        <ele>236.7</ele>
        <time>2022-09-26T10:04:21Z</time>
      </trkpt>
      <trkpt lat="45.82491" lon="5.79907">
        <ele>236.6</ele>
        <time>2022-09-26T10:04:22Z</time>
      </trkpt>
      <trkpt lat="45.82495" lon="5.79911">
        <ele>236.6</ele>
        <time>2022-09-26T10:04:23Z</time>
      </trkpt>
      <trkpt lat="45.82499" lon="5.79916">
        <ele>236.6</ele>
        <time>2022-09-26T10:04:24Z</time>
      </trkpt>
      <trkpt lat="45.82503" lon="5.79919">
        <ele>236.6</ele>
        <time>2022-09-26T10:04:25Z</time>
      </trkpt>
      <trkpt lat="45.82507" lon="5.79923">
        <ele>236.5</ele>
        <time>2022-09-26T10:04:26Z</time>
      </trkpt>
      <trkpt lat="45.82512" lon="5.79927">
        <ele>236.5</ele>
        <time>2022-09-26T10:04:27Z</time>
      </trkpt>
      <trkpt lat="45.82516" lon="5.7993">
        <ele>236.5</ele>
        <time>2022-09-26T10:04:28Z</time>
      </trkpt>
      <trkpt lat="45.82521" lon="5.79932">
        <ele>236.5</ele>
        <time>2022-09-26T10:04:29Z</time>
      </trkpt>
      <trkpt lat="45.82524" lon="5.79934">
        <ele>236.4</ele>
        <time>2022-09-26T10:04:30Z</time>
      </trkpt>
      <trkpt lat="45.8253" lon="5.79936">
        <ele>236.4</ele>
        <time>2022-09-26T10:04:31Z</time>
      </trkpt>
      <trkpt lat="45.82533" lon="5.79938">
        <ele>236.4</ele>
        <time>2022-09-26T10:04:32Z</time>
      </trkpt>
      <trkpt lat="45.82538" lon="5.79939">
        <ele>236.4</ele>
        <time>2022-09-26T10:04:33Z</time>
      </trkpt>
      <trkpt lat="45.82543" lon="5.7994">
        <ele>236.4</ele>
        <time>2022-09-26T10:04:34Z</time>
      </trkpt>
      <trkpt lat="45.82547" lon="5.79942">
        <ele>236.3</ele>
        <time>2022-09-26T10:04:35Z</time>
      </trkpt>
      <trkpt lat="45.82552" lon="5.79943">
        <ele>236.3</ele>
        <time>2022-09-26T10:04:36Z</time>
      </trkpt>
      <trkpt lat="45.82556" lon="5.79945">
        <ele>236.3</ele>
        <time>2022-09-26T10:04:37Z</time>
      </trkpt>
      <trkpt lat="45.82561" lon="5.79947">
        <ele>236.3</ele>
        <time>2022-09-26T10:04:38Z</time>
      </trkpt>
      <trkpt lat="45.82566" lon="5.79949">
        <ele>236.3</ele>
        <time>2022-09-26T10:04:39Z</time>
      </trkpt>
      <trkpt lat="45.82571" lon="5.79951">
        <ele>236.3</ele>
        <time>2022-09-26T10:04:40Z</time>
      </trkpt>
      <trkpt lat="45.82575" lon="5.79953">
        <ele>236.3</ele>
        <time>2022-09-26T10:04:41Z</time>
      </trkpt>
      <trkpt lat="45.82579" lon="5.79956">
        <ele>236.3</ele>
        <time>2022-09-26T10:04:42Z</time>
      </trkpt>
      <trkpt lat="45.82584" lon="5.79959">
        <ele>236.3</ele>
        <time>2022-09-26T10:04:43Z</time>
      </trkpt>
      <trkpt lat="45.82588" lon="5.79961">
        <ele>236.3</ele>
        <time>2022-09-26T10:04:44Z</time>
      </trkpt>
      <trkpt lat="45.82593" lon="5.79964">
        <ele>236.3</ele>
        <time>2022-09-26T10:04:45Z</time>
      </trkpt>
      <trkpt lat="45.82597" lon="5.79967">
        <ele>236.3</ele>
        <time>2022-09-26T10:04:46Z</time>
      </trkpt>
      <trkpt lat="45.82606" lon="5.79972">
        <ele>236.3</ele>
        <time>2022-09-26T10:04:47Z</time>
      </trkpt>
      <trkpt lat="45.8261" lon="5.79975">
        <ele>236.3</ele>
        <time>2022-09-26T10:04:48Z</time>
      </trkpt>
      <trkpt lat="45.82615" lon="5.79977">
        <ele>236.3</ele>
        <time>2022-09-26T10:04:49Z</time>
      </trkpt>
      <trkpt lat="45.82619" lon="5.79979">
        <ele>236.3</ele>
        <time>2022-09-26T10:04:50Z</time>
      </trkpt>
      <trkpt lat="45.82624" lon="5.79981">
        <ele>236.3</ele>
        <time>2022-09-26T10:04:51Z</time>
      </trkpt>
      <trkpt lat="45.82629" lon="5.79982">
        <ele>236.3</ele>
        <time>2022-09-26T10:04:52Z</time>
      </trkpt>
      <trkpt lat="45.82633" lon="5.79984">
        <ele>236.3</ele>
        <time>2022-09-26T10:04:53Z</time>
      </trkpt>
      <trkpt lat="45.82638" lon="5.79985">
        <ele>236.3</ele>
        <time>2022-09-26T10:04:54Z</time>
      </trkpt>
      <trkpt lat="45.82643" lon="5.79985">
        <ele>236.3</ele>
        <time>2022-09-26T10:04:55Z</time>
      </trkpt>
      <trkpt lat="45.82647" lon="5.79986">
        <ele>236.3</ele>
        <time>2022-09-26T10:04:56Z</time>
      </trkpt>
      <trkpt lat="45.82652" lon="5.79987">
        <ele>236.3</ele>
        <time>2022-09-26T10:04:57Z</time>
      </trkpt>
      <trkpt lat="45.82657" lon="5.79988">
        <ele>236.2</ele>
        <time>2022-09-26T10:04:58Z</time>
      </trkpt>
      <trkpt lat="45.82661" lon="5.7999">
        <ele>236.2</ele>
        <time>2022-09-26T10:04:59Z</time>
      </trkpt>
      <trkpt lat="45.82666" lon="5.79991">
        <ele>236.2</ele>
        <time>2022-09-26T10:05:00Z</time>
      </trkpt>
      <trkpt lat="45.82671" lon="5.79992">
        <ele>236.2</ele>
        <time>2022-09-26T10:05:01Z</time>
      </trkpt>
      <trkpt lat="45.82675" lon="5.79993">
        <ele>236.2</ele>
        <time>2022-09-26T10:05:02Z</time>
      </trkpt>
      <trkpt lat="45.8268" lon="5.79994">
        <ele>236.2</ele>
        <time>2022-09-26T10:05:03Z</time>
      </trkpt>
      <trkpt lat="45.82685" lon="5.79997">
        <ele>236.2</ele>
        <time>2022-09-26T10:05:04Z</time>
      </trkpt>
      <trkpt lat="45.82689" lon="5.79999">
        <ele>236.2</ele>
        <time>2022-09-26T10:05:05Z</time>
      </trkpt>
      <trkpt lat="45.82694" lon="5.80002">
        <ele>236.2</ele>
        <time>2022-09-26T10:05:06Z</time>
      </trkpt>
      <trkpt lat="45.82698" lon="5.80005">
        <ele>236.2</ele>
        <time>2022-09-26T10:05:07Z</time>
      </trkpt>
      <trkpt lat="45.82702" lon="5.80008">
        <ele>236.2</ele>
        <time>2022-09-26T10:05:08Z</time>
      </trkpt>
      <trkpt lat="45.82706" lon="5.80011">
        <ele>236.2</ele>
        <time>2022-09-26T10:05:09Z</time>
      </trkpt>
      <trkpt lat="45.8271" lon="5.80013">
        <ele>236.1</ele>
        <time>2022-09-26T10:05:10Z</time>
      </trkpt>
      <trkpt lat="45.82714" lon="5.80016">
        <ele>236.1</ele>
        <time>2022-09-26T10:05:11Z</time>
      </trkpt>
      <trkpt lat="45.82718" lon="5.8002">
        <ele>236.1</ele>
        <time>2022-09-26T10:05:12Z</time>
      </trkpt>
      <trkpt lat="45.82722" lon="5.80024">
        <ele>236.1</ele>
        <time>2022-09-26T10:05:13Z</time>
      </trkpt>
      <trkpt lat="45.82724" lon="5.80027">
        <ele>236.1</ele>
        <time>2022-09-26T10:05:14Z</time>
      </trkpt>
      <trkpt lat="45.82729" lon="5.8003">
        <ele>236.1</ele>
        <time>2022-09-26T10:05:15Z</time>
      </trkpt>
      <trkpt lat="45.82733" lon="5.80034">
        <ele>236.1</ele>
        <time>2022-09-26T10:05:16Z</time>
      </trkpt>
      <trkpt lat="45.82737" lon="5.80038">
        <ele>236.1</ele>
        <time>2022-09-26T10:05:17Z</time>
      </trkpt>
      <trkpt lat="45.82739" lon="5.8004">
        <ele>236</ele>
        <time>2022-09-26T10:05:18Z</time>
      </trkpt>
      <trkpt lat="45.82743" lon="5.80043">
        <ele>236</ele>
        <time>2022-09-26T10:05:19Z</time>
      </trkpt>
      <trkpt lat="45.82748" lon="5.80044">
        <ele>236</ele>
        <time>2022-09-26T10:05:20Z</time>
      </trkpt>
      <trkpt lat="45.82752" lon="5.80046">
        <ele>236</ele>
        <time>2022-09-26T10:05:21Z</time>
      </trkpt>
      <trkpt lat="45.82756" lon="5.80047">
        <ele>236</ele>
        <time>2022-09-26T10:05:22Z</time>
      </trkpt>
      <trkpt lat="45.82761" lon="5.80049">
        <ele>236</ele>
        <time>2022-09-26T10:05:23Z</time>
      </trkpt>
      <trkpt lat="45.82766" lon="5.8005">
        <ele>236</ele>
        <time>2022-09-26T10:05:24Z</time>
      </trkpt>
      <trkpt lat="45.82771" lon="5.80052">
        <ele>236</ele>
        <time>2022-09-26T10:05:25Z</time>
      </trkpt>
      <trkpt lat="45.82775" lon="5.80053">
        <ele>236.1</ele>
        <time>2022-09-26T10:05:26Z</time>
      </trkpt>
      <trkpt lat="45.8278" lon="5.80054">
        <ele>236.1</ele>
        <time>2022-09-26T10:05:27Z</time>
      </trkpt>
      <trkpt lat="45.82784" lon="5.80054">
        <ele>236.2</ele>
        <time>2022-09-26T10:05:28Z</time>
      </trkpt>
      <trkpt lat="45.82789" lon="5.80055">
        <ele>236.2</ele>
        <time>2022-09-26T10:05:29Z</time>
      </trkpt>
      <trkpt lat="45.82795" lon="5.80055">
        <ele>236.3</ele>
        <time>2022-09-26T10:05:30Z</time>
      </trkpt>
      <trkpt lat="45.82799" lon="5.80056">
        <ele>236.4</ele>
        <time>2022-09-26T10:05:31Z</time>
      </trkpt>
      <trkpt lat="45.82805" lon="5.80058">
        <ele>236.5</ele>
        <time>2022-09-26T10:05:32Z</time>
      </trkpt>
      <trkpt lat="45.82809" lon="5.8006">
        <ele>236.6</ele>
        <time>2022-09-26T10:05:33Z</time>
      </trkpt>
      <trkpt lat="45.82814" lon="5.80063">
        <ele>236.8</ele>
        <time>2022-09-26T10:05:34Z</time>
      </trkpt>
      <trkpt lat="45.82817" lon="5.80066">
        <ele>236.9</ele>
        <time>2022-09-26T10:05:35Z</time>
      </trkpt>
      <trkpt lat="45.8282" lon="5.80069">
        <ele>237</ele>
        <time>2022-09-26T10:05:36Z</time>
      </trkpt>
      <trkpt lat="45.82822" lon="5.80071">
        <ele>237.1</ele>
        <time>2022-09-26T10:05:37Z</time>
      </trkpt>
      <trkpt lat="45.82826" lon="5.80075">
        <ele>237.3</ele>
        <time>2022-09-26T10:05:38Z</time>
      </trkpt>
      <trkpt lat="45.82827" lon="5.80076">
        <ele>237.3</ele>
        <time>2022-09-26T10:05:39Z</time>
      </trkpt>
      <trkpt lat="45.82827" lon="5.80077">
        <ele>237.3</ele>
        <time>2022-09-26T10:05:40Z</time>
      </trkpt>
      <trkpt lat="45.82829" lon="5.80079">
        <ele>237.5</ele>
        <time>2022-09-26T10:05:42Z</time>
      </trkpt>
      <trkpt lat="45.8283" lon="5.80076">
        <ele>237.5</ele>
        <time>2022-09-26T10:05:43Z</time>
      </trkpt>
      <trkpt lat="45.82833" lon="5.80074">
        <ele>237.5</ele>
        <time>2022-09-26T10:05:44Z</time>
      </trkpt>
      <trkpt lat="45.82836" lon="5.80072">
        <ele>237.4</ele>
        <time>2022-09-26T10:05:45Z</time>
      </trkpt>
      <trkpt lat="45.82838" lon="5.80067">
        <ele>237.4</ele>
        <time>2022-09-26T10:05:46Z</time>
      </trkpt>
      <trkpt lat="45.82839" lon="5.80065">
        <ele>237.4</ele>
        <time>2022-09-26T10:05:47Z</time>
      </trkpt>
      <trkpt lat="45.82841" lon="5.8006">
        <ele>237.4</ele>
        <time>2022-09-26T10:05:48Z</time>
      </trkpt>
      <trkpt lat="45.82844" lon="5.80057">
        <ele>237.4</ele>
        <time>2022-09-26T10:05:49Z</time>
      </trkpt>
      <trkpt lat="45.82847" lon="5.80052">
        <ele>237.4</ele>
        <time>2022-09-26T10:05:50Z</time>
      </trkpt>
      <trkpt lat="45.8285" lon="5.80048">
        <ele>237.4</ele>
        <time>2022-09-26T10:05:51Z</time>
      </trkpt>
      <trkpt lat="45.82853" lon="5.80044">
        <ele>237.5</ele>
        <time>2022-09-26T10:05:52Z</time>
      </trkpt>
      <trkpt lat="45.82855" lon="5.80041">
        <ele>237.5</ele>
        <time>2022-09-26T10:05:53Z</time>
      </trkpt>
      <trkpt lat="45.82859" lon="5.80038">
        <ele>237.5</ele>
        <time>2022-09-26T10:05:54Z</time>
      </trkpt>
      <trkpt lat="45.82862" lon="5.80033">
        <ele>237.5</ele>
        <time>2022-09-26T10:05:55Z</time>
      </trkpt>
      <trkpt lat="45.82865" lon="5.8003">
        <ele>237.6</ele>
        <time>2022-09-26T10:05:56Z</time>
      </trkpt>
      <trkpt lat="45.82869" lon="5.80028">
        <ele>237.6</ele>
        <time>2022-09-26T10:05:57Z</time>
      </trkpt>
      <trkpt lat="45.82872" lon="5.80024">
        <ele>237.6</ele>
        <time>2022-09-26T10:05:58Z</time>
      </trkpt>
      <trkpt lat="45.82875" lon="5.80018">
        <ele>237.6</ele>
        <time>2022-09-26T10:05:59Z</time>
      </trkpt>
      <trkpt lat="45.82879" lon="5.80013">
        <ele>237.7</ele>
        <time>2022-09-26T10:06:00Z</time>
      </trkpt>
      <trkpt lat="45.82881" lon="5.80007">
        <ele>237.7</ele>
        <time>2022-09-26T10:06:01Z</time>
      </trkpt>
      <trkpt lat="45.82885" lon="5.80002">
        <ele>237.7</ele>
        <time>2022-09-26T10:06:02Z</time>
      </trkpt>
      <trkpt lat="45.82887" lon="5.79997">
        <ele>237.7</ele>
        <time>2022-09-26T10:06:03Z</time>
      </trkpt>
      <trkpt lat="45.8289" lon="5.79992">
        <ele>237.7</ele>
        <time>2022-09-26T10:06:04Z</time>
      </trkpt>
      <trkpt lat="45.82893" lon="5.79987">
        <ele>237.7</ele>
        <time>2022-09-26T10:06:05Z</time>
      </trkpt>
      <trkpt lat="45.82897" lon="5.79983">
        <ele>237.7</ele>
        <time>2022-09-26T10:06:06Z</time>
      </trkpt>
      <trkpt lat="45.82901" lon="5.79979">
        <ele>237.7</ele>
        <time>2022-09-26T10:06:07Z</time>
      </trkpt>
      <trkpt lat="45.82905" lon="5.79974">
        <ele>237.7</ele>
        <time>2022-09-26T10:06:08Z</time>
      </trkpt>
      <trkpt lat="45.82908" lon="5.79971">
        <ele>237.8</ele>
        <time>2022-09-26T10:06:09Z</time>
      </trkpt>
      <trkpt lat="45.82912" lon="5.79968">
        <ele>237.8</ele>
        <time>2022-09-26T10:06:10Z</time>
      </trkpt>
      <trkpt lat="45.82915" lon="5.79964">
        <ele>237.8</ele>
        <time>2022-09-26T10:06:11Z</time>
      </trkpt>
      <trkpt lat="45.82919" lon="5.7996">
        <ele>237.8</ele>
        <time>2022-09-26T10:06:12Z</time>
      </trkpt>
      <trkpt lat="45.82922" lon="5.79957">
        <ele>237.8</ele>
        <time>2022-09-26T10:06:13Z</time>
      </trkpt>
      <trkpt lat="45.82927" lon="5.79954">
        <ele>237.9</ele>
        <time>2022-09-26T10:06:14Z</time>
      </trkpt>
      <trkpt lat="45.8293" lon="5.7995">
        <ele>237.9</ele>
        <time>2022-09-26T10:06:15Z</time>
      </trkpt>
      <trkpt lat="45.82932" lon="5.79946">
        <ele>237.9</ele>
        <time>2022-09-26T10:06:16Z</time>
      </trkpt>
      <trkpt lat="45.82935" lon="5.7994">
        <ele>237.9</ele>
        <time>2022-09-26T10:06:17Z</time>
      </trkpt>
      <trkpt lat="45.82938" lon="5.79935">
        <ele>237.9</ele>
        <time>2022-09-26T10:06:18Z</time>
      </trkpt>
      <trkpt lat="45.82941" lon="5.79931">
        <ele>237.9</ele>
        <time>2022-09-26T10:06:19Z</time>
      </trkpt>
      <trkpt lat="45.82944" lon="5.79926">
        <ele>237.9</ele>
        <time>2022-09-26T10:06:20Z</time>
      </trkpt>
      <trkpt lat="45.82946" lon="5.79922">
        <ele>237.9</ele>
        <time>2022-09-26T10:06:21Z</time>
      </trkpt>
      <trkpt lat="45.82949" lon="5.79918">
        <ele>237.9</ele>
        <time>2022-09-26T10:06:22Z</time>
      </trkpt>
      <trkpt lat="45.82951" lon="5.79914">
        <ele>237.9</ele>
        <time>2022-09-26T10:06:23Z</time>
      </trkpt>
      <trkpt lat="45.82955" lon="5.79909">
        <ele>237.9</ele>
        <time>2022-09-26T10:06:24Z</time>
      </trkpt>
      <trkpt lat="45.82958" lon="5.79904">
        <ele>237.9</ele>
        <time>2022-09-26T10:06:25Z</time>
      </trkpt>
      <trkpt lat="45.82961" lon="5.799">
        <ele>237.9</ele>
        <time>2022-09-26T10:06:26Z</time>
      </trkpt>
      <trkpt lat="45.82963" lon="5.79894">
        <ele>237.9</ele>
        <time>2022-09-26T10:06:27Z</time>
      </trkpt>
      <trkpt lat="45.82967" lon="5.79889">
        <ele>237.9</ele>
        <time>2022-09-26T10:06:28Z</time>
      </trkpt>
      <trkpt lat="45.82969" lon="5.79885">
        <ele>237.9</ele>
        <time>2022-09-26T10:06:29Z</time>
      </trkpt>
      <trkpt lat="45.82973" lon="5.7988">
        <ele>238</ele>
        <time>2022-09-26T10:06:30Z</time>
      </trkpt>
      <trkpt lat="45.82975" lon="5.79875">
        <ele>238</ele>
        <time>2022-09-26T10:06:31Z</time>
      </trkpt>
      <trkpt lat="45.82979" lon="5.7987">
        <ele>238</ele>
        <time>2022-09-26T10:06:32Z</time>
      </trkpt>
      <trkpt lat="45.82981" lon="5.79866">
        <ele>238</ele>
        <time>2022-09-26T10:06:33Z</time>
      </trkpt>
      <trkpt lat="45.82984" lon="5.79862">
        <ele>238.1</ele>
        <time>2022-09-26T10:06:34Z</time>
      </trkpt>
      <trkpt lat="45.82986" lon="5.79859">
        <ele>238.1</ele>
        <time>2022-09-26T10:06:35Z</time>
      </trkpt>
      <trkpt lat="45.82988" lon="5.79855">
        <ele>238.2</ele>
        <time>2022-09-26T10:06:36Z</time>
      </trkpt>
      <trkpt lat="45.8299" lon="5.79851">
        <ele>238.2</ele>
        <time>2022-09-26T10:06:37Z</time>
      </trkpt>
      <trkpt lat="45.82991" lon="5.79849">
        <ele>238.2</ele>
        <time>2022-09-26T10:06:38Z</time>
      </trkpt>
      <trkpt lat="45.82993" lon="5.79847">
        <ele>238.3</ele>
        <time>2022-09-26T10:06:39Z</time>
      </trkpt>
      <trkpt lat="45.82995" lon="5.79844">
        <ele>238.3</ele>
        <time>2022-09-26T10:06:40Z</time>
      </trkpt>
      <trkpt lat="45.82997" lon="5.7984">
        <ele>238.4</ele>
        <time>2022-09-26T10:06:41Z</time>
      </trkpt>
      <trkpt lat="45.82999" lon="5.79837">
        <ele>238.4</ele>
        <time>2022-09-26T10:06:42Z</time>
      </trkpt>
      <trkpt lat="45.83001" lon="5.79833">
        <ele>238.4</ele>
        <time>2022-09-26T10:06:43Z</time>
      </trkpt>
      <trkpt lat="45.83003" lon="5.7983">
        <ele>238.5</ele>
        <time>2022-09-26T10:06:44Z</time>
      </trkpt>
      <trkpt lat="45.83005" lon="5.79828">
        <ele>238.5</ele>
        <time>2022-09-26T10:06:45Z</time>
      </trkpt>
      <trkpt lat="45.83007" lon="5.79824">
        <ele>238.6</ele>
        <time>2022-09-26T10:06:46Z</time>
      </trkpt>
      <trkpt lat="45.83009" lon="5.7982">
        <ele>238.6</ele>
        <time>2022-09-26T10:06:47Z</time>
      </trkpt>
      <trkpt lat="45.83011" lon="5.79817">
        <ele>238.7</ele>
        <time>2022-09-26T10:06:48Z</time>
      </trkpt>
      <trkpt lat="45.83013" lon="5.79811">
        <ele>238.8</ele>
        <time>2022-09-26T10:06:49Z</time>
      </trkpt>
      <trkpt lat="45.83013" lon="5.7981">
        <ele>238.9</ele>
        <time>2022-09-26T10:06:50Z</time>
      </trkpt>
      <trkpt lat="45.83015" lon="5.79806">
        <ele>239</ele>
        <time>2022-09-26T10:06:51Z</time>
      </trkpt>
      <trkpt lat="45.83019" lon="5.79804">
        <ele>239.1</ele>
        <time>2022-09-26T10:06:52Z</time>
      </trkpt>
      <trkpt lat="45.8302" lon="5.79803">
        <ele>239.2</ele>
        <time>2022-09-26T10:06:53Z</time>
      </trkpt>
      <trkpt lat="45.83023" lon="5.79803">
        <ele>239.2</ele>
        <time>2022-09-26T10:06:54Z</time>
      </trkpt>
      <trkpt lat="45.83024" lon="5.79803">
        <ele>239.3</ele>
        <time>2022-09-26T10:06:55Z</time>
      </trkpt>
      <trkpt lat="45.83029" lon="5.79808">
        <ele>239.4</ele>
        <time>2022-09-26T10:06:56Z</time>
      </trkpt>
      <trkpt lat="45.83031" lon="5.79811">
        <ele>239.5</ele>
        <time>2022-09-26T10:06:57Z</time>
      </trkpt>
      <trkpt lat="45.83034" lon="5.79815">
        <ele>239.5</ele>
        <time>2022-09-26T10:06:58Z</time>
      </trkpt>
      <trkpt lat="45.83036" lon="5.79816">
        <ele>239.5</ele>
        <time>2022-09-26T10:06:59Z</time>
      </trkpt>
      <trkpt lat="45.83038" lon="5.79819">
        <ele>239.6</ele>
        <time>2022-09-26T10:07:00Z</time>
      </trkpt>
      <trkpt lat="45.8304" lon="5.79825">
        <ele>239.5</ele>
        <time>2022-09-26T10:07:01Z</time>
      </trkpt>
      <trkpt lat="45.83041" lon="5.79826">
        <ele>239.5</ele>
        <time>2022-09-26T10:07:02Z</time>
      </trkpt>
      <trkpt lat="45.83044" lon="5.79831">
        <ele>239.5</ele>
        <time>2022-09-26T10:07:03Z</time>
      </trkpt>
      <trkpt lat="45.83047" lon="5.79833">
        <ele>239.5</ele>
        <time>2022-09-26T10:07:04Z</time>
      </trkpt>
      <trkpt lat="45.8305" lon="5.79838">
        <ele>239.5</ele>
        <time>2022-09-26T10:07:05Z</time>
      </trkpt>
      <trkpt lat="45.83053" lon="5.79842">
        <ele>239.5</ele>
        <time>2022-09-26T10:07:06Z</time>
      </trkpt>
      <trkpt lat="45.83056" lon="5.79846">
        <ele>239.5</ele>
        <time>2022-09-26T10:07:07Z</time>
      </trkpt>
      <trkpt lat="45.83059" lon="5.7985">
        <ele>239.5</ele>
        <time>2022-09-26T10:07:08Z</time>
      </trkpt>
      <trkpt lat="45.83062" lon="5.79854">
        <ele>239.5</ele>
        <time>2022-09-26T10:07:09Z</time>
      </trkpt>
      <trkpt lat="45.83065" lon="5.79858">
        <ele>239.5</ele>
        <time>2022-09-26T10:07:10Z</time>
      </trkpt>
      <trkpt lat="45.83068" lon="5.79862">
        <ele>239.5</ele>
        <time>2022-09-26T10:07:11Z</time>
      </trkpt>
      <trkpt lat="45.83071" lon="5.79866">
        <ele>239.5</ele>
        <time>2022-09-26T10:07:12Z</time>
      </trkpt>
      <trkpt lat="45.83074" lon="5.79871">
        <ele>239.5</ele>
        <time>2022-09-26T10:07:13Z</time>
      </trkpt>
      <trkpt lat="45.83077" lon="5.79875">
        <ele>239.5</ele>
        <time>2022-09-26T10:07:14Z</time>
      </trkpt>
      <trkpt lat="45.8308" lon="5.7988">
        <ele>239.6</ele>
        <time>2022-09-26T10:07:15Z</time>
      </trkpt>
      <trkpt lat="45.83083" lon="5.79884">
        <ele>239.6</ele>
        <time>2022-09-26T10:07:16Z</time>
      </trkpt>
      <trkpt lat="45.83087" lon="5.79889">
        <ele>239.6</ele>
        <time>2022-09-26T10:07:17Z</time>
      </trkpt>
      <trkpt lat="45.8309" lon="5.79894">
        <ele>239.6</ele>
        <time>2022-09-26T10:07:18Z</time>
      </trkpt>
      <trkpt lat="45.83093" lon="5.79898">
        <ele>239.6</ele>
        <time>2022-09-26T10:07:19Z</time>
      </trkpt>
      <trkpt lat="45.83096" lon="5.79903">
        <ele>239.6</ele>
        <time>2022-09-26T10:07:20Z</time>
      </trkpt>
      <trkpt lat="45.831" lon="5.79908">
        <ele>239.6</ele>
        <time>2022-09-26T10:07:21Z</time>
      </trkpt>
      <trkpt lat="45.83103" lon="5.79913">
        <ele>239.6</ele>
        <time>2022-09-26T10:07:22Z</time>
      </trkpt>
      <trkpt lat="45.83106" lon="5.79918">
        <ele>239.6</ele>
        <time>2022-09-26T10:07:23Z</time>
      </trkpt>
      <trkpt lat="45.8311" lon="5.79923">
        <ele>239.7</ele>
        <time>2022-09-26T10:07:24Z</time>
      </trkpt>
      <trkpt lat="45.83113" lon="5.79928">
        <ele>239.7</ele>
        <time>2022-09-26T10:07:25Z</time>
      </trkpt>
      <trkpt lat="45.83117" lon="5.79933">
        <ele>239.7</ele>
        <time>2022-09-26T10:07:26Z</time>
      </trkpt>
      <trkpt lat="45.8312" lon="5.79938">
        <ele>239.7</ele>
        <time>2022-09-26T10:07:27Z</time>
      </trkpt>
      <trkpt lat="45.83123" lon="5.79943">
        <ele>239.8</ele>
        <time>2022-09-26T10:07:28Z</time>
      </trkpt>
      <trkpt lat="45.83127" lon="5.79949">
        <ele>239.8</ele>
        <time>2022-09-26T10:07:29Z</time>
      </trkpt>
      <trkpt lat="45.8313" lon="5.79953">
        <ele>239.8</ele>
        <time>2022-09-26T10:07:30Z</time>
      </trkpt>
      <trkpt lat="45.83134" lon="5.79958">
        <ele>239.8</ele>
        <time>2022-09-26T10:07:31Z</time>
      </trkpt>
      <trkpt lat="45.83137" lon="5.79963">
        <ele>239.9</ele>
        <time>2022-09-26T10:07:32Z</time>
      </trkpt>
      <trkpt lat="45.8314" lon="5.79968">
        <ele>239.9</ele>
        <time>2022-09-26T10:07:33Z</time>
      </trkpt>
      <trkpt lat="45.83143" lon="5.79973">
        <ele>239.9</ele>
        <time>2022-09-26T10:07:34Z</time>
      </trkpt>
      <trkpt lat="45.83145" lon="5.79978">
        <ele>239.9</ele>
        <time>2022-09-26T10:07:35Z</time>
      </trkpt>
      <trkpt lat="45.83149" lon="5.79983">
        <ele>239.9</ele>
        <time>2022-09-26T10:07:36Z</time>
      </trkpt>
      <trkpt lat="45.83152" lon="5.79988">
        <ele>239.9</ele>
        <time>2022-09-26T10:07:37Z</time>
      </trkpt>
      <trkpt lat="45.83155" lon="5.79994">
        <ele>239.9</ele>
        <time>2022-09-26T10:07:38Z</time>
      </trkpt>
      <trkpt lat="45.83158" lon="5.79998">
        <ele>240</ele>
        <time>2022-09-26T10:07:39Z</time>
      </trkpt>
      <trkpt lat="45.83162" lon="5.80003">
        <ele>240</ele>
        <time>2022-09-26T10:07:40Z</time>
      </trkpt>
      <trkpt lat="45.83165" lon="5.80008">
        <ele>240</ele>
        <time>2022-09-26T10:07:41Z</time>
      </trkpt>
      <trkpt lat="45.83168" lon="5.80014">
        <ele>240</ele>
        <time>2022-09-26T10:07:42Z</time>
      </trkpt>
      <trkpt lat="45.83171" lon="5.8002">
        <ele>240</ele>
        <time>2022-09-26T10:07:43Z</time>
      </trkpt>
      <trkpt lat="45.83175" lon="5.80026">
        <ele>240.1</ele>
        <time>2022-09-26T10:07:44Z</time>
      </trkpt>
      <trkpt lat="45.83178" lon="5.80032">
        <ele>240.1</ele>
        <time>2022-09-26T10:07:45Z</time>
      </trkpt>
      <trkpt lat="45.83181" lon="5.80037">
        <ele>240.1</ele>
        <time>2022-09-26T10:07:46Z</time>
      </trkpt>
      <trkpt lat="45.83184" lon="5.80043">
        <ele>240.1</ele>
        <time>2022-09-26T10:07:48Z</time>
      </trkpt>
      <trkpt lat="45.83187" lon="5.80048">
        <ele>240.1</ele>
        <time>2022-09-26T10:07:49Z</time>
      </trkpt>
      <trkpt lat="45.8319" lon="5.80053">
        <ele>240.1</ele>
        <time>2022-09-26T10:07:50Z</time>
      </trkpt>
      <trkpt lat="45.83193" lon="5.80058">
        <ele>240.2</ele>
        <time>2022-09-26T10:07:51Z</time>
      </trkpt>
      <trkpt lat="45.83195" lon="5.80062">
        <ele>240.2</ele>
        <time>2022-09-26T10:07:52Z</time>
      </trkpt>
      <trkpt lat="45.83199" lon="5.80068">
        <ele>240.2</ele>
        <time>2022-09-26T10:07:53Z</time>
      </trkpt>
      <trkpt lat="45.83202" lon="5.80073">
        <ele>240.2</ele>
        <time>2022-09-26T10:07:54Z</time>
      </trkpt>
      <trkpt lat="45.83205" lon="5.80077">
        <ele>240.2</ele>
        <time>2022-09-26T10:07:55Z</time>
      </trkpt>
      <trkpt lat="45.83206" lon="5.80082">
        <ele>240.2</ele>
        <time>2022-09-26T10:07:56Z</time>
      </trkpt>
      <trkpt lat="45.83209" lon="5.80086">
        <ele>240.2</ele>
        <time>2022-09-26T10:07:57Z</time>
      </trkpt>
      <trkpt lat="45.83211" lon="5.80093">
        <ele>240.2</ele>
        <time>2022-09-26T10:07:58Z</time>
      </trkpt>
      <trkpt lat="45.83214" lon="5.80097">
        <ele>240.2</ele>
        <time>2022-09-26T10:07:59Z</time>
      </trkpt>
      <trkpt lat="45.83218" lon="5.80101">
        <ele>240.2</ele>
        <time>2022-09-26T10:08:00Z</time>
      </trkpt>
      <trkpt lat="45.83221" lon="5.80105">
        <ele>240.1</ele>
        <time>2022-09-26T10:08:01Z</time>
      </trkpt>
      <trkpt lat="45.83224" lon="5.80111">
        <ele>240.1</ele>
        <time>2022-09-26T10:08:02Z</time>
      </trkpt>
      <trkpt lat="45.83227" lon="5.80116">
        <ele>240.1</ele>
        <time>2022-09-26T10:08:03Z</time>
      </trkpt>
      <trkpt lat="45.8323" lon="5.80121">
        <ele>240.1</ele>
        <time>2022-09-26T10:08:04Z</time>
      </trkpt>
      <trkpt lat="45.83233" lon="5.80126">
        <ele>240.1</ele>
        <time>2022-09-26T10:08:05Z</time>
      </trkpt>
      <trkpt lat="45.83236" lon="5.80131">
        <ele>240.1</ele>
        <time>2022-09-26T10:08:06Z</time>
      </trkpt>
      <trkpt lat="45.83239" lon="5.80137">
        <ele>240.1</ele>
        <time>2022-09-26T10:08:07Z</time>
      </trkpt>
      <trkpt lat="45.83242" lon="5.80141">
        <ele>240.1</ele>
        <time>2022-09-26T10:08:08Z</time>
      </trkpt>
      <trkpt lat="45.83246" lon="5.80145">
        <ele>240.1</ele>
        <time>2022-09-26T10:08:09Z</time>
      </trkpt>
      <trkpt lat="45.83249" lon="5.8015">
        <ele>240.1</ele>
        <time>2022-09-26T10:08:10Z</time>
      </trkpt>
      <trkpt lat="45.83253" lon="5.80154">
        <ele>240.1</ele>
        <time>2022-09-26T10:08:11Z</time>
      </trkpt>
      <trkpt lat="45.83256" lon="5.80158">
        <ele>240.1</ele>
        <time>2022-09-26T10:08:12Z</time>
      </trkpt>
      <trkpt lat="45.83259" lon="5.80162">
        <ele>240.1</ele>
        <time>2022-09-26T10:08:13Z</time>
      </trkpt>
      <trkpt lat="45.83263" lon="5.80166">
        <ele>240.1</ele>
        <time>2022-09-26T10:08:14Z</time>
      </trkpt>
      <trkpt lat="45.83267" lon="5.8017">
        <ele>240.1</ele>
        <time>2022-09-26T10:08:15Z</time>
      </trkpt>
      <trkpt lat="45.8327" lon="5.80173">
        <ele>240.1</ele>
        <time>2022-09-26T10:08:16Z</time>
      </trkpt>
      <trkpt lat="45.83273" lon="5.80178">
        <ele>240</ele>
        <time>2022-09-26T10:08:17Z</time>
      </trkpt>
      <trkpt lat="45.83277" lon="5.80181">
        <ele>240</ele>
        <time>2022-09-26T10:08:18Z</time>
      </trkpt>
      <trkpt lat="45.8328" lon="5.80185">
        <ele>240</ele>
        <time>2022-09-26T10:08:19Z</time>
      </trkpt>
      <trkpt lat="45.83283" lon="5.8019">
        <ele>240</ele>
        <time>2022-09-26T10:08:20Z</time>
      </trkpt>
      <trkpt lat="45.83287" lon="5.80195">
        <ele>239.9</ele>
        <time>2022-09-26T10:08:21Z</time>
      </trkpt>
      <trkpt lat="45.83291" lon="5.802">
        <ele>239.8</ele>
        <time>2022-09-26T10:08:22Z</time>
      </trkpt>
      <trkpt lat="45.83294" lon="5.80204">
        <ele>239.7</ele>
        <time>2022-09-26T10:08:23Z</time>
      </trkpt>
      <trkpt lat="45.83298" lon="5.80209">
        <ele>239.6</ele>
        <time>2022-09-26T10:08:24Z</time>
      </trkpt>
      <trkpt lat="45.83303" lon="5.80214">
        <ele>239.5</ele>
        <time>2022-09-26T10:08:25Z</time>
      </trkpt>
      <trkpt lat="45.83306" lon="5.80218">
        <ele>239.5</ele>
        <time>2022-09-26T10:08:26Z</time>
      </trkpt>
      <trkpt lat="45.83309" lon="5.80224">
        <ele>239.4</ele>
        <time>2022-09-26T10:08:27Z</time>
      </trkpt>
      <trkpt lat="45.83312" lon="5.80232">
        <ele>239.3</ele>
        <time>2022-09-26T10:08:28Z</time>
      </trkpt>
      <trkpt lat="45.83316" lon="5.80238">
        <ele>239.3</ele>
        <time>2022-09-26T10:08:29Z</time>
      </trkpt>
      <trkpt lat="45.8332" lon="5.80243">
        <ele>239.2</ele>
        <time>2022-09-26T10:08:30Z</time>
      </trkpt>
      <trkpt lat="45.83321" lon="5.8025">
        <ele>239.2</ele>
        <time>2022-09-26T10:08:31Z</time>
      </trkpt>
      <trkpt lat="45.83326" lon="5.80255">
        <ele>239.2</ele>
        <time>2022-09-26T10:08:32Z</time>
      </trkpt>
      <trkpt lat="45.8333" lon="5.80259">
        <ele>239.2</ele>
        <time>2022-09-26T10:08:33Z</time>
      </trkpt>
      <trkpt lat="45.83335" lon="5.80263">
        <ele>239.2</ele>
        <time>2022-09-26T10:08:34Z</time>
      </trkpt>
      <trkpt lat="45.8334" lon="5.80267">
        <ele>239.3</ele>
        <time>2022-09-26T10:08:35Z</time>
      </trkpt>
      <trkpt lat="45.83344" lon="5.80273">
        <ele>239.3</ele>
        <time>2022-09-26T10:08:36Z</time>
      </trkpt>
      <trkpt lat="45.83349" lon="5.80276">
        <ele>239.3</ele>
        <time>2022-09-26T10:08:37Z</time>
      </trkpt>
      <trkpt lat="45.83353" lon="5.80281">
        <ele>239.3</ele>
        <time>2022-09-26T10:08:38Z</time>
      </trkpt>
      <trkpt lat="45.83357" lon="5.80284">
        <ele>239.3</ele>
        <time>2022-09-26T10:08:39Z</time>
      </trkpt>
      <trkpt lat="45.83361" lon="5.80287">
        <ele>239.3</ele>
        <time>2022-09-26T10:08:40Z</time>
      </trkpt>
      <trkpt lat="45.83366" lon="5.80292">
        <ele>239.3</ele>
        <time>2022-09-26T10:08:41Z</time>
      </trkpt>
      <trkpt lat="45.8337" lon="5.80297">
        <ele>239.3</ele>
        <time>2022-09-26T10:08:42Z</time>
      </trkpt>
      <trkpt lat="45.83375" lon="5.80301">
        <ele>239.2</ele>
        <time>2022-09-26T10:08:43Z</time>
      </trkpt>
      <trkpt lat="45.83377" lon="5.80303">
        <ele>239.2</ele>
        <time>2022-09-26T10:08:44Z</time>
      </trkpt>
      <trkpt lat="45.8338" lon="5.80308">
        <ele>239.2</ele>
        <time>2022-09-26T10:08:45Z</time>
      </trkpt>
      <trkpt lat="45.83383" lon="5.80313">
        <ele>239.2</ele>
        <time>2022-09-26T10:08:46Z</time>
      </trkpt>
      <trkpt lat="45.83389" lon="5.80319">
        <ele>239.2</ele>
        <time>2022-09-26T10:08:47Z</time>
      </trkpt>
      <trkpt lat="45.83393" lon="5.80324">
        <ele>239.2</ele>
        <time>2022-09-26T10:08:48Z</time>
      </trkpt>
      <trkpt lat="45.83395" lon="5.80329">
        <ele>239.2</ele>
        <time>2022-09-26T10:08:49Z</time>
      </trkpt>
      <trkpt lat="45.83399" lon="5.80334">
        <ele>239.2</ele>
        <time>2022-09-26T10:08:50Z</time>
      </trkpt>
      <trkpt lat="45.83402" lon="5.80338">
        <ele>239.2</ele>
        <time>2022-09-26T10:08:51Z</time>
      </trkpt>
      <trkpt lat="45.83405" lon="5.80346">
        <ele>239.2</ele>
        <time>2022-09-26T10:08:52Z</time>
      </trkpt>
      <trkpt lat="45.83408" lon="5.8035">
        <ele>239.2</ele>
        <time>2022-09-26T10:08:53Z</time>
      </trkpt>
      <trkpt lat="45.83411" lon="5.80358">
        <ele>239.3</ele>
        <time>2022-09-26T10:08:54Z</time>
      </trkpt>
      <trkpt lat="45.83415" lon="5.80364">
        <ele>239.3</ele>
        <time>2022-09-26T10:08:55Z</time>
      </trkpt>
      <trkpt lat="45.83419" lon="5.80368">
        <ele>239.4</ele>
        <time>2022-09-26T10:08:56Z</time>
      </trkpt>
      <trkpt lat="45.83423" lon="5.80371">
        <ele>239.4</ele>
        <time>2022-09-26T10:08:57Z</time>
      </trkpt>
      <trkpt lat="45.83425" lon="5.80376">
        <ele>239.4</ele>
        <time>2022-09-26T10:08:58Z</time>
      </trkpt>
      <trkpt lat="45.83427" lon="5.80381">
        <ele>239.4</ele>
        <time>2022-09-26T10:08:59Z</time>
      </trkpt>
      <trkpt lat="45.83435" lon="5.8039">
        <ele>239.5</ele>
        <time>2022-09-26T10:09:00Z</time>
      </trkpt>
      <trkpt lat="45.83439" lon="5.80394">
        <ele>239.5</ele>
        <time>2022-09-26T10:09:01Z</time>
      </trkpt>
      <trkpt lat="45.83442" lon="5.80399">
        <ele>239.5</ele>
        <time>2022-09-26T10:09:02Z</time>
      </trkpt>
      <trkpt lat="45.83446" lon="5.80403">
        <ele>239.5</ele>
        <time>2022-09-26T10:09:03Z</time>
      </trkpt>
      <trkpt lat="45.8345" lon="5.80408">
        <ele>239.5</ele>
        <time>2022-09-26T10:09:04Z</time>
      </trkpt>
      <trkpt lat="45.83453" lon="5.80415">
        <ele>239.5</ele>
        <time>2022-09-26T10:09:05Z</time>
      </trkpt>
      <trkpt lat="45.83457" lon="5.80421">
        <ele>239.5</ele>
        <time>2022-09-26T10:09:06Z</time>
      </trkpt>
      <trkpt lat="45.8346" lon="5.80427">
        <ele>239.5</ele>
        <time>2022-09-26T10:09:07Z</time>
      </trkpt>
      <trkpt lat="45.83463" lon="5.80432">
        <ele>239.5</ele>
        <time>2022-09-26T10:09:08Z</time>
      </trkpt>
      <trkpt lat="45.83465" lon="5.80436">
        <ele>239.5</ele>
        <time>2022-09-26T10:09:09Z</time>
      </trkpt>
      <trkpt lat="45.83468" lon="5.80441">
        <ele>239.5</ele>
        <time>2022-09-26T10:09:10Z</time>
      </trkpt>
      <trkpt lat="45.83472" lon="5.80444">
        <ele>239.4</ele>
        <time>2022-09-26T10:09:11Z</time>
      </trkpt>
      <trkpt lat="45.83475" lon="5.80451">
        <ele>239.3</ele>
        <time>2022-09-26T10:09:12Z</time>
      </trkpt>
      <trkpt lat="45.83479" lon="5.80457">
        <ele>239.3</ele>
        <time>2022-09-26T10:09:13Z</time>
      </trkpt>
      <trkpt lat="45.83482" lon="5.80463">
        <ele>239.2</ele>
        <time>2022-09-26T10:09:14Z</time>
      </trkpt>
      <trkpt lat="45.83485" lon="5.8047">
        <ele>239.1</ele>
        <time>2022-09-26T10:09:15Z</time>
      </trkpt>
      <trkpt lat="45.83486" lon="5.80476">
        <ele>239.1</ele>
        <time>2022-09-26T10:09:16Z</time>
      </trkpt>
      <trkpt lat="45.83489" lon="5.80483">
        <ele>239</ele>
        <time>2022-09-26T10:09:17Z</time>
      </trkpt>
      <trkpt lat="45.83491" lon="5.8049">
        <ele>239</ele>
        <time>2022-09-26T10:09:18Z</time>
      </trkpt>
      <trkpt lat="45.83491" lon="5.80498">
        <ele>238.9</ele>
        <time>2022-09-26T10:09:19Z</time>
      </trkpt>
      <trkpt lat="45.83492" lon="5.80505">
        <ele>238.9</ele>
        <time>2022-09-26T10:09:20Z</time>
      </trkpt>
      <trkpt lat="45.83493" lon="5.80513">
        <ele>238.9</ele>
        <time>2022-09-26T10:09:21Z</time>
      </trkpt>
      <trkpt lat="45.83494" lon="5.8052">
        <ele>238.9</ele>
        <time>2022-09-26T10:09:22Z</time>
      </trkpt>
      <trkpt lat="45.83493" lon="5.80526">
        <ele>239</ele>
        <time>2022-09-26T10:09:23Z</time>
      </trkpt>
      <trkpt lat="45.83495" lon="5.80533">
        <ele>239</ele>
        <time>2022-09-26T10:09:24Z</time>
      </trkpt>
      <trkpt lat="45.83497" lon="5.80541">
        <ele>239.1</ele>
        <time>2022-09-26T10:09:25Z</time>
      </trkpt>
      <trkpt lat="45.83497" lon="5.80547">
        <ele>239.1</ele>
        <time>2022-09-26T10:09:26Z</time>
      </trkpt>
      <trkpt lat="45.83498" lon="5.80553">
        <ele>239.1</ele>
        <time>2022-09-26T10:09:27Z</time>
      </trkpt>
      <trkpt lat="45.83499" lon="5.80558">
        <ele>239.1</ele>
        <time>2022-09-26T10:09:28Z</time>
      </trkpt>
      <trkpt lat="45.835" lon="5.80564">
        <ele>239.2</ele>
        <time>2022-09-26T10:09:29Z</time>
      </trkpt>
      <trkpt lat="45.83504" lon="5.80569">
        <ele>239.2</ele>
        <time>2022-09-26T10:09:30Z</time>
      </trkpt>
      <trkpt lat="45.83506" lon="5.80573">
        <ele>239.2</ele>
        <time>2022-09-26T10:09:31Z</time>
      </trkpt>
      <trkpt lat="45.83508" lon="5.80579">
        <ele>239.3</ele>
        <time>2022-09-26T10:09:32Z</time>
      </trkpt>
      <trkpt lat="45.83509" lon="5.80585">
        <ele>239.3</ele>
        <time>2022-09-26T10:09:33Z</time>
      </trkpt>
      <trkpt lat="45.83512" lon="5.8059">
        <ele>239.3</ele>
        <time>2022-09-26T10:09:34Z</time>
      </trkpt>
      <trkpt lat="45.83516" lon="5.80597">
        <ele>239.4</ele>
        <time>2022-09-26T10:09:35Z</time>
      </trkpt>
      <trkpt lat="45.83518" lon="5.80602">
        <ele>239.4</ele>
        <time>2022-09-26T10:09:36Z</time>
      </trkpt>
      <trkpt lat="45.83521" lon="5.80609">
        <ele>239.4</ele>
        <time>2022-09-26T10:09:37Z</time>
      </trkpt>
      <trkpt lat="45.83524" lon="5.80616">
        <ele>239.4</ele>
        <time>2022-09-26T10:09:38Z</time>
      </trkpt>
      <trkpt lat="45.83525" lon="5.80623">
        <ele>239.5</ele>
        <time>2022-09-26T10:09:39Z</time>
      </trkpt>
      <trkpt lat="45.83529" lon="5.80629">
        <ele>239.5</ele>
        <time>2022-09-26T10:09:40Z</time>
      </trkpt>
      <trkpt lat="45.83532" lon="5.80636">
        <ele>239.5</ele>
        <time>2022-09-26T10:09:41Z</time>
      </trkpt>
      <trkpt lat="45.83534" lon="5.80644">
        <ele>239.5</ele>
        <time>2022-09-26T10:09:42Z</time>
      </trkpt>
      <trkpt lat="45.83537" lon="5.8065">
        <ele>239.5</ele>
        <time>2022-09-26T10:09:43Z</time>
      </trkpt>
      <trkpt lat="45.83538" lon="5.80659">
        <ele>239.6</ele>
        <time>2022-09-26T10:09:44Z</time>
      </trkpt>
      <trkpt lat="45.83541" lon="5.80665">
        <ele>239.6</ele>
        <time>2022-09-26T10:09:45Z</time>
      </trkpt>
      <trkpt lat="45.83543" lon="5.80671">
        <ele>239.6</ele>
        <time>2022-09-26T10:09:46Z</time>
      </trkpt>
      <trkpt lat="45.83546" lon="5.80677">
        <ele>239.7</ele>
        <time>2022-09-26T10:09:47Z</time>
      </trkpt>
      <trkpt lat="45.83548" lon="5.80683">
        <ele>239.8</ele>
        <time>2022-09-26T10:09:48Z</time>
      </trkpt>
      <trkpt lat="45.8355" lon="5.80688">
        <ele>239.9</ele>
        <time>2022-09-26T10:09:49Z</time>
      </trkpt>
      <trkpt lat="45.83551" lon="5.80693">
        <ele>239.9</ele>
        <time>2022-09-26T10:09:50Z</time>
      </trkpt>
      <trkpt lat="45.83552" lon="5.807">
        <ele>240</ele>
        <time>2022-09-26T10:09:51Z</time>
      </trkpt>
      <trkpt lat="45.83555" lon="5.80706">
        <ele>240.1</ele>
        <time>2022-09-26T10:09:52Z</time>
      </trkpt>
      <trkpt lat="45.83556" lon="5.80711">
        <ele>240.1</ele>
        <time>2022-09-26T10:09:54Z</time>
      </trkpt>
      <trkpt lat="45.83557" lon="5.80718">
        <ele>240.1</ele>
        <time>2022-09-26T10:09:55Z</time>
      </trkpt>
      <trkpt lat="45.83557" lon="5.80726">
        <ele>240.1</ele>
        <time>2022-09-26T10:09:56Z</time>
      </trkpt>
      <trkpt lat="45.83556" lon="5.80734">
        <ele>240.1</ele>
        <time>2022-09-26T10:09:57Z</time>
      </trkpt>
      <trkpt lat="45.83555" lon="5.8074">
        <ele>240</ele>
        <time>2022-09-26T10:09:58Z</time>
      </trkpt>
      <trkpt lat="45.83553" lon="5.80747">
        <ele>239.8</ele>
        <time>2022-09-26T10:09:59Z</time>
      </trkpt>
      <trkpt lat="45.83551" lon="5.80753">
        <ele>239.7</ele>
        <time>2022-09-26T10:10:00Z</time>
      </trkpt>
      <trkpt lat="45.83549" lon="5.8076">
        <ele>239.5</ele>
        <time>2022-09-26T10:10:01Z</time>
      </trkpt>
      <trkpt lat="45.83546" lon="5.80767">
        <ele>239.4</ele>
        <time>2022-09-26T10:10:02Z</time>
      </trkpt>
      <trkpt lat="45.83543" lon="5.80775">
        <ele>239.2</ele>
        <time>2022-09-26T10:10:03Z</time>
      </trkpt>
      <trkpt lat="45.83542" lon="5.80784">
        <ele>239.1</ele>
        <time>2022-09-26T10:10:04Z</time>
      </trkpt>
      <trkpt lat="45.8354" lon="5.80792">
        <ele>239</ele>
        <time>2022-09-26T10:10:05Z</time>
      </trkpt>
      <trkpt lat="45.83538" lon="5.80799">
        <ele>238.9</ele>
        <time>2022-09-26T10:10:06Z</time>
      </trkpt>
      <trkpt lat="45.83536" lon="5.80807">
        <ele>238.8</ele>
        <time>2022-09-26T10:10:07Z</time>
      </trkpt>
      <trkpt lat="45.83533" lon="5.80813">
        <ele>238.8</ele>
        <time>2022-09-26T10:10:08Z</time>
      </trkpt>
      <trkpt lat="45.8353" lon="5.80818">
        <ele>238.8</ele>
        <time>2022-09-26T10:10:09Z</time>
      </trkpt>
      <trkpt lat="45.83527" lon="5.80824">
        <ele>238.8</ele>
        <time>2022-09-26T10:10:10Z</time>
      </trkpt>
      <trkpt lat="45.83523" lon="5.8083">
        <ele>238.8</ele>
        <time>2022-09-26T10:10:11Z</time>
      </trkpt>
      <trkpt lat="45.8352" lon="5.80836">
        <ele>238.8</ele>
        <time>2022-09-26T10:10:12Z</time>
      </trkpt>
      <trkpt lat="45.83517" lon="5.80841">
        <ele>238.8</ele>
        <time>2022-09-26T10:10:13Z</time>
      </trkpt>
      <trkpt lat="45.83515" lon="5.80848">
        <ele>238.9</ele>
        <time>2022-09-26T10:10:14Z</time>
      </trkpt>
      <trkpt lat="45.83514" lon="5.80856">
        <ele>238.9</ele>
        <time>2022-09-26T10:10:15Z</time>
      </trkpt>
      <trkpt lat="45.83513" lon="5.80862">
        <ele>239</ele>
        <time>2022-09-26T10:10:16Z</time>
      </trkpt>
      <trkpt lat="45.83512" lon="5.80868">
        <ele>239</ele>
        <time>2022-09-26T10:10:17Z</time>
      </trkpt>
      <trkpt lat="45.83511" lon="5.8087">
        <ele>239.1</ele>
        <time>2022-09-26T10:10:18Z</time>
      </trkpt>
      <trkpt lat="45.8351" lon="5.80872">
        <ele>239.1</ele>
        <time>2022-09-26T10:10:19Z</time>
      </trkpt>
      <trkpt lat="45.83512" lon="5.80875">
        <ele>239.2</ele>
        <time>2022-09-26T10:10:20Z</time>
      </trkpt>
      <trkpt lat="45.83513" lon="5.80876">
        <ele>239.2</ele>
        <time>2022-09-26T10:10:21Z</time>
      </trkpt>
      <trkpt lat="45.83516" lon="5.80878">
        <ele>239.1</ele>
        <time>2022-09-26T10:10:22Z</time>
      </trkpt>
      <trkpt lat="45.8352" lon="5.80878">
        <ele>239</ele>
        <time>2022-09-26T10:10:23Z</time>
      </trkpt>
      <trkpt lat="45.83523" lon="5.80879">
        <ele>238.9</ele>
        <time>2022-09-26T10:10:24Z</time>
      </trkpt>
      <trkpt lat="45.83526" lon="5.80879">
        <ele>238.9</ele>
        <time>2022-09-26T10:10:25Z</time>
      </trkpt>
      <trkpt lat="45.8353" lon="5.80881">
        <ele>238.8</ele>
        <time>2022-09-26T10:10:26Z</time>
      </trkpt>
      <trkpt lat="45.83534" lon="5.80883">
        <ele>238.7</ele>
        <time>2022-09-26T10:10:27Z</time>
      </trkpt>
      <trkpt lat="45.83537" lon="5.80887">
        <ele>238.6</ele>
        <time>2022-09-26T10:10:28Z</time>
      </trkpt>
      <trkpt lat="45.8354" lon="5.80889">
        <ele>238.6</ele>
        <time>2022-09-26T10:10:29Z</time>
      </trkpt>
      <trkpt lat="45.83543" lon="5.80892">
        <ele>238.5</ele>
        <time>2022-09-26T10:10:30Z</time>
      </trkpt>
      <trkpt lat="45.83547" lon="5.80895">
        <ele>238.4</ele>
        <time>2022-09-26T10:10:31Z</time>
      </trkpt>
      <trkpt lat="45.8355" lon="5.80898">
        <ele>238.4</ele>
        <time>2022-09-26T10:10:32Z</time>
      </trkpt>
      <trkpt lat="45.83553" lon="5.80903">
        <ele>238.3</ele>
        <time>2022-09-26T10:10:33Z</time>
      </trkpt>
      <trkpt lat="45.83556" lon="5.80907">
        <ele>238.3</ele>
        <time>2022-09-26T10:10:34Z</time>
      </trkpt>
      <trkpt lat="45.8356" lon="5.80912">
        <ele>238.2</ele>
        <time>2022-09-26T10:10:35Z</time>
      </trkpt>
      <trkpt lat="45.83564" lon="5.80916">
        <ele>238.2</ele>
        <time>2022-09-26T10:10:36Z</time>
      </trkpt>
      <trkpt lat="45.83566" lon="5.80921">
        <ele>238.1</ele>
        <time>2022-09-26T10:10:37Z</time>
      </trkpt>
      <trkpt lat="45.8357" lon="5.80926">
        <ele>238.1</ele>
        <time>2022-09-26T10:10:38Z</time>
      </trkpt>
      <trkpt lat="45.83576" lon="5.80929">
        <ele>238.1</ele>
        <time>2022-09-26T10:10:39Z</time>
      </trkpt>
      <trkpt lat="45.8358" lon="5.80932">
        <ele>238</ele>
        <time>2022-09-26T10:10:40Z</time>
      </trkpt>
      <trkpt lat="45.83586" lon="5.80933">
        <ele>238</ele>
        <time>2022-09-26T10:10:41Z</time>
      </trkpt>
      <trkpt lat="45.83591" lon="5.80934">
        <ele>238</ele>
        <time>2022-09-26T10:10:42Z</time>
      </trkpt>
      <trkpt lat="45.83596" lon="5.80935">
        <ele>238</ele>
        <time>2022-09-26T10:10:43Z</time>
      </trkpt>
      <trkpt lat="45.83602" lon="5.80938">
        <ele>238</ele>
        <time>2022-09-26T10:10:44Z</time>
      </trkpt>
      <trkpt lat="45.83608" lon="5.80939">
        <ele>238</ele>
        <time>2022-09-26T10:10:45Z</time>
      </trkpt>
      <trkpt lat="45.83613" lon="5.80941">
        <ele>238</ele>
        <time>2022-09-26T10:10:46Z</time>
      </trkpt>
      <trkpt lat="45.83618" lon="5.80943">
        <ele>238.1</ele>
        <time>2022-09-26T10:10:47Z</time>
      </trkpt>
      <trkpt lat="45.83623" lon="5.80945">
        <ele>238.1</ele>
        <time>2022-09-26T10:10:48Z</time>
      </trkpt>
      <trkpt lat="45.83628" lon="5.80946">
        <ele>238.1</ele>
        <time>2022-09-26T10:10:49Z</time>
      </trkpt>
      <trkpt lat="45.83632" lon="5.80946">
        <ele>238.2</ele>
        <time>2022-09-26T10:10:50Z</time>
      </trkpt>
      <trkpt lat="45.83637" lon="5.80946">
        <ele>238.2</ele>
        <time>2022-09-26T10:10:51Z</time>
      </trkpt>
      <trkpt lat="45.83642" lon="5.80946">
        <ele>238.2</ele>
        <time>2022-09-26T10:10:52Z</time>
      </trkpt>
      <trkpt lat="45.83646" lon="5.80946">
        <ele>238.2</ele>
        <time>2022-09-26T10:10:53Z</time>
      </trkpt>
      <trkpt lat="45.83651" lon="5.80946">
        <ele>238.3</ele>
        <time>2022-09-26T10:10:54Z</time>
      </trkpt>
      <trkpt lat="45.83655" lon="5.80946">
        <ele>238.3</ele>
        <time>2022-09-26T10:10:55Z</time>
      </trkpt>
      <trkpt lat="45.83659" lon="5.80946">
        <ele>238.3</ele>
        <time>2022-09-26T10:10:56Z</time>
      </trkpt>
      <trkpt lat="45.83665" lon="5.80944">
        <ele>238.3</ele>
        <time>2022-09-26T10:10:57Z</time>
      </trkpt>
      <trkpt lat="45.8367" lon="5.80944">
        <ele>238.3</ele>
        <time>2022-09-26T10:10:58Z</time>
      </trkpt>
      <trkpt lat="45.83675" lon="5.80944">
        <ele>238.3</ele>
        <time>2022-09-26T10:10:59Z</time>
      </trkpt>
      <trkpt lat="45.83681" lon="5.80945">
        <ele>238.3</ele>
        <time>2022-09-26T10:11:00Z</time>
      </trkpt>
      <trkpt lat="45.83686" lon="5.80946">
        <ele>238.3</ele>
        <time>2022-09-26T10:11:01Z</time>
      </trkpt>
      <trkpt lat="45.83691" lon="5.80947">
        <ele>238.3</ele>
        <time>2022-09-26T10:11:02Z</time>
      </trkpt>
      <trkpt lat="45.83697" lon="5.80947">
        <ele>238.4</ele>
        <time>2022-09-26T10:11:03Z</time>
      </trkpt>
      <trkpt lat="45.83702" lon="5.80947">
        <ele>238.4</ele>
        <time>2022-09-26T10:11:04Z</time>
      </trkpt>
      <trkpt lat="45.83707" lon="5.80948">
        <ele>238.4</ele>
        <time>2022-09-26T10:11:05Z</time>
      </trkpt>
      <trkpt lat="45.83712" lon="5.80948">
        <ele>238.5</ele>
        <time>2022-09-26T10:11:06Z</time>
      </trkpt>
      <trkpt lat="45.83717" lon="5.8095">
        <ele>238.5</ele>
        <time>2022-09-26T10:11:07Z</time>
      </trkpt>
      <trkpt lat="45.83722" lon="5.8095">
        <ele>238.5</ele>
        <time>2022-09-26T10:11:08Z</time>
      </trkpt>
      <trkpt lat="45.83727" lon="5.8095">
        <ele>238.6</ele>
        <time>2022-09-26T10:11:09Z</time>
      </trkpt>
      <trkpt lat="45.83732" lon="5.80948">
        <ele>238.6</ele>
        <time>2022-09-26T10:11:10Z</time>
      </trkpt>
      <trkpt lat="45.83736" lon="5.80947">
        <ele>238.7</ele>
        <time>2022-09-26T10:11:11Z</time>
      </trkpt>
      <trkpt lat="45.83742" lon="5.80945">
        <ele>238.7</ele>
        <time>2022-09-26T10:11:12Z</time>
      </trkpt>
      <trkpt lat="45.83747" lon="5.80943">
        <ele>238.7</ele>
        <time>2022-09-26T10:11:13Z</time>
      </trkpt>
      <trkpt lat="45.83751" lon="5.80942">
        <ele>238.7</ele>
        <time>2022-09-26T10:11:14Z</time>
      </trkpt>
      <trkpt lat="45.83756" lon="5.8094">
        <ele>238.7</ele>
        <time>2022-09-26T10:11:15Z</time>
      </trkpt>
      <trkpt lat="45.83764" lon="5.80938">
        <ele>238.7</ele>
        <time>2022-09-26T10:11:16Z</time>
      </trkpt>
      <trkpt lat="45.83768" lon="5.80938">
        <ele>238.7</ele>
        <time>2022-09-26T10:11:17Z</time>
      </trkpt>
      <trkpt lat="45.83774" lon="5.80939">
        <ele>238.6</ele>
        <time>2022-09-26T10:11:18Z</time>
      </trkpt>
      <trkpt lat="45.83778" lon="5.80938">
        <ele>238.6</ele>
        <time>2022-09-26T10:11:19Z</time>
      </trkpt>
      <trkpt lat="45.83783" lon="5.80937">
        <ele>238.6</ele>
        <time>2022-09-26T10:11:20Z</time>
      </trkpt>
      <trkpt lat="45.83788" lon="5.80937">
        <ele>238.6</ele>
        <time>2022-09-26T10:11:21Z</time>
      </trkpt>
      <trkpt lat="45.83792" lon="5.80935">
        <ele>238.6</ele>
        <time>2022-09-26T10:11:22Z</time>
      </trkpt>
      <trkpt lat="45.83798" lon="5.80935">
        <ele>238.5</ele>
        <time>2022-09-26T10:11:23Z</time>
      </trkpt>
      <trkpt lat="45.83803" lon="5.80933">
        <ele>238.5</ele>
        <time>2022-09-26T10:11:24Z</time>
      </trkpt>
      <trkpt lat="45.83808" lon="5.80932">
        <ele>238.5</ele>
        <time>2022-09-26T10:11:25Z</time>
      </trkpt>
      <trkpt lat="45.83813" lon="5.80932">
        <ele>238.5</ele>
        <time>2022-09-26T10:11:26Z</time>
      </trkpt>
      <trkpt lat="45.83818" lon="5.80931">
        <ele>238.6</ele>
        <time>2022-09-26T10:11:27Z</time>
      </trkpt>
      <trkpt lat="45.83823" lon="5.8093">
        <ele>238.6</ele>
        <time>2022-09-26T10:11:28Z</time>
      </trkpt>
      <trkpt lat="45.83828" lon="5.80928">
        <ele>238.6</ele>
        <time>2022-09-26T10:11:29Z</time>
      </trkpt>
      <trkpt lat="45.83833" lon="5.80928">
        <ele>238.6</ele>
        <time>2022-09-26T10:11:30Z</time>
      </trkpt>
      <trkpt lat="45.83838" lon="5.80927">
        <ele>238.6</ele>
        <time>2022-09-26T10:11:31Z</time>
      </trkpt>
      <trkpt lat="45.83843" lon="5.80926">
        <ele>238.6</ele>
        <time>2022-09-26T10:11:32Z</time>
      </trkpt>
      <trkpt lat="45.83848" lon="5.80923">
        <ele>238.6</ele>
        <time>2022-09-26T10:11:33Z</time>
      </trkpt>
      <trkpt lat="45.83853" lon="5.80919">
        <ele>238.6</ele>
        <time>2022-09-26T10:11:34Z</time>
      </trkpt>
      <trkpt lat="45.83858" lon="5.80916">
        <ele>238.6</ele>
        <time>2022-09-26T10:11:35Z</time>
      </trkpt>
      <trkpt lat="45.83863" lon="5.80912">
        <ele>238.6</ele>
        <time>2022-09-26T10:11:36Z</time>
      </trkpt>
      <trkpt lat="45.83867" lon="5.80908">
        <ele>238.7</ele>
        <time>2022-09-26T10:11:37Z</time>
      </trkpt>
      <trkpt lat="45.83871" lon="5.80904">
        <ele>238.7</ele>
        <time>2022-09-26T10:11:38Z</time>
      </trkpt>
      <trkpt lat="45.83875" lon="5.809">
        <ele>238.7</ele>
        <time>2022-09-26T10:11:39Z</time>
      </trkpt>
      <trkpt lat="45.83879" lon="5.80895">
        <ele>238.7</ele>
        <time>2022-09-26T10:11:40Z</time>
      </trkpt>
      <trkpt lat="45.83882" lon="5.80889">
        <ele>238.8</ele>
        <time>2022-09-26T10:11:41Z</time>
      </trkpt>
      <trkpt lat="45.83885" lon="5.80883">
        <ele>238.8</ele>
        <time>2022-09-26T10:11:42Z</time>
      </trkpt>
      <trkpt lat="45.83888" lon="5.80878">
        <ele>238.8</ele>
        <time>2022-09-26T10:11:43Z</time>
      </trkpt>
      <trkpt lat="45.83891" lon="5.80873">
        <ele>238.8</ele>
        <time>2022-09-26T10:11:44Z</time>
      </trkpt>
      <trkpt lat="45.83892" lon="5.80869">
        <ele>238.8</ele>
        <time>2022-09-26T10:11:45Z</time>
      </trkpt>
      <trkpt lat="45.83897" lon="5.80865">
        <ele>238.8</ele>
        <time>2022-09-26T10:11:46Z</time>
      </trkpt>
      <trkpt lat="45.83901" lon="5.80863">
        <ele>238.8</ele>
        <time>2022-09-26T10:11:47Z</time>
      </trkpt>
      <trkpt lat="45.83905" lon="5.80861">
        <ele>238.7</ele>
        <time>2022-09-26T10:11:48Z</time>
      </trkpt>
      <trkpt lat="45.8391" lon="5.80858">
        <ele>238.7</ele>
        <time>2022-09-26T10:11:49Z</time>
      </trkpt>
      <trkpt lat="45.83914" lon="5.80857">
        <ele>238.7</ele>
        <time>2022-09-26T10:11:50Z</time>
      </trkpt>
      <trkpt lat="45.83919" lon="5.80858">
        <ele>238.7</ele>
        <time>2022-09-26T10:11:51Z</time>
      </trkpt>
      <trkpt lat="45.83923" lon="5.80858">
        <ele>238.7</ele>
        <time>2022-09-26T10:11:52Z</time>
      </trkpt>
      <trkpt lat="45.83928" lon="5.80859">
        <ele>238.7</ele>
        <time>2022-09-26T10:11:53Z</time>
      </trkpt>
      <trkpt lat="45.83933" lon="5.80862">
        <ele>238.6</ele>
        <time>2022-09-26T10:11:54Z</time>
      </trkpt>
      <trkpt lat="45.83938" lon="5.80864">
        <ele>238.6</ele>
        <time>2022-09-26T10:11:55Z</time>
      </trkpt>
      <trkpt lat="45.83942" lon="5.80865">
        <ele>238.6</ele>
        <time>2022-09-26T10:11:56Z</time>
      </trkpt>
      <trkpt lat="45.83947" lon="5.80867">
        <ele>238.6</ele>
        <time>2022-09-26T10:11:57Z</time>
      </trkpt>
      <trkpt lat="45.83951" lon="5.80869">
        <ele>238.6</ele>
        <time>2022-09-26T10:11:58Z</time>
      </trkpt>
      <trkpt lat="45.83956" lon="5.8087">
        <ele>238.6</ele>
        <time>2022-09-26T10:12:00Z</time>
      </trkpt>
      <trkpt lat="45.83961" lon="5.80871">
        <ele>238.6</ele>
        <time>2022-09-26T10:12:01Z</time>
      </trkpt>
      <trkpt lat="45.83966" lon="5.80872">
        <ele>238.5</ele>
        <time>2022-09-26T10:12:02Z</time>
      </trkpt>
      <trkpt lat="45.8397" lon="5.80872">
        <ele>238.5</ele>
        <time>2022-09-26T10:12:03Z</time>
      </trkpt>
      <trkpt lat="45.83975" lon="5.80872">
        <ele>238.5</ele>
        <time>2022-09-26T10:12:04Z</time>
      </trkpt>
      <trkpt lat="45.8398" lon="5.80874">
        <ele>238.5</ele>
        <time>2022-09-26T10:12:05Z</time>
      </trkpt>
      <trkpt lat="45.83985" lon="5.80874">
        <ele>238.5</ele>
        <time>2022-09-26T10:12:06Z</time>
      </trkpt>
      <trkpt lat="45.8399" lon="5.80873">
        <ele>238.5</ele>
        <time>2022-09-26T10:12:07Z</time>
      </trkpt>
      <trkpt lat="45.83994" lon="5.80875">
        <ele>238.5</ele>
        <time>2022-09-26T10:12:08Z</time>
      </trkpt>
      <trkpt lat="45.83999" lon="5.80874">
        <ele>238.4</ele>
        <time>2022-09-26T10:12:09Z</time>
      </trkpt>
      <trkpt lat="45.84004" lon="5.80874">
        <ele>238.4</ele>
        <time>2022-09-26T10:12:10Z</time>
      </trkpt>
      <trkpt lat="45.84008" lon="5.80874">
        <ele>238.4</ele>
        <time>2022-09-26T10:12:11Z</time>
      </trkpt>
      <trkpt lat="45.84013" lon="5.80875">
        <ele>238.3</ele>
        <time>2022-09-26T10:12:12Z</time>
      </trkpt>
      <trkpt lat="45.84018" lon="5.80875">
        <ele>238.3</ele>
        <time>2022-09-26T10:12:13Z</time>
      </trkpt>
      <trkpt lat="45.84022" lon="5.80875">
        <ele>238.3</ele>
        <time>2022-09-26T10:12:14Z</time>
      </trkpt>
      <trkpt lat="45.84027" lon="5.80875">
        <ele>238.3</ele>
        <time>2022-09-26T10:12:15Z</time>
      </trkpt>
      <trkpt lat="45.84032" lon="5.80875">
        <ele>238.2</ele>
        <time>2022-09-26T10:12:16Z</time>
      </trkpt>
      <trkpt lat="45.84037" lon="5.80875">
        <ele>238.2</ele>
        <time>2022-09-26T10:12:17Z</time>
      </trkpt>
      <trkpt lat="45.84042" lon="5.80875">
        <ele>238.2</ele>
        <time>2022-09-26T10:12:18Z</time>
      </trkpt>
      <trkpt lat="45.84047" lon="5.80874">
        <ele>238.2</ele>
        <time>2022-09-26T10:12:19Z</time>
      </trkpt>
      <trkpt lat="45.84052" lon="5.80874">
        <ele>238.2</ele>
        <time>2022-09-26T10:12:20Z</time>
      </trkpt>
      <trkpt lat="45.84057" lon="5.80873">
        <ele>238.2</ele>
        <time>2022-09-26T10:12:21Z</time>
      </trkpt>
      <trkpt lat="45.84062" lon="5.80872">
        <ele>238.2</ele>
        <time>2022-09-26T10:12:22Z</time>
      </trkpt>
      <trkpt lat="45.84067" lon="5.80871">
        <ele>238.2</ele>
        <time>2022-09-26T10:12:23Z</time>
      </trkpt>
      <trkpt lat="45.84072" lon="5.8087">
        <ele>238.2</ele>
        <time>2022-09-26T10:12:24Z</time>
      </trkpt>
      <trkpt lat="45.84077" lon="5.8087">
        <ele>238.2</ele>
        <time>2022-09-26T10:12:25Z</time>
      </trkpt>
      <trkpt lat="45.84082" lon="5.8087">
        <ele>238.2</ele>
        <time>2022-09-26T10:12:26Z</time>
      </trkpt>
      <trkpt lat="45.84085" lon="5.80868">
        <ele>238.2</ele>
        <time>2022-09-26T10:12:27Z</time>
      </trkpt>
      <trkpt lat="45.84089" lon="5.80868">
        <ele>238.2</ele>
        <time>2022-09-26T10:12:28Z</time>
      </trkpt>
      <trkpt lat="45.84094" lon="5.80868">
        <ele>238.2</ele>
        <time>2022-09-26T10:12:29Z</time>
      </trkpt>
      <trkpt lat="45.84099" lon="5.80867">
        <ele>238.2</ele>
        <time>2022-09-26T10:12:30Z</time>
      </trkpt>
      <trkpt lat="45.84104" lon="5.80866">
        <ele>238.1</ele>
        <time>2022-09-26T10:12:31Z</time>
      </trkpt>
      <trkpt lat="45.84109" lon="5.80865">
        <ele>238.1</ele>
        <time>2022-09-26T10:12:32Z</time>
      </trkpt>
      <trkpt lat="45.84114" lon="5.80866">
        <ele>238.1</ele>
        <time>2022-09-26T10:12:33Z</time>
      </trkpt>
      <trkpt lat="45.8412" lon="5.80866">
        <ele>238.1</ele>
        <time>2022-09-26T10:12:34Z</time>
      </trkpt>
      <trkpt lat="45.84126" lon="5.80866">
        <ele>238</ele>
        <time>2022-09-26T10:12:35Z</time>
      </trkpt>
      <trkpt lat="45.8413" lon="5.80868">
        <ele>238</ele>
        <time>2022-09-26T10:12:36Z</time>
      </trkpt>
      <trkpt lat="45.84136" lon="5.80868">
        <ele>238</ele>
        <time>2022-09-26T10:12:37Z</time>
      </trkpt>
      <trkpt lat="45.84141" lon="5.8087">
        <ele>238</ele>
        <time>2022-09-26T10:12:38Z</time>
      </trkpt>
      <trkpt lat="45.84146" lon="5.8087">
        <ele>238</ele>
        <time>2022-09-26T10:12:39Z</time>
      </trkpt>
      <trkpt lat="45.84158" lon="5.80872">
        <ele>238.1</ele>
        <time>2022-09-26T10:12:40Z</time>
      </trkpt>
      <trkpt lat="45.84163" lon="5.80875">
        <ele>238.1</ele>
        <time>2022-09-26T10:12:41Z</time>
      </trkpt>
      <trkpt lat="45.84169" lon="5.80876">
        <ele>238.1</ele>
        <time>2022-09-26T10:12:42Z</time>
      </trkpt>
      <trkpt lat="45.84173" lon="5.80878">
        <ele>238.1</ele>
        <time>2022-09-26T10:12:43Z</time>
      </trkpt>
      <trkpt lat="45.84178" lon="5.80878">
        <ele>238.1</ele>
        <time>2022-09-26T10:12:44Z</time>
      </trkpt>
      <trkpt lat="45.84183" lon="5.8088">
        <ele>238.1</ele>
        <time>2022-09-26T10:12:45Z</time>
      </trkpt>
      <trkpt lat="45.84187" lon="5.80882">
        <ele>238.1</ele>
        <time>2022-09-26T10:12:46Z</time>
      </trkpt>
      <trkpt lat="45.84192" lon="5.80883">
        <ele>238.1</ele>
        <time>2022-09-26T10:12:47Z</time>
      </trkpt>
      <trkpt lat="45.84197" lon="5.80886">
        <ele>238.1</ele>
        <time>2022-09-26T10:12:48Z</time>
      </trkpt>
      <trkpt lat="45.84202" lon="5.80888">
        <ele>238.1</ele>
        <time>2022-09-26T10:12:49Z</time>
      </trkpt>
      <trkpt lat="45.84206" lon="5.8089">
        <ele>238.1</ele>
        <time>2022-09-26T10:12:50Z</time>
      </trkpt>
      <trkpt lat="45.84211" lon="5.80893">
        <ele>238.1</ele>
        <time>2022-09-26T10:12:51Z</time>
      </trkpt>
      <trkpt lat="45.84216" lon="5.80897">
        <ele>238.1</ele>
        <time>2022-09-26T10:12:52Z</time>
      </trkpt>
      <trkpt lat="45.8422" lon="5.809">
        <ele>238.1</ele>
        <time>2022-09-26T10:12:53Z</time>
      </trkpt>
      <trkpt lat="45.84224" lon="5.80902">
        <ele>238.2</ele>
        <time>2022-09-26T10:12:54Z</time>
      </trkpt>
      <trkpt lat="45.84229" lon="5.80906">
        <ele>238.2</ele>
        <time>2022-09-26T10:12:55Z</time>
      </trkpt>
      <trkpt lat="45.84233" lon="5.80908">
        <ele>238.2</ele>
        <time>2022-09-26T10:12:56Z</time>
      </trkpt>
      <trkpt lat="45.84238" lon="5.8091">
        <ele>238.2</ele>
        <time>2022-09-26T10:12:57Z</time>
      </trkpt>
      <trkpt lat="45.84242" lon="5.80911">
        <ele>238.2</ele>
        <time>2022-09-26T10:12:58Z</time>
      </trkpt>
      <trkpt lat="45.84247" lon="5.80912">
        <ele>238.2</ele>
        <time>2022-09-26T10:12:59Z</time>
      </trkpt>
      <trkpt lat="45.84252" lon="5.80912">
        <ele>238.2</ele>
        <time>2022-09-26T10:13:00Z</time>
      </trkpt>
      <trkpt lat="45.84257" lon="5.80914">
        <ele>238.2</ele>
        <time>2022-09-26T10:13:01Z</time>
      </trkpt>
      <trkpt lat="45.84261" lon="5.80913">
        <ele>238.2</ele>
        <time>2022-09-26T10:13:02Z</time>
      </trkpt>
      <trkpt lat="45.84265" lon="5.80913">
        <ele>238.2</ele>
        <time>2022-09-26T10:13:03Z</time>
      </trkpt>
      <trkpt lat="45.8427" lon="5.80914">
        <ele>238.1</ele>
        <time>2022-09-26T10:13:04Z</time>
      </trkpt>
      <trkpt lat="45.84274" lon="5.80913">
        <ele>238.1</ele>
        <time>2022-09-26T10:13:05Z</time>
      </trkpt>
      <trkpt lat="45.84279" lon="5.80913">
        <ele>238.1</ele>
        <time>2022-09-26T10:13:06Z</time>
      </trkpt>
      <trkpt lat="45.84283" lon="5.80913">
        <ele>238.1</ele>
        <time>2022-09-26T10:13:07Z</time>
      </trkpt>
      <trkpt lat="45.84287" lon="5.80912">
        <ele>238.1</ele>
        <time>2022-09-26T10:13:08Z</time>
      </trkpt>
      <trkpt lat="45.84292" lon="5.80913">
        <ele>238.1</ele>
        <time>2022-09-26T10:13:09Z</time>
      </trkpt>
      <trkpt lat="45.84297" lon="5.8091">
        <ele>238.1</ele>
        <time>2022-09-26T10:13:10Z</time>
      </trkpt>
      <trkpt lat="45.84302" lon="5.80909">
        <ele>238.2</ele>
        <time>2022-09-26T10:13:11Z</time>
      </trkpt>
      <trkpt lat="45.84307" lon="5.80907">
        <ele>238.2</ele>
        <time>2022-09-26T10:13:12Z</time>
      </trkpt>
      <trkpt lat="45.84311" lon="5.80906">
        <ele>238.2</ele>
        <time>2022-09-26T10:13:13Z</time>
      </trkpt>
      <trkpt lat="45.84316" lon="5.80904">
        <ele>238.3</ele>
        <time>2022-09-26T10:13:14Z</time>
      </trkpt>
      <trkpt lat="45.84321" lon="5.80901">
        <ele>238.3</ele>
        <time>2022-09-26T10:13:15Z</time>
      </trkpt>
      <trkpt lat="45.84326" lon="5.809">
        <ele>238.4</ele>
        <time>2022-09-26T10:13:16Z</time>
      </trkpt>
      <trkpt lat="45.84331" lon="5.80897">
        <ele>238.4</ele>
        <time>2022-09-26T10:13:17Z</time>
      </trkpt>
      <trkpt lat="45.84335" lon="5.80894">
        <ele>238.5</ele>
        <time>2022-09-26T10:13:18Z</time>
      </trkpt>
      <trkpt lat="45.84339" lon="5.80893">
        <ele>238.5</ele>
        <time>2022-09-26T10:13:19Z</time>
      </trkpt>
      <trkpt lat="45.84343" lon="5.80893">
        <ele>238.6</ele>
        <time>2022-09-26T10:13:20Z</time>
      </trkpt>
      <trkpt lat="45.84346" lon="5.80893">
        <ele>238.6</ele>
        <time>2022-09-26T10:13:21Z</time>
      </trkpt>
      <trkpt lat="45.8435" lon="5.8089">
        <ele>238.7</ele>
        <time>2022-09-26T10:13:22Z</time>
      </trkpt>
      <trkpt lat="45.84355" lon="5.80888">
        <ele>238.8</ele>
        <time>2022-09-26T10:13:23Z</time>
      </trkpt>
      <trkpt lat="45.84361" lon="5.80887">
        <ele>239</ele>
        <time>2022-09-26T10:13:24Z</time>
      </trkpt>
      <trkpt lat="45.84364" lon="5.80887">
        <ele>239.1</ele>
        <time>2022-09-26T10:13:25Z</time>
      </trkpt>
      <trkpt lat="45.84369" lon="5.80886">
        <ele>239.2</ele>
        <time>2022-09-26T10:13:26Z</time>
      </trkpt>
      <trkpt lat="45.84373" lon="5.80886">
        <ele>239.2</ele>
        <time>2022-09-26T10:13:27Z</time>
      </trkpt>
      <trkpt lat="45.84376" lon="5.80886">
        <ele>239.3</ele>
        <time>2022-09-26T10:13:28Z</time>
      </trkpt>
      <trkpt lat="45.84381" lon="5.80887">
        <ele>239.4</ele>
        <time>2022-09-26T10:13:29Z</time>
      </trkpt>
      <trkpt lat="45.84383" lon="5.80889">
        <ele>239.4</ele>
        <time>2022-09-26T10:13:30Z</time>
      </trkpt>
      <trkpt lat="45.84386" lon="5.80892">
        <ele>239.4</ele>
        <time>2022-09-26T10:13:31Z</time>
      </trkpt>
      <trkpt lat="45.84386" lon="5.80896">
        <ele>239.4</ele>
        <time>2022-09-26T10:13:32Z</time>
      </trkpt>
      <trkpt lat="45.84385" lon="5.80902">
        <ele>239.4</ele>
        <time>2022-09-26T10:13:33Z</time>
      </trkpt>
      <trkpt lat="45.84386" lon="5.80906">
        <ele>239.4</ele>
        <time>2022-09-26T10:13:34Z</time>
      </trkpt>
      <trkpt lat="45.84388" lon="5.8091">
        <ele>239.4</ele>
        <time>2022-09-26T10:13:35Z</time>
      </trkpt>
      <trkpt lat="45.84391" lon="5.80913">
        <ele>239.3</ele>
        <time>2022-09-26T10:13:36Z</time>
      </trkpt>
      <trkpt lat="45.84394" lon="5.80917">
        <ele>239.3</ele>
        <time>2022-09-26T10:13:37Z</time>
      </trkpt>
      <trkpt lat="45.84398" lon="5.80917">
        <ele>239.3</ele>
        <time>2022-09-26T10:13:38Z</time>
      </trkpt>
      <trkpt lat="45.84402" lon="5.80916">
        <ele>239.3</ele>
        <time>2022-09-26T10:13:39Z</time>
      </trkpt>
      <trkpt lat="45.84405" lon="5.80913">
        <ele>239.2</ele>
        <time>2022-09-26T10:13:40Z</time>
      </trkpt>
      <trkpt lat="45.84409" lon="5.80911">
        <ele>239.1</ele>
        <time>2022-09-26T10:13:41Z</time>
      </trkpt>
      <trkpt lat="45.84413" lon="5.80907">
        <ele>239.1</ele>
        <time>2022-09-26T10:13:42Z</time>
      </trkpt>
      <trkpt lat="45.84417" lon="5.80904">
        <ele>239</ele>
        <time>2022-09-26T10:13:43Z</time>
      </trkpt>
      <trkpt lat="45.84421" lon="5.80901">
        <ele>238.9</ele>
        <time>2022-09-26T10:13:44Z</time>
      </trkpt>
      <trkpt lat="45.84425" lon="5.80898">
        <ele>238.9</ele>
        <time>2022-09-26T10:13:45Z</time>
      </trkpt>
      <trkpt lat="45.84429" lon="5.80896">
        <ele>238.9</ele>
        <time>2022-09-26T10:13:46Z</time>
      </trkpt>
      <trkpt lat="45.84433" lon="5.80892">
        <ele>238.9</ele>
        <time>2022-09-26T10:13:47Z</time>
      </trkpt>
      <trkpt lat="45.84437" lon="5.8089">
        <ele>238.8</ele>
        <time>2022-09-26T10:13:48Z</time>
      </trkpt>
      <trkpt lat="45.84441" lon="5.80886">
        <ele>238.8</ele>
        <time>2022-09-26T10:13:49Z</time>
      </trkpt>
      <trkpt lat="45.84445" lon="5.80884">
        <ele>238.8</ele>
        <time>2022-09-26T10:13:50Z</time>
      </trkpt>
      <trkpt lat="45.84448" lon="5.80882">
        <ele>238.8</ele>
        <time>2022-09-26T10:13:51Z</time>
      </trkpt>
      <trkpt lat="45.84452" lon="5.80879">
        <ele>238.8</ele>
        <time>2022-09-26T10:13:52Z</time>
      </trkpt>
      <trkpt lat="45.84457" lon="5.80878">
        <ele>238.8</ele>
        <time>2022-09-26T10:13:53Z</time>
      </trkpt>
      <trkpt lat="45.84461" lon="5.80873">
        <ele>238.8</ele>
        <time>2022-09-26T10:13:54Z</time>
      </trkpt>
      <trkpt lat="45.84465" lon="5.80869">
        <ele>238.8</ele>
        <time>2022-09-26T10:13:55Z</time>
      </trkpt>
      <trkpt lat="45.84469" lon="5.80866">
        <ele>238.8</ele>
        <time>2022-09-26T10:13:56Z</time>
      </trkpt>
      <trkpt lat="45.84474" lon="5.80862">
        <ele>238.8</ele>
        <time>2022-09-26T10:13:57Z</time>
      </trkpt>
      <trkpt lat="45.84478" lon="5.80858">
        <ele>238.9</ele>
        <time>2022-09-26T10:13:58Z</time>
      </trkpt>
      <trkpt lat="45.84482" lon="5.80854">
        <ele>238.9</ele>
        <time>2022-09-26T10:13:59Z</time>
      </trkpt>
      <trkpt lat="45.84487" lon="5.80851">
        <ele>239</ele>
        <time>2022-09-26T10:14:00Z</time>
      </trkpt>
      <trkpt lat="45.84492" lon="5.80848">
        <ele>239</ele>
        <time>2022-09-26T10:14:01Z</time>
      </trkpt>
      <trkpt lat="45.84496" lon="5.80845">
        <ele>239.1</ele>
        <time>2022-09-26T10:14:02Z</time>
      </trkpt>
      <trkpt lat="45.845" lon="5.80842">
        <ele>239.2</ele>
        <time>2022-09-26T10:14:03Z</time>
      </trkpt>
      <trkpt lat="45.84504" lon="5.80839">
        <ele>239.3</ele>
        <time>2022-09-26T10:14:04Z</time>
      </trkpt>
      <trkpt lat="45.84508" lon="5.80837">
        <ele>239.4</ele>
        <time>2022-09-26T10:14:05Z</time>
      </trkpt>
      <trkpt lat="45.84511" lon="5.80834">
        <ele>239.4</ele>
        <time>2022-09-26T10:14:06Z</time>
      </trkpt>
      <trkpt lat="45.84514" lon="5.80833">
        <ele>239.5</ele>
        <time>2022-09-26T10:14:07Z</time>
      </trkpt>
      <trkpt lat="45.84517" lon="5.80832">
        <ele>239.6</ele>
        <time>2022-09-26T10:14:08Z</time>
      </trkpt>
      <trkpt lat="45.84519" lon="5.80834">
        <ele>239.6</ele>
        <time>2022-09-26T10:14:09Z</time>
      </trkpt>
      <trkpt lat="45.84521" lon="5.80837">
        <ele>239.7</ele>
        <time>2022-09-26T10:14:10Z</time>
      </trkpt>
      <trkpt lat="45.84522" lon="5.80839">
        <ele>239.7</ele>
        <time>2022-09-26T10:14:11Z</time>
      </trkpt>
      <trkpt lat="45.84524" lon="5.80843">
        <ele>239.6</ele>
        <time>2022-09-26T10:14:12Z</time>
      </trkpt>
      <trkpt lat="45.84525" lon="5.80844">
        <ele>239.6</ele>
        <time>2022-09-26T10:14:13Z</time>
      </trkpt>
      <trkpt lat="45.84528" lon="5.80845">
        <ele>239.6</ele>
        <time>2022-09-26T10:14:14Z</time>
      </trkpt>
      <trkpt lat="45.84532" lon="5.80843">
        <ele>239.6</ele>
        <time>2022-09-26T10:14:15Z</time>
      </trkpt>
      <trkpt lat="45.84533" lon="5.80842">
        <ele>239.5</ele>
        <time>2022-09-26T10:14:16Z</time>
      </trkpt>
      <trkpt lat="45.84537" lon="5.80841">
        <ele>239.5</ele>
        <time>2022-09-26T10:14:17Z</time>
      </trkpt>
      <trkpt lat="45.84538" lon="5.8084">
        <ele>239.5</ele>
        <time>2022-09-26T10:14:18Z</time>
      </trkpt>
      <trkpt lat="45.84541" lon="5.80838">
        <ele>239.5</ele>
        <time>2022-09-26T10:14:19Z</time>
      </trkpt>
      <trkpt lat="45.84545" lon="5.80837">
        <ele>239.5</ele>
        <time>2022-09-26T10:14:20Z</time>
      </trkpt>
      <trkpt lat="45.84549" lon="5.80836">
        <ele>239.5</ele>
        <time>2022-09-26T10:14:21Z</time>
      </trkpt>
      <trkpt lat="45.84553" lon="5.80834">
        <ele>239.5</ele>
        <time>2022-09-26T10:14:22Z</time>
      </trkpt>
      <trkpt lat="45.84557" lon="5.80833">
        <ele>239.5</ele>
        <time>2022-09-26T10:14:23Z</time>
      </trkpt>
      <trkpt lat="45.84561" lon="5.80832">
        <ele>239.5</ele>
        <time>2022-09-26T10:14:24Z</time>
      </trkpt>
      <trkpt lat="45.84566" lon="5.80831">
        <ele>239.5</ele>
        <time>2022-09-26T10:14:25Z</time>
      </trkpt>
      <trkpt lat="45.8457" lon="5.80829">
        <ele>239.6</ele>
        <time>2022-09-26T10:14:26Z</time>
      </trkpt>
      <trkpt lat="45.84575" lon="5.80828">
        <ele>239.6</ele>
        <time>2022-09-26T10:14:27Z</time>
      </trkpt>
      <trkpt lat="45.84579" lon="5.80826">
        <ele>239.7</ele>
        <time>2022-09-26T10:14:28Z</time>
      </trkpt>
      <trkpt lat="45.84584" lon="5.80825">
        <ele>239.7</ele>
        <time>2022-09-26T10:14:29Z</time>
      </trkpt>
      <trkpt lat="45.84589" lon="5.80824">
        <ele>239.7</ele>
        <time>2022-09-26T10:14:30Z</time>
      </trkpt>
      <trkpt lat="45.84593" lon="5.80822">
        <ele>239.7</ele>
        <time>2022-09-26T10:14:31Z</time>
      </trkpt>
      <trkpt lat="45.84598" lon="5.80821">
        <ele>239.6</ele>
        <time>2022-09-26T10:14:32Z</time>
      </trkpt>
      <trkpt lat="45.84603" lon="5.80819">
        <ele>239.6</ele>
        <time>2022-09-26T10:14:33Z</time>
      </trkpt>
      <trkpt lat="45.84607" lon="5.80817">
        <ele>239.5</ele>
        <time>2022-09-26T10:14:34Z</time>
      </trkpt>
      <trkpt lat="45.84613" lon="5.80815">
        <ele>239.5</ele>
        <time>2022-09-26T10:14:35Z</time>
      </trkpt>
      <trkpt lat="45.84617" lon="5.80813">
        <ele>239.5</ele>
        <time>2022-09-26T10:14:36Z</time>
      </trkpt>
      <trkpt lat="45.84623" lon="5.80811">
        <ele>239.4</ele>
        <time>2022-09-26T10:14:37Z</time>
      </trkpt>
      <trkpt lat="45.84628" lon="5.80809">
        <ele>239.4</ele>
        <time>2022-09-26T10:14:38Z</time>
      </trkpt>
      <trkpt lat="45.84633" lon="5.80807">
        <ele>239.4</ele>
        <time>2022-09-26T10:14:39Z</time>
      </trkpt>
      <trkpt lat="45.84637" lon="5.80805">
        <ele>239.4</ele>
        <time>2022-09-26T10:14:40Z</time>
      </trkpt>
      <trkpt lat="45.84642" lon="5.80804">
        <ele>239.4</ele>
        <time>2022-09-26T10:14:41Z</time>
      </trkpt>
      <trkpt lat="45.84647" lon="5.80802">
        <ele>239.4</ele>
        <time>2022-09-26T10:14:42Z</time>
      </trkpt>
      <trkpt lat="45.84653" lon="5.808">
        <ele>239.3</ele>
        <time>2022-09-26T10:14:43Z</time>
      </trkpt>
      <trkpt lat="45.84657" lon="5.80799">
        <ele>239.3</ele>
        <time>2022-09-26T10:14:44Z</time>
      </trkpt>
      <trkpt lat="45.84662" lon="5.80797">
        <ele>239.3</ele>
        <time>2022-09-26T10:14:45Z</time>
      </trkpt>
      <trkpt lat="45.84667" lon="5.80795">
        <ele>239.3</ele>
        <time>2022-09-26T10:14:46Z</time>
      </trkpt>
      <trkpt lat="45.84672" lon="5.80794">
        <ele>239.3</ele>
        <time>2022-09-26T10:14:47Z</time>
      </trkpt>
      <trkpt lat="45.84677" lon="5.80792">
        <ele>239.3</ele>
        <time>2022-09-26T10:14:48Z</time>
      </trkpt>
      <trkpt lat="45.84681" lon="5.8079">
        <ele>239.3</ele>
        <time>2022-09-26T10:14:49Z</time>
      </trkpt>
      <trkpt lat="45.84687" lon="5.80788">
        <ele>239.4</ele>
        <time>2022-09-26T10:14:50Z</time>
      </trkpt>
      <trkpt lat="45.84692" lon="5.80786">
        <ele>239.4</ele>
        <time>2022-09-26T10:14:51Z</time>
      </trkpt>
      <trkpt lat="45.84697" lon="5.80784">
        <ele>239.4</ele>
        <time>2022-09-26T10:14:52Z</time>
      </trkpt>
      <trkpt lat="45.84702" lon="5.80783">
        <ele>239.4</ele>
        <time>2022-09-26T10:14:53Z</time>
      </trkpt>
      <trkpt lat="45.84706" lon="5.80781">
        <ele>239.4</ele>
        <time>2022-09-26T10:14:54Z</time>
      </trkpt>
      <trkpt lat="45.84711" lon="5.8078">
        <ele>239.4</ele>
        <time>2022-09-26T10:14:55Z</time>
      </trkpt>
      <trkpt lat="45.84716" lon="5.80779">
        <ele>239.4</ele>
        <time>2022-09-26T10:14:56Z</time>
      </trkpt>
      <trkpt lat="45.84721" lon="5.80777">
        <ele>239.4</ele>
        <time>2022-09-26T10:14:57Z</time>
      </trkpt>
      <trkpt lat="45.84726" lon="5.80775">
        <ele>239.4</ele>
        <time>2022-09-26T10:14:58Z</time>
      </trkpt>
      <trkpt lat="45.8473" lon="5.80775">
        <ele>239.4</ele>
        <time>2022-09-26T10:14:59Z</time>
      </trkpt>
      <trkpt lat="45.84735" lon="5.80772">
        <ele>239.4</ele>
        <time>2022-09-26T10:15:00Z</time>
      </trkpt>
      <trkpt lat="45.8474" lon="5.80772">
        <ele>239.4</ele>
        <time>2022-09-26T10:15:01Z</time>
      </trkpt>
      <trkpt lat="45.84744" lon="5.8077">
        <ele>239.3</ele>
        <time>2022-09-26T10:15:02Z</time>
      </trkpt>
      <trkpt lat="45.8475" lon="5.80769">
        <ele>239.3</ele>
        <time>2022-09-26T10:15:03Z</time>
      </trkpt>
      <trkpt lat="45.84755" lon="5.80768">
        <ele>239.3</ele>
        <time>2022-09-26T10:15:04Z</time>
      </trkpt>
      <trkpt lat="45.84759" lon="5.80768">
        <ele>239.2</ele>
        <time>2022-09-26T10:15:05Z</time>
      </trkpt>
      <trkpt lat="45.84763" lon="5.80767">
        <ele>239.2</ele>
        <time>2022-09-26T10:15:06Z</time>
      </trkpt>
      <trkpt lat="45.84769" lon="5.80765">
        <ele>239.1</ele>
        <time>2022-09-26T10:15:07Z</time>
      </trkpt>
      <trkpt lat="45.84774" lon="5.80763">
        <ele>239.1</ele>
        <time>2022-09-26T10:15:08Z</time>
      </trkpt>
      <trkpt lat="45.84778" lon="5.8076">
        <ele>239.1</ele>
        <time>2022-09-26T10:15:09Z</time>
      </trkpt>
      <trkpt lat="45.84783" lon="5.80757">
        <ele>239.2</ele>
        <time>2022-09-26T10:15:10Z</time>
      </trkpt>
      <trkpt lat="45.84788" lon="5.80755">
        <ele>239.2</ele>
        <time>2022-09-26T10:15:11Z</time>
      </trkpt>
      <trkpt lat="45.84792" lon="5.80753">
        <ele>239.3</ele>
        <time>2022-09-26T10:15:12Z</time>
      </trkpt>
      <trkpt lat="45.84796" lon="5.80751">
        <ele>239.4</ele>
        <time>2022-09-26T10:15:13Z</time>
      </trkpt>
      <trkpt lat="45.848" lon="5.80749">
        <ele>239.6</ele>
        <time>2022-09-26T10:15:14Z</time>
      </trkpt>
      <trkpt lat="45.84804" lon="5.80747">
        <ele>239.7</ele>
        <time>2022-09-26T10:15:15Z</time>
      </trkpt>
      <trkpt lat="45.84808" lon="5.80746">
        <ele>239.8</ele>
        <time>2022-09-26T10:15:16Z</time>
      </trkpt>
      <trkpt lat="45.84811" lon="5.80745">
        <ele>240</ele>
        <time>2022-09-26T10:15:17Z</time>
      </trkpt>
      <trkpt lat="45.84816" lon="5.80744">
        <ele>240.1</ele>
        <time>2022-09-26T10:15:18Z</time>
      </trkpt>
      <trkpt lat="45.84818" lon="5.80744">
        <ele>240.2</ele>
        <time>2022-09-26T10:15:19Z</time>
      </trkpt>
      <trkpt lat="45.84821" lon="5.80743">
        <ele>240.3</ele>
        <time>2022-09-26T10:15:20Z</time>
      </trkpt>
      <trkpt lat="45.84825" lon="5.80746">
        <ele>240.4</ele>
        <time>2022-09-26T10:15:21Z</time>
      </trkpt>
      <trkpt lat="45.84829" lon="5.80749">
        <ele>240.5</ele>
        <time>2022-09-26T10:15:22Z</time>
      </trkpt>
      <trkpt lat="45.84831" lon="5.80753">
        <ele>240.6</ele>
        <time>2022-09-26T10:15:23Z</time>
      </trkpt>
      <trkpt lat="45.84834" lon="5.80757">
        <ele>240.7</ele>
        <time>2022-09-26T10:15:24Z</time>
      </trkpt>
      <trkpt lat="45.84836" lon="5.8076">
        <ele>240.7</ele>
        <time>2022-09-26T10:15:25Z</time>
      </trkpt>
      <trkpt lat="45.84837" lon="5.80764">
        <ele>240.8</ele>
        <time>2022-09-26T10:15:26Z</time>
      </trkpt>
      <trkpt lat="45.84839" lon="5.80766">
        <ele>240.8</ele>
        <time>2022-09-26T10:15:27Z</time>
      </trkpt>
      <trkpt lat="45.8484" lon="5.80767">
        <ele>240.8</ele>
        <time>2022-09-26T10:15:28Z</time>
      </trkpt>
      <trkpt lat="45.84841" lon="5.80767">
        <ele>240.8</ele>
        <time>2022-09-26T10:15:29Z</time>
      </trkpt>
      <trkpt lat="45.84841" lon="5.80768">
        <ele>240.8</ele>
        <time>2022-09-26T10:15:30Z</time>
      </trkpt>
      <trkpt lat="45.84842" lon="5.80768">
        <ele>240.8</ele>
        <time>2022-09-26T10:15:31Z</time>
      </trkpt>
      <trkpt lat="45.84843" lon="5.80769">
        <ele>240.9</ele>
        <time>2022-09-26T10:15:32Z</time>
      </trkpt>
      <trkpt lat="45.84844" lon="5.80769">
        <ele>240.9</ele>
        <time>2022-09-26T10:15:33Z</time>
      </trkpt>
      <trkpt lat="45.84845" lon="5.8077">
        <ele>240.9</ele>
        <time>2022-09-26T10:15:34Z</time>
      </trkpt>
      <trkpt lat="45.84845" lon="5.8077">
        <ele>240.9</ele>
        <time>2022-09-26T10:15:35Z</time>
      </trkpt>
      <trkpt lat="45.84846" lon="5.80771">
        <ele>240.9</ele>
        <time>2022-09-26T10:15:36Z</time>
      </trkpt>
      <trkpt lat="45.84847" lon="5.80771">
        <ele>240.9</ele>
        <time>2022-09-26T10:15:37Z</time>
      </trkpt>
      <trkpt lat="45.84848" lon="5.80772">
        <ele>240.9</ele>
        <time>2022-09-26T10:15:38Z</time>
      </trkpt>
      <trkpt lat="45.84849" lon="5.80772">
        <ele>240.9</ele>
        <time>2022-09-26T10:16:13Z</time>
      </trkpt>
      <trkpt lat="45.8485" lon="5.80773">
        <ele>240.9</ele>
        <time>2022-09-26T10:16:14Z</time>
      </trkpt>
      <trkpt lat="45.84853" lon="5.80774">
        <ele>240.9</ele>
        <time>2022-09-26T10:16:15Z</time>
      </trkpt>
      <trkpt lat="45.84855" lon="5.80774">
        <ele>240.9</ele>
        <time>2022-09-26T10:16:16Z</time>
      </trkpt>
      <trkpt lat="45.84858" lon="5.80774">
        <ele>240.9</ele>
        <time>2022-09-26T10:16:17Z</time>
      </trkpt>
      <trkpt lat="45.84861" lon="5.80774">
        <ele>240.9</ele>
        <time>2022-09-26T10:16:18Z</time>
      </trkpt>
      <trkpt lat="45.84864" lon="5.80775">
        <ele>240.9</ele>
        <time>2022-09-26T10:16:19Z</time>
      </trkpt>
      <trkpt lat="45.84866" lon="5.80775">
        <ele>240.9</ele>
        <time>2022-09-26T10:16:20Z</time>
      </trkpt>
      <trkpt lat="45.84869" lon="5.80774">
        <ele>240.9</ele>
        <time>2022-09-26T10:16:21Z</time>
      </trkpt>
      <trkpt lat="45.84872" lon="5.80772">
        <ele>240.9</ele>
        <time>2022-09-26T10:16:22Z</time>
      </trkpt>
      <trkpt lat="45.84876" lon="5.8077">
        <ele>240.9</ele>
        <time>2022-09-26T10:16:23Z</time>
      </trkpt>
      <trkpt lat="45.84879" lon="5.80769">
        <ele>240.9</ele>
        <time>2022-09-26T10:16:24Z</time>
      </trkpt>
      <trkpt lat="45.84883" lon="5.80766">
        <ele>240.9</ele>
        <time>2022-09-26T10:16:25Z</time>
      </trkpt>
      <trkpt lat="45.84886" lon="5.80762">
        <ele>240.9</ele>
        <time>2022-09-26T10:16:26Z</time>
      </trkpt>
      <trkpt lat="45.84888" lon="5.80758">
        <ele>240.9</ele>
        <time>2022-09-26T10:16:27Z</time>
      </trkpt>
      <trkpt lat="45.8489" lon="5.80754">
        <ele>240.9</ele>
        <time>2022-09-26T10:16:28Z</time>
      </trkpt>
      <trkpt lat="45.84892" lon="5.8075">
        <ele>240.9</ele>
        <time>2022-09-26T10:16:29Z</time>
      </trkpt>
      <trkpt lat="45.84894" lon="5.80747">
        <ele>240.9</ele>
        <time>2022-09-26T10:16:30Z</time>
      </trkpt>
      <trkpt lat="45.84897" lon="5.80745">
        <ele>240.9</ele>
        <time>2022-09-26T10:16:31Z</time>
      </trkpt>
      <trkpt lat="45.849" lon="5.80742">
        <ele>240.9</ele>
        <time>2022-09-26T10:16:32Z</time>
      </trkpt>
      <trkpt lat="45.84902" lon="5.80739">
        <ele>240.9</ele>
        <time>2022-09-26T10:16:33Z</time>
      </trkpt>
      <trkpt lat="45.84906" lon="5.80738">
        <ele>240.9</ele>
        <time>2022-09-26T10:16:34Z</time>
      </trkpt>
      <trkpt lat="45.84907" lon="5.80737">
        <ele>240.8</ele>
        <time>2022-09-26T10:16:35Z</time>
      </trkpt>
      <trkpt lat="45.8491" lon="5.80737">
        <ele>240.8</ele>
        <time>2022-09-26T10:16:36Z</time>
      </trkpt>
      <trkpt lat="45.84914" lon="5.80738">
        <ele>240.7</ele>
        <time>2022-09-26T10:16:37Z</time>
      </trkpt>
      <trkpt lat="45.84917" lon="5.80741">
        <ele>240.6</ele>
        <time>2022-09-26T10:16:38Z</time>
      </trkpt>
      <trkpt lat="45.84922" lon="5.80743">
        <ele>240.6</ele>
        <time>2022-09-26T10:16:39Z</time>
      </trkpt>
      <trkpt lat="45.84925" lon="5.80745">
        <ele>240.5</ele>
        <time>2022-09-26T10:16:40Z</time>
      </trkpt>
      <trkpt lat="45.84929" lon="5.80747">
        <ele>240.5</ele>
        <time>2022-09-26T10:16:41Z</time>
      </trkpt>
      <trkpt lat="45.84934" lon="5.80748">
        <ele>240.4</ele>
        <time>2022-09-26T10:16:42Z</time>
      </trkpt>
      <trkpt lat="45.84938" lon="5.8075">
        <ele>240.4</ele>
        <time>2022-09-26T10:16:43Z</time>
      </trkpt>
      <trkpt lat="45.84943" lon="5.80752">
        <ele>240.4</ele>
        <time>2022-09-26T10:16:44Z</time>
      </trkpt>
      <trkpt lat="45.84947" lon="5.80754">
        <ele>240.4</ele>
        <time>2022-09-26T10:16:45Z</time>
      </trkpt>
      <trkpt lat="45.84952" lon="5.80756">
        <ele>240.3</ele>
        <time>2022-09-26T10:16:46Z</time>
      </trkpt>
      <trkpt lat="45.84957" lon="5.80759">
        <ele>240.3</ele>
        <time>2022-09-26T10:16:47Z</time>
      </trkpt>
      <trkpt lat="45.84962" lon="5.8076">
        <ele>240.3</ele>
        <time>2022-09-26T10:16:48Z</time>
      </trkpt>
      <trkpt lat="45.84968" lon="5.80763">
        <ele>240.2</ele>
        <time>2022-09-26T10:16:49Z</time>
      </trkpt>
      <trkpt lat="45.84972" lon="5.80765">
        <ele>240.2</ele>
        <time>2022-09-26T10:16:50Z</time>
      </trkpt>
      <trkpt lat="45.84977" lon="5.80768">
        <ele>240.2</ele>
        <time>2022-09-26T10:16:51Z</time>
      </trkpt>
      <trkpt lat="45.84983" lon="5.8077">
        <ele>240.2</ele>
        <time>2022-09-26T10:16:52Z</time>
      </trkpt>
      <trkpt lat="45.84987" lon="5.80773">
        <ele>240.2</ele>
        <time>2022-09-26T10:16:53Z</time>
      </trkpt>
      <trkpt lat="45.84992" lon="5.80775">
        <ele>240.2</ele>
        <time>2022-09-26T10:16:54Z</time>
      </trkpt>
      <trkpt lat="45.84997" lon="5.80777">
        <ele>240.2</ele>
        <time>2022-09-26T10:16:55Z</time>
      </trkpt>
      <trkpt lat="45.85003" lon="5.8078">
        <ele>240.2</ele>
        <time>2022-09-26T10:16:56Z</time>
      </trkpt>
      <trkpt lat="45.85009" lon="5.80781">
        <ele>240.3</ele>
        <time>2022-09-26T10:16:57Z</time>
      </trkpt>
      <trkpt lat="45.85013" lon="5.80783">
        <ele>240.3</ele>
        <time>2022-09-26T10:16:58Z</time>
      </trkpt>
      <trkpt lat="45.85018" lon="5.80786">
        <ele>240.3</ele>
        <time>2022-09-26T10:16:59Z</time>
      </trkpt>
      <trkpt lat="45.85024" lon="5.80788">
        <ele>240.3</ele>
        <time>2022-09-26T10:17:00Z</time>
      </trkpt>
      <trkpt lat="45.8503" lon="5.8079">
        <ele>240.4</ele>
        <time>2022-09-26T10:17:01Z</time>
      </trkpt>
      <trkpt lat="45.85035" lon="5.80793">
        <ele>240.4</ele>
        <time>2022-09-26T10:17:02Z</time>
      </trkpt>
      <trkpt lat="45.8504" lon="5.80795">
        <ele>240.4</ele>
        <time>2022-09-26T10:17:03Z</time>
      </trkpt>
      <trkpt lat="45.85044" lon="5.80797">
        <ele>240.5</ele>
        <time>2022-09-26T10:17:04Z</time>
      </trkpt>
      <trkpt lat="45.8505" lon="5.80799">
        <ele>240.5</ele>
        <time>2022-09-26T10:17:05Z</time>
      </trkpt>
      <trkpt lat="45.85055" lon="5.80801">
        <ele>240.5</ele>
        <time>2022-09-26T10:17:06Z</time>
      </trkpt>
      <trkpt lat="45.8506" lon="5.80803">
        <ele>240.5</ele>
        <time>2022-09-26T10:17:07Z</time>
      </trkpt>
      <trkpt lat="45.85065" lon="5.80806">
        <ele>240.5</ele>
        <time>2022-09-26T10:17:08Z</time>
      </trkpt>
      <trkpt lat="45.85071" lon="5.80808">
        <ele>240.5</ele>
        <time>2022-09-26T10:17:09Z</time>
      </trkpt>
      <trkpt lat="45.85075" lon="5.80809">
        <ele>240.5</ele>
        <time>2022-09-26T10:17:10Z</time>
      </trkpt>
      <trkpt lat="45.8508" lon="5.80812">
        <ele>240.5</ele>
        <time>2022-09-26T10:17:11Z</time>
      </trkpt>
      <trkpt lat="45.85085" lon="5.80813">
        <ele>240.5</ele>
        <time>2022-09-26T10:17:12Z</time>
      </trkpt>
      <trkpt lat="45.8509" lon="5.80815">
        <ele>240.5</ele>
        <time>2022-09-26T10:17:13Z</time>
      </trkpt>
      <trkpt lat="45.85094" lon="5.80818">
        <ele>240.5</ele>
        <time>2022-09-26T10:17:14Z</time>
      </trkpt>
      <trkpt lat="45.851" lon="5.8082">
        <ele>240.5</ele>
        <time>2022-09-26T10:17:15Z</time>
      </trkpt>
      <trkpt lat="45.85105" lon="5.80823">
        <ele>240.5</ele>
        <time>2022-09-26T10:17:16Z</time>
      </trkpt>
      <trkpt lat="45.8511" lon="5.80826">
        <ele>240.5</ele>
        <time>2022-09-26T10:17:17Z</time>
      </trkpt>
      <trkpt lat="45.85114" lon="5.8083">
        <ele>240.5</ele>
        <time>2022-09-26T10:17:18Z</time>
      </trkpt>
      <trkpt lat="45.8512" lon="5.80833">
        <ele>240.5</ele>
        <time>2022-09-26T10:17:19Z</time>
      </trkpt>
      <trkpt lat="45.85125" lon="5.80835">
        <ele>240.5</ele>
        <time>2022-09-26T10:17:20Z</time>
      </trkpt>
      <trkpt lat="45.8513" lon="5.80839">
        <ele>240.4</ele>
        <time>2022-09-26T10:17:21Z</time>
      </trkpt>
      <trkpt lat="45.85135" lon="5.80842">
        <ele>240.4</ele>
        <time>2022-09-26T10:17:22Z</time>
      </trkpt>
      <trkpt lat="45.85139" lon="5.80846">
        <ele>240.4</ele>
        <time>2022-09-26T10:17:23Z</time>
      </trkpt>
      <trkpt lat="45.85144" lon="5.8085">
        <ele>240.4</ele>
        <time>2022-09-26T10:17:24Z</time>
      </trkpt>
      <trkpt lat="45.85148" lon="5.80855">
        <ele>240.4</ele>
        <time>2022-09-26T10:17:25Z</time>
      </trkpt>
      <trkpt lat="45.85153" lon="5.80859">
        <ele>240.4</ele>
        <time>2022-09-26T10:17:26Z</time>
      </trkpt>
      <trkpt lat="45.85157" lon="5.80863">
        <ele>240.4</ele>
        <time>2022-09-26T10:17:27Z</time>
      </trkpt>
      <trkpt lat="45.85161" lon="5.80867">
        <ele>240.5</ele>
        <time>2022-09-26T10:17:28Z</time>
      </trkpt>
      <trkpt lat="45.85165" lon="5.80871">
        <ele>240.5</ele>
        <time>2022-09-26T10:17:29Z</time>
      </trkpt>
      <trkpt lat="45.85169" lon="5.80876">
        <ele>240.5</ele>
        <time>2022-09-26T10:17:30Z</time>
      </trkpt>
      <trkpt lat="45.85173" lon="5.8088">
        <ele>240.5</ele>
        <time>2022-09-26T10:17:31Z</time>
      </trkpt>
      <trkpt lat="45.85177" lon="5.80885">
        <ele>240.5</ele>
        <time>2022-09-26T10:17:32Z</time>
      </trkpt>
      <trkpt lat="45.85181" lon="5.8089">
        <ele>240.5</ele>
        <time>2022-09-26T10:17:33Z</time>
      </trkpt>
      <trkpt lat="45.85185" lon="5.80895">
        <ele>240.5</ele>
        <time>2022-09-26T10:17:34Z</time>
      </trkpt>
      <trkpt lat="45.85188" lon="5.80899">
        <ele>240.5</ele>
        <time>2022-09-26T10:17:35Z</time>
      </trkpt>
      <trkpt lat="45.85193" lon="5.80904">
        <ele>240.5</ele>
        <time>2022-09-26T10:17:36Z</time>
      </trkpt>
      <trkpt lat="45.85196" lon="5.80909">
        <ele>240.5</ele>
        <time>2022-09-26T10:17:37Z</time>
      </trkpt>
      <trkpt lat="45.852" lon="5.80913">
        <ele>240.5</ele>
        <time>2022-09-26T10:17:38Z</time>
      </trkpt>
      <trkpt lat="45.85204" lon="5.80918">
        <ele>240.5</ele>
        <time>2022-09-26T10:17:39Z</time>
      </trkpt>
      <trkpt lat="45.85207" lon="5.80923">
        <ele>240.5</ele>
        <time>2022-09-26T10:17:40Z</time>
      </trkpt>
      <trkpt lat="45.85211" lon="5.80928">
        <ele>240.5</ele>
        <time>2022-09-26T10:17:41Z</time>
      </trkpt>
      <trkpt lat="45.85214" lon="5.80932">
        <ele>240.5</ele>
        <time>2022-09-26T10:17:42Z</time>
      </trkpt>
      <trkpt lat="45.85218" lon="5.80937">
        <ele>240.5</ele>
        <time>2022-09-26T10:17:43Z</time>
      </trkpt>
      <trkpt lat="45.85222" lon="5.80941">
        <ele>240.5</ele>
        <time>2022-09-26T10:17:44Z</time>
      </trkpt>
      <trkpt lat="45.85225" lon="5.80947">
        <ele>240.5</ele>
        <time>2022-09-26T10:17:45Z</time>
      </trkpt>
      <trkpt lat="45.85229" lon="5.80952">
        <ele>240.5</ele>
        <time>2022-09-26T10:17:46Z</time>
      </trkpt>
      <trkpt lat="45.85232" lon="5.80956">
        <ele>240.5</ele>
        <time>2022-09-26T10:17:47Z</time>
      </trkpt>
      <trkpt lat="45.85236" lon="5.80961">
        <ele>240.5</ele>
        <time>2022-09-26T10:17:48Z</time>
      </trkpt>
      <trkpt lat="45.85239" lon="5.80965">
        <ele>240.4</ele>
        <time>2022-09-26T10:17:49Z</time>
      </trkpt>
      <trkpt lat="45.85243" lon="5.8097">
        <ele>240.4</ele>
        <time>2022-09-26T10:17:50Z</time>
      </trkpt>
      <trkpt lat="45.85247" lon="5.80974">
        <ele>240.4</ele>
        <time>2022-09-26T10:17:51Z</time>
      </trkpt>
      <trkpt lat="45.8525" lon="5.80979">
        <ele>240.4</ele>
        <time>2022-09-26T10:17:52Z</time>
      </trkpt>
      <trkpt lat="45.85253" lon="5.80983">
        <ele>240.5</ele>
        <time>2022-09-26T10:17:53Z</time>
      </trkpt>
      <trkpt lat="45.85257" lon="5.80988">
        <ele>240.5</ele>
        <time>2022-09-26T10:17:54Z</time>
      </trkpt>
      <trkpt lat="45.8526" lon="5.80994">
        <ele>240.5</ele>
        <time>2022-09-26T10:17:55Z</time>
      </trkpt>
      <trkpt lat="45.85263" lon="5.80998">
        <ele>240.5</ele>
        <time>2022-09-26T10:17:56Z</time>
      </trkpt>
      <trkpt lat="45.85266" lon="5.81003">
        <ele>240.5</ele>
        <time>2022-09-26T10:17:57Z</time>
      </trkpt>
      <trkpt lat="45.85269" lon="5.81008">
        <ele>240.5</ele>
        <time>2022-09-26T10:17:58Z</time>
      </trkpt>
      <trkpt lat="45.85272" lon="5.81013">
        <ele>240.5</ele>
        <time>2022-09-26T10:17:59Z</time>
      </trkpt>
      <trkpt lat="45.85276" lon="5.81019">
        <ele>240.5</ele>
        <time>2022-09-26T10:18:00Z</time>
      </trkpt>
      <trkpt lat="45.85278" lon="5.81024">
        <ele>240.5</ele>
        <time>2022-09-26T10:18:01Z</time>
      </trkpt>
      <trkpt lat="45.85281" lon="5.8103">
        <ele>240.5</ele>
        <time>2022-09-26T10:18:02Z</time>
      </trkpt>
      <trkpt lat="45.85283" lon="5.81034">
        <ele>240.5</ele>
        <time>2022-09-26T10:18:03Z</time>
      </trkpt>
      <trkpt lat="45.85285" lon="5.8104">
        <ele>240.5</ele>
        <time>2022-09-26T10:18:04Z</time>
      </trkpt>
      <trkpt lat="45.85288" lon="5.81046">
        <ele>240.5</ele>
        <time>2022-09-26T10:18:05Z</time>
      </trkpt>
      <trkpt lat="45.8529" lon="5.81052">
        <ele>240.5</ele>
        <time>2022-09-26T10:18:06Z</time>
      </trkpt>
      <trkpt lat="45.85292" lon="5.81058">
        <ele>240.5</ele>
        <time>2022-09-26T10:18:07Z</time>
      </trkpt>
      <trkpt lat="45.85295" lon="5.81064">
        <ele>240.5</ele>
        <time>2022-09-26T10:18:08Z</time>
      </trkpt>
      <trkpt lat="45.85297" lon="5.8107">
        <ele>240.5</ele>
        <time>2022-09-26T10:18:09Z</time>
      </trkpt>
      <trkpt lat="45.85299" lon="5.81076">
        <ele>240.5</ele>
        <time>2022-09-26T10:18:10Z</time>
      </trkpt>
      <trkpt lat="45.85301" lon="5.81081">
        <ele>240.5</ele>
        <time>2022-09-26T10:18:11Z</time>
      </trkpt>
      <trkpt lat="45.85304" lon="5.81087">
        <ele>240.5</ele>
        <time>2022-09-26T10:18:12Z</time>
      </trkpt>
      <trkpt lat="45.85305" lon="5.81093">
        <ele>240.5</ele>
        <time>2022-09-26T10:18:13Z</time>
      </trkpt>
      <trkpt lat="45.85308" lon="5.81099">
        <ele>240.5</ele>
        <time>2022-09-26T10:18:14Z</time>
      </trkpt>
      <trkpt lat="45.8531" lon="5.81105">
        <ele>240.5</ele>
        <time>2022-09-26T10:18:15Z</time>
      </trkpt>
      <trkpt lat="45.85311" lon="5.81111">
        <ele>240.6</ele>
        <time>2022-09-26T10:18:16Z</time>
      </trkpt>
      <trkpt lat="45.85314" lon="5.81116">
        <ele>240.6</ele>
        <time>2022-09-26T10:18:17Z</time>
      </trkpt>
      <trkpt lat="45.85316" lon="5.81121">
        <ele>240.6</ele>
        <time>2022-09-26T10:18:18Z</time>
      </trkpt>
      <trkpt lat="45.85318" lon="5.81128">
        <ele>240.6</ele>
        <time>2022-09-26T10:18:19Z</time>
      </trkpt>
      <trkpt lat="45.8532" lon="5.81134">
        <ele>240.6</ele>
        <time>2022-09-26T10:18:20Z</time>
      </trkpt>
      <trkpt lat="45.85322" lon="5.8114">
        <ele>240.6</ele>
        <time>2022-09-26T10:18:21Z</time>
      </trkpt>
      <trkpt lat="45.85324" lon="5.81146">
        <ele>240.6</ele>
        <time>2022-09-26T10:18:22Z</time>
      </trkpt>
      <trkpt lat="45.85326" lon="5.81151">
        <ele>240.6</ele>
        <time>2022-09-26T10:18:23Z</time>
      </trkpt>
      <trkpt lat="45.85328" lon="5.81157">
        <ele>240.6</ele>
        <time>2022-09-26T10:18:24Z</time>
      </trkpt>
      <trkpt lat="45.8533" lon="5.81163">
        <ele>240.6</ele>
        <time>2022-09-26T10:18:25Z</time>
      </trkpt>
      <trkpt lat="45.85332" lon="5.81168">
        <ele>240.6</ele>
        <time>2022-09-26T10:18:26Z</time>
      </trkpt>
      <trkpt lat="45.85334" lon="5.81174">
        <ele>240.6</ele>
        <time>2022-09-26T10:18:27Z</time>
      </trkpt>
      <trkpt lat="45.85336" lon="5.8118">
        <ele>240.6</ele>
        <time>2022-09-26T10:18:28Z</time>
      </trkpt>
      <trkpt lat="45.85338" lon="5.81186">
        <ele>240.6</ele>
        <time>2022-09-26T10:18:29Z</time>
      </trkpt>
      <trkpt lat="45.8534" lon="5.81192">
        <ele>240.6</ele>
        <time>2022-09-26T10:18:30Z</time>
      </trkpt>
      <trkpt lat="45.85342" lon="5.81198">
        <ele>240.6</ele>
        <time>2022-09-26T10:18:31Z</time>
      </trkpt>
      <trkpt lat="45.85344" lon="5.81205">
        <ele>240.6</ele>
        <time>2022-09-26T10:18:32Z</time>
      </trkpt>
      <trkpt lat="45.85346" lon="5.8121">
        <ele>240.6</ele>
        <time>2022-09-26T10:18:33Z</time>
      </trkpt>
      <trkpt lat="45.85347" lon="5.81216">
        <ele>240.6</ele>
        <time>2022-09-26T10:18:34Z</time>
      </trkpt>
      <trkpt lat="45.85349" lon="5.81222">
        <ele>240.6</ele>
        <time>2022-09-26T10:18:35Z</time>
      </trkpt>
      <trkpt lat="45.85351" lon="5.81229">
        <ele>240.5</ele>
        <time>2022-09-26T10:18:36Z</time>
      </trkpt>
      <trkpt lat="45.85352" lon="5.81235">
        <ele>240.5</ele>
        <time>2022-09-26T10:18:37Z</time>
      </trkpt>
      <trkpt lat="45.85353" lon="5.81242">
        <ele>240.5</ele>
        <time>2022-09-26T10:18:38Z</time>
      </trkpt>
      <trkpt lat="45.85354" lon="5.81248">
        <ele>240.5</ele>
        <time>2022-09-26T10:18:39Z</time>
      </trkpt>
      <trkpt lat="45.85354" lon="5.81254">
        <ele>240.5</ele>
        <time>2022-09-26T10:18:40Z</time>
      </trkpt>
      <trkpt lat="45.85355" lon="5.81261">
        <ele>240.5</ele>
        <time>2022-09-26T10:18:41Z</time>
      </trkpt>
      <trkpt lat="45.85355" lon="5.81267">
        <ele>240.6</ele>
        <time>2022-09-26T10:18:42Z</time>
      </trkpt>
      <trkpt lat="45.85356" lon="5.81274">
        <ele>240.6</ele>
        <time>2022-09-26T10:18:43Z</time>
      </trkpt>
      <trkpt lat="45.85356" lon="5.81281">
        <ele>240.6</ele>
        <time>2022-09-26T10:18:44Z</time>
      </trkpt>
      <trkpt lat="45.85356" lon="5.81287">
        <ele>240.6</ele>
        <time>2022-09-26T10:18:45Z</time>
      </trkpt>
      <trkpt lat="45.85356" lon="5.81294">
        <ele>240.6</ele>
        <time>2022-09-26T10:18:46Z</time>
      </trkpt>
      <trkpt lat="45.85355" lon="5.813">
        <ele>240.6</ele>
        <time>2022-09-26T10:18:47Z</time>
      </trkpt>
      <trkpt lat="45.85355" lon="5.81306">
        <ele>240.6</ele>
        <time>2022-09-26T10:18:48Z</time>
      </trkpt>
      <trkpt lat="45.85354" lon="5.81312">
        <ele>240.6</ele>
        <time>2022-09-26T10:18:49Z</time>
      </trkpt>
      <trkpt lat="45.85353" lon="5.81319">
        <ele>240.6</ele>
        <time>2022-09-26T10:18:50Z</time>
      </trkpt>
      <trkpt lat="45.85352" lon="5.81325">
        <ele>240.6</ele>
        <time>2022-09-26T10:18:51Z</time>
      </trkpt>
      <trkpt lat="45.85351" lon="5.81331">
        <ele>240.6</ele>
        <time>2022-09-26T10:18:52Z</time>
      </trkpt>
      <trkpt lat="45.85349" lon="5.81338">
        <ele>240.5</ele>
        <time>2022-09-26T10:18:53Z</time>
      </trkpt>
      <trkpt lat="45.85347" lon="5.81344">
        <ele>240.5</ele>
        <time>2022-09-26T10:18:54Z</time>
      </trkpt>
      <trkpt lat="45.85346" lon="5.8135">
        <ele>240.5</ele>
        <time>2022-09-26T10:18:55Z</time>
      </trkpt>
      <trkpt lat="45.85344" lon="5.81356">
        <ele>240.5</ele>
        <time>2022-09-26T10:18:56Z</time>
      </trkpt>
      <trkpt lat="45.85342" lon="5.81363">
        <ele>240.5</ele>
        <time>2022-09-26T10:18:57Z</time>
      </trkpt>
      <trkpt lat="45.8534" lon="5.81368">
        <ele>240.5</ele>
        <time>2022-09-26T10:18:58Z</time>
      </trkpt>
      <trkpt lat="45.85338" lon="5.81375">
        <ele>240.5</ele>
        <time>2022-09-26T10:18:59Z</time>
      </trkpt>
      <trkpt lat="45.85334" lon="5.8138">
        <ele>240.5</ele>
        <time>2022-09-26T10:19:00Z</time>
      </trkpt>
      <trkpt lat="45.85331" lon="5.81386">
        <ele>240.5</ele>
        <time>2022-09-26T10:19:01Z</time>
      </trkpt>
      <trkpt lat="45.85329" lon="5.81391">
        <ele>240.4</ele>
        <time>2022-09-26T10:19:02Z</time>
      </trkpt>
      <trkpt lat="45.85326" lon="5.81396">
        <ele>240.4</ele>
        <time>2022-09-26T10:19:03Z</time>
      </trkpt>
      <trkpt lat="45.85323" lon="5.81401">
        <ele>240.4</ele>
        <time>2022-09-26T10:19:04Z</time>
      </trkpt>
      <trkpt lat="45.8532" lon="5.81407">
        <ele>240.4</ele>
        <time>2022-09-26T10:19:05Z</time>
      </trkpt>
      <trkpt lat="45.85318" lon="5.81412">
        <ele>240.4</ele>
        <time>2022-09-26T10:19:06Z</time>
      </trkpt>
      <trkpt lat="45.85315" lon="5.81418">
        <ele>240.4</ele>
        <time>2022-09-26T10:19:07Z</time>
      </trkpt>
      <trkpt lat="45.85312" lon="5.81423">
        <ele>240.4</ele>
        <time>2022-09-26T10:19:08Z</time>
      </trkpt>
      <trkpt lat="45.8531" lon="5.81429">
        <ele>240.3</ele>
        <time>2022-09-26T10:19:09Z</time>
      </trkpt>
      <trkpt lat="45.85307" lon="5.81435">
        <ele>240.3</ele>
        <time>2022-09-26T10:19:10Z</time>
      </trkpt>
      <trkpt lat="45.85304" lon="5.81441">
        <ele>240.3</ele>
        <time>2022-09-26T10:19:11Z</time>
      </trkpt>
      <trkpt lat="45.85301" lon="5.81447">
        <ele>240.3</ele>
        <time>2022-09-26T10:19:12Z</time>
      </trkpt>
      <trkpt lat="45.85299" lon="5.81451">
        <ele>240.3</ele>
        <time>2022-09-26T10:19:13Z</time>
      </trkpt>
      <trkpt lat="45.85295" lon="5.81458">
        <ele>240.3</ele>
        <time>2022-09-26T10:19:14Z</time>
      </trkpt>
      <trkpt lat="45.85293" lon="5.81463">
        <ele>240.3</ele>
        <time>2022-09-26T10:19:15Z</time>
      </trkpt>
      <trkpt lat="45.85289" lon="5.81469">
        <ele>240.3</ele>
        <time>2022-09-26T10:19:16Z</time>
      </trkpt>
      <trkpt lat="45.85286" lon="5.81474">
        <ele>240.4</ele>
        <time>2022-09-26T10:19:17Z</time>
      </trkpt>
      <trkpt lat="45.85283" lon="5.81479">
        <ele>240.4</ele>
        <time>2022-09-26T10:19:18Z</time>
      </trkpt>
      <trkpt lat="45.8528" lon="5.81484">
        <ele>240.4</ele>
        <time>2022-09-26T10:19:19Z</time>
      </trkpt>
      <trkpt lat="45.85277" lon="5.81489">
        <ele>240.4</ele>
        <time>2022-09-26T10:19:20Z</time>
      </trkpt>
      <trkpt lat="45.85275" lon="5.81494">
        <ele>240.4</ele>
        <time>2022-09-26T10:19:21Z</time>
      </trkpt>
      <trkpt lat="45.85272" lon="5.81499">
        <ele>240.4</ele>
        <time>2022-09-26T10:19:22Z</time>
      </trkpt>
      <trkpt lat="45.85269" lon="5.81504">
        <ele>240.5</ele>
        <time>2022-09-26T10:19:23Z</time>
      </trkpt>
      <trkpt lat="45.85266" lon="5.81508">
        <ele>240.5</ele>
        <time>2022-09-26T10:19:24Z</time>
      </trkpt>
      <trkpt lat="45.85262" lon="5.81513">
        <ele>240.5</ele>
        <time>2022-09-26T10:19:25Z</time>
      </trkpt>
      <trkpt lat="45.85259" lon="5.8152">
        <ele>240.5</ele>
        <time>2022-09-26T10:19:26Z</time>
      </trkpt>
      <trkpt lat="45.85257" lon="5.81523">
        <ele>240.5</ele>
        <time>2022-09-26T10:19:27Z</time>
      </trkpt>
      <trkpt lat="45.85255" lon="5.81529">
        <ele>240.5</ele>
        <time>2022-09-26T10:19:28Z</time>
      </trkpt>
      <trkpt lat="45.85252" lon="5.81534">
        <ele>240.5</ele>
        <time>2022-09-26T10:19:29Z</time>
      </trkpt>
      <trkpt lat="45.85248" lon="5.8154">
        <ele>240.5</ele>
        <time>2022-09-26T10:19:30Z</time>
      </trkpt>
      <trkpt lat="45.85245" lon="5.81546">
        <ele>240.4</ele>
        <time>2022-09-26T10:19:31Z</time>
      </trkpt>
      <trkpt lat="45.85242" lon="5.81552">
        <ele>240.4</ele>
        <time>2022-09-26T10:19:32Z</time>
      </trkpt>
      <trkpt lat="45.85239" lon="5.81558">
        <ele>240.4</ele>
        <time>2022-09-26T10:19:33Z</time>
      </trkpt>
      <trkpt lat="45.85237" lon="5.81564">
        <ele>240.4</ele>
        <time>2022-09-26T10:19:34Z</time>
      </trkpt>
      <trkpt lat="45.85234" lon="5.8157">
        <ele>240.3</ele>
        <time>2022-09-26T10:19:35Z</time>
      </trkpt>
      <trkpt lat="45.85232" lon="5.81575">
        <ele>240.3</ele>
        <time>2022-09-26T10:19:36Z</time>
      </trkpt>
      <trkpt lat="45.85229" lon="5.8158">
        <ele>240.3</ele>
        <time>2022-09-26T10:19:37Z</time>
      </trkpt>
      <trkpt lat="45.85227" lon="5.81588">
        <ele>240.3</ele>
        <time>2022-09-26T10:19:38Z</time>
      </trkpt>
      <trkpt lat="45.85224" lon="5.81595">
        <ele>240.3</ele>
        <time>2022-09-26T10:19:39Z</time>
      </trkpt>
      <trkpt lat="45.85222" lon="5.81601">
        <ele>240.3</ele>
        <time>2022-09-26T10:19:40Z</time>
      </trkpt>
      <trkpt lat="45.85221" lon="5.81607">
        <ele>240.3</ele>
        <time>2022-09-26T10:19:41Z</time>
      </trkpt>
      <trkpt lat="45.85219" lon="5.81614">
        <ele>240.3</ele>
        <time>2022-09-26T10:19:42Z</time>
      </trkpt>
      <trkpt lat="45.85217" lon="5.81621">
        <ele>240.2</ele>
        <time>2022-09-26T10:19:43Z</time>
      </trkpt>
      <trkpt lat="45.85216" lon="5.81627">
        <ele>240.2</ele>
        <time>2022-09-26T10:19:44Z</time>
      </trkpt>
      <trkpt lat="45.85214" lon="5.81634">
        <ele>240.2</ele>
        <time>2022-09-26T10:19:45Z</time>
      </trkpt>
      <trkpt lat="45.85214" lon="5.81641">
        <ele>240.2</ele>
        <time>2022-09-26T10:19:46Z</time>
      </trkpt>
      <trkpt lat="45.85213" lon="5.81648">
        <ele>240.1</ele>
        <time>2022-09-26T10:19:47Z</time>
      </trkpt>
      <trkpt lat="45.85211" lon="5.81656">
        <ele>240.1</ele>
        <time>2022-09-26T10:19:48Z</time>
      </trkpt>
      <trkpt lat="45.8521" lon="5.81663">
        <ele>240</ele>
        <time>2022-09-26T10:19:49Z</time>
      </trkpt>
      <trkpt lat="45.85209" lon="5.8167">
        <ele>240</ele>
        <time>2022-09-26T10:19:50Z</time>
      </trkpt>
      <trkpt lat="45.85207" lon="5.81676">
        <ele>239.9</ele>
        <time>2022-09-26T10:19:51Z</time>
      </trkpt>
      <trkpt lat="45.85207" lon="5.81683">
        <ele>239.8</ele>
        <time>2022-09-26T10:19:52Z</time>
      </trkpt>
      <trkpt lat="45.85206" lon="5.81691">
        <ele>239.8</ele>
        <time>2022-09-26T10:19:53Z</time>
      </trkpt>
      <trkpt lat="45.85204" lon="5.81698">
        <ele>239.7</ele>
        <time>2022-09-26T10:19:54Z</time>
      </trkpt>
      <trkpt lat="45.85203" lon="5.81706">
        <ele>239.6</ele>
        <time>2022-09-26T10:19:55Z</time>
      </trkpt>
      <trkpt lat="45.85202" lon="5.81713">
        <ele>239.6</ele>
        <time>2022-09-26T10:19:56Z</time>
      </trkpt>
      <trkpt lat="45.85201" lon="5.81721">
        <ele>239.5</ele>
        <time>2022-09-26T10:19:57Z</time>
      </trkpt>
      <trkpt lat="45.85199" lon="5.81728">
        <ele>239.5</ele>
        <time>2022-09-26T10:19:58Z</time>
      </trkpt>
      <trkpt lat="45.85198" lon="5.81736">
        <ele>239.4</ele>
        <time>2022-09-26T10:19:59Z</time>
      </trkpt>
      <trkpt lat="45.85197" lon="5.81743">
        <ele>239.4</ele>
        <time>2022-09-26T10:20:00Z</time>
      </trkpt>
      <trkpt lat="45.85196" lon="5.8175">
        <ele>239.4</ele>
        <time>2022-09-26T10:20:01Z</time>
      </trkpt>
      <trkpt lat="45.85195" lon="5.81757">
        <ele>239.3</ele>
        <time>2022-09-26T10:20:02Z</time>
      </trkpt>
      <trkpt lat="45.85193" lon="5.81765">
        <ele>239.3</ele>
        <time>2022-09-26T10:20:03Z</time>
      </trkpt>
      <trkpt lat="45.85191" lon="5.81772">
        <ele>239.3</ele>
        <time>2022-09-26T10:20:04Z</time>
      </trkpt>
      <trkpt lat="45.8519" lon="5.81779">
        <ele>239.2</ele>
        <time>2022-09-26T10:20:05Z</time>
      </trkpt>
      <trkpt lat="45.85189" lon="5.81787">
        <ele>239.2</ele>
        <time>2022-09-26T10:20:06Z</time>
      </trkpt>
      <trkpt lat="45.85188" lon="5.81795">
        <ele>239.2</ele>
        <time>2022-09-26T10:20:07Z</time>
      </trkpt>
      <trkpt lat="45.85186" lon="5.81802">
        <ele>239.2</ele>
        <time>2022-09-26T10:20:08Z</time>
      </trkpt>
      <trkpt lat="45.85186" lon="5.81809">
        <ele>239.2</ele>
        <time>2022-09-26T10:20:09Z</time>
      </trkpt>
      <trkpt lat="45.85184" lon="5.81817">
        <ele>239.1</ele>
        <time>2022-09-26T10:20:10Z</time>
      </trkpt>
      <trkpt lat="45.85184" lon="5.81824">
        <ele>239.1</ele>
        <time>2022-09-26T10:20:11Z</time>
      </trkpt>
      <trkpt lat="45.85182" lon="5.81831">
        <ele>239.1</ele>
        <time>2022-09-26T10:20:12Z</time>
      </trkpt>
      <trkpt lat="45.85181" lon="5.81837">
        <ele>239</ele>
        <time>2022-09-26T10:20:13Z</time>
      </trkpt>
      <trkpt lat="45.8518" lon="5.81844">
        <ele>239</ele>
        <time>2022-09-26T10:20:14Z</time>
      </trkpt>
      <trkpt lat="45.85179" lon="5.81851">
        <ele>239</ele>
        <time>2022-09-26T10:20:15Z</time>
      </trkpt>
      <trkpt lat="45.85177" lon="5.81858">
        <ele>239</ele>
        <time>2022-09-26T10:20:16Z</time>
      </trkpt>
      <trkpt lat="45.85176" lon="5.81865">
        <ele>239.1</ele>
        <time>2022-09-26T10:20:17Z</time>
      </trkpt>
      <trkpt lat="45.85175" lon="5.81872">
        <ele>239.1</ele>
        <time>2022-09-26T10:20:18Z</time>
      </trkpt>
      <trkpt lat="45.85174" lon="5.81878">
        <ele>239.1</ele>
        <time>2022-09-26T10:20:19Z</time>
      </trkpt>
      <trkpt lat="45.85172" lon="5.81886">
        <ele>239.1</ele>
        <time>2022-09-26T10:20:20Z</time>
      </trkpt>
      <trkpt lat="45.85171" lon="5.81893">
        <ele>239.1</ele>
        <time>2022-09-26T10:20:21Z</time>
      </trkpt>
      <trkpt lat="45.8517" lon="5.81898">
        <ele>239.1</ele>
        <time>2022-09-26T10:20:22Z</time>
      </trkpt>
      <trkpt lat="45.85169" lon="5.81904">
        <ele>239.2</ele>
        <time>2022-09-26T10:20:23Z</time>
      </trkpt>
      <trkpt lat="45.85168" lon="5.8191">
        <ele>239.2</ele>
        <time>2022-09-26T10:20:24Z</time>
      </trkpt>
      <trkpt lat="45.85167" lon="5.81916">
        <ele>239.2</ele>
        <time>2022-09-26T10:20:25Z</time>
      </trkpt>
      <trkpt lat="45.85165" lon="5.81922">
        <ele>239.3</ele>
        <time>2022-09-26T10:20:26Z</time>
      </trkpt>
      <trkpt lat="45.85164" lon="5.81927">
        <ele>239.3</ele>
        <time>2022-09-26T10:20:27Z</time>
      </trkpt>
      <trkpt lat="45.85163" lon="5.81933">
        <ele>239.4</ele>
        <time>2022-09-26T10:20:28Z</time>
      </trkpt>
      <trkpt lat="45.85161" lon="5.81938">
        <ele>239.4</ele>
        <time>2022-09-26T10:20:29Z</time>
      </trkpt>
      <trkpt lat="45.8516" lon="5.81943">
        <ele>239.4</ele>
        <time>2022-09-26T10:20:30Z</time>
      </trkpt>
      <trkpt lat="45.85158" lon="5.81947">
        <ele>239.4</ele>
        <time>2022-09-26T10:20:31Z</time>
      </trkpt>
      <trkpt lat="45.85159" lon="5.81953">
        <ele>239.5</ele>
        <time>2022-09-26T10:20:32Z</time>
      </trkpt>
      <trkpt lat="45.85158" lon="5.81958">
        <ele>239.5</ele>
        <time>2022-09-26T10:20:33Z</time>
      </trkpt>
      <trkpt lat="45.85157" lon="5.81959">
        <ele>239.5</ele>
        <time>2022-09-26T10:20:34Z</time>
      </trkpt>
      <trkpt lat="45.85156" lon="5.81963">
        <ele>239.5</ele>
        <time>2022-09-26T10:20:35Z</time>
      </trkpt>
      <trkpt lat="45.85156" lon="5.81965">
        <ele>239.4</ele>
        <time>2022-09-26T10:20:36Z</time>
      </trkpt>
      <trkpt lat="45.85155" lon="5.81966">
        <ele>239.4</ele>
        <time>2022-09-26T10:20:37Z</time>
      </trkpt>
      <trkpt lat="45.85155" lon="5.81968">
        <ele>239.4</ele>
        <time>2022-09-26T10:20:38Z</time>
      </trkpt>
      <trkpt lat="45.85155" lon="5.81968">
        <ele>239.4</ele>
        <time>2022-09-26T10:20:39Z</time>
      </trkpt>
      <trkpt lat="45.85155" lon="5.81968">
        <ele>239.4</ele>
        <time>2022-09-26T10:20:40Z</time>
      </trkpt>
      <trkpt lat="45.85155" lon="5.81968">
        <ele>239.4</ele>
        <time>2022-09-26T10:20:41Z</time>
      </trkpt>
      <trkpt lat="45.85156" lon="5.81969">
        <ele>239.4</ele>
        <time>2022-09-26T10:20:42Z</time>
      </trkpt>
      <trkpt lat="45.85156" lon="5.81969">
        <ele>239.4</ele>
        <time>2022-09-26T10:20:43Z</time>
      </trkpt>
      <trkpt lat="45.85156" lon="5.81969">
        <ele>239.4</ele>
        <time>2022-09-26T10:20:44Z</time>
      </trkpt>
      <trkpt lat="45.85156" lon="5.8197">
        <ele>239.4</ele>
        <time>2022-09-26T10:20:45Z</time>
      </trkpt>
      <trkpt lat="45.85156" lon="5.81973">
        <ele>239.4</ele>
        <time>2022-09-26T10:20:46Z</time>
      </trkpt>
      <trkpt lat="45.85156" lon="5.81975">
        <ele>239.4</ele>
        <time>2022-09-26T10:20:47Z</time>
      </trkpt>
      <trkpt lat="45.85156" lon="5.81978">
        <ele>239.4</ele>
        <time>2022-09-26T10:20:48Z</time>
      </trkpt>
      <trkpt lat="45.85156" lon="5.81981">
        <ele>239.4</ele>
        <time>2022-09-26T10:22:46Z</time>
      </trkpt>
      <trkpt lat="45.85156" lon="5.81983">
        <ele>239.4</ele>
        <time>2022-09-26T10:22:47Z</time>
      </trkpt>
      <trkpt lat="45.85155" lon="5.81988">
        <ele>239.4</ele>
        <time>2022-09-26T10:22:48Z</time>
      </trkpt>
      <trkpt lat="45.85155" lon="5.8199">
        <ele>239.4</ele>
        <time>2022-09-26T10:22:49Z</time>
      </trkpt>
      <trkpt lat="45.85155" lon="5.81996">
        <ele>239.4</ele>
        <time>2022-09-26T10:22:50Z</time>
      </trkpt>
      <trkpt lat="45.85154" lon="5.81998">
        <ele>239.4</ele>
        <time>2022-09-26T10:22:51Z</time>
      </trkpt>
      <trkpt lat="45.85154" lon="5.82002">
        <ele>239.3</ele>
        <time>2022-09-26T10:22:52Z</time>
      </trkpt>
      <trkpt lat="45.85153" lon="5.82007">
        <ele>239.3</ele>
        <time>2022-09-26T10:22:53Z</time>
      </trkpt>
      <trkpt lat="45.85153" lon="5.82011">
        <ele>239.3</ele>
        <time>2022-09-26T10:22:54Z</time>
      </trkpt>
      <trkpt lat="45.85153" lon="5.82015">
        <ele>239.3</ele>
        <time>2022-09-26T10:22:55Z</time>
      </trkpt>
      <trkpt lat="45.85152" lon="5.8202">
        <ele>239.3</ele>
        <time>2022-09-26T10:22:56Z</time>
      </trkpt>
      <trkpt lat="45.85152" lon="5.82025">
        <ele>239.3</ele>
        <time>2022-09-26T10:22:57Z</time>
      </trkpt>
      <trkpt lat="45.85151" lon="5.82029">
        <ele>239.3</ele>
        <time>2022-09-26T10:22:58Z</time>
      </trkpt>
      <trkpt lat="45.85151" lon="5.82035">
        <ele>239.3</ele>
        <time>2022-09-26T10:22:59Z</time>
      </trkpt>
      <trkpt lat="45.8515" lon="5.82037">
        <ele>239.3</ele>
        <time>2022-09-26T10:23:00Z</time>
      </trkpt>
      <trkpt lat="45.8515" lon="5.82042">
        <ele>239.3</ele>
        <time>2022-09-26T10:23:01Z</time>
      </trkpt>
      <trkpt lat="45.8515" lon="5.82045">
        <ele>239.3</ele>
        <time>2022-09-26T10:23:02Z</time>
      </trkpt>
      <trkpt lat="45.8515" lon="5.8205">
        <ele>239.3</ele>
        <time>2022-09-26T10:23:03Z</time>
      </trkpt>
      <trkpt lat="45.8515" lon="5.82052">
        <ele>239.3</ele>
        <time>2022-09-26T10:23:04Z</time>
      </trkpt>
      <trkpt lat="45.85149" lon="5.82056">
        <ele>239.3</ele>
        <time>2022-09-26T10:23:05Z</time>
      </trkpt>
      <trkpt lat="45.85148" lon="5.82061">
        <ele>239.4</ele>
        <time>2022-09-26T10:23:06Z</time>
      </trkpt>
      <trkpt lat="45.85147" lon="5.82062">
        <ele>239.4</ele>
        <time>2022-09-26T10:23:07Z</time>
      </trkpt>
      <trkpt lat="45.85147" lon="5.82067">
        <ele>239.4</ele>
        <time>2022-09-26T10:23:08Z</time>
      </trkpt>
      <trkpt lat="45.85147" lon="5.82068">
        <ele>239.4</ele>
        <time>2022-09-26T10:23:09Z</time>
      </trkpt>
      <trkpt lat="45.85146" lon="5.8207">
        <ele>239.4</ele>
        <time>2022-09-26T10:23:10Z</time>
      </trkpt>
      <trkpt lat="45.85146" lon="5.82073">
        <ele>239.4</ele>
        <time>2022-09-26T10:23:11Z</time>
      </trkpt>
      <trkpt lat="45.85145" lon="5.82075">
        <ele>239.4</ele>
        <time>2022-09-26T10:23:12Z</time>
      </trkpt>
      <trkpt lat="45.85144" lon="5.82076">
        <ele>239.4</ele>
        <time>2022-09-26T10:23:13Z</time>
      </trkpt>
      <trkpt lat="45.85143" lon="5.82077">
        <ele>239.4</ele>
        <time>2022-09-26T10:23:14Z</time>
      </trkpt>
      <trkpt lat="45.85143" lon="5.82078">
        <ele>239.4</ele>
        <time>2022-09-26T10:23:15Z</time>
      </trkpt>
      <trkpt lat="45.85143" lon="5.82078">
        <ele>239.4</ele>
        <time>2022-09-26T10:23:16Z</time>
      </trkpt>
      <trkpt lat="45.85142" lon="5.82078">
        <ele>239.4</ele>
        <time>2022-09-26T10:23:17Z</time>
      </trkpt>
      <trkpt lat="45.85142" lon="5.82079">
        <ele>239.4</ele>
        <time>2022-09-26T10:23:18Z</time>
      </trkpt>
      <trkpt lat="45.85142" lon="5.82079">
        <ele>239.4</ele>
        <time>2022-09-26T10:23:19Z</time>
      </trkpt>
      <trkpt lat="45.85141" lon="5.8208">
        <ele>239.4</ele>
        <time>2022-09-26T10:23:20Z</time>
      </trkpt>
      <trkpt lat="45.85141" lon="5.8208">
        <ele>239.4</ele>
        <time>2022-09-26T10:23:21Z</time>
      </trkpt>
      <trkpt lat="45.85141" lon="5.82081">
        <ele>239.4</ele>
        <time>2022-09-26T10:23:22Z</time>
      </trkpt>
      <trkpt lat="45.8514" lon="5.82081">
        <ele>239.4</ele>
        <time>2022-09-26T10:23:23Z</time>
      </trkpt>
      <trkpt lat="45.8514" lon="5.82081">
        <ele>239.4</ele>
        <time>2022-09-26T10:23:24Z</time>
      </trkpt>
      <trkpt lat="45.8514" lon="5.82082">
        <ele>239.4</ele>
        <time>2022-09-26T10:23:35Z</time>
      </trkpt>
      <trkpt lat="45.85139" lon="5.82082">
        <ele>239.4</ele>
        <time>2022-09-26T10:23:36Z</time>
      </trkpt>
      <trkpt lat="45.85138" lon="5.82087">
        <ele>239.5</ele>
        <time>2022-09-26T10:23:37Z</time>
      </trkpt>
      <trkpt lat="45.85138" lon="5.82089">
        <ele>239.5</ele>
        <time>2022-09-26T10:23:38Z</time>
      </trkpt>
      <trkpt lat="45.85136" lon="5.82094">
        <ele>239.5</ele>
        <time>2022-09-26T10:23:39Z</time>
      </trkpt>
      <trkpt lat="45.85136" lon="5.82097">
        <ele>239.5</ele>
        <time>2022-09-26T10:23:40Z</time>
      </trkpt>
      <trkpt lat="45.85135" lon="5.82101">
        <ele>239.5</ele>
        <time>2022-09-26T10:23:41Z</time>
      </trkpt>
      <trkpt lat="45.85134" lon="5.82106">
        <ele>239.4</ele>
        <time>2022-09-26T10:23:42Z</time>
      </trkpt>
      <trkpt lat="45.85133" lon="5.82111">
        <ele>239.4</ele>
        <time>2022-09-26T10:23:43Z</time>
      </trkpt>
      <trkpt lat="45.85133" lon="5.82115">
        <ele>239.4</ele>
        <time>2022-09-26T10:23:44Z</time>
      </trkpt>
      <trkpt lat="45.85132" lon="5.8212">
        <ele>239.3</ele>
        <time>2022-09-26T10:23:45Z</time>
      </trkpt>
      <trkpt lat="45.85132" lon="5.82125">
        <ele>239.3</ele>
        <time>2022-09-26T10:23:46Z</time>
      </trkpt>
      <trkpt lat="45.85131" lon="5.82129">
        <ele>239.3</ele>
        <time>2022-09-26T10:23:47Z</time>
      </trkpt>
      <trkpt lat="45.85131" lon="5.82134">
        <ele>239.3</ele>
        <time>2022-09-26T10:23:48Z</time>
      </trkpt>
      <trkpt lat="45.85131" lon="5.82138">
        <ele>239.3</ele>
        <time>2022-09-26T10:23:49Z</time>
      </trkpt>
      <trkpt lat="45.8513" lon="5.82142">
        <ele>239.3</ele>
        <time>2022-09-26T10:23:50Z</time>
      </trkpt>
      <trkpt lat="45.8513" lon="5.82147">
        <ele>239.3</ele>
        <time>2022-09-26T10:23:51Z</time>
      </trkpt>
      <trkpt lat="45.85129" lon="5.82149">
        <ele>239.3</ele>
        <time>2022-09-26T10:23:52Z</time>
      </trkpt>
      <trkpt lat="45.85129" lon="5.82154">
        <ele>239.3</ele>
        <time>2022-09-26T10:23:53Z</time>
      </trkpt>
      <trkpt lat="45.85128" lon="5.82156">
        <ele>239.3</ele>
        <time>2022-09-26T10:23:54Z</time>
      </trkpt>
      <trkpt lat="45.85128" lon="5.82161">
        <ele>239.3</ele>
        <time>2022-09-26T10:23:55Z</time>
      </trkpt>
      <trkpt lat="45.85128" lon="5.82163">
        <ele>239.3</ele>
        <time>2022-09-26T10:23:56Z</time>
      </trkpt>
      <trkpt lat="45.85128" lon="5.82167">
        <ele>239.3</ele>
        <time>2022-09-26T10:23:57Z</time>
      </trkpt>
      <trkpt lat="45.85128" lon="5.82168">
        <ele>239.3</ele>
        <time>2022-09-26T10:23:58Z</time>
      </trkpt>
      <trkpt lat="45.85128" lon="5.8217">
        <ele>239.3</ele>
        <time>2022-09-26T10:23:59Z</time>
      </trkpt>
      <trkpt lat="45.85128" lon="5.8217">
        <ele>239.3</ele>
        <time>2022-09-26T10:24:00Z</time>
      </trkpt>
      <trkpt lat="45.85128" lon="5.82169">
        <ele>239.3</ele>
        <time>2022-09-26T10:24:01Z</time>
      </trkpt>
      <trkpt lat="45.85129" lon="5.8217">
        <ele>239.3</ele>
        <time>2022-09-26T10:24:02Z</time>
      </trkpt>
      <trkpt lat="45.85129" lon="5.82169">
        <ele>239.3</ele>
        <time>2022-09-26T10:24:03Z</time>
      </trkpt>
      <trkpt lat="45.85129" lon="5.82168">
        <ele>239.3</ele>
        <time>2022-09-26T10:24:04Z</time>
      </trkpt>
      <trkpt lat="45.85129" lon="5.82167">
        <ele>239.3</ele>
        <time>2022-09-26T10:24:05Z</time>
      </trkpt>
      <trkpt lat="45.85129" lon="5.82166">
        <ele>239.3</ele>
        <time>2022-09-26T10:24:06Z</time>
      </trkpt>
      <trkpt lat="45.85129" lon="5.82165">
        <ele>239.3</ele>
        <time>2022-09-26T10:24:07Z</time>
      </trkpt>
      <trkpt lat="45.85129" lon="5.82165">
        <ele>239.3</ele>
        <time>2022-09-26T10:24:08Z</time>
      </trkpt>
      <trkpt lat="45.85129" lon="5.82158">
        <ele>239.3</ele>
        <time>2022-09-26T10:24:09Z</time>
      </trkpt>
      <trkpt lat="45.8513" lon="5.82153">
        <ele>239.3</ele>
        <time>2022-09-26T10:24:12Z</time>
      </trkpt>
      <trkpt lat="45.8513" lon="5.82149">
        <ele>239.3</ele>
        <time>2022-09-26T10:24:13Z</time>
      </trkpt>
      <trkpt lat="45.85131" lon="5.82145">
        <ele>239.3</ele>
        <time>2022-09-26T10:24:14Z</time>
      </trkpt>
      <trkpt lat="45.85131" lon="5.82144">
        <ele>239.3</ele>
        <time>2022-09-26T10:24:15Z</time>
      </trkpt>
      <trkpt lat="45.85131" lon="5.82143">
        <ele>239.3</ele>
        <time>2022-09-26T10:24:16Z</time>
      </trkpt>
      <trkpt lat="45.85131" lon="5.82143">
        <ele>239.3</ele>
        <time>2022-09-26T10:24:17Z</time>
      </trkpt>
      <trkpt lat="45.85132" lon="5.82143">
        <ele>239.3</ele>
        <time>2022-09-26T10:24:18Z</time>
      </trkpt>
      <trkpt lat="45.85132" lon="5.82143">
        <ele>239.3</ele>
        <time>2022-09-26T10:24:19Z</time>
      </trkpt>
      <trkpt lat="45.85133" lon="5.82143">
        <ele>239.3</ele>
        <time>2022-09-26T10:24:20Z</time>
      </trkpt>
      <trkpt lat="45.85133" lon="5.82143">
        <ele>239.3</ele>
        <time>2022-09-26T10:24:21Z</time>
      </trkpt>
      <trkpt lat="45.85133" lon="5.82144">
        <ele>239.3</ele>
        <time>2022-09-26T10:24:22Z</time>
      </trkpt>
      <trkpt lat="45.85133" lon="5.82144">
        <ele>239.3</ele>
        <time>2022-09-26T10:24:23Z</time>
      </trkpt>
      <trkpt lat="45.85133" lon="5.82144">
        <ele>239.3</ele>
        <time>2022-09-26T10:24:24Z</time>
      </trkpt>
      <trkpt lat="45.85133" lon="5.82144">
        <ele>239.3</ele>
        <time>2022-09-26T10:24:25Z</time>
      </trkpt>
      <trkpt lat="45.85133" lon="5.82144">
        <ele>239.3</ele>
        <time>2022-09-26T10:24:26Z</time>
      </trkpt>
      <trkpt lat="45.85133" lon="5.82159">
        <ele>239.3</ele>
        <time>2022-09-26T10:24:37Z</time>
      </trkpt>
      <trkpt lat="45.85132" lon="5.82163">
        <ele>239.3</ele>
        <time>2022-09-26T10:24:38Z</time>
      </trkpt>
      <trkpt lat="45.85132" lon="5.82168">
        <ele>239.3</ele>
        <time>2022-09-26T10:24:39Z</time>
      </trkpt>
      <trkpt lat="45.85131" lon="5.82172">
        <ele>239.3</ele>
        <time>2022-09-26T10:24:40Z</time>
      </trkpt>
      <trkpt lat="45.85131" lon="5.82177">
        <ele>239.3</ele>
        <time>2022-09-26T10:24:41Z</time>
      </trkpt>
      <trkpt lat="45.85131" lon="5.82182">
        <ele>239.3</ele>
        <time>2022-09-26T10:24:42Z</time>
      </trkpt>
      <trkpt lat="45.8513" lon="5.82187">
        <ele>239.3</ele>
        <time>2022-09-26T10:24:43Z</time>
      </trkpt>
      <trkpt lat="45.8513" lon="5.82192">
        <ele>239.2</ele>
        <time>2022-09-26T10:24:44Z</time>
      </trkpt>
      <trkpt lat="45.8513" lon="5.82197">
        <ele>239.2</ele>
        <time>2022-09-26T10:24:45Z</time>
      </trkpt>
      <trkpt lat="45.85129" lon="5.82201">
        <ele>239.2</ele>
        <time>2022-09-26T10:24:46Z</time>
      </trkpt>
      <trkpt lat="45.85129" lon="5.82207">
        <ele>239.2</ele>
        <time>2022-09-26T10:24:47Z</time>
      </trkpt>
      <trkpt lat="45.85128" lon="5.82212">
        <ele>239.2</ele>
        <time>2022-09-26T10:24:48Z</time>
      </trkpt>
      <trkpt lat="45.85127" lon="5.82218">
        <ele>239.2</ele>
        <time>2022-09-26T10:24:49Z</time>
      </trkpt>
      <trkpt lat="45.85126" lon="5.82224">
        <ele>239.2</ele>
        <time>2022-09-26T10:24:50Z</time>
      </trkpt>
      <trkpt lat="45.85125" lon="5.8223">
        <ele>239.2</ele>
        <time>2022-09-26T10:24:51Z</time>
      </trkpt>
      <trkpt lat="45.85124" lon="5.82237">
        <ele>239.2</ele>
        <time>2022-09-26T10:24:52Z</time>
      </trkpt>
      <trkpt lat="45.85124" lon="5.82244">
        <ele>239.2</ele>
        <time>2022-09-26T10:24:53Z</time>
      </trkpt>
      <trkpt lat="45.85124" lon="5.82251">
        <ele>239.2</ele>
        <time>2022-09-26T10:24:54Z</time>
      </trkpt>
      <trkpt lat="45.85123" lon="5.82258">
        <ele>239.2</ele>
        <time>2022-09-26T10:24:55Z</time>
      </trkpt>
      <trkpt lat="45.85123" lon="5.82267">
        <ele>239.2</ele>
        <time>2022-09-26T10:24:56Z</time>
      </trkpt>
      <trkpt lat="45.85122" lon="5.82274">
        <ele>239.2</ele>
        <time>2022-09-26T10:24:57Z</time>
      </trkpt>
      <trkpt lat="45.85121" lon="5.8228">
        <ele>239.2</ele>
        <time>2022-09-26T10:24:58Z</time>
      </trkpt>
      <trkpt lat="45.85121" lon="5.82288">
        <ele>239.2</ele>
        <time>2022-09-26T10:24:59Z</time>
      </trkpt>
      <trkpt lat="45.85119" lon="5.82295">
        <ele>239.2</ele>
        <time>2022-09-26T10:25:00Z</time>
      </trkpt>
      <trkpt lat="45.85119" lon="5.82303">
        <ele>239.2</ele>
        <time>2022-09-26T10:25:01Z</time>
      </trkpt>
      <trkpt lat="45.85118" lon="5.8231">
        <ele>239.2</ele>
        <time>2022-09-26T10:25:02Z</time>
      </trkpt>
      <trkpt lat="45.85118" lon="5.82319">
        <ele>239.2</ele>
        <time>2022-09-26T10:25:03Z</time>
      </trkpt>
      <trkpt lat="45.85118" lon="5.82327">
        <ele>239.2</ele>
        <time>2022-09-26T10:25:04Z</time>
      </trkpt>
      <trkpt lat="45.85118" lon="5.82334">
        <ele>239.3</ele>
        <time>2022-09-26T10:25:05Z</time>
      </trkpt>
      <trkpt lat="45.85118" lon="5.82343">
        <ele>239.3</ele>
        <time>2022-09-26T10:25:06Z</time>
      </trkpt>
      <trkpt lat="45.85117" lon="5.82349">
        <ele>239.4</ele>
        <time>2022-09-26T10:25:07Z</time>
      </trkpt>
      <trkpt lat="45.85117" lon="5.82357">
        <ele>239.4</ele>
        <time>2022-09-26T10:25:08Z</time>
      </trkpt>
      <trkpt lat="45.85117" lon="5.82364">
        <ele>239.5</ele>
        <time>2022-09-26T10:25:09Z</time>
      </trkpt>
      <trkpt lat="45.85116" lon="5.8237">
        <ele>239.5</ele>
        <time>2022-09-26T10:25:10Z</time>
      </trkpt>
      <trkpt lat="45.85116" lon="5.82377">
        <ele>239.6</ele>
        <time>2022-09-26T10:25:11Z</time>
      </trkpt>
      <trkpt lat="45.85115" lon="5.82383">
        <ele>239.6</ele>
        <time>2022-09-26T10:25:12Z</time>
      </trkpt>
      <trkpt lat="45.85115" lon="5.82389">
        <ele>239.6</ele>
        <time>2022-09-26T10:25:13Z</time>
      </trkpt>
      <trkpt lat="45.85115" lon="5.82395">
        <ele>239.6</ele>
        <time>2022-09-26T10:25:14Z</time>
      </trkpt>
      <trkpt lat="45.85114" lon="5.82401">
        <ele>239.6</ele>
        <time>2022-09-26T10:25:15Z</time>
      </trkpt>
      <trkpt lat="45.85114" lon="5.82408">
        <ele>239.6</ele>
        <time>2022-09-26T10:25:16Z</time>
      </trkpt>
      <trkpt lat="45.85114" lon="5.82414">
        <ele>239.6</ele>
        <time>2022-09-26T10:25:17Z</time>
      </trkpt>
      <trkpt lat="45.85113" lon="5.82421">
        <ele>239.6</ele>
        <time>2022-09-26T10:25:18Z</time>
      </trkpt>
      <trkpt lat="45.85113" lon="5.82429">
        <ele>239.5</ele>
        <time>2022-09-26T10:25:19Z</time>
      </trkpt>
      <trkpt lat="45.85112" lon="5.82436">
        <ele>239.5</ele>
        <time>2022-09-26T10:25:20Z</time>
      </trkpt>
      <trkpt lat="45.85111" lon="5.82444">
        <ele>239.5</ele>
        <time>2022-09-26T10:25:21Z</time>
      </trkpt>
      <trkpt lat="45.85111" lon="5.82451">
        <ele>239.4</ele>
        <time>2022-09-26T10:25:22Z</time>
      </trkpt>
      <trkpt lat="45.8511" lon="5.82458">
        <ele>239.4</ele>
        <time>2022-09-26T10:25:23Z</time>
      </trkpt>
      <trkpt lat="45.8511" lon="5.82466">
        <ele>239.4</ele>
        <time>2022-09-26T10:25:24Z</time>
      </trkpt>
      <trkpt lat="45.8511" lon="5.82474">
        <ele>239.4</ele>
        <time>2022-09-26T10:25:25Z</time>
      </trkpt>
      <trkpt lat="45.85109" lon="5.82481">
        <ele>239.4</ele>
        <time>2022-09-26T10:25:26Z</time>
      </trkpt>
      <trkpt lat="45.85108" lon="5.82488">
        <ele>239.3</ele>
        <time>2022-09-26T10:25:27Z</time>
      </trkpt>
      <trkpt lat="45.85108" lon="5.82496">
        <ele>239.3</ele>
        <time>2022-09-26T10:25:28Z</time>
      </trkpt>
      <trkpt lat="45.85108" lon="5.82503">
        <ele>239.3</ele>
        <time>2022-09-26T10:25:29Z</time>
      </trkpt>
      <trkpt lat="45.85108" lon="5.82511">
        <ele>239.3</ele>
        <time>2022-09-26T10:25:30Z</time>
      </trkpt>
      <trkpt lat="45.85107" lon="5.82518">
        <ele>239.3</ele>
        <time>2022-09-26T10:25:31Z</time>
      </trkpt>
      <trkpt lat="45.85107" lon="5.82526">
        <ele>239.3</ele>
        <time>2022-09-26T10:25:32Z</time>
      </trkpt>
      <trkpt lat="45.85106" lon="5.82534">
        <ele>239.3</ele>
        <time>2022-09-26T10:25:33Z</time>
      </trkpt>
      <trkpt lat="45.85106" lon="5.82542">
        <ele>239.3</ele>
        <time>2022-09-26T10:25:34Z</time>
      </trkpt>
      <trkpt lat="45.85105" lon="5.8255">
        <ele>239.3</ele>
        <time>2022-09-26T10:25:35Z</time>
      </trkpt>
      <trkpt lat="45.85105" lon="5.82557">
        <ele>239.3</ele>
        <time>2022-09-26T10:25:36Z</time>
      </trkpt>
      <trkpt lat="45.85105" lon="5.82565">
        <ele>239.3</ele>
        <time>2022-09-26T10:25:37Z</time>
      </trkpt>
      <trkpt lat="45.85104" lon="5.82573">
        <ele>239.3</ele>
        <time>2022-09-26T10:25:38Z</time>
      </trkpt>
      <trkpt lat="45.85104" lon="5.82581">
        <ele>239.3</ele>
        <time>2022-09-26T10:25:39Z</time>
      </trkpt>
      <trkpt lat="45.85104" lon="5.82589">
        <ele>239.4</ele>
        <time>2022-09-26T10:25:40Z</time>
      </trkpt>
      <trkpt lat="45.85102" lon="5.82597">
        <ele>239.4</ele>
        <time>2022-09-26T10:25:41Z</time>
      </trkpt>
      <trkpt lat="45.85102" lon="5.82605">
        <ele>239.4</ele>
        <time>2022-09-26T10:25:42Z</time>
      </trkpt>
      <trkpt lat="45.85102" lon="5.82613">
        <ele>239.4</ele>
        <time>2022-09-26T10:25:43Z</time>
      </trkpt>
      <trkpt lat="45.85102" lon="5.8262">
        <ele>239.5</ele>
        <time>2022-09-26T10:25:44Z</time>
      </trkpt>
      <trkpt lat="45.85101" lon="5.82628">
        <ele>239.5</ele>
        <time>2022-09-26T10:25:45Z</time>
      </trkpt>
      <trkpt lat="45.85101" lon="5.82636">
        <ele>239.5</ele>
        <time>2022-09-26T10:25:46Z</time>
      </trkpt>
      <trkpt lat="45.851" lon="5.82642">
        <ele>239.5</ele>
        <time>2022-09-26T10:25:47Z</time>
      </trkpt>
      <trkpt lat="45.85099" lon="5.8265">
        <ele>239.5</ele>
        <time>2022-09-26T10:25:48Z</time>
      </trkpt>
      <trkpt lat="45.85099" lon="5.82658">
        <ele>239.5</ele>
        <time>2022-09-26T10:25:49Z</time>
      </trkpt>
      <trkpt lat="45.85098" lon="5.82666">
        <ele>239.5</ele>
        <time>2022-09-26T10:25:50Z</time>
      </trkpt>
      <trkpt lat="45.85098" lon="5.82673">
        <ele>239.6</ele>
        <time>2022-09-26T10:25:51Z</time>
      </trkpt>
      <trkpt lat="45.85097" lon="5.82681">
        <ele>239.6</ele>
        <time>2022-09-26T10:25:52Z</time>
      </trkpt>
      <trkpt lat="45.85097" lon="5.82689">
        <ele>239.6</ele>
        <time>2022-09-26T10:25:53Z</time>
      </trkpt>
      <trkpt lat="45.85097" lon="5.82696">
        <ele>239.6</ele>
        <time>2022-09-26T10:25:54Z</time>
      </trkpt>
      <trkpt lat="45.85096" lon="5.82704">
        <ele>239.6</ele>
        <time>2022-09-26T10:25:55Z</time>
      </trkpt>
      <trkpt lat="45.85095" lon="5.82712">
        <ele>239.7</ele>
        <time>2022-09-26T10:25:56Z</time>
      </trkpt>
      <trkpt lat="45.85095" lon="5.82719">
        <ele>239.7</ele>
        <time>2022-09-26T10:25:57Z</time>
      </trkpt>
      <trkpt lat="45.85094" lon="5.82726">
        <ele>239.7</ele>
        <time>2022-09-26T10:25:58Z</time>
      </trkpt>
      <trkpt lat="45.85094" lon="5.82734">
        <ele>239.7</ele>
        <time>2022-09-26T10:25:59Z</time>
      </trkpt>
      <trkpt lat="45.85093" lon="5.8274">
        <ele>239.8</ele>
        <time>2022-09-26T10:26:00Z</time>
      </trkpt>
      <trkpt lat="45.85094" lon="5.82749">
        <ele>239.8</ele>
        <time>2022-09-26T10:26:01Z</time>
      </trkpt>
      <trkpt lat="45.85092" lon="5.82756">
        <ele>239.9</ele>
        <time>2022-09-26T10:26:02Z</time>
      </trkpt>
      <trkpt lat="45.85092" lon="5.82762">
        <ele>239.9</ele>
        <time>2022-09-26T10:26:03Z</time>
      </trkpt>
      <trkpt lat="45.85092" lon="5.82769">
        <ele>239.9</ele>
        <time>2022-09-26T10:26:04Z</time>
      </trkpt>
      <trkpt lat="45.85092" lon="5.82777">
        <ele>240</ele>
        <time>2022-09-26T10:26:05Z</time>
      </trkpt>
      <trkpt lat="45.85091" lon="5.82784">
        <ele>240</ele>
        <time>2022-09-26T10:26:06Z</time>
      </trkpt>
      <trkpt lat="45.85091" lon="5.82793">
        <ele>240</ele>
        <time>2022-09-26T10:26:07Z</time>
      </trkpt>
      <trkpt lat="45.8509" lon="5.828">
        <ele>240.1</ele>
        <time>2022-09-26T10:26:08Z</time>
      </trkpt>
      <trkpt lat="45.85089" lon="5.82808">
        <ele>240.1</ele>
        <time>2022-09-26T10:26:09Z</time>
      </trkpt>
      <trkpt lat="45.85088" lon="5.82817">
        <ele>240.1</ele>
        <time>2022-09-26T10:26:10Z</time>
      </trkpt>
      <trkpt lat="45.85088" lon="5.82825">
        <ele>240.1</ele>
        <time>2022-09-26T10:26:11Z</time>
      </trkpt>
      <trkpt lat="45.85087" lon="5.82832">
        <ele>240.1</ele>
        <time>2022-09-26T10:26:12Z</time>
      </trkpt>
      <trkpt lat="45.85088" lon="5.82841">
        <ele>240.1</ele>
        <time>2022-09-26T10:26:13Z</time>
      </trkpt>
      <trkpt lat="45.85087" lon="5.82849">
        <ele>240.1</ele>
        <time>2022-09-26T10:26:14Z</time>
      </trkpt>
      <trkpt lat="45.85085" lon="5.82856">
        <ele>240.1</ele>
        <time>2022-09-26T10:26:15Z</time>
      </trkpt>
      <trkpt lat="45.85087" lon="5.82865">
        <ele>240.1</ele>
        <time>2022-09-26T10:26:16Z</time>
      </trkpt>
      <trkpt lat="45.85085" lon="5.82874">
        <ele>240.1</ele>
        <time>2022-09-26T10:26:17Z</time>
      </trkpt>
      <trkpt lat="45.85086" lon="5.82882">
        <ele>240.1</ele>
        <time>2022-09-26T10:26:18Z</time>
      </trkpt>
      <trkpt lat="45.85085" lon="5.8289">
        <ele>240.1</ele>
        <time>2022-09-26T10:26:19Z</time>
      </trkpt>
      <trkpt lat="45.85086" lon="5.82897">
        <ele>240.1</ele>
        <time>2022-09-26T10:26:20Z</time>
      </trkpt>
      <trkpt lat="45.85085" lon="5.82906">
        <ele>240.1</ele>
        <time>2022-09-26T10:26:21Z</time>
      </trkpt>
      <trkpt lat="45.85086" lon="5.82915">
        <ele>240.2</ele>
        <time>2022-09-26T10:26:22Z</time>
      </trkpt>
      <trkpt lat="45.85086" lon="5.82922">
        <ele>240.2</ele>
        <time>2022-09-26T10:26:23Z</time>
      </trkpt>
      <trkpt lat="45.85086" lon="5.8293">
        <ele>240.2</ele>
        <time>2022-09-26T10:26:24Z</time>
      </trkpt>
      <trkpt lat="45.85086" lon="5.82938">
        <ele>240.3</ele>
        <time>2022-09-26T10:26:25Z</time>
      </trkpt>
      <trkpt lat="45.85086" lon="5.82945">
        <ele>240.3</ele>
        <time>2022-09-26T10:26:26Z</time>
      </trkpt>
      <trkpt lat="45.85085" lon="5.82952">
        <ele>240.3</ele>
        <time>2022-09-26T10:26:27Z</time>
      </trkpt>
      <trkpt lat="45.85086" lon="5.8296">
        <ele>240.4</ele>
        <time>2022-09-26T10:26:28Z</time>
      </trkpt>
      <trkpt lat="45.85085" lon="5.82967">
        <ele>240.4</ele>
        <time>2022-09-26T10:26:29Z</time>
      </trkpt>
      <trkpt lat="45.85085" lon="5.82974">
        <ele>240.4</ele>
        <time>2022-09-26T10:26:30Z</time>
      </trkpt>
      <trkpt lat="45.85085" lon="5.82982">
        <ele>240.5</ele>
        <time>2022-09-26T10:26:31Z</time>
      </trkpt>
      <trkpt lat="45.85085" lon="5.82988">
        <ele>240.5</ele>
        <time>2022-09-26T10:26:32Z</time>
      </trkpt>
      <trkpt lat="45.85084" lon="5.82995">
        <ele>240.5</ele>
        <time>2022-09-26T10:26:33Z</time>
      </trkpt>
      <trkpt lat="45.85085" lon="5.83003">
        <ele>240.6</ele>
        <time>2022-09-26T10:26:34Z</time>
      </trkpt>
      <trkpt lat="45.85085" lon="5.8301">
        <ele>240.6</ele>
        <time>2022-09-26T10:26:35Z</time>
      </trkpt>
      <trkpt lat="45.85085" lon="5.83018">
        <ele>240.6</ele>
        <time>2022-09-26T10:26:36Z</time>
      </trkpt>
      <trkpt lat="45.85085" lon="5.83025">
        <ele>240.6</ele>
        <time>2022-09-26T10:26:37Z</time>
      </trkpt>
      <trkpt lat="45.85085" lon="5.83032">
        <ele>240.6</ele>
        <time>2022-09-26T10:26:38Z</time>
      </trkpt>
      <trkpt lat="45.85084" lon="5.83038">
        <ele>240.7</ele>
        <time>2022-09-26T10:26:39Z</time>
      </trkpt>
      <trkpt lat="45.85084" lon="5.83042">
        <ele>240.7</ele>
        <time>2022-09-26T10:26:40Z</time>
      </trkpt>
      <trkpt lat="45.85084" lon="5.83044">
        <ele>240.7</ele>
        <time>2022-09-26T10:26:41Z</time>
      </trkpt>
      <trkpt lat="45.85084" lon="5.83044">
        <ele>240.7</ele>
        <time>2022-09-26T10:26:42Z</time>
      </trkpt>
      <trkpt lat="45.85084" lon="5.83044">
        <ele>240.7</ele>
        <time>2022-09-26T10:26:43Z</time>
      </trkpt>
      <trkpt lat="45.85084" lon="5.83044">
        <ele>240.7</ele>
        <time>2022-09-26T10:26:44Z</time>
      </trkpt>
      <trkpt lat="45.85084" lon="5.83044">
        <ele>240.7</ele>
        <time>2022-09-26T10:26:45Z</time>
      </trkpt>
      <trkpt lat="45.85084" lon="5.83045">
        <ele>240.7</ele>
        <time>2022-09-26T10:26:46Z</time>
      </trkpt>
      <trkpt lat="45.85084" lon="5.83045">
        <ele>240.7</ele>
        <time>2022-09-26T10:26:47Z</time>
      </trkpt>
      <trkpt lat="45.85085" lon="5.83045">
        <ele>240.7</ele>
        <time>2022-09-26T10:26:48Z</time>
      </trkpt>
      <trkpt lat="45.85086" lon="5.83046">
        <ele>240.7</ele>
        <time>2022-09-26T10:26:49Z</time>
      </trkpt>
      <trkpt lat="45.85086" lon="5.83045">
        <ele>240.7</ele>
        <time>2022-09-26T10:26:50Z</time>
      </trkpt>
      <trkpt lat="45.85087" lon="5.83046">
        <ele>240.7</ele>
        <time>2022-09-26T10:26:51Z</time>
      </trkpt>
      <trkpt lat="45.85087" lon="5.83047">
        <ele>240.7</ele>
        <time>2022-09-26T10:26:52Z</time>
      </trkpt>
      <trkpt lat="45.85088" lon="5.83047">
        <ele>240.7</ele>
        <time>2022-09-26T10:26:53Z</time>
      </trkpt>
      <trkpt lat="45.85087" lon="5.83045">
        <ele>240.7</ele>
        <time>2022-09-26T10:26:54Z</time>
      </trkpt>
      <trkpt lat="45.85088" lon="5.83046">
        <ele>240.7</ele>
        <time>2022-09-26T10:26:55Z</time>
      </trkpt>
      <trkpt lat="45.85088" lon="5.83046">
        <ele>240.7</ele>
        <time>2022-09-26T10:26:56Z</time>
      </trkpt>
      <trkpt lat="45.85089" lon="5.83047">
        <ele>240.7</ele>
        <time>2022-09-26T10:26:57Z</time>
      </trkpt>
      <trkpt lat="45.85089" lon="5.83048">
        <ele>240.7</ele>
        <time>2022-09-26T10:26:58Z</time>
      </trkpt>
      <trkpt lat="45.85089" lon="5.83049">
        <ele>240.7</ele>
        <time>2022-09-26T10:26:59Z</time>
      </trkpt>
      <trkpt lat="45.85089" lon="5.8305">
        <ele>240.7</ele>
        <time>2022-09-26T10:27:00Z</time>
      </trkpt>
      <trkpt lat="45.85089" lon="5.83051">
        <ele>240.7</ele>
        <time>2022-09-26T10:27:01Z</time>
      </trkpt>
      <trkpt lat="45.85089" lon="5.83052">
        <ele>240.7</ele>
        <time>2022-09-26T10:27:02Z</time>
      </trkpt>
      <trkpt lat="45.8509" lon="5.83053">
        <ele>240.7</ele>
        <time>2022-09-26T10:27:03Z</time>
      </trkpt>
      <trkpt lat="45.8509" lon="5.83054">
        <ele>240.7</ele>
        <time>2022-09-26T10:27:04Z</time>
      </trkpt>
      <trkpt lat="45.8509" lon="5.83055">
        <ele>240.7</ele>
        <time>2022-09-26T10:27:11Z</time>
      </trkpt>
      <trkpt lat="45.8509" lon="5.83056">
        <ele>240.7</ele>
        <time>2022-09-26T10:27:12Z</time>
      </trkpt>
      <trkpt lat="45.8509" lon="5.83061">
        <ele>240.7</ele>
        <time>2022-09-26T10:27:13Z</time>
      </trkpt>
      <trkpt lat="45.8509" lon="5.83063">
        <ele>240.7</ele>
        <time>2022-09-26T10:27:14Z</time>
      </trkpt>
      <trkpt lat="45.85089" lon="5.83068">
        <ele>240.7</ele>
        <time>2022-09-26T10:27:15Z</time>
      </trkpt>
      <trkpt lat="45.85089" lon="5.8307">
        <ele>240.7</ele>
        <time>2022-09-26T10:27:16Z</time>
      </trkpt>
      <trkpt lat="45.85089" lon="5.83074">
        <ele>240.7</ele>
        <time>2022-09-26T10:27:17Z</time>
      </trkpt>
      <trkpt lat="45.85089" lon="5.83078">
        <ele>240.7</ele>
        <time>2022-09-26T10:27:18Z</time>
      </trkpt>
      <trkpt lat="45.85089" lon="5.83084">
        <ele>240.8</ele>
        <time>2022-09-26T10:27:19Z</time>
      </trkpt>
      <trkpt lat="45.85089" lon="5.83088">
        <ele>240.8</ele>
        <time>2022-09-26T10:27:20Z</time>
      </trkpt>
      <trkpt lat="45.85089" lon="5.83093">
        <ele>240.8</ele>
        <time>2022-09-26T10:27:21Z</time>
      </trkpt>
      <trkpt lat="45.85089" lon="5.83098">
        <ele>240.9</ele>
        <time>2022-09-26T10:27:22Z</time>
      </trkpt>
      <trkpt lat="45.85089" lon="5.83104">
        <ele>240.9</ele>
        <time>2022-09-26T10:27:23Z</time>
      </trkpt>
      <trkpt lat="45.85089" lon="5.83109">
        <ele>241</ele>
        <time>2022-09-26T10:27:24Z</time>
      </trkpt>
      <trkpt lat="45.85089" lon="5.83115">
        <ele>241</ele>
        <time>2022-09-26T10:27:25Z</time>
      </trkpt>
      <trkpt lat="45.85089" lon="5.83121">
        <ele>241</ele>
        <time>2022-09-26T10:27:26Z</time>
      </trkpt>
      <trkpt lat="45.85089" lon="5.83126">
        <ele>241.1</ele>
        <time>2022-09-26T10:27:27Z</time>
      </trkpt>
      <trkpt lat="45.85089" lon="5.83132">
        <ele>241.1</ele>
        <time>2022-09-26T10:27:28Z</time>
      </trkpt>
      <trkpt lat="45.85089" lon="5.83138">
        <ele>241.2</ele>
        <time>2022-09-26T10:27:29Z</time>
      </trkpt>
      <trkpt lat="45.85089" lon="5.83144">
        <ele>241.2</ele>
        <time>2022-09-26T10:27:30Z</time>
      </trkpt>
      <trkpt lat="45.85089" lon="5.83151">
        <ele>241.3</ele>
        <time>2022-09-26T10:27:31Z</time>
      </trkpt>
      <trkpt lat="45.85089" lon="5.83157">
        <ele>241.3</ele>
        <time>2022-09-26T10:27:32Z</time>
      </trkpt>
      <trkpt lat="45.85089" lon="5.83163">
        <ele>241.4</ele>
        <time>2022-09-26T10:27:33Z</time>
      </trkpt>
      <trkpt lat="45.85089" lon="5.83169">
        <ele>241.4</ele>
        <time>2022-09-26T10:27:34Z</time>
      </trkpt>
      <trkpt lat="45.85088" lon="5.83175">
        <ele>241.4</ele>
        <time>2022-09-26T10:27:35Z</time>
      </trkpt>
      <trkpt lat="45.85088" lon="5.83182">
        <ele>241.5</ele>
        <time>2022-09-26T10:27:36Z</time>
      </trkpt>
      <trkpt lat="45.85088" lon="5.83188">
        <ele>241.5</ele>
        <time>2022-09-26T10:27:37Z</time>
      </trkpt>
      <trkpt lat="45.85088" lon="5.83194">
        <ele>241.5</ele>
        <time>2022-09-26T10:27:38Z</time>
      </trkpt>
      <trkpt lat="45.85087" lon="5.832">
        <ele>241.6</ele>
        <time>2022-09-26T10:27:39Z</time>
      </trkpt>
      <trkpt lat="45.85087" lon="5.83207">
        <ele>241.6</ele>
        <time>2022-09-26T10:27:40Z</time>
      </trkpt>
      <trkpt lat="45.85086" lon="5.83213">
        <ele>241.6</ele>
        <time>2022-09-26T10:27:41Z</time>
      </trkpt>
      <trkpt lat="45.85086" lon="5.83219">
        <ele>241.7</ele>
        <time>2022-09-26T10:27:42Z</time>
      </trkpt>
      <trkpt lat="45.85085" lon="5.83226">
        <ele>241.7</ele>
        <time>2022-09-26T10:27:43Z</time>
      </trkpt>
      <trkpt lat="45.85085" lon="5.83232">
        <ele>241.7</ele>
        <time>2022-09-26T10:27:44Z</time>
      </trkpt>
      <trkpt lat="45.85084" lon="5.83238">
        <ele>241.8</ele>
        <time>2022-09-26T10:27:45Z</time>
      </trkpt>
      <trkpt lat="45.85084" lon="5.83244">
        <ele>241.8</ele>
        <time>2022-09-26T10:27:46Z</time>
      </trkpt>
      <trkpt lat="45.85083" lon="5.8325">
        <ele>241.8</ele>
        <time>2022-09-26T10:27:47Z</time>
      </trkpt>
      <trkpt lat="45.85083" lon="5.83256">
        <ele>241.9</ele>
        <time>2022-09-26T10:27:48Z</time>
      </trkpt>
      <trkpt lat="45.85082" lon="5.83262">
        <ele>241.9</ele>
        <time>2022-09-26T10:27:49Z</time>
      </trkpt>
      <trkpt lat="45.85082" lon="5.83268">
        <ele>242</ele>
        <time>2022-09-26T10:27:50Z</time>
      </trkpt>
      <trkpt lat="45.85081" lon="5.83274">
        <ele>242</ele>
        <time>2022-09-26T10:27:51Z</time>
      </trkpt>
      <trkpt lat="45.8508" lon="5.8328">
        <ele>242.1</ele>
        <time>2022-09-26T10:27:52Z</time>
      </trkpt>
      <trkpt lat="45.85079" lon="5.83286">
        <ele>242.1</ele>
        <time>2022-09-26T10:27:53Z</time>
      </trkpt>
      <trkpt lat="45.85079" lon="5.83292">
        <ele>242.1</ele>
        <time>2022-09-26T10:27:54Z</time>
      </trkpt>
      <trkpt lat="45.85078" lon="5.83298">
        <ele>242.2</ele>
        <time>2022-09-26T10:27:55Z</time>
      </trkpt>
      <trkpt lat="45.85078" lon="5.83304">
        <ele>242.2</ele>
        <time>2022-09-26T10:27:56Z</time>
      </trkpt>
      <trkpt lat="45.85077" lon="5.8331">
        <ele>242.3</ele>
        <time>2022-09-26T10:27:57Z</time>
      </trkpt>
      <trkpt lat="45.85077" lon="5.83315">
        <ele>242.3</ele>
        <time>2022-09-26T10:27:58Z</time>
      </trkpt>
      <trkpt lat="45.85076" lon="5.83321">
        <ele>242.4</ele>
        <time>2022-09-26T10:27:59Z</time>
      </trkpt>
      <trkpt lat="45.85075" lon="5.83327">
        <ele>242.4</ele>
        <time>2022-09-26T10:28:00Z</time>
      </trkpt>
      <trkpt lat="45.85075" lon="5.83333">
        <ele>242.5</ele>
        <time>2022-09-26T10:28:01Z</time>
      </trkpt>
      <trkpt lat="45.85074" lon="5.83339">
        <ele>242.6</ele>
        <time>2022-09-26T10:28:02Z</time>
      </trkpt>
      <trkpt lat="45.85073" lon="5.83345">
        <ele>242.6</ele>
        <time>2022-09-26T10:28:03Z</time>
      </trkpt>
      <trkpt lat="45.85073" lon="5.8335">
        <ele>242.7</ele>
        <time>2022-09-26T10:28:04Z</time>
      </trkpt>
      <trkpt lat="45.85073" lon="5.83356">
        <ele>242.8</ele>
        <time>2022-09-26T10:28:05Z</time>
      </trkpt>
      <trkpt lat="45.85072" lon="5.83362">
        <ele>242.9</ele>
        <time>2022-09-26T10:28:06Z</time>
      </trkpt>
      <trkpt lat="45.85071" lon="5.83368">
        <ele>242.9</ele>
        <time>2022-09-26T10:28:07Z</time>
      </trkpt>
      <trkpt lat="45.8507" lon="5.83373">
        <ele>243</ele>
        <time>2022-09-26T10:28:08Z</time>
      </trkpt>
      <trkpt lat="45.8507" lon="5.83378">
        <ele>243.1</ele>
        <time>2022-09-26T10:28:09Z</time>
      </trkpt>
      <trkpt lat="45.85069" lon="5.83384">
        <ele>243.2</ele>
        <time>2022-09-26T10:28:10Z</time>
      </trkpt>
      <trkpt lat="45.85069" lon="5.83389">
        <ele>243.3</ele>
        <time>2022-09-26T10:28:11Z</time>
      </trkpt>
      <trkpt lat="45.85069" lon="5.83394">
        <ele>243.4</ele>
        <time>2022-09-26T10:28:12Z</time>
      </trkpt>
      <trkpt lat="45.85068" lon="5.834">
        <ele>243.5</ele>
        <time>2022-09-26T10:28:13Z</time>
      </trkpt>
      <trkpt lat="45.85067" lon="5.83405">
        <ele>243.6</ele>
        <time>2022-09-26T10:28:14Z</time>
      </trkpt>
      <trkpt lat="45.85066" lon="5.8341">
        <ele>243.7</ele>
        <time>2022-09-26T10:28:15Z</time>
      </trkpt>
      <trkpt lat="45.85067" lon="5.83415">
        <ele>243.8</ele>
        <time>2022-09-26T10:28:16Z</time>
      </trkpt>
      <trkpt lat="45.85065" lon="5.83419">
        <ele>243.9</ele>
        <time>2022-09-26T10:28:17Z</time>
      </trkpt>
      <trkpt lat="45.85064" lon="5.83424">
        <ele>244</ele>
        <time>2022-09-26T10:28:18Z</time>
      </trkpt>
      <trkpt lat="45.85064" lon="5.83429">
        <ele>244.1</ele>
        <time>2022-09-26T10:28:19Z</time>
      </trkpt>
      <trkpt lat="45.85064" lon="5.83434">
        <ele>244.2</ele>
        <time>2022-09-26T10:28:20Z</time>
      </trkpt>
      <trkpt lat="45.85064" lon="5.83439">
        <ele>244.3</ele>
        <time>2022-09-26T10:28:21Z</time>
      </trkpt>
      <trkpt lat="45.85063" lon="5.83443">
        <ele>244.4</ele>
        <time>2022-09-26T10:28:22Z</time>
      </trkpt>
      <trkpt lat="45.85063" lon="5.83449">
        <ele>244.5</ele>
        <time>2022-09-26T10:28:23Z</time>
      </trkpt>
      <trkpt lat="45.85062" lon="5.83453">
        <ele>244.6</ele>
        <time>2022-09-26T10:28:24Z</time>
      </trkpt>
      <trkpt lat="45.85062" lon="5.83458">
        <ele>244.7</ele>
        <time>2022-09-26T10:28:25Z</time>
      </trkpt>
      <trkpt lat="45.85061" lon="5.83463">
        <ele>244.8</ele>
        <time>2022-09-26T10:28:26Z</time>
      </trkpt>
      <trkpt lat="45.85061" lon="5.83468">
        <ele>245</ele>
        <time>2022-09-26T10:28:27Z</time>
      </trkpt>
      <trkpt lat="45.8506" lon="5.83473">
        <ele>245.1</ele>
        <time>2022-09-26T10:28:28Z</time>
      </trkpt>
      <trkpt lat="45.8506" lon="5.83478">
        <ele>245.2</ele>
        <time>2022-09-26T10:28:29Z</time>
      </trkpt>
      <trkpt lat="45.85059" lon="5.83483">
        <ele>245.3</ele>
        <time>2022-09-26T10:28:30Z</time>
      </trkpt>
      <trkpt lat="45.85059" lon="5.83488">
        <ele>245.4</ele>
        <time>2022-09-26T10:28:31Z</time>
      </trkpt>
      <trkpt lat="45.85059" lon="5.83493">
        <ele>245.6</ele>
        <time>2022-09-26T10:28:32Z</time>
      </trkpt>
      <trkpt lat="45.85058" lon="5.83498">
        <ele>245.7</ele>
        <time>2022-09-26T10:28:33Z</time>
      </trkpt>
      <trkpt lat="45.85058" lon="5.83502">
        <ele>245.8</ele>
        <time>2022-09-26T10:28:34Z</time>
      </trkpt>
      <trkpt lat="45.85057" lon="5.83508">
        <ele>246</ele>
        <time>2022-09-26T10:28:35Z</time>
      </trkpt>
      <trkpt lat="45.85057" lon="5.8351">
        <ele>246.1</ele>
        <time>2022-09-26T10:28:36Z</time>
      </trkpt>
      <trkpt lat="45.85057" lon="5.83515">
        <ele>246.2</ele>
        <time>2022-09-26T10:28:37Z</time>
      </trkpt>
      <trkpt lat="45.85056" lon="5.83519">
        <ele>246.3</ele>
        <time>2022-09-26T10:28:38Z</time>
      </trkpt>
      <trkpt lat="45.85056" lon="5.83524">
        <ele>246.4</ele>
        <time>2022-09-26T10:28:39Z</time>
      </trkpt>
      <trkpt lat="45.85055" lon="5.83529">
        <ele>246.6</ele>
        <time>2022-09-26T10:28:40Z</time>
      </trkpt>
      <trkpt lat="45.85055" lon="5.83534">
        <ele>246.7</ele>
        <time>2022-09-26T10:28:41Z</time>
      </trkpt>
      <trkpt lat="45.85055" lon="5.83538">
        <ele>246.8</ele>
        <time>2022-09-26T10:28:42Z</time>
      </trkpt>
      <trkpt lat="45.85054" lon="5.83543">
        <ele>246.9</ele>
        <time>2022-09-26T10:28:43Z</time>
      </trkpt>
      <trkpt lat="45.85054" lon="5.83547">
        <ele>247</ele>
        <time>2022-09-26T10:28:44Z</time>
      </trkpt>
      <trkpt lat="45.85054" lon="5.83551">
        <ele>247.1</ele>
        <time>2022-09-26T10:28:45Z</time>
      </trkpt>
      <trkpt lat="45.85054" lon="5.83556">
        <ele>247.2</ele>
        <time>2022-09-26T10:28:46Z</time>
      </trkpt>
      <trkpt lat="45.85054" lon="5.83561">
        <ele>247.3</ele>
        <time>2022-09-26T10:28:47Z</time>
      </trkpt>
      <trkpt lat="45.85054" lon="5.83566">
        <ele>247.5</ele>
        <time>2022-09-26T10:28:48Z</time>
      </trkpt>
      <trkpt lat="45.85054" lon="5.8357">
        <ele>247.6</ele>
        <time>2022-09-26T10:28:49Z</time>
      </trkpt>
      <trkpt lat="45.85055" lon="5.83575">
        <ele>247.7</ele>
        <time>2022-09-26T10:28:50Z</time>
      </trkpt>
      <trkpt lat="45.85055" lon="5.8358">
        <ele>247.8</ele>
        <time>2022-09-26T10:28:51Z</time>
      </trkpt>
      <trkpt lat="45.85054" lon="5.83584">
        <ele>247.9</ele>
        <time>2022-09-26T10:28:52Z</time>
      </trkpt>
      <trkpt lat="45.85055" lon="5.83589">
        <ele>248</ele>
        <time>2022-09-26T10:28:53Z</time>
      </trkpt>
      <trkpt lat="45.85055" lon="5.83593">
        <ele>248.1</ele>
        <time>2022-09-26T10:28:54Z</time>
      </trkpt>
      <trkpt lat="45.85055" lon="5.83597">
        <ele>248.2</ele>
        <time>2022-09-26T10:28:55Z</time>
      </trkpt>
      <trkpt lat="45.85055" lon="5.83602">
        <ele>248.3</ele>
        <time>2022-09-26T10:28:56Z</time>
      </trkpt>
      <trkpt lat="45.85055" lon="5.83606">
        <ele>248.4</ele>
        <time>2022-09-26T10:28:57Z</time>
      </trkpt>
      <trkpt lat="45.85055" lon="5.8361">
        <ele>248.5</ele>
        <time>2022-09-26T10:28:58Z</time>
      </trkpt>
      <trkpt lat="45.85056" lon="5.83614">
        <ele>248.5</ele>
        <time>2022-09-26T10:28:59Z</time>
      </trkpt>
      <trkpt lat="45.85056" lon="5.83619">
        <ele>248.6</ele>
        <time>2022-09-26T10:29:00Z</time>
      </trkpt>
      <trkpt lat="45.85056" lon="5.83623">
        <ele>248.7</ele>
        <time>2022-09-26T10:29:01Z</time>
      </trkpt>
      <trkpt lat="45.85056" lon="5.83627">
        <ele>248.8</ele>
        <time>2022-09-26T10:29:02Z</time>
      </trkpt>
      <trkpt lat="45.85056" lon="5.83631">
        <ele>248.9</ele>
        <time>2022-09-26T10:29:03Z</time>
      </trkpt>
      <trkpt lat="45.85056" lon="5.83635">
        <ele>249</ele>
        <time>2022-09-26T10:29:04Z</time>
      </trkpt>
      <trkpt lat="45.85056" lon="5.8364">
        <ele>249.1</ele>
        <time>2022-09-26T10:29:05Z</time>
      </trkpt>
      <trkpt lat="45.85056" lon="5.83644">
        <ele>249.2</ele>
        <time>2022-09-26T10:29:06Z</time>
      </trkpt>
      <trkpt lat="45.85057" lon="5.83648">
        <ele>249.3</ele>
        <time>2022-09-26T10:29:07Z</time>
      </trkpt>
      <trkpt lat="45.85057" lon="5.83652">
        <ele>249.3</ele>
        <time>2022-09-26T10:29:08Z</time>
      </trkpt>
      <trkpt lat="45.85057" lon="5.83656">
        <ele>249.4</ele>
        <time>2022-09-26T10:29:09Z</time>
      </trkpt>
      <trkpt lat="45.85057" lon="5.83661">
        <ele>249.5</ele>
        <time>2022-09-26T10:29:10Z</time>
      </trkpt>
      <trkpt lat="45.85058" lon="5.83665">
        <ele>249.6</ele>
        <time>2022-09-26T10:29:11Z</time>
      </trkpt>
      <trkpt lat="45.85058" lon="5.83669">
        <ele>249.7</ele>
        <time>2022-09-26T10:29:12Z</time>
      </trkpt>
      <trkpt lat="45.85058" lon="5.83673">
        <ele>249.8</ele>
        <time>2022-09-26T10:29:13Z</time>
      </trkpt>
      <trkpt lat="45.85058" lon="5.83677">
        <ele>249.9</ele>
        <time>2022-09-26T10:29:14Z</time>
      </trkpt>
      <trkpt lat="45.85058" lon="5.83681">
        <ele>250</ele>
        <time>2022-09-26T10:29:15Z</time>
      </trkpt>
      <trkpt lat="45.85058" lon="5.83685">
        <ele>250.1</ele>
        <time>2022-09-26T10:29:16Z</time>
      </trkpt>
      <trkpt lat="45.85059" lon="5.83689">
        <ele>250.1</ele>
        <time>2022-09-26T10:29:17Z</time>
      </trkpt>
      <trkpt lat="45.85059" lon="5.83693">
        <ele>250.2</ele>
        <time>2022-09-26T10:29:18Z</time>
      </trkpt>
      <trkpt lat="45.85059" lon="5.83697">
        <ele>250.3</ele>
        <time>2022-09-26T10:29:19Z</time>
      </trkpt>
      <trkpt lat="45.85059" lon="5.83701">
        <ele>250.4</ele>
        <time>2022-09-26T10:29:20Z</time>
      </trkpt>
      <trkpt lat="45.85059" lon="5.83705">
        <ele>250.5</ele>
        <time>2022-09-26T10:29:21Z</time>
      </trkpt>
      <trkpt lat="45.8506" lon="5.83709">
        <ele>250.6</ele>
        <time>2022-09-26T10:29:22Z</time>
      </trkpt>
      <trkpt lat="45.8506" lon="5.83714">
        <ele>250.7</ele>
        <time>2022-09-26T10:29:23Z</time>
      </trkpt>
      <trkpt lat="45.8506" lon="5.83717">
        <ele>250.8</ele>
        <time>2022-09-26T10:29:24Z</time>
      </trkpt>
      <trkpt lat="45.8506" lon="5.83721">
        <ele>250.9</ele>
        <time>2022-09-26T10:29:25Z</time>
      </trkpt>
      <trkpt lat="45.8506" lon="5.83725">
        <ele>251</ele>
        <time>2022-09-26T10:29:26Z</time>
      </trkpt>
      <trkpt lat="45.8506" lon="5.83729">
        <ele>251.1</ele>
        <time>2022-09-26T10:29:27Z</time>
      </trkpt>
      <trkpt lat="45.8506" lon="5.83733">
        <ele>251.1</ele>
        <time>2022-09-26T10:29:28Z</time>
      </trkpt>
      <trkpt lat="45.8506" lon="5.83737">
        <ele>251.2</ele>
        <time>2022-09-26T10:29:29Z</time>
      </trkpt>
      <trkpt lat="45.8506" lon="5.83741">
        <ele>251.3</ele>
        <time>2022-09-26T10:29:30Z</time>
      </trkpt>
      <trkpt lat="45.8506" lon="5.83746">
        <ele>251.4</ele>
        <time>2022-09-26T10:29:31Z</time>
      </trkpt>
      <trkpt lat="45.8506" lon="5.8375">
        <ele>251.5</ele>
        <time>2022-09-26T10:29:32Z</time>
      </trkpt>
      <trkpt lat="45.85059" lon="5.83754">
        <ele>251.6</ele>
        <time>2022-09-26T10:29:33Z</time>
      </trkpt>
      <trkpt lat="45.85059" lon="5.83759">
        <ele>251.7</ele>
        <time>2022-09-26T10:29:34Z</time>
      </trkpt>
      <trkpt lat="45.85058" lon="5.83762">
        <ele>251.8</ele>
        <time>2022-09-26T10:29:35Z</time>
      </trkpt>
      <trkpt lat="45.85057" lon="5.83766">
        <ele>251.9</ele>
        <time>2022-09-26T10:29:36Z</time>
      </trkpt>
      <trkpt lat="45.85057" lon="5.8377">
        <ele>252</ele>
        <time>2022-09-26T10:29:37Z</time>
      </trkpt>
      <trkpt lat="45.85057" lon="5.83774">
        <ele>252</ele>
        <time>2022-09-26T10:29:38Z</time>
      </trkpt>
      <trkpt lat="45.85056" lon="5.83778">
        <ele>252.1</ele>
        <time>2022-09-26T10:29:39Z</time>
      </trkpt>
      <trkpt lat="45.85055" lon="5.83783">
        <ele>252.2</ele>
        <time>2022-09-26T10:29:40Z</time>
      </trkpt>
      <trkpt lat="45.85055" lon="5.83785">
        <ele>252.3</ele>
        <time>2022-09-26T10:29:41Z</time>
      </trkpt>
      <trkpt lat="45.85055" lon="5.83789">
        <ele>252.3</ele>
        <time>2022-09-26T10:29:42Z</time>
      </trkpt>
      <trkpt lat="45.85054" lon="5.83794">
        <ele>252.3</ele>
        <time>2022-09-26T10:29:43Z</time>
      </trkpt>
      <trkpt lat="45.85054" lon="5.83798">
        <ele>252.3</ele>
        <time>2022-09-26T10:29:44Z</time>
      </trkpt>
      <trkpt lat="45.85053" lon="5.83802">
        <ele>252.4</ele>
        <time>2022-09-26T10:29:45Z</time>
      </trkpt>
      <trkpt lat="45.85052" lon="5.83806">
        <ele>252.4</ele>
        <time>2022-09-26T10:29:46Z</time>
      </trkpt>
      <trkpt lat="45.8505" lon="5.8381">
        <ele>252.4</ele>
        <time>2022-09-26T10:29:47Z</time>
      </trkpt>
      <trkpt lat="45.85049" lon="5.83812">
        <ele>252.4</ele>
        <time>2022-09-26T10:29:48Z</time>
      </trkpt>
      <trkpt lat="45.85048" lon="5.83817">
        <ele>252.3</ele>
        <time>2022-09-26T10:29:49Z</time>
      </trkpt>
      <trkpt lat="45.85048" lon="5.83822">
        <ele>252.3</ele>
        <time>2022-09-26T10:29:50Z</time>
      </trkpt>
      <trkpt lat="45.85048" lon="5.83826">
        <ele>252.4</ele>
        <time>2022-09-26T10:29:51Z</time>
      </trkpt>
      <trkpt lat="45.85049" lon="5.83831">
        <ele>252.5</ele>
        <time>2022-09-26T10:29:52Z</time>
      </trkpt>
      <trkpt lat="45.85051" lon="5.83835">
        <ele>252.5</ele>
        <time>2022-09-26T10:29:53Z</time>
      </trkpt>
      <trkpt lat="45.85053" lon="5.83838">
        <ele>252.8</ele>
        <time>2022-09-26T10:29:54Z</time>
      </trkpt>
      <trkpt lat="45.85057" lon="5.8384">
        <ele>252.8</ele>
        <time>2022-09-26T10:29:55Z</time>
      </trkpt>
      <trkpt lat="45.85061" lon="5.83841">
        <ele>252.9</ele>
        <time>2022-09-26T10:29:56Z</time>
      </trkpt>
      <trkpt lat="45.85064" lon="5.8384">
        <ele>252.9</ele>
        <time>2022-09-26T10:29:57Z</time>
      </trkpt>
      <trkpt lat="45.85067" lon="5.83838">
        <ele>252.9</ele>
        <time>2022-09-26T10:29:58Z</time>
      </trkpt>
      <trkpt lat="45.85071" lon="5.83834">
        <ele>252.7</ele>
        <time>2022-09-26T10:29:59Z</time>
      </trkpt>
      <trkpt lat="45.85075" lon="5.83831">
        <ele>252.6</ele>
        <time>2022-09-26T10:30:00Z</time>
      </trkpt>
      <trkpt lat="45.8508" lon="5.83832">
        <ele>252.4</ele>
        <time>2022-09-26T10:30:01Z</time>
      </trkpt>
      <trkpt lat="45.85085" lon="5.83832">
        <ele>252.2</ele>
        <time>2022-09-26T10:30:02Z</time>
      </trkpt>
      <trkpt lat="45.8509" lon="5.83833">
        <ele>252</ele>
        <time>2022-09-26T10:30:03Z</time>
      </trkpt>
      <trkpt lat="45.85096" lon="5.83834">
        <ele>251.7</ele>
        <time>2022-09-26T10:30:04Z</time>
      </trkpt>
      <trkpt lat="45.85101" lon="5.83836">
        <ele>251.5</ele>
        <time>2022-09-26T10:30:05Z</time>
      </trkpt>
      <trkpt lat="45.85106" lon="5.83837">
        <ele>251.2</ele>
        <time>2022-09-26T10:30:06Z</time>
      </trkpt>
      <trkpt lat="45.85113" lon="5.83839">
        <ele>250.9</ele>
        <time>2022-09-26T10:30:07Z</time>
      </trkpt>
      <trkpt lat="45.85119" lon="5.83841">
        <ele>250.7</ele>
        <time>2022-09-26T10:30:08Z</time>
      </trkpt>
      <trkpt lat="45.85126" lon="5.83842">
        <ele>250.4</ele>
        <time>2022-09-26T10:30:09Z</time>
      </trkpt>
      <trkpt lat="45.85132" lon="5.83844">
        <ele>250.2</ele>
        <time>2022-09-26T10:30:10Z</time>
      </trkpt>
      <trkpt lat="45.85139" lon="5.83846">
        <ele>249.9</ele>
        <time>2022-09-26T10:30:11Z</time>
      </trkpt>
      <trkpt lat="45.85145" lon="5.83848">
        <ele>249.7</ele>
        <time>2022-09-26T10:30:12Z</time>
      </trkpt>
      <trkpt lat="45.85153" lon="5.8385">
        <ele>249.4</ele>
        <time>2022-09-26T10:30:13Z</time>
      </trkpt>
      <trkpt lat="45.8516" lon="5.83852">
        <ele>249</ele>
        <time>2022-09-26T10:30:14Z</time>
      </trkpt>
      <trkpt lat="45.85167" lon="5.83854">
        <ele>248.7</ele>
        <time>2022-09-26T10:30:15Z</time>
      </trkpt>
      <trkpt lat="45.85175" lon="5.83855">
        <ele>248.4</ele>
        <time>2022-09-26T10:30:16Z</time>
      </trkpt>
      <trkpt lat="45.85182" lon="5.83857">
        <ele>248.1</ele>
        <time>2022-09-26T10:30:17Z</time>
      </trkpt>
      <trkpt lat="45.85189" lon="5.83859">
        <ele>247.9</ele>
        <time>2022-09-26T10:30:18Z</time>
      </trkpt>
      <trkpt lat="45.85197" lon="5.83861">
        <ele>247.6</ele>
        <time>2022-09-26T10:30:19Z</time>
      </trkpt>
      <trkpt lat="45.85204" lon="5.83862">
        <ele>247.3</ele>
        <time>2022-09-26T10:30:20Z</time>
      </trkpt>
      <trkpt lat="45.85212" lon="5.83865">
        <ele>247.1</ele>
        <time>2022-09-26T10:30:21Z</time>
      </trkpt>
      <trkpt lat="45.85219" lon="5.83867">
        <ele>246.9</ele>
        <time>2022-09-26T10:30:22Z</time>
      </trkpt>
      <trkpt lat="45.85227" lon="5.8387">
        <ele>246.7</ele>
        <time>2022-09-26T10:30:23Z</time>
      </trkpt>
      <trkpt lat="45.85234" lon="5.83873">
        <ele>246.5</ele>
        <time>2022-09-26T10:30:24Z</time>
      </trkpt>
      <trkpt lat="45.85242" lon="5.83875">
        <ele>246.3</ele>
        <time>2022-09-26T10:30:25Z</time>
      </trkpt>
      <trkpt lat="45.85249" lon="5.83878">
        <ele>246.1</ele>
        <time>2022-09-26T10:30:26Z</time>
      </trkpt>
      <trkpt lat="45.85256" lon="5.83881">
        <ele>246</ele>
        <time>2022-09-26T10:30:27Z</time>
      </trkpt>
      <trkpt lat="45.85264" lon="5.83884">
        <ele>245.8</ele>
        <time>2022-09-26T10:30:28Z</time>
      </trkpt>
      <trkpt lat="45.85271" lon="5.83887">
        <ele>245.7</ele>
        <time>2022-09-26T10:30:29Z</time>
      </trkpt>
      <trkpt lat="45.85278" lon="5.8389">
        <ele>245.6</ele>
        <time>2022-09-26T10:30:30Z</time>
      </trkpt>
      <trkpt lat="45.85285" lon="5.83893">
        <ele>245.6</ele>
        <time>2022-09-26T10:30:31Z</time>
      </trkpt>
      <trkpt lat="45.85292" lon="5.83896">
        <ele>245.5</ele>
        <time>2022-09-26T10:30:32Z</time>
      </trkpt>
      <trkpt lat="45.85299" lon="5.83899">
        <ele>245.5</ele>
        <time>2022-09-26T10:30:33Z</time>
      </trkpt>
      <trkpt lat="45.85306" lon="5.83902">
        <ele>245.5</ele>
        <time>2022-09-26T10:30:34Z</time>
      </trkpt>
      <trkpt lat="45.85313" lon="5.83905">
        <ele>245.5</ele>
        <time>2022-09-26T10:30:35Z</time>
      </trkpt>
      <trkpt lat="45.8532" lon="5.83907">
        <ele>245.5</ele>
        <time>2022-09-26T10:30:36Z</time>
      </trkpt>
      <trkpt lat="45.85327" lon="5.8391">
        <ele>245.5</ele>
        <time>2022-09-26T10:30:37Z</time>
      </trkpt>
      <trkpt lat="45.85334" lon="5.83913">
        <ele>245.6</ele>
        <time>2022-09-26T10:30:38Z</time>
      </trkpt>
      <trkpt lat="45.8534" lon="5.83915">
        <ele>245.6</ele>
        <time>2022-09-26T10:30:39Z</time>
      </trkpt>
      <trkpt lat="45.85347" lon="5.83918">
        <ele>245.7</ele>
        <time>2022-09-26T10:30:40Z</time>
      </trkpt>
      <trkpt lat="45.85353" lon="5.8392">
        <ele>245.7</ele>
        <time>2022-09-26T10:30:41Z</time>
      </trkpt>
      <trkpt lat="45.85359" lon="5.83923">
        <ele>245.8</ele>
        <time>2022-09-26T10:30:42Z</time>
      </trkpt>
      <trkpt lat="45.85365" lon="5.83925">
        <ele>245.8</ele>
        <time>2022-09-26T10:30:43Z</time>
      </trkpt>
      <trkpt lat="45.85371" lon="5.83928">
        <ele>245.8</ele>
        <time>2022-09-26T10:30:44Z</time>
      </trkpt>
      <trkpt lat="45.85377" lon="5.8393">
        <ele>245.8</ele>
        <time>2022-09-26T10:30:45Z</time>
      </trkpt>
      <trkpt lat="45.85383" lon="5.83933">
        <ele>245.8</ele>
        <time>2022-09-26T10:30:46Z</time>
      </trkpt>
      <trkpt lat="45.85388" lon="5.83935">
        <ele>245.8</ele>
        <time>2022-09-26T10:30:47Z</time>
      </trkpt>
      <trkpt lat="45.85394" lon="5.83937">
        <ele>245.8</ele>
        <time>2022-09-26T10:30:48Z</time>
      </trkpt>
      <trkpt lat="45.85399" lon="5.8394">
        <ele>245.8</ele>
        <time>2022-09-26T10:30:49Z</time>
      </trkpt>
      <trkpt lat="45.85405" lon="5.83942">
        <ele>245.8</ele>
        <time>2022-09-26T10:30:50Z</time>
      </trkpt>
      <trkpt lat="45.85411" lon="5.83943">
        <ele>245.8</ele>
        <time>2022-09-26T10:30:51Z</time>
      </trkpt>
      <trkpt lat="45.85416" lon="5.83944">
        <ele>245.8</ele>
        <time>2022-09-26T10:30:52Z</time>
      </trkpt>
      <trkpt lat="45.85423" lon="5.83946">
        <ele>245.8</ele>
        <time>2022-09-26T10:30:53Z</time>
      </trkpt>
      <trkpt lat="45.85428" lon="5.8395">
        <ele>245.8</ele>
        <time>2022-09-26T10:30:54Z</time>
      </trkpt>
      <trkpt lat="45.85433" lon="5.83952">
        <ele>245.8</ele>
        <time>2022-09-26T10:30:55Z</time>
      </trkpt>
      <trkpt lat="45.85439" lon="5.83955">
        <ele>245.8</ele>
        <time>2022-09-26T10:30:56Z</time>
      </trkpt>
      <trkpt lat="45.85444" lon="5.83957">
        <ele>245.8</ele>
        <time>2022-09-26T10:30:57Z</time>
      </trkpt>
      <trkpt lat="45.8545" lon="5.8396">
        <ele>245.8</ele>
        <time>2022-09-26T10:30:58Z</time>
      </trkpt>
      <trkpt lat="45.85455" lon="5.83962">
        <ele>245.8</ele>
        <time>2022-09-26T10:30:59Z</time>
      </trkpt>
      <trkpt lat="45.8546" lon="5.83964">
        <ele>245.8</ele>
        <time>2022-09-26T10:31:00Z</time>
      </trkpt>
      <trkpt lat="45.85466" lon="5.83966">
        <ele>245.8</ele>
        <time>2022-09-26T10:31:01Z</time>
      </trkpt>
      <trkpt lat="45.85472" lon="5.83968">
        <ele>245.8</ele>
        <time>2022-09-26T10:31:02Z</time>
      </trkpt>
      <trkpt lat="45.85477" lon="5.8397">
        <ele>245.8</ele>
        <time>2022-09-26T10:31:03Z</time>
      </trkpt>
      <trkpt lat="45.85482" lon="5.83973">
        <ele>245.8</ele>
        <time>2022-09-26T10:31:04Z</time>
      </trkpt>
      <trkpt lat="45.85488" lon="5.83975">
        <ele>245.8</ele>
        <time>2022-09-26T10:31:05Z</time>
      </trkpt>
      <trkpt lat="45.85493" lon="5.83977">
        <ele>245.8</ele>
        <time>2022-09-26T10:31:06Z</time>
      </trkpt>
      <trkpt lat="45.85498" lon="5.83979">
        <ele>245.8</ele>
        <time>2022-09-26T10:31:07Z</time>
      </trkpt>
      <trkpt lat="45.85504" lon="5.83981">
        <ele>245.8</ele>
        <time>2022-09-26T10:31:08Z</time>
      </trkpt>
      <trkpt lat="45.85509" lon="5.83984">
        <ele>245.8</ele>
        <time>2022-09-26T10:31:09Z</time>
      </trkpt>
      <trkpt lat="45.85514" lon="5.83986">
        <ele>245.8</ele>
        <time>2022-09-26T10:31:10Z</time>
      </trkpt>
      <trkpt lat="45.8552" lon="5.83988">
        <ele>245.8</ele>
        <time>2022-09-26T10:31:11Z</time>
      </trkpt>
      <trkpt lat="45.85526" lon="5.8399">
        <ele>245.8</ele>
        <time>2022-09-26T10:31:12Z</time>
      </trkpt>
      <trkpt lat="45.85531" lon="5.83992">
        <ele>245.8</ele>
        <time>2022-09-26T10:31:13Z</time>
      </trkpt>
      <trkpt lat="45.85537" lon="5.83994">
        <ele>245.8</ele>
        <time>2022-09-26T10:31:14Z</time>
      </trkpt>
      <trkpt lat="45.85542" lon="5.83996">
        <ele>245.8</ele>
        <time>2022-09-26T10:31:15Z</time>
      </trkpt>
      <trkpt lat="45.85547" lon="5.83998">
        <ele>245.8</ele>
        <time>2022-09-26T10:31:16Z</time>
      </trkpt>
      <trkpt lat="45.85553" lon="5.84">
        <ele>245.8</ele>
        <time>2022-09-26T10:31:17Z</time>
      </trkpt>
      <trkpt lat="45.85558" lon="5.84003">
        <ele>245.8</ele>
        <time>2022-09-26T10:31:18Z</time>
      </trkpt>
      <trkpt lat="45.85563" lon="5.84005">
        <ele>245.8</ele>
        <time>2022-09-26T10:31:19Z</time>
      </trkpt>
      <trkpt lat="45.85568" lon="5.84007">
        <ele>245.9</ele>
        <time>2022-09-26T10:31:20Z</time>
      </trkpt>
      <trkpt lat="45.85572" lon="5.84009">
        <ele>245.9</ele>
        <time>2022-09-26T10:31:21Z</time>
      </trkpt>
      <trkpt lat="45.85577" lon="5.84011">
        <ele>245.9</ele>
        <time>2022-09-26T10:31:22Z</time>
      </trkpt>
      <trkpt lat="45.85583" lon="5.84013">
        <ele>246</ele>
        <time>2022-09-26T10:31:23Z</time>
      </trkpt>
      <trkpt lat="45.85588" lon="5.84015">
        <ele>246</ele>
        <time>2022-09-26T10:31:24Z</time>
      </trkpt>
      <trkpt lat="45.85593" lon="5.84017">
        <ele>246</ele>
        <time>2022-09-26T10:31:25Z</time>
      </trkpt>
      <trkpt lat="45.85598" lon="5.84019">
        <ele>246</ele>
        <time>2022-09-26T10:31:26Z</time>
      </trkpt>
      <trkpt lat="45.85603" lon="5.84021">
        <ele>246</ele>
        <time>2022-09-26T10:31:27Z</time>
      </trkpt>
      <trkpt lat="45.85608" lon="5.84023">
        <ele>246</ele>
        <time>2022-09-26T10:31:28Z</time>
      </trkpt>
      <trkpt lat="45.85613" lon="5.84025">
        <ele>245.9</ele>
        <time>2022-09-26T10:31:29Z</time>
      </trkpt>
      <trkpt lat="45.85618" lon="5.84028">
        <ele>245.9</ele>
        <time>2022-09-26T10:31:30Z</time>
      </trkpt>
      <trkpt lat="45.85623" lon="5.8403">
        <ele>245.9</ele>
        <time>2022-09-26T10:31:31Z</time>
      </trkpt>
      <trkpt lat="45.85628" lon="5.84032">
        <ele>245.8</ele>
        <time>2022-09-26T10:31:32Z</time>
      </trkpt>
      <trkpt lat="45.85633" lon="5.84035">
        <ele>245.8</ele>
        <time>2022-09-26T10:31:33Z</time>
      </trkpt>
      <trkpt lat="45.85639" lon="5.84037">
        <ele>245.8</ele>
        <time>2022-09-26T10:31:34Z</time>
      </trkpt>
      <trkpt lat="45.85644" lon="5.8404">
        <ele>245.7</ele>
        <time>2022-09-26T10:31:35Z</time>
      </trkpt>
      <trkpt lat="45.85649" lon="5.84043">
        <ele>245.6</ele>
        <time>2022-09-26T10:31:36Z</time>
      </trkpt>
      <trkpt lat="45.85654" lon="5.84046">
        <ele>245.6</ele>
        <time>2022-09-26T10:31:37Z</time>
      </trkpt>
      <trkpt lat="45.85659" lon="5.84049">
        <ele>245.5</ele>
        <time>2022-09-26T10:31:38Z</time>
      </trkpt>
      <trkpt lat="45.85664" lon="5.84051">
        <ele>245.5</ele>
        <time>2022-09-26T10:31:39Z</time>
      </trkpt>
      <trkpt lat="45.85669" lon="5.84054">
        <ele>245.4</ele>
        <time>2022-09-26T10:31:40Z</time>
      </trkpt>
      <trkpt lat="45.85674" lon="5.84057">
        <ele>245.4</ele>
        <time>2022-09-26T10:31:41Z</time>
      </trkpt>
      <trkpt lat="45.8568" lon="5.84059">
        <ele>245.3</ele>
        <time>2022-09-26T10:31:42Z</time>
      </trkpt>
      <trkpt lat="45.85685" lon="5.84062">
        <ele>245.3</ele>
        <time>2022-09-26T10:31:43Z</time>
      </trkpt>
      <trkpt lat="45.8569" lon="5.84065">
        <ele>245.2</ele>
        <time>2022-09-26T10:31:44Z</time>
      </trkpt>
      <trkpt lat="45.85695" lon="5.84067">
        <ele>245.2</ele>
        <time>2022-09-26T10:31:45Z</time>
      </trkpt>
      <trkpt lat="45.857" lon="5.8407">
        <ele>245.2</ele>
        <time>2022-09-26T10:31:46Z</time>
      </trkpt>
      <trkpt lat="45.85706" lon="5.84073">
        <ele>245.1</ele>
        <time>2022-09-26T10:31:47Z</time>
      </trkpt>
      <trkpt lat="45.85711" lon="5.84075">
        <ele>245.1</ele>
        <time>2022-09-26T10:31:48Z</time>
      </trkpt>
      <trkpt lat="45.85717" lon="5.84078">
        <ele>245.1</ele>
        <time>2022-09-26T10:31:49Z</time>
      </trkpt>
      <trkpt lat="45.85722" lon="5.8408">
        <ele>245</ele>
        <time>2022-09-26T10:31:50Z</time>
      </trkpt>
      <trkpt lat="45.85727" lon="5.84083">
        <ele>245</ele>
        <time>2022-09-26T10:31:51Z</time>
      </trkpt>
      <trkpt lat="45.85733" lon="5.84085">
        <ele>244.9</ele>
        <time>2022-09-26T10:31:52Z</time>
      </trkpt>
      <trkpt lat="45.85738" lon="5.84088">
        <ele>244.9</ele>
        <time>2022-09-26T10:31:53Z</time>
      </trkpt>
      <trkpt lat="45.85743" lon="5.8409">
        <ele>244.9</ele>
        <time>2022-09-26T10:31:54Z</time>
      </trkpt>
      <trkpt lat="45.85748" lon="5.84093">
        <ele>244.9</ele>
        <time>2022-09-26T10:31:55Z</time>
      </trkpt>
      <trkpt lat="45.85753" lon="5.84096">
        <ele>244.8</ele>
        <time>2022-09-26T10:31:56Z</time>
      </trkpt>
      <trkpt lat="45.85758" lon="5.84099">
        <ele>244.8</ele>
        <time>2022-09-26T10:31:57Z</time>
      </trkpt>
      <trkpt lat="45.85763" lon="5.84101">
        <ele>244.8</ele>
        <time>2022-09-26T10:31:58Z</time>
      </trkpt>
      <trkpt lat="45.85768" lon="5.84104">
        <ele>244.8</ele>
        <time>2022-09-26T10:31:59Z</time>
      </trkpt>
      <trkpt lat="45.85773" lon="5.84106">
        <ele>244.8</ele>
        <time>2022-09-26T10:32:00Z</time>
      </trkpt>
      <trkpt lat="45.85778" lon="5.84109">
        <ele>244.8</ele>
        <time>2022-09-26T10:32:01Z</time>
      </trkpt>
      <trkpt lat="45.85783" lon="5.84111">
        <ele>244.7</ele>
        <time>2022-09-26T10:32:02Z</time>
      </trkpt>
      <trkpt lat="45.85789" lon="5.84114">
        <ele>244.7</ele>
        <time>2022-09-26T10:32:03Z</time>
      </trkpt>
      <trkpt lat="45.85794" lon="5.84117">
        <ele>244.7</ele>
        <time>2022-09-26T10:32:04Z</time>
      </trkpt>
      <trkpt lat="45.85799" lon="5.84119">
        <ele>244.7</ele>
        <time>2022-09-26T10:32:05Z</time>
      </trkpt>
      <trkpt lat="45.85804" lon="5.84122">
        <ele>244.7</ele>
        <time>2022-09-26T10:32:06Z</time>
      </trkpt>
      <trkpt lat="45.85809" lon="5.84124">
        <ele>244.7</ele>
        <time>2022-09-26T10:32:07Z</time>
      </trkpt>
      <trkpt lat="45.85814" lon="5.84127">
        <ele>244.7</ele>
        <time>2022-09-26T10:32:08Z</time>
      </trkpt>
      <trkpt lat="45.8582" lon="5.8413">
        <ele>244.6</ele>
        <time>2022-09-26T10:32:09Z</time>
      </trkpt>
      <trkpt lat="45.85825" lon="5.84132">
        <ele>244.6</ele>
        <time>2022-09-26T10:32:10Z</time>
      </trkpt>
      <trkpt lat="45.8583" lon="5.84135">
        <ele>244.6</ele>
        <time>2022-09-26T10:32:11Z</time>
      </trkpt>
      <trkpt lat="45.85835" lon="5.84138">
        <ele>244.6</ele>
        <time>2022-09-26T10:32:12Z</time>
      </trkpt>
      <trkpt lat="45.85841" lon="5.8414">
        <ele>244.6</ele>
        <time>2022-09-26T10:32:13Z</time>
      </trkpt>
      <trkpt lat="45.85846" lon="5.84143">
        <ele>244.5</ele>
        <time>2022-09-26T10:32:14Z</time>
      </trkpt>
      <trkpt lat="45.85851" lon="5.84146">
        <ele>244.5</ele>
        <time>2022-09-26T10:32:15Z</time>
      </trkpt>
      <trkpt lat="45.85856" lon="5.84148">
        <ele>244.5</ele>
        <time>2022-09-26T10:32:16Z</time>
      </trkpt>
      <trkpt lat="45.85861" lon="5.84151">
        <ele>244.5</ele>
        <time>2022-09-26T10:32:17Z</time>
      </trkpt>
      <trkpt lat="45.85866" lon="5.84153">
        <ele>244.4</ele>
        <time>2022-09-26T10:32:18Z</time>
      </trkpt>
      <trkpt lat="45.85871" lon="5.84156">
        <ele>244.4</ele>
        <time>2022-09-26T10:32:19Z</time>
      </trkpt>
      <trkpt lat="45.85876" lon="5.84159">
        <ele>244.4</ele>
        <time>2022-09-26T10:32:20Z</time>
      </trkpt>
      <trkpt lat="45.85882" lon="5.84161">
        <ele>244.4</ele>
        <time>2022-09-26T10:32:21Z</time>
      </trkpt>
      <trkpt lat="45.85887" lon="5.84164">
        <ele>244.5</ele>
        <time>2022-09-26T10:32:22Z</time>
      </trkpt>
      <trkpt lat="45.85892" lon="5.84167">
        <ele>244.5</ele>
        <time>2022-09-26T10:32:23Z</time>
      </trkpt>
      <trkpt lat="45.85897" lon="5.84169">
        <ele>244.5</ele>
        <time>2022-09-26T10:32:24Z</time>
      </trkpt>
      <trkpt lat="45.85903" lon="5.84172">
        <ele>244.5</ele>
        <time>2022-09-26T10:32:25Z</time>
      </trkpt>
      <trkpt lat="45.85908" lon="5.84175">
        <ele>244.5</ele>
        <time>2022-09-26T10:32:26Z</time>
      </trkpt>
      <trkpt lat="45.85913" lon="5.84177">
        <ele>244.6</ele>
        <time>2022-09-26T10:32:27Z</time>
      </trkpt>
      <trkpt lat="45.85918" lon="5.8418">
        <ele>244.6</ele>
        <time>2022-09-26T10:32:28Z</time>
      </trkpt>
      <trkpt lat="45.85923" lon="5.84182">
        <ele>244.6</ele>
        <time>2022-09-26T10:32:29Z</time>
      </trkpt>
      <trkpt lat="45.85928" lon="5.84185">
        <ele>244.7</ele>
        <time>2022-09-26T10:32:30Z</time>
      </trkpt>
      <trkpt lat="45.85933" lon="5.84188">
        <ele>244.7</ele>
        <time>2022-09-26T10:32:31Z</time>
      </trkpt>
      <trkpt lat="45.85939" lon="5.8419">
        <ele>244.8</ele>
        <time>2022-09-26T10:32:32Z</time>
      </trkpt>
      <trkpt lat="45.85944" lon="5.84192">
        <ele>244.8</ele>
        <time>2022-09-26T10:32:33Z</time>
      </trkpt>
      <trkpt lat="45.85948" lon="5.84195">
        <ele>244.9</ele>
        <time>2022-09-26T10:32:34Z</time>
      </trkpt>
      <trkpt lat="45.85953" lon="5.84197">
        <ele>245</ele>
        <time>2022-09-26T10:32:35Z</time>
      </trkpt>
      <trkpt lat="45.85958" lon="5.84199">
        <ele>245</ele>
        <time>2022-09-26T10:32:36Z</time>
      </trkpt>
      <trkpt lat="45.85963" lon="5.84202">
        <ele>245.1</ele>
        <time>2022-09-26T10:32:37Z</time>
      </trkpt>
      <trkpt lat="45.85967" lon="5.84204">
        <ele>245.1</ele>
        <time>2022-09-26T10:32:38Z</time>
      </trkpt>
      <trkpt lat="45.85972" lon="5.84207">
        <ele>245.2</ele>
        <time>2022-09-26T10:32:39Z</time>
      </trkpt>
      <trkpt lat="45.85977" lon="5.84209">
        <ele>245.2</ele>
        <time>2022-09-26T10:32:40Z</time>
      </trkpt>
      <trkpt lat="45.85981" lon="5.84211">
        <ele>245.2</ele>
        <time>2022-09-26T10:32:41Z</time>
      </trkpt>
      <trkpt lat="45.85986" lon="5.84214">
        <ele>245.2</ele>
        <time>2022-09-26T10:32:42Z</time>
      </trkpt>
      <trkpt lat="45.85991" lon="5.84216">
        <ele>245.2</ele>
        <time>2022-09-26T10:32:43Z</time>
      </trkpt>
      <trkpt lat="45.85996" lon="5.84219">
        <ele>245.2</ele>
        <time>2022-09-26T10:32:44Z</time>
      </trkpt>
      <trkpt lat="45.86001" lon="5.84221">
        <ele>245.2</ele>
        <time>2022-09-26T10:32:45Z</time>
      </trkpt>
      <trkpt lat="45.86006" lon="5.84224">
        <ele>245.3</ele>
        <time>2022-09-26T10:32:46Z</time>
      </trkpt>
      <trkpt lat="45.86011" lon="5.84227">
        <ele>245.3</ele>
        <time>2022-09-26T10:32:47Z</time>
      </trkpt>
      <trkpt lat="45.86016" lon="5.8423">
        <ele>245.4</ele>
        <time>2022-09-26T10:32:48Z</time>
      </trkpt>
      <trkpt lat="45.86021" lon="5.84233">
        <ele>245.4</ele>
        <time>2022-09-26T10:32:49Z</time>
      </trkpt>
      <trkpt lat="45.86026" lon="5.84235">
        <ele>245.5</ele>
        <time>2022-09-26T10:32:50Z</time>
      </trkpt>
      <trkpt lat="45.86031" lon="5.84238">
        <ele>245.5</ele>
        <time>2022-09-26T10:32:51Z</time>
      </trkpt>
      <trkpt lat="45.86035" lon="5.84241">
        <ele>245.6</ele>
        <time>2022-09-26T10:32:52Z</time>
      </trkpt>
      <trkpt lat="45.8604" lon="5.84242">
        <ele>245.6</ele>
        <time>2022-09-26T10:32:53Z</time>
      </trkpt>
      <trkpt lat="45.86044" lon="5.84244">
        <ele>245.6</ele>
        <time>2022-09-26T10:32:54Z</time>
      </trkpt>
      <trkpt lat="45.86048" lon="5.84245">
        <ele>245.6</ele>
        <time>2022-09-26T10:32:55Z</time>
      </trkpt>
      <trkpt lat="45.86053" lon="5.84247">
        <ele>245.6</ele>
        <time>2022-09-26T10:32:56Z</time>
      </trkpt>
      <trkpt lat="45.86058" lon="5.8425">
        <ele>245.6</ele>
        <time>2022-09-26T10:32:57Z</time>
      </trkpt>
      <trkpt lat="45.86062" lon="5.84253">
        <ele>245.6</ele>
        <time>2022-09-26T10:32:58Z</time>
      </trkpt>
      <trkpt lat="45.86066" lon="5.84255">
        <ele>245.6</ele>
        <time>2022-09-26T10:32:59Z</time>
      </trkpt>
      <trkpt lat="45.86071" lon="5.84257">
        <ele>245.6</ele>
        <time>2022-09-26T10:33:00Z</time>
      </trkpt>
      <trkpt lat="45.86075" lon="5.84259">
        <ele>245.6</ele>
        <time>2022-09-26T10:33:01Z</time>
      </trkpt>
      <trkpt lat="45.8608" lon="5.84261">
        <ele>245.6</ele>
        <time>2022-09-26T10:33:02Z</time>
      </trkpt>
      <trkpt lat="45.86085" lon="5.84263">
        <ele>245.6</ele>
        <time>2022-09-26T10:33:03Z</time>
      </trkpt>
      <trkpt lat="45.86089" lon="5.84266">
        <ele>245.6</ele>
        <time>2022-09-26T10:33:04Z</time>
      </trkpt>
      <trkpt lat="45.86094" lon="5.84269">
        <ele>245.6</ele>
        <time>2022-09-26T10:33:05Z</time>
      </trkpt>
      <trkpt lat="45.86098" lon="5.84271">
        <ele>245.6</ele>
        <time>2022-09-26T10:33:06Z</time>
      </trkpt>
      <trkpt lat="45.86102" lon="5.84273">
        <ele>245.7</ele>
        <time>2022-09-26T10:33:07Z</time>
      </trkpt>
      <trkpt lat="45.86107" lon="5.84275">
        <ele>245.7</ele>
        <time>2022-09-26T10:33:08Z</time>
      </trkpt>
      <trkpt lat="45.86111" lon="5.84276">
        <ele>245.7</ele>
        <time>2022-09-26T10:33:09Z</time>
      </trkpt>
      <trkpt lat="45.86116" lon="5.84278">
        <ele>245.8</ele>
        <time>2022-09-26T10:33:10Z</time>
      </trkpt>
      <trkpt lat="45.8612" lon="5.84279">
        <ele>245.8</ele>
        <time>2022-09-26T10:33:11Z</time>
      </trkpt>
      <trkpt lat="45.86125" lon="5.8428">
        <ele>245.9</ele>
        <time>2022-09-26T10:33:12Z</time>
      </trkpt>
      <trkpt lat="45.86129" lon="5.84282">
        <ele>245.9</ele>
        <time>2022-09-26T10:33:13Z</time>
      </trkpt>
      <trkpt lat="45.86134" lon="5.84283">
        <ele>246</ele>
        <time>2022-09-26T10:33:14Z</time>
      </trkpt>
      <trkpt lat="45.86138" lon="5.84284">
        <ele>246</ele>
        <time>2022-09-26T10:33:15Z</time>
      </trkpt>
      <trkpt lat="45.86143" lon="5.84284">
        <ele>246</ele>
        <time>2022-09-26T10:33:16Z</time>
      </trkpt>
      <trkpt lat="45.86147" lon="5.84285">
        <ele>246</ele>
        <time>2022-09-26T10:33:17Z</time>
      </trkpt>
      <trkpt lat="45.86152" lon="5.84285">
        <ele>246</ele>
        <time>2022-09-26T10:33:18Z</time>
      </trkpt>
      <trkpt lat="45.86157" lon="5.84286">
        <ele>246</ele>
        <time>2022-09-26T10:33:19Z</time>
      </trkpt>
      <trkpt lat="45.86162" lon="5.84286">
        <ele>246</ele>
        <time>2022-09-26T10:33:20Z</time>
      </trkpt>
      <trkpt lat="45.86167" lon="5.84286">
        <ele>246</ele>
        <time>2022-09-26T10:33:21Z</time>
      </trkpt>
      <trkpt lat="45.86172" lon="5.84286">
        <ele>246</ele>
        <time>2022-09-26T10:33:22Z</time>
      </trkpt>
      <trkpt lat="45.86177" lon="5.84286">
        <ele>246</ele>
        <time>2022-09-26T10:33:23Z</time>
      </trkpt>
      <trkpt lat="45.86182" lon="5.84285">
        <ele>246</ele>
        <time>2022-09-26T10:33:24Z</time>
      </trkpt>
      <trkpt lat="45.86187" lon="5.84285">
        <ele>246</ele>
        <time>2022-09-26T10:33:25Z</time>
      </trkpt>
      <trkpt lat="45.86192" lon="5.84284">
        <ele>246</ele>
        <time>2022-09-26T10:33:26Z</time>
      </trkpt>
      <trkpt lat="45.86197" lon="5.84283">
        <ele>246</ele>
        <time>2022-09-26T10:33:27Z</time>
      </trkpt>
      <trkpt lat="45.86201" lon="5.84282">
        <ele>246</ele>
        <time>2022-09-26T10:33:28Z</time>
      </trkpt>
      <trkpt lat="45.86206" lon="5.84281">
        <ele>246</ele>
        <time>2022-09-26T10:33:29Z</time>
      </trkpt>
      <trkpt lat="45.86211" lon="5.8428">
        <ele>246</ele>
        <time>2022-09-26T10:33:30Z</time>
      </trkpt>
      <trkpt lat="45.86216" lon="5.84279">
        <ele>246.1</ele>
        <time>2022-09-26T10:33:31Z</time>
      </trkpt>
      <trkpt lat="45.86221" lon="5.84277">
        <ele>246.1</ele>
        <time>2022-09-26T10:33:32Z</time>
      </trkpt>
      <trkpt lat="45.86225" lon="5.84275">
        <ele>246.1</ele>
        <time>2022-09-26T10:33:33Z</time>
      </trkpt>
      <trkpt lat="45.8623" lon="5.84274">
        <ele>246.2</ele>
        <time>2022-09-26T10:33:34Z</time>
      </trkpt>
      <trkpt lat="45.86235" lon="5.84272">
        <ele>246.2</ele>
        <time>2022-09-26T10:33:35Z</time>
      </trkpt>
      <trkpt lat="45.8624" lon="5.84271">
        <ele>246.2</ele>
        <time>2022-09-26T10:33:36Z</time>
      </trkpt>
      <trkpt lat="45.86245" lon="5.84269">
        <ele>246.3</ele>
        <time>2022-09-26T10:33:37Z</time>
      </trkpt>
      <trkpt lat="45.8625" lon="5.84267">
        <ele>246.3</ele>
        <time>2022-09-26T10:33:38Z</time>
      </trkpt>
      <trkpt lat="45.86255" lon="5.84266">
        <ele>246.3</ele>
        <time>2022-09-26T10:33:39Z</time>
      </trkpt>
      <trkpt lat="45.86259" lon="5.84264">
        <ele>246.4</ele>
        <time>2022-09-26T10:33:40Z</time>
      </trkpt>
      <trkpt lat="45.86264" lon="5.84263">
        <ele>246.4</ele>
        <time>2022-09-26T10:33:41Z</time>
      </trkpt>
      <trkpt lat="45.86269" lon="5.84261">
        <ele>246.4</ele>
        <time>2022-09-26T10:33:42Z</time>
      </trkpt>
      <trkpt lat="45.86273" lon="5.84259">
        <ele>246.4</ele>
        <time>2022-09-26T10:33:43Z</time>
      </trkpt>
      <trkpt lat="45.86278" lon="5.84258">
        <ele>246.4</ele>
        <time>2022-09-26T10:33:44Z</time>
      </trkpt>
      <trkpt lat="45.86282" lon="5.84256">
        <ele>246.5</ele>
        <time>2022-09-26T10:33:45Z</time>
      </trkpt>
      <trkpt lat="45.86287" lon="5.84255">
        <ele>246.5</ele>
        <time>2022-09-26T10:33:46Z</time>
      </trkpt>
      <trkpt lat="45.86292" lon="5.84253">
        <ele>246.5</ele>
        <time>2022-09-26T10:33:47Z</time>
      </trkpt>
      <trkpt lat="45.86296" lon="5.84252">
        <ele>246.5</ele>
        <time>2022-09-26T10:33:48Z</time>
      </trkpt>
      <trkpt lat="45.86301" lon="5.8425">
        <ele>246.5</ele>
        <time>2022-09-26T10:33:49Z</time>
      </trkpt>
      <trkpt lat="45.86305" lon="5.84249">
        <ele>246.5</ele>
        <time>2022-09-26T10:33:50Z</time>
      </trkpt>
      <trkpt lat="45.8631" lon="5.84247">
        <ele>246.6</ele>
        <time>2022-09-26T10:33:51Z</time>
      </trkpt>
      <trkpt lat="45.86314" lon="5.84246">
        <ele>246.6</ele>
        <time>2022-09-26T10:33:52Z</time>
      </trkpt>
      <trkpt lat="45.86319" lon="5.84245">
        <ele>246.6</ele>
        <time>2022-09-26T10:33:53Z</time>
      </trkpt>
      <trkpt lat="45.86323" lon="5.84243">
        <ele>246.6</ele>
        <time>2022-09-26T10:33:54Z</time>
      </trkpt>
      <trkpt lat="45.86328" lon="5.84241">
        <ele>246.7</ele>
        <time>2022-09-26T10:33:55Z</time>
      </trkpt>
      <trkpt lat="45.86333" lon="5.8424">
        <ele>246.7</ele>
        <time>2022-09-26T10:33:56Z</time>
      </trkpt>
      <trkpt lat="45.86337" lon="5.84238">
        <ele>246.7</ele>
        <time>2022-09-26T10:33:57Z</time>
      </trkpt>
      <trkpt lat="45.86342" lon="5.84237">
        <ele>246.8</ele>
        <time>2022-09-26T10:33:58Z</time>
      </trkpt>
      <trkpt lat="45.86347" lon="5.84235">
        <ele>246.8</ele>
        <time>2022-09-26T10:33:59Z</time>
      </trkpt>
      <trkpt lat="45.86351" lon="5.84234">
        <ele>246.9</ele>
        <time>2022-09-26T10:34:00Z</time>
      </trkpt>
      <trkpt lat="45.86356" lon="5.84232">
        <ele>246.9</ele>
        <time>2022-09-26T10:34:01Z</time>
      </trkpt>
      <trkpt lat="45.8636" lon="5.8423">
        <ele>247</ele>
        <time>2022-09-26T10:34:02Z</time>
      </trkpt>
      <trkpt lat="45.86364" lon="5.84229">
        <ele>247.1</ele>
        <time>2022-09-26T10:34:03Z</time>
      </trkpt>
      <trkpt lat="45.86369" lon="5.84227">
        <ele>247.1</ele>
        <time>2022-09-26T10:34:04Z</time>
      </trkpt>
      <trkpt lat="45.86373" lon="5.84225">
        <ele>247.2</ele>
        <time>2022-09-26T10:34:05Z</time>
      </trkpt>
      <trkpt lat="45.86377" lon="5.84224">
        <ele>247.2</ele>
        <time>2022-09-26T10:34:06Z</time>
      </trkpt>
      <trkpt lat="45.86382" lon="5.84223">
        <ele>247.3</ele>
        <time>2022-09-26T10:34:07Z</time>
      </trkpt>
      <trkpt lat="45.86386" lon="5.84221">
        <ele>247.3</ele>
        <time>2022-09-26T10:34:08Z</time>
      </trkpt>
      <trkpt lat="45.86391" lon="5.8422">
        <ele>247.3</ele>
        <time>2022-09-26T10:34:09Z</time>
      </trkpt>
      <trkpt lat="45.86395" lon="5.84218">
        <ele>247.3</ele>
        <time>2022-09-26T10:34:10Z</time>
      </trkpt>
      <trkpt lat="45.864" lon="5.84217">
        <ele>247.4</ele>
        <time>2022-09-26T10:34:11Z</time>
      </trkpt>
      <trkpt lat="45.86404" lon="5.84215">
        <ele>247.4</ele>
        <time>2022-09-26T10:34:12Z</time>
      </trkpt>
      <trkpt lat="45.86409" lon="5.84214">
        <ele>247.4</ele>
        <time>2022-09-26T10:34:13Z</time>
      </trkpt>
      <trkpt lat="45.86413" lon="5.84214">
        <ele>247.5</ele>
        <time>2022-09-26T10:34:14Z</time>
      </trkpt>
      <trkpt lat="45.86418" lon="5.84213">
        <ele>247.5</ele>
        <time>2022-09-26T10:34:15Z</time>
      </trkpt>
      <trkpt lat="45.86423" lon="5.84212">
        <ele>247.5</ele>
        <time>2022-09-26T10:34:16Z</time>
      </trkpt>
      <trkpt lat="45.86427" lon="5.84211">
        <ele>247.5</ele>
        <time>2022-09-26T10:34:17Z</time>
      </trkpt>
      <trkpt lat="45.86432" lon="5.84211">
        <ele>247.6</ele>
        <time>2022-09-26T10:34:18Z</time>
      </trkpt>
      <trkpt lat="45.86436" lon="5.84211">
        <ele>247.6</ele>
        <time>2022-09-26T10:34:19Z</time>
      </trkpt>
      <trkpt lat="45.8644" lon="5.84211">
        <ele>247.6</ele>
        <time>2022-09-26T10:34:20Z</time>
      </trkpt>
      <trkpt lat="45.86444" lon="5.8421">
        <ele>247.6</ele>
        <time>2022-09-26T10:34:21Z</time>
      </trkpt>
      <trkpt lat="45.86449" lon="5.8421">
        <ele>247.6</ele>
        <time>2022-09-26T10:34:22Z</time>
      </trkpt>
      <trkpt lat="45.86453" lon="5.8421">
        <ele>247.7</ele>
        <time>2022-09-26T10:34:23Z</time>
      </trkpt>
      <trkpt lat="45.86458" lon="5.8421">
        <ele>247.7</ele>
        <time>2022-09-26T10:34:24Z</time>
      </trkpt>
      <trkpt lat="45.86462" lon="5.8421">
        <ele>247.7</ele>
        <time>2022-09-26T10:34:25Z</time>
      </trkpt>
      <trkpt lat="45.86467" lon="5.84209">
        <ele>247.7</ele>
        <time>2022-09-26T10:34:26Z</time>
      </trkpt>
      <trkpt lat="45.86471" lon="5.8421">
        <ele>247.7</ele>
        <time>2022-09-26T10:34:27Z</time>
      </trkpt>
      <trkpt lat="45.86475" lon="5.84211">
        <ele>247.7</ele>
        <time>2022-09-26T10:34:28Z</time>
      </trkpt>
      <trkpt lat="45.8648" lon="5.84212">
        <ele>247.7</ele>
        <time>2022-09-26T10:34:29Z</time>
      </trkpt>
      <trkpt lat="45.86485" lon="5.84213">
        <ele>247.7</ele>
        <time>2022-09-26T10:34:30Z</time>
      </trkpt>
      <trkpt lat="45.86489" lon="5.84214">
        <ele>247.7</ele>
        <time>2022-09-26T10:34:31Z</time>
      </trkpt>
      <trkpt lat="45.86493" lon="5.84216">
        <ele>247.7</ele>
        <time>2022-09-26T10:34:32Z</time>
      </trkpt>
      <trkpt lat="45.86498" lon="5.84217">
        <ele>247.7</ele>
        <time>2022-09-26T10:34:33Z</time>
      </trkpt>
      <trkpt lat="45.86503" lon="5.84218">
        <ele>247.6</ele>
        <time>2022-09-26T10:34:34Z</time>
      </trkpt>
      <trkpt lat="45.86507" lon="5.8422">
        <ele>247.6</ele>
        <time>2022-09-26T10:34:35Z</time>
      </trkpt>
      <trkpt lat="45.86512" lon="5.84221">
        <ele>247.6</ele>
        <time>2022-09-26T10:34:36Z</time>
      </trkpt>
      <trkpt lat="45.86516" lon="5.84223">
        <ele>247.6</ele>
        <time>2022-09-26T10:34:37Z</time>
      </trkpt>
      <trkpt lat="45.86521" lon="5.84224">
        <ele>247.6</ele>
        <time>2022-09-26T10:34:38Z</time>
      </trkpt>
      <trkpt lat="45.86526" lon="5.84226">
        <ele>247.5</ele>
        <time>2022-09-26T10:34:39Z</time>
      </trkpt>
      <trkpt lat="45.86531" lon="5.84227">
        <ele>247.5</ele>
        <time>2022-09-26T10:34:40Z</time>
      </trkpt>
      <trkpt lat="45.86536" lon="5.84229">
        <ele>247.5</ele>
        <time>2022-09-26T10:34:41Z</time>
      </trkpt>
      <trkpt lat="45.86541" lon="5.8423">
        <ele>247.4</ele>
        <time>2022-09-26T10:34:42Z</time>
      </trkpt>
      <trkpt lat="45.86546" lon="5.84232">
        <ele>247.4</ele>
        <time>2022-09-26T10:34:43Z</time>
      </trkpt>
      <trkpt lat="45.86551" lon="5.84234">
        <ele>247.3</ele>
        <time>2022-09-26T10:34:44Z</time>
      </trkpt>
      <trkpt lat="45.86556" lon="5.84236">
        <ele>247.2</ele>
        <time>2022-09-26T10:34:45Z</time>
      </trkpt>
      <trkpt lat="45.86561" lon="5.84238">
        <ele>247.1</ele>
        <time>2022-09-26T10:34:46Z</time>
      </trkpt>
      <trkpt lat="45.86566" lon="5.84239">
        <ele>247</ele>
        <time>2022-09-26T10:34:47Z</time>
      </trkpt>
      <trkpt lat="45.86572" lon="5.84241">
        <ele>246.9</ele>
        <time>2022-09-26T10:34:48Z</time>
      </trkpt>
      <trkpt lat="45.86577" lon="5.84243">
        <ele>246.9</ele>
        <time>2022-09-26T10:34:49Z</time>
      </trkpt>
      <trkpt lat="45.86582" lon="5.84245">
        <ele>246.8</ele>
        <time>2022-09-26T10:34:50Z</time>
      </trkpt>
      <trkpt lat="45.86588" lon="5.84247">
        <ele>246.7</ele>
        <time>2022-09-26T10:34:51Z</time>
      </trkpt>
      <trkpt lat="45.86594" lon="5.84249">
        <ele>246.6</ele>
        <time>2022-09-26T10:34:52Z</time>
      </trkpt>
      <trkpt lat="45.86599" lon="5.84251">
        <ele>246.5</ele>
        <time>2022-09-26T10:34:53Z</time>
      </trkpt>
      <trkpt lat="45.86605" lon="5.84253">
        <ele>246.4</ele>
        <time>2022-09-26T10:34:54Z</time>
      </trkpt>
      <trkpt lat="45.8661" lon="5.84255">
        <ele>246.3</ele>
        <time>2022-09-26T10:34:55Z</time>
      </trkpt>
      <trkpt lat="45.86616" lon="5.84257">
        <ele>246.2</ele>
        <time>2022-09-26T10:34:56Z</time>
      </trkpt>
      <trkpt lat="45.86622" lon="5.84259">
        <ele>246.1</ele>
        <time>2022-09-26T10:34:57Z</time>
      </trkpt>
      <trkpt lat="45.86628" lon="5.84261">
        <ele>246.1</ele>
        <time>2022-09-26T10:34:58Z</time>
      </trkpt>
      <trkpt lat="45.86634" lon="5.84263">
        <ele>246</ele>
        <time>2022-09-26T10:34:59Z</time>
      </trkpt>
      <trkpt lat="45.8664" lon="5.84265">
        <ele>245.9</ele>
        <time>2022-09-26T10:35:00Z</time>
      </trkpt>
      <trkpt lat="45.86645" lon="5.84266">
        <ele>245.8</ele>
        <time>2022-09-26T10:35:01Z</time>
      </trkpt>
      <trkpt lat="45.86651" lon="5.84268">
        <ele>245.8</ele>
        <time>2022-09-26T10:35:02Z</time>
      </trkpt>
      <trkpt lat="45.86657" lon="5.8427">
        <ele>245.7</ele>
        <time>2022-09-26T10:35:03Z</time>
      </trkpt>
      <trkpt lat="45.86662" lon="5.84272">
        <ele>245.7</ele>
        <time>2022-09-26T10:35:04Z</time>
      </trkpt>
      <trkpt lat="45.86668" lon="5.84273">
        <ele>245.6</ele>
        <time>2022-09-26T10:35:05Z</time>
      </trkpt>
      <trkpt lat="45.86673" lon="5.84275">
        <ele>245.5</ele>
        <time>2022-09-26T10:35:06Z</time>
      </trkpt>
      <trkpt lat="45.86678" lon="5.84277">
        <ele>245.5</ele>
        <time>2022-09-26T10:35:07Z</time>
      </trkpt>
      <trkpt lat="45.86684" lon="5.84279">
        <ele>245.4</ele>
        <time>2022-09-26T10:35:08Z</time>
      </trkpt>
      <trkpt lat="45.86689" lon="5.8428">
        <ele>245.4</ele>
        <time>2022-09-26T10:35:09Z</time>
      </trkpt>
      <trkpt lat="45.86693" lon="5.84281">
        <ele>245.3</ele>
        <time>2022-09-26T10:35:10Z</time>
      </trkpt>
      <trkpt lat="45.86698" lon="5.84283">
        <ele>245.2</ele>
        <time>2022-09-26T10:35:11Z</time>
      </trkpt>
      <trkpt lat="45.86703" lon="5.84284">
        <ele>245.1</ele>
        <time>2022-09-26T10:35:12Z</time>
      </trkpt>
      <trkpt lat="45.86708" lon="5.84286">
        <ele>245</ele>
        <time>2022-09-26T10:35:13Z</time>
      </trkpt>
      <trkpt lat="45.86713" lon="5.84287">
        <ele>245</ele>
        <time>2022-09-26T10:35:14Z</time>
      </trkpt>
      <trkpt lat="45.86719" lon="5.84288">
        <ele>244.9</ele>
        <time>2022-09-26T10:35:15Z</time>
      </trkpt>
      <trkpt lat="45.86724" lon="5.84289">
        <ele>244.8</ele>
        <time>2022-09-26T10:35:16Z</time>
      </trkpt>
      <trkpt lat="45.8673" lon="5.8429">
        <ele>244.8</ele>
        <time>2022-09-26T10:35:17Z</time>
      </trkpt>
      <trkpt lat="45.86735" lon="5.84291">
        <ele>244.7</ele>
        <time>2022-09-26T10:35:18Z</time>
      </trkpt>
      <trkpt lat="45.86741" lon="5.84291">
        <ele>244.7</ele>
        <time>2022-09-26T10:35:19Z</time>
      </trkpt>
      <trkpt lat="45.86746" lon="5.84291">
        <ele>244.7</ele>
        <time>2022-09-26T10:35:20Z</time>
      </trkpt>
      <trkpt lat="45.86751" lon="5.8429">
        <ele>244.6</ele>
        <time>2022-09-26T10:35:21Z</time>
      </trkpt>
      <trkpt lat="45.86756" lon="5.8429">
        <ele>244.6</ele>
        <time>2022-09-26T10:35:22Z</time>
      </trkpt>
      <trkpt lat="45.86761" lon="5.84291">
        <ele>244.6</ele>
        <time>2022-09-26T10:35:23Z</time>
      </trkpt>
      <trkpt lat="45.86767" lon="5.84291">
        <ele>244.6</ele>
        <time>2022-09-26T10:35:24Z</time>
      </trkpt>
      <trkpt lat="45.86772" lon="5.84291">
        <ele>244.5</ele>
        <time>2022-09-26T10:35:25Z</time>
      </trkpt>
      <trkpt lat="45.86777" lon="5.8429">
        <ele>244.5</ele>
        <time>2022-09-26T10:35:26Z</time>
      </trkpt>
      <trkpt lat="45.86782" lon="5.84291">
        <ele>244.5</ele>
        <time>2022-09-26T10:35:27Z</time>
      </trkpt>
      <trkpt lat="45.86787" lon="5.84291">
        <ele>244.5</ele>
        <time>2022-09-26T10:35:28Z</time>
      </trkpt>
      <trkpt lat="45.86792" lon="5.84291">
        <ele>244.5</ele>
        <time>2022-09-26T10:35:29Z</time>
      </trkpt>
      <trkpt lat="45.86796" lon="5.84291">
        <ele>244.4</ele>
        <time>2022-09-26T10:35:30Z</time>
      </trkpt>
      <trkpt lat="45.86801" lon="5.84291">
        <ele>244.4</ele>
        <time>2022-09-26T10:35:31Z</time>
      </trkpt>
      <trkpt lat="45.86806" lon="5.84291">
        <ele>244.4</ele>
        <time>2022-09-26T10:35:32Z</time>
      </trkpt>
      <trkpt lat="45.86811" lon="5.84291">
        <ele>244.4</ele>
        <time>2022-09-26T10:35:33Z</time>
      </trkpt>
      <trkpt lat="45.86817" lon="5.84291">
        <ele>244.4</ele>
        <time>2022-09-26T10:35:34Z</time>
      </trkpt>
      <trkpt lat="45.86822" lon="5.84291">
        <ele>244.4</ele>
        <time>2022-09-26T10:35:35Z</time>
      </trkpt>
      <trkpt lat="45.86827" lon="5.84291">
        <ele>244.4</ele>
        <time>2022-09-26T10:35:36Z</time>
      </trkpt>
      <trkpt lat="45.86832" lon="5.84291">
        <ele>244.4</ele>
        <time>2022-09-26T10:35:37Z</time>
      </trkpt>
      <trkpt lat="45.86838" lon="5.8429">
        <ele>244.4</ele>
        <time>2022-09-26T10:35:38Z</time>
      </trkpt>
      <trkpt lat="45.86843" lon="5.8429">
        <ele>244.5</ele>
        <time>2022-09-26T10:35:39Z</time>
      </trkpt>
      <trkpt lat="45.86849" lon="5.8429">
        <ele>244.5</ele>
        <time>2022-09-26T10:35:40Z</time>
      </trkpt>
      <trkpt lat="45.86854" lon="5.8429">
        <ele>244.6</ele>
        <time>2022-09-26T10:35:41Z</time>
      </trkpt>
      <trkpt lat="45.86859" lon="5.8429">
        <ele>244.7</ele>
        <time>2022-09-26T10:35:42Z</time>
      </trkpt>
      <trkpt lat="45.86864" lon="5.8429">
        <ele>244.8</ele>
        <time>2022-09-26T10:35:43Z</time>
      </trkpt>
      <trkpt lat="45.8687" lon="5.84291">
        <ele>244.9</ele>
        <time>2022-09-26T10:35:44Z</time>
      </trkpt>
      <trkpt lat="45.86875" lon="5.84291">
        <ele>245.1</ele>
        <time>2022-09-26T10:35:45Z</time>
      </trkpt>
      <trkpt lat="45.8688" lon="5.8429">
        <ele>245.2</ele>
        <time>2022-09-26T10:35:46Z</time>
      </trkpt>
      <trkpt lat="45.86885" lon="5.84291">
        <ele>245.3</ele>
        <time>2022-09-26T10:35:47Z</time>
      </trkpt>
      <trkpt lat="45.8689" lon="5.84291">
        <ele>245.5</ele>
        <time>2022-09-26T10:35:48Z</time>
      </trkpt>
      <trkpt lat="45.86895" lon="5.84291">
        <ele>245.6</ele>
        <time>2022-09-26T10:35:49Z</time>
      </trkpt>
      <trkpt lat="45.86899" lon="5.84291">
        <ele>245.8</ele>
        <time>2022-09-26T10:35:50Z</time>
      </trkpt>
      <trkpt lat="45.86903" lon="5.84291">
        <ele>245.9</ele>
        <time>2022-09-26T10:35:51Z</time>
      </trkpt>
      <trkpt lat="45.86907" lon="5.84291">
        <ele>246</ele>
        <time>2022-09-26T10:35:52Z</time>
      </trkpt>
      <trkpt lat="45.86912" lon="5.84291">
        <ele>246.2</ele>
        <time>2022-09-26T10:35:53Z</time>
      </trkpt>
      <trkpt lat="45.86916" lon="5.84291">
        <ele>246.3</ele>
        <time>2022-09-26T10:35:54Z</time>
      </trkpt>
      <trkpt lat="45.8692" lon="5.84291">
        <ele>246.5</ele>
        <time>2022-09-26T10:35:55Z</time>
      </trkpt>
      <trkpt lat="45.86924" lon="5.84292">
        <ele>246.6</ele>
        <time>2022-09-26T10:35:56Z</time>
      </trkpt>
      <trkpt lat="45.86928" lon="5.84292">
        <ele>246.7</ele>
        <time>2022-09-26T10:35:57Z</time>
      </trkpt>
      <trkpt lat="45.86931" lon="5.84292">
        <ele>246.9</ele>
        <time>2022-09-26T10:35:58Z</time>
      </trkpt>
      <trkpt lat="45.86935" lon="5.84292">
        <ele>247</ele>
        <time>2022-09-26T10:35:59Z</time>
      </trkpt>
      <trkpt lat="45.86939" lon="5.84292">
        <ele>247.1</ele>
        <time>2022-09-26T10:36:00Z</time>
      </trkpt>
      <trkpt lat="45.86942" lon="5.84292">
        <ele>247.2</ele>
        <time>2022-09-26T10:36:01Z</time>
      </trkpt>
      <trkpt lat="45.86946" lon="5.84292">
        <ele>247.3</ele>
        <time>2022-09-26T10:36:02Z</time>
      </trkpt>
      <trkpt lat="45.8695" lon="5.84292">
        <ele>247.5</ele>
        <time>2022-09-26T10:36:03Z</time>
      </trkpt>
      <trkpt lat="45.86953" lon="5.84292">
        <ele>247.6</ele>
        <time>2022-09-26T10:36:04Z</time>
      </trkpt>
      <trkpt lat="45.86956" lon="5.84292">
        <ele>247.7</ele>
        <time>2022-09-26T10:36:05Z</time>
      </trkpt>
      <trkpt lat="45.86959" lon="5.84291">
        <ele>247.8</ele>
        <time>2022-09-26T10:36:06Z</time>
      </trkpt>
      <trkpt lat="45.86963" lon="5.84291">
        <ele>247.9</ele>
        <time>2022-09-26T10:36:07Z</time>
      </trkpt>
      <trkpt lat="45.86966" lon="5.84292">
        <ele>248</ele>
        <time>2022-09-26T10:36:08Z</time>
      </trkpt>
      <trkpt lat="45.86969" lon="5.84292">
        <ele>248.1</ele>
        <time>2022-09-26T10:36:09Z</time>
      </trkpt>
      <trkpt lat="45.86973" lon="5.84292">
        <ele>248.2</ele>
        <time>2022-09-26T10:36:10Z</time>
      </trkpt>
      <trkpt lat="45.86976" lon="5.84292">
        <ele>248.3</ele>
        <time>2022-09-26T10:36:11Z</time>
      </trkpt>
      <trkpt lat="45.86979" lon="5.84292">
        <ele>248.4</ele>
        <time>2022-09-26T10:36:12Z</time>
      </trkpt>
      <trkpt lat="45.86983" lon="5.84292">
        <ele>248.5</ele>
        <time>2022-09-26T10:36:13Z</time>
      </trkpt>
      <trkpt lat="45.86986" lon="5.84292">
        <ele>248.6</ele>
        <time>2022-09-26T10:36:14Z</time>
      </trkpt>
      <trkpt lat="45.86989" lon="5.84292">
        <ele>248.7</ele>
        <time>2022-09-26T10:36:15Z</time>
      </trkpt>
      <trkpt lat="45.86992" lon="5.84293">
        <ele>248.8</ele>
        <time>2022-09-26T10:36:16Z</time>
      </trkpt>
      <trkpt lat="45.86996" lon="5.84293">
        <ele>248.9</ele>
        <time>2022-09-26T10:36:17Z</time>
      </trkpt>
      <trkpt lat="45.86999" lon="5.84293">
        <ele>249</ele>
        <time>2022-09-26T10:36:18Z</time>
      </trkpt>
      <trkpt lat="45.87002" lon="5.84293">
        <ele>249.1</ele>
        <time>2022-09-26T10:36:19Z</time>
      </trkpt>
      <trkpt lat="45.87005" lon="5.84293">
        <ele>249.2</ele>
        <time>2022-09-26T10:36:20Z</time>
      </trkpt>
      <trkpt lat="45.87009" lon="5.84293">
        <ele>249.4</ele>
        <time>2022-09-26T10:36:21Z</time>
      </trkpt>
      <trkpt lat="45.87012" lon="5.84293">
        <ele>249.5</ele>
        <time>2022-09-26T10:36:22Z</time>
      </trkpt>
      <trkpt lat="45.87015" lon="5.84293">
        <ele>249.5</ele>
        <time>2022-09-26T10:36:23Z</time>
      </trkpt>
      <trkpt lat="45.87018" lon="5.84293">
        <ele>249.6</ele>
        <time>2022-09-26T10:36:24Z</time>
      </trkpt>
      <trkpt lat="45.87021" lon="5.84293">
        <ele>249.7</ele>
        <time>2022-09-26T10:36:25Z</time>
      </trkpt>
      <trkpt lat="45.87024" lon="5.84293">
        <ele>249.8</ele>
        <time>2022-09-26T10:36:26Z</time>
      </trkpt>
      <trkpt lat="45.87027" lon="5.84293">
        <ele>249.9</ele>
        <time>2022-09-26T10:36:27Z</time>
      </trkpt>
      <trkpt lat="45.8703" lon="5.84294">
        <ele>250</ele>
        <time>2022-09-26T10:36:28Z</time>
      </trkpt>
      <trkpt lat="45.87033" lon="5.84294">
        <ele>250.1</ele>
        <time>2022-09-26T10:36:29Z</time>
      </trkpt>
      <trkpt lat="45.87036" lon="5.84294">
        <ele>250.1</ele>
        <time>2022-09-26T10:36:30Z</time>
      </trkpt>
      <trkpt lat="45.87039" lon="5.84294">
        <ele>250.2</ele>
        <time>2022-09-26T10:36:31Z</time>
      </trkpt>
      <trkpt lat="45.87042" lon="5.84294">
        <ele>250.2</ele>
        <time>2022-09-26T10:36:32Z</time>
      </trkpt>
      <trkpt lat="45.87045" lon="5.84294">
        <ele>250.3</ele>
        <time>2022-09-26T10:36:33Z</time>
      </trkpt>
      <trkpt lat="45.87048" lon="5.84295">
        <ele>250.3</ele>
        <time>2022-09-26T10:36:34Z</time>
      </trkpt>
      <trkpt lat="45.8705" lon="5.84295">
        <ele>250.4</ele>
        <time>2022-09-26T10:36:35Z</time>
      </trkpt>
      <trkpt lat="45.87054" lon="5.84296">
        <ele>250.4</ele>
        <time>2022-09-26T10:36:36Z</time>
      </trkpt>
      <trkpt lat="45.87057" lon="5.84297">
        <ele>250.5</ele>
        <time>2022-09-26T10:36:37Z</time>
      </trkpt>
      <trkpt lat="45.8706" lon="5.84298">
        <ele>250.5</ele>
        <time>2022-09-26T10:36:38Z</time>
      </trkpt>
      <trkpt lat="45.87063" lon="5.84299">
        <ele>250.6</ele>
        <time>2022-09-26T10:36:39Z</time>
      </trkpt>
      <trkpt lat="45.87067" lon="5.843">
        <ele>250.6</ele>
        <time>2022-09-26T10:36:40Z</time>
      </trkpt>
      <trkpt lat="45.8707" lon="5.843">
        <ele>250.7</ele>
        <time>2022-09-26T10:36:41Z</time>
      </trkpt>
      <trkpt lat="45.87073" lon="5.84301">
        <ele>250.7</ele>
        <time>2022-09-26T10:36:42Z</time>
      </trkpt>
      <trkpt lat="45.87077" lon="5.84302">
        <ele>250.7</ele>
        <time>2022-09-26T10:36:43Z</time>
      </trkpt>
      <trkpt lat="45.87081" lon="5.84303">
        <ele>250.7</ele>
        <time>2022-09-26T10:36:44Z</time>
      </trkpt>
      <trkpt lat="45.87084" lon="5.84304">
        <ele>250.7</ele>
        <time>2022-09-26T10:36:45Z</time>
      </trkpt>
      <trkpt lat="45.87088" lon="5.84305">
        <ele>250.7</ele>
        <time>2022-09-26T10:36:46Z</time>
      </trkpt>
      <trkpt lat="45.87092" lon="5.84306">
        <ele>250.7</ele>
        <time>2022-09-26T10:36:47Z</time>
      </trkpt>
      <trkpt lat="45.87097" lon="5.84307">
        <ele>250.6</ele>
        <time>2022-09-26T10:36:48Z</time>
      </trkpt>
      <trkpt lat="45.87101" lon="5.84309">
        <ele>250.6</ele>
        <time>2022-09-26T10:36:49Z</time>
      </trkpt>
      <trkpt lat="45.87105" lon="5.8431">
        <ele>250.5</ele>
        <time>2022-09-26T10:36:50Z</time>
      </trkpt>
      <trkpt lat="45.8711" lon="5.84312">
        <ele>250.5</ele>
        <time>2022-09-26T10:36:51Z</time>
      </trkpt>
      <trkpt lat="45.87114" lon="5.84313">
        <ele>250.4</ele>
        <time>2022-09-26T10:36:52Z</time>
      </trkpt>
      <trkpt lat="45.87118" lon="5.84314">
        <ele>250.4</ele>
        <time>2022-09-26T10:36:53Z</time>
      </trkpt>
      <trkpt lat="45.87123" lon="5.84316">
        <ele>250.3</ele>
        <time>2022-09-26T10:36:54Z</time>
      </trkpt>
      <trkpt lat="45.87127" lon="5.84317">
        <ele>250.3</ele>
        <time>2022-09-26T10:36:55Z</time>
      </trkpt>
      <trkpt lat="45.87132" lon="5.84318">
        <ele>250.2</ele>
        <time>2022-09-26T10:36:56Z</time>
      </trkpt>
      <trkpt lat="45.87136" lon="5.84319">
        <ele>250.2</ele>
        <time>2022-09-26T10:36:57Z</time>
      </trkpt>
      <trkpt lat="45.87141" lon="5.8432">
        <ele>250.1</ele>
        <time>2022-09-26T10:36:58Z</time>
      </trkpt>
      <trkpt lat="45.87145" lon="5.84322">
        <ele>250.1</ele>
        <time>2022-09-26T10:36:59Z</time>
      </trkpt>
      <trkpt lat="45.8715" lon="5.84323">
        <ele>250</ele>
        <time>2022-09-26T10:37:00Z</time>
      </trkpt>
      <trkpt lat="45.87154" lon="5.84324">
        <ele>250</ele>
        <time>2022-09-26T10:37:01Z</time>
      </trkpt>
      <trkpt lat="45.87158" lon="5.84325">
        <ele>250</ele>
        <time>2022-09-26T10:37:02Z</time>
      </trkpt>
      <trkpt lat="45.87163" lon="5.84327">
        <ele>249.9</ele>
        <time>2022-09-26T10:37:03Z</time>
      </trkpt>
      <trkpt lat="45.87168" lon="5.84328">
        <ele>249.9</ele>
        <time>2022-09-26T10:37:04Z</time>
      </trkpt>
      <trkpt lat="45.87172" lon="5.8433">
        <ele>249.9</ele>
        <time>2022-09-26T10:37:05Z</time>
      </trkpt>
      <trkpt lat="45.87177" lon="5.84331">
        <ele>249.8</ele>
        <time>2022-09-26T10:37:06Z</time>
      </trkpt>
      <trkpt lat="45.87182" lon="5.84332">
        <ele>249.8</ele>
        <time>2022-09-26T10:37:07Z</time>
      </trkpt>
      <trkpt lat="45.87187" lon="5.84333">
        <ele>249.7</ele>
        <time>2022-09-26T10:37:08Z</time>
      </trkpt>
      <trkpt lat="45.87191" lon="5.84335">
        <ele>249.7</ele>
        <time>2022-09-26T10:37:09Z</time>
      </trkpt>
      <trkpt lat="45.87196" lon="5.84336">
        <ele>249.6</ele>
        <time>2022-09-26T10:37:10Z</time>
      </trkpt>
      <trkpt lat="45.87201" lon="5.84337">
        <ele>249.6</ele>
        <time>2022-09-26T10:37:11Z</time>
      </trkpt>
      <trkpt lat="45.87206" lon="5.84338">
        <ele>249.6</ele>
        <time>2022-09-26T10:37:12Z</time>
      </trkpt>
      <trkpt lat="45.87211" lon="5.8434">
        <ele>249.5</ele>
        <time>2022-09-26T10:37:13Z</time>
      </trkpt>
      <trkpt lat="45.87216" lon="5.84342">
        <ele>249.4</ele>
        <time>2022-09-26T10:37:14Z</time>
      </trkpt>
      <trkpt lat="45.87221" lon="5.84343">
        <ele>249.4</ele>
        <time>2022-09-26T10:37:15Z</time>
      </trkpt>
      <trkpt lat="45.87226" lon="5.84344">
        <ele>249.3</ele>
        <time>2022-09-26T10:37:16Z</time>
      </trkpt>
      <trkpt lat="45.87232" lon="5.84346">
        <ele>249.3</ele>
        <time>2022-09-26T10:37:17Z</time>
      </trkpt>
      <trkpt lat="45.87237" lon="5.84347">
        <ele>249.2</ele>
        <time>2022-09-26T10:37:18Z</time>
      </trkpt>
      <trkpt lat="45.87242" lon="5.84348">
        <ele>249.2</ele>
        <time>2022-09-26T10:37:19Z</time>
      </trkpt>
      <trkpt lat="45.87247" lon="5.8435">
        <ele>249.1</ele>
        <time>2022-09-26T10:37:20Z</time>
      </trkpt>
      <trkpt lat="45.87252" lon="5.84351">
        <ele>249.1</ele>
        <time>2022-09-26T10:37:21Z</time>
      </trkpt>
      <trkpt lat="45.87257" lon="5.84352">
        <ele>249</ele>
        <time>2022-09-26T10:37:22Z</time>
      </trkpt>
      <trkpt lat="45.87262" lon="5.84353">
        <ele>248.9</ele>
        <time>2022-09-26T10:37:23Z</time>
      </trkpt>
      <trkpt lat="45.87267" lon="5.84354">
        <ele>248.9</ele>
        <time>2022-09-26T10:37:24Z</time>
      </trkpt>
      <trkpt lat="45.87272" lon="5.84356">
        <ele>248.8</ele>
        <time>2022-09-26T10:37:25Z</time>
      </trkpt>
      <trkpt lat="45.87277" lon="5.84357">
        <ele>248.8</ele>
        <time>2022-09-26T10:37:26Z</time>
      </trkpt>
      <trkpt lat="45.87282" lon="5.84359">
        <ele>248.7</ele>
        <time>2022-09-26T10:37:27Z</time>
      </trkpt>
      <trkpt lat="45.87288" lon="5.8436">
        <ele>248.7</ele>
        <time>2022-09-26T10:37:28Z</time>
      </trkpt>
      <trkpt lat="45.87293" lon="5.84362">
        <ele>248.6</ele>
        <time>2022-09-26T10:37:29Z</time>
      </trkpt>
      <trkpt lat="45.87299" lon="5.84363">
        <ele>248.6</ele>
        <time>2022-09-26T10:37:30Z</time>
      </trkpt>
      <trkpt lat="45.87305" lon="5.84365">
        <ele>248.5</ele>
        <time>2022-09-26T10:37:31Z</time>
      </trkpt>
      <trkpt lat="45.8731" lon="5.84366">
        <ele>248.4</ele>
        <time>2022-09-26T10:37:32Z</time>
      </trkpt>
      <trkpt lat="45.87316" lon="5.84367">
        <ele>248.3</ele>
        <time>2022-09-26T10:37:33Z</time>
      </trkpt>
      <trkpt lat="45.87322" lon="5.84369">
        <ele>248.3</ele>
        <time>2022-09-26T10:37:34Z</time>
      </trkpt>
      <trkpt lat="45.87328" lon="5.8437">
        <ele>248.2</ele>
        <time>2022-09-26T10:37:35Z</time>
      </trkpt>
      <trkpt lat="45.87334" lon="5.84371">
        <ele>248.1</ele>
        <time>2022-09-26T10:37:36Z</time>
      </trkpt>
      <trkpt lat="45.8734" lon="5.84372">
        <ele>248.1</ele>
        <time>2022-09-26T10:37:37Z</time>
      </trkpt>
      <trkpt lat="45.87346" lon="5.84373">
        <ele>248</ele>
        <time>2022-09-26T10:37:38Z</time>
      </trkpt>
      <trkpt lat="45.87351" lon="5.84374">
        <ele>247.9</ele>
        <time>2022-09-26T10:37:39Z</time>
      </trkpt>
      <trkpt lat="45.87357" lon="5.84375">
        <ele>247.8</ele>
        <time>2022-09-26T10:37:40Z</time>
      </trkpt>
      <trkpt lat="45.87363" lon="5.84376">
        <ele>247.7</ele>
        <time>2022-09-26T10:37:41Z</time>
      </trkpt>
      <trkpt lat="45.87368" lon="5.84377">
        <ele>247.6</ele>
        <time>2022-09-26T10:37:42Z</time>
      </trkpt>
      <trkpt lat="45.87373" lon="5.84378">
        <ele>247.6</ele>
        <time>2022-09-26T10:37:43Z</time>
      </trkpt>
      <trkpt lat="45.87379" lon="5.84379">
        <ele>247.5</ele>
        <time>2022-09-26T10:37:44Z</time>
      </trkpt>
      <trkpt lat="45.87385" lon="5.8438">
        <ele>247.4</ele>
        <time>2022-09-26T10:37:45Z</time>
      </trkpt>
      <trkpt lat="45.8739" lon="5.8438">
        <ele>247.4</ele>
        <time>2022-09-26T10:37:46Z</time>
      </trkpt>
      <trkpt lat="45.87395" lon="5.84381">
        <ele>247.3</ele>
        <time>2022-09-26T10:37:47Z</time>
      </trkpt>
      <trkpt lat="45.87401" lon="5.84382">
        <ele>247.3</ele>
        <time>2022-09-26T10:37:48Z</time>
      </trkpt>
      <trkpt lat="45.87406" lon="5.84383">
        <ele>247.2</ele>
        <time>2022-09-26T10:37:49Z</time>
      </trkpt>
      <trkpt lat="45.87411" lon="5.84384">
        <ele>247.2</ele>
        <time>2022-09-26T10:37:50Z</time>
      </trkpt>
      <trkpt lat="45.87416" lon="5.84385">
        <ele>247.1</ele>
        <time>2022-09-26T10:37:51Z</time>
      </trkpt>
      <trkpt lat="45.87421" lon="5.84386">
        <ele>247.1</ele>
        <time>2022-09-26T10:37:52Z</time>
      </trkpt>
      <trkpt lat="45.87426" lon="5.84386">
        <ele>247</ele>
        <time>2022-09-26T10:37:53Z</time>
      </trkpt>
      <trkpt lat="45.87431" lon="5.84387">
        <ele>246.9</ele>
        <time>2022-09-26T10:37:54Z</time>
      </trkpt>
      <trkpt lat="45.87437" lon="5.84389">
        <ele>246.9</ele>
        <time>2022-09-26T10:37:55Z</time>
      </trkpt>
      <trkpt lat="45.87443" lon="5.8439">
        <ele>246.8</ele>
        <time>2022-09-26T10:37:56Z</time>
      </trkpt>
      <trkpt lat="45.87449" lon="5.84391">
        <ele>246.7</ele>
        <time>2022-09-26T10:37:57Z</time>
      </trkpt>
      <trkpt lat="45.87454" lon="5.84392">
        <ele>246.7</ele>
        <time>2022-09-26T10:37:58Z</time>
      </trkpt>
      <trkpt lat="45.8746" lon="5.84393">
        <ele>246.6</ele>
        <time>2022-09-26T10:37:59Z</time>
      </trkpt>
      <trkpt lat="45.87466" lon="5.84394">
        <ele>246.6</ele>
        <time>2022-09-26T10:38:00Z</time>
      </trkpt>
      <trkpt lat="45.87472" lon="5.84395">
        <ele>246.5</ele>
        <time>2022-09-26T10:38:01Z</time>
      </trkpt>
      <trkpt lat="45.87478" lon="5.84396">
        <ele>246.5</ele>
        <time>2022-09-26T10:38:02Z</time>
      </trkpt>
      <trkpt lat="45.87484" lon="5.84397">
        <ele>246.4</ele>
        <time>2022-09-26T10:38:03Z</time>
      </trkpt>
      <trkpt lat="45.8749" lon="5.84398">
        <ele>246.4</ele>
        <time>2022-09-26T10:38:04Z</time>
      </trkpt>
      <trkpt lat="45.87496" lon="5.844">
        <ele>246.4</ele>
        <time>2022-09-26T10:38:05Z</time>
      </trkpt>
      <trkpt lat="45.87503" lon="5.844">
        <ele>246.3</ele>
        <time>2022-09-26T10:38:06Z</time>
      </trkpt>
      <trkpt lat="45.87509" lon="5.84402">
        <ele>246.3</ele>
        <time>2022-09-26T10:38:07Z</time>
      </trkpt>
      <trkpt lat="45.87515" lon="5.84403">
        <ele>246.3</ele>
        <time>2022-09-26T10:38:08Z</time>
      </trkpt>
      <trkpt lat="45.87521" lon="5.84404">
        <ele>246.2</ele>
        <time>2022-09-26T10:38:09Z</time>
      </trkpt>
      <trkpt lat="45.87527" lon="5.84405">
        <ele>246.2</ele>
        <time>2022-09-26T10:38:10Z</time>
      </trkpt>
      <trkpt lat="45.87533" lon="5.84406">
        <ele>246.2</ele>
        <time>2022-09-26T10:38:11Z</time>
      </trkpt>
      <trkpt lat="45.87539" lon="5.84407">
        <ele>246.2</ele>
        <time>2022-09-26T10:38:12Z</time>
      </trkpt>
      <trkpt lat="45.87545" lon="5.84408">
        <ele>246.1</ele>
        <time>2022-09-26T10:38:13Z</time>
      </trkpt>
      <trkpt lat="45.8755" lon="5.84408">
        <ele>246.1</ele>
        <time>2022-09-26T10:38:14Z</time>
      </trkpt>
      <trkpt lat="45.87556" lon="5.84409">
        <ele>246.1</ele>
        <time>2022-09-26T10:38:15Z</time>
      </trkpt>
      <trkpt lat="45.87562" lon="5.84411">
        <ele>246.1</ele>
        <time>2022-09-26T10:38:16Z</time>
      </trkpt>
      <trkpt lat="45.87567" lon="5.84412">
        <ele>246</ele>
        <time>2022-09-26T10:38:17Z</time>
      </trkpt>
      <trkpt lat="45.87573" lon="5.84412">
        <ele>246</ele>
        <time>2022-09-26T10:38:18Z</time>
      </trkpt>
      <trkpt lat="45.87579" lon="5.84413">
        <ele>246</ele>
        <time>2022-09-26T10:38:19Z</time>
      </trkpt>
      <trkpt lat="45.87585" lon="5.84415">
        <ele>246</ele>
        <time>2022-09-26T10:38:20Z</time>
      </trkpt>
      <trkpt lat="45.87591" lon="5.84416">
        <ele>245.9</ele>
        <time>2022-09-26T10:38:21Z</time>
      </trkpt>
      <trkpt lat="45.87597" lon="5.84417">
        <ele>245.9</ele>
        <time>2022-09-26T10:38:22Z</time>
      </trkpt>
      <trkpt lat="45.87603" lon="5.84418">
        <ele>245.9</ele>
        <time>2022-09-26T10:38:23Z</time>
      </trkpt>
      <trkpt lat="45.87609" lon="5.84419">
        <ele>245.8</ele>
        <time>2022-09-26T10:38:24Z</time>
      </trkpt>
      <trkpt lat="45.87616" lon="5.8442">
        <ele>245.8</ele>
        <time>2022-09-26T10:38:25Z</time>
      </trkpt>
      <trkpt lat="45.87622" lon="5.84421">
        <ele>245.8</ele>
        <time>2022-09-26T10:38:26Z</time>
      </trkpt>
      <trkpt lat="45.87628" lon="5.84422">
        <ele>245.8</ele>
        <time>2022-09-26T10:38:27Z</time>
      </trkpt>
      <trkpt lat="45.87634" lon="5.84423">
        <ele>245.7</ele>
        <time>2022-09-26T10:38:28Z</time>
      </trkpt>
      <trkpt lat="45.8764" lon="5.84424">
        <ele>245.7</ele>
        <time>2022-09-26T10:38:29Z</time>
      </trkpt>
      <trkpt lat="45.87645" lon="5.84425">
        <ele>245.7</ele>
        <time>2022-09-26T10:38:30Z</time>
      </trkpt>
      <trkpt lat="45.8765" lon="5.84426">
        <ele>245.7</ele>
        <time>2022-09-26T10:38:31Z</time>
      </trkpt>
      <trkpt lat="45.87656" lon="5.84427">
        <ele>245.7</ele>
        <time>2022-09-26T10:38:32Z</time>
      </trkpt>
      <trkpt lat="45.87662" lon="5.84427">
        <ele>245.7</ele>
        <time>2022-09-26T10:38:33Z</time>
      </trkpt>
      <trkpt lat="45.87668" lon="5.84429">
        <ele>245.7</ele>
        <time>2022-09-26T10:38:34Z</time>
      </trkpt>
      <trkpt lat="45.87673" lon="5.84429">
        <ele>245.7</ele>
        <time>2022-09-26T10:38:35Z</time>
      </trkpt>
      <trkpt lat="45.87679" lon="5.8443">
        <ele>245.7</ele>
        <time>2022-09-26T10:38:36Z</time>
      </trkpt>
      <trkpt lat="45.87685" lon="5.84431">
        <ele>245.7</ele>
        <time>2022-09-26T10:38:37Z</time>
      </trkpt>
      <trkpt lat="45.87691" lon="5.84431">
        <ele>245.8</ele>
        <time>2022-09-26T10:38:38Z</time>
      </trkpt>
      <trkpt lat="45.87697" lon="5.84432">
        <ele>245.8</ele>
        <time>2022-09-26T10:38:39Z</time>
      </trkpt>
      <trkpt lat="45.87702" lon="5.84433">
        <ele>245.8</ele>
        <time>2022-09-26T10:38:40Z</time>
      </trkpt>
      <trkpt lat="45.87708" lon="5.84433">
        <ele>245.8</ele>
        <time>2022-09-26T10:38:41Z</time>
      </trkpt>
      <trkpt lat="45.87713" lon="5.84434">
        <ele>245.8</ele>
        <time>2022-09-26T10:38:42Z</time>
      </trkpt>
      <trkpt lat="45.87719" lon="5.84434">
        <ele>245.7</ele>
        <time>2022-09-26T10:38:43Z</time>
      </trkpt>
      <trkpt lat="45.87724" lon="5.84434">
        <ele>245.7</ele>
        <time>2022-09-26T10:38:44Z</time>
      </trkpt>
      <trkpt lat="45.8773" lon="5.84434">
        <ele>245.7</ele>
        <time>2022-09-26T10:38:45Z</time>
      </trkpt>
      <trkpt lat="45.87735" lon="5.84434">
        <ele>245.6</ele>
        <time>2022-09-26T10:38:46Z</time>
      </trkpt>
      <trkpt lat="45.87741" lon="5.84434">
        <ele>245.6</ele>
        <time>2022-09-26T10:38:47Z</time>
      </trkpt>
      <trkpt lat="45.87746" lon="5.84433">
        <ele>245.6</ele>
        <time>2022-09-26T10:38:48Z</time>
      </trkpt>
      <trkpt lat="45.87751" lon="5.84433">
        <ele>245.6</ele>
        <time>2022-09-26T10:38:49Z</time>
      </trkpt>
      <trkpt lat="45.87756" lon="5.84433">
        <ele>245.5</ele>
        <time>2022-09-26T10:38:50Z</time>
      </trkpt>
      <trkpt lat="45.87761" lon="5.84433">
        <ele>245.5</ele>
        <time>2022-09-26T10:38:51Z</time>
      </trkpt>
      <trkpt lat="45.87766" lon="5.84432">
        <ele>245.5</ele>
        <time>2022-09-26T10:38:52Z</time>
      </trkpt>
      <trkpt lat="45.87772" lon="5.84432">
        <ele>245.5</ele>
        <time>2022-09-26T10:38:53Z</time>
      </trkpt>
      <trkpt lat="45.87777" lon="5.84432">
        <ele>245.5</ele>
        <time>2022-09-26T10:38:54Z</time>
      </trkpt>
      <trkpt lat="45.87782" lon="5.84433">
        <ele>245.5</ele>
        <time>2022-09-26T10:38:55Z</time>
      </trkpt>
      <trkpt lat="45.87787" lon="5.84433">
        <ele>245.5</ele>
        <time>2022-09-26T10:38:56Z</time>
      </trkpt>
      <trkpt lat="45.87792" lon="5.84432">
        <ele>245.6</ele>
        <time>2022-09-26T10:38:57Z</time>
      </trkpt>
      <trkpt lat="45.87797" lon="5.8443">
        <ele>245.6</ele>
        <time>2022-09-26T10:38:58Z</time>
      </trkpt>
      <trkpt lat="45.87802" lon="5.8443">
        <ele>245.7</ele>
        <time>2022-09-26T10:38:59Z</time>
      </trkpt>
      <trkpt lat="45.87807" lon="5.84429">
        <ele>245.7</ele>
        <time>2022-09-26T10:39:00Z</time>
      </trkpt>
      <trkpt lat="45.87811" lon="5.84427">
        <ele>245.8</ele>
        <time>2022-09-26T10:39:01Z</time>
      </trkpt>
      <trkpt lat="45.87815" lon="5.84427">
        <ele>245.9</ele>
        <time>2022-09-26T10:39:02Z</time>
      </trkpt>
      <trkpt lat="45.87819" lon="5.84426">
        <ele>246</ele>
        <time>2022-09-26T10:39:03Z</time>
      </trkpt>
      <trkpt lat="45.87824" lon="5.84426">
        <ele>246</ele>
        <time>2022-09-26T10:39:04Z</time>
      </trkpt>
      <trkpt lat="45.87828" lon="5.84426">
        <ele>246.1</ele>
        <time>2022-09-26T10:39:05Z</time>
      </trkpt>
      <trkpt lat="45.87832" lon="5.84426">
        <ele>246.2</ele>
        <time>2022-09-26T10:39:06Z</time>
      </trkpt>
      <trkpt lat="45.87837" lon="5.84425">
        <ele>246.3</ele>
        <time>2022-09-26T10:39:07Z</time>
      </trkpt>
      <trkpt lat="45.87841" lon="5.84424">
        <ele>246.4</ele>
        <time>2022-09-26T10:39:08Z</time>
      </trkpt>
      <trkpt lat="45.87844" lon="5.84424">
        <ele>246.5</ele>
        <time>2022-09-26T10:39:09Z</time>
      </trkpt>
      <trkpt lat="45.87848" lon="5.84424">
        <ele>246.6</ele>
        <time>2022-09-26T10:39:10Z</time>
      </trkpt>
      <trkpt lat="45.87852" lon="5.84423">
        <ele>246.6</ele>
        <time>2022-09-26T10:39:11Z</time>
      </trkpt>
      <trkpt lat="45.87855" lon="5.84423">
        <ele>246.7</ele>
        <time>2022-09-26T10:39:12Z</time>
      </trkpt>
      <trkpt lat="45.87859" lon="5.84423">
        <ele>246.8</ele>
        <time>2022-09-26T10:39:13Z</time>
      </trkpt>
      <trkpt lat="45.87862" lon="5.84422">
        <ele>246.8</ele>
        <time>2022-09-26T10:39:14Z</time>
      </trkpt>
      <trkpt lat="45.87866" lon="5.84422">
        <ele>246.9</ele>
        <time>2022-09-26T10:39:15Z</time>
      </trkpt>
      <trkpt lat="45.8787" lon="5.84421">
        <ele>247</ele>
        <time>2022-09-26T10:39:16Z</time>
      </trkpt>
      <trkpt lat="45.87873" lon="5.84421">
        <ele>247</ele>
        <time>2022-09-26T10:39:17Z</time>
      </trkpt>
      <trkpt lat="45.87877" lon="5.8442">
        <ele>247.1</ele>
        <time>2022-09-26T10:39:18Z</time>
      </trkpt>
      <trkpt lat="45.8788" lon="5.8442">
        <ele>247.1</ele>
        <time>2022-09-26T10:39:19Z</time>
      </trkpt>
      <trkpt lat="45.87883" lon="5.8442">
        <ele>247.2</ele>
        <time>2022-09-26T10:39:20Z</time>
      </trkpt>
      <trkpt lat="45.87887" lon="5.84419">
        <ele>247.2</ele>
        <time>2022-09-26T10:39:21Z</time>
      </trkpt>
      <trkpt lat="45.8789" lon="5.84418">
        <ele>247.3</ele>
        <time>2022-09-26T10:39:22Z</time>
      </trkpt>
      <trkpt lat="45.87893" lon="5.84418">
        <ele>247.4</ele>
        <time>2022-09-26T10:39:23Z</time>
      </trkpt>
      <trkpt lat="45.87897" lon="5.84417">
        <ele>247.4</ele>
        <time>2022-09-26T10:39:24Z</time>
      </trkpt>
      <trkpt lat="45.87901" lon="5.84417">
        <ele>247.5</ele>
        <time>2022-09-26T10:39:25Z</time>
      </trkpt>
      <trkpt lat="45.87904" lon="5.84417">
        <ele>247.5</ele>
        <time>2022-09-26T10:39:26Z</time>
      </trkpt>
      <trkpt lat="45.87908" lon="5.84416">
        <ele>247.6</ele>
        <time>2022-09-26T10:39:27Z</time>
      </trkpt>
      <trkpt lat="45.87911" lon="5.84416">
        <ele>247.6</ele>
        <time>2022-09-26T10:39:28Z</time>
      </trkpt>
      <trkpt lat="45.87915" lon="5.84415">
        <ele>247.6</ele>
        <time>2022-09-26T10:39:29Z</time>
      </trkpt>
      <trkpt lat="45.87918" lon="5.84414">
        <ele>247.7</ele>
        <time>2022-09-26T10:39:30Z</time>
      </trkpt>
      <trkpt lat="45.87922" lon="5.84414">
        <ele>247.8</ele>
        <time>2022-09-26T10:39:31Z</time>
      </trkpt>
      <trkpt lat="45.87926" lon="5.84413">
        <ele>247.8</ele>
        <time>2022-09-26T10:39:32Z</time>
      </trkpt>
      <trkpt lat="45.87929" lon="5.84413">
        <ele>247.9</ele>
        <time>2022-09-26T10:39:33Z</time>
      </trkpt>
      <trkpt lat="45.87933" lon="5.84412">
        <ele>247.9</ele>
        <time>2022-09-26T10:39:34Z</time>
      </trkpt>
      <trkpt lat="45.87937" lon="5.84412">
        <ele>248</ele>
        <time>2022-09-26T10:39:35Z</time>
      </trkpt>
      <trkpt lat="45.8794" lon="5.84412">
        <ele>248.1</ele>
        <time>2022-09-26T10:39:36Z</time>
      </trkpt>
      <trkpt lat="45.87943" lon="5.84411">
        <ele>248.1</ele>
        <time>2022-09-26T10:39:37Z</time>
      </trkpt>
      <trkpt lat="45.87947" lon="5.84411">
        <ele>248.2</ele>
        <time>2022-09-26T10:39:38Z</time>
      </trkpt>
      <trkpt lat="45.8795" lon="5.84411">
        <ele>248.2</ele>
        <time>2022-09-26T10:39:39Z</time>
      </trkpt>
      <trkpt lat="45.87954" lon="5.84412">
        <ele>248.3</ele>
        <time>2022-09-26T10:39:40Z</time>
      </trkpt>
      <trkpt lat="45.87957" lon="5.84413">
        <ele>248.4</ele>
        <time>2022-09-26T10:39:41Z</time>
      </trkpt>
      <trkpt lat="45.8796" lon="5.84415">
        <ele>248.4</ele>
        <time>2022-09-26T10:39:42Z</time>
      </trkpt>
      <trkpt lat="45.87964" lon="5.84416">
        <ele>248.5</ele>
        <time>2022-09-26T10:39:43Z</time>
      </trkpt>
      <trkpt lat="45.87966" lon="5.84416">
        <ele>248.5</ele>
        <time>2022-09-26T10:39:44Z</time>
      </trkpt>
      <trkpt lat="45.8797" lon="5.84417">
        <ele>248.6</ele>
        <time>2022-09-26T10:39:45Z</time>
      </trkpt>
      <trkpt lat="45.87973" lon="5.84418">
        <ele>248.6</ele>
        <time>2022-09-26T10:39:46Z</time>
      </trkpt>
      <trkpt lat="45.87977" lon="5.84419">
        <ele>248.7</ele>
        <time>2022-09-26T10:39:47Z</time>
      </trkpt>
      <trkpt lat="45.87981" lon="5.8442">
        <ele>248.7</ele>
        <time>2022-09-26T10:39:48Z</time>
      </trkpt>
      <trkpt lat="45.87984" lon="5.84421">
        <ele>248.8</ele>
        <time>2022-09-26T10:39:49Z</time>
      </trkpt>
      <trkpt lat="45.87988" lon="5.84421">
        <ele>248.8</ele>
        <time>2022-09-26T10:39:50Z</time>
      </trkpt>
      <trkpt lat="45.87992" lon="5.8442">
        <ele>248.9</ele>
        <time>2022-09-26T10:39:51Z</time>
      </trkpt>
      <trkpt lat="45.87995" lon="5.8442">
        <ele>248.9</ele>
        <time>2022-09-26T10:39:52Z</time>
      </trkpt>
      <trkpt lat="45.87999" lon="5.8442">
        <ele>249</ele>
        <time>2022-09-26T10:39:53Z</time>
      </trkpt>
      <trkpt lat="45.88003" lon="5.8442">
        <ele>249</ele>
        <time>2022-09-26T10:39:54Z</time>
      </trkpt>
      <trkpt lat="45.88006" lon="5.84419">
        <ele>249</ele>
        <time>2022-09-26T10:39:55Z</time>
      </trkpt>
      <trkpt lat="45.88009" lon="5.84419">
        <ele>249.1</ele>
        <time>2022-09-26T10:39:56Z</time>
      </trkpt>
      <trkpt lat="45.88013" lon="5.84418">
        <ele>249.1</ele>
        <time>2022-09-26T10:39:57Z</time>
      </trkpt>
      <trkpt lat="45.88014" lon="5.84418">
        <ele>249.1</ele>
        <time>2022-09-26T10:39:58Z</time>
      </trkpt>
      <trkpt lat="45.88018" lon="5.84416">
        <ele>249.2</ele>
        <time>2022-09-26T10:39:59Z</time>
      </trkpt>
      <trkpt lat="45.88019" lon="5.84416">
        <ele>249.2</ele>
        <time>2022-09-26T10:40:00Z</time>
      </trkpt>
      <trkpt lat="45.88021" lon="5.84414">
        <ele>249.3</ele>
        <time>2022-09-26T10:40:01Z</time>
      </trkpt>
      <trkpt lat="45.88025" lon="5.84414">
        <ele>249.3</ele>
        <time>2022-09-26T10:40:02Z</time>
      </trkpt>
      <trkpt lat="45.88026" lon="5.84414">
        <ele>249.3</ele>
        <time>2022-09-26T10:40:03Z</time>
      </trkpt>
      <trkpt lat="45.88029" lon="5.84416">
        <ele>249.4</ele>
        <time>2022-09-26T10:40:04Z</time>
      </trkpt>
      <trkpt lat="45.88031" lon="5.84417">
        <ele>249.4</ele>
        <time>2022-09-26T10:40:05Z</time>
      </trkpt>
      <trkpt lat="45.88034" lon="5.84419">
        <ele>249.4</ele>
        <time>2022-09-26T10:40:06Z</time>
      </trkpt>
      <trkpt lat="45.88036" lon="5.84421">
        <ele>249.4</ele>
        <time>2022-09-26T10:40:07Z</time>
      </trkpt>
      <trkpt lat="45.8804" lon="5.84422">
        <ele>249.2</ele>
        <time>2022-09-26T10:40:08Z</time>
      </trkpt>
      <trkpt lat="45.88043" lon="5.84423">
        <ele>249.2</ele>
        <time>2022-09-26T10:40:09Z</time>
      </trkpt>
      <trkpt lat="45.88046" lon="5.84422">
        <ele>249.2</ele>
        <time>2022-09-26T10:40:10Z</time>
      </trkpt>
      <trkpt lat="45.8805" lon="5.84422">
        <ele>249.1</ele>
        <time>2022-09-26T10:40:11Z</time>
      </trkpt>
      <trkpt lat="45.88051" lon="5.84423">
        <ele>249.1</ele>
        <time>2022-09-26T10:40:12Z</time>
      </trkpt>
      <trkpt lat="45.88054" lon="5.84422">
        <ele>249.1</ele>
        <time>2022-09-26T10:40:13Z</time>
      </trkpt>
      <trkpt lat="45.88057" lon="5.8442">
        <ele>249.1</ele>
        <time>2022-09-26T10:40:14Z</time>
      </trkpt>
      <trkpt lat="45.88057" lon="5.8442">
        <ele>249.1</ele>
        <time>2022-09-26T10:40:15Z</time>
      </trkpt>
      <trkpt lat="45.88057" lon="5.84419">
        <ele>249.1</ele>
        <time>2022-09-26T10:40:16Z</time>
      </trkpt>
      <trkpt lat="45.88057" lon="5.84419">
        <ele>249.1</ele>
        <time>2022-09-26T10:40:17Z</time>
      </trkpt>
      <trkpt lat="45.88057" lon="5.84418">
        <ele>249.1</ele>
        <time>2022-09-26T10:40:18Z</time>
      </trkpt>
      <trkpt lat="45.88056" lon="5.84418">
        <ele>249.1</ele>
        <time>2022-09-26T10:40:19Z</time>
      </trkpt>
      <trkpt lat="45.88056" lon="5.84417">
        <ele>249.1</ele>
        <time>2022-09-26T10:40:20Z</time>
      </trkpt>
      <trkpt lat="45.88056" lon="5.84417">
        <ele>249.1</ele>
        <time>2022-09-26T10:40:21Z</time>
      </trkpt>
      <trkpt lat="45.88056" lon="5.84417">
        <ele>249.1</ele>
        <time>2022-09-26T10:40:22Z</time>
      </trkpt>
      <trkpt lat="45.88056" lon="5.84416">
        <ele>249.1</ele>
        <time>2022-09-26T10:40:23Z</time>
      </trkpt>
      <trkpt lat="45.88055" lon="5.84414">
        <ele>249.1</ele>
        <time>2022-09-26T10:40:24Z</time>
      </trkpt>
      <trkpt lat="45.88055" lon="5.84412">
        <ele>249</ele>
        <time>2022-09-26T10:40:25Z</time>
      </trkpt>
      <trkpt lat="45.88055" lon="5.84409">
        <ele>249</ele>
        <time>2022-09-26T11:07:05Z</time>
      </trkpt>
      <trkpt lat="45.88055" lon="5.84407">
        <ele>249</ele>
        <time>2022-09-26T11:07:06Z</time>
      </trkpt>
      <trkpt lat="45.88055" lon="5.84405">
        <ele>249</ele>
        <time>2022-09-26T11:07:07Z</time>
      </trkpt>
      <trkpt lat="45.88055" lon="5.84403">
        <ele>249</ele>
        <time>2022-09-26T11:07:08Z</time>
      </trkpt>
      <trkpt lat="45.88055" lon="5.84401">
        <ele>249</ele>
        <time>2022-09-26T11:07:09Z</time>
      </trkpt>
      <trkpt lat="45.88055" lon="5.84399">
        <ele>249</ele>
        <time>2022-09-26T11:07:10Z</time>
      </trkpt>
      <trkpt lat="45.88055" lon="5.84397">
        <ele>249</ele>
        <time>2022-09-26T11:07:11Z</time>
      </trkpt>
      <trkpt lat="45.88056" lon="5.84395">
        <ele>249</ele>
        <time>2022-09-26T11:07:12Z</time>
      </trkpt>
      <trkpt lat="45.88056" lon="5.84393">
        <ele>249</ele>
        <time>2022-09-26T11:07:13Z</time>
      </trkpt>
      <trkpt lat="45.88057" lon="5.84388">
        <ele>249</ele>
        <time>2022-09-26T11:07:14Z</time>
      </trkpt>
      <trkpt lat="45.88059" lon="5.84385">
        <ele>248.9</ele>
        <time>2022-09-26T11:07:24Z</time>
      </trkpt>
      <trkpt lat="45.88061" lon="5.84381">
        <ele>248.9</ele>
        <time>2022-09-26T11:07:25Z</time>
      </trkpt>
      <trkpt lat="45.88063" lon="5.8438">
        <ele>248.9</ele>
        <time>2022-09-26T11:07:26Z</time>
      </trkpt>
      <trkpt lat="45.88064" lon="5.84379">
        <ele>248.9</ele>
        <time>2022-09-26T11:07:27Z</time>
      </trkpt>
      <trkpt lat="45.88067" lon="5.84378">
        <ele>248.9</ele>
        <time>2022-09-26T11:07:28Z</time>
      </trkpt>
      <trkpt lat="45.88068" lon="5.84377">
        <ele>248.9</ele>
        <time>2022-09-26T11:07:29Z</time>
      </trkpt>
      <trkpt lat="45.88071" lon="5.84374">
        <ele>248.9</ele>
        <time>2022-09-26T11:07:30Z</time>
      </trkpt>
      <trkpt lat="45.88072" lon="5.84374">
        <ele>248.9</ele>
        <time>2022-09-26T11:07:31Z</time>
      </trkpt>
      <trkpt lat="45.88074" lon="5.84371">
        <ele>248.9</ele>
        <time>2022-09-26T11:07:32Z</time>
      </trkpt>
      <trkpt lat="45.88078" lon="5.84369">
        <ele>248.9</ele>
        <time>2022-09-26T11:07:33Z</time>
      </trkpt>
      <trkpt lat="45.88079" lon="5.84368">
        <ele>248.9</ele>
        <time>2022-09-26T11:07:34Z</time>
      </trkpt>
      <trkpt lat="45.88081" lon="5.84365">
        <ele>248.9</ele>
        <time>2022-09-26T11:07:35Z</time>
      </trkpt>
      <trkpt lat="45.88082" lon="5.84361">
        <ele>248.8</ele>
        <time>2022-09-26T11:07:36Z</time>
      </trkpt>
      <trkpt lat="45.88082" lon="5.84357">
        <ele>248.8</ele>
        <time>2022-09-26T11:07:37Z</time>
      </trkpt>
      <trkpt lat="45.88082" lon="5.84352">
        <ele>248.8</ele>
        <time>2022-09-26T11:07:38Z</time>
      </trkpt>
      <trkpt lat="45.88081" lon="5.84347">
        <ele>248.8</ele>
        <time>2022-09-26T11:07:39Z</time>
      </trkpt>
      <trkpt lat="45.88079" lon="5.84343">
        <ele>248.8</ele>
        <time>2022-09-26T11:07:40Z</time>
      </trkpt>
      <trkpt lat="45.88077" lon="5.84339">
        <ele>248.7</ele>
        <time>2022-09-26T11:07:41Z</time>
      </trkpt>
      <trkpt lat="45.88075" lon="5.84335">
        <ele>248.7</ele>
        <time>2022-09-26T11:07:42Z</time>
      </trkpt>
      <trkpt lat="45.88074" lon="5.84331">
        <ele>248.7</ele>
        <time>2022-09-26T11:07:43Z</time>
      </trkpt>
      <trkpt lat="45.88072" lon="5.84326">
        <ele>248.6</ele>
        <time>2022-09-26T11:07:44Z</time>
      </trkpt>
      <trkpt lat="45.8807" lon="5.84322">
        <ele>248.5</ele>
        <time>2022-09-26T11:07:45Z</time>
      </trkpt>
      <trkpt lat="45.88068" lon="5.84319">
        <ele>248.4</ele>
        <time>2022-09-26T11:07:46Z</time>
      </trkpt>
      <trkpt lat="45.88066" lon="5.84315">
        <ele>248.3</ele>
        <time>2022-09-26T11:07:47Z</time>
      </trkpt>
      <trkpt lat="45.88064" lon="5.84312">
        <ele>248.2</ele>
        <time>2022-09-26T11:07:48Z</time>
      </trkpt>
      <trkpt lat="45.88062" lon="5.84307">
        <ele>248.1</ele>
        <time>2022-09-26T11:07:49Z</time>
      </trkpt>
      <trkpt lat="45.88062" lon="5.84306">
        <ele>248.1</ele>
        <time>2022-09-26T11:07:50Z</time>
      </trkpt>
      <trkpt lat="45.88061" lon="5.84302">
        <ele>248</ele>
        <time>2022-09-26T11:07:51Z</time>
      </trkpt>
      <trkpt lat="45.88059" lon="5.84298">
        <ele>247.9</ele>
        <time>2022-09-26T11:07:52Z</time>
      </trkpt>
      <trkpt lat="45.88059" lon="5.84297">
        <ele>247.9</ele>
        <time>2022-09-26T11:07:53Z</time>
      </trkpt>
      <trkpt lat="45.88056" lon="5.84294">
        <ele>247.8</ele>
        <time>2022-09-26T11:07:54Z</time>
      </trkpt>
      <trkpt lat="45.88055" lon="5.84293">
        <ele>247.8</ele>
        <time>2022-09-26T11:07:55Z</time>
      </trkpt>
      <trkpt lat="45.88053" lon="5.84292">
        <ele>247.7</ele>
        <time>2022-09-26T11:07:56Z</time>
      </trkpt>
      <trkpt lat="45.8805" lon="5.84291">
        <ele>247.7</ele>
        <time>2022-09-26T11:07:57Z</time>
      </trkpt>
      <trkpt lat="45.88049" lon="5.84291">
        <ele>247.6</ele>
        <time>2022-09-26T11:07:58Z</time>
      </trkpt>
      <trkpt lat="45.88047" lon="5.84288">
        <ele>247.5</ele>
        <time>2022-09-26T11:07:59Z</time>
      </trkpt>
      <trkpt lat="45.88046" lon="5.84287">
        <ele>247.5</ele>
        <time>2022-09-26T11:08:00Z</time>
      </trkpt>
      <trkpt lat="45.88044" lon="5.84284">
        <ele>247.5</ele>
        <time>2022-09-26T11:08:01Z</time>
      </trkpt>
      <trkpt lat="45.88041" lon="5.84282">
        <ele>247.4</ele>
        <time>2022-09-26T11:08:02Z</time>
      </trkpt>
      <trkpt lat="45.88039" lon="5.84279">
        <ele>247.3</ele>
        <time>2022-09-26T11:08:03Z</time>
      </trkpt>
      <trkpt lat="45.88036" lon="5.84278">
        <ele>247.2</ele>
        <time>2022-09-26T11:08:04Z</time>
      </trkpt>
      <trkpt lat="45.88033" lon="5.84275">
        <ele>247.2</ele>
        <time>2022-09-26T11:08:05Z</time>
      </trkpt>
      <trkpt lat="45.8803" lon="5.84272">
        <ele>247.1</ele>
        <time>2022-09-26T11:08:06Z</time>
      </trkpt>
      <trkpt lat="45.88027" lon="5.84269">
        <ele>247</ele>
        <time>2022-09-26T11:08:07Z</time>
      </trkpt>
      <trkpt lat="45.88024" lon="5.84265">
        <ele>247</ele>
        <time>2022-09-26T11:08:08Z</time>
      </trkpt>
      <trkpt lat="45.88021" lon="5.84262">
        <ele>246.9</ele>
        <time>2022-09-26T11:08:09Z</time>
      </trkpt>
      <trkpt lat="45.88018" lon="5.84259">
        <ele>246.8</ele>
        <time>2022-09-26T11:08:10Z</time>
      </trkpt>
      <trkpt lat="45.88015" lon="5.84255">
        <ele>246.8</ele>
        <time>2022-09-26T11:08:11Z</time>
      </trkpt>
      <trkpt lat="45.88012" lon="5.84251">
        <ele>246.7</ele>
        <time>2022-09-26T11:08:12Z</time>
      </trkpt>
      <trkpt lat="45.88008" lon="5.84248">
        <ele>246.6</ele>
        <time>2022-09-26T11:08:13Z</time>
      </trkpt>
      <trkpt lat="45.88006" lon="5.84244">
        <ele>246.6</ele>
        <time>2022-09-26T11:08:14Z</time>
      </trkpt>
      <trkpt lat="45.88003" lon="5.84242">
        <ele>246.5</ele>
        <time>2022-09-26T11:08:15Z</time>
      </trkpt>
      <trkpt lat="45.88001" lon="5.84239">
        <ele>246.5</ele>
        <time>2022-09-26T11:08:16Z</time>
      </trkpt>
      <trkpt lat="45.87998" lon="5.84235">
        <ele>246.4</ele>
        <time>2022-09-26T11:08:17Z</time>
      </trkpt>
      <trkpt lat="45.87995" lon="5.84231">
        <ele>246.3</ele>
        <time>2022-09-26T11:08:18Z</time>
      </trkpt>
      <trkpt lat="45.87992" lon="5.84228">
        <ele>246.3</ele>
        <time>2022-09-26T11:08:19Z</time>
      </trkpt>
      <trkpt lat="45.87988" lon="5.84225">
        <ele>246.2</ele>
        <time>2022-09-26T11:08:20Z</time>
      </trkpt>
      <trkpt lat="45.87985" lon="5.84223">
        <ele>246.1</ele>
        <time>2022-09-26T11:08:21Z</time>
      </trkpt>
      <trkpt lat="45.87981" lon="5.8422">
        <ele>246.1</ele>
        <time>2022-09-26T11:08:22Z</time>
      </trkpt>
      <trkpt lat="45.87978" lon="5.84217">
        <ele>246</ele>
        <time>2022-09-26T11:08:23Z</time>
      </trkpt>
      <trkpt lat="45.87976" lon="5.84214">
        <ele>245.9</ele>
        <time>2022-09-26T11:08:24Z</time>
      </trkpt>
      <trkpt lat="45.87975" lon="5.84214">
        <ele>245.9</ele>
        <time>2022-09-26T11:08:25Z</time>
      </trkpt>
      <trkpt lat="45.87973" lon="5.8421">
        <ele>245.8</ele>
        <time>2022-09-26T11:08:26Z</time>
      </trkpt>
      <trkpt lat="45.87971" lon="5.84205">
        <ele>245.7</ele>
        <time>2022-09-26T11:08:27Z</time>
      </trkpt>
      <trkpt lat="45.8797" lon="5.84201">
        <ele>245.7</ele>
        <time>2022-09-26T11:08:28Z</time>
      </trkpt>
      <trkpt lat="45.8797" lon="5.84195">
        <ele>245.6</ele>
        <time>2022-09-26T11:08:29Z</time>
      </trkpt>
      <trkpt lat="45.87969" lon="5.84189">
        <ele>245.5</ele>
        <time>2022-09-26T11:08:30Z</time>
      </trkpt>
      <trkpt lat="45.87968" lon="5.84182">
        <ele>245.5</ele>
        <time>2022-09-26T11:08:31Z</time>
      </trkpt>
      <trkpt lat="45.87967" lon="5.84175">
        <ele>245.4</ele>
        <time>2022-09-26T11:08:32Z</time>
      </trkpt>
      <trkpt lat="45.87966" lon="5.84169">
        <ele>245.3</ele>
        <time>2022-09-26T11:08:33Z</time>
      </trkpt>
      <trkpt lat="45.87965" lon="5.84163">
        <ele>245.3</ele>
        <time>2022-09-26T11:08:34Z</time>
      </trkpt>
      <trkpt lat="45.87964" lon="5.84157">
        <ele>245.3</ele>
        <time>2022-09-26T11:08:35Z</time>
      </trkpt>
      <trkpt lat="45.87963" lon="5.84151">
        <ele>245.3</ele>
        <time>2022-09-26T11:08:36Z</time>
      </trkpt>
      <trkpt lat="45.87963" lon="5.84143">
        <ele>245.2</ele>
        <time>2022-09-26T11:08:37Z</time>
      </trkpt>
      <trkpt lat="45.87962" lon="5.84136">
        <ele>245.2</ele>
        <time>2022-09-26T11:08:38Z</time>
      </trkpt>
      <trkpt lat="45.87961" lon="5.84129">
        <ele>245.2</ele>
        <time>2022-09-26T11:08:39Z</time>
      </trkpt>
      <trkpt lat="45.8796" lon="5.84121">
        <ele>245.2</ele>
        <time>2022-09-26T11:08:40Z</time>
      </trkpt>
      <trkpt lat="45.8796" lon="5.84113">
        <ele>245.1</ele>
        <time>2022-09-26T11:08:41Z</time>
      </trkpt>
      <trkpt lat="45.87959" lon="5.84107">
        <ele>245.1</ele>
        <time>2022-09-26T11:08:42Z</time>
      </trkpt>
      <trkpt lat="45.87957" lon="5.841">
        <ele>245.1</ele>
        <time>2022-09-26T11:08:43Z</time>
      </trkpt>
      <trkpt lat="45.87954" lon="5.84093">
        <ele>245.1</ele>
        <time>2022-09-26T11:08:44Z</time>
      </trkpt>
      <trkpt lat="45.87953" lon="5.84087">
        <ele>245.1</ele>
        <time>2022-09-26T11:08:45Z</time>
      </trkpt>
      <trkpt lat="45.87951" lon="5.84082">
        <ele>245.1</ele>
        <time>2022-09-26T11:08:46Z</time>
      </trkpt>
      <trkpt lat="45.8795" lon="5.84075">
        <ele>245.1</ele>
        <time>2022-09-26T11:08:47Z</time>
      </trkpt>
      <trkpt lat="45.87948" lon="5.84069">
        <ele>245.1</ele>
        <time>2022-09-26T11:08:48Z</time>
      </trkpt>
      <trkpt lat="45.87946" lon="5.84062">
        <ele>245.1</ele>
        <time>2022-09-26T11:08:49Z</time>
      </trkpt>
      <trkpt lat="45.87944" lon="5.84056">
        <ele>245.1</ele>
        <time>2022-09-26T11:08:50Z</time>
      </trkpt>
      <trkpt lat="45.87942" lon="5.84049">
        <ele>245.1</ele>
        <time>2022-09-26T11:08:51Z</time>
      </trkpt>
      <trkpt lat="45.87941" lon="5.84043">
        <ele>245.1</ele>
        <time>2022-09-26T11:08:52Z</time>
      </trkpt>
      <trkpt lat="45.87939" lon="5.84036">
        <ele>245.1</ele>
        <time>2022-09-26T11:08:53Z</time>
      </trkpt>
      <trkpt lat="45.87937" lon="5.8403">
        <ele>245.1</ele>
        <time>2022-09-26T11:08:54Z</time>
      </trkpt>
      <trkpt lat="45.87935" lon="5.84024">
        <ele>245</ele>
        <time>2022-09-26T11:08:55Z</time>
      </trkpt>
      <trkpt lat="45.87934" lon="5.84017">
        <ele>245</ele>
        <time>2022-09-26T11:08:56Z</time>
      </trkpt>
      <trkpt lat="45.87932" lon="5.8401">
        <ele>245</ele>
        <time>2022-09-26T11:08:57Z</time>
      </trkpt>
      <trkpt lat="45.87929" lon="5.84005">
        <ele>244.9</ele>
        <time>2022-09-26T11:08:58Z</time>
      </trkpt>
      <trkpt lat="45.87928" lon="5.83998">
        <ele>244.9</ele>
        <time>2022-09-26T11:08:59Z</time>
      </trkpt>
      <trkpt lat="45.87926" lon="5.83992">
        <ele>244.9</ele>
        <time>2022-09-26T11:09:00Z</time>
      </trkpt>
      <trkpt lat="45.87925" lon="5.83985">
        <ele>244.8</ele>
        <time>2022-09-26T11:09:01Z</time>
      </trkpt>
      <trkpt lat="45.87923" lon="5.83978">
        <ele>244.8</ele>
        <time>2022-09-26T11:09:02Z</time>
      </trkpt>
      <trkpt lat="45.8792" lon="5.83972">
        <ele>244.7</ele>
        <time>2022-09-26T11:09:03Z</time>
      </trkpt>
      <trkpt lat="45.87919" lon="5.83965">
        <ele>244.7</ele>
        <time>2022-09-26T11:09:04Z</time>
      </trkpt>
      <trkpt lat="45.87916" lon="5.83959">
        <ele>244.6</ele>
        <time>2022-09-26T11:09:05Z</time>
      </trkpt>
      <trkpt lat="45.87914" lon="5.83953">
        <ele>244.6</ele>
        <time>2022-09-26T11:09:06Z</time>
      </trkpt>
      <trkpt lat="45.87912" lon="5.83947">
        <ele>244.5</ele>
        <time>2022-09-26T11:09:07Z</time>
      </trkpt>
      <trkpt lat="45.87911" lon="5.83941">
        <ele>244.5</ele>
        <time>2022-09-26T11:09:08Z</time>
      </trkpt>
      <trkpt lat="45.87908" lon="5.83935">
        <ele>244.5</ele>
        <time>2022-09-26T11:09:09Z</time>
      </trkpt>
      <trkpt lat="45.87908" lon="5.83928">
        <ele>244.4</ele>
        <time>2022-09-26T11:09:10Z</time>
      </trkpt>
      <trkpt lat="45.87906" lon="5.83923">
        <ele>244.4</ele>
        <time>2022-09-26T11:09:11Z</time>
      </trkpt>
      <trkpt lat="45.87904" lon="5.83918">
        <ele>244.4</ele>
        <time>2022-09-26T11:09:12Z</time>
      </trkpt>
      <trkpt lat="45.87902" lon="5.83912">
        <ele>244.3</ele>
        <time>2022-09-26T11:09:13Z</time>
      </trkpt>
      <trkpt lat="45.879" lon="5.83905">
        <ele>244.3</ele>
        <time>2022-09-26T11:09:14Z</time>
      </trkpt>
      <trkpt lat="45.87898" lon="5.839">
        <ele>244.3</ele>
        <time>2022-09-26T11:09:15Z</time>
      </trkpt>
      <trkpt lat="45.87897" lon="5.83893">
        <ele>244.3</ele>
        <time>2022-09-26T11:09:16Z</time>
      </trkpt>
      <trkpt lat="45.87895" lon="5.83889">
        <ele>244.3</ele>
        <time>2022-09-26T11:09:17Z</time>
      </trkpt>
      <trkpt lat="45.87894" lon="5.83883">
        <ele>244.2</ele>
        <time>2022-09-26T11:09:18Z</time>
      </trkpt>
      <trkpt lat="45.87891" lon="5.83877">
        <ele>244.2</ele>
        <time>2022-09-26T11:09:19Z</time>
      </trkpt>
      <trkpt lat="45.87889" lon="5.83871">
        <ele>244.2</ele>
        <time>2022-09-26T11:09:20Z</time>
      </trkpt>
      <trkpt lat="45.87887" lon="5.83868">
        <ele>244.2</ele>
        <time>2022-09-26T11:09:21Z</time>
      </trkpt>
      <trkpt lat="45.87885" lon="5.83861">
        <ele>244.2</ele>
        <time>2022-09-26T11:09:22Z</time>
      </trkpt>
      <trkpt lat="45.87884" lon="5.83857">
        <ele>244.2</ele>
        <time>2022-09-26T11:09:23Z</time>
      </trkpt>
      <trkpt lat="45.87882" lon="5.83854">
        <ele>244.2</ele>
        <time>2022-09-26T11:09:24Z</time>
      </trkpt>
      <trkpt lat="45.8788" lon="5.83849">
        <ele>244.2</ele>
        <time>2022-09-26T11:09:25Z</time>
      </trkpt>
      <trkpt lat="45.87879" lon="5.83847">
        <ele>244.2</ele>
        <time>2022-09-26T11:09:26Z</time>
      </trkpt>
      <trkpt lat="45.87878" lon="5.83842">
        <ele>244.2</ele>
        <time>2022-09-26T11:09:27Z</time>
      </trkpt>
      <trkpt lat="45.87877" lon="5.83836">
        <ele>244.2</ele>
        <time>2022-09-26T11:09:28Z</time>
      </trkpt>
      <trkpt lat="45.87874" lon="5.83828">
        <ele>244.2</ele>
        <time>2022-09-26T11:09:29Z</time>
      </trkpt>
      <trkpt lat="45.87872" lon="5.83823">
        <ele>244.1</ele>
        <time>2022-09-26T11:09:30Z</time>
      </trkpt>
      <trkpt lat="45.87869" lon="5.83817">
        <ele>244.1</ele>
        <time>2022-09-26T11:09:31Z</time>
      </trkpt>
      <trkpt lat="45.87867" lon="5.83812">
        <ele>244.1</ele>
        <time>2022-09-26T11:09:32Z</time>
      </trkpt>
      <trkpt lat="45.87865" lon="5.83806">
        <ele>244</ele>
        <time>2022-09-26T11:09:33Z</time>
      </trkpt>
      <trkpt lat="45.87863" lon="5.83801">
        <ele>244</ele>
        <time>2022-09-26T11:09:34Z</time>
      </trkpt>
      <trkpt lat="45.87861" lon="5.83795">
        <ele>244</ele>
        <time>2022-09-26T11:09:35Z</time>
      </trkpt>
      <trkpt lat="45.87858" lon="5.8379">
        <ele>244</ele>
        <time>2022-09-26T11:09:36Z</time>
      </trkpt>
      <trkpt lat="45.87857" lon="5.83785">
        <ele>243.9</ele>
        <time>2022-09-26T11:09:37Z</time>
      </trkpt>
      <trkpt lat="45.87855" lon="5.83779">
        <ele>243.9</ele>
        <time>2022-09-26T11:09:38Z</time>
      </trkpt>
      <trkpt lat="45.87853" lon="5.83774">
        <ele>243.9</ele>
        <time>2022-09-26T11:09:39Z</time>
      </trkpt>
      <trkpt lat="45.87851" lon="5.83768">
        <ele>243.9</ele>
        <time>2022-09-26T11:09:40Z</time>
      </trkpt>
      <trkpt lat="45.87849" lon="5.83763">
        <ele>243.9</ele>
        <time>2022-09-26T11:09:41Z</time>
      </trkpt>
      <trkpt lat="45.87847" lon="5.83758">
        <ele>243.9</ele>
        <time>2022-09-26T11:09:42Z</time>
      </trkpt>
      <trkpt lat="45.87845" lon="5.83752">
        <ele>243.9</ele>
        <time>2022-09-26T11:09:43Z</time>
      </trkpt>
      <trkpt lat="45.87843" lon="5.83746">
        <ele>243.8</ele>
        <time>2022-09-26T11:09:44Z</time>
      </trkpt>
      <trkpt lat="45.87842" lon="5.83741">
        <ele>243.8</ele>
        <time>2022-09-26T11:09:45Z</time>
      </trkpt>
      <trkpt lat="45.8784" lon="5.83735">
        <ele>243.8</ele>
        <time>2022-09-26T11:09:46Z</time>
      </trkpt>
      <trkpt lat="45.87838" lon="5.83729">
        <ele>243.7</ele>
        <time>2022-09-26T11:09:47Z</time>
      </trkpt>
      <trkpt lat="45.87835" lon="5.83723">
        <ele>243.6</ele>
        <time>2022-09-26T11:09:48Z</time>
      </trkpt>
      <trkpt lat="45.87833" lon="5.83717">
        <ele>243.6</ele>
        <time>2022-09-26T11:09:49Z</time>
      </trkpt>
      <trkpt lat="45.8783" lon="5.83711">
        <ele>243.5</ele>
        <time>2022-09-26T11:09:50Z</time>
      </trkpt>
      <trkpt lat="45.87828" lon="5.83706">
        <ele>243.5</ele>
        <time>2022-09-26T11:09:51Z</time>
      </trkpt>
      <trkpt lat="45.87827" lon="5.83701">
        <ele>243.4</ele>
        <time>2022-09-26T11:09:52Z</time>
      </trkpt>
      <trkpt lat="45.87825" lon="5.83695">
        <ele>243.4</ele>
        <time>2022-09-26T11:09:53Z</time>
      </trkpt>
      <trkpt lat="45.87822" lon="5.83689">
        <ele>243.3</ele>
        <time>2022-09-26T11:09:54Z</time>
      </trkpt>
      <trkpt lat="45.8782" lon="5.83684">
        <ele>243.3</ele>
        <time>2022-09-26T11:09:55Z</time>
      </trkpt>
      <trkpt lat="45.87818" lon="5.83678">
        <ele>243.3</ele>
        <time>2022-09-26T11:09:56Z</time>
      </trkpt>
      <trkpt lat="45.87816" lon="5.83673">
        <ele>243.3</ele>
        <time>2022-09-26T11:09:57Z</time>
      </trkpt>
      <trkpt lat="45.87814" lon="5.83668">
        <ele>243.3</ele>
        <time>2022-09-26T11:09:58Z</time>
      </trkpt>
      <trkpt lat="45.87812" lon="5.83664">
        <ele>243.2</ele>
        <time>2022-09-26T11:09:59Z</time>
      </trkpt>
      <trkpt lat="45.87811" lon="5.83659">
        <ele>243.2</ele>
        <time>2022-09-26T11:10:00Z</time>
      </trkpt>
      <trkpt lat="45.87808" lon="5.83652">
        <ele>243.2</ele>
        <time>2022-09-26T11:10:01Z</time>
      </trkpt>
      <trkpt lat="45.87806" lon="5.83646">
        <ele>243.2</ele>
        <time>2022-09-26T11:10:02Z</time>
      </trkpt>
      <trkpt lat="45.87804" lon="5.8364">
        <ele>243.2</ele>
        <time>2022-09-26T11:10:03Z</time>
      </trkpt>
      <trkpt lat="45.87802" lon="5.83634">
        <ele>243.1</ele>
        <time>2022-09-26T11:10:04Z</time>
      </trkpt>
      <trkpt lat="45.87801" lon="5.8363">
        <ele>243.1</ele>
        <time>2022-09-26T11:10:05Z</time>
      </trkpt>
      <trkpt lat="45.87799" lon="5.83625">
        <ele>243.1</ele>
        <time>2022-09-26T11:10:06Z</time>
      </trkpt>
      <trkpt lat="45.87796" lon="5.83619">
        <ele>243.1</ele>
        <time>2022-09-26T11:10:07Z</time>
      </trkpt>
      <trkpt lat="45.87794" lon="5.83613">
        <ele>243.1</ele>
        <time>2022-09-26T11:10:08Z</time>
      </trkpt>
      <trkpt lat="45.87793" lon="5.83607">
        <ele>243</ele>
        <time>2022-09-26T11:10:09Z</time>
      </trkpt>
      <trkpt lat="45.8779" lon="5.83601">
        <ele>243</ele>
        <time>2022-09-26T11:10:10Z</time>
      </trkpt>
      <trkpt lat="45.87788" lon="5.83596">
        <ele>243</ele>
        <time>2022-09-26T11:10:11Z</time>
      </trkpt>
      <trkpt lat="45.87787" lon="5.8359">
        <ele>243</ele>
        <time>2022-09-26T11:10:12Z</time>
      </trkpt>
      <trkpt lat="45.87785" lon="5.83583">
        <ele>243.1</ele>
        <time>2022-09-26T11:10:13Z</time>
      </trkpt>
      <trkpt lat="45.87783" lon="5.83578">
        <ele>243.1</ele>
        <time>2022-09-26T11:10:14Z</time>
      </trkpt>
      <trkpt lat="45.87781" lon="5.83571">
        <ele>243.1</ele>
        <time>2022-09-26T11:10:15Z</time>
      </trkpt>
      <trkpt lat="45.8778" lon="5.83564">
        <ele>243.1</ele>
        <time>2022-09-26T11:10:16Z</time>
      </trkpt>
      <trkpt lat="45.87778" lon="5.83558">
        <ele>243.1</ele>
        <time>2022-09-26T11:10:17Z</time>
      </trkpt>
      <trkpt lat="45.87776" lon="5.83552">
        <ele>243.1</ele>
        <time>2022-09-26T11:10:18Z</time>
      </trkpt>
      <trkpt lat="45.87774" lon="5.83546">
        <ele>243.1</ele>
        <time>2022-09-26T11:10:19Z</time>
      </trkpt>
      <trkpt lat="45.87771" lon="5.83541">
        <ele>243.1</ele>
        <time>2022-09-26T11:10:20Z</time>
      </trkpt>
      <trkpt lat="45.87769" lon="5.83534">
        <ele>243.1</ele>
        <time>2022-09-26T11:10:21Z</time>
      </trkpt>
      <trkpt lat="45.87766" lon="5.83528">
        <ele>243.1</ele>
        <time>2022-09-26T11:10:22Z</time>
      </trkpt>
      <trkpt lat="45.87765" lon="5.83523">
        <ele>243.1</ele>
        <time>2022-09-26T11:10:23Z</time>
      </trkpt>
      <trkpt lat="45.87764" lon="5.83518">
        <ele>243.1</ele>
        <time>2022-09-26T11:10:24Z</time>
      </trkpt>
      <trkpt lat="45.87762" lon="5.83512">
        <ele>243.1</ele>
        <time>2022-09-26T11:10:25Z</time>
      </trkpt>
      <trkpt lat="45.8776" lon="5.83506">
        <ele>243.1</ele>
        <time>2022-09-26T11:10:26Z</time>
      </trkpt>
      <trkpt lat="45.87759" lon="5.83502">
        <ele>243.1</ele>
        <time>2022-09-26T11:10:27Z</time>
      </trkpt>
      <trkpt lat="45.87758" lon="5.83497">
        <ele>243.1</ele>
        <time>2022-09-26T11:10:28Z</time>
      </trkpt>
      <trkpt lat="45.87756" lon="5.83491">
        <ele>243.1</ele>
        <time>2022-09-26T11:10:29Z</time>
      </trkpt>
      <trkpt lat="45.87754" lon="5.83485">
        <ele>243.1</ele>
        <time>2022-09-26T11:10:30Z</time>
      </trkpt>
      <trkpt lat="45.87753" lon="5.8348">
        <ele>243.1</ele>
        <time>2022-09-26T11:10:31Z</time>
      </trkpt>
      <trkpt lat="45.87751" lon="5.83475">
        <ele>243.1</ele>
        <time>2022-09-26T11:10:32Z</time>
      </trkpt>
      <trkpt lat="45.87749" lon="5.83469">
        <ele>243</ele>
        <time>2022-09-26T11:10:33Z</time>
      </trkpt>
      <trkpt lat="45.87748" lon="5.83464">
        <ele>243</ele>
        <time>2022-09-26T11:10:34Z</time>
      </trkpt>
      <trkpt lat="45.87745" lon="5.83457">
        <ele>243</ele>
        <time>2022-09-26T11:10:35Z</time>
      </trkpt>
      <trkpt lat="45.87743" lon="5.83451">
        <ele>243.1</ele>
        <time>2022-09-26T11:10:36Z</time>
      </trkpt>
      <trkpt lat="45.87741" lon="5.83445">
        <ele>243.1</ele>
        <time>2022-09-26T11:10:37Z</time>
      </trkpt>
      <trkpt lat="45.8774" lon="5.83439">
        <ele>243.1</ele>
        <time>2022-09-26T11:10:38Z</time>
      </trkpt>
      <trkpt lat="45.87738" lon="5.83434">
        <ele>243.1</ele>
        <time>2022-09-26T11:10:39Z</time>
      </trkpt>
      <trkpt lat="45.87736" lon="5.83429">
        <ele>243.1</ele>
        <time>2022-09-26T11:10:40Z</time>
      </trkpt>
      <trkpt lat="45.87734" lon="5.83423">
        <ele>243.1</ele>
        <time>2022-09-26T11:10:41Z</time>
      </trkpt>
      <trkpt lat="45.87732" lon="5.83417">
        <ele>243.1</ele>
        <time>2022-09-26T11:10:42Z</time>
      </trkpt>
      <trkpt lat="45.87729" lon="5.83411">
        <ele>243.1</ele>
        <time>2022-09-26T11:10:43Z</time>
      </trkpt>
      <trkpt lat="45.87728" lon="5.83406">
        <ele>243.1</ele>
        <time>2022-09-26T11:10:44Z</time>
      </trkpt>
      <trkpt lat="45.87727" lon="5.83401">
        <ele>243.1</ele>
        <time>2022-09-26T11:10:45Z</time>
      </trkpt>
      <trkpt lat="45.87725" lon="5.83395">
        <ele>243.1</ele>
        <time>2022-09-26T11:10:46Z</time>
      </trkpt>
      <trkpt lat="45.87724" lon="5.83389">
        <ele>243.2</ele>
        <time>2022-09-26T11:10:47Z</time>
      </trkpt>
      <trkpt lat="45.87722" lon="5.83384">
        <ele>243.2</ele>
        <time>2022-09-26T11:10:48Z</time>
      </trkpt>
      <trkpt lat="45.8772" lon="5.8338">
        <ele>243.2</ele>
        <time>2022-09-26T11:10:49Z</time>
      </trkpt>
      <trkpt lat="45.87719" lon="5.83376">
        <ele>243.3</ele>
        <time>2022-09-26T11:10:50Z</time>
      </trkpt>
      <trkpt lat="45.87717" lon="5.83371">
        <ele>243.3</ele>
        <time>2022-09-26T11:10:51Z</time>
      </trkpt>
      <trkpt lat="45.87716" lon="5.8337">
        <ele>243.3</ele>
        <time>2022-09-26T11:10:52Z</time>
      </trkpt>
      <trkpt lat="45.87714" lon="5.83366">
        <ele>243.3</ele>
        <time>2022-09-26T11:10:53Z</time>
      </trkpt>
      <trkpt lat="45.87713" lon="5.83361">
        <ele>243.4</ele>
        <time>2022-09-26T11:10:54Z</time>
      </trkpt>
      <trkpt lat="45.87712" lon="5.83355">
        <ele>243.4</ele>
        <time>2022-09-26T11:10:55Z</time>
      </trkpt>
      <trkpt lat="45.87711" lon="5.83353">
        <ele>243.5</ele>
        <time>2022-09-26T11:10:56Z</time>
      </trkpt>
      <trkpt lat="45.8771" lon="5.83348">
        <ele>243.5</ele>
        <time>2022-09-26T11:10:57Z</time>
      </trkpt>
      <trkpt lat="45.87708" lon="5.83343">
        <ele>243.6</ele>
        <time>2022-09-26T11:10:58Z</time>
      </trkpt>
      <trkpt lat="45.87707" lon="5.83339">
        <ele>243.6</ele>
        <time>2022-09-26T11:10:59Z</time>
      </trkpt>
      <trkpt lat="45.87707" lon="5.83335">
        <ele>243.7</ele>
        <time>2022-09-26T11:11:00Z</time>
      </trkpt>
      <trkpt lat="45.87709" lon="5.83332">
        <ele>243.6</ele>
        <time>2022-09-26T11:11:01Z</time>
      </trkpt>
      <trkpt lat="45.8771" lon="5.8333">
        <ele>243.6</ele>
        <time>2022-09-26T11:11:02Z</time>
      </trkpt>
      <trkpt lat="45.87714" lon="5.83331">
        <ele>243.5</ele>
        <time>2022-09-26T11:11:03Z</time>
      </trkpt>
      <trkpt lat="45.87716" lon="5.83331">
        <ele>243.5</ele>
        <time>2022-09-26T11:11:04Z</time>
      </trkpt>
      <trkpt lat="45.87719" lon="5.83332">
        <ele>243.4</ele>
        <time>2022-09-26T11:11:05Z</time>
      </trkpt>
      <trkpt lat="45.87722" lon="5.83333">
        <ele>243.3</ele>
        <time>2022-09-26T11:11:06Z</time>
      </trkpt>
      <trkpt lat="45.87726" lon="5.83333">
        <ele>243.2</ele>
        <time>2022-09-26T11:11:07Z</time>
      </trkpt>
      <trkpt lat="45.8773" lon="5.83333">
        <ele>243.1</ele>
        <time>2022-09-26T11:11:08Z</time>
      </trkpt>
      <trkpt lat="45.87734" lon="5.83335">
        <ele>243.1</ele>
        <time>2022-09-26T11:11:09Z</time>
      </trkpt>
      <trkpt lat="45.87738" lon="5.83336">
        <ele>243</ele>
        <time>2022-09-26T11:11:10Z</time>
      </trkpt>
      <trkpt lat="45.87741" lon="5.83336">
        <ele>243</ele>
        <time>2022-09-26T11:11:11Z</time>
      </trkpt>
      <trkpt lat="45.87746" lon="5.83338">
        <ele>243</ele>
        <time>2022-09-26T11:11:12Z</time>
      </trkpt>
      <trkpt lat="45.8775" lon="5.83339">
        <ele>242.9</ele>
        <time>2022-09-26T11:11:13Z</time>
      </trkpt>
      <trkpt lat="45.87753" lon="5.83339">
        <ele>242.9</ele>
        <time>2022-09-26T11:11:14Z</time>
      </trkpt>
      <trkpt lat="45.87758" lon="5.8334">
        <ele>242.9</ele>
        <time>2022-09-26T11:11:15Z</time>
      </trkpt>
      <trkpt lat="45.87762" lon="5.83341">
        <ele>242.9</ele>
        <time>2022-09-26T11:11:16Z</time>
      </trkpt>
      <trkpt lat="45.87766" lon="5.83342">
        <ele>242.9</ele>
        <time>2022-09-26T11:11:17Z</time>
      </trkpt>
      <trkpt lat="45.87769" lon="5.83342">
        <ele>242.9</ele>
        <time>2022-09-26T11:11:18Z</time>
      </trkpt>
      <trkpt lat="45.87773" lon="5.83342">
        <ele>242.9</ele>
        <time>2022-09-26T11:11:19Z</time>
      </trkpt>
      <trkpt lat="45.87778" lon="5.83343">
        <ele>242.9</ele>
        <time>2022-09-26T11:11:20Z</time>
      </trkpt>
      <trkpt lat="45.87782" lon="5.83344">
        <ele>242.9</ele>
        <time>2022-09-26T11:11:21Z</time>
      </trkpt>
      <trkpt lat="45.87787" lon="5.83345">
        <ele>243</ele>
        <time>2022-09-26T11:11:22Z</time>
      </trkpt>
      <trkpt lat="45.87791" lon="5.83346">
        <ele>243</ele>
        <time>2022-09-26T11:11:23Z</time>
      </trkpt>
      <trkpt lat="45.87795" lon="5.83347">
        <ele>243</ele>
        <time>2022-09-26T11:11:24Z</time>
      </trkpt>
      <trkpt lat="45.878" lon="5.83348">
        <ele>243</ele>
        <time>2022-09-26T11:11:25Z</time>
      </trkpt>
      <trkpt lat="45.87803" lon="5.83348">
        <ele>243</ele>
        <time>2022-09-26T11:11:26Z</time>
      </trkpt>
      <trkpt lat="45.87808" lon="5.83348">
        <ele>243.1</ele>
        <time>2022-09-26T11:11:27Z</time>
      </trkpt>
      <trkpt lat="45.87813" lon="5.83349">
        <ele>243.1</ele>
        <time>2022-09-26T11:11:28Z</time>
      </trkpt>
      <trkpt lat="45.87817" lon="5.83349">
        <ele>243.2</ele>
        <time>2022-09-26T11:11:29Z</time>
      </trkpt>
      <trkpt lat="45.87821" lon="5.8335">
        <ele>243.2</ele>
        <time>2022-09-26T11:11:30Z</time>
      </trkpt>
      <trkpt lat="45.87826" lon="5.83351">
        <ele>243.3</ele>
        <time>2022-09-26T11:11:31Z</time>
      </trkpt>
      <trkpt lat="45.87831" lon="5.83351">
        <ele>243.3</ele>
        <time>2022-09-26T11:11:32Z</time>
      </trkpt>
      <trkpt lat="45.87834" lon="5.83352">
        <ele>243.4</ele>
        <time>2022-09-26T11:11:33Z</time>
      </trkpt>
      <trkpt lat="45.87838" lon="5.83353">
        <ele>243.4</ele>
        <time>2022-09-26T11:11:34Z</time>
      </trkpt>
      <trkpt lat="45.87842" lon="5.83352">
        <ele>243.5</ele>
        <time>2022-09-26T11:11:35Z</time>
      </trkpt>
      <trkpt lat="45.87848" lon="5.83354">
        <ele>243.5</ele>
        <time>2022-09-26T11:11:36Z</time>
      </trkpt>
      <trkpt lat="45.87852" lon="5.83355">
        <ele>243.6</ele>
        <time>2022-09-26T11:11:37Z</time>
      </trkpt>
      <trkpt lat="45.87855" lon="5.83355">
        <ele>243.6</ele>
        <time>2022-09-26T11:11:38Z</time>
      </trkpt>
      <trkpt lat="45.87859" lon="5.83356">
        <ele>243.6</ele>
        <time>2022-09-26T11:11:39Z</time>
      </trkpt>
      <trkpt lat="45.87862" lon="5.83356">
        <ele>243.6</ele>
        <time>2022-09-26T11:11:40Z</time>
      </trkpt>
      <trkpt lat="45.87866" lon="5.83355">
        <ele>243.7</ele>
        <time>2022-09-26T11:11:41Z</time>
      </trkpt>
      <trkpt lat="45.8787" lon="5.83355">
        <ele>243.7</ele>
        <time>2022-09-26T11:11:42Z</time>
      </trkpt>
      <trkpt lat="45.87872" lon="5.83354">
        <ele>243.7</ele>
        <time>2022-09-26T11:11:43Z</time>
      </trkpt>
      <trkpt lat="45.87875" lon="5.83355">
        <ele>243.7</ele>
        <time>2022-09-26T11:11:44Z</time>
      </trkpt>
      <trkpt lat="45.87879" lon="5.83355">
        <ele>243.7</ele>
        <time>2022-09-26T11:11:45Z</time>
      </trkpt>
      <trkpt lat="45.87882" lon="5.83356">
        <ele>243.7</ele>
        <time>2022-09-26T11:11:46Z</time>
      </trkpt>
      <trkpt lat="45.87886" lon="5.83356">
        <ele>243.6</ele>
        <time>2022-09-26T11:11:47Z</time>
      </trkpt>
      <trkpt lat="45.8789" lon="5.83356">
        <ele>243.6</ele>
        <time>2022-09-26T11:11:48Z</time>
      </trkpt>
      <trkpt lat="45.87894" lon="5.83357">
        <ele>243.6</ele>
        <time>2022-09-26T11:11:49Z</time>
      </trkpt>
      <trkpt lat="45.87898" lon="5.83357">
        <ele>243.5</ele>
        <time>2022-09-26T11:11:50Z</time>
      </trkpt>
      <trkpt lat="45.87902" lon="5.83358">
        <ele>243.5</ele>
        <time>2022-09-26T11:11:51Z</time>
      </trkpt>
      <trkpt lat="45.87907" lon="5.83358">
        <ele>243.5</ele>
        <time>2022-09-26T11:11:52Z</time>
      </trkpt>
      <trkpt lat="45.87911" lon="5.83359">
        <ele>243.5</ele>
        <time>2022-09-26T11:11:53Z</time>
      </trkpt>
      <trkpt lat="45.87916" lon="5.83358">
        <ele>243.5</ele>
        <time>2022-09-26T11:11:54Z</time>
      </trkpt>
      <trkpt lat="45.8792" lon="5.83358">
        <ele>243.5</ele>
        <time>2022-09-26T11:11:55Z</time>
      </trkpt>
      <trkpt lat="45.87924" lon="5.83357">
        <ele>243.5</ele>
        <time>2022-09-26T11:11:56Z</time>
      </trkpt>
      <trkpt lat="45.87929" lon="5.83358">
        <ele>243.5</ele>
        <time>2022-09-26T11:11:57Z</time>
      </trkpt>
      <trkpt lat="45.87934" lon="5.83358">
        <ele>243.5</ele>
        <time>2022-09-26T11:11:58Z</time>
      </trkpt>
      <trkpt lat="45.87937" lon="5.83358">
        <ele>243.5</ele>
        <time>2022-09-26T11:11:59Z</time>
      </trkpt>
      <trkpt lat="45.87942" lon="5.83358">
        <ele>243.6</ele>
        <time>2022-09-26T11:12:00Z</time>
      </trkpt>
      <trkpt lat="45.87946" lon="5.83358">
        <ele>243.6</ele>
        <time>2022-09-26T11:12:01Z</time>
      </trkpt>
      <trkpt lat="45.87951" lon="5.83357">
        <ele>243.6</ele>
        <time>2022-09-26T11:12:02Z</time>
      </trkpt>
      <trkpt lat="45.87956" lon="5.83357">
        <ele>243.6</ele>
        <time>2022-09-26T11:12:03Z</time>
      </trkpt>
      <trkpt lat="45.87961" lon="5.83358">
        <ele>243.6</ele>
        <time>2022-09-26T11:12:04Z</time>
      </trkpt>
      <trkpt lat="45.87966" lon="5.83358">
        <ele>243.6</ele>
        <time>2022-09-26T11:12:05Z</time>
      </trkpt>
      <trkpt lat="45.8797" lon="5.83359">
        <ele>243.6</ele>
        <time>2022-09-26T11:12:06Z</time>
      </trkpt>
      <trkpt lat="45.87975" lon="5.83359">
        <ele>243.6</ele>
        <time>2022-09-26T11:12:07Z</time>
      </trkpt>
      <trkpt lat="45.8798" lon="5.83359">
        <ele>243.7</ele>
        <time>2022-09-26T11:12:08Z</time>
      </trkpt>
      <trkpt lat="45.87985" lon="5.8336">
        <ele>243.7</ele>
        <time>2022-09-26T11:12:09Z</time>
      </trkpt>
      <trkpt lat="45.8799" lon="5.8336">
        <ele>243.7</ele>
        <time>2022-09-26T11:12:10Z</time>
      </trkpt>
      <trkpt lat="45.87995" lon="5.8336">
        <ele>243.7</ele>
        <time>2022-09-26T11:12:11Z</time>
      </trkpt>
      <trkpt lat="45.87999" lon="5.83361">
        <ele>243.8</ele>
        <time>2022-09-26T11:12:12Z</time>
      </trkpt>
      <trkpt lat="45.88004" lon="5.83361">
        <ele>243.8</ele>
        <time>2022-09-26T11:12:13Z</time>
      </trkpt>
      <trkpt lat="45.88008" lon="5.83361">
        <ele>243.8</ele>
        <time>2022-09-26T11:12:14Z</time>
      </trkpt>
      <trkpt lat="45.88012" lon="5.83363">
        <ele>243.8</ele>
        <time>2022-09-26T11:12:15Z</time>
      </trkpt>
      <trkpt lat="45.88018" lon="5.83363">
        <ele>243.9</ele>
        <time>2022-09-26T11:12:16Z</time>
      </trkpt>
      <trkpt lat="45.88022" lon="5.83363">
        <ele>243.9</ele>
        <time>2022-09-26T11:12:17Z</time>
      </trkpt>
      <trkpt lat="45.88027" lon="5.83362">
        <ele>243.9</ele>
        <time>2022-09-26T11:12:18Z</time>
      </trkpt>
      <trkpt lat="45.88031" lon="5.83362">
        <ele>243.9</ele>
        <time>2022-09-26T11:12:19Z</time>
      </trkpt>
      <trkpt lat="45.88035" lon="5.83363">
        <ele>243.9</ele>
        <time>2022-09-26T11:12:20Z</time>
      </trkpt>
      <trkpt lat="45.8804" lon="5.83363">
        <ele>244</ele>
        <time>2022-09-26T11:12:21Z</time>
      </trkpt>
      <trkpt lat="45.88045" lon="5.83364">
        <ele>244</ele>
        <time>2022-09-26T11:12:22Z</time>
      </trkpt>
      <trkpt lat="45.88049" lon="5.83365">
        <ele>244</ele>
        <time>2022-09-26T11:12:23Z</time>
      </trkpt>
      <trkpt lat="45.88053" lon="5.83366">
        <ele>244</ele>
        <time>2022-09-26T11:12:24Z</time>
      </trkpt>
      <trkpt lat="45.88057" lon="5.83368">
        <ele>244</ele>
        <time>2022-09-26T11:12:25Z</time>
      </trkpt>
      <trkpt lat="45.88062" lon="5.83371">
        <ele>244.1</ele>
        <time>2022-09-26T11:12:26Z</time>
      </trkpt>
      <trkpt lat="45.88065" lon="5.83374">
        <ele>244.1</ele>
        <time>2022-09-26T11:12:27Z</time>
      </trkpt>
      <trkpt lat="45.88068" lon="5.83378">
        <ele>244.1</ele>
        <time>2022-09-26T11:12:28Z</time>
      </trkpt>
      <trkpt lat="45.88072" lon="5.83382">
        <ele>244.2</ele>
        <time>2022-09-26T11:12:29Z</time>
      </trkpt>
      <trkpt lat="45.88076" lon="5.83383">
        <ele>244.2</ele>
        <time>2022-09-26T11:12:30Z</time>
      </trkpt>
      <trkpt lat="45.8808" lon="5.83384">
        <ele>244.2</ele>
        <time>2022-09-26T11:12:31Z</time>
      </trkpt>
      <trkpt lat="45.88084" lon="5.83387">
        <ele>244.3</ele>
        <time>2022-09-26T11:12:32Z</time>
      </trkpt>
      <trkpt lat="45.88088" lon="5.83388">
        <ele>244.3</ele>
        <time>2022-09-26T11:12:33Z</time>
      </trkpt>
      <trkpt lat="45.88092" lon="5.83389">
        <ele>244.4</ele>
        <time>2022-09-26T11:12:34Z</time>
      </trkpt>
      <trkpt lat="45.88096" lon="5.8339">
        <ele>244.4</ele>
        <time>2022-09-26T11:12:35Z</time>
      </trkpt>
      <trkpt lat="45.88098" lon="5.83392">
        <ele>244.4</ele>
        <time>2022-09-26T11:12:36Z</time>
      </trkpt>
      <trkpt lat="45.88104" lon="5.83393">
        <ele>244.4</ele>
        <time>2022-09-26T11:12:37Z</time>
      </trkpt>
      <trkpt lat="45.88109" lon="5.83396">
        <ele>244.4</ele>
        <time>2022-09-26T11:12:38Z</time>
      </trkpt>
      <trkpt lat="45.88115" lon="5.834">
        <ele>244.3</ele>
        <time>2022-09-26T11:12:39Z</time>
      </trkpt>
      <trkpt lat="45.8812" lon="5.83403">
        <ele>244.3</ele>
        <time>2022-09-26T11:12:40Z</time>
      </trkpt>
      <trkpt lat="45.88123" lon="5.83403">
        <ele>244.3</ele>
        <time>2022-09-26T11:12:41Z</time>
      </trkpt>
      <trkpt lat="45.88128" lon="5.83405">
        <ele>244.2</ele>
        <time>2022-09-26T11:12:42Z</time>
      </trkpt>
      <trkpt lat="45.88133" lon="5.83407">
        <ele>244.2</ele>
        <time>2022-09-26T11:12:43Z</time>
      </trkpt>
      <trkpt lat="45.88139" lon="5.8341">
        <ele>244.2</ele>
        <time>2022-09-26T11:12:44Z</time>
      </trkpt>
      <trkpt lat="45.88143" lon="5.83413">
        <ele>244.2</ele>
        <time>2022-09-26T11:12:45Z</time>
      </trkpt>
      <trkpt lat="45.88148" lon="5.83417">
        <ele>244.2</ele>
        <time>2022-09-26T11:12:46Z</time>
      </trkpt>
      <trkpt lat="45.88153" lon="5.83418">
        <ele>244.2</ele>
        <time>2022-09-26T11:12:47Z</time>
      </trkpt>
      <trkpt lat="45.88158" lon="5.83419">
        <ele>244.2</ele>
        <time>2022-09-26T11:12:48Z</time>
      </trkpt>
      <trkpt lat="45.88163" lon="5.83421">
        <ele>244.2</ele>
        <time>2022-09-26T11:12:49Z</time>
      </trkpt>
      <trkpt lat="45.88169" lon="5.83425">
        <ele>244.2</ele>
        <time>2022-09-26T11:12:50Z</time>
      </trkpt>
      <trkpt lat="45.88173" lon="5.83427">
        <ele>244.2</ele>
        <time>2022-09-26T11:12:51Z</time>
      </trkpt>
      <trkpt lat="45.88176" lon="5.83428">
        <ele>244.2</ele>
        <time>2022-09-26T11:12:52Z</time>
      </trkpt>
      <trkpt lat="45.88181" lon="5.83431">
        <ele>244.2</ele>
        <time>2022-09-26T11:12:53Z</time>
      </trkpt>
      <trkpt lat="45.88186" lon="5.83435">
        <ele>244.3</ele>
        <time>2022-09-26T11:12:54Z</time>
      </trkpt>
      <trkpt lat="45.8819" lon="5.83436">
        <ele>244.3</ele>
        <time>2022-09-26T11:12:55Z</time>
      </trkpt>
      <trkpt lat="45.88193" lon="5.83437">
        <ele>244.3</ele>
        <time>2022-09-26T11:12:56Z</time>
      </trkpt>
      <trkpt lat="45.88197" lon="5.83441">
        <ele>244.3</ele>
        <time>2022-09-26T11:12:57Z</time>
      </trkpt>
      <trkpt lat="45.88202" lon="5.83444">
        <ele>244.3</ele>
        <time>2022-09-26T11:12:58Z</time>
      </trkpt>
      <trkpt lat="45.88207" lon="5.83446">
        <ele>244.3</ele>
        <time>2022-09-26T11:12:59Z</time>
      </trkpt>
      <trkpt lat="45.88212" lon="5.83447">
        <ele>244.2</ele>
        <time>2022-09-26T11:13:00Z</time>
      </trkpt>
      <trkpt lat="45.88216" lon="5.83452">
        <ele>244.2</ele>
        <time>2022-09-26T11:13:01Z</time>
      </trkpt>
      <trkpt lat="45.8822" lon="5.83455">
        <ele>244.2</ele>
        <time>2022-09-26T11:13:02Z</time>
      </trkpt>
      <trkpt lat="45.88226" lon="5.83458">
        <ele>244.1</ele>
        <time>2022-09-26T11:13:03Z</time>
      </trkpt>
      <trkpt lat="45.88232" lon="5.83461">
        <ele>244.1</ele>
        <time>2022-09-26T11:13:04Z</time>
      </trkpt>
      <trkpt lat="45.88237" lon="5.83463">
        <ele>244.1</ele>
        <time>2022-09-26T11:13:05Z</time>
      </trkpt>
      <trkpt lat="45.88242" lon="5.83466">
        <ele>244.1</ele>
        <time>2022-09-26T11:13:06Z</time>
      </trkpt>
      <trkpt lat="45.88247" lon="5.83468">
        <ele>244.1</ele>
        <time>2022-09-26T11:13:07Z</time>
      </trkpt>
      <trkpt lat="45.88252" lon="5.8347">
        <ele>244.1</ele>
        <time>2022-09-26T11:13:08Z</time>
      </trkpt>
      <trkpt lat="45.88257" lon="5.83476">
        <ele>244</ele>
        <time>2022-09-26T11:13:09Z</time>
      </trkpt>
      <trkpt lat="45.88262" lon="5.83478">
        <ele>244</ele>
        <time>2022-09-26T11:13:10Z</time>
      </trkpt>
      <trkpt lat="45.88267" lon="5.83482">
        <ele>244</ele>
        <time>2022-09-26T11:13:11Z</time>
      </trkpt>
      <trkpt lat="45.88273" lon="5.83485">
        <ele>244</ele>
        <time>2022-09-26T11:13:12Z</time>
      </trkpt>
      <trkpt lat="45.88276" lon="5.8349">
        <ele>244.1</ele>
        <time>2022-09-26T11:13:13Z</time>
      </trkpt>
      <trkpt lat="45.88281" lon="5.83496">
        <ele>244.1</ele>
        <time>2022-09-26T11:13:14Z</time>
      </trkpt>
      <trkpt lat="45.88285" lon="5.83501">
        <ele>244.1</ele>
        <time>2022-09-26T11:13:15Z</time>
      </trkpt>
      <trkpt lat="45.88288" lon="5.83507">
        <ele>244.2</ele>
        <time>2022-09-26T11:13:16Z</time>
      </trkpt>
      <trkpt lat="45.88291" lon="5.83513">
        <ele>244.3</ele>
        <time>2022-09-26T11:13:17Z</time>
      </trkpt>
      <trkpt lat="45.88294" lon="5.83519">
        <ele>244.3</ele>
        <time>2022-09-26T11:13:18Z</time>
      </trkpt>
      <trkpt lat="45.88296" lon="5.83525">
        <ele>244.4</ele>
        <time>2022-09-26T11:13:19Z</time>
      </trkpt>
      <trkpt lat="45.88298" lon="5.83531">
        <ele>244.4</ele>
        <time>2022-09-26T11:13:20Z</time>
      </trkpt>
      <trkpt lat="45.88301" lon="5.83538">
        <ele>244.5</ele>
        <time>2022-09-26T11:13:21Z</time>
      </trkpt>
      <trkpt lat="45.88304" lon="5.83544">
        <ele>244.5</ele>
        <time>2022-09-26T11:13:22Z</time>
      </trkpt>
      <trkpt lat="45.88305" lon="5.83551">
        <ele>244.5</ele>
        <time>2022-09-26T11:13:23Z</time>
      </trkpt>
      <trkpt lat="45.88308" lon="5.83558">
        <ele>244.5</ele>
        <time>2022-09-26T11:13:24Z</time>
      </trkpt>
      <trkpt lat="45.88311" lon="5.83564">
        <ele>244.4</ele>
        <time>2022-09-26T11:13:25Z</time>
      </trkpt>
      <trkpt lat="45.88314" lon="5.83569">
        <ele>244.4</ele>
        <time>2022-09-26T11:13:26Z</time>
      </trkpt>
      <trkpt lat="45.88319" lon="5.83573">
        <ele>244.4</ele>
        <time>2022-09-26T11:13:27Z</time>
      </trkpt>
      <trkpt lat="45.88323" lon="5.83578">
        <ele>244.3</ele>
        <time>2022-09-26T11:13:28Z</time>
      </trkpt>
      <trkpt lat="45.88328" lon="5.83582">
        <ele>244.3</ele>
        <time>2022-09-26T11:13:29Z</time>
      </trkpt>
      <trkpt lat="45.88333" lon="5.83585">
        <ele>244.3</ele>
        <time>2022-09-26T11:13:30Z</time>
      </trkpt>
      <trkpt lat="45.88338" lon="5.83587">
        <ele>244.3</ele>
        <time>2022-09-26T11:13:31Z</time>
      </trkpt>
      <trkpt lat="45.88342" lon="5.83589">
        <ele>244.2</ele>
        <time>2022-09-26T11:13:32Z</time>
      </trkpt>
      <trkpt lat="45.88348" lon="5.8359">
        <ele>244.2</ele>
        <time>2022-09-26T11:13:33Z</time>
      </trkpt>
      <trkpt lat="45.88354" lon="5.8359">
        <ele>244.2</ele>
        <time>2022-09-26T11:13:34Z</time>
      </trkpt>
      <trkpt lat="45.88359" lon="5.83589">
        <ele>244.2</ele>
        <time>2022-09-26T11:13:35Z</time>
      </trkpt>
      <trkpt lat="45.88364" lon="5.83589">
        <ele>244.3</ele>
        <time>2022-09-26T11:13:36Z</time>
      </trkpt>
      <trkpt lat="45.88369" lon="5.83589">
        <ele>244.3</ele>
        <time>2022-09-26T11:13:37Z</time>
      </trkpt>
      <trkpt lat="45.88374" lon="5.83589">
        <ele>244.4</ele>
        <time>2022-09-26T11:13:38Z</time>
      </trkpt>
      <trkpt lat="45.8838" lon="5.8359">
        <ele>244.4</ele>
        <time>2022-09-26T11:13:39Z</time>
      </trkpt>
      <trkpt lat="45.88384" lon="5.83592">
        <ele>244.5</ele>
        <time>2022-09-26T11:13:40Z</time>
      </trkpt>
      <trkpt lat="45.88387" lon="5.83595">
        <ele>244.5</ele>
        <time>2022-09-26T11:13:41Z</time>
      </trkpt>
      <trkpt lat="45.88392" lon="5.836">
        <ele>244.5</ele>
        <time>2022-09-26T11:13:42Z</time>
      </trkpt>
      <trkpt lat="45.88396" lon="5.83605">
        <ele>244.5</ele>
        <time>2022-09-26T11:13:43Z</time>
      </trkpt>
      <trkpt lat="45.88398" lon="5.83611">
        <ele>244.5</ele>
        <time>2022-09-26T11:13:44Z</time>
      </trkpt>
      <trkpt lat="45.884" lon="5.83618">
        <ele>244.5</ele>
        <time>2022-09-26T11:13:45Z</time>
      </trkpt>
      <trkpt lat="45.88402" lon="5.83625">
        <ele>244.5</ele>
        <time>2022-09-26T11:13:46Z</time>
      </trkpt>
      <trkpt lat="45.88405" lon="5.83632">
        <ele>244.5</ele>
        <time>2022-09-26T11:13:47Z</time>
      </trkpt>
      <trkpt lat="45.88407" lon="5.83638">
        <ele>244.5</ele>
        <time>2022-09-26T11:13:48Z</time>
      </trkpt>
      <trkpt lat="45.88411" lon="5.83644">
        <ele>244.5</ele>
        <time>2022-09-26T11:13:49Z</time>
      </trkpt>
      <trkpt lat="45.88414" lon="5.83649">
        <ele>244.5</ele>
        <time>2022-09-26T11:13:50Z</time>
      </trkpt>
      <trkpt lat="45.88418" lon="5.83655">
        <ele>244.5</ele>
        <time>2022-09-26T11:13:51Z</time>
      </trkpt>
      <trkpt lat="45.88422" lon="5.83658">
        <ele>244.5</ele>
        <time>2022-09-26T11:13:52Z</time>
      </trkpt>
      <trkpt lat="45.88427" lon="5.83661">
        <ele>244.6</ele>
        <time>2022-09-26T11:13:53Z</time>
      </trkpt>
      <trkpt lat="45.88432" lon="5.83662">
        <ele>244.6</ele>
        <time>2022-09-26T11:13:54Z</time>
      </trkpt>
      <trkpt lat="45.88437" lon="5.83664">
        <ele>244.6</ele>
        <time>2022-09-26T11:13:55Z</time>
      </trkpt>
      <trkpt lat="45.88443" lon="5.83664">
        <ele>244.6</ele>
        <time>2022-09-26T11:13:56Z</time>
      </trkpt>
      <trkpt lat="45.88448" lon="5.83665">
        <ele>244.6</ele>
        <time>2022-09-26T11:13:57Z</time>
      </trkpt>
      <trkpt lat="45.88452" lon="5.83666">
        <ele>244.6</ele>
        <time>2022-09-26T11:13:58Z</time>
      </trkpt>
      <trkpt lat="45.88458" lon="5.83667">
        <ele>244.6</ele>
        <time>2022-09-26T11:13:59Z</time>
      </trkpt>
      <trkpt lat="45.88463" lon="5.83669">
        <ele>244.7</ele>
        <time>2022-09-26T11:14:00Z</time>
      </trkpt>
      <trkpt lat="45.88468" lon="5.8367">
        <ele>244.7</ele>
        <time>2022-09-26T11:14:01Z</time>
      </trkpt>
      <trkpt lat="45.88472" lon="5.8367">
        <ele>244.7</ele>
        <time>2022-09-26T11:14:02Z</time>
      </trkpt>
      <trkpt lat="45.88477" lon="5.83672">
        <ele>244.8</ele>
        <time>2022-09-26T11:14:03Z</time>
      </trkpt>
      <trkpt lat="45.88482" lon="5.83673">
        <ele>244.8</ele>
        <time>2022-09-26T11:14:04Z</time>
      </trkpt>
      <trkpt lat="45.88487" lon="5.83675">
        <ele>244.8</ele>
        <time>2022-09-26T11:14:05Z</time>
      </trkpt>
      <trkpt lat="45.88492" lon="5.83678">
        <ele>244.8</ele>
        <time>2022-09-26T11:14:06Z</time>
      </trkpt>
      <trkpt lat="45.88496" lon="5.83683">
        <ele>244.9</ele>
        <time>2022-09-26T11:14:07Z</time>
      </trkpt>
      <trkpt lat="45.88499" lon="5.83688">
        <ele>244.9</ele>
        <time>2022-09-26T11:14:08Z</time>
      </trkpt>
      <trkpt lat="45.88502" lon="5.83693">
        <ele>244.9</ele>
        <time>2022-09-26T11:14:09Z</time>
      </trkpt>
      <trkpt lat="45.88505" lon="5.837">
        <ele>244.9</ele>
        <time>2022-09-26T11:14:10Z</time>
      </trkpt>
      <trkpt lat="45.88506" lon="5.83706">
        <ele>244.9</ele>
        <time>2022-09-26T11:14:11Z</time>
      </trkpt>
      <trkpt lat="45.88508" lon="5.83713">
        <ele>245</ele>
        <time>2022-09-26T11:14:12Z</time>
      </trkpt>
      <trkpt lat="45.88509" lon="5.8372">
        <ele>245</ele>
        <time>2022-09-26T11:14:13Z</time>
      </trkpt>
      <trkpt lat="45.88509" lon="5.83726">
        <ele>245</ele>
        <time>2022-09-26T11:14:14Z</time>
      </trkpt>
      <trkpt lat="45.8851" lon="5.83733">
        <ele>245</ele>
        <time>2022-09-26T11:14:15Z</time>
      </trkpt>
      <trkpt lat="45.88511" lon="5.8374">
        <ele>245</ele>
        <time>2022-09-26T11:14:16Z</time>
      </trkpt>
      <trkpt lat="45.88512" lon="5.83747">
        <ele>245</ele>
        <time>2022-09-26T11:14:17Z</time>
      </trkpt>
      <trkpt lat="45.88512" lon="5.83754">
        <ele>245</ele>
        <time>2022-09-26T11:14:18Z</time>
      </trkpt>
      <trkpt lat="45.88513" lon="5.83761">
        <ele>245</ele>
        <time>2022-09-26T11:14:19Z</time>
      </trkpt>
      <trkpt lat="45.88514" lon="5.83768">
        <ele>245</ele>
        <time>2022-09-26T11:14:20Z</time>
      </trkpt>
      <trkpt lat="45.88515" lon="5.83775">
        <ele>245</ele>
        <time>2022-09-26T11:14:21Z</time>
      </trkpt>
      <trkpt lat="45.88515" lon="5.83782">
        <ele>245</ele>
        <time>2022-09-26T11:14:22Z</time>
      </trkpt>
      <trkpt lat="45.88516" lon="5.83789">
        <ele>244.9</ele>
        <time>2022-09-26T11:14:23Z</time>
      </trkpt>
      <trkpt lat="45.88517" lon="5.83796">
        <ele>244.9</ele>
        <time>2022-09-26T11:14:24Z</time>
      </trkpt>
      <trkpt lat="45.88518" lon="5.83804">
        <ele>244.9</ele>
        <time>2022-09-26T11:14:25Z</time>
      </trkpt>
      <trkpt lat="45.88519" lon="5.83811">
        <ele>244.9</ele>
        <time>2022-09-26T11:14:26Z</time>
      </trkpt>
      <trkpt lat="45.8852" lon="5.83819">
        <ele>244.9</ele>
        <time>2022-09-26T11:14:27Z</time>
      </trkpt>
      <trkpt lat="45.8852" lon="5.83826">
        <ele>244.9</ele>
        <time>2022-09-26T11:14:28Z</time>
      </trkpt>
      <trkpt lat="45.88521" lon="5.83833">
        <ele>244.8</ele>
        <time>2022-09-26T11:14:29Z</time>
      </trkpt>
      <trkpt lat="45.88521" lon="5.83841">
        <ele>244.8</ele>
        <time>2022-09-26T11:14:30Z</time>
      </trkpt>
      <trkpt lat="45.88522" lon="5.83848">
        <ele>244.8</ele>
        <time>2022-09-26T11:14:31Z</time>
      </trkpt>
      <trkpt lat="45.88522" lon="5.83855">
        <ele>244.8</ele>
        <time>2022-09-26T11:14:32Z</time>
      </trkpt>
      <trkpt lat="45.88523" lon="5.83862">
        <ele>244.8</ele>
        <time>2022-09-26T11:14:33Z</time>
      </trkpt>
      <trkpt lat="45.88523" lon="5.83869">
        <ele>244.8</ele>
        <time>2022-09-26T11:14:34Z</time>
      </trkpt>
      <trkpt lat="45.88524" lon="5.83876">
        <ele>244.8</ele>
        <time>2022-09-26T11:14:35Z</time>
      </trkpt>
      <trkpt lat="45.88526" lon="5.83883">
        <ele>244.8</ele>
        <time>2022-09-26T11:14:36Z</time>
      </trkpt>
      <trkpt lat="45.88527" lon="5.83891">
        <ele>244.8</ele>
        <time>2022-09-26T11:14:37Z</time>
      </trkpt>
      <trkpt lat="45.88528" lon="5.83897">
        <ele>244.8</ele>
        <time>2022-09-26T11:14:38Z</time>
      </trkpt>
      <trkpt lat="45.88529" lon="5.83905">
        <ele>244.8</ele>
        <time>2022-09-26T11:14:39Z</time>
      </trkpt>
      <trkpt lat="45.88531" lon="5.83911">
        <ele>244.8</ele>
        <time>2022-09-26T11:14:40Z</time>
      </trkpt>
      <trkpt lat="45.88532" lon="5.83918">
        <ele>244.8</ele>
        <time>2022-09-26T11:14:41Z</time>
      </trkpt>
      <trkpt lat="45.88534" lon="5.83924">
        <ele>244.8</ele>
        <time>2022-09-26T11:14:42Z</time>
      </trkpt>
      <trkpt lat="45.88536" lon="5.83931">
        <ele>244.8</ele>
        <time>2022-09-26T11:14:43Z</time>
      </trkpt>
      <trkpt lat="45.88539" lon="5.83937">
        <ele>244.9</ele>
        <time>2022-09-26T11:14:44Z</time>
      </trkpt>
      <trkpt lat="45.88542" lon="5.83942">
        <ele>244.9</ele>
        <time>2022-09-26T11:14:45Z</time>
      </trkpt>
      <trkpt lat="45.88546" lon="5.83947">
        <ele>244.9</ele>
        <time>2022-09-26T11:14:46Z</time>
      </trkpt>
      <trkpt lat="45.8855" lon="5.8395">
        <ele>244.9</ele>
        <time>2022-09-26T11:14:47Z</time>
      </trkpt>
      <trkpt lat="45.88554" lon="5.83954">
        <ele>244.9</ele>
        <time>2022-09-26T11:14:48Z</time>
      </trkpt>
      <trkpt lat="45.88558" lon="5.83957">
        <ele>244.9</ele>
        <time>2022-09-26T11:14:49Z</time>
      </trkpt>
      <trkpt lat="45.88564" lon="5.8396">
        <ele>245</ele>
        <time>2022-09-26T11:14:50Z</time>
      </trkpt>
      <trkpt lat="45.88568" lon="5.83962">
        <ele>245</ele>
        <time>2022-09-26T11:14:51Z</time>
      </trkpt>
      <trkpt lat="45.88573" lon="5.83965">
        <ele>245</ele>
        <time>2022-09-26T11:14:52Z</time>
      </trkpt>
      <trkpt lat="45.88578" lon="5.83967">
        <ele>245</ele>
        <time>2022-09-26T11:14:53Z</time>
      </trkpt>
      <trkpt lat="45.88583" lon="5.83969">
        <ele>245</ele>
        <time>2022-09-26T11:14:54Z</time>
      </trkpt>
      <trkpt lat="45.88588" lon="5.83971">
        <ele>245</ele>
        <time>2022-09-26T11:14:55Z</time>
      </trkpt>
      <trkpt lat="45.88593" lon="5.83973">
        <ele>245</ele>
        <time>2022-09-26T11:14:56Z</time>
      </trkpt>
      <trkpt lat="45.88598" lon="5.83974">
        <ele>245</ele>
        <time>2022-09-26T11:14:57Z</time>
      </trkpt>
      <trkpt lat="45.88602" lon="5.83977">
        <ele>244.9</ele>
        <time>2022-09-26T11:14:58Z</time>
      </trkpt>
      <trkpt lat="45.88608" lon="5.83979">
        <ele>244.9</ele>
        <time>2022-09-26T11:14:59Z</time>
      </trkpt>
      <trkpt lat="45.88613" lon="5.83982">
        <ele>244.9</ele>
        <time>2022-09-26T11:15:00Z</time>
      </trkpt>
      <trkpt lat="45.88618" lon="5.83985">
        <ele>244.9</ele>
        <time>2022-09-26T11:15:01Z</time>
      </trkpt>
      <trkpt lat="45.88622" lon="5.83988">
        <ele>244.9</ele>
        <time>2022-09-26T11:15:02Z</time>
      </trkpt>
      <trkpt lat="45.88626" lon="5.83993">
        <ele>245</ele>
        <time>2022-09-26T11:15:03Z</time>
      </trkpt>
      <trkpt lat="45.8863" lon="5.83998">
        <ele>245</ele>
        <time>2022-09-26T11:15:04Z</time>
      </trkpt>
      <trkpt lat="45.88633" lon="5.84004">
        <ele>245</ele>
        <time>2022-09-26T11:15:05Z</time>
      </trkpt>
      <trkpt lat="45.88636" lon="5.84009">
        <ele>245</ele>
        <time>2022-09-26T11:15:06Z</time>
      </trkpt>
      <trkpt lat="45.88638" lon="5.84015">
        <ele>245</ele>
        <time>2022-09-26T11:15:07Z</time>
      </trkpt>
      <trkpt lat="45.8864" lon="5.84021">
        <ele>245.1</ele>
        <time>2022-09-26T11:15:08Z</time>
      </trkpt>
      <trkpt lat="45.88642" lon="5.84026">
        <ele>245.1</ele>
        <time>2022-09-26T11:15:09Z</time>
      </trkpt>
      <trkpt lat="45.88644" lon="5.84032">
        <ele>245.1</ele>
        <time>2022-09-26T11:15:10Z</time>
      </trkpt>
      <trkpt lat="45.88646" lon="5.84037">
        <ele>245.1</ele>
        <time>2022-09-26T11:15:11Z</time>
      </trkpt>
      <trkpt lat="45.88648" lon="5.8404">
        <ele>245.1</ele>
        <time>2022-09-26T11:15:12Z</time>
      </trkpt>
      <trkpt lat="45.8865" lon="5.84043">
        <ele>245.1</ele>
        <time>2022-09-26T11:15:13Z</time>
      </trkpt>
      <trkpt lat="45.88653" lon="5.84045">
        <ele>245.1</ele>
        <time>2022-09-26T11:15:14Z</time>
      </trkpt>
      <trkpt lat="45.88657" lon="5.84044">
        <ele>245.1</ele>
        <time>2022-09-26T11:15:15Z</time>
      </trkpt>
      <trkpt lat="45.8866" lon="5.84044">
        <ele>245.1</ele>
        <time>2022-09-26T11:15:16Z</time>
      </trkpt>
      <trkpt lat="45.88665" lon="5.84043">
        <ele>245.1</ele>
        <time>2022-09-26T11:15:17Z</time>
      </trkpt>
      <trkpt lat="45.88669" lon="5.84044">
        <ele>245.1</ele>
        <time>2022-09-26T11:15:18Z</time>
      </trkpt>
      <trkpt lat="45.88674" lon="5.84045">
        <ele>245.1</ele>
        <time>2022-09-26T11:15:19Z</time>
      </trkpt>
      <trkpt lat="45.88678" lon="5.84045">
        <ele>245.1</ele>
        <time>2022-09-26T11:15:20Z</time>
      </trkpt>
      <trkpt lat="45.88683" lon="5.84044">
        <ele>245.1</ele>
        <time>2022-09-26T11:15:21Z</time>
      </trkpt>
      <trkpt lat="45.88686" lon="5.84043">
        <ele>245.1</ele>
        <time>2022-09-26T11:15:22Z</time>
      </trkpt>
      <trkpt lat="45.8869" lon="5.8404">
        <ele>245.1</ele>
        <time>2022-09-26T11:15:23Z</time>
      </trkpt>
      <trkpt lat="45.88693" lon="5.84035">
        <ele>245.2</ele>
        <time>2022-09-26T11:15:24Z</time>
      </trkpt>
      <trkpt lat="45.88697" lon="5.84031">
        <ele>245.1</ele>
        <time>2022-09-26T11:15:25Z</time>
      </trkpt>
      <trkpt lat="45.88701" lon="5.84029">
        <ele>245.1</ele>
        <time>2022-09-26T11:15:26Z</time>
      </trkpt>
      <trkpt lat="45.88705" lon="5.84029">
        <ele>245</ele>
        <time>2022-09-26T11:15:27Z</time>
      </trkpt>
      <trkpt lat="45.8871" lon="5.84029">
        <ele>245</ele>
        <time>2022-09-26T11:15:28Z</time>
      </trkpt>
      <trkpt lat="45.88715" lon="5.8403">
        <ele>245</ele>
        <time>2022-09-26T11:15:29Z</time>
      </trkpt>
      <trkpt lat="45.88719" lon="5.8403">
        <ele>244.9</ele>
        <time>2022-09-26T11:15:30Z</time>
      </trkpt>
      <trkpt lat="45.88724" lon="5.8403">
        <ele>244.9</ele>
        <time>2022-09-26T11:15:31Z</time>
      </trkpt>
      <trkpt lat="45.88729" lon="5.84031">
        <ele>244.9</ele>
        <time>2022-09-26T11:15:32Z</time>
      </trkpt>
      <trkpt lat="45.88733" lon="5.84032">
        <ele>244.9</ele>
        <time>2022-09-26T11:15:33Z</time>
      </trkpt>
      <trkpt lat="45.88739" lon="5.84032">
        <ele>244.8</ele>
        <time>2022-09-26T11:15:34Z</time>
      </trkpt>
      <trkpt lat="45.88744" lon="5.84032">
        <ele>244.8</ele>
        <time>2022-09-26T11:15:35Z</time>
      </trkpt>
      <trkpt lat="45.88749" lon="5.84033">
        <ele>244.8</ele>
        <time>2022-09-26T11:15:36Z</time>
      </trkpt>
      <trkpt lat="45.88754" lon="5.84033">
        <ele>244.7</ele>
        <time>2022-09-26T11:15:37Z</time>
      </trkpt>
      <trkpt lat="45.88759" lon="5.84033">
        <ele>244.7</ele>
        <time>2022-09-26T11:15:38Z</time>
      </trkpt>
      <trkpt lat="45.88765" lon="5.84033">
        <ele>244.7</ele>
        <time>2022-09-26T11:15:39Z</time>
      </trkpt>
      <trkpt lat="45.88771" lon="5.84032">
        <ele>244.7</ele>
        <time>2022-09-26T11:15:40Z</time>
      </trkpt>
      <trkpt lat="45.88775" lon="5.84034">
        <ele>244.7</ele>
        <time>2022-09-26T11:15:41Z</time>
      </trkpt>
      <trkpt lat="45.8878" lon="5.84034">
        <ele>244.7</ele>
        <time>2022-09-26T11:15:42Z</time>
      </trkpt>
      <trkpt lat="45.88786" lon="5.84034">
        <ele>244.7</ele>
        <time>2022-09-26T11:15:43Z</time>
      </trkpt>
      <trkpt lat="45.88791" lon="5.84033">
        <ele>244.7</ele>
        <time>2022-09-26T11:15:44Z</time>
      </trkpt>
      <trkpt lat="45.88797" lon="5.84033">
        <ele>244.7</ele>
        <time>2022-09-26T11:15:45Z</time>
      </trkpt>
      <trkpt lat="45.88801" lon="5.84033">
        <ele>244.7</ele>
        <time>2022-09-26T11:15:46Z</time>
      </trkpt>
      <trkpt lat="45.88807" lon="5.84034">
        <ele>244.7</ele>
        <time>2022-09-26T11:15:47Z</time>
      </trkpt>
      <trkpt lat="45.88813" lon="5.84033">
        <ele>244.7</ele>
        <time>2022-09-26T11:15:48Z</time>
      </trkpt>
      <trkpt lat="45.88818" lon="5.84035">
        <ele>244.7</ele>
        <time>2022-09-26T11:15:49Z</time>
      </trkpt>
      <trkpt lat="45.88823" lon="5.84034">
        <ele>244.7</ele>
        <time>2022-09-26T11:15:50Z</time>
      </trkpt>
      <trkpt lat="45.88828" lon="5.84034">
        <ele>244.7</ele>
        <time>2022-09-26T11:15:51Z</time>
      </trkpt>
      <trkpt lat="45.88834" lon="5.84035">
        <ele>244.7</ele>
        <time>2022-09-26T11:15:52Z</time>
      </trkpt>
      <trkpt lat="45.88839" lon="5.84034">
        <ele>244.7</ele>
        <time>2022-09-26T11:15:53Z</time>
      </trkpt>
      <trkpt lat="45.88845" lon="5.84035">
        <ele>244.7</ele>
        <time>2022-09-26T11:15:54Z</time>
      </trkpt>
      <trkpt lat="45.8885" lon="5.84035">
        <ele>244.7</ele>
        <time>2022-09-26T11:15:55Z</time>
      </trkpt>
      <trkpt lat="45.88855" lon="5.84035">
        <ele>244.7</ele>
        <time>2022-09-26T11:15:56Z</time>
      </trkpt>
      <trkpt lat="45.8886" lon="5.84035">
        <ele>244.7</ele>
        <time>2022-09-26T11:15:57Z</time>
      </trkpt>
      <trkpt lat="45.88865" lon="5.84034">
        <ele>244.6</ele>
        <time>2022-09-26T11:15:58Z</time>
      </trkpt>
      <trkpt lat="45.88871" lon="5.84035">
        <ele>244.6</ele>
        <time>2022-09-26T11:15:59Z</time>
      </trkpt>
      <trkpt lat="45.88876" lon="5.84035">
        <ele>244.6</ele>
        <time>2022-09-26T11:16:00Z</time>
      </trkpt>
      <trkpt lat="45.88881" lon="5.84035">
        <ele>244.6</ele>
        <time>2022-09-26T11:16:01Z</time>
      </trkpt>
      <trkpt lat="45.88886" lon="5.84035">
        <ele>244.6</ele>
        <time>2022-09-26T11:16:02Z</time>
      </trkpt>
      <trkpt lat="45.88892" lon="5.84035">
        <ele>244.5</ele>
        <time>2022-09-26T11:16:03Z</time>
      </trkpt>
      <trkpt lat="45.88897" lon="5.84035">
        <ele>244.5</ele>
        <time>2022-09-26T11:16:04Z</time>
      </trkpt>
      <trkpt lat="45.88902" lon="5.84036">
        <ele>244.5</ele>
        <time>2022-09-26T11:16:05Z</time>
      </trkpt>
      <trkpt lat="45.88907" lon="5.84036">
        <ele>244.5</ele>
        <time>2022-09-26T11:16:06Z</time>
      </trkpt>
      <trkpt lat="45.88913" lon="5.84036">
        <ele>244.5</ele>
        <time>2022-09-26T11:16:07Z</time>
      </trkpt>
      <trkpt lat="45.88918" lon="5.84036">
        <ele>244.5</ele>
        <time>2022-09-26T11:16:08Z</time>
      </trkpt>
      <trkpt lat="45.88923" lon="5.84037">
        <ele>244.6</ele>
        <time>2022-09-26T11:16:09Z</time>
      </trkpt>
      <trkpt lat="45.88928" lon="5.84037">
        <ele>244.6</ele>
        <time>2022-09-26T11:16:10Z</time>
      </trkpt>
      <trkpt lat="45.88933" lon="5.84037">
        <ele>244.7</ele>
        <time>2022-09-26T11:16:11Z</time>
      </trkpt>
      <trkpt lat="45.88939" lon="5.84037">
        <ele>244.7</ele>
        <time>2022-09-26T11:16:12Z</time>
      </trkpt>
      <trkpt lat="45.88943" lon="5.84036">
        <ele>244.8</ele>
        <time>2022-09-26T11:16:13Z</time>
      </trkpt>
      <trkpt lat="45.88948" lon="5.84036">
        <ele>244.8</ele>
        <time>2022-09-26T11:16:14Z</time>
      </trkpt>
      <trkpt lat="45.88953" lon="5.84036">
        <ele>244.9</ele>
        <time>2022-09-26T11:16:15Z</time>
      </trkpt>
      <trkpt lat="45.88957" lon="5.84036">
        <ele>245</ele>
        <time>2022-09-26T11:16:16Z</time>
      </trkpt>
      <trkpt lat="45.88961" lon="5.84036">
        <ele>245.1</ele>
        <time>2022-09-26T11:16:17Z</time>
      </trkpt>
      <trkpt lat="45.88965" lon="5.84036">
        <ele>245.2</ele>
        <time>2022-09-26T11:16:18Z</time>
      </trkpt>
      <trkpt lat="45.88968" lon="5.84036">
        <ele>245.3</ele>
        <time>2022-09-26T11:16:19Z</time>
      </trkpt>
      <trkpt lat="45.88971" lon="5.84036">
        <ele>245.4</ele>
        <time>2022-09-26T11:16:20Z</time>
      </trkpt>
      <trkpt lat="45.88972" lon="5.84037">
        <ele>245.4</ele>
        <time>2022-09-26T11:16:21Z</time>
      </trkpt>
      <trkpt lat="45.88973" lon="5.84036">
        <ele>245.5</ele>
        <time>2022-09-26T11:16:22Z</time>
      </trkpt>
      <trkpt lat="45.88975" lon="5.84035">
        <ele>245.5</ele>
        <time>2022-09-26T11:16:23Z</time>
      </trkpt>
      <trkpt lat="45.88976" lon="5.84029">
        <ele>245.4</ele>
        <time>2022-09-26T11:16:24Z</time>
      </trkpt>
      <trkpt lat="45.88977" lon="5.84027">
        <ele>245.4</ele>
        <time>2022-09-26T11:16:25Z</time>
      </trkpt>
      <trkpt lat="45.88977" lon="5.84023">
        <ele>245.3</ele>
        <time>2022-09-26T11:16:26Z</time>
      </trkpt>
      <trkpt lat="45.88977" lon="5.84018">
        <ele>245.3</ele>
        <time>2022-09-26T11:16:27Z</time>
      </trkpt>
      <trkpt lat="45.88978" lon="5.84014">
        <ele>245.2</ele>
        <time>2022-09-26T11:16:28Z</time>
      </trkpt>
      <trkpt lat="45.88978" lon="5.84008">
        <ele>245.1</ele>
        <time>2022-09-26T11:16:29Z</time>
      </trkpt>
      <trkpt lat="45.88979" lon="5.84003">
        <ele>245</ele>
        <time>2022-09-26T11:16:30Z</time>
      </trkpt>
      <trkpt lat="45.88979" lon="5.83997">
        <ele>244.9</ele>
        <time>2022-09-26T11:16:31Z</time>
      </trkpt>
      <trkpt lat="45.8898" lon="5.83991">
        <ele>244.8</ele>
        <time>2022-09-26T11:16:32Z</time>
      </trkpt>
      <trkpt lat="45.8898" lon="5.83985">
        <ele>244.8</ele>
        <time>2022-09-26T11:16:33Z</time>
      </trkpt>
      <trkpt lat="45.88981" lon="5.83979">
        <ele>244.7</ele>
        <time>2022-09-26T11:16:34Z</time>
      </trkpt>
      <trkpt lat="45.88981" lon="5.83973">
        <ele>244.7</ele>
        <time>2022-09-26T11:16:35Z</time>
      </trkpt>
      <trkpt lat="45.88982" lon="5.83966">
        <ele>244.6</ele>
        <time>2022-09-26T11:16:36Z</time>
      </trkpt>
      <trkpt lat="45.88983" lon="5.83959">
        <ele>244.6</ele>
        <time>2022-09-26T11:16:37Z</time>
      </trkpt>
      <trkpt lat="45.88983" lon="5.83953">
        <ele>244.6</ele>
        <time>2022-09-26T11:16:38Z</time>
      </trkpt>
      <trkpt lat="45.88984" lon="5.83946">
        <ele>244.5</ele>
        <time>2022-09-26T11:16:39Z</time>
      </trkpt>
      <trkpt lat="45.88984" lon="5.8394">
        <ele>244.5</ele>
        <time>2022-09-26T11:16:40Z</time>
      </trkpt>
      <trkpt lat="45.88985" lon="5.83933">
        <ele>244.5</ele>
        <time>2022-09-26T11:16:41Z</time>
      </trkpt>
      <trkpt lat="45.88985" lon="5.83927">
        <ele>244.5</ele>
        <time>2022-09-26T11:16:42Z</time>
      </trkpt>
      <trkpt lat="45.88986" lon="5.8392">
        <ele>244.5</ele>
        <time>2022-09-26T11:16:43Z</time>
      </trkpt>
      <trkpt lat="45.88986" lon="5.83913">
        <ele>244.4</ele>
        <time>2022-09-26T11:16:44Z</time>
      </trkpt>
      <trkpt lat="45.88986" lon="5.83907">
        <ele>244.4</ele>
        <time>2022-09-26T11:16:45Z</time>
      </trkpt>
      <trkpt lat="45.88987" lon="5.839">
        <ele>244.4</ele>
        <time>2022-09-26T11:16:46Z</time>
      </trkpt>
      <trkpt lat="45.88987" lon="5.83892">
        <ele>244.4</ele>
        <time>2022-09-26T11:16:47Z</time>
      </trkpt>
      <trkpt lat="45.88988" lon="5.83885">
        <ele>244.3</ele>
        <time>2022-09-26T11:16:48Z</time>
      </trkpt>
      <trkpt lat="45.88988" lon="5.83877">
        <ele>244.3</ele>
        <time>2022-09-26T11:16:49Z</time>
      </trkpt>
      <trkpt lat="45.88988" lon="5.8387">
        <ele>244.2</ele>
        <time>2022-09-26T11:16:50Z</time>
      </trkpt>
      <trkpt lat="45.88988" lon="5.83863">
        <ele>244.2</ele>
        <time>2022-09-26T11:16:51Z</time>
      </trkpt>
      <trkpt lat="45.88988" lon="5.83856">
        <ele>244.2</ele>
        <time>2022-09-26T11:16:52Z</time>
      </trkpt>
      <trkpt lat="45.88988" lon="5.83848">
        <ele>244.2</ele>
        <time>2022-09-26T11:16:53Z</time>
      </trkpt>
      <trkpt lat="45.88988" lon="5.83841">
        <ele>244.2</ele>
        <time>2022-09-26T11:16:54Z</time>
      </trkpt>
      <trkpt lat="45.88988" lon="5.83833">
        <ele>244.1</ele>
        <time>2022-09-26T11:16:55Z</time>
      </trkpt>
      <trkpt lat="45.88988" lon="5.83825">
        <ele>244.1</ele>
        <time>2022-09-26T11:16:56Z</time>
      </trkpt>
      <trkpt lat="45.88988" lon="5.83819">
        <ele>244.1</ele>
        <time>2022-09-26T11:16:57Z</time>
      </trkpt>
      <trkpt lat="45.88988" lon="5.83811">
        <ele>244.1</ele>
        <time>2022-09-26T11:16:58Z</time>
      </trkpt>
      <trkpt lat="45.88987" lon="5.83804">
        <ele>244</ele>
        <time>2022-09-26T11:16:59Z</time>
      </trkpt>
      <trkpt lat="45.88987" lon="5.83797">
        <ele>244</ele>
        <time>2022-09-26T11:17:00Z</time>
      </trkpt>
      <trkpt lat="45.88987" lon="5.83789">
        <ele>244</ele>
        <time>2022-09-26T11:17:01Z</time>
      </trkpt>
      <trkpt lat="45.88987" lon="5.83781">
        <ele>244</ele>
        <time>2022-09-26T11:17:02Z</time>
      </trkpt>
      <trkpt lat="45.88987" lon="5.83774">
        <ele>244</ele>
        <time>2022-09-26T11:17:03Z</time>
      </trkpt>
      <trkpt lat="45.88988" lon="5.83766">
        <ele>244</ele>
        <time>2022-09-26T11:17:04Z</time>
      </trkpt>
      <trkpt lat="45.88988" lon="5.83759">
        <ele>244</ele>
        <time>2022-09-26T11:17:05Z</time>
      </trkpt>
      <trkpt lat="45.88988" lon="5.83752">
        <ele>244</ele>
        <time>2022-09-26T11:17:06Z</time>
      </trkpt>
      <trkpt lat="45.88988" lon="5.83744">
        <ele>244</ele>
        <time>2022-09-26T11:17:07Z</time>
      </trkpt>
      <trkpt lat="45.88987" lon="5.83737">
        <ele>244</ele>
        <time>2022-09-26T11:17:08Z</time>
      </trkpt>
      <trkpt lat="45.88987" lon="5.8373">
        <ele>243.9</ele>
        <time>2022-09-26T11:17:09Z</time>
      </trkpt>
      <trkpt lat="45.88986" lon="5.83723">
        <ele>243.9</ele>
        <time>2022-09-26T11:17:10Z</time>
      </trkpt>
      <trkpt lat="45.88985" lon="5.83716">
        <ele>243.9</ele>
        <time>2022-09-26T11:17:11Z</time>
      </trkpt>
      <trkpt lat="45.88984" lon="5.83708">
        <ele>243.9</ele>
        <time>2022-09-26T11:17:12Z</time>
      </trkpt>
      <trkpt lat="45.88984" lon="5.83702">
        <ele>243.9</ele>
        <time>2022-09-26T11:17:13Z</time>
      </trkpt>
      <trkpt lat="45.88983" lon="5.83695">
        <ele>243.9</ele>
        <time>2022-09-26T11:17:14Z</time>
      </trkpt>
      <trkpt lat="45.88981" lon="5.83688">
        <ele>243.9</ele>
        <time>2022-09-26T11:17:15Z</time>
      </trkpt>
      <trkpt lat="45.88981" lon="5.83679">
        <ele>243.8</ele>
        <time>2022-09-26T11:17:16Z</time>
      </trkpt>
      <trkpt lat="45.8898" lon="5.83671">
        <ele>243.8</ele>
        <time>2022-09-26T11:17:17Z</time>
      </trkpt>
      <trkpt lat="45.88979" lon="5.83665">
        <ele>243.8</ele>
        <time>2022-09-26T11:17:18Z</time>
      </trkpt>
      <trkpt lat="45.88977" lon="5.83659">
        <ele>243.8</ele>
        <time>2022-09-26T11:17:19Z</time>
      </trkpt>
      <trkpt lat="45.88975" lon="5.83653">
        <ele>243.8</ele>
        <time>2022-09-26T11:17:20Z</time>
      </trkpt>
      <trkpt lat="45.88972" lon="5.83647">
        <ele>243.7</ele>
        <time>2022-09-26T11:17:21Z</time>
      </trkpt>
      <trkpt lat="45.88969" lon="5.83641">
        <ele>243.7</ele>
        <time>2022-09-26T11:17:22Z</time>
      </trkpt>
      <trkpt lat="45.88966" lon="5.83637">
        <ele>243.7</ele>
        <time>2022-09-26T11:17:23Z</time>
      </trkpt>
      <trkpt lat="45.88962" lon="5.83632">
        <ele>243.7</ele>
        <time>2022-09-26T11:17:24Z</time>
      </trkpt>
      <trkpt lat="45.88958" lon="5.83629">
        <ele>243.7</ele>
        <time>2022-09-26T11:17:25Z</time>
      </trkpt>
      <trkpt lat="45.88953" lon="5.83624">
        <ele>243.8</ele>
        <time>2022-09-26T11:17:26Z</time>
      </trkpt>
      <trkpt lat="45.88949" lon="5.83622">
        <ele>243.8</ele>
        <time>2022-09-26T11:17:27Z</time>
      </trkpt>
      <trkpt lat="45.88945" lon="5.83618">
        <ele>243.8</ele>
        <time>2022-09-26T11:17:28Z</time>
      </trkpt>
      <trkpt lat="45.88941" lon="5.83614">
        <ele>243.8</ele>
        <time>2022-09-26T11:17:29Z</time>
      </trkpt>
      <trkpt lat="45.88937" lon="5.83611">
        <ele>243.8</ele>
        <time>2022-09-26T11:17:30Z</time>
      </trkpt>
      <trkpt lat="45.88933" lon="5.83607">
        <ele>243.8</ele>
        <time>2022-09-26T11:17:31Z</time>
      </trkpt>
      <trkpt lat="45.8893" lon="5.83603">
        <ele>243.8</ele>
        <time>2022-09-26T11:17:32Z</time>
      </trkpt>
      <trkpt lat="45.88926" lon="5.83598">
        <ele>243.9</ele>
        <time>2022-09-26T11:17:33Z</time>
      </trkpt>
      <trkpt lat="45.88923" lon="5.83593">
        <ele>243.9</ele>
        <time>2022-09-26T11:17:34Z</time>
      </trkpt>
      <trkpt lat="45.88921" lon="5.83588">
        <ele>243.9</ele>
        <time>2022-09-26T11:17:35Z</time>
      </trkpt>
      <trkpt lat="45.88919" lon="5.83582">
        <ele>243.9</ele>
        <time>2022-09-26T11:17:36Z</time>
      </trkpt>
      <trkpt lat="45.88917" lon="5.83576">
        <ele>244</ele>
        <time>2022-09-26T11:17:37Z</time>
      </trkpt>
      <trkpt lat="45.88915" lon="5.8357">
        <ele>244</ele>
        <time>2022-09-26T11:17:38Z</time>
      </trkpt>
      <trkpt lat="45.88914" lon="5.83563">
        <ele>244</ele>
        <time>2022-09-26T11:17:39Z</time>
      </trkpt>
      <trkpt lat="45.88914" lon="5.83555">
        <ele>244.1</ele>
        <time>2022-09-26T11:17:40Z</time>
      </trkpt>
      <trkpt lat="45.88914" lon="5.83549">
        <ele>244.1</ele>
        <time>2022-09-26T11:17:41Z</time>
      </trkpt>
      <trkpt lat="45.88914" lon="5.83542">
        <ele>244.2</ele>
        <time>2022-09-26T11:17:42Z</time>
      </trkpt>
      <trkpt lat="45.88914" lon="5.83536">
        <ele>244.3</ele>
        <time>2022-09-26T11:17:43Z</time>
      </trkpt>
      <trkpt lat="45.88914" lon="5.83532">
        <ele>244.3</ele>
        <time>2022-09-26T11:17:44Z</time>
      </trkpt>
      <trkpt lat="45.88914" lon="5.83526">
        <ele>244.4</ele>
        <time>2022-09-26T11:17:45Z</time>
      </trkpt>
      <trkpt lat="45.88913" lon="5.8352">
        <ele>244.6</ele>
        <time>2022-09-26T11:17:46Z</time>
      </trkpt>
      <trkpt lat="45.88912" lon="5.83513">
        <ele>244.8</ele>
        <time>2022-09-26T11:17:47Z</time>
      </trkpt>
      <trkpt lat="45.88913" lon="5.83508">
        <ele>244.9</ele>
        <time>2022-09-26T11:17:48Z</time>
      </trkpt>
      <trkpt lat="45.88916" lon="5.83506">
        <ele>244.9</ele>
        <time>2022-09-26T11:17:49Z</time>
      </trkpt>
      <trkpt lat="45.88917" lon="5.83505">
        <ele>244.9</ele>
        <time>2022-09-26T11:17:50Z</time>
      </trkpt>
      <trkpt lat="45.8892" lon="5.83507">
        <ele>244.8</ele>
        <time>2022-09-26T11:17:51Z</time>
      </trkpt>
      <trkpt lat="45.88921" lon="5.83508">
        <ele>244.7</ele>
        <time>2022-09-26T11:17:52Z</time>
      </trkpt>
      <trkpt lat="45.88923" lon="5.83512">
        <ele>244.6</ele>
        <time>2022-09-26T11:17:53Z</time>
      </trkpt>
      <trkpt lat="45.88925" lon="5.83516">
        <ele>244.5</ele>
        <time>2022-09-26T11:17:54Z</time>
      </trkpt>
      <trkpt lat="45.88927" lon="5.83519">
        <ele>244.4</ele>
        <time>2022-09-26T11:17:55Z</time>
      </trkpt>
      <trkpt lat="45.88931" lon="5.83522">
        <ele>244.4</ele>
        <time>2022-09-26T11:17:56Z</time>
      </trkpt>
      <trkpt lat="45.88933" lon="5.83527">
        <ele>244.3</ele>
        <time>2022-09-26T11:17:57Z</time>
      </trkpt>
      <trkpt lat="45.88935" lon="5.83531">
        <ele>244.2</ele>
        <time>2022-09-26T11:17:58Z</time>
      </trkpt>
      <trkpt lat="45.88938" lon="5.83534">
        <ele>244.2</ele>
        <time>2022-09-26T11:17:59Z</time>
      </trkpt>
      <trkpt lat="45.88941" lon="5.8354">
        <ele>244.1</ele>
        <time>2022-09-26T11:18:00Z</time>
      </trkpt>
      <trkpt lat="45.88945" lon="5.83545">
        <ele>244</ele>
        <time>2022-09-26T11:18:01Z</time>
      </trkpt>
      <trkpt lat="45.88947" lon="5.8355">
        <ele>244</ele>
        <time>2022-09-26T11:18:02Z</time>
      </trkpt>
      <trkpt lat="45.8895" lon="5.83555">
        <ele>244</ele>
        <time>2022-09-26T11:18:03Z</time>
      </trkpt>
      <trkpt lat="45.88953" lon="5.83561">
        <ele>244</ele>
        <time>2022-09-26T11:18:04Z</time>
      </trkpt>
      <trkpt lat="45.88956" lon="5.83567">
        <ele>244</ele>
        <time>2022-09-26T11:18:05Z</time>
      </trkpt>
      <trkpt lat="45.8896" lon="5.83572">
        <ele>244</ele>
        <time>2022-09-26T11:18:06Z</time>
      </trkpt>
      <trkpt lat="45.88963" lon="5.83577">
        <ele>244</ele>
        <time>2022-09-26T11:18:07Z</time>
      </trkpt>
      <trkpt lat="45.88965" lon="5.83583">
        <ele>244</ele>
        <time>2022-09-26T11:18:08Z</time>
      </trkpt>
      <trkpt lat="45.88969" lon="5.83588">
        <ele>244</ele>
        <time>2022-09-26T11:18:09Z</time>
      </trkpt>
      <trkpt lat="45.88972" lon="5.83593">
        <ele>244</ele>
        <time>2022-09-26T11:18:10Z</time>
      </trkpt>
      <trkpt lat="45.88975" lon="5.83598">
        <ele>244</ele>
        <time>2022-09-26T11:18:11Z</time>
      </trkpt>
      <trkpt lat="45.88979" lon="5.83603">
        <ele>244</ele>
        <time>2022-09-26T11:18:12Z</time>
      </trkpt>
      <trkpt lat="45.88982" lon="5.83609">
        <ele>244</ele>
        <time>2022-09-26T11:18:13Z</time>
      </trkpt>
      <trkpt lat="45.88986" lon="5.83613">
        <ele>243.9</ele>
        <time>2022-09-26T11:18:14Z</time>
      </trkpt>
      <trkpt lat="45.8899" lon="5.83616">
        <ele>243.9</ele>
        <time>2022-09-26T11:18:15Z</time>
      </trkpt>
      <trkpt lat="45.88994" lon="5.83621">
        <ele>243.9</ele>
        <time>2022-09-26T11:18:16Z</time>
      </trkpt>
      <trkpt lat="45.88998" lon="5.83626">
        <ele>243.9</ele>
        <time>2022-09-26T11:18:17Z</time>
      </trkpt>
      <trkpt lat="45.89001" lon="5.83631">
        <ele>243.9</ele>
        <time>2022-09-26T11:18:18Z</time>
      </trkpt>
      <trkpt lat="45.89005" lon="5.83636">
        <ele>243.9</ele>
        <time>2022-09-26T11:18:19Z</time>
      </trkpt>
      <trkpt lat="45.89009" lon="5.83641">
        <ele>243.9</ele>
        <time>2022-09-26T11:18:20Z</time>
      </trkpt>
      <trkpt lat="45.89012" lon="5.83645">
        <ele>243.9</ele>
        <time>2022-09-26T11:18:21Z</time>
      </trkpt>
      <trkpt lat="45.89016" lon="5.83651">
        <ele>244</ele>
        <time>2022-09-26T11:18:22Z</time>
      </trkpt>
      <trkpt lat="45.8902" lon="5.83656">
        <ele>244</ele>
        <time>2022-09-26T11:18:23Z</time>
      </trkpt>
      <trkpt lat="45.89023" lon="5.83662">
        <ele>244.1</ele>
        <time>2022-09-26T11:18:24Z</time>
      </trkpt>
      <trkpt lat="45.89026" lon="5.83668">
        <ele>244.1</ele>
        <time>2022-09-26T11:18:25Z</time>
      </trkpt>
      <trkpt lat="45.89029" lon="5.83672">
        <ele>244.1</ele>
        <time>2022-09-26T11:18:26Z</time>
      </trkpt>
      <trkpt lat="45.89033" lon="5.83678">
        <ele>244.1</ele>
        <time>2022-09-26T11:18:27Z</time>
      </trkpt>
      <trkpt lat="45.89037" lon="5.83682">
        <ele>244.1</ele>
        <time>2022-09-26T11:18:28Z</time>
      </trkpt>
      <trkpt lat="45.89041" lon="5.83687">
        <ele>244.1</ele>
        <time>2022-09-26T11:18:29Z</time>
      </trkpt>
      <trkpt lat="45.89044" lon="5.83694">
        <ele>244.1</ele>
        <time>2022-09-26T11:18:30Z</time>
      </trkpt>
      <trkpt lat="45.89048" lon="5.83699">
        <ele>244.1</ele>
        <time>2022-09-26T11:18:31Z</time>
      </trkpt>
      <trkpt lat="45.89051" lon="5.83705">
        <ele>244.1</ele>
        <time>2022-09-26T11:18:32Z</time>
      </trkpt>
      <trkpt lat="45.89054" lon="5.83709">
        <ele>244.1</ele>
        <time>2022-09-26T11:18:33Z</time>
      </trkpt>
      <trkpt lat="45.89057" lon="5.83714">
        <ele>244.1</ele>
        <time>2022-09-26T11:18:34Z</time>
      </trkpt>
      <trkpt lat="45.89061" lon="5.8372">
        <ele>244.1</ele>
        <time>2022-09-26T11:18:35Z</time>
      </trkpt>
      <trkpt lat="45.89065" lon="5.83726">
        <ele>244.2</ele>
        <time>2022-09-26T11:18:36Z</time>
      </trkpt>
      <trkpt lat="45.89068" lon="5.83731">
        <ele>244.2</ele>
        <time>2022-09-26T11:18:37Z</time>
      </trkpt>
      <trkpt lat="45.89072" lon="5.83738">
        <ele>244.3</ele>
        <time>2022-09-26T11:18:38Z</time>
      </trkpt>
      <trkpt lat="45.89076" lon="5.83744">
        <ele>244.3</ele>
        <time>2022-09-26T11:18:39Z</time>
      </trkpt>
      <trkpt lat="45.89079" lon="5.8375">
        <ele>244.4</ele>
        <time>2022-09-26T11:18:40Z</time>
      </trkpt>
      <trkpt lat="45.89082" lon="5.83754">
        <ele>244.5</ele>
        <time>2022-09-26T11:18:41Z</time>
      </trkpt>
      <trkpt lat="45.89086" lon="5.8376">
        <ele>244.5</ele>
        <time>2022-09-26T11:18:42Z</time>
      </trkpt>
      <trkpt lat="45.8909" lon="5.83765">
        <ele>244.6</ele>
        <time>2022-09-26T11:18:43Z</time>
      </trkpt>
      <trkpt lat="45.89094" lon="5.83769">
        <ele>244.7</ele>
        <time>2022-09-26T11:18:44Z</time>
      </trkpt>
      <trkpt lat="45.89097" lon="5.83774">
        <ele>244.8</ele>
        <time>2022-09-26T11:18:45Z</time>
      </trkpt>
      <trkpt lat="45.89101" lon="5.83778">
        <ele>244.9</ele>
        <time>2022-09-26T11:18:46Z</time>
      </trkpt>
      <trkpt lat="45.89105" lon="5.83782">
        <ele>245</ele>
        <time>2022-09-26T11:18:47Z</time>
      </trkpt>
      <trkpt lat="45.89108" lon="5.83788">
        <ele>245</ele>
        <time>2022-09-26T11:18:48Z</time>
      </trkpt>
      <trkpt lat="45.89112" lon="5.83792">
        <ele>245.1</ele>
        <time>2022-09-26T11:18:49Z</time>
      </trkpt>
      <trkpt lat="45.89115" lon="5.83796">
        <ele>245.1</ele>
        <time>2022-09-26T11:18:50Z</time>
      </trkpt>
      <trkpt lat="45.89117" lon="5.83801">
        <ele>245.2</ele>
        <time>2022-09-26T11:18:51Z</time>
      </trkpt>
      <trkpt lat="45.8912" lon="5.83804">
        <ele>245.2</ele>
        <time>2022-09-26T11:18:52Z</time>
      </trkpt>
      <trkpt lat="45.89124" lon="5.83808">
        <ele>245.2</ele>
        <time>2022-09-26T11:18:53Z</time>
      </trkpt>
      <trkpt lat="45.89127" lon="5.83813">
        <ele>245.2</ele>
        <time>2022-09-26T11:18:54Z</time>
      </trkpt>
      <trkpt lat="45.8913" lon="5.83817">
        <ele>245.3</ele>
        <time>2022-09-26T11:18:55Z</time>
      </trkpt>
      <trkpt lat="45.89133" lon="5.83821">
        <ele>245.3</ele>
        <time>2022-09-26T11:18:56Z</time>
      </trkpt>
      <trkpt lat="45.89136" lon="5.83826">
        <ele>245.3</ele>
        <time>2022-09-26T11:18:57Z</time>
      </trkpt>
      <trkpt lat="45.89138" lon="5.83831">
        <ele>245.3</ele>
        <time>2022-09-26T11:18:58Z</time>
      </trkpt>
      <trkpt lat="45.89142" lon="5.83835">
        <ele>245.4</ele>
        <time>2022-09-26T11:18:59Z</time>
      </trkpt>
      <trkpt lat="45.89145" lon="5.83839">
        <ele>245.4</ele>
        <time>2022-09-26T11:19:00Z</time>
      </trkpt>
      <trkpt lat="45.89148" lon="5.83844">
        <ele>245.4</ele>
        <time>2022-09-26T11:19:01Z</time>
      </trkpt>
      <trkpt lat="45.89152" lon="5.83848">
        <ele>245.4</ele>
        <time>2022-09-26T11:19:02Z</time>
      </trkpt>
      <trkpt lat="45.89154" lon="5.83853">
        <ele>245.4</ele>
        <time>2022-09-26T11:19:03Z</time>
      </trkpt>
      <trkpt lat="45.89157" lon="5.83857">
        <ele>245.5</ele>
        <time>2022-09-26T11:19:04Z</time>
      </trkpt>
      <trkpt lat="45.89161" lon="5.83862">
        <ele>245.5</ele>
        <time>2022-09-26T11:19:05Z</time>
      </trkpt>
      <trkpt lat="45.89164" lon="5.83866">
        <ele>245.5</ele>
        <time>2022-09-26T11:19:06Z</time>
      </trkpt>
      <trkpt lat="45.89168" lon="5.83871">
        <ele>245.5</ele>
        <time>2022-09-26T11:19:07Z</time>
      </trkpt>
      <trkpt lat="45.89171" lon="5.83876">
        <ele>245.5</ele>
        <time>2022-09-26T11:19:08Z</time>
      </trkpt>
      <trkpt lat="45.89174" lon="5.83881">
        <ele>245.5</ele>
        <time>2022-09-26T11:19:09Z</time>
      </trkpt>
      <trkpt lat="45.89177" lon="5.83885">
        <ele>245.5</ele>
        <time>2022-09-26T11:19:10Z</time>
      </trkpt>
      <trkpt lat="45.8918" lon="5.8389">
        <ele>245.5</ele>
        <time>2022-09-26T11:19:11Z</time>
      </trkpt>
      <trkpt lat="45.89184" lon="5.83894">
        <ele>245.6</ele>
        <time>2022-09-26T11:19:12Z</time>
      </trkpt>
      <trkpt lat="45.89187" lon="5.83899">
        <ele>245.6</ele>
        <time>2022-09-26T11:19:13Z</time>
      </trkpt>
      <trkpt lat="45.8919" lon="5.83904">
        <ele>245.6</ele>
        <time>2022-09-26T11:19:14Z</time>
      </trkpt>
      <trkpt lat="45.89193" lon="5.83909">
        <ele>245.6</ele>
        <time>2022-09-26T11:19:15Z</time>
      </trkpt>
      <trkpt lat="45.89196" lon="5.83914">
        <ele>245.6</ele>
        <time>2022-09-26T11:19:16Z</time>
      </trkpt>
      <trkpt lat="45.892" lon="5.83918">
        <ele>245.7</ele>
        <time>2022-09-26T11:19:17Z</time>
      </trkpt>
      <trkpt lat="45.89202" lon="5.83923">
        <ele>245.7</ele>
        <time>2022-09-26T11:19:18Z</time>
      </trkpt>
      <trkpt lat="45.89206" lon="5.83928">
        <ele>245.7</ele>
        <time>2022-09-26T11:19:19Z</time>
      </trkpt>
      <trkpt lat="45.89209" lon="5.83933">
        <ele>245.7</ele>
        <time>2022-09-26T11:19:20Z</time>
      </trkpt>
      <trkpt lat="45.89213" lon="5.83938">
        <ele>245.7</ele>
        <time>2022-09-26T11:19:21Z</time>
      </trkpt>
      <trkpt lat="45.89215" lon="5.83942">
        <ele>245.7</ele>
        <time>2022-09-26T11:19:22Z</time>
      </trkpt>
      <trkpt lat="45.89219" lon="5.83946">
        <ele>245.7</ele>
        <time>2022-09-26T11:19:23Z</time>
      </trkpt>
      <trkpt lat="45.89222" lon="5.83952">
        <ele>245.8</ele>
        <time>2022-09-26T11:19:24Z</time>
      </trkpt>
      <trkpt lat="45.89226" lon="5.83957">
        <ele>245.8</ele>
        <time>2022-09-26T11:19:25Z</time>
      </trkpt>
      <trkpt lat="45.89229" lon="5.83962">
        <ele>245.8</ele>
        <time>2022-09-26T11:19:26Z</time>
      </trkpt>
      <trkpt lat="45.89232" lon="5.83967">
        <ele>245.8</ele>
        <time>2022-09-26T11:19:27Z</time>
      </trkpt>
      <trkpt lat="45.89236" lon="5.83971">
        <ele>245.8</ele>
        <time>2022-09-26T11:19:28Z</time>
      </trkpt>
      <trkpt lat="45.89239" lon="5.83977">
        <ele>245.8</ele>
        <time>2022-09-26T11:19:29Z</time>
      </trkpt>
      <trkpt lat="45.89243" lon="5.83982">
        <ele>245.8</ele>
        <time>2022-09-26T11:19:30Z</time>
      </trkpt>
      <trkpt lat="45.89246" lon="5.83987">
        <ele>245.8</ele>
        <time>2022-09-26T11:19:31Z</time>
      </trkpt>
      <trkpt lat="45.89249" lon="5.83992">
        <ele>245.8</ele>
        <time>2022-09-26T11:19:32Z</time>
      </trkpt>
      <trkpt lat="45.89253" lon="5.83997">
        <ele>245.8</ele>
        <time>2022-09-26T11:19:33Z</time>
      </trkpt>
      <trkpt lat="45.89256" lon="5.84003">
        <ele>245.8</ele>
        <time>2022-09-26T11:19:34Z</time>
      </trkpt>
      <trkpt lat="45.8926" lon="5.84008">
        <ele>245.9</ele>
        <time>2022-09-26T11:19:35Z</time>
      </trkpt>
      <trkpt lat="45.89264" lon="5.84013">
        <ele>245.9</ele>
        <time>2022-09-26T11:19:36Z</time>
      </trkpt>
      <trkpt lat="45.89267" lon="5.84017">
        <ele>245.9</ele>
        <time>2022-09-26T11:19:37Z</time>
      </trkpt>
      <trkpt lat="45.8927" lon="5.84022">
        <ele>245.9</ele>
        <time>2022-09-26T11:19:38Z</time>
      </trkpt>
      <trkpt lat="45.89273" lon="5.84027">
        <ele>245.9</ele>
        <time>2022-09-26T11:19:39Z</time>
      </trkpt>
      <trkpt lat="45.89276" lon="5.84032">
        <ele>245.9</ele>
        <time>2022-09-26T11:19:40Z</time>
      </trkpt>
      <trkpt lat="45.89279" lon="5.84037">
        <ele>245.9</ele>
        <time>2022-09-26T11:19:41Z</time>
      </trkpt>
      <trkpt lat="45.89281" lon="5.84041">
        <ele>246</ele>
        <time>2022-09-26T11:19:42Z</time>
      </trkpt>
      <trkpt lat="45.89283" lon="5.84045">
        <ele>246</ele>
        <time>2022-09-26T11:19:43Z</time>
      </trkpt>
      <trkpt lat="45.89286" lon="5.8405">
        <ele>246</ele>
        <time>2022-09-26T11:19:44Z</time>
      </trkpt>
      <trkpt lat="45.89289" lon="5.84053">
        <ele>246</ele>
        <time>2022-09-26T11:19:45Z</time>
      </trkpt>
      <trkpt lat="45.89291" lon="5.84057">
        <ele>246.1</ele>
        <time>2022-09-26T11:19:46Z</time>
      </trkpt>
      <trkpt lat="45.89292" lon="5.84063">
        <ele>246.1</ele>
        <time>2022-09-26T11:19:47Z</time>
      </trkpt>
      <trkpt lat="45.89293" lon="5.84065">
        <ele>246.1</ele>
        <time>2022-09-26T11:19:48Z</time>
      </trkpt>
      <trkpt lat="45.89297" lon="5.84069">
        <ele>246.2</ele>
        <time>2022-09-26T11:19:49Z</time>
      </trkpt>
      <trkpt lat="45.893" lon="5.84072">
        <ele>246.2</ele>
        <time>2022-09-26T11:19:50Z</time>
      </trkpt>
      <trkpt lat="45.89303" lon="5.84076">
        <ele>246.3</ele>
        <time>2022-09-26T11:19:51Z</time>
      </trkpt>
      <trkpt lat="45.89305" lon="5.8408">
        <ele>246.3</ele>
        <time>2022-09-26T11:19:52Z</time>
      </trkpt>
      <trkpt lat="45.89308" lon="5.84084">
        <ele>246.4</ele>
        <time>2022-09-26T11:19:53Z</time>
      </trkpt>
      <trkpt lat="45.8931" lon="5.84088">
        <ele>246.4</ele>
        <time>2022-09-26T11:19:54Z</time>
      </trkpt>
      <trkpt lat="45.89311" lon="5.84092">
        <ele>246.4</ele>
        <time>2022-09-26T11:19:55Z</time>
      </trkpt>
      <trkpt lat="45.89313" lon="5.84096">
        <ele>246.4</ele>
        <time>2022-09-26T11:19:56Z</time>
      </trkpt>
      <trkpt lat="45.89314" lon="5.84096">
        <ele>246.4</ele>
        <time>2022-09-26T11:19:57Z</time>
      </trkpt>
      <trkpt lat="45.89319" lon="5.84096">
        <ele>246.4</ele>
        <time>2022-09-26T11:19:58Z</time>
      </trkpt>
      <trkpt lat="45.89323" lon="5.84095">
        <ele>246.4</ele>
        <time>2022-09-26T11:19:59Z</time>
      </trkpt>
      <trkpt lat="45.89326" lon="5.84093">
        <ele>246.3</ele>
        <time>2022-09-26T11:20:00Z</time>
      </trkpt>
      <trkpt lat="45.8933" lon="5.84089">
        <ele>246.2</ele>
        <time>2022-09-26T11:20:01Z</time>
      </trkpt>
      <trkpt lat="45.89332" lon="5.84085">
        <ele>246.2</ele>
        <time>2022-09-26T11:20:02Z</time>
      </trkpt>
      <trkpt lat="45.89334" lon="5.84079">
        <ele>246.1</ele>
        <time>2022-09-26T11:20:03Z</time>
      </trkpt>
      <trkpt lat="45.89336" lon="5.84074">
        <ele>246.1</ele>
        <time>2022-09-26T11:20:04Z</time>
      </trkpt>
      <trkpt lat="45.89339" lon="5.84067">
        <ele>246.1</ele>
        <time>2022-09-26T11:20:05Z</time>
      </trkpt>
      <trkpt lat="45.8934" lon="5.84061">
        <ele>246.1</ele>
        <time>2022-09-26T11:20:06Z</time>
      </trkpt>
      <trkpt lat="45.89342" lon="5.84055">
        <ele>246.2</ele>
        <time>2022-09-26T11:20:07Z</time>
      </trkpt>
      <trkpt lat="45.89344" lon="5.84049">
        <ele>246.2</ele>
        <time>2022-09-26T11:20:08Z</time>
      </trkpt>
      <trkpt lat="45.89346" lon="5.84044">
        <ele>246.2</ele>
        <time>2022-09-26T11:20:09Z</time>
      </trkpt>
      <trkpt lat="45.89349" lon="5.8404">
        <ele>246.3</ele>
        <time>2022-09-26T11:20:10Z</time>
      </trkpt>
      <trkpt lat="45.89352" lon="5.84035">
        <ele>246.3</ele>
        <time>2022-09-26T11:20:11Z</time>
      </trkpt>
      <trkpt lat="45.89355" lon="5.84031">
        <ele>246.3</ele>
        <time>2022-09-26T11:20:12Z</time>
      </trkpt>
      <trkpt lat="45.89359" lon="5.84029">
        <ele>246.2</ele>
        <time>2022-09-26T11:20:13Z</time>
      </trkpt>
      <trkpt lat="45.89362" lon="5.84028">
        <ele>246.2</ele>
        <time>2022-09-26T11:20:14Z</time>
      </trkpt>
      <trkpt lat="45.89366" lon="5.84026">
        <ele>246.2</ele>
        <time>2022-09-26T11:20:15Z</time>
      </trkpt>
      <trkpt lat="45.8937" lon="5.84024">
        <ele>246.2</ele>
        <time>2022-09-26T11:20:16Z</time>
      </trkpt>
      <trkpt lat="45.89375" lon="5.84022">
        <ele>246.2</ele>
        <time>2022-09-26T11:20:17Z</time>
      </trkpt>
      <trkpt lat="45.8938" lon="5.84023">
        <ele>246.1</ele>
        <time>2022-09-26T11:20:18Z</time>
      </trkpt>
      <trkpt lat="45.89384" lon="5.84022">
        <ele>246.1</ele>
        <time>2022-09-26T11:20:19Z</time>
      </trkpt>
      <trkpt lat="45.89388" lon="5.84021">
        <ele>246.1</ele>
        <time>2022-09-26T11:20:20Z</time>
      </trkpt>
      <trkpt lat="45.89393" lon="5.8402">
        <ele>246.1</ele>
        <time>2022-09-26T11:20:21Z</time>
      </trkpt>
      <trkpt lat="45.89397" lon="5.84017">
        <ele>246.1</ele>
        <time>2022-09-26T11:20:22Z</time>
      </trkpt>
      <trkpt lat="45.89401" lon="5.84013">
        <ele>246.1</ele>
        <time>2022-09-26T11:20:23Z</time>
      </trkpt>
      <trkpt lat="45.89405" lon="5.84009">
        <ele>246.1</ele>
        <time>2022-09-26T11:20:24Z</time>
      </trkpt>
      <trkpt lat="45.89408" lon="5.84005">
        <ele>246</ele>
        <time>2022-09-26T11:20:25Z</time>
      </trkpt>
      <trkpt lat="45.89412" lon="5.84001">
        <ele>246</ele>
        <time>2022-09-26T11:20:26Z</time>
      </trkpt>
      <trkpt lat="45.89416" lon="5.83997">
        <ele>246</ele>
        <time>2022-09-26T11:20:27Z</time>
      </trkpt>
      <trkpt lat="45.8942" lon="5.83994">
        <ele>246</ele>
        <time>2022-09-26T11:20:28Z</time>
      </trkpt>
      <trkpt lat="45.89423" lon="5.83992">
        <ele>246</ele>
        <time>2022-09-26T11:20:29Z</time>
      </trkpt>
      <trkpt lat="45.89428" lon="5.8399">
        <ele>246</ele>
        <time>2022-09-26T11:20:30Z</time>
      </trkpt>
      <trkpt lat="45.89433" lon="5.83988">
        <ele>246</ele>
        <time>2022-09-26T11:20:31Z</time>
      </trkpt>
      <trkpt lat="45.89438" lon="5.83986">
        <ele>246</ele>
        <time>2022-09-26T11:20:32Z</time>
      </trkpt>
      <trkpt lat="45.89442" lon="5.83986">
        <ele>246</ele>
        <time>2022-09-26T11:20:33Z</time>
      </trkpt>
      <trkpt lat="45.89447" lon="5.83985">
        <ele>246</ele>
        <time>2022-09-26T11:20:34Z</time>
      </trkpt>
      <trkpt lat="45.89452" lon="5.83984">
        <ele>246</ele>
        <time>2022-09-26T11:20:35Z</time>
      </trkpt>
      <trkpt lat="45.89457" lon="5.83982">
        <ele>246</ele>
        <time>2022-09-26T11:20:36Z</time>
      </trkpt>
      <trkpt lat="45.89462" lon="5.8398">
        <ele>246</ele>
        <time>2022-09-26T11:20:37Z</time>
      </trkpt>
      <trkpt lat="45.89466" lon="5.83978">
        <ele>246</ele>
        <time>2022-09-26T11:20:38Z</time>
      </trkpt>
      <trkpt lat="45.89471" lon="5.83976">
        <ele>246.1</ele>
        <time>2022-09-26T11:20:39Z</time>
      </trkpt>
      <trkpt lat="45.89476" lon="5.83972">
        <ele>246.1</ele>
        <time>2022-09-26T11:20:40Z</time>
      </trkpt>
      <trkpt lat="45.8948" lon="5.83968">
        <ele>246.1</ele>
        <time>2022-09-26T11:20:41Z</time>
      </trkpt>
      <trkpt lat="45.89484" lon="5.83964">
        <ele>246.2</ele>
        <time>2022-09-26T11:20:42Z</time>
      </trkpt>
      <trkpt lat="45.89488" lon="5.83958">
        <ele>246.2</ele>
        <time>2022-09-26T11:20:43Z</time>
      </trkpt>
      <trkpt lat="45.89492" lon="5.83954">
        <ele>246.2</ele>
        <time>2022-09-26T11:20:44Z</time>
      </trkpt>
      <trkpt lat="45.89495" lon="5.8395">
        <ele>246.2</ele>
        <time>2022-09-26T11:20:45Z</time>
      </trkpt>
      <trkpt lat="45.89499" lon="5.83946">
        <ele>246.2</ele>
        <time>2022-09-26T11:20:46Z</time>
      </trkpt>
      <trkpt lat="45.89504" lon="5.83942">
        <ele>246.3</ele>
        <time>2022-09-26T11:20:47Z</time>
      </trkpt>
      <trkpt lat="45.89507" lon="5.8394">
        <ele>246.3</ele>
        <time>2022-09-26T11:20:48Z</time>
      </trkpt>
      <trkpt lat="45.89511" lon="5.83937">
        <ele>246.3</ele>
        <time>2022-09-26T11:20:49Z</time>
      </trkpt>
      <trkpt lat="45.89516" lon="5.83934">
        <ele>246.3</ele>
        <time>2022-09-26T11:20:50Z</time>
      </trkpt>
      <trkpt lat="45.8952" lon="5.83933">
        <ele>246.3</ele>
        <time>2022-09-26T11:20:51Z</time>
      </trkpt>
      <trkpt lat="45.89524" lon="5.83933">
        <ele>246.3</ele>
        <time>2022-09-26T11:20:52Z</time>
      </trkpt>
      <trkpt lat="45.89529" lon="5.83932">
        <ele>246.2</ele>
        <time>2022-09-26T11:20:53Z</time>
      </trkpt>
      <trkpt lat="45.89534" lon="5.8393">
        <ele>246.2</ele>
        <time>2022-09-26T11:20:54Z</time>
      </trkpt>
      <trkpt lat="45.89539" lon="5.83929">
        <ele>246.2</ele>
        <time>2022-09-26T11:20:55Z</time>
      </trkpt>
      <trkpt lat="45.89543" lon="5.83929">
        <ele>246.3</ele>
        <time>2022-09-26T11:20:56Z</time>
      </trkpt>
      <trkpt lat="45.89548" lon="5.83932">
        <ele>246.3</ele>
        <time>2022-09-26T11:20:57Z</time>
      </trkpt>
      <trkpt lat="45.89552" lon="5.83936">
        <ele>246.3</ele>
        <time>2022-09-26T11:20:58Z</time>
      </trkpt>
      <trkpt lat="45.89556" lon="5.8394">
        <ele>246.3</ele>
        <time>2022-09-26T11:20:59Z</time>
      </trkpt>
      <trkpt lat="45.8956" lon="5.83944">
        <ele>246.3</ele>
        <time>2022-09-26T11:21:00Z</time>
      </trkpt>
      <trkpt lat="45.89563" lon="5.8395">
        <ele>246.3</ele>
        <time>2022-09-26T11:21:01Z</time>
      </trkpt>
      <trkpt lat="45.89566" lon="5.83955">
        <ele>246.3</ele>
        <time>2022-09-26T11:21:02Z</time>
      </trkpt>
      <trkpt lat="45.89571" lon="5.83959">
        <ele>246.3</ele>
        <time>2022-09-26T11:21:03Z</time>
      </trkpt>
      <trkpt lat="45.89575" lon="5.83961">
        <ele>246.3</ele>
        <time>2022-09-26T11:21:04Z</time>
      </trkpt>
      <trkpt lat="45.89581" lon="5.83963">
        <ele>246.3</ele>
        <time>2022-09-26T11:21:05Z</time>
      </trkpt>
      <trkpt lat="45.89586" lon="5.83964">
        <ele>246.3</ele>
        <time>2022-09-26T11:21:06Z</time>
      </trkpt>
      <trkpt lat="45.8959" lon="5.83963">
        <ele>246.3</ele>
        <time>2022-09-26T11:21:07Z</time>
      </trkpt>
      <trkpt lat="45.89595" lon="5.83963">
        <ele>246.3</ele>
        <time>2022-09-26T11:21:08Z</time>
      </trkpt>
      <trkpt lat="45.896" lon="5.83963">
        <ele>246.3</ele>
        <time>2022-09-26T11:21:09Z</time>
      </trkpt>
      <trkpt lat="45.89605" lon="5.83963">
        <ele>246.3</ele>
        <time>2022-09-26T11:21:10Z</time>
      </trkpt>
      <trkpt lat="45.8961" lon="5.83962">
        <ele>246.2</ele>
        <time>2022-09-26T11:21:11Z</time>
      </trkpt>
      <trkpt lat="45.89615" lon="5.83961">
        <ele>246.2</ele>
        <time>2022-09-26T11:21:12Z</time>
      </trkpt>
      <trkpt lat="45.8962" lon="5.83961">
        <ele>246.2</ele>
        <time>2022-09-26T11:21:13Z</time>
      </trkpt>
      <trkpt lat="45.89625" lon="5.83961">
        <ele>246.2</ele>
        <time>2022-09-26T11:21:14Z</time>
      </trkpt>
      <trkpt lat="45.8963" lon="5.83961">
        <ele>246.2</ele>
        <time>2022-09-26T11:21:15Z</time>
      </trkpt>
      <trkpt lat="45.89634" lon="5.83961">
        <ele>246.2</ele>
        <time>2022-09-26T11:21:16Z</time>
      </trkpt>
      <trkpt lat="45.8964" lon="5.83961">
        <ele>246.2</ele>
        <time>2022-09-26T11:21:17Z</time>
      </trkpt>
      <trkpt lat="45.89645" lon="5.83962">
        <ele>246.2</ele>
        <time>2022-09-26T11:21:18Z</time>
      </trkpt>
      <trkpt lat="45.8965" lon="5.83963">
        <ele>246.2</ele>
        <time>2022-09-26T11:21:19Z</time>
      </trkpt>
      <trkpt lat="45.89655" lon="5.83963">
        <ele>246.2</ele>
        <time>2022-09-26T11:21:20Z</time>
      </trkpt>
      <trkpt lat="45.8966" lon="5.83963">
        <ele>246.2</ele>
        <time>2022-09-26T11:21:21Z</time>
      </trkpt>
      <trkpt lat="45.89664" lon="5.83964">
        <ele>246.2</ele>
        <time>2022-09-26T11:21:22Z</time>
      </trkpt>
      <trkpt lat="45.89669" lon="5.83965">
        <ele>246.2</ele>
        <time>2022-09-26T11:21:23Z</time>
      </trkpt>
      <trkpt lat="45.89674" lon="5.83965">
        <ele>246.2</ele>
        <time>2022-09-26T11:21:24Z</time>
      </trkpt>
      <trkpt lat="45.89679" lon="5.83966">
        <ele>246.2</ele>
        <time>2022-09-26T11:21:25Z</time>
      </trkpt>
      <trkpt lat="45.89684" lon="5.83967">
        <ele>246.2</ele>
        <time>2022-09-26T11:21:26Z</time>
      </trkpt>
      <trkpt lat="45.89689" lon="5.83968">
        <ele>246.2</ele>
        <time>2022-09-26T11:21:27Z</time>
      </trkpt>
      <trkpt lat="45.89695" lon="5.83968">
        <ele>246.3</ele>
        <time>2022-09-26T11:21:28Z</time>
      </trkpt>
      <trkpt lat="45.897" lon="5.83968">
        <ele>246.3</ele>
        <time>2022-09-26T11:21:29Z</time>
      </trkpt>
      <trkpt lat="45.89705" lon="5.83968">
        <ele>246.3</ele>
        <time>2022-09-26T11:21:30Z</time>
      </trkpt>
      <trkpt lat="45.8971" lon="5.83969">
        <ele>246.3</ele>
        <time>2022-09-26T11:21:31Z</time>
      </trkpt>
      <trkpt lat="45.89715" lon="5.8397">
        <ele>246.3</ele>
        <time>2022-09-26T11:21:32Z</time>
      </trkpt>
      <trkpt lat="45.8972" lon="5.8397">
        <ele>246.3</ele>
        <time>2022-09-26T11:21:33Z</time>
      </trkpt>
      <trkpt lat="45.89726" lon="5.8397">
        <ele>246.3</ele>
        <time>2022-09-26T11:21:34Z</time>
      </trkpt>
      <trkpt lat="45.89731" lon="5.8397">
        <ele>246.3</ele>
        <time>2022-09-26T11:21:35Z</time>
      </trkpt>
      <trkpt lat="45.89735" lon="5.8397">
        <ele>246.3</ele>
        <time>2022-09-26T11:21:36Z</time>
      </trkpt>
      <trkpt lat="45.89741" lon="5.8397">
        <ele>246.3</ele>
        <time>2022-09-26T11:21:37Z</time>
      </trkpt>
      <trkpt lat="45.89747" lon="5.83969">
        <ele>246.3</ele>
        <time>2022-09-26T11:21:38Z</time>
      </trkpt>
      <trkpt lat="45.89751" lon="5.83969">
        <ele>246.4</ele>
        <time>2022-09-26T11:21:39Z</time>
      </trkpt>
      <trkpt lat="45.89756" lon="5.83969">
        <ele>246.4</ele>
        <time>2022-09-26T11:21:40Z</time>
      </trkpt>
      <trkpt lat="45.89762" lon="5.83969">
        <ele>246.4</ele>
        <time>2022-09-26T11:21:41Z</time>
      </trkpt>
      <trkpt lat="45.89767" lon="5.83969">
        <ele>246.4</ele>
        <time>2022-09-26T11:21:42Z</time>
      </trkpt>
      <trkpt lat="45.89772" lon="5.83969">
        <ele>246.4</ele>
        <time>2022-09-26T11:21:43Z</time>
      </trkpt>
      <trkpt lat="45.89778" lon="5.8397">
        <ele>246.5</ele>
        <time>2022-09-26T11:21:44Z</time>
      </trkpt>
      <trkpt lat="45.89783" lon="5.83969">
        <ele>246.5</ele>
        <time>2022-09-26T11:21:45Z</time>
      </trkpt>
      <trkpt lat="45.89788" lon="5.83969">
        <ele>246.5</ele>
        <time>2022-09-26T11:21:46Z</time>
      </trkpt>
      <trkpt lat="45.89793" lon="5.83969">
        <ele>246.6</ele>
        <time>2022-09-26T11:21:47Z</time>
      </trkpt>
      <trkpt lat="45.89798" lon="5.83969">
        <ele>246.6</ele>
        <time>2022-09-26T11:21:48Z</time>
      </trkpt>
      <trkpt lat="45.89803" lon="5.83969">
        <ele>246.6</ele>
        <time>2022-09-26T11:21:49Z</time>
      </trkpt>
      <trkpt lat="45.89809" lon="5.83969">
        <ele>246.6</ele>
        <time>2022-09-26T11:21:50Z</time>
      </trkpt>
      <trkpt lat="45.89813" lon="5.83969">
        <ele>246.6</ele>
        <time>2022-09-26T11:21:51Z</time>
      </trkpt>
      <trkpt lat="45.89818" lon="5.83968">
        <ele>246.6</ele>
        <time>2022-09-26T11:21:52Z</time>
      </trkpt>
      <trkpt lat="45.89823" lon="5.83968">
        <ele>246.6</ele>
        <time>2022-09-26T11:21:53Z</time>
      </trkpt>
      <trkpt lat="45.89827" lon="5.83968">
        <ele>246.6</ele>
        <time>2022-09-26T11:21:54Z</time>
      </trkpt>
      <trkpt lat="45.89833" lon="5.83967">
        <ele>246.6</ele>
        <time>2022-09-26T11:21:55Z</time>
      </trkpt>
      <trkpt lat="45.89838" lon="5.83965">
        <ele>246.6</ele>
        <time>2022-09-26T11:21:56Z</time>
      </trkpt>
      <trkpt lat="45.89844" lon="5.83964">
        <ele>246.7</ele>
        <time>2022-09-26T11:21:57Z</time>
      </trkpt>
      <trkpt lat="45.89849" lon="5.83963">
        <ele>246.7</ele>
        <time>2022-09-26T11:21:58Z</time>
      </trkpt>
      <trkpt lat="45.89854" lon="5.83961">
        <ele>246.7</ele>
        <time>2022-09-26T11:21:59Z</time>
      </trkpt>
      <trkpt lat="45.89859" lon="5.83961">
        <ele>246.7</ele>
        <time>2022-09-26T11:22:00Z</time>
      </trkpt>
      <trkpt lat="45.89864" lon="5.83961">
        <ele>246.7</ele>
        <time>2022-09-26T11:22:01Z</time>
      </trkpt>
      <trkpt lat="45.89869" lon="5.83961">
        <ele>246.7</ele>
        <time>2022-09-26T11:22:02Z</time>
      </trkpt>
      <trkpt lat="45.89875" lon="5.8396">
        <ele>246.7</ele>
        <time>2022-09-26T11:22:03Z</time>
      </trkpt>
      <trkpt lat="45.89881" lon="5.8396">
        <ele>246.7</ele>
        <time>2022-09-26T11:22:04Z</time>
      </trkpt>
      <trkpt lat="45.89887" lon="5.83961">
        <ele>246.7</ele>
        <time>2022-09-26T11:22:05Z</time>
      </trkpt>
      <trkpt lat="45.89892" lon="5.83961">
        <ele>246.7</ele>
        <time>2022-09-26T11:22:06Z</time>
      </trkpt>
      <trkpt lat="45.89898" lon="5.83961">
        <ele>246.7</ele>
        <time>2022-09-26T11:22:07Z</time>
      </trkpt>
      <trkpt lat="45.89903" lon="5.8396">
        <ele>246.7</ele>
        <time>2022-09-26T11:22:08Z</time>
      </trkpt>
      <trkpt lat="45.89907" lon="5.8396">
        <ele>246.8</ele>
        <time>2022-09-26T11:22:09Z</time>
      </trkpt>
      <trkpt lat="45.89912" lon="5.83959">
        <ele>246.8</ele>
        <time>2022-09-26T11:22:10Z</time>
      </trkpt>
      <trkpt lat="45.89917" lon="5.83958">
        <ele>246.9</ele>
        <time>2022-09-26T11:22:11Z</time>
      </trkpt>
      <trkpt lat="45.89922" lon="5.83956">
        <ele>247</ele>
        <time>2022-09-26T11:22:12Z</time>
      </trkpt>
      <trkpt lat="45.89927" lon="5.83955">
        <ele>246.9</ele>
        <time>2022-09-26T11:22:13Z</time>
      </trkpt>
      <trkpt lat="45.89931" lon="5.83954">
        <ele>246.9</ele>
        <time>2022-09-26T11:22:14Z</time>
      </trkpt>
      <trkpt lat="45.89935" lon="5.83952">
        <ele>246.9</ele>
        <time>2022-09-26T11:22:15Z</time>
      </trkpt>
      <trkpt lat="45.8994" lon="5.8395">
        <ele>246.9</ele>
        <time>2022-09-26T11:22:16Z</time>
      </trkpt>
      <trkpt lat="45.89945" lon="5.83946">
        <ele>246.9</ele>
        <time>2022-09-26T11:22:17Z</time>
      </trkpt>
      <trkpt lat="45.8995" lon="5.83944">
        <ele>246.8</ele>
        <time>2022-09-26T11:22:18Z</time>
      </trkpt>
      <trkpt lat="45.89956" lon="5.83942">
        <ele>246.8</ele>
        <time>2022-09-26T11:22:19Z</time>
      </trkpt>
      <trkpt lat="45.8996" lon="5.83939">
        <ele>246.7</ele>
        <time>2022-09-26T11:22:20Z</time>
      </trkpt>
      <trkpt lat="45.89965" lon="5.83937">
        <ele>246.7</ele>
        <time>2022-09-26T11:22:21Z</time>
      </trkpt>
      <trkpt lat="45.89969" lon="5.83935">
        <ele>246.7</ele>
        <time>2022-09-26T11:22:22Z</time>
      </trkpt>
      <trkpt lat="45.89974" lon="5.83933">
        <ele>246.6</ele>
        <time>2022-09-26T11:22:23Z</time>
      </trkpt>
      <trkpt lat="45.8998" lon="5.83931">
        <ele>246.5</ele>
        <time>2022-09-26T11:22:24Z</time>
      </trkpt>
      <trkpt lat="45.89985" lon="5.83928">
        <ele>246.5</ele>
        <time>2022-09-26T11:22:25Z</time>
      </trkpt>
      <trkpt lat="45.89991" lon="5.83926">
        <ele>246.4</ele>
        <time>2022-09-26T11:22:26Z</time>
      </trkpt>
      <trkpt lat="45.89997" lon="5.83925">
        <ele>246.4</ele>
        <time>2022-09-26T11:22:27Z</time>
      </trkpt>
      <trkpt lat="45.90003" lon="5.83923">
        <ele>246.4</ele>
        <time>2022-09-26T11:22:28Z</time>
      </trkpt>
      <trkpt lat="45.90008" lon="5.83922">
        <ele>246.3</ele>
        <time>2022-09-26T11:22:29Z</time>
      </trkpt>
      <trkpt lat="45.90014" lon="5.83921">
        <ele>246.3</ele>
        <time>2022-09-26T11:22:30Z</time>
      </trkpt>
      <trkpt lat="45.9002" lon="5.83919">
        <ele>246.3</ele>
        <time>2022-09-26T11:22:31Z</time>
      </trkpt>
      <trkpt lat="45.90025" lon="5.83918">
        <ele>246.3</ele>
        <time>2022-09-26T11:22:32Z</time>
      </trkpt>
      <trkpt lat="45.9003" lon="5.83916">
        <ele>246.3</ele>
        <time>2022-09-26T11:22:33Z</time>
      </trkpt>
      <trkpt lat="45.90036" lon="5.83914">
        <ele>246.3</ele>
        <time>2022-09-26T11:22:34Z</time>
      </trkpt>
      <trkpt lat="45.90041" lon="5.83913">
        <ele>246.3</ele>
        <time>2022-09-26T11:22:35Z</time>
      </trkpt>
      <trkpt lat="45.90047" lon="5.83912">
        <ele>246.3</ele>
        <time>2022-09-26T11:22:36Z</time>
      </trkpt>
      <trkpt lat="45.90052" lon="5.8391">
        <ele>246.3</ele>
        <time>2022-09-26T11:22:37Z</time>
      </trkpt>
      <trkpt lat="45.90058" lon="5.83907">
        <ele>246.3</ele>
        <time>2022-09-26T11:22:38Z</time>
      </trkpt>
      <trkpt lat="45.90063" lon="5.83905">
        <ele>246.2</ele>
        <time>2022-09-26T11:22:39Z</time>
      </trkpt>
      <trkpt lat="45.90068" lon="5.83903">
        <ele>246.2</ele>
        <time>2022-09-26T11:22:40Z</time>
      </trkpt>
      <trkpt lat="45.90073" lon="5.839">
        <ele>246.2</ele>
        <time>2022-09-26T11:22:41Z</time>
      </trkpt>
      <trkpt lat="45.90077" lon="5.83897">
        <ele>246.2</ele>
        <time>2022-09-26T11:22:42Z</time>
      </trkpt>
      <trkpt lat="45.90083" lon="5.83894">
        <ele>246.2</ele>
        <time>2022-09-26T11:22:43Z</time>
      </trkpt>
      <trkpt lat="45.90088" lon="5.83891">
        <ele>246.2</ele>
        <time>2022-09-26T11:22:44Z</time>
      </trkpt>
      <trkpt lat="45.90092" lon="5.83888">
        <ele>246.2</ele>
        <time>2022-09-26T11:22:45Z</time>
      </trkpt>
      <trkpt lat="45.90098" lon="5.83885">
        <ele>246.2</ele>
        <time>2022-09-26T11:22:46Z</time>
      </trkpt>
      <trkpt lat="45.90103" lon="5.83882">
        <ele>246.2</ele>
        <time>2022-09-26T11:22:47Z</time>
      </trkpt>
      <trkpt lat="45.90108" lon="5.8388">
        <ele>246.2</ele>
        <time>2022-09-26T11:22:48Z</time>
      </trkpt>
      <trkpt lat="45.90113" lon="5.83877">
        <ele>246.3</ele>
        <time>2022-09-26T11:22:49Z</time>
      </trkpt>
      <trkpt lat="45.90117" lon="5.83874">
        <ele>246.3</ele>
        <time>2022-09-26T11:22:50Z</time>
      </trkpt>
      <trkpt lat="45.90122" lon="5.83872">
        <ele>246.4</ele>
        <time>2022-09-26T11:22:51Z</time>
      </trkpt>
      <trkpt lat="45.90126" lon="5.8387">
        <ele>246.4</ele>
        <time>2022-09-26T11:22:52Z</time>
      </trkpt>
      <trkpt lat="45.90131" lon="5.83868">
        <ele>246.5</ele>
        <time>2022-09-26T11:22:53Z</time>
      </trkpt>
      <trkpt lat="45.90135" lon="5.83866">
        <ele>246.5</ele>
        <time>2022-09-26T11:22:54Z</time>
      </trkpt>
      <trkpt lat="45.9014" lon="5.83864">
        <ele>246.6</ele>
        <time>2022-09-26T11:22:55Z</time>
      </trkpt>
      <trkpt lat="45.90144" lon="5.83862">
        <ele>246.7</ele>
        <time>2022-09-26T11:22:56Z</time>
      </trkpt>
      <trkpt lat="45.90148" lon="5.8386">
        <ele>246.7</ele>
        <time>2022-09-26T11:22:57Z</time>
      </trkpt>
      <trkpt lat="45.90153" lon="5.83858">
        <ele>246.8</ele>
        <time>2022-09-26T11:22:58Z</time>
      </trkpt>
      <trkpt lat="45.90158" lon="5.83856">
        <ele>246.9</ele>
        <time>2022-09-26T11:22:59Z</time>
      </trkpt>
      <trkpt lat="45.90162" lon="5.83854">
        <ele>247</ele>
        <time>2022-09-26T11:23:00Z</time>
      </trkpt>
      <trkpt lat="45.90166" lon="5.83852">
        <ele>247.1</ele>
        <time>2022-09-26T11:23:01Z</time>
      </trkpt>
      <trkpt lat="45.90171" lon="5.8385">
        <ele>247.2</ele>
        <time>2022-09-26T11:23:02Z</time>
      </trkpt>
      <trkpt lat="45.90174" lon="5.83848">
        <ele>247.3</ele>
        <time>2022-09-26T11:23:03Z</time>
      </trkpt>
      <trkpt lat="45.90179" lon="5.83845">
        <ele>247.4</ele>
        <time>2022-09-26T11:23:04Z</time>
      </trkpt>
      <trkpt lat="45.90182" lon="5.83847">
        <ele>247.5</ele>
        <time>2022-09-26T11:23:05Z</time>
      </trkpt>
      <trkpt lat="45.90183" lon="5.83847">
        <ele>247.5</ele>
        <time>2022-09-26T11:23:06Z</time>
      </trkpt>
      <trkpt lat="45.90185" lon="5.83851">
        <ele>247.5</ele>
        <time>2022-09-26T11:23:07Z</time>
      </trkpt>
      <trkpt lat="45.90185" lon="5.83855">
        <ele>247.5</ele>
        <time>2022-09-26T11:23:08Z</time>
      </trkpt>
      <trkpt lat="45.90185" lon="5.83857">
        <ele>247.5</ele>
        <time>2022-09-26T11:23:09Z</time>
      </trkpt>
      <trkpt lat="45.90186" lon="5.83863">
        <ele>247.5</ele>
        <time>2022-09-26T11:23:10Z</time>
      </trkpt>
      <trkpt lat="45.90186" lon="5.83868">
        <ele>247.5</ele>
        <time>2022-09-26T11:23:11Z</time>
      </trkpt>
      <trkpt lat="45.90187" lon="5.83874">
        <ele>247.4</ele>
        <time>2022-09-26T11:23:12Z</time>
      </trkpt>
      <trkpt lat="45.90187" lon="5.8388">
        <ele>247.4</ele>
        <time>2022-09-26T11:23:13Z</time>
      </trkpt>
      <trkpt lat="45.90188" lon="5.83887">
        <ele>247.4</ele>
        <time>2022-09-26T11:23:14Z</time>
      </trkpt>
      <trkpt lat="45.90188" lon="5.83893">
        <ele>247.4</ele>
        <time>2022-09-26T11:23:15Z</time>
      </trkpt>
      <trkpt lat="45.90188" lon="5.83901">
        <ele>247.4</ele>
        <time>2022-09-26T11:23:16Z</time>
      </trkpt>
      <trkpt lat="45.90189" lon="5.83907">
        <ele>247.4</ele>
        <time>2022-09-26T11:23:17Z</time>
      </trkpt>
      <trkpt lat="45.90189" lon="5.83915">
        <ele>247.4</ele>
        <time>2022-09-26T11:23:18Z</time>
      </trkpt>
      <trkpt lat="45.90189" lon="5.83921">
        <ele>247.4</ele>
        <time>2022-09-26T11:23:19Z</time>
      </trkpt>
      <trkpt lat="45.90189" lon="5.83929">
        <ele>247.4</ele>
        <time>2022-09-26T11:23:20Z</time>
      </trkpt>
      <trkpt lat="45.9019" lon="5.83935">
        <ele>247.4</ele>
        <time>2022-09-26T11:23:21Z</time>
      </trkpt>
      <trkpt lat="45.9019" lon="5.83943">
        <ele>247.5</ele>
        <time>2022-09-26T11:23:22Z</time>
      </trkpt>
      <trkpt lat="45.90191" lon="5.8395">
        <ele>247.5</ele>
        <time>2022-09-26T11:23:23Z</time>
      </trkpt>
      <trkpt lat="45.90192" lon="5.83957">
        <ele>247.5</ele>
        <time>2022-09-26T11:23:24Z</time>
      </trkpt>
      <trkpt lat="45.90192" lon="5.83964">
        <ele>247.6</ele>
        <time>2022-09-26T11:23:25Z</time>
      </trkpt>
      <trkpt lat="45.90192" lon="5.83971">
        <ele>247.6</ele>
        <time>2022-09-26T11:23:26Z</time>
      </trkpt>
      <trkpt lat="45.90193" lon="5.83978">
        <ele>247.7</ele>
        <time>2022-09-26T11:23:27Z</time>
      </trkpt>
      <trkpt lat="45.90193" lon="5.83985">
        <ele>247.7</ele>
        <time>2022-09-26T11:23:28Z</time>
      </trkpt>
      <trkpt lat="45.90193" lon="5.83992">
        <ele>247.8</ele>
        <time>2022-09-26T11:23:29Z</time>
      </trkpt>
      <trkpt lat="45.90194" lon="5.83998">
        <ele>247.9</ele>
        <time>2022-09-26T11:23:30Z</time>
      </trkpt>
      <trkpt lat="45.90194" lon="5.84006">
        <ele>248</ele>
        <time>2022-09-26T11:23:31Z</time>
      </trkpt>
      <trkpt lat="45.90194" lon="5.84011">
        <ele>248.1</ele>
        <time>2022-09-26T11:23:32Z</time>
      </trkpt>
      <trkpt lat="45.90194" lon="5.84019">
        <ele>248.2</ele>
        <time>2022-09-26T11:23:33Z</time>
      </trkpt>
      <trkpt lat="45.90194" lon="5.84023">
        <ele>248.2</ele>
        <time>2022-09-26T11:23:34Z</time>
      </trkpt>
      <trkpt lat="45.90194" lon="5.84029">
        <ele>248.3</ele>
        <time>2022-09-26T11:23:35Z</time>
      </trkpt>
      <trkpt lat="45.90193" lon="5.84034">
        <ele>248.4</ele>
        <time>2022-09-26T11:23:36Z</time>
      </trkpt>
      <trkpt lat="45.90193" lon="5.8404">
        <ele>248.5</ele>
        <time>2022-09-26T11:23:37Z</time>
      </trkpt>
      <trkpt lat="45.90194" lon="5.84045">
        <ele>248.6</ele>
        <time>2022-09-26T11:23:38Z</time>
      </trkpt>
      <trkpt lat="45.90197" lon="5.84048">
        <ele>248.6</ele>
        <time>2022-09-26T11:23:39Z</time>
      </trkpt>
      <trkpt lat="45.90199" lon="5.84052">
        <ele>248.6</ele>
        <time>2022-09-26T11:23:40Z</time>
      </trkpt>
      <trkpt lat="45.90203" lon="5.84054">
        <ele>248.6</ele>
        <time>2022-09-26T11:23:41Z</time>
      </trkpt>
      <trkpt lat="45.90207" lon="5.84056">
        <ele>248.6</ele>
        <time>2022-09-26T11:23:42Z</time>
      </trkpt>
      <trkpt lat="45.90211" lon="5.84056">
        <ele>248.5</ele>
        <time>2022-09-26T11:23:43Z</time>
      </trkpt>
      <trkpt lat="45.90216" lon="5.84055">
        <ele>248.5</ele>
        <time>2022-09-26T11:23:44Z</time>
      </trkpt>
      <trkpt lat="45.9022" lon="5.84054">
        <ele>248.5</ele>
        <time>2022-09-26T11:23:45Z</time>
      </trkpt>
      <trkpt lat="45.90225" lon="5.84053">
        <ele>248.5</ele>
        <time>2022-09-26T11:23:46Z</time>
      </trkpt>
      <trkpt lat="45.90229" lon="5.84051">
        <ele>248.5</ele>
        <time>2022-09-26T11:23:47Z</time>
      </trkpt>
      <trkpt lat="45.90234" lon="5.8405">
        <ele>248.5</ele>
        <time>2022-09-26T11:23:48Z</time>
      </trkpt>
      <trkpt lat="45.90239" lon="5.84049">
        <ele>248.5</ele>
        <time>2022-09-26T11:23:49Z</time>
      </trkpt>
      <trkpt lat="45.90244" lon="5.84047">
        <ele>248.5</ele>
        <time>2022-09-26T11:23:50Z</time>
      </trkpt>
      <trkpt lat="45.90249" lon="5.84045">
        <ele>248.5</ele>
        <time>2022-09-26T11:23:51Z</time>
      </trkpt>
      <trkpt lat="45.90254" lon="5.84044">
        <ele>248.5</ele>
        <time>2022-09-26T11:23:52Z</time>
      </trkpt>
      <trkpt lat="45.90259" lon="5.84042">
        <ele>248.5</ele>
        <time>2022-09-26T11:23:53Z</time>
      </trkpt>
      <trkpt lat="45.90263" lon="5.84041">
        <ele>248.5</ele>
        <time>2022-09-26T11:23:54Z</time>
      </trkpt>
      <trkpt lat="45.90268" lon="5.84039">
        <ele>248.5</ele>
        <time>2022-09-26T11:23:55Z</time>
      </trkpt>
      <trkpt lat="45.90273" lon="5.84038">
        <ele>248.5</ele>
        <time>2022-09-26T11:23:56Z</time>
      </trkpt>
      <trkpt lat="45.90278" lon="5.84036">
        <ele>248.5</ele>
        <time>2022-09-26T11:23:57Z</time>
      </trkpt>
      <trkpt lat="45.90282" lon="5.84035">
        <ele>248.5</ele>
        <time>2022-09-26T11:23:58Z</time>
      </trkpt>
      <trkpt lat="45.90287" lon="5.84033">
        <ele>248.6</ele>
        <time>2022-09-26T11:23:59Z</time>
      </trkpt>
      <trkpt lat="45.90292" lon="5.84031">
        <ele>248.6</ele>
        <time>2022-09-26T11:24:00Z</time>
      </trkpt>
      <trkpt lat="45.90296" lon="5.84029">
        <ele>248.6</ele>
        <time>2022-09-26T11:24:01Z</time>
      </trkpt>
      <trkpt lat="45.90301" lon="5.84028">
        <ele>248.6</ele>
        <time>2022-09-26T11:24:02Z</time>
      </trkpt>
      <trkpt lat="45.90307" lon="5.84028">
        <ele>248.6</ele>
        <time>2022-09-26T11:24:03Z</time>
      </trkpt>
      <trkpt lat="45.90311" lon="5.84026">
        <ele>248.6</ele>
        <time>2022-09-26T11:24:04Z</time>
      </trkpt>
      <trkpt lat="45.90316" lon="5.84024">
        <ele>248.7</ele>
        <time>2022-09-26T11:24:05Z</time>
      </trkpt>
      <trkpt lat="45.9032" lon="5.84023">
        <ele>248.7</ele>
        <time>2022-09-26T11:24:06Z</time>
      </trkpt>
      <trkpt lat="45.90325" lon="5.84021">
        <ele>248.7</ele>
        <time>2022-09-26T11:24:07Z</time>
      </trkpt>
      <trkpt lat="45.9033" lon="5.84019">
        <ele>248.7</ele>
        <time>2022-09-26T11:24:08Z</time>
      </trkpt>
      <trkpt lat="45.90335" lon="5.84018">
        <ele>248.8</ele>
        <time>2022-09-26T11:24:09Z</time>
      </trkpt>
      <trkpt lat="45.9034" lon="5.84017">
        <ele>248.8</ele>
        <time>2022-09-26T11:24:10Z</time>
      </trkpt>
      <trkpt lat="45.90344" lon="5.84015">
        <ele>248.8</ele>
        <time>2022-09-26T11:24:11Z</time>
      </trkpt>
      <trkpt lat="45.90349" lon="5.84014">
        <ele>248.9</ele>
        <time>2022-09-26T11:24:12Z</time>
      </trkpt>
      <trkpt lat="45.90354" lon="5.84012">
        <ele>248.9</ele>
        <time>2022-09-26T11:24:13Z</time>
      </trkpt>
      <trkpt lat="45.90359" lon="5.84012">
        <ele>248.9</ele>
        <time>2022-09-26T11:24:14Z</time>
      </trkpt>
      <trkpt lat="45.90363" lon="5.8401">
        <ele>248.9</ele>
        <time>2022-09-26T11:24:15Z</time>
      </trkpt>
      <trkpt lat="45.90367" lon="5.84008">
        <ele>249</ele>
        <time>2022-09-26T11:24:16Z</time>
      </trkpt>
      <trkpt lat="45.90372" lon="5.84007">
        <ele>249</ele>
        <time>2022-09-26T11:24:17Z</time>
      </trkpt>
      <trkpt lat="45.90377" lon="5.84006">
        <ele>249</ele>
        <time>2022-09-26T11:24:18Z</time>
      </trkpt>
      <trkpt lat="45.90381" lon="5.84005">
        <ele>249</ele>
        <time>2022-09-26T11:24:19Z</time>
      </trkpt>
      <trkpt lat="45.90386" lon="5.84004">
        <ele>249.1</ele>
        <time>2022-09-26T11:24:20Z</time>
      </trkpt>
      <trkpt lat="45.9039" lon="5.84003">
        <ele>249.1</ele>
        <time>2022-09-26T11:24:21Z</time>
      </trkpt>
      <trkpt lat="45.90394" lon="5.84001">
        <ele>249.2</ele>
        <time>2022-09-26T11:24:22Z</time>
      </trkpt>
      <trkpt lat="45.90398" lon="5.84">
        <ele>249.2</ele>
        <time>2022-09-26T11:24:23Z</time>
      </trkpt>
      <trkpt lat="45.90403" lon="5.84">
        <ele>249.2</ele>
        <time>2022-09-26T11:24:24Z</time>
      </trkpt>
      <trkpt lat="45.90407" lon="5.83998">
        <ele>249.3</ele>
        <time>2022-09-26T11:24:25Z</time>
      </trkpt>
      <trkpt lat="45.90411" lon="5.83997">
        <ele>249.3</ele>
        <time>2022-09-26T11:24:26Z</time>
      </trkpt>
      <trkpt lat="45.90416" lon="5.83996">
        <ele>249.3</ele>
        <time>2022-09-26T11:24:27Z</time>
      </trkpt>
      <trkpt lat="45.9042" lon="5.83995">
        <ele>249.4</ele>
        <time>2022-09-26T11:24:28Z</time>
      </trkpt>
      <trkpt lat="45.90424" lon="5.83994">
        <ele>249.4</ele>
        <time>2022-09-26T11:24:29Z</time>
      </trkpt>
      <trkpt lat="45.90428" lon="5.83993">
        <ele>249.4</ele>
        <time>2022-09-26T11:24:30Z</time>
      </trkpt>
      <trkpt lat="45.90433" lon="5.83993">
        <ele>249.5</ele>
        <time>2022-09-26T11:24:31Z</time>
      </trkpt>
      <trkpt lat="45.90437" lon="5.83992">
        <ele>249.5</ele>
        <time>2022-09-26T11:24:32Z</time>
      </trkpt>
      <trkpt lat="45.90441" lon="5.83991">
        <ele>249.6</ele>
        <time>2022-09-26T11:24:33Z</time>
      </trkpt>
      <trkpt lat="45.90445" lon="5.83991">
        <ele>249.7</ele>
        <time>2022-09-26T11:24:34Z</time>
      </trkpt>
      <trkpt lat="45.9045" lon="5.8399">
        <ele>249.7</ele>
        <time>2022-09-26T11:24:35Z</time>
      </trkpt>
      <trkpt lat="45.90454" lon="5.83989">
        <ele>249.8</ele>
        <time>2022-09-26T11:24:36Z</time>
      </trkpt>
      <trkpt lat="45.90458" lon="5.83989">
        <ele>249.9</ele>
        <time>2022-09-26T11:24:37Z</time>
      </trkpt>
      <trkpt lat="45.90462" lon="5.83988">
        <ele>249.9</ele>
        <time>2022-09-26T11:24:38Z</time>
      </trkpt>
      <trkpt lat="45.90467" lon="5.83988">
        <ele>250</ele>
        <time>2022-09-26T11:24:39Z</time>
      </trkpt>
      <trkpt lat="45.90471" lon="5.83988">
        <ele>250.1</ele>
        <time>2022-09-26T11:24:40Z</time>
      </trkpt>
      <trkpt lat="45.90476" lon="5.83987">
        <ele>250.1</ele>
        <time>2022-09-26T11:24:41Z</time>
      </trkpt>
      <trkpt lat="45.9048" lon="5.83987">
        <ele>250.2</ele>
        <time>2022-09-26T11:24:42Z</time>
      </trkpt>
      <trkpt lat="45.90483" lon="5.83987">
        <ele>250.3</ele>
        <time>2022-09-26T11:24:43Z</time>
      </trkpt>
      <trkpt lat="45.90487" lon="5.83986">
        <ele>250.3</ele>
        <time>2022-09-26T11:24:44Z</time>
      </trkpt>
      <trkpt lat="45.90492" lon="5.83986">
        <ele>250.4</ele>
        <time>2022-09-26T11:24:45Z</time>
      </trkpt>
      <trkpt lat="45.90496" lon="5.83986">
        <ele>250.5</ele>
        <time>2022-09-26T11:24:46Z</time>
      </trkpt>
      <trkpt lat="45.905" lon="5.83986">
        <ele>250.5</ele>
        <time>2022-09-26T11:24:47Z</time>
      </trkpt>
      <trkpt lat="45.90505" lon="5.83986">
        <ele>250.6</ele>
        <time>2022-09-26T11:24:48Z</time>
      </trkpt>
      <trkpt lat="45.90509" lon="5.83985">
        <ele>250.7</ele>
        <time>2022-09-26T11:24:49Z</time>
      </trkpt>
      <trkpt lat="45.90514" lon="5.83985">
        <ele>250.8</ele>
        <time>2022-09-26T11:24:50Z</time>
      </trkpt>
      <trkpt lat="45.90518" lon="5.83985">
        <ele>250.9</ele>
        <time>2022-09-26T11:24:51Z</time>
      </trkpt>
      <trkpt lat="45.90522" lon="5.83985">
        <ele>250.9</ele>
        <time>2022-09-26T11:24:52Z</time>
      </trkpt>
      <trkpt lat="45.90527" lon="5.83983">
        <ele>251</ele>
        <time>2022-09-26T11:24:53Z</time>
      </trkpt>
      <trkpt lat="45.90531" lon="5.83983">
        <ele>251.1</ele>
        <time>2022-09-26T11:24:54Z</time>
      </trkpt>
      <trkpt lat="45.90535" lon="5.83983">
        <ele>251.2</ele>
        <time>2022-09-26T11:24:55Z</time>
      </trkpt>
      <trkpt lat="45.90539" lon="5.83983">
        <ele>251.3</ele>
        <time>2022-09-26T11:24:56Z</time>
      </trkpt>
      <trkpt lat="45.90543" lon="5.83983">
        <ele>251.4</ele>
        <time>2022-09-26T11:24:57Z</time>
      </trkpt>
      <trkpt lat="45.90548" lon="5.83982">
        <ele>251.5</ele>
        <time>2022-09-26T11:24:58Z</time>
      </trkpt>
      <trkpt lat="45.90552" lon="5.83982">
        <ele>251.6</ele>
        <time>2022-09-26T11:24:59Z</time>
      </trkpt>
      <trkpt lat="45.90556" lon="5.83982">
        <ele>251.7</ele>
        <time>2022-09-26T11:25:00Z</time>
      </trkpt>
      <trkpt lat="45.9056" lon="5.83982">
        <ele>251.8</ele>
        <time>2022-09-26T11:25:01Z</time>
      </trkpt>
      <trkpt lat="45.90563" lon="5.83982">
        <ele>251.9</ele>
        <time>2022-09-26T11:25:02Z</time>
      </trkpt>
      <trkpt lat="45.90566" lon="5.83981">
        <ele>252</ele>
        <time>2022-09-26T11:25:03Z</time>
      </trkpt>
      <trkpt lat="45.9057" lon="5.83981">
        <ele>252.1</ele>
        <time>2022-09-26T11:25:04Z</time>
      </trkpt>
      <trkpt lat="45.90574" lon="5.8398">
        <ele>252.2</ele>
        <time>2022-09-26T11:25:05Z</time>
      </trkpt>
      <trkpt lat="45.90578" lon="5.83979">
        <ele>252.4</ele>
        <time>2022-09-26T11:25:06Z</time>
      </trkpt>
      <trkpt lat="45.90581" lon="5.83979">
        <ele>252.5</ele>
        <time>2022-09-26T11:25:07Z</time>
      </trkpt>
      <trkpt lat="45.90585" lon="5.83978">
        <ele>252.6</ele>
        <time>2022-09-26T11:25:08Z</time>
      </trkpt>
      <trkpt lat="45.90589" lon="5.83978">
        <ele>252.8</ele>
        <time>2022-09-26T11:25:09Z</time>
      </trkpt>
      <trkpt lat="45.90593" lon="5.83979">
        <ele>252.9</ele>
        <time>2022-09-26T11:25:10Z</time>
      </trkpt>
      <trkpt lat="45.90596" lon="5.83978">
        <ele>253</ele>
        <time>2022-09-26T11:25:11Z</time>
      </trkpt>
      <trkpt lat="45.90599" lon="5.83977">
        <ele>253.1</ele>
        <time>2022-09-26T11:25:12Z</time>
      </trkpt>
      <trkpt lat="45.90603" lon="5.83978">
        <ele>253.3</ele>
        <time>2022-09-26T11:25:13Z</time>
      </trkpt>
      <trkpt lat="45.90606" lon="5.83978">
        <ele>253.4</ele>
        <time>2022-09-26T11:25:14Z</time>
      </trkpt>
      <trkpt lat="45.9061" lon="5.83978">
        <ele>253.6</ele>
        <time>2022-09-26T11:25:15Z</time>
      </trkpt>
      <trkpt lat="45.90614" lon="5.83977">
        <ele>253.7</ele>
        <time>2022-09-26T11:25:16Z</time>
      </trkpt>
      <trkpt lat="45.90617" lon="5.83977">
        <ele>253.8</ele>
        <time>2022-09-26T11:25:17Z</time>
      </trkpt>
      <trkpt lat="45.9062" lon="5.83977">
        <ele>253.9</ele>
        <time>2022-09-26T11:25:18Z</time>
      </trkpt>
      <trkpt lat="45.90624" lon="5.83977">
        <ele>254.1</ele>
        <time>2022-09-26T11:25:19Z</time>
      </trkpt>
      <trkpt lat="45.90627" lon="5.83977">
        <ele>254.2</ele>
        <time>2022-09-26T11:25:20Z</time>
      </trkpt>
      <trkpt lat="45.90631" lon="5.83976">
        <ele>254.4</ele>
        <time>2022-09-26T11:25:21Z</time>
      </trkpt>
      <trkpt lat="45.90634" lon="5.83976">
        <ele>254.5</ele>
        <time>2022-09-26T11:25:22Z</time>
      </trkpt>
      <trkpt lat="45.90637" lon="5.83976">
        <ele>254.7</ele>
        <time>2022-09-26T11:25:23Z</time>
      </trkpt>
      <trkpt lat="45.9064" lon="5.83976">
        <ele>254.8</ele>
        <time>2022-09-26T11:25:24Z</time>
      </trkpt>
      <trkpt lat="45.90643" lon="5.83976">
        <ele>254.9</ele>
        <time>2022-09-26T11:25:25Z</time>
      </trkpt>
      <trkpt lat="45.90647" lon="5.83976">
        <ele>255.1</ele>
        <time>2022-09-26T11:25:26Z</time>
      </trkpt>
      <trkpt lat="45.9065" lon="5.83975">
        <ele>255.2</ele>
        <time>2022-09-26T11:25:27Z</time>
      </trkpt>
      <trkpt lat="45.90653" lon="5.83975">
        <ele>255.4</ele>
        <time>2022-09-26T11:25:28Z</time>
      </trkpt>
      <trkpt lat="45.90656" lon="5.83976">
        <ele>255.5</ele>
        <time>2022-09-26T11:25:29Z</time>
      </trkpt>
      <trkpt lat="45.90658" lon="5.83974">
        <ele>255.6</ele>
        <time>2022-09-26T11:25:30Z</time>
      </trkpt>
      <trkpt lat="45.90662" lon="5.83973">
        <ele>255.8</ele>
        <time>2022-09-26T11:25:31Z</time>
      </trkpt>
      <trkpt lat="45.90663" lon="5.83974">
        <ele>255.9</ele>
        <time>2022-09-26T11:25:32Z</time>
      </trkpt>
      <trkpt lat="45.90667" lon="5.83974">
        <ele>256</ele>
        <time>2022-09-26T11:25:33Z</time>
      </trkpt>
      <trkpt lat="45.90669" lon="5.83974">
        <ele>256.1</ele>
        <time>2022-09-26T11:25:34Z</time>
      </trkpt>
      <trkpt lat="45.90672" lon="5.83974">
        <ele>256.3</ele>
        <time>2022-09-26T11:25:35Z</time>
      </trkpt>
      <trkpt lat="45.90676" lon="5.83973">
        <ele>256.4</ele>
        <time>2022-09-26T11:25:36Z</time>
      </trkpt>
      <trkpt lat="45.90678" lon="5.83973">
        <ele>256.5</ele>
        <time>2022-09-26T11:25:37Z</time>
      </trkpt>
      <trkpt lat="45.90681" lon="5.83972">
        <ele>256.7</ele>
        <time>2022-09-26T11:25:38Z</time>
      </trkpt>
      <trkpt lat="45.90682" lon="5.83972">
        <ele>256.7</ele>
        <time>2022-09-26T11:25:39Z</time>
      </trkpt>
      <trkpt lat="45.90686" lon="5.83971">
        <ele>256.9</ele>
        <time>2022-09-26T11:25:40Z</time>
      </trkpt>
      <trkpt lat="45.9069" lon="5.83971">
        <ele>257.1</ele>
        <time>2022-09-26T11:25:41Z</time>
      </trkpt>
      <trkpt lat="45.90693" lon="5.83972">
        <ele>257.2</ele>
        <time>2022-09-26T11:25:42Z</time>
      </trkpt>
      <trkpt lat="45.90694" lon="5.83972">
        <ele>257.2</ele>
        <time>2022-09-26T11:25:43Z</time>
      </trkpt>
      <trkpt lat="45.90697" lon="5.83972">
        <ele>257.4</ele>
        <time>2022-09-26T11:25:44Z</time>
      </trkpt>
      <trkpt lat="45.907" lon="5.83972">
        <ele>257.5</ele>
        <time>2022-09-26T11:25:45Z</time>
      </trkpt>
      <trkpt lat="45.90703" lon="5.83971">
        <ele>257.6</ele>
        <time>2022-09-26T11:25:46Z</time>
      </trkpt>
      <trkpt lat="45.90707" lon="5.8397">
        <ele>257.8</ele>
        <time>2022-09-26T11:25:47Z</time>
      </trkpt>
      <trkpt lat="45.90709" lon="5.8397">
        <ele>257.9</ele>
        <time>2022-09-26T11:25:48Z</time>
      </trkpt>
      <trkpt lat="45.90711" lon="5.8397">
        <ele>258</ele>
        <time>2022-09-26T11:25:49Z</time>
      </trkpt>
      <trkpt lat="45.90715" lon="5.83968">
        <ele>258.2</ele>
        <time>2022-09-26T11:25:50Z</time>
      </trkpt>
      <trkpt lat="45.90717" lon="5.83968">
        <ele>258.2</ele>
        <time>2022-09-26T11:25:51Z</time>
      </trkpt>
      <trkpt lat="45.9072" lon="5.83966">
        <ele>258.3</ele>
        <time>2022-09-26T11:25:52Z</time>
      </trkpt>
      <trkpt lat="45.90723" lon="5.83966">
        <ele>258.5</ele>
        <time>2022-09-26T11:25:53Z</time>
      </trkpt>
      <trkpt lat="45.90726" lon="5.83965">
        <ele>258.6</ele>
        <time>2022-09-26T11:25:54Z</time>
      </trkpt>
      <trkpt lat="45.90729" lon="5.83964">
        <ele>258.7</ele>
        <time>2022-09-26T11:25:55Z</time>
      </trkpt>
      <trkpt lat="45.90732" lon="5.83962">
        <ele>258.9</ele>
        <time>2022-09-26T11:25:56Z</time>
      </trkpt>
      <trkpt lat="45.90736" lon="5.83962">
        <ele>259</ele>
        <time>2022-09-26T11:25:57Z</time>
      </trkpt>
      <trkpt lat="45.90738" lon="5.83961">
        <ele>259.1</ele>
        <time>2022-09-26T11:25:58Z</time>
      </trkpt>
      <trkpt lat="45.90741" lon="5.83961">
        <ele>259.2</ele>
        <time>2022-09-26T11:25:59Z</time>
      </trkpt>
      <trkpt lat="45.90745" lon="5.83961">
        <ele>259.3</ele>
        <time>2022-09-26T11:26:00Z</time>
      </trkpt>
      <trkpt lat="45.90748" lon="5.8396">
        <ele>259.5</ele>
        <time>2022-09-26T11:26:01Z</time>
      </trkpt>
      <trkpt lat="45.90751" lon="5.8396">
        <ele>259.6</ele>
        <time>2022-09-26T11:26:02Z</time>
      </trkpt>
      <trkpt lat="45.90753" lon="5.83959">
        <ele>259.7</ele>
        <time>2022-09-26T11:26:03Z</time>
      </trkpt>
      <trkpt lat="45.90756" lon="5.83959">
        <ele>259.8</ele>
        <time>2022-09-26T11:26:04Z</time>
      </trkpt>
      <trkpt lat="45.90759" lon="5.83959">
        <ele>259.9</ele>
        <time>2022-09-26T11:26:05Z</time>
      </trkpt>
      <trkpt lat="45.90762" lon="5.83959">
        <ele>260</ele>
        <time>2022-09-26T11:26:06Z</time>
      </trkpt>
      <trkpt lat="45.90766" lon="5.83959">
        <ele>260.2</ele>
        <time>2022-09-26T11:26:07Z</time>
      </trkpt>
      <trkpt lat="45.90769" lon="5.83959">
        <ele>260.3</ele>
        <time>2022-09-26T11:26:08Z</time>
      </trkpt>
      <trkpt lat="45.90772" lon="5.83958">
        <ele>260.4</ele>
        <time>2022-09-26T11:26:09Z</time>
      </trkpt>
      <trkpt lat="45.90776" lon="5.83958">
        <ele>260.5</ele>
        <time>2022-09-26T11:26:10Z</time>
      </trkpt>
      <trkpt lat="45.90777" lon="5.83958">
        <ele>260.6</ele>
        <time>2022-09-26T11:26:11Z</time>
      </trkpt>
      <trkpt lat="45.9078" lon="5.83957">
        <ele>260.7</ele>
        <time>2022-09-26T11:26:12Z</time>
      </trkpt>
      <trkpt lat="45.90784" lon="5.83957">
        <ele>260.9</ele>
        <time>2022-09-26T11:26:13Z</time>
      </trkpt>
      <trkpt lat="45.90787" lon="5.83957">
        <ele>261</ele>
        <time>2022-09-26T11:26:14Z</time>
      </trkpt>
      <trkpt lat="45.90789" lon="5.83957">
        <ele>261.1</ele>
        <time>2022-09-26T11:26:15Z</time>
      </trkpt>
      <trkpt lat="45.90792" lon="5.83957">
        <ele>261.2</ele>
        <time>2022-09-26T11:26:16Z</time>
      </trkpt>
      <trkpt lat="45.90795" lon="5.83958">
        <ele>261.4</ele>
        <time>2022-09-26T11:26:17Z</time>
      </trkpt>
      <trkpt lat="45.908" lon="5.83958">
        <ele>261.6</ele>
        <time>2022-09-26T11:26:18Z</time>
      </trkpt>
      <trkpt lat="45.90801" lon="5.83958">
        <ele>261.6</ele>
        <time>2022-09-26T11:26:19Z</time>
      </trkpt>
      <trkpt lat="45.90806" lon="5.83958">
        <ele>261.8</ele>
        <time>2022-09-26T11:26:20Z</time>
      </trkpt>
      <trkpt lat="45.90807" lon="5.83959">
        <ele>261.9</ele>
        <time>2022-09-26T11:26:21Z</time>
      </trkpt>
      <trkpt lat="45.9081" lon="5.83959">
        <ele>262</ele>
        <time>2022-09-26T11:26:22Z</time>
      </trkpt>
      <trkpt lat="45.90814" lon="5.83958">
        <ele>262.2</ele>
        <time>2022-09-26T11:26:23Z</time>
      </trkpt>
      <trkpt lat="45.90815" lon="5.83958">
        <ele>262.3</ele>
        <time>2022-09-26T11:26:24Z</time>
      </trkpt>
      <trkpt lat="45.90819" lon="5.83958">
        <ele>262.5</ele>
        <time>2022-09-26T11:26:25Z</time>
      </trkpt>
      <trkpt lat="45.9082" lon="5.83958">
        <ele>262.5</ele>
        <time>2022-09-26T11:26:26Z</time>
      </trkpt>
      <trkpt lat="45.90823" lon="5.83958">
        <ele>262.7</ele>
        <time>2022-09-26T11:26:27Z</time>
      </trkpt>
      <trkpt lat="45.90827" lon="5.83957">
        <ele>262.8</ele>
        <time>2022-09-26T11:26:28Z</time>
      </trkpt>
      <trkpt lat="45.90828" lon="5.83957">
        <ele>262.9</ele>
        <time>2022-09-26T11:26:29Z</time>
      </trkpt>
      <trkpt lat="45.90831" lon="5.83956">
        <ele>263.1</ele>
        <time>2022-09-26T11:26:30Z</time>
      </trkpt>
      <trkpt lat="45.90835" lon="5.83956">
        <ele>263.3</ele>
        <time>2022-09-26T11:26:31Z</time>
      </trkpt>
      <trkpt lat="45.90837" lon="5.83956">
        <ele>263.3</ele>
        <time>2022-09-26T11:26:32Z</time>
      </trkpt>
      <trkpt lat="45.9084" lon="5.83956">
        <ele>263.5</ele>
        <time>2022-09-26T11:26:33Z</time>
      </trkpt>
      <trkpt lat="45.90841" lon="5.83956">
        <ele>263.5</ele>
        <time>2022-09-26T11:26:34Z</time>
      </trkpt>
      <trkpt lat="45.90844" lon="5.83954">
        <ele>263.7</ele>
        <time>2022-09-26T11:26:35Z</time>
      </trkpt>
      <trkpt lat="45.90845" lon="5.83954">
        <ele>263.7</ele>
        <time>2022-09-26T11:26:36Z</time>
      </trkpt>
      <trkpt lat="45.90848" lon="5.83954">
        <ele>263.9</ele>
        <time>2022-09-26T11:26:37Z</time>
      </trkpt>
      <trkpt lat="45.90853" lon="5.83954">
        <ele>264.1</ele>
        <time>2022-09-26T11:26:38Z</time>
      </trkpt>
      <trkpt lat="45.90855" lon="5.83954">
        <ele>264.2</ele>
        <time>2022-09-26T11:26:39Z</time>
      </trkpt>
      <trkpt lat="45.90858" lon="5.83954">
        <ele>264.4</ele>
        <time>2022-09-26T11:26:40Z</time>
      </trkpt>
      <trkpt lat="45.9086" lon="5.83954">
        <ele>264.5</ele>
        <time>2022-09-26T11:26:41Z</time>
      </trkpt>
      <trkpt lat="45.90863" lon="5.83953">
        <ele>264.6</ele>
        <time>2022-09-26T11:26:42Z</time>
      </trkpt>
      <trkpt lat="45.90864" lon="5.83954">
        <ele>264.7</ele>
        <time>2022-09-26T11:26:43Z</time>
      </trkpt>
      <trkpt lat="45.90866" lon="5.83954">
        <ele>264.8</ele>
        <time>2022-09-26T11:26:44Z</time>
      </trkpt>
      <trkpt lat="45.9087" lon="5.83954">
        <ele>265</ele>
        <time>2022-09-26T11:26:45Z</time>
      </trkpt>
      <trkpt lat="45.90872" lon="5.83954">
        <ele>265.1</ele>
        <time>2022-09-26T11:26:46Z</time>
      </trkpt>
      <trkpt lat="45.90875" lon="5.83953">
        <ele>265.3</ele>
        <time>2022-09-26T11:26:47Z</time>
      </trkpt>
      <trkpt lat="45.90877" lon="5.83953">
        <ele>265.4</ele>
        <time>2022-09-26T11:26:48Z</time>
      </trkpt>
      <trkpt lat="45.9088" lon="5.83954">
        <ele>265.6</ele>
        <time>2022-09-26T11:26:49Z</time>
      </trkpt>
      <trkpt lat="45.90881" lon="5.83954">
        <ele>265.7</ele>
        <time>2022-09-26T11:26:50Z</time>
      </trkpt>
      <trkpt lat="45.90885" lon="5.83953">
        <ele>265.9</ele>
        <time>2022-09-26T11:26:51Z</time>
      </trkpt>
      <trkpt lat="45.90886" lon="5.83953">
        <ele>266</ele>
        <time>2022-09-26T11:26:52Z</time>
      </trkpt>
      <trkpt lat="45.90889" lon="5.83953">
        <ele>266.1</ele>
        <time>2022-09-26T11:26:53Z</time>
      </trkpt>
      <trkpt lat="45.9089" lon="5.83953">
        <ele>266.2</ele>
        <time>2022-09-26T11:26:54Z</time>
      </trkpt>
      <trkpt lat="45.90893" lon="5.83953">
        <ele>266.4</ele>
        <time>2022-09-26T11:26:55Z</time>
      </trkpt>
      <trkpt lat="45.90896" lon="5.83953">
        <ele>266.6</ele>
        <time>2022-09-26T11:26:56Z</time>
      </trkpt>
      <trkpt lat="45.90897" lon="5.83953">
        <ele>266.7</ele>
        <time>2022-09-26T11:26:57Z</time>
      </trkpt>
      <trkpt lat="45.90901" lon="5.83954">
        <ele>266.9</ele>
        <time>2022-09-26T11:26:58Z</time>
      </trkpt>
      <trkpt lat="45.90902" lon="5.83953">
        <ele>267</ele>
        <time>2022-09-26T11:26:59Z</time>
      </trkpt>
      <trkpt lat="45.90906" lon="5.83954">
        <ele>267.2</ele>
        <time>2022-09-26T11:27:00Z</time>
      </trkpt>
      <trkpt lat="45.90907" lon="5.83954">
        <ele>267.3</ele>
        <time>2022-09-26T11:27:01Z</time>
      </trkpt>
      <trkpt lat="45.9091" lon="5.83954">
        <ele>267.5</ele>
        <time>2022-09-26T11:27:02Z</time>
      </trkpt>
      <trkpt lat="45.90911" lon="5.83954">
        <ele>267.6</ele>
        <time>2022-09-26T11:27:03Z</time>
      </trkpt>
      <trkpt lat="45.90915" lon="5.83954">
        <ele>267.8</ele>
        <time>2022-09-26T11:27:04Z</time>
      </trkpt>
      <trkpt lat="45.90915" lon="5.83954">
        <ele>267.9</ele>
        <time>2022-09-26T11:27:05Z</time>
      </trkpt>
      <trkpt lat="45.90919" lon="5.83955">
        <ele>268.1</ele>
        <time>2022-09-26T11:27:06Z</time>
      </trkpt>
      <trkpt lat="45.9092" lon="5.83955">
        <ele>268.2</ele>
        <time>2022-09-26T11:27:07Z</time>
      </trkpt>
      <trkpt lat="45.90923" lon="5.83955">
        <ele>268.4</ele>
        <time>2022-09-26T11:27:08Z</time>
      </trkpt>
      <trkpt lat="45.90924" lon="5.83955">
        <ele>268.5</ele>
        <time>2022-09-26T11:27:09Z</time>
      </trkpt>
      <trkpt lat="45.90927" lon="5.83954">
        <ele>268.6</ele>
        <time>2022-09-26T11:27:10Z</time>
      </trkpt>
      <trkpt lat="45.90928" lon="5.83955">
        <ele>268.7</ele>
        <time>2022-09-26T11:27:11Z</time>
      </trkpt>
      <trkpt lat="45.90931" lon="5.83955">
        <ele>268.9</ele>
        <time>2022-09-26T11:27:12Z</time>
      </trkpt>
      <trkpt lat="45.90932" lon="5.83955">
        <ele>268.9</ele>
        <time>2022-09-26T11:27:13Z</time>
      </trkpt>
      <trkpt lat="45.90935" lon="5.83956">
        <ele>269.2</ele>
        <time>2022-09-26T11:27:14Z</time>
      </trkpt>
      <trkpt lat="45.90936" lon="5.83957">
        <ele>269.2</ele>
        <time>2022-09-26T11:27:15Z</time>
      </trkpt>
      <trkpt lat="45.90939" lon="5.83958">
        <ele>269.4</ele>
        <time>2022-09-26T11:27:16Z</time>
      </trkpt>
      <trkpt lat="45.9094" lon="5.83958">
        <ele>269.5</ele>
        <time>2022-09-26T11:27:17Z</time>
      </trkpt>
      <trkpt lat="45.90944" lon="5.83959">
        <ele>269.7</ele>
        <time>2022-09-26T11:27:18Z</time>
      </trkpt>
      <trkpt lat="45.90945" lon="5.83959">
        <ele>269.8</ele>
        <time>2022-09-26T11:27:19Z</time>
      </trkpt>
      <trkpt lat="45.90948" lon="5.83959">
        <ele>270</ele>
        <time>2022-09-26T11:27:20Z</time>
      </trkpt>
      <trkpt lat="45.90949" lon="5.83959">
        <ele>270.1</ele>
        <time>2022-09-26T11:27:21Z</time>
      </trkpt>
      <trkpt lat="45.90952" lon="5.83961">
        <ele>270.3</ele>
        <time>2022-09-26T11:27:22Z</time>
      </trkpt>
      <trkpt lat="45.90953" lon="5.83961">
        <ele>270.4</ele>
        <time>2022-09-26T11:27:23Z</time>
      </trkpt>
      <trkpt lat="45.90955" lon="5.83962">
        <ele>270.5</ele>
        <time>2022-09-26T11:27:24Z</time>
      </trkpt>
      <trkpt lat="45.90957" lon="5.83962">
        <ele>270.6</ele>
        <time>2022-09-26T11:27:25Z</time>
      </trkpt>
      <trkpt lat="45.90958" lon="5.83962">
        <ele>270.7</ele>
        <time>2022-09-26T11:27:26Z</time>
      </trkpt>
      <trkpt lat="45.9096" lon="5.83963">
        <ele>270.8</ele>
        <time>2022-09-26T11:27:27Z</time>
      </trkpt>
      <trkpt lat="45.90963" lon="5.83963">
        <ele>271</ele>
        <time>2022-09-26T11:27:28Z</time>
      </trkpt>
      <trkpt lat="45.90963" lon="5.83963">
        <ele>271</ele>
        <time>2022-09-26T11:27:29Z</time>
      </trkpt>
      <trkpt lat="45.90965" lon="5.83964">
        <ele>271.2</ele>
        <time>2022-09-26T11:27:30Z</time>
      </trkpt>
      <trkpt lat="45.90967" lon="5.83965">
        <ele>271.3</ele>
        <time>2022-09-26T11:27:31Z</time>
      </trkpt>
      <trkpt lat="45.90968" lon="5.83965">
        <ele>271.3</ele>
        <time>2022-09-26T11:27:32Z</time>
      </trkpt>
      <trkpt lat="45.9097" lon="5.83965">
        <ele>271.5</ele>
        <time>2022-09-26T11:27:33Z</time>
      </trkpt>
      <trkpt lat="45.90973" lon="5.83965">
        <ele>271.7</ele>
        <time>2022-09-26T11:27:34Z</time>
      </trkpt>
      <trkpt lat="45.90974" lon="5.83965">
        <ele>271.7</ele>
        <time>2022-09-26T11:27:35Z</time>
      </trkpt>
      <trkpt lat="45.90977" lon="5.83965">
        <ele>272</ele>
        <time>2022-09-26T11:27:36Z</time>
      </trkpt>
      <trkpt lat="45.90978" lon="5.83965">
        <ele>272</ele>
        <time>2022-09-26T11:27:37Z</time>
      </trkpt>
      <trkpt lat="45.90981" lon="5.83966">
        <ele>272.2</ele>
        <time>2022-09-26T11:27:38Z</time>
      </trkpt>
      <trkpt lat="45.90983" lon="5.83966">
        <ele>272.3</ele>
        <time>2022-09-26T11:27:39Z</time>
      </trkpt>
      <trkpt lat="45.90984" lon="5.83966">
        <ele>272.4</ele>
        <time>2022-09-26T11:27:40Z</time>
      </trkpt>
      <trkpt lat="45.90986" lon="5.83967">
        <ele>272.6</ele>
        <time>2022-09-26T11:27:41Z</time>
      </trkpt>
      <trkpt lat="45.90989" lon="5.83968">
        <ele>272.8</ele>
        <time>2022-09-26T11:27:42Z</time>
      </trkpt>
      <trkpt lat="45.9099" lon="5.83968">
        <ele>272.9</ele>
        <time>2022-09-26T11:27:43Z</time>
      </trkpt>
      <trkpt lat="45.90992" lon="5.83968">
        <ele>272.9</ele>
        <time>2022-09-26T11:27:44Z</time>
      </trkpt>
      <trkpt lat="45.90994" lon="5.83968">
        <ele>273.1</ele>
        <time>2022-09-26T11:27:45Z</time>
      </trkpt>
      <trkpt lat="45.90997" lon="5.83969">
        <ele>273.3</ele>
        <time>2022-09-26T11:27:46Z</time>
      </trkpt>
      <trkpt lat="45.90998" lon="5.8397">
        <ele>273.4</ele>
        <time>2022-09-26T11:27:47Z</time>
      </trkpt>
      <trkpt lat="45.91" lon="5.83971">
        <ele>273.5</ele>
        <time>2022-09-26T11:27:48Z</time>
      </trkpt>
      <trkpt lat="45.91002" lon="5.83971">
        <ele>273.7</ele>
        <time>2022-09-26T11:27:49Z</time>
      </trkpt>
      <trkpt lat="45.91004" lon="5.83972">
        <ele>273.8</ele>
        <time>2022-09-26T11:27:50Z</time>
      </trkpt>
      <trkpt lat="45.91005" lon="5.83972">
        <ele>273.9</ele>
        <time>2022-09-26T11:27:51Z</time>
      </trkpt>
      <trkpt lat="45.91008" lon="5.83973">
        <ele>274.1</ele>
        <time>2022-09-26T11:27:52Z</time>
      </trkpt>
      <trkpt lat="45.91009" lon="5.83974">
        <ele>274.2</ele>
        <time>2022-09-26T11:27:53Z</time>
      </trkpt>
      <trkpt lat="45.9101" lon="5.83974">
        <ele>274.2</ele>
        <time>2022-09-26T11:27:54Z</time>
      </trkpt>
      <trkpt lat="45.91012" lon="5.83974">
        <ele>274.4</ele>
        <time>2022-09-26T11:27:55Z</time>
      </trkpt>
      <trkpt lat="45.91015" lon="5.83974">
        <ele>274.6</ele>
        <time>2022-09-26T11:27:56Z</time>
      </trkpt>
      <trkpt lat="45.91016" lon="5.83974">
        <ele>274.6</ele>
        <time>2022-09-26T11:27:57Z</time>
      </trkpt>
      <trkpt lat="45.91017" lon="5.83974">
        <ele>274.7</ele>
        <time>2022-09-26T11:27:58Z</time>
      </trkpt>
      <trkpt lat="45.91019" lon="5.83974">
        <ele>274.9</ele>
        <time>2022-09-26T11:27:59Z</time>
      </trkpt>
      <trkpt lat="45.9102" lon="5.83974">
        <ele>275</ele>
        <time>2022-09-26T11:28:00Z</time>
      </trkpt>
      <trkpt lat="45.91022" lon="5.83974">
        <ele>275.1</ele>
        <time>2022-09-26T11:28:01Z</time>
      </trkpt>
      <trkpt lat="45.91024" lon="5.83973">
        <ele>275.2</ele>
        <time>2022-09-26T11:28:02Z</time>
      </trkpt>
      <trkpt lat="45.91025" lon="5.83973">
        <ele>275.3</ele>
        <time>2022-09-26T11:28:03Z</time>
      </trkpt>
      <trkpt lat="45.91027" lon="5.83973">
        <ele>275.4</ele>
        <time>2022-09-26T11:28:04Z</time>
      </trkpt>
      <trkpt lat="45.91028" lon="5.83974">
        <ele>275.5</ele>
        <time>2022-09-26T11:28:05Z</time>
      </trkpt>
      <trkpt lat="45.91029" lon="5.83974">
        <ele>275.6</ele>
        <time>2022-09-26T11:28:06Z</time>
      </trkpt>
      <trkpt lat="45.91031" lon="5.83974">
        <ele>275.7</ele>
        <time>2022-09-26T11:28:07Z</time>
      </trkpt>
      <trkpt lat="45.91033" lon="5.83973">
        <ele>275.8</ele>
        <time>2022-09-26T11:28:08Z</time>
      </trkpt>
      <trkpt lat="45.91034" lon="5.83973">
        <ele>275.9</ele>
        <time>2022-09-26T11:28:09Z</time>
      </trkpt>
      <trkpt lat="45.91037" lon="5.83974">
        <ele>276.1</ele>
        <time>2022-09-26T11:28:10Z</time>
      </trkpt>
      <trkpt lat="45.91038" lon="5.83974">
        <ele>276.2</ele>
        <time>2022-09-26T11:28:11Z</time>
      </trkpt>
      <trkpt lat="45.91041" lon="5.83976">
        <ele>276.4</ele>
        <time>2022-09-26T11:28:12Z</time>
      </trkpt>
      <trkpt lat="45.91042" lon="5.83977">
        <ele>276.5</ele>
        <time>2022-09-26T11:28:13Z</time>
      </trkpt>
      <trkpt lat="45.91043" lon="5.83977">
        <ele>276.6</ele>
        <time>2022-09-26T11:28:14Z</time>
      </trkpt>
      <trkpt lat="45.91045" lon="5.83977">
        <ele>276.7</ele>
        <time>2022-09-26T11:28:15Z</time>
      </trkpt>
      <trkpt lat="45.91048" lon="5.83977">
        <ele>276.9</ele>
        <time>2022-09-26T11:28:16Z</time>
      </trkpt>
      <trkpt lat="45.9105" lon="5.83977">
        <ele>277</ele>
        <time>2022-09-26T11:28:17Z</time>
      </trkpt>
      <trkpt lat="45.91051" lon="5.83977">
        <ele>277.1</ele>
        <time>2022-09-26T11:28:18Z</time>
      </trkpt>
      <trkpt lat="45.91053" lon="5.83977">
        <ele>277.2</ele>
        <time>2022-09-26T11:28:19Z</time>
      </trkpt>
      <trkpt lat="45.91054" lon="5.83977">
        <ele>277.3</ele>
        <time>2022-09-26T11:28:20Z</time>
      </trkpt>
      <trkpt lat="45.91056" lon="5.83978">
        <ele>277.4</ele>
        <time>2022-09-26T11:28:21Z</time>
      </trkpt>
      <trkpt lat="45.91059" lon="5.83979">
        <ele>277.6</ele>
        <time>2022-09-26T11:28:22Z</time>
      </trkpt>
      <trkpt lat="45.9106" lon="5.83979">
        <ele>277.7</ele>
        <time>2022-09-26T11:28:23Z</time>
      </trkpt>
      <trkpt lat="45.91061" lon="5.83979">
        <ele>277.8</ele>
        <time>2022-09-26T11:28:24Z</time>
      </trkpt>
      <trkpt lat="45.91063" lon="5.83979">
        <ele>277.9</ele>
        <time>2022-09-26T11:28:25Z</time>
      </trkpt>
      <trkpt lat="45.91067" lon="5.8398">
        <ele>278.1</ele>
        <time>2022-09-26T11:28:26Z</time>
      </trkpt>
      <trkpt lat="45.91068" lon="5.8398">
        <ele>278.2</ele>
        <time>2022-09-26T11:28:27Z</time>
      </trkpt>
      <trkpt lat="45.91071" lon="5.83981">
        <ele>278.4</ele>
        <time>2022-09-26T11:28:28Z</time>
      </trkpt>
      <trkpt lat="45.91072" lon="5.83981">
        <ele>278.5</ele>
        <time>2022-09-26T11:28:29Z</time>
      </trkpt>
      <trkpt lat="45.91073" lon="5.83981">
        <ele>278.6</ele>
        <time>2022-09-26T11:28:30Z</time>
      </trkpt>
      <trkpt lat="45.91075" lon="5.83982">
        <ele>278.7</ele>
        <time>2022-09-26T11:28:31Z</time>
      </trkpt>
      <trkpt lat="45.91077" lon="5.83981">
        <ele>278.8</ele>
        <time>2022-09-26T11:28:32Z</time>
      </trkpt>
      <trkpt lat="45.91079" lon="5.83981">
        <ele>278.9</ele>
        <time>2022-09-26T11:28:33Z</time>
      </trkpt>
      <trkpt lat="45.91081" lon="5.83983">
        <ele>279.1</ele>
        <time>2022-09-26T11:28:34Z</time>
      </trkpt>
      <trkpt lat="45.91082" lon="5.83983">
        <ele>279.1</ele>
        <time>2022-09-26T11:28:35Z</time>
      </trkpt>
      <trkpt lat="45.91086" lon="5.83983">
        <ele>279.3</ele>
        <time>2022-09-26T11:28:36Z</time>
      </trkpt>
      <trkpt lat="45.91086" lon="5.83984">
        <ele>279.4</ele>
        <time>2022-09-26T11:28:37Z</time>
      </trkpt>
      <trkpt lat="45.91089" lon="5.83984">
        <ele>279.6</ele>
        <time>2022-09-26T11:28:38Z</time>
      </trkpt>
      <trkpt lat="45.9109" lon="5.83984">
        <ele>279.6</ele>
        <time>2022-09-26T11:28:39Z</time>
      </trkpt>
      <trkpt lat="45.91093" lon="5.83984">
        <ele>279.8</ele>
        <time>2022-09-26T11:28:40Z</time>
      </trkpt>
      <trkpt lat="45.91094" lon="5.83984">
        <ele>279.9</ele>
        <time>2022-09-26T11:28:41Z</time>
      </trkpt>
      <trkpt lat="45.91098" lon="5.83985">
        <ele>280.1</ele>
        <time>2022-09-26T11:28:42Z</time>
      </trkpt>
      <trkpt lat="45.91099" lon="5.83985">
        <ele>280.2</ele>
        <time>2022-09-26T11:28:43Z</time>
      </trkpt>
      <trkpt lat="45.91102" lon="5.83984">
        <ele>280.4</ele>
        <time>2022-09-26T11:28:44Z</time>
      </trkpt>
      <trkpt lat="45.91103" lon="5.83984">
        <ele>280.5</ele>
        <time>2022-09-26T11:28:45Z</time>
      </trkpt>
      <trkpt lat="45.91105" lon="5.83983">
        <ele>280.6</ele>
        <time>2022-09-26T11:28:46Z</time>
      </trkpt>
      <trkpt lat="45.91106" lon="5.83983">
        <ele>280.7</ele>
        <time>2022-09-26T11:28:47Z</time>
      </trkpt>
      <trkpt lat="45.91109" lon="5.83982">
        <ele>280.9</ele>
        <time>2022-09-26T11:28:48Z</time>
      </trkpt>
      <trkpt lat="45.91111" lon="5.83982">
        <ele>281</ele>
        <time>2022-09-26T11:28:49Z</time>
      </trkpt>
      <trkpt lat="45.91114" lon="5.83982">
        <ele>281.2</ele>
        <time>2022-09-26T11:28:50Z</time>
      </trkpt>
      <trkpt lat="45.91115" lon="5.83982">
        <ele>281.3</ele>
        <time>2022-09-26T11:28:51Z</time>
      </trkpt>
      <trkpt lat="45.91119" lon="5.83981">
        <ele>281.5</ele>
        <time>2022-09-26T11:28:52Z</time>
      </trkpt>
      <trkpt lat="45.91119" lon="5.83981">
        <ele>281.6</ele>
        <time>2022-09-26T11:28:53Z</time>
      </trkpt>
      <trkpt lat="45.91123" lon="5.83979">
        <ele>281.8</ele>
        <time>2022-09-26T11:28:54Z</time>
      </trkpt>
      <trkpt lat="45.91125" lon="5.83978">
        <ele>281.9</ele>
        <time>2022-09-26T11:28:55Z</time>
      </trkpt>
      <trkpt lat="45.91128" lon="5.83978">
        <ele>282.1</ele>
        <time>2022-09-26T11:28:56Z</time>
      </trkpt>
      <trkpt lat="45.9113" lon="5.83977">
        <ele>282.2</ele>
        <time>2022-09-26T11:28:57Z</time>
      </trkpt>
      <trkpt lat="45.91132" lon="5.83976">
        <ele>282.4</ele>
        <time>2022-09-26T11:28:58Z</time>
      </trkpt>
      <trkpt lat="45.91136" lon="5.83975">
        <ele>282.6</ele>
        <time>2022-09-26T11:28:59Z</time>
      </trkpt>
      <trkpt lat="45.91137" lon="5.83975">
        <ele>282.7</ele>
        <time>2022-09-26T11:29:00Z</time>
      </trkpt>
      <trkpt lat="45.91141" lon="5.83974">
        <ele>282.9</ele>
        <time>2022-09-26T11:29:01Z</time>
      </trkpt>
      <trkpt lat="45.91142" lon="5.83973">
        <ele>283</ele>
        <time>2022-09-26T11:29:02Z</time>
      </trkpt>
      <trkpt lat="45.91145" lon="5.83972">
        <ele>283.2</ele>
        <time>2022-09-26T11:29:03Z</time>
      </trkpt>
      <trkpt lat="45.91146" lon="5.83971">
        <ele>283.2</ele>
        <time>2022-09-26T11:29:04Z</time>
      </trkpt>
      <trkpt lat="45.91149" lon="5.8397">
        <ele>283.4</ele>
        <time>2022-09-26T11:29:05Z</time>
      </trkpt>
      <trkpt lat="45.9115" lon="5.83969">
        <ele>283.5</ele>
        <time>2022-09-26T11:29:06Z</time>
      </trkpt>
      <trkpt lat="45.91153" lon="5.83967">
        <ele>283.7</ele>
        <time>2022-09-26T11:29:07Z</time>
      </trkpt>
      <trkpt lat="45.91154" lon="5.83966">
        <ele>283.8</ele>
        <time>2022-09-26T11:29:08Z</time>
      </trkpt>
      <trkpt lat="45.91157" lon="5.83965">
        <ele>283.9</ele>
        <time>2022-09-26T11:29:09Z</time>
      </trkpt>
      <trkpt lat="45.91158" lon="5.83964">
        <ele>284</ele>
        <time>2022-09-26T11:29:10Z</time>
      </trkpt>
      <trkpt lat="45.91161" lon="5.83963">
        <ele>284.2</ele>
        <time>2022-09-26T11:29:11Z</time>
      </trkpt>
      <trkpt lat="45.91162" lon="5.83962">
        <ele>284.2</ele>
        <time>2022-09-26T11:29:12Z</time>
      </trkpt>
      <trkpt lat="45.91164" lon="5.83961">
        <ele>284.4</ele>
        <time>2022-09-26T11:29:13Z</time>
      </trkpt>
      <trkpt lat="45.91165" lon="5.8396">
        <ele>284.5</ele>
        <time>2022-09-26T11:29:14Z</time>
      </trkpt>
      <trkpt lat="45.91168" lon="5.83959">
        <ele>284.6</ele>
        <time>2022-09-26T11:29:15Z</time>
      </trkpt>
      <trkpt lat="45.91169" lon="5.83958">
        <ele>284.7</ele>
        <time>2022-09-26T11:29:16Z</time>
      </trkpt>
      <trkpt lat="45.91171" lon="5.83955">
        <ele>284.9</ele>
        <time>2022-09-26T11:29:17Z</time>
      </trkpt>
      <trkpt lat="45.91172" lon="5.83954">
        <ele>284.9</ele>
        <time>2022-09-26T11:29:18Z</time>
      </trkpt>
      <trkpt lat="45.91175" lon="5.83952">
        <ele>285.1</ele>
        <time>2022-09-26T11:29:19Z</time>
      </trkpt>
      <trkpt lat="45.91176" lon="5.83951">
        <ele>285.1</ele>
        <time>2022-09-26T11:29:20Z</time>
      </trkpt>
      <trkpt lat="45.91179" lon="5.8395">
        <ele>285.3</ele>
        <time>2022-09-26T11:29:21Z</time>
      </trkpt>
      <trkpt lat="45.9118" lon="5.83949">
        <ele>285.4</ele>
        <time>2022-09-26T11:29:22Z</time>
      </trkpt>
      <trkpt lat="45.91182" lon="5.83947">
        <ele>285.5</ele>
        <time>2022-09-26T11:29:23Z</time>
      </trkpt>
      <trkpt lat="45.91183" lon="5.83946">
        <ele>285.6</ele>
        <time>2022-09-26T11:29:24Z</time>
      </trkpt>
      <trkpt lat="45.91186" lon="5.83945">
        <ele>285.8</ele>
        <time>2022-09-26T11:29:25Z</time>
      </trkpt>
      <trkpt lat="45.91187" lon="5.83944">
        <ele>285.8</ele>
        <time>2022-09-26T11:29:26Z</time>
      </trkpt>
      <trkpt lat="45.9119" lon="5.83943">
        <ele>286</ele>
        <time>2022-09-26T11:29:27Z</time>
      </trkpt>
      <trkpt lat="45.91191" lon="5.83942">
        <ele>286</ele>
        <time>2022-09-26T11:29:28Z</time>
      </trkpt>
      <trkpt lat="45.91194" lon="5.8394">
        <ele>286.2</ele>
        <time>2022-09-26T11:29:29Z</time>
      </trkpt>
      <trkpt lat="45.91195" lon="5.8394">
        <ele>286.2</ele>
        <time>2022-09-26T11:29:30Z</time>
      </trkpt>
      <trkpt lat="45.91197" lon="5.83939">
        <ele>286.4</ele>
        <time>2022-09-26T11:29:31Z</time>
      </trkpt>
      <trkpt lat="45.91198" lon="5.83938">
        <ele>286.4</ele>
        <time>2022-09-26T11:29:32Z</time>
      </trkpt>
      <trkpt lat="45.91202" lon="5.83937">
        <ele>286.6</ele>
        <time>2022-09-26T11:29:33Z</time>
      </trkpt>
      <trkpt lat="45.91202" lon="5.83937">
        <ele>286.7</ele>
        <time>2022-09-26T11:29:34Z</time>
      </trkpt>
      <trkpt lat="45.91205" lon="5.83936">
        <ele>286.8</ele>
        <time>2022-09-26T11:29:35Z</time>
      </trkpt>
      <trkpt lat="45.91206" lon="5.83935">
        <ele>286.8</ele>
        <time>2022-09-26T11:29:36Z</time>
      </trkpt>
      <trkpt lat="45.91209" lon="5.83934">
        <ele>286.9</ele>
        <time>2022-09-26T11:29:37Z</time>
      </trkpt>
      <trkpt lat="45.9121" lon="5.83934">
        <ele>287</ele>
        <time>2022-09-26T11:29:38Z</time>
      </trkpt>
      <trkpt lat="45.91213" lon="5.83933">
        <ele>287.1</ele>
        <time>2022-09-26T11:29:39Z</time>
      </trkpt>
      <trkpt lat="45.91214" lon="5.83933">
        <ele>287.2</ele>
        <time>2022-09-26T11:29:40Z</time>
      </trkpt>
      <trkpt lat="45.91218" lon="5.83933">
        <ele>287.3</ele>
        <time>2022-09-26T11:29:41Z</time>
      </trkpt>
      <trkpt lat="45.91218" lon="5.83933">
        <ele>287.3</ele>
        <time>2022-09-26T11:29:42Z</time>
      </trkpt>
      <trkpt lat="45.91222" lon="5.83933">
        <ele>287.4</ele>
        <time>2022-09-26T11:29:43Z</time>
      </trkpt>
      <trkpt lat="45.91223" lon="5.83934">
        <ele>287.5</ele>
        <time>2022-09-26T11:29:44Z</time>
      </trkpt>
      <trkpt lat="45.91226" lon="5.83934">
        <ele>287.6</ele>
        <time>2022-09-26T11:29:45Z</time>
      </trkpt>
      <trkpt lat="45.91227" lon="5.83934">
        <ele>287.6</ele>
        <time>2022-09-26T11:29:46Z</time>
      </trkpt>
      <trkpt lat="45.9123" lon="5.83935">
        <ele>287.7</ele>
        <time>2022-09-26T11:29:47Z</time>
      </trkpt>
      <trkpt lat="45.91231" lon="5.83935">
        <ele>287.8</ele>
        <time>2022-09-26T11:29:48Z</time>
      </trkpt>
      <trkpt lat="45.91234" lon="5.83935">
        <ele>287.9</ele>
        <time>2022-09-26T11:29:49Z</time>
      </trkpt>
      <trkpt lat="45.91235" lon="5.83936">
        <ele>287.9</ele>
        <time>2022-09-26T11:29:50Z</time>
      </trkpt>
      <trkpt lat="45.91238" lon="5.83936">
        <ele>288</ele>
        <time>2022-09-26T11:29:51Z</time>
      </trkpt>
      <trkpt lat="45.91239" lon="5.83936">
        <ele>288</ele>
        <time>2022-09-26T11:29:52Z</time>
      </trkpt>
      <trkpt lat="45.91242" lon="5.83936">
        <ele>288.1</ele>
        <time>2022-09-26T11:29:53Z</time>
      </trkpt>
      <trkpt lat="45.91243" lon="5.83936">
        <ele>288.1</ele>
        <time>2022-09-26T11:29:54Z</time>
      </trkpt>
      <trkpt lat="45.91246" lon="5.83937">
        <ele>288.2</ele>
        <time>2022-09-26T11:29:55Z</time>
      </trkpt>
      <trkpt lat="45.91247" lon="5.83937">
        <ele>288.2</ele>
        <time>2022-09-26T11:29:56Z</time>
      </trkpt>
      <trkpt lat="45.9125" lon="5.83938">
        <ele>288.3</ele>
        <time>2022-09-26T11:29:57Z</time>
      </trkpt>
      <trkpt lat="45.91251" lon="5.83938">
        <ele>288.3</ele>
        <time>2022-09-26T11:29:58Z</time>
      </trkpt>
      <trkpt lat="45.91253" lon="5.83938">
        <ele>288.4</ele>
        <time>2022-09-26T11:29:59Z</time>
      </trkpt>
      <trkpt lat="45.91254" lon="5.83938">
        <ele>288.4</ele>
        <time>2022-09-26T11:30:00Z</time>
      </trkpt>
      <trkpt lat="45.91257" lon="5.83939">
        <ele>288.5</ele>
        <time>2022-09-26T11:30:01Z</time>
      </trkpt>
      <trkpt lat="45.91258" lon="5.83939">
        <ele>288.5</ele>
        <time>2022-09-26T11:30:02Z</time>
      </trkpt>
      <trkpt lat="45.91261" lon="5.8394">
        <ele>288.6</ele>
        <time>2022-09-26T11:30:03Z</time>
      </trkpt>
      <trkpt lat="45.91262" lon="5.8394">
        <ele>288.6</ele>
        <time>2022-09-26T11:30:04Z</time>
      </trkpt>
      <trkpt lat="45.91265" lon="5.83941">
        <ele>288.6</ele>
        <time>2022-09-26T11:30:05Z</time>
      </trkpt>
      <trkpt lat="45.91266" lon="5.83941">
        <ele>288.7</ele>
        <time>2022-09-26T11:30:06Z</time>
      </trkpt>
      <trkpt lat="45.9127" lon="5.83941">
        <ele>288.7</ele>
        <time>2022-09-26T11:30:07Z</time>
      </trkpt>
      <trkpt lat="45.91271" lon="5.83942">
        <ele>288.7</ele>
        <time>2022-09-26T11:30:08Z</time>
      </trkpt>
      <trkpt lat="45.91274" lon="5.83942">
        <ele>288.8</ele>
        <time>2022-09-26T11:30:09Z</time>
      </trkpt>
      <trkpt lat="45.91276" lon="5.83942">
        <ele>288.8</ele>
        <time>2022-09-26T11:30:10Z</time>
      </trkpt>
      <trkpt lat="45.91279" lon="5.83943">
        <ele>288.8</ele>
        <time>2022-09-26T11:30:11Z</time>
      </trkpt>
      <trkpt lat="45.91281" lon="5.83944">
        <ele>288.8</ele>
        <time>2022-09-26T11:30:12Z</time>
      </trkpt>
      <trkpt lat="45.91284" lon="5.83944">
        <ele>288.8</ele>
        <time>2022-09-26T11:30:13Z</time>
      </trkpt>
      <trkpt lat="45.91286" lon="5.83944">
        <ele>288.8</ele>
        <time>2022-09-26T11:30:14Z</time>
      </trkpt>
      <trkpt lat="45.91289" lon="5.83944">
        <ele>288.8</ele>
        <time>2022-09-26T11:30:15Z</time>
      </trkpt>
      <trkpt lat="45.91293" lon="5.83944">
        <ele>288.8</ele>
        <time>2022-09-26T11:30:16Z</time>
      </trkpt>
      <trkpt lat="45.91294" lon="5.83944">
        <ele>288.8</ele>
        <time>2022-09-26T11:30:17Z</time>
      </trkpt>
      <trkpt lat="45.91298" lon="5.83945">
        <ele>288.8</ele>
        <time>2022-09-26T11:30:18Z</time>
      </trkpt>
      <trkpt lat="45.913" lon="5.83945">
        <ele>288.8</ele>
        <time>2022-09-26T11:30:19Z</time>
      </trkpt>
      <trkpt lat="45.91302" lon="5.83946">
        <ele>288.8</ele>
        <time>2022-09-26T11:30:20Z</time>
      </trkpt>
      <trkpt lat="45.91306" lon="5.83946">
        <ele>288.8</ele>
        <time>2022-09-26T11:30:21Z</time>
      </trkpt>
      <trkpt lat="45.91309" lon="5.83946">
        <ele>288.8</ele>
        <time>2022-09-26T11:30:22Z</time>
      </trkpt>
      <trkpt lat="45.91311" lon="5.83946">
        <ele>288.8</ele>
        <time>2022-09-26T11:30:23Z</time>
      </trkpt>
      <trkpt lat="45.91315" lon="5.83947">
        <ele>288.8</ele>
        <time>2022-09-26T11:30:24Z</time>
      </trkpt>
      <trkpt lat="45.91318" lon="5.83947">
        <ele>288.8</ele>
        <time>2022-09-26T11:30:25Z</time>
      </trkpt>
      <trkpt lat="45.91321" lon="5.83947">
        <ele>288.8</ele>
        <time>2022-09-26T11:30:26Z</time>
      </trkpt>
      <trkpt lat="45.91325" lon="5.83948">
        <ele>288.8</ele>
        <time>2022-09-26T11:30:27Z</time>
      </trkpt>
      <trkpt lat="45.91329" lon="5.83948">
        <ele>288.8</ele>
        <time>2022-09-26T11:30:28Z</time>
      </trkpt>
      <trkpt lat="45.91332" lon="5.83948">
        <ele>288.7</ele>
        <time>2022-09-26T11:30:29Z</time>
      </trkpt>
      <trkpt lat="45.91336" lon="5.83949">
        <ele>288.7</ele>
        <time>2022-09-26T11:30:30Z</time>
      </trkpt>
      <trkpt lat="45.9134" lon="5.83949">
        <ele>288.7</ele>
        <time>2022-09-26T11:30:31Z</time>
      </trkpt>
      <trkpt lat="45.91344" lon="5.83949">
        <ele>288.7</ele>
        <time>2022-09-26T11:30:32Z</time>
      </trkpt>
      <trkpt lat="45.91348" lon="5.8395">
        <ele>288.6</ele>
        <time>2022-09-26T11:30:33Z</time>
      </trkpt>
      <trkpt lat="45.91352" lon="5.83951">
        <ele>288.6</ele>
        <time>2022-09-26T11:30:34Z</time>
      </trkpt>
      <trkpt lat="45.91356" lon="5.83951">
        <ele>288.6</ele>
        <time>2022-09-26T11:30:35Z</time>
      </trkpt>
      <trkpt lat="45.9136" lon="5.83952">
        <ele>288.6</ele>
        <time>2022-09-26T11:30:36Z</time>
      </trkpt>
      <trkpt lat="45.91364" lon="5.83952">
        <ele>288.5</ele>
        <time>2022-09-26T11:30:37Z</time>
      </trkpt>
      <trkpt lat="45.91369" lon="5.83954">
        <ele>288.5</ele>
        <time>2022-09-26T11:30:38Z</time>
      </trkpt>
      <trkpt lat="45.91373" lon="5.83955">
        <ele>288.5</ele>
        <time>2022-09-26T11:30:39Z</time>
      </trkpt>
      <trkpt lat="45.91377" lon="5.83956">
        <ele>288.4</ele>
        <time>2022-09-26T11:30:40Z</time>
      </trkpt>
      <trkpt lat="45.91381" lon="5.83956">
        <ele>288.3</ele>
        <time>2022-09-26T11:30:41Z</time>
      </trkpt>
      <trkpt lat="45.91385" lon="5.83957">
        <ele>288.3</ele>
        <time>2022-09-26T11:30:42Z</time>
      </trkpt>
      <trkpt lat="45.9139" lon="5.83958">
        <ele>288.2</ele>
        <time>2022-09-26T11:30:43Z</time>
      </trkpt>
      <trkpt lat="45.91395" lon="5.83959">
        <ele>288.2</ele>
        <time>2022-09-26T11:30:44Z</time>
      </trkpt>
      <trkpt lat="45.91399" lon="5.83959">
        <ele>288.1</ele>
        <time>2022-09-26T11:30:45Z</time>
      </trkpt>
      <trkpt lat="45.91404" lon="5.8396">
        <ele>288.1</ele>
        <time>2022-09-26T11:30:46Z</time>
      </trkpt>
      <trkpt lat="45.91408" lon="5.8396">
        <ele>288</ele>
        <time>2022-09-26T11:30:47Z</time>
      </trkpt>
      <trkpt lat="45.91411" lon="5.8396">
        <ele>288</ele>
        <time>2022-09-26T11:30:48Z</time>
      </trkpt>
      <trkpt lat="45.91417" lon="5.8396">
        <ele>287.9</ele>
        <time>2022-09-26T11:30:49Z</time>
      </trkpt>
      <trkpt lat="45.91421" lon="5.8396">
        <ele>287.8</ele>
        <time>2022-09-26T11:30:50Z</time>
      </trkpt>
      <trkpt lat="45.91426" lon="5.83959">
        <ele>287.8</ele>
        <time>2022-09-26T11:30:51Z</time>
      </trkpt>
      <trkpt lat="45.9143" lon="5.83958">
        <ele>287.7</ele>
        <time>2022-09-26T11:30:52Z</time>
      </trkpt>
      <trkpt lat="45.91435" lon="5.83958">
        <ele>287.7</ele>
        <time>2022-09-26T11:30:53Z</time>
      </trkpt>
      <trkpt lat="45.91439" lon="5.83958">
        <ele>287.6</ele>
        <time>2022-09-26T11:30:54Z</time>
      </trkpt>
      <trkpt lat="45.91444" lon="5.83957">
        <ele>287.6</ele>
        <time>2022-09-26T11:30:55Z</time>
      </trkpt>
      <trkpt lat="45.91448" lon="5.83956">
        <ele>287.5</ele>
        <time>2022-09-26T11:30:56Z</time>
      </trkpt>
      <trkpt lat="45.91453" lon="5.83955">
        <ele>287.5</ele>
        <time>2022-09-26T11:30:57Z</time>
      </trkpt>
      <trkpt lat="45.91459" lon="5.83955">
        <ele>287.4</ele>
        <time>2022-09-26T11:30:58Z</time>
      </trkpt>
      <trkpt lat="45.91464" lon="5.83954">
        <ele>287.4</ele>
        <time>2022-09-26T11:30:59Z</time>
      </trkpt>
      <trkpt lat="45.91468" lon="5.83952">
        <ele>287.3</ele>
        <time>2022-09-26T11:31:00Z</time>
      </trkpt>
      <trkpt lat="45.91473" lon="5.83951">
        <ele>287.3</ele>
        <time>2022-09-26T11:31:01Z</time>
      </trkpt>
      <trkpt lat="45.91479" lon="5.83951">
        <ele>287.2</ele>
        <time>2022-09-26T11:31:02Z</time>
      </trkpt>
      <trkpt lat="45.91484" lon="5.8395">
        <ele>287.2</ele>
        <time>2022-09-26T11:31:03Z</time>
      </trkpt>
      <trkpt lat="45.9149" lon="5.83949">
        <ele>287.1</ele>
        <time>2022-09-26T11:31:04Z</time>
      </trkpt>
      <trkpt lat="45.91495" lon="5.83948">
        <ele>287.1</ele>
        <time>2022-09-26T11:31:05Z</time>
      </trkpt>
      <trkpt lat="45.915" lon="5.83947">
        <ele>287</ele>
        <time>2022-09-26T11:31:06Z</time>
      </trkpt>
      <trkpt lat="45.91506" lon="5.83946">
        <ele>287</ele>
        <time>2022-09-26T11:31:07Z</time>
      </trkpt>
      <trkpt lat="45.91511" lon="5.83945">
        <ele>286.9</ele>
        <time>2022-09-26T11:31:08Z</time>
      </trkpt>
      <trkpt lat="45.91517" lon="5.83944">
        <ele>286.8</ele>
        <time>2022-09-26T11:31:09Z</time>
      </trkpt>
      <trkpt lat="45.91522" lon="5.83943">
        <ele>286.8</ele>
        <time>2022-09-26T11:31:10Z</time>
      </trkpt>
      <trkpt lat="45.91527" lon="5.83941">
        <ele>286.7</ele>
        <time>2022-09-26T11:31:11Z</time>
      </trkpt>
      <trkpt lat="45.91533" lon="5.83941">
        <ele>286.7</ele>
        <time>2022-09-26T11:31:12Z</time>
      </trkpt>
      <trkpt lat="45.91539" lon="5.83939">
        <ele>286.6</ele>
        <time>2022-09-26T11:31:13Z</time>
      </trkpt>
      <trkpt lat="45.91544" lon="5.83938">
        <ele>286.5</ele>
        <time>2022-09-26T11:31:14Z</time>
      </trkpt>
      <trkpt lat="45.9155" lon="5.83937">
        <ele>286.5</ele>
        <time>2022-09-26T11:31:15Z</time>
      </trkpt>
      <trkpt lat="45.91555" lon="5.83935">
        <ele>286.4</ele>
        <time>2022-09-26T11:31:16Z</time>
      </trkpt>
      <trkpt lat="45.9156" lon="5.83934">
        <ele>286.3</ele>
        <time>2022-09-26T11:31:17Z</time>
      </trkpt>
      <trkpt lat="45.91566" lon="5.83933">
        <ele>286.3</ele>
        <time>2022-09-26T11:31:18Z</time>
      </trkpt>
      <trkpt lat="45.91571" lon="5.83931">
        <ele>286.2</ele>
        <time>2022-09-26T11:31:19Z</time>
      </trkpt>
      <trkpt lat="45.91576" lon="5.83931">
        <ele>286.2</ele>
        <time>2022-09-26T11:31:20Z</time>
      </trkpt>
      <trkpt lat="45.91581" lon="5.8393">
        <ele>286.1</ele>
        <time>2022-09-26T11:31:21Z</time>
      </trkpt>
      <trkpt lat="45.91587" lon="5.83929">
        <ele>286</ele>
        <time>2022-09-26T11:31:22Z</time>
      </trkpt>
      <trkpt lat="45.91592" lon="5.83928">
        <ele>285.9</ele>
        <time>2022-09-26T11:31:23Z</time>
      </trkpt>
      <trkpt lat="45.91597" lon="5.83927">
        <ele>285.8</ele>
        <time>2022-09-26T11:31:24Z</time>
      </trkpt>
      <trkpt lat="45.91603" lon="5.83926">
        <ele>285.7</ele>
        <time>2022-09-26T11:31:25Z</time>
      </trkpt>
      <trkpt lat="45.91607" lon="5.83925">
        <ele>285.5</ele>
        <time>2022-09-26T11:31:26Z</time>
      </trkpt>
      <trkpt lat="45.91612" lon="5.83925">
        <ele>285.4</ele>
        <time>2022-09-26T11:31:27Z</time>
      </trkpt>
      <trkpt lat="45.91618" lon="5.83923">
        <ele>285.2</ele>
        <time>2022-09-26T11:31:28Z</time>
      </trkpt>
      <trkpt lat="45.91624" lon="5.83922">
        <ele>285</ele>
        <time>2022-09-26T11:31:29Z</time>
      </trkpt>
      <trkpt lat="45.91629" lon="5.83921">
        <ele>284.9</ele>
        <time>2022-09-26T11:31:30Z</time>
      </trkpt>
      <trkpt lat="45.91634" lon="5.8392">
        <ele>284.7</ele>
        <time>2022-09-26T11:31:31Z</time>
      </trkpt>
      <trkpt lat="45.9164" lon="5.83919">
        <ele>284.5</ele>
        <time>2022-09-26T11:31:32Z</time>
      </trkpt>
      <trkpt lat="45.91645" lon="5.83918">
        <ele>284.3</ele>
        <time>2022-09-26T11:31:33Z</time>
      </trkpt>
      <trkpt lat="45.91651" lon="5.83917">
        <ele>284.1</ele>
        <time>2022-09-26T11:31:34Z</time>
      </trkpt>
      <trkpt lat="45.91657" lon="5.83916">
        <ele>283.9</ele>
        <time>2022-09-26T11:31:35Z</time>
      </trkpt>
      <trkpt lat="45.91662" lon="5.83915">
        <ele>283.7</ele>
        <time>2022-09-26T11:31:36Z</time>
      </trkpt>
      <trkpt lat="45.91669" lon="5.83914">
        <ele>283.4</ele>
        <time>2022-09-26T11:31:37Z</time>
      </trkpt>
      <trkpt lat="45.91674" lon="5.83913">
        <ele>283.2</ele>
        <time>2022-09-26T11:31:38Z</time>
      </trkpt>
      <trkpt lat="45.9168" lon="5.83912">
        <ele>282.9</ele>
        <time>2022-09-26T11:31:39Z</time>
      </trkpt>
      <trkpt lat="45.91686" lon="5.8391">
        <ele>282.7</ele>
        <time>2022-09-26T11:31:40Z</time>
      </trkpt>
      <trkpt lat="45.91693" lon="5.83909">
        <ele>282.4</ele>
        <time>2022-09-26T11:31:41Z</time>
      </trkpt>
      <trkpt lat="45.91698" lon="5.83907">
        <ele>282.2</ele>
        <time>2022-09-26T11:31:42Z</time>
      </trkpt>
      <trkpt lat="45.91705" lon="5.83905">
        <ele>282</ele>
        <time>2022-09-26T11:31:43Z</time>
      </trkpt>
      <trkpt lat="45.9171" lon="5.83903">
        <ele>281.8</ele>
        <time>2022-09-26T11:31:44Z</time>
      </trkpt>
      <trkpt lat="45.91717" lon="5.83901">
        <ele>281.5</ele>
        <time>2022-09-26T11:31:45Z</time>
      </trkpt>
      <trkpt lat="45.91724" lon="5.83899">
        <ele>281.3</ele>
        <time>2022-09-26T11:31:46Z</time>
      </trkpt>
      <trkpt lat="45.9173" lon="5.83898">
        <ele>281.1</ele>
        <time>2022-09-26T11:31:47Z</time>
      </trkpt>
      <trkpt lat="45.91737" lon="5.83897">
        <ele>281</ele>
        <time>2022-09-26T11:31:48Z</time>
      </trkpt>
      <trkpt lat="45.91743" lon="5.83895">
        <ele>280.7</ele>
        <time>2022-09-26T11:31:49Z</time>
      </trkpt>
      <trkpt lat="45.9175" lon="5.83894">
        <ele>280.5</ele>
        <time>2022-09-26T11:31:50Z</time>
      </trkpt>
      <trkpt lat="45.91756" lon="5.83892">
        <ele>280.3</ele>
        <time>2022-09-26T11:31:51Z</time>
      </trkpt>
      <trkpt lat="45.91762" lon="5.8389">
        <ele>280.1</ele>
        <time>2022-09-26T11:31:52Z</time>
      </trkpt>
      <trkpt lat="45.91769" lon="5.83887">
        <ele>279.9</ele>
        <time>2022-09-26T11:31:53Z</time>
      </trkpt>
      <trkpt lat="45.91775" lon="5.83885">
        <ele>279.7</ele>
        <time>2022-09-26T11:31:54Z</time>
      </trkpt>
      <trkpt lat="45.91781" lon="5.83884">
        <ele>279.5</ele>
        <time>2022-09-26T11:31:55Z</time>
      </trkpt>
      <trkpt lat="45.91788" lon="5.83884">
        <ele>279.3</ele>
        <time>2022-09-26T11:31:56Z</time>
      </trkpt>
      <trkpt lat="45.91794" lon="5.83882">
        <ele>279.1</ele>
        <time>2022-09-26T11:31:57Z</time>
      </trkpt>
      <trkpt lat="45.91801" lon="5.8388">
        <ele>278.9</ele>
        <time>2022-09-26T11:31:58Z</time>
      </trkpt>
      <trkpt lat="45.91807" lon="5.83878">
        <ele>278.6</ele>
        <time>2022-09-26T11:31:59Z</time>
      </trkpt>
      <trkpt lat="45.91814" lon="5.83876">
        <ele>278.4</ele>
        <time>2022-09-26T11:32:00Z</time>
      </trkpt>
      <trkpt lat="45.9182" lon="5.83875">
        <ele>278.2</ele>
        <time>2022-09-26T11:32:01Z</time>
      </trkpt>
      <trkpt lat="45.91827" lon="5.83874">
        <ele>278</ele>
        <time>2022-09-26T11:32:02Z</time>
      </trkpt>
      <trkpt lat="45.91833" lon="5.83874">
        <ele>277.8</ele>
        <time>2022-09-26T11:32:03Z</time>
      </trkpt>
      <trkpt lat="45.9184" lon="5.83873">
        <ele>277.5</ele>
        <time>2022-09-26T11:32:04Z</time>
      </trkpt>
      <trkpt lat="45.91847" lon="5.8387">
        <ele>277.3</ele>
        <time>2022-09-26T11:32:05Z</time>
      </trkpt>
      <trkpt lat="45.91854" lon="5.83868">
        <ele>277.2</ele>
        <time>2022-09-26T11:32:06Z</time>
      </trkpt>
      <trkpt lat="45.9186" lon="5.83866">
        <ele>277.1</ele>
        <time>2022-09-26T11:32:07Z</time>
      </trkpt>
      <trkpt lat="45.91867" lon="5.83864">
        <ele>277.1</ele>
        <time>2022-09-26T11:32:08Z</time>
      </trkpt>
      <trkpt lat="45.91873" lon="5.83861">
        <ele>277.1</ele>
        <time>2022-09-26T11:32:09Z</time>
      </trkpt>
      <trkpt lat="45.91879" lon="5.83859">
        <ele>277.1</ele>
        <time>2022-09-26T11:32:10Z</time>
      </trkpt>
      <trkpt lat="45.91885" lon="5.83856">
        <ele>277.2</ele>
        <time>2022-09-26T11:32:11Z</time>
      </trkpt>
      <trkpt lat="45.9189" lon="5.83851">
        <ele>277.2</ele>
        <time>2022-09-26T11:32:12Z</time>
      </trkpt>
      <trkpt lat="45.91896" lon="5.83849">
        <ele>277.3</ele>
        <time>2022-09-26T11:32:13Z</time>
      </trkpt>
      <trkpt lat="45.91901" lon="5.83846">
        <ele>277.3</ele>
        <time>2022-09-26T11:32:14Z</time>
      </trkpt>
      <trkpt lat="45.91907" lon="5.83844">
        <ele>277.4</ele>
        <time>2022-09-26T11:32:15Z</time>
      </trkpt>
      <trkpt lat="45.91913" lon="5.8384">
        <ele>277.4</ele>
        <time>2022-09-26T11:32:16Z</time>
      </trkpt>
      <trkpt lat="45.91918" lon="5.83839">
        <ele>277.5</ele>
        <time>2022-09-26T11:32:17Z</time>
      </trkpt>
      <trkpt lat="45.91923" lon="5.83837">
        <ele>277.5</ele>
        <time>2022-09-26T11:32:18Z</time>
      </trkpt>
      <trkpt lat="45.91929" lon="5.83834">
        <ele>277.5</ele>
        <time>2022-09-26T11:32:19Z</time>
      </trkpt>
      <trkpt lat="45.91934" lon="5.83834">
        <ele>277.5</ele>
        <time>2022-09-26T11:32:20Z</time>
      </trkpt>
      <trkpt lat="45.91939" lon="5.83833">
        <ele>277.5</ele>
        <time>2022-09-26T11:32:21Z</time>
      </trkpt>
      <trkpt lat="45.91945" lon="5.83833">
        <ele>277.5</ele>
        <time>2022-09-26T11:32:22Z</time>
      </trkpt>
      <trkpt lat="45.9195" lon="5.83831">
        <ele>277.5</ele>
        <time>2022-09-26T11:32:23Z</time>
      </trkpt>
      <trkpt lat="45.91955" lon="5.8383">
        <ele>277.6</ele>
        <time>2022-09-26T11:32:24Z</time>
      </trkpt>
      <trkpt lat="45.9196" lon="5.83829">
        <ele>277.6</ele>
        <time>2022-09-26T11:32:25Z</time>
      </trkpt>
      <trkpt lat="45.91965" lon="5.83829">
        <ele>277.6</ele>
        <time>2022-09-26T11:32:26Z</time>
      </trkpt>
      <trkpt lat="45.91971" lon="5.83828">
        <ele>277.6</ele>
        <time>2022-09-26T11:32:27Z</time>
      </trkpt>
      <trkpt lat="45.91976" lon="5.83827">
        <ele>277.7</ele>
        <time>2022-09-26T11:32:28Z</time>
      </trkpt>
      <trkpt lat="45.91981" lon="5.83825">
        <ele>277.7</ele>
        <time>2022-09-26T11:32:29Z</time>
      </trkpt>
      <trkpt lat="45.91986" lon="5.83824">
        <ele>277.7</ele>
        <time>2022-09-26T11:32:30Z</time>
      </trkpt>
      <trkpt lat="45.9199" lon="5.83824">
        <ele>277.8</ele>
        <time>2022-09-26T11:32:31Z</time>
      </trkpt>
      <trkpt lat="45.91995" lon="5.83823">
        <ele>277.8</ele>
        <time>2022-09-26T11:32:32Z</time>
      </trkpt>
      <trkpt lat="45.92001" lon="5.83821">
        <ele>277.8</ele>
        <time>2022-09-26T11:32:33Z</time>
      </trkpt>
      <trkpt lat="45.92006" lon="5.8382">
        <ele>277.8</ele>
        <time>2022-09-26T11:32:34Z</time>
      </trkpt>
      <trkpt lat="45.92011" lon="5.83819">
        <ele>277.7</ele>
        <time>2022-09-26T11:32:35Z</time>
      </trkpt>
      <trkpt lat="45.92016" lon="5.83818">
        <ele>277.7</ele>
        <time>2022-09-26T11:32:36Z</time>
      </trkpt>
      <trkpt lat="45.92021" lon="5.83817">
        <ele>277.8</ele>
        <time>2022-09-26T11:32:37Z</time>
      </trkpt>
      <trkpt lat="45.92025" lon="5.83816">
        <ele>277.8</ele>
        <time>2022-09-26T11:32:38Z</time>
      </trkpt>
      <trkpt lat="45.92031" lon="5.83816">
        <ele>277.8</ele>
        <time>2022-09-26T11:32:39Z</time>
      </trkpt>
      <trkpt lat="45.92036" lon="5.83815">
        <ele>277.9</ele>
        <time>2022-09-26T11:32:40Z</time>
      </trkpt>
      <trkpt lat="45.9204" lon="5.83814">
        <ele>277.9</ele>
        <time>2022-09-26T11:32:41Z</time>
      </trkpt>
      <trkpt lat="45.92045" lon="5.83812">
        <ele>278</ele>
        <time>2022-09-26T11:32:42Z</time>
      </trkpt>
      <trkpt lat="45.92051" lon="5.83811">
        <ele>278.1</ele>
        <time>2022-09-26T11:32:43Z</time>
      </trkpt>
      <trkpt lat="45.92056" lon="5.8381">
        <ele>278.2</ele>
        <time>2022-09-26T11:32:44Z</time>
      </trkpt>
      <trkpt lat="45.92061" lon="5.83808">
        <ele>278.3</ele>
        <time>2022-09-26T11:32:45Z</time>
      </trkpt>
      <trkpt lat="45.92065" lon="5.83807">
        <ele>278.4</ele>
        <time>2022-09-26T11:32:46Z</time>
      </trkpt>
      <trkpt lat="45.9207" lon="5.83807">
        <ele>278.5</ele>
        <time>2022-09-26T11:32:47Z</time>
      </trkpt>
      <trkpt lat="45.92074" lon="5.83806">
        <ele>278.5</ele>
        <time>2022-09-26T11:32:48Z</time>
      </trkpt>
      <trkpt lat="45.92078" lon="5.83805">
        <ele>278.6</ele>
        <time>2022-09-26T11:32:49Z</time>
      </trkpt>
      <trkpt lat="45.92082" lon="5.83804">
        <ele>278.8</ele>
        <time>2022-09-26T11:32:50Z</time>
      </trkpt>
      <trkpt lat="45.92087" lon="5.83803">
        <ele>278.9</ele>
        <time>2022-09-26T11:32:51Z</time>
      </trkpt>
      <trkpt lat="45.92091" lon="5.83801">
        <ele>279</ele>
        <time>2022-09-26T11:32:52Z</time>
      </trkpt>
      <trkpt lat="45.92095" lon="5.83801">
        <ele>279.1</ele>
        <time>2022-09-26T11:32:53Z</time>
      </trkpt>
      <trkpt lat="45.92098" lon="5.838">
        <ele>279.2</ele>
        <time>2022-09-26T11:32:54Z</time>
      </trkpt>
      <trkpt lat="45.92102" lon="5.83799">
        <ele>279.4</ele>
        <time>2022-09-26T11:32:55Z</time>
      </trkpt>
      <trkpt lat="45.92105" lon="5.83799">
        <ele>279.5</ele>
        <time>2022-09-26T11:32:56Z</time>
      </trkpt>
      <trkpt lat="45.92109" lon="5.83799">
        <ele>279.6</ele>
        <time>2022-09-26T11:32:57Z</time>
      </trkpt>
      <trkpt lat="45.92112" lon="5.83797">
        <ele>279.7</ele>
        <time>2022-09-26T11:32:58Z</time>
      </trkpt>
      <trkpt lat="45.92116" lon="5.83796">
        <ele>279.9</ele>
        <time>2022-09-26T11:32:59Z</time>
      </trkpt>
      <trkpt lat="45.9212" lon="5.83795">
        <ele>280</ele>
        <time>2022-09-26T11:33:00Z</time>
      </trkpt>
      <trkpt lat="45.92123" lon="5.83794">
        <ele>280.1</ele>
        <time>2022-09-26T11:33:01Z</time>
      </trkpt>
      <trkpt lat="45.92127" lon="5.83794">
        <ele>280.2</ele>
        <time>2022-09-26T11:33:02Z</time>
      </trkpt>
      <trkpt lat="45.92131" lon="5.83793">
        <ele>280.3</ele>
        <time>2022-09-26T11:33:03Z</time>
      </trkpt>
      <trkpt lat="45.92134" lon="5.83791">
        <ele>280.4</ele>
        <time>2022-09-26T11:33:04Z</time>
      </trkpt>
      <trkpt lat="45.92138" lon="5.83791">
        <ele>280.5</ele>
        <time>2022-09-26T11:33:05Z</time>
      </trkpt>
      <trkpt lat="45.92142" lon="5.8379">
        <ele>280.6</ele>
        <time>2022-09-26T11:33:06Z</time>
      </trkpt>
      <trkpt lat="45.92145" lon="5.83789">
        <ele>280.7</ele>
        <time>2022-09-26T11:33:07Z</time>
      </trkpt>
      <trkpt lat="45.92149" lon="5.83788">
        <ele>280.8</ele>
        <time>2022-09-26T11:33:08Z</time>
      </trkpt>
      <trkpt lat="45.92152" lon="5.83787">
        <ele>280.9</ele>
        <time>2022-09-26T11:33:09Z</time>
      </trkpt>
      <trkpt lat="45.92155" lon="5.83787">
        <ele>281</ele>
        <time>2022-09-26T11:33:10Z</time>
      </trkpt>
      <trkpt lat="45.92159" lon="5.83785">
        <ele>281.1</ele>
        <time>2022-09-26T11:33:11Z</time>
      </trkpt>
      <trkpt lat="45.92163" lon="5.83785">
        <ele>281.2</ele>
        <time>2022-09-26T11:33:12Z</time>
      </trkpt>
      <trkpt lat="45.92166" lon="5.83784">
        <ele>281.3</ele>
        <time>2022-09-26T11:33:13Z</time>
      </trkpt>
      <trkpt lat="45.92169" lon="5.83783">
        <ele>281.4</ele>
        <time>2022-09-26T11:33:14Z</time>
      </trkpt>
      <trkpt lat="45.92172" lon="5.83782">
        <ele>281.5</ele>
        <time>2022-09-26T11:33:15Z</time>
      </trkpt>
      <trkpt lat="45.92176" lon="5.83782">
        <ele>281.6</ele>
        <time>2022-09-26T11:33:16Z</time>
      </trkpt>
      <trkpt lat="45.92179" lon="5.83781">
        <ele>281.7</ele>
        <time>2022-09-26T11:33:17Z</time>
      </trkpt>
      <trkpt lat="45.92182" lon="5.83781">
        <ele>281.8</ele>
        <time>2022-09-26T11:33:18Z</time>
      </trkpt>
      <trkpt lat="45.92185" lon="5.8378">
        <ele>281.9</ele>
        <time>2022-09-26T11:33:19Z</time>
      </trkpt>
      <trkpt lat="45.92188" lon="5.83779">
        <ele>282</ele>
        <time>2022-09-26T11:33:20Z</time>
      </trkpt>
      <trkpt lat="45.92191" lon="5.83778">
        <ele>282.1</ele>
        <time>2022-09-26T11:33:21Z</time>
      </trkpt>
      <trkpt lat="45.92194" lon="5.83778">
        <ele>282.2</ele>
        <time>2022-09-26T11:33:22Z</time>
      </trkpt>
      <trkpt lat="45.92197" lon="5.83777">
        <ele>282.3</ele>
        <time>2022-09-26T11:33:23Z</time>
      </trkpt>
      <trkpt lat="45.922" lon="5.83776">
        <ele>282.4</ele>
        <time>2022-09-26T11:33:24Z</time>
      </trkpt>
      <trkpt lat="45.92203" lon="5.83775">
        <ele>282.5</ele>
        <time>2022-09-26T11:33:25Z</time>
      </trkpt>
      <trkpt lat="45.92206" lon="5.83775">
        <ele>282.6</ele>
        <time>2022-09-26T11:33:26Z</time>
      </trkpt>
      <trkpt lat="45.92209" lon="5.83774">
        <ele>282.7</ele>
        <time>2022-09-26T11:33:27Z</time>
      </trkpt>
      <trkpt lat="45.92211" lon="5.83773">
        <ele>282.7</ele>
        <time>2022-09-26T11:33:28Z</time>
      </trkpt>
      <trkpt lat="45.92214" lon="5.83772">
        <ele>282.8</ele>
        <time>2022-09-26T11:33:29Z</time>
      </trkpt>
      <trkpt lat="45.92217" lon="5.83772">
        <ele>282.9</ele>
        <time>2022-09-26T11:33:30Z</time>
      </trkpt>
      <trkpt lat="45.9222" lon="5.83771">
        <ele>283</ele>
        <time>2022-09-26T11:33:31Z</time>
      </trkpt>
      <trkpt lat="45.92223" lon="5.8377">
        <ele>283.1</ele>
        <time>2022-09-26T11:33:32Z</time>
      </trkpt>
      <trkpt lat="45.92226" lon="5.83769">
        <ele>283.2</ele>
        <time>2022-09-26T11:33:33Z</time>
      </trkpt>
      <trkpt lat="45.9223" lon="5.83769">
        <ele>283.4</ele>
        <time>2022-09-26T11:33:34Z</time>
      </trkpt>
      <trkpt lat="45.92231" lon="5.83768">
        <ele>283.4</ele>
        <time>2022-09-26T11:33:35Z</time>
      </trkpt>
      <trkpt lat="45.92234" lon="5.83767">
        <ele>283.5</ele>
        <time>2022-09-26T11:33:36Z</time>
      </trkpt>
      <trkpt lat="45.92238" lon="5.83766">
        <ele>283.6</ele>
        <time>2022-09-26T11:33:37Z</time>
      </trkpt>
      <trkpt lat="45.92239" lon="5.83765">
        <ele>283.6</ele>
        <time>2022-09-26T11:33:38Z</time>
      </trkpt>
      <trkpt lat="45.92243" lon="5.83763">
        <ele>283.8</ele>
        <time>2022-09-26T11:33:39Z</time>
      </trkpt>
      <trkpt lat="45.92244" lon="5.83763">
        <ele>283.8</ele>
        <time>2022-09-26T11:33:40Z</time>
      </trkpt>
      <trkpt lat="45.92247" lon="5.83762">
        <ele>283.9</ele>
        <time>2022-09-26T11:33:41Z</time>
      </trkpt>
      <trkpt lat="45.9225" lon="5.8376">
        <ele>283.9</ele>
        <time>2022-09-26T11:33:42Z</time>
      </trkpt>
      <trkpt lat="45.92252" lon="5.83758">
        <ele>284</ele>
        <time>2022-09-26T11:33:43Z</time>
      </trkpt>
      <trkpt lat="45.92255" lon="5.83756">
        <ele>284.1</ele>
        <time>2022-09-26T11:33:44Z</time>
      </trkpt>
      <trkpt lat="45.92258" lon="5.83754">
        <ele>284.2</ele>
        <time>2022-09-26T11:33:45Z</time>
      </trkpt>
      <trkpt lat="45.9226" lon="5.83752">
        <ele>284.3</ele>
        <time>2022-09-26T11:33:46Z</time>
      </trkpt>
      <trkpt lat="45.92263" lon="5.8375">
        <ele>284.4</ele>
        <time>2022-09-26T11:33:47Z</time>
      </trkpt>
      <trkpt lat="45.92267" lon="5.83747">
        <ele>284.5</ele>
        <time>2022-09-26T11:33:48Z</time>
      </trkpt>
      <trkpt lat="45.92268" lon="5.83746">
        <ele>284.5</ele>
        <time>2022-09-26T11:33:49Z</time>
      </trkpt>
      <trkpt lat="45.92271" lon="5.83744">
        <ele>284.6</ele>
        <time>2022-09-26T11:33:50Z</time>
      </trkpt>
      <trkpt lat="45.92273" lon="5.83741">
        <ele>284.7</ele>
        <time>2022-09-26T11:33:51Z</time>
      </trkpt>
      <trkpt lat="45.92276" lon="5.83738">
        <ele>284.8</ele>
        <time>2022-09-26T11:33:52Z</time>
      </trkpt>
      <trkpt lat="45.92277" lon="5.83737">
        <ele>284.9</ele>
        <time>2022-09-26T11:33:53Z</time>
      </trkpt>
      <trkpt lat="45.92279" lon="5.83733">
        <ele>285</ele>
        <time>2022-09-26T11:33:54Z</time>
      </trkpt>
      <trkpt lat="45.9228" lon="5.83731">
        <ele>285</ele>
        <time>2022-09-26T11:33:55Z</time>
      </trkpt>
      <trkpt lat="45.92282" lon="5.83728">
        <ele>285.1</ele>
        <time>2022-09-26T11:33:56Z</time>
      </trkpt>
      <trkpt lat="45.92286" lon="5.83725">
        <ele>285.2</ele>
        <time>2022-09-26T11:33:57Z</time>
      </trkpt>
      <trkpt lat="45.92287" lon="5.83724">
        <ele>285.3</ele>
        <time>2022-09-26T11:33:58Z</time>
      </trkpt>
      <trkpt lat="45.92289" lon="5.83719">
        <ele>285.4</ele>
        <time>2022-09-26T11:33:59Z</time>
      </trkpt>
      <trkpt lat="45.9229" lon="5.83718">
        <ele>285.4</ele>
        <time>2022-09-26T11:34:00Z</time>
      </trkpt>
      <trkpt lat="45.92293" lon="5.83713">
        <ele>285.6</ele>
        <time>2022-09-26T11:34:01Z</time>
      </trkpt>
      <trkpt lat="45.92293" lon="5.83712">
        <ele>285.6</ele>
        <time>2022-09-26T11:34:02Z</time>
      </trkpt>
      <trkpt lat="45.92295" lon="5.83707">
        <ele>285.7</ele>
        <time>2022-09-26T11:34:03Z</time>
      </trkpt>
      <trkpt lat="45.92296" lon="5.83705">
        <ele>285.7</ele>
        <time>2022-09-26T11:34:04Z</time>
      </trkpt>
      <trkpt lat="45.92298" lon="5.83701">
        <ele>285.8</ele>
        <time>2022-09-26T11:34:05Z</time>
      </trkpt>
      <trkpt lat="45.92299" lon="5.83698">
        <ele>285.9</ele>
        <time>2022-09-26T11:34:06Z</time>
      </trkpt>
      <trkpt lat="45.92301" lon="5.83695">
        <ele>286</ele>
        <time>2022-09-26T11:34:07Z</time>
      </trkpt>
      <trkpt lat="45.92302" lon="5.83691">
        <ele>286.1</ele>
        <time>2022-09-26T11:34:08Z</time>
      </trkpt>
      <trkpt lat="45.92304" lon="5.83688">
        <ele>286.1</ele>
        <time>2022-09-26T11:34:09Z</time>
      </trkpt>
      <trkpt lat="45.92305" lon="5.83684">
        <ele>286.2</ele>
        <time>2022-09-26T11:34:10Z</time>
      </trkpt>
      <trkpt lat="45.92306" lon="5.8368">
        <ele>286.3</ele>
        <time>2022-09-26T11:34:11Z</time>
      </trkpt>
      <trkpt lat="45.92307" lon="5.83677">
        <ele>286.4</ele>
        <time>2022-09-26T11:34:12Z</time>
      </trkpt>
      <trkpt lat="45.92308" lon="5.83673">
        <ele>286.4</ele>
        <time>2022-09-26T11:34:13Z</time>
      </trkpt>
      <trkpt lat="45.92309" lon="5.83668">
        <ele>286.5</ele>
        <time>2022-09-26T11:34:14Z</time>
      </trkpt>
      <trkpt lat="45.9231" lon="5.83666">
        <ele>286.6</ele>
        <time>2022-09-26T11:34:15Z</time>
      </trkpt>
      <trkpt lat="45.92311" lon="5.83662">
        <ele>286.7</ele>
        <time>2022-09-26T11:34:16Z</time>
      </trkpt>
      <trkpt lat="45.92312" lon="5.83658">
        <ele>286.7</ele>
        <time>2022-09-26T11:34:17Z</time>
      </trkpt>
      <trkpt lat="45.92312" lon="5.83654">
        <ele>286.8</ele>
        <time>2022-09-26T11:34:18Z</time>
      </trkpt>
      <trkpt lat="45.92313" lon="5.83649">
        <ele>286.9</ele>
        <time>2022-09-26T11:34:19Z</time>
      </trkpt>
      <trkpt lat="45.92314" lon="5.83647">
        <ele>287</ele>
        <time>2022-09-26T11:34:20Z</time>
      </trkpt>
      <trkpt lat="45.92314" lon="5.83643">
        <ele>287</ele>
        <time>2022-09-26T11:34:21Z</time>
      </trkpt>
      <trkpt lat="45.92315" lon="5.83639">
        <ele>287.1</ele>
        <time>2022-09-26T11:34:22Z</time>
      </trkpt>
      <trkpt lat="45.92316" lon="5.83635">
        <ele>287.2</ele>
        <time>2022-09-26T11:34:23Z</time>
      </trkpt>
      <trkpt lat="45.92317" lon="5.8363">
        <ele>287.3</ele>
        <time>2022-09-26T11:34:24Z</time>
      </trkpt>
      <trkpt lat="45.92317" lon="5.83628">
        <ele>287.4</ele>
        <time>2022-09-26T11:34:25Z</time>
      </trkpt>
      <trkpt lat="45.92318" lon="5.83624">
        <ele>287.5</ele>
        <time>2022-09-26T11:34:26Z</time>
      </trkpt>
      <trkpt lat="45.92318" lon="5.83621">
        <ele>287.5</ele>
        <time>2022-09-26T11:34:27Z</time>
      </trkpt>
      <trkpt lat="45.92319" lon="5.83615">
        <ele>287.7</ele>
        <time>2022-09-26T11:34:28Z</time>
      </trkpt>
      <trkpt lat="45.9232" lon="5.83613">
        <ele>287.7</ele>
        <time>2022-09-26T11:34:29Z</time>
      </trkpt>
      <trkpt lat="45.9232" lon="5.83609">
        <ele>287.8</ele>
        <time>2022-09-26T11:34:30Z</time>
      </trkpt>
      <trkpt lat="45.92321" lon="5.83605">
        <ele>287.9</ele>
        <time>2022-09-26T11:34:31Z</time>
      </trkpt>
      <trkpt lat="45.92322" lon="5.83601">
        <ele>288</ele>
        <time>2022-09-26T11:34:32Z</time>
      </trkpt>
      <trkpt lat="45.92323" lon="5.83597">
        <ele>288.1</ele>
        <time>2022-09-26T11:34:33Z</time>
      </trkpt>
      <trkpt lat="45.92323" lon="5.83593">
        <ele>288.1</ele>
        <time>2022-09-26T11:34:34Z</time>
      </trkpt>
      <trkpt lat="45.92324" lon="5.83589">
        <ele>288.2</ele>
        <time>2022-09-26T11:34:35Z</time>
      </trkpt>
      <trkpt lat="45.92325" lon="5.83585">
        <ele>288.3</ele>
        <time>2022-09-26T11:34:36Z</time>
      </trkpt>
      <trkpt lat="45.92325" lon="5.83582">
        <ele>288.4</ele>
        <time>2022-09-26T11:34:37Z</time>
      </trkpt>
      <trkpt lat="45.92326" lon="5.83578">
        <ele>288.5</ele>
        <time>2022-09-26T11:34:38Z</time>
      </trkpt>
      <trkpt lat="45.92327" lon="5.83574">
        <ele>288.6</ele>
        <time>2022-09-26T11:34:39Z</time>
      </trkpt>
      <trkpt lat="45.92328" lon="5.8357">
        <ele>288.7</ele>
        <time>2022-09-26T11:34:40Z</time>
      </trkpt>
      <trkpt lat="45.92329" lon="5.83566">
        <ele>288.7</ele>
        <time>2022-09-26T11:34:41Z</time>
      </trkpt>
      <trkpt lat="45.92329" lon="5.83562">
        <ele>288.8</ele>
        <time>2022-09-26T11:34:42Z</time>
      </trkpt>
      <trkpt lat="45.9233" lon="5.83558">
        <ele>288.9</ele>
        <time>2022-09-26T11:34:43Z</time>
      </trkpt>
      <trkpt lat="45.92331" lon="5.83553">
        <ele>289</ele>
        <time>2022-09-26T11:34:44Z</time>
      </trkpt>
      <trkpt lat="45.92331" lon="5.83551">
        <ele>289.1</ele>
        <time>2022-09-26T11:34:45Z</time>
      </trkpt>
      <trkpt lat="45.92332" lon="5.83547">
        <ele>289.2</ele>
        <time>2022-09-26T11:34:46Z</time>
      </trkpt>
      <trkpt lat="45.92334" lon="5.83543">
        <ele>289.3</ele>
        <time>2022-09-26T11:34:47Z</time>
      </trkpt>
      <trkpt lat="45.92335" lon="5.83541">
        <ele>289.3</ele>
        <time>2022-09-26T11:34:48Z</time>
      </trkpt>
      <trkpt lat="45.92336" lon="5.83536">
        <ele>289.4</ele>
        <time>2022-09-26T11:34:49Z</time>
      </trkpt>
      <trkpt lat="45.92337" lon="5.83534">
        <ele>289.5</ele>
        <time>2022-09-26T11:34:50Z</time>
      </trkpt>
      <trkpt lat="45.92338" lon="5.83531">
        <ele>289.6</ele>
        <time>2022-09-26T11:34:51Z</time>
      </trkpt>
      <trkpt lat="45.9234" lon="5.83528">
        <ele>289.7</ele>
        <time>2022-09-26T11:34:52Z</time>
      </trkpt>
      <trkpt lat="45.92342" lon="5.83525">
        <ele>289.7</ele>
        <time>2022-09-26T11:34:53Z</time>
      </trkpt>
      <trkpt lat="45.92344" lon="5.8352">
        <ele>289.8</ele>
        <time>2022-09-26T11:34:54Z</time>
      </trkpt>
      <trkpt lat="45.92345" lon="5.83518">
        <ele>289.9</ele>
        <time>2022-09-26T11:34:55Z</time>
      </trkpt>
      <trkpt lat="45.92347" lon="5.83516">
        <ele>290</ele>
        <time>2022-09-26T11:34:56Z</time>
      </trkpt>
      <trkpt lat="45.92349" lon="5.83513">
        <ele>290.1</ele>
        <time>2022-09-26T11:34:57Z</time>
      </trkpt>
      <trkpt lat="45.92351" lon="5.83511">
        <ele>290.1</ele>
        <time>2022-09-26T11:34:58Z</time>
      </trkpt>
      <trkpt lat="45.92354" lon="5.83509">
        <ele>290.2</ele>
        <time>2022-09-26T11:34:59Z</time>
      </trkpt>
      <trkpt lat="45.92356" lon="5.83508">
        <ele>290.2</ele>
        <time>2022-09-26T11:35:00Z</time>
      </trkpt>
      <trkpt lat="45.92359" lon="5.83506">
        <ele>290.2</ele>
        <time>2022-09-26T11:35:01Z</time>
      </trkpt>
      <trkpt lat="45.9236" lon="5.83505">
        <ele>290.2</ele>
        <time>2022-09-26T11:35:02Z</time>
      </trkpt>
      <trkpt lat="45.92363" lon="5.83503">
        <ele>290.3</ele>
        <time>2022-09-26T11:35:03Z</time>
      </trkpt>
      <trkpt lat="45.92366" lon="5.83502">
        <ele>290.3</ele>
        <time>2022-09-26T11:35:04Z</time>
      </trkpt>
      <trkpt lat="45.92369" lon="5.83499">
        <ele>290.4</ele>
        <time>2022-09-26T11:35:05Z</time>
      </trkpt>
      <trkpt lat="45.92371" lon="5.83499">
        <ele>290.4</ele>
        <time>2022-09-26T11:35:06Z</time>
      </trkpt>
      <trkpt lat="45.92374" lon="5.83497">
        <ele>290.5</ele>
        <time>2022-09-26T11:35:07Z</time>
      </trkpt>
      <trkpt lat="45.92376" lon="5.83496">
        <ele>290.5</ele>
        <time>2022-09-26T11:35:08Z</time>
      </trkpt>
      <trkpt lat="45.92379" lon="5.83494">
        <ele>290.6</ele>
        <time>2022-09-26T11:35:09Z</time>
      </trkpt>
      <trkpt lat="45.92382" lon="5.83493">
        <ele>290.6</ele>
        <time>2022-09-26T11:35:10Z</time>
      </trkpt>
      <trkpt lat="45.92385" lon="5.83491">
        <ele>290.7</ele>
        <time>2022-09-26T11:35:11Z</time>
      </trkpt>
      <trkpt lat="45.92388" lon="5.8349">
        <ele>290.8</ele>
        <time>2022-09-26T11:35:12Z</time>
      </trkpt>
      <trkpt lat="45.9239" lon="5.83489">
        <ele>290.8</ele>
        <time>2022-09-26T11:35:13Z</time>
      </trkpt>
      <trkpt lat="45.92393" lon="5.83487">
        <ele>290.9</ele>
        <time>2022-09-26T11:35:14Z</time>
      </trkpt>
      <trkpt lat="45.92396" lon="5.83486">
        <ele>290.9</ele>
        <time>2022-09-26T11:35:15Z</time>
      </trkpt>
      <trkpt lat="45.92399" lon="5.83485">
        <ele>290.9</ele>
        <time>2022-09-26T11:35:16Z</time>
      </trkpt>
      <trkpt lat="45.92402" lon="5.83484">
        <ele>291</ele>
        <time>2022-09-26T11:35:17Z</time>
      </trkpt>
      <trkpt lat="45.92405" lon="5.83483">
        <ele>291</ele>
        <time>2022-09-26T11:35:18Z</time>
      </trkpt>
      <trkpt lat="45.92408" lon="5.83482">
        <ele>291.1</ele>
        <time>2022-09-26T11:35:19Z</time>
      </trkpt>
      <trkpt lat="45.92411" lon="5.83481">
        <ele>291.1</ele>
        <time>2022-09-26T11:35:20Z</time>
      </trkpt>
      <trkpt lat="45.92414" lon="5.8348">
        <ele>291.1</ele>
        <time>2022-09-26T11:35:21Z</time>
      </trkpt>
      <trkpt lat="45.92417" lon="5.83479">
        <ele>291.2</ele>
        <time>2022-09-26T11:35:22Z</time>
      </trkpt>
      <trkpt lat="45.9242" lon="5.83477">
        <ele>291.2</ele>
        <time>2022-09-26T11:35:23Z</time>
      </trkpt>
      <trkpt lat="45.92423" lon="5.83476">
        <ele>291.2</ele>
        <time>2022-09-26T11:35:24Z</time>
      </trkpt>
      <trkpt lat="45.92426" lon="5.83474">
        <ele>291.3</ele>
        <time>2022-09-26T11:35:25Z</time>
      </trkpt>
      <trkpt lat="45.92429" lon="5.83473">
        <ele>291.3</ele>
        <time>2022-09-26T11:35:26Z</time>
      </trkpt>
      <trkpt lat="45.92433" lon="5.83472">
        <ele>291.3</ele>
        <time>2022-09-26T11:35:27Z</time>
      </trkpt>
      <trkpt lat="45.92436" lon="5.8347">
        <ele>291.3</ele>
        <time>2022-09-26T11:35:28Z</time>
      </trkpt>
      <trkpt lat="45.92439" lon="5.83469">
        <ele>291.4</ele>
        <time>2022-09-26T11:35:29Z</time>
      </trkpt>
      <trkpt lat="45.92443" lon="5.83467">
        <ele>291.4</ele>
        <time>2022-09-26T11:35:30Z</time>
      </trkpt>
      <trkpt lat="45.92446" lon="5.83465">
        <ele>291.4</ele>
        <time>2022-09-26T11:35:31Z</time>
      </trkpt>
      <trkpt lat="45.9245" lon="5.83464">
        <ele>291.5</ele>
        <time>2022-09-26T11:35:32Z</time>
      </trkpt>
      <trkpt lat="45.92453" lon="5.83462">
        <ele>291.5</ele>
        <time>2022-09-26T11:35:33Z</time>
      </trkpt>
      <trkpt lat="45.92457" lon="5.8346">
        <ele>291.5</ele>
        <time>2022-09-26T11:35:34Z</time>
      </trkpt>
      <trkpt lat="45.9246" lon="5.83459">
        <ele>291.6</ele>
        <time>2022-09-26T11:35:35Z</time>
      </trkpt>
      <trkpt lat="45.92464" lon="5.83458">
        <ele>291.6</ele>
        <time>2022-09-26T11:35:36Z</time>
      </trkpt>
      <trkpt lat="45.92468" lon="5.83456">
        <ele>291.6</ele>
        <time>2022-09-26T11:35:37Z</time>
      </trkpt>
      <trkpt lat="45.92472" lon="5.83455">
        <ele>291.7</ele>
        <time>2022-09-26T11:35:38Z</time>
      </trkpt>
      <trkpt lat="45.92475" lon="5.83454">
        <ele>291.7</ele>
        <time>2022-09-26T11:35:39Z</time>
      </trkpt>
      <trkpt lat="45.92479" lon="5.83451">
        <ele>291.8</ele>
        <time>2022-09-26T11:35:40Z</time>
      </trkpt>
      <trkpt lat="45.92482" lon="5.8345">
        <ele>291.8</ele>
        <time>2022-09-26T11:35:41Z</time>
      </trkpt>
      <trkpt lat="45.92486" lon="5.83448">
        <ele>291.8</ele>
        <time>2022-09-26T11:35:42Z</time>
      </trkpt>
      <trkpt lat="45.92489" lon="5.83447">
        <ele>291.9</ele>
        <time>2022-09-26T11:35:43Z</time>
      </trkpt>
      <trkpt lat="45.92493" lon="5.83445">
        <ele>291.9</ele>
        <time>2022-09-26T11:35:44Z</time>
      </trkpt>
      <trkpt lat="45.92496" lon="5.83444">
        <ele>291.9</ele>
        <time>2022-09-26T11:35:45Z</time>
      </trkpt>
      <trkpt lat="45.925" lon="5.83443">
        <ele>291.9</ele>
        <time>2022-09-26T11:35:46Z</time>
      </trkpt>
      <trkpt lat="45.92503" lon="5.83442">
        <ele>292</ele>
        <time>2022-09-26T11:35:47Z</time>
      </trkpt>
      <trkpt lat="45.92507" lon="5.83441">
        <ele>292</ele>
        <time>2022-09-26T11:35:48Z</time>
      </trkpt>
      <trkpt lat="45.92511" lon="5.83439">
        <ele>292</ele>
        <time>2022-09-26T11:35:49Z</time>
      </trkpt>
      <trkpt lat="45.92514" lon="5.83438">
        <ele>292</ele>
        <time>2022-09-26T11:35:50Z</time>
      </trkpt>
      <trkpt lat="45.92518" lon="5.83437">
        <ele>292</ele>
        <time>2022-09-26T11:35:51Z</time>
      </trkpt>
      <trkpt lat="45.92522" lon="5.83435">
        <ele>292</ele>
        <time>2022-09-26T11:35:52Z</time>
      </trkpt>
      <trkpt lat="45.92526" lon="5.83434">
        <ele>292</ele>
        <time>2022-09-26T11:35:53Z</time>
      </trkpt>
      <trkpt lat="45.92531" lon="5.83432">
        <ele>292</ele>
        <time>2022-09-26T11:35:54Z</time>
      </trkpt>
      <trkpt lat="45.92534" lon="5.83431">
        <ele>292.1</ele>
        <time>2022-09-26T11:35:55Z</time>
      </trkpt>
      <trkpt lat="45.92538" lon="5.83429">
        <ele>292.1</ele>
        <time>2022-09-26T11:35:56Z</time>
      </trkpt>
      <trkpt lat="45.92542" lon="5.83428">
        <ele>292.1</ele>
        <time>2022-09-26T11:35:57Z</time>
      </trkpt>
      <trkpt lat="45.92545" lon="5.83427">
        <ele>292.1</ele>
        <time>2022-09-26T11:35:58Z</time>
      </trkpt>
      <trkpt lat="45.92549" lon="5.83426">
        <ele>292.2</ele>
        <time>2022-09-26T11:35:59Z</time>
      </trkpt>
      <trkpt lat="45.92553" lon="5.83424">
        <ele>292.2</ele>
        <time>2022-09-26T11:36:00Z</time>
      </trkpt>
      <trkpt lat="45.92557" lon="5.83423">
        <ele>292.3</ele>
        <time>2022-09-26T11:36:01Z</time>
      </trkpt>
      <trkpt lat="45.92561" lon="5.83422">
        <ele>292.3</ele>
        <time>2022-09-26T11:36:02Z</time>
      </trkpt>
      <trkpt lat="45.92565" lon="5.83421">
        <ele>292.3</ele>
        <time>2022-09-26T11:36:03Z</time>
      </trkpt>
      <trkpt lat="45.92569" lon="5.8342">
        <ele>292.4</ele>
        <time>2022-09-26T11:36:04Z</time>
      </trkpt>
      <trkpt lat="45.92573" lon="5.83419">
        <ele>292.4</ele>
        <time>2022-09-26T11:36:05Z</time>
      </trkpt>
      <trkpt lat="45.92577" lon="5.83419">
        <ele>292.5</ele>
        <time>2022-09-26T11:36:06Z</time>
      </trkpt>
      <trkpt lat="45.9258" lon="5.83419">
        <ele>292.5</ele>
        <time>2022-09-26T11:36:07Z</time>
      </trkpt>
      <trkpt lat="45.92585" lon="5.83418">
        <ele>292.6</ele>
        <time>2022-09-26T11:36:08Z</time>
      </trkpt>
      <trkpt lat="45.92588" lon="5.83418">
        <ele>292.6</ele>
        <time>2022-09-26T11:36:09Z</time>
      </trkpt>
      <trkpt lat="45.92592" lon="5.83418">
        <ele>292.7</ele>
        <time>2022-09-26T11:36:10Z</time>
      </trkpt>
      <trkpt lat="45.92596" lon="5.83418">
        <ele>292.8</ele>
        <time>2022-09-26T11:36:11Z</time>
      </trkpt>
      <trkpt lat="45.926" lon="5.83419">
        <ele>292.8</ele>
        <time>2022-09-26T11:36:12Z</time>
      </trkpt>
      <trkpt lat="45.92603" lon="5.83419">
        <ele>292.9</ele>
        <time>2022-09-26T11:36:13Z</time>
      </trkpt>
      <trkpt lat="45.92607" lon="5.83419">
        <ele>293</ele>
        <time>2022-09-26T11:36:14Z</time>
      </trkpt>
      <trkpt lat="45.9261" lon="5.8342">
        <ele>293</ele>
        <time>2022-09-26T11:36:15Z</time>
      </trkpt>
      <trkpt lat="45.92615" lon="5.83421">
        <ele>293.1</ele>
        <time>2022-09-26T11:36:16Z</time>
      </trkpt>
      <trkpt lat="45.92618" lon="5.83421">
        <ele>293.2</ele>
        <time>2022-09-26T11:36:17Z</time>
      </trkpt>
      <trkpt lat="45.92621" lon="5.83421">
        <ele>293.2</ele>
        <time>2022-09-26T11:36:18Z</time>
      </trkpt>
      <trkpt lat="45.92625" lon="5.83421">
        <ele>293.3</ele>
        <time>2022-09-26T11:36:19Z</time>
      </trkpt>
      <trkpt lat="45.92629" lon="5.83422">
        <ele>293.4</ele>
        <time>2022-09-26T11:36:20Z</time>
      </trkpt>
      <trkpt lat="45.92632" lon="5.83423">
        <ele>293.4</ele>
        <time>2022-09-26T11:36:21Z</time>
      </trkpt>
      <trkpt lat="45.92636" lon="5.83423">
        <ele>293.5</ele>
        <time>2022-09-26T11:36:22Z</time>
      </trkpt>
      <trkpt lat="45.92639" lon="5.83423">
        <ele>293.5</ele>
        <time>2022-09-26T11:36:23Z</time>
      </trkpt>
      <trkpt lat="45.92642" lon="5.83423">
        <ele>293.6</ele>
        <time>2022-09-26T11:36:24Z</time>
      </trkpt>
      <trkpt lat="45.92646" lon="5.83423">
        <ele>293.7</ele>
        <time>2022-09-26T11:36:25Z</time>
      </trkpt>
      <trkpt lat="45.9265" lon="5.83424">
        <ele>293.7</ele>
        <time>2022-09-26T11:36:26Z</time>
      </trkpt>
      <trkpt lat="45.92654" lon="5.83424">
        <ele>293.8</ele>
        <time>2022-09-26T11:36:27Z</time>
      </trkpt>
      <trkpt lat="45.92657" lon="5.83425">
        <ele>293.8</ele>
        <time>2022-09-26T11:36:28Z</time>
      </trkpt>
      <trkpt lat="45.9266" lon="5.83426">
        <ele>293.9</ele>
        <time>2022-09-26T11:36:29Z</time>
      </trkpt>
      <trkpt lat="45.92664" lon="5.83427">
        <ele>293.9</ele>
        <time>2022-09-26T11:36:30Z</time>
      </trkpt>
      <trkpt lat="45.92667" lon="5.83427">
        <ele>294</ele>
        <time>2022-09-26T11:36:31Z</time>
      </trkpt>
      <trkpt lat="45.9267" lon="5.83428">
        <ele>294</ele>
        <time>2022-09-26T11:36:32Z</time>
      </trkpt>
      <trkpt lat="45.92673" lon="5.83429">
        <ele>294.1</ele>
        <time>2022-09-26T11:36:33Z</time>
      </trkpt>
      <trkpt lat="45.92676" lon="5.83429">
        <ele>294.2</ele>
        <time>2022-09-26T11:36:34Z</time>
      </trkpt>
      <trkpt lat="45.92681" lon="5.8343">
        <ele>294.2</ele>
        <time>2022-09-26T11:36:35Z</time>
      </trkpt>
      <trkpt lat="45.92685" lon="5.8343">
        <ele>294.3</ele>
        <time>2022-09-26T11:36:36Z</time>
      </trkpt>
      <trkpt lat="45.92686" lon="5.8343">
        <ele>294.4</ele>
        <time>2022-09-26T11:36:37Z</time>
      </trkpt>
      <trkpt lat="45.92689" lon="5.83431">
        <ele>294.4</ele>
        <time>2022-09-26T11:36:38Z</time>
      </trkpt>
      <trkpt lat="45.92692" lon="5.83431">
        <ele>294.5</ele>
        <time>2022-09-26T11:36:39Z</time>
      </trkpt>
      <trkpt lat="45.92696" lon="5.83431">
        <ele>294.6</ele>
        <time>2022-09-26T11:36:40Z</time>
      </trkpt>
      <trkpt lat="45.92698" lon="5.83431">
        <ele>294.6</ele>
        <time>2022-09-26T11:36:41Z</time>
      </trkpt>
      <trkpt lat="45.92701" lon="5.8343">
        <ele>294.7</ele>
        <time>2022-09-26T11:36:42Z</time>
      </trkpt>
      <trkpt lat="45.92704" lon="5.83429">
        <ele>294.8</ele>
        <time>2022-09-26T11:36:43Z</time>
      </trkpt>
      <trkpt lat="45.92707" lon="5.83427">
        <ele>294.8</ele>
        <time>2022-09-26T11:36:44Z</time>
      </trkpt>
      <trkpt lat="45.92711" lon="5.83425">
        <ele>294.9</ele>
        <time>2022-09-26T11:36:45Z</time>
      </trkpt>
      <trkpt lat="45.92714" lon="5.83423">
        <ele>295</ele>
        <time>2022-09-26T11:36:46Z</time>
      </trkpt>
      <trkpt lat="45.92717" lon="5.83419">
        <ele>295.1</ele>
        <time>2022-09-26T11:36:47Z</time>
      </trkpt>
      <trkpt lat="45.9272" lon="5.83418">
        <ele>295.2</ele>
        <time>2022-09-26T11:36:48Z</time>
      </trkpt>
      <trkpt lat="45.92723" lon="5.83414">
        <ele>295.3</ele>
        <time>2022-09-26T11:36:49Z</time>
      </trkpt>
      <trkpt lat="45.92724" lon="5.83412">
        <ele>295.3</ele>
        <time>2022-09-26T11:36:50Z</time>
      </trkpt>
      <trkpt lat="45.92727" lon="5.83409">
        <ele>295.4</ele>
        <time>2022-09-26T11:36:51Z</time>
      </trkpt>
      <trkpt lat="45.92729" lon="5.83405">
        <ele>295.5</ele>
        <time>2022-09-26T11:36:52Z</time>
      </trkpt>
      <trkpt lat="45.9273" lon="5.83404">
        <ele>295.5</ele>
        <time>2022-09-26T11:36:53Z</time>
      </trkpt>
      <trkpt lat="45.92732" lon="5.834">
        <ele>295.6</ele>
        <time>2022-09-26T11:36:54Z</time>
      </trkpt>
      <trkpt lat="45.92734" lon="5.83396">
        <ele>295.7</ele>
        <time>2022-09-26T11:36:55Z</time>
      </trkpt>
      <trkpt lat="45.92735" lon="5.83395">
        <ele>295.8</ele>
        <time>2022-09-26T11:36:56Z</time>
      </trkpt>
      <trkpt lat="45.92737" lon="5.83391">
        <ele>295.8</ele>
        <time>2022-09-26T11:36:57Z</time>
      </trkpt>
      <trkpt lat="45.92739" lon="5.83386">
        <ele>295.9</ele>
        <time>2022-09-26T11:36:58Z</time>
      </trkpt>
      <trkpt lat="45.9274" lon="5.83384">
        <ele>296</ele>
        <time>2022-09-26T11:36:59Z</time>
      </trkpt>
      <trkpt lat="45.92742" lon="5.8338">
        <ele>296.1</ele>
        <time>2022-09-26T11:37:00Z</time>
      </trkpt>
      <trkpt lat="45.92743" lon="5.83376">
        <ele>296.1</ele>
        <time>2022-09-26T11:37:01Z</time>
      </trkpt>
      <trkpt lat="45.92746" lon="5.83373">
        <ele>296.2</ele>
        <time>2022-09-26T11:37:02Z</time>
      </trkpt>
      <trkpt lat="45.92747" lon="5.83369">
        <ele>296.3</ele>
        <time>2022-09-26T11:37:03Z</time>
      </trkpt>
      <trkpt lat="45.92749" lon="5.83364">
        <ele>296.4</ele>
        <time>2022-09-26T11:37:04Z</time>
      </trkpt>
      <trkpt lat="45.9275" lon="5.83361">
        <ele>296.4</ele>
        <time>2022-09-26T11:37:05Z</time>
      </trkpt>
      <trkpt lat="45.92752" lon="5.83357">
        <ele>296.5</ele>
        <time>2022-09-26T11:37:06Z</time>
      </trkpt>
      <trkpt lat="45.92754" lon="5.83353">
        <ele>296.6</ele>
        <time>2022-09-26T11:37:07Z</time>
      </trkpt>
      <trkpt lat="45.92756" lon="5.83348">
        <ele>296.7</ele>
        <time>2022-09-26T11:37:08Z</time>
      </trkpt>
      <trkpt lat="45.92757" lon="5.83346">
        <ele>296.7</ele>
        <time>2022-09-26T11:37:09Z</time>
      </trkpt>
      <trkpt lat="45.92759" lon="5.83343">
        <ele>296.8</ele>
        <time>2022-09-26T11:37:10Z</time>
      </trkpt>
      <trkpt lat="45.92761" lon="5.8334">
        <ele>296.8</ele>
        <time>2022-09-26T11:37:11Z</time>
      </trkpt>
      <trkpt lat="45.92762" lon="5.83335">
        <ele>296.9</ele>
        <time>2022-09-26T11:37:12Z</time>
      </trkpt>
      <trkpt lat="45.92764" lon="5.83331">
        <ele>297</ele>
        <time>2022-09-26T11:37:13Z</time>
      </trkpt>
      <trkpt lat="45.92766" lon="5.83328">
        <ele>297.1</ele>
        <time>2022-09-26T11:37:14Z</time>
      </trkpt>
      <trkpt lat="45.92768" lon="5.83323">
        <ele>297.1</ele>
        <time>2022-09-26T11:37:15Z</time>
      </trkpt>
      <trkpt lat="45.92769" lon="5.83319">
        <ele>297.2</ele>
        <time>2022-09-26T11:37:16Z</time>
      </trkpt>
      <trkpt lat="45.92771" lon="5.83315">
        <ele>297.3</ele>
        <time>2022-09-26T11:37:17Z</time>
      </trkpt>
      <trkpt lat="45.92773" lon="5.83311">
        <ele>297.3</ele>
        <time>2022-09-26T11:37:18Z</time>
      </trkpt>
      <trkpt lat="45.92775" lon="5.83306">
        <ele>297.4</ele>
        <time>2022-09-26T11:37:19Z</time>
      </trkpt>
      <trkpt lat="45.92776" lon="5.83303">
        <ele>297.5</ele>
        <time>2022-09-26T11:37:20Z</time>
      </trkpt>
      <trkpt lat="45.92778" lon="5.83299">
        <ele>297.5</ele>
        <time>2022-09-26T11:37:21Z</time>
      </trkpt>
      <trkpt lat="45.9278" lon="5.83295">
        <ele>297.6</ele>
        <time>2022-09-26T11:37:22Z</time>
      </trkpt>
      <trkpt lat="45.92782" lon="5.8329">
        <ele>297.6</ele>
        <time>2022-09-26T11:37:23Z</time>
      </trkpt>
      <trkpt lat="45.92784" lon="5.83286">
        <ele>297.6</ele>
        <time>2022-09-26T11:37:24Z</time>
      </trkpt>
      <trkpt lat="45.92785" lon="5.83282">
        <ele>297.7</ele>
        <time>2022-09-26T11:37:25Z</time>
      </trkpt>
      <trkpt lat="45.92788" lon="5.83278">
        <ele>297.7</ele>
        <time>2022-09-26T11:37:26Z</time>
      </trkpt>
      <trkpt lat="45.9279" lon="5.83275">
        <ele>297.7</ele>
        <time>2022-09-26T11:37:27Z</time>
      </trkpt>
      <trkpt lat="45.92791" lon="5.83271">
        <ele>297.8</ele>
        <time>2022-09-26T11:37:28Z</time>
      </trkpt>
      <trkpt lat="45.92793" lon="5.83266">
        <ele>297.8</ele>
        <time>2022-09-26T11:37:29Z</time>
      </trkpt>
      <trkpt lat="45.92795" lon="5.83263">
        <ele>297.8</ele>
        <time>2022-09-26T11:37:30Z</time>
      </trkpt>
      <trkpt lat="45.92797" lon="5.83258">
        <ele>297.8</ele>
        <time>2022-09-26T11:37:31Z</time>
      </trkpt>
      <trkpt lat="45.92798" lon="5.83254">
        <ele>297.8</ele>
        <time>2022-09-26T11:37:32Z</time>
      </trkpt>
      <trkpt lat="45.928" lon="5.8325">
        <ele>297.9</ele>
        <time>2022-09-26T11:37:33Z</time>
      </trkpt>
      <trkpt lat="45.92802" lon="5.83246">
        <ele>297.9</ele>
        <time>2022-09-26T11:37:34Z</time>
      </trkpt>
      <trkpt lat="45.92804" lon="5.83242">
        <ele>297.9</ele>
        <time>2022-09-26T11:37:35Z</time>
      </trkpt>
      <trkpt lat="45.92806" lon="5.83238">
        <ele>297.9</ele>
        <time>2022-09-26T11:37:36Z</time>
      </trkpt>
      <trkpt lat="45.92808" lon="5.83233">
        <ele>298</ele>
        <time>2022-09-26T11:37:37Z</time>
      </trkpt>
      <trkpt lat="45.9281" lon="5.83229">
        <ele>298</ele>
        <time>2022-09-26T11:37:38Z</time>
      </trkpt>
      <trkpt lat="45.92811" lon="5.83225">
        <ele>298</ele>
        <time>2022-09-26T11:37:39Z</time>
      </trkpt>
      <trkpt lat="45.92813" lon="5.83221">
        <ele>298</ele>
        <time>2022-09-26T11:37:40Z</time>
      </trkpt>
      <trkpt lat="45.92815" lon="5.83216">
        <ele>298.1</ele>
        <time>2022-09-26T11:37:41Z</time>
      </trkpt>
      <trkpt lat="45.92817" lon="5.83211">
        <ele>298.1</ele>
        <time>2022-09-26T11:37:42Z</time>
      </trkpt>
      <trkpt lat="45.92819" lon="5.83206">
        <ele>298.1</ele>
        <time>2022-09-26T11:37:43Z</time>
      </trkpt>
      <trkpt lat="45.92821" lon="5.83202">
        <ele>298.1</ele>
        <time>2022-09-26T11:37:44Z</time>
      </trkpt>
      <trkpt lat="45.92824" lon="5.83197">
        <ele>298.1</ele>
        <time>2022-09-26T11:37:45Z</time>
      </trkpt>
      <trkpt lat="45.92826" lon="5.83193">
        <ele>298.2</ele>
        <time>2022-09-26T11:37:46Z</time>
      </trkpt>
      <trkpt lat="45.92828" lon="5.83189">
        <ele>298.2</ele>
        <time>2022-09-26T11:37:47Z</time>
      </trkpt>
      <trkpt lat="45.9283" lon="5.83184">
        <ele>298.2</ele>
        <time>2022-09-26T11:37:48Z</time>
      </trkpt>
      <trkpt lat="45.92831" lon="5.8318">
        <ele>298.2</ele>
        <time>2022-09-26T11:37:49Z</time>
      </trkpt>
      <trkpt lat="45.92833" lon="5.83176">
        <ele>298.2</ele>
        <time>2022-09-26T11:37:50Z</time>
      </trkpt>
      <trkpt lat="45.92835" lon="5.83171">
        <ele>298.3</ele>
        <time>2022-09-26T11:37:51Z</time>
      </trkpt>
      <trkpt lat="45.92838" lon="5.83167">
        <ele>298.3</ele>
        <time>2022-09-26T11:37:52Z</time>
      </trkpt>
      <trkpt lat="45.9284" lon="5.83163">
        <ele>298.3</ele>
        <time>2022-09-26T11:37:53Z</time>
      </trkpt>
      <trkpt lat="45.92842" lon="5.83159">
        <ele>298.3</ele>
        <time>2022-09-26T11:37:54Z</time>
      </trkpt>
      <trkpt lat="45.92844" lon="5.83155">
        <ele>298.3</ele>
        <time>2022-09-26T11:37:55Z</time>
      </trkpt>
      <trkpt lat="45.92847" lon="5.8315">
        <ele>298.4</ele>
        <time>2022-09-26T11:37:56Z</time>
      </trkpt>
      <trkpt lat="45.92849" lon="5.83147">
        <ele>298.4</ele>
        <time>2022-09-26T11:37:57Z</time>
      </trkpt>
      <trkpt lat="45.92852" lon="5.83142">
        <ele>298.4</ele>
        <time>2022-09-26T11:37:58Z</time>
      </trkpt>
      <trkpt lat="45.92854" lon="5.83138">
        <ele>298.4</ele>
        <time>2022-09-26T11:37:59Z</time>
      </trkpt>
      <trkpt lat="45.92857" lon="5.83134">
        <ele>298.4</ele>
        <time>2022-09-26T11:38:00Z</time>
      </trkpt>
      <trkpt lat="45.92859" lon="5.83131">
        <ele>298.5</ele>
        <time>2022-09-26T11:38:01Z</time>
      </trkpt>
      <trkpt lat="45.92862" lon="5.83127">
        <ele>298.5</ele>
        <time>2022-09-26T11:38:02Z</time>
      </trkpt>
      <trkpt lat="45.92865" lon="5.83124">
        <ele>298.5</ele>
        <time>2022-09-26T11:38:03Z</time>
      </trkpt>
      <trkpt lat="45.92869" lon="5.83121">
        <ele>298.5</ele>
        <time>2022-09-26T11:38:04Z</time>
      </trkpt>
      <trkpt lat="45.92873" lon="5.83117">
        <ele>298.5</ele>
        <time>2022-09-26T11:38:05Z</time>
      </trkpt>
      <trkpt lat="45.92876" lon="5.83114">
        <ele>298.4</ele>
        <time>2022-09-26T11:38:06Z</time>
      </trkpt>
      <trkpt lat="45.92879" lon="5.83111">
        <ele>298.4</ele>
        <time>2022-09-26T11:38:07Z</time>
      </trkpt>
      <trkpt lat="45.92883" lon="5.83108">
        <ele>298.4</ele>
        <time>2022-09-26T11:38:08Z</time>
      </trkpt>
      <trkpt lat="45.92887" lon="5.83105">
        <ele>298.4</ele>
        <time>2022-09-26T11:38:09Z</time>
      </trkpt>
      <trkpt lat="45.92891" lon="5.83103">
        <ele>298.4</ele>
        <time>2022-09-26T11:38:10Z</time>
      </trkpt>
      <trkpt lat="45.92894" lon="5.83101">
        <ele>298.3</ele>
        <time>2022-09-26T11:38:11Z</time>
      </trkpt>
      <trkpt lat="45.92897" lon="5.83098">
        <ele>298.3</ele>
        <time>2022-09-26T11:38:12Z</time>
      </trkpt>
      <trkpt lat="45.92901" lon="5.83096">
        <ele>298.3</ele>
        <time>2022-09-26T11:38:13Z</time>
      </trkpt>
      <trkpt lat="45.92905" lon="5.83093">
        <ele>298.3</ele>
        <time>2022-09-26T11:38:14Z</time>
      </trkpt>
      <trkpt lat="45.92908" lon="5.8309">
        <ele>298.2</ele>
        <time>2022-09-26T11:38:15Z</time>
      </trkpt>
      <trkpt lat="45.92912" lon="5.83088">
        <ele>298.2</ele>
        <time>2022-09-26T11:38:16Z</time>
      </trkpt>
      <trkpt lat="45.92916" lon="5.83085">
        <ele>298.2</ele>
        <time>2022-09-26T11:38:17Z</time>
      </trkpt>
      <trkpt lat="45.9292" lon="5.83082">
        <ele>298.2</ele>
        <time>2022-09-26T11:38:18Z</time>
      </trkpt>
      <trkpt lat="45.92924" lon="5.83079">
        <ele>298.1</ele>
        <time>2022-09-26T11:38:19Z</time>
      </trkpt>
      <trkpt lat="45.92928" lon="5.83076">
        <ele>298.1</ele>
        <time>2022-09-26T11:38:20Z</time>
      </trkpt>
      <trkpt lat="45.92933" lon="5.83074">
        <ele>298.1</ele>
        <time>2022-09-26T11:38:21Z</time>
      </trkpt>
      <trkpt lat="45.92936" lon="5.83071">
        <ele>298.1</ele>
        <time>2022-09-26T11:38:22Z</time>
      </trkpt>
      <trkpt lat="45.9294" lon="5.83068">
        <ele>298</ele>
        <time>2022-09-26T11:38:23Z</time>
      </trkpt>
      <trkpt lat="45.92945" lon="5.83066">
        <ele>298</ele>
        <time>2022-09-26T11:38:24Z</time>
      </trkpt>
      <trkpt lat="45.92949" lon="5.83063">
        <ele>298</ele>
        <time>2022-09-26T11:38:25Z</time>
      </trkpt>
      <trkpt lat="45.92953" lon="5.83061">
        <ele>298</ele>
        <time>2022-09-26T11:38:26Z</time>
      </trkpt>
      <trkpt lat="45.92957" lon="5.83058">
        <ele>297.9</ele>
        <time>2022-09-26T11:38:27Z</time>
      </trkpt>
      <trkpt lat="45.92961" lon="5.83055">
        <ele>297.9</ele>
        <time>2022-09-26T11:38:28Z</time>
      </trkpt>
      <trkpt lat="45.92965" lon="5.83053">
        <ele>297.9</ele>
        <time>2022-09-26T11:38:29Z</time>
      </trkpt>
      <trkpt lat="45.92969" lon="5.8305">
        <ele>297.9</ele>
        <time>2022-09-26T11:38:30Z</time>
      </trkpt>
      <trkpt lat="45.92974" lon="5.83048">
        <ele>297.8</ele>
        <time>2022-09-26T11:38:31Z</time>
      </trkpt>
      <trkpt lat="45.92978" lon="5.83045">
        <ele>297.8</ele>
        <time>2022-09-26T11:38:32Z</time>
      </trkpt>
      <trkpt lat="45.92981" lon="5.83043">
        <ele>297.8</ele>
        <time>2022-09-26T11:38:33Z</time>
      </trkpt>
      <trkpt lat="45.92985" lon="5.8304">
        <ele>297.8</ele>
        <time>2022-09-26T11:38:34Z</time>
      </trkpt>
      <trkpt lat="45.92989" lon="5.83038">
        <ele>297.8</ele>
        <time>2022-09-26T11:38:35Z</time>
      </trkpt>
      <trkpt lat="45.92993" lon="5.83036">
        <ele>297.8</ele>
        <time>2022-09-26T11:38:36Z</time>
      </trkpt>
      <trkpt lat="45.92996" lon="5.83034">
        <ele>297.8</ele>
        <time>2022-09-26T11:38:37Z</time>
      </trkpt>
      <trkpt lat="45.93" lon="5.83032">
        <ele>297.8</ele>
        <time>2022-09-26T11:38:38Z</time>
      </trkpt>
      <trkpt lat="45.93003" lon="5.8303">
        <ele>297.8</ele>
        <time>2022-09-26T11:38:39Z</time>
      </trkpt>
      <trkpt lat="45.93007" lon="5.83028">
        <ele>297.8</ele>
        <time>2022-09-26T11:38:40Z</time>
      </trkpt>
      <trkpt lat="45.9301" lon="5.83027">
        <ele>297.8</ele>
        <time>2022-09-26T11:38:41Z</time>
      </trkpt>
      <trkpt lat="45.93013" lon="5.83026">
        <ele>297.8</ele>
        <time>2022-09-26T11:38:42Z</time>
      </trkpt>
      <trkpt lat="45.93013" lon="5.83025">
        <ele>297.8</ele>
        <time>2022-09-26T11:38:43Z</time>
      </trkpt>
      <trkpt lat="45.93013" lon="5.83025">
        <ele>297.8</ele>
        <time>2022-09-26T11:38:44Z</time>
      </trkpt>
      <trkpt lat="45.93014" lon="5.83025">
        <ele>297.8</ele>
        <time>2022-09-26T11:38:45Z</time>
      </trkpt>
      <trkpt lat="45.93015" lon="5.83024">
        <ele>297.8</ele>
        <time>2022-09-26T11:38:46Z</time>
      </trkpt>
      <trkpt lat="45.93015" lon="5.83024">
        <ele>297.8</ele>
        <time>2022-09-26T11:38:47Z</time>
      </trkpt>
      <trkpt lat="45.93016" lon="5.83023">
        <ele>297.8</ele>
        <time>2022-09-26T11:38:48Z</time>
      </trkpt>
      <trkpt lat="45.93016" lon="5.83023">
        <ele>297.8</ele>
        <time>2022-09-26T11:38:49Z</time>
      </trkpt>
      <trkpt lat="45.93017" lon="5.83022">
        <ele>297.8</ele>
        <time>2022-09-26T11:38:50Z</time>
      </trkpt>
      <trkpt lat="45.93018" lon="5.83022">
        <ele>297.8</ele>
        <time>2022-09-26T11:38:51Z</time>
      </trkpt>
      <trkpt lat="45.93018" lon="5.83021">
        <ele>297.7</ele>
        <time>2022-09-26T11:38:52Z</time>
      </trkpt>
      <trkpt lat="45.93019" lon="5.83021">
        <ele>297.7</ele>
        <time>2022-09-26T11:38:53Z</time>
      </trkpt>
      <trkpt lat="45.93019" lon="5.8302">
        <ele>297.7</ele>
        <time>2022-09-26T11:39:40Z</time>
      </trkpt>
      <trkpt lat="45.9302" lon="5.8302">
        <ele>297.7</ele>
        <time>2022-09-26T11:39:41Z</time>
      </trkpt>
      <trkpt lat="45.93023" lon="5.83018">
        <ele>297.7</ele>
        <time>2022-09-26T11:39:42Z</time>
      </trkpt>
      <trkpt lat="45.93026" lon="5.83015">
        <ele>297.7</ele>
        <time>2022-09-26T11:39:43Z</time>
      </trkpt>
      <trkpt lat="45.93029" lon="5.83013">
        <ele>297.6</ele>
        <time>2022-09-26T11:39:44Z</time>
      </trkpt>
      <trkpt lat="45.93032" lon="5.83011">
        <ele>297.6</ele>
        <time>2022-09-26T11:39:45Z</time>
      </trkpt>
      <trkpt lat="45.93036" lon="5.83009">
        <ele>297.5</ele>
        <time>2022-09-26T11:39:46Z</time>
      </trkpt>
      <trkpt lat="45.93039" lon="5.83007">
        <ele>297.5</ele>
        <time>2022-09-26T11:39:47Z</time>
      </trkpt>
      <trkpt lat="45.93043" lon="5.83004">
        <ele>297.5</ele>
        <time>2022-09-26T11:39:48Z</time>
      </trkpt>
      <trkpt lat="45.93046" lon="5.83002">
        <ele>297.5</ele>
        <time>2022-09-26T11:39:49Z</time>
      </trkpt>
      <trkpt lat="45.9305" lon="5.82999">
        <ele>297.5</ele>
        <time>2022-09-26T11:39:50Z</time>
      </trkpt>
      <trkpt lat="45.93054" lon="5.82997">
        <ele>297.4</ele>
        <time>2022-09-26T11:39:51Z</time>
      </trkpt>
      <trkpt lat="45.93058" lon="5.82994">
        <ele>297.4</ele>
        <time>2022-09-26T11:39:52Z</time>
      </trkpt>
      <trkpt lat="45.93062" lon="5.82991">
        <ele>297.4</ele>
        <time>2022-09-26T11:39:53Z</time>
      </trkpt>
      <trkpt lat="45.93065" lon="5.82988">
        <ele>297.4</ele>
        <time>2022-09-26T11:39:54Z</time>
      </trkpt>
      <trkpt lat="45.93069" lon="5.82986">
        <ele>297.3</ele>
        <time>2022-09-26T11:39:55Z</time>
      </trkpt>
      <trkpt lat="45.93073" lon="5.82983">
        <ele>297.3</ele>
        <time>2022-09-26T11:39:56Z</time>
      </trkpt>
      <trkpt lat="45.93078" lon="5.8298">
        <ele>297.2</ele>
        <time>2022-09-26T11:39:57Z</time>
      </trkpt>
      <trkpt lat="45.93082" lon="5.82977">
        <ele>297.1</ele>
        <time>2022-09-26T11:39:58Z</time>
      </trkpt>
      <trkpt lat="45.93086" lon="5.82973">
        <ele>297.1</ele>
        <time>2022-09-26T11:39:59Z</time>
      </trkpt>
      <trkpt lat="45.93091" lon="5.8297">
        <ele>297</ele>
        <time>2022-09-26T11:40:00Z</time>
      </trkpt>
      <trkpt lat="45.93095" lon="5.82967">
        <ele>296.9</ele>
        <time>2022-09-26T11:40:01Z</time>
      </trkpt>
      <trkpt lat="45.93099" lon="5.82964">
        <ele>296.7</ele>
        <time>2022-09-26T11:40:02Z</time>
      </trkpt>
      <trkpt lat="45.93104" lon="5.82961">
        <ele>296.6</ele>
        <time>2022-09-26T11:40:03Z</time>
      </trkpt>
      <trkpt lat="45.93108" lon="5.82958">
        <ele>296.4</ele>
        <time>2022-09-26T11:40:04Z</time>
      </trkpt>
      <trkpt lat="45.93112" lon="5.82956">
        <ele>296.3</ele>
        <time>2022-09-26T11:40:05Z</time>
      </trkpt>
      <trkpt lat="45.93117" lon="5.82952">
        <ele>296.1</ele>
        <time>2022-09-26T11:40:06Z</time>
      </trkpt>
      <trkpt lat="45.93121" lon="5.8295">
        <ele>295.9</ele>
        <time>2022-09-26T11:40:07Z</time>
      </trkpt>
      <trkpt lat="45.93125" lon="5.82947">
        <ele>295.6</ele>
        <time>2022-09-26T11:40:08Z</time>
      </trkpt>
      <trkpt lat="45.9313" lon="5.82943">
        <ele>295.4</ele>
        <time>2022-09-26T11:40:09Z</time>
      </trkpt>
      <trkpt lat="45.93135" lon="5.82941">
        <ele>295.1</ele>
        <time>2022-09-26T11:40:10Z</time>
      </trkpt>
      <trkpt lat="45.9314" lon="5.82939">
        <ele>294.9</ele>
        <time>2022-09-26T11:40:11Z</time>
      </trkpt>
      <trkpt lat="45.93144" lon="5.82937">
        <ele>294.7</ele>
        <time>2022-09-26T11:40:12Z</time>
      </trkpt>
      <trkpt lat="45.93149" lon="5.82936">
        <ele>294.4</ele>
        <time>2022-09-26T11:40:13Z</time>
      </trkpt>
      <trkpt lat="45.93154" lon="5.82935">
        <ele>294.2</ele>
        <time>2022-09-26T11:40:14Z</time>
      </trkpt>
      <trkpt lat="45.93158" lon="5.82935">
        <ele>293.9</ele>
        <time>2022-09-26T11:40:15Z</time>
      </trkpt>
      <trkpt lat="45.93163" lon="5.82937">
        <ele>293.7</ele>
        <time>2022-09-26T11:40:16Z</time>
      </trkpt>
      <trkpt lat="45.93168" lon="5.82939">
        <ele>293.4</ele>
        <time>2022-09-26T11:40:17Z</time>
      </trkpt>
      <trkpt lat="45.93172" lon="5.82941">
        <ele>293.1</ele>
        <time>2022-09-26T11:40:18Z</time>
      </trkpt>
      <trkpt lat="45.93176" lon="5.82945">
        <ele>292.9</ele>
        <time>2022-09-26T11:40:19Z</time>
      </trkpt>
      <trkpt lat="45.9318" lon="5.8295">
        <ele>292.6</ele>
        <time>2022-09-26T11:40:20Z</time>
      </trkpt>
      <trkpt lat="45.93183" lon="5.82956">
        <ele>292.2</ele>
        <time>2022-09-26T11:40:21Z</time>
      </trkpt>
      <trkpt lat="45.93186" lon="5.82961">
        <ele>292</ele>
        <time>2022-09-26T11:40:22Z</time>
      </trkpt>
      <trkpt lat="45.93188" lon="5.82968">
        <ele>291.6</ele>
        <time>2022-09-26T11:40:23Z</time>
      </trkpt>
      <trkpt lat="45.93191" lon="5.82975">
        <ele>291.3</ele>
        <time>2022-09-26T11:40:24Z</time>
      </trkpt>
      <trkpt lat="45.93193" lon="5.8298">
        <ele>291.1</ele>
        <time>2022-09-26T11:40:25Z</time>
      </trkpt>
      <trkpt lat="45.93195" lon="5.82988">
        <ele>290.7</ele>
        <time>2022-09-26T11:40:26Z</time>
      </trkpt>
      <trkpt lat="45.93198" lon="5.82997">
        <ele>290.4</ele>
        <time>2022-09-26T11:40:27Z</time>
      </trkpt>
      <trkpt lat="45.932" lon="5.83005">
        <ele>290</ele>
        <time>2022-09-26T11:40:28Z</time>
      </trkpt>
      <trkpt lat="45.93201" lon="5.83012">
        <ele>289.8</ele>
        <time>2022-09-26T11:40:29Z</time>
      </trkpt>
      <trkpt lat="45.93204" lon="5.83018">
        <ele>289.5</ele>
        <time>2022-09-26T11:40:30Z</time>
      </trkpt>
      <trkpt lat="45.93204" lon="5.83028">
        <ele>289.1</ele>
        <time>2022-09-26T11:40:31Z</time>
      </trkpt>
      <trkpt lat="45.93206" lon="5.83035">
        <ele>288.7</ele>
        <time>2022-09-26T11:40:32Z</time>
      </trkpt>
      <trkpt lat="45.93205" lon="5.83045">
        <ele>288.3</ele>
        <time>2022-09-26T11:40:33Z</time>
      </trkpt>
      <trkpt lat="45.93206" lon="5.83052">
        <ele>288</ele>
        <time>2022-09-26T11:40:34Z</time>
      </trkpt>
      <trkpt lat="45.93208" lon="5.83058">
        <ele>287.7</ele>
        <time>2022-09-26T11:40:35Z</time>
      </trkpt>
      <trkpt lat="45.93211" lon="5.83064">
        <ele>287.4</ele>
        <time>2022-09-26T11:40:36Z</time>
      </trkpt>
      <trkpt lat="45.93212" lon="5.8307">
        <ele>287.1</ele>
        <time>2022-09-26T11:40:37Z</time>
      </trkpt>
      <trkpt lat="45.93217" lon="5.83078">
        <ele>286.7</ele>
        <time>2022-09-26T11:40:38Z</time>
      </trkpt>
      <trkpt lat="45.93221" lon="5.83085">
        <ele>286.2</ele>
        <time>2022-09-26T11:40:39Z</time>
      </trkpt>
      <trkpt lat="45.93225" lon="5.83091">
        <ele>285.9</ele>
        <time>2022-09-26T11:40:40Z</time>
      </trkpt>
      <trkpt lat="45.93228" lon="5.83094">
        <ele>285.7</ele>
        <time>2022-09-26T11:40:41Z</time>
      </trkpt>
      <trkpt lat="45.93234" lon="5.83095">
        <ele>285.3</ele>
        <time>2022-09-26T11:40:42Z</time>
      </trkpt>
      <trkpt lat="45.9324" lon="5.83097">
        <ele>285</ele>
        <time>2022-09-26T11:40:43Z</time>
      </trkpt>
      <trkpt lat="45.93246" lon="5.831">
        <ele>284.7</ele>
        <time>2022-09-26T11:40:44Z</time>
      </trkpt>
      <trkpt lat="45.93253" lon="5.83101">
        <ele>284.4</ele>
        <time>2022-09-26T11:40:45Z</time>
      </trkpt>
      <trkpt lat="45.9326" lon="5.83102">
        <ele>284.1</ele>
        <time>2022-09-26T11:40:46Z</time>
      </trkpt>
      <trkpt lat="45.93266" lon="5.83104">
        <ele>283.9</ele>
        <time>2022-09-26T11:40:47Z</time>
      </trkpt>
      <trkpt lat="45.9327" lon="5.83106">
        <ele>283.7</ele>
        <time>2022-09-26T11:40:48Z</time>
      </trkpt>
      <trkpt lat="45.93275" lon="5.83109">
        <ele>283.5</ele>
        <time>2022-09-26T11:40:49Z</time>
      </trkpt>
      <trkpt lat="45.93279" lon="5.83115">
        <ele>283.3</ele>
        <time>2022-09-26T11:40:50Z</time>
      </trkpt>
      <trkpt lat="45.9328" lon="5.83121">
        <ele>283</ele>
        <time>2022-09-26T11:40:51Z</time>
      </trkpt>
      <trkpt lat="45.93281" lon="5.83128">
        <ele>282.8</ele>
        <time>2022-09-26T11:40:52Z</time>
      </trkpt>
      <trkpt lat="45.93282" lon="5.83134">
        <ele>282.5</ele>
        <time>2022-09-26T11:40:53Z</time>
      </trkpt>
      <trkpt lat="45.93283" lon="5.83141">
        <ele>282.2</ele>
        <time>2022-09-26T11:40:54Z</time>
      </trkpt>
      <trkpt lat="45.93281" lon="5.83147">
        <ele>281.9</ele>
        <time>2022-09-26T11:40:55Z</time>
      </trkpt>
      <trkpt lat="45.93278" lon="5.83154">
        <ele>281.5</ele>
        <time>2022-09-26T11:40:56Z</time>
      </trkpt>
      <trkpt lat="45.93275" lon="5.8316">
        <ele>281.2</ele>
        <time>2022-09-26T11:40:57Z</time>
      </trkpt>
      <trkpt lat="45.93273" lon="5.83166">
        <ele>280.9</ele>
        <time>2022-09-26T11:40:58Z</time>
      </trkpt>
      <trkpt lat="45.93271" lon="5.83172">
        <ele>280.6</ele>
        <time>2022-09-26T11:40:59Z</time>
      </trkpt>
      <trkpt lat="45.93266" lon="5.8318">
        <ele>280.1</ele>
        <time>2022-09-26T11:41:00Z</time>
      </trkpt>
      <trkpt lat="45.93262" lon="5.83188">
        <ele>279.7</ele>
        <time>2022-09-26T11:41:01Z</time>
      </trkpt>
      <trkpt lat="45.93258" lon="5.83195">
        <ele>279.3</ele>
        <time>2022-09-26T11:41:02Z</time>
      </trkpt>
      <trkpt lat="45.93254" lon="5.83202">
        <ele>278.9</ele>
        <time>2022-09-26T11:41:03Z</time>
      </trkpt>
      <trkpt lat="45.9325" lon="5.83211">
        <ele>278.5</ele>
        <time>2022-09-26T11:41:04Z</time>
      </trkpt>
      <trkpt lat="45.93245" lon="5.83219">
        <ele>278.1</ele>
        <time>2022-09-26T11:41:05Z</time>
      </trkpt>
      <trkpt lat="45.9324" lon="5.83226">
        <ele>277.6</ele>
        <time>2022-09-26T11:41:06Z</time>
      </trkpt>
      <trkpt lat="45.93236" lon="5.83234">
        <ele>277.2</ele>
        <time>2022-09-26T11:41:07Z</time>
      </trkpt>
      <trkpt lat="45.93233" lon="5.83242">
        <ele>276.8</ele>
        <time>2022-09-26T11:41:08Z</time>
      </trkpt>
      <trkpt lat="45.93228" lon="5.8325">
        <ele>276.4</ele>
        <time>2022-09-26T11:41:09Z</time>
      </trkpt>
      <trkpt lat="45.93224" lon="5.83258">
        <ele>276</ele>
        <time>2022-09-26T11:41:10Z</time>
      </trkpt>
      <trkpt lat="45.9322" lon="5.83266">
        <ele>275.6</ele>
        <time>2022-09-26T11:41:11Z</time>
      </trkpt>
      <trkpt lat="45.93216" lon="5.83275">
        <ele>275.2</ele>
        <time>2022-09-26T11:41:12Z</time>
      </trkpt>
      <trkpt lat="45.93213" lon="5.83284">
        <ele>274.8</ele>
        <time>2022-09-26T11:41:13Z</time>
      </trkpt>
      <trkpt lat="45.93211" lon="5.83293">
        <ele>274.5</ele>
        <time>2022-09-26T11:41:14Z</time>
      </trkpt>
      <trkpt lat="45.93208" lon="5.83302">
        <ele>274.2</ele>
        <time>2022-09-26T11:41:15Z</time>
      </trkpt>
      <trkpt lat="45.93206" lon="5.83312">
        <ele>273.8</ele>
        <time>2022-09-26T11:41:16Z</time>
      </trkpt>
      <trkpt lat="45.93207" lon="5.83322">
        <ele>273.5</ele>
        <time>2022-09-26T11:41:17Z</time>
      </trkpt>
      <trkpt lat="45.93206" lon="5.83332">
        <ele>273.2</ele>
        <time>2022-09-26T11:41:18Z</time>
      </trkpt>
      <trkpt lat="45.93205" lon="5.83342">
        <ele>272.8</ele>
        <time>2022-09-26T11:41:19Z</time>
      </trkpt>
      <trkpt lat="45.93205" lon="5.83351">
        <ele>272.5</ele>
        <time>2022-09-26T11:41:20Z</time>
      </trkpt>
      <trkpt lat="45.93203" lon="5.83362">
        <ele>272.1</ele>
        <time>2022-09-26T11:41:21Z</time>
      </trkpt>
      <trkpt lat="45.93201" lon="5.83371">
        <ele>271.7</ele>
        <time>2022-09-26T11:41:22Z</time>
      </trkpt>
      <trkpt lat="45.93202" lon="5.83382">
        <ele>271.2</ele>
        <time>2022-09-26T11:41:23Z</time>
      </trkpt>
      <trkpt lat="45.93201" lon="5.83392">
        <ele>270.8</ele>
        <time>2022-09-26T11:41:24Z</time>
      </trkpt>
      <trkpt lat="45.932" lon="5.83402">
        <ele>270.4</ele>
        <time>2022-09-26T11:41:25Z</time>
      </trkpt>
      <trkpt lat="45.93199" lon="5.83413">
        <ele>269.9</ele>
        <time>2022-09-26T11:41:26Z</time>
      </trkpt>
      <trkpt lat="45.93198" lon="5.83423">
        <ele>269.5</ele>
        <time>2022-09-26T11:41:27Z</time>
      </trkpt>
      <trkpt lat="45.93197" lon="5.83433">
        <ele>269</ele>
        <time>2022-09-26T11:41:28Z</time>
      </trkpt>
      <trkpt lat="45.93198" lon="5.83442">
        <ele>268.6</ele>
        <time>2022-09-26T11:41:29Z</time>
      </trkpt>
      <trkpt lat="45.93197" lon="5.83454">
        <ele>268</ele>
        <time>2022-09-26T11:41:30Z</time>
      </trkpt>
      <trkpt lat="45.93196" lon="5.83465">
        <ele>267.5</ele>
        <time>2022-09-26T11:41:31Z</time>
      </trkpt>
      <trkpt lat="45.93197" lon="5.83475">
        <ele>267</ele>
        <time>2022-09-26T11:41:32Z</time>
      </trkpt>
      <trkpt lat="45.93196" lon="5.83486">
        <ele>266.4</ele>
        <time>2022-09-26T11:41:33Z</time>
      </trkpt>
      <trkpt lat="45.93197" lon="5.83498">
        <ele>265.8</ele>
        <time>2022-09-26T11:41:34Z</time>
      </trkpt>
      <trkpt lat="45.93197" lon="5.83507">
        <ele>265.4</ele>
        <time>2022-09-26T11:41:35Z</time>
      </trkpt>
      <trkpt lat="45.93197" lon="5.83516">
        <ele>265.1</ele>
        <time>2022-09-26T11:41:36Z</time>
      </trkpt>
      <trkpt lat="45.93198" lon="5.83526">
        <ele>264.8</ele>
        <time>2022-09-26T11:41:37Z</time>
      </trkpt>
      <trkpt lat="45.93197" lon="5.83536">
        <ele>264.5</ele>
        <time>2022-09-26T11:41:38Z</time>
      </trkpt>
      <trkpt lat="45.93198" lon="5.83544">
        <ele>264.3</ele>
        <time>2022-09-26T11:41:39Z</time>
      </trkpt>
      <trkpt lat="45.93197" lon="5.83553">
        <ele>264.2</ele>
        <time>2022-09-26T11:41:40Z</time>
      </trkpt>
      <trkpt lat="45.93198" lon="5.8356">
        <ele>264</ele>
        <time>2022-09-26T11:41:41Z</time>
      </trkpt>
      <trkpt lat="45.93198" lon="5.83568">
        <ele>263.9</ele>
        <time>2022-09-26T11:41:42Z</time>
      </trkpt>
      <trkpt lat="45.93199" lon="5.83575">
        <ele>263.8</ele>
        <time>2022-09-26T11:41:43Z</time>
      </trkpt>
      <trkpt lat="45.93199" lon="5.83582">
        <ele>263.6</ele>
        <time>2022-09-26T11:41:44Z</time>
      </trkpt>
      <trkpt lat="45.932" lon="5.83589">
        <ele>263.5</ele>
        <time>2022-09-26T11:41:45Z</time>
      </trkpt>
      <trkpt lat="45.93202" lon="5.83597">
        <ele>263.4</ele>
        <time>2022-09-26T11:41:46Z</time>
      </trkpt>
      <trkpt lat="45.93203" lon="5.83603">
        <ele>263.3</ele>
        <time>2022-09-26T11:41:47Z</time>
      </trkpt>
      <trkpt lat="45.93206" lon="5.83609">
        <ele>263.2</ele>
        <time>2022-09-26T11:41:48Z</time>
      </trkpt>
      <trkpt lat="45.93209" lon="5.83614">
        <ele>263.1</ele>
        <time>2022-09-26T11:41:49Z</time>
      </trkpt>
      <trkpt lat="45.93214" lon="5.83619">
        <ele>263</ele>
        <time>2022-09-26T11:41:50Z</time>
      </trkpt>
      <trkpt lat="45.93219" lon="5.83622">
        <ele>262.9</ele>
        <time>2022-09-26T11:41:51Z</time>
      </trkpt>
      <trkpt lat="45.93224" lon="5.83626">
        <ele>262.9</ele>
        <time>2022-09-26T11:41:52Z</time>
      </trkpt>
      <trkpt lat="45.93229" lon="5.83629">
        <ele>262.8</ele>
        <time>2022-09-26T11:41:53Z</time>
      </trkpt>
      <trkpt lat="45.93234" lon="5.83632">
        <ele>262.8</ele>
        <time>2022-09-26T11:41:54Z</time>
      </trkpt>
      <trkpt lat="45.93239" lon="5.83635">
        <ele>262.7</ele>
        <time>2022-09-26T11:41:55Z</time>
      </trkpt>
      <trkpt lat="45.93243" lon="5.83638">
        <ele>262.7</ele>
        <time>2022-09-26T11:41:56Z</time>
      </trkpt>
      <trkpt lat="45.93248" lon="5.83641">
        <ele>262.6</ele>
        <time>2022-09-26T11:41:57Z</time>
      </trkpt>
      <trkpt lat="45.93252" lon="5.83644">
        <ele>262.5</ele>
        <time>2022-09-26T11:41:58Z</time>
      </trkpt>
      <trkpt lat="45.93257" lon="5.83647">
        <ele>262.4</ele>
        <time>2022-09-26T11:41:59Z</time>
      </trkpt>
      <trkpt lat="45.93261" lon="5.8365">
        <ele>262.3</ele>
        <time>2022-09-26T11:42:00Z</time>
      </trkpt>
      <trkpt lat="45.93267" lon="5.83653">
        <ele>262.3</ele>
        <time>2022-09-26T11:42:01Z</time>
      </trkpt>
      <trkpt lat="45.9327" lon="5.83656">
        <ele>262.2</ele>
        <time>2022-09-26T11:42:02Z</time>
      </trkpt>
      <trkpt lat="45.93274" lon="5.83659">
        <ele>262.1</ele>
        <time>2022-09-26T11:42:03Z</time>
      </trkpt>
      <trkpt lat="45.93279" lon="5.83662">
        <ele>262</ele>
        <time>2022-09-26T11:42:04Z</time>
      </trkpt>
      <trkpt lat="45.93284" lon="5.83664">
        <ele>261.9</ele>
        <time>2022-09-26T11:42:05Z</time>
      </trkpt>
      <trkpt lat="45.93289" lon="5.83666">
        <ele>261.8</ele>
        <time>2022-09-26T11:42:06Z</time>
      </trkpt>
      <trkpt lat="45.93293" lon="5.83668">
        <ele>261.8</ele>
        <time>2022-09-26T11:42:07Z</time>
      </trkpt>
      <trkpt lat="45.93297" lon="5.83671">
        <ele>261.7</ele>
        <time>2022-09-26T11:42:08Z</time>
      </trkpt>
      <trkpt lat="45.93301" lon="5.83673">
        <ele>261.5</ele>
        <time>2022-09-26T11:42:09Z</time>
      </trkpt>
      <trkpt lat="45.93305" lon="5.83675">
        <ele>261.4</ele>
        <time>2022-09-26T11:42:10Z</time>
      </trkpt>
      <trkpt lat="45.93312" lon="5.83677">
        <ele>261.1</ele>
        <time>2022-09-26T11:42:11Z</time>
      </trkpt>
      <trkpt lat="45.93318" lon="5.83679">
        <ele>260.8</ele>
        <time>2022-09-26T11:42:12Z</time>
      </trkpt>
      <trkpt lat="45.93325" lon="5.83681">
        <ele>260.6</ele>
        <time>2022-09-26T11:42:13Z</time>
      </trkpt>
      <trkpt lat="45.93331" lon="5.83682">
        <ele>260.3</ele>
        <time>2022-09-26T11:42:14Z</time>
      </trkpt>
      <trkpt lat="45.93338" lon="5.83683">
        <ele>260.1</ele>
        <time>2022-09-26T11:42:15Z</time>
      </trkpt>
      <trkpt lat="45.93344" lon="5.83683">
        <ele>259.9</ele>
        <time>2022-09-26T11:42:16Z</time>
      </trkpt>
      <trkpt lat="45.9335" lon="5.83683">
        <ele>259.7</ele>
        <time>2022-09-26T11:42:17Z</time>
      </trkpt>
      <trkpt lat="45.93356" lon="5.83683">
        <ele>259.5</ele>
        <time>2022-09-26T11:42:18Z</time>
      </trkpt>
      <trkpt lat="45.93363" lon="5.83682">
        <ele>259.4</ele>
        <time>2022-09-26T11:42:19Z</time>
      </trkpt>
      <trkpt lat="45.93369" lon="5.83682">
        <ele>259.2</ele>
        <time>2022-09-26T11:42:20Z</time>
      </trkpt>
      <trkpt lat="45.93375" lon="5.83681">
        <ele>259.1</ele>
        <time>2022-09-26T11:42:21Z</time>
      </trkpt>
      <trkpt lat="45.93381" lon="5.8368">
        <ele>258.9</ele>
        <time>2022-09-26T11:42:22Z</time>
      </trkpt>
      <trkpt lat="45.93385" lon="5.8368">
        <ele>258.8</ele>
        <time>2022-09-26T11:42:23Z</time>
      </trkpt>
      <trkpt lat="45.93389" lon="5.8368">
        <ele>258.7</ele>
        <time>2022-09-26T11:42:24Z</time>
      </trkpt>
      <trkpt lat="45.93392" lon="5.8368">
        <ele>258.7</ele>
        <time>2022-09-26T11:42:25Z</time>
      </trkpt>
      <trkpt lat="45.93396" lon="5.83679">
        <ele>258.6</ele>
        <time>2022-09-26T11:42:26Z</time>
      </trkpt>
      <trkpt lat="45.93399" lon="5.83679">
        <ele>258.5</ele>
        <time>2022-09-26T11:42:27Z</time>
      </trkpt>
      <trkpt lat="45.93402" lon="5.83678">
        <ele>258.4</ele>
        <time>2022-09-26T11:42:28Z</time>
      </trkpt>
      <trkpt lat="45.93405" lon="5.83674">
        <ele>258.4</ele>
        <time>2022-09-26T11:42:29Z</time>
      </trkpt>
      <trkpt lat="45.93406" lon="5.83671">
        <ele>258.3</ele>
        <time>2022-09-26T11:42:30Z</time>
      </trkpt>
      <trkpt lat="45.93406" lon="5.83669">
        <ele>258.3</ele>
        <time>2022-09-26T11:42:31Z</time>
      </trkpt>
      <trkpt lat="45.93407" lon="5.83668">
        <ele>258.3</ele>
        <time>2022-09-26T11:42:32Z</time>
      </trkpt>
      <trkpt lat="45.93408" lon="5.83669">
        <ele>258.2</ele>
        <time>2022-09-26T11:42:33Z</time>
      </trkpt>
      <trkpt lat="45.93408" lon="5.83669">
        <ele>258.2</ele>
        <time>2022-09-26T11:42:34Z</time>
      </trkpt>
      <trkpt lat="45.93409" lon="5.8367">
        <ele>258.2</ele>
        <time>2022-09-26T11:42:35Z</time>
      </trkpt>
      <trkpt lat="45.9341" lon="5.8367">
        <ele>258.2</ele>
        <time>2022-09-26T11:42:36Z</time>
      </trkpt>
      <trkpt lat="45.9341" lon="5.83671">
        <ele>258.2</ele>
        <time>2022-09-26T11:42:37Z</time>
      </trkpt>
      <trkpt lat="45.93411" lon="5.83671">
        <ele>258.2</ele>
        <time>2022-09-26T11:42:38Z</time>
      </trkpt>
      <trkpt lat="45.93412" lon="5.83672">
        <ele>258.2</ele>
        <time>2022-09-26T11:42:39Z</time>
      </trkpt>
      <trkpt lat="45.93412" lon="5.83672">
        <ele>258.2</ele>
        <time>2022-09-26T11:42:40Z</time>
      </trkpt>
      <trkpt lat="45.93413" lon="5.83673">
        <ele>258.1</ele>
        <time>2022-09-26T11:42:41Z</time>
      </trkpt>
      <trkpt lat="45.93414" lon="5.83673">
        <ele>258.1</ele>
        <time>2022-09-26T11:42:42Z</time>
      </trkpt>
      <trkpt lat="45.93414" lon="5.83674">
        <ele>258.1</ele>
        <time>2022-09-26T11:42:43Z</time>
      </trkpt>
      <trkpt lat="45.93415" lon="5.83674">
        <ele>258.1</ele>
        <time>2022-09-26T11:43:37Z</time>
      </trkpt>
      <trkpt lat="45.93416" lon="5.83675">
        <ele>258.1</ele>
        <time>2022-09-26T11:43:38Z</time>
      </trkpt>
      <trkpt lat="45.93418" lon="5.83676">
        <ele>258.1</ele>
        <time>2022-09-26T11:43:39Z</time>
      </trkpt>
      <trkpt lat="45.93421" lon="5.83676">
        <ele>258</ele>
        <time>2022-09-26T11:43:40Z</time>
      </trkpt>
      <trkpt lat="45.93424" lon="5.83677">
        <ele>258</ele>
        <time>2022-09-26T11:43:41Z</time>
      </trkpt>
      <trkpt lat="45.93427" lon="5.83676">
        <ele>257.9</ele>
        <time>2022-09-26T11:43:42Z</time>
      </trkpt>
      <trkpt lat="45.93431" lon="5.83676">
        <ele>257.9</ele>
        <time>2022-09-26T11:43:43Z</time>
      </trkpt>
      <trkpt lat="45.93435" lon="5.83677">
        <ele>257.8</ele>
        <time>2022-09-26T11:43:44Z</time>
      </trkpt>
      <trkpt lat="45.93438" lon="5.83676">
        <ele>257.8</ele>
        <time>2022-09-26T11:43:45Z</time>
      </trkpt>
      <trkpt lat="45.93442" lon="5.83676">
        <ele>257.8</ele>
        <time>2022-09-26T11:43:46Z</time>
      </trkpt>
      <trkpt lat="45.93445" lon="5.83675">
        <ele>257.7</ele>
        <time>2022-09-26T11:43:47Z</time>
      </trkpt>
      <trkpt lat="45.93449" lon="5.83674">
        <ele>257.7</ele>
        <time>2022-09-26T11:43:48Z</time>
      </trkpt>
      <trkpt lat="45.93452" lon="5.83674">
        <ele>257.7</ele>
        <time>2022-09-26T11:43:49Z</time>
      </trkpt>
      <trkpt lat="45.93454" lon="5.83671">
        <ele>257.6</ele>
        <time>2022-09-26T11:43:50Z</time>
      </trkpt>
      <trkpt lat="45.93456" lon="5.83667">
        <ele>257.6</ele>
        <time>2022-09-26T11:43:51Z</time>
      </trkpt>
      <trkpt lat="45.93456" lon="5.83663">
        <ele>257.6</ele>
        <time>2022-09-26T11:43:52Z</time>
      </trkpt>
      <trkpt lat="45.93457" lon="5.83657">
        <ele>257.5</ele>
        <time>2022-09-26T11:43:53Z</time>
      </trkpt>
      <trkpt lat="45.93457" lon="5.83655">
        <ele>257.5</ele>
        <time>2022-09-26T11:43:54Z</time>
      </trkpt>
      <trkpt lat="45.93458" lon="5.83651">
        <ele>257.4</ele>
        <time>2022-09-26T11:43:55Z</time>
      </trkpt>
      <trkpt lat="45.93458" lon="5.83646">
        <ele>257.4</ele>
        <time>2022-09-26T11:43:56Z</time>
      </trkpt>
      <trkpt lat="45.93457" lon="5.83641">
        <ele>257.3</ele>
        <time>2022-09-26T11:43:57Z</time>
      </trkpt>
      <trkpt lat="45.93458" lon="5.83636">
        <ele>257.3</ele>
        <time>2022-09-26T11:43:58Z</time>
      </trkpt>
      <trkpt lat="45.93457" lon="5.83631">
        <ele>257.2</ele>
        <time>2022-09-26T11:43:59Z</time>
      </trkpt>
      <trkpt lat="45.93457" lon="5.83627">
        <ele>257.2</ele>
        <time>2022-09-26T11:44:00Z</time>
      </trkpt>
      <trkpt lat="45.93457" lon="5.83622">
        <ele>257.2</ele>
        <time>2022-09-26T11:44:01Z</time>
      </trkpt>
      <trkpt lat="45.93457" lon="5.83616">
        <ele>257.2</ele>
        <time>2022-09-26T11:44:02Z</time>
      </trkpt>
      <trkpt lat="45.93457" lon="5.83611">
        <ele>257.2</ele>
        <time>2022-09-26T11:44:03Z</time>
      </trkpt>
      <trkpt lat="45.93457" lon="5.83606">
        <ele>257.2</ele>
        <time>2022-09-26T11:44:04Z</time>
      </trkpt>
      <trkpt lat="45.93456" lon="5.836">
        <ele>257.1</ele>
        <time>2022-09-26T11:44:05Z</time>
      </trkpt>
      <trkpt lat="45.93456" lon="5.83594">
        <ele>257.1</ele>
        <time>2022-09-26T11:44:06Z</time>
      </trkpt>
      <trkpt lat="45.93456" lon="5.8359">
        <ele>257.1</ele>
        <time>2022-09-26T11:44:07Z</time>
      </trkpt>
      <trkpt lat="45.93456" lon="5.83584">
        <ele>257.1</ele>
        <time>2022-09-26T11:44:08Z</time>
      </trkpt>
      <trkpt lat="45.93456" lon="5.83578">
        <ele>257.1</ele>
        <time>2022-09-26T11:44:09Z</time>
      </trkpt>
      <trkpt lat="45.93456" lon="5.83573">
        <ele>257.1</ele>
        <time>2022-09-26T11:44:10Z</time>
      </trkpt>
      <trkpt lat="45.93455" lon="5.83568">
        <ele>257.1</ele>
        <time>2022-09-26T11:44:11Z</time>
      </trkpt>
      <trkpt lat="45.93455" lon="5.83562">
        <ele>257</ele>
        <time>2022-09-26T11:44:12Z</time>
      </trkpt>
      <trkpt lat="45.93455" lon="5.83557">
        <ele>257</ele>
        <time>2022-09-26T11:44:13Z</time>
      </trkpt>
      <trkpt lat="45.93455" lon="5.83552">
        <ele>257</ele>
        <time>2022-09-26T11:44:14Z</time>
      </trkpt>
      <trkpt lat="45.93455" lon="5.83546">
        <ele>257</ele>
        <time>2022-09-26T11:44:15Z</time>
      </trkpt>
      <trkpt lat="45.93454" lon="5.8354">
        <ele>257</ele>
        <time>2022-09-26T11:44:16Z</time>
      </trkpt>
      <trkpt lat="45.93453" lon="5.83534">
        <ele>256.9</ele>
        <time>2022-09-26T11:44:17Z</time>
      </trkpt>
      <trkpt lat="45.93453" lon="5.83528">
        <ele>256.9</ele>
        <time>2022-09-26T11:44:18Z</time>
      </trkpt>
      <trkpt lat="45.93453" lon="5.83523">
        <ele>256.9</ele>
        <time>2022-09-26T11:44:19Z</time>
      </trkpt>
      <trkpt lat="45.93456" lon="5.83518">
        <ele>256.9</ele>
        <time>2022-09-26T11:44:20Z</time>
      </trkpt>
      <trkpt lat="45.93457" lon="5.83516">
        <ele>256.8</ele>
        <time>2022-09-26T11:44:21Z</time>
      </trkpt>
      <trkpt lat="45.93461" lon="5.83515">
        <ele>256.8</ele>
        <time>2022-09-26T11:44:22Z</time>
      </trkpt>
      <trkpt lat="45.93464" lon="5.83514">
        <ele>256.8</ele>
        <time>2022-09-26T11:44:23Z</time>
      </trkpt>
      <trkpt lat="45.93468" lon="5.83515">
        <ele>256.8</ele>
        <time>2022-09-26T11:44:25Z</time>
      </trkpt>
      <trkpt lat="45.93471" lon="5.83516">
        <ele>256.8</ele>
        <time>2022-09-26T11:44:26Z</time>
      </trkpt>
      <trkpt lat="45.93474" lon="5.83514">
        <ele>256.8</ele>
        <time>2022-09-26T11:44:27Z</time>
      </trkpt>
      <trkpt lat="45.93478" lon="5.83512">
        <ele>256.8</ele>
        <time>2022-09-26T11:44:28Z</time>
      </trkpt>
      <trkpt lat="45.93481" lon="5.8351">
        <ele>256.8</ele>
        <time>2022-09-26T11:44:29Z</time>
      </trkpt>
      <trkpt lat="45.93486" lon="5.83505">
        <ele>256.8</ele>
        <time>2022-09-26T11:44:30Z</time>
      </trkpt>
      <trkpt lat="45.93489" lon="5.83503">
        <ele>256.8</ele>
        <time>2022-09-26T11:44:31Z</time>
      </trkpt>
      <trkpt lat="45.93492" lon="5.83498">
        <ele>256.8</ele>
        <time>2022-09-26T11:44:33Z</time>
      </trkpt>
      <trkpt lat="45.93492" lon="5.83496">
        <ele>256.8</ele>
        <time>2022-09-26T11:44:34Z</time>
      </trkpt>
      <trkpt lat="45.93495" lon="5.83491">
        <ele>256.8</ele>
        <time>2022-09-26T11:44:35Z</time>
      </trkpt>
      <trkpt lat="45.93497" lon="5.83482">
        <ele>256.8</ele>
        <time>2022-09-26T11:44:36Z</time>
      </trkpt>
      <trkpt lat="45.93499" lon="5.83477">
        <ele>256.8</ele>
        <time>2022-09-26T11:44:37Z</time>
      </trkpt>
      <trkpt lat="45.93501" lon="5.83472">
        <ele>256.8</ele>
        <time>2022-09-26T11:44:38Z</time>
      </trkpt>
      <trkpt lat="45.93503" lon="5.83467">
        <ele>256.7</ele>
        <time>2022-09-26T11:44:39Z</time>
      </trkpt>
      <trkpt lat="45.93506" lon="5.83462">
        <ele>256.7</ele>
        <time>2022-09-26T11:44:40Z</time>
      </trkpt>
      <trkpt lat="45.9351" lon="5.83458">
        <ele>256.7</ele>
        <time>2022-09-26T11:44:41Z</time>
      </trkpt>
      <trkpt lat="45.93514" lon="5.83454">
        <ele>256.6</ele>
        <time>2022-09-26T11:44:42Z</time>
      </trkpt>
      <trkpt lat="45.93517" lon="5.83449">
        <ele>256.5</ele>
        <time>2022-09-26T11:44:43Z</time>
      </trkpt>
      <trkpt lat="45.93521" lon="5.83447">
        <ele>256.5</ele>
        <time>2022-09-26T11:44:44Z</time>
      </trkpt>
      <trkpt lat="45.93525" lon="5.83445">
        <ele>256.4</ele>
        <time>2022-09-26T11:44:45Z</time>
      </trkpt>
      <trkpt lat="45.93529" lon="5.8344">
        <ele>256.4</ele>
        <time>2022-09-26T11:44:46Z</time>
      </trkpt>
      <trkpt lat="45.93535" lon="5.83436">
        <ele>256.3</ele>
        <time>2022-09-26T11:44:47Z</time>
      </trkpt>
      <trkpt lat="45.93538" lon="5.83431">
        <ele>256.3</ele>
        <time>2022-09-26T11:44:48Z</time>
      </trkpt>
      <trkpt lat="45.93541" lon="5.83425">
        <ele>256.2</ele>
        <time>2022-09-26T11:44:49Z</time>
      </trkpt>
      <trkpt lat="45.93545" lon="5.83422">
        <ele>256.2</ele>
        <time>2022-09-26T11:44:50Z</time>
      </trkpt>
      <trkpt lat="45.93549" lon="5.83417">
        <ele>256.1</ele>
        <time>2022-09-26T11:44:51Z</time>
      </trkpt>
      <trkpt lat="45.93552" lon="5.83413">
        <ele>256.1</ele>
        <time>2022-09-26T11:44:52Z</time>
      </trkpt>
      <trkpt lat="45.93556" lon="5.83408">
        <ele>256.1</ele>
        <time>2022-09-26T11:44:53Z</time>
      </trkpt>
      <trkpt lat="45.9356" lon="5.83404">
        <ele>256.1</ele>
        <time>2022-09-26T11:44:54Z</time>
      </trkpt>
      <trkpt lat="45.93563" lon="5.83401">
        <ele>256.1</ele>
        <time>2022-09-26T11:44:55Z</time>
      </trkpt>
      <trkpt lat="45.93567" lon="5.83396">
        <ele>256.1</ele>
        <time>2022-09-26T11:44:56Z</time>
      </trkpt>
      <trkpt lat="45.93571" lon="5.83393">
        <ele>256.1</ele>
        <time>2022-09-26T11:44:57Z</time>
      </trkpt>
      <trkpt lat="45.93574" lon="5.83391">
        <ele>256</ele>
        <time>2022-09-26T11:44:58Z</time>
      </trkpt>
      <trkpt lat="45.93578" lon="5.83387">
        <ele>256</ele>
        <time>2022-09-26T11:44:59Z</time>
      </trkpt>
      <trkpt lat="45.93583" lon="5.83384">
        <ele>256</ele>
        <time>2022-09-26T11:45:00Z</time>
      </trkpt>
      <trkpt lat="45.93587" lon="5.83381">
        <ele>256</ele>
        <time>2022-09-26T11:45:01Z</time>
      </trkpt>
      <trkpt lat="45.93591" lon="5.83378">
        <ele>256</ele>
        <time>2022-09-26T11:45:02Z</time>
      </trkpt>
      <trkpt lat="45.93595" lon="5.83374">
        <ele>256</ele>
        <time>2022-09-26T11:45:03Z</time>
      </trkpt>
      <trkpt lat="45.93601" lon="5.83371">
        <ele>256</ele>
        <time>2022-09-26T11:45:04Z</time>
      </trkpt>
      <trkpt lat="45.93604" lon="5.83367">
        <ele>256</ele>
        <time>2022-09-26T11:45:05Z</time>
      </trkpt>
      <trkpt lat="45.93609" lon="5.83364">
        <ele>256</ele>
        <time>2022-09-26T11:45:06Z</time>
      </trkpt>
      <trkpt lat="45.93613" lon="5.83362">
        <ele>256</ele>
        <time>2022-09-26T11:45:07Z</time>
      </trkpt>
      <trkpt lat="45.93618" lon="5.8336">
        <ele>256</ele>
        <time>2022-09-26T11:45:08Z</time>
      </trkpt>
      <trkpt lat="45.93622" lon="5.83356">
        <ele>256</ele>
        <time>2022-09-26T11:45:09Z</time>
      </trkpt>
      <trkpt lat="45.93626" lon="5.83353">
        <ele>256</ele>
        <time>2022-09-26T11:45:10Z</time>
      </trkpt>
      <trkpt lat="45.9363" lon="5.83351">
        <ele>256</ele>
        <time>2022-09-26T11:45:11Z</time>
      </trkpt>
      <trkpt lat="45.93634" lon="5.83348">
        <ele>256</ele>
        <time>2022-09-26T11:45:12Z</time>
      </trkpt>
      <trkpt lat="45.93638" lon="5.83346">
        <ele>256</ele>
        <time>2022-09-26T11:45:13Z</time>
      </trkpt>
      <trkpt lat="45.93643" lon="5.83344">
        <ele>256.1</ele>
        <time>2022-09-26T11:45:14Z</time>
      </trkpt>
      <trkpt lat="45.93648" lon="5.83342">
        <ele>256.1</ele>
        <time>2022-09-26T11:45:15Z</time>
      </trkpt>
      <trkpt lat="45.93651" lon="5.8334">
        <ele>256.1</ele>
        <time>2022-09-26T11:45:16Z</time>
      </trkpt>
      <trkpt lat="45.93657" lon="5.83338">
        <ele>256.1</ele>
        <time>2022-09-26T11:45:17Z</time>
      </trkpt>
      <trkpt lat="45.93661" lon="5.83337">
        <ele>256.1</ele>
        <time>2022-09-26T11:45:18Z</time>
      </trkpt>
      <trkpt lat="45.93666" lon="5.83335">
        <ele>256.1</ele>
        <time>2022-09-26T11:45:19Z</time>
      </trkpt>
      <trkpt lat="45.93671" lon="5.83333">
        <ele>256.1</ele>
        <time>2022-09-26T11:45:20Z</time>
      </trkpt>
      <trkpt lat="45.93675" lon="5.83332">
        <ele>256.1</ele>
        <time>2022-09-26T11:45:21Z</time>
      </trkpt>
      <trkpt lat="45.9368" lon="5.83331">
        <ele>256.1</ele>
        <time>2022-09-26T11:45:22Z</time>
      </trkpt>
      <trkpt lat="45.93685" lon="5.8333">
        <ele>256.2</ele>
        <time>2022-09-26T11:45:23Z</time>
      </trkpt>
      <trkpt lat="45.9369" lon="5.83329">
        <ele>256.2</ele>
        <time>2022-09-26T11:45:24Z</time>
      </trkpt>
      <trkpt lat="45.93694" lon="5.83329">
        <ele>256.2</ele>
        <time>2022-09-26T11:45:25Z</time>
      </trkpt>
      <trkpt lat="45.937" lon="5.83328">
        <ele>256.2</ele>
        <time>2022-09-26T11:45:26Z</time>
      </trkpt>
      <trkpt lat="45.93704" lon="5.83328">
        <ele>256.2</ele>
        <time>2022-09-26T11:45:27Z</time>
      </trkpt>
      <trkpt lat="45.9371" lon="5.83328">
        <ele>256.2</ele>
        <time>2022-09-26T11:45:28Z</time>
      </trkpt>
      <trkpt lat="45.93715" lon="5.83329">
        <ele>256.2</ele>
        <time>2022-09-26T11:45:29Z</time>
      </trkpt>
      <trkpt lat="45.9372" lon="5.83327">
        <ele>256.2</ele>
        <time>2022-09-26T11:45:30Z</time>
      </trkpt>
      <trkpt lat="45.93725" lon="5.8333">
        <ele>256.2</ele>
        <time>2022-09-26T11:45:31Z</time>
      </trkpt>
      <trkpt lat="45.93731" lon="5.8333">
        <ele>256.2</ele>
        <time>2022-09-26T11:45:32Z</time>
      </trkpt>
      <trkpt lat="45.93737" lon="5.83331">
        <ele>256.2</ele>
        <time>2022-09-26T11:45:33Z</time>
      </trkpt>
      <trkpt lat="45.93742" lon="5.83332">
        <ele>256.2</ele>
        <time>2022-09-26T11:45:34Z</time>
      </trkpt>
      <trkpt lat="45.93747" lon="5.83332">
        <ele>256.2</ele>
        <time>2022-09-26T11:45:35Z</time>
      </trkpt>
      <trkpt lat="45.93752" lon="5.83333">
        <ele>256.2</ele>
        <time>2022-09-26T11:45:36Z</time>
      </trkpt>
      <trkpt lat="45.93758" lon="5.83335">
        <ele>256.2</ele>
        <time>2022-09-26T11:45:37Z</time>
      </trkpt>
      <trkpt lat="45.93762" lon="5.83335">
        <ele>256.3</ele>
        <time>2022-09-26T11:45:38Z</time>
      </trkpt>
      <trkpt lat="45.93768" lon="5.83337">
        <ele>256.3</ele>
        <time>2022-09-26T11:45:39Z</time>
      </trkpt>
      <trkpt lat="45.93774" lon="5.83338">
        <ele>256.3</ele>
        <time>2022-09-26T11:45:40Z</time>
      </trkpt>
      <trkpt lat="45.93779" lon="5.8334">
        <ele>256.3</ele>
        <time>2022-09-26T11:45:41Z</time>
      </trkpt>
      <trkpt lat="45.93784" lon="5.83341">
        <ele>256.2</ele>
        <time>2022-09-26T11:45:42Z</time>
      </trkpt>
      <trkpt lat="45.93789" lon="5.83342">
        <ele>256.2</ele>
        <time>2022-09-26T11:45:43Z</time>
      </trkpt>
      <trkpt lat="45.93795" lon="5.83344">
        <ele>256.2</ele>
        <time>2022-09-26T11:45:44Z</time>
      </trkpt>
      <trkpt lat="45.938" lon="5.83345">
        <ele>256.2</ele>
        <time>2022-09-26T11:45:45Z</time>
      </trkpt>
      <trkpt lat="45.93804" lon="5.83347">
        <ele>256.2</ele>
        <time>2022-09-26T11:45:46Z</time>
      </trkpt>
      <trkpt lat="45.9381" lon="5.83348">
        <ele>256.2</ele>
        <time>2022-09-26T11:45:47Z</time>
      </trkpt>
      <trkpt lat="45.93815" lon="5.83349">
        <ele>256.2</ele>
        <time>2022-09-26T11:45:48Z</time>
      </trkpt>
      <trkpt lat="45.9382" lon="5.83351">
        <ele>256.2</ele>
        <time>2022-09-26T11:45:49Z</time>
      </trkpt>
      <trkpt lat="45.93826" lon="5.83352">
        <ele>256.2</ele>
        <time>2022-09-26T11:45:50Z</time>
      </trkpt>
      <trkpt lat="45.93831" lon="5.83354">
        <ele>256.2</ele>
        <time>2022-09-26T11:45:51Z</time>
      </trkpt>
      <trkpt lat="45.93836" lon="5.83355">
        <ele>256.2</ele>
        <time>2022-09-26T11:45:52Z</time>
      </trkpt>
      <trkpt lat="45.93841" lon="5.83358">
        <ele>256.2</ele>
        <time>2022-09-26T11:45:53Z</time>
      </trkpt>
      <trkpt lat="45.93846" lon="5.83359">
        <ele>256.2</ele>
        <time>2022-09-26T11:45:54Z</time>
      </trkpt>
      <trkpt lat="45.93851" lon="5.8336">
        <ele>256.2</ele>
        <time>2022-09-26T11:45:55Z</time>
      </trkpt>
      <trkpt lat="45.93856" lon="5.83362">
        <ele>256.2</ele>
        <time>2022-09-26T11:45:56Z</time>
      </trkpt>
      <trkpt lat="45.93862" lon="5.83364">
        <ele>256.2</ele>
        <time>2022-09-26T11:45:57Z</time>
      </trkpt>
      <trkpt lat="45.93867" lon="5.83366">
        <ele>256.2</ele>
        <time>2022-09-26T11:45:58Z</time>
      </trkpt>
      <trkpt lat="45.93872" lon="5.83367">
        <ele>256.2</ele>
        <time>2022-09-26T11:45:59Z</time>
      </trkpt>
      <trkpt lat="45.93878" lon="5.8337">
        <ele>256.1</ele>
        <time>2022-09-26T11:46:00Z</time>
      </trkpt>
      <trkpt lat="45.93883" lon="5.83371">
        <ele>256.1</ele>
        <time>2022-09-26T11:46:01Z</time>
      </trkpt>
      <trkpt lat="45.93888" lon="5.83373">
        <ele>256.1</ele>
        <time>2022-09-26T11:46:02Z</time>
      </trkpt>
      <trkpt lat="45.93894" lon="5.83374">
        <ele>256.1</ele>
        <time>2022-09-26T11:46:03Z</time>
      </trkpt>
      <trkpt lat="45.93899" lon="5.83377">
        <ele>256.1</ele>
        <time>2022-09-26T11:46:04Z</time>
      </trkpt>
      <trkpt lat="45.93904" lon="5.83379">
        <ele>256.1</ele>
        <time>2022-09-26T11:46:05Z</time>
      </trkpt>
      <trkpt lat="45.9391" lon="5.8338">
        <ele>256.1</ele>
        <time>2022-09-26T11:46:06Z</time>
      </trkpt>
      <trkpt lat="45.93914" lon="5.83382">
        <ele>256.1</ele>
        <time>2022-09-26T11:46:07Z</time>
      </trkpt>
      <trkpt lat="45.93919" lon="5.83384">
        <ele>256.1</ele>
        <time>2022-09-26T11:46:08Z</time>
      </trkpt>
      <trkpt lat="45.93925" lon="5.83386">
        <ele>256.1</ele>
        <time>2022-09-26T11:46:09Z</time>
      </trkpt>
      <trkpt lat="45.9393" lon="5.83388">
        <ele>256.1</ele>
        <time>2022-09-26T11:46:10Z</time>
      </trkpt>
      <trkpt lat="45.93935" lon="5.8339">
        <ele>256.1</ele>
        <time>2022-09-26T11:46:11Z</time>
      </trkpt>
      <trkpt lat="45.93941" lon="5.83392">
        <ele>256.1</ele>
        <time>2022-09-26T11:46:12Z</time>
      </trkpt>
      <trkpt lat="45.93946" lon="5.83395">
        <ele>256.1</ele>
        <time>2022-09-26T11:46:13Z</time>
      </trkpt>
      <trkpt lat="45.93951" lon="5.83396">
        <ele>256.1</ele>
        <time>2022-09-26T11:46:14Z</time>
      </trkpt>
      <trkpt lat="45.93957" lon="5.83399">
        <ele>256.1</ele>
        <time>2022-09-26T11:46:15Z</time>
      </trkpt>
      <trkpt lat="45.93961" lon="5.834">
        <ele>256.1</ele>
        <time>2022-09-26T11:46:16Z</time>
      </trkpt>
      <trkpt lat="45.93967" lon="5.83403">
        <ele>256.1</ele>
        <time>2022-09-26T11:46:17Z</time>
      </trkpt>
      <trkpt lat="45.93973" lon="5.83405">
        <ele>256.1</ele>
        <time>2022-09-26T11:46:18Z</time>
      </trkpt>
      <trkpt lat="45.93978" lon="5.83408">
        <ele>256.1</ele>
        <time>2022-09-26T11:46:19Z</time>
      </trkpt>
      <trkpt lat="45.93983" lon="5.8341">
        <ele>256.1</ele>
        <time>2022-09-26T11:46:20Z</time>
      </trkpt>
      <trkpt lat="45.93988" lon="5.83412">
        <ele>256.1</ele>
        <time>2022-09-26T11:46:21Z</time>
      </trkpt>
      <trkpt lat="45.93994" lon="5.83415">
        <ele>256.2</ele>
        <time>2022-09-26T11:46:22Z</time>
      </trkpt>
      <trkpt lat="45.93999" lon="5.83417">
        <ele>256.2</ele>
        <time>2022-09-26T11:46:23Z</time>
      </trkpt>
      <trkpt lat="45.94004" lon="5.83419">
        <ele>256.2</ele>
        <time>2022-09-26T11:46:24Z</time>
      </trkpt>
      <trkpt lat="45.94009" lon="5.83422">
        <ele>256.2</ele>
        <time>2022-09-26T11:46:25Z</time>
      </trkpt>
      <trkpt lat="45.94014" lon="5.83424">
        <ele>256.2</ele>
        <time>2022-09-26T11:46:26Z</time>
      </trkpt>
      <trkpt lat="45.94019" lon="5.83426">
        <ele>256.2</ele>
        <time>2022-09-26T11:46:27Z</time>
      </trkpt>
      <trkpt lat="45.94024" lon="5.83429">
        <ele>256.2</ele>
        <time>2022-09-26T11:46:28Z</time>
      </trkpt>
      <trkpt lat="45.94029" lon="5.83431">
        <ele>256.2</ele>
        <time>2022-09-26T11:46:29Z</time>
      </trkpt>
      <trkpt lat="45.94034" lon="5.83433">
        <ele>256.2</ele>
        <time>2022-09-26T11:46:30Z</time>
      </trkpt>
      <trkpt lat="45.94039" lon="5.83436">
        <ele>256.2</ele>
        <time>2022-09-26T11:46:31Z</time>
      </trkpt>
      <trkpt lat="45.94044" lon="5.83438">
        <ele>256.2</ele>
        <time>2022-09-26T11:46:32Z</time>
      </trkpt>
      <trkpt lat="45.94049" lon="5.83441">
        <ele>256.2</ele>
        <time>2022-09-26T11:46:33Z</time>
      </trkpt>
      <trkpt lat="45.94054" lon="5.83443">
        <ele>256.2</ele>
        <time>2022-09-26T11:46:34Z</time>
      </trkpt>
      <trkpt lat="45.94059" lon="5.83446">
        <ele>256.2</ele>
        <time>2022-09-26T11:46:35Z</time>
      </trkpt>
      <trkpt lat="45.94064" lon="5.83449">
        <ele>256.2</ele>
        <time>2022-09-26T11:46:36Z</time>
      </trkpt>
      <trkpt lat="45.94068" lon="5.83452">
        <ele>256.2</ele>
        <time>2022-09-26T11:46:37Z</time>
      </trkpt>
      <trkpt lat="45.94073" lon="5.83455">
        <ele>256.2</ele>
        <time>2022-09-26T11:46:38Z</time>
      </trkpt>
      <trkpt lat="45.94078" lon="5.83458">
        <ele>256.2</ele>
        <time>2022-09-26T11:46:39Z</time>
      </trkpt>
      <trkpt lat="45.94084" lon="5.8346">
        <ele>256.2</ele>
        <time>2022-09-26T11:46:40Z</time>
      </trkpt>
      <trkpt lat="45.94089" lon="5.83461">
        <ele>256.2</ele>
        <time>2022-09-26T11:46:41Z</time>
      </trkpt>
      <trkpt lat="45.94093" lon="5.83463">
        <ele>256.2</ele>
        <time>2022-09-26T11:46:42Z</time>
      </trkpt>
      <trkpt lat="45.94098" lon="5.83465">
        <ele>256.2</ele>
        <time>2022-09-26T11:46:43Z</time>
      </trkpt>
      <trkpt lat="45.94103" lon="5.83468">
        <ele>256.2</ele>
        <time>2022-09-26T11:46:44Z</time>
      </trkpt>
      <trkpt lat="45.94107" lon="5.83472">
        <ele>256.2</ele>
        <time>2022-09-26T11:46:45Z</time>
      </trkpt>
      <trkpt lat="45.94111" lon="5.83475">
        <ele>256.2</ele>
        <time>2022-09-26T11:46:47Z</time>
      </trkpt>
      <trkpt lat="45.94117" lon="5.83476">
        <ele>256.2</ele>
        <time>2022-09-26T11:46:48Z</time>
      </trkpt>
      <trkpt lat="45.94122" lon="5.83479">
        <ele>256.2</ele>
        <time>2022-09-26T11:46:49Z</time>
      </trkpt>
      <trkpt lat="45.94126" lon="5.83482">
        <ele>256.2</ele>
        <time>2022-09-26T11:46:50Z</time>
      </trkpt>
      <trkpt lat="45.94132" lon="5.83484">
        <ele>256.2</ele>
        <time>2022-09-26T11:46:51Z</time>
      </trkpt>
      <trkpt lat="45.94142" lon="5.8349">
        <ele>256.2</ele>
        <time>2022-09-26T11:46:52Z</time>
      </trkpt>
      <trkpt lat="45.94146" lon="5.83492">
        <ele>256.2</ele>
        <time>2022-09-26T11:46:53Z</time>
      </trkpt>
      <trkpt lat="45.94151" lon="5.83495">
        <ele>256.3</ele>
        <time>2022-09-26T11:46:54Z</time>
      </trkpt>
      <trkpt lat="45.94156" lon="5.83498">
        <ele>256.3</ele>
        <time>2022-09-26T11:46:55Z</time>
      </trkpt>
      <trkpt lat="45.9416" lon="5.83501">
        <ele>256.3</ele>
        <time>2022-09-26T11:46:56Z</time>
      </trkpt>
      <trkpt lat="45.94165" lon="5.83504">
        <ele>256.3</ele>
        <time>2022-09-26T11:46:57Z</time>
      </trkpt>
      <trkpt lat="45.9417" lon="5.83507">
        <ele>256.3</ele>
        <time>2022-09-26T11:46:58Z</time>
      </trkpt>
      <trkpt lat="45.94175" lon="5.8351">
        <ele>256.3</ele>
        <time>2022-09-26T11:46:59Z</time>
      </trkpt>
      <trkpt lat="45.9418" lon="5.83512">
        <ele>256.3</ele>
        <time>2022-09-26T11:47:00Z</time>
      </trkpt>
      <trkpt lat="45.94184" lon="5.83515">
        <ele>256.3</ele>
        <time>2022-09-26T11:47:01Z</time>
      </trkpt>
      <trkpt lat="45.94189" lon="5.83519">
        <ele>256.2</ele>
        <time>2022-09-26T11:47:02Z</time>
      </trkpt>
      <trkpt lat="45.94194" lon="5.83521">
        <ele>256.2</ele>
        <time>2022-09-26T11:47:03Z</time>
      </trkpt>
      <trkpt lat="45.94199" lon="5.83524">
        <ele>256.2</ele>
        <time>2022-09-26T11:47:04Z</time>
      </trkpt>
      <trkpt lat="45.94204" lon="5.83528">
        <ele>256.2</ele>
        <time>2022-09-26T11:47:05Z</time>
      </trkpt>
      <trkpt lat="45.9421" lon="5.83532">
        <ele>256.1</ele>
        <time>2022-09-26T11:47:06Z</time>
      </trkpt>
      <trkpt lat="45.94215" lon="5.83536">
        <ele>256.1</ele>
        <time>2022-09-26T11:47:07Z</time>
      </trkpt>
      <trkpt lat="45.9422" lon="5.83539">
        <ele>256.1</ele>
        <time>2022-09-26T11:47:08Z</time>
      </trkpt>
      <trkpt lat="45.94225" lon="5.83542">
        <ele>256.1</ele>
        <time>2022-09-26T11:47:09Z</time>
      </trkpt>
      <trkpt lat="45.9423" lon="5.83546">
        <ele>256.1</ele>
        <time>2022-09-26T11:47:10Z</time>
      </trkpt>
      <trkpt lat="45.94234" lon="5.83549">
        <ele>256.1</ele>
        <time>2022-09-26T11:47:11Z</time>
      </trkpt>
      <trkpt lat="45.94238" lon="5.83553">
        <ele>256.1</ele>
        <time>2022-09-26T11:47:12Z</time>
      </trkpt>
      <trkpt lat="45.94244" lon="5.83557">
        <ele>256.1</ele>
        <time>2022-09-26T11:47:13Z</time>
      </trkpt>
      <trkpt lat="45.9425" lon="5.83561">
        <ele>256.1</ele>
        <time>2022-09-26T11:47:14Z</time>
      </trkpt>
      <trkpt lat="45.94255" lon="5.83564">
        <ele>256</ele>
        <time>2022-09-26T11:47:15Z</time>
      </trkpt>
      <trkpt lat="45.94258" lon="5.83569">
        <ele>256</ele>
        <time>2022-09-26T11:47:16Z</time>
      </trkpt>
      <trkpt lat="45.94263" lon="5.83572">
        <ele>256</ele>
        <time>2022-09-26T11:47:17Z</time>
      </trkpt>
      <trkpt lat="45.94268" lon="5.83577">
        <ele>256</ele>
        <time>2022-09-26T11:47:18Z</time>
      </trkpt>
      <trkpt lat="45.94274" lon="5.83581">
        <ele>256.1</ele>
        <time>2022-09-26T11:47:19Z</time>
      </trkpt>
      <trkpt lat="45.94278" lon="5.83585">
        <ele>256.1</ele>
        <time>2022-09-26T11:47:20Z</time>
      </trkpt>
      <trkpt lat="45.94281" lon="5.83589">
        <ele>256.1</ele>
        <time>2022-09-26T11:47:21Z</time>
      </trkpt>
      <trkpt lat="45.94285" lon="5.83593">
        <ele>256.1</ele>
        <time>2022-09-26T11:47:22Z</time>
      </trkpt>
      <trkpt lat="45.94289" lon="5.83597">
        <ele>256.1</ele>
        <time>2022-09-26T11:47:23Z</time>
      </trkpt>
      <trkpt lat="45.94293" lon="5.83601">
        <ele>256.1</ele>
        <time>2022-09-26T11:47:24Z</time>
      </trkpt>
      <trkpt lat="45.94296" lon="5.83605">
        <ele>256.1</ele>
        <time>2022-09-26T11:47:25Z</time>
      </trkpt>
      <trkpt lat="45.943" lon="5.83609">
        <ele>256.2</ele>
        <time>2022-09-26T11:47:26Z</time>
      </trkpt>
      <trkpt lat="45.94304" lon="5.83614">
        <ele>256.2</ele>
        <time>2022-09-26T11:47:27Z</time>
      </trkpt>
      <trkpt lat="45.94309" lon="5.83618">
        <ele>256.2</ele>
        <time>2022-09-26T11:47:28Z</time>
      </trkpt>
      <trkpt lat="45.94312" lon="5.83623">
        <ele>256.2</ele>
        <time>2022-09-26T11:47:29Z</time>
      </trkpt>
      <trkpt lat="45.94316" lon="5.83627">
        <ele>256.2</ele>
        <time>2022-09-26T11:47:30Z</time>
      </trkpt>
      <trkpt lat="45.94321" lon="5.8363">
        <ele>256.2</ele>
        <time>2022-09-26T11:47:31Z</time>
      </trkpt>
      <trkpt lat="45.94324" lon="5.83635">
        <ele>256.2</ele>
        <time>2022-09-26T11:47:32Z</time>
      </trkpt>
      <trkpt lat="45.94327" lon="5.83638">
        <ele>256.2</ele>
        <time>2022-09-26T11:47:33Z</time>
      </trkpt>
      <trkpt lat="45.94331" lon="5.83642">
        <ele>256.2</ele>
        <time>2022-09-26T11:47:34Z</time>
      </trkpt>
      <trkpt lat="45.94335" lon="5.83646">
        <ele>256.2</ele>
        <time>2022-09-26T11:47:35Z</time>
      </trkpt>
      <trkpt lat="45.9434" lon="5.8365">
        <ele>256.2</ele>
        <time>2022-09-26T11:47:36Z</time>
      </trkpt>
      <trkpt lat="45.94343" lon="5.83653">
        <ele>256.2</ele>
        <time>2022-09-26T11:47:37Z</time>
      </trkpt>
      <trkpt lat="45.94347" lon="5.83657">
        <ele>256.3</ele>
        <time>2022-09-26T11:47:38Z</time>
      </trkpt>
      <trkpt lat="45.94351" lon="5.83661">
        <ele>256.3</ele>
        <time>2022-09-26T11:47:39Z</time>
      </trkpt>
      <trkpt lat="45.94355" lon="5.83666">
        <ele>256.3</ele>
        <time>2022-09-26T11:47:40Z</time>
      </trkpt>
      <trkpt lat="45.94359" lon="5.83669">
        <ele>256.3</ele>
        <time>2022-09-26T11:47:41Z</time>
      </trkpt>
      <trkpt lat="45.94364" lon="5.8367">
        <ele>256.3</ele>
        <time>2022-09-26T11:47:42Z</time>
      </trkpt>
      <trkpt lat="45.94368" lon="5.83673">
        <ele>256.3</ele>
        <time>2022-09-26T11:47:43Z</time>
      </trkpt>
      <trkpt lat="45.94373" lon="5.83676">
        <ele>256.3</ele>
        <time>2022-09-26T11:47:44Z</time>
      </trkpt>
      <trkpt lat="45.94378" lon="5.83678">
        <ele>256.4</ele>
        <time>2022-09-26T11:47:45Z</time>
      </trkpt>
      <trkpt lat="45.9438" lon="5.83681">
        <ele>256.4</ele>
        <time>2022-09-26T11:47:46Z</time>
      </trkpt>
      <trkpt lat="45.94384" lon="5.83684">
        <ele>256.4</ele>
        <time>2022-09-26T11:47:47Z</time>
      </trkpt>
      <trkpt lat="45.9439" lon="5.83686">
        <ele>256.4</ele>
        <time>2022-09-26T11:47:48Z</time>
      </trkpt>
      <trkpt lat="45.94393" lon="5.83689">
        <ele>256.4</ele>
        <time>2022-09-26T11:47:49Z</time>
      </trkpt>
      <trkpt lat="45.94398" lon="5.83691">
        <ele>256.4</ele>
        <time>2022-09-26T11:47:50Z</time>
      </trkpt>
      <trkpt lat="45.94402" lon="5.83694">
        <ele>256.4</ele>
        <time>2022-09-26T11:47:51Z</time>
      </trkpt>
      <trkpt lat="45.94407" lon="5.83697">
        <ele>256.4</ele>
        <time>2022-09-26T11:47:52Z</time>
      </trkpt>
      <trkpt lat="45.94412" lon="5.83698">
        <ele>256.4</ele>
        <time>2022-09-26T11:47:53Z</time>
      </trkpt>
      <trkpt lat="45.94416" lon="5.83701">
        <ele>256.4</ele>
        <time>2022-09-26T11:47:54Z</time>
      </trkpt>
      <trkpt lat="45.94422" lon="5.83704">
        <ele>256.4</ele>
        <time>2022-09-26T11:47:55Z</time>
      </trkpt>
      <trkpt lat="45.94427" lon="5.83706">
        <ele>256.4</ele>
        <time>2022-09-26T11:47:56Z</time>
      </trkpt>
      <trkpt lat="45.94432" lon="5.83709">
        <ele>256.4</ele>
        <time>2022-09-26T11:47:57Z</time>
      </trkpt>
      <trkpt lat="45.94435" lon="5.83712">
        <ele>256.4</ele>
        <time>2022-09-26T11:47:58Z</time>
      </trkpt>
      <trkpt lat="45.94439" lon="5.83714">
        <ele>256.4</ele>
        <time>2022-09-26T11:47:59Z</time>
      </trkpt>
      <trkpt lat="45.94443" lon="5.83716">
        <ele>256.4</ele>
        <time>2022-09-26T11:48:00Z</time>
      </trkpt>
      <trkpt lat="45.94448" lon="5.83719">
        <ele>256.3</ele>
        <time>2022-09-26T11:48:01Z</time>
      </trkpt>
      <trkpt lat="45.94453" lon="5.83722">
        <ele>256.3</ele>
        <time>2022-09-26T11:48:02Z</time>
      </trkpt>
      <trkpt lat="45.94458" lon="5.83724">
        <ele>256.3</ele>
        <time>2022-09-26T11:48:03Z</time>
      </trkpt>
      <trkpt lat="45.94463" lon="5.83726">
        <ele>256.3</ele>
        <time>2022-09-26T11:48:04Z</time>
      </trkpt>
      <trkpt lat="45.94467" lon="5.83729">
        <ele>256.2</ele>
        <time>2022-09-26T11:48:05Z</time>
      </trkpt>
      <trkpt lat="45.94472" lon="5.83731">
        <ele>256.2</ele>
        <time>2022-09-26T11:48:06Z</time>
      </trkpt>
      <trkpt lat="45.94477" lon="5.83733">
        <ele>256.2</ele>
        <time>2022-09-26T11:48:07Z</time>
      </trkpt>
      <trkpt lat="45.94482" lon="5.83735">
        <ele>256.2</ele>
        <time>2022-09-26T11:48:08Z</time>
      </trkpt>
      <trkpt lat="45.94488" lon="5.83737">
        <ele>256.1</ele>
        <time>2022-09-26T11:48:09Z</time>
      </trkpt>
      <trkpt lat="45.94494" lon="5.83737">
        <ele>256.1</ele>
        <time>2022-09-26T11:48:10Z</time>
      </trkpt>
      <trkpt lat="45.945" lon="5.83738">
        <ele>256.1</ele>
        <time>2022-09-26T11:48:11Z</time>
      </trkpt>
      <trkpt lat="45.94506" lon="5.83739">
        <ele>256.1</ele>
        <time>2022-09-26T11:48:12Z</time>
      </trkpt>
      <trkpt lat="45.94511" lon="5.83739">
        <ele>256.1</ele>
        <time>2022-09-26T11:48:13Z</time>
      </trkpt>
      <trkpt lat="45.94518" lon="5.8374">
        <ele>256.1</ele>
        <time>2022-09-26T11:48:14Z</time>
      </trkpt>
      <trkpt lat="45.94524" lon="5.8374">
        <ele>256.1</ele>
        <time>2022-09-26T11:48:15Z</time>
      </trkpt>
      <trkpt lat="45.9453" lon="5.83741">
        <ele>256.1</ele>
        <time>2022-09-26T11:48:16Z</time>
      </trkpt>
      <trkpt lat="45.94535" lon="5.83743">
        <ele>256.1</ele>
        <time>2022-09-26T11:48:17Z</time>
      </trkpt>
      <trkpt lat="45.94541" lon="5.83743">
        <ele>256.1</ele>
        <time>2022-09-26T11:48:18Z</time>
      </trkpt>
      <trkpt lat="45.94547" lon="5.83743">
        <ele>256.1</ele>
        <time>2022-09-26T11:48:19Z</time>
      </trkpt>
      <trkpt lat="45.94552" lon="5.83745">
        <ele>256.1</ele>
        <time>2022-09-26T11:48:20Z</time>
      </trkpt>
      <trkpt lat="45.94558" lon="5.83746">
        <ele>256.1</ele>
        <time>2022-09-26T11:48:21Z</time>
      </trkpt>
      <trkpt lat="45.94564" lon="5.83746">
        <ele>256.1</ele>
        <time>2022-09-26T11:48:22Z</time>
      </trkpt>
      <trkpt lat="45.94568" lon="5.83747">
        <ele>256.1</ele>
        <time>2022-09-26T11:48:23Z</time>
      </trkpt>
      <trkpt lat="45.94573" lon="5.83748">
        <ele>256.2</ele>
        <time>2022-09-26T11:48:24Z</time>
      </trkpt>
      <trkpt lat="45.94579" lon="5.83749">
        <ele>256.2</ele>
        <time>2022-09-26T11:48:25Z</time>
      </trkpt>
      <trkpt lat="45.94585" lon="5.8375">
        <ele>256.2</ele>
        <time>2022-09-26T11:48:26Z</time>
      </trkpt>
      <trkpt lat="45.94592" lon="5.83749">
        <ele>256.2</ele>
        <time>2022-09-26T11:48:27Z</time>
      </trkpt>
      <trkpt lat="45.94597" lon="5.83751">
        <ele>256.2</ele>
        <time>2022-09-26T11:48:28Z</time>
      </trkpt>
      <trkpt lat="45.94603" lon="5.83751">
        <ele>256.2</ele>
        <time>2022-09-26T11:48:29Z</time>
      </trkpt>
      <trkpt lat="45.94608" lon="5.83752">
        <ele>256.2</ele>
        <time>2022-09-26T11:48:30Z</time>
      </trkpt>
      <trkpt lat="45.94614" lon="5.83752">
        <ele>256.2</ele>
        <time>2022-09-26T11:48:31Z</time>
      </trkpt>
      <trkpt lat="45.9462" lon="5.83752">
        <ele>256.3</ele>
        <time>2022-09-26T11:48:32Z</time>
      </trkpt>
      <trkpt lat="45.94626" lon="5.83752">
        <ele>256.3</ele>
        <time>2022-09-26T11:48:33Z</time>
      </trkpt>
      <trkpt lat="45.94632" lon="5.83753">
        <ele>256.3</ele>
        <time>2022-09-26T11:48:34Z</time>
      </trkpt>
      <trkpt lat="45.94637" lon="5.83753">
        <ele>256.3</ele>
        <time>2022-09-26T11:48:35Z</time>
      </trkpt>
      <trkpt lat="45.94642" lon="5.83754">
        <ele>256.2</ele>
        <time>2022-09-26T11:48:36Z</time>
      </trkpt>
      <trkpt lat="45.94648" lon="5.83753">
        <ele>256.2</ele>
        <time>2022-09-26T11:48:37Z</time>
      </trkpt>
      <trkpt lat="45.94654" lon="5.83754">
        <ele>256.2</ele>
        <time>2022-09-26T11:48:38Z</time>
      </trkpt>
      <trkpt lat="45.94659" lon="5.83753">
        <ele>256.2</ele>
        <time>2022-09-26T11:48:39Z</time>
      </trkpt>
      <trkpt lat="45.94665" lon="5.83753">
        <ele>256.2</ele>
        <time>2022-09-26T11:48:40Z</time>
      </trkpt>
      <trkpt lat="45.9467" lon="5.83753">
        <ele>256.2</ele>
        <time>2022-09-26T11:48:41Z</time>
      </trkpt>
      <trkpt lat="45.94676" lon="5.83753">
        <ele>256.3</ele>
        <time>2022-09-26T11:48:42Z</time>
      </trkpt>
      <trkpt lat="45.94682" lon="5.83753">
        <ele>256.3</ele>
        <time>2022-09-26T11:48:43Z</time>
      </trkpt>
      <trkpt lat="45.94687" lon="5.83752">
        <ele>256.3</ele>
        <time>2022-09-26T11:48:44Z</time>
      </trkpt>
      <trkpt lat="45.94693" lon="5.83752">
        <ele>256.3</ele>
        <time>2022-09-26T11:48:45Z</time>
      </trkpt>
      <trkpt lat="45.94698" lon="5.83753">
        <ele>256.3</ele>
        <time>2022-09-26T11:48:46Z</time>
      </trkpt>
      <trkpt lat="45.94703" lon="5.83752">
        <ele>256.3</ele>
        <time>2022-09-26T11:48:47Z</time>
      </trkpt>
      <trkpt lat="45.94708" lon="5.83751">
        <ele>256.3</ele>
        <time>2022-09-26T11:48:48Z</time>
      </trkpt>
      <trkpt lat="45.94714" lon="5.83751">
        <ele>256.3</ele>
        <time>2022-09-26T11:48:49Z</time>
      </trkpt>
      <trkpt lat="45.9472" lon="5.83751">
        <ele>256.3</ele>
        <time>2022-09-26T11:48:50Z</time>
      </trkpt>
      <trkpt lat="45.94725" lon="5.83751">
        <ele>256.3</ele>
        <time>2022-09-26T11:48:51Z</time>
      </trkpt>
      <trkpt lat="45.9473" lon="5.8375">
        <ele>256.3</ele>
        <time>2022-09-26T11:48:52Z</time>
      </trkpt>
      <trkpt lat="45.94736" lon="5.8375">
        <ele>256.3</ele>
        <time>2022-09-26T11:48:53Z</time>
      </trkpt>
      <trkpt lat="45.94742" lon="5.83748">
        <ele>256.3</ele>
        <time>2022-09-26T11:48:54Z</time>
      </trkpt>
      <trkpt lat="45.94747" lon="5.83747">
        <ele>256.3</ele>
        <time>2022-09-26T11:48:55Z</time>
      </trkpt>
      <trkpt lat="45.94753" lon="5.83746">
        <ele>256.3</ele>
        <time>2022-09-26T11:48:56Z</time>
      </trkpt>
      <trkpt lat="45.94758" lon="5.83746">
        <ele>256.3</ele>
        <time>2022-09-26T11:48:57Z</time>
      </trkpt>
      <trkpt lat="45.94763" lon="5.83745">
        <ele>256.3</ele>
        <time>2022-09-26T11:48:58Z</time>
      </trkpt>
      <trkpt lat="45.94768" lon="5.83744">
        <ele>256.3</ele>
        <time>2022-09-26T11:48:59Z</time>
      </trkpt>
      <trkpt lat="45.94773" lon="5.83744">
        <ele>256.3</ele>
        <time>2022-09-26T11:49:00Z</time>
      </trkpt>
      <trkpt lat="45.94778" lon="5.83743">
        <ele>256.3</ele>
        <time>2022-09-26T11:49:01Z</time>
      </trkpt>
      <trkpt lat="45.94783" lon="5.83742">
        <ele>256.3</ele>
        <time>2022-09-26T11:49:02Z</time>
      </trkpt>
      <trkpt lat="45.94789" lon="5.83741">
        <ele>256.3</ele>
        <time>2022-09-26T11:49:03Z</time>
      </trkpt>
      <trkpt lat="45.94794" lon="5.83741">
        <ele>256.3</ele>
        <time>2022-09-26T11:49:04Z</time>
      </trkpt>
      <trkpt lat="45.948" lon="5.8374">
        <ele>256.3</ele>
        <time>2022-09-26T11:49:05Z</time>
      </trkpt>
      <trkpt lat="45.94805" lon="5.8374">
        <ele>256.3</ele>
        <time>2022-09-26T11:49:06Z</time>
      </trkpt>
      <trkpt lat="45.94811" lon="5.83739">
        <ele>256.3</ele>
        <time>2022-09-26T11:49:07Z</time>
      </trkpt>
      <trkpt lat="45.94816" lon="5.83738">
        <ele>256.3</ele>
        <time>2022-09-26T11:49:08Z</time>
      </trkpt>
      <trkpt lat="45.94821" lon="5.83737">
        <ele>256.2</ele>
        <time>2022-09-26T11:49:09Z</time>
      </trkpt>
      <trkpt lat="45.94827" lon="5.83737">
        <ele>256.2</ele>
        <time>2022-09-26T11:49:10Z</time>
      </trkpt>
      <trkpt lat="45.94832" lon="5.83737">
        <ele>256.2</ele>
        <time>2022-09-26T11:49:11Z</time>
      </trkpt>
      <trkpt lat="45.94837" lon="5.83736">
        <ele>256.2</ele>
        <time>2022-09-26T11:49:12Z</time>
      </trkpt>
      <trkpt lat="45.94842" lon="5.83733">
        <ele>256.1</ele>
        <time>2022-09-26T11:49:13Z</time>
      </trkpt>
      <trkpt lat="45.94847" lon="5.83732">
        <ele>256.1</ele>
        <time>2022-09-26T11:49:14Z</time>
      </trkpt>
      <trkpt lat="45.94852" lon="5.83731">
        <ele>256.1</ele>
        <time>2022-09-26T11:49:15Z</time>
      </trkpt>
      <trkpt lat="45.94858" lon="5.83731">
        <ele>256.1</ele>
        <time>2022-09-26T11:49:16Z</time>
      </trkpt>
      <trkpt lat="45.94863" lon="5.83731">
        <ele>256.1</ele>
        <time>2022-09-26T11:49:17Z</time>
      </trkpt>
      <trkpt lat="45.94869" lon="5.83731">
        <ele>256.1</ele>
        <time>2022-09-26T11:49:18Z</time>
      </trkpt>
      <trkpt lat="45.94873" lon="5.8373">
        <ele>256.1</ele>
        <time>2022-09-26T11:49:19Z</time>
      </trkpt>
      <trkpt lat="45.94879" lon="5.83729">
        <ele>256.1</ele>
        <time>2022-09-26T11:49:20Z</time>
      </trkpt>
      <trkpt lat="45.94883" lon="5.83729">
        <ele>256.1</ele>
        <time>2022-09-26T11:49:21Z</time>
      </trkpt>
      <trkpt lat="45.94889" lon="5.83728">
        <ele>256.1</ele>
        <time>2022-09-26T11:49:22Z</time>
      </trkpt>
      <trkpt lat="45.94894" lon="5.83727">
        <ele>256.1</ele>
        <time>2022-09-26T11:49:23Z</time>
      </trkpt>
      <trkpt lat="45.94899" lon="5.83726">
        <ele>256.1</ele>
        <time>2022-09-26T11:49:24Z</time>
      </trkpt>
      <trkpt lat="45.94904" lon="5.83725">
        <ele>256.1</ele>
        <time>2022-09-26T11:49:25Z</time>
      </trkpt>
      <trkpt lat="45.9491" lon="5.83724">
        <ele>256.1</ele>
        <time>2022-09-26T11:49:26Z</time>
      </trkpt>
      <trkpt lat="45.94914" lon="5.83722">
        <ele>256.1</ele>
        <time>2022-09-26T11:49:27Z</time>
      </trkpt>
      <trkpt lat="45.94919" lon="5.83722">
        <ele>256.1</ele>
        <time>2022-09-26T11:49:28Z</time>
      </trkpt>
      <trkpt lat="45.94924" lon="5.83721">
        <ele>256.1</ele>
        <time>2022-09-26T11:49:29Z</time>
      </trkpt>
      <trkpt lat="45.94928" lon="5.8372">
        <ele>256.1</ele>
        <time>2022-09-26T11:49:30Z</time>
      </trkpt>
      <trkpt lat="45.94934" lon="5.83719">
        <ele>256.2</ele>
        <time>2022-09-26T11:49:31Z</time>
      </trkpt>
      <trkpt lat="45.9494" lon="5.83718">
        <ele>256.2</ele>
        <time>2022-09-26T11:49:32Z</time>
      </trkpt>
      <trkpt lat="45.94945" lon="5.83716">
        <ele>256.2</ele>
        <time>2022-09-26T11:49:33Z</time>
      </trkpt>
      <trkpt lat="45.94951" lon="5.83715">
        <ele>256.2</ele>
        <time>2022-09-26T11:49:34Z</time>
      </trkpt>
      <trkpt lat="45.94956" lon="5.83714">
        <ele>256.2</ele>
        <time>2022-09-26T11:49:35Z</time>
      </trkpt>
      <trkpt lat="45.94961" lon="5.83713">
        <ele>256.2</ele>
        <time>2022-09-26T11:49:36Z</time>
      </trkpt>
      <trkpt lat="45.94967" lon="5.83711">
        <ele>256.2</ele>
        <time>2022-09-26T11:49:37Z</time>
      </trkpt>
      <trkpt lat="45.94972" lon="5.8371">
        <ele>256.2</ele>
        <time>2022-09-26T11:49:38Z</time>
      </trkpt>
      <trkpt lat="45.94978" lon="5.83709">
        <ele>256.2</ele>
        <time>2022-09-26T11:49:39Z</time>
      </trkpt>
      <trkpt lat="45.94982" lon="5.83707">
        <ele>256.2</ele>
        <time>2022-09-26T11:49:40Z</time>
      </trkpt>
      <trkpt lat="45.94987" lon="5.83706">
        <ele>256.2</ele>
        <time>2022-09-26T11:49:41Z</time>
      </trkpt>
      <trkpt lat="45.94993" lon="5.83705">
        <ele>256.2</ele>
        <time>2022-09-26T11:49:42Z</time>
      </trkpt>
      <trkpt lat="45.94998" lon="5.83703">
        <ele>256.2</ele>
        <time>2022-09-26T11:49:43Z</time>
      </trkpt>
      <trkpt lat="45.95003" lon="5.83701">
        <ele>256.2</ele>
        <time>2022-09-26T11:49:44Z</time>
      </trkpt>
      <trkpt lat="45.95008" lon="5.83697">
        <ele>256.2</ele>
        <time>2022-09-26T11:49:45Z</time>
      </trkpt>
      <trkpt lat="45.95014" lon="5.83696">
        <ele>256.2</ele>
        <time>2022-09-26T11:49:46Z</time>
      </trkpt>
      <trkpt lat="45.9502" lon="5.83696">
        <ele>256.2</ele>
        <time>2022-09-26T11:49:47Z</time>
      </trkpt>
      <trkpt lat="45.95025" lon="5.83693">
        <ele>256.2</ele>
        <time>2022-09-26T11:49:48Z</time>
      </trkpt>
      <trkpt lat="45.9503" lon="5.83691">
        <ele>256.2</ele>
        <time>2022-09-26T11:49:49Z</time>
      </trkpt>
      <trkpt lat="45.95036" lon="5.8369">
        <ele>256.2</ele>
        <time>2022-09-26T11:49:50Z</time>
      </trkpt>
      <trkpt lat="45.95041" lon="5.83688">
        <ele>256.3</ele>
        <time>2022-09-26T11:49:51Z</time>
      </trkpt>
      <trkpt lat="45.95046" lon="5.83686">
        <ele>256.3</ele>
        <time>2022-09-26T11:49:52Z</time>
      </trkpt>
      <trkpt lat="45.95053" lon="5.83684">
        <ele>256.3</ele>
        <time>2022-09-26T11:49:53Z</time>
      </trkpt>
      <trkpt lat="45.95058" lon="5.83682">
        <ele>256.3</ele>
        <time>2022-09-26T11:49:54Z</time>
      </trkpt>
      <trkpt lat="45.95063" lon="5.8368">
        <ele>256.3</ele>
        <time>2022-09-26T11:49:55Z</time>
      </trkpt>
      <trkpt lat="45.95069" lon="5.83679">
        <ele>256.3</ele>
        <time>2022-09-26T11:49:56Z</time>
      </trkpt>
      <trkpt lat="45.95075" lon="5.83677">
        <ele>256.3</ele>
        <time>2022-09-26T11:49:57Z</time>
      </trkpt>
      <trkpt lat="45.9508" lon="5.83675">
        <ele>256.3</ele>
        <time>2022-09-26T11:49:58Z</time>
      </trkpt>
      <trkpt lat="45.95085" lon="5.83674">
        <ele>256.3</ele>
        <time>2022-09-26T11:49:59Z</time>
      </trkpt>
      <trkpt lat="45.9509" lon="5.8367">
        <ele>256.3</ele>
        <time>2022-09-26T11:50:00Z</time>
      </trkpt>
      <trkpt lat="45.95095" lon="5.83668">
        <ele>256.3</ele>
        <time>2022-09-26T11:50:01Z</time>
      </trkpt>
      <trkpt lat="45.95101" lon="5.83665">
        <ele>256.3</ele>
        <time>2022-09-26T11:50:02Z</time>
      </trkpt>
      <trkpt lat="45.95106" lon="5.83663">
        <ele>256.3</ele>
        <time>2022-09-26T11:50:03Z</time>
      </trkpt>
      <trkpt lat="45.95111" lon="5.83661">
        <ele>256.3</ele>
        <time>2022-09-26T11:50:04Z</time>
      </trkpt>
      <trkpt lat="45.95117" lon="5.83658">
        <ele>256.2</ele>
        <time>2022-09-26T11:50:05Z</time>
      </trkpt>
      <trkpt lat="45.95122" lon="5.83657">
        <ele>256.2</ele>
        <time>2022-09-26T11:50:06Z</time>
      </trkpt>
      <trkpt lat="45.95128" lon="5.83654">
        <ele>256.2</ele>
        <time>2022-09-26T11:50:07Z</time>
      </trkpt>
      <trkpt lat="45.95134" lon="5.83652">
        <ele>256.2</ele>
        <time>2022-09-26T11:50:08Z</time>
      </trkpt>
      <trkpt lat="45.95139" lon="5.83649">
        <ele>256.2</ele>
        <time>2022-09-26T11:50:09Z</time>
      </trkpt>
      <trkpt lat="45.95144" lon="5.83648">
        <ele>256.2</ele>
        <time>2022-09-26T11:50:10Z</time>
      </trkpt>
      <trkpt lat="45.9515" lon="5.83645">
        <ele>256.1</ele>
        <time>2022-09-26T11:50:11Z</time>
      </trkpt>
      <trkpt lat="45.95155" lon="5.83643">
        <ele>256.1</ele>
        <time>2022-09-26T11:50:12Z</time>
      </trkpt>
      <trkpt lat="45.95161" lon="5.83641">
        <ele>256.1</ele>
        <time>2022-09-26T11:50:13Z</time>
      </trkpt>
      <trkpt lat="45.95166" lon="5.83637">
        <ele>256.1</ele>
        <time>2022-09-26T11:50:14Z</time>
      </trkpt>
      <trkpt lat="45.95172" lon="5.83635">
        <ele>256.1</ele>
        <time>2022-09-26T11:50:15Z</time>
      </trkpt>
      <trkpt lat="45.95177" lon="5.83633">
        <ele>256.2</ele>
        <time>2022-09-26T11:50:16Z</time>
      </trkpt>
      <trkpt lat="45.95182" lon="5.8363">
        <ele>256.2</ele>
        <time>2022-09-26T11:50:17Z</time>
      </trkpt>
      <trkpt lat="45.95187" lon="5.83627">
        <ele>256.2</ele>
        <time>2022-09-26T11:50:18Z</time>
      </trkpt>
      <trkpt lat="45.95192" lon="5.83625">
        <ele>256.2</ele>
        <time>2022-09-26T11:50:19Z</time>
      </trkpt>
      <trkpt lat="45.95197" lon="5.83622">
        <ele>256.2</ele>
        <time>2022-09-26T11:50:20Z</time>
      </trkpt>
      <trkpt lat="45.95202" lon="5.83621">
        <ele>256.2</ele>
        <time>2022-09-26T11:50:21Z</time>
      </trkpt>
      <trkpt lat="45.95207" lon="5.83618">
        <ele>256.2</ele>
        <time>2022-09-26T11:50:22Z</time>
      </trkpt>
      <trkpt lat="45.95213" lon="5.83616">
        <ele>256.2</ele>
        <time>2022-09-26T11:50:23Z</time>
      </trkpt>
      <trkpt lat="45.95217" lon="5.83613">
        <ele>256.2</ele>
        <time>2022-09-26T11:50:24Z</time>
      </trkpt>
      <trkpt lat="45.95222" lon="5.83611">
        <ele>256.2</ele>
        <time>2022-09-26T11:50:25Z</time>
      </trkpt>
      <trkpt lat="45.95228" lon="5.83608">
        <ele>256.2</ele>
        <time>2022-09-26T11:50:26Z</time>
      </trkpt>
      <trkpt lat="45.95232" lon="5.83605">
        <ele>256.2</ele>
        <time>2022-09-26T11:50:27Z</time>
      </trkpt>
      <trkpt lat="45.95237" lon="5.83604">
        <ele>256.2</ele>
        <time>2022-09-26T11:50:28Z</time>
      </trkpt>
      <trkpt lat="45.95242" lon="5.83602">
        <ele>256.2</ele>
        <time>2022-09-26T11:50:29Z</time>
      </trkpt>
      <trkpt lat="45.95247" lon="5.836">
        <ele>256.2</ele>
        <time>2022-09-26T11:50:30Z</time>
      </trkpt>
      <trkpt lat="45.95252" lon="5.83597">
        <ele>256.2</ele>
        <time>2022-09-26T11:50:31Z</time>
      </trkpt>
      <trkpt lat="45.95258" lon="5.83595">
        <ele>256.2</ele>
        <time>2022-09-26T11:50:32Z</time>
      </trkpt>
      <trkpt lat="45.95263" lon="5.83593">
        <ele>256.2</ele>
        <time>2022-09-26T11:50:33Z</time>
      </trkpt>
      <trkpt lat="45.95268" lon="5.83591">
        <ele>256.2</ele>
        <time>2022-09-26T11:50:34Z</time>
      </trkpt>
      <trkpt lat="45.95273" lon="5.83589">
        <ele>256.2</ele>
        <time>2022-09-26T11:50:35Z</time>
      </trkpt>
      <trkpt lat="45.95279" lon="5.83586">
        <ele>256.2</ele>
        <time>2022-09-26T11:50:36Z</time>
      </trkpt>
      <trkpt lat="45.95284" lon="5.83585">
        <ele>256.2</ele>
        <time>2022-09-26T11:50:37Z</time>
      </trkpt>
      <trkpt lat="45.95289" lon="5.83582">
        <ele>256.2</ele>
        <time>2022-09-26T11:50:38Z</time>
      </trkpt>
      <trkpt lat="45.95294" lon="5.83579">
        <ele>256.2</ele>
        <time>2022-09-26T11:50:39Z</time>
      </trkpt>
      <trkpt lat="45.95299" lon="5.83577">
        <ele>256.3</ele>
        <time>2022-09-26T11:50:40Z</time>
      </trkpt>
      <trkpt lat="45.95304" lon="5.83575">
        <ele>256.3</ele>
        <time>2022-09-26T11:50:41Z</time>
      </trkpt>
      <trkpt lat="45.95309" lon="5.83574">
        <ele>256.3</ele>
        <time>2022-09-26T11:50:42Z</time>
      </trkpt>
      <trkpt lat="45.95314" lon="5.83572">
        <ele>256.3</ele>
        <time>2022-09-26T11:50:43Z</time>
      </trkpt>
      <trkpt lat="45.95318" lon="5.83569">
        <ele>256.3</ele>
        <time>2022-09-26T11:50:44Z</time>
      </trkpt>
      <trkpt lat="45.95323" lon="5.83568">
        <ele>256.4</ele>
        <time>2022-09-26T11:50:45Z</time>
      </trkpt>
      <trkpt lat="45.95327" lon="5.83564">
        <ele>256.4</ele>
        <time>2022-09-26T11:50:46Z</time>
      </trkpt>
      <trkpt lat="45.95331" lon="5.83564">
        <ele>256.4</ele>
        <time>2022-09-26T11:50:47Z</time>
      </trkpt>
      <trkpt lat="45.95337" lon="5.83562">
        <ele>256.4</ele>
        <time>2022-09-26T11:50:48Z</time>
      </trkpt>
      <trkpt lat="45.95341" lon="5.83559">
        <ele>256.4</ele>
        <time>2022-09-26T11:50:49Z</time>
      </trkpt>
      <trkpt lat="45.95347" lon="5.83557">
        <ele>256.4</ele>
        <time>2022-09-26T11:50:50Z</time>
      </trkpt>
      <trkpt lat="45.95352" lon="5.83556">
        <ele>256.4</ele>
        <time>2022-09-26T11:50:51Z</time>
      </trkpt>
      <trkpt lat="45.95356" lon="5.83554">
        <ele>256.4</ele>
        <time>2022-09-26T11:50:52Z</time>
      </trkpt>
      <trkpt lat="45.95362" lon="5.83552">
        <ele>256.4</ele>
        <time>2022-09-26T11:50:53Z</time>
      </trkpt>
      <trkpt lat="45.95366" lon="5.8355">
        <ele>256.4</ele>
        <time>2022-09-26T11:50:54Z</time>
      </trkpt>
      <trkpt lat="45.95371" lon="5.83549">
        <ele>256.4</ele>
        <time>2022-09-26T11:50:55Z</time>
      </trkpt>
      <trkpt lat="45.95376" lon="5.83547">
        <ele>256.4</ele>
        <time>2022-09-26T11:50:56Z</time>
      </trkpt>
      <trkpt lat="45.9538" lon="5.83546">
        <ele>256.5</ele>
        <time>2022-09-26T11:50:57Z</time>
      </trkpt>
      <trkpt lat="45.95385" lon="5.83545">
        <ele>256.5</ele>
        <time>2022-09-26T11:50:58Z</time>
      </trkpt>
      <trkpt lat="45.9539" lon="5.83545">
        <ele>256.5</ele>
        <time>2022-09-26T11:50:59Z</time>
      </trkpt>
      <trkpt lat="45.95395" lon="5.83543">
        <ele>256.5</ele>
        <time>2022-09-26T11:51:00Z</time>
      </trkpt>
      <trkpt lat="45.954" lon="5.83543">
        <ele>256.5</ele>
        <time>2022-09-26T11:51:01Z</time>
      </trkpt>
      <trkpt lat="45.95404" lon="5.83542">
        <ele>256.5</ele>
        <time>2022-09-26T11:51:02Z</time>
      </trkpt>
      <trkpt lat="45.95409" lon="5.8354">
        <ele>256.5</ele>
        <time>2022-09-26T11:51:03Z</time>
      </trkpt>
      <trkpt lat="45.95413" lon="5.83538">
        <ele>256.5</ele>
        <time>2022-09-26T11:51:04Z</time>
      </trkpt>
      <trkpt lat="45.95417" lon="5.83536">
        <ele>256.4</ele>
        <time>2022-09-26T11:51:05Z</time>
      </trkpt>
      <trkpt lat="45.95422" lon="5.83533">
        <ele>256.4</ele>
        <time>2022-09-26T11:51:06Z</time>
      </trkpt>
      <trkpt lat="45.95426" lon="5.8353">
        <ele>256.4</ele>
        <time>2022-09-26T11:51:07Z</time>
      </trkpt>
      <trkpt lat="45.9543" lon="5.8353">
        <ele>256.4</ele>
        <time>2022-09-26T11:51:08Z</time>
      </trkpt>
      <trkpt lat="45.95434" lon="5.83529">
        <ele>256.3</ele>
        <time>2022-09-26T11:51:09Z</time>
      </trkpt>
      <trkpt lat="45.95438" lon="5.83527">
        <ele>256.3</ele>
        <time>2022-09-26T11:51:10Z</time>
      </trkpt>
      <trkpt lat="45.95444" lon="5.83524">
        <ele>256.3</ele>
        <time>2022-09-26T11:51:11Z</time>
      </trkpt>
      <trkpt lat="45.95449" lon="5.83522">
        <ele>256.3</ele>
        <time>2022-09-26T11:51:12Z</time>
      </trkpt>
      <trkpt lat="45.95454" lon="5.8352">
        <ele>256.3</ele>
        <time>2022-09-26T11:51:13Z</time>
      </trkpt>
      <trkpt lat="45.95459" lon="5.83518">
        <ele>256.2</ele>
        <time>2022-09-26T11:51:14Z</time>
      </trkpt>
      <trkpt lat="45.95464" lon="5.83515">
        <ele>256.2</ele>
        <time>2022-09-26T11:51:15Z</time>
      </trkpt>
      <trkpt lat="45.95469" lon="5.83513">
        <ele>256.2</ele>
        <time>2022-09-26T11:51:16Z</time>
      </trkpt>
      <trkpt lat="45.95474" lon="5.83511">
        <ele>256.2</ele>
        <time>2022-09-26T11:51:17Z</time>
      </trkpt>
      <trkpt lat="45.95478" lon="5.83509">
        <ele>256.2</ele>
        <time>2022-09-26T11:51:18Z</time>
      </trkpt>
      <trkpt lat="45.95483" lon="5.83507">
        <ele>256.2</ele>
        <time>2022-09-26T11:51:19Z</time>
      </trkpt>
      <trkpt lat="45.95488" lon="5.83505">
        <ele>256.2</ele>
        <time>2022-09-26T11:51:20Z</time>
      </trkpt>
      <trkpt lat="45.95493" lon="5.83503">
        <ele>256.2</ele>
        <time>2022-09-26T11:51:21Z</time>
      </trkpt>
      <trkpt lat="45.95498" lon="5.835">
        <ele>256.2</ele>
        <time>2022-09-26T11:51:22Z</time>
      </trkpt>
      <trkpt lat="45.95502" lon="5.83499">
        <ele>256.2</ele>
        <time>2022-09-26T11:51:23Z</time>
      </trkpt>
      <trkpt lat="45.95506" lon="5.83498">
        <ele>256.3</ele>
        <time>2022-09-26T11:51:24Z</time>
      </trkpt>
      <trkpt lat="45.95511" lon="5.83496">
        <ele>256.3</ele>
        <time>2022-09-26T11:51:25Z</time>
      </trkpt>
      <trkpt lat="45.95516" lon="5.83493">
        <ele>256.3</ele>
        <time>2022-09-26T11:51:26Z</time>
      </trkpt>
      <trkpt lat="45.9552" lon="5.8349">
        <ele>256.3</ele>
        <time>2022-09-26T11:51:27Z</time>
      </trkpt>
      <trkpt lat="45.95525" lon="5.83488">
        <ele>256.3</ele>
        <time>2022-09-26T11:51:28Z</time>
      </trkpt>
      <trkpt lat="45.9553" lon="5.83486">
        <ele>256.3</ele>
        <time>2022-09-26T11:51:29Z</time>
      </trkpt>
      <trkpt lat="45.95534" lon="5.83484">
        <ele>256.3</ele>
        <time>2022-09-26T11:51:30Z</time>
      </trkpt>
      <trkpt lat="45.95538" lon="5.83482">
        <ele>256.4</ele>
        <time>2022-09-26T11:51:31Z</time>
      </trkpt>
      <trkpt lat="45.95542" lon="5.83479">
        <ele>256.4</ele>
        <time>2022-09-26T11:51:32Z</time>
      </trkpt>
      <trkpt lat="45.95546" lon="5.83475">
        <ele>256.5</ele>
        <time>2022-09-26T11:51:33Z</time>
      </trkpt>
      <trkpt lat="45.95551" lon="5.83471">
        <ele>256.5</ele>
        <time>2022-09-26T11:51:34Z</time>
      </trkpt>
      <trkpt lat="45.95555" lon="5.83468">
        <ele>256.5</ele>
        <time>2022-09-26T11:51:35Z</time>
      </trkpt>
      <trkpt lat="45.95557" lon="5.83465">
        <ele>256.6</ele>
        <time>2022-09-26T11:51:36Z</time>
      </trkpt>
      <trkpt lat="45.9556" lon="5.83463">
        <ele>256.6</ele>
        <time>2022-09-26T11:51:37Z</time>
      </trkpt>
      <trkpt lat="45.95564" lon="5.83462">
        <ele>256.5</ele>
        <time>2022-09-26T11:51:38Z</time>
      </trkpt>
      <trkpt lat="45.95569" lon="5.83459">
        <ele>256.5</ele>
        <time>2022-09-26T11:51:39Z</time>
      </trkpt>
      <trkpt lat="45.95574" lon="5.83455">
        <ele>256.5</ele>
        <time>2022-09-26T11:51:40Z</time>
      </trkpt>
      <trkpt lat="45.95579" lon="5.83453">
        <ele>256.5</ele>
        <time>2022-09-26T11:51:41Z</time>
      </trkpt>
      <trkpt lat="45.95584" lon="5.8345">
        <ele>256.4</ele>
        <time>2022-09-26T11:51:42Z</time>
      </trkpt>
      <trkpt lat="45.95588" lon="5.83448">
        <ele>256.4</ele>
        <time>2022-09-26T11:51:43Z</time>
      </trkpt>
      <trkpt lat="45.95593" lon="5.83446">
        <ele>256.4</ele>
        <time>2022-09-26T11:51:44Z</time>
      </trkpt>
      <trkpt lat="45.95597" lon="5.83443">
        <ele>256.4</ele>
        <time>2022-09-26T11:51:45Z</time>
      </trkpt>
      <trkpt lat="45.95601" lon="5.83441">
        <ele>256.4</ele>
        <time>2022-09-26T11:51:46Z</time>
      </trkpt>
      <trkpt lat="45.95606" lon="5.83439">
        <ele>256.4</ele>
        <time>2022-09-26T11:51:47Z</time>
      </trkpt>
      <trkpt lat="45.9561" lon="5.83436">
        <ele>256.4</ele>
        <time>2022-09-26T11:51:48Z</time>
      </trkpt>
      <trkpt lat="45.95614" lon="5.83434">
        <ele>256.4</ele>
        <time>2022-09-26T11:51:49Z</time>
      </trkpt>
      <trkpt lat="45.95617" lon="5.83433">
        <ele>256.3</ele>
        <time>2022-09-26T11:51:50Z</time>
      </trkpt>
      <trkpt lat="45.9562" lon="5.8343">
        <ele>256.3</ele>
        <time>2022-09-26T11:51:51Z</time>
      </trkpt>
      <trkpt lat="45.95624" lon="5.83429">
        <ele>256.3</ele>
        <time>2022-09-26T11:51:52Z</time>
      </trkpt>
      <trkpt lat="45.95627" lon="5.83427">
        <ele>256.3</ele>
        <time>2022-09-26T11:51:53Z</time>
      </trkpt>
      <trkpt lat="45.9563" lon="5.83425">
        <ele>256.3</ele>
        <time>2022-09-26T11:51:54Z</time>
      </trkpt>
      <trkpt lat="45.95634" lon="5.83422">
        <ele>256.3</ele>
        <time>2022-09-26T11:51:55Z</time>
      </trkpt>
      <trkpt lat="45.95637" lon="5.8342">
        <ele>256.3</ele>
        <time>2022-09-26T11:51:56Z</time>
      </trkpt>
      <trkpt lat="45.95641" lon="5.83417">
        <ele>256.3</ele>
        <time>2022-09-26T11:51:57Z</time>
      </trkpt>
      <trkpt lat="45.95645" lon="5.83415">
        <ele>256.3</ele>
        <time>2022-09-26T11:51:58Z</time>
      </trkpt>
      <trkpt lat="45.95648" lon="5.83414">
        <ele>256.4</ele>
        <time>2022-09-26T11:51:59Z</time>
      </trkpt>
      <trkpt lat="45.95651" lon="5.8341">
        <ele>256.4</ele>
        <time>2022-09-26T11:52:00Z</time>
      </trkpt>
      <trkpt lat="45.95655" lon="5.83409">
        <ele>256.5</ele>
        <time>2022-09-26T11:52:01Z</time>
      </trkpt>
      <trkpt lat="45.95659" lon="5.83407">
        <ele>256.5</ele>
        <time>2022-09-26T11:52:02Z</time>
      </trkpt>
      <trkpt lat="45.95663" lon="5.83405">
        <ele>256.6</ele>
        <time>2022-09-26T11:52:03Z</time>
      </trkpt>
      <trkpt lat="45.95665" lon="5.83402">
        <ele>256.6</ele>
        <time>2022-09-26T11:52:04Z</time>
      </trkpt>
      <trkpt lat="45.9567" lon="5.834">
        <ele>256.7</ele>
        <time>2022-09-26T11:52:05Z</time>
      </trkpt>
      <trkpt lat="45.95673" lon="5.83399">
        <ele>256.8</ele>
        <time>2022-09-26T11:52:06Z</time>
      </trkpt>
      <trkpt lat="45.95677" lon="5.83399">
        <ele>256.9</ele>
        <time>2022-09-26T11:52:07Z</time>
      </trkpt>
      <trkpt lat="45.95677" lon="5.834">
        <ele>256.9</ele>
        <time>2022-09-26T11:52:08Z</time>
      </trkpt>
      <trkpt lat="45.95678" lon="5.83401">
        <ele>257</ele>
        <time>2022-09-26T11:52:09Z</time>
      </trkpt>
      <trkpt lat="45.9568" lon="5.83403">
        <ele>257</ele>
        <time>2022-09-26T11:52:10Z</time>
      </trkpt>
      <trkpt lat="45.95682" lon="5.83404">
        <ele>257.1</ele>
        <time>2022-09-26T11:52:11Z</time>
      </trkpt>
      <trkpt lat="45.95683" lon="5.83406">
        <ele>257.1</ele>
        <time>2022-09-26T11:52:12Z</time>
      </trkpt>
      <trkpt lat="45.95683" lon="5.83408">
        <ele>257.1</ele>
        <time>2022-09-26T11:52:13Z</time>
      </trkpt>
      <trkpt lat="45.95683" lon="5.8341">
        <ele>257.1</ele>
        <time>2022-09-26T11:52:14Z</time>
      </trkpt>
      <trkpt lat="45.95682" lon="5.83415">
        <ele>257.2</ele>
        <time>2022-09-26T11:52:15Z</time>
      </trkpt>
      <trkpt lat="45.95682" lon="5.83416">
        <ele>257.2</ele>
        <time>2022-09-26T11:52:16Z</time>
      </trkpt>
      <trkpt lat="45.95681" lon="5.83421">
        <ele>257.2</ele>
        <time>2022-09-26T11:52:17Z</time>
      </trkpt>
      <trkpt lat="45.9568" lon="5.83423">
        <ele>257.2</ele>
        <time>2022-09-26T11:52:18Z</time>
      </trkpt>
      <trkpt lat="45.95681" lon="5.83427">
        <ele>257.3</ele>
        <time>2022-09-26T11:52:19Z</time>
      </trkpt>
      <trkpt lat="45.95682" lon="5.83432">
        <ele>257.3</ele>
        <time>2022-09-26T11:52:20Z</time>
      </trkpt>
      <trkpt lat="45.95683" lon="5.83434">
        <ele>257.3</ele>
        <time>2022-09-26T11:52:21Z</time>
      </trkpt>
      <trkpt lat="45.95684" lon="5.83439">
        <ele>257.3</ele>
        <time>2022-09-26T11:52:22Z</time>
      </trkpt>
      <trkpt lat="45.95686" lon="5.83444">
        <ele>257.4</ele>
        <time>2022-09-26T11:52:23Z</time>
      </trkpt>
      <trkpt lat="45.95686" lon="5.83446">
        <ele>257.4</ele>
        <time>2022-09-26T11:52:24Z</time>
      </trkpt>
      <trkpt lat="45.95687" lon="5.8345">
        <ele>257.4</ele>
        <time>2022-09-26T11:52:25Z</time>
      </trkpt>
      <trkpt lat="45.95688" lon="5.83451">
        <ele>257.4</ele>
        <time>2022-09-26T11:52:26Z</time>
      </trkpt>
      <trkpt lat="45.95689" lon="5.83454">
        <ele>257.5</ele>
        <time>2022-09-26T11:52:27Z</time>
      </trkpt>
      <trkpt lat="45.95689" lon="5.83455">
        <ele>257.5</ele>
        <time>2022-09-26T11:52:28Z</time>
      </trkpt>
      <trkpt lat="45.95689" lon="5.83457">
        <ele>257.5</ele>
        <time>2022-09-26T11:52:29Z</time>
      </trkpt>
      <trkpt lat="45.9569" lon="5.83459">
        <ele>257.5</ele>
        <time>2022-09-26T11:52:30Z</time>
      </trkpt>
      <trkpt lat="45.95693" lon="5.8346">
        <ele>257.6</ele>
        <time>2022-09-26T11:52:31Z</time>
      </trkpt>
      <trkpt lat="45.95694" lon="5.8346">
        <ele>257.6</ele>
        <time>2022-09-26T11:52:32Z</time>
      </trkpt>
      <trkpt lat="45.95697" lon="5.8346">
        <ele>257.7</ele>
        <time>2022-09-26T11:52:33Z</time>
      </trkpt>
      <trkpt lat="45.957" lon="5.83457">
        <ele>257.7</ele>
        <time>2022-09-26T11:52:34Z</time>
      </trkpt>
      <trkpt lat="45.95704" lon="5.83454">
        <ele>257.7</ele>
        <time>2022-09-26T11:52:35Z</time>
      </trkpt>
      <trkpt lat="45.95707" lon="5.83452">
        <ele>257.8</ele>
        <time>2022-09-26T11:52:36Z</time>
      </trkpt>
      <trkpt lat="45.95709" lon="5.83449">
        <ele>257.8</ele>
        <time>2022-09-26T11:52:37Z</time>
      </trkpt>
      <trkpt lat="45.95712" lon="5.83445">
        <ele>257.8</ele>
        <time>2022-09-26T11:52:38Z</time>
      </trkpt>
      <trkpt lat="45.95715" lon="5.83442">
        <ele>257.9</ele>
        <time>2022-09-26T11:52:39Z</time>
      </trkpt>
      <trkpt lat="45.95719" lon="5.8344">
        <ele>257.9</ele>
        <time>2022-09-26T11:52:40Z</time>
      </trkpt>
      <trkpt lat="45.95722" lon="5.83437">
        <ele>258</ele>
        <time>2022-09-26T11:52:41Z</time>
      </trkpt>
      <trkpt lat="45.95725" lon="5.83434">
        <ele>258</ele>
        <time>2022-09-26T11:52:42Z</time>
      </trkpt>
      <trkpt lat="45.95728" lon="5.83431">
        <ele>258</ele>
        <time>2022-09-26T11:52:43Z</time>
      </trkpt>
      <trkpt lat="45.95732" lon="5.83429">
        <ele>258.1</ele>
        <time>2022-09-26T11:52:44Z</time>
      </trkpt>
      <trkpt lat="45.95735" lon="5.83426">
        <ele>258.1</ele>
        <time>2022-09-26T11:52:45Z</time>
      </trkpt>
      <trkpt lat="45.95738" lon="5.83423">
        <ele>258.2</ele>
        <time>2022-09-26T11:52:46Z</time>
      </trkpt>
      <trkpt lat="45.9574" lon="5.8342">
        <ele>258.2</ele>
        <time>2022-09-26T11:52:47Z</time>
      </trkpt>
      <trkpt lat="45.95743" lon="5.83416">
        <ele>258.3</ele>
        <time>2022-09-26T11:52:48Z</time>
      </trkpt>
      <trkpt lat="45.95745" lon="5.83413">
        <ele>258.3</ele>
        <time>2022-09-26T11:52:49Z</time>
      </trkpt>
      <trkpt lat="45.95747" lon="5.83407">
        <ele>258.3</ele>
        <time>2022-09-26T11:52:50Z</time>
      </trkpt>
      <trkpt lat="45.95747" lon="5.83403">
        <ele>258.3</ele>
        <time>2022-09-26T11:52:51Z</time>
      </trkpt>
      <trkpt lat="45.95749" lon="5.83399">
        <ele>258.2</ele>
        <time>2022-09-26T11:52:52Z</time>
      </trkpt>
      <trkpt lat="45.9575" lon="5.83394">
        <ele>258.2</ele>
        <time>2022-09-26T11:52:53Z</time>
      </trkpt>
      <trkpt lat="45.9575" lon="5.83389">
        <ele>258.3</ele>
        <time>2022-09-26T11:52:54Z</time>
      </trkpt>
      <trkpt lat="45.95752" lon="5.83385">
        <ele>258.3</ele>
        <time>2022-09-26T11:52:55Z</time>
      </trkpt>
      <trkpt lat="45.95754" lon="5.83382">
        <ele>258.3</ele>
        <time>2022-09-26T11:52:56Z</time>
      </trkpt>
      <trkpt lat="45.95757" lon="5.83378">
        <ele>258.4</ele>
        <time>2022-09-26T11:52:57Z</time>
      </trkpt>
      <trkpt lat="45.9576" lon="5.83376">
        <ele>258.5</ele>
        <time>2022-09-26T11:52:58Z</time>
      </trkpt>
      <trkpt lat="45.95763" lon="5.83373">
        <ele>258.6</ele>
        <time>2022-09-26T11:52:59Z</time>
      </trkpt>
      <trkpt lat="45.95765" lon="5.83371">
        <ele>258.6</ele>
        <time>2022-09-26T11:53:00Z</time>
      </trkpt>
      <trkpt lat="45.95766" lon="5.8337">
        <ele>258.6</ele>
        <time>2022-09-26T11:53:01Z</time>
      </trkpt>
      <trkpt lat="45.95768" lon="5.83366">
        <ele>258.7</ele>
        <time>2022-09-26T11:53:02Z</time>
      </trkpt>
      <trkpt lat="45.9577" lon="5.83365">
        <ele>258.7</ele>
        <time>2022-09-26T11:53:03Z</time>
      </trkpt>
      <trkpt lat="45.95773" lon="5.83363">
        <ele>258.8</ele>
        <time>2022-09-26T11:53:04Z</time>
      </trkpt>
      <trkpt lat="45.95775" lon="5.83361">
        <ele>258.8</ele>
        <time>2022-09-26T11:53:05Z</time>
      </trkpt>
      <trkpt lat="45.95776" lon="5.83357">
        <ele>258.9</ele>
        <time>2022-09-26T11:53:06Z</time>
      </trkpt>
      <trkpt lat="45.95779" lon="5.83356">
        <ele>258.9</ele>
        <time>2022-09-26T11:53:07Z</time>
      </trkpt>
      <trkpt lat="45.95782" lon="5.83354">
        <ele>259.1</ele>
        <time>2022-09-26T11:53:08Z</time>
      </trkpt>
      <trkpt lat="45.95786" lon="5.83352">
        <ele>259.2</ele>
        <time>2022-09-26T11:53:09Z</time>
      </trkpt>
      <trkpt lat="45.95789" lon="5.8335">
        <ele>259.3</ele>
        <time>2022-09-26T11:53:10Z</time>
      </trkpt>
      <trkpt lat="45.95791" lon="5.83346">
        <ele>259.5</ele>
        <time>2022-09-26T11:53:11Z</time>
      </trkpt>
      <trkpt lat="45.95795" lon="5.83345">
        <ele>259.6</ele>
        <time>2022-09-26T11:53:12Z</time>
      </trkpt>
      <trkpt lat="45.95798" lon="5.83344">
        <ele>259.7</ele>
        <time>2022-09-26T11:53:13Z</time>
      </trkpt>
      <trkpt lat="45.95801" lon="5.83343">
        <ele>259.8</ele>
        <time>2022-09-26T11:53:14Z</time>
      </trkpt>
      <trkpt lat="45.95805" lon="5.83343">
        <ele>259.9</ele>
        <time>2022-09-26T11:53:15Z</time>
      </trkpt>
      <trkpt lat="45.95808" lon="5.83342">
        <ele>260.1</ele>
        <time>2022-09-26T11:53:16Z</time>
      </trkpt>
      <trkpt lat="45.95811" lon="5.8334">
        <ele>260.2</ele>
        <time>2022-09-26T11:53:17Z</time>
      </trkpt>
      <trkpt lat="45.95814" lon="5.83339">
        <ele>260.3</ele>
        <time>2022-09-26T11:53:18Z</time>
      </trkpt>
      <trkpt lat="45.95817" lon="5.83337">
        <ele>260.5</ele>
        <time>2022-09-26T11:53:19Z</time>
      </trkpt>
      <trkpt lat="45.9582" lon="5.83337">
        <ele>260.6</ele>
        <time>2022-09-26T11:53:20Z</time>
      </trkpt>
      <trkpt lat="45.95823" lon="5.83339">
        <ele>260.7</ele>
        <time>2022-09-26T11:53:21Z</time>
      </trkpt>
      <trkpt lat="45.95824" lon="5.8334">
        <ele>260.8</ele>
        <time>2022-09-26T11:53:22Z</time>
      </trkpt>
      <trkpt lat="45.95827" lon="5.83342">
        <ele>260.9</ele>
        <time>2022-09-26T11:53:23Z</time>
      </trkpt>
      <trkpt lat="45.9583" lon="5.83342">
        <ele>261</ele>
        <time>2022-09-26T11:53:24Z</time>
      </trkpt>
      <trkpt lat="45.95833" lon="5.83343">
        <ele>261.2</ele>
        <time>2022-09-26T11:53:25Z</time>
      </trkpt>
      <trkpt lat="45.95837" lon="5.83344">
        <ele>261.3</ele>
        <time>2022-09-26T11:53:26Z</time>
      </trkpt>
      <trkpt lat="45.9584" lon="5.83346">
        <ele>261.4</ele>
        <time>2022-09-26T11:53:27Z</time>
      </trkpt>
      <trkpt lat="45.95843" lon="5.83347">
        <ele>261.5</ele>
        <time>2022-09-26T11:53:28Z</time>
      </trkpt>
      <trkpt lat="45.95844" lon="5.83348">
        <ele>261.8</ele>
        <time>2022-09-26T11:53:29Z</time>
      </trkpt>
      <trkpt lat="45.95846" lon="5.83349">
        <ele>261.9</ele>
        <time>2022-09-26T11:53:30Z</time>
      </trkpt>
      <trkpt lat="45.95848" lon="5.8335">
        <ele>262.1</ele>
        <time>2022-09-26T11:53:31Z</time>
      </trkpt>
      <trkpt lat="45.95849" lon="5.83351">
        <ele>262.1</ele>
        <time>2022-09-26T11:53:32Z</time>
      </trkpt>
      <trkpt lat="45.95851" lon="5.83353">
        <ele>262.2</ele>
        <time>2022-09-26T11:53:33Z</time>
      </trkpt>
      <trkpt lat="45.95851" lon="5.83355">
        <ele>262.3</ele>
        <time>2022-09-26T11:53:34Z</time>
      </trkpt>
      <trkpt lat="45.95851" lon="5.83356">
        <ele>262.3</ele>
        <time>2022-09-26T11:53:35Z</time>
      </trkpt>
      <trkpt lat="45.95852" lon="5.83359">
        <ele>262.4</ele>
        <time>2022-09-26T11:53:36Z</time>
      </trkpt>
      <trkpt lat="45.95851" lon="5.83361">
        <ele>262.5</ele>
        <time>2022-09-26T11:53:37Z</time>
      </trkpt>
      <trkpt lat="45.95851" lon="5.83362">
        <ele>262.6</ele>
        <time>2022-09-26T11:53:38Z</time>
      </trkpt>
      <trkpt lat="45.95851" lon="5.83366">
        <ele>262.7</ele>
        <time>2022-09-26T11:53:39Z</time>
      </trkpt>
      <trkpt lat="45.9585" lon="5.8337">
        <ele>262.9</ele>
        <time>2022-09-26T11:53:40Z</time>
      </trkpt>
      <trkpt lat="45.9585" lon="5.83372">
        <ele>263</ele>
        <time>2022-09-26T11:53:41Z</time>
      </trkpt>
      <trkpt lat="45.95851" lon="5.83377">
        <ele>263.2</ele>
        <time>2022-09-26T11:53:42Z</time>
      </trkpt>
      <trkpt lat="45.95851" lon="5.83378">
        <ele>263.3</ele>
        <time>2022-09-26T11:53:43Z</time>
      </trkpt>
      <trkpt lat="45.95851" lon="5.83382">
        <ele>263.6</ele>
        <time>2022-09-26T11:53:44Z</time>
      </trkpt>
      <trkpt lat="45.9585" lon="5.83383">
        <ele>263.6</ele>
        <time>2022-09-26T11:53:45Z</time>
      </trkpt>
      <trkpt lat="45.95849" lon="5.83386">
        <ele>263.8</ele>
        <time>2022-09-26T11:53:46Z</time>
      </trkpt>
      <trkpt lat="45.95849" lon="5.83388">
        <ele>263.9</ele>
        <time>2022-09-26T11:53:47Z</time>
      </trkpt>
      <trkpt lat="45.95849" lon="5.83392">
        <ele>264.2</ele>
        <time>2022-09-26T11:53:48Z</time>
      </trkpt>
      <trkpt lat="45.95848" lon="5.83394">
        <ele>264.2</ele>
        <time>2022-09-26T11:53:49Z</time>
      </trkpt>
      <trkpt lat="45.95848" lon="5.83396">
        <ele>264.4</ele>
        <time>2022-09-26T11:53:50Z</time>
      </trkpt>
      <trkpt lat="45.95848" lon="5.83398">
        <ele>264.5</ele>
        <time>2022-09-26T11:53:51Z</time>
      </trkpt>
      <trkpt lat="45.95848" lon="5.834">
        <ele>264.6</ele>
        <time>2022-09-26T11:53:52Z</time>
      </trkpt>
      <trkpt lat="45.95849" lon="5.83402">
        <ele>264.8</ele>
        <time>2022-09-26T11:53:53Z</time>
      </trkpt>
      <trkpt lat="45.95851" lon="5.83405">
        <ele>265</ele>
        <time>2022-09-26T11:53:54Z</time>
      </trkpt>
      <trkpt lat="45.95852" lon="5.83406">
        <ele>265</ele>
        <time>2022-09-26T11:53:55Z</time>
      </trkpt>
      <trkpt lat="45.95853" lon="5.83407">
        <ele>265.1</ele>
        <time>2022-09-26T11:53:56Z</time>
      </trkpt>
      <trkpt lat="45.95855" lon="5.83408">
        <ele>265.2</ele>
        <time>2022-09-26T11:53:57Z</time>
      </trkpt>
      <trkpt lat="45.95856" lon="5.83409">
        <ele>265.3</ele>
        <time>2022-09-26T11:53:58Z</time>
      </trkpt>
      <trkpt lat="45.95858" lon="5.8341">
        <ele>265.3</ele>
        <time>2022-09-26T11:53:59Z</time>
      </trkpt>
      <trkpt lat="45.9586" lon="5.83413">
        <ele>265.5</ele>
        <time>2022-09-26T11:54:00Z</time>
      </trkpt>
      <trkpt lat="45.95861" lon="5.83414">
        <ele>265.5</ele>
        <time>2022-09-26T11:54:01Z</time>
      </trkpt>
      <trkpt lat="45.95863" lon="5.83418">
        <ele>265.6</ele>
        <time>2022-09-26T11:54:02Z</time>
      </trkpt>
      <trkpt lat="45.95863" lon="5.83419">
        <ele>265.7</ele>
        <time>2022-09-26T11:54:03Z</time>
      </trkpt>
      <trkpt lat="45.95865" lon="5.83422">
        <ele>265.8</ele>
        <time>2022-09-26T11:54:04Z</time>
      </trkpt>
      <trkpt lat="45.95866" lon="5.83423">
        <ele>265.8</ele>
        <time>2022-09-26T11:54:05Z</time>
      </trkpt>
      <trkpt lat="45.95867" lon="5.83427">
        <ele>265.9</ele>
        <time>2022-09-26T11:54:06Z</time>
      </trkpt>
      <trkpt lat="45.95868" lon="5.83428">
        <ele>266</ele>
        <time>2022-09-26T11:54:07Z</time>
      </trkpt>
      <trkpt lat="45.9587" lon="5.83432">
        <ele>266.1</ele>
        <time>2022-09-26T11:54:08Z</time>
      </trkpt>
      <trkpt lat="45.9587" lon="5.83433">
        <ele>266.1</ele>
        <time>2022-09-26T11:54:09Z</time>
      </trkpt>
      <trkpt lat="45.95871" lon="5.83435">
        <ele>266.2</ele>
        <time>2022-09-26T11:54:10Z</time>
      </trkpt>
      <trkpt lat="45.95872" lon="5.83437">
        <ele>266.2</ele>
        <time>2022-09-26T11:54:11Z</time>
      </trkpt>
      <trkpt lat="45.95874" lon="5.83441">
        <ele>266.3</ele>
        <time>2022-09-26T11:54:12Z</time>
      </trkpt>
      <trkpt lat="45.95875" lon="5.83442">
        <ele>266.3</ele>
        <time>2022-09-26T11:54:13Z</time>
      </trkpt>
      <trkpt lat="45.95876" lon="5.83447">
        <ele>266.5</ele>
        <time>2022-09-26T11:54:14Z</time>
      </trkpt>
      <trkpt lat="45.95877" lon="5.83449">
        <ele>266.5</ele>
        <time>2022-09-26T11:54:15Z</time>
      </trkpt>
      <trkpt lat="45.95879" lon="5.83454">
        <ele>266.7</ele>
        <time>2022-09-26T11:54:16Z</time>
      </trkpt>
      <trkpt lat="45.9588" lon="5.83456">
        <ele>266.7</ele>
        <time>2022-09-26T11:54:17Z</time>
      </trkpt>
      <trkpt lat="45.95883" lon="5.8346">
        <ele>266.8</ele>
        <time>2022-09-26T11:54:18Z</time>
      </trkpt>
      <trkpt lat="45.95883" lon="5.83462">
        <ele>266.9</ele>
        <time>2022-09-26T11:54:19Z</time>
      </trkpt>
      <trkpt lat="45.95883" lon="5.83466">
        <ele>267</ele>
        <time>2022-09-26T11:54:20Z</time>
      </trkpt>
      <trkpt lat="45.95885" lon="5.8347">
        <ele>267.1</ele>
        <time>2022-09-26T11:54:21Z</time>
      </trkpt>
      <trkpt lat="45.95886" lon="5.83472">
        <ele>267.1</ele>
        <time>2022-09-26T11:54:22Z</time>
      </trkpt>
      <trkpt lat="45.95887" lon="5.83477">
        <ele>267.3</ele>
        <time>2022-09-26T11:54:23Z</time>
      </trkpt>
      <trkpt lat="45.95888" lon="5.83478">
        <ele>267.3</ele>
        <time>2022-09-26T11:54:24Z</time>
      </trkpt>
      <trkpt lat="45.95889" lon="5.83483">
        <ele>267.4</ele>
        <time>2022-09-26T11:54:25Z</time>
      </trkpt>
      <trkpt lat="45.9589" lon="5.83484">
        <ele>267.5</ele>
        <time>2022-09-26T11:54:26Z</time>
      </trkpt>
      <trkpt lat="45.95889" lon="5.8349">
        <ele>267.6</ele>
        <time>2022-09-26T11:54:27Z</time>
      </trkpt>
      <trkpt lat="45.95888" lon="5.83491">
        <ele>267.6</ele>
        <time>2022-09-26T11:54:28Z</time>
      </trkpt>
      <trkpt lat="45.95889" lon="5.83493">
        <ele>267.7</ele>
        <time>2022-09-26T11:54:29Z</time>
      </trkpt>
      <trkpt lat="45.9589" lon="5.83494">
        <ele>267.7</ele>
        <time>2022-09-26T11:54:30Z</time>
      </trkpt>
      <trkpt lat="45.95891" lon="5.83495">
        <ele>267.7</ele>
        <time>2022-09-26T11:54:31Z</time>
      </trkpt>
      <trkpt lat="45.95894" lon="5.83497">
        <ele>267.8</ele>
        <time>2022-09-26T11:54:32Z</time>
      </trkpt>
      <trkpt lat="45.95894" lon="5.83498">
        <ele>267.9</ele>
        <time>2022-09-26T11:54:33Z</time>
      </trkpt>
      <trkpt lat="45.95897" lon="5.83502">
        <ele>268</ele>
        <time>2022-09-26T11:54:34Z</time>
      </trkpt>
      <trkpt lat="45.95898" lon="5.83504">
        <ele>268</ele>
        <time>2022-09-26T11:54:35Z</time>
      </trkpt>
      <trkpt lat="45.95901" lon="5.83506">
        <ele>268.1</ele>
        <time>2022-09-26T11:54:36Z</time>
      </trkpt>
      <trkpt lat="45.95901" lon="5.83508">
        <ele>268.2</ele>
        <time>2022-09-26T11:54:37Z</time>
      </trkpt>
      <trkpt lat="45.959" lon="5.8351">
        <ele>268.2</ele>
        <time>2022-09-26T11:54:38Z</time>
      </trkpt>
      <trkpt lat="45.95904" lon="5.8351">
        <ele>268.3</ele>
        <time>2022-09-26T11:54:39Z</time>
      </trkpt>
      <trkpt lat="45.95907" lon="5.83511">
        <ele>268.4</ele>
        <time>2022-09-26T11:54:40Z</time>
      </trkpt>
      <trkpt lat="45.95908" lon="5.83512">
        <ele>268.5</ele>
        <time>2022-09-26T11:54:41Z</time>
      </trkpt>
      <trkpt lat="45.95911" lon="5.83514">
        <ele>268.5</ele>
        <time>2022-09-26T11:54:42Z</time>
      </trkpt>
      <trkpt lat="45.95912" lon="5.83515">
        <ele>268.5</ele>
        <time>2022-09-26T11:54:43Z</time>
      </trkpt>
      <trkpt lat="45.95915" lon="5.83518">
        <ele>268.5</ele>
        <time>2022-09-26T11:54:44Z</time>
      </trkpt>
      <trkpt lat="45.95916" lon="5.83518">
        <ele>268.5</ele>
        <time>2022-09-26T11:54:45Z</time>
      </trkpt>
      <trkpt lat="45.95917" lon="5.83522">
        <ele>268.6</ele>
        <time>2022-09-26T11:54:46Z</time>
      </trkpt>
      <trkpt lat="45.95918" lon="5.83523">
        <ele>268.6</ele>
        <time>2022-09-26T11:54:47Z</time>
      </trkpt>
      <trkpt lat="45.95919" lon="5.83527">
        <ele>268.6</ele>
        <time>2022-09-26T11:54:48Z</time>
      </trkpt>
      <trkpt lat="45.95921" lon="5.83532">
        <ele>268.6</ele>
        <time>2022-09-26T11:54:49Z</time>
      </trkpt>
      <trkpt lat="45.95921" lon="5.83533">
        <ele>268.6</ele>
        <time>2022-09-26T11:54:50Z</time>
      </trkpt>
      <trkpt lat="45.95922" lon="5.83534">
        <ele>268.6</ele>
        <time>2022-09-26T11:54:51Z</time>
      </trkpt>
      <trkpt lat="45.95922" lon="5.83534">
        <ele>268.6</ele>
        <time>2022-09-26T11:54:52Z</time>
      </trkpt>
      <trkpt lat="45.95922" lon="5.83534">
        <ele>268.6</ele>
        <time>2022-09-26T11:54:53Z</time>
      </trkpt>
      <trkpt lat="45.95923" lon="5.83534">
        <ele>268.6</ele>
        <time>2022-09-26T11:54:54Z</time>
      </trkpt>
      <trkpt lat="45.95923" lon="5.83534">
        <ele>268.6</ele>
        <time>2022-09-26T11:54:55Z</time>
      </trkpt>
      <trkpt lat="45.95923" lon="5.83534">
        <ele>268.6</ele>
        <time>2022-09-26T11:54:56Z</time>
      </trkpt>
      <trkpt lat="45.95923" lon="5.83534">
        <ele>268.6</ele>
        <time>2022-09-26T11:54:57Z</time>
      </trkpt>
      <trkpt lat="45.95923" lon="5.83533">
        <ele>268.6</ele>
        <time>2022-09-26T11:54:58Z</time>
      </trkpt>
      <trkpt lat="45.95924" lon="5.83533">
        <ele>268.6</ele>
        <time>2022-09-26T11:54:59Z</time>
      </trkpt>
      <trkpt lat="45.95924" lon="5.83533">
        <ele>268.6</ele>
        <time>2022-09-26T11:55:00Z</time>
      </trkpt>
      <trkpt lat="45.95924" lon="5.83533">
        <ele>268.6</ele>
        <time>2022-09-26T11:55:01Z</time>
      </trkpt>
      <trkpt lat="45.95924" lon="5.83533">
        <ele>268.6</ele>
        <time>2022-09-26T11:56:08Z</time>
      </trkpt>
      <trkpt lat="45.95924" lon="5.83533">
        <ele>268.6</ele>
        <time>2022-09-26T11:56:09Z</time>
      </trkpt>
      <trkpt lat="45.95924" lon="5.83533">
        <ele>268.6</ele>
        <time>2022-09-26T11:56:10Z</time>
      </trkpt>
      <trkpt lat="45.95925" lon="5.83533">
        <ele>268.6</ele>
        <time>2022-09-26T11:56:11Z</time>
      </trkpt>
      <trkpt lat="45.95925" lon="5.83533">
        <ele>268.6</ele>
        <time>2022-09-26T11:56:12Z</time>
      </trkpt>
      <trkpt lat="45.95925" lon="5.83533">
        <ele>268.6</ele>
        <time>2022-09-26T11:56:13Z</time>
      </trkpt>
      <trkpt lat="45.95925" lon="5.83533">
        <ele>268.6</ele>
        <time>2022-09-26T11:56:14Z</time>
      </trkpt>
      <trkpt lat="45.95925" lon="5.83533">
        <ele>268.6</ele>
        <time>2022-09-26T11:56:15Z</time>
      </trkpt>
      <trkpt lat="45.95926" lon="5.83533">
        <ele>268.6</ele>
        <time>2022-09-26T11:56:16Z</time>
      </trkpt>
      <trkpt lat="45.95926" lon="5.83533">
        <ele>268.6</ele>
        <time>2022-09-26T11:56:17Z</time>
      </trkpt>
      <trkpt lat="45.95926" lon="5.83532">
        <ele>268.6</ele>
        <time>2022-09-26T11:56:18Z</time>
      </trkpt>
      <trkpt lat="45.95926" lon="5.83532">
        <ele>268.6</ele>
        <time>2022-09-26T11:56:48Z</time>
      </trkpt>
      <trkpt lat="45.95926" lon="5.83532">
        <ele>268.6</ele>
        <time>2022-09-26T11:56:49Z</time>
      </trkpt>
      <trkpt lat="45.95926" lon="5.83532">
        <ele>268.6</ele>
        <time>2022-09-26T11:56:50Z</time>
      </trkpt>
      <trkpt lat="45.95927" lon="5.83532">
        <ele>268.6</ele>
        <time>2022-09-26T11:56:51Z</time>
      </trkpt>
      <trkpt lat="45.95927" lon="5.83532">
        <ele>268.6</ele>
        <time>2022-09-26T11:56:52Z</time>
      </trkpt>
      <trkpt lat="45.95927" lon="5.83531">
        <ele>268.6</ele>
        <time>2022-09-26T11:56:53Z</time>
      </trkpt>
      <trkpt lat="45.95927" lon="5.83531">
        <ele>268.6</ele>
        <time>2022-09-26T11:56:54Z</time>
      </trkpt>
      <trkpt lat="45.95926" lon="5.83533">
        <ele>268.6</ele>
        <time>2022-09-26T11:56:55Z</time>
      </trkpt>
      <trkpt lat="45.95925" lon="5.83532">
        <ele>268.6</ele>
        <time>2022-09-26T11:56:56Z</time>
      </trkpt>
      <trkpt lat="45.95925" lon="5.83533">
        <ele>268.6</ele>
        <time>2022-09-26T11:56:57Z</time>
      </trkpt>
      <trkpt lat="45.95925" lon="5.83533">
        <ele>268.6</ele>
        <time>2022-09-26T11:56:58Z</time>
      </trkpt>
      <trkpt lat="45.95925" lon="5.83533">
        <ele>268.6</ele>
        <time>2022-09-26T11:56:59Z</time>
      </trkpt>
      <trkpt lat="45.95926" lon="5.83533">
        <ele>268.6</ele>
        <time>2022-09-26T11:57:00Z</time>
      </trkpt>
      <trkpt lat="45.95926" lon="5.83533">
        <ele>268.6</ele>
        <time>2022-09-26T11:57:01Z</time>
      </trkpt>
      <trkpt lat="45.95926" lon="5.83533">
        <ele>268.6</ele>
        <time>2022-09-26T11:57:02Z</time>
      </trkpt>
      <trkpt lat="45.95926" lon="5.83533">
        <ele>268.6</ele>
        <time>2022-09-26T11:57:03Z</time>
      </trkpt>
      <trkpt lat="45.95926" lon="5.83533">
        <ele>268.6</ele>
        <time>2022-09-26T11:57:04Z</time>
      </trkpt>
      <trkpt lat="45.95924" lon="5.83535">
        <ele>268.6</ele>
        <time>2022-09-26T11:57:05Z</time>
      </trkpt>
      <trkpt lat="45.9592" lon="5.83538">
        <ele>268.6</ele>
        <time>2022-09-26T11:58:43Z</time>
      </trkpt>
      <trkpt lat="45.9592" lon="5.83535">
        <ele>268.6</ele>
        <time>2022-09-26T11:58:44Z</time>
      </trkpt>
      <trkpt lat="45.95919" lon="5.83537">
        <ele>268.6</ele>
        <time>2022-09-26T11:58:45Z</time>
      </trkpt>
      <trkpt lat="45.95919" lon="5.83536">
        <ele>268.6</ele>
        <time>2022-09-26T11:58:46Z</time>
      </trkpt>
      <trkpt lat="45.95917" lon="5.83537">
        <ele>268.6</ele>
        <time>2022-09-26T11:58:47Z</time>
      </trkpt>
      <trkpt lat="45.95918" lon="5.83535">
        <ele>268.6</ele>
        <time>2022-09-26T11:58:48Z</time>
      </trkpt>
      <trkpt lat="45.95919" lon="5.83533">
        <ele>268.6</ele>
        <time>2022-09-26T11:58:49Z</time>
      </trkpt>
      <trkpt lat="45.9592" lon="5.83533">
        <ele>268.6</ele>
        <time>2022-09-26T11:58:50Z</time>
      </trkpt>
      <trkpt lat="45.9592" lon="5.83533">
        <ele>268.6</ele>
        <time>2022-09-26T11:58:51Z</time>
      </trkpt>
      <trkpt lat="45.95921" lon="5.83534">
        <ele>268.6</ele>
        <time>2022-09-26T11:58:52Z</time>
      </trkpt>
      <trkpt lat="45.95921" lon="5.83535">
        <ele>268.6</ele>
        <time>2022-09-26T11:58:53Z</time>
      </trkpt>
      <trkpt lat="45.95922" lon="5.83536">
        <ele>268.6</ele>
        <time>2022-09-26T11:58:54Z</time>
      </trkpt>
      <trkpt lat="45.95916" lon="5.83548">
        <ele>268.7</ele>
        <time>2022-09-26T11:58:55Z</time>
      </trkpt>
      <trkpt lat="45.95917" lon="5.8355">
        <ele>268.7</ele>
        <time>2022-09-26T11:58:56Z</time>
      </trkpt>
      <trkpt lat="45.95921" lon="5.83551">
        <ele>268.7</ele>
        <time>2022-09-26T11:58:57Z</time>
      </trkpt>
      <trkpt lat="45.95922" lon="5.83551">
        <ele>268.7</ele>
        <time>2022-09-26T11:58:58Z</time>
      </trkpt>
      <trkpt lat="45.95924" lon="5.83551">
        <ele>268.7</ele>
        <time>2022-09-26T11:58:59Z</time>
      </trkpt>
      <trkpt lat="45.95925" lon="5.83551">
        <ele>268.7</ele>
        <time>2022-09-26T11:59:00Z</time>
      </trkpt>
      <trkpt lat="45.95925" lon="5.8355">
        <ele>268.7</ele>
        <time>2022-09-26T11:59:01Z</time>
      </trkpt>
      <trkpt lat="45.95925" lon="5.83549">
        <ele>268.7</ele>
        <time>2022-09-26T11:59:02Z</time>
      </trkpt>
      <trkpt lat="45.95925" lon="5.83549">
        <ele>268.7</ele>
        <time>2022-09-26T11:59:03Z</time>
      </trkpt>
      <trkpt lat="45.95925" lon="5.83548">
        <ele>268.7</ele>
        <time>2022-09-26T11:59:05Z</time>
      </trkpt>
      <trkpt lat="45.95925" lon="5.83547">
        <ele>268.7</ele>
        <time>2022-09-26T12:01:12Z</time>
      </trkpt>
      <trkpt lat="45.95926" lon="5.83546">
        <ele>268.7</ele>
        <time>2022-09-26T12:01:13Z</time>
      </trkpt>
      <trkpt lat="45.95926" lon="5.83545">
        <ele>268.7</ele>
        <time>2022-09-26T12:01:14Z</time>
      </trkpt>
      <trkpt lat="45.95926" lon="5.83545">
        <ele>268.7</ele>
        <time>2022-09-26T12:01:15Z</time>
      </trkpt>
      <trkpt lat="45.95926" lon="5.83544">
        <ele>268.7</ele>
        <time>2022-09-26T12:01:16Z</time>
      </trkpt>
      <trkpt lat="45.95926" lon="5.83543">
        <ele>268.7</ele>
        <time>2022-09-26T12:01:17Z</time>
      </trkpt>
      <trkpt lat="45.95926" lon="5.83542">
        <ele>268.7</ele>
        <time>2022-09-26T12:01:18Z</time>
      </trkpt>
      <trkpt lat="45.95926" lon="5.83541">
        <ele>268.7</ele>
        <time>2022-09-26T12:01:19Z</time>
      </trkpt>
      <trkpt lat="45.95926" lon="5.8354">
        <ele>268.7</ele>
        <time>2022-09-26T12:01:20Z</time>
      </trkpt>
      <trkpt lat="45.95926" lon="5.83539">
        <ele>268.7</ele>
        <time>2022-09-26T12:01:21Z</time>
      </trkpt>
      <trkpt lat="45.95926" lon="5.83538">
        <ele>268.7</ele>
        <time>2022-09-26T12:01:22Z</time>
      </trkpt>
      <trkpt lat="45.95926" lon="5.83537">
        <ele>268.7</ele>
        <time>2022-09-26T12:01:23Z</time>
      </trkpt>
      <trkpt lat="45.95926" lon="5.83537">
        <ele>268.7</ele>
        <time>2022-09-26T12:01:24Z</time>
      </trkpt>
      <trkpt lat="45.95926" lon="5.83536">
        <ele>268.7</ele>
        <time>2022-09-26T12:01:25Z</time>
      </trkpt>
      <trkpt lat="45.95927" lon="5.83537">
        <ele>268.7</ele>
        <time>2022-09-26T12:01:26Z</time>
      </trkpt>
      <trkpt lat="45.95926" lon="5.8354">
        <ele>268.7</ele>
        <time>2022-09-26T12:02:10Z</time>
      </trkpt>
      <trkpt lat="45.95926" lon="5.83542">
        <ele>268.7</ele>
        <time>2022-09-26T12:02:11Z</time>
      </trkpt>
      <trkpt lat="45.95924" lon="5.83544">
        <ele>268.7</ele>
        <time>2022-09-26T12:02:12Z</time>
      </trkpt>
      <trkpt lat="45.95924" lon="5.83545">
        <ele>268.7</ele>
        <time>2022-09-26T12:02:13Z</time>
      </trkpt>
      <trkpt lat="45.95923" lon="5.83546">
        <ele>268.7</ele>
        <time>2022-09-26T12:02:14Z</time>
      </trkpt>
      <trkpt lat="45.95923" lon="5.83547">
        <ele>268.7</ele>
        <time>2022-09-26T12:02:15Z</time>
      </trkpt>
      <trkpt lat="45.95923" lon="5.83547">
        <ele>268.7</ele>
        <time>2022-09-26T12:02:16Z</time>
      </trkpt>
      <trkpt lat="45.95923" lon="5.83547">
        <ele>268.7</ele>
        <time>2022-09-26T12:02:17Z</time>
      </trkpt>
      <trkpt lat="45.95923" lon="5.83547">
        <ele>268.7</ele>
        <time>2022-09-26T12:02:18Z</time>
      </trkpt>
      <trkpt lat="45.95923" lon="5.83548">
        <ele>268.7</ele>
        <time>2022-09-26T12:02:19Z</time>
      </trkpt>
      <trkpt lat="45.95923" lon="5.83548">
        <ele>268.7</ele>
        <time>2022-09-26T12:03:56Z</time>
      </trkpt>
      <trkpt lat="45.95923" lon="5.83548">
        <ele>268.7</ele>
        <time>2022-09-26T12:03:57Z</time>
      </trkpt>
      <trkpt lat="45.95923" lon="5.83548">
        <ele>268.7</ele>
        <time>2022-09-26T12:03:58Z</time>
      </trkpt>
      <trkpt lat="45.95923" lon="5.83548">
        <ele>268.7</ele>
        <time>2022-09-26T12:03:59Z</time>
      </trkpt>
      <trkpt lat="45.95923" lon="5.83549">
        <ele>268.7</ele>
        <time>2022-09-26T12:04:00Z</time>
      </trkpt>
      <trkpt lat="45.95923" lon="5.83549">
        <ele>268.7</ele>
        <time>2022-09-26T12:04:01Z</time>
      </trkpt>
      <trkpt lat="45.95923" lon="5.83549">
        <ele>268.7</ele>
        <time>2022-09-26T12:04:02Z</time>
      </trkpt>
      <trkpt lat="45.95923" lon="5.83549">
        <ele>268.7</ele>
        <time>2022-09-26T12:04:03Z</time>
      </trkpt>
      <trkpt lat="45.95923" lon="5.83549">
        <ele>268.7</ele>
        <time>2022-09-26T12:04:04Z</time>
      </trkpt>
      <trkpt lat="45.95923" lon="5.8355">
        <ele>268.7</ele>
        <time>2022-09-26T12:04:05Z</time>
      </trkpt>
      <trkpt lat="45.95923" lon="5.8355">
        <ele>268.7</ele>
        <time>2022-09-26T12:08:34Z</time>
      </trkpt>
      <trkpt lat="45.95923" lon="5.8355">
        <ele>268.7</ele>
        <time>2022-09-26T12:08:35Z</time>
      </trkpt>
      <trkpt lat="45.95923" lon="5.8355">
        <ele>268.7</ele>
        <time>2022-09-26T12:08:36Z</time>
      </trkpt>
      <trkpt lat="45.95923" lon="5.8355">
        <ele>268.7</ele>
        <time>2022-09-26T12:08:37Z</time>
      </trkpt>
      <trkpt lat="45.95923" lon="5.83551">
        <ele>268.7</ele>
        <time>2022-09-26T12:08:38Z</time>
      </trkpt>
      <trkpt lat="45.95923" lon="5.83551">
        <ele>268.7</ele>
        <time>2022-09-26T12:08:39Z</time>
      </trkpt>
      <trkpt lat="45.95923" lon="5.83551">
        <ele>268.7</ele>
        <time>2022-09-26T12:08:40Z</time>
      </trkpt>
      <trkpt lat="45.95923" lon="5.83551">
        <ele>268.7</ele>
        <time>2022-09-26T12:08:41Z</time>
      </trkpt>
      <trkpt lat="45.95923" lon="5.83551">
        <ele>268.7</ele>
        <time>2022-09-26T12:08:42Z</time>
      </trkpt>
      <trkpt lat="45.95923" lon="5.83552">
        <ele>268.7</ele>
        <time>2022-09-26T12:08:43Z</time>
      </trkpt>
      <trkpt lat="45.95923" lon="5.83552">
        <ele>268.7</ele>
        <time>2022-09-26T12:08:44Z</time>
      </trkpt>
      <trkpt lat="45.95923" lon="5.83551">
        <ele>268.7</ele>
        <time>2022-09-26T12:08:45Z</time>
      </trkpt>
      <trkpt lat="45.95923" lon="5.8355">
        <ele>268.7</ele>
        <time>2022-09-26T12:08:46Z</time>
      </trkpt>
      <trkpt lat="45.95923" lon="5.83548">
        <ele>268.7</ele>
        <time>2022-09-26T12:08:47Z</time>
      </trkpt>
      <trkpt lat="45.95923" lon="5.83547">
        <ele>268.7</ele>
        <time>2022-09-26T12:09:58Z</time>
      </trkpt>
      <trkpt lat="45.95923" lon="5.83546">
        <ele>268.7</ele>
        <time>2022-09-26T12:09:59Z</time>
      </trkpt>
      <trkpt lat="45.95924" lon="5.83544">
        <ele>268.7</ele>
        <time>2022-09-26T12:10:00Z</time>
      </trkpt>
      <trkpt lat="45.95924" lon="5.83543">
        <ele>268.7</ele>
        <time>2022-09-26T12:10:01Z</time>
      </trkpt>
      <trkpt lat="45.95924" lon="5.83542">
        <ele>268.7</ele>
        <time>2022-09-26T12:10:02Z</time>
      </trkpt>
      <trkpt lat="45.95924" lon="5.8354">
        <ele>268.7</ele>
        <time>2022-09-26T12:10:03Z</time>
      </trkpt>
      <trkpt lat="45.95924" lon="5.83539">
        <ele>268.7</ele>
        <time>2022-09-26T12:10:04Z</time>
      </trkpt>
      <trkpt lat="45.95924" lon="5.83538">
        <ele>268.7</ele>
        <time>2022-09-26T12:10:05Z</time>
      </trkpt>
      <trkpt lat="45.95923" lon="5.83539">
        <ele>268.7</ele>
        <time>2022-09-26T12:10:06Z</time>
      </trkpt>
      <trkpt lat="45.95923" lon="5.8354">
        <ele>268.7</ele>
        <time>2022-09-26T12:10:07Z</time>
      </trkpt>
      <trkpt lat="45.95923" lon="5.8354">
        <ele>268.7</ele>
        <time>2022-09-26T12:10:08Z</time>
      </trkpt>
      <trkpt lat="45.95923" lon="5.83541">
        <ele>268.7</ele>
        <time>2022-09-26T12:10:09Z</time>
      </trkpt>
      <trkpt lat="45.95923" lon="5.83541">
        <ele>268.7</ele>
        <time>2022-09-26T12:10:10Z</time>
      </trkpt>
      <trkpt lat="45.95923" lon="5.83542">
        <ele>268.7</ele>
        <time>2022-09-26T12:10:11Z</time>
      </trkpt>
      <trkpt lat="45.95923" lon="5.83542">
        <ele>268.7</ele>
        <time>2022-09-26T12:10:12Z</time>
      </trkpt>
      <trkpt lat="45.95923" lon="5.83543">
        <ele>268.7</ele>
        <time>2022-09-26T12:10:13Z</time>
      </trkpt>
      <trkpt lat="45.95922" lon="5.83543">
        <ele>268.7</ele>
        <time>2022-09-26T12:12:14Z</time>
      </trkpt>
      <trkpt lat="45.95922" lon="5.83544">
        <ele>268.7</ele>
        <time>2022-09-26T12:12:15Z</time>
      </trkpt>
      <trkpt lat="45.95922" lon="5.83544">
        <ele>268.7</ele>
        <time>2022-09-26T12:12:16Z</time>
      </trkpt>
      <trkpt lat="45.95922" lon="5.83545">
        <ele>268.7</ele>
        <time>2022-09-26T12:12:17Z</time>
      </trkpt>
      <trkpt lat="45.95922" lon="5.83545">
        <ele>268.7</ele>
        <time>2022-09-26T12:12:18Z</time>
      </trkpt>
      <trkpt lat="45.95922" lon="5.83546">
        <ele>268.7</ele>
        <time>2022-09-26T12:12:19Z</time>
      </trkpt>
      <trkpt lat="45.95922" lon="5.83546">
        <ele>268.7</ele>
        <time>2022-09-26T12:12:20Z</time>
      </trkpt>
      <trkpt lat="45.95922" lon="5.83547">
        <ele>268.7</ele>
        <time>2022-09-26T12:12:21Z</time>
      </trkpt>
      <trkpt lat="45.95922" lon="5.83547">
        <ele>268.7</ele>
        <time>2022-09-26T12:12:22Z</time>
      </trkpt>
      <trkpt lat="45.95922" lon="5.83548">
        <ele>268.7</ele>
        <time>2022-09-26T12:12:23Z</time>
      </trkpt>
      <trkpt lat="45.95922" lon="5.83548">
        <ele>268.7</ele>
        <time>2022-09-26T12:13:44Z</time>
      </trkpt>
      <trkpt lat="45.95921" lon="5.83549">
        <ele>268.7</ele>
        <time>2022-09-26T12:13:45Z</time>
      </trkpt>
      <trkpt lat="45.95921" lon="5.83549">
        <ele>268.7</ele>
        <time>2022-09-26T12:13:46Z</time>
      </trkpt>
      <trkpt lat="45.95921" lon="5.8355">
        <ele>268.7</ele>
        <time>2022-09-26T12:13:47Z</time>
      </trkpt>
      <trkpt lat="45.95921" lon="5.8355">
        <ele>268.7</ele>
        <time>2022-09-26T12:13:48Z</time>
      </trkpt>
      <trkpt lat="45.95921" lon="5.83551">
        <ele>268.7</ele>
        <time>2022-09-26T12:13:49Z</time>
      </trkpt>
      <trkpt lat="45.95921" lon="5.83551">
        <ele>268.7</ele>
        <time>2022-09-26T12:13:50Z</time>
      </trkpt>
      <trkpt lat="45.9592" lon="5.83549">
        <ele>268.7</ele>
        <time>2022-09-26T12:13:51Z</time>
      </trkpt>
      <trkpt lat="45.9592" lon="5.83546">
        <ele>268.7</ele>
        <time>2022-09-26T12:13:52Z</time>
      </trkpt>
      <trkpt lat="45.9592" lon="5.83542">
        <ele>268.7</ele>
        <time>2022-09-26T12:13:53Z</time>
      </trkpt>
      <trkpt lat="45.9592" lon="5.83539">
        <ele>268.7</ele>
        <time>2022-09-26T12:14:28Z</time>
      </trkpt>
      <trkpt lat="45.9592" lon="5.83536">
        <ele>268.7</ele>
        <time>2022-09-26T12:14:29Z</time>
      </trkpt>
      <trkpt lat="45.9592" lon="5.83532">
        <ele>268.7</ele>
        <time>2022-09-26T12:14:30Z</time>
      </trkpt>
      <trkpt lat="45.9592" lon="5.83531">
        <ele>268.7</ele>
        <time>2022-09-26T12:14:31Z</time>
      </trkpt>
      <trkpt lat="45.95919" lon="5.83529">
        <ele>268.7</ele>
        <time>2022-09-26T12:14:32Z</time>
      </trkpt>
      <trkpt lat="45.95919" lon="5.83528">
        <ele>268.7</ele>
        <time>2022-09-26T12:14:33Z</time>
      </trkpt>
      <trkpt lat="45.95919" lon="5.83527">
        <ele>268.7</ele>
        <time>2022-09-26T12:14:34Z</time>
      </trkpt>
      <trkpt lat="45.95919" lon="5.83526">
        <ele>268.7</ele>
        <time>2022-09-26T12:14:35Z</time>
      </trkpt>
      <trkpt lat="45.95919" lon="5.83525">
        <ele>268.7</ele>
        <time>2022-09-26T12:14:36Z</time>
      </trkpt>
      <trkpt lat="45.95919" lon="5.83523">
        <ele>268.7</ele>
        <time>2022-09-26T12:14:37Z</time>
      </trkpt>
      <trkpt lat="45.95919" lon="5.83525">
        <ele>268.7</ele>
        <time>2022-09-26T12:14:38Z</time>
      </trkpt>
      <trkpt lat="45.95919" lon="5.83527">
        <ele>268.7</ele>
        <time>2022-09-26T12:14:39Z</time>
      </trkpt>
      <trkpt lat="45.95919" lon="5.83529">
        <ele>268.7</ele>
        <time>2022-09-26T12:14:40Z</time>
      </trkpt>
      <trkpt lat="45.95919" lon="5.83531">
        <ele>268.7</ele>
        <time>2022-09-26T12:14:41Z</time>
      </trkpt>
      <trkpt lat="45.95919" lon="5.83532">
        <ele>268.7</ele>
        <time>2022-09-26T12:15:50Z</time>
      </trkpt>
      <trkpt lat="45.95919" lon="5.83534">
        <ele>268.6</ele>
        <time>2022-09-26T12:15:51Z</time>
      </trkpt>
      <trkpt lat="45.95919" lon="5.83536">
        <ele>268.6</ele>
        <time>2022-09-26T12:15:53Z</time>
      </trkpt>
      <trkpt lat="45.95919" lon="5.83538">
        <ele>268.6</ele>
        <time>2022-09-26T12:15:54Z</time>
      </trkpt>
      <trkpt lat="45.95919" lon="5.8354">
        <ele>268.6</ele>
        <time>2022-09-26T12:15:55Z</time>
      </trkpt>
      <trkpt lat="45.95919" lon="5.83542">
        <ele>268.6</ele>
        <time>2022-09-26T12:15:56Z</time>
      </trkpt>
      <trkpt lat="45.95919" lon="5.83544">
        <ele>268.6</ele>
        <time>2022-09-26T12:15:57Z</time>
      </trkpt>
      <trkpt lat="45.95919" lon="5.83546">
        <ele>268.6</ele>
        <time>2022-09-26T12:15:58Z</time>
      </trkpt>
      <trkpt lat="45.95918" lon="5.83548">
        <ele>268.6</ele>
        <time>2022-09-26T12:15:59Z</time>
      </trkpt>
      <trkpt lat="45.95918" lon="5.8355">
        <ele>268.6</ele>
        <time>2022-09-26T12:17:41Z</time>
      </trkpt>
      <trkpt lat="45.95918" lon="5.83552">
        <ele>268.6</ele>
        <time>2022-09-26T12:17:42Z</time>
      </trkpt>
      <trkpt lat="45.95918" lon="5.83554">
        <ele>268.6</ele>
        <time>2022-09-26T12:17:43Z</time>
      </trkpt>
      <trkpt lat="45.95918" lon="5.83556">
        <ele>268.6</ele>
        <time>2022-09-26T12:17:44Z</time>
      </trkpt>
      <trkpt lat="45.95919" lon="5.83553">
        <ele>268.6</ele>
        <time>2022-09-26T12:17:45Z</time>
      </trkpt>
      <trkpt lat="45.9592" lon="5.83551">
        <ele>268.6</ele>
        <time>2022-09-26T12:17:46Z</time>
      </trkpt>
      <trkpt lat="45.95921" lon="5.83552">
        <ele>268.6</ele>
        <time>2022-09-26T12:17:47Z</time>
      </trkpt>
      <trkpt lat="45.95922" lon="5.83552">
        <ele>268.6</ele>
        <time>2022-09-26T12:17:48Z</time>
      </trkpt>
      <trkpt lat="45.95923" lon="5.83552">
        <ele>268.6</ele>
        <time>2022-09-26T12:17:49Z</time>
      </trkpt>
      <trkpt lat="45.95923" lon="5.83551">
        <ele>268.6</ele>
        <time>2022-09-26T12:17:50Z</time>
      </trkpt>
      <trkpt lat="45.95924" lon="5.83551">
        <ele>268.6</ele>
        <time>2022-09-26T12:18:01Z</time>
      </trkpt>
      <trkpt lat="45.95925" lon="5.83551">
        <ele>268.6</ele>
        <time>2022-09-26T12:18:02Z</time>
      </trkpt>
      <trkpt lat="45.95926" lon="5.83551">
        <ele>268.6</ele>
        <time>2022-09-26T12:18:03Z</time>
      </trkpt>
      <trkpt lat="45.95927" lon="5.8355">
        <ele>268.6</ele>
        <time>2022-09-26T12:18:04Z</time>
      </trkpt>
      <trkpt lat="45.95929" lon="5.8355">
        <ele>268.6</ele>
        <time>2022-09-26T12:18:05Z</time>
      </trkpt>
      <trkpt lat="45.95931" lon="5.83551">
        <ele>268.6</ele>
        <time>2022-09-26T12:18:06Z</time>
      </trkpt>
      <trkpt lat="45.95933" lon="5.83553">
        <ele>268.6</ele>
        <time>2022-09-26T12:18:07Z</time>
      </trkpt>
      <trkpt lat="45.95933" lon="5.83554">
        <ele>268.6</ele>
        <time>2022-09-26T12:18:08Z</time>
      </trkpt>
      <trkpt lat="45.95935" lon="5.83557">
        <ele>268.6</ele>
        <time>2022-09-26T12:18:09Z</time>
      </trkpt>
      <trkpt lat="45.95936" lon="5.83559">
        <ele>268.6</ele>
        <time>2022-09-26T12:18:10Z</time>
      </trkpt>
      <trkpt lat="45.95937" lon="5.83561">
        <ele>268.7</ele>
        <time>2022-09-26T12:18:11Z</time>
      </trkpt>
      <trkpt lat="45.95938" lon="5.83566">
        <ele>268.6</ele>
        <time>2022-09-26T12:18:12Z</time>
      </trkpt>
      <trkpt lat="45.95939" lon="5.83567">
        <ele>268.6</ele>
        <time>2022-09-26T12:18:13Z</time>
      </trkpt>
      <trkpt lat="45.9594" lon="5.83571">
        <ele>268.5</ele>
        <time>2022-09-26T12:18:14Z</time>
      </trkpt>
      <trkpt lat="45.95941" lon="5.83572">
        <ele>268.5</ele>
        <time>2022-09-26T12:18:15Z</time>
      </trkpt>
      <trkpt lat="45.95943" lon="5.83576">
        <ele>268.3</ele>
        <time>2022-09-26T12:18:16Z</time>
      </trkpt>
      <trkpt lat="45.95943" lon="5.83577">
        <ele>268.3</ele>
        <time>2022-09-26T12:18:17Z</time>
      </trkpt>
      <trkpt lat="45.95945" lon="5.8358">
        <ele>268.2</ele>
        <time>2022-09-26T12:18:18Z</time>
      </trkpt>
      <trkpt lat="45.95947" lon="5.83585">
        <ele>268.1</ele>
        <time>2022-09-26T12:18:19Z</time>
      </trkpt>
      <trkpt lat="45.95947" lon="5.83586">
        <ele>268</ele>
        <time>2022-09-26T12:18:20Z</time>
      </trkpt>
      <trkpt lat="45.95949" lon="5.8359">
        <ele>267.9</ele>
        <time>2022-09-26T12:18:21Z</time>
      </trkpt>
      <trkpt lat="45.95951" lon="5.83591">
        <ele>267.9</ele>
        <time>2022-09-26T12:18:22Z</time>
      </trkpt>
      <trkpt lat="45.95953" lon="5.83594">
        <ele>267.7</ele>
        <time>2022-09-26T12:18:23Z</time>
      </trkpt>
      <trkpt lat="45.95954" lon="5.83595">
        <ele>267.7</ele>
        <time>2022-09-26T12:18:24Z</time>
      </trkpt>
      <trkpt lat="45.95956" lon="5.83599">
        <ele>267.6</ele>
        <time>2022-09-26T12:18:25Z</time>
      </trkpt>
      <trkpt lat="45.95958" lon="5.83603">
        <ele>267.4</ele>
        <time>2022-09-26T12:18:26Z</time>
      </trkpt>
      <trkpt lat="45.95961" lon="5.83608">
        <ele>267.3</ele>
        <time>2022-09-26T12:18:27Z</time>
      </trkpt>
      <trkpt lat="45.95963" lon="5.83613">
        <ele>267.2</ele>
        <time>2022-09-26T12:18:28Z</time>
      </trkpt>
      <trkpt lat="45.95965" lon="5.83617">
        <ele>267.1</ele>
        <time>2022-09-26T12:18:29Z</time>
      </trkpt>
      <trkpt lat="45.95967" lon="5.8362">
        <ele>267</ele>
        <time>2022-09-26T12:18:30Z</time>
      </trkpt>
      <trkpt lat="45.95968" lon="5.83625">
        <ele>266.9</ele>
        <time>2022-09-26T12:18:31Z</time>
      </trkpt>
      <trkpt lat="45.95969" lon="5.83631">
        <ele>266.9</ele>
        <time>2022-09-26T12:18:32Z</time>
      </trkpt>
      <trkpt lat="45.95969" lon="5.83632">
        <ele>266.8</ele>
        <time>2022-09-26T12:18:33Z</time>
      </trkpt>
      <trkpt lat="45.95969" lon="5.83636">
        <ele>266.8</ele>
        <time>2022-09-26T12:18:34Z</time>
      </trkpt>
      <trkpt lat="45.95968" lon="5.83641">
        <ele>266.7</ele>
        <time>2022-09-26T12:18:35Z</time>
      </trkpt>
      <trkpt lat="45.95968" lon="5.83642">
        <ele>266.6</ele>
        <time>2022-09-26T12:18:36Z</time>
      </trkpt>
      <trkpt lat="45.95969" lon="5.83645">
        <ele>266.6</ele>
        <time>2022-09-26T12:18:37Z</time>
      </trkpt>
      <trkpt lat="45.9597" lon="5.83646">
        <ele>266.6</ele>
        <time>2022-09-26T12:18:38Z</time>
      </trkpt>
      <trkpt lat="45.95971" lon="5.8365">
        <ele>266.5</ele>
        <time>2022-09-26T12:18:39Z</time>
      </trkpt>
      <trkpt lat="45.95972" lon="5.83651">
        <ele>266.5</ele>
        <time>2022-09-26T12:18:40Z</time>
      </trkpt>
      <trkpt lat="45.95974" lon="5.83655">
        <ele>266.4</ele>
        <time>2022-09-26T12:18:41Z</time>
      </trkpt>
      <trkpt lat="45.95975" lon="5.83657">
        <ele>266.3</ele>
        <time>2022-09-26T12:18:42Z</time>
      </trkpt>
      <trkpt lat="45.95978" lon="5.83659">
        <ele>266.3</ele>
        <time>2022-09-26T12:18:43Z</time>
      </trkpt>
      <trkpt lat="45.95981" lon="5.83659">
        <ele>266.3</ele>
        <time>2022-09-26T12:18:44Z</time>
      </trkpt>
      <trkpt lat="45.95983" lon="5.83659">
        <ele>266.3</ele>
        <time>2022-09-26T12:18:45Z</time>
      </trkpt>
      <trkpt lat="45.95985" lon="5.83659">
        <ele>266.3</ele>
        <time>2022-09-26T12:18:46Z</time>
      </trkpt>
      <trkpt lat="45.95989" lon="5.8366">
        <ele>266.3</ele>
        <time>2022-09-26T12:18:47Z</time>
      </trkpt>
      <trkpt lat="45.95992" lon="5.83659">
        <ele>266.3</ele>
        <time>2022-09-26T12:18:48Z</time>
      </trkpt>
      <trkpt lat="45.95993" lon="5.83659">
        <ele>266.3</ele>
        <time>2022-09-26T12:18:49Z</time>
      </trkpt>
      <trkpt lat="45.95996" lon="5.83659">
        <ele>266.3</ele>
        <time>2022-09-26T12:18:50Z</time>
      </trkpt>
      <trkpt lat="45.95997" lon="5.83659">
        <ele>266.3</ele>
        <time>2022-09-26T12:18:51Z</time>
      </trkpt>
      <trkpt lat="45.96001" lon="5.83659">
        <ele>266.3</ele>
        <time>2022-09-26T12:18:52Z</time>
      </trkpt>
      <trkpt lat="45.96002" lon="5.83659">
        <ele>266.3</ele>
        <time>2022-09-26T12:18:53Z</time>
      </trkpt>
      <trkpt lat="45.96005" lon="5.83659">
        <ele>266.3</ele>
        <time>2022-09-26T12:18:54Z</time>
      </trkpt>
      <trkpt lat="45.96007" lon="5.8366">
        <ele>266.3</ele>
        <time>2022-09-26T12:18:55Z</time>
      </trkpt>
      <trkpt lat="45.9601" lon="5.83661">
        <ele>266.3</ele>
        <time>2022-09-26T12:18:56Z</time>
      </trkpt>
      <trkpt lat="45.96012" lon="5.83662">
        <ele>266.3</ele>
        <time>2022-09-26T12:18:57Z</time>
      </trkpt>
      <trkpt lat="45.96016" lon="5.83661">
        <ele>266.3</ele>
        <time>2022-09-26T12:18:58Z</time>
      </trkpt>
      <trkpt lat="45.96018" lon="5.83661">
        <ele>266.3</ele>
        <time>2022-09-26T12:18:59Z</time>
      </trkpt>
      <trkpt lat="45.96021" lon="5.83661">
        <ele>266.3</ele>
        <time>2022-09-26T12:19:00Z</time>
      </trkpt>
      <trkpt lat="45.96025" lon="5.83661">
        <ele>266.3</ele>
        <time>2022-09-26T12:19:01Z</time>
      </trkpt>
      <trkpt lat="45.96026" lon="5.83661">
        <ele>266.2</ele>
        <time>2022-09-26T12:19:02Z</time>
      </trkpt>
      <trkpt lat="45.96029" lon="5.83662">
        <ele>266.2</ele>
        <time>2022-09-26T12:19:03Z</time>
      </trkpt>
      <trkpt lat="45.96034" lon="5.83662">
        <ele>266.1</ele>
        <time>2022-09-26T12:19:04Z</time>
      </trkpt>
      <trkpt lat="45.96037" lon="5.83662">
        <ele>266.1</ele>
        <time>2022-09-26T12:19:05Z</time>
      </trkpt>
      <trkpt lat="45.9604" lon="5.83662">
        <ele>266</ele>
        <time>2022-09-26T12:19:06Z</time>
      </trkpt>
      <trkpt lat="45.96044" lon="5.83663">
        <ele>266</ele>
        <time>2022-09-26T12:19:07Z</time>
      </trkpt>
      <trkpt lat="45.96047" lon="5.83663">
        <ele>265.9</ele>
        <time>2022-09-26T12:19:08Z</time>
      </trkpt>
      <trkpt lat="45.96051" lon="5.83663">
        <ele>265.8</ele>
        <time>2022-09-26T12:19:09Z</time>
      </trkpt>
      <trkpt lat="45.96053" lon="5.83663">
        <ele>265.8</ele>
        <time>2022-09-26T12:19:10Z</time>
      </trkpt>
      <trkpt lat="45.96056" lon="5.83666">
        <ele>265.7</ele>
        <time>2022-09-26T12:19:11Z</time>
      </trkpt>
      <trkpt lat="45.96057" lon="5.83666">
        <ele>265.6</ele>
        <time>2022-09-26T12:19:12Z</time>
      </trkpt>
      <trkpt lat="45.96059" lon="5.83667">
        <ele>265.6</ele>
        <time>2022-09-26T12:19:13Z</time>
      </trkpt>
      <trkpt lat="45.9606" lon="5.83667">
        <ele>265.6</ele>
        <time>2022-09-26T12:19:14Z</time>
      </trkpt>
      <trkpt lat="45.96061" lon="5.83667">
        <ele>265.5</ele>
        <time>2022-09-26T12:19:15Z</time>
      </trkpt>
      <trkpt lat="45.96062" lon="5.83668">
        <ele>265.5</ele>
        <time>2022-09-26T12:19:16Z</time>
      </trkpt>
      <trkpt lat="45.96063" lon="5.83668">
        <ele>265.5</ele>
        <time>2022-09-26T12:19:17Z</time>
      </trkpt>
      <trkpt lat="45.96064" lon="5.83669">
        <ele>265.4</ele>
        <time>2022-09-26T12:19:18Z</time>
      </trkpt>
      <trkpt lat="45.96066" lon="5.83669">
        <ele>265.4</ele>
        <time>2022-09-26T12:19:19Z</time>
      </trkpt>
      <trkpt lat="45.96067" lon="5.8367">
        <ele>265.4</ele>
        <time>2022-09-26T12:19:20Z</time>
      </trkpt>
      <trkpt lat="45.96068" lon="5.8367">
        <ele>265.3</ele>
        <time>2022-09-26T12:19:21Z</time>
      </trkpt>
      <trkpt lat="45.96069" lon="5.83671">
        <ele>265.3</ele>
        <time>2022-09-26T12:19:22Z</time>
      </trkpt>
      <trkpt lat="45.9607" lon="5.83671">
        <ele>265.3</ele>
        <time>2022-09-26T12:19:23Z</time>
      </trkpt>
      <trkpt lat="45.96071" lon="5.83671">
        <ele>265.2</ele>
        <time>2022-09-26T12:19:24Z</time>
      </trkpt>
      <trkpt lat="45.96072" lon="5.83672">
        <ele>265.2</ele>
        <time>2022-09-26T12:20:21Z</time>
      </trkpt>
      <trkpt lat="45.96073" lon="5.83672">
        <ele>265.2</ele>
        <time>2022-09-26T12:20:22Z</time>
      </trkpt>
      <trkpt lat="45.96074" lon="5.83673">
        <ele>265.1</ele>
        <time>2022-09-26T12:20:23Z</time>
      </trkpt>
      <trkpt lat="45.96076" lon="5.83673">
        <ele>265.1</ele>
        <time>2022-09-26T12:20:24Z</time>
      </trkpt>
      <trkpt lat="45.96079" lon="5.83673">
        <ele>265</ele>
        <time>2022-09-26T12:20:25Z</time>
      </trkpt>
      <trkpt lat="45.96082" lon="5.83673">
        <ele>264.9</ele>
        <time>2022-09-26T12:20:26Z</time>
      </trkpt>
      <trkpt lat="45.96083" lon="5.83674">
        <ele>264.9</ele>
        <time>2022-09-26T12:20:27Z</time>
      </trkpt>
      <trkpt lat="45.96086" lon="5.83674">
        <ele>264.8</ele>
        <time>2022-09-26T12:20:28Z</time>
      </trkpt>
      <trkpt lat="45.96087" lon="5.83674">
        <ele>264.8</ele>
        <time>2022-09-26T12:20:29Z</time>
      </trkpt>
      <trkpt lat="45.96088" lon="5.83674">
        <ele>264.8</ele>
        <time>2022-09-26T12:20:30Z</time>
      </trkpt>
      <trkpt lat="45.96088" lon="5.83674">
        <ele>264.8</ele>
        <time>2022-09-26T12:20:31Z</time>
      </trkpt>
      <trkpt lat="45.96088" lon="5.83674">
        <ele>264.8</ele>
        <time>2022-09-26T12:20:32Z</time>
      </trkpt>
      <trkpt lat="45.96089" lon="5.83674">
        <ele>264.7</ele>
        <time>2022-09-26T12:20:33Z</time>
      </trkpt>
      <trkpt lat="45.96091" lon="5.83673">
        <ele>264.7</ele>
        <time>2022-09-26T12:20:34Z</time>
      </trkpt>
      <trkpt lat="45.96093" lon="5.8367">
        <ele>264.6</ele>
        <time>2022-09-26T12:20:35Z</time>
      </trkpt>
      <trkpt lat="45.96094" lon="5.8367">
        <ele>264.6</ele>
        <time>2022-09-26T12:20:36Z</time>
      </trkpt>
      <trkpt lat="45.96098" lon="5.8367">
        <ele>264.5</ele>
        <time>2022-09-26T12:20:37Z</time>
      </trkpt>
      <trkpt lat="45.96099" lon="5.83671">
        <ele>264.5</ele>
        <time>2022-09-26T12:20:38Z</time>
      </trkpt>
      <trkpt lat="45.96102" lon="5.83672">
        <ele>264.4</ele>
        <time>2022-09-26T12:20:39Z</time>
      </trkpt>
      <trkpt lat="45.96103" lon="5.83673">
        <ele>264.4</ele>
        <time>2022-09-26T12:20:40Z</time>
      </trkpt>
      <trkpt lat="45.96107" lon="5.83673">
        <ele>264.4</ele>
        <time>2022-09-26T12:20:41Z</time>
      </trkpt>
      <trkpt lat="45.96108" lon="5.83673">
        <ele>264.4</ele>
        <time>2022-09-26T12:20:42Z</time>
      </trkpt>
      <trkpt lat="45.96111" lon="5.83672">
        <ele>264.4</ele>
        <time>2022-09-26T12:20:43Z</time>
      </trkpt>
      <trkpt lat="45.96112" lon="5.83671">
        <ele>264.4</ele>
        <time>2022-09-26T12:20:44Z</time>
      </trkpt>
      <trkpt lat="45.96112" lon="5.83666">
        <ele>264.4</ele>
        <time>2022-09-26T12:20:45Z</time>
      </trkpt>
      <trkpt lat="45.96112" lon="5.83664">
        <ele>264.4</ele>
        <time>2022-09-26T12:20:46Z</time>
      </trkpt>
      <trkpt lat="45.96109" lon="5.83661">
        <ele>263.9</ele>
        <time>2022-09-26T12:20:47Z</time>
      </trkpt>
      <trkpt lat="45.96109" lon="5.8366">
        <ele>263.8</ele>
        <time>2022-09-26T12:20:48Z</time>
      </trkpt>
      <trkpt lat="45.96108" lon="5.8366">
        <ele>263.7</ele>
        <time>2022-09-26T12:20:49Z</time>
      </trkpt>
      <trkpt lat="45.96108" lon="5.83658">
        <ele>263.5</ele>
        <time>2022-09-26T12:20:50Z</time>
      </trkpt>
      <trkpt lat="45.96107" lon="5.83656">
        <ele>263.3</ele>
        <time>2022-09-26T12:20:51Z</time>
      </trkpt>
      <trkpt lat="45.96106" lon="5.83652">
        <ele>262.9</ele>
        <time>2022-09-26T12:20:52Z</time>
      </trkpt>
      <trkpt lat="45.96105" lon="5.83651">
        <ele>262.7</ele>
        <time>2022-09-26T12:20:53Z</time>
      </trkpt>
      <trkpt lat="45.96104" lon="5.83648">
        <ele>262.5</ele>
        <time>2022-09-26T12:20:54Z</time>
      </trkpt>
      <trkpt lat="45.96104" lon="5.83647">
        <ele>262.3</ele>
        <time>2022-09-26T12:20:55Z</time>
      </trkpt>
      <trkpt lat="45.96102" lon="5.83644">
        <ele>261.9</ele>
        <time>2022-09-26T12:20:56Z</time>
      </trkpt>
      <trkpt lat="45.96101" lon="5.83642">
        <ele>261.8</ele>
        <time>2022-09-26T12:20:57Z</time>
      </trkpt>
      <trkpt lat="45.96099" lon="5.83635">
        <ele>261.1</ele>
        <time>2022-09-26T12:20:58Z</time>
      </trkpt>
      <trkpt lat="45.96098" lon="5.83631">
        <ele>260.8</ele>
        <time>2022-09-26T12:20:59Z</time>
      </trkpt>
      <trkpt lat="45.96098" lon="5.83626">
        <ele>260.5</ele>
        <time>2022-09-26T12:21:00Z</time>
      </trkpt>
      <trkpt lat="45.96098" lon="5.83621">
        <ele>259.6</ele>
        <time>2022-09-26T12:21:01Z</time>
      </trkpt>
      <trkpt lat="45.96098" lon="5.8362">
        <ele>259.6</ele>
        <time>2022-09-26T12:21:02Z</time>
      </trkpt>
      <trkpt lat="45.96099" lon="5.83615">
        <ele>259.5</ele>
        <time>2022-09-26T12:21:03Z</time>
      </trkpt>
      <trkpt lat="45.961" lon="5.83613">
        <ele>259.5</ele>
        <time>2022-09-26T12:21:04Z</time>
      </trkpt>
      <trkpt lat="45.961" lon="5.8361">
        <ele>259.5</ele>
        <time>2022-09-26T12:21:05Z</time>
      </trkpt>
      <trkpt lat="45.96102" lon="5.83609">
        <ele>259.5</ele>
        <time>2022-09-26T12:21:06Z</time>
      </trkpt>
      <trkpt lat="45.96105" lon="5.83608">
        <ele>259.5</ele>
        <time>2022-09-26T12:21:07Z</time>
      </trkpt>
      <trkpt lat="45.96108" lon="5.83605">
        <ele>259.5</ele>
        <time>2022-09-26T12:21:08Z</time>
      </trkpt>
      <trkpt lat="45.96112" lon="5.83604">
        <ele>259.6</ele>
        <time>2022-09-26T12:21:09Z</time>
      </trkpt>
      <trkpt lat="45.96116" lon="5.83604">
        <ele>259.6</ele>
        <time>2022-09-26T12:21:10Z</time>
      </trkpt>
      <trkpt lat="45.96118" lon="5.83605">
        <ele>259.6</ele>
        <time>2022-09-26T12:21:11Z</time>
      </trkpt>
      <trkpt lat="45.96122" lon="5.83605">
        <ele>259.6</ele>
        <time>2022-09-26T12:21:12Z</time>
      </trkpt>
      <trkpt lat="45.96125" lon="5.83606">
        <ele>259.7</ele>
        <time>2022-09-26T12:21:13Z</time>
      </trkpt>
      <trkpt lat="45.96129" lon="5.83604">
        <ele>259.7</ele>
        <time>2022-09-26T12:21:14Z</time>
      </trkpt>
      <trkpt lat="45.96133" lon="5.83604">
        <ele>259.8</ele>
        <time>2022-09-26T12:21:15Z</time>
      </trkpt>
      <trkpt lat="45.96135" lon="5.83604">
        <ele>259.8</ele>
        <time>2022-09-26T12:21:16Z</time>
      </trkpt>
      <trkpt lat="45.96138" lon="5.83603">
        <ele>259.8</ele>
        <time>2022-09-26T12:21:17Z</time>
      </trkpt>
      <trkpt lat="45.96142" lon="5.83602">
        <ele>259.8</ele>
        <time>2022-09-26T12:21:18Z</time>
      </trkpt>
      <trkpt lat="45.96146" lon="5.836">
        <ele>259.8</ele>
        <time>2022-09-26T12:21:19Z</time>
      </trkpt>
      <trkpt lat="45.96149" lon="5.83599">
        <ele>259.8</ele>
        <time>2022-09-26T12:21:20Z</time>
      </trkpt>
      <trkpt lat="45.96153" lon="5.83599">
        <ele>259.8</ele>
        <time>2022-09-26T12:21:21Z</time>
      </trkpt>
      <trkpt lat="45.96156" lon="5.83599">
        <ele>259.8</ele>
        <time>2022-09-26T12:21:22Z</time>
      </trkpt>
      <trkpt lat="45.9616" lon="5.83599">
        <ele>259.8</ele>
        <time>2022-09-26T12:21:23Z</time>
      </trkpt>
      <trkpt lat="45.96164" lon="5.83599">
        <ele>259.8</ele>
        <time>2022-09-26T12:21:24Z</time>
      </trkpt>
      <trkpt lat="45.96168" lon="5.83598">
        <ele>259.8</ele>
        <time>2022-09-26T12:21:25Z</time>
      </trkpt>
      <trkpt lat="45.96173" lon="5.83597">
        <ele>259.8</ele>
        <time>2022-09-26T12:21:26Z</time>
      </trkpt>
      <trkpt lat="45.96175" lon="5.83595">
        <ele>259.8</ele>
        <time>2022-09-26T12:21:27Z</time>
      </trkpt>
      <trkpt lat="45.96179" lon="5.83594">
        <ele>259.8</ele>
        <time>2022-09-26T12:21:28Z</time>
      </trkpt>
      <trkpt lat="45.96182" lon="5.83595">
        <ele>259.8</ele>
        <time>2022-09-26T12:21:29Z</time>
      </trkpt>
      <trkpt lat="45.96187" lon="5.83593">
        <ele>259.8</ele>
        <time>2022-09-26T12:21:30Z</time>
      </trkpt>
      <trkpt lat="45.96191" lon="5.83591">
        <ele>259.9</ele>
        <time>2022-09-26T12:21:31Z</time>
      </trkpt>
      <trkpt lat="45.96196" lon="5.83589">
        <ele>259.9</ele>
        <time>2022-09-26T12:21:32Z</time>
      </trkpt>
      <trkpt lat="45.962" lon="5.83586">
        <ele>259.9</ele>
        <time>2022-09-26T12:21:33Z</time>
      </trkpt>
      <trkpt lat="45.96205" lon="5.83585">
        <ele>259.9</ele>
        <time>2022-09-26T12:21:34Z</time>
      </trkpt>
      <trkpt lat="45.96209" lon="5.83584">
        <ele>259.9</ele>
        <time>2022-09-26T12:21:35Z</time>
      </trkpt>
      <trkpt lat="45.96213" lon="5.83582">
        <ele>259.9</ele>
        <time>2022-09-26T12:21:36Z</time>
      </trkpt>
      <trkpt lat="45.96218" lon="5.83579">
        <ele>259.9</ele>
        <time>2022-09-26T12:21:37Z</time>
      </trkpt>
      <trkpt lat="45.96222" lon="5.83578">
        <ele>259.9</ele>
        <time>2022-09-26T12:21:38Z</time>
      </trkpt>
      <trkpt lat="45.96226" lon="5.83577">
        <ele>259.9</ele>
        <time>2022-09-26T12:21:39Z</time>
      </trkpt>
      <trkpt lat="45.9623" lon="5.83577">
        <ele>259.9</ele>
        <time>2022-09-26T12:21:40Z</time>
      </trkpt>
      <trkpt lat="45.96234" lon="5.83577">
        <ele>259.9</ele>
        <time>2022-09-26T12:21:41Z</time>
      </trkpt>
      <trkpt lat="45.96237" lon="5.83578">
        <ele>259.8</ele>
        <time>2022-09-26T12:21:42Z</time>
      </trkpt>
      <trkpt lat="45.96242" lon="5.83579">
        <ele>259.8</ele>
        <time>2022-09-26T12:21:43Z</time>
      </trkpt>
      <trkpt lat="45.96243" lon="5.83579">
        <ele>259.8</ele>
        <time>2022-09-26T12:21:44Z</time>
      </trkpt>
      <trkpt lat="45.96247" lon="5.83579">
        <ele>259.8</ele>
        <time>2022-09-26T12:21:45Z</time>
      </trkpt>
      <trkpt lat="45.96249" lon="5.83579">
        <ele>259.8</ele>
        <time>2022-09-26T12:21:46Z</time>
      </trkpt>
      <trkpt lat="45.96253" lon="5.83576">
        <ele>259.8</ele>
        <time>2022-09-26T12:21:47Z</time>
      </trkpt>
      <trkpt lat="45.96256" lon="5.83573">
        <ele>259.8</ele>
        <time>2022-09-26T12:21:48Z</time>
      </trkpt>
      <trkpt lat="45.96258" lon="5.8357">
        <ele>259.8</ele>
        <time>2022-09-26T12:21:49Z</time>
      </trkpt>
      <trkpt lat="45.96262" lon="5.83569">
        <ele>259.7</ele>
        <time>2022-09-26T12:21:50Z</time>
      </trkpt>
      <trkpt lat="45.96265" lon="5.83567">
        <ele>259.7</ele>
        <time>2022-09-26T12:21:51Z</time>
      </trkpt>
      <trkpt lat="45.96268" lon="5.83565">
        <ele>259.7</ele>
        <time>2022-09-26T12:21:52Z</time>
      </trkpt>
      <trkpt lat="45.96273" lon="5.83564">
        <ele>259.7</ele>
        <time>2022-09-26T12:21:53Z</time>
      </trkpt>
      <trkpt lat="45.96278" lon="5.83561">
        <ele>259.6</ele>
        <time>2022-09-26T12:21:54Z</time>
      </trkpt>
      <trkpt lat="45.96282" lon="5.83559">
        <ele>259.6</ele>
        <time>2022-09-26T12:21:55Z</time>
      </trkpt>
      <trkpt lat="45.96287" lon="5.83555">
        <ele>259.6</ele>
        <time>2022-09-26T12:21:56Z</time>
      </trkpt>
      <trkpt lat="45.96293" lon="5.83551">
        <ele>259.7</ele>
        <time>2022-09-26T12:21:57Z</time>
      </trkpt>
      <trkpt lat="45.96298" lon="5.83547">
        <ele>259.8</ele>
        <time>2022-09-26T12:21:58Z</time>
      </trkpt>
      <trkpt lat="45.96301" lon="5.83545">
        <ele>260</ele>
        <time>2022-09-26T12:21:59Z</time>
      </trkpt>
      <trkpt lat="45.96306" lon="5.83543">
        <ele>260.2</ele>
        <time>2022-09-26T12:22:00Z</time>
      </trkpt>
      <trkpt lat="45.9631" lon="5.8354">
        <ele>260.4</ele>
        <time>2022-09-26T12:22:01Z</time>
      </trkpt>
      <trkpt lat="45.96315" lon="5.83537">
        <ele>260.7</ele>
        <time>2022-09-26T12:22:02Z</time>
      </trkpt>
      <trkpt lat="45.96317" lon="5.83535">
        <ele>261</ele>
        <time>2022-09-26T12:22:03Z</time>
      </trkpt>
      <trkpt lat="45.96321" lon="5.83533">
        <ele>261.2</ele>
        <time>2022-09-26T12:22:04Z</time>
      </trkpt>
      <trkpt lat="45.96324" lon="5.83531">
        <ele>261.5</ele>
        <time>2022-09-26T12:22:05Z</time>
      </trkpt>
      <trkpt lat="45.96327" lon="5.83529">
        <ele>261.8</ele>
        <time>2022-09-26T12:22:06Z</time>
      </trkpt>
      <trkpt lat="45.9633" lon="5.83528">
        <ele>262.1</ele>
        <time>2022-09-26T12:22:07Z</time>
      </trkpt>
      <trkpt lat="45.96333" lon="5.83527">
        <ele>262.3</ele>
        <time>2022-09-26T12:22:08Z</time>
      </trkpt>
      <trkpt lat="45.96335" lon="5.83527">
        <ele>262.6</ele>
        <time>2022-09-26T12:22:09Z</time>
      </trkpt>
      <trkpt lat="45.96336" lon="5.83525">
        <ele>262.7</ele>
        <time>2022-09-26T12:22:11Z</time>
      </trkpt>
      <trkpt lat="45.96337" lon="5.83525">
        <ele>262.8</ele>
        <time>2022-09-26T12:22:12Z</time>
      </trkpt>
      <trkpt lat="45.96339" lon="5.83525">
        <ele>263</ele>
        <time>2022-09-26T12:22:13Z</time>
      </trkpt>
      <trkpt lat="45.96342" lon="5.83523">
        <ele>263.3</ele>
        <time>2022-09-26T12:22:14Z</time>
      </trkpt>
      <trkpt lat="45.96345" lon="5.83521">
        <ele>263.6</ele>
        <time>2022-09-26T12:22:15Z</time>
      </trkpt>
      <trkpt lat="45.96346" lon="5.83521">
        <ele>263.8</ele>
        <time>2022-09-26T12:22:16Z</time>
      </trkpt>
      <trkpt lat="45.96349" lon="5.83519">
        <ele>264.1</ele>
        <time>2022-09-26T12:22:17Z</time>
      </trkpt>
      <trkpt lat="45.9635" lon="5.83518">
        <ele>264.3</ele>
        <time>2022-09-26T12:22:18Z</time>
      </trkpt>
      <trkpt lat="45.96351" lon="5.83519">
        <ele>264.4</ele>
        <time>2022-09-26T12:22:19Z</time>
      </trkpt>
      <trkpt lat="45.96353" lon="5.83518">
        <ele>264.6</ele>
        <time>2022-09-26T12:22:20Z</time>
      </trkpt>
      <trkpt lat="45.96357" lon="5.83519">
        <ele>265</ele>
        <time>2022-09-26T12:22:21Z</time>
      </trkpt>
      <trkpt lat="45.96358" lon="5.83519">
        <ele>265.1</ele>
        <time>2022-09-26T12:22:22Z</time>
      </trkpt>
      <trkpt lat="45.96361" lon="5.83519">
        <ele>265.4</ele>
        <time>2022-09-26T12:22:23Z</time>
      </trkpt>
      <trkpt lat="45.96362" lon="5.8352">
        <ele>265.5</ele>
        <time>2022-09-26T12:22:24Z</time>
      </trkpt>
      <trkpt lat="45.96364" lon="5.83521">
        <ele>265.8</ele>
        <time>2022-09-26T12:22:25Z</time>
      </trkpt>
      <trkpt lat="45.96365" lon="5.83521">
        <ele>265.9</ele>
        <time>2022-09-26T12:22:26Z</time>
      </trkpt>
      <trkpt lat="45.96368" lon="5.83522">
        <ele>266.1</ele>
        <time>2022-09-26T12:22:27Z</time>
      </trkpt>
      <trkpt lat="45.96369" lon="5.83522">
        <ele>266.2</ele>
        <time>2022-09-26T12:22:28Z</time>
      </trkpt>
      <trkpt lat="45.96371" lon="5.83523">
        <ele>266.5</ele>
        <time>2022-09-26T12:22:29Z</time>
      </trkpt>
      <trkpt lat="45.96372" lon="5.83523">
        <ele>266.6</ele>
        <time>2022-09-26T12:22:30Z</time>
      </trkpt>
      <trkpt lat="45.96374" lon="5.83523">
        <ele>266.7</ele>
        <time>2022-09-26T12:22:31Z</time>
      </trkpt>
      <trkpt lat="45.96375" lon="5.83523">
        <ele>266.9</ele>
        <time>2022-09-26T12:22:32Z</time>
      </trkpt>
      <trkpt lat="45.96378" lon="5.83523">
        <ele>267.1</ele>
        <time>2022-09-26T12:22:33Z</time>
      </trkpt>
      <trkpt lat="45.96379" lon="5.83523">
        <ele>267.3</ele>
        <time>2022-09-26T12:22:34Z</time>
      </trkpt>
      <trkpt lat="45.96379" lon="5.83523">
        <ele>267.3</ele>
        <time>2022-09-26T12:22:35Z</time>
      </trkpt>
      <trkpt lat="45.96381" lon="5.83524">
        <ele>267.4</ele>
        <time>2022-09-26T12:22:36Z</time>
      </trkpt>
      <trkpt lat="45.96383" lon="5.83523">
        <ele>267.6</ele>
        <time>2022-09-26T12:22:37Z</time>
      </trkpt>
      <trkpt lat="45.96384" lon="5.83524">
        <ele>267.8</ele>
        <time>2022-09-26T12:22:38Z</time>
      </trkpt>
      <trkpt lat="45.96386" lon="5.83525">
        <ele>267.9</ele>
        <time>2022-09-26T12:22:39Z</time>
      </trkpt>
      <trkpt lat="45.96388" lon="5.83525">
        <ele>268.1</ele>
        <time>2022-09-26T12:22:40Z</time>
      </trkpt>
      <trkpt lat="45.96389" lon="5.83526">
        <ele>268.2</ele>
        <time>2022-09-26T12:22:41Z</time>
      </trkpt>
      <trkpt lat="45.9639" lon="5.83526">
        <ele>268.3</ele>
        <time>2022-09-26T12:22:42Z</time>
      </trkpt>
      <trkpt lat="45.96392" lon="5.83526">
        <ele>268.5</ele>
        <time>2022-09-26T12:22:43Z</time>
      </trkpt>
      <trkpt lat="45.96393" lon="5.83527">
        <ele>268.6</ele>
        <time>2022-09-26T12:22:44Z</time>
      </trkpt>
      <trkpt lat="45.96396" lon="5.83527">
        <ele>268.9</ele>
        <time>2022-09-26T12:22:45Z</time>
      </trkpt>
      <trkpt lat="45.96397" lon="5.83527">
        <ele>269</ele>
        <time>2022-09-26T12:22:46Z</time>
      </trkpt>
      <trkpt lat="45.96399" lon="5.83528">
        <ele>269.1</ele>
        <time>2022-09-26T12:22:47Z</time>
      </trkpt>
      <trkpt lat="45.964" lon="5.83529">
        <ele>269.3</ele>
        <time>2022-09-26T12:22:48Z</time>
      </trkpt>
      <trkpt lat="45.96404" lon="5.8353">
        <ele>269.6</ele>
        <time>2022-09-26T12:22:49Z</time>
      </trkpt>
      <trkpt lat="45.96405" lon="5.8353">
        <ele>269.7</ele>
        <time>2022-09-26T12:22:50Z</time>
      </trkpt>
      <trkpt lat="45.96406" lon="5.83531">
        <ele>269.8</ele>
        <time>2022-09-26T12:22:51Z</time>
      </trkpt>
      <trkpt lat="45.96408" lon="5.83531">
        <ele>270</ele>
        <time>2022-09-26T12:22:52Z</time>
      </trkpt>
      <trkpt lat="45.96411" lon="5.83531">
        <ele>270.2</ele>
        <time>2022-09-26T12:22:53Z</time>
      </trkpt>
      <trkpt lat="45.96412" lon="5.83531">
        <ele>270.3</ele>
        <time>2022-09-26T12:22:54Z</time>
      </trkpt>
      <trkpt lat="45.96414" lon="5.83531">
        <ele>270.4</ele>
        <time>2022-09-26T12:22:55Z</time>
      </trkpt>
      <trkpt lat="45.96416" lon="5.83531">
        <ele>270.6</ele>
        <time>2022-09-26T12:22:56Z</time>
      </trkpt>
      <trkpt lat="45.96418" lon="5.83531">
        <ele>270.7</ele>
        <time>2022-09-26T12:22:57Z</time>
      </trkpt>
      <trkpt lat="45.96419" lon="5.83532">
        <ele>270.8</ele>
        <time>2022-09-26T12:22:58Z</time>
      </trkpt>
      <trkpt lat="45.96422" lon="5.83531">
        <ele>271</ele>
        <time>2022-09-26T12:22:59Z</time>
      </trkpt>
      <trkpt lat="45.96424" lon="5.83531">
        <ele>271.1</ele>
        <time>2022-09-26T12:23:00Z</time>
      </trkpt>
      <trkpt lat="45.96425" lon="5.83532">
        <ele>271.2</ele>
        <time>2022-09-26T12:23:01Z</time>
      </trkpt>
      <trkpt lat="45.96426" lon="5.8353">
        <ele>271.3</ele>
        <time>2022-09-26T12:23:02Z</time>
      </trkpt>
      <trkpt lat="45.96428" lon="5.83531">
        <ele>271.4</ele>
        <time>2022-09-26T12:23:03Z</time>
      </trkpt>
      <trkpt lat="45.96429" lon="5.83532">
        <ele>271.5</ele>
        <time>2022-09-26T12:23:04Z</time>
      </trkpt>
      <trkpt lat="45.96434" lon="5.83532">
        <ele>271.7</ele>
        <time>2022-09-26T12:23:05Z</time>
      </trkpt>
      <trkpt lat="45.96436" lon="5.83532">
        <ele>271.9</ele>
        <time>2022-09-26T12:23:06Z</time>
      </trkpt>
      <trkpt lat="45.96438" lon="5.8353">
        <ele>272</ele>
        <time>2022-09-26T12:23:07Z</time>
      </trkpt>
      <trkpt lat="45.96439" lon="5.8353">
        <ele>272</ele>
        <time>2022-09-26T12:23:08Z</time>
      </trkpt>
      <trkpt lat="45.96441" lon="5.8353">
        <ele>272.1</ele>
        <time>2022-09-26T12:23:09Z</time>
      </trkpt>
      <trkpt lat="45.96445" lon="5.83529">
        <ele>272.3</ele>
        <time>2022-09-26T12:23:10Z</time>
      </trkpt>
      <trkpt lat="45.96445" lon="5.83529">
        <ele>272.3</ele>
        <time>2022-09-26T12:23:11Z</time>
      </trkpt>
      <trkpt lat="45.96445" lon="5.83529">
        <ele>272.3</ele>
        <time>2022-09-26T12:23:12Z</time>
      </trkpt>
      <trkpt lat="45.96447" lon="5.83529">
        <ele>272.4</ele>
        <time>2022-09-26T12:23:13Z</time>
      </trkpt>
      <trkpt lat="45.9645" lon="5.83529">
        <ele>272.5</ele>
        <time>2022-09-26T12:23:14Z</time>
      </trkpt>
      <trkpt lat="45.96451" lon="5.83529">
        <ele>272.6</ele>
        <time>2022-09-26T12:23:15Z</time>
      </trkpt>
      <trkpt lat="45.96452" lon="5.83529">
        <ele>272.6</ele>
        <time>2022-09-26T12:23:16Z</time>
      </trkpt>
      <trkpt lat="45.96455" lon="5.83529">
        <ele>272.7</ele>
        <time>2022-09-26T12:23:17Z</time>
      </trkpt>
      <trkpt lat="45.96456" lon="5.83529">
        <ele>272.8</ele>
        <time>2022-09-26T12:23:18Z</time>
      </trkpt>
      <trkpt lat="45.96457" lon="5.83528">
        <ele>272.8</ele>
        <time>2022-09-26T12:23:19Z</time>
      </trkpt>
      <trkpt lat="45.9646" lon="5.83528">
        <ele>273</ele>
        <time>2022-09-26T12:23:20Z</time>
      </trkpt>
      <trkpt lat="45.96461" lon="5.83528">
        <ele>273</ele>
        <time>2022-09-26T12:23:21Z</time>
      </trkpt>
      <trkpt lat="45.96465" lon="5.83528">
        <ele>273.1</ele>
        <time>2022-09-26T12:23:22Z</time>
      </trkpt>
      <trkpt lat="45.96465" lon="5.83528">
        <ele>273.1</ele>
        <time>2022-09-26T12:23:23Z</time>
      </trkpt>
      <trkpt lat="45.96467" lon="5.83528">
        <ele>273.2</ele>
        <time>2022-09-26T12:23:24Z</time>
      </trkpt>
      <trkpt lat="45.96469" lon="5.83529">
        <ele>273.3</ele>
        <time>2022-09-26T12:23:25Z</time>
      </trkpt>
      <trkpt lat="45.96472" lon="5.83529">
        <ele>273.4</ele>
        <time>2022-09-26T12:23:26Z</time>
      </trkpt>
      <trkpt lat="45.96473" lon="5.83529">
        <ele>273.4</ele>
        <time>2022-09-26T12:23:27Z</time>
      </trkpt>
      <trkpt lat="45.96477" lon="5.83529">
        <ele>273.6</ele>
        <time>2022-09-26T12:23:28Z</time>
      </trkpt>
      <trkpt lat="45.96478" lon="5.83529">
        <ele>273.6</ele>
        <time>2022-09-26T12:23:29Z</time>
      </trkpt>
      <trkpt lat="45.96481" lon="5.8353">
        <ele>273.7</ele>
        <time>2022-09-26T12:23:30Z</time>
      </trkpt>
      <trkpt lat="45.96481" lon="5.8353">
        <ele>273.8</ele>
        <time>2022-09-26T12:23:31Z</time>
      </trkpt>
      <trkpt lat="45.96484" lon="5.8353">
        <ele>273.9</ele>
        <time>2022-09-26T12:23:32Z</time>
      </trkpt>
      <trkpt lat="45.96488" lon="5.83531">
        <ele>274</ele>
        <time>2022-09-26T12:23:33Z</time>
      </trkpt>
      <trkpt lat="45.96489" lon="5.83531">
        <ele>274.1</ele>
        <time>2022-09-26T12:23:34Z</time>
      </trkpt>
      <trkpt lat="45.96492" lon="5.83532">
        <ele>274.2</ele>
        <time>2022-09-26T12:23:35Z</time>
      </trkpt>
      <trkpt lat="45.96494" lon="5.83532">
        <ele>274.3</ele>
        <time>2022-09-26T12:23:36Z</time>
      </trkpt>
      <trkpt lat="45.96497" lon="5.83533">
        <ele>274.4</ele>
        <time>2022-09-26T12:23:37Z</time>
      </trkpt>
      <trkpt lat="45.96498" lon="5.83533">
        <ele>274.5</ele>
        <time>2022-09-26T12:23:38Z</time>
      </trkpt>
      <trkpt lat="45.96501" lon="5.83533">
        <ele>274.6</ele>
        <time>2022-09-26T12:23:39Z</time>
      </trkpt>
      <trkpt lat="45.96502" lon="5.83533">
        <ele>274.6</ele>
        <time>2022-09-26T12:23:40Z</time>
      </trkpt>
      <trkpt lat="45.96505" lon="5.83534">
        <ele>274.8</ele>
        <time>2022-09-26T12:23:41Z</time>
      </trkpt>
      <trkpt lat="45.96505" lon="5.83534">
        <ele>274.8</ele>
        <time>2022-09-26T12:23:42Z</time>
      </trkpt>
      <trkpt lat="45.96507" lon="5.83535">
        <ele>274.9</ele>
        <time>2022-09-26T12:23:43Z</time>
      </trkpt>
      <trkpt lat="45.96509" lon="5.83535">
        <ele>275</ele>
        <time>2022-09-26T12:23:44Z</time>
      </trkpt>
      <trkpt lat="45.96512" lon="5.83535">
        <ele>275.1</ele>
        <time>2022-09-26T12:23:45Z</time>
      </trkpt>
      <trkpt lat="45.96515" lon="5.83535">
        <ele>275.3</ele>
        <time>2022-09-26T12:23:46Z</time>
      </trkpt>
      <trkpt lat="45.96516" lon="5.83535">
        <ele>275.4</ele>
        <time>2022-09-26T12:23:47Z</time>
      </trkpt>
      <trkpt lat="45.9652" lon="5.83535">
        <ele>275.6</ele>
        <time>2022-09-26T12:23:48Z</time>
      </trkpt>
      <trkpt lat="45.96521" lon="5.83535">
        <ele>275.6</ele>
        <time>2022-09-26T12:23:49Z</time>
      </trkpt>
      <trkpt lat="45.96523" lon="5.83536">
        <ele>275.7</ele>
        <time>2022-09-26T12:23:50Z</time>
      </trkpt>
      <trkpt lat="45.96525" lon="5.83536">
        <ele>275.8</ele>
        <time>2022-09-26T12:23:51Z</time>
      </trkpt>
      <trkpt lat="45.96525" lon="5.83536">
        <ele>275.8</ele>
        <time>2022-09-26T12:23:52Z</time>
      </trkpt>
      <trkpt lat="45.96528" lon="5.83536">
        <ele>276</ele>
        <time>2022-09-26T12:23:53Z</time>
      </trkpt>
      <trkpt lat="45.96531" lon="5.83537">
        <ele>276.2</ele>
        <time>2022-09-26T12:23:54Z</time>
      </trkpt>
      <trkpt lat="45.96532" lon="5.83537">
        <ele>276.2</ele>
        <time>2022-09-26T12:23:55Z</time>
      </trkpt>
      <trkpt lat="45.96535" lon="5.83538">
        <ele>276.3</ele>
        <time>2022-09-26T12:23:56Z</time>
      </trkpt>
      <trkpt lat="45.96536" lon="5.83538">
        <ele>276.4</ele>
        <time>2022-09-26T12:23:57Z</time>
      </trkpt>
      <trkpt lat="45.96538" lon="5.83537">
        <ele>276.5</ele>
        <time>2022-09-26T12:23:58Z</time>
      </trkpt>
      <trkpt lat="45.96539" lon="5.83537">
        <ele>276.6</ele>
        <time>2022-09-26T12:23:59Z</time>
      </trkpt>
      <trkpt lat="45.96542" lon="5.83537">
        <ele>276.7</ele>
        <time>2022-09-26T12:24:00Z</time>
      </trkpt>
      <trkpt lat="45.96543" lon="5.83537">
        <ele>276.8</ele>
        <time>2022-09-26T12:24:01Z</time>
      </trkpt>
      <trkpt lat="45.96547" lon="5.83538">
        <ele>276.9</ele>
        <time>2022-09-26T12:24:02Z</time>
      </trkpt>
      <trkpt lat="45.96548" lon="5.83537">
        <ele>277</ele>
        <time>2022-09-26T12:24:03Z</time>
      </trkpt>
      <trkpt lat="45.96551" lon="5.83538">
        <ele>277.1</ele>
        <time>2022-09-26T12:24:04Z</time>
      </trkpt>
      <trkpt lat="45.96552" lon="5.83537">
        <ele>277.2</ele>
        <time>2022-09-26T12:24:05Z</time>
      </trkpt>
      <trkpt lat="45.96555" lon="5.83537">
        <ele>277.3</ele>
        <time>2022-09-26T12:24:06Z</time>
      </trkpt>
      <trkpt lat="45.96556" lon="5.83537">
        <ele>277.4</ele>
        <time>2022-09-26T12:24:07Z</time>
      </trkpt>
      <trkpt lat="45.96559" lon="5.83538">
        <ele>277.5</ele>
        <time>2022-09-26T12:24:08Z</time>
      </trkpt>
      <trkpt lat="45.9656" lon="5.83538">
        <ele>277.6</ele>
        <time>2022-09-26T12:24:09Z</time>
      </trkpt>
      <trkpt lat="45.96563" lon="5.83538">
        <ele>277.8</ele>
        <time>2022-09-26T12:24:10Z</time>
      </trkpt>
      <trkpt lat="45.96565" lon="5.83538">
        <ele>277.9</ele>
        <time>2022-09-26T12:24:11Z</time>
      </trkpt>
      <trkpt lat="45.96568" lon="5.8354">
        <ele>278.1</ele>
        <time>2022-09-26T12:24:12Z</time>
      </trkpt>
      <trkpt lat="45.96569" lon="5.8354">
        <ele>278.1</ele>
        <time>2022-09-26T12:24:13Z</time>
      </trkpt>
      <trkpt lat="45.96573" lon="5.8354">
        <ele>278.3</ele>
        <time>2022-09-26T12:24:14Z</time>
      </trkpt>
      <trkpt lat="45.96574" lon="5.8354">
        <ele>278.4</ele>
        <time>2022-09-26T12:24:15Z</time>
      </trkpt>
      <trkpt lat="45.96578" lon="5.83541">
        <ele>278.6</ele>
        <time>2022-09-26T12:24:17Z</time>
      </trkpt>
      <trkpt lat="45.96579" lon="5.83541">
        <ele>278.7</ele>
        <time>2022-09-26T12:24:18Z</time>
      </trkpt>
      <trkpt lat="45.96582" lon="5.83541">
        <ele>278.9</ele>
        <time>2022-09-26T12:24:19Z</time>
      </trkpt>
      <trkpt lat="45.96583" lon="5.83541">
        <ele>278.9</ele>
        <time>2022-09-26T12:24:20Z</time>
      </trkpt>
      <trkpt lat="45.96586" lon="5.83541">
        <ele>279.1</ele>
        <time>2022-09-26T12:24:21Z</time>
      </trkpt>
      <trkpt lat="45.96587" lon="5.83541">
        <ele>279.2</ele>
        <time>2022-09-26T12:24:22Z</time>
      </trkpt>
      <trkpt lat="45.96591" lon="5.83541">
        <ele>279.5</ele>
        <time>2022-09-26T12:24:23Z</time>
      </trkpt>
      <trkpt lat="45.96592" lon="5.83542">
        <ele>279.5</ele>
        <time>2022-09-26T12:24:24Z</time>
      </trkpt>
      <trkpt lat="45.96595" lon="5.83542">
        <ele>279.8</ele>
        <time>2022-09-26T12:24:25Z</time>
      </trkpt>
      <trkpt lat="45.96596" lon="5.83542">
        <ele>279.8</ele>
        <time>2022-09-26T12:24:26Z</time>
      </trkpt>
      <trkpt lat="45.96599" lon="5.83541">
        <ele>280</ele>
        <time>2022-09-26T12:24:27Z</time>
      </trkpt>
      <trkpt lat="45.966" lon="5.83541">
        <ele>280.1</ele>
        <time>2022-09-26T12:24:28Z</time>
      </trkpt>
      <trkpt lat="45.966" lon="5.83541">
        <ele>280.1</ele>
        <time>2022-09-26T12:24:29Z</time>
      </trkpt>
      <trkpt lat="45.96603" lon="5.8354">
        <ele>280.3</ele>
        <time>2022-09-26T12:24:30Z</time>
      </trkpt>
      <trkpt lat="45.96606" lon="5.83541">
        <ele>280.5</ele>
        <time>2022-09-26T12:24:31Z</time>
      </trkpt>
      <trkpt lat="45.96609" lon="5.83541">
        <ele>280.7</ele>
        <time>2022-09-26T12:24:32Z</time>
      </trkpt>
      <trkpt lat="45.9661" lon="5.83541">
        <ele>280.8</ele>
        <time>2022-09-26T12:24:33Z</time>
      </trkpt>
      <trkpt lat="45.96612" lon="5.83542">
        <ele>280.9</ele>
        <time>2022-09-26T12:24:34Z</time>
      </trkpt>
      <trkpt lat="45.96613" lon="5.83541">
        <ele>281</ele>
        <time>2022-09-26T12:24:35Z</time>
      </trkpt>
      <trkpt lat="45.96615" lon="5.83541">
        <ele>281.1</ele>
        <time>2022-09-26T12:24:36Z</time>
      </trkpt>
      <trkpt lat="45.96617" lon="5.83541">
        <ele>281.2</ele>
        <time>2022-09-26T12:24:37Z</time>
      </trkpt>
      <trkpt lat="45.96618" lon="5.83541">
        <ele>281.3</ele>
        <time>2022-09-26T12:24:38Z</time>
      </trkpt>
      <trkpt lat="45.96621" lon="5.83542">
        <ele>281.4</ele>
        <time>2022-09-26T12:24:39Z</time>
      </trkpt>
      <trkpt lat="45.96622" lon="5.83543">
        <ele>281.4</ele>
        <time>2022-09-26T12:24:40Z</time>
      </trkpt>
      <trkpt lat="45.96625" lon="5.83543">
        <ele>281.6</ele>
        <time>2022-09-26T12:24:41Z</time>
      </trkpt>
      <trkpt lat="45.96628" lon="5.83544">
        <ele>281.7</ele>
        <time>2022-09-26T12:24:42Z</time>
      </trkpt>
      <trkpt lat="45.96629" lon="5.83545">
        <ele>281.8</ele>
        <time>2022-09-26T12:24:43Z</time>
      </trkpt>
      <trkpt lat="45.96632" lon="5.83545">
        <ele>281.9</ele>
        <time>2022-09-26T12:24:44Z</time>
      </trkpt>
      <trkpt lat="45.96633" lon="5.83545">
        <ele>281.9</ele>
        <time>2022-09-26T12:24:45Z</time>
      </trkpt>
      <trkpt lat="45.96636" lon="5.83547">
        <ele>282</ele>
        <time>2022-09-26T12:24:46Z</time>
      </trkpt>
      <trkpt lat="45.96637" lon="5.83547">
        <ele>282.1</ele>
        <time>2022-09-26T12:24:47Z</time>
      </trkpt>
      <trkpt lat="45.9664" lon="5.83548">
        <ele>282.2</ele>
        <time>2022-09-26T12:24:48Z</time>
      </trkpt>
      <trkpt lat="45.96641" lon="5.83548">
        <ele>282.2</ele>
        <time>2022-09-26T12:24:49Z</time>
      </trkpt>
      <trkpt lat="45.96643" lon="5.83549">
        <ele>282.3</ele>
        <time>2022-09-26T12:24:50Z</time>
      </trkpt>
      <trkpt lat="45.96644" lon="5.83549">
        <ele>282.4</ele>
        <time>2022-09-26T12:24:51Z</time>
      </trkpt>
      <trkpt lat="45.96648" lon="5.8355">
        <ele>282.5</ele>
        <time>2022-09-26T12:24:52Z</time>
      </trkpt>
      <trkpt lat="45.96649" lon="5.83551">
        <ele>282.5</ele>
        <time>2022-09-26T12:24:53Z</time>
      </trkpt>
      <trkpt lat="45.9665" lon="5.83551">
        <ele>282.6</ele>
        <time>2022-09-26T12:24:54Z</time>
      </trkpt>
      <trkpt lat="45.96652" lon="5.83552">
        <ele>282.6</ele>
        <time>2022-09-26T12:24:55Z</time>
      </trkpt>
      <trkpt lat="45.96654" lon="5.83552">
        <ele>282.6</ele>
        <time>2022-09-26T12:24:56Z</time>
      </trkpt>
      <trkpt lat="45.96655" lon="5.83551">
        <ele>282.7</ele>
        <time>2022-09-26T12:24:57Z</time>
      </trkpt>
      <trkpt lat="45.96658" lon="5.83552">
        <ele>282.7</ele>
        <time>2022-09-26T12:24:58Z</time>
      </trkpt>
      <trkpt lat="45.96659" lon="5.83551">
        <ele>282.7</ele>
        <time>2022-09-26T12:24:59Z</time>
      </trkpt>
      <trkpt lat="45.96663" lon="5.83551">
        <ele>282.8</ele>
        <time>2022-09-26T12:25:00Z</time>
      </trkpt>
      <trkpt lat="45.96664" lon="5.83551">
        <ele>282.8</ele>
        <time>2022-09-26T12:25:01Z</time>
      </trkpt>
      <trkpt lat="45.96667" lon="5.83551">
        <ele>282.8</ele>
        <time>2022-09-26T12:25:02Z</time>
      </trkpt>
      <trkpt lat="45.96669" lon="5.83551">
        <ele>282.9</ele>
        <time>2022-09-26T12:25:03Z</time>
      </trkpt>
      <trkpt lat="45.96672" lon="5.8355">
        <ele>282.9</ele>
        <time>2022-09-26T12:25:04Z</time>
      </trkpt>
      <trkpt lat="45.96673" lon="5.8355">
        <ele>282.9</ele>
        <time>2022-09-26T12:25:05Z</time>
      </trkpt>
      <trkpt lat="45.96676" lon="5.8355">
        <ele>282.9</ele>
        <time>2022-09-26T12:25:06Z</time>
      </trkpt>
      <trkpt lat="45.96678" lon="5.83549">
        <ele>282.9</ele>
        <time>2022-09-26T12:25:07Z</time>
      </trkpt>
      <trkpt lat="45.96681" lon="5.8355">
        <ele>283</ele>
        <time>2022-09-26T12:25:08Z</time>
      </trkpt>
      <trkpt lat="45.96682" lon="5.83551">
        <ele>283</ele>
        <time>2022-09-26T12:25:09Z</time>
      </trkpt>
      <trkpt lat="45.96685" lon="5.8355">
        <ele>283</ele>
        <time>2022-09-26T12:25:10Z</time>
      </trkpt>
      <trkpt lat="45.96686" lon="5.8355">
        <ele>283</ele>
        <time>2022-09-26T12:25:11Z</time>
      </trkpt>
      <trkpt lat="45.9669" lon="5.8355">
        <ele>283</ele>
        <time>2022-09-26T12:25:12Z</time>
      </trkpt>
      <trkpt lat="45.96691" lon="5.8355">
        <ele>283</ele>
        <time>2022-09-26T12:25:13Z</time>
      </trkpt>
      <trkpt lat="45.96694" lon="5.83551">
        <ele>283</ele>
        <time>2022-09-26T12:25:14Z</time>
      </trkpt>
      <trkpt lat="45.96695" lon="5.83551">
        <ele>283.1</ele>
        <time>2022-09-26T12:25:15Z</time>
      </trkpt>
      <trkpt lat="45.96698" lon="5.83551">
        <ele>283.1</ele>
        <time>2022-09-26T12:25:16Z</time>
      </trkpt>
      <trkpt lat="45.96699" lon="5.8355">
        <ele>283.1</ele>
        <time>2022-09-26T12:25:17Z</time>
      </trkpt>
      <trkpt lat="45.96704" lon="5.8355">
        <ele>283.1</ele>
        <time>2022-09-26T12:25:18Z</time>
      </trkpt>
      <trkpt lat="45.96707" lon="5.8355">
        <ele>283.1</ele>
        <time>2022-09-26T12:25:19Z</time>
      </trkpt>
      <trkpt lat="45.96708" lon="5.83551">
        <ele>283.1</ele>
        <time>2022-09-26T12:25:20Z</time>
      </trkpt>
      <trkpt lat="45.96712" lon="5.8355">
        <ele>283.2</ele>
        <time>2022-09-26T12:25:21Z</time>
      </trkpt>
      <trkpt lat="45.96713" lon="5.8355">
        <ele>283.2</ele>
        <time>2022-09-26T12:25:22Z</time>
      </trkpt>
      <trkpt lat="45.96716" lon="5.8355">
        <ele>283.2</ele>
        <time>2022-09-26T12:25:23Z</time>
      </trkpt>
      <trkpt lat="45.96717" lon="5.8355">
        <ele>283.2</ele>
        <time>2022-09-26T12:25:24Z</time>
      </trkpt>
      <trkpt lat="45.96719" lon="5.8355">
        <ele>283.2</ele>
        <time>2022-09-26T12:25:25Z</time>
      </trkpt>
      <trkpt lat="45.9672" lon="5.8355">
        <ele>283.2</ele>
        <time>2022-09-26T12:25:26Z</time>
      </trkpt>
      <trkpt lat="45.96723" lon="5.8355">
        <ele>283.3</ele>
        <time>2022-09-26T12:25:27Z</time>
      </trkpt>
      <trkpt lat="45.96724" lon="5.8355">
        <ele>283.3</ele>
        <time>2022-09-26T12:25:28Z</time>
      </trkpt>
      <trkpt lat="45.96727" lon="5.8355">
        <ele>283.3</ele>
        <time>2022-09-26T12:25:29Z</time>
      </trkpt>
      <trkpt lat="45.96728" lon="5.8355">
        <ele>283.3</ele>
        <time>2022-09-26T12:25:30Z</time>
      </trkpt>
      <trkpt lat="45.96731" lon="5.83549">
        <ele>283.4</ele>
        <time>2022-09-26T12:25:31Z</time>
      </trkpt>
      <trkpt lat="45.96732" lon="5.83549">
        <ele>283.4</ele>
        <time>2022-09-26T12:25:32Z</time>
      </trkpt>
      <trkpt lat="45.96735" lon="5.83549">
        <ele>283.4</ele>
        <time>2022-09-26T12:25:33Z</time>
      </trkpt>
      <trkpt lat="45.96738" lon="5.83549">
        <ele>283.5</ele>
        <time>2022-09-26T12:25:34Z</time>
      </trkpt>
      <trkpt lat="45.9674" lon="5.83549">
        <ele>283.5</ele>
        <time>2022-09-26T12:25:35Z</time>
      </trkpt>
      <trkpt lat="45.96743" lon="5.83549">
        <ele>283.5</ele>
        <time>2022-09-26T12:25:36Z</time>
      </trkpt>
      <trkpt lat="45.96745" lon="5.83549">
        <ele>283.6</ele>
        <time>2022-09-26T12:25:37Z</time>
      </trkpt>
      <trkpt lat="45.96749" lon="5.83548">
        <ele>283.6</ele>
        <time>2022-09-26T12:25:38Z</time>
      </trkpt>
      <trkpt lat="45.9675" lon="5.83548">
        <ele>283.6</ele>
        <time>2022-09-26T12:25:39Z</time>
      </trkpt>
      <trkpt lat="45.96753" lon="5.83547">
        <ele>283.7</ele>
        <time>2022-09-26T12:25:40Z</time>
      </trkpt>
      <trkpt lat="45.96755" lon="5.83547">
        <ele>283.7</ele>
        <time>2022-09-26T12:25:41Z</time>
      </trkpt>
      <trkpt lat="45.96756" lon="5.83548">
        <ele>283.7</ele>
        <time>2022-09-26T12:25:42Z</time>
      </trkpt>
      <trkpt lat="45.96759" lon="5.83548">
        <ele>283.8</ele>
        <time>2022-09-26T12:25:43Z</time>
      </trkpt>
      <trkpt lat="45.9676" lon="5.83548">
        <ele>283.8</ele>
        <time>2022-09-26T12:25:44Z</time>
      </trkpt>
      <trkpt lat="45.96763" lon="5.83549">
        <ele>283.8</ele>
        <time>2022-09-26T12:25:45Z</time>
      </trkpt>
      <trkpt lat="45.96764" lon="5.83548">
        <ele>283.8</ele>
        <time>2022-09-26T12:25:46Z</time>
      </trkpt>
      <trkpt lat="45.96765" lon="5.83549">
        <ele>283.9</ele>
        <time>2022-09-26T12:25:47Z</time>
      </trkpt>
      <trkpt lat="45.96767" lon="5.83548">
        <ele>283.9</ele>
        <time>2022-09-26T12:25:48Z</time>
      </trkpt>
      <trkpt lat="45.96769" lon="5.83548">
        <ele>283.9</ele>
        <time>2022-09-26T12:25:49Z</time>
      </trkpt>
      <trkpt lat="45.96771" lon="5.83548">
        <ele>283.9</ele>
        <time>2022-09-26T12:25:50Z</time>
      </trkpt>
      <trkpt lat="45.96771" lon="5.83549">
        <ele>283.9</ele>
        <time>2022-09-26T12:25:51Z</time>
      </trkpt>
      <trkpt lat="45.96771" lon="5.83549">
        <ele>283.9</ele>
        <time>2022-09-26T12:25:52Z</time>
      </trkpt>
      <trkpt lat="45.96771" lon="5.8355">
        <ele>284</ele>
        <time>2022-09-26T12:25:53Z</time>
      </trkpt>
      <trkpt lat="45.96772" lon="5.83551">
        <ele>284</ele>
        <time>2022-09-26T12:25:54Z</time>
      </trkpt>
      <trkpt lat="45.96772" lon="5.83551">
        <ele>284</ele>
        <time>2022-09-26T12:25:55Z</time>
      </trkpt>
      <trkpt lat="45.96772" lon="5.83552">
        <ele>284</ele>
        <time>2022-09-26T12:25:56Z</time>
      </trkpt>
      <trkpt lat="45.96772" lon="5.83553">
        <ele>284</ele>
        <time>2022-09-26T12:25:57Z</time>
      </trkpt>
      <trkpt lat="45.96772" lon="5.83553">
        <ele>284</ele>
        <time>2022-09-26T12:25:58Z</time>
      </trkpt>
      <trkpt lat="45.96772" lon="5.83554">
        <ele>284</ele>
        <time>2022-09-26T12:25:59Z</time>
      </trkpt>
      <trkpt lat="45.96773" lon="5.83555">
        <ele>284</ele>
        <time>2022-09-26T12:26:00Z</time>
      </trkpt>
      <trkpt lat="45.96773" lon="5.83555">
        <ele>284</ele>
        <time>2022-09-26T12:27:11Z</time>
      </trkpt>
      <trkpt lat="45.96773" lon="5.83556">
        <ele>284</ele>
        <time>2022-09-26T12:27:12Z</time>
      </trkpt>
      <trkpt lat="45.96773" lon="5.83557">
        <ele>284</ele>
        <time>2022-09-26T12:27:13Z</time>
      </trkpt>
      <trkpt lat="45.96774" lon="5.83559">
        <ele>284</ele>
        <time>2022-09-26T12:27:14Z</time>
      </trkpt>
      <trkpt lat="45.96775" lon="5.8356">
        <ele>284.1</ele>
        <time>2022-09-26T12:27:15Z</time>
      </trkpt>
      <trkpt lat="45.96776" lon="5.83562">
        <ele>284.1</ele>
        <time>2022-09-26T12:27:16Z</time>
      </trkpt>
      <trkpt lat="45.96777" lon="5.83561">
        <ele>284.1</ele>
        <time>2022-09-26T12:27:17Z</time>
      </trkpt>
      <trkpt lat="45.96779" lon="5.83561">
        <ele>284.1</ele>
        <time>2022-09-26T12:27:18Z</time>
      </trkpt>
      <trkpt lat="45.96778" lon="5.83561">
        <ele>284.1</ele>
        <time>2022-09-26T12:27:19Z</time>
      </trkpt>
      <trkpt lat="45.96778" lon="5.83561">
        <ele>284.1</ele>
        <time>2022-09-26T12:27:20Z</time>
      </trkpt>
      <trkpt lat="45.96779" lon="5.8356">
        <ele>284.1</ele>
        <time>2022-09-26T12:27:21Z</time>
      </trkpt>
      <trkpt lat="45.9678" lon="5.8356">
        <ele>284.2</ele>
        <time>2022-09-26T12:27:22Z</time>
      </trkpt>
      <trkpt lat="45.96782" lon="5.8356">
        <ele>284.2</ele>
        <time>2022-09-26T12:27:23Z</time>
      </trkpt>
      <trkpt lat="45.96784" lon="5.83559">
        <ele>284.2</ele>
        <time>2022-09-26T12:27:24Z</time>
      </trkpt>
      <trkpt lat="45.96787" lon="5.83559">
        <ele>284.3</ele>
        <time>2022-09-26T12:27:25Z</time>
      </trkpt>
      <trkpt lat="45.96788" lon="5.83559">
        <ele>284.3</ele>
        <time>2022-09-26T12:27:26Z</time>
      </trkpt>
      <trkpt lat="45.96791" lon="5.83559">
        <ele>284.3</ele>
        <time>2022-09-26T12:27:27Z</time>
      </trkpt>
      <trkpt lat="45.96792" lon="5.83559">
        <ele>284.3</ele>
        <time>2022-09-26T12:27:28Z</time>
      </trkpt>
      <trkpt lat="45.96796" lon="5.8356">
        <ele>284.4</ele>
        <time>2022-09-26T12:27:29Z</time>
      </trkpt>
      <trkpt lat="45.96797" lon="5.8356">
        <ele>284.4</ele>
        <time>2022-09-26T12:27:30Z</time>
      </trkpt>
      <trkpt lat="45.968" lon="5.8356">
        <ele>284.4</ele>
        <time>2022-09-26T12:27:31Z</time>
      </trkpt>
      <trkpt lat="45.96801" lon="5.8356">
        <ele>284.4</ele>
        <time>2022-09-26T12:27:32Z</time>
      </trkpt>
      <trkpt lat="45.96804" lon="5.83559">
        <ele>284.4</ele>
        <time>2022-09-26T12:27:33Z</time>
      </trkpt>
      <trkpt lat="45.96809" lon="5.8356">
        <ele>284.4</ele>
        <time>2022-09-26T12:27:34Z</time>
      </trkpt>
      <trkpt lat="45.9681" lon="5.8356">
        <ele>284.5</ele>
        <time>2022-09-26T12:27:35Z</time>
      </trkpt>
      <trkpt lat="45.96814" lon="5.8356">
        <ele>284.5</ele>
        <time>2022-09-26T12:27:36Z</time>
      </trkpt>
      <trkpt lat="45.96817" lon="5.8356">
        <ele>284.5</ele>
        <time>2022-09-26T12:27:37Z</time>
      </trkpt>
      <trkpt lat="45.9682" lon="5.8356">
        <ele>284.5</ele>
        <time>2022-09-26T12:27:38Z</time>
      </trkpt>
      <trkpt lat="45.96823" lon="5.8356">
        <ele>284.5</ele>
        <time>2022-09-26T12:27:39Z</time>
      </trkpt>
      <trkpt lat="45.96826" lon="5.8356">
        <ele>284.5</ele>
        <time>2022-09-26T12:27:40Z</time>
      </trkpt>
      <trkpt lat="45.96829" lon="5.83559">
        <ele>284.5</ele>
        <time>2022-09-26T12:27:41Z</time>
      </trkpt>
      <trkpt lat="45.96832" lon="5.83559">
        <ele>284.5</ele>
        <time>2022-09-26T12:27:42Z</time>
      </trkpt>
      <trkpt lat="45.96836" lon="5.83559">
        <ele>284.5</ele>
        <time>2022-09-26T12:27:43Z</time>
      </trkpt>
      <trkpt lat="45.96839" lon="5.83559">
        <ele>284.5</ele>
        <time>2022-09-26T12:27:44Z</time>
      </trkpt>
      <trkpt lat="45.96843" lon="5.83559">
        <ele>284.5</ele>
        <time>2022-09-26T12:27:45Z</time>
      </trkpt>
      <trkpt lat="45.96845" lon="5.83558">
        <ele>284.5</ele>
        <time>2022-09-26T12:27:46Z</time>
      </trkpt>
      <trkpt lat="45.96848" lon="5.83557">
        <ele>284.5</ele>
        <time>2022-09-26T12:27:47Z</time>
      </trkpt>
      <trkpt lat="45.96851" lon="5.83558">
        <ele>284.4</ele>
        <time>2022-09-26T12:27:48Z</time>
      </trkpt>
      <trkpt lat="45.96855" lon="5.83557">
        <ele>284.4</ele>
        <time>2022-09-26T12:27:49Z</time>
      </trkpt>
      <trkpt lat="45.96858" lon="5.83557">
        <ele>284.4</ele>
        <time>2022-09-26T12:27:50Z</time>
      </trkpt>
      <trkpt lat="45.96862" lon="5.83558">
        <ele>284.3</ele>
        <time>2022-09-26T12:27:51Z</time>
      </trkpt>
      <trkpt lat="45.96866" lon="5.83557">
        <ele>284.3</ele>
        <time>2022-09-26T12:27:52Z</time>
      </trkpt>
      <trkpt lat="45.96869" lon="5.83557">
        <ele>284.3</ele>
        <time>2022-09-26T12:27:53Z</time>
      </trkpt>
      <trkpt lat="45.96872" lon="5.83557">
        <ele>284.3</ele>
        <time>2022-09-26T12:27:54Z</time>
      </trkpt>
      <trkpt lat="45.96876" lon="5.83558">
        <ele>284.2</ele>
        <time>2022-09-26T12:27:55Z</time>
      </trkpt>
      <trkpt lat="45.9688" lon="5.83559">
        <ele>284.2</ele>
        <time>2022-09-26T12:27:56Z</time>
      </trkpt>
      <trkpt lat="45.96884" lon="5.8356">
        <ele>284.2</ele>
        <time>2022-09-26T12:27:57Z</time>
      </trkpt>
      <trkpt lat="45.96888" lon="5.8356">
        <ele>284.1</ele>
        <time>2022-09-26T12:27:58Z</time>
      </trkpt>
      <trkpt lat="45.96893" lon="5.83561">
        <ele>284.1</ele>
        <time>2022-09-26T12:27:59Z</time>
      </trkpt>
      <trkpt lat="45.96898" lon="5.83561">
        <ele>284</ele>
        <time>2022-09-26T12:28:00Z</time>
      </trkpt>
      <trkpt lat="45.96902" lon="5.83562">
        <ele>284</ele>
        <time>2022-09-26T12:28:01Z</time>
      </trkpt>
      <trkpt lat="45.96907" lon="5.83562">
        <ele>283.9</ele>
        <time>2022-09-26T12:28:02Z</time>
      </trkpt>
      <trkpt lat="45.96912" lon="5.83565">
        <ele>283.8</ele>
        <time>2022-09-26T12:28:03Z</time>
      </trkpt>
      <trkpt lat="45.96917" lon="5.83565">
        <ele>283.8</ele>
        <time>2022-09-26T12:28:04Z</time>
      </trkpt>
      <trkpt lat="45.96921" lon="5.83566">
        <ele>283.7</ele>
        <time>2022-09-26T12:28:05Z</time>
      </trkpt>
      <trkpt lat="45.96927" lon="5.83567">
        <ele>283.6</ele>
        <time>2022-09-26T12:28:06Z</time>
      </trkpt>
      <trkpt lat="45.96933" lon="5.8357">
        <ele>283.5</ele>
        <time>2022-09-26T12:28:07Z</time>
      </trkpt>
      <trkpt lat="45.9694" lon="5.8357">
        <ele>283.4</ele>
        <time>2022-09-26T12:28:08Z</time>
      </trkpt>
      <trkpt lat="45.96946" lon="5.83571">
        <ele>283.3</ele>
        <time>2022-09-26T12:28:09Z</time>
      </trkpt>
      <trkpt lat="45.96952" lon="5.83571">
        <ele>283.2</ele>
        <time>2022-09-26T12:28:10Z</time>
      </trkpt>
      <trkpt lat="45.96957" lon="5.83572">
        <ele>283.1</ele>
        <time>2022-09-26T12:28:11Z</time>
      </trkpt>
      <trkpt lat="45.96961" lon="5.83572">
        <ele>283</ele>
        <time>2022-09-26T12:28:12Z</time>
      </trkpt>
      <trkpt lat="45.96965" lon="5.83573">
        <ele>282.9</ele>
        <time>2022-09-26T12:28:13Z</time>
      </trkpt>
      <trkpt lat="45.96971" lon="5.83575">
        <ele>282.8</ele>
        <time>2022-09-26T12:28:14Z</time>
      </trkpt>
      <trkpt lat="45.96976" lon="5.83575">
        <ele>282.7</ele>
        <time>2022-09-26T12:28:15Z</time>
      </trkpt>
      <trkpt lat="45.96982" lon="5.83574">
        <ele>282.6</ele>
        <time>2022-09-26T12:28:16Z</time>
      </trkpt>
      <trkpt lat="45.96988" lon="5.83575">
        <ele>282.6</ele>
        <time>2022-09-26T12:28:17Z</time>
      </trkpt>
      <trkpt lat="45.96994" lon="5.83576">
        <ele>282.5</ele>
        <time>2022-09-26T12:28:18Z</time>
      </trkpt>
      <trkpt lat="45.96999" lon="5.83575">
        <ele>282.4</ele>
        <time>2022-09-26T12:28:19Z</time>
      </trkpt>
      <trkpt lat="45.97005" lon="5.83575">
        <ele>282.3</ele>
        <time>2022-09-26T12:28:20Z</time>
      </trkpt>
      <trkpt lat="45.97011" lon="5.83574">
        <ele>282.2</ele>
        <time>2022-09-26T12:28:21Z</time>
      </trkpt>
      <trkpt lat="45.97017" lon="5.83576">
        <ele>282.2</ele>
        <time>2022-09-26T12:28:22Z</time>
      </trkpt>
      <trkpt lat="45.97024" lon="5.83575">
        <ele>282.1</ele>
        <time>2022-09-26T12:28:23Z</time>
      </trkpt>
      <trkpt lat="45.9703" lon="5.83575">
        <ele>282</ele>
        <time>2022-09-26T12:28:24Z</time>
      </trkpt>
      <trkpt lat="45.97036" lon="5.83574">
        <ele>281.9</ele>
        <time>2022-09-26T12:28:25Z</time>
      </trkpt>
      <trkpt lat="45.97041" lon="5.83575">
        <ele>281.9</ele>
        <time>2022-09-26T12:28:26Z</time>
      </trkpt>
      <trkpt lat="45.97047" lon="5.83574">
        <ele>281.8</ele>
        <time>2022-09-26T12:28:27Z</time>
      </trkpt>
      <trkpt lat="45.97053" lon="5.83574">
        <ele>281.7</ele>
        <time>2022-09-26T12:28:29Z</time>
      </trkpt>
      <trkpt lat="45.9706" lon="5.83574">
        <ele>281.6</ele>
        <time>2022-09-26T12:28:30Z</time>
      </trkpt>
      <trkpt lat="45.97067" lon="5.83573">
        <ele>281.4</ele>
        <time>2022-09-26T12:28:31Z</time>
      </trkpt>
      <trkpt lat="45.97072" lon="5.83573">
        <ele>281.3</ele>
        <time>2022-09-26T12:28:32Z</time>
      </trkpt>
      <trkpt lat="45.97077" lon="5.83572">
        <ele>281.2</ele>
        <time>2022-09-26T12:28:33Z</time>
      </trkpt>
      <trkpt lat="45.97083" lon="5.83573">
        <ele>281.1</ele>
        <time>2022-09-26T12:28:34Z</time>
      </trkpt>
      <trkpt lat="45.97089" lon="5.83572">
        <ele>280.9</ele>
        <time>2022-09-26T12:28:35Z</time>
      </trkpt>
      <trkpt lat="45.97095" lon="5.83572">
        <ele>280.7</ele>
        <time>2022-09-26T12:28:36Z</time>
      </trkpt>
      <trkpt lat="45.97102" lon="5.83571">
        <ele>280.4</ele>
        <time>2022-09-26T12:28:37Z</time>
      </trkpt>
      <trkpt lat="45.97108" lon="5.83571">
        <ele>280.2</ele>
        <time>2022-09-26T12:28:38Z</time>
      </trkpt>
      <trkpt lat="45.97115" lon="5.83571">
        <ele>279.8</ele>
        <time>2022-09-26T12:28:39Z</time>
      </trkpt>
      <trkpt lat="45.97122" lon="5.83571">
        <ele>279.5</ele>
        <time>2022-09-26T12:28:40Z</time>
      </trkpt>
      <trkpt lat="45.9713" lon="5.83572">
        <ele>279.1</ele>
        <time>2022-09-26T12:28:41Z</time>
      </trkpt>
      <trkpt lat="45.97137" lon="5.83573">
        <ele>278.8</ele>
        <time>2022-09-26T12:28:42Z</time>
      </trkpt>
      <trkpt lat="45.97144" lon="5.83575">
        <ele>278.3</ele>
        <time>2022-09-26T12:28:43Z</time>
      </trkpt>
      <trkpt lat="45.97152" lon="5.83578">
        <ele>277.9</ele>
        <time>2022-09-26T12:28:44Z</time>
      </trkpt>
      <trkpt lat="45.97159" lon="5.83581">
        <ele>277.5</ele>
        <time>2022-09-26T12:28:45Z</time>
      </trkpt>
      <trkpt lat="45.97166" lon="5.83585">
        <ele>277.1</ele>
        <time>2022-09-26T12:28:46Z</time>
      </trkpt>
      <trkpt lat="45.97173" lon="5.83589">
        <ele>276.7</ele>
        <time>2022-09-26T12:28:47Z</time>
      </trkpt>
      <trkpt lat="45.9718" lon="5.83595">
        <ele>276.3</ele>
        <time>2022-09-26T12:28:48Z</time>
      </trkpt>
      <trkpt lat="45.97186" lon="5.836">
        <ele>275.9</ele>
        <time>2022-09-26T12:28:49Z</time>
      </trkpt>
      <trkpt lat="45.97192" lon="5.83606">
        <ele>275.5</ele>
        <time>2022-09-26T12:28:50Z</time>
      </trkpt>
      <trkpt lat="45.97198" lon="5.83612">
        <ele>275.1</ele>
        <time>2022-09-26T12:28:51Z</time>
      </trkpt>
      <trkpt lat="45.97204" lon="5.83619">
        <ele>274.7</ele>
        <time>2022-09-26T12:28:52Z</time>
      </trkpt>
      <trkpt lat="45.97208" lon="5.83626">
        <ele>274.4</ele>
        <time>2022-09-26T12:28:53Z</time>
      </trkpt>
      <trkpt lat="45.97212" lon="5.83634">
        <ele>274.2</ele>
        <time>2022-09-26T12:28:54Z</time>
      </trkpt>
      <trkpt lat="45.97217" lon="5.83642">
        <ele>273.9</ele>
        <time>2022-09-26T12:28:55Z</time>
      </trkpt>
      <trkpt lat="45.97222" lon="5.8365">
        <ele>273.7</ele>
        <time>2022-09-26T12:28:56Z</time>
      </trkpt>
      <trkpt lat="45.97227" lon="5.83658">
        <ele>273.5</ele>
        <time>2022-09-26T12:28:57Z</time>
      </trkpt>
      <trkpt lat="45.97233" lon="5.83667">
        <ele>273.2</ele>
        <time>2022-09-26T12:28:58Z</time>
      </trkpt>
      <trkpt lat="45.97237" lon="5.83675">
        <ele>273</ele>
        <time>2022-09-26T12:28:59Z</time>
      </trkpt>
      <trkpt lat="45.97242" lon="5.83682">
        <ele>272.8</ele>
        <time>2022-09-26T12:29:00Z</time>
      </trkpt>
      <trkpt lat="45.97246" lon="5.83689">
        <ele>272.6</ele>
        <time>2022-09-26T12:29:01Z</time>
      </trkpt>
      <trkpt lat="45.97251" lon="5.83696">
        <ele>272.4</ele>
        <time>2022-09-26T12:29:02Z</time>
      </trkpt>
      <trkpt lat="45.97256" lon="5.83702">
        <ele>272.2</ele>
        <time>2022-09-26T12:29:03Z</time>
      </trkpt>
      <trkpt lat="45.97261" lon="5.83707">
        <ele>272</ele>
        <time>2022-09-26T12:29:04Z</time>
      </trkpt>
      <trkpt lat="45.97265" lon="5.83711">
        <ele>271.9</ele>
        <time>2022-09-26T12:29:05Z</time>
      </trkpt>
      <trkpt lat="45.9727" lon="5.83716">
        <ele>271.7</ele>
        <time>2022-09-26T12:29:06Z</time>
      </trkpt>
      <trkpt lat="45.9728" lon="5.83729">
        <ele>271.3</ele>
        <time>2022-09-26T12:29:07Z</time>
      </trkpt>
      <trkpt lat="45.97286" lon="5.83735">
        <ele>271</ele>
        <time>2022-09-26T12:29:08Z</time>
      </trkpt>
      <trkpt lat="45.97292" lon="5.83739">
        <ele>270.7</ele>
        <time>2022-09-26T12:29:09Z</time>
      </trkpt>
      <trkpt lat="45.97298" lon="5.83743">
        <ele>270.5</ele>
        <time>2022-09-26T12:29:10Z</time>
      </trkpt>
      <trkpt lat="45.97305" lon="5.83748">
        <ele>270.2</ele>
        <time>2022-09-26T12:29:11Z</time>
      </trkpt>
      <trkpt lat="45.97312" lon="5.83751">
        <ele>269.9</ele>
        <time>2022-09-26T12:29:12Z</time>
      </trkpt>
      <trkpt lat="45.97317" lon="5.83754">
        <ele>269.7</ele>
        <time>2022-09-26T12:29:13Z</time>
      </trkpt>
      <trkpt lat="45.97327" lon="5.83762">
        <ele>269.2</ele>
        <time>2022-09-26T12:29:14Z</time>
      </trkpt>
      <trkpt lat="45.97335" lon="5.83764">
        <ele>268.8</ele>
        <time>2022-09-26T12:29:15Z</time>
      </trkpt>
      <trkpt lat="45.97342" lon="5.83766">
        <ele>268.5</ele>
        <time>2022-09-26T12:29:16Z</time>
      </trkpt>
      <trkpt lat="45.97349" lon="5.83767">
        <ele>268.2</ele>
        <time>2022-09-26T12:29:17Z</time>
      </trkpt>
      <trkpt lat="45.97356" lon="5.83768">
        <ele>267.9</ele>
        <time>2022-09-26T12:29:18Z</time>
      </trkpt>
      <trkpt lat="45.97363" lon="5.83769">
        <ele>267.7</ele>
        <time>2022-09-26T12:29:19Z</time>
      </trkpt>
      <trkpt lat="45.97371" lon="5.83769">
        <ele>267.4</ele>
        <time>2022-09-26T12:29:20Z</time>
      </trkpt>
      <trkpt lat="45.97376" lon="5.8377">
        <ele>267.2</ele>
        <time>2022-09-26T12:29:21Z</time>
      </trkpt>
      <trkpt lat="45.97383" lon="5.8377">
        <ele>267</ele>
        <time>2022-09-26T12:29:22Z</time>
      </trkpt>
      <trkpt lat="45.97386" lon="5.83768">
        <ele>266.8</ele>
        <time>2022-09-26T12:29:23Z</time>
      </trkpt>
      <trkpt lat="45.97393" lon="5.83766">
        <ele>266.6</ele>
        <time>2022-09-26T12:29:24Z</time>
      </trkpt>
      <trkpt lat="45.974" lon="5.83764">
        <ele>266.4</ele>
        <time>2022-09-26T12:29:25Z</time>
      </trkpt>
      <trkpt lat="45.97406" lon="5.83762">
        <ele>266.2</ele>
        <time>2022-09-26T12:29:26Z</time>
      </trkpt>
      <trkpt lat="45.97413" lon="5.83763">
        <ele>266</ele>
        <time>2022-09-26T12:29:27Z</time>
      </trkpt>
      <trkpt lat="45.97421" lon="5.83761">
        <ele>265.8</ele>
        <time>2022-09-26T12:29:28Z</time>
      </trkpt>
      <trkpt lat="45.97429" lon="5.8376">
        <ele>265.7</ele>
        <time>2022-09-26T12:29:29Z</time>
      </trkpt>
      <trkpt lat="45.97438" lon="5.8376">
        <ele>265.6</ele>
        <time>2022-09-26T12:29:30Z</time>
      </trkpt>
      <trkpt lat="45.97447" lon="5.8376">
        <ele>265.5</ele>
        <time>2022-09-26T12:29:31Z</time>
      </trkpt>
      <trkpt lat="45.97455" lon="5.83761">
        <ele>265.5</ele>
        <time>2022-09-26T12:29:32Z</time>
      </trkpt>
      <trkpt lat="45.97463" lon="5.83761">
        <ele>265.4</ele>
        <time>2022-09-26T12:29:33Z</time>
      </trkpt>
      <trkpt lat="45.97471" lon="5.83762">
        <ele>265.4</ele>
        <time>2022-09-26T12:29:34Z</time>
      </trkpt>
      <trkpt lat="45.97479" lon="5.83763">
        <ele>265.4</ele>
        <time>2022-09-26T12:29:35Z</time>
      </trkpt>
      <trkpt lat="45.97485" lon="5.83765">
        <ele>265.3</ele>
        <time>2022-09-26T12:29:36Z</time>
      </trkpt>
      <trkpt lat="45.97492" lon="5.83767">
        <ele>265.3</ele>
        <time>2022-09-26T12:29:37Z</time>
      </trkpt>
      <trkpt lat="45.97499" lon="5.83768">
        <ele>265.3</ele>
        <time>2022-09-26T12:29:38Z</time>
      </trkpt>
      <trkpt lat="45.97505" lon="5.8377">
        <ele>265.3</ele>
        <time>2022-09-26T12:29:39Z</time>
      </trkpt>
      <trkpt lat="45.97511" lon="5.83771">
        <ele>265.3</ele>
        <time>2022-09-26T12:29:40Z</time>
      </trkpt>
      <trkpt lat="45.97517" lon="5.83773">
        <ele>265.4</ele>
        <time>2022-09-26T12:29:41Z</time>
      </trkpt>
      <trkpt lat="45.97523" lon="5.83774">
        <ele>265.4</ele>
        <time>2022-09-26T12:29:42Z</time>
      </trkpt>
      <trkpt lat="45.97528" lon="5.83776">
        <ele>265.4</ele>
        <time>2022-09-26T12:29:43Z</time>
      </trkpt>
      <trkpt lat="45.97533" lon="5.83779">
        <ele>265.5</ele>
        <time>2022-09-26T12:29:44Z</time>
      </trkpt>
      <trkpt lat="45.9754" lon="5.83782">
        <ele>265.5</ele>
        <time>2022-09-26T12:29:45Z</time>
      </trkpt>
      <trkpt lat="45.97545" lon="5.83786">
        <ele>265.5</ele>
        <time>2022-09-26T12:29:46Z</time>
      </trkpt>
      <trkpt lat="45.9755" lon="5.83789">
        <ele>265.5</ele>
        <time>2022-09-26T12:29:47Z</time>
      </trkpt>
      <trkpt lat="45.97556" lon="5.83793">
        <ele>265.5</ele>
        <time>2022-09-26T12:29:48Z</time>
      </trkpt>
      <trkpt lat="45.97561" lon="5.83795">
        <ele>265.5</ele>
        <time>2022-09-26T12:29:49Z</time>
      </trkpt>
      <trkpt lat="45.97564" lon="5.83797">
        <ele>265.5</ele>
        <time>2022-09-26T12:29:50Z</time>
      </trkpt>
      <trkpt lat="45.97569" lon="5.83799">
        <ele>265.4</ele>
        <time>2022-09-26T12:29:51Z</time>
      </trkpt>
      <trkpt lat="45.97573" lon="5.83803">
        <ele>265.4</ele>
        <time>2022-09-26T12:29:52Z</time>
      </trkpt>
      <trkpt lat="45.97578" lon="5.83806">
        <ele>265.4</ele>
        <time>2022-09-26T12:29:53Z</time>
      </trkpt>
      <trkpt lat="45.97583" lon="5.83812">
        <ele>265.3</ele>
        <time>2022-09-26T12:29:54Z</time>
      </trkpt>
      <trkpt lat="45.9759" lon="5.83819">
        <ele>265.3</ele>
        <time>2022-09-26T12:29:55Z</time>
      </trkpt>
      <trkpt lat="45.97597" lon="5.83825">
        <ele>265.2</ele>
        <time>2022-09-26T12:29:56Z</time>
      </trkpt>
      <trkpt lat="45.97603" lon="5.83829">
        <ele>265.2</ele>
        <time>2022-09-26T12:29:57Z</time>
      </trkpt>
      <trkpt lat="45.97609" lon="5.83834">
        <ele>265.2</ele>
        <time>2022-09-26T12:29:58Z</time>
      </trkpt>
      <trkpt lat="45.97614" lon="5.83838">
        <ele>265.2</ele>
        <time>2022-09-26T12:29:59Z</time>
      </trkpt>
      <trkpt lat="45.9762" lon="5.83842">
        <ele>265.2</ele>
        <time>2022-09-26T12:30:00Z</time>
      </trkpt>
      <trkpt lat="45.97626" lon="5.83847">
        <ele>265.3</ele>
        <time>2022-09-26T12:30:01Z</time>
      </trkpt>
      <trkpt lat="45.97632" lon="5.83851">
        <ele>265.3</ele>
        <time>2022-09-26T12:30:02Z</time>
      </trkpt>
      <trkpt lat="45.97638" lon="5.83855">
        <ele>265.4</ele>
        <time>2022-09-26T12:30:03Z</time>
      </trkpt>
      <trkpt lat="45.97643" lon="5.8386">
        <ele>265.4</ele>
        <time>2022-09-26T12:30:04Z</time>
      </trkpt>
      <trkpt lat="45.97647" lon="5.83865">
        <ele>265.4</ele>
        <time>2022-09-26T12:30:05Z</time>
      </trkpt>
      <trkpt lat="45.97652" lon="5.83869">
        <ele>265.4</ele>
        <time>2022-09-26T12:30:06Z</time>
      </trkpt>
      <trkpt lat="45.97656" lon="5.83873">
        <ele>265.4</ele>
        <time>2022-09-26T12:30:07Z</time>
      </trkpt>
      <trkpt lat="45.97662" lon="5.83876">
        <ele>265.4</ele>
        <time>2022-09-26T12:30:08Z</time>
      </trkpt>
      <trkpt lat="45.97667" lon="5.83881">
        <ele>265.3</ele>
        <time>2022-09-26T12:30:09Z</time>
      </trkpt>
      <trkpt lat="45.97672" lon="5.83884">
        <ele>265.3</ele>
        <time>2022-09-26T12:30:10Z</time>
      </trkpt>
      <trkpt lat="45.97678" lon="5.83888">
        <ele>265.3</ele>
        <time>2022-09-26T12:30:11Z</time>
      </trkpt>
      <trkpt lat="45.97681" lon="5.83893">
        <ele>265.3</ele>
        <time>2022-09-26T12:30:12Z</time>
      </trkpt>
      <trkpt lat="45.97687" lon="5.83898">
        <ele>265.3</ele>
        <time>2022-09-26T12:30:13Z</time>
      </trkpt>
      <trkpt lat="45.97692" lon="5.83901">
        <ele>265.3</ele>
        <time>2022-09-26T12:30:14Z</time>
      </trkpt>
      <trkpt lat="45.97697" lon="5.83906">
        <ele>265.4</ele>
        <time>2022-09-26T12:30:15Z</time>
      </trkpt>
      <trkpt lat="45.97702" lon="5.83912">
        <ele>265.4</ele>
        <time>2022-09-26T12:30:16Z</time>
      </trkpt>
      <trkpt lat="45.97706" lon="5.83917">
        <ele>265.4</ele>
        <time>2022-09-26T12:30:17Z</time>
      </trkpt>
      <trkpt lat="45.97709" lon="5.83922">
        <ele>265.4</ele>
        <time>2022-09-26T12:30:18Z</time>
      </trkpt>
      <trkpt lat="45.97713" lon="5.83927">
        <ele>265.5</ele>
        <time>2022-09-26T12:30:19Z</time>
      </trkpt>
      <trkpt lat="45.97716" lon="5.83932">
        <ele>265.5</ele>
        <time>2022-09-26T12:30:20Z</time>
      </trkpt>
      <trkpt lat="45.97721" lon="5.83937">
        <ele>265.6</ele>
        <time>2022-09-26T12:30:21Z</time>
      </trkpt>
      <trkpt lat="45.97725" lon="5.83942">
        <ele>265.6</ele>
        <time>2022-09-26T12:30:22Z</time>
      </trkpt>
      <trkpt lat="45.97729" lon="5.83949">
        <ele>265.7</ele>
        <time>2022-09-26T12:30:23Z</time>
      </trkpt>
      <trkpt lat="45.97732" lon="5.83957">
        <ele>265.7</ele>
        <time>2022-09-26T12:30:24Z</time>
      </trkpt>
      <trkpt lat="45.97736" lon="5.83964">
        <ele>265.8</ele>
        <time>2022-09-26T12:30:25Z</time>
      </trkpt>
      <trkpt lat="45.97739" lon="5.8397">
        <ele>265.8</ele>
        <time>2022-09-26T12:30:26Z</time>
      </trkpt>
      <trkpt lat="45.97743" lon="5.83976">
        <ele>265.9</ele>
        <time>2022-09-26T12:30:27Z</time>
      </trkpt>
      <trkpt lat="45.97746" lon="5.83983">
        <ele>265.9</ele>
        <time>2022-09-26T12:30:28Z</time>
      </trkpt>
      <trkpt lat="45.9775" lon="5.83988">
        <ele>266</ele>
        <time>2022-09-26T12:30:29Z</time>
      </trkpt>
      <trkpt lat="45.97753" lon="5.83995">
        <ele>266</ele>
        <time>2022-09-26T12:30:30Z</time>
      </trkpt>
      <trkpt lat="45.97756" lon="5.84">
        <ele>266.1</ele>
        <time>2022-09-26T12:30:31Z</time>
      </trkpt>
      <trkpt lat="45.97758" lon="5.84006">
        <ele>266.1</ele>
        <time>2022-09-26T12:30:32Z</time>
      </trkpt>
      <trkpt lat="45.9776" lon="5.84014">
        <ele>266.1</ele>
        <time>2022-09-26T12:30:33Z</time>
      </trkpt>
      <trkpt lat="45.97763" lon="5.84021">
        <ele>266.1</ele>
        <time>2022-09-26T12:30:35Z</time>
      </trkpt>
      <trkpt lat="45.97764" lon="5.84028">
        <ele>266.1</ele>
        <time>2022-09-26T12:30:36Z</time>
      </trkpt>
      <trkpt lat="45.97765" lon="5.84034">
        <ele>266.1</ele>
        <time>2022-09-26T12:30:37Z</time>
      </trkpt>
      <trkpt lat="45.97768" lon="5.84038">
        <ele>266.1</ele>
        <time>2022-09-26T12:30:38Z</time>
      </trkpt>
      <trkpt lat="45.9777" lon="5.84044">
        <ele>266.1</ele>
        <time>2022-09-26T12:30:39Z</time>
      </trkpt>
      <trkpt lat="45.97772" lon="5.84051">
        <ele>266.1</ele>
        <time>2022-09-26T12:30:40Z</time>
      </trkpt>
      <trkpt lat="45.97773" lon="5.84058">
        <ele>266.1</ele>
        <time>2022-09-26T12:30:41Z</time>
      </trkpt>
      <trkpt lat="45.97775" lon="5.84063">
        <ele>266.1</ele>
        <time>2022-09-26T12:30:42Z</time>
      </trkpt>
      <trkpt lat="45.97778" lon="5.8407">
        <ele>266.1</ele>
        <time>2022-09-26T12:30:43Z</time>
      </trkpt>
      <trkpt lat="45.9778" lon="5.84073">
        <ele>266.2</ele>
        <time>2022-09-26T12:30:44Z</time>
      </trkpt>
      <trkpt lat="45.97782" lon="5.84079">
        <ele>266.2</ele>
        <time>2022-09-26T12:30:45Z</time>
      </trkpt>
      <trkpt lat="45.97784" lon="5.84084">
        <ele>266.2</ele>
        <time>2022-09-26T12:30:46Z</time>
      </trkpt>
      <trkpt lat="45.97783" lon="5.84091">
        <ele>266.2</ele>
        <time>2022-09-26T12:30:47Z</time>
      </trkpt>
      <trkpt lat="45.97785" lon="5.84095">
        <ele>266.2</ele>
        <time>2022-09-26T12:30:48Z</time>
      </trkpt>
      <trkpt lat="45.97787" lon="5.841">
        <ele>266.2</ele>
        <time>2022-09-26T12:30:49Z</time>
      </trkpt>
      <trkpt lat="45.9779" lon="5.84106">
        <ele>266.2</ele>
        <time>2022-09-26T12:30:50Z</time>
      </trkpt>
      <trkpt lat="45.97793" lon="5.84111">
        <ele>266.3</ele>
        <time>2022-09-26T12:30:51Z</time>
      </trkpt>
      <trkpt lat="45.97795" lon="5.84114">
        <ele>266.3</ele>
        <time>2022-09-26T12:30:52Z</time>
      </trkpt>
      <trkpt lat="45.97799" lon="5.8412">
        <ele>266.3</ele>
        <time>2022-09-26T12:30:53Z</time>
      </trkpt>
      <trkpt lat="45.97802" lon="5.84125">
        <ele>266.3</ele>
        <time>2022-09-26T12:30:54Z</time>
      </trkpt>
      <trkpt lat="45.97805" lon="5.8413">
        <ele>266.4</ele>
        <time>2022-09-26T12:30:55Z</time>
      </trkpt>
      <trkpt lat="45.97808" lon="5.84134">
        <ele>266.4</ele>
        <time>2022-09-26T12:30:56Z</time>
      </trkpt>
      <trkpt lat="45.97811" lon="5.8414">
        <ele>266.4</ele>
        <time>2022-09-26T12:30:57Z</time>
      </trkpt>
      <trkpt lat="45.97814" lon="5.84144">
        <ele>266.4</ele>
        <time>2022-09-26T12:30:58Z</time>
      </trkpt>
      <trkpt lat="45.97818" lon="5.84148">
        <ele>266.4</ele>
        <time>2022-09-26T12:30:59Z</time>
      </trkpt>
      <trkpt lat="45.97821" lon="5.84152">
        <ele>266.4</ele>
        <time>2022-09-26T12:31:00Z</time>
      </trkpt>
      <trkpt lat="45.97825" lon="5.84157">
        <ele>266.4</ele>
        <time>2022-09-26T12:31:01Z</time>
      </trkpt>
      <trkpt lat="45.9783" lon="5.8416">
        <ele>266.5</ele>
        <time>2022-09-26T12:31:02Z</time>
      </trkpt>
      <trkpt lat="45.97833" lon="5.84165">
        <ele>266.5</ele>
        <time>2022-09-26T12:31:03Z</time>
      </trkpt>
      <trkpt lat="45.97837" lon="5.84168">
        <ele>266.5</ele>
        <time>2022-09-26T12:31:04Z</time>
      </trkpt>
      <trkpt lat="45.97842" lon="5.84171">
        <ele>266.5</ele>
        <time>2022-09-26T12:31:05Z</time>
      </trkpt>
      <trkpt lat="45.97846" lon="5.84174">
        <ele>266.6</ele>
        <time>2022-09-26T12:31:06Z</time>
      </trkpt>
      <trkpt lat="45.9785" lon="5.84179">
        <ele>266.6</ele>
        <time>2022-09-26T12:31:07Z</time>
      </trkpt>
      <trkpt lat="45.97854" lon="5.84183">
        <ele>266.6</ele>
        <time>2022-09-26T12:31:08Z</time>
      </trkpt>
      <trkpt lat="45.97859" lon="5.84187">
        <ele>266.7</ele>
        <time>2022-09-26T12:31:09Z</time>
      </trkpt>
      <trkpt lat="45.97863" lon="5.8419">
        <ele>266.7</ele>
        <time>2022-09-26T12:31:10Z</time>
      </trkpt>
      <trkpt lat="45.97867" lon="5.84194">
        <ele>266.7</ele>
        <time>2022-09-26T12:31:11Z</time>
      </trkpt>
      <trkpt lat="45.97872" lon="5.84198">
        <ele>266.7</ele>
        <time>2022-09-26T12:31:12Z</time>
      </trkpt>
      <trkpt lat="45.97878" lon="5.84201">
        <ele>266.8</ele>
        <time>2022-09-26T12:31:13Z</time>
      </trkpt>
      <trkpt lat="45.97882" lon="5.84205">
        <ele>266.8</ele>
        <time>2022-09-26T12:31:14Z</time>
      </trkpt>
      <trkpt lat="45.97887" lon="5.84207">
        <ele>266.8</ele>
        <time>2022-09-26T12:31:15Z</time>
      </trkpt>
      <trkpt lat="45.97893" lon="5.8421">
        <ele>266.8</ele>
        <time>2022-09-26T12:31:16Z</time>
      </trkpt>
      <trkpt lat="45.97898" lon="5.84211">
        <ele>266.8</ele>
        <time>2022-09-26T12:31:17Z</time>
      </trkpt>
      <trkpt lat="45.97903" lon="5.84216">
        <ele>266.8</ele>
        <time>2022-09-26T12:31:18Z</time>
      </trkpt>
      <trkpt lat="45.97908" lon="5.84217">
        <ele>266.8</ele>
        <time>2022-09-26T12:31:19Z</time>
      </trkpt>
      <trkpt lat="45.97919" lon="5.8422">
        <ele>266.9</ele>
        <time>2022-09-26T12:31:20Z</time>
      </trkpt>
      <trkpt lat="45.97924" lon="5.84221">
        <ele>266.9</ele>
        <time>2022-09-26T12:31:21Z</time>
      </trkpt>
      <trkpt lat="45.9793" lon="5.84222">
        <ele>266.9</ele>
        <time>2022-09-26T12:31:22Z</time>
      </trkpt>
      <trkpt lat="45.97935" lon="5.84221">
        <ele>267</ele>
        <time>2022-09-26T12:31:23Z</time>
      </trkpt>
      <trkpt lat="45.97941" lon="5.84222">
        <ele>267</ele>
        <time>2022-09-26T12:31:24Z</time>
      </trkpt>
      <trkpt lat="45.97946" lon="5.84224">
        <ele>267</ele>
        <time>2022-09-26T12:31:25Z</time>
      </trkpt>
      <trkpt lat="45.97952" lon="5.84226">
        <ele>267</ele>
        <time>2022-09-26T12:31:26Z</time>
      </trkpt>
      <trkpt lat="45.97957" lon="5.84226">
        <ele>267.1</ele>
        <time>2022-09-26T12:31:27Z</time>
      </trkpt>
      <trkpt lat="45.97962" lon="5.84227">
        <ele>267.1</ele>
        <time>2022-09-26T12:31:28Z</time>
      </trkpt>
      <trkpt lat="45.97967" lon="5.84227">
        <ele>267.1</ele>
        <time>2022-09-26T12:31:29Z</time>
      </trkpt>
      <trkpt lat="45.97971" lon="5.84227">
        <ele>267.1</ele>
        <time>2022-09-26T12:31:30Z</time>
      </trkpt>
      <trkpt lat="45.97975" lon="5.84229">
        <ele>267.2</ele>
        <time>2022-09-26T12:31:31Z</time>
      </trkpt>
      <trkpt lat="45.97979" lon="5.8423">
        <ele>267.2</ele>
        <time>2022-09-26T12:31:32Z</time>
      </trkpt>
      <trkpt lat="45.97985" lon="5.8423">
        <ele>267.3</ele>
        <time>2022-09-26T12:31:33Z</time>
      </trkpt>
      <trkpt lat="45.97991" lon="5.8423">
        <ele>267.3</ele>
        <time>2022-09-26T12:31:34Z</time>
      </trkpt>
      <trkpt lat="45.97996" lon="5.84231">
        <ele>267.4</ele>
        <time>2022-09-26T12:31:35Z</time>
      </trkpt>
      <trkpt lat="45.98" lon="5.84232">
        <ele>267.4</ele>
        <time>2022-09-26T12:31:36Z</time>
      </trkpt>
      <trkpt lat="45.98003" lon="5.84233">
        <ele>267.4</ele>
        <time>2022-09-26T12:31:37Z</time>
      </trkpt>
      <trkpt lat="45.98007" lon="5.84232">
        <ele>267.5</ele>
        <time>2022-09-26T12:31:38Z</time>
      </trkpt>
      <trkpt lat="45.98012" lon="5.84232">
        <ele>267.5</ele>
        <time>2022-09-26T12:31:39Z</time>
      </trkpt>
      <trkpt lat="45.98016" lon="5.84234">
        <ele>267.6</ele>
        <time>2022-09-26T12:31:40Z</time>
      </trkpt>
      <trkpt lat="45.98021" lon="5.84235">
        <ele>267.6</ele>
        <time>2022-09-26T12:31:41Z</time>
      </trkpt>
      <trkpt lat="45.98025" lon="5.84237">
        <ele>267.6</ele>
        <time>2022-09-26T12:31:42Z</time>
      </trkpt>
      <trkpt lat="45.98031" lon="5.84239">
        <ele>267.6</ele>
        <time>2022-09-26T12:31:43Z</time>
      </trkpt>
      <trkpt lat="45.98035" lon="5.84241">
        <ele>267.6</ele>
        <time>2022-09-26T12:31:44Z</time>
      </trkpt>
      <trkpt lat="45.98039" lon="5.84244">
        <ele>267.6</ele>
        <time>2022-09-26T12:31:45Z</time>
      </trkpt>
      <trkpt lat="45.98042" lon="5.84245">
        <ele>267.6</ele>
        <time>2022-09-26T12:31:46Z</time>
      </trkpt>
      <trkpt lat="45.98046" lon="5.84247">
        <ele>267.7</ele>
        <time>2022-09-26T12:31:47Z</time>
      </trkpt>
      <trkpt lat="45.9805" lon="5.84248">
        <ele>267.7</ele>
        <time>2022-09-26T12:31:48Z</time>
      </trkpt>
      <trkpt lat="45.98054" lon="5.84249">
        <ele>267.7</ele>
        <time>2022-09-26T12:31:49Z</time>
      </trkpt>
      <trkpt lat="45.98059" lon="5.84251">
        <ele>267.7</ele>
        <time>2022-09-26T12:31:50Z</time>
      </trkpt>
      <trkpt lat="45.98063" lon="5.84254">
        <ele>267.7</ele>
        <time>2022-09-26T12:31:51Z</time>
      </trkpt>
      <trkpt lat="45.98068" lon="5.84258">
        <ele>267.7</ele>
        <time>2022-09-26T12:31:52Z</time>
      </trkpt>
      <trkpt lat="45.98072" lon="5.84261">
        <ele>267.8</ele>
        <time>2022-09-26T12:31:53Z</time>
      </trkpt>
      <trkpt lat="45.98077" lon="5.84267">
        <ele>267.8</ele>
        <time>2022-09-26T12:31:54Z</time>
      </trkpt>
      <trkpt lat="45.98081" lon="5.8427">
        <ele>267.8</ele>
        <time>2022-09-26T12:31:55Z</time>
      </trkpt>
      <trkpt lat="45.98085" lon="5.84274">
        <ele>267.8</ele>
        <time>2022-09-26T12:31:56Z</time>
      </trkpt>
      <trkpt lat="45.98089" lon="5.84278">
        <ele>267.8</ele>
        <time>2022-09-26T12:31:57Z</time>
      </trkpt>
      <trkpt lat="45.98091" lon="5.84283">
        <ele>267.8</ele>
        <time>2022-09-26T12:31:58Z</time>
      </trkpt>
      <trkpt lat="45.98095" lon="5.84288">
        <ele>267.8</ele>
        <time>2022-09-26T12:31:59Z</time>
      </trkpt>
      <trkpt lat="45.98099" lon="5.84294">
        <ele>267.8</ele>
        <time>2022-09-26T12:32:00Z</time>
      </trkpt>
      <trkpt lat="45.98103" lon="5.84301">
        <ele>267.8</ele>
        <time>2022-09-26T12:32:01Z</time>
      </trkpt>
      <trkpt lat="45.98109" lon="5.84307">
        <ele>267.8</ele>
        <time>2022-09-26T12:32:02Z</time>
      </trkpt>
      <trkpt lat="45.98115" lon="5.84314">
        <ele>267.8</ele>
        <time>2022-09-26T12:32:03Z</time>
      </trkpt>
      <trkpt lat="45.98119" lon="5.84321">
        <ele>267.9</ele>
        <time>2022-09-26T12:32:04Z</time>
      </trkpt>
      <trkpt lat="45.98124" lon="5.84327">
        <ele>267.9</ele>
        <time>2022-09-26T12:32:05Z</time>
      </trkpt>
      <trkpt lat="45.98127" lon="5.84333">
        <ele>267.9</ele>
        <time>2022-09-26T12:32:06Z</time>
      </trkpt>
      <trkpt lat="45.9813" lon="5.84339">
        <ele>267.9</ele>
        <time>2022-09-26T12:32:07Z</time>
      </trkpt>
      <trkpt lat="45.98133" lon="5.84344">
        <ele>267.9</ele>
        <time>2022-09-26T12:32:08Z</time>
      </trkpt>
      <trkpt lat="45.98136" lon="5.8435">
        <ele>267.9</ele>
        <time>2022-09-26T12:32:09Z</time>
      </trkpt>
      <trkpt lat="45.9814" lon="5.84356">
        <ele>267.9</ele>
        <time>2022-09-26T12:32:10Z</time>
      </trkpt>
      <trkpt lat="45.98141" lon="5.84362">
        <ele>267.9</ele>
        <time>2022-09-26T12:32:11Z</time>
      </trkpt>
      <trkpt lat="45.98144" lon="5.84368">
        <ele>267.9</ele>
        <time>2022-09-26T12:32:12Z</time>
      </trkpt>
      <trkpt lat="45.98146" lon="5.84374">
        <ele>267.9</ele>
        <time>2022-09-26T12:32:13Z</time>
      </trkpt>
      <trkpt lat="45.98149" lon="5.84379">
        <ele>267.9</ele>
        <time>2022-09-26T12:32:14Z</time>
      </trkpt>
      <trkpt lat="45.98152" lon="5.84385">
        <ele>267.9</ele>
        <time>2022-09-26T12:32:15Z</time>
      </trkpt>
      <trkpt lat="45.98155" lon="5.8439">
        <ele>267.9</ele>
        <time>2022-09-26T12:32:16Z</time>
      </trkpt>
      <trkpt lat="45.98157" lon="5.84397">
        <ele>267.9</ele>
        <time>2022-09-26T12:32:17Z</time>
      </trkpt>
      <trkpt lat="45.9816" lon="5.84404">
        <ele>268</ele>
        <time>2022-09-26T12:32:18Z</time>
      </trkpt>
      <trkpt lat="45.98163" lon="5.84411">
        <ele>268</ele>
        <time>2022-09-26T12:32:19Z</time>
      </trkpt>
      <trkpt lat="45.98166" lon="5.84417">
        <ele>268</ele>
        <time>2022-09-26T12:32:20Z</time>
      </trkpt>
      <trkpt lat="45.98169" lon="5.84424">
        <ele>268</ele>
        <time>2022-09-26T12:32:21Z</time>
      </trkpt>
      <trkpt lat="45.98172" lon="5.8443">
        <ele>268.1</ele>
        <time>2022-09-26T12:32:22Z</time>
      </trkpt>
      <trkpt lat="45.98175" lon="5.84437">
        <ele>268.1</ele>
        <time>2022-09-26T12:32:23Z</time>
      </trkpt>
      <trkpt lat="45.98178" lon="5.84443">
        <ele>268.1</ele>
        <time>2022-09-26T12:32:24Z</time>
      </trkpt>
      <trkpt lat="45.98181" lon="5.8445">
        <ele>268.1</ele>
        <time>2022-09-26T12:32:25Z</time>
      </trkpt>
      <trkpt lat="45.98183" lon="5.84456">
        <ele>268.1</ele>
        <time>2022-09-26T12:32:26Z</time>
      </trkpt>
      <trkpt lat="45.98186" lon="5.84462">
        <ele>268.1</ele>
        <time>2022-09-26T12:32:27Z</time>
      </trkpt>
      <trkpt lat="45.98189" lon="5.84468">
        <ele>268.1</ele>
        <time>2022-09-26T12:32:28Z</time>
      </trkpt>
      <trkpt lat="45.98191" lon="5.84474">
        <ele>268.2</ele>
        <time>2022-09-26T12:32:29Z</time>
      </trkpt>
      <trkpt lat="45.98194" lon="5.8448">
        <ele>268.2</ele>
        <time>2022-09-26T12:32:30Z</time>
      </trkpt>
      <trkpt lat="45.98196" lon="5.84487">
        <ele>268.2</ele>
        <time>2022-09-26T12:32:31Z</time>
      </trkpt>
      <trkpt lat="45.98199" lon="5.84493">
        <ele>268.2</ele>
        <time>2022-09-26T12:32:32Z</time>
      </trkpt>
      <trkpt lat="45.98202" lon="5.84499">
        <ele>268.3</ele>
        <time>2022-09-26T12:32:33Z</time>
      </trkpt>
      <trkpt lat="45.98205" lon="5.84505">
        <ele>268.3</ele>
        <time>2022-09-26T12:32:34Z</time>
      </trkpt>
      <trkpt lat="45.98208" lon="5.84512">
        <ele>268.3</ele>
        <time>2022-09-26T12:32:35Z</time>
      </trkpt>
      <trkpt lat="45.98211" lon="5.84518">
        <ele>268.3</ele>
        <time>2022-09-26T12:32:36Z</time>
      </trkpt>
      <trkpt lat="45.98214" lon="5.84525">
        <ele>268.3</ele>
        <time>2022-09-26T12:32:37Z</time>
      </trkpt>
      <trkpt lat="45.98216" lon="5.84531">
        <ele>268.4</ele>
        <time>2022-09-26T12:32:38Z</time>
      </trkpt>
      <trkpt lat="45.98219" lon="5.84537">
        <ele>268.4</ele>
        <time>2022-09-26T12:32:39Z</time>
      </trkpt>
      <trkpt lat="45.98222" lon="5.84544">
        <ele>268.4</ele>
        <time>2022-09-26T12:32:41Z</time>
      </trkpt>
      <trkpt lat="45.98225" lon="5.8455">
        <ele>268.4</ele>
        <time>2022-09-26T12:32:42Z</time>
      </trkpt>
      <trkpt lat="45.98227" lon="5.84556">
        <ele>268.4</ele>
        <time>2022-09-26T12:32:43Z</time>
      </trkpt>
      <trkpt lat="45.98229" lon="5.84561">
        <ele>268.5</ele>
        <time>2022-09-26T12:32:44Z</time>
      </trkpt>
      <trkpt lat="45.98232" lon="5.84568">
        <ele>268.5</ele>
        <time>2022-09-26T12:32:45Z</time>
      </trkpt>
      <trkpt lat="45.98235" lon="5.84574">
        <ele>268.5</ele>
        <time>2022-09-26T12:32:46Z</time>
      </trkpt>
      <trkpt lat="45.98237" lon="5.8458">
        <ele>268.5</ele>
        <time>2022-09-26T12:32:47Z</time>
      </trkpt>
      <trkpt lat="45.9824" lon="5.84586">
        <ele>268.6</ele>
        <time>2022-09-26T12:32:48Z</time>
      </trkpt>
      <trkpt lat="45.98243" lon="5.84592">
        <ele>268.6</ele>
        <time>2022-09-26T12:32:49Z</time>
      </trkpt>
      <trkpt lat="45.98246" lon="5.84598">
        <ele>268.6</ele>
        <time>2022-09-26T12:32:50Z</time>
      </trkpt>
      <trkpt lat="45.98248" lon="5.84606">
        <ele>268.6</ele>
        <time>2022-09-26T12:32:51Z</time>
      </trkpt>
      <trkpt lat="45.98251" lon="5.84612">
        <ele>268.6</ele>
        <time>2022-09-26T12:32:52Z</time>
      </trkpt>
      <trkpt lat="45.98254" lon="5.84619">
        <ele>268.7</ele>
        <time>2022-09-26T12:32:53Z</time>
      </trkpt>
      <trkpt lat="45.98257" lon="5.84625">
        <ele>268.7</ele>
        <time>2022-09-26T12:32:54Z</time>
      </trkpt>
      <trkpt lat="45.9826" lon="5.84631">
        <ele>268.7</ele>
        <time>2022-09-26T12:32:55Z</time>
      </trkpt>
      <trkpt lat="45.98263" lon="5.84638">
        <ele>268.7</ele>
        <time>2022-09-26T12:32:56Z</time>
      </trkpt>
      <trkpt lat="45.98265" lon="5.84643">
        <ele>268.7</ele>
        <time>2022-09-26T12:32:57Z</time>
      </trkpt>
      <trkpt lat="45.98267" lon="5.8465">
        <ele>268.8</ele>
        <time>2022-09-26T12:32:58Z</time>
      </trkpt>
      <trkpt lat="45.9827" lon="5.84656">
        <ele>268.8</ele>
        <time>2022-09-26T12:32:59Z</time>
      </trkpt>
      <trkpt lat="45.98272" lon="5.84661">
        <ele>268.8</ele>
        <time>2022-09-26T12:33:00Z</time>
      </trkpt>
      <trkpt lat="45.98275" lon="5.84668">
        <ele>268.9</ele>
        <time>2022-09-26T12:33:01Z</time>
      </trkpt>
      <trkpt lat="45.98279" lon="5.84675">
        <ele>268.9</ele>
        <time>2022-09-26T12:33:02Z</time>
      </trkpt>
      <trkpt lat="45.98281" lon="5.8468">
        <ele>268.9</ele>
        <time>2022-09-26T12:33:03Z</time>
      </trkpt>
      <trkpt lat="45.98284" lon="5.84686">
        <ele>268.9</ele>
        <time>2022-09-26T12:33:04Z</time>
      </trkpt>
      <trkpt lat="45.98287" lon="5.84692">
        <ele>268.9</ele>
        <time>2022-09-26T12:33:05Z</time>
      </trkpt>
      <trkpt lat="45.9829" lon="5.84697">
        <ele>268.9</ele>
        <time>2022-09-26T12:33:06Z</time>
      </trkpt>
      <trkpt lat="45.98292" lon="5.84702">
        <ele>268.9</ele>
        <time>2022-09-26T12:33:07Z</time>
      </trkpt>
      <trkpt lat="45.98295" lon="5.84708">
        <ele>268.9</ele>
        <time>2022-09-26T12:33:08Z</time>
      </trkpt>
      <trkpt lat="45.98298" lon="5.84713">
        <ele>269</ele>
        <time>2022-09-26T12:33:09Z</time>
      </trkpt>
      <trkpt lat="45.98301" lon="5.84719">
        <ele>269</ele>
        <time>2022-09-26T12:33:10Z</time>
      </trkpt>
      <trkpt lat="45.98302" lon="5.84724">
        <ele>269</ele>
        <time>2022-09-26T12:33:11Z</time>
      </trkpt>
      <trkpt lat="45.98305" lon="5.84729">
        <ele>269</ele>
        <time>2022-09-26T12:33:12Z</time>
      </trkpt>
      <trkpt lat="45.98308" lon="5.84734">
        <ele>269</ele>
        <time>2022-09-26T12:33:13Z</time>
      </trkpt>
      <trkpt lat="45.98312" lon="5.84739">
        <ele>269</ele>
        <time>2022-09-26T12:33:14Z</time>
      </trkpt>
      <trkpt lat="45.98315" lon="5.84743">
        <ele>269</ele>
        <time>2022-09-26T12:33:15Z</time>
      </trkpt>
      <trkpt lat="45.98318" lon="5.84746">
        <ele>269</ele>
        <time>2022-09-26T12:33:16Z</time>
      </trkpt>
      <trkpt lat="45.98321" lon="5.8475">
        <ele>269</ele>
        <time>2022-09-26T12:33:17Z</time>
      </trkpt>
      <trkpt lat="45.98325" lon="5.84754">
        <ele>269.1</ele>
        <time>2022-09-26T12:33:18Z</time>
      </trkpt>
      <trkpt lat="45.9833" lon="5.84759">
        <ele>269.1</ele>
        <time>2022-09-26T12:33:19Z</time>
      </trkpt>
      <trkpt lat="45.98335" lon="5.84763">
        <ele>269.1</ele>
        <time>2022-09-26T12:33:20Z</time>
      </trkpt>
      <trkpt lat="45.98339" lon="5.84768">
        <ele>269.1</ele>
        <time>2022-09-26T12:33:21Z</time>
      </trkpt>
      <trkpt lat="45.98344" lon="5.84772">
        <ele>269.1</ele>
        <time>2022-09-26T12:33:22Z</time>
      </trkpt>
      <trkpt lat="45.98349" lon="5.84776">
        <ele>269.2</ele>
        <time>2022-09-26T12:33:23Z</time>
      </trkpt>
      <trkpt lat="45.98353" lon="5.8478">
        <ele>269.2</ele>
        <time>2022-09-26T12:33:24Z</time>
      </trkpt>
      <trkpt lat="45.98358" lon="5.84784">
        <ele>269.2</ele>
        <time>2022-09-26T12:33:25Z</time>
      </trkpt>
      <trkpt lat="45.98362" lon="5.84787">
        <ele>269.2</ele>
        <time>2022-09-26T12:33:26Z</time>
      </trkpt>
      <trkpt lat="45.98367" lon="5.8479">
        <ele>269.2</ele>
        <time>2022-09-26T12:33:27Z</time>
      </trkpt>
      <trkpt lat="45.98372" lon="5.84793">
        <ele>269.2</ele>
        <time>2022-09-26T12:33:28Z</time>
      </trkpt>
      <trkpt lat="45.98377" lon="5.84796">
        <ele>269.3</ele>
        <time>2022-09-26T12:33:29Z</time>
      </trkpt>
      <trkpt lat="45.98381" lon="5.84799">
        <ele>269.3</ele>
        <time>2022-09-26T12:33:30Z</time>
      </trkpt>
      <trkpt lat="45.98386" lon="5.84802">
        <ele>269.3</ele>
        <time>2022-09-26T12:33:31Z</time>
      </trkpt>
      <trkpt lat="45.98396" lon="5.84808">
        <ele>269.4</ele>
        <time>2022-09-26T12:33:32Z</time>
      </trkpt>
      <trkpt lat="45.98401" lon="5.8481">
        <ele>269.4</ele>
        <time>2022-09-26T12:33:33Z</time>
      </trkpt>
      <trkpt lat="45.98405" lon="5.84812">
        <ele>269.4</ele>
        <time>2022-09-26T12:33:34Z</time>
      </trkpt>
      <trkpt lat="45.9841" lon="5.84814">
        <ele>269.4</ele>
        <time>2022-09-26T12:33:35Z</time>
      </trkpt>
      <trkpt lat="45.98416" lon="5.84815">
        <ele>269.5</ele>
        <time>2022-09-26T12:33:36Z</time>
      </trkpt>
      <trkpt lat="45.98421" lon="5.84816">
        <ele>269.5</ele>
        <time>2022-09-26T12:33:37Z</time>
      </trkpt>
      <trkpt lat="45.98426" lon="5.84817">
        <ele>269.5</ele>
        <time>2022-09-26T12:33:38Z</time>
      </trkpt>
      <trkpt lat="45.98431" lon="5.84818">
        <ele>269.5</ele>
        <time>2022-09-26T12:33:39Z</time>
      </trkpt>
      <trkpt lat="45.98437" lon="5.84819">
        <ele>269.5</ele>
        <time>2022-09-26T12:33:40Z</time>
      </trkpt>
      <trkpt lat="45.98442" lon="5.84819">
        <ele>269.5</ele>
        <time>2022-09-26T12:33:41Z</time>
      </trkpt>
      <trkpt lat="45.98448" lon="5.8482">
        <ele>269.5</ele>
        <time>2022-09-26T12:33:42Z</time>
      </trkpt>
      <trkpt lat="45.98453" lon="5.8482">
        <ele>269.5</ele>
        <time>2022-09-26T12:33:43Z</time>
      </trkpt>
      <trkpt lat="45.98459" lon="5.84821">
        <ele>269.5</ele>
        <time>2022-09-26T12:33:44Z</time>
      </trkpt>
      <trkpt lat="45.98464" lon="5.84821">
        <ele>269.6</ele>
        <time>2022-09-26T12:33:45Z</time>
      </trkpt>
      <trkpt lat="45.98469" lon="5.8482">
        <ele>269.6</ele>
        <time>2022-09-26T12:33:46Z</time>
      </trkpt>
      <trkpt lat="45.98474" lon="5.84821">
        <ele>269.6</ele>
        <time>2022-09-26T12:33:47Z</time>
      </trkpt>
      <trkpt lat="45.9848" lon="5.84821">
        <ele>269.7</ele>
        <time>2022-09-26T12:33:48Z</time>
      </trkpt>
      <trkpt lat="45.98485" lon="5.84821">
        <ele>269.7</ele>
        <time>2022-09-26T12:33:49Z</time>
      </trkpt>
      <trkpt lat="45.98491" lon="5.84821">
        <ele>269.7</ele>
        <time>2022-09-26T12:33:50Z</time>
      </trkpt>
      <trkpt lat="45.98497" lon="5.84821">
        <ele>269.7</ele>
        <time>2022-09-26T12:33:51Z</time>
      </trkpt>
      <trkpt lat="45.98502" lon="5.84822">
        <ele>269.8</ele>
        <time>2022-09-26T12:33:52Z</time>
      </trkpt>
      <trkpt lat="45.98508" lon="5.84824">
        <ele>269.8</ele>
        <time>2022-09-26T12:33:53Z</time>
      </trkpt>
      <trkpt lat="45.98514" lon="5.84825">
        <ele>269.8</ele>
        <time>2022-09-26T12:33:54Z</time>
      </trkpt>
      <trkpt lat="45.98519" lon="5.84826">
        <ele>269.9</ele>
        <time>2022-09-26T12:33:55Z</time>
      </trkpt>
      <trkpt lat="45.98525" lon="5.84826">
        <ele>269.9</ele>
        <time>2022-09-26T12:33:56Z</time>
      </trkpt>
      <trkpt lat="45.98531" lon="5.84827">
        <ele>269.9</ele>
        <time>2022-09-26T12:33:57Z</time>
      </trkpt>
      <trkpt lat="45.98536" lon="5.84827">
        <ele>269.9</ele>
        <time>2022-09-26T12:33:58Z</time>
      </trkpt>
      <trkpt lat="45.98541" lon="5.84828">
        <ele>269.9</ele>
        <time>2022-09-26T12:33:59Z</time>
      </trkpt>
      <trkpt lat="45.98547" lon="5.84828">
        <ele>269.9</ele>
        <time>2022-09-26T12:34:00Z</time>
      </trkpt>
      <trkpt lat="45.98551" lon="5.84829">
        <ele>269.9</ele>
        <time>2022-09-26T12:34:01Z</time>
      </trkpt>
      <trkpt lat="45.98556" lon="5.84829">
        <ele>269.9</ele>
        <time>2022-09-26T12:34:02Z</time>
      </trkpt>
      <trkpt lat="45.98562" lon="5.8483">
        <ele>269.9</ele>
        <time>2022-09-26T12:34:03Z</time>
      </trkpt>
      <trkpt lat="45.98567" lon="5.8483">
        <ele>269.9</ele>
        <time>2022-09-26T12:34:04Z</time>
      </trkpt>
      <trkpt lat="45.98572" lon="5.8483">
        <ele>270</ele>
        <time>2022-09-26T12:34:05Z</time>
      </trkpt>
      <trkpt lat="45.98577" lon="5.8483">
        <ele>270</ele>
        <time>2022-09-26T12:34:06Z</time>
      </trkpt>
      <trkpt lat="45.98581" lon="5.84831">
        <ele>270</ele>
        <time>2022-09-26T12:34:07Z</time>
      </trkpt>
      <trkpt lat="45.98585" lon="5.84832">
        <ele>270</ele>
        <time>2022-09-26T12:34:08Z</time>
      </trkpt>
      <trkpt lat="45.98591" lon="5.84832">
        <ele>270.1</ele>
        <time>2022-09-26T12:34:09Z</time>
      </trkpt>
      <trkpt lat="45.98596" lon="5.84832">
        <ele>270.1</ele>
        <time>2022-09-26T12:34:10Z</time>
      </trkpt>
      <trkpt lat="45.986" lon="5.84832">
        <ele>270.1</ele>
        <time>2022-09-26T12:34:11Z</time>
      </trkpt>
      <trkpt lat="45.98605" lon="5.84832">
        <ele>270.1</ele>
        <time>2022-09-26T12:34:12Z</time>
      </trkpt>
      <trkpt lat="45.98609" lon="5.84832">
        <ele>270.2</ele>
        <time>2022-09-26T12:34:13Z</time>
      </trkpt>
      <trkpt lat="45.98614" lon="5.84832">
        <ele>270.2</ele>
        <time>2022-09-26T12:34:14Z</time>
      </trkpt>
      <trkpt lat="45.98617" lon="5.84832">
        <ele>270.2</ele>
        <time>2022-09-26T12:34:15Z</time>
      </trkpt>
      <trkpt lat="45.98622" lon="5.84831">
        <ele>270.2</ele>
        <time>2022-09-26T12:34:16Z</time>
      </trkpt>
      <trkpt lat="45.98627" lon="5.84832">
        <ele>270.2</ele>
        <time>2022-09-26T12:34:17Z</time>
      </trkpt>
      <trkpt lat="45.98633" lon="5.84832">
        <ele>270.2</ele>
        <time>2022-09-26T12:34:18Z</time>
      </trkpt>
      <trkpt lat="45.98638" lon="5.84832">
        <ele>270.2</ele>
        <time>2022-09-26T12:34:19Z</time>
      </trkpt>
      <trkpt lat="45.98644" lon="5.84832">
        <ele>270.2</ele>
        <time>2022-09-26T12:34:20Z</time>
      </trkpt>
      <trkpt lat="45.98649" lon="5.84832">
        <ele>270.2</ele>
        <time>2022-09-26T12:34:21Z</time>
      </trkpt>
      <trkpt lat="45.98654" lon="5.84832">
        <ele>270.2</ele>
        <time>2022-09-26T12:34:22Z</time>
      </trkpt>
      <trkpt lat="45.98659" lon="5.84833">
        <ele>270.3</ele>
        <time>2022-09-26T12:34:23Z</time>
      </trkpt>
      <trkpt lat="45.98665" lon="5.84834">
        <ele>270.3</ele>
        <time>2022-09-26T12:34:24Z</time>
      </trkpt>
      <trkpt lat="45.9867" lon="5.84834">
        <ele>270.3</ele>
        <time>2022-09-26T12:34:25Z</time>
      </trkpt>
      <trkpt lat="45.98675" lon="5.84834">
        <ele>270.3</ele>
        <time>2022-09-26T12:34:26Z</time>
      </trkpt>
      <trkpt lat="45.9868" lon="5.84834">
        <ele>270.3</ele>
        <time>2022-09-26T12:34:27Z</time>
      </trkpt>
      <trkpt lat="45.98685" lon="5.84834">
        <ele>270.3</ele>
        <time>2022-09-26T12:34:28Z</time>
      </trkpt>
      <trkpt lat="45.9869" lon="5.84835">
        <ele>270.3</ele>
        <time>2022-09-26T12:34:29Z</time>
      </trkpt>
      <trkpt lat="45.98695" lon="5.84835">
        <ele>270.4</ele>
        <time>2022-09-26T12:34:30Z</time>
      </trkpt>
      <trkpt lat="45.98699" lon="5.84836">
        <ele>270.3</ele>
        <time>2022-09-26T12:34:31Z</time>
      </trkpt>
      <trkpt lat="45.98704" lon="5.84836">
        <ele>270.3</ele>
        <time>2022-09-26T12:34:32Z</time>
      </trkpt>
      <trkpt lat="45.98709" lon="5.84836">
        <ele>270.3</ele>
        <time>2022-09-26T12:34:33Z</time>
      </trkpt>
      <trkpt lat="45.98713" lon="5.84836">
        <ele>270.3</ele>
        <time>2022-09-26T12:34:34Z</time>
      </trkpt>
      <trkpt lat="45.98718" lon="5.84836">
        <ele>270.3</ele>
        <time>2022-09-26T12:34:35Z</time>
      </trkpt>
      <trkpt lat="45.98722" lon="5.84837">
        <ele>270.3</ele>
        <time>2022-09-26T12:34:36Z</time>
      </trkpt>
      <trkpt lat="45.98726" lon="5.84837">
        <ele>270.3</ele>
        <time>2022-09-26T12:34:37Z</time>
      </trkpt>
      <trkpt lat="45.9873" lon="5.84837">
        <ele>270.4</ele>
        <time>2022-09-26T12:34:38Z</time>
      </trkpt>
      <trkpt lat="45.98735" lon="5.84838">
        <ele>270.4</ele>
        <time>2022-09-26T12:34:39Z</time>
      </trkpt>
      <trkpt lat="45.98739" lon="5.8484">
        <ele>270.4</ele>
        <time>2022-09-26T12:34:40Z</time>
      </trkpt>
      <trkpt lat="45.98743" lon="5.84841">
        <ele>270.4</ele>
        <time>2022-09-26T12:34:41Z</time>
      </trkpt>
      <trkpt lat="45.98748" lon="5.84843">
        <ele>270.5</ele>
        <time>2022-09-26T12:34:42Z</time>
      </trkpt>
      <trkpt lat="45.98752" lon="5.84845">
        <ele>270.5</ele>
        <time>2022-09-26T12:34:43Z</time>
      </trkpt>
      <trkpt lat="45.98756" lon="5.84847">
        <ele>270.5</ele>
        <time>2022-09-26T12:34:44Z</time>
      </trkpt>
      <trkpt lat="45.98761" lon="5.8485">
        <ele>270.5</ele>
        <time>2022-09-26T12:34:45Z</time>
      </trkpt>
      <trkpt lat="45.98765" lon="5.84851">
        <ele>270.5</ele>
        <time>2022-09-26T12:34:47Z</time>
      </trkpt>
      <trkpt lat="45.98769" lon="5.84854">
        <ele>270.5</ele>
        <time>2022-09-26T12:34:48Z</time>
      </trkpt>
      <trkpt lat="45.98772" lon="5.84858">
        <ele>270.5</ele>
        <time>2022-09-26T12:34:49Z</time>
      </trkpt>
      <trkpt lat="45.98776" lon="5.8486">
        <ele>270.5</ele>
        <time>2022-09-26T12:34:50Z</time>
      </trkpt>
      <trkpt lat="45.98779" lon="5.84863">
        <ele>270.5</ele>
        <time>2022-09-26T12:34:51Z</time>
      </trkpt>
      <trkpt lat="45.98785" lon="5.8487">
        <ele>270.6</ele>
        <time>2022-09-26T12:34:52Z</time>
      </trkpt>
      <trkpt lat="45.98788" lon="5.84874">
        <ele>270.6</ele>
        <time>2022-09-26T12:34:53Z</time>
      </trkpt>
      <trkpt lat="45.98792" lon="5.8488">
        <ele>270.6</ele>
        <time>2022-09-26T12:34:55Z</time>
      </trkpt>
      <trkpt lat="45.98795" lon="5.84884">
        <ele>270.7</ele>
        <time>2022-09-26T12:34:56Z</time>
      </trkpt>
      <trkpt lat="45.98798" lon="5.84889">
        <ele>270.7</ele>
        <time>2022-09-26T12:34:57Z</time>
      </trkpt>
      <trkpt lat="45.98802" lon="5.84895">
        <ele>270.7</ele>
        <time>2022-09-26T12:34:58Z</time>
      </trkpt>
      <trkpt lat="45.98805" lon="5.84898">
        <ele>270.7</ele>
        <time>2022-09-26T12:34:59Z</time>
      </trkpt>
      <trkpt lat="45.98811" lon="5.84908">
        <ele>270.7</ele>
        <time>2022-09-26T12:35:00Z</time>
      </trkpt>
      <trkpt lat="45.98813" lon="5.84913">
        <ele>270.7</ele>
        <time>2022-09-26T12:35:01Z</time>
      </trkpt>
      <trkpt lat="45.98816" lon="5.84919">
        <ele>270.7</ele>
        <time>2022-09-26T12:35:02Z</time>
      </trkpt>
      <trkpt lat="45.9882" lon="5.84925">
        <ele>270.8</ele>
        <time>2022-09-26T12:35:03Z</time>
      </trkpt>
      <trkpt lat="45.98823" lon="5.84931">
        <ele>270.8</ele>
        <time>2022-09-26T12:35:04Z</time>
      </trkpt>
      <trkpt lat="45.98826" lon="5.84936">
        <ele>270.8</ele>
        <time>2022-09-26T12:35:05Z</time>
      </trkpt>
      <trkpt lat="45.98829" lon="5.84942">
        <ele>270.8</ele>
        <time>2022-09-26T12:35:06Z</time>
      </trkpt>
      <trkpt lat="45.98831" lon="5.84948">
        <ele>270.8</ele>
        <time>2022-09-26T12:35:07Z</time>
      </trkpt>
      <trkpt lat="45.98834" lon="5.84953">
        <ele>270.8</ele>
        <time>2022-09-26T12:35:08Z</time>
      </trkpt>
      <trkpt lat="45.98837" lon="5.84958">
        <ele>270.8</ele>
        <time>2022-09-26T12:35:09Z</time>
      </trkpt>
      <trkpt lat="45.98839" lon="5.84965">
        <ele>270.8</ele>
        <time>2022-09-26T12:35:10Z</time>
      </trkpt>
      <trkpt lat="45.98842" lon="5.84971">
        <ele>270.8</ele>
        <time>2022-09-26T12:35:11Z</time>
      </trkpt>
      <trkpt lat="45.98845" lon="5.84977">
        <ele>270.9</ele>
        <time>2022-09-26T12:35:12Z</time>
      </trkpt>
      <trkpt lat="45.98849" lon="5.84984">
        <ele>270.9</ele>
        <time>2022-09-26T12:35:13Z</time>
      </trkpt>
      <trkpt lat="45.98853" lon="5.84989">
        <ele>270.9</ele>
        <time>2022-09-26T12:35:14Z</time>
      </trkpt>
      <trkpt lat="45.98856" lon="5.84995">
        <ele>270.9</ele>
        <time>2022-09-26T12:35:15Z</time>
      </trkpt>
      <trkpt lat="45.98859" lon="5.85">
        <ele>270.9</ele>
        <time>2022-09-26T12:35:16Z</time>
      </trkpt>
      <trkpt lat="45.98862" lon="5.85005">
        <ele>270.9</ele>
        <time>2022-09-26T12:35:17Z</time>
      </trkpt>
      <trkpt lat="45.98866" lon="5.85011">
        <ele>270.9</ele>
        <time>2022-09-26T12:35:18Z</time>
      </trkpt>
      <trkpt lat="45.98869" lon="5.85017">
        <ele>270.9</ele>
        <time>2022-09-26T12:35:19Z</time>
      </trkpt>
      <trkpt lat="45.98873" lon="5.85022">
        <ele>270.9</ele>
        <time>2022-09-26T12:35:20Z</time>
      </trkpt>
      <trkpt lat="45.98876" lon="5.85028">
        <ele>270.9</ele>
        <time>2022-09-26T12:35:21Z</time>
      </trkpt>
      <trkpt lat="45.9888" lon="5.85034">
        <ele>270.9</ele>
        <time>2022-09-26T12:35:22Z</time>
      </trkpt>
      <trkpt lat="45.98883" lon="5.8504">
        <ele>270.9</ele>
        <time>2022-09-26T12:35:23Z</time>
      </trkpt>
      <trkpt lat="45.98886" lon="5.85045">
        <ele>270.9</ele>
        <time>2022-09-26T12:35:24Z</time>
      </trkpt>
      <trkpt lat="45.98889" lon="5.8505">
        <ele>270.9</ele>
        <time>2022-09-26T12:35:25Z</time>
      </trkpt>
      <trkpt lat="45.98892" lon="5.85055">
        <ele>271</ele>
        <time>2022-09-26T12:35:26Z</time>
      </trkpt>
      <trkpt lat="45.98895" lon="5.85059">
        <ele>271</ele>
        <time>2022-09-26T12:35:27Z</time>
      </trkpt>
      <trkpt lat="45.98899" lon="5.85065">
        <ele>271</ele>
        <time>2022-09-26T12:35:28Z</time>
      </trkpt>
      <trkpt lat="45.98902" lon="5.8507">
        <ele>271</ele>
        <time>2022-09-26T12:35:29Z</time>
      </trkpt>
      <trkpt lat="45.98905" lon="5.85074">
        <ele>271</ele>
        <time>2022-09-26T12:35:30Z</time>
      </trkpt>
      <trkpt lat="45.98908" lon="5.85079">
        <ele>271</ele>
        <time>2022-09-26T12:35:31Z</time>
      </trkpt>
      <trkpt lat="45.98911" lon="5.85084">
        <ele>271</ele>
        <time>2022-09-26T12:35:32Z</time>
      </trkpt>
      <trkpt lat="45.98914" lon="5.85087">
        <ele>271</ele>
        <time>2022-09-26T12:35:33Z</time>
      </trkpt>
      <trkpt lat="45.98918" lon="5.85091">
        <ele>271.1</ele>
        <time>2022-09-26T12:35:34Z</time>
      </trkpt>
      <trkpt lat="45.98921" lon="5.85095">
        <ele>271.1</ele>
        <time>2022-09-26T12:35:35Z</time>
      </trkpt>
      <trkpt lat="45.98923" lon="5.85099">
        <ele>271.1</ele>
        <time>2022-09-26T12:35:36Z</time>
      </trkpt>
      <trkpt lat="45.98927" lon="5.85103">
        <ele>271.1</ele>
        <time>2022-09-26T12:35:37Z</time>
      </trkpt>
      <trkpt lat="45.9893" lon="5.85107">
        <ele>271.1</ele>
        <time>2022-09-26T12:35:38Z</time>
      </trkpt>
      <trkpt lat="45.98933" lon="5.85111">
        <ele>271.1</ele>
        <time>2022-09-26T12:35:39Z</time>
      </trkpt>
      <trkpt lat="45.98937" lon="5.85115">
        <ele>271.1</ele>
        <time>2022-09-26T12:35:40Z</time>
      </trkpt>
      <trkpt lat="45.9894" lon="5.85119">
        <ele>271.1</ele>
        <time>2022-09-26T12:35:41Z</time>
      </trkpt>
      <trkpt lat="45.98945" lon="5.85124">
        <ele>271.1</ele>
        <time>2022-09-26T12:35:42Z</time>
      </trkpt>
      <trkpt lat="45.98949" lon="5.85127">
        <ele>271.1</ele>
        <time>2022-09-26T12:35:43Z</time>
      </trkpt>
      <trkpt lat="45.98953" lon="5.85131">
        <ele>271.1</ele>
        <time>2022-09-26T12:35:44Z</time>
      </trkpt>
      <trkpt lat="45.98957" lon="5.85135">
        <ele>271.1</ele>
        <time>2022-09-26T12:35:45Z</time>
      </trkpt>
      <trkpt lat="45.98963" lon="5.85141">
        <ele>271.1</ele>
        <time>2022-09-26T12:35:46Z</time>
      </trkpt>
      <trkpt lat="45.98968" lon="5.85145">
        <ele>271.2</ele>
        <time>2022-09-26T12:35:47Z</time>
      </trkpt>
      <trkpt lat="45.98972" lon="5.85149">
        <ele>271.2</ele>
        <time>2022-09-26T12:35:48Z</time>
      </trkpt>
      <trkpt lat="45.98976" lon="5.85153">
        <ele>271.2</ele>
        <time>2022-09-26T12:35:49Z</time>
      </trkpt>
      <trkpt lat="45.9898" lon="5.85157">
        <ele>271.2</ele>
        <time>2022-09-26T12:35:50Z</time>
      </trkpt>
      <trkpt lat="45.98984" lon="5.85161">
        <ele>271.3</ele>
        <time>2022-09-26T12:35:51Z</time>
      </trkpt>
      <trkpt lat="45.98989" lon="5.85166">
        <ele>271.3</ele>
        <time>2022-09-26T12:35:52Z</time>
      </trkpt>
      <trkpt lat="45.98992" lon="5.85169">
        <ele>271.3</ele>
        <time>2022-09-26T12:35:53Z</time>
      </trkpt>
      <trkpt lat="45.98997" lon="5.85173">
        <ele>271.4</ele>
        <time>2022-09-26T12:35:54Z</time>
      </trkpt>
      <trkpt lat="45.99" lon="5.85175">
        <ele>271.4</ele>
        <time>2022-09-26T12:35:55Z</time>
      </trkpt>
      <trkpt lat="45.99004" lon="5.85179">
        <ele>271.5</ele>
        <time>2022-09-26T12:35:56Z</time>
      </trkpt>
      <trkpt lat="45.99007" lon="5.85183">
        <ele>271.5</ele>
        <time>2022-09-26T12:35:57Z</time>
      </trkpt>
      <trkpt lat="45.99012" lon="5.85186">
        <ele>271.6</ele>
        <time>2022-09-26T12:35:58Z</time>
      </trkpt>
      <trkpt lat="45.99016" lon="5.85189">
        <ele>271.6</ele>
        <time>2022-09-26T12:35:59Z</time>
      </trkpt>
      <trkpt lat="45.9902" lon="5.85192">
        <ele>271.7</ele>
        <time>2022-09-26T12:36:00Z</time>
      </trkpt>
      <trkpt lat="45.99023" lon="5.85195">
        <ele>271.7</ele>
        <time>2022-09-26T12:36:01Z</time>
      </trkpt>
      <trkpt lat="45.99027" lon="5.85199">
        <ele>271.8</ele>
        <time>2022-09-26T12:36:02Z</time>
      </trkpt>
      <trkpt lat="45.9903" lon="5.85203">
        <ele>271.9</ele>
        <time>2022-09-26T12:36:03Z</time>
      </trkpt>
      <trkpt lat="45.99034" lon="5.85207">
        <ele>271.9</ele>
        <time>2022-09-26T12:36:04Z</time>
      </trkpt>
      <trkpt lat="45.99038" lon="5.8521">
        <ele>272</ele>
        <time>2022-09-26T12:36:05Z</time>
      </trkpt>
      <trkpt lat="45.99042" lon="5.85213">
        <ele>272</ele>
        <time>2022-09-26T12:36:06Z</time>
      </trkpt>
      <trkpt lat="45.99046" lon="5.85217">
        <ele>272.1</ele>
        <time>2022-09-26T12:36:07Z</time>
      </trkpt>
      <trkpt lat="45.9905" lon="5.8522">
        <ele>272.1</ele>
        <time>2022-09-26T12:36:08Z</time>
      </trkpt>
      <trkpt lat="45.99053" lon="5.85223">
        <ele>272.2</ele>
        <time>2022-09-26T12:36:09Z</time>
      </trkpt>
      <trkpt lat="45.99057" lon="5.85227">
        <ele>272.3</ele>
        <time>2022-09-26T12:36:10Z</time>
      </trkpt>
      <trkpt lat="45.99061" lon="5.8523">
        <ele>272.3</ele>
        <time>2022-09-26T12:36:11Z</time>
      </trkpt>
      <trkpt lat="45.99064" lon="5.85233">
        <ele>272.4</ele>
        <time>2022-09-26T12:36:12Z</time>
      </trkpt>
      <trkpt lat="45.99068" lon="5.85236">
        <ele>272.4</ele>
        <time>2022-09-26T12:36:13Z</time>
      </trkpt>
      <trkpt lat="45.99072" lon="5.85239">
        <ele>272.5</ele>
        <time>2022-09-26T12:36:14Z</time>
      </trkpt>
      <trkpt lat="45.99076" lon="5.85243">
        <ele>272.6</ele>
        <time>2022-09-26T12:36:15Z</time>
      </trkpt>
      <trkpt lat="45.99081" lon="5.85246">
        <ele>272.7</ele>
        <time>2022-09-26T12:36:16Z</time>
      </trkpt>
      <trkpt lat="45.99085" lon="5.8525">
        <ele>272.8</ele>
        <time>2022-09-26T12:36:17Z</time>
      </trkpt>
      <trkpt lat="45.99089" lon="5.85253">
        <ele>272.9</ele>
        <time>2022-09-26T12:36:18Z</time>
      </trkpt>
      <trkpt lat="45.99092" lon="5.85256">
        <ele>273</ele>
        <time>2022-09-26T12:36:19Z</time>
      </trkpt>
      <trkpt lat="45.99096" lon="5.85259">
        <ele>273.1</ele>
        <time>2022-09-26T12:36:20Z</time>
      </trkpt>
      <trkpt lat="45.991" lon="5.85262">
        <ele>273.2</ele>
        <time>2022-09-26T12:36:21Z</time>
      </trkpt>
      <trkpt lat="45.99104" lon="5.85265">
        <ele>273.3</ele>
        <time>2022-09-26T12:36:22Z</time>
      </trkpt>
      <trkpt lat="45.99107" lon="5.8527">
        <ele>273.4</ele>
        <time>2022-09-26T12:36:23Z</time>
      </trkpt>
      <trkpt lat="45.9911" lon="5.85273">
        <ele>273.5</ele>
        <time>2022-09-26T12:36:24Z</time>
      </trkpt>
      <trkpt lat="45.99114" lon="5.85276">
        <ele>273.6</ele>
        <time>2022-09-26T12:36:25Z</time>
      </trkpt>
      <trkpt lat="45.99117" lon="5.85279">
        <ele>273.7</ele>
        <time>2022-09-26T12:36:26Z</time>
      </trkpt>
      <trkpt lat="45.9912" lon="5.85281">
        <ele>273.8</ele>
        <time>2022-09-26T12:36:27Z</time>
      </trkpt>
      <trkpt lat="45.99124" lon="5.85284">
        <ele>273.8</ele>
        <time>2022-09-26T12:36:28Z</time>
      </trkpt>
      <trkpt lat="45.99127" lon="5.85287">
        <ele>273.9</ele>
        <time>2022-09-26T12:36:29Z</time>
      </trkpt>
      <trkpt lat="45.9913" lon="5.8529">
        <ele>274</ele>
        <time>2022-09-26T12:36:30Z</time>
      </trkpt>
      <trkpt lat="45.99134" lon="5.85293">
        <ele>274.1</ele>
        <time>2022-09-26T12:36:31Z</time>
      </trkpt>
      <trkpt lat="45.99138" lon="5.85297">
        <ele>274.1</ele>
        <time>2022-09-26T12:36:32Z</time>
      </trkpt>
      <trkpt lat="45.99142" lon="5.85301">
        <ele>274.2</ele>
        <time>2022-09-26T12:36:33Z</time>
      </trkpt>
      <trkpt lat="45.99146" lon="5.85305">
        <ele>274.2</ele>
        <time>2022-09-26T12:36:34Z</time>
      </trkpt>
      <trkpt lat="45.9915" lon="5.85309">
        <ele>274.3</ele>
        <time>2022-09-26T12:36:35Z</time>
      </trkpt>
      <trkpt lat="45.99154" lon="5.85313">
        <ele>274.3</ele>
        <time>2022-09-26T12:36:36Z</time>
      </trkpt>
      <trkpt lat="45.99159" lon="5.85317">
        <ele>274.4</ele>
        <time>2022-09-26T12:36:37Z</time>
      </trkpt>
      <trkpt lat="45.99162" lon="5.85321">
        <ele>274.4</ele>
        <time>2022-09-26T12:36:38Z</time>
      </trkpt>
      <trkpt lat="45.99167" lon="5.85325">
        <ele>274.4</ele>
        <time>2022-09-26T12:36:39Z</time>
      </trkpt>
      <trkpt lat="45.99171" lon="5.85329">
        <ele>274.4</ele>
        <time>2022-09-26T12:36:40Z</time>
      </trkpt>
      <trkpt lat="45.99176" lon="5.85332">
        <ele>274.5</ele>
        <time>2022-09-26T12:36:41Z</time>
      </trkpt>
      <trkpt lat="45.9918" lon="5.85335">
        <ele>274.5</ele>
        <time>2022-09-26T12:36:42Z</time>
      </trkpt>
      <trkpt lat="45.99183" lon="5.85338">
        <ele>274.5</ele>
        <time>2022-09-26T12:36:43Z</time>
      </trkpt>
      <trkpt lat="45.99186" lon="5.8534">
        <ele>274.5</ele>
        <time>2022-09-26T12:36:44Z</time>
      </trkpt>
      <trkpt lat="45.99191" lon="5.85342">
        <ele>274.5</ele>
        <time>2022-09-26T12:36:45Z</time>
      </trkpt>
      <trkpt lat="45.99195" lon="5.85344">
        <ele>274.6</ele>
        <time>2022-09-26T12:36:46Z</time>
      </trkpt>
      <trkpt lat="45.992" lon="5.85345">
        <ele>274.6</ele>
        <time>2022-09-26T12:36:47Z</time>
      </trkpt>
      <trkpt lat="45.99204" lon="5.85345">
        <ele>274.6</ele>
        <time>2022-09-26T12:36:48Z</time>
      </trkpt>
      <trkpt lat="45.99209" lon="5.85345">
        <ele>274.6</ele>
        <time>2022-09-26T12:36:49Z</time>
      </trkpt>
      <trkpt lat="45.99214" lon="5.85345">
        <ele>274.7</ele>
        <time>2022-09-26T12:36:50Z</time>
      </trkpt>
      <trkpt lat="45.99219" lon="5.85345">
        <ele>274.7</ele>
        <time>2022-09-26T12:36:51Z</time>
      </trkpt>
      <trkpt lat="45.99223" lon="5.85345">
        <ele>274.8</ele>
        <time>2022-09-26T12:36:53Z</time>
      </trkpt>
      <trkpt lat="45.99229" lon="5.85344">
        <ele>274.8</ele>
        <time>2022-09-26T12:36:54Z</time>
      </trkpt>
      <trkpt lat="45.99234" lon="5.85343">
        <ele>274.8</ele>
        <time>2022-09-26T12:36:55Z</time>
      </trkpt>
      <trkpt lat="45.99238" lon="5.85341">
        <ele>274.9</ele>
        <time>2022-09-26T12:36:56Z</time>
      </trkpt>
      <trkpt lat="45.99242" lon="5.85339">
        <ele>274.9</ele>
        <time>2022-09-26T12:36:57Z</time>
      </trkpt>
      <trkpt lat="45.99247" lon="5.85337">
        <ele>274.9</ele>
        <time>2022-09-26T12:36:58Z</time>
      </trkpt>
      <trkpt lat="45.99251" lon="5.85335">
        <ele>274.9</ele>
        <time>2022-09-26T12:36:59Z</time>
      </trkpt>
      <trkpt lat="45.99256" lon="5.85333">
        <ele>274.9</ele>
        <time>2022-09-26T12:37:00Z</time>
      </trkpt>
      <trkpt lat="45.9926" lon="5.8533">
        <ele>275</ele>
        <time>2022-09-26T12:37:01Z</time>
      </trkpt>
      <trkpt lat="45.99264" lon="5.85328">
        <ele>275</ele>
        <time>2022-09-26T12:37:02Z</time>
      </trkpt>
      <trkpt lat="45.99268" lon="5.85325">
        <ele>275</ele>
        <time>2022-09-26T12:37:03Z</time>
      </trkpt>
      <trkpt lat="45.99271" lon="5.85321">
        <ele>275</ele>
        <time>2022-09-26T12:37:04Z</time>
      </trkpt>
      <trkpt lat="45.99274" lon="5.85318">
        <ele>275</ele>
        <time>2022-09-26T12:37:05Z</time>
      </trkpt>
      <trkpt lat="45.99277" lon="5.85314">
        <ele>275</ele>
        <time>2022-09-26T12:37:06Z</time>
      </trkpt>
      <trkpt lat="45.99279" lon="5.85308">
        <ele>275.1</ele>
        <time>2022-09-26T12:37:07Z</time>
      </trkpt>
      <trkpt lat="45.99279" lon="5.85303">
        <ele>275.1</ele>
        <time>2022-09-26T12:37:08Z</time>
      </trkpt>
      <trkpt lat="45.99277" lon="5.85298">
        <ele>275.2</ele>
        <time>2022-09-26T12:37:09Z</time>
      </trkpt>
      <trkpt lat="45.99274" lon="5.85295">
        <ele>275.2</ele>
        <time>2022-09-26T12:37:10Z</time>
      </trkpt>
      <trkpt lat="45.9927" lon="5.85292">
        <ele>275.2</ele>
        <time>2022-09-26T12:37:11Z</time>
      </trkpt>
      <trkpt lat="45.99268" lon="5.85289">
        <ele>275.3</ele>
        <time>2022-09-26T12:37:12Z</time>
      </trkpt>
      <trkpt lat="45.99265" lon="5.85286">
        <ele>275.3</ele>
        <time>2022-09-26T12:37:13Z</time>
      </trkpt>
      <trkpt lat="45.99263" lon="5.85282">
        <ele>275.4</ele>
        <time>2022-09-26T12:37:14Z</time>
      </trkpt>
      <trkpt lat="45.9926" lon="5.85279">
        <ele>275.5</ele>
        <time>2022-09-26T12:37:15Z</time>
      </trkpt>
      <trkpt lat="45.99257" lon="5.85276">
        <ele>275.6</ele>
        <time>2022-09-26T12:37:16Z</time>
      </trkpt>
      <trkpt lat="45.99255" lon="5.85273">
        <ele>275.6</ele>
        <time>2022-09-26T12:37:17Z</time>
      </trkpt>
      <trkpt lat="45.99252" lon="5.8527">
        <ele>275.7</ele>
        <time>2022-09-26T12:37:18Z</time>
      </trkpt>
      <trkpt lat="45.99249" lon="5.85267">
        <ele>275.8</ele>
        <time>2022-09-26T12:37:19Z</time>
      </trkpt>
      <trkpt lat="45.99246" lon="5.85264">
        <ele>276</ele>
        <time>2022-09-26T12:37:20Z</time>
      </trkpt>
      <trkpt lat="45.99243" lon="5.8526">
        <ele>276.1</ele>
        <time>2022-09-26T12:37:21Z</time>
      </trkpt>
      <trkpt lat="45.99241" lon="5.85257">
        <ele>276.2</ele>
        <time>2022-09-26T12:37:22Z</time>
      </trkpt>
      <trkpt lat="45.99238" lon="5.85254">
        <ele>276.4</ele>
        <time>2022-09-26T12:37:23Z</time>
      </trkpt>
      <trkpt lat="45.99238" lon="5.85252">
        <ele>276.4</ele>
        <time>2022-09-26T12:37:24Z</time>
      </trkpt>
      <trkpt lat="45.99235" lon="5.85249">
        <ele>276.5</ele>
        <time>2022-09-26T12:37:25Z</time>
      </trkpt>
      <trkpt lat="45.99233" lon="5.85246">
        <ele>276.7</ele>
        <time>2022-09-26T12:37:26Z</time>
      </trkpt>
      <trkpt lat="45.99232" lon="5.85245">
        <ele>276.7</ele>
        <time>2022-09-26T12:37:27Z</time>
      </trkpt>
      <trkpt lat="45.99229" lon="5.85241">
        <ele>276.9</ele>
        <time>2022-09-26T12:37:28Z</time>
      </trkpt>
      <trkpt lat="45.99228" lon="5.85239">
        <ele>276.9</ele>
        <time>2022-09-26T12:37:29Z</time>
      </trkpt>
      <trkpt lat="45.99226" lon="5.85235">
        <ele>277.1</ele>
        <time>2022-09-26T12:37:30Z</time>
      </trkpt>
      <trkpt lat="45.99225" lon="5.85234">
        <ele>277.1</ele>
        <time>2022-09-26T12:37:31Z</time>
      </trkpt>
      <trkpt lat="45.99223" lon="5.85229">
        <ele>277.3</ele>
        <time>2022-09-26T12:37:32Z</time>
      </trkpt>
      <trkpt lat="45.99222" lon="5.85228">
        <ele>277.3</ele>
        <time>2022-09-26T12:37:33Z</time>
      </trkpt>
      <trkpt lat="45.9922" lon="5.85224">
        <ele>277.5</ele>
        <time>2022-09-26T12:37:34Z</time>
      </trkpt>
      <trkpt lat="45.9922" lon="5.85223">
        <ele>277.5</ele>
        <time>2022-09-26T12:37:35Z</time>
      </trkpt>
      <trkpt lat="45.99219" lon="5.85219">
        <ele>277.6</ele>
        <time>2022-09-26T12:37:36Z</time>
      </trkpt>
      <trkpt lat="45.99218" lon="5.85214">
        <ele>277.8</ele>
        <time>2022-09-26T12:37:37Z</time>
      </trkpt>
      <trkpt lat="45.99218" lon="5.85209">
        <ele>277.9</ele>
        <time>2022-09-26T12:37:38Z</time>
      </trkpt>
      <trkpt lat="45.99217" lon="5.85203">
        <ele>278</ele>
        <time>2022-09-26T12:37:39Z</time>
      </trkpt>
      <trkpt lat="45.99217" lon="5.85198">
        <ele>278</ele>
        <time>2022-09-26T12:37:40Z</time>
      </trkpt>
      <trkpt lat="45.99216" lon="5.85193">
        <ele>278</ele>
        <time>2022-09-26T12:37:41Z</time>
      </trkpt>
      <trkpt lat="45.99215" lon="5.85188">
        <ele>278.1</ele>
        <time>2022-09-26T12:37:42Z</time>
      </trkpt>
      <trkpt lat="45.99215" lon="5.85183">
        <ele>278.1</ele>
        <time>2022-09-26T12:37:43Z</time>
      </trkpt>
      <trkpt lat="45.99214" lon="5.85178">
        <ele>278.2</ele>
        <time>2022-09-26T12:37:44Z</time>
      </trkpt>
      <trkpt lat="45.99213" lon="5.85173">
        <ele>278.2</ele>
        <time>2022-09-26T12:37:45Z</time>
      </trkpt>
      <trkpt lat="45.99211" lon="5.85162">
        <ele>278.3</ele>
        <time>2022-09-26T12:37:46Z</time>
      </trkpt>
      <trkpt lat="45.9921" lon="5.85157">
        <ele>278.3</ele>
        <time>2022-09-26T12:37:47Z</time>
      </trkpt>
      <trkpt lat="45.9921" lon="5.85152">
        <ele>278.3</ele>
        <time>2022-09-26T12:37:48Z</time>
      </trkpt>
      <trkpt lat="45.99209" lon="5.85146">
        <ele>278.4</ele>
        <time>2022-09-26T12:37:49Z</time>
      </trkpt>
      <trkpt lat="45.99208" lon="5.85141">
        <ele>278.4</ele>
        <time>2022-09-26T12:37:50Z</time>
      </trkpt>
      <trkpt lat="45.99207" lon="5.85135">
        <ele>278.4</ele>
        <time>2022-09-26T12:37:51Z</time>
      </trkpt>
      <trkpt lat="45.99206" lon="5.8513">
        <ele>278.5</ele>
        <time>2022-09-26T12:37:52Z</time>
      </trkpt>
      <trkpt lat="45.99205" lon="5.85124">
        <ele>278.5</ele>
        <time>2022-09-26T12:37:53Z</time>
      </trkpt>
      <trkpt lat="45.99204" lon="5.85119">
        <ele>278.5</ele>
        <time>2022-09-26T12:37:54Z</time>
      </trkpt>
      <trkpt lat="45.99204" lon="5.85114">
        <ele>278.6</ele>
        <time>2022-09-26T12:37:55Z</time>
      </trkpt>
      <trkpt lat="45.99203" lon="5.85109">
        <ele>278.6</ele>
        <time>2022-09-26T12:37:56Z</time>
      </trkpt>
      <trkpt lat="45.99202" lon="5.85104">
        <ele>278.7</ele>
        <time>2022-09-26T12:37:57Z</time>
      </trkpt>
      <trkpt lat="45.99201" lon="5.85099">
        <ele>278.7</ele>
        <time>2022-09-26T12:37:58Z</time>
      </trkpt>
      <trkpt lat="45.992" lon="5.85095">
        <ele>278.7</ele>
        <time>2022-09-26T12:37:59Z</time>
      </trkpt>
      <trkpt lat="45.99198" lon="5.8509">
        <ele>278.8</ele>
        <time>2022-09-26T12:38:00Z</time>
      </trkpt>
      <trkpt lat="45.99197" lon="5.85086">
        <ele>278.8</ele>
        <time>2022-09-26T12:38:01Z</time>
      </trkpt>
      <trkpt lat="45.99195" lon="5.85081">
        <ele>278.8</ele>
        <time>2022-09-26T12:38:02Z</time>
      </trkpt>
      <trkpt lat="45.99193" lon="5.85078">
        <ele>278.8</ele>
        <time>2022-09-26T12:38:03Z</time>
      </trkpt>
      <trkpt lat="45.9919" lon="5.85073">
        <ele>278.9</ele>
        <time>2022-09-26T12:38:04Z</time>
      </trkpt>
      <trkpt lat="45.99188" lon="5.8507">
        <ele>278.9</ele>
        <time>2022-09-26T12:38:05Z</time>
      </trkpt>
      <trkpt lat="45.99185" lon="5.85066">
        <ele>278.9</ele>
        <time>2022-09-26T12:38:06Z</time>
      </trkpt>
      <trkpt lat="45.99182" lon="5.85062">
        <ele>279</ele>
        <time>2022-09-26T12:38:07Z</time>
      </trkpt>
      <trkpt lat="45.99179" lon="5.85058">
        <ele>279</ele>
        <time>2022-09-26T12:38:08Z</time>
      </trkpt>
      <trkpt lat="45.99176" lon="5.85053">
        <ele>279.1</ele>
        <time>2022-09-26T12:38:09Z</time>
      </trkpt>
      <trkpt lat="45.99175" lon="5.8505">
        <ele>279.1</ele>
        <time>2022-09-26T12:38:10Z</time>
      </trkpt>
      <trkpt lat="45.99172" lon="5.85046">
        <ele>279.1</ele>
        <time>2022-09-26T12:38:11Z</time>
      </trkpt>
      <trkpt lat="45.9917" lon="5.85042">
        <ele>279.2</ele>
        <time>2022-09-26T12:38:12Z</time>
      </trkpt>
      <trkpt lat="45.99168" lon="5.85038">
        <ele>279.2</ele>
        <time>2022-09-26T12:38:13Z</time>
      </trkpt>
      <trkpt lat="45.99166" lon="5.85034">
        <ele>279.3</ele>
        <time>2022-09-26T12:38:14Z</time>
      </trkpt>
      <trkpt lat="45.99164" lon="5.8503">
        <ele>279.3</ele>
        <time>2022-09-26T12:38:15Z</time>
      </trkpt>
      <trkpt lat="45.99162" lon="5.85026">
        <ele>279.3</ele>
        <time>2022-09-26T12:38:16Z</time>
      </trkpt>
      <trkpt lat="45.9916" lon="5.85021">
        <ele>279.4</ele>
        <time>2022-09-26T12:38:17Z</time>
      </trkpt>
      <trkpt lat="45.99159" lon="5.85016">
        <ele>279.4</ele>
        <time>2022-09-26T12:38:18Z</time>
      </trkpt>
      <trkpt lat="45.99158" lon="5.85011">
        <ele>279.4</ele>
        <time>2022-09-26T12:38:19Z</time>
      </trkpt>
      <trkpt lat="45.99158" lon="5.85004">
        <ele>279.5</ele>
        <time>2022-09-26T12:38:20Z</time>
      </trkpt>
      <trkpt lat="45.99161" lon="5.84998">
        <ele>279.5</ele>
        <time>2022-09-26T12:38:21Z</time>
      </trkpt>
      <trkpt lat="45.99162" lon="5.84994">
        <ele>279.5</ele>
        <time>2022-09-26T12:38:22Z</time>
      </trkpt>
      <trkpt lat="45.99166" lon="5.8499">
        <ele>279.5</ele>
        <time>2022-09-26T12:38:23Z</time>
      </trkpt>
      <trkpt lat="45.99169" lon="5.84987">
        <ele>279.5</ele>
        <time>2022-09-26T12:38:24Z</time>
      </trkpt>
      <trkpt lat="45.99171" lon="5.84983">
        <ele>279.6</ele>
        <time>2022-09-26T12:38:25Z</time>
      </trkpt>
      <trkpt lat="45.99176" lon="5.84981">
        <ele>279.6</ele>
        <time>2022-09-26T12:38:26Z</time>
      </trkpt>
      <trkpt lat="45.99179" lon="5.84979">
        <ele>279.6</ele>
        <time>2022-09-26T12:38:27Z</time>
      </trkpt>
      <trkpt lat="45.99182" lon="5.84978">
        <ele>279.7</ele>
        <time>2022-09-26T12:38:28Z</time>
      </trkpt>
      <trkpt lat="45.99186" lon="5.84975">
        <ele>279.8</ele>
        <time>2022-09-26T12:38:29Z</time>
      </trkpt>
      <trkpt lat="45.99188" lon="5.84972">
        <ele>279.8</ele>
        <time>2022-09-26T12:38:30Z</time>
      </trkpt>
      <trkpt lat="45.99192" lon="5.8497">
        <ele>279.9</ele>
        <time>2022-09-26T12:38:31Z</time>
      </trkpt>
      <trkpt lat="45.99195" lon="5.84969">
        <ele>280</ele>
        <time>2022-09-26T12:38:32Z</time>
      </trkpt>
      <trkpt lat="45.99198" lon="5.84968">
        <ele>280.1</ele>
        <time>2022-09-26T12:38:33Z</time>
      </trkpt>
      <trkpt lat="45.99201" lon="5.84967">
        <ele>280.2</ele>
        <time>2022-09-26T12:38:34Z</time>
      </trkpt>
      <trkpt lat="45.99203" lon="5.84965">
        <ele>280.3</ele>
        <time>2022-09-26T12:38:35Z</time>
      </trkpt>
      <trkpt lat="45.99206" lon="5.84963">
        <ele>280.5</ele>
        <time>2022-09-26T12:38:36Z</time>
      </trkpt>
      <trkpt lat="45.9921" lon="5.84961">
        <ele>280.7</ele>
        <time>2022-09-26T12:38:37Z</time>
      </trkpt>
      <trkpt lat="45.99211" lon="5.8496">
        <ele>280.8</ele>
        <time>2022-09-26T12:38:38Z</time>
      </trkpt>
      <trkpt lat="45.99214" lon="5.84958">
        <ele>281</ele>
        <time>2022-09-26T12:38:39Z</time>
      </trkpt>
      <trkpt lat="45.99215" lon="5.84958">
        <ele>281.1</ele>
        <time>2022-09-26T12:38:40Z</time>
      </trkpt>
      <trkpt lat="45.99217" lon="5.84955">
        <ele>281.3</ele>
        <time>2022-09-26T12:38:41Z</time>
      </trkpt>
      <trkpt lat="45.99218" lon="5.84954">
        <ele>281.4</ele>
        <time>2022-09-26T12:38:42Z</time>
      </trkpt>
      <trkpt lat="45.99221" lon="5.84951">
        <ele>281.7</ele>
        <time>2022-09-26T12:38:43Z</time>
      </trkpt>
      <trkpt lat="45.99222" lon="5.8495">
        <ele>281.8</ele>
        <time>2022-09-26T12:38:44Z</time>
      </trkpt>
      <trkpt lat="45.99224" lon="5.84949">
        <ele>281.9</ele>
        <time>2022-09-26T12:38:45Z</time>
      </trkpt>
      <trkpt lat="45.99224" lon="5.84947">
        <ele>282.1</ele>
        <time>2022-09-26T12:38:46Z</time>
      </trkpt>
      <trkpt lat="45.99227" lon="5.84945">
        <ele>282.3</ele>
        <time>2022-09-26T12:38:47Z</time>
      </trkpt>
      <trkpt lat="45.99228" lon="5.84944">
        <ele>282.4</ele>
        <time>2022-09-26T12:38:48Z</time>
      </trkpt>
      <trkpt lat="45.9923" lon="5.84944">
        <ele>282.5</ele>
        <time>2022-09-26T12:38:49Z</time>
      </trkpt>
      <trkpt lat="45.99231" lon="5.84942">
        <ele>282.7</ele>
        <time>2022-09-26T12:38:50Z</time>
      </trkpt>
      <trkpt lat="45.99232" lon="5.84941">
        <ele>282.8</ele>
        <time>2022-09-26T12:38:51Z</time>
      </trkpt>
      <trkpt lat="45.99234" lon="5.84939">
        <ele>283</ele>
        <time>2022-09-26T12:38:52Z</time>
      </trkpt>
      <trkpt lat="45.99237" lon="5.84939">
        <ele>283.2</ele>
        <time>2022-09-26T12:38:53Z</time>
      </trkpt>
      <trkpt lat="45.99238" lon="5.84939">
        <ele>283.3</ele>
        <time>2022-09-26T12:38:54Z</time>
      </trkpt>
      <trkpt lat="45.9924" lon="5.84937">
        <ele>283.5</ele>
        <time>2022-09-26T12:38:55Z</time>
      </trkpt>
      <trkpt lat="45.99241" lon="5.84937">
        <ele>283.6</ele>
        <time>2022-09-26T12:38:56Z</time>
      </trkpt>
      <trkpt lat="45.99242" lon="5.84936">
        <ele>283.7</ele>
        <time>2022-09-26T12:38:57Z</time>
      </trkpt>
      <trkpt lat="45.99244" lon="5.84936">
        <ele>283.9</ele>
        <time>2022-09-26T12:38:59Z</time>
      </trkpt>
      <trkpt lat="45.99245" lon="5.84935">
        <ele>284</ele>
        <time>2022-09-26T12:39:00Z</time>
      </trkpt>
      <trkpt lat="45.99245" lon="5.84934">
        <ele>284</ele>
        <time>2022-09-26T12:39:01Z</time>
      </trkpt>
      <trkpt lat="45.99248" lon="5.84933">
        <ele>284.3</ele>
        <time>2022-09-26T12:39:02Z</time>
      </trkpt>
      <trkpt lat="45.99249" lon="5.84933">
        <ele>284.4</ele>
        <time>2022-09-26T12:39:03Z</time>
      </trkpt>
      <trkpt lat="45.99252" lon="5.84931">
        <ele>284.6</ele>
        <time>2022-09-26T12:39:04Z</time>
      </trkpt>
      <trkpt lat="45.99253" lon="5.84931">
        <ele>284.7</ele>
        <time>2022-09-26T12:39:05Z</time>
      </trkpt>
      <trkpt lat="45.99254" lon="5.84931">
        <ele>284.8</ele>
        <time>2022-09-26T12:39:06Z</time>
      </trkpt>
      <trkpt lat="45.99255" lon="5.8493">
        <ele>284.9</ele>
        <time>2022-09-26T12:39:07Z</time>
      </trkpt>
      <trkpt lat="45.99257" lon="5.84928">
        <ele>285.1</ele>
        <time>2022-09-26T12:39:08Z</time>
      </trkpt>
      <trkpt lat="45.99257" lon="5.84928">
        <ele>285.1</ele>
        <time>2022-09-26T12:39:09Z</time>
      </trkpt>
      <trkpt lat="45.9926" lon="5.84925">
        <ele>285.4</ele>
        <time>2022-09-26T12:39:10Z</time>
      </trkpt>
      <trkpt lat="45.99261" lon="5.84924">
        <ele>285.5</ele>
        <time>2022-09-26T12:39:11Z</time>
      </trkpt>
      <trkpt lat="45.99262" lon="5.84923">
        <ele>285.7</ele>
        <time>2022-09-26T12:39:12Z</time>
      </trkpt>
      <trkpt lat="45.99266" lon="5.84922">
        <ele>285.9</ele>
        <time>2022-09-26T12:39:13Z</time>
      </trkpt>
      <trkpt lat="45.99267" lon="5.84921">
        <ele>286</ele>
        <time>2022-09-26T12:39:14Z</time>
      </trkpt>
      <trkpt lat="45.99267" lon="5.84921">
        <ele>286.1</ele>
        <time>2022-09-26T12:39:15Z</time>
      </trkpt>
      <trkpt lat="45.99269" lon="5.84919">
        <ele>286.3</ele>
        <time>2022-09-26T12:39:16Z</time>
      </trkpt>
      <trkpt lat="45.99271" lon="5.84918">
        <ele>286.5</ele>
        <time>2022-09-26T12:39:17Z</time>
      </trkpt>
      <trkpt lat="45.99272" lon="5.84916">
        <ele>286.6</ele>
        <time>2022-09-26T12:39:18Z</time>
      </trkpt>
      <trkpt lat="45.99275" lon="5.84914">
        <ele>286.8</ele>
        <time>2022-09-26T12:39:19Z</time>
      </trkpt>
      <trkpt lat="45.99276" lon="5.84913">
        <ele>286.9</ele>
        <time>2022-09-26T12:39:20Z</time>
      </trkpt>
      <trkpt lat="45.99277" lon="5.84912">
        <ele>287.1</ele>
        <time>2022-09-26T12:39:21Z</time>
      </trkpt>
      <trkpt lat="45.99278" lon="5.84911">
        <ele>287.2</ele>
        <time>2022-09-26T12:39:22Z</time>
      </trkpt>
      <trkpt lat="45.99279" lon="5.8491">
        <ele>287.3</ele>
        <time>2022-09-26T12:39:23Z</time>
      </trkpt>
      <trkpt lat="45.99281" lon="5.84909">
        <ele>287.4</ele>
        <time>2022-09-26T12:39:24Z</time>
      </trkpt>
      <trkpt lat="45.99282" lon="5.84907">
        <ele>287.6</ele>
        <time>2022-09-26T12:39:25Z</time>
      </trkpt>
      <trkpt lat="45.99283" lon="5.84907">
        <ele>287.7</ele>
        <time>2022-09-26T12:39:26Z</time>
      </trkpt>
      <trkpt lat="45.99284" lon="5.84906">
        <ele>287.8</ele>
        <time>2022-09-26T12:39:27Z</time>
      </trkpt>
      <trkpt lat="45.99287" lon="5.84905">
        <ele>288</ele>
        <time>2022-09-26T12:39:28Z</time>
      </trkpt>
      <trkpt lat="45.99289" lon="5.84904">
        <ele>288.1</ele>
        <time>2022-09-26T12:39:29Z</time>
      </trkpt>
      <trkpt lat="45.99289" lon="5.84904">
        <ele>288.2</ele>
        <time>2022-09-26T12:39:30Z</time>
      </trkpt>
      <trkpt lat="45.9929" lon="5.84903">
        <ele>288.3</ele>
        <time>2022-09-26T12:39:31Z</time>
      </trkpt>
      <trkpt lat="45.99291" lon="5.84902">
        <ele>288.4</ele>
        <time>2022-09-26T12:39:32Z</time>
      </trkpt>
      <trkpt lat="45.99292" lon="5.84902">
        <ele>288.4</ele>
        <time>2022-09-26T12:39:33Z</time>
      </trkpt>
      <trkpt lat="45.99293" lon="5.84902">
        <ele>288.5</ele>
        <time>2022-09-26T12:39:34Z</time>
      </trkpt>
      <trkpt lat="45.99295" lon="5.849">
        <ele>288.7</ele>
        <time>2022-09-26T12:39:35Z</time>
      </trkpt>
      <trkpt lat="45.99296" lon="5.84899">
        <ele>288.8</ele>
        <time>2022-09-26T12:39:36Z</time>
      </trkpt>
      <trkpt lat="45.99297" lon="5.84898">
        <ele>288.9</ele>
        <time>2022-09-26T12:39:37Z</time>
      </trkpt>
      <trkpt lat="45.993" lon="5.84897">
        <ele>289.1</ele>
        <time>2022-09-26T12:39:38Z</time>
      </trkpt>
      <trkpt lat="45.99301" lon="5.84897">
        <ele>289.2</ele>
        <time>2022-09-26T12:39:39Z</time>
      </trkpt>
      <trkpt lat="45.99302" lon="5.84896">
        <ele>289.3</ele>
        <time>2022-09-26T12:39:40Z</time>
      </trkpt>
      <trkpt lat="45.99304" lon="5.84895">
        <ele>289.4</ele>
        <time>2022-09-26T12:39:41Z</time>
      </trkpt>
      <trkpt lat="45.99305" lon="5.84894">
        <ele>289.5</ele>
        <time>2022-09-26T12:39:42Z</time>
      </trkpt>
      <trkpt lat="45.99306" lon="5.84893">
        <ele>289.6</ele>
        <time>2022-09-26T12:39:43Z</time>
      </trkpt>
      <trkpt lat="45.99308" lon="5.84891">
        <ele>289.8</ele>
        <time>2022-09-26T12:39:44Z</time>
      </trkpt>
      <trkpt lat="45.9931" lon="5.84891">
        <ele>289.9</ele>
        <time>2022-09-26T12:39:45Z</time>
      </trkpt>
      <trkpt lat="45.99311" lon="5.8489">
        <ele>289.9</ele>
        <time>2022-09-26T12:39:46Z</time>
      </trkpt>
      <trkpt lat="45.99313" lon="5.84889">
        <ele>290.1</ele>
        <time>2022-09-26T12:39:47Z</time>
      </trkpt>
      <trkpt lat="45.99314" lon="5.84888">
        <ele>290.2</ele>
        <time>2022-09-26T12:39:48Z</time>
      </trkpt>
      <trkpt lat="45.99315" lon="5.84888">
        <ele>290.2</ele>
        <time>2022-09-26T12:39:49Z</time>
      </trkpt>
      <trkpt lat="45.99317" lon="5.84886">
        <ele>290.4</ele>
        <time>2022-09-26T12:39:50Z</time>
      </trkpt>
      <trkpt lat="45.99319" lon="5.84884">
        <ele>290.5</ele>
        <time>2022-09-26T12:39:51Z</time>
      </trkpt>
      <trkpt lat="45.9932" lon="5.84884">
        <ele>290.6</ele>
        <time>2022-09-26T12:39:52Z</time>
      </trkpt>
      <trkpt lat="45.99324" lon="5.84881">
        <ele>290.8</ele>
        <time>2022-09-26T12:39:53Z</time>
      </trkpt>
      <trkpt lat="45.99326" lon="5.84878">
        <ele>291</ele>
        <time>2022-09-26T12:39:54Z</time>
      </trkpt>
      <trkpt lat="45.99328" lon="5.84877">
        <ele>291.1</ele>
        <time>2022-09-26T12:39:55Z</time>
      </trkpt>
      <trkpt lat="45.99329" lon="5.84877">
        <ele>291.2</ele>
        <time>2022-09-26T12:39:56Z</time>
      </trkpt>
      <trkpt lat="45.99331" lon="5.84876">
        <ele>291.3</ele>
        <time>2022-09-26T12:39:57Z</time>
      </trkpt>
      <trkpt lat="45.99333" lon="5.84874">
        <ele>291.4</ele>
        <time>2022-09-26T12:39:58Z</time>
      </trkpt>
      <trkpt lat="45.99334" lon="5.84873">
        <ele>291.5</ele>
        <time>2022-09-26T12:39:59Z</time>
      </trkpt>
      <trkpt lat="45.99336" lon="5.84872">
        <ele>291.6</ele>
        <time>2022-09-26T12:40:00Z</time>
      </trkpt>
      <trkpt lat="45.99337" lon="5.84872">
        <ele>291.7</ele>
        <time>2022-09-26T12:40:01Z</time>
      </trkpt>
      <trkpt lat="45.99338" lon="5.8487">
        <ele>291.7</ele>
        <time>2022-09-26T12:40:02Z</time>
      </trkpt>
      <trkpt lat="45.9934" lon="5.84869">
        <ele>291.9</ele>
        <time>2022-09-26T12:40:03Z</time>
      </trkpt>
      <trkpt lat="45.99343" lon="5.84866">
        <ele>292</ele>
        <time>2022-09-26T12:40:04Z</time>
      </trkpt>
      <trkpt lat="45.99344" lon="5.84866">
        <ele>292.1</ele>
        <time>2022-09-26T12:40:05Z</time>
      </trkpt>
      <trkpt lat="45.99345" lon="5.84864">
        <ele>292.2</ele>
        <time>2022-09-26T12:40:06Z</time>
      </trkpt>
      <trkpt lat="45.99346" lon="5.84863">
        <ele>292.3</ele>
        <time>2022-09-26T12:40:07Z</time>
      </trkpt>
      <trkpt lat="45.99348" lon="5.84859">
        <ele>292.4</ele>
        <time>2022-09-26T12:40:08Z</time>
      </trkpt>
      <trkpt lat="45.99349" lon="5.84857">
        <ele>292.5</ele>
        <time>2022-09-26T12:40:09Z</time>
      </trkpt>
      <trkpt lat="45.99351" lon="5.84854">
        <ele>292.6</ele>
        <time>2022-09-26T12:40:10Z</time>
      </trkpt>
      <trkpt lat="45.99352" lon="5.84853">
        <ele>292.6</ele>
        <time>2022-09-26T12:40:11Z</time>
      </trkpt>
      <trkpt lat="45.99353" lon="5.84852">
        <ele>292.7</ele>
        <time>2022-09-26T12:40:12Z</time>
      </trkpt>
      <trkpt lat="45.99355" lon="5.84849">
        <ele>292.8</ele>
        <time>2022-09-26T12:40:13Z</time>
      </trkpt>
      <trkpt lat="45.99357" lon="5.84846">
        <ele>292.9</ele>
        <time>2022-09-26T12:40:14Z</time>
      </trkpt>
      <trkpt lat="45.99357" lon="5.84845">
        <ele>293</ele>
        <time>2022-09-26T12:40:15Z</time>
      </trkpt>
      <trkpt lat="45.9936" lon="5.84842">
        <ele>293.2</ele>
        <time>2022-09-26T12:40:16Z</time>
      </trkpt>
      <trkpt lat="45.9936" lon="5.8484">
        <ele>293.2</ele>
        <time>2022-09-26T12:40:17Z</time>
      </trkpt>
      <trkpt lat="45.99362" lon="5.84836">
        <ele>293.4</ele>
        <time>2022-09-26T12:40:18Z</time>
      </trkpt>
      <trkpt lat="45.99363" lon="5.84835">
        <ele>293.5</ele>
        <time>2022-09-26T12:40:19Z</time>
      </trkpt>
      <trkpt lat="45.99364" lon="5.84833">
        <ele>293.6</ele>
        <time>2022-09-26T12:40:20Z</time>
      </trkpt>
      <trkpt lat="45.99365" lon="5.84831">
        <ele>293.7</ele>
        <time>2022-09-26T12:40:21Z</time>
      </trkpt>
      <trkpt lat="45.99367" lon="5.84828">
        <ele>293.8</ele>
        <time>2022-09-26T12:40:22Z</time>
      </trkpt>
      <trkpt lat="45.99368" lon="5.84827">
        <ele>293.9</ele>
        <time>2022-09-26T12:40:23Z</time>
      </trkpt>
      <trkpt lat="45.9937" lon="5.84824">
        <ele>294</ele>
        <time>2022-09-26T12:40:24Z</time>
      </trkpt>
      <trkpt lat="45.99371" lon="5.84823">
        <ele>294.1</ele>
        <time>2022-09-26T12:40:25Z</time>
      </trkpt>
      <trkpt lat="45.99373" lon="5.8482">
        <ele>294.2</ele>
        <time>2022-09-26T12:40:26Z</time>
      </trkpt>
      <trkpt lat="45.99373" lon="5.84819">
        <ele>294.3</ele>
        <time>2022-09-26T12:40:27Z</time>
      </trkpt>
      <trkpt lat="45.99376" lon="5.84817">
        <ele>294.5</ele>
        <time>2022-09-26T12:40:28Z</time>
      </trkpt>
      <trkpt lat="45.99376" lon="5.84816">
        <ele>294.5</ele>
        <time>2022-09-26T12:40:29Z</time>
      </trkpt>
      <trkpt lat="45.99379" lon="5.84814">
        <ele>294.7</ele>
        <time>2022-09-26T12:40:30Z</time>
      </trkpt>
      <trkpt lat="45.9938" lon="5.84813">
        <ele>294.8</ele>
        <time>2022-09-26T12:40:31Z</time>
      </trkpt>
      <trkpt lat="45.99382" lon="5.8481">
        <ele>295</ele>
        <time>2022-09-26T12:40:32Z</time>
      </trkpt>
      <trkpt lat="45.99383" lon="5.84809">
        <ele>295</ele>
        <time>2022-09-26T12:40:33Z</time>
      </trkpt>
      <trkpt lat="45.99386" lon="5.84807">
        <ele>295.2</ele>
        <time>2022-09-26T12:40:34Z</time>
      </trkpt>
      <trkpt lat="45.99387" lon="5.84806">
        <ele>295.3</ele>
        <time>2022-09-26T12:40:35Z</time>
      </trkpt>
      <trkpt lat="45.99389" lon="5.84805">
        <ele>295.5</ele>
        <time>2022-09-26T12:40:36Z</time>
      </trkpt>
      <trkpt lat="45.9939" lon="5.84804">
        <ele>295.6</ele>
        <time>2022-09-26T12:40:37Z</time>
      </trkpt>
      <trkpt lat="45.99392" lon="5.84803">
        <ele>295.7</ele>
        <time>2022-09-26T12:40:38Z</time>
      </trkpt>
      <trkpt lat="45.99394" lon="5.84802">
        <ele>295.8</ele>
        <time>2022-09-26T12:40:39Z</time>
      </trkpt>
      <trkpt lat="45.99395" lon="5.84801">
        <ele>295.9</ele>
        <time>2022-09-26T12:40:40Z</time>
      </trkpt>
      <trkpt lat="45.99397" lon="5.848">
        <ele>296</ele>
        <time>2022-09-26T12:40:41Z</time>
      </trkpt>
      <trkpt lat="45.99399" lon="5.84799">
        <ele>296.2</ele>
        <time>2022-09-26T12:40:42Z</time>
      </trkpt>
      <trkpt lat="45.994" lon="5.84798">
        <ele>296.3</ele>
        <time>2022-09-26T12:40:43Z</time>
      </trkpt>
      <trkpt lat="45.99401" lon="5.84797">
        <ele>296.4</ele>
        <time>2022-09-26T12:40:44Z</time>
      </trkpt>
      <trkpt lat="45.99403" lon="5.84796">
        <ele>296.5</ele>
        <time>2022-09-26T12:40:45Z</time>
      </trkpt>
      <trkpt lat="45.99405" lon="5.84794">
        <ele>296.8</ele>
        <time>2022-09-26T12:40:46Z</time>
      </trkpt>
      <trkpt lat="45.99406" lon="5.84794">
        <ele>296.8</ele>
        <time>2022-09-26T12:40:47Z</time>
      </trkpt>
      <trkpt lat="45.99408" lon="5.84793">
        <ele>297</ele>
        <time>2022-09-26T12:40:48Z</time>
      </trkpt>
      <trkpt lat="45.99409" lon="5.84792">
        <ele>297.1</ele>
        <time>2022-09-26T12:40:49Z</time>
      </trkpt>
      <trkpt lat="45.99412" lon="5.84791">
        <ele>297.3</ele>
        <time>2022-09-26T12:40:50Z</time>
      </trkpt>
      <trkpt lat="45.99413" lon="5.8479">
        <ele>297.4</ele>
        <time>2022-09-26T12:40:51Z</time>
      </trkpt>
      <trkpt lat="45.99414" lon="5.8479">
        <ele>297.5</ele>
        <time>2022-09-26T12:40:52Z</time>
      </trkpt>
      <trkpt lat="45.99416" lon="5.84789">
        <ele>297.6</ele>
        <time>2022-09-26T12:40:53Z</time>
      </trkpt>
      <trkpt lat="45.99417" lon="5.84788">
        <ele>297.8</ele>
        <time>2022-09-26T12:40:54Z</time>
      </trkpt>
      <trkpt lat="45.99419" lon="5.84787">
        <ele>297.9</ele>
        <time>2022-09-26T12:40:55Z</time>
      </trkpt>
      <trkpt lat="45.9942" lon="5.84786">
        <ele>298</ele>
        <time>2022-09-26T12:40:56Z</time>
      </trkpt>
      <trkpt lat="45.99422" lon="5.84786">
        <ele>298.2</ele>
        <time>2022-09-26T12:40:57Z</time>
      </trkpt>
      <trkpt lat="45.99424" lon="5.84785">
        <ele>298.3</ele>
        <time>2022-09-26T12:40:58Z</time>
      </trkpt>
      <trkpt lat="45.99425" lon="5.84784">
        <ele>298.4</ele>
        <time>2022-09-26T12:40:59Z</time>
      </trkpt>
      <trkpt lat="45.99426" lon="5.84783">
        <ele>298.6</ele>
        <time>2022-09-26T12:41:00Z</time>
      </trkpt>
      <trkpt lat="45.99427" lon="5.84782">
        <ele>298.7</ele>
        <time>2022-09-26T12:41:01Z</time>
      </trkpt>
      <trkpt lat="45.99429" lon="5.84781">
        <ele>298.8</ele>
        <time>2022-09-26T12:41:02Z</time>
      </trkpt>
      <trkpt lat="45.9943" lon="5.8478">
        <ele>299</ele>
        <time>2022-09-26T12:41:03Z</time>
      </trkpt>
      <trkpt lat="45.99432" lon="5.8478">
        <ele>299.1</ele>
        <time>2022-09-26T12:41:05Z</time>
      </trkpt>
      <trkpt lat="45.99434" lon="5.84779">
        <ele>299.2</ele>
        <time>2022-09-26T12:41:06Z</time>
      </trkpt>
      <trkpt lat="45.99435" lon="5.84778">
        <ele>299.3</ele>
        <time>2022-09-26T12:41:07Z</time>
      </trkpt>
      <trkpt lat="45.99436" lon="5.84777">
        <ele>299.5</ele>
        <time>2022-09-26T12:41:08Z</time>
      </trkpt>
      <trkpt lat="45.99438" lon="5.84775">
        <ele>299.6</ele>
        <time>2022-09-26T12:41:09Z</time>
      </trkpt>
      <trkpt lat="45.99439" lon="5.84774">
        <ele>299.7</ele>
        <time>2022-09-26T12:41:10Z</time>
      </trkpt>
      <trkpt lat="45.99441" lon="5.84772">
        <ele>299.9</ele>
        <time>2022-09-26T12:41:11Z</time>
      </trkpt>
      <trkpt lat="45.99442" lon="5.84771">
        <ele>300</ele>
        <time>2022-09-26T12:41:12Z</time>
      </trkpt>
      <trkpt lat="45.99443" lon="5.84771">
        <ele>300.1</ele>
        <time>2022-09-26T12:41:13Z</time>
      </trkpt>
      <trkpt lat="45.99444" lon="5.8477">
        <ele>300.2</ele>
        <time>2022-09-26T12:41:14Z</time>
      </trkpt>
      <trkpt lat="45.99446" lon="5.84769">
        <ele>300.3</ele>
        <time>2022-09-26T12:41:15Z</time>
      </trkpt>
      <trkpt lat="45.99448" lon="5.84768">
        <ele>300.5</ele>
        <time>2022-09-26T12:41:16Z</time>
      </trkpt>
      <trkpt lat="45.99449" lon="5.84767">
        <ele>300.6</ele>
        <time>2022-09-26T12:41:17Z</time>
      </trkpt>
      <trkpt lat="45.99449" lon="5.84766">
        <ele>300.7</ele>
        <time>2022-09-26T12:41:18Z</time>
      </trkpt>
      <trkpt lat="45.99451" lon="5.84765">
        <ele>300.8</ele>
        <time>2022-09-26T12:41:19Z</time>
      </trkpt>
      <trkpt lat="45.99452" lon="5.84764">
        <ele>301</ele>
        <time>2022-09-26T12:41:20Z</time>
      </trkpt>
      <trkpt lat="45.99454" lon="5.84761">
        <ele>301.2</ele>
        <time>2022-09-26T12:41:21Z</time>
      </trkpt>
      <trkpt lat="45.99455" lon="5.8476">
        <ele>301.3</ele>
        <time>2022-09-26T12:41:22Z</time>
      </trkpt>
      <trkpt lat="45.99457" lon="5.84759">
        <ele>301.4</ele>
        <time>2022-09-26T12:41:23Z</time>
      </trkpt>
      <trkpt lat="45.99458" lon="5.84758">
        <ele>301.5</ele>
        <time>2022-09-26T12:41:24Z</time>
      </trkpt>
      <trkpt lat="45.99459" lon="5.84757">
        <ele>301.7</ele>
        <time>2022-09-26T12:41:25Z</time>
      </trkpt>
      <trkpt lat="45.9946" lon="5.84756">
        <ele>301.8</ele>
        <time>2022-09-26T12:41:26Z</time>
      </trkpt>
      <trkpt lat="45.99461" lon="5.84754">
        <ele>301.9</ele>
        <time>2022-09-26T12:41:27Z</time>
      </trkpt>
      <trkpt lat="45.99462" lon="5.84752">
        <ele>302.1</ele>
        <time>2022-09-26T12:41:28Z</time>
      </trkpt>
      <trkpt lat="45.99464" lon="5.8475">
        <ele>302.2</ele>
        <time>2022-09-26T12:41:29Z</time>
      </trkpt>
      <trkpt lat="45.99465" lon="5.84748">
        <ele>302.3</ele>
        <time>2022-09-26T12:41:30Z</time>
      </trkpt>
      <trkpt lat="45.99466" lon="5.84747">
        <ele>302.4</ele>
        <time>2022-09-26T12:41:31Z</time>
      </trkpt>
      <trkpt lat="45.99467" lon="5.84745">
        <ele>302.6</ele>
        <time>2022-09-26T12:41:32Z</time>
      </trkpt>
      <trkpt lat="45.99468" lon="5.84744">
        <ele>302.7</ele>
        <time>2022-09-26T12:41:33Z</time>
      </trkpt>
      <trkpt lat="45.99469" lon="5.84742">
        <ele>302.8</ele>
        <time>2022-09-26T12:41:34Z</time>
      </trkpt>
      <trkpt lat="45.9947" lon="5.8474">
        <ele>302.9</ele>
        <time>2022-09-26T12:41:35Z</time>
      </trkpt>
      <trkpt lat="45.99471" lon="5.84738">
        <ele>303</ele>
        <time>2022-09-26T12:41:36Z</time>
      </trkpt>
      <trkpt lat="45.99472" lon="5.84736">
        <ele>303.1</ele>
        <time>2022-09-26T12:41:37Z</time>
      </trkpt>
      <trkpt lat="45.99473" lon="5.84734">
        <ele>303.2</ele>
        <time>2022-09-26T12:41:38Z</time>
      </trkpt>
      <trkpt lat="45.99474" lon="5.84733">
        <ele>303.3</ele>
        <time>2022-09-26T12:41:39Z</time>
      </trkpt>
      <trkpt lat="45.99475" lon="5.84731">
        <ele>303.5</ele>
        <time>2022-09-26T12:41:40Z</time>
      </trkpt>
      <trkpt lat="45.99476" lon="5.8473">
        <ele>303.6</ele>
        <time>2022-09-26T12:41:41Z</time>
      </trkpt>
      <trkpt lat="45.99477" lon="5.84728">
        <ele>303.7</ele>
        <time>2022-09-26T12:41:42Z</time>
      </trkpt>
      <trkpt lat="45.99478" lon="5.84726">
        <ele>303.8</ele>
        <time>2022-09-26T12:41:43Z</time>
      </trkpt>
      <trkpt lat="45.99478" lon="5.84724">
        <ele>303.9</ele>
        <time>2022-09-26T12:41:44Z</time>
      </trkpt>
      <trkpt lat="45.99479" lon="5.84722">
        <ele>304</ele>
        <time>2022-09-26T12:41:45Z</time>
      </trkpt>
      <trkpt lat="45.99481" lon="5.84721">
        <ele>304.1</ele>
        <time>2022-09-26T12:41:46Z</time>
      </trkpt>
      <trkpt lat="45.99482" lon="5.8472">
        <ele>304.2</ele>
        <time>2022-09-26T12:41:47Z</time>
      </trkpt>
      <trkpt lat="45.99483" lon="5.84717">
        <ele>304.4</ele>
        <time>2022-09-26T12:41:48Z</time>
      </trkpt>
      <trkpt lat="45.99483" lon="5.84715">
        <ele>304.5</ele>
        <time>2022-09-26T12:41:49Z</time>
      </trkpt>
      <trkpt lat="45.99485" lon="5.84712">
        <ele>304.7</ele>
        <time>2022-09-26T12:41:50Z</time>
      </trkpt>
      <trkpt lat="45.99486" lon="5.8471">
        <ele>304.9</ele>
        <time>2022-09-26T12:41:51Z</time>
      </trkpt>
      <trkpt lat="45.99487" lon="5.84709">
        <ele>304.9</ele>
        <time>2022-09-26T12:41:52Z</time>
      </trkpt>
      <trkpt lat="45.99488" lon="5.84706">
        <ele>305.1</ele>
        <time>2022-09-26T12:41:53Z</time>
      </trkpt>
      <trkpt lat="45.99489" lon="5.84705">
        <ele>305.2</ele>
        <time>2022-09-26T12:41:54Z</time>
      </trkpt>
      <trkpt lat="45.9949" lon="5.84702">
        <ele>305.3</ele>
        <time>2022-09-26T12:41:55Z</time>
      </trkpt>
      <trkpt lat="45.99491" lon="5.84701">
        <ele>305.4</ele>
        <time>2022-09-26T12:41:56Z</time>
      </trkpt>
      <trkpt lat="45.99491" lon="5.84701">
        <ele>305.4</ele>
        <time>2022-09-26T12:41:57Z</time>
      </trkpt>
      <trkpt lat="45.99492" lon="5.84698">
        <ele>305.6</ele>
        <time>2022-09-26T12:41:58Z</time>
      </trkpt>
      <trkpt lat="45.99493" lon="5.84696">
        <ele>305.7</ele>
        <time>2022-09-26T12:41:59Z</time>
      </trkpt>
      <trkpt lat="45.99494" lon="5.84694">
        <ele>305.8</ele>
        <time>2022-09-26T12:42:00Z</time>
      </trkpt>
      <trkpt lat="45.99495" lon="5.84693">
        <ele>305.9</ele>
        <time>2022-09-26T12:42:01Z</time>
      </trkpt>
      <trkpt lat="45.99497" lon="5.8469">
        <ele>306.2</ele>
        <time>2022-09-26T12:42:02Z</time>
      </trkpt>
      <trkpt lat="45.99497" lon="5.84689">
        <ele>306.2</ele>
        <time>2022-09-26T12:42:03Z</time>
      </trkpt>
      <trkpt lat="45.99498" lon="5.84687">
        <ele>306.3</ele>
        <time>2022-09-26T12:42:04Z</time>
      </trkpt>
      <trkpt lat="45.99498" lon="5.84685">
        <ele>306.5</ele>
        <time>2022-09-26T12:42:05Z</time>
      </trkpt>
      <trkpt lat="45.99499" lon="5.84684">
        <ele>306.6</ele>
        <time>2022-09-26T12:42:06Z</time>
      </trkpt>
      <trkpt lat="45.995" lon="5.84682">
        <ele>306.7</ele>
        <time>2022-09-26T12:42:07Z</time>
      </trkpt>
      <trkpt lat="45.99501" lon="5.8468">
        <ele>306.8</ele>
        <time>2022-09-26T12:42:08Z</time>
      </trkpt>
      <trkpt lat="45.99502" lon="5.84678">
        <ele>306.9</ele>
        <time>2022-09-26T12:42:09Z</time>
      </trkpt>
      <trkpt lat="45.99503" lon="5.84676">
        <ele>307.1</ele>
        <time>2022-09-26T12:42:10Z</time>
      </trkpt>
      <trkpt lat="45.99504" lon="5.84674">
        <ele>307.2</ele>
        <time>2022-09-26T12:42:11Z</time>
      </trkpt>
      <trkpt lat="45.99505" lon="5.84672">
        <ele>307.3</ele>
        <time>2022-09-26T12:42:12Z</time>
      </trkpt>
      <trkpt lat="45.99506" lon="5.84671">
        <ele>307.4</ele>
        <time>2022-09-26T12:42:13Z</time>
      </trkpt>
      <trkpt lat="45.99507" lon="5.84669">
        <ele>307.6</ele>
        <time>2022-09-26T12:42:14Z</time>
      </trkpt>
      <trkpt lat="45.99507" lon="5.84667">
        <ele>307.7</ele>
        <time>2022-09-26T12:42:15Z</time>
      </trkpt>
      <trkpt lat="45.99509" lon="5.84665">
        <ele>307.8</ele>
        <time>2022-09-26T12:42:16Z</time>
      </trkpt>
      <trkpt lat="45.99509" lon="5.84664">
        <ele>307.9</ele>
        <time>2022-09-26T12:42:17Z</time>
      </trkpt>
      <trkpt lat="45.9951" lon="5.84662">
        <ele>308.1</ele>
        <time>2022-09-26T12:42:18Z</time>
      </trkpt>
      <trkpt lat="45.99511" lon="5.8466">
        <ele>308.2</ele>
        <time>2022-09-26T12:42:19Z</time>
      </trkpt>
      <trkpt lat="45.99513" lon="5.84658">
        <ele>308.3</ele>
        <time>2022-09-26T12:42:20Z</time>
      </trkpt>
      <trkpt lat="45.99513" lon="5.84657">
        <ele>308.4</ele>
        <time>2022-09-26T12:42:21Z</time>
      </trkpt>
      <trkpt lat="45.99514" lon="5.84655">
        <ele>308.5</ele>
        <time>2022-09-26T12:42:22Z</time>
      </trkpt>
      <trkpt lat="45.99515" lon="5.84653">
        <ele>308.7</ele>
        <time>2022-09-26T12:42:23Z</time>
      </trkpt>
      <trkpt lat="45.99516" lon="5.84651">
        <ele>308.7</ele>
        <time>2022-09-26T12:42:24Z</time>
      </trkpt>
      <trkpt lat="45.99516" lon="5.8465">
        <ele>308.8</ele>
        <time>2022-09-26T12:42:25Z</time>
      </trkpt>
      <trkpt lat="45.99517" lon="5.84648">
        <ele>309</ele>
        <time>2022-09-26T12:42:26Z</time>
      </trkpt>
      <trkpt lat="45.99518" lon="5.84646">
        <ele>309.1</ele>
        <time>2022-09-26T12:42:27Z</time>
      </trkpt>
      <trkpt lat="45.99519" lon="5.84645">
        <ele>309.2</ele>
        <time>2022-09-26T12:42:28Z</time>
      </trkpt>
      <trkpt lat="45.9952" lon="5.84643">
        <ele>309.3</ele>
        <time>2022-09-26T12:42:29Z</time>
      </trkpt>
      <trkpt lat="45.99522" lon="5.8464">
        <ele>309.5</ele>
        <time>2022-09-26T12:42:30Z</time>
      </trkpt>
      <trkpt lat="45.99522" lon="5.8464">
        <ele>309.6</ele>
        <time>2022-09-26T12:42:31Z</time>
      </trkpt>
      <trkpt lat="45.99524" lon="5.84637">
        <ele>309.7</ele>
        <time>2022-09-26T12:42:32Z</time>
      </trkpt>
      <trkpt lat="45.99524" lon="5.84636">
        <ele>309.8</ele>
        <time>2022-09-26T12:42:33Z</time>
      </trkpt>
      <trkpt lat="45.99525" lon="5.84635">
        <ele>309.8</ele>
        <time>2022-09-26T12:42:34Z</time>
      </trkpt>
      <trkpt lat="45.99527" lon="5.84633">
        <ele>310.1</ele>
        <time>2022-09-26T12:42:35Z</time>
      </trkpt>
      <trkpt lat="45.99528" lon="5.84632">
        <ele>310.1</ele>
        <time>2022-09-26T12:42:36Z</time>
      </trkpt>
      <trkpt lat="45.9953" lon="5.84629">
        <ele>310.3</ele>
        <time>2022-09-26T12:42:37Z</time>
      </trkpt>
      <trkpt lat="45.9953" lon="5.84628">
        <ele>310.4</ele>
        <time>2022-09-26T12:42:38Z</time>
      </trkpt>
      <trkpt lat="45.99532" lon="5.84627">
        <ele>310.5</ele>
        <time>2022-09-26T12:42:39Z</time>
      </trkpt>
      <trkpt lat="45.99532" lon="5.84625">
        <ele>310.6</ele>
        <time>2022-09-26T12:42:40Z</time>
      </trkpt>
      <trkpt lat="45.99534" lon="5.84623">
        <ele>310.7</ele>
        <time>2022-09-26T12:42:41Z</time>
      </trkpt>
      <trkpt lat="45.99535" lon="5.84622">
        <ele>310.8</ele>
        <time>2022-09-26T12:42:42Z</time>
      </trkpt>
      <trkpt lat="45.99536" lon="5.8462">
        <ele>310.9</ele>
        <time>2022-09-26T12:42:43Z</time>
      </trkpt>
      <trkpt lat="45.99537" lon="5.84619">
        <ele>311</ele>
        <time>2022-09-26T12:42:44Z</time>
      </trkpt>
      <trkpt lat="45.99539" lon="5.84617">
        <ele>311.1</ele>
        <time>2022-09-26T12:42:45Z</time>
      </trkpt>
      <trkpt lat="45.9954" lon="5.84616">
        <ele>311.2</ele>
        <time>2022-09-26T12:42:46Z</time>
      </trkpt>
      <trkpt lat="45.99541" lon="5.84615">
        <ele>311.3</ele>
        <time>2022-09-26T12:42:47Z</time>
      </trkpt>
      <trkpt lat="45.99543" lon="5.84614">
        <ele>311.4</ele>
        <time>2022-09-26T12:42:48Z</time>
      </trkpt>
      <trkpt lat="45.99545" lon="5.84613">
        <ele>311.5</ele>
        <time>2022-09-26T12:42:49Z</time>
      </trkpt>
      <trkpt lat="45.99546" lon="5.84612">
        <ele>311.5</ele>
        <time>2022-09-26T12:42:50Z</time>
      </trkpt>
      <trkpt lat="45.99547" lon="5.84611">
        <ele>311.6</ele>
        <time>2022-09-26T12:42:51Z</time>
      </trkpt>
      <trkpt lat="45.9955" lon="5.8461">
        <ele>311.7</ele>
        <time>2022-09-26T12:42:52Z</time>
      </trkpt>
      <trkpt lat="45.99551" lon="5.84609">
        <ele>311.7</ele>
        <time>2022-09-26T12:42:53Z</time>
      </trkpt>
      <trkpt lat="45.99553" lon="5.84609">
        <ele>311.8</ele>
        <time>2022-09-26T12:42:54Z</time>
      </trkpt>
      <trkpt lat="45.99554" lon="5.84608">
        <ele>311.9</ele>
        <time>2022-09-26T12:42:55Z</time>
      </trkpt>
      <trkpt lat="45.99555" lon="5.84607">
        <ele>311.9</ele>
        <time>2022-09-26T12:42:56Z</time>
      </trkpt>
      <trkpt lat="45.99557" lon="5.84606">
        <ele>312</ele>
        <time>2022-09-26T12:42:57Z</time>
      </trkpt>
      <trkpt lat="45.99559" lon="5.84605">
        <ele>312</ele>
        <time>2022-09-26T12:42:58Z</time>
      </trkpt>
      <trkpt lat="45.9956" lon="5.84604">
        <ele>312.1</ele>
        <time>2022-09-26T12:42:59Z</time>
      </trkpt>
      <trkpt lat="45.99562" lon="5.84603">
        <ele>312.1</ele>
        <time>2022-09-26T12:43:00Z</time>
      </trkpt>
      <trkpt lat="45.99563" lon="5.84603">
        <ele>312.1</ele>
        <time>2022-09-26T12:43:01Z</time>
      </trkpt>
      <trkpt lat="45.99565" lon="5.84603">
        <ele>312.2</ele>
        <time>2022-09-26T12:43:02Z</time>
      </trkpt>
      <trkpt lat="45.99566" lon="5.84602">
        <ele>312.2</ele>
        <time>2022-09-26T12:43:03Z</time>
      </trkpt>
      <trkpt lat="45.99566" lon="5.84602">
        <ele>312.2</ele>
        <time>2022-09-26T12:43:04Z</time>
      </trkpt>
      <trkpt lat="45.99566" lon="5.84603">
        <ele>312.2</ele>
        <time>2022-09-26T12:43:05Z</time>
      </trkpt>
      <trkpt lat="45.99566" lon="5.84602">
        <ele>312.2</ele>
        <time>2022-09-26T12:43:06Z</time>
      </trkpt>
      <trkpt lat="45.99567" lon="5.84602">
        <ele>312.3</ele>
        <time>2022-09-26T12:43:07Z</time>
      </trkpt>
      <trkpt lat="45.99567" lon="5.84601">
        <ele>312.3</ele>
        <time>2022-09-26T12:43:08Z</time>
      </trkpt>
      <trkpt lat="45.99568" lon="5.846">
        <ele>312.3</ele>
        <time>2022-09-26T12:43:09Z</time>
      </trkpt>
      <trkpt lat="45.99571" lon="5.84598">
        <ele>312.3</ele>
        <time>2022-09-26T12:43:11Z</time>
      </trkpt>
      <trkpt lat="45.99572" lon="5.84597">
        <ele>312.4</ele>
        <time>2022-09-26T12:43:12Z</time>
      </trkpt>
      <trkpt lat="45.99573" lon="5.84597">
        <ele>312.4</ele>
        <time>2022-09-26T12:43:13Z</time>
      </trkpt>
      <trkpt lat="45.99575" lon="5.84597">
        <ele>312.4</ele>
        <time>2022-09-26T12:43:14Z</time>
      </trkpt>
      <trkpt lat="45.99577" lon="5.84597">
        <ele>312.5</ele>
        <time>2022-09-26T12:43:15Z</time>
      </trkpt>
      <trkpt lat="45.99579" lon="5.84595">
        <ele>312.5</ele>
        <time>2022-09-26T12:43:16Z</time>
      </trkpt>
      <trkpt lat="45.99582" lon="5.84595">
        <ele>312.6</ele>
        <time>2022-09-26T12:43:17Z</time>
      </trkpt>
      <trkpt lat="45.99586" lon="5.84593">
        <ele>312.6</ele>
        <time>2022-09-26T12:43:18Z</time>
      </trkpt>
      <trkpt lat="45.99587" lon="5.84593">
        <ele>312.6</ele>
        <time>2022-09-26T12:43:19Z</time>
      </trkpt>
      <trkpt lat="45.99591" lon="5.84592">
        <ele>312.7</ele>
        <time>2022-09-26T12:43:20Z</time>
      </trkpt>
      <trkpt lat="45.99592" lon="5.84591">
        <ele>312.7</ele>
        <time>2022-09-26T12:43:21Z</time>
      </trkpt>
      <trkpt lat="45.99596" lon="5.8459">
        <ele>312.8</ele>
        <time>2022-09-26T12:43:22Z</time>
      </trkpt>
      <trkpt lat="45.99597" lon="5.8459">
        <ele>312.8</ele>
        <time>2022-09-26T12:43:23Z</time>
      </trkpt>
      <trkpt lat="45.99601" lon="5.84588">
        <ele>312.9</ele>
        <time>2022-09-26T12:43:24Z</time>
      </trkpt>
      <trkpt lat="45.99602" lon="5.84588">
        <ele>312.9</ele>
        <time>2022-09-26T12:43:25Z</time>
      </trkpt>
      <trkpt lat="45.99606" lon="5.84587">
        <ele>313</ele>
        <time>2022-09-26T12:43:26Z</time>
      </trkpt>
      <trkpt lat="45.99608" lon="5.84587">
        <ele>313</ele>
        <time>2022-09-26T12:43:27Z</time>
      </trkpt>
      <trkpt lat="45.99611" lon="5.84585">
        <ele>313.1</ele>
        <time>2022-09-26T12:43:28Z</time>
      </trkpt>
      <trkpt lat="45.99613" lon="5.84584">
        <ele>313.1</ele>
        <time>2022-09-26T12:43:29Z</time>
      </trkpt>
      <trkpt lat="45.99616" lon="5.84583">
        <ele>313.2</ele>
        <time>2022-09-26T12:43:30Z</time>
      </trkpt>
      <trkpt lat="45.99618" lon="5.84582">
        <ele>313.2</ele>
        <time>2022-09-26T12:43:31Z</time>
      </trkpt>
      <trkpt lat="45.99622" lon="5.84581">
        <ele>313.3</ele>
        <time>2022-09-26T12:43:32Z</time>
      </trkpt>
      <trkpt lat="45.99623" lon="5.8458">
        <ele>313.3</ele>
        <time>2022-09-26T12:43:33Z</time>
      </trkpt>
      <trkpt lat="45.99627" lon="5.84579">
        <ele>313.4</ele>
        <time>2022-09-26T12:43:34Z</time>
      </trkpt>
      <trkpt lat="45.99628" lon="5.84579">
        <ele>313.4</ele>
        <time>2022-09-26T12:43:35Z</time>
      </trkpt>
      <trkpt lat="45.99631" lon="5.84577">
        <ele>313.5</ele>
        <time>2022-09-26T12:43:36Z</time>
      </trkpt>
      <trkpt lat="45.99635" lon="5.84576">
        <ele>313.6</ele>
        <time>2022-09-26T12:43:37Z</time>
      </trkpt>
      <trkpt lat="45.99637" lon="5.84576">
        <ele>313.6</ele>
        <time>2022-09-26T12:43:38Z</time>
      </trkpt>
      <trkpt lat="45.9964" lon="5.84574">
        <ele>313.7</ele>
        <time>2022-09-26T12:43:39Z</time>
      </trkpt>
      <trkpt lat="45.99641" lon="5.84574">
        <ele>313.7</ele>
        <time>2022-09-26T12:43:40Z</time>
      </trkpt>
      <trkpt lat="45.99644" lon="5.84573">
        <ele>313.8</ele>
        <time>2022-09-26T12:43:41Z</time>
      </trkpt>
      <trkpt lat="45.99647" lon="5.84572">
        <ele>313.9</ele>
        <time>2022-09-26T12:43:42Z</time>
      </trkpt>
      <trkpt lat="45.99649" lon="5.84571">
        <ele>314</ele>
        <time>2022-09-26T12:43:43Z</time>
      </trkpt>
      <trkpt lat="45.99652" lon="5.8457">
        <ele>314</ele>
        <time>2022-09-26T12:43:44Z</time>
      </trkpt>
      <trkpt lat="45.99656" lon="5.84569">
        <ele>314.1</ele>
        <time>2022-09-26T12:43:45Z</time>
      </trkpt>
      <trkpt lat="45.99657" lon="5.84568">
        <ele>314.2</ele>
        <time>2022-09-26T12:43:46Z</time>
      </trkpt>
      <trkpt lat="45.99661" lon="5.84567">
        <ele>314.3</ele>
        <time>2022-09-26T12:43:47Z</time>
      </trkpt>
      <trkpt lat="45.99662" lon="5.84566">
        <ele>314.3</ele>
        <time>2022-09-26T12:43:48Z</time>
      </trkpt>
      <trkpt lat="45.99665" lon="5.84565">
        <ele>314.4</ele>
        <time>2022-09-26T12:43:49Z</time>
      </trkpt>
      <trkpt lat="45.99668" lon="5.84564">
        <ele>314.5</ele>
        <time>2022-09-26T12:43:50Z</time>
      </trkpt>
      <trkpt lat="45.99669" lon="5.84564">
        <ele>314.5</ele>
        <time>2022-09-26T12:43:51Z</time>
      </trkpt>
      <trkpt lat="45.99673" lon="5.84562">
        <ele>314.6</ele>
        <time>2022-09-26T12:43:52Z</time>
      </trkpt>
      <trkpt lat="45.99674" lon="5.84561">
        <ele>314.6</ele>
        <time>2022-09-26T12:43:53Z</time>
      </trkpt>
      <trkpt lat="45.99677" lon="5.8456">
        <ele>314.7</ele>
        <time>2022-09-26T12:43:54Z</time>
      </trkpt>
      <trkpt lat="45.99681" lon="5.84559">
        <ele>314.8</ele>
        <time>2022-09-26T12:43:55Z</time>
      </trkpt>
      <trkpt lat="45.99682" lon="5.84559">
        <ele>314.8</ele>
        <time>2022-09-26T12:43:56Z</time>
      </trkpt>
      <trkpt lat="45.99685" lon="5.84557">
        <ele>314.9</ele>
        <time>2022-09-26T12:43:57Z</time>
      </trkpt>
      <trkpt lat="45.99687" lon="5.84557">
        <ele>315</ele>
        <time>2022-09-26T12:43:58Z</time>
      </trkpt>
      <trkpt lat="45.9969" lon="5.84555">
        <ele>315.1</ele>
        <time>2022-09-26T12:43:59Z</time>
      </trkpt>
      <trkpt lat="45.99691" lon="5.84554">
        <ele>315.1</ele>
        <time>2022-09-26T12:44:00Z</time>
      </trkpt>
      <trkpt lat="45.99694" lon="5.84553">
        <ele>315.2</ele>
        <time>2022-09-26T12:44:01Z</time>
      </trkpt>
      <trkpt lat="45.99699" lon="5.8455">
        <ele>315.3</ele>
        <time>2022-09-26T12:44:02Z</time>
      </trkpt>
      <trkpt lat="45.99701" lon="5.84549">
        <ele>315.4</ele>
        <time>2022-09-26T12:44:03Z</time>
      </trkpt>
      <trkpt lat="45.99704" lon="5.84547">
        <ele>315.4</ele>
        <time>2022-09-26T12:44:04Z</time>
      </trkpt>
      <trkpt lat="45.99707" lon="5.84545">
        <ele>315.5</ele>
        <time>2022-09-26T12:44:05Z</time>
      </trkpt>
      <trkpt lat="45.99709" lon="5.84544">
        <ele>315.6</ele>
        <time>2022-09-26T12:44:06Z</time>
      </trkpt>
      <trkpt lat="45.99712" lon="5.84542">
        <ele>315.7</ele>
        <time>2022-09-26T12:44:07Z</time>
      </trkpt>
      <trkpt lat="45.99713" lon="5.84541">
        <ele>315.7</ele>
        <time>2022-09-26T12:44:08Z</time>
      </trkpt>
      <trkpt lat="45.99717" lon="5.84539">
        <ele>315.8</ele>
        <time>2022-09-26T12:44:09Z</time>
      </trkpt>
      <trkpt lat="45.99718" lon="5.84538">
        <ele>315.8</ele>
        <time>2022-09-26T12:44:10Z</time>
      </trkpt>
      <trkpt lat="45.99721" lon="5.84535">
        <ele>316</ele>
        <time>2022-09-26T12:44:11Z</time>
      </trkpt>
      <trkpt lat="45.99722" lon="5.84535">
        <ele>316</ele>
        <time>2022-09-26T12:44:12Z</time>
      </trkpt>
      <trkpt lat="45.99725" lon="5.84533">
        <ele>316.1</ele>
        <time>2022-09-26T12:44:13Z</time>
      </trkpt>
      <trkpt lat="45.99728" lon="5.84531">
        <ele>316.2</ele>
        <time>2022-09-26T12:44:14Z</time>
      </trkpt>
      <trkpt lat="45.99729" lon="5.8453">
        <ele>316.2</ele>
        <time>2022-09-26T12:44:15Z</time>
      </trkpt>
      <trkpt lat="45.99733" lon="5.84527">
        <ele>316.4</ele>
        <time>2022-09-26T12:44:16Z</time>
      </trkpt>
      <trkpt lat="45.99734" lon="5.84526">
        <ele>316.4</ele>
        <time>2022-09-26T12:44:17Z</time>
      </trkpt>
      <trkpt lat="45.99736" lon="5.84524">
        <ele>316.5</ele>
        <time>2022-09-26T12:44:18Z</time>
      </trkpt>
      <trkpt lat="45.9974" lon="5.84521">
        <ele>316.7</ele>
        <time>2022-09-26T12:44:19Z</time>
      </trkpt>
      <trkpt lat="45.99741" lon="5.8452">
        <ele>316.8</ele>
        <time>2022-09-26T12:44:20Z</time>
      </trkpt>
      <trkpt lat="45.99744" lon="5.84518">
        <ele>317</ele>
        <time>2022-09-26T12:44:21Z</time>
      </trkpt>
      <trkpt lat="45.99746" lon="5.84517">
        <ele>317</ele>
        <time>2022-09-26T12:44:22Z</time>
      </trkpt>
      <trkpt lat="45.99749" lon="5.84514">
        <ele>317.2</ele>
        <time>2022-09-26T12:44:23Z</time>
      </trkpt>
      <trkpt lat="45.9975" lon="5.84513">
        <ele>317.3</ele>
        <time>2022-09-26T12:44:24Z</time>
      </trkpt>
      <trkpt lat="45.99752" lon="5.84511">
        <ele>317.5</ele>
        <time>2022-09-26T12:44:25Z</time>
      </trkpt>
      <trkpt lat="45.99756" lon="5.84509">
        <ele>317.7</ele>
        <time>2022-09-26T12:44:26Z</time>
      </trkpt>
      <trkpt lat="45.99757" lon="5.84509">
        <ele>317.8</ele>
        <time>2022-09-26T12:44:27Z</time>
      </trkpt>
      <trkpt lat="45.99759" lon="5.84507">
        <ele>318</ele>
        <time>2022-09-26T12:44:28Z</time>
      </trkpt>
      <trkpt lat="45.9976" lon="5.84506">
        <ele>318</ele>
        <time>2022-09-26T12:44:29Z</time>
      </trkpt>
      <trkpt lat="45.99762" lon="5.84505">
        <ele>318.2</ele>
        <time>2022-09-26T12:44:30Z</time>
      </trkpt>
      <trkpt lat="45.99763" lon="5.84504">
        <ele>318.3</ele>
        <time>2022-09-26T12:44:31Z</time>
      </trkpt>
      <trkpt lat="45.99766" lon="5.84504">
        <ele>318.4</ele>
        <time>2022-09-26T12:44:32Z</time>
      </trkpt>
      <trkpt lat="45.99767" lon="5.84503">
        <ele>318.5</ele>
        <time>2022-09-26T12:44:33Z</time>
      </trkpt>
      <trkpt lat="45.99768" lon="5.84502">
        <ele>318.6</ele>
        <time>2022-09-26T12:44:34Z</time>
      </trkpt>
      <trkpt lat="45.9977" lon="5.84501">
        <ele>318.7</ele>
        <time>2022-09-26T12:44:35Z</time>
      </trkpt>
      <trkpt lat="45.99771" lon="5.84501">
        <ele>318.8</ele>
        <time>2022-09-26T12:44:36Z</time>
      </trkpt>
      <trkpt lat="45.99773" lon="5.84501">
        <ele>319</ele>
        <time>2022-09-26T12:44:37Z</time>
      </trkpt>
      <trkpt lat="45.99774" lon="5.845">
        <ele>319.1</ele>
        <time>2022-09-26T12:44:38Z</time>
      </trkpt>
      <trkpt lat="45.99776" lon="5.845">
        <ele>319.2</ele>
        <time>2022-09-26T12:44:39Z</time>
      </trkpt>
      <trkpt lat="45.99778" lon="5.84499">
        <ele>319.3</ele>
        <time>2022-09-26T12:44:40Z</time>
      </trkpt>
      <trkpt lat="45.99779" lon="5.84498">
        <ele>319.4</ele>
        <time>2022-09-26T12:44:41Z</time>
      </trkpt>
      <trkpt lat="45.9978" lon="5.84498">
        <ele>319.4</ele>
        <time>2022-09-26T12:44:42Z</time>
      </trkpt>
      <trkpt lat="45.99783" lon="5.84497">
        <ele>319.6</ele>
        <time>2022-09-26T12:44:43Z</time>
      </trkpt>
      <trkpt lat="45.99784" lon="5.84497">
        <ele>319.7</ele>
        <time>2022-09-26T12:44:44Z</time>
      </trkpt>
      <trkpt lat="45.99785" lon="5.84498">
        <ele>319.8</ele>
        <time>2022-09-26T12:44:45Z</time>
      </trkpt>
      <trkpt lat="45.99787" lon="5.84497">
        <ele>319.9</ele>
        <time>2022-09-26T12:44:46Z</time>
      </trkpt>
      <trkpt lat="45.9979" lon="5.84495">
        <ele>320.1</ele>
        <time>2022-09-26T12:44:47Z</time>
      </trkpt>
      <trkpt lat="45.99791" lon="5.84495">
        <ele>320.1</ele>
        <time>2022-09-26T12:44:48Z</time>
      </trkpt>
      <trkpt lat="45.99793" lon="5.84494">
        <ele>320.3</ele>
        <time>2022-09-26T12:44:49Z</time>
      </trkpt>
      <trkpt lat="45.99794" lon="5.84493">
        <ele>320.4</ele>
        <time>2022-09-26T12:44:50Z</time>
      </trkpt>
      <trkpt lat="45.99796" lon="5.84493">
        <ele>320.5</ele>
        <time>2022-09-26T12:44:51Z</time>
      </trkpt>
      <trkpt lat="45.99798" lon="5.84492">
        <ele>320.6</ele>
        <time>2022-09-26T12:44:52Z</time>
      </trkpt>
      <trkpt lat="45.99799" lon="5.84492">
        <ele>320.7</ele>
        <time>2022-09-26T12:44:53Z</time>
      </trkpt>
      <trkpt lat="45.99801" lon="5.84491">
        <ele>320.8</ele>
        <time>2022-09-26T12:44:54Z</time>
      </trkpt>
      <trkpt lat="45.99804" lon="5.84491">
        <ele>321</ele>
        <time>2022-09-26T12:44:55Z</time>
      </trkpt>
      <trkpt lat="45.99805" lon="5.8449">
        <ele>321</ele>
        <time>2022-09-26T12:44:56Z</time>
      </trkpt>
      <trkpt lat="45.99808" lon="5.84489">
        <ele>321.3</ele>
        <time>2022-09-26T12:44:57Z</time>
      </trkpt>
      <trkpt lat="45.99809" lon="5.84488">
        <ele>321.3</ele>
        <time>2022-09-26T12:44:58Z</time>
      </trkpt>
      <trkpt lat="45.99811" lon="5.84488">
        <ele>321.4</ele>
        <time>2022-09-26T12:44:59Z</time>
      </trkpt>
      <trkpt lat="45.99812" lon="5.84487">
        <ele>321.5</ele>
        <time>2022-09-26T12:45:00Z</time>
      </trkpt>
      <trkpt lat="45.99816" lon="5.84486">
        <ele>321.7</ele>
        <time>2022-09-26T12:45:01Z</time>
      </trkpt>
      <trkpt lat="45.99817" lon="5.84486">
        <ele>321.8</ele>
        <time>2022-09-26T12:45:02Z</time>
      </trkpt>
      <trkpt lat="45.99819" lon="5.84485">
        <ele>322</ele>
        <time>2022-09-26T12:45:03Z</time>
      </trkpt>
      <trkpt lat="45.9982" lon="5.84484">
        <ele>322</ele>
        <time>2022-09-26T12:45:04Z</time>
      </trkpt>
      <trkpt lat="45.99822" lon="5.84484">
        <ele>322.1</ele>
        <time>2022-09-26T12:45:05Z</time>
      </trkpt>
      <trkpt lat="45.99824" lon="5.84483">
        <ele>322.3</ele>
        <time>2022-09-26T12:45:06Z</time>
      </trkpt>
      <trkpt lat="45.99827" lon="5.84483">
        <ele>322.4</ele>
        <time>2022-09-26T12:45:07Z</time>
      </trkpt>
      <trkpt lat="45.99828" lon="5.84483">
        <ele>322.5</ele>
        <time>2022-09-26T12:45:08Z</time>
      </trkpt>
      <trkpt lat="45.99829" lon="5.84482">
        <ele>322.6</ele>
        <time>2022-09-26T12:45:09Z</time>
      </trkpt>
      <trkpt lat="45.99831" lon="5.84481">
        <ele>322.7</ele>
        <time>2022-09-26T12:45:10Z</time>
      </trkpt>
      <trkpt lat="45.99832" lon="5.84481">
        <ele>322.8</ele>
        <time>2022-09-26T12:45:11Z</time>
      </trkpt>
      <trkpt lat="45.99833" lon="5.8448">
        <ele>322.9</ele>
        <time>2022-09-26T12:45:12Z</time>
      </trkpt>
      <trkpt lat="45.99834" lon="5.8448">
        <ele>322.9</ele>
        <time>2022-09-26T12:45:13Z</time>
      </trkpt>
      <trkpt lat="45.99836" lon="5.8448">
        <ele>323.1</ele>
        <time>2022-09-26T12:45:14Z</time>
      </trkpt>
      <trkpt lat="45.99838" lon="5.84478">
        <ele>323.2</ele>
        <time>2022-09-26T12:45:15Z</time>
      </trkpt>
      <trkpt lat="45.99839" lon="5.84478">
        <ele>323.3</ele>
        <time>2022-09-26T12:45:17Z</time>
      </trkpt>
      <trkpt lat="45.99841" lon="5.84478">
        <ele>323.4</ele>
        <time>2022-09-26T12:45:18Z</time>
      </trkpt>
      <trkpt lat="45.99843" lon="5.84477">
        <ele>323.5</ele>
        <time>2022-09-26T12:45:19Z</time>
      </trkpt>
      <trkpt lat="45.99844" lon="5.84477">
        <ele>323.6</ele>
        <time>2022-09-26T12:45:20Z</time>
      </trkpt>
      <trkpt lat="45.99845" lon="5.84477">
        <ele>323.7</ele>
        <time>2022-09-26T12:45:21Z</time>
      </trkpt>
      <trkpt lat="45.99847" lon="5.84476">
        <ele>323.8</ele>
        <time>2022-09-26T12:45:22Z</time>
      </trkpt>
      <trkpt lat="45.99849" lon="5.84476">
        <ele>323.9</ele>
        <time>2022-09-26T12:45:23Z</time>
      </trkpt>
      <trkpt lat="45.99851" lon="5.84475">
        <ele>324</ele>
        <time>2022-09-26T12:45:24Z</time>
      </trkpt>
      <trkpt lat="45.99852" lon="5.84475">
        <ele>324.1</ele>
        <time>2022-09-26T12:45:25Z</time>
      </trkpt>
      <trkpt lat="45.99853" lon="5.84474">
        <ele>324.2</ele>
        <time>2022-09-26T12:45:26Z</time>
      </trkpt>
      <trkpt lat="45.99855" lon="5.84473">
        <ele>324.3</ele>
        <time>2022-09-26T12:45:27Z</time>
      </trkpt>
      <trkpt lat="45.99856" lon="5.84473">
        <ele>324.4</ele>
        <time>2022-09-26T12:45:28Z</time>
      </trkpt>
      <trkpt lat="45.99857" lon="5.84473">
        <ele>324.4</ele>
        <time>2022-09-26T12:45:29Z</time>
      </trkpt>
      <trkpt lat="45.99859" lon="5.84472">
        <ele>324.5</ele>
        <time>2022-09-26T12:45:30Z</time>
      </trkpt>
      <trkpt lat="45.9986" lon="5.84472">
        <ele>324.6</ele>
        <time>2022-09-26T12:45:31Z</time>
      </trkpt>
      <trkpt lat="45.99862" lon="5.84472">
        <ele>324.7</ele>
        <time>2022-09-26T12:45:32Z</time>
      </trkpt>
      <trkpt lat="45.99864" lon="5.84471">
        <ele>324.8</ele>
        <time>2022-09-26T12:45:33Z</time>
      </trkpt>
      <trkpt lat="45.99865" lon="5.84471">
        <ele>324.9</ele>
        <time>2022-09-26T12:45:34Z</time>
      </trkpt>
      <trkpt lat="45.99867" lon="5.84471">
        <ele>325</ele>
        <time>2022-09-26T12:45:35Z</time>
      </trkpt>
      <trkpt lat="45.99869" lon="5.84471">
        <ele>325.1</ele>
        <time>2022-09-26T12:45:36Z</time>
      </trkpt>
      <trkpt lat="45.9987" lon="5.84471">
        <ele>325.2</ele>
        <time>2022-09-26T12:45:37Z</time>
      </trkpt>
      <trkpt lat="45.99872" lon="5.84471">
        <ele>325.2</ele>
        <time>2022-09-26T12:45:38Z</time>
      </trkpt>
      <trkpt lat="45.99873" lon="5.84471">
        <ele>325.3</ele>
        <time>2022-09-26T12:45:39Z</time>
      </trkpt>
      <trkpt lat="45.99875" lon="5.84472">
        <ele>325.4</ele>
        <time>2022-09-26T12:45:40Z</time>
      </trkpt>
      <trkpt lat="45.99878" lon="5.84472">
        <ele>325.5</ele>
        <time>2022-09-26T12:45:41Z</time>
      </trkpt>
      <trkpt lat="45.99879" lon="5.84473">
        <ele>325.5</ele>
        <time>2022-09-26T12:45:42Z</time>
      </trkpt>
      <trkpt lat="45.99881" lon="5.84473">
        <ele>325.6</ele>
        <time>2022-09-26T12:45:43Z</time>
      </trkpt>
      <trkpt lat="45.99882" lon="5.84474">
        <ele>325.6</ele>
        <time>2022-09-26T12:45:44Z</time>
      </trkpt>
      <trkpt lat="45.99883" lon="5.84474">
        <ele>325.7</ele>
        <time>2022-09-26T12:45:45Z</time>
      </trkpt>
      <trkpt lat="45.99885" lon="5.84475">
        <ele>325.7</ele>
        <time>2022-09-26T12:45:46Z</time>
      </trkpt>
      <trkpt lat="45.99887" lon="5.84476">
        <ele>325.8</ele>
        <time>2022-09-26T12:45:47Z</time>
      </trkpt>
      <trkpt lat="45.99889" lon="5.84476">
        <ele>325.8</ele>
        <time>2022-09-26T12:45:48Z</time>
      </trkpt>
      <trkpt lat="45.99891" lon="5.84478">
        <ele>325.9</ele>
        <time>2022-09-26T12:45:49Z</time>
      </trkpt>
      <trkpt lat="45.99893" lon="5.84478">
        <ele>325.9</ele>
        <time>2022-09-26T12:45:50Z</time>
      </trkpt>
      <trkpt lat="45.99894" lon="5.84479">
        <ele>326</ele>
        <time>2022-09-26T12:45:51Z</time>
      </trkpt>
      <trkpt lat="45.99896" lon="5.8448">
        <ele>326</ele>
        <time>2022-09-26T12:45:52Z</time>
      </trkpt>
      <trkpt lat="45.99897" lon="5.84482">
        <ele>326.1</ele>
        <time>2022-09-26T12:45:53Z</time>
      </trkpt>
      <trkpt lat="45.99899" lon="5.84482">
        <ele>326.1</ele>
        <time>2022-09-26T12:45:54Z</time>
      </trkpt>
      <trkpt lat="45.99902" lon="5.84484">
        <ele>326.2</ele>
        <time>2022-09-26T12:45:55Z</time>
      </trkpt>
      <trkpt lat="45.99903" lon="5.84485">
        <ele>326.2</ele>
        <time>2022-09-26T12:45:56Z</time>
      </trkpt>
      <trkpt lat="45.99905" lon="5.84487">
        <ele>326.2</ele>
        <time>2022-09-26T12:45:57Z</time>
      </trkpt>
      <trkpt lat="45.99906" lon="5.84487">
        <ele>326.2</ele>
        <time>2022-09-26T12:45:58Z</time>
      </trkpt>
      <trkpt lat="45.99909" lon="5.8449">
        <ele>326.3</ele>
        <time>2022-09-26T12:45:59Z</time>
      </trkpt>
      <trkpt lat="45.9991" lon="5.8449">
        <ele>326.3</ele>
        <time>2022-09-26T12:46:00Z</time>
      </trkpt>
      <trkpt lat="45.99913" lon="5.84493">
        <ele>326.3</ele>
        <time>2022-09-26T12:46:01Z</time>
      </trkpt>
      <trkpt lat="45.99914" lon="5.84493">
        <ele>326.3</ele>
        <time>2022-09-26T12:46:02Z</time>
      </trkpt>
      <trkpt lat="45.99917" lon="5.84496">
        <ele>326.3</ele>
        <time>2022-09-26T12:46:03Z</time>
      </trkpt>
      <trkpt lat="45.99918" lon="5.84497">
        <ele>326.4</ele>
        <time>2022-09-26T12:46:04Z</time>
      </trkpt>
      <trkpt lat="45.99921" lon="5.84498">
        <ele>326.4</ele>
        <time>2022-09-26T12:46:05Z</time>
      </trkpt>
      <trkpt lat="45.99924" lon="5.845">
        <ele>326.4</ele>
        <time>2022-09-26T12:46:06Z</time>
      </trkpt>
      <trkpt lat="45.99926" lon="5.84501">
        <ele>326.4</ele>
        <time>2022-09-26T12:46:07Z</time>
      </trkpt>
      <trkpt lat="45.99929" lon="5.84504">
        <ele>326.4</ele>
        <time>2022-09-26T12:46:08Z</time>
      </trkpt>
      <trkpt lat="45.9993" lon="5.84505">
        <ele>326.4</ele>
        <time>2022-09-26T12:46:09Z</time>
      </trkpt>
      <trkpt lat="45.99933" lon="5.84507">
        <ele>326.4</ele>
        <time>2022-09-26T12:46:10Z</time>
      </trkpt>
      <trkpt lat="45.99935" lon="5.84508">
        <ele>326.4</ele>
        <time>2022-09-26T12:46:11Z</time>
      </trkpt>
      <trkpt lat="45.99939" lon="5.84511">
        <ele>326.4</ele>
        <time>2022-09-26T12:46:12Z</time>
      </trkpt>
      <trkpt lat="45.99942" lon="5.84513">
        <ele>326.3</ele>
        <time>2022-09-26T12:46:13Z</time>
      </trkpt>
      <trkpt lat="45.99948" lon="5.84517">
        <ele>326.3</ele>
        <time>2022-09-26T12:46:14Z</time>
      </trkpt>
      <trkpt lat="45.99952" lon="5.84519">
        <ele>326.4</ele>
        <time>2022-09-26T12:46:15Z</time>
      </trkpt>
      <trkpt lat="45.99955" lon="5.8452">
        <ele>326.4</ele>
        <time>2022-09-26T12:46:16Z</time>
      </trkpt>
      <trkpt lat="45.99958" lon="5.84522">
        <ele>326.4</ele>
        <time>2022-09-26T12:46:17Z</time>
      </trkpt>
      <trkpt lat="45.99961" lon="5.84524">
        <ele>326.4</ele>
        <time>2022-09-26T12:46:18Z</time>
      </trkpt>
      <trkpt lat="45.99965" lon="5.84527">
        <ele>326.4</ele>
        <time>2022-09-26T12:46:19Z</time>
      </trkpt>
      <trkpt lat="45.99968" lon="5.84529">
        <ele>326.4</ele>
        <time>2022-09-26T12:46:20Z</time>
      </trkpt>
      <trkpt lat="45.99971" lon="5.84531">
        <ele>326.4</ele>
        <time>2022-09-26T12:46:21Z</time>
      </trkpt>
      <trkpt lat="45.99974" lon="5.84532">
        <ele>326.5</ele>
        <time>2022-09-26T12:46:22Z</time>
      </trkpt>
      <trkpt lat="45.99977" lon="5.84535">
        <ele>326.5</ele>
        <time>2022-09-26T12:46:23Z</time>
      </trkpt>
      <trkpt lat="45.99981" lon="5.84536">
        <ele>326.6</ele>
        <time>2022-09-26T12:46:24Z</time>
      </trkpt>
      <trkpt lat="45.99984" lon="5.84538">
        <ele>326.6</ele>
        <time>2022-09-26T12:46:25Z</time>
      </trkpt>
      <trkpt lat="45.99987" lon="5.8454">
        <ele>326.7</ele>
        <time>2022-09-26T12:46:26Z</time>
      </trkpt>
      <trkpt lat="45.9999" lon="5.84541">
        <ele>326.8</ele>
        <time>2022-09-26T12:46:27Z</time>
      </trkpt>
      <trkpt lat="45.99993" lon="5.84543">
        <ele>326.8</ele>
        <time>2022-09-26T12:46:28Z</time>
      </trkpt>
      <trkpt lat="45.99997" lon="5.84545">
        <ele>326.9</ele>
        <time>2022-09-26T12:46:29Z</time>
      </trkpt>
      <trkpt lat="45.99998" lon="5.84545">
        <ele>327</ele>
        <time>2022-09-26T12:46:30Z</time>
      </trkpt>
      <trkpt lat="46.00002" lon="5.84547">
        <ele>327.1</ele>
        <time>2022-09-26T12:46:31Z</time>
      </trkpt>
      <trkpt lat="46.00003" lon="5.84547">
        <ele>327.1</ele>
        <time>2022-09-26T12:46:32Z</time>
      </trkpt>
      <trkpt lat="46.00006" lon="5.84548">
        <ele>327.2</ele>
        <time>2022-09-26T12:46:33Z</time>
      </trkpt>
      <trkpt lat="46.00009" lon="5.8455">
        <ele>327.2</ele>
        <time>2022-09-26T12:46:34Z</time>
      </trkpt>
      <trkpt lat="46.00012" lon="5.84551">
        <ele>327.3</ele>
        <time>2022-09-26T12:46:35Z</time>
      </trkpt>
      <trkpt lat="46.00014" lon="5.84551">
        <ele>327.4</ele>
        <time>2022-09-26T12:46:36Z</time>
      </trkpt>
      <trkpt lat="46.00016" lon="5.84553">
        <ele>327.5</ele>
        <time>2022-09-26T12:46:37Z</time>
      </trkpt>
      <trkpt lat="46.00019" lon="5.84553">
        <ele>327.5</ele>
        <time>2022-09-26T12:46:38Z</time>
      </trkpt>
      <trkpt lat="46.00022" lon="5.84554">
        <ele>327.6</ele>
        <time>2022-09-26T12:46:39Z</time>
      </trkpt>
      <trkpt lat="46.00025" lon="5.84556">
        <ele>327.7</ele>
        <time>2022-09-26T12:46:40Z</time>
      </trkpt>
      <trkpt lat="46.00026" lon="5.84557">
        <ele>327.7</ele>
        <time>2022-09-26T12:46:41Z</time>
      </trkpt>
      <trkpt lat="46.0003" lon="5.84558">
        <ele>327.8</ele>
        <time>2022-09-26T12:46:42Z</time>
      </trkpt>
      <trkpt lat="46.00031" lon="5.84559">
        <ele>327.9</ele>
        <time>2022-09-26T12:46:43Z</time>
      </trkpt>
      <trkpt lat="46.00035" lon="5.84559">
        <ele>328</ele>
        <time>2022-09-26T12:46:44Z</time>
      </trkpt>
      <trkpt lat="46.00036" lon="5.84559">
        <ele>328</ele>
        <time>2022-09-26T12:46:45Z</time>
      </trkpt>
      <trkpt lat="46.0004" lon="5.8456">
        <ele>328.1</ele>
        <time>2022-09-26T12:46:46Z</time>
      </trkpt>
      <trkpt lat="46.00041" lon="5.84561">
        <ele>328.1</ele>
        <time>2022-09-26T12:46:47Z</time>
      </trkpt>
      <trkpt lat="46.00044" lon="5.84561">
        <ele>328.2</ele>
        <time>2022-09-26T12:46:48Z</time>
      </trkpt>
      <trkpt lat="46.00047" lon="5.84563">
        <ele>328.3</ele>
        <time>2022-09-26T12:46:49Z</time>
      </trkpt>
      <trkpt lat="46.00048" lon="5.84563">
        <ele>328.3</ele>
        <time>2022-09-26T12:46:50Z</time>
      </trkpt>
      <trkpt lat="46.00051" lon="5.84563">
        <ele>328.4</ele>
        <time>2022-09-26T12:46:51Z</time>
      </trkpt>
      <trkpt lat="46.00052" lon="5.84564">
        <ele>328.4</ele>
        <time>2022-09-26T12:46:52Z</time>
      </trkpt>
      <trkpt lat="46.00054" lon="5.84564">
        <ele>328.4</ele>
        <time>2022-09-26T12:46:53Z</time>
      </trkpt>
      <trkpt lat="46.00055" lon="5.84565">
        <ele>328.5</ele>
        <time>2022-09-26T12:46:54Z</time>
      </trkpt>
      <trkpt lat="46.00056" lon="5.84567">
        <ele>328.5</ele>
        <time>2022-09-26T12:46:55Z</time>
      </trkpt>
      <trkpt lat="46.00056" lon="5.84567">
        <ele>328.5</ele>
        <time>2022-09-26T12:46:56Z</time>
      </trkpt>
      <trkpt lat="46.00057" lon="5.84567">
        <ele>328.5</ele>
        <time>2022-09-26T12:46:57Z</time>
      </trkpt>
      <trkpt lat="46.00057" lon="5.84567">
        <ele>328.5</ele>
        <time>2022-09-26T12:46:58Z</time>
      </trkpt>
      <trkpt lat="46.00058" lon="5.84567">
        <ele>328.5</ele>
        <time>2022-09-26T12:46:59Z</time>
      </trkpt>
      <trkpt lat="46.00058" lon="5.84567">
        <ele>328.5</ele>
        <time>2022-09-26T12:47:00Z</time>
      </trkpt>
      <trkpt lat="46.00059" lon="5.84567">
        <ele>328.5</ele>
        <time>2022-09-26T12:47:01Z</time>
      </trkpt>
      <trkpt lat="46.0006" lon="5.84567">
        <ele>328.6</ele>
        <time>2022-09-26T12:47:02Z</time>
      </trkpt>
      <trkpt lat="46.0006" lon="5.84567">
        <ele>328.6</ele>
        <time>2022-09-26T12:47:03Z</time>
      </trkpt>
      <trkpt lat="46.00061" lon="5.84566">
        <ele>328.6</ele>
        <time>2022-09-26T12:47:04Z</time>
      </trkpt>
      <trkpt lat="46.00062" lon="5.84566">
        <ele>328.6</ele>
        <time>2022-09-26T12:47:05Z</time>
      </trkpt>
      <trkpt lat="46.00062" lon="5.84566">
        <ele>328.6</ele>
        <time>2022-09-26T12:47:06Z</time>
      </trkpt>
      <trkpt lat="46.00063" lon="5.84566">
        <ele>328.6</ele>
        <time>2022-09-26T12:47:07Z</time>
      </trkpt>
      <trkpt lat="46.00063" lon="5.84566">
        <ele>328.6</ele>
        <time>2022-09-26T12:47:08Z</time>
      </trkpt>
      <trkpt lat="46.00064" lon="5.84566">
        <ele>328.6</ele>
        <time>2022-09-26T12:47:09Z</time>
      </trkpt>
      <trkpt lat="46.00065" lon="5.84566">
        <ele>328.6</ele>
        <time>2022-09-26T12:47:10Z</time>
      </trkpt>
      <trkpt lat="46.00065" lon="5.84566">
        <ele>328.6</ele>
        <time>2022-09-26T12:47:11Z</time>
      </trkpt>
      <trkpt lat="46.00066" lon="5.84566">
        <ele>328.6</ele>
        <time>2022-09-26T12:47:12Z</time>
      </trkpt>
      <trkpt lat="46.00067" lon="5.84566">
        <ele>328.7</ele>
        <time>2022-09-26T12:47:13Z</time>
      </trkpt>
      <trkpt lat="46.00067" lon="5.84566">
        <ele>328.7</ele>
        <time>2022-09-26T12:47:14Z</time>
      </trkpt>
      <trkpt lat="46.00068" lon="5.84566">
        <ele>328.7</ele>
        <time>2022-09-26T12:47:15Z</time>
      </trkpt>
      <trkpt lat="46.00068" lon="5.84566">
        <ele>328.7</ele>
        <time>2022-09-26T12:47:16Z</time>
      </trkpt>
      <trkpt lat="46.00069" lon="5.84566">
        <ele>328.7</ele>
        <time>2022-09-26T12:47:17Z</time>
      </trkpt>
      <trkpt lat="46.0007" lon="5.84566">
        <ele>328.7</ele>
        <time>2022-09-26T12:47:18Z</time>
      </trkpt>
      <trkpt lat="46.0007" lon="5.84565">
        <ele>328.7</ele>
        <time>2022-09-26T12:47:19Z</time>
      </trkpt>
      <trkpt lat="46.00071" lon="5.84565">
        <ele>328.7</ele>
        <time>2022-09-26T12:51:11Z</time>
      </trkpt>
      <trkpt lat="46.00071" lon="5.84565">
        <ele>328.7</ele>
        <time>2022-09-26T12:51:12Z</time>
      </trkpt>
      <trkpt lat="46.00075" lon="5.84568">
        <ele>328.8</ele>
        <time>2022-09-26T12:51:13Z</time>
      </trkpt>
      <trkpt lat="46.00077" lon="5.84568">
        <ele>328.8</ele>
        <time>2022-09-26T12:51:14Z</time>
      </trkpt>
      <trkpt lat="46.00079" lon="5.84569">
        <ele>328.8</ele>
        <time>2022-09-26T12:51:15Z</time>
      </trkpt>
      <trkpt lat="46.00082" lon="5.84569">
        <ele>328.9</ele>
        <time>2022-09-26T12:51:16Z</time>
      </trkpt>
      <trkpt lat="46.00085" lon="5.8457">
        <ele>328.9</ele>
        <time>2022-09-26T12:51:17Z</time>
      </trkpt>
      <trkpt lat="46.00089" lon="5.8457">
        <ele>329</ele>
        <time>2022-09-26T12:51:18Z</time>
      </trkpt>
      <trkpt lat="46.00091" lon="5.8457">
        <ele>329</ele>
        <time>2022-09-26T12:51:19Z</time>
      </trkpt>
      <trkpt lat="46.00095" lon="5.84571">
        <ele>329.1</ele>
        <time>2022-09-26T12:51:20Z</time>
      </trkpt>
      <trkpt lat="46.00096" lon="5.84571">
        <ele>329.2</ele>
        <time>2022-09-26T12:51:21Z</time>
      </trkpt>
      <trkpt lat="46.00099" lon="5.84571">
        <ele>329.3</ele>
        <time>2022-09-26T12:51:22Z</time>
      </trkpt>
      <trkpt lat="46.00102" lon="5.84572">
        <ele>329.4</ele>
        <time>2022-09-26T12:51:23Z</time>
      </trkpt>
      <trkpt lat="46.00105" lon="5.84573">
        <ele>329.4</ele>
        <time>2022-09-26T12:51:24Z</time>
      </trkpt>
      <trkpt lat="46.00108" lon="5.84573">
        <ele>329.6</ele>
        <time>2022-09-26T12:51:25Z</time>
      </trkpt>
      <trkpt lat="46.00111" lon="5.84574">
        <ele>329.7</ele>
        <time>2022-09-26T12:51:26Z</time>
      </trkpt>
      <trkpt lat="46.00114" lon="5.84574">
        <ele>329.8</ele>
        <time>2022-09-26T12:51:27Z</time>
      </trkpt>
      <trkpt lat="46.00117" lon="5.84575">
        <ele>329.9</ele>
        <time>2022-09-26T12:51:28Z</time>
      </trkpt>
      <trkpt lat="46.0012" lon="5.84575">
        <ele>330</ele>
        <time>2022-09-26T12:51:29Z</time>
      </trkpt>
      <trkpt lat="46.00123" lon="5.84576">
        <ele>330.1</ele>
        <time>2022-09-26T12:51:30Z</time>
      </trkpt>
      <trkpt lat="46.00126" lon="5.84577">
        <ele>330.2</ele>
        <time>2022-09-26T12:51:31Z</time>
      </trkpt>
      <trkpt lat="46.00128" lon="5.84577">
        <ele>330.3</ele>
        <time>2022-09-26T12:51:32Z</time>
      </trkpt>
      <trkpt lat="46.00131" lon="5.84577">
        <ele>330.5</ele>
        <time>2022-09-26T12:51:33Z</time>
      </trkpt>
      <trkpt lat="46.00133" lon="5.84577">
        <ele>330.6</ele>
        <time>2022-09-26T12:51:35Z</time>
      </trkpt>
      <trkpt lat="46.00136" lon="5.84578">
        <ele>330.7</ele>
        <time>2022-09-26T12:51:36Z</time>
      </trkpt>
      <trkpt lat="46.00137" lon="5.84578">
        <ele>330.8</ele>
        <time>2022-09-26T12:51:37Z</time>
      </trkpt>
      <trkpt lat="46.0014" lon="5.84578">
        <ele>331</ele>
        <time>2022-09-26T12:51:38Z</time>
      </trkpt>
      <trkpt lat="46.00141" lon="5.84578">
        <ele>331</ele>
        <time>2022-09-26T12:51:39Z</time>
      </trkpt>
      <trkpt lat="46.00144" lon="5.84578">
        <ele>331.2</ele>
        <time>2022-09-26T12:51:40Z</time>
      </trkpt>
      <trkpt lat="46.00145" lon="5.84578">
        <ele>331.3</ele>
        <time>2022-09-26T12:51:41Z</time>
      </trkpt>
      <trkpt lat="46.00148" lon="5.84578">
        <ele>331.4</ele>
        <time>2022-09-26T12:51:42Z</time>
      </trkpt>
      <trkpt lat="46.00149" lon="5.84578">
        <ele>331.5</ele>
        <time>2022-09-26T12:51:43Z</time>
      </trkpt>
      <trkpt lat="46.0015" lon="5.84578">
        <ele>331.6</ele>
        <time>2022-09-26T12:51:44Z</time>
      </trkpt>
      <trkpt lat="46.00152" lon="5.84578">
        <ele>331.7</ele>
        <time>2022-09-26T12:51:45Z</time>
      </trkpt>
      <trkpt lat="46.00153" lon="5.84577">
        <ele>331.8</ele>
        <time>2022-09-26T12:51:46Z</time>
      </trkpt>
      <trkpt lat="46.00155" lon="5.84577">
        <ele>332</ele>
        <time>2022-09-26T12:51:47Z</time>
      </trkpt>
      <trkpt lat="46.00158" lon="5.84577">
        <ele>332.2</ele>
        <time>2022-09-26T12:51:48Z</time>
      </trkpt>
      <trkpt lat="46.00159" lon="5.84576">
        <ele>332.2</ele>
        <time>2022-09-26T12:51:49Z</time>
      </trkpt>
      <trkpt lat="46.0016" lon="5.84577">
        <ele>332.4</ele>
        <time>2022-09-26T12:51:50Z</time>
      </trkpt>
      <trkpt lat="46.00162" lon="5.84577">
        <ele>332.5</ele>
        <time>2022-09-26T12:51:51Z</time>
      </trkpt>
      <trkpt lat="46.00165" lon="5.84578">
        <ele>332.7</ele>
        <time>2022-09-26T12:51:52Z</time>
      </trkpt>
      <trkpt lat="46.00166" lon="5.84578">
        <ele>332.8</ele>
        <time>2022-09-26T12:51:53Z</time>
      </trkpt>
      <trkpt lat="46.00167" lon="5.84578">
        <ele>332.9</ele>
        <time>2022-09-26T12:51:54Z</time>
      </trkpt>
      <trkpt lat="46.00169" lon="5.84578">
        <ele>333</ele>
        <time>2022-09-26T12:51:55Z</time>
      </trkpt>
      <trkpt lat="46.00172" lon="5.84577">
        <ele>333.2</ele>
        <time>2022-09-26T12:51:56Z</time>
      </trkpt>
      <trkpt lat="46.00173" lon="5.84577">
        <ele>333.3</ele>
        <time>2022-09-26T12:51:57Z</time>
      </trkpt>
      <trkpt lat="46.00173" lon="5.84577">
        <ele>333.3</ele>
        <time>2022-09-26T12:51:58Z</time>
      </trkpt>
      <trkpt lat="46.00174" lon="5.84576">
        <ele>333.4</ele>
        <time>2022-09-26T12:51:59Z</time>
      </trkpt>
      <trkpt lat="46.00176" lon="5.84576">
        <ele>333.6</ele>
        <time>2022-09-26T12:52:00Z</time>
      </trkpt>
      <trkpt lat="46.00179" lon="5.84576">
        <ele>333.8</ele>
        <time>2022-09-26T12:52:01Z</time>
      </trkpt>
      <trkpt lat="46.0018" lon="5.84576">
        <ele>333.9</ele>
        <time>2022-09-26T12:52:02Z</time>
      </trkpt>
      <trkpt lat="46.00181" lon="5.84576">
        <ele>334</ele>
        <time>2022-09-26T12:52:03Z</time>
      </trkpt>
      <trkpt lat="46.00183" lon="5.84576">
        <ele>334.1</ele>
        <time>2022-09-26T12:52:04Z</time>
      </trkpt>
      <trkpt lat="46.00186" lon="5.84575">
        <ele>334.3</ele>
        <time>2022-09-26T12:52:05Z</time>
      </trkpt>
      <trkpt lat="46.00187" lon="5.84575">
        <ele>334.4</ele>
        <time>2022-09-26T12:52:06Z</time>
      </trkpt>
      <trkpt lat="46.00189" lon="5.84574">
        <ele>334.6</ele>
        <time>2022-09-26T12:52:07Z</time>
      </trkpt>
      <trkpt lat="46.0019" lon="5.84574">
        <ele>334.7</ele>
        <time>2022-09-26T12:52:08Z</time>
      </trkpt>
      <trkpt lat="46.00192" lon="5.84574">
        <ele>334.8</ele>
        <time>2022-09-26T12:52:09Z</time>
      </trkpt>
      <trkpt lat="46.00194" lon="5.84573">
        <ele>334.9</ele>
        <time>2022-09-26T12:52:10Z</time>
      </trkpt>
      <trkpt lat="46.00197" lon="5.84573">
        <ele>335.2</ele>
        <time>2022-09-26T12:52:11Z</time>
      </trkpt>
      <trkpt lat="46.00198" lon="5.84573">
        <ele>335.2</ele>
        <time>2022-09-26T12:52:12Z</time>
      </trkpt>
      <trkpt lat="46.00199" lon="5.84572">
        <ele>335.3</ele>
        <time>2022-09-26T12:52:13Z</time>
      </trkpt>
      <trkpt lat="46.00201" lon="5.84573">
        <ele>335.4</ele>
        <time>2022-09-26T12:52:14Z</time>
      </trkpt>
      <trkpt lat="46.00203" lon="5.84573">
        <ele>335.6</ele>
        <time>2022-09-26T12:52:15Z</time>
      </trkpt>
      <trkpt lat="46.00204" lon="5.84573">
        <ele>335.7</ele>
        <time>2022-09-26T12:52:16Z</time>
      </trkpt>
      <trkpt lat="46.00206" lon="5.84572">
        <ele>335.8</ele>
        <time>2022-09-26T12:52:17Z</time>
      </trkpt>
      <trkpt lat="46.00208" lon="5.84572">
        <ele>335.9</ele>
        <time>2022-09-26T12:52:18Z</time>
      </trkpt>
      <trkpt lat="46.00209" lon="5.84571">
        <ele>336</ele>
        <time>2022-09-26T12:52:19Z</time>
      </trkpt>
      <trkpt lat="46.00211" lon="5.84571">
        <ele>336.2</ele>
        <time>2022-09-26T12:52:20Z</time>
      </trkpt>
      <trkpt lat="46.00213" lon="5.84572">
        <ele>336.3</ele>
        <time>2022-09-26T12:52:21Z</time>
      </trkpt>
      <trkpt lat="46.00214" lon="5.84572">
        <ele>336.4</ele>
        <time>2022-09-26T12:52:22Z</time>
      </trkpt>
      <trkpt lat="46.00216" lon="5.84571">
        <ele>336.5</ele>
        <time>2022-09-26T12:52:23Z</time>
      </trkpt>
      <trkpt lat="46.00218" lon="5.84571">
        <ele>336.6</ele>
        <time>2022-09-26T12:52:24Z</time>
      </trkpt>
      <trkpt lat="46.0022" lon="5.84571">
        <ele>336.8</ele>
        <time>2022-09-26T12:52:25Z</time>
      </trkpt>
      <trkpt lat="46.00221" lon="5.84571">
        <ele>336.9</ele>
        <time>2022-09-26T12:52:26Z</time>
      </trkpt>
      <trkpt lat="46.00224" lon="5.8457">
        <ele>337.1</ele>
        <time>2022-09-26T12:52:27Z</time>
      </trkpt>
      <trkpt lat="46.00225" lon="5.8457">
        <ele>337.2</ele>
        <time>2022-09-26T12:52:28Z</time>
      </trkpt>
      <trkpt lat="46.00228" lon="5.8457">
        <ele>337.4</ele>
        <time>2022-09-26T12:52:29Z</time>
      </trkpt>
      <trkpt lat="46.00231" lon="5.84569">
        <ele>337.6</ele>
        <time>2022-09-26T12:52:30Z</time>
      </trkpt>
      <trkpt lat="46.00232" lon="5.84568">
        <ele>337.7</ele>
        <time>2022-09-26T12:52:31Z</time>
      </trkpt>
      <trkpt lat="46.00234" lon="5.84568">
        <ele>337.8</ele>
        <time>2022-09-26T12:52:32Z</time>
      </trkpt>
      <trkpt lat="46.00235" lon="5.84568">
        <ele>337.9</ele>
        <time>2022-09-26T12:52:33Z</time>
      </trkpt>
      <trkpt lat="46.00239" lon="5.84568">
        <ele>338.1</ele>
        <time>2022-09-26T12:52:34Z</time>
      </trkpt>
      <trkpt lat="46.00239" lon="5.84568">
        <ele>338.2</ele>
        <time>2022-09-26T12:52:35Z</time>
      </trkpt>
      <trkpt lat="46.00241" lon="5.84568">
        <ele>338.3</ele>
        <time>2022-09-26T12:52:36Z</time>
      </trkpt>
      <trkpt lat="46.00243" lon="5.84568">
        <ele>338.4</ele>
        <time>2022-09-26T12:52:37Z</time>
      </trkpt>
      <trkpt lat="46.00244" lon="5.84567">
        <ele>338.5</ele>
        <time>2022-09-26T12:52:38Z</time>
      </trkpt>
      <trkpt lat="46.00246" lon="5.84566">
        <ele>338.7</ele>
        <time>2022-09-26T12:52:39Z</time>
      </trkpt>
      <trkpt lat="46.00248" lon="5.84566">
        <ele>338.8</ele>
        <time>2022-09-26T12:52:40Z</time>
      </trkpt>
      <trkpt lat="46.0025" lon="5.84566">
        <ele>338.9</ele>
        <time>2022-09-26T12:52:41Z</time>
      </trkpt>
      <trkpt lat="46.00251" lon="5.84566">
        <ele>339</ele>
        <time>2022-09-26T12:52:42Z</time>
      </trkpt>
      <trkpt lat="46.00253" lon="5.84566">
        <ele>339.1</ele>
        <time>2022-09-26T12:52:43Z</time>
      </trkpt>
      <trkpt lat="46.00254" lon="5.84565">
        <ele>339.2</ele>
        <time>2022-09-26T12:52:44Z</time>
      </trkpt>
      <trkpt lat="46.00256" lon="5.84565">
        <ele>339.4</ele>
        <time>2022-09-26T12:52:45Z</time>
      </trkpt>
      <trkpt lat="46.00258" lon="5.84565">
        <ele>339.5</ele>
        <time>2022-09-26T12:52:46Z</time>
      </trkpt>
      <trkpt lat="46.0026" lon="5.84565">
        <ele>339.6</ele>
        <time>2022-09-26T12:52:47Z</time>
      </trkpt>
      <trkpt lat="46.00262" lon="5.84564">
        <ele>339.7</ele>
        <time>2022-09-26T12:52:48Z</time>
      </trkpt>
      <trkpt lat="46.00263" lon="5.84564">
        <ele>339.8</ele>
        <time>2022-09-26T12:52:49Z</time>
      </trkpt>
      <trkpt lat="46.00265" lon="5.84564">
        <ele>339.9</ele>
        <time>2022-09-26T12:52:50Z</time>
      </trkpt>
      <trkpt lat="46.00266" lon="5.84564">
        <ele>340</ele>
        <time>2022-09-26T12:52:51Z</time>
      </trkpt>
      <trkpt lat="46.00268" lon="5.84564">
        <ele>340.1</ele>
        <time>2022-09-26T12:52:52Z</time>
      </trkpt>
      <trkpt lat="46.00269" lon="5.84564">
        <ele>340.2</ele>
        <time>2022-09-26T12:52:53Z</time>
      </trkpt>
      <trkpt lat="46.00272" lon="5.84564">
        <ele>340.3</ele>
        <time>2022-09-26T12:52:54Z</time>
      </trkpt>
      <trkpt lat="46.00273" lon="5.84564">
        <ele>340.4</ele>
        <time>2022-09-26T12:52:55Z</time>
      </trkpt>
      <trkpt lat="46.00274" lon="5.84564">
        <ele>340.5</ele>
        <time>2022-09-26T12:52:56Z</time>
      </trkpt>
      <trkpt lat="46.00276" lon="5.84564">
        <ele>340.5</ele>
        <time>2022-09-26T12:52:57Z</time>
      </trkpt>
      <trkpt lat="46.00279" lon="5.84563">
        <ele>340.7</ele>
        <time>2022-09-26T12:52:58Z</time>
      </trkpt>
      <trkpt lat="46.0028" lon="5.84563">
        <ele>340.7</ele>
        <time>2022-09-26T12:52:59Z</time>
      </trkpt>
      <trkpt lat="46.00281" lon="5.84563">
        <ele>340.8</ele>
        <time>2022-09-26T12:53:00Z</time>
      </trkpt>
      <trkpt lat="46.00283" lon="5.84563">
        <ele>340.9</ele>
        <time>2022-09-26T12:53:01Z</time>
      </trkpt>
      <trkpt lat="46.00285" lon="5.84563">
        <ele>341</ele>
        <time>2022-09-26T12:53:02Z</time>
      </trkpt>
      <trkpt lat="46.00286" lon="5.84564">
        <ele>341</ele>
        <time>2022-09-26T12:53:03Z</time>
      </trkpt>
      <trkpt lat="46.00288" lon="5.84563">
        <ele>341.1</ele>
        <time>2022-09-26T12:53:04Z</time>
      </trkpt>
      <trkpt lat="46.0029" lon="5.84563">
        <ele>341.1</ele>
        <time>2022-09-26T12:53:05Z</time>
      </trkpt>
      <trkpt lat="46.00291" lon="5.84563">
        <ele>341.2</ele>
        <time>2022-09-26T12:53:06Z</time>
      </trkpt>
      <trkpt lat="46.00293" lon="5.84563">
        <ele>341.2</ele>
        <time>2022-09-26T12:53:07Z</time>
      </trkpt>
      <trkpt lat="46.00296" lon="5.84562">
        <ele>341.3</ele>
        <time>2022-09-26T12:53:08Z</time>
      </trkpt>
      <trkpt lat="46.00297" lon="5.84562">
        <ele>341.3</ele>
        <time>2022-09-26T12:53:09Z</time>
      </trkpt>
      <trkpt lat="46.003" lon="5.84562">
        <ele>341.4</ele>
        <time>2022-09-26T12:53:10Z</time>
      </trkpt>
      <trkpt lat="46.00301" lon="5.84561">
        <ele>341.5</ele>
        <time>2022-09-26T12:53:11Z</time>
      </trkpt>
      <trkpt lat="46.00302" lon="5.84561">
        <ele>341.5</ele>
        <time>2022-09-26T12:53:12Z</time>
      </trkpt>
      <trkpt lat="46.00304" lon="5.84561">
        <ele>341.6</ele>
        <time>2022-09-26T12:53:13Z</time>
      </trkpt>
      <trkpt lat="46.00306" lon="5.8456">
        <ele>341.6</ele>
        <time>2022-09-26T12:53:14Z</time>
      </trkpt>
      <trkpt lat="46.00308" lon="5.8456">
        <ele>341.7</ele>
        <time>2022-09-26T12:53:15Z</time>
      </trkpt>
      <trkpt lat="46.0031" lon="5.84559">
        <ele>341.7</ele>
        <time>2022-09-26T12:53:16Z</time>
      </trkpt>
      <trkpt lat="46.00311" lon="5.84558">
        <ele>341.8</ele>
        <time>2022-09-26T12:53:17Z</time>
      </trkpt>
      <trkpt lat="46.00314" lon="5.84557">
        <ele>341.8</ele>
        <time>2022-09-26T12:53:18Z</time>
      </trkpt>
      <trkpt lat="46.00315" lon="5.84557">
        <ele>341.9</ele>
        <time>2022-09-26T12:53:19Z</time>
      </trkpt>
      <trkpt lat="46.00318" lon="5.84556">
        <ele>341.9</ele>
        <time>2022-09-26T12:53:20Z</time>
      </trkpt>
      <trkpt lat="46.00318" lon="5.84555">
        <ele>341.9</ele>
        <time>2022-09-26T12:53:21Z</time>
      </trkpt>
      <trkpt lat="46.00319" lon="5.84554">
        <ele>342</ele>
        <time>2022-09-26T12:53:22Z</time>
      </trkpt>
      <trkpt lat="46.00321" lon="5.84554">
        <ele>342</ele>
        <time>2022-09-26T12:53:23Z</time>
      </trkpt>
      <trkpt lat="46.00325" lon="5.84553">
        <ele>342.1</ele>
        <time>2022-09-26T12:53:24Z</time>
      </trkpt>
      <trkpt lat="46.00326" lon="5.84552">
        <ele>342.1</ele>
        <time>2022-09-26T12:53:25Z</time>
      </trkpt>
      <trkpt lat="46.00329" lon="5.84551">
        <ele>342.2</ele>
        <time>2022-09-26T12:53:26Z</time>
      </trkpt>
      <trkpt lat="46.0033" lon="5.8455">
        <ele>342.2</ele>
        <time>2022-09-26T12:53:27Z</time>
      </trkpt>
      <trkpt lat="46.00334" lon="5.84549">
        <ele>342.3</ele>
        <time>2022-09-26T12:53:28Z</time>
      </trkpt>
      <trkpt lat="46.00335" lon="5.84548">
        <ele>342.3</ele>
        <time>2022-09-26T12:53:29Z</time>
      </trkpt>
      <trkpt lat="46.00338" lon="5.84546">
        <ele>342.4</ele>
        <time>2022-09-26T12:53:30Z</time>
      </trkpt>
      <trkpt lat="46.00339" lon="5.84545">
        <ele>342.5</ele>
        <time>2022-09-26T12:53:31Z</time>
      </trkpt>
      <trkpt lat="46.00343" lon="5.84543">
        <ele>342.6</ele>
        <time>2022-09-26T12:53:32Z</time>
      </trkpt>
      <trkpt lat="46.00344" lon="5.84542">
        <ele>342.6</ele>
        <time>2022-09-26T12:53:33Z</time>
      </trkpt>
      <trkpt lat="46.00346" lon="5.8454">
        <ele>342.7</ele>
        <time>2022-09-26T12:53:34Z</time>
      </trkpt>
      <trkpt lat="46.00347" lon="5.84539">
        <ele>342.7</ele>
        <time>2022-09-26T12:53:35Z</time>
      </trkpt>
      <trkpt lat="46.00349" lon="5.84537">
        <ele>342.8</ele>
        <time>2022-09-26T12:53:36Z</time>
      </trkpt>
      <trkpt lat="46.0035" lon="5.84536">
        <ele>342.9</ele>
        <time>2022-09-26T12:53:37Z</time>
      </trkpt>
      <trkpt lat="46.00351" lon="5.84534">
        <ele>342.9</ele>
        <time>2022-09-26T12:53:38Z</time>
      </trkpt>
      <trkpt lat="46.00353" lon="5.84534">
        <ele>343</ele>
        <time>2022-09-26T12:53:39Z</time>
      </trkpt>
      <trkpt lat="46.00354" lon="5.84533">
        <ele>343.1</ele>
        <time>2022-09-26T12:53:41Z</time>
      </trkpt>
      <trkpt lat="46.00356" lon="5.84531">
        <ele>343.1</ele>
        <time>2022-09-26T12:53:42Z</time>
      </trkpt>
      <trkpt lat="46.00358" lon="5.84529">
        <ele>343.3</ele>
        <time>2022-09-26T12:53:43Z</time>
      </trkpt>
      <trkpt lat="46.00359" lon="5.84528">
        <ele>343.3</ele>
        <time>2022-09-26T12:53:44Z</time>
      </trkpt>
      <trkpt lat="46.00362" lon="5.84525">
        <ele>343.5</ele>
        <time>2022-09-26T12:53:45Z</time>
      </trkpt>
      <trkpt lat="46.00363" lon="5.84525">
        <ele>343.5</ele>
        <time>2022-09-26T12:53:46Z</time>
      </trkpt>
      <trkpt lat="46.00365" lon="5.84522">
        <ele>343.7</ele>
        <time>2022-09-26T12:53:47Z</time>
      </trkpt>
      <trkpt lat="46.00366" lon="5.84521">
        <ele>343.7</ele>
        <time>2022-09-26T12:53:48Z</time>
      </trkpt>
      <trkpt lat="46.00369" lon="5.84519">
        <ele>343.9</ele>
        <time>2022-09-26T12:53:49Z</time>
      </trkpt>
      <trkpt lat="46.0037" lon="5.84518">
        <ele>344</ele>
        <time>2022-09-26T12:53:50Z</time>
      </trkpt>
      <trkpt lat="46.00373" lon="5.84516">
        <ele>344.2</ele>
        <time>2022-09-26T12:53:51Z</time>
      </trkpt>
      <trkpt lat="46.00374" lon="5.84515">
        <ele>344.3</ele>
        <time>2022-09-26T12:53:52Z</time>
      </trkpt>
      <trkpt lat="46.00378" lon="5.84512">
        <ele>344.5</ele>
        <time>2022-09-26T12:53:53Z</time>
      </trkpt>
      <trkpt lat="46.00379" lon="5.84512">
        <ele>344.6</ele>
        <time>2022-09-26T12:53:54Z</time>
      </trkpt>
      <trkpt lat="46.00383" lon="5.8451">
        <ele>344.8</ele>
        <time>2022-09-26T12:53:55Z</time>
      </trkpt>
      <trkpt lat="46.00384" lon="5.84509">
        <ele>344.9</ele>
        <time>2022-09-26T12:53:56Z</time>
      </trkpt>
      <trkpt lat="46.00387" lon="5.84506">
        <ele>345.1</ele>
        <time>2022-09-26T12:53:57Z</time>
      </trkpt>
      <trkpt lat="46.00388" lon="5.84505">
        <ele>345.2</ele>
        <time>2022-09-26T12:53:58Z</time>
      </trkpt>
      <trkpt lat="46.00389" lon="5.84504">
        <ele>345.4</ele>
        <time>2022-09-26T12:53:59Z</time>
      </trkpt>
      <trkpt lat="46.00391" lon="5.84504">
        <ele>345.5</ele>
        <time>2022-09-26T12:54:00Z</time>
      </trkpt>
      <trkpt lat="46.00394" lon="5.84502">
        <ele>345.8</ele>
        <time>2022-09-26T12:54:01Z</time>
      </trkpt>
      <trkpt lat="46.00396" lon="5.84501">
        <ele>345.9</ele>
        <time>2022-09-26T12:54:02Z</time>
      </trkpt>
      <trkpt lat="46.00398" lon="5.84499">
        <ele>346.1</ele>
        <time>2022-09-26T12:54:03Z</time>
      </trkpt>
      <trkpt lat="46.00399" lon="5.84499">
        <ele>346.2</ele>
        <time>2022-09-26T12:54:04Z</time>
      </trkpt>
      <trkpt lat="46.00402" lon="5.84498">
        <ele>346.4</ele>
        <time>2022-09-26T12:54:05Z</time>
      </trkpt>
      <trkpt lat="46.00404" lon="5.84498">
        <ele>346.6</ele>
        <time>2022-09-26T12:54:06Z</time>
      </trkpt>
      <trkpt lat="46.00407" lon="5.84497">
        <ele>346.9</ele>
        <time>2022-09-26T12:54:07Z</time>
      </trkpt>
      <trkpt lat="46.00408" lon="5.84497">
        <ele>347</ele>
        <time>2022-09-26T12:54:08Z</time>
      </trkpt>
      <trkpt lat="46.00411" lon="5.84496">
        <ele>347.2</ele>
        <time>2022-09-26T12:54:09Z</time>
      </trkpt>
      <trkpt lat="46.00412" lon="5.84495">
        <ele>347.3</ele>
        <time>2022-09-26T12:54:10Z</time>
      </trkpt>
      <trkpt lat="46.00414" lon="5.84495">
        <ele>347.5</ele>
        <time>2022-09-26T12:54:11Z</time>
      </trkpt>
      <trkpt lat="46.00416" lon="5.84494">
        <ele>347.6</ele>
        <time>2022-09-26T12:54:12Z</time>
      </trkpt>
      <trkpt lat="46.00417" lon="5.84494">
        <ele>347.8</ele>
        <time>2022-09-26T12:54:13Z</time>
      </trkpt>
      <trkpt lat="46.0042" lon="5.84493">
        <ele>348</ele>
        <time>2022-09-26T12:54:14Z</time>
      </trkpt>
      <trkpt lat="46.00421" lon="5.84493">
        <ele>348.1</ele>
        <time>2022-09-26T12:54:15Z</time>
      </trkpt>
      <trkpt lat="46.00423" lon="5.84493">
        <ele>348.3</ele>
        <time>2022-09-26T12:54:16Z</time>
      </trkpt>
      <trkpt lat="46.00425" lon="5.84493">
        <ele>348.4</ele>
        <time>2022-09-26T12:54:17Z</time>
      </trkpt>
      <trkpt lat="46.00427" lon="5.84493">
        <ele>348.6</ele>
        <time>2022-09-26T12:54:18Z</time>
      </trkpt>
      <trkpt lat="46.00428" lon="5.84493">
        <ele>348.7</ele>
        <time>2022-09-26T12:54:19Z</time>
      </trkpt>
      <trkpt lat="46.0043" lon="5.84493">
        <ele>348.8</ele>
        <time>2022-09-26T12:54:20Z</time>
      </trkpt>
      <trkpt lat="46.00432" lon="5.84493">
        <ele>349</ele>
        <time>2022-09-26T12:54:21Z</time>
      </trkpt>
      <trkpt lat="46.00433" lon="5.84493">
        <ele>349.1</ele>
        <time>2022-09-26T12:54:22Z</time>
      </trkpt>
      <trkpt lat="46.00435" lon="5.84493">
        <ele>349.3</ele>
        <time>2022-09-26T12:54:23Z</time>
      </trkpt>
      <trkpt lat="46.00437" lon="5.84493">
        <ele>349.5</ele>
        <time>2022-09-26T12:54:24Z</time>
      </trkpt>
      <trkpt lat="46.00438" lon="5.84493">
        <ele>349.5</ele>
        <time>2022-09-26T12:54:25Z</time>
      </trkpt>
      <trkpt lat="46.00439" lon="5.84494">
        <ele>349.6</ele>
        <time>2022-09-26T12:54:26Z</time>
      </trkpt>
      <trkpt lat="46.00441" lon="5.84494">
        <ele>349.8</ele>
        <time>2022-09-26T12:54:27Z</time>
      </trkpt>
      <trkpt lat="46.00443" lon="5.84493">
        <ele>349.9</ele>
        <time>2022-09-26T12:54:28Z</time>
      </trkpt>
      <trkpt lat="46.00444" lon="5.84493">
        <ele>350</ele>
        <time>2022-09-26T12:54:29Z</time>
      </trkpt>
      <trkpt lat="46.00445" lon="5.84493">
        <ele>350</ele>
        <time>2022-09-26T12:54:30Z</time>
      </trkpt>
      <trkpt lat="46.00446" lon="5.84493">
        <ele>350.2</ele>
        <time>2022-09-26T12:54:31Z</time>
      </trkpt>
      <trkpt lat="46.00448" lon="5.84493">
        <ele>350.3</ele>
        <time>2022-09-26T12:54:32Z</time>
      </trkpt>
      <trkpt lat="46.0045" lon="5.84494">
        <ele>350.4</ele>
        <time>2022-09-26T12:54:33Z</time>
      </trkpt>
      <trkpt lat="46.00451" lon="5.84494">
        <ele>350.5</ele>
        <time>2022-09-26T12:54:34Z</time>
      </trkpt>
      <trkpt lat="46.00454" lon="5.84494">
        <ele>350.7</ele>
        <time>2022-09-26T12:54:35Z</time>
      </trkpt>
      <trkpt lat="46.00455" lon="5.84494">
        <ele>350.8</ele>
        <time>2022-09-26T12:54:36Z</time>
      </trkpt>
      <trkpt lat="46.00457" lon="5.84495">
        <ele>350.9</ele>
        <time>2022-09-26T12:54:37Z</time>
      </trkpt>
      <trkpt lat="46.00458" lon="5.84496">
        <ele>351</ele>
        <time>2022-09-26T12:54:38Z</time>
      </trkpt>
      <trkpt lat="46.0046" lon="5.84496">
        <ele>351.2</ele>
        <time>2022-09-26T12:54:39Z</time>
      </trkpt>
      <trkpt lat="46.00462" lon="5.84499">
        <ele>351.4</ele>
        <time>2022-09-26T12:54:40Z</time>
      </trkpt>
      <trkpt lat="46.00464" lon="5.845">
        <ele>351.5</ele>
        <time>2022-09-26T12:54:41Z</time>
      </trkpt>
      <trkpt lat="46.00465" lon="5.845">
        <ele>351.6</ele>
        <time>2022-09-26T12:54:42Z</time>
      </trkpt>
      <trkpt lat="46.00467" lon="5.845">
        <ele>351.7</ele>
        <time>2022-09-26T12:54:43Z</time>
      </trkpt>
      <trkpt lat="46.00468" lon="5.84501">
        <ele>351.8</ele>
        <time>2022-09-26T12:54:44Z</time>
      </trkpt>
      <trkpt lat="46.00471" lon="5.84502">
        <ele>352</ele>
        <time>2022-09-26T12:54:45Z</time>
      </trkpt>
      <trkpt lat="46.00471" lon="5.84503">
        <ele>352</ele>
        <time>2022-09-26T12:54:46Z</time>
      </trkpt>
      <trkpt lat="46.00474" lon="5.84504">
        <ele>352.2</ele>
        <time>2022-09-26T12:54:47Z</time>
      </trkpt>
      <trkpt lat="46.00475" lon="5.84504">
        <ele>352.2</ele>
        <time>2022-09-26T12:54:48Z</time>
      </trkpt>
      <trkpt lat="46.00477" lon="5.84505">
        <ele>352.4</ele>
        <time>2022-09-26T12:54:49Z</time>
      </trkpt>
      <trkpt lat="46.0048" lon="5.84506">
        <ele>352.6</ele>
        <time>2022-09-26T12:54:50Z</time>
      </trkpt>
      <trkpt lat="46.0048" lon="5.84507">
        <ele>352.7</ele>
        <time>2022-09-26T12:54:51Z</time>
      </trkpt>
      <trkpt lat="46.00482" lon="5.84508">
        <ele>352.8</ele>
        <time>2022-09-26T12:54:52Z</time>
      </trkpt>
      <trkpt lat="46.00484" lon="5.84509">
        <ele>352.9</ele>
        <time>2022-09-26T12:54:53Z</time>
      </trkpt>
      <trkpt lat="46.00486" lon="5.84511">
        <ele>353.1</ele>
        <time>2022-09-26T12:54:54Z</time>
      </trkpt>
      <trkpt lat="46.00487" lon="5.84511">
        <ele>353.1</ele>
        <time>2022-09-26T12:54:55Z</time>
      </trkpt>
      <trkpt lat="46.00488" lon="5.84512">
        <ele>353.2</ele>
        <time>2022-09-26T12:54:56Z</time>
      </trkpt>
      <trkpt lat="46.0049" lon="5.84513">
        <ele>353.3</ele>
        <time>2022-09-26T12:54:57Z</time>
      </trkpt>
      <trkpt lat="46.00491" lon="5.84513">
        <ele>353.4</ele>
        <time>2022-09-26T12:54:58Z</time>
      </trkpt>
      <trkpt lat="46.00492" lon="5.84514">
        <ele>353.5</ele>
        <time>2022-09-26T12:54:59Z</time>
      </trkpt>
      <trkpt lat="46.00493" lon="5.84515">
        <ele>353.5</ele>
        <time>2022-09-26T12:55:00Z</time>
      </trkpt>
      <trkpt lat="46.00495" lon="5.84516">
        <ele>353.6</ele>
        <time>2022-09-26T12:55:01Z</time>
      </trkpt>
      <trkpt lat="46.00496" lon="5.84517">
        <ele>353.7</ele>
        <time>2022-09-26T12:55:02Z</time>
      </trkpt>
      <trkpt lat="46.00498" lon="5.84518">
        <ele>353.9</ele>
        <time>2022-09-26T12:55:03Z</time>
      </trkpt>
      <trkpt lat="46.00499" lon="5.84519">
        <ele>353.9</ele>
        <time>2022-09-26T12:55:04Z</time>
      </trkpt>
      <trkpt lat="46.00502" lon="5.8452">
        <ele>354.1</ele>
        <time>2022-09-26T12:55:05Z</time>
      </trkpt>
      <trkpt lat="46.00503" lon="5.84521">
        <ele>354.1</ele>
        <time>2022-09-26T12:55:06Z</time>
      </trkpt>
      <trkpt lat="46.00505" lon="5.84522">
        <ele>354.3</ele>
        <time>2022-09-26T12:55:07Z</time>
      </trkpt>
      <trkpt lat="46.00506" lon="5.84523">
        <ele>354.3</ele>
        <time>2022-09-26T12:55:08Z</time>
      </trkpt>
      <trkpt lat="46.00507" lon="5.84524">
        <ele>354.4</ele>
        <time>2022-09-26T12:55:09Z</time>
      </trkpt>
      <trkpt lat="46.00508" lon="5.84525">
        <ele>354.4</ele>
        <time>2022-09-26T12:55:10Z</time>
      </trkpt>
      <trkpt lat="46.0051" lon="5.84526">
        <ele>354.6</ele>
        <time>2022-09-26T12:55:11Z</time>
      </trkpt>
      <trkpt lat="46.00512" lon="5.84527">
        <ele>354.7</ele>
        <time>2022-09-26T12:55:12Z</time>
      </trkpt>
      <trkpt lat="46.00513" lon="5.84528">
        <ele>354.7</ele>
        <time>2022-09-26T12:55:13Z</time>
      </trkpt>
      <trkpt lat="46.00514" lon="5.84529">
        <ele>354.8</ele>
        <time>2022-09-26T12:55:14Z</time>
      </trkpt>
      <trkpt lat="46.00515" lon="5.8453">
        <ele>354.9</ele>
        <time>2022-09-26T12:55:15Z</time>
      </trkpt>
      <trkpt lat="46.00517" lon="5.84531">
        <ele>354.9</ele>
        <time>2022-09-26T12:55:16Z</time>
      </trkpt>
      <trkpt lat="46.00518" lon="5.84532">
        <ele>355</ele>
        <time>2022-09-26T12:55:17Z</time>
      </trkpt>
      <trkpt lat="46.0052" lon="5.84533">
        <ele>355.1</ele>
        <time>2022-09-26T12:55:18Z</time>
      </trkpt>
      <trkpt lat="46.00521" lon="5.84534">
        <ele>355.2</ele>
        <time>2022-09-26T12:55:19Z</time>
      </trkpt>
      <trkpt lat="46.00523" lon="5.84535">
        <ele>355.2</ele>
        <time>2022-09-26T12:55:20Z</time>
      </trkpt>
      <trkpt lat="46.00524" lon="5.84537">
        <ele>355.3</ele>
        <time>2022-09-26T12:55:21Z</time>
      </trkpt>
      <trkpt lat="46.00526" lon="5.84539">
        <ele>355.4</ele>
        <time>2022-09-26T12:55:22Z</time>
      </trkpt>
      <trkpt lat="46.00527" lon="5.8454">
        <ele>355.4</ele>
        <time>2022-09-26T12:55:23Z</time>
      </trkpt>
      <trkpt lat="46.0053" lon="5.84541">
        <ele>355.5</ele>
        <time>2022-09-26T12:55:24Z</time>
      </trkpt>
      <trkpt lat="46.0053" lon="5.84542">
        <ele>355.5</ele>
        <time>2022-09-26T12:55:25Z</time>
      </trkpt>
      <trkpt lat="46.00531" lon="5.84543">
        <ele>355.6</ele>
        <time>2022-09-26T12:55:26Z</time>
      </trkpt>
      <trkpt lat="46.00533" lon="5.84544">
        <ele>355.6</ele>
        <time>2022-09-26T12:55:27Z</time>
      </trkpt>
      <trkpt lat="46.00536" lon="5.84546">
        <ele>355.7</ele>
        <time>2022-09-26T12:55:28Z</time>
      </trkpt>
      <trkpt lat="46.00537" lon="5.84547">
        <ele>355.7</ele>
        <time>2022-09-26T12:55:29Z</time>
      </trkpt>
      <trkpt lat="46.00537" lon="5.84548">
        <ele>355.8</ele>
        <time>2022-09-26T12:55:30Z</time>
      </trkpt>
      <trkpt lat="46.0054" lon="5.8455">
        <ele>355.8</ele>
        <time>2022-09-26T12:55:31Z</time>
      </trkpt>
      <trkpt lat="46.00543" lon="5.84552">
        <ele>355.9</ele>
        <time>2022-09-26T12:55:32Z</time>
      </trkpt>
      <trkpt lat="46.00544" lon="5.84553">
        <ele>355.9</ele>
        <time>2022-09-26T12:55:33Z</time>
      </trkpt>
      <trkpt lat="46.00546" lon="5.84554">
        <ele>356</ele>
        <time>2022-09-26T12:55:34Z</time>
      </trkpt>
      <trkpt lat="46.00547" lon="5.84555">
        <ele>356</ele>
        <time>2022-09-26T12:55:35Z</time>
      </trkpt>
      <trkpt lat="46.0055" lon="5.84558">
        <ele>356</ele>
        <time>2022-09-26T12:55:36Z</time>
      </trkpt>
      <trkpt lat="46.00551" lon="5.84558">
        <ele>356</ele>
        <time>2022-09-26T12:55:37Z</time>
      </trkpt>
      <trkpt lat="46.00554" lon="5.84561">
        <ele>356.1</ele>
        <time>2022-09-26T12:55:38Z</time>
      </trkpt>
      <trkpt lat="46.00555" lon="5.84562">
        <ele>356.1</ele>
        <time>2022-09-26T12:55:39Z</time>
      </trkpt>
      <trkpt lat="46.00559" lon="5.84564">
        <ele>356.1</ele>
        <time>2022-09-26T12:55:40Z</time>
      </trkpt>
      <trkpt lat="46.0056" lon="5.84565">
        <ele>356.1</ele>
        <time>2022-09-26T12:55:41Z</time>
      </trkpt>
      <trkpt lat="46.00563" lon="5.84568">
        <ele>356.1</ele>
        <time>2022-09-26T12:55:42Z</time>
      </trkpt>
      <trkpt lat="46.00564" lon="5.84569">
        <ele>356.2</ele>
        <time>2022-09-26T12:55:43Z</time>
      </trkpt>
      <trkpt lat="46.00568" lon="5.84572">
        <ele>356.2</ele>
        <time>2022-09-26T12:55:44Z</time>
      </trkpt>
      <trkpt lat="46.00569" lon="5.84572">
        <ele>356.2</ele>
        <time>2022-09-26T12:55:45Z</time>
      </trkpt>
      <trkpt lat="46.00574" lon="5.84575">
        <ele>356.2</ele>
        <time>2022-09-26T12:55:47Z</time>
      </trkpt>
      <trkpt lat="46.00575" lon="5.84576">
        <ele>356.3</ele>
        <time>2022-09-26T12:55:48Z</time>
      </trkpt>
      <trkpt lat="46.00577" lon="5.84577">
        <ele>356.3</ele>
        <time>2022-09-26T12:55:49Z</time>
      </trkpt>
      <trkpt lat="46.00579" lon="5.84579">
        <ele>356.3</ele>
        <time>2022-09-26T12:55:50Z</time>
      </trkpt>
      <trkpt lat="46.00582" lon="5.84581">
        <ele>356.3</ele>
        <time>2022-09-26T12:55:51Z</time>
      </trkpt>
      <trkpt lat="46.00584" lon="5.84583">
        <ele>356.4</ele>
        <time>2022-09-26T12:55:52Z</time>
      </trkpt>
      <trkpt lat="46.00587" lon="5.84585">
        <ele>356.4</ele>
        <time>2022-09-26T12:55:53Z</time>
      </trkpt>
      <trkpt lat="46.0059" lon="5.84587">
        <ele>356.5</ele>
        <time>2022-09-26T12:55:54Z</time>
      </trkpt>
      <trkpt lat="46.00592" lon="5.84588">
        <ele>356.5</ele>
        <time>2022-09-26T12:55:55Z</time>
      </trkpt>
      <trkpt lat="46.00594" lon="5.8459">
        <ele>356.5</ele>
        <time>2022-09-26T12:55:56Z</time>
      </trkpt>
      <trkpt lat="46.00597" lon="5.84592">
        <ele>356.6</ele>
        <time>2022-09-26T12:55:57Z</time>
      </trkpt>
      <trkpt lat="46.00599" lon="5.84593">
        <ele>356.6</ele>
        <time>2022-09-26T12:55:58Z</time>
      </trkpt>
      <trkpt lat="46.00602" lon="5.84595">
        <ele>356.7</ele>
        <time>2022-09-26T12:55:59Z</time>
      </trkpt>
      <trkpt lat="46.00605" lon="5.84597">
        <ele>356.7</ele>
        <time>2022-09-26T12:56:00Z</time>
      </trkpt>
      <trkpt lat="46.00607" lon="5.84599">
        <ele>356.8</ele>
        <time>2022-09-26T12:56:01Z</time>
      </trkpt>
      <trkpt lat="46.00611" lon="5.84601">
        <ele>356.9</ele>
        <time>2022-09-26T12:56:02Z</time>
      </trkpt>
      <trkpt lat="46.00612" lon="5.84602">
        <ele>356.9</ele>
        <time>2022-09-26T12:56:03Z</time>
      </trkpt>
      <trkpt lat="46.00615" lon="5.84603">
        <ele>357</ele>
        <time>2022-09-26T12:56:04Z</time>
      </trkpt>
      <trkpt lat="46.00617" lon="5.84605">
        <ele>357.1</ele>
        <time>2022-09-26T12:56:05Z</time>
      </trkpt>
      <trkpt lat="46.0062" lon="5.84606">
        <ele>357.1</ele>
        <time>2022-09-26T12:56:06Z</time>
      </trkpt>
      <trkpt lat="46.00623" lon="5.84608">
        <ele>357.3</ele>
        <time>2022-09-26T12:56:07Z</time>
      </trkpt>
      <trkpt lat="46.00624" lon="5.84608">
        <ele>357.3</ele>
        <time>2022-09-26T12:56:08Z</time>
      </trkpt>
      <trkpt lat="46.00628" lon="5.8461">
        <ele>357.4</ele>
        <time>2022-09-26T12:56:09Z</time>
      </trkpt>
      <trkpt lat="46.00629" lon="5.8461">
        <ele>357.5</ele>
        <time>2022-09-26T12:56:10Z</time>
      </trkpt>
      <trkpt lat="46.00632" lon="5.84613">
        <ele>357.6</ele>
        <time>2022-09-26T12:56:11Z</time>
      </trkpt>
      <trkpt lat="46.00633" lon="5.84613">
        <ele>357.7</ele>
        <time>2022-09-26T12:56:12Z</time>
      </trkpt>
      <trkpt lat="46.00635" lon="5.84615">
        <ele>357.8</ele>
        <time>2022-09-26T12:56:13Z</time>
      </trkpt>
      <trkpt lat="46.00636" lon="5.84616">
        <ele>357.8</ele>
        <time>2022-09-26T12:56:14Z</time>
      </trkpt>
      <trkpt lat="46.00639" lon="5.84618">
        <ele>358</ele>
        <time>2022-09-26T12:56:15Z</time>
      </trkpt>
      <trkpt lat="46.0064" lon="5.84619">
        <ele>358.1</ele>
        <time>2022-09-26T12:56:16Z</time>
      </trkpt>
      <trkpt lat="46.00643" lon="5.84621">
        <ele>358.2</ele>
        <time>2022-09-26T12:56:17Z</time>
      </trkpt>
      <trkpt lat="46.00644" lon="5.84622">
        <ele>358.3</ele>
        <time>2022-09-26T12:56:18Z</time>
      </trkpt>
      <trkpt lat="46.00648" lon="5.84624">
        <ele>358.5</ele>
        <time>2022-09-26T12:56:19Z</time>
      </trkpt>
      <trkpt lat="46.0065" lon="5.84626">
        <ele>358.7</ele>
        <time>2022-09-26T12:56:20Z</time>
      </trkpt>
      <trkpt lat="46.00651" lon="5.84626">
        <ele>358.7</ele>
        <time>2022-09-26T12:56:21Z</time>
      </trkpt>
      <trkpt lat="46.00654" lon="5.84628">
        <ele>358.9</ele>
        <time>2022-09-26T12:56:22Z</time>
      </trkpt>
      <trkpt lat="46.00655" lon="5.84629">
        <ele>358.9</ele>
        <time>2022-09-26T12:56:23Z</time>
      </trkpt>
      <trkpt lat="46.00656" lon="5.8463">
        <ele>359</ele>
        <time>2022-09-26T12:56:24Z</time>
      </trkpt>
      <trkpt lat="46.00657" lon="5.84632">
        <ele>359.2</ele>
        <time>2022-09-26T12:56:25Z</time>
      </trkpt>
      <trkpt lat="46.0066" lon="5.84634">
        <ele>359.3</ele>
        <time>2022-09-26T12:56:26Z</time>
      </trkpt>
      <trkpt lat="46.0066" lon="5.84635">
        <ele>359.4</ele>
        <time>2022-09-26T12:56:27Z</time>
      </trkpt>
      <trkpt lat="46.00663" lon="5.84637">
        <ele>359.6</ele>
        <time>2022-09-26T12:56:28Z</time>
      </trkpt>
      <trkpt lat="46.00664" lon="5.84637">
        <ele>359.6</ele>
        <time>2022-09-26T12:56:29Z</time>
      </trkpt>
      <trkpt lat="46.00665" lon="5.84638">
        <ele>359.7</ele>
        <time>2022-09-26T12:56:30Z</time>
      </trkpt>
      <trkpt lat="46.00667" lon="5.84639">
        <ele>359.8</ele>
        <time>2022-09-26T12:56:31Z</time>
      </trkpt>
      <trkpt lat="46.00669" lon="5.8464">
        <ele>359.9</ele>
        <time>2022-09-26T12:56:32Z</time>
      </trkpt>
      <trkpt lat="46.0067" lon="5.84642">
        <ele>360.1</ele>
        <time>2022-09-26T12:56:33Z</time>
      </trkpt>
      <trkpt lat="46.00671" lon="5.84643">
        <ele>360.2</ele>
        <time>2022-09-26T12:56:34Z</time>
      </trkpt>
      <trkpt lat="46.00673" lon="5.84644">
        <ele>360.3</ele>
        <time>2022-09-26T12:56:35Z</time>
      </trkpt>
      <trkpt lat="46.00674" lon="5.84646">
        <ele>360.4</ele>
        <time>2022-09-26T12:56:36Z</time>
      </trkpt>
      <trkpt lat="46.00676" lon="5.84647">
        <ele>360.5</ele>
        <time>2022-09-26T12:56:37Z</time>
      </trkpt>
      <trkpt lat="46.00678" lon="5.84649">
        <ele>360.7</ele>
        <time>2022-09-26T12:56:38Z</time>
      </trkpt>
      <trkpt lat="46.00679" lon="5.84649">
        <ele>360.8</ele>
        <time>2022-09-26T12:56:39Z</time>
      </trkpt>
      <trkpt lat="46.00681" lon="5.84651">
        <ele>360.9</ele>
        <time>2022-09-26T12:56:40Z</time>
      </trkpt>
      <trkpt lat="46.00682" lon="5.84652">
        <ele>361</ele>
        <time>2022-09-26T12:56:41Z</time>
      </trkpt>
      <trkpt lat="46.00684" lon="5.84652">
        <ele>361.1</ele>
        <time>2022-09-26T12:56:42Z</time>
      </trkpt>
      <trkpt lat="46.00685" lon="5.84654">
        <ele>361.2</ele>
        <time>2022-09-26T12:56:43Z</time>
      </trkpt>
      <trkpt lat="46.00687" lon="5.84655">
        <ele>361.3</ele>
        <time>2022-09-26T12:56:44Z</time>
      </trkpt>
      <trkpt lat="46.00689" lon="5.84656">
        <ele>361.4</ele>
        <time>2022-09-26T12:56:45Z</time>
      </trkpt>
      <trkpt lat="46.0069" lon="5.84657">
        <ele>361.5</ele>
        <time>2022-09-26T12:56:46Z</time>
      </trkpt>
      <trkpt lat="46.00691" lon="5.84658">
        <ele>361.6</ele>
        <time>2022-09-26T12:56:47Z</time>
      </trkpt>
      <trkpt lat="46.00693" lon="5.84659">
        <ele>361.7</ele>
        <time>2022-09-26T12:56:48Z</time>
      </trkpt>
      <trkpt lat="46.00694" lon="5.8466">
        <ele>361.8</ele>
        <time>2022-09-26T12:56:49Z</time>
      </trkpt>
      <trkpt lat="46.00696" lon="5.84661">
        <ele>362</ele>
        <time>2022-09-26T12:56:50Z</time>
      </trkpt>
      <trkpt lat="46.00698" lon="5.84661">
        <ele>362.1</ele>
        <time>2022-09-26T12:56:51Z</time>
      </trkpt>
      <trkpt lat="46.007" lon="5.84662">
        <ele>362.3</ele>
        <time>2022-09-26T12:56:52Z</time>
      </trkpt>
      <trkpt lat="46.00701" lon="5.84662">
        <ele>362.3</ele>
        <time>2022-09-26T12:56:53Z</time>
      </trkpt>
      <trkpt lat="46.00702" lon="5.84663">
        <ele>362.4</ele>
        <time>2022-09-26T12:56:54Z</time>
      </trkpt>
      <trkpt lat="46.00703" lon="5.84664">
        <ele>362.4</ele>
        <time>2022-09-26T12:56:55Z</time>
      </trkpt>
      <trkpt lat="46.00705" lon="5.84665">
        <ele>362.6</ele>
        <time>2022-09-26T12:56:56Z</time>
      </trkpt>
      <trkpt lat="46.00706" lon="5.84665">
        <ele>362.7</ele>
        <time>2022-09-26T12:56:57Z</time>
      </trkpt>
      <trkpt lat="46.00708" lon="5.84666">
        <ele>362.8</ele>
        <time>2022-09-26T12:56:58Z</time>
      </trkpt>
      <trkpt lat="46.0071" lon="5.84667">
        <ele>363</ele>
        <time>2022-09-26T12:56:59Z</time>
      </trkpt>
      <trkpt lat="46.00711" lon="5.84667">
        <ele>363</ele>
        <time>2022-09-26T12:57:00Z</time>
      </trkpt>
      <trkpt lat="46.00712" lon="5.84668">
        <ele>363.1</ele>
        <time>2022-09-26T12:57:01Z</time>
      </trkpt>
      <trkpt lat="46.00714" lon="5.84668">
        <ele>363.2</ele>
        <time>2022-09-26T12:57:02Z</time>
      </trkpt>
      <trkpt lat="46.00715" lon="5.84668">
        <ele>363.2</ele>
        <time>2022-09-26T12:57:03Z</time>
      </trkpt>
      <trkpt lat="46.00718" lon="5.84669">
        <ele>363.4</ele>
        <time>2022-09-26T12:57:04Z</time>
      </trkpt>
      <trkpt lat="46.00719" lon="5.84669">
        <ele>363.5</ele>
        <time>2022-09-26T12:57:05Z</time>
      </trkpt>
      <trkpt lat="46.0072" lon="5.84669">
        <ele>363.6</ele>
        <time>2022-09-26T12:57:06Z</time>
      </trkpt>
      <trkpt lat="46.00722" lon="5.8467">
        <ele>363.7</ele>
        <time>2022-09-26T12:57:07Z</time>
      </trkpt>
      <trkpt lat="46.00725" lon="5.84671">
        <ele>363.9</ele>
        <time>2022-09-26T12:57:08Z</time>
      </trkpt>
      <trkpt lat="46.00726" lon="5.84671">
        <ele>363.9</ele>
        <time>2022-09-26T12:57:09Z</time>
      </trkpt>
      <trkpt lat="46.00727" lon="5.84671">
        <ele>364</ele>
        <time>2022-09-26T12:57:10Z</time>
      </trkpt>
      <trkpt lat="46.00729" lon="5.84671">
        <ele>364.1</ele>
        <time>2022-09-26T12:57:11Z</time>
      </trkpt>
      <trkpt lat="46.00731" lon="5.84671">
        <ele>364.2</ele>
        <time>2022-09-26T12:57:12Z</time>
      </trkpt>
      <trkpt lat="46.00732" lon="5.84671">
        <ele>364.3</ele>
        <time>2022-09-26T12:57:13Z</time>
      </trkpt>
      <trkpt lat="46.00734" lon="5.84671">
        <ele>364.4</ele>
        <time>2022-09-26T12:57:14Z</time>
      </trkpt>
      <trkpt lat="46.00735" lon="5.84671">
        <ele>364.5</ele>
        <time>2022-09-26T12:57:15Z</time>
      </trkpt>
      <trkpt lat="46.00736" lon="5.84672">
        <ele>364.5</ele>
        <time>2022-09-26T12:57:16Z</time>
      </trkpt>
      <trkpt lat="46.00739" lon="5.84672">
        <ele>364.6</ele>
        <time>2022-09-26T12:57:17Z</time>
      </trkpt>
      <trkpt lat="46.0074" lon="5.84672">
        <ele>364.7</ele>
        <time>2022-09-26T12:57:18Z</time>
      </trkpt>
      <trkpt lat="46.00742" lon="5.84672">
        <ele>364.8</ele>
        <time>2022-09-26T12:57:19Z</time>
      </trkpt>
      <trkpt lat="46.00743" lon="5.84671">
        <ele>364.9</ele>
        <time>2022-09-26T12:57:20Z</time>
      </trkpt>
      <trkpt lat="46.00745" lon="5.84671">
        <ele>365</ele>
        <time>2022-09-26T12:57:21Z</time>
      </trkpt>
      <trkpt lat="46.00748" lon="5.84672">
        <ele>365.1</ele>
        <time>2022-09-26T12:57:22Z</time>
      </trkpt>
      <trkpt lat="46.00749" lon="5.84671">
        <ele>365.2</ele>
        <time>2022-09-26T12:57:23Z</time>
      </trkpt>
      <trkpt lat="46.0075" lon="5.84671">
        <ele>365.3</ele>
        <time>2022-09-26T12:57:24Z</time>
      </trkpt>
      <trkpt lat="46.00752" lon="5.84671">
        <ele>365.3</ele>
        <time>2022-09-26T12:57:25Z</time>
      </trkpt>
      <trkpt lat="46.00755" lon="5.84671">
        <ele>365.5</ele>
        <time>2022-09-26T12:57:26Z</time>
      </trkpt>
      <trkpt lat="46.00756" lon="5.84672">
        <ele>365.5</ele>
        <time>2022-09-26T12:57:27Z</time>
      </trkpt>
      <trkpt lat="46.00759" lon="5.84672">
        <ele>365.7</ele>
        <time>2022-09-26T12:57:28Z</time>
      </trkpt>
      <trkpt lat="46.0076" lon="5.84672">
        <ele>365.8</ele>
        <time>2022-09-26T12:57:29Z</time>
      </trkpt>
      <trkpt lat="46.00763" lon="5.84673">
        <ele>365.9</ele>
        <time>2022-09-26T12:57:30Z</time>
      </trkpt>
      <trkpt lat="46.00764" lon="5.84673">
        <ele>366</ele>
        <time>2022-09-26T12:57:31Z</time>
      </trkpt>
      <trkpt lat="46.00767" lon="5.84674">
        <ele>366.2</ele>
        <time>2022-09-26T12:57:32Z</time>
      </trkpt>
      <trkpt lat="46.00768" lon="5.84675">
        <ele>366.2</ele>
        <time>2022-09-26T12:57:33Z</time>
      </trkpt>
      <trkpt lat="46.00771" lon="5.84676">
        <ele>366.4</ele>
        <time>2022-09-26T12:57:34Z</time>
      </trkpt>
      <trkpt lat="46.00772" lon="5.84676">
        <ele>366.5</ele>
        <time>2022-09-26T12:57:35Z</time>
      </trkpt>
      <trkpt lat="46.00774" lon="5.84677">
        <ele>366.6</ele>
        <time>2022-09-26T12:57:36Z</time>
      </trkpt>
      <trkpt lat="46.00775" lon="5.84678">
        <ele>366.7</ele>
        <time>2022-09-26T12:57:37Z</time>
      </trkpt>
      <trkpt lat="46.00777" lon="5.84679">
        <ele>366.8</ele>
        <time>2022-09-26T12:57:38Z</time>
      </trkpt>
      <trkpt lat="46.00779" lon="5.8468">
        <ele>366.9</ele>
        <time>2022-09-26T12:57:39Z</time>
      </trkpt>
      <trkpt lat="46.0078" lon="5.84681">
        <ele>367</ele>
        <time>2022-09-26T12:57:40Z</time>
      </trkpt>
      <trkpt lat="46.00782" lon="5.84683">
        <ele>367.1</ele>
        <time>2022-09-26T12:57:41Z</time>
      </trkpt>
      <trkpt lat="46.00783" lon="5.84684">
        <ele>367.2</ele>
        <time>2022-09-26T12:57:42Z</time>
      </trkpt>
      <trkpt lat="46.00785" lon="5.84685">
        <ele>367.3</ele>
        <time>2022-09-26T12:57:43Z</time>
      </trkpt>
      <trkpt lat="46.00786" lon="5.84686">
        <ele>367.4</ele>
        <time>2022-09-26T12:57:44Z</time>
      </trkpt>
      <trkpt lat="46.00787" lon="5.84687">
        <ele>367.5</ele>
        <time>2022-09-26T12:57:45Z</time>
      </trkpt>
      <trkpt lat="46.00789" lon="5.84687">
        <ele>367.6</ele>
        <time>2022-09-26T12:57:46Z</time>
      </trkpt>
      <trkpt lat="46.0079" lon="5.84689">
        <ele>367.8</ele>
        <time>2022-09-26T12:57:47Z</time>
      </trkpt>
      <trkpt lat="46.00792" lon="5.8469">
        <ele>367.9</ele>
        <time>2022-09-26T12:57:48Z</time>
      </trkpt>
      <trkpt lat="46.00793" lon="5.84691">
        <ele>368</ele>
        <time>2022-09-26T12:57:49Z</time>
      </trkpt>
      <trkpt lat="46.00794" lon="5.84692">
        <ele>368.1</ele>
        <time>2022-09-26T12:57:50Z</time>
      </trkpt>
      <trkpt lat="46.00796" lon="5.84694">
        <ele>368.2</ele>
        <time>2022-09-26T12:57:51Z</time>
      </trkpt>
      <trkpt lat="46.00797" lon="5.84694">
        <ele>368.3</ele>
        <time>2022-09-26T12:57:52Z</time>
      </trkpt>
      <trkpt lat="46.00799" lon="5.84695">
        <ele>368.5</ele>
        <time>2022-09-26T12:57:53Z</time>
      </trkpt>
      <trkpt lat="46.008" lon="5.84696">
        <ele>368.5</ele>
        <time>2022-09-26T12:57:54Z</time>
      </trkpt>
      <trkpt lat="46.00801" lon="5.84696">
        <ele>368.6</ele>
        <time>2022-09-26T12:57:55Z</time>
      </trkpt>
      <trkpt lat="46.00802" lon="5.84697">
        <ele>368.7</ele>
        <time>2022-09-26T12:57:57Z</time>
      </trkpt>
      <trkpt lat="46.00803" lon="5.84697">
        <ele>368.8</ele>
        <time>2022-09-26T12:57:58Z</time>
      </trkpt>
      <trkpt lat="46.00805" lon="5.84697">
        <ele>369</ele>
        <time>2022-09-26T12:57:59Z</time>
      </trkpt>
      <trkpt lat="46.00807" lon="5.84698">
        <ele>369.1</ele>
        <time>2022-09-26T12:58:00Z</time>
      </trkpt>
      <trkpt lat="46.00808" lon="5.84698">
        <ele>369.2</ele>
        <time>2022-09-26T12:58:01Z</time>
      </trkpt>
      <trkpt lat="46.00809" lon="5.84699">
        <ele>369.3</ele>
        <time>2022-09-26T12:58:02Z</time>
      </trkpt>
      <trkpt lat="46.00811" lon="5.847">
        <ele>369.5</ele>
        <time>2022-09-26T12:58:03Z</time>
      </trkpt>
      <trkpt lat="46.00812" lon="5.84701">
        <ele>369.6</ele>
        <time>2022-09-26T12:58:04Z</time>
      </trkpt>
      <trkpt lat="46.00814" lon="5.84702">
        <ele>369.8</ele>
        <time>2022-09-26T12:58:05Z</time>
      </trkpt>
      <trkpt lat="46.00815" lon="5.84702">
        <ele>369.8</ele>
        <time>2022-09-26T12:58:06Z</time>
      </trkpt>
      <trkpt lat="46.00817" lon="5.84702">
        <ele>369.9</ele>
        <time>2022-09-26T12:58:07Z</time>
      </trkpt>
      <trkpt lat="46.00817" lon="5.84702">
        <ele>370</ele>
        <time>2022-09-26T12:58:08Z</time>
      </trkpt>
      <trkpt lat="46.00819" lon="5.84703">
        <ele>370.2</ele>
        <time>2022-09-26T12:58:09Z</time>
      </trkpt>
      <trkpt lat="46.0082" lon="5.84704">
        <ele>370.2</ele>
        <time>2022-09-26T12:58:10Z</time>
      </trkpt>
      <trkpt lat="46.00822" lon="5.84705">
        <ele>370.4</ele>
        <time>2022-09-26T12:58:11Z</time>
      </trkpt>
      <trkpt lat="46.00823" lon="5.84705">
        <ele>370.5</ele>
        <time>2022-09-26T12:58:12Z</time>
      </trkpt>
      <trkpt lat="46.00825" lon="5.84706">
        <ele>370.6</ele>
        <time>2022-09-26T12:58:13Z</time>
      </trkpt>
      <trkpt lat="46.00826" lon="5.84707">
        <ele>370.7</ele>
        <time>2022-09-26T12:58:14Z</time>
      </trkpt>
      <trkpt lat="46.00828" lon="5.84708">
        <ele>370.9</ele>
        <time>2022-09-26T12:58:15Z</time>
      </trkpt>
      <trkpt lat="46.00829" lon="5.84708">
        <ele>371</ele>
        <time>2022-09-26T12:58:16Z</time>
      </trkpt>
      <trkpt lat="46.0083" lon="5.84709">
        <ele>371.1</ele>
        <time>2022-09-26T12:58:17Z</time>
      </trkpt>
      <trkpt lat="46.00831" lon="5.84709">
        <ele>371.2</ele>
        <time>2022-09-26T12:58:18Z</time>
      </trkpt>
      <trkpt lat="46.00833" lon="5.84711">
        <ele>371.3</ele>
        <time>2022-09-26T12:58:19Z</time>
      </trkpt>
      <trkpt lat="46.00834" lon="5.84711">
        <ele>371.4</ele>
        <time>2022-09-26T12:58:20Z</time>
      </trkpt>
      <trkpt lat="46.00836" lon="5.84712">
        <ele>371.6</ele>
        <time>2022-09-26T12:58:21Z</time>
      </trkpt>
      <trkpt lat="46.00837" lon="5.84712">
        <ele>371.7</ele>
        <time>2022-09-26T12:58:22Z</time>
      </trkpt>
      <trkpt lat="46.0084" lon="5.84714">
        <ele>371.9</ele>
        <time>2022-09-26T12:58:23Z</time>
      </trkpt>
      <trkpt lat="46.00841" lon="5.84714">
        <ele>372</ele>
        <time>2022-09-26T12:58:24Z</time>
      </trkpt>
      <trkpt lat="46.00843" lon="5.84715">
        <ele>372.1</ele>
        <time>2022-09-26T12:58:25Z</time>
      </trkpt>
      <trkpt lat="46.00844" lon="5.84717">
        <ele>372.3</ele>
        <time>2022-09-26T12:58:26Z</time>
      </trkpt>
      <trkpt lat="46.00845" lon="5.84718">
        <ele>372.4</ele>
        <time>2022-09-26T12:58:27Z</time>
      </trkpt>
      <trkpt lat="46.00847" lon="5.84719">
        <ele>372.5</ele>
        <time>2022-09-26T12:58:28Z</time>
      </trkpt>
      <trkpt lat="46.00848" lon="5.84721">
        <ele>372.6</ele>
        <time>2022-09-26T12:58:29Z</time>
      </trkpt>
      <trkpt lat="46.00849" lon="5.84722">
        <ele>372.8</ele>
        <time>2022-09-26T12:58:30Z</time>
      </trkpt>
      <trkpt lat="46.0085" lon="5.84722">
        <ele>372.8</ele>
        <time>2022-09-26T12:58:31Z</time>
      </trkpt>
      <trkpt lat="46.00852" lon="5.84724">
        <ele>373</ele>
        <time>2022-09-26T12:58:32Z</time>
      </trkpt>
      <trkpt lat="46.00852" lon="5.84725">
        <ele>373.1</ele>
        <time>2022-09-26T12:58:33Z</time>
      </trkpt>
      <trkpt lat="46.00854" lon="5.84727">
        <ele>373.2</ele>
        <time>2022-09-26T12:58:34Z</time>
      </trkpt>
      <trkpt lat="46.00855" lon="5.84728">
        <ele>373.3</ele>
        <time>2022-09-26T12:58:35Z</time>
      </trkpt>
      <trkpt lat="46.00856" lon="5.8473">
        <ele>373.5</ele>
        <time>2022-09-26T12:58:36Z</time>
      </trkpt>
      <trkpt lat="46.00857" lon="5.84731">
        <ele>373.5</ele>
        <time>2022-09-26T12:58:37Z</time>
      </trkpt>
      <trkpt lat="46.00859" lon="5.84733">
        <ele>373.7</ele>
        <time>2022-09-26T12:58:38Z</time>
      </trkpt>
      <trkpt lat="46.00859" lon="5.84734">
        <ele>373.8</ele>
        <time>2022-09-26T12:58:39Z</time>
      </trkpt>
      <trkpt lat="46.00861" lon="5.84737">
        <ele>374</ele>
        <time>2022-09-26T12:58:40Z</time>
      </trkpt>
      <trkpt lat="46.00861" lon="5.84737">
        <ele>374</ele>
        <time>2022-09-26T12:58:41Z</time>
      </trkpt>
      <trkpt lat="46.00863" lon="5.8474">
        <ele>374.2</ele>
        <time>2022-09-26T12:58:42Z</time>
      </trkpt>
      <trkpt lat="46.00863" lon="5.84741">
        <ele>374.3</ele>
        <time>2022-09-26T12:58:43Z</time>
      </trkpt>
      <trkpt lat="46.00865" lon="5.84744">
        <ele>374.5</ele>
        <time>2022-09-26T12:58:44Z</time>
      </trkpt>
      <trkpt lat="46.00865" lon="5.84745">
        <ele>374.5</ele>
        <time>2022-09-26T12:58:45Z</time>
      </trkpt>
      <trkpt lat="46.00867" lon="5.84749">
        <ele>374.7</ele>
        <time>2022-09-26T12:58:46Z</time>
      </trkpt>
      <trkpt lat="46.00868" lon="5.84751">
        <ele>374.9</ele>
        <time>2022-09-26T12:58:47Z</time>
      </trkpt>
      <trkpt lat="46.00868" lon="5.84753">
        <ele>375</ele>
        <time>2022-09-26T12:58:48Z</time>
      </trkpt>
      <trkpt lat="46.00869" lon="5.84755">
        <ele>375.1</ele>
        <time>2022-09-26T12:58:49Z</time>
      </trkpt>
      <trkpt lat="46.0087" lon="5.84757">
        <ele>375.2</ele>
        <time>2022-09-26T12:58:50Z</time>
      </trkpt>
      <trkpt lat="46.00871" lon="5.84758">
        <ele>375.3</ele>
        <time>2022-09-26T12:58:51Z</time>
      </trkpt>
      <trkpt lat="46.00872" lon="5.84761">
        <ele>375.4</ele>
        <time>2022-09-26T12:58:52Z</time>
      </trkpt>
      <trkpt lat="46.00872" lon="5.84763">
        <ele>375.6</ele>
        <time>2022-09-26T12:58:53Z</time>
      </trkpt>
      <trkpt lat="46.00873" lon="5.84765">
        <ele>375.7</ele>
        <time>2022-09-26T12:58:54Z</time>
      </trkpt>
      <trkpt lat="46.00874" lon="5.84769">
        <ele>375.9</ele>
        <time>2022-09-26T12:58:55Z</time>
      </trkpt>
      <trkpt lat="46.00874" lon="5.8477">
        <ele>376</ele>
        <time>2022-09-26T12:58:56Z</time>
      </trkpt>
      <trkpt lat="46.00874" lon="5.84773">
        <ele>376.1</ele>
        <time>2022-09-26T12:58:57Z</time>
      </trkpt>
      <trkpt lat="46.00875" lon="5.84775">
        <ele>376.2</ele>
        <time>2022-09-26T12:58:58Z</time>
      </trkpt>
      <trkpt lat="46.00875" lon="5.84777">
        <ele>376.4</ele>
        <time>2022-09-26T12:58:59Z</time>
      </trkpt>
      <trkpt lat="46.00876" lon="5.84779">
        <ele>376.5</ele>
        <time>2022-09-26T12:59:00Z</time>
      </trkpt>
      <trkpt lat="46.00877" lon="5.84782">
        <ele>376.6</ele>
        <time>2022-09-26T12:59:01Z</time>
      </trkpt>
      <trkpt lat="46.00879" lon="5.84786">
        <ele>376.9</ele>
        <time>2022-09-26T12:59:02Z</time>
      </trkpt>
      <trkpt lat="46.00879" lon="5.84788">
        <ele>377</ele>
        <time>2022-09-26T12:59:03Z</time>
      </trkpt>
      <trkpt lat="46.00881" lon="5.8479">
        <ele>377.2</ele>
        <time>2022-09-26T12:59:04Z</time>
      </trkpt>
      <trkpt lat="46.00882" lon="5.84791">
        <ele>377.3</ele>
        <time>2022-09-26T12:59:05Z</time>
      </trkpt>
      <trkpt lat="46.00883" lon="5.84793">
        <ele>377.4</ele>
        <time>2022-09-26T12:59:06Z</time>
      </trkpt>
      <trkpt lat="46.00884" lon="5.84794">
        <ele>377.6</ele>
        <time>2022-09-26T12:59:07Z</time>
      </trkpt>
      <trkpt lat="46.00886" lon="5.84796">
        <ele>377.7</ele>
        <time>2022-09-26T12:59:08Z</time>
      </trkpt>
      <trkpt lat="46.00887" lon="5.84797">
        <ele>377.8</ele>
        <time>2022-09-26T12:59:09Z</time>
      </trkpt>
      <trkpt lat="46.00888" lon="5.84798">
        <ele>378</ele>
        <time>2022-09-26T12:59:10Z</time>
      </trkpt>
      <trkpt lat="46.0089" lon="5.84799">
        <ele>378.1</ele>
        <time>2022-09-26T12:59:11Z</time>
      </trkpt>
      <trkpt lat="46.00892" lon="5.84799">
        <ele>378.3</ele>
        <time>2022-09-26T12:59:12Z</time>
      </trkpt>
      <trkpt lat="46.00893" lon="5.84799">
        <ele>378.4</ele>
        <time>2022-09-26T12:59:13Z</time>
      </trkpt>
      <trkpt lat="46.00895" lon="5.84799">
        <ele>378.6</ele>
        <time>2022-09-26T12:59:14Z</time>
      </trkpt>
      <trkpt lat="46.00896" lon="5.84798">
        <ele>378.7</ele>
        <time>2022-09-26T12:59:15Z</time>
      </trkpt>
      <trkpt lat="46.00898" lon="5.84798">
        <ele>378.9</ele>
        <time>2022-09-26T12:59:16Z</time>
      </trkpt>
      <trkpt lat="46.009" lon="5.84797">
        <ele>379</ele>
        <time>2022-09-26T12:59:17Z</time>
      </trkpt>
      <trkpt lat="46.00901" lon="5.84796">
        <ele>379.1</ele>
        <time>2022-09-26T12:59:18Z</time>
      </trkpt>
      <trkpt lat="46.00903" lon="5.84795">
        <ele>379.3</ele>
        <time>2022-09-26T12:59:19Z</time>
      </trkpt>
      <trkpt lat="46.00904" lon="5.84794">
        <ele>379.4</ele>
        <time>2022-09-26T12:59:20Z</time>
      </trkpt>
      <trkpt lat="46.00905" lon="5.84793">
        <ele>379.5</ele>
        <time>2022-09-26T12:59:21Z</time>
      </trkpt>
      <trkpt lat="46.00906" lon="5.84792">
        <ele>379.6</ele>
        <time>2022-09-26T12:59:22Z</time>
      </trkpt>
      <trkpt lat="46.00907" lon="5.84791">
        <ele>379.7</ele>
        <time>2022-09-26T12:59:23Z</time>
      </trkpt>
      <trkpt lat="46.00907" lon="5.84791">
        <ele>379.8</ele>
        <time>2022-09-26T12:59:24Z</time>
      </trkpt>
      <trkpt lat="46.00908" lon="5.8479">
        <ele>379.9</ele>
        <time>2022-09-26T12:59:25Z</time>
      </trkpt>
      <trkpt lat="46.00909" lon="5.84788">
        <ele>380</ele>
        <time>2022-09-26T12:59:26Z</time>
      </trkpt>
      <trkpt lat="46.00909" lon="5.84786">
        <ele>380.1</ele>
        <time>2022-09-26T12:59:27Z</time>
      </trkpt>
      <trkpt lat="46.0091" lon="5.84785">
        <ele>380.2</ele>
        <time>2022-09-26T12:59:28Z</time>
      </trkpt>
      <trkpt lat="46.00911" lon="5.84783">
        <ele>380.3</ele>
        <time>2022-09-26T12:59:29Z</time>
      </trkpt>
      <trkpt lat="46.0091" lon="5.84782">
        <ele>380.3</ele>
        <time>2022-09-26T12:59:30Z</time>
      </trkpt>
      <trkpt lat="46.0091" lon="5.8478">
        <ele>380.4</ele>
        <time>2022-09-26T12:59:31Z</time>
      </trkpt>
      <trkpt lat="46.0091" lon="5.84777">
        <ele>380.5</ele>
        <time>2022-09-26T12:59:32Z</time>
      </trkpt>
      <trkpt lat="46.00909" lon="5.84774">
        <ele>380.7</ele>
        <time>2022-09-26T12:59:33Z</time>
      </trkpt>
      <trkpt lat="46.00909" lon="5.84773">
        <ele>380.8</ele>
        <time>2022-09-26T12:59:34Z</time>
      </trkpt>
      <trkpt lat="46.00909" lon="5.84771">
        <ele>380.8</ele>
        <time>2022-09-26T12:59:35Z</time>
      </trkpt>
      <trkpt lat="46.00909" lon="5.84769">
        <ele>380.9</ele>
        <time>2022-09-26T12:59:36Z</time>
      </trkpt>
      <trkpt lat="46.00908" lon="5.84767">
        <ele>381</ele>
        <time>2022-09-26T12:59:37Z</time>
      </trkpt>
      <trkpt lat="46.00908" lon="5.84763">
        <ele>381.2</ele>
        <time>2022-09-26T12:59:38Z</time>
      </trkpt>
      <trkpt lat="46.00908" lon="5.84761">
        <ele>381.3</ele>
        <time>2022-09-26T12:59:39Z</time>
      </trkpt>
      <trkpt lat="46.00908" lon="5.84759">
        <ele>381.4</ele>
        <time>2022-09-26T12:59:40Z</time>
      </trkpt>
      <trkpt lat="46.00908" lon="5.84757">
        <ele>381.5</ele>
        <time>2022-09-26T12:59:41Z</time>
      </trkpt>
      <trkpt lat="46.00908" lon="5.84754">
        <ele>381.6</ele>
        <time>2022-09-26T12:59:42Z</time>
      </trkpt>
      <trkpt lat="46.00908" lon="5.84752">
        <ele>381.7</ele>
        <time>2022-09-26T12:59:43Z</time>
      </trkpt>
      <trkpt lat="46.00907" lon="5.84748">
        <ele>381.9</ele>
        <time>2022-09-26T12:59:44Z</time>
      </trkpt>
      <trkpt lat="46.00907" lon="5.84747">
        <ele>381.9</ele>
        <time>2022-09-26T12:59:45Z</time>
      </trkpt>
      <trkpt lat="46.00906" lon="5.84745">
        <ele>382</ele>
        <time>2022-09-26T12:59:46Z</time>
      </trkpt>
      <trkpt lat="46.00906" lon="5.84742">
        <ele>382.1</ele>
        <time>2022-09-26T12:59:47Z</time>
      </trkpt>
      <trkpt lat="46.00906" lon="5.8474">
        <ele>382.2</ele>
        <time>2022-09-26T12:59:48Z</time>
      </trkpt>
      <trkpt lat="46.00905" lon="5.84738">
        <ele>382.3</ele>
        <time>2022-09-26T12:59:49Z</time>
      </trkpt>
      <trkpt lat="46.00905" lon="5.84736">
        <ele>382.4</ele>
        <time>2022-09-26T12:59:50Z</time>
      </trkpt>
      <trkpt lat="46.00905" lon="5.84734">
        <ele>382.5</ele>
        <time>2022-09-26T12:59:51Z</time>
      </trkpt>
      <trkpt lat="46.00904" lon="5.84731">
        <ele>382.6</ele>
        <time>2022-09-26T12:59:52Z</time>
      </trkpt>
      <trkpt lat="46.00903" lon="5.84729">
        <ele>382.7</ele>
        <time>2022-09-26T12:59:53Z</time>
      </trkpt>
      <trkpt lat="46.00902" lon="5.84727">
        <ele>382.8</ele>
        <time>2022-09-26T12:59:54Z</time>
      </trkpt>
      <trkpt lat="46.00902" lon="5.84724">
        <ele>383</ele>
        <time>2022-09-26T12:59:55Z</time>
      </trkpt>
      <trkpt lat="46.00902" lon="5.84722">
        <ele>383</ele>
        <time>2022-09-26T12:59:56Z</time>
      </trkpt>
      <trkpt lat="46.00902" lon="5.8472">
        <ele>383.1</ele>
        <time>2022-09-26T12:59:57Z</time>
      </trkpt>
      <trkpt lat="46.00902" lon="5.84717">
        <ele>383.2</ele>
        <time>2022-09-26T12:59:59Z</time>
      </trkpt>
      <trkpt lat="46.00901" lon="5.84716">
        <ele>383.3</ele>
        <time>2022-09-26T13:00:00Z</time>
      </trkpt>
      <trkpt lat="46.00901" lon="5.84714">
        <ele>383.4</ele>
        <time>2022-09-26T13:00:01Z</time>
      </trkpt>
      <trkpt lat="46.00901" lon="5.84711">
        <ele>383.5</ele>
        <time>2022-09-26T13:00:02Z</time>
      </trkpt>
      <trkpt lat="46.00901" lon="5.8471">
        <ele>383.6</ele>
        <time>2022-09-26T13:00:03Z</time>
      </trkpt>
      <trkpt lat="46.009" lon="5.84707">
        <ele>383.7</ele>
        <time>2022-09-26T13:00:04Z</time>
      </trkpt>
      <trkpt lat="46.009" lon="5.84706">
        <ele>383.7</ele>
        <time>2022-09-26T13:00:05Z</time>
      </trkpt>
      <trkpt lat="46.009" lon="5.84702">
        <ele>383.9</ele>
        <time>2022-09-26T13:00:06Z</time>
      </trkpt>
      <trkpt lat="46.00899" lon="5.84701">
        <ele>383.9</ele>
        <time>2022-09-26T13:00:07Z</time>
      </trkpt>
      <trkpt lat="46.00899" lon="5.84698">
        <ele>384.1</ele>
        <time>2022-09-26T13:00:08Z</time>
      </trkpt>
      <trkpt lat="46.00899" lon="5.84697">
        <ele>384.1</ele>
        <time>2022-09-26T13:00:09Z</time>
      </trkpt>
      <trkpt lat="46.00898" lon="5.84693">
        <ele>384.3</ele>
        <time>2022-09-26T13:00:10Z</time>
      </trkpt>
      <trkpt lat="46.00898" lon="5.84692">
        <ele>384.3</ele>
        <time>2022-09-26T13:00:11Z</time>
      </trkpt>
      <trkpt lat="46.00898" lon="5.84688">
        <ele>384.5</ele>
        <time>2022-09-26T13:00:12Z</time>
      </trkpt>
      <trkpt lat="46.00898" lon="5.84687">
        <ele>384.5</ele>
        <time>2022-09-26T13:00:13Z</time>
      </trkpt>
      <trkpt lat="46.00897" lon="5.84684">
        <ele>384.7</ele>
        <time>2022-09-26T13:00:14Z</time>
      </trkpt>
      <trkpt lat="46.00897" lon="5.84682">
        <ele>384.7</ele>
        <time>2022-09-26T13:00:15Z</time>
      </trkpt>
      <trkpt lat="46.00896" lon="5.84679">
        <ele>384.9</ele>
        <time>2022-09-26T13:00:16Z</time>
      </trkpt>
      <trkpt lat="46.00896" lon="5.84678">
        <ele>384.9</ele>
        <time>2022-09-26T13:00:17Z</time>
      </trkpt>
      <trkpt lat="46.00896" lon="5.84675">
        <ele>385</ele>
        <time>2022-09-26T13:00:18Z</time>
      </trkpt>
      <trkpt lat="46.00895" lon="5.84673">
        <ele>385.1</ele>
        <time>2022-09-26T13:00:19Z</time>
      </trkpt>
      <trkpt lat="46.00895" lon="5.8467">
        <ele>385.2</ele>
        <time>2022-09-26T13:00:20Z</time>
      </trkpt>
      <trkpt lat="46.00895" lon="5.84669">
        <ele>385.3</ele>
        <time>2022-09-26T13:00:21Z</time>
      </trkpt>
      <trkpt lat="46.00894" lon="5.84665">
        <ele>385.4</ele>
        <time>2022-09-26T13:00:22Z</time>
      </trkpt>
      <trkpt lat="46.00894" lon="5.84664">
        <ele>385.5</ele>
        <time>2022-09-26T13:00:23Z</time>
      </trkpt>
      <trkpt lat="46.00893" lon="5.8466">
        <ele>385.6</ele>
        <time>2022-09-26T13:00:24Z</time>
      </trkpt>
      <trkpt lat="46.00893" lon="5.84659">
        <ele>385.7</ele>
        <time>2022-09-26T13:00:25Z</time>
      </trkpt>
      <trkpt lat="46.00893" lon="5.84656">
        <ele>385.9</ele>
        <time>2022-09-26T13:00:26Z</time>
      </trkpt>
      <trkpt lat="46.00893" lon="5.84654">
        <ele>385.9</ele>
        <time>2022-09-26T13:00:27Z</time>
      </trkpt>
      <trkpt lat="46.00892" lon="5.84651">
        <ele>386.1</ele>
        <time>2022-09-26T13:00:28Z</time>
      </trkpt>
      <trkpt lat="46.00892" lon="5.84648">
        <ele>386.3</ele>
        <time>2022-09-26T13:00:29Z</time>
      </trkpt>
      <trkpt lat="46.00891" lon="5.84646">
        <ele>386.4</ele>
        <time>2022-09-26T13:00:30Z</time>
      </trkpt>
      <trkpt lat="46.00891" lon="5.84645">
        <ele>386.5</ele>
        <time>2022-09-26T13:00:31Z</time>
      </trkpt>
      <trkpt lat="46.00891" lon="5.84641">
        <ele>386.7</ele>
        <time>2022-09-26T13:00:32Z</time>
      </trkpt>
      <trkpt lat="46.0089" lon="5.8464">
        <ele>386.8</ele>
        <time>2022-09-26T13:00:33Z</time>
      </trkpt>
      <trkpt lat="46.0089" lon="5.84637">
        <ele>386.9</ele>
        <time>2022-09-26T13:00:34Z</time>
      </trkpt>
      <trkpt lat="46.00889" lon="5.84635">
        <ele>387</ele>
        <time>2022-09-26T13:00:35Z</time>
      </trkpt>
      <trkpt lat="46.00889" lon="5.84632">
        <ele>387.2</ele>
        <time>2022-09-26T13:00:36Z</time>
      </trkpt>
      <trkpt lat="46.00889" lon="5.8463">
        <ele>387.3</ele>
        <time>2022-09-26T13:00:37Z</time>
      </trkpt>
      <trkpt lat="46.00888" lon="5.84628">
        <ele>387.4</ele>
        <time>2022-09-26T13:00:38Z</time>
      </trkpt>
      <trkpt lat="46.00888" lon="5.84625">
        <ele>387.6</ele>
        <time>2022-09-26T13:00:39Z</time>
      </trkpt>
      <trkpt lat="46.00888" lon="5.84623">
        <ele>387.6</ele>
        <time>2022-09-26T13:00:40Z</time>
      </trkpt>
      <trkpt lat="46.00888" lon="5.84619">
        <ele>387.9</ele>
        <time>2022-09-26T13:00:41Z</time>
      </trkpt>
      <trkpt lat="46.00887" lon="5.84617">
        <ele>388</ele>
        <time>2022-09-26T13:00:42Z</time>
      </trkpt>
      <trkpt lat="46.00887" lon="5.84613">
        <ele>388.2</ele>
        <time>2022-09-26T13:00:43Z</time>
      </trkpt>
      <trkpt lat="46.00887" lon="5.84612">
        <ele>388.2</ele>
        <time>2022-09-26T13:00:44Z</time>
      </trkpt>
      <trkpt lat="46.00887" lon="5.84609">
        <ele>388.4</ele>
        <time>2022-09-26T13:00:45Z</time>
      </trkpt>
      <trkpt lat="46.00886" lon="5.84607">
        <ele>388.5</ele>
        <time>2022-09-26T13:00:46Z</time>
      </trkpt>
      <trkpt lat="46.00885" lon="5.84605">
        <ele>388.6</ele>
        <time>2022-09-26T13:00:47Z</time>
      </trkpt>
      <trkpt lat="46.00885" lon="5.84602">
        <ele>388.8</ele>
        <time>2022-09-26T13:00:48Z</time>
      </trkpt>
      <trkpt lat="46.00885" lon="5.84598">
        <ele>389</ele>
        <time>2022-09-26T13:00:49Z</time>
      </trkpt>
      <trkpt lat="46.00885" lon="5.84597">
        <ele>389</ele>
        <time>2022-09-26T13:00:50Z</time>
      </trkpt>
      <trkpt lat="46.00884" lon="5.84595">
        <ele>389.2</ele>
        <time>2022-09-26T13:00:51Z</time>
      </trkpt>
      <trkpt lat="46.00882" lon="5.84593">
        <ele>389.3</ele>
        <time>2022-09-26T13:00:52Z</time>
      </trkpt>
      <trkpt lat="46.00882" lon="5.84591">
        <ele>389.4</ele>
        <time>2022-09-26T13:00:53Z</time>
      </trkpt>
      <trkpt lat="46.00881" lon="5.84589">
        <ele>389.5</ele>
        <time>2022-09-26T13:00:54Z</time>
      </trkpt>
      <trkpt lat="46.00882" lon="5.84586">
        <ele>389.7</ele>
        <time>2022-09-26T13:00:55Z</time>
      </trkpt>
      <trkpt lat="46.00882" lon="5.84584">
        <ele>389.8</ele>
        <time>2022-09-26T13:00:56Z</time>
      </trkpt>
      <trkpt lat="46.00883" lon="5.84583">
        <ele>389.9</ele>
        <time>2022-09-26T13:00:57Z</time>
      </trkpt>
      <trkpt lat="46.00883" lon="5.84581">
        <ele>390</ele>
        <time>2022-09-26T13:00:58Z</time>
      </trkpt>
      <trkpt lat="46.00884" lon="5.8458">
        <ele>390</ele>
        <time>2022-09-26T13:00:59Z</time>
      </trkpt>
      <trkpt lat="46.00885" lon="5.84578">
        <ele>390.1</ele>
        <time>2022-09-26T13:01:00Z</time>
      </trkpt>
      <trkpt lat="46.00885" lon="5.84577">
        <ele>390.2</ele>
        <time>2022-09-26T13:01:01Z</time>
      </trkpt>
      <trkpt lat="46.00886" lon="5.84575">
        <ele>390.3</ele>
        <time>2022-09-26T13:01:02Z</time>
      </trkpt>
      <trkpt lat="46.00886" lon="5.84574">
        <ele>390.4</ele>
        <time>2022-09-26T13:01:03Z</time>
      </trkpt>
      <trkpt lat="46.00887" lon="5.84572">
        <ele>390.5</ele>
        <time>2022-09-26T13:01:04Z</time>
      </trkpt>
      <trkpt lat="46.00887" lon="5.8457">
        <ele>390.6</ele>
        <time>2022-09-26T13:02:53Z</time>
      </trkpt>
      <trkpt lat="46.00888" lon="5.84569">
        <ele>390.7</ele>
        <time>2022-09-26T13:02:54Z</time>
      </trkpt>
      <trkpt lat="46.00888" lon="5.84567">
        <ele>390.8</ele>
        <time>2022-09-26T13:02:55Z</time>
      </trkpt>
      <trkpt lat="46.00888" lon="5.84566">
        <ele>390.9</ele>
        <time>2022-09-26T13:02:56Z</time>
      </trkpt>
      <trkpt lat="46.00888" lon="5.84564">
        <ele>391</ele>
        <time>2022-09-26T13:02:57Z</time>
      </trkpt>
      <trkpt lat="46.00888" lon="5.84562">
        <ele>391.1</ele>
        <time>2022-09-26T13:02:58Z</time>
      </trkpt>
      <trkpt lat="46.00888" lon="5.84558">
        <ele>391.4</ele>
        <time>2022-09-26T13:02:59Z</time>
      </trkpt>
      <trkpt lat="46.00888" lon="5.84556">
        <ele>391.5</ele>
        <time>2022-09-26T13:03:00Z</time>
      </trkpt>
      <trkpt lat="46.00888" lon="5.84554">
        <ele>391.6</ele>
        <time>2022-09-26T13:03:01Z</time>
      </trkpt>
      <trkpt lat="46.00888" lon="5.84553">
        <ele>391.7</ele>
        <time>2022-09-26T13:03:02Z</time>
      </trkpt>
      <trkpt lat="46.00889" lon="5.84552">
        <ele>391.8</ele>
        <time>2022-09-26T13:03:03Z</time>
      </trkpt>
      <trkpt lat="46.00889" lon="5.84547">
        <ele>392</ele>
        <time>2022-09-26T13:03:04Z</time>
      </trkpt>
      <trkpt lat="46.0089" lon="5.84546">
        <ele>392.1</ele>
        <time>2022-09-26T13:03:05Z</time>
      </trkpt>
      <trkpt lat="46.0089" lon="5.84544">
        <ele>392.2</ele>
        <time>2022-09-26T13:03:06Z</time>
      </trkpt>
      <trkpt lat="46.0089" lon="5.84542">
        <ele>392.3</ele>
        <time>2022-09-26T13:03:07Z</time>
      </trkpt>
      <trkpt lat="46.00889" lon="5.8454">
        <ele>392.4</ele>
        <time>2022-09-26T13:03:08Z</time>
      </trkpt>
      <trkpt lat="46.0089" lon="5.84538">
        <ele>392.5</ele>
        <time>2022-09-26T13:03:09Z</time>
      </trkpt>
      <trkpt lat="46.0089" lon="5.84535">
        <ele>392.7</ele>
        <time>2022-09-26T13:03:10Z</time>
      </trkpt>
      <trkpt lat="46.0089" lon="5.84534">
        <ele>392.7</ele>
        <time>2022-09-26T13:03:11Z</time>
      </trkpt>
      <trkpt lat="46.0089" lon="5.84533">
        <ele>392.8</ele>
        <time>2022-09-26T13:03:12Z</time>
      </trkpt>
      <trkpt lat="46.0089" lon="5.84529">
        <ele>393</ele>
        <time>2022-09-26T13:03:13Z</time>
      </trkpt>
      <trkpt lat="46.0089" lon="5.84528">
        <ele>393</ele>
        <time>2022-09-26T13:03:14Z</time>
      </trkpt>
      <trkpt lat="46.00891" lon="5.84528">
        <ele>393.1</ele>
        <time>2022-09-26T13:03:15Z</time>
      </trkpt>
      <trkpt lat="46.00891" lon="5.84525">
        <ele>393.2</ele>
        <time>2022-09-26T13:03:16Z</time>
      </trkpt>
      <trkpt lat="46.00891" lon="5.84523">
        <ele>393.3</ele>
        <time>2022-09-26T13:03:17Z</time>
      </trkpt>
      <trkpt lat="46.00891" lon="5.84521">
        <ele>393.4</ele>
        <time>2022-09-26T13:03:18Z</time>
      </trkpt>
      <trkpt lat="46.00892" lon="5.84519">
        <ele>393.5</ele>
        <time>2022-09-26T13:03:19Z</time>
      </trkpt>
      <trkpt lat="46.00892" lon="5.84516">
        <ele>393.7</ele>
        <time>2022-09-26T13:03:20Z</time>
      </trkpt>
      <trkpt lat="46.00893" lon="5.84514">
        <ele>393.8</ele>
        <time>2022-09-26T13:03:21Z</time>
      </trkpt>
      <trkpt lat="46.00893" lon="5.84512">
        <ele>393.9</ele>
        <time>2022-09-26T13:03:22Z</time>
      </trkpt>
      <trkpt lat="46.00893" lon="5.84509">
        <ele>394</ele>
        <time>2022-09-26T13:03:23Z</time>
      </trkpt>
      <trkpt lat="46.00893" lon="5.84506">
        <ele>394.2</ele>
        <time>2022-09-26T13:03:24Z</time>
      </trkpt>
      <trkpt lat="46.00893" lon="5.84504">
        <ele>394.3</ele>
        <time>2022-09-26T13:03:25Z</time>
      </trkpt>
      <trkpt lat="46.00893" lon="5.84502">
        <ele>394.4</ele>
        <time>2022-09-26T13:03:26Z</time>
      </trkpt>
      <trkpt lat="46.00893" lon="5.84499">
        <ele>394.5</ele>
        <time>2022-09-26T13:03:27Z</time>
      </trkpt>
      <trkpt lat="46.00894" lon="5.84496">
        <ele>394.7</ele>
        <time>2022-09-26T13:03:28Z</time>
      </trkpt>
      <trkpt lat="46.00894" lon="5.84494">
        <ele>394.7</ele>
        <time>2022-09-26T13:03:29Z</time>
      </trkpt>
      <trkpt lat="46.00894" lon="5.84492">
        <ele>394.9</ele>
        <time>2022-09-26T13:03:30Z</time>
      </trkpt>
      <trkpt lat="46.00894" lon="5.84489">
        <ele>395</ele>
        <time>2022-09-26T13:03:31Z</time>
      </trkpt>
      <trkpt lat="46.00894" lon="5.84487">
        <ele>395.1</ele>
        <time>2022-09-26T13:03:32Z</time>
      </trkpt>
      <trkpt lat="46.00895" lon="5.84485">
        <ele>395.2</ele>
        <time>2022-09-26T13:03:33Z</time>
      </trkpt>
      <trkpt lat="46.00894" lon="5.84483">
        <ele>395.3</ele>
        <time>2022-09-26T13:03:34Z</time>
      </trkpt>
      <trkpt lat="46.00895" lon="5.84481">
        <ele>395.4</ele>
        <time>2022-09-26T13:03:35Z</time>
      </trkpt>
      <trkpt lat="46.00895" lon="5.84478">
        <ele>395.5</ele>
        <time>2022-09-26T13:03:36Z</time>
      </trkpt>
      <trkpt lat="46.00896" lon="5.84476">
        <ele>395.6</ele>
        <time>2022-09-26T13:03:37Z</time>
      </trkpt>
      <trkpt lat="46.00896" lon="5.84474">
        <ele>395.7</ele>
        <time>2022-09-26T13:03:38Z</time>
      </trkpt>
      <trkpt lat="46.00896" lon="5.84471">
        <ele>395.9</ele>
        <time>2022-09-26T13:03:39Z</time>
      </trkpt>
      <trkpt lat="46.00896" lon="5.84469">
        <ele>396</ele>
        <time>2022-09-26T13:03:40Z</time>
      </trkpt>
      <trkpt lat="46.00896" lon="5.84466">
        <ele>396.1</ele>
        <time>2022-09-26T13:03:41Z</time>
      </trkpt>
      <trkpt lat="46.00897" lon="5.84463">
        <ele>396.3</ele>
        <time>2022-09-26T13:03:42Z</time>
      </trkpt>
      <trkpt lat="46.00897" lon="5.84461">
        <ele>396.4</ele>
        <time>2022-09-26T13:03:43Z</time>
      </trkpt>
      <trkpt lat="46.00897" lon="5.84459">
        <ele>396.5</ele>
        <time>2022-09-26T13:03:44Z</time>
      </trkpt>
      <trkpt lat="46.00897" lon="5.84456">
        <ele>396.6</ele>
        <time>2022-09-26T13:03:45Z</time>
      </trkpt>
      <trkpt lat="46.00898" lon="5.84455">
        <ele>396.7</ele>
        <time>2022-09-26T13:03:46Z</time>
      </trkpt>
      <trkpt lat="46.00898" lon="5.84452">
        <ele>396.9</ele>
        <time>2022-09-26T13:03:47Z</time>
      </trkpt>
      <trkpt lat="46.00897" lon="5.8445">
        <ele>397</ele>
        <time>2022-09-26T13:03:48Z</time>
      </trkpt>
      <trkpt lat="46.00897" lon="5.84448">
        <ele>397.1</ele>
        <time>2022-09-26T13:03:49Z</time>
      </trkpt>
      <trkpt lat="46.00897" lon="5.84445">
        <ele>397.2</ele>
        <time>2022-09-26T13:03:50Z</time>
      </trkpt>
      <trkpt lat="46.00897" lon="5.84443">
        <ele>397.3</ele>
        <time>2022-09-26T13:03:51Z</time>
      </trkpt>
      <trkpt lat="46.00896" lon="5.84441">
        <ele>397.4</ele>
        <time>2022-09-26T13:03:52Z</time>
      </trkpt>
      <trkpt lat="46.00897" lon="5.84439">
        <ele>397.5</ele>
        <time>2022-09-26T13:03:53Z</time>
      </trkpt>
      <trkpt lat="46.00897" lon="5.84435">
        <ele>397.7</ele>
        <time>2022-09-26T13:03:54Z</time>
      </trkpt>
      <trkpt lat="46.00896" lon="5.84433">
        <ele>397.8</ele>
        <time>2022-09-26T13:03:55Z</time>
      </trkpt>
      <trkpt lat="46.00896" lon="5.84431">
        <ele>397.9</ele>
        <time>2022-09-26T13:03:56Z</time>
      </trkpt>
      <trkpt lat="46.00896" lon="5.84429">
        <ele>398</ele>
        <time>2022-09-26T13:03:57Z</time>
      </trkpt>
      <trkpt lat="46.00896" lon="5.84427">
        <ele>398.1</ele>
        <time>2022-09-26T13:03:58Z</time>
      </trkpt>
      <trkpt lat="46.00897" lon="5.84424">
        <ele>398.2</ele>
        <time>2022-09-26T13:03:59Z</time>
      </trkpt>
      <trkpt lat="46.00897" lon="5.84421">
        <ele>398.4</ele>
        <time>2022-09-26T13:04:00Z</time>
      </trkpt>
      <trkpt lat="46.00897" lon="5.84419">
        <ele>398.5</ele>
        <time>2022-09-26T13:04:01Z</time>
      </trkpt>
      <trkpt lat="46.00897" lon="5.84417">
        <ele>398.6</ele>
        <time>2022-09-26T13:04:02Z</time>
      </trkpt>
      <trkpt lat="46.00897" lon="5.84415">
        <ele>398.7</ele>
        <time>2022-09-26T13:04:03Z</time>
      </trkpt>
      <trkpt lat="46.00897" lon="5.84412">
        <ele>398.9</ele>
        <time>2022-09-26T13:04:04Z</time>
      </trkpt>
      <trkpt lat="46.00897" lon="5.8441">
        <ele>399</ele>
        <time>2022-09-26T13:04:05Z</time>
      </trkpt>
      <trkpt lat="46.00896" lon="5.84408">
        <ele>399.1</ele>
        <time>2022-09-26T13:04:06Z</time>
      </trkpt>
      <trkpt lat="46.00896" lon="5.84405">
        <ele>399.2</ele>
        <time>2022-09-26T13:04:07Z</time>
      </trkpt>
      <trkpt lat="46.00896" lon="5.84401">
        <ele>399.4</ele>
        <time>2022-09-26T13:04:08Z</time>
      </trkpt>
      <trkpt lat="46.00896" lon="5.84399">
        <ele>399.5</ele>
        <time>2022-09-26T13:04:09Z</time>
      </trkpt>
      <trkpt lat="46.00896" lon="5.84396">
        <ele>399.7</ele>
        <time>2022-09-26T13:04:11Z</time>
      </trkpt>
      <trkpt lat="46.00896" lon="5.84394">
        <ele>399.7</ele>
        <time>2022-09-26T13:04:12Z</time>
      </trkpt>
      <trkpt lat="46.00896" lon="5.84392">
        <ele>399.9</ele>
        <time>2022-09-26T13:04:13Z</time>
      </trkpt>
      <trkpt lat="46.00896" lon="5.84389">
        <ele>400</ele>
        <time>2022-09-26T13:04:14Z</time>
      </trkpt>
      <trkpt lat="46.00896" lon="5.84385">
        <ele>400.2</ele>
        <time>2022-09-26T13:04:15Z</time>
      </trkpt>
      <trkpt lat="46.00896" lon="5.84384">
        <ele>400.3</ele>
        <time>2022-09-26T13:04:16Z</time>
      </trkpt>
      <trkpt lat="46.00896" lon="5.84381">
        <ele>400.4</ele>
        <time>2022-09-26T13:04:17Z</time>
      </trkpt>
      <trkpt lat="46.00896" lon="5.84379">
        <ele>400.5</ele>
        <time>2022-09-26T13:04:18Z</time>
      </trkpt>
      <trkpt lat="46.00895" lon="5.84375">
        <ele>400.7</ele>
        <time>2022-09-26T13:04:19Z</time>
      </trkpt>
      <trkpt lat="46.00895" lon="5.84373">
        <ele>400.8</ele>
        <time>2022-09-26T13:04:20Z</time>
      </trkpt>
      <trkpt lat="46.00894" lon="5.84369">
        <ele>401</ele>
        <time>2022-09-26T13:04:21Z</time>
      </trkpt>
      <trkpt lat="46.00894" lon="5.84368">
        <ele>401.1</ele>
        <time>2022-09-26T13:04:22Z</time>
      </trkpt>
      <trkpt lat="46.00894" lon="5.84364">
        <ele>401.3</ele>
        <time>2022-09-26T13:04:23Z</time>
      </trkpt>
      <trkpt lat="46.00894" lon="5.84363">
        <ele>401.3</ele>
        <time>2022-09-26T13:04:24Z</time>
      </trkpt>
      <trkpt lat="46.00894" lon="5.8436">
        <ele>401.5</ele>
        <time>2022-09-26T13:04:25Z</time>
      </trkpt>
      <trkpt lat="46.00894" lon="5.84358">
        <ele>401.6</ele>
        <time>2022-09-26T13:04:26Z</time>
      </trkpt>
      <trkpt lat="46.00893" lon="5.84354">
        <ele>401.8</ele>
        <time>2022-09-26T13:04:27Z</time>
      </trkpt>
      <trkpt lat="46.00893" lon="5.84353">
        <ele>401.9</ele>
        <time>2022-09-26T13:04:28Z</time>
      </trkpt>
      <trkpt lat="46.00893" lon="5.84349">
        <ele>402.1</ele>
        <time>2022-09-26T13:04:29Z</time>
      </trkpt>
      <trkpt lat="46.00892" lon="5.84347">
        <ele>402.1</ele>
        <time>2022-09-26T13:04:30Z</time>
      </trkpt>
      <trkpt lat="46.00892" lon="5.84345">
        <ele>402.3</ele>
        <time>2022-09-26T13:04:31Z</time>
      </trkpt>
      <trkpt lat="46.00892" lon="5.84343">
        <ele>402.4</ele>
        <time>2022-09-26T13:04:32Z</time>
      </trkpt>
      <trkpt lat="46.00891" lon="5.84339">
        <ele>402.6</ele>
        <time>2022-09-26T13:04:33Z</time>
      </trkpt>
      <trkpt lat="46.0089" lon="5.84337">
        <ele>402.7</ele>
        <time>2022-09-26T13:04:34Z</time>
      </trkpt>
      <trkpt lat="46.0089" lon="5.84335">
        <ele>402.8</ele>
        <time>2022-09-26T13:04:35Z</time>
      </trkpt>
      <trkpt lat="46.0089" lon="5.84333">
        <ele>402.9</ele>
        <time>2022-09-26T13:04:36Z</time>
      </trkpt>
      <trkpt lat="46.0089" lon="5.84329">
        <ele>403.1</ele>
        <time>2022-09-26T13:04:37Z</time>
      </trkpt>
      <trkpt lat="46.00888" lon="5.84328">
        <ele>403.2</ele>
        <time>2022-09-26T13:04:38Z</time>
      </trkpt>
      <trkpt lat="46.00887" lon="5.84327">
        <ele>403.4</ele>
        <time>2022-09-26T13:04:39Z</time>
      </trkpt>
      <trkpt lat="46.00886" lon="5.84326">
        <ele>403.4</ele>
        <time>2022-09-26T13:04:40Z</time>
      </trkpt>
      <trkpt lat="46.00886" lon="5.84323">
        <ele>403.6</ele>
        <time>2022-09-26T13:04:41Z</time>
      </trkpt>
      <trkpt lat="46.00885" lon="5.84321">
        <ele>403.7</ele>
        <time>2022-09-26T13:04:42Z</time>
      </trkpt>
      <trkpt lat="46.00884" lon="5.84319">
        <ele>403.8</ele>
        <time>2022-09-26T13:04:43Z</time>
      </trkpt>
      <trkpt lat="46.00883" lon="5.84318">
        <ele>403.9</ele>
        <time>2022-09-26T13:04:44Z</time>
      </trkpt>
      <trkpt lat="46.00882" lon="5.84317">
        <ele>404</ele>
        <time>2022-09-26T13:04:45Z</time>
      </trkpt>
      <trkpt lat="46.00881" lon="5.84314">
        <ele>404.2</ele>
        <time>2022-09-26T13:04:46Z</time>
      </trkpt>
      <trkpt lat="46.0088" lon="5.84313">
        <ele>404.3</ele>
        <time>2022-09-26T13:04:47Z</time>
      </trkpt>
      <trkpt lat="46.00879" lon="5.84311">
        <ele>404.4</ele>
        <time>2022-09-26T13:04:48Z</time>
      </trkpt>
      <trkpt lat="46.00878" lon="5.8431">
        <ele>404.5</ele>
        <time>2022-09-26T13:04:49Z</time>
      </trkpt>
      <trkpt lat="46.00877" lon="5.84308">
        <ele>404.6</ele>
        <time>2022-09-26T13:04:50Z</time>
      </trkpt>
      <trkpt lat="46.00876" lon="5.84306">
        <ele>404.8</ele>
        <time>2022-09-26T13:04:51Z</time>
      </trkpt>
      <trkpt lat="46.00875" lon="5.84304">
        <ele>404.9</ele>
        <time>2022-09-26T13:04:52Z</time>
      </trkpt>
      <trkpt lat="46.00875" lon="5.84302">
        <ele>405</ele>
        <time>2022-09-26T13:04:53Z</time>
      </trkpt>
      <trkpt lat="46.00874" lon="5.84301">
        <ele>405.1</ele>
        <time>2022-09-26T13:04:54Z</time>
      </trkpt>
      <trkpt lat="46.00872" lon="5.84299">
        <ele>405.3</ele>
        <time>2022-09-26T13:04:55Z</time>
      </trkpt>
      <trkpt lat="46.00872" lon="5.84298">
        <ele>405.4</ele>
        <time>2022-09-26T13:04:56Z</time>
      </trkpt>
      <trkpt lat="46.00871" lon="5.84295">
        <ele>405.5</ele>
        <time>2022-09-26T13:04:57Z</time>
      </trkpt>
      <trkpt lat="46.0087" lon="5.84293">
        <ele>405.7</ele>
        <time>2022-09-26T13:04:58Z</time>
      </trkpt>
      <trkpt lat="46.0087" lon="5.84292">
        <ele>405.8</ele>
        <time>2022-09-26T13:04:59Z</time>
      </trkpt>
      <trkpt lat="46.00869" lon="5.8429">
        <ele>405.9</ele>
        <time>2022-09-26T13:05:00Z</time>
      </trkpt>
      <trkpt lat="46.00868" lon="5.84288">
        <ele>406.1</ele>
        <time>2022-09-26T13:05:01Z</time>
      </trkpt>
      <trkpt lat="46.00868" lon="5.84287">
        <ele>406.2</ele>
        <time>2022-09-26T13:05:02Z</time>
      </trkpt>
      <trkpt lat="46.00865" lon="5.84281">
        <ele>406.6</ele>
        <time>2022-09-26T13:05:03Z</time>
      </trkpt>
      <trkpt lat="46.00864" lon="5.84277">
        <ele>406.8</ele>
        <time>2022-09-26T13:05:04Z</time>
      </trkpt>
      <trkpt lat="46.00863" lon="5.84276">
        <ele>406.9</ele>
        <time>2022-09-26T13:05:05Z</time>
      </trkpt>
      <trkpt lat="46.00861" lon="5.84273">
        <ele>407.1</ele>
        <time>2022-09-26T13:05:06Z</time>
      </trkpt>
      <trkpt lat="46.00861" lon="5.84272">
        <ele>407.2</ele>
        <time>2022-09-26T13:05:07Z</time>
      </trkpt>
      <trkpt lat="46.0086" lon="5.8427">
        <ele>407.4</ele>
        <time>2022-09-26T13:05:08Z</time>
      </trkpt>
      <trkpt lat="46.00859" lon="5.84269">
        <ele>407.5</ele>
        <time>2022-09-26T13:05:09Z</time>
      </trkpt>
      <trkpt lat="46.00858" lon="5.84267">
        <ele>407.6</ele>
        <time>2022-09-26T13:05:10Z</time>
      </trkpt>
      <trkpt lat="46.00858" lon="5.84265">
        <ele>407.7</ele>
        <time>2022-09-26T13:05:11Z</time>
      </trkpt>
      <trkpt lat="46.00856" lon="5.84262">
        <ele>408</ele>
        <time>2022-09-26T13:05:12Z</time>
      </trkpt>
      <trkpt lat="46.00855" lon="5.84261">
        <ele>408.1</ele>
        <time>2022-09-26T13:05:13Z</time>
      </trkpt>
      <trkpt lat="46.00855" lon="5.8426">
        <ele>408.1</ele>
        <time>2022-09-26T13:05:14Z</time>
      </trkpt>
      <trkpt lat="46.00853" lon="5.84257">
        <ele>408.4</ele>
        <time>2022-09-26T13:05:15Z</time>
      </trkpt>
      <trkpt lat="46.00853" lon="5.84256">
        <ele>408.4</ele>
        <time>2022-09-26T13:05:16Z</time>
      </trkpt>
      <trkpt lat="46.00851" lon="5.84254">
        <ele>408.7</ele>
        <time>2022-09-26T13:05:17Z</time>
      </trkpt>
      <trkpt lat="46.00851" lon="5.84252">
        <ele>408.8</ele>
        <time>2022-09-26T13:05:18Z</time>
      </trkpt>
      <trkpt lat="46.0085" lon="5.84249">
        <ele>409</ele>
        <time>2022-09-26T13:05:19Z</time>
      </trkpt>
      <trkpt lat="46.00849" lon="5.84247">
        <ele>409.2</ele>
        <time>2022-09-26T13:05:20Z</time>
      </trkpt>
      <trkpt lat="46.00848" lon="5.84246">
        <ele>409.3</ele>
        <time>2022-09-26T13:05:21Z</time>
      </trkpt>
      <trkpt lat="46.00847" lon="5.84245">
        <ele>409.4</ele>
        <time>2022-09-26T13:05:22Z</time>
      </trkpt>
      <trkpt lat="46.00847" lon="5.84242">
        <ele>409.6</ele>
        <time>2022-09-26T13:05:23Z</time>
      </trkpt>
      <trkpt lat="46.00847" lon="5.8424">
        <ele>409.7</ele>
        <time>2022-09-26T13:05:24Z</time>
      </trkpt>
      <trkpt lat="46.00847" lon="5.84238">
        <ele>409.9</ele>
        <time>2022-09-26T13:05:25Z</time>
      </trkpt>
      <trkpt lat="46.00847" lon="5.84236">
        <ele>410</ele>
        <time>2022-09-26T13:05:26Z</time>
      </trkpt>
      <trkpt lat="46.00847" lon="5.84234">
        <ele>410.1</ele>
        <time>2022-09-26T13:05:27Z</time>
      </trkpt>
      <trkpt lat="46.00847" lon="5.84231">
        <ele>410.2</ele>
        <time>2022-09-26T13:05:28Z</time>
      </trkpt>
      <trkpt lat="46.00847" lon="5.8423">
        <ele>410.6</ele>
        <time>2022-09-26T13:05:29Z</time>
      </trkpt>
      <trkpt lat="46.00847" lon="5.84227">
        <ele>410.7</ele>
        <time>2022-09-26T13:05:30Z</time>
      </trkpt>
      <trkpt lat="46.00846" lon="5.84225">
        <ele>410.7</ele>
        <time>2022-09-26T13:05:31Z</time>
      </trkpt>
      <trkpt lat="46.00846" lon="5.84223">
        <ele>410.8</ele>
        <time>2022-09-26T13:05:32Z</time>
      </trkpt>
      <trkpt lat="46.00846" lon="5.84221">
        <ele>410.8</ele>
        <time>2022-09-26T13:05:33Z</time>
      </trkpt>
      <trkpt lat="46.00845" lon="5.84219">
        <ele>410.9</ele>
        <time>2022-09-26T13:05:34Z</time>
      </trkpt>
      <trkpt lat="46.00843" lon="5.84215">
        <ele>411</ele>
        <time>2022-09-26T13:05:35Z</time>
      </trkpt>
      <trkpt lat="46.00842" lon="5.84213">
        <ele>411</ele>
        <time>2022-09-26T13:05:36Z</time>
      </trkpt>
      <trkpt lat="46.00841" lon="5.84209">
        <ele>411.1</ele>
        <time>2022-09-26T13:05:37Z</time>
      </trkpt>
      <trkpt lat="46.0084" lon="5.84207">
        <ele>411.2</ele>
        <time>2022-09-26T13:05:38Z</time>
      </trkpt>
      <trkpt lat="46.00838" lon="5.84202">
        <ele>411.3</ele>
        <time>2022-09-26T13:05:39Z</time>
      </trkpt>
      <trkpt lat="46.00837" lon="5.84201">
        <ele>411.3</ele>
        <time>2022-09-26T13:05:40Z</time>
      </trkpt>
      <trkpt lat="46.00836" lon="5.84196">
        <ele>411.4</ele>
        <time>2022-09-26T13:05:41Z</time>
      </trkpt>
      <trkpt lat="46.00837" lon="5.84195">
        <ele>411.4</ele>
        <time>2022-09-26T13:05:42Z</time>
      </trkpt>
      <trkpt lat="46.00837" lon="5.84193">
        <ele>411.5</ele>
        <time>2022-09-26T13:05:43Z</time>
      </trkpt>
      <trkpt lat="46.00838" lon="5.84191">
        <ele>411.6</ele>
        <time>2022-09-26T13:05:44Z</time>
      </trkpt>
      <trkpt lat="46.0084" lon="5.8419">
        <ele>411.6</ele>
        <time>2022-09-26T13:05:45Z</time>
      </trkpt>
      <trkpt lat="46.00841" lon="5.8419">
        <ele>411.6</ele>
        <time>2022-09-26T13:05:46Z</time>
      </trkpt>
      <trkpt lat="46.00841" lon="5.84191">
        <ele>411.7</ele>
        <time>2022-09-26T13:05:47Z</time>
      </trkpt>
      <trkpt lat="46.0084" lon="5.84192">
        <ele>411.7</ele>
        <time>2022-09-26T13:05:48Z</time>
      </trkpt>
      <trkpt lat="46.0084" lon="5.84193">
        <ele>411.7</ele>
        <time>2022-09-26T13:05:49Z</time>
      </trkpt>
      <trkpt lat="46.0084" lon="5.84194">
        <ele>411.7</ele>
        <time>2022-09-26T13:05:50Z</time>
      </trkpt>
      <trkpt lat="46.00839" lon="5.84195">
        <ele>411.8</ele>
        <time>2022-09-26T13:05:51Z</time>
      </trkpt>
      <trkpt lat="46.00839" lon="5.84196">
        <ele>411.8</ele>
        <time>2022-09-26T13:05:52Z</time>
      </trkpt>
      <trkpt lat="46.00838" lon="5.84197">
        <ele>411.8</ele>
        <time>2022-09-26T13:05:53Z</time>
      </trkpt>
      <trkpt lat="46.00838" lon="5.84198">
        <ele>411.8</ele>
        <time>2022-09-26T13:05:54Z</time>
      </trkpt>
      <trkpt lat="46.00837" lon="5.84198">
        <ele>411.8</ele>
        <time>2022-09-26T13:05:55Z</time>
      </trkpt>
      <trkpt lat="46.00837" lon="5.84199">
        <ele>411.8</ele>
        <time>2022-09-26T13:05:56Z</time>
      </trkpt>
      <trkpt lat="46.00837" lon="5.842">
        <ele>411.9</ele>
        <time>2022-09-26T13:05:57Z</time>
      </trkpt>
      <trkpt lat="46.00836" lon="5.84201">
        <ele>411.9</ele>
        <time>2022-09-26T13:18:16Z</time>
      </trkpt>
      <trkpt lat="46.00836" lon="5.84202">
        <ele>411.9</ele>
        <time>2022-09-26T13:18:17Z</time>
      </trkpt>
      <trkpt lat="46.00835" lon="5.84207">
        <ele>412</ele>
        <time>2022-09-26T13:18:18Z</time>
      </trkpt>
      <trkpt lat="46.00835" lon="5.84208">
        <ele>412</ele>
        <time>2022-09-26T13:18:19Z</time>
      </trkpt>
      <trkpt lat="46.00836" lon="5.84212">
        <ele>412.1</ele>
        <time>2022-09-26T13:18:20Z</time>
      </trkpt>
      <trkpt lat="46.00837" lon="5.84213">
        <ele>412.1</ele>
        <time>2022-09-26T13:18:21Z</time>
      </trkpt>
      <trkpt lat="46.0084" lon="5.84214">
        <ele>412.2</ele>
        <time>2022-09-26T13:18:22Z</time>
      </trkpt>
      <trkpt lat="46.00841" lon="5.84215">
        <ele>412.2</ele>
        <time>2022-09-26T13:18:23Z</time>
      </trkpt>
      <trkpt lat="46.00844" lon="5.84216">
        <ele>412.3</ele>
        <time>2022-09-26T13:18:24Z</time>
      </trkpt>
      <trkpt lat="46.00846" lon="5.84215">
        <ele>412.3</ele>
        <time>2022-09-26T13:18:25Z</time>
      </trkpt>
      <trkpt lat="46.00847" lon="5.84215">
        <ele>412.4</ele>
        <time>2022-09-26T13:18:26Z</time>
      </trkpt>
      <trkpt lat="46.00847" lon="5.84214">
        <ele>412.4</ele>
        <time>2022-09-26T13:18:27Z</time>
      </trkpt>
      <trkpt lat="46.0085" lon="5.84211">
        <ele>412.4</ele>
        <time>2022-09-26T13:18:28Z</time>
      </trkpt>
      <trkpt lat="46.00851" lon="5.8421">
        <ele>412.5</ele>
        <time>2022-09-26T13:18:29Z</time>
      </trkpt>
      <trkpt lat="46.00853" lon="5.84207">
        <ele>412.5</ele>
        <time>2022-09-26T13:18:30Z</time>
      </trkpt>
      <trkpt lat="46.00854" lon="5.84206">
        <ele>412.6</ele>
        <time>2022-09-26T13:18:31Z</time>
      </trkpt>
      <trkpt lat="46.00855" lon="5.84205">
        <ele>412.6</ele>
        <time>2022-09-26T13:18:32Z</time>
      </trkpt>
      <trkpt lat="46.00856" lon="5.84203">
        <ele>412.6</ele>
        <time>2022-09-26T13:18:33Z</time>
      </trkpt>
      <trkpt lat="46.00858" lon="5.84199">
        <ele>412.7</ele>
        <time>2022-09-26T13:18:34Z</time>
      </trkpt>
      <trkpt lat="46.00858" lon="5.84198">
        <ele>412.7</ele>
        <time>2022-09-26T13:18:35Z</time>
      </trkpt>
      <trkpt lat="46.0086" lon="5.84196">
        <ele>412.8</ele>
        <time>2022-09-26T13:18:36Z</time>
      </trkpt>
      <trkpt lat="46.0086" lon="5.84195">
        <ele>412.8</ele>
        <time>2022-09-26T13:18:37Z</time>
      </trkpt>
      <trkpt lat="46.00861" lon="5.84193">
        <ele>412.8</ele>
        <time>2022-09-26T13:18:38Z</time>
      </trkpt>
      <trkpt lat="46.00862" lon="5.84191">
        <ele>412.9</ele>
        <time>2022-09-26T13:18:39Z</time>
      </trkpt>
      <trkpt lat="46.00864" lon="5.84187">
        <ele>412.9</ele>
        <time>2022-09-26T13:18:40Z</time>
      </trkpt>
      <trkpt lat="46.00865" lon="5.84186">
        <ele>413</ele>
        <time>2022-09-26T13:18:41Z</time>
      </trkpt>
      <trkpt lat="46.00867" lon="5.84183">
        <ele>413</ele>
        <time>2022-09-26T13:18:42Z</time>
      </trkpt>
      <trkpt lat="46.00867" lon="5.84182">
        <ele>413.1</ele>
        <time>2022-09-26T13:18:43Z</time>
      </trkpt>
      <trkpt lat="46.00868" lon="5.84179">
        <ele>413.1</ele>
        <time>2022-09-26T13:18:44Z</time>
      </trkpt>
      <trkpt lat="46.00869" lon="5.84177">
        <ele>413.2</ele>
        <time>2022-09-26T13:18:45Z</time>
      </trkpt>
      <trkpt lat="46.00871" lon="5.84174">
        <ele>413.2</ele>
        <time>2022-09-26T13:18:46Z</time>
      </trkpt>
      <trkpt lat="46.00872" lon="5.84173">
        <ele>413.3</ele>
        <time>2022-09-26T13:18:47Z</time>
      </trkpt>
      <trkpt lat="46.00874" lon="5.84171">
        <ele>413.4</ele>
        <time>2022-09-26T13:18:48Z</time>
      </trkpt>
      <trkpt lat="46.00875" lon="5.8417">
        <ele>413.4</ele>
        <time>2022-09-26T13:18:49Z</time>
      </trkpt>
      <trkpt lat="46.00877" lon="5.84167">
        <ele>413.6</ele>
        <time>2022-09-26T13:18:50Z</time>
      </trkpt>
      <trkpt lat="46.00878" lon="5.84166">
        <ele>413.7</ele>
        <time>2022-09-26T13:18:51Z</time>
      </trkpt>
      <trkpt lat="46.00881" lon="5.84163">
        <ele>413.9</ele>
        <time>2022-09-26T13:18:52Z</time>
      </trkpt>
      <trkpt lat="46.00882" lon="5.84162">
        <ele>413.9</ele>
        <time>2022-09-26T13:18:53Z</time>
      </trkpt>
      <trkpt lat="46.00883" lon="5.8416">
        <ele>414</ele>
        <time>2022-09-26T13:18:54Z</time>
      </trkpt>
      <trkpt lat="46.00884" lon="5.84159">
        <ele>414.1</ele>
        <time>2022-09-26T13:18:55Z</time>
      </trkpt>
      <trkpt lat="46.00886" lon="5.84156">
        <ele>414.3</ele>
        <time>2022-09-26T13:18:56Z</time>
      </trkpt>
      <trkpt lat="46.00887" lon="5.84155">
        <ele>414.4</ele>
        <time>2022-09-26T13:18:57Z</time>
      </trkpt>
      <trkpt lat="46.00888" lon="5.84153">
        <ele>414.5</ele>
        <time>2022-09-26T13:18:58Z</time>
      </trkpt>
      <trkpt lat="46.00889" lon="5.84152">
        <ele>414.5</ele>
        <time>2022-09-26T13:18:59Z</time>
      </trkpt>
      <trkpt lat="46.00891" lon="5.8415">
        <ele>414.7</ele>
        <time>2022-09-26T13:19:00Z</time>
      </trkpt>
      <trkpt lat="46.00893" lon="5.84149">
        <ele>414.8</ele>
        <time>2022-09-26T13:19:01Z</time>
      </trkpt>
      <trkpt lat="46.00896" lon="5.84147">
        <ele>415</ele>
        <time>2022-09-26T13:19:02Z</time>
      </trkpt>
      <trkpt lat="46.00898" lon="5.84147">
        <ele>415.1</ele>
        <time>2022-09-26T13:19:03Z</time>
      </trkpt>
      <trkpt lat="46.009" lon="5.84145">
        <ele>415.3</ele>
        <time>2022-09-26T13:19:04Z</time>
      </trkpt>
      <trkpt lat="46.00901" lon="5.84144">
        <ele>415.3</ele>
        <time>2022-09-26T13:19:05Z</time>
      </trkpt>
      <trkpt lat="46.00904" lon="5.84142">
        <ele>415.5</ele>
        <time>2022-09-26T13:19:07Z</time>
      </trkpt>
      <trkpt lat="46.00905" lon="5.84142">
        <ele>415.6</ele>
        <time>2022-09-26T13:19:08Z</time>
      </trkpt>
      <trkpt lat="46.00908" lon="5.8414">
        <ele>415.8</ele>
        <time>2022-09-26T13:19:09Z</time>
      </trkpt>
      <trkpt lat="46.00908" lon="5.8414">
        <ele>415.9</ele>
        <time>2022-09-26T13:19:10Z</time>
      </trkpt>
      <trkpt lat="46.00911" lon="5.84141">
        <ele>416.1</ele>
        <time>2022-09-26T13:19:11Z</time>
      </trkpt>
      <trkpt lat="46.00912" lon="5.84141">
        <ele>416.1</ele>
        <time>2022-09-26T13:19:12Z</time>
      </trkpt>
      <trkpt lat="46.00915" lon="5.8414">
        <ele>416.3</ele>
        <time>2022-09-26T13:19:13Z</time>
      </trkpt>
      <trkpt lat="46.00916" lon="5.8414">
        <ele>416.4</ele>
        <time>2022-09-26T13:19:14Z</time>
      </trkpt>
      <trkpt lat="46.00919" lon="5.8414">
        <ele>416.6</ele>
        <time>2022-09-26T13:19:15Z</time>
      </trkpt>
      <trkpt lat="46.0092" lon="5.8414">
        <ele>416.6</ele>
        <time>2022-09-26T13:19:16Z</time>
      </trkpt>
      <trkpt lat="46.00922" lon="5.8414">
        <ele>416.7</ele>
        <time>2022-09-26T13:19:17Z</time>
      </trkpt>
      <trkpt lat="46.00923" lon="5.8414">
        <ele>416.8</ele>
        <time>2022-09-26T13:19:18Z</time>
      </trkpt>
      <trkpt lat="46.00924" lon="5.8414">
        <ele>416.9</ele>
        <time>2022-09-26T13:19:19Z</time>
      </trkpt>
      <trkpt lat="46.00926" lon="5.84139">
        <ele>417</ele>
        <time>2022-09-26T13:19:20Z</time>
      </trkpt>
      <trkpt lat="46.00927" lon="5.84139">
        <ele>417.1</ele>
        <time>2022-09-26T13:19:21Z</time>
      </trkpt>
      <trkpt lat="46.00929" lon="5.8414">
        <ele>417.2</ele>
        <time>2022-09-26T13:19:22Z</time>
      </trkpt>
      <trkpt lat="46.0093" lon="5.84139">
        <ele>417.2</ele>
        <time>2022-09-26T13:19:23Z</time>
      </trkpt>
      <trkpt lat="46.00932" lon="5.84139">
        <ele>417.3</ele>
        <time>2022-09-26T13:19:24Z</time>
      </trkpt>
      <trkpt lat="46.00935" lon="5.8414">
        <ele>417.5</ele>
        <time>2022-09-26T13:19:25Z</time>
      </trkpt>
      <trkpt lat="46.00936" lon="5.8414">
        <ele>417.6</ele>
        <time>2022-09-26T13:19:26Z</time>
      </trkpt>
      <trkpt lat="46.00938" lon="5.84141">
        <ele>417.7</ele>
        <time>2022-09-26T13:19:27Z</time>
      </trkpt>
      <trkpt lat="46.00939" lon="5.84141">
        <ele>417.8</ele>
        <time>2022-09-26T13:19:28Z</time>
      </trkpt>
      <trkpt lat="46.00941" lon="5.84142">
        <ele>417.8</ele>
        <time>2022-09-26T13:19:29Z</time>
      </trkpt>
      <trkpt lat="46.00942" lon="5.84142">
        <ele>417.8</ele>
        <time>2022-09-26T13:19:30Z</time>
      </trkpt>
      <trkpt lat="46.00945" lon="5.84142">
        <ele>417.9</ele>
        <time>2022-09-26T13:19:31Z</time>
      </trkpt>
      <trkpt lat="46.00946" lon="5.84142">
        <ele>418</ele>
        <time>2022-09-26T13:19:32Z</time>
      </trkpt>
      <trkpt lat="46.00948" lon="5.84141">
        <ele>418.1</ele>
        <time>2022-09-26T13:19:33Z</time>
      </trkpt>
      <trkpt lat="46.0095" lon="5.84142">
        <ele>418.1</ele>
        <time>2022-09-26T13:19:34Z</time>
      </trkpt>
      <trkpt lat="46.00951" lon="5.84143">
        <ele>418.2</ele>
        <time>2022-09-26T13:19:35Z</time>
      </trkpt>
      <trkpt lat="46.00953" lon="5.84143">
        <ele>418.3</ele>
        <time>2022-09-26T13:19:36Z</time>
      </trkpt>
      <trkpt lat="46.00956" lon="5.84143">
        <ele>418.4</ele>
        <time>2022-09-26T13:19:37Z</time>
      </trkpt>
      <trkpt lat="46.00957" lon="5.84143">
        <ele>418.5</ele>
        <time>2022-09-26T13:19:38Z</time>
      </trkpt>
      <trkpt lat="46.00961" lon="5.84143">
        <ele>418.6</ele>
        <time>2022-09-26T13:19:39Z</time>
      </trkpt>
      <trkpt lat="46.00963" lon="5.84143">
        <ele>418.7</ele>
        <time>2022-09-26T13:19:40Z</time>
      </trkpt>
      <trkpt lat="46.00965" lon="5.84144">
        <ele>418.8</ele>
        <time>2022-09-26T13:19:41Z</time>
      </trkpt>
      <trkpt lat="46.00967" lon="5.84144">
        <ele>418.9</ele>
        <time>2022-09-26T13:19:42Z</time>
      </trkpt>
      <trkpt lat="46.00968" lon="5.84145">
        <ele>419</ele>
        <time>2022-09-26T13:19:43Z</time>
      </trkpt>
      <trkpt lat="46.00971" lon="5.84145">
        <ele>419.1</ele>
        <time>2022-09-26T13:19:44Z</time>
      </trkpt>
      <trkpt lat="46.00972" lon="5.84145">
        <ele>419.1</ele>
        <time>2022-09-26T13:19:45Z</time>
      </trkpt>
      <trkpt lat="46.00973" lon="5.84145">
        <ele>419.2</ele>
        <time>2022-09-26T13:19:46Z</time>
      </trkpt>
      <trkpt lat="46.00974" lon="5.84147">
        <ele>419.3</ele>
        <time>2022-09-26T13:19:47Z</time>
      </trkpt>
      <trkpt lat="46.00977" lon="5.84148">
        <ele>419.4</ele>
        <time>2022-09-26T13:19:48Z</time>
      </trkpt>
      <trkpt lat="46.00977" lon="5.84149">
        <ele>419.4</ele>
        <time>2022-09-26T13:19:49Z</time>
      </trkpt>
      <trkpt lat="46.00978" lon="5.8415">
        <ele>419.5</ele>
        <time>2022-09-26T13:19:50Z</time>
      </trkpt>
      <trkpt lat="46.00981" lon="5.8415">
        <ele>419.6</ele>
        <time>2022-09-26T13:19:51Z</time>
      </trkpt>
      <trkpt lat="46.00983" lon="5.8415">
        <ele>419.7</ele>
        <time>2022-09-26T13:19:52Z</time>
      </trkpt>
      <trkpt lat="46.00985" lon="5.8415">
        <ele>419.8</ele>
        <time>2022-09-26T13:19:53Z</time>
      </trkpt>
      <trkpt lat="46.00986" lon="5.8415">
        <ele>419.8</ele>
        <time>2022-09-26T13:19:54Z</time>
      </trkpt>
      <trkpt lat="46.00986" lon="5.84151">
        <ele>419.9</ele>
        <time>2022-09-26T13:19:55Z</time>
      </trkpt>
      <trkpt lat="46.00989" lon="5.84152">
        <ele>420</ele>
        <time>2022-09-26T13:19:56Z</time>
      </trkpt>
      <trkpt lat="46.0099" lon="5.84153">
        <ele>420</ele>
        <time>2022-09-26T13:19:57Z</time>
      </trkpt>
      <trkpt lat="46.00993" lon="5.84153">
        <ele>420.2</ele>
        <time>2022-09-26T13:19:58Z</time>
      </trkpt>
      <trkpt lat="46.00995" lon="5.84153">
        <ele>420.3</ele>
        <time>2022-09-26T13:19:59Z</time>
      </trkpt>
      <trkpt lat="46.00998" lon="5.84152">
        <ele>420.7</ele>
        <time>2022-09-26T13:20:00Z</time>
      </trkpt>
      <trkpt lat="46.00999" lon="5.84152">
        <ele>420.7</ele>
        <time>2022-09-26T13:20:01Z</time>
      </trkpt>
      <trkpt lat="46.01002" lon="5.84152">
        <ele>420.9</ele>
        <time>2022-09-26T13:20:02Z</time>
      </trkpt>
      <trkpt lat="46.01003" lon="5.84153">
        <ele>421</ele>
        <time>2022-09-26T13:20:03Z</time>
      </trkpt>
      <trkpt lat="46.01004" lon="5.84154">
        <ele>421.1</ele>
        <time>2022-09-26T13:20:04Z</time>
      </trkpt>
      <trkpt lat="46.01005" lon="5.84156">
        <ele>421.2</ele>
        <time>2022-09-26T13:20:05Z</time>
      </trkpt>
      <trkpt lat="46.01006" lon="5.84157">
        <ele>421.3</ele>
        <time>2022-09-26T13:20:06Z</time>
      </trkpt>
      <trkpt lat="46.01007" lon="5.8416">
        <ele>421.4</ele>
        <time>2022-09-26T13:20:07Z</time>
      </trkpt>
      <trkpt lat="46.01008" lon="5.84163">
        <ele>421.6</ele>
        <time>2022-09-26T13:20:08Z</time>
      </trkpt>
      <trkpt lat="46.01009" lon="5.84164">
        <ele>421.7</ele>
        <time>2022-09-26T13:20:09Z</time>
      </trkpt>
      <trkpt lat="46.01009" lon="5.84165">
        <ele>421.8</ele>
        <time>2022-09-26T13:20:10Z</time>
      </trkpt>
      <trkpt lat="46.0101" lon="5.84167">
        <ele>421.9</ele>
        <time>2022-09-26T13:20:11Z</time>
      </trkpt>
      <trkpt lat="46.01011" lon="5.84169">
        <ele>422</ele>
        <time>2022-09-26T13:20:12Z</time>
      </trkpt>
      <trkpt lat="46.01013" lon="5.84172">
        <ele>422.2</ele>
        <time>2022-09-26T13:20:13Z</time>
      </trkpt>
      <trkpt lat="46.01014" lon="5.84173">
        <ele>422.2</ele>
        <time>2022-09-26T13:20:14Z</time>
      </trkpt>
      <trkpt lat="46.01015" lon="5.84175">
        <ele>422.3</ele>
        <time>2022-09-26T13:20:15Z</time>
      </trkpt>
      <trkpt lat="46.01015" lon="5.84177">
        <ele>422.5</ele>
        <time>2022-09-26T13:20:16Z</time>
      </trkpt>
      <trkpt lat="46.01018" lon="5.8418">
        <ele>422.7</ele>
        <time>2022-09-26T13:20:17Z</time>
      </trkpt>
      <trkpt lat="46.01018" lon="5.84182">
        <ele>422.7</ele>
        <time>2022-09-26T13:20:18Z</time>
      </trkpt>
      <trkpt lat="46.01019" lon="5.84184">
        <ele>422.8</ele>
        <time>2022-09-26T13:20:19Z</time>
      </trkpt>
      <trkpt lat="46.01019" lon="5.84186">
        <ele>422.9</ele>
        <time>2022-09-26T13:20:20Z</time>
      </trkpt>
      <trkpt lat="46.01019" lon="5.84188">
        <ele>423</ele>
        <time>2022-09-26T13:20:21Z</time>
      </trkpt>
      <trkpt lat="46.01021" lon="5.84189">
        <ele>423.1</ele>
        <time>2022-09-26T13:20:22Z</time>
      </trkpt>
      <trkpt lat="46.01023" lon="5.84193">
        <ele>423.3</ele>
        <time>2022-09-26T13:20:23Z</time>
      </trkpt>
      <trkpt lat="46.01024" lon="5.84194">
        <ele>423.3</ele>
        <time>2022-09-26T13:20:24Z</time>
      </trkpt>
      <trkpt lat="46.01026" lon="5.84195">
        <ele>423.3</ele>
        <time>2022-09-26T13:20:25Z</time>
      </trkpt>
      <trkpt lat="46.01027" lon="5.84197">
        <ele>423.4</ele>
        <time>2022-09-26T13:20:26Z</time>
      </trkpt>
      <trkpt lat="46.01028" lon="5.842">
        <ele>423.4</ele>
        <time>2022-09-26T13:20:27Z</time>
      </trkpt>
      <trkpt lat="46.01029" lon="5.84202">
        <ele>423.4</ele>
        <time>2022-09-26T13:20:28Z</time>
      </trkpt>
      <trkpt lat="46.0103" lon="5.84204">
        <ele>423.4</ele>
        <time>2022-09-26T13:20:29Z</time>
      </trkpt>
      <trkpt lat="46.01031" lon="5.84206">
        <ele>423.5</ele>
        <time>2022-09-26T13:20:30Z</time>
      </trkpt>
      <trkpt lat="46.01032" lon="5.84208">
        <ele>423.5</ele>
        <time>2022-09-26T13:20:31Z</time>
      </trkpt>
      <trkpt lat="46.01032" lon="5.8421">
        <ele>423.5</ele>
        <time>2022-09-26T13:20:32Z</time>
      </trkpt>
      <trkpt lat="46.01033" lon="5.84211">
        <ele>423.5</ele>
        <time>2022-09-26T13:20:33Z</time>
      </trkpt>
      <trkpt lat="46.01034" lon="5.84213">
        <ele>423.6</ele>
        <time>2022-09-26T13:20:34Z</time>
      </trkpt>
      <trkpt lat="46.01034" lon="5.84215">
        <ele>423.7</ele>
        <time>2022-09-26T13:20:35Z</time>
      </trkpt>
      <trkpt lat="46.01035" lon="5.84217">
        <ele>423.9</ele>
        <time>2022-09-26T13:20:36Z</time>
      </trkpt>
      <trkpt lat="46.01036" lon="5.84219">
        <ele>424.1</ele>
        <time>2022-09-26T13:20:37Z</time>
      </trkpt>
      <trkpt lat="46.01037" lon="5.84222">
        <ele>424.2</ele>
        <time>2022-09-26T13:20:38Z</time>
      </trkpt>
      <trkpt lat="46.01037" lon="5.84224">
        <ele>424.3</ele>
        <time>2022-09-26T13:20:39Z</time>
      </trkpt>
      <trkpt lat="46.01038" lon="5.84226">
        <ele>424.5</ele>
        <time>2022-09-26T13:20:40Z</time>
      </trkpt>
      <trkpt lat="46.01039" lon="5.84228">
        <ele>424.6</ele>
        <time>2022-09-26T13:20:41Z</time>
      </trkpt>
      <trkpt lat="46.01039" lon="5.84231">
        <ele>424.8</ele>
        <time>2022-09-26T13:20:42Z</time>
      </trkpt>
      <trkpt lat="46.0104" lon="5.84232">
        <ele>424.9</ele>
        <time>2022-09-26T13:20:43Z</time>
      </trkpt>
      <trkpt lat="46.01041" lon="5.84235">
        <ele>425</ele>
        <time>2022-09-26T13:20:44Z</time>
      </trkpt>
      <trkpt lat="46.01042" lon="5.84238">
        <ele>425.3</ele>
        <time>2022-09-26T13:20:45Z</time>
      </trkpt>
      <trkpt lat="46.01042" lon="5.8424">
        <ele>425.4</ele>
        <time>2022-09-26T13:20:46Z</time>
      </trkpt>
      <trkpt lat="46.01043" lon="5.84242">
        <ele>425.6</ele>
        <time>2022-09-26T13:20:47Z</time>
      </trkpt>
      <trkpt lat="46.01043" lon="5.84243">
        <ele>425.6</ele>
        <time>2022-09-26T13:20:48Z</time>
      </trkpt>
      <trkpt lat="46.01044" lon="5.84245">
        <ele>425.7</ele>
        <time>2022-09-26T13:20:49Z</time>
      </trkpt>
      <trkpt lat="46.01045" lon="5.84248">
        <ele>426</ele>
        <time>2022-09-26T13:20:50Z</time>
      </trkpt>
      <trkpt lat="46.01045" lon="5.84249">
        <ele>426.1</ele>
        <time>2022-09-26T13:20:51Z</time>
      </trkpt>
      <trkpt lat="46.01046" lon="5.8425">
        <ele>426.2</ele>
        <time>2022-09-26T13:20:52Z</time>
      </trkpt>
      <trkpt lat="46.01046" lon="5.84251">
        <ele>426.2</ele>
        <time>2022-09-26T13:20:53Z</time>
      </trkpt>
      <trkpt lat="46.01047" lon="5.84254">
        <ele>426.4</ele>
        <time>2022-09-26T13:20:54Z</time>
      </trkpt>
      <trkpt lat="46.01048" lon="5.84255">
        <ele>426.5</ele>
        <time>2022-09-26T13:20:55Z</time>
      </trkpt>
      <trkpt lat="46.01049" lon="5.84258">
        <ele>426.7</ele>
        <time>2022-09-26T13:20:56Z</time>
      </trkpt>
      <trkpt lat="46.01049" lon="5.84259">
        <ele>426.8</ele>
        <time>2022-09-26T13:20:57Z</time>
      </trkpt>
      <trkpt lat="46.0105" lon="5.84261">
        <ele>427</ele>
        <time>2022-09-26T13:20:59Z</time>
      </trkpt>
      <trkpt lat="46.01051" lon="5.84263">
        <ele>427.1</ele>
        <time>2022-09-26T13:21:00Z</time>
      </trkpt>
      <trkpt lat="46.01051" lon="5.84266">
        <ele>427.3</ele>
        <time>2022-09-26T13:21:01Z</time>
      </trkpt>
      <trkpt lat="46.01051" lon="5.84267">
        <ele>427.4</ele>
        <time>2022-09-26T13:21:02Z</time>
      </trkpt>
      <trkpt lat="46.01052" lon="5.8427">
        <ele>427.6</ele>
        <time>2022-09-26T13:21:03Z</time>
      </trkpt>
      <trkpt lat="46.01053" lon="5.84271">
        <ele>427.8</ele>
        <time>2022-09-26T13:21:04Z</time>
      </trkpt>
      <trkpt lat="46.01054" lon="5.84274">
        <ele>428</ele>
        <time>2022-09-26T13:21:05Z</time>
      </trkpt>
      <trkpt lat="46.01054" lon="5.84276">
        <ele>428.1</ele>
        <time>2022-09-26T13:21:06Z</time>
      </trkpt>
      <trkpt lat="46.01055" lon="5.84277">
        <ele>428.2</ele>
        <time>2022-09-26T13:21:07Z</time>
      </trkpt>
      <trkpt lat="46.01056" lon="5.8428">
        <ele>428.4</ele>
        <time>2022-09-26T13:21:08Z</time>
      </trkpt>
      <trkpt lat="46.01056" lon="5.84281">
        <ele>428.5</ele>
        <time>2022-09-26T13:21:09Z</time>
      </trkpt>
      <trkpt lat="46.01058" lon="5.84284">
        <ele>428.7</ele>
        <time>2022-09-26T13:21:10Z</time>
      </trkpt>
      <trkpt lat="46.01058" lon="5.84285">
        <ele>428.8</ele>
        <time>2022-09-26T13:21:11Z</time>
      </trkpt>
      <trkpt lat="46.01059" lon="5.84287">
        <ele>429</ele>
        <time>2022-09-26T13:21:12Z</time>
      </trkpt>
      <trkpt lat="46.01059" lon="5.84288">
        <ele>429.1</ele>
        <time>2022-09-26T13:21:13Z</time>
      </trkpt>
      <trkpt lat="46.01061" lon="5.84291">
        <ele>429.4</ele>
        <time>2022-09-26T13:21:14Z</time>
      </trkpt>
      <trkpt lat="46.01062" lon="5.84292">
        <ele>429.5</ele>
        <time>2022-09-26T13:21:15Z</time>
      </trkpt>
      <trkpt lat="46.01062" lon="5.84293">
        <ele>429.5</ele>
        <time>2022-09-26T13:21:16Z</time>
      </trkpt>
      <trkpt lat="46.01064" lon="5.84296">
        <ele>429.8</ele>
        <time>2022-09-26T13:21:17Z</time>
      </trkpt>
      <trkpt lat="46.01065" lon="5.84297">
        <ele>429.9</ele>
        <time>2022-09-26T13:21:18Z</time>
      </trkpt>
      <trkpt lat="46.01066" lon="5.84298">
        <ele>430</ele>
        <time>2022-09-26T13:21:19Z</time>
      </trkpt>
      <trkpt lat="46.01066" lon="5.84299">
        <ele>430.1</ele>
        <time>2022-09-26T13:21:20Z</time>
      </trkpt>
      <trkpt lat="46.01067" lon="5.84302">
        <ele>430.3</ele>
        <time>2022-09-26T13:21:21Z</time>
      </trkpt>
      <trkpt lat="46.01068" lon="5.84304">
        <ele>430.5</ele>
        <time>2022-09-26T13:21:22Z</time>
      </trkpt>
      <trkpt lat="46.01068" lon="5.84305">
        <ele>430.7</ele>
        <time>2022-09-26T13:21:23Z</time>
      </trkpt>
      <trkpt lat="46.01069" lon="5.84307">
        <ele>430.8</ele>
        <time>2022-09-26T13:21:24Z</time>
      </trkpt>
      <trkpt lat="46.0107" lon="5.84308">
        <ele>430.9</ele>
        <time>2022-09-26T13:21:25Z</time>
      </trkpt>
      <trkpt lat="46.01071" lon="5.8431">
        <ele>431.1</ele>
        <time>2022-09-26T13:21:26Z</time>
      </trkpt>
      <trkpt lat="46.01072" lon="5.84312">
        <ele>431.3</ele>
        <time>2022-09-26T13:21:27Z</time>
      </trkpt>
      <trkpt lat="46.01073" lon="5.84313">
        <ele>431.4</ele>
        <time>2022-09-26T13:21:28Z</time>
      </trkpt>
      <trkpt lat="46.01073" lon="5.84314">
        <ele>431.5</ele>
        <time>2022-09-26T13:21:29Z</time>
      </trkpt>
      <trkpt lat="46.01074" lon="5.84316">
        <ele>431.6</ele>
        <time>2022-09-26T13:21:30Z</time>
      </trkpt>
      <trkpt lat="46.01075" lon="5.84318">
        <ele>431.9</ele>
        <time>2022-09-26T13:21:31Z</time>
      </trkpt>
      <trkpt lat="46.01076" lon="5.84319">
        <ele>431.9</ele>
        <time>2022-09-26T13:21:32Z</time>
      </trkpt>
      <trkpt lat="46.01077" lon="5.84321">
        <ele>432.1</ele>
        <time>2022-09-26T13:21:33Z</time>
      </trkpt>
      <trkpt lat="46.01078" lon="5.84322">
        <ele>432.2</ele>
        <time>2022-09-26T13:21:34Z</time>
      </trkpt>
      <trkpt lat="46.01078" lon="5.84323">
        <ele>432.4</ele>
        <time>2022-09-26T13:21:35Z</time>
      </trkpt>
      <trkpt lat="46.01079" lon="5.84325">
        <ele>432.5</ele>
        <time>2022-09-26T13:21:36Z</time>
      </trkpt>
      <trkpt lat="46.0108" lon="5.84328">
        <ele>432.8</ele>
        <time>2022-09-26T13:21:37Z</time>
      </trkpt>
      <trkpt lat="46.01081" lon="5.8433">
        <ele>432.9</ele>
        <time>2022-09-26T13:21:38Z</time>
      </trkpt>
      <trkpt lat="46.01081" lon="5.84331">
        <ele>433</ele>
        <time>2022-09-26T13:21:39Z</time>
      </trkpt>
      <trkpt lat="46.01083" lon="5.84333">
        <ele>433.2</ele>
        <time>2022-09-26T13:21:40Z</time>
      </trkpt>
      <trkpt lat="46.01084" lon="5.84335">
        <ele>433.4</ele>
        <time>2022-09-26T13:21:41Z</time>
      </trkpt>
      <trkpt lat="46.01085" lon="5.84337">
        <ele>433.5</ele>
        <time>2022-09-26T13:21:42Z</time>
      </trkpt>
      <trkpt lat="46.01085" lon="5.84338">
        <ele>433.6</ele>
        <time>2022-09-26T13:21:43Z</time>
      </trkpt>
      <trkpt lat="46.01086" lon="5.84339">
        <ele>433.7</ele>
        <time>2022-09-26T13:21:44Z</time>
      </trkpt>
      <trkpt lat="46.01087" lon="5.84342">
        <ele>433.9</ele>
        <time>2022-09-26T13:21:45Z</time>
      </trkpt>
      <trkpt lat="46.01087" lon="5.84343">
        <ele>434</ele>
        <time>2022-09-26T13:21:46Z</time>
      </trkpt>
      <trkpt lat="46.01088" lon="5.84345">
        <ele>434.2</ele>
        <time>2022-09-26T13:21:47Z</time>
      </trkpt>
      <trkpt lat="46.01089" lon="5.84347">
        <ele>434.4</ele>
        <time>2022-09-26T13:21:48Z</time>
      </trkpt>
      <trkpt lat="46.0109" lon="5.84349">
        <ele>434.5</ele>
        <time>2022-09-26T13:21:49Z</time>
      </trkpt>
      <trkpt lat="46.0109" lon="5.8435">
        <ele>434.6</ele>
        <time>2022-09-26T13:21:50Z</time>
      </trkpt>
      <trkpt lat="46.01091" lon="5.84351">
        <ele>434.7</ele>
        <time>2022-09-26T13:21:51Z</time>
      </trkpt>
      <trkpt lat="46.01093" lon="5.84353">
        <ele>434.9</ele>
        <time>2022-09-26T13:21:52Z</time>
      </trkpt>
      <trkpt lat="46.01094" lon="5.84355">
        <ele>435.1</ele>
        <time>2022-09-26T13:21:53Z</time>
      </trkpt>
      <trkpt lat="46.01095" lon="5.84356">
        <ele>435.2</ele>
        <time>2022-09-26T13:21:54Z</time>
      </trkpt>
      <trkpt lat="46.01096" lon="5.84357">
        <ele>435.4</ele>
        <time>2022-09-26T13:21:55Z</time>
      </trkpt>
      <trkpt lat="46.01097" lon="5.84358">
        <ele>435.5</ele>
        <time>2022-09-26T13:21:56Z</time>
      </trkpt>
      <trkpt lat="46.01099" lon="5.84361">
        <ele>435.8</ele>
        <time>2022-09-26T13:21:57Z</time>
      </trkpt>
      <trkpt lat="46.011" lon="5.84362">
        <ele>435.9</ele>
        <time>2022-09-26T13:21:58Z</time>
      </trkpt>
      <trkpt lat="46.011" lon="5.84363">
        <ele>436</ele>
        <time>2022-09-26T13:21:59Z</time>
      </trkpt>
      <trkpt lat="46.01101" lon="5.84366">
        <ele>436.2</ele>
        <time>2022-09-26T13:22:00Z</time>
      </trkpt>
      <trkpt lat="46.01102" lon="5.84366">
        <ele>436.3</ele>
        <time>2022-09-26T13:22:01Z</time>
      </trkpt>
      <trkpt lat="46.01103" lon="5.84368">
        <ele>436.5</ele>
        <time>2022-09-26T13:22:02Z</time>
      </trkpt>
      <trkpt lat="46.01104" lon="5.84369">
        <ele>436.6</ele>
        <time>2022-09-26T13:22:03Z</time>
      </trkpt>
      <trkpt lat="46.01105" lon="5.8437">
        <ele>436.8</ele>
        <time>2022-09-26T13:22:04Z</time>
      </trkpt>
      <trkpt lat="46.01106" lon="5.84371">
        <ele>436.9</ele>
        <time>2022-09-26T13:22:05Z</time>
      </trkpt>
      <trkpt lat="46.01108" lon="5.84373">
        <ele>437.1</ele>
        <time>2022-09-26T13:22:06Z</time>
      </trkpt>
      <trkpt lat="46.01109" lon="5.84374">
        <ele>437.2</ele>
        <time>2022-09-26T13:22:07Z</time>
      </trkpt>
      <trkpt lat="46.0111" lon="5.84375">
        <ele>437.3</ele>
        <time>2022-09-26T13:22:08Z</time>
      </trkpt>
      <trkpt lat="46.01111" lon="5.84376">
        <ele>437.6</ele>
        <time>2022-09-26T13:22:09Z</time>
      </trkpt>
      <trkpt lat="46.01112" lon="5.84377">
        <ele>437.6</ele>
        <time>2022-09-26T13:22:10Z</time>
      </trkpt>
      <trkpt lat="46.01113" lon="5.84377">
        <ele>437.7</ele>
        <time>2022-09-26T13:22:11Z</time>
      </trkpt>
      <trkpt lat="46.01115" lon="5.84379">
        <ele>438</ele>
        <time>2022-09-26T13:22:12Z</time>
      </trkpt>
      <trkpt lat="46.01115" lon="5.8438">
        <ele>438</ele>
        <time>2022-09-26T13:22:13Z</time>
      </trkpt>
      <trkpt lat="46.01116" lon="5.84381">
        <ele>438.2</ele>
        <time>2022-09-26T13:22:14Z</time>
      </trkpt>
      <trkpt lat="46.01118" lon="5.84382">
        <ele>438.4</ele>
        <time>2022-09-26T13:22:15Z</time>
      </trkpt>
      <trkpt lat="46.01119" lon="5.84382">
        <ele>438.5</ele>
        <time>2022-09-26T13:22:16Z</time>
      </trkpt>
      <trkpt lat="46.0112" lon="5.84383">
        <ele>438.6</ele>
        <time>2022-09-26T13:22:17Z</time>
      </trkpt>
      <trkpt lat="46.01124" lon="5.84384">
        <ele>439</ele>
        <time>2022-09-26T13:22:18Z</time>
      </trkpt>
      <trkpt lat="46.01124" lon="5.84385">
        <ele>439.1</ele>
        <time>2022-09-26T13:22:19Z</time>
      </trkpt>
      <trkpt lat="46.01126" lon="5.84386">
        <ele>439.3</ele>
        <time>2022-09-26T13:22:20Z</time>
      </trkpt>
      <trkpt lat="46.01127" lon="5.84387">
        <ele>439.4</ele>
        <time>2022-09-26T13:22:21Z</time>
      </trkpt>
      <trkpt lat="46.01129" lon="5.84388">
        <ele>439.6</ele>
        <time>2022-09-26T13:22:22Z</time>
      </trkpt>
      <trkpt lat="46.01131" lon="5.84388">
        <ele>439.8</ele>
        <time>2022-09-26T13:22:23Z</time>
      </trkpt>
      <trkpt lat="46.01132" lon="5.84389">
        <ele>439.9</ele>
        <time>2022-09-26T13:22:24Z</time>
      </trkpt>
      <trkpt lat="46.01134" lon="5.8439">
        <ele>440.2</ele>
        <time>2022-09-26T13:22:25Z</time>
      </trkpt>
      <trkpt lat="46.01135" lon="5.8439">
        <ele>440.2</ele>
        <time>2022-09-26T13:22:26Z</time>
      </trkpt>
      <trkpt lat="46.01137" lon="5.84392">
        <ele>440.5</ele>
        <time>2022-09-26T13:22:27Z</time>
      </trkpt>
      <trkpt lat="46.01137" lon="5.84392">
        <ele>440.5</ele>
        <time>2022-09-26T13:22:28Z</time>
      </trkpt>
      <trkpt lat="46.01139" lon="5.84393">
        <ele>440.7</ele>
        <time>2022-09-26T13:22:29Z</time>
      </trkpt>
      <trkpt lat="46.0114" lon="5.84393">
        <ele>440.8</ele>
        <time>2022-09-26T13:22:30Z</time>
      </trkpt>
      <trkpt lat="46.01142" lon="5.84395">
        <ele>441.1</ele>
        <time>2022-09-26T13:22:31Z</time>
      </trkpt>
      <trkpt lat="46.01143" lon="5.84395">
        <ele>441.1</ele>
        <time>2022-09-26T13:22:32Z</time>
      </trkpt>
      <trkpt lat="46.01144" lon="5.84396">
        <ele>441.3</ele>
        <time>2022-09-26T13:22:33Z</time>
      </trkpt>
      <trkpt lat="46.01145" lon="5.84396">
        <ele>441.5</ele>
        <time>2022-09-26T13:22:34Z</time>
      </trkpt>
      <trkpt lat="46.01146" lon="5.84397">
        <ele>441.6</ele>
        <time>2022-09-26T13:22:35Z</time>
      </trkpt>
      <trkpt lat="46.01148" lon="5.84397">
        <ele>441.8</ele>
        <time>2022-09-26T13:22:36Z</time>
      </trkpt>
      <trkpt lat="46.01151" lon="5.84399">
        <ele>442</ele>
        <time>2022-09-26T13:22:37Z</time>
      </trkpt>
      <trkpt lat="46.01151" lon="5.84399">
        <ele>442.1</ele>
        <time>2022-09-26T13:22:38Z</time>
      </trkpt>
      <trkpt lat="46.01152" lon="5.84399">
        <ele>442.2</ele>
        <time>2022-09-26T13:22:39Z</time>
      </trkpt>
      <trkpt lat="46.01153" lon="5.844">
        <ele>442.3</ele>
        <time>2022-09-26T13:22:40Z</time>
      </trkpt>
      <trkpt lat="46.01155" lon="5.84401">
        <ele>442.5</ele>
        <time>2022-09-26T13:22:41Z</time>
      </trkpt>
      <trkpt lat="46.01157" lon="5.84403">
        <ele>442.8</ele>
        <time>2022-09-26T13:22:42Z</time>
      </trkpt>
      <trkpt lat="46.01157" lon="5.84403">
        <ele>442.8</ele>
        <time>2022-09-26T13:22:43Z</time>
      </trkpt>
      <trkpt lat="46.01158" lon="5.84404">
        <ele>442.9</ele>
        <time>2022-09-26T13:22:44Z</time>
      </trkpt>
      <trkpt lat="46.01159" lon="5.84405">
        <ele>443.1</ele>
        <time>2022-09-26T13:22:45Z</time>
      </trkpt>
      <trkpt lat="46.01161" lon="5.84405">
        <ele>443.2</ele>
        <time>2022-09-26T13:22:46Z</time>
      </trkpt>
      <trkpt lat="46.01162" lon="5.84406">
        <ele>443.4</ele>
        <time>2022-09-26T13:22:47Z</time>
      </trkpt>
      <trkpt lat="46.01164" lon="5.84406">
        <ele>443.5</ele>
        <time>2022-09-26T13:22:48Z</time>
      </trkpt>
      <trkpt lat="46.01165" lon="5.84408">
        <ele>443.7</ele>
        <time>2022-09-26T13:22:49Z</time>
      </trkpt>
      <trkpt lat="46.01166" lon="5.84409">
        <ele>443.8</ele>
        <time>2022-09-26T13:22:50Z</time>
      </trkpt>
      <trkpt lat="46.01167" lon="5.84409">
        <ele>443.9</ele>
        <time>2022-09-26T13:22:51Z</time>
      </trkpt>
      <trkpt lat="46.01169" lon="5.8441">
        <ele>444.1</ele>
        <time>2022-09-26T13:22:52Z</time>
      </trkpt>
      <trkpt lat="46.0117" lon="5.8441">
        <ele>444.2</ele>
        <time>2022-09-26T13:22:53Z</time>
      </trkpt>
      <trkpt lat="46.01172" lon="5.84411">
        <ele>444.4</ele>
        <time>2022-09-26T13:22:54Z</time>
      </trkpt>
      <trkpt lat="46.01173" lon="5.84411">
        <ele>444.5</ele>
        <time>2022-09-26T13:22:55Z</time>
      </trkpt>
      <trkpt lat="46.01174" lon="5.84412">
        <ele>444.7</ele>
        <time>2022-09-26T13:22:56Z</time>
      </trkpt>
      <trkpt lat="46.01176" lon="5.84413">
        <ele>444.9</ele>
        <time>2022-09-26T13:22:57Z</time>
      </trkpt>
      <trkpt lat="46.01176" lon="5.84413">
        <ele>445</ele>
        <time>2022-09-26T13:22:58Z</time>
      </trkpt>
      <trkpt lat="46.01178" lon="5.84414">
        <ele>445.1</ele>
        <time>2022-09-26T13:22:59Z</time>
      </trkpt>
      <trkpt lat="46.01179" lon="5.84414">
        <ele>445.2</ele>
        <time>2022-09-26T13:23:00Z</time>
      </trkpt>
      <trkpt lat="46.01181" lon="5.84414">
        <ele>445.4</ele>
        <time>2022-09-26T13:23:01Z</time>
      </trkpt>
      <trkpt lat="46.01182" lon="5.84414">
        <ele>445.5</ele>
        <time>2022-09-26T13:23:02Z</time>
      </trkpt>
      <trkpt lat="46.01184" lon="5.84416">
        <ele>445.8</ele>
        <time>2022-09-26T13:23:03Z</time>
      </trkpt>
      <trkpt lat="46.01185" lon="5.84416">
        <ele>445.8</ele>
        <time>2022-09-26T13:23:05Z</time>
      </trkpt>
      <trkpt lat="46.01185" lon="5.84416">
        <ele>445.9</ele>
        <time>2022-09-26T13:23:06Z</time>
      </trkpt>
      <trkpt lat="46.01188" lon="5.84417">
        <ele>446.2</ele>
        <time>2022-09-26T13:23:07Z</time>
      </trkpt>
      <trkpt lat="46.01189" lon="5.84417">
        <ele>446.3</ele>
        <time>2022-09-26T13:23:08Z</time>
      </trkpt>
      <trkpt lat="46.0119" lon="5.84417">
        <ele>446.4</ele>
        <time>2022-09-26T13:23:09Z</time>
      </trkpt>
      <trkpt lat="46.01192" lon="5.84418">
        <ele>446.6</ele>
        <time>2022-09-26T13:23:10Z</time>
      </trkpt>
      <trkpt lat="46.01193" lon="5.84419">
        <ele>446.7</ele>
        <time>2022-09-26T13:23:11Z</time>
      </trkpt>
      <trkpt lat="46.01194" lon="5.8442">
        <ele>446.9</ele>
        <time>2022-09-26T13:23:12Z</time>
      </trkpt>
      <trkpt lat="46.01195" lon="5.84421">
        <ele>447.1</ele>
        <time>2022-09-26T13:23:13Z</time>
      </trkpt>
      <trkpt lat="46.01196" lon="5.84421">
        <ele>447.2</ele>
        <time>2022-09-26T13:23:14Z</time>
      </trkpt>
      <trkpt lat="46.01197" lon="5.84421">
        <ele>447.3</ele>
        <time>2022-09-26T13:23:15Z</time>
      </trkpt>
      <trkpt lat="46.012" lon="5.84422">
        <ele>447.5</ele>
        <time>2022-09-26T13:23:16Z</time>
      </trkpt>
      <trkpt lat="46.012" lon="5.84422">
        <ele>447.6</ele>
        <time>2022-09-26T13:23:17Z</time>
      </trkpt>
      <trkpt lat="46.01203" lon="5.84422">
        <ele>447.9</ele>
        <time>2022-09-26T13:23:18Z</time>
      </trkpt>
      <trkpt lat="46.01204" lon="5.84423">
        <ele>448</ele>
        <time>2022-09-26T13:23:19Z</time>
      </trkpt>
      <trkpt lat="46.01206" lon="5.84423">
        <ele>448.2</ele>
        <time>2022-09-26T13:23:20Z</time>
      </trkpt>
      <trkpt lat="46.01207" lon="5.84424">
        <ele>448.3</ele>
        <time>2022-09-26T13:23:21Z</time>
      </trkpt>
      <trkpt lat="46.01208" lon="5.84424">
        <ele>448.4</ele>
        <time>2022-09-26T13:23:22Z</time>
      </trkpt>
      <trkpt lat="46.0121" lon="5.84426">
        <ele>448.6</ele>
        <time>2022-09-26T13:23:23Z</time>
      </trkpt>
      <trkpt lat="46.01211" lon="5.84426">
        <ele>448.7</ele>
        <time>2022-09-26T13:23:24Z</time>
      </trkpt>
      <trkpt lat="46.01212" lon="5.84427">
        <ele>448.8</ele>
        <time>2022-09-26T13:23:25Z</time>
      </trkpt>
      <trkpt lat="46.01213" lon="5.84428">
        <ele>449</ele>
        <time>2022-09-26T13:23:26Z</time>
      </trkpt>
      <trkpt lat="46.01215" lon="5.84428">
        <ele>449.2</ele>
        <time>2022-09-26T13:23:27Z</time>
      </trkpt>
      <trkpt lat="46.01216" lon="5.84429">
        <ele>449.3</ele>
        <time>2022-09-26T13:23:28Z</time>
      </trkpt>
      <trkpt lat="46.01217" lon="5.84429">
        <ele>449.4</ele>
        <time>2022-09-26T13:23:29Z</time>
      </trkpt>
      <trkpt lat="46.01218" lon="5.8443">
        <ele>449.6</ele>
        <time>2022-09-26T13:23:30Z</time>
      </trkpt>
      <trkpt lat="46.0122" lon="5.84432">
        <ele>449.7</ele>
        <time>2022-09-26T13:23:31Z</time>
      </trkpt>
      <trkpt lat="46.01221" lon="5.84432">
        <ele>449.8</ele>
        <time>2022-09-26T13:23:32Z</time>
      </trkpt>
      <trkpt lat="46.01223" lon="5.84434">
        <ele>450</ele>
        <time>2022-09-26T13:23:33Z</time>
      </trkpt>
      <trkpt lat="46.01225" lon="5.84434">
        <ele>450.1</ele>
        <time>2022-09-26T13:23:34Z</time>
      </trkpt>
      <trkpt lat="46.01226" lon="5.84434">
        <ele>450.2</ele>
        <time>2022-09-26T13:23:35Z</time>
      </trkpt>
      <trkpt lat="46.01227" lon="5.84435">
        <ele>450.3</ele>
        <time>2022-09-26T13:23:36Z</time>
      </trkpt>
      <trkpt lat="46.01228" lon="5.84435">
        <ele>450.5</ele>
        <time>2022-09-26T13:23:37Z</time>
      </trkpt>
      <trkpt lat="46.01229" lon="5.84436">
        <ele>450.5</ele>
        <time>2022-09-26T13:23:38Z</time>
      </trkpt>
      <trkpt lat="46.01231" lon="5.84437">
        <ele>450.6</ele>
        <time>2022-09-26T13:23:39Z</time>
      </trkpt>
      <trkpt lat="46.01232" lon="5.84437">
        <ele>450.8</ele>
        <time>2022-09-26T13:23:40Z</time>
      </trkpt>
      <trkpt lat="46.01233" lon="5.84437">
        <ele>450.8</ele>
        <time>2022-09-26T13:23:41Z</time>
      </trkpt>
      <trkpt lat="46.01235" lon="5.84438">
        <ele>451</ele>
        <time>2022-09-26T13:23:42Z</time>
      </trkpt>
      <trkpt lat="46.01236" lon="5.84439">
        <ele>451</ele>
        <time>2022-09-26T13:23:43Z</time>
      </trkpt>
      <trkpt lat="46.01237" lon="5.84439">
        <ele>451.1</ele>
        <time>2022-09-26T13:23:44Z</time>
      </trkpt>
      <trkpt lat="46.01239" lon="5.8444">
        <ele>451.2</ele>
        <time>2022-09-26T13:23:45Z</time>
      </trkpt>
      <trkpt lat="46.0124" lon="5.8444">
        <ele>451.3</ele>
        <time>2022-09-26T13:23:46Z</time>
      </trkpt>
      <trkpt lat="46.01241" lon="5.8444">
        <ele>451.3</ele>
        <time>2022-09-26T13:23:47Z</time>
      </trkpt>
      <trkpt lat="46.01242" lon="5.8444">
        <ele>451.4</ele>
        <time>2022-09-26T13:23:48Z</time>
      </trkpt>
      <trkpt lat="46.01243" lon="5.8444">
        <ele>451.4</ele>
        <time>2022-09-26T13:23:49Z</time>
      </trkpt>
      <trkpt lat="46.01243" lon="5.8444">
        <ele>451.4</ele>
        <time>2022-09-26T13:23:50Z</time>
      </trkpt>
      <trkpt lat="46.01244" lon="5.8444">
        <ele>451.5</ele>
        <time>2022-09-26T13:23:51Z</time>
      </trkpt>
      <trkpt lat="46.01245" lon="5.8444">
        <ele>451.5</ele>
        <time>2022-09-26T13:23:52Z</time>
      </trkpt>
      <trkpt lat="46.01246" lon="5.8444">
        <ele>451.6</ele>
        <time>2022-09-26T13:23:53Z</time>
      </trkpt>
      <trkpt lat="46.01247" lon="5.8444">
        <ele>451.6</ele>
        <time>2022-09-26T13:23:54Z</time>
      </trkpt>
      <trkpt lat="46.01247" lon="5.8444">
        <ele>451.6</ele>
        <time>2022-09-26T13:23:55Z</time>
      </trkpt>
      <trkpt lat="46.01248" lon="5.8444">
        <ele>451.6</ele>
        <time>2022-09-26T13:24:44Z</time>
      </trkpt>
      <trkpt lat="46.01249" lon="5.8444">
        <ele>451.7</ele>
        <time>2022-09-26T13:24:45Z</time>
      </trkpt>
      <trkpt lat="46.0125" lon="5.8444">
        <ele>451.7</ele>
        <time>2022-09-26T13:24:46Z</time>
      </trkpt>
      <trkpt lat="46.0125" lon="5.8444">
        <ele>451.7</ele>
        <time>2022-09-26T13:24:47Z</time>
      </trkpt>
      <trkpt lat="46.01253" lon="5.8444">
        <ele>451.8</ele>
        <time>2022-09-26T13:24:48Z</time>
      </trkpt>
      <trkpt lat="46.01255" lon="5.8444">
        <ele>451.9</ele>
        <time>2022-09-26T13:24:49Z</time>
      </trkpt>
      <trkpt lat="46.01256" lon="5.8444">
        <ele>451.9</ele>
        <time>2022-09-26T13:24:50Z</time>
      </trkpt>
      <trkpt lat="46.01258" lon="5.84441">
        <ele>451.9</ele>
        <time>2022-09-26T13:24:51Z</time>
      </trkpt>
      <trkpt lat="46.0126" lon="5.84441">
        <ele>452</ele>
        <time>2022-09-26T13:24:52Z</time>
      </trkpt>
      <trkpt lat="46.01263" lon="5.84442">
        <ele>452.1</ele>
        <time>2022-09-26T13:24:53Z</time>
      </trkpt>
      <trkpt lat="46.01264" lon="5.84442">
        <ele>452.1</ele>
        <time>2022-09-26T13:24:54Z</time>
      </trkpt>
      <trkpt lat="46.01267" lon="5.84442">
        <ele>452.2</ele>
        <time>2022-09-26T13:24:55Z</time>
      </trkpt>
      <trkpt lat="46.0127" lon="5.84442">
        <ele>452.2</ele>
        <time>2022-09-26T13:24:56Z</time>
      </trkpt>
      <trkpt lat="46.01271" lon="5.84442">
        <ele>452.2</ele>
        <time>2022-09-26T13:24:57Z</time>
      </trkpt>
      <trkpt lat="46.01274" lon="5.84442">
        <ele>452.3</ele>
        <time>2022-09-26T13:24:58Z</time>
      </trkpt>
      <trkpt lat="46.01275" lon="5.84442">
        <ele>452.3</ele>
        <time>2022-09-26T13:24:59Z</time>
      </trkpt>
      <trkpt lat="46.01279" lon="5.84442">
        <ele>452.3</ele>
        <time>2022-09-26T13:25:00Z</time>
      </trkpt>
      <trkpt lat="46.0128" lon="5.84442">
        <ele>452.3</ele>
        <time>2022-09-26T13:25:01Z</time>
      </trkpt>
      <trkpt lat="46.01284" lon="5.84443">
        <ele>452.3</ele>
        <time>2022-09-26T13:25:02Z</time>
      </trkpt>
      <trkpt lat="46.01286" lon="5.84443">
        <ele>452.3</ele>
        <time>2022-09-26T13:25:03Z</time>
      </trkpt>
      <trkpt lat="46.01288" lon="5.84443">
        <ele>452.4</ele>
        <time>2022-09-26T13:25:04Z</time>
      </trkpt>
      <trkpt lat="46.01291" lon="5.84443">
        <ele>452.4</ele>
        <time>2022-09-26T13:25:05Z</time>
      </trkpt>
      <trkpt lat="46.01294" lon="5.84443">
        <ele>452.4</ele>
        <time>2022-09-26T13:25:06Z</time>
      </trkpt>
      <trkpt lat="46.01296" lon="5.84443">
        <ele>452.5</ele>
        <time>2022-09-26T13:25:07Z</time>
      </trkpt>
      <trkpt lat="46.01299" lon="5.84444">
        <ele>452.5</ele>
        <time>2022-09-26T13:25:08Z</time>
      </trkpt>
      <trkpt lat="46.01302" lon="5.84444">
        <ele>452.6</ele>
        <time>2022-09-26T13:25:09Z</time>
      </trkpt>
      <trkpt lat="46.01305" lon="5.84444">
        <ele>452.6</ele>
        <time>2022-09-26T13:25:11Z</time>
      </trkpt>
      <trkpt lat="46.01307" lon="5.84444">
        <ele>452.7</ele>
        <time>2022-09-26T13:25:12Z</time>
      </trkpt>
      <trkpt lat="46.0131" lon="5.84444">
        <ele>452.7</ele>
        <time>2022-09-26T13:25:13Z</time>
      </trkpt>
      <trkpt lat="46.01314" lon="5.84444">
        <ele>452.8</ele>
        <time>2022-09-26T13:25:14Z</time>
      </trkpt>
      <trkpt lat="46.01314" lon="5.84444">
        <ele>452.8</ele>
        <time>2022-09-26T13:25:15Z</time>
      </trkpt>
      <trkpt lat="46.01317" lon="5.84444">
        <ele>452.9</ele>
        <time>2022-09-26T13:25:16Z</time>
      </trkpt>
      <trkpt lat="46.01321" lon="5.84445">
        <ele>453</ele>
        <time>2022-09-26T13:25:17Z</time>
      </trkpt>
      <trkpt lat="46.01322" lon="5.84445">
        <ele>453</ele>
        <time>2022-09-26T13:25:18Z</time>
      </trkpt>
      <trkpt lat="46.01326" lon="5.84445">
        <ele>453.1</ele>
        <time>2022-09-26T13:25:19Z</time>
      </trkpt>
      <trkpt lat="46.01328" lon="5.84445">
        <ele>453.1</ele>
        <time>2022-09-26T13:25:20Z</time>
      </trkpt>
      <trkpt lat="46.01331" lon="5.84445">
        <ele>453.2</ele>
        <time>2022-09-26T13:25:21Z</time>
      </trkpt>
      <trkpt lat="46.01332" lon="5.84445">
        <ele>453.2</ele>
        <time>2022-09-26T13:25:22Z</time>
      </trkpt>
      <trkpt lat="46.01336" lon="5.84445">
        <ele>453.3</ele>
        <time>2022-09-26T13:25:23Z</time>
      </trkpt>
      <trkpt lat="46.01337" lon="5.84445">
        <ele>453.4</ele>
        <time>2022-09-26T13:25:24Z</time>
      </trkpt>
      <trkpt lat="46.01341" lon="5.84446">
        <ele>453.5</ele>
        <time>2022-09-26T13:25:25Z</time>
      </trkpt>
      <trkpt lat="46.01342" lon="5.84446">
        <ele>453.5</ele>
        <time>2022-09-26T13:25:26Z</time>
      </trkpt>
      <trkpt lat="46.01345" lon="5.84445">
        <ele>453.6</ele>
        <time>2022-09-26T13:25:27Z</time>
      </trkpt>
      <trkpt lat="46.01347" lon="5.84445">
        <ele>453.6</ele>
        <time>2022-09-26T13:25:28Z</time>
      </trkpt>
      <trkpt lat="46.0135" lon="5.84446">
        <ele>453.6</ele>
        <time>2022-09-26T13:25:29Z</time>
      </trkpt>
      <trkpt lat="46.01351" lon="5.84446">
        <ele>453.7</ele>
        <time>2022-09-26T13:25:30Z</time>
      </trkpt>
      <trkpt lat="46.01355" lon="5.84446">
        <ele>453.7</ele>
        <time>2022-09-26T13:25:31Z</time>
      </trkpt>
      <trkpt lat="46.01356" lon="5.84447">
        <ele>453.8</ele>
        <time>2022-09-26T13:25:32Z</time>
      </trkpt>
      <trkpt lat="46.01359" lon="5.84447">
        <ele>453.8</ele>
        <time>2022-09-26T13:25:33Z</time>
      </trkpt>
      <trkpt lat="46.01361" lon="5.84447">
        <ele>453.8</ele>
        <time>2022-09-26T13:25:34Z</time>
      </trkpt>
      <trkpt lat="46.01364" lon="5.84448">
        <ele>453.9</ele>
        <time>2022-09-26T13:25:35Z</time>
      </trkpt>
      <trkpt lat="46.01365" lon="5.84448">
        <ele>453.9</ele>
        <time>2022-09-26T13:25:36Z</time>
      </trkpt>
      <trkpt lat="46.01369" lon="5.84448">
        <ele>454</ele>
        <time>2022-09-26T13:25:37Z</time>
      </trkpt>
      <trkpt lat="46.0137" lon="5.84449">
        <ele>454</ele>
        <time>2022-09-26T13:25:38Z</time>
      </trkpt>
      <trkpt lat="46.01373" lon="5.84449">
        <ele>454</ele>
        <time>2022-09-26T13:25:39Z</time>
      </trkpt>
      <trkpt lat="46.01374" lon="5.84449">
        <ele>454.1</ele>
        <time>2022-09-26T13:25:40Z</time>
      </trkpt>
      <trkpt lat="46.01378" lon="5.8445">
        <ele>454.1</ele>
        <time>2022-09-26T13:25:41Z</time>
      </trkpt>
      <trkpt lat="46.01379" lon="5.8445">
        <ele>454.1</ele>
        <time>2022-09-26T13:25:42Z</time>
      </trkpt>
      <trkpt lat="46.01383" lon="5.84451">
        <ele>454.2</ele>
        <time>2022-09-26T13:25:43Z</time>
      </trkpt>
      <trkpt lat="46.01384" lon="5.84451">
        <ele>454.2</ele>
        <time>2022-09-26T13:25:44Z</time>
      </trkpt>
      <trkpt lat="46.01387" lon="5.84452">
        <ele>454.3</ele>
        <time>2022-09-26T13:25:45Z</time>
      </trkpt>
      <trkpt lat="46.0139" lon="5.84452">
        <ele>454.3</ele>
        <time>2022-09-26T13:25:46Z</time>
      </trkpt>
      <trkpt lat="46.01392" lon="5.84452">
        <ele>454.3</ele>
        <time>2022-09-26T13:25:47Z</time>
      </trkpt>
      <trkpt lat="46.01395" lon="5.84453">
        <ele>454.4</ele>
        <time>2022-09-26T13:25:48Z</time>
      </trkpt>
      <trkpt lat="46.01398" lon="5.84454">
        <ele>454.4</ele>
        <time>2022-09-26T13:25:49Z</time>
      </trkpt>
      <trkpt lat="46.01401" lon="5.84455">
        <ele>454.5</ele>
        <time>2022-09-26T13:25:50Z</time>
      </trkpt>
      <trkpt lat="46.01404" lon="5.84455">
        <ele>454.5</ele>
        <time>2022-09-26T13:25:51Z</time>
      </trkpt>
      <trkpt lat="46.01407" lon="5.84455">
        <ele>454.6</ele>
        <time>2022-09-26T13:25:52Z</time>
      </trkpt>
      <trkpt lat="46.0141" lon="5.84456">
        <ele>454.7</ele>
        <time>2022-09-26T13:25:53Z</time>
      </trkpt>
      <trkpt lat="46.01413" lon="5.84457">
        <ele>454.7</ele>
        <time>2022-09-26T13:25:54Z</time>
      </trkpt>
      <trkpt lat="46.01416" lon="5.84457">
        <ele>454.8</ele>
        <time>2022-09-26T13:25:55Z</time>
      </trkpt>
      <trkpt lat="46.01419" lon="5.84458">
        <ele>454.8</ele>
        <time>2022-09-26T13:25:56Z</time>
      </trkpt>
      <trkpt lat="46.01423" lon="5.84458">
        <ele>454.9</ele>
        <time>2022-09-26T13:25:57Z</time>
      </trkpt>
      <trkpt lat="46.01426" lon="5.84458">
        <ele>455</ele>
        <time>2022-09-26T13:25:58Z</time>
      </trkpt>
      <trkpt lat="46.01429" lon="5.84459">
        <ele>455.1</ele>
        <time>2022-09-26T13:25:59Z</time>
      </trkpt>
      <trkpt lat="46.01432" lon="5.8446">
        <ele>455.1</ele>
        <time>2022-09-26T13:26:00Z</time>
      </trkpt>
      <trkpt lat="46.01435" lon="5.8446">
        <ele>455.2</ele>
        <time>2022-09-26T13:26:01Z</time>
      </trkpt>
      <trkpt lat="46.01438" lon="5.8446">
        <ele>455.3</ele>
        <time>2022-09-26T13:26:02Z</time>
      </trkpt>
      <trkpt lat="46.01441" lon="5.8446">
        <ele>455.4</ele>
        <time>2022-09-26T13:26:03Z</time>
      </trkpt>
      <trkpt lat="46.01444" lon="5.84461">
        <ele>455.5</ele>
        <time>2022-09-26T13:26:04Z</time>
      </trkpt>
      <trkpt lat="46.01447" lon="5.84461">
        <ele>455.6</ele>
        <time>2022-09-26T13:26:05Z</time>
      </trkpt>
      <trkpt lat="46.0145" lon="5.84461">
        <ele>455.7</ele>
        <time>2022-09-26T13:26:06Z</time>
      </trkpt>
      <trkpt lat="46.01453" lon="5.84462">
        <ele>455.9</ele>
        <time>2022-09-26T13:26:07Z</time>
      </trkpt>
      <trkpt lat="46.01456" lon="5.84462">
        <ele>456</ele>
        <time>2022-09-26T13:26:08Z</time>
      </trkpt>
      <trkpt lat="46.01459" lon="5.84463">
        <ele>456.1</ele>
        <time>2022-09-26T13:26:09Z</time>
      </trkpt>
      <trkpt lat="46.01462" lon="5.84463">
        <ele>456.3</ele>
        <time>2022-09-26T13:26:10Z</time>
      </trkpt>
      <trkpt lat="46.01464" lon="5.84463">
        <ele>456.4</ele>
        <time>2022-09-26T13:26:11Z</time>
      </trkpt>
      <trkpt lat="46.01467" lon="5.84464">
        <ele>456.5</ele>
        <time>2022-09-26T13:26:12Z</time>
      </trkpt>
      <trkpt lat="46.01471" lon="5.84464">
        <ele>456.7</ele>
        <time>2022-09-26T13:26:13Z</time>
      </trkpt>
      <trkpt lat="46.01473" lon="5.84464">
        <ele>456.8</ele>
        <time>2022-09-26T13:26:14Z</time>
      </trkpt>
      <trkpt lat="46.01477" lon="5.84464">
        <ele>457</ele>
        <time>2022-09-26T13:26:15Z</time>
      </trkpt>
      <trkpt lat="46.01478" lon="5.84464">
        <ele>457.1</ele>
        <time>2022-09-26T13:26:16Z</time>
      </trkpt>
      <trkpt lat="46.01482" lon="5.84465">
        <ele>457.3</ele>
        <time>2022-09-26T13:26:17Z</time>
      </trkpt>
      <trkpt lat="46.01483" lon="5.84465">
        <ele>457.4</ele>
        <time>2022-09-26T13:26:18Z</time>
      </trkpt>
      <trkpt lat="46.01486" lon="5.84464">
        <ele>457.5</ele>
        <time>2022-09-26T13:26:19Z</time>
      </trkpt>
      <trkpt lat="46.01487" lon="5.84464">
        <ele>457.6</ele>
        <time>2022-09-26T13:26:20Z</time>
      </trkpt>
      <trkpt lat="46.0149" lon="5.84465">
        <ele>457.8</ele>
        <time>2022-09-26T13:26:21Z</time>
      </trkpt>
      <trkpt lat="46.01491" lon="5.84465">
        <ele>457.9</ele>
        <time>2022-09-26T13:26:22Z</time>
      </trkpt>
      <trkpt lat="46.01495" lon="5.84466">
        <ele>458.2</ele>
        <time>2022-09-26T13:26:23Z</time>
      </trkpt>
      <trkpt lat="46.01496" lon="5.84466">
        <ele>458.2</ele>
        <time>2022-09-26T13:26:24Z</time>
      </trkpt>
      <trkpt lat="46.01499" lon="5.84467">
        <ele>458.5</ele>
        <time>2022-09-26T13:26:25Z</time>
      </trkpt>
      <trkpt lat="46.015" lon="5.84467">
        <ele>458.5</ele>
        <time>2022-09-26T13:26:26Z</time>
      </trkpt>
      <trkpt lat="46.01503" lon="5.84467">
        <ele>458.7</ele>
        <time>2022-09-26T13:26:27Z</time>
      </trkpt>
      <trkpt lat="46.01504" lon="5.84467">
        <ele>458.8</ele>
        <time>2022-09-26T13:26:28Z</time>
      </trkpt>
      <trkpt lat="46.01507" lon="5.84467">
        <ele>459</ele>
        <time>2022-09-26T13:26:29Z</time>
      </trkpt>
      <trkpt lat="46.01508" lon="5.84467">
        <ele>459.1</ele>
        <time>2022-09-26T13:26:30Z</time>
      </trkpt>
      <trkpt lat="46.01511" lon="5.84467">
        <ele>459.3</ele>
        <time>2022-09-26T13:26:31Z</time>
      </trkpt>
      <trkpt lat="46.01512" lon="5.84468">
        <ele>459.4</ele>
        <time>2022-09-26T13:26:32Z</time>
      </trkpt>
      <trkpt lat="46.01514" lon="5.84468">
        <ele>459.5</ele>
        <time>2022-09-26T13:26:33Z</time>
      </trkpt>
      <trkpt lat="46.01515" lon="5.84468">
        <ele>459.6</ele>
        <time>2022-09-26T13:26:34Z</time>
      </trkpt>
      <trkpt lat="46.01517" lon="5.84468">
        <ele>459.7</ele>
        <time>2022-09-26T13:26:35Z</time>
      </trkpt>
      <trkpt lat="46.01519" lon="5.84468">
        <ele>459.8</ele>
        <time>2022-09-26T13:26:36Z</time>
      </trkpt>
      <trkpt lat="46.0152" lon="5.84468">
        <ele>459.9</ele>
        <time>2022-09-26T13:26:37Z</time>
      </trkpt>
      <trkpt lat="46.01522" lon="5.84468">
        <ele>460.1</ele>
        <time>2022-09-26T13:26:38Z</time>
      </trkpt>
      <trkpt lat="46.01524" lon="5.84469">
        <ele>460.2</ele>
        <time>2022-09-26T13:26:39Z</time>
      </trkpt>
      <trkpt lat="46.01526" lon="5.8447">
        <ele>460.3</ele>
        <time>2022-09-26T13:26:40Z</time>
      </trkpt>
      <trkpt lat="46.01527" lon="5.8447">
        <ele>460.4</ele>
        <time>2022-09-26T13:26:41Z</time>
      </trkpt>
      <trkpt lat="46.01529" lon="5.8447">
        <ele>460.5</ele>
        <time>2022-09-26T13:26:42Z</time>
      </trkpt>
      <trkpt lat="46.01531" lon="5.8447">
        <ele>460.6</ele>
        <time>2022-09-26T13:26:43Z</time>
      </trkpt>
      <trkpt lat="46.01532" lon="5.8447">
        <ele>460.7</ele>
        <time>2022-09-26T13:26:44Z</time>
      </trkpt>
      <trkpt lat="46.01534" lon="5.8447">
        <ele>460.9</ele>
        <time>2022-09-26T13:26:45Z</time>
      </trkpt>
      <trkpt lat="46.01536" lon="5.8447">
        <ele>461</ele>
        <time>2022-09-26T13:26:46Z</time>
      </trkpt>
      <trkpt lat="46.01538" lon="5.84471">
        <ele>461.1</ele>
        <time>2022-09-26T13:26:47Z</time>
      </trkpt>
      <trkpt lat="46.01539" lon="5.84471">
        <ele>461.2</ele>
        <time>2022-09-26T13:26:48Z</time>
      </trkpt>
      <trkpt lat="46.01541" lon="5.84472">
        <ele>461.3</ele>
        <time>2022-09-26T13:26:49Z</time>
      </trkpt>
      <trkpt lat="46.01543" lon="5.84472">
        <ele>461.4</ele>
        <time>2022-09-26T13:26:50Z</time>
      </trkpt>
      <trkpt lat="46.01544" lon="5.84472">
        <ele>461.5</ele>
        <time>2022-09-26T13:26:51Z</time>
      </trkpt>
      <trkpt lat="46.01548" lon="5.84473">
        <ele>461.7</ele>
        <time>2022-09-26T13:26:52Z</time>
      </trkpt>
      <trkpt lat="46.01549" lon="5.84473">
        <ele>461.8</ele>
        <time>2022-09-26T13:26:53Z</time>
      </trkpt>
      <trkpt lat="46.01551" lon="5.84473">
        <ele>461.9</ele>
        <time>2022-09-26T13:26:54Z</time>
      </trkpt>
      <trkpt lat="46.01553" lon="5.84473">
        <ele>462</ele>
        <time>2022-09-26T13:26:55Z</time>
      </trkpt>
      <trkpt lat="46.01554" lon="5.84474">
        <ele>462.1</ele>
        <time>2022-09-26T13:26:56Z</time>
      </trkpt>
      <trkpt lat="46.01556" lon="5.84474">
        <ele>462.2</ele>
        <time>2022-09-26T13:26:57Z</time>
      </trkpt>
      <trkpt lat="46.01558" lon="5.84474">
        <ele>462.3</ele>
        <time>2022-09-26T13:26:58Z</time>
      </trkpt>
      <trkpt lat="46.01559" lon="5.84475">
        <ele>462.4</ele>
        <time>2022-09-26T13:26:59Z</time>
      </trkpt>
      <trkpt lat="46.01562" lon="5.84475">
        <ele>462.6</ele>
        <time>2022-09-26T13:27:00Z</time>
      </trkpt>
      <trkpt lat="46.01563" lon="5.84476">
        <ele>462.7</ele>
        <time>2022-09-26T13:27:01Z</time>
      </trkpt>
      <trkpt lat="46.01565" lon="5.84476">
        <ele>462.8</ele>
        <time>2022-09-26T13:27:02Z</time>
      </trkpt>
      <trkpt lat="46.01566" lon="5.84477">
        <ele>462.9</ele>
        <time>2022-09-26T13:27:03Z</time>
      </trkpt>
      <trkpt lat="46.01568" lon="5.84477">
        <ele>463</ele>
        <time>2022-09-26T13:27:04Z</time>
      </trkpt>
      <trkpt lat="46.0157" lon="5.84478">
        <ele>463.2</ele>
        <time>2022-09-26T13:27:05Z</time>
      </trkpt>
      <trkpt lat="46.01571" lon="5.84479">
        <ele>463.3</ele>
        <time>2022-09-26T13:27:06Z</time>
      </trkpt>
      <trkpt lat="46.01573" lon="5.84479">
        <ele>463.4</ele>
        <time>2022-09-26T13:27:07Z</time>
      </trkpt>
      <trkpt lat="46.01575" lon="5.8448">
        <ele>463.5</ele>
        <time>2022-09-26T13:27:08Z</time>
      </trkpt>
      <trkpt lat="46.01577" lon="5.8448">
        <ele>463.6</ele>
        <time>2022-09-26T13:27:09Z</time>
      </trkpt>
      <trkpt lat="46.01578" lon="5.8448">
        <ele>463.7</ele>
        <time>2022-09-26T13:27:10Z</time>
      </trkpt>
      <trkpt lat="46.0158" lon="5.84481">
        <ele>463.8</ele>
        <time>2022-09-26T13:27:11Z</time>
      </trkpt>
      <trkpt lat="46.01581" lon="5.84481">
        <ele>463.9</ele>
        <time>2022-09-26T13:27:12Z</time>
      </trkpt>
      <trkpt lat="46.01583" lon="5.84482">
        <ele>464.1</ele>
        <time>2022-09-26T13:27:13Z</time>
      </trkpt>
      <trkpt lat="46.01585" lon="5.84483">
        <ele>464.2</ele>
        <time>2022-09-26T13:27:14Z</time>
      </trkpt>
      <trkpt lat="46.01586" lon="5.84483">
        <ele>464.3</ele>
        <time>2022-09-26T13:27:15Z</time>
      </trkpt>
      <trkpt lat="46.01587" lon="5.84484">
        <ele>464.4</ele>
        <time>2022-09-26T13:27:17Z</time>
      </trkpt>
      <trkpt lat="46.01589" lon="5.84484">
        <ele>464.5</ele>
        <time>2022-09-26T13:27:18Z</time>
      </trkpt>
      <trkpt lat="46.01591" lon="5.84485">
        <ele>464.7</ele>
        <time>2022-09-26T13:27:19Z</time>
      </trkpt>
      <trkpt lat="46.01592" lon="5.84485">
        <ele>464.8</ele>
        <time>2022-09-26T13:27:20Z</time>
      </trkpt>
      <trkpt lat="46.01594" lon="5.84486">
        <ele>464.9</ele>
        <time>2022-09-26T13:27:21Z</time>
      </trkpt>
      <trkpt lat="46.01596" lon="5.84486">
        <ele>465.1</ele>
        <time>2022-09-26T13:27:22Z</time>
      </trkpt>
      <trkpt lat="46.01598" lon="5.84487">
        <ele>465.2</ele>
        <time>2022-09-26T13:27:23Z</time>
      </trkpt>
      <trkpt lat="46.01599" lon="5.84487">
        <ele>465.4</ele>
        <time>2022-09-26T13:27:24Z</time>
      </trkpt>
      <trkpt lat="46.01601" lon="5.84488">
        <ele>465.5</ele>
        <time>2022-09-26T13:27:25Z</time>
      </trkpt>
      <trkpt lat="46.01603" lon="5.84488">
        <ele>465.6</ele>
        <time>2022-09-26T13:27:26Z</time>
      </trkpt>
      <trkpt lat="46.01604" lon="5.84488">
        <ele>465.8</ele>
        <time>2022-09-26T13:27:27Z</time>
      </trkpt>
      <trkpt lat="46.01606" lon="5.84489">
        <ele>465.9</ele>
        <time>2022-09-26T13:27:28Z</time>
      </trkpt>
      <trkpt lat="46.01608" lon="5.84489">
        <ele>466.1</ele>
        <time>2022-09-26T13:27:29Z</time>
      </trkpt>
      <trkpt lat="46.01609" lon="5.8449">
        <ele>466.2</ele>
        <time>2022-09-26T13:27:30Z</time>
      </trkpt>
      <trkpt lat="46.01611" lon="5.84491">
        <ele>466.3</ele>
        <time>2022-09-26T13:27:31Z</time>
      </trkpt>
      <trkpt lat="46.01613" lon="5.84492">
        <ele>466.5</ele>
        <time>2022-09-26T13:27:32Z</time>
      </trkpt>
      <trkpt lat="46.01614" lon="5.84492">
        <ele>466.6</ele>
        <time>2022-09-26T13:27:33Z</time>
      </trkpt>
      <trkpt lat="46.01616" lon="5.84493">
        <ele>466.7</ele>
        <time>2022-09-26T13:27:34Z</time>
      </trkpt>
      <trkpt lat="46.01619" lon="5.84493">
        <ele>467</ele>
        <time>2022-09-26T13:27:35Z</time>
      </trkpt>
      <trkpt lat="46.0162" lon="5.84493">
        <ele>467</ele>
        <time>2022-09-26T13:27:36Z</time>
      </trkpt>
      <trkpt lat="46.01621" lon="5.84494">
        <ele>467.1</ele>
        <time>2022-09-26T13:27:37Z</time>
      </trkpt>
      <trkpt lat="46.01623" lon="5.84494">
        <ele>467.3</ele>
        <time>2022-09-26T13:27:38Z</time>
      </trkpt>
      <trkpt lat="46.01624" lon="5.84494">
        <ele>467.4</ele>
        <time>2022-09-26T13:27:39Z</time>
      </trkpt>
      <trkpt lat="46.01625" lon="5.84495">
        <ele>467.4</ele>
        <time>2022-09-26T13:27:40Z</time>
      </trkpt>
      <trkpt lat="46.01628" lon="5.84496">
        <ele>467.7</ele>
        <time>2022-09-26T13:27:41Z</time>
      </trkpt>
      <trkpt lat="46.01629" lon="5.84496">
        <ele>467.8</ele>
        <time>2022-09-26T13:27:42Z</time>
      </trkpt>
      <trkpt lat="46.01631" lon="5.84497">
        <ele>467.9</ele>
        <time>2022-09-26T13:27:43Z</time>
      </trkpt>
      <trkpt lat="46.01632" lon="5.84498">
        <ele>468</ele>
        <time>2022-09-26T13:27:44Z</time>
      </trkpt>
      <trkpt lat="46.01633" lon="5.84498">
        <ele>468.2</ele>
        <time>2022-09-26T13:27:45Z</time>
      </trkpt>
      <trkpt lat="46.01636" lon="5.84498">
        <ele>468.4</ele>
        <time>2022-09-26T13:27:46Z</time>
      </trkpt>
      <trkpt lat="46.01638" lon="5.84499">
        <ele>468.6</ele>
        <time>2022-09-26T13:27:47Z</time>
      </trkpt>
      <trkpt lat="46.01639" lon="5.845">
        <ele>468.6</ele>
        <time>2022-09-26T13:27:48Z</time>
      </trkpt>
      <trkpt lat="46.01641" lon="5.845">
        <ele>468.8</ele>
        <time>2022-09-26T13:27:49Z</time>
      </trkpt>
      <trkpt lat="46.01642" lon="5.84499">
        <ele>468.9</ele>
        <time>2022-09-26T13:27:50Z</time>
      </trkpt>
      <trkpt lat="46.01644" lon="5.845">
        <ele>469</ele>
        <time>2022-09-26T13:27:51Z</time>
      </trkpt>
      <trkpt lat="46.01645" lon="5.845">
        <ele>469.1</ele>
        <time>2022-09-26T13:27:52Z</time>
      </trkpt>
      <trkpt lat="46.01647" lon="5.84501">
        <ele>469.3</ele>
        <time>2022-09-26T13:27:53Z</time>
      </trkpt>
      <trkpt lat="46.01648" lon="5.84501">
        <ele>469.3</ele>
        <time>2022-09-26T13:27:54Z</time>
      </trkpt>
      <trkpt lat="46.0165" lon="5.84502">
        <ele>469.5</ele>
        <time>2022-09-26T13:27:55Z</time>
      </trkpt>
      <trkpt lat="46.0165" lon="5.84502">
        <ele>469.6</ele>
        <time>2022-09-26T13:27:56Z</time>
      </trkpt>
      <trkpt lat="46.01652" lon="5.84502">
        <ele>469.7</ele>
        <time>2022-09-26T13:27:57Z</time>
      </trkpt>
      <trkpt lat="46.01653" lon="5.84503">
        <ele>469.8</ele>
        <time>2022-09-26T13:27:58Z</time>
      </trkpt>
      <trkpt lat="46.01655" lon="5.84504">
        <ele>470</ele>
        <time>2022-09-26T13:27:59Z</time>
      </trkpt>
      <trkpt lat="46.01656" lon="5.84504">
        <ele>470</ele>
        <time>2022-09-26T13:28:00Z</time>
      </trkpt>
      <trkpt lat="46.01658" lon="5.84505">
        <ele>470.2</ele>
        <time>2022-09-26T13:28:01Z</time>
      </trkpt>
      <trkpt lat="46.01659" lon="5.84505">
        <ele>470.3</ele>
        <time>2022-09-26T13:28:02Z</time>
      </trkpt>
      <trkpt lat="46.01661" lon="5.84506">
        <ele>470.4</ele>
        <time>2022-09-26T13:28:03Z</time>
      </trkpt>
      <trkpt lat="46.01662" lon="5.84507">
        <ele>470.5</ele>
        <time>2022-09-26T13:28:04Z</time>
      </trkpt>
      <trkpt lat="46.01663" lon="5.84508">
        <ele>470.6</ele>
        <time>2022-09-26T13:28:05Z</time>
      </trkpt>
      <trkpt lat="46.01664" lon="5.84509">
        <ele>470.7</ele>
        <time>2022-09-26T13:28:06Z</time>
      </trkpt>
      <trkpt lat="46.01667" lon="5.8451">
        <ele>470.9</ele>
        <time>2022-09-26T13:28:07Z</time>
      </trkpt>
      <trkpt lat="46.01667" lon="5.8451">
        <ele>471</ele>
        <time>2022-09-26T13:28:08Z</time>
      </trkpt>
      <trkpt lat="46.0167" lon="5.84512">
        <ele>471.2</ele>
        <time>2022-09-26T13:28:09Z</time>
      </trkpt>
      <trkpt lat="46.0167" lon="5.84513">
        <ele>471.2</ele>
        <time>2022-09-26T13:28:10Z</time>
      </trkpt>
      <trkpt lat="46.01672" lon="5.84514">
        <ele>471.3</ele>
        <time>2022-09-26T13:28:11Z</time>
      </trkpt>
      <trkpt lat="46.01673" lon="5.84515">
        <ele>471.4</ele>
        <time>2022-09-26T13:28:12Z</time>
      </trkpt>
      <trkpt lat="46.01675" lon="5.84517">
        <ele>471.6</ele>
        <time>2022-09-26T13:28:13Z</time>
      </trkpt>
      <trkpt lat="46.01675" lon="5.84517">
        <ele>471.6</ele>
        <time>2022-09-26T13:28:14Z</time>
      </trkpt>
      <trkpt lat="46.01677" lon="5.84519">
        <ele>471.8</ele>
        <time>2022-09-26T13:28:15Z</time>
      </trkpt>
      <trkpt lat="46.01678" lon="5.84519">
        <ele>471.8</ele>
        <time>2022-09-26T13:28:16Z</time>
      </trkpt>
      <trkpt lat="46.0168" lon="5.84522">
        <ele>472</ele>
        <time>2022-09-26T13:28:17Z</time>
      </trkpt>
      <trkpt lat="46.01681" lon="5.84522">
        <ele>472</ele>
        <time>2022-09-26T13:28:18Z</time>
      </trkpt>
      <trkpt lat="46.01682" lon="5.84524">
        <ele>472.2</ele>
        <time>2022-09-26T13:28:19Z</time>
      </trkpt>
      <trkpt lat="46.01684" lon="5.84526">
        <ele>472.3</ele>
        <time>2022-09-26T13:28:20Z</time>
      </trkpt>
      <trkpt lat="46.01685" lon="5.84527">
        <ele>472.4</ele>
        <time>2022-09-26T13:28:21Z</time>
      </trkpt>
      <trkpt lat="46.01686" lon="5.84528">
        <ele>472.4</ele>
        <time>2022-09-26T13:28:22Z</time>
      </trkpt>
      <trkpt lat="46.01688" lon="5.84529">
        <ele>472.5</ele>
        <time>2022-09-26T13:28:23Z</time>
      </trkpt>
      <trkpt lat="46.01689" lon="5.84531">
        <ele>472.6</ele>
        <time>2022-09-26T13:28:24Z</time>
      </trkpt>
      <trkpt lat="46.0169" lon="5.84533">
        <ele>472.7</ele>
        <time>2022-09-26T13:28:25Z</time>
      </trkpt>
      <trkpt lat="46.01691" lon="5.84534">
        <ele>472.8</ele>
        <time>2022-09-26T13:28:26Z</time>
      </trkpt>
      <trkpt lat="46.01693" lon="5.84535">
        <ele>472.9</ele>
        <time>2022-09-26T13:28:27Z</time>
      </trkpt>
      <trkpt lat="46.01694" lon="5.84537">
        <ele>472.9</ele>
        <time>2022-09-26T13:28:28Z</time>
      </trkpt>
      <trkpt lat="46.01695" lon="5.84538">
        <ele>473</ele>
        <time>2022-09-26T13:28:29Z</time>
      </trkpt>
      <trkpt lat="46.01697" lon="5.8454">
        <ele>473</ele>
        <time>2022-09-26T13:28:30Z</time>
      </trkpt>
      <trkpt lat="46.01698" lon="5.84541">
        <ele>473.1</ele>
        <time>2022-09-26T13:28:31Z</time>
      </trkpt>
      <trkpt lat="46.01699" lon="5.84542">
        <ele>473.1</ele>
        <time>2022-09-26T13:28:32Z</time>
      </trkpt>
      <trkpt lat="46.017" lon="5.84542">
        <ele>473.2</ele>
        <time>2022-09-26T13:28:33Z</time>
      </trkpt>
      <trkpt lat="46.01701" lon="5.84543">
        <ele>473.2</ele>
        <time>2022-09-26T13:28:34Z</time>
      </trkpt>
      <trkpt lat="46.01702" lon="5.84544">
        <ele>473.2</ele>
        <time>2022-09-26T13:28:35Z</time>
      </trkpt>
      <trkpt lat="46.01702" lon="5.84544">
        <ele>473.2</ele>
        <time>2022-09-26T13:28:36Z</time>
      </trkpt>
      <trkpt lat="46.01703" lon="5.84545">
        <ele>473.3</ele>
        <time>2022-09-26T13:28:37Z</time>
      </trkpt>
      <trkpt lat="46.01704" lon="5.84546">
        <ele>473.3</ele>
        <time>2022-09-26T13:28:38Z</time>
      </trkpt>
      <trkpt lat="46.01705" lon="5.84547">
        <ele>473.3</ele>
        <time>2022-09-26T13:28:39Z</time>
      </trkpt>
      <trkpt lat="46.01706" lon="5.84547">
        <ele>473.4</ele>
        <time>2022-09-26T13:28:40Z</time>
      </trkpt>
      <trkpt lat="46.01706" lon="5.84548">
        <ele>473.4</ele>
        <time>2022-09-26T13:28:41Z</time>
      </trkpt>
      <trkpt lat="46.01707" lon="5.84549">
        <ele>473.4</ele>
        <time>2022-09-26T13:28:42Z</time>
      </trkpt>
      <trkpt lat="46.01708" lon="5.84549">
        <ele>473.4</ele>
        <time>2022-09-26T13:29:08Z</time>
      </trkpt>
      <trkpt lat="46.01709" lon="5.8455">
        <ele>473.5</ele>
        <time>2022-09-26T13:29:09Z</time>
      </trkpt>
      <trkpt lat="46.01711" lon="5.84553">
        <ele>473.6</ele>
        <time>2022-09-26T13:29:10Z</time>
      </trkpt>
      <trkpt lat="46.01712" lon="5.84554">
        <ele>473.6</ele>
        <time>2022-09-26T13:29:11Z</time>
      </trkpt>
      <trkpt lat="46.01715" lon="5.84557">
        <ele>473.7</ele>
        <time>2022-09-26T13:29:12Z</time>
      </trkpt>
      <trkpt lat="46.01716" lon="5.84558">
        <ele>473.7</ele>
        <time>2022-09-26T13:29:13Z</time>
      </trkpt>
      <trkpt lat="46.01717" lon="5.84562">
        <ele>473.8</ele>
        <time>2022-09-26T13:29:14Z</time>
      </trkpt>
      <trkpt lat="46.01718" lon="5.84563">
        <ele>473.9</ele>
        <time>2022-09-26T13:29:15Z</time>
      </trkpt>
      <trkpt lat="46.01721" lon="5.84565">
        <ele>474</ele>
        <time>2022-09-26T13:29:16Z</time>
      </trkpt>
      <trkpt lat="46.01724" lon="5.84568">
        <ele>474.1</ele>
        <time>2022-09-26T13:29:17Z</time>
      </trkpt>
      <trkpt lat="46.01725" lon="5.84569">
        <ele>474.1</ele>
        <time>2022-09-26T13:29:18Z</time>
      </trkpt>
      <trkpt lat="46.01727" lon="5.84572">
        <ele>474.2</ele>
        <time>2022-09-26T13:29:19Z</time>
      </trkpt>
      <trkpt lat="46.01728" lon="5.84572">
        <ele>474.3</ele>
        <time>2022-09-26T13:29:20Z</time>
      </trkpt>
      <trkpt lat="46.01731" lon="5.84575">
        <ele>474.4</ele>
        <time>2022-09-26T13:29:21Z</time>
      </trkpt>
      <trkpt lat="46.01731" lon="5.84576">
        <ele>474.4</ele>
        <time>2022-09-26T13:29:22Z</time>
      </trkpt>
      <trkpt lat="46.01734" lon="5.8458">
        <ele>474.6</ele>
        <time>2022-09-26T13:29:23Z</time>
      </trkpt>
      <trkpt lat="46.01735" lon="5.84581">
        <ele>474.7</ele>
        <time>2022-09-26T13:29:24Z</time>
      </trkpt>
      <trkpt lat="46.01737" lon="5.84583">
        <ele>474.8</ele>
        <time>2022-09-26T13:29:25Z</time>
      </trkpt>
      <trkpt lat="46.01738" lon="5.84584">
        <ele>474.8</ele>
        <time>2022-09-26T13:29:26Z</time>
      </trkpt>
      <trkpt lat="46.0174" lon="5.84587">
        <ele>474.9</ele>
        <time>2022-09-26T13:29:27Z</time>
      </trkpt>
      <trkpt lat="46.01741" lon="5.84588">
        <ele>475</ele>
        <time>2022-09-26T13:29:28Z</time>
      </trkpt>
      <trkpt lat="46.01745" lon="5.84591">
        <ele>475.2</ele>
        <time>2022-09-26T13:29:29Z</time>
      </trkpt>
      <trkpt lat="46.01746" lon="5.84594">
        <ele>475.3</ele>
        <time>2022-09-26T13:29:30Z</time>
      </trkpt>
      <trkpt lat="46.01749" lon="5.84594">
        <ele>475.5</ele>
        <time>2022-09-26T13:29:31Z</time>
      </trkpt>
      <trkpt lat="46.0175" lon="5.84595">
        <ele>475.5</ele>
        <time>2022-09-26T13:29:32Z</time>
      </trkpt>
      <trkpt lat="46.01751" lon="5.84596">
        <ele>475.6</ele>
        <time>2022-09-26T13:29:33Z</time>
      </trkpt>
      <trkpt lat="46.01752" lon="5.84597">
        <ele>475.7</ele>
        <time>2022-09-26T13:29:34Z</time>
      </trkpt>
      <trkpt lat="46.01754" lon="5.84598">
        <ele>475.8</ele>
        <time>2022-09-26T13:29:35Z</time>
      </trkpt>
      <trkpt lat="46.01756" lon="5.846">
        <ele>476</ele>
        <time>2022-09-26T13:29:36Z</time>
      </trkpt>
      <trkpt lat="46.01757" lon="5.84601">
        <ele>476</ele>
        <time>2022-09-26T13:29:37Z</time>
      </trkpt>
      <trkpt lat="46.01759" lon="5.84602">
        <ele>476.2</ele>
        <time>2022-09-26T13:29:38Z</time>
      </trkpt>
      <trkpt lat="46.0176" lon="5.84603">
        <ele>476.3</ele>
        <time>2022-09-26T13:29:39Z</time>
      </trkpt>
      <trkpt lat="46.01761" lon="5.84604">
        <ele>476.4</ele>
        <time>2022-09-26T13:29:40Z</time>
      </trkpt>
      <trkpt lat="46.01763" lon="5.84605">
        <ele>476.5</ele>
        <time>2022-09-26T13:29:41Z</time>
      </trkpt>
      <trkpt lat="46.01764" lon="5.84606">
        <ele>476.6</ele>
        <time>2022-09-26T13:29:42Z</time>
      </trkpt>
      <trkpt lat="46.01766" lon="5.84607">
        <ele>476.7</ele>
        <time>2022-09-26T13:29:43Z</time>
      </trkpt>
      <trkpt lat="46.01767" lon="5.84607">
        <ele>476.8</ele>
        <time>2022-09-26T13:29:44Z</time>
      </trkpt>
      <trkpt lat="46.01769" lon="5.84608">
        <ele>476.9</ele>
        <time>2022-09-26T13:29:45Z</time>
      </trkpt>
      <trkpt lat="46.0177" lon="5.84609">
        <ele>477.1</ele>
        <time>2022-09-26T13:29:46Z</time>
      </trkpt>
      <trkpt lat="46.01772" lon="5.84609">
        <ele>477.2</ele>
        <time>2022-09-26T13:29:47Z</time>
      </trkpt>
      <trkpt lat="46.01774" lon="5.84612">
        <ele>477.4</ele>
        <time>2022-09-26T13:29:48Z</time>
      </trkpt>
      <trkpt lat="46.01775" lon="5.84613">
        <ele>477.4</ele>
        <time>2022-09-26T13:29:49Z</time>
      </trkpt>
      <trkpt lat="46.01776" lon="5.84614">
        <ele>477.6</ele>
        <time>2022-09-26T13:29:50Z</time>
      </trkpt>
      <trkpt lat="46.01778" lon="5.84614">
        <ele>477.7</ele>
        <time>2022-09-26T13:29:51Z</time>
      </trkpt>
      <trkpt lat="46.01779" lon="5.84615">
        <ele>477.8</ele>
        <time>2022-09-26T13:29:52Z</time>
      </trkpt>
      <trkpt lat="46.01781" lon="5.84616">
        <ele>478</ele>
        <time>2022-09-26T13:29:53Z</time>
      </trkpt>
      <trkpt lat="46.01782" lon="5.84617">
        <ele>478.1</ele>
        <time>2022-09-26T13:29:54Z</time>
      </trkpt>
      <trkpt lat="46.01784" lon="5.84618">
        <ele>478.2</ele>
        <time>2022-09-26T13:29:55Z</time>
      </trkpt>
      <trkpt lat="46.01785" lon="5.84619">
        <ele>478.3</ele>
        <time>2022-09-26T13:29:56Z</time>
      </trkpt>
      <trkpt lat="46.01787" lon="5.8462">
        <ele>478.5</ele>
        <time>2022-09-26T13:29:57Z</time>
      </trkpt>
      <trkpt lat="46.01788" lon="5.8462">
        <ele>478.6</ele>
        <time>2022-09-26T13:29:58Z</time>
      </trkpt>
      <trkpt lat="46.01789" lon="5.84621">
        <ele>478.8</ele>
        <time>2022-09-26T13:29:59Z</time>
      </trkpt>
      <trkpt lat="46.01792" lon="5.84621">
        <ele>479</ele>
        <time>2022-09-26T13:30:00Z</time>
      </trkpt>
      <trkpt lat="46.01793" lon="5.84621">
        <ele>479</ele>
        <time>2022-09-26T13:30:01Z</time>
      </trkpt>
      <trkpt lat="46.01795" lon="5.8462">
        <ele>479.2</ele>
        <time>2022-09-26T13:30:02Z</time>
      </trkpt>
      <trkpt lat="46.01796" lon="5.8462">
        <ele>479.2</ele>
        <time>2022-09-26T13:30:03Z</time>
      </trkpt>
      <trkpt lat="46.01797" lon="5.8462">
        <ele>479.3</ele>
        <time>2022-09-26T13:30:04Z</time>
      </trkpt>
      <trkpt lat="46.01799" lon="5.84619">
        <ele>479.4</ele>
        <time>2022-09-26T13:30:05Z</time>
      </trkpt>
      <trkpt lat="46.018" lon="5.84618">
        <ele>479.5</ele>
        <time>2022-09-26T13:30:06Z</time>
      </trkpt>
      <trkpt lat="46.018" lon="5.84618">
        <ele>479.5</ele>
        <time>2022-09-26T13:30:07Z</time>
      </trkpt>
      <trkpt lat="46.01802" lon="5.84617">
        <ele>479.7</ele>
        <time>2022-09-26T13:30:08Z</time>
      </trkpt>
      <trkpt lat="46.01803" lon="5.84616">
        <ele>479.7</ele>
        <time>2022-09-26T13:30:09Z</time>
      </trkpt>
      <trkpt lat="46.01805" lon="5.84615">
        <ele>479.9</ele>
        <time>2022-09-26T13:30:10Z</time>
      </trkpt>
      <trkpt lat="46.01806" lon="5.84614">
        <ele>479.9</ele>
        <time>2022-09-26T13:30:11Z</time>
      </trkpt>
      <trkpt lat="46.01806" lon="5.84613">
        <ele>479.9</ele>
        <time>2022-09-26T13:30:12Z</time>
      </trkpt>
      <trkpt lat="46.01808" lon="5.84612">
        <ele>480.1</ele>
        <time>2022-09-26T13:30:13Z</time>
      </trkpt>
      <trkpt lat="46.01809" lon="5.84611">
        <ele>480.1</ele>
        <time>2022-09-26T13:30:14Z</time>
      </trkpt>
      <trkpt lat="46.0181" lon="5.84611">
        <ele>480.2</ele>
        <time>2022-09-26T13:30:15Z</time>
      </trkpt>
      <trkpt lat="46.01812" lon="5.8461">
        <ele>480.3</ele>
        <time>2022-09-26T13:30:16Z</time>
      </trkpt>
      <trkpt lat="46.01813" lon="5.8461">
        <ele>480.4</ele>
        <time>2022-09-26T13:30:17Z</time>
      </trkpt>
      <trkpt lat="46.01815" lon="5.84609">
        <ele>480.5</ele>
        <time>2022-09-26T13:30:18Z</time>
      </trkpt>
      <trkpt lat="46.01816" lon="5.84608">
        <ele>480.5</ele>
        <time>2022-09-26T13:30:19Z</time>
      </trkpt>
      <trkpt lat="46.01818" lon="5.84607">
        <ele>480.6</ele>
        <time>2022-09-26T13:30:20Z</time>
      </trkpt>
      <trkpt lat="46.01819" lon="5.84606">
        <ele>480.6</ele>
        <time>2022-09-26T13:30:21Z</time>
      </trkpt>
      <trkpt lat="46.01822" lon="5.84604">
        <ele>480.8</ele>
        <time>2022-09-26T13:30:22Z</time>
      </trkpt>
      <trkpt lat="46.01823" lon="5.84604">
        <ele>480.9</ele>
        <time>2022-09-26T13:30:23Z</time>
      </trkpt>
      <trkpt lat="46.01824" lon="5.84603">
        <ele>480.9</ele>
        <time>2022-09-26T13:30:24Z</time>
      </trkpt>
      <trkpt lat="46.01826" lon="5.84602">
        <ele>481</ele>
        <time>2022-09-26T13:30:25Z</time>
      </trkpt>
      <trkpt lat="46.01827" lon="5.84601">
        <ele>481.1</ele>
        <time>2022-09-26T13:30:26Z</time>
      </trkpt>
      <trkpt lat="46.01829" lon="5.846">
        <ele>481.2</ele>
        <time>2022-09-26T13:30:27Z</time>
      </trkpt>
      <trkpt lat="46.01831" lon="5.84599">
        <ele>481.4</ele>
        <time>2022-09-26T13:30:28Z</time>
      </trkpt>
      <trkpt lat="46.01832" lon="5.84599">
        <ele>481.4</ele>
        <time>2022-09-26T13:30:29Z</time>
      </trkpt>
      <trkpt lat="46.01833" lon="5.84598">
        <ele>481.5</ele>
        <time>2022-09-26T13:30:30Z</time>
      </trkpt>
      <trkpt lat="46.01836" lon="5.84598">
        <ele>481.6</ele>
        <time>2022-09-26T13:30:31Z</time>
      </trkpt>
      <trkpt lat="46.01836" lon="5.84598">
        <ele>481.7</ele>
        <time>2022-09-26T13:30:32Z</time>
      </trkpt>
      <trkpt lat="46.01837" lon="5.84597">
        <ele>481.7</ele>
        <time>2022-09-26T13:30:33Z</time>
      </trkpt>
      <trkpt lat="46.01839" lon="5.84596">
        <ele>481.8</ele>
        <time>2022-09-26T13:30:34Z</time>
      </trkpt>
      <trkpt lat="46.0184" lon="5.84597">
        <ele>481.9</ele>
        <time>2022-09-26T13:30:35Z</time>
      </trkpt>
      <trkpt lat="46.01842" lon="5.84597">
        <ele>482</ele>
        <time>2022-09-26T13:30:36Z</time>
      </trkpt>
      <trkpt lat="46.01844" lon="5.84597">
        <ele>482.2</ele>
        <time>2022-09-26T13:30:37Z</time>
      </trkpt>
      <trkpt lat="46.01846" lon="5.84598">
        <ele>482.3</ele>
        <time>2022-09-26T13:30:38Z</time>
      </trkpt>
      <trkpt lat="46.01847" lon="5.84599">
        <ele>482.4</ele>
        <time>2022-09-26T13:30:39Z</time>
      </trkpt>
      <trkpt lat="46.01849" lon="5.84599">
        <ele>482.6</ele>
        <time>2022-09-26T13:30:40Z</time>
      </trkpt>
      <trkpt lat="46.01851" lon="5.84599">
        <ele>482.6</ele>
        <time>2022-09-26T13:30:41Z</time>
      </trkpt>
      <trkpt lat="46.01853" lon="5.846">
        <ele>482.8</ele>
        <time>2022-09-26T13:30:42Z</time>
      </trkpt>
      <trkpt lat="46.01854" lon="5.846">
        <ele>482.9</ele>
        <time>2022-09-26T13:30:43Z</time>
      </trkpt>
      <trkpt lat="46.01857" lon="5.846">
        <ele>483.1</ele>
        <time>2022-09-26T13:30:44Z</time>
      </trkpt>
      <trkpt lat="46.01858" lon="5.84601">
        <ele>483.2</ele>
        <time>2022-09-26T13:30:45Z</time>
      </trkpt>
      <trkpt lat="46.01861" lon="5.846">
        <ele>483.4</ele>
        <time>2022-09-26T13:30:46Z</time>
      </trkpt>
      <trkpt lat="46.01862" lon="5.846">
        <ele>483.6</ele>
        <time>2022-09-26T13:30:47Z</time>
      </trkpt>
      <trkpt lat="46.01865" lon="5.846">
        <ele>483.9</ele>
        <time>2022-09-26T13:30:48Z</time>
      </trkpt>
      <trkpt lat="46.01866" lon="5.846">
        <ele>484</ele>
        <time>2022-09-26T13:30:49Z</time>
      </trkpt>
      <trkpt lat="46.01869" lon="5.846">
        <ele>484.2</ele>
        <time>2022-09-26T13:30:50Z</time>
      </trkpt>
      <trkpt lat="46.0187" lon="5.846">
        <ele>484.3</ele>
        <time>2022-09-26T13:30:51Z</time>
      </trkpt>
      <trkpt lat="46.01873" lon="5.84601">
        <ele>484.6</ele>
        <time>2022-09-26T13:30:52Z</time>
      </trkpt>
      <trkpt lat="46.01874" lon="5.84601">
        <ele>484.7</ele>
        <time>2022-09-26T13:30:53Z</time>
      </trkpt>
      <trkpt lat="46.01876" lon="5.84602">
        <ele>484.9</ele>
        <time>2022-09-26T13:30:54Z</time>
      </trkpt>
      <trkpt lat="46.01877" lon="5.84603">
        <ele>485</ele>
        <time>2022-09-26T13:30:55Z</time>
      </trkpt>
      <trkpt lat="46.01878" lon="5.84603">
        <ele>485.1</ele>
        <time>2022-09-26T13:30:56Z</time>
      </trkpt>
      <trkpt lat="46.01879" lon="5.84604">
        <ele>485.3</ele>
        <time>2022-09-26T13:30:57Z</time>
      </trkpt>
      <trkpt lat="46.0188" lon="5.84606">
        <ele>485.4</ele>
        <time>2022-09-26T13:30:58Z</time>
      </trkpt>
      <trkpt lat="46.01882" lon="5.84606">
        <ele>485.6</ele>
        <time>2022-09-26T13:30:59Z</time>
      </trkpt>
      <trkpt lat="46.01884" lon="5.84608">
        <ele>485.8</ele>
        <time>2022-09-26T13:31:00Z</time>
      </trkpt>
      <trkpt lat="46.01884" lon="5.84608">
        <ele>485.9</ele>
        <time>2022-09-26T13:31:01Z</time>
      </trkpt>
      <trkpt lat="46.01886" lon="5.84609">
        <ele>486</ele>
        <time>2022-09-26T13:31:02Z</time>
      </trkpt>
      <trkpt lat="46.01887" lon="5.8461">
        <ele>486.2</ele>
        <time>2022-09-26T13:31:03Z</time>
      </trkpt>
      <trkpt lat="46.01888" lon="5.84612">
        <ele>486.4</ele>
        <time>2022-09-26T13:31:04Z</time>
      </trkpt>
      <trkpt lat="46.01889" lon="5.84613">
        <ele>486.5</ele>
        <time>2022-09-26T13:31:05Z</time>
      </trkpt>
      <trkpt lat="46.0189" lon="5.84614">
        <ele>486.6</ele>
        <time>2022-09-26T13:31:06Z</time>
      </trkpt>
      <trkpt lat="46.01892" lon="5.84616">
        <ele>486.8</ele>
        <time>2022-09-26T13:31:07Z</time>
      </trkpt>
      <trkpt lat="46.01893" lon="5.84616">
        <ele>486.9</ele>
        <time>2022-09-26T13:31:08Z</time>
      </trkpt>
      <trkpt lat="46.01893" lon="5.84617">
        <ele>487</ele>
        <time>2022-09-26T13:31:09Z</time>
      </trkpt>
      <trkpt lat="46.01895" lon="5.84619">
        <ele>487.3</ele>
        <time>2022-09-26T13:31:10Z</time>
      </trkpt>
      <trkpt lat="46.01896" lon="5.8462">
        <ele>487.3</ele>
        <time>2022-09-26T13:31:11Z</time>
      </trkpt>
      <trkpt lat="46.01896" lon="5.84621">
        <ele>487.4</ele>
        <time>2022-09-26T13:31:12Z</time>
      </trkpt>
      <trkpt lat="46.01899" lon="5.84623">
        <ele>487.7</ele>
        <time>2022-09-26T13:31:13Z</time>
      </trkpt>
      <trkpt lat="46.01899" lon="5.84624">
        <ele>487.8</ele>
        <time>2022-09-26T13:31:14Z</time>
      </trkpt>
      <trkpt lat="46.019" lon="5.84625">
        <ele>487.9</ele>
        <time>2022-09-26T13:31:15Z</time>
      </trkpt>
      <trkpt lat="46.01901" lon="5.84626">
        <ele>488</ele>
        <time>2022-09-26T13:31:16Z</time>
      </trkpt>
      <trkpt lat="46.01902" lon="5.84627">
        <ele>488.2</ele>
        <time>2022-09-26T13:31:17Z</time>
      </trkpt>
      <trkpt lat="46.01904" lon="5.84629">
        <ele>488.3</ele>
        <time>2022-09-26T13:31:18Z</time>
      </trkpt>
      <trkpt lat="46.01905" lon="5.84629">
        <ele>488.4</ele>
        <time>2022-09-26T13:31:19Z</time>
      </trkpt>
      <trkpt lat="46.01907" lon="5.84632">
        <ele>488.6</ele>
        <time>2022-09-26T13:31:20Z</time>
      </trkpt>
      <trkpt lat="46.01907" lon="5.84632">
        <ele>488.7</ele>
        <time>2022-09-26T13:31:21Z</time>
      </trkpt>
      <trkpt lat="46.01909" lon="5.84634">
        <ele>488.9</ele>
        <time>2022-09-26T13:31:22Z</time>
      </trkpt>
      <trkpt lat="46.0191" lon="5.84634">
        <ele>489</ele>
        <time>2022-09-26T13:31:23Z</time>
      </trkpt>
      <trkpt lat="46.01912" lon="5.84636">
        <ele>489.2</ele>
        <time>2022-09-26T13:31:24Z</time>
      </trkpt>
      <trkpt lat="46.01913" lon="5.84636">
        <ele>489.3</ele>
        <time>2022-09-26T13:31:25Z</time>
      </trkpt>
      <trkpt lat="46.01915" lon="5.84638">
        <ele>489.5</ele>
        <time>2022-09-26T13:31:26Z</time>
      </trkpt>
      <trkpt lat="46.01916" lon="5.84639">
        <ele>489.6</ele>
        <time>2022-09-26T13:31:27Z</time>
      </trkpt>
      <trkpt lat="46.01918" lon="5.8464">
        <ele>489.8</ele>
        <time>2022-09-26T13:31:28Z</time>
      </trkpt>
      <trkpt lat="46.01919" lon="5.84641">
        <ele>489.9</ele>
        <time>2022-09-26T13:31:29Z</time>
      </trkpt>
      <trkpt lat="46.01921" lon="5.84642">
        <ele>490.1</ele>
        <time>2022-09-26T13:31:30Z</time>
      </trkpt>
      <trkpt lat="46.01922" lon="5.84643">
        <ele>490.2</ele>
        <time>2022-09-26T13:31:31Z</time>
      </trkpt>
      <trkpt lat="46.01924" lon="5.84645">
        <ele>490.4</ele>
        <time>2022-09-26T13:31:32Z</time>
      </trkpt>
      <trkpt lat="46.01924" lon="5.84646">
        <ele>490.5</ele>
        <time>2022-09-26T13:31:33Z</time>
      </trkpt>
      <trkpt lat="46.01926" lon="5.84648">
        <ele>490.7</ele>
        <time>2022-09-26T13:31:34Z</time>
      </trkpt>
      <trkpt lat="46.01927" lon="5.84648">
        <ele>490.7</ele>
        <time>2022-09-26T13:31:35Z</time>
      </trkpt>
      <trkpt lat="46.01928" lon="5.8465">
        <ele>490.9</ele>
        <time>2022-09-26T13:31:36Z</time>
      </trkpt>
      <trkpt lat="46.01929" lon="5.8465">
        <ele>491</ele>
        <time>2022-09-26T13:31:37Z</time>
      </trkpt>
      <trkpt lat="46.01931" lon="5.84652">
        <ele>491.2</ele>
        <time>2022-09-26T13:31:38Z</time>
      </trkpt>
      <trkpt lat="46.01932" lon="5.84653">
        <ele>491.3</ele>
        <time>2022-09-26T13:31:39Z</time>
      </trkpt>
      <trkpt lat="46.01934" lon="5.84653">
        <ele>491.4</ele>
        <time>2022-09-26T13:31:40Z</time>
      </trkpt>
      <trkpt lat="46.01935" lon="5.84654">
        <ele>491.6</ele>
        <time>2022-09-26T13:31:41Z</time>
      </trkpt>
      <trkpt lat="46.01937" lon="5.84656">
        <ele>491.8</ele>
        <time>2022-09-26T13:31:42Z</time>
      </trkpt>
      <trkpt lat="46.01938" lon="5.84657">
        <ele>491.8</ele>
        <time>2022-09-26T13:31:43Z</time>
      </trkpt>
      <trkpt lat="46.0194" lon="5.84658">
        <ele>492</ele>
        <time>2022-09-26T13:31:44Z</time>
      </trkpt>
      <trkpt lat="46.01941" lon="5.84658">
        <ele>492.1</ele>
        <time>2022-09-26T13:31:45Z</time>
      </trkpt>
      <trkpt lat="46.01943" lon="5.84659">
        <ele>492.3</ele>
        <time>2022-09-26T13:31:46Z</time>
      </trkpt>
      <trkpt lat="46.01943" lon="5.84659">
        <ele>492.3</ele>
        <time>2022-09-26T13:31:47Z</time>
      </trkpt>
      <trkpt lat="46.01945" lon="5.84659">
        <ele>492.5</ele>
        <time>2022-09-26T13:31:48Z</time>
      </trkpt>
      <trkpt lat="46.01946" lon="5.8466">
        <ele>492.6</ele>
        <time>2022-09-26T13:31:49Z</time>
      </trkpt>
      <trkpt lat="46.01948" lon="5.84661">
        <ele>492.8</ele>
        <time>2022-09-26T13:31:50Z</time>
      </trkpt>
      <trkpt lat="46.01949" lon="5.84661">
        <ele>492.9</ele>
        <time>2022-09-26T13:31:51Z</time>
      </trkpt>
      <trkpt lat="46.01952" lon="5.84662">
        <ele>493.1</ele>
        <time>2022-09-26T13:31:52Z</time>
      </trkpt>
      <trkpt lat="46.01952" lon="5.84663">
        <ele>493.1</ele>
        <time>2022-09-26T13:31:53Z</time>
      </trkpt>
      <trkpt lat="46.01955" lon="5.84664">
        <ele>493.3</ele>
        <time>2022-09-26T13:31:54Z</time>
      </trkpt>
      <trkpt lat="46.01956" lon="5.84664">
        <ele>493.4</ele>
        <time>2022-09-26T13:31:55Z</time>
      </trkpt>
      <trkpt lat="46.01958" lon="5.84665">
        <ele>493.6</ele>
        <time>2022-09-26T13:31:56Z</time>
      </trkpt>
      <trkpt lat="46.01958" lon="5.84665">
        <ele>493.6</ele>
        <time>2022-09-26T13:31:57Z</time>
      </trkpt>
      <trkpt lat="46.0196" lon="5.84667">
        <ele>493.8</ele>
        <time>2022-09-26T13:31:58Z</time>
      </trkpt>
      <trkpt lat="46.01961" lon="5.84667">
        <ele>493.9</ele>
        <time>2022-09-26T13:31:59Z</time>
      </trkpt>
      <trkpt lat="46.01963" lon="5.84668">
        <ele>494.1</ele>
        <time>2022-09-26T13:32:00Z</time>
      </trkpt>
      <trkpt lat="46.01964" lon="5.84668">
        <ele>494.1</ele>
        <time>2022-09-26T13:32:01Z</time>
      </trkpt>
      <trkpt lat="46.01966" lon="5.84669">
        <ele>494.3</ele>
        <time>2022-09-26T13:32:02Z</time>
      </trkpt>
      <trkpt lat="46.01967" lon="5.84669">
        <ele>494.4</ele>
        <time>2022-09-26T13:32:03Z</time>
      </trkpt>
      <trkpt lat="46.01969" lon="5.8467">
        <ele>494.5</ele>
        <time>2022-09-26T13:32:04Z</time>
      </trkpt>
      <trkpt lat="46.0197" lon="5.8467">
        <ele>494.6</ele>
        <time>2022-09-26T13:32:05Z</time>
      </trkpt>
      <trkpt lat="46.01973" lon="5.84671">
        <ele>494.8</ele>
        <time>2022-09-26T13:32:06Z</time>
      </trkpt>
      <trkpt lat="46.01973" lon="5.84671">
        <ele>494.8</ele>
        <time>2022-09-26T13:32:07Z</time>
      </trkpt>
      <trkpt lat="46.01975" lon="5.84672">
        <ele>495</ele>
        <time>2022-09-26T13:32:08Z</time>
      </trkpt>
      <trkpt lat="46.01976" lon="5.84672">
        <ele>495.1</ele>
        <time>2022-09-26T13:32:09Z</time>
      </trkpt>
      <trkpt lat="46.01978" lon="5.84673">
        <ele>495.3</ele>
        <time>2022-09-26T13:32:10Z</time>
      </trkpt>
      <trkpt lat="46.01979" lon="5.84673">
        <ele>495.3</ele>
        <time>2022-09-26T13:32:11Z</time>
      </trkpt>
      <trkpt lat="46.01982" lon="5.84674">
        <ele>495.5</ele>
        <time>2022-09-26T13:32:12Z</time>
      </trkpt>
      <trkpt lat="46.01982" lon="5.84674">
        <ele>495.6</ele>
        <time>2022-09-26T13:32:13Z</time>
      </trkpt>
      <trkpt lat="46.01984" lon="5.84675">
        <ele>495.7</ele>
        <time>2022-09-26T13:32:14Z</time>
      </trkpt>
      <trkpt lat="46.01985" lon="5.84675">
        <ele>495.8</ele>
        <time>2022-09-26T13:32:15Z</time>
      </trkpt>
      <trkpt lat="46.01988" lon="5.84676">
        <ele>496</ele>
        <time>2022-09-26T13:32:16Z</time>
      </trkpt>
      <trkpt lat="46.01988" lon="5.84677">
        <ele>496</ele>
        <time>2022-09-26T13:32:17Z</time>
      </trkpt>
      <trkpt lat="46.01991" lon="5.84677">
        <ele>496.2</ele>
        <time>2022-09-26T13:32:18Z</time>
      </trkpt>
      <trkpt lat="46.01991" lon="5.84677">
        <ele>496.2</ele>
        <time>2022-09-26T13:32:19Z</time>
      </trkpt>
      <trkpt lat="46.01994" lon="5.84678">
        <ele>496.4</ele>
        <time>2022-09-26T13:32:20Z</time>
      </trkpt>
      <trkpt lat="46.01994" lon="5.84678">
        <ele>496.5</ele>
        <time>2022-09-26T13:32:21Z</time>
      </trkpt>
      <trkpt lat="46.01996" lon="5.84679">
        <ele>496.6</ele>
        <time>2022-09-26T13:32:22Z</time>
      </trkpt>
      <trkpt lat="46.01997" lon="5.84679">
        <ele>496.7</ele>
        <time>2022-09-26T13:32:23Z</time>
      </trkpt>
      <trkpt lat="46.02001" lon="5.84681">
        <ele>496.9</ele>
        <time>2022-09-26T13:32:24Z</time>
      </trkpt>
      <trkpt lat="46.02002" lon="5.84681">
        <ele>497</ele>
        <time>2022-09-26T13:32:25Z</time>
      </trkpt>
      <trkpt lat="46.02004" lon="5.84682">
        <ele>497.1</ele>
        <time>2022-09-26T13:32:26Z</time>
      </trkpt>
      <trkpt lat="46.02005" lon="5.84682">
        <ele>497.2</ele>
        <time>2022-09-26T13:32:27Z</time>
      </trkpt>
      <trkpt lat="46.02006" lon="5.84682">
        <ele>497.3</ele>
        <time>2022-09-26T13:32:28Z</time>
      </trkpt>
      <trkpt lat="46.02007" lon="5.84683">
        <ele>497.3</ele>
        <time>2022-09-26T13:32:29Z</time>
      </trkpt>
      <trkpt lat="46.02009" lon="5.84683">
        <ele>497.5</ele>
        <time>2022-09-26T13:32:30Z</time>
      </trkpt>
      <trkpt lat="46.0201" lon="5.84683">
        <ele>497.5</ele>
        <time>2022-09-26T13:32:31Z</time>
      </trkpt>
      <trkpt lat="46.02012" lon="5.84684">
        <ele>497.7</ele>
        <time>2022-09-26T13:32:32Z</time>
      </trkpt>
      <trkpt lat="46.02013" lon="5.84684">
        <ele>497.7</ele>
        <time>2022-09-26T13:32:33Z</time>
      </trkpt>
      <trkpt lat="46.02015" lon="5.84685">
        <ele>497.9</ele>
        <time>2022-09-26T13:32:34Z</time>
      </trkpt>
      <trkpt lat="46.02016" lon="5.84685">
        <ele>497.9</ele>
        <time>2022-09-26T13:32:35Z</time>
      </trkpt>
      <trkpt lat="46.02018" lon="5.84686">
        <ele>498.1</ele>
        <time>2022-09-26T13:32:36Z</time>
      </trkpt>
      <trkpt lat="46.02019" lon="5.84687">
        <ele>498.2</ele>
        <time>2022-09-26T13:32:37Z</time>
      </trkpt>
      <trkpt lat="46.02021" lon="5.84687">
        <ele>498.3</ele>
        <time>2022-09-26T13:32:38Z</time>
      </trkpt>
      <trkpt lat="46.02023" lon="5.84688">
        <ele>498.5</ele>
        <time>2022-09-26T13:32:39Z</time>
      </trkpt>
      <trkpt lat="46.02025" lon="5.84688">
        <ele>498.6</ele>
        <time>2022-09-26T13:32:40Z</time>
      </trkpt>
      <trkpt lat="46.02026" lon="5.84688">
        <ele>498.7</ele>
        <time>2022-09-26T13:32:41Z</time>
      </trkpt>
      <trkpt lat="46.02028" lon="5.84689">
        <ele>498.8</ele>
        <time>2022-09-26T13:32:42Z</time>
      </trkpt>
      <trkpt lat="46.02029" lon="5.84689">
        <ele>498.9</ele>
        <time>2022-09-26T13:32:43Z</time>
      </trkpt>
      <trkpt lat="46.02031" lon="5.8469">
        <ele>499</ele>
        <time>2022-09-26T13:32:44Z</time>
      </trkpt>
      <trkpt lat="46.02034" lon="5.8469">
        <ele>499.2</ele>
        <time>2022-09-26T13:32:45Z</time>
      </trkpt>
      <trkpt lat="46.02035" lon="5.84691">
        <ele>499.3</ele>
        <time>2022-09-26T13:32:46Z</time>
      </trkpt>
      <trkpt lat="46.02036" lon="5.84691">
        <ele>499.4</ele>
        <time>2022-09-26T13:32:47Z</time>
      </trkpt>
      <trkpt lat="46.02038" lon="5.84691">
        <ele>499.5</ele>
        <time>2022-09-26T13:32:48Z</time>
      </trkpt>
      <trkpt lat="46.02039" lon="5.84691">
        <ele>499.6</ele>
        <time>2022-09-26T13:32:49Z</time>
      </trkpt>
      <trkpt lat="46.02041" lon="5.84692">
        <ele>499.7</ele>
        <time>2022-09-26T13:32:50Z</time>
      </trkpt>
      <trkpt lat="46.02043" lon="5.84693">
        <ele>499.8</ele>
        <time>2022-09-26T13:32:51Z</time>
      </trkpt>
      <trkpt lat="46.02044" lon="5.84694">
        <ele>500</ele>
        <time>2022-09-26T13:32:52Z</time>
      </trkpt>
      <trkpt lat="46.02046" lon="5.84694">
        <ele>500.1</ele>
        <time>2022-09-26T13:32:53Z</time>
      </trkpt>
      <trkpt lat="46.02048" lon="5.84694">
        <ele>500.2</ele>
        <time>2022-09-26T13:32:54Z</time>
      </trkpt>
      <trkpt lat="46.02049" lon="5.84695">
        <ele>500.3</ele>
        <time>2022-09-26T13:32:55Z</time>
      </trkpt>
      <trkpt lat="46.02051" lon="5.84696">
        <ele>500.4</ele>
        <time>2022-09-26T13:32:56Z</time>
      </trkpt>
      <trkpt lat="46.02053" lon="5.84696">
        <ele>500.6</ele>
        <time>2022-09-26T13:32:57Z</time>
      </trkpt>
      <trkpt lat="46.02054" lon="5.84696">
        <ele>500.7</ele>
        <time>2022-09-26T13:32:58Z</time>
      </trkpt>
      <trkpt lat="46.02056" lon="5.84697">
        <ele>500.8</ele>
        <time>2022-09-26T13:32:59Z</time>
      </trkpt>
      <trkpt lat="46.02057" lon="5.84698">
        <ele>500.9</ele>
        <time>2022-09-26T13:33:00Z</time>
      </trkpt>
      <trkpt lat="46.02059" lon="5.84698">
        <ele>501</ele>
        <time>2022-09-26T13:33:01Z</time>
      </trkpt>
      <trkpt lat="46.02061" lon="5.84698">
        <ele>501.1</ele>
        <time>2022-09-26T13:33:02Z</time>
      </trkpt>
      <trkpt lat="46.02062" lon="5.84698">
        <ele>501.3</ele>
        <time>2022-09-26T13:33:03Z</time>
      </trkpt>
      <trkpt lat="46.02064" lon="5.84698">
        <ele>501.4</ele>
        <time>2022-09-26T13:33:04Z</time>
      </trkpt>
      <trkpt lat="46.02066" lon="5.84699">
        <ele>501.5</ele>
        <time>2022-09-26T13:33:05Z</time>
      </trkpt>
      <trkpt lat="46.02067" lon="5.84699">
        <ele>501.6</ele>
        <time>2022-09-26T13:33:06Z</time>
      </trkpt>
      <trkpt lat="46.02069" lon="5.84699">
        <ele>501.7</ele>
        <time>2022-09-26T13:33:07Z</time>
      </trkpt>
      <trkpt lat="46.0207" lon="5.847">
        <ele>501.8</ele>
        <time>2022-09-26T13:33:08Z</time>
      </trkpt>
      <trkpt lat="46.02073" lon="5.84702">
        <ele>502</ele>
        <time>2022-09-26T13:33:09Z</time>
      </trkpt>
      <trkpt lat="46.02073" lon="5.84702">
        <ele>502</ele>
        <time>2022-09-26T13:33:10Z</time>
      </trkpt>
      <trkpt lat="46.02074" lon="5.84703">
        <ele>502.1</ele>
        <time>2022-09-26T13:33:11Z</time>
      </trkpt>
      <trkpt lat="46.02075" lon="5.84704">
        <ele>502.2</ele>
        <time>2022-09-26T13:33:12Z</time>
      </trkpt>
      <trkpt lat="46.02077" lon="5.84704">
        <ele>502.3</ele>
        <time>2022-09-26T13:33:13Z</time>
      </trkpt>
      <trkpt lat="46.02078" lon="5.84705">
        <ele>502.4</ele>
        <time>2022-09-26T13:33:14Z</time>
      </trkpt>
      <trkpt lat="46.0208" lon="5.84705">
        <ele>502.5</ele>
        <time>2022-09-26T13:33:15Z</time>
      </trkpt>
      <trkpt lat="46.02082" lon="5.84706">
        <ele>502.6</ele>
        <time>2022-09-26T13:33:16Z</time>
      </trkpt>
      <trkpt lat="46.02083" lon="5.84707">
        <ele>502.7</ele>
        <time>2022-09-26T13:33:17Z</time>
      </trkpt>
      <trkpt lat="46.02084" lon="5.84707">
        <ele>502.7</ele>
        <time>2022-09-26T13:33:18Z</time>
      </trkpt>
      <trkpt lat="46.02086" lon="5.84708">
        <ele>502.8</ele>
        <time>2022-09-26T13:33:19Z</time>
      </trkpt>
      <trkpt lat="46.02088" lon="5.84709">
        <ele>503</ele>
        <time>2022-09-26T13:33:20Z</time>
      </trkpt>
      <trkpt lat="46.02089" lon="5.84709">
        <ele>503</ele>
        <time>2022-09-26T13:33:21Z</time>
      </trkpt>
      <trkpt lat="46.02091" lon="5.84709">
        <ele>503.1</ele>
        <time>2022-09-26T13:33:22Z</time>
      </trkpt>
      <trkpt lat="46.02094" lon="5.84711">
        <ele>503.3</ele>
        <time>2022-09-26T13:33:23Z</time>
      </trkpt>
      <trkpt lat="46.02095" lon="5.84711">
        <ele>503.3</ele>
        <time>2022-09-26T13:33:24Z</time>
      </trkpt>
      <trkpt lat="46.02097" lon="5.84712">
        <ele>503.4</ele>
        <time>2022-09-26T13:33:25Z</time>
      </trkpt>
      <trkpt lat="46.02098" lon="5.84712">
        <ele>503.5</ele>
        <time>2022-09-26T13:33:26Z</time>
      </trkpt>
      <trkpt lat="46.021" lon="5.84713">
        <ele>503.6</ele>
        <time>2022-09-26T13:33:27Z</time>
      </trkpt>
      <trkpt lat="46.02101" lon="5.84713">
        <ele>503.7</ele>
        <time>2022-09-26T13:33:28Z</time>
      </trkpt>
      <trkpt lat="46.02103" lon="5.84714">
        <ele>503.7</ele>
        <time>2022-09-26T13:33:29Z</time>
      </trkpt>
      <trkpt lat="46.02105" lon="5.84714">
        <ele>503.8</ele>
        <time>2022-09-26T13:33:30Z</time>
      </trkpt>
      <trkpt lat="46.02107" lon="5.84715">
        <ele>503.9</ele>
        <time>2022-09-26T13:33:31Z</time>
      </trkpt>
      <trkpt lat="46.02107" lon="5.84715">
        <ele>503.9</ele>
        <time>2022-09-26T13:33:32Z</time>
      </trkpt>
      <trkpt lat="46.02108" lon="5.84716">
        <ele>503.9</ele>
        <time>2022-09-26T13:33:33Z</time>
      </trkpt>
      <trkpt lat="46.0211" lon="5.84717">
        <ele>504</ele>
        <time>2022-09-26T13:33:34Z</time>
      </trkpt>
      <trkpt lat="46.02111" lon="5.84718">
        <ele>504</ele>
        <time>2022-09-26T13:33:35Z</time>
      </trkpt>
      <trkpt lat="46.02112" lon="5.84718">
        <ele>504</ele>
        <time>2022-09-26T13:33:36Z</time>
      </trkpt>
      <trkpt lat="46.02115" lon="5.84719">
        <ele>504.1</ele>
        <time>2022-09-26T13:33:37Z</time>
      </trkpt>
      <trkpt lat="46.02116" lon="5.8472">
        <ele>504.1</ele>
        <time>2022-09-26T13:33:38Z</time>
      </trkpt>
      <trkpt lat="46.02118" lon="5.84721">
        <ele>504.2</ele>
        <time>2022-09-26T13:33:39Z</time>
      </trkpt>
      <trkpt lat="46.02119" lon="5.84721">
        <ele>504.3</ele>
        <time>2022-09-26T13:33:40Z</time>
      </trkpt>
      <trkpt lat="46.02121" lon="5.84721">
        <ele>504.3</ele>
        <time>2022-09-26T13:33:41Z</time>
      </trkpt>
      <trkpt lat="46.02122" lon="5.84723">
        <ele>504.3</ele>
        <time>2022-09-26T13:33:42Z</time>
      </trkpt>
      <trkpt lat="46.02125" lon="5.84725">
        <ele>504.4</ele>
        <time>2022-09-26T13:33:43Z</time>
      </trkpt>
      <trkpt lat="46.02126" lon="5.84725">
        <ele>504.4</ele>
        <time>2022-09-26T13:33:44Z</time>
      </trkpt>
      <trkpt lat="46.02129" lon="5.84727">
        <ele>504.5</ele>
        <time>2022-09-26T13:33:45Z</time>
      </trkpt>
      <trkpt lat="46.0213" lon="5.84728">
        <ele>504.5</ele>
        <time>2022-09-26T13:33:46Z</time>
      </trkpt>
      <trkpt lat="46.02133" lon="5.8473">
        <ele>504.5</ele>
        <time>2022-09-26T13:33:47Z</time>
      </trkpt>
      <trkpt lat="46.02134" lon="5.84731">
        <ele>504.6</ele>
        <time>2022-09-26T13:33:48Z</time>
      </trkpt>
      <trkpt lat="46.02138" lon="5.84733">
        <ele>504.6</ele>
        <time>2022-09-26T13:33:49Z</time>
      </trkpt>
      <trkpt lat="46.02139" lon="5.84734">
        <ele>504.6</ele>
        <time>2022-09-26T13:33:50Z</time>
      </trkpt>
      <trkpt lat="46.02142" lon="5.84736">
        <ele>504.7</ele>
        <time>2022-09-26T13:33:51Z</time>
      </trkpt>
      <trkpt lat="46.02143" lon="5.84737">
        <ele>504.7</ele>
        <time>2022-09-26T13:33:52Z</time>
      </trkpt>
      <trkpt lat="46.02145" lon="5.84739">
        <ele>504.8</ele>
        <time>2022-09-26T13:33:53Z</time>
      </trkpt>
      <trkpt lat="46.02146" lon="5.84739">
        <ele>504.8</ele>
        <time>2022-09-26T13:33:54Z</time>
      </trkpt>
      <trkpt lat="46.02149" lon="5.84742">
        <ele>504.8</ele>
        <time>2022-09-26T13:33:55Z</time>
      </trkpt>
      <trkpt lat="46.0215" lon="5.84743">
        <ele>504.9</ele>
        <time>2022-09-26T13:33:56Z</time>
      </trkpt>
      <trkpt lat="46.02153" lon="5.84746">
        <ele>504.9</ele>
        <time>2022-09-26T13:33:57Z</time>
      </trkpt>
      <trkpt lat="46.02154" lon="5.84747">
        <ele>504.9</ele>
        <time>2022-09-26T13:33:58Z</time>
      </trkpt>
      <trkpt lat="46.02157" lon="5.8475">
        <ele>505</ele>
        <time>2022-09-26T13:33:59Z</time>
      </trkpt>
      <trkpt lat="46.02158" lon="5.84751">
        <ele>505</ele>
        <time>2022-09-26T13:34:00Z</time>
      </trkpt>
      <trkpt lat="46.02161" lon="5.84754">
        <ele>505.1</ele>
        <time>2022-09-26T13:34:01Z</time>
      </trkpt>
      <trkpt lat="46.02162" lon="5.84754">
        <ele>505.1</ele>
        <time>2022-09-26T13:34:02Z</time>
      </trkpt>
      <trkpt lat="46.02165" lon="5.84758">
        <ele>505.1</ele>
        <time>2022-09-26T13:34:03Z</time>
      </trkpt>
      <trkpt lat="46.02166" lon="5.84759">
        <ele>505.2</ele>
        <time>2022-09-26T13:34:04Z</time>
      </trkpt>
      <trkpt lat="46.02169" lon="5.84761">
        <ele>505.2</ele>
        <time>2022-09-26T13:34:05Z</time>
      </trkpt>
      <trkpt lat="46.0217" lon="5.84762">
        <ele>505.2</ele>
        <time>2022-09-26T13:34:06Z</time>
      </trkpt>
      <trkpt lat="46.02172" lon="5.84765">
        <ele>505.3</ele>
        <time>2022-09-26T13:34:07Z</time>
      </trkpt>
      <trkpt lat="46.02175" lon="5.84768">
        <ele>505.3</ele>
        <time>2022-09-26T13:34:08Z</time>
      </trkpt>
      <trkpt lat="46.02177" lon="5.84769">
        <ele>505.3</ele>
        <time>2022-09-26T13:34:09Z</time>
      </trkpt>
      <trkpt lat="46.02179" lon="5.84772">
        <ele>505.4</ele>
        <time>2022-09-26T13:34:10Z</time>
      </trkpt>
      <trkpt lat="46.02182" lon="5.84775">
        <ele>505.4</ele>
        <time>2022-09-26T13:34:11Z</time>
      </trkpt>
      <trkpt lat="46.02183" lon="5.84777">
        <ele>505.4</ele>
        <time>2022-09-26T13:34:12Z</time>
      </trkpt>
      <trkpt lat="46.02187" lon="5.8478">
        <ele>505.5</ele>
        <time>2022-09-26T13:34:13Z</time>
      </trkpt>
      <trkpt lat="46.02188" lon="5.84781">
        <ele>505.5</ele>
        <time>2022-09-26T13:34:14Z</time>
      </trkpt>
      <trkpt lat="46.02191" lon="5.84785">
        <ele>505.6</ele>
        <time>2022-09-26T13:34:15Z</time>
      </trkpt>
      <trkpt lat="46.02192" lon="5.84786">
        <ele>505.6</ele>
        <time>2022-09-26T13:34:16Z</time>
      </trkpt>
      <trkpt lat="46.02194" lon="5.84788">
        <ele>505.7</ele>
        <time>2022-09-26T13:34:17Z</time>
      </trkpt>
      <trkpt lat="46.02197" lon="5.8479">
        <ele>505.7</ele>
        <time>2022-09-26T13:34:18Z</time>
      </trkpt>
      <trkpt lat="46.022" lon="5.84794">
        <ele>505.9</ele>
        <time>2022-09-26T13:34:19Z</time>
      </trkpt>
      <trkpt lat="46.02201" lon="5.84795">
        <ele>505.9</ele>
        <time>2022-09-26T13:34:20Z</time>
      </trkpt>
      <trkpt lat="46.02203" lon="5.84798">
        <ele>506</ele>
        <time>2022-09-26T13:34:21Z</time>
      </trkpt>
      <trkpt lat="46.02206" lon="5.84801">
        <ele>506.1</ele>
        <time>2022-09-26T13:34:22Z</time>
      </trkpt>
      <trkpt lat="46.02207" lon="5.84802">
        <ele>506.1</ele>
        <time>2022-09-26T13:34:23Z</time>
      </trkpt>
      <trkpt lat="46.0221" lon="5.84805">
        <ele>506.3</ele>
        <time>2022-09-26T13:34:24Z</time>
      </trkpt>
      <trkpt lat="46.02211" lon="5.84806">
        <ele>506.3</ele>
        <time>2022-09-26T13:34:25Z</time>
      </trkpt>
      <trkpt lat="46.02214" lon="5.84809">
        <ele>506.4</ele>
        <time>2022-09-26T13:34:26Z</time>
      </trkpt>
      <trkpt lat="46.02215" lon="5.8481">
        <ele>506.5</ele>
        <time>2022-09-26T13:34:27Z</time>
      </trkpt>
      <trkpt lat="46.02218" lon="5.84814">
        <ele>506.6</ele>
        <time>2022-09-26T13:34:28Z</time>
      </trkpt>
      <trkpt lat="46.02219" lon="5.84815">
        <ele>506.6</ele>
        <time>2022-09-26T13:34:29Z</time>
      </trkpt>
      <trkpt lat="46.02221" lon="5.84818">
        <ele>506.7</ele>
        <time>2022-09-26T13:34:30Z</time>
      </trkpt>
      <trkpt lat="46.02222" lon="5.84819">
        <ele>506.8</ele>
        <time>2022-09-26T13:34:31Z</time>
      </trkpt>
      <trkpt lat="46.02225" lon="5.84822">
        <ele>506.9</ele>
        <time>2022-09-26T13:34:32Z</time>
      </trkpt>
      <trkpt lat="46.02226" lon="5.84823">
        <ele>507</ele>
        <time>2022-09-26T13:34:33Z</time>
      </trkpt>
      <trkpt lat="46.02229" lon="5.84827">
        <ele>507.1</ele>
        <time>2022-09-26T13:34:34Z</time>
      </trkpt>
      <trkpt lat="46.0223" lon="5.84828">
        <ele>507.1</ele>
        <time>2022-09-26T13:34:35Z</time>
      </trkpt>
      <trkpt lat="46.02233" lon="5.84831">
        <ele>507.3</ele>
        <time>2022-09-26T13:34:36Z</time>
      </trkpt>
      <trkpt lat="46.02234" lon="5.84832">
        <ele>507.3</ele>
        <time>2022-09-26T13:34:37Z</time>
      </trkpt>
      <trkpt lat="46.02237" lon="5.84836">
        <ele>507.4</ele>
        <time>2022-09-26T13:34:38Z</time>
      </trkpt>
      <trkpt lat="46.02238" lon="5.84837">
        <ele>507.4</ele>
        <time>2022-09-26T13:34:39Z</time>
      </trkpt>
      <trkpt lat="46.0224" lon="5.8484">
        <ele>507.5</ele>
        <time>2022-09-26T13:34:40Z</time>
      </trkpt>
      <trkpt lat="46.02241" lon="5.84841">
        <ele>507.6</ele>
        <time>2022-09-26T13:34:41Z</time>
      </trkpt>
      <trkpt lat="46.02244" lon="5.84845">
        <ele>507.7</ele>
        <time>2022-09-26T13:34:42Z</time>
      </trkpt>
      <trkpt lat="46.02245" lon="5.84846">
        <ele>507.7</ele>
        <time>2022-09-26T13:34:43Z</time>
      </trkpt>
      <trkpt lat="46.02248" lon="5.84849">
        <ele>507.8</ele>
        <time>2022-09-26T13:34:44Z</time>
      </trkpt>
      <trkpt lat="46.02249" lon="5.84849">
        <ele>507.8</ele>
        <time>2022-09-26T13:34:45Z</time>
      </trkpt>
      <trkpt lat="46.02251" lon="5.84852">
        <ele>507.8</ele>
        <time>2022-09-26T13:34:46Z</time>
      </trkpt>
      <trkpt lat="46.02252" lon="5.84853">
        <ele>507.9</ele>
        <time>2022-09-26T13:34:47Z</time>
      </trkpt>
      <trkpt lat="46.02255" lon="5.84857">
        <ele>507.9</ele>
        <time>2022-09-26T13:34:48Z</time>
      </trkpt>
      <trkpt lat="46.02256" lon="5.84858">
        <ele>507.9</ele>
        <time>2022-09-26T13:34:49Z</time>
      </trkpt>
      <trkpt lat="46.02259" lon="5.84862">
        <ele>508</ele>
        <time>2022-09-26T13:34:50Z</time>
      </trkpt>
      <trkpt lat="46.0226" lon="5.84863">
        <ele>508</ele>
        <time>2022-09-26T13:34:51Z</time>
      </trkpt>
      <trkpt lat="46.02262" lon="5.84866">
        <ele>508</ele>
        <time>2022-09-26T13:34:52Z</time>
      </trkpt>
      <trkpt lat="46.02263" lon="5.84867">
        <ele>508</ele>
        <time>2022-09-26T13:34:53Z</time>
      </trkpt>
      <trkpt lat="46.02265" lon="5.8487">
        <ele>508</ele>
        <time>2022-09-26T13:34:54Z</time>
      </trkpt>
      <trkpt lat="46.02266" lon="5.84871">
        <ele>508.1</ele>
        <time>2022-09-26T13:34:55Z</time>
      </trkpt>
      <trkpt lat="46.02269" lon="5.84874">
        <ele>508.1</ele>
        <time>2022-09-26T13:34:56Z</time>
      </trkpt>
      <trkpt lat="46.0227" lon="5.84875">
        <ele>508.1</ele>
        <time>2022-09-26T13:34:57Z</time>
      </trkpt>
      <trkpt lat="46.02273" lon="5.84878">
        <ele>508.1</ele>
        <time>2022-09-26T13:34:58Z</time>
      </trkpt>
      <trkpt lat="46.02274" lon="5.84879">
        <ele>508.1</ele>
        <time>2022-09-26T13:34:59Z</time>
      </trkpt>
      <trkpt lat="46.02277" lon="5.84882">
        <ele>508.1</ele>
        <time>2022-09-26T13:35:00Z</time>
      </trkpt>
      <trkpt lat="46.02278" lon="5.84883">
        <ele>508.1</ele>
        <time>2022-09-26T13:35:01Z</time>
      </trkpt>
      <trkpt lat="46.0228" lon="5.84886">
        <ele>508.1</ele>
        <time>2022-09-26T13:35:02Z</time>
      </trkpt>
      <trkpt lat="46.02282" lon="5.84891">
        <ele>508.1</ele>
        <time>2022-09-26T13:35:03Z</time>
      </trkpt>
      <trkpt lat="46.02283" lon="5.84892">
        <ele>508.1</ele>
        <time>2022-09-26T13:35:04Z</time>
      </trkpt>
      <trkpt lat="46.02285" lon="5.84895">
        <ele>508.1</ele>
        <time>2022-09-26T13:35:05Z</time>
      </trkpt>
      <trkpt lat="46.02288" lon="5.84898">
        <ele>508</ele>
        <time>2022-09-26T13:35:06Z</time>
      </trkpt>
      <trkpt lat="46.02291" lon="5.84901">
        <ele>508</ele>
        <time>2022-09-26T13:35:07Z</time>
      </trkpt>
      <trkpt lat="46.02293" lon="5.84904">
        <ele>508</ele>
        <time>2022-09-26T13:35:08Z</time>
      </trkpt>
      <trkpt lat="46.02296" lon="5.84907">
        <ele>507.9</ele>
        <time>2022-09-26T13:35:09Z</time>
      </trkpt>
      <trkpt lat="46.02298" lon="5.8491">
        <ele>507.9</ele>
        <time>2022-09-26T13:35:10Z</time>
      </trkpt>
      <trkpt lat="46.02301" lon="5.84914">
        <ele>507.8</ele>
        <time>2022-09-26T13:35:11Z</time>
      </trkpt>
      <trkpt lat="46.02304" lon="5.84917">
        <ele>507.8</ele>
        <time>2022-09-26T13:35:12Z</time>
      </trkpt>
      <trkpt lat="46.02307" lon="5.84921">
        <ele>507.8</ele>
        <time>2022-09-26T13:35:13Z</time>
      </trkpt>
      <trkpt lat="46.0231" lon="5.84924">
        <ele>507.7</ele>
        <time>2022-09-26T13:35:14Z</time>
      </trkpt>
      <trkpt lat="46.02313" lon="5.84927">
        <ele>507.7</ele>
        <time>2022-09-26T13:35:15Z</time>
      </trkpt>
      <trkpt lat="46.02316" lon="5.84931">
        <ele>507.6</ele>
        <time>2022-09-26T13:35:16Z</time>
      </trkpt>
      <trkpt lat="46.02319" lon="5.84934">
        <ele>507.6</ele>
        <time>2022-09-26T13:35:17Z</time>
      </trkpt>
      <trkpt lat="46.02322" lon="5.84938">
        <ele>507.5</ele>
        <time>2022-09-26T13:35:18Z</time>
      </trkpt>
      <trkpt lat="46.02325" lon="5.84941">
        <ele>507.5</ele>
        <time>2022-09-26T13:35:19Z</time>
      </trkpt>
      <trkpt lat="46.02328" lon="5.84944">
        <ele>507.4</ele>
        <time>2022-09-26T13:35:20Z</time>
      </trkpt>
      <trkpt lat="46.02331" lon="5.84947">
        <ele>507.3</ele>
        <time>2022-09-26T13:35:21Z</time>
      </trkpt>
      <trkpt lat="46.02334" lon="5.8495">
        <ele>507.3</ele>
        <time>2022-09-26T13:35:22Z</time>
      </trkpt>
      <trkpt lat="46.02337" lon="5.84954">
        <ele>507.2</ele>
        <time>2022-09-26T13:35:23Z</time>
      </trkpt>
      <trkpt lat="46.02341" lon="5.84958">
        <ele>507.2</ele>
        <time>2022-09-26T13:35:24Z</time>
      </trkpt>
      <trkpt lat="46.02345" lon="5.84962">
        <ele>507.1</ele>
        <time>2022-09-26T13:35:25Z</time>
      </trkpt>
      <trkpt lat="46.02349" lon="5.84966">
        <ele>507.1</ele>
        <time>2022-09-26T13:35:26Z</time>
      </trkpt>
      <trkpt lat="46.02353" lon="5.8497">
        <ele>507</ele>
        <time>2022-09-26T13:35:27Z</time>
      </trkpt>
      <trkpt lat="46.02357" lon="5.84975">
        <ele>507</ele>
        <time>2022-09-26T13:35:28Z</time>
      </trkpt>
      <trkpt lat="46.02361" lon="5.84979">
        <ele>507</ele>
        <time>2022-09-26T13:35:29Z</time>
      </trkpt>
      <trkpt lat="46.02364" lon="5.84983">
        <ele>506.9</ele>
        <time>2022-09-26T13:35:30Z</time>
      </trkpt>
      <trkpt lat="46.02368" lon="5.84987">
        <ele>506.9</ele>
        <time>2022-09-26T13:35:31Z</time>
      </trkpt>
      <trkpt lat="46.02372" lon="5.84991">
        <ele>506.9</ele>
        <time>2022-09-26T13:35:32Z</time>
      </trkpt>
      <trkpt lat="46.02375" lon="5.84995">
        <ele>506.8</ele>
        <time>2022-09-26T13:35:33Z</time>
      </trkpt>
      <trkpt lat="46.02379" lon="5.84999">
        <ele>506.8</ele>
        <time>2022-09-26T13:35:34Z</time>
      </trkpt>
      <trkpt lat="46.02382" lon="5.85003">
        <ele>506.7</ele>
        <time>2022-09-26T13:35:35Z</time>
      </trkpt>
      <trkpt lat="46.02386" lon="5.85007">
        <ele>506.7</ele>
        <time>2022-09-26T13:35:36Z</time>
      </trkpt>
      <trkpt lat="46.02389" lon="5.8501">
        <ele>506.6</ele>
        <time>2022-09-26T13:35:37Z</time>
      </trkpt>
      <trkpt lat="46.02393" lon="5.85014">
        <ele>506.6</ele>
        <time>2022-09-26T13:35:38Z</time>
      </trkpt>
      <trkpt lat="46.02396" lon="5.85017">
        <ele>506.6</ele>
        <time>2022-09-26T13:35:39Z</time>
      </trkpt>
      <trkpt lat="46.024" lon="5.85021">
        <ele>506.6</ele>
        <time>2022-09-26T13:35:40Z</time>
      </trkpt>
      <trkpt lat="46.02403" lon="5.85024">
        <ele>506.5</ele>
        <time>2022-09-26T13:35:41Z</time>
      </trkpt>
      <trkpt lat="46.02407" lon="5.85028">
        <ele>506.5</ele>
        <time>2022-09-26T13:35:42Z</time>
      </trkpt>
      <trkpt lat="46.0241" lon="5.8503">
        <ele>506.5</ele>
        <time>2022-09-26T13:35:43Z</time>
      </trkpt>
      <trkpt lat="46.02413" lon="5.85034">
        <ele>506.5</ele>
        <time>2022-09-26T13:35:44Z</time>
      </trkpt>
      <trkpt lat="46.02417" lon="5.85036">
        <ele>506.4</ele>
        <time>2022-09-26T13:35:45Z</time>
      </trkpt>
      <trkpt lat="46.0242" lon="5.85038">
        <ele>506.4</ele>
        <time>2022-09-26T13:35:46Z</time>
      </trkpt>
      <trkpt lat="46.02424" lon="5.8504">
        <ele>506.3</ele>
        <time>2022-09-26T13:35:47Z</time>
      </trkpt>
      <trkpt lat="46.02428" lon="5.85041">
        <ele>506.3</ele>
        <time>2022-09-26T13:35:48Z</time>
      </trkpt>
      <trkpt lat="46.02432" lon="5.85042">
        <ele>506.2</ele>
        <time>2022-09-26T13:35:49Z</time>
      </trkpt>
      <trkpt lat="46.02436" lon="5.85042">
        <ele>506.2</ele>
        <time>2022-09-26T13:35:50Z</time>
      </trkpt>
      <trkpt lat="46.0244" lon="5.85043">
        <ele>506.1</ele>
        <time>2022-09-26T13:35:51Z</time>
      </trkpt>
      <trkpt lat="46.02443" lon="5.85043">
        <ele>506.1</ele>
        <time>2022-09-26T13:35:52Z</time>
      </trkpt>
      <trkpt lat="46.02447" lon="5.85044">
        <ele>506.1</ele>
        <time>2022-09-26T13:35:53Z</time>
      </trkpt>
      <trkpt lat="46.02451" lon="5.85044">
        <ele>506</ele>
        <time>2022-09-26T13:35:54Z</time>
      </trkpt>
      <trkpt lat="46.02455" lon="5.85043">
        <ele>506</ele>
        <time>2022-09-26T13:35:55Z</time>
      </trkpt>
      <trkpt lat="46.02459" lon="5.85042">
        <ele>506</ele>
        <time>2022-09-26T13:35:56Z</time>
      </trkpt>
      <trkpt lat="46.02463" lon="5.85042">
        <ele>506</ele>
        <time>2022-09-26T13:35:57Z</time>
      </trkpt>
      <trkpt lat="46.02466" lon="5.85041">
        <ele>506</ele>
        <time>2022-09-26T13:35:58Z</time>
      </trkpt>
      <trkpt lat="46.02469" lon="5.85038">
        <ele>506</ele>
        <time>2022-09-26T13:35:59Z</time>
      </trkpt>
      <trkpt lat="46.0247" lon="5.85037">
        <ele>506</ele>
        <time>2022-09-26T13:36:00Z</time>
      </trkpt>
      <trkpt lat="46.02472" lon="5.85035">
        <ele>505.9</ele>
        <time>2022-09-26T13:36:01Z</time>
      </trkpt>
      <trkpt lat="46.02473" lon="5.85035">
        <ele>505.9</ele>
        <time>2022-09-26T13:36:02Z</time>
      </trkpt>
      <trkpt lat="46.02473" lon="5.85035">
        <ele>505.9</ele>
        <time>2022-09-26T13:36:03Z</time>
      </trkpt>
      <trkpt lat="46.02474" lon="5.85035">
        <ele>505.9</ele>
        <time>2022-09-26T13:36:04Z</time>
      </trkpt>
      <trkpt lat="46.02475" lon="5.85035">
        <ele>505.9</ele>
        <time>2022-09-26T13:36:05Z</time>
      </trkpt>
      <trkpt lat="46.02476" lon="5.85035">
        <ele>505.9</ele>
        <time>2022-09-26T13:36:06Z</time>
      </trkpt>
      <trkpt lat="46.02477" lon="5.85035">
        <ele>505.9</ele>
        <time>2022-09-26T13:36:07Z</time>
      </trkpt>
      <trkpt lat="46.02478" lon="5.85035">
        <ele>505.9</ele>
        <time>2022-09-26T13:36:08Z</time>
      </trkpt>
      <trkpt lat="46.02478" lon="5.85035">
        <ele>505.9</ele>
        <time>2022-09-26T13:36:09Z</time>
      </trkpt>
      <trkpt lat="46.02479" lon="5.85035">
        <ele>505.9</ele>
        <time>2022-09-26T13:36:10Z</time>
      </trkpt>
      <trkpt lat="46.0248" lon="5.85035">
        <ele>505.9</ele>
        <time>2022-09-26T13:36:11Z</time>
      </trkpt>
      <trkpt lat="46.02481" lon="5.85036">
        <ele>505.9</ele>
        <time>2022-09-26T13:36:37Z</time>
      </trkpt>
      <trkpt lat="46.02482" lon="5.85036">
        <ele>505.9</ele>
        <time>2022-09-26T13:36:38Z</time>
      </trkpt>
      <trkpt lat="46.02483" lon="5.85035">
        <ele>505.9</ele>
        <time>2022-09-26T13:36:39Z</time>
      </trkpt>
      <trkpt lat="46.02485" lon="5.85034">
        <ele>505.9</ele>
        <time>2022-09-26T13:36:40Z</time>
      </trkpt>
      <trkpt lat="46.02489" lon="5.85033">
        <ele>505.9</ele>
        <time>2022-09-26T13:36:41Z</time>
      </trkpt>
      <trkpt lat="46.0249" lon="5.85032">
        <ele>505.9</ele>
        <time>2022-09-26T13:36:42Z</time>
      </trkpt>
      <trkpt lat="46.02493" lon="5.85031">
        <ele>505.9</ele>
        <time>2022-09-26T13:36:43Z</time>
      </trkpt>
      <trkpt lat="46.02495" lon="5.8503">
        <ele>505.9</ele>
        <time>2022-09-26T13:36:44Z</time>
      </trkpt>
      <trkpt lat="46.02497" lon="5.85029">
        <ele>505.9</ele>
        <time>2022-09-26T13:36:45Z</time>
      </trkpt>
      <trkpt lat="46.02502" lon="5.85028">
        <ele>505.9</ele>
        <time>2022-09-26T13:36:46Z</time>
      </trkpt>
      <trkpt lat="46.02504" lon="5.85028">
        <ele>505.9</ele>
        <time>2022-09-26T13:36:47Z</time>
      </trkpt>
      <trkpt lat="46.02507" lon="5.85026">
        <ele>505.9</ele>
        <time>2022-09-26T13:36:48Z</time>
      </trkpt>
      <trkpt lat="46.0251" lon="5.85025">
        <ele>505.9</ele>
        <time>2022-09-26T13:36:49Z</time>
      </trkpt>
      <trkpt lat="46.02513" lon="5.85024">
        <ele>505.9</ele>
        <time>2022-09-26T13:36:50Z</time>
      </trkpt>
      <trkpt lat="46.02517" lon="5.85023">
        <ele>505.9</ele>
        <time>2022-09-26T13:36:51Z</time>
      </trkpt>
      <trkpt lat="46.02521" lon="5.85021">
        <ele>505.9</ele>
        <time>2022-09-26T13:36:52Z</time>
      </trkpt>
      <trkpt lat="46.02525" lon="5.85019">
        <ele>505.9</ele>
        <time>2022-09-26T13:36:53Z</time>
      </trkpt>
      <trkpt lat="46.02528" lon="5.85018">
        <ele>505.9</ele>
        <time>2022-09-26T13:36:54Z</time>
      </trkpt>
      <trkpt lat="46.02532" lon="5.85017">
        <ele>505.8</ele>
        <time>2022-09-26T13:36:55Z</time>
      </trkpt>
      <trkpt lat="46.02536" lon="5.85015">
        <ele>505.8</ele>
        <time>2022-09-26T13:36:56Z</time>
      </trkpt>
      <trkpt lat="46.02539" lon="5.85014">
        <ele>505.8</ele>
        <time>2022-09-26T13:36:57Z</time>
      </trkpt>
      <trkpt lat="46.02544" lon="5.85013">
        <ele>505.8</ele>
        <time>2022-09-26T13:36:58Z</time>
      </trkpt>
      <trkpt lat="46.02548" lon="5.85012">
        <ele>505.8</ele>
        <time>2022-09-26T13:36:59Z</time>
      </trkpt>
      <trkpt lat="46.02553" lon="5.85011">
        <ele>505.7</ele>
        <time>2022-09-26T13:37:00Z</time>
      </trkpt>
      <trkpt lat="46.02556" lon="5.85011">
        <ele>505.7</ele>
        <time>2022-09-26T13:37:01Z</time>
      </trkpt>
      <trkpt lat="46.0256" lon="5.8501">
        <ele>505.7</ele>
        <time>2022-09-26T13:37:02Z</time>
      </trkpt>
      <trkpt lat="46.02564" lon="5.85009">
        <ele>505.7</ele>
        <time>2022-09-26T13:37:03Z</time>
      </trkpt>
      <trkpt lat="46.02568" lon="5.85008">
        <ele>505.7</ele>
        <time>2022-09-26T13:37:04Z</time>
      </trkpt>
      <trkpt lat="46.02571" lon="5.85008">
        <ele>505.7</ele>
        <time>2022-09-26T13:37:05Z</time>
      </trkpt>
      <trkpt lat="46.02575" lon="5.85008">
        <ele>505.7</ele>
        <time>2022-09-26T13:37:06Z</time>
      </trkpt>
      <trkpt lat="46.02579" lon="5.85007">
        <ele>505.7</ele>
        <time>2022-09-26T13:37:07Z</time>
      </trkpt>
      <trkpt lat="46.02583" lon="5.85007">
        <ele>505.7</ele>
        <time>2022-09-26T13:37:08Z</time>
      </trkpt>
      <trkpt lat="46.02588" lon="5.85006">
        <ele>505.7</ele>
        <time>2022-09-26T13:37:09Z</time>
      </trkpt>
      <trkpt lat="46.02592" lon="5.85007">
        <ele>505.7</ele>
        <time>2022-09-26T13:37:10Z</time>
      </trkpt>
      <trkpt lat="46.02596" lon="5.85006">
        <ele>505.7</ele>
        <time>2022-09-26T13:37:11Z</time>
      </trkpt>
      <trkpt lat="46.026" lon="5.85006">
        <ele>505.7</ele>
        <time>2022-09-26T13:37:12Z</time>
      </trkpt>
      <trkpt lat="46.02604" lon="5.85006">
        <ele>505.7</ele>
        <time>2022-09-26T13:37:13Z</time>
      </trkpt>
      <trkpt lat="46.02609" lon="5.85006">
        <ele>505.6</ele>
        <time>2022-09-26T13:37:14Z</time>
      </trkpt>
      <trkpt lat="46.02613" lon="5.85006">
        <ele>505.6</ele>
        <time>2022-09-26T13:37:15Z</time>
      </trkpt>
      <trkpt lat="46.02618" lon="5.85006">
        <ele>505.6</ele>
        <time>2022-09-26T13:37:16Z</time>
      </trkpt>
      <trkpt lat="46.02622" lon="5.85006">
        <ele>505.5</ele>
        <time>2022-09-26T13:37:17Z</time>
      </trkpt>
      <trkpt lat="46.02626" lon="5.85006">
        <ele>505.4</ele>
        <time>2022-09-26T13:37:18Z</time>
      </trkpt>
      <trkpt lat="46.02631" lon="5.85006">
        <ele>505.3</ele>
        <time>2022-09-26T13:37:19Z</time>
      </trkpt>
      <trkpt lat="46.02635" lon="5.85006">
        <ele>505.2</ele>
        <time>2022-09-26T13:37:20Z</time>
      </trkpt>
      <trkpt lat="46.02639" lon="5.85006">
        <ele>505.2</ele>
        <time>2022-09-26T13:37:21Z</time>
      </trkpt>
      <trkpt lat="46.02643" lon="5.85007">
        <ele>505.1</ele>
        <time>2022-09-26T13:37:22Z</time>
      </trkpt>
      <trkpt lat="46.02646" lon="5.85008">
        <ele>505</ele>
        <time>2022-09-26T13:37:23Z</time>
      </trkpt>
      <trkpt lat="46.02647" lon="5.85008">
        <ele>505</ele>
        <time>2022-09-26T13:37:24Z</time>
      </trkpt>
      <trkpt lat="46.0265" lon="5.8501">
        <ele>504.9</ele>
        <time>2022-09-26T13:37:25Z</time>
      </trkpt>
      <trkpt lat="46.02652" lon="5.8501">
        <ele>504.9</ele>
        <time>2022-09-26T13:37:26Z</time>
      </trkpt>
      <trkpt lat="46.02654" lon="5.85011">
        <ele>504.8</ele>
        <time>2022-09-26T13:37:27Z</time>
      </trkpt>
      <trkpt lat="46.02657" lon="5.85012">
        <ele>504.7</ele>
        <time>2022-09-26T13:37:28Z</time>
      </trkpt>
      <trkpt lat="46.02661" lon="5.85012">
        <ele>504.6</ele>
        <time>2022-09-26T13:37:29Z</time>
      </trkpt>
      <trkpt lat="46.02665" lon="5.85012">
        <ele>504.6</ele>
        <time>2022-09-26T13:37:30Z</time>
      </trkpt>
      <trkpt lat="46.02669" lon="5.85011">
        <ele>504.5</ele>
        <time>2022-09-26T13:37:31Z</time>
      </trkpt>
      <trkpt lat="46.02673" lon="5.85011">
        <ele>504.4</ele>
        <time>2022-09-26T13:37:32Z</time>
      </trkpt>
      <trkpt lat="46.02677" lon="5.85012">
        <ele>504.3</ele>
        <time>2022-09-26T13:37:33Z</time>
      </trkpt>
      <trkpt lat="46.02681" lon="5.85012">
        <ele>504.2</ele>
        <time>2022-09-26T13:37:34Z</time>
      </trkpt>
      <trkpt lat="46.02685" lon="5.85013">
        <ele>504.1</ele>
        <time>2022-09-26T13:37:35Z</time>
      </trkpt>
      <trkpt lat="46.0269" lon="5.85013">
        <ele>504</ele>
        <time>2022-09-26T13:37:36Z</time>
      </trkpt>
      <trkpt lat="46.02694" lon="5.85014">
        <ele>503.9</ele>
        <time>2022-09-26T13:37:37Z</time>
      </trkpt>
      <trkpt lat="46.02699" lon="5.85015">
        <ele>503.7</ele>
        <time>2022-09-26T13:37:38Z</time>
      </trkpt>
      <trkpt lat="46.02703" lon="5.85015">
        <ele>503.6</ele>
        <time>2022-09-26T13:37:39Z</time>
      </trkpt>
      <trkpt lat="46.02708" lon="5.85015">
        <ele>503.5</ele>
        <time>2022-09-26T13:37:40Z</time>
      </trkpt>
      <trkpt lat="46.02713" lon="5.85016">
        <ele>503.5</ele>
        <time>2022-09-26T13:37:41Z</time>
      </trkpt>
      <trkpt lat="46.02717" lon="5.85017">
        <ele>503.4</ele>
        <time>2022-09-26T13:37:42Z</time>
      </trkpt>
      <trkpt lat="46.02721" lon="5.85017">
        <ele>503.4</ele>
        <time>2022-09-26T13:37:43Z</time>
      </trkpt>
      <trkpt lat="46.02726" lon="5.8502">
        <ele>503.3</ele>
        <time>2022-09-26T13:37:44Z</time>
      </trkpt>
      <trkpt lat="46.02732" lon="5.8502">
        <ele>503.3</ele>
        <time>2022-09-26T13:37:45Z</time>
      </trkpt>
      <trkpt lat="46.02735" lon="5.8502">
        <ele>503.3</ele>
        <time>2022-09-26T13:37:46Z</time>
      </trkpt>
      <trkpt lat="46.02739" lon="5.85022">
        <ele>503.3</ele>
        <time>2022-09-26T13:37:47Z</time>
      </trkpt>
      <trkpt lat="46.02744" lon="5.85023">
        <ele>503.3</ele>
        <time>2022-09-26T13:37:48Z</time>
      </trkpt>
      <trkpt lat="46.02749" lon="5.85024">
        <ele>503.4</ele>
        <time>2022-09-26T13:37:49Z</time>
      </trkpt>
      <trkpt lat="46.02754" lon="5.85023">
        <ele>503.4</ele>
        <time>2022-09-26T13:37:50Z</time>
      </trkpt>
      <trkpt lat="46.02758" lon="5.85024">
        <ele>503.4</ele>
        <time>2022-09-26T13:37:51Z</time>
      </trkpt>
      <trkpt lat="46.0276" lon="5.85025">
        <ele>503.4</ele>
        <time>2022-09-26T13:37:52Z</time>
      </trkpt>
      <trkpt lat="46.02765" lon="5.85026">
        <ele>503.4</ele>
        <time>2022-09-26T13:37:53Z</time>
      </trkpt>
      <trkpt lat="46.0277" lon="5.85025">
        <ele>503.4</ele>
        <time>2022-09-26T13:37:54Z</time>
      </trkpt>
      <trkpt lat="46.02774" lon="5.85026">
        <ele>503.4</ele>
        <time>2022-09-26T13:37:55Z</time>
      </trkpt>
      <trkpt lat="46.02779" lon="5.85026">
        <ele>503.5</ele>
        <time>2022-09-26T13:37:56Z</time>
      </trkpt>
      <trkpt lat="46.02784" lon="5.85027">
        <ele>503.5</ele>
        <time>2022-09-26T13:37:57Z</time>
      </trkpt>
      <trkpt lat="46.02788" lon="5.85027">
        <ele>503.6</ele>
        <time>2022-09-26T13:37:58Z</time>
      </trkpt>
      <trkpt lat="46.02792" lon="5.85028">
        <ele>503.6</ele>
        <time>2022-09-26T13:37:59Z</time>
      </trkpt>
      <trkpt lat="46.02796" lon="5.85029">
        <ele>503.7</ele>
        <time>2022-09-26T13:38:00Z</time>
      </trkpt>
      <trkpt lat="46.028" lon="5.8503">
        <ele>503.7</ele>
        <time>2022-09-26T13:38:01Z</time>
      </trkpt>
      <trkpt lat="46.02804" lon="5.85031">
        <ele>503.8</ele>
        <time>2022-09-26T13:38:02Z</time>
      </trkpt>
      <trkpt lat="46.02807" lon="5.85032">
        <ele>503.8</ele>
        <time>2022-09-26T13:38:03Z</time>
      </trkpt>
      <trkpt lat="46.02813" lon="5.85031">
        <ele>503.9</ele>
        <time>2022-09-26T13:38:04Z</time>
      </trkpt>
      <trkpt lat="46.02817" lon="5.85031">
        <ele>504</ele>
        <time>2022-09-26T13:38:05Z</time>
      </trkpt>
      <trkpt lat="46.02821" lon="5.85032">
        <ele>504.1</ele>
        <time>2022-09-26T13:38:06Z</time>
      </trkpt>
      <trkpt lat="46.02825" lon="5.85031">
        <ele>504.2</ele>
        <time>2022-09-26T13:38:07Z</time>
      </trkpt>
      <trkpt lat="46.02829" lon="5.85031">
        <ele>504.3</ele>
        <time>2022-09-26T13:38:08Z</time>
      </trkpt>
      <trkpt lat="46.02834" lon="5.85031">
        <ele>504.5</ele>
        <time>2022-09-26T13:38:09Z</time>
      </trkpt>
      <trkpt lat="46.02837" lon="5.85031">
        <ele>504.6</ele>
        <time>2022-09-26T13:38:10Z</time>
      </trkpt>
      <trkpt lat="46.02841" lon="5.85031">
        <ele>504.7</ele>
        <time>2022-09-26T13:38:11Z</time>
      </trkpt>
      <trkpt lat="46.02844" lon="5.85031">
        <ele>504.8</ele>
        <time>2022-09-26T13:38:12Z</time>
      </trkpt>
      <trkpt lat="46.02848" lon="5.85031">
        <ele>505</ele>
        <time>2022-09-26T13:38:13Z</time>
      </trkpt>
      <trkpt lat="46.02851" lon="5.85031">
        <ele>505.1</ele>
        <time>2022-09-26T13:38:14Z</time>
      </trkpt>
      <trkpt lat="46.02855" lon="5.85031">
        <ele>505.2</ele>
        <time>2022-09-26T13:38:15Z</time>
      </trkpt>
      <trkpt lat="46.02858" lon="5.85031">
        <ele>505.3</ele>
        <time>2022-09-26T13:38:16Z</time>
      </trkpt>
      <trkpt lat="46.02861" lon="5.85031">
        <ele>505.5</ele>
        <time>2022-09-26T13:38:17Z</time>
      </trkpt>
      <trkpt lat="46.02864" lon="5.85031">
        <ele>505.6</ele>
        <time>2022-09-26T13:38:18Z</time>
      </trkpt>
      <trkpt lat="46.02868" lon="5.8503">
        <ele>505.7</ele>
        <time>2022-09-26T13:38:19Z</time>
      </trkpt>
      <trkpt lat="46.02871" lon="5.8503">
        <ele>505.8</ele>
        <time>2022-09-26T13:38:20Z</time>
      </trkpt>
      <trkpt lat="46.02874" lon="5.8503">
        <ele>505.9</ele>
        <time>2022-09-26T13:38:21Z</time>
      </trkpt>
      <trkpt lat="46.02879" lon="5.85029">
        <ele>506</ele>
        <time>2022-09-26T13:38:22Z</time>
      </trkpt>
      <trkpt lat="46.02881" lon="5.85029">
        <ele>506.1</ele>
        <time>2022-09-26T13:38:23Z</time>
      </trkpt>
      <trkpt lat="46.02885" lon="5.85028">
        <ele>506.2</ele>
        <time>2022-09-26T13:38:24Z</time>
      </trkpt>
      <trkpt lat="46.02887" lon="5.85027">
        <ele>506.3</ele>
        <time>2022-09-26T13:38:25Z</time>
      </trkpt>
      <trkpt lat="46.02891" lon="5.85028">
        <ele>506.3</ele>
        <time>2022-09-26T13:38:26Z</time>
      </trkpt>
      <trkpt lat="46.02892" lon="5.85028">
        <ele>506.4</ele>
        <time>2022-09-26T13:38:27Z</time>
      </trkpt>
      <trkpt lat="46.02896" lon="5.85029">
        <ele>506.4</ele>
        <time>2022-09-26T13:38:28Z</time>
      </trkpt>
      <trkpt lat="46.02899" lon="5.85028">
        <ele>506.5</ele>
        <time>2022-09-26T13:38:29Z</time>
      </trkpt>
      <trkpt lat="46.02901" lon="5.85027">
        <ele>506.5</ele>
        <time>2022-09-26T13:38:30Z</time>
      </trkpt>
      <trkpt lat="46.02904" lon="5.85027">
        <ele>506.6</ele>
        <time>2022-09-26T13:38:31Z</time>
      </trkpt>
      <trkpt lat="46.02907" lon="5.85027">
        <ele>506.6</ele>
        <time>2022-09-26T13:38:32Z</time>
      </trkpt>
      <trkpt lat="46.0291" lon="5.85026">
        <ele>506.7</ele>
        <time>2022-09-26T13:38:33Z</time>
      </trkpt>
      <trkpt lat="46.02914" lon="5.85027">
        <ele>506.8</ele>
        <time>2022-09-26T13:38:34Z</time>
      </trkpt>
      <trkpt lat="46.02917" lon="5.85027">
        <ele>506.8</ele>
        <time>2022-09-26T13:38:35Z</time>
      </trkpt>
      <trkpt lat="46.0292" lon="5.85026">
        <ele>506.9</ele>
        <time>2022-09-26T13:38:36Z</time>
      </trkpt>
      <trkpt lat="46.02924" lon="5.85026">
        <ele>506.9</ele>
        <time>2022-09-26T13:38:37Z</time>
      </trkpt>
      <trkpt lat="46.02927" lon="5.85026">
        <ele>507</ele>
        <time>2022-09-26T13:38:38Z</time>
      </trkpt>
      <trkpt lat="46.02931" lon="5.85026">
        <ele>507</ele>
        <time>2022-09-26T13:38:39Z</time>
      </trkpt>
      <trkpt lat="46.02934" lon="5.85027">
        <ele>507</ele>
        <time>2022-09-26T13:38:40Z</time>
      </trkpt>
      <trkpt lat="46.02937" lon="5.85027">
        <ele>507</ele>
        <time>2022-09-26T13:38:41Z</time>
      </trkpt>
      <trkpt lat="46.02941" lon="5.85028">
        <ele>507.1</ele>
        <time>2022-09-26T13:38:42Z</time>
      </trkpt>
      <trkpt lat="46.02944" lon="5.85028">
        <ele>507.1</ele>
        <time>2022-09-26T13:38:43Z</time>
      </trkpt>
      <trkpt lat="46.02947" lon="5.85028">
        <ele>507.1</ele>
        <time>2022-09-26T13:38:44Z</time>
      </trkpt>
      <trkpt lat="46.0295" lon="5.85029">
        <ele>507.1</ele>
        <time>2022-09-26T13:38:45Z</time>
      </trkpt>
      <trkpt lat="46.02954" lon="5.8503">
        <ele>507.1</ele>
        <time>2022-09-26T13:38:46Z</time>
      </trkpt>
      <trkpt lat="46.02959" lon="5.85031">
        <ele>507.2</ele>
        <time>2022-09-26T13:38:47Z</time>
      </trkpt>
      <trkpt lat="46.02962" lon="5.85031">
        <ele>507.2</ele>
        <time>2022-09-26T13:38:48Z</time>
      </trkpt>
      <trkpt lat="46.02966" lon="5.85032">
        <ele>507.2</ele>
        <time>2022-09-26T13:38:49Z</time>
      </trkpt>
      <trkpt lat="46.02969" lon="5.85034">
        <ele>507.2</ele>
        <time>2022-09-26T13:38:50Z</time>
      </trkpt>
      <trkpt lat="46.02973" lon="5.85034">
        <ele>507.2</ele>
        <time>2022-09-26T13:38:51Z</time>
      </trkpt>
      <trkpt lat="46.02976" lon="5.85036">
        <ele>507.2</ele>
        <time>2022-09-26T13:38:52Z</time>
      </trkpt>
      <trkpt lat="46.02979" lon="5.85037">
        <ele>507.3</ele>
        <time>2022-09-26T13:38:53Z</time>
      </trkpt>
      <trkpt lat="46.02983" lon="5.85038">
        <ele>507.3</ele>
        <time>2022-09-26T13:38:54Z</time>
      </trkpt>
      <trkpt lat="46.02987" lon="5.8504">
        <ele>507.3</ele>
        <time>2022-09-26T13:38:55Z</time>
      </trkpt>
      <trkpt lat="46.02991" lon="5.8504">
        <ele>507.3</ele>
        <time>2022-09-26T13:38:56Z</time>
      </trkpt>
      <trkpt lat="46.02995" lon="5.85042">
        <ele>507.3</ele>
        <time>2022-09-26T13:38:57Z</time>
      </trkpt>
      <trkpt lat="46.02998" lon="5.85043">
        <ele>507.3</ele>
        <time>2022-09-26T13:38:58Z</time>
      </trkpt>
      <trkpt lat="46.03002" lon="5.85044">
        <ele>507.3</ele>
        <time>2022-09-26T13:38:59Z</time>
      </trkpt>
      <trkpt lat="46.03005" lon="5.85046">
        <ele>507.2</ele>
        <time>2022-09-26T13:39:00Z</time>
      </trkpt>
      <trkpt lat="46.03009" lon="5.85047">
        <ele>507.2</ele>
        <time>2022-09-26T13:39:01Z</time>
      </trkpt>
      <trkpt lat="46.03014" lon="5.85049">
        <ele>507.2</ele>
        <time>2022-09-26T13:39:02Z</time>
      </trkpt>
      <trkpt lat="46.03019" lon="5.85051">
        <ele>507.1</ele>
        <time>2022-09-26T13:39:03Z</time>
      </trkpt>
      <trkpt lat="46.03023" lon="5.85053">
        <ele>507.1</ele>
        <time>2022-09-26T13:39:04Z</time>
      </trkpt>
      <trkpt lat="46.03027" lon="5.85054">
        <ele>507.1</ele>
        <time>2022-09-26T13:39:05Z</time>
      </trkpt>
      <trkpt lat="46.03032" lon="5.85056">
        <ele>507.1</ele>
        <time>2022-09-26T13:39:06Z</time>
      </trkpt>
      <trkpt lat="46.03038" lon="5.85057">
        <ele>507.1</ele>
        <time>2022-09-26T13:39:07Z</time>
      </trkpt>
      <trkpt lat="46.03042" lon="5.85058">
        <ele>507.1</ele>
        <time>2022-09-26T13:39:08Z</time>
      </trkpt>
      <trkpt lat="46.03046" lon="5.85059">
        <ele>507.2</ele>
        <time>2022-09-26T13:39:09Z</time>
      </trkpt>
      <trkpt lat="46.0305" lon="5.8506">
        <ele>507.2</ele>
        <time>2022-09-26T13:39:10Z</time>
      </trkpt>
      <trkpt lat="46.03055" lon="5.85061">
        <ele>507.3</ele>
        <time>2022-09-26T13:39:11Z</time>
      </trkpt>
      <trkpt lat="46.03059" lon="5.85062">
        <ele>507.4</ele>
        <time>2022-09-26T13:39:12Z</time>
      </trkpt>
      <trkpt lat="46.03062" lon="5.85062">
        <ele>507.5</ele>
        <time>2022-09-26T13:39:13Z</time>
      </trkpt>
      <trkpt lat="46.03066" lon="5.85063">
        <ele>507.6</ele>
        <time>2022-09-26T13:39:14Z</time>
      </trkpt>
      <trkpt lat="46.0307" lon="5.85064">
        <ele>507.7</ele>
        <time>2022-09-26T13:39:15Z</time>
      </trkpt>
      <trkpt lat="46.03073" lon="5.85065">
        <ele>507.7</ele>
        <time>2022-09-26T13:39:16Z</time>
      </trkpt>
      <trkpt lat="46.03077" lon="5.85065">
        <ele>507.8</ele>
        <time>2022-09-26T13:39:17Z</time>
      </trkpt>
      <trkpt lat="46.0308" lon="5.85066">
        <ele>507.8</ele>
        <time>2022-09-26T13:39:18Z</time>
      </trkpt>
      <trkpt lat="46.03084" lon="5.85066">
        <ele>507.9</ele>
        <time>2022-09-26T13:39:19Z</time>
      </trkpt>
      <trkpt lat="46.03088" lon="5.85067">
        <ele>508</ele>
        <time>2022-09-26T13:39:20Z</time>
      </trkpt>
      <trkpt lat="46.03091" lon="5.85067">
        <ele>508</ele>
        <time>2022-09-26T13:39:21Z</time>
      </trkpt>
      <trkpt lat="46.03094" lon="5.85068">
        <ele>508</ele>
        <time>2022-09-26T13:39:22Z</time>
      </trkpt>
      <trkpt lat="46.03098" lon="5.85069">
        <ele>508.1</ele>
        <time>2022-09-26T13:39:23Z</time>
      </trkpt>
      <trkpt lat="46.03101" lon="5.85069">
        <ele>508.1</ele>
        <time>2022-09-26T13:39:24Z</time>
      </trkpt>
      <trkpt lat="46.03105" lon="5.85069">
        <ele>508.2</ele>
        <time>2022-09-26T13:39:25Z</time>
      </trkpt>
      <trkpt lat="46.03109" lon="5.85069">
        <ele>508.2</ele>
        <time>2022-09-26T13:39:26Z</time>
      </trkpt>
      <trkpt lat="46.03112" lon="5.8507">
        <ele>508.2</ele>
        <time>2022-09-26T13:39:27Z</time>
      </trkpt>
      <trkpt lat="46.03115" lon="5.85071">
        <ele>508.3</ele>
        <time>2022-09-26T13:39:28Z</time>
      </trkpt>
      <trkpt lat="46.03119" lon="5.85071">
        <ele>508.3</ele>
        <time>2022-09-26T13:39:29Z</time>
      </trkpt>
      <trkpt lat="46.03122" lon="5.85072">
        <ele>508.4</ele>
        <time>2022-09-26T13:39:30Z</time>
      </trkpt>
      <trkpt lat="46.03126" lon="5.85073">
        <ele>508.4</ele>
        <time>2022-09-26T13:39:31Z</time>
      </trkpt>
      <trkpt lat="46.03129" lon="5.85074">
        <ele>508.5</ele>
        <time>2022-09-26T13:39:32Z</time>
      </trkpt>
      <trkpt lat="46.03132" lon="5.85074">
        <ele>508.5</ele>
        <time>2022-09-26T13:39:33Z</time>
      </trkpt>
      <trkpt lat="46.03136" lon="5.85075">
        <ele>508.5</ele>
        <time>2022-09-26T13:39:34Z</time>
      </trkpt>
      <trkpt lat="46.0314" lon="5.85075">
        <ele>508.6</ele>
        <time>2022-09-26T13:39:35Z</time>
      </trkpt>
      <trkpt lat="46.03144" lon="5.85076">
        <ele>508.6</ele>
        <time>2022-09-26T13:39:36Z</time>
      </trkpt>
      <trkpt lat="46.03147" lon="5.85077">
        <ele>508.7</ele>
        <time>2022-09-26T13:39:37Z</time>
      </trkpt>
      <trkpt lat="46.0315" lon="5.85077">
        <ele>508.7</ele>
        <time>2022-09-26T13:39:38Z</time>
      </trkpt>
      <trkpt lat="46.03154" lon="5.85078">
        <ele>508.8</ele>
        <time>2022-09-26T13:39:39Z</time>
      </trkpt>
      <trkpt lat="46.03157" lon="5.85079">
        <ele>508.8</ele>
        <time>2022-09-26T13:39:40Z</time>
      </trkpt>
      <trkpt lat="46.0316" lon="5.85079">
        <ele>508.9</ele>
        <time>2022-09-26T13:39:41Z</time>
      </trkpt>
      <trkpt lat="46.03163" lon="5.85081">
        <ele>509</ele>
        <time>2022-09-26T13:39:42Z</time>
      </trkpt>
      <trkpt lat="46.03167" lon="5.85082">
        <ele>509</ele>
        <time>2022-09-26T13:39:43Z</time>
      </trkpt>
      <trkpt lat="46.0317" lon="5.85082">
        <ele>509.1</ele>
        <time>2022-09-26T13:39:44Z</time>
      </trkpt>
      <trkpt lat="46.03173" lon="5.85084">
        <ele>509.1</ele>
        <time>2022-09-26T13:39:45Z</time>
      </trkpt>
      <trkpt lat="46.03176" lon="5.85084">
        <ele>509.2</ele>
        <time>2022-09-26T13:39:46Z</time>
      </trkpt>
      <trkpt lat="46.0318" lon="5.85085">
        <ele>509.2</ele>
        <time>2022-09-26T13:39:47Z</time>
      </trkpt>
      <trkpt lat="46.03183" lon="5.85085">
        <ele>509.3</ele>
        <time>2022-09-26T13:39:48Z</time>
      </trkpt>
      <trkpt lat="46.03187" lon="5.85086">
        <ele>509.3</ele>
        <time>2022-09-26T13:39:49Z</time>
      </trkpt>
      <trkpt lat="46.0319" lon="5.85086">
        <ele>509.4</ele>
        <time>2022-09-26T13:39:50Z</time>
      </trkpt>
      <trkpt lat="46.03194" lon="5.85086">
        <ele>509.5</ele>
        <time>2022-09-26T13:39:51Z</time>
      </trkpt>
      <trkpt lat="46.03197" lon="5.85087">
        <ele>509.6</ele>
        <time>2022-09-26T13:39:52Z</time>
      </trkpt>
      <trkpt lat="46.03201" lon="5.85087">
        <ele>509.6</ele>
        <time>2022-09-26T13:39:53Z</time>
      </trkpt>
      <trkpt lat="46.03204" lon="5.85088">
        <ele>509.7</ele>
        <time>2022-09-26T13:39:54Z</time>
      </trkpt>
      <trkpt lat="46.03207" lon="5.85089">
        <ele>509.8</ele>
        <time>2022-09-26T13:39:55Z</time>
      </trkpt>
      <trkpt lat="46.03211" lon="5.85088">
        <ele>509.9</ele>
        <time>2022-09-26T13:39:56Z</time>
      </trkpt>
      <trkpt lat="46.03214" lon="5.85089">
        <ele>509.9</ele>
        <time>2022-09-26T13:39:57Z</time>
      </trkpt>
      <trkpt lat="46.03218" lon="5.85088">
        <ele>510</ele>
        <time>2022-09-26T13:39:58Z</time>
      </trkpt>
      <trkpt lat="46.03221" lon="5.85089">
        <ele>510.1</ele>
        <time>2022-09-26T13:39:59Z</time>
      </trkpt>
      <trkpt lat="46.03224" lon="5.85088">
        <ele>510.2</ele>
        <time>2022-09-26T13:40:00Z</time>
      </trkpt>
      <trkpt lat="46.03228" lon="5.8509">
        <ele>510.3</ele>
        <time>2022-09-26T13:40:01Z</time>
      </trkpt>
      <trkpt lat="46.03231" lon="5.85089">
        <ele>510.4</ele>
        <time>2022-09-26T13:40:02Z</time>
      </trkpt>
      <trkpt lat="46.03235" lon="5.85089">
        <ele>510.5</ele>
        <time>2022-09-26T13:40:03Z</time>
      </trkpt>
      <trkpt lat="46.03237" lon="5.85089">
        <ele>510.5</ele>
        <time>2022-09-26T13:40:04Z</time>
      </trkpt>
      <trkpt lat="46.0324" lon="5.85089">
        <ele>510.6</ele>
        <time>2022-09-26T13:40:05Z</time>
      </trkpt>
      <trkpt lat="46.03243" lon="5.8509">
        <ele>510.7</ele>
        <time>2022-09-26T13:40:06Z</time>
      </trkpt>
      <trkpt lat="46.03246" lon="5.85089">
        <ele>510.8</ele>
        <time>2022-09-26T13:40:07Z</time>
      </trkpt>
      <trkpt lat="46.03249" lon="5.85089">
        <ele>510.9</ele>
        <time>2022-09-26T13:40:08Z</time>
      </trkpt>
      <trkpt lat="46.03253" lon="5.85089">
        <ele>511</ele>
        <time>2022-09-26T13:40:09Z</time>
      </trkpt>
      <trkpt lat="46.03254" lon="5.85089">
        <ele>511.1</ele>
        <time>2022-09-26T13:40:10Z</time>
      </trkpt>
      <trkpt lat="46.03257" lon="5.85089">
        <ele>511.2</ele>
        <time>2022-09-26T13:40:11Z</time>
      </trkpt>
      <trkpt lat="46.03261" lon="5.8509">
        <ele>511.3</ele>
        <time>2022-09-26T13:40:12Z</time>
      </trkpt>
      <trkpt lat="46.03262" lon="5.8509">
        <ele>511.4</ele>
        <time>2022-09-26T13:40:13Z</time>
      </trkpt>
      <trkpt lat="46.03266" lon="5.8509">
        <ele>511.5</ele>
        <time>2022-09-26T13:40:14Z</time>
      </trkpt>
      <trkpt lat="46.03269" lon="5.85089">
        <ele>511.6</ele>
        <time>2022-09-26T13:40:15Z</time>
      </trkpt>
      <trkpt lat="46.03271" lon="5.85089">
        <ele>511.6</ele>
        <time>2022-09-26T13:40:16Z</time>
      </trkpt>
      <trkpt lat="46.03274" lon="5.85089">
        <ele>511.7</ele>
        <time>2022-09-26T13:40:17Z</time>
      </trkpt>
      <trkpt lat="46.03277" lon="5.85089">
        <ele>511.9</ele>
        <time>2022-09-26T13:40:18Z</time>
      </trkpt>
      <trkpt lat="46.0328" lon="5.85089">
        <ele>511.9</ele>
        <time>2022-09-26T13:40:19Z</time>
      </trkpt>
      <trkpt lat="46.03283" lon="5.8509">
        <ele>512</ele>
        <time>2022-09-26T13:40:20Z</time>
      </trkpt>
      <trkpt lat="46.03285" lon="5.8509">
        <ele>512.1</ele>
        <time>2022-09-26T13:40:21Z</time>
      </trkpt>
      <trkpt lat="46.03289" lon="5.85089">
        <ele>512.2</ele>
        <time>2022-09-26T13:40:22Z</time>
      </trkpt>
      <trkpt lat="46.0329" lon="5.85089">
        <ele>512.2</ele>
        <time>2022-09-26T13:40:23Z</time>
      </trkpt>
      <trkpt lat="46.03293" lon="5.85089">
        <ele>512.3</ele>
        <time>2022-09-26T13:40:24Z</time>
      </trkpt>
      <trkpt lat="46.03296" lon="5.85088">
        <ele>512.4</ele>
        <time>2022-09-26T13:40:25Z</time>
      </trkpt>
      <trkpt lat="46.03298" lon="5.85088">
        <ele>512.4</ele>
        <time>2022-09-26T13:40:26Z</time>
      </trkpt>
      <trkpt lat="46.03301" lon="5.85088">
        <ele>512.5</ele>
        <time>2022-09-26T13:40:27Z</time>
      </trkpt>
      <trkpt lat="46.03303" lon="5.85088">
        <ele>512.6</ele>
        <time>2022-09-26T13:40:28Z</time>
      </trkpt>
      <trkpt lat="46.03306" lon="5.85087">
        <ele>512.7</ele>
        <time>2022-09-26T13:40:29Z</time>
      </trkpt>
      <trkpt lat="46.03308" lon="5.85087">
        <ele>512.7</ele>
        <time>2022-09-26T13:40:30Z</time>
      </trkpt>
      <trkpt lat="46.03311" lon="5.85086">
        <ele>512.8</ele>
        <time>2022-09-26T13:40:31Z</time>
      </trkpt>
      <trkpt lat="46.03312" lon="5.85085">
        <ele>512.8</ele>
        <time>2022-09-26T13:40:32Z</time>
      </trkpt>
      <trkpt lat="46.03316" lon="5.85084">
        <ele>512.9</ele>
        <time>2022-09-26T13:40:33Z</time>
      </trkpt>
      <trkpt lat="46.03317" lon="5.85083">
        <ele>512.9</ele>
        <time>2022-09-26T13:40:34Z</time>
      </trkpt>
      <trkpt lat="46.0332" lon="5.85083">
        <ele>512.9</ele>
        <time>2022-09-26T13:40:35Z</time>
      </trkpt>
      <trkpt lat="46.03324" lon="5.85082">
        <ele>513</ele>
        <time>2022-09-26T13:40:36Z</time>
      </trkpt>
      <trkpt lat="46.03325" lon="5.85082">
        <ele>513</ele>
        <time>2022-09-26T13:40:37Z</time>
      </trkpt>
      <trkpt lat="46.03328" lon="5.85081">
        <ele>513.1</ele>
        <time>2022-09-26T13:40:38Z</time>
      </trkpt>
      <trkpt lat="46.03331" lon="5.8508">
        <ele>513.1</ele>
        <time>2022-09-26T13:40:39Z</time>
      </trkpt>
      <trkpt lat="46.03335" lon="5.85079">
        <ele>513.2</ele>
        <time>2022-09-26T13:40:40Z</time>
      </trkpt>
      <trkpt lat="46.03336" lon="5.85079">
        <ele>513.2</ele>
        <time>2022-09-26T13:40:41Z</time>
      </trkpt>
      <trkpt lat="46.03339" lon="5.85078">
        <ele>513.3</ele>
        <time>2022-09-26T13:40:42Z</time>
      </trkpt>
      <trkpt lat="46.03342" lon="5.85077">
        <ele>513.3</ele>
        <time>2022-09-26T13:40:43Z</time>
      </trkpt>
      <trkpt lat="46.03345" lon="5.85077">
        <ele>513.4</ele>
        <time>2022-09-26T13:40:44Z</time>
      </trkpt>
      <trkpt lat="46.03347" lon="5.85077">
        <ele>513.5</ele>
        <time>2022-09-26T13:40:45Z</time>
      </trkpt>
      <trkpt lat="46.0335" lon="5.85076">
        <ele>513.6</ele>
        <time>2022-09-26T13:40:46Z</time>
      </trkpt>
      <trkpt lat="46.03354" lon="5.85076">
        <ele>513.6</ele>
        <time>2022-09-26T13:40:47Z</time>
      </trkpt>
      <trkpt lat="46.03356" lon="5.85076">
        <ele>513.7</ele>
        <time>2022-09-26T13:40:48Z</time>
      </trkpt>
      <trkpt lat="46.03359" lon="5.85076">
        <ele>513.8</ele>
        <time>2022-09-26T13:40:49Z</time>
      </trkpt>
      <trkpt lat="46.0336" lon="5.85076">
        <ele>513.8</ele>
        <time>2022-09-26T13:40:50Z</time>
      </trkpt>
      <trkpt lat="46.03363" lon="5.85075">
        <ele>513.9</ele>
        <time>2022-09-26T13:40:51Z</time>
      </trkpt>
      <trkpt lat="46.03367" lon="5.85073">
        <ele>514</ele>
        <time>2022-09-26T13:40:52Z</time>
      </trkpt>
      <trkpt lat="46.03368" lon="5.85073">
        <ele>514</ele>
        <time>2022-09-26T13:40:53Z</time>
      </trkpt>
      <trkpt lat="46.03372" lon="5.85073">
        <ele>514.1</ele>
        <time>2022-09-26T13:40:54Z</time>
      </trkpt>
      <trkpt lat="46.03373" lon="5.85073">
        <ele>514.1</ele>
        <time>2022-09-26T13:40:55Z</time>
      </trkpt>
      <trkpt lat="46.03377" lon="5.85074">
        <ele>514.2</ele>
        <time>2022-09-26T13:40:56Z</time>
      </trkpt>
      <trkpt lat="46.03378" lon="5.85074">
        <ele>514.3</ele>
        <time>2022-09-26T13:40:57Z</time>
      </trkpt>
      <trkpt lat="46.03381" lon="5.85074">
        <ele>514.3</ele>
        <time>2022-09-26T13:40:58Z</time>
      </trkpt>
      <trkpt lat="46.03384" lon="5.85074">
        <ele>514.4</ele>
        <time>2022-09-26T13:40:59Z</time>
      </trkpt>
      <trkpt lat="46.03387" lon="5.85074">
        <ele>514.5</ele>
        <time>2022-09-26T13:41:00Z</time>
      </trkpt>
      <trkpt lat="46.0339" lon="5.85074">
        <ele>514.5</ele>
        <time>2022-09-26T13:41:01Z</time>
      </trkpt>
      <trkpt lat="46.03394" lon="5.85074">
        <ele>514.6</ele>
        <time>2022-09-26T13:41:02Z</time>
      </trkpt>
      <trkpt lat="46.03395" lon="5.85074">
        <ele>514.6</ele>
        <time>2022-09-26T13:41:03Z</time>
      </trkpt>
      <trkpt lat="46.03399" lon="5.85073">
        <ele>514.7</ele>
        <time>2022-09-26T13:41:04Z</time>
      </trkpt>
      <trkpt lat="46.03401" lon="5.85073">
        <ele>514.7</ele>
        <time>2022-09-26T13:41:05Z</time>
      </trkpt>
      <trkpt lat="46.03405" lon="5.85074">
        <ele>514.8</ele>
        <time>2022-09-26T13:41:06Z</time>
      </trkpt>
      <trkpt lat="46.03408" lon="5.85072">
        <ele>514.8</ele>
        <time>2022-09-26T13:41:07Z</time>
      </trkpt>
      <trkpt lat="46.0341" lon="5.85072">
        <ele>514.9</ele>
        <time>2022-09-26T13:41:08Z</time>
      </trkpt>
      <trkpt lat="46.03413" lon="5.85071">
        <ele>514.9</ele>
        <time>2022-09-26T13:41:09Z</time>
      </trkpt>
      <trkpt lat="46.03416" lon="5.85071">
        <ele>515</ele>
        <time>2022-09-26T13:41:10Z</time>
      </trkpt>
      <trkpt lat="46.03419" lon="5.85072">
        <ele>515</ele>
        <time>2022-09-26T13:41:11Z</time>
      </trkpt>
      <trkpt lat="46.03422" lon="5.85072">
        <ele>515.1</ele>
        <time>2022-09-26T13:41:12Z</time>
      </trkpt>
      <trkpt lat="46.03427" lon="5.85072">
        <ele>515.1</ele>
        <time>2022-09-26T13:41:13Z</time>
      </trkpt>
      <trkpt lat="46.03428" lon="5.85072">
        <ele>515.1</ele>
        <time>2022-09-26T13:41:14Z</time>
      </trkpt>
      <trkpt lat="46.03432" lon="5.85072">
        <ele>515.2</ele>
        <time>2022-09-26T13:41:15Z</time>
      </trkpt>
      <trkpt lat="46.03434" lon="5.85072">
        <ele>515.2</ele>
        <time>2022-09-26T13:41:16Z</time>
      </trkpt>
      <trkpt lat="46.03438" lon="5.85073">
        <ele>515.3</ele>
        <time>2022-09-26T13:41:17Z</time>
      </trkpt>
      <trkpt lat="46.03441" lon="5.85072">
        <ele>515.3</ele>
        <time>2022-09-26T13:41:18Z</time>
      </trkpt>
      <trkpt lat="46.03446" lon="5.85071">
        <ele>515.4</ele>
        <time>2022-09-26T13:41:19Z</time>
      </trkpt>
      <trkpt lat="46.03449" lon="5.8507">
        <ele>515.4</ele>
        <time>2022-09-26T13:41:20Z</time>
      </trkpt>
      <trkpt lat="46.03453" lon="5.85071">
        <ele>515.4</ele>
        <time>2022-09-26T13:41:21Z</time>
      </trkpt>
      <trkpt lat="46.03454" lon="5.8507">
        <ele>515.5</ele>
        <time>2022-09-26T13:41:22Z</time>
      </trkpt>
      <trkpt lat="46.03457" lon="5.8507">
        <ele>515.5</ele>
        <time>2022-09-26T13:41:23Z</time>
      </trkpt>
      <trkpt lat="46.03461" lon="5.85071">
        <ele>515.5</ele>
        <time>2022-09-26T13:41:24Z</time>
      </trkpt>
      <trkpt lat="46.03464" lon="5.85071">
        <ele>515.5</ele>
        <time>2022-09-26T13:41:25Z</time>
      </trkpt>
      <trkpt lat="46.03467" lon="5.8507">
        <ele>515.6</ele>
        <time>2022-09-26T13:41:26Z</time>
      </trkpt>
      <trkpt lat="46.03471" lon="5.85068">
        <ele>515.6</ele>
        <time>2022-09-26T13:41:27Z</time>
      </trkpt>
      <trkpt lat="46.03475" lon="5.85068">
        <ele>515.6</ele>
        <time>2022-09-26T13:41:28Z</time>
      </trkpt>
      <trkpt lat="46.03478" lon="5.85069">
        <ele>515.6</ele>
        <time>2022-09-26T13:41:29Z</time>
      </trkpt>
      <trkpt lat="46.03482" lon="5.85069">
        <ele>515.7</ele>
        <time>2022-09-26T13:41:30Z</time>
      </trkpt>
      <trkpt lat="46.03485" lon="5.85069">
        <ele>515.7</ele>
        <time>2022-09-26T13:41:31Z</time>
      </trkpt>
      <trkpt lat="46.0349" lon="5.85069">
        <ele>515.7</ele>
        <time>2022-09-26T13:41:32Z</time>
      </trkpt>
      <trkpt lat="46.03494" lon="5.85068">
        <ele>515.8</ele>
        <time>2022-09-26T13:41:33Z</time>
      </trkpt>
      <trkpt lat="46.03498" lon="5.85069">
        <ele>515.8</ele>
        <time>2022-09-26T13:41:34Z</time>
      </trkpt>
      <trkpt lat="46.035" lon="5.85069">
        <ele>515.9</ele>
        <time>2022-09-26T13:41:35Z</time>
      </trkpt>
      <trkpt lat="46.03504" lon="5.85069">
        <ele>515.9</ele>
        <time>2022-09-26T13:41:36Z</time>
      </trkpt>
      <trkpt lat="46.03507" lon="5.85069">
        <ele>516</ele>
        <time>2022-09-26T13:41:37Z</time>
      </trkpt>
      <trkpt lat="46.0351" lon="5.85069">
        <ele>516</ele>
        <time>2022-09-26T13:41:38Z</time>
      </trkpt>
      <trkpt lat="46.03514" lon="5.8507">
        <ele>516.1</ele>
        <time>2022-09-26T13:41:39Z</time>
      </trkpt>
      <trkpt lat="46.03518" lon="5.85071">
        <ele>516.2</ele>
        <time>2022-09-26T13:41:40Z</time>
      </trkpt>
      <trkpt lat="46.0352" lon="5.85072">
        <ele>516.3</ele>
        <time>2022-09-26T13:41:41Z</time>
      </trkpt>
      <trkpt lat="46.03524" lon="5.85072">
        <ele>516.4</ele>
        <time>2022-09-26T13:41:42Z</time>
      </trkpt>
      <trkpt lat="46.03525" lon="5.85072">
        <ele>516.4</ele>
        <time>2022-09-26T13:41:43Z</time>
      </trkpt>
      <trkpt lat="46.0353" lon="5.85072">
        <ele>516.6</ele>
        <time>2022-09-26T13:41:44Z</time>
      </trkpt>
      <trkpt lat="46.03531" lon="5.85072">
        <ele>516.6</ele>
        <time>2022-09-26T13:41:45Z</time>
      </trkpt>
      <trkpt lat="46.03534" lon="5.85074">
        <ele>516.7</ele>
        <time>2022-09-26T13:41:46Z</time>
      </trkpt>
      <trkpt lat="46.03538" lon="5.85073">
        <ele>516.8</ele>
        <time>2022-09-26T13:41:47Z</time>
      </trkpt>
      <trkpt lat="46.0354" lon="5.85072">
        <ele>516.8</ele>
        <time>2022-09-26T13:41:48Z</time>
      </trkpt>
      <trkpt lat="46.03544" lon="5.85072">
        <ele>516.9</ele>
        <time>2022-09-26T13:41:49Z</time>
      </trkpt>
      <trkpt lat="46.03545" lon="5.85072">
        <ele>517</ele>
        <time>2022-09-26T13:41:50Z</time>
      </trkpt>
      <trkpt lat="46.03549" lon="5.85071">
        <ele>517.1</ele>
        <time>2022-09-26T13:41:51Z</time>
      </trkpt>
      <trkpt lat="46.03553" lon="5.85072">
        <ele>517.2</ele>
        <time>2022-09-26T13:41:52Z</time>
      </trkpt>
      <trkpt lat="46.03554" lon="5.85072">
        <ele>517.2</ele>
        <time>2022-09-26T13:41:53Z</time>
      </trkpt>
      <trkpt lat="46.03557" lon="5.85071">
        <ele>517.3</ele>
        <time>2022-09-26T13:41:54Z</time>
      </trkpt>
      <trkpt lat="46.03558" lon="5.85071">
        <ele>517.3</ele>
        <time>2022-09-26T13:41:55Z</time>
      </trkpt>
      <trkpt lat="46.03561" lon="5.85072">
        <ele>517.4</ele>
        <time>2022-09-26T13:41:56Z</time>
      </trkpt>
      <trkpt lat="46.03565" lon="5.85072">
        <ele>517.5</ele>
        <time>2022-09-26T13:41:57Z</time>
      </trkpt>
      <trkpt lat="46.03569" lon="5.85072">
        <ele>517.6</ele>
        <time>2022-09-26T13:41:58Z</time>
      </trkpt>
      <trkpt lat="46.03571" lon="5.85072">
        <ele>517.6</ele>
        <time>2022-09-26T13:41:59Z</time>
      </trkpt>
      <trkpt lat="46.03574" lon="5.85072">
        <ele>517.7</ele>
        <time>2022-09-26T13:42:00Z</time>
      </trkpt>
      <trkpt lat="46.03578" lon="5.85071">
        <ele>517.8</ele>
        <time>2022-09-26T13:42:01Z</time>
      </trkpt>
      <trkpt lat="46.03581" lon="5.85071">
        <ele>517.8</ele>
        <time>2022-09-26T13:42:02Z</time>
      </trkpt>
      <trkpt lat="46.03585" lon="5.85071">
        <ele>517.9</ele>
        <time>2022-09-26T13:42:03Z</time>
      </trkpt>
      <trkpt lat="46.03589" lon="5.8507">
        <ele>518</ele>
        <time>2022-09-26T13:42:04Z</time>
      </trkpt>
      <trkpt lat="46.03593" lon="5.8507">
        <ele>518.1</ele>
        <time>2022-09-26T13:42:05Z</time>
      </trkpt>
      <trkpt lat="46.03596" lon="5.85071">
        <ele>518.2</ele>
        <time>2022-09-26T13:42:06Z</time>
      </trkpt>
      <trkpt lat="46.03597" lon="5.85071">
        <ele>518.2</ele>
        <time>2022-09-26T13:42:07Z</time>
      </trkpt>
      <trkpt lat="46.03601" lon="5.85071">
        <ele>518.3</ele>
        <time>2022-09-26T13:42:08Z</time>
      </trkpt>
      <trkpt lat="46.03606" lon="5.85071">
        <ele>518.4</ele>
        <time>2022-09-26T13:42:09Z</time>
      </trkpt>
      <trkpt lat="46.03608" lon="5.85071">
        <ele>518.5</ele>
        <time>2022-09-26T13:42:10Z</time>
      </trkpt>
      <trkpt lat="46.03612" lon="5.8507">
        <ele>518.6</ele>
        <time>2022-09-26T13:42:11Z</time>
      </trkpt>
      <trkpt lat="46.03614" lon="5.8507">
        <ele>518.7</ele>
        <time>2022-09-26T13:42:12Z</time>
      </trkpt>
      <trkpt lat="46.03618" lon="5.85069">
        <ele>518.8</ele>
        <time>2022-09-26T13:42:13Z</time>
      </trkpt>
      <trkpt lat="46.03622" lon="5.85069">
        <ele>518.9</ele>
        <time>2022-09-26T13:42:14Z</time>
      </trkpt>
      <trkpt lat="46.03626" lon="5.85069">
        <ele>519</ele>
        <time>2022-09-26T13:42:15Z</time>
      </trkpt>
      <trkpt lat="46.03627" lon="5.85069">
        <ele>519</ele>
        <time>2022-09-26T13:42:16Z</time>
      </trkpt>
      <trkpt lat="46.0363" lon="5.85068">
        <ele>519.1</ele>
        <time>2022-09-26T13:42:17Z</time>
      </trkpt>
      <trkpt lat="46.03633" lon="5.85066">
        <ele>519.2</ele>
        <time>2022-09-26T13:42:18Z</time>
      </trkpt>
      <trkpt lat="46.03637" lon="5.85066">
        <ele>519.2</ele>
        <time>2022-09-26T13:42:19Z</time>
      </trkpt>
      <trkpt lat="46.0364" lon="5.85065">
        <ele>519.3</ele>
        <time>2022-09-26T13:42:20Z</time>
      </trkpt>
      <trkpt lat="46.03641" lon="5.85065">
        <ele>519.3</ele>
        <time>2022-09-26T13:42:21Z</time>
      </trkpt>
      <trkpt lat="46.03644" lon="5.85065">
        <ele>519.4</ele>
        <time>2022-09-26T13:42:22Z</time>
      </trkpt>
      <trkpt lat="46.03648" lon="5.85064">
        <ele>519.5</ele>
        <time>2022-09-26T13:42:23Z</time>
      </trkpt>
      <trkpt lat="46.03652" lon="5.85063">
        <ele>519.6</ele>
        <time>2022-09-26T13:42:24Z</time>
      </trkpt>
      <trkpt lat="46.03655" lon="5.85062">
        <ele>519.6</ele>
        <time>2022-09-26T13:42:25Z</time>
      </trkpt>
      <trkpt lat="46.03656" lon="5.85061">
        <ele>519.7</ele>
        <time>2022-09-26T13:42:26Z</time>
      </trkpt>
      <trkpt lat="46.0366" lon="5.8506">
        <ele>519.7</ele>
        <time>2022-09-26T13:42:27Z</time>
      </trkpt>
      <trkpt lat="46.03663" lon="5.85059">
        <ele>519.8</ele>
        <time>2022-09-26T13:42:28Z</time>
      </trkpt>
      <trkpt lat="46.03667" lon="5.85058">
        <ele>519.9</ele>
        <time>2022-09-26T13:42:29Z</time>
      </trkpt>
      <trkpt lat="46.03671" lon="5.85057">
        <ele>520.1</ele>
        <time>2022-09-26T13:42:30Z</time>
      </trkpt>
      <trkpt lat="46.03673" lon="5.85056">
        <ele>520.1</ele>
        <time>2022-09-26T13:42:31Z</time>
      </trkpt>
      <trkpt lat="46.03675" lon="5.85054">
        <ele>520.2</ele>
        <time>2022-09-26T13:42:32Z</time>
      </trkpt>
      <trkpt lat="46.03678" lon="5.85053">
        <ele>520.2</ele>
        <time>2022-09-26T13:42:33Z</time>
      </trkpt>
      <trkpt lat="46.03681" lon="5.85054">
        <ele>520.3</ele>
        <time>2022-09-26T13:42:34Z</time>
      </trkpt>
      <trkpt lat="46.03686" lon="5.85053">
        <ele>520.4</ele>
        <time>2022-09-26T13:42:35Z</time>
      </trkpt>
      <trkpt lat="46.0369" lon="5.8505">
        <ele>520.6</ele>
        <time>2022-09-26T13:42:36Z</time>
      </trkpt>
      <trkpt lat="46.03693" lon="5.8505">
        <ele>520.6</ele>
        <time>2022-09-26T13:42:37Z</time>
      </trkpt>
      <trkpt lat="46.03696" lon="5.8505">
        <ele>520.7</ele>
        <time>2022-09-26T13:42:38Z</time>
      </trkpt>
      <trkpt lat="46.03699" lon="5.8505">
        <ele>520.8</ele>
        <time>2022-09-26T13:42:39Z</time>
      </trkpt>
      <trkpt lat="46.03702" lon="5.85049">
        <ele>520.9</ele>
        <time>2022-09-26T13:42:40Z</time>
      </trkpt>
      <trkpt lat="46.03703" lon="5.85049">
        <ele>520.9</ele>
        <time>2022-09-26T13:42:41Z</time>
      </trkpt>
      <trkpt lat="46.03707" lon="5.85048">
        <ele>521</ele>
        <time>2022-09-26T13:42:42Z</time>
      </trkpt>
      <trkpt lat="46.0371" lon="5.85046">
        <ele>521.1</ele>
        <time>2022-09-26T13:42:43Z</time>
      </trkpt>
      <trkpt lat="46.03712" lon="5.85046">
        <ele>521.1</ele>
        <time>2022-09-26T13:42:44Z</time>
      </trkpt>
      <trkpt lat="46.03716" lon="5.85045">
        <ele>521.2</ele>
        <time>2022-09-26T13:42:45Z</time>
      </trkpt>
      <trkpt lat="46.0372" lon="5.85044">
        <ele>521.3</ele>
        <time>2022-09-26T13:42:46Z</time>
      </trkpt>
      <trkpt lat="46.03722" lon="5.85043">
        <ele>521.3</ele>
        <time>2022-09-26T13:42:47Z</time>
      </trkpt>
      <trkpt lat="46.03725" lon="5.85041">
        <ele>521.4</ele>
        <time>2022-09-26T13:42:48Z</time>
      </trkpt>
      <trkpt lat="46.0373" lon="5.85039">
        <ele>521.5</ele>
        <time>2022-09-26T13:42:49Z</time>
      </trkpt>
      <trkpt lat="46.03733" lon="5.85039">
        <ele>521.5</ele>
        <time>2022-09-26T13:42:50Z</time>
      </trkpt>
      <trkpt lat="46.03735" lon="5.85038">
        <ele>521.5</ele>
        <time>2022-09-26T13:42:51Z</time>
      </trkpt>
      <trkpt lat="46.03739" lon="5.85037">
        <ele>521.6</ele>
        <time>2022-09-26T13:42:52Z</time>
      </trkpt>
      <trkpt lat="46.03742" lon="5.85036">
        <ele>521.7</ele>
        <time>2022-09-26T13:42:53Z</time>
      </trkpt>
      <trkpt lat="46.03745" lon="5.85035">
        <ele>521.7</ele>
        <time>2022-09-26T13:42:54Z</time>
      </trkpt>
      <trkpt lat="46.03748" lon="5.85035">
        <ele>521.8</ele>
        <time>2022-09-26T13:42:55Z</time>
      </trkpt>
      <trkpt lat="46.03751" lon="5.85032">
        <ele>521.8</ele>
        <time>2022-09-26T13:42:56Z</time>
      </trkpt>
      <trkpt lat="46.03755" lon="5.85031">
        <ele>521.9</ele>
        <time>2022-09-26T13:42:57Z</time>
      </trkpt>
      <trkpt lat="46.03759" lon="5.8503">
        <ele>522</ele>
        <time>2022-09-26T13:42:58Z</time>
      </trkpt>
      <trkpt lat="46.03763" lon="5.8503">
        <ele>522</ele>
        <time>2022-09-26T13:42:59Z</time>
      </trkpt>
      <trkpt lat="46.03765" lon="5.85029">
        <ele>522.1</ele>
        <time>2022-09-26T13:43:00Z</time>
      </trkpt>
      <trkpt lat="46.03768" lon="5.85029">
        <ele>522.1</ele>
        <time>2022-09-26T13:43:01Z</time>
      </trkpt>
      <trkpt lat="46.03769" lon="5.85028">
        <ele>522.1</ele>
        <time>2022-09-26T13:43:02Z</time>
      </trkpt>
      <trkpt lat="46.03772" lon="5.85028">
        <ele>522.2</ele>
        <time>2022-09-26T13:43:03Z</time>
      </trkpt>
      <trkpt lat="46.03775" lon="5.85026">
        <ele>522.3</ele>
        <time>2022-09-26T13:43:04Z</time>
      </trkpt>
      <trkpt lat="46.03776" lon="5.85024">
        <ele>522.3</ele>
        <time>2022-09-26T13:43:05Z</time>
      </trkpt>
      <trkpt lat="46.0378" lon="5.85023">
        <ele>522.3</ele>
        <time>2022-09-26T13:43:06Z</time>
      </trkpt>
      <trkpt lat="46.03781" lon="5.85023">
        <ele>522.4</ele>
        <time>2022-09-26T13:43:07Z</time>
      </trkpt>
      <trkpt lat="46.03785" lon="5.85022">
        <ele>522.4</ele>
        <time>2022-09-26T13:43:08Z</time>
      </trkpt>
      <trkpt lat="46.03786" lon="5.85022">
        <ele>522.4</ele>
        <time>2022-09-26T13:43:09Z</time>
      </trkpt>
      <trkpt lat="46.03789" lon="5.85022">
        <ele>522.5</ele>
        <time>2022-09-26T13:43:10Z</time>
      </trkpt>
      <trkpt lat="46.03793" lon="5.85021">
        <ele>522.6</ele>
        <time>2022-09-26T13:43:11Z</time>
      </trkpt>
      <trkpt lat="46.03795" lon="5.85021">
        <ele>522.6</ele>
        <time>2022-09-26T13:43:12Z</time>
      </trkpt>
      <trkpt lat="46.03798" lon="5.8502">
        <ele>522.6</ele>
        <time>2022-09-26T13:43:13Z</time>
      </trkpt>
      <trkpt lat="46.038" lon="5.8502">
        <ele>522.7</ele>
        <time>2022-09-26T13:43:14Z</time>
      </trkpt>
      <trkpt lat="46.03803" lon="5.85018">
        <ele>522.7</ele>
        <time>2022-09-26T13:43:15Z</time>
      </trkpt>
      <trkpt lat="46.03806" lon="5.85015">
        <ele>522.8</ele>
        <time>2022-09-26T13:43:16Z</time>
      </trkpt>
      <trkpt lat="46.03809" lon="5.85017">
        <ele>522.8</ele>
        <time>2022-09-26T13:43:17Z</time>
      </trkpt>
      <trkpt lat="46.03812" lon="5.85016">
        <ele>522.8</ele>
        <time>2022-09-26T13:43:18Z</time>
      </trkpt>
      <trkpt lat="46.03814" lon="5.85015">
        <ele>522.9</ele>
        <time>2022-09-26T13:43:19Z</time>
      </trkpt>
      <trkpt lat="46.03817" lon="5.85014">
        <ele>522.9</ele>
        <time>2022-09-26T13:43:20Z</time>
      </trkpt>
      <trkpt lat="46.03818" lon="5.85013">
        <ele>522.9</ele>
        <time>2022-09-26T13:43:21Z</time>
      </trkpt>
      <trkpt lat="46.03821" lon="5.85013">
        <ele>523</ele>
        <time>2022-09-26T13:43:22Z</time>
      </trkpt>
      <trkpt lat="46.03825" lon="5.85011">
        <ele>523.1</ele>
        <time>2022-09-26T13:43:23Z</time>
      </trkpt>
      <trkpt lat="46.03828" lon="5.8501">
        <ele>523.1</ele>
        <time>2022-09-26T13:43:24Z</time>
      </trkpt>
      <trkpt lat="46.03831" lon="5.85008">
        <ele>523.2</ele>
        <time>2022-09-26T13:43:25Z</time>
      </trkpt>
      <trkpt lat="46.03834" lon="5.85007">
        <ele>523.2</ele>
        <time>2022-09-26T13:43:26Z</time>
      </trkpt>
      <trkpt lat="46.03838" lon="5.85006">
        <ele>523.3</ele>
        <time>2022-09-26T13:43:27Z</time>
      </trkpt>
      <trkpt lat="46.0384" lon="5.85006">
        <ele>523.3</ele>
        <time>2022-09-26T13:43:28Z</time>
      </trkpt>
      <trkpt lat="46.03843" lon="5.85004">
        <ele>523.4</ele>
        <time>2022-09-26T13:43:29Z</time>
      </trkpt>
      <trkpt lat="46.03846" lon="5.85003">
        <ele>523.4</ele>
        <time>2022-09-26T13:43:30Z</time>
      </trkpt>
      <trkpt lat="46.0385" lon="5.85001">
        <ele>523.5</ele>
        <time>2022-09-26T13:43:31Z</time>
      </trkpt>
      <trkpt lat="46.03852" lon="5.85">
        <ele>523.5</ele>
        <time>2022-09-26T13:43:32Z</time>
      </trkpt>
      <trkpt lat="46.03855" lon="5.84999">
        <ele>523.6</ele>
        <time>2022-09-26T13:43:33Z</time>
      </trkpt>
      <trkpt lat="46.03858" lon="5.84997">
        <ele>523.6</ele>
        <time>2022-09-26T13:43:34Z</time>
      </trkpt>
      <trkpt lat="46.03861" lon="5.84996">
        <ele>523.6</ele>
        <time>2022-09-26T13:43:35Z</time>
      </trkpt>
      <trkpt lat="46.03865" lon="5.84995">
        <ele>523.7</ele>
        <time>2022-09-26T13:43:36Z</time>
      </trkpt>
      <trkpt lat="46.03869" lon="5.84994">
        <ele>523.7</ele>
        <time>2022-09-26T13:43:37Z</time>
      </trkpt>
      <trkpt lat="46.03872" lon="5.84992">
        <ele>523.7</ele>
        <time>2022-09-26T13:43:38Z</time>
      </trkpt>
      <trkpt lat="46.03875" lon="5.84992">
        <ele>523.7</ele>
        <time>2022-09-26T13:43:39Z</time>
      </trkpt>
      <trkpt lat="46.03878" lon="5.84989">
        <ele>523.7</ele>
        <time>2022-09-26T13:43:40Z</time>
      </trkpt>
      <trkpt lat="46.03882" lon="5.84987">
        <ele>523.8</ele>
        <time>2022-09-26T13:43:41Z</time>
      </trkpt>
      <trkpt lat="46.03885" lon="5.84985">
        <ele>523.8</ele>
        <time>2022-09-26T13:43:42Z</time>
      </trkpt>
      <trkpt lat="46.03889" lon="5.84982">
        <ele>523.8</ele>
        <time>2022-09-26T13:43:43Z</time>
      </trkpt>
      <trkpt lat="46.03892" lon="5.84981">
        <ele>523.8</ele>
        <time>2022-09-26T13:43:44Z</time>
      </trkpt>
      <trkpt lat="46.03896" lon="5.84978">
        <ele>523.8</ele>
        <time>2022-09-26T13:43:45Z</time>
      </trkpt>
      <trkpt lat="46.039" lon="5.84976">
        <ele>523.9</ele>
        <time>2022-09-26T13:43:46Z</time>
      </trkpt>
      <trkpt lat="46.03904" lon="5.84974">
        <ele>523.9</ele>
        <time>2022-09-26T13:43:47Z</time>
      </trkpt>
      <trkpt lat="46.03907" lon="5.84972">
        <ele>523.9</ele>
        <time>2022-09-26T13:43:48Z</time>
      </trkpt>
      <trkpt lat="46.03912" lon="5.84969">
        <ele>524</ele>
        <time>2022-09-26T13:43:49Z</time>
      </trkpt>
      <trkpt lat="46.03917" lon="5.84966">
        <ele>524.1</ele>
        <time>2022-09-26T13:43:50Z</time>
      </trkpt>
      <trkpt lat="46.03921" lon="5.84964">
        <ele>524.1</ele>
        <time>2022-09-26T13:43:51Z</time>
      </trkpt>
      <trkpt lat="46.03924" lon="5.84962">
        <ele>524.2</ele>
        <time>2022-09-26T13:43:52Z</time>
      </trkpt>
      <trkpt lat="46.03928" lon="5.84959">
        <ele>524.3</ele>
        <time>2022-09-26T13:43:53Z</time>
      </trkpt>
      <trkpt lat="46.03931" lon="5.84957">
        <ele>524.3</ele>
        <time>2022-09-26T13:43:54Z</time>
      </trkpt>
      <trkpt lat="46.03933" lon="5.84954">
        <ele>524.4</ele>
        <time>2022-09-26T13:43:55Z</time>
      </trkpt>
      <trkpt lat="46.03936" lon="5.84952">
        <ele>524.4</ele>
        <time>2022-09-26T13:43:56Z</time>
      </trkpt>
      <trkpt lat="46.03938" lon="5.84949">
        <ele>524.5</ele>
        <time>2022-09-26T13:43:57Z</time>
      </trkpt>
      <trkpt lat="46.03941" lon="5.84947">
        <ele>524.5</ele>
        <time>2022-09-26T13:43:58Z</time>
      </trkpt>
      <trkpt lat="46.03944" lon="5.84946">
        <ele>524.6</ele>
        <time>2022-09-26T13:43:59Z</time>
      </trkpt>
      <trkpt lat="46.03948" lon="5.84944">
        <ele>524.7</ele>
        <time>2022-09-26T13:44:00Z</time>
      </trkpt>
      <trkpt lat="46.03949" lon="5.84943">
        <ele>524.7</ele>
        <time>2022-09-26T13:44:01Z</time>
      </trkpt>
      <trkpt lat="46.03951" lon="5.84941">
        <ele>524.8</ele>
        <time>2022-09-26T13:44:02Z</time>
      </trkpt>
      <trkpt lat="46.03954" lon="5.8494">
        <ele>524.8</ele>
        <time>2022-09-26T13:44:03Z</time>
      </trkpt>
      <trkpt lat="46.03957" lon="5.84938">
        <ele>524.8</ele>
        <time>2022-09-26T13:44:04Z</time>
      </trkpt>
      <trkpt lat="46.0396" lon="5.84935">
        <ele>524.9</ele>
        <time>2022-09-26T13:44:05Z</time>
      </trkpt>
      <trkpt lat="46.03962" lon="5.84933">
        <ele>524.9</ele>
        <time>2022-09-26T13:44:06Z</time>
      </trkpt>
      <trkpt lat="46.03965" lon="5.84932">
        <ele>524.9</ele>
        <time>2022-09-26T13:44:07Z</time>
      </trkpt>
      <trkpt lat="46.03967" lon="5.8493">
        <ele>524.9</ele>
        <time>2022-09-26T13:44:08Z</time>
      </trkpt>
      <trkpt lat="46.03971" lon="5.84927">
        <ele>525</ele>
        <time>2022-09-26T13:44:09Z</time>
      </trkpt>
      <trkpt lat="46.03972" lon="5.84926">
        <ele>525</ele>
        <time>2022-09-26T13:44:10Z</time>
      </trkpt>
      <trkpt lat="46.03976" lon="5.84923">
        <ele>525.1</ele>
        <time>2022-09-26T13:44:11Z</time>
      </trkpt>
      <trkpt lat="46.03977" lon="5.84922">
        <ele>525.1</ele>
        <time>2022-09-26T13:44:12Z</time>
      </trkpt>
      <trkpt lat="46.03979" lon="5.8492">
        <ele>525.1</ele>
        <time>2022-09-26T13:44:13Z</time>
      </trkpt>
      <trkpt lat="46.03983" lon="5.84918">
        <ele>525.2</ele>
        <time>2022-09-26T13:44:14Z</time>
      </trkpt>
      <trkpt lat="46.03984" lon="5.84917">
        <ele>525.2</ele>
        <time>2022-09-26T13:44:15Z</time>
      </trkpt>
      <trkpt lat="46.03986" lon="5.84914">
        <ele>525.3</ele>
        <time>2022-09-26T13:44:16Z</time>
      </trkpt>
      <trkpt lat="46.0399" lon="5.84912">
        <ele>525.4</ele>
        <time>2022-09-26T13:44:17Z</time>
      </trkpt>
      <trkpt lat="46.03991" lon="5.84911">
        <ele>525.4</ele>
        <time>2022-09-26T13:44:18Z</time>
      </trkpt>
      <trkpt lat="46.03995" lon="5.84909">
        <ele>525.5</ele>
        <time>2022-09-26T13:44:19Z</time>
      </trkpt>
      <trkpt lat="46.03996" lon="5.84908">
        <ele>525.5</ele>
        <time>2022-09-26T13:44:20Z</time>
      </trkpt>
      <trkpt lat="46.03999" lon="5.84905">
        <ele>525.6</ele>
        <time>2022-09-26T13:44:21Z</time>
      </trkpt>
      <trkpt lat="46.04001" lon="5.84905">
        <ele>525.7</ele>
        <time>2022-09-26T13:44:22Z</time>
      </trkpt>
      <trkpt lat="46.04004" lon="5.84902">
        <ele>525.8</ele>
        <time>2022-09-26T13:44:23Z</time>
      </trkpt>
      <trkpt lat="46.04006" lon="5.84901">
        <ele>525.8</ele>
        <time>2022-09-26T13:44:24Z</time>
      </trkpt>
      <trkpt lat="46.04008" lon="5.84899">
        <ele>525.9</ele>
        <time>2022-09-26T13:44:25Z</time>
      </trkpt>
      <trkpt lat="46.04011" lon="5.84898">
        <ele>525.9</ele>
        <time>2022-09-26T13:44:26Z</time>
      </trkpt>
      <trkpt lat="46.04014" lon="5.84895">
        <ele>526</ele>
        <time>2022-09-26T13:44:27Z</time>
      </trkpt>
      <trkpt lat="46.04015" lon="5.84894">
        <ele>526.1</ele>
        <time>2022-09-26T13:44:28Z</time>
      </trkpt>
      <trkpt lat="46.04019" lon="5.84892">
        <ele>526.2</ele>
        <time>2022-09-26T13:44:29Z</time>
      </trkpt>
      <trkpt lat="46.0402" lon="5.84891">
        <ele>526.2</ele>
        <time>2022-09-26T13:44:30Z</time>
      </trkpt>
      <trkpt lat="46.04023" lon="5.84889">
        <ele>526.3</ele>
        <time>2022-09-26T13:44:31Z</time>
      </trkpt>
      <trkpt lat="46.04025" lon="5.84888">
        <ele>526.3</ele>
        <time>2022-09-26T13:44:32Z</time>
      </trkpt>
      <trkpt lat="46.04026" lon="5.84887">
        <ele>526.4</ele>
        <time>2022-09-26T13:44:33Z</time>
      </trkpt>
      <trkpt lat="46.04029" lon="5.84885">
        <ele>526.5</ele>
        <time>2022-09-26T13:44:34Z</time>
      </trkpt>
      <trkpt lat="46.04031" lon="5.84884">
        <ele>526.5</ele>
        <time>2022-09-26T13:44:35Z</time>
      </trkpt>
      <trkpt lat="46.04033" lon="5.84881">
        <ele>526.6</ele>
        <time>2022-09-26T13:44:36Z</time>
      </trkpt>
      <trkpt lat="46.04036" lon="5.8488">
        <ele>526.7</ele>
        <time>2022-09-26T13:44:37Z</time>
      </trkpt>
      <trkpt lat="46.04039" lon="5.84878">
        <ele>526.8</ele>
        <time>2022-09-26T13:44:38Z</time>
      </trkpt>
      <trkpt lat="46.0404" lon="5.84877">
        <ele>526.8</ele>
        <time>2022-09-26T13:44:39Z</time>
      </trkpt>
      <trkpt lat="46.04043" lon="5.84875">
        <ele>526.9</ele>
        <time>2022-09-26T13:44:40Z</time>
      </trkpt>
      <trkpt lat="46.04044" lon="5.84874">
        <ele>527</ele>
        <time>2022-09-26T13:44:41Z</time>
      </trkpt>
      <trkpt lat="46.04046" lon="5.84873">
        <ele>527</ele>
        <time>2022-09-26T13:44:42Z</time>
      </trkpt>
      <trkpt lat="46.04047" lon="5.84872">
        <ele>527</ele>
        <time>2022-09-26T13:44:43Z</time>
      </trkpt>
      <trkpt lat="46.04051" lon="5.84869">
        <ele>527.2</ele>
        <time>2022-09-26T13:44:44Z</time>
      </trkpt>
      <trkpt lat="46.04052" lon="5.84868">
        <ele>527.2</ele>
        <time>2022-09-26T13:44:45Z</time>
      </trkpt>
      <trkpt lat="46.04055" lon="5.84866">
        <ele>527.3</ele>
        <time>2022-09-26T13:44:46Z</time>
      </trkpt>
      <trkpt lat="46.04056" lon="5.84865">
        <ele>527.3</ele>
        <time>2022-09-26T13:44:47Z</time>
      </trkpt>
      <trkpt lat="46.04058" lon="5.84862">
        <ele>527.4</ele>
        <time>2022-09-26T13:44:48Z</time>
      </trkpt>
      <trkpt lat="46.0406" lon="5.8486">
        <ele>527.5</ele>
        <time>2022-09-26T13:44:49Z</time>
      </trkpt>
      <trkpt lat="46.04064" lon="5.84858">
        <ele>527.6</ele>
        <time>2022-09-26T13:44:50Z</time>
      </trkpt>
      <trkpt lat="46.04066" lon="5.84857">
        <ele>527.6</ele>
        <time>2022-09-26T13:44:51Z</time>
      </trkpt>
      <trkpt lat="46.04068" lon="5.84854">
        <ele>527.7</ele>
        <time>2022-09-26T13:44:52Z</time>
      </trkpt>
      <trkpt lat="46.04071" lon="5.84852">
        <ele>527.8</ele>
        <time>2022-09-26T13:44:53Z</time>
      </trkpt>
      <trkpt lat="46.04074" lon="5.84849">
        <ele>527.9</ele>
        <time>2022-09-26T13:44:54Z</time>
      </trkpt>
      <trkpt lat="46.04075" lon="5.84848">
        <ele>527.9</ele>
        <time>2022-09-26T13:44:55Z</time>
      </trkpt>
      <trkpt lat="46.04078" lon="5.84846">
        <ele>528</ele>
        <time>2022-09-26T13:44:56Z</time>
      </trkpt>
      <trkpt lat="46.04081" lon="5.84844">
        <ele>528.1</ele>
        <time>2022-09-26T13:44:57Z</time>
      </trkpt>
      <trkpt lat="46.04082" lon="5.84843">
        <ele>528.2</ele>
        <time>2022-09-26T13:44:58Z</time>
      </trkpt>
      <trkpt lat="46.04085" lon="5.84841">
        <ele>528.3</ele>
        <time>2022-09-26T13:44:59Z</time>
      </trkpt>
      <trkpt lat="46.04087" lon="5.8484">
        <ele>528.3</ele>
        <time>2022-09-26T13:45:00Z</time>
      </trkpt>
      <trkpt lat="46.04089" lon="5.84837">
        <ele>528.4</ele>
        <time>2022-09-26T13:45:01Z</time>
      </trkpt>
      <trkpt lat="46.0409" lon="5.84836">
        <ele>528.4</ele>
        <time>2022-09-26T13:45:02Z</time>
      </trkpt>
      <trkpt lat="46.04093" lon="5.84835">
        <ele>528.5</ele>
        <time>2022-09-26T13:45:03Z</time>
      </trkpt>
      <trkpt lat="46.04096" lon="5.84834">
        <ele>528.6</ele>
        <time>2022-09-26T13:45:04Z</time>
      </trkpt>
      <trkpt lat="46.041" lon="5.84832">
        <ele>528.7</ele>
        <time>2022-09-26T13:45:05Z</time>
      </trkpt>
      <trkpt lat="46.04101" lon="5.84831">
        <ele>528.7</ele>
        <time>2022-09-26T13:45:06Z</time>
      </trkpt>
      <trkpt lat="46.04104" lon="5.84829">
        <ele>528.8</ele>
        <time>2022-09-26T13:45:07Z</time>
      </trkpt>
      <trkpt lat="46.04105" lon="5.84827">
        <ele>528.9</ele>
        <time>2022-09-26T13:45:08Z</time>
      </trkpt>
      <trkpt lat="46.04106" lon="5.84826">
        <ele>528.9</ele>
        <time>2022-09-26T13:45:09Z</time>
      </trkpt>
      <trkpt lat="46.04109" lon="5.84825">
        <ele>529</ele>
        <time>2022-09-26T13:45:10Z</time>
      </trkpt>
      <trkpt lat="46.04113" lon="5.84823">
        <ele>529.1</ele>
        <time>2022-09-26T13:45:11Z</time>
      </trkpt>
      <trkpt lat="46.04115" lon="5.84822">
        <ele>529.1</ele>
        <time>2022-09-26T13:45:12Z</time>
      </trkpt>
      <trkpt lat="46.04118" lon="5.84819">
        <ele>529.3</ele>
        <time>2022-09-26T13:45:13Z</time>
      </trkpt>
      <trkpt lat="46.04119" lon="5.84818">
        <ele>529.3</ele>
        <time>2022-09-26T13:45:14Z</time>
      </trkpt>
      <trkpt lat="46.04122" lon="5.84816">
        <ele>529.4</ele>
        <time>2022-09-26T13:45:15Z</time>
      </trkpt>
      <trkpt lat="46.04124" lon="5.84816">
        <ele>529.4</ele>
        <time>2022-09-26T13:45:16Z</time>
      </trkpt>
      <trkpt lat="46.04127" lon="5.84814">
        <ele>529.6</ele>
        <time>2022-09-26T13:45:17Z</time>
      </trkpt>
      <trkpt lat="46.04128" lon="5.84813">
        <ele>529.6</ele>
        <time>2022-09-26T13:45:18Z</time>
      </trkpt>
      <trkpt lat="46.04131" lon="5.84811">
        <ele>529.7</ele>
        <time>2022-09-26T13:45:19Z</time>
      </trkpt>
      <trkpt lat="46.04132" lon="5.8481">
        <ele>529.7</ele>
        <time>2022-09-26T13:45:20Z</time>
      </trkpt>
      <trkpt lat="46.04135" lon="5.84808">
        <ele>529.8</ele>
        <time>2022-09-26T13:45:21Z</time>
      </trkpt>
      <trkpt lat="46.04137" lon="5.84804">
        <ele>529.9</ele>
        <time>2022-09-26T13:45:22Z</time>
      </trkpt>
      <trkpt lat="46.04141" lon="5.84803">
        <ele>530</ele>
        <time>2022-09-26T13:45:23Z</time>
      </trkpt>
      <trkpt lat="46.04142" lon="5.84802">
        <ele>530.1</ele>
        <time>2022-09-26T13:45:24Z</time>
      </trkpt>
      <trkpt lat="46.04145" lon="5.84799">
        <ele>530.2</ele>
        <time>2022-09-26T13:45:25Z</time>
      </trkpt>
      <trkpt lat="46.04146" lon="5.84798">
        <ele>530.2</ele>
        <time>2022-09-26T13:45:26Z</time>
      </trkpt>
      <trkpt lat="46.04149" lon="5.84797">
        <ele>530.3</ele>
        <time>2022-09-26T13:45:27Z</time>
      </trkpt>
      <trkpt lat="46.04152" lon="5.84794">
        <ele>530.4</ele>
        <time>2022-09-26T13:45:28Z</time>
      </trkpt>
      <trkpt lat="46.04153" lon="5.84792">
        <ele>530.5</ele>
        <time>2022-09-26T13:45:29Z</time>
      </trkpt>
      <trkpt lat="46.04154" lon="5.84791">
        <ele>530.5</ele>
        <time>2022-09-26T13:45:30Z</time>
      </trkpt>
      <trkpt lat="46.04156" lon="5.8479">
        <ele>530.6</ele>
        <time>2022-09-26T13:45:31Z</time>
      </trkpt>
      <trkpt lat="46.04159" lon="5.84786">
        <ele>530.7</ele>
        <time>2022-09-26T13:45:32Z</time>
      </trkpt>
      <trkpt lat="46.0416" lon="5.84785">
        <ele>530.8</ele>
        <time>2022-09-26T13:45:33Z</time>
      </trkpt>
      <trkpt lat="46.04164" lon="5.84784">
        <ele>530.9</ele>
        <time>2022-09-26T13:45:34Z</time>
      </trkpt>
      <trkpt lat="46.04167" lon="5.84781">
        <ele>531</ele>
        <time>2022-09-26T13:45:35Z</time>
      </trkpt>
      <trkpt lat="46.04167" lon="5.8478">
        <ele>531</ele>
        <time>2022-09-26T13:45:36Z</time>
      </trkpt>
      <trkpt lat="46.04171" lon="5.84778">
        <ele>531.1</ele>
        <time>2022-09-26T13:45:37Z</time>
      </trkpt>
      <trkpt lat="46.04172" lon="5.84777">
        <ele>531.2</ele>
        <time>2022-09-26T13:45:38Z</time>
      </trkpt>
      <trkpt lat="46.04175" lon="5.84775">
        <ele>531.3</ele>
        <time>2022-09-26T13:45:39Z</time>
      </trkpt>
      <trkpt lat="46.04176" lon="5.84774">
        <ele>531.3</ele>
        <time>2022-09-26T13:45:40Z</time>
      </trkpt>
      <trkpt lat="46.04179" lon="5.84772">
        <ele>531.4</ele>
        <time>2022-09-26T13:45:41Z</time>
      </trkpt>
      <trkpt lat="46.0418" lon="5.84771">
        <ele>531.4</ele>
        <time>2022-09-26T13:45:42Z</time>
      </trkpt>
      <trkpt lat="46.04184" lon="5.84768">
        <ele>531.6</ele>
        <time>2022-09-26T13:45:43Z</time>
      </trkpt>
      <trkpt lat="46.04186" lon="5.84767">
        <ele>531.6</ele>
        <time>2022-09-26T13:45:44Z</time>
      </trkpt>
      <trkpt lat="46.04189" lon="5.84764">
        <ele>531.7</ele>
        <time>2022-09-26T13:45:45Z</time>
      </trkpt>
      <trkpt lat="46.0419" lon="5.84763">
        <ele>531.7</ele>
        <time>2022-09-26T13:45:46Z</time>
      </trkpt>
      <trkpt lat="46.04193" lon="5.84762">
        <ele>531.8</ele>
        <time>2022-09-26T13:45:47Z</time>
      </trkpt>
      <trkpt lat="46.04194" lon="5.84762">
        <ele>531.8</ele>
        <time>2022-09-26T13:45:48Z</time>
      </trkpt>
      <trkpt lat="46.04197" lon="5.84762">
        <ele>531.9</ele>
        <time>2022-09-26T13:45:49Z</time>
      </trkpt>
      <trkpt lat="46.04198" lon="5.84761">
        <ele>531.9</ele>
        <time>2022-09-26T13:45:50Z</time>
      </trkpt>
      <trkpt lat="46.04202" lon="5.84762">
        <ele>532.5</ele>
        <time>2022-09-26T13:45:51Z</time>
      </trkpt>
      <trkpt lat="46.04203" lon="5.84762">
        <ele>532.6</ele>
        <time>2022-09-26T13:45:52Z</time>
      </trkpt>
      <trkpt lat="46.04206" lon="5.84763">
        <ele>532.6</ele>
        <time>2022-09-26T13:45:53Z</time>
      </trkpt>
      <trkpt lat="46.04207" lon="5.84764">
        <ele>532.7</ele>
        <time>2022-09-26T13:45:54Z</time>
      </trkpt>
      <trkpt lat="46.0421" lon="5.84767">
        <ele>532.8</ele>
        <time>2022-09-26T13:45:55Z</time>
      </trkpt>
      <trkpt lat="46.04211" lon="5.84769">
        <ele>532.8</ele>
        <time>2022-09-26T13:45:56Z</time>
      </trkpt>
      <trkpt lat="46.04213" lon="5.84772">
        <ele>532.9</ele>
        <time>2022-09-26T13:45:57Z</time>
      </trkpt>
      <trkpt lat="46.04214" lon="5.84773">
        <ele>533</ele>
        <time>2022-09-26T13:45:58Z</time>
      </trkpt>
      <trkpt lat="46.04215" lon="5.84777">
        <ele>533.1</ele>
        <time>2022-09-26T13:45:59Z</time>
      </trkpt>
      <trkpt lat="46.04216" lon="5.84779">
        <ele>533.1</ele>
        <time>2022-09-26T13:46:00Z</time>
      </trkpt>
      <trkpt lat="46.04218" lon="5.84782">
        <ele>533.2</ele>
        <time>2022-09-26T13:46:01Z</time>
      </trkpt>
      <trkpt lat="46.04219" lon="5.84783">
        <ele>533.3</ele>
        <time>2022-09-26T13:46:02Z</time>
      </trkpt>
      <trkpt lat="46.04221" lon="5.84787">
        <ele>533.4</ele>
        <time>2022-09-26T13:46:03Z</time>
      </trkpt>
      <trkpt lat="46.04221" lon="5.84788">
        <ele>533.4</ele>
        <time>2022-09-26T13:46:04Z</time>
      </trkpt>
      <trkpt lat="46.04223" lon="5.84792">
        <ele>533.5</ele>
        <time>2022-09-26T13:46:05Z</time>
      </trkpt>
      <trkpt lat="46.04224" lon="5.84793">
        <ele>533.6</ele>
        <time>2022-09-26T13:46:06Z</time>
      </trkpt>
      <trkpt lat="46.04227" lon="5.84796">
        <ele>533.7</ele>
        <time>2022-09-26T13:46:07Z</time>
      </trkpt>
      <trkpt lat="46.04228" lon="5.848">
        <ele>533.8</ele>
        <time>2022-09-26T13:46:08Z</time>
      </trkpt>
      <trkpt lat="46.04229" lon="5.84802">
        <ele>533.8</ele>
        <time>2022-09-26T13:46:09Z</time>
      </trkpt>
      <trkpt lat="46.04231" lon="5.84805">
        <ele>533.9</ele>
        <time>2022-09-26T13:46:10Z</time>
      </trkpt>
      <trkpt lat="46.04233" lon="5.8481">
        <ele>534.1</ele>
        <time>2022-09-26T13:46:11Z</time>
      </trkpt>
      <trkpt lat="46.04234" lon="5.84811">
        <ele>534.1</ele>
        <time>2022-09-26T13:46:12Z</time>
      </trkpt>
      <trkpt lat="46.04237" lon="5.84816">
        <ele>534.3</ele>
        <time>2022-09-26T13:46:13Z</time>
      </trkpt>
      <trkpt lat="46.04238" lon="5.84818">
        <ele>534.3</ele>
        <time>2022-09-26T13:46:14Z</time>
      </trkpt>
      <trkpt lat="46.0424" lon="5.84822">
        <ele>534.5</ele>
        <time>2022-09-26T13:46:15Z</time>
      </trkpt>
      <trkpt lat="46.04241" lon="5.84823">
        <ele>534.5</ele>
        <time>2022-09-26T13:46:16Z</time>
      </trkpt>
      <trkpt lat="46.04243" lon="5.84828">
        <ele>534.6</ele>
        <time>2022-09-26T13:46:17Z</time>
      </trkpt>
      <trkpt lat="46.04244" lon="5.8483">
        <ele>534.7</ele>
        <time>2022-09-26T13:46:18Z</time>
      </trkpt>
      <trkpt lat="46.04247" lon="5.84834">
        <ele>534.8</ele>
        <time>2022-09-26T13:46:19Z</time>
      </trkpt>
      <trkpt lat="46.04247" lon="5.84836">
        <ele>534.8</ele>
        <time>2022-09-26T13:46:20Z</time>
      </trkpt>
      <trkpt lat="46.0425" lon="5.84839">
        <ele>535</ele>
        <time>2022-09-26T13:46:21Z</time>
      </trkpt>
      <trkpt lat="46.04251" lon="5.84841">
        <ele>535</ele>
        <time>2022-09-26T13:46:22Z</time>
      </trkpt>
      <trkpt lat="46.04253" lon="5.84845">
        <ele>535.1</ele>
        <time>2022-09-26T13:46:23Z</time>
      </trkpt>
      <trkpt lat="46.04254" lon="5.84846">
        <ele>535.1</ele>
        <time>2022-09-26T13:46:24Z</time>
      </trkpt>
      <trkpt lat="46.04255" lon="5.8485">
        <ele>535.2</ele>
        <time>2022-09-26T13:46:25Z</time>
      </trkpt>
      <trkpt lat="46.04258" lon="5.84854">
        <ele>535.3</ele>
        <time>2022-09-26T13:46:26Z</time>
      </trkpt>
      <trkpt lat="46.04259" lon="5.84856">
        <ele>535.4</ele>
        <time>2022-09-26T13:46:27Z</time>
      </trkpt>
      <trkpt lat="46.0426" lon="5.8486">
        <ele>535.4</ele>
        <time>2022-09-26T13:46:28Z</time>
      </trkpt>
      <trkpt lat="46.04261" lon="5.84862">
        <ele>535.5</ele>
        <time>2022-09-26T13:46:29Z</time>
      </trkpt>
      <trkpt lat="46.04262" lon="5.84866">
        <ele>535.5</ele>
        <time>2022-09-26T13:46:30Z</time>
      </trkpt>
      <trkpt lat="46.04264" lon="5.84868">
        <ele>535.6</ele>
        <time>2022-09-26T13:46:31Z</time>
      </trkpt>
      <trkpt lat="46.04266" lon="5.84872">
        <ele>535.7</ele>
        <time>2022-09-26T13:46:32Z</time>
      </trkpt>
      <trkpt lat="46.04266" lon="5.84875">
        <ele>535.7</ele>
        <time>2022-09-26T13:46:33Z</time>
      </trkpt>
      <trkpt lat="46.04269" lon="5.84876">
        <ele>535.8</ele>
        <time>2022-09-26T13:46:34Z</time>
      </trkpt>
      <trkpt lat="46.04271" lon="5.8488">
        <ele>535.8</ele>
        <time>2022-09-26T13:46:35Z</time>
      </trkpt>
      <trkpt lat="46.04271" lon="5.84882">
        <ele>535.9</ele>
        <time>2022-09-26T13:46:36Z</time>
      </trkpt>
      <trkpt lat="46.04274" lon="5.84885">
        <ele>535.9</ele>
        <time>2022-09-26T13:46:37Z</time>
      </trkpt>
      <trkpt lat="46.04275" lon="5.84889">
        <ele>536</ele>
        <time>2022-09-26T13:46:38Z</time>
      </trkpt>
      <trkpt lat="46.04277" lon="5.84892">
        <ele>536.1</ele>
        <time>2022-09-26T13:46:39Z</time>
      </trkpt>
      <trkpt lat="46.04277" lon="5.84894">
        <ele>536.1</ele>
        <time>2022-09-26T13:46:40Z</time>
      </trkpt>
      <trkpt lat="46.04279" lon="5.84897">
        <ele>536.2</ele>
        <time>2022-09-26T13:46:41Z</time>
      </trkpt>
      <trkpt lat="46.0428" lon="5.84899">
        <ele>536.2</ele>
        <time>2022-09-26T13:46:42Z</time>
      </trkpt>
      <trkpt lat="46.04282" lon="5.84902">
        <ele>536.3</ele>
        <time>2022-09-26T13:46:43Z</time>
      </trkpt>
      <trkpt lat="46.04283" lon="5.84903">
        <ele>536.3</ele>
        <time>2022-09-26T13:46:44Z</time>
      </trkpt>
      <trkpt lat="46.04285" lon="5.84907">
        <ele>536.4</ele>
        <time>2022-09-26T13:46:45Z</time>
      </trkpt>
      <trkpt lat="46.04286" lon="5.84909">
        <ele>536.4</ele>
        <time>2022-09-26T13:46:46Z</time>
      </trkpt>
      <trkpt lat="46.04288" lon="5.84912">
        <ele>536.5</ele>
        <time>2022-09-26T13:46:47Z</time>
      </trkpt>
      <trkpt lat="46.04288" lon="5.84914">
        <ele>536.5</ele>
        <time>2022-09-26T13:46:48Z</time>
      </trkpt>
      <trkpt lat="46.04291" lon="5.84918">
        <ele>536.6</ele>
        <time>2022-09-26T13:46:49Z</time>
      </trkpt>
      <trkpt lat="46.04292" lon="5.84919">
        <ele>536.6</ele>
        <time>2022-09-26T13:46:50Z</time>
      </trkpt>
      <trkpt lat="46.04294" lon="5.84923">
        <ele>536.7</ele>
        <time>2022-09-26T13:46:51Z</time>
      </trkpt>
      <trkpt lat="46.04296" lon="5.84926">
        <ele>536.7</ele>
        <time>2022-09-26T13:46:52Z</time>
      </trkpt>
      <trkpt lat="46.04297" lon="5.84928">
        <ele>536.8</ele>
        <time>2022-09-26T13:46:53Z</time>
      </trkpt>
      <trkpt lat="46.04299" lon="5.84931">
        <ele>536.8</ele>
        <time>2022-09-26T13:46:54Z</time>
      </trkpt>
      <trkpt lat="46.043" lon="5.84932">
        <ele>536.9</ele>
        <time>2022-09-26T13:46:55Z</time>
      </trkpt>
      <trkpt lat="46.04302" lon="5.84936">
        <ele>536.9</ele>
        <time>2022-09-26T13:46:56Z</time>
      </trkpt>
      <trkpt lat="46.04303" lon="5.84937">
        <ele>537</ele>
        <time>2022-09-26T13:46:57Z</time>
      </trkpt>
      <trkpt lat="46.04305" lon="5.8494">
        <ele>537</ele>
        <time>2022-09-26T13:46:58Z</time>
      </trkpt>
      <trkpt lat="46.04308" lon="5.84943">
        <ele>537.1</ele>
        <time>2022-09-26T13:46:59Z</time>
      </trkpt>
      <trkpt lat="46.04308" lon="5.84944">
        <ele>537.1</ele>
        <time>2022-09-26T13:47:00Z</time>
      </trkpt>
      <trkpt lat="46.0431" lon="5.84946">
        <ele>537.2</ele>
        <time>2022-09-26T13:47:01Z</time>
      </trkpt>
      <trkpt lat="46.04312" lon="5.84947">
        <ele>537.2</ele>
        <time>2022-09-26T13:47:02Z</time>
      </trkpt>
      <trkpt lat="46.04314" lon="5.8495">
        <ele>537.2</ele>
        <time>2022-09-26T13:47:03Z</time>
      </trkpt>
      <trkpt lat="46.04315" lon="5.84952">
        <ele>537.3</ele>
        <time>2022-09-26T13:47:04Z</time>
      </trkpt>
      <trkpt lat="46.04317" lon="5.84953">
        <ele>537.3</ele>
        <time>2022-09-26T13:47:05Z</time>
      </trkpt>
      <trkpt lat="46.04319" lon="5.84955">
        <ele>537.3</ele>
        <time>2022-09-26T13:47:06Z</time>
      </trkpt>
      <trkpt lat="46.04321" lon="5.84957">
        <ele>537.3</ele>
        <time>2022-09-26T13:47:07Z</time>
      </trkpt>
      <trkpt lat="46.04323" lon="5.84958">
        <ele>537.3</ele>
        <time>2022-09-26T13:47:08Z</time>
      </trkpt>
      <trkpt lat="46.04325" lon="5.8496">
        <ele>537.4</ele>
        <time>2022-09-26T13:47:09Z</time>
      </trkpt>
      <trkpt lat="46.04328" lon="5.84963">
        <ele>537.4</ele>
        <time>2022-09-26T13:47:10Z</time>
      </trkpt>
      <trkpt lat="46.04329" lon="5.84964">
        <ele>537.4</ele>
        <time>2022-09-26T13:47:11Z</time>
      </trkpt>
      <trkpt lat="46.04332" lon="5.84965">
        <ele>537.4</ele>
        <time>2022-09-26T13:47:12Z</time>
      </trkpt>
      <trkpt lat="46.04333" lon="5.84966">
        <ele>537.4</ele>
        <time>2022-09-26T13:47:13Z</time>
      </trkpt>
      <trkpt lat="46.04336" lon="5.84967">
        <ele>537.3</ele>
        <time>2022-09-26T13:47:14Z</time>
      </trkpt>
      <trkpt lat="46.0434" lon="5.84969">
        <ele>537.3</ele>
        <time>2022-09-26T13:47:15Z</time>
      </trkpt>
      <trkpt lat="46.04341" lon="5.8497">
        <ele>537.3</ele>
        <time>2022-09-26T13:47:16Z</time>
      </trkpt>
      <trkpt lat="46.04344" lon="5.84972">
        <ele>537.3</ele>
        <time>2022-09-26T13:47:17Z</time>
      </trkpt>
      <trkpt lat="46.04348" lon="5.84973">
        <ele>537.2</ele>
        <time>2022-09-26T13:47:18Z</time>
      </trkpt>
      <trkpt lat="46.04349" lon="5.84974">
        <ele>537.2</ele>
        <time>2022-09-26T13:47:19Z</time>
      </trkpt>
      <trkpt lat="46.04352" lon="5.84977">
        <ele>537.1</ele>
        <time>2022-09-26T13:47:20Z</time>
      </trkpt>
      <trkpt lat="46.04355" lon="5.84978">
        <ele>537</ele>
        <time>2022-09-26T13:47:21Z</time>
      </trkpt>
      <trkpt lat="46.04359" lon="5.84979">
        <ele>536.9</ele>
        <time>2022-09-26T13:47:22Z</time>
      </trkpt>
      <trkpt lat="46.04363" lon="5.84982">
        <ele>536.8</ele>
        <time>2022-09-26T13:47:23Z</time>
      </trkpt>
      <trkpt lat="46.04367" lon="5.84984">
        <ele>536.6</ele>
        <time>2022-09-26T13:47:24Z</time>
      </trkpt>
      <trkpt lat="46.0437" lon="5.84986">
        <ele>536.5</ele>
        <time>2022-09-26T13:47:25Z</time>
      </trkpt>
      <trkpt lat="46.04373" lon="5.84987">
        <ele>536.4</ele>
        <time>2022-09-26T13:47:26Z</time>
      </trkpt>
      <trkpt lat="46.04376" lon="5.8499">
        <ele>536.3</ele>
        <time>2022-09-26T13:47:27Z</time>
      </trkpt>
      <trkpt lat="46.0438" lon="5.84992">
        <ele>536.1</ele>
        <time>2022-09-26T13:47:28Z</time>
      </trkpt>
      <trkpt lat="46.04385" lon="5.84994">
        <ele>535.9</ele>
        <time>2022-09-26T13:47:29Z</time>
      </trkpt>
      <trkpt lat="46.04389" lon="5.84997">
        <ele>535.7</ele>
        <time>2022-09-26T13:47:30Z</time>
      </trkpt>
      <trkpt lat="46.04394" lon="5.84999">
        <ele>535.5</ele>
        <time>2022-09-26T13:47:31Z</time>
      </trkpt>
      <trkpt lat="46.04399" lon="5.85002">
        <ele>535.2</ele>
        <time>2022-09-26T13:47:32Z</time>
      </trkpt>
      <trkpt lat="46.04402" lon="5.85003">
        <ele>535</ele>
        <time>2022-09-26T13:47:33Z</time>
      </trkpt>
      <trkpt lat="46.04408" lon="5.85006">
        <ele>534.7</ele>
        <time>2022-09-26T13:47:34Z</time>
      </trkpt>
      <trkpt lat="46.04412" lon="5.85008">
        <ele>534.5</ele>
        <time>2022-09-26T13:47:35Z</time>
      </trkpt>
      <trkpt lat="46.04415" lon="5.8501">
        <ele>534.3</ele>
        <time>2022-09-26T13:47:36Z</time>
      </trkpt>
      <trkpt lat="46.04419" lon="5.85011">
        <ele>534.1</ele>
        <time>2022-09-26T13:47:37Z</time>
      </trkpt>
      <trkpt lat="46.04424" lon="5.85015">
        <ele>533.7</ele>
        <time>2022-09-26T13:47:38Z</time>
      </trkpt>
      <trkpt lat="46.04428" lon="5.85016">
        <ele>533.4</ele>
        <time>2022-09-26T13:47:39Z</time>
      </trkpt>
      <trkpt lat="46.04432" lon="5.85018">
        <ele>533.2</ele>
        <time>2022-09-26T13:47:40Z</time>
      </trkpt>
      <trkpt lat="46.04435" lon="5.8502">
        <ele>533</ele>
        <time>2022-09-26T13:47:41Z</time>
      </trkpt>
      <trkpt lat="46.0444" lon="5.85023">
        <ele>532.7</ele>
        <time>2022-09-26T13:47:42Z</time>
      </trkpt>
      <trkpt lat="46.04443" lon="5.85025">
        <ele>532.5</ele>
        <time>2022-09-26T13:47:43Z</time>
      </trkpt>
      <trkpt lat="46.04447" lon="5.85027">
        <ele>532.2</ele>
        <time>2022-09-26T13:47:44Z</time>
      </trkpt>
      <trkpt lat="46.0445" lon="5.85031">
        <ele>532</ele>
        <time>2022-09-26T13:47:45Z</time>
      </trkpt>
      <trkpt lat="46.04455" lon="5.85036">
        <ele>531.6</ele>
        <time>2022-09-26T13:47:46Z</time>
      </trkpt>
      <trkpt lat="46.0446" lon="5.85039">
        <ele>531.3</ele>
        <time>2022-09-26T13:47:47Z</time>
      </trkpt>
      <trkpt lat="46.04465" lon="5.85043">
        <ele>531.1</ele>
        <time>2022-09-26T13:47:48Z</time>
      </trkpt>
      <trkpt lat="46.04468" lon="5.85048">
        <ele>530.9</ele>
        <time>2022-09-26T13:47:49Z</time>
      </trkpt>
      <trkpt lat="46.04474" lon="5.85052">
        <ele>530.7</ele>
        <time>2022-09-26T13:47:50Z</time>
      </trkpt>
      <trkpt lat="46.04478" lon="5.85057">
        <ele>530.5</ele>
        <time>2022-09-26T13:47:51Z</time>
      </trkpt>
      <trkpt lat="46.04483" lon="5.85062">
        <ele>530.3</ele>
        <time>2022-09-26T13:47:52Z</time>
      </trkpt>
      <trkpt lat="46.04487" lon="5.85067">
        <ele>530.2</ele>
        <time>2022-09-26T13:47:53Z</time>
      </trkpt>
      <trkpt lat="46.04491" lon="5.85073">
        <ele>530.1</ele>
        <time>2022-09-26T13:47:54Z</time>
      </trkpt>
      <trkpt lat="46.04497" lon="5.85077">
        <ele>530</ele>
        <time>2022-09-26T13:47:55Z</time>
      </trkpt>
      <trkpt lat="46.04502" lon="5.85082">
        <ele>529.9</ele>
        <time>2022-09-26T13:47:56Z</time>
      </trkpt>
      <trkpt lat="46.04506" lon="5.85088">
        <ele>529.8</ele>
        <time>2022-09-26T13:47:57Z</time>
      </trkpt>
      <trkpt lat="46.04512" lon="5.85094">
        <ele>529.8</ele>
        <time>2022-09-26T13:47:58Z</time>
      </trkpt>
      <trkpt lat="46.04518" lon="5.85101">
        <ele>529.8</ele>
        <time>2022-09-26T13:47:59Z</time>
      </trkpt>
      <trkpt lat="46.04523" lon="5.85107">
        <ele>529.9</ele>
        <time>2022-09-26T13:48:00Z</time>
      </trkpt>
      <trkpt lat="46.04527" lon="5.85111">
        <ele>529.9</ele>
        <time>2022-09-26T13:48:01Z</time>
      </trkpt>
      <trkpt lat="46.04531" lon="5.85117">
        <ele>529.9</ele>
        <time>2022-09-26T13:48:02Z</time>
      </trkpt>
      <trkpt lat="46.04536" lon="5.85122">
        <ele>529.9</ele>
        <time>2022-09-26T13:48:03Z</time>
      </trkpt>
      <trkpt lat="46.04541" lon="5.85127">
        <ele>530</ele>
        <time>2022-09-26T13:48:04Z</time>
      </trkpt>
      <trkpt lat="46.04547" lon="5.85132">
        <ele>530.1</ele>
        <time>2022-09-26T13:48:05Z</time>
      </trkpt>
      <trkpt lat="46.04551" lon="5.85138">
        <ele>530.1</ele>
        <time>2022-09-26T13:48:06Z</time>
      </trkpt>
      <trkpt lat="46.04556" lon="5.85142">
        <ele>530.2</ele>
        <time>2022-09-26T13:48:07Z</time>
      </trkpt>
      <trkpt lat="46.0456" lon="5.85147">
        <ele>530.3</ele>
        <time>2022-09-26T13:48:08Z</time>
      </trkpt>
      <trkpt lat="46.04564" lon="5.85153">
        <ele>530.4</ele>
        <time>2022-09-26T13:48:09Z</time>
      </trkpt>
      <trkpt lat="46.04568" lon="5.85158">
        <ele>530.5</ele>
        <time>2022-09-26T13:48:10Z</time>
      </trkpt>
      <trkpt lat="46.04573" lon="5.85164">
        <ele>530.6</ele>
        <time>2022-09-26T13:48:11Z</time>
      </trkpt>
      <trkpt lat="46.04577" lon="5.85169">
        <ele>530.7</ele>
        <time>2022-09-26T13:48:12Z</time>
      </trkpt>
      <trkpt lat="46.04581" lon="5.85174">
        <ele>530.8</ele>
        <time>2022-09-26T13:48:13Z</time>
      </trkpt>
      <trkpt lat="46.04585" lon="5.85179">
        <ele>530.9</ele>
        <time>2022-09-26T13:48:14Z</time>
      </trkpt>
      <trkpt lat="46.04589" lon="5.85184">
        <ele>531</ele>
        <time>2022-09-26T13:48:15Z</time>
      </trkpt>
      <trkpt lat="46.04593" lon="5.85189">
        <ele>531.1</ele>
        <time>2022-09-26T13:48:16Z</time>
      </trkpt>
      <trkpt lat="46.04597" lon="5.85193">
        <ele>531.2</ele>
        <time>2022-09-26T13:48:17Z</time>
      </trkpt>
      <trkpt lat="46.04601" lon="5.85198">
        <ele>531.2</ele>
        <time>2022-09-26T13:48:18Z</time>
      </trkpt>
      <trkpt lat="46.04604" lon="5.85203">
        <ele>531.3</ele>
        <time>2022-09-26T13:48:19Z</time>
      </trkpt>
      <trkpt lat="46.04609" lon="5.85208">
        <ele>531.3</ele>
        <time>2022-09-26T13:48:20Z</time>
      </trkpt>
      <trkpt lat="46.04613" lon="5.85213">
        <ele>531.4</ele>
        <time>2022-09-26T13:48:21Z</time>
      </trkpt>
      <trkpt lat="46.04616" lon="5.85217">
        <ele>531.5</ele>
        <time>2022-09-26T13:48:22Z</time>
      </trkpt>
      <trkpt lat="46.0462" lon="5.85221">
        <ele>531.5</ele>
        <time>2022-09-26T13:48:23Z</time>
      </trkpt>
      <trkpt lat="46.04624" lon="5.85225">
        <ele>531.6</ele>
        <time>2022-09-26T13:48:24Z</time>
      </trkpt>
      <trkpt lat="46.04627" lon="5.85229">
        <ele>531.6</ele>
        <time>2022-09-26T13:48:25Z</time>
      </trkpt>
      <trkpt lat="46.04631" lon="5.85234">
        <ele>531.7</ele>
        <time>2022-09-26T13:48:26Z</time>
      </trkpt>
      <trkpt lat="46.04635" lon="5.85237">
        <ele>531.7</ele>
        <time>2022-09-26T13:48:27Z</time>
      </trkpt>
      <trkpt lat="46.04639" lon="5.8524">
        <ele>531.7</ele>
        <time>2022-09-26T13:48:28Z</time>
      </trkpt>
      <trkpt lat="46.04643" lon="5.85244">
        <ele>531.7</ele>
        <time>2022-09-26T13:48:29Z</time>
      </trkpt>
      <trkpt lat="46.04647" lon="5.85247">
        <ele>531.6</ele>
        <time>2022-09-26T13:48:30Z</time>
      </trkpt>
      <trkpt lat="46.04651" lon="5.85249">
        <ele>531.6</ele>
        <time>2022-09-26T13:48:31Z</time>
      </trkpt>
      <trkpt lat="46.04656" lon="5.85251">
        <ele>531.5</ele>
        <time>2022-09-26T13:48:32Z</time>
      </trkpt>
      <trkpt lat="46.0466" lon="5.85254">
        <ele>531.4</ele>
        <time>2022-09-26T13:48:33Z</time>
      </trkpt>
      <trkpt lat="46.04665" lon="5.85256">
        <ele>531.3</ele>
        <time>2022-09-26T13:48:34Z</time>
      </trkpt>
      <trkpt lat="46.0467" lon="5.85257">
        <ele>531.1</ele>
        <time>2022-09-26T13:48:35Z</time>
      </trkpt>
      <trkpt lat="46.04676" lon="5.85259">
        <ele>531</ele>
        <time>2022-09-26T13:48:36Z</time>
      </trkpt>
      <trkpt lat="46.04681" lon="5.8526">
        <ele>530.9</ele>
        <time>2022-09-26T13:48:37Z</time>
      </trkpt>
      <trkpt lat="46.04686" lon="5.85261">
        <ele>530.8</ele>
        <time>2022-09-26T13:48:38Z</time>
      </trkpt>
      <trkpt lat="46.04691" lon="5.85262">
        <ele>530.6</ele>
        <time>2022-09-26T13:48:39Z</time>
      </trkpt>
      <trkpt lat="46.04697" lon="5.85263">
        <ele>530.4</ele>
        <time>2022-09-26T13:48:40Z</time>
      </trkpt>
      <trkpt lat="46.04702" lon="5.85263">
        <ele>530.3</ele>
        <time>2022-09-26T13:48:41Z</time>
      </trkpt>
      <trkpt lat="46.04708" lon="5.85264">
        <ele>530.1</ele>
        <time>2022-09-26T13:48:42Z</time>
      </trkpt>
      <trkpt lat="46.04713" lon="5.85265">
        <ele>529.9</ele>
        <time>2022-09-26T13:48:43Z</time>
      </trkpt>
      <trkpt lat="46.04719" lon="5.85266">
        <ele>529.7</ele>
        <time>2022-09-26T13:48:44Z</time>
      </trkpt>
      <trkpt lat="46.04724" lon="5.85267">
        <ele>529.5</ele>
        <time>2022-09-26T13:48:45Z</time>
      </trkpt>
      <trkpt lat="46.04729" lon="5.85268">
        <ele>529.3</ele>
        <time>2022-09-26T13:48:46Z</time>
      </trkpt>
      <trkpt lat="46.04735" lon="5.85269">
        <ele>529</ele>
        <time>2022-09-26T13:48:47Z</time>
      </trkpt>
      <trkpt lat="46.04741" lon="5.85269">
        <ele>528.7</ele>
        <time>2022-09-26T13:48:48Z</time>
      </trkpt>
      <trkpt lat="46.04747" lon="5.8527">
        <ele>528.5</ele>
        <time>2022-09-26T13:48:49Z</time>
      </trkpt>
      <trkpt lat="46.04752" lon="5.85271">
        <ele>528.2</ele>
        <time>2022-09-26T13:48:50Z</time>
      </trkpt>
      <trkpt lat="46.04757" lon="5.85272">
        <ele>528</ele>
        <time>2022-09-26T13:48:51Z</time>
      </trkpt>
      <trkpt lat="46.04763" lon="5.85273">
        <ele>527.8</ele>
        <time>2022-09-26T13:48:52Z</time>
      </trkpt>
      <trkpt lat="46.04768" lon="5.85274">
        <ele>527.6</ele>
        <time>2022-09-26T13:48:53Z</time>
      </trkpt>
      <trkpt lat="46.04772" lon="5.85275">
        <ele>527.6</ele>
        <time>2022-09-26T13:48:54Z</time>
      </trkpt>
      <trkpt lat="46.04777" lon="5.85276">
        <ele>527.5</ele>
        <time>2022-09-26T13:48:55Z</time>
      </trkpt>
      <trkpt lat="46.04782" lon="5.85278">
        <ele>527.4</ele>
        <time>2022-09-26T13:48:56Z</time>
      </trkpt>
      <trkpt lat="46.04787" lon="5.8528">
        <ele>527.4</ele>
        <time>2022-09-26T13:48:57Z</time>
      </trkpt>
      <trkpt lat="46.04792" lon="5.85283">
        <ele>527.3</ele>
        <time>2022-09-26T13:48:58Z</time>
      </trkpt>
      <trkpt lat="46.04797" lon="5.85285">
        <ele>527.2</ele>
        <time>2022-09-26T13:48:59Z</time>
      </trkpt>
      <trkpt lat="46.04802" lon="5.85288">
        <ele>527.1</ele>
        <time>2022-09-26T13:49:00Z</time>
      </trkpt>
      <trkpt lat="46.04806" lon="5.85292">
        <ele>527</ele>
        <time>2022-09-26T13:49:01Z</time>
      </trkpt>
      <trkpt lat="46.04812" lon="5.85296">
        <ele>527</ele>
        <time>2022-09-26T13:49:02Z</time>
      </trkpt>
      <trkpt lat="46.04816" lon="5.85299">
        <ele>526.9</ele>
        <time>2022-09-26T13:49:03Z</time>
      </trkpt>
      <trkpt lat="46.04821" lon="5.85303">
        <ele>526.9</ele>
        <time>2022-09-26T13:49:04Z</time>
      </trkpt>
      <trkpt lat="46.04825" lon="5.85306">
        <ele>526.9</ele>
        <time>2022-09-26T13:49:05Z</time>
      </trkpt>
      <trkpt lat="46.04831" lon="5.85311">
        <ele>526.9</ele>
        <time>2022-09-26T13:49:06Z</time>
      </trkpt>
      <trkpt lat="46.04835" lon="5.85314">
        <ele>526.9</ele>
        <time>2022-09-26T13:49:07Z</time>
      </trkpt>
      <trkpt lat="46.0484" lon="5.85318">
        <ele>526.9</ele>
        <time>2022-09-26T13:49:08Z</time>
      </trkpt>
      <trkpt lat="46.04845" lon="5.85323">
        <ele>526.9</ele>
        <time>2022-09-26T13:49:09Z</time>
      </trkpt>
      <trkpt lat="46.04849" lon="5.85326">
        <ele>526.9</ele>
        <time>2022-09-26T13:49:10Z</time>
      </trkpt>
      <trkpt lat="46.04854" lon="5.85331">
        <ele>526.9</ele>
        <time>2022-09-26T13:49:11Z</time>
      </trkpt>
      <trkpt lat="46.04858" lon="5.85335">
        <ele>527</ele>
        <time>2022-09-26T13:49:12Z</time>
      </trkpt>
      <trkpt lat="46.04863" lon="5.85338">
        <ele>527</ele>
        <time>2022-09-26T13:49:13Z</time>
      </trkpt>
      <trkpt lat="46.04867" lon="5.85341">
        <ele>527.1</ele>
        <time>2022-09-26T13:49:14Z</time>
      </trkpt>
      <trkpt lat="46.04871" lon="5.85345">
        <ele>527.1</ele>
        <time>2022-09-26T13:49:15Z</time>
      </trkpt>
      <trkpt lat="46.04874" lon="5.85348">
        <ele>527.2</ele>
        <time>2022-09-26T13:49:16Z</time>
      </trkpt>
      <trkpt lat="46.04878" lon="5.85351">
        <ele>527.2</ele>
        <time>2022-09-26T13:49:17Z</time>
      </trkpt>
      <trkpt lat="46.04881" lon="5.85354">
        <ele>527.3</ele>
        <time>2022-09-26T13:49:18Z</time>
      </trkpt>
      <trkpt lat="46.04884" lon="5.85356">
        <ele>527.3</ele>
        <time>2022-09-26T13:49:19Z</time>
      </trkpt>
      <trkpt lat="46.04887" lon="5.85359">
        <ele>527.4</ele>
        <time>2022-09-26T13:49:20Z</time>
      </trkpt>
      <trkpt lat="46.04889" lon="5.85361">
        <ele>527.4</ele>
        <time>2022-09-26T13:49:21Z</time>
      </trkpt>
      <trkpt lat="46.04892" lon="5.85363">
        <ele>527.4</ele>
        <time>2022-09-26T13:49:22Z</time>
      </trkpt>
      <trkpt lat="46.04895" lon="5.85366">
        <ele>527.4</ele>
        <time>2022-09-26T13:49:23Z</time>
      </trkpt>
      <trkpt lat="46.04899" lon="5.85368">
        <ele>527.5</ele>
        <time>2022-09-26T13:49:24Z</time>
      </trkpt>
      <trkpt lat="46.04901" lon="5.8537">
        <ele>527.5</ele>
        <time>2022-09-26T13:49:25Z</time>
      </trkpt>
      <trkpt lat="46.04904" lon="5.85373">
        <ele>527.5</ele>
        <time>2022-09-26T13:49:26Z</time>
      </trkpt>
      <trkpt lat="46.04907" lon="5.85376">
        <ele>527.5</ele>
        <time>2022-09-26T13:49:27Z</time>
      </trkpt>
      <trkpt lat="46.04911" lon="5.85379">
        <ele>527.6</ele>
        <time>2022-09-26T13:49:28Z</time>
      </trkpt>
      <trkpt lat="46.04915" lon="5.85382">
        <ele>527.6</ele>
        <time>2022-09-26T13:49:29Z</time>
      </trkpt>
      <trkpt lat="46.04918" lon="5.85385">
        <ele>527.7</ele>
        <time>2022-09-26T13:49:30Z</time>
      </trkpt>
      <trkpt lat="46.04921" lon="5.85388">
        <ele>527.7</ele>
        <time>2022-09-26T13:49:31Z</time>
      </trkpt>
      <trkpt lat="46.04923" lon="5.8539">
        <ele>527.8</ele>
        <time>2022-09-26T13:49:32Z</time>
      </trkpt>
      <trkpt lat="46.04927" lon="5.85393">
        <ele>527.8</ele>
        <time>2022-09-26T13:49:33Z</time>
      </trkpt>
      <trkpt lat="46.04931" lon="5.85396">
        <ele>527.9</ele>
        <time>2022-09-26T13:49:34Z</time>
      </trkpt>
      <trkpt lat="46.04934" lon="5.85399">
        <ele>527.9</ele>
        <time>2022-09-26T13:49:35Z</time>
      </trkpt>
      <trkpt lat="46.04937" lon="5.85402">
        <ele>528</ele>
        <time>2022-09-26T13:49:36Z</time>
      </trkpt>
      <trkpt lat="46.04941" lon="5.85405">
        <ele>528.1</ele>
        <time>2022-09-26T13:49:37Z</time>
      </trkpt>
      <trkpt lat="46.04944" lon="5.85407">
        <ele>528.1</ele>
        <time>2022-09-26T13:49:38Z</time>
      </trkpt>
      <trkpt lat="46.04948" lon="5.8541">
        <ele>528.2</ele>
        <time>2022-09-26T13:49:39Z</time>
      </trkpt>
      <trkpt lat="46.04951" lon="5.85413">
        <ele>528.2</ele>
        <time>2022-09-26T13:49:40Z</time>
      </trkpt>
      <trkpt lat="46.04955" lon="5.85415">
        <ele>528.2</ele>
        <time>2022-09-26T13:49:41Z</time>
      </trkpt>
      <trkpt lat="46.04958" lon="5.85418">
        <ele>528.3</ele>
        <time>2022-09-26T13:49:42Z</time>
      </trkpt>
      <trkpt lat="46.04962" lon="5.85421">
        <ele>528.3</ele>
        <time>2022-09-26T13:49:43Z</time>
      </trkpt>
      <trkpt lat="46.04966" lon="5.85424">
        <ele>528.4</ele>
        <time>2022-09-26T13:49:44Z</time>
      </trkpt>
      <trkpt lat="46.04969" lon="5.85428">
        <ele>528.4</ele>
        <time>2022-09-26T13:49:45Z</time>
      </trkpt>
      <trkpt lat="46.04973" lon="5.85431">
        <ele>528.4</ele>
        <time>2022-09-26T13:49:46Z</time>
      </trkpt>
      <trkpt lat="46.04977" lon="5.85435">
        <ele>528.4</ele>
        <time>2022-09-26T13:49:47Z</time>
      </trkpt>
      <trkpt lat="46.04981" lon="5.85437">
        <ele>528.5</ele>
        <time>2022-09-26T13:49:48Z</time>
      </trkpt>
      <trkpt lat="46.04984" lon="5.8544">
        <ele>528.5</ele>
        <time>2022-09-26T13:49:49Z</time>
      </trkpt>
      <trkpt lat="46.04988" lon="5.85444">
        <ele>528.4</ele>
        <time>2022-09-26T13:49:50Z</time>
      </trkpt>
      <trkpt lat="46.04992" lon="5.85447">
        <ele>528.4</ele>
        <time>2022-09-26T13:49:51Z</time>
      </trkpt>
      <trkpt lat="46.04996" lon="5.8545">
        <ele>528.4</ele>
        <time>2022-09-26T13:49:52Z</time>
      </trkpt>
      <trkpt lat="46.05" lon="5.85454">
        <ele>528.3</ele>
        <time>2022-09-26T13:49:53Z</time>
      </trkpt>
      <trkpt lat="46.05003" lon="5.85457">
        <ele>528.2</ele>
        <time>2022-09-26T13:49:54Z</time>
      </trkpt>
      <trkpt lat="46.05007" lon="5.8546">
        <ele>528.2</ele>
        <time>2022-09-26T13:49:55Z</time>
      </trkpt>
      <trkpt lat="46.05011" lon="5.85464">
        <ele>528.1</ele>
        <time>2022-09-26T13:49:56Z</time>
      </trkpt>
      <trkpt lat="46.05015" lon="5.85467">
        <ele>527.9</ele>
        <time>2022-09-26T13:49:57Z</time>
      </trkpt>
      <trkpt lat="46.0502" lon="5.8547">
        <ele>527.8</ele>
        <time>2022-09-26T13:49:58Z</time>
      </trkpt>
      <trkpt lat="46.05024" lon="5.85474">
        <ele>527.7</ele>
        <time>2022-09-26T13:49:59Z</time>
      </trkpt>
      <trkpt lat="46.05028" lon="5.85478">
        <ele>527.6</ele>
        <time>2022-09-26T13:50:00Z</time>
      </trkpt>
      <trkpt lat="46.05033" lon="5.85481">
        <ele>527.4</ele>
        <time>2022-09-26T13:50:01Z</time>
      </trkpt>
      <trkpt lat="46.05037" lon="5.85485">
        <ele>527.3</ele>
        <time>2022-09-26T13:50:02Z</time>
      </trkpt>
      <trkpt lat="46.05042" lon="5.85489">
        <ele>527.1</ele>
        <time>2022-09-26T13:50:03Z</time>
      </trkpt>
      <trkpt lat="46.05046" lon="5.85491">
        <ele>527</ele>
        <time>2022-09-26T13:50:04Z</time>
      </trkpt>
      <trkpt lat="46.05051" lon="5.85495">
        <ele>526.9</ele>
        <time>2022-09-26T13:50:05Z</time>
      </trkpt>
      <trkpt lat="46.05056" lon="5.85498">
        <ele>526.7</ele>
        <time>2022-09-26T13:50:06Z</time>
      </trkpt>
      <trkpt lat="46.0506" lon="5.855">
        <ele>526.6</ele>
        <time>2022-09-26T13:50:07Z</time>
      </trkpt>
      <trkpt lat="46.05064" lon="5.85503">
        <ele>526.4</ele>
        <time>2022-09-26T13:50:08Z</time>
      </trkpt>
      <trkpt lat="46.05069" lon="5.85505">
        <ele>526.3</ele>
        <time>2022-09-26T13:50:09Z</time>
      </trkpt>
      <trkpt lat="46.05075" lon="5.85508">
        <ele>526.1</ele>
        <time>2022-09-26T13:50:10Z</time>
      </trkpt>
      <trkpt lat="46.05081" lon="5.85511">
        <ele>525.9</ele>
        <time>2022-09-26T13:50:11Z</time>
      </trkpt>
      <trkpt lat="46.05086" lon="5.85512">
        <ele>525.7</ele>
        <time>2022-09-26T13:50:12Z</time>
      </trkpt>
      <trkpt lat="46.05091" lon="5.85515">
        <ele>525.5</ele>
        <time>2022-09-26T13:50:13Z</time>
      </trkpt>
      <trkpt lat="46.05097" lon="5.85517">
        <ele>525.3</ele>
        <time>2022-09-26T13:50:14Z</time>
      </trkpt>
      <trkpt lat="46.05103" lon="5.85519">
        <ele>525.1</ele>
        <time>2022-09-26T13:50:15Z</time>
      </trkpt>
      <trkpt lat="46.05109" lon="5.85521">
        <ele>524.8</ele>
        <time>2022-09-26T13:50:16Z</time>
      </trkpt>
      <trkpt lat="46.05116" lon="5.85523">
        <ele>524.6</ele>
        <time>2022-09-26T13:50:17Z</time>
      </trkpt>
      <trkpt lat="46.05122" lon="5.85525">
        <ele>524.4</ele>
        <time>2022-09-26T13:50:18Z</time>
      </trkpt>
      <trkpt lat="46.05128" lon="5.85528">
        <ele>524.2</ele>
        <time>2022-09-26T13:50:19Z</time>
      </trkpt>
      <trkpt lat="46.05133" lon="5.8553">
        <ele>524</ele>
        <time>2022-09-26T13:50:20Z</time>
      </trkpt>
      <trkpt lat="46.05138" lon="5.85531">
        <ele>523.9</ele>
        <time>2022-09-26T13:50:21Z</time>
      </trkpt>
      <trkpt lat="46.05144" lon="5.85534">
        <ele>523.7</ele>
        <time>2022-09-26T13:50:23Z</time>
      </trkpt>
      <trkpt lat="46.05148" lon="5.85535">
        <ele>523.6</ele>
        <time>2022-09-26T13:50:24Z</time>
      </trkpt>
      <trkpt lat="46.05153" lon="5.85537">
        <ele>523.5</ele>
        <time>2022-09-26T13:50:25Z</time>
      </trkpt>
      <trkpt lat="46.05157" lon="5.85538">
        <ele>523.4</ele>
        <time>2022-09-26T13:50:26Z</time>
      </trkpt>
      <trkpt lat="46.05161" lon="5.85539">
        <ele>523.4</ele>
        <time>2022-09-26T13:50:27Z</time>
      </trkpt>
      <trkpt lat="46.05164" lon="5.8554">
        <ele>523.4</ele>
        <time>2022-09-26T13:50:28Z</time>
      </trkpt>
      <trkpt lat="46.05168" lon="5.85542">
        <ele>523.3</ele>
        <time>2022-09-26T13:50:29Z</time>
      </trkpt>
      <trkpt lat="46.05172" lon="5.85544">
        <ele>523.3</ele>
        <time>2022-09-26T13:50:30Z</time>
      </trkpt>
      <trkpt lat="46.05176" lon="5.85544">
        <ele>523.3</ele>
        <time>2022-09-26T13:50:31Z</time>
      </trkpt>
      <trkpt lat="46.05179" lon="5.85547">
        <ele>523.3</ele>
        <time>2022-09-26T13:50:32Z</time>
      </trkpt>
      <trkpt lat="46.05188" lon="5.85549">
        <ele>523.2</ele>
        <time>2022-09-26T13:50:33Z</time>
      </trkpt>
      <trkpt lat="46.05197" lon="5.85553">
        <ele>523</ele>
        <time>2022-09-26T13:50:35Z</time>
      </trkpt>
      <trkpt lat="46.05203" lon="5.85556">
        <ele>522.9</ele>
        <time>2022-09-26T13:50:36Z</time>
      </trkpt>
      <trkpt lat="46.05209" lon="5.85556">
        <ele>522.8</ele>
        <time>2022-09-26T13:50:37Z</time>
      </trkpt>
      <trkpt lat="46.05214" lon="5.85559">
        <ele>522.8</ele>
        <time>2022-09-26T13:50:38Z</time>
      </trkpt>
      <trkpt lat="46.05219" lon="5.85561">
        <ele>522.8</ele>
        <time>2022-09-26T13:50:39Z</time>
      </trkpt>
      <trkpt lat="46.05224" lon="5.85563">
        <ele>522.8</ele>
        <time>2022-09-26T13:50:40Z</time>
      </trkpt>
      <trkpt lat="46.05229" lon="5.85565">
        <ele>522.8</ele>
        <time>2022-09-26T13:50:41Z</time>
      </trkpt>
      <trkpt lat="46.05234" lon="5.85566">
        <ele>522.9</ele>
        <time>2022-09-26T13:50:42Z</time>
      </trkpt>
      <trkpt lat="46.05239" lon="5.85568">
        <ele>523</ele>
        <time>2022-09-26T13:50:43Z</time>
      </trkpt>
      <trkpt lat="46.05242" lon="5.85568">
        <ele>523.1</ele>
        <time>2022-09-26T13:50:44Z</time>
      </trkpt>
      <trkpt lat="46.05247" lon="5.85571">
        <ele>523.2</ele>
        <time>2022-09-26T13:50:45Z</time>
      </trkpt>
      <trkpt lat="46.0525" lon="5.85573">
        <ele>523.2</ele>
        <time>2022-09-26T13:50:46Z</time>
      </trkpt>
      <trkpt lat="46.05254" lon="5.85574">
        <ele>523.3</ele>
        <time>2022-09-26T13:50:47Z</time>
      </trkpt>
      <trkpt lat="46.05257" lon="5.85577">
        <ele>523.4</ele>
        <time>2022-09-26T13:50:48Z</time>
      </trkpt>
      <trkpt lat="46.05261" lon="5.85579">
        <ele>523.5</ele>
        <time>2022-09-26T13:50:49Z</time>
      </trkpt>
      <trkpt lat="46.05265" lon="5.85583">
        <ele>523.6</ele>
        <time>2022-09-26T13:50:50Z</time>
      </trkpt>
      <trkpt lat="46.05268" lon="5.85585">
        <ele>523.7</ele>
        <time>2022-09-26T13:50:51Z</time>
      </trkpt>
      <trkpt lat="46.05273" lon="5.85587">
        <ele>523.8</ele>
        <time>2022-09-26T13:50:52Z</time>
      </trkpt>
      <trkpt lat="46.05277" lon="5.85589">
        <ele>523.9</ele>
        <time>2022-09-26T13:50:53Z</time>
      </trkpt>
      <trkpt lat="46.0528" lon="5.8559">
        <ele>524</ele>
        <time>2022-09-26T13:50:54Z</time>
      </trkpt>
      <trkpt lat="46.05285" lon="5.85593">
        <ele>524.1</ele>
        <time>2022-09-26T13:50:55Z</time>
      </trkpt>
      <trkpt lat="46.05289" lon="5.85594">
        <ele>524.1</ele>
        <time>2022-09-26T13:50:56Z</time>
      </trkpt>
      <trkpt lat="46.05293" lon="5.85596">
        <ele>524.2</ele>
        <time>2022-09-26T13:50:57Z</time>
      </trkpt>
      <trkpt lat="46.05297" lon="5.85597">
        <ele>524.3</ele>
        <time>2022-09-26T13:50:58Z</time>
      </trkpt>
      <trkpt lat="46.05301" lon="5.85599">
        <ele>524.4</ele>
        <time>2022-09-26T13:50:59Z</time>
      </trkpt>
      <trkpt lat="46.05305" lon="5.856">
        <ele>524.5</ele>
        <time>2022-09-26T13:51:00Z</time>
      </trkpt>
      <trkpt lat="46.05309" lon="5.85602">
        <ele>524.6</ele>
        <time>2022-09-26T13:51:01Z</time>
      </trkpt>
      <trkpt lat="46.05312" lon="5.85604">
        <ele>524.7</ele>
        <time>2022-09-26T13:51:02Z</time>
      </trkpt>
      <trkpt lat="46.05316" lon="5.85605">
        <ele>524.8</ele>
        <time>2022-09-26T13:51:03Z</time>
      </trkpt>
      <trkpt lat="46.05319" lon="5.85606">
        <ele>525</ele>
        <time>2022-09-26T13:51:04Z</time>
      </trkpt>
      <trkpt lat="46.05323" lon="5.85608">
        <ele>525.1</ele>
        <time>2022-09-26T13:51:05Z</time>
      </trkpt>
      <trkpt lat="46.05327" lon="5.8561">
        <ele>525.2</ele>
        <time>2022-09-26T13:51:06Z</time>
      </trkpt>
      <trkpt lat="46.0533" lon="5.85611">
        <ele>525.4</ele>
        <time>2022-09-26T13:51:07Z</time>
      </trkpt>
      <trkpt lat="46.05334" lon="5.85613">
        <ele>525.5</ele>
        <time>2022-09-26T13:51:08Z</time>
      </trkpt>
      <trkpt lat="46.05338" lon="5.85614">
        <ele>525.6</ele>
        <time>2022-09-26T13:51:09Z</time>
      </trkpt>
      <trkpt lat="46.05341" lon="5.85616">
        <ele>525.8</ele>
        <time>2022-09-26T13:51:10Z</time>
      </trkpt>
      <trkpt lat="46.05345" lon="5.85617">
        <ele>525.9</ele>
        <time>2022-09-26T13:51:11Z</time>
      </trkpt>
      <trkpt lat="46.05348" lon="5.85618">
        <ele>526</ele>
        <time>2022-09-26T13:51:12Z</time>
      </trkpt>
      <trkpt lat="46.05352" lon="5.8562">
        <ele>526.1</ele>
        <time>2022-09-26T13:51:13Z</time>
      </trkpt>
      <trkpt lat="46.05356" lon="5.85622">
        <ele>526.2</ele>
        <time>2022-09-26T13:51:14Z</time>
      </trkpt>
      <trkpt lat="46.05359" lon="5.85622">
        <ele>526.3</ele>
        <time>2022-09-26T13:51:15Z</time>
      </trkpt>
      <trkpt lat="46.05363" lon="5.85624">
        <ele>526.4</ele>
        <time>2022-09-26T13:51:16Z</time>
      </trkpt>
      <trkpt lat="46.05366" lon="5.85625">
        <ele>526.5</ele>
        <time>2022-09-26T13:51:17Z</time>
      </trkpt>
      <trkpt lat="46.0537" lon="5.85627">
        <ele>526.6</ele>
        <time>2022-09-26T13:51:18Z</time>
      </trkpt>
      <trkpt lat="46.05373" lon="5.85628">
        <ele>526.7</ele>
        <time>2022-09-26T13:51:19Z</time>
      </trkpt>
      <trkpt lat="46.05377" lon="5.8563">
        <ele>526.8</ele>
        <time>2022-09-26T13:51:20Z</time>
      </trkpt>
      <trkpt lat="46.0538" lon="5.85631">
        <ele>526.9</ele>
        <time>2022-09-26T13:51:21Z</time>
      </trkpt>
      <trkpt lat="46.05384" lon="5.85632">
        <ele>527</ele>
        <time>2022-09-26T13:51:22Z</time>
      </trkpt>
      <trkpt lat="46.05387" lon="5.85634">
        <ele>527.1</ele>
        <time>2022-09-26T13:51:23Z</time>
      </trkpt>
      <trkpt lat="46.05391" lon="5.85635">
        <ele>527.3</ele>
        <time>2022-09-26T13:51:24Z</time>
      </trkpt>
      <trkpt lat="46.05394" lon="5.85637">
        <ele>527.4</ele>
        <time>2022-09-26T13:51:25Z</time>
      </trkpt>
      <trkpt lat="46.05397" lon="5.85638">
        <ele>527.5</ele>
        <time>2022-09-26T13:51:26Z</time>
      </trkpt>
      <trkpt lat="46.05401" lon="5.85639">
        <ele>527.6</ele>
        <time>2022-09-26T13:51:27Z</time>
      </trkpt>
      <trkpt lat="46.05404" lon="5.85641">
        <ele>527.7</ele>
        <time>2022-09-26T13:51:28Z</time>
      </trkpt>
      <trkpt lat="46.05407" lon="5.85642">
        <ele>527.7</ele>
        <time>2022-09-26T13:51:29Z</time>
      </trkpt>
      <trkpt lat="46.0541" lon="5.85643">
        <ele>527.8</ele>
        <time>2022-09-26T13:51:30Z</time>
      </trkpt>
      <trkpt lat="46.05414" lon="5.85645">
        <ele>527.9</ele>
        <time>2022-09-26T13:51:31Z</time>
      </trkpt>
      <trkpt lat="46.05416" lon="5.85646">
        <ele>527.9</ele>
        <time>2022-09-26T13:51:32Z</time>
      </trkpt>
      <trkpt lat="46.0542" lon="5.85647">
        <ele>528</ele>
        <time>2022-09-26T13:51:33Z</time>
      </trkpt>
      <trkpt lat="46.05423" lon="5.85649">
        <ele>528</ele>
        <time>2022-09-26T13:51:34Z</time>
      </trkpt>
      <trkpt lat="46.05426" lon="5.8565">
        <ele>528.1</ele>
        <time>2022-09-26T13:51:35Z</time>
      </trkpt>
      <trkpt lat="46.05429" lon="5.85652">
        <ele>528.1</ele>
        <time>2022-09-26T13:51:36Z</time>
      </trkpt>
      <trkpt lat="46.05433" lon="5.85653">
        <ele>528.2</ele>
        <time>2022-09-26T13:51:37Z</time>
      </trkpt>
      <trkpt lat="46.05436" lon="5.85654">
        <ele>528.2</ele>
        <time>2022-09-26T13:51:38Z</time>
      </trkpt>
      <trkpt lat="46.05439" lon="5.85656">
        <ele>528.2</ele>
        <time>2022-09-26T13:51:39Z</time>
      </trkpt>
      <trkpt lat="46.05443" lon="5.85657">
        <ele>528.2</ele>
        <time>2022-09-26T13:51:40Z</time>
      </trkpt>
      <trkpt lat="46.05446" lon="5.85659">
        <ele>528.3</ele>
        <time>2022-09-26T13:51:41Z</time>
      </trkpt>
      <trkpt lat="46.05449" lon="5.8566">
        <ele>528.3</ele>
        <time>2022-09-26T13:51:42Z</time>
      </trkpt>
      <trkpt lat="46.05453" lon="5.85662">
        <ele>528.3</ele>
        <time>2022-09-26T13:51:43Z</time>
      </trkpt>
      <trkpt lat="46.05457" lon="5.85663">
        <ele>528.3</ele>
        <time>2022-09-26T13:51:44Z</time>
      </trkpt>
      <trkpt lat="46.0546" lon="5.85665">
        <ele>528.3</ele>
        <time>2022-09-26T13:51:45Z</time>
      </trkpt>
      <trkpt lat="46.05464" lon="5.85666">
        <ele>528.3</ele>
        <time>2022-09-26T13:51:46Z</time>
      </trkpt>
      <trkpt lat="46.05467" lon="5.85668">
        <ele>528.3</ele>
        <time>2022-09-26T13:51:47Z</time>
      </trkpt>
      <trkpt lat="46.05471" lon="5.8567">
        <ele>528.3</ele>
        <time>2022-09-26T13:51:48Z</time>
      </trkpt>
      <trkpt lat="46.05475" lon="5.85671">
        <ele>528.2</ele>
        <time>2022-09-26T13:51:49Z</time>
      </trkpt>
      <trkpt lat="46.05479" lon="5.85673">
        <ele>528.2</ele>
        <time>2022-09-26T13:51:50Z</time>
      </trkpt>
      <trkpt lat="46.05483" lon="5.85675">
        <ele>528.1</ele>
        <time>2022-09-26T13:51:51Z</time>
      </trkpt>
      <trkpt lat="46.05487" lon="5.85676">
        <ele>528</ele>
        <time>2022-09-26T13:51:52Z</time>
      </trkpt>
      <trkpt lat="46.05491" lon="5.85678">
        <ele>527.9</ele>
        <time>2022-09-26T13:51:53Z</time>
      </trkpt>
      <trkpt lat="46.05495" lon="5.8568">
        <ele>527.9</ele>
        <time>2022-09-26T13:51:54Z</time>
      </trkpt>
      <trkpt lat="46.05499" lon="5.85682">
        <ele>527.7</ele>
        <time>2022-09-26T13:51:55Z</time>
      </trkpt>
      <trkpt lat="46.05504" lon="5.85683">
        <ele>527.7</ele>
        <time>2022-09-26T13:51:56Z</time>
      </trkpt>
      <trkpt lat="46.05508" lon="5.85684">
        <ele>527.6</ele>
        <time>2022-09-26T13:51:57Z</time>
      </trkpt>
      <trkpt lat="46.05512" lon="5.85685">
        <ele>527.4</ele>
        <time>2022-09-26T13:51:58Z</time>
      </trkpt>
      <trkpt lat="46.05517" lon="5.85687">
        <ele>527.3</ele>
        <time>2022-09-26T13:51:59Z</time>
      </trkpt>
      <trkpt lat="46.05522" lon="5.85687">
        <ele>527.1</ele>
        <time>2022-09-26T13:52:00Z</time>
      </trkpt>
      <trkpt lat="46.05527" lon="5.85686">
        <ele>527</ele>
        <time>2022-09-26T13:52:01Z</time>
      </trkpt>
      <trkpt lat="46.05532" lon="5.85686">
        <ele>526.7</ele>
        <time>2022-09-26T13:52:02Z</time>
      </trkpt>
      <trkpt lat="46.05537" lon="5.85687">
        <ele>526.5</ele>
        <time>2022-09-26T13:52:03Z</time>
      </trkpt>
      <trkpt lat="46.05542" lon="5.85685">
        <ele>526.3</ele>
        <time>2022-09-26T13:52:04Z</time>
      </trkpt>
      <trkpt lat="46.05547" lon="5.85684">
        <ele>526.1</ele>
        <time>2022-09-26T13:52:05Z</time>
      </trkpt>
      <trkpt lat="46.05553" lon="5.85681">
        <ele>525.8</ele>
        <time>2022-09-26T13:52:06Z</time>
      </trkpt>
      <trkpt lat="46.05557" lon="5.85679">
        <ele>525.6</ele>
        <time>2022-09-26T13:52:07Z</time>
      </trkpt>
      <trkpt lat="46.05563" lon="5.85676">
        <ele>525.3</ele>
        <time>2022-09-26T13:52:08Z</time>
      </trkpt>
      <trkpt lat="46.05568" lon="5.85672">
        <ele>525</ele>
        <time>2022-09-26T13:52:09Z</time>
      </trkpt>
      <trkpt lat="46.05574" lon="5.85669">
        <ele>524.8</ele>
        <time>2022-09-26T13:52:10Z</time>
      </trkpt>
      <trkpt lat="46.05578" lon="5.85665">
        <ele>524.5</ele>
        <time>2022-09-26T13:52:11Z</time>
      </trkpt>
      <trkpt lat="46.05583" lon="5.85661">
        <ele>524.3</ele>
        <time>2022-09-26T13:52:12Z</time>
      </trkpt>
      <trkpt lat="46.05587" lon="5.85657">
        <ele>524</ele>
        <time>2022-09-26T13:52:13Z</time>
      </trkpt>
      <trkpt lat="46.05591" lon="5.85652">
        <ele>523.8</ele>
        <time>2022-09-26T13:52:14Z</time>
      </trkpt>
      <trkpt lat="46.05596" lon="5.85647">
        <ele>523.5</ele>
        <time>2022-09-26T13:52:15Z</time>
      </trkpt>
      <trkpt lat="46.056" lon="5.85645">
        <ele>523.3</ele>
        <time>2022-09-26T13:52:16Z</time>
      </trkpt>
      <trkpt lat="46.05604" lon="5.85639">
        <ele>523.1</ele>
        <time>2022-09-26T13:52:17Z</time>
      </trkpt>
      <trkpt lat="46.05608" lon="5.85635">
        <ele>522.9</ele>
        <time>2022-09-26T13:52:18Z</time>
      </trkpt>
      <trkpt lat="46.05612" lon="5.8563">
        <ele>522.7</ele>
        <time>2022-09-26T13:52:19Z</time>
      </trkpt>
      <trkpt lat="46.05616" lon="5.85625">
        <ele>522.5</ele>
        <time>2022-09-26T13:52:20Z</time>
      </trkpt>
      <trkpt lat="46.0562" lon="5.8562">
        <ele>522.3</ele>
        <time>2022-09-26T13:52:21Z</time>
      </trkpt>
      <trkpt lat="46.05624" lon="5.85616">
        <ele>522.1</ele>
        <time>2022-09-26T13:52:22Z</time>
      </trkpt>
      <trkpt lat="46.05629" lon="5.85611">
        <ele>521.8</ele>
        <time>2022-09-26T13:52:23Z</time>
      </trkpt>
      <trkpt lat="46.05633" lon="5.85606">
        <ele>521.6</ele>
        <time>2022-09-26T13:52:24Z</time>
      </trkpt>
      <trkpt lat="46.05637" lon="5.856">
        <ele>521.4</ele>
        <time>2022-09-26T13:52:25Z</time>
      </trkpt>
      <trkpt lat="46.05642" lon="5.85595">
        <ele>521.2</ele>
        <time>2022-09-26T13:52:26Z</time>
      </trkpt>
      <trkpt lat="46.05646" lon="5.8559">
        <ele>521.1</ele>
        <time>2022-09-26T13:52:27Z</time>
      </trkpt>
      <trkpt lat="46.0565" lon="5.85585">
        <ele>520.9</ele>
        <time>2022-09-26T13:52:29Z</time>
      </trkpt>
      <trkpt lat="46.05655" lon="5.8558">
        <ele>520.7</ele>
        <time>2022-09-26T13:52:30Z</time>
      </trkpt>
      <trkpt lat="46.05659" lon="5.85575">
        <ele>520.5</ele>
        <time>2022-09-26T13:52:31Z</time>
      </trkpt>
      <trkpt lat="46.05664" lon="5.85571">
        <ele>520.3</ele>
        <time>2022-09-26T13:52:32Z</time>
      </trkpt>
      <trkpt lat="46.05669" lon="5.85565">
        <ele>520</ele>
        <time>2022-09-26T13:52:33Z</time>
      </trkpt>
      <trkpt lat="46.05673" lon="5.8556">
        <ele>519.8</ele>
        <time>2022-09-26T13:52:34Z</time>
      </trkpt>
      <trkpt lat="46.05678" lon="5.85556">
        <ele>519.6</ele>
        <time>2022-09-26T13:52:35Z</time>
      </trkpt>
      <trkpt lat="46.05682" lon="5.85552">
        <ele>519.4</ele>
        <time>2022-09-26T13:52:36Z</time>
      </trkpt>
      <trkpt lat="46.05687" lon="5.85548">
        <ele>519.1</ele>
        <time>2022-09-26T13:52:37Z</time>
      </trkpt>
      <trkpt lat="46.05692" lon="5.85545">
        <ele>518.9</ele>
        <time>2022-09-26T13:52:38Z</time>
      </trkpt>
      <trkpt lat="46.05697" lon="5.85542">
        <ele>518.6</ele>
        <time>2022-09-26T13:52:39Z</time>
      </trkpt>
      <trkpt lat="46.05702" lon="5.85541">
        <ele>518.4</ele>
        <time>2022-09-26T13:52:40Z</time>
      </trkpt>
      <trkpt lat="46.05707" lon="5.85539">
        <ele>518.2</ele>
        <time>2022-09-26T13:52:41Z</time>
      </trkpt>
      <trkpt lat="46.05712" lon="5.85536">
        <ele>517.9</ele>
        <time>2022-09-26T13:52:42Z</time>
      </trkpt>
      <trkpt lat="46.05719" lon="5.85534">
        <ele>517.7</ele>
        <time>2022-09-26T13:52:43Z</time>
      </trkpt>
      <trkpt lat="46.05724" lon="5.85533">
        <ele>517.5</ele>
        <time>2022-09-26T13:52:44Z</time>
      </trkpt>
      <trkpt lat="46.0573" lon="5.85533">
        <ele>517.3</ele>
        <time>2022-09-26T13:52:45Z</time>
      </trkpt>
      <trkpt lat="46.05736" lon="5.85534">
        <ele>517.2</ele>
        <time>2022-09-26T13:52:46Z</time>
      </trkpt>
      <trkpt lat="46.05742" lon="5.85534">
        <ele>517</ele>
        <time>2022-09-26T13:52:47Z</time>
      </trkpt>
      <trkpt lat="46.05747" lon="5.85536">
        <ele>516.9</ele>
        <time>2022-09-26T13:52:48Z</time>
      </trkpt>
      <trkpt lat="46.05753" lon="5.85536">
        <ele>516.8</ele>
        <time>2022-09-26T13:52:49Z</time>
      </trkpt>
      <trkpt lat="46.05763" lon="5.8554">
        <ele>516.5</ele>
        <time>2022-09-26T13:52:50Z</time>
      </trkpt>
      <trkpt lat="46.05768" lon="5.85542">
        <ele>516.4</ele>
        <time>2022-09-26T13:52:51Z</time>
      </trkpt>
      <trkpt lat="46.05774" lon="5.85543">
        <ele>516.2</ele>
        <time>2022-09-26T13:52:52Z</time>
      </trkpt>
      <trkpt lat="46.05781" lon="5.85544">
        <ele>516</ele>
        <time>2022-09-26T13:52:53Z</time>
      </trkpt>
      <trkpt lat="46.05786" lon="5.85547">
        <ele>515.9</ele>
        <time>2022-09-26T13:52:54Z</time>
      </trkpt>
      <trkpt lat="46.05791" lon="5.85548">
        <ele>515.7</ele>
        <time>2022-09-26T13:52:55Z</time>
      </trkpt>
      <trkpt lat="46.05797" lon="5.8555">
        <ele>515.6</ele>
        <time>2022-09-26T13:52:56Z</time>
      </trkpt>
      <trkpt lat="46.05804" lon="5.85551">
        <ele>515.4</ele>
        <time>2022-09-26T13:52:57Z</time>
      </trkpt>
      <trkpt lat="46.05811" lon="5.85555">
        <ele>515.1</ele>
        <time>2022-09-26T13:52:58Z</time>
      </trkpt>
      <trkpt lat="46.05816" lon="5.85556">
        <ele>515</ele>
        <time>2022-09-26T13:52:59Z</time>
      </trkpt>
      <trkpt lat="46.05822" lon="5.85559">
        <ele>514.8</ele>
        <time>2022-09-26T13:53:00Z</time>
      </trkpt>
      <trkpt lat="46.05828" lon="5.85561">
        <ele>514.6</ele>
        <time>2022-09-26T13:53:01Z</time>
      </trkpt>
      <trkpt lat="46.05834" lon="5.85562">
        <ele>514.5</ele>
        <time>2022-09-26T13:53:02Z</time>
      </trkpt>
      <trkpt lat="46.05841" lon="5.85565">
        <ele>514.3</ele>
        <time>2022-09-26T13:53:03Z</time>
      </trkpt>
      <trkpt lat="46.05846" lon="5.85566">
        <ele>514.2</ele>
        <time>2022-09-26T13:53:04Z</time>
      </trkpt>
      <trkpt lat="46.05852" lon="5.85568">
        <ele>514.1</ele>
        <time>2022-09-26T13:53:05Z</time>
      </trkpt>
      <trkpt lat="46.05859" lon="5.85569">
        <ele>513.9</ele>
        <time>2022-09-26T13:53:06Z</time>
      </trkpt>
      <trkpt lat="46.05865" lon="5.85571">
        <ele>513.8</ele>
        <time>2022-09-26T13:53:07Z</time>
      </trkpt>
      <trkpt lat="46.05871" lon="5.85573">
        <ele>513.7</ele>
        <time>2022-09-26T13:53:08Z</time>
      </trkpt>
      <trkpt lat="46.05877" lon="5.85574">
        <ele>513.6</ele>
        <time>2022-09-26T13:53:09Z</time>
      </trkpt>
      <trkpt lat="46.05883" lon="5.85576">
        <ele>513.5</ele>
        <time>2022-09-26T13:53:10Z</time>
      </trkpt>
      <trkpt lat="46.05889" lon="5.85578">
        <ele>513.4</ele>
        <time>2022-09-26T13:53:11Z</time>
      </trkpt>
      <trkpt lat="46.05895" lon="5.8558">
        <ele>513.3</ele>
        <time>2022-09-26T13:53:12Z</time>
      </trkpt>
      <trkpt lat="46.05901" lon="5.85581">
        <ele>513.2</ele>
        <time>2022-09-26T13:53:13Z</time>
      </trkpt>
      <trkpt lat="46.05907" lon="5.85582">
        <ele>513.1</ele>
        <time>2022-09-26T13:53:14Z</time>
      </trkpt>
      <trkpt lat="46.05913" lon="5.85583">
        <ele>513</ele>
        <time>2022-09-26T13:53:15Z</time>
      </trkpt>
      <trkpt lat="46.05919" lon="5.85584">
        <ele>512.9</ele>
        <time>2022-09-26T13:53:16Z</time>
      </trkpt>
      <trkpt lat="46.05924" lon="5.85586">
        <ele>512.9</ele>
        <time>2022-09-26T13:53:17Z</time>
      </trkpt>
      <trkpt lat="46.05929" lon="5.85588">
        <ele>512.8</ele>
        <time>2022-09-26T13:53:18Z</time>
      </trkpt>
      <trkpt lat="46.05935" lon="5.85589">
        <ele>512.7</ele>
        <time>2022-09-26T13:53:19Z</time>
      </trkpt>
      <trkpt lat="46.0594" lon="5.85591">
        <ele>512.6</ele>
        <time>2022-09-26T13:53:20Z</time>
      </trkpt>
      <trkpt lat="46.05946" lon="5.85593">
        <ele>512.5</ele>
        <time>2022-09-26T13:53:21Z</time>
      </trkpt>
      <trkpt lat="46.05951" lon="5.85594">
        <ele>512.5</ele>
        <time>2022-09-26T13:53:22Z</time>
      </trkpt>
      <trkpt lat="46.05956" lon="5.85595">
        <ele>512.4</ele>
        <time>2022-09-26T13:53:23Z</time>
      </trkpt>
      <trkpt lat="46.05962" lon="5.85597">
        <ele>512.2</ele>
        <time>2022-09-26T13:53:24Z</time>
      </trkpt>
      <trkpt lat="46.05967" lon="5.85599">
        <ele>512.1</ele>
        <time>2022-09-26T13:53:25Z</time>
      </trkpt>
      <trkpt lat="46.05972" lon="5.85601">
        <ele>512</ele>
        <time>2022-09-26T13:53:26Z</time>
      </trkpt>
      <trkpt lat="46.05977" lon="5.85601">
        <ele>511.9</ele>
        <time>2022-09-26T13:53:27Z</time>
      </trkpt>
      <trkpt lat="46.05982" lon="5.85602">
        <ele>511.9</ele>
        <time>2022-09-26T13:53:28Z</time>
      </trkpt>
      <trkpt lat="46.05987" lon="5.85605">
        <ele>511.8</ele>
        <time>2022-09-26T13:53:29Z</time>
      </trkpt>
      <trkpt lat="46.05992" lon="5.85606">
        <ele>511.7</ele>
        <time>2022-09-26T13:53:30Z</time>
      </trkpt>
      <trkpt lat="46.05998" lon="5.85608">
        <ele>511.6</ele>
        <time>2022-09-26T13:53:31Z</time>
      </trkpt>
      <trkpt lat="46.06003" lon="5.85609">
        <ele>511.5</ele>
        <time>2022-09-26T13:53:32Z</time>
      </trkpt>
      <trkpt lat="46.06008" lon="5.85611">
        <ele>511.5</ele>
        <time>2022-09-26T13:53:33Z</time>
      </trkpt>
      <trkpt lat="46.06013" lon="5.85613">
        <ele>511.4</ele>
        <time>2022-09-26T13:53:34Z</time>
      </trkpt>
      <trkpt lat="46.06018" lon="5.85615">
        <ele>511.3</ele>
        <time>2022-09-26T13:53:35Z</time>
      </trkpt>
      <trkpt lat="46.06022" lon="5.85618">
        <ele>511.2</ele>
        <time>2022-09-26T13:53:36Z</time>
      </trkpt>
      <trkpt lat="46.06027" lon="5.85622">
        <ele>511.2</ele>
        <time>2022-09-26T13:53:37Z</time>
      </trkpt>
      <trkpt lat="46.06033" lon="5.85624">
        <ele>511.2</ele>
        <time>2022-09-26T13:53:38Z</time>
      </trkpt>
      <trkpt lat="46.06038" lon="5.85627">
        <ele>511.1</ele>
        <time>2022-09-26T13:53:39Z</time>
      </trkpt>
      <trkpt lat="46.06042" lon="5.85631">
        <ele>511</ele>
        <time>2022-09-26T13:53:40Z</time>
      </trkpt>
      <trkpt lat="46.06047" lon="5.85635">
        <ele>510.9</ele>
        <time>2022-09-26T13:53:41Z</time>
      </trkpt>
      <trkpt lat="46.06051" lon="5.85639">
        <ele>510.9</ele>
        <time>2022-09-26T13:53:42Z</time>
      </trkpt>
      <trkpt lat="46.06056" lon="5.85644">
        <ele>510.9</ele>
        <time>2022-09-26T13:53:43Z</time>
      </trkpt>
      <trkpt lat="46.0606" lon="5.85649">
        <ele>510.8</ele>
        <time>2022-09-26T13:53:44Z</time>
      </trkpt>
      <trkpt lat="46.06063" lon="5.85654">
        <ele>510.8</ele>
        <time>2022-09-26T13:53:45Z</time>
      </trkpt>
      <trkpt lat="46.06067" lon="5.8566">
        <ele>510.9</ele>
        <time>2022-09-26T13:53:46Z</time>
      </trkpt>
      <trkpt lat="46.06072" lon="5.85666">
        <ele>510.9</ele>
        <time>2022-09-26T13:53:47Z</time>
      </trkpt>
      <trkpt lat="46.06075" lon="5.85672">
        <ele>510.9</ele>
        <time>2022-09-26T13:53:48Z</time>
      </trkpt>
      <trkpt lat="46.06078" lon="5.85678">
        <ele>510.9</ele>
        <time>2022-09-26T13:53:49Z</time>
      </trkpt>
      <trkpt lat="46.06081" lon="5.85684">
        <ele>511</ele>
        <time>2022-09-26T13:53:50Z</time>
      </trkpt>
      <trkpt lat="46.06084" lon="5.85689">
        <ele>511</ele>
        <time>2022-09-26T13:53:51Z</time>
      </trkpt>
      <trkpt lat="46.06086" lon="5.85695">
        <ele>511.1</ele>
        <time>2022-09-26T13:53:52Z</time>
      </trkpt>
      <trkpt lat="46.06087" lon="5.85701">
        <ele>511.1</ele>
        <time>2022-09-26T13:53:53Z</time>
      </trkpt>
      <trkpt lat="46.06089" lon="5.85707">
        <ele>511.1</ele>
        <time>2022-09-26T13:53:54Z</time>
      </trkpt>
      <trkpt lat="46.0609" lon="5.85714">
        <ele>511.2</ele>
        <time>2022-09-26T13:53:55Z</time>
      </trkpt>
      <trkpt lat="46.06092" lon="5.85719">
        <ele>511.2</ele>
        <time>2022-09-26T13:53:56Z</time>
      </trkpt>
      <trkpt lat="46.06092" lon="5.85725">
        <ele>511.2</ele>
        <time>2022-09-26T13:53:57Z</time>
      </trkpt>
      <trkpt lat="46.06093" lon="5.8573">
        <ele>511.3</ele>
        <time>2022-09-26T13:53:58Z</time>
      </trkpt>
      <trkpt lat="46.06094" lon="5.85736">
        <ele>511.3</ele>
        <time>2022-09-26T13:53:59Z</time>
      </trkpt>
      <trkpt lat="46.06094" lon="5.85742">
        <ele>511.4</ele>
        <time>2022-09-26T13:54:00Z</time>
      </trkpt>
      <trkpt lat="46.06095" lon="5.85746">
        <ele>511.4</ele>
        <time>2022-09-26T13:54:01Z</time>
      </trkpt>
      <trkpt lat="46.06095" lon="5.85752">
        <ele>511.5</ele>
        <time>2022-09-26T13:54:02Z</time>
      </trkpt>
      <trkpt lat="46.06095" lon="5.85757">
        <ele>511.5</ele>
        <time>2022-09-26T13:54:03Z</time>
      </trkpt>
      <trkpt lat="46.06096" lon="5.85761">
        <ele>511.5</ele>
        <time>2022-09-26T13:54:04Z</time>
      </trkpt>
      <trkpt lat="46.06096" lon="5.85767">
        <ele>511.6</ele>
        <time>2022-09-26T13:54:05Z</time>
      </trkpt>
      <trkpt lat="46.06096" lon="5.85772">
        <ele>511.6</ele>
        <time>2022-09-26T13:54:06Z</time>
      </trkpt>
      <trkpt lat="46.06096" lon="5.85776">
        <ele>511.7</ele>
        <time>2022-09-26T13:54:07Z</time>
      </trkpt>
      <trkpt lat="46.06095" lon="5.85782">
        <ele>511.7</ele>
        <time>2022-09-26T13:54:08Z</time>
      </trkpt>
      <trkpt lat="46.06096" lon="5.85787">
        <ele>511.8</ele>
        <time>2022-09-26T13:54:09Z</time>
      </trkpt>
      <trkpt lat="46.06097" lon="5.85792">
        <ele>511.8</ele>
        <time>2022-09-26T13:54:10Z</time>
      </trkpt>
      <trkpt lat="46.06097" lon="5.85798">
        <ele>511.9</ele>
        <time>2022-09-26T13:54:11Z</time>
      </trkpt>
      <trkpt lat="46.06097" lon="5.85804">
        <ele>511.9</ele>
        <time>2022-09-26T13:54:12Z</time>
      </trkpt>
      <trkpt lat="46.06098" lon="5.85809">
        <ele>512</ele>
        <time>2022-09-26T13:54:13Z</time>
      </trkpt>
      <trkpt lat="46.06098" lon="5.85814">
        <ele>512</ele>
        <time>2022-09-26T13:54:14Z</time>
      </trkpt>
      <trkpt lat="46.06099" lon="5.85819">
        <ele>512.1</ele>
        <time>2022-09-26T13:54:15Z</time>
      </trkpt>
      <trkpt lat="46.06099" lon="5.85824">
        <ele>512.1</ele>
        <time>2022-09-26T13:54:16Z</time>
      </trkpt>
      <trkpt lat="46.06099" lon="5.8583">
        <ele>512.1</ele>
        <time>2022-09-26T13:54:17Z</time>
      </trkpt>
      <trkpt lat="46.06099" lon="5.85835">
        <ele>512.2</ele>
        <time>2022-09-26T13:54:18Z</time>
      </trkpt>
      <trkpt lat="46.061" lon="5.85839">
        <ele>512.2</ele>
        <time>2022-09-26T13:54:19Z</time>
      </trkpt>
      <trkpt lat="46.061" lon="5.85844">
        <ele>512.3</ele>
        <time>2022-09-26T13:54:20Z</time>
      </trkpt>
      <trkpt lat="46.061" lon="5.85849">
        <ele>512.4</ele>
        <time>2022-09-26T13:54:21Z</time>
      </trkpt>
      <trkpt lat="46.06101" lon="5.85854">
        <ele>512.4</ele>
        <time>2022-09-26T13:54:22Z</time>
      </trkpt>
      <trkpt lat="46.06101" lon="5.85859">
        <ele>512.5</ele>
        <time>2022-09-26T13:54:23Z</time>
      </trkpt>
      <trkpt lat="46.06101" lon="5.85861">
        <ele>512.5</ele>
        <time>2022-09-26T13:54:24Z</time>
      </trkpt>
      <trkpt lat="46.06102" lon="5.85866">
        <ele>512.6</ele>
        <time>2022-09-26T13:54:25Z</time>
      </trkpt>
      <trkpt lat="46.06103" lon="5.85868">
        <ele>512.6</ele>
        <time>2022-09-26T13:54:26Z</time>
      </trkpt>
      <trkpt lat="46.06102" lon="5.85873">
        <ele>512.7</ele>
        <time>2022-09-26T13:54:27Z</time>
      </trkpt>
      <trkpt lat="46.06102" lon="5.85876">
        <ele>512.7</ele>
        <time>2022-09-26T13:54:28Z</time>
      </trkpt>
      <trkpt lat="46.06103" lon="5.8588">
        <ele>512.7</ele>
        <time>2022-09-26T13:54:29Z</time>
      </trkpt>
      <trkpt lat="46.06104" lon="5.85886">
        <ele>512.8</ele>
        <time>2022-09-26T13:54:30Z</time>
      </trkpt>
      <trkpt lat="46.06104" lon="5.85888">
        <ele>512.8</ele>
        <time>2022-09-26T13:54:31Z</time>
      </trkpt>
      <trkpt lat="46.06105" lon="5.85893">
        <ele>512.9</ele>
        <time>2022-09-26T13:54:32Z</time>
      </trkpt>
      <trkpt lat="46.06105" lon="5.85895">
        <ele>512.9</ele>
        <time>2022-09-26T13:54:33Z</time>
      </trkpt>
      <trkpt lat="46.06106" lon="5.85901">
        <ele>513</ele>
        <time>2022-09-26T13:54:35Z</time>
      </trkpt>
      <trkpt lat="46.06105" lon="5.85908">
        <ele>513.1</ele>
        <time>2022-09-26T13:54:36Z</time>
      </trkpt>
      <trkpt lat="46.06105" lon="5.85912">
        <ele>513.2</ele>
        <time>2022-09-26T13:54:37Z</time>
      </trkpt>
      <trkpt lat="46.06106" lon="5.85916">
        <ele>513.2</ele>
        <time>2022-09-26T13:54:38Z</time>
      </trkpt>
      <trkpt lat="46.06106" lon="5.85921">
        <ele>513.3</ele>
        <time>2022-09-26T13:54:39Z</time>
      </trkpt>
      <trkpt lat="46.06106" lon="5.85927">
        <ele>513.4</ele>
        <time>2022-09-26T13:54:40Z</time>
      </trkpt>
      <trkpt lat="46.06106" lon="5.85931">
        <ele>513.4</ele>
        <time>2022-09-26T13:54:41Z</time>
      </trkpt>
      <trkpt lat="46.06107" lon="5.85936">
        <ele>513.5</ele>
        <time>2022-09-26T13:54:42Z</time>
      </trkpt>
      <trkpt lat="46.06107" lon="5.85941">
        <ele>513.5</ele>
        <time>2022-09-26T13:54:43Z</time>
      </trkpt>
      <trkpt lat="46.06107" lon="5.85946">
        <ele>513.6</ele>
        <time>2022-09-26T13:54:44Z</time>
      </trkpt>
      <trkpt lat="46.06108" lon="5.85951">
        <ele>513.7</ele>
        <time>2022-09-26T13:54:45Z</time>
      </trkpt>
      <trkpt lat="46.06109" lon="5.85956">
        <ele>513.7</ele>
        <time>2022-09-26T13:54:46Z</time>
      </trkpt>
      <trkpt lat="46.06109" lon="5.85962">
        <ele>513.8</ele>
        <time>2022-09-26T13:54:47Z</time>
      </trkpt>
      <trkpt lat="46.0611" lon="5.85967">
        <ele>513.9</ele>
        <time>2022-09-26T13:54:48Z</time>
      </trkpt>
      <trkpt lat="46.0611" lon="5.8597">
        <ele>513.9</ele>
        <time>2022-09-26T13:54:49Z</time>
      </trkpt>
      <trkpt lat="46.0611" lon="5.85975">
        <ele>514</ele>
        <time>2022-09-26T13:54:50Z</time>
      </trkpt>
      <trkpt lat="46.0611" lon="5.8598">
        <ele>514</ele>
        <time>2022-09-26T13:54:51Z</time>
      </trkpt>
      <trkpt lat="46.0611" lon="5.85984">
        <ele>514.1</ele>
        <time>2022-09-26T13:54:52Z</time>
      </trkpt>
      <trkpt lat="46.06111" lon="5.85989">
        <ele>514.1</ele>
        <time>2022-09-26T13:54:53Z</time>
      </trkpt>
      <trkpt lat="46.06111" lon="5.86">
        <ele>514.2</ele>
        <time>2022-09-26T13:54:54Z</time>
      </trkpt>
      <trkpt lat="46.06111" lon="5.86004">
        <ele>514.2</ele>
        <time>2022-09-26T13:54:55Z</time>
      </trkpt>
      <trkpt lat="46.06111" lon="5.8601">
        <ele>514.3</ele>
        <time>2022-09-26T13:54:56Z</time>
      </trkpt>
      <trkpt lat="46.06111" lon="5.86013">
        <ele>514.3</ele>
        <time>2022-09-26T13:54:57Z</time>
      </trkpt>
      <trkpt lat="46.06111" lon="5.86017">
        <ele>514.4</ele>
        <time>2022-09-26T13:54:58Z</time>
      </trkpt>
      <trkpt lat="46.06111" lon="5.86019">
        <ele>514.4</ele>
        <time>2022-09-26T13:54:59Z</time>
      </trkpt>
      <trkpt lat="46.06112" lon="5.86028">
        <ele>514.4</ele>
        <time>2022-09-26T13:55:00Z</time>
      </trkpt>
      <trkpt lat="46.06113" lon="5.86035">
        <ele>514.5</ele>
        <time>2022-09-26T13:55:01Z</time>
      </trkpt>
      <trkpt lat="46.06114" lon="5.8604">
        <ele>514.5</ele>
        <time>2022-09-26T13:55:02Z</time>
      </trkpt>
      <trkpt lat="46.06115" lon="5.86045">
        <ele>514.6</ele>
        <time>2022-09-26T13:55:03Z</time>
      </trkpt>
      <trkpt lat="46.06112" lon="5.86054">
        <ele>514.7</ele>
        <time>2022-09-26T13:55:04Z</time>
      </trkpt>
      <trkpt lat="46.06114" lon="5.86061">
        <ele>514.8</ele>
        <time>2022-09-26T13:55:05Z</time>
      </trkpt>
      <trkpt lat="46.06114" lon="5.86068">
        <ele>514.8</ele>
        <time>2022-09-26T13:55:06Z</time>
      </trkpt>
      <trkpt lat="46.06114" lon="5.86074">
        <ele>514.9</ele>
        <time>2022-09-26T13:55:07Z</time>
      </trkpt>
      <trkpt lat="46.06114" lon="5.86081">
        <ele>515</ele>
        <time>2022-09-26T13:55:08Z</time>
      </trkpt>
      <trkpt lat="46.06114" lon="5.86088">
        <ele>515.1</ele>
        <time>2022-09-26T13:55:09Z</time>
      </trkpt>
      <trkpt lat="46.06114" lon="5.86092">
        <ele>515.1</ele>
        <time>2022-09-26T13:55:10Z</time>
      </trkpt>
      <trkpt lat="46.06115" lon="5.86097">
        <ele>515.2</ele>
        <time>2022-09-26T13:55:11Z</time>
      </trkpt>
      <trkpt lat="46.06115" lon="5.86103">
        <ele>515.2</ele>
        <time>2022-09-26T13:55:12Z</time>
      </trkpt>
      <trkpt lat="46.06115" lon="5.86109">
        <ele>515.3</ele>
        <time>2022-09-26T13:55:13Z</time>
      </trkpt>
      <trkpt lat="46.06115" lon="5.86115">
        <ele>515.4</ele>
        <time>2022-09-26T13:55:14Z</time>
      </trkpt>
      <trkpt lat="46.06114" lon="5.86121">
        <ele>515.5</ele>
        <time>2022-09-26T13:55:15Z</time>
      </trkpt>
      <trkpt lat="46.06114" lon="5.86127">
        <ele>515.5</ele>
        <time>2022-09-26T13:55:16Z</time>
      </trkpt>
      <trkpt lat="46.06113" lon="5.86132">
        <ele>515.6</ele>
        <time>2022-09-26T13:55:17Z</time>
      </trkpt>
      <trkpt lat="46.06116" lon="5.86135">
        <ele>515.7</ele>
        <time>2022-09-26T13:55:18Z</time>
      </trkpt>
      <trkpt lat="46.06117" lon="5.86139">
        <ele>515.8</ele>
        <time>2022-09-26T13:55:19Z</time>
      </trkpt>
      <trkpt lat="46.06117" lon="5.86144">
        <ele>515.9</ele>
        <time>2022-09-26T13:55:20Z</time>
      </trkpt>
      <trkpt lat="46.06117" lon="5.86149">
        <ele>516</ele>
        <time>2022-09-26T13:55:21Z</time>
      </trkpt>
      <trkpt lat="46.06117" lon="5.86154">
        <ele>516.1</ele>
        <time>2022-09-26T13:55:22Z</time>
      </trkpt>
      <trkpt lat="46.06118" lon="5.86159">
        <ele>516.2</ele>
        <time>2022-09-26T13:55:23Z</time>
      </trkpt>
      <trkpt lat="46.06118" lon="5.86163">
        <ele>516.3</ele>
        <time>2022-09-26T13:55:24Z</time>
      </trkpt>
      <trkpt lat="46.06118" lon="5.86167">
        <ele>516.4</ele>
        <time>2022-09-26T13:55:25Z</time>
      </trkpt>
      <trkpt lat="46.06118" lon="5.86172">
        <ele>516.4</ele>
        <time>2022-09-26T13:55:26Z</time>
      </trkpt>
      <trkpt lat="46.06118" lon="5.86177">
        <ele>516.5</ele>
        <time>2022-09-26T13:55:27Z</time>
      </trkpt>
      <trkpt lat="46.06119" lon="5.86181">
        <ele>516.6</ele>
        <time>2022-09-26T13:55:28Z</time>
      </trkpt>
      <trkpt lat="46.06119" lon="5.86186">
        <ele>516.7</ele>
        <time>2022-09-26T13:55:29Z</time>
      </trkpt>
      <trkpt lat="46.06119" lon="5.86188">
        <ele>516.8</ele>
        <time>2022-09-26T13:55:30Z</time>
      </trkpt>
      <trkpt lat="46.06119" lon="5.86192">
        <ele>516.8</ele>
        <time>2022-09-26T13:55:31Z</time>
      </trkpt>
      <trkpt lat="46.0612" lon="5.86197">
        <ele>516.9</ele>
        <time>2022-09-26T13:55:32Z</time>
      </trkpt>
      <trkpt lat="46.0612" lon="5.86202">
        <ele>517</ele>
        <time>2022-09-26T13:55:33Z</time>
      </trkpt>
      <trkpt lat="46.0612" lon="5.86204">
        <ele>517.1</ele>
        <time>2022-09-26T13:55:34Z</time>
      </trkpt>
      <trkpt lat="46.0612" lon="5.86209">
        <ele>517.1</ele>
        <time>2022-09-26T13:55:35Z</time>
      </trkpt>
      <trkpt lat="46.06121" lon="5.86214">
        <ele>517.2</ele>
        <time>2022-09-26T13:55:36Z</time>
      </trkpt>
      <trkpt lat="46.06122" lon="5.86218">
        <ele>517.3</ele>
        <time>2022-09-26T13:55:37Z</time>
      </trkpt>
      <trkpt lat="46.06123" lon="5.86223">
        <ele>517.3</ele>
        <time>2022-09-26T13:55:38Z</time>
      </trkpt>
      <trkpt lat="46.06123" lon="5.86229">
        <ele>517.4</ele>
        <time>2022-09-26T13:55:39Z</time>
      </trkpt>
      <trkpt lat="46.06123" lon="5.86231">
        <ele>517.4</ele>
        <time>2022-09-26T13:55:40Z</time>
      </trkpt>
      <trkpt lat="46.06123" lon="5.86235">
        <ele>517.5</ele>
        <time>2022-09-26T13:55:41Z</time>
      </trkpt>
      <trkpt lat="46.06124" lon="5.86239">
        <ele>517.5</ele>
        <time>2022-09-26T13:55:42Z</time>
      </trkpt>
      <trkpt lat="46.06124" lon="5.86243">
        <ele>517.6</ele>
        <time>2022-09-26T13:55:43Z</time>
      </trkpt>
      <trkpt lat="46.06125" lon="5.86248">
        <ele>517.6</ele>
        <time>2022-09-26T13:55:44Z</time>
      </trkpt>
      <trkpt lat="46.06126" lon="5.86252">
        <ele>517.7</ele>
        <time>2022-09-26T13:55:45Z</time>
      </trkpt>
      <trkpt lat="46.06126" lon="5.86257">
        <ele>517.7</ele>
        <time>2022-09-26T13:55:46Z</time>
      </trkpt>
      <trkpt lat="46.06125" lon="5.86262">
        <ele>517.8</ele>
        <time>2022-09-26T13:55:47Z</time>
      </trkpt>
      <trkpt lat="46.06126" lon="5.86267">
        <ele>517.8</ele>
        <time>2022-09-26T13:55:48Z</time>
      </trkpt>
      <trkpt lat="46.06126" lon="5.86272">
        <ele>517.9</ele>
        <time>2022-09-26T13:55:49Z</time>
      </trkpt>
      <trkpt lat="46.06126" lon="5.86277">
        <ele>517.9</ele>
        <time>2022-09-26T13:55:50Z</time>
      </trkpt>
      <trkpt lat="46.06126" lon="5.86282">
        <ele>518</ele>
        <time>2022-09-26T13:55:51Z</time>
      </trkpt>
      <trkpt lat="46.06126" lon="5.86288">
        <ele>518.1</ele>
        <time>2022-09-26T13:55:52Z</time>
      </trkpt>
      <trkpt lat="46.06126" lon="5.86293">
        <ele>518.1</ele>
        <time>2022-09-26T13:55:53Z</time>
      </trkpt>
      <trkpt lat="46.06126" lon="5.86297">
        <ele>518.2</ele>
        <time>2022-09-26T13:55:54Z</time>
      </trkpt>
      <trkpt lat="46.06127" lon="5.86302">
        <ele>518.2</ele>
        <time>2022-09-26T13:55:55Z</time>
      </trkpt>
      <trkpt lat="46.06127" lon="5.86307">
        <ele>518.3</ele>
        <time>2022-09-26T13:55:56Z</time>
      </trkpt>
      <trkpt lat="46.06127" lon="5.86312">
        <ele>518.3</ele>
        <time>2022-09-26T13:55:57Z</time>
      </trkpt>
      <trkpt lat="46.06127" lon="5.86318">
        <ele>518.4</ele>
        <time>2022-09-26T13:55:58Z</time>
      </trkpt>
      <trkpt lat="46.06127" lon="5.86323">
        <ele>518.4</ele>
        <time>2022-09-26T13:55:59Z</time>
      </trkpt>
      <trkpt lat="46.06127" lon="5.86327">
        <ele>518.5</ele>
        <time>2022-09-26T13:56:00Z</time>
      </trkpt>
      <trkpt lat="46.06127" lon="5.86334">
        <ele>518.6</ele>
        <time>2022-09-26T13:56:01Z</time>
      </trkpt>
      <trkpt lat="46.06127" lon="5.86339">
        <ele>518.6</ele>
        <time>2022-09-26T13:56:02Z</time>
      </trkpt>
      <trkpt lat="46.06127" lon="5.86345">
        <ele>518.7</ele>
        <time>2022-09-26T13:56:03Z</time>
      </trkpt>
      <trkpt lat="46.06127" lon="5.8635">
        <ele>518.7</ele>
        <time>2022-09-26T13:56:04Z</time>
      </trkpt>
      <trkpt lat="46.06128" lon="5.86356">
        <ele>518.8</ele>
        <time>2022-09-26T13:56:05Z</time>
      </trkpt>
      <trkpt lat="46.06128" lon="5.86362">
        <ele>518.8</ele>
        <time>2022-09-26T13:56:06Z</time>
      </trkpt>
      <trkpt lat="46.06128" lon="5.86368">
        <ele>518.9</ele>
        <time>2022-09-26T13:56:07Z</time>
      </trkpt>
      <trkpt lat="46.06129" lon="5.86373">
        <ele>518.9</ele>
        <time>2022-09-26T13:56:08Z</time>
      </trkpt>
      <trkpt lat="46.06129" lon="5.86379">
        <ele>519</ele>
        <time>2022-09-26T13:56:09Z</time>
      </trkpt>
      <trkpt lat="46.06129" lon="5.86385">
        <ele>519</ele>
        <time>2022-09-26T13:56:10Z</time>
      </trkpt>
      <trkpt lat="46.06129" lon="5.8639">
        <ele>519.1</ele>
        <time>2022-09-26T13:56:11Z</time>
      </trkpt>
      <trkpt lat="46.0613" lon="5.86396">
        <ele>519.1</ele>
        <time>2022-09-26T13:56:12Z</time>
      </trkpt>
      <trkpt lat="46.06129" lon="5.86402">
        <ele>519.1</ele>
        <time>2022-09-26T13:56:13Z</time>
      </trkpt>
      <trkpt lat="46.0613" lon="5.86407">
        <ele>519.2</ele>
        <time>2022-09-26T13:56:14Z</time>
      </trkpt>
      <trkpt lat="46.0613" lon="5.86412">
        <ele>519.2</ele>
        <time>2022-09-26T13:56:15Z</time>
      </trkpt>
      <trkpt lat="46.0613" lon="5.86417">
        <ele>519.2</ele>
        <time>2022-09-26T13:56:16Z</time>
      </trkpt>
      <trkpt lat="46.0613" lon="5.86422">
        <ele>519.3</ele>
        <time>2022-09-26T13:56:17Z</time>
      </trkpt>
      <trkpt lat="46.0613" lon="5.86427">
        <ele>519.3</ele>
        <time>2022-09-26T13:56:18Z</time>
      </trkpt>
      <trkpt lat="46.0613" lon="5.86433">
        <ele>519.3</ele>
        <time>2022-09-26T13:56:19Z</time>
      </trkpt>
      <trkpt lat="46.0613" lon="5.86439">
        <ele>519.4</ele>
        <time>2022-09-26T13:56:20Z</time>
      </trkpt>
      <trkpt lat="46.06131" lon="5.86443">
        <ele>519.4</ele>
        <time>2022-09-26T13:56:21Z</time>
      </trkpt>
      <trkpt lat="46.06131" lon="5.86449">
        <ele>519.4</ele>
        <time>2022-09-26T13:56:22Z</time>
      </trkpt>
      <trkpt lat="46.06132" lon="5.86454">
        <ele>519.5</ele>
        <time>2022-09-26T13:56:23Z</time>
      </trkpt>
      <trkpt lat="46.06132" lon="5.86459">
        <ele>519.5</ele>
        <time>2022-09-26T13:56:24Z</time>
      </trkpt>
      <trkpt lat="46.06131" lon="5.86464">
        <ele>519.5</ele>
        <time>2022-09-26T13:56:25Z</time>
      </trkpt>
      <trkpt lat="46.06131" lon="5.8647">
        <ele>519.6</ele>
        <time>2022-09-26T13:56:26Z</time>
      </trkpt>
      <trkpt lat="46.06131" lon="5.86476">
        <ele>519.6</ele>
        <time>2022-09-26T13:56:27Z</time>
      </trkpt>
      <trkpt lat="46.06131" lon="5.8648">
        <ele>519.6</ele>
        <time>2022-09-26T13:56:28Z</time>
      </trkpt>
      <trkpt lat="46.06131" lon="5.86485">
        <ele>519.6</ele>
        <time>2022-09-26T13:56:29Z</time>
      </trkpt>
      <trkpt lat="46.0613" lon="5.8649">
        <ele>519.6</ele>
        <time>2022-09-26T13:56:30Z</time>
      </trkpt>
      <trkpt lat="46.0613" lon="5.86495">
        <ele>519.7</ele>
        <time>2022-09-26T13:56:31Z</time>
      </trkpt>
      <trkpt lat="46.06129" lon="5.86501">
        <ele>519.7</ele>
        <time>2022-09-26T13:56:32Z</time>
      </trkpt>
      <trkpt lat="46.06128" lon="5.86506">
        <ele>519.7</ele>
        <time>2022-09-26T13:56:33Z</time>
      </trkpt>
      <trkpt lat="46.06126" lon="5.86511">
        <ele>519.7</ele>
        <time>2022-09-26T13:56:34Z</time>
      </trkpt>
      <trkpt lat="46.06125" lon="5.86515">
        <ele>519.7</ele>
        <time>2022-09-26T13:56:35Z</time>
      </trkpt>
      <trkpt lat="46.06125" lon="5.86522">
        <ele>519.6</ele>
        <time>2022-09-26T13:56:36Z</time>
      </trkpt>
      <trkpt lat="46.06125" lon="5.86528">
        <ele>519.6</ele>
        <time>2022-09-26T13:56:37Z</time>
      </trkpt>
      <trkpt lat="46.06127" lon="5.86532">
        <ele>519.6</ele>
        <time>2022-09-26T13:56:38Z</time>
      </trkpt>
      <trkpt lat="46.06129" lon="5.86537">
        <ele>519.6</ele>
        <time>2022-09-26T13:56:39Z</time>
      </trkpt>
      <trkpt lat="46.06132" lon="5.8654">
        <ele>519.6</ele>
        <time>2022-09-26T13:56:41Z</time>
      </trkpt>
      <trkpt lat="46.06136" lon="5.86543">
        <ele>519.6</ele>
        <time>2022-09-26T13:56:42Z</time>
      </trkpt>
      <trkpt lat="46.06139" lon="5.86546">
        <ele>519.5</ele>
        <time>2022-09-26T13:56:43Z</time>
      </trkpt>
      <trkpt lat="46.06142" lon="5.8655">
        <ele>519.5</ele>
        <time>2022-09-26T13:56:44Z</time>
      </trkpt>
      <trkpt lat="46.06144" lon="5.86555">
        <ele>519.5</ele>
        <time>2022-09-26T13:56:45Z</time>
      </trkpt>
      <trkpt lat="46.06146" lon="5.8656">
        <ele>519.5</ele>
        <time>2022-09-26T13:56:46Z</time>
      </trkpt>
      <trkpt lat="46.06146" lon="5.86566">
        <ele>519.4</ele>
        <time>2022-09-26T13:56:47Z</time>
      </trkpt>
      <trkpt lat="46.06146" lon="5.86572">
        <ele>519.4</ele>
        <time>2022-09-26T13:56:48Z</time>
      </trkpt>
      <trkpt lat="46.06145" lon="5.86585">
        <ele>519.3</ele>
        <time>2022-09-26T13:56:49Z</time>
      </trkpt>
      <trkpt lat="46.06144" lon="5.86591">
        <ele>519.3</ele>
        <time>2022-09-26T13:56:50Z</time>
      </trkpt>
      <trkpt lat="46.06143" lon="5.86598">
        <ele>519.2</ele>
        <time>2022-09-26T13:56:51Z</time>
      </trkpt>
      <trkpt lat="46.06143" lon="5.86605">
        <ele>519.2</ele>
        <time>2022-09-26T13:56:52Z</time>
      </trkpt>
      <trkpt lat="46.06142" lon="5.86612">
        <ele>519.1</ele>
        <time>2022-09-26T13:56:53Z</time>
      </trkpt>
      <trkpt lat="46.06142" lon="5.86618">
        <ele>519.1</ele>
        <time>2022-09-26T13:56:54Z</time>
      </trkpt>
      <trkpt lat="46.06142" lon="5.86625">
        <ele>519</ele>
        <time>2022-09-26T13:56:55Z</time>
      </trkpt>
      <trkpt lat="46.06142" lon="5.86632">
        <ele>519</ele>
        <time>2022-09-26T13:56:56Z</time>
      </trkpt>
      <trkpt lat="46.06142" lon="5.8664">
        <ele>518.9</ele>
        <time>2022-09-26T13:56:57Z</time>
      </trkpt>
      <trkpt lat="46.06142" lon="5.86647">
        <ele>518.9</ele>
        <time>2022-09-26T13:56:58Z</time>
      </trkpt>
      <trkpt lat="46.06143" lon="5.86654">
        <ele>518.9</ele>
        <time>2022-09-26T13:56:59Z</time>
      </trkpt>
      <trkpt lat="46.06143" lon="5.86662">
        <ele>518.9</ele>
        <time>2022-09-26T13:57:00Z</time>
      </trkpt>
      <trkpt lat="46.06144" lon="5.86669">
        <ele>518.9</ele>
        <time>2022-09-26T13:57:01Z</time>
      </trkpt>
      <trkpt lat="46.06144" lon="5.86677">
        <ele>518.9</ele>
        <time>2022-09-26T13:57:02Z</time>
      </trkpt>
      <trkpt lat="46.06145" lon="5.86684">
        <ele>518.9</ele>
        <time>2022-09-26T13:57:03Z</time>
      </trkpt>
      <trkpt lat="46.06145" lon="5.86692">
        <ele>518.9</ele>
        <time>2022-09-26T13:57:04Z</time>
      </trkpt>
      <trkpt lat="46.06145" lon="5.86699">
        <ele>518.9</ele>
        <time>2022-09-26T13:57:05Z</time>
      </trkpt>
      <trkpt lat="46.06146" lon="5.86706">
        <ele>518.9</ele>
        <time>2022-09-26T13:57:06Z</time>
      </trkpt>
      <trkpt lat="46.06146" lon="5.86714">
        <ele>518.9</ele>
        <time>2022-09-26T13:57:07Z</time>
      </trkpt>
      <trkpt lat="46.06147" lon="5.86721">
        <ele>518.9</ele>
        <time>2022-09-26T13:57:08Z</time>
      </trkpt>
      <trkpt lat="46.06147" lon="5.86728">
        <ele>518.9</ele>
        <time>2022-09-26T13:57:09Z</time>
      </trkpt>
      <trkpt lat="46.06148" lon="5.86735">
        <ele>519</ele>
        <time>2022-09-26T13:57:10Z</time>
      </trkpt>
      <trkpt lat="46.06148" lon="5.86742">
        <ele>519</ele>
        <time>2022-09-26T13:57:11Z</time>
      </trkpt>
      <trkpt lat="46.06148" lon="5.8675">
        <ele>519</ele>
        <time>2022-09-26T13:57:12Z</time>
      </trkpt>
      <trkpt lat="46.06149" lon="5.86757">
        <ele>519.1</ele>
        <time>2022-09-26T13:57:13Z</time>
      </trkpt>
      <trkpt lat="46.06149" lon="5.86765">
        <ele>519.1</ele>
        <time>2022-09-26T13:57:14Z</time>
      </trkpt>
      <trkpt lat="46.0615" lon="5.86771">
        <ele>519.1</ele>
        <time>2022-09-26T13:57:15Z</time>
      </trkpt>
      <trkpt lat="46.06151" lon="5.86779">
        <ele>519.1</ele>
        <time>2022-09-26T13:57:16Z</time>
      </trkpt>
      <trkpt lat="46.06151" lon="5.86786">
        <ele>519.1</ele>
        <time>2022-09-26T13:57:17Z</time>
      </trkpt>
      <trkpt lat="46.06151" lon="5.86793">
        <ele>519.2</ele>
        <time>2022-09-26T13:57:18Z</time>
      </trkpt>
      <trkpt lat="46.06151" lon="5.86801">
        <ele>519.2</ele>
        <time>2022-09-26T13:57:19Z</time>
      </trkpt>
      <trkpt lat="46.06152" lon="5.86808">
        <ele>519.2</ele>
        <time>2022-09-26T13:57:20Z</time>
      </trkpt>
      <trkpt lat="46.06152" lon="5.86815">
        <ele>519.2</ele>
        <time>2022-09-26T13:57:21Z</time>
      </trkpt>
      <trkpt lat="46.06153" lon="5.86823">
        <ele>519.2</ele>
        <time>2022-09-26T13:57:22Z</time>
      </trkpt>
      <trkpt lat="46.06153" lon="5.86831">
        <ele>519.3</ele>
        <time>2022-09-26T13:57:23Z</time>
      </trkpt>
      <trkpt lat="46.06153" lon="5.86838">
        <ele>519.3</ele>
        <time>2022-09-26T13:57:24Z</time>
      </trkpt>
      <trkpt lat="46.06153" lon="5.86845">
        <ele>519.3</ele>
        <time>2022-09-26T13:57:25Z</time>
      </trkpt>
      <trkpt lat="46.06154" lon="5.86852">
        <ele>519.3</ele>
        <time>2022-09-26T13:57:26Z</time>
      </trkpt>
      <trkpt lat="46.06155" lon="5.86859">
        <ele>519.4</ele>
        <time>2022-09-26T13:57:27Z</time>
      </trkpt>
      <trkpt lat="46.06155" lon="5.86867">
        <ele>519.4</ele>
        <time>2022-09-26T13:57:28Z</time>
      </trkpt>
      <trkpt lat="46.06156" lon="5.86874">
        <ele>519.4</ele>
        <time>2022-09-26T13:57:29Z</time>
      </trkpt>
      <trkpt lat="46.06156" lon="5.86882">
        <ele>519.4</ele>
        <time>2022-09-26T13:57:30Z</time>
      </trkpt>
      <trkpt lat="46.06156" lon="5.86888">
        <ele>519.4</ele>
        <time>2022-09-26T13:57:31Z</time>
      </trkpt>
      <trkpt lat="46.06157" lon="5.86897">
        <ele>519.5</ele>
        <time>2022-09-26T13:57:32Z</time>
      </trkpt>
      <trkpt lat="46.06157" lon="5.86904">
        <ele>519.5</ele>
        <time>2022-09-26T13:57:33Z</time>
      </trkpt>
      <trkpt lat="46.06158" lon="5.86911">
        <ele>519.5</ele>
        <time>2022-09-26T13:57:34Z</time>
      </trkpt>
      <trkpt lat="46.06158" lon="5.86918">
        <ele>519.5</ele>
        <time>2022-09-26T13:57:35Z</time>
      </trkpt>
      <trkpt lat="46.06159" lon="5.86926">
        <ele>519.6</ele>
        <time>2022-09-26T13:57:36Z</time>
      </trkpt>
      <trkpt lat="46.06159" lon="5.86933">
        <ele>519.6</ele>
        <time>2022-09-26T13:57:37Z</time>
      </trkpt>
      <trkpt lat="46.0616" lon="5.8694">
        <ele>519.6</ele>
        <time>2022-09-26T13:57:38Z</time>
      </trkpt>
      <trkpt lat="46.0616" lon="5.86948">
        <ele>519.7</ele>
        <time>2022-09-26T13:57:39Z</time>
      </trkpt>
      <trkpt lat="46.06161" lon="5.86955">
        <ele>519.7</ele>
        <time>2022-09-26T13:57:40Z</time>
      </trkpt>
      <trkpt lat="46.06162" lon="5.86962">
        <ele>519.8</ele>
        <time>2022-09-26T13:57:41Z</time>
      </trkpt>
      <trkpt lat="46.06162" lon="5.86969">
        <ele>519.8</ele>
        <time>2022-09-26T13:57:42Z</time>
      </trkpt>
      <trkpt lat="46.06163" lon="5.86976">
        <ele>519.9</ele>
        <time>2022-09-26T13:57:43Z</time>
      </trkpt>
      <trkpt lat="46.06164" lon="5.86983">
        <ele>519.9</ele>
        <time>2022-09-26T13:57:44Z</time>
      </trkpt>
      <trkpt lat="46.06164" lon="5.8699">
        <ele>519.9</ele>
        <time>2022-09-26T13:57:45Z</time>
      </trkpt>
      <trkpt lat="46.06164" lon="5.86997">
        <ele>520</ele>
        <time>2022-09-26T13:57:46Z</time>
      </trkpt>
      <trkpt lat="46.06165" lon="5.87004">
        <ele>520.1</ele>
        <time>2022-09-26T13:57:47Z</time>
      </trkpt>
      <trkpt lat="46.06165" lon="5.8701">
        <ele>520.1</ele>
        <time>2022-09-26T13:57:48Z</time>
      </trkpt>
      <trkpt lat="46.06166" lon="5.87017">
        <ele>520.2</ele>
        <time>2022-09-26T13:57:49Z</time>
      </trkpt>
      <trkpt lat="46.06165" lon="5.87023">
        <ele>520.2</ele>
        <time>2022-09-26T13:57:50Z</time>
      </trkpt>
      <trkpt lat="46.06165" lon="5.8703">
        <ele>520.3</ele>
        <time>2022-09-26T13:57:51Z</time>
      </trkpt>
      <trkpt lat="46.06166" lon="5.87036">
        <ele>520.4</ele>
        <time>2022-09-26T13:57:52Z</time>
      </trkpt>
      <trkpt lat="46.06166" lon="5.87043">
        <ele>520.4</ele>
        <time>2022-09-26T13:57:53Z</time>
      </trkpt>
      <trkpt lat="46.06167" lon="5.87049">
        <ele>520.5</ele>
        <time>2022-09-26T13:57:54Z</time>
      </trkpt>
      <trkpt lat="46.06167" lon="5.87055">
        <ele>520.5</ele>
        <time>2022-09-26T13:57:55Z</time>
      </trkpt>
      <trkpt lat="46.06168" lon="5.87061">
        <ele>520.6</ele>
        <time>2022-09-26T13:57:56Z</time>
      </trkpt>
      <trkpt lat="46.06168" lon="5.87068">
        <ele>520.7</ele>
        <time>2022-09-26T13:57:57Z</time>
      </trkpt>
      <trkpt lat="46.06169" lon="5.87074">
        <ele>520.8</ele>
        <time>2022-09-26T13:57:58Z</time>
      </trkpt>
      <trkpt lat="46.06169" lon="5.8708">
        <ele>520.8</ele>
        <time>2022-09-26T13:57:59Z</time>
      </trkpt>
      <trkpt lat="46.0617" lon="5.87087">
        <ele>520.9</ele>
        <time>2022-09-26T13:58:00Z</time>
      </trkpt>
      <trkpt lat="46.0617" lon="5.87093">
        <ele>521</ele>
        <time>2022-09-26T13:58:01Z</time>
      </trkpt>
      <trkpt lat="46.0617" lon="5.87098">
        <ele>521</ele>
        <time>2022-09-26T13:58:02Z</time>
      </trkpt>
      <trkpt lat="46.0617" lon="5.87105">
        <ele>521.1</ele>
        <time>2022-09-26T13:58:03Z</time>
      </trkpt>
      <trkpt lat="46.0617" lon="5.87111">
        <ele>521.2</ele>
        <time>2022-09-26T13:58:04Z</time>
      </trkpt>
      <trkpt lat="46.0617" lon="5.87116">
        <ele>521.2</ele>
        <time>2022-09-26T13:58:05Z</time>
      </trkpt>
      <trkpt lat="46.06171" lon="5.87121">
        <ele>521.3</ele>
        <time>2022-09-26T13:58:06Z</time>
      </trkpt>
      <trkpt lat="46.06171" lon="5.87127">
        <ele>521.4</ele>
        <time>2022-09-26T13:58:07Z</time>
      </trkpt>
      <trkpt lat="46.06172" lon="5.87133">
        <ele>521.5</ele>
        <time>2022-09-26T13:58:08Z</time>
      </trkpt>
      <trkpt lat="46.06171" lon="5.87139">
        <ele>521.6</ele>
        <time>2022-09-26T13:58:09Z</time>
      </trkpt>
      <trkpt lat="46.06171" lon="5.87144">
        <ele>521.6</ele>
        <time>2022-09-26T13:58:10Z</time>
      </trkpt>
      <trkpt lat="46.06171" lon="5.8715">
        <ele>521.7</ele>
        <time>2022-09-26T13:58:11Z</time>
      </trkpt>
      <trkpt lat="46.06172" lon="5.87156">
        <ele>521.7</ele>
        <time>2022-09-26T13:58:12Z</time>
      </trkpt>
      <trkpt lat="46.06172" lon="5.87161">
        <ele>521.8</ele>
        <time>2022-09-26T13:58:13Z</time>
      </trkpt>
      <trkpt lat="46.06173" lon="5.87166">
        <ele>521.8</ele>
        <time>2022-09-26T13:58:14Z</time>
      </trkpt>
      <trkpt lat="46.06172" lon="5.87171">
        <ele>521.9</ele>
        <time>2022-09-26T13:58:15Z</time>
      </trkpt>
      <trkpt lat="46.06173" lon="5.87177">
        <ele>521.9</ele>
        <time>2022-09-26T13:58:16Z</time>
      </trkpt>
      <trkpt lat="46.06173" lon="5.87182">
        <ele>522</ele>
        <time>2022-09-26T13:58:17Z</time>
      </trkpt>
      <trkpt lat="46.06173" lon="5.87188">
        <ele>522</ele>
        <time>2022-09-26T13:58:18Z</time>
      </trkpt>
      <trkpt lat="46.06173" lon="5.87193">
        <ele>522.1</ele>
        <time>2022-09-26T13:58:19Z</time>
      </trkpt>
      <trkpt lat="46.06174" lon="5.87199">
        <ele>522.1</ele>
        <time>2022-09-26T13:58:20Z</time>
      </trkpt>
      <trkpt lat="46.06174" lon="5.87203">
        <ele>522.2</ele>
        <time>2022-09-26T13:58:21Z</time>
      </trkpt>
      <trkpt lat="46.06175" lon="5.8721">
        <ele>522.3</ele>
        <time>2022-09-26T13:58:22Z</time>
      </trkpt>
      <trkpt lat="46.06175" lon="5.87216">
        <ele>522.3</ele>
        <time>2022-09-26T13:58:23Z</time>
      </trkpt>
      <trkpt lat="46.06175" lon="5.87221">
        <ele>522.4</ele>
        <time>2022-09-26T13:58:24Z</time>
      </trkpt>
      <trkpt lat="46.06175" lon="5.87227">
        <ele>522.4</ele>
        <time>2022-09-26T13:58:25Z</time>
      </trkpt>
      <trkpt lat="46.06176" lon="5.87232">
        <ele>522.5</ele>
        <time>2022-09-26T13:58:26Z</time>
      </trkpt>
      <trkpt lat="46.06176" lon="5.87237">
        <ele>522.6</ele>
        <time>2022-09-26T13:58:27Z</time>
      </trkpt>
      <trkpt lat="46.06176" lon="5.87242">
        <ele>522.6</ele>
        <time>2022-09-26T13:58:28Z</time>
      </trkpt>
      <trkpt lat="46.06176" lon="5.87248">
        <ele>522.7</ele>
        <time>2022-09-26T13:58:29Z</time>
      </trkpt>
      <trkpt lat="46.06176" lon="5.87253">
        <ele>522.8</ele>
        <time>2022-09-26T13:58:30Z</time>
      </trkpt>
      <trkpt lat="46.06176" lon="5.87258">
        <ele>522.8</ele>
        <time>2022-09-26T13:58:31Z</time>
      </trkpt>
      <trkpt lat="46.06177" lon="5.87263">
        <ele>522.9</ele>
        <time>2022-09-26T13:58:32Z</time>
      </trkpt>
      <trkpt lat="46.06177" lon="5.87269">
        <ele>523</ele>
        <time>2022-09-26T13:58:33Z</time>
      </trkpt>
      <trkpt lat="46.06178" lon="5.87274">
        <ele>523</ele>
        <time>2022-09-26T13:58:34Z</time>
      </trkpt>
      <trkpt lat="46.06178" lon="5.87279">
        <ele>523.1</ele>
        <time>2022-09-26T13:58:35Z</time>
      </trkpt>
      <trkpt lat="46.06178" lon="5.87283">
        <ele>523.2</ele>
        <time>2022-09-26T13:58:36Z</time>
      </trkpt>
      <trkpt lat="46.06179" lon="5.87288">
        <ele>523.2</ele>
        <time>2022-09-26T13:58:37Z</time>
      </trkpt>
      <trkpt lat="46.06179" lon="5.87293">
        <ele>523.3</ele>
        <time>2022-09-26T13:58:38Z</time>
      </trkpt>
      <trkpt lat="46.06179" lon="5.87297">
        <ele>523.4</ele>
        <time>2022-09-26T13:58:39Z</time>
      </trkpt>
      <trkpt lat="46.0618" lon="5.87302">
        <ele>523.4</ele>
        <time>2022-09-26T13:58:40Z</time>
      </trkpt>
      <trkpt lat="46.0618" lon="5.87307">
        <ele>523.5</ele>
        <time>2022-09-26T13:58:41Z</time>
      </trkpt>
      <trkpt lat="46.0618" lon="5.87312">
        <ele>523.5</ele>
        <time>2022-09-26T13:58:42Z</time>
      </trkpt>
      <trkpt lat="46.06181" lon="5.87317">
        <ele>523.6</ele>
        <time>2022-09-26T13:58:43Z</time>
      </trkpt>
      <trkpt lat="46.06182" lon="5.87323">
        <ele>523.6</ele>
        <time>2022-09-26T13:58:44Z</time>
      </trkpt>
      <trkpt lat="46.06182" lon="5.87329">
        <ele>523.7</ele>
        <time>2022-09-26T13:58:45Z</time>
      </trkpt>
      <trkpt lat="46.06182" lon="5.87335">
        <ele>523.7</ele>
        <time>2022-09-26T13:58:46Z</time>
      </trkpt>
      <trkpt lat="46.06183" lon="5.87341">
        <ele>523.8</ele>
        <time>2022-09-26T13:58:47Z</time>
      </trkpt>
      <trkpt lat="46.06183" lon="5.87347">
        <ele>523.8</ele>
        <time>2022-09-26T13:58:48Z</time>
      </trkpt>
      <trkpt lat="46.06183" lon="5.87353">
        <ele>523.9</ele>
        <time>2022-09-26T13:58:49Z</time>
      </trkpt>
      <trkpt lat="46.06182" lon="5.87358">
        <ele>523.9</ele>
        <time>2022-09-26T13:58:50Z</time>
      </trkpt>
      <trkpt lat="46.06183" lon="5.87364">
        <ele>524</ele>
        <time>2022-09-26T13:58:51Z</time>
      </trkpt>
      <trkpt lat="46.06183" lon="5.8737">
        <ele>524</ele>
        <time>2022-09-26T13:58:52Z</time>
      </trkpt>
      <trkpt lat="46.06183" lon="5.87375">
        <ele>524.1</ele>
        <time>2022-09-26T13:58:53Z</time>
      </trkpt>
      <trkpt lat="46.06184" lon="5.87381">
        <ele>524.1</ele>
        <time>2022-09-26T13:58:54Z</time>
      </trkpt>
      <trkpt lat="46.06184" lon="5.87387">
        <ele>524.2</ele>
        <time>2022-09-26T13:58:55Z</time>
      </trkpt>
      <trkpt lat="46.06184" lon="5.87391">
        <ele>524.2</ele>
        <time>2022-09-26T13:58:56Z</time>
      </trkpt>
      <trkpt lat="46.06184" lon="5.87397">
        <ele>524.2</ele>
        <time>2022-09-26T13:58:57Z</time>
      </trkpt>
      <trkpt lat="46.06184" lon="5.87402">
        <ele>524.3</ele>
        <time>2022-09-26T13:58:58Z</time>
      </trkpt>
      <trkpt lat="46.06184" lon="5.87408">
        <ele>524.3</ele>
        <time>2022-09-26T13:58:59Z</time>
      </trkpt>
      <trkpt lat="46.06184" lon="5.87414">
        <ele>524.4</ele>
        <time>2022-09-26T13:59:00Z</time>
      </trkpt>
      <trkpt lat="46.06184" lon="5.8742">
        <ele>524.4</ele>
        <time>2022-09-26T13:59:01Z</time>
      </trkpt>
      <trkpt lat="46.06185" lon="5.87425">
        <ele>524.4</ele>
        <time>2022-09-26T13:59:02Z</time>
      </trkpt>
      <trkpt lat="46.06185" lon="5.87431">
        <ele>524.5</ele>
        <time>2022-09-26T13:59:03Z</time>
      </trkpt>
      <trkpt lat="46.06186" lon="5.87436">
        <ele>524.5</ele>
        <time>2022-09-26T13:59:04Z</time>
      </trkpt>
      <trkpt lat="46.06186" lon="5.87442">
        <ele>524.6</ele>
        <time>2022-09-26T13:59:05Z</time>
      </trkpt>
      <trkpt lat="46.06186" lon="5.87448">
        <ele>524.6</ele>
        <time>2022-09-26T13:59:06Z</time>
      </trkpt>
      <trkpt lat="46.06186" lon="5.87453">
        <ele>524.6</ele>
        <time>2022-09-26T13:59:07Z</time>
      </trkpt>
      <trkpt lat="46.06186" lon="5.87459">
        <ele>524.7</ele>
        <time>2022-09-26T13:59:08Z</time>
      </trkpt>
      <trkpt lat="46.06186" lon="5.87464">
        <ele>524.7</ele>
        <time>2022-09-26T13:59:09Z</time>
      </trkpt>
      <trkpt lat="46.06187" lon="5.87469">
        <ele>524.7</ele>
        <time>2022-09-26T13:59:10Z</time>
      </trkpt>
      <trkpt lat="46.06186" lon="5.87475">
        <ele>524.8</ele>
        <time>2022-09-26T13:59:11Z</time>
      </trkpt>
      <trkpt lat="46.06187" lon="5.8748">
        <ele>524.8</ele>
        <time>2022-09-26T13:59:12Z</time>
      </trkpt>
      <trkpt lat="46.06188" lon="5.87485">
        <ele>524.8</ele>
        <time>2022-09-26T13:59:13Z</time>
      </trkpt>
      <trkpt lat="46.06187" lon="5.87492">
        <ele>524.8</ele>
        <time>2022-09-26T13:59:14Z</time>
      </trkpt>
      <trkpt lat="46.06188" lon="5.87497">
        <ele>524.9</ele>
        <time>2022-09-26T13:59:15Z</time>
      </trkpt>
      <trkpt lat="46.06188" lon="5.87502">
        <ele>524.9</ele>
        <time>2022-09-26T13:59:16Z</time>
      </trkpt>
      <trkpt lat="46.06188" lon="5.87507">
        <ele>524.9</ele>
        <time>2022-09-26T13:59:17Z</time>
      </trkpt>
      <trkpt lat="46.06189" lon="5.87513">
        <ele>525</ele>
        <time>2022-09-26T13:59:18Z</time>
      </trkpt>
      <trkpt lat="46.06189" lon="5.87519">
        <ele>525</ele>
        <time>2022-09-26T13:59:19Z</time>
      </trkpt>
      <trkpt lat="46.0619" lon="5.87525">
        <ele>525</ele>
        <time>2022-09-26T13:59:20Z</time>
      </trkpt>
      <trkpt lat="46.0619" lon="5.87531">
        <ele>525</ele>
        <time>2022-09-26T13:59:21Z</time>
      </trkpt>
      <trkpt lat="46.06191" lon="5.87537">
        <ele>524.9</ele>
        <time>2022-09-26T13:59:22Z</time>
      </trkpt>
      <trkpt lat="46.06191" lon="5.87544">
        <ele>524.9</ele>
        <time>2022-09-26T13:59:23Z</time>
      </trkpt>
      <trkpt lat="46.06192" lon="5.8755">
        <ele>524.8</ele>
        <time>2022-09-26T13:59:24Z</time>
      </trkpt>
      <trkpt lat="46.06192" lon="5.87556">
        <ele>524.8</ele>
        <time>2022-09-26T13:59:25Z</time>
      </trkpt>
      <trkpt lat="46.06192" lon="5.87562">
        <ele>524.7</ele>
        <time>2022-09-26T13:59:26Z</time>
      </trkpt>
      <trkpt lat="46.06193" lon="5.87569">
        <ele>524.7</ele>
        <time>2022-09-26T13:59:27Z</time>
      </trkpt>
      <trkpt lat="46.06193" lon="5.87575">
        <ele>524.6</ele>
        <time>2022-09-26T13:59:28Z</time>
      </trkpt>
      <trkpt lat="46.06193" lon="5.87582">
        <ele>524.5</ele>
        <time>2022-09-26T13:59:29Z</time>
      </trkpt>
      <trkpt lat="46.06194" lon="5.87589">
        <ele>524.5</ele>
        <time>2022-09-26T13:59:30Z</time>
      </trkpt>
      <trkpt lat="46.06194" lon="5.87595">
        <ele>524.4</ele>
        <time>2022-09-26T13:59:31Z</time>
      </trkpt>
      <trkpt lat="46.06194" lon="5.87602">
        <ele>524.3</ele>
        <time>2022-09-26T13:59:32Z</time>
      </trkpt>
      <trkpt lat="46.06195" lon="5.87609">
        <ele>524.2</ele>
        <time>2022-09-26T13:59:33Z</time>
      </trkpt>
      <trkpt lat="46.06195" lon="5.87617">
        <ele>524.2</ele>
        <time>2022-09-26T13:59:34Z</time>
      </trkpt>
      <trkpt lat="46.06196" lon="5.87623">
        <ele>524.1</ele>
        <time>2022-09-26T13:59:35Z</time>
      </trkpt>
      <trkpt lat="46.06196" lon="5.8763">
        <ele>524</ele>
        <time>2022-09-26T13:59:36Z</time>
      </trkpt>
      <trkpt lat="46.06197" lon="5.87637">
        <ele>523.9</ele>
        <time>2022-09-26T13:59:37Z</time>
      </trkpt>
      <trkpt lat="46.06197" lon="5.87645">
        <ele>523.8</ele>
        <time>2022-09-26T13:59:38Z</time>
      </trkpt>
      <trkpt lat="46.06198" lon="5.87653">
        <ele>523.7</ele>
        <time>2022-09-26T13:59:39Z</time>
      </trkpt>
      <trkpt lat="46.06198" lon="5.8766">
        <ele>523.6</ele>
        <time>2022-09-26T13:59:40Z</time>
      </trkpt>
      <trkpt lat="46.06199" lon="5.87668">
        <ele>523.5</ele>
        <time>2022-09-26T13:59:41Z</time>
      </trkpt>
      <trkpt lat="46.06199" lon="5.87676">
        <ele>523.4</ele>
        <time>2022-09-26T13:59:42Z</time>
      </trkpt>
      <trkpt lat="46.062" lon="5.87684">
        <ele>523.3</ele>
        <time>2022-09-26T13:59:43Z</time>
      </trkpt>
      <trkpt lat="46.062" lon="5.87693">
        <ele>523.2</ele>
        <time>2022-09-26T13:59:44Z</time>
      </trkpt>
      <trkpt lat="46.06201" lon="5.877">
        <ele>523.1</ele>
        <time>2022-09-26T13:59:45Z</time>
      </trkpt>
      <trkpt lat="46.06201" lon="5.87709">
        <ele>523</ele>
        <time>2022-09-26T13:59:46Z</time>
      </trkpt>
      <trkpt lat="46.06201" lon="5.87718">
        <ele>522.9</ele>
        <time>2022-09-26T13:59:47Z</time>
      </trkpt>
      <trkpt lat="46.06202" lon="5.87725">
        <ele>522.8</ele>
        <time>2022-09-26T13:59:48Z</time>
      </trkpt>
      <trkpt lat="46.06202" lon="5.87734">
        <ele>522.7</ele>
        <time>2022-09-26T13:59:49Z</time>
      </trkpt>
      <trkpt lat="46.06203" lon="5.87742">
        <ele>522.6</ele>
        <time>2022-09-26T13:59:50Z</time>
      </trkpt>
      <trkpt lat="46.06203" lon="5.8775">
        <ele>522.5</ele>
        <time>2022-09-26T13:59:51Z</time>
      </trkpt>
      <trkpt lat="46.06203" lon="5.87759">
        <ele>522.4</ele>
        <time>2022-09-26T13:59:52Z</time>
      </trkpt>
      <trkpt lat="46.06204" lon="5.87767">
        <ele>522.3</ele>
        <time>2022-09-26T13:59:53Z</time>
      </trkpt>
      <trkpt lat="46.06204" lon="5.87775">
        <ele>522.2</ele>
        <time>2022-09-26T13:59:54Z</time>
      </trkpt>
      <trkpt lat="46.06205" lon="5.87783">
        <ele>522.1</ele>
        <time>2022-09-26T13:59:55Z</time>
      </trkpt>
      <trkpt lat="46.06205" lon="5.87792">
        <ele>522</ele>
        <time>2022-09-26T13:59:56Z</time>
      </trkpt>
      <trkpt lat="46.06206" lon="5.878">
        <ele>521.9</ele>
        <time>2022-09-26T13:59:57Z</time>
      </trkpt>
      <trkpt lat="46.06206" lon="5.87809">
        <ele>521.8</ele>
        <time>2022-09-26T13:59:58Z</time>
      </trkpt>
      <trkpt lat="46.06207" lon="5.87817">
        <ele>521.7</ele>
        <time>2022-09-26T13:59:59Z</time>
      </trkpt>
      <trkpt lat="46.06207" lon="5.87826">
        <ele>521.6</ele>
        <time>2022-09-26T14:00:00Z</time>
      </trkpt>
      <trkpt lat="46.06208" lon="5.87834">
        <ele>521.5</ele>
        <time>2022-09-26T14:00:01Z</time>
      </trkpt>
      <trkpt lat="46.06208" lon="5.87843">
        <ele>521.4</ele>
        <time>2022-09-26T14:00:02Z</time>
      </trkpt>
      <trkpt lat="46.06208" lon="5.87851">
        <ele>521.3</ele>
        <time>2022-09-26T14:00:03Z</time>
      </trkpt>
      <trkpt lat="46.06209" lon="5.8786">
        <ele>521.1</ele>
        <time>2022-09-26T14:00:04Z</time>
      </trkpt>
      <trkpt lat="46.06209" lon="5.87868">
        <ele>521</ele>
        <time>2022-09-26T14:00:05Z</time>
      </trkpt>
      <trkpt lat="46.0621" lon="5.87876">
        <ele>520.9</ele>
        <time>2022-09-26T14:00:06Z</time>
      </trkpt>
      <trkpt lat="46.0621" lon="5.87885">
        <ele>520.8</ele>
        <time>2022-09-26T14:00:07Z</time>
      </trkpt>
      <trkpt lat="46.06211" lon="5.87893">
        <ele>520.6</ele>
        <time>2022-09-26T14:00:08Z</time>
      </trkpt>
      <trkpt lat="46.06211" lon="5.87902">
        <ele>520.5</ele>
        <time>2022-09-26T14:00:09Z</time>
      </trkpt>
      <trkpt lat="46.06212" lon="5.87909">
        <ele>520.4</ele>
        <time>2022-09-26T14:00:10Z</time>
      </trkpt>
      <trkpt lat="46.06212" lon="5.87918">
        <ele>520.3</ele>
        <time>2022-09-26T14:00:11Z</time>
      </trkpt>
      <trkpt lat="46.06212" lon="5.87926">
        <ele>520.2</ele>
        <time>2022-09-26T14:00:12Z</time>
      </trkpt>
      <trkpt lat="46.06213" lon="5.87934">
        <ele>520</ele>
        <time>2022-09-26T14:00:13Z</time>
      </trkpt>
      <trkpt lat="46.06214" lon="5.87942">
        <ele>519.9</ele>
        <time>2022-09-26T14:00:14Z</time>
      </trkpt>
      <trkpt lat="46.06214" lon="5.8795">
        <ele>519.7</ele>
        <time>2022-09-26T14:00:15Z</time>
      </trkpt>
      <trkpt lat="46.06215" lon="5.87957">
        <ele>519.6</ele>
        <time>2022-09-26T14:00:16Z</time>
      </trkpt>
      <trkpt lat="46.06215" lon="5.87965">
        <ele>519.4</ele>
        <time>2022-09-26T14:00:17Z</time>
      </trkpt>
      <trkpt lat="46.06215" lon="5.87974">
        <ele>519.2</ele>
        <time>2022-09-26T14:00:18Z</time>
      </trkpt>
      <trkpt lat="46.06216" lon="5.87982">
        <ele>519</ele>
        <time>2022-09-26T14:00:19Z</time>
      </trkpt>
      <trkpt lat="46.06216" lon="5.87991">
        <ele>518.7</ele>
        <time>2022-09-26T14:00:20Z</time>
      </trkpt>
      <trkpt lat="46.06216" lon="5.87998">
        <ele>518.6</ele>
        <time>2022-09-26T14:00:21Z</time>
      </trkpt>
      <trkpt lat="46.06218" lon="5.88009">
        <ele>518.3</ele>
        <time>2022-09-26T14:00:22Z</time>
      </trkpt>
      <trkpt lat="46.06218" lon="5.88019">
        <ele>518.1</ele>
        <time>2022-09-26T14:00:23Z</time>
      </trkpt>
      <trkpt lat="46.06218" lon="5.88028">
        <ele>517.8</ele>
        <time>2022-09-26T14:00:24Z</time>
      </trkpt>
      <trkpt lat="46.06219" lon="5.88038">
        <ele>517.5</ele>
        <time>2022-09-26T14:00:25Z</time>
      </trkpt>
      <trkpt lat="46.0622" lon="5.88048">
        <ele>517.2</ele>
        <time>2022-09-26T14:00:26Z</time>
      </trkpt>
      <trkpt lat="46.0622" lon="5.88059">
        <ele>516.9</ele>
        <time>2022-09-26T14:00:27Z</time>
      </trkpt>
      <trkpt lat="46.06221" lon="5.88069">
        <ele>516.6</ele>
        <time>2022-09-26T14:00:28Z</time>
      </trkpt>
      <trkpt lat="46.06221" lon="5.88079">
        <ele>516.3</ele>
        <time>2022-09-26T14:00:29Z</time>
      </trkpt>
      <trkpt lat="46.06222" lon="5.88089">
        <ele>516</ele>
        <time>2022-09-26T14:00:30Z</time>
      </trkpt>
      <trkpt lat="46.06222" lon="5.88099">
        <ele>515.7</ele>
        <time>2022-09-26T14:00:31Z</time>
      </trkpt>
      <trkpt lat="46.06223" lon="5.88109">
        <ele>515.4</ele>
        <time>2022-09-26T14:00:32Z</time>
      </trkpt>
      <trkpt lat="46.06224" lon="5.88119">
        <ele>515.1</ele>
        <time>2022-09-26T14:00:33Z</time>
      </trkpt>
      <trkpt lat="46.06224" lon="5.88129">
        <ele>514.7</ele>
        <time>2022-09-26T14:00:34Z</time>
      </trkpt>
      <trkpt lat="46.06225" lon="5.8814">
        <ele>514.4</ele>
        <time>2022-09-26T14:00:35Z</time>
      </trkpt>
      <trkpt lat="46.06226" lon="5.8815">
        <ele>514</ele>
        <time>2022-09-26T14:00:36Z</time>
      </trkpt>
      <trkpt lat="46.06226" lon="5.88161">
        <ele>513.7</ele>
        <time>2022-09-26T14:00:37Z</time>
      </trkpt>
      <trkpt lat="46.06227" lon="5.88171">
        <ele>513.3</ele>
        <time>2022-09-26T14:00:38Z</time>
      </trkpt>
      <trkpt lat="46.06228" lon="5.88182">
        <ele>512.9</ele>
        <time>2022-09-26T14:00:39Z</time>
      </trkpt>
      <trkpt lat="46.06228" lon="5.88194">
        <ele>512.6</ele>
        <time>2022-09-26T14:00:40Z</time>
      </trkpt>
      <trkpt lat="46.06229" lon="5.88205">
        <ele>512.2</ele>
        <time>2022-09-26T14:00:41Z</time>
      </trkpt>
      <trkpt lat="46.06229" lon="5.88216">
        <ele>511.9</ele>
        <time>2022-09-26T14:00:42Z</time>
      </trkpt>
      <trkpt lat="46.0623" lon="5.88228">
        <ele>511.5</ele>
        <time>2022-09-26T14:00:43Z</time>
      </trkpt>
      <trkpt lat="46.06231" lon="5.88239">
        <ele>511.2</ele>
        <time>2022-09-26T14:00:44Z</time>
      </trkpt>
      <trkpt lat="46.06231" lon="5.88251">
        <ele>511</ele>
        <time>2022-09-26T14:00:45Z</time>
      </trkpt>
      <trkpt lat="46.06232" lon="5.88262">
        <ele>510.8</ele>
        <time>2022-09-26T14:00:46Z</time>
      </trkpt>
      <trkpt lat="46.06232" lon="5.88273">
        <ele>510.7</ele>
        <time>2022-09-26T14:00:47Z</time>
      </trkpt>
      <trkpt lat="46.06233" lon="5.88284">
        <ele>510.6</ele>
        <time>2022-09-26T14:00:48Z</time>
      </trkpt>
      <trkpt lat="46.06234" lon="5.88295">
        <ele>510.6</ele>
        <time>2022-09-26T14:00:49Z</time>
      </trkpt>
      <trkpt lat="46.06234" lon="5.88306">
        <ele>510.6</ele>
        <time>2022-09-26T14:00:50Z</time>
      </trkpt>
      <trkpt lat="46.06235" lon="5.88316">
        <ele>510.5</ele>
        <time>2022-09-26T14:00:51Z</time>
      </trkpt>
      <trkpt lat="46.06236" lon="5.88327">
        <ele>510.5</ele>
        <time>2022-09-26T14:00:53Z</time>
      </trkpt>
      <trkpt lat="46.06237" lon="5.88337">
        <ele>510.5</ele>
        <time>2022-09-26T14:00:54Z</time>
      </trkpt>
      <trkpt lat="46.06237" lon="5.88347">
        <ele>510.5</ele>
        <time>2022-09-26T14:00:55Z</time>
      </trkpt>
      <trkpt lat="46.06238" lon="5.88356">
        <ele>510.5</ele>
        <time>2022-09-26T14:00:56Z</time>
      </trkpt>
      <trkpt lat="46.06238" lon="5.88366">
        <ele>510.5</ele>
        <time>2022-09-26T14:00:57Z</time>
      </trkpt>
      <trkpt lat="46.06238" lon="5.88374">
        <ele>510.5</ele>
        <time>2022-09-26T14:00:58Z</time>
      </trkpt>
      <trkpt lat="46.06239" lon="5.88382">
        <ele>510.5</ele>
        <time>2022-09-26T14:00:59Z</time>
      </trkpt>
      <trkpt lat="46.06239" lon="5.88391">
        <ele>510.5</ele>
        <time>2022-09-26T14:01:00Z</time>
      </trkpt>
      <trkpt lat="46.0624" lon="5.88399">
        <ele>510.5</ele>
        <time>2022-09-26T14:01:01Z</time>
      </trkpt>
      <trkpt lat="46.0624" lon="5.88408">
        <ele>510.5</ele>
        <time>2022-09-26T14:01:02Z</time>
      </trkpt>
      <trkpt lat="46.06239" lon="5.88417">
        <ele>510.4</ele>
        <time>2022-09-26T14:01:03Z</time>
      </trkpt>
      <trkpt lat="46.06239" lon="5.88426">
        <ele>510.4</ele>
        <time>2022-09-26T14:01:04Z</time>
      </trkpt>
      <trkpt lat="46.0624" lon="5.88435">
        <ele>510.4</ele>
        <time>2022-09-26T14:01:05Z</time>
      </trkpt>
      <trkpt lat="46.06241" lon="5.88451">
        <ele>510.4</ele>
        <time>2022-09-26T14:01:06Z</time>
      </trkpt>
      <trkpt lat="46.06242" lon="5.8846">
        <ele>510.4</ele>
        <time>2022-09-26T14:01:07Z</time>
      </trkpt>
      <trkpt lat="46.06243" lon="5.88468">
        <ele>510.4</ele>
        <time>2022-09-26T14:01:08Z</time>
      </trkpt>
      <trkpt lat="46.06244" lon="5.88477">
        <ele>510.4</ele>
        <time>2022-09-26T14:01:09Z</time>
      </trkpt>
      <trkpt lat="46.06242" lon="5.88484">
        <ele>510.4</ele>
        <time>2022-09-26T14:01:10Z</time>
      </trkpt>
      <trkpt lat="46.06243" lon="5.88492">
        <ele>510.3</ele>
        <time>2022-09-26T14:01:11Z</time>
      </trkpt>
      <trkpt lat="46.06244" lon="5.885">
        <ele>510.3</ele>
        <time>2022-09-26T14:01:12Z</time>
      </trkpt>
      <trkpt lat="46.06244" lon="5.88508">
        <ele>510.3</ele>
        <time>2022-09-26T14:01:13Z</time>
      </trkpt>
      <trkpt lat="46.06244" lon="5.88516">
        <ele>510.3</ele>
        <time>2022-09-26T14:01:14Z</time>
      </trkpt>
      <trkpt lat="46.06245" lon="5.88524">
        <ele>510.3</ele>
        <time>2022-09-26T14:01:15Z</time>
      </trkpt>
      <trkpt lat="46.06245" lon="5.88531">
        <ele>510.3</ele>
        <time>2022-09-26T14:01:16Z</time>
      </trkpt>
      <trkpt lat="46.06246" lon="5.88538">
        <ele>510.3</ele>
        <time>2022-09-26T14:01:17Z</time>
      </trkpt>
      <trkpt lat="46.06246" lon="5.88544">
        <ele>510.3</ele>
        <time>2022-09-26T14:01:18Z</time>
      </trkpt>
      <trkpt lat="46.06247" lon="5.88551">
        <ele>510.2</ele>
        <time>2022-09-26T14:01:19Z</time>
      </trkpt>
      <trkpt lat="46.06248" lon="5.88557">
        <ele>510.2</ele>
        <time>2022-09-26T14:01:20Z</time>
      </trkpt>
      <trkpt lat="46.06247" lon="5.88562">
        <ele>510.2</ele>
        <time>2022-09-26T14:01:21Z</time>
      </trkpt>
      <trkpt lat="46.06247" lon="5.88568">
        <ele>510.2</ele>
        <time>2022-09-26T14:01:22Z</time>
      </trkpt>
      <trkpt lat="46.06248" lon="5.88574">
        <ele>510.2</ele>
        <time>2022-09-26T14:01:23Z</time>
      </trkpt>
      <trkpt lat="46.06249" lon="5.88581">
        <ele>510.2</ele>
        <time>2022-09-26T14:01:24Z</time>
      </trkpt>
      <trkpt lat="46.06249" lon="5.88587">
        <ele>510.1</ele>
        <time>2022-09-26T14:01:25Z</time>
      </trkpt>
      <trkpt lat="46.0625" lon="5.88593">
        <ele>510.1</ele>
        <time>2022-09-26T14:01:26Z</time>
      </trkpt>
      <trkpt lat="46.06251" lon="5.886">
        <ele>510.1</ele>
        <time>2022-09-26T14:01:27Z</time>
      </trkpt>
      <trkpt lat="46.06251" lon="5.88606">
        <ele>510.1</ele>
        <time>2022-09-26T14:01:28Z</time>
      </trkpt>
      <trkpt lat="46.06252" lon="5.88612">
        <ele>510</ele>
        <time>2022-09-26T14:01:29Z</time>
      </trkpt>
      <trkpt lat="46.06252" lon="5.88618">
        <ele>510</ele>
        <time>2022-09-26T14:01:30Z</time>
      </trkpt>
      <trkpt lat="46.06252" lon="5.88625">
        <ele>509.9</ele>
        <time>2022-09-26T14:01:31Z</time>
      </trkpt>
      <trkpt lat="46.06251" lon="5.88631">
        <ele>509.9</ele>
        <time>2022-09-26T14:01:32Z</time>
      </trkpt>
      <trkpt lat="46.06251" lon="5.88636">
        <ele>509.9</ele>
        <time>2022-09-26T14:01:33Z</time>
      </trkpt>
      <trkpt lat="46.06251" lon="5.88641">
        <ele>509.8</ele>
        <time>2022-09-26T14:01:34Z</time>
      </trkpt>
      <trkpt lat="46.06252" lon="5.88647">
        <ele>509.8</ele>
        <time>2022-09-26T14:01:35Z</time>
      </trkpt>
      <trkpt lat="46.06254" lon="5.88654">
        <ele>509.7</ele>
        <time>2022-09-26T14:01:36Z</time>
      </trkpt>
      <trkpt lat="46.06255" lon="5.88661">
        <ele>509.7</ele>
        <time>2022-09-26T14:01:37Z</time>
      </trkpt>
      <trkpt lat="46.06255" lon="5.88668">
        <ele>509.7</ele>
        <time>2022-09-26T14:01:38Z</time>
      </trkpt>
      <trkpt lat="46.06256" lon="5.88674">
        <ele>509.7</ele>
        <time>2022-09-26T14:01:39Z</time>
      </trkpt>
      <trkpt lat="46.06256" lon="5.8868">
        <ele>509.6</ele>
        <time>2022-09-26T14:01:40Z</time>
      </trkpt>
      <trkpt lat="46.06256" lon="5.88687">
        <ele>509.6</ele>
        <time>2022-09-26T14:01:41Z</time>
      </trkpt>
      <trkpt lat="46.06256" lon="5.88693">
        <ele>509.6</ele>
        <time>2022-09-26T14:01:42Z</time>
      </trkpt>
      <trkpt lat="46.06256" lon="5.887">
        <ele>509.6</ele>
        <time>2022-09-26T14:01:43Z</time>
      </trkpt>
      <trkpt lat="46.06257" lon="5.88707">
        <ele>509.6</ele>
        <time>2022-09-26T14:01:44Z</time>
      </trkpt>
      <trkpt lat="46.06257" lon="5.88712">
        <ele>509.6</ele>
        <time>2022-09-26T14:01:45Z</time>
      </trkpt>
      <trkpt lat="46.06257" lon="5.88719">
        <ele>509.5</ele>
        <time>2022-09-26T14:01:46Z</time>
      </trkpt>
      <trkpt lat="46.06257" lon="5.88725">
        <ele>509.5</ele>
        <time>2022-09-26T14:01:47Z</time>
      </trkpt>
      <trkpt lat="46.06258" lon="5.88732">
        <ele>509.5</ele>
        <time>2022-09-26T14:01:48Z</time>
      </trkpt>
      <trkpt lat="46.06258" lon="5.88739">
        <ele>509.4</ele>
        <time>2022-09-26T14:01:49Z</time>
      </trkpt>
      <trkpt lat="46.06258" lon="5.88746">
        <ele>509.4</ele>
        <time>2022-09-26T14:01:50Z</time>
      </trkpt>
      <trkpt lat="46.06257" lon="5.88752">
        <ele>509.3</ele>
        <time>2022-09-26T14:01:51Z</time>
      </trkpt>
      <trkpt lat="46.06257" lon="5.88759">
        <ele>509.3</ele>
        <time>2022-09-26T14:01:52Z</time>
      </trkpt>
      <trkpt lat="46.06258" lon="5.88765">
        <ele>509.2</ele>
        <time>2022-09-26T14:01:53Z</time>
      </trkpt>
      <trkpt lat="46.06259" lon="5.88772">
        <ele>509.2</ele>
        <time>2022-09-26T14:01:54Z</time>
      </trkpt>
      <trkpt lat="46.06259" lon="5.88779">
        <ele>509.1</ele>
        <time>2022-09-26T14:01:55Z</time>
      </trkpt>
      <trkpt lat="46.06259" lon="5.88785">
        <ele>509</ele>
        <time>2022-09-26T14:01:56Z</time>
      </trkpt>
      <trkpt lat="46.0626" lon="5.88792">
        <ele>508.9</ele>
        <time>2022-09-26T14:01:57Z</time>
      </trkpt>
      <trkpt lat="46.06261" lon="5.88798">
        <ele>508.9</ele>
        <time>2022-09-26T14:01:58Z</time>
      </trkpt>
      <trkpt lat="46.06262" lon="5.88805">
        <ele>508.8</ele>
        <time>2022-09-26T14:01:59Z</time>
      </trkpt>
      <trkpt lat="46.06263" lon="5.88813">
        <ele>508.7</ele>
        <time>2022-09-26T14:02:00Z</time>
      </trkpt>
      <trkpt lat="46.06264" lon="5.8882">
        <ele>508.6</ele>
        <time>2022-09-26T14:02:01Z</time>
      </trkpt>
      <trkpt lat="46.06264" lon="5.88828">
        <ele>508.5</ele>
        <time>2022-09-26T14:02:02Z</time>
      </trkpt>
      <trkpt lat="46.06264" lon="5.88835">
        <ele>508.3</ele>
        <time>2022-09-26T14:02:03Z</time>
      </trkpt>
      <trkpt lat="46.06264" lon="5.88842">
        <ele>508.2</ele>
        <time>2022-09-26T14:02:04Z</time>
      </trkpt>
      <trkpt lat="46.06265" lon="5.88849">
        <ele>508.1</ele>
        <time>2022-09-26T14:02:05Z</time>
      </trkpt>
      <trkpt lat="46.06265" lon="5.88857">
        <ele>507.9</ele>
        <time>2022-09-26T14:02:06Z</time>
      </trkpt>
      <trkpt lat="46.06265" lon="5.88865">
        <ele>507.8</ele>
        <time>2022-09-26T14:02:07Z</time>
      </trkpt>
      <trkpt lat="46.06265" lon="5.88873">
        <ele>507.6</ele>
        <time>2022-09-26T14:02:08Z</time>
      </trkpt>
      <trkpt lat="46.06266" lon="5.8888">
        <ele>507.5</ele>
        <time>2022-09-26T14:02:09Z</time>
      </trkpt>
      <trkpt lat="46.06266" lon="5.88889">
        <ele>507.3</ele>
        <time>2022-09-26T14:02:10Z</time>
      </trkpt>
      <trkpt lat="46.06268" lon="5.88896">
        <ele>507.1</ele>
        <time>2022-09-26T14:02:11Z</time>
      </trkpt>
      <trkpt lat="46.06269" lon="5.88904">
        <ele>507</ele>
        <time>2022-09-26T14:02:12Z</time>
      </trkpt>
      <trkpt lat="46.0627" lon="5.88911">
        <ele>506.8</ele>
        <time>2022-09-26T14:02:13Z</time>
      </trkpt>
      <trkpt lat="46.06271" lon="5.88918">
        <ele>506.6</ele>
        <time>2022-09-26T14:02:14Z</time>
      </trkpt>
      <trkpt lat="46.06273" lon="5.88925">
        <ele>506.5</ele>
        <time>2022-09-26T14:02:15Z</time>
      </trkpt>
      <trkpt lat="46.06275" lon="5.88931">
        <ele>506.3</ele>
        <time>2022-09-26T14:02:16Z</time>
      </trkpt>
      <trkpt lat="46.06276" lon="5.88938">
        <ele>506.1</ele>
        <time>2022-09-26T14:02:17Z</time>
      </trkpt>
      <trkpt lat="46.06277" lon="5.88944">
        <ele>506</ele>
        <time>2022-09-26T14:02:18Z</time>
      </trkpt>
      <trkpt lat="46.06278" lon="5.8895">
        <ele>505.8</ele>
        <time>2022-09-26T14:02:19Z</time>
      </trkpt>
      <trkpt lat="46.06281" lon="5.88957">
        <ele>505.6</ele>
        <time>2022-09-26T14:02:20Z</time>
      </trkpt>
      <trkpt lat="46.06282" lon="5.88963">
        <ele>505.3</ele>
        <time>2022-09-26T14:02:21Z</time>
      </trkpt>
      <trkpt lat="46.06285" lon="5.88969">
        <ele>505.1</ele>
        <time>2022-09-26T14:02:22Z</time>
      </trkpt>
      <trkpt lat="46.06286" lon="5.88975">
        <ele>504.9</ele>
        <time>2022-09-26T14:02:23Z</time>
      </trkpt>
      <trkpt lat="46.06289" lon="5.88982">
        <ele>504.7</ele>
        <time>2022-09-26T14:02:24Z</time>
      </trkpt>
      <trkpt lat="46.0629" lon="5.88988">
        <ele>504.5</ele>
        <time>2022-09-26T14:02:25Z</time>
      </trkpt>
      <trkpt lat="46.06291" lon="5.88995">
        <ele>504.3</ele>
        <time>2022-09-26T14:02:26Z</time>
      </trkpt>
      <trkpt lat="46.06293" lon="5.89001">
        <ele>504.1</ele>
        <time>2022-09-26T14:02:27Z</time>
      </trkpt>
      <trkpt lat="46.06294" lon="5.89008">
        <ele>503.9</ele>
        <time>2022-09-26T14:02:28Z</time>
      </trkpt>
      <trkpt lat="46.06296" lon="5.89013">
        <ele>503.7</ele>
        <time>2022-09-26T14:02:29Z</time>
      </trkpt>
      <trkpt lat="46.06297" lon="5.89019">
        <ele>503.5</ele>
        <time>2022-09-26T14:02:30Z</time>
      </trkpt>
      <trkpt lat="46.06299" lon="5.89025">
        <ele>503.3</ele>
        <time>2022-09-26T14:02:31Z</time>
      </trkpt>
      <trkpt lat="46.063" lon="5.89031">
        <ele>503.1</ele>
        <time>2022-09-26T14:02:32Z</time>
      </trkpt>
      <trkpt lat="46.06302" lon="5.89036">
        <ele>503</ele>
        <time>2022-09-26T14:02:33Z</time>
      </trkpt>
      <trkpt lat="46.06303" lon="5.89041">
        <ele>502.8</ele>
        <time>2022-09-26T14:02:34Z</time>
      </trkpt>
      <trkpt lat="46.06305" lon="5.89047">
        <ele>502.6</ele>
        <time>2022-09-26T14:02:35Z</time>
      </trkpt>
      <trkpt lat="46.06307" lon="5.89053">
        <ele>502.5</ele>
        <time>2022-09-26T14:02:36Z</time>
      </trkpt>
      <trkpt lat="46.06307" lon="5.89059">
        <ele>502.3</ele>
        <time>2022-09-26T14:02:37Z</time>
      </trkpt>
      <trkpt lat="46.06309" lon="5.89067">
        <ele>502.2</ele>
        <time>2022-09-26T14:02:38Z</time>
      </trkpt>
      <trkpt lat="46.06311" lon="5.89074">
        <ele>502</ele>
        <time>2022-09-26T14:02:39Z</time>
      </trkpt>
      <trkpt lat="46.06313" lon="5.89081">
        <ele>501.9</ele>
        <time>2022-09-26T14:02:40Z</time>
      </trkpt>
      <trkpt lat="46.06315" lon="5.89088">
        <ele>501.7</ele>
        <time>2022-09-26T14:02:41Z</time>
      </trkpt>
      <trkpt lat="46.06317" lon="5.89097">
        <ele>501.6</ele>
        <time>2022-09-26T14:02:42Z</time>
      </trkpt>
      <trkpt lat="46.06319" lon="5.89103">
        <ele>501.5</ele>
        <time>2022-09-26T14:02:43Z</time>
      </trkpt>
      <trkpt lat="46.0632" lon="5.89108">
        <ele>501.3</ele>
        <time>2022-09-26T14:02:44Z</time>
      </trkpt>
      <trkpt lat="46.06322" lon="5.89114">
        <ele>501.2</ele>
        <time>2022-09-26T14:02:45Z</time>
      </trkpt>
      <trkpt lat="46.06323" lon="5.89119">
        <ele>501.1</ele>
        <time>2022-09-26T14:02:46Z</time>
      </trkpt>
      <trkpt lat="46.06324" lon="5.89124">
        <ele>501</ele>
        <time>2022-09-26T14:02:47Z</time>
      </trkpt>
      <trkpt lat="46.06325" lon="5.89128">
        <ele>501</ele>
        <time>2022-09-26T14:02:48Z</time>
      </trkpt>
      <trkpt lat="46.06326" lon="5.89133">
        <ele>500.9</ele>
        <time>2022-09-26T14:02:49Z</time>
      </trkpt>
      <trkpt lat="46.06326" lon="5.89135">
        <ele>500.9</ele>
        <time>2022-09-26T14:02:50Z</time>
      </trkpt>
      <trkpt lat="46.06325" lon="5.89139">
        <ele>501</ele>
        <time>2022-09-26T14:02:51Z</time>
      </trkpt>
      <trkpt lat="46.06324" lon="5.89142">
        <ele>501.2</ele>
        <time>2022-09-26T14:02:52Z</time>
      </trkpt>
      <trkpt lat="46.06323" lon="5.89147">
        <ele>501.5</ele>
        <time>2022-09-26T14:02:53Z</time>
      </trkpt>
      <trkpt lat="46.06322" lon="5.89151">
        <ele>501.3</ele>
        <time>2022-09-26T14:02:54Z</time>
      </trkpt>
      <trkpt lat="46.06322" lon="5.89155">
        <ele>501.1</ele>
        <time>2022-09-26T14:02:55Z</time>
      </trkpt>
      <trkpt lat="46.06324" lon="5.89158">
        <ele>501</ele>
        <time>2022-09-26T14:02:56Z</time>
      </trkpt>
      <trkpt lat="46.06325" lon="5.89159">
        <ele>500.9</ele>
        <time>2022-09-26T14:02:57Z</time>
      </trkpt>
      <trkpt lat="46.06325" lon="5.89165">
        <ele>500.7</ele>
        <time>2022-09-26T14:02:58Z</time>
      </trkpt>
      <trkpt lat="46.06326" lon="5.89167">
        <ele>500.6</ele>
        <time>2022-09-26T14:02:59Z</time>
      </trkpt>
      <trkpt lat="46.06328" lon="5.8917">
        <ele>500.4</ele>
        <time>2022-09-26T14:03:00Z</time>
      </trkpt>
      <trkpt lat="46.06331" lon="5.89172">
        <ele>500.2</ele>
        <time>2022-09-26T14:03:01Z</time>
      </trkpt>
      <trkpt lat="46.06334" lon="5.89174">
        <ele>499.8</ele>
        <time>2022-09-26T14:03:02Z</time>
      </trkpt>
      <trkpt lat="46.06336" lon="5.89177">
        <ele>499.7</ele>
        <time>2022-09-26T14:03:03Z</time>
      </trkpt>
      <trkpt lat="46.06339" lon="5.89181">
        <ele>499.6</ele>
        <time>2022-09-26T14:03:04Z</time>
      </trkpt>
      <trkpt lat="46.06341" lon="5.89186">
        <ele>499.5</ele>
        <time>2022-09-26T14:03:05Z</time>
      </trkpt>
      <trkpt lat="46.06342" lon="5.89191">
        <ele>499.5</ele>
        <time>2022-09-26T14:03:06Z</time>
      </trkpt>
      <trkpt lat="46.06343" lon="5.89197">
        <ele>499.4</ele>
        <time>2022-09-26T14:03:07Z</time>
      </trkpt>
      <trkpt lat="46.06345" lon="5.89202">
        <ele>499.4</ele>
        <time>2022-09-26T14:03:08Z</time>
      </trkpt>
      <trkpt lat="46.06346" lon="5.89209">
        <ele>499.3</ele>
        <time>2022-09-26T14:03:09Z</time>
      </trkpt>
      <trkpt lat="46.06348" lon="5.89215">
        <ele>499.3</ele>
        <time>2022-09-26T14:03:10Z</time>
      </trkpt>
      <trkpt lat="46.0635" lon="5.89222">
        <ele>499.2</ele>
        <time>2022-09-26T14:03:11Z</time>
      </trkpt>
      <trkpt lat="46.06352" lon="5.89229">
        <ele>499.2</ele>
        <time>2022-09-26T14:03:12Z</time>
      </trkpt>
      <trkpt lat="46.06354" lon="5.89235">
        <ele>499.3</ele>
        <time>2022-09-26T14:03:13Z</time>
      </trkpt>
      <trkpt lat="46.06355" lon="5.89241">
        <ele>499.4</ele>
        <time>2022-09-26T14:03:14Z</time>
      </trkpt>
      <trkpt lat="46.06356" lon="5.89246">
        <ele>499.5</ele>
        <time>2022-09-26T14:03:15Z</time>
      </trkpt>
      <trkpt lat="46.06358" lon="5.89252">
        <ele>499.6</ele>
        <time>2022-09-26T14:03:16Z</time>
      </trkpt>
      <trkpt lat="46.06359" lon="5.89257">
        <ele>499.7</ele>
        <time>2022-09-26T14:03:17Z</time>
      </trkpt>
      <trkpt lat="46.0636" lon="5.89261">
        <ele>499.8</ele>
        <time>2022-09-26T14:03:18Z</time>
      </trkpt>
      <trkpt lat="46.06361" lon="5.89267">
        <ele>499.9</ele>
        <time>2022-09-26T14:03:19Z</time>
      </trkpt>
      <trkpt lat="46.06363" lon="5.89272">
        <ele>500</ele>
        <time>2022-09-26T14:03:20Z</time>
      </trkpt>
      <trkpt lat="46.06364" lon="5.89276">
        <ele>500.1</ele>
        <time>2022-09-26T14:03:21Z</time>
      </trkpt>
      <trkpt lat="46.06366" lon="5.89281">
        <ele>500.3</ele>
        <time>2022-09-26T14:03:22Z</time>
      </trkpt>
      <trkpt lat="46.06366" lon="5.89283">
        <ele>500.3</ele>
        <time>2022-09-26T14:03:23Z</time>
      </trkpt>
      <trkpt lat="46.06368" lon="5.89287">
        <ele>500.4</ele>
        <time>2022-09-26T14:03:24Z</time>
      </trkpt>
      <trkpt lat="46.06368" lon="5.89289">
        <ele>500.5</ele>
        <time>2022-09-26T14:03:25Z</time>
      </trkpt>
      <trkpt lat="46.06369" lon="5.89294">
        <ele>500.6</ele>
        <time>2022-09-26T14:03:26Z</time>
      </trkpt>
      <trkpt lat="46.0637" lon="5.89296">
        <ele>500.7</ele>
        <time>2022-09-26T14:03:27Z</time>
      </trkpt>
      <trkpt lat="46.06371" lon="5.893">
        <ele>500.8</ele>
        <time>2022-09-26T14:03:28Z</time>
      </trkpt>
      <trkpt lat="46.06372" lon="5.89302">
        <ele>500.8</ele>
        <time>2022-09-26T14:03:29Z</time>
      </trkpt>
      <trkpt lat="46.06373" lon="5.89305">
        <ele>500.9</ele>
        <time>2022-09-26T14:03:30Z</time>
      </trkpt>
      <trkpt lat="46.06374" lon="5.8931">
        <ele>501.1</ele>
        <time>2022-09-26T14:03:31Z</time>
      </trkpt>
      <trkpt lat="46.06375" lon="5.89311">
        <ele>501.1</ele>
        <time>2022-09-26T14:03:32Z</time>
      </trkpt>
      <trkpt lat="46.06376" lon="5.89317">
        <ele>501.2</ele>
        <time>2022-09-26T14:03:33Z</time>
      </trkpt>
      <trkpt lat="46.06376" lon="5.89319">
        <ele>501.2</ele>
        <time>2022-09-26T14:03:34Z</time>
      </trkpt>
      <trkpt lat="46.06377" lon="5.8932">
        <ele>501.2</ele>
        <time>2022-09-26T14:03:35Z</time>
      </trkpt>
      <trkpt lat="46.06377" lon="5.89323">
        <ele>501.2</ele>
        <time>2022-09-26T14:03:36Z</time>
      </trkpt>
      <trkpt lat="46.06379" lon="5.89327">
        <ele>501.3</ele>
        <time>2022-09-26T14:03:37Z</time>
      </trkpt>
      <trkpt lat="46.06379" lon="5.89329">
        <ele>501.4</ele>
        <time>2022-09-26T14:03:38Z</time>
      </trkpt>
      <trkpt lat="46.0638" lon="5.89334">
        <ele>501.5</ele>
        <time>2022-09-26T14:03:39Z</time>
      </trkpt>
      <trkpt lat="46.06381" lon="5.89338">
        <ele>501.6</ele>
        <time>2022-09-26T14:03:40Z</time>
      </trkpt>
      <trkpt lat="46.06382" lon="5.89343">
        <ele>501.8</ele>
        <time>2022-09-26T14:03:41Z</time>
      </trkpt>
      <trkpt lat="46.06383" lon="5.89345">
        <ele>501.8</ele>
        <time>2022-09-26T14:03:42Z</time>
      </trkpt>
      <trkpt lat="46.06383" lon="5.89349">
        <ele>501.9</ele>
        <time>2022-09-26T14:03:43Z</time>
      </trkpt>
      <trkpt lat="46.06384" lon="5.89351">
        <ele>502</ele>
        <time>2022-09-26T14:03:44Z</time>
      </trkpt>
      <trkpt lat="46.06385" lon="5.89357">
        <ele>502.1</ele>
        <time>2022-09-26T14:03:45Z</time>
      </trkpt>
      <trkpt lat="46.06386" lon="5.89359">
        <ele>502.2</ele>
        <time>2022-09-26T14:03:46Z</time>
      </trkpt>
      <trkpt lat="46.06387" lon="5.89363">
        <ele>502.3</ele>
        <time>2022-09-26T14:03:47Z</time>
      </trkpt>
      <trkpt lat="46.06388" lon="5.89369">
        <ele>502.5</ele>
        <time>2022-09-26T14:03:48Z</time>
      </trkpt>
      <trkpt lat="46.0639" lon="5.89375">
        <ele>502.6</ele>
        <time>2022-09-26T14:03:49Z</time>
      </trkpt>
      <trkpt lat="46.06391" lon="5.8938">
        <ele>502.6</ele>
        <time>2022-09-26T14:03:50Z</time>
      </trkpt>
      <trkpt lat="46.06391" lon="5.89381">
        <ele>502.7</ele>
        <time>2022-09-26T14:03:51Z</time>
      </trkpt>
      <trkpt lat="46.06392" lon="5.89386">
        <ele>502.7</ele>
        <time>2022-09-26T14:03:52Z</time>
      </trkpt>
      <trkpt lat="46.06394" lon="5.8939">
        <ele>502.6</ele>
        <time>2022-09-26T14:03:53Z</time>
      </trkpt>
      <trkpt lat="46.06396" lon="5.89394">
        <ele>502.6</ele>
        <time>2022-09-26T14:03:54Z</time>
      </trkpt>
      <trkpt lat="46.06398" lon="5.89399">
        <ele>502.8</ele>
        <time>2022-09-26T14:03:55Z</time>
      </trkpt>
      <trkpt lat="46.06399" lon="5.89404">
        <ele>503</ele>
        <time>2022-09-26T14:03:56Z</time>
      </trkpt>
      <trkpt lat="46.06401" lon="5.89408">
        <ele>503.1</ele>
        <time>2022-09-26T14:03:57Z</time>
      </trkpt>
      <trkpt lat="46.06402" lon="5.89413">
        <ele>503.3</ele>
        <time>2022-09-26T14:03:58Z</time>
      </trkpt>
      <trkpt lat="46.06403" lon="5.89417">
        <ele>503.4</ele>
        <time>2022-09-26T14:03:59Z</time>
      </trkpt>
      <trkpt lat="46.06405" lon="5.89422">
        <ele>503.6</ele>
        <time>2022-09-26T14:04:00Z</time>
      </trkpt>
      <trkpt lat="46.06406" lon="5.89424">
        <ele>503.7</ele>
        <time>2022-09-26T14:04:01Z</time>
      </trkpt>
      <trkpt lat="46.06407" lon="5.89428">
        <ele>503.8</ele>
        <time>2022-09-26T14:04:02Z</time>
      </trkpt>
      <trkpt lat="46.06407" lon="5.89433">
        <ele>504</ele>
        <time>2022-09-26T14:04:03Z</time>
      </trkpt>
      <trkpt lat="46.06408" lon="5.89435">
        <ele>504</ele>
        <time>2022-09-26T14:04:04Z</time>
      </trkpt>
      <trkpt lat="46.06409" lon="5.89439">
        <ele>504.2</ele>
        <time>2022-09-26T14:04:05Z</time>
      </trkpt>
      <trkpt lat="46.0641" lon="5.89444">
        <ele>504.4</ele>
        <time>2022-09-26T14:04:06Z</time>
      </trkpt>
      <trkpt lat="46.06412" lon="5.89448">
        <ele>504.5</ele>
        <time>2022-09-26T14:04:07Z</time>
      </trkpt>
      <trkpt lat="46.06412" lon="5.89452">
        <ele>504.6</ele>
        <time>2022-09-26T14:04:08Z</time>
      </trkpt>
      <trkpt lat="46.06413" lon="5.89456">
        <ele>504.8</ele>
        <time>2022-09-26T14:04:09Z</time>
      </trkpt>
      <trkpt lat="46.06413" lon="5.89461">
        <ele>505</ele>
        <time>2022-09-26T14:04:10Z</time>
      </trkpt>
      <trkpt lat="46.06414" lon="5.89467">
        <ele>505.2</ele>
        <time>2022-09-26T14:04:11Z</time>
      </trkpt>
      <trkpt lat="46.06414" lon="5.89469">
        <ele>505.3</ele>
        <time>2022-09-26T14:04:12Z</time>
      </trkpt>
      <trkpt lat="46.06415" lon="5.89473">
        <ele>505.4</ele>
        <time>2022-09-26T14:04:13Z</time>
      </trkpt>
      <trkpt lat="46.06415" lon="5.89477">
        <ele>505.6</ele>
        <time>2022-09-26T14:04:14Z</time>
      </trkpt>
      <trkpt lat="46.06417" lon="5.89482">
        <ele>505.8</ele>
        <time>2022-09-26T14:04:15Z</time>
      </trkpt>
      <trkpt lat="46.06417" lon="5.89484">
        <ele>505.8</ele>
        <time>2022-09-26T14:04:16Z</time>
      </trkpt>
      <trkpt lat="46.06419" lon="5.89489">
        <ele>506</ele>
        <time>2022-09-26T14:04:17Z</time>
      </trkpt>
      <trkpt lat="46.06419" lon="5.89491">
        <ele>506.1</ele>
        <time>2022-09-26T14:04:18Z</time>
      </trkpt>
      <trkpt lat="46.0642" lon="5.89495">
        <ele>506.3</ele>
        <time>2022-09-26T14:04:19Z</time>
      </trkpt>
      <trkpt lat="46.0642" lon="5.89497">
        <ele>506.3</ele>
        <time>2022-09-26T14:04:20Z</time>
      </trkpt>
      <trkpt lat="46.06421" lon="5.89501">
        <ele>506.5</ele>
        <time>2022-09-26T14:04:21Z</time>
      </trkpt>
      <trkpt lat="46.06421" lon="5.89503">
        <ele>506.6</ele>
        <time>2022-09-26T14:04:22Z</time>
      </trkpt>
      <trkpt lat="46.06422" lon="5.89507">
        <ele>506.8</ele>
        <time>2022-09-26T14:04:23Z</time>
      </trkpt>
      <trkpt lat="46.06423" lon="5.89509">
        <ele>506.8</ele>
        <time>2022-09-26T14:04:24Z</time>
      </trkpt>
      <trkpt lat="46.06423" lon="5.89511">
        <ele>506.9</ele>
        <time>2022-09-26T14:04:25Z</time>
      </trkpt>
      <trkpt lat="46.06423" lon="5.89514">
        <ele>507</ele>
        <time>2022-09-26T14:04:26Z</time>
      </trkpt>
      <trkpt lat="46.06425" lon="5.89517">
        <ele>506.9</ele>
        <time>2022-09-26T14:04:27Z</time>
      </trkpt>
      <trkpt lat="46.06425" lon="5.89519">
        <ele>506.9</ele>
        <time>2022-09-26T14:04:28Z</time>
      </trkpt>
      <trkpt lat="46.06427" lon="5.89522">
        <ele>507</ele>
        <time>2022-09-26T14:04:29Z</time>
      </trkpt>
      <trkpt lat="46.06428" lon="5.89523">
        <ele>507</ele>
        <time>2022-09-26T14:04:30Z</time>
      </trkpt>
      <trkpt lat="46.06429" lon="5.89527">
        <ele>507</ele>
        <time>2022-09-26T14:04:31Z</time>
      </trkpt>
      <trkpt lat="46.0643" lon="5.89528">
        <ele>507</ele>
        <time>2022-09-26T14:04:32Z</time>
      </trkpt>
      <trkpt lat="46.06431" lon="5.89532">
        <ele>507.1</ele>
        <time>2022-09-26T14:04:33Z</time>
      </trkpt>
      <trkpt lat="46.06431" lon="5.89534">
        <ele>507.1</ele>
        <time>2022-09-26T14:04:34Z</time>
      </trkpt>
      <trkpt lat="46.06432" lon="5.89538">
        <ele>507.2</ele>
        <time>2022-09-26T14:04:35Z</time>
      </trkpt>
      <trkpt lat="46.06432" lon="5.8954">
        <ele>507.2</ele>
        <time>2022-09-26T14:04:36Z</time>
      </trkpt>
      <trkpt lat="46.06433" lon="5.89544">
        <ele>507.3</ele>
        <time>2022-09-26T14:04:37Z</time>
      </trkpt>
      <trkpt lat="46.06435" lon="5.89548">
        <ele>507.4</ele>
        <time>2022-09-26T14:04:38Z</time>
      </trkpt>
      <trkpt lat="46.06435" lon="5.8955">
        <ele>507.4</ele>
        <time>2022-09-26T14:04:39Z</time>
      </trkpt>
      <trkpt lat="46.06436" lon="5.89555">
        <ele>507.6</ele>
        <time>2022-09-26T14:04:40Z</time>
      </trkpt>
      <trkpt lat="46.06437" lon="5.89556">
        <ele>507.6</ele>
        <time>2022-09-26T14:04:41Z</time>
      </trkpt>
      <trkpt lat="46.06438" lon="5.89562">
        <ele>507.7</ele>
        <time>2022-09-26T14:04:42Z</time>
      </trkpt>
      <trkpt lat="46.06438" lon="5.89564">
        <ele>507.8</ele>
        <time>2022-09-26T14:04:43Z</time>
      </trkpt>
      <trkpt lat="46.0644" lon="5.89569">
        <ele>507.9</ele>
        <time>2022-09-26T14:04:44Z</time>
      </trkpt>
      <trkpt lat="46.0644" lon="5.89571">
        <ele>507.9</ele>
        <time>2022-09-26T14:04:45Z</time>
      </trkpt>
      <trkpt lat="46.06442" lon="5.89575">
        <ele>508.1</ele>
        <time>2022-09-26T14:04:46Z</time>
      </trkpt>
      <trkpt lat="46.06443" lon="5.89577">
        <ele>508.1</ele>
        <time>2022-09-26T14:04:47Z</time>
      </trkpt>
      <trkpt lat="46.06444" lon="5.89581">
        <ele>508.2</ele>
        <time>2022-09-26T14:04:48Z</time>
      </trkpt>
      <trkpt lat="46.06444" lon="5.89583">
        <ele>508.3</ele>
        <time>2022-09-26T14:04:49Z</time>
      </trkpt>
      <trkpt lat="46.06445" lon="5.89587">
        <ele>508.4</ele>
        <time>2022-09-26T14:04:50Z</time>
      </trkpt>
      <trkpt lat="46.06445" lon="5.89588">
        <ele>508.4</ele>
        <time>2022-09-26T14:04:51Z</time>
      </trkpt>
      <trkpt lat="46.06446" lon="5.89592">
        <ele>508.5</ele>
        <time>2022-09-26T14:04:52Z</time>
      </trkpt>
      <trkpt lat="46.06447" lon="5.89593">
        <ele>508.5</ele>
        <time>2022-09-26T14:04:53Z</time>
      </trkpt>
      <trkpt lat="46.06448" lon="5.89597">
        <ele>508.6</ele>
        <time>2022-09-26T14:04:54Z</time>
      </trkpt>
      <trkpt lat="46.06448" lon="5.89598">
        <ele>508.7</ele>
        <time>2022-09-26T14:04:55Z</time>
      </trkpt>
      <trkpt lat="46.06449" lon="5.89602">
        <ele>508.8</ele>
        <time>2022-09-26T14:04:56Z</time>
      </trkpt>
      <trkpt lat="46.06449" lon="5.89604">
        <ele>508.9</ele>
        <time>2022-09-26T14:04:57Z</time>
      </trkpt>
      <trkpt lat="46.0645" lon="5.89608">
        <ele>509</ele>
        <time>2022-09-26T14:04:58Z</time>
      </trkpt>
      <trkpt lat="46.06451" lon="5.89609">
        <ele>509</ele>
        <time>2022-09-26T14:04:59Z</time>
      </trkpt>
      <trkpt lat="46.06452" lon="5.89613">
        <ele>509.2</ele>
        <time>2022-09-26T14:05:00Z</time>
      </trkpt>
      <trkpt lat="46.06452" lon="5.89614">
        <ele>509.2</ele>
        <time>2022-09-26T14:05:01Z</time>
      </trkpt>
      <trkpt lat="46.06454" lon="5.89618">
        <ele>509.3</ele>
        <time>2022-09-26T14:05:02Z</time>
      </trkpt>
      <trkpt lat="46.06454" lon="5.8962">
        <ele>509.4</ele>
        <time>2022-09-26T14:05:03Z</time>
      </trkpt>
      <trkpt lat="46.06455" lon="5.89624">
        <ele>509.5</ele>
        <time>2022-09-26T14:05:04Z</time>
      </trkpt>
      <trkpt lat="46.06456" lon="5.89625">
        <ele>509.6</ele>
        <time>2022-09-26T14:05:05Z</time>
      </trkpt>
      <trkpt lat="46.06458" lon="5.89628">
        <ele>509.7</ele>
        <time>2022-09-26T14:05:06Z</time>
      </trkpt>
      <trkpt lat="46.06459" lon="5.89629">
        <ele>509.8</ele>
        <time>2022-09-26T14:05:07Z</time>
      </trkpt>
      <trkpt lat="46.0646" lon="5.89632">
        <ele>509.9</ele>
        <time>2022-09-26T14:05:08Z</time>
      </trkpt>
      <trkpt lat="46.06461" lon="5.89633">
        <ele>509.9</ele>
        <time>2022-09-26T14:05:09Z</time>
      </trkpt>
      <trkpt lat="46.06463" lon="5.89637">
        <ele>510.1</ele>
        <time>2022-09-26T14:05:10Z</time>
      </trkpt>
      <trkpt lat="46.06464" lon="5.89638">
        <ele>510.1</ele>
        <time>2022-09-26T14:05:11Z</time>
      </trkpt>
      <trkpt lat="46.06465" lon="5.89642">
        <ele>510.3</ele>
        <time>2022-09-26T14:05:12Z</time>
      </trkpt>
      <trkpt lat="46.06466" lon="5.89643">
        <ele>510.3</ele>
        <time>2022-09-26T14:05:13Z</time>
      </trkpt>
      <trkpt lat="46.06468" lon="5.89647">
        <ele>510.4</ele>
        <time>2022-09-26T14:05:14Z</time>
      </trkpt>
      <trkpt lat="46.06468" lon="5.89647">
        <ele>510.5</ele>
        <time>2022-09-26T14:05:15Z</time>
      </trkpt>
      <trkpt lat="46.0647" lon="5.89651">
        <ele>510.6</ele>
        <time>2022-09-26T14:05:16Z</time>
      </trkpt>
      <trkpt lat="46.06471" lon="5.89652">
        <ele>510.6</ele>
        <time>2022-09-26T14:05:17Z</time>
      </trkpt>
      <trkpt lat="46.06473" lon="5.89655">
        <ele>510.8</ele>
        <time>2022-09-26T14:05:18Z</time>
      </trkpt>
      <trkpt lat="46.06474" lon="5.89656">
        <ele>510.8</ele>
        <time>2022-09-26T14:05:19Z</time>
      </trkpt>
      <trkpt lat="46.06476" lon="5.8966">
        <ele>510.9</ele>
        <time>2022-09-26T14:05:20Z</time>
      </trkpt>
      <trkpt lat="46.06477" lon="5.89661">
        <ele>510.9</ele>
        <time>2022-09-26T14:05:21Z</time>
      </trkpt>
      <trkpt lat="46.06479" lon="5.89663">
        <ele>511</ele>
        <time>2022-09-26T14:05:22Z</time>
      </trkpt>
      <trkpt lat="46.06479" lon="5.89664">
        <ele>511</ele>
        <time>2022-09-26T14:05:23Z</time>
      </trkpt>
      <trkpt lat="46.06481" lon="5.89667">
        <ele>511.1</ele>
        <time>2022-09-26T14:05:24Z</time>
      </trkpt>
      <trkpt lat="46.06482" lon="5.89668">
        <ele>511.1</ele>
        <time>2022-09-26T14:05:25Z</time>
      </trkpt>
      <trkpt lat="46.06484" lon="5.89671">
        <ele>511.2</ele>
        <time>2022-09-26T14:05:26Z</time>
      </trkpt>
      <trkpt lat="46.06484" lon="5.89672">
        <ele>511.2</ele>
        <time>2022-09-26T14:05:27Z</time>
      </trkpt>
      <trkpt lat="46.06486" lon="5.89674">
        <ele>511.2</ele>
        <time>2022-09-26T14:05:28Z</time>
      </trkpt>
      <trkpt lat="46.06487" lon="5.89675">
        <ele>511.3</ele>
        <time>2022-09-26T14:05:29Z</time>
      </trkpt>
      <trkpt lat="46.06489" lon="5.89678">
        <ele>511.3</ele>
        <time>2022-09-26T14:05:30Z</time>
      </trkpt>
      <trkpt lat="46.0649" lon="5.89679">
        <ele>511.4</ele>
        <time>2022-09-26T14:05:31Z</time>
      </trkpt>
      <trkpt lat="46.06492" lon="5.89682">
        <ele>511.4</ele>
        <time>2022-09-26T14:05:32Z</time>
      </trkpt>
      <trkpt lat="46.06493" lon="5.89683">
        <ele>511.5</ele>
        <time>2022-09-26T14:05:33Z</time>
      </trkpt>
      <trkpt lat="46.06494" lon="5.89687">
        <ele>511.5</ele>
        <time>2022-09-26T14:05:34Z</time>
      </trkpt>
      <trkpt lat="46.06495" lon="5.89688">
        <ele>511.6</ele>
        <time>2022-09-26T14:05:35Z</time>
      </trkpt>
      <trkpt lat="46.06496" lon="5.89691">
        <ele>511.6</ele>
        <time>2022-09-26T14:05:36Z</time>
      </trkpt>
      <trkpt lat="46.06497" lon="5.89692">
        <ele>511.7</ele>
        <time>2022-09-26T14:05:37Z</time>
      </trkpt>
      <trkpt lat="46.06499" lon="5.89694">
        <ele>511.8</ele>
        <time>2022-09-26T14:05:38Z</time>
      </trkpt>
      <trkpt lat="46.065" lon="5.89695">
        <ele>511.9</ele>
        <time>2022-09-26T14:05:39Z</time>
      </trkpt>
      <trkpt lat="46.06502" lon="5.89699">
        <ele>512</ele>
        <time>2022-09-26T14:05:40Z</time>
      </trkpt>
      <trkpt lat="46.06502" lon="5.89699">
        <ele>512.1</ele>
        <time>2022-09-26T14:05:41Z</time>
      </trkpt>
      <trkpt lat="46.06504" lon="5.89703">
        <ele>512.3</ele>
        <time>2022-09-26T14:05:42Z</time>
      </trkpt>
      <trkpt lat="46.06505" lon="5.89704">
        <ele>512.3</ele>
        <time>2022-09-26T14:05:43Z</time>
      </trkpt>
      <trkpt lat="46.06506" lon="5.89705">
        <ele>512.4</ele>
        <time>2022-09-26T14:05:44Z</time>
      </trkpt>
      <trkpt lat="46.06507" lon="5.89706">
        <ele>512.5</ele>
        <time>2022-09-26T14:05:45Z</time>
      </trkpt>
      <trkpt lat="46.06508" lon="5.89707">
        <ele>512.6</ele>
        <time>2022-09-26T14:05:46Z</time>
      </trkpt>
      <trkpt lat="46.06509" lon="5.89709">
        <ele>512.7</ele>
        <time>2022-09-26T14:05:47Z</time>
      </trkpt>
      <trkpt lat="46.0651" lon="5.8971">
        <ele>512.8</ele>
        <time>2022-09-26T14:05:48Z</time>
      </trkpt>
      <trkpt lat="46.06512" lon="5.89713">
        <ele>512.9</ele>
        <time>2022-09-26T14:05:49Z</time>
      </trkpt>
      <trkpt lat="46.06512" lon="5.89714">
        <ele>513</ele>
        <time>2022-09-26T14:05:50Z</time>
      </trkpt>
      <trkpt lat="46.06514" lon="5.89716">
        <ele>513.1</ele>
        <time>2022-09-26T14:05:51Z</time>
      </trkpt>
      <trkpt lat="46.06515" lon="5.89717">
        <ele>513.2</ele>
        <time>2022-09-26T14:05:52Z</time>
      </trkpt>
      <trkpt lat="46.06516" lon="5.89718">
        <ele>513.3</ele>
        <time>2022-09-26T14:05:53Z</time>
      </trkpt>
      <trkpt lat="46.06517" lon="5.89721">
        <ele>513.4</ele>
        <time>2022-09-26T14:05:54Z</time>
      </trkpt>
      <trkpt lat="46.06518" lon="5.89722">
        <ele>513.5</ele>
        <time>2022-09-26T14:05:55Z</time>
      </trkpt>
      <trkpt lat="46.06519" lon="5.89724">
        <ele>513.6</ele>
        <time>2022-09-26T14:05:56Z</time>
      </trkpt>
      <trkpt lat="46.0652" lon="5.89727">
        <ele>513.8</ele>
        <time>2022-09-26T14:05:57Z</time>
      </trkpt>
      <trkpt lat="46.06521" lon="5.89728">
        <ele>513.9</ele>
        <time>2022-09-26T14:05:58Z</time>
      </trkpt>
      <trkpt lat="46.06522" lon="5.8973">
        <ele>514</ele>
        <time>2022-09-26T14:05:59Z</time>
      </trkpt>
      <trkpt lat="46.06524" lon="5.89733">
        <ele>514.2</ele>
        <time>2022-09-26T14:06:00Z</time>
      </trkpt>
      <trkpt lat="46.06525" lon="5.89734">
        <ele>514.3</ele>
        <time>2022-09-26T14:06:01Z</time>
      </trkpt>
      <trkpt lat="46.06527" lon="5.89736">
        <ele>514.4</ele>
        <time>2022-09-26T14:06:02Z</time>
      </trkpt>
      <trkpt lat="46.06527" lon="5.89738">
        <ele>514.5</ele>
        <time>2022-09-26T14:06:03Z</time>
      </trkpt>
      <trkpt lat="46.06529" lon="5.89739">
        <ele>514.6</ele>
        <time>2022-09-26T14:06:04Z</time>
      </trkpt>
      <trkpt lat="46.0653" lon="5.8974">
        <ele>514.7</ele>
        <time>2022-09-26T14:06:05Z</time>
      </trkpt>
      <trkpt lat="46.06531" lon="5.89742">
        <ele>514.8</ele>
        <time>2022-09-26T14:06:06Z</time>
      </trkpt>
      <trkpt lat="46.06533" lon="5.89744">
        <ele>514.9</ele>
        <time>2022-09-26T14:06:07Z</time>
      </trkpt>
      <trkpt lat="46.06535" lon="5.89747">
        <ele>515.1</ele>
        <time>2022-09-26T14:06:08Z</time>
      </trkpt>
      <trkpt lat="46.06536" lon="5.89748">
        <ele>515.2</ele>
        <time>2022-09-26T14:06:09Z</time>
      </trkpt>
      <trkpt lat="46.06537" lon="5.8975">
        <ele>515.3</ele>
        <time>2022-09-26T14:06:10Z</time>
      </trkpt>
      <trkpt lat="46.06538" lon="5.89751">
        <ele>515.4</ele>
        <time>2022-09-26T14:06:11Z</time>
      </trkpt>
      <trkpt lat="46.06538" lon="5.89754">
        <ele>515.5</ele>
        <time>2022-09-26T14:06:12Z</time>
      </trkpt>
      <trkpt lat="46.0654" lon="5.89755">
        <ele>515.6</ele>
        <time>2022-09-26T14:06:13Z</time>
      </trkpt>
      <trkpt lat="46.06541" lon="5.89756">
        <ele>515.7</ele>
        <time>2022-09-26T14:06:14Z</time>
      </trkpt>
      <trkpt lat="46.06543" lon="5.89758">
        <ele>515.8</ele>
        <time>2022-09-26T14:06:15Z</time>
      </trkpt>
      <trkpt lat="46.06545" lon="5.8976">
        <ele>516</ele>
        <time>2022-09-26T14:06:16Z</time>
      </trkpt>
      <trkpt lat="46.06546" lon="5.8976">
        <ele>516.1</ele>
        <time>2022-09-26T14:06:17Z</time>
      </trkpt>
      <trkpt lat="46.06548" lon="5.89762">
        <ele>516.2</ele>
        <time>2022-09-26T14:06:18Z</time>
      </trkpt>
      <trkpt lat="46.0655" lon="5.89762">
        <ele>516.3</ele>
        <time>2022-09-26T14:06:19Z</time>
      </trkpt>
      <trkpt lat="46.06552" lon="5.89763">
        <ele>516.5</ele>
        <time>2022-09-26T14:06:20Z</time>
      </trkpt>
      <trkpt lat="46.06553" lon="5.89763">
        <ele>516.5</ele>
        <time>2022-09-26T14:06:21Z</time>
      </trkpt>
      <trkpt lat="46.06555" lon="5.89764">
        <ele>516.6</ele>
        <time>2022-09-26T14:06:22Z</time>
      </trkpt>
      <trkpt lat="46.06556" lon="5.89764">
        <ele>516.7</ele>
        <time>2022-09-26T14:06:23Z</time>
      </trkpt>
      <trkpt lat="46.06558" lon="5.89765">
        <ele>516.8</ele>
        <time>2022-09-26T14:06:24Z</time>
      </trkpt>
      <trkpt lat="46.0656" lon="5.89765">
        <ele>516.9</ele>
        <time>2022-09-26T14:06:25Z</time>
      </trkpt>
      <trkpt lat="46.06561" lon="5.89765">
        <ele>517</ele>
        <time>2022-09-26T14:06:26Z</time>
      </trkpt>
      <trkpt lat="46.06563" lon="5.89766">
        <ele>517.1</ele>
        <time>2022-09-26T14:06:27Z</time>
      </trkpt>
      <trkpt lat="46.06564" lon="5.89766">
        <ele>517.2</ele>
        <time>2022-09-26T14:06:28Z</time>
      </trkpt>
      <trkpt lat="46.06566" lon="5.89766">
        <ele>517.3</ele>
        <time>2022-09-26T14:06:29Z</time>
      </trkpt>
      <trkpt lat="46.06568" lon="5.89766">
        <ele>517.4</ele>
        <time>2022-09-26T14:06:30Z</time>
      </trkpt>
      <trkpt lat="46.06569" lon="5.89766">
        <ele>517.5</ele>
        <time>2022-09-26T14:06:31Z</time>
      </trkpt>
      <trkpt lat="46.0657" lon="5.89766">
        <ele>517.5</ele>
        <time>2022-09-26T14:06:32Z</time>
      </trkpt>
      <trkpt lat="46.06571" lon="5.89767">
        <ele>517.6</ele>
        <time>2022-09-26T14:06:33Z</time>
      </trkpt>
      <trkpt lat="46.06573" lon="5.89767">
        <ele>517.7</ele>
        <time>2022-09-26T14:06:34Z</time>
      </trkpt>
      <trkpt lat="46.06575" lon="5.89768">
        <ele>517.8</ele>
        <time>2022-09-26T14:06:35Z</time>
      </trkpt>
      <trkpt lat="46.06576" lon="5.89769">
        <ele>517.9</ele>
        <time>2022-09-26T14:06:36Z</time>
      </trkpt>
      <trkpt lat="46.06579" lon="5.89769">
        <ele>518</ele>
        <time>2022-09-26T14:06:37Z</time>
      </trkpt>
      <trkpt lat="46.0658" lon="5.89769">
        <ele>518.1</ele>
        <time>2022-09-26T14:06:38Z</time>
      </trkpt>
      <trkpt lat="46.06582" lon="5.8977">
        <ele>518.2</ele>
        <time>2022-09-26T14:06:39Z</time>
      </trkpt>
      <trkpt lat="46.06583" lon="5.8977">
        <ele>518.3</ele>
        <time>2022-09-26T14:06:40Z</time>
      </trkpt>
      <trkpt lat="46.06585" lon="5.89771">
        <ele>518.4</ele>
        <time>2022-09-26T14:06:41Z</time>
      </trkpt>
      <trkpt lat="46.06587" lon="5.89771">
        <ele>518.5</ele>
        <time>2022-09-26T14:06:42Z</time>
      </trkpt>
      <trkpt lat="46.0659" lon="5.89771">
        <ele>518.6</ele>
        <time>2022-09-26T14:06:43Z</time>
      </trkpt>
      <trkpt lat="46.0659" lon="5.89772">
        <ele>518.7</ele>
        <time>2022-09-26T14:06:44Z</time>
      </trkpt>
      <trkpt lat="46.06592" lon="5.89772">
        <ele>518.8</ele>
        <time>2022-09-26T14:06:45Z</time>
      </trkpt>
      <trkpt lat="46.06594" lon="5.89773">
        <ele>518.9</ele>
        <time>2022-09-26T14:06:46Z</time>
      </trkpt>
      <trkpt lat="46.06597" lon="5.89774">
        <ele>519</ele>
        <time>2022-09-26T14:06:47Z</time>
      </trkpt>
      <trkpt lat="46.06598" lon="5.89774">
        <ele>519.1</ele>
        <time>2022-09-26T14:06:48Z</time>
      </trkpt>
      <trkpt lat="46.06599" lon="5.89775">
        <ele>519.2</ele>
        <time>2022-09-26T14:06:49Z</time>
      </trkpt>
      <trkpt lat="46.06601" lon="5.89775">
        <ele>519.3</ele>
        <time>2022-09-26T14:06:50Z</time>
      </trkpt>
      <trkpt lat="46.06603" lon="5.89776">
        <ele>519.4</ele>
        <time>2022-09-26T14:06:51Z</time>
      </trkpt>
      <trkpt lat="46.06604" lon="5.89776">
        <ele>519.5</ele>
        <time>2022-09-26T14:06:52Z</time>
      </trkpt>
      <trkpt lat="46.06607" lon="5.89776">
        <ele>519.7</ele>
        <time>2022-09-26T14:06:53Z</time>
      </trkpt>
      <trkpt lat="46.06608" lon="5.89776">
        <ele>519.7</ele>
        <time>2022-09-26T14:06:54Z</time>
      </trkpt>
      <trkpt lat="46.0661" lon="5.89777">
        <ele>519.8</ele>
        <time>2022-09-26T14:06:55Z</time>
      </trkpt>
      <trkpt lat="46.06611" lon="5.89777">
        <ele>519.9</ele>
        <time>2022-09-26T14:06:56Z</time>
      </trkpt>
      <trkpt lat="46.06613" lon="5.89777">
        <ele>520</ele>
        <time>2022-09-26T14:06:57Z</time>
      </trkpt>
      <trkpt lat="46.06615" lon="5.89778">
        <ele>520.1</ele>
        <time>2022-09-26T14:06:58Z</time>
      </trkpt>
      <trkpt lat="46.06617" lon="5.89779">
        <ele>520.2</ele>
        <time>2022-09-26T14:06:59Z</time>
      </trkpt>
      <trkpt lat="46.06618" lon="5.8978">
        <ele>520.3</ele>
        <time>2022-09-26T14:07:00Z</time>
      </trkpt>
      <trkpt lat="46.06619" lon="5.89779">
        <ele>520.4</ele>
        <time>2022-09-26T14:07:01Z</time>
      </trkpt>
      <trkpt lat="46.06621" lon="5.8978">
        <ele>520.5</ele>
        <time>2022-09-26T14:07:02Z</time>
      </trkpt>
      <trkpt lat="46.06623" lon="5.8978">
        <ele>520.6</ele>
        <time>2022-09-26T14:07:03Z</time>
      </trkpt>
      <trkpt lat="46.06624" lon="5.8978">
        <ele>520.7</ele>
        <time>2022-09-26T14:07:04Z</time>
      </trkpt>
      <trkpt lat="46.06626" lon="5.89781">
        <ele>520.8</ele>
        <time>2022-09-26T14:07:05Z</time>
      </trkpt>
      <trkpt lat="46.06627" lon="5.89781">
        <ele>520.8</ele>
        <time>2022-09-26T14:07:06Z</time>
      </trkpt>
      <trkpt lat="46.06629" lon="5.89781">
        <ele>520.9</ele>
        <time>2022-09-26T14:07:07Z</time>
      </trkpt>
      <trkpt lat="46.0663" lon="5.89782">
        <ele>521</ele>
        <time>2022-09-26T14:07:08Z</time>
      </trkpt>
      <trkpt lat="46.06632" lon="5.89783">
        <ele>521.1</ele>
        <time>2022-09-26T14:07:09Z</time>
      </trkpt>
      <trkpt lat="46.06634" lon="5.89783">
        <ele>521.2</ele>
        <time>2022-09-26T14:07:10Z</time>
      </trkpt>
      <trkpt lat="46.06635" lon="5.89783">
        <ele>521.3</ele>
        <time>2022-09-26T14:07:11Z</time>
      </trkpt>
      <trkpt lat="46.06636" lon="5.89783">
        <ele>521.4</ele>
        <time>2022-09-26T14:07:12Z</time>
      </trkpt>
      <trkpt lat="46.06638" lon="5.89784">
        <ele>521.5</ele>
        <time>2022-09-26T14:07:13Z</time>
      </trkpt>
      <trkpt lat="46.06639" lon="5.89784">
        <ele>521.6</ele>
        <time>2022-09-26T14:07:14Z</time>
      </trkpt>
      <trkpt lat="46.06642" lon="5.89785">
        <ele>521.7</ele>
        <time>2022-09-26T14:07:15Z</time>
      </trkpt>
      <trkpt lat="46.06643" lon="5.89785">
        <ele>521.8</ele>
        <time>2022-09-26T14:07:16Z</time>
      </trkpt>
      <trkpt lat="46.06646" lon="5.89786">
        <ele>522</ele>
        <time>2022-09-26T14:07:17Z</time>
      </trkpt>
      <trkpt lat="46.06647" lon="5.89786">
        <ele>522</ele>
        <time>2022-09-26T14:07:18Z</time>
      </trkpt>
      <trkpt lat="46.06648" lon="5.89786">
        <ele>522.1</ele>
        <time>2022-09-26T14:07:19Z</time>
      </trkpt>
      <trkpt lat="46.0665" lon="5.89786">
        <ele>522.2</ele>
        <time>2022-09-26T14:07:20Z</time>
      </trkpt>
      <trkpt lat="46.06651" lon="5.89787">
        <ele>522.3</ele>
        <time>2022-09-26T14:07:21Z</time>
      </trkpt>
      <trkpt lat="46.06653" lon="5.89787">
        <ele>522.4</ele>
        <time>2022-09-26T14:07:22Z</time>
      </trkpt>
      <trkpt lat="46.06655" lon="5.89788">
        <ele>522.5</ele>
        <time>2022-09-26T14:07:23Z</time>
      </trkpt>
      <trkpt lat="46.06656" lon="5.89788">
        <ele>522.6</ele>
        <time>2022-09-26T14:07:24Z</time>
      </trkpt>
      <trkpt lat="46.06659" lon="5.89788">
        <ele>522.8</ele>
        <time>2022-09-26T14:07:25Z</time>
      </trkpt>
      <trkpt lat="46.0666" lon="5.89788">
        <ele>522.8</ele>
        <time>2022-09-26T14:07:26Z</time>
      </trkpt>
      <trkpt lat="46.06661" lon="5.89788">
        <ele>522.9</ele>
        <time>2022-09-26T14:07:27Z</time>
      </trkpt>
      <trkpt lat="46.06663" lon="5.89788">
        <ele>523</ele>
        <time>2022-09-26T14:07:28Z</time>
      </trkpt>
      <trkpt lat="46.06665" lon="5.89789">
        <ele>523.1</ele>
        <time>2022-09-26T14:07:29Z</time>
      </trkpt>
      <trkpt lat="46.06666" lon="5.89789">
        <ele>523.2</ele>
        <time>2022-09-26T14:07:30Z</time>
      </trkpt>
      <trkpt lat="46.06668" lon="5.89789">
        <ele>523.3</ele>
        <time>2022-09-26T14:07:31Z</time>
      </trkpt>
      <trkpt lat="46.06669" lon="5.8979">
        <ele>523.4</ele>
        <time>2022-09-26T14:07:32Z</time>
      </trkpt>
      <trkpt lat="46.06671" lon="5.8979">
        <ele>523.5</ele>
        <time>2022-09-26T14:07:33Z</time>
      </trkpt>
      <trkpt lat="46.06673" lon="5.8979">
        <ele>523.7</ele>
        <time>2022-09-26T14:07:34Z</time>
      </trkpt>
      <trkpt lat="46.06676" lon="5.89791">
        <ele>523.8</ele>
        <time>2022-09-26T14:07:35Z</time>
      </trkpt>
      <trkpt lat="46.06677" lon="5.89791">
        <ele>523.9</ele>
        <time>2022-09-26T14:07:36Z</time>
      </trkpt>
      <trkpt lat="46.06678" lon="5.89791">
        <ele>524</ele>
        <time>2022-09-26T14:07:37Z</time>
      </trkpt>
      <trkpt lat="46.0668" lon="5.89792">
        <ele>524.1</ele>
        <time>2022-09-26T14:07:38Z</time>
      </trkpt>
      <trkpt lat="46.06682" lon="5.89792">
        <ele>524.2</ele>
        <time>2022-09-26T14:07:39Z</time>
      </trkpt>
      <trkpt lat="46.06683" lon="5.89793">
        <ele>524.3</ele>
        <time>2022-09-26T14:07:40Z</time>
      </trkpt>
      <trkpt lat="46.06685" lon="5.89793">
        <ele>524.4</ele>
        <time>2022-09-26T14:07:41Z</time>
      </trkpt>
      <trkpt lat="46.06687" lon="5.89793">
        <ele>524.5</ele>
        <time>2022-09-26T14:07:42Z</time>
      </trkpt>
      <trkpt lat="46.06688" lon="5.89794">
        <ele>524.5</ele>
        <time>2022-09-26T14:07:43Z</time>
      </trkpt>
      <trkpt lat="46.0669" lon="5.89794">
        <ele>524.7</ele>
        <time>2022-09-26T14:07:44Z</time>
      </trkpt>
      <trkpt lat="46.06691" lon="5.89794">
        <ele>524.8</ele>
        <time>2022-09-26T14:07:45Z</time>
      </trkpt>
      <trkpt lat="46.06693" lon="5.89794">
        <ele>524.9</ele>
        <time>2022-09-26T14:07:46Z</time>
      </trkpt>
      <trkpt lat="46.06695" lon="5.89794">
        <ele>525</ele>
        <time>2022-09-26T14:07:47Z</time>
      </trkpt>
      <trkpt lat="46.06697" lon="5.89793">
        <ele>525.1</ele>
        <time>2022-09-26T14:07:48Z</time>
      </trkpt>
      <trkpt lat="46.067" lon="5.89793">
        <ele>525.2</ele>
        <time>2022-09-26T14:07:49Z</time>
      </trkpt>
      <trkpt lat="46.06701" lon="5.89793">
        <ele>525.3</ele>
        <time>2022-09-26T14:07:50Z</time>
      </trkpt>
      <trkpt lat="46.06702" lon="5.89793">
        <ele>525.4</ele>
        <time>2022-09-26T14:07:51Z</time>
      </trkpt>
      <trkpt lat="46.06704" lon="5.89793">
        <ele>525.4</ele>
        <time>2022-09-26T14:07:52Z</time>
      </trkpt>
      <trkpt lat="46.06706" lon="5.89793">
        <ele>525.5</ele>
        <time>2022-09-26T14:07:53Z</time>
      </trkpt>
      <trkpt lat="46.06707" lon="5.89793">
        <ele>525.5</ele>
        <time>2022-09-26T14:07:54Z</time>
      </trkpt>
      <trkpt lat="46.0671" lon="5.89793">
        <ele>525.6</ele>
        <time>2022-09-26T14:07:55Z</time>
      </trkpt>
      <trkpt lat="46.06711" lon="5.89793">
        <ele>525.6</ele>
        <time>2022-09-26T14:07:56Z</time>
      </trkpt>
      <trkpt lat="46.06714" lon="5.89793">
        <ele>525.7</ele>
        <time>2022-09-26T14:07:57Z</time>
      </trkpt>
      <trkpt lat="46.06715" lon="5.89792">
        <ele>525.7</ele>
        <time>2022-09-26T14:07:58Z</time>
      </trkpt>
      <trkpt lat="46.06716" lon="5.89791">
        <ele>525.7</ele>
        <time>2022-09-26T14:07:59Z</time>
      </trkpt>
      <trkpt lat="46.06718" lon="5.89791">
        <ele>525.8</ele>
        <time>2022-09-26T14:08:00Z</time>
      </trkpt>
      <trkpt lat="46.0672" lon="5.8979">
        <ele>525.8</ele>
        <time>2022-09-26T14:08:01Z</time>
      </trkpt>
      <trkpt lat="46.06721" lon="5.89789">
        <ele>525.8</ele>
        <time>2022-09-26T14:08:02Z</time>
      </trkpt>
      <trkpt lat="46.06724" lon="5.89787">
        <ele>525.9</ele>
        <time>2022-09-26T14:08:03Z</time>
      </trkpt>
      <trkpt lat="46.06725" lon="5.89787">
        <ele>525.9</ele>
        <time>2022-09-26T14:08:04Z</time>
      </trkpt>
      <trkpt lat="46.06726" lon="5.89786">
        <ele>526</ele>
        <time>2022-09-26T14:08:05Z</time>
      </trkpt>
      <trkpt lat="46.06728" lon="5.89786">
        <ele>526.1</ele>
        <time>2022-09-26T14:08:06Z</time>
      </trkpt>
      <trkpt lat="46.06731" lon="5.89785">
        <ele>526.3</ele>
        <time>2022-09-26T14:08:07Z</time>
      </trkpt>
      <trkpt lat="46.06732" lon="5.89785">
        <ele>526.4</ele>
        <time>2022-09-26T14:08:08Z</time>
      </trkpt>
      <trkpt lat="46.06733" lon="5.89784">
        <ele>526.5</ele>
        <time>2022-09-26T14:08:09Z</time>
      </trkpt>
      <trkpt lat="46.06735" lon="5.89783">
        <ele>526.6</ele>
        <time>2022-09-26T14:08:10Z</time>
      </trkpt>
      <trkpt lat="46.06738" lon="5.89781">
        <ele>526.8</ele>
        <time>2022-09-26T14:08:11Z</time>
      </trkpt>
      <trkpt lat="46.06738" lon="5.8978">
        <ele>526.9</ele>
        <time>2022-09-26T14:08:12Z</time>
      </trkpt>
      <trkpt lat="46.0674" lon="5.8978">
        <ele>527</ele>
        <time>2022-09-26T14:08:13Z</time>
      </trkpt>
      <trkpt lat="46.06741" lon="5.89779">
        <ele>527.1</ele>
        <time>2022-09-26T14:08:14Z</time>
      </trkpt>
      <trkpt lat="46.06744" lon="5.89777">
        <ele>527.3</ele>
        <time>2022-09-26T14:08:15Z</time>
      </trkpt>
      <trkpt lat="46.06744" lon="5.89776">
        <ele>527.3</ele>
        <time>2022-09-26T14:08:16Z</time>
      </trkpt>
      <trkpt lat="46.06746" lon="5.89775">
        <ele>527.5</ele>
        <time>2022-09-26T14:08:17Z</time>
      </trkpt>
      <trkpt lat="46.06747" lon="5.89774">
        <ele>527.6</ele>
        <time>2022-09-26T14:08:18Z</time>
      </trkpt>
      <trkpt lat="46.0675" lon="5.89772">
        <ele>527.8</ele>
        <time>2022-09-26T14:08:19Z</time>
      </trkpt>
      <trkpt lat="46.06751" lon="5.89772">
        <ele>527.8</ele>
        <time>2022-09-26T14:08:20Z</time>
      </trkpt>
      <trkpt lat="46.06752" lon="5.8977">
        <ele>528</ele>
        <time>2022-09-26T14:08:21Z</time>
      </trkpt>
      <trkpt lat="46.06754" lon="5.89769">
        <ele>528.1</ele>
        <time>2022-09-26T14:08:22Z</time>
      </trkpt>
      <trkpt lat="46.06755" lon="5.89768">
        <ele>528.2</ele>
        <time>2022-09-26T14:08:23Z</time>
      </trkpt>
      <trkpt lat="46.06757" lon="5.89767">
        <ele>528.3</ele>
        <time>2022-09-26T14:08:24Z</time>
      </trkpt>
      <trkpt lat="46.06759" lon="5.89766">
        <ele>528.5</ele>
        <time>2022-09-26T14:08:25Z</time>
      </trkpt>
      <trkpt lat="46.0676" lon="5.89765">
        <ele>528.6</ele>
        <time>2022-09-26T14:08:26Z</time>
      </trkpt>
      <trkpt lat="46.06762" lon="5.89764">
        <ele>528.7</ele>
        <time>2022-09-26T14:08:27Z</time>
      </trkpt>
      <trkpt lat="46.06763" lon="5.89763">
        <ele>528.8</ele>
        <time>2022-09-26T14:08:28Z</time>
      </trkpt>
      <trkpt lat="46.06765" lon="5.89762">
        <ele>529</ele>
        <time>2022-09-26T14:08:29Z</time>
      </trkpt>
      <trkpt lat="46.06766" lon="5.89761">
        <ele>529.1</ele>
        <time>2022-09-26T14:08:30Z</time>
      </trkpt>
      <trkpt lat="46.06768" lon="5.89761">
        <ele>529.2</ele>
        <time>2022-09-26T14:08:31Z</time>
      </trkpt>
      <trkpt lat="46.0677" lon="5.89759">
        <ele>529.3</ele>
        <time>2022-09-26T14:08:32Z</time>
      </trkpt>
      <trkpt lat="46.06771" lon="5.89758">
        <ele>529.4</ele>
        <time>2022-09-26T14:08:33Z</time>
      </trkpt>
      <trkpt lat="46.06773" lon="5.89758">
        <ele>529.5</ele>
        <time>2022-09-26T14:08:34Z</time>
      </trkpt>
      <trkpt lat="46.06774" lon="5.89757">
        <ele>529.7</ele>
        <time>2022-09-26T14:08:35Z</time>
      </trkpt>
      <trkpt lat="46.06776" lon="5.89756">
        <ele>529.8</ele>
        <time>2022-09-26T14:08:36Z</time>
      </trkpt>
      <trkpt lat="46.06778" lon="5.89755">
        <ele>529.9</ele>
        <time>2022-09-26T14:08:37Z</time>
      </trkpt>
      <trkpt lat="46.06779" lon="5.89754">
        <ele>530</ele>
        <time>2022-09-26T14:08:38Z</time>
      </trkpt>
      <trkpt lat="46.06781" lon="5.89754">
        <ele>530.1</ele>
        <time>2022-09-26T14:08:39Z</time>
      </trkpt>
      <trkpt lat="46.06782" lon="5.89753">
        <ele>530.2</ele>
        <time>2022-09-26T14:08:40Z</time>
      </trkpt>
      <trkpt lat="46.06785" lon="5.89752">
        <ele>530.6</ele>
        <time>2022-09-26T14:08:41Z</time>
      </trkpt>
      <trkpt lat="46.06786" lon="5.89752">
        <ele>530.7</ele>
        <time>2022-09-26T14:08:42Z</time>
      </trkpt>
      <trkpt lat="46.06789" lon="5.89751">
        <ele>531.1</ele>
        <time>2022-09-26T14:08:43Z</time>
      </trkpt>
      <trkpt lat="46.0679" lon="5.89751">
        <ele>531.2</ele>
        <time>2022-09-26T14:08:44Z</time>
      </trkpt>
      <trkpt lat="46.06791" lon="5.89751">
        <ele>531.4</ele>
        <time>2022-09-26T14:08:45Z</time>
      </trkpt>
      <trkpt lat="46.06793" lon="5.8975">
        <ele>531.6</ele>
        <time>2022-09-26T14:08:46Z</time>
      </trkpt>
      <trkpt lat="46.06795" lon="5.8975">
        <ele>531.8</ele>
        <time>2022-09-26T14:08:47Z</time>
      </trkpt>
      <trkpt lat="46.06797" lon="5.89749">
        <ele>532</ele>
        <time>2022-09-26T14:08:48Z</time>
      </trkpt>
      <trkpt lat="46.06799" lon="5.89749">
        <ele>532.4</ele>
        <time>2022-09-26T14:08:49Z</time>
      </trkpt>
      <trkpt lat="46.068" lon="5.89749">
        <ele>532.5</ele>
        <time>2022-09-26T14:08:50Z</time>
      </trkpt>
      <trkpt lat="46.06802" lon="5.89749">
        <ele>532.7</ele>
        <time>2022-09-26T14:08:51Z</time>
      </trkpt>
      <trkpt lat="46.06804" lon="5.89748">
        <ele>532.8</ele>
        <time>2022-09-26T14:08:52Z</time>
      </trkpt>
      <trkpt lat="46.06805" lon="5.89748">
        <ele>532.8</ele>
        <time>2022-09-26T14:08:53Z</time>
      </trkpt>
      <trkpt lat="46.06807" lon="5.89749">
        <ele>532.8</ele>
        <time>2022-09-26T14:08:54Z</time>
      </trkpt>
      <trkpt lat="46.0681" lon="5.89748">
        <ele>532.7</ele>
        <time>2022-09-26T14:08:55Z</time>
      </trkpt>
      <trkpt lat="46.06811" lon="5.89748">
        <ele>532.6</ele>
        <time>2022-09-26T14:08:56Z</time>
      </trkpt>
      <trkpt lat="46.06812" lon="5.89748">
        <ele>532.5</ele>
        <time>2022-09-26T14:08:57Z</time>
      </trkpt>
      <trkpt lat="46.06814" lon="5.89748">
        <ele>532.5</ele>
        <time>2022-09-26T14:08:58Z</time>
      </trkpt>
      <trkpt lat="46.06816" lon="5.89747">
        <ele>532.5</ele>
        <time>2022-09-26T14:08:59Z</time>
      </trkpt>
      <trkpt lat="46.06817" lon="5.89747">
        <ele>532.6</ele>
        <time>2022-09-26T14:09:00Z</time>
      </trkpt>
      <trkpt lat="46.06819" lon="5.89747">
        <ele>532.6</ele>
        <time>2022-09-26T14:09:01Z</time>
      </trkpt>
      <trkpt lat="46.0682" lon="5.89746">
        <ele>532.6</ele>
        <time>2022-09-26T14:09:02Z</time>
      </trkpt>
      <trkpt lat="46.06823" lon="5.89746">
        <ele>532.7</ele>
        <time>2022-09-26T14:09:03Z</time>
      </trkpt>
      <trkpt lat="46.06824" lon="5.89746">
        <ele>532.7</ele>
        <time>2022-09-26T14:09:04Z</time>
      </trkpt>
      <trkpt lat="46.06826" lon="5.89746">
        <ele>532.8</ele>
        <time>2022-09-26T14:09:05Z</time>
      </trkpt>
      <trkpt lat="46.06827" lon="5.89746">
        <ele>532.8</ele>
        <time>2022-09-26T14:09:06Z</time>
      </trkpt>
      <trkpt lat="46.06829" lon="5.89746">
        <ele>532.9</ele>
        <time>2022-09-26T14:09:07Z</time>
      </trkpt>
      <trkpt lat="46.06831" lon="5.89746">
        <ele>532.9</ele>
        <time>2022-09-26T14:09:08Z</time>
      </trkpt>
      <trkpt lat="46.06832" lon="5.89746">
        <ele>532.9</ele>
        <time>2022-09-26T14:09:09Z</time>
      </trkpt>
      <trkpt lat="46.06834" lon="5.89745">
        <ele>533</ele>
        <time>2022-09-26T14:09:10Z</time>
      </trkpt>
      <trkpt lat="46.06836" lon="5.89745">
        <ele>533</ele>
        <time>2022-09-26T14:09:11Z</time>
      </trkpt>
      <trkpt lat="46.06837" lon="5.89745">
        <ele>533.1</ele>
        <time>2022-09-26T14:09:12Z</time>
      </trkpt>
      <trkpt lat="46.06839" lon="5.89745">
        <ele>533.1</ele>
        <time>2022-09-26T14:09:13Z</time>
      </trkpt>
      <trkpt lat="46.06841" lon="5.89745">
        <ele>533.2</ele>
        <time>2022-09-26T14:09:14Z</time>
      </trkpt>
      <trkpt lat="46.06842" lon="5.89745">
        <ele>533.2</ele>
        <time>2022-09-26T14:09:15Z</time>
      </trkpt>
      <trkpt lat="46.06844" lon="5.89745">
        <ele>533.2</ele>
        <time>2022-09-26T14:09:16Z</time>
      </trkpt>
      <trkpt lat="46.06846" lon="5.89745">
        <ele>533.3</ele>
        <time>2022-09-26T14:09:17Z</time>
      </trkpt>
      <trkpt lat="46.06847" lon="5.89745">
        <ele>533.3</ele>
        <time>2022-09-26T14:09:18Z</time>
      </trkpt>
      <trkpt lat="46.06849" lon="5.89745">
        <ele>533.4</ele>
        <time>2022-09-26T14:09:19Z</time>
      </trkpt>
      <trkpt lat="46.06851" lon="5.89745">
        <ele>533.5</ele>
        <time>2022-09-26T14:09:20Z</time>
      </trkpt>
      <trkpt lat="46.06853" lon="5.89745">
        <ele>533.6</ele>
        <time>2022-09-26T14:09:21Z</time>
      </trkpt>
      <trkpt lat="46.06854" lon="5.89744">
        <ele>533.7</ele>
        <time>2022-09-26T14:09:22Z</time>
      </trkpt>
      <trkpt lat="46.06856" lon="5.89744">
        <ele>533.8</ele>
        <time>2022-09-26T14:09:23Z</time>
      </trkpt>
      <trkpt lat="46.06858" lon="5.89744">
        <ele>533.9</ele>
        <time>2022-09-26T14:09:24Z</time>
      </trkpt>
      <trkpt lat="46.0686" lon="5.89744">
        <ele>534</ele>
        <time>2022-09-26T14:09:25Z</time>
      </trkpt>
      <trkpt lat="46.06861" lon="5.89744">
        <ele>534.1</ele>
        <time>2022-09-26T14:09:26Z</time>
      </trkpt>
      <trkpt lat="46.06864" lon="5.89744">
        <ele>534.2</ele>
        <time>2022-09-26T14:09:27Z</time>
      </trkpt>
      <trkpt lat="46.06865" lon="5.89744">
        <ele>534.3</ele>
        <time>2022-09-26T14:09:28Z</time>
      </trkpt>
      <trkpt lat="46.06866" lon="5.89744">
        <ele>534.3</ele>
        <time>2022-09-26T14:09:29Z</time>
      </trkpt>
      <trkpt lat="46.06867" lon="5.89744">
        <ele>534.4</ele>
        <time>2022-09-26T14:09:30Z</time>
      </trkpt>
      <trkpt lat="46.06869" lon="5.89744">
        <ele>534.5</ele>
        <time>2022-09-26T14:09:31Z</time>
      </trkpt>
      <trkpt lat="46.0687" lon="5.89744">
        <ele>534.5</ele>
        <time>2022-09-26T14:09:32Z</time>
      </trkpt>
      <trkpt lat="46.06872" lon="5.89744">
        <ele>534.6</ele>
        <time>2022-09-26T14:09:33Z</time>
      </trkpt>
      <trkpt lat="46.06876" lon="5.89743">
        <ele>534.8</ele>
        <time>2022-09-26T14:09:34Z</time>
      </trkpt>
      <trkpt lat="46.06876" lon="5.89743">
        <ele>534.9</ele>
        <time>2022-09-26T14:09:35Z</time>
      </trkpt>
      <trkpt lat="46.06877" lon="5.89743">
        <ele>534.9</ele>
        <time>2022-09-26T14:09:36Z</time>
      </trkpt>
      <trkpt lat="46.06879" lon="5.89743">
        <ele>535</ele>
        <time>2022-09-26T14:09:37Z</time>
      </trkpt>
      <trkpt lat="46.06881" lon="5.89743">
        <ele>535.1</ele>
        <time>2022-09-26T14:09:38Z</time>
      </trkpt>
      <trkpt lat="46.06882" lon="5.89743">
        <ele>535.2</ele>
        <time>2022-09-26T14:09:39Z</time>
      </trkpt>
      <trkpt lat="46.06884" lon="5.89742">
        <ele>535.3</ele>
        <time>2022-09-26T14:09:40Z</time>
      </trkpt>
      <trkpt lat="46.06886" lon="5.89742">
        <ele>535.4</ele>
        <time>2022-09-26T14:09:41Z</time>
      </trkpt>
      <trkpt lat="46.06887" lon="5.89742">
        <ele>535.4</ele>
        <time>2022-09-26T14:09:42Z</time>
      </trkpt>
      <trkpt lat="46.06891" lon="5.89742">
        <ele>535.6</ele>
        <time>2022-09-26T14:09:43Z</time>
      </trkpt>
      <trkpt lat="46.06892" lon="5.89742">
        <ele>535.7</ele>
        <time>2022-09-26T14:09:44Z</time>
      </trkpt>
      <trkpt lat="46.06894" lon="5.89742">
        <ele>535.8</ele>
        <time>2022-09-26T14:09:45Z</time>
      </trkpt>
      <trkpt lat="46.06895" lon="5.89742">
        <ele>535.9</ele>
        <time>2022-09-26T14:09:46Z</time>
      </trkpt>
      <trkpt lat="46.06896" lon="5.89742">
        <ele>535.9</ele>
        <time>2022-09-26T14:09:47Z</time>
      </trkpt>
      <trkpt lat="46.06899" lon="5.89741">
        <ele>536.1</ele>
        <time>2022-09-26T14:09:48Z</time>
      </trkpt>
      <trkpt lat="46.069" lon="5.89741">
        <ele>536.1</ele>
        <time>2022-09-26T14:09:49Z</time>
      </trkpt>
      <trkpt lat="46.06903" lon="5.89741">
        <ele>536.3</ele>
        <time>2022-09-26T14:09:50Z</time>
      </trkpt>
      <trkpt lat="46.06904" lon="5.89741">
        <ele>536.4</ele>
        <time>2022-09-26T14:09:51Z</time>
      </trkpt>
      <trkpt lat="46.06907" lon="5.8974">
        <ele>536.5</ele>
        <time>2022-09-26T14:09:52Z</time>
      </trkpt>
      <trkpt lat="46.06908" lon="5.8974">
        <ele>536.6</ele>
        <time>2022-09-26T14:09:53Z</time>
      </trkpt>
      <trkpt lat="46.0691" lon="5.8974">
        <ele>536.7</ele>
        <time>2022-09-26T14:09:54Z</time>
      </trkpt>
      <trkpt lat="46.06912" lon="5.8974">
        <ele>536.8</ele>
        <time>2022-09-26T14:09:55Z</time>
      </trkpt>
      <trkpt lat="46.06915" lon="5.8974">
        <ele>536.9</ele>
        <time>2022-09-26T14:09:56Z</time>
      </trkpt>
      <trkpt lat="46.06916" lon="5.89741">
        <ele>537</ele>
        <time>2022-09-26T14:09:57Z</time>
      </trkpt>
      <trkpt lat="46.06919" lon="5.8974">
        <ele>537.2</ele>
        <time>2022-09-26T14:09:58Z</time>
      </trkpt>
      <trkpt lat="46.0692" lon="5.8974">
        <ele>537.2</ele>
        <time>2022-09-26T14:09:59Z</time>
      </trkpt>
      <trkpt lat="46.06922" lon="5.89739">
        <ele>537.3</ele>
        <time>2022-09-26T14:10:00Z</time>
      </trkpt>
      <trkpt lat="46.06924" lon="5.89739">
        <ele>537.4</ele>
        <time>2022-09-26T14:10:01Z</time>
      </trkpt>
      <trkpt lat="46.06926" lon="5.89738">
        <ele>537.6</ele>
        <time>2022-09-26T14:10:02Z</time>
      </trkpt>
      <trkpt lat="46.06927" lon="5.89738">
        <ele>537.6</ele>
        <time>2022-09-26T14:10:03Z</time>
      </trkpt>
      <trkpt lat="46.0693" lon="5.89738">
        <ele>537.8</ele>
        <time>2022-09-26T14:10:04Z</time>
      </trkpt>
      <trkpt lat="46.06931" lon="5.89738">
        <ele>537.8</ele>
        <time>2022-09-26T14:10:05Z</time>
      </trkpt>
      <trkpt lat="46.06934" lon="5.89738">
        <ele>538</ele>
        <time>2022-09-26T14:10:06Z</time>
      </trkpt>
      <trkpt lat="46.06935" lon="5.89738">
        <ele>538</ele>
        <time>2022-09-26T14:10:07Z</time>
      </trkpt>
      <trkpt lat="46.06938" lon="5.89738">
        <ele>538.2</ele>
        <time>2022-09-26T14:10:08Z</time>
      </trkpt>
      <trkpt lat="46.06939" lon="5.89738">
        <ele>538.2</ele>
        <time>2022-09-26T14:10:09Z</time>
      </trkpt>
      <trkpt lat="46.06942" lon="5.89737">
        <ele>538.3</ele>
        <time>2022-09-26T14:10:10Z</time>
      </trkpt>
      <trkpt lat="46.06943" lon="5.89737">
        <ele>538.4</ele>
        <time>2022-09-26T14:10:11Z</time>
      </trkpt>
      <trkpt lat="46.06945" lon="5.89737">
        <ele>538.5</ele>
        <time>2022-09-26T14:10:12Z</time>
      </trkpt>
      <trkpt lat="46.06946" lon="5.89737">
        <ele>538.6</ele>
        <time>2022-09-26T14:10:13Z</time>
      </trkpt>
      <trkpt lat="46.06949" lon="5.89737">
        <ele>538.7</ele>
        <time>2022-09-26T14:10:14Z</time>
      </trkpt>
      <trkpt lat="46.0695" lon="5.89737">
        <ele>538.8</ele>
        <time>2022-09-26T14:10:15Z</time>
      </trkpt>
      <trkpt lat="46.06953" lon="5.89737">
        <ele>538.9</ele>
        <time>2022-09-26T14:10:16Z</time>
      </trkpt>
      <trkpt lat="46.06954" lon="5.89737">
        <ele>539</ele>
        <time>2022-09-26T14:10:17Z</time>
      </trkpt>
      <trkpt lat="46.06955" lon="5.89736">
        <ele>539</ele>
        <time>2022-09-26T14:10:18Z</time>
      </trkpt>
      <trkpt lat="46.06957" lon="5.89736">
        <ele>539.1</ele>
        <time>2022-09-26T14:10:19Z</time>
      </trkpt>
      <trkpt lat="46.06959" lon="5.89736">
        <ele>539.2</ele>
        <time>2022-09-26T14:10:20Z</time>
      </trkpt>
      <trkpt lat="46.06961" lon="5.89735">
        <ele>539.3</ele>
        <time>2022-09-26T14:10:21Z</time>
      </trkpt>
      <trkpt lat="46.06964" lon="5.89735">
        <ele>539.4</ele>
        <time>2022-09-26T14:10:22Z</time>
      </trkpt>
      <trkpt lat="46.06965" lon="5.89735">
        <ele>539.5</ele>
        <time>2022-09-26T14:10:23Z</time>
      </trkpt>
      <trkpt lat="46.06966" lon="5.89735">
        <ele>539.6</ele>
        <time>2022-09-26T14:10:24Z</time>
      </trkpt>
      <trkpt lat="46.06968" lon="5.89734">
        <ele>539.7</ele>
        <time>2022-09-26T14:10:25Z</time>
      </trkpt>
      <trkpt lat="46.06971" lon="5.89733">
        <ele>539.8</ele>
        <time>2022-09-26T14:10:26Z</time>
      </trkpt>
      <trkpt lat="46.06971" lon="5.89733">
        <ele>539.9</ele>
        <time>2022-09-26T14:10:27Z</time>
      </trkpt>
      <trkpt lat="46.06974" lon="5.89732">
        <ele>540</ele>
        <time>2022-09-26T14:10:28Z</time>
      </trkpt>
      <trkpt lat="46.06975" lon="5.89732">
        <ele>540</ele>
        <time>2022-09-26T14:10:29Z</time>
      </trkpt>
      <trkpt lat="46.06977" lon="5.89732">
        <ele>540.1</ele>
        <time>2022-09-26T14:10:30Z</time>
      </trkpt>
      <trkpt lat="46.06978" lon="5.89731">
        <ele>540.2</ele>
        <time>2022-09-26T14:10:31Z</time>
      </trkpt>
      <trkpt lat="46.0698" lon="5.89731">
        <ele>540.3</ele>
        <time>2022-09-26T14:10:32Z</time>
      </trkpt>
      <trkpt lat="46.06982" lon="5.8973">
        <ele>540.4</ele>
        <time>2022-09-26T14:10:33Z</time>
      </trkpt>
      <trkpt lat="46.06983" lon="5.89729">
        <ele>540.5</ele>
        <time>2022-09-26T14:10:34Z</time>
      </trkpt>
      <trkpt lat="46.06985" lon="5.89729">
        <ele>540.6</ele>
        <time>2022-09-26T14:10:35Z</time>
      </trkpt>
      <trkpt lat="46.06988" lon="5.89728">
        <ele>540.7</ele>
        <time>2022-09-26T14:10:36Z</time>
      </trkpt>
      <trkpt lat="46.06989" lon="5.89728">
        <ele>540.7</ele>
        <time>2022-09-26T14:10:37Z</time>
      </trkpt>
      <trkpt lat="46.0699" lon="5.89727">
        <ele>540.8</ele>
        <time>2022-09-26T14:10:38Z</time>
      </trkpt>
      <trkpt lat="46.06992" lon="5.89726">
        <ele>540.9</ele>
        <time>2022-09-26T14:10:39Z</time>
      </trkpt>
      <trkpt lat="46.06994" lon="5.89726">
        <ele>541</ele>
        <time>2022-09-26T14:10:40Z</time>
      </trkpt>
      <trkpt lat="46.06996" lon="5.89725">
        <ele>541.1</ele>
        <time>2022-09-26T14:10:41Z</time>
      </trkpt>
      <trkpt lat="46.06997" lon="5.89724">
        <ele>541.2</ele>
        <time>2022-09-26T14:10:42Z</time>
      </trkpt>
      <trkpt lat="46.06999" lon="5.89724">
        <ele>541.3</ele>
        <time>2022-09-26T14:10:43Z</time>
      </trkpt>
      <trkpt lat="46.07001" lon="5.89723">
        <ele>541.4</ele>
        <time>2022-09-26T14:10:44Z</time>
      </trkpt>
      <trkpt lat="46.07002" lon="5.89722">
        <ele>541.4</ele>
        <time>2022-09-26T14:10:45Z</time>
      </trkpt>
      <trkpt lat="46.07005" lon="5.89721">
        <ele>541.6</ele>
        <time>2022-09-26T14:10:46Z</time>
      </trkpt>
      <trkpt lat="46.07006" lon="5.89721">
        <ele>541.6</ele>
        <time>2022-09-26T14:10:47Z</time>
      </trkpt>
      <trkpt lat="46.07007" lon="5.8972">
        <ele>541.7</ele>
        <time>2022-09-26T14:10:48Z</time>
      </trkpt>
      <trkpt lat="46.07009" lon="5.89719">
        <ele>541.8</ele>
        <time>2022-09-26T14:10:49Z</time>
      </trkpt>
      <trkpt lat="46.07011" lon="5.89719">
        <ele>541.9</ele>
        <time>2022-09-26T14:10:50Z</time>
      </trkpt>
      <trkpt lat="46.07012" lon="5.89719">
        <ele>541.9</ele>
        <time>2022-09-26T14:10:51Z</time>
      </trkpt>
      <trkpt lat="46.07014" lon="5.89718">
        <ele>542</ele>
        <time>2022-09-26T14:10:52Z</time>
      </trkpt>
      <trkpt lat="46.07015" lon="5.89717">
        <ele>542.1</ele>
        <time>2022-09-26T14:10:53Z</time>
      </trkpt>
      <trkpt lat="46.07018" lon="5.89716">
        <ele>542.2</ele>
        <time>2022-09-26T14:10:54Z</time>
      </trkpt>
      <trkpt lat="46.07019" lon="5.89715">
        <ele>542.3</ele>
        <time>2022-09-26T14:10:55Z</time>
      </trkpt>
      <trkpt lat="46.07021" lon="5.89715">
        <ele>542.4</ele>
        <time>2022-09-26T14:10:56Z</time>
      </trkpt>
      <trkpt lat="46.07022" lon="5.89714">
        <ele>542.5</ele>
        <time>2022-09-26T14:10:57Z</time>
      </trkpt>
      <trkpt lat="46.07025" lon="5.89713">
        <ele>542.6</ele>
        <time>2022-09-26T14:10:58Z</time>
      </trkpt>
      <trkpt lat="46.07026" lon="5.89712">
        <ele>542.7</ele>
        <time>2022-09-26T14:10:59Z</time>
      </trkpt>
      <trkpt lat="46.07029" lon="5.89711">
        <ele>542.8</ele>
        <time>2022-09-26T14:11:00Z</time>
      </trkpt>
      <trkpt lat="46.07029" lon="5.89711">
        <ele>542.8</ele>
        <time>2022-09-26T14:11:01Z</time>
      </trkpt>
      <trkpt lat="46.07032" lon="5.8971">
        <ele>543</ele>
        <time>2022-09-26T14:11:02Z</time>
      </trkpt>
      <trkpt lat="46.07033" lon="5.89709">
        <ele>543</ele>
        <time>2022-09-26T14:11:03Z</time>
      </trkpt>
      <trkpt lat="46.07036" lon="5.89708">
        <ele>543.2</ele>
        <time>2022-09-26T14:11:04Z</time>
      </trkpt>
      <trkpt lat="46.07037" lon="5.89708">
        <ele>543.2</ele>
        <time>2022-09-26T14:11:05Z</time>
      </trkpt>
      <trkpt lat="46.07038" lon="5.89707">
        <ele>543.3</ele>
        <time>2022-09-26T14:11:06Z</time>
      </trkpt>
      <trkpt lat="46.0704" lon="5.89706">
        <ele>543.4</ele>
        <time>2022-09-26T14:11:07Z</time>
      </trkpt>
      <trkpt lat="46.07042" lon="5.89705">
        <ele>543.5</ele>
        <time>2022-09-26T14:11:08Z</time>
      </trkpt>
      <trkpt lat="46.07043" lon="5.89705">
        <ele>543.6</ele>
        <time>2022-09-26T14:11:09Z</time>
      </trkpt>
      <trkpt lat="46.07045" lon="5.89705">
        <ele>543.7</ele>
        <time>2022-09-26T14:11:10Z</time>
      </trkpt>
      <trkpt lat="46.07047" lon="5.89704">
        <ele>543.8</ele>
        <time>2022-09-26T14:11:11Z</time>
      </trkpt>
      <trkpt lat="46.07049" lon="5.89704">
        <ele>543.8</ele>
        <time>2022-09-26T14:11:12Z</time>
      </trkpt>
      <trkpt lat="46.0705" lon="5.89703">
        <ele>543.9</ele>
        <time>2022-09-26T14:11:13Z</time>
      </trkpt>
      <trkpt lat="46.07053" lon="5.89702">
        <ele>544.1</ele>
        <time>2022-09-26T14:11:14Z</time>
      </trkpt>
      <trkpt lat="46.07054" lon="5.89701">
        <ele>544.1</ele>
        <time>2022-09-26T14:11:15Z</time>
      </trkpt>
      <trkpt lat="46.07055" lon="5.89701">
        <ele>544.2</ele>
        <time>2022-09-26T14:11:16Z</time>
      </trkpt>
      <trkpt lat="46.07057" lon="5.897">
        <ele>544.3</ele>
        <time>2022-09-26T14:11:17Z</time>
      </trkpt>
      <trkpt lat="46.07059" lon="5.897">
        <ele>544.4</ele>
        <time>2022-09-26T14:11:18Z</time>
      </trkpt>
      <trkpt lat="46.0706" lon="5.89699">
        <ele>544.5</ele>
        <time>2022-09-26T14:11:19Z</time>
      </trkpt>
      <trkpt lat="46.07062" lon="5.89698">
        <ele>544.6</ele>
        <time>2022-09-26T14:11:20Z</time>
      </trkpt>
      <trkpt lat="46.07064" lon="5.89697">
        <ele>544.7</ele>
        <time>2022-09-26T14:11:21Z</time>
      </trkpt>
      <trkpt lat="46.07065" lon="5.89697">
        <ele>544.8</ele>
        <time>2022-09-26T14:11:22Z</time>
      </trkpt>
      <trkpt lat="46.07067" lon="5.89697">
        <ele>544.9</ele>
        <time>2022-09-26T14:11:23Z</time>
      </trkpt>
      <trkpt lat="46.0707" lon="5.89695">
        <ele>545</ele>
        <time>2022-09-26T14:11:24Z</time>
      </trkpt>
      <trkpt lat="46.07071" lon="5.89695">
        <ele>545.1</ele>
        <time>2022-09-26T14:11:25Z</time>
      </trkpt>
      <trkpt lat="46.07072" lon="5.89695">
        <ele>545.1</ele>
        <time>2022-09-26T14:11:26Z</time>
      </trkpt>
      <trkpt lat="46.07074" lon="5.89694">
        <ele>545.2</ele>
        <time>2022-09-26T14:11:27Z</time>
      </trkpt>
      <trkpt lat="46.07077" lon="5.89694">
        <ele>545.4</ele>
        <time>2022-09-26T14:11:28Z</time>
      </trkpt>
      <trkpt lat="46.07078" lon="5.89694">
        <ele>545.4</ele>
        <time>2022-09-26T14:11:29Z</time>
      </trkpt>
      <trkpt lat="46.07081" lon="5.89694">
        <ele>545.6</ele>
        <time>2022-09-26T14:11:30Z</time>
      </trkpt>
      <trkpt lat="46.07082" lon="5.89693">
        <ele>545.6</ele>
        <time>2022-09-26T14:11:31Z</time>
      </trkpt>
      <trkpt lat="46.07084" lon="5.89694">
        <ele>545.8</ele>
        <time>2022-09-26T14:11:32Z</time>
      </trkpt>
      <trkpt lat="46.07085" lon="5.89694">
        <ele>545.8</ele>
        <time>2022-09-26T14:11:33Z</time>
      </trkpt>
      <trkpt lat="46.07088" lon="5.89694">
        <ele>546</ele>
        <time>2022-09-26T14:11:34Z</time>
      </trkpt>
      <trkpt lat="46.07089" lon="5.89694">
        <ele>546</ele>
        <time>2022-09-26T14:11:35Z</time>
      </trkpt>
      <trkpt lat="46.07092" lon="5.89695">
        <ele>546.2</ele>
        <time>2022-09-26T14:11:36Z</time>
      </trkpt>
      <trkpt lat="46.07093" lon="5.89695">
        <ele>546.2</ele>
        <time>2022-09-26T14:11:37Z</time>
      </trkpt>
      <trkpt lat="46.07096" lon="5.89696">
        <ele>546.4</ele>
        <time>2022-09-26T14:11:38Z</time>
      </trkpt>
      <trkpt lat="46.07097" lon="5.89696">
        <ele>546.4</ele>
        <time>2022-09-26T14:11:39Z</time>
      </trkpt>
      <trkpt lat="46.07098" lon="5.89697">
        <ele>546.5</ele>
        <time>2022-09-26T14:11:40Z</time>
      </trkpt>
      <trkpt lat="46.071" lon="5.89698">
        <ele>546.6</ele>
        <time>2022-09-26T14:11:41Z</time>
      </trkpt>
      <trkpt lat="46.07103" lon="5.897">
        <ele>546.7</ele>
        <time>2022-09-26T14:11:42Z</time>
      </trkpt>
      <trkpt lat="46.07104" lon="5.89701">
        <ele>546.7</ele>
        <time>2022-09-26T14:11:43Z</time>
      </trkpt>
      <trkpt lat="46.07105" lon="5.89702">
        <ele>546.8</ele>
        <time>2022-09-26T14:11:44Z</time>
      </trkpt>
      <trkpt lat="46.07107" lon="5.89703">
        <ele>546.9</ele>
        <time>2022-09-26T14:11:45Z</time>
      </trkpt>
      <trkpt lat="46.07109" lon="5.89705">
        <ele>547</ele>
        <time>2022-09-26T14:11:46Z</time>
      </trkpt>
      <trkpt lat="46.0711" lon="5.89706">
        <ele>547.1</ele>
        <time>2022-09-26T14:11:47Z</time>
      </trkpt>
      <trkpt lat="46.07113" lon="5.89709">
        <ele>547.2</ele>
        <time>2022-09-26T14:11:48Z</time>
      </trkpt>
      <trkpt lat="46.07114" lon="5.8971">
        <ele>547.3</ele>
        <time>2022-09-26T14:11:49Z</time>
      </trkpt>
      <trkpt lat="46.07116" lon="5.89712">
        <ele>547.4</ele>
        <time>2022-09-26T14:11:50Z</time>
      </trkpt>
      <trkpt lat="46.07117" lon="5.89713">
        <ele>547.5</ele>
        <time>2022-09-26T14:11:51Z</time>
      </trkpt>
      <trkpt lat="46.07119" lon="5.89715">
        <ele>547.6</ele>
        <time>2022-09-26T14:11:52Z</time>
      </trkpt>
      <trkpt lat="46.0712" lon="5.89716">
        <ele>547.7</ele>
        <time>2022-09-26T14:11:53Z</time>
      </trkpt>
      <trkpt lat="46.07123" lon="5.89718">
        <ele>547.8</ele>
        <time>2022-09-26T14:11:54Z</time>
      </trkpt>
      <trkpt lat="46.07124" lon="5.89719">
        <ele>547.9</ele>
        <time>2022-09-26T14:11:55Z</time>
      </trkpt>
      <trkpt lat="46.07126" lon="5.89722">
        <ele>548</ele>
        <time>2022-09-26T14:11:56Z</time>
      </trkpt>
      <trkpt lat="46.07127" lon="5.89722">
        <ele>548.1</ele>
        <time>2022-09-26T14:11:57Z</time>
      </trkpt>
      <trkpt lat="46.07129" lon="5.89725">
        <ele>548.2</ele>
        <time>2022-09-26T14:11:58Z</time>
      </trkpt>
      <trkpt lat="46.0713" lon="5.89726">
        <ele>548.2</ele>
        <time>2022-09-26T14:11:59Z</time>
      </trkpt>
      <trkpt lat="46.07133" lon="5.89728">
        <ele>548.4</ele>
        <time>2022-09-26T14:12:00Z</time>
      </trkpt>
      <trkpt lat="46.07134" lon="5.89729">
        <ele>548.5</ele>
        <time>2022-09-26T14:12:01Z</time>
      </trkpt>
      <trkpt lat="46.07136" lon="5.89732">
        <ele>548.6</ele>
        <time>2022-09-26T14:12:02Z</time>
      </trkpt>
      <trkpt lat="46.07137" lon="5.89732">
        <ele>548.7</ele>
        <time>2022-09-26T14:12:03Z</time>
      </trkpt>
      <trkpt lat="46.0714" lon="5.89735">
        <ele>548.8</ele>
        <time>2022-09-26T14:12:04Z</time>
      </trkpt>
      <trkpt lat="46.07141" lon="5.89736">
        <ele>548.9</ele>
        <time>2022-09-26T14:12:05Z</time>
      </trkpt>
      <trkpt lat="46.07144" lon="5.89738">
        <ele>549</ele>
        <time>2022-09-26T14:12:06Z</time>
      </trkpt>
      <trkpt lat="46.07144" lon="5.89739">
        <ele>549.1</ele>
        <time>2022-09-26T14:12:07Z</time>
      </trkpt>
      <trkpt lat="46.07147" lon="5.89741">
        <ele>549.2</ele>
        <time>2022-09-26T14:12:08Z</time>
      </trkpt>
      <trkpt lat="46.07148" lon="5.89742">
        <ele>549.3</ele>
        <time>2022-09-26T14:12:09Z</time>
      </trkpt>
      <trkpt lat="46.0715" lon="5.89744">
        <ele>549.4</ele>
        <time>2022-09-26T14:12:10Z</time>
      </trkpt>
      <trkpt lat="46.07151" lon="5.89745">
        <ele>549.5</ele>
        <time>2022-09-26T14:12:11Z</time>
      </trkpt>
      <trkpt lat="46.07153" lon="5.89747">
        <ele>549.6</ele>
        <time>2022-09-26T14:12:12Z</time>
      </trkpt>
      <trkpt lat="46.07154" lon="5.89748">
        <ele>549.7</ele>
        <time>2022-09-26T14:12:13Z</time>
      </trkpt>
      <trkpt lat="46.07156" lon="5.8975">
        <ele>549.8</ele>
        <time>2022-09-26T14:12:14Z</time>
      </trkpt>
      <trkpt lat="46.07157" lon="5.89751">
        <ele>549.8</ele>
        <time>2022-09-26T14:12:15Z</time>
      </trkpt>
      <trkpt lat="46.07158" lon="5.89752">
        <ele>549.9</ele>
        <time>2022-09-26T14:12:16Z</time>
      </trkpt>
      <trkpt lat="46.07159" lon="5.89754">
        <ele>550</ele>
        <time>2022-09-26T14:12:17Z</time>
      </trkpt>
      <trkpt lat="46.0716" lon="5.89755">
        <ele>550</ele>
        <time>2022-09-26T14:12:18Z</time>
      </trkpt>
      <trkpt lat="46.07162" lon="5.89757">
        <ele>550.2</ele>
        <time>2022-09-26T14:12:19Z</time>
      </trkpt>
      <trkpt lat="46.07165" lon="5.89759">
        <ele>550.3</ele>
        <time>2022-09-26T14:12:20Z</time>
      </trkpt>
      <trkpt lat="46.07166" lon="5.8976">
        <ele>550.4</ele>
        <time>2022-09-26T14:12:21Z</time>
      </trkpt>
      <trkpt lat="46.07168" lon="5.89762">
        <ele>550.5</ele>
        <time>2022-09-26T14:12:22Z</time>
      </trkpt>
      <trkpt lat="46.07169" lon="5.89763">
        <ele>550.6</ele>
        <time>2022-09-26T14:12:23Z</time>
      </trkpt>
      <trkpt lat="46.07172" lon="5.89766">
        <ele>550.7</ele>
        <time>2022-09-26T14:12:24Z</time>
      </trkpt>
      <trkpt lat="46.07173" lon="5.89767">
        <ele>550.8</ele>
        <time>2022-09-26T14:12:25Z</time>
      </trkpt>
      <trkpt lat="46.07175" lon="5.89769">
        <ele>550.9</ele>
        <time>2022-09-26T14:12:26Z</time>
      </trkpt>
      <trkpt lat="46.07176" lon="5.8977">
        <ele>551</ele>
        <time>2022-09-26T14:12:27Z</time>
      </trkpt>
      <trkpt lat="46.07179" lon="5.89772">
        <ele>551.1</ele>
        <time>2022-09-26T14:12:28Z</time>
      </trkpt>
      <trkpt lat="46.07179" lon="5.89773">
        <ele>551.2</ele>
        <time>2022-09-26T14:12:29Z</time>
      </trkpt>
      <trkpt lat="46.07182" lon="5.89775">
        <ele>551.3</ele>
        <time>2022-09-26T14:12:30Z</time>
      </trkpt>
      <trkpt lat="46.07183" lon="5.89776">
        <ele>551.4</ele>
        <time>2022-09-26T14:12:31Z</time>
      </trkpt>
      <trkpt lat="46.07185" lon="5.89778">
        <ele>551.5</ele>
        <time>2022-09-26T14:12:32Z</time>
      </trkpt>
      <trkpt lat="46.07186" lon="5.89779">
        <ele>551.6</ele>
        <time>2022-09-26T14:12:33Z</time>
      </trkpt>
      <trkpt lat="46.07188" lon="5.89781">
        <ele>551.7</ele>
        <time>2022-09-26T14:12:34Z</time>
      </trkpt>
      <trkpt lat="46.07189" lon="5.89781">
        <ele>551.8</ele>
        <time>2022-09-26T14:12:35Z</time>
      </trkpt>
      <trkpt lat="46.07191" lon="5.89783">
        <ele>551.9</ele>
        <time>2022-09-26T14:12:36Z</time>
      </trkpt>
      <trkpt lat="46.07192" lon="5.89783">
        <ele>551.9</ele>
        <time>2022-09-26T14:12:37Z</time>
      </trkpt>
      <trkpt lat="46.07193" lon="5.89785">
        <ele>552</ele>
        <time>2022-09-26T14:12:38Z</time>
      </trkpt>
      <trkpt lat="46.07194" lon="5.89786">
        <ele>552.1</ele>
        <time>2022-09-26T14:12:39Z</time>
      </trkpt>
      <trkpt lat="46.07196" lon="5.89788">
        <ele>552.2</ele>
        <time>2022-09-26T14:12:40Z</time>
      </trkpt>
      <trkpt lat="46.07197" lon="5.89789">
        <ele>552.3</ele>
        <time>2022-09-26T14:12:41Z</time>
      </trkpt>
      <trkpt lat="46.07198" lon="5.89791">
        <ele>552.4</ele>
        <time>2022-09-26T14:12:42Z</time>
      </trkpt>
      <trkpt lat="46.07199" lon="5.89792">
        <ele>552.4</ele>
        <time>2022-09-26T14:12:43Z</time>
      </trkpt>
      <trkpt lat="46.07201" lon="5.89794">
        <ele>552.5</ele>
        <time>2022-09-26T14:12:44Z</time>
      </trkpt>
      <trkpt lat="46.07202" lon="5.89795">
        <ele>552.6</ele>
        <time>2022-09-26T14:12:45Z</time>
      </trkpt>
      <trkpt lat="46.07205" lon="5.89796">
        <ele>552.7</ele>
        <time>2022-09-26T14:12:46Z</time>
      </trkpt>
      <trkpt lat="46.07205" lon="5.89797">
        <ele>552.8</ele>
        <time>2022-09-26T14:12:47Z</time>
      </trkpt>
      <trkpt lat="46.07207" lon="5.89798">
        <ele>552.9</ele>
        <time>2022-09-26T14:12:48Z</time>
      </trkpt>
      <trkpt lat="46.07208" lon="5.898">
        <ele>553</ele>
        <time>2022-09-26T14:12:49Z</time>
      </trkpt>
      <trkpt lat="46.07211" lon="5.89802">
        <ele>553.1</ele>
        <time>2022-09-26T14:12:50Z</time>
      </trkpt>
      <trkpt lat="46.07211" lon="5.89803">
        <ele>553.1</ele>
        <time>2022-09-26T14:12:51Z</time>
      </trkpt>
      <trkpt lat="46.07214" lon="5.89805">
        <ele>553.3</ele>
        <time>2022-09-26T14:12:52Z</time>
      </trkpt>
      <trkpt lat="46.07215" lon="5.89806">
        <ele>553.3</ele>
        <time>2022-09-26T14:12:53Z</time>
      </trkpt>
      <trkpt lat="46.07217" lon="5.89808">
        <ele>553.5</ele>
        <time>2022-09-26T14:12:54Z</time>
      </trkpt>
      <trkpt lat="46.07219" lon="5.8981">
        <ele>553.6</ele>
        <time>2022-09-26T14:12:55Z</time>
      </trkpt>
      <trkpt lat="46.0722" lon="5.89811">
        <ele>553.7</ele>
        <time>2022-09-26T14:12:56Z</time>
      </trkpt>
      <trkpt lat="46.07223" lon="5.89814">
        <ele>553.9</ele>
        <time>2022-09-26T14:12:57Z</time>
      </trkpt>
      <trkpt lat="46.07224" lon="5.89815">
        <ele>553.9</ele>
        <time>2022-09-26T14:12:58Z</time>
      </trkpt>
      <trkpt lat="46.07227" lon="5.89817">
        <ele>554.1</ele>
        <time>2022-09-26T14:12:59Z</time>
      </trkpt>
      <trkpt lat="46.07228" lon="5.89818">
        <ele>554.2</ele>
        <time>2022-09-26T14:13:00Z</time>
      </trkpt>
      <trkpt lat="46.0723" lon="5.89822">
        <ele>554.4</ele>
        <time>2022-09-26T14:13:01Z</time>
      </trkpt>
      <trkpt lat="46.07231" lon="5.89822">
        <ele>554.4</ele>
        <time>2022-09-26T14:13:02Z</time>
      </trkpt>
      <trkpt lat="46.07234" lon="5.89825">
        <ele>554.6</ele>
        <time>2022-09-26T14:13:03Z</time>
      </trkpt>
      <trkpt lat="46.07235" lon="5.89826">
        <ele>554.7</ele>
        <time>2022-09-26T14:13:04Z</time>
      </trkpt>
      <trkpt lat="46.07237" lon="5.89829">
        <ele>554.8</ele>
        <time>2022-09-26T14:13:05Z</time>
      </trkpt>
      <trkpt lat="46.07238" lon="5.8983">
        <ele>554.9</ele>
        <time>2022-09-26T14:13:06Z</time>
      </trkpt>
      <trkpt lat="46.07239" lon="5.89831">
        <ele>555</ele>
        <time>2022-09-26T14:13:07Z</time>
      </trkpt>
      <trkpt lat="46.07241" lon="5.89833">
        <ele>555.1</ele>
        <time>2022-09-26T14:13:08Z</time>
      </trkpt>
      <trkpt lat="46.07242" lon="5.89834">
        <ele>555.1</ele>
        <time>2022-09-26T14:13:09Z</time>
      </trkpt>
      <trkpt lat="46.07243" lon="5.89836">
        <ele>555.2</ele>
        <time>2022-09-26T14:13:10Z</time>
      </trkpt>
      <trkpt lat="46.07245" lon="5.89839">
        <ele>555.4</ele>
        <time>2022-09-26T14:13:11Z</time>
      </trkpt>
      <trkpt lat="46.07246" lon="5.8984">
        <ele>555.5</ele>
        <time>2022-09-26T14:13:12Z</time>
      </trkpt>
      <trkpt lat="46.07247" lon="5.89843">
        <ele>555.6</ele>
        <time>2022-09-26T14:13:13Z</time>
      </trkpt>
      <trkpt lat="46.07248" lon="5.89844">
        <ele>555.7</ele>
        <time>2022-09-26T14:13:14Z</time>
      </trkpt>
      <trkpt lat="46.0725" lon="5.89847">
        <ele>555.8</ele>
        <time>2022-09-26T14:13:15Z</time>
      </trkpt>
      <trkpt lat="46.0725" lon="5.89848">
        <ele>555.9</ele>
        <time>2022-09-26T14:13:16Z</time>
      </trkpt>
      <trkpt lat="46.07251" lon="5.89849">
        <ele>556</ele>
        <time>2022-09-26T14:13:17Z</time>
      </trkpt>
      <trkpt lat="46.07252" lon="5.89851">
        <ele>556.1</ele>
        <time>2022-09-26T14:13:18Z</time>
      </trkpt>
      <trkpt lat="46.07253" lon="5.89853">
        <ele>556.1</ele>
        <time>2022-09-26T14:13:19Z</time>
      </trkpt>
      <trkpt lat="46.07254" lon="5.89854">
        <ele>556.2</ele>
        <time>2022-09-26T14:13:20Z</time>
      </trkpt>
      <trkpt lat="46.07256" lon="5.89857">
        <ele>556.4</ele>
        <time>2022-09-26T14:13:21Z</time>
      </trkpt>
      <trkpt lat="46.07257" lon="5.89858">
        <ele>556.4</ele>
        <time>2022-09-26T14:13:22Z</time>
      </trkpt>
      <trkpt lat="46.07257" lon="5.8986">
        <ele>556.5</ele>
        <time>2022-09-26T14:13:23Z</time>
      </trkpt>
      <trkpt lat="46.07258" lon="5.89862">
        <ele>556.6</ele>
        <time>2022-09-26T14:13:24Z</time>
      </trkpt>
      <trkpt lat="46.07259" lon="5.89865">
        <ele>556.8</ele>
        <time>2022-09-26T14:13:25Z</time>
      </trkpt>
      <trkpt lat="46.0726" lon="5.89866">
        <ele>556.8</ele>
        <time>2022-09-26T14:13:26Z</time>
      </trkpt>
      <trkpt lat="46.07261" lon="5.89869">
        <ele>557</ele>
        <time>2022-09-26T14:13:27Z</time>
      </trkpt>
      <trkpt lat="46.07262" lon="5.8987">
        <ele>557.1</ele>
        <time>2022-09-26T14:13:28Z</time>
      </trkpt>
      <trkpt lat="46.07264" lon="5.89872">
        <ele>557.2</ele>
        <time>2022-09-26T14:13:29Z</time>
      </trkpt>
      <trkpt lat="46.07264" lon="5.89874">
        <ele>557.3</ele>
        <time>2022-09-26T14:13:30Z</time>
      </trkpt>
      <trkpt lat="46.07266" lon="5.89877">
        <ele>557.5</ele>
        <time>2022-09-26T14:13:31Z</time>
      </trkpt>
      <trkpt lat="46.07267" lon="5.89878">
        <ele>557.5</ele>
        <time>2022-09-26T14:13:32Z</time>
      </trkpt>
      <trkpt lat="46.07269" lon="5.89881">
        <ele>557.7</ele>
        <time>2022-09-26T14:13:33Z</time>
      </trkpt>
      <trkpt lat="46.0727" lon="5.89882">
        <ele>557.8</ele>
        <time>2022-09-26T14:13:34Z</time>
      </trkpt>
      <trkpt lat="46.07271" lon="5.89885">
        <ele>557.9</ele>
        <time>2022-09-26T14:13:35Z</time>
      </trkpt>
      <trkpt lat="46.07271" lon="5.89885">
        <ele>557.9</ele>
        <time>2022-09-26T14:13:36Z</time>
      </trkpt>
      <trkpt lat="46.07273" lon="5.89888">
        <ele>558.1</ele>
        <time>2022-09-26T14:13:37Z</time>
      </trkpt>
      <trkpt lat="46.07274" lon="5.8989">
        <ele>558.2</ele>
        <time>2022-09-26T14:13:38Z</time>
      </trkpt>
      <trkpt lat="46.07274" lon="5.89891">
        <ele>558.3</ele>
        <time>2022-09-26T14:13:39Z</time>
      </trkpt>
      <trkpt lat="46.07276" lon="5.89894">
        <ele>558.4</ele>
        <time>2022-09-26T14:13:40Z</time>
      </trkpt>
      <trkpt lat="46.07276" lon="5.89895">
        <ele>558.5</ele>
        <time>2022-09-26T14:13:41Z</time>
      </trkpt>
      <trkpt lat="46.07277" lon="5.89898">
        <ele>558.6</ele>
        <time>2022-09-26T14:13:42Z</time>
      </trkpt>
      <trkpt lat="46.07278" lon="5.89899">
        <ele>558.7</ele>
        <time>2022-09-26T14:13:43Z</time>
      </trkpt>
      <trkpt lat="46.07279" lon="5.89902">
        <ele>558.8</ele>
        <time>2022-09-26T14:13:44Z</time>
      </trkpt>
      <trkpt lat="46.07281" lon="5.89905">
        <ele>559</ele>
        <time>2022-09-26T14:13:45Z</time>
      </trkpt>
      <trkpt lat="46.07282" lon="5.89907">
        <ele>559.1</ele>
        <time>2022-09-26T14:13:46Z</time>
      </trkpt>
      <trkpt lat="46.07284" lon="5.8991">
        <ele>559.3</ele>
        <time>2022-09-26T14:13:47Z</time>
      </trkpt>
      <trkpt lat="46.07285" lon="5.89912">
        <ele>559.3</ele>
        <time>2022-09-26T14:13:48Z</time>
      </trkpt>
      <trkpt lat="46.07286" lon="5.89915">
        <ele>559.5</ele>
        <time>2022-09-26T14:13:49Z</time>
      </trkpt>
      <trkpt lat="46.07287" lon="5.89917">
        <ele>559.6</ele>
        <time>2022-09-26T14:13:50Z</time>
      </trkpt>
      <trkpt lat="46.07288" lon="5.8992">
        <ele>559.7</ele>
        <time>2022-09-26T14:13:51Z</time>
      </trkpt>
      <trkpt lat="46.07289" lon="5.89921">
        <ele>559.8</ele>
        <time>2022-09-26T14:13:52Z</time>
      </trkpt>
      <trkpt lat="46.0729" lon="5.89925">
        <ele>560</ele>
        <time>2022-09-26T14:13:53Z</time>
      </trkpt>
      <trkpt lat="46.07291" lon="5.89926">
        <ele>560</ele>
        <time>2022-09-26T14:13:54Z</time>
      </trkpt>
      <trkpt lat="46.07292" lon="5.89929">
        <ele>560.2</ele>
        <time>2022-09-26T14:13:55Z</time>
      </trkpt>
      <trkpt lat="46.07293" lon="5.8993">
        <ele>560.2</ele>
        <time>2022-09-26T14:13:56Z</time>
      </trkpt>
      <trkpt lat="46.07295" lon="5.89933">
        <ele>560.4</ele>
        <time>2022-09-26T14:13:57Z</time>
      </trkpt>
      <trkpt lat="46.07297" lon="5.89937">
        <ele>560.6</ele>
        <time>2022-09-26T14:13:58Z</time>
      </trkpt>
      <trkpt lat="46.07298" lon="5.89939">
        <ele>560.7</ele>
        <time>2022-09-26T14:13:59Z</time>
      </trkpt>
      <trkpt lat="46.07299" lon="5.89943">
        <ele>560.8</ele>
        <time>2022-09-26T14:14:00Z</time>
      </trkpt>
      <trkpt lat="46.073" lon="5.89944">
        <ele>560.9</ele>
        <time>2022-09-26T14:14:01Z</time>
      </trkpt>
      <trkpt lat="46.07301" lon="5.89948">
        <ele>561.1</ele>
        <time>2022-09-26T14:14:02Z</time>
      </trkpt>
      <trkpt lat="46.07302" lon="5.89949">
        <ele>561.1</ele>
        <time>2022-09-26T14:14:03Z</time>
      </trkpt>
      <trkpt lat="46.07303" lon="5.89953">
        <ele>561.3</ele>
        <time>2022-09-26T14:14:04Z</time>
      </trkpt>
      <trkpt lat="46.07304" lon="5.89954">
        <ele>561.3</ele>
        <time>2022-09-26T14:14:05Z</time>
      </trkpt>
      <trkpt lat="46.07305" lon="5.89957">
        <ele>561.5</ele>
        <time>2022-09-26T14:14:06Z</time>
      </trkpt>
      <trkpt lat="46.07306" lon="5.89961">
        <ele>561.6</ele>
        <time>2022-09-26T14:14:07Z</time>
      </trkpt>
      <trkpt lat="46.07307" lon="5.89962">
        <ele>561.7</ele>
        <time>2022-09-26T14:14:08Z</time>
      </trkpt>
      <trkpt lat="46.07309" lon="5.89965">
        <ele>561.8</ele>
        <time>2022-09-26T14:14:09Z</time>
      </trkpt>
      <trkpt lat="46.0731" lon="5.89967">
        <ele>561.9</ele>
        <time>2022-09-26T14:14:10Z</time>
      </trkpt>
      <trkpt lat="46.07312" lon="5.89971">
        <ele>562.1</ele>
        <time>2022-09-26T14:14:11Z</time>
      </trkpt>
      <trkpt lat="46.07313" lon="5.89972">
        <ele>562.1</ele>
        <time>2022-09-26T14:14:12Z</time>
      </trkpt>
      <trkpt lat="46.07315" lon="5.89975">
        <ele>562.3</ele>
        <time>2022-09-26T14:14:13Z</time>
      </trkpt>
      <trkpt lat="46.07315" lon="5.89976">
        <ele>562.3</ele>
        <time>2022-09-26T14:14:14Z</time>
      </trkpt>
      <trkpt lat="46.07318" lon="5.89979">
        <ele>562.5</ele>
        <time>2022-09-26T14:14:15Z</time>
      </trkpt>
      <trkpt lat="46.07318" lon="5.8998">
        <ele>562.6</ele>
        <time>2022-09-26T14:14:16Z</time>
      </trkpt>
      <trkpt lat="46.07321" lon="5.89983">
        <ele>562.7</ele>
        <time>2022-09-26T14:14:17Z</time>
      </trkpt>
      <trkpt lat="46.07321" lon="5.89984">
        <ele>562.8</ele>
        <time>2022-09-26T14:14:18Z</time>
      </trkpt>
      <trkpt lat="46.07324" lon="5.89987">
        <ele>563</ele>
        <time>2022-09-26T14:14:19Z</time>
      </trkpt>
      <trkpt lat="46.07325" lon="5.89988">
        <ele>563</ele>
        <time>2022-09-26T14:14:20Z</time>
      </trkpt>
      <trkpt lat="46.07327" lon="5.89991">
        <ele>563.2</ele>
        <time>2022-09-26T14:14:21Z</time>
      </trkpt>
      <trkpt lat="46.07328" lon="5.89992">
        <ele>563.3</ele>
        <time>2022-09-26T14:14:22Z</time>
      </trkpt>
      <trkpt lat="46.07331" lon="5.89995">
        <ele>563.4</ele>
        <time>2022-09-26T14:14:23Z</time>
      </trkpt>
      <trkpt lat="46.07332" lon="5.89996">
        <ele>563.5</ele>
        <time>2022-09-26T14:14:24Z</time>
      </trkpt>
      <trkpt lat="46.07335" lon="5.89999">
        <ele>563.7</ele>
        <time>2022-09-26T14:14:25Z</time>
      </trkpt>
      <trkpt lat="46.07336" lon="5.89999">
        <ele>563.7</ele>
        <time>2022-09-26T14:14:26Z</time>
      </trkpt>
      <trkpt lat="46.07338" lon="5.90003">
        <ele>563.9</ele>
        <time>2022-09-26T14:14:27Z</time>
      </trkpt>
      <trkpt lat="46.07339" lon="5.90004">
        <ele>564</ele>
        <time>2022-09-26T14:14:28Z</time>
      </trkpt>
      <trkpt lat="46.07342" lon="5.90006">
        <ele>564.2</ele>
        <time>2022-09-26T14:14:29Z</time>
      </trkpt>
      <trkpt lat="46.07343" lon="5.90007">
        <ele>564.2</ele>
        <time>2022-09-26T14:14:30Z</time>
      </trkpt>
      <trkpt lat="46.07345" lon="5.90008">
        <ele>564.4</ele>
        <time>2022-09-26T14:14:31Z</time>
      </trkpt>
      <trkpt lat="46.07346" lon="5.90009">
        <ele>564.4</ele>
        <time>2022-09-26T14:14:32Z</time>
      </trkpt>
      <trkpt lat="46.07349" lon="5.90011">
        <ele>564.6</ele>
        <time>2022-09-26T14:14:33Z</time>
      </trkpt>
      <trkpt lat="46.0735" lon="5.90012">
        <ele>564.6</ele>
        <time>2022-09-26T14:14:34Z</time>
      </trkpt>
      <trkpt lat="46.07352" lon="5.90015">
        <ele>564.8</ele>
        <time>2022-09-26T14:14:35Z</time>
      </trkpt>
      <trkpt lat="46.07353" lon="5.90016">
        <ele>564.9</ele>
        <time>2022-09-26T14:14:36Z</time>
      </trkpt>
      <trkpt lat="46.07355" lon="5.90018">
        <ele>565</ele>
        <time>2022-09-26T14:14:37Z</time>
      </trkpt>
      <trkpt lat="46.07356" lon="5.90019">
        <ele>565</ele>
        <time>2022-09-26T14:14:38Z</time>
      </trkpt>
      <trkpt lat="46.07359" lon="5.90022">
        <ele>565.2</ele>
        <time>2022-09-26T14:14:39Z</time>
      </trkpt>
      <trkpt lat="46.07359" lon="5.90023">
        <ele>565.2</ele>
        <time>2022-09-26T14:14:40Z</time>
      </trkpt>
      <trkpt lat="46.07362" lon="5.90025">
        <ele>565.4</ele>
        <time>2022-09-26T14:14:41Z</time>
      </trkpt>
      <trkpt lat="46.07363" lon="5.90026">
        <ele>565.4</ele>
        <time>2022-09-26T14:14:42Z</time>
      </trkpt>
      <trkpt lat="46.07366" lon="5.90028">
        <ele>565.6</ele>
        <time>2022-09-26T14:14:43Z</time>
      </trkpt>
      <trkpt lat="46.07366" lon="5.90029">
        <ele>565.6</ele>
        <time>2022-09-26T14:14:44Z</time>
      </trkpt>
      <trkpt lat="46.07369" lon="5.90032">
        <ele>565.8</ele>
        <time>2022-09-26T14:14:45Z</time>
      </trkpt>
      <trkpt lat="46.0737" lon="5.90033">
        <ele>565.8</ele>
        <time>2022-09-26T14:14:46Z</time>
      </trkpt>
      <trkpt lat="46.07372" lon="5.90036">
        <ele>566</ele>
        <time>2022-09-26T14:14:47Z</time>
      </trkpt>
      <trkpt lat="46.07373" lon="5.90036">
        <ele>566</ele>
        <time>2022-09-26T14:14:48Z</time>
      </trkpt>
      <trkpt lat="46.07376" lon="5.90038">
        <ele>566.2</ele>
        <time>2022-09-26T14:14:49Z</time>
      </trkpt>
      <trkpt lat="46.07377" lon="5.90039">
        <ele>566.2</ele>
        <time>2022-09-26T14:14:50Z</time>
      </trkpt>
      <trkpt lat="46.07379" lon="5.90041">
        <ele>566.4</ele>
        <time>2022-09-26T14:14:51Z</time>
      </trkpt>
      <trkpt lat="46.0738" lon="5.90042">
        <ele>566.4</ele>
        <time>2022-09-26T14:14:52Z</time>
      </trkpt>
      <trkpt lat="46.07382" lon="5.90044">
        <ele>566.6</ele>
        <time>2022-09-26T14:14:53Z</time>
      </trkpt>
      <trkpt lat="46.07383" lon="5.90045">
        <ele>566.6</ele>
        <time>2022-09-26T14:14:54Z</time>
      </trkpt>
      <trkpt lat="46.07386" lon="5.90047">
        <ele>566.7</ele>
        <time>2022-09-26T14:14:55Z</time>
      </trkpt>
      <trkpt lat="46.07387" lon="5.90048">
        <ele>566.8</ele>
        <time>2022-09-26T14:14:56Z</time>
      </trkpt>
      <trkpt lat="46.07389" lon="5.9005">
        <ele>566.9</ele>
        <time>2022-09-26T14:14:57Z</time>
      </trkpt>
      <trkpt lat="46.0739" lon="5.90051">
        <ele>567</ele>
        <time>2022-09-26T14:14:58Z</time>
      </trkpt>
      <trkpt lat="46.07392" lon="5.90053">
        <ele>567.1</ele>
        <time>2022-09-26T14:14:59Z</time>
      </trkpt>
      <trkpt lat="46.07393" lon="5.90054">
        <ele>567.2</ele>
        <time>2022-09-26T14:15:00Z</time>
      </trkpt>
      <trkpt lat="46.07396" lon="5.90056">
        <ele>567.3</ele>
        <time>2022-09-26T14:15:01Z</time>
      </trkpt>
      <trkpt lat="46.07397" lon="5.90057">
        <ele>567.4</ele>
        <time>2022-09-26T14:15:02Z</time>
      </trkpt>
      <trkpt lat="46.07398" lon="5.90058">
        <ele>567.5</ele>
        <time>2022-09-26T14:15:03Z</time>
      </trkpt>
      <trkpt lat="46.074" lon="5.9006">
        <ele>567.6</ele>
        <time>2022-09-26T14:15:04Z</time>
      </trkpt>
      <trkpt lat="46.07402" lon="5.90062">
        <ele>567.7</ele>
        <time>2022-09-26T14:15:05Z</time>
      </trkpt>
      <trkpt lat="46.07403" lon="5.90063">
        <ele>567.8</ele>
        <time>2022-09-26T14:15:06Z</time>
      </trkpt>
      <trkpt lat="46.07405" lon="5.90065">
        <ele>567.9</ele>
        <time>2022-09-26T14:15:07Z</time>
      </trkpt>
      <trkpt lat="46.07406" lon="5.90066">
        <ele>567.9</ele>
        <time>2022-09-26T14:15:08Z</time>
      </trkpt>
      <trkpt lat="46.07409" lon="5.90068">
        <ele>568.1</ele>
        <time>2022-09-26T14:15:09Z</time>
      </trkpt>
      <trkpt lat="46.0741" lon="5.90069">
        <ele>568.2</ele>
        <time>2022-09-26T14:15:10Z</time>
      </trkpt>
      <trkpt lat="46.07413" lon="5.90071">
        <ele>568.3</ele>
        <time>2022-09-26T14:15:11Z</time>
      </trkpt>
      <trkpt lat="46.07414" lon="5.90071">
        <ele>568.4</ele>
        <time>2022-09-26T14:15:12Z</time>
      </trkpt>
      <trkpt lat="46.07417" lon="5.90073">
        <ele>568.5</ele>
        <time>2022-09-26T14:15:13Z</time>
      </trkpt>
      <trkpt lat="46.07418" lon="5.90074">
        <ele>568.6</ele>
        <time>2022-09-26T14:15:14Z</time>
      </trkpt>
      <trkpt lat="46.07419" lon="5.90076">
        <ele>568.6</ele>
        <time>2022-09-26T14:15:15Z</time>
      </trkpt>
      <trkpt lat="46.07421" lon="5.90077">
        <ele>568.7</ele>
        <time>2022-09-26T14:15:16Z</time>
      </trkpt>
      <trkpt lat="46.07423" lon="5.90079">
        <ele>568.9</ele>
        <time>2022-09-26T14:15:17Z</time>
      </trkpt>
      <trkpt lat="46.07424" lon="5.90079">
        <ele>568.9</ele>
        <time>2022-09-26T14:15:18Z</time>
      </trkpt>
      <trkpt lat="46.07427" lon="5.90081">
        <ele>569</ele>
        <time>2022-09-26T14:15:19Z</time>
      </trkpt>
      <trkpt lat="46.07427" lon="5.90081">
        <ele>569.1</ele>
        <time>2022-09-26T14:15:20Z</time>
      </trkpt>
      <trkpt lat="46.0743" lon="5.90083">
        <ele>569.2</ele>
        <time>2022-09-26T14:15:21Z</time>
      </trkpt>
      <trkpt lat="46.07431" lon="5.90083">
        <ele>569.2</ele>
        <time>2022-09-26T14:15:22Z</time>
      </trkpt>
      <trkpt lat="46.07435" lon="5.90085">
        <ele>569.4</ele>
        <time>2022-09-26T14:15:23Z</time>
      </trkpt>
      <trkpt lat="46.07435" lon="5.90085">
        <ele>569.4</ele>
        <time>2022-09-26T14:15:24Z</time>
      </trkpt>
      <trkpt lat="46.07438" lon="5.90087">
        <ele>569.5</ele>
        <time>2022-09-26T14:15:25Z</time>
      </trkpt>
      <trkpt lat="46.07439" lon="5.90087">
        <ele>569.6</ele>
        <time>2022-09-26T14:15:26Z</time>
      </trkpt>
      <trkpt lat="46.07442" lon="5.90088">
        <ele>569.7</ele>
        <time>2022-09-26T14:15:27Z</time>
      </trkpt>
      <trkpt lat="46.07443" lon="5.90088">
        <ele>569.7</ele>
        <time>2022-09-26T14:15:28Z</time>
      </trkpt>
      <trkpt lat="46.07444" lon="5.90088">
        <ele>569.8</ele>
        <time>2022-09-26T14:15:29Z</time>
      </trkpt>
      <trkpt lat="46.07446" lon="5.90089">
        <ele>569.8</ele>
        <time>2022-09-26T14:15:30Z</time>
      </trkpt>
      <trkpt lat="46.0745" lon="5.90089">
        <ele>569.9</ele>
        <time>2022-09-26T14:15:31Z</time>
      </trkpt>
      <trkpt lat="46.07451" lon="5.9009">
        <ele>570</ele>
        <time>2022-09-26T14:15:32Z</time>
      </trkpt>
      <trkpt lat="46.07454" lon="5.90092">
        <ele>570</ele>
        <time>2022-09-26T14:15:33Z</time>
      </trkpt>
      <trkpt lat="46.07455" lon="5.90092">
        <ele>570</ele>
        <time>2022-09-26T14:15:34Z</time>
      </trkpt>
      <trkpt lat="46.07457" lon="5.90093">
        <ele>570</ele>
        <time>2022-09-26T14:15:35Z</time>
      </trkpt>
      <trkpt lat="46.07458" lon="5.90094">
        <ele>570.1</ele>
        <time>2022-09-26T14:15:36Z</time>
      </trkpt>
      <trkpt lat="46.0746" lon="5.90095">
        <ele>570.1</ele>
        <time>2022-09-26T14:15:37Z</time>
      </trkpt>
      <trkpt lat="46.07462" lon="5.90095">
        <ele>570.1</ele>
        <time>2022-09-26T14:15:38Z</time>
      </trkpt>
      <trkpt lat="46.07463" lon="5.90095">
        <ele>570.1</ele>
        <time>2022-09-26T14:15:39Z</time>
      </trkpt>
      <trkpt lat="46.07465" lon="5.90094">
        <ele>570.1</ele>
        <time>2022-09-26T14:15:40Z</time>
      </trkpt>
      <trkpt lat="46.07467" lon="5.90094">
        <ele>570.2</ele>
        <time>2022-09-26T14:15:41Z</time>
      </trkpt>
      <trkpt lat="46.07468" lon="5.90095">
        <ele>570.2</ele>
        <time>2022-09-26T14:15:42Z</time>
      </trkpt>
      <trkpt lat="46.0747" lon="5.90095">
        <ele>570.2</ele>
        <time>2022-09-26T14:15:43Z</time>
      </trkpt>
      <trkpt lat="46.07471" lon="5.90097">
        <ele>570.2</ele>
        <time>2022-09-26T14:15:44Z</time>
      </trkpt>
      <trkpt lat="46.07471" lon="5.90097">
        <ele>570.2</ele>
        <time>2022-09-26T14:15:45Z</time>
      </trkpt>
      <trkpt lat="46.07471" lon="5.90096">
        <ele>570.2</ele>
        <time>2022-09-26T14:15:46Z</time>
      </trkpt>
      <trkpt lat="46.07472" lon="5.90095">
        <ele>570.2</ele>
        <time>2022-09-26T14:15:47Z</time>
      </trkpt>
      <trkpt lat="46.07472" lon="5.90094">
        <ele>570.2</ele>
        <time>2022-09-26T14:15:48Z</time>
      </trkpt>
      <trkpt lat="46.07473" lon="5.90093">
        <ele>570.3</ele>
        <time>2022-09-26T14:15:49Z</time>
      </trkpt>
      <trkpt lat="46.07473" lon="5.90092">
        <ele>570.3</ele>
        <time>2022-09-26T14:15:50Z</time>
      </trkpt>
      <trkpt lat="46.07474" lon="5.90091">
        <ele>570.3</ele>
        <time>2022-09-26T14:15:51Z</time>
      </trkpt>
      <trkpt lat="46.07474" lon="5.9009">
        <ele>570.3</ele>
        <time>2022-09-26T14:15:52Z</time>
      </trkpt>
      <trkpt lat="46.07475" lon="5.90089">
        <ele>570.3</ele>
        <time>2022-09-26T14:15:53Z</time>
      </trkpt>
      <trkpt lat="46.07475" lon="5.90088">
        <ele>570.3</ele>
        <time>2022-09-26T14:15:54Z</time>
      </trkpt>
      <trkpt lat="46.07476" lon="5.90087">
        <ele>570.3</ele>
        <time>2022-09-26T14:24:53Z</time>
      </trkpt>
      <trkpt lat="46.07476" lon="5.90087">
        <ele>570.3</ele>
        <time>2022-09-26T14:24:54Z</time>
      </trkpt>
      <trkpt lat="46.0748" lon="5.90086">
        <ele>570.3</ele>
        <time>2022-09-26T14:24:55Z</time>
      </trkpt>
      <trkpt lat="46.07481" lon="5.90087">
        <ele>570.3</ele>
        <time>2022-09-26T14:24:56Z</time>
      </trkpt>
      <trkpt lat="46.07484" lon="5.90087">
        <ele>570.3</ele>
        <time>2022-09-26T14:24:57Z</time>
      </trkpt>
      <trkpt lat="46.07485" lon="5.90088">
        <ele>570.3</ele>
        <time>2022-09-26T14:24:58Z</time>
      </trkpt>
      <trkpt lat="46.07488" lon="5.90088">
        <ele>570.3</ele>
        <time>2022-09-26T14:24:59Z</time>
      </trkpt>
      <trkpt lat="46.07489" lon="5.90088">
        <ele>570.3</ele>
        <time>2022-09-26T14:25:00Z</time>
      </trkpt>
      <trkpt lat="46.07493" lon="5.90087">
        <ele>570.3</ele>
        <time>2022-09-26T14:25:01Z</time>
      </trkpt>
      <trkpt lat="46.07494" lon="5.90087">
        <ele>570.3</ele>
        <time>2022-09-26T14:25:02Z</time>
      </trkpt>
      <trkpt lat="46.07498" lon="5.90088">
        <ele>570.3</ele>
        <time>2022-09-26T14:25:03Z</time>
      </trkpt>
      <trkpt lat="46.07499" lon="5.90088">
        <ele>570.3</ele>
        <time>2022-09-26T14:25:04Z</time>
      </trkpt>
      <trkpt lat="46.07502" lon="5.90088">
        <ele>570.3</ele>
        <time>2022-09-26T14:25:05Z</time>
      </trkpt>
      <trkpt lat="46.07506" lon="5.90088">
        <ele>570.2</ele>
        <time>2022-09-26T14:25:06Z</time>
      </trkpt>
      <trkpt lat="46.07507" lon="5.90088">
        <ele>570.2</ele>
        <time>2022-09-26T14:25:07Z</time>
      </trkpt>
      <trkpt lat="46.07511" lon="5.90089">
        <ele>570.1</ele>
        <time>2022-09-26T14:25:08Z</time>
      </trkpt>
      <trkpt lat="46.07512" lon="5.90089">
        <ele>570.1</ele>
        <time>2022-09-26T14:25:09Z</time>
      </trkpt>
      <trkpt lat="46.07515" lon="5.90089">
        <ele>570</ele>
        <time>2022-09-26T14:25:10Z</time>
      </trkpt>
      <trkpt lat="46.07518" lon="5.90089">
        <ele>570</ele>
        <time>2022-09-26T14:25:11Z</time>
      </trkpt>
      <trkpt lat="46.07522" lon="5.90089">
        <ele>569.9</ele>
        <time>2022-09-26T14:25:12Z</time>
      </trkpt>
      <trkpt lat="46.07525" lon="5.90089">
        <ele>569.8</ele>
        <time>2022-09-26T14:25:13Z</time>
      </trkpt>
      <trkpt lat="46.07529" lon="5.90089">
        <ele>569.7</ele>
        <time>2022-09-26T14:25:14Z</time>
      </trkpt>
      <trkpt lat="46.07532" lon="5.90089">
        <ele>569.6</ele>
        <time>2022-09-26T14:25:15Z</time>
      </trkpt>
      <trkpt lat="46.07536" lon="5.90089">
        <ele>569.5</ele>
        <time>2022-09-26T14:25:16Z</time>
      </trkpt>
      <trkpt lat="46.0754" lon="5.90089">
        <ele>569.4</ele>
        <time>2022-09-26T14:25:17Z</time>
      </trkpt>
      <trkpt lat="46.07544" lon="5.9009">
        <ele>569.3</ele>
        <time>2022-09-26T14:25:18Z</time>
      </trkpt>
      <trkpt lat="46.07547" lon="5.90089">
        <ele>569.2</ele>
        <time>2022-09-26T14:25:19Z</time>
      </trkpt>
      <trkpt lat="46.07551" lon="5.90089">
        <ele>569</ele>
        <time>2022-09-26T14:25:20Z</time>
      </trkpt>
      <trkpt lat="46.07555" lon="5.9009">
        <ele>568.9</ele>
        <time>2022-09-26T14:25:21Z</time>
      </trkpt>
      <trkpt lat="46.07559" lon="5.9009">
        <ele>568.7</ele>
        <time>2022-09-26T14:25:22Z</time>
      </trkpt>
      <trkpt lat="46.07563" lon="5.9009">
        <ele>568.6</ele>
        <time>2022-09-26T14:25:23Z</time>
      </trkpt>
      <trkpt lat="46.07567" lon="5.9009">
        <ele>568.4</ele>
        <time>2022-09-26T14:25:24Z</time>
      </trkpt>
      <trkpt lat="46.07572" lon="5.90091">
        <ele>568.2</ele>
        <time>2022-09-26T14:25:25Z</time>
      </trkpt>
      <trkpt lat="46.07577" lon="5.90091">
        <ele>567.9</ele>
        <time>2022-09-26T14:25:26Z</time>
      </trkpt>
      <trkpt lat="46.07582" lon="5.90091">
        <ele>567.7</ele>
        <time>2022-09-26T14:25:27Z</time>
      </trkpt>
      <trkpt lat="46.07586" lon="5.90092">
        <ele>567.4</ele>
        <time>2022-09-26T14:25:28Z</time>
      </trkpt>
      <trkpt lat="46.0759" lon="5.90093">
        <ele>567.2</ele>
        <time>2022-09-26T14:25:29Z</time>
      </trkpt>
      <trkpt lat="46.07594" lon="5.90093">
        <ele>566.9</ele>
        <time>2022-09-26T14:25:30Z</time>
      </trkpt>
      <trkpt lat="46.07596" lon="5.90093">
        <ele>566.8</ele>
        <time>2022-09-26T14:25:31Z</time>
      </trkpt>
      <trkpt lat="46.07601" lon="5.90094">
        <ele>566.4</ele>
        <time>2022-09-26T14:25:32Z</time>
      </trkpt>
      <trkpt lat="46.07607" lon="5.90096">
        <ele>566</ele>
        <time>2022-09-26T14:25:33Z</time>
      </trkpt>
      <trkpt lat="46.07614" lon="5.901">
        <ele>565.5</ele>
        <time>2022-09-26T14:25:34Z</time>
      </trkpt>
      <trkpt lat="46.07621" lon="5.90103">
        <ele>564.9</ele>
        <time>2022-09-26T14:25:35Z</time>
      </trkpt>
      <trkpt lat="46.07628" lon="5.90107">
        <ele>564.3</ele>
        <time>2022-09-26T14:25:36Z</time>
      </trkpt>
      <trkpt lat="46.07635" lon="5.90111">
        <ele>563.9</ele>
        <time>2022-09-26T14:25:37Z</time>
      </trkpt>
      <trkpt lat="46.07641" lon="5.90114">
        <ele>563.5</ele>
        <time>2022-09-26T14:25:38Z</time>
      </trkpt>
      <trkpt lat="46.07649" lon="5.90118">
        <ele>563</ele>
        <time>2022-09-26T14:25:39Z</time>
      </trkpt>
      <trkpt lat="46.07656" lon="5.90123">
        <ele>562.6</ele>
        <time>2022-09-26T14:25:40Z</time>
      </trkpt>
      <trkpt lat="46.07664" lon="5.90128">
        <ele>562.1</ele>
        <time>2022-09-26T14:25:41Z</time>
      </trkpt>
      <trkpt lat="46.07672" lon="5.90133">
        <ele>561.7</ele>
        <time>2022-09-26T14:25:42Z</time>
      </trkpt>
      <trkpt lat="46.07679" lon="5.90137">
        <ele>561.3</ele>
        <time>2022-09-26T14:25:43Z</time>
      </trkpt>
      <trkpt lat="46.07686" lon="5.90141">
        <ele>560.9</ele>
        <time>2022-09-26T14:25:44Z</time>
      </trkpt>
      <trkpt lat="46.07692" lon="5.90144">
        <ele>560.5</ele>
        <time>2022-09-26T14:25:45Z</time>
      </trkpt>
      <trkpt lat="46.07698" lon="5.90148">
        <ele>560.1</ele>
        <time>2022-09-26T14:25:46Z</time>
      </trkpt>
      <trkpt lat="46.07705" lon="5.90152">
        <ele>559.7</ele>
        <time>2022-09-26T14:25:47Z</time>
      </trkpt>
      <trkpt lat="46.07711" lon="5.90156">
        <ele>559.2</ele>
        <time>2022-09-26T14:25:48Z</time>
      </trkpt>
      <trkpt lat="46.07718" lon="5.9016">
        <ele>558.8</ele>
        <time>2022-09-26T14:25:49Z</time>
      </trkpt>
      <trkpt lat="46.07725" lon="5.90165">
        <ele>558.3</ele>
        <time>2022-09-26T14:25:50Z</time>
      </trkpt>
      <trkpt lat="46.07731" lon="5.90168">
        <ele>557.9</ele>
        <time>2022-09-26T14:25:51Z</time>
      </trkpt>
      <trkpt lat="46.07739" lon="5.90171">
        <ele>557.5</ele>
        <time>2022-09-26T14:25:52Z</time>
      </trkpt>
      <trkpt lat="46.07747" lon="5.90173">
        <ele>557</ele>
        <time>2022-09-26T14:25:53Z</time>
      </trkpt>
      <trkpt lat="46.07755" lon="5.90175">
        <ele>556.6</ele>
        <time>2022-09-26T14:25:54Z</time>
      </trkpt>
      <trkpt lat="46.07763" lon="5.90177">
        <ele>556.2</ele>
        <time>2022-09-26T14:25:55Z</time>
      </trkpt>
      <trkpt lat="46.0777" lon="5.90177">
        <ele>555.8</ele>
        <time>2022-09-26T14:25:56Z</time>
      </trkpt>
      <trkpt lat="46.07778" lon="5.90177">
        <ele>555.4</ele>
        <time>2022-09-26T14:25:57Z</time>
      </trkpt>
      <trkpt lat="46.07786" lon="5.90176">
        <ele>555.1</ele>
        <time>2022-09-26T14:25:58Z</time>
      </trkpt>
      <trkpt lat="46.07794" lon="5.90175">
        <ele>554.7</ele>
        <time>2022-09-26T14:25:59Z</time>
      </trkpt>
      <trkpt lat="46.07802" lon="5.90175">
        <ele>554.3</ele>
        <time>2022-09-26T14:26:00Z</time>
      </trkpt>
      <trkpt lat="46.0781" lon="5.90174">
        <ele>553.9</ele>
        <time>2022-09-26T14:26:01Z</time>
      </trkpt>
      <trkpt lat="46.07817" lon="5.90173">
        <ele>553.5</ele>
        <time>2022-09-26T14:26:02Z</time>
      </trkpt>
      <trkpt lat="46.07825" lon="5.90172">
        <ele>553.1</ele>
        <time>2022-09-26T14:26:03Z</time>
      </trkpt>
      <trkpt lat="46.07833" lon="5.90171">
        <ele>552.6</ele>
        <time>2022-09-26T14:26:04Z</time>
      </trkpt>
      <trkpt lat="46.07842" lon="5.9017">
        <ele>552.2</ele>
        <time>2022-09-26T14:26:05Z</time>
      </trkpt>
      <trkpt lat="46.0785" lon="5.90169">
        <ele>551.7</ele>
        <time>2022-09-26T14:26:06Z</time>
      </trkpt>
      <trkpt lat="46.07858" lon="5.90168">
        <ele>551.2</ele>
        <time>2022-09-26T14:26:07Z</time>
      </trkpt>
      <trkpt lat="46.07867" lon="5.90167">
        <ele>550.7</ele>
        <time>2022-09-26T14:26:08Z</time>
      </trkpt>
      <trkpt lat="46.07875" lon="5.90166">
        <ele>550.3</ele>
        <time>2022-09-26T14:26:09Z</time>
      </trkpt>
      <trkpt lat="46.07882" lon="5.90165">
        <ele>549.8</ele>
        <time>2022-09-26T14:26:10Z</time>
      </trkpt>
      <trkpt lat="46.0789" lon="5.90164">
        <ele>549.4</ele>
        <time>2022-09-26T14:26:11Z</time>
      </trkpt>
      <trkpt lat="46.07897" lon="5.90163">
        <ele>549</ele>
        <time>2022-09-26T14:26:12Z</time>
      </trkpt>
      <trkpt lat="46.07904" lon="5.90162">
        <ele>548.6</ele>
        <time>2022-09-26T14:26:13Z</time>
      </trkpt>
      <trkpt lat="46.0791" lon="5.90161">
        <ele>548.3</ele>
        <time>2022-09-26T14:26:14Z</time>
      </trkpt>
      <trkpt lat="46.07917" lon="5.9016">
        <ele>547.9</ele>
        <time>2022-09-26T14:26:15Z</time>
      </trkpt>
      <trkpt lat="46.07923" lon="5.90159">
        <ele>547.6</ele>
        <time>2022-09-26T14:26:16Z</time>
      </trkpt>
      <trkpt lat="46.07929" lon="5.90158">
        <ele>547.3</ele>
        <time>2022-09-26T14:26:17Z</time>
      </trkpt>
      <trkpt lat="46.07934" lon="5.90157">
        <ele>547</ele>
        <time>2022-09-26T14:26:18Z</time>
      </trkpt>
      <trkpt lat="46.07939" lon="5.90156">
        <ele>546.8</ele>
        <time>2022-09-26T14:26:19Z</time>
      </trkpt>
      <trkpt lat="46.07944" lon="5.90155">
        <ele>546.7</ele>
        <time>2022-09-26T14:26:20Z</time>
      </trkpt>
      <trkpt lat="46.07949" lon="5.90153">
        <ele>546.6</ele>
        <time>2022-09-26T14:26:21Z</time>
      </trkpt>
      <trkpt lat="46.07955" lon="5.90153">
        <ele>546.5</ele>
        <time>2022-09-26T14:26:22Z</time>
      </trkpt>
      <trkpt lat="46.07961" lon="5.90153">
        <ele>546.1</ele>
        <time>2022-09-26T14:26:23Z</time>
      </trkpt>
      <trkpt lat="46.07966" lon="5.90153">
        <ele>545.8</ele>
        <time>2022-09-26T14:26:24Z</time>
      </trkpt>
      <trkpt lat="46.07973" lon="5.90153">
        <ele>545.4</ele>
        <time>2022-09-26T14:26:25Z</time>
      </trkpt>
      <trkpt lat="46.0798" lon="5.90154">
        <ele>544.9</ele>
        <time>2022-09-26T14:26:26Z</time>
      </trkpt>
      <trkpt lat="46.07987" lon="5.90155">
        <ele>544.5</ele>
        <time>2022-09-26T14:26:27Z</time>
      </trkpt>
      <trkpt lat="46.07993" lon="5.90156">
        <ele>544.1</ele>
        <time>2022-09-26T14:26:28Z</time>
      </trkpt>
      <trkpt lat="46.07999" lon="5.90157">
        <ele>543.7</ele>
        <time>2022-09-26T14:26:29Z</time>
      </trkpt>
      <trkpt lat="46.08004" lon="5.90159">
        <ele>543.4</ele>
        <time>2022-09-26T14:26:30Z</time>
      </trkpt>
      <trkpt lat="46.08009" lon="5.90161">
        <ele>543.2</ele>
        <time>2022-09-26T14:26:31Z</time>
      </trkpt>
      <trkpt lat="46.08013" lon="5.90162">
        <ele>543.1</ele>
        <time>2022-09-26T14:26:32Z</time>
      </trkpt>
      <trkpt lat="46.08018" lon="5.90164">
        <ele>543</ele>
        <time>2022-09-26T14:26:33Z</time>
      </trkpt>
      <trkpt lat="46.08023" lon="5.90166">
        <ele>542.8</ele>
        <time>2022-09-26T14:26:34Z</time>
      </trkpt>
      <trkpt lat="46.08027" lon="5.90168">
        <ele>542.7</ele>
        <time>2022-09-26T14:26:35Z</time>
      </trkpt>
      <trkpt lat="46.08032" lon="5.9017">
        <ele>542.6</ele>
        <time>2022-09-26T14:26:36Z</time>
      </trkpt>
      <trkpt lat="46.08036" lon="5.90172">
        <ele>542.5</ele>
        <time>2022-09-26T14:26:37Z</time>
      </trkpt>
      <trkpt lat="46.08041" lon="5.90174">
        <ele>542.3</ele>
        <time>2022-09-26T14:26:38Z</time>
      </trkpt>
      <trkpt lat="46.08046" lon="5.90176">
        <ele>542.1</ele>
        <time>2022-09-26T14:26:39Z</time>
      </trkpt>
      <trkpt lat="46.08051" lon="5.90177">
        <ele>541.8</ele>
        <time>2022-09-26T14:26:40Z</time>
      </trkpt>
      <trkpt lat="46.08056" lon="5.90179">
        <ele>541.6</ele>
        <time>2022-09-26T14:26:41Z</time>
      </trkpt>
      <trkpt lat="46.08061" lon="5.90181">
        <ele>541.4</ele>
        <time>2022-09-26T14:26:42Z</time>
      </trkpt>
      <trkpt lat="46.08066" lon="5.90182">
        <ele>541.2</ele>
        <time>2022-09-26T14:26:43Z</time>
      </trkpt>
      <trkpt lat="46.0807" lon="5.90184">
        <ele>540.9</ele>
        <time>2022-09-26T14:26:44Z</time>
      </trkpt>
      <trkpt lat="46.08075" lon="5.90186">
        <ele>540.7</ele>
        <time>2022-09-26T14:26:45Z</time>
      </trkpt>
      <trkpt lat="46.0808" lon="5.90188">
        <ele>540.5</ele>
        <time>2022-09-26T14:26:46Z</time>
      </trkpt>
      <trkpt lat="46.08085" lon="5.9019">
        <ele>540.2</ele>
        <time>2022-09-26T14:26:47Z</time>
      </trkpt>
      <trkpt lat="46.08091" lon="5.90191">
        <ele>539.9</ele>
        <time>2022-09-26T14:26:48Z</time>
      </trkpt>
      <trkpt lat="46.08096" lon="5.90194">
        <ele>539.7</ele>
        <time>2022-09-26T14:26:49Z</time>
      </trkpt>
      <trkpt lat="46.081" lon="5.90195">
        <ele>539.5</ele>
        <time>2022-09-26T14:26:50Z</time>
      </trkpt>
      <trkpt lat="46.08104" lon="5.90196">
        <ele>539.3</ele>
        <time>2022-09-26T14:26:51Z</time>
      </trkpt>
      <trkpt lat="46.08107" lon="5.90194">
        <ele>539.1</ele>
        <time>2022-09-26T14:26:52Z</time>
      </trkpt>
      <trkpt lat="46.08111" lon="5.90192">
        <ele>538.9</ele>
        <time>2022-09-26T14:26:53Z</time>
      </trkpt>
      <trkpt lat="46.08114" lon="5.90189">
        <ele>538.7</ele>
        <time>2022-09-26T14:26:54Z</time>
      </trkpt>
      <trkpt lat="46.08118" lon="5.90184">
        <ele>538.5</ele>
        <time>2022-09-26T14:26:55Z</time>
      </trkpt>
      <trkpt lat="46.0812" lon="5.9018">
        <ele>538.3</ele>
        <time>2022-09-26T14:26:56Z</time>
      </trkpt>
      <trkpt lat="46.08123" lon="5.90175">
        <ele>538.1</ele>
        <time>2022-09-26T14:26:57Z</time>
      </trkpt>
      <trkpt lat="46.08126" lon="5.90169">
        <ele>537.8</ele>
        <time>2022-09-26T14:26:58Z</time>
      </trkpt>
      <trkpt lat="46.08129" lon="5.90163">
        <ele>537.6</ele>
        <time>2022-09-26T14:26:59Z</time>
      </trkpt>
      <trkpt lat="46.08131" lon="5.90155">
        <ele>537.2</ele>
        <time>2022-09-26T14:27:00Z</time>
      </trkpt>
      <trkpt lat="46.08135" lon="5.90147">
        <ele>536.9</ele>
        <time>2022-09-26T14:27:01Z</time>
      </trkpt>
      <trkpt lat="46.08137" lon="5.90141">
        <ele>536.6</ele>
        <time>2022-09-26T14:27:02Z</time>
      </trkpt>
      <trkpt lat="46.0814" lon="5.90134">
        <ele>536.3</ele>
        <time>2022-09-26T14:27:03Z</time>
      </trkpt>
      <trkpt lat="46.08144" lon="5.90127">
        <ele>536</ele>
        <time>2022-09-26T14:27:04Z</time>
      </trkpt>
      <trkpt lat="46.08147" lon="5.90121">
        <ele>535.7</ele>
        <time>2022-09-26T14:27:05Z</time>
      </trkpt>
      <trkpt lat="46.08151" lon="5.90114">
        <ele>535.4</ele>
        <time>2022-09-26T14:27:06Z</time>
      </trkpt>
      <trkpt lat="46.08155" lon="5.90108">
        <ele>535</ele>
        <time>2022-09-26T14:27:07Z</time>
      </trkpt>
      <trkpt lat="46.0816" lon="5.90101">
        <ele>534.7</ele>
        <time>2022-09-26T14:27:08Z</time>
      </trkpt>
      <trkpt lat="46.08165" lon="5.90096">
        <ele>534.3</ele>
        <time>2022-09-26T14:27:09Z</time>
      </trkpt>
      <trkpt lat="46.08171" lon="5.90092">
        <ele>534</ele>
        <time>2022-09-26T14:27:10Z</time>
      </trkpt>
      <trkpt lat="46.08176" lon="5.90089">
        <ele>533.6</ele>
        <time>2022-09-26T14:27:11Z</time>
      </trkpt>
      <trkpt lat="46.08182" lon="5.90086">
        <ele>533.3</ele>
        <time>2022-09-26T14:27:12Z</time>
      </trkpt>
      <trkpt lat="46.08188" lon="5.90085">
        <ele>532.9</ele>
        <time>2022-09-26T14:27:13Z</time>
      </trkpt>
      <trkpt lat="46.08195" lon="5.90084">
        <ele>532.5</ele>
        <time>2022-09-26T14:27:14Z</time>
      </trkpt>
      <trkpt lat="46.082" lon="5.90084">
        <ele>532.2</ele>
        <time>2022-09-26T14:27:15Z</time>
      </trkpt>
      <trkpt lat="46.08206" lon="5.90084">
        <ele>531.9</ele>
        <time>2022-09-26T14:27:16Z</time>
      </trkpt>
      <trkpt lat="46.08211" lon="5.90084">
        <ele>531.6</ele>
        <time>2022-09-26T14:27:17Z</time>
      </trkpt>
      <trkpt lat="46.08217" lon="5.90085">
        <ele>531.3</ele>
        <time>2022-09-26T14:27:18Z</time>
      </trkpt>
      <trkpt lat="46.08224" lon="5.90086">
        <ele>530.9</ele>
        <time>2022-09-26T14:27:19Z</time>
      </trkpt>
      <trkpt lat="46.08231" lon="5.90086">
        <ele>530.5</ele>
        <time>2022-09-26T14:27:20Z</time>
      </trkpt>
      <trkpt lat="46.08238" lon="5.90086">
        <ele>530.2</ele>
        <time>2022-09-26T14:27:21Z</time>
      </trkpt>
      <trkpt lat="46.08244" lon="5.90087">
        <ele>529.8</ele>
        <time>2022-09-26T14:27:22Z</time>
      </trkpt>
      <trkpt lat="46.0825" lon="5.90087">
        <ele>529.5</ele>
        <time>2022-09-26T14:27:23Z</time>
      </trkpt>
      <trkpt lat="46.08256" lon="5.90088">
        <ele>529.2</ele>
        <time>2022-09-26T14:27:24Z</time>
      </trkpt>
      <trkpt lat="46.08263" lon="5.90089">
        <ele>528.9</ele>
        <time>2022-09-26T14:27:25Z</time>
      </trkpt>
      <trkpt lat="46.08269" lon="5.9009">
        <ele>528.6</ele>
        <time>2022-09-26T14:27:26Z</time>
      </trkpt>
      <trkpt lat="46.08276" lon="5.90092">
        <ele>528.2</ele>
        <time>2022-09-26T14:27:27Z</time>
      </trkpt>
      <trkpt lat="46.08281" lon="5.90093">
        <ele>528</ele>
        <time>2022-09-26T14:27:28Z</time>
      </trkpt>
      <trkpt lat="46.08286" lon="5.90095">
        <ele>527.7</ele>
        <time>2022-09-26T14:27:29Z</time>
      </trkpt>
      <trkpt lat="46.08292" lon="5.90098">
        <ele>527.4</ele>
        <time>2022-09-26T14:27:30Z</time>
      </trkpt>
      <trkpt lat="46.08296" lon="5.90102">
        <ele>527.1</ele>
        <time>2022-09-26T14:27:31Z</time>
      </trkpt>
      <trkpt lat="46.08302" lon="5.90107">
        <ele>526.8</ele>
        <time>2022-09-26T14:27:32Z</time>
      </trkpt>
      <trkpt lat="46.08307" lon="5.90111">
        <ele>526.4</ele>
        <time>2022-09-26T14:27:33Z</time>
      </trkpt>
      <trkpt lat="46.08312" lon="5.90114">
        <ele>526.1</ele>
        <time>2022-09-26T14:27:34Z</time>
      </trkpt>
      <trkpt lat="46.08317" lon="5.90118">
        <ele>525.8</ele>
        <time>2022-09-26T14:27:35Z</time>
      </trkpt>
      <trkpt lat="46.08323" lon="5.90121">
        <ele>525.4</ele>
        <time>2022-09-26T14:27:36Z</time>
      </trkpt>
      <trkpt lat="46.08329" lon="5.90125">
        <ele>525.1</ele>
        <time>2022-09-26T14:27:37Z</time>
      </trkpt>
      <trkpt lat="46.08335" lon="5.90129">
        <ele>524.7</ele>
        <time>2022-09-26T14:27:38Z</time>
      </trkpt>
      <trkpt lat="46.0834" lon="5.90133">
        <ele>524.4</ele>
        <time>2022-09-26T14:27:39Z</time>
      </trkpt>
      <trkpt lat="46.08345" lon="5.90136">
        <ele>524.1</ele>
        <time>2022-09-26T14:27:40Z</time>
      </trkpt>
      <trkpt lat="46.08349" lon="5.90138">
        <ele>523.8</ele>
        <time>2022-09-26T14:27:41Z</time>
      </trkpt>
      <trkpt lat="46.08353" lon="5.90141">
        <ele>523.5</ele>
        <time>2022-09-26T14:27:42Z</time>
      </trkpt>
      <trkpt lat="46.08356" lon="5.90143">
        <ele>523.3</ele>
        <time>2022-09-26T14:27:43Z</time>
      </trkpt>
      <trkpt lat="46.08361" lon="5.90146">
        <ele>523</ele>
        <time>2022-09-26T14:27:44Z</time>
      </trkpt>
      <trkpt lat="46.08364" lon="5.90148">
        <ele>522.7</ele>
        <time>2022-09-26T14:27:45Z</time>
      </trkpt>
      <trkpt lat="46.08367" lon="5.9015">
        <ele>522.6</ele>
        <time>2022-09-26T14:27:46Z</time>
      </trkpt>
      <trkpt lat="46.08371" lon="5.90152">
        <ele>522.4</ele>
        <time>2022-09-26T14:27:47Z</time>
      </trkpt>
      <trkpt lat="46.08375" lon="5.90155">
        <ele>522.2</ele>
        <time>2022-09-26T14:27:48Z</time>
      </trkpt>
      <trkpt lat="46.08379" lon="5.90158">
        <ele>522</ele>
        <time>2022-09-26T14:27:49Z</time>
      </trkpt>
      <trkpt lat="46.08384" lon="5.90163">
        <ele>521.8</ele>
        <time>2022-09-26T14:27:50Z</time>
      </trkpt>
      <trkpt lat="46.0839" lon="5.90168">
        <ele>521.5</ele>
        <time>2022-09-26T14:27:51Z</time>
      </trkpt>
      <trkpt lat="46.08395" lon="5.90172">
        <ele>521.2</ele>
        <time>2022-09-26T14:27:52Z</time>
      </trkpt>
      <trkpt lat="46.08401" lon="5.90174">
        <ele>520.9</ele>
        <time>2022-09-26T14:27:53Z</time>
      </trkpt>
      <trkpt lat="46.08407" lon="5.90176">
        <ele>520.6</ele>
        <time>2022-09-26T14:27:54Z</time>
      </trkpt>
      <trkpt lat="46.08412" lon="5.90176">
        <ele>520.3</ele>
        <time>2022-09-26T14:27:55Z</time>
      </trkpt>
      <trkpt lat="46.08418" lon="5.90175">
        <ele>520.1</ele>
        <time>2022-09-26T14:27:56Z</time>
      </trkpt>
      <trkpt lat="46.08424" lon="5.90174">
        <ele>519.8</ele>
        <time>2022-09-26T14:27:57Z</time>
      </trkpt>
      <trkpt lat="46.08431" lon="5.90172">
        <ele>519.5</ele>
        <time>2022-09-26T14:27:58Z</time>
      </trkpt>
      <trkpt lat="46.08437" lon="5.90169">
        <ele>519.2</ele>
        <time>2022-09-26T14:27:59Z</time>
      </trkpt>
      <trkpt lat="46.08443" lon="5.90166">
        <ele>518.9</ele>
        <time>2022-09-26T14:28:00Z</time>
      </trkpt>
      <trkpt lat="46.08448" lon="5.90162">
        <ele>518.6</ele>
        <time>2022-09-26T14:28:01Z</time>
      </trkpt>
      <trkpt lat="46.08453" lon="5.90157">
        <ele>518.4</ele>
        <time>2022-09-26T14:28:02Z</time>
      </trkpt>
      <trkpt lat="46.08458" lon="5.90151">
        <ele>518.1</ele>
        <time>2022-09-26T14:28:03Z</time>
      </trkpt>
      <trkpt lat="46.08462" lon="5.90144">
        <ele>517.8</ele>
        <time>2022-09-26T14:28:04Z</time>
      </trkpt>
      <trkpt lat="46.08466" lon="5.90137">
        <ele>517.5</ele>
        <time>2022-09-26T14:28:05Z</time>
      </trkpt>
      <trkpt lat="46.0847" lon="5.9013">
        <ele>517.2</ele>
        <time>2022-09-26T14:28:06Z</time>
      </trkpt>
      <trkpt lat="46.08473" lon="5.90124">
        <ele>516.9</ele>
        <time>2022-09-26T14:28:07Z</time>
      </trkpt>
      <trkpt lat="46.08478" lon="5.90118">
        <ele>516.6</ele>
        <time>2022-09-26T14:28:08Z</time>
      </trkpt>
      <trkpt lat="46.08481" lon="5.90111">
        <ele>516.3</ele>
        <time>2022-09-26T14:28:09Z</time>
      </trkpt>
      <trkpt lat="46.08485" lon="5.90104">
        <ele>516</ele>
        <time>2022-09-26T14:28:10Z</time>
      </trkpt>
      <trkpt lat="46.08489" lon="5.90097">
        <ele>515.7</ele>
        <time>2022-09-26T14:28:11Z</time>
      </trkpt>
      <trkpt lat="46.08493" lon="5.9009">
        <ele>515.4</ele>
        <time>2022-09-26T14:28:12Z</time>
      </trkpt>
      <trkpt lat="46.08496" lon="5.90082">
        <ele>515.1</ele>
        <time>2022-09-26T14:28:13Z</time>
      </trkpt>
      <trkpt lat="46.085" lon="5.90076">
        <ele>514.7</ele>
        <time>2022-09-26T14:28:14Z</time>
      </trkpt>
      <trkpt lat="46.08504" lon="5.90069">
        <ele>514.4</ele>
        <time>2022-09-26T14:28:15Z</time>
      </trkpt>
      <trkpt lat="46.08508" lon="5.90063">
        <ele>514</ele>
        <time>2022-09-26T14:28:16Z</time>
      </trkpt>
      <trkpt lat="46.08513" lon="5.90057">
        <ele>513.7</ele>
        <time>2022-09-26T14:28:17Z</time>
      </trkpt>
      <trkpt lat="46.08518" lon="5.9005">
        <ele>513.3</ele>
        <time>2022-09-26T14:28:18Z</time>
      </trkpt>
      <trkpt lat="46.08523" lon="5.90043">
        <ele>512.9</ele>
        <time>2022-09-26T14:28:19Z</time>
      </trkpt>
      <trkpt lat="46.08528" lon="5.90037">
        <ele>512.5</ele>
        <time>2022-09-26T14:28:20Z</time>
      </trkpt>
      <trkpt lat="46.08532" lon="5.90032">
        <ele>512.2</ele>
        <time>2022-09-26T14:28:21Z</time>
      </trkpt>
      <trkpt lat="46.08536" lon="5.90027">
        <ele>512</ele>
        <time>2022-09-26T14:28:22Z</time>
      </trkpt>
      <trkpt lat="46.0854" lon="5.90024">
        <ele>511.8</ele>
        <time>2022-09-26T14:28:23Z</time>
      </trkpt>
      <trkpt lat="46.08544" lon="5.90021">
        <ele>511.5</ele>
        <time>2022-09-26T14:28:24Z</time>
      </trkpt>
      <trkpt lat="46.08549" lon="5.9002">
        <ele>511.2</ele>
        <time>2022-09-26T14:28:25Z</time>
      </trkpt>
      <trkpt lat="46.08554" lon="5.90019">
        <ele>510.9</ele>
        <time>2022-09-26T14:28:26Z</time>
      </trkpt>
      <trkpt lat="46.08559" lon="5.90018">
        <ele>510.7</ele>
        <time>2022-09-26T14:28:27Z</time>
      </trkpt>
      <trkpt lat="46.08564" lon="5.90018">
        <ele>510.4</ele>
        <time>2022-09-26T14:28:28Z</time>
      </trkpt>
      <trkpt lat="46.08569" lon="5.90018">
        <ele>510.1</ele>
        <time>2022-09-26T14:28:29Z</time>
      </trkpt>
      <trkpt lat="46.08574" lon="5.90018">
        <ele>509.8</ele>
        <time>2022-09-26T14:28:30Z</time>
      </trkpt>
      <trkpt lat="46.0858" lon="5.90017">
        <ele>509.5</ele>
        <time>2022-09-26T14:28:31Z</time>
      </trkpt>
      <trkpt lat="46.08586" lon="5.90016">
        <ele>509.2</ele>
        <time>2022-09-26T14:28:32Z</time>
      </trkpt>
      <trkpt lat="46.08592" lon="5.90014">
        <ele>508.9</ele>
        <time>2022-09-26T14:28:33Z</time>
      </trkpt>
      <trkpt lat="46.08597" lon="5.90011">
        <ele>508.7</ele>
        <time>2022-09-26T14:28:34Z</time>
      </trkpt>
      <trkpt lat="46.08603" lon="5.90009">
        <ele>508.4</ele>
        <time>2022-09-26T14:28:35Z</time>
      </trkpt>
      <trkpt lat="46.08609" lon="5.90006">
        <ele>508.2</ele>
        <time>2022-09-26T14:28:36Z</time>
      </trkpt>
      <trkpt lat="46.08615" lon="5.90004">
        <ele>507.9</ele>
        <time>2022-09-26T14:28:37Z</time>
      </trkpt>
      <trkpt lat="46.08621" lon="5.90001">
        <ele>507.6</ele>
        <time>2022-09-26T14:28:38Z</time>
      </trkpt>
      <trkpt lat="46.08627" lon="5.9">
        <ele>507.4</ele>
        <time>2022-09-26T14:28:39Z</time>
      </trkpt>
      <trkpt lat="46.08633" lon="5.89999">
        <ele>507.1</ele>
        <time>2022-09-26T14:28:40Z</time>
      </trkpt>
      <trkpt lat="46.0864" lon="5.89998">
        <ele>506.9</ele>
        <time>2022-09-26T14:28:41Z</time>
      </trkpt>
      <trkpt lat="46.08646" lon="5.89997">
        <ele>506.7</ele>
        <time>2022-09-26T14:28:42Z</time>
      </trkpt>
      <trkpt lat="46.08652" lon="5.89997">
        <ele>506.5</ele>
        <time>2022-09-26T14:28:43Z</time>
      </trkpt>
      <trkpt lat="46.08657" lon="5.89997">
        <ele>506.3</ele>
        <time>2022-09-26T14:28:44Z</time>
      </trkpt>
      <trkpt lat="46.08663" lon="5.89997">
        <ele>506.1</ele>
        <time>2022-09-26T14:28:45Z</time>
      </trkpt>
      <trkpt lat="46.08668" lon="5.89997">
        <ele>505.9</ele>
        <time>2022-09-26T14:28:46Z</time>
      </trkpt>
      <trkpt lat="46.08674" lon="5.89997">
        <ele>505.7</ele>
        <time>2022-09-26T14:28:47Z</time>
      </trkpt>
      <trkpt lat="46.08679" lon="5.89997">
        <ele>505.6</ele>
        <time>2022-09-26T14:28:48Z</time>
      </trkpt>
      <trkpt lat="46.08683" lon="5.89997">
        <ele>505.5</ele>
        <time>2022-09-26T14:28:49Z</time>
      </trkpt>
      <trkpt lat="46.08688" lon="5.89997">
        <ele>505.4</ele>
        <time>2022-09-26T14:28:50Z</time>
      </trkpt>
      <trkpt lat="46.08692" lon="5.89997">
        <ele>505.3</ele>
        <time>2022-09-26T14:28:51Z</time>
      </trkpt>
      <trkpt lat="46.08696" lon="5.89997">
        <ele>505.3</ele>
        <time>2022-09-26T14:28:52Z</time>
      </trkpt>
      <trkpt lat="46.087" lon="5.89998">
        <ele>505.2</ele>
        <time>2022-09-26T14:28:53Z</time>
      </trkpt>
      <trkpt lat="46.08705" lon="5.89998">
        <ele>505.1</ele>
        <time>2022-09-26T14:28:54Z</time>
      </trkpt>
      <trkpt lat="46.0871" lon="5.89998">
        <ele>505</ele>
        <time>2022-09-26T14:28:55Z</time>
      </trkpt>
      <trkpt lat="46.08716" lon="5.89999">
        <ele>504.9</ele>
        <time>2022-09-26T14:28:56Z</time>
      </trkpt>
      <trkpt lat="46.08722" lon="5.89999">
        <ele>504.7</ele>
        <time>2022-09-26T14:28:57Z</time>
      </trkpt>
      <trkpt lat="46.08728" lon="5.89999">
        <ele>504.6</ele>
        <time>2022-09-26T14:28:58Z</time>
      </trkpt>
      <trkpt lat="46.08733" lon="5.9">
        <ele>504.5</ele>
        <time>2022-09-26T14:28:59Z</time>
      </trkpt>
      <trkpt lat="46.0874" lon="5.9">
        <ele>504.3</ele>
        <time>2022-09-26T14:29:00Z</time>
      </trkpt>
      <trkpt lat="46.08745" lon="5.90001">
        <ele>504.2</ele>
        <time>2022-09-26T14:29:01Z</time>
      </trkpt>
      <trkpt lat="46.08754" lon="5.90002">
        <ele>504</ele>
        <time>2022-09-26T14:29:02Z</time>
      </trkpt>
      <trkpt lat="46.08761" lon="5.90004">
        <ele>503.8</ele>
        <time>2022-09-26T14:29:03Z</time>
      </trkpt>
      <trkpt lat="46.08767" lon="5.90007">
        <ele>503.6</ele>
        <time>2022-09-26T14:29:04Z</time>
      </trkpt>
      <trkpt lat="46.08774" lon="5.90011">
        <ele>503.4</ele>
        <time>2022-09-26T14:29:05Z</time>
      </trkpt>
      <trkpt lat="46.0878" lon="5.90014">
        <ele>503.2</ele>
        <time>2022-09-26T14:29:06Z</time>
      </trkpt>
      <trkpt lat="46.08787" lon="5.90016">
        <ele>502.9</ele>
        <time>2022-09-26T14:29:07Z</time>
      </trkpt>
      <trkpt lat="46.08795" lon="5.9002">
        <ele>502.6</ele>
        <time>2022-09-26T14:29:08Z</time>
      </trkpt>
      <trkpt lat="46.08802" lon="5.90021">
        <ele>502.4</ele>
        <time>2022-09-26T14:29:09Z</time>
      </trkpt>
      <trkpt lat="46.0881" lon="5.90022">
        <ele>502.1</ele>
        <time>2022-09-26T14:29:10Z</time>
      </trkpt>
      <trkpt lat="46.08819" lon="5.90023">
        <ele>501.8</ele>
        <time>2022-09-26T14:29:11Z</time>
      </trkpt>
      <trkpt lat="46.08826" lon="5.90025">
        <ele>501.5</ele>
        <time>2022-09-26T14:29:12Z</time>
      </trkpt>
      <trkpt lat="46.08832" lon="5.90025">
        <ele>501.3</ele>
        <time>2022-09-26T14:29:13Z</time>
      </trkpt>
      <trkpt lat="46.0884" lon="5.90025">
        <ele>501</ele>
        <time>2022-09-26T14:29:14Z</time>
      </trkpt>
      <trkpt lat="46.08846" lon="5.90026">
        <ele>500.8</ele>
        <time>2022-09-26T14:29:15Z</time>
      </trkpt>
      <trkpt lat="46.08854" lon="5.90027">
        <ele>500.6</ele>
        <time>2022-09-26T14:29:16Z</time>
      </trkpt>
      <trkpt lat="46.0886" lon="5.90027">
        <ele>500.4</ele>
        <time>2022-09-26T14:29:17Z</time>
      </trkpt>
      <trkpt lat="46.08867" lon="5.90027">
        <ele>500.2</ele>
        <time>2022-09-26T14:29:18Z</time>
      </trkpt>
      <trkpt lat="46.08874" lon="5.90027">
        <ele>500</ele>
        <time>2022-09-26T14:29:19Z</time>
      </trkpt>
      <trkpt lat="46.08881" lon="5.90027">
        <ele>499.9</ele>
        <time>2022-09-26T14:29:20Z</time>
      </trkpt>
      <trkpt lat="46.08888" lon="5.90027">
        <ele>499.7</ele>
        <time>2022-09-26T14:29:21Z</time>
      </trkpt>
      <trkpt lat="46.08894" lon="5.90026">
        <ele>499.5</ele>
        <time>2022-09-26T14:29:22Z</time>
      </trkpt>
      <trkpt lat="46.08901" lon="5.90026">
        <ele>499.3</ele>
        <time>2022-09-26T14:29:23Z</time>
      </trkpt>
      <trkpt lat="46.08909" lon="5.90025">
        <ele>499.1</ele>
        <time>2022-09-26T14:29:24Z</time>
      </trkpt>
      <trkpt lat="46.08918" lon="5.90025">
        <ele>498.8</ele>
        <time>2022-09-26T14:29:25Z</time>
      </trkpt>
      <trkpt lat="46.08926" lon="5.90024">
        <ele>498.6</ele>
        <time>2022-09-26T14:29:26Z</time>
      </trkpt>
      <trkpt lat="46.08933" lon="5.90023">
        <ele>498.4</ele>
        <time>2022-09-26T14:29:27Z</time>
      </trkpt>
      <trkpt lat="46.08939" lon="5.90022">
        <ele>498.2</ele>
        <time>2022-09-26T14:29:28Z</time>
      </trkpt>
      <trkpt lat="46.08945" lon="5.90021">
        <ele>498</ele>
        <time>2022-09-26T14:29:29Z</time>
      </trkpt>
      <trkpt lat="46.08951" lon="5.90021">
        <ele>497.9</ele>
        <time>2022-09-26T14:29:30Z</time>
      </trkpt>
      <trkpt lat="46.08957" lon="5.90021">
        <ele>497.7</ele>
        <time>2022-09-26T14:29:31Z</time>
      </trkpt>
      <trkpt lat="46.08963" lon="5.90021">
        <ele>497.5</ele>
        <time>2022-09-26T14:29:32Z</time>
      </trkpt>
      <trkpt lat="46.0897" lon="5.90022">
        <ele>497.4</ele>
        <time>2022-09-26T14:29:33Z</time>
      </trkpt>
      <trkpt lat="46.08975" lon="5.90023">
        <ele>497.2</ele>
        <time>2022-09-26T14:29:34Z</time>
      </trkpt>
      <trkpt lat="46.0898" lon="5.90023">
        <ele>497.1</ele>
        <time>2022-09-26T14:29:35Z</time>
      </trkpt>
      <trkpt lat="46.08985" lon="5.90024">
        <ele>497</ele>
        <time>2022-09-26T14:29:36Z</time>
      </trkpt>
      <trkpt lat="46.0899" lon="5.90025">
        <ele>496.9</ele>
        <time>2022-09-26T14:29:37Z</time>
      </trkpt>
      <trkpt lat="46.08996" lon="5.90026">
        <ele>496.8</ele>
        <time>2022-09-26T14:29:38Z</time>
      </trkpt>
      <trkpt lat="46.09001" lon="5.90026">
        <ele>496.7</ele>
        <time>2022-09-26T14:29:39Z</time>
      </trkpt>
      <trkpt lat="46.09005" lon="5.90027">
        <ele>496.6</ele>
        <time>2022-09-26T14:29:40Z</time>
      </trkpt>
      <trkpt lat="46.09011" lon="5.90028">
        <ele>496.5</ele>
        <time>2022-09-26T14:29:41Z</time>
      </trkpt>
      <trkpt lat="46.09016" lon="5.90028">
        <ele>496.3</ele>
        <time>2022-09-26T14:29:42Z</time>
      </trkpt>
      <trkpt lat="46.0902" lon="5.90028">
        <ele>496.2</ele>
        <time>2022-09-26T14:29:43Z</time>
      </trkpt>
      <trkpt lat="46.09025" lon="5.90029">
        <ele>496.1</ele>
        <time>2022-09-26T14:29:44Z</time>
      </trkpt>
      <trkpt lat="46.0903" lon="5.90029">
        <ele>495.9</ele>
        <time>2022-09-26T14:29:45Z</time>
      </trkpt>
      <trkpt lat="46.09035" lon="5.9003">
        <ele>495.7</ele>
        <time>2022-09-26T14:29:46Z</time>
      </trkpt>
      <trkpt lat="46.0904" lon="5.9003">
        <ele>495.6</ele>
        <time>2022-09-26T14:29:47Z</time>
      </trkpt>
      <trkpt lat="46.09045" lon="5.90029">
        <ele>495.4</ele>
        <time>2022-09-26T14:29:48Z</time>
      </trkpt>
      <trkpt lat="46.09049" lon="5.90028">
        <ele>495.3</ele>
        <time>2022-09-26T14:29:49Z</time>
      </trkpt>
      <trkpt lat="46.09055" lon="5.90028">
        <ele>495.1</ele>
        <time>2022-09-26T14:29:50Z</time>
      </trkpt>
      <trkpt lat="46.09061" lon="5.90028">
        <ele>495</ele>
        <time>2022-09-26T14:29:51Z</time>
      </trkpt>
      <trkpt lat="46.09066" lon="5.90027">
        <ele>494.8</ele>
        <time>2022-09-26T14:29:52Z</time>
      </trkpt>
      <trkpt lat="46.09072" lon="5.90026">
        <ele>494.7</ele>
        <time>2022-09-26T14:29:53Z</time>
      </trkpt>
      <trkpt lat="46.09079" lon="5.90025">
        <ele>494.5</ele>
        <time>2022-09-26T14:29:54Z</time>
      </trkpt>
      <trkpt lat="46.09085" lon="5.90024">
        <ele>494.3</ele>
        <time>2022-09-26T14:29:55Z</time>
      </trkpt>
      <trkpt lat="46.09093" lon="5.90021">
        <ele>494.1</ele>
        <time>2022-09-26T14:29:56Z</time>
      </trkpt>
      <trkpt lat="46.091" lon="5.90019">
        <ele>493.9</ele>
        <time>2022-09-26T14:29:57Z</time>
      </trkpt>
      <trkpt lat="46.09108" lon="5.90017">
        <ele>493.8</ele>
        <time>2022-09-26T14:29:58Z</time>
      </trkpt>
      <trkpt lat="46.09114" lon="5.90014">
        <ele>493.6</ele>
        <time>2022-09-26T14:29:59Z</time>
      </trkpt>
      <trkpt lat="46.09122" lon="5.90011">
        <ele>493.4</ele>
        <time>2022-09-26T14:30:00Z</time>
      </trkpt>
      <trkpt lat="46.09129" lon="5.90007">
        <ele>493.1</ele>
        <time>2022-09-26T14:30:01Z</time>
      </trkpt>
      <trkpt lat="46.09136" lon="5.90004">
        <ele>492.9</ele>
        <time>2022-09-26T14:30:02Z</time>
      </trkpt>
      <trkpt lat="46.09142" lon="5.90001">
        <ele>492.8</ele>
        <time>2022-09-26T14:30:03Z</time>
      </trkpt>
      <trkpt lat="46.09147" lon="5.89998">
        <ele>492.6</ele>
        <time>2022-09-26T14:30:04Z</time>
      </trkpt>
      <trkpt lat="46.09152" lon="5.89996">
        <ele>492.5</ele>
        <time>2022-09-26T14:30:05Z</time>
      </trkpt>
      <trkpt lat="46.09161" lon="5.89992">
        <ele>492.3</ele>
        <time>2022-09-26T14:30:06Z</time>
      </trkpt>
      <trkpt lat="46.09167" lon="5.89988">
        <ele>492.1</ele>
        <time>2022-09-26T14:30:07Z</time>
      </trkpt>
      <trkpt lat="46.09174" lon="5.89985">
        <ele>491.9</ele>
        <time>2022-09-26T14:30:08Z</time>
      </trkpt>
      <trkpt lat="46.09181" lon="5.89982">
        <ele>491.7</ele>
        <time>2022-09-26T14:30:09Z</time>
      </trkpt>
      <trkpt lat="46.09187" lon="5.89978">
        <ele>491.5</ele>
        <time>2022-09-26T14:30:10Z</time>
      </trkpt>
      <trkpt lat="46.09194" lon="5.89974">
        <ele>491.3</ele>
        <time>2022-09-26T14:30:11Z</time>
      </trkpt>
      <trkpt lat="46.092" lon="5.8997">
        <ele>491.1</ele>
        <time>2022-09-26T14:30:12Z</time>
      </trkpt>
      <trkpt lat="46.09207" lon="5.89965">
        <ele>490.9</ele>
        <time>2022-09-26T14:30:13Z</time>
      </trkpt>
      <trkpt lat="46.09213" lon="5.8996">
        <ele>490.6</ele>
        <time>2022-09-26T14:30:14Z</time>
      </trkpt>
      <trkpt lat="46.0922" lon="5.89955">
        <ele>490.4</ele>
        <time>2022-09-26T14:30:15Z</time>
      </trkpt>
      <trkpt lat="46.09226" lon="5.89951">
        <ele>490.2</ele>
        <time>2022-09-26T14:30:16Z</time>
      </trkpt>
      <trkpt lat="46.09232" lon="5.89946">
        <ele>490</ele>
        <time>2022-09-26T14:30:17Z</time>
      </trkpt>
      <trkpt lat="46.09239" lon="5.89941">
        <ele>489.8</ele>
        <time>2022-09-26T14:30:18Z</time>
      </trkpt>
      <trkpt lat="46.09246" lon="5.89936">
        <ele>489.6</ele>
        <time>2022-09-26T14:30:19Z</time>
      </trkpt>
      <trkpt lat="46.09253" lon="5.89931">
        <ele>489.4</ele>
        <time>2022-09-26T14:30:20Z</time>
      </trkpt>
      <trkpt lat="46.09259" lon="5.89927">
        <ele>489.2</ele>
        <time>2022-09-26T14:30:21Z</time>
      </trkpt>
      <trkpt lat="46.09266" lon="5.89925">
        <ele>489</ele>
        <time>2022-09-26T14:30:22Z</time>
      </trkpt>
      <trkpt lat="46.09272" lon="5.89922">
        <ele>488.8</ele>
        <time>2022-09-26T14:30:23Z</time>
      </trkpt>
      <trkpt lat="46.09279" lon="5.8992">
        <ele>488.6</ele>
        <time>2022-09-26T14:30:24Z</time>
      </trkpt>
      <trkpt lat="46.09285" lon="5.89919">
        <ele>488.4</ele>
        <time>2022-09-26T14:30:25Z</time>
      </trkpt>
      <trkpt lat="46.09291" lon="5.89918">
        <ele>488.3</ele>
        <time>2022-09-26T14:30:26Z</time>
      </trkpt>
      <trkpt lat="46.09297" lon="5.89917">
        <ele>488.1</ele>
        <time>2022-09-26T14:30:27Z</time>
      </trkpt>
      <trkpt lat="46.09303" lon="5.89918">
        <ele>487.9</ele>
        <time>2022-09-26T14:30:28Z</time>
      </trkpt>
      <trkpt lat="46.09308" lon="5.89915">
        <ele>487.8</ele>
        <time>2022-09-26T14:30:29Z</time>
      </trkpt>
      <trkpt lat="46.09314" lon="5.89914">
        <ele>487.6</ele>
        <time>2022-09-26T14:30:30Z</time>
      </trkpt>
      <trkpt lat="46.09318" lon="5.89914">
        <ele>487.5</ele>
        <time>2022-09-26T14:30:31Z</time>
      </trkpt>
      <trkpt lat="46.09323" lon="5.89914">
        <ele>487.4</ele>
        <time>2022-09-26T14:30:32Z</time>
      </trkpt>
      <trkpt lat="46.09329" lon="5.89912">
        <ele>487.2</ele>
        <time>2022-09-26T14:30:33Z</time>
      </trkpt>
      <trkpt lat="46.09335" lon="5.89909">
        <ele>487.1</ele>
        <time>2022-09-26T14:30:34Z</time>
      </trkpt>
      <trkpt lat="46.09341" lon="5.89906">
        <ele>486.9</ele>
        <time>2022-09-26T14:30:35Z</time>
      </trkpt>
      <trkpt lat="46.09347" lon="5.89903">
        <ele>486.8</ele>
        <time>2022-09-26T14:30:36Z</time>
      </trkpt>
      <trkpt lat="46.09353" lon="5.899">
        <ele>486.6</ele>
        <time>2022-09-26T14:30:37Z</time>
      </trkpt>
      <trkpt lat="46.09359" lon="5.89896">
        <ele>486.5</ele>
        <time>2022-09-26T14:30:38Z</time>
      </trkpt>
      <trkpt lat="46.09364" lon="5.89894">
        <ele>486.3</ele>
        <time>2022-09-26T14:30:39Z</time>
      </trkpt>
      <trkpt lat="46.09368" lon="5.89892">
        <ele>486.2</ele>
        <time>2022-09-26T14:30:40Z</time>
      </trkpt>
      <trkpt lat="46.09375" lon="5.8989">
        <ele>486</ele>
        <time>2022-09-26T14:30:41Z</time>
      </trkpt>
      <trkpt lat="46.0938" lon="5.89887">
        <ele>485.9</ele>
        <time>2022-09-26T14:30:42Z</time>
      </trkpt>
      <trkpt lat="46.09385" lon="5.89884">
        <ele>485.7</ele>
        <time>2022-09-26T14:30:43Z</time>
      </trkpt>
      <trkpt lat="46.0939" lon="5.89882">
        <ele>485.6</ele>
        <time>2022-09-26T14:30:44Z</time>
      </trkpt>
      <trkpt lat="46.09396" lon="5.8988">
        <ele>485.4</ele>
        <time>2022-09-26T14:30:45Z</time>
      </trkpt>
      <trkpt lat="46.094" lon="5.89877">
        <ele>485.2</ele>
        <time>2022-09-26T14:30:46Z</time>
      </trkpt>
      <trkpt lat="46.09406" lon="5.89874">
        <ele>485</ele>
        <time>2022-09-26T14:30:47Z</time>
      </trkpt>
      <trkpt lat="46.09411" lon="5.89872">
        <ele>484.8</ele>
        <time>2022-09-26T14:30:48Z</time>
      </trkpt>
      <trkpt lat="46.09416" lon="5.8987">
        <ele>484.6</ele>
        <time>2022-09-26T14:30:49Z</time>
      </trkpt>
      <trkpt lat="46.09421" lon="5.89868">
        <ele>484.4</ele>
        <time>2022-09-26T14:30:50Z</time>
      </trkpt>
      <trkpt lat="46.09427" lon="5.89867">
        <ele>484.1</ele>
        <time>2022-09-26T14:30:51Z</time>
      </trkpt>
      <trkpt lat="46.09431" lon="5.89866">
        <ele>483.9</ele>
        <time>2022-09-26T14:30:52Z</time>
      </trkpt>
      <trkpt lat="46.09436" lon="5.89865">
        <ele>483.6</ele>
        <time>2022-09-26T14:30:53Z</time>
      </trkpt>
      <trkpt lat="46.09441" lon="5.89864">
        <ele>483.3</ele>
        <time>2022-09-26T14:30:54Z</time>
      </trkpt>
      <trkpt lat="46.09447" lon="5.89864">
        <ele>483</ele>
        <time>2022-09-26T14:30:55Z</time>
      </trkpt>
      <trkpt lat="46.09452" lon="5.89864">
        <ele>482.7</ele>
        <time>2022-09-26T14:30:56Z</time>
      </trkpt>
      <trkpt lat="46.09457" lon="5.89864">
        <ele>482.4</ele>
        <time>2022-09-26T14:30:57Z</time>
      </trkpt>
      <trkpt lat="46.09463" lon="5.89865">
        <ele>482</ele>
        <time>2022-09-26T14:30:58Z</time>
      </trkpt>
      <trkpt lat="46.0947" lon="5.89866">
        <ele>481.6</ele>
        <time>2022-09-26T14:30:59Z</time>
      </trkpt>
      <trkpt lat="46.09476" lon="5.89865">
        <ele>481.2</ele>
        <time>2022-09-26T14:31:00Z</time>
      </trkpt>
      <trkpt lat="46.09483" lon="5.89864">
        <ele>480.8</ele>
        <time>2022-09-26T14:31:01Z</time>
      </trkpt>
      <trkpt lat="46.09489" lon="5.89862">
        <ele>480.4</ele>
        <time>2022-09-26T14:31:02Z</time>
      </trkpt>
      <trkpt lat="46.09496" lon="5.89861">
        <ele>480.1</ele>
        <time>2022-09-26T14:31:03Z</time>
      </trkpt>
      <trkpt lat="46.09502" lon="5.89861">
        <ele>479.7</ele>
        <time>2022-09-26T14:31:04Z</time>
      </trkpt>
      <trkpt lat="46.09508" lon="5.89858">
        <ele>479.4</ele>
        <time>2022-09-26T14:31:05Z</time>
      </trkpt>
      <trkpt lat="46.09514" lon="5.89859">
        <ele>479</ele>
        <time>2022-09-26T14:31:06Z</time>
      </trkpt>
      <trkpt lat="46.0952" lon="5.8986">
        <ele>478.6</ele>
        <time>2022-09-26T14:31:07Z</time>
      </trkpt>
      <trkpt lat="46.09527" lon="5.89861">
        <ele>478.3</ele>
        <time>2022-09-26T14:31:08Z</time>
      </trkpt>
      <trkpt lat="46.09533" lon="5.89862">
        <ele>478</ele>
        <time>2022-09-26T14:31:09Z</time>
      </trkpt>
      <trkpt lat="46.0954" lon="5.89863">
        <ele>477.6</ele>
        <time>2022-09-26T14:31:10Z</time>
      </trkpt>
      <trkpt lat="46.09546" lon="5.89865">
        <ele>477.3</ele>
        <time>2022-09-26T14:31:11Z</time>
      </trkpt>
      <trkpt lat="46.09551" lon="5.89866">
        <ele>477</ele>
        <time>2022-09-26T14:31:12Z</time>
      </trkpt>
      <trkpt lat="46.09558" lon="5.89867">
        <ele>476.7</ele>
        <time>2022-09-26T14:31:13Z</time>
      </trkpt>
      <trkpt lat="46.09563" lon="5.89868">
        <ele>476.4</ele>
        <time>2022-09-26T14:31:14Z</time>
      </trkpt>
      <trkpt lat="46.09569" lon="5.89869">
        <ele>476</ele>
        <time>2022-09-26T14:31:15Z</time>
      </trkpt>
      <trkpt lat="46.09574" lon="5.89867">
        <ele>475.8</ele>
        <time>2022-09-26T14:31:16Z</time>
      </trkpt>
      <trkpt lat="46.0958" lon="5.89868">
        <ele>475.5</ele>
        <time>2022-09-26T14:31:17Z</time>
      </trkpt>
      <trkpt lat="46.09586" lon="5.89869">
        <ele>475.1</ele>
        <time>2022-09-26T14:31:18Z</time>
      </trkpt>
      <trkpt lat="46.09592" lon="5.89869">
        <ele>474.8</ele>
        <time>2022-09-26T14:31:19Z</time>
      </trkpt>
      <trkpt lat="46.09599" lon="5.8987">
        <ele>474.4</ele>
        <time>2022-09-26T14:31:20Z</time>
      </trkpt>
      <trkpt lat="46.09607" lon="5.89871">
        <ele>473.9</ele>
        <time>2022-09-26T14:31:21Z</time>
      </trkpt>
      <trkpt lat="46.09614" lon="5.89872">
        <ele>473.5</ele>
        <time>2022-09-26T14:31:22Z</time>
      </trkpt>
      <trkpt lat="46.09621" lon="5.89871">
        <ele>473.1</ele>
        <time>2022-09-26T14:31:23Z</time>
      </trkpt>
      <trkpt lat="46.09629" lon="5.89871">
        <ele>472.7</ele>
        <time>2022-09-26T14:31:24Z</time>
      </trkpt>
      <trkpt lat="46.09636" lon="5.89871">
        <ele>472.2</ele>
        <time>2022-09-26T14:31:25Z</time>
      </trkpt>
      <trkpt lat="46.09645" lon="5.89871">
        <ele>471.8</ele>
        <time>2022-09-26T14:31:26Z</time>
      </trkpt>
      <trkpt lat="46.09653" lon="5.89869">
        <ele>471.3</ele>
        <time>2022-09-26T14:31:27Z</time>
      </trkpt>
      <trkpt lat="46.09661" lon="5.89868">
        <ele>470.9</ele>
        <time>2022-09-26T14:31:28Z</time>
      </trkpt>
      <trkpt lat="46.09668" lon="5.89865">
        <ele>470.5</ele>
        <time>2022-09-26T14:31:29Z</time>
      </trkpt>
      <trkpt lat="46.09675" lon="5.89864">
        <ele>470.1</ele>
        <time>2022-09-26T14:31:30Z</time>
      </trkpt>
      <trkpt lat="46.09682" lon="5.89862">
        <ele>469.7</ele>
        <time>2022-09-26T14:31:31Z</time>
      </trkpt>
      <trkpt lat="46.09689" lon="5.8986">
        <ele>469.3</ele>
        <time>2022-09-26T14:31:32Z</time>
      </trkpt>
      <trkpt lat="46.09696" lon="5.89858">
        <ele>468.9</ele>
        <time>2022-09-26T14:31:33Z</time>
      </trkpt>
      <trkpt lat="46.09703" lon="5.89856">
        <ele>468.5</ele>
        <time>2022-09-26T14:31:34Z</time>
      </trkpt>
      <trkpt lat="46.09709" lon="5.89855">
        <ele>468.2</ele>
        <time>2022-09-26T14:31:35Z</time>
      </trkpt>
      <trkpt lat="46.09715" lon="5.89853">
        <ele>467.8</ele>
        <time>2022-09-26T14:31:36Z</time>
      </trkpt>
      <trkpt lat="46.0972" lon="5.89848">
        <ele>467.4</ele>
        <time>2022-09-26T14:31:37Z</time>
      </trkpt>
      <trkpt lat="46.09728" lon="5.89844">
        <ele>467</ele>
        <time>2022-09-26T14:31:38Z</time>
      </trkpt>
      <trkpt lat="46.09735" lon="5.89841">
        <ele>466.5</ele>
        <time>2022-09-26T14:31:39Z</time>
      </trkpt>
      <trkpt lat="46.09741" lon="5.89838">
        <ele>466.1</ele>
        <time>2022-09-26T14:31:40Z</time>
      </trkpt>
      <trkpt lat="46.09747" lon="5.89835">
        <ele>465.7</ele>
        <time>2022-09-26T14:31:41Z</time>
      </trkpt>
      <trkpt lat="46.09754" lon="5.89831">
        <ele>465.3</ele>
        <time>2022-09-26T14:31:42Z</time>
      </trkpt>
      <trkpt lat="46.09759" lon="5.89827">
        <ele>465</ele>
        <time>2022-09-26T14:31:43Z</time>
      </trkpt>
      <trkpt lat="46.09765" lon="5.89824">
        <ele>464.6</ele>
        <time>2022-09-26T14:31:44Z</time>
      </trkpt>
      <trkpt lat="46.09772" lon="5.89822">
        <ele>464.3</ele>
        <time>2022-09-26T14:31:45Z</time>
      </trkpt>
      <trkpt lat="46.09777" lon="5.8982">
        <ele>464</ele>
        <time>2022-09-26T14:31:46Z</time>
      </trkpt>
      <trkpt lat="46.09782" lon="5.8982">
        <ele>463.7</ele>
        <time>2022-09-26T14:31:47Z</time>
      </trkpt>
      <trkpt lat="46.09788" lon="5.89819">
        <ele>463.4</ele>
        <time>2022-09-26T14:31:48Z</time>
      </trkpt>
      <trkpt lat="46.09794" lon="5.89818">
        <ele>463.2</ele>
        <time>2022-09-26T14:31:49Z</time>
      </trkpt>
      <trkpt lat="46.09799" lon="5.89818">
        <ele>462.9</ele>
        <time>2022-09-26T14:31:50Z</time>
      </trkpt>
      <trkpt lat="46.09805" lon="5.89818">
        <ele>462.6</ele>
        <time>2022-09-26T14:31:51Z</time>
      </trkpt>
      <trkpt lat="46.0981" lon="5.89818">
        <ele>462.4</ele>
        <time>2022-09-26T14:31:52Z</time>
      </trkpt>
      <trkpt lat="46.09815" lon="5.89819">
        <ele>462.1</ele>
        <time>2022-09-26T14:31:53Z</time>
      </trkpt>
      <trkpt lat="46.0982" lon="5.89818">
        <ele>461.9</ele>
        <time>2022-09-26T14:31:54Z</time>
      </trkpt>
      <trkpt lat="46.09827" lon="5.89818">
        <ele>461.5</ele>
        <time>2022-09-26T14:31:55Z</time>
      </trkpt>
      <trkpt lat="46.09833" lon="5.89818">
        <ele>461.2</ele>
        <time>2022-09-26T14:31:56Z</time>
      </trkpt>
      <trkpt lat="46.0984" lon="5.89817">
        <ele>460.7</ele>
        <time>2022-09-26T14:31:57Z</time>
      </trkpt>
      <trkpt lat="46.09847" lon="5.89815">
        <ele>460.3</ele>
        <time>2022-09-26T14:31:58Z</time>
      </trkpt>
      <trkpt lat="46.09853" lon="5.89812">
        <ele>459.9</ele>
        <time>2022-09-26T14:31:59Z</time>
      </trkpt>
      <trkpt lat="46.09859" lon="5.8981">
        <ele>459.5</ele>
        <time>2022-09-26T14:32:00Z</time>
      </trkpt>
      <trkpt lat="46.09865" lon="5.89808">
        <ele>459.1</ele>
        <time>2022-09-26T14:32:01Z</time>
      </trkpt>
      <trkpt lat="46.0987" lon="5.89806">
        <ele>458.7</ele>
        <time>2022-09-26T14:32:02Z</time>
      </trkpt>
      <trkpt lat="46.09876" lon="5.89803">
        <ele>458.3</ele>
        <time>2022-09-26T14:32:03Z</time>
      </trkpt>
      <trkpt lat="46.09882" lon="5.898">
        <ele>457.9</ele>
        <time>2022-09-26T14:32:04Z</time>
      </trkpt>
      <trkpt lat="46.09888" lon="5.89797">
        <ele>457.4</ele>
        <time>2022-09-26T14:32:05Z</time>
      </trkpt>
      <trkpt lat="46.09894" lon="5.89793">
        <ele>457</ele>
        <time>2022-09-26T14:32:06Z</time>
      </trkpt>
      <trkpt lat="46.09901" lon="5.89788">
        <ele>456.5</ele>
        <time>2022-09-26T14:32:07Z</time>
      </trkpt>
      <trkpt lat="46.09907" lon="5.89784">
        <ele>456.1</ele>
        <time>2022-09-26T14:32:08Z</time>
      </trkpt>
      <trkpt lat="46.09913" lon="5.89778">
        <ele>455.7</ele>
        <time>2022-09-26T14:32:09Z</time>
      </trkpt>
      <trkpt lat="46.09919" lon="5.89774">
        <ele>455.4</ele>
        <time>2022-09-26T14:32:10Z</time>
      </trkpt>
      <trkpt lat="46.09926" lon="5.89768">
        <ele>455.1</ele>
        <time>2022-09-26T14:32:11Z</time>
      </trkpt>
      <trkpt lat="46.09933" lon="5.89763">
        <ele>454.7</ele>
        <time>2022-09-26T14:32:12Z</time>
      </trkpt>
      <trkpt lat="46.0994" lon="5.89757">
        <ele>454.4</ele>
        <time>2022-09-26T14:32:13Z</time>
      </trkpt>
      <trkpt lat="46.09947" lon="5.89753">
        <ele>454</ele>
        <time>2022-09-26T14:32:14Z</time>
      </trkpt>
      <trkpt lat="46.09953" lon="5.89748">
        <ele>453.7</ele>
        <time>2022-09-26T14:32:15Z</time>
      </trkpt>
      <trkpt lat="46.0996" lon="5.89744">
        <ele>453.4</ele>
        <time>2022-09-26T14:32:16Z</time>
      </trkpt>
      <trkpt lat="46.09966" lon="5.8974">
        <ele>453.2</ele>
        <time>2022-09-26T14:32:17Z</time>
      </trkpt>
      <trkpt lat="46.09973" lon="5.89735">
        <ele>452.8</ele>
        <time>2022-09-26T14:32:18Z</time>
      </trkpt>
      <trkpt lat="46.0998" lon="5.89732">
        <ele>452.6</ele>
        <time>2022-09-26T14:32:19Z</time>
      </trkpt>
      <trkpt lat="46.09986" lon="5.89728">
        <ele>452.3</ele>
        <time>2022-09-26T14:32:20Z</time>
      </trkpt>
      <trkpt lat="46.09993" lon="5.89724">
        <ele>452</ele>
        <time>2022-09-26T14:32:21Z</time>
      </trkpt>
      <trkpt lat="46.1" lon="5.8972">
        <ele>451.7</ele>
        <time>2022-09-26T14:32:22Z</time>
      </trkpt>
      <trkpt lat="46.10005" lon="5.89716">
        <ele>451.5</ele>
        <time>2022-09-26T14:32:23Z</time>
      </trkpt>
      <trkpt lat="46.10011" lon="5.89712">
        <ele>451.2</ele>
        <time>2022-09-26T14:32:24Z</time>
      </trkpt>
      <trkpt lat="46.10017" lon="5.89708">
        <ele>451</ele>
        <time>2022-09-26T14:32:25Z</time>
      </trkpt>
      <trkpt lat="46.10023" lon="5.89704">
        <ele>450.7</ele>
        <time>2022-09-26T14:32:26Z</time>
      </trkpt>
      <trkpt lat="46.10028" lon="5.897">
        <ele>450.5</ele>
        <time>2022-09-26T14:32:27Z</time>
      </trkpt>
      <trkpt lat="46.10034" lon="5.89695">
        <ele>450.2</ele>
        <time>2022-09-26T14:32:28Z</time>
      </trkpt>
      <trkpt lat="46.1004" lon="5.89691">
        <ele>449.9</ele>
        <time>2022-09-26T14:32:29Z</time>
      </trkpt>
      <trkpt lat="46.10046" lon="5.89688">
        <ele>449.7</ele>
        <time>2022-09-26T14:32:30Z</time>
      </trkpt>
      <trkpt lat="46.10052" lon="5.89685">
        <ele>449.4</ele>
        <time>2022-09-26T14:32:31Z</time>
      </trkpt>
      <trkpt lat="46.10059" lon="5.89682">
        <ele>449.1</ele>
        <time>2022-09-26T14:32:32Z</time>
      </trkpt>
      <trkpt lat="46.10066" lon="5.89679">
        <ele>448.8</ele>
        <time>2022-09-26T14:32:33Z</time>
      </trkpt>
      <trkpt lat="46.10073" lon="5.89676">
        <ele>448.5</ele>
        <time>2022-09-26T14:32:34Z</time>
      </trkpt>
      <trkpt lat="46.1008" lon="5.89672">
        <ele>448.2</ele>
        <time>2022-09-26T14:32:35Z</time>
      </trkpt>
      <trkpt lat="46.10087" lon="5.89668">
        <ele>447.9</ele>
        <time>2022-09-26T14:32:36Z</time>
      </trkpt>
      <trkpt lat="46.10094" lon="5.89663">
        <ele>447.6</ele>
        <time>2022-09-26T14:32:37Z</time>
      </trkpt>
      <trkpt lat="46.101" lon="5.89658">
        <ele>447.3</ele>
        <time>2022-09-26T14:32:38Z</time>
      </trkpt>
      <trkpt lat="46.10106" lon="5.89652">
        <ele>447</ele>
        <time>2022-09-26T14:32:39Z</time>
      </trkpt>
      <trkpt lat="46.10112" lon="5.89646">
        <ele>446.7</ele>
        <time>2022-09-26T14:32:40Z</time>
      </trkpt>
      <trkpt lat="46.10117" lon="5.8964">
        <ele>446.4</ele>
        <time>2022-09-26T14:32:41Z</time>
      </trkpt>
      <trkpt lat="46.10123" lon="5.89634">
        <ele>446.1</ele>
        <time>2022-09-26T14:32:42Z</time>
      </trkpt>
      <trkpt lat="46.10128" lon="5.89629">
        <ele>445.8</ele>
        <time>2022-09-26T14:32:43Z</time>
      </trkpt>
      <trkpt lat="46.10134" lon="5.89624">
        <ele>445.6</ele>
        <time>2022-09-26T14:32:44Z</time>
      </trkpt>
      <trkpt lat="46.1014" lon="5.89619">
        <ele>445.2</ele>
        <time>2022-09-26T14:32:45Z</time>
      </trkpt>
      <trkpt lat="46.10145" lon="5.89613">
        <ele>444.9</ele>
        <time>2022-09-26T14:32:46Z</time>
      </trkpt>
      <trkpt lat="46.10151" lon="5.89609">
        <ele>444.6</ele>
        <time>2022-09-26T14:32:47Z</time>
      </trkpt>
      <trkpt lat="46.10157" lon="5.89605">
        <ele>444.3</ele>
        <time>2022-09-26T14:32:48Z</time>
      </trkpt>
      <trkpt lat="46.10163" lon="5.89601">
        <ele>444</ele>
        <time>2022-09-26T14:32:49Z</time>
      </trkpt>
      <trkpt lat="46.1017" lon="5.89598">
        <ele>443.7</ele>
        <time>2022-09-26T14:32:50Z</time>
      </trkpt>
      <trkpt lat="46.10176" lon="5.89594">
        <ele>443.4</ele>
        <time>2022-09-26T14:32:51Z</time>
      </trkpt>
      <trkpt lat="46.10183" lon="5.89591">
        <ele>443</ele>
        <time>2022-09-26T14:32:52Z</time>
      </trkpt>
      <trkpt lat="46.10189" lon="5.89587">
        <ele>442.7</ele>
        <time>2022-09-26T14:32:53Z</time>
      </trkpt>
      <trkpt lat="46.10196" lon="5.89584">
        <ele>442.4</ele>
        <time>2022-09-26T14:32:54Z</time>
      </trkpt>
      <trkpt lat="46.10203" lon="5.89579">
        <ele>442</ele>
        <time>2022-09-26T14:32:55Z</time>
      </trkpt>
      <trkpt lat="46.1021" lon="5.89575">
        <ele>441.6</ele>
        <time>2022-09-26T14:32:56Z</time>
      </trkpt>
      <trkpt lat="46.10217" lon="5.8957">
        <ele>441.3</ele>
        <time>2022-09-26T14:32:57Z</time>
      </trkpt>
      <trkpt lat="46.10223" lon="5.89565">
        <ele>440.9</ele>
        <time>2022-09-26T14:32:58Z</time>
      </trkpt>
      <trkpt lat="46.1023" lon="5.8956">
        <ele>440.6</ele>
        <time>2022-09-26T14:32:59Z</time>
      </trkpt>
      <trkpt lat="46.10237" lon="5.89556">
        <ele>440.3</ele>
        <time>2022-09-26T14:33:00Z</time>
      </trkpt>
      <trkpt lat="46.10243" lon="5.8955">
        <ele>440</ele>
        <time>2022-09-26T14:33:01Z</time>
      </trkpt>
      <trkpt lat="46.10248" lon="5.89543">
        <ele>439.7</ele>
        <time>2022-09-26T14:33:02Z</time>
      </trkpt>
      <trkpt lat="46.10253" lon="5.89537">
        <ele>439.4</ele>
        <time>2022-09-26T14:33:03Z</time>
      </trkpt>
      <trkpt lat="46.10258" lon="5.8953">
        <ele>439.1</ele>
        <time>2022-09-26T14:33:04Z</time>
      </trkpt>
      <trkpt lat="46.10262" lon="5.89523">
        <ele>438.8</ele>
        <time>2022-09-26T14:33:05Z</time>
      </trkpt>
      <trkpt lat="46.10266" lon="5.89515">
        <ele>438.6</ele>
        <time>2022-09-26T14:33:06Z</time>
      </trkpt>
      <trkpt lat="46.1027" lon="5.89508">
        <ele>438.3</ele>
        <time>2022-09-26T14:33:07Z</time>
      </trkpt>
      <trkpt lat="46.10274" lon="5.89502">
        <ele>438</ele>
        <time>2022-09-26T14:33:08Z</time>
      </trkpt>
      <trkpt lat="46.10279" lon="5.89496">
        <ele>437.7</ele>
        <time>2022-09-26T14:33:09Z</time>
      </trkpt>
      <trkpt lat="46.10284" lon="5.8949">
        <ele>437.5</ele>
        <time>2022-09-26T14:33:10Z</time>
      </trkpt>
      <trkpt lat="46.10289" lon="5.89486">
        <ele>437.2</ele>
        <time>2022-09-26T14:33:11Z</time>
      </trkpt>
      <trkpt lat="46.10293" lon="5.89482">
        <ele>436.9</ele>
        <time>2022-09-26T14:33:12Z</time>
      </trkpt>
      <trkpt lat="46.10298" lon="5.89478">
        <ele>436.6</ele>
        <time>2022-09-26T14:33:13Z</time>
      </trkpt>
      <trkpt lat="46.10303" lon="5.89474">
        <ele>436.4</ele>
        <time>2022-09-26T14:33:14Z</time>
      </trkpt>
      <trkpt lat="46.10309" lon="5.89469">
        <ele>436.1</ele>
        <time>2022-09-26T14:33:15Z</time>
      </trkpt>
      <trkpt lat="46.10313" lon="5.89464">
        <ele>435.8</ele>
        <time>2022-09-26T14:33:16Z</time>
      </trkpt>
      <trkpt lat="46.10318" lon="5.8946">
        <ele>435.5</ele>
        <time>2022-09-26T14:33:17Z</time>
      </trkpt>
      <trkpt lat="46.10324" lon="5.89456">
        <ele>435.2</ele>
        <time>2022-09-26T14:33:18Z</time>
      </trkpt>
      <trkpt lat="46.10329" lon="5.89451">
        <ele>434.9</ele>
        <time>2022-09-26T14:33:19Z</time>
      </trkpt>
      <trkpt lat="46.10334" lon="5.89446">
        <ele>434.7</ele>
        <time>2022-09-26T14:33:20Z</time>
      </trkpt>
      <trkpt lat="46.10339" lon="5.89442">
        <ele>434.3</ele>
        <time>2022-09-26T14:33:21Z</time>
      </trkpt>
      <trkpt lat="46.10344" lon="5.89438">
        <ele>434.1</ele>
        <time>2022-09-26T14:33:22Z</time>
      </trkpt>
      <trkpt lat="46.10349" lon="5.89433">
        <ele>433.7</ele>
        <time>2022-09-26T14:33:23Z</time>
      </trkpt>
      <trkpt lat="46.10355" lon="5.89428">
        <ele>433.4</ele>
        <time>2022-09-26T14:33:24Z</time>
      </trkpt>
      <trkpt lat="46.10361" lon="5.89421">
        <ele>433.1</ele>
        <time>2022-09-26T14:33:25Z</time>
      </trkpt>
      <trkpt lat="46.10366" lon="5.89415">
        <ele>432.7</ele>
        <time>2022-09-26T14:33:26Z</time>
      </trkpt>
      <trkpt lat="46.10371" lon="5.89409">
        <ele>432.4</ele>
        <time>2022-09-26T14:33:27Z</time>
      </trkpt>
      <trkpt lat="46.10376" lon="5.89401">
        <ele>432.1</ele>
        <time>2022-09-26T14:33:28Z</time>
      </trkpt>
      <trkpt lat="46.1038" lon="5.89393">
        <ele>431.8</ele>
        <time>2022-09-26T14:33:29Z</time>
      </trkpt>
      <trkpt lat="46.10385" lon="5.89387">
        <ele>431.5</ele>
        <time>2022-09-26T14:33:30Z</time>
      </trkpt>
      <trkpt lat="46.10389" lon="5.8938">
        <ele>431.3</ele>
        <time>2022-09-26T14:33:31Z</time>
      </trkpt>
      <trkpt lat="46.10394" lon="5.89372">
        <ele>431</ele>
        <time>2022-09-26T14:33:32Z</time>
      </trkpt>
      <trkpt lat="46.10398" lon="5.89366">
        <ele>430.7</ele>
        <time>2022-09-26T14:33:33Z</time>
      </trkpt>
      <trkpt lat="46.10403" lon="5.8936">
        <ele>430.4</ele>
        <time>2022-09-26T14:33:34Z</time>
      </trkpt>
      <trkpt lat="46.10407" lon="5.89356">
        <ele>430.2</ele>
        <time>2022-09-26T14:33:35Z</time>
      </trkpt>
      <trkpt lat="46.10413" lon="5.8935">
        <ele>429.9</ele>
        <time>2022-09-26T14:33:36Z</time>
      </trkpt>
      <trkpt lat="46.10418" lon="5.89345">
        <ele>429.6</ele>
        <time>2022-09-26T14:33:37Z</time>
      </trkpt>
      <trkpt lat="46.10425" lon="5.89339">
        <ele>429.3</ele>
        <time>2022-09-26T14:33:38Z</time>
      </trkpt>
      <trkpt lat="46.1043" lon="5.89333">
        <ele>428.9</ele>
        <time>2022-09-26T14:33:39Z</time>
      </trkpt>
      <trkpt lat="46.10436" lon="5.89327">
        <ele>428.6</ele>
        <time>2022-09-26T14:33:40Z</time>
      </trkpt>
      <trkpt lat="46.10441" lon="5.89321">
        <ele>428.3</ele>
        <time>2022-09-26T14:33:41Z</time>
      </trkpt>
      <trkpt lat="46.10447" lon="5.89316">
        <ele>428</ele>
        <time>2022-09-26T14:33:42Z</time>
      </trkpt>
      <trkpt lat="46.10453" lon="5.8931">
        <ele>427.7</ele>
        <time>2022-09-26T14:33:43Z</time>
      </trkpt>
      <trkpt lat="46.10459" lon="5.89305">
        <ele>427.3</ele>
        <time>2022-09-26T14:33:44Z</time>
      </trkpt>
      <trkpt lat="46.10464" lon="5.893">
        <ele>427</ele>
        <time>2022-09-26T14:33:45Z</time>
      </trkpt>
      <trkpt lat="46.10471" lon="5.89295">
        <ele>426.7</ele>
        <time>2022-09-26T14:33:46Z</time>
      </trkpt>
      <trkpt lat="46.10475" lon="5.89287">
        <ele>426.3</ele>
        <time>2022-09-26T14:33:47Z</time>
      </trkpt>
      <trkpt lat="46.10481" lon="5.89282">
        <ele>425.9</ele>
        <time>2022-09-26T14:33:48Z</time>
      </trkpt>
      <trkpt lat="46.10486" lon="5.89276">
        <ele>425.6</ele>
        <time>2022-09-26T14:33:49Z</time>
      </trkpt>
      <trkpt lat="46.10492" lon="5.89269">
        <ele>425.2</ele>
        <time>2022-09-26T14:33:50Z</time>
      </trkpt>
      <trkpt lat="46.10498" lon="5.89262">
        <ele>424.8</ele>
        <time>2022-09-26T14:33:51Z</time>
      </trkpt>
      <trkpt lat="46.10505" lon="5.89255">
        <ele>424.4</ele>
        <time>2022-09-26T14:33:52Z</time>
      </trkpt>
      <trkpt lat="46.1051" lon="5.89248">
        <ele>424</ele>
        <time>2022-09-26T14:33:53Z</time>
      </trkpt>
      <trkpt lat="46.10516" lon="5.89242">
        <ele>423.6</ele>
        <time>2022-09-26T14:33:54Z</time>
      </trkpt>
      <trkpt lat="46.10522" lon="5.89235">
        <ele>423.2</ele>
        <time>2022-09-26T14:33:55Z</time>
      </trkpt>
      <trkpt lat="46.10526" lon="5.8923">
        <ele>422.9</ele>
        <time>2022-09-26T14:33:56Z</time>
      </trkpt>
      <trkpt lat="46.10531" lon="5.89224">
        <ele>422.6</ele>
        <time>2022-09-26T14:33:57Z</time>
      </trkpt>
      <trkpt lat="46.10537" lon="5.89218">
        <ele>422.2</ele>
        <time>2022-09-26T14:33:58Z</time>
      </trkpt>
      <trkpt lat="46.10542" lon="5.89211">
        <ele>421.8</ele>
        <time>2022-09-26T14:33:59Z</time>
      </trkpt>
      <trkpt lat="46.10548" lon="5.89205">
        <ele>421.5</ele>
        <time>2022-09-26T14:34:00Z</time>
      </trkpt>
      <trkpt lat="46.10554" lon="5.89199">
        <ele>421.2</ele>
        <time>2022-09-26T14:34:01Z</time>
      </trkpt>
      <trkpt lat="46.10559" lon="5.89192">
        <ele>421</ele>
        <time>2022-09-26T14:34:02Z</time>
      </trkpt>
      <trkpt lat="46.10565" lon="5.89185">
        <ele>420.8</ele>
        <time>2022-09-26T14:34:03Z</time>
      </trkpt>
      <trkpt lat="46.10571" lon="5.89178">
        <ele>420.6</ele>
        <time>2022-09-26T14:34:04Z</time>
      </trkpt>
      <trkpt lat="46.10577" lon="5.89171">
        <ele>420.4</ele>
        <time>2022-09-26T14:34:05Z</time>
      </trkpt>
      <trkpt lat="46.10582" lon="5.89164">
        <ele>420.2</ele>
        <time>2022-09-26T14:34:06Z</time>
      </trkpt>
      <trkpt lat="46.10588" lon="5.89157">
        <ele>420</ele>
        <time>2022-09-26T14:34:07Z</time>
      </trkpt>
      <trkpt lat="46.10594" lon="5.89151">
        <ele>419.8</ele>
        <time>2022-09-26T14:34:08Z</time>
      </trkpt>
      <trkpt lat="46.10599" lon="5.89144">
        <ele>419.6</ele>
        <time>2022-09-26T14:34:09Z</time>
      </trkpt>
      <trkpt lat="46.10605" lon="5.89138">
        <ele>419.4</ele>
        <time>2022-09-26T14:34:10Z</time>
      </trkpt>
      <trkpt lat="46.1061" lon="5.89132">
        <ele>419.2</ele>
        <time>2022-09-26T14:34:11Z</time>
      </trkpt>
      <trkpt lat="46.10616" lon="5.89126">
        <ele>419.1</ele>
        <time>2022-09-26T14:34:12Z</time>
      </trkpt>
      <trkpt lat="46.10621" lon="5.8912">
        <ele>419</ele>
        <time>2022-09-26T14:34:13Z</time>
      </trkpt>
      <trkpt lat="46.10626" lon="5.89115">
        <ele>418.9</ele>
        <time>2022-09-26T14:34:14Z</time>
      </trkpt>
      <trkpt lat="46.10631" lon="5.89109">
        <ele>418.8</ele>
        <time>2022-09-26T14:34:15Z</time>
      </trkpt>
      <trkpt lat="46.10636" lon="5.89105">
        <ele>418.8</ele>
        <time>2022-09-26T14:34:16Z</time>
      </trkpt>
      <trkpt lat="46.10641" lon="5.891">
        <ele>418.8</ele>
        <time>2022-09-26T14:34:17Z</time>
      </trkpt>
      <trkpt lat="46.10646" lon="5.89096">
        <ele>418.8</ele>
        <time>2022-09-26T14:34:18Z</time>
      </trkpt>
      <trkpt lat="46.10652" lon="5.89091">
        <ele>418.8</ele>
        <time>2022-09-26T14:34:19Z</time>
      </trkpt>
      <trkpt lat="46.10657" lon="5.89085">
        <ele>418.9</ele>
        <time>2022-09-26T14:34:20Z</time>
      </trkpt>
      <trkpt lat="46.10662" lon="5.89079">
        <ele>418.9</ele>
        <time>2022-09-26T14:34:21Z</time>
      </trkpt>
      <trkpt lat="46.10667" lon="5.89074">
        <ele>419</ele>
        <time>2022-09-26T14:34:22Z</time>
      </trkpt>
      <trkpt lat="46.10671" lon="5.8907">
        <ele>419</ele>
        <time>2022-09-26T14:34:23Z</time>
      </trkpt>
      <trkpt lat="46.10676" lon="5.89067">
        <ele>419.1</ele>
        <time>2022-09-26T14:34:24Z</time>
      </trkpt>
      <trkpt lat="46.1068" lon="5.89062">
        <ele>419.2</ele>
        <time>2022-09-26T14:34:25Z</time>
      </trkpt>
      <trkpt lat="46.10684" lon="5.89059">
        <ele>419.3</ele>
        <time>2022-09-26T14:34:26Z</time>
      </trkpt>
      <trkpt lat="46.10688" lon="5.89055">
        <ele>419.4</ele>
        <time>2022-09-26T14:34:27Z</time>
      </trkpt>
      <trkpt lat="46.10692" lon="5.89052">
        <ele>419.5</ele>
        <time>2022-09-26T14:34:28Z</time>
      </trkpt>
      <trkpt lat="46.10697" lon="5.89049">
        <ele>419.6</ele>
        <time>2022-09-26T14:34:29Z</time>
      </trkpt>
      <trkpt lat="46.10701" lon="5.89046">
        <ele>419.7</ele>
        <time>2022-09-26T14:34:30Z</time>
      </trkpt>
      <trkpt lat="46.10705" lon="5.89044">
        <ele>419.8</ele>
        <time>2022-09-26T14:34:31Z</time>
      </trkpt>
      <trkpt lat="46.10708" lon="5.89042">
        <ele>419.9</ele>
        <time>2022-09-26T14:34:32Z</time>
      </trkpt>
      <trkpt lat="46.10712" lon="5.8904">
        <ele>420</ele>
        <time>2022-09-26T14:34:33Z</time>
      </trkpt>
      <trkpt lat="46.10716" lon="5.89039">
        <ele>420.1</ele>
        <time>2022-09-26T14:34:34Z</time>
      </trkpt>
      <trkpt lat="46.1072" lon="5.89037">
        <ele>420.2</ele>
        <time>2022-09-26T14:34:35Z</time>
      </trkpt>
      <trkpt lat="46.10724" lon="5.89036">
        <ele>420.2</ele>
        <time>2022-09-26T14:34:36Z</time>
      </trkpt>
      <trkpt lat="46.10728" lon="5.89034">
        <ele>420.3</ele>
        <time>2022-09-26T14:34:37Z</time>
      </trkpt>
      <trkpt lat="46.10731" lon="5.89034">
        <ele>420.4</ele>
        <time>2022-09-26T14:34:38Z</time>
      </trkpt>
      <trkpt lat="46.10735" lon="5.89033">
        <ele>420.5</ele>
        <time>2022-09-26T14:34:39Z</time>
      </trkpt>
      <trkpt lat="46.10738" lon="5.89034">
        <ele>420.6</ele>
        <time>2022-09-26T14:34:40Z</time>
      </trkpt>
      <trkpt lat="46.10741" lon="5.89034">
        <ele>420.6</ele>
        <time>2022-09-26T14:34:41Z</time>
      </trkpt>
      <trkpt lat="46.10744" lon="5.89035">
        <ele>420.7</ele>
        <time>2022-09-26T14:34:42Z</time>
      </trkpt>
      <trkpt lat="46.10748" lon="5.89035">
        <ele>420.8</ele>
        <time>2022-09-26T14:34:43Z</time>
      </trkpt>
      <trkpt lat="46.1075" lon="5.89035">
        <ele>420.9</ele>
        <time>2022-09-26T14:34:44Z</time>
      </trkpt>
      <trkpt lat="46.10754" lon="5.89036">
        <ele>420.9</ele>
        <time>2022-09-26T14:34:45Z</time>
      </trkpt>
      <trkpt lat="46.10756" lon="5.89033">
        <ele>421</ele>
        <time>2022-09-26T14:34:46Z</time>
      </trkpt>
      <trkpt lat="46.10759" lon="5.89034">
        <ele>421.1</ele>
        <time>2022-09-26T14:34:47Z</time>
      </trkpt>
      <trkpt lat="46.10763" lon="5.89035">
        <ele>421.2</ele>
        <time>2022-09-26T14:34:48Z</time>
      </trkpt>
      <trkpt lat="46.10764" lon="5.89035">
        <ele>421.2</ele>
        <time>2022-09-26T14:34:49Z</time>
      </trkpt>
      <trkpt lat="46.10768" lon="5.89036">
        <ele>421.3</ele>
        <time>2022-09-26T14:34:50Z</time>
      </trkpt>
      <trkpt lat="46.10771" lon="5.89037">
        <ele>421.4</ele>
        <time>2022-09-26T14:34:51Z</time>
      </trkpt>
      <trkpt lat="46.10774" lon="5.89037">
        <ele>421.4</ele>
        <time>2022-09-26T14:34:52Z</time>
      </trkpt>
      <trkpt lat="46.10777" lon="5.89038">
        <ele>421.5</ele>
        <time>2022-09-26T14:34:53Z</time>
      </trkpt>
      <trkpt lat="46.10781" lon="5.89038">
        <ele>421.6</ele>
        <time>2022-09-26T14:34:54Z</time>
      </trkpt>
      <trkpt lat="46.10785" lon="5.89039">
        <ele>421.7</ele>
        <time>2022-09-26T14:34:55Z</time>
      </trkpt>
      <trkpt lat="46.10788" lon="5.8904">
        <ele>421.8</ele>
        <time>2022-09-26T14:34:56Z</time>
      </trkpt>
      <trkpt lat="46.10791" lon="5.89041">
        <ele>421.9</ele>
        <time>2022-09-26T14:34:57Z</time>
      </trkpt>
      <trkpt lat="46.10795" lon="5.89042">
        <ele>422</ele>
        <time>2022-09-26T14:34:58Z</time>
      </trkpt>
      <trkpt lat="46.10798" lon="5.89043">
        <ele>422.1</ele>
        <time>2022-09-26T14:34:59Z</time>
      </trkpt>
      <trkpt lat="46.10801" lon="5.89043">
        <ele>422.2</ele>
        <time>2022-09-26T14:35:00Z</time>
      </trkpt>
      <trkpt lat="46.10805" lon="5.89044">
        <ele>422.3</ele>
        <time>2022-09-26T14:35:01Z</time>
      </trkpt>
      <trkpt lat="46.10808" lon="5.89045">
        <ele>422.4</ele>
        <time>2022-09-26T14:35:02Z</time>
      </trkpt>
      <trkpt lat="46.10812" lon="5.89046">
        <ele>422.5</ele>
        <time>2022-09-26T14:35:03Z</time>
      </trkpt>
      <trkpt lat="46.10816" lon="5.89047">
        <ele>422.6</ele>
        <time>2022-09-26T14:35:04Z</time>
      </trkpt>
      <trkpt lat="46.1082" lon="5.89047">
        <ele>422.7</ele>
        <time>2022-09-26T14:35:05Z</time>
      </trkpt>
      <trkpt lat="46.10823" lon="5.89048">
        <ele>422.9</ele>
        <time>2022-09-26T14:35:06Z</time>
      </trkpt>
      <trkpt lat="46.10826" lon="5.89049">
        <ele>423</ele>
        <time>2022-09-26T14:35:07Z</time>
      </trkpt>
      <trkpt lat="46.10831" lon="5.8905">
        <ele>423.1</ele>
        <time>2022-09-26T14:35:08Z</time>
      </trkpt>
      <trkpt lat="46.10833" lon="5.89051">
        <ele>423.2</ele>
        <time>2022-09-26T14:35:09Z</time>
      </trkpt>
      <trkpt lat="46.10836" lon="5.89052">
        <ele>423.3</ele>
        <time>2022-09-26T14:35:10Z</time>
      </trkpt>
      <trkpt lat="46.1084" lon="5.89053">
        <ele>423.4</ele>
        <time>2022-09-26T14:35:11Z</time>
      </trkpt>
      <trkpt lat="46.10843" lon="5.89053">
        <ele>423.5</ele>
        <time>2022-09-26T14:35:12Z</time>
      </trkpt>
      <trkpt lat="46.10846" lon="5.89055">
        <ele>423.6</ele>
        <time>2022-09-26T14:35:13Z</time>
      </trkpt>
      <trkpt lat="46.1085" lon="5.89056">
        <ele>423.8</ele>
        <time>2022-09-26T14:35:14Z</time>
      </trkpt>
      <trkpt lat="46.10853" lon="5.89057">
        <ele>423.9</ele>
        <time>2022-09-26T14:35:15Z</time>
      </trkpt>
      <trkpt lat="46.10856" lon="5.89058">
        <ele>424</ele>
        <time>2022-09-26T14:35:16Z</time>
      </trkpt>
      <trkpt lat="46.10858" lon="5.8906">
        <ele>424.1</ele>
        <time>2022-09-26T14:35:17Z</time>
      </trkpt>
      <trkpt lat="46.10861" lon="5.89061">
        <ele>424.2</ele>
        <time>2022-09-26T14:35:18Z</time>
      </trkpt>
      <trkpt lat="46.10864" lon="5.89062">
        <ele>424.3</ele>
        <time>2022-09-26T14:35:19Z</time>
      </trkpt>
      <trkpt lat="46.10867" lon="5.89065">
        <ele>424.5</ele>
        <time>2022-09-26T14:35:20Z</time>
      </trkpt>
      <trkpt lat="46.10869" lon="5.89066">
        <ele>424.5</ele>
        <time>2022-09-26T14:35:21Z</time>
      </trkpt>
      <trkpt lat="46.10872" lon="5.89068">
        <ele>424.7</ele>
        <time>2022-09-26T14:35:22Z</time>
      </trkpt>
      <trkpt lat="46.10875" lon="5.89069">
        <ele>424.8</ele>
        <time>2022-09-26T14:35:23Z</time>
      </trkpt>
      <trkpt lat="46.10877" lon="5.89071">
        <ele>424.9</ele>
        <time>2022-09-26T14:35:24Z</time>
      </trkpt>
      <trkpt lat="46.10881" lon="5.89072">
        <ele>425</ele>
        <time>2022-09-26T14:35:25Z</time>
      </trkpt>
      <trkpt lat="46.10882" lon="5.89073">
        <ele>425.1</ele>
        <time>2022-09-26T14:35:26Z</time>
      </trkpt>
      <trkpt lat="46.10885" lon="5.89075">
        <ele>425.2</ele>
        <time>2022-09-26T14:35:27Z</time>
      </trkpt>
      <trkpt lat="46.10886" lon="5.89075">
        <ele>425.3</ele>
        <time>2022-09-26T14:35:28Z</time>
      </trkpt>
      <trkpt lat="46.1089" lon="5.89077">
        <ele>425.4</ele>
        <time>2022-09-26T14:35:29Z</time>
      </trkpt>
      <trkpt lat="46.10891" lon="5.89078">
        <ele>425.5</ele>
        <time>2022-09-26T14:35:30Z</time>
      </trkpt>
      <trkpt lat="46.10893" lon="5.8908">
        <ele>425.6</ele>
        <time>2022-09-26T14:35:31Z</time>
      </trkpt>
      <trkpt lat="46.10897" lon="5.89082">
        <ele>425.8</ele>
        <time>2022-09-26T14:35:32Z</time>
      </trkpt>
      <trkpt lat="46.10898" lon="5.89082">
        <ele>425.8</ele>
        <time>2022-09-26T14:35:33Z</time>
      </trkpt>
      <trkpt lat="46.10902" lon="5.89084">
        <ele>426</ele>
        <time>2022-09-26T14:35:34Z</time>
      </trkpt>
      <trkpt lat="46.10903" lon="5.89085">
        <ele>426.1</ele>
        <time>2022-09-26T14:35:35Z</time>
      </trkpt>
      <trkpt lat="46.10907" lon="5.89087">
        <ele>426.3</ele>
        <time>2022-09-26T14:35:36Z</time>
      </trkpt>
      <trkpt lat="46.10908" lon="5.89087">
        <ele>426.3</ele>
        <time>2022-09-26T14:35:37Z</time>
      </trkpt>
      <trkpt lat="46.10911" lon="5.89088">
        <ele>426.5</ele>
        <time>2022-09-26T14:35:38Z</time>
      </trkpt>
      <trkpt lat="46.10913" lon="5.89089">
        <ele>426.6</ele>
        <time>2022-09-26T14:35:39Z</time>
      </trkpt>
      <trkpt lat="46.10917" lon="5.89091">
        <ele>426.8</ele>
        <time>2022-09-26T14:35:40Z</time>
      </trkpt>
      <trkpt lat="46.10918" lon="5.89091">
        <ele>426.8</ele>
        <time>2022-09-26T14:35:41Z</time>
      </trkpt>
      <trkpt lat="46.10921" lon="5.89092">
        <ele>427</ele>
        <time>2022-09-26T14:35:42Z</time>
      </trkpt>
      <trkpt lat="46.10924" lon="5.89094">
        <ele>427.1</ele>
        <time>2022-09-26T14:35:43Z</time>
      </trkpt>
      <trkpt lat="46.10927" lon="5.89094">
        <ele>427.3</ele>
        <time>2022-09-26T14:35:44Z</time>
      </trkpt>
      <trkpt lat="46.1093" lon="5.89095">
        <ele>427.4</ele>
        <time>2022-09-26T14:35:45Z</time>
      </trkpt>
      <trkpt lat="46.10933" lon="5.89096">
        <ele>427.6</ele>
        <time>2022-09-26T14:35:46Z</time>
      </trkpt>
      <trkpt lat="46.10936" lon="5.89096">
        <ele>427.7</ele>
        <time>2022-09-26T14:35:47Z</time>
      </trkpt>
      <trkpt lat="46.10939" lon="5.89097">
        <ele>427.8</ele>
        <time>2022-09-26T14:35:48Z</time>
      </trkpt>
      <trkpt lat="46.10942" lon="5.89098">
        <ele>428</ele>
        <time>2022-09-26T14:35:49Z</time>
      </trkpt>
      <trkpt lat="46.10943" lon="5.89098">
        <ele>428</ele>
        <time>2022-09-26T14:35:50Z</time>
      </trkpt>
      <trkpt lat="46.10947" lon="5.89099">
        <ele>428.2</ele>
        <time>2022-09-26T14:35:51Z</time>
      </trkpt>
      <trkpt lat="46.10948" lon="5.891">
        <ele>428.2</ele>
        <time>2022-09-26T14:35:52Z</time>
      </trkpt>
      <trkpt lat="46.10952" lon="5.89101">
        <ele>428.4</ele>
        <time>2022-09-26T14:35:53Z</time>
      </trkpt>
      <trkpt lat="46.10953" lon="5.89102">
        <ele>428.5</ele>
        <time>2022-09-26T14:35:54Z</time>
      </trkpt>
      <trkpt lat="46.10957" lon="5.89103">
        <ele>428.6</ele>
        <time>2022-09-26T14:35:55Z</time>
      </trkpt>
      <trkpt lat="46.10958" lon="5.89104">
        <ele>428.7</ele>
        <time>2022-09-26T14:35:56Z</time>
      </trkpt>
      <trkpt lat="46.10962" lon="5.89106">
        <ele>428.8</ele>
        <time>2022-09-26T14:35:57Z</time>
      </trkpt>
      <trkpt lat="46.10963" lon="5.89106">
        <ele>428.9</ele>
        <time>2022-09-26T14:35:58Z</time>
      </trkpt>
      <trkpt lat="46.10966" lon="5.89107">
        <ele>429</ele>
        <time>2022-09-26T14:35:59Z</time>
      </trkpt>
      <trkpt lat="46.10967" lon="5.89108">
        <ele>429.1</ele>
        <time>2022-09-26T14:36:00Z</time>
      </trkpt>
      <trkpt lat="46.1097" lon="5.8911">
        <ele>429.2</ele>
        <time>2022-09-26T14:36:01Z</time>
      </trkpt>
      <trkpt lat="46.10971" lon="5.8911">
        <ele>429.3</ele>
        <time>2022-09-26T14:36:02Z</time>
      </trkpt>
      <trkpt lat="46.10975" lon="5.89111">
        <ele>429.4</ele>
        <time>2022-09-26T14:36:03Z</time>
      </trkpt>
      <trkpt lat="46.10976" lon="5.89112">
        <ele>429.5</ele>
        <time>2022-09-26T14:36:04Z</time>
      </trkpt>
      <trkpt lat="46.10979" lon="5.89113">
        <ele>429.6</ele>
        <time>2022-09-26T14:36:05Z</time>
      </trkpt>
      <trkpt lat="46.10979" lon="5.89113">
        <ele>429.6</ele>
        <time>2022-09-26T14:36:06Z</time>
      </trkpt>
      <trkpt lat="46.10982" lon="5.89114">
        <ele>429.7</ele>
        <time>2022-09-26T14:36:07Z</time>
      </trkpt>
      <trkpt lat="46.10983" lon="5.89114">
        <ele>429.8</ele>
        <time>2022-09-26T14:36:08Z</time>
      </trkpt>
      <trkpt lat="46.10986" lon="5.89115">
        <ele>429.9</ele>
        <time>2022-09-26T14:36:09Z</time>
      </trkpt>
      <trkpt lat="46.10988" lon="5.89116">
        <ele>430</ele>
        <time>2022-09-26T14:36:10Z</time>
      </trkpt>
      <trkpt lat="46.10989" lon="5.89116">
        <ele>430.1</ele>
        <time>2022-09-26T14:36:11Z</time>
      </trkpt>
      <trkpt lat="46.10991" lon="5.89117">
        <ele>430.1</ele>
        <time>2022-09-26T14:36:12Z</time>
      </trkpt>
      <trkpt lat="46.10994" lon="5.89118">
        <ele>430.3</ele>
        <time>2022-09-26T14:36:13Z</time>
      </trkpt>
      <trkpt lat="46.10997" lon="5.8912">
        <ele>430.4</ele>
        <time>2022-09-26T14:36:14Z</time>
      </trkpt>
      <trkpt lat="46.10998" lon="5.8912">
        <ele>430.4</ele>
        <time>2022-09-26T14:36:15Z</time>
      </trkpt>
      <trkpt lat="46.11" lon="5.89121">
        <ele>430.5</ele>
        <time>2022-09-26T14:36:16Z</time>
      </trkpt>
      <trkpt lat="46.11001" lon="5.89122">
        <ele>430.6</ele>
        <time>2022-09-26T14:36:17Z</time>
      </trkpt>
      <trkpt lat="46.11005" lon="5.89124">
        <ele>430.7</ele>
        <time>2022-09-26T14:36:18Z</time>
      </trkpt>
      <trkpt lat="46.11007" lon="5.89125">
        <ele>430.8</ele>
        <time>2022-09-26T14:36:19Z</time>
      </trkpt>
      <trkpt lat="46.1101" lon="5.89125">
        <ele>430.9</ele>
        <time>2022-09-26T14:36:20Z</time>
      </trkpt>
      <trkpt lat="46.11012" lon="5.89126">
        <ele>431</ele>
        <time>2022-09-26T14:36:21Z</time>
      </trkpt>
      <trkpt lat="46.11014" lon="5.89126">
        <ele>431.1</ele>
        <time>2022-09-26T14:36:22Z</time>
      </trkpt>
      <trkpt lat="46.11017" lon="5.89128">
        <ele>431.2</ele>
        <time>2022-09-26T14:36:23Z</time>
      </trkpt>
      <trkpt lat="46.11021" lon="5.89129">
        <ele>431.3</ele>
        <time>2022-09-26T14:36:24Z</time>
      </trkpt>
      <trkpt lat="46.11022" lon="5.89129">
        <ele>431.3</ele>
        <time>2022-09-26T14:36:25Z</time>
      </trkpt>
      <trkpt lat="46.11025" lon="5.8913">
        <ele>431.4</ele>
        <time>2022-09-26T14:36:26Z</time>
      </trkpt>
      <trkpt lat="46.11028" lon="5.89131">
        <ele>431.6</ele>
        <time>2022-09-26T14:36:27Z</time>
      </trkpt>
      <trkpt lat="46.11029" lon="5.89132">
        <ele>431.6</ele>
        <time>2022-09-26T14:36:28Z</time>
      </trkpt>
      <trkpt lat="46.11033" lon="5.89133">
        <ele>431.7</ele>
        <time>2022-09-26T14:36:29Z</time>
      </trkpt>
      <trkpt lat="46.11034" lon="5.89134">
        <ele>431.8</ele>
        <time>2022-09-26T14:36:30Z</time>
      </trkpt>
      <trkpt lat="46.11037" lon="5.89135">
        <ele>431.9</ele>
        <time>2022-09-26T14:36:31Z</time>
      </trkpt>
      <trkpt lat="46.11038" lon="5.89135">
        <ele>432</ele>
        <time>2022-09-26T14:36:32Z</time>
      </trkpt>
      <trkpt lat="46.11041" lon="5.89136">
        <ele>432.1</ele>
        <time>2022-09-26T14:36:33Z</time>
      </trkpt>
      <trkpt lat="46.11042" lon="5.89137">
        <ele>432.1</ele>
        <time>2022-09-26T14:36:34Z</time>
      </trkpt>
      <trkpt lat="46.11044" lon="5.89138">
        <ele>432.2</ele>
        <time>2022-09-26T14:36:35Z</time>
      </trkpt>
      <trkpt lat="46.11045" lon="5.89139">
        <ele>432.2</ele>
        <time>2022-09-26T14:36:36Z</time>
      </trkpt>
      <trkpt lat="46.11048" lon="5.8914">
        <ele>432.4</ele>
        <time>2022-09-26T14:36:37Z</time>
      </trkpt>
      <trkpt lat="46.11049" lon="5.8914">
        <ele>432.4</ele>
        <time>2022-09-26T14:36:38Z</time>
      </trkpt>
      <trkpt lat="46.11052" lon="5.89142">
        <ele>432.5</ele>
        <time>2022-09-26T14:36:39Z</time>
      </trkpt>
      <trkpt lat="46.11053" lon="5.89143">
        <ele>432.6</ele>
        <time>2022-09-26T14:36:40Z</time>
      </trkpt>
      <trkpt lat="46.11054" lon="5.89144">
        <ele>432.6</ele>
        <time>2022-09-26T14:36:41Z</time>
      </trkpt>
      <trkpt lat="46.11056" lon="5.89145">
        <ele>432.7</ele>
        <time>2022-09-26T14:36:42Z</time>
      </trkpt>
      <trkpt lat="46.11059" lon="5.89146">
        <ele>432.9</ele>
        <time>2022-09-26T14:36:43Z</time>
      </trkpt>
      <trkpt lat="46.1106" lon="5.89146">
        <ele>432.9</ele>
        <time>2022-09-26T14:36:44Z</time>
      </trkpt>
      <trkpt lat="46.11063" lon="5.89148">
        <ele>433</ele>
        <time>2022-09-26T14:36:45Z</time>
      </trkpt>
      <trkpt lat="46.11064" lon="5.89149">
        <ele>433.1</ele>
        <time>2022-09-26T14:36:46Z</time>
      </trkpt>
      <trkpt lat="46.11066" lon="5.8915">
        <ele>433.2</ele>
        <time>2022-09-26T14:36:47Z</time>
      </trkpt>
      <trkpt lat="46.11068" lon="5.89151">
        <ele>433.2</ele>
        <time>2022-09-26T14:36:48Z</time>
      </trkpt>
      <trkpt lat="46.11071" lon="5.89152">
        <ele>433.4</ele>
        <time>2022-09-26T14:36:49Z</time>
      </trkpt>
      <trkpt lat="46.11072" lon="5.89152">
        <ele>433.4</ele>
        <time>2022-09-26T14:36:50Z</time>
      </trkpt>
      <trkpt lat="46.11074" lon="5.89153">
        <ele>433.5</ele>
        <time>2022-09-26T14:36:51Z</time>
      </trkpt>
      <trkpt lat="46.11077" lon="5.89156">
        <ele>433.7</ele>
        <time>2022-09-26T14:36:52Z</time>
      </trkpt>
      <trkpt lat="46.11079" lon="5.89156">
        <ele>433.7</ele>
        <time>2022-09-26T14:36:53Z</time>
      </trkpt>
      <trkpt lat="46.11082" lon="5.89157">
        <ele>433.9</ele>
        <time>2022-09-26T14:36:54Z</time>
      </trkpt>
      <trkpt lat="46.11083" lon="5.89157">
        <ele>433.9</ele>
        <time>2022-09-26T14:36:55Z</time>
      </trkpt>
      <trkpt lat="46.11086" lon="5.89158">
        <ele>434</ele>
        <time>2022-09-26T14:36:56Z</time>
      </trkpt>
      <trkpt lat="46.11087" lon="5.89159">
        <ele>434.1</ele>
        <time>2022-09-26T14:36:57Z</time>
      </trkpt>
      <trkpt lat="46.1109" lon="5.8916">
        <ele>434.2</ele>
        <time>2022-09-26T14:36:58Z</time>
      </trkpt>
      <trkpt lat="46.11092" lon="5.8916">
        <ele>434.3</ele>
        <time>2022-09-26T14:36:59Z</time>
      </trkpt>
      <trkpt lat="46.11095" lon="5.8916">
        <ele>434.4</ele>
        <time>2022-09-26T14:37:00Z</time>
      </trkpt>
      <trkpt lat="46.11096" lon="5.89161">
        <ele>434.4</ele>
        <time>2022-09-26T14:37:01Z</time>
      </trkpt>
      <trkpt lat="46.11099" lon="5.89161">
        <ele>434.6</ele>
        <time>2022-09-26T14:37:02Z</time>
      </trkpt>
      <trkpt lat="46.111" lon="5.89161">
        <ele>434.6</ele>
        <time>2022-09-26T14:37:03Z</time>
      </trkpt>
      <trkpt lat="46.11104" lon="5.89162">
        <ele>434.7</ele>
        <time>2022-09-26T14:37:04Z</time>
      </trkpt>
      <trkpt lat="46.11105" lon="5.89162">
        <ele>434.8</ele>
        <time>2022-09-26T14:37:05Z</time>
      </trkpt>
      <trkpt lat="46.11108" lon="5.89162">
        <ele>434.9</ele>
        <time>2022-09-26T14:37:06Z</time>
      </trkpt>
      <trkpt lat="46.11109" lon="5.89163">
        <ele>435</ele>
        <time>2022-09-26T14:37:07Z</time>
      </trkpt>
      <trkpt lat="46.11111" lon="5.89163">
        <ele>435</ele>
        <time>2022-09-26T14:37:08Z</time>
      </trkpt>
      <trkpt lat="46.11113" lon="5.89163">
        <ele>435.1</ele>
        <time>2022-09-26T14:37:09Z</time>
      </trkpt>
      <trkpt lat="46.11116" lon="5.89164">
        <ele>435.3</ele>
        <time>2022-09-26T14:37:10Z</time>
      </trkpt>
      <trkpt lat="46.11117" lon="5.89164">
        <ele>435.3</ele>
        <time>2022-09-26T14:37:11Z</time>
      </trkpt>
      <trkpt lat="46.1112" lon="5.89165">
        <ele>435.4</ele>
        <time>2022-09-26T14:37:12Z</time>
      </trkpt>
      <trkpt lat="46.11121" lon="5.89165">
        <ele>435.5</ele>
        <time>2022-09-26T14:37:13Z</time>
      </trkpt>
      <trkpt lat="46.11124" lon="5.89165">
        <ele>435.6</ele>
        <time>2022-09-26T14:37:14Z</time>
      </trkpt>
      <trkpt lat="46.11125" lon="5.89165">
        <ele>435.6</ele>
        <time>2022-09-26T14:37:15Z</time>
      </trkpt>
      <trkpt lat="46.11128" lon="5.89166">
        <ele>435.8</ele>
        <time>2022-09-26T14:37:16Z</time>
      </trkpt>
      <trkpt lat="46.11129" lon="5.89166">
        <ele>435.8</ele>
        <time>2022-09-26T14:37:17Z</time>
      </trkpt>
      <trkpt lat="46.11132" lon="5.89166">
        <ele>435.9</ele>
        <time>2022-09-26T14:37:18Z</time>
      </trkpt>
      <trkpt lat="46.11133" lon="5.89166">
        <ele>436</ele>
        <time>2022-09-26T14:37:19Z</time>
      </trkpt>
      <trkpt lat="46.11135" lon="5.89167">
        <ele>436.1</ele>
        <time>2022-09-26T14:37:20Z</time>
      </trkpt>
      <trkpt lat="46.11139" lon="5.89168">
        <ele>436.2</ele>
        <time>2022-09-26T14:37:21Z</time>
      </trkpt>
      <trkpt lat="46.1114" lon="5.89168">
        <ele>436.3</ele>
        <time>2022-09-26T14:37:22Z</time>
      </trkpt>
      <trkpt lat="46.11143" lon="5.89168">
        <ele>436.4</ele>
        <time>2022-09-26T14:37:23Z</time>
      </trkpt>
      <trkpt lat="46.11144" lon="5.89168">
        <ele>436.4</ele>
        <time>2022-09-26T14:37:24Z</time>
      </trkpt>
      <trkpt lat="46.11148" lon="5.8917">
        <ele>436.6</ele>
        <time>2022-09-26T14:37:25Z</time>
      </trkpt>
      <trkpt lat="46.11149" lon="5.8917">
        <ele>436.6</ele>
        <time>2022-09-26T14:37:26Z</time>
      </trkpt>
      <trkpt lat="46.11152" lon="5.8917">
        <ele>436.7</ele>
        <time>2022-09-26T14:37:27Z</time>
      </trkpt>
      <trkpt lat="46.11154" lon="5.8917">
        <ele>436.8</ele>
        <time>2022-09-26T14:37:28Z</time>
      </trkpt>
      <trkpt lat="46.11157" lon="5.89171">
        <ele>436.9</ele>
        <time>2022-09-26T14:37:29Z</time>
      </trkpt>
      <trkpt lat="46.11158" lon="5.89172">
        <ele>436.9</ele>
        <time>2022-09-26T14:37:30Z</time>
      </trkpt>
      <trkpt lat="46.11161" lon="5.89173">
        <ele>437.1</ele>
        <time>2022-09-26T14:37:31Z</time>
      </trkpt>
      <trkpt lat="46.11162" lon="5.89173">
        <ele>437.1</ele>
        <time>2022-09-26T14:37:32Z</time>
      </trkpt>
      <trkpt lat="46.11163" lon="5.89174">
        <ele>437.2</ele>
        <time>2022-09-26T14:37:33Z</time>
      </trkpt>
      <trkpt lat="46.11165" lon="5.89174">
        <ele>437.2</ele>
        <time>2022-09-26T14:37:34Z</time>
      </trkpt>
      <trkpt lat="46.11168" lon="5.89174">
        <ele>437.3</ele>
        <time>2022-09-26T14:37:35Z</time>
      </trkpt>
      <trkpt lat="46.11169" lon="5.89174">
        <ele>437.4</ele>
        <time>2022-09-26T14:37:36Z</time>
      </trkpt>
      <trkpt lat="46.11172" lon="5.89175">
        <ele>437.5</ele>
        <time>2022-09-26T14:37:37Z</time>
      </trkpt>
      <trkpt lat="46.11173" lon="5.89175">
        <ele>437.5</ele>
        <time>2022-09-26T14:37:38Z</time>
      </trkpt>
      <trkpt lat="46.11176" lon="5.89175">
        <ele>437.6</ele>
        <time>2022-09-26T14:37:39Z</time>
      </trkpt>
      <trkpt lat="46.11177" lon="5.89175">
        <ele>437.7</ele>
        <time>2022-09-26T14:37:40Z</time>
      </trkpt>
      <trkpt lat="46.1118" lon="5.89175">
        <ele>437.8</ele>
        <time>2022-09-26T14:37:41Z</time>
      </trkpt>
      <trkpt lat="46.11184" lon="5.89176">
        <ele>437.9</ele>
        <time>2022-09-26T14:37:42Z</time>
      </trkpt>
      <trkpt lat="46.11185" lon="5.89176">
        <ele>438</ele>
        <time>2022-09-26T14:37:43Z</time>
      </trkpt>
      <trkpt lat="46.11188" lon="5.89177">
        <ele>438.1</ele>
        <time>2022-09-26T14:37:44Z</time>
      </trkpt>
      <trkpt lat="46.11189" lon="5.89178">
        <ele>438.1</ele>
        <time>2022-09-26T14:37:45Z</time>
      </trkpt>
      <trkpt lat="46.11192" lon="5.89178">
        <ele>438.3</ele>
        <time>2022-09-26T14:37:46Z</time>
      </trkpt>
      <trkpt lat="46.11193" lon="5.89178">
        <ele>438.3</ele>
        <time>2022-09-26T14:37:47Z</time>
      </trkpt>
      <trkpt lat="46.11197" lon="5.89179">
        <ele>438.5</ele>
        <time>2022-09-26T14:37:48Z</time>
      </trkpt>
      <trkpt lat="46.11198" lon="5.8918">
        <ele>438.5</ele>
        <time>2022-09-26T14:37:49Z</time>
      </trkpt>
      <trkpt lat="46.11202" lon="5.89181">
        <ele>438.7</ele>
        <time>2022-09-26T14:37:50Z</time>
      </trkpt>
      <trkpt lat="46.11203" lon="5.89181">
        <ele>438.7</ele>
        <time>2022-09-26T14:37:51Z</time>
      </trkpt>
      <trkpt lat="46.11205" lon="5.89183">
        <ele>438.8</ele>
        <time>2022-09-26T14:37:52Z</time>
      </trkpt>
      <trkpt lat="46.11208" lon="5.89184">
        <ele>439</ele>
        <time>2022-09-26T14:37:53Z</time>
      </trkpt>
      <trkpt lat="46.11209" lon="5.89184">
        <ele>439</ele>
        <time>2022-09-26T14:37:54Z</time>
      </trkpt>
      <trkpt lat="46.11212" lon="5.89186">
        <ele>439.1</ele>
        <time>2022-09-26T14:37:55Z</time>
      </trkpt>
      <trkpt lat="46.11213" lon="5.89186">
        <ele>439.1</ele>
        <time>2022-09-26T14:37:56Z</time>
      </trkpt>
      <trkpt lat="46.11216" lon="5.89188">
        <ele>439.3</ele>
        <time>2022-09-26T14:37:57Z</time>
      </trkpt>
      <trkpt lat="46.11217" lon="5.89188">
        <ele>439.3</ele>
        <time>2022-09-26T14:37:58Z</time>
      </trkpt>
      <trkpt lat="46.1122" lon="5.8919">
        <ele>439.5</ele>
        <time>2022-09-26T14:37:59Z</time>
      </trkpt>
      <trkpt lat="46.11221" lon="5.8919">
        <ele>439.5</ele>
        <time>2022-09-26T14:38:00Z</time>
      </trkpt>
      <trkpt lat="46.11225" lon="5.89191">
        <ele>439.6</ele>
        <time>2022-09-26T14:38:01Z</time>
      </trkpt>
      <trkpt lat="46.11226" lon="5.89191">
        <ele>439.7</ele>
        <time>2022-09-26T14:38:02Z</time>
      </trkpt>
      <trkpt lat="46.11229" lon="5.89193">
        <ele>439.8</ele>
        <time>2022-09-26T14:38:03Z</time>
      </trkpt>
      <trkpt lat="46.1123" lon="5.89193">
        <ele>439.9</ele>
        <time>2022-09-26T14:38:04Z</time>
      </trkpt>
      <trkpt lat="46.11233" lon="5.89194">
        <ele>440</ele>
        <time>2022-09-26T14:38:05Z</time>
      </trkpt>
      <trkpt lat="46.11234" lon="5.89195">
        <ele>440</ele>
        <time>2022-09-26T14:38:06Z</time>
      </trkpt>
      <trkpt lat="46.11237" lon="5.89196">
        <ele>440.2</ele>
        <time>2022-09-26T14:38:07Z</time>
      </trkpt>
      <trkpt lat="46.11239" lon="5.89197">
        <ele>440.2</ele>
        <time>2022-09-26T14:38:08Z</time>
      </trkpt>
      <trkpt lat="46.11242" lon="5.89198">
        <ele>440.4</ele>
        <time>2022-09-26T14:38:09Z</time>
      </trkpt>
      <trkpt lat="46.11243" lon="5.89199">
        <ele>440.4</ele>
        <time>2022-09-26T14:38:10Z</time>
      </trkpt>
      <trkpt lat="46.11246" lon="5.892">
        <ele>440.6</ele>
        <time>2022-09-26T14:38:11Z</time>
      </trkpt>
      <trkpt lat="46.11247" lon="5.892">
        <ele>440.6</ele>
        <time>2022-09-26T14:38:12Z</time>
      </trkpt>
      <trkpt lat="46.1125" lon="5.89203">
        <ele>440.7</ele>
        <time>2022-09-26T14:38:13Z</time>
      </trkpt>
      <trkpt lat="46.11251" lon="5.89204">
        <ele>440.8</ele>
        <time>2022-09-26T14:38:14Z</time>
      </trkpt>
      <trkpt lat="46.11254" lon="5.89206">
        <ele>440.9</ele>
        <time>2022-09-26T14:38:15Z</time>
      </trkpt>
      <trkpt lat="46.11255" lon="5.89206">
        <ele>441</ele>
        <time>2022-09-26T14:38:16Z</time>
      </trkpt>
      <trkpt lat="46.11258" lon="5.89207">
        <ele>441.1</ele>
        <time>2022-09-26T14:38:17Z</time>
      </trkpt>
      <trkpt lat="46.11259" lon="5.89208">
        <ele>441.2</ele>
        <time>2022-09-26T14:38:18Z</time>
      </trkpt>
      <trkpt lat="46.11262" lon="5.89209">
        <ele>441.3</ele>
        <time>2022-09-26T14:38:19Z</time>
      </trkpt>
      <trkpt lat="46.11263" lon="5.8921">
        <ele>441.3</ele>
        <time>2022-09-26T14:38:20Z</time>
      </trkpt>
      <trkpt lat="46.11264" lon="5.89211">
        <ele>441.4</ele>
        <time>2022-09-26T14:38:21Z</time>
      </trkpt>
      <trkpt lat="46.11266" lon="5.89212">
        <ele>441.5</ele>
        <time>2022-09-26T14:38:22Z</time>
      </trkpt>
      <trkpt lat="46.11269" lon="5.89214">
        <ele>441.6</ele>
        <time>2022-09-26T14:38:23Z</time>
      </trkpt>
      <trkpt lat="46.1127" lon="5.89215">
        <ele>441.6</ele>
        <time>2022-09-26T14:38:24Z</time>
      </trkpt>
      <trkpt lat="46.11272" lon="5.89216">
        <ele>441.7</ele>
        <time>2022-09-26T14:38:25Z</time>
      </trkpt>
      <trkpt lat="46.11273" lon="5.89217">
        <ele>441.8</ele>
        <time>2022-09-26T14:38:26Z</time>
      </trkpt>
      <trkpt lat="46.11276" lon="5.89217">
        <ele>441.9</ele>
        <time>2022-09-26T14:38:27Z</time>
      </trkpt>
      <trkpt lat="46.11277" lon="5.89217">
        <ele>442</ele>
        <time>2022-09-26T14:38:28Z</time>
      </trkpt>
      <trkpt lat="46.11279" lon="5.89218">
        <ele>442</ele>
        <time>2022-09-26T14:38:29Z</time>
      </trkpt>
      <trkpt lat="46.11281" lon="5.89218">
        <ele>442.1</ele>
        <time>2022-09-26T14:38:30Z</time>
      </trkpt>
      <trkpt lat="46.11283" lon="5.8922">
        <ele>442.2</ele>
        <time>2022-09-26T14:38:31Z</time>
      </trkpt>
      <trkpt lat="46.11286" lon="5.8922">
        <ele>442.4</ele>
        <time>2022-09-26T14:38:32Z</time>
      </trkpt>
      <trkpt lat="46.11287" lon="5.89221">
        <ele>442.4</ele>
        <time>2022-09-26T14:38:33Z</time>
      </trkpt>
      <trkpt lat="46.11289" lon="5.89222">
        <ele>442.5</ele>
        <time>2022-09-26T14:38:34Z</time>
      </trkpt>
      <trkpt lat="46.1129" lon="5.89223">
        <ele>442.6</ele>
        <time>2022-09-26T14:38:35Z</time>
      </trkpt>
      <trkpt lat="46.11292" lon="5.89223">
        <ele>442.6</ele>
        <time>2022-09-26T14:38:36Z</time>
      </trkpt>
      <trkpt lat="46.11294" lon="5.89223">
        <ele>442.7</ele>
        <time>2022-09-26T14:38:37Z</time>
      </trkpt>
      <trkpt lat="46.11296" lon="5.89224">
        <ele>442.8</ele>
        <time>2022-09-26T14:38:38Z</time>
      </trkpt>
      <trkpt lat="46.11297" lon="5.89224">
        <ele>442.9</ele>
        <time>2022-09-26T14:38:39Z</time>
      </trkpt>
      <trkpt lat="46.113" lon="5.89225">
        <ele>443</ele>
        <time>2022-09-26T14:38:40Z</time>
      </trkpt>
      <trkpt lat="46.11301" lon="5.89225">
        <ele>443</ele>
        <time>2022-09-26T14:38:41Z</time>
      </trkpt>
      <trkpt lat="46.11304" lon="5.89225">
        <ele>443.2</ele>
        <time>2022-09-26T14:38:42Z</time>
      </trkpt>
      <trkpt lat="46.11306" lon="5.89225">
        <ele>443.2</ele>
        <time>2022-09-26T14:38:43Z</time>
      </trkpt>
      <trkpt lat="46.11307" lon="5.89226">
        <ele>443.3</ele>
        <time>2022-09-26T14:38:44Z</time>
      </trkpt>
      <trkpt lat="46.11309" lon="5.89226">
        <ele>443.4</ele>
        <time>2022-09-26T14:38:45Z</time>
      </trkpt>
      <trkpt lat="46.11312" lon="5.89227">
        <ele>443.5</ele>
        <time>2022-09-26T14:38:46Z</time>
      </trkpt>
      <trkpt lat="46.11313" lon="5.89227">
        <ele>443.5</ele>
        <time>2022-09-26T14:38:47Z</time>
      </trkpt>
      <trkpt lat="46.11317" lon="5.89227">
        <ele>443.7</ele>
        <time>2022-09-26T14:38:48Z</time>
      </trkpt>
      <trkpt lat="46.11318" lon="5.89227">
        <ele>443.7</ele>
        <time>2022-09-26T14:38:49Z</time>
      </trkpt>
      <trkpt lat="46.11321" lon="5.89227">
        <ele>443.9</ele>
        <time>2022-09-26T14:38:50Z</time>
      </trkpt>
      <trkpt lat="46.11323" lon="5.89227">
        <ele>443.9</ele>
        <time>2022-09-26T14:38:51Z</time>
      </trkpt>
      <trkpt lat="46.11326" lon="5.89227">
        <ele>444.1</ele>
        <time>2022-09-26T14:38:52Z</time>
      </trkpt>
      <trkpt lat="46.11327" lon="5.89227">
        <ele>444.1</ele>
        <time>2022-09-26T14:38:53Z</time>
      </trkpt>
      <trkpt lat="46.1133" lon="5.89227">
        <ele>444.2</ele>
        <time>2022-09-26T14:38:54Z</time>
      </trkpt>
      <trkpt lat="46.11332" lon="5.89227">
        <ele>444.3</ele>
        <time>2022-09-26T14:38:55Z</time>
      </trkpt>
      <trkpt lat="46.11335" lon="5.89228">
        <ele>444.4</ele>
        <time>2022-09-26T14:38:56Z</time>
      </trkpt>
      <trkpt lat="46.11336" lon="5.89228">
        <ele>444.5</ele>
        <time>2022-09-26T14:38:57Z</time>
      </trkpt>
      <trkpt lat="46.11339" lon="5.89228">
        <ele>444.6</ele>
        <time>2022-09-26T14:38:58Z</time>
      </trkpt>
      <trkpt lat="46.1134" lon="5.89227">
        <ele>444.6</ele>
        <time>2022-09-26T14:38:59Z</time>
      </trkpt>
      <trkpt lat="46.11344" lon="5.89227">
        <ele>444.8</ele>
        <time>2022-09-26T14:39:00Z</time>
      </trkpt>
      <trkpt lat="46.11345" lon="5.89227">
        <ele>444.8</ele>
        <time>2022-09-26T14:39:01Z</time>
      </trkpt>
      <trkpt lat="46.11349" lon="5.89227">
        <ele>445</ele>
        <time>2022-09-26T14:39:02Z</time>
      </trkpt>
      <trkpt lat="46.1135" lon="5.89227">
        <ele>445</ele>
        <time>2022-09-26T14:39:03Z</time>
      </trkpt>
      <trkpt lat="46.11353" lon="5.89227">
        <ele>445.1</ele>
        <time>2022-09-26T14:39:04Z</time>
      </trkpt>
      <trkpt lat="46.11354" lon="5.89227">
        <ele>445.2</ele>
        <time>2022-09-26T14:39:05Z</time>
      </trkpt>
      <trkpt lat="46.11357" lon="5.89227">
        <ele>445.3</ele>
        <time>2022-09-26T14:39:06Z</time>
      </trkpt>
      <trkpt lat="46.11358" lon="5.89227">
        <ele>445.3</ele>
        <time>2022-09-26T14:39:07Z</time>
      </trkpt>
      <trkpt lat="46.11362" lon="5.89228">
        <ele>445.5</ele>
        <time>2022-09-26T14:39:08Z</time>
      </trkpt>
      <trkpt lat="46.11363" lon="5.89228">
        <ele>445.5</ele>
        <time>2022-09-26T14:39:09Z</time>
      </trkpt>
      <trkpt lat="46.11366" lon="5.89229">
        <ele>445.6</ele>
        <time>2022-09-26T14:39:10Z</time>
      </trkpt>
      <trkpt lat="46.11369" lon="5.8923">
        <ele>445.7</ele>
        <time>2022-09-26T14:39:11Z</time>
      </trkpt>
      <trkpt lat="46.1137" lon="5.89231">
        <ele>445.8</ele>
        <time>2022-09-26T14:39:12Z</time>
      </trkpt>
      <trkpt lat="46.11372" lon="5.89232">
        <ele>445.9</ele>
        <time>2022-09-26T14:39:13Z</time>
      </trkpt>
      <trkpt lat="46.11375" lon="5.89233">
        <ele>446</ele>
        <time>2022-09-26T14:39:14Z</time>
      </trkpt>
      <trkpt lat="46.11376" lon="5.89233">
        <ele>446</ele>
        <time>2022-09-26T14:39:15Z</time>
      </trkpt>
      <trkpt lat="46.11378" lon="5.89234">
        <ele>446</ele>
        <time>2022-09-26T14:39:16Z</time>
      </trkpt>
      <trkpt lat="46.11379" lon="5.89236">
        <ele>446.1</ele>
        <time>2022-09-26T14:39:17Z</time>
      </trkpt>
      <trkpt lat="46.11382" lon="5.89237">
        <ele>446.2</ele>
        <time>2022-09-26T14:39:18Z</time>
      </trkpt>
      <trkpt lat="46.11384" lon="5.89239">
        <ele>446.3</ele>
        <time>2022-09-26T14:39:19Z</time>
      </trkpt>
      <trkpt lat="46.11385" lon="5.8924">
        <ele>446.3</ele>
        <time>2022-09-26T14:39:20Z</time>
      </trkpt>
      <trkpt lat="46.11388" lon="5.89243">
        <ele>446.4</ele>
        <time>2022-09-26T14:39:21Z</time>
      </trkpt>
      <trkpt lat="46.11389" lon="5.89244">
        <ele>446.4</ele>
        <time>2022-09-26T14:39:22Z</time>
      </trkpt>
      <trkpt lat="46.11392" lon="5.89246">
        <ele>446.5</ele>
        <time>2022-09-26T14:39:23Z</time>
      </trkpt>
      <trkpt lat="46.11394" lon="5.89247">
        <ele>446.6</ele>
        <time>2022-09-26T14:39:24Z</time>
      </trkpt>
      <trkpt lat="46.11397" lon="5.8925">
        <ele>446.7</ele>
        <time>2022-09-26T14:39:25Z</time>
      </trkpt>
      <trkpt lat="46.11397" lon="5.89251">
        <ele>446.7</ele>
        <time>2022-09-26T14:39:26Z</time>
      </trkpt>
      <trkpt lat="46.114" lon="5.89254">
        <ele>446.8</ele>
        <time>2022-09-26T14:39:27Z</time>
      </trkpt>
      <trkpt lat="46.11401" lon="5.89255">
        <ele>446.8</ele>
        <time>2022-09-26T14:39:28Z</time>
      </trkpt>
      <trkpt lat="46.11403" lon="5.89257">
        <ele>446.9</ele>
        <time>2022-09-26T14:39:29Z</time>
      </trkpt>
      <trkpt lat="46.11406" lon="5.8926">
        <ele>447</ele>
        <time>2022-09-26T14:39:30Z</time>
      </trkpt>
      <trkpt lat="46.11407" lon="5.89261">
        <ele>447.1</ele>
        <time>2022-09-26T14:39:31Z</time>
      </trkpt>
      <trkpt lat="46.11411" lon="5.89264">
        <ele>447.1</ele>
        <time>2022-09-26T14:39:32Z</time>
      </trkpt>
      <trkpt lat="46.11412" lon="5.89264">
        <ele>447.2</ele>
        <time>2022-09-26T14:39:33Z</time>
      </trkpt>
      <trkpt lat="46.11415" lon="5.89266">
        <ele>447.3</ele>
        <time>2022-09-26T14:39:34Z</time>
      </trkpt>
      <trkpt lat="46.11418" lon="5.89269">
        <ele>447.3</ele>
        <time>2022-09-26T14:39:35Z</time>
      </trkpt>
      <trkpt lat="46.1142" lon="5.89272">
        <ele>447.4</ele>
        <time>2022-09-26T14:39:36Z</time>
      </trkpt>
      <trkpt lat="46.11421" lon="5.89272">
        <ele>447.4</ele>
        <time>2022-09-26T14:39:37Z</time>
      </trkpt>
      <trkpt lat="46.11425" lon="5.89274">
        <ele>447.5</ele>
        <time>2022-09-26T14:39:38Z</time>
      </trkpt>
      <trkpt lat="46.11426" lon="5.89275">
        <ele>447.6</ele>
        <time>2022-09-26T14:39:39Z</time>
      </trkpt>
      <trkpt lat="46.11429" lon="5.89279">
        <ele>447.7</ele>
        <time>2022-09-26T14:39:40Z</time>
      </trkpt>
      <trkpt lat="46.1143" lon="5.8928">
        <ele>447.7</ele>
        <time>2022-09-26T14:39:41Z</time>
      </trkpt>
      <trkpt lat="46.11433" lon="5.89283">
        <ele>447.8</ele>
        <time>2022-09-26T14:39:42Z</time>
      </trkpt>
      <trkpt lat="46.11436" lon="5.89285">
        <ele>447.9</ele>
        <time>2022-09-26T14:39:43Z</time>
      </trkpt>
      <trkpt lat="46.11439" lon="5.89287">
        <ele>447.9</ele>
        <time>2022-09-26T14:39:44Z</time>
      </trkpt>
      <trkpt lat="46.11441" lon="5.89289">
        <ele>448</ele>
        <time>2022-09-26T14:39:45Z</time>
      </trkpt>
      <trkpt lat="46.11443" lon="5.8929">
        <ele>448</ele>
        <time>2022-09-26T14:39:46Z</time>
      </trkpt>
      <trkpt lat="46.11445" lon="5.89292">
        <ele>448.1</ele>
        <time>2022-09-26T14:39:47Z</time>
      </trkpt>
      <trkpt lat="46.11447" lon="5.89294">
        <ele>448.1</ele>
        <time>2022-09-26T14:39:48Z</time>
      </trkpt>
      <trkpt lat="46.11451" lon="5.89295">
        <ele>448.2</ele>
        <time>2022-09-26T14:39:49Z</time>
      </trkpt>
      <trkpt lat="46.11453" lon="5.89296">
        <ele>448.3</ele>
        <time>2022-09-26T14:39:50Z</time>
      </trkpt>
      <trkpt lat="46.11455" lon="5.89298">
        <ele>448.3</ele>
        <time>2022-09-26T14:39:51Z</time>
      </trkpt>
      <trkpt lat="46.11459" lon="5.893">
        <ele>448.4</ele>
        <time>2022-09-26T14:39:52Z</time>
      </trkpt>
      <trkpt lat="46.1146" lon="5.893">
        <ele>448.4</ele>
        <time>2022-09-26T14:39:53Z</time>
      </trkpt>
      <trkpt lat="46.11463" lon="5.89301">
        <ele>448.5</ele>
        <time>2022-09-26T14:39:54Z</time>
      </trkpt>
      <trkpt lat="46.11467" lon="5.89301">
        <ele>448.6</ele>
        <time>2022-09-26T14:39:55Z</time>
      </trkpt>
      <trkpt lat="46.1147" lon="5.89303">
        <ele>448.7</ele>
        <time>2022-09-26T14:39:56Z</time>
      </trkpt>
      <trkpt lat="46.11474" lon="5.89303">
        <ele>448.7</ele>
        <time>2022-09-26T14:39:57Z</time>
      </trkpt>
      <trkpt lat="46.11477" lon="5.89303">
        <ele>448.8</ele>
        <time>2022-09-26T14:39:58Z</time>
      </trkpt>
      <trkpt lat="46.11481" lon="5.89303">
        <ele>448.8</ele>
        <time>2022-09-26T14:39:59Z</time>
      </trkpt>
      <trkpt lat="46.11484" lon="5.89304">
        <ele>448.9</ele>
        <time>2022-09-26T14:40:00Z</time>
      </trkpt>
      <trkpt lat="46.11487" lon="5.89305">
        <ele>448.9</ele>
        <time>2022-09-26T14:40:01Z</time>
      </trkpt>
      <trkpt lat="46.11488" lon="5.89305">
        <ele>448.9</ele>
        <time>2022-09-26T14:40:02Z</time>
      </trkpt>
      <trkpt lat="46.11491" lon="5.89305">
        <ele>449</ele>
        <time>2022-09-26T14:40:03Z</time>
      </trkpt>
      <trkpt lat="46.11494" lon="5.89306">
        <ele>449</ele>
        <time>2022-09-26T14:40:04Z</time>
      </trkpt>
      <trkpt lat="46.11498" lon="5.89307">
        <ele>449.1</ele>
        <time>2022-09-26T14:40:05Z</time>
      </trkpt>
      <trkpt lat="46.11502" lon="5.89307">
        <ele>449.2</ele>
        <time>2022-09-26T14:40:06Z</time>
      </trkpt>
      <trkpt lat="46.11504" lon="5.89308">
        <ele>449.2</ele>
        <time>2022-09-26T14:40:07Z</time>
      </trkpt>
      <trkpt lat="46.11507" lon="5.89307">
        <ele>449.3</ele>
        <time>2022-09-26T14:40:08Z</time>
      </trkpt>
      <trkpt lat="46.11509" lon="5.89308">
        <ele>449.3</ele>
        <time>2022-09-26T14:40:09Z</time>
      </trkpt>
      <trkpt lat="46.11512" lon="5.89309">
        <ele>449.4</ele>
        <time>2022-09-26T14:40:10Z</time>
      </trkpt>
      <trkpt lat="46.11516" lon="5.8931">
        <ele>449.4</ele>
        <time>2022-09-26T14:40:11Z</time>
      </trkpt>
      <trkpt lat="46.11519" lon="5.89312">
        <ele>449.5</ele>
        <time>2022-09-26T14:40:12Z</time>
      </trkpt>
      <trkpt lat="46.11521" lon="5.89312">
        <ele>449.5</ele>
        <time>2022-09-26T14:40:13Z</time>
      </trkpt>
      <trkpt lat="46.11523" lon="5.89313">
        <ele>449.6</ele>
        <time>2022-09-26T14:40:14Z</time>
      </trkpt>
      <trkpt lat="46.11526" lon="5.89313">
        <ele>449.6</ele>
        <time>2022-09-26T14:40:15Z</time>
      </trkpt>
      <trkpt lat="46.1153" lon="5.89315">
        <ele>449.7</ele>
        <time>2022-09-26T14:40:16Z</time>
      </trkpt>
      <trkpt lat="46.11531" lon="5.89315">
        <ele>449.7</ele>
        <time>2022-09-26T14:40:17Z</time>
      </trkpt>
      <trkpt lat="46.11535" lon="5.89314">
        <ele>449.8</ele>
        <time>2022-09-26T14:40:18Z</time>
      </trkpt>
      <trkpt lat="46.1154" lon="5.89313">
        <ele>449.9</ele>
        <time>2022-09-26T14:40:19Z</time>
      </trkpt>
      <trkpt lat="46.11543" lon="5.89314">
        <ele>450</ele>
        <time>2022-09-26T14:40:20Z</time>
      </trkpt>
      <trkpt lat="46.11547" lon="5.89314">
        <ele>450.1</ele>
        <time>2022-09-26T14:40:21Z</time>
      </trkpt>
      <trkpt lat="46.11551" lon="5.89316">
        <ele>450.2</ele>
        <time>2022-09-26T14:40:22Z</time>
      </trkpt>
      <trkpt lat="46.11555" lon="5.89317">
        <ele>450.3</ele>
        <time>2022-09-26T14:40:23Z</time>
      </trkpt>
      <trkpt lat="46.11558" lon="5.89317">
        <ele>450.4</ele>
        <time>2022-09-26T14:40:24Z</time>
      </trkpt>
      <trkpt lat="46.11561" lon="5.89319">
        <ele>450.4</ele>
        <time>2022-09-26T14:40:25Z</time>
      </trkpt>
      <trkpt lat="46.11565" lon="5.89319">
        <ele>450.6</ele>
        <time>2022-09-26T14:40:26Z</time>
      </trkpt>
      <trkpt lat="46.11567" lon="5.8932">
        <ele>450.6</ele>
        <time>2022-09-26T14:40:27Z</time>
      </trkpt>
      <trkpt lat="46.1157" lon="5.89321">
        <ele>450.7</ele>
        <time>2022-09-26T14:40:28Z</time>
      </trkpt>
      <trkpt lat="46.11573" lon="5.89321">
        <ele>450.8</ele>
        <time>2022-09-26T14:40:29Z</time>
      </trkpt>
      <trkpt lat="46.11576" lon="5.89321">
        <ele>450.8</ele>
        <time>2022-09-26T14:40:30Z</time>
      </trkpt>
      <trkpt lat="46.1158" lon="5.89321">
        <ele>450.9</ele>
        <time>2022-09-26T14:40:31Z</time>
      </trkpt>
      <trkpt lat="46.11584" lon="5.89322">
        <ele>451</ele>
        <time>2022-09-26T14:40:32Z</time>
      </trkpt>
      <trkpt lat="46.11585" lon="5.89322">
        <ele>451.1</ele>
        <time>2022-09-26T14:40:33Z</time>
      </trkpt>
      <trkpt lat="46.11588" lon="5.89322">
        <ele>451.2</ele>
        <time>2022-09-26T14:40:34Z</time>
      </trkpt>
      <trkpt lat="46.11591" lon="5.89322">
        <ele>451.3</ele>
        <time>2022-09-26T14:40:35Z</time>
      </trkpt>
      <trkpt lat="46.11595" lon="5.89323">
        <ele>451.4</ele>
        <time>2022-09-26T14:40:36Z</time>
      </trkpt>
      <trkpt lat="46.11596" lon="5.89323">
        <ele>451.4</ele>
        <time>2022-09-26T14:40:37Z</time>
      </trkpt>
      <trkpt lat="46.116" lon="5.89324">
        <ele>451.5</ele>
        <time>2022-09-26T14:40:38Z</time>
      </trkpt>
      <trkpt lat="46.11602" lon="5.89324">
        <ele>451.6</ele>
        <time>2022-09-26T14:40:39Z</time>
      </trkpt>
      <trkpt lat="46.11605" lon="5.89325">
        <ele>451.7</ele>
        <time>2022-09-26T14:40:40Z</time>
      </trkpt>
      <trkpt lat="46.11608" lon="5.89325">
        <ele>451.9</ele>
        <time>2022-09-26T14:40:41Z</time>
      </trkpt>
      <trkpt lat="46.11612" lon="5.89326">
        <ele>452</ele>
        <time>2022-09-26T14:40:42Z</time>
      </trkpt>
      <trkpt lat="46.11615" lon="5.89327">
        <ele>452.2</ele>
        <time>2022-09-26T14:40:43Z</time>
      </trkpt>
      <trkpt lat="46.11618" lon="5.89327">
        <ele>452.4</ele>
        <time>2022-09-26T14:40:44Z</time>
      </trkpt>
      <trkpt lat="46.11621" lon="5.89327">
        <ele>452.5</ele>
        <time>2022-09-26T14:40:45Z</time>
      </trkpt>
      <trkpt lat="46.11625" lon="5.89328">
        <ele>452.7</ele>
        <time>2022-09-26T14:40:46Z</time>
      </trkpt>
      <trkpt lat="46.11626" lon="5.89329">
        <ele>452.8</ele>
        <time>2022-09-26T14:40:47Z</time>
      </trkpt>
      <trkpt lat="46.11629" lon="5.8933">
        <ele>452.9</ele>
        <time>2022-09-26T14:40:48Z</time>
      </trkpt>
      <trkpt lat="46.11632" lon="5.89331">
        <ele>453.1</ele>
        <time>2022-09-26T14:40:49Z</time>
      </trkpt>
      <trkpt lat="46.11636" lon="5.89332">
        <ele>453.3</ele>
        <time>2022-09-26T14:40:50Z</time>
      </trkpt>
      <trkpt lat="46.11637" lon="5.89333">
        <ele>453.3</ele>
        <time>2022-09-26T14:40:51Z</time>
      </trkpt>
      <trkpt lat="46.11641" lon="5.89334">
        <ele>453.5</ele>
        <time>2022-09-26T14:40:52Z</time>
      </trkpt>
      <trkpt lat="46.11642" lon="5.89335">
        <ele>453.6</ele>
        <time>2022-09-26T14:40:53Z</time>
      </trkpt>
      <trkpt lat="46.11646" lon="5.89336">
        <ele>453.8</ele>
        <time>2022-09-26T14:40:54Z</time>
      </trkpt>
      <trkpt lat="46.11647" lon="5.89337">
        <ele>453.9</ele>
        <time>2022-09-26T14:40:55Z</time>
      </trkpt>
      <trkpt lat="46.1165" lon="5.89338">
        <ele>454</ele>
        <time>2022-09-26T14:40:56Z</time>
      </trkpt>
      <trkpt lat="46.11653" lon="5.89341">
        <ele>454.2</ele>
        <time>2022-09-26T14:40:57Z</time>
      </trkpt>
      <trkpt lat="46.11653" lon="5.89342">
        <ele>454.3</ele>
        <time>2022-09-26T14:40:58Z</time>
      </trkpt>
      <trkpt lat="46.11656" lon="5.89343">
        <ele>454.4</ele>
        <time>2022-09-26T14:40:59Z</time>
      </trkpt>
      <trkpt lat="46.11659" lon="5.89345">
        <ele>454.6</ele>
        <time>2022-09-26T14:41:00Z</time>
      </trkpt>
      <trkpt lat="46.1166" lon="5.89346">
        <ele>454.7</ele>
        <time>2022-09-26T14:41:01Z</time>
      </trkpt>
      <trkpt lat="46.11664" lon="5.89348">
        <ele>454.9</ele>
        <time>2022-09-26T14:41:02Z</time>
      </trkpt>
      <trkpt lat="46.11666" lon="5.89349">
        <ele>455</ele>
        <time>2022-09-26T14:41:03Z</time>
      </trkpt>
      <trkpt lat="46.1167" lon="5.89351">
        <ele>455.3</ele>
        <time>2022-09-26T14:41:04Z</time>
      </trkpt>
      <trkpt lat="46.11671" lon="5.89352">
        <ele>455.4</ele>
        <time>2022-09-26T14:41:05Z</time>
      </trkpt>
      <trkpt lat="46.11675" lon="5.89354">
        <ele>455.6</ele>
        <time>2022-09-26T14:41:06Z</time>
      </trkpt>
      <trkpt lat="46.11676" lon="5.89355">
        <ele>455.7</ele>
        <time>2022-09-26T14:41:07Z</time>
      </trkpt>
      <trkpt lat="46.11679" lon="5.89356">
        <ele>455.9</ele>
        <time>2022-09-26T14:41:08Z</time>
      </trkpt>
      <trkpt lat="46.1168" lon="5.89356">
        <ele>455.9</ele>
        <time>2022-09-26T14:41:09Z</time>
      </trkpt>
      <trkpt lat="46.11683" lon="5.89358">
        <ele>456.1</ele>
        <time>2022-09-26T14:41:10Z</time>
      </trkpt>
      <trkpt lat="46.11685" lon="5.89361">
        <ele>456.3</ele>
        <time>2022-09-26T14:41:11Z</time>
      </trkpt>
      <trkpt lat="46.11686" lon="5.89362">
        <ele>456.4</ele>
        <time>2022-09-26T14:41:12Z</time>
      </trkpt>
      <trkpt lat="46.11689" lon="5.89364">
        <ele>456.5</ele>
        <time>2022-09-26T14:41:13Z</time>
      </trkpt>
      <trkpt lat="46.11689" lon="5.89365">
        <ele>456.6</ele>
        <time>2022-09-26T14:41:14Z</time>
      </trkpt>
      <trkpt lat="46.11692" lon="5.89368">
        <ele>456.8</ele>
        <time>2022-09-26T14:41:15Z</time>
      </trkpt>
      <trkpt lat="46.11693" lon="5.89369">
        <ele>456.9</ele>
        <time>2022-09-26T14:41:16Z</time>
      </trkpt>
      <trkpt lat="46.11696" lon="5.8937">
        <ele>457</ele>
        <time>2022-09-26T14:41:17Z</time>
      </trkpt>
      <trkpt lat="46.11698" lon="5.89371">
        <ele>457.2</ele>
        <time>2022-09-26T14:41:18Z</time>
      </trkpt>
      <trkpt lat="46.11699" lon="5.89372">
        <ele>457.2</ele>
        <time>2022-09-26T14:41:19Z</time>
      </trkpt>
      <trkpt lat="46.11703" lon="5.89373">
        <ele>457.5</ele>
        <time>2022-09-26T14:41:20Z</time>
      </trkpt>
      <trkpt lat="46.11704" lon="5.89374">
        <ele>457.5</ele>
        <time>2022-09-26T14:41:21Z</time>
      </trkpt>
      <trkpt lat="46.11705" lon="5.89375">
        <ele>457.6</ele>
        <time>2022-09-26T14:41:22Z</time>
      </trkpt>
      <trkpt lat="46.11706" lon="5.89377">
        <ele>457.7</ele>
        <time>2022-09-26T14:41:23Z</time>
      </trkpt>
      <trkpt lat="46.11707" lon="5.89378">
        <ele>457.8</ele>
        <time>2022-09-26T14:41:24Z</time>
      </trkpt>
      <trkpt lat="46.11707" lon="5.8938">
        <ele>457.9</ele>
        <time>2022-09-26T14:41:25Z</time>
      </trkpt>
      <trkpt lat="46.11709" lon="5.8938">
        <ele>458</ele>
        <time>2022-09-26T14:41:26Z</time>
      </trkpt>
      <trkpt lat="46.1171" lon="5.8938">
        <ele>458</ele>
        <time>2022-09-26T14:41:27Z</time>
      </trkpt>
      <trkpt lat="46.1171" lon="5.8938">
        <ele>458</ele>
        <time>2022-09-26T14:41:28Z</time>
      </trkpt>
      <trkpt lat="46.11711" lon="5.8938">
        <ele>458.1</ele>
        <time>2022-09-26T14:41:29Z</time>
      </trkpt>
      <trkpt lat="46.11712" lon="5.8938">
        <ele>458.1</ele>
        <time>2022-09-26T14:41:30Z</time>
      </trkpt>
      <trkpt lat="46.11715" lon="5.8938">
        <ele>458.3</ele>
        <time>2022-09-26T14:41:31Z</time>
      </trkpt>
      <trkpt lat="46.11717" lon="5.8938">
        <ele>458.3</ele>
        <time>2022-09-26T14:41:32Z</time>
      </trkpt>
      <trkpt lat="46.11719" lon="5.8938">
        <ele>458.3</ele>
        <time>2022-09-26T14:41:33Z</time>
      </trkpt>
      <trkpt lat="46.1172" lon="5.8938">
        <ele>458.3</ele>
        <time>2022-09-26T14:41:34Z</time>
      </trkpt>
      <trkpt lat="46.11722" lon="5.8938">
        <ele>458.3</ele>
        <time>2022-09-26T14:41:35Z</time>
      </trkpt>
      <trkpt lat="46.11724" lon="5.8938">
        <ele>458.3</ele>
        <time>2022-09-26T14:41:36Z</time>
      </trkpt>
      <trkpt lat="46.11726" lon="5.8938">
        <ele>458.3</ele>
        <time>2022-09-26T14:43:18Z</time>
      </trkpt>
      <trkpt lat="46.11728" lon="5.89379">
        <ele>458.4</ele>
        <time>2022-09-26T14:43:19Z</time>
      </trkpt>
      <trkpt lat="46.11729" lon="5.89379">
        <ele>458.5</ele>
        <time>2022-09-26T14:43:20Z</time>
      </trkpt>
      <trkpt lat="46.11731" lon="5.8938">
        <ele>458.6</ele>
        <time>2022-09-26T14:43:21Z</time>
      </trkpt>
      <trkpt lat="46.11734" lon="5.89382">
        <ele>458.7</ele>
        <time>2022-09-26T14:43:22Z</time>
      </trkpt>
      <trkpt lat="46.11735" lon="5.89383">
        <ele>458.8</ele>
        <time>2022-09-26T14:43:23Z</time>
      </trkpt>
      <trkpt lat="46.11738" lon="5.89384">
        <ele>458.9</ele>
        <time>2022-09-26T14:43:24Z</time>
      </trkpt>
      <trkpt lat="46.11741" lon="5.89386">
        <ele>459</ele>
        <time>2022-09-26T14:43:25Z</time>
      </trkpt>
      <trkpt lat="46.11742" lon="5.89387">
        <ele>459.1</ele>
        <time>2022-09-26T14:43:26Z</time>
      </trkpt>
      <trkpt lat="46.11743" lon="5.89389">
        <ele>459.1</ele>
        <time>2022-09-26T14:43:27Z</time>
      </trkpt>
      <trkpt lat="46.11745" lon="5.8939">
        <ele>459.2</ele>
        <time>2022-09-26T14:43:28Z</time>
      </trkpt>
      <trkpt lat="46.11748" lon="5.89394">
        <ele>459.4</ele>
        <time>2022-09-26T14:43:29Z</time>
      </trkpt>
      <trkpt lat="46.11749" lon="5.89396">
        <ele>459.4</ele>
        <time>2022-09-26T14:43:30Z</time>
      </trkpt>
      <trkpt lat="46.11752" lon="5.894">
        <ele>459.6</ele>
        <time>2022-09-26T14:43:31Z</time>
      </trkpt>
      <trkpt lat="46.11752" lon="5.89401">
        <ele>459.6</ele>
        <time>2022-09-26T14:43:32Z</time>
      </trkpt>
      <trkpt lat="46.11753" lon="5.89407">
        <ele>459.7</ele>
        <time>2022-09-26T14:43:33Z</time>
      </trkpt>
      <trkpt lat="46.11754" lon="5.89409">
        <ele>459.8</ele>
        <time>2022-09-26T14:43:34Z</time>
      </trkpt>
      <trkpt lat="46.11756" lon="5.89414">
        <ele>459.9</ele>
        <time>2022-09-26T14:43:35Z</time>
      </trkpt>
      <trkpt lat="46.11757" lon="5.89415">
        <ele>460</ele>
        <time>2022-09-26T14:43:36Z</time>
      </trkpt>
      <trkpt lat="46.11758" lon="5.8942">
        <ele>460.1</ele>
        <time>2022-09-26T14:43:37Z</time>
      </trkpt>
      <trkpt lat="46.11758" lon="5.89421">
        <ele>460.1</ele>
        <time>2022-09-26T14:43:38Z</time>
      </trkpt>
      <trkpt lat="46.1176" lon="5.89426">
        <ele>460.2</ele>
        <time>2022-09-26T14:43:39Z</time>
      </trkpt>
      <trkpt lat="46.11761" lon="5.89428">
        <ele>460.3</ele>
        <time>2022-09-26T14:43:40Z</time>
      </trkpt>
      <trkpt lat="46.11762" lon="5.89433">
        <ele>460.4</ele>
        <time>2022-09-26T14:43:41Z</time>
      </trkpt>
      <trkpt lat="46.11762" lon="5.89435">
        <ele>460.5</ele>
        <time>2022-09-26T14:43:42Z</time>
      </trkpt>
      <trkpt lat="46.11764" lon="5.8944">
        <ele>460.6</ele>
        <time>2022-09-26T14:43:43Z</time>
      </trkpt>
      <trkpt lat="46.11764" lon="5.89442">
        <ele>460.6</ele>
        <time>2022-09-26T14:43:44Z</time>
      </trkpt>
      <trkpt lat="46.11766" lon="5.89447">
        <ele>460.8</ele>
        <time>2022-09-26T14:43:45Z</time>
      </trkpt>
      <trkpt lat="46.11766" lon="5.89449">
        <ele>460.8</ele>
        <time>2022-09-26T14:43:46Z</time>
      </trkpt>
      <trkpt lat="46.11766" lon="5.89453">
        <ele>460.9</ele>
        <time>2022-09-26T14:43:47Z</time>
      </trkpt>
      <trkpt lat="46.11767" lon="5.89458">
        <ele>461</ele>
        <time>2022-09-26T14:43:48Z</time>
      </trkpt>
      <trkpt lat="46.11767" lon="5.8946">
        <ele>461.1</ele>
        <time>2022-09-26T14:43:49Z</time>
      </trkpt>
      <trkpt lat="46.11768" lon="5.89464">
        <ele>461.2</ele>
        <time>2022-09-26T14:43:50Z</time>
      </trkpt>
      <trkpt lat="46.11769" lon="5.89468">
        <ele>461.3</ele>
        <time>2022-09-26T14:43:51Z</time>
      </trkpt>
      <trkpt lat="46.11769" lon="5.89472">
        <ele>461.4</ele>
        <time>2022-09-26T14:43:52Z</time>
      </trkpt>
      <trkpt lat="46.11769" lon="5.89477">
        <ele>461.5</ele>
        <time>2022-09-26T14:43:53Z</time>
      </trkpt>
      <trkpt lat="46.11768" lon="5.89481">
        <ele>461.6</ele>
        <time>2022-09-26T14:43:54Z</time>
      </trkpt>
      <trkpt lat="46.11768" lon="5.89485">
        <ele>461.8</ele>
        <time>2022-09-26T14:43:55Z</time>
      </trkpt>
      <trkpt lat="46.11767" lon="5.8949">
        <ele>461.9</ele>
        <time>2022-09-26T14:43:56Z</time>
      </trkpt>
      <trkpt lat="46.11767" lon="5.89494">
        <ele>462</ele>
        <time>2022-09-26T14:43:57Z</time>
      </trkpt>
      <trkpt lat="46.11767" lon="5.89498">
        <ele>462.1</ele>
        <time>2022-09-26T14:43:58Z</time>
      </trkpt>
      <trkpt lat="46.11767" lon="5.89503">
        <ele>462.2</ele>
        <time>2022-09-26T14:43:59Z</time>
      </trkpt>
      <trkpt lat="46.11766" lon="5.89508">
        <ele>462.4</ele>
        <time>2022-09-26T14:44:00Z</time>
      </trkpt>
      <trkpt lat="46.11766" lon="5.8951">
        <ele>462.4</ele>
        <time>2022-09-26T14:44:01Z</time>
      </trkpt>
      <trkpt lat="46.11765" lon="5.89515">
        <ele>462.6</ele>
        <time>2022-09-26T14:44:02Z</time>
      </trkpt>
      <trkpt lat="46.11765" lon="5.89521">
        <ele>462.7</ele>
        <time>2022-09-26T14:44:03Z</time>
      </trkpt>
      <trkpt lat="46.11764" lon="5.89523">
        <ele>462.8</ele>
        <time>2022-09-26T14:44:04Z</time>
      </trkpt>
      <trkpt lat="46.11764" lon="5.89529">
        <ele>462.9</ele>
        <time>2022-09-26T14:44:05Z</time>
      </trkpt>
      <trkpt lat="46.11763" lon="5.89531">
        <ele>463</ele>
        <time>2022-09-26T14:44:06Z</time>
      </trkpt>
      <trkpt lat="46.11763" lon="5.89535">
        <ele>463.1</ele>
        <time>2022-09-26T14:44:07Z</time>
      </trkpt>
      <trkpt lat="46.11763" lon="5.89539">
        <ele>463.2</ele>
        <time>2022-09-26T14:44:08Z</time>
      </trkpt>
      <trkpt lat="46.11762" lon="5.89543">
        <ele>463.4</ele>
        <time>2022-09-26T14:44:09Z</time>
      </trkpt>
      <trkpt lat="46.11761" lon="5.89547">
        <ele>463.5</ele>
        <time>2022-09-26T14:44:10Z</time>
      </trkpt>
      <trkpt lat="46.11761" lon="5.89552">
        <ele>463.6</ele>
        <time>2022-09-26T14:44:11Z</time>
      </trkpt>
      <trkpt lat="46.1176" lon="5.89556">
        <ele>463.7</ele>
        <time>2022-09-26T14:44:12Z</time>
      </trkpt>
      <trkpt lat="46.11759" lon="5.89561">
        <ele>463.9</ele>
        <time>2022-09-26T14:44:13Z</time>
      </trkpt>
      <trkpt lat="46.11759" lon="5.89563">
        <ele>463.9</ele>
        <time>2022-09-26T14:44:14Z</time>
      </trkpt>
      <trkpt lat="46.11759" lon="5.89568">
        <ele>464.1</ele>
        <time>2022-09-26T14:44:15Z</time>
      </trkpt>
      <trkpt lat="46.11758" lon="5.8957">
        <ele>464.2</ele>
        <time>2022-09-26T14:44:16Z</time>
      </trkpt>
      <trkpt lat="46.11758" lon="5.89576">
        <ele>464.4</ele>
        <time>2022-09-26T14:44:17Z</time>
      </trkpt>
      <trkpt lat="46.11758" lon="5.89578">
        <ele>464.4</ele>
        <time>2022-09-26T14:44:18Z</time>
      </trkpt>
      <trkpt lat="46.11757" lon="5.89582">
        <ele>464.6</ele>
        <time>2022-09-26T14:44:19Z</time>
      </trkpt>
      <trkpt lat="46.11756" lon="5.89587">
        <ele>464.8</ele>
        <time>2022-09-26T14:44:20Z</time>
      </trkpt>
      <trkpt lat="46.11756" lon="5.89589">
        <ele>464.9</ele>
        <time>2022-09-26T14:44:21Z</time>
      </trkpt>
      <trkpt lat="46.11756" lon="5.89594">
        <ele>465.1</ele>
        <time>2022-09-26T14:44:22Z</time>
      </trkpt>
      <trkpt lat="46.11755" lon="5.89596">
        <ele>465.2</ele>
        <time>2022-09-26T14:44:23Z</time>
      </trkpt>
      <trkpt lat="46.11754" lon="5.89601">
        <ele>465.3</ele>
        <time>2022-09-26T14:44:24Z</time>
      </trkpt>
      <trkpt lat="46.11754" lon="5.89602">
        <ele>465.4</ele>
        <time>2022-09-26T14:44:25Z</time>
      </trkpt>
      <trkpt lat="46.11754" lon="5.89608">
        <ele>465.6</ele>
        <time>2022-09-26T14:44:26Z</time>
      </trkpt>
      <trkpt lat="46.11754" lon="5.89609">
        <ele>465.6</ele>
        <time>2022-09-26T14:44:27Z</time>
      </trkpt>
      <trkpt lat="46.11753" lon="5.89614">
        <ele>465.7</ele>
        <time>2022-09-26T14:44:28Z</time>
      </trkpt>
      <trkpt lat="46.11752" lon="5.89618">
        <ele>465.9</ele>
        <time>2022-09-26T14:44:29Z</time>
      </trkpt>
      <trkpt lat="46.11751" lon="5.89624">
        <ele>466</ele>
        <time>2022-09-26T14:44:30Z</time>
      </trkpt>
      <trkpt lat="46.11751" lon="5.89626">
        <ele>466.1</ele>
        <time>2022-09-26T14:44:31Z</time>
      </trkpt>
      <trkpt lat="46.1175" lon="5.89631">
        <ele>466.3</ele>
        <time>2022-09-26T14:44:32Z</time>
      </trkpt>
      <trkpt lat="46.1175" lon="5.89633">
        <ele>466.3</ele>
        <time>2022-09-26T14:44:33Z</time>
      </trkpt>
      <trkpt lat="46.11749" lon="5.89638">
        <ele>466.5</ele>
        <time>2022-09-26T14:44:34Z</time>
      </trkpt>
      <trkpt lat="46.11748" lon="5.89644">
        <ele>466.6</ele>
        <time>2022-09-26T14:44:35Z</time>
      </trkpt>
      <trkpt lat="46.11747" lon="5.89646">
        <ele>466.7</ele>
        <time>2022-09-26T14:44:36Z</time>
      </trkpt>
      <trkpt lat="46.11747" lon="5.8965">
        <ele>466.8</ele>
        <time>2022-09-26T14:44:37Z</time>
      </trkpt>
      <trkpt lat="46.11745" lon="5.89655">
        <ele>467</ele>
        <time>2022-09-26T14:44:38Z</time>
      </trkpt>
      <trkpt lat="46.11745" lon="5.89657">
        <ele>467</ele>
        <time>2022-09-26T14:44:39Z</time>
      </trkpt>
      <trkpt lat="46.11743" lon="5.89662">
        <ele>467.2</ele>
        <time>2022-09-26T14:44:40Z</time>
      </trkpt>
      <trkpt lat="46.11743" lon="5.89664">
        <ele>467.3</ele>
        <time>2022-09-26T14:44:41Z</time>
      </trkpt>
      <trkpt lat="46.11743" lon="5.8967">
        <ele>467.4</ele>
        <time>2022-09-26T14:44:42Z</time>
      </trkpt>
      <trkpt lat="46.11742" lon="5.89672">
        <ele>467.5</ele>
        <time>2022-09-26T14:44:43Z</time>
      </trkpt>
      <trkpt lat="46.11741" lon="5.89677">
        <ele>467.7</ele>
        <time>2022-09-26T14:44:44Z</time>
      </trkpt>
      <trkpt lat="46.1174" lon="5.89679">
        <ele>467.8</ele>
        <time>2022-09-26T14:44:45Z</time>
      </trkpt>
      <trkpt lat="46.11741" lon="5.89683">
        <ele>467.9</ele>
        <time>2022-09-26T14:44:46Z</time>
      </trkpt>
      <trkpt lat="46.1174" lon="5.89688">
        <ele>468</ele>
        <time>2022-09-26T14:44:47Z</time>
      </trkpt>
      <trkpt lat="46.1174" lon="5.89694">
        <ele>468.2</ele>
        <time>2022-09-26T14:44:48Z</time>
      </trkpt>
      <trkpt lat="46.1174" lon="5.89696">
        <ele>468.3</ele>
        <time>2022-09-26T14:44:49Z</time>
      </trkpt>
      <trkpt lat="46.11741" lon="5.89701">
        <ele>468.5</ele>
        <time>2022-09-26T14:44:50Z</time>
      </trkpt>
      <trkpt lat="46.11742" lon="5.89703">
        <ele>468.6</ele>
        <time>2022-09-26T14:44:51Z</time>
      </trkpt>
      <trkpt lat="46.11742" lon="5.89707">
        <ele>468.7</ele>
        <time>2022-09-26T14:44:52Z</time>
      </trkpt>
      <trkpt lat="46.11742" lon="5.89711">
        <ele>468.8</ele>
        <time>2022-09-26T14:44:53Z</time>
      </trkpt>
      <trkpt lat="46.11742" lon="5.89716">
        <ele>468.9</ele>
        <time>2022-09-26T14:44:54Z</time>
      </trkpt>
      <trkpt lat="46.11743" lon="5.89722">
        <ele>469.1</ele>
        <time>2022-09-26T14:44:55Z</time>
      </trkpt>
      <trkpt lat="46.11744" lon="5.89724">
        <ele>469.2</ele>
        <time>2022-09-26T14:44:56Z</time>
      </trkpt>
      <trkpt lat="46.11744" lon="5.89729">
        <ele>469.3</ele>
        <time>2022-09-26T14:44:57Z</time>
      </trkpt>
      <trkpt lat="46.11745" lon="5.89734">
        <ele>469.4</ele>
        <time>2022-09-26T14:44:58Z</time>
      </trkpt>
      <trkpt lat="46.11746" lon="5.8974">
        <ele>469.5</ele>
        <time>2022-09-26T14:44:59Z</time>
      </trkpt>
      <trkpt lat="46.11746" lon="5.89745">
        <ele>469.7</ele>
        <time>2022-09-26T14:45:00Z</time>
      </trkpt>
      <trkpt lat="46.11746" lon="5.89749">
        <ele>469.8</ele>
        <time>2022-09-26T14:45:01Z</time>
      </trkpt>
      <trkpt lat="46.11745" lon="5.89753">
        <ele>469.9</ele>
        <time>2022-09-26T14:45:02Z</time>
      </trkpt>
      <trkpt lat="46.11744" lon="5.89758">
        <ele>470</ele>
        <time>2022-09-26T14:45:03Z</time>
      </trkpt>
      <trkpt lat="46.11744" lon="5.89763">
        <ele>470.2</ele>
        <time>2022-09-26T14:45:04Z</time>
      </trkpt>
      <trkpt lat="46.11744" lon="5.89767">
        <ele>470.3</ele>
        <time>2022-09-26T14:45:05Z</time>
      </trkpt>
      <trkpt lat="46.11743" lon="5.89771">
        <ele>470.4</ele>
        <time>2022-09-26T14:45:06Z</time>
      </trkpt>
      <trkpt lat="46.11742" lon="5.89775">
        <ele>470.6</ele>
        <time>2022-09-26T14:45:07Z</time>
      </trkpt>
      <trkpt lat="46.11742" lon="5.89779">
        <ele>470.7</ele>
        <time>2022-09-26T14:45:08Z</time>
      </trkpt>
      <trkpt lat="46.1174" lon="5.89784">
        <ele>470.9</ele>
        <time>2022-09-26T14:45:09Z</time>
      </trkpt>
      <trkpt lat="46.1174" lon="5.89786">
        <ele>470.9</ele>
        <time>2022-09-26T14:45:10Z</time>
      </trkpt>
      <trkpt lat="46.11738" lon="5.89791">
        <ele>471.1</ele>
        <time>2022-09-26T14:45:11Z</time>
      </trkpt>
      <trkpt lat="46.11738" lon="5.89793">
        <ele>471.2</ele>
        <time>2022-09-26T14:45:12Z</time>
      </trkpt>
      <trkpt lat="46.11736" lon="5.89797">
        <ele>471.3</ele>
        <time>2022-09-26T14:45:13Z</time>
      </trkpt>
      <trkpt lat="46.11735" lon="5.89798">
        <ele>471.4</ele>
        <time>2022-09-26T14:45:14Z</time>
      </trkpt>
      <trkpt lat="46.11734" lon="5.89802">
        <ele>471.5</ele>
        <time>2022-09-26T14:45:15Z</time>
      </trkpt>
      <trkpt lat="46.11733" lon="5.89806">
        <ele>471.7</ele>
        <time>2022-09-26T14:45:16Z</time>
      </trkpt>
      <trkpt lat="46.11733" lon="5.89808">
        <ele>471.7</ele>
        <time>2022-09-26T14:45:17Z</time>
      </trkpt>
      <trkpt lat="46.1173" lon="5.89812">
        <ele>471.9</ele>
        <time>2022-09-26T14:45:18Z</time>
      </trkpt>
      <trkpt lat="46.1173" lon="5.89814">
        <ele>471.9</ele>
        <time>2022-09-26T14:45:19Z</time>
      </trkpt>
      <trkpt lat="46.11728" lon="5.89818">
        <ele>472.1</ele>
        <time>2022-09-26T14:45:20Z</time>
      </trkpt>
      <trkpt lat="46.11728" lon="5.89819">
        <ele>472.1</ele>
        <time>2022-09-26T14:45:21Z</time>
      </trkpt>
      <trkpt lat="46.11728" lon="5.89822">
        <ele>472.2</ele>
        <time>2022-09-26T14:45:22Z</time>
      </trkpt>
      <trkpt lat="46.11727" lon="5.89824">
        <ele>472.3</ele>
        <time>2022-09-26T14:45:23Z</time>
      </trkpt>
      <trkpt lat="46.11725" lon="5.89827">
        <ele>472.4</ele>
        <time>2022-09-26T14:45:24Z</time>
      </trkpt>
      <trkpt lat="46.11724" lon="5.89832">
        <ele>472.6</ele>
        <time>2022-09-26T14:45:25Z</time>
      </trkpt>
      <trkpt lat="46.11723" lon="5.89833">
        <ele>472.7</ele>
        <time>2022-09-26T14:45:26Z</time>
      </trkpt>
      <trkpt lat="46.11723" lon="5.89838">
        <ele>472.8</ele>
        <time>2022-09-26T14:45:27Z</time>
      </trkpt>
      <trkpt lat="46.11722" lon="5.89839">
        <ele>472.9</ele>
        <time>2022-09-26T14:45:28Z</time>
      </trkpt>
      <trkpt lat="46.11721" lon="5.89843">
        <ele>473</ele>
        <time>2022-09-26T14:45:29Z</time>
      </trkpt>
      <trkpt lat="46.1172" lon="5.89847">
        <ele>473.2</ele>
        <time>2022-09-26T14:45:30Z</time>
      </trkpt>
      <trkpt lat="46.11719" lon="5.89849">
        <ele>473.3</ele>
        <time>2022-09-26T14:45:31Z</time>
      </trkpt>
      <trkpt lat="46.11718" lon="5.89853">
        <ele>473.4</ele>
        <time>2022-09-26T14:45:32Z</time>
      </trkpt>
      <trkpt lat="46.11717" lon="5.89854">
        <ele>473.5</ele>
        <time>2022-09-26T14:45:33Z</time>
      </trkpt>
      <trkpt lat="46.11716" lon="5.89859">
        <ele>473.6</ele>
        <time>2022-09-26T14:45:34Z</time>
      </trkpt>
      <trkpt lat="46.11716" lon="5.89861">
        <ele>473.7</ele>
        <time>2022-09-26T14:45:35Z</time>
      </trkpt>
      <trkpt lat="46.11714" lon="5.89866">
        <ele>473.9</ele>
        <time>2022-09-26T14:45:36Z</time>
      </trkpt>
      <trkpt lat="46.11714" lon="5.89868">
        <ele>473.9</ele>
        <time>2022-09-26T14:45:37Z</time>
      </trkpt>
      <trkpt lat="46.11713" lon="5.89871">
        <ele>474.1</ele>
        <time>2022-09-26T14:45:38Z</time>
      </trkpt>
      <trkpt lat="46.11712" lon="5.89875">
        <ele>474.2</ele>
        <time>2022-09-26T14:45:39Z</time>
      </trkpt>
      <trkpt lat="46.11712" lon="5.89877">
        <ele>474.3</ele>
        <time>2022-09-26T14:45:40Z</time>
      </trkpt>
      <trkpt lat="46.11711" lon="5.89882">
        <ele>474.4</ele>
        <time>2022-09-26T14:45:41Z</time>
      </trkpt>
      <trkpt lat="46.11711" lon="5.89883">
        <ele>474.5</ele>
        <time>2022-09-26T14:45:42Z</time>
      </trkpt>
      <trkpt lat="46.11711" lon="5.89887">
        <ele>474.6</ele>
        <time>2022-09-26T14:45:43Z</time>
      </trkpt>
      <trkpt lat="46.11711" lon="5.89892">
        <ele>474.8</ele>
        <time>2022-09-26T14:45:44Z</time>
      </trkpt>
      <trkpt lat="46.11711" lon="5.89893">
        <ele>474.8</ele>
        <time>2022-09-26T14:45:45Z</time>
      </trkpt>
      <trkpt lat="46.11709" lon="5.89897">
        <ele>475</ele>
        <time>2022-09-26T14:45:46Z</time>
      </trkpt>
      <trkpt lat="46.11709" lon="5.89899">
        <ele>475.1</ele>
        <time>2022-09-26T14:45:47Z</time>
      </trkpt>
      <trkpt lat="46.11708" lon="5.89905">
        <ele>475.3</ele>
        <time>2022-09-26T14:45:48Z</time>
      </trkpt>
      <trkpt lat="46.11708" lon="5.89906">
        <ele>475.3</ele>
        <time>2022-09-26T14:45:49Z</time>
      </trkpt>
      <trkpt lat="46.11707" lon="5.89911">
        <ele>475.5</ele>
        <time>2022-09-26T14:45:50Z</time>
      </trkpt>
      <trkpt lat="46.11706" lon="5.89913">
        <ele>475.5</ele>
        <time>2022-09-26T14:45:51Z</time>
      </trkpt>
      <trkpt lat="46.11706" lon="5.89917">
        <ele>475.7</ele>
        <time>2022-09-26T14:45:52Z</time>
      </trkpt>
      <trkpt lat="46.11705" lon="5.89919">
        <ele>475.7</ele>
        <time>2022-09-26T14:45:53Z</time>
      </trkpt>
      <trkpt lat="46.11705" lon="5.89922">
        <ele>475.8</ele>
        <time>2022-09-26T14:45:54Z</time>
      </trkpt>
      <trkpt lat="46.11705" lon="5.89924">
        <ele>475.9</ele>
        <time>2022-09-26T14:45:55Z</time>
      </trkpt>
      <trkpt lat="46.11705" lon="5.89929">
        <ele>476.1</ele>
        <time>2022-09-26T14:45:56Z</time>
      </trkpt>
      <trkpt lat="46.11705" lon="5.89931">
        <ele>476.1</ele>
        <time>2022-09-26T14:45:57Z</time>
      </trkpt>
      <trkpt lat="46.11704" lon="5.89935">
        <ele>476.3</ele>
        <time>2022-09-26T14:45:58Z</time>
      </trkpt>
      <trkpt lat="46.11704" lon="5.89937">
        <ele>476.3</ele>
        <time>2022-09-26T14:45:59Z</time>
      </trkpt>
      <trkpt lat="46.11705" lon="5.89942">
        <ele>476.5</ele>
        <time>2022-09-26T14:46:00Z</time>
      </trkpt>
      <trkpt lat="46.11705" lon="5.89944">
        <ele>476.5</ele>
        <time>2022-09-26T14:46:01Z</time>
      </trkpt>
      <trkpt lat="46.11706" lon="5.89948">
        <ele>476.7</ele>
        <time>2022-09-26T14:46:02Z</time>
      </trkpt>
      <trkpt lat="46.11706" lon="5.89949">
        <ele>476.7</ele>
        <time>2022-09-26T14:46:03Z</time>
      </trkpt>
      <trkpt lat="46.11707" lon="5.89954">
        <ele>476.8</ele>
        <time>2022-09-26T14:46:04Z</time>
      </trkpt>
      <trkpt lat="46.11707" lon="5.89956">
        <ele>476.9</ele>
        <time>2022-09-26T14:46:05Z</time>
      </trkpt>
      <trkpt lat="46.11708" lon="5.89961">
        <ele>477</ele>
        <time>2022-09-26T14:46:06Z</time>
      </trkpt>
      <trkpt lat="46.11708" lon="5.89962">
        <ele>477.1</ele>
        <time>2022-09-26T14:46:07Z</time>
      </trkpt>
      <trkpt lat="46.11708" lon="5.89967">
        <ele>477.2</ele>
        <time>2022-09-26T14:46:08Z</time>
      </trkpt>
      <trkpt lat="46.11708" lon="5.89968">
        <ele>477.2</ele>
        <time>2022-09-26T14:46:09Z</time>
      </trkpt>
      <trkpt lat="46.11708" lon="5.89972">
        <ele>477.3</ele>
        <time>2022-09-26T14:46:10Z</time>
      </trkpt>
      <trkpt lat="46.11708" lon="5.89973">
        <ele>477.4</ele>
        <time>2022-09-26T14:46:11Z</time>
      </trkpt>
      <trkpt lat="46.11709" lon="5.89978">
        <ele>477.5</ele>
        <time>2022-09-26T14:46:12Z</time>
      </trkpt>
      <trkpt lat="46.1171" lon="5.8998">
        <ele>477.6</ele>
        <time>2022-09-26T14:46:13Z</time>
      </trkpt>
      <trkpt lat="46.11709" lon="5.89984">
        <ele>477.7</ele>
        <time>2022-09-26T14:46:14Z</time>
      </trkpt>
      <trkpt lat="46.11709" lon="5.89989">
        <ele>477.8</ele>
        <time>2022-09-26T14:46:15Z</time>
      </trkpt>
      <trkpt lat="46.11709" lon="5.89991">
        <ele>477.9</ele>
        <time>2022-09-26T14:46:16Z</time>
      </trkpt>
      <trkpt lat="46.11708" lon="5.89995">
        <ele>478</ele>
        <time>2022-09-26T14:46:17Z</time>
      </trkpt>
      <trkpt lat="46.11709" lon="5.89999">
        <ele>478.1</ele>
        <time>2022-09-26T14:46:18Z</time>
      </trkpt>
      <trkpt lat="46.11708" lon="5.90001">
        <ele>478.1</ele>
        <time>2022-09-26T14:46:19Z</time>
      </trkpt>
      <trkpt lat="46.11709" lon="5.90006">
        <ele>478.3</ele>
        <time>2022-09-26T14:46:20Z</time>
      </trkpt>
      <trkpt lat="46.1171" lon="5.90007">
        <ele>478.3</ele>
        <time>2022-09-26T14:46:21Z</time>
      </trkpt>
      <trkpt lat="46.11709" lon="5.90011">
        <ele>478.4</ele>
        <time>2022-09-26T14:46:22Z</time>
      </trkpt>
      <trkpt lat="46.1171" lon="5.90015">
        <ele>478.5</ele>
        <time>2022-09-26T14:46:23Z</time>
      </trkpt>
      <trkpt lat="46.11709" lon="5.90017">
        <ele>478.5</ele>
        <time>2022-09-26T14:46:24Z</time>
      </trkpt>
      <trkpt lat="46.1171" lon="5.90021">
        <ele>478.6</ele>
        <time>2022-09-26T14:46:25Z</time>
      </trkpt>
      <trkpt lat="46.11711" lon="5.90023">
        <ele>478.6</ele>
        <time>2022-09-26T14:46:26Z</time>
      </trkpt>
      <trkpt lat="46.11711" lon="5.90026">
        <ele>478.7</ele>
        <time>2022-09-26T14:46:27Z</time>
      </trkpt>
      <trkpt lat="46.11711" lon="5.90028">
        <ele>478.7</ele>
        <time>2022-09-26T14:46:28Z</time>
      </trkpt>
      <trkpt lat="46.11712" lon="5.90031">
        <ele>478.8</ele>
        <time>2022-09-26T14:46:29Z</time>
      </trkpt>
      <trkpt lat="46.11713" lon="5.90036">
        <ele>478.8</ele>
        <time>2022-09-26T14:46:30Z</time>
      </trkpt>
      <trkpt lat="46.11713" lon="5.90037">
        <ele>478.8</ele>
        <time>2022-09-26T14:46:31Z</time>
      </trkpt>
      <trkpt lat="46.11715" lon="5.90041">
        <ele>478.9</ele>
        <time>2022-09-26T14:46:32Z</time>
      </trkpt>
      <trkpt lat="46.11716" lon="5.90043">
        <ele>478.9</ele>
        <time>2022-09-26T14:46:33Z</time>
      </trkpt>
      <trkpt lat="46.11717" lon="5.90048">
        <ele>478.9</ele>
        <time>2022-09-26T14:46:34Z</time>
      </trkpt>
      <trkpt lat="46.11717" lon="5.90049">
        <ele>479</ele>
        <time>2022-09-26T14:46:35Z</time>
      </trkpt>
      <trkpt lat="46.1172" lon="5.90053">
        <ele>479</ele>
        <time>2022-09-26T14:46:36Z</time>
      </trkpt>
      <trkpt lat="46.11721" lon="5.90055">
        <ele>479</ele>
        <time>2022-09-26T14:46:37Z</time>
      </trkpt>
      <trkpt lat="46.11722" lon="5.90059">
        <ele>479</ele>
        <time>2022-09-26T14:46:38Z</time>
      </trkpt>
      <trkpt lat="46.11724" lon="5.90063">
        <ele>479</ele>
        <time>2022-09-26T14:46:39Z</time>
      </trkpt>
      <trkpt lat="46.11727" lon="5.90068">
        <ele>479.1</ele>
        <time>2022-09-26T14:46:40Z</time>
      </trkpt>
      <trkpt lat="46.11728" lon="5.90073">
        <ele>479.1</ele>
        <time>2022-09-26T14:46:41Z</time>
      </trkpt>
      <trkpt lat="46.11729" lon="5.9008">
        <ele>479.1</ele>
        <time>2022-09-26T14:46:42Z</time>
      </trkpt>
      <trkpt lat="46.11729" lon="5.90087">
        <ele>479.1</ele>
        <time>2022-09-26T14:46:43Z</time>
      </trkpt>
      <trkpt lat="46.11729" lon="5.90093">
        <ele>479.1</ele>
        <time>2022-09-26T14:46:44Z</time>
      </trkpt>
      <trkpt lat="46.11728" lon="5.90099">
        <ele>479.1</ele>
        <time>2022-09-26T14:46:45Z</time>
      </trkpt>
      <trkpt lat="46.11727" lon="5.90105">
        <ele>479.1</ele>
        <time>2022-09-26T14:46:46Z</time>
      </trkpt>
      <trkpt lat="46.11726" lon="5.90109">
        <ele>479.1</ele>
        <time>2022-09-26T14:46:47Z</time>
      </trkpt>
      <trkpt lat="46.11723" lon="5.90113">
        <ele>479.1</ele>
        <time>2022-09-26T14:46:48Z</time>
      </trkpt>
      <trkpt lat="46.1172" lon="5.90117">
        <ele>479</ele>
        <time>2022-09-26T14:46:49Z</time>
      </trkpt>
      <trkpt lat="46.11716" lon="5.90122">
        <ele>479</ele>
        <time>2022-09-26T14:46:50Z</time>
      </trkpt>
      <trkpt lat="46.11714" lon="5.90126">
        <ele>479</ele>
        <time>2022-09-26T14:46:51Z</time>
      </trkpt>
      <trkpt lat="46.1171" lon="5.9013">
        <ele>479</ele>
        <time>2022-09-26T14:46:52Z</time>
      </trkpt>
      <trkpt lat="46.11707" lon="5.90133">
        <ele>479</ele>
        <time>2022-09-26T14:46:53Z</time>
      </trkpt>
      <trkpt lat="46.11704" lon="5.90137">
        <ele>478.9</ele>
        <time>2022-09-26T14:46:54Z</time>
      </trkpt>
      <trkpt lat="46.11701" lon="5.90141">
        <ele>478.9</ele>
        <time>2022-09-26T14:46:55Z</time>
      </trkpt>
      <trkpt lat="46.11697" lon="5.90145">
        <ele>478.8</ele>
        <time>2022-09-26T14:46:56Z</time>
      </trkpt>
      <trkpt lat="46.11692" lon="5.9015">
        <ele>478.8</ele>
        <time>2022-09-26T14:46:57Z</time>
      </trkpt>
      <trkpt lat="46.11689" lon="5.90153">
        <ele>478.8</ele>
        <time>2022-09-26T14:46:58Z</time>
      </trkpt>
      <trkpt lat="46.11685" lon="5.90155">
        <ele>478.7</ele>
        <time>2022-09-26T14:46:59Z</time>
      </trkpt>
      <trkpt lat="46.11682" lon="5.9016">
        <ele>478.7</ele>
        <time>2022-09-26T14:47:00Z</time>
      </trkpt>
      <trkpt lat="46.11679" lon="5.90163">
        <ele>478.7</ele>
        <time>2022-09-26T14:47:01Z</time>
      </trkpt>
      <trkpt lat="46.11675" lon="5.90165">
        <ele>478.7</ele>
        <time>2022-09-26T14:47:02Z</time>
      </trkpt>
      <trkpt lat="46.11672" lon="5.90168">
        <ele>478.6</ele>
        <time>2022-09-26T14:47:03Z</time>
      </trkpt>
      <trkpt lat="46.11668" lon="5.9017">
        <ele>478.6</ele>
        <time>2022-09-26T14:47:04Z</time>
      </trkpt>
      <trkpt lat="46.11665" lon="5.90172">
        <ele>478.6</ele>
        <time>2022-09-26T14:47:05Z</time>
      </trkpt>
      <trkpt lat="46.11661" lon="5.90175">
        <ele>478.6</ele>
        <time>2022-09-26T14:47:06Z</time>
      </trkpt>
      <trkpt lat="46.11657" lon="5.90178">
        <ele>478.6</ele>
        <time>2022-09-26T14:47:07Z</time>
      </trkpt>
      <trkpt lat="46.11654" lon="5.9018">
        <ele>478.6</ele>
        <time>2022-09-26T14:47:08Z</time>
      </trkpt>
      <trkpt lat="46.1165" lon="5.90183">
        <ele>478.6</ele>
        <time>2022-09-26T14:47:09Z</time>
      </trkpt>
      <trkpt lat="46.11646" lon="5.90185">
        <ele>478.6</ele>
        <time>2022-09-26T14:47:10Z</time>
      </trkpt>
      <trkpt lat="46.11642" lon="5.90189">
        <ele>478.5</ele>
        <time>2022-09-26T14:47:11Z</time>
      </trkpt>
      <trkpt lat="46.11638" lon="5.90192">
        <ele>478.5</ele>
        <time>2022-09-26T14:47:12Z</time>
      </trkpt>
      <trkpt lat="46.11634" lon="5.90194">
        <ele>478.5</ele>
        <time>2022-09-26T14:47:13Z</time>
      </trkpt>
      <trkpt lat="46.1163" lon="5.90197">
        <ele>478.5</ele>
        <time>2022-09-26T14:47:14Z</time>
      </trkpt>
      <trkpt lat="46.11627" lon="5.90201">
        <ele>478.4</ele>
        <time>2022-09-26T14:47:15Z</time>
      </trkpt>
      <trkpt lat="46.11622" lon="5.90204">
        <ele>478.4</ele>
        <time>2022-09-26T14:47:16Z</time>
      </trkpt>
      <trkpt lat="46.11618" lon="5.90208">
        <ele>478.3</ele>
        <time>2022-09-26T14:47:17Z</time>
      </trkpt>
      <trkpt lat="46.11614" lon="5.90211">
        <ele>478.3</ele>
        <time>2022-09-26T14:47:18Z</time>
      </trkpt>
      <trkpt lat="46.1161" lon="5.90215">
        <ele>478.3</ele>
        <time>2022-09-26T14:47:19Z</time>
      </trkpt>
      <trkpt lat="46.11606" lon="5.90219">
        <ele>478.2</ele>
        <time>2022-09-26T14:47:20Z</time>
      </trkpt>
      <trkpt lat="46.11602" lon="5.90221">
        <ele>478.2</ele>
        <time>2022-09-26T14:47:21Z</time>
      </trkpt>
      <trkpt lat="46.11598" lon="5.90224">
        <ele>478.2</ele>
        <time>2022-09-26T14:47:22Z</time>
      </trkpt>
      <trkpt lat="46.11594" lon="5.90227">
        <ele>478.3</ele>
        <time>2022-09-26T14:47:23Z</time>
      </trkpt>
      <trkpt lat="46.1159" lon="5.9023">
        <ele>478.3</ele>
        <time>2022-09-26T14:47:24Z</time>
      </trkpt>
      <trkpt lat="46.11586" lon="5.90234">
        <ele>478.3</ele>
        <time>2022-09-26T14:47:25Z</time>
      </trkpt>
      <trkpt lat="46.11582" lon="5.90238">
        <ele>478.3</ele>
        <time>2022-09-26T14:47:26Z</time>
      </trkpt>
      <trkpt lat="46.11578" lon="5.90241">
        <ele>478.3</ele>
        <time>2022-09-26T14:47:27Z</time>
      </trkpt>
      <trkpt lat="46.11574" lon="5.90245">
        <ele>478.2</ele>
        <time>2022-09-26T14:47:28Z</time>
      </trkpt>
      <trkpt lat="46.11569" lon="5.90249">
        <ele>478.2</ele>
        <time>2022-09-26T14:47:29Z</time>
      </trkpt>
      <trkpt lat="46.11566" lon="5.9025">
        <ele>478.2</ele>
        <time>2022-09-26T14:47:30Z</time>
      </trkpt>
      <trkpt lat="46.11562" lon="5.90253">
        <ele>478.2</ele>
        <time>2022-09-26T14:47:31Z</time>
      </trkpt>
      <trkpt lat="46.11558" lon="5.90257">
        <ele>478.2</ele>
        <time>2022-09-26T14:47:32Z</time>
      </trkpt>
      <trkpt lat="46.11553" lon="5.90258">
        <ele>478.3</ele>
        <time>2022-09-26T14:47:33Z</time>
      </trkpt>
      <trkpt lat="46.1155" lon="5.90261">
        <ele>478.3</ele>
        <time>2022-09-26T14:47:34Z</time>
      </trkpt>
      <trkpt lat="46.11546" lon="5.90264">
        <ele>478.3</ele>
        <time>2022-09-26T14:47:35Z</time>
      </trkpt>
      <trkpt lat="46.11542" lon="5.90269">
        <ele>478.3</ele>
        <time>2022-09-26T14:47:36Z</time>
      </trkpt>
      <trkpt lat="46.11537" lon="5.90272">
        <ele>478.3</ele>
        <time>2022-09-26T14:47:37Z</time>
      </trkpt>
      <trkpt lat="46.11533" lon="5.90275">
        <ele>478.4</ele>
        <time>2022-09-26T14:47:38Z</time>
      </trkpt>
      <trkpt lat="46.11529" lon="5.90278">
        <ele>478.4</ele>
        <time>2022-09-26T14:47:39Z</time>
      </trkpt>
      <trkpt lat="46.11525" lon="5.90283">
        <ele>478.4</ele>
        <time>2022-09-26T14:47:40Z</time>
      </trkpt>
      <trkpt lat="46.11522" lon="5.90289">
        <ele>478.4</ele>
        <time>2022-09-26T14:47:41Z</time>
      </trkpt>
      <trkpt lat="46.11517" lon="5.90293">
        <ele>478.5</ele>
        <time>2022-09-26T14:47:42Z</time>
      </trkpt>
      <trkpt lat="46.11514" lon="5.90298">
        <ele>478.5</ele>
        <time>2022-09-26T14:47:43Z</time>
      </trkpt>
      <trkpt lat="46.11508" lon="5.90301">
        <ele>478.5</ele>
        <time>2022-09-26T14:47:44Z</time>
      </trkpt>
      <trkpt lat="46.11505" lon="5.90306">
        <ele>478.5</ele>
        <time>2022-09-26T14:47:45Z</time>
      </trkpt>
      <trkpt lat="46.11503" lon="5.90311">
        <ele>478.5</ele>
        <time>2022-09-26T14:47:46Z</time>
      </trkpt>
      <trkpt lat="46.11498" lon="5.90312">
        <ele>478.6</ele>
        <time>2022-09-26T14:47:47Z</time>
      </trkpt>
      <trkpt lat="46.11494" lon="5.90317">
        <ele>478.6</ele>
        <time>2022-09-26T14:47:48Z</time>
      </trkpt>
      <trkpt lat="46.1149" lon="5.9032">
        <ele>478.6</ele>
        <time>2022-09-26T14:47:49Z</time>
      </trkpt>
      <trkpt lat="46.11485" lon="5.90324">
        <ele>478.6</ele>
        <time>2022-09-26T14:47:50Z</time>
      </trkpt>
      <trkpt lat="46.11481" lon="5.90328">
        <ele>478.6</ele>
        <time>2022-09-26T14:47:51Z</time>
      </trkpt>
      <trkpt lat="46.11477" lon="5.9033">
        <ele>478.6</ele>
        <time>2022-09-26T14:47:52Z</time>
      </trkpt>
      <trkpt lat="46.11473" lon="5.90333">
        <ele>478.6</ele>
        <time>2022-09-26T14:47:53Z</time>
      </trkpt>
      <trkpt lat="46.11469" lon="5.90338">
        <ele>478.6</ele>
        <time>2022-09-26T14:47:54Z</time>
      </trkpt>
      <trkpt lat="46.11464" lon="5.90342">
        <ele>478.6</ele>
        <time>2022-09-26T14:47:55Z</time>
      </trkpt>
      <trkpt lat="46.11459" lon="5.90344">
        <ele>478.7</ele>
        <time>2022-09-26T14:47:56Z</time>
      </trkpt>
      <trkpt lat="46.11456" lon="5.90347">
        <ele>478.7</ele>
        <time>2022-09-26T14:47:57Z</time>
      </trkpt>
      <trkpt lat="46.11452" lon="5.90352">
        <ele>478.7</ele>
        <time>2022-09-26T14:47:58Z</time>
      </trkpt>
      <trkpt lat="46.11446" lon="5.90358">
        <ele>478.8</ele>
        <time>2022-09-26T14:47:59Z</time>
      </trkpt>
      <trkpt lat="46.11442" lon="5.90363">
        <ele>478.8</ele>
        <time>2022-09-26T14:48:00Z</time>
      </trkpt>
      <trkpt lat="46.11439" lon="5.90368">
        <ele>478.8</ele>
        <time>2022-09-26T14:48:01Z</time>
      </trkpt>
      <trkpt lat="46.11434" lon="5.9037">
        <ele>478.8</ele>
        <time>2022-09-26T14:48:02Z</time>
      </trkpt>
      <trkpt lat="46.1143" lon="5.90378">
        <ele>478.8</ele>
        <time>2022-09-26T14:48:03Z</time>
      </trkpt>
      <trkpt lat="46.11426" lon="5.90382">
        <ele>478.8</ele>
        <time>2022-09-26T14:48:04Z</time>
      </trkpt>
      <trkpt lat="46.11422" lon="5.90387">
        <ele>478.8</ele>
        <time>2022-09-26T14:48:05Z</time>
      </trkpt>
      <trkpt lat="46.11418" lon="5.90393">
        <ele>478.7</ele>
        <time>2022-09-26T14:48:06Z</time>
      </trkpt>
      <trkpt lat="46.11414" lon="5.90395">
        <ele>478.7</ele>
        <time>2022-09-26T14:48:07Z</time>
      </trkpt>
      <trkpt lat="46.1141" lon="5.90401">
        <ele>478.7</ele>
        <time>2022-09-26T14:48:08Z</time>
      </trkpt>
      <trkpt lat="46.11405" lon="5.90407">
        <ele>478.7</ele>
        <time>2022-09-26T14:48:09Z</time>
      </trkpt>
      <trkpt lat="46.114" lon="5.90414">
        <ele>478.7</ele>
        <time>2022-09-26T14:48:10Z</time>
      </trkpt>
      <trkpt lat="46.11397" lon="5.90421">
        <ele>478.7</ele>
        <time>2022-09-26T14:48:11Z</time>
      </trkpt>
      <trkpt lat="46.11394" lon="5.90424">
        <ele>478.7</ele>
        <time>2022-09-26T14:48:12Z</time>
      </trkpt>
      <trkpt lat="46.1139" lon="5.90431">
        <ele>478.7</ele>
        <time>2022-09-26T14:48:13Z</time>
      </trkpt>
      <trkpt lat="46.11386" lon="5.90436">
        <ele>478.7</ele>
        <time>2022-09-26T14:48:14Z</time>
      </trkpt>
      <trkpt lat="46.11381" lon="5.9044">
        <ele>478.7</ele>
        <time>2022-09-26T14:48:15Z</time>
      </trkpt>
      <trkpt lat="46.11378" lon="5.90444">
        <ele>478.7</ele>
        <time>2022-09-26T14:48:16Z</time>
      </trkpt>
      <trkpt lat="46.11375" lon="5.90449">
        <ele>478.7</ele>
        <time>2022-09-26T14:48:17Z</time>
      </trkpt>
      <trkpt lat="46.1137" lon="5.90456">
        <ele>478.7</ele>
        <time>2022-09-26T14:48:18Z</time>
      </trkpt>
      <trkpt lat="46.11368" lon="5.90462">
        <ele>478.7</ele>
        <time>2022-09-26T14:48:19Z</time>
      </trkpt>
      <trkpt lat="46.11363" lon="5.90465">
        <ele>478.7</ele>
        <time>2022-09-26T14:48:20Z</time>
      </trkpt>
      <trkpt lat="46.1136" lon="5.9047">
        <ele>478.7</ele>
        <time>2022-09-26T14:48:21Z</time>
      </trkpt>
      <trkpt lat="46.11356" lon="5.90474">
        <ele>478.7</ele>
        <time>2022-09-26T14:48:22Z</time>
      </trkpt>
      <trkpt lat="46.11353" lon="5.9048">
        <ele>478.7</ele>
        <time>2022-09-26T14:48:23Z</time>
      </trkpt>
      <trkpt lat="46.11349" lon="5.90484">
        <ele>478.6</ele>
        <time>2022-09-26T14:48:24Z</time>
      </trkpt>
      <trkpt lat="46.11346" lon="5.90489">
        <ele>478.6</ele>
        <time>2022-09-26T14:48:25Z</time>
      </trkpt>
      <trkpt lat="46.11341" lon="5.90495">
        <ele>478.6</ele>
        <time>2022-09-26T14:48:26Z</time>
      </trkpt>
      <trkpt lat="46.11337" lon="5.905">
        <ele>478.6</ele>
        <time>2022-09-26T14:48:27Z</time>
      </trkpt>
      <trkpt lat="46.11333" lon="5.90505">
        <ele>478.6</ele>
        <time>2022-09-26T14:48:28Z</time>
      </trkpt>
      <trkpt lat="46.1133" lon="5.90508">
        <ele>478.6</ele>
        <time>2022-09-26T14:48:29Z</time>
      </trkpt>
      <trkpt lat="46.11326" lon="5.90513">
        <ele>478.6</ele>
        <time>2022-09-26T14:48:30Z</time>
      </trkpt>
      <trkpt lat="46.11323" lon="5.90518">
        <ele>478.6</ele>
        <time>2022-09-26T14:48:31Z</time>
      </trkpt>
      <trkpt lat="46.11319" lon="5.90522">
        <ele>478.6</ele>
        <time>2022-09-26T14:48:32Z</time>
      </trkpt>
      <trkpt lat="46.11315" lon="5.90528">
        <ele>478.6</ele>
        <time>2022-09-26T14:48:33Z</time>
      </trkpt>
      <trkpt lat="46.11311" lon="5.90534">
        <ele>478.6</ele>
        <time>2022-09-26T14:48:34Z</time>
      </trkpt>
      <trkpt lat="46.11308" lon="5.90537">
        <ele>478.6</ele>
        <time>2022-09-26T14:48:35Z</time>
      </trkpt>
      <trkpt lat="46.11303" lon="5.90543">
        <ele>478.7</ele>
        <time>2022-09-26T14:48:36Z</time>
      </trkpt>
      <trkpt lat="46.11299" lon="5.90547">
        <ele>478.7</ele>
        <time>2022-09-26T14:48:37Z</time>
      </trkpt>
      <trkpt lat="46.11296" lon="5.90552">
        <ele>478.7</ele>
        <time>2022-09-26T14:48:38Z</time>
      </trkpt>
      <trkpt lat="46.11292" lon="5.90556">
        <ele>478.7</ele>
        <time>2022-09-26T14:48:39Z</time>
      </trkpt>
      <trkpt lat="46.11288" lon="5.90563">
        <ele>478.7</ele>
        <time>2022-09-26T14:48:40Z</time>
      </trkpt>
      <trkpt lat="46.11285" lon="5.90568">
        <ele>478.7</ele>
        <time>2022-09-26T14:48:41Z</time>
      </trkpt>
      <trkpt lat="46.11282" lon="5.90572">
        <ele>478.7</ele>
        <time>2022-09-26T14:48:42Z</time>
      </trkpt>
      <trkpt lat="46.11278" lon="5.90576">
        <ele>478.7</ele>
        <time>2022-09-26T14:48:43Z</time>
      </trkpt>
      <trkpt lat="46.11275" lon="5.90582">
        <ele>478.7</ele>
        <time>2022-09-26T14:48:44Z</time>
      </trkpt>
      <trkpt lat="46.11271" lon="5.90585">
        <ele>478.7</ele>
        <time>2022-09-26T14:48:45Z</time>
      </trkpt>
      <trkpt lat="46.11268" lon="5.90589">
        <ele>478.7</ele>
        <time>2022-09-26T14:48:46Z</time>
      </trkpt>
      <trkpt lat="46.11265" lon="5.90595">
        <ele>478.7</ele>
        <time>2022-09-26T14:48:47Z</time>
      </trkpt>
      <trkpt lat="46.11262" lon="5.90599">
        <ele>478.7</ele>
        <time>2022-09-26T14:48:48Z</time>
      </trkpt>
      <trkpt lat="46.11259" lon="5.90601">
        <ele>478.7</ele>
        <time>2022-09-26T14:48:49Z</time>
      </trkpt>
      <trkpt lat="46.11255" lon="5.90605">
        <ele>478.7</ele>
        <time>2022-09-26T14:48:50Z</time>
      </trkpt>
      <trkpt lat="46.11251" lon="5.90611">
        <ele>478.7</ele>
        <time>2022-09-26T14:48:51Z</time>
      </trkpt>
      <trkpt lat="46.11248" lon="5.90615">
        <ele>478.7</ele>
        <time>2022-09-26T14:48:52Z</time>
      </trkpt>
      <trkpt lat="46.11245" lon="5.90619">
        <ele>478.7</ele>
        <time>2022-09-26T14:48:53Z</time>
      </trkpt>
      <trkpt lat="46.11242" lon="5.90624">
        <ele>478.7</ele>
        <time>2022-09-26T14:48:54Z</time>
      </trkpt>
      <trkpt lat="46.11238" lon="5.90629">
        <ele>478.7</ele>
        <time>2022-09-26T14:48:55Z</time>
      </trkpt>
      <trkpt lat="46.11234" lon="5.90636">
        <ele>478.7</ele>
        <time>2022-09-26T14:48:56Z</time>
      </trkpt>
      <trkpt lat="46.11231" lon="5.9064">
        <ele>478.6</ele>
        <time>2022-09-26T14:48:57Z</time>
      </trkpt>
      <trkpt lat="46.11227" lon="5.90646">
        <ele>478.6</ele>
        <time>2022-09-26T14:48:58Z</time>
      </trkpt>
      <trkpt lat="46.11223" lon="5.90651">
        <ele>478.6</ele>
        <time>2022-09-26T14:48:59Z</time>
      </trkpt>
      <trkpt lat="46.11218" lon="5.90656">
        <ele>478.6</ele>
        <time>2022-09-26T14:49:00Z</time>
      </trkpt>
      <trkpt lat="46.11215" lon="5.90661">
        <ele>478.6</ele>
        <time>2022-09-26T14:49:01Z</time>
      </trkpt>
      <trkpt lat="46.1121" lon="5.90666">
        <ele>478.6</ele>
        <time>2022-09-26T14:49:02Z</time>
      </trkpt>
      <trkpt lat="46.11206" lon="5.90671">
        <ele>478.6</ele>
        <time>2022-09-26T14:49:03Z</time>
      </trkpt>
      <trkpt lat="46.11203" lon="5.90676">
        <ele>478.6</ele>
        <time>2022-09-26T14:49:04Z</time>
      </trkpt>
      <trkpt lat="46.112" lon="5.9068">
        <ele>478.6</ele>
        <time>2022-09-26T14:49:05Z</time>
      </trkpt>
      <trkpt lat="46.11196" lon="5.90686">
        <ele>478.6</ele>
        <time>2022-09-26T14:49:06Z</time>
      </trkpt>
      <trkpt lat="46.11192" lon="5.9069">
        <ele>478.7</ele>
        <time>2022-09-26T14:49:07Z</time>
      </trkpt>
      <trkpt lat="46.11189" lon="5.90696">
        <ele>478.7</ele>
        <time>2022-09-26T14:49:08Z</time>
      </trkpt>
      <trkpt lat="46.11186" lon="5.907">
        <ele>478.7</ele>
        <time>2022-09-26T14:49:09Z</time>
      </trkpt>
      <trkpt lat="46.11182" lon="5.90706">
        <ele>478.7</ele>
        <time>2022-09-26T14:49:10Z</time>
      </trkpt>
      <trkpt lat="46.11179" lon="5.90712">
        <ele>478.7</ele>
        <time>2022-09-26T14:49:11Z</time>
      </trkpt>
      <trkpt lat="46.11176" lon="5.90718">
        <ele>478.7</ele>
        <time>2022-09-26T14:49:12Z</time>
      </trkpt>
      <trkpt lat="46.11174" lon="5.90724">
        <ele>478.7</ele>
        <time>2022-09-26T14:49:13Z</time>
      </trkpt>
      <trkpt lat="46.11172" lon="5.90731">
        <ele>478.7</ele>
        <time>2022-09-26T14:49:14Z</time>
      </trkpt>
      <trkpt lat="46.11168" lon="5.90736">
        <ele>478.7</ele>
        <time>2022-09-26T14:49:15Z</time>
      </trkpt>
      <trkpt lat="46.11165" lon="5.90741">
        <ele>478.7</ele>
        <time>2022-09-26T14:49:16Z</time>
      </trkpt>
      <trkpt lat="46.11161" lon="5.90747">
        <ele>478.7</ele>
        <time>2022-09-26T14:49:17Z</time>
      </trkpt>
      <trkpt lat="46.11159" lon="5.90754">
        <ele>478.7</ele>
        <time>2022-09-26T14:49:18Z</time>
      </trkpt>
      <trkpt lat="46.11156" lon="5.90759">
        <ele>478.7</ele>
        <time>2022-09-26T14:49:19Z</time>
      </trkpt>
      <trkpt lat="46.11154" lon="5.90767">
        <ele>478.7</ele>
        <time>2022-09-26T14:49:20Z</time>
      </trkpt>
      <trkpt lat="46.11152" lon="5.90773">
        <ele>478.6</ele>
        <time>2022-09-26T14:49:21Z</time>
      </trkpt>
      <trkpt lat="46.11148" lon="5.90779">
        <ele>478.6</ele>
        <time>2022-09-26T14:49:22Z</time>
      </trkpt>
      <trkpt lat="46.11145" lon="5.90786">
        <ele>478.6</ele>
        <time>2022-09-26T14:49:23Z</time>
      </trkpt>
      <trkpt lat="46.11142" lon="5.90791">
        <ele>478.6</ele>
        <time>2022-09-26T14:49:24Z</time>
      </trkpt>
      <trkpt lat="46.11139" lon="5.90797">
        <ele>478.6</ele>
        <time>2022-09-26T14:49:25Z</time>
      </trkpt>
      <trkpt lat="46.11137" lon="5.90803">
        <ele>478.6</ele>
        <time>2022-09-26T14:49:26Z</time>
      </trkpt>
      <trkpt lat="46.11134" lon="5.90808">
        <ele>478.6</ele>
        <time>2022-09-26T14:49:27Z</time>
      </trkpt>
      <trkpt lat="46.11131" lon="5.90814">
        <ele>478.6</ele>
        <time>2022-09-26T14:49:28Z</time>
      </trkpt>
      <trkpt lat="46.11129" lon="5.90819">
        <ele>478.6</ele>
        <time>2022-09-26T14:49:29Z</time>
      </trkpt>
      <trkpt lat="46.11126" lon="5.90825">
        <ele>478.6</ele>
        <time>2022-09-26T14:49:30Z</time>
      </trkpt>
      <trkpt lat="46.11123" lon="5.9083">
        <ele>478.6</ele>
        <time>2022-09-26T14:49:31Z</time>
      </trkpt>
      <trkpt lat="46.1112" lon="5.90836">
        <ele>478.7</ele>
        <time>2022-09-26T14:49:32Z</time>
      </trkpt>
      <trkpt lat="46.11118" lon="5.90841">
        <ele>478.7</ele>
        <time>2022-09-26T14:49:33Z</time>
      </trkpt>
      <trkpt lat="46.11115" lon="5.90846">
        <ele>478.7</ele>
        <time>2022-09-26T14:49:34Z</time>
      </trkpt>
      <trkpt lat="46.11113" lon="5.90852">
        <ele>478.7</ele>
        <time>2022-09-26T14:49:35Z</time>
      </trkpt>
      <trkpt lat="46.11111" lon="5.90857">
        <ele>478.7</ele>
        <time>2022-09-26T14:49:36Z</time>
      </trkpt>
      <trkpt lat="46.11108" lon="5.90862">
        <ele>478.7</ele>
        <time>2022-09-26T14:49:37Z</time>
      </trkpt>
      <trkpt lat="46.11106" lon="5.90867">
        <ele>478.7</ele>
        <time>2022-09-26T14:49:38Z</time>
      </trkpt>
      <trkpt lat="46.11104" lon="5.90872">
        <ele>478.8</ele>
        <time>2022-09-26T14:49:39Z</time>
      </trkpt>
      <trkpt lat="46.11102" lon="5.90877">
        <ele>478.8</ele>
        <time>2022-09-26T14:49:40Z</time>
      </trkpt>
      <trkpt lat="46.11099" lon="5.90882">
        <ele>478.8</ele>
        <time>2022-09-26T14:49:41Z</time>
      </trkpt>
      <trkpt lat="46.11098" lon="5.90886">
        <ele>478.8</ele>
        <time>2022-09-26T14:49:42Z</time>
      </trkpt>
      <trkpt lat="46.11096" lon="5.90891">
        <ele>478.8</ele>
        <time>2022-09-26T14:49:43Z</time>
      </trkpt>
      <trkpt lat="46.11094" lon="5.90896">
        <ele>478.8</ele>
        <time>2022-09-26T14:49:44Z</time>
      </trkpt>
      <trkpt lat="46.11092" lon="5.90901">
        <ele>478.8</ele>
        <time>2022-09-26T14:49:45Z</time>
      </trkpt>
      <trkpt lat="46.1109" lon="5.90905">
        <ele>478.8</ele>
        <time>2022-09-26T14:49:46Z</time>
      </trkpt>
      <trkpt lat="46.11089" lon="5.9091">
        <ele>478.8</ele>
        <time>2022-09-26T14:49:47Z</time>
      </trkpt>
      <trkpt lat="46.11087" lon="5.90915">
        <ele>478.8</ele>
        <time>2022-09-26T14:49:48Z</time>
      </trkpt>
      <trkpt lat="46.11086" lon="5.90919">
        <ele>478.8</ele>
        <time>2022-09-26T14:49:49Z</time>
      </trkpt>
      <trkpt lat="46.11084" lon="5.90924">
        <ele>478.8</ele>
        <time>2022-09-26T14:49:50Z</time>
      </trkpt>
      <trkpt lat="46.11083" lon="5.90928">
        <ele>478.8</ele>
        <time>2022-09-26T14:49:51Z</time>
      </trkpt>
      <trkpt lat="46.11082" lon="5.90934">
        <ele>478.8</ele>
        <time>2022-09-26T14:49:52Z</time>
      </trkpt>
      <trkpt lat="46.11081" lon="5.90939">
        <ele>478.8</ele>
        <time>2022-09-26T14:49:53Z</time>
      </trkpt>
      <trkpt lat="46.11079" lon="5.90944">
        <ele>478.8</ele>
        <time>2022-09-26T14:49:54Z</time>
      </trkpt>
      <trkpt lat="46.11078" lon="5.90948">
        <ele>478.8</ele>
        <time>2022-09-26T14:49:55Z</time>
      </trkpt>
      <trkpt lat="46.11077" lon="5.90954">
        <ele>478.8</ele>
        <time>2022-09-26T14:49:56Z</time>
      </trkpt>
      <trkpt lat="46.11076" lon="5.90959">
        <ele>478.8</ele>
        <time>2022-09-26T14:49:57Z</time>
      </trkpt>
      <trkpt lat="46.11075" lon="5.90964">
        <ele>478.8</ele>
        <time>2022-09-26T14:49:58Z</time>
      </trkpt>
      <trkpt lat="46.11074" lon="5.90968">
        <ele>478.8</ele>
        <time>2022-09-26T14:49:59Z</time>
      </trkpt>
      <trkpt lat="46.11073" lon="5.90974">
        <ele>478.8</ele>
        <time>2022-09-26T14:50:00Z</time>
      </trkpt>
      <trkpt lat="46.11072" lon="5.90978">
        <ele>478.8</ele>
        <time>2022-09-26T14:50:01Z</time>
      </trkpt>
      <trkpt lat="46.11072" lon="5.90983">
        <ele>478.8</ele>
        <time>2022-09-26T14:50:02Z</time>
      </trkpt>
      <trkpt lat="46.11071" lon="5.90988">
        <ele>478.8</ele>
        <time>2022-09-26T14:50:03Z</time>
      </trkpt>
      <trkpt lat="46.1107" lon="5.90993">
        <ele>478.8</ele>
        <time>2022-09-26T14:50:04Z</time>
      </trkpt>
      <trkpt lat="46.11069" lon="5.90998">
        <ele>478.8</ele>
        <time>2022-09-26T14:50:05Z</time>
      </trkpt>
      <trkpt lat="46.11068" lon="5.91003">
        <ele>478.8</ele>
        <time>2022-09-26T14:50:06Z</time>
      </trkpt>
      <trkpt lat="46.11067" lon="5.91008">
        <ele>478.8</ele>
        <time>2022-09-26T14:50:07Z</time>
      </trkpt>
      <trkpt lat="46.11066" lon="5.91013">
        <ele>478.8</ele>
        <time>2022-09-26T14:50:08Z</time>
      </trkpt>
      <trkpt lat="46.11065" lon="5.91018">
        <ele>478.8</ele>
        <time>2022-09-26T14:50:09Z</time>
      </trkpt>
      <trkpt lat="46.11064" lon="5.91024">
        <ele>478.8</ele>
        <time>2022-09-26T14:50:10Z</time>
      </trkpt>
      <trkpt lat="46.11063" lon="5.91028">
        <ele>478.8</ele>
        <time>2022-09-26T14:50:11Z</time>
      </trkpt>
      <trkpt lat="46.11062" lon="5.91033">
        <ele>478.8</ele>
        <time>2022-09-26T14:50:12Z</time>
      </trkpt>
      <trkpt lat="46.11062" lon="5.91039">
        <ele>478.8</ele>
        <time>2022-09-26T14:50:13Z</time>
      </trkpt>
      <trkpt lat="46.11061" lon="5.91044">
        <ele>478.8</ele>
        <time>2022-09-26T14:50:14Z</time>
      </trkpt>
      <trkpt lat="46.1106" lon="5.91049">
        <ele>478.8</ele>
        <time>2022-09-26T14:50:15Z</time>
      </trkpt>
      <trkpt lat="46.11058" lon="5.91055">
        <ele>478.8</ele>
        <time>2022-09-26T14:50:16Z</time>
      </trkpt>
      <trkpt lat="46.11058" lon="5.9106">
        <ele>478.8</ele>
        <time>2022-09-26T14:50:17Z</time>
      </trkpt>
      <trkpt lat="46.11057" lon="5.91064">
        <ele>478.9</ele>
        <time>2022-09-26T14:50:18Z</time>
      </trkpt>
      <trkpt lat="46.11056" lon="5.91069">
        <ele>478.9</ele>
        <time>2022-09-26T14:50:19Z</time>
      </trkpt>
      <trkpt lat="46.11056" lon="5.91075">
        <ele>478.9</ele>
        <time>2022-09-26T14:50:20Z</time>
      </trkpt>
      <trkpt lat="46.11055" lon="5.9108">
        <ele>478.9</ele>
        <time>2022-09-26T14:50:21Z</time>
      </trkpt>
      <trkpt lat="46.11054" lon="5.91084">
        <ele>478.9</ele>
        <time>2022-09-26T14:50:22Z</time>
      </trkpt>
      <trkpt lat="46.11053" lon="5.9109">
        <ele>478.9</ele>
        <time>2022-09-26T14:50:23Z</time>
      </trkpt>
      <trkpt lat="46.11052" lon="5.91094">
        <ele>478.9</ele>
        <time>2022-09-26T14:50:24Z</time>
      </trkpt>
      <trkpt lat="46.11051" lon="5.91099">
        <ele>478.9</ele>
        <time>2022-09-26T14:50:25Z</time>
      </trkpt>
      <trkpt lat="46.1105" lon="5.91104">
        <ele>478.9</ele>
        <time>2022-09-26T14:50:26Z</time>
      </trkpt>
      <trkpt lat="46.11049" lon="5.9111">
        <ele>479</ele>
        <time>2022-09-26T14:50:27Z</time>
      </trkpt>
      <trkpt lat="46.11048" lon="5.91114">
        <ele>479</ele>
        <time>2022-09-26T14:50:28Z</time>
      </trkpt>
      <trkpt lat="46.11047" lon="5.91119">
        <ele>479</ele>
        <time>2022-09-26T14:50:29Z</time>
      </trkpt>
      <trkpt lat="46.11046" lon="5.91125">
        <ele>479</ele>
        <time>2022-09-26T14:50:30Z</time>
      </trkpt>
      <trkpt lat="46.11045" lon="5.91129">
        <ele>479.1</ele>
        <time>2022-09-26T14:50:31Z</time>
      </trkpt>
      <trkpt lat="46.11045" lon="5.91134">
        <ele>479.1</ele>
        <time>2022-09-26T14:50:32Z</time>
      </trkpt>
      <trkpt lat="46.11044" lon="5.91139">
        <ele>479.1</ele>
        <time>2022-09-26T14:50:33Z</time>
      </trkpt>
      <trkpt lat="46.11043" lon="5.91144">
        <ele>479.2</ele>
        <time>2022-09-26T14:50:34Z</time>
      </trkpt>
      <trkpt lat="46.11043" lon="5.91149">
        <ele>479.2</ele>
        <time>2022-09-26T14:50:35Z</time>
      </trkpt>
      <trkpt lat="46.11042" lon="5.91153">
        <ele>479.2</ele>
        <time>2022-09-26T14:50:36Z</time>
      </trkpt>
      <trkpt lat="46.11041" lon="5.91158">
        <ele>479.2</ele>
        <time>2022-09-26T14:50:37Z</time>
      </trkpt>
      <trkpt lat="46.1104" lon="5.91163">
        <ele>479.3</ele>
        <time>2022-09-26T14:50:38Z</time>
      </trkpt>
      <trkpt lat="46.11039" lon="5.91168">
        <ele>479.3</ele>
        <time>2022-09-26T14:50:39Z</time>
      </trkpt>
      <trkpt lat="46.11038" lon="5.91172">
        <ele>479.3</ele>
        <time>2022-09-26T14:50:40Z</time>
      </trkpt>
      <trkpt lat="46.11036" lon="5.91175">
        <ele>479.3</ele>
        <time>2022-09-26T14:50:41Z</time>
      </trkpt>
      <trkpt lat="46.11035" lon="5.91179">
        <ele>479.3</ele>
        <time>2022-09-26T14:50:42Z</time>
      </trkpt>
      <trkpt lat="46.11035" lon="5.91181">
        <ele>479.3</ele>
        <time>2022-09-26T14:50:43Z</time>
      </trkpt>
      <trkpt lat="46.11033" lon="5.91186">
        <ele>479.4</ele>
        <time>2022-09-26T14:50:44Z</time>
      </trkpt>
      <trkpt lat="46.11033" lon="5.91188">
        <ele>479.4</ele>
        <time>2022-09-26T14:50:45Z</time>
      </trkpt>
      <trkpt lat="46.11032" lon="5.91192">
        <ele>479.4</ele>
        <time>2022-09-26T14:50:46Z</time>
      </trkpt>
      <trkpt lat="46.1103" lon="5.91195">
        <ele>479.4</ele>
        <time>2022-09-26T14:50:47Z</time>
      </trkpt>
      <trkpt lat="46.11029" lon="5.91198">
        <ele>479.5</ele>
        <time>2022-09-26T14:50:48Z</time>
      </trkpt>
      <trkpt lat="46.11028" lon="5.91199">
        <ele>479.5</ele>
        <time>2022-09-26T14:50:49Z</time>
      </trkpt>
      <trkpt lat="46.11028" lon="5.91201">
        <ele>479.5</ele>
        <time>2022-09-26T14:50:50Z</time>
      </trkpt>
      <trkpt lat="46.11028" lon="5.91202">
        <ele>479.5</ele>
        <time>2022-09-26T14:50:51Z</time>
      </trkpt>
      <trkpt lat="46.11028" lon="5.91203">
        <ele>479.5</ele>
        <time>2022-09-26T14:50:52Z</time>
      </trkpt>
      <trkpt lat="46.11028" lon="5.91204">
        <ele>479.5</ele>
        <time>2022-09-26T14:50:53Z</time>
      </trkpt>
      <trkpt lat="46.11028" lon="5.91206">
        <ele>479.5</ele>
        <time>2022-09-26T14:50:54Z</time>
      </trkpt>
      <trkpt lat="46.11028" lon="5.91207">
        <ele>479.5</ele>
        <time>2022-09-26T14:50:55Z</time>
      </trkpt>
      <trkpt lat="46.11028" lon="5.91208">
        <ele>479.5</ele>
        <time>2022-09-26T14:50:56Z</time>
      </trkpt>
      <trkpt lat="46.11027" lon="5.91209">
        <ele>479.5</ele>
        <time>2022-09-26T14:50:57Z</time>
      </trkpt>
      <trkpt lat="46.11027" lon="5.91211">
        <ele>479.5</ele>
        <time>2022-09-26T14:50:58Z</time>
      </trkpt>
      <trkpt lat="46.11027" lon="5.91212">
        <ele>479.5</ele>
        <time>2022-09-26T14:50:59Z</time>
      </trkpt>
      <trkpt lat="46.11027" lon="5.91213">
        <ele>479.5</ele>
        <time>2022-09-26T14:52:41Z</time>
      </trkpt>
      <trkpt lat="46.11027" lon="5.91214">
        <ele>479.5</ele>
        <time>2022-09-26T14:52:42Z</time>
      </trkpt>
      <trkpt lat="46.11027" lon="5.91216">
        <ele>479.6</ele>
        <time>2022-09-26T14:52:43Z</time>
      </trkpt>
      <trkpt lat="46.11027" lon="5.91217">
        <ele>479.6</ele>
        <time>2022-09-26T14:52:44Z</time>
      </trkpt>
      <trkpt lat="46.11027" lon="5.91218">
        <ele>479.6</ele>
        <time>2022-09-26T14:52:45Z</time>
      </trkpt>
      <trkpt lat="46.11027" lon="5.91219">
        <ele>479.6</ele>
        <time>2022-09-26T14:52:46Z</time>
      </trkpt>
      <trkpt lat="46.11027" lon="5.91221">
        <ele>479.6</ele>
        <time>2022-09-26T14:52:47Z</time>
      </trkpt>
      <trkpt lat="46.11027" lon="5.91222">
        <ele>479.6</ele>
        <time>2022-09-26T14:52:48Z</time>
      </trkpt>
      <trkpt lat="46.11027" lon="5.91223">
        <ele>479.6</ele>
        <time>2022-09-26T14:52:49Z</time>
      </trkpt>
      <trkpt lat="46.11027" lon="5.91224">
        <ele>479.6</ele>
        <time>2022-09-26T14:52:50Z</time>
      </trkpt>
      <trkpt lat="46.11027" lon="5.91226">
        <ele>479.6</ele>
        <time>2022-09-26T15:02:05Z</time>
      </trkpt>
      <trkpt lat="46.11027" lon="5.91227">
        <ele>479.6</ele>
        <time>2022-09-26T15:02:06Z</time>
      </trkpt>
      <trkpt lat="46.11026" lon="5.91231">
        <ele>479.7</ele>
        <time>2022-09-26T15:02:07Z</time>
      </trkpt>
      <trkpt lat="46.11026" lon="5.91235">
        <ele>479.7</ele>
        <time>2022-09-26T15:02:08Z</time>
      </trkpt>
      <trkpt lat="46.11025" lon="5.91239">
        <ele>479.7</ele>
        <time>2022-09-26T15:02:09Z</time>
      </trkpt>
      <trkpt lat="46.11024" lon="5.91244">
        <ele>479.7</ele>
        <time>2022-09-26T15:02:10Z</time>
      </trkpt>
      <trkpt lat="46.11024" lon="5.91249">
        <ele>479.8</ele>
        <time>2022-09-26T15:02:11Z</time>
      </trkpt>
      <trkpt lat="46.11023" lon="5.91253">
        <ele>479.8</ele>
        <time>2022-09-26T15:02:12Z</time>
      </trkpt>
      <trkpt lat="46.11023" lon="5.91259">
        <ele>479.8</ele>
        <time>2022-09-26T15:02:13Z</time>
      </trkpt>
      <trkpt lat="46.11022" lon="5.91261">
        <ele>479.8</ele>
        <time>2022-09-26T15:02:14Z</time>
      </trkpt>
      <trkpt lat="46.11021" lon="5.91267">
        <ele>479.9</ele>
        <time>2022-09-26T15:02:15Z</time>
      </trkpt>
      <trkpt lat="46.1102" lon="5.91269">
        <ele>479.9</ele>
        <time>2022-09-26T15:02:16Z</time>
      </trkpt>
      <trkpt lat="46.11019" lon="5.91274">
        <ele>479.9</ele>
        <time>2022-09-26T15:02:17Z</time>
      </trkpt>
      <trkpt lat="46.11018" lon="5.91277">
        <ele>480</ele>
        <time>2022-09-26T15:02:18Z</time>
      </trkpt>
      <trkpt lat="46.11017" lon="5.91282">
        <ele>480</ele>
        <time>2022-09-26T15:02:19Z</time>
      </trkpt>
      <trkpt lat="46.11017" lon="5.91288">
        <ele>480.1</ele>
        <time>2022-09-26T15:02:20Z</time>
      </trkpt>
      <trkpt lat="46.11016" lon="5.9129">
        <ele>480.1</ele>
        <time>2022-09-26T15:02:21Z</time>
      </trkpt>
      <trkpt lat="46.11015" lon="5.91296">
        <ele>480.1</ele>
        <time>2022-09-26T15:02:22Z</time>
      </trkpt>
      <trkpt lat="46.11014" lon="5.913">
        <ele>480.2</ele>
        <time>2022-09-26T15:02:23Z</time>
      </trkpt>
      <trkpt lat="46.11013" lon="5.91306">
        <ele>480.2</ele>
        <time>2022-09-26T15:02:24Z</time>
      </trkpt>
      <trkpt lat="46.11012" lon="5.9131">
        <ele>480.2</ele>
        <time>2022-09-26T15:02:25Z</time>
      </trkpt>
      <trkpt lat="46.11011" lon="5.91315">
        <ele>480.3</ele>
        <time>2022-09-26T15:02:26Z</time>
      </trkpt>
      <trkpt lat="46.11011" lon="5.91319">
        <ele>480.3</ele>
        <time>2022-09-26T15:02:27Z</time>
      </trkpt>
      <trkpt lat="46.1101" lon="5.91324">
        <ele>480.3</ele>
        <time>2022-09-26T15:02:28Z</time>
      </trkpt>
      <trkpt lat="46.11009" lon="5.91328">
        <ele>480.4</ele>
        <time>2022-09-26T15:02:29Z</time>
      </trkpt>
      <trkpt lat="46.11009" lon="5.91333">
        <ele>480.4</ele>
        <time>2022-09-26T15:02:30Z</time>
      </trkpt>
      <trkpt lat="46.11008" lon="5.91337">
        <ele>480.4</ele>
        <time>2022-09-26T15:02:31Z</time>
      </trkpt>
      <trkpt lat="46.11006" lon="5.91342">
        <ele>480.5</ele>
        <time>2022-09-26T15:02:32Z</time>
      </trkpt>
      <trkpt lat="46.11006" lon="5.91347">
        <ele>480.5</ele>
        <time>2022-09-26T15:02:33Z</time>
      </trkpt>
      <trkpt lat="46.11005" lon="5.91352">
        <ele>480.5</ele>
        <time>2022-09-26T15:02:34Z</time>
      </trkpt>
      <trkpt lat="46.11004" lon="5.91357">
        <ele>480.6</ele>
        <time>2022-09-26T15:02:35Z</time>
      </trkpt>
      <trkpt lat="46.11003" lon="5.91363">
        <ele>480.6</ele>
        <time>2022-09-26T15:02:36Z</time>
      </trkpt>
      <trkpt lat="46.11002" lon="5.91368">
        <ele>480.7</ele>
        <time>2022-09-26T15:02:37Z</time>
      </trkpt>
      <trkpt lat="46.11001" lon="5.91373">
        <ele>480.7</ele>
        <time>2022-09-26T15:02:38Z</time>
      </trkpt>
      <trkpt lat="46.11" lon="5.91379">
        <ele>480.8</ele>
        <time>2022-09-26T15:02:39Z</time>
      </trkpt>
      <trkpt lat="46.10999" lon="5.91384">
        <ele>480.8</ele>
        <time>2022-09-26T15:02:40Z</time>
      </trkpt>
      <trkpt lat="46.10998" lon="5.9139">
        <ele>480.8</ele>
        <time>2022-09-26T15:02:41Z</time>
      </trkpt>
      <trkpt lat="46.10997" lon="5.91396">
        <ele>480.9</ele>
        <time>2022-09-26T15:02:42Z</time>
      </trkpt>
      <trkpt lat="46.10996" lon="5.91401">
        <ele>480.9</ele>
        <time>2022-09-26T15:02:43Z</time>
      </trkpt>
      <trkpt lat="46.10994" lon="5.91406">
        <ele>481</ele>
        <time>2022-09-26T15:02:44Z</time>
      </trkpt>
      <trkpt lat="46.10993" lon="5.91412">
        <ele>481</ele>
        <time>2022-09-26T15:02:45Z</time>
      </trkpt>
      <trkpt lat="46.10991" lon="5.91417">
        <ele>481</ele>
        <time>2022-09-26T15:02:46Z</time>
      </trkpt>
      <trkpt lat="46.10989" lon="5.91422">
        <ele>481.1</ele>
        <time>2022-09-26T15:02:47Z</time>
      </trkpt>
      <trkpt lat="46.10987" lon="5.91427">
        <ele>481.1</ele>
        <time>2022-09-26T15:02:48Z</time>
      </trkpt>
      <trkpt lat="46.10986" lon="5.91432">
        <ele>481.1</ele>
        <time>2022-09-26T15:02:49Z</time>
      </trkpt>
      <trkpt lat="46.10985" lon="5.91437">
        <ele>481.2</ele>
        <time>2022-09-26T15:02:50Z</time>
      </trkpt>
      <trkpt lat="46.10982" lon="5.91442">
        <ele>481.2</ele>
        <time>2022-09-26T15:02:51Z</time>
      </trkpt>
      <trkpt lat="46.10981" lon="5.91447">
        <ele>481.2</ele>
        <time>2022-09-26T15:02:52Z</time>
      </trkpt>
      <trkpt lat="46.1098" lon="5.91452">
        <ele>481.3</ele>
        <time>2022-09-26T15:02:53Z</time>
      </trkpt>
      <trkpt lat="46.10978" lon="5.91457">
        <ele>481.3</ele>
        <time>2022-09-26T15:02:54Z</time>
      </trkpt>
      <trkpt lat="46.10976" lon="5.91462">
        <ele>481.3</ele>
        <time>2022-09-26T15:02:55Z</time>
      </trkpt>
      <trkpt lat="46.10975" lon="5.91467">
        <ele>481.4</ele>
        <time>2022-09-26T15:02:56Z</time>
      </trkpt>
      <trkpt lat="46.10973" lon="5.91471">
        <ele>481.4</ele>
        <time>2022-09-26T15:02:57Z</time>
      </trkpt>
      <trkpt lat="46.1097" lon="5.91476">
        <ele>481.4</ele>
        <time>2022-09-26T15:02:58Z</time>
      </trkpt>
      <trkpt lat="46.10968" lon="5.91481">
        <ele>481.5</ele>
        <time>2022-09-26T15:02:59Z</time>
      </trkpt>
      <trkpt lat="46.10966" lon="5.91486">
        <ele>481.5</ele>
        <time>2022-09-26T15:03:00Z</time>
      </trkpt>
      <trkpt lat="46.10963" lon="5.9149">
        <ele>481.5</ele>
        <time>2022-09-26T15:03:01Z</time>
      </trkpt>
      <trkpt lat="46.10961" lon="5.91494">
        <ele>481.6</ele>
        <time>2022-09-26T15:03:02Z</time>
      </trkpt>
      <trkpt lat="46.10959" lon="5.91499">
        <ele>481.6</ele>
        <time>2022-09-26T15:03:03Z</time>
      </trkpt>
      <trkpt lat="46.10957" lon="5.91502">
        <ele>481.6</ele>
        <time>2022-09-26T15:03:04Z</time>
      </trkpt>
      <trkpt lat="46.10955" lon="5.91505">
        <ele>481.6</ele>
        <time>2022-09-26T15:03:05Z</time>
      </trkpt>
      <trkpt lat="46.10953" lon="5.91509">
        <ele>481.7</ele>
        <time>2022-09-26T15:03:06Z</time>
      </trkpt>
      <trkpt lat="46.10951" lon="5.91512">
        <ele>481.7</ele>
        <time>2022-09-26T15:03:07Z</time>
      </trkpt>
      <trkpt lat="46.10949" lon="5.91516">
        <ele>481.7</ele>
        <time>2022-09-26T15:03:08Z</time>
      </trkpt>
      <trkpt lat="46.10947" lon="5.9152">
        <ele>481.7</ele>
        <time>2022-09-26T15:03:09Z</time>
      </trkpt>
      <trkpt lat="46.10944" lon="5.91524">
        <ele>481.7</ele>
        <time>2022-09-26T15:03:10Z</time>
      </trkpt>
      <trkpt lat="46.10942" lon="5.91528">
        <ele>481.8</ele>
        <time>2022-09-26T15:03:11Z</time>
      </trkpt>
      <trkpt lat="46.1094" lon="5.91532">
        <ele>481.8</ele>
        <time>2022-09-26T15:03:12Z</time>
      </trkpt>
      <trkpt lat="46.10937" lon="5.91536">
        <ele>481.8</ele>
        <time>2022-09-26T15:03:13Z</time>
      </trkpt>
      <trkpt lat="46.10935" lon="5.91539">
        <ele>481.8</ele>
        <time>2022-09-26T15:03:14Z</time>
      </trkpt>
      <trkpt lat="46.10933" lon="5.91544">
        <ele>481.9</ele>
        <time>2022-09-26T15:03:15Z</time>
      </trkpt>
      <trkpt lat="46.1093" lon="5.91547">
        <ele>481.9</ele>
        <time>2022-09-26T15:03:16Z</time>
      </trkpt>
      <trkpt lat="46.10928" lon="5.91552">
        <ele>481.9</ele>
        <time>2022-09-26T15:03:17Z</time>
      </trkpt>
      <trkpt lat="46.10927" lon="5.91556">
        <ele>481.9</ele>
        <time>2022-09-26T15:03:18Z</time>
      </trkpt>
      <trkpt lat="46.10925" lon="5.9156">
        <ele>481.9</ele>
        <time>2022-09-26T15:03:19Z</time>
      </trkpt>
      <trkpt lat="46.10923" lon="5.91564">
        <ele>481.9</ele>
        <time>2022-09-26T15:03:20Z</time>
      </trkpt>
      <trkpt lat="46.10921" lon="5.91568">
        <ele>481.9</ele>
        <time>2022-09-26T15:03:21Z</time>
      </trkpt>
      <trkpt lat="46.10919" lon="5.91573">
        <ele>482</ele>
        <time>2022-09-26T15:03:22Z</time>
      </trkpt>
      <trkpt lat="46.10918" lon="5.91577">
        <ele>482</ele>
        <time>2022-09-26T15:03:23Z</time>
      </trkpt>
      <trkpt lat="46.10916" lon="5.91581">
        <ele>482</ele>
        <time>2022-09-26T15:03:24Z</time>
      </trkpt>
      <trkpt lat="46.10913" lon="5.91586">
        <ele>482</ele>
        <time>2022-09-26T15:03:25Z</time>
      </trkpt>
      <trkpt lat="46.1091" lon="5.9159">
        <ele>481.9</ele>
        <time>2022-09-26T15:03:26Z</time>
      </trkpt>
      <trkpt lat="46.10909" lon="5.91594">
        <ele>481.9</ele>
        <time>2022-09-26T15:03:27Z</time>
      </trkpt>
      <trkpt lat="46.10906" lon="5.91598">
        <ele>481.9</ele>
        <time>2022-09-26T15:03:28Z</time>
      </trkpt>
      <trkpt lat="46.10903" lon="5.91602">
        <ele>481.9</ele>
        <time>2022-09-26T15:03:29Z</time>
      </trkpt>
      <trkpt lat="46.10899" lon="5.91606">
        <ele>481.8</ele>
        <time>2022-09-26T15:03:30Z</time>
      </trkpt>
      <trkpt lat="46.10897" lon="5.9161">
        <ele>481.8</ele>
        <time>2022-09-26T15:03:31Z</time>
      </trkpt>
      <trkpt lat="46.10894" lon="5.91614">
        <ele>481.7</ele>
        <time>2022-09-26T15:03:32Z</time>
      </trkpt>
      <trkpt lat="46.10892" lon="5.91616">
        <ele>481.7</ele>
        <time>2022-09-26T15:03:33Z</time>
      </trkpt>
      <trkpt lat="46.10889" lon="5.91618">
        <ele>481.6</ele>
        <time>2022-09-26T15:03:34Z</time>
      </trkpt>
      <trkpt lat="46.10887" lon="5.91619">
        <ele>481.6</ele>
        <time>2022-09-26T15:03:35Z</time>
      </trkpt>
      <trkpt lat="46.10885" lon="5.91622">
        <ele>481.6</ele>
        <time>2022-09-26T15:03:36Z</time>
      </trkpt>
      <trkpt lat="46.10884" lon="5.91623">
        <ele>481.6</ele>
        <time>2022-09-26T15:03:37Z</time>
      </trkpt>
      <trkpt lat="46.10883" lon="5.91628">
        <ele>481.5</ele>
        <time>2022-09-26T15:03:38Z</time>
      </trkpt>
      <trkpt lat="46.10883" lon="5.91629">
        <ele>481.5</ele>
        <time>2022-09-26T15:03:39Z</time>
      </trkpt>
      <trkpt lat="46.10882" lon="5.91633">
        <ele>481.5</ele>
        <time>2022-09-26T15:03:40Z</time>
      </trkpt>
      <trkpt lat="46.10882" lon="5.91635">
        <ele>481.5</ele>
        <time>2022-09-26T15:03:41Z</time>
      </trkpt>
      <trkpt lat="46.10881" lon="5.91639">
        <ele>481.4</ele>
        <time>2022-09-26T15:03:42Z</time>
      </trkpt>
      <trkpt lat="46.10879" lon="5.91643">
        <ele>481.4</ele>
        <time>2022-09-26T15:03:43Z</time>
      </trkpt>
      <trkpt lat="46.10878" lon="5.91647">
        <ele>481.4</ele>
        <time>2022-09-26T15:03:44Z</time>
      </trkpt>
      <trkpt lat="46.10876" lon="5.9165">
        <ele>481.3</ele>
        <time>2022-09-26T15:03:45Z</time>
      </trkpt>
      <trkpt lat="46.10874" lon="5.91653">
        <ele>481.3</ele>
        <time>2022-09-26T15:03:46Z</time>
      </trkpt>
      <trkpt lat="46.10872" lon="5.91657">
        <ele>481.3</ele>
        <time>2022-09-26T15:03:47Z</time>
      </trkpt>
      <trkpt lat="46.1087" lon="5.91661">
        <ele>481.3</ele>
        <time>2022-09-26T15:03:48Z</time>
      </trkpt>
      <trkpt lat="46.10869" lon="5.91663">
        <ele>481.2</ele>
        <time>2022-09-26T15:03:49Z</time>
      </trkpt>
      <trkpt lat="46.10867" lon="5.91667">
        <ele>481.2</ele>
        <time>2022-09-26T15:03:50Z</time>
      </trkpt>
      <trkpt lat="46.10865" lon="5.9167">
        <ele>481.2</ele>
        <time>2022-09-26T15:03:51Z</time>
      </trkpt>
      <trkpt lat="46.10862" lon="5.91674">
        <ele>481.2</ele>
        <time>2022-09-26T15:03:52Z</time>
      </trkpt>
      <trkpt lat="46.1086" lon="5.91677">
        <ele>481.2</ele>
        <time>2022-09-26T15:03:53Z</time>
      </trkpt>
      <trkpt lat="46.10858" lon="5.91681">
        <ele>481.2</ele>
        <time>2022-09-26T15:03:54Z</time>
      </trkpt>
      <trkpt lat="46.10856" lon="5.91685">
        <ele>481.1</ele>
        <time>2022-09-26T15:03:55Z</time>
      </trkpt>
      <trkpt lat="46.10854" lon="5.91689">
        <ele>481.1</ele>
        <time>2022-09-26T15:03:56Z</time>
      </trkpt>
      <trkpt lat="46.10851" lon="5.91691">
        <ele>481.1</ele>
        <time>2022-09-26T15:03:57Z</time>
      </trkpt>
      <trkpt lat="46.10849" lon="5.91695">
        <ele>481.1</ele>
        <time>2022-09-26T15:03:58Z</time>
      </trkpt>
      <trkpt lat="46.10847" lon="5.91699">
        <ele>481.1</ele>
        <time>2022-09-26T15:03:59Z</time>
      </trkpt>
      <trkpt lat="46.10846" lon="5.917">
        <ele>481.1</ele>
        <time>2022-09-26T15:04:00Z</time>
      </trkpt>
      <trkpt lat="46.10844" lon="5.91701">
        <ele>481.1</ele>
        <time>2022-09-26T15:04:01Z</time>
      </trkpt>
      <trkpt lat="46.10843" lon="5.91702">
        <ele>481.1</ele>
        <time>2022-09-26T15:04:02Z</time>
      </trkpt>
      <trkpt lat="46.10842" lon="5.91703">
        <ele>481.1</ele>
        <time>2022-09-26T15:04:03Z</time>
      </trkpt>
      <trkpt lat="46.10842" lon="5.91702">
        <ele>481.1</ele>
        <time>2022-09-26T15:04:04Z</time>
      </trkpt>
      <trkpt lat="46.10842" lon="5.91702">
        <ele>481.1</ele>
        <time>2022-09-26T15:04:05Z</time>
      </trkpt>
      <trkpt lat="46.10841" lon="5.91703">
        <ele>481.1</ele>
        <time>2022-09-26T15:04:06Z</time>
      </trkpt>
      <trkpt lat="46.10841" lon="5.91702">
        <ele>481.1</ele>
        <time>2022-09-26T15:04:07Z</time>
      </trkpt>
      <trkpt lat="46.1084" lon="5.91703">
        <ele>481.1</ele>
        <time>2022-09-26T15:04:08Z</time>
      </trkpt>
      <trkpt lat="46.1084" lon="5.91704">
        <ele>481.1</ele>
        <time>2022-09-26T15:04:09Z</time>
      </trkpt>
      <trkpt lat="46.10841" lon="5.91705">
        <ele>481.1</ele>
        <time>2022-09-26T15:04:10Z</time>
      </trkpt>
      <trkpt lat="46.10841" lon="5.91706">
        <ele>481.1</ele>
        <time>2022-09-26T15:04:11Z</time>
      </trkpt>
      <trkpt lat="46.10842" lon="5.91706">
        <ele>481.1</ele>
        <time>2022-09-26T15:04:12Z</time>
      </trkpt>
      <trkpt lat="46.10843" lon="5.91707">
        <ele>481.1</ele>
        <time>2022-09-26T15:04:13Z</time>
      </trkpt>
      <trkpt lat="46.10844" lon="5.91708">
        <ele>481.1</ele>
        <time>2022-09-26T15:04:14Z</time>
      </trkpt>
      <trkpt lat="46.10844" lon="5.91708">
        <ele>481.1</ele>
        <time>2022-09-26T15:04:15Z</time>
      </trkpt>
      <trkpt lat="46.10845" lon="5.91709">
        <ele>481.1</ele>
        <time>2022-09-26T15:04:16Z</time>
      </trkpt>
      <trkpt lat="46.10846" lon="5.9171">
        <ele>481.1</ele>
        <time>2022-09-26T15:04:17Z</time>
      </trkpt>
      <trkpt lat="46.10846" lon="5.9171">
        <ele>481.1</ele>
        <time>2022-09-26T15:04:18Z</time>
      </trkpt>
      <trkpt lat="46.10847" lon="5.91711">
        <ele>481.1</ele>
        <time>2022-09-26T15:04:19Z</time>
      </trkpt>
      <trkpt lat="46.10848" lon="5.91712">
        <ele>481.1</ele>
        <time>2022-09-26T15:07:19Z</time>
      </trkpt>
      <trkpt lat="46.10849" lon="5.91712">
        <ele>481.1</ele>
        <time>2022-09-26T15:07:20Z</time>
      </trkpt>
      <trkpt lat="46.10851" lon="5.91709">
        <ele>481.1</ele>
        <time>2022-09-26T15:07:21Z</time>
      </trkpt>
      <trkpt lat="46.10853" lon="5.91706">
        <ele>481.1</ele>
        <time>2022-09-26T15:07:22Z</time>
      </trkpt>
      <trkpt lat="46.10854" lon="5.91705">
        <ele>481.1</ele>
        <time>2022-09-26T15:07:23Z</time>
      </trkpt>
      <trkpt lat="46.10856" lon="5.917">
        <ele>481.1</ele>
        <time>2022-09-26T15:07:24Z</time>
      </trkpt>
      <trkpt lat="46.10857" lon="5.91699">
        <ele>481.1</ele>
        <time>2022-09-26T15:07:25Z</time>
      </trkpt>
      <trkpt lat="46.10859" lon="5.91695">
        <ele>481.1</ele>
        <time>2022-09-26T15:07:26Z</time>
      </trkpt>
      <trkpt lat="46.10862" lon="5.91691">
        <ele>481.1</ele>
        <time>2022-09-26T15:07:27Z</time>
      </trkpt>
      <trkpt lat="46.10863" lon="5.91689">
        <ele>481.1</ele>
        <time>2022-09-26T15:07:28Z</time>
      </trkpt>
      <trkpt lat="46.10865" lon="5.91686">
        <ele>481.2</ele>
        <time>2022-09-26T15:07:29Z</time>
      </trkpt>
      <trkpt lat="46.10867" lon="5.91683">
        <ele>481.2</ele>
        <time>2022-09-26T15:07:30Z</time>
      </trkpt>
      <trkpt lat="46.10869" lon="5.91679">
        <ele>481.2</ele>
        <time>2022-09-26T15:07:31Z</time>
      </trkpt>
      <trkpt lat="46.10871" lon="5.91677">
        <ele>481.2</ele>
        <time>2022-09-26T15:07:32Z</time>
      </trkpt>
      <trkpt lat="46.10873" lon="5.91674">
        <ele>480.5</ele>
        <time>2022-09-26T15:07:33Z</time>
      </trkpt>
      <trkpt lat="46.10876" lon="5.91673">
        <ele>480.2</ele>
        <time>2022-09-26T15:07:34Z</time>
      </trkpt>
      <trkpt lat="46.10879" lon="5.91674">
        <ele>479.8</ele>
        <time>2022-09-26T15:07:35Z</time>
      </trkpt>
      <trkpt lat="46.10882" lon="5.91676">
        <ele>479.3</ele>
        <time>2022-09-26T15:07:36Z</time>
      </trkpt>
      <trkpt lat="46.10886" lon="5.9168">
        <ele>478.7</ele>
        <time>2022-09-26T15:07:37Z</time>
      </trkpt>
      <trkpt lat="46.1089" lon="5.91682">
        <ele>478.2</ele>
        <time>2022-09-26T15:07:38Z</time>
      </trkpt>
      <trkpt lat="46.10895" lon="5.91685">
        <ele>477.6</ele>
        <time>2022-09-26T15:07:39Z</time>
      </trkpt>
      <trkpt lat="46.109" lon="5.91687">
        <ele>477</ele>
        <time>2022-09-26T15:07:40Z</time>
      </trkpt>
      <trkpt lat="46.10904" lon="5.91689">
        <ele>476.5</ele>
        <time>2022-09-26T15:07:41Z</time>
      </trkpt>
      <trkpt lat="46.10909" lon="5.91691">
        <ele>476</ele>
        <time>2022-09-26T15:07:42Z</time>
      </trkpt>
      <trkpt lat="46.10915" lon="5.91694">
        <ele>475.4</ele>
        <time>2022-09-26T15:07:43Z</time>
      </trkpt>
      <trkpt lat="46.10919" lon="5.91696">
        <ele>474.9</ele>
        <time>2022-09-26T15:07:44Z</time>
      </trkpt>
      <trkpt lat="46.10924" lon="5.91698">
        <ele>474.4</ele>
        <time>2022-09-26T15:07:45Z</time>
      </trkpt>
      <trkpt lat="46.10927" lon="5.917">
        <ele>474.1</ele>
        <time>2022-09-26T15:07:46Z</time>
      </trkpt>
      <trkpt lat="46.10931" lon="5.91704">
        <ele>473.6</ele>
        <time>2022-09-26T15:07:47Z</time>
      </trkpt>
      <trkpt lat="46.10933" lon="5.91706">
        <ele>473.3</ele>
        <time>2022-09-26T15:07:48Z</time>
      </trkpt>
      <trkpt lat="46.10937" lon="5.91709">
        <ele>472.9</ele>
        <time>2022-09-26T15:07:49Z</time>
      </trkpt>
      <trkpt lat="46.10941" lon="5.91713">
        <ele>472.4</ele>
        <time>2022-09-26T15:07:50Z</time>
      </trkpt>
      <trkpt lat="46.10945" lon="5.91719">
        <ele>471.8</ele>
        <time>2022-09-26T15:07:51Z</time>
      </trkpt>
      <trkpt lat="46.10949" lon="5.91724">
        <ele>471.2</ele>
        <time>2022-09-26T15:07:52Z</time>
      </trkpt>
      <trkpt lat="46.10954" lon="5.91731">
        <ele>470.5</ele>
        <time>2022-09-26T15:07:53Z</time>
      </trkpt>
      <trkpt lat="46.10958" lon="5.91735">
        <ele>470</ele>
        <time>2022-09-26T15:07:54Z</time>
      </trkpt>
      <trkpt lat="46.10963" lon="5.91739">
        <ele>469.4</ele>
        <time>2022-09-26T15:07:55Z</time>
      </trkpt>
      <trkpt lat="46.10967" lon="5.91743">
        <ele>469</ele>
        <time>2022-09-26T15:07:56Z</time>
      </trkpt>
      <trkpt lat="46.10972" lon="5.91747">
        <ele>468.5</ele>
        <time>2022-09-26T15:07:57Z</time>
      </trkpt>
      <trkpt lat="46.10977" lon="5.9175">
        <ele>468</ele>
        <time>2022-09-26T15:07:58Z</time>
      </trkpt>
      <trkpt lat="46.10982" lon="5.91753">
        <ele>467.6</ele>
        <time>2022-09-26T15:07:59Z</time>
      </trkpt>
      <trkpt lat="46.10987" lon="5.91755">
        <ele>467.1</ele>
        <time>2022-09-26T15:08:00Z</time>
      </trkpt>
      <trkpt lat="46.10992" lon="5.91758">
        <ele>466.7</ele>
        <time>2022-09-26T15:08:01Z</time>
      </trkpt>
      <trkpt lat="46.10997" lon="5.91761">
        <ele>466.2</ele>
        <time>2022-09-26T15:08:02Z</time>
      </trkpt>
      <trkpt lat="46.11003" lon="5.91765">
        <ele>465.7</ele>
        <time>2022-09-26T15:08:03Z</time>
      </trkpt>
      <trkpt lat="46.11007" lon="5.91767">
        <ele>465.3</ele>
        <time>2022-09-26T15:08:04Z</time>
      </trkpt>
      <trkpt lat="46.11012" lon="5.91771">
        <ele>464.8</ele>
        <time>2022-09-26T15:08:05Z</time>
      </trkpt>
      <trkpt lat="46.11017" lon="5.91775">
        <ele>464.3</ele>
        <time>2022-09-26T15:08:06Z</time>
      </trkpt>
      <trkpt lat="46.11021" lon="5.91778">
        <ele>463.9</ele>
        <time>2022-09-26T15:08:07Z</time>
      </trkpt>
      <trkpt lat="46.11025" lon="5.91783">
        <ele>463.4</ele>
        <time>2022-09-26T15:08:08Z</time>
      </trkpt>
      <trkpt lat="46.1103" lon="5.91788">
        <ele>463</ele>
        <time>2022-09-26T15:08:09Z</time>
      </trkpt>
      <trkpt lat="46.11033" lon="5.91791">
        <ele>462.6</ele>
        <time>2022-09-26T15:08:10Z</time>
      </trkpt>
      <trkpt lat="46.11038" lon="5.91798">
        <ele>462</ele>
        <time>2022-09-26T15:08:11Z</time>
      </trkpt>
      <trkpt lat="46.11043" lon="5.91804">
        <ele>461.5</ele>
        <time>2022-09-26T15:08:12Z</time>
      </trkpt>
      <trkpt lat="46.11048" lon="5.91809">
        <ele>461</ele>
        <time>2022-09-26T15:08:13Z</time>
      </trkpt>
      <trkpt lat="46.11053" lon="5.91817">
        <ele>460.3</ele>
        <time>2022-09-26T15:08:14Z</time>
      </trkpt>
      <trkpt lat="46.11059" lon="5.91823">
        <ele>459.7</ele>
        <time>2022-09-26T15:08:15Z</time>
      </trkpt>
      <trkpt lat="46.11064" lon="5.9183">
        <ele>459</ele>
        <time>2022-09-26T15:08:16Z</time>
      </trkpt>
      <trkpt lat="46.11069" lon="5.91837">
        <ele>458.4</ele>
        <time>2022-09-26T15:08:17Z</time>
      </trkpt>
      <trkpt lat="46.11075" lon="5.91844">
        <ele>457.7</ele>
        <time>2022-09-26T15:08:18Z</time>
      </trkpt>
      <trkpt lat="46.11081" lon="5.91851">
        <ele>457</ele>
        <time>2022-09-26T15:08:19Z</time>
      </trkpt>
      <trkpt lat="46.11086" lon="5.91858">
        <ele>456.4</ele>
        <time>2022-09-26T15:08:20Z</time>
      </trkpt>
      <trkpt lat="46.11092" lon="5.91865">
        <ele>455.8</ele>
        <time>2022-09-26T15:08:21Z</time>
      </trkpt>
      <trkpt lat="46.11097" lon="5.91871">
        <ele>455.2</ele>
        <time>2022-09-26T15:08:22Z</time>
      </trkpt>
      <trkpt lat="46.11102" lon="5.91878">
        <ele>454.6</ele>
        <time>2022-09-26T15:08:23Z</time>
      </trkpt>
      <trkpt lat="46.11108" lon="5.91885">
        <ele>453.9</ele>
        <time>2022-09-26T15:08:24Z</time>
      </trkpt>
      <trkpt lat="46.11113" lon="5.91892">
        <ele>453.3</ele>
        <time>2022-09-26T15:08:25Z</time>
      </trkpt>
      <trkpt lat="46.11119" lon="5.91898">
        <ele>452.7</ele>
        <time>2022-09-26T15:08:26Z</time>
      </trkpt>
      <trkpt lat="46.11124" lon="5.91905">
        <ele>452.1</ele>
        <time>2022-09-26T15:08:27Z</time>
      </trkpt>
      <trkpt lat="46.11129" lon="5.91912">
        <ele>451.5</ele>
        <time>2022-09-26T15:08:28Z</time>
      </trkpt>
      <trkpt lat="46.11134" lon="5.91917">
        <ele>451</ele>
        <time>2022-09-26T15:08:29Z</time>
      </trkpt>
      <trkpt lat="46.11139" lon="5.91923">
        <ele>450.4</ele>
        <time>2022-09-26T15:08:30Z</time>
      </trkpt>
      <trkpt lat="46.11144" lon="5.9193">
        <ele>449.9</ele>
        <time>2022-09-26T15:08:31Z</time>
      </trkpt>
      <trkpt lat="46.11148" lon="5.91936">
        <ele>449.4</ele>
        <time>2022-09-26T15:08:32Z</time>
      </trkpt>
      <trkpt lat="46.11153" lon="5.91941">
        <ele>449</ele>
        <time>2022-09-26T15:08:33Z</time>
      </trkpt>
      <trkpt lat="46.11158" lon="5.91947">
        <ele>448.6</ele>
        <time>2022-09-26T15:08:34Z</time>
      </trkpt>
      <trkpt lat="46.11163" lon="5.91953">
        <ele>448.2</ele>
        <time>2022-09-26T15:08:35Z</time>
      </trkpt>
      <trkpt lat="46.11169" lon="5.91959">
        <ele>447.8</ele>
        <time>2022-09-26T15:08:36Z</time>
      </trkpt>
      <trkpt lat="46.11175" lon="5.91964">
        <ele>447.3</ele>
        <time>2022-09-26T15:08:37Z</time>
      </trkpt>
      <trkpt lat="46.1118" lon="5.9197">
        <ele>446.9</ele>
        <time>2022-09-26T15:08:38Z</time>
      </trkpt>
      <trkpt lat="46.11186" lon="5.91975">
        <ele>446.5</ele>
        <time>2022-09-26T15:08:39Z</time>
      </trkpt>
      <trkpt lat="46.11191" lon="5.9198">
        <ele>446.1</ele>
        <time>2022-09-26T15:08:40Z</time>
      </trkpt>
      <trkpt lat="46.11196" lon="5.91984">
        <ele>445.7</ele>
        <time>2022-09-26T15:08:41Z</time>
      </trkpt>
      <trkpt lat="46.112" lon="5.91989">
        <ele>445.4</ele>
        <time>2022-09-26T15:08:42Z</time>
      </trkpt>
      <trkpt lat="46.11206" lon="5.91994">
        <ele>445</ele>
        <time>2022-09-26T15:08:43Z</time>
      </trkpt>
      <trkpt lat="46.11211" lon="5.91998">
        <ele>444.6</ele>
        <time>2022-09-26T15:08:44Z</time>
      </trkpt>
      <trkpt lat="46.11216" lon="5.92002">
        <ele>444.3</ele>
        <time>2022-09-26T15:08:45Z</time>
      </trkpt>
      <trkpt lat="46.1122" lon="5.92007">
        <ele>444.1</ele>
        <time>2022-09-26T15:08:46Z</time>
      </trkpt>
      <trkpt lat="46.11224" lon="5.92011">
        <ele>443.8</ele>
        <time>2022-09-26T15:08:47Z</time>
      </trkpt>
      <trkpt lat="46.11227" lon="5.92014">
        <ele>443.7</ele>
        <time>2022-09-26T15:08:48Z</time>
      </trkpt>
      <trkpt lat="46.1123" lon="5.92017">
        <ele>443.5</ele>
        <time>2022-09-26T15:08:49Z</time>
      </trkpt>
      <trkpt lat="46.11232" lon="5.92021">
        <ele>443.4</ele>
        <time>2022-09-26T15:08:50Z</time>
      </trkpt>
      <trkpt lat="46.11235" lon="5.92023">
        <ele>443.3</ele>
        <time>2022-09-26T15:08:51Z</time>
      </trkpt>
      <trkpt lat="46.11235" lon="5.92024">
        <ele>443.3</ele>
        <time>2022-09-26T15:08:52Z</time>
      </trkpt>
      <trkpt lat="46.11238" lon="5.92027">
        <ele>443.2</ele>
        <time>2022-09-26T15:08:53Z</time>
      </trkpt>
      <trkpt lat="46.11239" lon="5.92028">
        <ele>443.1</ele>
        <time>2022-09-26T15:08:54Z</time>
      </trkpt>
      <trkpt lat="46.11239" lon="5.92029">
        <ele>443.1</ele>
        <time>2022-09-26T15:08:55Z</time>
      </trkpt>
      <trkpt lat="46.11239" lon="5.92028">
        <ele>443.1</ele>
        <time>2022-09-26T15:08:56Z</time>
      </trkpt>
      <trkpt lat="46.11239" lon="5.92028">
        <ele>443.1</ele>
        <time>2022-09-26T15:08:57Z</time>
      </trkpt>
      <trkpt lat="46.11238" lon="5.92028">
        <ele>443.1</ele>
        <time>2022-09-26T15:08:58Z</time>
      </trkpt>
      <trkpt lat="46.11238" lon="5.92028">
        <ele>443.1</ele>
        <time>2022-09-26T15:08:59Z</time>
      </trkpt>
      <trkpt lat="46.11238" lon="5.92028">
        <ele>443.1</ele>
        <time>2022-09-26T15:09:00Z</time>
      </trkpt>
      <trkpt lat="46.11238" lon="5.92028">
        <ele>443.1</ele>
        <time>2022-09-26T15:09:01Z</time>
      </trkpt>
      <trkpt lat="46.11238" lon="5.92029">
        <ele>443</ele>
        <time>2022-09-26T15:09:02Z</time>
      </trkpt>
      <trkpt lat="46.11239" lon="5.92029">
        <ele>443</ele>
        <time>2022-09-26T15:09:03Z</time>
      </trkpt>
      <trkpt lat="46.11242" lon="5.9203">
        <ele>443</ele>
        <time>2022-09-26T15:09:04Z</time>
      </trkpt>
      <trkpt lat="46.11248" lon="5.92032">
        <ele>442.8</ele>
        <time>2022-09-26T15:09:05Z</time>
      </trkpt>
      <trkpt lat="46.1125" lon="5.92033">
        <ele>442.7</ele>
        <time>2022-09-26T15:09:06Z</time>
      </trkpt>
      <trkpt lat="46.11253" lon="5.92033">
        <ele>442.7</ele>
        <time>2022-09-26T15:09:07Z</time>
      </trkpt>
      <trkpt lat="46.11257" lon="5.92031">
        <ele>442.5</ele>
        <time>2022-09-26T15:09:08Z</time>
      </trkpt>
      <trkpt lat="46.11262" lon="5.92027">
        <ele>442.3</ele>
        <time>2022-09-26T15:09:09Z</time>
      </trkpt>
      <trkpt lat="46.11265" lon="5.92023">
        <ele>442.1</ele>
        <time>2022-09-26T15:09:10Z</time>
      </trkpt>
      <trkpt lat="46.11271" lon="5.92018">
        <ele>441.8</ele>
        <time>2022-09-26T15:09:11Z</time>
      </trkpt>
      <trkpt lat="46.11276" lon="5.92014">
        <ele>441.6</ele>
        <time>2022-09-26T15:09:12Z</time>
      </trkpt>
      <trkpt lat="46.1128" lon="5.9201">
        <ele>441.3</ele>
        <time>2022-09-26T15:09:13Z</time>
      </trkpt>
      <trkpt lat="46.11286" lon="5.92005">
        <ele>441.1</ele>
        <time>2022-09-26T15:09:14Z</time>
      </trkpt>
      <trkpt lat="46.11291" lon="5.92001">
        <ele>440.8</ele>
        <time>2022-09-26T15:09:15Z</time>
      </trkpt>
      <trkpt lat="46.11296" lon="5.91996">
        <ele>440.5</ele>
        <time>2022-09-26T15:09:16Z</time>
      </trkpt>
      <trkpt lat="46.11301" lon="5.91991">
        <ele>440.2</ele>
        <time>2022-09-26T15:09:17Z</time>
      </trkpt>
      <trkpt lat="46.11307" lon="5.91986">
        <ele>439.9</ele>
        <time>2022-09-26T15:09:18Z</time>
      </trkpt>
      <trkpt lat="46.11313" lon="5.91981">
        <ele>439.6</ele>
        <time>2022-09-26T15:09:19Z</time>
      </trkpt>
      <trkpt lat="46.11319" lon="5.91976">
        <ele>439.2</ele>
        <time>2022-09-26T15:09:20Z</time>
      </trkpt>
      <trkpt lat="46.11324" lon="5.91971">
        <ele>438.9</ele>
        <time>2022-09-26T15:09:21Z</time>
      </trkpt>
      <trkpt lat="46.1133" lon="5.91966">
        <ele>438.6</ele>
        <time>2022-09-26T15:09:22Z</time>
      </trkpt>
      <trkpt lat="46.11336" lon="5.91961">
        <ele>438.2</ele>
        <time>2022-09-26T15:09:23Z</time>
      </trkpt>
      <trkpt lat="46.11341" lon="5.91956">
        <ele>437.8</ele>
        <time>2022-09-26T15:09:24Z</time>
      </trkpt>
      <trkpt lat="46.11347" lon="5.91951">
        <ele>437.5</ele>
        <time>2022-09-26T15:09:25Z</time>
      </trkpt>
      <trkpt lat="46.11352" lon="5.91947">
        <ele>437.1</ele>
        <time>2022-09-26T15:09:26Z</time>
      </trkpt>
      <trkpt lat="46.11359" lon="5.91942">
        <ele>436.7</ele>
        <time>2022-09-26T15:09:27Z</time>
      </trkpt>
      <trkpt lat="46.11364" lon="5.91937">
        <ele>436.3</ele>
        <time>2022-09-26T15:09:28Z</time>
      </trkpt>
      <trkpt lat="46.1137" lon="5.91932">
        <ele>435.9</ele>
        <time>2022-09-26T15:09:29Z</time>
      </trkpt>
      <trkpt lat="46.11376" lon="5.91928">
        <ele>435.4</ele>
        <time>2022-09-26T15:09:30Z</time>
      </trkpt>
      <trkpt lat="46.11383" lon="5.91923">
        <ele>434.9</ele>
        <time>2022-09-26T15:09:31Z</time>
      </trkpt>
      <trkpt lat="46.11389" lon="5.91919">
        <ele>434.5</ele>
        <time>2022-09-26T15:09:32Z</time>
      </trkpt>
      <trkpt lat="46.11396" lon="5.91915">
        <ele>434</ele>
        <time>2022-09-26T15:09:33Z</time>
      </trkpt>
      <trkpt lat="46.11402" lon="5.91912">
        <ele>433.6</ele>
        <time>2022-09-26T15:09:34Z</time>
      </trkpt>
      <trkpt lat="46.11409" lon="5.91909">
        <ele>433.1</ele>
        <time>2022-09-26T15:09:35Z</time>
      </trkpt>
      <trkpt lat="46.11415" lon="5.91906">
        <ele>432.6</ele>
        <time>2022-09-26T15:09:36Z</time>
      </trkpt>
      <trkpt lat="46.11422" lon="5.91903">
        <ele>432.2</ele>
        <time>2022-09-26T15:09:37Z</time>
      </trkpt>
      <trkpt lat="46.1143" lon="5.919">
        <ele>431.6</ele>
        <time>2022-09-26T15:09:38Z</time>
      </trkpt>
      <trkpt lat="46.11437" lon="5.91897">
        <ele>431</ele>
        <time>2022-09-26T15:09:39Z</time>
      </trkpt>
      <trkpt lat="46.11444" lon="5.91895">
        <ele>430.5</ele>
        <time>2022-09-26T15:09:40Z</time>
      </trkpt>
      <trkpt lat="46.11451" lon="5.91893">
        <ele>429.9</ele>
        <time>2022-09-26T15:09:41Z</time>
      </trkpt>
      <trkpt lat="46.1146" lon="5.91891">
        <ele>429.5</ele>
        <time>2022-09-26T15:09:42Z</time>
      </trkpt>
      <trkpt lat="46.11468" lon="5.91889">
        <ele>429.1</ele>
        <time>2022-09-26T15:09:43Z</time>
      </trkpt>
      <trkpt lat="46.11476" lon="5.91887">
        <ele>428.6</ele>
        <time>2022-09-26T15:09:44Z</time>
      </trkpt>
      <trkpt lat="46.11484" lon="5.91886">
        <ele>428</ele>
        <time>2022-09-26T15:09:45Z</time>
      </trkpt>
      <trkpt lat="46.11493" lon="5.91884">
        <ele>427.4</ele>
        <time>2022-09-26T15:09:46Z</time>
      </trkpt>
      <trkpt lat="46.11501" lon="5.91883">
        <ele>426.8</ele>
        <time>2022-09-26T15:09:47Z</time>
      </trkpt>
      <trkpt lat="46.11509" lon="5.91882">
        <ele>426.2</ele>
        <time>2022-09-26T15:09:48Z</time>
      </trkpt>
      <trkpt lat="46.11518" lon="5.9188">
        <ele>425.7</ele>
        <time>2022-09-26T15:09:49Z</time>
      </trkpt>
      <trkpt lat="46.11526" lon="5.91878">
        <ele>425.1</ele>
        <time>2022-09-26T15:09:50Z</time>
      </trkpt>
      <trkpt lat="46.11535" lon="5.91877">
        <ele>424.5</ele>
        <time>2022-09-26T15:09:51Z</time>
      </trkpt>
      <trkpt lat="46.11544" lon="5.91875">
        <ele>424</ele>
        <time>2022-09-26T15:09:52Z</time>
      </trkpt>
      <trkpt lat="46.11552" lon="5.91874">
        <ele>423.5</ele>
        <time>2022-09-26T15:09:53Z</time>
      </trkpt>
      <trkpt lat="46.1156" lon="5.91872">
        <ele>423.1</ele>
        <time>2022-09-26T15:09:54Z</time>
      </trkpt>
      <trkpt lat="46.11569" lon="5.91871">
        <ele>422.6</ele>
        <time>2022-09-26T15:09:55Z</time>
      </trkpt>
      <trkpt lat="46.11577" lon="5.9187">
        <ele>422.2</ele>
        <time>2022-09-26T15:09:56Z</time>
      </trkpt>
      <trkpt lat="46.11584" lon="5.91869">
        <ele>421.9</ele>
        <time>2022-09-26T15:09:57Z</time>
      </trkpt>
      <trkpt lat="46.11591" lon="5.91866">
        <ele>421.7</ele>
        <time>2022-09-26T15:09:58Z</time>
      </trkpt>
      <trkpt lat="46.11598" lon="5.91865">
        <ele>421.5</ele>
        <time>2022-09-26T15:09:59Z</time>
      </trkpt>
      <trkpt lat="46.11605" lon="5.91862">
        <ele>421.3</ele>
        <time>2022-09-26T15:10:00Z</time>
      </trkpt>
      <trkpt lat="46.11613" lon="5.91859">
        <ele>421.1</ele>
        <time>2022-09-26T15:10:01Z</time>
      </trkpt>
      <trkpt lat="46.1162" lon="5.91859">
        <ele>421</ele>
        <time>2022-09-26T15:10:02Z</time>
      </trkpt>
      <trkpt lat="46.11629" lon="5.91858">
        <ele>420.8</ele>
        <time>2022-09-26T15:10:03Z</time>
      </trkpt>
      <trkpt lat="46.11637" lon="5.91857">
        <ele>420.7</ele>
        <time>2022-09-26T15:10:04Z</time>
      </trkpt>
      <trkpt lat="46.11645" lon="5.91856">
        <ele>420.5</ele>
        <time>2022-09-26T15:10:05Z</time>
      </trkpt>
      <trkpt lat="46.11653" lon="5.91855">
        <ele>420.4</ele>
        <time>2022-09-26T15:10:06Z</time>
      </trkpt>
      <trkpt lat="46.1166" lon="5.91853">
        <ele>420.3</ele>
        <time>2022-09-26T15:10:07Z</time>
      </trkpt>
      <trkpt lat="46.11667" lon="5.91852">
        <ele>420.3</ele>
        <time>2022-09-26T15:10:08Z</time>
      </trkpt>
      <trkpt lat="46.11674" lon="5.91851">
        <ele>420.2</ele>
        <time>2022-09-26T15:10:09Z</time>
      </trkpt>
      <trkpt lat="46.1168" lon="5.9185">
        <ele>420.2</ele>
        <time>2022-09-26T15:10:11Z</time>
      </trkpt>
      <trkpt lat="46.11687" lon="5.91849">
        <ele>420.2</ele>
        <time>2022-09-26T15:10:12Z</time>
      </trkpt>
      <trkpt lat="46.11694" lon="5.91847">
        <ele>420.2</ele>
        <time>2022-09-26T15:10:13Z</time>
      </trkpt>
      <trkpt lat="46.117" lon="5.91847">
        <ele>420.2</ele>
        <time>2022-09-26T15:10:14Z</time>
      </trkpt>
      <trkpt lat="46.11707" lon="5.91846">
        <ele>420.2</ele>
        <time>2022-09-26T15:10:15Z</time>
      </trkpt>
      <trkpt lat="46.11714" lon="5.91846">
        <ele>420.2</ele>
        <time>2022-09-26T15:10:16Z</time>
      </trkpt>
      <trkpt lat="46.1172" lon="5.91845">
        <ele>420.2</ele>
        <time>2022-09-26T15:10:17Z</time>
      </trkpt>
      <trkpt lat="46.11727" lon="5.91845">
        <ele>420.3</ele>
        <time>2022-09-26T15:10:18Z</time>
      </trkpt>
      <trkpt lat="46.11734" lon="5.91844">
        <ele>420.3</ele>
        <time>2022-09-26T15:10:19Z</time>
      </trkpt>
      <trkpt lat="46.1174" lon="5.91844">
        <ele>420.3</ele>
        <time>2022-09-26T15:10:20Z</time>
      </trkpt>
      <trkpt lat="46.11746" lon="5.91845">
        <ele>420.3</ele>
        <time>2022-09-26T15:10:21Z</time>
      </trkpt>
      <trkpt lat="46.11752" lon="5.91846">
        <ele>420.3</ele>
        <time>2022-09-26T15:10:22Z</time>
      </trkpt>
      <trkpt lat="46.11758" lon="5.91847">
        <ele>420.3</ele>
        <time>2022-09-26T15:10:23Z</time>
      </trkpt>
      <trkpt lat="46.11772" lon="5.91849">
        <ele>420.1</ele>
        <time>2022-09-26T15:10:24Z</time>
      </trkpt>
      <trkpt lat="46.11779" lon="5.91851">
        <ele>420</ele>
        <time>2022-09-26T15:10:25Z</time>
      </trkpt>
      <trkpt lat="46.11785" lon="5.91853">
        <ele>419.9</ele>
        <time>2022-09-26T15:10:27Z</time>
      </trkpt>
      <trkpt lat="46.11792" lon="5.91854">
        <ele>419.8</ele>
        <time>2022-09-26T15:10:28Z</time>
      </trkpt>
      <trkpt lat="46.11799" lon="5.91856">
        <ele>419.5</ele>
        <time>2022-09-26T15:10:29Z</time>
      </trkpt>
      <trkpt lat="46.11806" lon="5.91858">
        <ele>419.2</ele>
        <time>2022-09-26T15:10:30Z</time>
      </trkpt>
      <trkpt lat="46.11813" lon="5.9186">
        <ele>418.9</ele>
        <time>2022-09-26T15:10:31Z</time>
      </trkpt>
      <trkpt lat="46.1182" lon="5.91861">
        <ele>418.6</ele>
        <time>2022-09-26T15:10:32Z</time>
      </trkpt>
      <trkpt lat="46.11827" lon="5.91863">
        <ele>418.3</ele>
        <time>2022-09-26T15:10:33Z</time>
      </trkpt>
      <trkpt lat="46.11842" lon="5.91868">
        <ele>417.6</ele>
        <time>2022-09-26T15:10:34Z</time>
      </trkpt>
      <trkpt lat="46.11849" lon="5.9187">
        <ele>417.3</ele>
        <time>2022-09-26T15:10:35Z</time>
      </trkpt>
      <trkpt lat="46.11857" lon="5.91872">
        <ele>416.9</ele>
        <time>2022-09-26T15:10:36Z</time>
      </trkpt>
      <trkpt lat="46.11864" lon="5.91874">
        <ele>416.6</ele>
        <time>2022-09-26T15:10:37Z</time>
      </trkpt>
      <trkpt lat="46.11871" lon="5.91876">
        <ele>416.2</ele>
        <time>2022-09-26T15:10:38Z</time>
      </trkpt>
      <trkpt lat="46.11879" lon="5.91879">
        <ele>415.8</ele>
        <time>2022-09-26T15:10:39Z</time>
      </trkpt>
      <trkpt lat="46.11886" lon="5.91881">
        <ele>415.4</ele>
        <time>2022-09-26T15:10:40Z</time>
      </trkpt>
      <trkpt lat="46.11894" lon="5.91883">
        <ele>415</ele>
        <time>2022-09-26T15:10:41Z</time>
      </trkpt>
      <trkpt lat="46.11901" lon="5.91885">
        <ele>414.6</ele>
        <time>2022-09-26T15:10:42Z</time>
      </trkpt>
      <trkpt lat="46.11908" lon="5.91887">
        <ele>414.2</ele>
        <time>2022-09-26T15:10:43Z</time>
      </trkpt>
      <trkpt lat="46.11915" lon="5.91889">
        <ele>413.9</ele>
        <time>2022-09-26T15:10:44Z</time>
      </trkpt>
      <trkpt lat="46.11922" lon="5.91891">
        <ele>413.5</ele>
        <time>2022-09-26T15:10:45Z</time>
      </trkpt>
      <trkpt lat="46.11929" lon="5.91893">
        <ele>413.1</ele>
        <time>2022-09-26T15:10:46Z</time>
      </trkpt>
      <trkpt lat="46.11935" lon="5.91895">
        <ele>412.7</ele>
        <time>2022-09-26T15:10:47Z</time>
      </trkpt>
      <trkpt lat="46.11942" lon="5.91897">
        <ele>412.4</ele>
        <time>2022-09-26T15:10:48Z</time>
      </trkpt>
      <trkpt lat="46.11949" lon="5.91899">
        <ele>412</ele>
        <time>2022-09-26T15:10:49Z</time>
      </trkpt>
      <trkpt lat="46.11956" lon="5.919">
        <ele>411.6</ele>
        <time>2022-09-26T15:10:50Z</time>
      </trkpt>
      <trkpt lat="46.11964" lon="5.91902">
        <ele>411.2</ele>
        <time>2022-09-26T15:10:51Z</time>
      </trkpt>
      <trkpt lat="46.11971" lon="5.91903">
        <ele>410.8</ele>
        <time>2022-09-26T15:10:52Z</time>
      </trkpt>
      <trkpt lat="46.11979" lon="5.91904">
        <ele>410.4</ele>
        <time>2022-09-26T15:10:53Z</time>
      </trkpt>
      <trkpt lat="46.11986" lon="5.91905">
        <ele>410</ele>
        <time>2022-09-26T15:10:54Z</time>
      </trkpt>
      <trkpt lat="46.11993" lon="5.91905">
        <ele>409.6</ele>
        <time>2022-09-26T15:10:55Z</time>
      </trkpt>
      <trkpt lat="46.12001" lon="5.91906">
        <ele>409.2</ele>
        <time>2022-09-26T15:10:56Z</time>
      </trkpt>
      <trkpt lat="46.12008" lon="5.91906">
        <ele>408.8</ele>
        <time>2022-09-26T15:10:57Z</time>
      </trkpt>
      <trkpt lat="46.12015" lon="5.91906">
        <ele>408.4</ele>
        <time>2022-09-26T15:10:58Z</time>
      </trkpt>
      <trkpt lat="46.12022" lon="5.91907">
        <ele>408</ele>
        <time>2022-09-26T15:10:59Z</time>
      </trkpt>
      <trkpt lat="46.1203" lon="5.91906">
        <ele>407.6</ele>
        <time>2022-09-26T15:11:00Z</time>
      </trkpt>
      <trkpt lat="46.12037" lon="5.91905">
        <ele>407.2</ele>
        <time>2022-09-26T15:11:01Z</time>
      </trkpt>
      <trkpt lat="46.12044" lon="5.91905">
        <ele>406.8</ele>
        <time>2022-09-26T15:11:02Z</time>
      </trkpt>
      <trkpt lat="46.12052" lon="5.91906">
        <ele>406.4</ele>
        <time>2022-09-26T15:11:03Z</time>
      </trkpt>
      <trkpt lat="46.12059" lon="5.91906">
        <ele>406</ele>
        <time>2022-09-26T15:11:04Z</time>
      </trkpt>
      <trkpt lat="46.12065" lon="5.91905">
        <ele>405.6</ele>
        <time>2022-09-26T15:11:05Z</time>
      </trkpt>
      <trkpt lat="46.12071" lon="5.91906">
        <ele>405.2</ele>
        <time>2022-09-26T15:11:06Z</time>
      </trkpt>
      <trkpt lat="46.12077" lon="5.91907">
        <ele>404.8</ele>
        <time>2022-09-26T15:11:07Z</time>
      </trkpt>
      <trkpt lat="46.12083" lon="5.91908">
        <ele>404.4</ele>
        <time>2022-09-26T15:11:08Z</time>
      </trkpt>
      <trkpt lat="46.12089" lon="5.91908">
        <ele>404.1</ele>
        <time>2022-09-26T15:11:09Z</time>
      </trkpt>
      <trkpt lat="46.12094" lon="5.91909">
        <ele>403.7</ele>
        <time>2022-09-26T15:11:10Z</time>
      </trkpt>
      <trkpt lat="46.121" lon="5.91909">
        <ele>403.3</ele>
        <time>2022-09-26T15:11:11Z</time>
      </trkpt>
      <trkpt lat="46.12105" lon="5.91909">
        <ele>403</ele>
        <time>2022-09-26T15:11:12Z</time>
      </trkpt>
      <trkpt lat="46.12111" lon="5.91909">
        <ele>402.6</ele>
        <time>2022-09-26T15:11:13Z</time>
      </trkpt>
      <trkpt lat="46.12117" lon="5.91909">
        <ele>402.3</ele>
        <time>2022-09-26T15:11:14Z</time>
      </trkpt>
      <trkpt lat="46.12123" lon="5.91908">
        <ele>401.9</ele>
        <time>2022-09-26T15:11:15Z</time>
      </trkpt>
      <trkpt lat="46.12129" lon="5.91907">
        <ele>401.7</ele>
        <time>2022-09-26T15:11:16Z</time>
      </trkpt>
      <trkpt lat="46.12134" lon="5.91906">
        <ele>401.4</ele>
        <time>2022-09-26T15:11:17Z</time>
      </trkpt>
      <trkpt lat="46.12138" lon="5.91904">
        <ele>401.1</ele>
        <time>2022-09-26T15:11:18Z</time>
      </trkpt>
      <trkpt lat="46.12144" lon="5.91901">
        <ele>400.8</ele>
        <time>2022-09-26T15:11:19Z</time>
      </trkpt>
      <trkpt lat="46.12149" lon="5.91898">
        <ele>400.5</ele>
        <time>2022-09-26T15:11:20Z</time>
      </trkpt>
      <trkpt lat="46.12154" lon="5.91894">
        <ele>400.2</ele>
        <time>2022-09-26T15:11:21Z</time>
      </trkpt>
      <trkpt lat="46.12159" lon="5.9189">
        <ele>399.9</ele>
        <time>2022-09-26T15:11:22Z</time>
      </trkpt>
      <trkpt lat="46.12164" lon="5.91885">
        <ele>399.5</ele>
        <time>2022-09-26T15:11:23Z</time>
      </trkpt>
      <trkpt lat="46.12168" lon="5.91881">
        <ele>399.2</ele>
        <time>2022-09-26T15:11:24Z</time>
      </trkpt>
      <trkpt lat="46.12172" lon="5.91875">
        <ele>398.8</ele>
        <time>2022-09-26T15:11:25Z</time>
      </trkpt>
      <trkpt lat="46.12176" lon="5.9187">
        <ele>398.5</ele>
        <time>2022-09-26T15:11:26Z</time>
      </trkpt>
      <trkpt lat="46.1218" lon="5.91863">
        <ele>398.1</ele>
        <time>2022-09-26T15:11:27Z</time>
      </trkpt>
      <trkpt lat="46.12184" lon="5.91857">
        <ele>397.7</ele>
        <time>2022-09-26T15:11:28Z</time>
      </trkpt>
      <trkpt lat="46.12186" lon="5.9185">
        <ele>397.4</ele>
        <time>2022-09-26T15:11:29Z</time>
      </trkpt>
      <trkpt lat="46.12189" lon="5.91841">
        <ele>397</ele>
        <time>2022-09-26T15:11:30Z</time>
      </trkpt>
      <trkpt lat="46.12192" lon="5.91833">
        <ele>396.7</ele>
        <time>2022-09-26T15:11:31Z</time>
      </trkpt>
      <trkpt lat="46.12195" lon="5.91825">
        <ele>396.4</ele>
        <time>2022-09-26T15:11:32Z</time>
      </trkpt>
      <trkpt lat="46.12197" lon="5.91818">
        <ele>396.1</ele>
        <time>2022-09-26T15:11:33Z</time>
      </trkpt>
      <trkpt lat="46.12199" lon="5.91811">
        <ele>395.8</ele>
        <time>2022-09-26T15:11:34Z</time>
      </trkpt>
      <trkpt lat="46.122" lon="5.91802">
        <ele>395.4</ele>
        <time>2022-09-26T15:11:35Z</time>
      </trkpt>
      <trkpt lat="46.12201" lon="5.91793">
        <ele>395.1</ele>
        <time>2022-09-26T15:11:36Z</time>
      </trkpt>
      <trkpt lat="46.12201" lon="5.91785">
        <ele>394.8</ele>
        <time>2022-09-26T15:11:37Z</time>
      </trkpt>
      <trkpt lat="46.12201" lon="5.91776">
        <ele>394.5</ele>
        <time>2022-09-26T15:11:38Z</time>
      </trkpt>
      <trkpt lat="46.12202" lon="5.91767">
        <ele>394.1</ele>
        <time>2022-09-26T15:11:39Z</time>
      </trkpt>
      <trkpt lat="46.12202" lon="5.91759">
        <ele>393.9</ele>
        <time>2022-09-26T15:11:40Z</time>
      </trkpt>
      <trkpt lat="46.12202" lon="5.91751">
        <ele>393.6</ele>
        <time>2022-09-26T15:11:41Z</time>
      </trkpt>
      <trkpt lat="46.12203" lon="5.91742">
        <ele>393.3</ele>
        <time>2022-09-26T15:11:42Z</time>
      </trkpt>
      <trkpt lat="46.12203" lon="5.91735">
        <ele>393</ele>
        <time>2022-09-26T15:11:43Z</time>
      </trkpt>
      <trkpt lat="46.12203" lon="5.91727">
        <ele>392.7</ele>
        <time>2022-09-26T15:11:44Z</time>
      </trkpt>
      <trkpt lat="46.12203" lon="5.91719">
        <ele>392.5</ele>
        <time>2022-09-26T15:11:45Z</time>
      </trkpt>
      <trkpt lat="46.12203" lon="5.9171">
        <ele>392.2</ele>
        <time>2022-09-26T15:11:46Z</time>
      </trkpt>
      <trkpt lat="46.12203" lon="5.91702">
        <ele>391.9</ele>
        <time>2022-09-26T15:11:47Z</time>
      </trkpt>
      <trkpt lat="46.12203" lon="5.91693">
        <ele>391.6</ele>
        <time>2022-09-26T15:11:48Z</time>
      </trkpt>
      <trkpt lat="46.12203" lon="5.91686">
        <ele>391.3</ele>
        <time>2022-09-26T15:11:49Z</time>
      </trkpt>
      <trkpt lat="46.12203" lon="5.91678">
        <ele>391</ele>
        <time>2022-09-26T15:11:50Z</time>
      </trkpt>
      <trkpt lat="46.12202" lon="5.9167">
        <ele>390.7</ele>
        <time>2022-09-26T15:11:51Z</time>
      </trkpt>
      <trkpt lat="46.12202" lon="5.91661">
        <ele>390.3</ele>
        <time>2022-09-26T15:11:52Z</time>
      </trkpt>
      <trkpt lat="46.12201" lon="5.91653">
        <ele>390</ele>
        <time>2022-09-26T15:11:53Z</time>
      </trkpt>
      <trkpt lat="46.122" lon="5.91645">
        <ele>389.7</ele>
        <time>2022-09-26T15:11:54Z</time>
      </trkpt>
      <trkpt lat="46.12199" lon="5.91636">
        <ele>389.4</ele>
        <time>2022-09-26T15:11:55Z</time>
      </trkpt>
      <trkpt lat="46.12198" lon="5.91627">
        <ele>389</ele>
        <time>2022-09-26T15:11:56Z</time>
      </trkpt>
      <trkpt lat="46.12196" lon="5.91619">
        <ele>388.7</ele>
        <time>2022-09-26T15:11:57Z</time>
      </trkpt>
      <trkpt lat="46.12195" lon="5.91611">
        <ele>388.3</ele>
        <time>2022-09-26T15:11:58Z</time>
      </trkpt>
      <trkpt lat="46.12193" lon="5.91601">
        <ele>387.9</ele>
        <time>2022-09-26T15:11:59Z</time>
      </trkpt>
      <trkpt lat="46.12191" lon="5.91593">
        <ele>387.5</ele>
        <time>2022-09-26T15:12:00Z</time>
      </trkpt>
      <trkpt lat="46.12189" lon="5.91584">
        <ele>387.1</ele>
        <time>2022-09-26T15:12:01Z</time>
      </trkpt>
      <trkpt lat="46.12186" lon="5.91574">
        <ele>386.7</ele>
        <time>2022-09-26T15:12:02Z</time>
      </trkpt>
      <trkpt lat="46.12184" lon="5.91564">
        <ele>386.3</ele>
        <time>2022-09-26T15:12:03Z</time>
      </trkpt>
      <trkpt lat="46.12181" lon="5.91556">
        <ele>385.9</ele>
        <time>2022-09-26T15:12:04Z</time>
      </trkpt>
      <trkpt lat="46.12179" lon="5.91548">
        <ele>385.6</ele>
        <time>2022-09-26T15:12:05Z</time>
      </trkpt>
      <trkpt lat="46.12176" lon="5.9154">
        <ele>385.2</ele>
        <time>2022-09-26T15:12:06Z</time>
      </trkpt>
      <trkpt lat="46.12174" lon="5.91533">
        <ele>385</ele>
        <time>2022-09-26T15:12:07Z</time>
      </trkpt>
      <trkpt lat="46.12172" lon="5.91527">
        <ele>384.7</ele>
        <time>2022-09-26T15:12:08Z</time>
      </trkpt>
      <trkpt lat="46.12168" lon="5.91519">
        <ele>384.3</ele>
        <time>2022-09-26T15:12:09Z</time>
      </trkpt>
      <trkpt lat="46.12165" lon="5.91512">
        <ele>384</ele>
        <time>2022-09-26T15:12:10Z</time>
      </trkpt>
      <trkpt lat="46.12161" lon="5.91503">
        <ele>383.6</ele>
        <time>2022-09-26T15:12:11Z</time>
      </trkpt>
      <trkpt lat="46.12157" lon="5.91496">
        <ele>383.3</ele>
        <time>2022-09-26T15:12:12Z</time>
      </trkpt>
      <trkpt lat="46.12153" lon="5.9149">
        <ele>383</ele>
        <time>2022-09-26T15:12:13Z</time>
      </trkpt>
      <trkpt lat="46.1215" lon="5.91483">
        <ele>382.8</ele>
        <time>2022-09-26T15:12:14Z</time>
      </trkpt>
      <trkpt lat="46.12146" lon="5.91478">
        <ele>382.5</ele>
        <time>2022-09-26T15:12:15Z</time>
      </trkpt>
      <trkpt lat="46.12142" lon="5.91471">
        <ele>382.2</ele>
        <time>2022-09-26T15:12:17Z</time>
      </trkpt>
      <trkpt lat="46.12139" lon="5.91465">
        <ele>381.9</ele>
        <time>2022-09-26T15:12:18Z</time>
      </trkpt>
      <trkpt lat="46.12136" lon="5.9146">
        <ele>381.7</ele>
        <time>2022-09-26T15:12:19Z</time>
      </trkpt>
      <trkpt lat="46.12133" lon="5.91454">
        <ele>381.4</ele>
        <time>2022-09-26T15:12:20Z</time>
      </trkpt>
      <trkpt lat="46.12131" lon="5.91448">
        <ele>381.1</ele>
        <time>2022-09-26T15:12:21Z</time>
      </trkpt>
      <trkpt lat="46.12129" lon="5.91442">
        <ele>380.8</ele>
        <time>2022-09-26T15:12:22Z</time>
      </trkpt>
      <trkpt lat="46.12127" lon="5.91435">
        <ele>380.5</ele>
        <time>2022-09-26T15:12:23Z</time>
      </trkpt>
      <trkpt lat="46.12127" lon="5.91428">
        <ele>380.2</ele>
        <time>2022-09-26T15:12:24Z</time>
      </trkpt>
      <trkpt lat="46.12126" lon="5.9142">
        <ele>379.8</ele>
        <time>2022-09-26T15:12:25Z</time>
      </trkpt>
      <trkpt lat="46.12126" lon="5.91411">
        <ele>379.5</ele>
        <time>2022-09-26T15:12:26Z</time>
      </trkpt>
      <trkpt lat="46.12127" lon="5.91402">
        <ele>379.1</ele>
        <time>2022-09-26T15:12:27Z</time>
      </trkpt>
      <trkpt lat="46.12128" lon="5.91394">
        <ele>378.6</ele>
        <time>2022-09-26T15:12:28Z</time>
      </trkpt>
      <trkpt lat="46.1213" lon="5.91385">
        <ele>378.2</ele>
        <time>2022-09-26T15:12:29Z</time>
      </trkpt>
      <trkpt lat="46.12131" lon="5.91376">
        <ele>377.8</ele>
        <time>2022-09-26T15:12:30Z</time>
      </trkpt>
      <trkpt lat="46.12132" lon="5.91367">
        <ele>377.3</ele>
        <time>2022-09-26T15:12:31Z</time>
      </trkpt>
      <trkpt lat="46.12134" lon="5.91357">
        <ele>376.8</ele>
        <time>2022-09-26T15:12:32Z</time>
      </trkpt>
      <trkpt lat="46.12134" lon="5.91348">
        <ele>376.4</ele>
        <time>2022-09-26T15:12:33Z</time>
      </trkpt>
      <trkpt lat="46.12135" lon="5.91339">
        <ele>375.9</ele>
        <time>2022-09-26T15:12:34Z</time>
      </trkpt>
      <trkpt lat="46.12135" lon="5.9133">
        <ele>375.5</ele>
        <time>2022-09-26T15:12:35Z</time>
      </trkpt>
      <trkpt lat="46.12134" lon="5.91321">
        <ele>375.1</ele>
        <time>2022-09-26T15:12:36Z</time>
      </trkpt>
      <trkpt lat="46.12134" lon="5.91313">
        <ele>374.7</ele>
        <time>2022-09-26T15:12:37Z</time>
      </trkpt>
      <trkpt lat="46.12134" lon="5.91305">
        <ele>374.3</ele>
        <time>2022-09-26T15:12:38Z</time>
      </trkpt>
      <trkpt lat="46.12134" lon="5.91297">
        <ele>374</ele>
        <time>2022-09-26T15:12:39Z</time>
      </trkpt>
      <trkpt lat="46.12133" lon="5.91289">
        <ele>373.6</ele>
        <time>2022-09-26T15:12:40Z</time>
      </trkpt>
      <trkpt lat="46.12132" lon="5.91281">
        <ele>373.3</ele>
        <time>2022-09-26T15:12:41Z</time>
      </trkpt>
      <trkpt lat="46.12131" lon="5.91261">
        <ele>372.6</ele>
        <time>2022-09-26T15:12:42Z</time>
      </trkpt>
      <trkpt lat="46.1213" lon="5.91251">
        <ele>372.2</ele>
        <time>2022-09-26T15:12:43Z</time>
      </trkpt>
      <trkpt lat="46.12129" lon="5.91242">
        <ele>371.9</ele>
        <time>2022-09-26T15:12:44Z</time>
      </trkpt>
      <trkpt lat="46.12128" lon="5.91232">
        <ele>371.6</ele>
        <time>2022-09-26T15:12:45Z</time>
      </trkpt>
      <trkpt lat="46.12126" lon="5.91223">
        <ele>371.3</ele>
        <time>2022-09-26T15:12:46Z</time>
      </trkpt>
      <trkpt lat="46.12124" lon="5.91215">
        <ele>371</ele>
        <time>2022-09-26T15:12:47Z</time>
      </trkpt>
      <trkpt lat="46.12123" lon="5.91206">
        <ele>370.7</ele>
        <time>2022-09-26T15:12:48Z</time>
      </trkpt>
      <trkpt lat="46.12123" lon="5.91198">
        <ele>370.4</ele>
        <time>2022-09-26T15:12:49Z</time>
      </trkpt>
      <trkpt lat="46.12122" lon="5.91188">
        <ele>370</ele>
        <time>2022-09-26T15:12:50Z</time>
      </trkpt>
      <trkpt lat="46.12121" lon="5.91178">
        <ele>369.6</ele>
        <time>2022-09-26T15:12:51Z</time>
      </trkpt>
      <trkpt lat="46.12121" lon="5.91169">
        <ele>369.3</ele>
        <time>2022-09-26T15:12:52Z</time>
      </trkpt>
      <trkpt lat="46.1212" lon="5.9116">
        <ele>369</ele>
        <time>2022-09-26T15:12:53Z</time>
      </trkpt>
      <trkpt lat="46.1212" lon="5.9115">
        <ele>368.7</ele>
        <time>2022-09-26T15:12:54Z</time>
      </trkpt>
      <trkpt lat="46.1212" lon="5.91141">
        <ele>368.4</ele>
        <time>2022-09-26T15:12:55Z</time>
      </trkpt>
      <trkpt lat="46.1212" lon="5.91131">
        <ele>368.1</ele>
        <time>2022-09-26T15:12:56Z</time>
      </trkpt>
      <trkpt lat="46.12121" lon="5.91122">
        <ele>367.9</ele>
        <time>2022-09-26T15:12:57Z</time>
      </trkpt>
      <trkpt lat="46.12122" lon="5.91112">
        <ele>367.6</ele>
        <time>2022-09-26T15:12:58Z</time>
      </trkpt>
      <trkpt lat="46.12122" lon="5.91101">
        <ele>367.4</ele>
        <time>2022-09-26T15:12:59Z</time>
      </trkpt>
      <trkpt lat="46.12123" lon="5.91091">
        <ele>367.2</ele>
        <time>2022-09-26T15:13:00Z</time>
      </trkpt>
      <trkpt lat="46.12123" lon="5.91082">
        <ele>367</ele>
        <time>2022-09-26T15:13:01Z</time>
      </trkpt>
      <trkpt lat="46.12124" lon="5.91073">
        <ele>366.8</ele>
        <time>2022-09-26T15:13:02Z</time>
      </trkpt>
      <trkpt lat="46.12124" lon="5.91064">
        <ele>366.7</ele>
        <time>2022-09-26T15:13:03Z</time>
      </trkpt>
      <trkpt lat="46.12125" lon="5.91055">
        <ele>366.5</ele>
        <time>2022-09-26T15:13:04Z</time>
      </trkpt>
      <trkpt lat="46.12125" lon="5.91046">
        <ele>366.3</ele>
        <time>2022-09-26T15:13:05Z</time>
      </trkpt>
      <trkpt lat="46.12125" lon="5.91037">
        <ele>366.1</ele>
        <time>2022-09-26T15:13:06Z</time>
      </trkpt>
      <trkpt lat="46.12125" lon="5.91029">
        <ele>365.9</ele>
        <time>2022-09-26T15:13:07Z</time>
      </trkpt>
      <trkpt lat="46.12126" lon="5.91021">
        <ele>365.7</ele>
        <time>2022-09-26T15:13:08Z</time>
      </trkpt>
      <trkpt lat="46.12127" lon="5.91014">
        <ele>365.5</ele>
        <time>2022-09-26T15:13:09Z</time>
      </trkpt>
      <trkpt lat="46.12127" lon="5.91006">
        <ele>365.3</ele>
        <time>2022-09-26T15:13:10Z</time>
      </trkpt>
      <trkpt lat="46.12127" lon="5.90998">
        <ele>365.1</ele>
        <time>2022-09-26T15:13:11Z</time>
      </trkpt>
      <trkpt lat="46.12126" lon="5.90992">
        <ele>364.9</ele>
        <time>2022-09-26T15:13:12Z</time>
      </trkpt>
      <trkpt lat="46.12124" lon="5.90986">
        <ele>364.7</ele>
        <time>2022-09-26T15:13:13Z</time>
      </trkpt>
      <trkpt lat="46.12124" lon="5.90979">
        <ele>364.4</ele>
        <time>2022-09-26T15:13:14Z</time>
      </trkpt>
      <trkpt lat="46.12123" lon="5.90971">
        <ele>364.2</ele>
        <time>2022-09-26T15:13:15Z</time>
      </trkpt>
      <trkpt lat="46.12122" lon="5.90964">
        <ele>363.9</ele>
        <time>2022-09-26T15:13:16Z</time>
      </trkpt>
      <trkpt lat="46.12121" lon="5.90956">
        <ele>363.6</ele>
        <time>2022-09-26T15:13:17Z</time>
      </trkpt>
      <trkpt lat="46.1212" lon="5.90949">
        <ele>363.4</ele>
        <time>2022-09-26T15:13:18Z</time>
      </trkpt>
      <trkpt lat="46.12119" lon="5.90941">
        <ele>363.1</ele>
        <time>2022-09-26T15:13:19Z</time>
      </trkpt>
      <trkpt lat="46.12117" lon="5.90934">
        <ele>362.8</ele>
        <time>2022-09-26T15:13:20Z</time>
      </trkpt>
      <trkpt lat="46.12115" lon="5.90926">
        <ele>362.5</ele>
        <time>2022-09-26T15:13:21Z</time>
      </trkpt>
      <trkpt lat="46.12114" lon="5.90918">
        <ele>362.2</ele>
        <time>2022-09-26T15:13:22Z</time>
      </trkpt>
      <trkpt lat="46.12112" lon="5.90907">
        <ele>361.8</ele>
        <time>2022-09-26T15:13:23Z</time>
      </trkpt>
      <trkpt lat="46.1211" lon="5.90898">
        <ele>361.5</ele>
        <time>2022-09-26T15:13:24Z</time>
      </trkpt>
      <trkpt lat="46.12106" lon="5.90889">
        <ele>361.1</ele>
        <time>2022-09-26T15:13:25Z</time>
      </trkpt>
      <trkpt lat="46.12104" lon="5.90881">
        <ele>360.8</ele>
        <time>2022-09-26T15:13:26Z</time>
      </trkpt>
      <trkpt lat="46.12101" lon="5.90873">
        <ele>360.5</ele>
        <time>2022-09-26T15:13:27Z</time>
      </trkpt>
      <trkpt lat="46.12098" lon="5.90866">
        <ele>360.2</ele>
        <time>2022-09-26T15:13:28Z</time>
      </trkpt>
      <trkpt lat="46.12095" lon="5.90859">
        <ele>359.9</ele>
        <time>2022-09-26T15:13:29Z</time>
      </trkpt>
      <trkpt lat="46.12092" lon="5.90852">
        <ele>359.6</ele>
        <time>2022-09-26T15:13:30Z</time>
      </trkpt>
      <trkpt lat="46.1209" lon="5.90844">
        <ele>359.4</ele>
        <time>2022-09-26T15:13:31Z</time>
      </trkpt>
      <trkpt lat="46.12087" lon="5.90837">
        <ele>359.1</ele>
        <time>2022-09-26T15:13:32Z</time>
      </trkpt>
      <trkpt lat="46.12084" lon="5.9083">
        <ele>358.8</ele>
        <time>2022-09-26T15:13:33Z</time>
      </trkpt>
      <trkpt lat="46.12081" lon="5.90822">
        <ele>358.6</ele>
        <time>2022-09-26T15:13:34Z</time>
      </trkpt>
      <trkpt lat="46.12078" lon="5.90814">
        <ele>358.3</ele>
        <time>2022-09-26T15:13:35Z</time>
      </trkpt>
      <trkpt lat="46.12075" lon="5.90807">
        <ele>358.1</ele>
        <time>2022-09-26T15:13:36Z</time>
      </trkpt>
      <trkpt lat="46.12073" lon="5.90799">
        <ele>357.8</ele>
        <time>2022-09-26T15:13:37Z</time>
      </trkpt>
      <trkpt lat="46.1207" lon="5.90792">
        <ele>357.6</ele>
        <time>2022-09-26T15:13:38Z</time>
      </trkpt>
      <trkpt lat="46.12068" lon="5.90784">
        <ele>357.3</ele>
        <time>2022-09-26T15:13:39Z</time>
      </trkpt>
      <trkpt lat="46.12066" lon="5.90777">
        <ele>357.1</ele>
        <time>2022-09-26T15:13:40Z</time>
      </trkpt>
      <trkpt lat="46.12063" lon="5.90768">
        <ele>356.7</ele>
        <time>2022-09-26T15:13:41Z</time>
      </trkpt>
      <trkpt lat="46.12061" lon="5.90759">
        <ele>356.4</ele>
        <time>2022-09-26T15:13:42Z</time>
      </trkpt>
      <trkpt lat="46.1206" lon="5.9075">
        <ele>356.1</ele>
        <time>2022-09-26T15:13:43Z</time>
      </trkpt>
      <trkpt lat="46.12058" lon="5.90742">
        <ele>355.8</ele>
        <time>2022-09-26T15:13:44Z</time>
      </trkpt>
      <trkpt lat="46.12057" lon="5.90733">
        <ele>355.5</ele>
        <time>2022-09-26T15:13:45Z</time>
      </trkpt>
      <trkpt lat="46.12055" lon="5.90725">
        <ele>355.2</ele>
        <time>2022-09-26T15:13:46Z</time>
      </trkpt>
      <trkpt lat="46.12054" lon="5.90715">
        <ele>354.9</ele>
        <time>2022-09-26T15:13:47Z</time>
      </trkpt>
      <trkpt lat="46.12053" lon="5.90706">
        <ele>354.6</ele>
        <time>2022-09-26T15:13:48Z</time>
      </trkpt>
      <trkpt lat="46.12052" lon="5.90698">
        <ele>354.3</ele>
        <time>2022-09-26T15:13:49Z</time>
      </trkpt>
      <trkpt lat="46.12051" lon="5.90689">
        <ele>354.1</ele>
        <time>2022-09-26T15:13:50Z</time>
      </trkpt>
      <trkpt lat="46.1205" lon="5.90681">
        <ele>353.8</ele>
        <time>2022-09-26T15:13:51Z</time>
      </trkpt>
      <trkpt lat="46.12049" lon="5.90673">
        <ele>353.6</ele>
        <time>2022-09-26T15:13:52Z</time>
      </trkpt>
      <trkpt lat="46.12048" lon="5.90665">
        <ele>353.3</ele>
        <time>2022-09-26T15:13:53Z</time>
      </trkpt>
      <trkpt lat="46.12046" lon="5.90658">
        <ele>353.1</ele>
        <time>2022-09-26T15:13:54Z</time>
      </trkpt>
      <trkpt lat="46.12044" lon="5.90651">
        <ele>352.8</ele>
        <time>2022-09-26T15:13:55Z</time>
      </trkpt>
      <trkpt lat="46.12042" lon="5.90644">
        <ele>352.6</ele>
        <time>2022-09-26T15:13:56Z</time>
      </trkpt>
      <trkpt lat="46.1204" lon="5.90637">
        <ele>352.4</ele>
        <time>2022-09-26T15:13:57Z</time>
      </trkpt>
      <trkpt lat="46.12038" lon="5.90632">
        <ele>352.3</ele>
        <time>2022-09-26T15:13:58Z</time>
      </trkpt>
      <trkpt lat="46.12036" lon="5.90627">
        <ele>352.1</ele>
        <time>2022-09-26T15:13:59Z</time>
      </trkpt>
      <trkpt lat="46.12033" lon="5.9062">
        <ele>351.9</ele>
        <time>2022-09-26T15:14:00Z</time>
      </trkpt>
      <trkpt lat="46.1203" lon="5.90614">
        <ele>351.7</ele>
        <time>2022-09-26T15:14:01Z</time>
      </trkpt>
      <trkpt lat="46.12028" lon="5.90607">
        <ele>351.5</ele>
        <time>2022-09-26T15:14:02Z</time>
      </trkpt>
      <trkpt lat="46.12026" lon="5.90599">
        <ele>351.3</ele>
        <time>2022-09-26T15:14:03Z</time>
      </trkpt>
      <trkpt lat="46.12023" lon="5.90592">
        <ele>351.1</ele>
        <time>2022-09-26T15:14:04Z</time>
      </trkpt>
      <trkpt lat="46.12021" lon="5.90584">
        <ele>350.9</ele>
        <time>2022-09-26T15:14:05Z</time>
      </trkpt>
      <trkpt lat="46.12019" lon="5.90576">
        <ele>350.7</ele>
        <time>2022-09-26T15:14:06Z</time>
      </trkpt>
      <trkpt lat="46.12018" lon="5.90566">
        <ele>350.5</ele>
        <time>2022-09-26T15:14:07Z</time>
      </trkpt>
      <trkpt lat="46.12017" lon="5.90556">
        <ele>350.3</ele>
        <time>2022-09-26T15:14:08Z</time>
      </trkpt>
      <trkpt lat="46.12017" lon="5.90547">
        <ele>350.1</ele>
        <time>2022-09-26T15:14:09Z</time>
      </trkpt>
      <trkpt lat="46.12017" lon="5.90538">
        <ele>350</ele>
        <time>2022-09-26T15:14:10Z</time>
      </trkpt>
      <trkpt lat="46.12018" lon="5.90529">
        <ele>349.9</ele>
        <time>2022-09-26T15:14:11Z</time>
      </trkpt>
      <trkpt lat="46.12019" lon="5.9052">
        <ele>349.8</ele>
        <time>2022-09-26T15:14:12Z</time>
      </trkpt>
      <trkpt lat="46.1202" lon="5.90511">
        <ele>349.7</ele>
        <time>2022-09-26T15:14:13Z</time>
      </trkpt>
      <trkpt lat="46.12022" lon="5.90503">
        <ele>349.6</ele>
        <time>2022-09-26T15:14:14Z</time>
      </trkpt>
      <trkpt lat="46.12025" lon="5.90495">
        <ele>349.6</ele>
        <time>2022-09-26T15:14:15Z</time>
      </trkpt>
      <trkpt lat="46.12027" lon="5.90488">
        <ele>349.6</ele>
        <time>2022-09-26T15:14:16Z</time>
      </trkpt>
      <trkpt lat="46.12029" lon="5.90481">
        <ele>349.6</ele>
        <time>2022-09-26T15:14:17Z</time>
      </trkpt>
      <trkpt lat="46.12031" lon="5.90474">
        <ele>349.6</ele>
        <time>2022-09-26T15:14:18Z</time>
      </trkpt>
      <trkpt lat="46.12032" lon="5.90467">
        <ele>349.6</ele>
        <time>2022-09-26T15:14:19Z</time>
      </trkpt>
      <trkpt lat="46.12034" lon="5.9046">
        <ele>349.6</ele>
        <time>2022-09-26T15:14:20Z</time>
      </trkpt>
      <trkpt lat="46.12036" lon="5.90453">
        <ele>349.6</ele>
        <time>2022-09-26T15:14:21Z</time>
      </trkpt>
      <trkpt lat="46.12039" lon="5.90447">
        <ele>349.6</ele>
        <time>2022-09-26T15:14:23Z</time>
      </trkpt>
      <trkpt lat="46.12041" lon="5.9044">
        <ele>349.6</ele>
        <time>2022-09-26T15:14:24Z</time>
      </trkpt>
      <trkpt lat="46.12043" lon="5.90434">
        <ele>349.6</ele>
        <time>2022-09-26T15:14:25Z</time>
      </trkpt>
      <trkpt lat="46.12046" lon="5.90427">
        <ele>349.6</ele>
        <time>2022-09-26T15:14:26Z</time>
      </trkpt>
      <trkpt lat="46.12048" lon="5.9042">
        <ele>349.7</ele>
        <time>2022-09-26T15:14:27Z</time>
      </trkpt>
      <trkpt lat="46.1205" lon="5.90414">
        <ele>349.7</ele>
        <time>2022-09-26T15:14:28Z</time>
      </trkpt>
      <trkpt lat="46.12052" lon="5.90407">
        <ele>349.7</ele>
        <time>2022-09-26T15:14:29Z</time>
      </trkpt>
      <trkpt lat="46.12055" lon="5.904">
        <ele>349.7</ele>
        <time>2022-09-26T15:14:30Z</time>
      </trkpt>
      <trkpt lat="46.12057" lon="5.90394">
        <ele>349.7</ele>
        <time>2022-09-26T15:14:31Z</time>
      </trkpt>
      <trkpt lat="46.12059" lon="5.90388">
        <ele>349.8</ele>
        <time>2022-09-26T15:14:32Z</time>
      </trkpt>
      <trkpt lat="46.12063" lon="5.90377">
        <ele>349.8</ele>
        <time>2022-09-26T15:14:33Z</time>
      </trkpt>
      <trkpt lat="46.12065" lon="5.90372">
        <ele>349.8</ele>
        <time>2022-09-26T15:14:35Z</time>
      </trkpt>
      <trkpt lat="46.12067" lon="5.90368">
        <ele>349.9</ele>
        <time>2022-09-26T15:14:36Z</time>
      </trkpt>
      <trkpt lat="46.12069" lon="5.90363">
        <ele>349.9</ele>
        <time>2022-09-26T15:14:37Z</time>
      </trkpt>
      <trkpt lat="46.12072" lon="5.90359">
        <ele>349.9</ele>
        <time>2022-09-26T15:14:38Z</time>
      </trkpt>
      <trkpt lat="46.12074" lon="5.90354">
        <ele>349.9</ele>
        <time>2022-09-26T15:14:39Z</time>
      </trkpt>
      <trkpt lat="46.12077" lon="5.9035">
        <ele>349.9</ele>
        <time>2022-09-26T15:14:40Z</time>
      </trkpt>
      <trkpt lat="46.12085" lon="5.90341">
        <ele>350</ele>
        <time>2022-09-26T15:14:41Z</time>
      </trkpt>
      <trkpt lat="46.12089" lon="5.90339">
        <ele>350</ele>
        <time>2022-09-26T15:14:42Z</time>
      </trkpt>
      <trkpt lat="46.12093" lon="5.90336">
        <ele>350</ele>
        <time>2022-09-26T15:14:43Z</time>
      </trkpt>
      <trkpt lat="46.12097" lon="5.90335">
        <ele>350</ele>
        <time>2022-09-26T15:14:44Z</time>
      </trkpt>
      <trkpt lat="46.12102" lon="5.90335">
        <ele>349.9</ele>
        <time>2022-09-26T15:14:45Z</time>
      </trkpt>
      <trkpt lat="46.12107" lon="5.90335">
        <ele>349.8</ele>
        <time>2022-09-26T15:14:46Z</time>
      </trkpt>
      <trkpt lat="46.12112" lon="5.90335">
        <ele>349.8</ele>
        <time>2022-09-26T15:14:47Z</time>
      </trkpt>
      <trkpt lat="46.12117" lon="5.90335">
        <ele>349.7</ele>
        <time>2022-09-26T15:14:48Z</time>
      </trkpt>
      <trkpt lat="46.12121" lon="5.90335">
        <ele>349.7</ele>
        <time>2022-09-26T15:14:49Z</time>
      </trkpt>
      <trkpt lat="46.12126" lon="5.90336">
        <ele>349.7</ele>
        <time>2022-09-26T15:14:50Z</time>
      </trkpt>
      <trkpt lat="46.1213" lon="5.90337">
        <ele>349.7</ele>
        <time>2022-09-26T15:14:51Z</time>
      </trkpt>
      <trkpt lat="46.12135" lon="5.90338">
        <ele>349.7</ele>
        <time>2022-09-26T15:14:52Z</time>
      </trkpt>
      <trkpt lat="46.12141" lon="5.90339">
        <ele>349.6</ele>
        <time>2022-09-26T15:14:53Z</time>
      </trkpt>
      <trkpt lat="46.12147" lon="5.90341">
        <ele>349.6</ele>
        <time>2022-09-26T15:14:54Z</time>
      </trkpt>
      <trkpt lat="46.12152" lon="5.90342">
        <ele>349.6</ele>
        <time>2022-09-26T15:14:55Z</time>
      </trkpt>
      <trkpt lat="46.12158" lon="5.90343">
        <ele>349.6</ele>
        <time>2022-09-26T15:14:56Z</time>
      </trkpt>
      <trkpt lat="46.12163" lon="5.90345">
        <ele>349.6</ele>
        <time>2022-09-26T15:14:57Z</time>
      </trkpt>
      <trkpt lat="46.12168" lon="5.90346">
        <ele>349.6</ele>
        <time>2022-09-26T15:14:58Z</time>
      </trkpt>
      <trkpt lat="46.12174" lon="5.90347">
        <ele>349.6</ele>
        <time>2022-09-26T15:14:59Z</time>
      </trkpt>
      <trkpt lat="46.12179" lon="5.90349">
        <ele>349.5</ele>
        <time>2022-09-26T15:15:00Z</time>
      </trkpt>
      <trkpt lat="46.12184" lon="5.9035">
        <ele>349.5</ele>
        <time>2022-09-26T15:15:01Z</time>
      </trkpt>
      <trkpt lat="46.12189" lon="5.90352">
        <ele>349.5</ele>
        <time>2022-09-26T15:15:02Z</time>
      </trkpt>
      <trkpt lat="46.12194" lon="5.90353">
        <ele>349.5</ele>
        <time>2022-09-26T15:15:03Z</time>
      </trkpt>
      <trkpt lat="46.12199" lon="5.90356">
        <ele>349.5</ele>
        <time>2022-09-26T15:15:04Z</time>
      </trkpt>
      <trkpt lat="46.12204" lon="5.90359">
        <ele>349.5</ele>
        <time>2022-09-26T15:15:05Z</time>
      </trkpt>
      <trkpt lat="46.12209" lon="5.90361">
        <ele>349.4</ele>
        <time>2022-09-26T15:15:06Z</time>
      </trkpt>
      <trkpt lat="46.12214" lon="5.90365">
        <ele>349.4</ele>
        <time>2022-09-26T15:15:07Z</time>
      </trkpt>
      <trkpt lat="46.12219" lon="5.90367">
        <ele>349.4</ele>
        <time>2022-09-26T15:15:08Z</time>
      </trkpt>
      <trkpt lat="46.12224" lon="5.9037">
        <ele>349.4</ele>
        <time>2022-09-26T15:15:09Z</time>
      </trkpt>
      <trkpt lat="46.12228" lon="5.90374">
        <ele>349.4</ele>
        <time>2022-09-26T15:15:10Z</time>
      </trkpt>
      <trkpt lat="46.12233" lon="5.90376">
        <ele>349.3</ele>
        <time>2022-09-26T15:15:11Z</time>
      </trkpt>
      <trkpt lat="46.12237" lon="5.90381">
        <ele>349.3</ele>
        <time>2022-09-26T15:15:12Z</time>
      </trkpt>
      <trkpt lat="46.12242" lon="5.90385">
        <ele>349.3</ele>
        <time>2022-09-26T15:15:13Z</time>
      </trkpt>
      <trkpt lat="46.12246" lon="5.90389">
        <ele>349.3</ele>
        <time>2022-09-26T15:15:14Z</time>
      </trkpt>
      <trkpt lat="46.12251" lon="5.90393">
        <ele>349.3</ele>
        <time>2022-09-26T15:15:15Z</time>
      </trkpt>
      <trkpt lat="46.12256" lon="5.90397">
        <ele>349.3</ele>
        <time>2022-09-26T15:15:16Z</time>
      </trkpt>
      <trkpt lat="46.1226" lon="5.90401">
        <ele>349.3</ele>
        <time>2022-09-26T15:15:17Z</time>
      </trkpt>
      <trkpt lat="46.12265" lon="5.90405">
        <ele>349.3</ele>
        <time>2022-09-26T15:15:18Z</time>
      </trkpt>
      <trkpt lat="46.12269" lon="5.9041">
        <ele>349.3</ele>
        <time>2022-09-26T15:15:19Z</time>
      </trkpt>
      <trkpt lat="46.12273" lon="5.90414">
        <ele>349.3</ele>
        <time>2022-09-26T15:15:20Z</time>
      </trkpt>
      <trkpt lat="46.12278" lon="5.90418">
        <ele>349.3</ele>
        <time>2022-09-26T15:15:21Z</time>
      </trkpt>
      <trkpt lat="46.12282" lon="5.90421">
        <ele>349.3</ele>
        <time>2022-09-26T15:15:22Z</time>
      </trkpt>
      <trkpt lat="46.12287" lon="5.90424">
        <ele>349.3</ele>
        <time>2022-09-26T15:15:23Z</time>
      </trkpt>
      <trkpt lat="46.12292" lon="5.90428">
        <ele>349.3</ele>
        <time>2022-09-26T15:15:24Z</time>
      </trkpt>
      <trkpt lat="46.12297" lon="5.90432">
        <ele>349.3</ele>
        <time>2022-09-26T15:15:25Z</time>
      </trkpt>
      <trkpt lat="46.12301" lon="5.90436">
        <ele>349.3</ele>
        <time>2022-09-26T15:15:26Z</time>
      </trkpt>
      <trkpt lat="46.12306" lon="5.9044">
        <ele>349.4</ele>
        <time>2022-09-26T15:15:27Z</time>
      </trkpt>
      <trkpt lat="46.1231" lon="5.90445">
        <ele>349.4</ele>
        <time>2022-09-26T15:15:28Z</time>
      </trkpt>
      <trkpt lat="46.12314" lon="5.90449">
        <ele>349.5</ele>
        <time>2022-09-26T15:15:29Z</time>
      </trkpt>
      <trkpt lat="46.12318" lon="5.90452">
        <ele>349.5</ele>
        <time>2022-09-26T15:15:30Z</time>
      </trkpt>
      <trkpt lat="46.12322" lon="5.90456">
        <ele>349.6</ele>
        <time>2022-09-26T15:15:31Z</time>
      </trkpt>
      <trkpt lat="46.12326" lon="5.9046">
        <ele>349.6</ele>
        <time>2022-09-26T15:15:32Z</time>
      </trkpt>
      <trkpt lat="46.1233" lon="5.90464">
        <ele>349.7</ele>
        <time>2022-09-26T15:15:33Z</time>
      </trkpt>
      <trkpt lat="46.12334" lon="5.90467">
        <ele>349.7</ele>
        <time>2022-09-26T15:15:34Z</time>
      </trkpt>
      <trkpt lat="46.12338" lon="5.90471">
        <ele>349.7</ele>
        <time>2022-09-26T15:15:35Z</time>
      </trkpt>
      <trkpt lat="46.12342" lon="5.90475">
        <ele>349.8</ele>
        <time>2022-09-26T15:15:36Z</time>
      </trkpt>
      <trkpt lat="46.12346" lon="5.90479">
        <ele>349.8</ele>
        <time>2022-09-26T15:15:37Z</time>
      </trkpt>
      <trkpt lat="46.1235" lon="5.90482">
        <ele>349.8</ele>
        <time>2022-09-26T15:15:38Z</time>
      </trkpt>
      <trkpt lat="46.12353" lon="5.90486">
        <ele>349.8</ele>
        <time>2022-09-26T15:15:39Z</time>
      </trkpt>
      <trkpt lat="46.12357" lon="5.90489">
        <ele>349.8</ele>
        <time>2022-09-26T15:15:40Z</time>
      </trkpt>
      <trkpt lat="46.1236" lon="5.90493">
        <ele>349.9</ele>
        <time>2022-09-26T15:15:41Z</time>
      </trkpt>
      <trkpt lat="46.12364" lon="5.90497">
        <ele>349.9</ele>
        <time>2022-09-26T15:15:42Z</time>
      </trkpt>
      <trkpt lat="46.12368" lon="5.90501">
        <ele>349.9</ele>
        <time>2022-09-26T15:15:43Z</time>
      </trkpt>
      <trkpt lat="46.12372" lon="5.90505">
        <ele>349.9</ele>
        <time>2022-09-26T15:15:44Z</time>
      </trkpt>
      <trkpt lat="46.12376" lon="5.90509">
        <ele>350</ele>
        <time>2022-09-26T15:15:45Z</time>
      </trkpt>
      <trkpt lat="46.1238" lon="5.90513">
        <ele>350</ele>
        <time>2022-09-26T15:15:46Z</time>
      </trkpt>
      <trkpt lat="46.12384" lon="5.90517">
        <ele>350</ele>
        <time>2022-09-26T15:15:47Z</time>
      </trkpt>
      <trkpt lat="46.12388" lon="5.90522">
        <ele>350.1</ele>
        <time>2022-09-26T15:15:48Z</time>
      </trkpt>
      <trkpt lat="46.12392" lon="5.90526">
        <ele>350.2</ele>
        <time>2022-09-26T15:15:49Z</time>
      </trkpt>
      <trkpt lat="46.12395" lon="5.9053">
        <ele>350.2</ele>
        <time>2022-09-26T15:15:50Z</time>
      </trkpt>
      <trkpt lat="46.12399" lon="5.90535">
        <ele>350.3</ele>
        <time>2022-09-26T15:15:51Z</time>
      </trkpt>
      <trkpt lat="46.12403" lon="5.90539">
        <ele>350.3</ele>
        <time>2022-09-26T15:15:52Z</time>
      </trkpt>
      <trkpt lat="46.12406" lon="5.90543">
        <ele>350.4</ele>
        <time>2022-09-26T15:15:53Z</time>
      </trkpt>
      <trkpt lat="46.1241" lon="5.90547">
        <ele>350.5</ele>
        <time>2022-09-26T15:15:54Z</time>
      </trkpt>
      <trkpt lat="46.12413" lon="5.90552">
        <ele>350.5</ele>
        <time>2022-09-26T15:15:55Z</time>
      </trkpt>
      <trkpt lat="46.12416" lon="5.90557">
        <ele>350.6</ele>
        <time>2022-09-26T15:15:56Z</time>
      </trkpt>
      <trkpt lat="46.12419" lon="5.90561">
        <ele>350.6</ele>
        <time>2022-09-26T15:15:57Z</time>
      </trkpt>
      <trkpt lat="46.12422" lon="5.90565">
        <ele>350.7</ele>
        <time>2022-09-26T15:15:58Z</time>
      </trkpt>
      <trkpt lat="46.12425" lon="5.90571">
        <ele>350.7</ele>
        <time>2022-09-26T15:15:59Z</time>
      </trkpt>
      <trkpt lat="46.12427" lon="5.90576">
        <ele>350.8</ele>
        <time>2022-09-26T15:16:00Z</time>
      </trkpt>
      <trkpt lat="46.1243" lon="5.90582">
        <ele>350.8</ele>
        <time>2022-09-26T15:16:01Z</time>
      </trkpt>
      <trkpt lat="46.12433" lon="5.90587">
        <ele>350.9</ele>
        <time>2022-09-26T15:16:02Z</time>
      </trkpt>
      <trkpt lat="46.12436" lon="5.90592">
        <ele>351</ele>
        <time>2022-09-26T15:16:03Z</time>
      </trkpt>
      <trkpt lat="46.12439" lon="5.90598">
        <ele>351.1</ele>
        <time>2022-09-26T15:16:04Z</time>
      </trkpt>
      <trkpt lat="46.12441" lon="5.90603">
        <ele>351.2</ele>
        <time>2022-09-26T15:16:05Z</time>
      </trkpt>
      <trkpt lat="46.12443" lon="5.90607">
        <ele>351.3</ele>
        <time>2022-09-26T15:16:06Z</time>
      </trkpt>
      <trkpt lat="46.12446" lon="5.90611">
        <ele>351.4</ele>
        <time>2022-09-26T15:16:07Z</time>
      </trkpt>
      <trkpt lat="46.12448" lon="5.90616">
        <ele>351.5</ele>
        <time>2022-09-26T15:16:08Z</time>
      </trkpt>
      <trkpt lat="46.1245" lon="5.9062">
        <ele>351.6</ele>
        <time>2022-09-26T15:16:09Z</time>
      </trkpt>
      <trkpt lat="46.12452" lon="5.90625">
        <ele>351.7</ele>
        <time>2022-09-26T15:16:10Z</time>
      </trkpt>
      <trkpt lat="46.12455" lon="5.90629">
        <ele>351.8</ele>
        <time>2022-09-26T15:16:11Z</time>
      </trkpt>
      <trkpt lat="46.12457" lon="5.90634">
        <ele>351.9</ele>
        <time>2022-09-26T15:16:12Z</time>
      </trkpt>
      <trkpt lat="46.12459" lon="5.90639">
        <ele>352</ele>
        <time>2022-09-26T15:16:13Z</time>
      </trkpt>
      <trkpt lat="46.12461" lon="5.90644">
        <ele>352.2</ele>
        <time>2022-09-26T15:16:14Z</time>
      </trkpt>
      <trkpt lat="46.12463" lon="5.90649">
        <ele>352.3</ele>
        <time>2022-09-26T15:16:15Z</time>
      </trkpt>
      <trkpt lat="46.12465" lon="5.90653">
        <ele>352.4</ele>
        <time>2022-09-26T15:16:16Z</time>
      </trkpt>
      <trkpt lat="46.12467" lon="5.90658">
        <ele>352.5</ele>
        <time>2022-09-26T15:16:17Z</time>
      </trkpt>
      <trkpt lat="46.1247" lon="5.90663">
        <ele>352.6</ele>
        <time>2022-09-26T15:16:18Z</time>
      </trkpt>
      <trkpt lat="46.12472" lon="5.90668">
        <ele>352.8</ele>
        <time>2022-09-26T15:16:19Z</time>
      </trkpt>
      <trkpt lat="46.12475" lon="5.90673">
        <ele>352.9</ele>
        <time>2022-09-26T15:16:20Z</time>
      </trkpt>
      <trkpt lat="46.12477" lon="5.90677">
        <ele>353</ele>
        <time>2022-09-26T15:16:21Z</time>
      </trkpt>
      <trkpt lat="46.12479" lon="5.90682">
        <ele>353.1</ele>
        <time>2022-09-26T15:16:22Z</time>
      </trkpt>
      <trkpt lat="46.12481" lon="5.90687">
        <ele>353.2</ele>
        <time>2022-09-26T15:16:23Z</time>
      </trkpt>
      <trkpt lat="46.12483" lon="5.90691">
        <ele>353.3</ele>
        <time>2022-09-26T15:16:24Z</time>
      </trkpt>
      <trkpt lat="46.12485" lon="5.90696">
        <ele>353.4</ele>
        <time>2022-09-26T15:16:25Z</time>
      </trkpt>
      <trkpt lat="46.12487" lon="5.907">
        <ele>353.5</ele>
        <time>2022-09-26T15:16:26Z</time>
      </trkpt>
      <trkpt lat="46.12489" lon="5.90705">
        <ele>353.6</ele>
        <time>2022-09-26T15:16:27Z</time>
      </trkpt>
      <trkpt lat="46.12491" lon="5.90709">
        <ele>353.6</ele>
        <time>2022-09-26T15:16:29Z</time>
      </trkpt>
      <trkpt lat="46.12493" lon="5.90713">
        <ele>353.6</ele>
        <time>2022-09-26T15:16:30Z</time>
      </trkpt>
      <trkpt lat="46.12495" lon="5.90716">
        <ele>353.7</ele>
        <time>2022-09-26T15:16:31Z</time>
      </trkpt>
      <trkpt lat="46.12497" lon="5.9072">
        <ele>353.7</ele>
        <time>2022-09-26T15:16:32Z</time>
      </trkpt>
      <trkpt lat="46.12499" lon="5.90724">
        <ele>353.7</ele>
        <time>2022-09-26T15:16:33Z</time>
      </trkpt>
      <trkpt lat="46.12499" lon="5.90726">
        <ele>353.7</ele>
        <time>2022-09-26T15:16:34Z</time>
      </trkpt>
      <trkpt lat="46.12499" lon="5.90728">
        <ele>353.8</ele>
        <time>2022-09-26T15:16:35Z</time>
      </trkpt>
      <trkpt lat="46.12499" lon="5.90729">
        <ele>353.8</ele>
        <time>2022-09-26T15:16:36Z</time>
      </trkpt>
      <trkpt lat="46.12498" lon="5.9073">
        <ele>353.8</ele>
        <time>2022-09-26T15:16:37Z</time>
      </trkpt>
      <trkpt lat="46.12498" lon="5.9073">
        <ele>353.8</ele>
        <time>2022-09-26T15:16:38Z</time>
      </trkpt>
      <trkpt lat="46.12498" lon="5.90729">
        <ele>353.8</ele>
        <time>2022-09-26T15:16:39Z</time>
      </trkpt>
      <trkpt lat="46.12498" lon="5.9073">
        <ele>353.8</ele>
        <time>2022-09-26T15:16:41Z</time>
      </trkpt>
      <trkpt lat="46.12498" lon="5.90729">
        <ele>353.8</ele>
        <time>2022-09-26T15:16:42Z</time>
      </trkpt>
      <trkpt lat="46.12497" lon="5.90729">
        <ele>353.8</ele>
        <time>2022-09-26T15:16:43Z</time>
      </trkpt>
      <trkpt lat="46.12497" lon="5.90729">
        <ele>353.8</ele>
        <time>2022-09-26T15:16:44Z</time>
      </trkpt>
      <trkpt lat="46.1251" lon="5.90738">
        <ele>354.1</ele>
        <time>2022-09-26T15:17:28Z</time>
      </trkpt>
      <trkpt lat="46.12512" lon="5.90741">
        <ele>354.2</ele>
        <time>2022-09-26T15:17:29Z</time>
      </trkpt>
      <trkpt lat="46.12514" lon="5.90744">
        <ele>354.3</ele>
        <time>2022-09-26T15:17:30Z</time>
      </trkpt>
      <trkpt lat="46.12516" lon="5.90748">
        <ele>354.4</ele>
        <time>2022-09-26T15:17:31Z</time>
      </trkpt>
      <trkpt lat="46.12518" lon="5.90751">
        <ele>354.5</ele>
        <time>2022-09-26T15:17:32Z</time>
      </trkpt>
      <trkpt lat="46.1252" lon="5.90754">
        <ele>354.6</ele>
        <time>2022-09-26T15:17:33Z</time>
      </trkpt>
      <trkpt lat="46.12523" lon="5.90758">
        <ele>354.7</ele>
        <time>2022-09-26T15:17:34Z</time>
      </trkpt>
      <trkpt lat="46.12525" lon="5.90761">
        <ele>354.8</ele>
        <time>2022-09-26T15:17:35Z</time>
      </trkpt>
      <trkpt lat="46.12528" lon="5.90764">
        <ele>354.9</ele>
        <time>2022-09-26T15:17:36Z</time>
      </trkpt>
      <trkpt lat="46.1253" lon="5.90767">
        <ele>354.9</ele>
        <time>2022-09-26T15:17:37Z</time>
      </trkpt>
      <trkpt lat="46.12533" lon="5.90769">
        <ele>355</ele>
        <time>2022-09-26T15:17:38Z</time>
      </trkpt>
      <trkpt lat="46.12536" lon="5.90772">
        <ele>355.1</ele>
        <time>2022-09-26T15:17:39Z</time>
      </trkpt>
      <trkpt lat="46.12538" lon="5.90775">
        <ele>355.2</ele>
        <time>2022-09-26T15:17:40Z</time>
      </trkpt>
      <trkpt lat="46.12541" lon="5.90777">
        <ele>355.3</ele>
        <time>2022-09-26T15:17:41Z</time>
      </trkpt>
      <trkpt lat="46.12544" lon="5.9078">
        <ele>355.3</ele>
        <time>2022-09-26T15:17:42Z</time>
      </trkpt>
      <trkpt lat="46.12547" lon="5.90782">
        <ele>355.4</ele>
        <time>2022-09-26T15:17:43Z</time>
      </trkpt>
      <trkpt lat="46.12549" lon="5.90784">
        <ele>355.5</ele>
        <time>2022-09-26T15:17:44Z</time>
      </trkpt>
      <trkpt lat="46.12553" lon="5.90786">
        <ele>355.6</ele>
        <time>2022-09-26T15:17:45Z</time>
      </trkpt>
      <trkpt lat="46.12555" lon="5.90789">
        <ele>355.6</ele>
        <time>2022-09-26T15:17:46Z</time>
      </trkpt>
      <trkpt lat="46.12558" lon="5.90792">
        <ele>355.7</ele>
        <time>2022-09-26T15:17:47Z</time>
      </trkpt>
      <trkpt lat="46.12562" lon="5.90795">
        <ele>355.8</ele>
        <time>2022-09-26T15:17:48Z</time>
      </trkpt>
      <trkpt lat="46.12565" lon="5.90797">
        <ele>355.9</ele>
        <time>2022-09-26T15:17:49Z</time>
      </trkpt>
      <trkpt lat="46.12569" lon="5.90799">
        <ele>356</ele>
        <time>2022-09-26T15:17:50Z</time>
      </trkpt>
      <trkpt lat="46.12572" lon="5.90801">
        <ele>356</ele>
        <time>2022-09-26T15:17:51Z</time>
      </trkpt>
      <trkpt lat="46.12575" lon="5.90804">
        <ele>356.1</ele>
        <time>2022-09-26T15:17:52Z</time>
      </trkpt>
      <trkpt lat="46.12578" lon="5.90806">
        <ele>356.2</ele>
        <time>2022-09-26T15:17:53Z</time>
      </trkpt>
      <trkpt lat="46.12582" lon="5.90809">
        <ele>356.3</ele>
        <time>2022-09-26T15:17:54Z</time>
      </trkpt>
      <trkpt lat="46.12585" lon="5.90812">
        <ele>356.3</ele>
        <time>2022-09-26T15:17:55Z</time>
      </trkpt>
      <trkpt lat="46.12588" lon="5.90814">
        <ele>356.4</ele>
        <time>2022-09-26T15:17:56Z</time>
      </trkpt>
      <trkpt lat="46.12592" lon="5.90816">
        <ele>356.5</ele>
        <time>2022-09-26T15:17:57Z</time>
      </trkpt>
      <trkpt lat="46.12595" lon="5.90819">
        <ele>356.6</ele>
        <time>2022-09-26T15:17:58Z</time>
      </trkpt>
      <trkpt lat="46.12598" lon="5.90821">
        <ele>356.6</ele>
        <time>2022-09-26T15:17:59Z</time>
      </trkpt>
      <trkpt lat="46.12601" lon="5.90824">
        <ele>356.7</ele>
        <time>2022-09-26T15:18:00Z</time>
      </trkpt>
      <trkpt lat="46.12604" lon="5.90826">
        <ele>356.8</ele>
        <time>2022-09-26T15:18:01Z</time>
      </trkpt>
      <trkpt lat="46.12607" lon="5.90828">
        <ele>356.9</ele>
        <time>2022-09-26T15:18:02Z</time>
      </trkpt>
      <trkpt lat="46.1261" lon="5.90831">
        <ele>356.9</ele>
        <time>2022-09-26T15:18:03Z</time>
      </trkpt>
      <trkpt lat="46.12612" lon="5.90832">
        <ele>357</ele>
        <time>2022-09-26T15:18:04Z</time>
      </trkpt>
      <trkpt lat="46.12615" lon="5.90835">
        <ele>357.1</ele>
        <time>2022-09-26T15:18:05Z</time>
      </trkpt>
      <trkpt lat="46.12619" lon="5.90837">
        <ele>357.2</ele>
        <time>2022-09-26T15:18:06Z</time>
      </trkpt>
      <trkpt lat="46.12623" lon="5.9084">
        <ele>357.3</ele>
        <time>2022-09-26T15:18:07Z</time>
      </trkpt>
      <trkpt lat="46.12626" lon="5.90842">
        <ele>357.3</ele>
        <time>2022-09-26T15:18:08Z</time>
      </trkpt>
      <trkpt lat="46.12629" lon="5.90846">
        <ele>357.4</ele>
        <time>2022-09-26T15:18:09Z</time>
      </trkpt>
      <trkpt lat="46.12631" lon="5.90847">
        <ele>357.5</ele>
        <time>2022-09-26T15:18:10Z</time>
      </trkpt>
      <trkpt lat="46.12633" lon="5.9085">
        <ele>357.6</ele>
        <time>2022-09-26T15:18:11Z</time>
      </trkpt>
      <trkpt lat="46.12637" lon="5.90851">
        <ele>357.6</ele>
        <time>2022-09-26T15:18:12Z</time>
      </trkpt>
      <trkpt lat="46.12639" lon="5.90853">
        <ele>357.7</ele>
        <time>2022-09-26T15:18:13Z</time>
      </trkpt>
      <trkpt lat="46.12642" lon="5.90856">
        <ele>357.7</ele>
        <time>2022-09-26T15:18:14Z</time>
      </trkpt>
      <trkpt lat="46.12646" lon="5.90858">
        <ele>357.8</ele>
        <time>2022-09-26T15:18:15Z</time>
      </trkpt>
      <trkpt lat="46.12648" lon="5.90861">
        <ele>357.9</ele>
        <time>2022-09-26T15:18:16Z</time>
      </trkpt>
      <trkpt lat="46.12651" lon="5.90864">
        <ele>357.9</ele>
        <time>2022-09-26T15:18:17Z</time>
      </trkpt>
      <trkpt lat="46.12655" lon="5.90867">
        <ele>358</ele>
        <time>2022-09-26T15:18:18Z</time>
      </trkpt>
      <trkpt lat="46.12659" lon="5.90869">
        <ele>358.1</ele>
        <time>2022-09-26T15:18:19Z</time>
      </trkpt>
      <trkpt lat="46.12662" lon="5.90871">
        <ele>358.1</ele>
        <time>2022-09-26T15:18:20Z</time>
      </trkpt>
      <trkpt lat="46.12665" lon="5.90874">
        <ele>358.1</ele>
        <time>2022-09-26T15:18:21Z</time>
      </trkpt>
      <trkpt lat="46.12668" lon="5.90877">
        <ele>358.2</ele>
        <time>2022-09-26T15:18:22Z</time>
      </trkpt>
      <trkpt lat="46.12671" lon="5.9088">
        <ele>358.2</ele>
        <time>2022-09-26T15:18:23Z</time>
      </trkpt>
      <trkpt lat="46.12674" lon="5.90883">
        <ele>358.3</ele>
        <time>2022-09-26T15:18:24Z</time>
      </trkpt>
      <trkpt lat="46.12677" lon="5.90886">
        <ele>358.3</ele>
        <time>2022-09-26T15:18:25Z</time>
      </trkpt>
      <trkpt lat="46.1268" lon="5.9089">
        <ele>358.3</ele>
        <time>2022-09-26T15:18:26Z</time>
      </trkpt>
      <trkpt lat="46.12684" lon="5.90892">
        <ele>358.3</ele>
        <time>2022-09-26T15:18:27Z</time>
      </trkpt>
      <trkpt lat="46.12687" lon="5.90895">
        <ele>358.3</ele>
        <time>2022-09-26T15:18:28Z</time>
      </trkpt>
      <trkpt lat="46.1269" lon="5.909">
        <ele>358.3</ele>
        <time>2022-09-26T15:18:29Z</time>
      </trkpt>
      <trkpt lat="46.12694" lon="5.90903">
        <ele>358.4</ele>
        <time>2022-09-26T15:18:30Z</time>
      </trkpt>
      <trkpt lat="46.12697" lon="5.90909">
        <ele>358.4</ele>
        <time>2022-09-26T15:18:31Z</time>
      </trkpt>
      <trkpt lat="46.127" lon="5.90913">
        <ele>358.4</ele>
        <time>2022-09-26T15:18:32Z</time>
      </trkpt>
      <trkpt lat="46.12703" lon="5.90917">
        <ele>358.4</ele>
        <time>2022-09-26T15:18:33Z</time>
      </trkpt>
      <trkpt lat="46.12706" lon="5.90922">
        <ele>358.4</ele>
        <time>2022-09-26T15:18:35Z</time>
      </trkpt>
      <trkpt lat="46.12709" lon="5.90926">
        <ele>358.5</ele>
        <time>2022-09-26T15:18:36Z</time>
      </trkpt>
      <trkpt lat="46.12713" lon="5.90932">
        <ele>358.5</ele>
        <time>2022-09-26T15:18:37Z</time>
      </trkpt>
      <trkpt lat="46.12717" lon="5.90937">
        <ele>358.5</ele>
        <time>2022-09-26T15:18:38Z</time>
      </trkpt>
      <trkpt lat="46.12719" lon="5.90941">
        <ele>358.5</ele>
        <time>2022-09-26T15:18:39Z</time>
      </trkpt>
      <trkpt lat="46.12723" lon="5.90946">
        <ele>358.5</ele>
        <time>2022-09-26T15:18:40Z</time>
      </trkpt>
      <trkpt lat="46.12727" lon="5.90951">
        <ele>358.5</ele>
        <time>2022-09-26T15:18:41Z</time>
      </trkpt>
      <trkpt lat="46.12728" lon="5.90956">
        <ele>358.5</ele>
        <time>2022-09-26T15:18:42Z</time>
      </trkpt>
      <trkpt lat="46.12732" lon="5.90962">
        <ele>358.5</ele>
        <time>2022-09-26T15:18:43Z</time>
      </trkpt>
      <trkpt lat="46.12735" lon="5.90967">
        <ele>358.5</ele>
        <time>2022-09-26T15:18:44Z</time>
      </trkpt>
      <trkpt lat="46.12738" lon="5.90972">
        <ele>358.5</ele>
        <time>2022-09-26T15:18:45Z</time>
      </trkpt>
      <trkpt lat="46.12741" lon="5.90977">
        <ele>358.5</ele>
        <time>2022-09-26T15:18:46Z</time>
      </trkpt>
      <trkpt lat="46.12744" lon="5.90983">
        <ele>358.5</ele>
        <time>2022-09-26T15:18:47Z</time>
      </trkpt>
      <trkpt lat="46.12745" lon="5.90989">
        <ele>358.6</ele>
        <time>2022-09-26T15:18:48Z</time>
      </trkpt>
      <trkpt lat="46.12747" lon="5.90996">
        <ele>358.6</ele>
        <time>2022-09-26T15:18:49Z</time>
      </trkpt>
      <trkpt lat="46.12752" lon="5.91006">
        <ele>358.7</ele>
        <time>2022-09-26T15:18:50Z</time>
      </trkpt>
      <trkpt lat="46.12753" lon="5.91013">
        <ele>358.7</ele>
        <time>2022-09-26T15:18:51Z</time>
      </trkpt>
      <trkpt lat="46.12755" lon="5.91019">
        <ele>358.8</ele>
        <time>2022-09-26T15:18:53Z</time>
      </trkpt>
      <trkpt lat="46.12757" lon="5.91025">
        <ele>358.9</ele>
        <time>2022-09-26T15:18:54Z</time>
      </trkpt>
      <trkpt lat="46.12758" lon="5.91031">
        <ele>358.9</ele>
        <time>2022-09-26T15:18:55Z</time>
      </trkpt>
      <trkpt lat="46.1276" lon="5.91038">
        <ele>359</ele>
        <time>2022-09-26T15:18:56Z</time>
      </trkpt>
      <trkpt lat="46.1276" lon="5.91044">
        <ele>359.1</ele>
        <time>2022-09-26T15:18:57Z</time>
      </trkpt>
      <trkpt lat="46.12761" lon="5.91049">
        <ele>359.2</ele>
        <time>2022-09-26T15:18:58Z</time>
      </trkpt>
      <trkpt lat="46.12762" lon="5.91056">
        <ele>359.4</ele>
        <time>2022-09-26T15:18:59Z</time>
      </trkpt>
      <trkpt lat="46.12763" lon="5.91061">
        <ele>359.5</ele>
        <time>2022-09-26T15:19:00Z</time>
      </trkpt>
      <trkpt lat="46.12764" lon="5.91068">
        <ele>359.7</ele>
        <time>2022-09-26T15:19:01Z</time>
      </trkpt>
      <trkpt lat="46.12767" lon="5.91078">
        <ele>360</ele>
        <time>2022-09-26T15:19:02Z</time>
      </trkpt>
      <trkpt lat="46.12768" lon="5.91081">
        <ele>360.1</ele>
        <time>2022-09-26T15:19:03Z</time>
      </trkpt>
      <trkpt lat="46.12769" lon="5.91088">
        <ele>360.4</ele>
        <time>2022-09-26T15:19:05Z</time>
      </trkpt>
      <trkpt lat="46.1277" lon="5.91094">
        <ele>360.6</ele>
        <time>2022-09-26T15:19:06Z</time>
      </trkpt>
      <trkpt lat="46.12771" lon="5.91097">
        <ele>360.7</ele>
        <time>2022-09-26T15:19:07Z</time>
      </trkpt>
      <trkpt lat="46.12773" lon="5.911">
        <ele>360.9</ele>
        <time>2022-09-26T15:19:08Z</time>
      </trkpt>
      <trkpt lat="46.12775" lon="5.91104">
        <ele>361</ele>
        <time>2022-09-26T15:19:09Z</time>
      </trkpt>
      <trkpt lat="46.12777" lon="5.91108">
        <ele>361.2</ele>
        <time>2022-09-26T15:19:10Z</time>
      </trkpt>
      <trkpt lat="46.12777" lon="5.91109">
        <ele>361.3</ele>
        <time>2022-09-26T15:19:11Z</time>
      </trkpt>
      <trkpt lat="46.12779" lon="5.91112">
        <ele>361.4</ele>
        <time>2022-09-26T15:19:12Z</time>
      </trkpt>
      <trkpt lat="46.12782" lon="5.91115">
        <ele>361.6</ele>
        <time>2022-09-26T15:19:13Z</time>
      </trkpt>
      <trkpt lat="46.12784" lon="5.91116">
        <ele>361.7</ele>
        <time>2022-09-26T15:19:14Z</time>
      </trkpt>
      <trkpt lat="46.12787" lon="5.91118">
        <ele>361.9</ele>
        <time>2022-09-26T15:19:15Z</time>
      </trkpt>
      <trkpt lat="46.12788" lon="5.91118">
        <ele>362</ele>
        <time>2022-09-26T15:19:16Z</time>
      </trkpt>
      <trkpt lat="46.12791" lon="5.9112">
        <ele>362.1</ele>
        <time>2022-09-26T15:19:17Z</time>
      </trkpt>
      <trkpt lat="46.12794" lon="5.91121">
        <ele>362.3</ele>
        <time>2022-09-26T15:19:18Z</time>
      </trkpt>
      <trkpt lat="46.12796" lon="5.91121">
        <ele>362.4</ele>
        <time>2022-09-26T15:19:19Z</time>
      </trkpt>
      <trkpt lat="46.12799" lon="5.91122">
        <ele>362.5</ele>
        <time>2022-09-26T15:19:20Z</time>
      </trkpt>
      <trkpt lat="46.128" lon="5.91121">
        <ele>362.6</ele>
        <time>2022-09-26T15:19:21Z</time>
      </trkpt>
      <trkpt lat="46.12804" lon="5.91121">
        <ele>362.8</ele>
        <time>2022-09-26T15:19:22Z</time>
      </trkpt>
      <trkpt lat="46.12805" lon="5.91121">
        <ele>362.8</ele>
        <time>2022-09-26T15:19:23Z</time>
      </trkpt>
      <trkpt lat="46.12809" lon="5.9112">
        <ele>363.1</ele>
        <time>2022-09-26T15:19:24Z</time>
      </trkpt>
      <trkpt lat="46.1281" lon="5.91119">
        <ele>363.2</ele>
        <time>2022-09-26T15:19:25Z</time>
      </trkpt>
      <trkpt lat="46.12814" lon="5.91118">
        <ele>363.4</ele>
        <time>2022-09-26T15:19:26Z</time>
      </trkpt>
      <trkpt lat="46.12815" lon="5.91117">
        <ele>363.5</ele>
        <time>2022-09-26T15:19:27Z</time>
      </trkpt>
      <trkpt lat="46.12818" lon="5.91115">
        <ele>363.8</ele>
        <time>2022-09-26T15:19:28Z</time>
      </trkpt>
      <trkpt lat="46.1282" lon="5.91114">
        <ele>363.8</ele>
        <time>2022-09-26T15:19:29Z</time>
      </trkpt>
      <trkpt lat="46.12823" lon="5.91112">
        <ele>364.1</ele>
        <time>2022-09-26T15:19:30Z</time>
      </trkpt>
      <trkpt lat="46.12824" lon="5.91111">
        <ele>364.1</ele>
        <time>2022-09-26T15:19:31Z</time>
      </trkpt>
      <trkpt lat="46.12826" lon="5.91108">
        <ele>364.4</ele>
        <time>2022-09-26T15:19:32Z</time>
      </trkpt>
      <trkpt lat="46.12827" lon="5.91107">
        <ele>364.4</ele>
        <time>2022-09-26T15:19:33Z</time>
      </trkpt>
      <trkpt lat="46.1283" lon="5.91104">
        <ele>364.6</ele>
        <time>2022-09-26T15:19:34Z</time>
      </trkpt>
      <trkpt lat="46.12831" lon="5.91102">
        <ele>364.7</ele>
        <time>2022-09-26T15:19:35Z</time>
      </trkpt>
      <trkpt lat="46.12833" lon="5.91099">
        <ele>364.9</ele>
        <time>2022-09-26T15:19:36Z</time>
      </trkpt>
      <trkpt lat="46.12834" lon="5.91098">
        <ele>365</ele>
        <time>2022-09-26T15:19:37Z</time>
      </trkpt>
      <trkpt lat="46.12837" lon="5.91094">
        <ele>365.1</ele>
        <time>2022-09-26T15:19:38Z</time>
      </trkpt>
      <trkpt lat="46.12838" lon="5.91093">
        <ele>365.1</ele>
        <time>2022-09-26T15:19:39Z</time>
      </trkpt>
      <trkpt lat="46.1284" lon="5.91089">
        <ele>365.2</ele>
        <time>2022-09-26T15:19:40Z</time>
      </trkpt>
      <trkpt lat="46.12841" lon="5.91088">
        <ele>365.2</ele>
        <time>2022-09-26T15:19:41Z</time>
      </trkpt>
      <trkpt lat="46.12842" lon="5.91083">
        <ele>365.4</ele>
        <time>2022-09-26T15:19:42Z</time>
      </trkpt>
      <trkpt lat="46.12843" lon="5.91082">
        <ele>365.4</ele>
        <time>2022-09-26T15:19:43Z</time>
      </trkpt>
      <trkpt lat="46.12844" lon="5.91078">
        <ele>365.5</ele>
        <time>2022-09-26T15:19:44Z</time>
      </trkpt>
      <trkpt lat="46.12844" lon="5.91073">
        <ele>365.7</ele>
        <time>2022-09-26T15:19:45Z</time>
      </trkpt>
      <trkpt lat="46.12844" lon="5.91071">
        <ele>365.7</ele>
        <time>2022-09-26T15:19:46Z</time>
      </trkpt>
      <trkpt lat="46.12844" lon="5.91066">
        <ele>365.9</ele>
        <time>2022-09-26T15:19:47Z</time>
      </trkpt>
      <trkpt lat="46.12844" lon="5.91064">
        <ele>365.9</ele>
        <time>2022-09-26T15:19:48Z</time>
      </trkpt>
      <trkpt lat="46.12844" lon="5.91059">
        <ele>366.1</ele>
        <time>2022-09-26T15:19:49Z</time>
      </trkpt>
      <trkpt lat="46.12843" lon="5.91057">
        <ele>366.1</ele>
        <time>2022-09-26T15:19:50Z</time>
      </trkpt>
      <trkpt lat="46.12842" lon="5.91053">
        <ele>366.2</ele>
        <time>2022-09-26T15:19:51Z</time>
      </trkpt>
      <trkpt lat="46.12841" lon="5.91048">
        <ele>366.3</ele>
        <time>2022-09-26T15:19:52Z</time>
      </trkpt>
      <trkpt lat="46.1284" lon="5.91046">
        <ele>366.4</ele>
        <time>2022-09-26T15:19:53Z</time>
      </trkpt>
      <trkpt lat="46.12838" lon="5.91042">
        <ele>366.5</ele>
        <time>2022-09-26T15:19:54Z</time>
      </trkpt>
      <trkpt lat="46.12837" lon="5.9104">
        <ele>366.5</ele>
        <time>2022-09-26T15:19:55Z</time>
      </trkpt>
      <trkpt lat="46.12837" lon="5.91036">
        <ele>366.6</ele>
        <time>2022-09-26T15:19:56Z</time>
      </trkpt>
      <trkpt lat="46.12835" lon="5.91032">
        <ele>366.7</ele>
        <time>2022-09-26T15:19:57Z</time>
      </trkpt>
      <trkpt lat="46.12833" lon="5.91028">
        <ele>366.8</ele>
        <time>2022-09-26T15:19:58Z</time>
      </trkpt>
      <trkpt lat="46.12832" lon="5.91024">
        <ele>366.9</ele>
        <time>2022-09-26T15:19:59Z</time>
      </trkpt>
      <trkpt lat="46.12831" lon="5.91019">
        <ele>367</ele>
        <time>2022-09-26T15:20:00Z</time>
      </trkpt>
      <trkpt lat="46.1283" lon="5.91018">
        <ele>367</ele>
        <time>2022-09-26T15:20:01Z</time>
      </trkpt>
      <trkpt lat="46.12828" lon="5.91014">
        <ele>367.1</ele>
        <time>2022-09-26T15:20:02Z</time>
      </trkpt>
      <trkpt lat="46.12826" lon="5.91009">
        <ele>367.2</ele>
        <time>2022-09-26T15:20:03Z</time>
      </trkpt>
      <trkpt lat="46.12826" lon="5.91007">
        <ele>367.3</ele>
        <time>2022-09-26T15:20:04Z</time>
      </trkpt>
      <trkpt lat="46.12825" lon="5.91001">
        <ele>367.4</ele>
        <time>2022-09-26T15:20:05Z</time>
      </trkpt>
      <trkpt lat="46.12824" lon="5.90999">
        <ele>367.4</ele>
        <time>2022-09-26T15:20:06Z</time>
      </trkpt>
      <trkpt lat="46.12824" lon="5.90996">
        <ele>367.5</ele>
        <time>2022-09-26T15:20:07Z</time>
      </trkpt>
      <trkpt lat="46.12823" lon="5.9099">
        <ele>367.7</ele>
        <time>2022-09-26T15:20:08Z</time>
      </trkpt>
      <trkpt lat="46.12823" lon="5.90988">
        <ele>367.7</ele>
        <time>2022-09-26T15:20:09Z</time>
      </trkpt>
      <trkpt lat="46.12822" lon="5.90984">
        <ele>367.8</ele>
        <time>2022-09-26T15:20:10Z</time>
      </trkpt>
      <trkpt lat="46.12822" lon="5.90979">
        <ele>368</ele>
        <time>2022-09-26T15:20:11Z</time>
      </trkpt>
      <trkpt lat="46.12821" lon="5.90977">
        <ele>368</ele>
        <time>2022-09-26T15:20:12Z</time>
      </trkpt>
      <trkpt lat="46.12821" lon="5.90972">
        <ele>368.2</ele>
        <time>2022-09-26T15:20:13Z</time>
      </trkpt>
      <trkpt lat="46.12821" lon="5.90967">
        <ele>368.3</ele>
        <time>2022-09-26T15:20:14Z</time>
      </trkpt>
      <trkpt lat="46.12821" lon="5.90966">
        <ele>368.4</ele>
        <time>2022-09-26T15:20:15Z</time>
      </trkpt>
      <trkpt lat="46.12822" lon="5.9096">
        <ele>368.6</ele>
        <time>2022-09-26T15:20:16Z</time>
      </trkpt>
      <trkpt lat="46.12822" lon="5.90959">
        <ele>368.6</ele>
        <time>2022-09-26T15:20:17Z</time>
      </trkpt>
      <trkpt lat="46.12821" lon="5.90953">
        <ele>368.8</ele>
        <time>2022-09-26T15:20:18Z</time>
      </trkpt>
      <trkpt lat="46.12821" lon="5.90952">
        <ele>368.8</ele>
        <time>2022-09-26T15:20:19Z</time>
      </trkpt>
      <trkpt lat="46.12822" lon="5.90947">
        <ele>369</ele>
        <time>2022-09-26T15:20:20Z</time>
      </trkpt>
      <trkpt lat="46.12822" lon="5.90945">
        <ele>369</ele>
        <time>2022-09-26T15:20:21Z</time>
      </trkpt>
      <trkpt lat="46.12822" lon="5.90941">
        <ele>369.2</ele>
        <time>2022-09-26T15:20:22Z</time>
      </trkpt>
      <trkpt lat="46.12822" lon="5.90936">
        <ele>369.3</ele>
        <time>2022-09-26T15:20:23Z</time>
      </trkpt>
      <trkpt lat="46.12822" lon="5.90935">
        <ele>369.4</ele>
        <time>2022-09-26T15:20:24Z</time>
      </trkpt>
      <trkpt lat="46.12822" lon="5.9093">
        <ele>369.5</ele>
        <time>2022-09-26T15:20:25Z</time>
      </trkpt>
      <trkpt lat="46.12822" lon="5.90929">
        <ele>369.5</ele>
        <time>2022-09-26T15:20:26Z</time>
      </trkpt>
      <trkpt lat="46.12822" lon="5.90924">
        <ele>369.7</ele>
        <time>2022-09-26T15:20:27Z</time>
      </trkpt>
      <trkpt lat="46.12822" lon="5.90922">
        <ele>369.7</ele>
        <time>2022-09-26T15:20:28Z</time>
      </trkpt>
      <trkpt lat="46.12822" lon="5.90918">
        <ele>369.9</ele>
        <time>2022-09-26T15:20:29Z</time>
      </trkpt>
      <trkpt lat="46.12822" lon="5.90916">
        <ele>369.9</ele>
        <time>2022-09-26T15:20:30Z</time>
      </trkpt>
      <trkpt lat="46.12822" lon="5.90911">
        <ele>370</ele>
        <time>2022-09-26T15:20:31Z</time>
      </trkpt>
      <trkpt lat="46.12822" lon="5.9091">
        <ele>370.1</ele>
        <time>2022-09-26T15:20:32Z</time>
      </trkpt>
      <trkpt lat="46.12822" lon="5.90905">
        <ele>370.2</ele>
        <time>2022-09-26T15:20:33Z</time>
      </trkpt>
      <trkpt lat="46.12822" lon="5.90904">
        <ele>370.3</ele>
        <time>2022-09-26T15:20:34Z</time>
      </trkpt>
      <trkpt lat="46.12821" lon="5.90899">
        <ele>370.4</ele>
        <time>2022-09-26T15:20:35Z</time>
      </trkpt>
      <trkpt lat="46.12821" lon="5.90898">
        <ele>370.5</ele>
        <time>2022-09-26T15:20:36Z</time>
      </trkpt>
      <trkpt lat="46.1282" lon="5.90893">
        <ele>370.6</ele>
        <time>2022-09-26T15:20:37Z</time>
      </trkpt>
      <trkpt lat="46.1282" lon="5.90892">
        <ele>370.7</ele>
        <time>2022-09-26T15:20:38Z</time>
      </trkpt>
      <trkpt lat="46.1282" lon="5.90889">
        <ele>370.8</ele>
        <time>2022-09-26T15:20:39Z</time>
      </trkpt>
      <trkpt lat="46.12819" lon="5.90887">
        <ele>370.9</ele>
        <time>2022-09-26T15:20:41Z</time>
      </trkpt>
      <trkpt lat="46.12819" lon="5.90882">
        <ele>371.1</ele>
        <time>2022-09-26T15:20:42Z</time>
      </trkpt>
      <trkpt lat="46.12818" lon="5.90881">
        <ele>371.1</ele>
        <time>2022-09-26T15:20:43Z</time>
      </trkpt>
      <trkpt lat="46.12818" lon="5.90877">
        <ele>371.3</ele>
        <time>2022-09-26T15:20:44Z</time>
      </trkpt>
      <trkpt lat="46.12818" lon="5.90876">
        <ele>371.4</ele>
        <time>2022-09-26T15:20:45Z</time>
      </trkpt>
      <trkpt lat="46.12817" lon="5.90872">
        <ele>371.6</ele>
        <time>2022-09-26T15:20:46Z</time>
      </trkpt>
      <trkpt lat="46.12817" lon="5.9087">
        <ele>371.6</ele>
        <time>2022-09-26T15:20:47Z</time>
      </trkpt>
      <trkpt lat="46.12816" lon="5.90866">
        <ele>371.8</ele>
        <time>2022-09-26T15:20:48Z</time>
      </trkpt>
      <trkpt lat="46.12816" lon="5.90865">
        <ele>371.9</ele>
        <time>2022-09-26T15:20:49Z</time>
      </trkpt>
      <trkpt lat="46.12815" lon="5.90863">
        <ele>372</ele>
        <time>2022-09-26T15:20:50Z</time>
      </trkpt>
      <trkpt lat="46.12814" lon="5.9086">
        <ele>372.1</ele>
        <time>2022-09-26T15:20:51Z</time>
      </trkpt>
      <trkpt lat="46.12814" lon="5.90857">
        <ele>372.3</ele>
        <time>2022-09-26T15:20:52Z</time>
      </trkpt>
      <trkpt lat="46.12813" lon="5.90855">
        <ele>372.3</ele>
        <time>2022-09-26T15:20:53Z</time>
      </trkpt>
      <trkpt lat="46.12812" lon="5.90853">
        <ele>372.4</ele>
        <time>2022-09-26T15:20:54Z</time>
      </trkpt>
      <trkpt lat="46.12812" lon="5.90851">
        <ele>372.6</ele>
        <time>2022-09-26T15:20:55Z</time>
      </trkpt>
      <trkpt lat="46.12811" lon="5.90848">
        <ele>372.7</ele>
        <time>2022-09-26T15:20:56Z</time>
      </trkpt>
      <trkpt lat="46.12811" lon="5.90846">
        <ele>372.8</ele>
        <time>2022-09-26T15:20:57Z</time>
      </trkpt>
      <trkpt lat="46.12809" lon="5.90844">
        <ele>372.9</ele>
        <time>2022-09-26T15:20:58Z</time>
      </trkpt>
      <trkpt lat="46.12808" lon="5.90842">
        <ele>373</ele>
        <time>2022-09-26T15:20:59Z</time>
      </trkpt>
      <trkpt lat="46.12808" lon="5.90837">
        <ele>373.2</ele>
        <time>2022-09-26T15:21:00Z</time>
      </trkpt>
      <trkpt lat="46.12808" lon="5.90836">
        <ele>373.3</ele>
        <time>2022-09-26T15:21:01Z</time>
      </trkpt>
      <trkpt lat="46.12807" lon="5.90835">
        <ele>373.4</ele>
        <time>2022-09-26T15:21:02Z</time>
      </trkpt>
      <trkpt lat="46.12806" lon="5.90833">
        <ele>373.5</ele>
        <time>2022-09-26T15:21:03Z</time>
      </trkpt>
      <trkpt lat="46.12805" lon="5.90831">
        <ele>373.6</ele>
        <time>2022-09-26T15:21:04Z</time>
      </trkpt>
      <trkpt lat="46.12804" lon="5.90829">
        <ele>373.7</ele>
        <time>2022-09-26T15:21:05Z</time>
      </trkpt>
      <trkpt lat="46.12803" lon="5.90825">
        <ele>373.9</ele>
        <time>2022-09-26T15:21:06Z</time>
      </trkpt>
      <trkpt lat="46.12802" lon="5.90824">
        <ele>374</ele>
        <time>2022-09-26T15:21:07Z</time>
      </trkpt>
      <trkpt lat="46.12801" lon="5.90822">
        <ele>374.1</ele>
        <time>2022-09-26T15:21:08Z</time>
      </trkpt>
      <trkpt lat="46.128" lon="5.90818">
        <ele>374.3</ele>
        <time>2022-09-26T15:21:09Z</time>
      </trkpt>
      <trkpt lat="46.12799" lon="5.90816">
        <ele>374.4</ele>
        <time>2022-09-26T15:21:10Z</time>
      </trkpt>
      <trkpt lat="46.12798" lon="5.90813">
        <ele>374.5</ele>
        <time>2022-09-26T15:21:11Z</time>
      </trkpt>
      <trkpt lat="46.12797" lon="5.90812">
        <ele>374.6</ele>
        <time>2022-09-26T15:21:12Z</time>
      </trkpt>
      <trkpt lat="46.12795" lon="5.90808">
        <ele>374.8</ele>
        <time>2022-09-26T15:21:13Z</time>
      </trkpt>
      <trkpt lat="46.12795" lon="5.90807">
        <ele>374.8</ele>
        <time>2022-09-26T15:21:14Z</time>
      </trkpt>
      <trkpt lat="46.12793" lon="5.90805">
        <ele>375</ele>
        <time>2022-09-26T15:21:15Z</time>
      </trkpt>
      <trkpt lat="46.12792" lon="5.90803">
        <ele>375.1</ele>
        <time>2022-09-26T15:21:16Z</time>
      </trkpt>
      <trkpt lat="46.1279" lon="5.90801">
        <ele>375.2</ele>
        <time>2022-09-26T15:21:17Z</time>
      </trkpt>
      <trkpt lat="46.1279" lon="5.90799">
        <ele>375.3</ele>
        <time>2022-09-26T15:21:18Z</time>
      </trkpt>
      <trkpt lat="46.12789" lon="5.90798">
        <ele>375.4</ele>
        <time>2022-09-26T15:21:19Z</time>
      </trkpt>
      <trkpt lat="46.12788" lon="5.90796">
        <ele>375.5</ele>
        <time>2022-09-26T15:21:20Z</time>
      </trkpt>
      <trkpt lat="46.12786" lon="5.90792">
        <ele>375.7</ele>
        <time>2022-09-26T15:21:21Z</time>
      </trkpt>
      <trkpt lat="46.12786" lon="5.90791">
        <ele>375.7</ele>
        <time>2022-09-26T15:21:22Z</time>
      </trkpt>
      <trkpt lat="46.12785" lon="5.90789">
        <ele>375.9</ele>
        <time>2022-09-26T15:21:23Z</time>
      </trkpt>
      <trkpt lat="46.12784" lon="5.90787">
        <ele>376</ele>
        <time>2022-09-26T15:21:24Z</time>
      </trkpt>
      <trkpt lat="46.12783" lon="5.90785">
        <ele>376.1</ele>
        <time>2022-09-26T15:21:25Z</time>
      </trkpt>
      <trkpt lat="46.12782" lon="5.90783">
        <ele>376.2</ele>
        <time>2022-09-26T15:21:26Z</time>
      </trkpt>
      <trkpt lat="46.1278" lon="5.9078">
        <ele>376.4</ele>
        <time>2022-09-26T15:21:27Z</time>
      </trkpt>
      <trkpt lat="46.12779" lon="5.90779">
        <ele>376.4</ele>
        <time>2022-09-26T15:21:28Z</time>
      </trkpt>
      <trkpt lat="46.12777" lon="5.90776">
        <ele>376.6</ele>
        <time>2022-09-26T15:21:29Z</time>
      </trkpt>
      <trkpt lat="46.12777" lon="5.90774">
        <ele>376.7</ele>
        <time>2022-09-26T15:21:30Z</time>
      </trkpt>
      <trkpt lat="46.12776" lon="5.90773">
        <ele>376.7</ele>
        <time>2022-09-26T15:21:31Z</time>
      </trkpt>
      <trkpt lat="46.12776" lon="5.9077">
        <ele>376.9</ele>
        <time>2022-09-26T15:21:32Z</time>
      </trkpt>
      <trkpt lat="46.12773" lon="5.90768">
        <ele>377.1</ele>
        <time>2022-09-26T15:21:33Z</time>
      </trkpt>
      <trkpt lat="46.12773" lon="5.90767">
        <ele>377.1</ele>
        <time>2022-09-26T15:21:34Z</time>
      </trkpt>
      <trkpt lat="46.12772" lon="5.90765">
        <ele>377.2</ele>
        <time>2022-09-26T15:21:35Z</time>
      </trkpt>
      <trkpt lat="46.12771" lon="5.90762">
        <ele>377.3</ele>
        <time>2022-09-26T15:21:36Z</time>
      </trkpt>
      <trkpt lat="46.1277" lon="5.9076">
        <ele>377.5</ele>
        <time>2022-09-26T15:21:37Z</time>
      </trkpt>
      <trkpt lat="46.12769" lon="5.90759">
        <ele>377.6</ele>
        <time>2022-09-26T15:21:38Z</time>
      </trkpt>
      <trkpt lat="46.12767" lon="5.90757">
        <ele>377.7</ele>
        <time>2022-09-26T15:21:39Z</time>
      </trkpt>
      <trkpt lat="46.12767" lon="5.90755">
        <ele>377.8</ele>
        <time>2022-09-26T15:21:40Z</time>
      </trkpt>
      <trkpt lat="46.12765" lon="5.90751">
        <ele>378</ele>
        <time>2022-09-26T15:21:41Z</time>
      </trkpt>
      <trkpt lat="46.12764" lon="5.9075">
        <ele>378</ele>
        <time>2022-09-26T15:21:42Z</time>
      </trkpt>
      <trkpt lat="46.12763" lon="5.90748">
        <ele>378.2</ele>
        <time>2022-09-26T15:21:43Z</time>
      </trkpt>
      <trkpt lat="46.12762" lon="5.90747">
        <ele>378.3</ele>
        <time>2022-09-26T15:21:44Z</time>
      </trkpt>
      <trkpt lat="46.12761" lon="5.90744">
        <ele>378.4</ele>
        <time>2022-09-26T15:21:45Z</time>
      </trkpt>
      <trkpt lat="46.1276" lon="5.90743">
        <ele>378.5</ele>
        <time>2022-09-26T15:21:46Z</time>
      </trkpt>
      <trkpt lat="46.12758" lon="5.90739">
        <ele>378.7</ele>
        <time>2022-09-26T15:21:47Z</time>
      </trkpt>
      <trkpt lat="46.12758" lon="5.90738">
        <ele>378.7</ele>
        <time>2022-09-26T15:21:48Z</time>
      </trkpt>
      <trkpt lat="46.12755" lon="5.90736">
        <ele>378.9</ele>
        <time>2022-09-26T15:21:49Z</time>
      </trkpt>
      <trkpt lat="46.12755" lon="5.90734">
        <ele>379</ele>
        <time>2022-09-26T15:21:50Z</time>
      </trkpt>
      <trkpt lat="46.12754" lon="5.90733">
        <ele>379.1</ele>
        <time>2022-09-26T15:21:51Z</time>
      </trkpt>
      <trkpt lat="46.12753" lon="5.90731">
        <ele>379.2</ele>
        <time>2022-09-26T15:21:52Z</time>
      </trkpt>
      <trkpt lat="46.12751" lon="5.90728">
        <ele>379.3</ele>
        <time>2022-09-26T15:21:53Z</time>
      </trkpt>
      <trkpt lat="46.1275" lon="5.90727">
        <ele>379.4</ele>
        <time>2022-09-26T15:21:54Z</time>
      </trkpt>
      <trkpt lat="46.12749" lon="5.90723">
        <ele>379.6</ele>
        <time>2022-09-26T15:21:55Z</time>
      </trkpt>
      <trkpt lat="46.12748" lon="5.90722">
        <ele>379.7</ele>
        <time>2022-09-26T15:21:56Z</time>
      </trkpt>
      <trkpt lat="46.12747" lon="5.9072">
        <ele>379.8</ele>
        <time>2022-09-26T15:21:57Z</time>
      </trkpt>
      <trkpt lat="46.12746" lon="5.90717">
        <ele>379.9</ele>
        <time>2022-09-26T15:21:58Z</time>
      </trkpt>
      <trkpt lat="46.12744" lon="5.90714">
        <ele>380.1</ele>
        <time>2022-09-26T15:21:59Z</time>
      </trkpt>
      <trkpt lat="46.12744" lon="5.90713">
        <ele>380.2</ele>
        <time>2022-09-26T15:22:00Z</time>
      </trkpt>
      <trkpt lat="46.12742" lon="5.9071">
        <ele>380.3</ele>
        <time>2022-09-26T15:22:01Z</time>
      </trkpt>
      <trkpt lat="46.12741" lon="5.90709">
        <ele>380.4</ele>
        <time>2022-09-26T15:22:02Z</time>
      </trkpt>
      <trkpt lat="46.12739" lon="5.90705">
        <ele>380.6</ele>
        <time>2022-09-26T15:22:03Z</time>
      </trkpt>
      <trkpt lat="46.12739" lon="5.90704">
        <ele>380.6</ele>
        <time>2022-09-26T15:22:04Z</time>
      </trkpt>
      <trkpt lat="46.12737" lon="5.90702">
        <ele>380.8</ele>
        <time>2022-09-26T15:22:05Z</time>
      </trkpt>
      <trkpt lat="46.12736" lon="5.90701">
        <ele>380.9</ele>
        <time>2022-09-26T15:22:06Z</time>
      </trkpt>
      <trkpt lat="46.12734" lon="5.90698">
        <ele>381.1</ele>
        <time>2022-09-26T15:22:07Z</time>
      </trkpt>
      <trkpt lat="46.12733" lon="5.90697">
        <ele>381.1</ele>
        <time>2022-09-26T15:22:08Z</time>
      </trkpt>
      <trkpt lat="46.12733" lon="5.90695">
        <ele>381.2</ele>
        <time>2022-09-26T15:22:09Z</time>
      </trkpt>
      <trkpt lat="46.12731" lon="5.90693">
        <ele>381.3</ele>
        <time>2022-09-26T15:22:10Z</time>
      </trkpt>
      <trkpt lat="46.1273" lon="5.90691">
        <ele>381.4</ele>
        <time>2022-09-26T15:22:11Z</time>
      </trkpt>
      <trkpt lat="46.12729" lon="5.9069">
        <ele>381.5</ele>
        <time>2022-09-26T15:22:12Z</time>
      </trkpt>
      <trkpt lat="46.12726" lon="5.90687">
        <ele>381.7</ele>
        <time>2022-09-26T15:22:13Z</time>
      </trkpt>
      <trkpt lat="46.12726" lon="5.90686">
        <ele>381.8</ele>
        <time>2022-09-26T15:22:14Z</time>
      </trkpt>
      <trkpt lat="46.12725" lon="5.90684">
        <ele>381.9</ele>
        <time>2022-09-26T15:22:15Z</time>
      </trkpt>
      <trkpt lat="46.12724" lon="5.90682">
        <ele>382</ele>
        <time>2022-09-26T15:22:16Z</time>
      </trkpt>
      <trkpt lat="46.12722" lon="5.90679">
        <ele>382.2</ele>
        <time>2022-09-26T15:22:17Z</time>
      </trkpt>
      <trkpt lat="46.12721" lon="5.90678">
        <ele>382.2</ele>
        <time>2022-09-26T15:22:18Z</time>
      </trkpt>
      <trkpt lat="46.1272" lon="5.90677">
        <ele>382.4</ele>
        <time>2022-09-26T15:22:19Z</time>
      </trkpt>
      <trkpt lat="46.12719" lon="5.90676">
        <ele>382.4</ele>
        <time>2022-09-26T15:22:20Z</time>
      </trkpt>
      <trkpt lat="46.12717" lon="5.90673">
        <ele>382.6</ele>
        <time>2022-09-26T15:22:21Z</time>
      </trkpt>
      <trkpt lat="46.12716" lon="5.90672">
        <ele>382.7</ele>
        <time>2022-09-26T15:22:22Z</time>
      </trkpt>
      <trkpt lat="46.12714" lon="5.90669">
        <ele>382.8</ele>
        <time>2022-09-26T15:22:23Z</time>
      </trkpt>
      <trkpt lat="46.12713" lon="5.90668">
        <ele>382.9</ele>
        <time>2022-09-26T15:22:24Z</time>
      </trkpt>
      <trkpt lat="46.12711" lon="5.90666">
        <ele>383</ele>
        <time>2022-09-26T15:22:25Z</time>
      </trkpt>
      <trkpt lat="46.1271" lon="5.90665">
        <ele>383.1</ele>
        <time>2022-09-26T15:22:26Z</time>
      </trkpt>
      <trkpt lat="46.12708" lon="5.90662">
        <ele>383.3</ele>
        <time>2022-09-26T15:22:27Z</time>
      </trkpt>
      <trkpt lat="46.12708" lon="5.90661">
        <ele>383.3</ele>
        <time>2022-09-26T15:22:28Z</time>
      </trkpt>
      <trkpt lat="46.12706" lon="5.9066">
        <ele>383.4</ele>
        <time>2022-09-26T15:22:29Z</time>
      </trkpt>
      <trkpt lat="46.12705" lon="5.90658">
        <ele>383.5</ele>
        <time>2022-09-26T15:22:30Z</time>
      </trkpt>
      <trkpt lat="46.12703" lon="5.90656">
        <ele>383.7</ele>
        <time>2022-09-26T15:22:31Z</time>
      </trkpt>
      <trkpt lat="46.12702" lon="5.90655">
        <ele>383.8</ele>
        <time>2022-09-26T15:22:32Z</time>
      </trkpt>
      <trkpt lat="46.127" lon="5.90652">
        <ele>383.9</ele>
        <time>2022-09-26T15:22:33Z</time>
      </trkpt>
      <trkpt lat="46.12699" lon="5.90651">
        <ele>384</ele>
        <time>2022-09-26T15:22:34Z</time>
      </trkpt>
      <trkpt lat="46.12698" lon="5.9065">
        <ele>384.1</ele>
        <time>2022-09-26T15:22:35Z</time>
      </trkpt>
      <trkpt lat="46.12696" lon="5.90648">
        <ele>384.2</ele>
        <time>2022-09-26T15:22:36Z</time>
      </trkpt>
      <trkpt lat="46.12694" lon="5.90647">
        <ele>384.3</ele>
        <time>2022-09-26T15:22:37Z</time>
      </trkpt>
      <trkpt lat="46.12693" lon="5.90645">
        <ele>384.4</ele>
        <time>2022-09-26T15:22:38Z</time>
      </trkpt>
      <trkpt lat="46.12691" lon="5.90643">
        <ele>384.6</ele>
        <time>2022-09-26T15:22:39Z</time>
      </trkpt>
      <trkpt lat="46.1269" lon="5.90642">
        <ele>384.6</ele>
        <time>2022-09-26T15:22:40Z</time>
      </trkpt>
      <trkpt lat="46.12688" lon="5.90639">
        <ele>384.8</ele>
        <time>2022-09-26T15:22:41Z</time>
      </trkpt>
      <trkpt lat="46.12687" lon="5.90638">
        <ele>384.9</ele>
        <time>2022-09-26T15:22:42Z</time>
      </trkpt>
      <trkpt lat="46.12685" lon="5.90636">
        <ele>385</ele>
        <time>2022-09-26T15:22:43Z</time>
      </trkpt>
      <trkpt lat="46.12684" lon="5.90635">
        <ele>385.1</ele>
        <time>2022-09-26T15:22:44Z</time>
      </trkpt>
      <trkpt lat="46.12681" lon="5.90632">
        <ele>385.2</ele>
        <time>2022-09-26T15:22:45Z</time>
      </trkpt>
      <trkpt lat="46.1268" lon="5.90631">
        <ele>385.3</ele>
        <time>2022-09-26T15:22:46Z</time>
      </trkpt>
      <trkpt lat="46.12678" lon="5.90629">
        <ele>385.5</ele>
        <time>2022-09-26T15:22:47Z</time>
      </trkpt>
      <trkpt lat="46.12678" lon="5.90628">
        <ele>385.5</ele>
        <time>2022-09-26T15:22:48Z</time>
      </trkpt>
      <trkpt lat="46.12675" lon="5.90626">
        <ele>385.7</ele>
        <time>2022-09-26T15:22:49Z</time>
      </trkpt>
      <trkpt lat="46.12675" lon="5.90625">
        <ele>385.7</ele>
        <time>2022-09-26T15:22:50Z</time>
      </trkpt>
      <trkpt lat="46.12672" lon="5.90622">
        <ele>385.9</ele>
        <time>2022-09-26T15:22:51Z</time>
      </trkpt>
      <trkpt lat="46.12671" lon="5.90622">
        <ele>385.9</ele>
        <time>2022-09-26T15:22:52Z</time>
      </trkpt>
      <trkpt lat="46.1267" lon="5.9062">
        <ele>386.1</ele>
        <time>2022-09-26T15:22:53Z</time>
      </trkpt>
      <trkpt lat="46.12668" lon="5.90619">
        <ele>386.1</ele>
        <time>2022-09-26T15:22:54Z</time>
      </trkpt>
      <trkpt lat="46.12666" lon="5.90616">
        <ele>386.3</ele>
        <time>2022-09-26T15:22:55Z</time>
      </trkpt>
      <trkpt lat="46.12665" lon="5.90615">
        <ele>386.4</ele>
        <time>2022-09-26T15:22:56Z</time>
      </trkpt>
      <trkpt lat="46.12663" lon="5.90613">
        <ele>386.5</ele>
        <time>2022-09-26T15:22:57Z</time>
      </trkpt>
      <trkpt lat="46.12662" lon="5.90612">
        <ele>386.6</ele>
        <time>2022-09-26T15:22:58Z</time>
      </trkpt>
      <trkpt lat="46.1266" lon="5.90609">
        <ele>386.8</ele>
        <time>2022-09-26T15:22:59Z</time>
      </trkpt>
      <trkpt lat="46.12659" lon="5.90608">
        <ele>386.8</ele>
        <time>2022-09-26T15:23:00Z</time>
      </trkpt>
      <trkpt lat="46.12657" lon="5.90607">
        <ele>386.9</ele>
        <time>2022-09-26T15:23:01Z</time>
      </trkpt>
      <trkpt lat="46.12656" lon="5.90605">
        <ele>387</ele>
        <time>2022-09-26T15:23:02Z</time>
      </trkpt>
      <trkpt lat="46.12654" lon="5.90603">
        <ele>387.2</ele>
        <time>2022-09-26T15:23:03Z</time>
      </trkpt>
      <trkpt lat="46.12653" lon="5.90602">
        <ele>387.2</ele>
        <time>2022-09-26T15:23:04Z</time>
      </trkpt>
      <trkpt lat="46.12651" lon="5.906">
        <ele>387.4</ele>
        <time>2022-09-26T15:23:05Z</time>
      </trkpt>
      <trkpt lat="46.1265" lon="5.90599">
        <ele>387.5</ele>
        <time>2022-09-26T15:23:06Z</time>
      </trkpt>
      <trkpt lat="46.12649" lon="5.90598">
        <ele>387.6</ele>
        <time>2022-09-26T15:23:07Z</time>
      </trkpt>
      <trkpt lat="46.12647" lon="5.90596">
        <ele>387.7</ele>
        <time>2022-09-26T15:23:08Z</time>
      </trkpt>
      <trkpt lat="46.12646" lon="5.90594">
        <ele>387.8</ele>
        <time>2022-09-26T15:23:09Z</time>
      </trkpt>
      <trkpt lat="46.12645" lon="5.90593">
        <ele>387.9</ele>
        <time>2022-09-26T15:23:10Z</time>
      </trkpt>
      <trkpt lat="46.12642" lon="5.90591">
        <ele>388</ele>
        <time>2022-09-26T15:23:11Z</time>
      </trkpt>
      <trkpt lat="46.12642" lon="5.9059">
        <ele>388.1</ele>
        <time>2022-09-26T15:23:12Z</time>
      </trkpt>
      <trkpt lat="46.1264" lon="5.90588">
        <ele>388.2</ele>
        <time>2022-09-26T15:23:13Z</time>
      </trkpt>
      <trkpt lat="46.12639" lon="5.90586">
        <ele>388.3</ele>
        <time>2022-09-26T15:23:14Z</time>
      </trkpt>
      <trkpt lat="46.12636" lon="5.90584">
        <ele>388.5</ele>
        <time>2022-09-26T15:23:15Z</time>
      </trkpt>
      <trkpt lat="46.12636" lon="5.90583">
        <ele>388.6</ele>
        <time>2022-09-26T15:23:16Z</time>
      </trkpt>
      <trkpt lat="46.12633" lon="5.90581">
        <ele>388.8</ele>
        <time>2022-09-26T15:23:17Z</time>
      </trkpt>
      <trkpt lat="46.12632" lon="5.9058">
        <ele>388.8</ele>
        <time>2022-09-26T15:23:18Z</time>
      </trkpt>
      <trkpt lat="46.12631" lon="5.90577">
        <ele>389</ele>
        <time>2022-09-26T15:23:19Z</time>
      </trkpt>
      <trkpt lat="46.12629" lon="5.90576">
        <ele>389.1</ele>
        <time>2022-09-26T15:23:20Z</time>
      </trkpt>
      <trkpt lat="46.12628" lon="5.90575">
        <ele>389.1</ele>
        <time>2022-09-26T15:23:21Z</time>
      </trkpt>
      <trkpt lat="46.12626" lon="5.90572">
        <ele>389.3</ele>
        <time>2022-09-26T15:23:22Z</time>
      </trkpt>
      <trkpt lat="46.12625" lon="5.90572">
        <ele>389.4</ele>
        <time>2022-09-26T15:23:23Z</time>
      </trkpt>
      <trkpt lat="46.12624" lon="5.9057">
        <ele>389.5</ele>
        <time>2022-09-26T15:23:24Z</time>
      </trkpt>
      <trkpt lat="46.12623" lon="5.90568">
        <ele>389.6</ele>
        <time>2022-09-26T15:23:25Z</time>
      </trkpt>
      <trkpt lat="46.12621" lon="5.90567">
        <ele>389.7</ele>
        <time>2022-09-26T15:23:26Z</time>
      </trkpt>
      <trkpt lat="46.1262" lon="5.90565">
        <ele>389.8</ele>
        <time>2022-09-26T15:23:27Z</time>
      </trkpt>
      <trkpt lat="46.12618" lon="5.90564">
        <ele>389.9</ele>
        <time>2022-09-26T15:23:28Z</time>
      </trkpt>
      <trkpt lat="46.12617" lon="5.90562">
        <ele>390.1</ele>
        <time>2022-09-26T15:23:29Z</time>
      </trkpt>
      <trkpt lat="46.12615" lon="5.90561">
        <ele>390.2</ele>
        <time>2022-09-26T15:23:30Z</time>
      </trkpt>
      <trkpt lat="46.12614" lon="5.9056">
        <ele>390.3</ele>
        <time>2022-09-26T15:23:31Z</time>
      </trkpt>
      <trkpt lat="46.12612" lon="5.90557">
        <ele>390.5</ele>
        <time>2022-09-26T15:23:32Z</time>
      </trkpt>
      <trkpt lat="46.12611" lon="5.90556">
        <ele>390.5</ele>
        <time>2022-09-26T15:23:33Z</time>
      </trkpt>
      <trkpt lat="46.12609" lon="5.90553">
        <ele>390.7</ele>
        <time>2022-09-26T15:23:34Z</time>
      </trkpt>
      <trkpt lat="46.12608" lon="5.90552">
        <ele>390.8</ele>
        <time>2022-09-26T15:23:35Z</time>
      </trkpt>
      <trkpt lat="46.12605" lon="5.9055">
        <ele>391</ele>
        <time>2022-09-26T15:23:36Z</time>
      </trkpt>
      <trkpt lat="46.12605" lon="5.90549">
        <ele>391</ele>
        <time>2022-09-26T15:23:37Z</time>
      </trkpt>
      <trkpt lat="46.12603" lon="5.90547">
        <ele>391.1</ele>
        <time>2022-09-26T15:23:38Z</time>
      </trkpt>
      <trkpt lat="46.12602" lon="5.90546">
        <ele>391.2</ele>
        <time>2022-09-26T15:23:39Z</time>
      </trkpt>
      <trkpt lat="46.126" lon="5.90543">
        <ele>391.4</ele>
        <time>2022-09-26T15:23:40Z</time>
      </trkpt>
      <trkpt lat="46.12599" lon="5.90542">
        <ele>391.5</ele>
        <time>2022-09-26T15:23:41Z</time>
      </trkpt>
      <trkpt lat="46.12597" lon="5.9054">
        <ele>391.7</ele>
        <time>2022-09-26T15:23:42Z</time>
      </trkpt>
      <trkpt lat="46.12596" lon="5.90539">
        <ele>391.7</ele>
        <time>2022-09-26T15:23:43Z</time>
      </trkpt>
      <trkpt lat="46.12594" lon="5.90536">
        <ele>391.9</ele>
        <time>2022-09-26T15:23:44Z</time>
      </trkpt>
      <trkpt lat="46.12593" lon="5.90535">
        <ele>391.9</ele>
        <time>2022-09-26T15:23:45Z</time>
      </trkpt>
      <trkpt lat="46.12591" lon="5.90533">
        <ele>392.1</ele>
        <time>2022-09-26T15:23:46Z</time>
      </trkpt>
      <trkpt lat="46.1259" lon="5.90532">
        <ele>392.2</ele>
        <time>2022-09-26T15:23:47Z</time>
      </trkpt>
      <trkpt lat="46.12588" lon="5.9053">
        <ele>392.3</ele>
        <time>2022-09-26T15:23:48Z</time>
      </trkpt>
      <trkpt lat="46.12587" lon="5.90529">
        <ele>392.4</ele>
        <time>2022-09-26T15:23:49Z</time>
      </trkpt>
      <trkpt lat="46.12586" lon="5.90527">
        <ele>392.5</ele>
        <time>2022-09-26T15:23:50Z</time>
      </trkpt>
      <trkpt lat="46.12585" lon="5.90526">
        <ele>392.6</ele>
        <time>2022-09-26T15:23:51Z</time>
      </trkpt>
      <trkpt lat="46.12583" lon="5.90523">
        <ele>392.8</ele>
        <time>2022-09-26T15:23:52Z</time>
      </trkpt>
      <trkpt lat="46.12582" lon="5.90522">
        <ele>392.8</ele>
        <time>2022-09-26T15:23:53Z</time>
      </trkpt>
      <trkpt lat="46.12581" lon="5.90521">
        <ele>392.9</ele>
        <time>2022-09-26T15:23:54Z</time>
      </trkpt>
      <trkpt lat="46.12579" lon="5.90519">
        <ele>393.1</ele>
        <time>2022-09-26T15:23:55Z</time>
      </trkpt>
      <trkpt lat="46.12579" lon="5.90517">
        <ele>393.1</ele>
        <time>2022-09-26T15:23:56Z</time>
      </trkpt>
      <trkpt lat="46.12578" lon="5.90515">
        <ele>393.2</ele>
        <time>2022-09-26T15:23:57Z</time>
      </trkpt>
      <trkpt lat="46.12576" lon="5.90512">
        <ele>393.4</ele>
        <time>2022-09-26T15:23:58Z</time>
      </trkpt>
      <trkpt lat="46.12575" lon="5.90512">
        <ele>393.5</ele>
        <time>2022-09-26T15:23:59Z</time>
      </trkpt>
      <trkpt lat="46.12573" lon="5.90509">
        <ele>393.7</ele>
        <time>2022-09-26T15:24:00Z</time>
      </trkpt>
      <trkpt lat="46.12572" lon="5.90507">
        <ele>393.7</ele>
        <time>2022-09-26T15:24:01Z</time>
      </trkpt>
      <trkpt lat="46.12571" lon="5.90506">
        <ele>393.8</ele>
        <time>2022-09-26T15:24:02Z</time>
      </trkpt>
      <trkpt lat="46.1257" lon="5.90504">
        <ele>393.9</ele>
        <time>2022-09-26T15:24:03Z</time>
      </trkpt>
      <trkpt lat="46.12568" lon="5.90502">
        <ele>394.1</ele>
        <time>2022-09-26T15:24:04Z</time>
      </trkpt>
      <trkpt lat="46.12567" lon="5.905">
        <ele>394.2</ele>
        <time>2022-09-26T15:24:05Z</time>
      </trkpt>
      <trkpt lat="46.12565" lon="5.90497">
        <ele>394.3</ele>
        <time>2022-09-26T15:24:06Z</time>
      </trkpt>
      <trkpt lat="46.12564" lon="5.90496">
        <ele>394.4</ele>
        <time>2022-09-26T15:24:07Z</time>
      </trkpt>
      <trkpt lat="46.12563" lon="5.90493">
        <ele>394.6</ele>
        <time>2022-09-26T15:24:08Z</time>
      </trkpt>
      <trkpt lat="46.12563" lon="5.90491">
        <ele>394.6</ele>
        <time>2022-09-26T15:24:09Z</time>
      </trkpt>
      <trkpt lat="46.12561" lon="5.9049">
        <ele>394.8</ele>
        <time>2022-09-26T15:24:10Z</time>
      </trkpt>
      <trkpt lat="46.12561" lon="5.90488">
        <ele>394.8</ele>
        <time>2022-09-26T15:24:11Z</time>
      </trkpt>
      <trkpt lat="46.1256" lon="5.90486">
        <ele>395</ele>
        <time>2022-09-26T15:24:12Z</time>
      </trkpt>
      <trkpt lat="46.12559" lon="5.90484">
        <ele>395.1</ele>
        <time>2022-09-26T15:24:13Z</time>
      </trkpt>
      <trkpt lat="46.12557" lon="5.9048">
        <ele>395.3</ele>
        <time>2022-09-26T15:24:14Z</time>
      </trkpt>
      <trkpt lat="46.12556" lon="5.90479">
        <ele>395.3</ele>
        <time>2022-09-26T15:24:15Z</time>
      </trkpt>
      <trkpt lat="46.12555" lon="5.90477">
        <ele>395.4</ele>
        <time>2022-09-26T15:24:16Z</time>
      </trkpt>
      <trkpt lat="46.12554" lon="5.90476">
        <ele>395.5</ele>
        <time>2022-09-26T15:24:17Z</time>
      </trkpt>
      <trkpt lat="46.12554" lon="5.90473">
        <ele>395.6</ele>
        <time>2022-09-26T15:24:18Z</time>
      </trkpt>
      <trkpt lat="46.12552" lon="5.90472">
        <ele>395.7</ele>
        <time>2022-09-26T15:24:19Z</time>
      </trkpt>
      <trkpt lat="46.12551" lon="5.90468">
        <ele>395.9</ele>
        <time>2022-09-26T15:24:20Z</time>
      </trkpt>
      <trkpt lat="46.1255" lon="5.90468">
        <ele>396</ele>
        <time>2022-09-26T15:24:21Z</time>
      </trkpt>
      <trkpt lat="46.12549" lon="5.90464">
        <ele>396.1</ele>
        <time>2022-09-26T15:24:22Z</time>
      </trkpt>
      <trkpt lat="46.12548" lon="5.90463">
        <ele>396.2</ele>
        <time>2022-09-26T15:24:23Z</time>
      </trkpt>
      <trkpt lat="46.12547" lon="5.90462">
        <ele>396.3</ele>
        <time>2022-09-26T15:24:24Z</time>
      </trkpt>
      <trkpt lat="46.12546" lon="5.9046">
        <ele>396.4</ele>
        <time>2022-09-26T15:24:25Z</time>
      </trkpt>
      <trkpt lat="46.12546" lon="5.90458">
        <ele>396.5</ele>
        <time>2022-09-26T15:24:26Z</time>
      </trkpt>
      <trkpt lat="46.12545" lon="5.90455">
        <ele>396.6</ele>
        <time>2022-09-26T15:24:27Z</time>
      </trkpt>
      <trkpt lat="46.12544" lon="5.90454">
        <ele>396.7</ele>
        <time>2022-09-26T15:24:28Z</time>
      </trkpt>
      <trkpt lat="46.12543" lon="5.90452">
        <ele>396.8</ele>
        <time>2022-09-26T15:24:29Z</time>
      </trkpt>
      <trkpt lat="46.12541" lon="5.90448">
        <ele>397</ele>
        <time>2022-09-26T15:24:30Z</time>
      </trkpt>
      <trkpt lat="46.12541" lon="5.90447">
        <ele>397.1</ele>
        <time>2022-09-26T15:24:31Z</time>
      </trkpt>
      <trkpt lat="46.12539" lon="5.90445">
        <ele>397.2</ele>
        <time>2022-09-26T15:24:32Z</time>
      </trkpt>
      <trkpt lat="46.12538" lon="5.90443">
        <ele>397.3</ele>
        <time>2022-09-26T15:24:33Z</time>
      </trkpt>
      <trkpt lat="46.12537" lon="5.90439">
        <ele>397.5</ele>
        <time>2022-09-26T15:24:34Z</time>
      </trkpt>
      <trkpt lat="46.12536" lon="5.90438">
        <ele>397.6</ele>
        <time>2022-09-26T15:24:35Z</time>
      </trkpt>
      <trkpt lat="46.12534" lon="5.90435">
        <ele>397.7</ele>
        <time>2022-09-26T15:24:36Z</time>
      </trkpt>
      <trkpt lat="46.12534" lon="5.90433">
        <ele>397.8</ele>
        <time>2022-09-26T15:24:37Z</time>
      </trkpt>
      <trkpt lat="46.12532" lon="5.9043">
        <ele>398</ele>
        <time>2022-09-26T15:24:38Z</time>
      </trkpt>
      <trkpt lat="46.12532" lon="5.90428">
        <ele>398.1</ele>
        <time>2022-09-26T15:24:39Z</time>
      </trkpt>
      <trkpt lat="46.1253" lon="5.90425">
        <ele>398.2</ele>
        <time>2022-09-26T15:24:40Z</time>
      </trkpt>
      <trkpt lat="46.12529" lon="5.90424">
        <ele>398.3</ele>
        <time>2022-09-26T15:24:41Z</time>
      </trkpt>
      <trkpt lat="46.12528" lon="5.9042">
        <ele>398.4</ele>
        <time>2022-09-26T15:24:42Z</time>
      </trkpt>
      <trkpt lat="46.12527" lon="5.90419">
        <ele>398.5</ele>
        <time>2022-09-26T15:24:43Z</time>
      </trkpt>
      <trkpt lat="46.12526" lon="5.90415">
        <ele>398.7</ele>
        <time>2022-09-26T15:24:44Z</time>
      </trkpt>
      <trkpt lat="46.12525" lon="5.90414">
        <ele>398.8</ele>
        <time>2022-09-26T15:24:45Z</time>
      </trkpt>
      <trkpt lat="46.12524" lon="5.9041">
        <ele>398.9</ele>
        <time>2022-09-26T15:24:46Z</time>
      </trkpt>
      <trkpt lat="46.12523" lon="5.90409">
        <ele>399</ele>
        <time>2022-09-26T15:24:47Z</time>
      </trkpt>
      <trkpt lat="46.12522" lon="5.90406">
        <ele>399.1</ele>
        <time>2022-09-26T15:24:48Z</time>
      </trkpt>
      <trkpt lat="46.12521" lon="5.90404">
        <ele>399.3</ele>
        <time>2022-09-26T15:24:49Z</time>
      </trkpt>
      <trkpt lat="46.1252" lon="5.90403">
        <ele>399.4</ele>
        <time>2022-09-26T15:24:50Z</time>
      </trkpt>
      <trkpt lat="46.12519" lon="5.904">
        <ele>399.5</ele>
        <time>2022-09-26T15:24:51Z</time>
      </trkpt>
      <trkpt lat="46.12518" lon="5.90398">
        <ele>399.6</ele>
        <time>2022-09-26T15:24:53Z</time>
      </trkpt>
      <trkpt lat="46.12517" lon="5.90395">
        <ele>399.7</ele>
        <time>2022-09-26T15:24:54Z</time>
      </trkpt>
      <trkpt lat="46.12516" lon="5.90394">
        <ele>399.8</ele>
        <time>2022-09-26T15:24:55Z</time>
      </trkpt>
      <trkpt lat="46.12514" lon="5.90391">
        <ele>400</ele>
        <time>2022-09-26T15:24:56Z</time>
      </trkpt>
      <trkpt lat="46.12513" lon="5.9039">
        <ele>400.1</ele>
        <time>2022-09-26T15:24:57Z</time>
      </trkpt>
      <trkpt lat="46.12513" lon="5.90388">
        <ele>400.1</ele>
        <time>2022-09-26T15:24:58Z</time>
      </trkpt>
      <trkpt lat="46.12512" lon="5.90386">
        <ele>400.2</ele>
        <time>2022-09-26T15:24:59Z</time>
      </trkpt>
      <trkpt lat="46.1251" lon="5.90382">
        <ele>400.4</ele>
        <time>2022-09-26T15:25:00Z</time>
      </trkpt>
      <trkpt lat="46.12509" lon="5.90382">
        <ele>400.5</ele>
        <time>2022-09-26T15:25:01Z</time>
      </trkpt>
      <trkpt lat="46.12508" lon="5.90378">
        <ele>400.7</ele>
        <time>2022-09-26T15:25:02Z</time>
      </trkpt>
      <trkpt lat="46.12508" lon="5.90377">
        <ele>400.7</ele>
        <time>2022-09-26T15:25:03Z</time>
      </trkpt>
      <trkpt lat="46.12507" lon="5.90375">
        <ele>400.8</ele>
        <time>2022-09-26T15:25:04Z</time>
      </trkpt>
      <trkpt lat="46.12506" lon="5.90373">
        <ele>400.9</ele>
        <time>2022-09-26T15:25:05Z</time>
      </trkpt>
      <trkpt lat="46.12504" lon="5.90369">
        <ele>401.1</ele>
        <time>2022-09-26T15:25:06Z</time>
      </trkpt>
      <trkpt lat="46.12504" lon="5.90368">
        <ele>401.1</ele>
        <time>2022-09-26T15:25:07Z</time>
      </trkpt>
      <trkpt lat="46.12503" lon="5.90366">
        <ele>401.3</ele>
        <time>2022-09-26T15:25:08Z</time>
      </trkpt>
      <trkpt lat="46.12502" lon="5.90364">
        <ele>401.3</ele>
        <time>2022-09-26T15:25:09Z</time>
      </trkpt>
      <trkpt lat="46.12501" lon="5.90361">
        <ele>401.5</ele>
        <time>2022-09-26T15:25:10Z</time>
      </trkpt>
      <trkpt lat="46.125" lon="5.9036">
        <ele>401.6</ele>
        <time>2022-09-26T15:25:11Z</time>
      </trkpt>
      <trkpt lat="46.125" lon="5.90357">
        <ele>401.7</ele>
        <time>2022-09-26T15:25:12Z</time>
      </trkpt>
      <trkpt lat="46.12499" lon="5.90355">
        <ele>401.8</ele>
        <time>2022-09-26T15:25:13Z</time>
      </trkpt>
      <trkpt lat="46.12497" lon="5.90351">
        <ele>402</ele>
        <time>2022-09-26T15:25:14Z</time>
      </trkpt>
      <trkpt lat="46.12497" lon="5.9035">
        <ele>402</ele>
        <time>2022-09-26T15:25:15Z</time>
      </trkpt>
      <trkpt lat="46.12496" lon="5.90349">
        <ele>402.1</ele>
        <time>2022-09-26T15:25:16Z</time>
      </trkpt>
      <trkpt lat="46.12495" lon="5.90347">
        <ele>402.2</ele>
        <time>2022-09-26T15:25:17Z</time>
      </trkpt>
      <trkpt lat="46.12493" lon="5.90342">
        <ele>402.5</ele>
        <time>2022-09-26T15:25:18Z</time>
      </trkpt>
      <trkpt lat="46.12492" lon="5.9034">
        <ele>402.6</ele>
        <time>2022-09-26T15:25:19Z</time>
      </trkpt>
      <trkpt lat="46.12492" lon="5.90338">
        <ele>402.6</ele>
        <time>2022-09-26T15:25:20Z</time>
      </trkpt>
      <trkpt lat="46.1249" lon="5.90334">
        <ele>402.9</ele>
        <time>2022-09-26T15:25:21Z</time>
      </trkpt>
      <trkpt lat="46.12489" lon="5.90333">
        <ele>402.9</ele>
        <time>2022-09-26T15:25:22Z</time>
      </trkpt>
      <trkpt lat="46.12488" lon="5.90331">
        <ele>403</ele>
        <time>2022-09-26T15:25:23Z</time>
      </trkpt>
      <trkpt lat="46.12487" lon="5.90329">
        <ele>403.2</ele>
        <time>2022-09-26T15:25:24Z</time>
      </trkpt>
      <trkpt lat="46.12485" lon="5.90326">
        <ele>403.3</ele>
        <time>2022-09-26T15:25:25Z</time>
      </trkpt>
      <trkpt lat="46.12485" lon="5.90325">
        <ele>403.4</ele>
        <time>2022-09-26T15:25:26Z</time>
      </trkpt>
      <trkpt lat="46.12483" lon="5.90321">
        <ele>403.6</ele>
        <time>2022-09-26T15:25:27Z</time>
      </trkpt>
      <trkpt lat="46.12483" lon="5.9032">
        <ele>403.7</ele>
        <time>2022-09-26T15:25:28Z</time>
      </trkpt>
      <trkpt lat="46.12481" lon="5.90317">
        <ele>403.8</ele>
        <time>2022-09-26T15:25:29Z</time>
      </trkpt>
      <trkpt lat="46.1248" lon="5.90316">
        <ele>403.9</ele>
        <time>2022-09-26T15:25:30Z</time>
      </trkpt>
      <trkpt lat="46.12479" lon="5.90312">
        <ele>404.1</ele>
        <time>2022-09-26T15:25:31Z</time>
      </trkpt>
      <trkpt lat="46.12478" lon="5.90311">
        <ele>404.2</ele>
        <time>2022-09-26T15:25:32Z</time>
      </trkpt>
      <trkpt lat="46.12477" lon="5.9031">
        <ele>404.2</ele>
        <time>2022-09-26T15:25:33Z</time>
      </trkpt>
      <trkpt lat="46.12476" lon="5.90308">
        <ele>404.3</ele>
        <time>2022-09-26T15:25:34Z</time>
      </trkpt>
      <trkpt lat="46.12475" lon="5.90306">
        <ele>404.5</ele>
        <time>2022-09-26T15:25:35Z</time>
      </trkpt>
      <trkpt lat="46.12474" lon="5.90304">
        <ele>404.6</ele>
        <time>2022-09-26T15:25:36Z</time>
      </trkpt>
      <trkpt lat="46.12473" lon="5.90302">
        <ele>404.7</ele>
        <time>2022-09-26T15:25:37Z</time>
      </trkpt>
      <trkpt lat="46.12472" lon="5.903">
        <ele>404.8</ele>
        <time>2022-09-26T15:25:38Z</time>
      </trkpt>
      <trkpt lat="46.12471" lon="5.90298">
        <ele>404.9</ele>
        <time>2022-09-26T15:25:39Z</time>
      </trkpt>
      <trkpt lat="46.12469" lon="5.90295">
        <ele>405.1</ele>
        <time>2022-09-26T15:25:40Z</time>
      </trkpt>
      <trkpt lat="46.12469" lon="5.90294">
        <ele>405.1</ele>
        <time>2022-09-26T15:25:41Z</time>
      </trkpt>
      <trkpt lat="46.12468" lon="5.90292">
        <ele>405.2</ele>
        <time>2022-09-26T15:25:42Z</time>
      </trkpt>
      <trkpt lat="46.12466" lon="5.9029">
        <ele>405.3</ele>
        <time>2022-09-26T15:25:43Z</time>
      </trkpt>
      <trkpt lat="46.12466" lon="5.90289">
        <ele>405.4</ele>
        <time>2022-09-26T15:25:44Z</time>
      </trkpt>
      <trkpt lat="46.12464" lon="5.90287">
        <ele>405.5</ele>
        <time>2022-09-26T15:25:45Z</time>
      </trkpt>
      <trkpt lat="46.12463" lon="5.90286">
        <ele>405.6</ele>
        <time>2022-09-26T15:25:46Z</time>
      </trkpt>
      <trkpt lat="46.12462" lon="5.90283">
        <ele>405.7</ele>
        <time>2022-09-26T15:25:47Z</time>
      </trkpt>
      <trkpt lat="46.12462" lon="5.90282">
        <ele>405.8</ele>
        <time>2022-09-26T15:25:48Z</time>
      </trkpt>
      <trkpt lat="46.1246" lon="5.9028">
        <ele>405.9</ele>
        <time>2022-09-26T15:25:49Z</time>
      </trkpt>
      <trkpt lat="46.12458" lon="5.90277">
        <ele>406.1</ele>
        <time>2022-09-26T15:25:50Z</time>
      </trkpt>
      <trkpt lat="46.12456" lon="5.90274">
        <ele>406.3</ele>
        <time>2022-09-26T15:25:51Z</time>
      </trkpt>
      <trkpt lat="46.12455" lon="5.90273">
        <ele>406.3</ele>
        <time>2022-09-26T15:25:52Z</time>
      </trkpt>
      <trkpt lat="46.12454" lon="5.90273">
        <ele>406.4</ele>
        <time>2022-09-26T15:25:53Z</time>
      </trkpt>
      <trkpt lat="46.12453" lon="5.90271">
        <ele>406.5</ele>
        <time>2022-09-26T15:25:54Z</time>
      </trkpt>
      <trkpt lat="46.12451" lon="5.90268">
        <ele>406.7</ele>
        <time>2022-09-26T15:25:55Z</time>
      </trkpt>
      <trkpt lat="46.1245" lon="5.90267">
        <ele>406.7</ele>
        <time>2022-09-26T15:25:56Z</time>
      </trkpt>
      <trkpt lat="46.12448" lon="5.90264">
        <ele>406.9</ele>
        <time>2022-09-26T15:25:57Z</time>
      </trkpt>
      <trkpt lat="46.12447" lon="5.90263">
        <ele>407</ele>
        <time>2022-09-26T15:25:58Z</time>
      </trkpt>
      <trkpt lat="46.12445" lon="5.90261">
        <ele>407.1</ele>
        <time>2022-09-26T15:25:59Z</time>
      </trkpt>
      <trkpt lat="46.12444" lon="5.90261">
        <ele>407.2</ele>
        <time>2022-09-26T15:26:00Z</time>
      </trkpt>
      <trkpt lat="46.12442" lon="5.90258">
        <ele>407.4</ele>
        <time>2022-09-26T15:26:01Z</time>
      </trkpt>
      <trkpt lat="46.12442" lon="5.90257">
        <ele>407.4</ele>
        <time>2022-09-26T15:26:02Z</time>
      </trkpt>
      <trkpt lat="46.1244" lon="5.90255">
        <ele>407.6</ele>
        <time>2022-09-26T15:26:03Z</time>
      </trkpt>
      <trkpt lat="46.12439" lon="5.90253">
        <ele>407.6</ele>
        <time>2022-09-26T15:26:04Z</time>
      </trkpt>
      <trkpt lat="46.12437" lon="5.90251">
        <ele>407.8</ele>
        <time>2022-09-26T15:26:05Z</time>
      </trkpt>
      <trkpt lat="46.12436" lon="5.9025">
        <ele>407.8</ele>
        <time>2022-09-26T15:26:06Z</time>
      </trkpt>
      <trkpt lat="46.12435" lon="5.90249">
        <ele>407.9</ele>
        <time>2022-09-26T15:26:07Z</time>
      </trkpt>
      <trkpt lat="46.12434" lon="5.90247">
        <ele>408.1</ele>
        <time>2022-09-26T15:26:08Z</time>
      </trkpt>
      <trkpt lat="46.12433" lon="5.90245">
        <ele>408.1</ele>
        <time>2022-09-26T15:26:09Z</time>
      </trkpt>
      <trkpt lat="46.12431" lon="5.90244">
        <ele>408.3</ele>
        <time>2022-09-26T15:26:10Z</time>
      </trkpt>
      <trkpt lat="46.1243" lon="5.90243">
        <ele>408.3</ele>
        <time>2022-09-26T15:26:11Z</time>
      </trkpt>
      <trkpt lat="46.12429" lon="5.90241">
        <ele>408.5</ele>
        <time>2022-09-26T15:26:12Z</time>
      </trkpt>
      <trkpt lat="46.12427" lon="5.9024">
        <ele>408.6</ele>
        <time>2022-09-26T15:26:13Z</time>
      </trkpt>
      <trkpt lat="46.12425" lon="5.90239">
        <ele>408.7</ele>
        <time>2022-09-26T15:26:14Z</time>
      </trkpt>
      <trkpt lat="46.12424" lon="5.90237">
        <ele>408.8</ele>
        <time>2022-09-26T15:26:15Z</time>
      </trkpt>
      <trkpt lat="46.12422" lon="5.90237">
        <ele>408.9</ele>
        <time>2022-09-26T15:26:16Z</time>
      </trkpt>
      <trkpt lat="46.1242" lon="5.90235">
        <ele>409</ele>
        <time>2022-09-26T15:26:17Z</time>
      </trkpt>
      <trkpt lat="46.12419" lon="5.90234">
        <ele>409.1</ele>
        <time>2022-09-26T15:26:18Z</time>
      </trkpt>
      <trkpt lat="46.12417" lon="5.90232">
        <ele>409.2</ele>
        <time>2022-09-26T15:26:19Z</time>
      </trkpt>
      <trkpt lat="46.12416" lon="5.90232">
        <ele>409.3</ele>
        <time>2022-09-26T15:26:20Z</time>
      </trkpt>
      <trkpt lat="46.12415" lon="5.9023">
        <ele>409.4</ele>
        <time>2022-09-26T15:26:21Z</time>
      </trkpt>
      <trkpt lat="46.12413" lon="5.90229">
        <ele>409.5</ele>
        <time>2022-09-26T15:26:22Z</time>
      </trkpt>
      <trkpt lat="46.12411" lon="5.90227">
        <ele>409.7</ele>
        <time>2022-09-26T15:26:23Z</time>
      </trkpt>
      <trkpt lat="46.1241" lon="5.90226">
        <ele>409.7</ele>
        <time>2022-09-26T15:26:24Z</time>
      </trkpt>
      <trkpt lat="46.12408" lon="5.90225">
        <ele>409.8</ele>
        <time>2022-09-26T15:26:25Z</time>
      </trkpt>
      <trkpt lat="46.12407" lon="5.90225">
        <ele>409.9</ele>
        <time>2022-09-26T15:26:26Z</time>
      </trkpt>
      <trkpt lat="46.12405" lon="5.90223">
        <ele>410</ele>
        <time>2022-09-26T15:26:27Z</time>
      </trkpt>
      <trkpt lat="46.12404" lon="5.90222">
        <ele>410.1</ele>
        <time>2022-09-26T15:26:28Z</time>
      </trkpt>
      <trkpt lat="46.12401" lon="5.9022">
        <ele>410.3</ele>
        <time>2022-09-26T15:26:29Z</time>
      </trkpt>
      <trkpt lat="46.12401" lon="5.90219">
        <ele>410.3</ele>
        <time>2022-09-26T15:26:30Z</time>
      </trkpt>
      <trkpt lat="46.12398" lon="5.90219">
        <ele>410.5</ele>
        <time>2022-09-26T15:26:31Z</time>
      </trkpt>
      <trkpt lat="46.12395" lon="5.90216">
        <ele>410.7</ele>
        <time>2022-09-26T15:26:32Z</time>
      </trkpt>
      <trkpt lat="46.12394" lon="5.90215">
        <ele>410.7</ele>
        <time>2022-09-26T15:26:33Z</time>
      </trkpt>
      <trkpt lat="46.12392" lon="5.90213">
        <ele>410.9</ele>
        <time>2022-09-26T15:26:34Z</time>
      </trkpt>
      <trkpt lat="46.12391" lon="5.90212">
        <ele>411</ele>
        <time>2022-09-26T15:26:35Z</time>
      </trkpt>
      <trkpt lat="46.12388" lon="5.9021">
        <ele>411.1</ele>
        <time>2022-09-26T15:26:36Z</time>
      </trkpt>
      <trkpt lat="46.12388" lon="5.9021">
        <ele>411.2</ele>
        <time>2022-09-26T15:26:37Z</time>
      </trkpt>
      <trkpt lat="46.12386" lon="5.90209">
        <ele>411.3</ele>
        <time>2022-09-26T15:26:38Z</time>
      </trkpt>
      <trkpt lat="46.12385" lon="5.90207">
        <ele>411.4</ele>
        <time>2022-09-26T15:26:39Z</time>
      </trkpt>
      <trkpt lat="46.12383" lon="5.90206">
        <ele>411.4</ele>
        <time>2022-09-26T15:26:40Z</time>
      </trkpt>
      <trkpt lat="46.12382" lon="5.90204">
        <ele>411.6</ele>
        <time>2022-09-26T15:26:41Z</time>
      </trkpt>
      <trkpt lat="46.12381" lon="5.90204">
        <ele>411.6</ele>
        <time>2022-09-26T15:26:42Z</time>
      </trkpt>
      <trkpt lat="46.12379" lon="5.90202">
        <ele>411.7</ele>
        <time>2022-09-26T15:26:43Z</time>
      </trkpt>
      <trkpt lat="46.12376" lon="5.902">
        <ele>411.9</ele>
        <time>2022-09-26T15:26:44Z</time>
      </trkpt>
      <trkpt lat="46.12376" lon="5.90199">
        <ele>411.9</ele>
        <time>2022-09-26T15:26:45Z</time>
      </trkpt>
      <trkpt lat="46.12374" lon="5.90198">
        <ele>412</ele>
        <time>2022-09-26T15:26:46Z</time>
      </trkpt>
      <trkpt lat="46.12373" lon="5.90196">
        <ele>412.1</ele>
        <time>2022-09-26T15:26:47Z</time>
      </trkpt>
      <trkpt lat="46.1237" lon="5.90194">
        <ele>412.3</ele>
        <time>2022-09-26T15:26:48Z</time>
      </trkpt>
      <trkpt lat="46.12369" lon="5.90194">
        <ele>412.4</ele>
        <time>2022-09-26T15:26:49Z</time>
      </trkpt>
      <trkpt lat="46.12367" lon="5.90191">
        <ele>412.5</ele>
        <time>2022-09-26T15:26:50Z</time>
      </trkpt>
      <trkpt lat="46.12366" lon="5.9019">
        <ele>412.6</ele>
        <time>2022-09-26T15:26:51Z</time>
      </trkpt>
      <trkpt lat="46.12365" lon="5.90188">
        <ele>412.7</ele>
        <time>2022-09-26T15:26:52Z</time>
      </trkpt>
      <trkpt lat="46.12364" lon="5.90186">
        <ele>412.8</ele>
        <time>2022-09-26T15:26:53Z</time>
      </trkpt>
      <trkpt lat="46.12362" lon="5.90183">
        <ele>413</ele>
        <time>2022-09-26T15:26:54Z</time>
      </trkpt>
      <trkpt lat="46.12362" lon="5.90181">
        <ele>413</ele>
        <time>2022-09-26T15:26:55Z</time>
      </trkpt>
      <trkpt lat="46.12362" lon="5.90177">
        <ele>414.1</ele>
        <time>2022-09-26T15:26:56Z</time>
      </trkpt>
      <trkpt lat="46.12362" lon="5.90176">
        <ele>414.1</ele>
        <time>2022-09-26T15:26:57Z</time>
      </trkpt>
      <trkpt lat="46.12361" lon="5.90173">
        <ele>414.2</ele>
        <time>2022-09-26T15:26:59Z</time>
      </trkpt>
      <trkpt lat="46.12361" lon="5.90171">
        <ele>414.3</ele>
        <time>2022-09-26T15:27:00Z</time>
      </trkpt>
      <trkpt lat="46.12361" lon="5.90167">
        <ele>414.3</ele>
        <time>2022-09-26T15:27:01Z</time>
      </trkpt>
      <trkpt lat="46.12362" lon="5.90166">
        <ele>414.4</ele>
        <time>2022-09-26T15:27:02Z</time>
      </trkpt>
      <trkpt lat="46.12362" lon="5.90161">
        <ele>414.4</ele>
        <time>2022-09-26T15:27:03Z</time>
      </trkpt>
      <trkpt lat="46.12362" lon="5.9016">
        <ele>414.4</ele>
        <time>2022-09-26T15:27:04Z</time>
      </trkpt>
      <trkpt lat="46.12362" lon="5.90159">
        <ele>414.4</ele>
        <time>2022-09-26T15:27:05Z</time>
      </trkpt>
      <trkpt lat="46.12364" lon="5.90156">
        <ele>414.5</ele>
        <time>2022-09-26T15:27:06Z</time>
      </trkpt>
      <trkpt lat="46.12366" lon="5.90154">
        <ele>414.6</ele>
        <time>2022-09-26T15:27:07Z</time>
      </trkpt>
      <trkpt lat="46.12367" lon="5.90153">
        <ele>414.7</ele>
        <time>2022-09-26T15:27:08Z</time>
      </trkpt>
      <trkpt lat="46.12368" lon="5.90151">
        <ele>414.8</ele>
        <time>2022-09-26T15:27:09Z</time>
      </trkpt>
      <trkpt lat="46.12369" lon="5.90149">
        <ele>414.9</ele>
        <time>2022-09-26T15:27:10Z</time>
      </trkpt>
      <trkpt lat="46.12371" lon="5.90147">
        <ele>415</ele>
        <time>2022-09-26T15:27:11Z</time>
      </trkpt>
      <trkpt lat="46.12372" lon="5.90145">
        <ele>415.1</ele>
        <time>2022-09-26T15:27:12Z</time>
      </trkpt>
      <trkpt lat="46.12374" lon="5.90145">
        <ele>415.2</ele>
        <time>2022-09-26T15:27:13Z</time>
      </trkpt>
      <trkpt lat="46.12376" lon="5.90145">
        <ele>415.3</ele>
        <time>2022-09-26T15:27:14Z</time>
      </trkpt>
      <trkpt lat="46.12377" lon="5.90145">
        <ele>415.3</ele>
        <time>2022-09-26T15:27:15Z</time>
      </trkpt>
      <trkpt lat="46.12379" lon="5.90143">
        <ele>415.4</ele>
        <time>2022-09-26T15:27:16Z</time>
      </trkpt>
      <trkpt lat="46.12381" lon="5.90144">
        <ele>415.6</ele>
        <time>2022-09-26T15:27:17Z</time>
      </trkpt>
      <trkpt lat="46.12382" lon="5.90144">
        <ele>415.6</ele>
        <time>2022-09-26T15:27:18Z</time>
      </trkpt>
      <trkpt lat="46.12385" lon="5.90145">
        <ele>415.8</ele>
        <time>2022-09-26T15:27:19Z</time>
      </trkpt>
      <trkpt lat="46.12386" lon="5.90145">
        <ele>415.9</ele>
        <time>2022-09-26T15:27:20Z</time>
      </trkpt>
      <trkpt lat="46.1239" lon="5.90145">
        <ele>416</ele>
        <time>2022-09-26T15:27:21Z</time>
      </trkpt>
      <trkpt lat="46.12393" lon="5.90146">
        <ele>416.2</ele>
        <time>2022-09-26T15:27:22Z</time>
      </trkpt>
      <trkpt lat="46.12394" lon="5.90147">
        <ele>416.3</ele>
        <time>2022-09-26T15:27:23Z</time>
      </trkpt>
      <trkpt lat="46.12397" lon="5.90149">
        <ele>416.4</ele>
        <time>2022-09-26T15:27:24Z</time>
      </trkpt>
      <trkpt lat="46.12397" lon="5.9015">
        <ele>416.5</ele>
        <time>2022-09-26T15:27:25Z</time>
      </trkpt>
      <trkpt lat="46.12401" lon="5.90152">
        <ele>416.7</ele>
        <time>2022-09-26T15:27:26Z</time>
      </trkpt>
      <trkpt lat="46.12401" lon="5.90153">
        <ele>416.7</ele>
        <time>2022-09-26T15:27:27Z</time>
      </trkpt>
      <trkpt lat="46.12404" lon="5.90156">
        <ele>416.8</ele>
        <time>2022-09-26T15:27:28Z</time>
      </trkpt>
      <trkpt lat="46.12408" lon="5.90159">
        <ele>416.9</ele>
        <time>2022-09-26T15:27:29Z</time>
      </trkpt>
      <trkpt lat="46.12411" lon="5.90162">
        <ele>417</ele>
        <time>2022-09-26T15:27:30Z</time>
      </trkpt>
      <trkpt lat="46.12411" lon="5.90162">
        <ele>417</ele>
        <time>2022-09-26T15:27:31Z</time>
      </trkpt>
      <trkpt lat="46.12413" lon="5.90165">
        <ele>417.1</ele>
        <time>2022-09-26T15:27:32Z</time>
      </trkpt>
      <trkpt lat="46.12414" lon="5.90166">
        <ele>417.1</ele>
        <time>2022-09-26T15:27:33Z</time>
      </trkpt>
      <trkpt lat="46.12417" lon="5.90169">
        <ele>417.2</ele>
        <time>2022-09-26T15:27:34Z</time>
      </trkpt>
      <trkpt lat="46.12417" lon="5.9017">
        <ele>417.3</ele>
        <time>2022-09-26T15:27:35Z</time>
      </trkpt>
      <trkpt lat="46.1242" lon="5.90172">
        <ele>417.4</ele>
        <time>2022-09-26T15:27:36Z</time>
      </trkpt>
      <trkpt lat="46.12421" lon="5.90173">
        <ele>417.4</ele>
        <time>2022-09-26T15:27:37Z</time>
      </trkpt>
      <trkpt lat="46.12423" lon="5.90176">
        <ele>417.5</ele>
        <time>2022-09-26T15:27:38Z</time>
      </trkpt>
      <trkpt lat="46.12424" lon="5.90178">
        <ele>417.5</ele>
        <time>2022-09-26T15:27:39Z</time>
      </trkpt>
      <trkpt lat="46.12426" lon="5.90179">
        <ele>417.6</ele>
        <time>2022-09-26T15:27:40Z</time>
      </trkpt>
      <trkpt lat="46.12427" lon="5.9018">
        <ele>417.7</ele>
        <time>2022-09-26T15:27:41Z</time>
      </trkpt>
      <trkpt lat="46.12428" lon="5.90181">
        <ele>417.7</ele>
        <time>2022-09-26T15:27:42Z</time>
      </trkpt>
      <trkpt lat="46.12431" lon="5.90182">
        <ele>417.8</ele>
        <time>2022-09-26T15:27:43Z</time>
      </trkpt>
      <trkpt lat="46.12432" lon="5.90184">
        <ele>417.8</ele>
        <time>2022-09-26T15:27:44Z</time>
      </trkpt>
      <trkpt lat="46.12434" lon="5.90185">
        <ele>417.9</ele>
        <time>2022-09-26T15:27:45Z</time>
      </trkpt>
      <trkpt lat="46.12435" lon="5.90186">
        <ele>418</ele>
        <time>2022-09-26T15:27:46Z</time>
      </trkpt>
      <trkpt lat="46.12438" lon="5.90188">
        <ele>418.1</ele>
        <time>2022-09-26T15:27:47Z</time>
      </trkpt>
      <trkpt lat="46.1244" lon="5.90188">
        <ele>418.1</ele>
        <time>2022-09-26T15:27:48Z</time>
      </trkpt>
      <trkpt lat="46.12441" lon="5.9019">
        <ele>418.2</ele>
        <time>2022-09-26T15:27:49Z</time>
      </trkpt>
      <trkpt lat="46.12442" lon="5.9019">
        <ele>418.2</ele>
        <time>2022-09-26T15:27:50Z</time>
      </trkpt>
      <trkpt lat="46.12444" lon="5.90191">
        <ele>418.3</ele>
        <time>2022-09-26T15:27:51Z</time>
      </trkpt>
      <trkpt lat="46.12446" lon="5.90192">
        <ele>418.4</ele>
        <time>2022-09-26T15:27:52Z</time>
      </trkpt>
      <trkpt lat="46.12449" lon="5.90194">
        <ele>418.5</ele>
        <time>2022-09-26T15:27:53Z</time>
      </trkpt>
      <trkpt lat="46.1245" lon="5.90194">
        <ele>418.6</ele>
        <time>2022-09-26T15:27:54Z</time>
      </trkpt>
      <trkpt lat="46.12453" lon="5.90195">
        <ele>418.7</ele>
        <time>2022-09-26T15:27:55Z</time>
      </trkpt>
      <trkpt lat="46.12454" lon="5.90195">
        <ele>418.8</ele>
        <time>2022-09-26T15:27:56Z</time>
      </trkpt>
      <trkpt lat="46.12457" lon="5.90196">
        <ele>418.9</ele>
        <time>2022-09-26T15:27:57Z</time>
      </trkpt>
      <trkpt lat="46.12458" lon="5.90197">
        <ele>418.9</ele>
        <time>2022-09-26T15:27:58Z</time>
      </trkpt>
      <trkpt lat="46.12461" lon="5.90197">
        <ele>419.1</ele>
        <time>2022-09-26T15:27:59Z</time>
      </trkpt>
      <trkpt lat="46.12462" lon="5.90198">
        <ele>419.1</ele>
        <time>2022-09-26T15:28:00Z</time>
      </trkpt>
      <trkpt lat="46.12465" lon="5.90198">
        <ele>419.3</ele>
        <time>2022-09-26T15:28:01Z</time>
      </trkpt>
      <trkpt lat="46.12468" lon="5.902">
        <ele>419.4</ele>
        <time>2022-09-26T15:28:02Z</time>
      </trkpt>
      <trkpt lat="46.12469" lon="5.90201">
        <ele>419.5</ele>
        <time>2022-09-26T15:28:03Z</time>
      </trkpt>
      <trkpt lat="46.12471" lon="5.90201">
        <ele>419.6</ele>
        <time>2022-09-26T15:28:04Z</time>
      </trkpt>
      <trkpt lat="46.12472" lon="5.90201">
        <ele>419.6</ele>
        <time>2022-09-26T15:28:05Z</time>
      </trkpt>
      <trkpt lat="46.12475" lon="5.90202">
        <ele>419.8</ele>
        <time>2022-09-26T15:28:06Z</time>
      </trkpt>
      <trkpt lat="46.12478" lon="5.90203">
        <ele>419.9</ele>
        <time>2022-09-26T15:28:07Z</time>
      </trkpt>
      <trkpt lat="46.12479" lon="5.90203">
        <ele>420</ele>
        <time>2022-09-26T15:28:08Z</time>
      </trkpt>
      <trkpt lat="46.12482" lon="5.90204">
        <ele>420.1</ele>
        <time>2022-09-26T15:28:09Z</time>
      </trkpt>
      <trkpt lat="46.12483" lon="5.90204">
        <ele>420.2</ele>
        <time>2022-09-26T15:28:10Z</time>
      </trkpt>
      <trkpt lat="46.12486" lon="5.90205">
        <ele>420.3</ele>
        <time>2022-09-26T15:28:11Z</time>
      </trkpt>
      <trkpt lat="46.12487" lon="5.90205">
        <ele>420.3</ele>
        <time>2022-09-26T15:28:12Z</time>
      </trkpt>
      <trkpt lat="46.1249" lon="5.90206">
        <ele>420.5</ele>
        <time>2022-09-26T15:28:13Z</time>
      </trkpt>
      <trkpt lat="46.12491" lon="5.90206">
        <ele>420.5</ele>
        <time>2022-09-26T15:28:14Z</time>
      </trkpt>
      <trkpt lat="46.12494" lon="5.90207">
        <ele>420.7</ele>
        <time>2022-09-26T15:28:15Z</time>
      </trkpt>
      <trkpt lat="46.12495" lon="5.90207">
        <ele>420.7</ele>
        <time>2022-09-26T15:28:16Z</time>
      </trkpt>
      <trkpt lat="46.12497" lon="5.90208">
        <ele>420.8</ele>
        <time>2022-09-26T15:28:17Z</time>
      </trkpt>
      <trkpt lat="46.12499" lon="5.90208">
        <ele>420.9</ele>
        <time>2022-09-26T15:28:18Z</time>
      </trkpt>
      <trkpt lat="46.12501" lon="5.90209">
        <ele>421</ele>
        <time>2022-09-26T15:28:19Z</time>
      </trkpt>
      <trkpt lat="46.12502" lon="5.90209">
        <ele>421.1</ele>
        <time>2022-09-26T15:28:20Z</time>
      </trkpt>
      <trkpt lat="46.12505" lon="5.90211">
        <ele>421.3</ele>
        <time>2022-09-26T15:28:21Z</time>
      </trkpt>
      <trkpt lat="46.12506" lon="5.90211">
        <ele>421.3</ele>
        <time>2022-09-26T15:28:22Z</time>
      </trkpt>
      <trkpt lat="46.12509" lon="5.90211">
        <ele>421.5</ele>
        <time>2022-09-26T15:28:23Z</time>
      </trkpt>
      <trkpt lat="46.1251" lon="5.90211">
        <ele>421.5</ele>
        <time>2022-09-26T15:28:24Z</time>
      </trkpt>
      <trkpt lat="46.12513" lon="5.90212">
        <ele>421.7</ele>
        <time>2022-09-26T15:28:25Z</time>
      </trkpt>
      <trkpt lat="46.12514" lon="5.90212">
        <ele>421.7</ele>
        <time>2022-09-26T15:28:26Z</time>
      </trkpt>
      <trkpt lat="46.12516" lon="5.90213">
        <ele>421.9</ele>
        <time>2022-09-26T15:28:27Z</time>
      </trkpt>
      <trkpt lat="46.12517" lon="5.90213">
        <ele>421.9</ele>
        <time>2022-09-26T15:28:28Z</time>
      </trkpt>
      <trkpt lat="46.12518" lon="5.90214">
        <ele>422</ele>
        <time>2022-09-26T15:28:29Z</time>
      </trkpt>
      <trkpt lat="46.1252" lon="5.90214">
        <ele>422.1</ele>
        <time>2022-09-26T15:28:30Z</time>
      </trkpt>
      <trkpt lat="46.12522" lon="5.90215">
        <ele>422.2</ele>
        <time>2022-09-26T15:28:31Z</time>
      </trkpt>
      <trkpt lat="46.12525" lon="5.90216">
        <ele>422.4</ele>
        <time>2022-09-26T15:28:32Z</time>
      </trkpt>
      <trkpt lat="46.12526" lon="5.90216">
        <ele>422.5</ele>
        <time>2022-09-26T15:28:33Z</time>
      </trkpt>
      <trkpt lat="46.12528" lon="5.90217">
        <ele>422.6</ele>
        <time>2022-09-26T15:28:34Z</time>
      </trkpt>
      <trkpt lat="46.12529" lon="5.90217">
        <ele>422.7</ele>
        <time>2022-09-26T15:28:35Z</time>
      </trkpt>
      <trkpt lat="46.12531" lon="5.90217">
        <ele>422.8</ele>
        <time>2022-09-26T15:28:36Z</time>
      </trkpt>
      <trkpt lat="46.12532" lon="5.90217">
        <ele>422.8</ele>
        <time>2022-09-26T15:28:37Z</time>
      </trkpt>
      <trkpt lat="46.12533" lon="5.90218">
        <ele>422.9</ele>
        <time>2022-09-26T15:28:38Z</time>
      </trkpt>
      <trkpt lat="46.12533" lon="5.90218">
        <ele>422.9</ele>
        <time>2022-09-26T15:28:39Z</time>
      </trkpt>
      <trkpt lat="46.12536" lon="5.90218">
        <ele>423.1</ele>
        <time>2022-09-26T15:28:40Z</time>
      </trkpt>
      <trkpt lat="46.12538" lon="5.90219">
        <ele>423.2</ele>
        <time>2022-09-26T15:28:41Z</time>
      </trkpt>
      <trkpt lat="46.12539" lon="5.90219">
        <ele>423.3</ele>
        <time>2022-09-26T15:28:42Z</time>
      </trkpt>
      <trkpt lat="46.12542" lon="5.90219">
        <ele>423.4</ele>
        <time>2022-09-26T15:28:43Z</time>
      </trkpt>
      <trkpt lat="46.12544" lon="5.90221">
        <ele>423.6</ele>
        <time>2022-09-26T15:28:44Z</time>
      </trkpt>
      <trkpt lat="46.12545" lon="5.90221">
        <ele>423.6</ele>
        <time>2022-09-26T15:28:45Z</time>
      </trkpt>
      <trkpt lat="46.12545" lon="5.90222">
        <ele>423.7</ele>
        <time>2022-09-26T15:28:46Z</time>
      </trkpt>
      <trkpt lat="46.12548" lon="5.90221">
        <ele>423.8</ele>
        <time>2022-09-26T15:28:47Z</time>
      </trkpt>
      <trkpt lat="46.12549" lon="5.90222">
        <ele>423.9</ele>
        <time>2022-09-26T15:28:48Z</time>
      </trkpt>
      <trkpt lat="46.12552" lon="5.90222">
        <ele>424.1</ele>
        <time>2022-09-26T15:28:49Z</time>
      </trkpt>
      <trkpt lat="46.12554" lon="5.90223">
        <ele>424.1</ele>
        <time>2022-09-26T15:28:50Z</time>
      </trkpt>
      <trkpt lat="46.12557" lon="5.90224">
        <ele>424.3</ele>
        <time>2022-09-26T15:28:51Z</time>
      </trkpt>
      <trkpt lat="46.12558" lon="5.90224">
        <ele>424.4</ele>
        <time>2022-09-26T15:28:52Z</time>
      </trkpt>
      <trkpt lat="46.12561" lon="5.90225">
        <ele>424.6</ele>
        <time>2022-09-26T15:28:53Z</time>
      </trkpt>
      <trkpt lat="46.12562" lon="5.90225">
        <ele>424.7</ele>
        <time>2022-09-26T15:28:54Z</time>
      </trkpt>
      <trkpt lat="46.12565" lon="5.90226">
        <ele>424.8</ele>
        <time>2022-09-26T15:28:55Z</time>
      </trkpt>
      <trkpt lat="46.12566" lon="5.90225">
        <ele>424.9</ele>
        <time>2022-09-26T15:28:56Z</time>
      </trkpt>
      <trkpt lat="46.12568" lon="5.90226">
        <ele>425</ele>
        <time>2022-09-26T15:28:57Z</time>
      </trkpt>
      <trkpt lat="46.12569" lon="5.90226">
        <ele>425.1</ele>
        <time>2022-09-26T15:28:58Z</time>
      </trkpt>
      <trkpt lat="46.1257" lon="5.90226">
        <ele>425.1</ele>
        <time>2022-09-26T15:28:59Z</time>
      </trkpt>
      <trkpt lat="46.12574" lon="5.90226">
        <ele>425.3</ele>
        <time>2022-09-26T15:29:00Z</time>
      </trkpt>
      <trkpt lat="46.12575" lon="5.90226">
        <ele>425.4</ele>
        <time>2022-09-26T15:29:01Z</time>
      </trkpt>
      <trkpt lat="46.12578" lon="5.90226">
        <ele>425.5</ele>
        <time>2022-09-26T15:29:02Z</time>
      </trkpt>
      <trkpt lat="46.12579" lon="5.90226">
        <ele>425.6</ele>
        <time>2022-09-26T15:29:03Z</time>
      </trkpt>
      <trkpt lat="46.12581" lon="5.90225">
        <ele>425.8</ele>
        <time>2022-09-26T15:29:05Z</time>
      </trkpt>
      <trkpt lat="46.12583" lon="5.90226">
        <ele>425.9</ele>
        <time>2022-09-26T15:29:06Z</time>
      </trkpt>
      <trkpt lat="46.12585" lon="5.90226">
        <ele>426</ele>
        <time>2022-09-26T15:29:07Z</time>
      </trkpt>
      <trkpt lat="46.12588" lon="5.90225">
        <ele>426.2</ele>
        <time>2022-09-26T15:29:08Z</time>
      </trkpt>
      <trkpt lat="46.12589" lon="5.90225">
        <ele>426.3</ele>
        <time>2022-09-26T15:29:09Z</time>
      </trkpt>
      <trkpt lat="46.12592" lon="5.90225">
        <ele>426.5</ele>
        <time>2022-09-26T15:29:10Z</time>
      </trkpt>
      <trkpt lat="46.12593" lon="5.90225">
        <ele>426.5</ele>
        <time>2022-09-26T15:29:11Z</time>
      </trkpt>
      <trkpt lat="46.12596" lon="5.90224">
        <ele>426.7</ele>
        <time>2022-09-26T15:29:12Z</time>
      </trkpt>
      <trkpt lat="46.12597" lon="5.90224">
        <ele>426.8</ele>
        <time>2022-09-26T15:29:13Z</time>
      </trkpt>
      <trkpt lat="46.126" lon="5.90223">
        <ele>427</ele>
        <time>2022-09-26T15:29:14Z</time>
      </trkpt>
      <trkpt lat="46.12602" lon="5.90222">
        <ele>427</ele>
        <time>2022-09-26T15:29:15Z</time>
      </trkpt>
      <trkpt lat="46.12604" lon="5.90222">
        <ele>427.2</ele>
        <time>2022-09-26T15:29:16Z</time>
      </trkpt>
      <trkpt lat="46.12605" lon="5.90222">
        <ele>427.3</ele>
        <time>2022-09-26T15:29:17Z</time>
      </trkpt>
      <trkpt lat="46.12608" lon="5.90221">
        <ele>427.4</ele>
        <time>2022-09-26T15:29:18Z</time>
      </trkpt>
      <trkpt lat="46.12609" lon="5.90221">
        <ele>427.5</ele>
        <time>2022-09-26T15:29:19Z</time>
      </trkpt>
      <trkpt lat="46.1261" lon="5.90221">
        <ele>427.6</ele>
        <time>2022-09-26T15:29:20Z</time>
      </trkpt>
      <trkpt lat="46.12612" lon="5.9022">
        <ele>427.7</ele>
        <time>2022-09-26T15:29:21Z</time>
      </trkpt>
      <trkpt lat="46.12615" lon="5.90219">
        <ele>427.9</ele>
        <time>2022-09-26T15:29:22Z</time>
      </trkpt>
      <trkpt lat="46.12616" lon="5.90219">
        <ele>427.9</ele>
        <time>2022-09-26T15:29:23Z</time>
      </trkpt>
      <trkpt lat="46.12619" lon="5.90218">
        <ele>428.1</ele>
        <time>2022-09-26T15:29:24Z</time>
      </trkpt>
      <trkpt lat="46.1262" lon="5.90217">
        <ele>428.2</ele>
        <time>2022-09-26T15:29:25Z</time>
      </trkpt>
      <trkpt lat="46.12621" lon="5.90217">
        <ele>428.3</ele>
        <time>2022-09-26T15:29:26Z</time>
      </trkpt>
      <trkpt lat="46.12622" lon="5.90217">
        <ele>428.3</ele>
        <time>2022-09-26T15:29:27Z</time>
      </trkpt>
      <trkpt lat="46.12625" lon="5.90217">
        <ele>428.5</ele>
        <time>2022-09-26T15:29:28Z</time>
      </trkpt>
      <trkpt lat="46.12626" lon="5.90216">
        <ele>428.6</ele>
        <time>2022-09-26T15:29:29Z</time>
      </trkpt>
      <trkpt lat="46.12629" lon="5.90215">
        <ele>428.7</ele>
        <time>2022-09-26T15:29:30Z</time>
      </trkpt>
      <trkpt lat="46.1263" lon="5.90214">
        <ele>428.8</ele>
        <time>2022-09-26T15:29:31Z</time>
      </trkpt>
      <trkpt lat="46.12632" lon="5.90214">
        <ele>428.9</ele>
        <time>2022-09-26T15:29:32Z</time>
      </trkpt>
      <trkpt lat="46.12635" lon="5.90213">
        <ele>429.1</ele>
        <time>2022-09-26T15:29:33Z</time>
      </trkpt>
      <trkpt lat="46.12636" lon="5.90212">
        <ele>429.2</ele>
        <time>2022-09-26T15:29:34Z</time>
      </trkpt>
      <trkpt lat="46.12637" lon="5.90211">
        <ele>429.3</ele>
        <time>2022-09-26T15:29:35Z</time>
      </trkpt>
      <trkpt lat="46.12641" lon="5.90211">
        <ele>429.5</ele>
        <time>2022-09-26T15:29:36Z</time>
      </trkpt>
      <trkpt lat="46.12643" lon="5.9021">
        <ele>429.6</ele>
        <time>2022-09-26T15:29:37Z</time>
      </trkpt>
      <trkpt lat="46.12646" lon="5.90208">
        <ele>429.8</ele>
        <time>2022-09-26T15:29:38Z</time>
      </trkpt>
      <trkpt lat="46.12647" lon="5.90209">
        <ele>429.9</ele>
        <time>2022-09-26T15:29:39Z</time>
      </trkpt>
      <trkpt lat="46.1265" lon="5.90207">
        <ele>430.1</ele>
        <time>2022-09-26T15:29:40Z</time>
      </trkpt>
      <trkpt lat="46.1265" lon="5.90207">
        <ele>430.1</ele>
        <time>2022-09-26T15:29:41Z</time>
      </trkpt>
      <trkpt lat="46.12652" lon="5.90207">
        <ele>430.2</ele>
        <time>2022-09-26T15:29:42Z</time>
      </trkpt>
      <trkpt lat="46.12654" lon="5.90207">
        <ele>430.3</ele>
        <time>2022-09-26T15:29:43Z</time>
      </trkpt>
      <trkpt lat="46.12657" lon="5.90206">
        <ele>430.5</ele>
        <time>2022-09-26T15:29:44Z</time>
      </trkpt>
      <trkpt lat="46.12658" lon="5.90205">
        <ele>430.6</ele>
        <time>2022-09-26T15:29:45Z</time>
      </trkpt>
      <trkpt lat="46.12661" lon="5.90205">
        <ele>430.8</ele>
        <time>2022-09-26T15:29:46Z</time>
      </trkpt>
      <trkpt lat="46.12662" lon="5.90205">
        <ele>430.8</ele>
        <time>2022-09-26T15:29:47Z</time>
      </trkpt>
      <trkpt lat="46.12662" lon="5.90205">
        <ele>430.9</ele>
        <time>2022-09-26T15:29:48Z</time>
      </trkpt>
      <trkpt lat="46.12666" lon="5.90205">
        <ele>431.1</ele>
        <time>2022-09-26T15:29:49Z</time>
      </trkpt>
      <trkpt lat="46.12668" lon="5.90205">
        <ele>431.2</ele>
        <time>2022-09-26T15:29:50Z</time>
      </trkpt>
      <trkpt lat="46.12672" lon="5.90204">
        <ele>431.4</ele>
        <time>2022-09-26T15:29:51Z</time>
      </trkpt>
      <trkpt lat="46.12673" lon="5.90204">
        <ele>431.5</ele>
        <time>2022-09-26T15:29:52Z</time>
      </trkpt>
      <trkpt lat="46.12677" lon="5.90204">
        <ele>431.7</ele>
        <time>2022-09-26T15:29:53Z</time>
      </trkpt>
      <trkpt lat="46.12678" lon="5.90204">
        <ele>431.8</ele>
        <time>2022-09-26T15:29:54Z</time>
      </trkpt>
      <trkpt lat="46.12681" lon="5.90204">
        <ele>432</ele>
        <time>2022-09-26T15:29:55Z</time>
      </trkpt>
      <trkpt lat="46.12682" lon="5.90204">
        <ele>432.1</ele>
        <time>2022-09-26T15:29:56Z</time>
      </trkpt>
      <trkpt lat="46.12686" lon="5.90205">
        <ele>432.3</ele>
        <time>2022-09-26T15:29:57Z</time>
      </trkpt>
      <trkpt lat="46.12686" lon="5.90205">
        <ele>432.3</ele>
        <time>2022-09-26T15:29:58Z</time>
      </trkpt>
      <trkpt lat="46.1269" lon="5.90205">
        <ele>432.5</ele>
        <time>2022-09-26T15:29:59Z</time>
      </trkpt>
      <trkpt lat="46.12691" lon="5.90206">
        <ele>432.6</ele>
        <time>2022-09-26T15:30:00Z</time>
      </trkpt>
      <trkpt lat="46.12692" lon="5.90206">
        <ele>432.7</ele>
        <time>2022-09-26T15:30:01Z</time>
      </trkpt>
      <trkpt lat="46.12694" lon="5.90207">
        <ele>432.8</ele>
        <time>2022-09-26T15:30:02Z</time>
      </trkpt>
      <trkpt lat="46.12697" lon="5.90209">
        <ele>433</ele>
        <time>2022-09-26T15:30:03Z</time>
      </trkpt>
      <trkpt lat="46.12698" lon="5.9021">
        <ele>433.1</ele>
        <time>2022-09-26T15:30:04Z</time>
      </trkpt>
      <trkpt lat="46.12701" lon="5.90211">
        <ele>433.3</ele>
        <time>2022-09-26T15:30:05Z</time>
      </trkpt>
      <trkpt lat="46.12702" lon="5.90212">
        <ele>433.3</ele>
        <time>2022-09-26T15:30:06Z</time>
      </trkpt>
      <trkpt lat="46.12705" lon="5.90213">
        <ele>433.5</ele>
        <time>2022-09-26T15:30:07Z</time>
      </trkpt>
      <trkpt lat="46.12706" lon="5.90214">
        <ele>433.5</ele>
        <time>2022-09-26T15:30:08Z</time>
      </trkpt>
      <trkpt lat="46.12708" lon="5.90216">
        <ele>433.7</ele>
        <time>2022-09-26T15:30:09Z</time>
      </trkpt>
      <trkpt lat="46.12709" lon="5.90217">
        <ele>433.7</ele>
        <time>2022-09-26T15:30:10Z</time>
      </trkpt>
      <trkpt lat="46.1271" lon="5.90218">
        <ele>433.8</ele>
        <time>2022-09-26T15:30:11Z</time>
      </trkpt>
      <trkpt lat="46.12712" lon="5.90219">
        <ele>433.9</ele>
        <time>2022-09-26T15:30:12Z</time>
      </trkpt>
      <trkpt lat="46.12715" lon="5.90221">
        <ele>434.1</ele>
        <time>2022-09-26T15:30:13Z</time>
      </trkpt>
      <trkpt lat="46.12716" lon="5.90222">
        <ele>434.2</ele>
        <time>2022-09-26T15:30:14Z</time>
      </trkpt>
      <trkpt lat="46.12718" lon="5.90224">
        <ele>434.3</ele>
        <time>2022-09-26T15:30:15Z</time>
      </trkpt>
      <trkpt lat="46.12719" lon="5.90224">
        <ele>434.4</ele>
        <time>2022-09-26T15:30:16Z</time>
      </trkpt>
      <trkpt lat="46.12721" lon="5.90226">
        <ele>434.5</ele>
        <time>2022-09-26T15:30:17Z</time>
      </trkpt>
      <trkpt lat="46.12722" lon="5.90227">
        <ele>434.6</ele>
        <time>2022-09-26T15:30:18Z</time>
      </trkpt>
      <trkpt lat="46.12725" lon="5.9023">
        <ele>434.8</ele>
        <time>2022-09-26T15:30:19Z</time>
      </trkpt>
      <trkpt lat="46.12726" lon="5.90231">
        <ele>434.9</ele>
        <time>2022-09-26T15:30:20Z</time>
      </trkpt>
      <trkpt lat="46.12727" lon="5.90232">
        <ele>434.9</ele>
        <time>2022-09-26T15:30:21Z</time>
      </trkpt>
      <trkpt lat="46.12729" lon="5.90233">
        <ele>435</ele>
        <time>2022-09-26T15:30:22Z</time>
      </trkpt>
      <trkpt lat="46.12731" lon="5.90235">
        <ele>435.2</ele>
        <time>2022-09-26T15:30:23Z</time>
      </trkpt>
      <trkpt lat="46.12732" lon="5.90236">
        <ele>435.3</ele>
        <time>2022-09-26T15:30:24Z</time>
      </trkpt>
      <trkpt lat="46.12734" lon="5.90239">
        <ele>435.4</ele>
        <time>2022-09-26T15:30:25Z</time>
      </trkpt>
      <trkpt lat="46.12735" lon="5.90239">
        <ele>435.5</ele>
        <time>2022-09-26T15:30:26Z</time>
      </trkpt>
      <trkpt lat="46.12738" lon="5.90241">
        <ele>435.6</ele>
        <time>2022-09-26T15:30:27Z</time>
      </trkpt>
      <trkpt lat="46.12739" lon="5.90242">
        <ele>435.7</ele>
        <time>2022-09-26T15:30:28Z</time>
      </trkpt>
      <trkpt lat="46.1274" lon="5.90243">
        <ele>435.8</ele>
        <time>2022-09-26T15:30:29Z</time>
      </trkpt>
      <trkpt lat="46.12741" lon="5.90245">
        <ele>435.9</ele>
        <time>2022-09-26T15:30:30Z</time>
      </trkpt>
      <trkpt lat="46.12744" lon="5.90247">
        <ele>436</ele>
        <time>2022-09-26T15:30:31Z</time>
      </trkpt>
      <trkpt lat="46.12745" lon="5.90248">
        <ele>436.1</ele>
        <time>2022-09-26T15:30:32Z</time>
      </trkpt>
      <trkpt lat="46.12747" lon="5.9025">
        <ele>436.2</ele>
        <time>2022-09-26T15:30:33Z</time>
      </trkpt>
      <trkpt lat="46.12748" lon="5.90251">
        <ele>436.3</ele>
        <time>2022-09-26T15:30:34Z</time>
      </trkpt>
      <trkpt lat="46.12751" lon="5.90253">
        <ele>436.5</ele>
        <time>2022-09-26T15:30:35Z</time>
      </trkpt>
      <trkpt lat="46.12752" lon="5.90254">
        <ele>436.5</ele>
        <time>2022-09-26T15:30:36Z</time>
      </trkpt>
      <trkpt lat="46.12755" lon="5.90257">
        <ele>436.7</ele>
        <time>2022-09-26T15:30:37Z</time>
      </trkpt>
      <trkpt lat="46.12756" lon="5.90258">
        <ele>436.8</ele>
        <time>2022-09-26T15:30:38Z</time>
      </trkpt>
      <trkpt lat="46.12758" lon="5.9026">
        <ele>436.9</ele>
        <time>2022-09-26T15:30:39Z</time>
      </trkpt>
      <trkpt lat="46.12759" lon="5.90261">
        <ele>437</ele>
        <time>2022-09-26T15:30:40Z</time>
      </trkpt>
      <trkpt lat="46.12762" lon="5.90263">
        <ele>437.2</ele>
        <time>2022-09-26T15:30:41Z</time>
      </trkpt>
      <trkpt lat="46.12763" lon="5.90264">
        <ele>437.3</ele>
        <time>2022-09-26T15:30:42Z</time>
      </trkpt>
      <trkpt lat="46.12765" lon="5.90267">
        <ele>437.4</ele>
        <time>2022-09-26T15:30:43Z</time>
      </trkpt>
      <trkpt lat="46.12766" lon="5.90267">
        <ele>437.5</ele>
        <time>2022-09-26T15:30:44Z</time>
      </trkpt>
      <trkpt lat="46.12769" lon="5.9027">
        <ele>437.7</ele>
        <time>2022-09-26T15:30:45Z</time>
      </trkpt>
      <trkpt lat="46.1277" lon="5.9027">
        <ele>437.7</ele>
        <time>2022-09-26T15:30:46Z</time>
      </trkpt>
      <trkpt lat="46.12772" lon="5.90272">
        <ele>437.9</ele>
        <time>2022-09-26T15:30:47Z</time>
      </trkpt>
      <trkpt lat="46.12773" lon="5.90273">
        <ele>437.9</ele>
        <time>2022-09-26T15:30:48Z</time>
      </trkpt>
      <trkpt lat="46.12775" lon="5.90275">
        <ele>438.1</ele>
        <time>2022-09-26T15:30:49Z</time>
      </trkpt>
      <trkpt lat="46.12776" lon="5.90276">
        <ele>438.1</ele>
        <time>2022-09-26T15:30:50Z</time>
      </trkpt>
      <trkpt lat="46.12778" lon="5.90278">
        <ele>438.3</ele>
        <time>2022-09-26T15:30:51Z</time>
      </trkpt>
      <trkpt lat="46.12779" lon="5.90279">
        <ele>438.4</ele>
        <time>2022-09-26T15:30:52Z</time>
      </trkpt>
      <trkpt lat="46.12781" lon="5.90281">
        <ele>438.5</ele>
        <time>2022-09-26T15:30:53Z</time>
      </trkpt>
      <trkpt lat="46.12782" lon="5.90282">
        <ele>438.6</ele>
        <time>2022-09-26T15:30:54Z</time>
      </trkpt>
      <trkpt lat="46.12784" lon="5.90284">
        <ele>438.7</ele>
        <time>2022-09-26T15:30:55Z</time>
      </trkpt>
      <trkpt lat="46.12785" lon="5.90285">
        <ele>438.8</ele>
        <time>2022-09-26T15:30:56Z</time>
      </trkpt>
      <trkpt lat="46.12788" lon="5.90287">
        <ele>438.9</ele>
        <time>2022-09-26T15:30:57Z</time>
      </trkpt>
      <trkpt lat="46.12789" lon="5.90287">
        <ele>439</ele>
        <time>2022-09-26T15:30:58Z</time>
      </trkpt>
      <trkpt lat="46.12791" lon="5.90289">
        <ele>439.1</ele>
        <time>2022-09-26T15:30:59Z</time>
      </trkpt>
      <trkpt lat="46.12792" lon="5.9029">
        <ele>439.2</ele>
        <time>2022-09-26T15:31:00Z</time>
      </trkpt>
      <trkpt lat="46.12794" lon="5.90291">
        <ele>439.3</ele>
        <time>2022-09-26T15:31:01Z</time>
      </trkpt>
      <trkpt lat="46.12795" lon="5.90293">
        <ele>439.4</ele>
        <time>2022-09-26T15:31:02Z</time>
      </trkpt>
      <trkpt lat="46.12797" lon="5.90295">
        <ele>439.6</ele>
        <time>2022-09-26T15:31:03Z</time>
      </trkpt>
      <trkpt lat="46.12798" lon="5.90296">
        <ele>439.6</ele>
        <time>2022-09-26T15:31:04Z</time>
      </trkpt>
      <trkpt lat="46.128" lon="5.90297">
        <ele>439.7</ele>
        <time>2022-09-26T15:31:05Z</time>
      </trkpt>
      <trkpt lat="46.12801" lon="5.90298">
        <ele>439.8</ele>
        <time>2022-09-26T15:31:06Z</time>
      </trkpt>
      <trkpt lat="46.12803" lon="5.903">
        <ele>439.9</ele>
        <time>2022-09-26T15:31:07Z</time>
      </trkpt>
      <trkpt lat="46.12804" lon="5.90301">
        <ele>440.1</ele>
        <time>2022-09-26T15:31:08Z</time>
      </trkpt>
      <trkpt lat="46.12806" lon="5.90302">
        <ele>440.2</ele>
        <time>2022-09-26T15:31:09Z</time>
      </trkpt>
      <trkpt lat="46.12808" lon="5.90303">
        <ele>440.3</ele>
        <time>2022-09-26T15:31:11Z</time>
      </trkpt>
      <trkpt lat="46.1281" lon="5.90306">
        <ele>440.5</ele>
        <time>2022-09-26T15:31:12Z</time>
      </trkpt>
      <trkpt lat="46.12811" lon="5.90307">
        <ele>440.6</ele>
        <time>2022-09-26T15:31:13Z</time>
      </trkpt>
      <trkpt lat="46.12814" lon="5.90309">
        <ele>440.8</ele>
        <time>2022-09-26T15:31:14Z</time>
      </trkpt>
      <trkpt lat="46.12814" lon="5.90309">
        <ele>440.8</ele>
        <time>2022-09-26T15:31:15Z</time>
      </trkpt>
      <trkpt lat="46.12817" lon="5.90311">
        <ele>441</ele>
        <time>2022-09-26T15:31:16Z</time>
      </trkpt>
      <trkpt lat="46.12818" lon="5.90312">
        <ele>441.1</ele>
        <time>2022-09-26T15:31:17Z</time>
      </trkpt>
      <trkpt lat="46.1282" lon="5.90314">
        <ele>441.2</ele>
        <time>2022-09-26T15:31:18Z</time>
      </trkpt>
      <trkpt lat="46.12821" lon="5.90315">
        <ele>441.3</ele>
        <time>2022-09-26T15:31:19Z</time>
      </trkpt>
      <trkpt lat="46.12824" lon="5.90317">
        <ele>441.5</ele>
        <time>2022-09-26T15:31:20Z</time>
      </trkpt>
      <trkpt lat="46.12824" lon="5.90318">
        <ele>441.5</ele>
        <time>2022-09-26T15:31:21Z</time>
      </trkpt>
      <trkpt lat="46.12827" lon="5.9032">
        <ele>441.7</ele>
        <time>2022-09-26T15:31:22Z</time>
      </trkpt>
      <trkpt lat="46.12828" lon="5.90321">
        <ele>441.8</ele>
        <time>2022-09-26T15:31:23Z</time>
      </trkpt>
      <trkpt lat="46.12831" lon="5.90323">
        <ele>442</ele>
        <time>2022-09-26T15:31:24Z</time>
      </trkpt>
      <trkpt lat="46.12831" lon="5.90324">
        <ele>442</ele>
        <time>2022-09-26T15:31:25Z</time>
      </trkpt>
      <trkpt lat="46.12834" lon="5.90326">
        <ele>442.2</ele>
        <time>2022-09-26T15:31:26Z</time>
      </trkpt>
      <trkpt lat="46.12835" lon="5.90326">
        <ele>442.3</ele>
        <time>2022-09-26T15:31:27Z</time>
      </trkpt>
      <trkpt lat="46.12838" lon="5.90328">
        <ele>442.4</ele>
        <time>2022-09-26T15:31:28Z</time>
      </trkpt>
      <trkpt lat="46.12839" lon="5.90329">
        <ele>442.5</ele>
        <time>2022-09-26T15:31:29Z</time>
      </trkpt>
      <trkpt lat="46.1284" lon="5.9033">
        <ele>442.6</ele>
        <time>2022-09-26T15:31:30Z</time>
      </trkpt>
      <trkpt lat="46.12842" lon="5.90331">
        <ele>442.7</ele>
        <time>2022-09-26T15:31:31Z</time>
      </trkpt>
      <trkpt lat="46.12843" lon="5.90333">
        <ele>442.8</ele>
        <time>2022-09-26T15:31:32Z</time>
      </trkpt>
      <trkpt lat="46.12845" lon="5.90333">
        <ele>442.9</ele>
        <time>2022-09-26T15:31:33Z</time>
      </trkpt>
      <trkpt lat="46.12846" lon="5.90334">
        <ele>443</ele>
        <time>2022-09-26T15:31:34Z</time>
      </trkpt>
      <trkpt lat="46.12848" lon="5.90335">
        <ele>443.2</ele>
        <time>2022-09-26T15:31:35Z</time>
      </trkpt>
      <trkpt lat="46.12851" lon="5.90339">
        <ele>443.4</ele>
        <time>2022-09-26T15:31:36Z</time>
      </trkpt>
      <trkpt lat="46.12852" lon="5.9034">
        <ele>443.5</ele>
        <time>2022-09-26T15:31:37Z</time>
      </trkpt>
      <trkpt lat="46.12854" lon="5.9034">
        <ele>443.6</ele>
        <time>2022-09-26T15:31:38Z</time>
      </trkpt>
      <trkpt lat="46.12855" lon="5.90341">
        <ele>443.7</ele>
        <time>2022-09-26T15:31:39Z</time>
      </trkpt>
      <trkpt lat="46.12856" lon="5.90342">
        <ele>443.8</ele>
        <time>2022-09-26T15:31:40Z</time>
      </trkpt>
      <trkpt lat="46.12858" lon="5.90343">
        <ele>443.9</ele>
        <time>2022-09-26T15:31:41Z</time>
      </trkpt>
      <trkpt lat="46.12859" lon="5.90344">
        <ele>444</ele>
        <time>2022-09-26T15:31:42Z</time>
      </trkpt>
      <trkpt lat="46.12862" lon="5.90345">
        <ele>444.2</ele>
        <time>2022-09-26T15:31:43Z</time>
      </trkpt>
      <trkpt lat="46.12863" lon="5.90346">
        <ele>444.3</ele>
        <time>2022-09-26T15:31:44Z</time>
      </trkpt>
      <trkpt lat="46.12865" lon="5.90348">
        <ele>444.4</ele>
        <time>2022-09-26T15:31:45Z</time>
      </trkpt>
      <trkpt lat="46.12866" lon="5.90348">
        <ele>444.5</ele>
        <time>2022-09-26T15:31:46Z</time>
      </trkpt>
      <trkpt lat="46.12869" lon="5.90351">
        <ele>444.7</ele>
        <time>2022-09-26T15:31:47Z</time>
      </trkpt>
      <trkpt lat="46.12871" lon="5.90351">
        <ele>444.8</ele>
        <time>2022-09-26T15:31:48Z</time>
      </trkpt>
      <trkpt lat="46.12873" lon="5.90353">
        <ele>444.9</ele>
        <time>2022-09-26T15:31:49Z</time>
      </trkpt>
      <trkpt lat="46.12874" lon="5.90353">
        <ele>445</ele>
        <time>2022-09-26T15:31:50Z</time>
      </trkpt>
      <trkpt lat="46.12876" lon="5.90355">
        <ele>445.1</ele>
        <time>2022-09-26T15:31:51Z</time>
      </trkpt>
      <trkpt lat="46.12878" lon="5.90356">
        <ele>445.3</ele>
        <time>2022-09-26T15:31:52Z</time>
      </trkpt>
      <trkpt lat="46.12879" lon="5.90356">
        <ele>445.4</ele>
        <time>2022-09-26T15:31:53Z</time>
      </trkpt>
      <trkpt lat="46.12882" lon="5.90358">
        <ele>445.5</ele>
        <time>2022-09-26T15:31:54Z</time>
      </trkpt>
      <trkpt lat="46.12883" lon="5.90359">
        <ele>445.6</ele>
        <time>2022-09-26T15:31:55Z</time>
      </trkpt>
      <trkpt lat="46.12885" lon="5.9036">
        <ele>445.7</ele>
        <time>2022-09-26T15:31:56Z</time>
      </trkpt>
      <trkpt lat="46.12886" lon="5.90361">
        <ele>445.8</ele>
        <time>2022-09-26T15:31:57Z</time>
      </trkpt>
      <trkpt lat="46.12889" lon="5.90362">
        <ele>446</ele>
        <time>2022-09-26T15:31:58Z</time>
      </trkpt>
      <trkpt lat="46.1289" lon="5.90362">
        <ele>446.1</ele>
        <time>2022-09-26T15:31:59Z</time>
      </trkpt>
      <trkpt lat="46.12893" lon="5.90364">
        <ele>446.2</ele>
        <time>2022-09-26T15:32:00Z</time>
      </trkpt>
      <trkpt lat="46.12894" lon="5.90364">
        <ele>446.3</ele>
        <time>2022-09-26T15:32:01Z</time>
      </trkpt>
      <trkpt lat="46.12897" lon="5.90366">
        <ele>446.5</ele>
        <time>2022-09-26T15:32:02Z</time>
      </trkpt>
      <trkpt lat="46.12898" lon="5.90366">
        <ele>446.5</ele>
        <time>2022-09-26T15:32:03Z</time>
      </trkpt>
      <trkpt lat="46.12901" lon="5.90368">
        <ele>446.7</ele>
        <time>2022-09-26T15:32:04Z</time>
      </trkpt>
      <trkpt lat="46.12902" lon="5.90368">
        <ele>446.8</ele>
        <time>2022-09-26T15:32:05Z</time>
      </trkpt>
      <trkpt lat="46.12905" lon="5.9037">
        <ele>447</ele>
        <time>2022-09-26T15:32:06Z</time>
      </trkpt>
      <trkpt lat="46.12906" lon="5.9037">
        <ele>447</ele>
        <time>2022-09-26T15:32:07Z</time>
      </trkpt>
      <trkpt lat="46.12909" lon="5.90372">
        <ele>447.2</ele>
        <time>2022-09-26T15:32:08Z</time>
      </trkpt>
      <trkpt lat="46.12909" lon="5.90372">
        <ele>447.3</ele>
        <time>2022-09-26T15:32:09Z</time>
      </trkpt>
      <trkpt lat="46.12912" lon="5.90374">
        <ele>447.5</ele>
        <time>2022-09-26T15:32:10Z</time>
      </trkpt>
      <trkpt lat="46.12913" lon="5.90374">
        <ele>447.5</ele>
        <time>2022-09-26T15:32:11Z</time>
      </trkpt>
      <trkpt lat="46.12916" lon="5.90375">
        <ele>447.7</ele>
        <time>2022-09-26T15:32:12Z</time>
      </trkpt>
      <trkpt lat="46.12917" lon="5.90376">
        <ele>447.8</ele>
        <time>2022-09-26T15:32:13Z</time>
      </trkpt>
      <trkpt lat="46.12919" lon="5.90376">
        <ele>447.9</ele>
        <time>2022-09-26T15:32:14Z</time>
      </trkpt>
      <trkpt lat="46.12921" lon="5.90378">
        <ele>448</ele>
        <time>2022-09-26T15:32:15Z</time>
      </trkpt>
      <trkpt lat="46.12922" lon="5.90378">
        <ele>448.1</ele>
        <time>2022-09-26T15:32:16Z</time>
      </trkpt>
      <trkpt lat="46.12923" lon="5.90379">
        <ele>448.2</ele>
        <time>2022-09-26T15:32:17Z</time>
      </trkpt>
      <trkpt lat="46.12927" lon="5.9038">
        <ele>448.4</ele>
        <time>2022-09-26T15:32:18Z</time>
      </trkpt>
      <trkpt lat="46.12928" lon="5.9038">
        <ele>448.5</ele>
        <time>2022-09-26T15:32:19Z</time>
      </trkpt>
      <trkpt lat="46.12931" lon="5.90382">
        <ele>448.7</ele>
        <time>2022-09-26T15:32:20Z</time>
      </trkpt>
      <trkpt lat="46.12931" lon="5.90382">
        <ele>448.8</ele>
        <time>2022-09-26T15:32:21Z</time>
      </trkpt>
      <trkpt lat="46.12934" lon="5.90383">
        <ele>449</ele>
        <time>2022-09-26T15:32:22Z</time>
      </trkpt>
      <trkpt lat="46.12935" lon="5.90384">
        <ele>449.1</ele>
        <time>2022-09-26T15:32:23Z</time>
      </trkpt>
      <trkpt lat="46.12938" lon="5.90386">
        <ele>449.3</ele>
        <time>2022-09-26T15:32:24Z</time>
      </trkpt>
      <trkpt lat="46.12939" lon="5.90386">
        <ele>449.4</ele>
        <time>2022-09-26T15:32:25Z</time>
      </trkpt>
      <trkpt lat="46.12942" lon="5.90387">
        <ele>449.6</ele>
        <time>2022-09-26T15:32:26Z</time>
      </trkpt>
      <trkpt lat="46.12943" lon="5.90387">
        <ele>449.6</ele>
        <time>2022-09-26T15:32:27Z</time>
      </trkpt>
      <trkpt lat="46.12946" lon="5.90389">
        <ele>449.9</ele>
        <time>2022-09-26T15:32:28Z</time>
      </trkpt>
      <trkpt lat="46.12947" lon="5.90389">
        <ele>449.9</ele>
        <time>2022-09-26T15:32:29Z</time>
      </trkpt>
      <trkpt lat="46.12949" lon="5.90389">
        <ele>450.1</ele>
        <time>2022-09-26T15:32:30Z</time>
      </trkpt>
      <trkpt lat="46.1295" lon="5.90391">
        <ele>450.2</ele>
        <time>2022-09-26T15:32:31Z</time>
      </trkpt>
      <trkpt lat="46.12953" lon="5.90391">
        <ele>450.4</ele>
        <time>2022-09-26T15:32:32Z</time>
      </trkpt>
      <trkpt lat="46.12954" lon="5.90392">
        <ele>450.4</ele>
        <time>2022-09-26T15:32:33Z</time>
      </trkpt>
      <trkpt lat="46.12957" lon="5.90393">
        <ele>450.7</ele>
        <time>2022-09-26T15:32:34Z</time>
      </trkpt>
      <trkpt lat="46.12958" lon="5.90393">
        <ele>450.7</ele>
        <time>2022-09-26T15:32:35Z</time>
      </trkpt>
      <trkpt lat="46.12961" lon="5.90394">
        <ele>450.9</ele>
        <time>2022-09-26T15:32:36Z</time>
      </trkpt>
      <trkpt lat="46.12962" lon="5.90395">
        <ele>451</ele>
        <time>2022-09-26T15:32:37Z</time>
      </trkpt>
      <trkpt lat="46.12964" lon="5.90395">
        <ele>451.1</ele>
        <time>2022-09-26T15:32:38Z</time>
      </trkpt>
      <trkpt lat="46.12965" lon="5.90396">
        <ele>451.2</ele>
        <time>2022-09-26T15:32:39Z</time>
      </trkpt>
      <trkpt lat="46.12968" lon="5.90397">
        <ele>451.4</ele>
        <time>2022-09-26T15:32:40Z</time>
      </trkpt>
      <trkpt lat="46.12969" lon="5.90397">
        <ele>451.5</ele>
        <time>2022-09-26T15:32:41Z</time>
      </trkpt>
      <trkpt lat="46.12971" lon="5.90398">
        <ele>451.6</ele>
        <time>2022-09-26T15:32:42Z</time>
      </trkpt>
      <trkpt lat="46.12972" lon="5.90398">
        <ele>451.7</ele>
        <time>2022-09-26T15:32:43Z</time>
      </trkpt>
      <trkpt lat="46.12975" lon="5.90399">
        <ele>451.9</ele>
        <time>2022-09-26T15:32:44Z</time>
      </trkpt>
      <trkpt lat="46.12976" lon="5.90399">
        <ele>452</ele>
        <time>2022-09-26T15:32:45Z</time>
      </trkpt>
      <trkpt lat="46.12979" lon="5.90401">
        <ele>452.2</ele>
        <time>2022-09-26T15:32:46Z</time>
      </trkpt>
      <trkpt lat="46.1298" lon="5.90401">
        <ele>452.2</ele>
        <time>2022-09-26T15:32:47Z</time>
      </trkpt>
      <trkpt lat="46.12983" lon="5.90402">
        <ele>452.4</ele>
        <time>2022-09-26T15:32:48Z</time>
      </trkpt>
      <trkpt lat="46.12984" lon="5.90403">
        <ele>452.5</ele>
        <time>2022-09-26T15:32:49Z</time>
      </trkpt>
      <trkpt lat="46.12987" lon="5.90404">
        <ele>452.7</ele>
        <time>2022-09-26T15:32:50Z</time>
      </trkpt>
      <trkpt lat="46.12988" lon="5.90404">
        <ele>452.7</ele>
        <time>2022-09-26T15:32:51Z</time>
      </trkpt>
      <trkpt lat="46.12991" lon="5.90405">
        <ele>452.9</ele>
        <time>2022-09-26T15:32:52Z</time>
      </trkpt>
      <trkpt lat="46.12991" lon="5.90406">
        <ele>453</ele>
        <time>2022-09-26T15:32:53Z</time>
      </trkpt>
      <trkpt lat="46.12994" lon="5.90407">
        <ele>453.2</ele>
        <time>2022-09-26T15:32:54Z</time>
      </trkpt>
      <trkpt lat="46.12995" lon="5.90408">
        <ele>453.2</ele>
        <time>2022-09-26T15:32:55Z</time>
      </trkpt>
      <trkpt lat="46.12998" lon="5.90409">
        <ele>453.5</ele>
        <time>2022-09-26T15:32:56Z</time>
      </trkpt>
      <trkpt lat="46.12999" lon="5.9041">
        <ele>453.5</ele>
        <time>2022-09-26T15:32:57Z</time>
      </trkpt>
      <trkpt lat="46.13002" lon="5.9041">
        <ele>453.7</ele>
        <time>2022-09-26T15:32:58Z</time>
      </trkpt>
      <trkpt lat="46.13002" lon="5.9041">
        <ele>453.7</ele>
        <time>2022-09-26T15:32:59Z</time>
      </trkpt>
      <trkpt lat="46.13005" lon="5.90411">
        <ele>453.9</ele>
        <time>2022-09-26T15:33:00Z</time>
      </trkpt>
      <trkpt lat="46.13006" lon="5.90411">
        <ele>454</ele>
        <time>2022-09-26T15:33:01Z</time>
      </trkpt>
      <trkpt lat="46.13009" lon="5.90412">
        <ele>454.2</ele>
        <time>2022-09-26T15:33:02Z</time>
      </trkpt>
      <trkpt lat="46.1301" lon="5.90412">
        <ele>454.2</ele>
        <time>2022-09-26T15:33:03Z</time>
      </trkpt>
      <trkpt lat="46.13013" lon="5.90413">
        <ele>454.4</ele>
        <time>2022-09-26T15:33:04Z</time>
      </trkpt>
      <trkpt lat="46.13014" lon="5.90414">
        <ele>454.5</ele>
        <time>2022-09-26T15:33:05Z</time>
      </trkpt>
      <trkpt lat="46.13017" lon="5.90415">
        <ele>454.7</ele>
        <time>2022-09-26T15:33:06Z</time>
      </trkpt>
      <trkpt lat="46.13018" lon="5.90415">
        <ele>454.7</ele>
        <time>2022-09-26T15:33:07Z</time>
      </trkpt>
      <trkpt lat="46.13019" lon="5.90416">
        <ele>454.8</ele>
        <time>2022-09-26T15:33:08Z</time>
      </trkpt>
      <trkpt lat="46.13021" lon="5.90416">
        <ele>454.9</ele>
        <time>2022-09-26T15:33:09Z</time>
      </trkpt>
      <trkpt lat="46.13024" lon="5.90417">
        <ele>455.1</ele>
        <time>2022-09-26T15:33:10Z</time>
      </trkpt>
      <trkpt lat="46.13025" lon="5.90417">
        <ele>455.2</ele>
        <time>2022-09-26T15:33:11Z</time>
      </trkpt>
      <trkpt lat="46.13027" lon="5.90418">
        <ele>455.3</ele>
        <time>2022-09-26T15:33:12Z</time>
      </trkpt>
      <trkpt lat="46.13028" lon="5.90419">
        <ele>455.4</ele>
        <time>2022-09-26T15:33:13Z</time>
      </trkpt>
      <trkpt lat="46.13031" lon="5.9042">
        <ele>455.6</ele>
        <time>2022-09-26T15:33:14Z</time>
      </trkpt>
      <trkpt lat="46.13032" lon="5.9042">
        <ele>455.7</ele>
        <time>2022-09-26T15:33:15Z</time>
      </trkpt>
      <trkpt lat="46.13034" lon="5.90421">
        <ele>455.9</ele>
        <time>2022-09-26T15:33:17Z</time>
      </trkpt>
      <trkpt lat="46.13035" lon="5.90421">
        <ele>455.9</ele>
        <time>2022-09-26T15:33:18Z</time>
      </trkpt>
      <trkpt lat="46.13037" lon="5.90422">
        <ele>456</ele>
        <time>2022-09-26T15:33:19Z</time>
      </trkpt>
      <trkpt lat="46.13039" lon="5.90422">
        <ele>456.2</ele>
        <time>2022-09-26T15:33:20Z</time>
      </trkpt>
      <trkpt lat="46.13041" lon="5.90423">
        <ele>456.4</ele>
        <time>2022-09-26T15:33:21Z</time>
      </trkpt>
      <trkpt lat="46.13042" lon="5.90424">
        <ele>456.4</ele>
        <time>2022-09-26T15:33:22Z</time>
      </trkpt>
      <trkpt lat="46.13045" lon="5.90424">
        <ele>456.6</ele>
        <time>2022-09-26T15:33:23Z</time>
      </trkpt>
      <trkpt lat="46.13046" lon="5.90425">
        <ele>456.7</ele>
        <time>2022-09-26T15:33:24Z</time>
      </trkpt>
      <trkpt lat="46.13049" lon="5.90426">
        <ele>456.9</ele>
        <time>2022-09-26T15:33:25Z</time>
      </trkpt>
      <trkpt lat="46.1305" lon="5.90426">
        <ele>457</ele>
        <time>2022-09-26T15:33:26Z</time>
      </trkpt>
      <trkpt lat="46.13052" lon="5.90427">
        <ele>457.1</ele>
        <time>2022-09-26T15:33:27Z</time>
      </trkpt>
      <trkpt lat="46.13055" lon="5.90428">
        <ele>457.3</ele>
        <time>2022-09-26T15:33:28Z</time>
      </trkpt>
      <trkpt lat="46.13057" lon="5.90428">
        <ele>457.5</ele>
        <time>2022-09-26T15:33:29Z</time>
      </trkpt>
      <trkpt lat="46.13058" lon="5.90429">
        <ele>457.5</ele>
        <time>2022-09-26T15:33:30Z</time>
      </trkpt>
      <trkpt lat="46.1306" lon="5.9043">
        <ele>457.7</ele>
        <time>2022-09-26T15:33:31Z</time>
      </trkpt>
      <trkpt lat="46.13063" lon="5.9043">
        <ele>457.8</ele>
        <time>2022-09-26T15:33:32Z</time>
      </trkpt>
      <trkpt lat="46.13064" lon="5.9043">
        <ele>457.9</ele>
        <time>2022-09-26T15:33:33Z</time>
      </trkpt>
      <trkpt lat="46.13066" lon="5.90432">
        <ele>458.1</ele>
        <time>2022-09-26T15:33:35Z</time>
      </trkpt>
      <trkpt lat="46.13067" lon="5.90432">
        <ele>458.1</ele>
        <time>2022-09-26T15:33:36Z</time>
      </trkpt>
      <trkpt lat="46.13071" lon="5.90433">
        <ele>458.4</ele>
        <time>2022-09-26T15:33:37Z</time>
      </trkpt>
      <trkpt lat="46.13072" lon="5.90433">
        <ele>458.4</ele>
        <time>2022-09-26T15:33:38Z</time>
      </trkpt>
      <trkpt lat="46.13073" lon="5.90434">
        <ele>458.5</ele>
        <time>2022-09-26T15:33:39Z</time>
      </trkpt>
      <trkpt lat="46.13075" lon="5.90434">
        <ele>458.6</ele>
        <time>2022-09-26T15:33:40Z</time>
      </trkpt>
      <trkpt lat="46.13078" lon="5.90436">
        <ele>458.8</ele>
        <time>2022-09-26T15:33:41Z</time>
      </trkpt>
      <trkpt lat="46.13079" lon="5.90436">
        <ele>458.9</ele>
        <time>2022-09-26T15:33:42Z</time>
      </trkpt>
      <trkpt lat="46.13082" lon="5.90437">
        <ele>459.1</ele>
        <time>2022-09-26T15:33:43Z</time>
      </trkpt>
      <trkpt lat="46.13083" lon="5.90437">
        <ele>459.2</ele>
        <time>2022-09-26T15:33:44Z</time>
      </trkpt>
      <trkpt lat="46.13086" lon="5.90438">
        <ele>459.4</ele>
        <time>2022-09-26T15:33:45Z</time>
      </trkpt>
      <trkpt lat="46.13086" lon="5.90438">
        <ele>459.4</ele>
        <time>2022-09-26T15:33:46Z</time>
      </trkpt>
      <trkpt lat="46.13088" lon="5.90439">
        <ele>459.5</ele>
        <time>2022-09-26T15:33:47Z</time>
      </trkpt>
      <trkpt lat="46.1309" lon="5.9044">
        <ele>459.7</ele>
        <time>2022-09-26T15:33:48Z</time>
      </trkpt>
      <trkpt lat="46.13091" lon="5.9044">
        <ele>459.8</ele>
        <time>2022-09-26T15:33:49Z</time>
      </trkpt>
      <trkpt lat="46.13093" lon="5.90441">
        <ele>459.9</ele>
        <time>2022-09-26T15:33:50Z</time>
      </trkpt>
      <trkpt lat="46.13096" lon="5.90442">
        <ele>460.1</ele>
        <time>2022-09-26T15:33:51Z</time>
      </trkpt>
      <trkpt lat="46.13097" lon="5.90442">
        <ele>460.2</ele>
        <time>2022-09-26T15:33:52Z</time>
      </trkpt>
      <trkpt lat="46.13101" lon="5.90443">
        <ele>460.4</ele>
        <time>2022-09-26T15:33:53Z</time>
      </trkpt>
      <trkpt lat="46.13102" lon="5.90444">
        <ele>460.5</ele>
        <time>2022-09-26T15:33:54Z</time>
      </trkpt>
      <trkpt lat="46.13104" lon="5.90444">
        <ele>460.7</ele>
        <time>2022-09-26T15:33:55Z</time>
      </trkpt>
      <trkpt lat="46.13106" lon="5.90444">
        <ele>460.7</ele>
        <time>2022-09-26T15:33:56Z</time>
      </trkpt>
      <trkpt lat="46.13109" lon="5.90446">
        <ele>461</ele>
        <time>2022-09-26T15:33:57Z</time>
      </trkpt>
      <trkpt lat="46.13111" lon="5.90446">
        <ele>461.1</ele>
        <time>2022-09-26T15:33:58Z</time>
      </trkpt>
      <trkpt lat="46.13113" lon="5.90447">
        <ele>461.3</ele>
        <time>2022-09-26T15:33:59Z</time>
      </trkpt>
      <trkpt lat="46.13116" lon="5.90449">
        <ele>461.5</ele>
        <time>2022-09-26T15:34:00Z</time>
      </trkpt>
      <trkpt lat="46.13117" lon="5.90449">
        <ele>461.5</ele>
        <time>2022-09-26T15:34:01Z</time>
      </trkpt>
      <trkpt lat="46.1312" lon="5.9045">
        <ele>461.7</ele>
        <time>2022-09-26T15:34:02Z</time>
      </trkpt>
      <trkpt lat="46.13121" lon="5.9045">
        <ele>461.8</ele>
        <time>2022-09-26T15:34:03Z</time>
      </trkpt>
      <trkpt lat="46.13123" lon="5.90451">
        <ele>462</ele>
        <time>2022-09-26T15:34:04Z</time>
      </trkpt>
      <trkpt lat="46.13124" lon="5.90452">
        <ele>462</ele>
        <time>2022-09-26T15:34:05Z</time>
      </trkpt>
      <trkpt lat="46.13127" lon="5.90453">
        <ele>462.2</ele>
        <time>2022-09-26T15:34:06Z</time>
      </trkpt>
      <trkpt lat="46.13128" lon="5.90453">
        <ele>462.3</ele>
        <time>2022-09-26T15:34:07Z</time>
      </trkpt>
      <trkpt lat="46.13129" lon="5.90454">
        <ele>462.4</ele>
        <time>2022-09-26T15:34:08Z</time>
      </trkpt>
      <trkpt lat="46.13131" lon="5.90454">
        <ele>462.5</ele>
        <time>2022-09-26T15:34:09Z</time>
      </trkpt>
      <trkpt lat="46.13132" lon="5.90454">
        <ele>462.6</ele>
        <time>2022-09-26T15:34:10Z</time>
      </trkpt>
      <trkpt lat="46.13134" lon="5.90454">
        <ele>462.7</ele>
        <time>2022-09-26T15:34:11Z</time>
      </trkpt>
      <trkpt lat="46.13137" lon="5.90455">
        <ele>462.9</ele>
        <time>2022-09-26T15:34:12Z</time>
      </trkpt>
      <trkpt lat="46.13138" lon="5.90456">
        <ele>463</ele>
        <time>2022-09-26T15:34:13Z</time>
      </trkpt>
      <trkpt lat="46.13141" lon="5.90457">
        <ele>463.2</ele>
        <time>2022-09-26T15:34:14Z</time>
      </trkpt>
      <trkpt lat="46.13142" lon="5.90457">
        <ele>463.3</ele>
        <time>2022-09-26T15:34:15Z</time>
      </trkpt>
      <trkpt lat="46.13143" lon="5.90458">
        <ele>463.4</ele>
        <time>2022-09-26T15:34:16Z</time>
      </trkpt>
      <trkpt lat="46.13145" lon="5.90459">
        <ele>463.5</ele>
        <time>2022-09-26T15:34:17Z</time>
      </trkpt>
      <trkpt lat="46.13148" lon="5.9046">
        <ele>463.7</ele>
        <time>2022-09-26T15:34:18Z</time>
      </trkpt>
      <trkpt lat="46.13149" lon="5.9046">
        <ele>463.8</ele>
        <time>2022-09-26T15:34:19Z</time>
      </trkpt>
      <trkpt lat="46.13152" lon="5.90462">
        <ele>464</ele>
        <time>2022-09-26T15:34:20Z</time>
      </trkpt>
      <trkpt lat="46.13152" lon="5.90462">
        <ele>464.1</ele>
        <time>2022-09-26T15:34:21Z</time>
      </trkpt>
      <trkpt lat="46.13154" lon="5.90462">
        <ele>464.2</ele>
        <time>2022-09-26T15:34:22Z</time>
      </trkpt>
      <trkpt lat="46.13155" lon="5.90463">
        <ele>464.3</ele>
        <time>2022-09-26T15:34:23Z</time>
      </trkpt>
      <trkpt lat="46.13158" lon="5.90464">
        <ele>464.5</ele>
        <time>2022-09-26T15:34:24Z</time>
      </trkpt>
      <trkpt lat="46.13159" lon="5.90464">
        <ele>464.6</ele>
        <time>2022-09-26T15:34:25Z</time>
      </trkpt>
      <trkpt lat="46.13162" lon="5.90466">
        <ele>464.8</ele>
        <time>2022-09-26T15:34:26Z</time>
      </trkpt>
      <trkpt lat="46.13163" lon="5.90466">
        <ele>464.9</ele>
        <time>2022-09-26T15:34:27Z</time>
      </trkpt>
      <trkpt lat="46.13166" lon="5.90467">
        <ele>465.1</ele>
        <time>2022-09-26T15:34:28Z</time>
      </trkpt>
      <trkpt lat="46.13167" lon="5.90467">
        <ele>465.1</ele>
        <time>2022-09-26T15:34:29Z</time>
      </trkpt>
      <trkpt lat="46.13169" lon="5.90468">
        <ele>465.2</ele>
        <time>2022-09-26T15:34:30Z</time>
      </trkpt>
      <trkpt lat="46.1317" lon="5.90468">
        <ele>465.4</ele>
        <time>2022-09-26T15:34:31Z</time>
      </trkpt>
      <trkpt lat="46.13173" lon="5.90469">
        <ele>465.6</ele>
        <time>2022-09-26T15:34:32Z</time>
      </trkpt>
      <trkpt lat="46.13174" lon="5.9047">
        <ele>465.6</ele>
        <time>2022-09-26T15:34:33Z</time>
      </trkpt>
      <trkpt lat="46.13176" lon="5.9047">
        <ele>465.7</ele>
        <time>2022-09-26T15:34:34Z</time>
      </trkpt>
      <trkpt lat="46.13177" lon="5.90471">
        <ele>465.9</ele>
        <time>2022-09-26T15:34:35Z</time>
      </trkpt>
      <trkpt lat="46.1318" lon="5.90472">
        <ele>466.1</ele>
        <time>2022-09-26T15:34:36Z</time>
      </trkpt>
      <trkpt lat="46.13181" lon="5.90472">
        <ele>466.2</ele>
        <time>2022-09-26T15:34:37Z</time>
      </trkpt>
      <trkpt lat="46.13183" lon="5.90473">
        <ele>466.3</ele>
        <time>2022-09-26T15:34:38Z</time>
      </trkpt>
      <trkpt lat="46.13185" lon="5.90474">
        <ele>466.4</ele>
        <time>2022-09-26T15:34:39Z</time>
      </trkpt>
      <trkpt lat="46.13187" lon="5.90475">
        <ele>466.6</ele>
        <time>2022-09-26T15:34:40Z</time>
      </trkpt>
      <trkpt lat="46.13188" lon="5.90475">
        <ele>466.6</ele>
        <time>2022-09-26T15:34:41Z</time>
      </trkpt>
      <trkpt lat="46.13191" lon="5.90476">
        <ele>466.8</ele>
        <time>2022-09-26T15:34:42Z</time>
      </trkpt>
      <trkpt lat="46.13192" lon="5.90476">
        <ele>466.9</ele>
        <time>2022-09-26T15:34:43Z</time>
      </trkpt>
      <trkpt lat="46.13194" lon="5.90477">
        <ele>467</ele>
        <time>2022-09-26T15:34:44Z</time>
      </trkpt>
      <trkpt lat="46.13195" lon="5.90478">
        <ele>467.2</ele>
        <time>2022-09-26T15:34:45Z</time>
      </trkpt>
      <trkpt lat="46.13197" lon="5.90478">
        <ele>467.3</ele>
        <time>2022-09-26T15:34:46Z</time>
      </trkpt>
      <trkpt lat="46.13199" lon="5.90479">
        <ele>467.4</ele>
        <time>2022-09-26T15:34:47Z</time>
      </trkpt>
      <trkpt lat="46.13201" lon="5.90479">
        <ele>467.5</ele>
        <time>2022-09-26T15:34:48Z</time>
      </trkpt>
      <trkpt lat="46.13202" lon="5.9048">
        <ele>467.6</ele>
        <time>2022-09-26T15:34:49Z</time>
      </trkpt>
      <trkpt lat="46.13205" lon="5.90481">
        <ele>467.8</ele>
        <time>2022-09-26T15:34:50Z</time>
      </trkpt>
      <trkpt lat="46.13206" lon="5.90481">
        <ele>467.9</ele>
        <time>2022-09-26T15:34:51Z</time>
      </trkpt>
      <trkpt lat="46.13207" lon="5.90481">
        <ele>468</ele>
        <time>2022-09-26T15:34:52Z</time>
      </trkpt>
      <trkpt lat="46.13209" lon="5.90482">
        <ele>468.1</ele>
        <time>2022-09-26T15:34:53Z</time>
      </trkpt>
      <trkpt lat="46.13212" lon="5.90483">
        <ele>468.3</ele>
        <time>2022-09-26T15:34:54Z</time>
      </trkpt>
      <trkpt lat="46.13213" lon="5.90483">
        <ele>468.4</ele>
        <time>2022-09-26T15:34:55Z</time>
      </trkpt>
      <trkpt lat="46.13215" lon="5.90484">
        <ele>468.5</ele>
        <time>2022-09-26T15:34:56Z</time>
      </trkpt>
      <trkpt lat="46.13217" lon="5.90484">
        <ele>468.6</ele>
        <time>2022-09-26T15:34:57Z</time>
      </trkpt>
      <trkpt lat="46.13218" lon="5.90484">
        <ele>468.7</ele>
        <time>2022-09-26T15:34:58Z</time>
      </trkpt>
      <trkpt lat="46.1322" lon="5.90485">
        <ele>468.8</ele>
        <time>2022-09-26T15:34:59Z</time>
      </trkpt>
      <trkpt lat="46.13223" lon="5.90485">
        <ele>469</ele>
        <time>2022-09-26T15:35:00Z</time>
      </trkpt>
      <trkpt lat="46.13224" lon="5.90485">
        <ele>469.1</ele>
        <time>2022-09-26T15:35:01Z</time>
      </trkpt>
      <trkpt lat="46.13225" lon="5.90484">
        <ele>469.1</ele>
        <time>2022-09-26T15:35:02Z</time>
      </trkpt>
      <trkpt lat="46.13227" lon="5.90484">
        <ele>469.3</ele>
        <time>2022-09-26T15:35:03Z</time>
      </trkpt>
      <trkpt lat="46.13229" lon="5.90484">
        <ele>469.4</ele>
        <time>2022-09-26T15:35:04Z</time>
      </trkpt>
      <trkpt lat="46.13231" lon="5.90484">
        <ele>469.5</ele>
        <time>2022-09-26T15:35:05Z</time>
      </trkpt>
      <trkpt lat="46.13232" lon="5.90484">
        <ele>469.6</ele>
        <time>2022-09-26T15:35:06Z</time>
      </trkpt>
      <trkpt lat="46.13234" lon="5.90484">
        <ele>469.7</ele>
        <time>2022-09-26T15:35:07Z</time>
      </trkpt>
      <trkpt lat="46.13236" lon="5.90484">
        <ele>469.7</ele>
        <time>2022-09-26T15:35:08Z</time>
      </trkpt>
      <trkpt lat="46.13239" lon="5.90484">
        <ele>469.9</ele>
        <time>2022-09-26T15:35:09Z</time>
      </trkpt>
      <trkpt lat="46.1324" lon="5.90483">
        <ele>470</ele>
        <time>2022-09-26T15:35:10Z</time>
      </trkpt>
      <trkpt lat="46.13243" lon="5.90483">
        <ele>470.1</ele>
        <time>2022-09-26T15:35:11Z</time>
      </trkpt>
      <trkpt lat="46.13244" lon="5.90482">
        <ele>470.2</ele>
        <time>2022-09-26T15:35:12Z</time>
      </trkpt>
      <trkpt lat="46.13247" lon="5.90482">
        <ele>470.3</ele>
        <time>2022-09-26T15:35:13Z</time>
      </trkpt>
      <trkpt lat="46.13248" lon="5.90481">
        <ele>470.4</ele>
        <time>2022-09-26T15:35:14Z</time>
      </trkpt>
      <trkpt lat="46.13251" lon="5.9048">
        <ele>470.5</ele>
        <time>2022-09-26T15:35:15Z</time>
      </trkpt>
      <trkpt lat="46.13252" lon="5.90479">
        <ele>470.6</ele>
        <time>2022-09-26T15:35:16Z</time>
      </trkpt>
      <trkpt lat="46.13253" lon="5.90479">
        <ele>470.6</ele>
        <time>2022-09-26T15:35:17Z</time>
      </trkpt>
      <trkpt lat="46.13255" lon="5.90478">
        <ele>470.7</ele>
        <time>2022-09-26T15:35:18Z</time>
      </trkpt>
      <trkpt lat="46.13258" lon="5.90477">
        <ele>470.9</ele>
        <time>2022-09-26T15:35:19Z</time>
      </trkpt>
      <trkpt lat="46.13259" lon="5.90476">
        <ele>470.9</ele>
        <time>2022-09-26T15:35:20Z</time>
      </trkpt>
      <trkpt lat="46.13261" lon="5.90475">
        <ele>471</ele>
        <time>2022-09-26T15:35:21Z</time>
      </trkpt>
      <trkpt lat="46.13262" lon="5.90474">
        <ele>471.1</ele>
        <time>2022-09-26T15:35:22Z</time>
      </trkpt>
      <trkpt lat="46.13263" lon="5.90473">
        <ele>471.2</ele>
        <time>2022-09-26T15:35:23Z</time>
      </trkpt>
      <trkpt lat="46.13265" lon="5.90473">
        <ele>471.3</ele>
        <time>2022-09-26T15:35:24Z</time>
      </trkpt>
      <trkpt lat="46.13268" lon="5.90471">
        <ele>471.4</ele>
        <time>2022-09-26T15:35:25Z</time>
      </trkpt>
      <trkpt lat="46.13269" lon="5.90471">
        <ele>471.4</ele>
        <time>2022-09-26T15:35:26Z</time>
      </trkpt>
      <trkpt lat="46.1327" lon="5.9047">
        <ele>471.5</ele>
        <time>2022-09-26T15:35:27Z</time>
      </trkpt>
      <trkpt lat="46.13272" lon="5.90469">
        <ele>471.6</ele>
        <time>2022-09-26T15:35:28Z</time>
      </trkpt>
      <trkpt lat="46.13274" lon="5.90468">
        <ele>471.7</ele>
        <time>2022-09-26T15:35:29Z</time>
      </trkpt>
      <trkpt lat="46.13275" lon="5.90467">
        <ele>471.8</ele>
        <time>2022-09-26T15:35:30Z</time>
      </trkpt>
      <trkpt lat="46.13276" lon="5.90466">
        <ele>471.8</ele>
        <time>2022-09-26T15:35:31Z</time>
      </trkpt>
      <trkpt lat="46.13278" lon="5.90466">
        <ele>471.9</ele>
        <time>2022-09-26T15:35:32Z</time>
      </trkpt>
      <trkpt lat="46.13281" lon="5.90465">
        <ele>472</ele>
        <time>2022-09-26T15:35:33Z</time>
      </trkpt>
      <trkpt lat="46.13282" lon="5.90465">
        <ele>472.1</ele>
        <time>2022-09-26T15:35:34Z</time>
      </trkpt>
      <trkpt lat="46.13283" lon="5.90464">
        <ele>472.2</ele>
        <time>2022-09-26T15:35:35Z</time>
      </trkpt>
      <trkpt lat="46.13284" lon="5.90465">
        <ele>472.5</ele>
        <time>2022-09-26T15:35:36Z</time>
      </trkpt>
      <trkpt lat="46.13285" lon="5.90464">
        <ele>472.5</ele>
        <time>2022-09-26T15:35:37Z</time>
      </trkpt>
      <trkpt lat="46.13285" lon="5.90464">
        <ele>472.5</ele>
        <time>2022-09-26T15:35:38Z</time>
      </trkpt>
      <trkpt lat="46.13286" lon="5.90464">
        <ele>472.5</ele>
        <time>2022-09-26T15:35:39Z</time>
      </trkpt>
      <trkpt lat="46.13286" lon="5.90464">
        <ele>472.5</ele>
        <time>2022-09-26T15:35:40Z</time>
      </trkpt>
      <trkpt lat="46.13287" lon="5.90464">
        <ele>472.5</ele>
        <time>2022-09-26T15:35:41Z</time>
      </trkpt>
      <trkpt lat="46.13287" lon="5.90464">
        <ele>472.5</ele>
        <time>2022-09-26T15:35:42Z</time>
      </trkpt>
      <trkpt lat="46.13288" lon="5.90464">
        <ele>472.5</ele>
        <time>2022-09-26T15:35:43Z</time>
      </trkpt>
      <trkpt lat="46.13288" lon="5.90464">
        <ele>472.5</ele>
        <time>2022-09-26T15:35:44Z</time>
      </trkpt>
      <trkpt lat="46.13289" lon="5.90464">
        <ele>472.5</ele>
        <time>2022-09-26T15:35:45Z</time>
      </trkpt>
      <trkpt lat="46.13292" lon="5.90465">
        <ele>472.5</ele>
        <time>2022-09-26T15:35:46Z</time>
      </trkpt>
      <trkpt lat="46.13293" lon="5.90466">
        <ele>472.5</ele>
        <time>2022-09-26T15:35:47Z</time>
      </trkpt>
      <trkpt lat="46.13296" lon="5.90465">
        <ele>472.5</ele>
        <time>2022-09-26T15:35:48Z</time>
      </trkpt>
      <trkpt lat="46.13299" lon="5.90465">
        <ele>472.6</ele>
        <time>2022-09-26T15:35:49Z</time>
      </trkpt>
      <trkpt lat="46.13302" lon="5.90464">
        <ele>472.6</ele>
        <time>2022-09-26T15:35:50Z</time>
      </trkpt>
      <trkpt lat="46.13303" lon="5.90463">
        <ele>472.6</ele>
        <time>2022-09-26T15:35:51Z</time>
      </trkpt>
      <trkpt lat="46.13306" lon="5.90461">
        <ele>472.6</ele>
        <time>2022-09-26T15:35:52Z</time>
      </trkpt>
      <trkpt lat="46.13308" lon="5.90459">
        <ele>472.6</ele>
        <time>2022-09-26T15:35:53Z</time>
      </trkpt>
      <trkpt lat="46.1331" lon="5.90455">
        <ele>472.6</ele>
        <time>2022-09-26T15:35:54Z</time>
      </trkpt>
      <trkpt lat="46.13311" lon="5.90453">
        <ele>472.7</ele>
        <time>2022-09-26T15:35:55Z</time>
      </trkpt>
      <trkpt lat="46.13313" lon="5.90449">
        <ele>472.8</ele>
        <time>2022-09-26T15:35:56Z</time>
      </trkpt>
      <trkpt lat="46.13313" lon="5.90444">
        <ele>472.9</ele>
        <time>2022-09-26T15:35:57Z</time>
      </trkpt>
      <trkpt lat="46.13314" lon="5.90438">
        <ele>473</ele>
        <time>2022-09-26T15:35:58Z</time>
      </trkpt>
      <trkpt lat="46.13314" lon="5.90436">
        <ele>473.1</ele>
        <time>2022-09-26T15:35:59Z</time>
      </trkpt>
      <trkpt lat="46.13314" lon="5.90432">
        <ele>473.2</ele>
        <time>2022-09-26T15:36:00Z</time>
      </trkpt>
      <trkpt lat="46.13316" lon="5.90427">
        <ele>473.9</ele>
        <time>2022-09-26T15:36:01Z</time>
      </trkpt>
      <trkpt lat="46.13319" lon="5.90424">
        <ele>474</ele>
        <time>2022-09-26T15:36:02Z</time>
      </trkpt>
      <trkpt lat="46.1332" lon="5.90423">
        <ele>474.1</ele>
        <time>2022-09-26T15:36:03Z</time>
      </trkpt>
      <trkpt lat="46.13322" lon="5.9042">
        <ele>474.3</ele>
        <time>2022-09-26T15:36:04Z</time>
      </trkpt>
      <trkpt lat="46.13325" lon="5.90418">
        <ele>474.4</ele>
        <time>2022-09-26T15:36:05Z</time>
      </trkpt>
      <trkpt lat="46.13326" lon="5.90417">
        <ele>474.5</ele>
        <time>2022-09-26T15:36:06Z</time>
      </trkpt>
      <trkpt lat="46.13328" lon="5.90416">
        <ele>474.7</ele>
        <time>2022-09-26T15:36:07Z</time>
      </trkpt>
      <trkpt lat="46.1333" lon="5.90415">
        <ele>474.7</ele>
        <time>2022-09-26T15:36:08Z</time>
      </trkpt>
      <trkpt lat="46.13333" lon="5.90414">
        <ele>474.9</ele>
        <time>2022-09-26T15:36:09Z</time>
      </trkpt>
      <trkpt lat="46.13334" lon="5.90414">
        <ele>474.9</ele>
        <time>2022-09-26T15:36:10Z</time>
      </trkpt>
      <trkpt lat="46.13336" lon="5.90412">
        <ele>475.1</ele>
        <time>2022-09-26T15:36:11Z</time>
      </trkpt>
      <trkpt lat="46.13337" lon="5.90411">
        <ele>475.1</ele>
        <time>2022-09-26T15:36:12Z</time>
      </trkpt>
      <trkpt lat="46.13339" lon="5.90409">
        <ele>475.3</ele>
        <time>2022-09-26T15:36:13Z</time>
      </trkpt>
      <trkpt lat="46.1334" lon="5.90408">
        <ele>475.4</ele>
        <time>2022-09-26T15:36:14Z</time>
      </trkpt>
      <trkpt lat="46.13343" lon="5.90408">
        <ele>475.5</ele>
        <time>2022-09-26T15:36:15Z</time>
      </trkpt>
      <trkpt lat="46.13344" lon="5.90408">
        <ele>475.6</ele>
        <time>2022-09-26T15:36:16Z</time>
      </trkpt>
      <trkpt lat="46.13345" lon="5.90408">
        <ele>475.6</ele>
        <time>2022-09-26T15:36:17Z</time>
      </trkpt>
      <trkpt lat="46.13347" lon="5.90408">
        <ele>475.7</ele>
        <time>2022-09-26T15:36:18Z</time>
      </trkpt>
      <trkpt lat="46.13349" lon="5.90406">
        <ele>475.7</ele>
        <time>2022-09-26T15:36:19Z</time>
      </trkpt>
      <trkpt lat="46.1335" lon="5.90405">
        <ele>475.7</ele>
        <time>2022-09-26T15:36:20Z</time>
      </trkpt>
      <trkpt lat="46.1335" lon="5.90404">
        <ele>475.7</ele>
        <time>2022-09-26T15:36:21Z</time>
      </trkpt>
      <trkpt lat="46.1335" lon="5.90405">
        <ele>475.7</ele>
        <time>2022-09-26T15:36:22Z</time>
      </trkpt>
      <trkpt lat="46.1335" lon="5.90405">
        <ele>475.6</ele>
        <time>2022-09-26T15:36:23Z</time>
      </trkpt>
      <trkpt lat="46.13351" lon="5.90405">
        <ele>475.6</ele>
        <time>2022-09-26T15:36:24Z</time>
      </trkpt>
      <trkpt lat="46.13351" lon="5.90405">
        <ele>475.6</ele>
        <time>2022-09-26T15:36:25Z</time>
      </trkpt>
      <trkpt lat="46.13351" lon="5.90405">
        <ele>475.6</ele>
        <time>2022-09-26T15:36:26Z</time>
      </trkpt>
      <trkpt lat="46.13351" lon="5.90405">
        <ele>475.6</ele>
        <time>2022-09-26T15:36:27Z</time>
      </trkpt>
      <trkpt lat="46.13351" lon="5.90405">
        <ele>475.6</ele>
        <time>2022-09-26T15:36:28Z</time>
      </trkpt>
      <trkpt lat="46.13353" lon="5.90405">
        <ele>475.5</ele>
        <time>2022-09-26T15:36:29Z</time>
      </trkpt>
      <trkpt lat="46.13351" lon="5.90405">
        <ele>475.5</ele>
        <time>2022-09-26T15:36:30Z</time>
      </trkpt>
      <trkpt lat="46.13349" lon="5.90405">
        <ele>475.4</ele>
        <time>2022-09-26T15:36:31Z</time>
      </trkpt>
      <trkpt lat="46.13347" lon="5.90405">
        <ele>475.3</ele>
        <time>2022-09-26T15:38:09Z</time>
      </trkpt>
      <trkpt lat="46.13344" lon="5.90404">
        <ele>475.2</ele>
        <time>2022-09-26T15:38:10Z</time>
      </trkpt>
      <trkpt lat="46.13342" lon="5.90404">
        <ele>475.1</ele>
        <time>2022-09-26T15:38:11Z</time>
      </trkpt>
      <trkpt lat="46.13339" lon="5.90405">
        <ele>475</ele>
        <time>2022-09-26T15:38:12Z</time>
      </trkpt>
      <trkpt lat="46.13337" lon="5.90405">
        <ele>474.9</ele>
        <time>2022-09-26T15:38:13Z</time>
      </trkpt>
      <trkpt lat="46.13334" lon="5.90407">
        <ele>474.8</ele>
        <time>2022-09-26T15:38:14Z</time>
      </trkpt>
      <trkpt lat="46.1333" lon="5.90408">
        <ele>474.7</ele>
        <time>2022-09-26T15:38:15Z</time>
      </trkpt>
      <trkpt lat="46.13326" lon="5.9041">
        <ele>474.5</ele>
        <time>2022-09-26T15:38:16Z</time>
      </trkpt>
      <trkpt lat="46.1332" lon="5.90412">
        <ele>474.3</ele>
        <time>2022-09-26T15:38:17Z</time>
      </trkpt>
      <trkpt lat="46.13318" lon="5.90414">
        <ele>474.1</ele>
        <time>2022-09-26T15:38:18Z</time>
      </trkpt>
      <trkpt lat="46.13316" lon="5.90415">
        <ele>474.1</ele>
        <time>2022-09-26T15:38:19Z</time>
      </trkpt>
      <trkpt lat="46.13315" lon="5.90416">
        <ele>474</ele>
        <time>2022-09-26T15:38:20Z</time>
      </trkpt>
      <trkpt lat="46.13313" lon="5.90416">
        <ele>474</ele>
        <time>2022-09-26T15:38:21Z</time>
      </trkpt>
      <trkpt lat="46.13312" lon="5.90417">
        <ele>473.9</ele>
        <time>2022-09-26T15:38:22Z</time>
      </trkpt>
      <trkpt lat="46.13311" lon="5.90416">
        <ele>473.9</ele>
        <time>2022-09-26T15:38:23Z</time>
      </trkpt>
      <trkpt lat="46.1331" lon="5.90417">
        <ele>473.8</ele>
        <time>2022-09-26T15:38:24Z</time>
      </trkpt>
      <trkpt lat="46.13309" lon="5.90417">
        <ele>473.8</ele>
        <time>2022-09-26T15:38:25Z</time>
      </trkpt>
      <trkpt lat="46.13309" lon="5.90417">
        <ele>473.8</ele>
        <time>2022-09-26T15:38:26Z</time>
      </trkpt>
      <trkpt lat="46.13309" lon="5.90417">
        <ele>473.8</ele>
        <time>2022-09-26T15:38:27Z</time>
      </trkpt>
      <trkpt lat="46.13309" lon="5.90417">
        <ele>473.8</ele>
        <time>2022-09-26T15:38:28Z</time>
      </trkpt>
      <trkpt lat="46.13309" lon="5.90418">
        <ele>473.8</ele>
        <time>2022-09-26T15:38:29Z</time>
      </trkpt>
      <trkpt lat="46.13309" lon="5.90417">
        <ele>473.7</ele>
        <time>2022-09-26T15:38:30Z</time>
      </trkpt>
      <trkpt lat="46.13309" lon="5.90417">
        <ele>473.7</ele>
        <time>2022-09-26T15:38:31Z</time>
      </trkpt>
      <trkpt lat="46.13309" lon="5.90417">
        <ele>473.7</ele>
        <time>2022-09-26T15:38:32Z</time>
      </trkpt>
      <trkpt lat="46.13309" lon="5.90417">
        <ele>473.7</ele>
        <time>2022-09-26T15:38:33Z</time>
      </trkpt>
      <trkpt lat="46.13309" lon="5.90417">
        <ele>473.7</ele>
        <time>2022-09-26T15:38:34Z</time>
      </trkpt>
      <trkpt lat="46.13309" lon="5.90417">
        <ele>473.7</ele>
        <time>2022-09-26T15:38:35Z</time>
      </trkpt>
      <trkpt lat="46.13303" lon="5.90419">
        <ele>473.9</ele>
        <time>2022-09-26T15:38:51Z</time>
      </trkpt>
      <trkpt lat="46.133" lon="5.9042">
        <ele>473.8</ele>
        <time>2022-09-26T15:38:52Z</time>
      </trkpt>
      <trkpt lat="46.13296" lon="5.9042">
        <ele>473.6</ele>
        <time>2022-09-26T15:38:53Z</time>
      </trkpt>
      <trkpt lat="46.13293" lon="5.9042">
        <ele>473.4</ele>
        <time>2022-09-26T15:38:54Z</time>
      </trkpt>
      <trkpt lat="46.13289" lon="5.90423">
        <ele>473.3</ele>
        <time>2022-09-26T15:38:55Z</time>
      </trkpt>
      <trkpt lat="46.13286" lon="5.90426">
        <ele>473.1</ele>
        <time>2022-09-26T15:38:56Z</time>
      </trkpt>
      <trkpt lat="46.13284" lon="5.9043">
        <ele>473</ele>
        <time>2022-09-26T15:38:57Z</time>
      </trkpt>
      <trkpt lat="46.13282" lon="5.90435">
        <ele>472.8</ele>
        <time>2022-09-26T15:38:58Z</time>
      </trkpt>
      <trkpt lat="46.13282" lon="5.90441">
        <ele>472.7</ele>
        <time>2022-09-26T15:38:59Z</time>
      </trkpt>
      <trkpt lat="46.13281" lon="5.90448">
        <ele>472.6</ele>
        <time>2022-09-26T15:39:00Z</time>
      </trkpt>
      <trkpt lat="46.13284" lon="5.90453">
        <ele>472.4</ele>
        <time>2022-09-26T15:39:01Z</time>
      </trkpt>
      <trkpt lat="46.13286" lon="5.90458">
        <ele>472.5</ele>
        <time>2022-09-26T15:39:02Z</time>
      </trkpt>
      <trkpt lat="46.13289" lon="5.9046">
        <ele>472.5</ele>
        <time>2022-09-26T15:39:03Z</time>
      </trkpt>
      <trkpt lat="46.13293" lon="5.90464">
        <ele>472.5</ele>
        <time>2022-09-26T15:39:04Z</time>
      </trkpt>
      <trkpt lat="46.13297" lon="5.90465">
        <ele>472.5</ele>
        <time>2022-09-26T15:39:05Z</time>
      </trkpt>
      <trkpt lat="46.13301" lon="5.90465">
        <ele>472.6</ele>
        <time>2022-09-26T15:39:06Z</time>
      </trkpt>
      <trkpt lat="46.13305" lon="5.90465">
        <ele>472.6</ele>
        <time>2022-09-26T15:39:07Z</time>
      </trkpt>
      <trkpt lat="46.13308" lon="5.90467">
        <ele>472.4</ele>
        <time>2022-09-26T15:39:08Z</time>
      </trkpt>
      <trkpt lat="46.13312" lon="5.90469">
        <ele>472.3</ele>
        <time>2022-09-26T15:39:09Z</time>
      </trkpt>
      <trkpt lat="46.13315" lon="5.90473">
        <ele>472.2</ele>
        <time>2022-09-26T15:39:10Z</time>
      </trkpt>
      <trkpt lat="46.13318" lon="5.90477">
        <ele>472</ele>
        <time>2022-09-26T15:39:11Z</time>
      </trkpt>
      <trkpt lat="46.13323" lon="5.9048">
        <ele>471.9</ele>
        <time>2022-09-26T15:39:12Z</time>
      </trkpt>
      <trkpt lat="46.13326" lon="5.90486">
        <ele>471.7</ele>
        <time>2022-09-26T15:39:13Z</time>
      </trkpt>
      <trkpt lat="46.1333" lon="5.90491">
        <ele>471.6</ele>
        <time>2022-09-26T15:39:14Z</time>
      </trkpt>
      <trkpt lat="46.13334" lon="5.90496">
        <ele>471.4</ele>
        <time>2022-09-26T15:39:15Z</time>
      </trkpt>
      <trkpt lat="46.13338" lon="5.90501">
        <ele>471.3</ele>
        <time>2022-09-26T15:39:16Z</time>
      </trkpt>
      <trkpt lat="46.13342" lon="5.90507">
        <ele>471.2</ele>
        <time>2022-09-26T15:39:17Z</time>
      </trkpt>
      <trkpt lat="46.13346" lon="5.90512">
        <ele>471.1</ele>
        <time>2022-09-26T15:39:18Z</time>
      </trkpt>
      <trkpt lat="46.1335" lon="5.90517">
        <ele>471.1</ele>
        <time>2022-09-26T15:39:19Z</time>
      </trkpt>
      <trkpt lat="46.13354" lon="5.90523">
        <ele>471</ele>
        <time>2022-09-26T15:39:20Z</time>
      </trkpt>
      <trkpt lat="46.13358" lon="5.90529">
        <ele>470.9</ele>
        <time>2022-09-26T15:39:21Z</time>
      </trkpt>
      <trkpt lat="46.13362" lon="5.90534">
        <ele>470.9</ele>
        <time>2022-09-26T15:39:22Z</time>
      </trkpt>
      <trkpt lat="46.13367" lon="5.90539">
        <ele>470.8</ele>
        <time>2022-09-26T15:39:23Z</time>
      </trkpt>
      <trkpt lat="46.1337" lon="5.90544">
        <ele>470.8</ele>
        <time>2022-09-26T15:39:24Z</time>
      </trkpt>
      <trkpt lat="46.13374" lon="5.90549">
        <ele>470.7</ele>
        <time>2022-09-26T15:39:25Z</time>
      </trkpt>
      <trkpt lat="46.13378" lon="5.90554">
        <ele>470.7</ele>
        <time>2022-09-26T15:39:26Z</time>
      </trkpt>
      <trkpt lat="46.13381" lon="5.90558">
        <ele>470.6</ele>
        <time>2022-09-26T15:39:27Z</time>
      </trkpt>
      <trkpt lat="46.13384" lon="5.90563">
        <ele>470.6</ele>
        <time>2022-09-26T15:39:28Z</time>
      </trkpt>
      <trkpt lat="46.13387" lon="5.90566">
        <ele>470.5</ele>
        <time>2022-09-26T15:39:29Z</time>
      </trkpt>
      <trkpt lat="46.13388" lon="5.90568">
        <ele>470.6</ele>
        <time>2022-09-26T15:39:30Z</time>
      </trkpt>
      <trkpt lat="46.13388" lon="5.9057">
        <ele>470.7</ele>
        <time>2022-09-26T15:39:31Z</time>
      </trkpt>
      <trkpt lat="46.13388" lon="5.9057">
        <ele>470.7</ele>
        <time>2022-09-26T15:39:32Z</time>
      </trkpt>
      <trkpt lat="46.13387" lon="5.9057">
        <ele>470.7</ele>
        <time>2022-09-26T15:39:33Z</time>
      </trkpt>
      <trkpt lat="46.13387" lon="5.9057">
        <ele>470.7</ele>
        <time>2022-09-26T15:39:35Z</time>
      </trkpt>
      <trkpt lat="46.13387" lon="5.9057">
        <ele>470.7</ele>
        <time>2022-09-26T15:39:36Z</time>
      </trkpt>
      <trkpt lat="46.13386" lon="5.90569">
        <ele>470.7</ele>
        <time>2022-09-26T15:39:37Z</time>
      </trkpt>
      <trkpt lat="46.13386" lon="5.90569">
        <ele>470.7</ele>
        <time>2022-09-26T15:39:38Z</time>
      </trkpt>
      <trkpt lat="46.13386" lon="5.90569">
        <ele>470.7</ele>
        <time>2022-09-26T15:39:39Z</time>
      </trkpt>
      <trkpt lat="46.13385" lon="5.90568">
        <ele>470.7</ele>
        <time>2022-09-26T15:39:40Z</time>
      </trkpt>
      <trkpt lat="46.13385" lon="5.90568">
        <ele>470.7</ele>
        <time>2022-09-26T15:39:41Z</time>
      </trkpt>
      <trkpt lat="46.13384" lon="5.90568">
        <ele>470.7</ele>
        <time>2022-09-26T15:40:19Z</time>
      </trkpt>
      <trkpt lat="46.13384" lon="5.90567">
        <ele>470.8</ele>
        <time>2022-09-26T15:40:20Z</time>
      </trkpt>
      <trkpt lat="46.13384" lon="5.90567">
        <ele>470.8</ele>
        <time>2022-09-26T15:40:21Z</time>
      </trkpt>
      <trkpt lat="46.1338" lon="5.90563">
        <ele>470.8</ele>
        <time>2022-09-26T15:40:22Z</time>
      </trkpt>
      <trkpt lat="46.13378" lon="5.90562">
        <ele>470.9</ele>
        <time>2022-09-26T15:40:23Z</time>
      </trkpt>
      <trkpt lat="46.13376" lon="5.9056">
        <ele>470.9</ele>
        <time>2022-09-26T15:40:24Z</time>
      </trkpt>
      <trkpt lat="46.13374" lon="5.90557">
        <ele>470.9</ele>
        <time>2022-09-26T15:40:25Z</time>
      </trkpt>
      <trkpt lat="46.13372" lon="5.90556">
        <ele>470.9</ele>
        <time>2022-09-26T15:40:26Z</time>
      </trkpt>
      <trkpt lat="46.1337" lon="5.90553">
        <ele>471</ele>
        <time>2022-09-26T15:40:27Z</time>
      </trkpt>
      <trkpt lat="46.13369" lon="5.90551">
        <ele>471</ele>
        <time>2022-09-26T15:40:28Z</time>
      </trkpt>
      <trkpt lat="46.13367" lon="5.90547">
        <ele>471</ele>
        <time>2022-09-26T15:40:29Z</time>
      </trkpt>
      <trkpt lat="46.13365" lon="5.90545">
        <ele>471.1</ele>
        <time>2022-09-26T15:40:30Z</time>
      </trkpt>
      <trkpt lat="46.13362" lon="5.90542">
        <ele>471.1</ele>
        <time>2022-09-26T15:40:31Z</time>
      </trkpt>
      <trkpt lat="46.1336" lon="5.90538">
        <ele>471.1</ele>
        <time>2022-09-26T15:40:32Z</time>
      </trkpt>
      <trkpt lat="46.13357" lon="5.90535">
        <ele>471.2</ele>
        <time>2022-09-26T15:40:33Z</time>
      </trkpt>
      <trkpt lat="46.13355" lon="5.90533">
        <ele>471.2</ele>
        <time>2022-09-26T15:40:34Z</time>
      </trkpt>
      <trkpt lat="46.13352" lon="5.9053">
        <ele>471.2</ele>
        <time>2022-09-26T15:40:35Z</time>
      </trkpt>
      <trkpt lat="46.13349" lon="5.90526">
        <ele>471.3</ele>
        <time>2022-09-26T15:40:36Z</time>
      </trkpt>
      <trkpt lat="46.13347" lon="5.90522">
        <ele>471.3</ele>
        <time>2022-09-26T15:40:37Z</time>
      </trkpt>
      <trkpt lat="46.13344" lon="5.90518">
        <ele>471.3</ele>
        <time>2022-09-26T15:40:38Z</time>
      </trkpt>
      <trkpt lat="46.13342" lon="5.90515">
        <ele>471.4</ele>
        <time>2022-09-26T15:40:39Z</time>
      </trkpt>
      <trkpt lat="46.13339" lon="5.90511">
        <ele>471.4</ele>
        <time>2022-09-26T15:40:40Z</time>
      </trkpt>
      <trkpt lat="46.13337" lon="5.90508">
        <ele>471.4</ele>
        <time>2022-09-26T15:40:41Z</time>
      </trkpt>
      <trkpt lat="46.13334" lon="5.90505">
        <ele>471.4</ele>
        <time>2022-09-26T15:40:42Z</time>
      </trkpt>
      <trkpt lat="46.13331" lon="5.90501">
        <ele>471.4</ele>
        <time>2022-09-26T15:40:43Z</time>
      </trkpt>
      <trkpt lat="46.13329" lon="5.90498">
        <ele>471.3</ele>
        <time>2022-09-26T15:40:44Z</time>
      </trkpt>
      <trkpt lat="46.13327" lon="5.90495">
        <ele>471.3</ele>
        <time>2022-09-26T15:40:45Z</time>
      </trkpt>
      <trkpt lat="46.13324" lon="5.90491">
        <ele>471.2</ele>
        <time>2022-09-26T15:40:46Z</time>
      </trkpt>
      <trkpt lat="46.13321" lon="5.90489">
        <ele>471.1</ele>
        <time>2022-09-26T15:40:47Z</time>
      </trkpt>
      <trkpt lat="46.1332" lon="5.90488">
        <ele>471.1</ele>
        <time>2022-09-26T15:40:48Z</time>
      </trkpt>
      <trkpt lat="46.13317" lon="5.90486">
        <ele>471</ele>
        <time>2022-09-26T15:40:49Z</time>
      </trkpt>
      <trkpt lat="46.13315" lon="5.90485">
        <ele>470.9</ele>
        <time>2022-09-26T15:40:50Z</time>
      </trkpt>
      <trkpt lat="46.13312" lon="5.90485">
        <ele>470.8</ele>
        <time>2022-09-26T15:40:51Z</time>
      </trkpt>
      <trkpt lat="46.13309" lon="5.90485">
        <ele>470.6</ele>
        <time>2022-09-26T15:40:52Z</time>
      </trkpt>
      <trkpt lat="46.13305" lon="5.90485">
        <ele>470.4</ele>
        <time>2022-09-26T15:40:53Z</time>
      </trkpt>
      <trkpt lat="46.13302" lon="5.90485">
        <ele>470.3</ele>
        <time>2022-09-26T15:40:54Z</time>
      </trkpt>
      <trkpt lat="46.13299" lon="5.90486">
        <ele>470.1</ele>
        <time>2022-09-26T15:40:55Z</time>
      </trkpt>
      <trkpt lat="46.13297" lon="5.90487">
        <ele>469.9</ele>
        <time>2022-09-26T15:40:56Z</time>
      </trkpt>
      <trkpt lat="46.13294" lon="5.90489">
        <ele>469.7</ele>
        <time>2022-09-26T15:40:57Z</time>
      </trkpt>
      <trkpt lat="46.13291" lon="5.9049">
        <ele>469.6</ele>
        <time>2022-09-26T15:40:58Z</time>
      </trkpt>
      <trkpt lat="46.13288" lon="5.90492">
        <ele>469.4</ele>
        <time>2022-09-26T15:40:59Z</time>
      </trkpt>
      <trkpt lat="46.13286" lon="5.90494">
        <ele>469.2</ele>
        <time>2022-09-26T15:41:00Z</time>
      </trkpt>
      <trkpt lat="46.13285" lon="5.90495">
        <ele>469.2</ele>
        <time>2022-09-26T15:41:01Z</time>
      </trkpt>
      <trkpt lat="46.13284" lon="5.90497">
        <ele>469.1</ele>
        <time>2022-09-26T15:41:02Z</time>
      </trkpt>
      <trkpt lat="46.13283" lon="5.90499">
        <ele>468.9</ele>
        <time>2022-09-26T15:41:03Z</time>
      </trkpt>
      <trkpt lat="46.13282" lon="5.90503">
        <ele>468.9</ele>
        <time>2022-09-26T15:41:04Z</time>
      </trkpt>
      <trkpt lat="46.13281" lon="5.90504">
        <ele>468.9</ele>
        <time>2022-09-26T15:41:05Z</time>
      </trkpt>
      <trkpt lat="46.13279" lon="5.90509">
        <ele>468.6</ele>
        <time>2022-09-26T15:41:06Z</time>
      </trkpt>
      <trkpt lat="46.13279" lon="5.9051">
        <ele>468.5</ele>
        <time>2022-09-26T15:41:07Z</time>
      </trkpt>
      <trkpt lat="46.13277" lon="5.90514">
        <ele>468.2</ele>
        <time>2022-09-26T15:41:08Z</time>
      </trkpt>
      <trkpt lat="46.13274" lon="5.90518">
        <ele>467.9</ele>
        <time>2022-09-26T15:41:09Z</time>
      </trkpt>
      <trkpt lat="46.13272" lon="5.9052">
        <ele>467.6</ele>
        <time>2022-09-26T15:41:10Z</time>
      </trkpt>
      <trkpt lat="46.13269" lon="5.90521">
        <ele>467.3</ele>
        <time>2022-09-26T15:41:11Z</time>
      </trkpt>
      <trkpt lat="46.13267" lon="5.90524">
        <ele>467</ele>
        <time>2022-09-26T15:41:12Z</time>
      </trkpt>
      <trkpt lat="46.13263" lon="5.90527">
        <ele>466.6</ele>
        <time>2022-09-26T15:41:13Z</time>
      </trkpt>
      <trkpt lat="46.13261" lon="5.90528">
        <ele>466.4</ele>
        <time>2022-09-26T15:41:14Z</time>
      </trkpt>
      <trkpt lat="46.13258" lon="5.9053">
        <ele>466.1</ele>
        <time>2022-09-26T15:41:15Z</time>
      </trkpt>
      <trkpt lat="46.13256" lon="5.90532">
        <ele>465.8</ele>
        <time>2022-09-26T15:41:16Z</time>
      </trkpt>
      <trkpt lat="46.13254" lon="5.90535">
        <ele>465.5</ele>
        <time>2022-09-26T15:41:17Z</time>
      </trkpt>
      <trkpt lat="46.13251" lon="5.90539">
        <ele>465.1</ele>
        <time>2022-09-26T15:41:18Z</time>
      </trkpt>
      <trkpt lat="46.13248" lon="5.90542">
        <ele>464.7</ele>
        <time>2022-09-26T15:41:19Z</time>
      </trkpt>
      <trkpt lat="46.13245" lon="5.90546">
        <ele>464.3</ele>
        <time>2022-09-26T15:41:20Z</time>
      </trkpt>
      <trkpt lat="46.13242" lon="5.90549">
        <ele>463.9</ele>
        <time>2022-09-26T15:41:21Z</time>
      </trkpt>
      <trkpt lat="46.13238" lon="5.90553">
        <ele>463.4</ele>
        <time>2022-09-26T15:41:22Z</time>
      </trkpt>
      <trkpt lat="46.13235" lon="5.90556">
        <ele>463</ele>
        <time>2022-09-26T15:41:23Z</time>
      </trkpt>
      <trkpt lat="46.13232" lon="5.90559">
        <ele>462.6</ele>
        <time>2022-09-26T15:41:24Z</time>
      </trkpt>
      <trkpt lat="46.13228" lon="5.90562">
        <ele>462.2</ele>
        <time>2022-09-26T15:41:25Z</time>
      </trkpt>
      <trkpt lat="46.13226" lon="5.90566">
        <ele>461.8</ele>
        <time>2022-09-26T15:41:26Z</time>
      </trkpt>
      <trkpt lat="46.13222" lon="5.90567">
        <ele>461.4</ele>
        <time>2022-09-26T15:41:27Z</time>
      </trkpt>
      <trkpt lat="46.13219" lon="5.9057">
        <ele>461</ele>
        <time>2022-09-26T15:41:28Z</time>
      </trkpt>
      <trkpt lat="46.13216" lon="5.90572">
        <ele>460.6</ele>
        <time>2022-09-26T15:41:29Z</time>
      </trkpt>
      <trkpt lat="46.13213" lon="5.90574">
        <ele>460.3</ele>
        <time>2022-09-26T15:41:30Z</time>
      </trkpt>
      <trkpt lat="46.1321" lon="5.90577">
        <ele>459.9</ele>
        <time>2022-09-26T15:41:31Z</time>
      </trkpt>
      <trkpt lat="46.1321" lon="5.90579">
        <ele>459.7</ele>
        <time>2022-09-26T15:41:32Z</time>
      </trkpt>
      <trkpt lat="46.13208" lon="5.9058">
        <ele>459.5</ele>
        <time>2022-09-26T15:41:33Z</time>
      </trkpt>
      <trkpt lat="46.13207" lon="5.90581">
        <ele>459.3</ele>
        <time>2022-09-26T15:41:34Z</time>
      </trkpt>
      <trkpt lat="46.13205" lon="5.90585">
        <ele>459</ele>
        <time>2022-09-26T15:41:35Z</time>
      </trkpt>
      <trkpt lat="46.13204" lon="5.90587">
        <ele>458.8</ele>
        <time>2022-09-26T15:41:36Z</time>
      </trkpt>
      <trkpt lat="46.13204" lon="5.9059">
        <ele>458.6</ele>
        <time>2022-09-26T15:41:37Z</time>
      </trkpt>
      <trkpt lat="46.13204" lon="5.90591">
        <ele>458.5</ele>
        <time>2022-09-26T15:41:38Z</time>
      </trkpt>
      <trkpt lat="46.13203" lon="5.90591">
        <ele>458.4</ele>
        <time>2022-09-26T15:41:39Z</time>
      </trkpt>
      <trkpt lat="46.13203" lon="5.90591">
        <ele>458.1</ele>
        <time>2022-09-26T15:41:41Z</time>
      </trkpt>
      <trkpt lat="46.13202" lon="5.90591">
        <ele>458</ele>
        <time>2022-09-26T15:41:42Z</time>
      </trkpt>
      <trkpt lat="46.13201" lon="5.90591">
        <ele>457.9</ele>
        <time>2022-09-26T15:41:43Z</time>
      </trkpt>
      <trkpt lat="46.132" lon="5.9059">
        <ele>457.8</ele>
        <time>2022-09-26T15:41:44Z</time>
      </trkpt>
      <trkpt lat="46.13199" lon="5.9059">
        <ele>457.7</ele>
        <time>2022-09-26T15:41:45Z</time>
      </trkpt>
      <trkpt lat="46.13198" lon="5.9059">
        <ele>457.6</ele>
        <time>2022-09-26T15:41:46Z</time>
      </trkpt>
      <trkpt lat="46.13197" lon="5.9059">
        <ele>457.5</ele>
        <time>2022-09-26T15:41:47Z</time>
      </trkpt>
      <trkpt lat="46.13196" lon="5.90589">
        <ele>457.4</ele>
        <time>2022-09-26T15:41:48Z</time>
      </trkpt>
      <trkpt lat="46.13195" lon="5.90589">
        <ele>457.3</ele>
        <time>2022-09-26T15:42:04Z</time>
      </trkpt>
      <trkpt lat="46.13195" lon="5.90589">
        <ele>457.2</ele>
        <time>2022-09-26T15:42:05Z</time>
      </trkpt>
      <trkpt lat="46.13191" lon="5.90589">
        <ele>456.8</ele>
        <time>2022-09-26T15:42:06Z</time>
      </trkpt>
      <trkpt lat="46.1319" lon="5.90589">
        <ele>456.7</ele>
        <time>2022-09-26T15:42:07Z</time>
      </trkpt>
      <trkpt lat="46.13188" lon="5.90592">
        <ele>456.3</ele>
        <time>2022-09-26T15:42:08Z</time>
      </trkpt>
      <trkpt lat="46.13185" lon="5.90594">
        <ele>455.9</ele>
        <time>2022-09-26T15:42:09Z</time>
      </trkpt>
      <trkpt lat="46.13182" lon="5.90596">
        <ele>455.5</ele>
        <time>2022-09-26T15:42:10Z</time>
      </trkpt>
      <trkpt lat="46.13179" lon="5.90599">
        <ele>455</ele>
        <time>2022-09-26T15:42:11Z</time>
      </trkpt>
      <trkpt lat="46.13178" lon="5.906">
        <ele>454.9</ele>
        <time>2022-09-26T15:42:12Z</time>
      </trkpt>
      <trkpt lat="46.13175" lon="5.90603">
        <ele>454.4</ele>
        <time>2022-09-26T15:42:13Z</time>
      </trkpt>
      <trkpt lat="46.13174" lon="5.90604">
        <ele>454.2</ele>
        <time>2022-09-26T15:42:14Z</time>
      </trkpt>
      <trkpt lat="46.13171" lon="5.90606">
        <ele>453.8</ele>
        <time>2022-09-26T15:42:15Z</time>
      </trkpt>
      <trkpt lat="46.13169" lon="5.90607">
        <ele>453.4</ele>
        <time>2022-09-26T15:42:16Z</time>
      </trkpt>
      <trkpt lat="46.13168" lon="5.90609">
        <ele>453.2</ele>
        <time>2022-09-26T15:42:17Z</time>
      </trkpt>
      <trkpt lat="46.13166" lon="5.9061">
        <ele>452.9</ele>
        <time>2022-09-26T15:42:18Z</time>
      </trkpt>
      <trkpt lat="46.13165" lon="5.9061">
        <ele>452.8</ele>
        <time>2022-09-26T15:42:19Z</time>
      </trkpt>
      <trkpt lat="46.13164" lon="5.90611">
        <ele>452.6</ele>
        <time>2022-09-26T15:42:20Z</time>
      </trkpt>
      <trkpt lat="46.13161" lon="5.90613">
        <ele>452.1</ele>
        <time>2022-09-26T15:42:21Z</time>
      </trkpt>
      <trkpt lat="46.1316" lon="5.90614">
        <ele>451.9</ele>
        <time>2022-09-26T15:42:22Z</time>
      </trkpt>
      <trkpt lat="46.13157" lon="5.90616">
        <ele>451.5</ele>
        <time>2022-09-26T15:42:23Z</time>
      </trkpt>
      <trkpt lat="46.13157" lon="5.90617">
        <ele>451.4</ele>
        <time>2022-09-26T15:42:24Z</time>
      </trkpt>
      <trkpt lat="46.13153" lon="5.9062">
        <ele>450.7</ele>
        <time>2022-09-26T15:42:25Z</time>
      </trkpt>
      <trkpt lat="46.13151" lon="5.90622">
        <ele>450.4</ele>
        <time>2022-09-26T15:42:26Z</time>
      </trkpt>
      <trkpt lat="46.13148" lon="5.90624">
        <ele>449.9</ele>
        <time>2022-09-26T15:42:27Z</time>
      </trkpt>
      <trkpt lat="46.13145" lon="5.90626">
        <ele>449.5</ele>
        <time>2022-09-26T15:42:28Z</time>
      </trkpt>
      <trkpt lat="46.13143" lon="5.90629">
        <ele>448.9</ele>
        <time>2022-09-26T15:42:29Z</time>
      </trkpt>
      <trkpt lat="46.13142" lon="5.9063">
        <ele>448.7</ele>
        <time>2022-09-26T15:42:30Z</time>
      </trkpt>
      <trkpt lat="46.13138" lon="5.90632">
        <ele>448.2</ele>
        <time>2022-09-26T15:42:31Z</time>
      </trkpt>
      <trkpt lat="46.13137" lon="5.90633">
        <ele>448</ele>
        <time>2022-09-26T15:42:32Z</time>
      </trkpt>
      <trkpt lat="46.13135" lon="5.90636">
        <ele>447.5</ele>
        <time>2022-09-26T15:42:33Z</time>
      </trkpt>
      <trkpt lat="46.13131" lon="5.90638">
        <ele>446.9</ele>
        <time>2022-09-26T15:42:34Z</time>
      </trkpt>
      <trkpt lat="46.1313" lon="5.90639">
        <ele>446.7</ele>
        <time>2022-09-26T15:42:35Z</time>
      </trkpt>
      <trkpt lat="46.13126" lon="5.90641">
        <ele>446.1</ele>
        <time>2022-09-26T15:42:36Z</time>
      </trkpt>
      <trkpt lat="46.13125" lon="5.90641">
        <ele>446</ele>
        <time>2022-09-26T15:42:37Z</time>
      </trkpt>
      <trkpt lat="46.13123" lon="5.90643">
        <ele>445.5</ele>
        <time>2022-09-26T15:42:38Z</time>
      </trkpt>
      <trkpt lat="46.13119" lon="5.90644">
        <ele>444.9</ele>
        <time>2022-09-26T15:42:39Z</time>
      </trkpt>
      <trkpt lat="46.13118" lon="5.90645">
        <ele>444.8</ele>
        <time>2022-09-26T15:42:40Z</time>
      </trkpt>
      <trkpt lat="46.13116" lon="5.90646">
        <ele>444.3</ele>
        <time>2022-09-26T15:42:41Z</time>
      </trkpt>
      <trkpt lat="46.13113" lon="5.90648">
        <ele>443.8</ele>
        <time>2022-09-26T15:42:42Z</time>
      </trkpt>
      <trkpt lat="46.1311" lon="5.9065">
        <ele>443.3</ele>
        <time>2022-09-26T15:42:43Z</time>
      </trkpt>
      <trkpt lat="46.13108" lon="5.90652">
        <ele>442.8</ele>
        <time>2022-09-26T15:42:44Z</time>
      </trkpt>
      <trkpt lat="46.13105" lon="5.90654">
        <ele>442.3</ele>
        <time>2022-09-26T15:42:45Z</time>
      </trkpt>
      <trkpt lat="46.13102" lon="5.90657">
        <ele>441.7</ele>
        <time>2022-09-26T15:42:46Z</time>
      </trkpt>
      <trkpt lat="46.13101" lon="5.90657">
        <ele>441.6</ele>
        <time>2022-09-26T15:42:47Z</time>
      </trkpt>
      <trkpt lat="46.13098" lon="5.90659">
        <ele>440.9</ele>
        <time>2022-09-26T15:42:48Z</time>
      </trkpt>
      <trkpt lat="46.13096" lon="5.90659">
        <ele>440.7</ele>
        <time>2022-09-26T15:42:49Z</time>
      </trkpt>
      <trkpt lat="46.13094" lon="5.90661">
        <ele>440.2</ele>
        <time>2022-09-26T15:42:50Z</time>
      </trkpt>
      <trkpt lat="46.13091" lon="5.90663">
        <ele>439.7</ele>
        <time>2022-09-26T15:42:51Z</time>
      </trkpt>
      <trkpt lat="46.13089" lon="5.90665">
        <ele>439.2</ele>
        <time>2022-09-26T15:42:52Z</time>
      </trkpt>
      <trkpt lat="46.13088" lon="5.90666">
        <ele>439</ele>
        <time>2022-09-26T15:42:53Z</time>
      </trkpt>
      <trkpt lat="46.13085" lon="5.90669">
        <ele>438.4</ele>
        <time>2022-09-26T15:42:54Z</time>
      </trkpt>
      <trkpt lat="46.13084" lon="5.90669">
        <ele>438.2</ele>
        <time>2022-09-26T15:42:55Z</time>
      </trkpt>
      <trkpt lat="46.13081" lon="5.90671">
        <ele>437.6</ele>
        <time>2022-09-26T15:42:56Z</time>
      </trkpt>
      <trkpt lat="46.13078" lon="5.90673">
        <ele>437.1</ele>
        <time>2022-09-26T15:42:57Z</time>
      </trkpt>
      <trkpt lat="46.13075" lon="5.90676">
        <ele>436.4</ele>
        <time>2022-09-26T15:42:58Z</time>
      </trkpt>
      <trkpt lat="46.13074" lon="5.90677">
        <ele>436.2</ele>
        <time>2022-09-26T15:42:59Z</time>
      </trkpt>
      <trkpt lat="46.13072" lon="5.90679">
        <ele>435.6</ele>
        <time>2022-09-26T15:43:00Z</time>
      </trkpt>
      <trkpt lat="46.13069" lon="5.90681">
        <ele>435</ele>
        <time>2022-09-26T15:43:01Z</time>
      </trkpt>
      <trkpt lat="46.13066" lon="5.90683">
        <ele>434.4</ele>
        <time>2022-09-26T15:43:02Z</time>
      </trkpt>
      <trkpt lat="46.13063" lon="5.90685">
        <ele>433.8</ele>
        <time>2022-09-26T15:43:03Z</time>
      </trkpt>
      <trkpt lat="46.1306" lon="5.90688">
        <ele>433.2</ele>
        <time>2022-09-26T15:43:04Z</time>
      </trkpt>
      <trkpt lat="46.13058" lon="5.9069">
        <ele>432.6</ele>
        <time>2022-09-26T15:43:05Z</time>
      </trkpt>
      <trkpt lat="46.13056" lon="5.90692">
        <ele>432.2</ele>
        <time>2022-09-26T15:43:06Z</time>
      </trkpt>
      <trkpt lat="46.13055" lon="5.90693">
        <ele>432</ele>
        <time>2022-09-26T15:43:07Z</time>
      </trkpt>
      <trkpt lat="46.13054" lon="5.90697">
        <ele>431.4</ele>
        <time>2022-09-26T15:43:08Z</time>
      </trkpt>
      <trkpt lat="46.13053" lon="5.90698">
        <ele>431.2</ele>
        <time>2022-09-26T15:43:09Z</time>
      </trkpt>
      <trkpt lat="46.13051" lon="5.907">
        <ele>430.7</ele>
        <time>2022-09-26T15:43:10Z</time>
      </trkpt>
      <trkpt lat="46.13048" lon="5.90705">
        <ele>430</ele>
        <time>2022-09-26T15:43:11Z</time>
      </trkpt>
      <trkpt lat="46.13048" lon="5.90707">
        <ele>429.7</ele>
        <time>2022-09-26T15:43:12Z</time>
      </trkpt>
      <trkpt lat="46.13046" lon="5.9071">
        <ele>429.2</ele>
        <time>2022-09-26T15:43:13Z</time>
      </trkpt>
      <trkpt lat="46.13045" lon="5.90711">
        <ele>429</ele>
        <time>2022-09-26T15:43:14Z</time>
      </trkpt>
      <trkpt lat="46.13044" lon="5.90716">
        <ele>428.4</ele>
        <time>2022-09-26T15:43:15Z</time>
      </trkpt>
      <trkpt lat="46.13044" lon="5.90717">
        <ele>428.2</ele>
        <time>2022-09-26T15:43:16Z</time>
      </trkpt>
      <trkpt lat="46.13043" lon="5.90719">
        <ele>427.9</ele>
        <time>2022-09-26T15:43:17Z</time>
      </trkpt>
      <trkpt lat="46.13042" lon="5.90721">
        <ele>427.6</ele>
        <time>2022-09-26T15:43:18Z</time>
      </trkpt>
      <trkpt lat="46.13041" lon="5.90726">
        <ele>427.1</ele>
        <time>2022-09-26T15:43:19Z</time>
      </trkpt>
      <trkpt lat="46.13041" lon="5.90727">
        <ele>426.9</ele>
        <time>2022-09-26T15:43:20Z</time>
      </trkpt>
      <trkpt lat="46.13039" lon="5.90731">
        <ele>426.4</ele>
        <time>2022-09-26T15:43:21Z</time>
      </trkpt>
      <trkpt lat="46.13039" lon="5.90732">
        <ele>426.2</ele>
        <time>2022-09-26T15:43:22Z</time>
      </trkpt>
      <trkpt lat="46.13038" lon="5.90736">
        <ele>425.7</ele>
        <time>2022-09-26T15:43:23Z</time>
      </trkpt>
      <trkpt lat="46.13038" lon="5.90737">
        <ele>425.5</ele>
        <time>2022-09-26T15:43:24Z</time>
      </trkpt>
      <trkpt lat="46.13036" lon="5.90742">
        <ele>425</ele>
        <time>2022-09-26T15:43:25Z</time>
      </trkpt>
      <trkpt lat="46.13036" lon="5.90744">
        <ele>424.7</ele>
        <time>2022-09-26T15:43:26Z</time>
      </trkpt>
      <trkpt lat="46.13034" lon="5.90748">
        <ele>424.2</ele>
        <time>2022-09-26T15:43:27Z</time>
      </trkpt>
      <trkpt lat="46.13034" lon="5.90749">
        <ele>424.1</ele>
        <time>2022-09-26T15:43:28Z</time>
      </trkpt>
      <trkpt lat="46.13032" lon="5.90753">
        <ele>423.5</ele>
        <time>2022-09-26T15:43:29Z</time>
      </trkpt>
      <trkpt lat="46.13032" lon="5.90755">
        <ele>423.4</ele>
        <time>2022-09-26T15:43:30Z</time>
      </trkpt>
      <trkpt lat="46.13031" lon="5.90759">
        <ele>422.8</ele>
        <time>2022-09-26T15:43:31Z</time>
      </trkpt>
      <trkpt lat="46.1303" lon="5.90761">
        <ele>422.7</ele>
        <time>2022-09-26T15:43:32Z</time>
      </trkpt>
      <trkpt lat="46.13029" lon="5.90765">
        <ele>422.7</ele>
        <time>2022-09-26T15:43:33Z</time>
      </trkpt>
      <trkpt lat="46.13028" lon="5.90768">
        <ele>422.3</ele>
        <time>2022-09-26T15:43:34Z</time>
      </trkpt>
      <trkpt lat="46.13027" lon="5.90772">
        <ele>421.7</ele>
        <time>2022-09-26T15:43:35Z</time>
      </trkpt>
      <trkpt lat="46.13026" lon="5.90778">
        <ele>420.9</ele>
        <time>2022-09-26T15:43:36Z</time>
      </trkpt>
      <trkpt lat="46.13025" lon="5.90779">
        <ele>420.6</ele>
        <time>2022-09-26T15:43:37Z</time>
      </trkpt>
      <trkpt lat="46.13024" lon="5.90784">
        <ele>419.8</ele>
        <time>2022-09-26T15:43:38Z</time>
      </trkpt>
      <trkpt lat="46.13023" lon="5.90786">
        <ele>419.5</ele>
        <time>2022-09-26T15:43:39Z</time>
      </trkpt>
      <trkpt lat="46.13022" lon="5.90791">
        <ele>418.7</ele>
        <time>2022-09-26T15:43:40Z</time>
      </trkpt>
      <trkpt lat="46.13021" lon="5.90794">
        <ele>418.3</ele>
        <time>2022-09-26T15:43:41Z</time>
      </trkpt>
      <trkpt lat="46.13019" lon="5.90799">
        <ele>417.9</ele>
        <time>2022-09-26T15:43:42Z</time>
      </trkpt>
      <trkpt lat="46.13018" lon="5.90804">
        <ele>417.6</ele>
        <time>2022-09-26T15:43:43Z</time>
      </trkpt>
      <trkpt lat="46.13018" lon="5.90808">
        <ele>417.4</ele>
        <time>2022-09-26T15:43:44Z</time>
      </trkpt>
      <trkpt lat="46.13016" lon="5.90812">
        <ele>417.1</ele>
        <time>2022-09-26T15:43:45Z</time>
      </trkpt>
      <trkpt lat="46.13015" lon="5.90818">
        <ele>416.5</ele>
        <time>2022-09-26T15:43:47Z</time>
      </trkpt>
      <trkpt lat="46.13014" lon="5.9082">
        <ele>416.3</ele>
        <time>2022-09-26T15:43:48Z</time>
      </trkpt>
      <trkpt lat="46.13013" lon="5.90822">
        <ele>416.1</ele>
        <time>2022-09-26T15:43:49Z</time>
      </trkpt>
      <trkpt lat="46.13012" lon="5.90826">
        <ele>415.7</ele>
        <time>2022-09-26T15:43:50Z</time>
      </trkpt>
      <trkpt lat="46.13012" lon="5.90827">
        <ele>415.6</ele>
        <time>2022-09-26T15:43:51Z</time>
      </trkpt>
      <trkpt lat="46.13012" lon="5.90829">
        <ele>415.4</ele>
        <time>2022-09-26T15:43:52Z</time>
      </trkpt>
      <trkpt lat="46.13012" lon="5.90832">
        <ele>415.2</ele>
        <time>2022-09-26T15:43:53Z</time>
      </trkpt>
      <trkpt lat="46.13012" lon="5.90838">
        <ele>414.7</ele>
        <time>2022-09-26T15:43:54Z</time>
      </trkpt>
      <trkpt lat="46.13012" lon="5.9084">
        <ele>414.5</ele>
        <time>2022-09-26T15:43:55Z</time>
      </trkpt>
      <trkpt lat="46.13012" lon="5.90844">
        <ele>414.1</ele>
        <time>2022-09-26T15:43:56Z</time>
      </trkpt>
      <trkpt lat="46.13012" lon="5.90849">
        <ele>413.9</ele>
        <time>2022-09-26T15:43:57Z</time>
      </trkpt>
      <trkpt lat="46.13012" lon="5.90854">
        <ele>413.7</ele>
        <time>2022-09-26T15:43:58Z</time>
      </trkpt>
      <trkpt lat="46.13013" lon="5.90859">
        <ele>413.5</ele>
        <time>2022-09-26T15:43:59Z</time>
      </trkpt>
      <trkpt lat="46.13014" lon="5.90863">
        <ele>413.4</ele>
        <time>2022-09-26T15:44:00Z</time>
      </trkpt>
      <trkpt lat="46.13015" lon="5.90867">
        <ele>413.2</ele>
        <time>2022-09-26T15:44:01Z</time>
      </trkpt>
      <trkpt lat="46.13016" lon="5.90871">
        <ele>413</ele>
        <time>2022-09-26T15:44:02Z</time>
      </trkpt>
      <trkpt lat="46.13018" lon="5.90875">
        <ele>412.9</ele>
        <time>2022-09-26T15:44:03Z</time>
      </trkpt>
      <trkpt lat="46.13019" lon="5.90879">
        <ele>412.7</ele>
        <time>2022-09-26T15:44:04Z</time>
      </trkpt>
      <trkpt lat="46.13021" lon="5.90883">
        <ele>412.5</ele>
        <time>2022-09-26T15:44:05Z</time>
      </trkpt>
      <trkpt lat="46.13022" lon="5.90887">
        <ele>412.4</ele>
        <time>2022-09-26T15:44:06Z</time>
      </trkpt>
      <trkpt lat="46.13025" lon="5.9089">
        <ele>412.2</ele>
        <time>2022-09-26T15:44:07Z</time>
      </trkpt>
      <trkpt lat="46.13028" lon="5.90893">
        <ele>412.1</ele>
        <time>2022-09-26T15:44:08Z</time>
      </trkpt>
      <trkpt lat="46.13028" lon="5.90894">
        <ele>412</ele>
        <time>2022-09-26T15:44:09Z</time>
      </trkpt>
      <trkpt lat="46.13028" lon="5.90894">
        <ele>412</ele>
        <time>2022-09-26T15:44:10Z</time>
      </trkpt>
      <trkpt lat="46.13028" lon="5.90894">
        <ele>412</ele>
        <time>2022-09-26T15:44:11Z</time>
      </trkpt>
      <trkpt lat="46.13028" lon="5.90894">
        <ele>412</ele>
        <time>2022-09-26T15:44:12Z</time>
      </trkpt>
      <trkpt lat="46.13028" lon="5.90894">
        <ele>412</ele>
        <time>2022-09-26T15:44:13Z</time>
      </trkpt>
      <trkpt lat="46.13028" lon="5.90894">
        <ele>411.9</ele>
        <time>2022-09-26T15:44:14Z</time>
      </trkpt>
      <trkpt lat="46.13028" lon="5.90894">
        <ele>411.9</ele>
        <time>2022-09-26T15:44:15Z</time>
      </trkpt>
      <trkpt lat="46.13029" lon="5.90893">
        <ele>411.9</ele>
        <time>2022-09-26T15:44:16Z</time>
      </trkpt>
      <trkpt lat="46.13029" lon="5.90893">
        <ele>411.9</ele>
        <time>2022-09-26T15:44:17Z</time>
      </trkpt>
      <trkpt lat="46.13029" lon="5.90893">
        <ele>411.9</ele>
        <time>2022-09-26T15:44:18Z</time>
      </trkpt>
      <trkpt lat="46.13028" lon="5.90893">
        <ele>411.9</ele>
        <time>2022-09-26T15:44:19Z</time>
      </trkpt>
      <trkpt lat="46.13037" lon="5.90903">
        <ele>411.6</ele>
        <time>2022-09-26T15:44:52Z</time>
      </trkpt>
      <trkpt lat="46.13039" lon="5.90906">
        <ele>411.6</ele>
        <time>2022-09-26T15:44:53Z</time>
      </trkpt>
      <trkpt lat="46.13041" lon="5.90908">
        <ele>411.7</ele>
        <time>2022-09-26T15:44:54Z</time>
      </trkpt>
      <trkpt lat="46.13044" lon="5.90911">
        <ele>411.7</ele>
        <time>2022-09-26T15:44:55Z</time>
      </trkpt>
      <trkpt lat="46.13046" lon="5.90914">
        <ele>411.8</ele>
        <time>2022-09-26T15:44:56Z</time>
      </trkpt>
      <trkpt lat="46.13049" lon="5.90916">
        <ele>411.8</ele>
        <time>2022-09-26T15:44:57Z</time>
      </trkpt>
      <trkpt lat="46.13051" lon="5.9092">
        <ele>411.9</ele>
        <time>2022-09-26T15:44:58Z</time>
      </trkpt>
      <trkpt lat="46.13054" lon="5.90922">
        <ele>412</ele>
        <time>2022-09-26T15:44:59Z</time>
      </trkpt>
      <trkpt lat="46.13056" lon="5.90926">
        <ele>412.1</ele>
        <time>2022-09-26T15:45:00Z</time>
      </trkpt>
      <trkpt lat="46.13059" lon="5.90929">
        <ele>412.2</ele>
        <time>2022-09-26T15:45:01Z</time>
      </trkpt>
      <trkpt lat="46.1306" lon="5.90931">
        <ele>412.2</ele>
        <time>2022-09-26T15:45:02Z</time>
      </trkpt>
      <trkpt lat="46.13064" lon="5.90934">
        <ele>412.4</ele>
        <time>2022-09-26T15:45:03Z</time>
      </trkpt>
      <trkpt lat="46.13067" lon="5.90937">
        <ele>412.5</ele>
        <time>2022-09-26T15:45:04Z</time>
      </trkpt>
      <trkpt lat="46.1307" lon="5.9094">
        <ele>412.7</ele>
        <time>2022-09-26T15:45:05Z</time>
      </trkpt>
      <trkpt lat="46.13073" lon="5.90942">
        <ele>412.8</ele>
        <time>2022-09-26T15:45:06Z</time>
      </trkpt>
      <trkpt lat="46.13075" lon="5.90944">
        <ele>412.9</ele>
        <time>2022-09-26T15:45:07Z</time>
      </trkpt>
      <trkpt lat="46.13078" lon="5.90947">
        <ele>412.9</ele>
        <time>2022-09-26T15:45:08Z</time>
      </trkpt>
      <trkpt lat="46.13081" lon="5.9095">
        <ele>412.9</ele>
        <time>2022-09-26T15:45:09Z</time>
      </trkpt>
      <trkpt lat="46.13084" lon="5.90953">
        <ele>412.9</ele>
        <time>2022-09-26T15:45:10Z</time>
      </trkpt>
      <trkpt lat="46.13087" lon="5.90955">
        <ele>412.9</ele>
        <time>2022-09-26T15:45:11Z</time>
      </trkpt>
      <trkpt lat="46.13089" lon="5.90957">
        <ele>413</ele>
        <time>2022-09-26T15:45:12Z</time>
      </trkpt>
      <trkpt lat="46.13091" lon="5.90958">
        <ele>413</ele>
        <time>2022-09-26T15:45:13Z</time>
      </trkpt>
      <trkpt lat="46.13092" lon="5.90957">
        <ele>413</ele>
        <time>2022-09-26T15:45:14Z</time>
      </trkpt>
      <trkpt lat="46.13092" lon="5.90957">
        <ele>413</ele>
        <time>2022-09-26T15:45:15Z</time>
      </trkpt>
      <trkpt lat="46.13093" lon="5.90957">
        <ele>413</ele>
        <time>2022-09-26T15:45:16Z</time>
      </trkpt>
      <trkpt lat="46.13093" lon="5.90956">
        <ele>413</ele>
        <time>2022-09-26T15:45:17Z</time>
      </trkpt>
      <trkpt lat="46.13094" lon="5.90956">
        <ele>413.1</ele>
        <time>2022-09-26T15:45:18Z</time>
      </trkpt>
      <trkpt lat="46.13094" lon="5.90956">
        <ele>413.8</ele>
        <time>2022-09-26T15:45:19Z</time>
      </trkpt>
      <trkpt lat="46.13095" lon="5.90955">
        <ele>413.8</ele>
        <time>2022-09-26T15:45:20Z</time>
      </trkpt>
      <trkpt lat="46.13095" lon="5.90955">
        <ele>413.9</ele>
        <time>2022-09-26T15:45:21Z</time>
      </trkpt>
      <trkpt lat="46.13096" lon="5.90954">
        <ele>413.9</ele>
        <time>2022-09-26T15:45:22Z</time>
      </trkpt>
      <trkpt lat="46.13097" lon="5.90954">
        <ele>413.9</ele>
        <time>2022-09-26T15:45:23Z</time>
      </trkpt>
      <trkpt lat="46.13097" lon="5.90954">
        <ele>414</ele>
        <time>2022-09-26T15:45:28Z</time>
      </trkpt>
      <trkpt lat="46.13098" lon="5.90953">
        <ele>414</ele>
        <time>2022-09-26T15:45:29Z</time>
      </trkpt>
      <trkpt lat="46.13098" lon="5.90953">
        <ele>414</ele>
        <time>2022-09-26T15:45:30Z</time>
      </trkpt>
      <trkpt lat="46.13099" lon="5.90952">
        <ele>414.1</ele>
        <time>2022-09-26T15:45:31Z</time>
      </trkpt>
      <trkpt lat="46.13099" lon="5.90951">
        <ele>414.1</ele>
        <time>2022-09-26T15:45:32Z</time>
      </trkpt>
      <trkpt lat="46.131" lon="5.9095">
        <ele>414.2</ele>
        <time>2022-09-26T15:45:33Z</time>
      </trkpt>
      <trkpt lat="46.131" lon="5.90949">
        <ele>414.2</ele>
        <time>2022-09-26T15:45:34Z</time>
      </trkpt>
      <trkpt lat="46.13101" lon="5.90948">
        <ele>414.3</ele>
        <time>2022-09-26T15:45:35Z</time>
      </trkpt>
      <trkpt lat="46.13101" lon="5.90948">
        <ele>414.4</ele>
        <time>2022-09-26T15:45:36Z</time>
      </trkpt>
      <trkpt lat="46.13102" lon="5.90947">
        <ele>414.4</ele>
        <time>2022-09-26T15:45:37Z</time>
      </trkpt>
      <trkpt lat="46.13103" lon="5.90947">
        <ele>414.5</ele>
        <time>2022-09-26T15:45:38Z</time>
      </trkpt>
      <trkpt lat="46.13104" lon="5.90946">
        <ele>414.6</ele>
        <time>2022-09-26T15:45:39Z</time>
      </trkpt>
      <trkpt lat="46.13105" lon="5.90946">
        <ele>414.6</ele>
        <time>2022-09-26T15:45:40Z</time>
      </trkpt>
      <trkpt lat="46.13104" lon="5.90946">
        <ele>414.6</ele>
        <time>2022-09-26T15:45:41Z</time>
      </trkpt>
      <trkpt lat="46.13104" lon="5.90947">
        <ele>414.6</ele>
        <time>2022-09-26T15:45:42Z</time>
      </trkpt>
      <trkpt lat="46.13104" lon="5.90947">
        <ele>414.7</ele>
        <time>2022-09-26T15:45:43Z</time>
      </trkpt>
      <trkpt lat="46.13104" lon="5.90947">
        <ele>414.7</ele>
        <time>2022-09-26T15:45:44Z</time>
      </trkpt>
      <trkpt lat="46.13103" lon="5.90948">
        <ele>414.7</ele>
        <time>2022-09-26T15:45:45Z</time>
      </trkpt>
      <trkpt lat="46.13104" lon="5.90948">
        <ele>414.7</ele>
        <time>2022-09-26T15:45:46Z</time>
      </trkpt>
      <trkpt lat="46.13103" lon="5.90948">
        <ele>414.7</ele>
        <time>2022-09-26T15:45:47Z</time>
      </trkpt>
      <trkpt lat="46.13103" lon="5.90948">
        <ele>414.7</ele>
        <time>2022-09-26T15:45:48Z</time>
      </trkpt>
      <trkpt lat="46.13103" lon="5.90948">
        <ele>414.7</ele>
        <time>2022-09-26T15:45:49Z</time>
      </trkpt>
      <trkpt lat="46.13103" lon="5.90948">
        <ele>414.7</ele>
        <time>2022-09-26T15:45:50Z</time>
      </trkpt>
      <trkpt lat="46.13102" lon="5.90953">
        <ele>415</ele>
        <time>2022-09-26T15:46:57Z</time>
      </trkpt>
      <trkpt lat="46.13102" lon="5.90953">
        <ele>415</ele>
        <time>2022-09-26T15:46:58Z</time>
      </trkpt>
      <trkpt lat="46.13102" lon="5.90953">
        <ele>415</ele>
        <time>2022-09-26T15:46:59Z</time>
      </trkpt>
      <trkpt lat="46.13102" lon="5.90953">
        <ele>415</ele>
        <time>2022-09-26T15:47:00Z</time>
      </trkpt>
      <trkpt lat="46.13102" lon="5.90953">
        <ele>415</ele>
        <time>2022-09-26T15:47:01Z</time>
      </trkpt>
      <trkpt lat="46.13102" lon="5.90953">
        <ele>415</ele>
        <time>2022-09-26T15:47:02Z</time>
      </trkpt>
      <trkpt lat="46.13102" lon="5.90953">
        <ele>415</ele>
        <time>2022-09-26T15:47:03Z</time>
      </trkpt>
      <trkpt lat="46.13102" lon="5.90953">
        <ele>415</ele>
        <time>2022-09-26T15:47:04Z</time>
      </trkpt>
      <trkpt lat="46.13102" lon="5.90953">
        <ele>415</ele>
        <time>2022-09-26T15:47:05Z</time>
      </trkpt>
      <trkpt lat="46.13102" lon="5.90953">
        <ele>415</ele>
        <time>2022-09-26T15:47:06Z</time>
      </trkpt>
      <trkpt lat="46.13102" lon="5.90946">
        <ele>415.3</ele>
        <time>2022-09-26T15:47:55Z</time>
      </trkpt>
      <trkpt lat="46.13103" lon="5.90944">
        <ele>415.3</ele>
        <time>2022-09-26T15:47:56Z</time>
      </trkpt>
      <trkpt lat="46.13102" lon="5.90945">
        <ele>415.4</ele>
        <time>2022-09-26T15:47:57Z</time>
      </trkpt>
      <trkpt lat="46.13102" lon="5.90945">
        <ele>415.4</ele>
        <time>2022-09-26T15:47:59Z</time>
      </trkpt>
      <trkpt lat="46.13102" lon="5.90945">
        <ele>415.4</ele>
        <time>2022-09-26T15:48:00Z</time>
      </trkpt>
      <trkpt lat="46.13102" lon="5.90946">
        <ele>415.4</ele>
        <time>2022-09-26T15:48:01Z</time>
      </trkpt>
      <trkpt lat="46.13102" lon="5.90946">
        <ele>415.4</ele>
        <time>2022-09-26T15:48:02Z</time>
      </trkpt>
      <trkpt lat="46.13102" lon="5.90946">
        <ele>415.4</ele>
        <time>2022-09-26T15:48:03Z</time>
      </trkpt>
      <trkpt lat="46.13102" lon="5.90946">
        <ele>415.4</ele>
        <time>2022-09-26T15:48:04Z</time>
      </trkpt>
      <trkpt lat="46.13102" lon="5.90946">
        <ele>415.4</ele>
        <time>2022-09-26T15:48:05Z</time>
      </trkpt>
      <trkpt lat="46.13102" lon="5.90946">
        <ele>415.5</ele>
        <time>2022-09-26T15:48:06Z</time>
      </trkpt>
      <trkpt lat="46.13104" lon="5.9094">
        <ele>415.8</ele>
        <time>2022-09-26T15:48:18Z</time>
      </trkpt>
      <trkpt lat="46.13102" lon="5.90942">
        <ele>415.9</ele>
        <time>2022-09-26T15:48:19Z</time>
      </trkpt>
      <trkpt lat="46.13102" lon="5.90941">
        <ele>415.9</ele>
        <time>2022-09-26T15:48:20Z</time>
      </trkpt>
      <trkpt lat="46.13102" lon="5.90942">
        <ele>415.9</ele>
        <time>2022-09-26T15:48:21Z</time>
      </trkpt>
      <trkpt lat="46.13101" lon="5.90943">
        <ele>416</ele>
        <time>2022-09-26T15:48:22Z</time>
      </trkpt>
      <trkpt lat="46.13101" lon="5.90943">
        <ele>416</ele>
        <time>2022-09-26T15:48:23Z</time>
      </trkpt>
      <trkpt lat="46.13101" lon="5.90943">
        <ele>416.1</ele>
        <time>2022-09-26T15:48:24Z</time>
      </trkpt>
      <trkpt lat="46.13101" lon="5.90943">
        <ele>416.1</ele>
        <time>2022-09-26T15:48:25Z</time>
      </trkpt>
      <trkpt lat="46.13101" lon="5.90943">
        <ele>416.1</ele>
        <time>2022-09-26T15:48:26Z</time>
      </trkpt>
      <trkpt lat="46.13101" lon="5.90943">
        <ele>416.1</ele>
        <time>2022-09-26T15:48:27Z</time>
      </trkpt>
      <trkpt lat="46.131" lon="5.90941">
        <ele>416.1</ele>
        <time>2022-09-26T15:52:32Z</time>
      </trkpt>
      <trkpt lat="46.131" lon="5.9094">
        <ele>416.2</ele>
        <time>2022-09-26T15:52:33Z</time>
      </trkpt>
      <trkpt lat="46.13101" lon="5.90938">
        <ele>416.3</ele>
        <time>2022-09-26T15:52:34Z</time>
      </trkpt>
      <trkpt lat="46.13102" lon="5.9094">
        <ele>416.4</ele>
        <time>2022-09-26T15:52:35Z</time>
      </trkpt>
      <trkpt lat="46.13103" lon="5.9094">
        <ele>416.5</ele>
        <time>2022-09-26T15:52:36Z</time>
      </trkpt>
      <trkpt lat="46.13104" lon="5.9094">
        <ele>416.5</ele>
        <time>2022-09-26T15:52:37Z</time>
      </trkpt>
      <trkpt lat="46.13102" lon="5.90938">
        <ele>416.6</ele>
        <time>2022-09-26T15:52:38Z</time>
      </trkpt>
      <trkpt lat="46.13103" lon="5.90939">
        <ele>416.7</ele>
        <time>2022-09-26T15:52:39Z</time>
      </trkpt>
      <trkpt lat="46.13105" lon="5.90941">
        <ele>416.8</ele>
        <time>2022-09-26T15:52:40Z</time>
      </trkpt>
      <trkpt lat="46.13105" lon="5.90942">
        <ele>416.9</ele>
        <time>2022-09-26T15:52:41Z</time>
      </trkpt>
      <trkpt lat="46.13106" lon="5.90942">
        <ele>416.9</ele>
        <time>2022-09-26T15:52:42Z</time>
      </trkpt>
      <trkpt lat="46.13105" lon="5.90941">
        <ele>417</ele>
        <time>2022-09-26T15:52:43Z</time>
      </trkpt>
      <trkpt lat="46.13105" lon="5.90939">
        <ele>417</ele>
        <time>2022-09-26T15:52:52Z</time>
      </trkpt>
      <trkpt lat="46.13105" lon="5.90937">
        <ele>417.1</ele>
        <time>2022-09-26T15:52:53Z</time>
      </trkpt>
      <trkpt lat="46.13105" lon="5.90935">
        <ele>417.2</ele>
        <time>2022-09-26T15:52:54Z</time>
      </trkpt>
      <trkpt lat="46.13104" lon="5.90933">
        <ele>417.3</ele>
        <time>2022-09-26T15:52:55Z</time>
      </trkpt>
      <trkpt lat="46.13102" lon="5.90932">
        <ele>417.4</ele>
        <time>2022-09-26T15:52:56Z</time>
      </trkpt>
      <trkpt lat="46.13102" lon="5.90932">
        <ele>417.4</ele>
        <time>2022-09-26T15:52:57Z</time>
      </trkpt>
      <trkpt lat="46.13103" lon="5.90933">
        <ele>417.4</ele>
        <time>2022-09-26T15:52:58Z</time>
      </trkpt>
      <trkpt lat="46.13103" lon="5.90933">
        <ele>417.5</ele>
        <time>2022-09-26T15:52:59Z</time>
      </trkpt>
      <trkpt lat="46.13104" lon="5.90934">
        <ele>417.5</ele>
        <time>2022-09-26T15:53:00Z</time>
      </trkpt>
      <trkpt lat="46.13105" lon="5.90935">
        <ele>417.6</ele>
        <time>2022-09-26T15:53:01Z</time>
      </trkpt>
      <trkpt lat="46.13107" lon="5.90934">
        <ele>417.8</ele>
        <time>2022-09-26T15:53:02Z</time>
      </trkpt>
      <trkpt lat="46.13108" lon="5.90936">
        <ele>417.9</ele>
        <time>2022-09-26T15:53:03Z</time>
      </trkpt>
      <trkpt lat="46.1311" lon="5.90937">
        <ele>418</ele>
        <time>2022-09-26T15:53:04Z</time>
      </trkpt>
      <trkpt lat="46.1311" lon="5.90937">
        <ele>418</ele>
        <time>2022-09-26T15:53:05Z</time>
      </trkpt>
      <trkpt lat="46.13111" lon="5.90938">
        <ele>418</ele>
        <time>2022-09-26T15:53:06Z</time>
      </trkpt>
      <trkpt lat="46.13112" lon="5.90937">
        <ele>418.1</ele>
        <time>2022-09-26T15:53:07Z</time>
      </trkpt>
      <trkpt lat="46.13111" lon="5.90938">
        <ele>418.1</ele>
        <time>2022-09-26T15:53:08Z</time>
      </trkpt>
      <trkpt lat="46.1311" lon="5.90938">
        <ele>418.2</ele>
        <time>2022-09-26T15:53:09Z</time>
      </trkpt>
      <trkpt lat="46.13109" lon="5.90939">
        <ele>418.3</ele>
        <time>2022-09-26T15:53:46Z</time>
      </trkpt>
      <trkpt lat="46.13108" lon="5.9094">
        <ele>418.3</ele>
        <time>2022-09-26T15:53:47Z</time>
      </trkpt>
      <trkpt lat="46.13109" lon="5.9094">
        <ele>418.3</ele>
        <time>2022-09-26T15:53:48Z</time>
      </trkpt>
      <trkpt lat="46.13108" lon="5.90941">
        <ele>418.4</ele>
        <time>2022-09-26T15:53:49Z</time>
      </trkpt>
      <trkpt lat="46.13108" lon="5.90941">
        <ele>418.4</ele>
        <time>2022-09-26T15:53:50Z</time>
      </trkpt>
      <trkpt lat="46.13109" lon="5.90941">
        <ele>418.4</ele>
        <time>2022-09-26T15:53:51Z</time>
      </trkpt>
      <trkpt lat="46.13108" lon="5.9094">
        <ele>418.4</ele>
        <time>2022-09-26T15:53:52Z</time>
      </trkpt>
      <trkpt lat="46.13109" lon="5.90941">
        <ele>418.5</ele>
        <time>2022-09-26T15:53:53Z</time>
      </trkpt>
      <trkpt lat="46.13109" lon="5.90941">
        <ele>418.5</ele>
        <time>2022-09-26T15:53:54Z</time>
      </trkpt>
      <trkpt lat="46.13108" lon="5.90941">
        <ele>418.5</ele>
        <time>2022-09-26T15:53:55Z</time>
      </trkpt>
      <trkpt lat="46.13108" lon="5.90941">
        <ele>418.5</ele>
        <time>2022-09-26T15:53:56Z</time>
      </trkpt>
      <trkpt lat="46.13109" lon="5.90942">
        <ele>418.6</ele>
        <time>2022-09-26T15:53:57Z</time>
      </trkpt>
      <trkpt lat="46.13109" lon="5.90936">
        <ele>418.8</ele>
        <time>2022-09-26T15:54:55Z</time>
      </trkpt>
      <trkpt lat="46.13109" lon="5.90936">
        <ele>418.8</ele>
        <time>2022-09-26T15:54:56Z</time>
      </trkpt>
      <trkpt lat="46.13109" lon="5.90936">
        <ele>418.9</ele>
        <time>2022-09-26T15:54:57Z</time>
      </trkpt>
      <trkpt lat="46.1311" lon="5.90934">
        <ele>418.9</ele>
        <time>2022-09-26T15:54:58Z</time>
      </trkpt>
      <trkpt lat="46.1311" lon="5.90935">
        <ele>419</ele>
        <time>2022-09-26T15:54:59Z</time>
      </trkpt>
      <trkpt lat="46.13111" lon="5.90936">
        <ele>419.1</ele>
        <time>2022-09-26T15:55:00Z</time>
      </trkpt>
      <trkpt lat="46.13112" lon="5.90938">
        <ele>419.1</ele>
        <time>2022-09-26T15:55:01Z</time>
      </trkpt>
      <trkpt lat="46.13113" lon="5.90941">
        <ele>419.3</ele>
        <time>2022-09-26T15:55:18Z</time>
      </trkpt>
      <trkpt lat="46.13114" lon="5.90941">
        <ele>419.3</ele>
        <time>2022-09-26T15:55:19Z</time>
      </trkpt>
      <trkpt lat="46.13113" lon="5.90941">
        <ele>419.4</ele>
        <time>2022-09-26T15:55:20Z</time>
      </trkpt>
      <trkpt lat="46.13113" lon="5.90941">
        <ele>419.4</ele>
        <time>2022-09-26T15:55:21Z</time>
      </trkpt>
      <trkpt lat="46.13112" lon="5.90941">
        <ele>419.4</ele>
        <time>2022-09-26T15:55:22Z</time>
      </trkpt>
      <trkpt lat="46.13113" lon="5.90941">
        <ele>419.4</ele>
        <time>2022-09-26T15:55:23Z</time>
      </trkpt>
      <trkpt lat="46.1301" lon="5.90844">
        <ele>414.2</ele>
        <time>2022-09-27T10:09:19Z</time>
      </trkpt>
      <trkpt lat="46.1301" lon="5.90844">
        <ele>414.2</ele>
        <time>2022-09-27T10:09:20Z</time>
      </trkpt>
      <trkpt lat="46.13009" lon="5.90843">
        <ele>414.2</ele>
        <time>2022-09-27T10:09:21Z</time>
      </trkpt>
      <trkpt lat="46.13009" lon="5.90842">
        <ele>414.3</ele>
        <time>2022-09-27T10:09:22Z</time>
      </trkpt>
      <trkpt lat="46.13007" lon="5.90842">
        <ele>414.4</ele>
        <time>2022-09-27T10:09:23Z</time>
      </trkpt>
      <trkpt lat="46.13007" lon="5.9084">
        <ele>414.4</ele>
        <time>2022-09-27T10:09:24Z</time>
      </trkpt>
      <trkpt lat="46.13006" lon="5.90838">
        <ele>414.5</ele>
        <time>2022-09-27T10:09:25Z</time>
      </trkpt>
      <trkpt lat="46.13007" lon="5.90837">
        <ele>414.6</ele>
        <time>2022-09-27T10:09:26Z</time>
      </trkpt>
      <trkpt lat="46.13007" lon="5.90837">
        <ele>414.6</ele>
        <time>2022-09-27T10:09:27Z</time>
      </trkpt>
      <trkpt lat="46.13007" lon="5.90837">
        <ele>414.6</ele>
        <time>2022-09-27T10:09:28Z</time>
      </trkpt>
      <trkpt lat="46.13008" lon="5.90837">
        <ele>414.7</ele>
        <time>2022-09-27T10:09:29Z</time>
      </trkpt>
      <trkpt lat="46.13008" lon="5.90837">
        <ele>414.7</ele>
        <time>2022-09-27T10:09:30Z</time>
      </trkpt>
      <trkpt lat="46.13008" lon="5.90837">
        <ele>414.7</ele>
        <time>2022-09-27T10:09:31Z</time>
      </trkpt>
      <trkpt lat="46.13008" lon="5.90836">
        <ele>414.8</ele>
        <time>2022-09-27T10:09:32Z</time>
      </trkpt>
      <trkpt lat="46.13011" lon="5.90848">
        <ele>413.8</ele>
        <time>2022-09-27T10:10:10Z</time>
      </trkpt>
      <trkpt lat="46.13011" lon="5.90849">
        <ele>413.7</ele>
        <time>2022-09-27T10:10:11Z</time>
      </trkpt>
      <trkpt lat="46.13011" lon="5.9085">
        <ele>413.5</ele>
        <time>2022-09-27T10:10:12Z</time>
      </trkpt>
      <trkpt lat="46.1301" lon="5.90851">
        <ele>413.4</ele>
        <time>2022-09-27T10:10:13Z</time>
      </trkpt>
      <trkpt lat="46.1301" lon="5.90851">
        <ele>413.3</ele>
        <time>2022-09-27T10:10:14Z</time>
      </trkpt>
      <trkpt lat="46.1301" lon="5.90852">
        <ele>413.2</ele>
        <time>2022-09-27T10:10:15Z</time>
      </trkpt>
      <trkpt lat="46.13009" lon="5.90853">
        <ele>413.1</ele>
        <time>2022-09-27T10:10:16Z</time>
      </trkpt>
      <trkpt lat="46.13009" lon="5.90854">
        <ele>413</ele>
        <time>2022-09-27T10:10:17Z</time>
      </trkpt>
      <trkpt lat="46.13009" lon="5.90855">
        <ele>412.8</ele>
        <time>2022-09-27T10:10:18Z</time>
      </trkpt>
      <trkpt lat="46.13008" lon="5.90855">
        <ele>412.7</ele>
        <time>2022-09-27T10:10:19Z</time>
      </trkpt>
      <trkpt lat="46.13008" lon="5.90856">
        <ele>412.6</ele>
        <time>2022-09-27T10:10:23Z</time>
      </trkpt>
      <trkpt lat="46.13008" lon="5.90857">
        <ele>412.5</ele>
        <time>2022-09-27T10:10:24Z</time>
      </trkpt>
      <trkpt lat="46.13007" lon="5.90859">
        <ele>412.1</ele>
        <time>2022-09-27T10:10:25Z</time>
      </trkpt>
      <trkpt lat="46.13006" lon="5.90862">
        <ele>411.7</ele>
        <time>2022-09-27T10:10:27Z</time>
      </trkpt>
      <trkpt lat="46.13004" lon="5.90866">
        <ele>411</ele>
        <time>2022-09-27T10:10:28Z</time>
      </trkpt>
      <trkpt lat="46.13003" lon="5.90868">
        <ele>410.7</ele>
        <time>2022-09-27T10:10:29Z</time>
      </trkpt>
      <trkpt lat="46.13001" lon="5.90872">
        <ele>410</ele>
        <time>2022-09-27T10:10:30Z</time>
      </trkpt>
      <trkpt lat="46.13" lon="5.90873">
        <ele>409.8</ele>
        <time>2022-09-27T10:10:31Z</time>
      </trkpt>
      <trkpt lat="46.12999" lon="5.90878">
        <ele>409</ele>
        <time>2022-09-27T10:10:32Z</time>
      </trkpt>
      <trkpt lat="46.12998" lon="5.9088">
        <ele>408.7</ele>
        <time>2022-09-27T10:10:33Z</time>
      </trkpt>
      <trkpt lat="46.12997" lon="5.90884">
        <ele>408</ele>
        <time>2022-09-27T10:10:34Z</time>
      </trkpt>
      <trkpt lat="46.12995" lon="5.90888">
        <ele>407.2</ele>
        <time>2022-09-27T10:10:35Z</time>
      </trkpt>
      <trkpt lat="46.12993" lon="5.90892">
        <ele>406.6</ele>
        <time>2022-09-27T10:10:36Z</time>
      </trkpt>
      <trkpt lat="46.12991" lon="5.90896">
        <ele>405.9</ele>
        <time>2022-09-27T10:10:37Z</time>
      </trkpt>
      <trkpt lat="46.1299" lon="5.90898">
        <ele>405.6</ele>
        <time>2022-09-27T10:10:38Z</time>
      </trkpt>
      <trkpt lat="46.12989" lon="5.90902">
        <ele>405</ele>
        <time>2022-09-27T10:10:39Z</time>
      </trkpt>
      <trkpt lat="46.12987" lon="5.90906">
        <ele>404.3</ele>
        <time>2022-09-27T10:10:40Z</time>
      </trkpt>
      <trkpt lat="46.12985" lon="5.9091">
        <ele>403.7</ele>
        <time>2022-09-27T10:10:41Z</time>
      </trkpt>
      <trkpt lat="46.12984" lon="5.90914">
        <ele>403.1</ele>
        <time>2022-09-27T10:10:42Z</time>
      </trkpt>
      <trkpt lat="46.12983" lon="5.90916">
        <ele>402.9</ele>
        <time>2022-09-27T10:10:43Z</time>
      </trkpt>
      <trkpt lat="46.12982" lon="5.9092">
        <ele>402.3</ele>
        <time>2022-09-27T10:10:44Z</time>
      </trkpt>
      <trkpt lat="46.12982" lon="5.90922">
        <ele>402.2</ele>
        <time>2022-09-27T10:10:45Z</time>
      </trkpt>
      <trkpt lat="46.12981" lon="5.90926">
        <ele>401.6</ele>
        <time>2022-09-27T10:10:46Z</time>
      </trkpt>
      <trkpt lat="46.1298" lon="5.90931">
        <ele>401</ele>
        <time>2022-09-27T10:10:47Z</time>
      </trkpt>
      <trkpt lat="46.1298" lon="5.90933">
        <ele>400.8</ele>
        <time>2022-09-27T10:10:48Z</time>
      </trkpt>
      <trkpt lat="46.12979" lon="5.90937">
        <ele>400.3</ele>
        <time>2022-09-27T10:10:49Z</time>
      </trkpt>
      <trkpt lat="46.12978" lon="5.90939">
        <ele>400.1</ele>
        <time>2022-09-27T10:10:50Z</time>
      </trkpt>
      <trkpt lat="46.12977" lon="5.90944">
        <ele>399.4</ele>
        <time>2022-09-27T10:10:51Z</time>
      </trkpt>
      <trkpt lat="46.12977" lon="5.90947">
        <ele>399.2</ele>
        <time>2022-09-27T10:10:52Z</time>
      </trkpt>
      <trkpt lat="46.12976" lon="5.9095">
        <ele>398.7</ele>
        <time>2022-09-27T10:10:53Z</time>
      </trkpt>
      <trkpt lat="46.12974" lon="5.90955">
        <ele>398.1</ele>
        <time>2022-09-27T10:10:54Z</time>
      </trkpt>
      <trkpt lat="46.12972" lon="5.90958">
        <ele>397.6</ele>
        <time>2022-09-27T10:10:55Z</time>
      </trkpt>
      <trkpt lat="46.12972" lon="5.9096">
        <ele>397.5</ele>
        <time>2022-09-27T10:10:56Z</time>
      </trkpt>
      <trkpt lat="46.12971" lon="5.90962">
        <ele>397.2</ele>
        <time>2022-09-27T10:10:57Z</time>
      </trkpt>
      <trkpt lat="46.1297" lon="5.90964">
        <ele>396.9</ele>
        <time>2022-09-27T10:10:58Z</time>
      </trkpt>
      <trkpt lat="46.12967" lon="5.90966">
        <ele>396.4</ele>
        <time>2022-09-27T10:10:59Z</time>
      </trkpt>
      <trkpt lat="46.12965" lon="5.90968">
        <ele>396.2</ele>
        <time>2022-09-27T10:11:00Z</time>
      </trkpt>
      <trkpt lat="46.12963" lon="5.90969">
        <ele>395.9</ele>
        <time>2022-09-27T10:11:01Z</time>
      </trkpt>
      <trkpt lat="46.1296" lon="5.90971">
        <ele>395.4</ele>
        <time>2022-09-27T10:11:02Z</time>
      </trkpt>
      <trkpt lat="46.12958" lon="5.90971">
        <ele>395.2</ele>
        <time>2022-09-27T10:11:03Z</time>
      </trkpt>
      <trkpt lat="46.12956" lon="5.9097">
        <ele>394.9</ele>
        <time>2022-09-27T10:11:04Z</time>
      </trkpt>
      <trkpt lat="46.12952" lon="5.90969">
        <ele>394.4</ele>
        <time>2022-09-27T10:11:05Z</time>
      </trkpt>
      <trkpt lat="46.12949" lon="5.90967">
        <ele>394</ele>
        <time>2022-09-27T10:11:06Z</time>
      </trkpt>
      <trkpt lat="46.12948" lon="5.90966">
        <ele>393.8</ele>
        <time>2022-09-27T10:11:07Z</time>
      </trkpt>
      <trkpt lat="46.12945" lon="5.90963">
        <ele>393.3</ele>
        <time>2022-09-27T10:11:08Z</time>
      </trkpt>
      <trkpt lat="46.12944" lon="5.90962">
        <ele>393.2</ele>
        <time>2022-09-27T10:11:09Z</time>
      </trkpt>
      <trkpt lat="46.1294" lon="5.90959">
        <ele>392.6</ele>
        <time>2022-09-27T10:11:10Z</time>
      </trkpt>
      <trkpt lat="46.12939" lon="5.90958">
        <ele>392.4</ele>
        <time>2022-09-27T10:11:11Z</time>
      </trkpt>
      <trkpt lat="46.12936" lon="5.90956">
        <ele>391.9</ele>
        <time>2022-09-27T10:11:12Z</time>
      </trkpt>
      <trkpt lat="46.12933" lon="5.90951">
        <ele>391.4</ele>
        <time>2022-09-27T10:11:13Z</time>
      </trkpt>
      <trkpt lat="46.1293" lon="5.90947">
        <ele>390.8</ele>
        <time>2022-09-27T10:11:14Z</time>
      </trkpt>
      <trkpt lat="46.12929" lon="5.90946">
        <ele>390.5</ele>
        <time>2022-09-27T10:11:15Z</time>
      </trkpt>
      <trkpt lat="46.12925" lon="5.90944">
        <ele>390</ele>
        <time>2022-09-27T10:11:16Z</time>
      </trkpt>
      <trkpt lat="46.12923" lon="5.90942">
        <ele>389.5</ele>
        <time>2022-09-27T10:11:17Z</time>
      </trkpt>
      <trkpt lat="46.1292" lon="5.9094">
        <ele>389</ele>
        <time>2022-09-27T10:11:18Z</time>
      </trkpt>
      <trkpt lat="46.12917" lon="5.90937">
        <ele>388.4</ele>
        <time>2022-09-27T10:11:19Z</time>
      </trkpt>
      <trkpt lat="46.12916" lon="5.90937">
        <ele>388.2</ele>
        <time>2022-09-27T10:11:20Z</time>
      </trkpt>
      <trkpt lat="46.12913" lon="5.90935">
        <ele>387.6</ele>
        <time>2022-09-27T10:11:21Z</time>
      </trkpt>
      <trkpt lat="46.12912" lon="5.90934">
        <ele>387.4</ele>
        <time>2022-09-27T10:11:22Z</time>
      </trkpt>
      <trkpt lat="46.12909" lon="5.90934">
        <ele>386.9</ele>
        <time>2022-09-27T10:11:23Z</time>
      </trkpt>
      <trkpt lat="46.12908" lon="5.90934">
        <ele>386.6</ele>
        <time>2022-09-27T10:11:24Z</time>
      </trkpt>
      <trkpt lat="46.12905" lon="5.90935">
        <ele>385.9</ele>
        <time>2022-09-27T10:11:25Z</time>
      </trkpt>
      <trkpt lat="46.12904" lon="5.90935">
        <ele>385.6</ele>
        <time>2022-09-27T10:11:26Z</time>
      </trkpt>
      <trkpt lat="46.12901" lon="5.90939">
        <ele>384.8</ele>
        <time>2022-09-27T10:11:27Z</time>
      </trkpt>
      <trkpt lat="46.129" lon="5.90941">
        <ele>384.5</ele>
        <time>2022-09-27T10:11:28Z</time>
      </trkpt>
      <trkpt lat="46.12899" lon="5.90944">
        <ele>383.8</ele>
        <time>2022-09-27T10:11:29Z</time>
      </trkpt>
      <trkpt lat="46.12897" lon="5.90947">
        <ele>383.2</ele>
        <time>2022-09-27T10:11:30Z</time>
      </trkpt>
      <trkpt lat="46.12896" lon="5.90952">
        <ele>382.4</ele>
        <time>2022-09-27T10:11:31Z</time>
      </trkpt>
      <trkpt lat="46.12894" lon="5.90957">
        <ele>381.6</ele>
        <time>2022-09-27T10:11:32Z</time>
      </trkpt>
      <trkpt lat="46.12891" lon="5.90962">
        <ele>380.9</ele>
        <time>2022-09-27T10:11:33Z</time>
      </trkpt>
      <trkpt lat="46.12888" lon="5.90966">
        <ele>380.1</ele>
        <time>2022-09-27T10:11:34Z</time>
      </trkpt>
      <trkpt lat="46.12885" lon="5.90973">
        <ele>379.3</ele>
        <time>2022-09-27T10:11:35Z</time>
      </trkpt>
      <trkpt lat="46.12882" lon="5.90977">
        <ele>378.7</ele>
        <time>2022-09-27T10:11:36Z</time>
      </trkpt>
      <trkpt lat="46.12879" lon="5.9098">
        <ele>378.1</ele>
        <time>2022-09-27T10:11:37Z</time>
      </trkpt>
      <trkpt lat="46.12875" lon="5.90984">
        <ele>377.6</ele>
        <time>2022-09-27T10:11:38Z</time>
      </trkpt>
      <trkpt lat="46.12872" lon="5.90987">
        <ele>377</ele>
        <time>2022-09-27T10:11:39Z</time>
      </trkpt>
      <trkpt lat="46.1287" lon="5.90991">
        <ele>376.5</ele>
        <time>2022-09-27T10:11:40Z</time>
      </trkpt>
      <trkpt lat="46.12868" lon="5.90995">
        <ele>376.1</ele>
        <time>2022-09-27T10:11:41Z</time>
      </trkpt>
      <trkpt lat="46.12867" lon="5.90996">
        <ele>375.9</ele>
        <time>2022-09-27T10:11:42Z</time>
      </trkpt>
      <trkpt lat="46.12865" lon="5.91">
        <ele>375.5</ele>
        <time>2022-09-27T10:11:43Z</time>
      </trkpt>
      <trkpt lat="46.12864" lon="5.91005">
        <ele>374.9</ele>
        <time>2022-09-27T10:11:44Z</time>
      </trkpt>
      <trkpt lat="46.12863" lon="5.91009">
        <ele>374.4</ele>
        <time>2022-09-27T10:11:45Z</time>
      </trkpt>
      <trkpt lat="46.12861" lon="5.91015">
        <ele>373.7</ele>
        <time>2022-09-27T10:11:46Z</time>
      </trkpt>
      <trkpt lat="46.1286" lon="5.91022">
        <ele>372.9</ele>
        <time>2022-09-27T10:11:47Z</time>
      </trkpt>
      <trkpt lat="46.12857" lon="5.91028">
        <ele>372.1</ele>
        <time>2022-09-27T10:11:48Z</time>
      </trkpt>
      <trkpt lat="46.12856" lon="5.91036">
        <ele>371.2</ele>
        <time>2022-09-27T10:11:49Z</time>
      </trkpt>
      <trkpt lat="46.12855" lon="5.91044">
        <ele>370.2</ele>
        <time>2022-09-27T10:11:50Z</time>
      </trkpt>
      <trkpt lat="46.12855" lon="5.91052">
        <ele>369.3</ele>
        <time>2022-09-27T10:11:51Z</time>
      </trkpt>
      <trkpt lat="46.12854" lon="5.91059">
        <ele>368.6</ele>
        <time>2022-09-27T10:11:52Z</time>
      </trkpt>
      <trkpt lat="46.12853" lon="5.91065">
        <ele>368</ele>
        <time>2022-09-27T10:11:53Z</time>
      </trkpt>
      <trkpt lat="46.12852" lon="5.91071">
        <ele>367.4</ele>
        <time>2022-09-27T10:11:54Z</time>
      </trkpt>
      <trkpt lat="46.1285" lon="5.91076">
        <ele>366.8</ele>
        <time>2022-09-27T10:11:55Z</time>
      </trkpt>
      <trkpt lat="46.12849" lon="5.9108">
        <ele>366.5</ele>
        <time>2022-09-27T10:11:56Z</time>
      </trkpt>
      <trkpt lat="46.12847" lon="5.91084">
        <ele>366.3</ele>
        <time>2022-09-27T10:11:57Z</time>
      </trkpt>
      <trkpt lat="46.12845" lon="5.91086">
        <ele>366.1</ele>
        <time>2022-09-27T10:11:58Z</time>
      </trkpt>
      <trkpt lat="46.12845" lon="5.91086">
        <ele>366.1</ele>
        <time>2022-09-27T10:11:59Z</time>
      </trkpt>
      <trkpt lat="46.12845" lon="5.91086">
        <ele>366</ele>
        <time>2022-09-27T10:12:00Z</time>
      </trkpt>
      <trkpt lat="46.12844" lon="5.91087">
        <ele>365.9</ele>
        <time>2022-09-27T10:12:01Z</time>
      </trkpt>
      <trkpt lat="46.12843" lon="5.91087">
        <ele>365.8</ele>
        <time>2022-09-27T10:12:02Z</time>
      </trkpt>
      <trkpt lat="46.12842" lon="5.91088">
        <ele>365.8</ele>
        <time>2022-09-27T10:12:03Z</time>
      </trkpt>
      <trkpt lat="46.12841" lon="5.91088">
        <ele>365.7</ele>
        <time>2022-09-27T10:12:04Z</time>
      </trkpt>
      <trkpt lat="46.12839" lon="5.91088">
        <ele>365.6</ele>
        <time>2022-09-27T10:12:05Z</time>
      </trkpt>
      <trkpt lat="46.12838" lon="5.91089">
        <ele>365.5</ele>
        <time>2022-09-27T10:12:06Z</time>
      </trkpt>
      <trkpt lat="46.12837" lon="5.91089">
        <ele>365.2</ele>
        <time>2022-09-27T10:12:07Z</time>
      </trkpt>
      <trkpt lat="46.12836" lon="5.9109">
        <ele>365.2</ele>
        <time>2022-09-27T10:12:08Z</time>
      </trkpt>
      <trkpt lat="46.12835" lon="5.9109">
        <ele>365.2</ele>
        <time>2022-09-27T10:12:28Z</time>
      </trkpt>
      <trkpt lat="46.12834" lon="5.91091">
        <ele>365.1</ele>
        <time>2022-09-27T10:12:29Z</time>
      </trkpt>
      <trkpt lat="46.12833" lon="5.91091">
        <ele>365.1</ele>
        <time>2022-09-27T10:12:30Z</time>
      </trkpt>
      <trkpt lat="46.12831" lon="5.91095">
        <ele>364.9</ele>
        <time>2022-09-27T10:12:31Z</time>
      </trkpt>
      <trkpt lat="46.12827" lon="5.91098">
        <ele>364.6</ele>
        <time>2022-09-27T10:12:32Z</time>
      </trkpt>
      <trkpt lat="46.12824" lon="5.91103">
        <ele>364.3</ele>
        <time>2022-09-27T10:12:33Z</time>
      </trkpt>
      <trkpt lat="46.1282" lon="5.91106">
        <ele>364.1</ele>
        <time>2022-09-27T10:12:34Z</time>
      </trkpt>
      <trkpt lat="46.12816" lon="5.9111">
        <ele>363.7</ele>
        <time>2022-09-27T10:12:35Z</time>
      </trkpt>
      <trkpt lat="46.12812" lon="5.91112">
        <ele>363.4</ele>
        <time>2022-09-27T10:12:36Z</time>
      </trkpt>
      <trkpt lat="46.12806" lon="5.91112">
        <ele>363</ele>
        <time>2022-09-27T10:12:37Z</time>
      </trkpt>
      <trkpt lat="46.12802" lon="5.91113">
        <ele>362.7</ele>
        <time>2022-09-27T10:12:38Z</time>
      </trkpt>
      <trkpt lat="46.12797" lon="5.91113">
        <ele>362.4</ele>
        <time>2022-09-27T10:12:39Z</time>
      </trkpt>
      <trkpt lat="46.12792" lon="5.91111">
        <ele>362</ele>
        <time>2022-09-27T10:12:40Z</time>
      </trkpt>
      <trkpt lat="46.12786" lon="5.91108">
        <ele>361.7</ele>
        <time>2022-09-27T10:12:41Z</time>
      </trkpt>
      <trkpt lat="46.12782" lon="5.91103">
        <ele>361.3</ele>
        <time>2022-09-27T10:12:42Z</time>
      </trkpt>
      <trkpt lat="46.12779" lon="5.91096">
        <ele>361</ele>
        <time>2022-09-27T10:12:43Z</time>
      </trkpt>
      <trkpt lat="46.12776" lon="5.91092">
        <ele>360.7</ele>
        <time>2022-09-27T10:12:44Z</time>
      </trkpt>
      <trkpt lat="46.12775" lon="5.91082">
        <ele>360.3</ele>
        <time>2022-09-27T10:12:45Z</time>
      </trkpt>
      <trkpt lat="46.12772" lon="5.91075">
        <ele>360</ele>
        <time>2022-09-27T10:12:46Z</time>
      </trkpt>
      <trkpt lat="46.12771" lon="5.91066">
        <ele>359.8</ele>
        <time>2022-09-27T10:12:47Z</time>
      </trkpt>
      <trkpt lat="46.12769" lon="5.91058">
        <ele>359.5</ele>
        <time>2022-09-27T10:12:48Z</time>
      </trkpt>
      <trkpt lat="46.12768" lon="5.91048">
        <ele>359.3</ele>
        <time>2022-09-27T10:12:49Z</time>
      </trkpt>
      <trkpt lat="46.12766" lon="5.91039">
        <ele>359.1</ele>
        <time>2022-09-27T10:12:50Z</time>
      </trkpt>
      <trkpt lat="46.12765" lon="5.9103">
        <ele>359</ele>
        <time>2022-09-27T10:12:51Z</time>
      </trkpt>
      <trkpt lat="46.12763" lon="5.91021">
        <ele>358.9</ele>
        <time>2022-09-27T10:12:52Z</time>
      </trkpt>
      <trkpt lat="46.12761" lon="5.91013">
        <ele>358.8</ele>
        <time>2022-09-27T10:12:53Z</time>
      </trkpt>
      <trkpt lat="46.12759" lon="5.91005">
        <ele>358.7</ele>
        <time>2022-09-27T10:12:54Z</time>
      </trkpt>
      <trkpt lat="46.12757" lon="5.90998">
        <ele>358.7</ele>
        <time>2022-09-27T10:12:55Z</time>
      </trkpt>
      <trkpt lat="46.12754" lon="5.9099">
        <ele>358.6</ele>
        <time>2022-09-27T10:12:56Z</time>
      </trkpt>
      <trkpt lat="46.12751" lon="5.90983">
        <ele>358.6</ele>
        <time>2022-09-27T10:12:57Z</time>
      </trkpt>
      <trkpt lat="46.12749" lon="5.90976">
        <ele>358.5</ele>
        <time>2022-09-27T10:12:58Z</time>
      </trkpt>
      <trkpt lat="46.12746" lon="5.90969">
        <ele>358.5</ele>
        <time>2022-09-27T10:12:59Z</time>
      </trkpt>
      <trkpt lat="46.12743" lon="5.90963">
        <ele>358.5</ele>
        <time>2022-09-27T10:13:00Z</time>
      </trkpt>
      <trkpt lat="46.12739" lon="5.90956">
        <ele>358.5</ele>
        <time>2022-09-27T10:13:01Z</time>
      </trkpt>
      <trkpt lat="46.12735" lon="5.90949">
        <ele>358.5</ele>
        <time>2022-09-27T10:13:02Z</time>
      </trkpt>
      <trkpt lat="46.12732" lon="5.90944">
        <ele>358.5</ele>
        <time>2022-09-27T10:13:03Z</time>
      </trkpt>
      <trkpt lat="46.12728" lon="5.90937">
        <ele>358.5</ele>
        <time>2022-09-27T10:13:04Z</time>
      </trkpt>
      <trkpt lat="46.12724" lon="5.90931">
        <ele>358.5</ele>
        <time>2022-09-27T10:13:05Z</time>
      </trkpt>
      <trkpt lat="46.1272" lon="5.90925">
        <ele>358.5</ele>
        <time>2022-09-27T10:13:06Z</time>
      </trkpt>
      <trkpt lat="46.12717" lon="5.90918">
        <ele>358.5</ele>
        <time>2022-09-27T10:13:07Z</time>
      </trkpt>
      <trkpt lat="46.12713" lon="5.90913">
        <ele>358.4</ele>
        <time>2022-09-27T10:13:08Z</time>
      </trkpt>
      <trkpt lat="46.12708" lon="5.90906">
        <ele>358.4</ele>
        <time>2022-09-27T10:13:09Z</time>
      </trkpt>
      <trkpt lat="46.12705" lon="5.909">
        <ele>358.4</ele>
        <time>2022-09-27T10:13:10Z</time>
      </trkpt>
      <trkpt lat="46.127" lon="5.90895">
        <ele>358.4</ele>
        <time>2022-09-27T10:13:11Z</time>
      </trkpt>
      <trkpt lat="46.12696" lon="5.90889">
        <ele>358.3</ele>
        <time>2022-09-27T10:13:12Z</time>
      </trkpt>
      <trkpt lat="46.12691" lon="5.90885">
        <ele>358.3</ele>
        <time>2022-09-27T10:13:13Z</time>
      </trkpt>
      <trkpt lat="46.12686" lon="5.9088">
        <ele>358.3</ele>
        <time>2022-09-27T10:13:14Z</time>
      </trkpt>
      <trkpt lat="46.12682" lon="5.90876">
        <ele>358.3</ele>
        <time>2022-09-27T10:13:15Z</time>
      </trkpt>
      <trkpt lat="46.12677" lon="5.90871">
        <ele>358.2</ele>
        <time>2022-09-27T10:13:16Z</time>
      </trkpt>
      <trkpt lat="46.12672" lon="5.90868">
        <ele>358.2</ele>
        <time>2022-09-27T10:13:17Z</time>
      </trkpt>
      <trkpt lat="46.12668" lon="5.90864">
        <ele>358.1</ele>
        <time>2022-09-27T10:13:18Z</time>
      </trkpt>
      <trkpt lat="46.12663" lon="5.90859">
        <ele>358.1</ele>
        <time>2022-09-27T10:13:19Z</time>
      </trkpt>
      <trkpt lat="46.12658" lon="5.90855">
        <ele>358</ele>
        <time>2022-09-27T10:13:20Z</time>
      </trkpt>
      <trkpt lat="46.12653" lon="5.90852">
        <ele>357.9</ele>
        <time>2022-09-27T10:13:21Z</time>
      </trkpt>
      <trkpt lat="46.12647" lon="5.90848">
        <ele>357.8</ele>
        <time>2022-09-27T10:13:22Z</time>
      </trkpt>
      <trkpt lat="46.12642" lon="5.90843">
        <ele>357.7</ele>
        <time>2022-09-27T10:13:23Z</time>
      </trkpt>
      <trkpt lat="46.12636" lon="5.9084">
        <ele>357.5</ele>
        <time>2022-09-27T10:13:24Z</time>
      </trkpt>
      <trkpt lat="46.12631" lon="5.90838">
        <ele>357.4</ele>
        <time>2022-09-27T10:13:25Z</time>
      </trkpt>
      <trkpt lat="46.12626" lon="5.90832">
        <ele>357.3</ele>
        <time>2022-09-27T10:13:26Z</time>
      </trkpt>
      <trkpt lat="46.12621" lon="5.90828">
        <ele>357.1</ele>
        <time>2022-09-27T10:13:27Z</time>
      </trkpt>
      <trkpt lat="46.12616" lon="5.90825">
        <ele>357</ele>
        <time>2022-09-27T10:13:28Z</time>
      </trkpt>
      <trkpt lat="46.12609" lon="5.90821">
        <ele>356.8</ele>
        <time>2022-09-27T10:13:29Z</time>
      </trkpt>
      <trkpt lat="46.12604" lon="5.90816">
        <ele>356.7</ele>
        <time>2022-09-27T10:13:30Z</time>
      </trkpt>
      <trkpt lat="46.12599" lon="5.90811">
        <ele>356.6</ele>
        <time>2022-09-27T10:13:31Z</time>
      </trkpt>
      <trkpt lat="46.12594" lon="5.90807">
        <ele>356.5</ele>
        <time>2022-09-27T10:13:32Z</time>
      </trkpt>
      <trkpt lat="46.12588" lon="5.90804">
        <ele>356.3</ele>
        <time>2022-09-27T10:13:33Z</time>
      </trkpt>
      <trkpt lat="46.12583" lon="5.90798">
        <ele>356.2</ele>
        <time>2022-09-27T10:13:34Z</time>
      </trkpt>
      <trkpt lat="46.12577" lon="5.90794">
        <ele>356.1</ele>
        <time>2022-09-27T10:13:35Z</time>
      </trkpt>
      <trkpt lat="46.12571" lon="5.90789">
        <ele>355.9</ele>
        <time>2022-09-27T10:13:36Z</time>
      </trkpt>
      <trkpt lat="46.12566" lon="5.90785">
        <ele>355.8</ele>
        <time>2022-09-27T10:13:37Z</time>
      </trkpt>
      <trkpt lat="46.12561" lon="5.9078">
        <ele>355.7</ele>
        <time>2022-09-27T10:13:38Z</time>
      </trkpt>
      <trkpt lat="46.12556" lon="5.90776">
        <ele>355.5</ele>
        <time>2022-09-27T10:13:39Z</time>
      </trkpt>
      <trkpt lat="46.1255" lon="5.90771">
        <ele>355.4</ele>
        <time>2022-09-27T10:13:40Z</time>
      </trkpt>
      <trkpt lat="46.12545" lon="5.90766">
        <ele>355.2</ele>
        <time>2022-09-27T10:13:41Z</time>
      </trkpt>
      <trkpt lat="46.1254" lon="5.90762">
        <ele>355.1</ele>
        <time>2022-09-27T10:13:42Z</time>
      </trkpt>
      <trkpt lat="46.12535" lon="5.90757">
        <ele>354.9</ele>
        <time>2022-09-27T10:13:43Z</time>
      </trkpt>
      <trkpt lat="46.1253" lon="5.90751">
        <ele>354.7</ele>
        <time>2022-09-27T10:13:44Z</time>
      </trkpt>
      <trkpt lat="46.12525" lon="5.90745">
        <ele>354.5</ele>
        <time>2022-09-27T10:13:45Z</time>
      </trkpt>
      <trkpt lat="46.1252" lon="5.90739">
        <ele>354.3</ele>
        <time>2022-09-27T10:13:46Z</time>
      </trkpt>
      <trkpt lat="46.12515" lon="5.90732">
        <ele>354.1</ele>
        <time>2022-09-27T10:13:47Z</time>
      </trkpt>
      <trkpt lat="46.12512" lon="5.90725">
        <ele>353.9</ele>
        <time>2022-09-27T10:13:48Z</time>
      </trkpt>
      <trkpt lat="46.12508" lon="5.90717">
        <ele>353.8</ele>
        <time>2022-09-27T10:13:49Z</time>
      </trkpt>
      <trkpt lat="46.12503" lon="5.90709">
        <ele>353.7</ele>
        <time>2022-09-27T10:13:50Z</time>
      </trkpt>
      <trkpt lat="46.12499" lon="5.90701">
        <ele>353.6</ele>
        <time>2022-09-27T10:13:51Z</time>
      </trkpt>
      <trkpt lat="46.12496" lon="5.90694">
        <ele>353.5</ele>
        <time>2022-09-27T10:13:52Z</time>
      </trkpt>
      <trkpt lat="46.12491" lon="5.90685">
        <ele>353.4</ele>
        <time>2022-09-27T10:13:53Z</time>
      </trkpt>
      <trkpt lat="46.12488" lon="5.90678">
        <ele>353.2</ele>
        <time>2022-09-27T10:13:54Z</time>
      </trkpt>
      <trkpt lat="46.12484" lon="5.90669">
        <ele>353</ele>
        <time>2022-09-27T10:13:55Z</time>
      </trkpt>
      <trkpt lat="46.1248" lon="5.9066">
        <ele>352.8</ele>
        <time>2022-09-27T10:13:56Z</time>
      </trkpt>
      <trkpt lat="46.12477" lon="5.90652">
        <ele>352.6</ele>
        <time>2022-09-27T10:13:57Z</time>
      </trkpt>
      <trkpt lat="46.12472" lon="5.90644">
        <ele>352.4</ele>
        <time>2022-09-27T10:13:58Z</time>
      </trkpt>
      <trkpt lat="46.12469" lon="5.90637">
        <ele>352.2</ele>
        <time>2022-09-27T10:13:59Z</time>
      </trkpt>
      <trkpt lat="46.12465" lon="5.90627">
        <ele>351.9</ele>
        <time>2022-09-27T10:14:00Z</time>
      </trkpt>
      <trkpt lat="46.1246" lon="5.90618">
        <ele>351.7</ele>
        <time>2022-09-27T10:14:01Z</time>
      </trkpt>
      <trkpt lat="46.12457" lon="5.90611">
        <ele>351.6</ele>
        <time>2022-09-27T10:14:02Z</time>
      </trkpt>
      <trkpt lat="46.12452" lon="5.90602">
        <ele>351.4</ele>
        <time>2022-09-27T10:14:03Z</time>
      </trkpt>
      <trkpt lat="46.12449" lon="5.90594">
        <ele>351.2</ele>
        <time>2022-09-27T10:14:04Z</time>
      </trkpt>
      <trkpt lat="46.12445" lon="5.90586">
        <ele>351.1</ele>
        <time>2022-09-27T10:14:05Z</time>
      </trkpt>
      <trkpt lat="46.12442" lon="5.90579">
        <ele>350.9</ele>
        <time>2022-09-27T10:14:06Z</time>
      </trkpt>
      <trkpt lat="46.12437" lon="5.9057">
        <ele>350.8</ele>
        <time>2022-09-27T10:14:07Z</time>
      </trkpt>
      <trkpt lat="46.12433" lon="5.90563">
        <ele>350.7</ele>
        <time>2022-09-27T10:14:08Z</time>
      </trkpt>
      <trkpt lat="46.12429" lon="5.90557">
        <ele>350.7</ele>
        <time>2022-09-27T10:14:09Z</time>
      </trkpt>
      <trkpt lat="46.12425" lon="5.90549">
        <ele>350.6</ele>
        <time>2022-09-27T10:14:10Z</time>
      </trkpt>
      <trkpt lat="46.1242" lon="5.90541">
        <ele>350.5</ele>
        <time>2022-09-27T10:14:11Z</time>
      </trkpt>
      <trkpt lat="46.12415" lon="5.90535">
        <ele>350.4</ele>
        <time>2022-09-27T10:14:12Z</time>
      </trkpt>
      <trkpt lat="46.1241" lon="5.90528">
        <ele>350.3</ele>
        <time>2022-09-27T10:14:13Z</time>
      </trkpt>
      <trkpt lat="46.12405" lon="5.90523">
        <ele>350.3</ele>
        <time>2022-09-27T10:14:14Z</time>
      </trkpt>
      <trkpt lat="46.124" lon="5.90517">
        <ele>350.2</ele>
        <time>2022-09-27T10:14:15Z</time>
      </trkpt>
      <trkpt lat="46.12394" lon="5.90512">
        <ele>350.1</ele>
        <time>2022-09-27T10:14:16Z</time>
      </trkpt>
      <trkpt lat="46.1239" lon="5.90505">
        <ele>350</ele>
        <time>2022-09-27T10:14:17Z</time>
      </trkpt>
      <trkpt lat="46.12385" lon="5.90499">
        <ele>350</ele>
        <time>2022-09-27T10:14:18Z</time>
      </trkpt>
      <trkpt lat="46.12381" lon="5.90495">
        <ele>349.9</ele>
        <time>2022-09-27T10:14:19Z</time>
      </trkpt>
      <trkpt lat="46.12375" lon="5.90489">
        <ele>349.9</ele>
        <time>2022-09-27T10:14:20Z</time>
      </trkpt>
      <trkpt lat="46.12369" lon="5.90484">
        <ele>349.9</ele>
        <time>2022-09-27T10:14:21Z</time>
      </trkpt>
      <trkpt lat="46.12364" lon="5.90479">
        <ele>349.8</ele>
        <time>2022-09-27T10:14:22Z</time>
      </trkpt>
      <trkpt lat="46.1236" lon="5.90475">
        <ele>349.8</ele>
        <time>2022-09-27T10:14:23Z</time>
      </trkpt>
      <trkpt lat="46.12353" lon="5.90471">
        <ele>349.8</ele>
        <time>2022-09-27T10:14:24Z</time>
      </trkpt>
      <trkpt lat="46.12349" lon="5.90466">
        <ele>349.8</ele>
        <time>2022-09-27T10:14:25Z</time>
      </trkpt>
      <trkpt lat="46.12343" lon="5.90463">
        <ele>349.7</ele>
        <time>2022-09-27T10:14:26Z</time>
      </trkpt>
      <trkpt lat="46.12338" lon="5.90458">
        <ele>349.7</ele>
        <time>2022-09-27T10:14:27Z</time>
      </trkpt>
      <trkpt lat="46.12333" lon="5.90452">
        <ele>349.7</ele>
        <time>2022-09-27T10:14:28Z</time>
      </trkpt>
      <trkpt lat="46.12329" lon="5.90447">
        <ele>349.6</ele>
        <time>2022-09-27T10:14:29Z</time>
      </trkpt>
      <trkpt lat="46.12323" lon="5.90442">
        <ele>349.5</ele>
        <time>2022-09-27T10:14:30Z</time>
      </trkpt>
      <trkpt lat="46.12317" lon="5.90438">
        <ele>349.5</ele>
        <time>2022-09-27T10:14:31Z</time>
      </trkpt>
      <trkpt lat="46.12312" lon="5.90432">
        <ele>349.4</ele>
        <time>2022-09-27T10:14:32Z</time>
      </trkpt>
      <trkpt lat="46.12307" lon="5.90425">
        <ele>349.3</ele>
        <time>2022-09-27T10:14:33Z</time>
      </trkpt>
      <trkpt lat="46.12302" lon="5.9042">
        <ele>349.3</ele>
        <time>2022-09-27T10:14:34Z</time>
      </trkpt>
      <trkpt lat="46.12296" lon="5.90415">
        <ele>349.3</ele>
        <time>2022-09-27T10:14:35Z</time>
      </trkpt>
      <trkpt lat="46.12291" lon="5.90412">
        <ele>349.3</ele>
        <time>2022-09-27T10:14:36Z</time>
      </trkpt>
      <trkpt lat="46.12284" lon="5.90406">
        <ele>349.3</ele>
        <time>2022-09-27T10:14:37Z</time>
      </trkpt>
      <trkpt lat="46.12279" lon="5.90401">
        <ele>349.3</ele>
        <time>2022-09-27T10:14:38Z</time>
      </trkpt>
      <trkpt lat="46.12274" lon="5.90396">
        <ele>349.3</ele>
        <time>2022-09-27T10:14:39Z</time>
      </trkpt>
      <trkpt lat="46.12268" lon="5.90391">
        <ele>349.3</ele>
        <time>2022-09-27T10:14:40Z</time>
      </trkpt>
      <trkpt lat="46.12263" lon="5.90387">
        <ele>349.3</ele>
        <time>2022-09-27T10:14:41Z</time>
      </trkpt>
      <trkpt lat="46.12258" lon="5.90383">
        <ele>349.3</ele>
        <time>2022-09-27T10:14:42Z</time>
      </trkpt>
      <trkpt lat="46.12254" lon="5.9038">
        <ele>349.3</ele>
        <time>2022-09-27T10:14:43Z</time>
      </trkpt>
      <trkpt lat="46.12249" lon="5.90376">
        <ele>349.3</ele>
        <time>2022-09-27T10:14:44Z</time>
      </trkpt>
      <trkpt lat="46.12243" lon="5.90373">
        <ele>349.3</ele>
        <time>2022-09-27T10:14:45Z</time>
      </trkpt>
      <trkpt lat="46.12239" lon="5.90369">
        <ele>349.3</ele>
        <time>2022-09-27T10:14:46Z</time>
      </trkpt>
      <trkpt lat="46.12234" lon="5.90366">
        <ele>349.4</ele>
        <time>2022-09-27T10:14:47Z</time>
      </trkpt>
      <trkpt lat="46.1223" lon="5.90362">
        <ele>349.4</ele>
        <time>2022-09-27T10:14:48Z</time>
      </trkpt>
      <trkpt lat="46.12225" lon="5.9036">
        <ele>349.4</ele>
        <time>2022-09-27T10:14:49Z</time>
      </trkpt>
      <trkpt lat="46.1222" lon="5.90358">
        <ele>349.4</ele>
        <time>2022-09-27T10:14:50Z</time>
      </trkpt>
      <trkpt lat="46.12216" lon="5.90355">
        <ele>349.4</ele>
        <time>2022-09-27T10:14:51Z</time>
      </trkpt>
      <trkpt lat="46.12211" lon="5.90352">
        <ele>349.4</ele>
        <time>2022-09-27T10:14:52Z</time>
      </trkpt>
      <trkpt lat="46.12206" lon="5.90348">
        <ele>349.5</ele>
        <time>2022-09-27T10:14:53Z</time>
      </trkpt>
      <trkpt lat="46.12202" lon="5.90348">
        <ele>349.5</ele>
        <time>2022-09-27T10:14:54Z</time>
      </trkpt>
      <trkpt lat="46.12197" lon="5.90346">
        <ele>349.5</ele>
        <time>2022-09-27T10:14:55Z</time>
      </trkpt>
      <trkpt lat="46.12193" lon="5.90345">
        <ele>349.5</ele>
        <time>2022-09-27T10:14:56Z</time>
      </trkpt>
      <trkpt lat="46.12188" lon="5.90343">
        <ele>349.5</ele>
        <time>2022-09-27T10:14:57Z</time>
      </trkpt>
      <trkpt lat="46.12183" lon="5.90341">
        <ele>349.5</ele>
        <time>2022-09-27T10:14:58Z</time>
      </trkpt>
      <trkpt lat="46.12178" lon="5.9034">
        <ele>349.5</ele>
        <time>2022-09-27T10:14:59Z</time>
      </trkpt>
      <trkpt lat="46.12174" lon="5.90339">
        <ele>349.6</ele>
        <time>2022-09-27T10:15:00Z</time>
      </trkpt>
      <trkpt lat="46.12169" lon="5.90337">
        <ele>349.6</ele>
        <time>2022-09-27T10:15:01Z</time>
      </trkpt>
      <trkpt lat="46.12163" lon="5.90336">
        <ele>349.6</ele>
        <time>2022-09-27T10:15:02Z</time>
      </trkpt>
      <trkpt lat="46.12158" lon="5.90335">
        <ele>349.6</ele>
        <time>2022-09-27T10:15:03Z</time>
      </trkpt>
      <trkpt lat="46.12153" lon="5.90332">
        <ele>349.6</ele>
        <time>2022-09-27T10:15:04Z</time>
      </trkpt>
      <trkpt lat="46.12148" lon="5.9033">
        <ele>349.6</ele>
        <time>2022-09-27T10:15:05Z</time>
      </trkpt>
      <trkpt lat="46.12144" lon="5.9033">
        <ele>349.6</ele>
        <time>2022-09-27T10:15:06Z</time>
      </trkpt>
      <trkpt lat="46.12139" lon="5.90328">
        <ele>349.7</ele>
        <time>2022-09-27T10:15:07Z</time>
      </trkpt>
      <trkpt lat="46.12134" lon="5.90326">
        <ele>349.7</ele>
        <time>2022-09-27T10:15:08Z</time>
      </trkpt>
      <trkpt lat="46.12129" lon="5.90324">
        <ele>349.7</ele>
        <time>2022-09-27T10:15:09Z</time>
      </trkpt>
      <trkpt lat="46.12123" lon="5.90324">
        <ele>349.7</ele>
        <time>2022-09-27T10:15:10Z</time>
      </trkpt>
      <trkpt lat="46.12118" lon="5.90322">
        <ele>349.7</ele>
        <time>2022-09-27T10:15:11Z</time>
      </trkpt>
      <trkpt lat="46.12113" lon="5.90321">
        <ele>349.8</ele>
        <time>2022-09-27T10:15:12Z</time>
      </trkpt>
      <trkpt lat="46.12108" lon="5.90322">
        <ele>349.8</ele>
        <time>2022-09-27T10:15:13Z</time>
      </trkpt>
      <trkpt lat="46.12102" lon="5.90323">
        <ele>349.9</ele>
        <time>2022-09-27T10:15:14Z</time>
      </trkpt>
      <trkpt lat="46.12098" lon="5.90324">
        <ele>350</ele>
        <time>2022-09-27T10:15:15Z</time>
      </trkpt>
      <trkpt lat="46.12093" lon="5.90326">
        <ele>350</ele>
        <time>2022-09-27T10:15:16Z</time>
      </trkpt>
      <trkpt lat="46.12089" lon="5.90329">
        <ele>350</ele>
        <time>2022-09-27T10:15:17Z</time>
      </trkpt>
      <trkpt lat="46.12084" lon="5.90335">
        <ele>350</ele>
        <time>2022-09-27T10:15:18Z</time>
      </trkpt>
      <trkpt lat="46.12081" lon="5.90337">
        <ele>350</ele>
        <time>2022-09-27T10:15:19Z</time>
      </trkpt>
      <trkpt lat="46.12078" lon="5.9034">
        <ele>350</ele>
        <time>2022-09-27T10:15:20Z</time>
      </trkpt>
      <trkpt lat="46.12074" lon="5.90344">
        <ele>349.9</ele>
        <time>2022-09-27T10:15:21Z</time>
      </trkpt>
      <trkpt lat="46.12071" lon="5.9035">
        <ele>349.9</ele>
        <time>2022-09-27T10:15:22Z</time>
      </trkpt>
      <trkpt lat="46.12068" lon="5.90355">
        <ele>349.9</ele>
        <time>2022-09-27T10:15:23Z</time>
      </trkpt>
      <trkpt lat="46.12066" lon="5.90359">
        <ele>349.9</ele>
        <time>2022-09-27T10:15:24Z</time>
      </trkpt>
      <trkpt lat="46.12064" lon="5.90365">
        <ele>349.9</ele>
        <time>2022-09-27T10:15:25Z</time>
      </trkpt>
      <trkpt lat="46.1206" lon="5.90371">
        <ele>349.8</ele>
        <time>2022-09-27T10:15:26Z</time>
      </trkpt>
      <trkpt lat="46.12059" lon="5.90377">
        <ele>349.8</ele>
        <time>2022-09-27T10:15:27Z</time>
      </trkpt>
      <trkpt lat="46.12056" lon="5.90385">
        <ele>349.8</ele>
        <time>2022-09-27T10:15:28Z</time>
      </trkpt>
      <trkpt lat="46.12054" lon="5.90391">
        <ele>349.8</ele>
        <time>2022-09-27T10:15:29Z</time>
      </trkpt>
      <trkpt lat="46.12051" lon="5.90399">
        <ele>349.7</ele>
        <time>2022-09-27T10:15:30Z</time>
      </trkpt>
      <trkpt lat="46.12046" lon="5.90413">
        <ele>349.7</ele>
        <time>2022-09-27T10:15:31Z</time>
      </trkpt>
      <trkpt lat="46.12044" lon="5.9042">
        <ele>349.7</ele>
        <time>2022-09-27T10:15:32Z</time>
      </trkpt>
      <trkpt lat="46.12041" lon="5.90426">
        <ele>349.6</ele>
        <time>2022-09-27T10:15:33Z</time>
      </trkpt>
      <trkpt lat="46.12039" lon="5.90433">
        <ele>349.6</ele>
        <time>2022-09-27T10:15:34Z</time>
      </trkpt>
      <trkpt lat="46.12036" lon="5.9044">
        <ele>349.6</ele>
        <time>2022-09-27T10:15:35Z</time>
      </trkpt>
      <trkpt lat="46.12034" lon="5.90447">
        <ele>349.6</ele>
        <time>2022-09-27T10:15:36Z</time>
      </trkpt>
      <trkpt lat="46.12032" lon="5.90453">
        <ele>349.6</ele>
        <time>2022-09-27T10:15:37Z</time>
      </trkpt>
      <trkpt lat="46.1203" lon="5.90461">
        <ele>349.6</ele>
        <time>2022-09-27T10:15:38Z</time>
      </trkpt>
      <trkpt lat="46.12027" lon="5.90467">
        <ele>349.6</ele>
        <time>2022-09-27T10:15:39Z</time>
      </trkpt>
      <trkpt lat="46.12025" lon="5.90474">
        <ele>349.6</ele>
        <time>2022-09-27T10:15:40Z</time>
      </trkpt>
      <trkpt lat="46.12023" lon="5.90481">
        <ele>349.6</ele>
        <time>2022-09-27T10:15:42Z</time>
      </trkpt>
      <trkpt lat="46.1202" lon="5.90488">
        <ele>349.6</ele>
        <time>2022-09-27T10:15:43Z</time>
      </trkpt>
      <trkpt lat="46.12018" lon="5.90495">
        <ele>349.6</ele>
        <time>2022-09-27T10:15:44Z</time>
      </trkpt>
      <trkpt lat="46.12015" lon="5.90501">
        <ele>349.6</ele>
        <time>2022-09-27T10:15:45Z</time>
      </trkpt>
      <trkpt lat="46.12013" lon="5.90506">
        <ele>349.7</ele>
        <time>2022-09-27T10:15:46Z</time>
      </trkpt>
      <trkpt lat="46.12013" lon="5.90511">
        <ele>349.7</ele>
        <time>2022-09-27T10:15:47Z</time>
      </trkpt>
      <trkpt lat="46.12011" lon="5.90518">
        <ele>349.8</ele>
        <time>2022-09-27T10:15:48Z</time>
      </trkpt>
      <trkpt lat="46.12009" lon="5.90525">
        <ele>349.9</ele>
        <time>2022-09-27T10:15:49Z</time>
      </trkpt>
      <trkpt lat="46.12007" lon="5.9053">
        <ele>349.9</ele>
        <time>2022-09-27T10:15:50Z</time>
      </trkpt>
      <trkpt lat="46.12007" lon="5.90538">
        <ele>350</ele>
        <time>2022-09-27T10:15:51Z</time>
      </trkpt>
      <trkpt lat="46.12005" lon="5.90544">
        <ele>350.1</ele>
        <time>2022-09-27T10:15:52Z</time>
      </trkpt>
      <trkpt lat="46.12005" lon="5.90551">
        <ele>350.2</ele>
        <time>2022-09-27T10:15:53Z</time>
      </trkpt>
      <trkpt lat="46.12006" lon="5.90558">
        <ele>350.3</ele>
        <time>2022-09-27T10:15:54Z</time>
      </trkpt>
      <trkpt lat="46.12007" lon="5.90565">
        <ele>350.4</ele>
        <time>2022-09-27T10:15:55Z</time>
      </trkpt>
      <trkpt lat="46.12008" lon="5.9057">
        <ele>350.5</ele>
        <time>2022-09-27T10:15:56Z</time>
      </trkpt>
      <trkpt lat="46.12009" lon="5.90577">
        <ele>350.7</ele>
        <time>2022-09-27T10:15:57Z</time>
      </trkpt>
      <trkpt lat="46.12011" lon="5.90581">
        <ele>350.8</ele>
        <time>2022-09-27T10:15:58Z</time>
      </trkpt>
      <trkpt lat="46.12013" lon="5.90586">
        <ele>350.8</ele>
        <time>2022-09-27T10:15:59Z</time>
      </trkpt>
      <trkpt lat="46.12014" lon="5.90592">
        <ele>351</ele>
        <time>2022-09-27T10:16:00Z</time>
      </trkpt>
      <trkpt lat="46.12015" lon="5.90596">
        <ele>351.1</ele>
        <time>2022-09-27T10:16:01Z</time>
      </trkpt>
      <trkpt lat="46.12017" lon="5.90603">
        <ele>351.3</ele>
        <time>2022-09-27T10:16:02Z</time>
      </trkpt>
      <trkpt lat="46.12019" lon="5.90608">
        <ele>351.4</ele>
        <time>2022-09-27T10:16:03Z</time>
      </trkpt>
      <trkpt lat="46.12019" lon="5.9061">
        <ele>351.5</ele>
        <time>2022-09-27T10:16:04Z</time>
      </trkpt>
      <trkpt lat="46.12021" lon="5.90616">
        <ele>351.6</ele>
        <time>2022-09-27T10:16:05Z</time>
      </trkpt>
      <trkpt lat="46.12022" lon="5.90622">
        <ele>351.8</ele>
        <time>2022-09-27T10:16:06Z</time>
      </trkpt>
      <trkpt lat="46.12024" lon="5.90626">
        <ele>351.9</ele>
        <time>2022-09-27T10:16:07Z</time>
      </trkpt>
      <trkpt lat="46.12025" lon="5.90631">
        <ele>352</ele>
        <time>2022-09-27T10:16:08Z</time>
      </trkpt>
      <trkpt lat="46.12027" lon="5.90636">
        <ele>352.2</ele>
        <time>2022-09-27T10:16:09Z</time>
      </trkpt>
      <trkpt lat="46.12028" lon="5.90641">
        <ele>352.3</ele>
        <time>2022-09-27T10:16:10Z</time>
      </trkpt>
      <trkpt lat="46.12029" lon="5.90645">
        <ele>352.5</ele>
        <time>2022-09-27T10:16:11Z</time>
      </trkpt>
      <trkpt lat="46.12031" lon="5.9065">
        <ele>352.6</ele>
        <time>2022-09-27T10:16:12Z</time>
      </trkpt>
      <trkpt lat="46.12032" lon="5.90655">
        <ele>352.8</ele>
        <time>2022-09-27T10:16:13Z</time>
      </trkpt>
      <trkpt lat="46.12032" lon="5.9066">
        <ele>352.9</ele>
        <time>2022-09-27T10:16:14Z</time>
      </trkpt>
      <trkpt lat="46.12034" lon="5.90664">
        <ele>353</ele>
        <time>2022-09-27T10:16:15Z</time>
      </trkpt>
      <trkpt lat="46.12035" lon="5.90669">
        <ele>353.2</ele>
        <time>2022-09-27T10:16:16Z</time>
      </trkpt>
      <trkpt lat="46.12035" lon="5.90674">
        <ele>353.4</ele>
        <time>2022-09-27T10:16:17Z</time>
      </trkpt>
      <trkpt lat="46.12035" lon="5.90678">
        <ele>353.5</ele>
        <time>2022-09-27T10:16:18Z</time>
      </trkpt>
      <trkpt lat="46.12036" lon="5.90682">
        <ele>353.6</ele>
        <time>2022-09-27T10:16:19Z</time>
      </trkpt>
      <trkpt lat="46.12038" lon="5.90687">
        <ele>353.8</ele>
        <time>2022-09-27T10:16:20Z</time>
      </trkpt>
      <trkpt lat="46.12037" lon="5.90691">
        <ele>354</ele>
        <time>2022-09-27T10:16:21Z</time>
      </trkpt>
      <trkpt lat="46.12038" lon="5.90697">
        <ele>354.2</ele>
        <time>2022-09-27T10:16:22Z</time>
      </trkpt>
      <trkpt lat="46.12038" lon="5.907">
        <ele>354.3</ele>
        <time>2022-09-27T10:16:23Z</time>
      </trkpt>
      <trkpt lat="46.1204" lon="5.90704">
        <ele>354.4</ele>
        <time>2022-09-27T10:16:24Z</time>
      </trkpt>
      <trkpt lat="46.1204" lon="5.9071">
        <ele>354.6</ele>
        <time>2022-09-27T10:16:25Z</time>
      </trkpt>
      <trkpt lat="46.12041" lon="5.90712">
        <ele>354.7</ele>
        <time>2022-09-27T10:16:26Z</time>
      </trkpt>
      <trkpt lat="46.12042" lon="5.90718">
        <ele>354.9</ele>
        <time>2022-09-27T10:16:27Z</time>
      </trkpt>
      <trkpt lat="46.12042" lon="5.90723">
        <ele>355</ele>
        <time>2022-09-27T10:16:28Z</time>
      </trkpt>
      <trkpt lat="46.12042" lon="5.90725">
        <ele>355.1</ele>
        <time>2022-09-27T10:16:29Z</time>
      </trkpt>
      <trkpt lat="46.12043" lon="5.90731">
        <ele>355.3</ele>
        <time>2022-09-27T10:16:30Z</time>
      </trkpt>
      <trkpt lat="46.12045" lon="5.90733">
        <ele>355.4</ele>
        <time>2022-09-27T10:16:31Z</time>
      </trkpt>
      <trkpt lat="46.12044" lon="5.90737">
        <ele>355.5</ele>
        <time>2022-09-27T10:16:32Z</time>
      </trkpt>
      <trkpt lat="46.12045" lon="5.90742">
        <ele>355.7</ele>
        <time>2022-09-27T10:16:33Z</time>
      </trkpt>
      <trkpt lat="46.12045" lon="5.90746">
        <ele>355.8</ele>
        <time>2022-09-27T10:16:34Z</time>
      </trkpt>
      <trkpt lat="46.12047" lon="5.9075">
        <ele>356</ele>
        <time>2022-09-27T10:16:35Z</time>
      </trkpt>
      <trkpt lat="46.12047" lon="5.90755">
        <ele>356.2</ele>
        <time>2022-09-27T10:16:36Z</time>
      </trkpt>
      <trkpt lat="46.12049" lon="5.90762">
        <ele>356.4</ele>
        <time>2022-09-27T10:16:37Z</time>
      </trkpt>
      <trkpt lat="46.1205" lon="5.90766">
        <ele>356.6</ele>
        <time>2022-09-27T10:16:38Z</time>
      </trkpt>
      <trkpt lat="46.12052" lon="5.90771">
        <ele>356.8</ele>
        <time>2022-09-27T10:16:39Z</time>
      </trkpt>
      <trkpt lat="46.12053" lon="5.90773">
        <ele>356.9</ele>
        <time>2022-09-27T10:16:40Z</time>
      </trkpt>
      <trkpt lat="46.12054" lon="5.90777">
        <ele>357</ele>
        <time>2022-09-27T10:16:41Z</time>
      </trkpt>
      <trkpt lat="46.12054" lon="5.90781">
        <ele>357.1</ele>
        <time>2022-09-27T10:16:42Z</time>
      </trkpt>
      <trkpt lat="46.12056" lon="5.90784">
        <ele>357.3</ele>
        <time>2022-09-27T10:16:43Z</time>
      </trkpt>
      <trkpt lat="46.12058" lon="5.90787">
        <ele>357.4</ele>
        <time>2022-09-27T10:16:44Z</time>
      </trkpt>
      <trkpt lat="46.1206" lon="5.90791">
        <ele>357.6</ele>
        <time>2022-09-27T10:16:45Z</time>
      </trkpt>
      <trkpt lat="46.12061" lon="5.90796">
        <ele>357.7</ele>
        <time>2022-09-27T10:16:46Z</time>
      </trkpt>
      <trkpt lat="46.12062" lon="5.90798">
        <ele>357.8</ele>
        <time>2022-09-27T10:16:47Z</time>
      </trkpt>
      <trkpt lat="46.12062" lon="5.90803">
        <ele>357.9</ele>
        <time>2022-09-27T10:16:48Z</time>
      </trkpt>
      <trkpt lat="46.12063" lon="5.90804">
        <ele>358</ele>
        <time>2022-09-27T10:16:49Z</time>
      </trkpt>
      <trkpt lat="46.12064" lon="5.90809">
        <ele>358.1</ele>
        <time>2022-09-27T10:16:50Z</time>
      </trkpt>
      <trkpt lat="46.12064" lon="5.90812">
        <ele>358.2</ele>
        <time>2022-09-27T10:16:51Z</time>
      </trkpt>
      <trkpt lat="46.12065" lon="5.90814">
        <ele>358.2</ele>
        <time>2022-09-27T10:16:52Z</time>
      </trkpt>
      <trkpt lat="46.12066" lon="5.90818">
        <ele>358.4</ele>
        <time>2022-09-27T10:16:53Z</time>
      </trkpt>
      <trkpt lat="46.12067" lon="5.90822">
        <ele>358.5</ele>
        <time>2022-09-27T10:16:54Z</time>
      </trkpt>
      <trkpt lat="46.12068" lon="5.90826">
        <ele>358.6</ele>
        <time>2022-09-27T10:16:55Z</time>
      </trkpt>
      <trkpt lat="46.12069" lon="5.90827">
        <ele>358.7</ele>
        <time>2022-09-27T10:16:56Z</time>
      </trkpt>
      <trkpt lat="46.1207" lon="5.90832">
        <ele>358.8</ele>
        <time>2022-09-27T10:16:57Z</time>
      </trkpt>
      <trkpt lat="46.12071" lon="5.90834">
        <ele>358.9</ele>
        <time>2022-09-27T10:16:58Z</time>
      </trkpt>
      <trkpt lat="46.12072" lon="5.90837">
        <ele>359</ele>
        <time>2022-09-27T10:16:59Z</time>
      </trkpt>
      <trkpt lat="46.12073" lon="5.90842">
        <ele>359.2</ele>
        <time>2022-09-27T10:17:00Z</time>
      </trkpt>
      <trkpt lat="46.12073" lon="5.90844">
        <ele>359.2</ele>
        <time>2022-09-27T10:17:01Z</time>
      </trkpt>
      <trkpt lat="46.12075" lon="5.90847">
        <ele>359.4</ele>
        <time>2022-09-27T10:17:02Z</time>
      </trkpt>
      <trkpt lat="46.12077" lon="5.90851">
        <ele>359.5</ele>
        <time>2022-09-27T10:17:03Z</time>
      </trkpt>
      <trkpt lat="46.12078" lon="5.90853">
        <ele>359.6</ele>
        <time>2022-09-27T10:17:04Z</time>
      </trkpt>
      <trkpt lat="46.12078" lon="5.90857">
        <ele>359.8</ele>
        <time>2022-09-27T10:17:05Z</time>
      </trkpt>
      <trkpt lat="46.12079" lon="5.90859">
        <ele>359.8</ele>
        <time>2022-09-27T10:17:06Z</time>
      </trkpt>
      <trkpt lat="46.12079" lon="5.90863">
        <ele>360</ele>
        <time>2022-09-27T10:17:07Z</time>
      </trkpt>
      <trkpt lat="46.12082" lon="5.90866">
        <ele>360.1</ele>
        <time>2022-09-27T10:17:08Z</time>
      </trkpt>
      <trkpt lat="46.12082" lon="5.90868">
        <ele>360.2</ele>
        <time>2022-09-27T10:17:09Z</time>
      </trkpt>
      <trkpt lat="46.12083" lon="5.90872">
        <ele>360.3</ele>
        <time>2022-09-27T10:17:10Z</time>
      </trkpt>
      <trkpt lat="46.12083" lon="5.90873">
        <ele>360.4</ele>
        <time>2022-09-27T10:17:11Z</time>
      </trkpt>
      <trkpt lat="46.12085" lon="5.90878">
        <ele>360.6</ele>
        <time>2022-09-27T10:17:12Z</time>
      </trkpt>
      <trkpt lat="46.12085" lon="5.9088">
        <ele>360.6</ele>
        <time>2022-09-27T10:17:13Z</time>
      </trkpt>
      <trkpt lat="46.12087" lon="5.90883">
        <ele>360.8</ele>
        <time>2022-09-27T10:17:14Z</time>
      </trkpt>
      <trkpt lat="46.12088" lon="5.90884">
        <ele>360.9</ele>
        <time>2022-09-27T10:17:15Z</time>
      </trkpt>
      <trkpt lat="46.12089" lon="5.90889">
        <ele>361</ele>
        <time>2022-09-27T10:17:16Z</time>
      </trkpt>
      <trkpt lat="46.12089" lon="5.90891">
        <ele>361.1</ele>
        <time>2022-09-27T10:17:17Z</time>
      </trkpt>
      <trkpt lat="46.1209" lon="5.90895">
        <ele>361.3</ele>
        <time>2022-09-27T10:17:18Z</time>
      </trkpt>
      <trkpt lat="46.12091" lon="5.90897">
        <ele>361.3</ele>
        <time>2022-09-27T10:17:19Z</time>
      </trkpt>
      <trkpt lat="46.12092" lon="5.90901">
        <ele>361.5</ele>
        <time>2022-09-27T10:17:20Z</time>
      </trkpt>
      <trkpt lat="46.12093" lon="5.90905">
        <ele>361.6</ele>
        <time>2022-09-27T10:17:21Z</time>
      </trkpt>
      <trkpt lat="46.12094" lon="5.90906">
        <ele>361.7</ele>
        <time>2022-09-27T10:17:22Z</time>
      </trkpt>
      <trkpt lat="46.12095" lon="5.90911">
        <ele>361.9</ele>
        <time>2022-09-27T10:17:23Z</time>
      </trkpt>
      <trkpt lat="46.12095" lon="5.90913">
        <ele>361.9</ele>
        <time>2022-09-27T10:17:24Z</time>
      </trkpt>
      <trkpt lat="46.12097" lon="5.90917">
        <ele>362.1</ele>
        <time>2022-09-27T10:17:25Z</time>
      </trkpt>
      <trkpt lat="46.12098" lon="5.90919">
        <ele>362.2</ele>
        <time>2022-09-27T10:17:26Z</time>
      </trkpt>
      <trkpt lat="46.12099" lon="5.90923">
        <ele>362.3</ele>
        <time>2022-09-27T10:17:27Z</time>
      </trkpt>
      <trkpt lat="46.12099" lon="5.90925">
        <ele>362.4</ele>
        <time>2022-09-27T10:17:28Z</time>
      </trkpt>
      <trkpt lat="46.121" lon="5.9093">
        <ele>362.6</ele>
        <time>2022-09-27T10:17:29Z</time>
      </trkpt>
      <trkpt lat="46.12102" lon="5.90934">
        <ele>362.7</ele>
        <time>2022-09-27T10:17:30Z</time>
      </trkpt>
      <trkpt lat="46.12102" lon="5.90935">
        <ele>362.8</ele>
        <time>2022-09-27T10:17:31Z</time>
      </trkpt>
      <trkpt lat="46.12104" lon="5.9094">
        <ele>363</ele>
        <time>2022-09-27T10:17:32Z</time>
      </trkpt>
      <trkpt lat="46.12104" lon="5.90942">
        <ele>363.1</ele>
        <time>2022-09-27T10:17:33Z</time>
      </trkpt>
      <trkpt lat="46.12105" lon="5.90945">
        <ele>363.2</ele>
        <time>2022-09-27T10:17:34Z</time>
      </trkpt>
      <trkpt lat="46.12104" lon="5.90947">
        <ele>363.3</ele>
        <time>2022-09-27T10:17:35Z</time>
      </trkpt>
      <trkpt lat="46.12105" lon="5.90951">
        <ele>363.4</ele>
        <time>2022-09-27T10:17:36Z</time>
      </trkpt>
      <trkpt lat="46.12106" lon="5.90956">
        <ele>363.6</ele>
        <time>2022-09-27T10:17:37Z</time>
      </trkpt>
      <trkpt lat="46.12107" lon="5.90958">
        <ele>363.6</ele>
        <time>2022-09-27T10:17:38Z</time>
      </trkpt>
      <trkpt lat="46.12108" lon="5.90962">
        <ele>363.8</ele>
        <time>2022-09-27T10:17:39Z</time>
      </trkpt>
      <trkpt lat="46.12108" lon="5.90964">
        <ele>363.8</ele>
        <time>2022-09-27T10:17:40Z</time>
      </trkpt>
      <trkpt lat="46.12108" lon="5.90967">
        <ele>364</ele>
        <time>2022-09-27T10:17:41Z</time>
      </trkpt>
      <trkpt lat="46.12109" lon="5.90972">
        <ele>364.1</ele>
        <time>2022-09-27T10:17:42Z</time>
      </trkpt>
      <trkpt lat="46.12109" lon="5.90973">
        <ele>364.2</ele>
        <time>2022-09-27T10:17:43Z</time>
      </trkpt>
      <trkpt lat="46.12111" lon="5.90978">
        <ele>364.4</ele>
        <time>2022-09-27T10:17:44Z</time>
      </trkpt>
      <trkpt lat="46.12111" lon="5.9098">
        <ele>364.4</ele>
        <time>2022-09-27T10:17:45Z</time>
      </trkpt>
      <trkpt lat="46.12112" lon="5.90984">
        <ele>364.6</ele>
        <time>2022-09-27T10:17:46Z</time>
      </trkpt>
      <trkpt lat="46.12112" lon="5.90988">
        <ele>364.7</ele>
        <time>2022-09-27T10:17:48Z</time>
      </trkpt>
      <trkpt lat="46.12113" lon="5.9099">
        <ele>364.8</ele>
        <time>2022-09-27T10:17:49Z</time>
      </trkpt>
      <trkpt lat="46.12113" lon="5.90994">
        <ele>364.9</ele>
        <time>2022-09-27T10:17:50Z</time>
      </trkpt>
      <trkpt lat="46.12113" lon="5.90999">
        <ele>365.1</ele>
        <time>2022-09-27T10:17:51Z</time>
      </trkpt>
      <trkpt lat="46.12113" lon="5.91001">
        <ele>365.1</ele>
        <time>2022-09-27T10:17:52Z</time>
      </trkpt>
      <trkpt lat="46.12114" lon="5.91005">
        <ele>365.3</ele>
        <time>2022-09-27T10:17:53Z</time>
      </trkpt>
      <trkpt lat="46.12114" lon="5.91008">
        <ele>365.3</ele>
        <time>2022-09-27T10:17:54Z</time>
      </trkpt>
      <trkpt lat="46.12115" lon="5.91011">
        <ele>365.4</ele>
        <time>2022-09-27T10:17:55Z</time>
      </trkpt>
      <trkpt lat="46.12114" lon="5.91016">
        <ele>365.5</ele>
        <time>2022-09-27T10:17:56Z</time>
      </trkpt>
      <trkpt lat="46.12115" lon="5.91018">
        <ele>365.6</ele>
        <time>2022-09-27T10:17:57Z</time>
      </trkpt>
      <trkpt lat="46.12116" lon="5.91023">
        <ele>365.8</ele>
        <time>2022-09-27T10:17:58Z</time>
      </trkpt>
      <trkpt lat="46.12116" lon="5.91025">
        <ele>365.8</ele>
        <time>2022-09-27T10:17:59Z</time>
      </trkpt>
      <trkpt lat="46.12117" lon="5.9103">
        <ele>366</ele>
        <time>2022-09-27T10:18:00Z</time>
      </trkpt>
      <trkpt lat="46.12117" lon="5.91033">
        <ele>366</ele>
        <time>2022-09-27T10:18:01Z</time>
      </trkpt>
      <trkpt lat="46.12118" lon="5.91037">
        <ele>366.1</ele>
        <time>2022-09-27T10:18:02Z</time>
      </trkpt>
      <trkpt lat="46.12119" lon="5.91041">
        <ele>366.2</ele>
        <time>2022-09-27T10:18:03Z</time>
      </trkpt>
      <trkpt lat="46.12119" lon="5.91042">
        <ele>366.2</ele>
        <time>2022-09-27T10:18:04Z</time>
      </trkpt>
      <trkpt lat="46.1212" lon="5.91046">
        <ele>366.3</ele>
        <time>2022-09-27T10:18:05Z</time>
      </trkpt>
      <trkpt lat="46.12119" lon="5.91054">
        <ele>366.5</ele>
        <time>2022-09-27T10:18:06Z</time>
      </trkpt>
      <trkpt lat="46.12119" lon="5.91058">
        <ele>366.6</ele>
        <time>2022-09-27T10:18:07Z</time>
      </trkpt>
      <trkpt lat="46.12119" lon="5.91061">
        <ele>366.6</ele>
        <time>2022-09-27T10:18:08Z</time>
      </trkpt>
      <trkpt lat="46.12118" lon="5.91066">
        <ele>366.7</ele>
        <time>2022-09-27T10:18:09Z</time>
      </trkpt>
      <trkpt lat="46.12118" lon="5.91068">
        <ele>366.8</ele>
        <time>2022-09-27T10:18:10Z</time>
      </trkpt>
      <trkpt lat="46.12117" lon="5.91073">
        <ele>366.9</ele>
        <time>2022-09-27T10:18:11Z</time>
      </trkpt>
      <trkpt lat="46.12117" lon="5.91078">
        <ele>367</ele>
        <time>2022-09-27T10:18:12Z</time>
      </trkpt>
      <trkpt lat="46.12117" lon="5.9108">
        <ele>367</ele>
        <time>2022-09-27T10:18:13Z</time>
      </trkpt>
      <trkpt lat="46.12116" lon="5.91085">
        <ele>367.1</ele>
        <time>2022-09-27T10:18:14Z</time>
      </trkpt>
      <trkpt lat="46.12116" lon="5.91087">
        <ele>367.1</ele>
        <time>2022-09-27T10:18:15Z</time>
      </trkpt>
      <trkpt lat="46.12116" lon="5.91092">
        <ele>367.2</ele>
        <time>2022-09-27T10:18:16Z</time>
      </trkpt>
      <trkpt lat="46.12116" lon="5.91094">
        <ele>367.3</ele>
        <time>2022-09-27T10:18:17Z</time>
      </trkpt>
      <trkpt lat="46.12115" lon="5.91098">
        <ele>367.4</ele>
        <time>2022-09-27T10:18:18Z</time>
      </trkpt>
      <trkpt lat="46.12115" lon="5.911">
        <ele>367.4</ele>
        <time>2022-09-27T10:18:19Z</time>
      </trkpt>
      <trkpt lat="46.12114" lon="5.91105">
        <ele>367.5</ele>
        <time>2022-09-27T10:18:20Z</time>
      </trkpt>
      <trkpt lat="46.12114" lon="5.91107">
        <ele>367.6</ele>
        <time>2022-09-27T10:18:21Z</time>
      </trkpt>
      <trkpt lat="46.12114" lon="5.91112">
        <ele>367.7</ele>
        <time>2022-09-27T10:18:22Z</time>
      </trkpt>
      <trkpt lat="46.12114" lon="5.91115">
        <ele>367.7</ele>
        <time>2022-09-27T10:18:23Z</time>
      </trkpt>
      <trkpt lat="46.12113" lon="5.91119">
        <ele>367.8</ele>
        <time>2022-09-27T10:18:24Z</time>
      </trkpt>
      <trkpt lat="46.12113" lon="5.91121">
        <ele>367.9</ele>
        <time>2022-09-27T10:18:25Z</time>
      </trkpt>
      <trkpt lat="46.12113" lon="5.91125">
        <ele>368</ele>
        <time>2022-09-27T10:18:26Z</time>
      </trkpt>
      <trkpt lat="46.12113" lon="5.91127">
        <ele>368</ele>
        <time>2022-09-27T10:18:27Z</time>
      </trkpt>
      <trkpt lat="46.12112" lon="5.91132">
        <ele>368.1</ele>
        <time>2022-09-27T10:18:28Z</time>
      </trkpt>
      <trkpt lat="46.12112" lon="5.91134">
        <ele>368.2</ele>
        <time>2022-09-27T10:18:29Z</time>
      </trkpt>
      <trkpt lat="46.12111" lon="5.91138">
        <ele>368.3</ele>
        <time>2022-09-27T10:18:30Z</time>
      </trkpt>
      <trkpt lat="46.12111" lon="5.91141">
        <ele>368.4</ele>
        <time>2022-09-27T10:18:31Z</time>
      </trkpt>
      <trkpt lat="46.12111" lon="5.91145">
        <ele>368.5</ele>
        <time>2022-09-27T10:18:32Z</time>
      </trkpt>
      <trkpt lat="46.12111" lon="5.91147">
        <ele>368.6</ele>
        <time>2022-09-27T10:18:33Z</time>
      </trkpt>
      <trkpt lat="46.12111" lon="5.91151">
        <ele>368.7</ele>
        <time>2022-09-27T10:18:34Z</time>
      </trkpt>
      <trkpt lat="46.12111" lon="5.91156">
        <ele>368.9</ele>
        <time>2022-09-27T10:18:35Z</time>
      </trkpt>
      <trkpt lat="46.12111" lon="5.91158">
        <ele>368.9</ele>
        <time>2022-09-27T10:18:36Z</time>
      </trkpt>
      <trkpt lat="46.12111" lon="5.91163">
        <ele>369.1</ele>
        <time>2022-09-27T10:18:37Z</time>
      </trkpt>
      <trkpt lat="46.12111" lon="5.91164">
        <ele>369.1</ele>
        <time>2022-09-27T10:18:38Z</time>
      </trkpt>
      <trkpt lat="46.12111" lon="5.9117">
        <ele>369.3</ele>
        <time>2022-09-27T10:18:39Z</time>
      </trkpt>
      <trkpt lat="46.12111" lon="5.91172">
        <ele>369.4</ele>
        <time>2022-09-27T10:18:40Z</time>
      </trkpt>
      <trkpt lat="46.12112" lon="5.91177">
        <ele>369.6</ele>
        <time>2022-09-27T10:18:41Z</time>
      </trkpt>
      <trkpt lat="46.12112" lon="5.91178">
        <ele>369.7</ele>
        <time>2022-09-27T10:18:42Z</time>
      </trkpt>
      <trkpt lat="46.12112" lon="5.91183">
        <ele>369.8</ele>
        <time>2022-09-27T10:18:43Z</time>
      </trkpt>
      <trkpt lat="46.12112" lon="5.91185">
        <ele>369.9</ele>
        <time>2022-09-27T10:18:44Z</time>
      </trkpt>
      <trkpt lat="46.12113" lon="5.91191">
        <ele>370.1</ele>
        <time>2022-09-27T10:18:45Z</time>
      </trkpt>
      <trkpt lat="46.12113" lon="5.91192">
        <ele>370.1</ele>
        <time>2022-09-27T10:18:46Z</time>
      </trkpt>
      <trkpt lat="46.12114" lon="5.91197">
        <ele>370.3</ele>
        <time>2022-09-27T10:18:47Z</time>
      </trkpt>
      <trkpt lat="46.12114" lon="5.91199">
        <ele>370.4</ele>
        <time>2022-09-27T10:18:48Z</time>
      </trkpt>
      <trkpt lat="46.12115" lon="5.91204">
        <ele>370.6</ele>
        <time>2022-09-27T10:18:49Z</time>
      </trkpt>
      <trkpt lat="46.12115" lon="5.91206">
        <ele>370.7</ele>
        <time>2022-09-27T10:18:50Z</time>
      </trkpt>
      <trkpt lat="46.12116" lon="5.91211">
        <ele>370.8</ele>
        <time>2022-09-27T10:18:51Z</time>
      </trkpt>
      <trkpt lat="46.12116" lon="5.91212">
        <ele>370.9</ele>
        <time>2022-09-27T10:18:52Z</time>
      </trkpt>
      <trkpt lat="46.12117" lon="5.91216">
        <ele>371</ele>
        <time>2022-09-27T10:18:53Z</time>
      </trkpt>
      <trkpt lat="46.12117" lon="5.91221">
        <ele>371.2</ele>
        <time>2022-09-27T10:18:54Z</time>
      </trkpt>
      <trkpt lat="46.12117" lon="5.91222">
        <ele>371.2</ele>
        <time>2022-09-27T10:18:55Z</time>
      </trkpt>
      <trkpt lat="46.12118" lon="5.91227">
        <ele>371.4</ele>
        <time>2022-09-27T10:18:56Z</time>
      </trkpt>
      <trkpt lat="46.12118" lon="5.91229">
        <ele>371.4</ele>
        <time>2022-09-27T10:18:57Z</time>
      </trkpt>
      <trkpt lat="46.12119" lon="5.91233">
        <ele>371.6</ele>
        <time>2022-09-27T10:18:58Z</time>
      </trkpt>
      <trkpt lat="46.12119" lon="5.91236">
        <ele>371.7</ele>
        <time>2022-09-27T10:18:59Z</time>
      </trkpt>
      <trkpt lat="46.12119" lon="5.9124">
        <ele>371.8</ele>
        <time>2022-09-27T10:19:00Z</time>
      </trkpt>
      <trkpt lat="46.12121" lon="5.91243">
        <ele>371.9</ele>
        <time>2022-09-27T10:19:01Z</time>
      </trkpt>
      <trkpt lat="46.12121" lon="5.91248">
        <ele>372.1</ele>
        <time>2022-09-27T10:19:02Z</time>
      </trkpt>
      <trkpt lat="46.12121" lon="5.9125">
        <ele>372.1</ele>
        <time>2022-09-27T10:19:03Z</time>
      </trkpt>
      <trkpt lat="46.12122" lon="5.91254">
        <ele>372.3</ele>
        <time>2022-09-27T10:19:04Z</time>
      </trkpt>
      <trkpt lat="46.12123" lon="5.91256">
        <ele>372.4</ele>
        <time>2022-09-27T10:19:05Z</time>
      </trkpt>
      <trkpt lat="46.12123" lon="5.9126">
        <ele>372.5</ele>
        <time>2022-09-27T10:19:06Z</time>
      </trkpt>
      <trkpt lat="46.12124" lon="5.91265">
        <ele>372.6</ele>
        <time>2022-09-27T10:19:07Z</time>
      </trkpt>
      <trkpt lat="46.12124" lon="5.91266">
        <ele>372.7</ele>
        <time>2022-09-27T10:19:08Z</time>
      </trkpt>
      <trkpt lat="46.12124" lon="5.9127">
        <ele>372.8</ele>
        <time>2022-09-27T10:19:09Z</time>
      </trkpt>
      <trkpt lat="46.12124" lon="5.91272">
        <ele>372.9</ele>
        <time>2022-09-27T10:19:10Z</time>
      </trkpt>
      <trkpt lat="46.12124" lon="5.91277">
        <ele>373.1</ele>
        <time>2022-09-27T10:19:11Z</time>
      </trkpt>
      <trkpt lat="46.12124" lon="5.91278">
        <ele>373.1</ele>
        <time>2022-09-27T10:19:12Z</time>
      </trkpt>
      <trkpt lat="46.12124" lon="5.91283">
        <ele>373.3</ele>
        <time>2022-09-27T10:19:13Z</time>
      </trkpt>
      <trkpt lat="46.12124" lon="5.91285">
        <ele>373.4</ele>
        <time>2022-09-27T10:19:14Z</time>
      </trkpt>
      <trkpt lat="46.12124" lon="5.91289">
        <ele>373.6</ele>
        <time>2022-09-27T10:19:15Z</time>
      </trkpt>
      <trkpt lat="46.12125" lon="5.91293">
        <ele>373.7</ele>
        <time>2022-09-27T10:19:16Z</time>
      </trkpt>
      <trkpt lat="46.12125" lon="5.91295">
        <ele>373.8</ele>
        <time>2022-09-27T10:19:17Z</time>
      </trkpt>
      <trkpt lat="46.12125" lon="5.91299">
        <ele>374</ele>
        <time>2022-09-27T10:19:18Z</time>
      </trkpt>
      <trkpt lat="46.12125" lon="5.91301">
        <ele>374.1</ele>
        <time>2022-09-27T10:19:19Z</time>
      </trkpt>
      <trkpt lat="46.12126" lon="5.91305">
        <ele>374.3</ele>
        <time>2022-09-27T10:19:20Z</time>
      </trkpt>
      <trkpt lat="46.12126" lon="5.91307">
        <ele>374.3</ele>
        <time>2022-09-27T10:19:21Z</time>
      </trkpt>
      <trkpt lat="46.12126" lon="5.91309">
        <ele>374.4</ele>
        <time>2022-09-27T10:19:22Z</time>
      </trkpt>
      <trkpt lat="46.12126" lon="5.91311">
        <ele>374.5</ele>
        <time>2022-09-27T10:19:23Z</time>
      </trkpt>
      <trkpt lat="46.12127" lon="5.91315">
        <ele>374.7</ele>
        <time>2022-09-27T10:19:24Z</time>
      </trkpt>
      <trkpt lat="46.12127" lon="5.91318">
        <ele>374.8</ele>
        <time>2022-09-27T10:19:25Z</time>
      </trkpt>
      <trkpt lat="46.12127" lon="5.9132">
        <ele>375</ele>
        <time>2022-09-27T10:19:26Z</time>
      </trkpt>
      <trkpt lat="46.12128" lon="5.91323">
        <ele>375.1</ele>
        <time>2022-09-27T10:19:27Z</time>
      </trkpt>
      <trkpt lat="46.12128" lon="5.91325">
        <ele>375.2</ele>
        <time>2022-09-27T10:19:28Z</time>
      </trkpt>
      <trkpt lat="46.12128" lon="5.91327">
        <ele>375.3</ele>
        <time>2022-09-27T10:19:29Z</time>
      </trkpt>
      <trkpt lat="46.12128" lon="5.9133">
        <ele>375.4</ele>
        <time>2022-09-27T10:19:30Z</time>
      </trkpt>
      <trkpt lat="46.12128" lon="5.91335">
        <ele>375.7</ele>
        <time>2022-09-27T10:19:31Z</time>
      </trkpt>
      <trkpt lat="46.12129" lon="5.91337">
        <ele>375.7</ele>
        <time>2022-09-27T10:19:32Z</time>
      </trkpt>
      <trkpt lat="46.12129" lon="5.91339">
        <ele>375.8</ele>
        <time>2022-09-27T10:19:33Z</time>
      </trkpt>
      <trkpt lat="46.12129" lon="5.91341">
        <ele>376</ele>
        <time>2022-09-27T10:19:34Z</time>
      </trkpt>
      <trkpt lat="46.12128" lon="5.91345">
        <ele>376.1</ele>
        <time>2022-09-27T10:19:35Z</time>
      </trkpt>
      <trkpt lat="46.12129" lon="5.91347">
        <ele>376.2</ele>
        <time>2022-09-27T10:19:36Z</time>
      </trkpt>
      <trkpt lat="46.12128" lon="5.91351">
        <ele>376.4</ele>
        <time>2022-09-27T10:19:37Z</time>
      </trkpt>
      <trkpt lat="46.12128" lon="5.91352">
        <ele>376.5</ele>
        <time>2022-09-27T10:19:38Z</time>
      </trkpt>
      <trkpt lat="46.12128" lon="5.91354">
        <ele>376.5</ele>
        <time>2022-09-27T10:19:39Z</time>
      </trkpt>
      <trkpt lat="46.12128" lon="5.91357">
        <ele>376.7</ele>
        <time>2022-09-27T10:19:40Z</time>
      </trkpt>
      <trkpt lat="46.12128" lon="5.91361">
        <ele>376.9</ele>
        <time>2022-09-27T10:19:41Z</time>
      </trkpt>
      <trkpt lat="46.12128" lon="5.91362">
        <ele>376.9</ele>
        <time>2022-09-27T10:19:42Z</time>
      </trkpt>
      <trkpt lat="46.12127" lon="5.91366">
        <ele>377.1</ele>
        <time>2022-09-27T10:19:43Z</time>
      </trkpt>
      <trkpt lat="46.12127" lon="5.91368">
        <ele>377.2</ele>
        <time>2022-09-27T10:19:44Z</time>
      </trkpt>
      <trkpt lat="46.12126" lon="5.91369">
        <ele>377.3</ele>
        <time>2022-09-27T10:19:45Z</time>
      </trkpt>
      <trkpt lat="46.12126" lon="5.91372">
        <ele>377.4</ele>
        <time>2022-09-27T10:19:46Z</time>
      </trkpt>
      <trkpt lat="46.12125" lon="5.91376">
        <ele>377.6</ele>
        <time>2022-09-27T10:19:47Z</time>
      </trkpt>
      <trkpt lat="46.12125" lon="5.91377">
        <ele>377.7</ele>
        <time>2022-09-27T10:19:48Z</time>
      </trkpt>
      <trkpt lat="46.12125" lon="5.91378">
        <ele>377.8</ele>
        <time>2022-09-27T10:19:49Z</time>
      </trkpt>
      <trkpt lat="46.12125" lon="5.9138">
        <ele>377.9</ele>
        <time>2022-09-27T10:19:50Z</time>
      </trkpt>
      <trkpt lat="46.12125" lon="5.91383">
        <ele>378</ele>
        <time>2022-09-27T10:19:51Z</time>
      </trkpt>
      <trkpt lat="46.12124" lon="5.91386">
        <ele>378.1</ele>
        <time>2022-09-27T10:19:52Z</time>
      </trkpt>
      <trkpt lat="46.12123" lon="5.91388">
        <ele>378.2</ele>
        <time>2022-09-27T10:19:54Z</time>
      </trkpt>
      <trkpt lat="46.12122" lon="5.91389">
        <ele>378.3</ele>
        <time>2022-09-27T10:19:55Z</time>
      </trkpt>
      <trkpt lat="46.12122" lon="5.91392">
        <ele>378.5</ele>
        <time>2022-09-27T10:19:56Z</time>
      </trkpt>
      <trkpt lat="46.12122" lon="5.91394">
        <ele>378.5</ele>
        <time>2022-09-27T10:19:57Z</time>
      </trkpt>
      <trkpt lat="46.12121" lon="5.91396">
        <ele>378.7</ele>
        <time>2022-09-27T10:19:58Z</time>
      </trkpt>
      <trkpt lat="46.12121" lon="5.91398">
        <ele>378.8</ele>
        <time>2022-09-27T10:19:59Z</time>
      </trkpt>
      <trkpt lat="46.1212" lon="5.914">
        <ele>378.9</ele>
        <time>2022-09-27T10:20:00Z</time>
      </trkpt>
      <trkpt lat="46.1212" lon="5.91404">
        <ele>379</ele>
        <time>2022-09-27T10:20:01Z</time>
      </trkpt>
      <trkpt lat="46.1212" lon="5.91406">
        <ele>379.1</ele>
        <time>2022-09-27T10:20:02Z</time>
      </trkpt>
      <trkpt lat="46.1212" lon="5.9141">
        <ele>379.3</ele>
        <time>2022-09-27T10:20:03Z</time>
      </trkpt>
      <trkpt lat="46.1212" lon="5.91411">
        <ele>379.4</ele>
        <time>2022-09-27T10:20:04Z</time>
      </trkpt>
      <trkpt lat="46.12119" lon="5.91415">
        <ele>379.6</ele>
        <time>2022-09-27T10:20:05Z</time>
      </trkpt>
      <trkpt lat="46.12119" lon="5.91419">
        <ele>379.7</ele>
        <time>2022-09-27T10:20:06Z</time>
      </trkpt>
      <trkpt lat="46.12119" lon="5.9142">
        <ele>379.8</ele>
        <time>2022-09-27T10:20:07Z</time>
      </trkpt>
      <trkpt lat="46.1212" lon="5.91424">
        <ele>380</ele>
        <time>2022-09-27T10:20:08Z</time>
      </trkpt>
      <trkpt lat="46.1212" lon="5.91425">
        <ele>380</ele>
        <time>2022-09-27T10:20:09Z</time>
      </trkpt>
      <trkpt lat="46.1212" lon="5.91431">
        <ele>380.2</ele>
        <time>2022-09-27T10:20:10Z</time>
      </trkpt>
      <trkpt lat="46.1212" lon="5.91432">
        <ele>380.3</ele>
        <time>2022-09-27T10:20:11Z</time>
      </trkpt>
      <trkpt lat="46.12121" lon="5.91436">
        <ele>380.5</ele>
        <time>2022-09-27T10:20:12Z</time>
      </trkpt>
      <trkpt lat="46.12121" lon="5.91437">
        <ele>380.5</ele>
        <time>2022-09-27T10:20:13Z</time>
      </trkpt>
      <trkpt lat="46.12122" lon="5.91441">
        <ele>380.7</ele>
        <time>2022-09-27T10:20:14Z</time>
      </trkpt>
      <trkpt lat="46.12123" lon="5.91442">
        <ele>380.8</ele>
        <time>2022-09-27T10:20:15Z</time>
      </trkpt>
      <trkpt lat="46.12124" lon="5.91446">
        <ele>380.9</ele>
        <time>2022-09-27T10:20:16Z</time>
      </trkpt>
      <trkpt lat="46.12124" lon="5.91447">
        <ele>381</ele>
        <time>2022-09-27T10:20:17Z</time>
      </trkpt>
      <trkpt lat="46.12125" lon="5.91452">
        <ele>381.2</ele>
        <time>2022-09-27T10:20:18Z</time>
      </trkpt>
      <trkpt lat="46.12125" lon="5.91453">
        <ele>381.2</ele>
        <time>2022-09-27T10:20:19Z</time>
      </trkpt>
      <trkpt lat="46.12126" lon="5.91456">
        <ele>381.3</ele>
        <time>2022-09-27T10:20:20Z</time>
      </trkpt>
      <trkpt lat="46.12127" lon="5.91457">
        <ele>381.4</ele>
        <time>2022-09-27T10:20:21Z</time>
      </trkpt>
      <trkpt lat="46.12129" lon="5.91461">
        <ele>381.6</ele>
        <time>2022-09-27T10:20:22Z</time>
      </trkpt>
      <trkpt lat="46.12129" lon="5.91463">
        <ele>381.7</ele>
        <time>2022-09-27T10:20:23Z</time>
      </trkpt>
      <trkpt lat="46.1213" lon="5.91465">
        <ele>381.8</ele>
        <time>2022-09-27T10:20:24Z</time>
      </trkpt>
      <trkpt lat="46.12131" lon="5.91467">
        <ele>381.9</ele>
        <time>2022-09-27T10:20:25Z</time>
      </trkpt>
      <trkpt lat="46.12133" lon="5.91471">
        <ele>382</ele>
        <time>2022-09-27T10:20:26Z</time>
      </trkpt>
      <trkpt lat="46.12134" lon="5.91472">
        <ele>382.1</ele>
        <time>2022-09-27T10:20:27Z</time>
      </trkpt>
      <trkpt lat="46.12137" lon="5.91476">
        <ele>382.3</ele>
        <time>2022-09-27T10:20:28Z</time>
      </trkpt>
      <trkpt lat="46.12139" lon="5.91479">
        <ele>382.4</ele>
        <time>2022-09-27T10:20:29Z</time>
      </trkpt>
      <trkpt lat="46.12141" lon="5.9148">
        <ele>382.5</ele>
        <time>2022-09-27T10:20:30Z</time>
      </trkpt>
      <trkpt lat="46.12143" lon="5.91484">
        <ele>382.7</ele>
        <time>2022-09-27T10:20:31Z</time>
      </trkpt>
      <trkpt lat="46.12144" lon="5.91485">
        <ele>382.7</ele>
        <time>2022-09-27T10:20:32Z</time>
      </trkpt>
      <trkpt lat="46.12146" lon="5.91488">
        <ele>382.9</ele>
        <time>2022-09-27T10:20:33Z</time>
      </trkpt>
      <trkpt lat="46.12147" lon="5.91489">
        <ele>383</ele>
        <time>2022-09-27T10:20:34Z</time>
      </trkpt>
      <trkpt lat="46.1215" lon="5.91492">
        <ele>383.1</ele>
        <time>2022-09-27T10:20:35Z</time>
      </trkpt>
      <trkpt lat="46.12151" lon="5.91493">
        <ele>383.2</ele>
        <time>2022-09-27T10:20:36Z</time>
      </trkpt>
      <trkpt lat="46.12153" lon="5.91496">
        <ele>383.3</ele>
        <time>2022-09-27T10:20:37Z</time>
      </trkpt>
      <trkpt lat="46.12154" lon="5.91497">
        <ele>383.4</ele>
        <time>2022-09-27T10:20:38Z</time>
      </trkpt>
      <trkpt lat="46.12155" lon="5.915">
        <ele>383.5</ele>
        <time>2022-09-27T10:20:39Z</time>
      </trkpt>
      <trkpt lat="46.12156" lon="5.91501">
        <ele>383.5</ele>
        <time>2022-09-27T10:20:40Z</time>
      </trkpt>
      <trkpt lat="46.12158" lon="5.91505">
        <ele>383.7</ele>
        <time>2022-09-27T10:20:41Z</time>
      </trkpt>
      <trkpt lat="46.12158" lon="5.91506">
        <ele>383.7</ele>
        <time>2022-09-27T10:20:42Z</time>
      </trkpt>
      <trkpt lat="46.1216" lon="5.9151">
        <ele>383.9</ele>
        <time>2022-09-27T10:20:43Z</time>
      </trkpt>
      <trkpt lat="46.1216" lon="5.9151">
        <ele>383.9</ele>
        <time>2022-09-27T10:20:44Z</time>
      </trkpt>
      <trkpt lat="46.12162" lon="5.91514">
        <ele>384.1</ele>
        <time>2022-09-27T10:20:45Z</time>
      </trkpt>
      <trkpt lat="46.12163" lon="5.91515">
        <ele>384.1</ele>
        <time>2022-09-27T10:20:46Z</time>
      </trkpt>
      <trkpt lat="46.12165" lon="5.91519">
        <ele>384.3</ele>
        <time>2022-09-27T10:20:47Z</time>
      </trkpt>
      <trkpt lat="46.12165" lon="5.9152">
        <ele>384.4</ele>
        <time>2022-09-27T10:20:48Z</time>
      </trkpt>
      <trkpt lat="46.12166" lon="5.91521">
        <ele>384.4</ele>
        <time>2022-09-27T10:20:49Z</time>
      </trkpt>
      <trkpt lat="46.12166" lon="5.91524">
        <ele>384.5</ele>
        <time>2022-09-27T10:20:50Z</time>
      </trkpt>
      <trkpt lat="46.12167" lon="5.91528">
        <ele>384.7</ele>
        <time>2022-09-27T10:20:51Z</time>
      </trkpt>
      <trkpt lat="46.12168" lon="5.91529">
        <ele>384.7</ele>
        <time>2022-09-27T10:20:52Z</time>
      </trkpt>
      <trkpt lat="46.12169" lon="5.91533">
        <ele>384.9</ele>
        <time>2022-09-27T10:20:53Z</time>
      </trkpt>
      <trkpt lat="46.1217" lon="5.91534">
        <ele>384.9</ele>
        <time>2022-09-27T10:20:54Z</time>
      </trkpt>
      <trkpt lat="46.12171" lon="5.91538">
        <ele>385.1</ele>
        <time>2022-09-27T10:20:55Z</time>
      </trkpt>
      <trkpt lat="46.12171" lon="5.91539">
        <ele>385.1</ele>
        <time>2022-09-27T10:20:56Z</time>
      </trkpt>
      <trkpt lat="46.12172" lon="5.91543">
        <ele>385.3</ele>
        <time>2022-09-27T10:20:57Z</time>
      </trkpt>
      <trkpt lat="46.12172" lon="5.91544">
        <ele>385.4</ele>
        <time>2022-09-27T10:20:58Z</time>
      </trkpt>
      <trkpt lat="46.12173" lon="5.91548">
        <ele>385.5</ele>
        <time>2022-09-27T10:20:59Z</time>
      </trkpt>
      <trkpt lat="46.12173" lon="5.91549">
        <ele>385.6</ele>
        <time>2022-09-27T10:21:00Z</time>
      </trkpt>
      <trkpt lat="46.12174" lon="5.91551">
        <ele>385.6</ele>
        <time>2022-09-27T10:21:01Z</time>
      </trkpt>
      <trkpt lat="46.12175" lon="5.91554">
        <ele>385.7</ele>
        <time>2022-09-27T10:21:02Z</time>
      </trkpt>
      <trkpt lat="46.12175" lon="5.91559">
        <ele>385.9</ele>
        <time>2022-09-27T10:21:03Z</time>
      </trkpt>
      <trkpt lat="46.12176" lon="5.9156">
        <ele>386</ele>
        <time>2022-09-27T10:21:04Z</time>
      </trkpt>
      <trkpt lat="46.12176" lon="5.91564">
        <ele>386.1</ele>
        <time>2022-09-27T10:21:05Z</time>
      </trkpt>
      <trkpt lat="46.12177" lon="5.91565">
        <ele>386.2</ele>
        <time>2022-09-27T10:21:06Z</time>
      </trkpt>
      <trkpt lat="46.12178" lon="5.91569">
        <ele>386.3</ele>
        <time>2022-09-27T10:21:07Z</time>
      </trkpt>
      <trkpt lat="46.12178" lon="5.91571">
        <ele>386.4</ele>
        <time>2022-09-27T10:21:08Z</time>
      </trkpt>
      <trkpt lat="46.12178" lon="5.91573">
        <ele>386.5</ele>
        <time>2022-09-27T10:21:09Z</time>
      </trkpt>
      <trkpt lat="46.12179" lon="5.91577">
        <ele>386.7</ele>
        <time>2022-09-27T10:21:10Z</time>
      </trkpt>
      <trkpt lat="46.12179" lon="5.91579">
        <ele>386.7</ele>
        <time>2022-09-27T10:21:11Z</time>
      </trkpt>
      <trkpt lat="46.1218" lon="5.91583">
        <ele>386.9</ele>
        <time>2022-09-27T10:21:12Z</time>
      </trkpt>
      <trkpt lat="46.1218" lon="5.91584">
        <ele>386.9</ele>
        <time>2022-09-27T10:21:13Z</time>
      </trkpt>
      <trkpt lat="46.12181" lon="5.91588">
        <ele>387.1</ele>
        <time>2022-09-27T10:21:14Z</time>
      </trkpt>
      <trkpt lat="46.12181" lon="5.9159">
        <ele>387.2</ele>
        <time>2022-09-27T10:21:15Z</time>
      </trkpt>
      <trkpt lat="46.12182" lon="5.91592">
        <ele>387.3</ele>
        <time>2022-09-27T10:21:16Z</time>
      </trkpt>
      <trkpt lat="46.12182" lon="5.91595">
        <ele>387.4</ele>
        <time>2022-09-27T10:21:17Z</time>
      </trkpt>
      <trkpt lat="46.12183" lon="5.91598">
        <ele>387.6</ele>
        <time>2022-09-27T10:21:18Z</time>
      </trkpt>
      <trkpt lat="46.12183" lon="5.916">
        <ele>387.6</ele>
        <time>2022-09-27T10:21:19Z</time>
      </trkpt>
      <trkpt lat="46.12184" lon="5.91604">
        <ele>387.8</ele>
        <time>2022-09-27T10:21:20Z</time>
      </trkpt>
      <trkpt lat="46.12185" lon="5.91606">
        <ele>387.9</ele>
        <time>2022-09-27T10:21:21Z</time>
      </trkpt>
      <trkpt lat="46.12185" lon="5.91608">
        <ele>388</ele>
        <time>2022-09-27T10:21:22Z</time>
      </trkpt>
      <trkpt lat="46.12185" lon="5.9161">
        <ele>388.1</ele>
        <time>2022-09-27T10:21:23Z</time>
      </trkpt>
      <trkpt lat="46.12186" lon="5.91613">
        <ele>388.2</ele>
        <time>2022-09-27T10:21:24Z</time>
      </trkpt>
      <trkpt lat="46.12186" lon="5.91615">
        <ele>388.3</ele>
        <time>2022-09-27T10:21:25Z</time>
      </trkpt>
      <trkpt lat="46.12187" lon="5.9162">
        <ele>388.5</ele>
        <time>2022-09-27T10:21:26Z</time>
      </trkpt>
      <trkpt lat="46.12187" lon="5.91621">
        <ele>388.5</ele>
        <time>2022-09-27T10:21:27Z</time>
      </trkpt>
      <trkpt lat="46.12188" lon="5.91625">
        <ele>388.7</ele>
        <time>2022-09-27T10:21:28Z</time>
      </trkpt>
      <trkpt lat="46.12188" lon="5.91626">
        <ele>388.8</ele>
        <time>2022-09-27T10:21:29Z</time>
      </trkpt>
      <trkpt lat="46.12188" lon="5.9163">
        <ele>389</ele>
        <time>2022-09-27T10:21:30Z</time>
      </trkpt>
      <trkpt lat="46.12189" lon="5.91631">
        <ele>389</ele>
        <time>2022-09-27T10:21:31Z</time>
      </trkpt>
      <trkpt lat="46.12189" lon="5.91635">
        <ele>389.2</ele>
        <time>2022-09-27T10:21:32Z</time>
      </trkpt>
      <trkpt lat="46.12189" lon="5.91637">
        <ele>389.3</ele>
        <time>2022-09-27T10:21:33Z</time>
      </trkpt>
      <trkpt lat="46.1219" lon="5.91641">
        <ele>389.5</ele>
        <time>2022-09-27T10:21:34Z</time>
      </trkpt>
      <trkpt lat="46.1219" lon="5.91643">
        <ele>389.5</ele>
        <time>2022-09-27T10:21:35Z</time>
      </trkpt>
      <trkpt lat="46.1219" lon="5.91647">
        <ele>389.7</ele>
        <time>2022-09-27T10:21:36Z</time>
      </trkpt>
      <trkpt lat="46.1219" lon="5.91649">
        <ele>389.8</ele>
        <time>2022-09-27T10:21:37Z</time>
      </trkpt>
      <trkpt lat="46.12191" lon="5.91651">
        <ele>389.9</ele>
        <time>2022-09-27T10:21:38Z</time>
      </trkpt>
      <trkpt lat="46.12191" lon="5.91654">
        <ele>390</ele>
        <time>2022-09-27T10:21:39Z</time>
      </trkpt>
      <trkpt lat="46.12191" lon="5.91658">
        <ele>390.1</ele>
        <time>2022-09-27T10:21:40Z</time>
      </trkpt>
      <trkpt lat="46.12192" lon="5.91659">
        <ele>390.2</ele>
        <time>2022-09-27T10:21:41Z</time>
      </trkpt>
      <trkpt lat="46.12192" lon="5.91663">
        <ele>390.4</ele>
        <time>2022-09-27T10:21:42Z</time>
      </trkpt>
      <trkpt lat="46.12192" lon="5.91664">
        <ele>390.4</ele>
        <time>2022-09-27T10:21:43Z</time>
      </trkpt>
      <trkpt lat="46.12192" lon="5.91667">
        <ele>390.5</ele>
        <time>2022-09-27T10:21:44Z</time>
      </trkpt>
      <trkpt lat="46.12192" lon="5.9167">
        <ele>390.6</ele>
        <time>2022-09-27T10:21:45Z</time>
      </trkpt>
      <trkpt lat="46.12192" lon="5.91672">
        <ele>390.7</ele>
        <time>2022-09-27T10:21:46Z</time>
      </trkpt>
      <trkpt lat="46.12192" lon="5.91675">
        <ele>390.8</ele>
        <time>2022-09-27T10:21:47Z</time>
      </trkpt>
      <trkpt lat="46.12192" lon="5.91679">
        <ele>391</ele>
        <time>2022-09-27T10:21:48Z</time>
      </trkpt>
      <trkpt lat="46.12192" lon="5.9168">
        <ele>391.1</ele>
        <time>2022-09-27T10:21:49Z</time>
      </trkpt>
      <trkpt lat="46.12192" lon="5.91684">
        <ele>391.2</ele>
        <time>2022-09-27T10:21:50Z</time>
      </trkpt>
      <trkpt lat="46.12192" lon="5.91685">
        <ele>391.3</ele>
        <time>2022-09-27T10:21:51Z</time>
      </trkpt>
      <trkpt lat="46.12191" lon="5.9169">
        <ele>391.5</ele>
        <time>2022-09-27T10:21:52Z</time>
      </trkpt>
      <trkpt lat="46.12192" lon="5.91691">
        <ele>391.5</ele>
        <time>2022-09-27T10:21:53Z</time>
      </trkpt>
      <trkpt lat="46.12192" lon="5.91696">
        <ele>391.7</ele>
        <time>2022-09-27T10:21:54Z</time>
      </trkpt>
      <trkpt lat="46.12192" lon="5.91697">
        <ele>391.7</ele>
        <time>2022-09-27T10:21:55Z</time>
      </trkpt>
      <trkpt lat="46.12191" lon="5.91701">
        <ele>391.9</ele>
        <time>2022-09-27T10:21:56Z</time>
      </trkpt>
      <trkpt lat="46.12191" lon="5.91703">
        <ele>392</ele>
        <time>2022-09-27T10:21:57Z</time>
      </trkpt>
      <trkpt lat="46.12192" lon="5.91708">
        <ele>392.1</ele>
        <time>2022-09-27T10:21:58Z</time>
      </trkpt>
      <trkpt lat="46.12192" lon="5.9171">
        <ele>392.2</ele>
        <time>2022-09-27T10:22:00Z</time>
      </trkpt>
      <trkpt lat="46.12192" lon="5.91712">
        <ele>392.3</ele>
        <time>2022-09-27T10:22:01Z</time>
      </trkpt>
      <trkpt lat="46.12192" lon="5.91714">
        <ele>392.4</ele>
        <time>2022-09-27T10:22:02Z</time>
      </trkpt>
      <trkpt lat="46.12192" lon="5.91717">
        <ele>392.5</ele>
        <time>2022-09-27T10:22:03Z</time>
      </trkpt>
      <trkpt lat="46.12192" lon="5.91719">
        <ele>392.5</ele>
        <time>2022-09-27T10:22:04Z</time>
      </trkpt>
      <trkpt lat="46.12192" lon="5.91723">
        <ele>392.7</ele>
        <time>2022-09-27T10:22:05Z</time>
      </trkpt>
      <trkpt lat="46.12192" lon="5.91725">
        <ele>392.7</ele>
        <time>2022-09-27T10:22:06Z</time>
      </trkpt>
      <trkpt lat="46.12192" lon="5.91729">
        <ele>392.9</ele>
        <time>2022-09-27T10:22:07Z</time>
      </trkpt>
      <trkpt lat="46.12192" lon="5.9173">
        <ele>392.9</ele>
        <time>2022-09-27T10:22:08Z</time>
      </trkpt>
      <trkpt lat="46.12191" lon="5.91735">
        <ele>393.1</ele>
        <time>2022-09-27T10:22:09Z</time>
      </trkpt>
      <trkpt lat="46.12191" lon="5.91736">
        <ele>393.2</ele>
        <time>2022-09-27T10:22:10Z</time>
      </trkpt>
      <trkpt lat="46.12191" lon="5.91738">
        <ele>393.2</ele>
        <time>2022-09-27T10:22:11Z</time>
      </trkpt>
      <trkpt lat="46.12191" lon="5.91741">
        <ele>393.3</ele>
        <time>2022-09-27T10:22:12Z</time>
      </trkpt>
      <trkpt lat="46.12192" lon="5.91746">
        <ele>393.5</ele>
        <time>2022-09-27T10:22:13Z</time>
      </trkpt>
      <trkpt lat="46.12192" lon="5.91747">
        <ele>393.6</ele>
        <time>2022-09-27T10:22:14Z</time>
      </trkpt>
      <trkpt lat="46.12192" lon="5.9175">
        <ele>393.7</ele>
        <time>2022-09-27T10:22:15Z</time>
      </trkpt>
      <trkpt lat="46.12192" lon="5.91752">
        <ele>393.7</ele>
        <time>2022-09-27T10:22:16Z</time>
      </trkpt>
      <trkpt lat="46.12192" lon="5.91756">
        <ele>393.9</ele>
        <time>2022-09-27T10:22:17Z</time>
      </trkpt>
      <trkpt lat="46.12192" lon="5.91758">
        <ele>393.9</ele>
        <time>2022-09-27T10:22:18Z</time>
      </trkpt>
      <trkpt lat="46.12192" lon="5.91762">
        <ele>394.1</ele>
        <time>2022-09-27T10:22:19Z</time>
      </trkpt>
      <trkpt lat="46.12192" lon="5.91767">
        <ele>394.3</ele>
        <time>2022-09-27T10:22:20Z</time>
      </trkpt>
      <trkpt lat="46.12192" lon="5.91768">
        <ele>394.3</ele>
        <time>2022-09-27T10:22:21Z</time>
      </trkpt>
      <trkpt lat="46.12191" lon="5.9177">
        <ele>394.4</ele>
        <time>2022-09-27T10:22:22Z</time>
      </trkpt>
      <trkpt lat="46.12191" lon="5.91773">
        <ele>394.5</ele>
        <time>2022-09-27T10:22:23Z</time>
      </trkpt>
      <trkpt lat="46.12191" lon="5.91777">
        <ele>394.7</ele>
        <time>2022-09-27T10:22:24Z</time>
      </trkpt>
      <trkpt lat="46.12191" lon="5.91778">
        <ele>394.7</ele>
        <time>2022-09-27T10:22:25Z</time>
      </trkpt>
      <trkpt lat="46.12191" lon="5.91781">
        <ele>394.8</ele>
        <time>2022-09-27T10:22:26Z</time>
      </trkpt>
      <trkpt lat="46.1219" lon="5.91783">
        <ele>394.9</ele>
        <time>2022-09-27T10:22:27Z</time>
      </trkpt>
      <trkpt lat="46.1219" lon="5.91786">
        <ele>395</ele>
        <time>2022-09-27T10:22:28Z</time>
      </trkpt>
      <trkpt lat="46.1219" lon="5.91788">
        <ele>395.1</ele>
        <time>2022-09-27T10:22:29Z</time>
      </trkpt>
      <trkpt lat="46.1219" lon="5.91793">
        <ele>395.3</ele>
        <time>2022-09-27T10:22:30Z</time>
      </trkpt>
      <trkpt lat="46.1219" lon="5.91794">
        <ele>395.4</ele>
        <time>2022-09-27T10:22:31Z</time>
      </trkpt>
      <trkpt lat="46.12189" lon="5.91798">
        <ele>395.5</ele>
        <time>2022-09-27T10:22:32Z</time>
      </trkpt>
      <trkpt lat="46.12189" lon="5.91799">
        <ele>395.6</ele>
        <time>2022-09-27T10:22:33Z</time>
      </trkpt>
      <trkpt lat="46.12189" lon="5.91804">
        <ele>395.8</ele>
        <time>2022-09-27T10:22:34Z</time>
      </trkpt>
      <trkpt lat="46.12189" lon="5.91805">
        <ele>395.8</ele>
        <time>2022-09-27T10:22:35Z</time>
      </trkpt>
      <trkpt lat="46.12188" lon="5.91807">
        <ele>395.9</ele>
        <time>2022-09-27T10:22:36Z</time>
      </trkpt>
      <trkpt lat="46.12188" lon="5.9181">
        <ele>396</ele>
        <time>2022-09-27T10:22:37Z</time>
      </trkpt>
      <trkpt lat="46.12187" lon="5.91812">
        <ele>396.1</ele>
        <time>2022-09-27T10:22:38Z</time>
      </trkpt>
      <trkpt lat="46.12188" lon="5.91815">
        <ele>396.2</ele>
        <time>2022-09-27T10:22:39Z</time>
      </trkpt>
      <trkpt lat="46.12187" lon="5.91817">
        <ele>396.3</ele>
        <time>2022-09-27T10:22:40Z</time>
      </trkpt>
      <trkpt lat="46.12186" lon="5.91819">
        <ele>396.4</ele>
        <time>2022-09-27T10:22:41Z</time>
      </trkpt>
      <trkpt lat="46.12185" lon="5.91823">
        <ele>396.6</ele>
        <time>2022-09-27T10:22:42Z</time>
      </trkpt>
      <trkpt lat="46.12185" lon="5.91825">
        <ele>396.6</ele>
        <time>2022-09-27T10:22:43Z</time>
      </trkpt>
      <trkpt lat="46.12184" lon="5.91829">
        <ele>396.8</ele>
        <time>2022-09-27T10:22:44Z</time>
      </trkpt>
      <trkpt lat="46.12184" lon="5.9183">
        <ele>396.9</ele>
        <time>2022-09-27T10:22:45Z</time>
      </trkpt>
      <trkpt lat="46.12182" lon="5.91833">
        <ele>397</ele>
        <time>2022-09-27T10:22:46Z</time>
      </trkpt>
      <trkpt lat="46.12182" lon="5.91835">
        <ele>397.1</ele>
        <time>2022-09-27T10:22:47Z</time>
      </trkpt>
      <trkpt lat="46.12181" lon="5.91837">
        <ele>397.2</ele>
        <time>2022-09-27T10:22:48Z</time>
      </trkpt>
      <trkpt lat="46.1218" lon="5.91839">
        <ele>397.3</ele>
        <time>2022-09-27T10:22:49Z</time>
      </trkpt>
      <trkpt lat="46.12179" lon="5.91842">
        <ele>397.5</ele>
        <time>2022-09-27T10:22:50Z</time>
      </trkpt>
      <trkpt lat="46.12178" lon="5.91843">
        <ele>397.5</ele>
        <time>2022-09-27T10:22:51Z</time>
      </trkpt>
      <trkpt lat="46.12177" lon="5.91847">
        <ele>397.7</ele>
        <time>2022-09-27T10:22:52Z</time>
      </trkpt>
      <trkpt lat="46.12176" lon="5.91848">
        <ele>397.7</ele>
        <time>2022-09-27T10:22:53Z</time>
      </trkpt>
      <trkpt lat="46.12175" lon="5.91851">
        <ele>397.9</ele>
        <time>2022-09-27T10:22:54Z</time>
      </trkpt>
      <trkpt lat="46.12174" lon="5.91852">
        <ele>398</ele>
        <time>2022-09-27T10:22:55Z</time>
      </trkpt>
      <trkpt lat="46.12173" lon="5.91854">
        <ele>398.1</ele>
        <time>2022-09-27T10:22:56Z</time>
      </trkpt>
      <trkpt lat="46.12172" lon="5.91856">
        <ele>398.2</ele>
        <time>2022-09-27T10:22:57Z</time>
      </trkpt>
      <trkpt lat="46.12171" lon="5.91858">
        <ele>398.3</ele>
        <time>2022-09-27T10:22:58Z</time>
      </trkpt>
      <trkpt lat="46.1217" lon="5.9186">
        <ele>398.4</ele>
        <time>2022-09-27T10:22:59Z</time>
      </trkpt>
      <trkpt lat="46.12168" lon="5.91863">
        <ele>398.6</ele>
        <time>2022-09-27T10:23:00Z</time>
      </trkpt>
      <trkpt lat="46.12167" lon="5.91864">
        <ele>398.7</ele>
        <time>2022-09-27T10:23:01Z</time>
      </trkpt>
      <trkpt lat="46.12165" lon="5.91867">
        <ele>398.9</ele>
        <time>2022-09-27T10:23:02Z</time>
      </trkpt>
      <trkpt lat="46.12164" lon="5.91868">
        <ele>398.9</ele>
        <time>2022-09-27T10:23:03Z</time>
      </trkpt>
      <trkpt lat="46.12162" lon="5.91869">
        <ele>399.1</ele>
        <time>2022-09-27T10:23:04Z</time>
      </trkpt>
      <trkpt lat="46.12161" lon="5.91871">
        <ele>399.2</ele>
        <time>2022-09-27T10:23:05Z</time>
      </trkpt>
      <trkpt lat="46.12159" lon="5.91873">
        <ele>399.4</ele>
        <time>2022-09-27T10:23:06Z</time>
      </trkpt>
      <trkpt lat="46.12158" lon="5.91874">
        <ele>399.4</ele>
        <time>2022-09-27T10:23:07Z</time>
      </trkpt>
      <trkpt lat="46.12156" lon="5.91876">
        <ele>399.6</ele>
        <time>2022-09-27T10:23:08Z</time>
      </trkpt>
      <trkpt lat="46.12155" lon="5.91876">
        <ele>399.7</ele>
        <time>2022-09-27T10:23:09Z</time>
      </trkpt>
      <trkpt lat="46.12153" lon="5.91877">
        <ele>399.8</ele>
        <time>2022-09-27T10:23:10Z</time>
      </trkpt>
      <trkpt lat="46.12152" lon="5.91879">
        <ele>399.9</ele>
        <time>2022-09-27T10:23:11Z</time>
      </trkpt>
      <trkpt lat="46.12149" lon="5.91881">
        <ele>400.1</ele>
        <time>2022-09-27T10:23:12Z</time>
      </trkpt>
      <trkpt lat="46.12148" lon="5.91882">
        <ele>400.3</ele>
        <time>2022-09-27T10:23:13Z</time>
      </trkpt>
      <trkpt lat="46.12146" lon="5.91883">
        <ele>400.4</ele>
        <time>2022-09-27T10:23:14Z</time>
      </trkpt>
      <trkpt lat="46.12145" lon="5.91884">
        <ele>400.5</ele>
        <time>2022-09-27T10:23:15Z</time>
      </trkpt>
      <trkpt lat="46.12143" lon="5.91886">
        <ele>400.6</ele>
        <time>2022-09-27T10:23:16Z</time>
      </trkpt>
      <trkpt lat="46.1214" lon="5.91887">
        <ele>400.8</ele>
        <time>2022-09-27T10:23:17Z</time>
      </trkpt>
      <trkpt lat="46.1214" lon="5.91888">
        <ele>400.8</ele>
        <time>2022-09-27T10:23:18Z</time>
      </trkpt>
      <trkpt lat="46.12137" lon="5.91889">
        <ele>400.9</ele>
        <time>2022-09-27T10:23:19Z</time>
      </trkpt>
      <trkpt lat="46.12136" lon="5.9189">
        <ele>401</ele>
        <time>2022-09-27T10:23:20Z</time>
      </trkpt>
      <trkpt lat="46.12134" lon="5.91891">
        <ele>401.1</ele>
        <time>2022-09-27T10:23:21Z</time>
      </trkpt>
      <trkpt lat="46.12133" lon="5.91891">
        <ele>401.2</ele>
        <time>2022-09-27T10:23:22Z</time>
      </trkpt>
      <trkpt lat="46.1213" lon="5.91892">
        <ele>401.4</ele>
        <time>2022-09-27T10:23:23Z</time>
      </trkpt>
      <trkpt lat="46.12129" lon="5.91893">
        <ele>401.4</ele>
        <time>2022-09-27T10:23:24Z</time>
      </trkpt>
      <trkpt lat="46.12128" lon="5.91894">
        <ele>401.5</ele>
        <time>2022-09-27T10:23:25Z</time>
      </trkpt>
      <trkpt lat="46.12126" lon="5.91893">
        <ele>401.6</ele>
        <time>2022-09-27T10:23:26Z</time>
      </trkpt>
      <trkpt lat="46.12123" lon="5.91894">
        <ele>401.9</ele>
        <time>2022-09-27T10:23:27Z</time>
      </trkpt>
      <trkpt lat="46.12122" lon="5.91894">
        <ele>401.9</ele>
        <time>2022-09-27T10:23:28Z</time>
      </trkpt>
      <trkpt lat="46.1212" lon="5.91895">
        <ele>402.1</ele>
        <time>2022-09-27T10:23:29Z</time>
      </trkpt>
      <trkpt lat="46.12118" lon="5.91895">
        <ele>402.2</ele>
        <time>2022-09-27T10:23:30Z</time>
      </trkpt>
      <trkpt lat="46.12116" lon="5.91896">
        <ele>402.3</ele>
        <time>2022-09-27T10:23:31Z</time>
      </trkpt>
      <trkpt lat="46.12115" lon="5.91896">
        <ele>402.4</ele>
        <time>2022-09-27T10:23:32Z</time>
      </trkpt>
      <trkpt lat="46.12113" lon="5.91896">
        <ele>402.5</ele>
        <time>2022-09-27T10:23:33Z</time>
      </trkpt>
      <trkpt lat="46.12111" lon="5.91896">
        <ele>402.6</ele>
        <time>2022-09-27T10:23:34Z</time>
      </trkpt>
      <trkpt lat="46.1211" lon="5.91896">
        <ele>402.7</ele>
        <time>2022-09-27T10:23:35Z</time>
      </trkpt>
      <trkpt lat="46.12108" lon="5.91896">
        <ele>402.8</ele>
        <time>2022-09-27T10:23:36Z</time>
      </trkpt>
      <trkpt lat="46.12106" lon="5.91896">
        <ele>402.9</ele>
        <time>2022-09-27T10:23:37Z</time>
      </trkpt>
      <trkpt lat="46.12104" lon="5.91896">
        <ele>403</ele>
        <time>2022-09-27T10:23:38Z</time>
      </trkpt>
      <trkpt lat="46.12102" lon="5.91896">
        <ele>403.1</ele>
        <time>2022-09-27T10:23:39Z</time>
      </trkpt>
      <trkpt lat="46.12101" lon="5.91896">
        <ele>403.2</ele>
        <time>2022-09-27T10:23:40Z</time>
      </trkpt>
      <trkpt lat="46.12098" lon="5.91896">
        <ele>403.4</ele>
        <time>2022-09-27T10:23:41Z</time>
      </trkpt>
      <trkpt lat="46.12097" lon="5.91896">
        <ele>403.5</ele>
        <time>2022-09-27T10:23:42Z</time>
      </trkpt>
      <trkpt lat="46.12094" lon="5.91896">
        <ele>403.6</ele>
        <time>2022-09-27T10:23:43Z</time>
      </trkpt>
      <trkpt lat="46.12093" lon="5.91896">
        <ele>403.7</ele>
        <time>2022-09-27T10:23:44Z</time>
      </trkpt>
      <trkpt lat="46.1209" lon="5.91895">
        <ele>403.9</ele>
        <time>2022-09-27T10:23:45Z</time>
      </trkpt>
      <trkpt lat="46.12089" lon="5.91895">
        <ele>403.9</ele>
        <time>2022-09-27T10:23:46Z</time>
      </trkpt>
      <trkpt lat="46.12088" lon="5.91895">
        <ele>404</ele>
        <time>2022-09-27T10:23:47Z</time>
      </trkpt>
      <trkpt lat="46.12086" lon="5.91895">
        <ele>404.1</ele>
        <time>2022-09-27T10:23:48Z</time>
      </trkpt>
      <trkpt lat="46.12084" lon="5.91895">
        <ele>404.2</ele>
        <time>2022-09-27T10:23:49Z</time>
      </trkpt>
      <trkpt lat="46.12083" lon="5.91894">
        <ele>404.3</ele>
        <time>2022-09-27T10:23:50Z</time>
      </trkpt>
      <trkpt lat="46.1208" lon="5.91894">
        <ele>404.5</ele>
        <time>2022-09-27T10:23:51Z</time>
      </trkpt>
      <trkpt lat="46.12079" lon="5.91894">
        <ele>404.6</ele>
        <time>2022-09-27T10:23:52Z</time>
      </trkpt>
      <trkpt lat="46.12076" lon="5.91894">
        <ele>404.7</ele>
        <time>2022-09-27T10:23:53Z</time>
      </trkpt>
      <trkpt lat="46.12075" lon="5.91894">
        <ele>404.8</ele>
        <time>2022-09-27T10:23:54Z</time>
      </trkpt>
      <trkpt lat="46.12074" lon="5.91894">
        <ele>404.9</ele>
        <time>2022-09-27T10:23:55Z</time>
      </trkpt>
      <trkpt lat="46.12071" lon="5.91894">
        <ele>405.1</ele>
        <time>2022-09-27T10:23:56Z</time>
      </trkpt>
      <trkpt lat="46.1207" lon="5.91894">
        <ele>405.1</ele>
        <time>2022-09-27T10:23:57Z</time>
      </trkpt>
      <trkpt lat="46.12068" lon="5.91894">
        <ele>405.2</ele>
        <time>2022-09-27T10:23:58Z</time>
      </trkpt>
      <trkpt lat="46.12067" lon="5.91894">
        <ele>405.3</ele>
        <time>2022-09-27T10:23:59Z</time>
      </trkpt>
      <trkpt lat="46.12064" lon="5.91893">
        <ele>405.5</ele>
        <time>2022-09-27T10:24:00Z</time>
      </trkpt>
      <trkpt lat="46.12063" lon="5.91893">
        <ele>405.6</ele>
        <time>2022-09-27T10:24:01Z</time>
      </trkpt>
      <trkpt lat="46.1206" lon="5.91893">
        <ele>405.7</ele>
        <time>2022-09-27T10:24:02Z</time>
      </trkpt>
      <trkpt lat="46.12059" lon="5.91893">
        <ele>405.8</ele>
        <time>2022-09-27T10:24:03Z</time>
      </trkpt>
      <trkpt lat="46.12058" lon="5.91893">
        <ele>405.9</ele>
        <time>2022-09-27T10:24:04Z</time>
      </trkpt>
      <trkpt lat="46.12056" lon="5.91893">
        <ele>406</ele>
        <time>2022-09-27T10:24:05Z</time>
      </trkpt>
      <trkpt lat="46.12053" lon="5.91893">
        <ele>406.1</ele>
        <time>2022-09-27T10:24:06Z</time>
      </trkpt>
      <trkpt lat="46.12052" lon="5.91893">
        <ele>406.2</ele>
        <time>2022-09-27T10:24:07Z</time>
      </trkpt>
      <trkpt lat="46.12049" lon="5.91893">
        <ele>406.4</ele>
        <time>2022-09-27T10:24:08Z</time>
      </trkpt>
      <trkpt lat="46.12048" lon="5.91893">
        <ele>406.5</ele>
        <time>2022-09-27T10:24:10Z</time>
      </trkpt>
      <trkpt lat="46.12046" lon="5.91893">
        <ele>406.5</ele>
        <time>2022-09-27T10:24:11Z</time>
      </trkpt>
      <trkpt lat="46.12045" lon="5.91893">
        <ele>406.6</ele>
        <time>2022-09-27T10:24:12Z</time>
      </trkpt>
      <trkpt lat="46.12043" lon="5.91892">
        <ele>406.7</ele>
        <time>2022-09-27T10:24:13Z</time>
      </trkpt>
      <trkpt lat="46.12042" lon="5.91893">
        <ele>406.8</ele>
        <time>2022-09-27T10:24:14Z</time>
      </trkpt>
      <trkpt lat="46.1204" lon="5.91893">
        <ele>406.9</ele>
        <time>2022-09-27T10:24:15Z</time>
      </trkpt>
      <trkpt lat="46.12038" lon="5.91893">
        <ele>407</ele>
        <time>2022-09-27T10:24:16Z</time>
      </trkpt>
      <trkpt lat="46.12037" lon="5.91893">
        <ele>407.1</ele>
        <time>2022-09-27T10:24:17Z</time>
      </trkpt>
      <trkpt lat="46.12035" lon="5.91893">
        <ele>407.2</ele>
        <time>2022-09-27T10:24:18Z</time>
      </trkpt>
      <trkpt lat="46.12033" lon="5.91893">
        <ele>407.3</ele>
        <time>2022-09-27T10:24:19Z</time>
      </trkpt>
      <trkpt lat="46.1203" lon="5.91893">
        <ele>407.4</ele>
        <time>2022-09-27T10:24:20Z</time>
      </trkpt>
      <trkpt lat="46.12028" lon="5.91893">
        <ele>407.5</ele>
        <time>2022-09-27T10:24:21Z</time>
      </trkpt>
      <trkpt lat="46.12024" lon="5.91892">
        <ele>407.7</ele>
        <time>2022-09-27T10:24:22Z</time>
      </trkpt>
      <trkpt lat="46.12023" lon="5.91892">
        <ele>407.8</ele>
        <time>2022-09-27T10:24:24Z</time>
      </trkpt>
      <trkpt lat="46.12021" lon="5.91892">
        <ele>407.9</ele>
        <time>2022-09-27T10:24:25Z</time>
      </trkpt>
      <trkpt lat="46.12019" lon="5.91893">
        <ele>408</ele>
        <time>2022-09-27T10:24:26Z</time>
      </trkpt>
      <trkpt lat="46.12017" lon="5.91893">
        <ele>408.1</ele>
        <time>2022-09-27T10:24:27Z</time>
      </trkpt>
      <trkpt lat="46.12016" lon="5.91893">
        <ele>408.2</ele>
        <time>2022-09-27T10:24:28Z</time>
      </trkpt>
      <trkpt lat="46.12014" lon="5.91892">
        <ele>408.3</ele>
        <time>2022-09-27T10:24:29Z</time>
      </trkpt>
      <trkpt lat="46.12011" lon="5.91893">
        <ele>408.5</ele>
        <time>2022-09-27T10:24:30Z</time>
      </trkpt>
      <trkpt lat="46.12009" lon="5.91893">
        <ele>408.5</ele>
        <time>2022-09-27T10:24:31Z</time>
      </trkpt>
      <trkpt lat="46.12008" lon="5.91892">
        <ele>408.6</ele>
        <time>2022-09-27T10:24:32Z</time>
      </trkpt>
      <trkpt lat="46.12006" lon="5.91892">
        <ele>408.7</ele>
        <time>2022-09-27T10:24:33Z</time>
      </trkpt>
      <trkpt lat="46.12004" lon="5.91892">
        <ele>408.8</ele>
        <time>2022-09-27T10:24:34Z</time>
      </trkpt>
      <trkpt lat="46.12003" lon="5.91893">
        <ele>408.9</ele>
        <time>2022-09-27T10:24:35Z</time>
      </trkpt>
      <trkpt lat="46.12" lon="5.91892">
        <ele>409</ele>
        <time>2022-09-27T10:24:36Z</time>
      </trkpt>
      <trkpt lat="46.11999" lon="5.91892">
        <ele>409.1</ele>
        <time>2022-09-27T10:24:37Z</time>
      </trkpt>
      <trkpt lat="46.11996" lon="5.91893">
        <ele>409.2</ele>
        <time>2022-09-27T10:24:38Z</time>
      </trkpt>
      <trkpt lat="46.11995" lon="5.91892">
        <ele>409.3</ele>
        <time>2022-09-27T10:24:39Z</time>
      </trkpt>
      <trkpt lat="46.11993" lon="5.91892">
        <ele>409.4</ele>
        <time>2022-09-27T10:24:40Z</time>
      </trkpt>
      <trkpt lat="46.11992" lon="5.91892">
        <ele>409.5</ele>
        <time>2022-09-27T10:24:41Z</time>
      </trkpt>
      <trkpt lat="46.11989" lon="5.91892">
        <ele>409.6</ele>
        <time>2022-09-27T10:24:42Z</time>
      </trkpt>
      <trkpt lat="46.11988" lon="5.91892">
        <ele>409.7</ele>
        <time>2022-09-27T10:24:43Z</time>
      </trkpt>
      <trkpt lat="46.11986" lon="5.91891">
        <ele>409.8</ele>
        <time>2022-09-27T10:24:44Z</time>
      </trkpt>
      <trkpt lat="46.11984" lon="5.91891">
        <ele>409.9</ele>
        <time>2022-09-27T10:24:45Z</time>
      </trkpt>
      <trkpt lat="46.11983" lon="5.91891">
        <ele>409.9</ele>
        <time>2022-09-27T10:24:46Z</time>
      </trkpt>
      <trkpt lat="46.11981" lon="5.91891">
        <ele>410</ele>
        <time>2022-09-27T10:24:47Z</time>
      </trkpt>
      <trkpt lat="46.11978" lon="5.91891">
        <ele>410.2</ele>
        <time>2022-09-27T10:24:48Z</time>
      </trkpt>
      <trkpt lat="46.11977" lon="5.91891">
        <ele>410.2</ele>
        <time>2022-09-27T10:24:49Z</time>
      </trkpt>
      <trkpt lat="46.11976" lon="5.91891">
        <ele>410.3</ele>
        <time>2022-09-27T10:24:50Z</time>
      </trkpt>
      <trkpt lat="46.11974" lon="5.91891">
        <ele>410.4</ele>
        <time>2022-09-27T10:24:51Z</time>
      </trkpt>
      <trkpt lat="46.11971" lon="5.9189">
        <ele>410.6</ele>
        <time>2022-09-27T10:24:52Z</time>
      </trkpt>
      <trkpt lat="46.1197" lon="5.9189">
        <ele>410.6</ele>
        <time>2022-09-27T10:24:53Z</time>
      </trkpt>
      <trkpt lat="46.11967" lon="5.91889">
        <ele>410.8</ele>
        <time>2022-09-27T10:24:54Z</time>
      </trkpt>
      <trkpt lat="46.11966" lon="5.91889">
        <ele>410.8</ele>
        <time>2022-09-27T10:24:55Z</time>
      </trkpt>
      <trkpt lat="46.11963" lon="5.91889">
        <ele>411</ele>
        <time>2022-09-27T10:24:56Z</time>
      </trkpt>
      <trkpt lat="46.11962" lon="5.91889">
        <ele>411</ele>
        <time>2022-09-27T10:24:57Z</time>
      </trkpt>
      <trkpt lat="46.11961" lon="5.91889">
        <ele>411.1</ele>
        <time>2022-09-27T10:24:58Z</time>
      </trkpt>
      <trkpt lat="46.11959" lon="5.91888">
        <ele>411.2</ele>
        <time>2022-09-27T10:24:59Z</time>
      </trkpt>
      <trkpt lat="46.11956" lon="5.91888">
        <ele>411.4</ele>
        <time>2022-09-27T10:25:00Z</time>
      </trkpt>
      <trkpt lat="46.11955" lon="5.91888">
        <ele>411.4</ele>
        <time>2022-09-27T10:25:01Z</time>
      </trkpt>
      <trkpt lat="46.11952" lon="5.91888">
        <ele>411.6</ele>
        <time>2022-09-27T10:25:02Z</time>
      </trkpt>
      <trkpt lat="46.11952" lon="5.91888">
        <ele>411.6</ele>
        <time>2022-09-27T10:25:03Z</time>
      </trkpt>
      <trkpt lat="46.11949" lon="5.91886">
        <ele>411.8</ele>
        <time>2022-09-27T10:25:04Z</time>
      </trkpt>
      <trkpt lat="46.11948" lon="5.91886">
        <ele>411.8</ele>
        <time>2022-09-27T10:25:05Z</time>
      </trkpt>
      <trkpt lat="46.11947" lon="5.91885">
        <ele>411.9</ele>
        <time>2022-09-27T10:25:06Z</time>
      </trkpt>
      <trkpt lat="46.11945" lon="5.91886">
        <ele>412</ele>
        <time>2022-09-27T10:25:07Z</time>
      </trkpt>
      <trkpt lat="46.11942" lon="5.91884">
        <ele>412.1</ele>
        <time>2022-09-27T10:25:08Z</time>
      </trkpt>
      <trkpt lat="46.11942" lon="5.91884">
        <ele>412.2</ele>
        <time>2022-09-27T10:25:09Z</time>
      </trkpt>
      <trkpt lat="46.1194" lon="5.91883">
        <ele>412.3</ele>
        <time>2022-09-27T10:25:10Z</time>
      </trkpt>
      <trkpt lat="46.11938" lon="5.91883">
        <ele>412.3</ele>
        <time>2022-09-27T10:25:11Z</time>
      </trkpt>
      <trkpt lat="46.11935" lon="5.91882">
        <ele>412.5</ele>
        <time>2022-09-27T10:25:12Z</time>
      </trkpt>
      <trkpt lat="46.11935" lon="5.91882">
        <ele>412.5</ele>
        <time>2022-09-27T10:25:13Z</time>
      </trkpt>
      <trkpt lat="46.11932" lon="5.91882">
        <ele>412.7</ele>
        <time>2022-09-27T10:25:14Z</time>
      </trkpt>
      <trkpt lat="46.11931" lon="5.91882">
        <ele>412.7</ele>
        <time>2022-09-27T10:25:15Z</time>
      </trkpt>
      <trkpt lat="46.11929" lon="5.9188">
        <ele>412.8</ele>
        <time>2022-09-27T10:25:16Z</time>
      </trkpt>
      <trkpt lat="46.11928" lon="5.9188">
        <ele>412.9</ele>
        <time>2022-09-27T10:25:17Z</time>
      </trkpt>
      <trkpt lat="46.11925" lon="5.9188">
        <ele>413</ele>
        <time>2022-09-27T10:25:18Z</time>
      </trkpt>
      <trkpt lat="46.11924" lon="5.9188">
        <ele>413.1</ele>
        <time>2022-09-27T10:25:19Z</time>
      </trkpt>
      <trkpt lat="46.11921" lon="5.91878">
        <ele>413.3</ele>
        <time>2022-09-27T10:25:20Z</time>
      </trkpt>
      <trkpt lat="46.1192" lon="5.91878">
        <ele>413.3</ele>
        <time>2022-09-27T10:25:21Z</time>
      </trkpt>
      <trkpt lat="46.11917" lon="5.91878">
        <ele>413.4</ele>
        <time>2022-09-27T10:25:22Z</time>
      </trkpt>
      <trkpt lat="46.11916" lon="5.91877">
        <ele>413.5</ele>
        <time>2022-09-27T10:25:23Z</time>
      </trkpt>
      <trkpt lat="46.11915" lon="5.91877">
        <ele>413.6</ele>
        <time>2022-09-27T10:25:24Z</time>
      </trkpt>
      <trkpt lat="46.11913" lon="5.91877">
        <ele>413.7</ele>
        <time>2022-09-27T10:25:25Z</time>
      </trkpt>
      <trkpt lat="46.1191" lon="5.91876">
        <ele>413.8</ele>
        <time>2022-09-27T10:25:26Z</time>
      </trkpt>
      <trkpt lat="46.11909" lon="5.91876">
        <ele>413.9</ele>
        <time>2022-09-27T10:25:27Z</time>
      </trkpt>
      <trkpt lat="46.11907" lon="5.91875">
        <ele>414</ele>
        <time>2022-09-27T10:25:28Z</time>
      </trkpt>
      <trkpt lat="46.11906" lon="5.91875">
        <ele>414.1</ele>
        <time>2022-09-27T10:25:29Z</time>
      </trkpt>
      <trkpt lat="46.11903" lon="5.91874">
        <ele>414.2</ele>
        <time>2022-09-27T10:25:30Z</time>
      </trkpt>
      <trkpt lat="46.11902" lon="5.91874">
        <ele>414.3</ele>
        <time>2022-09-27T10:25:31Z</time>
      </trkpt>
      <trkpt lat="46.119" lon="5.91873">
        <ele>414.4</ele>
        <time>2022-09-27T10:25:32Z</time>
      </trkpt>
      <trkpt lat="46.11899" lon="5.91872">
        <ele>414.4</ele>
        <time>2022-09-27T10:25:33Z</time>
      </trkpt>
      <trkpt lat="46.11896" lon="5.91871">
        <ele>414.6</ele>
        <time>2022-09-27T10:25:34Z</time>
      </trkpt>
      <trkpt lat="46.11895" lon="5.91871">
        <ele>414.6</ele>
        <time>2022-09-27T10:25:35Z</time>
      </trkpt>
      <trkpt lat="46.11892" lon="5.9187">
        <ele>414.8</ele>
        <time>2022-09-27T10:25:36Z</time>
      </trkpt>
      <trkpt lat="46.11891" lon="5.9187">
        <ele>414.9</ele>
        <time>2022-09-27T10:25:37Z</time>
      </trkpt>
      <trkpt lat="46.1189" lon="5.9187">
        <ele>414.9</ele>
        <time>2022-09-27T10:25:38Z</time>
      </trkpt>
      <trkpt lat="46.11888" lon="5.91869">
        <ele>415</ele>
        <time>2022-09-27T10:25:39Z</time>
      </trkpt>
      <trkpt lat="46.11887" lon="5.91869">
        <ele>415.1</ele>
        <time>2022-09-27T10:25:40Z</time>
      </trkpt>
      <trkpt lat="46.11885" lon="5.91868">
        <ele>415.2</ele>
        <time>2022-09-27T10:25:41Z</time>
      </trkpt>
      <trkpt lat="46.11883" lon="5.91867">
        <ele>415.3</ele>
        <time>2022-09-27T10:25:42Z</time>
      </trkpt>
      <trkpt lat="46.11882" lon="5.91867">
        <ele>415.4</ele>
        <time>2022-09-27T10:25:43Z</time>
      </trkpt>
      <trkpt lat="46.1188" lon="5.91867">
        <ele>415.4</ele>
        <time>2022-09-27T10:25:44Z</time>
      </trkpt>
      <trkpt lat="46.11878" lon="5.91867">
        <ele>415.5</ele>
        <time>2022-09-27T10:25:45Z</time>
      </trkpt>
      <trkpt lat="46.11876" lon="5.91866">
        <ele>415.7</ele>
        <time>2022-09-27T10:25:46Z</time>
      </trkpt>
      <trkpt lat="46.11875" lon="5.91866">
        <ele>415.7</ele>
        <time>2022-09-27T10:25:47Z</time>
      </trkpt>
      <trkpt lat="46.11872" lon="5.91865">
        <ele>415.8</ele>
        <time>2022-09-27T10:25:48Z</time>
      </trkpt>
      <trkpt lat="46.11871" lon="5.91865">
        <ele>415.9</ele>
        <time>2022-09-27T10:25:49Z</time>
      </trkpt>
      <trkpt lat="46.11868" lon="5.91863">
        <ele>416</ele>
        <time>2022-09-27T10:25:50Z</time>
      </trkpt>
      <trkpt lat="46.11867" lon="5.91863">
        <ele>416.1</ele>
        <time>2022-09-27T10:25:51Z</time>
      </trkpt>
      <trkpt lat="46.11866" lon="5.91863">
        <ele>416.1</ele>
        <time>2022-09-27T10:25:52Z</time>
      </trkpt>
      <trkpt lat="46.11864" lon="5.91863">
        <ele>416.2</ele>
        <time>2022-09-27T10:25:53Z</time>
      </trkpt>
      <trkpt lat="46.11861" lon="5.91861">
        <ele>416.4</ele>
        <time>2022-09-27T10:25:54Z</time>
      </trkpt>
      <trkpt lat="46.1186" lon="5.91861">
        <ele>416.4</ele>
        <time>2022-09-27T10:25:55Z</time>
      </trkpt>
      <trkpt lat="46.11858" lon="5.9186">
        <ele>416.6</ele>
        <time>2022-09-27T10:25:56Z</time>
      </trkpt>
      <trkpt lat="46.11857" lon="5.91859">
        <ele>416.6</ele>
        <time>2022-09-27T10:25:57Z</time>
      </trkpt>
      <trkpt lat="46.11855" lon="5.9186">
        <ele>416.7</ele>
        <time>2022-09-27T10:25:58Z</time>
      </trkpt>
      <trkpt lat="46.11853" lon="5.91859">
        <ele>416.8</ele>
        <time>2022-09-27T10:25:59Z</time>
      </trkpt>
      <trkpt lat="46.11851" lon="5.91858">
        <ele>416.9</ele>
        <time>2022-09-27T10:26:00Z</time>
      </trkpt>
      <trkpt lat="46.1185" lon="5.91857">
        <ele>417</ele>
        <time>2022-09-27T10:26:01Z</time>
      </trkpt>
      <trkpt lat="46.11847" lon="5.91856">
        <ele>417.1</ele>
        <time>2022-09-27T10:26:02Z</time>
      </trkpt>
      <trkpt lat="46.11846" lon="5.91855">
        <ele>417.2</ele>
        <time>2022-09-27T10:26:03Z</time>
      </trkpt>
      <trkpt lat="46.11844" lon="5.91854">
        <ele>417.3</ele>
        <time>2022-09-27T10:26:04Z</time>
      </trkpt>
      <trkpt lat="46.11842" lon="5.91854">
        <ele>417.3</ele>
        <time>2022-09-27T10:26:05Z</time>
      </trkpt>
      <trkpt lat="46.1184" lon="5.91853">
        <ele>417.5</ele>
        <time>2022-09-27T10:26:06Z</time>
      </trkpt>
      <trkpt lat="46.11839" lon="5.91852">
        <ele>417.5</ele>
        <time>2022-09-27T10:26:07Z</time>
      </trkpt>
      <trkpt lat="46.11836" lon="5.91851">
        <ele>417.7</ele>
        <time>2022-09-27T10:26:08Z</time>
      </trkpt>
      <trkpt lat="46.11835" lon="5.91851">
        <ele>417.7</ele>
        <time>2022-09-27T10:26:09Z</time>
      </trkpt>
      <trkpt lat="46.11834" lon="5.9185">
        <ele>417.7</ele>
        <time>2022-09-27T10:26:10Z</time>
      </trkpt>
      <trkpt lat="46.1183" lon="5.91849">
        <ele>417.9</ele>
        <time>2022-09-27T10:26:12Z</time>
      </trkpt>
      <trkpt lat="46.11829" lon="5.91849">
        <ele>418</ele>
        <time>2022-09-27T10:26:13Z</time>
      </trkpt>
      <trkpt lat="46.11827" lon="5.91848">
        <ele>418</ele>
        <time>2022-09-27T10:26:14Z</time>
      </trkpt>
      <trkpt lat="46.11826" lon="5.91848">
        <ele>418.1</ele>
        <time>2022-09-27T10:26:15Z</time>
      </trkpt>
      <trkpt lat="46.11823" lon="5.91847">
        <ele>418.2</ele>
        <time>2022-09-27T10:26:16Z</time>
      </trkpt>
      <trkpt lat="46.11822" lon="5.91847">
        <ele>418.2</ele>
        <time>2022-09-27T10:26:17Z</time>
      </trkpt>
      <trkpt lat="46.11819" lon="5.91846">
        <ele>418.4</ele>
        <time>2022-09-27T10:26:18Z</time>
      </trkpt>
      <trkpt lat="46.11819" lon="5.91845">
        <ele>418.4</ele>
        <time>2022-09-27T10:26:19Z</time>
      </trkpt>
      <trkpt lat="46.11816" lon="5.91845">
        <ele>418.5</ele>
        <time>2022-09-27T10:26:20Z</time>
      </trkpt>
      <trkpt lat="46.11815" lon="5.91844">
        <ele>418.5</ele>
        <time>2022-09-27T10:26:21Z</time>
      </trkpt>
      <trkpt lat="46.11813" lon="5.91844">
        <ele>418.6</ele>
        <time>2022-09-27T10:26:22Z</time>
      </trkpt>
      <trkpt lat="46.11811" lon="5.91843">
        <ele>418.7</ele>
        <time>2022-09-27T10:26:23Z</time>
      </trkpt>
      <trkpt lat="46.1181" lon="5.91843">
        <ele>418.8</ele>
        <time>2022-09-27T10:26:24Z</time>
      </trkpt>
      <trkpt lat="46.11808" lon="5.91842">
        <ele>418.8</ele>
        <time>2022-09-27T10:26:25Z</time>
      </trkpt>
      <trkpt lat="46.11806" lon="5.91842">
        <ele>418.9</ele>
        <time>2022-09-27T10:26:26Z</time>
      </trkpt>
      <trkpt lat="46.11805" lon="5.91842">
        <ele>419</ele>
        <time>2022-09-27T10:26:27Z</time>
      </trkpt>
      <trkpt lat="46.11803" lon="5.91842">
        <ele>419</ele>
        <time>2022-09-27T10:26:28Z</time>
      </trkpt>
      <trkpt lat="46.11801" lon="5.91842">
        <ele>419.1</ele>
        <time>2022-09-27T10:26:29Z</time>
      </trkpt>
      <trkpt lat="46.11799" lon="5.9184">
        <ele>419.2</ele>
        <time>2022-09-27T10:26:30Z</time>
      </trkpt>
      <trkpt lat="46.11798" lon="5.9184">
        <ele>419.2</ele>
        <time>2022-09-27T10:26:31Z</time>
      </trkpt>
      <trkpt lat="46.11796" lon="5.91837">
        <ele>419.3</ele>
        <time>2022-09-27T10:26:32Z</time>
      </trkpt>
      <trkpt lat="46.11796" lon="5.91836">
        <ele>419.4</ele>
        <time>2022-09-27T10:26:33Z</time>
      </trkpt>
      <trkpt lat="46.11795" lon="5.91834">
        <ele>419.4</ele>
        <time>2022-09-27T10:26:34Z</time>
      </trkpt>
      <trkpt lat="46.11795" lon="5.91832">
        <ele>419.5</ele>
        <time>2022-09-27T10:26:35Z</time>
      </trkpt>
      <trkpt lat="46.11795" lon="5.91829">
        <ele>419.6</ele>
        <time>2022-09-27T10:26:36Z</time>
      </trkpt>
      <trkpt lat="46.11796" lon="5.91827">
        <ele>419.7</ele>
        <time>2022-09-27T10:26:37Z</time>
      </trkpt>
      <trkpt lat="46.11796" lon="5.91825">
        <ele>419.7</ele>
        <time>2022-09-27T10:26:38Z</time>
      </trkpt>
      <trkpt lat="46.11795" lon="5.91822">
        <ele>419.8</ele>
        <time>2022-09-27T10:26:39Z</time>
      </trkpt>
      <trkpt lat="46.11794" lon="5.9182">
        <ele>419.9</ele>
        <time>2022-09-27T10:26:40Z</time>
      </trkpt>
      <trkpt lat="46.11793" lon="5.91817">
        <ele>419.9</ele>
        <time>2022-09-27T10:26:41Z</time>
      </trkpt>
      <trkpt lat="46.11792" lon="5.91815">
        <ele>419.9</ele>
        <time>2022-09-27T10:26:42Z</time>
      </trkpt>
      <trkpt lat="46.11791" lon="5.91814">
        <ele>419.9</ele>
        <time>2022-09-27T10:26:43Z</time>
      </trkpt>
      <trkpt lat="46.1179" lon="5.91813">
        <ele>419.9</ele>
        <time>2022-09-27T10:26:44Z</time>
      </trkpt>
      <trkpt lat="46.11789" lon="5.91813">
        <ele>419.9</ele>
        <time>2022-09-27T10:26:45Z</time>
      </trkpt>
      <trkpt lat="46.11787" lon="5.91812">
        <ele>420</ele>
        <time>2022-09-27T10:26:46Z</time>
      </trkpt>
      <trkpt lat="46.11785" lon="5.91812">
        <ele>420</ele>
        <time>2022-09-27T10:26:47Z</time>
      </trkpt>
      <trkpt lat="46.11782" lon="5.91812">
        <ele>420</ele>
        <time>2022-09-27T10:26:48Z</time>
      </trkpt>
      <trkpt lat="46.11781" lon="5.91812">
        <ele>420</ele>
        <time>2022-09-27T10:26:49Z</time>
      </trkpt>
      <trkpt lat="46.1178" lon="5.91812">
        <ele>420.1</ele>
        <time>2022-09-27T10:26:50Z</time>
      </trkpt>
      <trkpt lat="46.11779" lon="5.91812">
        <ele>420.1</ele>
        <time>2022-09-27T10:26:51Z</time>
      </trkpt>
      <trkpt lat="46.11777" lon="5.9181">
        <ele>420.1</ele>
        <time>2022-09-27T10:26:52Z</time>
      </trkpt>
      <trkpt lat="46.11774" lon="5.91809">
        <ele>420.1</ele>
        <time>2022-09-27T10:26:53Z</time>
      </trkpt>
      <trkpt lat="46.11773" lon="5.91809">
        <ele>420.1</ele>
        <time>2022-09-27T10:26:54Z</time>
      </trkpt>
      <trkpt lat="46.11774" lon="5.91809">
        <ele>420.1</ele>
        <time>2022-09-27T10:26:55Z</time>
      </trkpt>
      <trkpt lat="46.11774" lon="5.9181">
        <ele>420.1</ele>
        <time>2022-09-27T10:26:56Z</time>
      </trkpt>
      <trkpt lat="46.11775" lon="5.9181">
        <ele>420.2</ele>
        <time>2022-09-27T10:26:57Z</time>
      </trkpt>
      <trkpt lat="46.11776" lon="5.9181">
        <ele>420.2</ele>
        <time>2022-09-27T10:26:58Z</time>
      </trkpt>
      <trkpt lat="46.11776" lon="5.91811">
        <ele>420.2</ele>
        <time>2022-09-27T10:26:59Z</time>
      </trkpt>
      <trkpt lat="46.11777" lon="5.91811">
        <ele>420.2</ele>
        <time>2022-09-27T10:27:00Z</time>
      </trkpt>
      <trkpt lat="46.11778" lon="5.91811">
        <ele>420.2</ele>
        <time>2022-09-27T10:27:01Z</time>
      </trkpt>
      <trkpt lat="46.11778" lon="5.91812">
        <ele>420.2</ele>
        <time>2022-09-27T10:27:02Z</time>
      </trkpt>
      <trkpt lat="46.11779" lon="5.91812">
        <ele>420.2</ele>
        <time>2022-09-27T10:27:03Z</time>
      </trkpt>
      <trkpt lat="46.1178" lon="5.91812">
        <ele>420.2</ele>
        <time>2022-09-27T10:27:04Z</time>
      </trkpt>
      <trkpt lat="46.1178" lon="5.91813">
        <ele>420.2</ele>
        <time>2022-09-27T10:27:05Z</time>
      </trkpt>
      <trkpt lat="46.11781" lon="5.91813">
        <ele>420.2</ele>
        <time>2022-09-27T10:27:06Z</time>
      </trkpt>
      <trkpt lat="46.11782" lon="5.91813">
        <ele>420.2</ele>
        <time>2022-09-27T10:32:44Z</time>
      </trkpt>
      <trkpt lat="46.11782" lon="5.91814">
        <ele>420.2</ele>
        <time>2022-09-27T10:32:45Z</time>
      </trkpt>
      <trkpt lat="46.11784" lon="5.91813">
        <ele>420.2</ele>
        <time>2022-09-27T10:32:46Z</time>
      </trkpt>
      <trkpt lat="46.11786" lon="5.91813">
        <ele>420.2</ele>
        <time>2022-09-27T10:32:47Z</time>
      </trkpt>
      <trkpt lat="46.11788" lon="5.91814">
        <ele>420.3</ele>
        <time>2022-09-27T10:32:48Z</time>
      </trkpt>
      <trkpt lat="46.1179" lon="5.91815">
        <ele>420.3</ele>
        <time>2022-09-27T10:32:49Z</time>
      </trkpt>
      <trkpt lat="46.11791" lon="5.91817">
        <ele>420.3</ele>
        <time>2022-09-27T10:32:50Z</time>
      </trkpt>
      <trkpt lat="46.11792" lon="5.91818">
        <ele>420.3</ele>
        <time>2022-09-27T10:32:51Z</time>
      </trkpt>
      <trkpt lat="46.11793" lon="5.91821">
        <ele>420.3</ele>
        <time>2022-09-27T10:32:52Z</time>
      </trkpt>
      <trkpt lat="46.11794" lon="5.91822">
        <ele>420.3</ele>
        <time>2022-09-27T10:32:53Z</time>
      </trkpt>
      <trkpt lat="46.11794" lon="5.91825">
        <ele>420.3</ele>
        <time>2022-09-27T10:32:54Z</time>
      </trkpt>
      <trkpt lat="46.11794" lon="5.91827">
        <ele>420.3</ele>
        <time>2022-09-27T10:32:55Z</time>
      </trkpt>
      <trkpt lat="46.11794" lon="5.9183">
        <ele>420.3</ele>
        <time>2022-09-27T10:32:56Z</time>
      </trkpt>
      <trkpt lat="46.11794" lon="5.9183">
        <ele>420.3</ele>
        <time>2022-09-27T10:32:57Z</time>
      </trkpt>
      <trkpt lat="46.11794" lon="5.9183">
        <ele>420.3</ele>
        <time>2022-09-27T10:32:58Z</time>
      </trkpt>
      <trkpt lat="46.11794" lon="5.91829">
        <ele>420.3</ele>
        <time>2022-09-27T10:32:59Z</time>
      </trkpt>
      <trkpt lat="46.11794" lon="5.91829">
        <ele>420.3</ele>
        <time>2022-09-27T10:33:00Z</time>
      </trkpt>
      <trkpt lat="46.11794" lon="5.9183">
        <ele>420.3</ele>
        <time>2022-09-27T10:33:01Z</time>
      </trkpt>
      <trkpt lat="46.11794" lon="5.9183">
        <ele>420.3</ele>
        <time>2022-09-27T10:33:02Z</time>
      </trkpt>
      <trkpt lat="46.11794" lon="5.91829">
        <ele>420.3</ele>
        <time>2022-09-27T10:33:03Z</time>
      </trkpt>
      <trkpt lat="46.11794" lon="5.91829">
        <ele>420.3</ele>
        <time>2022-09-27T10:33:04Z</time>
      </trkpt>
      <trkpt lat="46.11794" lon="5.91829">
        <ele>420.3</ele>
        <time>2022-09-27T10:33:05Z</time>
      </trkpt>
      <trkpt lat="46.11794" lon="5.91829">
        <ele>420.3</ele>
        <time>2022-09-27T10:33:06Z</time>
      </trkpt>
      <trkpt lat="46.11794" lon="5.91829">
        <ele>420.3</ele>
        <time>2022-09-27T10:33:07Z</time>
      </trkpt>
      <trkpt lat="46.11783" lon="5.91839">
        <ele>420.3</ele>
        <time>2022-09-27T10:33:42Z</time>
      </trkpt>
      <trkpt lat="46.1178" lon="5.91839">
        <ele>420.3</ele>
        <time>2022-09-27T10:33:43Z</time>
      </trkpt>
      <trkpt lat="46.11777" lon="5.91838">
        <ele>420.3</ele>
        <time>2022-09-27T10:33:44Z</time>
      </trkpt>
      <trkpt lat="46.11774" lon="5.91837">
        <ele>420.3</ele>
        <time>2022-09-27T10:33:45Z</time>
      </trkpt>
      <trkpt lat="46.11771" lon="5.91836">
        <ele>420.3</ele>
        <time>2022-09-27T10:33:46Z</time>
      </trkpt>
      <trkpt lat="46.11767" lon="5.91836">
        <ele>420.2</ele>
        <time>2022-09-27T10:33:47Z</time>
      </trkpt>
      <trkpt lat="46.11764" lon="5.91835">
        <ele>420.2</ele>
        <time>2022-09-27T10:33:48Z</time>
      </trkpt>
      <trkpt lat="46.11761" lon="5.91834">
        <ele>420.2</ele>
        <time>2022-09-27T10:33:49Z</time>
      </trkpt>
      <trkpt lat="46.11757" lon="5.91834">
        <ele>420.2</ele>
        <time>2022-09-27T10:33:50Z</time>
      </trkpt>
      <trkpt lat="46.11753" lon="5.91833">
        <ele>420.2</ele>
        <time>2022-09-27T10:33:51Z</time>
      </trkpt>
      <trkpt lat="46.1175" lon="5.91833">
        <ele>420.2</ele>
        <time>2022-09-27T10:33:52Z</time>
      </trkpt>
      <trkpt lat="46.11746" lon="5.91834">
        <ele>420.2</ele>
        <time>2022-09-27T10:33:53Z</time>
      </trkpt>
      <trkpt lat="46.11742" lon="5.91833">
        <ele>420.2</ele>
        <time>2022-09-27T10:33:54Z</time>
      </trkpt>
      <trkpt lat="46.11738" lon="5.91833">
        <ele>420.2</ele>
        <time>2022-09-27T10:33:55Z</time>
      </trkpt>
      <trkpt lat="46.11734" lon="5.91832">
        <ele>420.2</ele>
        <time>2022-09-27T10:33:56Z</time>
      </trkpt>
      <trkpt lat="46.11731" lon="5.91832">
        <ele>420.2</ele>
        <time>2022-09-27T10:33:57Z</time>
      </trkpt>
      <trkpt lat="46.11727" lon="5.91832">
        <ele>420.2</ele>
        <time>2022-09-27T10:33:58Z</time>
      </trkpt>
      <trkpt lat="46.11723" lon="5.91832">
        <ele>420.2</ele>
        <time>2022-09-27T10:33:59Z</time>
      </trkpt>
      <trkpt lat="46.11719" lon="5.91833">
        <ele>420.2</ele>
        <time>2022-09-27T10:34:00Z</time>
      </trkpt>
      <trkpt lat="46.11715" lon="5.91833">
        <ele>420.2</ele>
        <time>2022-09-27T10:34:01Z</time>
      </trkpt>
      <trkpt lat="46.11712" lon="5.91834">
        <ele>420.2</ele>
        <time>2022-09-27T10:34:02Z</time>
      </trkpt>
      <trkpt lat="46.11707" lon="5.91835">
        <ele>420.2</ele>
        <time>2022-09-27T10:34:03Z</time>
      </trkpt>
      <trkpt lat="46.11703" lon="5.91835">
        <ele>420.3</ele>
        <time>2022-09-27T10:34:04Z</time>
      </trkpt>
      <trkpt lat="46.11699" lon="5.91835">
        <ele>420.3</ele>
        <time>2022-09-27T10:34:05Z</time>
      </trkpt>
      <trkpt lat="46.11695" lon="5.91836">
        <ele>420.3</ele>
        <time>2022-09-27T10:34:06Z</time>
      </trkpt>
      <trkpt lat="46.1169" lon="5.91837">
        <ele>420.4</ele>
        <time>2022-09-27T10:34:07Z</time>
      </trkpt>
      <trkpt lat="46.11686" lon="5.91838">
        <ele>420.4</ele>
        <time>2022-09-27T10:34:08Z</time>
      </trkpt>
      <trkpt lat="46.11682" lon="5.91839">
        <ele>420.5</ele>
        <time>2022-09-27T10:34:09Z</time>
      </trkpt>
      <trkpt lat="46.11678" lon="5.9184">
        <ele>420.5</ele>
        <time>2022-09-27T10:34:10Z</time>
      </trkpt>
      <trkpt lat="46.11674" lon="5.91841">
        <ele>420.6</ele>
        <time>2022-09-27T10:34:11Z</time>
      </trkpt>
      <trkpt lat="46.11669" lon="5.91842">
        <ele>420.7</ele>
        <time>2022-09-27T10:34:12Z</time>
      </trkpt>
      <trkpt lat="46.11665" lon="5.91842">
        <ele>420.7</ele>
        <time>2022-09-27T10:34:13Z</time>
      </trkpt>
      <trkpt lat="46.11661" lon="5.91843">
        <ele>420.8</ele>
        <time>2022-09-27T10:34:14Z</time>
      </trkpt>
      <trkpt lat="46.11657" lon="5.91843">
        <ele>420.8</ele>
        <time>2022-09-27T10:34:15Z</time>
      </trkpt>
      <trkpt lat="46.11652" lon="5.91844">
        <ele>420.9</ele>
        <time>2022-09-27T10:34:16Z</time>
      </trkpt>
      <trkpt lat="46.11648" lon="5.91845">
        <ele>421</ele>
        <time>2022-09-27T10:34:17Z</time>
      </trkpt>
      <trkpt lat="46.11643" lon="5.91846">
        <ele>421</ele>
        <time>2022-09-27T10:34:18Z</time>
      </trkpt>
      <trkpt lat="46.11638" lon="5.91847">
        <ele>421.1</ele>
        <time>2022-09-27T10:34:19Z</time>
      </trkpt>
      <trkpt lat="46.11634" lon="5.91848">
        <ele>421.2</ele>
        <time>2022-09-27T10:34:20Z</time>
      </trkpt>
      <trkpt lat="46.1163" lon="5.91849">
        <ele>421.3</ele>
        <time>2022-09-27T10:34:21Z</time>
      </trkpt>
      <trkpt lat="46.11625" lon="5.9185">
        <ele>421.4</ele>
        <time>2022-09-27T10:34:22Z</time>
      </trkpt>
      <trkpt lat="46.1162" lon="5.91851">
        <ele>421.5</ele>
        <time>2022-09-27T10:34:23Z</time>
      </trkpt>
      <trkpt lat="46.11616" lon="5.91853">
        <ele>421.6</ele>
        <time>2022-09-27T10:34:24Z</time>
      </trkpt>
      <trkpt lat="46.11612" lon="5.91853">
        <ele>421.7</ele>
        <time>2022-09-27T10:34:25Z</time>
      </trkpt>
      <trkpt lat="46.11608" lon="5.91853">
        <ele>421.8</ele>
        <time>2022-09-27T10:34:26Z</time>
      </trkpt>
      <trkpt lat="46.11604" lon="5.91852">
        <ele>422</ele>
        <time>2022-09-27T10:34:27Z</time>
      </trkpt>
      <trkpt lat="46.11599" lon="5.91856">
        <ele>422.2</ele>
        <time>2022-09-27T10:34:28Z</time>
      </trkpt>
      <trkpt lat="46.11595" lon="5.91857">
        <ele>422.3</ele>
        <time>2022-09-27T10:34:29Z</time>
      </trkpt>
      <trkpt lat="46.11591" lon="5.91858">
        <ele>422.5</ele>
        <time>2022-09-27T10:34:30Z</time>
      </trkpt>
      <trkpt lat="46.11586" lon="5.91858">
        <ele>422.7</ele>
        <time>2022-09-27T10:34:31Z</time>
      </trkpt>
      <trkpt lat="46.11584" lon="5.91858">
        <ele>422.8</ele>
        <time>2022-09-27T10:34:32Z</time>
      </trkpt>
      <trkpt lat="46.11579" lon="5.91859">
        <ele>423</ele>
        <time>2022-09-27T10:34:33Z</time>
      </trkpt>
      <trkpt lat="46.11575" lon="5.91859">
        <ele>423.2</ele>
        <time>2022-09-27T10:34:34Z</time>
      </trkpt>
      <trkpt lat="46.11572" lon="5.91859">
        <ele>423.3</ele>
        <time>2022-09-27T10:34:35Z</time>
      </trkpt>
      <trkpt lat="46.11568" lon="5.9186">
        <ele>423.5</ele>
        <time>2022-09-27T10:34:36Z</time>
      </trkpt>
      <trkpt lat="46.11565" lon="5.9186">
        <ele>423.7</ele>
        <time>2022-09-27T10:34:37Z</time>
      </trkpt>
      <trkpt lat="46.11561" lon="5.91861">
        <ele>423.9</ele>
        <time>2022-09-27T10:34:38Z</time>
      </trkpt>
      <trkpt lat="46.11558" lon="5.91862">
        <ele>424</ele>
        <time>2022-09-27T10:34:39Z</time>
      </trkpt>
      <trkpt lat="46.11554" lon="5.91862">
        <ele>424.2</ele>
        <time>2022-09-27T10:34:40Z</time>
      </trkpt>
      <trkpt lat="46.11551" lon="5.91863">
        <ele>424.4</ele>
        <time>2022-09-27T10:34:41Z</time>
      </trkpt>
      <trkpt lat="46.11548" lon="5.91863">
        <ele>424.6</ele>
        <time>2022-09-27T10:34:42Z</time>
      </trkpt>
      <trkpt lat="46.11544" lon="5.91864">
        <ele>424.7</ele>
        <time>2022-09-27T10:34:43Z</time>
      </trkpt>
      <trkpt lat="46.11542" lon="5.91865">
        <ele>424.9</ele>
        <time>2022-09-27T10:34:44Z</time>
      </trkpt>
      <trkpt lat="46.11538" lon="5.91866">
        <ele>425.1</ele>
        <time>2022-09-27T10:34:45Z</time>
      </trkpt>
      <trkpt lat="46.11535" lon="5.91865">
        <ele>425.2</ele>
        <time>2022-09-27T10:34:46Z</time>
      </trkpt>
      <trkpt lat="46.11532" lon="5.91866">
        <ele>425.4</ele>
        <time>2022-09-27T10:34:47Z</time>
      </trkpt>
      <trkpt lat="46.11529" lon="5.91868">
        <ele>425.6</ele>
        <time>2022-09-27T10:34:48Z</time>
      </trkpt>
      <trkpt lat="46.11525" lon="5.91868">
        <ele>425.8</ele>
        <time>2022-09-27T10:34:49Z</time>
      </trkpt>
      <trkpt lat="46.11523" lon="5.91868">
        <ele>425.9</ele>
        <time>2022-09-27T10:34:50Z</time>
      </trkpt>
      <trkpt lat="46.1152" lon="5.91868">
        <ele>426.1</ele>
        <time>2022-09-27T10:34:51Z</time>
      </trkpt>
      <trkpt lat="46.11519" lon="5.91869">
        <ele>426.2</ele>
        <time>2022-09-27T10:34:52Z</time>
      </trkpt>
      <trkpt lat="46.11515" lon="5.91869">
        <ele>426.4</ele>
        <time>2022-09-27T10:34:53Z</time>
      </trkpt>
      <trkpt lat="46.11514" lon="5.9187">
        <ele>426.5</ele>
        <time>2022-09-27T10:34:54Z</time>
      </trkpt>
      <trkpt lat="46.1151" lon="5.9187">
        <ele>426.7</ele>
        <time>2022-09-27T10:34:55Z</time>
      </trkpt>
      <trkpt lat="46.11508" lon="5.91871">
        <ele>426.8</ele>
        <time>2022-09-27T10:34:56Z</time>
      </trkpt>
      <trkpt lat="46.11505" lon="5.91871">
        <ele>427</ele>
        <time>2022-09-27T10:34:57Z</time>
      </trkpt>
      <trkpt lat="46.11504" lon="5.91871">
        <ele>427.1</ele>
        <time>2022-09-27T10:34:58Z</time>
      </trkpt>
      <trkpt lat="46.115" lon="5.91872">
        <ele>427.3</ele>
        <time>2022-09-27T10:34:59Z</time>
      </trkpt>
      <trkpt lat="46.11499" lon="5.91872">
        <ele>427.4</ele>
        <time>2022-09-27T10:35:00Z</time>
      </trkpt>
      <trkpt lat="46.11496" lon="5.91872">
        <ele>427.6</ele>
        <time>2022-09-27T10:35:01Z</time>
      </trkpt>
      <trkpt lat="46.11495" lon="5.91873">
        <ele>427.6</ele>
        <time>2022-09-27T10:35:02Z</time>
      </trkpt>
      <trkpt lat="46.11491" lon="5.91873">
        <ele>427.8</ele>
        <time>2022-09-27T10:35:03Z</time>
      </trkpt>
      <trkpt lat="46.1149" lon="5.91873">
        <ele>427.9</ele>
        <time>2022-09-27T10:35:04Z</time>
      </trkpt>
      <trkpt lat="46.11487" lon="5.91874">
        <ele>428.1</ele>
        <time>2022-09-27T10:35:05Z</time>
      </trkpt>
      <trkpt lat="46.11486" lon="5.91874">
        <ele>428.1</ele>
        <time>2022-09-27T10:35:06Z</time>
      </trkpt>
      <trkpt lat="46.11483" lon="5.91874">
        <ele>428.3</ele>
        <time>2022-09-27T10:35:07Z</time>
      </trkpt>
      <trkpt lat="46.11482" lon="5.91874">
        <ele>428.4</ele>
        <time>2022-09-27T10:35:08Z</time>
      </trkpt>
      <trkpt lat="46.11479" lon="5.91875">
        <ele>428.6</ele>
        <time>2022-09-27T10:35:09Z</time>
      </trkpt>
      <trkpt lat="46.11478" lon="5.91875">
        <ele>428.6</ele>
        <time>2022-09-27T10:35:10Z</time>
      </trkpt>
      <trkpt lat="46.11475" lon="5.91875">
        <ele>428.8</ele>
        <time>2022-09-27T10:35:11Z</time>
      </trkpt>
      <trkpt lat="46.11474" lon="5.91876">
        <ele>428.8</ele>
        <time>2022-09-27T10:35:12Z</time>
      </trkpt>
      <trkpt lat="46.11471" lon="5.91876">
        <ele>429</ele>
        <time>2022-09-27T10:35:13Z</time>
      </trkpt>
      <trkpt lat="46.1147" lon="5.91877">
        <ele>429</ele>
        <time>2022-09-27T10:35:14Z</time>
      </trkpt>
      <trkpt lat="46.11468" lon="5.91877">
        <ele>429.1</ele>
        <time>2022-09-27T10:35:15Z</time>
      </trkpt>
      <trkpt lat="46.11467" lon="5.91878">
        <ele>429.2</ele>
        <time>2022-09-27T10:35:16Z</time>
      </trkpt>
      <trkpt lat="46.11464" lon="5.91878">
        <ele>429.3</ele>
        <time>2022-09-27T10:35:17Z</time>
      </trkpt>
      <trkpt lat="46.11463" lon="5.91878">
        <ele>429.4</ele>
        <time>2022-09-27T10:35:18Z</time>
      </trkpt>
      <trkpt lat="46.11461" lon="5.91878">
        <ele>429.5</ele>
        <time>2022-09-27T10:35:19Z</time>
      </trkpt>
      <trkpt lat="46.11459" lon="5.91879">
        <ele>429.5</ele>
        <time>2022-09-27T10:35:20Z</time>
      </trkpt>
      <trkpt lat="46.11458" lon="5.91879">
        <ele>429.6</ele>
        <time>2022-09-27T10:35:21Z</time>
      </trkpt>
      <trkpt lat="46.11456" lon="5.91879">
        <ele>429.7</ele>
        <time>2022-09-27T10:35:22Z</time>
      </trkpt>
      <trkpt lat="46.11453" lon="5.9188">
        <ele>429.8</ele>
        <time>2022-09-27T10:35:23Z</time>
      </trkpt>
      <trkpt lat="46.11452" lon="5.91881">
        <ele>429.8</ele>
        <time>2022-09-27T10:35:24Z</time>
      </trkpt>
      <trkpt lat="46.1145" lon="5.91882">
        <ele>430</ele>
        <time>2022-09-27T10:35:25Z</time>
      </trkpt>
      <trkpt lat="46.11449" lon="5.91882">
        <ele>430</ele>
        <time>2022-09-27T10:35:26Z</time>
      </trkpt>
      <trkpt lat="46.11447" lon="5.91882">
        <ele>430.1</ele>
        <time>2022-09-27T10:35:27Z</time>
      </trkpt>
      <trkpt lat="46.11445" lon="5.91882">
        <ele>430.3</ele>
        <time>2022-09-27T10:35:28Z</time>
      </trkpt>
      <trkpt lat="46.11444" lon="5.91883">
        <ele>430.4</ele>
        <time>2022-09-27T10:35:29Z</time>
      </trkpt>
      <trkpt lat="46.11442" lon="5.91883">
        <ele>430.5</ele>
        <time>2022-09-27T10:35:30Z</time>
      </trkpt>
      <trkpt lat="46.11441" lon="5.91884">
        <ele>430.6</ele>
        <time>2022-09-27T10:35:31Z</time>
      </trkpt>
      <trkpt lat="46.11439" lon="5.91884">
        <ele>430.7</ele>
        <time>2022-09-27T10:35:32Z</time>
      </trkpt>
      <trkpt lat="46.11436" lon="5.91884">
        <ele>431</ele>
        <time>2022-09-27T10:35:33Z</time>
      </trkpt>
      <trkpt lat="46.11435" lon="5.91884">
        <ele>431</ele>
        <time>2022-09-27T10:35:34Z</time>
      </trkpt>
      <trkpt lat="46.11432" lon="5.91886">
        <ele>431.2</ele>
        <time>2022-09-27T10:35:35Z</time>
      </trkpt>
      <trkpt lat="46.11431" lon="5.91886">
        <ele>431.3</ele>
        <time>2022-09-27T10:35:36Z</time>
      </trkpt>
      <trkpt lat="46.11429" lon="5.91888">
        <ele>431.5</ele>
        <time>2022-09-27T10:35:37Z</time>
      </trkpt>
      <trkpt lat="46.11428" lon="5.91888">
        <ele>431.6</ele>
        <time>2022-09-27T10:35:38Z</time>
      </trkpt>
      <trkpt lat="46.11426" lon="5.91888">
        <ele>431.7</ele>
        <time>2022-09-27T10:35:39Z</time>
      </trkpt>
      <trkpt lat="46.11424" lon="5.91889">
        <ele>431.8</ele>
        <time>2022-09-27T10:35:40Z</time>
      </trkpt>
      <trkpt lat="46.11422" lon="5.9189">
        <ele>432</ele>
        <time>2022-09-27T10:35:41Z</time>
      </trkpt>
      <trkpt lat="46.11421" lon="5.9189">
        <ele>432.1</ele>
        <time>2022-09-27T10:35:42Z</time>
      </trkpt>
      <trkpt lat="46.11419" lon="5.91891">
        <ele>432.2</ele>
        <time>2022-09-27T10:35:43Z</time>
      </trkpt>
      <trkpt lat="46.11417" lon="5.91892">
        <ele>432.3</ele>
        <time>2022-09-27T10:35:44Z</time>
      </trkpt>
      <trkpt lat="46.11416" lon="5.91892">
        <ele>432.4</ele>
        <time>2022-09-27T10:35:45Z</time>
      </trkpt>
      <trkpt lat="46.11414" lon="5.91893">
        <ele>432.6</ele>
        <time>2022-09-27T10:35:46Z</time>
      </trkpt>
      <trkpt lat="46.11411" lon="5.91894">
        <ele>432.8</ele>
        <time>2022-09-27T10:35:47Z</time>
      </trkpt>
      <trkpt lat="46.11411" lon="5.91895">
        <ele>432.8</ele>
        <time>2022-09-27T10:35:48Z</time>
      </trkpt>
      <trkpt lat="46.11409" lon="5.91896">
        <ele>433</ele>
        <time>2022-09-27T10:35:49Z</time>
      </trkpt>
      <trkpt lat="46.11407" lon="5.91896">
        <ele>433.1</ele>
        <time>2022-09-27T10:35:50Z</time>
      </trkpt>
      <trkpt lat="46.11406" lon="5.91897">
        <ele>433.2</ele>
        <time>2022-09-27T10:35:51Z</time>
      </trkpt>
      <trkpt lat="46.11404" lon="5.91898">
        <ele>433.3</ele>
        <time>2022-09-27T10:35:52Z</time>
      </trkpt>
      <trkpt lat="46.11402" lon="5.91898">
        <ele>433.4</ele>
        <time>2022-09-27T10:35:53Z</time>
      </trkpt>
      <trkpt lat="46.11401" lon="5.91899">
        <ele>433.5</ele>
        <time>2022-09-27T10:35:54Z</time>
      </trkpt>
      <trkpt lat="46.11398" lon="5.91901">
        <ele>433.7</ele>
        <time>2022-09-27T10:35:55Z</time>
      </trkpt>
      <trkpt lat="46.11397" lon="5.91901">
        <ele>433.7</ele>
        <time>2022-09-27T10:35:56Z</time>
      </trkpt>
      <trkpt lat="46.11395" lon="5.91902">
        <ele>433.9</ele>
        <time>2022-09-27T10:35:57Z</time>
      </trkpt>
      <trkpt lat="46.11394" lon="5.91903">
        <ele>434</ele>
        <time>2022-09-27T10:35:58Z</time>
      </trkpt>
      <trkpt lat="46.11393" lon="5.91904">
        <ele>434.1</ele>
        <time>2022-09-27T10:35:59Z</time>
      </trkpt>
      <trkpt lat="46.11391" lon="5.91905">
        <ele>434.2</ele>
        <time>2022-09-27T10:36:00Z</time>
      </trkpt>
      <trkpt lat="46.11389" lon="5.91906">
        <ele>434.3</ele>
        <time>2022-09-27T10:36:01Z</time>
      </trkpt>
      <trkpt lat="46.11388" lon="5.91906">
        <ele>434.4</ele>
        <time>2022-09-27T10:36:02Z</time>
      </trkpt>
      <trkpt lat="46.11386" lon="5.91907">
        <ele>434.5</ele>
        <time>2022-09-27T10:36:03Z</time>
      </trkpt>
      <trkpt lat="46.11385" lon="5.91908">
        <ele>434.6</ele>
        <time>2022-09-27T10:36:04Z</time>
      </trkpt>
      <trkpt lat="46.11382" lon="5.9191">
        <ele>434.8</ele>
        <time>2022-09-27T10:36:05Z</time>
      </trkpt>
      <trkpt lat="46.11381" lon="5.9191">
        <ele>434.8</ele>
        <time>2022-09-27T10:36:06Z</time>
      </trkpt>
      <trkpt lat="46.11379" lon="5.91911">
        <ele>435</ele>
        <time>2022-09-27T10:36:07Z</time>
      </trkpt>
      <trkpt lat="46.11378" lon="5.91912">
        <ele>435.1</ele>
        <time>2022-09-27T10:36:08Z</time>
      </trkpt>
      <trkpt lat="46.11377" lon="5.91914">
        <ele>435.2</ele>
        <time>2022-09-27T10:36:09Z</time>
      </trkpt>
      <trkpt lat="46.11375" lon="5.91915">
        <ele>435.3</ele>
        <time>2022-09-27T10:36:10Z</time>
      </trkpt>
      <trkpt lat="46.11374" lon="5.91916">
        <ele>435.4</ele>
        <time>2022-09-27T10:36:11Z</time>
      </trkpt>
      <trkpt lat="46.11372" lon="5.91917">
        <ele>435.5</ele>
        <time>2022-09-27T10:36:12Z</time>
      </trkpt>
      <trkpt lat="46.1137" lon="5.91917">
        <ele>435.6</ele>
        <time>2022-09-27T10:36:13Z</time>
      </trkpt>
      <trkpt lat="46.11369" lon="5.91919">
        <ele>435.7</ele>
        <time>2022-09-27T10:36:14Z</time>
      </trkpt>
      <trkpt lat="46.11367" lon="5.9192">
        <ele>435.8</ele>
        <time>2022-09-27T10:36:15Z</time>
      </trkpt>
      <trkpt lat="46.11366" lon="5.91921">
        <ele>435.9</ele>
        <time>2022-09-27T10:36:16Z</time>
      </trkpt>
      <trkpt lat="46.11365" lon="5.91922">
        <ele>436</ele>
        <time>2022-09-27T10:36:17Z</time>
      </trkpt>
      <trkpt lat="46.11363" lon="5.91923">
        <ele>436.1</ele>
        <time>2022-09-27T10:36:18Z</time>
      </trkpt>
      <trkpt lat="46.11362" lon="5.91924">
        <ele>436.2</ele>
        <time>2022-09-27T10:36:19Z</time>
      </trkpt>
      <trkpt lat="46.1136" lon="5.91925">
        <ele>436.3</ele>
        <time>2022-09-27T10:36:20Z</time>
      </trkpt>
      <trkpt lat="46.11359" lon="5.91926">
        <ele>436.4</ele>
        <time>2022-09-27T10:36:21Z</time>
      </trkpt>
      <trkpt lat="46.11357" lon="5.91928">
        <ele>436.5</ele>
        <time>2022-09-27T10:36:22Z</time>
      </trkpt>
      <trkpt lat="46.11356" lon="5.91929">
        <ele>436.6</ele>
        <time>2022-09-27T10:36:23Z</time>
      </trkpt>
      <trkpt lat="46.11354" lon="5.9193">
        <ele>436.7</ele>
        <time>2022-09-27T10:36:24Z</time>
      </trkpt>
      <trkpt lat="46.11353" lon="5.91932">
        <ele>436.8</ele>
        <time>2022-09-27T10:36:25Z</time>
      </trkpt>
      <trkpt lat="46.11352" lon="5.91933">
        <ele>436.9</ele>
        <time>2022-09-27T10:36:26Z</time>
      </trkpt>
      <trkpt lat="46.1135" lon="5.91934">
        <ele>437</ele>
        <time>2022-09-27T10:36:27Z</time>
      </trkpt>
      <trkpt lat="46.11349" lon="5.91935">
        <ele>437.1</ele>
        <time>2022-09-27T10:36:28Z</time>
      </trkpt>
      <trkpt lat="46.11347" lon="5.91936">
        <ele>437.2</ele>
        <time>2022-09-27T10:36:29Z</time>
      </trkpt>
      <trkpt lat="46.11346" lon="5.91938">
        <ele>437.3</ele>
        <time>2022-09-27T10:36:30Z</time>
      </trkpt>
      <trkpt lat="46.11345" lon="5.91939">
        <ele>437.4</ele>
        <time>2022-09-27T10:36:31Z</time>
      </trkpt>
      <trkpt lat="46.11343" lon="5.9194">
        <ele>437.5</ele>
        <time>2022-09-27T10:36:32Z</time>
      </trkpt>
      <trkpt lat="46.11342" lon="5.91942">
        <ele>437.6</ele>
        <time>2022-09-27T10:36:33Z</time>
      </trkpt>
      <trkpt lat="46.1134" lon="5.91943">
        <ele>437.7</ele>
        <time>2022-09-27T10:36:34Z</time>
      </trkpt>
      <trkpt lat="46.11339" lon="5.91944">
        <ele>437.8</ele>
        <time>2022-09-27T10:36:35Z</time>
      </trkpt>
      <trkpt lat="46.11337" lon="5.91945">
        <ele>437.9</ele>
        <time>2022-09-27T10:36:36Z</time>
      </trkpt>
      <trkpt lat="46.11335" lon="5.91947">
        <ele>438</ele>
        <time>2022-09-27T10:36:37Z</time>
      </trkpt>
      <trkpt lat="46.11334" lon="5.91948">
        <ele>438.1</ele>
        <time>2022-09-27T10:36:38Z</time>
      </trkpt>
      <trkpt lat="46.11333" lon="5.9195">
        <ele>438.2</ele>
        <time>2022-09-27T10:36:39Z</time>
      </trkpt>
      <trkpt lat="46.11331" lon="5.91951">
        <ele>438.3</ele>
        <time>2022-09-27T10:36:40Z</time>
      </trkpt>
      <trkpt lat="46.1133" lon="5.91952">
        <ele>438.4</ele>
        <time>2022-09-27T10:36:41Z</time>
      </trkpt>
      <trkpt lat="46.11328" lon="5.91954">
        <ele>438.4</ele>
        <time>2022-09-27T10:36:42Z</time>
      </trkpt>
      <trkpt lat="46.11327" lon="5.91955">
        <ele>438.5</ele>
        <time>2022-09-27T10:36:43Z</time>
      </trkpt>
      <trkpt lat="46.11326" lon="5.91956">
        <ele>438.6</ele>
        <time>2022-09-27T10:36:44Z</time>
      </trkpt>
      <trkpt lat="46.11324" lon="5.91957">
        <ele>438.7</ele>
        <time>2022-09-27T10:36:45Z</time>
      </trkpt>
      <trkpt lat="46.11323" lon="5.91958">
        <ele>438.8</ele>
        <time>2022-09-27T10:36:46Z</time>
      </trkpt>
      <trkpt lat="46.11322" lon="5.9196">
        <ele>438.9</ele>
        <time>2022-09-27T10:36:47Z</time>
      </trkpt>
      <trkpt lat="46.1132" lon="5.91961">
        <ele>438.9</ele>
        <time>2022-09-27T10:36:48Z</time>
      </trkpt>
      <trkpt lat="46.11318" lon="5.91962">
        <ele>439</ele>
        <time>2022-09-27T10:36:49Z</time>
      </trkpt>
      <trkpt lat="46.11317" lon="5.91963">
        <ele>439.1</ele>
        <time>2022-09-27T10:36:50Z</time>
      </trkpt>
      <trkpt lat="46.11316" lon="5.91965">
        <ele>439.2</ele>
        <time>2022-09-27T10:36:51Z</time>
      </trkpt>
      <trkpt lat="46.11314" lon="5.91966">
        <ele>439.3</ele>
        <time>2022-09-27T10:36:52Z</time>
      </trkpt>
      <trkpt lat="46.11313" lon="5.91967">
        <ele>439.4</ele>
        <time>2022-09-27T10:36:53Z</time>
      </trkpt>
      <trkpt lat="46.11311" lon="5.91969">
        <ele>439.4</ele>
        <time>2022-09-27T10:36:54Z</time>
      </trkpt>
      <trkpt lat="46.1131" lon="5.9197">
        <ele>439.5</ele>
        <time>2022-09-27T10:36:55Z</time>
      </trkpt>
      <trkpt lat="46.11308" lon="5.91971">
        <ele>439.6</ele>
        <time>2022-09-27T10:36:56Z</time>
      </trkpt>
      <trkpt lat="46.11307" lon="5.91973">
        <ele>439.7</ele>
        <time>2022-09-27T10:36:57Z</time>
      </trkpt>
      <trkpt lat="46.11305" lon="5.91974">
        <ele>439.8</ele>
        <time>2022-09-27T10:36:58Z</time>
      </trkpt>
      <trkpt lat="46.11304" lon="5.91975">
        <ele>439.9</ele>
        <time>2022-09-27T10:36:59Z</time>
      </trkpt>
      <trkpt lat="46.11302" lon="5.91976">
        <ele>439.9</ele>
        <time>2022-09-27T10:37:00Z</time>
      </trkpt>
      <trkpt lat="46.11301" lon="5.91977">
        <ele>440</ele>
        <time>2022-09-27T10:37:01Z</time>
      </trkpt>
      <trkpt lat="46.113" lon="5.91979">
        <ele>440.1</ele>
        <time>2022-09-27T10:37:02Z</time>
      </trkpt>
      <trkpt lat="46.11298" lon="5.9198">
        <ele>440.2</ele>
        <time>2022-09-27T10:37:03Z</time>
      </trkpt>
      <trkpt lat="46.11297" lon="5.91981">
        <ele>440.3</ele>
        <time>2022-09-27T10:37:04Z</time>
      </trkpt>
      <trkpt lat="46.11295" lon="5.91983">
        <ele>440.3</ele>
        <time>2022-09-27T10:37:05Z</time>
      </trkpt>
      <trkpt lat="46.11294" lon="5.91984">
        <ele>440.4</ele>
        <time>2022-09-27T10:37:06Z</time>
      </trkpt>
      <trkpt lat="46.11292" lon="5.91985">
        <ele>440.5</ele>
        <time>2022-09-27T10:37:07Z</time>
      </trkpt>
      <trkpt lat="46.11291" lon="5.91987">
        <ele>440.6</ele>
        <time>2022-09-27T10:37:08Z</time>
      </trkpt>
      <trkpt lat="46.1129" lon="5.91988">
        <ele>440.7</ele>
        <time>2022-09-27T10:37:09Z</time>
      </trkpt>
      <trkpt lat="46.11288" lon="5.91989">
        <ele>440.7</ele>
        <time>2022-09-27T10:37:10Z</time>
      </trkpt>
      <trkpt lat="46.11287" lon="5.91991">
        <ele>440.8</ele>
        <time>2022-09-27T10:37:11Z</time>
      </trkpt>
      <trkpt lat="46.11285" lon="5.91992">
        <ele>440.9</ele>
        <time>2022-09-27T10:37:12Z</time>
      </trkpt>
      <trkpt lat="46.11284" lon="5.91993">
        <ele>441</ele>
        <time>2022-09-27T10:37:13Z</time>
      </trkpt>
      <trkpt lat="46.11282" lon="5.91995">
        <ele>441</ele>
        <time>2022-09-27T10:37:14Z</time>
      </trkpt>
      <trkpt lat="46.11281" lon="5.91996">
        <ele>441.1</ele>
        <time>2022-09-27T10:37:15Z</time>
      </trkpt>
      <trkpt lat="46.1128" lon="5.91997">
        <ele>441.2</ele>
        <time>2022-09-27T10:37:16Z</time>
      </trkpt>
      <trkpt lat="46.11278" lon="5.91999">
        <ele>441.3</ele>
        <time>2022-09-27T10:37:17Z</time>
      </trkpt>
      <trkpt lat="46.11277" lon="5.92">
        <ele>441.3</ele>
        <time>2022-09-27T10:37:18Z</time>
      </trkpt>
      <trkpt lat="46.11275" lon="5.92001">
        <ele>441.4</ele>
        <time>2022-09-27T10:37:19Z</time>
      </trkpt>
      <trkpt lat="46.11274" lon="5.92002">
        <ele>441.5</ele>
        <time>2022-09-27T10:37:20Z</time>
      </trkpt>
      <trkpt lat="46.11272" lon="5.92004">
        <ele>441.6</ele>
        <time>2022-09-27T10:37:21Z</time>
      </trkpt>
      <trkpt lat="46.11271" lon="5.92005">
        <ele>441.6</ele>
        <time>2022-09-27T10:37:22Z</time>
      </trkpt>
      <trkpt lat="46.11269" lon="5.92006">
        <ele>441.7</ele>
        <time>2022-09-27T10:37:23Z</time>
      </trkpt>
      <trkpt lat="46.11268" lon="5.92008">
        <ele>441.8</ele>
        <time>2022-09-27T10:37:24Z</time>
      </trkpt>
      <trkpt lat="46.11266" lon="5.9201">
        <ele>441.9</ele>
        <time>2022-09-27T10:37:25Z</time>
      </trkpt>
      <trkpt lat="46.11265" lon="5.92011">
        <ele>441.9</ele>
        <time>2022-09-27T10:37:26Z</time>
      </trkpt>
      <trkpt lat="46.11263" lon="5.92012">
        <ele>442</ele>
        <time>2022-09-27T10:37:27Z</time>
      </trkpt>
      <trkpt lat="46.11262" lon="5.92013">
        <ele>442.1</ele>
        <time>2022-09-27T10:37:28Z</time>
      </trkpt>
      <trkpt lat="46.11259" lon="5.92015">
        <ele>442.2</ele>
        <time>2022-09-27T10:37:29Z</time>
      </trkpt>
      <trkpt lat="46.11258" lon="5.92016">
        <ele>442.3</ele>
        <time>2022-09-27T10:37:30Z</time>
      </trkpt>
      <trkpt lat="46.11255" lon="5.92019">
        <ele>442.4</ele>
        <time>2022-09-27T10:37:31Z</time>
      </trkpt>
      <trkpt lat="46.11254" lon="5.9202">
        <ele>442.5</ele>
        <time>2022-09-27T10:37:32Z</time>
      </trkpt>
      <trkpt lat="46.11252" lon="5.92022">
        <ele>442.6</ele>
        <time>2022-09-27T10:37:33Z</time>
      </trkpt>
      <trkpt lat="46.11251" lon="5.92023">
        <ele>442.6</ele>
        <time>2022-09-27T10:37:34Z</time>
      </trkpt>
      <trkpt lat="46.11248" lon="5.92025">
        <ele>442.7</ele>
        <time>2022-09-27T10:37:35Z</time>
      </trkpt>
      <trkpt lat="46.11247" lon="5.92026">
        <ele>442.7</ele>
        <time>2022-09-27T10:37:36Z</time>
      </trkpt>
      <trkpt lat="46.11244" lon="5.92028">
        <ele>442.7</ele>
        <time>2022-09-27T10:37:37Z</time>
      </trkpt>
      <trkpt lat="46.11243" lon="5.92028">
        <ele>442.7</ele>
        <time>2022-09-27T10:37:38Z</time>
      </trkpt>
      <trkpt lat="46.11241" lon="5.92031">
        <ele>442.8</ele>
        <time>2022-09-27T10:37:39Z</time>
      </trkpt>
      <trkpt lat="46.1124" lon="5.92032">
        <ele>442.8</ele>
        <time>2022-09-27T10:37:40Z</time>
      </trkpt>
      <trkpt lat="46.11237" lon="5.92034">
        <ele>442.9</ele>
        <time>2022-09-27T10:37:41Z</time>
      </trkpt>
      <trkpt lat="46.11236" lon="5.92035">
        <ele>442.9</ele>
        <time>2022-09-27T10:37:42Z</time>
      </trkpt>
      <trkpt lat="46.11233" lon="5.92038">
        <ele>443</ele>
        <time>2022-09-27T10:37:43Z</time>
      </trkpt>
      <trkpt lat="46.11233" lon="5.92039">
        <ele>443</ele>
        <time>2022-09-27T10:37:44Z</time>
      </trkpt>
      <trkpt lat="46.1123" lon="5.92041">
        <ele>443.1</ele>
        <time>2022-09-27T10:37:45Z</time>
      </trkpt>
      <trkpt lat="46.11229" lon="5.92042">
        <ele>443.1</ele>
        <time>2022-09-27T10:37:46Z</time>
      </trkpt>
      <trkpt lat="46.11226" lon="5.92045">
        <ele>443.2</ele>
        <time>2022-09-27T10:37:47Z</time>
      </trkpt>
      <trkpt lat="46.11225" lon="5.92046">
        <ele>443.2</ele>
        <time>2022-09-27T10:37:48Z</time>
      </trkpt>
      <trkpt lat="46.11222" lon="5.92048">
        <ele>443.3</ele>
        <time>2022-09-27T10:37:49Z</time>
      </trkpt>
      <trkpt lat="46.11221" lon="5.92049">
        <ele>443.4</ele>
        <time>2022-09-27T10:37:50Z</time>
      </trkpt>
      <trkpt lat="46.11219" lon="5.92052">
        <ele>443.4</ele>
        <time>2022-09-27T10:37:51Z</time>
      </trkpt>
      <trkpt lat="46.11218" lon="5.92052">
        <ele>443.5</ele>
        <time>2022-09-27T10:37:52Z</time>
      </trkpt>
      <trkpt lat="46.11215" lon="5.92055">
        <ele>443.6</ele>
        <time>2022-09-27T10:37:53Z</time>
      </trkpt>
      <trkpt lat="46.11214" lon="5.92056">
        <ele>443.6</ele>
        <time>2022-09-27T10:37:54Z</time>
      </trkpt>
      <trkpt lat="46.1121" lon="5.92059">
        <ele>443.7</ele>
        <time>2022-09-27T10:37:55Z</time>
      </trkpt>
      <trkpt lat="46.11209" lon="5.9206">
        <ele>443.8</ele>
        <time>2022-09-27T10:37:56Z</time>
      </trkpt>
      <trkpt lat="46.11206" lon="5.92063">
        <ele>443.9</ele>
        <time>2022-09-27T10:37:57Z</time>
      </trkpt>
      <trkpt lat="46.11205" lon="5.92064">
        <ele>443.9</ele>
        <time>2022-09-27T10:37:58Z</time>
      </trkpt>
      <trkpt lat="46.11202" lon="5.92067">
        <ele>444</ele>
        <time>2022-09-27T10:37:59Z</time>
      </trkpt>
      <trkpt lat="46.11201" lon="5.92068">
        <ele>444</ele>
        <time>2022-09-27T10:38:00Z</time>
      </trkpt>
      <trkpt lat="46.11198" lon="5.9207">
        <ele>444.1</ele>
        <time>2022-09-27T10:38:01Z</time>
      </trkpt>
      <trkpt lat="46.11196" lon="5.92072">
        <ele>444.2</ele>
        <time>2022-09-27T10:38:02Z</time>
      </trkpt>
      <trkpt lat="46.11194" lon="5.92075">
        <ele>444.2</ele>
        <time>2022-09-27T10:38:03Z</time>
      </trkpt>
      <trkpt lat="46.1119" lon="5.92078">
        <ele>444.3</ele>
        <time>2022-09-27T10:38:04Z</time>
      </trkpt>
      <trkpt lat="46.11189" lon="5.92079">
        <ele>444.4</ele>
        <time>2022-09-27T10:38:05Z</time>
      </trkpt>
      <trkpt lat="46.11186" lon="5.92082">
        <ele>444.4</ele>
        <time>2022-09-27T10:38:06Z</time>
      </trkpt>
      <trkpt lat="46.11185" lon="5.92083">
        <ele>444.5</ele>
        <time>2022-09-27T10:38:07Z</time>
      </trkpt>
      <trkpt lat="46.11182" lon="5.92086">
        <ele>444.5</ele>
        <time>2022-09-27T10:38:08Z</time>
      </trkpt>
      <trkpt lat="46.11181" lon="5.92087">
        <ele>444.6</ele>
        <time>2022-09-27T10:38:09Z</time>
      </trkpt>
      <trkpt lat="46.11178" lon="5.92089">
        <ele>444.6</ele>
        <time>2022-09-27T10:38:10Z</time>
      </trkpt>
      <trkpt lat="46.11175" lon="5.92092">
        <ele>444.7</ele>
        <time>2022-09-27T10:38:11Z</time>
      </trkpt>
      <trkpt lat="46.11174" lon="5.92093">
        <ele>444.7</ele>
        <time>2022-09-27T10:38:12Z</time>
      </trkpt>
      <trkpt lat="46.11172" lon="5.92095">
        <ele>444.8</ele>
        <time>2022-09-27T10:38:13Z</time>
      </trkpt>
      <trkpt lat="46.11168" lon="5.92098">
        <ele>444.8</ele>
        <time>2022-09-27T10:38:14Z</time>
      </trkpt>
      <trkpt lat="46.11167" lon="5.92099">
        <ele>444.9</ele>
        <time>2022-09-27T10:38:15Z</time>
      </trkpt>
      <trkpt lat="46.11165" lon="5.92102">
        <ele>444.9</ele>
        <time>2022-09-27T10:38:16Z</time>
      </trkpt>
      <trkpt lat="46.11162" lon="5.92104">
        <ele>445</ele>
        <time>2022-09-27T10:38:17Z</time>
      </trkpt>
      <trkpt lat="46.11161" lon="5.92105">
        <ele>445</ele>
        <time>2022-09-27T10:38:18Z</time>
      </trkpt>
      <trkpt lat="46.11157" lon="5.92108">
        <ele>445.1</ele>
        <time>2022-09-27T10:38:19Z</time>
      </trkpt>
      <trkpt lat="46.11156" lon="5.9211">
        <ele>445.1</ele>
        <time>2022-09-27T10:38:20Z</time>
      </trkpt>
      <trkpt lat="46.11154" lon="5.92112">
        <ele>445.2</ele>
        <time>2022-09-27T10:38:21Z</time>
      </trkpt>
      <trkpt lat="46.1115" lon="5.92115">
        <ele>445.2</ele>
        <time>2022-09-27T10:38:22Z</time>
      </trkpt>
      <trkpt lat="46.11149" lon="5.92116">
        <ele>445.2</ele>
        <time>2022-09-27T10:38:23Z</time>
      </trkpt>
      <trkpt lat="46.11147" lon="5.92118">
        <ele>445.3</ele>
        <time>2022-09-27T10:38:24Z</time>
      </trkpt>
      <trkpt lat="46.11144" lon="5.92121">
        <ele>445.4</ele>
        <time>2022-09-27T10:38:25Z</time>
      </trkpt>
      <trkpt lat="46.11143" lon="5.92122">
        <ele>445.4</ele>
        <time>2022-09-27T10:38:26Z</time>
      </trkpt>
      <trkpt lat="46.1114" lon="5.92125">
        <ele>445.5</ele>
        <time>2022-09-27T10:38:27Z</time>
      </trkpt>
      <trkpt lat="46.11138" lon="5.92127">
        <ele>445.5</ele>
        <time>2022-09-27T10:38:28Z</time>
      </trkpt>
      <trkpt lat="46.11136" lon="5.92129">
        <ele>445.6</ele>
        <time>2022-09-27T10:38:29Z</time>
      </trkpt>
      <trkpt lat="46.11133" lon="5.92131">
        <ele>445.6</ele>
        <time>2022-09-27T10:38:30Z</time>
      </trkpt>
      <trkpt lat="46.11131" lon="5.92134">
        <ele>445.7</ele>
        <time>2022-09-27T10:38:31Z</time>
      </trkpt>
      <trkpt lat="46.11128" lon="5.92136">
        <ele>445.7</ele>
        <time>2022-09-27T10:38:32Z</time>
      </trkpt>
      <trkpt lat="46.11125" lon="5.92138">
        <ele>445.7</ele>
        <time>2022-09-27T10:38:33Z</time>
      </trkpt>
      <trkpt lat="46.11123" lon="5.9214">
        <ele>445.8</ele>
        <time>2022-09-27T10:38:34Z</time>
      </trkpt>
      <trkpt lat="46.1112" lon="5.92143">
        <ele>445.8</ele>
        <time>2022-09-27T10:38:35Z</time>
      </trkpt>
      <trkpt lat="46.11118" lon="5.92145">
        <ele>445.9</ele>
        <time>2022-09-27T10:38:36Z</time>
      </trkpt>
      <trkpt lat="46.11115" lon="5.92147">
        <ele>445.9</ele>
        <time>2022-09-27T10:38:37Z</time>
      </trkpt>
      <trkpt lat="46.11113" lon="5.9215">
        <ele>445.9</ele>
        <time>2022-09-27T10:38:38Z</time>
      </trkpt>
      <trkpt lat="46.1111" lon="5.92152">
        <ele>446</ele>
        <time>2022-09-27T10:38:39Z</time>
      </trkpt>
      <trkpt lat="46.11107" lon="5.92155">
        <ele>446.1</ele>
        <time>2022-09-27T10:38:40Z</time>
      </trkpt>
      <trkpt lat="46.11104" lon="5.92157">
        <ele>446.1</ele>
        <time>2022-09-27T10:38:41Z</time>
      </trkpt>
      <trkpt lat="46.11102" lon="5.9216">
        <ele>446.2</ele>
        <time>2022-09-27T10:38:42Z</time>
      </trkpt>
      <trkpt lat="46.11099" lon="5.92163">
        <ele>446.2</ele>
        <time>2022-09-27T10:38:43Z</time>
      </trkpt>
      <trkpt lat="46.11096" lon="5.92165">
        <ele>446.2</ele>
        <time>2022-09-27T10:38:44Z</time>
      </trkpt>
      <trkpt lat="46.11094" lon="5.92167">
        <ele>446.3</ele>
        <time>2022-09-27T10:38:45Z</time>
      </trkpt>
      <trkpt lat="46.11091" lon="5.9217">
        <ele>446.3</ele>
        <time>2022-09-27T10:38:46Z</time>
      </trkpt>
      <trkpt lat="46.11088" lon="5.92172">
        <ele>446.4</ele>
        <time>2022-09-27T10:38:47Z</time>
      </trkpt>
      <trkpt lat="46.11085" lon="5.92174">
        <ele>446.4</ele>
        <time>2022-09-27T10:38:48Z</time>
      </trkpt>
      <trkpt lat="46.11082" lon="5.92177">
        <ele>446.4</ele>
        <time>2022-09-27T10:38:49Z</time>
      </trkpt>
      <trkpt lat="46.11079" lon="5.9218">
        <ele>446.5</ele>
        <time>2022-09-27T10:38:50Z</time>
      </trkpt>
      <trkpt lat="46.11076" lon="5.92183">
        <ele>446.5</ele>
        <time>2022-09-27T10:38:51Z</time>
      </trkpt>
      <trkpt lat="46.11073" lon="5.92186">
        <ele>446.6</ele>
        <time>2022-09-27T10:38:52Z</time>
      </trkpt>
      <trkpt lat="46.1107" lon="5.92189">
        <ele>446.6</ele>
        <time>2022-09-27T10:38:53Z</time>
      </trkpt>
      <trkpt lat="46.11067" lon="5.92191">
        <ele>446.7</ele>
        <time>2022-09-27T10:38:54Z</time>
      </trkpt>
      <trkpt lat="46.11064" lon="5.92193">
        <ele>446.7</ele>
        <time>2022-09-27T10:38:55Z</time>
      </trkpt>
      <trkpt lat="46.11061" lon="5.92196">
        <ele>446.8</ele>
        <time>2022-09-27T10:38:56Z</time>
      </trkpt>
      <trkpt lat="46.11058" lon="5.92199">
        <ele>446.9</ele>
        <time>2022-09-27T10:38:57Z</time>
      </trkpt>
      <trkpt lat="46.11056" lon="5.92201">
        <ele>446.9</ele>
        <time>2022-09-27T10:38:58Z</time>
      </trkpt>
      <trkpt lat="46.11053" lon="5.92203">
        <ele>447</ele>
        <time>2022-09-27T10:38:59Z</time>
      </trkpt>
      <trkpt lat="46.1105" lon="5.92205">
        <ele>447</ele>
        <time>2022-09-27T10:39:00Z</time>
      </trkpt>
      <trkpt lat="46.11048" lon="5.92208">
        <ele>447.1</ele>
        <time>2022-09-27T10:39:01Z</time>
      </trkpt>
      <trkpt lat="46.11046" lon="5.9221">
        <ele>447.1</ele>
        <time>2022-09-27T10:39:02Z</time>
      </trkpt>
      <trkpt lat="46.11043" lon="5.92213">
        <ele>447.2</ele>
        <time>2022-09-27T10:39:03Z</time>
      </trkpt>
      <trkpt lat="46.11039" lon="5.92216">
        <ele>447.3</ele>
        <time>2022-09-27T10:39:04Z</time>
      </trkpt>
      <trkpt lat="46.11038" lon="5.92217">
        <ele>447.3</ele>
        <time>2022-09-27T10:39:05Z</time>
      </trkpt>
      <trkpt lat="46.11035" lon="5.92219">
        <ele>447.4</ele>
        <time>2022-09-27T10:39:06Z</time>
      </trkpt>
      <trkpt lat="46.11032" lon="5.92222">
        <ele>447.5</ele>
        <time>2022-09-27T10:39:07Z</time>
      </trkpt>
      <trkpt lat="46.1103" lon="5.92225">
        <ele>447.5</ele>
        <time>2022-09-27T10:39:08Z</time>
      </trkpt>
      <trkpt lat="46.11027" lon="5.92227">
        <ele>447.6</ele>
        <time>2022-09-27T10:39:09Z</time>
      </trkpt>
      <trkpt lat="46.11024" lon="5.9223">
        <ele>447.7</ele>
        <time>2022-09-27T10:39:10Z</time>
      </trkpt>
      <trkpt lat="46.11021" lon="5.92232">
        <ele>447.7</ele>
        <time>2022-09-27T10:39:11Z</time>
      </trkpt>
      <trkpt lat="46.11018" lon="5.92235">
        <ele>447.8</ele>
        <time>2022-09-27T10:39:12Z</time>
      </trkpt>
      <trkpt lat="46.11015" lon="5.92237">
        <ele>447.9</ele>
        <time>2022-09-27T10:39:13Z</time>
      </trkpt>
      <trkpt lat="46.11013" lon="5.9224">
        <ele>448</ele>
        <time>2022-09-27T10:39:14Z</time>
      </trkpt>
      <trkpt lat="46.1101" lon="5.92242">
        <ele>448</ele>
        <time>2022-09-27T10:39:15Z</time>
      </trkpt>
      <trkpt lat="46.11007" lon="5.92245">
        <ele>448.1</ele>
        <time>2022-09-27T10:39:16Z</time>
      </trkpt>
      <trkpt lat="46.11004" lon="5.92247">
        <ele>448.2</ele>
        <time>2022-09-27T10:39:17Z</time>
      </trkpt>
      <trkpt lat="46.11001" lon="5.92248">
        <ele>448.2</ele>
        <time>2022-09-27T10:39:18Z</time>
      </trkpt>
      <trkpt lat="46.10999" lon="5.92252">
        <ele>448.2</ele>
        <time>2022-09-27T10:39:19Z</time>
      </trkpt>
      <trkpt lat="46.10997" lon="5.92254">
        <ele>448.3</ele>
        <time>2022-09-27T10:39:20Z</time>
      </trkpt>
      <trkpt lat="46.10994" lon="5.92256">
        <ele>448.3</ele>
        <time>2022-09-27T10:39:21Z</time>
      </trkpt>
      <trkpt lat="46.10992" lon="5.92259">
        <ele>448.4</ele>
        <time>2022-09-27T10:39:22Z</time>
      </trkpt>
      <trkpt lat="46.10988" lon="5.92261">
        <ele>448.4</ele>
        <time>2022-09-27T10:39:23Z</time>
      </trkpt>
      <trkpt lat="46.10986" lon="5.92264">
        <ele>448.4</ele>
        <time>2022-09-27T10:39:24Z</time>
      </trkpt>
      <trkpt lat="46.10982" lon="5.92267">
        <ele>448.5</ele>
        <time>2022-09-27T10:39:25Z</time>
      </trkpt>
      <trkpt lat="46.1098" lon="5.92268">
        <ele>448.5</ele>
        <time>2022-09-27T10:39:26Z</time>
      </trkpt>
      <trkpt lat="46.10978" lon="5.92271">
        <ele>448.6</ele>
        <time>2022-09-27T10:39:27Z</time>
      </trkpt>
      <trkpt lat="46.10975" lon="5.92272">
        <ele>448.6</ele>
        <time>2022-09-27T10:39:28Z</time>
      </trkpt>
      <trkpt lat="46.10972" lon="5.92276">
        <ele>448.7</ele>
        <time>2022-09-27T10:39:29Z</time>
      </trkpt>
      <trkpt lat="46.10969" lon="5.92278">
        <ele>448.7</ele>
        <time>2022-09-27T10:39:30Z</time>
      </trkpt>
      <trkpt lat="46.10966" lon="5.92281">
        <ele>448.8</ele>
        <time>2022-09-27T10:39:31Z</time>
      </trkpt>
      <trkpt lat="46.10964" lon="5.92284">
        <ele>448.9</ele>
        <time>2022-09-27T10:39:32Z</time>
      </trkpt>
      <trkpt lat="46.10961" lon="5.92285">
        <ele>448.9</ele>
        <time>2022-09-27T10:39:33Z</time>
      </trkpt>
      <trkpt lat="46.10958" lon="5.92288">
        <ele>449</ele>
        <time>2022-09-27T10:39:34Z</time>
      </trkpt>
      <trkpt lat="46.10956" lon="5.9229">
        <ele>449</ele>
        <time>2022-09-27T10:39:35Z</time>
      </trkpt>
      <trkpt lat="46.10953" lon="5.92293">
        <ele>449.1</ele>
        <time>2022-09-27T10:39:36Z</time>
      </trkpt>
      <trkpt lat="46.10951" lon="5.92295">
        <ele>449.2</ele>
        <time>2022-09-27T10:39:37Z</time>
      </trkpt>
      <trkpt lat="46.10948" lon="5.92297">
        <ele>449.3</ele>
        <time>2022-09-27T10:39:38Z</time>
      </trkpt>
      <trkpt lat="46.10946" lon="5.923">
        <ele>449.3</ele>
        <time>2022-09-27T10:39:39Z</time>
      </trkpt>
      <trkpt lat="46.10943" lon="5.92302">
        <ele>449.4</ele>
        <time>2022-09-27T10:39:40Z</time>
      </trkpt>
      <trkpt lat="46.10941" lon="5.92304">
        <ele>449.5</ele>
        <time>2022-09-27T10:39:41Z</time>
      </trkpt>
      <trkpt lat="46.10938" lon="5.92307">
        <ele>449.6</ele>
        <time>2022-09-27T10:39:42Z</time>
      </trkpt>
      <trkpt lat="46.10936" lon="5.92309">
        <ele>449.6</ele>
        <time>2022-09-27T10:39:43Z</time>
      </trkpt>
      <trkpt lat="46.10933" lon="5.92311">
        <ele>449.7</ele>
        <time>2022-09-27T10:39:44Z</time>
      </trkpt>
      <trkpt lat="46.10931" lon="5.92314">
        <ele>449.8</ele>
        <time>2022-09-27T10:39:45Z</time>
      </trkpt>
      <trkpt lat="46.10928" lon="5.92316">
        <ele>449.8</ele>
        <time>2022-09-27T10:39:46Z</time>
      </trkpt>
      <trkpt lat="46.10926" lon="5.92318">
        <ele>449.9</ele>
        <time>2022-09-27T10:39:47Z</time>
      </trkpt>
      <trkpt lat="46.10923" lon="5.9232">
        <ele>450</ele>
        <time>2022-09-27T10:39:48Z</time>
      </trkpt>
      <trkpt lat="46.10921" lon="5.92323">
        <ele>450</ele>
        <time>2022-09-27T10:39:49Z</time>
      </trkpt>
      <trkpt lat="46.10918" lon="5.92325">
        <ele>450.1</ele>
        <time>2022-09-27T10:39:50Z</time>
      </trkpt>
      <trkpt lat="46.10916" lon="5.92327">
        <ele>450.2</ele>
        <time>2022-09-27T10:39:51Z</time>
      </trkpt>
      <trkpt lat="46.10913" lon="5.92329">
        <ele>450.2</ele>
        <time>2022-09-27T10:39:52Z</time>
      </trkpt>
      <trkpt lat="46.10911" lon="5.92332">
        <ele>450.3</ele>
        <time>2022-09-27T10:39:53Z</time>
      </trkpt>
      <trkpt lat="46.10909" lon="5.92334">
        <ele>450.4</ele>
        <time>2022-09-27T10:39:54Z</time>
      </trkpt>
      <trkpt lat="46.10906" lon="5.92336">
        <ele>450.5</ele>
        <time>2022-09-27T10:39:55Z</time>
      </trkpt>
      <trkpt lat="46.10904" lon="5.92338">
        <ele>450.6</ele>
        <time>2022-09-27T10:39:56Z</time>
      </trkpt>
      <trkpt lat="46.10901" lon="5.92341">
        <ele>450.6</ele>
        <time>2022-09-27T10:39:57Z</time>
      </trkpt>
      <trkpt lat="46.10899" lon="5.92343">
        <ele>450.7</ele>
        <time>2022-09-27T10:39:58Z</time>
      </trkpt>
      <trkpt lat="46.10896" lon="5.92345">
        <ele>450.8</ele>
        <time>2022-09-27T10:39:59Z</time>
      </trkpt>
      <trkpt lat="46.10894" lon="5.92347">
        <ele>450.9</ele>
        <time>2022-09-27T10:40:00Z</time>
      </trkpt>
      <trkpt lat="46.10891" lon="5.92349">
        <ele>451</ele>
        <time>2022-09-27T10:40:01Z</time>
      </trkpt>
      <trkpt lat="46.10889" lon="5.92351">
        <ele>451</ele>
        <time>2022-09-27T10:40:02Z</time>
      </trkpt>
      <trkpt lat="46.10888" lon="5.92353">
        <ele>451.1</ele>
        <time>2022-09-27T10:40:03Z</time>
      </trkpt>
      <trkpt lat="46.10885" lon="5.92356">
        <ele>451.2</ele>
        <time>2022-09-27T10:40:04Z</time>
      </trkpt>
      <trkpt lat="46.10882" lon="5.92358">
        <ele>451.3</ele>
        <time>2022-09-27T10:40:05Z</time>
      </trkpt>
      <trkpt lat="46.10879" lon="5.9236">
        <ele>451.4</ele>
        <time>2022-09-27T10:40:06Z</time>
      </trkpt>
      <trkpt lat="46.10877" lon="5.92363">
        <ele>451.5</ele>
        <time>2022-09-27T10:40:07Z</time>
      </trkpt>
      <trkpt lat="46.10874" lon="5.92366">
        <ele>451.6</ele>
        <time>2022-09-27T10:40:08Z</time>
      </trkpt>
      <trkpt lat="46.10872" lon="5.92367">
        <ele>451.6</ele>
        <time>2022-09-27T10:40:09Z</time>
      </trkpt>
      <trkpt lat="46.1087" lon="5.9237">
        <ele>451.7</ele>
        <time>2022-09-27T10:40:10Z</time>
      </trkpt>
      <trkpt lat="46.10867" lon="5.92372">
        <ele>451.8</ele>
        <time>2022-09-27T10:40:11Z</time>
      </trkpt>
      <trkpt lat="46.10865" lon="5.92374">
        <ele>451.9</ele>
        <time>2022-09-27T10:40:12Z</time>
      </trkpt>
      <trkpt lat="46.10862" lon="5.92376">
        <ele>451.9</ele>
        <time>2022-09-27T10:40:13Z</time>
      </trkpt>
      <trkpt lat="46.1086" lon="5.92379">
        <ele>452</ele>
        <time>2022-09-27T10:40:14Z</time>
      </trkpt>
      <trkpt lat="46.10857" lon="5.92381">
        <ele>452.1</ele>
        <time>2022-09-27T10:40:15Z</time>
      </trkpt>
      <trkpt lat="46.10854" lon="5.92384">
        <ele>452.2</ele>
        <time>2022-09-27T10:40:16Z</time>
      </trkpt>
      <trkpt lat="46.10852" lon="5.92386">
        <ele>452.3</ele>
        <time>2022-09-27T10:40:17Z</time>
      </trkpt>
      <trkpt lat="46.10849" lon="5.92388">
        <ele>452.3</ele>
        <time>2022-09-27T10:40:18Z</time>
      </trkpt>
      <trkpt lat="46.10847" lon="5.9239">
        <ele>452.4</ele>
        <time>2022-09-27T10:40:19Z</time>
      </trkpt>
      <trkpt lat="46.10844" lon="5.92392">
        <ele>452.5</ele>
        <time>2022-09-27T10:40:20Z</time>
      </trkpt>
      <trkpt lat="46.10842" lon="5.92395">
        <ele>452.6</ele>
        <time>2022-09-27T10:40:21Z</time>
      </trkpt>
      <trkpt lat="46.10839" lon="5.92397">
        <ele>452.7</ele>
        <time>2022-09-27T10:40:22Z</time>
      </trkpt>
      <trkpt lat="46.10837" lon="5.92399">
        <ele>452.8</ele>
        <time>2022-09-27T10:40:23Z</time>
      </trkpt>
      <trkpt lat="46.10834" lon="5.92401">
        <ele>452.9</ele>
        <time>2022-09-27T10:40:24Z</time>
      </trkpt>
      <trkpt lat="46.10832" lon="5.92404">
        <ele>452.9</ele>
        <time>2022-09-27T10:40:25Z</time>
      </trkpt>
      <trkpt lat="46.1083" lon="5.92406">
        <ele>453</ele>
        <time>2022-09-27T10:40:26Z</time>
      </trkpt>
      <trkpt lat="46.10827" lon="5.92408">
        <ele>453.1</ele>
        <time>2022-09-27T10:40:27Z</time>
      </trkpt>
      <trkpt lat="46.10825" lon="5.9241">
        <ele>453.2</ele>
        <time>2022-09-27T10:40:28Z</time>
      </trkpt>
      <trkpt lat="46.10822" lon="5.92412">
        <ele>453.3</ele>
        <time>2022-09-27T10:40:29Z</time>
      </trkpt>
      <trkpt lat="46.10819" lon="5.92415">
        <ele>453.4</ele>
        <time>2022-09-27T10:40:30Z</time>
      </trkpt>
      <trkpt lat="46.10818" lon="5.92416">
        <ele>453.4</ele>
        <time>2022-09-27T10:40:31Z</time>
      </trkpt>
      <trkpt lat="46.10815" lon="5.92419">
        <ele>453.6</ele>
        <time>2022-09-27T10:40:32Z</time>
      </trkpt>
      <trkpt lat="46.10814" lon="5.92421">
        <ele>453.6</ele>
        <time>2022-09-27T10:40:33Z</time>
      </trkpt>
      <trkpt lat="46.1081" lon="5.92424">
        <ele>453.8</ele>
        <time>2022-09-27T10:40:34Z</time>
      </trkpt>
      <trkpt lat="46.10809" lon="5.92425">
        <ele>453.8</ele>
        <time>2022-09-27T10:40:35Z</time>
      </trkpt>
      <trkpt lat="46.10805" lon="5.92428">
        <ele>453.9</ele>
        <time>2022-09-27T10:40:36Z</time>
      </trkpt>
      <trkpt lat="46.10804" lon="5.92429">
        <ele>454</ele>
        <time>2022-09-27T10:40:37Z</time>
      </trkpt>
      <trkpt lat="46.10801" lon="5.92432">
        <ele>454.1</ele>
        <time>2022-09-27T10:40:38Z</time>
      </trkpt>
      <trkpt lat="46.10799" lon="5.92434">
        <ele>454.2</ele>
        <time>2022-09-27T10:40:39Z</time>
      </trkpt>
      <trkpt lat="46.10796" lon="5.92436">
        <ele>454.3</ele>
        <time>2022-09-27T10:40:40Z</time>
      </trkpt>
      <trkpt lat="46.10794" lon="5.92438">
        <ele>454.4</ele>
        <time>2022-09-27T10:40:41Z</time>
      </trkpt>
      <trkpt lat="46.10791" lon="5.92441">
        <ele>454.6</ele>
        <time>2022-09-27T10:40:42Z</time>
      </trkpt>
      <trkpt lat="46.10789" lon="5.92442">
        <ele>454.6</ele>
        <time>2022-09-27T10:40:43Z</time>
      </trkpt>
      <trkpt lat="46.10786" lon="5.92445">
        <ele>454.8</ele>
        <time>2022-09-27T10:40:44Z</time>
      </trkpt>
      <trkpt lat="46.10785" lon="5.92446">
        <ele>454.8</ele>
        <time>2022-09-27T10:40:45Z</time>
      </trkpt>
      <trkpt lat="46.10782" lon="5.92449">
        <ele>455</ele>
        <time>2022-09-27T10:40:46Z</time>
      </trkpt>
      <trkpt lat="46.10781" lon="5.9245">
        <ele>455</ele>
        <time>2022-09-27T10:40:47Z</time>
      </trkpt>
      <trkpt lat="46.10778" lon="5.92452">
        <ele>455.1</ele>
        <time>2022-09-27T10:40:48Z</time>
      </trkpt>
      <trkpt lat="46.10777" lon="5.92453">
        <ele>455.2</ele>
        <time>2022-09-27T10:40:49Z</time>
      </trkpt>
      <trkpt lat="46.10774" lon="5.92456">
        <ele>455.3</ele>
        <time>2022-09-27T10:40:50Z</time>
      </trkpt>
      <trkpt lat="46.10773" lon="5.92457">
        <ele>455.4</ele>
        <time>2022-09-27T10:40:51Z</time>
      </trkpt>
      <trkpt lat="46.10769" lon="5.9246">
        <ele>455.5</ele>
        <time>2022-09-27T10:40:52Z</time>
      </trkpt>
      <trkpt lat="46.10768" lon="5.92461">
        <ele>455.5</ele>
        <time>2022-09-27T10:40:53Z</time>
      </trkpt>
      <trkpt lat="46.10765" lon="5.92465">
        <ele>455.6</ele>
        <time>2022-09-27T10:40:54Z</time>
      </trkpt>
      <trkpt lat="46.10764" lon="5.92466">
        <ele>455.7</ele>
        <time>2022-09-27T10:40:55Z</time>
      </trkpt>
      <trkpt lat="46.10761" lon="5.92469">
        <ele>455.8</ele>
        <time>2022-09-27T10:40:56Z</time>
      </trkpt>
      <trkpt lat="46.1076" lon="5.9247">
        <ele>455.8</ele>
        <time>2022-09-27T10:40:57Z</time>
      </trkpt>
      <trkpt lat="46.10758" lon="5.92472">
        <ele>455.9</ele>
        <time>2022-09-27T10:40:58Z</time>
      </trkpt>
      <trkpt lat="46.10755" lon="5.92475">
        <ele>456.1</ele>
        <time>2022-09-27T10:40:59Z</time>
      </trkpt>
      <trkpt lat="46.10754" lon="5.92476">
        <ele>456.1</ele>
        <time>2022-09-27T10:41:00Z</time>
      </trkpt>
      <trkpt lat="46.10751" lon="5.92479">
        <ele>456.2</ele>
        <time>2022-09-27T10:41:01Z</time>
      </trkpt>
      <trkpt lat="46.1075" lon="5.9248">
        <ele>456.3</ele>
        <time>2022-09-27T10:41:02Z</time>
      </trkpt>
      <trkpt lat="46.10748" lon="5.92484">
        <ele>456.4</ele>
        <time>2022-09-27T10:41:03Z</time>
      </trkpt>
      <trkpt lat="46.10747" lon="5.92485">
        <ele>456.4</ele>
        <time>2022-09-27T10:41:04Z</time>
      </trkpt>
      <trkpt lat="46.10744" lon="5.92488">
        <ele>456.5</ele>
        <time>2022-09-27T10:41:05Z</time>
      </trkpt>
      <trkpt lat="46.10743" lon="5.92489">
        <ele>456.5</ele>
        <time>2022-09-27T10:41:06Z</time>
      </trkpt>
      <trkpt lat="46.10741" lon="5.92493">
        <ele>456.7</ele>
        <time>2022-09-27T10:41:07Z</time>
      </trkpt>
      <trkpt lat="46.1074" lon="5.92494">
        <ele>456.7</ele>
        <time>2022-09-27T10:41:08Z</time>
      </trkpt>
      <trkpt lat="46.10737" lon="5.92497">
        <ele>456.8</ele>
        <time>2022-09-27T10:41:09Z</time>
      </trkpt>
      <trkpt lat="46.10736" lon="5.92498">
        <ele>456.8</ele>
        <time>2022-09-27T10:41:10Z</time>
      </trkpt>
      <trkpt lat="46.10733" lon="5.92502">
        <ele>456.9</ele>
        <time>2022-09-27T10:41:11Z</time>
      </trkpt>
      <trkpt lat="46.10733" lon="5.92503">
        <ele>457</ele>
        <time>2022-09-27T10:41:12Z</time>
      </trkpt>
      <trkpt lat="46.1073" lon="5.92506">
        <ele>457.1</ele>
        <time>2022-09-27T10:41:13Z</time>
      </trkpt>
      <trkpt lat="46.10729" lon="5.92507">
        <ele>457.1</ele>
        <time>2022-09-27T10:41:14Z</time>
      </trkpt>
      <trkpt lat="46.10727" lon="5.92511">
        <ele>457.2</ele>
        <time>2022-09-27T10:41:15Z</time>
      </trkpt>
      <trkpt lat="46.10726" lon="5.92512">
        <ele>457.2</ele>
        <time>2022-09-27T10:41:16Z</time>
      </trkpt>
      <trkpt lat="46.10723" lon="5.92516">
        <ele>457.3</ele>
        <time>2022-09-27T10:41:17Z</time>
      </trkpt>
      <trkpt lat="46.10722" lon="5.92517">
        <ele>457.4</ele>
        <time>2022-09-27T10:41:18Z</time>
      </trkpt>
      <trkpt lat="46.1072" lon="5.9252">
        <ele>457.5</ele>
        <time>2022-09-27T10:41:19Z</time>
      </trkpt>
      <trkpt lat="46.10719" lon="5.92522">
        <ele>457.5</ele>
        <time>2022-09-27T10:41:20Z</time>
      </trkpt>
      <trkpt lat="46.10716" lon="5.92526">
        <ele>457.6</ele>
        <time>2022-09-27T10:41:21Z</time>
      </trkpt>
      <trkpt lat="46.10715" lon="5.92527">
        <ele>457.6</ele>
        <time>2022-09-27T10:41:22Z</time>
      </trkpt>
      <trkpt lat="46.10713" lon="5.92531">
        <ele>457.7</ele>
        <time>2022-09-27T10:41:23Z</time>
      </trkpt>
      <trkpt lat="46.10712" lon="5.92532">
        <ele>457.8</ele>
        <time>2022-09-27T10:41:24Z</time>
      </trkpt>
      <trkpt lat="46.1071" lon="5.92536">
        <ele>457.9</ele>
        <time>2022-09-27T10:41:25Z</time>
      </trkpt>
      <trkpt lat="46.10709" lon="5.92537">
        <ele>457.9</ele>
        <time>2022-09-27T10:41:26Z</time>
      </trkpt>
      <trkpt lat="46.10706" lon="5.92541">
        <ele>458</ele>
        <time>2022-09-27T10:41:27Z</time>
      </trkpt>
      <trkpt lat="46.10706" lon="5.92542">
        <ele>458</ele>
        <time>2022-09-27T10:41:28Z</time>
      </trkpt>
      <trkpt lat="46.10703" lon="5.92546">
        <ele>458.1</ele>
        <time>2022-09-27T10:41:29Z</time>
      </trkpt>
      <trkpt lat="46.10702" lon="5.92547">
        <ele>458.1</ele>
        <time>2022-09-27T10:41:30Z</time>
      </trkpt>
      <trkpt lat="46.107" lon="5.92551">
        <ele>458.2</ele>
        <time>2022-09-27T10:41:31Z</time>
      </trkpt>
      <trkpt lat="46.10699" lon="5.92552">
        <ele>458.2</ele>
        <time>2022-09-27T10:41:32Z</time>
      </trkpt>
      <trkpt lat="46.10697" lon="5.92556">
        <ele>458.3</ele>
        <time>2022-09-27T10:41:33Z</time>
      </trkpt>
      <trkpt lat="46.10696" lon="5.92557">
        <ele>458.3</ele>
        <time>2022-09-27T10:41:34Z</time>
      </trkpt>
      <trkpt lat="46.10693" lon="5.92561">
        <ele>458.4</ele>
        <time>2022-09-27T10:41:35Z</time>
      </trkpt>
      <trkpt lat="46.10692" lon="5.92562">
        <ele>458.4</ele>
        <time>2022-09-27T10:41:36Z</time>
      </trkpt>
      <trkpt lat="46.1069" lon="5.92566">
        <ele>458.5</ele>
        <time>2022-09-27T10:41:37Z</time>
      </trkpt>
      <trkpt lat="46.10689" lon="5.92567">
        <ele>458.5</ele>
        <time>2022-09-27T10:41:38Z</time>
      </trkpt>
      <trkpt lat="46.10686" lon="5.92571">
        <ele>458.6</ele>
        <time>2022-09-27T10:41:39Z</time>
      </trkpt>
      <trkpt lat="46.10686" lon="5.92572">
        <ele>458.6</ele>
        <time>2022-09-27T10:41:40Z</time>
      </trkpt>
      <trkpt lat="46.10683" lon="5.92576">
        <ele>458.7</ele>
        <time>2022-09-27T10:41:41Z</time>
      </trkpt>
      <trkpt lat="46.10683" lon="5.92577">
        <ele>458.7</ele>
        <time>2022-09-27T10:41:42Z</time>
      </trkpt>
      <trkpt lat="46.1068" lon="5.92581">
        <ele>458.8</ele>
        <time>2022-09-27T10:41:43Z</time>
      </trkpt>
      <trkpt lat="46.10679" lon="5.92582">
        <ele>458.8</ele>
        <time>2022-09-27T10:41:44Z</time>
      </trkpt>
      <trkpt lat="46.10677" lon="5.92586">
        <ele>458.9</ele>
        <time>2022-09-27T10:41:45Z</time>
      </trkpt>
      <trkpt lat="46.10676" lon="5.92587">
        <ele>458.9</ele>
        <time>2022-09-27T10:41:46Z</time>
      </trkpt>
      <trkpt lat="46.10673" lon="5.92591">
        <ele>459</ele>
        <time>2022-09-27T10:41:47Z</time>
      </trkpt>
      <trkpt lat="46.10673" lon="5.92592">
        <ele>459.1</ele>
        <time>2022-09-27T10:41:48Z</time>
      </trkpt>
      <trkpt lat="46.1067" lon="5.92596">
        <ele>459.2</ele>
        <time>2022-09-27T10:41:49Z</time>
      </trkpt>
      <trkpt lat="46.10669" lon="5.92598">
        <ele>459.2</ele>
        <time>2022-09-27T10:41:50Z</time>
      </trkpt>
      <trkpt lat="46.10667" lon="5.92602">
        <ele>459.3</ele>
        <time>2022-09-27T10:41:51Z</time>
      </trkpt>
      <trkpt lat="46.10666" lon="5.92603">
        <ele>459.3</ele>
        <time>2022-09-27T10:41:52Z</time>
      </trkpt>
      <trkpt lat="46.10663" lon="5.92607">
        <ele>459.4</ele>
        <time>2022-09-27T10:41:53Z</time>
      </trkpt>
      <trkpt lat="46.10662" lon="5.92608">
        <ele>459.4</ele>
        <time>2022-09-27T10:41:54Z</time>
      </trkpt>
      <trkpt lat="46.1066" lon="5.92612">
        <ele>459.5</ele>
        <time>2022-09-27T10:41:55Z</time>
      </trkpt>
      <trkpt lat="46.10659" lon="5.92613">
        <ele>459.6</ele>
        <time>2022-09-27T10:41:56Z</time>
      </trkpt>
      <trkpt lat="46.10657" lon="5.92616">
        <ele>459.7</ele>
        <time>2022-09-27T10:41:57Z</time>
      </trkpt>
      <trkpt lat="46.10656" lon="5.92618">
        <ele>459.7</ele>
        <time>2022-09-27T10:41:58Z</time>
      </trkpt>
      <trkpt lat="46.10654" lon="5.92622">
        <ele>459.8</ele>
        <time>2022-09-27T10:41:59Z</time>
      </trkpt>
      <trkpt lat="46.10653" lon="5.92623">
        <ele>459.8</ele>
        <time>2022-09-27T10:42:00Z</time>
      </trkpt>
      <trkpt lat="46.10651" lon="5.92626">
        <ele>459.9</ele>
        <time>2022-09-27T10:42:01Z</time>
      </trkpt>
      <trkpt lat="46.10648" lon="5.9263">
        <ele>460</ele>
        <time>2022-09-27T10:42:02Z</time>
      </trkpt>
      <trkpt lat="46.10648" lon="5.92631">
        <ele>460</ele>
        <time>2022-09-27T10:42:03Z</time>
      </trkpt>
      <trkpt lat="46.10645" lon="5.92635">
        <ele>460.1</ele>
        <time>2022-09-27T10:42:04Z</time>
      </trkpt>
      <trkpt lat="46.10644" lon="5.92636">
        <ele>460.2</ele>
        <time>2022-09-27T10:42:05Z</time>
      </trkpt>
      <trkpt lat="46.10642" lon="5.9264">
        <ele>460.3</ele>
        <time>2022-09-27T10:42:06Z</time>
      </trkpt>
      <trkpt lat="46.10641" lon="5.92641">
        <ele>460.3</ele>
        <time>2022-09-27T10:42:07Z</time>
      </trkpt>
      <trkpt lat="46.10638" lon="5.92645">
        <ele>460.4</ele>
        <time>2022-09-27T10:42:08Z</time>
      </trkpt>
      <trkpt lat="46.10638" lon="5.92646">
        <ele>460.5</ele>
        <time>2022-09-27T10:42:09Z</time>
      </trkpt>
      <trkpt lat="46.10635" lon="5.9265">
        <ele>460.6</ele>
        <time>2022-09-27T10:42:10Z</time>
      </trkpt>
      <trkpt lat="46.10634" lon="5.92651">
        <ele>460.6</ele>
        <time>2022-09-27T10:42:11Z</time>
      </trkpt>
      <trkpt lat="46.10631" lon="5.92655">
        <ele>460.8</ele>
        <time>2022-09-27T10:42:12Z</time>
      </trkpt>
      <trkpt lat="46.10631" lon="5.92656">
        <ele>460.8</ele>
        <time>2022-09-27T10:42:13Z</time>
      </trkpt>
      <trkpt lat="46.10628" lon="5.9266">
        <ele>460.9</ele>
        <time>2022-09-27T10:42:14Z</time>
      </trkpt>
      <trkpt lat="46.10627" lon="5.92661">
        <ele>461</ele>
        <time>2022-09-27T10:42:15Z</time>
      </trkpt>
      <trkpt lat="46.10625" lon="5.92665">
        <ele>461.1</ele>
        <time>2022-09-27T10:42:16Z</time>
      </trkpt>
      <trkpt lat="46.10624" lon="5.92666">
        <ele>461.1</ele>
        <time>2022-09-27T10:42:17Z</time>
      </trkpt>
      <trkpt lat="46.10621" lon="5.9267">
        <ele>461.3</ele>
        <time>2022-09-27T10:42:18Z</time>
      </trkpt>
      <trkpt lat="46.1062" lon="5.92672">
        <ele>461.3</ele>
        <time>2022-09-27T10:42:19Z</time>
      </trkpt>
      <trkpt lat="46.10618" lon="5.92675">
        <ele>461.4</ele>
        <time>2022-09-27T10:42:20Z</time>
      </trkpt>
      <trkpt lat="46.10617" lon="5.92677">
        <ele>461.5</ele>
        <time>2022-09-27T10:42:21Z</time>
      </trkpt>
      <trkpt lat="46.10615" lon="5.9268">
        <ele>461.6</ele>
        <time>2022-09-27T10:42:22Z</time>
      </trkpt>
      <trkpt lat="46.10614" lon="5.92682">
        <ele>461.7</ele>
        <time>2022-09-27T10:42:23Z</time>
      </trkpt>
      <trkpt lat="46.10612" lon="5.92684">
        <ele>461.7</ele>
        <time>2022-09-27T10:42:24Z</time>
      </trkpt>
      <trkpt lat="46.10609" lon="5.92688">
        <ele>461.9</ele>
        <time>2022-09-27T10:42:25Z</time>
      </trkpt>
      <trkpt lat="46.10608" lon="5.9269">
        <ele>461.9</ele>
        <time>2022-09-27T10:42:26Z</time>
      </trkpt>
      <trkpt lat="46.10606" lon="5.92694">
        <ele>462</ele>
        <time>2022-09-27T10:42:27Z</time>
      </trkpt>
      <trkpt lat="46.10605" lon="5.92695">
        <ele>462.1</ele>
        <time>2022-09-27T10:42:28Z</time>
      </trkpt>
      <trkpt lat="46.10603" lon="5.92698">
        <ele>462.2</ele>
        <time>2022-09-27T10:42:29Z</time>
      </trkpt>
      <trkpt lat="46.106" lon="5.92702">
        <ele>462.3</ele>
        <time>2022-09-27T10:42:30Z</time>
      </trkpt>
      <trkpt lat="46.10599" lon="5.92703">
        <ele>462.3</ele>
        <time>2022-09-27T10:42:31Z</time>
      </trkpt>
      <trkpt lat="46.10597" lon="5.92707">
        <ele>462.4</ele>
        <time>2022-09-27T10:42:32Z</time>
      </trkpt>
      <trkpt lat="46.10596" lon="5.92708">
        <ele>462.5</ele>
        <time>2022-09-27T10:42:33Z</time>
      </trkpt>
      <trkpt lat="46.10594" lon="5.92712">
        <ele>462.6</ele>
        <time>2022-09-27T10:42:34Z</time>
      </trkpt>
      <trkpt lat="46.10593" lon="5.92714">
        <ele>462.6</ele>
        <time>2022-09-27T10:42:35Z</time>
      </trkpt>
      <trkpt lat="46.1059" lon="5.92718">
        <ele>462.8</ele>
        <time>2022-09-27T10:42:36Z</time>
      </trkpt>
      <trkpt lat="46.10589" lon="5.92719">
        <ele>462.8</ele>
        <time>2022-09-27T10:42:37Z</time>
      </trkpt>
      <trkpt lat="46.10586" lon="5.92723">
        <ele>462.9</ele>
        <time>2022-09-27T10:42:38Z</time>
      </trkpt>
      <trkpt lat="46.10586" lon="5.92724">
        <ele>463</ele>
        <time>2022-09-27T10:42:39Z</time>
      </trkpt>
      <trkpt lat="46.10583" lon="5.92728">
        <ele>463</ele>
        <time>2022-09-27T10:42:40Z</time>
      </trkpt>
      <trkpt lat="46.10582" lon="5.9273">
        <ele>463.1</ele>
        <time>2022-09-27T10:42:41Z</time>
      </trkpt>
      <trkpt lat="46.10579" lon="5.92734">
        <ele>463.2</ele>
        <time>2022-09-27T10:42:42Z</time>
      </trkpt>
      <trkpt lat="46.10578" lon="5.92735">
        <ele>463.2</ele>
        <time>2022-09-27T10:42:43Z</time>
      </trkpt>
      <trkpt lat="46.10576" lon="5.92739">
        <ele>463.3</ele>
        <time>2022-09-27T10:42:44Z</time>
      </trkpt>
      <trkpt lat="46.10575" lon="5.9274">
        <ele>463.3</ele>
        <time>2022-09-27T10:42:45Z</time>
      </trkpt>
      <trkpt lat="46.10572" lon="5.92744">
        <ele>463.4</ele>
        <time>2022-09-27T10:42:46Z</time>
      </trkpt>
      <trkpt lat="46.10571" lon="5.92746">
        <ele>463.4</ele>
        <time>2022-09-27T10:42:47Z</time>
      </trkpt>
      <trkpt lat="46.10569" lon="5.9275">
        <ele>463.5</ele>
        <time>2022-09-27T10:42:48Z</time>
      </trkpt>
      <trkpt lat="46.10568" lon="5.92751">
        <ele>463.5</ele>
        <time>2022-09-27T10:42:49Z</time>
      </trkpt>
      <trkpt lat="46.10566" lon="5.92755">
        <ele>463.6</ele>
        <time>2022-09-27T10:42:50Z</time>
      </trkpt>
      <trkpt lat="46.10565" lon="5.92756">
        <ele>463.7</ele>
        <time>2022-09-27T10:42:51Z</time>
      </trkpt>
      <trkpt lat="46.10562" lon="5.9276">
        <ele>463.8</ele>
        <time>2022-09-27T10:42:52Z</time>
      </trkpt>
      <trkpt lat="46.10561" lon="5.92761">
        <ele>463.8</ele>
        <time>2022-09-27T10:42:53Z</time>
      </trkpt>
      <trkpt lat="46.10559" lon="5.92763">
        <ele>463.9</ele>
        <time>2022-09-27T10:42:54Z</time>
      </trkpt>
      <trkpt lat="46.10557" lon="5.92766">
        <ele>463.9</ele>
        <time>2022-09-27T10:42:55Z</time>
      </trkpt>
      <trkpt lat="46.10554" lon="5.9277">
        <ele>464</ele>
        <time>2022-09-27T10:42:56Z</time>
      </trkpt>
      <trkpt lat="46.10552" lon="5.92774">
        <ele>464.1</ele>
        <time>2022-09-27T10:42:57Z</time>
      </trkpt>
      <trkpt lat="46.10549" lon="5.92778">
        <ele>464.3</ele>
        <time>2022-09-27T10:42:58Z</time>
      </trkpt>
      <trkpt lat="46.10546" lon="5.92781">
        <ele>464.4</ele>
        <time>2022-09-27T10:42:59Z</time>
      </trkpt>
      <trkpt lat="46.10544" lon="5.92785">
        <ele>464.5</ele>
        <time>2022-09-27T10:43:00Z</time>
      </trkpt>
      <trkpt lat="46.10542" lon="5.92788">
        <ele>464.6</ele>
        <time>2022-09-27T10:43:01Z</time>
      </trkpt>
      <trkpt lat="46.10539" lon="5.92791">
        <ele>464.7</ele>
        <time>2022-09-27T10:43:02Z</time>
      </trkpt>
      <trkpt lat="46.10537" lon="5.92794">
        <ele>464.8</ele>
        <time>2022-09-27T10:43:03Z</time>
      </trkpt>
      <trkpt lat="46.10534" lon="5.92797">
        <ele>464.9</ele>
        <time>2022-09-27T10:43:04Z</time>
      </trkpt>
      <trkpt lat="46.10532" lon="5.928">
        <ele>465</ele>
        <time>2022-09-27T10:43:05Z</time>
      </trkpt>
      <trkpt lat="46.10529" lon="5.92803">
        <ele>465.1</ele>
        <time>2022-09-27T10:43:06Z</time>
      </trkpt>
      <trkpt lat="46.10527" lon="5.92806">
        <ele>465.2</ele>
        <time>2022-09-27T10:43:07Z</time>
      </trkpt>
      <trkpt lat="46.10525" lon="5.92808">
        <ele>465.3</ele>
        <time>2022-09-27T10:43:08Z</time>
      </trkpt>
      <trkpt lat="46.10522" lon="5.92811">
        <ele>465.4</ele>
        <time>2022-09-27T10:43:09Z</time>
      </trkpt>
      <trkpt lat="46.10519" lon="5.92813">
        <ele>465.6</ele>
        <time>2022-09-27T10:43:10Z</time>
      </trkpt>
      <trkpt lat="46.10516" lon="5.92817">
        <ele>465.7</ele>
        <time>2022-09-27T10:43:11Z</time>
      </trkpt>
      <trkpt lat="46.10514" lon="5.92818">
        <ele>465.7</ele>
        <time>2022-09-27T10:43:12Z</time>
      </trkpt>
      <trkpt lat="46.10512" lon="5.9282">
        <ele>465.8</ele>
        <time>2022-09-27T10:43:13Z</time>
      </trkpt>
      <trkpt lat="46.10509" lon="5.92823">
        <ele>465.9</ele>
        <time>2022-09-27T10:43:14Z</time>
      </trkpt>
      <trkpt lat="46.10507" lon="5.92825">
        <ele>466</ele>
        <time>2022-09-27T10:43:15Z</time>
      </trkpt>
      <trkpt lat="46.10504" lon="5.92827">
        <ele>466.1</ele>
        <time>2022-09-27T10:43:16Z</time>
      </trkpt>
      <trkpt lat="46.10502" lon="5.9283">
        <ele>466.2</ele>
        <time>2022-09-27T10:43:17Z</time>
      </trkpt>
      <trkpt lat="46.10499" lon="5.92832">
        <ele>466.3</ele>
        <time>2022-09-27T10:43:18Z</time>
      </trkpt>
      <trkpt lat="46.10498" lon="5.92834">
        <ele>466.4</ele>
        <time>2022-09-27T10:43:19Z</time>
      </trkpt>
      <trkpt lat="46.10496" lon="5.92835">
        <ele>466.4</ele>
        <time>2022-09-27T10:43:20Z</time>
      </trkpt>
      <trkpt lat="46.10493" lon="5.92838">
        <ele>466.5</ele>
        <time>2022-09-27T10:43:21Z</time>
      </trkpt>
      <trkpt lat="46.1049" lon="5.9284">
        <ele>466.6</ele>
        <time>2022-09-27T10:43:22Z</time>
      </trkpt>
      <trkpt lat="46.10487" lon="5.92843">
        <ele>466.7</ele>
        <time>2022-09-27T10:43:23Z</time>
      </trkpt>
      <trkpt lat="46.10485" lon="5.92846">
        <ele>466.8</ele>
        <time>2022-09-27T10:43:24Z</time>
      </trkpt>
      <trkpt lat="46.10482" lon="5.92847">
        <ele>466.9</ele>
        <time>2022-09-27T10:43:25Z</time>
      </trkpt>
      <trkpt lat="46.10479" lon="5.9285">
        <ele>467</ele>
        <time>2022-09-27T10:43:26Z</time>
      </trkpt>
      <trkpt lat="46.10477" lon="5.92853">
        <ele>467.1</ele>
        <time>2022-09-27T10:43:27Z</time>
      </trkpt>
      <trkpt lat="46.10474" lon="5.92856">
        <ele>467.2</ele>
        <time>2022-09-27T10:43:28Z</time>
      </trkpt>
      <trkpt lat="46.10471" lon="5.92858">
        <ele>467.3</ele>
        <time>2022-09-27T10:43:29Z</time>
      </trkpt>
      <trkpt lat="46.10468" lon="5.92862">
        <ele>467.5</ele>
        <time>2022-09-27T10:43:30Z</time>
      </trkpt>
      <trkpt lat="46.10466" lon="5.92863">
        <ele>467.5</ele>
        <time>2022-09-27T10:43:31Z</time>
      </trkpt>
      <trkpt lat="46.10464" lon="5.92865">
        <ele>467.6</ele>
        <time>2022-09-27T10:43:32Z</time>
      </trkpt>
      <trkpt lat="46.10461" lon="5.92868">
        <ele>467.7</ele>
        <time>2022-09-27T10:43:33Z</time>
      </trkpt>
      <trkpt lat="46.10459" lon="5.9287">
        <ele>467.8</ele>
        <time>2022-09-27T10:43:34Z</time>
      </trkpt>
      <trkpt lat="46.10456" lon="5.92872">
        <ele>467.9</ele>
        <time>2022-09-27T10:43:35Z</time>
      </trkpt>
      <trkpt lat="46.10453" lon="5.92876">
        <ele>468</ele>
        <time>2022-09-27T10:43:36Z</time>
      </trkpt>
      <trkpt lat="46.10452" lon="5.92876">
        <ele>468.1</ele>
        <time>2022-09-27T10:43:37Z</time>
      </trkpt>
      <trkpt lat="46.10448" lon="5.9288">
        <ele>468.2</ele>
        <time>2022-09-27T10:43:38Z</time>
      </trkpt>
      <trkpt lat="46.10447" lon="5.92881">
        <ele>468.3</ele>
        <time>2022-09-27T10:43:39Z</time>
      </trkpt>
      <trkpt lat="46.10445" lon="5.92883">
        <ele>468.3</ele>
        <time>2022-09-27T10:43:40Z</time>
      </trkpt>
      <trkpt lat="46.10442" lon="5.92885">
        <ele>468.4</ele>
        <time>2022-09-27T10:43:41Z</time>
      </trkpt>
      <trkpt lat="46.1044" lon="5.92887">
        <ele>468.5</ele>
        <time>2022-09-27T10:43:42Z</time>
      </trkpt>
      <trkpt lat="46.10438" lon="5.9289">
        <ele>468.6</ele>
        <time>2022-09-27T10:43:43Z</time>
      </trkpt>
      <trkpt lat="46.10437" lon="5.92891">
        <ele>468.6</ele>
        <time>2022-09-27T10:43:44Z</time>
      </trkpt>
      <trkpt lat="46.10434" lon="5.92892">
        <ele>468.7</ele>
        <time>2022-09-27T10:43:45Z</time>
      </trkpt>
      <trkpt lat="46.10434" lon="5.92893">
        <ele>468.7</ele>
        <time>2022-09-27T10:43:46Z</time>
      </trkpt>
      <trkpt lat="46.10431" lon="5.92895">
        <ele>468.8</ele>
        <time>2022-09-27T10:43:47Z</time>
      </trkpt>
      <trkpt lat="46.1043" lon="5.92896">
        <ele>468.8</ele>
        <time>2022-09-27T10:43:48Z</time>
      </trkpt>
      <trkpt lat="46.10427" lon="5.92898">
        <ele>468.9</ele>
        <time>2022-09-27T10:43:49Z</time>
      </trkpt>
      <trkpt lat="46.10423" lon="5.92902">
        <ele>469</ele>
        <time>2022-09-27T10:43:50Z</time>
      </trkpt>
      <trkpt lat="46.1042" lon="5.92905">
        <ele>469.1</ele>
        <time>2022-09-27T10:43:51Z</time>
      </trkpt>
      <trkpt lat="46.10417" lon="5.92908">
        <ele>469.2</ele>
        <time>2022-09-27T10:43:52Z</time>
      </trkpt>
      <trkpt lat="46.10414" lon="5.9291">
        <ele>469.2</ele>
        <time>2022-09-27T10:43:53Z</time>
      </trkpt>
      <trkpt lat="46.10412" lon="5.92913">
        <ele>469.2</ele>
        <time>2022-09-27T10:43:54Z</time>
      </trkpt>
      <trkpt lat="46.10409" lon="5.92915">
        <ele>469.3</ele>
        <time>2022-09-27T10:43:55Z</time>
      </trkpt>
      <trkpt lat="46.10407" lon="5.92917">
        <ele>469.3</ele>
        <time>2022-09-27T10:43:56Z</time>
      </trkpt>
      <trkpt lat="46.10403" lon="5.9292">
        <ele>469.4</ele>
        <time>2022-09-27T10:43:57Z</time>
      </trkpt>
      <trkpt lat="46.10402" lon="5.92922">
        <ele>469.5</ele>
        <time>2022-09-27T10:43:58Z</time>
      </trkpt>
      <trkpt lat="46.104" lon="5.92924">
        <ele>469.5</ele>
        <time>2022-09-27T10:43:59Z</time>
      </trkpt>
      <trkpt lat="46.10397" lon="5.92926">
        <ele>469.6</ele>
        <time>2022-09-27T10:44:00Z</time>
      </trkpt>
      <trkpt lat="46.10394" lon="5.92929">
        <ele>469.7</ele>
        <time>2022-09-27T10:44:01Z</time>
      </trkpt>
      <trkpt lat="46.10393" lon="5.9293">
        <ele>469.7</ele>
        <time>2022-09-27T10:44:02Z</time>
      </trkpt>
      <trkpt lat="46.10389" lon="5.92933">
        <ele>469.8</ele>
        <time>2022-09-27T10:44:03Z</time>
      </trkpt>
      <trkpt lat="46.10388" lon="5.92935">
        <ele>469.8</ele>
        <time>2022-09-27T10:44:04Z</time>
      </trkpt>
      <trkpt lat="46.10386" lon="5.92937">
        <ele>469.9</ele>
        <time>2022-09-27T10:44:05Z</time>
      </trkpt>
      <trkpt lat="46.10382" lon="5.9294">
        <ele>470</ele>
        <time>2022-09-27T10:44:06Z</time>
      </trkpt>
      <trkpt lat="46.10381" lon="5.92941">
        <ele>470</ele>
        <time>2022-09-27T10:44:07Z</time>
      </trkpt>
      <trkpt lat="46.10378" lon="5.92944">
        <ele>470.1</ele>
        <time>2022-09-27T10:44:08Z</time>
      </trkpt>
      <trkpt lat="46.10376" lon="5.92946">
        <ele>470.1</ele>
        <time>2022-09-27T10:44:09Z</time>
      </trkpt>
      <trkpt lat="46.10373" lon="5.92949">
        <ele>470.2</ele>
        <time>2022-09-27T10:44:10Z</time>
      </trkpt>
      <trkpt lat="46.10371" lon="5.92951">
        <ele>470.3</ele>
        <time>2022-09-27T10:44:11Z</time>
      </trkpt>
      <trkpt lat="46.10368" lon="5.92953">
        <ele>470.3</ele>
        <time>2022-09-27T10:44:12Z</time>
      </trkpt>
      <trkpt lat="46.10365" lon="5.92955">
        <ele>470.4</ele>
        <time>2022-09-27T10:44:13Z</time>
      </trkpt>
      <trkpt lat="46.10363" lon="5.92958">
        <ele>470.5</ele>
        <time>2022-09-27T10:44:14Z</time>
      </trkpt>
      <trkpt lat="46.1036" lon="5.9296">
        <ele>470.5</ele>
        <time>2022-09-27T10:44:15Z</time>
      </trkpt>
      <trkpt lat="46.10358" lon="5.92963">
        <ele>470.6</ele>
        <time>2022-09-27T10:44:16Z</time>
      </trkpt>
      <trkpt lat="46.10355" lon="5.92965">
        <ele>470.7</ele>
        <time>2022-09-27T10:44:17Z</time>
      </trkpt>
      <trkpt lat="46.10353" lon="5.92967">
        <ele>470.8</ele>
        <time>2022-09-27T10:44:18Z</time>
      </trkpt>
      <trkpt lat="46.10351" lon="5.92969">
        <ele>470.8</ele>
        <time>2022-09-27T10:44:19Z</time>
      </trkpt>
      <trkpt lat="46.10348" lon="5.92972">
        <ele>470.9</ele>
        <time>2022-09-27T10:44:20Z</time>
      </trkpt>
      <trkpt lat="46.10345" lon="5.92974">
        <ele>471</ele>
        <time>2022-09-27T10:44:21Z</time>
      </trkpt>
      <trkpt lat="46.10343" lon="5.92977">
        <ele>471</ele>
        <time>2022-09-27T10:44:22Z</time>
      </trkpt>
      <trkpt lat="46.1034" lon="5.92979">
        <ele>471.1</ele>
        <time>2022-09-27T10:44:23Z</time>
      </trkpt>
      <trkpt lat="46.10338" lon="5.92981">
        <ele>471.2</ele>
        <time>2022-09-27T10:44:24Z</time>
      </trkpt>
      <trkpt lat="46.10335" lon="5.92984">
        <ele>471.2</ele>
        <time>2022-09-27T10:44:25Z</time>
      </trkpt>
      <trkpt lat="46.10333" lon="5.92986">
        <ele>471.3</ele>
        <time>2022-09-27T10:44:26Z</time>
      </trkpt>
      <trkpt lat="46.1033" lon="5.92988">
        <ele>471.4</ele>
        <time>2022-09-27T10:44:27Z</time>
      </trkpt>
      <trkpt lat="46.10328" lon="5.92991">
        <ele>471.4</ele>
        <time>2022-09-27T10:44:28Z</time>
      </trkpt>
      <trkpt lat="46.10325" lon="5.92993">
        <ele>471.5</ele>
        <time>2022-09-27T10:44:29Z</time>
      </trkpt>
      <trkpt lat="46.10323" lon="5.92995">
        <ele>471.6</ele>
        <time>2022-09-27T10:44:30Z</time>
      </trkpt>
      <trkpt lat="46.1032" lon="5.92998">
        <ele>471.6</ele>
        <time>2022-09-27T10:44:31Z</time>
      </trkpt>
      <trkpt lat="46.10318" lon="5.93">
        <ele>471.7</ele>
        <time>2022-09-27T10:44:32Z</time>
      </trkpt>
      <trkpt lat="46.10316" lon="5.93002">
        <ele>471.8</ele>
        <time>2022-09-27T10:44:33Z</time>
      </trkpt>
      <trkpt lat="46.10313" lon="5.93004">
        <ele>471.8</ele>
        <time>2022-09-27T10:44:34Z</time>
      </trkpt>
      <trkpt lat="46.1031" lon="5.93007">
        <ele>471.9</ele>
        <time>2022-09-27T10:44:35Z</time>
      </trkpt>
      <trkpt lat="46.10309" lon="5.93008">
        <ele>472</ele>
        <time>2022-09-27T10:44:36Z</time>
      </trkpt>
      <trkpt lat="46.10306" lon="5.9301">
        <ele>472.1</ele>
        <time>2022-09-27T10:44:37Z</time>
      </trkpt>
      <trkpt lat="46.10304" lon="5.93012">
        <ele>472.1</ele>
        <time>2022-09-27T10:44:38Z</time>
      </trkpt>
      <trkpt lat="46.103" lon="5.93015">
        <ele>472.2</ele>
        <time>2022-09-27T10:44:39Z</time>
      </trkpt>
      <trkpt lat="46.10299" lon="5.93016">
        <ele>472.3</ele>
        <time>2022-09-27T10:44:40Z</time>
      </trkpt>
      <trkpt lat="46.10297" lon="5.93019">
        <ele>472.4</ele>
        <time>2022-09-27T10:44:41Z</time>
      </trkpt>
      <trkpt lat="46.10293" lon="5.93022">
        <ele>472.5</ele>
        <time>2022-09-27T10:44:42Z</time>
      </trkpt>
      <trkpt lat="46.10292" lon="5.93023">
        <ele>472.5</ele>
        <time>2022-09-27T10:44:43Z</time>
      </trkpt>
      <trkpt lat="46.1029" lon="5.93025">
        <ele>472.6</ele>
        <time>2022-09-27T10:44:44Z</time>
      </trkpt>
      <trkpt lat="46.10287" lon="5.93027">
        <ele>472.7</ele>
        <time>2022-09-27T10:44:45Z</time>
      </trkpt>
      <trkpt lat="46.10285" lon="5.93029">
        <ele>472.8</ele>
        <time>2022-09-27T10:44:46Z</time>
      </trkpt>
      <trkpt lat="46.10282" lon="5.93032">
        <ele>472.9</ele>
        <time>2022-09-27T10:44:47Z</time>
      </trkpt>
      <trkpt lat="46.10279" lon="5.93035">
        <ele>473</ele>
        <time>2022-09-27T10:44:48Z</time>
      </trkpt>
      <trkpt lat="46.10278" lon="5.93036">
        <ele>473</ele>
        <time>2022-09-27T10:44:49Z</time>
      </trkpt>
      <trkpt lat="46.10275" lon="5.93039">
        <ele>473.1</ele>
        <time>2022-09-27T10:44:50Z</time>
      </trkpt>
      <trkpt lat="46.10274" lon="5.9304">
        <ele>473.2</ele>
        <time>2022-09-27T10:44:51Z</time>
      </trkpt>
      <trkpt lat="46.10271" lon="5.93043">
        <ele>473.3</ele>
        <time>2022-09-27T10:44:52Z</time>
      </trkpt>
      <trkpt lat="46.1027" lon="5.93045">
        <ele>473.3</ele>
        <time>2022-09-27T10:44:53Z</time>
      </trkpt>
      <trkpt lat="46.10268" lon="5.93047">
        <ele>473.4</ele>
        <time>2022-09-27T10:44:54Z</time>
      </trkpt>
      <trkpt lat="46.10265" lon="5.9305">
        <ele>473.5</ele>
        <time>2022-09-27T10:44:55Z</time>
      </trkpt>
      <trkpt lat="46.10263" lon="5.93053">
        <ele>473.5</ele>
        <time>2022-09-27T10:44:56Z</time>
      </trkpt>
      <trkpt lat="46.10262" lon="5.93055">
        <ele>473.6</ele>
        <time>2022-09-27T10:44:57Z</time>
      </trkpt>
      <trkpt lat="46.10259" lon="5.93059">
        <ele>473.6</ele>
        <time>2022-09-27T10:44:58Z</time>
      </trkpt>
      <trkpt lat="46.10258" lon="5.9306">
        <ele>473.7</ele>
        <time>2022-09-27T10:44:59Z</time>
      </trkpt>
      <trkpt lat="46.10255" lon="5.93065">
        <ele>473.8</ele>
        <time>2022-09-27T10:45:00Z</time>
      </trkpt>
      <trkpt lat="46.10254" lon="5.93066">
        <ele>473.8</ele>
        <time>2022-09-27T10:45:01Z</time>
      </trkpt>
      <trkpt lat="46.10252" lon="5.9307">
        <ele>473.9</ele>
        <time>2022-09-27T10:45:02Z</time>
      </trkpt>
      <trkpt lat="46.1025" lon="5.93073">
        <ele>473.9</ele>
        <time>2022-09-27T10:45:03Z</time>
      </trkpt>
      <trkpt lat="46.10248" lon="5.93076">
        <ele>474</ele>
        <time>2022-09-27T10:45:04Z</time>
      </trkpt>
      <trkpt lat="46.10246" lon="5.93081">
        <ele>474.1</ele>
        <time>2022-09-27T10:45:05Z</time>
      </trkpt>
      <trkpt lat="46.10245" lon="5.93083">
        <ele>474.1</ele>
        <time>2022-09-27T10:45:06Z</time>
      </trkpt>
      <trkpt lat="46.10244" lon="5.93086">
        <ele>474.2</ele>
        <time>2022-09-27T10:45:07Z</time>
      </trkpt>
      <trkpt lat="46.10241" lon="5.93091">
        <ele>474.3</ele>
        <time>2022-09-27T10:45:08Z</time>
      </trkpt>
      <trkpt lat="46.1024" lon="5.93093">
        <ele>474.3</ele>
        <time>2022-09-27T10:45:09Z</time>
      </trkpt>
      <trkpt lat="46.10238" lon="5.93097">
        <ele>474.4</ele>
        <time>2022-09-27T10:45:10Z</time>
      </trkpt>
      <trkpt lat="46.10238" lon="5.93098">
        <ele>474.4</ele>
        <time>2022-09-27T10:45:11Z</time>
      </trkpt>
      <trkpt lat="46.10237" lon="5.93102">
        <ele>474.5</ele>
        <time>2022-09-27T10:45:12Z</time>
      </trkpt>
      <trkpt lat="46.10235" lon="5.93105">
        <ele>474.6</ele>
        <time>2022-09-27T10:45:13Z</time>
      </trkpt>
      <trkpt lat="46.10233" lon="5.93108">
        <ele>474.7</ele>
        <time>2022-09-27T10:45:14Z</time>
      </trkpt>
      <trkpt lat="46.1023" lon="5.93108">
        <ele>474.7</ele>
        <time>2022-09-27T10:45:15Z</time>
      </trkpt>
      <trkpt lat="46.10227" lon="5.9311">
        <ele>474.8</ele>
        <time>2022-09-27T10:45:16Z</time>
      </trkpt>
      <trkpt lat="46.10226" lon="5.93111">
        <ele>474.9</ele>
        <time>2022-09-27T10:45:17Z</time>
      </trkpt>
      <trkpt lat="46.10223" lon="5.93112">
        <ele>475</ele>
        <time>2022-09-27T10:45:18Z</time>
      </trkpt>
      <trkpt lat="46.10222" lon="5.93112">
        <ele>475</ele>
        <time>2022-09-27T10:45:19Z</time>
      </trkpt>
      <trkpt lat="46.10218" lon="5.93112">
        <ele>475.4</ele>
        <time>2022-09-27T10:45:20Z</time>
      </trkpt>
      <trkpt lat="46.10217" lon="5.93112">
        <ele>475.4</ele>
        <time>2022-09-27T10:45:21Z</time>
      </trkpt>
      <trkpt lat="46.10214" lon="5.93112">
        <ele>475.5</ele>
        <time>2022-09-27T10:45:22Z</time>
      </trkpt>
      <trkpt lat="46.10213" lon="5.93111">
        <ele>476.3</ele>
        <time>2022-09-27T10:45:23Z</time>
      </trkpt>
      <trkpt lat="46.1021" lon="5.93112">
        <ele>476.3</ele>
        <time>2022-09-27T10:45:24Z</time>
      </trkpt>
      <trkpt lat="46.10209" lon="5.93113">
        <ele>476.3</ele>
        <time>2022-09-27T10:45:25Z</time>
      </trkpt>
      <trkpt lat="46.10205" lon="5.93113">
        <ele>476.4</ele>
        <time>2022-09-27T10:45:26Z</time>
      </trkpt>
      <trkpt lat="46.10204" lon="5.93113">
        <ele>476.4</ele>
        <time>2022-09-27T10:45:27Z</time>
      </trkpt>
      <trkpt lat="46.10202" lon="5.93113">
        <ele>476.4</ele>
        <time>2022-09-27T10:45:28Z</time>
      </trkpt>
      <trkpt lat="46.10201" lon="5.93112">
        <ele>476.4</ele>
        <time>2022-09-27T10:45:29Z</time>
      </trkpt>
      <trkpt lat="46.102" lon="5.93112">
        <ele>476.4</ele>
        <time>2022-09-27T10:45:30Z</time>
      </trkpt>
      <trkpt lat="46.10201" lon="5.93112">
        <ele>476.5</ele>
        <time>2022-09-27T10:45:31Z</time>
      </trkpt>
      <trkpt lat="46.102" lon="5.93111">
        <ele>476.5</ele>
        <time>2022-09-27T10:45:32Z</time>
      </trkpt>
      <trkpt lat="46.102" lon="5.93111">
        <ele>476.5</ele>
        <time>2022-09-27T10:45:33Z</time>
      </trkpt>
      <trkpt lat="46.102" lon="5.93111">
        <ele>476.5</ele>
        <time>2022-09-27T10:45:34Z</time>
      </trkpt>
      <trkpt lat="46.102" lon="5.93111">
        <ele>476.5</ele>
        <time>2022-09-27T10:45:35Z</time>
      </trkpt>
      <trkpt lat="46.10199" lon="5.93111">
        <ele>476.5</ele>
        <time>2022-09-27T10:45:36Z</time>
      </trkpt>
      <trkpt lat="46.10199" lon="5.93111">
        <ele>476.5</ele>
        <time>2022-09-27T10:45:37Z</time>
      </trkpt>
      <trkpt lat="46.10198" lon="5.93111">
        <ele>476.5</ele>
        <time>2022-09-27T10:45:38Z</time>
      </trkpt>
      <trkpt lat="46.10199" lon="5.9311">
        <ele>476.5</ele>
        <time>2022-09-27T10:45:39Z</time>
      </trkpt>
      <trkpt lat="46.10198" lon="5.9311">
        <ele>476.5</ele>
        <time>2022-09-27T10:45:40Z</time>
      </trkpt>
      <trkpt lat="46.10195" lon="5.93107">
        <ele>476.6</ele>
        <time>2022-09-27T10:46:04Z</time>
      </trkpt>
      <trkpt lat="46.10195" lon="5.93105">
        <ele>476.6</ele>
        <time>2022-09-27T10:46:05Z</time>
      </trkpt>
      <trkpt lat="46.10198" lon="5.93104">
        <ele>476.6</ele>
        <time>2022-09-27T10:46:06Z</time>
      </trkpt>
      <trkpt lat="46.10199" lon="5.93103">
        <ele>476.6</ele>
        <time>2022-09-27T10:46:07Z</time>
      </trkpt>
      <trkpt lat="46.10202" lon="5.93103">
        <ele>476.7</ele>
        <time>2022-09-27T10:46:08Z</time>
      </trkpt>
      <trkpt lat="46.10205" lon="5.93103">
        <ele>476.6</ele>
        <time>2022-09-27T10:46:09Z</time>
      </trkpt>
      <trkpt lat="46.10209" lon="5.93103">
        <ele>476.6</ele>
        <time>2022-09-27T10:46:10Z</time>
      </trkpt>
      <trkpt lat="46.10213" lon="5.93104">
        <ele>476.6</ele>
        <time>2022-09-27T10:46:11Z</time>
      </trkpt>
      <trkpt lat="46.10216" lon="5.93105">
        <ele>476.6</ele>
        <time>2022-09-27T10:46:12Z</time>
      </trkpt>
      <trkpt lat="46.1022" lon="5.93106">
        <ele>476.6</ele>
        <time>2022-09-27T10:46:13Z</time>
      </trkpt>
      <trkpt lat="46.10221" lon="5.93107">
        <ele>476.6</ele>
        <time>2022-09-27T10:46:14Z</time>
      </trkpt>
      <trkpt lat="46.10222" lon="5.93108">
        <ele>476.6</ele>
        <time>2022-09-27T10:46:15Z</time>
      </trkpt>
      <trkpt lat="46.10222" lon="5.93108">
        <ele>476.6</ele>
        <time>2022-09-27T10:46:16Z</time>
      </trkpt>
      <trkpt lat="46.10223" lon="5.93108">
        <ele>476.6</ele>
        <time>2022-09-27T10:46:17Z</time>
      </trkpt>
      <trkpt lat="46.10223" lon="5.93108">
        <ele>476.6</ele>
        <time>2022-09-27T10:46:18Z</time>
      </trkpt>
      <trkpt lat="46.10223" lon="5.93108">
        <ele>476.6</ele>
        <time>2022-09-27T10:46:19Z</time>
      </trkpt>
      <trkpt lat="46.10224" lon="5.93108">
        <ele>476.6</ele>
        <time>2022-09-27T10:46:20Z</time>
      </trkpt>
      <trkpt lat="46.10224" lon="5.93108">
        <ele>476.5</ele>
        <time>2022-09-27T10:46:21Z</time>
      </trkpt>
      <trkpt lat="46.10224" lon="5.93108">
        <ele>476.5</ele>
        <time>2022-09-27T10:46:22Z</time>
      </trkpt>
      <trkpt lat="46.10224" lon="5.93109">
        <ele>476.5</ele>
        <time>2022-09-27T10:46:23Z</time>
      </trkpt>
      <trkpt lat="46.10224" lon="5.93109">
        <ele>476.5</ele>
        <time>2022-09-27T10:46:24Z</time>
      </trkpt>
      <trkpt lat="46.10224" lon="5.93109">
        <ele>476.5</ele>
        <time>2022-09-27T10:46:25Z</time>
      </trkpt>
      <trkpt lat="46.10225" lon="5.93109">
        <ele>476.5</ele>
        <time>2022-09-27T10:46:26Z</time>
      </trkpt>
      <trkpt lat="46.10222" lon="5.93104">
        <ele>476.5</ele>
        <time>2022-09-27T10:46:59Z</time>
      </trkpt>
      <trkpt lat="46.10221" lon="5.93105">
        <ele>476.5</ele>
        <time>2022-09-27T10:47:00Z</time>
      </trkpt>
      <trkpt lat="46.1022" lon="5.93103">
        <ele>476.5</ele>
        <time>2022-09-27T10:47:01Z</time>
      </trkpt>
      <trkpt lat="46.10219" lon="5.93102">
        <ele>476.5</ele>
        <time>2022-09-27T10:47:02Z</time>
      </trkpt>
      <trkpt lat="46.10218" lon="5.93103">
        <ele>476.5</ele>
        <time>2022-09-27T10:47:03Z</time>
      </trkpt>
      <trkpt lat="46.10217" lon="5.93105">
        <ele>476.5</ele>
        <time>2022-09-27T10:47:04Z</time>
      </trkpt>
      <trkpt lat="46.10216" lon="5.93105">
        <ele>476.5</ele>
        <time>2022-09-27T10:47:05Z</time>
      </trkpt>
      <trkpt lat="46.10215" lon="5.93105">
        <ele>476.5</ele>
        <time>2022-09-27T10:47:06Z</time>
      </trkpt>
      <trkpt lat="46.10214" lon="5.93105">
        <ele>476.5</ele>
        <time>2022-09-27T10:47:07Z</time>
      </trkpt>
      <trkpt lat="46.10214" lon="5.93105">
        <ele>476.5</ele>
        <time>2022-09-27T10:47:08Z</time>
      </trkpt>
      <trkpt lat="46.10213" lon="5.93105">
        <ele>476.5</ele>
        <time>2022-09-27T10:47:09Z</time>
      </trkpt>
      <trkpt lat="46.10214" lon="5.93106">
        <ele>476.5</ele>
        <time>2022-09-27T10:47:10Z</time>
      </trkpt>
      <trkpt lat="46.10216" lon="5.93106">
        <ele>476.4</ele>
        <time>2022-09-27T10:47:11Z</time>
      </trkpt>
      <trkpt lat="46.10217" lon="5.93107">
        <ele>476.4</ele>
        <time>2022-09-27T10:47:12Z</time>
      </trkpt>
      <trkpt lat="46.10219" lon="5.93108">
        <ele>476.4</ele>
        <time>2022-09-27T10:47:13Z</time>
      </trkpt>
      <trkpt lat="46.10221" lon="5.93108">
        <ele>476.4</ele>
        <time>2022-09-27T10:47:14Z</time>
      </trkpt>
      <trkpt lat="46.10222" lon="5.93109">
        <ele>476.4</ele>
        <time>2022-09-27T10:47:15Z</time>
      </trkpt>
      <trkpt lat="46.10224" lon="5.9311">
        <ele>476.4</ele>
        <time>2022-09-27T10:47:16Z</time>
      </trkpt>
      <trkpt lat="46.10225" lon="5.93111">
        <ele>476.4</ele>
        <time>2022-09-27T10:47:17Z</time>
      </trkpt>
      <trkpt lat="46.10227" lon="5.93111">
        <ele>476.4</ele>
        <time>2022-09-27T10:50:24Z</time>
      </trkpt>
      <trkpt lat="46.10228" lon="5.93112">
        <ele>476.4</ele>
        <time>2022-09-27T10:50:25Z</time>
      </trkpt>
      <trkpt lat="46.1023" lon="5.93112">
        <ele>476.4</ele>
        <time>2022-09-27T10:50:26Z</time>
      </trkpt>
      <trkpt lat="46.10229" lon="5.93111">
        <ele>476.4</ele>
        <time>2022-09-27T10:50:27Z</time>
      </trkpt>
      <trkpt lat="46.10228" lon="5.9311">
        <ele>476.4</ele>
        <time>2022-09-27T10:50:28Z</time>
      </trkpt>
      <trkpt lat="46.10228" lon="5.93109">
        <ele>476.4</ele>
        <time>2022-09-27T10:50:29Z</time>
      </trkpt>
      <trkpt lat="46.10229" lon="5.93107">
        <ele>476.4</ele>
        <time>2022-09-27T10:50:30Z</time>
      </trkpt>
      <trkpt lat="46.1023" lon="5.93105">
        <ele>476.4</ele>
        <time>2022-09-27T10:50:31Z</time>
      </trkpt>
      <trkpt lat="46.1023" lon="5.93103">
        <ele>476.3</ele>
        <time>2022-09-27T10:50:32Z</time>
      </trkpt>
      <trkpt lat="46.1023" lon="5.93101">
        <ele>476.3</ele>
        <time>2022-09-27T10:50:33Z</time>
      </trkpt>
      <trkpt lat="46.10233" lon="5.931">
        <ele>476.3</ele>
        <time>2022-09-27T10:50:34Z</time>
      </trkpt>
      <trkpt lat="46.10232" lon="5.93099">
        <ele>476.3</ele>
        <time>2022-09-27T10:50:35Z</time>
      </trkpt>
      <trkpt lat="46.10232" lon="5.93098">
        <ele>476.3</ele>
        <time>2022-09-27T10:50:36Z</time>
      </trkpt>
      <trkpt lat="46.10232" lon="5.93096">
        <ele>476.3</ele>
        <time>2022-09-27T10:50:37Z</time>
      </trkpt>
      <trkpt lat="46.10232" lon="5.93095">
        <ele>476.3</ele>
        <time>2022-09-27T10:50:38Z</time>
      </trkpt>
      <trkpt lat="46.10231" lon="5.93094">
        <ele>476.3</ele>
        <time>2022-09-27T10:50:39Z</time>
      </trkpt>
      <trkpt lat="46.10234" lon="5.93094">
        <ele>476.3</ele>
        <time>2022-09-27T10:50:40Z</time>
      </trkpt>
      <trkpt lat="46.10234" lon="5.93095">
        <ele>476.3</ele>
        <time>2022-09-27T10:50:41Z</time>
      </trkpt>
      <trkpt lat="46.10235" lon="5.93095">
        <ele>476.3</ele>
        <time>2022-09-27T10:50:42Z</time>
      </trkpt>
      <trkpt lat="46.10236" lon="5.93094">
        <ele>476.3</ele>
        <time>2022-09-27T10:50:43Z</time>
      </trkpt>
      <trkpt lat="46.1024" lon="5.93095">
        <ele>476.3</ele>
        <time>2022-09-27T10:50:44Z</time>
      </trkpt>
      <trkpt lat="46.10219" lon="5.93099">
        <ele>476.2</ele>
        <time>2022-09-27T10:52:52Z</time>
      </trkpt>
      <trkpt lat="46.10218" lon="5.93103">
        <ele>476.2</ele>
        <time>2022-09-27T10:52:53Z</time>
      </trkpt>
      <trkpt lat="46.10218" lon="5.93104">
        <ele>476.2</ele>
        <time>2022-09-27T10:52:54Z</time>
      </trkpt>
      <trkpt lat="46.10217" lon="5.93104">
        <ele>476.2</ele>
        <time>2022-09-27T10:52:55Z</time>
      </trkpt>
      <trkpt lat="46.10216" lon="5.93105">
        <ele>476.2</ele>
        <time>2022-09-27T10:52:56Z</time>
      </trkpt>
      <trkpt lat="46.10215" lon="5.93105">
        <ele>476.2</ele>
        <time>2022-09-27T10:52:57Z</time>
      </trkpt>
      <trkpt lat="46.10215" lon="5.93105">
        <ele>476.2</ele>
        <time>2022-09-27T10:52:58Z</time>
      </trkpt>
      <trkpt lat="46.10215" lon="5.93105">
        <ele>476.1</ele>
        <time>2022-09-27T10:52:59Z</time>
      </trkpt>
      <trkpt lat="46.10215" lon="5.93105">
        <ele>476.1</ele>
        <time>2022-09-27T10:53:00Z</time>
      </trkpt>
      <trkpt lat="46.10215" lon="5.93105">
        <ele>476.1</ele>
        <time>2022-09-27T10:53:01Z</time>
      </trkpt>
      <trkpt lat="46.10215" lon="5.93107">
        <ele>476.1</ele>
        <time>2022-09-27T10:53:02Z</time>
      </trkpt>
      <trkpt lat="46.10214" lon="5.93108">
        <ele>476.1</ele>
        <time>2022-09-27T10:53:03Z</time>
      </trkpt>
      <trkpt lat="46.10214" lon="5.93109">
        <ele>476.1</ele>
        <time>2022-09-27T10:53:04Z</time>
      </trkpt>
      <trkpt lat="46.10214" lon="5.93109">
        <ele>476.1</ele>
        <time>2022-09-27T10:53:05Z</time>
      </trkpt>
      <trkpt lat="46.10213" lon="5.93109">
        <ele>476.1</ele>
        <time>2022-09-27T10:53:06Z</time>
      </trkpt>
      <trkpt lat="46.10213" lon="5.93109">
        <ele>476.1</ele>
        <time>2022-09-27T10:58:38Z</time>
      </trkpt>
      <trkpt lat="46.10212" lon="5.93109">
        <ele>476.1</ele>
        <time>2022-09-27T10:58:39Z</time>
      </trkpt>
      <trkpt lat="46.10212" lon="5.93109">
        <ele>476.1</ele>
        <time>2022-09-27T10:58:40Z</time>
      </trkpt>
      <trkpt lat="46.10211" lon="5.93109">
        <ele>476.1</ele>
        <time>2022-09-27T10:58:41Z</time>
      </trkpt>
      <trkpt lat="46.10211" lon="5.93109">
        <ele>476.1</ele>
        <time>2022-09-27T10:58:42Z</time>
      </trkpt>
      <trkpt lat="46.1021" lon="5.93109">
        <ele>476.1</ele>
        <time>2022-09-27T10:58:43Z</time>
      </trkpt>
      <trkpt lat="46.1021" lon="5.93109">
        <ele>476.1</ele>
        <time>2022-09-27T10:58:44Z</time>
      </trkpt>
      <trkpt lat="46.10209" lon="5.93109">
        <ele>476.1</ele>
        <time>2022-09-27T10:58:45Z</time>
      </trkpt>
      <trkpt lat="46.10209" lon="5.93109">
        <ele>476.1</ele>
        <time>2022-09-27T10:58:46Z</time>
      </trkpt>
      <trkpt lat="46.10208" lon="5.93109">
        <ele>476.1</ele>
        <time>2022-09-27T10:58:47Z</time>
      </trkpt>
      <trkpt lat="46.10208" lon="5.93109">
        <ele>476.1</ele>
        <time>2022-09-27T10:59:13Z</time>
      </trkpt>
      <trkpt lat="46.10208" lon="5.93109">
        <ele>476.1</ele>
        <time>2022-09-27T10:59:14Z</time>
      </trkpt>
      <trkpt lat="46.10207" lon="5.93109">
        <ele>476.1</ele>
        <time>2022-09-27T10:59:15Z</time>
      </trkpt>
      <trkpt lat="46.10204" lon="5.93108">
        <ele>476.1</ele>
        <time>2022-09-27T10:59:16Z</time>
      </trkpt>
      <trkpt lat="46.10203" lon="5.93108">
        <ele>476.1</ele>
        <time>2022-09-27T10:59:17Z</time>
      </trkpt>
      <trkpt lat="46.10201" lon="5.93107">
        <ele>476.1</ele>
        <time>2022-09-27T10:59:18Z</time>
      </trkpt>
      <trkpt lat="46.102" lon="5.93106">
        <ele>476.1</ele>
        <time>2022-09-27T10:59:19Z</time>
      </trkpt>
      <trkpt lat="46.10198" lon="5.93106">
        <ele>476.1</ele>
        <time>2022-09-27T10:59:20Z</time>
      </trkpt>
      <trkpt lat="46.10197" lon="5.93107">
        <ele>476.1</ele>
        <time>2022-09-27T10:59:21Z</time>
      </trkpt>
      <trkpt lat="46.10195" lon="5.93109">
        <ele>476</ele>
        <time>2022-09-27T10:59:22Z</time>
      </trkpt>
      <trkpt lat="46.10195" lon="5.9311">
        <ele>476</ele>
        <time>2022-09-27T10:59:23Z</time>
      </trkpt>
      <trkpt lat="46.10195" lon="5.93113">
        <ele>476</ele>
        <time>2022-09-27T10:59:24Z</time>
      </trkpt>
      <trkpt lat="46.10195" lon="5.93113">
        <ele>476</ele>
        <time>2022-09-27T10:59:25Z</time>
      </trkpt>
      <trkpt lat="46.10196" lon="5.93114">
        <ele>476</ele>
        <time>2022-09-27T10:59:26Z</time>
      </trkpt>
      <trkpt lat="46.10196" lon="5.93114">
        <ele>476</ele>
        <time>2022-09-27T10:59:27Z</time>
      </trkpt>
      <trkpt lat="46.10196" lon="5.93114">
        <ele>476</ele>
        <time>2022-09-27T10:59:28Z</time>
      </trkpt>
      <trkpt lat="46.10196" lon="5.93115">
        <ele>476</ele>
        <time>2022-09-27T10:59:29Z</time>
      </trkpt>
      <trkpt lat="46.10196" lon="5.93115">
        <ele>476</ele>
        <time>2022-09-27T10:59:30Z</time>
      </trkpt>
      <trkpt lat="46.10196" lon="5.93115">
        <ele>476</ele>
        <time>2022-09-27T10:59:31Z</time>
      </trkpt>
      <trkpt lat="46.10197" lon="5.93118">
        <ele>476</ele>
        <time>2022-09-27T10:59:32Z</time>
      </trkpt>
      <trkpt lat="46.10198" lon="5.9312">
        <ele>476</ele>
        <time>2022-09-27T10:59:33Z</time>
      </trkpt>
      <trkpt lat="46.102" lon="5.93121">
        <ele>476</ele>
        <time>2022-09-27T10:59:34Z</time>
      </trkpt>
      <trkpt lat="46.10204" lon="5.93123">
        <ele>476</ele>
        <time>2022-09-27T10:59:36Z</time>
      </trkpt>
      <trkpt lat="46.10207" lon="5.93126">
        <ele>476</ele>
        <time>2022-09-27T10:59:37Z</time>
      </trkpt>
      <trkpt lat="46.10208" lon="5.93129">
        <ele>476</ele>
        <time>2022-09-27T10:59:38Z</time>
      </trkpt>
      <trkpt lat="46.1021" lon="5.93133">
        <ele>475.9</ele>
        <time>2022-09-27T10:59:39Z</time>
      </trkpt>
      <trkpt lat="46.10211" lon="5.93134">
        <ele>475.9</ele>
        <time>2022-09-27T10:59:40Z</time>
      </trkpt>
      <trkpt lat="46.10213" lon="5.93139">
        <ele>476.1</ele>
        <time>2022-09-27T10:59:41Z</time>
      </trkpt>
      <trkpt lat="46.10215" lon="5.93143">
        <ele>476.3</ele>
        <time>2022-09-27T10:59:42Z</time>
      </trkpt>
      <trkpt lat="46.10217" lon="5.93147">
        <ele>476.2</ele>
        <time>2022-09-27T10:59:43Z</time>
      </trkpt>
      <trkpt lat="46.1022" lon="5.9315">
        <ele>476.1</ele>
        <time>2022-09-27T10:59:44Z</time>
      </trkpt>
      <trkpt lat="46.10224" lon="5.93151">
        <ele>476</ele>
        <time>2022-09-27T10:59:45Z</time>
      </trkpt>
      <trkpt lat="46.10229" lon="5.93151">
        <ele>475.8</ele>
        <time>2022-09-27T10:59:46Z</time>
      </trkpt>
      <trkpt lat="46.10233" lon="5.93151">
        <ele>475.6</ele>
        <time>2022-09-27T10:59:47Z</time>
      </trkpt>
      <trkpt lat="46.10237" lon="5.93152">
        <ele>474.6</ele>
        <time>2022-09-27T10:59:48Z</time>
      </trkpt>
      <trkpt lat="46.1024" lon="5.93153">
        <ele>473.8</ele>
        <time>2022-09-27T10:59:49Z</time>
      </trkpt>
      <trkpt lat="46.10243" lon="5.93156">
        <ele>473.2</ele>
        <time>2022-09-27T10:59:50Z</time>
      </trkpt>
      <trkpt lat="46.10247" lon="5.93159">
        <ele>472.8</ele>
        <time>2022-09-27T10:59:51Z</time>
      </trkpt>
      <trkpt lat="46.10251" lon="5.93162">
        <ele>472.4</ele>
        <time>2022-09-27T10:59:52Z</time>
      </trkpt>
      <trkpt lat="46.10255" lon="5.93165">
        <ele>472</ele>
        <time>2022-09-27T10:59:53Z</time>
      </trkpt>
      <trkpt lat="46.10259" lon="5.93168">
        <ele>473.7</ele>
        <time>2022-09-27T10:59:54Z</time>
      </trkpt>
      <trkpt lat="46.10264" lon="5.93171">
        <ele>473.3</ele>
        <time>2022-09-27T10:59:55Z</time>
      </trkpt>
      <trkpt lat="46.10268" lon="5.93176">
        <ele>472.9</ele>
        <time>2022-09-27T10:59:56Z</time>
      </trkpt>
      <trkpt lat="46.10271" lon="5.93182">
        <ele>472.5</ele>
        <time>2022-09-27T10:59:57Z</time>
      </trkpt>
      <trkpt lat="46.10275" lon="5.93186">
        <ele>472.1</ele>
        <time>2022-09-27T10:59:58Z</time>
      </trkpt>
      <trkpt lat="46.10279" lon="5.9319">
        <ele>471.8</ele>
        <time>2022-09-27T10:59:59Z</time>
      </trkpt>
      <trkpt lat="46.10284" lon="5.93192">
        <ele>471.6</ele>
        <time>2022-09-27T11:00:00Z</time>
      </trkpt>
      <trkpt lat="46.10287" lon="5.93193">
        <ele>471.4</ele>
        <time>2022-09-27T11:00:01Z</time>
      </trkpt>
      <trkpt lat="46.10291" lon="5.93194">
        <ele>471.2</ele>
        <time>2022-09-27T11:00:02Z</time>
      </trkpt>
      <trkpt lat="46.10295" lon="5.93195">
        <ele>471</ele>
        <time>2022-09-27T11:00:03Z</time>
      </trkpt>
      <trkpt lat="46.10299" lon="5.93198">
        <ele>470.8</ele>
        <time>2022-09-27T11:00:04Z</time>
      </trkpt>
      <trkpt lat="46.10303" lon="5.93202">
        <ele>470.6</ele>
        <time>2022-09-27T11:00:05Z</time>
      </trkpt>
      <trkpt lat="46.10306" lon="5.93207">
        <ele>470.4</ele>
        <time>2022-09-27T11:00:06Z</time>
      </trkpt>
      <trkpt lat="46.10309" lon="5.9321">
        <ele>470.2</ele>
        <time>2022-09-27T11:00:07Z</time>
      </trkpt>
      <trkpt lat="46.10312" lon="5.93215">
        <ele>470</ele>
        <time>2022-09-27T11:00:08Z</time>
      </trkpt>
      <trkpt lat="46.10313" lon="5.93219">
        <ele>469.9</ele>
        <time>2022-09-27T11:00:09Z</time>
      </trkpt>
      <trkpt lat="46.10314" lon="5.93226">
        <ele>469.7</ele>
        <time>2022-09-27T11:00:10Z</time>
      </trkpt>
      <trkpt lat="46.10315" lon="5.93233">
        <ele>469.6</ele>
        <time>2022-09-27T11:00:11Z</time>
      </trkpt>
      <trkpt lat="46.10315" lon="5.93239">
        <ele>469.5</ele>
        <time>2022-09-27T11:00:12Z</time>
      </trkpt>
      <trkpt lat="46.10316" lon="5.93245">
        <ele>469.4</ele>
        <time>2022-09-27T11:00:13Z</time>
      </trkpt>
      <trkpt lat="46.10317" lon="5.9325">
        <ele>469.4</ele>
        <time>2022-09-27T11:00:14Z</time>
      </trkpt>
      <trkpt lat="46.10317" lon="5.93256">
        <ele>469.3</ele>
        <time>2022-09-27T11:00:15Z</time>
      </trkpt>
      <trkpt lat="46.1032" lon="5.93258">
        <ele>469.4</ele>
        <time>2022-09-27T11:00:16Z</time>
      </trkpt>
      <trkpt lat="46.10322" lon="5.93263">
        <ele>469.5</ele>
        <time>2022-09-27T11:00:17Z</time>
      </trkpt>
      <trkpt lat="46.10324" lon="5.93266">
        <ele>469.5</ele>
        <time>2022-09-27T11:00:18Z</time>
      </trkpt>
      <trkpt lat="46.10324" lon="5.93268">
        <ele>469.6</ele>
        <time>2022-09-27T11:00:19Z</time>
      </trkpt>
      <trkpt lat="46.10325" lon="5.9327">
        <ele>469.6</ele>
        <time>2022-09-27T11:00:20Z</time>
      </trkpt>
      <trkpt lat="46.10325" lon="5.93272">
        <ele>469.7</ele>
        <time>2022-09-27T11:00:21Z</time>
      </trkpt>
      <trkpt lat="46.10324" lon="5.93273">
        <ele>469.7</ele>
        <time>2022-09-27T11:00:22Z</time>
      </trkpt>
      <trkpt lat="46.10324" lon="5.93275">
        <ele>469.7</ele>
        <time>2022-09-27T11:00:23Z</time>
      </trkpt>
      <trkpt lat="46.10323" lon="5.93276">
        <ele>469.7</ele>
        <time>2022-09-27T11:00:24Z</time>
      </trkpt>
      <trkpt lat="46.10323" lon="5.93277">
        <ele>469.7</ele>
        <time>2022-09-27T11:00:25Z</time>
      </trkpt>
      <trkpt lat="46.10323" lon="5.93278">
        <ele>469.8</ele>
        <time>2022-09-27T11:00:26Z</time>
      </trkpt>
      <trkpt lat="46.10322" lon="5.93279">
        <ele>469.8</ele>
        <time>2022-09-27T11:00:27Z</time>
      </trkpt>
      <trkpt lat="46.10322" lon="5.9328">
        <ele>469.8</ele>
        <time>2022-09-27T11:00:28Z</time>
      </trkpt>
      <trkpt lat="46.10321" lon="5.93281">
        <ele>469.8</ele>
        <time>2022-09-27T11:00:29Z</time>
      </trkpt>
      <trkpt lat="46.10321" lon="5.93282">
        <ele>469.8</ele>
        <time>2022-09-27T11:00:30Z</time>
      </trkpt>
      <trkpt lat="46.10321" lon="5.93283">
        <ele>469.9</ele>
        <time>2022-09-27T11:00:31Z</time>
      </trkpt>
      <trkpt lat="46.1032" lon="5.93285">
        <ele>469.9</ele>
        <time>2022-09-27T11:01:07Z</time>
      </trkpt>
      <trkpt lat="46.1032" lon="5.93286">
        <ele>469.9</ele>
        <time>2022-09-27T11:01:08Z</time>
      </trkpt>
      <trkpt lat="46.10318" lon="5.9329">
        <ele>470</ele>
        <time>2022-09-27T11:01:09Z</time>
      </trkpt>
      <trkpt lat="46.10316" lon="5.93294">
        <ele>470.1</ele>
        <time>2022-09-27T11:01:10Z</time>
      </trkpt>
      <trkpt lat="46.10315" lon="5.93297">
        <ele>470.2</ele>
        <time>2022-09-27T11:01:11Z</time>
      </trkpt>
      <trkpt lat="46.10313" lon="5.93301">
        <ele>470.3</ele>
        <time>2022-09-27T11:01:12Z</time>
      </trkpt>
      <trkpt lat="46.10312" lon="5.93306">
        <ele>470.4</ele>
        <time>2022-09-27T11:01:13Z</time>
      </trkpt>
      <trkpt lat="46.10311" lon="5.93307">
        <ele>470.4</ele>
        <time>2022-09-27T11:01:14Z</time>
      </trkpt>
      <trkpt lat="46.10309" lon="5.93312">
        <ele>470.5</ele>
        <time>2022-09-27T11:01:15Z</time>
      </trkpt>
      <trkpt lat="46.10309" lon="5.93316">
        <ele>470.6</ele>
        <time>2022-09-27T11:01:16Z</time>
      </trkpt>
      <trkpt lat="46.10307" lon="5.9332">
        <ele>470.8</ele>
        <time>2022-09-27T11:01:17Z</time>
      </trkpt>
      <trkpt lat="46.10306" lon="5.93322">
        <ele>470.8</ele>
        <time>2022-09-27T11:01:18Z</time>
      </trkpt>
      <trkpt lat="46.10305" lon="5.93326">
        <ele>471</ele>
        <time>2022-09-27T11:01:19Z</time>
      </trkpt>
      <trkpt lat="46.10303" lon="5.9333">
        <ele>471.1</ele>
        <time>2022-09-27T11:01:20Z</time>
      </trkpt>
      <trkpt lat="46.10302" lon="5.93334">
        <ele>471.2</ele>
        <time>2022-09-27T11:01:21Z</time>
      </trkpt>
      <trkpt lat="46.10301" lon="5.93339">
        <ele>471.4</ele>
        <time>2022-09-27T11:01:22Z</time>
      </trkpt>
      <trkpt lat="46.10299" lon="5.93343">
        <ele>471.5</ele>
        <time>2022-09-27T11:01:23Z</time>
      </trkpt>
      <trkpt lat="46.10298" lon="5.93347">
        <ele>471.6</ele>
        <time>2022-09-27T11:01:24Z</time>
      </trkpt>
      <trkpt lat="46.10297" lon="5.93351">
        <ele>471.8</ele>
        <time>2022-09-27T11:01:25Z</time>
      </trkpt>
      <trkpt lat="46.10295" lon="5.93356">
        <ele>471.9</ele>
        <time>2022-09-27T11:01:26Z</time>
      </trkpt>
      <trkpt lat="46.10294" lon="5.9336">
        <ele>472.1</ele>
        <time>2022-09-27T11:01:27Z</time>
      </trkpt>
      <trkpt lat="46.10292" lon="5.93365">
        <ele>472.2</ele>
        <time>2022-09-27T11:01:28Z</time>
      </trkpt>
      <trkpt lat="46.1029" lon="5.93371">
        <ele>472.4</ele>
        <time>2022-09-27T11:01:29Z</time>
      </trkpt>
      <trkpt lat="46.10289" lon="5.93376">
        <ele>472.6</ele>
        <time>2022-09-27T11:01:30Z</time>
      </trkpt>
      <trkpt lat="46.10287" lon="5.9338">
        <ele>472.7</ele>
        <time>2022-09-27T11:01:31Z</time>
      </trkpt>
      <trkpt lat="46.10285" lon="5.93385">
        <ele>472.9</ele>
        <time>2022-09-27T11:01:32Z</time>
      </trkpt>
      <trkpt lat="46.10284" lon="5.93389">
        <ele>473</ele>
        <time>2022-09-27T11:01:33Z</time>
      </trkpt>
      <trkpt lat="46.10284" lon="5.93394">
        <ele>473.1</ele>
        <time>2022-09-27T11:01:34Z</time>
      </trkpt>
      <trkpt lat="46.10283" lon="5.93399">
        <ele>473.2</ele>
        <time>2022-09-27T11:01:35Z</time>
      </trkpt>
      <trkpt lat="46.10281" lon="5.93404">
        <ele>473.4</ele>
        <time>2022-09-27T11:01:36Z</time>
      </trkpt>
      <trkpt lat="46.1028" lon="5.93408">
        <ele>473.5</ele>
        <time>2022-09-27T11:01:37Z</time>
      </trkpt>
      <trkpt lat="46.10279" lon="5.93412">
        <ele>473.6</ele>
        <time>2022-09-27T11:01:38Z</time>
      </trkpt>
      <trkpt lat="46.10278" lon="5.93417">
        <ele>473.7</ele>
        <time>2022-09-27T11:01:39Z</time>
      </trkpt>
      <trkpt lat="46.10277" lon="5.93421">
        <ele>473.8</ele>
        <time>2022-09-27T11:01:40Z</time>
      </trkpt>
      <trkpt lat="46.10277" lon="5.93426">
        <ele>473.9</ele>
        <time>2022-09-27T11:01:41Z</time>
      </trkpt>
      <trkpt lat="46.10276" lon="5.9343">
        <ele>473.9</ele>
        <time>2022-09-27T11:01:42Z</time>
      </trkpt>
      <trkpt lat="46.10275" lon="5.93435">
        <ele>474</ele>
        <time>2022-09-27T11:01:43Z</time>
      </trkpt>
      <trkpt lat="46.10274" lon="5.9344">
        <ele>474.1</ele>
        <time>2022-09-27T11:01:44Z</time>
      </trkpt>
      <trkpt lat="46.10275" lon="5.93442">
        <ele>474.1</ele>
        <time>2022-09-27T11:01:45Z</time>
      </trkpt>
      <trkpt lat="46.10278" lon="5.93445">
        <ele>474.1</ele>
        <time>2022-09-27T11:01:46Z</time>
      </trkpt>
      <trkpt lat="46.10279" lon="5.93446">
        <ele>474.2</ele>
        <time>2022-09-27T11:01:47Z</time>
      </trkpt>
      <trkpt lat="46.10282" lon="5.9345">
        <ele>474.2</ele>
        <time>2022-09-27T11:01:48Z</time>
      </trkpt>
      <trkpt lat="46.10282" lon="5.93452">
        <ele>474.2</ele>
        <time>2022-09-27T11:01:49Z</time>
      </trkpt>
      <trkpt lat="46.10281" lon="5.93456">
        <ele>474.2</ele>
        <time>2022-09-27T11:01:50Z</time>
      </trkpt>
      <trkpt lat="46.10281" lon="5.93458">
        <ele>474.2</ele>
        <time>2022-09-27T11:01:51Z</time>
      </trkpt>
      <trkpt lat="46.10277" lon="5.93464">
        <ele>474.2</ele>
        <time>2022-09-27T11:01:53Z</time>
      </trkpt>
      <trkpt lat="46.10275" lon="5.93468">
        <ele>474.2</ele>
        <time>2022-09-27T11:01:55Z</time>
      </trkpt>
      <trkpt lat="46.10275" lon="5.93471">
        <ele>474.1</ele>
        <time>2022-09-27T11:01:56Z</time>
      </trkpt>
      <trkpt lat="46.10278" lon="5.93474">
        <ele>474</ele>
        <time>2022-09-27T11:01:57Z</time>
      </trkpt>
      <trkpt lat="46.10279" lon="5.93475">
        <ele>474</ele>
        <time>2022-09-27T11:01:58Z</time>
      </trkpt>
      <trkpt lat="46.10282" lon="5.93475">
        <ele>473.9</ele>
        <time>2022-09-27T11:01:59Z</time>
      </trkpt>
      <trkpt lat="46.10286" lon="5.93476">
        <ele>473.8</ele>
        <time>2022-09-27T11:02:00Z</time>
      </trkpt>
      <trkpt lat="46.10289" lon="5.93476">
        <ele>473.7</ele>
        <time>2022-09-27T11:02:01Z</time>
      </trkpt>
      <trkpt lat="46.10293" lon="5.93477">
        <ele>473.6</ele>
        <time>2022-09-27T11:02:02Z</time>
      </trkpt>
      <trkpt lat="46.10297" lon="5.93479">
        <ele>473.5</ele>
        <time>2022-09-27T11:02:03Z</time>
      </trkpt>
      <trkpt lat="46.10301" lon="5.9348">
        <ele>473.4</ele>
        <time>2022-09-27T11:02:04Z</time>
      </trkpt>
      <trkpt lat="46.10305" lon="5.93482">
        <ele>473.3</ele>
        <time>2022-09-27T11:02:05Z</time>
      </trkpt>
      <trkpt lat="46.1031" lon="5.93484">
        <ele>473.2</ele>
        <time>2022-09-27T11:02:06Z</time>
      </trkpt>
      <trkpt lat="46.10314" lon="5.93486">
        <ele>473.1</ele>
        <time>2022-09-27T11:02:07Z</time>
      </trkpt>
      <trkpt lat="46.1032" lon="5.93489">
        <ele>472.9</ele>
        <time>2022-09-27T11:02:08Z</time>
      </trkpt>
      <trkpt lat="46.10325" lon="5.9349">
        <ele>472.8</ele>
        <time>2022-09-27T11:02:09Z</time>
      </trkpt>
      <trkpt lat="46.10331" lon="5.93492">
        <ele>472.7</ele>
        <time>2022-09-27T11:02:10Z</time>
      </trkpt>
      <trkpt lat="46.10336" lon="5.93495">
        <ele>472.5</ele>
        <time>2022-09-27T11:02:11Z</time>
      </trkpt>
      <trkpt lat="46.10341" lon="5.93496">
        <ele>472.4</ele>
        <time>2022-09-27T11:02:12Z</time>
      </trkpt>
      <trkpt lat="46.10347" lon="5.93498">
        <ele>472.3</ele>
        <time>2022-09-27T11:02:13Z</time>
      </trkpt>
      <trkpt lat="46.10353" lon="5.935">
        <ele>472.1</ele>
        <time>2022-09-27T11:02:14Z</time>
      </trkpt>
      <trkpt lat="46.10358" lon="5.93503">
        <ele>472</ele>
        <time>2022-09-27T11:02:15Z</time>
      </trkpt>
      <trkpt lat="46.10364" lon="5.93505">
        <ele>471.8</ele>
        <time>2022-09-27T11:02:16Z</time>
      </trkpt>
      <trkpt lat="46.10369" lon="5.93507">
        <ele>471.7</ele>
        <time>2022-09-27T11:02:17Z</time>
      </trkpt>
      <trkpt lat="46.10374" lon="5.93509">
        <ele>471.7</ele>
        <time>2022-09-27T11:02:18Z</time>
      </trkpt>
      <trkpt lat="46.10378" lon="5.93511">
        <ele>471.7</ele>
        <time>2022-09-27T11:02:19Z</time>
      </trkpt>
      <trkpt lat="46.10381" lon="5.93517">
        <ele>471.7</ele>
        <time>2022-09-27T11:02:20Z</time>
      </trkpt>
      <trkpt lat="46.10383" lon="5.93523">
        <ele>471.8</ele>
        <time>2022-09-27T11:02:21Z</time>
      </trkpt>
      <trkpt lat="46.10383" lon="5.93529">
        <ele>471.8</ele>
        <time>2022-09-27T11:02:22Z</time>
      </trkpt>
      <trkpt lat="46.10382" lon="5.93533">
        <ele>471.9</ele>
        <time>2022-09-27T11:02:23Z</time>
      </trkpt>
      <trkpt lat="46.1038" lon="5.93539">
        <ele>471.9</ele>
        <time>2022-09-27T11:02:24Z</time>
      </trkpt>
      <trkpt lat="46.10379" lon="5.93544">
        <ele>472</ele>
        <time>2022-09-27T11:02:25Z</time>
      </trkpt>
      <trkpt lat="46.10378" lon="5.93549">
        <ele>472.1</ele>
        <time>2022-09-27T11:02:26Z</time>
      </trkpt>
      <trkpt lat="46.10377" lon="5.93555">
        <ele>472.2</ele>
        <time>2022-09-27T11:02:27Z</time>
      </trkpt>
      <trkpt lat="46.10376" lon="5.9356">
        <ele>472.2</ele>
        <time>2022-09-27T11:02:28Z</time>
      </trkpt>
      <trkpt lat="46.10375" lon="5.93565">
        <ele>472.3</ele>
        <time>2022-09-27T11:02:29Z</time>
      </trkpt>
      <trkpt lat="46.10374" lon="5.9357">
        <ele>472.3</ele>
        <time>2022-09-27T11:02:30Z</time>
      </trkpt>
      <trkpt lat="46.10372" lon="5.93576">
        <ele>472.4</ele>
        <time>2022-09-27T11:02:31Z</time>
      </trkpt>
      <trkpt lat="46.10371" lon="5.93581">
        <ele>472.5</ele>
        <time>2022-09-27T11:02:32Z</time>
      </trkpt>
      <trkpt lat="46.10369" lon="5.93587">
        <ele>472.6</ele>
        <time>2022-09-27T11:02:33Z</time>
      </trkpt>
      <trkpt lat="46.10368" lon="5.93593">
        <ele>472.6</ele>
        <time>2022-09-27T11:02:34Z</time>
      </trkpt>
      <trkpt lat="46.10367" lon="5.936">
        <ele>472.7</ele>
        <time>2022-09-27T11:02:35Z</time>
      </trkpt>
      <trkpt lat="46.10365" lon="5.93606">
        <ele>472.8</ele>
        <time>2022-09-27T11:02:36Z</time>
      </trkpt>
      <trkpt lat="46.10363" lon="5.93613">
        <ele>472.9</ele>
        <time>2022-09-27T11:02:37Z</time>
      </trkpt>
      <trkpt lat="46.10362" lon="5.9362">
        <ele>472.9</ele>
        <time>2022-09-27T11:02:38Z</time>
      </trkpt>
      <trkpt lat="46.10361" lon="5.93626">
        <ele>473</ele>
        <time>2022-09-27T11:02:39Z</time>
      </trkpt>
      <trkpt lat="46.10361" lon="5.93631">
        <ele>473.1</ele>
        <time>2022-09-27T11:02:40Z</time>
      </trkpt>
      <trkpt lat="46.10358" lon="5.93637">
        <ele>473.2</ele>
        <time>2022-09-27T11:02:41Z</time>
      </trkpt>
      <trkpt lat="46.10357" lon="5.93643">
        <ele>473.3</ele>
        <time>2022-09-27T11:02:42Z</time>
      </trkpt>
      <trkpt lat="46.10356" lon="5.93649">
        <ele>473.3</ele>
        <time>2022-09-27T11:02:43Z</time>
      </trkpt>
      <trkpt lat="46.10355" lon="5.93656">
        <ele>473.4</ele>
        <time>2022-09-27T11:02:44Z</time>
      </trkpt>
      <trkpt lat="46.10355" lon="5.9366">
        <ele>473.5</ele>
        <time>2022-09-27T11:02:45Z</time>
      </trkpt>
      <trkpt lat="46.10354" lon="5.93665">
        <ele>473.6</ele>
        <time>2022-09-27T11:02:46Z</time>
      </trkpt>
      <trkpt lat="46.10353" lon="5.93669">
        <ele>473.6</ele>
        <time>2022-09-27T11:02:47Z</time>
      </trkpt>
      <trkpt lat="46.10351" lon="5.93678">
        <ele>473.7</ele>
        <time>2022-09-27T11:02:48Z</time>
      </trkpt>
      <trkpt lat="46.10349" lon="5.93685">
        <ele>473.9</ele>
        <time>2022-09-27T11:02:49Z</time>
      </trkpt>
      <trkpt lat="46.10347" lon="5.93692">
        <ele>474</ele>
        <time>2022-09-27T11:02:50Z</time>
      </trkpt>
      <trkpt lat="46.10345" lon="5.93698">
        <ele>474.1</ele>
        <time>2022-09-27T11:02:51Z</time>
      </trkpt>
      <trkpt lat="46.10345" lon="5.93704">
        <ele>474.2</ele>
        <time>2022-09-27T11:02:52Z</time>
      </trkpt>
      <trkpt lat="46.10343" lon="5.9371">
        <ele>474.3</ele>
        <time>2022-09-27T11:02:53Z</time>
      </trkpt>
      <trkpt lat="46.10341" lon="5.93716">
        <ele>474.4</ele>
        <time>2022-09-27T11:02:54Z</time>
      </trkpt>
      <trkpt lat="46.1034" lon="5.93722">
        <ele>474.5</ele>
        <time>2022-09-27T11:02:55Z</time>
      </trkpt>
      <trkpt lat="46.10338" lon="5.93728">
        <ele>474.6</ele>
        <time>2022-09-27T11:02:56Z</time>
      </trkpt>
      <trkpt lat="46.10338" lon="5.93733">
        <ele>474.7</ele>
        <time>2022-09-27T11:02:57Z</time>
      </trkpt>
      <trkpt lat="46.10336" lon="5.93739">
        <ele>474.8</ele>
        <time>2022-09-27T11:02:58Z</time>
      </trkpt>
      <trkpt lat="46.10334" lon="5.93744">
        <ele>474.9</ele>
        <time>2022-09-27T11:02:59Z</time>
      </trkpt>
      <trkpt lat="46.10333" lon="5.9375">
        <ele>475.1</ele>
        <time>2022-09-27T11:03:00Z</time>
      </trkpt>
      <trkpt lat="46.10332" lon="5.93755">
        <ele>475.2</ele>
        <time>2022-09-27T11:03:01Z</time>
      </trkpt>
      <trkpt lat="46.10331" lon="5.93761">
        <ele>475.3</ele>
        <time>2022-09-27T11:03:02Z</time>
      </trkpt>
      <trkpt lat="46.1033" lon="5.93765">
        <ele>475.4</ele>
        <time>2022-09-27T11:03:03Z</time>
      </trkpt>
      <trkpt lat="46.10329" lon="5.9377">
        <ele>475.5</ele>
        <time>2022-09-27T11:03:04Z</time>
      </trkpt>
      <trkpt lat="46.10328" lon="5.93776">
        <ele>475.7</ele>
        <time>2022-09-27T11:03:05Z</time>
      </trkpt>
      <trkpt lat="46.10326" lon="5.93781">
        <ele>475.8</ele>
        <time>2022-09-27T11:03:06Z</time>
      </trkpt>
      <trkpt lat="46.10325" lon="5.93787">
        <ele>475.9</ele>
        <time>2022-09-27T11:03:07Z</time>
      </trkpt>
      <trkpt lat="46.10324" lon="5.93791">
        <ele>476</ele>
        <time>2022-09-27T11:03:08Z</time>
      </trkpt>
      <trkpt lat="46.10323" lon="5.93796">
        <ele>476.1</ele>
        <time>2022-09-27T11:03:09Z</time>
      </trkpt>
      <trkpt lat="46.10322" lon="5.938">
        <ele>476.2</ele>
        <time>2022-09-27T11:03:10Z</time>
      </trkpt>
      <trkpt lat="46.10321" lon="5.93804">
        <ele>476.3</ele>
        <time>2022-09-27T11:03:11Z</time>
      </trkpt>
      <trkpt lat="46.10321" lon="5.93808">
        <ele>476.4</ele>
        <time>2022-09-27T11:03:12Z</time>
      </trkpt>
      <trkpt lat="46.1032" lon="5.93812">
        <ele>476.5</ele>
        <time>2022-09-27T11:03:13Z</time>
      </trkpt>
      <trkpt lat="46.10318" lon="5.93817">
        <ele>476.6</ele>
        <time>2022-09-27T11:03:14Z</time>
      </trkpt>
      <trkpt lat="46.10316" lon="5.93823">
        <ele>476.7</ele>
        <time>2022-09-27T11:03:15Z</time>
      </trkpt>
      <trkpt lat="46.10316" lon="5.93828">
        <ele>476.7</ele>
        <time>2022-09-27T11:03:16Z</time>
      </trkpt>
      <trkpt lat="46.10315" lon="5.93833">
        <ele>476.8</ele>
        <time>2022-09-27T11:03:17Z</time>
      </trkpt>
      <trkpt lat="46.10314" lon="5.93839">
        <ele>476.9</ele>
        <time>2022-09-27T11:03:18Z</time>
      </trkpt>
      <trkpt lat="46.10314" lon="5.93845">
        <ele>476.9</ele>
        <time>2022-09-27T11:03:19Z</time>
      </trkpt>
      <trkpt lat="46.10313" lon="5.93851">
        <ele>477</ele>
        <time>2022-09-27T11:03:20Z</time>
      </trkpt>
      <trkpt lat="46.10313" lon="5.93857">
        <ele>477</ele>
        <time>2022-09-27T11:03:21Z</time>
      </trkpt>
      <trkpt lat="46.10314" lon="5.93863">
        <ele>477.1</ele>
        <time>2022-09-27T11:03:22Z</time>
      </trkpt>
      <trkpt lat="46.10314" lon="5.93869">
        <ele>477.1</ele>
        <time>2022-09-27T11:03:23Z</time>
      </trkpt>
      <trkpt lat="46.10314" lon="5.93875">
        <ele>477.2</ele>
        <time>2022-09-27T11:03:24Z</time>
      </trkpt>
      <trkpt lat="46.10315" lon="5.9388">
        <ele>477.2</ele>
        <time>2022-09-27T11:03:25Z</time>
      </trkpt>
      <trkpt lat="46.10316" lon="5.93885">
        <ele>477.2</ele>
        <time>2022-09-27T11:03:26Z</time>
      </trkpt>
      <trkpt lat="46.10316" lon="5.93889">
        <ele>477.3</ele>
        <time>2022-09-27T11:03:27Z</time>
      </trkpt>
      <trkpt lat="46.10318" lon="5.93894">
        <ele>477.3</ele>
        <time>2022-09-27T11:03:28Z</time>
      </trkpt>
      <trkpt lat="46.10318" lon="5.93901">
        <ele>477.3</ele>
        <time>2022-09-27T11:03:29Z</time>
      </trkpt>
      <trkpt lat="46.10319" lon="5.93907">
        <ele>477.3</ele>
        <time>2022-09-27T11:03:30Z</time>
      </trkpt>
      <trkpt lat="46.10319" lon="5.93913">
        <ele>477.3</ele>
        <time>2022-09-27T11:03:31Z</time>
      </trkpt>
      <trkpt lat="46.1032" lon="5.9392">
        <ele>477.3</ele>
        <time>2022-09-27T11:03:32Z</time>
      </trkpt>
      <trkpt lat="46.10322" lon="5.93927">
        <ele>477.3</ele>
        <time>2022-09-27T11:03:33Z</time>
      </trkpt>
      <trkpt lat="46.10322" lon="5.93932">
        <ele>477.3</ele>
        <time>2022-09-27T11:03:34Z</time>
      </trkpt>
      <trkpt lat="46.10323" lon="5.93938">
        <ele>477.3</ele>
        <time>2022-09-27T11:03:35Z</time>
      </trkpt>
      <trkpt lat="46.10324" lon="5.93945">
        <ele>477.3</ele>
        <time>2022-09-27T11:03:36Z</time>
      </trkpt>
      <trkpt lat="46.10325" lon="5.9395">
        <ele>477.3</ele>
        <time>2022-09-27T11:03:37Z</time>
      </trkpt>
      <trkpt lat="46.10324" lon="5.93955">
        <ele>477.3</ele>
        <time>2022-09-27T11:03:38Z</time>
      </trkpt>
      <trkpt lat="46.10326" lon="5.93963">
        <ele>477.3</ele>
        <time>2022-09-27T11:03:39Z</time>
      </trkpt>
      <trkpt lat="46.10326" lon="5.93971">
        <ele>477.3</ele>
        <time>2022-09-27T11:03:40Z</time>
      </trkpt>
      <trkpt lat="46.10326" lon="5.93978">
        <ele>477.4</ele>
        <time>2022-09-27T11:03:41Z</time>
      </trkpt>
      <trkpt lat="46.10326" lon="5.93985">
        <ele>477.4</ele>
        <time>2022-09-27T11:03:42Z</time>
      </trkpt>
      <trkpt lat="46.10326" lon="5.93991">
        <ele>477.4</ele>
        <time>2022-09-27T11:03:43Z</time>
      </trkpt>
      <trkpt lat="46.10326" lon="5.93997">
        <ele>477.4</ele>
        <time>2022-09-27T11:03:44Z</time>
      </trkpt>
      <trkpt lat="46.10326" lon="5.94003">
        <ele>477.5</ele>
        <time>2022-09-27T11:03:45Z</time>
      </trkpt>
      <trkpt lat="46.10327" lon="5.94009">
        <ele>477.5</ele>
        <time>2022-09-27T11:03:46Z</time>
      </trkpt>
      <trkpt lat="46.10327" lon="5.94015">
        <ele>477.5</ele>
        <time>2022-09-27T11:03:47Z</time>
      </trkpt>
      <trkpt lat="46.10328" lon="5.94022">
        <ele>477.5</ele>
        <time>2022-09-27T11:03:48Z</time>
      </trkpt>
      <trkpt lat="46.10329" lon="5.9403">
        <ele>477.6</ele>
        <time>2022-09-27T11:03:49Z</time>
      </trkpt>
      <trkpt lat="46.10331" lon="5.94036">
        <ele>477.6</ele>
        <time>2022-09-27T11:03:50Z</time>
      </trkpt>
      <trkpt lat="46.10332" lon="5.94042">
        <ele>477.6</ele>
        <time>2022-09-27T11:03:51Z</time>
      </trkpt>
      <trkpt lat="46.10334" lon="5.94048">
        <ele>477.5</ele>
        <time>2022-09-27T11:03:52Z</time>
      </trkpt>
      <trkpt lat="46.10337" lon="5.94053">
        <ele>477.5</ele>
        <time>2022-09-27T11:03:53Z</time>
      </trkpt>
      <trkpt lat="46.1034" lon="5.94058">
        <ele>477.4</ele>
        <time>2022-09-27T11:03:54Z</time>
      </trkpt>
      <trkpt lat="46.10343" lon="5.94061">
        <ele>477.3</ele>
        <time>2022-09-27T11:03:55Z</time>
      </trkpt>
      <trkpt lat="46.10348" lon="5.94063">
        <ele>477.2</ele>
        <time>2022-09-27T11:03:56Z</time>
      </trkpt>
      <trkpt lat="46.10352" lon="5.94064">
        <ele>477.1</ele>
        <time>2022-09-27T11:03:57Z</time>
      </trkpt>
      <trkpt lat="46.10357" lon="5.94065">
        <ele>477</ele>
        <time>2022-09-27T11:03:59Z</time>
      </trkpt>
      <trkpt lat="46.10362" lon="5.94066">
        <ele>476.8</ele>
        <time>2022-09-27T11:04:00Z</time>
      </trkpt>
      <trkpt lat="46.10367" lon="5.94066">
        <ele>476.7</ele>
        <time>2022-09-27T11:04:01Z</time>
      </trkpt>
      <trkpt lat="46.10372" lon="5.94066">
        <ele>476.6</ele>
        <time>2022-09-27T11:04:02Z</time>
      </trkpt>
      <trkpt lat="46.10377" lon="5.94066">
        <ele>476.4</ele>
        <time>2022-09-27T11:04:03Z</time>
      </trkpt>
      <trkpt lat="46.10383" lon="5.94065">
        <ele>476.3</ele>
        <time>2022-09-27T11:04:04Z</time>
      </trkpt>
      <trkpt lat="46.10388" lon="5.94066">
        <ele>476.2</ele>
        <time>2022-09-27T11:04:05Z</time>
      </trkpt>
      <trkpt lat="46.10394" lon="5.94066">
        <ele>476</ele>
        <time>2022-09-27T11:04:06Z</time>
      </trkpt>
      <trkpt lat="46.10399" lon="5.94065">
        <ele>475.9</ele>
        <time>2022-09-27T11:04:07Z</time>
      </trkpt>
      <trkpt lat="46.10405" lon="5.94064">
        <ele>475.8</ele>
        <time>2022-09-27T11:04:08Z</time>
      </trkpt>
      <trkpt lat="46.1041" lon="5.94064">
        <ele>475.7</ele>
        <time>2022-09-27T11:04:09Z</time>
      </trkpt>
      <trkpt lat="46.10416" lon="5.94065">
        <ele>475.6</ele>
        <time>2022-09-27T11:04:10Z</time>
      </trkpt>
      <trkpt lat="46.10422" lon="5.94066">
        <ele>475.5</ele>
        <time>2022-09-27T11:04:11Z</time>
      </trkpt>
      <trkpt lat="46.10428" lon="5.94067">
        <ele>475.4</ele>
        <time>2022-09-27T11:04:12Z</time>
      </trkpt>
      <trkpt lat="46.10433" lon="5.9407">
        <ele>475.3</ele>
        <time>2022-09-27T11:04:13Z</time>
      </trkpt>
      <trkpt lat="46.10438" lon="5.94073">
        <ele>475.2</ele>
        <time>2022-09-27T11:04:14Z</time>
      </trkpt>
      <trkpt lat="46.10443" lon="5.94077">
        <ele>475.1</ele>
        <time>2022-09-27T11:04:15Z</time>
      </trkpt>
      <trkpt lat="46.10447" lon="5.94083">
        <ele>475</ele>
        <time>2022-09-27T11:04:16Z</time>
      </trkpt>
      <trkpt lat="46.10451" lon="5.9409">
        <ele>474.9</ele>
        <time>2022-09-27T11:04:17Z</time>
      </trkpt>
      <trkpt lat="46.10455" lon="5.94098">
        <ele>474.8</ele>
        <time>2022-09-27T11:04:18Z</time>
      </trkpt>
      <trkpt lat="46.10459" lon="5.94105">
        <ele>474.6</ele>
        <time>2022-09-27T11:04:19Z</time>
      </trkpt>
      <trkpt lat="46.10462" lon="5.94113">
        <ele>474.5</ele>
        <time>2022-09-27T11:04:20Z</time>
      </trkpt>
      <trkpt lat="46.10465" lon="5.94121">
        <ele>474.4</ele>
        <time>2022-09-27T11:04:21Z</time>
      </trkpt>
      <trkpt lat="46.10473" lon="5.94136">
        <ele>474.2</ele>
        <time>2022-09-27T11:04:22Z</time>
      </trkpt>
      <trkpt lat="46.10476" lon="5.94144">
        <ele>474.1</ele>
        <time>2022-09-27T11:04:23Z</time>
      </trkpt>
      <trkpt lat="46.10481" lon="5.94151">
        <ele>474</ele>
        <time>2022-09-27T11:04:24Z</time>
      </trkpt>
      <trkpt lat="46.10484" lon="5.94159">
        <ele>473.9</ele>
        <time>2022-09-27T11:04:25Z</time>
      </trkpt>
      <trkpt lat="46.10487" lon="5.94167">
        <ele>473.8</ele>
        <time>2022-09-27T11:04:26Z</time>
      </trkpt>
      <trkpt lat="46.10492" lon="5.94175">
        <ele>473.8</ele>
        <time>2022-09-27T11:04:27Z</time>
      </trkpt>
      <trkpt lat="46.10496" lon="5.94183">
        <ele>473.7</ele>
        <time>2022-09-27T11:04:28Z</time>
      </trkpt>
      <trkpt lat="46.10499" lon="5.9419">
        <ele>473.7</ele>
        <time>2022-09-27T11:04:29Z</time>
      </trkpt>
      <trkpt lat="46.10503" lon="5.94198">
        <ele>473.7</ele>
        <time>2022-09-27T11:04:30Z</time>
      </trkpt>
      <trkpt lat="46.10507" lon="5.94206">
        <ele>473.6</ele>
        <time>2022-09-27T11:04:31Z</time>
      </trkpt>
      <trkpt lat="46.1051" lon="5.94214">
        <ele>473.6</ele>
        <time>2022-09-27T11:04:32Z</time>
      </trkpt>
      <trkpt lat="46.10514" lon="5.94221">
        <ele>473.6</ele>
        <time>2022-09-27T11:04:33Z</time>
      </trkpt>
      <trkpt lat="46.10519" lon="5.9423">
        <ele>473.5</ele>
        <time>2022-09-27T11:04:34Z</time>
      </trkpt>
      <trkpt lat="46.10522" lon="5.94238">
        <ele>473.5</ele>
        <time>2022-09-27T11:04:35Z</time>
      </trkpt>
      <trkpt lat="46.10525" lon="5.94245">
        <ele>473.4</ele>
        <time>2022-09-27T11:04:36Z</time>
      </trkpt>
      <trkpt lat="46.10529" lon="5.94254">
        <ele>473.3</ele>
        <time>2022-09-27T11:04:37Z</time>
      </trkpt>
      <trkpt lat="46.10533" lon="5.94262">
        <ele>473.2</ele>
        <time>2022-09-27T11:04:38Z</time>
      </trkpt>
      <trkpt lat="46.10537" lon="5.9427">
        <ele>473.1</ele>
        <time>2022-09-27T11:04:39Z</time>
      </trkpt>
      <trkpt lat="46.10542" lon="5.94278">
        <ele>473</ele>
        <time>2022-09-27T11:04:40Z</time>
      </trkpt>
      <trkpt lat="46.10546" lon="5.94286">
        <ele>473</ele>
        <time>2022-09-27T11:04:41Z</time>
      </trkpt>
      <trkpt lat="46.1055" lon="5.94294">
        <ele>472.9</ele>
        <time>2022-09-27T11:04:42Z</time>
      </trkpt>
      <trkpt lat="46.10554" lon="5.94303">
        <ele>472.8</ele>
        <time>2022-09-27T11:04:43Z</time>
      </trkpt>
      <trkpt lat="46.10558" lon="5.94311">
        <ele>472.7</ele>
        <time>2022-09-27T11:04:44Z</time>
      </trkpt>
      <trkpt lat="46.10563" lon="5.9432">
        <ele>472.7</ele>
        <time>2022-09-27T11:04:45Z</time>
      </trkpt>
      <trkpt lat="46.10567" lon="5.94329">
        <ele>472.6</ele>
        <time>2022-09-27T11:04:46Z</time>
      </trkpt>
      <trkpt lat="46.10571" lon="5.94337">
        <ele>472.6</ele>
        <time>2022-09-27T11:04:47Z</time>
      </trkpt>
      <trkpt lat="46.10575" lon="5.94344">
        <ele>472.5</ele>
        <time>2022-09-27T11:04:48Z</time>
      </trkpt>
      <trkpt lat="46.10579" lon="5.94352">
        <ele>472.5</ele>
        <time>2022-09-27T11:04:49Z</time>
      </trkpt>
      <trkpt lat="46.10583" lon="5.94359">
        <ele>472.5</ele>
        <time>2022-09-27T11:04:50Z</time>
      </trkpt>
      <trkpt lat="46.10587" lon="5.94365">
        <ele>472.5</ele>
        <time>2022-09-27T11:04:51Z</time>
      </trkpt>
      <trkpt lat="46.10592" lon="5.94371">
        <ele>472.5</ele>
        <time>2022-09-27T11:04:52Z</time>
      </trkpt>
      <trkpt lat="46.10596" lon="5.94377">
        <ele>472.5</ele>
        <time>2022-09-27T11:04:53Z</time>
      </trkpt>
      <trkpt lat="46.106" lon="5.94382">
        <ele>472.5</ele>
        <time>2022-09-27T11:04:54Z</time>
      </trkpt>
      <trkpt lat="46.10604" lon="5.94387">
        <ele>472.6</ele>
        <time>2022-09-27T11:04:55Z</time>
      </trkpt>
      <trkpt lat="46.10608" lon="5.94393">
        <ele>472.8</ele>
        <time>2022-09-27T11:04:56Z</time>
      </trkpt>
      <trkpt lat="46.10609" lon="5.944">
        <ele>472.9</ele>
        <time>2022-09-27T11:04:57Z</time>
      </trkpt>
      <trkpt lat="46.10611" lon="5.94406">
        <ele>472.9</ele>
        <time>2022-09-27T11:04:58Z</time>
      </trkpt>
      <trkpt lat="46.1061" lon="5.94411">
        <ele>473</ele>
        <time>2022-09-27T11:04:59Z</time>
      </trkpt>
      <trkpt lat="46.1061" lon="5.94417">
        <ele>473.1</ele>
        <time>2022-09-27T11:05:00Z</time>
      </trkpt>
      <trkpt lat="46.1061" lon="5.94423">
        <ele>473.1</ele>
        <time>2022-09-27T11:05:01Z</time>
      </trkpt>
      <trkpt lat="46.1061" lon="5.94429">
        <ele>473.1</ele>
        <time>2022-09-27T11:05:02Z</time>
      </trkpt>
      <trkpt lat="46.1061" lon="5.94435">
        <ele>473.2</ele>
        <time>2022-09-27T11:05:03Z</time>
      </trkpt>
      <trkpt lat="46.10611" lon="5.94442">
        <ele>473.2</ele>
        <time>2022-09-27T11:05:04Z</time>
      </trkpt>
      <trkpt lat="46.10611" lon="5.94448">
        <ele>473.2</ele>
        <time>2022-09-27T11:05:05Z</time>
      </trkpt>
      <trkpt lat="46.10611" lon="5.94455">
        <ele>473.2</ele>
        <time>2022-09-27T11:05:06Z</time>
      </trkpt>
      <trkpt lat="46.10611" lon="5.94461">
        <ele>473.3</ele>
        <time>2022-09-27T11:05:07Z</time>
      </trkpt>
      <trkpt lat="46.10611" lon="5.94468">
        <ele>473.3</ele>
        <time>2022-09-27T11:05:08Z</time>
      </trkpt>
      <trkpt lat="46.10612" lon="5.94475">
        <ele>473.3</ele>
        <time>2022-09-27T11:05:09Z</time>
      </trkpt>
      <trkpt lat="46.10611" lon="5.94482">
        <ele>473.3</ele>
        <time>2022-09-27T11:05:10Z</time>
      </trkpt>
      <trkpt lat="46.10612" lon="5.94489">
        <ele>473.3</ele>
        <time>2022-09-27T11:05:11Z</time>
      </trkpt>
      <trkpt lat="46.10612" lon="5.94497">
        <ele>473.3</ele>
        <time>2022-09-27T11:05:12Z</time>
      </trkpt>
      <trkpt lat="46.10612" lon="5.94504">
        <ele>473.3</ele>
        <time>2022-09-27T11:05:13Z</time>
      </trkpt>
      <trkpt lat="46.10613" lon="5.9451">
        <ele>473.3</ele>
        <time>2022-09-27T11:05:14Z</time>
      </trkpt>
      <trkpt lat="46.10613" lon="5.94517">
        <ele>473.2</ele>
        <time>2022-09-27T11:05:15Z</time>
      </trkpt>
      <trkpt lat="46.10613" lon="5.94524">
        <ele>473.2</ele>
        <time>2022-09-27T11:05:16Z</time>
      </trkpt>
      <trkpt lat="46.10613" lon="5.9453">
        <ele>473.2</ele>
        <time>2022-09-27T11:05:17Z</time>
      </trkpt>
      <trkpt lat="46.10613" lon="5.94537">
        <ele>473.2</ele>
        <time>2022-09-27T11:05:18Z</time>
      </trkpt>
      <trkpt lat="46.10613" lon="5.94543">
        <ele>473.1</ele>
        <time>2022-09-27T11:05:19Z</time>
      </trkpt>
      <trkpt lat="46.10614" lon="5.9455">
        <ele>472.9</ele>
        <time>2022-09-27T11:05:20Z</time>
      </trkpt>
      <trkpt lat="46.10615" lon="5.94556">
        <ele>472.8</ele>
        <time>2022-09-27T11:05:21Z</time>
      </trkpt>
      <trkpt lat="46.10618" lon="5.94561">
        <ele>472.7</ele>
        <time>2022-09-27T11:05:22Z</time>
      </trkpt>
      <trkpt lat="46.10622" lon="5.94567">
        <ele>472.6</ele>
        <time>2022-09-27T11:05:23Z</time>
      </trkpt>
      <trkpt lat="46.10626" lon="5.94572">
        <ele>472.4</ele>
        <time>2022-09-27T11:05:24Z</time>
      </trkpt>
      <trkpt lat="46.10631" lon="5.94576">
        <ele>472.3</ele>
        <time>2022-09-27T11:05:25Z</time>
      </trkpt>
      <trkpt lat="46.10636" lon="5.94581">
        <ele>472.2</ele>
        <time>2022-09-27T11:05:26Z</time>
      </trkpt>
      <trkpt lat="46.10641" lon="5.94586">
        <ele>472</ele>
        <time>2022-09-27T11:05:27Z</time>
      </trkpt>
      <trkpt lat="46.10647" lon="5.94591">
        <ele>471.9</ele>
        <time>2022-09-27T11:05:28Z</time>
      </trkpt>
      <trkpt lat="46.10652" lon="5.94596">
        <ele>471.7</ele>
        <time>2022-09-27T11:05:29Z</time>
      </trkpt>
      <trkpt lat="46.10658" lon="5.94601">
        <ele>471.5</ele>
        <time>2022-09-27T11:05:30Z</time>
      </trkpt>
      <trkpt lat="46.10664" lon="5.94605">
        <ele>471.4</ele>
        <time>2022-09-27T11:05:31Z</time>
      </trkpt>
      <trkpt lat="46.1067" lon="5.9461">
        <ele>471.2</ele>
        <time>2022-09-27T11:05:32Z</time>
      </trkpt>
      <trkpt lat="46.10676" lon="5.94614">
        <ele>471</ele>
        <time>2022-09-27T11:05:33Z</time>
      </trkpt>
      <trkpt lat="46.10682" lon="5.94619">
        <ele>470.9</ele>
        <time>2022-09-27T11:05:34Z</time>
      </trkpt>
      <trkpt lat="46.10689" lon="5.94623">
        <ele>470.7</ele>
        <time>2022-09-27T11:05:35Z</time>
      </trkpt>
      <trkpt lat="46.10695" lon="5.94627">
        <ele>470.6</ele>
        <time>2022-09-27T11:05:36Z</time>
      </trkpt>
      <trkpt lat="46.107" lon="5.94631">
        <ele>470.5</ele>
        <time>2022-09-27T11:05:37Z</time>
      </trkpt>
      <trkpt lat="46.10706" lon="5.94635">
        <ele>470.5</ele>
        <time>2022-09-27T11:05:38Z</time>
      </trkpt>
      <trkpt lat="46.10709" lon="5.94639">
        <ele>470.5</ele>
        <time>2022-09-27T11:05:39Z</time>
      </trkpt>
      <trkpt lat="46.10712" lon="5.94644">
        <ele>470.5</ele>
        <time>2022-09-27T11:05:40Z</time>
      </trkpt>
      <trkpt lat="46.10715" lon="5.94651">
        <ele>470.5</ele>
        <time>2022-09-27T11:05:41Z</time>
      </trkpt>
      <trkpt lat="46.10715" lon="5.94658">
        <ele>470.5</ele>
        <time>2022-09-27T11:05:42Z</time>
      </trkpt>
      <trkpt lat="46.10714" lon="5.94666">
        <ele>470.6</ele>
        <time>2022-09-27T11:05:43Z</time>
      </trkpt>
      <trkpt lat="46.10714" lon="5.94674">
        <ele>470.6</ele>
        <time>2022-09-27T11:05:44Z</time>
      </trkpt>
      <trkpt lat="46.10715" lon="5.94682">
        <ele>470.7</ele>
        <time>2022-09-27T11:05:45Z</time>
      </trkpt>
      <trkpt lat="46.10716" lon="5.9469">
        <ele>470.7</ele>
        <time>2022-09-27T11:05:46Z</time>
      </trkpt>
      <trkpt lat="46.10717" lon="5.94698">
        <ele>470.8</ele>
        <time>2022-09-27T11:05:47Z</time>
      </trkpt>
      <trkpt lat="46.10717" lon="5.94706">
        <ele>470.8</ele>
        <time>2022-09-27T11:05:48Z</time>
      </trkpt>
      <trkpt lat="46.10718" lon="5.94714">
        <ele>470.9</ele>
        <time>2022-09-27T11:05:49Z</time>
      </trkpt>
      <trkpt lat="46.10719" lon="5.94723">
        <ele>470.9</ele>
        <time>2022-09-27T11:05:50Z</time>
      </trkpt>
      <trkpt lat="46.1072" lon="5.9473">
        <ele>470.9</ele>
        <time>2022-09-27T11:05:51Z</time>
      </trkpt>
      <trkpt lat="46.10721" lon="5.94737">
        <ele>470.9</ele>
        <time>2022-09-27T11:05:52Z</time>
      </trkpt>
      <trkpt lat="46.10724" lon="5.94743">
        <ele>470.9</ele>
        <time>2022-09-27T11:05:53Z</time>
      </trkpt>
      <trkpt lat="46.10728" lon="5.94748">
        <ele>471</ele>
        <time>2022-09-27T11:05:54Z</time>
      </trkpt>
      <trkpt lat="46.10733" lon="5.94753">
        <ele>471</ele>
        <time>2022-09-27T11:05:55Z</time>
      </trkpt>
      <trkpt lat="46.10738" lon="5.94757">
        <ele>471</ele>
        <time>2022-09-27T11:05:56Z</time>
      </trkpt>
      <trkpt lat="46.10741" lon="5.94761">
        <ele>471</ele>
        <time>2022-09-27T11:05:57Z</time>
      </trkpt>
      <trkpt lat="46.10744" lon="5.94767">
        <ele>471</ele>
        <time>2022-09-27T11:05:58Z</time>
      </trkpt>
      <trkpt lat="46.10745" lon="5.94774">
        <ele>471.1</ele>
        <time>2022-09-27T11:05:59Z</time>
      </trkpt>
      <trkpt lat="46.10745" lon="5.94781">
        <ele>471.1</ele>
        <time>2022-09-27T11:06:00Z</time>
      </trkpt>
      <trkpt lat="46.10745" lon="5.94788">
        <ele>471.1</ele>
        <time>2022-09-27T11:06:01Z</time>
      </trkpt>
      <trkpt lat="46.10745" lon="5.94795">
        <ele>471.1</ele>
        <time>2022-09-27T11:06:02Z</time>
      </trkpt>
      <trkpt lat="46.10744" lon="5.94801">
        <ele>471.2</ele>
        <time>2022-09-27T11:06:03Z</time>
      </trkpt>
      <trkpt lat="46.10744" lon="5.94806">
        <ele>471.2</ele>
        <time>2022-09-27T11:06:05Z</time>
      </trkpt>
      <trkpt lat="46.10743" lon="5.9481">
        <ele>471.2</ele>
        <time>2022-09-27T11:06:06Z</time>
      </trkpt>
      <trkpt lat="46.10744" lon="5.94811">
        <ele>471.2</ele>
        <time>2022-09-27T11:06:07Z</time>
      </trkpt>
      <trkpt lat="46.10745" lon="5.94813">
        <ele>471.2</ele>
        <time>2022-09-27T11:06:08Z</time>
      </trkpt>
      <trkpt lat="46.10745" lon="5.94818">
        <ele>471.2</ele>
        <time>2022-09-27T11:06:09Z</time>
      </trkpt>
      <trkpt lat="46.10744" lon="5.9482">
        <ele>471.2</ele>
        <time>2022-09-27T11:06:10Z</time>
      </trkpt>
      <trkpt lat="46.10744" lon="5.94824">
        <ele>471.2</ele>
        <time>2022-09-27T11:06:11Z</time>
      </trkpt>
      <trkpt lat="46.10742" lon="5.94828">
        <ele>471.2</ele>
        <time>2022-09-27T11:06:12Z</time>
      </trkpt>
      <trkpt lat="46.10741" lon="5.94832">
        <ele>471.1</ele>
        <time>2022-09-27T11:06:13Z</time>
      </trkpt>
      <trkpt lat="46.1074" lon="5.94837">
        <ele>471.1</ele>
        <time>2022-09-27T11:06:14Z</time>
      </trkpt>
      <trkpt lat="46.10738" lon="5.94842">
        <ele>471.1</ele>
        <time>2022-09-27T11:06:15Z</time>
      </trkpt>
      <trkpt lat="46.10737" lon="5.94847">
        <ele>471.1</ele>
        <time>2022-09-27T11:06:16Z</time>
      </trkpt>
      <trkpt lat="46.10735" lon="5.94853">
        <ele>471</ele>
        <time>2022-09-27T11:06:17Z</time>
      </trkpt>
      <trkpt lat="46.10734" lon="5.94858">
        <ele>471</ele>
        <time>2022-09-27T11:06:18Z</time>
      </trkpt>
      <trkpt lat="46.10733" lon="5.94864">
        <ele>470.9</ele>
        <time>2022-09-27T11:06:19Z</time>
      </trkpt>
      <trkpt lat="46.10732" lon="5.9487">
        <ele>470.8</ele>
        <time>2022-09-27T11:06:20Z</time>
      </trkpt>
      <trkpt lat="46.10731" lon="5.94877">
        <ele>470.6</ele>
        <time>2022-09-27T11:06:21Z</time>
      </trkpt>
      <trkpt lat="46.1073" lon="5.94883">
        <ele>470.5</ele>
        <time>2022-09-27T11:06:22Z</time>
      </trkpt>
      <trkpt lat="46.1073" lon="5.94891">
        <ele>470.3</ele>
        <time>2022-09-27T11:06:23Z</time>
      </trkpt>
      <trkpt lat="46.10729" lon="5.94899">
        <ele>470.1</ele>
        <time>2022-09-27T11:06:24Z</time>
      </trkpt>
      <trkpt lat="46.10728" lon="5.94907">
        <ele>469.9</ele>
        <time>2022-09-27T11:06:25Z</time>
      </trkpt>
      <trkpt lat="46.10727" lon="5.94914">
        <ele>469.7</ele>
        <time>2022-09-27T11:06:26Z</time>
      </trkpt>
      <trkpt lat="46.10726" lon="5.94921">
        <ele>469.5</ele>
        <time>2022-09-27T11:06:27Z</time>
      </trkpt>
      <trkpt lat="46.10725" lon="5.94928">
        <ele>469.4</ele>
        <time>2022-09-27T11:06:28Z</time>
      </trkpt>
      <trkpt lat="46.10724" lon="5.94933">
        <ele>469.2</ele>
        <time>2022-09-27T11:06:29Z</time>
      </trkpt>
      <trkpt lat="46.10717" lon="5.94939">
        <ele>469.1</ele>
        <time>2022-09-27T11:06:30Z</time>
      </trkpt>
      <trkpt lat="46.10713" lon="5.94941">
        <ele>469.1</ele>
        <time>2022-09-27T11:06:31Z</time>
      </trkpt>
      <trkpt lat="46.1071" lon="5.94945">
        <ele>469</ele>
        <time>2022-09-27T11:06:32Z</time>
      </trkpt>
      <trkpt lat="46.10708" lon="5.9495">
        <ele>468.9</ele>
        <time>2022-09-27T11:06:33Z</time>
      </trkpt>
      <trkpt lat="46.10707" lon="5.94955">
        <ele>468.9</ele>
        <time>2022-09-27T11:06:34Z</time>
      </trkpt>
      <trkpt lat="46.10709" lon="5.9496">
        <ele>468.8</ele>
        <time>2022-09-27T11:06:35Z</time>
      </trkpt>
      <trkpt lat="46.10711" lon="5.94964">
        <ele>468.8</ele>
        <time>2022-09-27T11:06:36Z</time>
      </trkpt>
      <trkpt lat="46.10714" lon="5.94967">
        <ele>468.7</ele>
        <time>2022-09-27T11:06:37Z</time>
      </trkpt>
      <trkpt lat="46.10719" lon="5.94967">
        <ele>468.6</ele>
        <time>2022-09-27T11:06:38Z</time>
      </trkpt>
      <trkpt lat="46.10723" lon="5.94969">
        <ele>468.6</ele>
        <time>2022-09-27T11:06:39Z</time>
      </trkpt>
      <trkpt lat="46.10726" lon="5.9497">
        <ele>468.6</ele>
        <time>2022-09-27T11:06:40Z</time>
      </trkpt>
      <trkpt lat="46.1073" lon="5.94971">
        <ele>468.6</ele>
        <time>2022-09-27T11:06:41Z</time>
      </trkpt>
      <trkpt lat="46.10734" lon="5.94973">
        <ele>468.6</ele>
        <time>2022-09-27T11:06:42Z</time>
      </trkpt>
      <trkpt lat="46.10738" lon="5.94973">
        <ele>468.7</ele>
        <time>2022-09-27T11:06:43Z</time>
      </trkpt>
      <trkpt lat="46.10742" lon="5.94974">
        <ele>468.7</ele>
        <time>2022-09-27T11:06:44Z</time>
      </trkpt>
      <trkpt lat="46.10746" lon="5.94976">
        <ele>468.8</ele>
        <time>2022-09-27T11:06:45Z</time>
      </trkpt>
      <trkpt lat="46.1075" lon="5.94978">
        <ele>468.9</ele>
        <time>2022-09-27T11:06:46Z</time>
      </trkpt>
      <trkpt lat="46.10755" lon="5.9498">
        <ele>469</ele>
        <time>2022-09-27T11:06:47Z</time>
      </trkpt>
      <trkpt lat="46.1076" lon="5.94981">
        <ele>469.1</ele>
        <time>2022-09-27T11:06:48Z</time>
      </trkpt>
      <trkpt lat="46.10764" lon="5.94983">
        <ele>469.2</ele>
        <time>2022-09-27T11:06:49Z</time>
      </trkpt>
      <trkpt lat="46.10769" lon="5.94985">
        <ele>469.3</ele>
        <time>2022-09-27T11:06:50Z</time>
      </trkpt>
      <trkpt lat="46.10773" lon="5.94987">
        <ele>469.4</ele>
        <time>2022-09-27T11:06:51Z</time>
      </trkpt>
      <trkpt lat="46.10778" lon="5.94989">
        <ele>469.5</ele>
        <time>2022-09-27T11:06:52Z</time>
      </trkpt>
      <trkpt lat="46.10782" lon="5.94992">
        <ele>469.5</ele>
        <time>2022-09-27T11:06:53Z</time>
      </trkpt>
      <trkpt lat="46.10787" lon="5.94993">
        <ele>469.6</ele>
        <time>2022-09-27T11:06:54Z</time>
      </trkpt>
      <trkpt lat="46.10791" lon="5.94996">
        <ele>469.6</ele>
        <time>2022-09-27T11:06:55Z</time>
      </trkpt>
      <trkpt lat="46.10795" lon="5.94998">
        <ele>469.7</ele>
        <time>2022-09-27T11:06:56Z</time>
      </trkpt>
      <trkpt lat="46.108" lon="5.95001">
        <ele>469.8</ele>
        <time>2022-09-27T11:06:57Z</time>
      </trkpt>
      <trkpt lat="46.10804" lon="5.95003">
        <ele>469.8</ele>
        <time>2022-09-27T11:06:58Z</time>
      </trkpt>
      <trkpt lat="46.10808" lon="5.95006">
        <ele>469.8</ele>
        <time>2022-09-27T11:06:59Z</time>
      </trkpt>
      <trkpt lat="46.10811" lon="5.95009">
        <ele>469.8</ele>
        <time>2022-09-27T11:07:00Z</time>
      </trkpt>
      <trkpt lat="46.10814" lon="5.95014">
        <ele>469.8</ele>
        <time>2022-09-27T11:07:01Z</time>
      </trkpt>
      <trkpt lat="46.10815" lon="5.9502">
        <ele>469.8</ele>
        <time>2022-09-27T11:07:02Z</time>
      </trkpt>
      <trkpt lat="46.10816" lon="5.95027">
        <ele>469.9</ele>
        <time>2022-09-27T11:07:03Z</time>
      </trkpt>
      <trkpt lat="46.10815" lon="5.95034">
        <ele>469.9</ele>
        <time>2022-09-27T11:07:04Z</time>
      </trkpt>
      <trkpt lat="46.10814" lon="5.9504">
        <ele>470</ele>
        <time>2022-09-27T11:07:05Z</time>
      </trkpt>
      <trkpt lat="46.10813" lon="5.95047">
        <ele>470</ele>
        <time>2022-09-27T11:07:06Z</time>
      </trkpt>
      <trkpt lat="46.10812" lon="5.95054">
        <ele>470.1</ele>
        <time>2022-09-27T11:07:07Z</time>
      </trkpt>
      <trkpt lat="46.1081" lon="5.9506">
        <ele>470.1</ele>
        <time>2022-09-27T11:07:08Z</time>
      </trkpt>
      <trkpt lat="46.1081" lon="5.95067">
        <ele>470.1</ele>
        <time>2022-09-27T11:07:09Z</time>
      </trkpt>
      <trkpt lat="46.10809" lon="5.95074">
        <ele>470.2</ele>
        <time>2022-09-27T11:07:10Z</time>
      </trkpt>
      <trkpt lat="46.10808" lon="5.9508">
        <ele>470.2</ele>
        <time>2022-09-27T11:07:11Z</time>
      </trkpt>
      <trkpt lat="46.10807" lon="5.95087">
        <ele>470.3</ele>
        <time>2022-09-27T11:07:12Z</time>
      </trkpt>
      <trkpt lat="46.10806" lon="5.95094">
        <ele>470.3</ele>
        <time>2022-09-27T11:07:13Z</time>
      </trkpt>
      <trkpt lat="46.10805" lon="5.951">
        <ele>470.4</ele>
        <time>2022-09-27T11:07:14Z</time>
      </trkpt>
      <trkpt lat="46.10804" lon="5.95107">
        <ele>470.4</ele>
        <time>2022-09-27T11:07:15Z</time>
      </trkpt>
      <trkpt lat="46.10803" lon="5.95114">
        <ele>470.5</ele>
        <time>2022-09-27T11:07:16Z</time>
      </trkpt>
      <trkpt lat="46.10803" lon="5.95121">
        <ele>470.5</ele>
        <time>2022-09-27T11:07:17Z</time>
      </trkpt>
      <trkpt lat="46.10802" lon="5.95127">
        <ele>470.6</ele>
        <time>2022-09-27T11:07:18Z</time>
      </trkpt>
      <trkpt lat="46.10801" lon="5.95134">
        <ele>470.6</ele>
        <time>2022-09-27T11:07:19Z</time>
      </trkpt>
      <trkpt lat="46.108" lon="5.95141">
        <ele>470.6</ele>
        <time>2022-09-27T11:07:20Z</time>
      </trkpt>
      <trkpt lat="46.108" lon="5.95148">
        <ele>470.6</ele>
        <time>2022-09-27T11:07:21Z</time>
      </trkpt>
      <trkpt lat="46.10799" lon="5.95155">
        <ele>470.7</ele>
        <time>2022-09-27T11:07:22Z</time>
      </trkpt>
      <trkpt lat="46.10799" lon="5.95162">
        <ele>470.7</ele>
        <time>2022-09-27T11:07:23Z</time>
      </trkpt>
      <trkpt lat="46.10799" lon="5.95169">
        <ele>470.7</ele>
        <time>2022-09-27T11:07:24Z</time>
      </trkpt>
      <trkpt lat="46.10799" lon="5.95176">
        <ele>470.8</ele>
        <time>2022-09-27T11:07:25Z</time>
      </trkpt>
      <trkpt lat="46.10799" lon="5.95183">
        <ele>470.8</ele>
        <time>2022-09-27T11:07:26Z</time>
      </trkpt>
      <trkpt lat="46.10798" lon="5.9519">
        <ele>470.9</ele>
        <time>2022-09-27T11:07:27Z</time>
      </trkpt>
      <trkpt lat="46.10798" lon="5.95197">
        <ele>470.9</ele>
        <time>2022-09-27T11:07:28Z</time>
      </trkpt>
      <trkpt lat="46.10798" lon="5.95204">
        <ele>470.9</ele>
        <time>2022-09-27T11:07:29Z</time>
      </trkpt>
      <trkpt lat="46.10797" lon="5.9521">
        <ele>470.9</ele>
        <time>2022-09-27T11:07:30Z</time>
      </trkpt>
      <trkpt lat="46.10797" lon="5.95217">
        <ele>470.9</ele>
        <time>2022-09-27T11:07:31Z</time>
      </trkpt>
      <trkpt lat="46.10796" lon="5.95224">
        <ele>471</ele>
        <time>2022-09-27T11:07:32Z</time>
      </trkpt>
      <trkpt lat="46.10796" lon="5.95231">
        <ele>471</ele>
        <time>2022-09-27T11:07:33Z</time>
      </trkpt>
      <trkpt lat="46.10796" lon="5.95238">
        <ele>471</ele>
        <time>2022-09-27T11:07:34Z</time>
      </trkpt>
      <trkpt lat="46.10796" lon="5.95245">
        <ele>471</ele>
        <time>2022-09-27T11:07:35Z</time>
      </trkpt>
      <trkpt lat="46.10796" lon="5.95252">
        <ele>471.1</ele>
        <time>2022-09-27T11:07:36Z</time>
      </trkpt>
      <trkpt lat="46.10795" lon="5.95258">
        <ele>471.1</ele>
        <time>2022-09-27T11:07:37Z</time>
      </trkpt>
      <trkpt lat="46.10795" lon="5.95264">
        <ele>471.1</ele>
        <time>2022-09-27T11:07:38Z</time>
      </trkpt>
      <trkpt lat="46.10795" lon="5.95269">
        <ele>471.2</ele>
        <time>2022-09-27T11:07:39Z</time>
      </trkpt>
      <trkpt lat="46.10794" lon="5.95274">
        <ele>471.2</ele>
        <time>2022-09-27T11:07:40Z</time>
      </trkpt>
      <trkpt lat="46.10795" lon="5.95277">
        <ele>471.2</ele>
        <time>2022-09-27T11:07:41Z</time>
      </trkpt>
      <trkpt lat="46.10796" lon="5.95278">
        <ele>471.2</ele>
        <time>2022-09-27T11:07:42Z</time>
      </trkpt>
      <trkpt lat="46.10797" lon="5.95281">
        <ele>471.3</ele>
        <time>2022-09-27T11:07:43Z</time>
      </trkpt>
      <trkpt lat="46.10797" lon="5.95283">
        <ele>471.3</ele>
        <time>2022-09-27T11:07:44Z</time>
      </trkpt>
      <trkpt lat="46.10797" lon="5.95284">
        <ele>471.2</ele>
        <time>2022-09-27T11:07:45Z</time>
      </trkpt>
      <trkpt lat="46.10799" lon="5.95287">
        <ele>471.2</ele>
        <time>2022-09-27T11:07:46Z</time>
      </trkpt>
      <trkpt lat="46.10799" lon="5.95288">
        <ele>471.2</ele>
        <time>2022-09-27T11:07:47Z</time>
      </trkpt>
      <trkpt lat="46.10803" lon="5.9529">
        <ele>471.2</ele>
        <time>2022-09-27T11:07:48Z</time>
      </trkpt>
      <trkpt lat="46.10804" lon="5.95291">
        <ele>471.2</ele>
        <time>2022-09-27T11:07:49Z</time>
      </trkpt>
      <trkpt lat="46.10807" lon="5.95293">
        <ele>471.2</ele>
        <time>2022-09-27T11:07:50Z</time>
      </trkpt>
      <trkpt lat="46.10808" lon="5.95294">
        <ele>471.2</ele>
        <time>2022-09-27T11:07:51Z</time>
      </trkpt>
      <trkpt lat="46.1081" lon="5.95296">
        <ele>471.1</ele>
        <time>2022-09-27T11:07:52Z</time>
      </trkpt>
      <trkpt lat="46.10811" lon="5.95297">
        <ele>471.1</ele>
        <time>2022-09-27T11:07:53Z</time>
      </trkpt>
      <trkpt lat="46.10813" lon="5.95299">
        <ele>471.1</ele>
        <time>2022-09-27T11:07:54Z</time>
      </trkpt>
      <trkpt lat="46.10814" lon="5.95305">
        <ele>471.1</ele>
        <time>2022-09-27T11:07:55Z</time>
      </trkpt>
      <trkpt lat="46.10814" lon="5.95307">
        <ele>471</ele>
        <time>2022-09-27T11:07:56Z</time>
      </trkpt>
      <trkpt lat="46.10814" lon="5.95312">
        <ele>471</ele>
        <time>2022-09-27T11:07:57Z</time>
      </trkpt>
      <trkpt lat="46.10813" lon="5.95317">
        <ele>470.9</ele>
        <time>2022-09-27T11:07:58Z</time>
      </trkpt>
      <trkpt lat="46.10812" lon="5.95323">
        <ele>470.9</ele>
        <time>2022-09-27T11:07:59Z</time>
      </trkpt>
      <trkpt lat="46.10812" lon="5.95328">
        <ele>470.8</ele>
        <time>2022-09-27T11:08:00Z</time>
      </trkpt>
      <trkpt lat="46.10812" lon="5.95335">
        <ele>470.8</ele>
        <time>2022-09-27T11:08:01Z</time>
      </trkpt>
      <trkpt lat="46.10812" lon="5.95341">
        <ele>470.7</ele>
        <time>2022-09-27T11:08:02Z</time>
      </trkpt>
      <trkpt lat="46.10812" lon="5.95347">
        <ele>470.7</ele>
        <time>2022-09-27T11:08:03Z</time>
      </trkpt>
      <trkpt lat="46.10811" lon="5.95354">
        <ele>470.6</ele>
        <time>2022-09-27T11:08:04Z</time>
      </trkpt>
      <trkpt lat="46.10811" lon="5.95361">
        <ele>470.6</ele>
        <time>2022-09-27T11:08:05Z</time>
      </trkpt>
      <trkpt lat="46.10811" lon="5.95367">
        <ele>470.6</ele>
        <time>2022-09-27T11:08:06Z</time>
      </trkpt>
      <trkpt lat="46.10811" lon="5.95373">
        <ele>470.6</ele>
        <time>2022-09-27T11:08:07Z</time>
      </trkpt>
      <trkpt lat="46.10811" lon="5.95379">
        <ele>470.6</ele>
        <time>2022-09-27T11:08:08Z</time>
      </trkpt>
      <trkpt lat="46.1081" lon="5.95387">
        <ele>470.5</ele>
        <time>2022-09-27T11:08:09Z</time>
      </trkpt>
      <trkpt lat="46.1081" lon="5.95393">
        <ele>470.5</ele>
        <time>2022-09-27T11:08:11Z</time>
      </trkpt>
      <trkpt lat="46.10811" lon="5.954">
        <ele>470.5</ele>
        <time>2022-09-27T11:08:12Z</time>
      </trkpt>
      <trkpt lat="46.1081" lon="5.95407">
        <ele>470.5</ele>
        <time>2022-09-27T11:08:13Z</time>
      </trkpt>
      <trkpt lat="46.1081" lon="5.95415">
        <ele>470.5</ele>
        <time>2022-09-27T11:08:14Z</time>
      </trkpt>
      <trkpt lat="46.10809" lon="5.95422">
        <ele>470.4</ele>
        <time>2022-09-27T11:08:15Z</time>
      </trkpt>
      <trkpt lat="46.10809" lon="5.95428">
        <ele>470.4</ele>
        <time>2022-09-27T11:08:16Z</time>
      </trkpt>
      <trkpt lat="46.10809" lon="5.95435">
        <ele>470.4</ele>
        <time>2022-09-27T11:08:17Z</time>
      </trkpt>
      <trkpt lat="46.10809" lon="5.9544">
        <ele>470.4</ele>
        <time>2022-09-27T11:08:18Z</time>
      </trkpt>
      <trkpt lat="46.1081" lon="5.95447">
        <ele>470.4</ele>
        <time>2022-09-27T11:08:19Z</time>
      </trkpt>
      <trkpt lat="46.10809" lon="5.95454">
        <ele>470.4</ele>
        <time>2022-09-27T11:08:20Z</time>
      </trkpt>
      <trkpt lat="46.1081" lon="5.95461">
        <ele>470.4</ele>
        <time>2022-09-27T11:08:21Z</time>
      </trkpt>
      <trkpt lat="46.1081" lon="5.95468">
        <ele>470.4</ele>
        <time>2022-09-27T11:08:22Z</time>
      </trkpt>
      <trkpt lat="46.1081" lon="5.95474">
        <ele>470.4</ele>
        <time>2022-09-27T11:08:23Z</time>
      </trkpt>
      <trkpt lat="46.1081" lon="5.95481">
        <ele>470.4</ele>
        <time>2022-09-27T11:08:24Z</time>
      </trkpt>
      <trkpt lat="46.1081" lon="5.95488">
        <ele>470.4</ele>
        <time>2022-09-27T11:08:25Z</time>
      </trkpt>
      <trkpt lat="46.1081" lon="5.95495">
        <ele>470.4</ele>
        <time>2022-09-27T11:08:26Z</time>
      </trkpt>
      <trkpt lat="46.1081" lon="5.95501">
        <ele>470.4</ele>
        <time>2022-09-27T11:08:27Z</time>
      </trkpt>
      <trkpt lat="46.1081" lon="5.95507">
        <ele>470.4</ele>
        <time>2022-09-27T11:08:28Z</time>
      </trkpt>
      <trkpt lat="46.1081" lon="5.95515">
        <ele>470.4</ele>
        <time>2022-09-27T11:08:29Z</time>
      </trkpt>
      <trkpt lat="46.10809" lon="5.95521">
        <ele>470.4</ele>
        <time>2022-09-27T11:08:30Z</time>
      </trkpt>
      <trkpt lat="46.10808" lon="5.95528">
        <ele>470.5</ele>
        <time>2022-09-27T11:08:31Z</time>
      </trkpt>
      <trkpt lat="46.10808" lon="5.95535">
        <ele>470.5</ele>
        <time>2022-09-27T11:08:32Z</time>
      </trkpt>
      <trkpt lat="46.10808" lon="5.95542">
        <ele>470.6</ele>
        <time>2022-09-27T11:08:33Z</time>
      </trkpt>
      <trkpt lat="46.10808" lon="5.9555">
        <ele>470.7</ele>
        <time>2022-09-27T11:08:34Z</time>
      </trkpt>
      <trkpt lat="46.10807" lon="5.95564">
        <ele>470.9</ele>
        <time>2022-09-27T11:08:35Z</time>
      </trkpt>
      <trkpt lat="46.10806" lon="5.9557">
        <ele>470.9</ele>
        <time>2022-09-27T11:08:36Z</time>
      </trkpt>
      <trkpt lat="46.10806" lon="5.95577">
        <ele>471</ele>
        <time>2022-09-27T11:08:37Z</time>
      </trkpt>
      <trkpt lat="46.10806" lon="5.95584">
        <ele>471.1</ele>
        <time>2022-09-27T11:08:38Z</time>
      </trkpt>
      <trkpt lat="46.10805" lon="5.95591">
        <ele>471.1</ele>
        <time>2022-09-27T11:08:39Z</time>
      </trkpt>
      <trkpt lat="46.10805" lon="5.95598">
        <ele>471.2</ele>
        <time>2022-09-27T11:08:40Z</time>
      </trkpt>
      <trkpt lat="46.10804" lon="5.95605">
        <ele>471.3</ele>
        <time>2022-09-27T11:08:41Z</time>
      </trkpt>
      <trkpt lat="46.10804" lon="5.95611">
        <ele>471.3</ele>
        <time>2022-09-27T11:08:42Z</time>
      </trkpt>
      <trkpt lat="46.10803" lon="5.95618">
        <ele>471.4</ele>
        <time>2022-09-27T11:08:43Z</time>
      </trkpt>
      <trkpt lat="46.10803" lon="5.95624">
        <ele>471.5</ele>
        <time>2022-09-27T11:08:44Z</time>
      </trkpt>
      <trkpt lat="46.10803" lon="5.9563">
        <ele>471.6</ele>
        <time>2022-09-27T11:08:45Z</time>
      </trkpt>
      <trkpt lat="46.10803" lon="5.95636">
        <ele>471.6</ele>
        <time>2022-09-27T11:08:46Z</time>
      </trkpt>
      <trkpt lat="46.10803" lon="5.95643">
        <ele>471.7</ele>
        <time>2022-09-27T11:08:47Z</time>
      </trkpt>
      <trkpt lat="46.10802" lon="5.95648">
        <ele>471.8</ele>
        <time>2022-09-27T11:08:48Z</time>
      </trkpt>
      <trkpt lat="46.10801" lon="5.95655">
        <ele>471.9</ele>
        <time>2022-09-27T11:08:49Z</time>
      </trkpt>
      <trkpt lat="46.10801" lon="5.95662">
        <ele>471.9</ele>
        <time>2022-09-27T11:08:50Z</time>
      </trkpt>
      <trkpt lat="46.10801" lon="5.95668">
        <ele>472</ele>
        <time>2022-09-27T11:08:51Z</time>
      </trkpt>
      <trkpt lat="46.10802" lon="5.95675">
        <ele>472.1</ele>
        <time>2022-09-27T11:08:52Z</time>
      </trkpt>
      <trkpt lat="46.10801" lon="5.95681">
        <ele>472.1</ele>
        <time>2022-09-27T11:08:53Z</time>
      </trkpt>
      <trkpt lat="46.108" lon="5.95688">
        <ele>472.2</ele>
        <time>2022-09-27T11:08:54Z</time>
      </trkpt>
      <trkpt lat="46.108" lon="5.95694">
        <ele>472.2</ele>
        <time>2022-09-27T11:08:55Z</time>
      </trkpt>
      <trkpt lat="46.108" lon="5.95701">
        <ele>472.3</ele>
        <time>2022-09-27T11:08:56Z</time>
      </trkpt>
      <trkpt lat="46.108" lon="5.95708">
        <ele>472.3</ele>
        <time>2022-09-27T11:08:57Z</time>
      </trkpt>
      <trkpt lat="46.108" lon="5.95714">
        <ele>472.3</ele>
        <time>2022-09-27T11:08:58Z</time>
      </trkpt>
      <trkpt lat="46.10799" lon="5.9572">
        <ele>472.4</ele>
        <time>2022-09-27T11:08:59Z</time>
      </trkpt>
      <trkpt lat="46.10799" lon="5.95725">
        <ele>472.4</ele>
        <time>2022-09-27T11:09:00Z</time>
      </trkpt>
      <trkpt lat="46.10799" lon="5.95733">
        <ele>472.4</ele>
        <time>2022-09-27T11:09:01Z</time>
      </trkpt>
      <trkpt lat="46.10799" lon="5.9574">
        <ele>472.4</ele>
        <time>2022-09-27T11:09:02Z</time>
      </trkpt>
      <trkpt lat="46.10798" lon="5.95747">
        <ele>472.4</ele>
        <time>2022-09-27T11:09:03Z</time>
      </trkpt>
      <trkpt lat="46.10798" lon="5.95753">
        <ele>472.4</ele>
        <time>2022-09-27T11:09:04Z</time>
      </trkpt>
      <trkpt lat="46.10797" lon="5.9576">
        <ele>472.4</ele>
        <time>2022-09-27T11:09:05Z</time>
      </trkpt>
      <trkpt lat="46.10798" lon="5.95767">
        <ele>472.3</ele>
        <time>2022-09-27T11:09:06Z</time>
      </trkpt>
      <trkpt lat="46.10797" lon="5.95774">
        <ele>472.3</ele>
        <time>2022-09-27T11:09:07Z</time>
      </trkpt>
      <trkpt lat="46.10797" lon="5.9578">
        <ele>472.3</ele>
        <time>2022-09-27T11:09:08Z</time>
      </trkpt>
      <trkpt lat="46.10797" lon="5.95787">
        <ele>472.2</ele>
        <time>2022-09-27T11:09:09Z</time>
      </trkpt>
      <trkpt lat="46.10796" lon="5.95794">
        <ele>472.2</ele>
        <time>2022-09-27T11:09:10Z</time>
      </trkpt>
      <trkpt lat="46.10796" lon="5.95801">
        <ele>472.2</ele>
        <time>2022-09-27T11:09:11Z</time>
      </trkpt>
      <trkpt lat="46.10796" lon="5.95807">
        <ele>472.2</ele>
        <time>2022-09-27T11:09:12Z</time>
      </trkpt>
      <trkpt lat="46.10796" lon="5.95815">
        <ele>472.1</ele>
        <time>2022-09-27T11:09:13Z</time>
      </trkpt>
      <trkpt lat="46.10795" lon="5.95821">
        <ele>472.1</ele>
        <time>2022-09-27T11:09:14Z</time>
      </trkpt>
      <trkpt lat="46.10795" lon="5.95827">
        <ele>472.1</ele>
        <time>2022-09-27T11:09:15Z</time>
      </trkpt>
      <trkpt lat="46.10795" lon="5.95834">
        <ele>472.1</ele>
        <time>2022-09-27T11:09:16Z</time>
      </trkpt>
      <trkpt lat="46.10794" lon="5.95842">
        <ele>472.1</ele>
        <time>2022-09-27T11:09:17Z</time>
      </trkpt>
      <trkpt lat="46.10794" lon="5.95848">
        <ele>472.1</ele>
        <time>2022-09-27T11:09:18Z</time>
      </trkpt>
      <trkpt lat="46.10794" lon="5.95856">
        <ele>472</ele>
        <time>2022-09-27T11:09:19Z</time>
      </trkpt>
      <trkpt lat="46.10794" lon="5.95863">
        <ele>471.9</ele>
        <time>2022-09-27T11:09:20Z</time>
      </trkpt>
      <trkpt lat="46.10794" lon="5.95869">
        <ele>471.9</ele>
        <time>2022-09-27T11:09:21Z</time>
      </trkpt>
      <trkpt lat="46.10794" lon="5.95876">
        <ele>471.8</ele>
        <time>2022-09-27T11:09:22Z</time>
      </trkpt>
      <trkpt lat="46.10794" lon="5.95884">
        <ele>471.7</ele>
        <time>2022-09-27T11:09:23Z</time>
      </trkpt>
      <trkpt lat="46.10794" lon="5.95892">
        <ele>471.6</ele>
        <time>2022-09-27T11:09:24Z</time>
      </trkpt>
      <trkpt lat="46.10794" lon="5.95899">
        <ele>471.4</ele>
        <time>2022-09-27T11:09:25Z</time>
      </trkpt>
      <trkpt lat="46.10794" lon="5.95907">
        <ele>471.3</ele>
        <time>2022-09-27T11:09:26Z</time>
      </trkpt>
      <trkpt lat="46.10794" lon="5.95914">
        <ele>471.1</ele>
        <time>2022-09-27T11:09:27Z</time>
      </trkpt>
      <trkpt lat="46.10795" lon="5.95921">
        <ele>470.9</ele>
        <time>2022-09-27T11:09:28Z</time>
      </trkpt>
      <trkpt lat="46.10794" lon="5.9593">
        <ele>470.6</ele>
        <time>2022-09-27T11:09:29Z</time>
      </trkpt>
      <trkpt lat="46.10795" lon="5.95938">
        <ele>470.3</ele>
        <time>2022-09-27T11:09:30Z</time>
      </trkpt>
      <trkpt lat="46.10795" lon="5.95948">
        <ele>469.9</ele>
        <time>2022-09-27T11:09:31Z</time>
      </trkpt>
      <trkpt lat="46.10795" lon="5.95957">
        <ele>469.6</ele>
        <time>2022-09-27T11:09:32Z</time>
      </trkpt>
      <trkpt lat="46.10796" lon="5.95968">
        <ele>469.3</ele>
        <time>2022-09-27T11:09:33Z</time>
      </trkpt>
      <trkpt lat="46.10796" lon="5.95978">
        <ele>469.1</ele>
        <time>2022-09-27T11:09:34Z</time>
      </trkpt>
      <trkpt lat="46.10796" lon="5.95989">
        <ele>469</ele>
        <time>2022-09-27T11:09:35Z</time>
      </trkpt>
      <trkpt lat="46.10796" lon="5.95999">
        <ele>469</ele>
        <time>2022-09-27T11:09:36Z</time>
      </trkpt>
      <trkpt lat="46.10797" lon="5.96008">
        <ele>469.2</ele>
        <time>2022-09-27T11:09:37Z</time>
      </trkpt>
      <trkpt lat="46.10798" lon="5.96016">
        <ele>469.4</ele>
        <time>2022-09-27T11:09:38Z</time>
      </trkpt>
      <trkpt lat="46.10798" lon="5.96023">
        <ele>469.6</ele>
        <time>2022-09-27T11:09:39Z</time>
      </trkpt>
      <trkpt lat="46.10798" lon="5.9603">
        <ele>469.8</ele>
        <time>2022-09-27T11:09:40Z</time>
      </trkpt>
      <trkpt lat="46.10798" lon="5.96037">
        <ele>470</ele>
        <time>2022-09-27T11:09:41Z</time>
      </trkpt>
      <trkpt lat="46.10798" lon="5.96045">
        <ele>470.3</ele>
        <time>2022-09-27T11:09:42Z</time>
      </trkpt>
      <trkpt lat="46.10799" lon="5.96051">
        <ele>470.5</ele>
        <time>2022-09-27T11:09:43Z</time>
      </trkpt>
      <trkpt lat="46.10799" lon="5.96057">
        <ele>470.7</ele>
        <time>2022-09-27T11:09:44Z</time>
      </trkpt>
      <trkpt lat="46.10799" lon="5.96064">
        <ele>470.9</ele>
        <time>2022-09-27T11:09:45Z</time>
      </trkpt>
      <trkpt lat="46.108" lon="5.9607">
        <ele>471</ele>
        <time>2022-09-27T11:09:46Z</time>
      </trkpt>
      <trkpt lat="46.10801" lon="5.96076">
        <ele>471.2</ele>
        <time>2022-09-27T11:09:47Z</time>
      </trkpt>
      <trkpt lat="46.10801" lon="5.96081">
        <ele>471.3</ele>
        <time>2022-09-27T11:09:48Z</time>
      </trkpt>
      <trkpt lat="46.10802" lon="5.96087">
        <ele>471.4</ele>
        <time>2022-09-27T11:09:49Z</time>
      </trkpt>
      <trkpt lat="46.10803" lon="5.96093">
        <ele>471.5</ele>
        <time>2022-09-27T11:09:50Z</time>
      </trkpt>
      <trkpt lat="46.10803" lon="5.96099">
        <ele>471.6</ele>
        <time>2022-09-27T11:09:51Z</time>
      </trkpt>
      <trkpt lat="46.10804" lon="5.96105">
        <ele>471.7</ele>
        <time>2022-09-27T11:09:52Z</time>
      </trkpt>
      <trkpt lat="46.10805" lon="5.96111">
        <ele>471.8</ele>
        <time>2022-09-27T11:09:53Z</time>
      </trkpt>
      <trkpt lat="46.10805" lon="5.96117">
        <ele>471.8</ele>
        <time>2022-09-27T11:09:54Z</time>
      </trkpt>
      <trkpt lat="46.10806" lon="5.96124">
        <ele>471.9</ele>
        <time>2022-09-27T11:09:55Z</time>
      </trkpt>
      <trkpt lat="46.10807" lon="5.96129">
        <ele>471.9</ele>
        <time>2022-09-27T11:09:56Z</time>
      </trkpt>
      <trkpt lat="46.10808" lon="5.96135">
        <ele>472</ele>
        <time>2022-09-27T11:09:57Z</time>
      </trkpt>
      <trkpt lat="46.10809" lon="5.96141">
        <ele>472</ele>
        <time>2022-09-27T11:09:58Z</time>
      </trkpt>
      <trkpt lat="46.1081" lon="5.96147">
        <ele>472</ele>
        <time>2022-09-27T11:09:59Z</time>
      </trkpt>
      <trkpt lat="46.10811" lon="5.96153">
        <ele>472</ele>
        <time>2022-09-27T11:10:00Z</time>
      </trkpt>
      <trkpt lat="46.10812" lon="5.9616">
        <ele>471.9</ele>
        <time>2022-09-27T11:10:01Z</time>
      </trkpt>
      <trkpt lat="46.10814" lon="5.96166">
        <ele>471.9</ele>
        <time>2022-09-27T11:10:02Z</time>
      </trkpt>
      <trkpt lat="46.10815" lon="5.96172">
        <ele>471.8</ele>
        <time>2022-09-27T11:10:03Z</time>
      </trkpt>
      <trkpt lat="46.10816" lon="5.96179">
        <ele>471.7</ele>
        <time>2022-09-27T11:10:04Z</time>
      </trkpt>
      <trkpt lat="46.10818" lon="5.96186">
        <ele>471.7</ele>
        <time>2022-09-27T11:10:05Z</time>
      </trkpt>
      <trkpt lat="46.10819" lon="5.96192">
        <ele>471.6</ele>
        <time>2022-09-27T11:10:06Z</time>
      </trkpt>
      <trkpt lat="46.1082" lon="5.96198">
        <ele>471.6</ele>
        <time>2022-09-27T11:10:07Z</time>
      </trkpt>
      <trkpt lat="46.10821" lon="5.96205">
        <ele>471.5</ele>
        <time>2022-09-27T11:10:08Z</time>
      </trkpt>
      <trkpt lat="46.10822" lon="5.96212">
        <ele>471.5</ele>
        <time>2022-09-27T11:10:09Z</time>
      </trkpt>
      <trkpt lat="46.10824" lon="5.96219">
        <ele>471.4</ele>
        <time>2022-09-27T11:10:10Z</time>
      </trkpt>
      <trkpt lat="46.10826" lon="5.96226">
        <ele>471.3</ele>
        <time>2022-09-27T11:10:11Z</time>
      </trkpt>
      <trkpt lat="46.10827" lon="5.96233">
        <ele>471.2</ele>
        <time>2022-09-27T11:10:12Z</time>
      </trkpt>
      <trkpt lat="46.10828" lon="5.96239">
        <ele>471.1</ele>
        <time>2022-09-27T11:10:13Z</time>
      </trkpt>
      <trkpt lat="46.10829" lon="5.96246">
        <ele>471</ele>
        <time>2022-09-27T11:10:14Z</time>
      </trkpt>
      <trkpt lat="46.1083" lon="5.96253">
        <ele>471</ele>
        <time>2022-09-27T11:10:15Z</time>
      </trkpt>
      <trkpt lat="46.10832" lon="5.9626">
        <ele>470.9</ele>
        <time>2022-09-27T11:10:17Z</time>
      </trkpt>
      <trkpt lat="46.10833" lon="5.96267">
        <ele>470.8</ele>
        <time>2022-09-27T11:10:18Z</time>
      </trkpt>
      <trkpt lat="46.10834" lon="5.96273">
        <ele>470.7</ele>
        <time>2022-09-27T11:10:19Z</time>
      </trkpt>
      <trkpt lat="46.10836" lon="5.96279">
        <ele>470.5</ele>
        <time>2022-09-27T11:10:20Z</time>
      </trkpt>
      <trkpt lat="46.10837" lon="5.96285">
        <ele>470.4</ele>
        <time>2022-09-27T11:10:21Z</time>
      </trkpt>
      <trkpt lat="46.10838" lon="5.96291">
        <ele>470.4</ele>
        <time>2022-09-27T11:10:22Z</time>
      </trkpt>
      <trkpt lat="46.10839" lon="5.96296">
        <ele>470.3</ele>
        <time>2022-09-27T11:10:23Z</time>
      </trkpt>
      <trkpt lat="46.1084" lon="5.96301">
        <ele>470.3</ele>
        <time>2022-09-27T11:10:24Z</time>
      </trkpt>
      <trkpt lat="46.10841" lon="5.96305">
        <ele>470.2</ele>
        <time>2022-09-27T11:10:25Z</time>
      </trkpt>
      <trkpt lat="46.10842" lon="5.9631">
        <ele>470.2</ele>
        <time>2022-09-27T11:10:26Z</time>
      </trkpt>
      <trkpt lat="46.10843" lon="5.96311">
        <ele>470.2</ele>
        <time>2022-09-27T11:10:27Z</time>
      </trkpt>
      <trkpt lat="46.10844" lon="5.96316">
        <ele>470.2</ele>
        <time>2022-09-27T11:10:28Z</time>
      </trkpt>
      <trkpt lat="46.10845" lon="5.96319">
        <ele>470.2</ele>
        <time>2022-09-27T11:10:29Z</time>
      </trkpt>
      <trkpt lat="46.10846" lon="5.96325">
        <ele>470.3</ele>
        <time>2022-09-27T11:10:30Z</time>
      </trkpt>
      <trkpt lat="46.10846" lon="5.96327">
        <ele>470.3</ele>
        <time>2022-09-27T11:10:31Z</time>
      </trkpt>
      <trkpt lat="46.10847" lon="5.96331">
        <ele>470.3</ele>
        <time>2022-09-27T11:10:32Z</time>
      </trkpt>
      <trkpt lat="46.10849" lon="5.96336">
        <ele>470.4</ele>
        <time>2022-09-27T11:10:33Z</time>
      </trkpt>
      <trkpt lat="46.1085" lon="5.9634">
        <ele>470.5</ele>
        <time>2022-09-27T11:10:34Z</time>
      </trkpt>
      <trkpt lat="46.10851" lon="5.96346">
        <ele>470.6</ele>
        <time>2022-09-27T11:10:35Z</time>
      </trkpt>
      <trkpt lat="46.10851" lon="5.96351">
        <ele>470.7</ele>
        <time>2022-09-27T11:10:36Z</time>
      </trkpt>
      <trkpt lat="46.10852" lon="5.96353">
        <ele>470.8</ele>
        <time>2022-09-27T11:10:37Z</time>
      </trkpt>
      <trkpt lat="46.10853" lon="5.96358">
        <ele>470.8</ele>
        <time>2022-09-27T11:10:38Z</time>
      </trkpt>
      <trkpt lat="46.10854" lon="5.96364">
        <ele>471</ele>
        <time>2022-09-27T11:10:39Z</time>
      </trkpt>
      <trkpt lat="46.10854" lon="5.96368">
        <ele>471</ele>
        <time>2022-09-27T11:10:40Z</time>
      </trkpt>
      <trkpt lat="46.10854" lon="5.9637">
        <ele>471.1</ele>
        <time>2022-09-27T11:10:41Z</time>
      </trkpt>
      <trkpt lat="46.10853" lon="5.96373">
        <ele>471.4</ele>
        <time>2022-09-27T11:10:42Z</time>
      </trkpt>
      <trkpt lat="46.10852" lon="5.96374">
        <ele>471.5</ele>
        <time>2022-09-27T11:10:43Z</time>
      </trkpt>
      <trkpt lat="46.10848" lon="5.96375">
        <ele>471.8</ele>
        <time>2022-09-27T11:10:44Z</time>
      </trkpt>
      <trkpt lat="46.10847" lon="5.96375">
        <ele>471.9</ele>
        <time>2022-09-27T11:10:45Z</time>
      </trkpt>
      <trkpt lat="46.10845" lon="5.96376">
        <ele>472.2</ele>
        <time>2022-09-27T11:10:46Z</time>
      </trkpt>
      <trkpt lat="46.10844" lon="5.96377">
        <ele>472.2</ele>
        <time>2022-09-27T11:10:47Z</time>
      </trkpt>
      <trkpt lat="46.1084" lon="5.96379">
        <ele>472.4</ele>
        <time>2022-09-27T11:10:48Z</time>
      </trkpt>
      <trkpt lat="46.10839" lon="5.9638">
        <ele>472.4</ele>
        <time>2022-09-27T11:10:49Z</time>
      </trkpt>
      <trkpt lat="46.10836" lon="5.96381">
        <ele>472.6</ele>
        <time>2022-09-27T11:10:50Z</time>
      </trkpt>
      <trkpt lat="46.10834" lon="5.96381">
        <ele>472.6</ele>
        <time>2022-09-27T11:10:51Z</time>
      </trkpt>
      <trkpt lat="46.10831" lon="5.96383">
        <ele>472.8</ele>
        <time>2022-09-27T11:10:52Z</time>
      </trkpt>
      <trkpt lat="46.10829" lon="5.96383">
        <ele>472.9</ele>
        <time>2022-09-27T11:10:53Z</time>
      </trkpt>
      <trkpt lat="46.10826" lon="5.96384">
        <ele>473</ele>
        <time>2022-09-27T11:10:54Z</time>
      </trkpt>
      <trkpt lat="46.10823" lon="5.96386">
        <ele>473.2</ele>
        <time>2022-09-27T11:10:55Z</time>
      </trkpt>
      <trkpt lat="46.10821" lon="5.96387">
        <ele>473.3</ele>
        <time>2022-09-27T11:10:56Z</time>
      </trkpt>
      <trkpt lat="46.10817" lon="5.96388">
        <ele>473.5</ele>
        <time>2022-09-27T11:10:57Z</time>
      </trkpt>
      <trkpt lat="46.10816" lon="5.96389">
        <ele>473.6</ele>
        <time>2022-09-27T11:10:58Z</time>
      </trkpt>
      <trkpt lat="46.10813" lon="5.9639">
        <ele>473.8</ele>
        <time>2022-09-27T11:10:59Z</time>
      </trkpt>
      <trkpt lat="46.10812" lon="5.96391">
        <ele>473.8</ele>
        <time>2022-09-27T11:11:00Z</time>
      </trkpt>
      <trkpt lat="46.10809" lon="5.96391">
        <ele>474</ele>
        <time>2022-09-27T11:11:01Z</time>
      </trkpt>
      <trkpt lat="46.10808" lon="5.96392">
        <ele>474.1</ele>
        <time>2022-09-27T11:11:02Z</time>
      </trkpt>
      <trkpt lat="46.10804" lon="5.96393">
        <ele>474.3</ele>
        <time>2022-09-27T11:11:03Z</time>
      </trkpt>
      <trkpt lat="46.10803" lon="5.96394">
        <ele>474.3</ele>
        <time>2022-09-27T11:11:04Z</time>
      </trkpt>
      <trkpt lat="46.108" lon="5.96395">
        <ele>474.5</ele>
        <time>2022-09-27T11:11:05Z</time>
      </trkpt>
      <trkpt lat="46.10799" lon="5.96396">
        <ele>474.6</ele>
        <time>2022-09-27T11:11:06Z</time>
      </trkpt>
      <trkpt lat="46.10796" lon="5.96397">
        <ele>474.8</ele>
        <time>2022-09-27T11:11:07Z</time>
      </trkpt>
      <trkpt lat="46.10795" lon="5.96398">
        <ele>474.8</ele>
        <time>2022-09-27T11:11:08Z</time>
      </trkpt>
      <trkpt lat="46.10791" lon="5.96398">
        <ele>475</ele>
        <time>2022-09-27T11:11:09Z</time>
      </trkpt>
      <trkpt lat="46.1079" lon="5.96398">
        <ele>475.1</ele>
        <time>2022-09-27T11:11:10Z</time>
      </trkpt>
      <trkpt lat="46.10786" lon="5.96396">
        <ele>475.3</ele>
        <time>2022-09-27T11:11:11Z</time>
      </trkpt>
      <trkpt lat="46.10785" lon="5.96396">
        <ele>475.2</ele>
        <time>2022-09-27T11:11:12Z</time>
      </trkpt>
      <trkpt lat="46.10783" lon="5.96394">
        <ele>475.1</ele>
        <time>2022-09-27T11:11:13Z</time>
      </trkpt>
      <trkpt lat="46.1078" lon="5.96392">
        <ele>475.1</ele>
        <time>2022-09-27T11:11:14Z</time>
      </trkpt>
      <trkpt lat="46.10778" lon="5.96387">
        <ele>475.1</ele>
        <time>2022-09-27T11:11:15Z</time>
      </trkpt>
      <trkpt lat="46.10777" lon="5.96385">
        <ele>475.1</ele>
        <time>2022-09-27T11:11:16Z</time>
      </trkpt>
      <trkpt lat="46.10774" lon="5.9638">
        <ele>475</ele>
        <time>2022-09-27T11:11:17Z</time>
      </trkpt>
      <trkpt lat="46.10772" lon="5.96375">
        <ele>475</ele>
        <time>2022-09-27T11:11:18Z</time>
      </trkpt>
      <trkpt lat="46.10769" lon="5.96371">
        <ele>475</ele>
        <time>2022-09-27T11:11:19Z</time>
      </trkpt>
      <trkpt lat="46.10765" lon="5.96367">
        <ele>475</ele>
        <time>2022-09-27T11:11:20Z</time>
      </trkpt>
      <trkpt lat="46.10762" lon="5.96363">
        <ele>475</ele>
        <time>2022-09-27T11:11:21Z</time>
      </trkpt>
      <trkpt lat="46.10758" lon="5.9636">
        <ele>475.1</ele>
        <time>2022-09-27T11:11:22Z</time>
      </trkpt>
      <trkpt lat="46.10755" lon="5.96359">
        <ele>475.1</ele>
        <time>2022-09-27T11:11:23Z</time>
      </trkpt>
      <trkpt lat="46.10751" lon="5.96358">
        <ele>475.2</ele>
        <time>2022-09-27T11:11:24Z</time>
      </trkpt>
      <trkpt lat="46.1075" lon="5.96358">
        <ele>475.2</ele>
        <time>2022-09-27T11:11:25Z</time>
      </trkpt>
      <trkpt lat="46.10746" lon="5.96357">
        <ele>475.3</ele>
        <time>2022-09-27T11:11:26Z</time>
      </trkpt>
      <trkpt lat="46.10742" lon="5.96357">
        <ele>475.4</ele>
        <time>2022-09-27T11:11:27Z</time>
      </trkpt>
      <trkpt lat="46.10741" lon="5.96357">
        <ele>475.5</ele>
        <time>2022-09-27T11:11:28Z</time>
      </trkpt>
      <trkpt lat="46.10737" lon="5.96359">
        <ele>475.6</ele>
        <time>2022-09-27T11:11:29Z</time>
      </trkpt>
      <trkpt lat="46.10735" lon="5.96359">
        <ele>475.6</ele>
        <time>2022-09-27T11:11:30Z</time>
      </trkpt>
      <trkpt lat="46.10733" lon="5.9636">
        <ele>475.7</ele>
        <time>2022-09-27T11:11:31Z</time>
      </trkpt>
      <trkpt lat="46.10729" lon="5.96362">
        <ele>475.9</ele>
        <time>2022-09-27T11:11:32Z</time>
      </trkpt>
      <trkpt lat="46.10727" lon="5.96363">
        <ele>476</ele>
        <time>2022-09-27T11:11:33Z</time>
      </trkpt>
      <trkpt lat="46.10723" lon="5.96365">
        <ele>476.1</ele>
        <time>2022-09-27T11:11:34Z</time>
      </trkpt>
      <trkpt lat="46.10721" lon="5.96366">
        <ele>476.2</ele>
        <time>2022-09-27T11:11:35Z</time>
      </trkpt>
      <trkpt lat="46.10718" lon="5.96367">
        <ele>476.3</ele>
        <time>2022-09-27T11:11:36Z</time>
      </trkpt>
      <trkpt lat="46.10715" lon="5.96369">
        <ele>476.4</ele>
        <time>2022-09-27T11:11:37Z</time>
      </trkpt>
      <trkpt lat="46.10713" lon="5.96371">
        <ele>476.5</ele>
        <time>2022-09-27T11:11:38Z</time>
      </trkpt>
      <trkpt lat="46.10711" lon="5.96374">
        <ele>476.6</ele>
        <time>2022-09-27T11:11:39Z</time>
      </trkpt>
      <trkpt lat="46.10707" lon="5.96375">
        <ele>476.6</ele>
        <time>2022-09-27T11:11:40Z</time>
      </trkpt>
      <trkpt lat="46.10704" lon="5.96377">
        <ele>476.7</ele>
        <time>2022-09-27T11:11:41Z</time>
      </trkpt>
      <trkpt lat="46.10701" lon="5.96378">
        <ele>476.8</ele>
        <time>2022-09-27T11:11:42Z</time>
      </trkpt>
      <trkpt lat="46.10699" lon="5.9638">
        <ele>476.8</ele>
        <time>2022-09-27T11:11:43Z</time>
      </trkpt>
      <trkpt lat="46.10697" lon="5.96382">
        <ele>477</ele>
        <time>2022-09-27T11:11:44Z</time>
      </trkpt>
      <trkpt lat="46.10694" lon="5.96384">
        <ele>477.1</ele>
        <time>2022-09-27T11:11:45Z</time>
      </trkpt>
      <trkpt lat="46.1069" lon="5.96386">
        <ele>477.3</ele>
        <time>2022-09-27T11:11:46Z</time>
      </trkpt>
      <trkpt lat="46.10689" lon="5.96387">
        <ele>477.4</ele>
        <time>2022-09-27T11:11:47Z</time>
      </trkpt>
      <trkpt lat="46.10686" lon="5.96389">
        <ele>477.5</ele>
        <time>2022-09-27T11:11:48Z</time>
      </trkpt>
      <trkpt lat="46.10684" lon="5.9639">
        <ele>477.6</ele>
        <time>2022-09-27T11:11:49Z</time>
      </trkpt>
      <trkpt lat="46.10681" lon="5.96392">
        <ele>477.8</ele>
        <time>2022-09-27T11:11:50Z</time>
      </trkpt>
      <trkpt lat="46.1068" lon="5.96393">
        <ele>477.9</ele>
        <time>2022-09-27T11:11:51Z</time>
      </trkpt>
      <trkpt lat="46.10677" lon="5.96395">
        <ele>478</ele>
        <time>2022-09-27T11:11:52Z</time>
      </trkpt>
      <trkpt lat="46.10676" lon="5.96396">
        <ele>478.1</ele>
        <time>2022-09-27T11:11:53Z</time>
      </trkpt>
      <trkpt lat="46.10672" lon="5.96397">
        <ele>478.3</ele>
        <time>2022-09-27T11:11:54Z</time>
      </trkpt>
      <trkpt lat="46.10672" lon="5.96398">
        <ele>478.3</ele>
        <time>2022-09-27T11:11:55Z</time>
      </trkpt>
      <trkpt lat="46.10669" lon="5.96401">
        <ele>478.5</ele>
        <time>2022-09-27T11:11:56Z</time>
      </trkpt>
      <trkpt lat="46.10667" lon="5.96402">
        <ele>478.6</ele>
        <time>2022-09-27T11:11:57Z</time>
      </trkpt>
      <trkpt lat="46.10665" lon="5.96403">
        <ele>478.7</ele>
        <time>2022-09-27T11:11:58Z</time>
      </trkpt>
      <trkpt lat="46.10662" lon="5.96404">
        <ele>478.9</ele>
        <time>2022-09-27T11:11:59Z</time>
      </trkpt>
      <trkpt lat="46.10659" lon="5.96405">
        <ele>479</ele>
        <time>2022-09-27T11:12:00Z</time>
      </trkpt>
      <trkpt lat="46.10658" lon="5.96405">
        <ele>479</ele>
        <time>2022-09-27T11:12:01Z</time>
      </trkpt>
      <trkpt lat="46.10655" lon="5.96404">
        <ele>479.2</ele>
        <time>2022-09-27T11:12:02Z</time>
      </trkpt>
      <trkpt lat="46.10654" lon="5.96404">
        <ele>479.2</ele>
        <time>2022-09-27T11:12:03Z</time>
      </trkpt>
      <trkpt lat="46.10652" lon="5.96404">
        <ele>479.3</ele>
        <time>2022-09-27T11:12:04Z</time>
      </trkpt>
      <trkpt lat="46.10651" lon="5.96404">
        <ele>479.3</ele>
        <time>2022-09-27T11:12:05Z</time>
      </trkpt>
      <trkpt lat="46.10649" lon="5.96405">
        <ele>479.4</ele>
        <time>2022-09-27T11:12:06Z</time>
      </trkpt>
      <trkpt lat="46.10648" lon="5.96406">
        <ele>479.5</ele>
        <time>2022-09-27T11:12:07Z</time>
      </trkpt>
      <trkpt lat="46.10647" lon="5.96407">
        <ele>479.6</ele>
        <time>2022-09-27T11:12:08Z</time>
      </trkpt>
      <trkpt lat="46.10645" lon="5.96408">
        <ele>479.7</ele>
        <time>2022-09-27T11:12:09Z</time>
      </trkpt>
      <trkpt lat="46.10644" lon="5.96409">
        <ele>479.9</ele>
        <time>2022-09-27T11:12:10Z</time>
      </trkpt>
      <trkpt lat="46.10643" lon="5.9641">
        <ele>480.1</ele>
        <time>2022-09-27T11:12:11Z</time>
      </trkpt>
      <trkpt lat="46.10641" lon="5.96411">
        <ele>480.3</ele>
        <time>2022-09-27T11:12:12Z</time>
      </trkpt>
      <trkpt lat="46.1064" lon="5.96412">
        <ele>480.4</ele>
        <time>2022-09-27T11:12:13Z</time>
      </trkpt>
      <trkpt lat="46.10639" lon="5.96412">
        <ele>480.5</ele>
        <time>2022-09-27T11:12:14Z</time>
      </trkpt>
      <trkpt lat="46.10637" lon="5.96413">
        <ele>480.7</ele>
        <time>2022-09-27T11:12:15Z</time>
      </trkpt>
      <trkpt lat="46.10635" lon="5.96413">
        <ele>481</ele>
        <time>2022-09-27T11:12:16Z</time>
      </trkpt>
      <trkpt lat="46.10634" lon="5.96413">
        <ele>481.1</ele>
        <time>2022-09-27T11:12:17Z</time>
      </trkpt>
      <trkpt lat="46.10633" lon="5.96413">
        <ele>482.1</ele>
        <time>2022-09-27T11:12:18Z</time>
      </trkpt>
      <trkpt lat="46.10631" lon="5.9641">
        <ele>482.1</ele>
        <time>2022-09-27T11:12:19Z</time>
      </trkpt>
      <trkpt lat="46.10631" lon="5.96409">
        <ele>482.1</ele>
        <time>2022-09-27T11:12:20Z</time>
      </trkpt>
      <trkpt lat="46.1063" lon="5.96406">
        <ele>482.1</ele>
        <time>2022-09-27T11:12:21Z</time>
      </trkpt>
      <trkpt lat="46.10628" lon="5.964">
        <ele>482.2</ele>
        <time>2022-09-27T11:12:23Z</time>
      </trkpt>
      <trkpt lat="46.10625" lon="5.96392">
        <ele>482.2</ele>
        <time>2022-09-27T11:12:25Z</time>
      </trkpt>
      <trkpt lat="46.10622" lon="5.96384">
        <ele>482.2</ele>
        <time>2022-09-27T11:12:27Z</time>
      </trkpt>
      <trkpt lat="46.1062" lon="5.9638">
        <ele>482.3</ele>
        <time>2022-09-27T11:12:29Z</time>
      </trkpt>
      <trkpt lat="46.10619" lon="5.96375">
        <ele>482.3</ele>
        <time>2022-09-27T11:12:30Z</time>
      </trkpt>
      <trkpt lat="46.10618" lon="5.96371">
        <ele>482.4</ele>
        <time>2022-09-27T11:12:31Z</time>
      </trkpt>
      <trkpt lat="46.10616" lon="5.96366">
        <ele>482.4</ele>
        <time>2022-09-27T11:12:32Z</time>
      </trkpt>
      <trkpt lat="46.10614" lon="5.96361">
        <ele>482.4</ele>
        <time>2022-09-27T11:12:33Z</time>
      </trkpt>
      <trkpt lat="46.10613" lon="5.96356">
        <ele>482.4</ele>
        <time>2022-09-27T11:12:34Z</time>
      </trkpt>
      <trkpt lat="46.10611" lon="5.96352">
        <ele>482.4</ele>
        <time>2022-09-27T11:12:35Z</time>
      </trkpt>
      <trkpt lat="46.1061" lon="5.96348">
        <ele>482.4</ele>
        <time>2022-09-27T11:12:36Z</time>
      </trkpt>
      <trkpt lat="46.10609" lon="5.96344">
        <ele>482.4</ele>
        <time>2022-09-27T11:12:37Z</time>
      </trkpt>
      <trkpt lat="46.10608" lon="5.96339">
        <ele>482.4</ele>
        <time>2022-09-27T11:12:38Z</time>
      </trkpt>
      <trkpt lat="46.10607" lon="5.96336">
        <ele>482.4</ele>
        <time>2022-09-27T11:12:39Z</time>
      </trkpt>
      <trkpt lat="46.10605" lon="5.96332">
        <ele>482.5</ele>
        <time>2022-09-27T11:12:40Z</time>
      </trkpt>
      <trkpt lat="46.10604" lon="5.96327">
        <ele>482.5</ele>
        <time>2022-09-27T11:12:41Z</time>
      </trkpt>
      <trkpt lat="46.106" lon="5.96318">
        <ele>482.5</ele>
        <time>2022-09-27T11:12:42Z</time>
      </trkpt>
      <trkpt lat="46.10599" lon="5.96314">
        <ele>482.5</ele>
        <time>2022-09-27T11:12:43Z</time>
      </trkpt>
      <trkpt lat="46.10598" lon="5.96309">
        <ele>482.5</ele>
        <time>2022-09-27T11:12:44Z</time>
      </trkpt>
      <trkpt lat="46.10596" lon="5.96305">
        <ele>482.6</ele>
        <time>2022-09-27T11:12:45Z</time>
      </trkpt>
      <trkpt lat="46.10594" lon="5.96301">
        <ele>482.6</ele>
        <time>2022-09-27T11:12:46Z</time>
      </trkpt>
      <trkpt lat="46.10593" lon="5.96296">
        <ele>482.6</ele>
        <time>2022-09-27T11:12:47Z</time>
      </trkpt>
      <trkpt lat="46.10592" lon="5.96292">
        <ele>482.6</ele>
        <time>2022-09-27T11:12:48Z</time>
      </trkpt>
      <trkpt lat="46.10591" lon="5.96288">
        <ele>482.6</ele>
        <time>2022-09-27T11:12:49Z</time>
      </trkpt>
      <trkpt lat="46.10589" lon="5.96283">
        <ele>482.7</ele>
        <time>2022-09-27T11:12:50Z</time>
      </trkpt>
      <trkpt lat="46.10588" lon="5.9628">
        <ele>482.7</ele>
        <time>2022-09-27T11:12:51Z</time>
      </trkpt>
      <trkpt lat="46.10587" lon="5.96275">
        <ele>482.7</ele>
        <time>2022-09-27T11:12:52Z</time>
      </trkpt>
      <trkpt lat="46.10586" lon="5.96271">
        <ele>482.7</ele>
        <time>2022-09-27T11:12:53Z</time>
      </trkpt>
      <trkpt lat="46.10584" lon="5.96266">
        <ele>482.8</ele>
        <time>2022-09-27T11:12:54Z</time>
      </trkpt>
      <trkpt lat="46.10583" lon="5.96264">
        <ele>482.8</ele>
        <time>2022-09-27T11:12:55Z</time>
      </trkpt>
      <trkpt lat="46.10582" lon="5.9626">
        <ele>482.8</ele>
        <time>2022-09-27T11:12:56Z</time>
      </trkpt>
      <trkpt lat="46.10581" lon="5.96255">
        <ele>482.8</ele>
        <time>2022-09-27T11:12:57Z</time>
      </trkpt>
      <trkpt lat="46.1058" lon="5.96252">
        <ele>482.8</ele>
        <time>2022-09-27T11:12:58Z</time>
      </trkpt>
      <trkpt lat="46.10578" lon="5.96246">
        <ele>482.9</ele>
        <time>2022-09-27T11:12:59Z</time>
      </trkpt>
      <trkpt lat="46.10577" lon="5.96244">
        <ele>482.9</ele>
        <time>2022-09-27T11:13:00Z</time>
      </trkpt>
      <trkpt lat="46.10576" lon="5.96239">
        <ele>482.9</ele>
        <time>2022-09-27T11:13:01Z</time>
      </trkpt>
      <trkpt lat="46.10575" lon="5.96235">
        <ele>483</ele>
        <time>2022-09-27T11:13:02Z</time>
      </trkpt>
      <trkpt lat="46.10574" lon="5.9623">
        <ele>483</ele>
        <time>2022-09-27T11:13:03Z</time>
      </trkpt>
      <trkpt lat="46.10572" lon="5.96225">
        <ele>483.1</ele>
        <time>2022-09-27T11:13:04Z</time>
      </trkpt>
      <trkpt lat="46.10572" lon="5.96223">
        <ele>483.1</ele>
        <time>2022-09-27T11:13:05Z</time>
      </trkpt>
      <trkpt lat="46.1057" lon="5.96218">
        <ele>483.1</ele>
        <time>2022-09-27T11:13:06Z</time>
      </trkpt>
      <trkpt lat="46.10569" lon="5.96214">
        <ele>483.2</ele>
        <time>2022-09-27T11:13:07Z</time>
      </trkpt>
      <trkpt lat="46.10567" lon="5.96209">
        <ele>483.2</ele>
        <time>2022-09-27T11:13:08Z</time>
      </trkpt>
      <trkpt lat="46.10566" lon="5.96205">
        <ele>483.2</ele>
        <time>2022-09-27T11:13:09Z</time>
      </trkpt>
      <trkpt lat="46.10564" lon="5.962">
        <ele>483.3</ele>
        <time>2022-09-27T11:13:10Z</time>
      </trkpt>
      <trkpt lat="46.10563" lon="5.96196">
        <ele>483.3</ele>
        <time>2022-09-27T11:13:11Z</time>
      </trkpt>
      <trkpt lat="46.10562" lon="5.96192">
        <ele>483.3</ele>
        <time>2022-09-27T11:13:12Z</time>
      </trkpt>
      <trkpt lat="46.1056" lon="5.96187">
        <ele>483.4</ele>
        <time>2022-09-27T11:13:13Z</time>
      </trkpt>
      <trkpt lat="46.10559" lon="5.96183">
        <ele>483.4</ele>
        <time>2022-09-27T11:13:14Z</time>
      </trkpt>
      <trkpt lat="46.10557" lon="5.96178">
        <ele>483.5</ele>
        <time>2022-09-27T11:13:15Z</time>
      </trkpt>
      <trkpt lat="46.10556" lon="5.96173">
        <ele>483.5</ele>
        <time>2022-09-27T11:13:16Z</time>
      </trkpt>
      <trkpt lat="46.10554" lon="5.96168">
        <ele>483.6</ele>
        <time>2022-09-27T11:13:17Z</time>
      </trkpt>
      <trkpt lat="46.10552" lon="5.96164">
        <ele>483.6</ele>
        <time>2022-09-27T11:13:18Z</time>
      </trkpt>
      <trkpt lat="46.10551" lon="5.9616">
        <ele>483.7</ele>
        <time>2022-09-27T11:13:19Z</time>
      </trkpt>
      <trkpt lat="46.10549" lon="5.96156">
        <ele>483.7</ele>
        <time>2022-09-27T11:13:20Z</time>
      </trkpt>
      <trkpt lat="46.10548" lon="5.96151">
        <ele>483.8</ele>
        <time>2022-09-27T11:13:21Z</time>
      </trkpt>
      <trkpt lat="46.10547" lon="5.96147">
        <ele>483.8</ele>
        <time>2022-09-27T11:13:22Z</time>
      </trkpt>
      <trkpt lat="46.10545" lon="5.96143">
        <ele>483.9</ele>
        <time>2022-09-27T11:13:23Z</time>
      </trkpt>
      <trkpt lat="46.10544" lon="5.96138">
        <ele>483.9</ele>
        <time>2022-09-27T11:13:24Z</time>
      </trkpt>
      <trkpt lat="46.10543" lon="5.96134">
        <ele>483.9</ele>
        <time>2022-09-27T11:13:25Z</time>
      </trkpt>
      <trkpt lat="46.10542" lon="5.96129">
        <ele>483.9</ele>
        <time>2022-09-27T11:13:26Z</time>
      </trkpt>
      <trkpt lat="46.1054" lon="5.96125">
        <ele>484</ele>
        <time>2022-09-27T11:13:27Z</time>
      </trkpt>
      <trkpt lat="46.10539" lon="5.9612">
        <ele>484</ele>
        <time>2022-09-27T11:13:28Z</time>
      </trkpt>
      <trkpt lat="46.10537" lon="5.96115">
        <ele>484</ele>
        <time>2022-09-27T11:13:29Z</time>
      </trkpt>
      <trkpt lat="46.10536" lon="5.96111">
        <ele>484.1</ele>
        <time>2022-09-27T11:13:30Z</time>
      </trkpt>
      <trkpt lat="46.10535" lon="5.96106">
        <ele>484.1</ele>
        <time>2022-09-27T11:13:31Z</time>
      </trkpt>
      <trkpt lat="46.10533" lon="5.96102">
        <ele>484.1</ele>
        <time>2022-09-27T11:13:32Z</time>
      </trkpt>
      <trkpt lat="46.10532" lon="5.96098">
        <ele>484.2</ele>
        <time>2022-09-27T11:13:33Z</time>
      </trkpt>
      <trkpt lat="46.10531" lon="5.96093">
        <ele>484.2</ele>
        <time>2022-09-27T11:13:34Z</time>
      </trkpt>
      <trkpt lat="46.10529" lon="5.96089">
        <ele>484.2</ele>
        <time>2022-09-27T11:13:35Z</time>
      </trkpt>
      <trkpt lat="46.10528" lon="5.96084">
        <ele>484.2</ele>
        <time>2022-09-27T11:13:36Z</time>
      </trkpt>
      <trkpt lat="46.10527" lon="5.96079">
        <ele>484.3</ele>
        <time>2022-09-27T11:13:37Z</time>
      </trkpt>
      <trkpt lat="46.10526" lon="5.96075">
        <ele>484.3</ele>
        <time>2022-09-27T11:13:38Z</time>
      </trkpt>
      <trkpt lat="46.10525" lon="5.96071">
        <ele>484.3</ele>
        <time>2022-09-27T11:13:39Z</time>
      </trkpt>
      <trkpt lat="46.10523" lon="5.96067">
        <ele>484.4</ele>
        <time>2022-09-27T11:13:40Z</time>
      </trkpt>
      <trkpt lat="46.10522" lon="5.96062">
        <ele>484.4</ele>
        <time>2022-09-27T11:13:41Z</time>
      </trkpt>
      <trkpt lat="46.10521" lon="5.96058">
        <ele>484.4</ele>
        <time>2022-09-27T11:13:42Z</time>
      </trkpt>
      <trkpt lat="46.1052" lon="5.96053">
        <ele>484.4</ele>
        <time>2022-09-27T11:13:43Z</time>
      </trkpt>
      <trkpt lat="46.10519" lon="5.96049">
        <ele>484.4</ele>
        <time>2022-09-27T11:13:44Z</time>
      </trkpt>
      <trkpt lat="46.10518" lon="5.96045">
        <ele>484.4</ele>
        <time>2022-09-27T11:13:45Z</time>
      </trkpt>
      <trkpt lat="46.10516" lon="5.9604">
        <ele>484.4</ele>
        <time>2022-09-27T11:13:46Z</time>
      </trkpt>
      <trkpt lat="46.10514" lon="5.96035">
        <ele>484.4</ele>
        <time>2022-09-27T11:13:47Z</time>
      </trkpt>
      <trkpt lat="46.10513" lon="5.9603">
        <ele>484.5</ele>
        <time>2022-09-27T11:13:48Z</time>
      </trkpt>
      <trkpt lat="46.10511" lon="5.96025">
        <ele>484.5</ele>
        <time>2022-09-27T11:13:49Z</time>
      </trkpt>
      <trkpt lat="46.1051" lon="5.96021">
        <ele>484.5</ele>
        <time>2022-09-27T11:13:50Z</time>
      </trkpt>
      <trkpt lat="46.10509" lon="5.96017">
        <ele>484.5</ele>
        <time>2022-09-27T11:13:51Z</time>
      </trkpt>
      <trkpt lat="46.10507" lon="5.96012">
        <ele>484.5</ele>
        <time>2022-09-27T11:13:52Z</time>
      </trkpt>
      <trkpt lat="46.10506" lon="5.9601">
        <ele>484.5</ele>
        <time>2022-09-27T11:13:53Z</time>
      </trkpt>
      <trkpt lat="46.10505" lon="5.96004">
        <ele>484.6</ele>
        <time>2022-09-27T11:13:54Z</time>
      </trkpt>
      <trkpt lat="46.10503" lon="5.96">
        <ele>484.6</ele>
        <time>2022-09-27T11:13:55Z</time>
      </trkpt>
      <trkpt lat="46.10502" lon="5.95996">
        <ele>484.6</ele>
        <time>2022-09-27T11:13:56Z</time>
      </trkpt>
      <trkpt lat="46.105" lon="5.95991">
        <ele>484.7</ele>
        <time>2022-09-27T11:13:57Z</time>
      </trkpt>
      <trkpt lat="46.10499" lon="5.95985">
        <ele>484.7</ele>
        <time>2022-09-27T11:13:58Z</time>
      </trkpt>
      <trkpt lat="46.10497" lon="5.9598">
        <ele>484.7</ele>
        <time>2022-09-27T11:13:59Z</time>
      </trkpt>
      <trkpt lat="46.10496" lon="5.95975">
        <ele>484.8</ele>
        <time>2022-09-27T11:14:00Z</time>
      </trkpt>
      <trkpt lat="46.10495" lon="5.95969">
        <ele>484.8</ele>
        <time>2022-09-27T11:14:01Z</time>
      </trkpt>
      <trkpt lat="46.10493" lon="5.95964">
        <ele>484.8</ele>
        <time>2022-09-27T11:14:02Z</time>
      </trkpt>
      <trkpt lat="46.10492" lon="5.95959">
        <ele>484.9</ele>
        <time>2022-09-27T11:14:03Z</time>
      </trkpt>
      <trkpt lat="46.1049" lon="5.95954">
        <ele>484.9</ele>
        <time>2022-09-27T11:14:04Z</time>
      </trkpt>
      <trkpt lat="46.10488" lon="5.95948">
        <ele>484.9</ele>
        <time>2022-09-27T11:14:05Z</time>
      </trkpt>
      <trkpt lat="46.10487" lon="5.95943">
        <ele>485</ele>
        <time>2022-09-27T11:14:06Z</time>
      </trkpt>
      <trkpt lat="46.10486" lon="5.95938">
        <ele>485</ele>
        <time>2022-09-27T11:14:07Z</time>
      </trkpt>
      <trkpt lat="46.10486" lon="5.95933">
        <ele>485</ele>
        <time>2022-09-27T11:14:08Z</time>
      </trkpt>
      <trkpt lat="46.10485" lon="5.95928">
        <ele>485</ele>
        <time>2022-09-27T11:14:09Z</time>
      </trkpt>
      <trkpt lat="46.10484" lon="5.95922">
        <ele>485</ele>
        <time>2022-09-27T11:14:10Z</time>
      </trkpt>
      <trkpt lat="46.10483" lon="5.95917">
        <ele>485.1</ele>
        <time>2022-09-27T11:14:11Z</time>
      </trkpt>
      <trkpt lat="46.10482" lon="5.95912">
        <ele>485.1</ele>
        <time>2022-09-27T11:14:12Z</time>
      </trkpt>
      <trkpt lat="46.10481" lon="5.95908">
        <ele>485.1</ele>
        <time>2022-09-27T11:14:13Z</time>
      </trkpt>
      <trkpt lat="46.10479" lon="5.95904">
        <ele>485.2</ele>
        <time>2022-09-27T11:14:14Z</time>
      </trkpt>
      <trkpt lat="46.10478" lon="5.95899">
        <ele>485.2</ele>
        <time>2022-09-27T11:14:15Z</time>
      </trkpt>
      <trkpt lat="46.10476" lon="5.95895">
        <ele>485.2</ele>
        <time>2022-09-27T11:14:16Z</time>
      </trkpt>
      <trkpt lat="46.10475" lon="5.95891">
        <ele>485.3</ele>
        <time>2022-09-27T11:14:17Z</time>
      </trkpt>
      <trkpt lat="46.10474" lon="5.95887">
        <ele>485.3</ele>
        <time>2022-09-27T11:14:18Z</time>
      </trkpt>
      <trkpt lat="46.10473" lon="5.95882">
        <ele>485.3</ele>
        <time>2022-09-27T11:14:19Z</time>
      </trkpt>
      <trkpt lat="46.10472" lon="5.95878">
        <ele>485.4</ele>
        <time>2022-09-27T11:14:20Z</time>
      </trkpt>
      <trkpt lat="46.10471" lon="5.95874">
        <ele>485.4</ele>
        <time>2022-09-27T11:14:21Z</time>
      </trkpt>
      <trkpt lat="46.10471" lon="5.95869">
        <ele>485.4</ele>
        <time>2022-09-27T11:14:22Z</time>
      </trkpt>
      <trkpt lat="46.10472" lon="5.95864">
        <ele>485.4</ele>
        <time>2022-09-27T11:14:23Z</time>
      </trkpt>
      <trkpt lat="46.10474" lon="5.95859">
        <ele>484.1</ele>
        <time>2022-09-27T11:14:24Z</time>
      </trkpt>
      <trkpt lat="46.10475" lon="5.95858">
        <ele>483.9</ele>
        <time>2022-09-27T11:14:25Z</time>
      </trkpt>
      <trkpt lat="46.10478" lon="5.95854">
        <ele>483.6</ele>
        <time>2022-09-27T11:14:26Z</time>
      </trkpt>
      <trkpt lat="46.10481" lon="5.95853">
        <ele>483.3</ele>
        <time>2022-09-27T11:14:27Z</time>
      </trkpt>
      <trkpt lat="46.10485" lon="5.95851">
        <ele>483</ele>
        <time>2022-09-27T11:14:29Z</time>
      </trkpt>
      <trkpt lat="46.10489" lon="5.9585">
        <ele>482.7</ele>
        <time>2022-09-27T11:14:30Z</time>
      </trkpt>
      <trkpt lat="46.10493" lon="5.9585">
        <ele>482.4</ele>
        <time>2022-09-27T11:14:31Z</time>
      </trkpt>
      <trkpt lat="46.10498" lon="5.9585">
        <ele>482.1</ele>
        <time>2022-09-27T11:14:32Z</time>
      </trkpt>
      <trkpt lat="46.10502" lon="5.9585">
        <ele>481.8</ele>
        <time>2022-09-27T11:14:33Z</time>
      </trkpt>
      <trkpt lat="46.10505" lon="5.9585">
        <ele>481.5</ele>
        <time>2022-09-27T11:14:34Z</time>
      </trkpt>
      <trkpt lat="46.10512" lon="5.95853">
        <ele>481</ele>
        <time>2022-09-27T11:14:35Z</time>
      </trkpt>
      <trkpt lat="46.10515" lon="5.95857">
        <ele>481.2</ele>
        <time>2022-09-27T11:14:36Z</time>
      </trkpt>
      <trkpt lat="46.10515" lon="5.95863">
        <ele>481.2</ele>
        <time>2022-09-27T11:14:37Z</time>
      </trkpt>
      <trkpt lat="46.10515" lon="5.95869">
        <ele>481.2</ele>
        <time>2022-09-27T11:14:38Z</time>
      </trkpt>
      <trkpt lat="46.10515" lon="5.95875">
        <ele>481.2</ele>
        <time>2022-09-27T11:14:39Z</time>
      </trkpt>
      <trkpt lat="46.10516" lon="5.95882">
        <ele>481.2</ele>
        <time>2022-09-27T11:14:40Z</time>
      </trkpt>
      <trkpt lat="46.10516" lon="5.95888">
        <ele>481.3</ele>
        <time>2022-09-27T11:14:41Z</time>
      </trkpt>
      <trkpt lat="46.10516" lon="5.95894">
        <ele>481.3</ele>
        <time>2022-09-27T11:14:42Z</time>
      </trkpt>
      <trkpt lat="46.10516" lon="5.95899">
        <ele>481.4</ele>
        <time>2022-09-27T11:14:43Z</time>
      </trkpt>
      <trkpt lat="46.10517" lon="5.95903">
        <ele>481.3</ele>
        <time>2022-09-27T11:14:44Z</time>
      </trkpt>
      <trkpt lat="46.10519" lon="5.95906">
        <ele>481.1</ele>
        <time>2022-09-27T11:14:45Z</time>
      </trkpt>
      <trkpt lat="46.10522" lon="5.95908">
        <ele>481</ele>
        <time>2022-09-27T11:14:46Z</time>
      </trkpt>
      <trkpt lat="46.10526" lon="5.95909">
        <ele>480.8</ele>
        <time>2022-09-27T11:14:47Z</time>
      </trkpt>
      <trkpt lat="46.10529" lon="5.9591">
        <ele>480.6</ele>
        <time>2022-09-27T11:14:48Z</time>
      </trkpt>
      <trkpt lat="46.10534" lon="5.95909">
        <ele>480.5</ele>
        <time>2022-09-27T11:14:49Z</time>
      </trkpt>
      <trkpt lat="46.10537" lon="5.95909">
        <ele>480.3</ele>
        <time>2022-09-27T11:14:50Z</time>
      </trkpt>
      <trkpt lat="46.10541" lon="5.95909">
        <ele>480.1</ele>
        <time>2022-09-27T11:14:51Z</time>
      </trkpt>
      <trkpt lat="46.10546" lon="5.95909">
        <ele>479.9</ele>
        <time>2022-09-27T11:14:52Z</time>
      </trkpt>
      <trkpt lat="46.1055" lon="5.95909">
        <ele>479.8</ele>
        <time>2022-09-27T11:14:53Z</time>
      </trkpt>
      <trkpt lat="46.10553" lon="5.95909">
        <ele>479.6</ele>
        <time>2022-09-27T11:14:54Z</time>
      </trkpt>
      <trkpt lat="46.10556" lon="5.95907">
        <ele>479.5</ele>
        <time>2022-09-27T11:14:55Z</time>
      </trkpt>
      <trkpt lat="46.10557" lon="5.95906">
        <ele>479.4</ele>
        <time>2022-09-27T11:14:56Z</time>
      </trkpt>
      <trkpt lat="46.10557" lon="5.95905">
        <ele>479.4</ele>
        <time>2022-09-27T11:14:57Z</time>
      </trkpt>
      <trkpt lat="46.10556" lon="5.95903">
        <ele>479.3</ele>
        <time>2022-09-27T11:14:58Z</time>
      </trkpt>
      <trkpt lat="46.10557" lon="5.95901">
        <ele>479.3</ele>
        <time>2022-09-27T11:14:59Z</time>
      </trkpt>
      <trkpt lat="46.10557" lon="5.95899">
        <ele>479.2</ele>
        <time>2022-09-27T11:15:00Z</time>
      </trkpt>
      <trkpt lat="46.10558" lon="5.959">
        <ele>479.2</ele>
        <time>2022-09-27T11:15:01Z</time>
      </trkpt>
      <trkpt lat="46.10559" lon="5.959">
        <ele>479.2</ele>
        <time>2022-09-27T11:15:02Z</time>
      </trkpt>
      <trkpt lat="46.1056" lon="5.95901">
        <ele>479.2</ele>
        <time>2022-09-27T11:15:03Z</time>
      </trkpt>
      <trkpt lat="46.1056" lon="5.95901">
        <ele>479.1</ele>
        <time>2022-09-27T11:15:04Z</time>
      </trkpt>
      <trkpt lat="46.10561" lon="5.95902">
        <ele>479.1</ele>
        <time>2022-09-27T11:15:05Z</time>
      </trkpt>
      <trkpt lat="46.10562" lon="5.95902">
        <ele>479.1</ele>
        <time>2022-09-27T11:15:06Z</time>
      </trkpt>
      <trkpt lat="46.10563" lon="5.95902">
        <ele>479</ele>
        <time>2022-09-27T11:15:07Z</time>
      </trkpt>
      <trkpt lat="46.10563" lon="5.95903">
        <ele>479</ele>
        <time>2022-09-27T11:15:08Z</time>
      </trkpt>
      <trkpt lat="46.10564" lon="5.95903">
        <ele>479</ele>
        <time>2022-09-27T11:15:09Z</time>
      </trkpt>
      <trkpt lat="46.10565" lon="5.95904">
        <ele>479</ele>
        <time>2022-09-27T11:15:10Z</time>
      </trkpt>
      <trkpt lat="46.10566" lon="5.95904">
        <ele>478.8</ele>
        <time>2022-09-27T11:19:16Z</time>
      </trkpt>
      <trkpt lat="46.10567" lon="5.95905">
        <ele>478.7</ele>
        <time>2022-09-27T11:19:17Z</time>
      </trkpt>
      <trkpt lat="46.10567" lon="5.95905">
        <ele>478.7</ele>
        <time>2022-09-27T11:19:18Z</time>
      </trkpt>
      <trkpt lat="46.10568" lon="5.95907">
        <ele>478.7</ele>
        <time>2022-09-27T11:19:19Z</time>
      </trkpt>
      <trkpt lat="46.10568" lon="5.95909">
        <ele>478.7</ele>
        <time>2022-09-27T11:19:20Z</time>
      </trkpt>
      <trkpt lat="46.10569" lon="5.95912">
        <ele>478.7</ele>
        <time>2022-09-27T11:19:21Z</time>
      </trkpt>
      <trkpt lat="46.1057" lon="5.95913">
        <ele>478.7</ele>
        <time>2022-09-27T11:19:22Z</time>
      </trkpt>
      <trkpt lat="46.1057" lon="5.95914">
        <ele>478.7</ele>
        <time>2022-09-27T11:19:23Z</time>
      </trkpt>
      <trkpt lat="46.10571" lon="5.95917">
        <ele>478.7</ele>
        <time>2022-09-27T11:19:24Z</time>
      </trkpt>
      <trkpt lat="46.10571" lon="5.95918">
        <ele>478.7</ele>
        <time>2022-09-27T11:19:25Z</time>
      </trkpt>
      <trkpt lat="46.10572" lon="5.95918">
        <ele>478.7</ele>
        <time>2022-09-27T11:19:26Z</time>
      </trkpt>
      <trkpt lat="46.10572" lon="5.95919">
        <ele>478.7</ele>
        <time>2022-09-27T11:19:27Z</time>
      </trkpt>
      <trkpt lat="46.10571" lon="5.9592">
        <ele>478.7</ele>
        <time>2022-09-27T11:19:28Z</time>
      </trkpt>
      <trkpt lat="46.10571" lon="5.95923">
        <ele>478.7</ele>
        <time>2022-09-27T11:19:29Z</time>
      </trkpt>
      <trkpt lat="46.10571" lon="5.95925">
        <ele>478.7</ele>
        <time>2022-09-27T11:19:30Z</time>
      </trkpt>
      <trkpt lat="46.1057" lon="5.95927">
        <ele>478.7</ele>
        <time>2022-09-27T11:19:31Z</time>
      </trkpt>
      <trkpt lat="46.1057" lon="5.95928">
        <ele>478.7</ele>
        <time>2022-09-27T11:19:32Z</time>
      </trkpt>
      <trkpt lat="46.1057" lon="5.95929">
        <ele>478.7</ele>
        <time>2022-09-27T11:19:33Z</time>
      </trkpt>
      <trkpt lat="46.1057" lon="5.9593">
        <ele>478.7</ele>
        <time>2022-09-27T11:19:34Z</time>
      </trkpt>
      <trkpt lat="46.1057" lon="5.9593">
        <ele>478.7</ele>
        <time>2022-09-27T11:19:35Z</time>
      </trkpt>
      <trkpt lat="46.10571" lon="5.9593">
        <ele>478.7</ele>
        <time>2022-09-27T11:19:36Z</time>
      </trkpt>
      <trkpt lat="46.10572" lon="5.9593">
        <ele>478.7</ele>
        <time>2022-09-27T11:19:37Z</time>
      </trkpt>
      <trkpt lat="46.10573" lon="5.9593">
        <ele>478.6</ele>
        <time>2022-09-27T11:19:38Z</time>
      </trkpt>
      <trkpt lat="46.10573" lon="5.9593">
        <ele>478.6</ele>
        <time>2022-09-27T11:19:39Z</time>
      </trkpt>
      <trkpt lat="46.10574" lon="5.9593">
        <ele>478.6</ele>
        <time>2022-09-27T11:19:40Z</time>
      </trkpt>
      <trkpt lat="46.10574" lon="5.9593">
        <ele>478.6</ele>
        <time>2022-09-27T11:19:41Z</time>
      </trkpt>
      <trkpt lat="46.10574" lon="5.9593">
        <ele>478.6</ele>
        <time>2022-09-27T11:19:42Z</time>
      </trkpt>
      <trkpt lat="46.10575" lon="5.9593">
        <ele>478.6</ele>
        <time>2022-09-27T11:19:43Z</time>
      </trkpt>
      <trkpt lat="46.10575" lon="5.95931">
        <ele>478.6</ele>
        <time>2022-09-27T11:19:44Z</time>
      </trkpt>
      <trkpt lat="46.10576" lon="5.95932">
        <ele>478.6</ele>
        <time>2022-09-27T11:19:45Z</time>
      </trkpt>
      <trkpt lat="46.10577" lon="5.95932">
        <ele>478.6</ele>
        <time>2022-09-27T11:19:46Z</time>
      </trkpt>
      <trkpt lat="46.10578" lon="5.95933">
        <ele>478.6</ele>
        <time>2022-09-27T11:19:47Z</time>
      </trkpt>
      <trkpt lat="46.10579" lon="5.95934">
        <ele>478.6</ele>
        <time>2022-09-27T11:19:48Z</time>
      </trkpt>
      <trkpt lat="46.1058" lon="5.95933">
        <ele>478.6</ele>
        <time>2022-09-27T11:19:49Z</time>
      </trkpt>
      <trkpt lat="46.10581" lon="5.95932">
        <ele>478.6</ele>
        <time>2022-09-27T11:19:50Z</time>
      </trkpt>
      <trkpt lat="46.10582" lon="5.95932">
        <ele>478.6</ele>
        <time>2022-09-27T11:19:51Z</time>
      </trkpt>
      <trkpt lat="46.10583" lon="5.95932">
        <ele>478.6</ele>
        <time>2022-09-27T11:19:52Z</time>
      </trkpt>
      <trkpt lat="46.10584" lon="5.95932">
        <ele>478.6</ele>
        <time>2022-09-27T11:19:53Z</time>
      </trkpt>
      <trkpt lat="46.10585" lon="5.95932">
        <ele>478.6</ele>
        <time>2022-09-27T11:19:54Z</time>
      </trkpt>
      <trkpt lat="46.10586" lon="5.95932">
        <ele>478.6</ele>
        <time>2022-09-27T11:19:55Z</time>
      </trkpt>
      <trkpt lat="46.10587" lon="5.95932">
        <ele>478.6</ele>
        <time>2022-09-27T11:19:56Z</time>
      </trkpt>
      <trkpt lat="46.10588" lon="5.95932">
        <ele>478.6</ele>
        <time>2022-09-27T11:19:57Z</time>
      </trkpt>
      <trkpt lat="46.10589" lon="5.95932">
        <ele>478.6</ele>
        <time>2022-09-27T11:19:58Z</time>
      </trkpt>
      <trkpt lat="46.10589" lon="5.95933">
        <ele>478.6</ele>
        <time>2022-09-27T11:19:59Z</time>
      </trkpt>
      <trkpt lat="46.1059" lon="5.95933">
        <ele>478.6</ele>
        <time>2022-09-27T11:20:00Z</time>
      </trkpt>
      <trkpt lat="46.1059" lon="5.95933">
        <ele>478.6</ele>
        <time>2022-09-27T11:20:01Z</time>
      </trkpt>
      <trkpt lat="46.1061" lon="5.95916">
        <ele>478.7</ele>
        <time>2022-09-27T11:21:10Z</time>
      </trkpt>
      <trkpt lat="46.1061" lon="5.95916">
        <ele>478.7</ele>
        <time>2022-09-27T11:21:11Z</time>
      </trkpt>
      <trkpt lat="46.10609" lon="5.95915">
        <ele>478.7</ele>
        <time>2022-09-27T11:21:12Z</time>
      </trkpt>
      <trkpt lat="46.10611" lon="5.95913">
        <ele>478.7</ele>
        <time>2022-09-27T11:21:13Z</time>
      </trkpt>
      <trkpt lat="46.10611" lon="5.95913">
        <ele>478.7</ele>
        <time>2022-09-27T11:21:14Z</time>
      </trkpt>
      <trkpt lat="46.10611" lon="5.95913">
        <ele>478.7</ele>
        <time>2022-09-27T11:21:15Z</time>
      </trkpt>
      <trkpt lat="46.10613" lon="5.95911">
        <ele>478.7</ele>
        <time>2022-09-27T11:21:16Z</time>
      </trkpt>
      <trkpt lat="46.10613" lon="5.95911">
        <ele>478.7</ele>
        <time>2022-09-27T11:21:17Z</time>
      </trkpt>
      <trkpt lat="46.10613" lon="5.9591">
        <ele>478.7</ele>
        <time>2022-09-27T11:21:18Z</time>
      </trkpt>
      <trkpt lat="46.10613" lon="5.9591">
        <ele>478.7</ele>
        <time>2022-09-27T11:21:19Z</time>
      </trkpt>
      <trkpt lat="46.10613" lon="5.9591">
        <ele>478.7</ele>
        <time>2022-09-27T11:21:20Z</time>
      </trkpt>
      <trkpt lat="46.10613" lon="5.9591">
        <ele>478.7</ele>
        <time>2022-09-27T11:21:21Z</time>
      </trkpt>
      <trkpt lat="46.10617" lon="5.95917">
        <ele>478.7</ele>
        <time>2022-09-27T11:26:05Z</time>
      </trkpt>
      <trkpt lat="46.10619" lon="5.95917">
        <ele>478.7</ele>
        <time>2022-09-27T11:26:06Z</time>
      </trkpt>
      <trkpt lat="46.10619" lon="5.95914">
        <ele>478.7</ele>
        <time>2022-09-27T11:26:07Z</time>
      </trkpt>
      <trkpt lat="46.1062" lon="5.95912">
        <ele>478.7</ele>
        <time>2022-09-27T11:26:08Z</time>
      </trkpt>
      <trkpt lat="46.10621" lon="5.95912">
        <ele>478.7</ele>
        <time>2022-09-27T11:26:09Z</time>
      </trkpt>
      <trkpt lat="46.10622" lon="5.95913">
        <ele>478.7</ele>
        <time>2022-09-27T11:26:10Z</time>
      </trkpt>
      <trkpt lat="46.10622" lon="5.95913">
        <ele>478.7</ele>
        <time>2022-09-27T11:26:11Z</time>
      </trkpt>
      <trkpt lat="46.10623" lon="5.95913">
        <ele>478.7</ele>
        <time>2022-09-27T11:26:12Z</time>
      </trkpt>
      <trkpt lat="46.10624" lon="5.95913">
        <ele>478.7</ele>
        <time>2022-09-27T11:26:13Z</time>
      </trkpt>
      <trkpt lat="46.10624" lon="5.95911">
        <ele>478.7</ele>
        <time>2022-09-27T11:26:14Z</time>
      </trkpt>
      <trkpt lat="46.10622" lon="5.95911">
        <ele>478.7</ele>
        <time>2022-09-27T11:26:15Z</time>
      </trkpt>
      <trkpt lat="46.10622" lon="5.95912">
        <ele>478.7</ele>
        <time>2022-09-27T11:26:16Z</time>
      </trkpt>
      <trkpt lat="46.10623" lon="5.95911">
        <ele>478.7</ele>
        <time>2022-09-27T11:26:17Z</time>
      </trkpt>
      <trkpt lat="46.10623" lon="5.95909">
        <ele>478.7</ele>
        <time>2022-09-27T11:26:18Z</time>
      </trkpt>
      <trkpt lat="46.10607" lon="5.95921">
        <ele>478.7</ele>
        <time>2022-09-27T11:28:37Z</time>
      </trkpt>
      <trkpt lat="46.10604" lon="5.95919">
        <ele>478.7</ele>
        <time>2022-09-27T11:28:38Z</time>
      </trkpt>
      <trkpt lat="46.10604" lon="5.95918">
        <ele>478.7</ele>
        <time>2022-09-27T11:28:39Z</time>
      </trkpt>
      <trkpt lat="46.10603" lon="5.95916">
        <ele>478.7</ele>
        <time>2022-09-27T11:28:40Z</time>
      </trkpt>
      <trkpt lat="46.10602" lon="5.95917">
        <ele>478.7</ele>
        <time>2022-09-27T11:28:41Z</time>
      </trkpt>
      <trkpt lat="46.10602" lon="5.95915">
        <ele>478.7</ele>
        <time>2022-09-27T11:28:42Z</time>
      </trkpt>
      <trkpt lat="46.106" lon="5.95912">
        <ele>478.7</ele>
        <time>2022-09-27T11:28:43Z</time>
      </trkpt>
      <trkpt lat="46.10599" lon="5.95909">
        <ele>478.7</ele>
        <time>2022-09-27T11:28:44Z</time>
      </trkpt>
      <trkpt lat="46.10599" lon="5.95908">
        <ele>478.7</ele>
        <time>2022-09-27T11:28:45Z</time>
      </trkpt>
      <trkpt lat="46.10593" lon="5.95907">
        <ele>478.7</ele>
        <time>2022-09-27T11:28:46Z</time>
      </trkpt>
      <trkpt lat="46.10586" lon="5.95906">
        <ele>478.7</ele>
        <time>2022-09-27T11:28:47Z</time>
      </trkpt>
      <trkpt lat="46.10579" lon="5.95904">
        <ele>478.7</ele>
        <time>2022-09-27T11:29:31Z</time>
      </trkpt>
      <trkpt lat="46.10573" lon="5.95903">
        <ele>478.8</ele>
        <time>2022-09-27T11:29:32Z</time>
      </trkpt>
      <trkpt lat="46.10566" lon="5.95902">
        <ele>478.8</ele>
        <time>2022-09-27T11:29:33Z</time>
      </trkpt>
      <trkpt lat="46.10565" lon="5.95902">
        <ele>478.8</ele>
        <time>2022-09-27T11:29:34Z</time>
      </trkpt>
      <trkpt lat="46.10564" lon="5.95902">
        <ele>478.8</ele>
        <time>2022-09-27T11:29:35Z</time>
      </trkpt>
      <trkpt lat="46.10563" lon="5.95902">
        <ele>478.8</ele>
        <time>2022-09-27T11:29:36Z</time>
      </trkpt>
      <trkpt lat="46.10561" lon="5.95902">
        <ele>478.8</ele>
        <time>2022-09-27T11:29:37Z</time>
      </trkpt>
      <trkpt lat="46.1056" lon="5.95902">
        <ele>478.8</ele>
        <time>2022-09-27T11:29:38Z</time>
      </trkpt>
      <trkpt lat="46.10559" lon="5.95902">
        <ele>478.8</ele>
        <time>2022-09-27T11:29:39Z</time>
      </trkpt>
      <trkpt lat="46.10558" lon="5.95902">
        <ele>478.8</ele>
        <time>2022-09-27T11:29:40Z</time>
      </trkpt>
      <trkpt lat="46.10558" lon="5.95901">
        <ele>478.8</ele>
        <time>2022-09-27T11:29:41Z</time>
      </trkpt>
      <trkpt lat="46.10557" lon="5.95901">
        <ele>478.8</ele>
        <time>2022-09-27T11:29:42Z</time>
      </trkpt>
      <trkpt lat="46.10557" lon="5.95901">
        <ele>478.8</ele>
        <time>2022-09-27T11:29:43Z</time>
      </trkpt>
      <trkpt lat="46.10557" lon="5.95902">
        <ele>478.8</ele>
        <time>2022-09-27T11:29:44Z</time>
      </trkpt>
      <trkpt lat="46.10556" lon="5.959">
        <ele>478.8</ele>
        <time>2022-09-27T11:29:45Z</time>
      </trkpt>
      <trkpt lat="46.10557" lon="5.959">
        <ele>478.8</ele>
        <time>2022-09-27T11:29:46Z</time>
      </trkpt>
      <trkpt lat="46.10557" lon="5.95898">
        <ele>478.8</ele>
        <time>2022-09-27T11:29:47Z</time>
      </trkpt>
      <trkpt lat="46.10558" lon="5.95896">
        <ele>478.8</ele>
        <time>2022-09-27T11:29:48Z</time>
      </trkpt>
      <trkpt lat="46.10558" lon="5.95895">
        <ele>478.8</ele>
        <time>2022-09-27T11:29:49Z</time>
      </trkpt>
      <trkpt lat="46.10559" lon="5.95894">
        <ele>478.8</ele>
        <time>2022-09-27T11:29:50Z</time>
      </trkpt>
      <trkpt lat="46.10559" lon="5.95892">
        <ele>478.8</ele>
        <time>2022-09-27T11:29:51Z</time>
      </trkpt>
      <trkpt lat="46.10559" lon="5.95891">
        <ele>478.8</ele>
        <time>2022-09-27T11:29:52Z</time>
      </trkpt>
      <trkpt lat="46.1056" lon="5.9589">
        <ele>478.8</ele>
        <time>2022-09-27T11:29:53Z</time>
      </trkpt>
      <trkpt lat="46.1056" lon="5.95889">
        <ele>478.8</ele>
        <time>2022-09-27T11:29:54Z</time>
      </trkpt>
      <trkpt lat="46.10561" lon="5.95888">
        <ele>478.8</ele>
        <time>2022-09-27T11:29:55Z</time>
      </trkpt>
      <trkpt lat="46.10561" lon="5.95886">
        <ele>478.8</ele>
        <time>2022-09-27T11:29:56Z</time>
      </trkpt>
      <trkpt lat="46.10562" lon="5.95885">
        <ele>478.8</ele>
        <time>2022-09-27T11:29:57Z</time>
      </trkpt>
      <trkpt lat="46.10562" lon="5.95884">
        <ele>478.8</ele>
        <time>2022-09-27T11:29:58Z</time>
      </trkpt>
      <trkpt lat="46.10563" lon="5.95883">
        <ele>478.8</ele>
        <time>2022-09-27T11:40:53Z</time>
      </trkpt>
      <trkpt lat="46.10563" lon="5.95882">
        <ele>478.8</ele>
        <time>2022-09-27T11:40:54Z</time>
      </trkpt>
      <trkpt lat="46.10563" lon="5.95879">
        <ele>478.8</ele>
        <time>2022-09-27T11:40:55Z</time>
      </trkpt>
      <trkpt lat="46.10564" lon="5.95877">
        <ele>478.9</ele>
        <time>2022-09-27T11:40:56Z</time>
      </trkpt>
      <trkpt lat="46.10564" lon="5.95873">
        <ele>478.9</ele>
        <time>2022-09-27T11:40:57Z</time>
      </trkpt>
      <trkpt lat="46.10563" lon="5.95868">
        <ele>478.9</ele>
        <time>2022-09-27T11:40:58Z</time>
      </trkpt>
      <trkpt lat="46.10562" lon="5.95866">
        <ele>478.9</ele>
        <time>2022-09-27T11:40:59Z</time>
      </trkpt>
      <trkpt lat="46.10559" lon="5.95866">
        <ele>478.9</ele>
        <time>2022-09-27T11:41:00Z</time>
      </trkpt>
      <trkpt lat="46.1056" lon="5.95864">
        <ele>478.9</ele>
        <time>2022-09-27T11:41:01Z</time>
      </trkpt>
      <trkpt lat="46.10559" lon="5.95859">
        <ele>479</ele>
        <time>2022-09-27T11:41:02Z</time>
      </trkpt>
      <trkpt lat="46.1056" lon="5.95857">
        <ele>479.1</ele>
        <time>2022-09-27T11:41:03Z</time>
      </trkpt>
      <trkpt lat="46.1056" lon="5.95855">
        <ele>479.1</ele>
        <time>2022-09-27T11:41:04Z</time>
      </trkpt>
      <trkpt lat="46.10559" lon="5.95853">
        <ele>479.2</ele>
        <time>2022-09-27T11:41:05Z</time>
      </trkpt>
      <trkpt lat="46.10557" lon="5.9585">
        <ele>479.2</ele>
        <time>2022-09-27T11:41:06Z</time>
      </trkpt>
      <trkpt lat="46.10556" lon="5.95849">
        <ele>479.3</ele>
        <time>2022-09-27T11:41:07Z</time>
      </trkpt>
      <trkpt lat="46.10554" lon="5.95847">
        <ele>479.3</ele>
        <time>2022-09-27T11:41:08Z</time>
      </trkpt>
      <trkpt lat="46.10553" lon="5.95846">
        <ele>479.4</ele>
        <time>2022-09-27T11:41:09Z</time>
      </trkpt>
      <trkpt lat="46.1055" lon="5.95845">
        <ele>479.6</ele>
        <time>2022-09-27T11:41:10Z</time>
      </trkpt>
      <trkpt lat="46.10549" lon="5.95845">
        <ele>479.6</ele>
        <time>2022-09-27T11:41:11Z</time>
      </trkpt>
      <trkpt lat="46.10545" lon="5.95844">
        <ele>479.7</ele>
        <time>2022-09-27T11:41:12Z</time>
      </trkpt>
      <trkpt lat="46.10544" lon="5.95844">
        <ele>479.8</ele>
        <time>2022-09-27T11:41:13Z</time>
      </trkpt>
      <trkpt lat="46.10541" lon="5.95844">
        <ele>479.9</ele>
        <time>2022-09-27T11:41:14Z</time>
      </trkpt>
      <trkpt lat="46.1054" lon="5.95844">
        <ele>479.9</ele>
        <time>2022-09-27T11:41:15Z</time>
      </trkpt>
      <trkpt lat="46.10536" lon="5.95845">
        <ele>480.1</ele>
        <time>2022-09-27T11:41:16Z</time>
      </trkpt>
      <trkpt lat="46.10535" lon="5.95845">
        <ele>480.1</ele>
        <time>2022-09-27T11:41:17Z</time>
      </trkpt>
      <trkpt lat="46.10532" lon="5.95846">
        <ele>480.2</ele>
        <time>2022-09-27T11:41:18Z</time>
      </trkpt>
      <trkpt lat="46.10531" lon="5.95846">
        <ele>480.3</ele>
        <time>2022-09-27T11:41:19Z</time>
      </trkpt>
      <trkpt lat="46.10527" lon="5.95847">
        <ele>480.4</ele>
        <time>2022-09-27T11:41:20Z</time>
      </trkpt>
      <trkpt lat="46.10527" lon="5.95847">
        <ele>480.4</ele>
        <time>2022-09-27T11:41:21Z</time>
      </trkpt>
      <trkpt lat="46.10523" lon="5.95848">
        <ele>480.5</ele>
        <time>2022-09-27T11:41:22Z</time>
      </trkpt>
      <trkpt lat="46.10522" lon="5.95848">
        <ele>480.6</ele>
        <time>2022-09-27T11:41:23Z</time>
      </trkpt>
      <trkpt lat="46.1052" lon="5.9585">
        <ele>480.7</ele>
        <time>2022-09-27T11:41:24Z</time>
      </trkpt>
      <trkpt lat="46.10518" lon="5.95855">
        <ele>481.2</ele>
        <time>2022-09-27T11:41:25Z</time>
      </trkpt>
      <trkpt lat="46.10518" lon="5.95856">
        <ele>481.2</ele>
        <time>2022-09-27T11:41:26Z</time>
      </trkpt>
      <trkpt lat="46.10517" lon="5.95862">
        <ele>481.2</ele>
        <time>2022-09-27T11:41:27Z</time>
      </trkpt>
      <trkpt lat="46.10517" lon="5.95868">
        <ele>481.2</ele>
        <time>2022-09-27T11:41:28Z</time>
      </trkpt>
      <trkpt lat="46.10516" lon="5.95875">
        <ele>481.2</ele>
        <time>2022-09-27T11:41:29Z</time>
      </trkpt>
      <trkpt lat="46.10516" lon="5.95881">
        <ele>481.2</ele>
        <time>2022-09-27T11:41:30Z</time>
      </trkpt>
      <trkpt lat="46.10516" lon="5.95889">
        <ele>481.3</ele>
        <time>2022-09-27T11:41:31Z</time>
      </trkpt>
      <trkpt lat="46.10516" lon="5.95896">
        <ele>481.4</ele>
        <time>2022-09-27T11:41:32Z</time>
      </trkpt>
      <trkpt lat="46.10516" lon="5.95903">
        <ele>481.4</ele>
        <time>2022-09-27T11:41:33Z</time>
      </trkpt>
      <trkpt lat="46.10517" lon="5.9591">
        <ele>481.6</ele>
        <time>2022-09-27T11:41:34Z</time>
      </trkpt>
      <trkpt lat="46.10518" lon="5.95917">
        <ele>481.6</ele>
        <time>2022-09-27T11:41:35Z</time>
      </trkpt>
      <trkpt lat="46.10518" lon="5.95923">
        <ele>481.6</ele>
        <time>2022-09-27T11:41:36Z</time>
      </trkpt>
      <trkpt lat="46.10519" lon="5.9593">
        <ele>481.6</ele>
        <time>2022-09-27T11:41:37Z</time>
      </trkpt>
      <trkpt lat="46.10519" lon="5.95935">
        <ele>481.6</ele>
        <time>2022-09-27T11:41:38Z</time>
      </trkpt>
      <trkpt lat="46.10519" lon="5.95939">
        <ele>481.6</ele>
        <time>2022-09-27T11:41:39Z</time>
      </trkpt>
      <trkpt lat="46.10517" lon="5.95942">
        <ele>481.8</ele>
        <time>2022-09-27T11:41:40Z</time>
      </trkpt>
      <trkpt lat="46.10516" lon="5.95945">
        <ele>481.9</ele>
        <time>2022-09-27T11:41:41Z</time>
      </trkpt>
      <trkpt lat="46.10515" lon="5.95945">
        <ele>481.9</ele>
        <time>2022-09-27T11:41:42Z</time>
      </trkpt>
      <trkpt lat="46.10512" lon="5.95943">
        <ele>482.1</ele>
        <time>2022-09-27T11:41:43Z</time>
      </trkpt>
      <trkpt lat="46.10511" lon="5.95942">
        <ele>482.2</ele>
        <time>2022-09-27T11:41:44Z</time>
      </trkpt>
      <trkpt lat="46.10511" lon="5.95939">
        <ele>482.3</ele>
        <time>2022-09-27T11:41:45Z</time>
      </trkpt>
      <trkpt lat="46.1051" lon="5.95937">
        <ele>482.4</ele>
        <time>2022-09-27T11:41:47Z</time>
      </trkpt>
      <trkpt lat="46.10509" lon="5.95936">
        <ele>482.4</ele>
        <time>2022-09-27T11:41:48Z</time>
      </trkpt>
      <trkpt lat="46.10508" lon="5.95935">
        <ele>482.5</ele>
        <time>2022-09-27T11:41:49Z</time>
      </trkpt>
      <trkpt lat="46.10504" lon="5.95935">
        <ele>482.7</ele>
        <time>2022-09-27T11:41:50Z</time>
      </trkpt>
      <trkpt lat="46.10503" lon="5.95936">
        <ele>482.8</ele>
        <time>2022-09-27T11:41:51Z</time>
      </trkpt>
      <trkpt lat="46.10502" lon="5.95939">
        <ele>482.9</ele>
        <time>2022-09-27T11:41:52Z</time>
      </trkpt>
      <trkpt lat="46.10501" lon="5.95941">
        <ele>483</ele>
        <time>2022-09-27T11:41:53Z</time>
      </trkpt>
      <trkpt lat="46.10501" lon="5.95943">
        <ele>483.1</ele>
        <time>2022-09-27T11:41:54Z</time>
      </trkpt>
      <trkpt lat="46.10502" lon="5.95947">
        <ele>483.2</ele>
        <time>2022-09-27T11:41:55Z</time>
      </trkpt>
      <trkpt lat="46.10503" lon="5.95952">
        <ele>483.4</ele>
        <time>2022-09-27T11:41:56Z</time>
      </trkpt>
      <trkpt lat="46.10504" lon="5.95954">
        <ele>483.5</ele>
        <time>2022-09-27T11:41:57Z</time>
      </trkpt>
      <trkpt lat="46.10503" lon="5.95963">
        <ele>483.8</ele>
        <time>2022-09-27T11:41:58Z</time>
      </trkpt>
      <trkpt lat="46.10503" lon="5.95969">
        <ele>484</ele>
        <time>2022-09-27T11:41:59Z</time>
      </trkpt>
      <trkpt lat="46.10503" lon="5.9597">
        <ele>484.1</ele>
        <time>2022-09-27T11:42:00Z</time>
      </trkpt>
      <trkpt lat="46.10504" lon="5.95976">
        <ele>484.2</ele>
        <time>2022-09-27T11:42:01Z</time>
      </trkpt>
      <trkpt lat="46.10504" lon="5.95977">
        <ele>484.2</ele>
        <time>2022-09-27T11:42:02Z</time>
      </trkpt>
      <trkpt lat="46.10504" lon="5.95983">
        <ele>484.4</ele>
        <time>2022-09-27T11:42:03Z</time>
      </trkpt>
      <trkpt lat="46.10504" lon="5.95984">
        <ele>484.4</ele>
        <time>2022-09-27T11:42:04Z</time>
      </trkpt>
      <trkpt lat="46.10503" lon="5.95986">
        <ele>484.4</ele>
        <time>2022-09-27T11:42:05Z</time>
      </trkpt>
      <trkpt lat="46.10503" lon="5.95989">
        <ele>484.4</ele>
        <time>2022-09-27T11:42:06Z</time>
      </trkpt>
      <trkpt lat="46.10504" lon="5.95993">
        <ele>484.5</ele>
        <time>2022-09-27T11:42:07Z</time>
      </trkpt>
      <trkpt lat="46.10504" lon="5.95994">
        <ele>484.5</ele>
        <time>2022-09-27T11:42:08Z</time>
      </trkpt>
      <trkpt lat="46.10505" lon="5.95999">
        <ele>484.5</ele>
        <time>2022-09-27T11:42:09Z</time>
      </trkpt>
      <trkpt lat="46.10507" lon="5.96002">
        <ele>484.5</ele>
        <time>2022-09-27T11:42:10Z</time>
      </trkpt>
      <trkpt lat="46.10507" lon="5.96004">
        <ele>484.5</ele>
        <time>2022-09-27T11:42:11Z</time>
      </trkpt>
      <trkpt lat="46.10508" lon="5.96008">
        <ele>484.5</ele>
        <time>2022-09-27T11:42:12Z</time>
      </trkpt>
      <trkpt lat="46.10509" lon="5.96011">
        <ele>484.5</ele>
        <time>2022-09-27T11:42:13Z</time>
      </trkpt>
      <trkpt lat="46.1051" lon="5.96015">
        <ele>484.5</ele>
        <time>2022-09-27T11:42:14Z</time>
      </trkpt>
      <trkpt lat="46.10512" lon="5.96019">
        <ele>484.5</ele>
        <time>2022-09-27T11:42:15Z</time>
      </trkpt>
      <trkpt lat="46.10512" lon="5.96023">
        <ele>484.5</ele>
        <time>2022-09-27T11:42:16Z</time>
      </trkpt>
      <trkpt lat="46.10515" lon="5.96027">
        <ele>484.5</ele>
        <time>2022-09-27T11:42:17Z</time>
      </trkpt>
      <trkpt lat="46.10516" lon="5.96034">
        <ele>484.4</ele>
        <time>2022-09-27T11:42:18Z</time>
      </trkpt>
      <trkpt lat="46.10517" lon="5.96038">
        <ele>484.4</ele>
        <time>2022-09-27T11:42:19Z</time>
      </trkpt>
      <trkpt lat="46.10519" lon="5.96043">
        <ele>484.4</ele>
        <time>2022-09-27T11:42:20Z</time>
      </trkpt>
      <trkpt lat="46.10521" lon="5.96046">
        <ele>484.4</ele>
        <time>2022-09-27T11:42:21Z</time>
      </trkpt>
      <trkpt lat="46.10522" lon="5.96051">
        <ele>484.4</ele>
        <time>2022-09-27T11:42:22Z</time>
      </trkpt>
      <trkpt lat="46.10523" lon="5.96057">
        <ele>484.4</ele>
        <time>2022-09-27T11:42:23Z</time>
      </trkpt>
      <trkpt lat="46.10526" lon="5.96063">
        <ele>484.4</ele>
        <time>2022-09-27T11:42:24Z</time>
      </trkpt>
      <trkpt lat="46.10527" lon="5.96067">
        <ele>484.3</ele>
        <time>2022-09-27T11:42:25Z</time>
      </trkpt>
      <trkpt lat="46.10529" lon="5.96073">
        <ele>484.3</ele>
        <time>2022-09-27T11:42:26Z</time>
      </trkpt>
      <trkpt lat="46.1053" lon="5.96078">
        <ele>484.3</ele>
        <time>2022-09-27T11:42:27Z</time>
      </trkpt>
      <trkpt lat="46.10532" lon="5.96084">
        <ele>484.2</ele>
        <time>2022-09-27T11:42:28Z</time>
      </trkpt>
      <trkpt lat="46.10534" lon="5.96089">
        <ele>484.2</ele>
        <time>2022-09-27T11:42:29Z</time>
      </trkpt>
      <trkpt lat="46.10535" lon="5.96094">
        <ele>484.2</ele>
        <time>2022-09-27T11:42:30Z</time>
      </trkpt>
      <trkpt lat="46.10537" lon="5.961">
        <ele>484.1</ele>
        <time>2022-09-27T11:42:31Z</time>
      </trkpt>
      <trkpt lat="46.10538" lon="5.96104">
        <ele>484.1</ele>
        <time>2022-09-27T11:42:32Z</time>
      </trkpt>
      <trkpt lat="46.1054" lon="5.96109">
        <ele>484.1</ele>
        <time>2022-09-27T11:42:33Z</time>
      </trkpt>
      <trkpt lat="46.10541" lon="5.96113">
        <ele>484</ele>
        <time>2022-09-27T11:42:34Z</time>
      </trkpt>
      <trkpt lat="46.10542" lon="5.96117">
        <ele>484</ele>
        <time>2022-09-27T11:42:35Z</time>
      </trkpt>
      <trkpt lat="46.10544" lon="5.9612">
        <ele>484</ele>
        <time>2022-09-27T11:42:36Z</time>
      </trkpt>
      <trkpt lat="46.10546" lon="5.96125">
        <ele>484</ele>
        <time>2022-09-27T11:42:37Z</time>
      </trkpt>
      <trkpt lat="46.10547" lon="5.9613">
        <ele>483.9</ele>
        <time>2022-09-27T11:42:38Z</time>
      </trkpt>
      <trkpt lat="46.10548" lon="5.96132">
        <ele>483.9</ele>
        <time>2022-09-27T11:42:39Z</time>
      </trkpt>
      <trkpt lat="46.10549" lon="5.96136">
        <ele>483.9</ele>
        <time>2022-09-27T11:42:40Z</time>
      </trkpt>
      <trkpt lat="46.1055" lon="5.96141">
        <ele>483.9</ele>
        <time>2022-09-27T11:42:41Z</time>
      </trkpt>
      <trkpt lat="46.10552" lon="5.96146">
        <ele>483.8</ele>
        <time>2022-09-27T11:42:42Z</time>
      </trkpt>
      <trkpt lat="46.10553" lon="5.96151">
        <ele>483.8</ele>
        <time>2022-09-27T11:42:43Z</time>
      </trkpt>
      <trkpt lat="46.10555" lon="5.96155">
        <ele>483.7</ele>
        <time>2022-09-27T11:42:44Z</time>
      </trkpt>
      <trkpt lat="46.10556" lon="5.96159">
        <ele>483.7</ele>
        <time>2022-09-27T11:42:45Z</time>
      </trkpt>
      <trkpt lat="46.10557" lon="5.96163">
        <ele>483.6</ele>
        <time>2022-09-27T11:42:46Z</time>
      </trkpt>
      <trkpt lat="46.10557" lon="5.96168">
        <ele>483.6</ele>
        <time>2022-09-27T11:42:47Z</time>
      </trkpt>
      <trkpt lat="46.10558" lon="5.9617">
        <ele>483.6</ele>
        <time>2022-09-27T11:42:48Z</time>
      </trkpt>
      <trkpt lat="46.10559" lon="5.96175">
        <ele>483.5</ele>
        <time>2022-09-27T11:42:49Z</time>
      </trkpt>
      <trkpt lat="46.10561" lon="5.96179">
        <ele>483.5</ele>
        <time>2022-09-27T11:42:50Z</time>
      </trkpt>
      <trkpt lat="46.10562" lon="5.96183">
        <ele>483.4</ele>
        <time>2022-09-27T11:42:51Z</time>
      </trkpt>
      <trkpt lat="46.10564" lon="5.96187">
        <ele>483.4</ele>
        <time>2022-09-27T11:42:52Z</time>
      </trkpt>
      <trkpt lat="46.10565" lon="5.96191">
        <ele>483.3</ele>
        <time>2022-09-27T11:42:53Z</time>
      </trkpt>
      <trkpt lat="46.10567" lon="5.96196">
        <ele>483.3</ele>
        <time>2022-09-27T11:42:54Z</time>
      </trkpt>
      <trkpt lat="46.10567" lon="5.962">
        <ele>483.3</ele>
        <time>2022-09-27T11:42:55Z</time>
      </trkpt>
      <trkpt lat="46.10568" lon="5.96205">
        <ele>483.2</ele>
        <time>2022-09-27T11:42:56Z</time>
      </trkpt>
      <trkpt lat="46.10569" lon="5.96207">
        <ele>483.2</ele>
        <time>2022-09-27T11:42:57Z</time>
      </trkpt>
      <trkpt lat="46.10571" lon="5.96213">
        <ele>483.2</ele>
        <time>2022-09-27T11:42:58Z</time>
      </trkpt>
      <trkpt lat="46.10573" lon="5.96217">
        <ele>483.1</ele>
        <time>2022-09-27T11:42:59Z</time>
      </trkpt>
      <trkpt lat="46.10575" lon="5.96223">
        <ele>483.1</ele>
        <time>2022-09-27T11:43:00Z</time>
      </trkpt>
      <trkpt lat="46.10575" lon="5.96227">
        <ele>483</ele>
        <time>2022-09-27T11:43:01Z</time>
      </trkpt>
      <trkpt lat="46.10577" lon="5.96232">
        <ele>483</ele>
        <time>2022-09-27T11:43:02Z</time>
      </trkpt>
      <trkpt lat="46.10578" lon="5.96238">
        <ele>482.9</ele>
        <time>2022-09-27T11:43:03Z</time>
      </trkpt>
      <trkpt lat="46.1058" lon="5.96243">
        <ele>482.9</ele>
        <time>2022-09-27T11:43:04Z</time>
      </trkpt>
      <trkpt lat="46.10582" lon="5.96248">
        <ele>482.9</ele>
        <time>2022-09-27T11:43:05Z</time>
      </trkpt>
      <trkpt lat="46.10583" lon="5.96252">
        <ele>482.8</ele>
        <time>2022-09-27T11:43:06Z</time>
      </trkpt>
      <trkpt lat="46.10585" lon="5.96256">
        <ele>482.8</ele>
        <time>2022-09-27T11:43:07Z</time>
      </trkpt>
      <trkpt lat="46.10587" lon="5.9626">
        <ele>482.8</ele>
        <time>2022-09-27T11:43:08Z</time>
      </trkpt>
      <trkpt lat="46.10588" lon="5.96266">
        <ele>482.7</ele>
        <time>2022-09-27T11:43:09Z</time>
      </trkpt>
      <trkpt lat="46.10589" lon="5.9627">
        <ele>482.7</ele>
        <time>2022-09-27T11:43:10Z</time>
      </trkpt>
      <trkpt lat="46.1059" lon="5.96274">
        <ele>482.7</ele>
        <time>2022-09-27T11:43:11Z</time>
      </trkpt>
      <trkpt lat="46.10591" lon="5.96279">
        <ele>482.7</ele>
        <time>2022-09-27T11:43:12Z</time>
      </trkpt>
      <trkpt lat="46.10592" lon="5.96283">
        <ele>482.6</ele>
        <time>2022-09-27T11:43:13Z</time>
      </trkpt>
      <trkpt lat="46.10594" lon="5.96289">
        <ele>482.6</ele>
        <time>2022-09-27T11:43:14Z</time>
      </trkpt>
      <trkpt lat="46.10595" lon="5.96295">
        <ele>482.6</ele>
        <time>2022-09-27T11:43:15Z</time>
      </trkpt>
      <trkpt lat="46.10597" lon="5.96298">
        <ele>482.6</ele>
        <time>2022-09-27T11:43:16Z</time>
      </trkpt>
      <trkpt lat="46.10598" lon="5.96303">
        <ele>482.6</ele>
        <time>2022-09-27T11:43:17Z</time>
      </trkpt>
      <trkpt lat="46.106" lon="5.96309">
        <ele>482.5</ele>
        <time>2022-09-27T11:43:18Z</time>
      </trkpt>
      <trkpt lat="46.10602" lon="5.96315">
        <ele>482.5</ele>
        <time>2022-09-27T11:43:19Z</time>
      </trkpt>
      <trkpt lat="46.10604" lon="5.9632">
        <ele>482.5</ele>
        <time>2022-09-27T11:43:20Z</time>
      </trkpt>
      <trkpt lat="46.10604" lon="5.96326">
        <ele>482.5</ele>
        <time>2022-09-27T11:43:21Z</time>
      </trkpt>
      <trkpt lat="46.10603" lon="5.96329">
        <ele>482.5</ele>
        <time>2022-09-27T11:43:22Z</time>
      </trkpt>
      <trkpt lat="46.10605" lon="5.96334">
        <ele>482.5</ele>
        <time>2022-09-27T11:43:23Z</time>
      </trkpt>
      <trkpt lat="46.10607" lon="5.96337">
        <ele>482.4</ele>
        <time>2022-09-27T11:43:24Z</time>
      </trkpt>
      <trkpt lat="46.10609" lon="5.96342">
        <ele>482.4</ele>
        <time>2022-09-27T11:43:25Z</time>
      </trkpt>
      <trkpt lat="46.1061" lon="5.96346">
        <ele>482.4</ele>
        <time>2022-09-27T11:43:26Z</time>
      </trkpt>
      <trkpt lat="46.10612" lon="5.9635">
        <ele>482.4</ele>
        <time>2022-09-27T11:43:27Z</time>
      </trkpt>
      <trkpt lat="46.10614" lon="5.96353">
        <ele>482.4</ele>
        <time>2022-09-27T11:43:28Z</time>
      </trkpt>
      <trkpt lat="46.10615" lon="5.96358">
        <ele>482.4</ele>
        <time>2022-09-27T11:43:29Z</time>
      </trkpt>
      <trkpt lat="46.10617" lon="5.96364">
        <ele>482.4</ele>
        <time>2022-09-27T11:43:30Z</time>
      </trkpt>
      <trkpt lat="46.10618" lon="5.96368">
        <ele>482.4</ele>
        <time>2022-09-27T11:43:31Z</time>
      </trkpt>
      <trkpt lat="46.10619" lon="5.96372">
        <ele>482.3</ele>
        <time>2022-09-27T11:43:32Z</time>
      </trkpt>
      <trkpt lat="46.10621" lon="5.96377">
        <ele>482.3</ele>
        <time>2022-09-27T11:43:33Z</time>
      </trkpt>
      <trkpt lat="46.10622" lon="5.96379">
        <ele>482.3</ele>
        <time>2022-09-27T11:43:34Z</time>
      </trkpt>
      <trkpt lat="46.10623" lon="5.96384">
        <ele>482.2</ele>
        <time>2022-09-27T11:43:35Z</time>
      </trkpt>
      <trkpt lat="46.10623" lon="5.96386">
        <ele>482.2</ele>
        <time>2022-09-27T11:43:36Z</time>
      </trkpt>
      <trkpt lat="46.10624" lon="5.96389">
        <ele>482.2</ele>
        <time>2022-09-27T11:43:37Z</time>
      </trkpt>
      <trkpt lat="46.10626" lon="5.96393">
        <ele>482.2</ele>
        <time>2022-09-27T11:43:38Z</time>
      </trkpt>
      <trkpt lat="46.10627" lon="5.96397">
        <ele>482.2</ele>
        <time>2022-09-27T11:43:39Z</time>
      </trkpt>
      <trkpt lat="46.10627" lon="5.96398">
        <ele>482.2</ele>
        <time>2022-09-27T11:43:40Z</time>
      </trkpt>
      <trkpt lat="46.10629" lon="5.96402">
        <ele>482.1</ele>
        <time>2022-09-27T11:43:41Z</time>
      </trkpt>
      <trkpt lat="46.10629" lon="5.96403">
        <ele>482.1</ele>
        <time>2022-09-27T11:43:42Z</time>
      </trkpt>
      <trkpt lat="46.1063" lon="5.96406">
        <ele>482.1</ele>
        <time>2022-09-27T11:43:43Z</time>
      </trkpt>
      <trkpt lat="46.10631" lon="5.96407">
        <ele>482.1</ele>
        <time>2022-09-27T11:43:44Z</time>
      </trkpt>
      <trkpt lat="46.10631" lon="5.96408">
        <ele>482.1</ele>
        <time>2022-09-27T11:43:45Z</time>
      </trkpt>
      <trkpt lat="46.10634" lon="5.96411">
        <ele>482.1</ele>
        <time>2022-09-27T11:43:46Z</time>
      </trkpt>
      <trkpt lat="46.10634" lon="5.96412">
        <ele>481.1</ele>
        <time>2022-09-27T11:43:47Z</time>
      </trkpt>
      <trkpt lat="46.10637" lon="5.96412">
        <ele>480.8</ele>
        <time>2022-09-27T11:43:48Z</time>
      </trkpt>
      <trkpt lat="46.10641" lon="5.96411">
        <ele>480.2</ele>
        <time>2022-09-27T11:43:49Z</time>
      </trkpt>
      <trkpt lat="46.10645" lon="5.96408">
        <ele>479.8</ele>
        <time>2022-09-27T11:43:50Z</time>
      </trkpt>
      <trkpt lat="46.10647" lon="5.96406">
        <ele>479.5</ele>
        <time>2022-09-27T11:43:51Z</time>
      </trkpt>
      <trkpt lat="46.1065" lon="5.96403">
        <ele>479.3</ele>
        <time>2022-09-27T11:43:53Z</time>
      </trkpt>
      <trkpt lat="46.10655" lon="5.96404">
        <ele>479.1</ele>
        <time>2022-09-27T11:43:54Z</time>
      </trkpt>
      <trkpt lat="46.10659" lon="5.96403">
        <ele>479</ele>
        <time>2022-09-27T11:43:55Z</time>
      </trkpt>
      <trkpt lat="46.10662" lon="5.96402">
        <ele>478.9</ele>
        <time>2022-09-27T11:43:56Z</time>
      </trkpt>
      <trkpt lat="46.10665" lon="5.96399">
        <ele>478.7</ele>
        <time>2022-09-27T11:43:57Z</time>
      </trkpt>
      <trkpt lat="46.10668" lon="5.96396">
        <ele>478.5</ele>
        <time>2022-09-27T11:43:58Z</time>
      </trkpt>
      <trkpt lat="46.10669" lon="5.96395">
        <ele>478.4</ele>
        <time>2022-09-27T11:43:59Z</time>
      </trkpt>
      <trkpt lat="46.10672" lon="5.96392">
        <ele>478.2</ele>
        <time>2022-09-27T11:44:00Z</time>
      </trkpt>
      <trkpt lat="46.10673" lon="5.9639">
        <ele>478.1</ele>
        <time>2022-09-27T11:44:01Z</time>
      </trkpt>
      <trkpt lat="46.10676" lon="5.96386">
        <ele>477.9</ele>
        <time>2022-09-27T11:44:02Z</time>
      </trkpt>
      <trkpt lat="46.1068" lon="5.96385">
        <ele>477.7</ele>
        <time>2022-09-27T11:44:03Z</time>
      </trkpt>
      <trkpt lat="46.10684" lon="5.96383">
        <ele>477.5</ele>
        <time>2022-09-27T11:44:04Z</time>
      </trkpt>
      <trkpt lat="46.10688" lon="5.96379">
        <ele>477.3</ele>
        <time>2022-09-27T11:44:05Z</time>
      </trkpt>
      <trkpt lat="46.10692" lon="5.96376">
        <ele>477.1</ele>
        <time>2022-09-27T11:44:06Z</time>
      </trkpt>
      <trkpt lat="46.10695" lon="5.96371">
        <ele>476.9</ele>
        <time>2022-09-27T11:44:07Z</time>
      </trkpt>
      <trkpt lat="46.107" lon="5.96365">
        <ele>476.7</ele>
        <time>2022-09-27T11:44:08Z</time>
      </trkpt>
      <trkpt lat="46.10705" lon="5.96363">
        <ele>476.6</ele>
        <time>2022-09-27T11:44:09Z</time>
      </trkpt>
      <trkpt lat="46.10709" lon="5.96359">
        <ele>476.5</ele>
        <time>2022-09-27T11:44:10Z</time>
      </trkpt>
      <trkpt lat="46.10713" lon="5.96357">
        <ele>476.3</ele>
        <time>2022-09-27T11:44:11Z</time>
      </trkpt>
      <trkpt lat="46.10718" lon="5.96354">
        <ele>476.2</ele>
        <time>2022-09-27T11:44:12Z</time>
      </trkpt>
      <trkpt lat="46.10721" lon="5.96353">
        <ele>476.1</ele>
        <time>2022-09-27T11:44:13Z</time>
      </trkpt>
      <trkpt lat="46.10724" lon="5.96352">
        <ele>476</ele>
        <time>2022-09-27T11:44:14Z</time>
      </trkpt>
      <trkpt lat="46.10729" lon="5.96349">
        <ele>475.8</ele>
        <time>2022-09-27T11:44:15Z</time>
      </trkpt>
      <trkpt lat="46.10731" lon="5.96348">
        <ele>475.8</ele>
        <time>2022-09-27T11:44:16Z</time>
      </trkpt>
      <trkpt lat="46.10735" lon="5.96346">
        <ele>475.6</ele>
        <time>2022-09-27T11:44:17Z</time>
      </trkpt>
      <trkpt lat="46.10739" lon="5.96347">
        <ele>475.5</ele>
        <time>2022-09-27T11:44:18Z</time>
      </trkpt>
      <trkpt lat="46.10743" lon="5.96349">
        <ele>475.4</ele>
        <time>2022-09-27T11:44:19Z</time>
      </trkpt>
      <trkpt lat="46.10747" lon="5.96349">
        <ele>475.3</ele>
        <time>2022-09-27T11:44:20Z</time>
      </trkpt>
      <trkpt lat="46.10751" lon="5.96351">
        <ele>475.2</ele>
        <time>2022-09-27T11:44:21Z</time>
      </trkpt>
      <trkpt lat="46.10756" lon="5.96353">
        <ele>475.1</ele>
        <time>2022-09-27T11:44:22Z</time>
      </trkpt>
      <trkpt lat="46.10761" lon="5.96358">
        <ele>475</ele>
        <time>2022-09-27T11:44:23Z</time>
      </trkpt>
      <trkpt lat="46.10766" lon="5.96362">
        <ele>475</ele>
        <time>2022-09-27T11:44:24Z</time>
      </trkpt>
      <trkpt lat="46.10769" lon="5.96369">
        <ele>475</ele>
        <time>2022-09-27T11:44:25Z</time>
      </trkpt>
      <trkpt lat="46.10773" lon="5.96381">
        <ele>475</ele>
        <time>2022-09-27T11:44:26Z</time>
      </trkpt>
      <trkpt lat="46.10775" lon="5.96387">
        <ele>475.1</ele>
        <time>2022-09-27T11:44:27Z</time>
      </trkpt>
      <trkpt lat="46.10777" lon="5.96392">
        <ele>475.1</ele>
        <time>2022-09-27T11:44:28Z</time>
      </trkpt>
      <trkpt lat="46.10778" lon="5.96396">
        <ele>475.1</ele>
        <time>2022-09-27T11:44:29Z</time>
      </trkpt>
      <trkpt lat="46.10779" lon="5.964">
        <ele>475.1</ele>
        <time>2022-09-27T11:44:30Z</time>
      </trkpt>
      <trkpt lat="46.10781" lon="5.96404">
        <ele>475.2</ele>
        <time>2022-09-27T11:44:31Z</time>
      </trkpt>
      <trkpt lat="46.10784" lon="5.96405">
        <ele>475.4</ele>
        <time>2022-09-27T11:44:32Z</time>
      </trkpt>
      <trkpt lat="46.10787" lon="5.96405">
        <ele>475.2</ele>
        <time>2022-09-27T11:44:33Z</time>
      </trkpt>
      <trkpt lat="46.10791" lon="5.96403">
        <ele>475</ele>
        <time>2022-09-27T11:44:34Z</time>
      </trkpt>
      <trkpt lat="46.10794" lon="5.96398">
        <ele>474.8</ele>
        <time>2022-09-27T11:44:35Z</time>
      </trkpt>
      <trkpt lat="46.10798" lon="5.96396">
        <ele>474.6</ele>
        <time>2022-09-27T11:44:36Z</time>
      </trkpt>
      <trkpt lat="46.10803" lon="5.96395">
        <ele>474.3</ele>
        <time>2022-09-27T11:44:37Z</time>
      </trkpt>
      <trkpt lat="46.10808" lon="5.96393">
        <ele>474</ele>
        <time>2022-09-27T11:44:38Z</time>
      </trkpt>
      <trkpt lat="46.10813" lon="5.96391">
        <ele>473.7</ele>
        <time>2022-09-27T11:44:39Z</time>
      </trkpt>
      <trkpt lat="46.10817" lon="5.96388">
        <ele>473.5</ele>
        <time>2022-09-27T11:44:40Z</time>
      </trkpt>
      <trkpt lat="46.10823" lon="5.96386">
        <ele>473.2</ele>
        <time>2022-09-27T11:44:41Z</time>
      </trkpt>
      <trkpt lat="46.10829" lon="5.96383">
        <ele>472.9</ele>
        <time>2022-09-27T11:44:42Z</time>
      </trkpt>
      <trkpt lat="46.10833" lon="5.96381">
        <ele>472.7</ele>
        <time>2022-09-27T11:44:43Z</time>
      </trkpt>
      <trkpt lat="46.10837" lon="5.96382">
        <ele>472.5</ele>
        <time>2022-09-27T11:44:44Z</time>
      </trkpt>
      <trkpt lat="46.10841" lon="5.9638">
        <ele>472.4</ele>
        <time>2022-09-27T11:44:45Z</time>
      </trkpt>
      <trkpt lat="46.10844" lon="5.96377">
        <ele>472.2</ele>
        <time>2022-09-27T11:44:46Z</time>
      </trkpt>
      <trkpt lat="46.10846" lon="5.96376">
        <ele>472.1</ele>
        <time>2022-09-27T11:44:47Z</time>
      </trkpt>
      <trkpt lat="46.10847" lon="5.96377">
        <ele>472</ele>
        <time>2022-09-27T11:44:48Z</time>
      </trkpt>
      <trkpt lat="46.10849" lon="5.96376">
        <ele>471.8</ele>
        <time>2022-09-27T11:44:49Z</time>
      </trkpt>
      <trkpt lat="46.10853" lon="5.96374">
        <ele>471.4</ele>
        <time>2022-09-27T11:44:50Z</time>
      </trkpt>
      <trkpt lat="46.10855" lon="5.96373">
        <ele>471.2</ele>
        <time>2022-09-27T11:44:51Z</time>
      </trkpt>
      <trkpt lat="46.10858" lon="5.96371">
        <ele>470.9</ele>
        <time>2022-09-27T11:44:52Z</time>
      </trkpt>
      <trkpt lat="46.10862" lon="5.9637">
        <ele>470.6</ele>
        <time>2022-09-27T11:44:53Z</time>
      </trkpt>
      <trkpt lat="46.10867" lon="5.96368">
        <ele>470.4</ele>
        <time>2022-09-27T11:44:54Z</time>
      </trkpt>
      <trkpt lat="46.10871" lon="5.96367">
        <ele>470.2</ele>
        <time>2022-09-27T11:44:55Z</time>
      </trkpt>
      <trkpt lat="46.10876" lon="5.96365">
        <ele>470</ele>
        <time>2022-09-27T11:44:56Z</time>
      </trkpt>
      <trkpt lat="46.10882" lon="5.96365">
        <ele>469.8</ele>
        <time>2022-09-27T11:44:57Z</time>
      </trkpt>
      <trkpt lat="46.10888" lon="5.96363">
        <ele>469.5</ele>
        <time>2022-09-27T11:44:58Z</time>
      </trkpt>
      <trkpt lat="46.10894" lon="5.96361">
        <ele>469.3</ele>
        <time>2022-09-27T11:44:59Z</time>
      </trkpt>
      <trkpt lat="46.109" lon="5.96359">
        <ele>469.1</ele>
        <time>2022-09-27T11:45:00Z</time>
      </trkpt>
      <trkpt lat="46.10907" lon="5.96358">
        <ele>468.9</ele>
        <time>2022-09-27T11:45:01Z</time>
      </trkpt>
      <trkpt lat="46.10913" lon="5.96357">
        <ele>468.7</ele>
        <time>2022-09-27T11:45:02Z</time>
      </trkpt>
      <trkpt lat="46.10919" lon="5.96358">
        <ele>468.5</ele>
        <time>2022-09-27T11:45:03Z</time>
      </trkpt>
      <trkpt lat="46.10925" lon="5.96356">
        <ele>468.3</ele>
        <time>2022-09-27T11:45:04Z</time>
      </trkpt>
      <trkpt lat="46.10932" lon="5.96354">
        <ele>468.1</ele>
        <time>2022-09-27T11:45:05Z</time>
      </trkpt>
      <trkpt lat="46.10938" lon="5.96353">
        <ele>467.9</ele>
        <time>2022-09-27T11:45:06Z</time>
      </trkpt>
      <trkpt lat="46.10944" lon="5.96351">
        <ele>467.7</ele>
        <time>2022-09-27T11:45:07Z</time>
      </trkpt>
      <trkpt lat="46.10951" lon="5.9635">
        <ele>467.5</ele>
        <time>2022-09-27T11:45:08Z</time>
      </trkpt>
      <trkpt lat="46.10957" lon="5.96348">
        <ele>467.2</ele>
        <time>2022-09-27T11:45:09Z</time>
      </trkpt>
      <trkpt lat="46.10964" lon="5.96346">
        <ele>467</ele>
        <time>2022-09-27T11:45:10Z</time>
      </trkpt>
      <trkpt lat="46.10971" lon="5.96344">
        <ele>466.8</ele>
        <time>2022-09-27T11:45:11Z</time>
      </trkpt>
      <trkpt lat="46.10977" lon="5.96342">
        <ele>466.5</ele>
        <time>2022-09-27T11:45:12Z</time>
      </trkpt>
      <trkpt lat="46.10984" lon="5.9634">
        <ele>466.3</ele>
        <time>2022-09-27T11:45:13Z</time>
      </trkpt>
      <trkpt lat="46.1099" lon="5.96337">
        <ele>466.1</ele>
        <time>2022-09-27T11:45:14Z</time>
      </trkpt>
      <trkpt lat="46.10997" lon="5.96334">
        <ele>465.8</ele>
        <time>2022-09-27T11:45:15Z</time>
      </trkpt>
      <trkpt lat="46.11004" lon="5.96331">
        <ele>465.6</ele>
        <time>2022-09-27T11:45:16Z</time>
      </trkpt>
      <trkpt lat="46.11011" lon="5.96328">
        <ele>465.4</ele>
        <time>2022-09-27T11:45:17Z</time>
      </trkpt>
      <trkpt lat="46.11018" lon="5.96326">
        <ele>465.2</ele>
        <time>2022-09-27T11:45:18Z</time>
      </trkpt>
      <trkpt lat="46.11024" lon="5.96325">
        <ele>465.1</ele>
        <time>2022-09-27T11:45:19Z</time>
      </trkpt>
      <trkpt lat="46.1103" lon="5.96321">
        <ele>464.9</ele>
        <time>2022-09-27T11:45:20Z</time>
      </trkpt>
      <trkpt lat="46.11037" lon="5.96318">
        <ele>464.7</ele>
        <time>2022-09-27T11:45:21Z</time>
      </trkpt>
      <trkpt lat="46.11043" lon="5.96316">
        <ele>464.6</ele>
        <time>2022-09-27T11:45:22Z</time>
      </trkpt>
      <trkpt lat="46.11049" lon="5.96313">
        <ele>464.4</ele>
        <time>2022-09-27T11:45:23Z</time>
      </trkpt>
      <trkpt lat="46.11054" lon="5.96312">
        <ele>464.3</ele>
        <time>2022-09-27T11:45:24Z</time>
      </trkpt>
      <trkpt lat="46.11059" lon="5.96311">
        <ele>464.2</ele>
        <time>2022-09-27T11:45:25Z</time>
      </trkpt>
      <trkpt lat="46.11064" lon="5.96311">
        <ele>464.1</ele>
        <time>2022-09-27T11:45:26Z</time>
      </trkpt>
      <trkpt lat="46.11069" lon="5.96315">
        <ele>464</ele>
        <time>2022-09-27T11:45:27Z</time>
      </trkpt>
      <trkpt lat="46.11074" lon="5.96317">
        <ele>463.9</ele>
        <time>2022-09-27T11:45:28Z</time>
      </trkpt>
      <trkpt lat="46.11079" lon="5.96321">
        <ele>463.8</ele>
        <time>2022-09-27T11:45:29Z</time>
      </trkpt>
      <trkpt lat="46.11083" lon="5.96325">
        <ele>463.7</ele>
        <time>2022-09-27T11:45:30Z</time>
      </trkpt>
      <trkpt lat="46.11088" lon="5.96331">
        <ele>463.6</ele>
        <time>2022-09-27T11:45:31Z</time>
      </trkpt>
      <trkpt lat="46.1109" lon="5.96337">
        <ele>463.5</ele>
        <time>2022-09-27T11:45:32Z</time>
      </trkpt>
      <trkpt lat="46.11093" lon="5.96345">
        <ele>463.4</ele>
        <time>2022-09-27T11:45:33Z</time>
      </trkpt>
      <trkpt lat="46.11096" lon="5.96351">
        <ele>463.3</ele>
        <time>2022-09-27T11:45:34Z</time>
      </trkpt>
      <trkpt lat="46.11098" lon="5.96359">
        <ele>463.2</ele>
        <time>2022-09-27T11:45:35Z</time>
      </trkpt>
      <trkpt lat="46.11101" lon="5.96366">
        <ele>463.1</ele>
        <time>2022-09-27T11:45:36Z</time>
      </trkpt>
      <trkpt lat="46.11105" lon="5.96373">
        <ele>463</ele>
        <time>2022-09-27T11:45:37Z</time>
      </trkpt>
      <trkpt lat="46.11107" lon="5.9638">
        <ele>462.9</ele>
        <time>2022-09-27T11:45:38Z</time>
      </trkpt>
      <trkpt lat="46.11111" lon="5.96388">
        <ele>462.8</ele>
        <time>2022-09-27T11:45:39Z</time>
      </trkpt>
      <trkpt lat="46.11114" lon="5.96395">
        <ele>462.7</ele>
        <time>2022-09-27T11:45:40Z</time>
      </trkpt>
      <trkpt lat="46.11117" lon="5.96402">
        <ele>462.7</ele>
        <time>2022-09-27T11:45:41Z</time>
      </trkpt>
      <trkpt lat="46.11121" lon="5.96409">
        <ele>462.6</ele>
        <time>2022-09-27T11:45:42Z</time>
      </trkpt>
      <trkpt lat="46.11124" lon="5.96417">
        <ele>462.4</ele>
        <time>2022-09-27T11:45:43Z</time>
      </trkpt>
      <trkpt lat="46.11129" lon="5.96422">
        <ele>462.3</ele>
        <time>2022-09-27T11:45:44Z</time>
      </trkpt>
      <trkpt lat="46.11132" lon="5.9643">
        <ele>462.2</ele>
        <time>2022-09-27T11:45:45Z</time>
      </trkpt>
      <trkpt lat="46.11137" lon="5.96436">
        <ele>462.1</ele>
        <time>2022-09-27T11:45:46Z</time>
      </trkpt>
      <trkpt lat="46.11141" lon="5.96441">
        <ele>462</ele>
        <time>2022-09-27T11:45:47Z</time>
      </trkpt>
      <trkpt lat="46.11145" lon="5.96447">
        <ele>461.9</ele>
        <time>2022-09-27T11:45:48Z</time>
      </trkpt>
      <trkpt lat="46.11149" lon="5.96453">
        <ele>461.8</ele>
        <time>2022-09-27T11:45:49Z</time>
      </trkpt>
      <trkpt lat="46.11152" lon="5.96458">
        <ele>461.7</ele>
        <time>2022-09-27T11:45:50Z</time>
      </trkpt>
      <trkpt lat="46.11156" lon="5.96462">
        <ele>461.6</ele>
        <time>2022-09-27T11:45:51Z</time>
      </trkpt>
      <trkpt lat="46.11159" lon="5.96467">
        <ele>461.5</ele>
        <time>2022-09-27T11:45:52Z</time>
      </trkpt>
      <trkpt lat="46.11161" lon="5.96469">
        <ele>461.5</ele>
        <time>2022-09-27T11:45:53Z</time>
      </trkpt>
      <trkpt lat="46.11164" lon="5.96472">
        <ele>461.4</ele>
        <time>2022-09-27T11:45:54Z</time>
      </trkpt>
      <trkpt lat="46.11165" lon="5.96474">
        <ele>461.4</ele>
        <time>2022-09-27T11:45:55Z</time>
      </trkpt>
      <trkpt lat="46.11168" lon="5.96472">
        <ele>461.3</ele>
        <time>2022-09-27T11:45:56Z</time>
      </trkpt>
      <trkpt lat="46.11171" lon="5.9647">
        <ele>461.2</ele>
        <time>2022-09-27T11:45:57Z</time>
      </trkpt>
      <trkpt lat="46.11174" lon="5.96466">
        <ele>461.1</ele>
        <time>2022-09-27T11:45:59Z</time>
      </trkpt>
      <trkpt lat="46.11177" lon="5.96463">
        <ele>461</ele>
        <time>2022-09-27T11:46:00Z</time>
      </trkpt>
      <trkpt lat="46.11181" lon="5.96459">
        <ele>460.9</ele>
        <time>2022-09-27T11:46:01Z</time>
      </trkpt>
      <trkpt lat="46.11184" lon="5.96458">
        <ele>460.9</ele>
        <time>2022-09-27T11:46:02Z</time>
      </trkpt>
      <trkpt lat="46.11189" lon="5.96455">
        <ele>460.8</ele>
        <time>2022-09-27T11:46:03Z</time>
      </trkpt>
      <trkpt lat="46.11193" lon="5.96453">
        <ele>460.7</ele>
        <time>2022-09-27T11:46:04Z</time>
      </trkpt>
      <trkpt lat="46.11198" lon="5.96451">
        <ele>460.6</ele>
        <time>2022-09-27T11:46:05Z</time>
      </trkpt>
      <trkpt lat="46.11203" lon="5.96449">
        <ele>460.5</ele>
        <time>2022-09-27T11:46:06Z</time>
      </trkpt>
      <trkpt lat="46.11207" lon="5.96448">
        <ele>460.4</ele>
        <time>2022-09-27T11:46:07Z</time>
      </trkpt>
      <trkpt lat="46.11213" lon="5.96443">
        <ele>460.2</ele>
        <time>2022-09-27T11:46:08Z</time>
      </trkpt>
      <trkpt lat="46.11219" lon="5.96442">
        <ele>460.1</ele>
        <time>2022-09-27T11:46:09Z</time>
      </trkpt>
      <trkpt lat="46.11224" lon="5.96438">
        <ele>460</ele>
        <time>2022-09-27T11:46:10Z</time>
      </trkpt>
      <trkpt lat="46.11229" lon="5.96436">
        <ele>459.8</ele>
        <time>2022-09-27T11:46:11Z</time>
      </trkpt>
      <trkpt lat="46.11235" lon="5.96433">
        <ele>459.7</ele>
        <time>2022-09-27T11:46:12Z</time>
      </trkpt>
      <trkpt lat="46.1124" lon="5.96429">
        <ele>459.5</ele>
        <time>2022-09-27T11:46:13Z</time>
      </trkpt>
      <trkpt lat="46.11245" lon="5.96426">
        <ele>459.3</ele>
        <time>2022-09-27T11:46:14Z</time>
      </trkpt>
      <trkpt lat="46.11251" lon="5.96423">
        <ele>459.2</ele>
        <time>2022-09-27T11:46:15Z</time>
      </trkpt>
      <trkpt lat="46.11257" lon="5.96419">
        <ele>459.1</ele>
        <time>2022-09-27T11:46:16Z</time>
      </trkpt>
      <trkpt lat="46.11262" lon="5.96414">
        <ele>459</ele>
        <time>2022-09-27T11:46:17Z</time>
      </trkpt>
      <trkpt lat="46.11267" lon="5.9641">
        <ele>459</ele>
        <time>2022-09-27T11:46:18Z</time>
      </trkpt>
      <trkpt lat="46.11271" lon="5.96405">
        <ele>458.9</ele>
        <time>2022-09-27T11:46:19Z</time>
      </trkpt>
      <trkpt lat="46.11276" lon="5.964">
        <ele>458.7</ele>
        <time>2022-09-27T11:46:20Z</time>
      </trkpt>
      <trkpt lat="46.11281" lon="5.96394">
        <ele>458.6</ele>
        <time>2022-09-27T11:46:21Z</time>
      </trkpt>
      <trkpt lat="46.11286" lon="5.96389">
        <ele>458.5</ele>
        <time>2022-09-27T11:46:22Z</time>
      </trkpt>
      <trkpt lat="46.11291" lon="5.96383">
        <ele>458.4</ele>
        <time>2022-09-27T11:46:23Z</time>
      </trkpt>
      <trkpt lat="46.11296" lon="5.96377">
        <ele>458.2</ele>
        <time>2022-09-27T11:46:24Z</time>
      </trkpt>
      <trkpt lat="46.11301" lon="5.96371">
        <ele>458.1</ele>
        <time>2022-09-27T11:46:25Z</time>
      </trkpt>
      <trkpt lat="46.11305" lon="5.96366">
        <ele>457.9</ele>
        <time>2022-09-27T11:46:26Z</time>
      </trkpt>
      <trkpt lat="46.1131" lon="5.9636">
        <ele>457.8</ele>
        <time>2022-09-27T11:46:27Z</time>
      </trkpt>
      <trkpt lat="46.11315" lon="5.96355">
        <ele>457.6</ele>
        <time>2022-09-27T11:46:28Z</time>
      </trkpt>
      <trkpt lat="46.11325" lon="5.96344">
        <ele>457.3</ele>
        <time>2022-09-27T11:46:29Z</time>
      </trkpt>
      <trkpt lat="46.1133" lon="5.96338">
        <ele>457.1</ele>
        <time>2022-09-27T11:46:30Z</time>
      </trkpt>
      <trkpt lat="46.11335" lon="5.96333">
        <ele>457</ele>
        <time>2022-09-27T11:46:31Z</time>
      </trkpt>
      <trkpt lat="46.1134" lon="5.96328">
        <ele>456.8</ele>
        <time>2022-09-27T11:46:32Z</time>
      </trkpt>
      <trkpt lat="46.11346" lon="5.96322">
        <ele>456.6</ele>
        <time>2022-09-27T11:46:33Z</time>
      </trkpt>
      <trkpt lat="46.11351" lon="5.96316">
        <ele>456.5</ele>
        <time>2022-09-27T11:46:34Z</time>
      </trkpt>
      <trkpt lat="46.11356" lon="5.96311">
        <ele>456.3</ele>
        <time>2022-09-27T11:46:35Z</time>
      </trkpt>
      <trkpt lat="46.11362" lon="5.96306">
        <ele>456.1</ele>
        <time>2022-09-27T11:46:36Z</time>
      </trkpt>
      <trkpt lat="46.11367" lon="5.96301">
        <ele>456</ele>
        <time>2022-09-27T11:46:37Z</time>
      </trkpt>
      <trkpt lat="46.11372" lon="5.96295">
        <ele>455.8</ele>
        <time>2022-09-27T11:46:38Z</time>
      </trkpt>
      <trkpt lat="46.11377" lon="5.9629">
        <ele>455.6</ele>
        <time>2022-09-27T11:46:39Z</time>
      </trkpt>
      <trkpt lat="46.11382" lon="5.96285">
        <ele>455.4</ele>
        <time>2022-09-27T11:46:40Z</time>
      </trkpt>
      <trkpt lat="46.11387" lon="5.9628">
        <ele>455.2</ele>
        <time>2022-09-27T11:46:41Z</time>
      </trkpt>
      <trkpt lat="46.11392" lon="5.96275">
        <ele>455</ele>
        <time>2022-09-27T11:46:42Z</time>
      </trkpt>
      <trkpt lat="46.11397" lon="5.9627">
        <ele>454.9</ele>
        <time>2022-09-27T11:46:43Z</time>
      </trkpt>
      <trkpt lat="46.11402" lon="5.96266">
        <ele>454.7</ele>
        <time>2022-09-27T11:46:44Z</time>
      </trkpt>
      <trkpt lat="46.11408" lon="5.96262">
        <ele>454.5</ele>
        <time>2022-09-27T11:46:45Z</time>
      </trkpt>
      <trkpt lat="46.11414" lon="5.96259">
        <ele>454.4</ele>
        <time>2022-09-27T11:46:46Z</time>
      </trkpt>
      <trkpt lat="46.11419" lon="5.96255">
        <ele>454.3</ele>
        <time>2022-09-27T11:46:47Z</time>
      </trkpt>
      <trkpt lat="46.11425" lon="5.96253">
        <ele>454.2</ele>
        <time>2022-09-27T11:46:48Z</time>
      </trkpt>
      <trkpt lat="46.11431" lon="5.9625">
        <ele>454.1</ele>
        <time>2022-09-27T11:46:49Z</time>
      </trkpt>
      <trkpt lat="46.11436" lon="5.96248">
        <ele>454.1</ele>
        <time>2022-09-27T11:46:50Z</time>
      </trkpt>
      <trkpt lat="46.11441" lon="5.96246">
        <ele>454</ele>
        <time>2022-09-27T11:46:51Z</time>
      </trkpt>
      <trkpt lat="46.11445" lon="5.96243">
        <ele>454</ele>
        <time>2022-09-27T11:46:52Z</time>
      </trkpt>
      <trkpt lat="46.1145" lon="5.9624">
        <ele>453.9</ele>
        <time>2022-09-27T11:46:53Z</time>
      </trkpt>
      <trkpt lat="46.11455" lon="5.96239">
        <ele>453.9</ele>
        <time>2022-09-27T11:46:54Z</time>
      </trkpt>
      <trkpt lat="46.11459" lon="5.96239">
        <ele>453.8</ele>
        <time>2022-09-27T11:46:55Z</time>
      </trkpt>
      <trkpt lat="46.11463" lon="5.96238">
        <ele>453.7</ele>
        <time>2022-09-27T11:46:56Z</time>
      </trkpt>
      <trkpt lat="46.11468" lon="5.96238">
        <ele>453.7</ele>
        <time>2022-09-27T11:46:57Z</time>
      </trkpt>
      <trkpt lat="46.11473" lon="5.96238">
        <ele>453.6</ele>
        <time>2022-09-27T11:46:58Z</time>
      </trkpt>
      <trkpt lat="46.11478" lon="5.96239">
        <ele>453.5</ele>
        <time>2022-09-27T11:46:59Z</time>
      </trkpt>
      <trkpt lat="46.11484" lon="5.96239">
        <ele>453.4</ele>
        <time>2022-09-27T11:47:00Z</time>
      </trkpt>
      <trkpt lat="46.11491" lon="5.96241">
        <ele>453.3</ele>
        <time>2022-09-27T11:47:01Z</time>
      </trkpt>
      <trkpt lat="46.11497" lon="5.96241">
        <ele>453.2</ele>
        <time>2022-09-27T11:47:02Z</time>
      </trkpt>
      <trkpt lat="46.11503" lon="5.9624">
        <ele>453.1</ele>
        <time>2022-09-27T11:47:03Z</time>
      </trkpt>
      <trkpt lat="46.1151" lon="5.96238">
        <ele>452.9</ele>
        <time>2022-09-27T11:47:04Z</time>
      </trkpt>
      <trkpt lat="46.11517" lon="5.96234">
        <ele>452.8</ele>
        <time>2022-09-27T11:47:05Z</time>
      </trkpt>
      <trkpt lat="46.11523" lon="5.96229">
        <ele>452.6</ele>
        <time>2022-09-27T11:47:06Z</time>
      </trkpt>
      <trkpt lat="46.11529" lon="5.96224">
        <ele>452.4</ele>
        <time>2022-09-27T11:47:07Z</time>
      </trkpt>
      <trkpt lat="46.11535" lon="5.96219">
        <ele>452.2</ele>
        <time>2022-09-27T11:47:08Z</time>
      </trkpt>
      <trkpt lat="46.11541" lon="5.96214">
        <ele>451.9</ele>
        <time>2022-09-27T11:47:09Z</time>
      </trkpt>
      <trkpt lat="46.11546" lon="5.96209">
        <ele>451.8</ele>
        <time>2022-09-27T11:47:10Z</time>
      </trkpt>
      <trkpt lat="46.11552" lon="5.96204">
        <ele>451.6</ele>
        <time>2022-09-27T11:47:11Z</time>
      </trkpt>
      <trkpt lat="46.11558" lon="5.96199">
        <ele>451.4</ele>
        <time>2022-09-27T11:47:12Z</time>
      </trkpt>
      <trkpt lat="46.11564" lon="5.96193">
        <ele>451.3</ele>
        <time>2022-09-27T11:47:13Z</time>
      </trkpt>
      <trkpt lat="46.1157" lon="5.96188">
        <ele>451.1</ele>
        <time>2022-09-27T11:47:14Z</time>
      </trkpt>
      <trkpt lat="46.11576" lon="5.96183">
        <ele>451</ele>
        <time>2022-09-27T11:47:15Z</time>
      </trkpt>
      <trkpt lat="46.11582" lon="5.96178">
        <ele>450.8</ele>
        <time>2022-09-27T11:47:16Z</time>
      </trkpt>
      <trkpt lat="46.11588" lon="5.96173">
        <ele>450.7</ele>
        <time>2022-09-27T11:47:17Z</time>
      </trkpt>
      <trkpt lat="46.11594" lon="5.96168">
        <ele>450.6</ele>
        <time>2022-09-27T11:47:18Z</time>
      </trkpt>
      <trkpt lat="46.11599" lon="5.96164">
        <ele>450.5</ele>
        <time>2022-09-27T11:47:19Z</time>
      </trkpt>
      <trkpt lat="46.11605" lon="5.9616">
        <ele>450.3</ele>
        <time>2022-09-27T11:47:20Z</time>
      </trkpt>
      <trkpt lat="46.11611" lon="5.96159">
        <ele>450.2</ele>
        <time>2022-09-27T11:47:21Z</time>
      </trkpt>
      <trkpt lat="46.11617" lon="5.96156">
        <ele>450.1</ele>
        <time>2022-09-27T11:47:22Z</time>
      </trkpt>
      <trkpt lat="46.11622" lon="5.96154">
        <ele>450</ele>
        <time>2022-09-27T11:47:23Z</time>
      </trkpt>
      <trkpt lat="46.11628" lon="5.96155">
        <ele>450</ele>
        <time>2022-09-27T11:47:24Z</time>
      </trkpt>
      <trkpt lat="46.11632" lon="5.96159">
        <ele>450</ele>
        <time>2022-09-27T11:47:25Z</time>
      </trkpt>
      <trkpt lat="46.11638" lon="5.96161">
        <ele>449.9</ele>
        <time>2022-09-27T11:47:26Z</time>
      </trkpt>
      <trkpt lat="46.11643" lon="5.96164">
        <ele>449.9</ele>
        <time>2022-09-27T11:47:27Z</time>
      </trkpt>
      <trkpt lat="46.11649" lon="5.96168">
        <ele>449.8</ele>
        <time>2022-09-27T11:47:28Z</time>
      </trkpt>
      <trkpt lat="46.11653" lon="5.96173">
        <ele>449.8</ele>
        <time>2022-09-27T11:47:29Z</time>
      </trkpt>
      <trkpt lat="46.11657" lon="5.96177">
        <ele>449.7</ele>
        <time>2022-09-27T11:47:30Z</time>
      </trkpt>
      <trkpt lat="46.11661" lon="5.9618">
        <ele>449.7</ele>
        <time>2022-09-27T11:47:31Z</time>
      </trkpt>
      <trkpt lat="46.11662" lon="5.96185">
        <ele>449.7</ele>
        <time>2022-09-27T11:47:32Z</time>
      </trkpt>
      <trkpt lat="46.11666" lon="5.96189">
        <ele>449.6</ele>
        <time>2022-09-27T11:47:33Z</time>
      </trkpt>
      <trkpt lat="46.11669" lon="5.96193">
        <ele>449.5</ele>
        <time>2022-09-27T11:47:34Z</time>
      </trkpt>
      <trkpt lat="46.11672" lon="5.96199">
        <ele>449.5</ele>
        <time>2022-09-27T11:47:35Z</time>
      </trkpt>
      <trkpt lat="46.11677" lon="5.96203">
        <ele>449.4</ele>
        <time>2022-09-27T11:47:36Z</time>
      </trkpt>
      <trkpt lat="46.11681" lon="5.96207">
        <ele>449.4</ele>
        <time>2022-09-27T11:47:37Z</time>
      </trkpt>
      <trkpt lat="46.11684" lon="5.96209">
        <ele>449.3</ele>
        <time>2022-09-27T11:47:38Z</time>
      </trkpt>
      <trkpt lat="46.11686" lon="5.96212">
        <ele>449.1</ele>
        <time>2022-09-27T11:47:39Z</time>
      </trkpt>
      <trkpt lat="46.1169" lon="5.96212">
        <ele>449.1</ele>
        <time>2022-09-27T11:47:40Z</time>
      </trkpt>
      <trkpt lat="46.11694" lon="5.96212">
        <ele>449</ele>
        <time>2022-09-27T11:47:41Z</time>
      </trkpt>
      <trkpt lat="46.11697" lon="5.96212">
        <ele>449</ele>
        <time>2022-09-27T11:47:42Z</time>
      </trkpt>
      <trkpt lat="46.117" lon="5.96212">
        <ele>448.9</ele>
        <time>2022-09-27T11:47:43Z</time>
      </trkpt>
      <trkpt lat="46.11701" lon="5.96213">
        <ele>448.9</ele>
        <time>2022-09-27T11:47:44Z</time>
      </trkpt>
      <trkpt lat="46.11702" lon="5.96213">
        <ele>448.9</ele>
        <time>2022-09-27T11:47:45Z</time>
      </trkpt>
      <trkpt lat="46.11703" lon="5.96214">
        <ele>448.9</ele>
        <time>2022-09-27T11:47:46Z</time>
      </trkpt>
      <trkpt lat="46.11703" lon="5.96215">
        <ele>448.9</ele>
        <time>2022-09-27T11:47:47Z</time>
      </trkpt>
      <trkpt lat="46.11703" lon="5.96215">
        <ele>448.9</ele>
        <time>2022-09-27T11:47:48Z</time>
      </trkpt>
      <trkpt lat="46.11704" lon="5.96215">
        <ele>448.8</ele>
        <time>2022-09-27T11:47:49Z</time>
      </trkpt>
      <trkpt lat="46.11705" lon="5.96215">
        <ele>448.8</ele>
        <time>2022-09-27T11:47:50Z</time>
      </trkpt>
      <trkpt lat="46.11705" lon="5.96216">
        <ele>448.8</ele>
        <time>2022-09-27T11:47:51Z</time>
      </trkpt>
      <trkpt lat="46.11706" lon="5.96217">
        <ele>448.8</ele>
        <time>2022-09-27T11:47:52Z</time>
      </trkpt>
      <trkpt lat="46.11706" lon="5.96217">
        <ele>448.8</ele>
        <time>2022-09-27T11:47:53Z</time>
      </trkpt>
      <trkpt lat="46.11706" lon="5.96218">
        <ele>448.8</ele>
        <time>2022-09-27T11:47:54Z</time>
      </trkpt>
      <trkpt lat="46.11711" lon="5.96216">
        <ele>448.7</ele>
        <time>2022-09-27T11:48:49Z</time>
      </trkpt>
      <trkpt lat="46.11713" lon="5.96215">
        <ele>448.6</ele>
        <time>2022-09-27T11:48:50Z</time>
      </trkpt>
      <trkpt lat="46.11714" lon="5.96214">
        <ele>448.6</ele>
        <time>2022-09-27T11:48:51Z</time>
      </trkpt>
      <trkpt lat="46.11716" lon="5.96214">
        <ele>448.6</ele>
        <time>2022-09-27T11:48:52Z</time>
      </trkpt>
      <trkpt lat="46.11719" lon="5.96212">
        <ele>448.5</ele>
        <time>2022-09-27T11:48:53Z</time>
      </trkpt>
      <trkpt lat="46.1172" lon="5.96212">
        <ele>448.5</ele>
        <time>2022-09-27T11:48:54Z</time>
      </trkpt>
      <trkpt lat="46.11724" lon="5.9621">
        <ele>448.4</ele>
        <time>2022-09-27T11:48:55Z</time>
      </trkpt>
      <trkpt lat="46.11726" lon="5.9621">
        <ele>448.4</ele>
        <time>2022-09-27T11:48:56Z</time>
      </trkpt>
      <trkpt lat="46.1173" lon="5.96208">
        <ele>448.3</ele>
        <time>2022-09-27T11:48:57Z</time>
      </trkpt>
      <trkpt lat="46.11731" lon="5.96207">
        <ele>448.2</ele>
        <time>2022-09-27T11:48:58Z</time>
      </trkpt>
      <trkpt lat="46.11735" lon="5.96207">
        <ele>448.2</ele>
        <time>2022-09-27T11:48:59Z</time>
      </trkpt>
      <trkpt lat="46.11738" lon="5.96206">
        <ele>448.1</ele>
        <time>2022-09-27T11:49:00Z</time>
      </trkpt>
      <trkpt lat="46.11742" lon="5.96205">
        <ele>448.1</ele>
        <time>2022-09-27T11:49:01Z</time>
      </trkpt>
      <trkpt lat="46.11745" lon="5.96204">
        <ele>448</ele>
        <time>2022-09-27T11:49:02Z</time>
      </trkpt>
      <trkpt lat="46.11749" lon="5.96202">
        <ele>448</ele>
        <time>2022-09-27T11:49:03Z</time>
      </trkpt>
      <trkpt lat="46.11754" lon="5.96201">
        <ele>447.9</ele>
        <time>2022-09-27T11:49:04Z</time>
      </trkpt>
      <trkpt lat="46.11758" lon="5.96199">
        <ele>447.8</ele>
        <time>2022-09-27T11:49:05Z</time>
      </trkpt>
      <trkpt lat="46.11762" lon="5.96198">
        <ele>447.8</ele>
        <time>2022-09-27T11:49:06Z</time>
      </trkpt>
      <trkpt lat="46.11766" lon="5.96197">
        <ele>447.7</ele>
        <time>2022-09-27T11:49:07Z</time>
      </trkpt>
      <trkpt lat="46.1177" lon="5.96196">
        <ele>447.6</ele>
        <time>2022-09-27T11:49:08Z</time>
      </trkpt>
      <trkpt lat="46.11775" lon="5.96194">
        <ele>447.6</ele>
        <time>2022-09-27T11:49:09Z</time>
      </trkpt>
      <trkpt lat="46.11779" lon="5.96192">
        <ele>447.5</ele>
        <time>2022-09-27T11:49:10Z</time>
      </trkpt>
      <trkpt lat="46.11784" lon="5.9619">
        <ele>447.4</ele>
        <time>2022-09-27T11:49:11Z</time>
      </trkpt>
      <trkpt lat="46.11788" lon="5.96188">
        <ele>447.4</ele>
        <time>2022-09-27T11:49:12Z</time>
      </trkpt>
      <trkpt lat="46.11793" lon="5.96187">
        <ele>447.3</ele>
        <time>2022-09-27T11:49:13Z</time>
      </trkpt>
      <trkpt lat="46.11797" lon="5.96186">
        <ele>447.3</ele>
        <time>2022-09-27T11:49:14Z</time>
      </trkpt>
      <trkpt lat="46.11802" lon="5.96184">
        <ele>447.2</ele>
        <time>2022-09-27T11:49:15Z</time>
      </trkpt>
      <trkpt lat="46.11808" lon="5.96183">
        <ele>447.1</ele>
        <time>2022-09-27T11:49:16Z</time>
      </trkpt>
      <trkpt lat="46.11813" lon="5.9618">
        <ele>447.1</ele>
        <time>2022-09-27T11:49:17Z</time>
      </trkpt>
      <trkpt lat="46.11819" lon="5.96178">
        <ele>447</ele>
        <time>2022-09-27T11:49:18Z</time>
      </trkpt>
      <trkpt lat="46.11823" lon="5.96176">
        <ele>447</ele>
        <time>2022-09-27T11:49:19Z</time>
      </trkpt>
      <trkpt lat="46.11827" lon="5.96175">
        <ele>446.9</ele>
        <time>2022-09-27T11:49:20Z</time>
      </trkpt>
      <trkpt lat="46.11833" lon="5.96173">
        <ele>446.9</ele>
        <time>2022-09-27T11:49:21Z</time>
      </trkpt>
      <trkpt lat="46.11839" lon="5.96173">
        <ele>446.8</ele>
        <time>2022-09-27T11:49:22Z</time>
      </trkpt>
      <trkpt lat="46.11845" lon="5.96172">
        <ele>446.8</ele>
        <time>2022-09-27T11:49:23Z</time>
      </trkpt>
      <trkpt lat="46.1185" lon="5.96173">
        <ele>446.7</ele>
        <time>2022-09-27T11:49:24Z</time>
      </trkpt>
      <trkpt lat="46.11853" lon="5.96174">
        <ele>446.7</ele>
        <time>2022-09-27T11:49:25Z</time>
      </trkpt>
      <trkpt lat="46.11858" lon="5.96175">
        <ele>446.6</ele>
        <time>2022-09-27T11:49:26Z</time>
      </trkpt>
      <trkpt lat="46.11861" lon="5.96177">
        <ele>446.6</ele>
        <time>2022-09-27T11:49:27Z</time>
      </trkpt>
      <trkpt lat="46.11865" lon="5.9618">
        <ele>446.5</ele>
        <time>2022-09-27T11:49:28Z</time>
      </trkpt>
      <trkpt lat="46.11872" lon="5.96183">
        <ele>446.4</ele>
        <time>2022-09-27T11:49:29Z</time>
      </trkpt>
      <trkpt lat="46.11876" lon="5.96184">
        <ele>446.3</ele>
        <time>2022-09-27T11:49:30Z</time>
      </trkpt>
      <trkpt lat="46.11881" lon="5.96186">
        <ele>446.3</ele>
        <time>2022-09-27T11:49:31Z</time>
      </trkpt>
      <trkpt lat="46.11883" lon="5.96188">
        <ele>446.2</ele>
        <time>2022-09-27T11:49:32Z</time>
      </trkpt>
      <trkpt lat="46.11888" lon="5.96189">
        <ele>446.2</ele>
        <time>2022-09-27T11:49:33Z</time>
      </trkpt>
      <trkpt lat="46.11892" lon="5.96191">
        <ele>446.1</ele>
        <time>2022-09-27T11:49:34Z</time>
      </trkpt>
      <trkpt lat="46.11896" lon="5.96192">
        <ele>446.1</ele>
        <time>2022-09-27T11:49:35Z</time>
      </trkpt>
      <trkpt lat="46.119" lon="5.96194">
        <ele>446</ele>
        <time>2022-09-27T11:49:36Z</time>
      </trkpt>
      <trkpt lat="46.11904" lon="5.96197">
        <ele>446</ele>
        <time>2022-09-27T11:49:37Z</time>
      </trkpt>
      <trkpt lat="46.11907" lon="5.96198">
        <ele>446</ele>
        <time>2022-09-27T11:49:38Z</time>
      </trkpt>
      <trkpt lat="46.1191" lon="5.96199">
        <ele>446</ele>
        <time>2022-09-27T11:49:39Z</time>
      </trkpt>
      <trkpt lat="46.11915" lon="5.96202">
        <ele>445.9</ele>
        <time>2022-09-27T11:49:40Z</time>
      </trkpt>
      <trkpt lat="46.11919" lon="5.96205">
        <ele>445.9</ele>
        <time>2022-09-27T11:49:41Z</time>
      </trkpt>
      <trkpt lat="46.11922" lon="5.96206">
        <ele>445.9</ele>
        <time>2022-09-27T11:49:42Z</time>
      </trkpt>
      <trkpt lat="46.11928" lon="5.96209">
        <ele>445.8</ele>
        <time>2022-09-27T11:49:43Z</time>
      </trkpt>
      <trkpt lat="46.11933" lon="5.96211">
        <ele>445.8</ele>
        <time>2022-09-27T11:49:44Z</time>
      </trkpt>
      <trkpt lat="46.11936" lon="5.96213">
        <ele>445.7</ele>
        <time>2022-09-27T11:49:45Z</time>
      </trkpt>
      <trkpt lat="46.1194" lon="5.96214">
        <ele>445.7</ele>
        <time>2022-09-27T11:49:46Z</time>
      </trkpt>
      <trkpt lat="46.11946" lon="5.96215">
        <ele>445.6</ele>
        <time>2022-09-27T11:49:47Z</time>
      </trkpt>
      <trkpt lat="46.11954" lon="5.96217">
        <ele>445.5</ele>
        <time>2022-09-27T11:49:48Z</time>
      </trkpt>
      <trkpt lat="46.1196" lon="5.96218">
        <ele>445.4</ele>
        <time>2022-09-27T11:49:49Z</time>
      </trkpt>
      <trkpt lat="46.11966" lon="5.96219">
        <ele>445.4</ele>
        <time>2022-09-27T11:49:50Z</time>
      </trkpt>
      <trkpt lat="46.11971" lon="5.96221">
        <ele>445.3</ele>
        <time>2022-09-27T11:49:51Z</time>
      </trkpt>
      <trkpt lat="46.11976" lon="5.96224">
        <ele>445.3</ele>
        <time>2022-09-27T11:49:52Z</time>
      </trkpt>
      <trkpt lat="46.11982" lon="5.96223">
        <ele>445.2</ele>
        <time>2022-09-27T11:49:53Z</time>
      </trkpt>
      <trkpt lat="46.11988" lon="5.96223">
        <ele>445.1</ele>
        <time>2022-09-27T11:49:54Z</time>
      </trkpt>
      <trkpt lat="46.11992" lon="5.96223">
        <ele>445.1</ele>
        <time>2022-09-27T11:49:55Z</time>
      </trkpt>
      <trkpt lat="46.11998" lon="5.96223">
        <ele>445</ele>
        <time>2022-09-27T11:49:56Z</time>
      </trkpt>
      <trkpt lat="46.12003" lon="5.96223">
        <ele>444.9</ele>
        <time>2022-09-27T11:49:57Z</time>
      </trkpt>
      <trkpt lat="46.12008" lon="5.96222">
        <ele>444.8</ele>
        <time>2022-09-27T11:49:58Z</time>
      </trkpt>
      <trkpt lat="46.12014" lon="5.96224">
        <ele>444.7</ele>
        <time>2022-09-27T11:49:59Z</time>
      </trkpt>
      <trkpt lat="46.1202" lon="5.96222">
        <ele>444.6</ele>
        <time>2022-09-27T11:50:00Z</time>
      </trkpt>
      <trkpt lat="46.12023" lon="5.96222">
        <ele>444.5</ele>
        <time>2022-09-27T11:50:01Z</time>
      </trkpt>
      <trkpt lat="46.12027" lon="5.9622">
        <ele>444.5</ele>
        <time>2022-09-27T11:50:02Z</time>
      </trkpt>
      <trkpt lat="46.12031" lon="5.96219">
        <ele>444.4</ele>
        <time>2022-09-27T11:50:03Z</time>
      </trkpt>
      <trkpt lat="46.12036" lon="5.96219">
        <ele>444.3</ele>
        <time>2022-09-27T11:50:04Z</time>
      </trkpt>
      <trkpt lat="46.12041" lon="5.96218">
        <ele>444.2</ele>
        <time>2022-09-27T11:50:05Z</time>
      </trkpt>
      <trkpt lat="46.12046" lon="5.96217">
        <ele>444.1</ele>
        <time>2022-09-27T11:50:06Z</time>
      </trkpt>
      <trkpt lat="46.12049" lon="5.96216">
        <ele>444</ele>
        <time>2022-09-27T11:50:07Z</time>
      </trkpt>
      <trkpt lat="46.12053" lon="5.96215">
        <ele>444</ele>
        <time>2022-09-27T11:50:08Z</time>
      </trkpt>
      <trkpt lat="46.12057" lon="5.96213">
        <ele>443.9</ele>
        <time>2022-09-27T11:50:09Z</time>
      </trkpt>
      <trkpt lat="46.1206" lon="5.96212">
        <ele>443.8</ele>
        <time>2022-09-27T11:50:11Z</time>
      </trkpt>
      <trkpt lat="46.12065" lon="5.96211">
        <ele>443.7</ele>
        <time>2022-09-27T11:50:12Z</time>
      </trkpt>
      <trkpt lat="46.12069" lon="5.96209">
        <ele>443.6</ele>
        <time>2022-09-27T11:50:13Z</time>
      </trkpt>
      <trkpt lat="46.12074" lon="5.96207">
        <ele>443.5</ele>
        <time>2022-09-27T11:50:14Z</time>
      </trkpt>
      <trkpt lat="46.1208" lon="5.96205">
        <ele>443.4</ele>
        <time>2022-09-27T11:50:15Z</time>
      </trkpt>
      <trkpt lat="46.12084" lon="5.96203">
        <ele>443.3</ele>
        <time>2022-09-27T11:50:16Z</time>
      </trkpt>
      <trkpt lat="46.12091" lon="5.962">
        <ele>443.2</ele>
        <time>2022-09-27T11:50:17Z</time>
      </trkpt>
      <trkpt lat="46.12096" lon="5.96197">
        <ele>443.1</ele>
        <time>2022-09-27T11:50:18Z</time>
      </trkpt>
      <trkpt lat="46.12101" lon="5.96195">
        <ele>443</ele>
        <time>2022-09-27T11:50:19Z</time>
      </trkpt>
      <trkpt lat="46.12105" lon="5.96193">
        <ele>443</ele>
        <time>2022-09-27T11:50:20Z</time>
      </trkpt>
      <trkpt lat="46.12112" lon="5.96191">
        <ele>442.9</ele>
        <time>2022-09-27T11:50:21Z</time>
      </trkpt>
      <trkpt lat="46.12118" lon="5.96188">
        <ele>442.8</ele>
        <time>2022-09-27T11:50:22Z</time>
      </trkpt>
      <trkpt lat="46.12123" lon="5.96186">
        <ele>442.8</ele>
        <time>2022-09-27T11:50:23Z</time>
      </trkpt>
      <trkpt lat="46.12129" lon="5.96183">
        <ele>442.7</ele>
        <time>2022-09-27T11:50:24Z</time>
      </trkpt>
      <trkpt lat="46.12134" lon="5.9618">
        <ele>442.6</ele>
        <time>2022-09-27T11:50:25Z</time>
      </trkpt>
      <trkpt lat="46.1214" lon="5.96177">
        <ele>442.6</ele>
        <time>2022-09-27T11:50:26Z</time>
      </trkpt>
      <trkpt lat="46.12145" lon="5.96175">
        <ele>442.5</ele>
        <time>2022-09-27T11:50:27Z</time>
      </trkpt>
      <trkpt lat="46.12149" lon="5.96173">
        <ele>442.5</ele>
        <time>2022-09-27T11:50:28Z</time>
      </trkpt>
      <trkpt lat="46.12153" lon="5.9617">
        <ele>442.4</ele>
        <time>2022-09-27T11:50:29Z</time>
      </trkpt>
      <trkpt lat="46.12159" lon="5.96168">
        <ele>442.3</ele>
        <time>2022-09-27T11:50:30Z</time>
      </trkpt>
      <trkpt lat="46.12164" lon="5.96164">
        <ele>442.3</ele>
        <time>2022-09-27T11:50:31Z</time>
      </trkpt>
      <trkpt lat="46.12169" lon="5.9616">
        <ele>442.2</ele>
        <time>2022-09-27T11:50:32Z</time>
      </trkpt>
      <trkpt lat="46.12174" lon="5.96157">
        <ele>442.2</ele>
        <time>2022-09-27T11:50:33Z</time>
      </trkpt>
      <trkpt lat="46.12177" lon="5.96155">
        <ele>442.1</ele>
        <time>2022-09-27T11:50:34Z</time>
      </trkpt>
      <trkpt lat="46.1218" lon="5.96151">
        <ele>442.1</ele>
        <time>2022-09-27T11:50:35Z</time>
      </trkpt>
      <trkpt lat="46.12186" lon="5.96147">
        <ele>442</ele>
        <time>2022-09-27T11:50:36Z</time>
      </trkpt>
      <trkpt lat="46.12191" lon="5.96144">
        <ele>442</ele>
        <time>2022-09-27T11:50:37Z</time>
      </trkpt>
      <trkpt lat="46.12194" lon="5.96142">
        <ele>441.9</ele>
        <time>2022-09-27T11:50:38Z</time>
      </trkpt>
      <trkpt lat="46.12199" lon="5.96137">
        <ele>441.9</ele>
        <time>2022-09-27T11:50:39Z</time>
      </trkpt>
      <trkpt lat="46.12206" lon="5.96131">
        <ele>441.8</ele>
        <time>2022-09-27T11:50:40Z</time>
      </trkpt>
      <trkpt lat="46.12211" lon="5.96127">
        <ele>441.7</ele>
        <time>2022-09-27T11:50:41Z</time>
      </trkpt>
      <trkpt lat="46.12216" lon="5.96123">
        <ele>441.7</ele>
        <time>2022-09-27T11:50:42Z</time>
      </trkpt>
      <trkpt lat="46.1222" lon="5.96122">
        <ele>441.6</ele>
        <time>2022-09-27T11:50:43Z</time>
      </trkpt>
      <trkpt lat="46.12224" lon="5.96118">
        <ele>441.5</ele>
        <time>2022-09-27T11:50:44Z</time>
      </trkpt>
      <trkpt lat="46.1223" lon="5.96112">
        <ele>441.4</ele>
        <time>2022-09-27T11:50:45Z</time>
      </trkpt>
      <trkpt lat="46.12234" lon="5.96108">
        <ele>441.4</ele>
        <time>2022-09-27T11:50:46Z</time>
      </trkpt>
      <trkpt lat="46.12239" lon="5.96106">
        <ele>441.3</ele>
        <time>2022-09-27T11:50:47Z</time>
      </trkpt>
      <trkpt lat="46.12244" lon="5.96102">
        <ele>441.2</ele>
        <time>2022-09-27T11:50:48Z</time>
      </trkpt>
      <trkpt lat="46.12248" lon="5.96099">
        <ele>441.1</ele>
        <time>2022-09-27T11:50:49Z</time>
      </trkpt>
      <trkpt lat="46.12251" lon="5.96096">
        <ele>441</ele>
        <time>2022-09-27T11:50:50Z</time>
      </trkpt>
      <trkpt lat="46.12258" lon="5.96093">
        <ele>440.9</ele>
        <time>2022-09-27T11:50:51Z</time>
      </trkpt>
      <trkpt lat="46.12263" lon="5.96091">
        <ele>440.8</ele>
        <time>2022-09-27T11:50:52Z</time>
      </trkpt>
      <trkpt lat="46.12269" lon="5.9609">
        <ele>440.7</ele>
        <time>2022-09-27T11:50:53Z</time>
      </trkpt>
      <trkpt lat="46.12275" lon="5.96088">
        <ele>440.6</ele>
        <time>2022-09-27T11:50:54Z</time>
      </trkpt>
      <trkpt lat="46.1228" lon="5.96086">
        <ele>440.5</ele>
        <time>2022-09-27T11:50:55Z</time>
      </trkpt>
      <trkpt lat="46.12283" lon="5.96083">
        <ele>440.4</ele>
        <time>2022-09-27T11:50:56Z</time>
      </trkpt>
      <trkpt lat="46.12289" lon="5.96082">
        <ele>440.3</ele>
        <time>2022-09-27T11:50:57Z</time>
      </trkpt>
      <trkpt lat="46.12293" lon="5.96079">
        <ele>440.2</ele>
        <time>2022-09-27T11:50:58Z</time>
      </trkpt>
      <trkpt lat="46.12298" lon="5.96076">
        <ele>440</ele>
        <time>2022-09-27T11:50:59Z</time>
      </trkpt>
      <trkpt lat="46.12303" lon="5.96071">
        <ele>439.8</ele>
        <time>2022-09-27T11:51:00Z</time>
      </trkpt>
      <trkpt lat="46.12305" lon="5.9607">
        <ele>439.7</ele>
        <time>2022-09-27T11:51:01Z</time>
      </trkpt>
      <trkpt lat="46.12309" lon="5.96067">
        <ele>439.5</ele>
        <time>2022-09-27T11:51:02Z</time>
      </trkpt>
      <trkpt lat="46.12315" lon="5.96063">
        <ele>439.3</ele>
        <time>2022-09-27T11:51:03Z</time>
      </trkpt>
      <trkpt lat="46.12318" lon="5.9606">
        <ele>439.2</ele>
        <time>2022-09-27T11:51:04Z</time>
      </trkpt>
      <trkpt lat="46.12322" lon="5.96057">
        <ele>439</ele>
        <time>2022-09-27T11:51:05Z</time>
      </trkpt>
      <trkpt lat="46.12325" lon="5.96054">
        <ele>438.8</ele>
        <time>2022-09-27T11:51:06Z</time>
      </trkpt>
      <trkpt lat="46.12328" lon="5.96053">
        <ele>438.7</ele>
        <time>2022-09-27T11:51:07Z</time>
      </trkpt>
      <trkpt lat="46.12331" lon="5.96049">
        <ele>438.5</ele>
        <time>2022-09-27T11:51:08Z</time>
      </trkpt>
      <trkpt lat="46.12335" lon="5.96046">
        <ele>438.4</ele>
        <time>2022-09-27T11:51:09Z</time>
      </trkpt>
      <trkpt lat="46.12339" lon="5.96044">
        <ele>438.2</ele>
        <time>2022-09-27T11:51:10Z</time>
      </trkpt>
      <trkpt lat="46.12343" lon="5.9604">
        <ele>437.9</ele>
        <time>2022-09-27T11:51:11Z</time>
      </trkpt>
      <trkpt lat="46.12347" lon="5.96037">
        <ele>437.7</ele>
        <time>2022-09-27T11:51:12Z</time>
      </trkpt>
      <trkpt lat="46.12351" lon="5.96033">
        <ele>437.5</ele>
        <time>2022-09-27T11:51:13Z</time>
      </trkpt>
      <trkpt lat="46.12356" lon="5.96029">
        <ele>437.3</ele>
        <time>2022-09-27T11:51:14Z</time>
      </trkpt>
      <trkpt lat="46.12361" lon="5.96026">
        <ele>437.1</ele>
        <time>2022-09-27T11:51:15Z</time>
      </trkpt>
      <trkpt lat="46.12364" lon="5.96025">
        <ele>436.9</ele>
        <time>2022-09-27T11:51:16Z</time>
      </trkpt>
      <trkpt lat="46.12367" lon="5.96022">
        <ele>436.7</ele>
        <time>2022-09-27T11:51:17Z</time>
      </trkpt>
      <trkpt lat="46.12372" lon="5.96018">
        <ele>436.5</ele>
        <time>2022-09-27T11:51:18Z</time>
      </trkpt>
      <trkpt lat="46.12377" lon="5.96015">
        <ele>436.3</ele>
        <time>2022-09-27T11:51:19Z</time>
      </trkpt>
      <trkpt lat="46.12382" lon="5.96013">
        <ele>436.1</ele>
        <time>2022-09-27T11:51:20Z</time>
      </trkpt>
      <trkpt lat="46.12386" lon="5.96011">
        <ele>436</ele>
        <time>2022-09-27T11:51:21Z</time>
      </trkpt>
      <trkpt lat="46.12392" lon="5.96009">
        <ele>435.8</ele>
        <time>2022-09-27T11:51:22Z</time>
      </trkpt>
      <trkpt lat="46.12396" lon="5.96008">
        <ele>435.6</ele>
        <time>2022-09-27T11:51:23Z</time>
      </trkpt>
      <trkpt lat="46.12401" lon="5.9601">
        <ele>435.4</ele>
        <time>2022-09-27T11:51:24Z</time>
      </trkpt>
      <trkpt lat="46.12407" lon="5.96011">
        <ele>435.2</ele>
        <time>2022-09-27T11:51:25Z</time>
      </trkpt>
      <trkpt lat="46.12415" lon="5.96009">
        <ele>435</ele>
        <time>2022-09-27T11:51:26Z</time>
      </trkpt>
      <trkpt lat="46.12421" lon="5.96009">
        <ele>434.8</ele>
        <time>2022-09-27T11:51:27Z</time>
      </trkpt>
      <trkpt lat="46.12427" lon="5.96008">
        <ele>434.6</ele>
        <time>2022-09-27T11:51:28Z</time>
      </trkpt>
      <trkpt lat="46.12432" lon="5.96007">
        <ele>434.5</ele>
        <time>2022-09-27T11:51:29Z</time>
      </trkpt>
      <trkpt lat="46.12439" lon="5.96004">
        <ele>434.3</ele>
        <time>2022-09-27T11:51:30Z</time>
      </trkpt>
      <trkpt lat="46.12445" lon="5.96005">
        <ele>434.1</ele>
        <time>2022-09-27T11:51:31Z</time>
      </trkpt>
      <trkpt lat="46.12454" lon="5.96003">
        <ele>433.9</ele>
        <time>2022-09-27T11:51:32Z</time>
      </trkpt>
      <trkpt lat="46.12461" lon="5.96">
        <ele>433.7</ele>
        <time>2022-09-27T11:51:33Z</time>
      </trkpt>
      <trkpt lat="46.12466" lon="5.95997">
        <ele>433.5</ele>
        <time>2022-09-27T11:51:34Z</time>
      </trkpt>
      <trkpt lat="46.12473" lon="5.95998">
        <ele>433.4</ele>
        <time>2022-09-27T11:51:35Z</time>
      </trkpt>
      <trkpt lat="46.12478" lon="5.95997">
        <ele>433.3</ele>
        <time>2022-09-27T11:51:36Z</time>
      </trkpt>
      <trkpt lat="46.12486" lon="5.95996">
        <ele>433.1</ele>
        <time>2022-09-27T11:51:37Z</time>
      </trkpt>
      <trkpt lat="46.12491" lon="5.95995">
        <ele>432.9</ele>
        <time>2022-09-27T11:51:38Z</time>
      </trkpt>
      <trkpt lat="46.12499" lon="5.95994">
        <ele>432.7</ele>
        <time>2022-09-27T11:51:39Z</time>
      </trkpt>
      <trkpt lat="46.12506" lon="5.95995">
        <ele>432.5</ele>
        <time>2022-09-27T11:51:40Z</time>
      </trkpt>
      <trkpt lat="46.12513" lon="5.95996">
        <ele>432.3</ele>
        <time>2022-09-27T11:51:41Z</time>
      </trkpt>
      <trkpt lat="46.12519" lon="5.95997">
        <ele>432.1</ele>
        <time>2022-09-27T11:51:42Z</time>
      </trkpt>
      <trkpt lat="46.12524" lon="5.95999">
        <ele>431.9</ele>
        <time>2022-09-27T11:51:43Z</time>
      </trkpt>
      <trkpt lat="46.12532" lon="5.96001">
        <ele>431.6</ele>
        <time>2022-09-27T11:51:44Z</time>
      </trkpt>
      <trkpt lat="46.12536" lon="5.96003">
        <ele>431.4</ele>
        <time>2022-09-27T11:51:45Z</time>
      </trkpt>
      <trkpt lat="46.12542" lon="5.96008">
        <ele>431.2</ele>
        <time>2022-09-27T11:51:46Z</time>
      </trkpt>
      <trkpt lat="46.12549" lon="5.96014">
        <ele>431</ele>
        <time>2022-09-27T11:51:47Z</time>
      </trkpt>
      <trkpt lat="46.12554" lon="5.96018">
        <ele>430.8</ele>
        <time>2022-09-27T11:51:48Z</time>
      </trkpt>
      <trkpt lat="46.12559" lon="5.9602">
        <ele>430.6</ele>
        <time>2022-09-27T11:51:49Z</time>
      </trkpt>
      <trkpt lat="46.12565" lon="5.96023">
        <ele>430.5</ele>
        <time>2022-09-27T11:51:50Z</time>
      </trkpt>
      <trkpt lat="46.12572" lon="5.96025">
        <ele>430.3</ele>
        <time>2022-09-27T11:51:51Z</time>
      </trkpt>
      <trkpt lat="46.12574" lon="5.96028">
        <ele>430.2</ele>
        <time>2022-09-27T11:51:52Z</time>
      </trkpt>
      <trkpt lat="46.12581" lon="5.96029">
        <ele>430</ele>
        <time>2022-09-27T11:51:53Z</time>
      </trkpt>
      <trkpt lat="46.12587" lon="5.96031">
        <ele>429.9</ele>
        <time>2022-09-27T11:51:54Z</time>
      </trkpt>
      <trkpt lat="46.12593" lon="5.96032">
        <ele>429.8</ele>
        <time>2022-09-27T11:51:55Z</time>
      </trkpt>
      <trkpt lat="46.126" lon="5.96034">
        <ele>429.7</ele>
        <time>2022-09-27T11:51:56Z</time>
      </trkpt>
      <trkpt lat="46.12604" lon="5.96035">
        <ele>429.6</ele>
        <time>2022-09-27T11:51:57Z</time>
      </trkpt>
      <trkpt lat="46.12609" lon="5.96038">
        <ele>429.5</ele>
        <time>2022-09-27T11:51:58Z</time>
      </trkpt>
      <trkpt lat="46.12614" lon="5.96039">
        <ele>429.5</ele>
        <time>2022-09-27T11:51:59Z</time>
      </trkpt>
      <trkpt lat="46.1262" lon="5.9604">
        <ele>429.3</ele>
        <time>2022-09-27T11:52:00Z</time>
      </trkpt>
      <trkpt lat="46.12627" lon="5.96041">
        <ele>429.2</ele>
        <time>2022-09-27T11:52:01Z</time>
      </trkpt>
      <trkpt lat="46.12631" lon="5.96043">
        <ele>429.2</ele>
        <time>2022-09-27T11:52:02Z</time>
      </trkpt>
      <trkpt lat="46.12637" lon="5.96044">
        <ele>429.1</ele>
        <time>2022-09-27T11:52:03Z</time>
      </trkpt>
      <trkpt lat="46.12643" lon="5.96044">
        <ele>429</ele>
        <time>2022-09-27T11:52:04Z</time>
      </trkpt>
      <trkpt lat="46.12649" lon="5.96045">
        <ele>428.9</ele>
        <time>2022-09-27T11:52:05Z</time>
      </trkpt>
      <trkpt lat="46.12651" lon="5.96049">
        <ele>428.8</ele>
        <time>2022-09-27T11:52:06Z</time>
      </trkpt>
      <trkpt lat="46.12656" lon="5.96051">
        <ele>428.7</ele>
        <time>2022-09-27T11:52:07Z</time>
      </trkpt>
      <trkpt lat="46.12659" lon="5.96052">
        <ele>428.6</ele>
        <time>2022-09-27T11:52:08Z</time>
      </trkpt>
      <trkpt lat="46.12662" lon="5.96051">
        <ele>428.6</ele>
        <time>2022-09-27T11:52:09Z</time>
      </trkpt>
      <trkpt lat="46.12666" lon="5.96051">
        <ele>428.5</ele>
        <time>2022-09-27T11:52:10Z</time>
      </trkpt>
      <trkpt lat="46.12668" lon="5.96054">
        <ele>428.4</ele>
        <time>2022-09-27T11:52:11Z</time>
      </trkpt>
      <trkpt lat="46.12669" lon="5.96059">
        <ele>428.4</ele>
        <time>2022-09-27T11:52:12Z</time>
      </trkpt>
      <trkpt lat="46.12672" lon="5.96062">
        <ele>428.3</ele>
        <time>2022-09-27T11:52:13Z</time>
      </trkpt>
      <trkpt lat="46.12677" lon="5.96062">
        <ele>428.2</ele>
        <time>2022-09-27T11:52:14Z</time>
      </trkpt>
      <trkpt lat="46.12687" lon="5.9607">
        <ele>428</ele>
        <time>2022-09-27T11:52:15Z</time>
      </trkpt>
      <trkpt lat="46.12692" lon="5.96071">
        <ele>427.9</ele>
        <time>2022-09-27T11:52:17Z</time>
      </trkpt>
      <trkpt lat="46.12697" lon="5.96072">
        <ele>427.8</ele>
        <time>2022-09-27T11:52:18Z</time>
      </trkpt>
      <trkpt lat="46.12701" lon="5.96074">
        <ele>427.7</ele>
        <time>2022-09-27T11:52:19Z</time>
      </trkpt>
      <trkpt lat="46.12706" lon="5.96076">
        <ele>427.6</ele>
        <time>2022-09-27T11:52:20Z</time>
      </trkpt>
      <trkpt lat="46.1271" lon="5.96078">
        <ele>427.5</ele>
        <time>2022-09-27T11:52:21Z</time>
      </trkpt>
      <trkpt lat="46.12713" lon="5.96079">
        <ele>427.4</ele>
        <time>2022-09-27T11:52:22Z</time>
      </trkpt>
      <trkpt lat="46.12719" lon="5.96082">
        <ele>427.4</ele>
        <time>2022-09-27T11:52:23Z</time>
      </trkpt>
      <trkpt lat="46.12723" lon="5.96083">
        <ele>427.3</ele>
        <time>2022-09-27T11:52:24Z</time>
      </trkpt>
      <trkpt lat="46.12729" lon="5.96084">
        <ele>427.3</ele>
        <time>2022-09-27T11:52:25Z</time>
      </trkpt>
      <trkpt lat="46.12738" lon="5.96086">
        <ele>427.2</ele>
        <time>2022-09-27T11:52:26Z</time>
      </trkpt>
      <trkpt lat="46.12743" lon="5.96087">
        <ele>427.2</ele>
        <time>2022-09-27T11:52:27Z</time>
      </trkpt>
      <trkpt lat="46.12747" lon="5.96089">
        <ele>427.2</ele>
        <time>2022-09-27T11:52:29Z</time>
      </trkpt>
      <trkpt lat="46.12755" lon="5.96092">
        <ele>427.1</ele>
        <time>2022-09-27T11:52:30Z</time>
      </trkpt>
      <trkpt lat="46.1276" lon="5.96095">
        <ele>427</ele>
        <time>2022-09-27T11:52:31Z</time>
      </trkpt>
      <trkpt lat="46.12762" lon="5.96099">
        <ele>426.9</ele>
        <time>2022-09-27T11:52:32Z</time>
      </trkpt>
      <trkpt lat="46.12766" lon="5.96104">
        <ele>426.8</ele>
        <time>2022-09-27T11:52:33Z</time>
      </trkpt>
      <trkpt lat="46.12769" lon="5.96109">
        <ele>426.7</ele>
        <time>2022-09-27T11:52:34Z</time>
      </trkpt>
      <trkpt lat="46.12773" lon="5.96113">
        <ele>426.6</ele>
        <time>2022-09-27T11:52:35Z</time>
      </trkpt>
      <trkpt lat="46.12778" lon="5.96118">
        <ele>426.6</ele>
        <time>2022-09-27T11:52:36Z</time>
      </trkpt>
      <trkpt lat="46.12774" lon="5.96117">
        <ele>426.5</ele>
        <time>2022-09-27T11:52:37Z</time>
      </trkpt>
      <trkpt lat="46.12779" lon="5.96121">
        <ele>426.4</ele>
        <time>2022-09-27T11:52:38Z</time>
      </trkpt>
      <trkpt lat="46.12782" lon="5.96127">
        <ele>426.3</ele>
        <time>2022-09-27T11:52:39Z</time>
      </trkpt>
      <trkpt lat="46.12785" lon="5.96134">
        <ele>426.2</ele>
        <time>2022-09-27T11:52:40Z</time>
      </trkpt>
      <trkpt lat="46.12788" lon="5.96142">
        <ele>426.1</ele>
        <time>2022-09-27T11:52:41Z</time>
      </trkpt>
      <trkpt lat="46.12792" lon="5.96147">
        <ele>426</ele>
        <time>2022-09-27T11:52:42Z</time>
      </trkpt>
      <trkpt lat="46.12797" lon="5.96156">
        <ele>425.9</ele>
        <time>2022-09-27T11:52:43Z</time>
      </trkpt>
      <trkpt lat="46.12803" lon="5.96162">
        <ele>425.8</ele>
        <time>2022-09-27T11:52:44Z</time>
      </trkpt>
      <trkpt lat="46.12807" lon="5.96169">
        <ele>425.7</ele>
        <time>2022-09-27T11:52:45Z</time>
      </trkpt>
      <trkpt lat="46.12812" lon="5.96178">
        <ele>425.5</ele>
        <time>2022-09-27T11:52:46Z</time>
      </trkpt>
      <trkpt lat="46.12814" lon="5.96187">
        <ele>425.4</ele>
        <time>2022-09-27T11:52:47Z</time>
      </trkpt>
      <trkpt lat="46.12818" lon="5.96197">
        <ele>425.2</ele>
        <time>2022-09-27T11:52:48Z</time>
      </trkpt>
      <trkpt lat="46.12822" lon="5.96206">
        <ele>425.1</ele>
        <time>2022-09-27T11:52:49Z</time>
      </trkpt>
      <trkpt lat="46.12825" lon="5.96214">
        <ele>425</ele>
        <time>2022-09-27T11:52:50Z</time>
      </trkpt>
      <trkpt lat="46.12828" lon="5.96219">
        <ele>424.9</ele>
        <time>2022-09-27T11:52:51Z</time>
      </trkpt>
      <trkpt lat="46.1283" lon="5.96225">
        <ele>424.9</ele>
        <time>2022-09-27T11:52:52Z</time>
      </trkpt>
      <trkpt lat="46.12833" lon="5.96231">
        <ele>424.8</ele>
        <time>2022-09-27T11:52:53Z</time>
      </trkpt>
      <trkpt lat="46.12835" lon="5.96235">
        <ele>424.8</ele>
        <time>2022-09-27T11:52:54Z</time>
      </trkpt>
      <trkpt lat="46.12839" lon="5.96241">
        <ele>424.7</ele>
        <time>2022-09-27T11:52:55Z</time>
      </trkpt>
      <trkpt lat="46.12843" lon="5.96246">
        <ele>424.7</ele>
        <time>2022-09-27T11:52:56Z</time>
      </trkpt>
      <trkpt lat="46.12847" lon="5.96255">
        <ele>424.6</ele>
        <time>2022-09-27T11:52:57Z</time>
      </trkpt>
      <trkpt lat="46.12851" lon="5.9626">
        <ele>424.6</ele>
        <time>2022-09-27T11:52:58Z</time>
      </trkpt>
      <trkpt lat="46.12855" lon="5.96266">
        <ele>424.5</ele>
        <time>2022-09-27T11:52:59Z</time>
      </trkpt>
      <trkpt lat="46.12858" lon="5.9627">
        <ele>424.5</ele>
        <time>2022-09-27T11:53:00Z</time>
      </trkpt>
      <trkpt lat="46.1286" lon="5.96276">
        <ele>424.4</ele>
        <time>2022-09-27T11:53:01Z</time>
      </trkpt>
      <trkpt lat="46.12863" lon="5.96284">
        <ele>424.4</ele>
        <time>2022-09-27T11:53:02Z</time>
      </trkpt>
      <trkpt lat="46.12866" lon="5.96291">
        <ele>424.3</ele>
        <time>2022-09-27T11:53:03Z</time>
      </trkpt>
      <trkpt lat="46.1287" lon="5.96295">
        <ele>424.3</ele>
        <time>2022-09-27T11:53:04Z</time>
      </trkpt>
      <trkpt lat="46.12873" lon="5.96301">
        <ele>424.2</ele>
        <time>2022-09-27T11:53:05Z</time>
      </trkpt>
      <trkpt lat="46.12878" lon="5.96305">
        <ele>424.1</ele>
        <time>2022-09-27T11:53:06Z</time>
      </trkpt>
      <trkpt lat="46.12883" lon="5.9631">
        <ele>424.1</ele>
        <time>2022-09-27T11:53:07Z</time>
      </trkpt>
      <trkpt lat="46.12888" lon="5.96316">
        <ele>424</ele>
        <time>2022-09-27T11:53:08Z</time>
      </trkpt>
      <trkpt lat="46.12891" lon="5.9632">
        <ele>423.9</ele>
        <time>2022-09-27T11:53:09Z</time>
      </trkpt>
      <trkpt lat="46.12894" lon="5.96324">
        <ele>423.9</ele>
        <time>2022-09-27T11:53:10Z</time>
      </trkpt>
      <trkpt lat="46.12898" lon="5.96329">
        <ele>423.8</ele>
        <time>2022-09-27T11:53:11Z</time>
      </trkpt>
      <trkpt lat="46.12904" lon="5.96334">
        <ele>423.7</ele>
        <time>2022-09-27T11:53:12Z</time>
      </trkpt>
      <trkpt lat="46.12907" lon="5.96338">
        <ele>423.6</ele>
        <time>2022-09-27T11:53:13Z</time>
      </trkpt>
      <trkpt lat="46.12911" lon="5.96341">
        <ele>423.6</ele>
        <time>2022-09-27T11:53:14Z</time>
      </trkpt>
      <trkpt lat="46.12916" lon="5.96345">
        <ele>423.5</ele>
        <time>2022-09-27T11:53:15Z</time>
      </trkpt>
      <trkpt lat="46.12923" lon="5.96347">
        <ele>423.5</ele>
        <time>2022-09-27T11:53:16Z</time>
      </trkpt>
      <trkpt lat="46.12927" lon="5.96348">
        <ele>423.5</ele>
        <time>2022-09-27T11:53:17Z</time>
      </trkpt>
      <trkpt lat="46.12934" lon="5.96351">
        <ele>423.5</ele>
        <time>2022-09-27T11:53:18Z</time>
      </trkpt>
      <trkpt lat="46.12939" lon="5.96355">
        <ele>423.5</ele>
        <time>2022-09-27T11:53:19Z</time>
      </trkpt>
      <trkpt lat="46.12943" lon="5.96359">
        <ele>423.5</ele>
        <time>2022-09-27T11:53:20Z</time>
      </trkpt>
      <trkpt lat="46.12948" lon="5.96363">
        <ele>423.6</ele>
        <time>2022-09-27T11:53:21Z</time>
      </trkpt>
      <trkpt lat="46.12953" lon="5.96367">
        <ele>423.6</ele>
        <time>2022-09-27T11:53:22Z</time>
      </trkpt>
      <trkpt lat="46.12956" lon="5.96373">
        <ele>423.7</ele>
        <time>2022-09-27T11:53:23Z</time>
      </trkpt>
      <trkpt lat="46.12959" lon="5.96377">
        <ele>423.7</ele>
        <time>2022-09-27T11:53:24Z</time>
      </trkpt>
      <trkpt lat="46.12962" lon="5.96383">
        <ele>423.8</ele>
        <time>2022-09-27T11:53:25Z</time>
      </trkpt>
      <trkpt lat="46.12966" lon="5.9639">
        <ele>423.8</ele>
        <time>2022-09-27T11:53:26Z</time>
      </trkpt>
      <trkpt lat="46.1297" lon="5.96393">
        <ele>423.8</ele>
        <time>2022-09-27T11:53:27Z</time>
      </trkpt>
      <trkpt lat="46.12972" lon="5.96399">
        <ele>423.8</ele>
        <time>2022-09-27T11:53:28Z</time>
      </trkpt>
      <trkpt lat="46.12975" lon="5.96406">
        <ele>423.7</ele>
        <time>2022-09-27T11:53:29Z</time>
      </trkpt>
      <trkpt lat="46.12978" lon="5.96413">
        <ele>423.7</ele>
        <time>2022-09-27T11:53:30Z</time>
      </trkpt>
      <trkpt lat="46.12983" lon="5.96417">
        <ele>423.6</ele>
        <time>2022-09-27T11:53:31Z</time>
      </trkpt>
      <trkpt lat="46.1299" lon="5.96421">
        <ele>423.4</ele>
        <time>2022-09-27T11:53:32Z</time>
      </trkpt>
      <trkpt lat="46.12994" lon="5.96426">
        <ele>423.3</ele>
        <time>2022-09-27T11:53:33Z</time>
      </trkpt>
      <trkpt lat="46.12997" lon="5.96431">
        <ele>423.2</ele>
        <time>2022-09-27T11:53:34Z</time>
      </trkpt>
      <trkpt lat="46.12999" lon="5.96436">
        <ele>423.1</ele>
        <time>2022-09-27T11:53:35Z</time>
      </trkpt>
      <trkpt lat="46.13004" lon="5.9644">
        <ele>423</ele>
        <time>2022-09-27T11:53:36Z</time>
      </trkpt>
      <trkpt lat="46.13007" lon="5.96443">
        <ele>422.9</ele>
        <time>2022-09-27T11:53:37Z</time>
      </trkpt>
      <trkpt lat="46.13009" lon="5.96447">
        <ele>422.9</ele>
        <time>2022-09-27T11:53:38Z</time>
      </trkpt>
      <trkpt lat="46.1301" lon="5.96448">
        <ele>422.9</ele>
        <time>2022-09-27T11:53:39Z</time>
      </trkpt>
      <trkpt lat="46.13012" lon="5.96452">
        <ele>422.8</ele>
        <time>2022-09-27T11:53:40Z</time>
      </trkpt>
      <trkpt lat="46.13014" lon="5.96456">
        <ele>422.8</ele>
        <time>2022-09-27T11:53:41Z</time>
      </trkpt>
      <trkpt lat="46.13015" lon="5.96458">
        <ele>422.8</ele>
        <time>2022-09-27T11:53:42Z</time>
      </trkpt>
      <trkpt lat="46.13017" lon="5.96462">
        <ele>422.7</ele>
        <time>2022-09-27T11:53:43Z</time>
      </trkpt>
      <trkpt lat="46.1302" lon="5.96465">
        <ele>422.7</ele>
        <time>2022-09-27T11:53:44Z</time>
      </trkpt>
      <trkpt lat="46.13023" lon="5.96469">
        <ele>422.7</ele>
        <time>2022-09-27T11:53:45Z</time>
      </trkpt>
      <trkpt lat="46.13024" lon="5.9647">
        <ele>422.7</ele>
        <time>2022-09-27T11:53:46Z</time>
      </trkpt>
      <trkpt lat="46.13026" lon="5.96473">
        <ele>422.6</ele>
        <time>2022-09-27T11:53:47Z</time>
      </trkpt>
      <trkpt lat="46.13029" lon="5.96479">
        <ele>422.5</ele>
        <time>2022-09-27T11:53:48Z</time>
      </trkpt>
      <trkpt lat="46.13031" lon="5.96484">
        <ele>422.5</ele>
        <time>2022-09-27T11:53:49Z</time>
      </trkpt>
      <trkpt lat="46.13031" lon="5.96491">
        <ele>422.4</ele>
        <time>2022-09-27T11:53:50Z</time>
      </trkpt>
      <trkpt lat="46.13032" lon="5.96497">
        <ele>422.3</ele>
        <time>2022-09-27T11:53:51Z</time>
      </trkpt>
      <trkpt lat="46.13033" lon="5.96504">
        <ele>422.3</ele>
        <time>2022-09-27T11:53:52Z</time>
      </trkpt>
      <trkpt lat="46.13034" lon="5.96511">
        <ele>422.1</ele>
        <time>2022-09-27T11:53:53Z</time>
      </trkpt>
      <trkpt lat="46.13035" lon="5.96518">
        <ele>422</ele>
        <time>2022-09-27T11:53:54Z</time>
      </trkpt>
      <trkpt lat="46.13036" lon="5.96524">
        <ele>421.9</ele>
        <time>2022-09-27T11:53:55Z</time>
      </trkpt>
      <trkpt lat="46.13037" lon="5.96531">
        <ele>421.8</ele>
        <time>2022-09-27T11:53:56Z</time>
      </trkpt>
      <trkpt lat="46.13037" lon="5.96537">
        <ele>421.7</ele>
        <time>2022-09-27T11:53:57Z</time>
      </trkpt>
      <trkpt lat="46.13038" lon="5.96546">
        <ele>421.6</ele>
        <time>2022-09-27T11:53:58Z</time>
      </trkpt>
      <trkpt lat="46.13039" lon="5.96554">
        <ele>421.4</ele>
        <time>2022-09-27T11:53:59Z</time>
      </trkpt>
      <trkpt lat="46.13039" lon="5.96561">
        <ele>421.3</ele>
        <time>2022-09-27T11:54:00Z</time>
      </trkpt>
      <trkpt lat="46.1304" lon="5.96566">
        <ele>421.3</ele>
        <time>2022-09-27T11:54:01Z</time>
      </trkpt>
      <trkpt lat="46.13041" lon="5.96573">
        <ele>421.1</ele>
        <time>2022-09-27T11:54:02Z</time>
      </trkpt>
      <trkpt lat="46.13041" lon="5.96578">
        <ele>421.1</ele>
        <time>2022-09-27T11:54:03Z</time>
      </trkpt>
      <trkpt lat="46.13042" lon="5.96585">
        <ele>420.9</ele>
        <time>2022-09-27T11:54:04Z</time>
      </trkpt>
      <trkpt lat="46.13046" lon="5.9659">
        <ele>420.8</ele>
        <time>2022-09-27T11:54:05Z</time>
      </trkpt>
      <trkpt lat="46.13047" lon="5.96597">
        <ele>420.6</ele>
        <time>2022-09-27T11:54:06Z</time>
      </trkpt>
      <trkpt lat="46.13049" lon="5.966">
        <ele>420.5</ele>
        <time>2022-09-27T11:54:07Z</time>
      </trkpt>
      <trkpt lat="46.13055" lon="5.96608">
        <ele>420.3</ele>
        <time>2022-09-27T11:54:08Z</time>
      </trkpt>
      <trkpt lat="46.13057" lon="5.96613">
        <ele>420.1</ele>
        <time>2022-09-27T11:54:09Z</time>
      </trkpt>
      <trkpt lat="46.13058" lon="5.96617">
        <ele>420</ele>
        <time>2022-09-27T11:54:10Z</time>
      </trkpt>
      <trkpt lat="46.13063" lon="5.96622">
        <ele>419.8</ele>
        <time>2022-09-27T11:54:11Z</time>
      </trkpt>
      <trkpt lat="46.13065" lon="5.96626">
        <ele>419.6</ele>
        <time>2022-09-27T11:54:12Z</time>
      </trkpt>
      <trkpt lat="46.13067" lon="5.96632">
        <ele>419.5</ele>
        <time>2022-09-27T11:54:13Z</time>
      </trkpt>
      <trkpt lat="46.13069" lon="5.96635">
        <ele>419.3</ele>
        <time>2022-09-27T11:54:14Z</time>
      </trkpt>
      <trkpt lat="46.13072" lon="5.9664">
        <ele>419.1</ele>
        <time>2022-09-27T11:54:15Z</time>
      </trkpt>
      <trkpt lat="46.13075" lon="5.96644">
        <ele>419</ele>
        <time>2022-09-27T11:54:16Z</time>
      </trkpt>
      <trkpt lat="46.13079" lon="5.9665">
        <ele>418.7</ele>
        <time>2022-09-27T11:54:17Z</time>
      </trkpt>
      <trkpt lat="46.13083" lon="5.96653">
        <ele>418.6</ele>
        <time>2022-09-27T11:54:18Z</time>
      </trkpt>
      <trkpt lat="46.13086" lon="5.96657">
        <ele>418.4</ele>
        <time>2022-09-27T11:54:19Z</time>
      </trkpt>
      <trkpt lat="46.13088" lon="5.9666">
        <ele>418.4</ele>
        <time>2022-09-27T11:54:20Z</time>
      </trkpt>
      <trkpt lat="46.13095" lon="5.96662">
        <ele>418.2</ele>
        <time>2022-09-27T11:54:21Z</time>
      </trkpt>
      <trkpt lat="46.13099" lon="5.96666">
        <ele>418.1</ele>
        <time>2022-09-27T11:54:23Z</time>
      </trkpt>
      <trkpt lat="46.13102" lon="5.96666">
        <ele>418</ele>
        <time>2022-09-27T11:54:24Z</time>
      </trkpt>
      <trkpt lat="46.13107" lon="5.96668">
        <ele>418</ele>
        <time>2022-09-27T11:54:25Z</time>
      </trkpt>
      <trkpt lat="46.13112" lon="5.9667">
        <ele>417.9</ele>
        <time>2022-09-27T11:54:26Z</time>
      </trkpt>
      <trkpt lat="46.13117" lon="5.9667">
        <ele>417.8</ele>
        <time>2022-09-27T11:54:27Z</time>
      </trkpt>
      <trkpt lat="46.1312" lon="5.9667">
        <ele>417.8</ele>
        <time>2022-09-27T11:54:28Z</time>
      </trkpt>
      <trkpt lat="46.13123" lon="5.96673">
        <ele>417.8</ele>
        <time>2022-09-27T11:54:29Z</time>
      </trkpt>
      <trkpt lat="46.13127" lon="5.96675">
        <ele>417.8</ele>
        <time>2022-09-27T11:54:30Z</time>
      </trkpt>
      <trkpt lat="46.1313" lon="5.96676">
        <ele>417.8</ele>
        <time>2022-09-27T11:54:31Z</time>
      </trkpt>
      <trkpt lat="46.13135" lon="5.96674">
        <ele>417.8</ele>
        <time>2022-09-27T11:54:32Z</time>
      </trkpt>
      <trkpt lat="46.13138" lon="5.96676">
        <ele>417.8</ele>
        <time>2022-09-27T11:54:33Z</time>
      </trkpt>
      <trkpt lat="46.13143" lon="5.96676">
        <ele>417.7</ele>
        <time>2022-09-27T11:54:34Z</time>
      </trkpt>
      <trkpt lat="46.13147" lon="5.96676">
        <ele>417.7</ele>
        <time>2022-09-27T11:54:35Z</time>
      </trkpt>
      <trkpt lat="46.13156" lon="5.96678">
        <ele>417.7</ele>
        <time>2022-09-27T11:54:36Z</time>
      </trkpt>
      <trkpt lat="46.1316" lon="5.96678">
        <ele>417.6</ele>
        <time>2022-09-27T11:54:37Z</time>
      </trkpt>
      <trkpt lat="46.13169" lon="5.96678">
        <ele>417.4</ele>
        <time>2022-09-27T11:54:39Z</time>
      </trkpt>
      <trkpt lat="46.13174" lon="5.96678">
        <ele>417.3</ele>
        <time>2022-09-27T11:54:40Z</time>
      </trkpt>
      <trkpt lat="46.13178" lon="5.96678">
        <ele>417.2</ele>
        <time>2022-09-27T11:54:41Z</time>
      </trkpt>
      <trkpt lat="46.13184" lon="5.96677">
        <ele>417.1</ele>
        <time>2022-09-27T11:54:42Z</time>
      </trkpt>
      <trkpt lat="46.13189" lon="5.96677">
        <ele>416.9</ele>
        <time>2022-09-27T11:54:43Z</time>
      </trkpt>
      <trkpt lat="46.13192" lon="5.96678">
        <ele>416.8</ele>
        <time>2022-09-27T11:54:44Z</time>
      </trkpt>
      <trkpt lat="46.13196" lon="5.96677">
        <ele>416.7</ele>
        <time>2022-09-27T11:54:45Z</time>
      </trkpt>
      <trkpt lat="46.13202" lon="5.96676">
        <ele>416.4</ele>
        <time>2022-09-27T11:54:46Z</time>
      </trkpt>
      <trkpt lat="46.13208" lon="5.96677">
        <ele>416.2</ele>
        <time>2022-09-27T11:54:47Z</time>
      </trkpt>
      <trkpt lat="46.13212" lon="5.96676">
        <ele>416</ele>
        <time>2022-09-27T11:54:48Z</time>
      </trkpt>
      <trkpt lat="46.13216" lon="5.96675">
        <ele>415.8</ele>
        <time>2022-09-27T11:54:49Z</time>
      </trkpt>
      <trkpt lat="46.1322" lon="5.96676">
        <ele>415.6</ele>
        <time>2022-09-27T11:54:50Z</time>
      </trkpt>
      <trkpt lat="46.13226" lon="5.96674">
        <ele>415.4</ele>
        <time>2022-09-27T11:54:51Z</time>
      </trkpt>
      <trkpt lat="46.13232" lon="5.96671">
        <ele>415.1</ele>
        <time>2022-09-27T11:54:52Z</time>
      </trkpt>
      <trkpt lat="46.13238" lon="5.96668">
        <ele>414.8</ele>
        <time>2022-09-27T11:54:53Z</time>
      </trkpt>
      <trkpt lat="46.1324" lon="5.96666">
        <ele>414.7</ele>
        <time>2022-09-27T11:54:54Z</time>
      </trkpt>
      <trkpt lat="46.13243" lon="5.96663">
        <ele>414.5</ele>
        <time>2022-09-27T11:54:55Z</time>
      </trkpt>
      <trkpt lat="46.13247" lon="5.96661">
        <ele>414.3</ele>
        <time>2022-09-27T11:54:56Z</time>
      </trkpt>
      <trkpt lat="46.13249" lon="5.96659">
        <ele>414.2</ele>
        <time>2022-09-27T11:54:57Z</time>
      </trkpt>
      <trkpt lat="46.13252" lon="5.96654">
        <ele>414</ele>
        <time>2022-09-27T11:54:58Z</time>
      </trkpt>
      <trkpt lat="46.13255" lon="5.96651">
        <ele>413.9</ele>
        <time>2022-09-27T11:54:59Z</time>
      </trkpt>
      <trkpt lat="46.13258" lon="5.96648">
        <ele>413.8</ele>
        <time>2022-09-27T11:55:00Z</time>
      </trkpt>
      <trkpt lat="46.13262" lon="5.96644">
        <ele>413.6</ele>
        <time>2022-09-27T11:55:01Z</time>
      </trkpt>
      <trkpt lat="46.13264" lon="5.96641">
        <ele>413.6</ele>
        <time>2022-09-27T11:55:02Z</time>
      </trkpt>
      <trkpt lat="46.13268" lon="5.96637">
        <ele>413.5</ele>
        <time>2022-09-27T11:55:03Z</time>
      </trkpt>
      <trkpt lat="46.13272" lon="5.96633">
        <ele>413.4</ele>
        <time>2022-09-27T11:55:04Z</time>
      </trkpt>
      <trkpt lat="46.13277" lon="5.9663">
        <ele>413.3</ele>
        <time>2022-09-27T11:55:05Z</time>
      </trkpt>
      <trkpt lat="46.13281" lon="5.96628">
        <ele>413.3</ele>
        <time>2022-09-27T11:55:06Z</time>
      </trkpt>
      <trkpt lat="46.13285" lon="5.96626">
        <ele>413.3</ele>
        <time>2022-09-27T11:55:07Z</time>
      </trkpt>
      <trkpt lat="46.1329" lon="5.96625">
        <ele>413.3</ele>
        <time>2022-09-27T11:55:08Z</time>
      </trkpt>
      <trkpt lat="46.13295" lon="5.96622">
        <ele>413.4</ele>
        <time>2022-09-27T11:55:09Z</time>
      </trkpt>
      <trkpt lat="46.13301" lon="5.96622">
        <ele>413.5</ele>
        <time>2022-09-27T11:55:10Z</time>
      </trkpt>
      <trkpt lat="46.13305" lon="5.9662">
        <ele>413.5</ele>
        <time>2022-09-27T11:55:11Z</time>
      </trkpt>
      <trkpt lat="46.1331" lon="5.9662">
        <ele>413.6</ele>
        <time>2022-09-27T11:55:12Z</time>
      </trkpt>
      <trkpt lat="46.13315" lon="5.96619">
        <ele>413.6</ele>
        <time>2022-09-27T11:55:13Z</time>
      </trkpt>
      <trkpt lat="46.13321" lon="5.96617">
        <ele>413.6</ele>
        <time>2022-09-27T11:55:14Z</time>
      </trkpt>
      <trkpt lat="46.13326" lon="5.96617">
        <ele>413.6</ele>
        <time>2022-09-27T11:55:15Z</time>
      </trkpt>
      <trkpt lat="46.13331" lon="5.96618">
        <ele>413.4</ele>
        <time>2022-09-27T11:55:16Z</time>
      </trkpt>
      <trkpt lat="46.13337" lon="5.96618">
        <ele>413.2</ele>
        <time>2022-09-27T11:55:17Z</time>
      </trkpt>
      <trkpt lat="46.1334" lon="5.96618">
        <ele>413.1</ele>
        <time>2022-09-27T11:55:18Z</time>
      </trkpt>
      <trkpt lat="46.13343" lon="5.96618">
        <ele>412.9</ele>
        <time>2022-09-27T11:55:19Z</time>
      </trkpt>
      <trkpt lat="46.13346" lon="5.9662">
        <ele>412.6</ele>
        <time>2022-09-27T11:55:20Z</time>
      </trkpt>
      <trkpt lat="46.13351" lon="5.96623">
        <ele>412.2</ele>
        <time>2022-09-27T11:55:21Z</time>
      </trkpt>
      <trkpt lat="46.13355" lon="5.96624">
        <ele>411.8</ele>
        <time>2022-09-27T11:55:22Z</time>
      </trkpt>
      <trkpt lat="46.13359" lon="5.96625">
        <ele>411.3</ele>
        <time>2022-09-27T11:55:23Z</time>
      </trkpt>
      <trkpt lat="46.13364" lon="5.96626">
        <ele>410.7</ele>
        <time>2022-09-27T11:55:24Z</time>
      </trkpt>
      <trkpt lat="46.13368" lon="5.96627">
        <ele>410.2</ele>
        <time>2022-09-27T11:55:25Z</time>
      </trkpt>
      <trkpt lat="46.13371" lon="5.96627">
        <ele>409.7</ele>
        <time>2022-09-27T11:55:26Z</time>
      </trkpt>
      <trkpt lat="46.13377" lon="5.96627">
        <ele>409</ele>
        <time>2022-09-27T11:55:27Z</time>
      </trkpt>
      <trkpt lat="46.1338" lon="5.96624">
        <ele>408.4</ele>
        <time>2022-09-27T11:55:28Z</time>
      </trkpt>
      <trkpt lat="46.13385" lon="5.96623">
        <ele>407.7</ele>
        <time>2022-09-27T11:55:29Z</time>
      </trkpt>
      <trkpt lat="46.13389" lon="5.96621">
        <ele>407</ele>
        <time>2022-09-27T11:55:30Z</time>
      </trkpt>
      <trkpt lat="46.13393" lon="5.96618">
        <ele>406.4</ele>
        <time>2022-09-27T11:55:31Z</time>
      </trkpt>
      <trkpt lat="46.13398" lon="5.96617">
        <ele>405.7</ele>
        <time>2022-09-27T11:55:32Z</time>
      </trkpt>
      <trkpt lat="46.13401" lon="5.96617">
        <ele>405.2</ele>
        <time>2022-09-27T11:55:33Z</time>
      </trkpt>
      <trkpt lat="46.13406" lon="5.96615">
        <ele>404.4</ele>
        <time>2022-09-27T11:55:34Z</time>
      </trkpt>
      <trkpt lat="46.1341" lon="5.96614">
        <ele>403.8</ele>
        <time>2022-09-27T11:55:35Z</time>
      </trkpt>
      <trkpt lat="46.13415" lon="5.96613">
        <ele>403.1</ele>
        <time>2022-09-27T11:55:36Z</time>
      </trkpt>
      <trkpt lat="46.1342" lon="5.96613">
        <ele>402.4</ele>
        <time>2022-09-27T11:55:37Z</time>
      </trkpt>
      <trkpt lat="46.13424" lon="5.96611">
        <ele>401.8</ele>
        <time>2022-09-27T11:55:38Z</time>
      </trkpt>
      <trkpt lat="46.13429" lon="5.9661">
        <ele>401</ele>
        <time>2022-09-27T11:55:39Z</time>
      </trkpt>
      <trkpt lat="46.13431" lon="5.9661">
        <ele>400.7</ele>
        <time>2022-09-27T11:55:40Z</time>
      </trkpt>
      <trkpt lat="46.13436" lon="5.9661">
        <ele>400</ele>
        <time>2022-09-27T11:55:41Z</time>
      </trkpt>
      <trkpt lat="46.1344" lon="5.96608">
        <ele>399.4</ele>
        <time>2022-09-27T11:55:42Z</time>
      </trkpt>
      <trkpt lat="46.13442" lon="5.96607">
        <ele>399.1</ele>
        <time>2022-09-27T11:55:43Z</time>
      </trkpt>
      <trkpt lat="46.13445" lon="5.96605">
        <ele>398.6</ele>
        <time>2022-09-27T11:55:44Z</time>
      </trkpt>
      <trkpt lat="46.13449" lon="5.96602">
        <ele>398</ele>
        <time>2022-09-27T11:55:45Z</time>
      </trkpt>
      <trkpt lat="46.13452" lon="5.96601">
        <ele>397.5</ele>
        <time>2022-09-27T11:55:46Z</time>
      </trkpt>
      <trkpt lat="46.13455" lon="5.96599">
        <ele>397</ele>
        <time>2022-09-27T11:55:47Z</time>
      </trkpt>
      <trkpt lat="46.13456" lon="5.96598">
        <ele>396.9</ele>
        <time>2022-09-27T11:55:48Z</time>
      </trkpt>
      <trkpt lat="46.1346" lon="5.96596">
        <ele>396.2</ele>
        <time>2022-09-27T11:55:49Z</time>
      </trkpt>
      <trkpt lat="46.13464" lon="5.96593">
        <ele>395.5</ele>
        <time>2022-09-27T11:55:50Z</time>
      </trkpt>
      <trkpt lat="46.13465" lon="5.96592">
        <ele>395.2</ele>
        <time>2022-09-27T11:55:51Z</time>
      </trkpt>
      <trkpt lat="46.13469" lon="5.96591">
        <ele>394.7</ele>
        <time>2022-09-27T11:55:52Z</time>
      </trkpt>
      <trkpt lat="46.13472" lon="5.96589">
        <ele>394.1</ele>
        <time>2022-09-27T11:55:53Z</time>
      </trkpt>
      <trkpt lat="46.13476" lon="5.96588">
        <ele>393.5</ele>
        <time>2022-09-27T11:55:54Z</time>
      </trkpt>
      <trkpt lat="46.1348" lon="5.96587">
        <ele>392.9</ele>
        <time>2022-09-27T11:55:55Z</time>
      </trkpt>
      <trkpt lat="46.13481" lon="5.96586">
        <ele>392.6</ele>
        <time>2022-09-27T11:55:56Z</time>
      </trkpt>
      <trkpt lat="46.13484" lon="5.96585">
        <ele>392.1</ele>
        <time>2022-09-27T11:55:57Z</time>
      </trkpt>
      <trkpt lat="46.13485" lon="5.96585">
        <ele>392</ele>
        <time>2022-09-27T11:55:58Z</time>
      </trkpt>
      <trkpt lat="46.13489" lon="5.96585">
        <ele>391.4</ele>
        <time>2022-09-27T11:55:59Z</time>
      </trkpt>
      <trkpt lat="46.1349" lon="5.96585">
        <ele>391.2</ele>
        <time>2022-09-27T11:56:00Z</time>
      </trkpt>
      <trkpt lat="46.13493" lon="5.96585">
        <ele>390.6</ele>
        <time>2022-09-27T11:56:01Z</time>
      </trkpt>
      <trkpt lat="46.13494" lon="5.96585">
        <ele>390.4</ele>
        <time>2022-09-27T11:56:02Z</time>
      </trkpt>
      <trkpt lat="46.13497" lon="5.96584">
        <ele>390</ele>
        <time>2022-09-27T11:56:03Z</time>
      </trkpt>
      <trkpt lat="46.13498" lon="5.96583">
        <ele>388.7</ele>
        <time>2022-09-27T11:56:04Z</time>
      </trkpt>
      <trkpt lat="46.13498" lon="5.96582">
        <ele>388.7</ele>
        <time>2022-09-27T11:56:05Z</time>
      </trkpt>
      <trkpt lat="46.13499" lon="5.9658">
        <ele>388.7</ele>
        <time>2022-09-27T11:56:06Z</time>
      </trkpt>
      <trkpt lat="46.13499" lon="5.96579">
        <ele>388.2</ele>
        <time>2022-09-27T11:56:07Z</time>
      </trkpt>
      <trkpt lat="46.13498" lon="5.96577">
        <ele>388</ele>
        <time>2022-09-27T11:56:08Z</time>
      </trkpt>
      <trkpt lat="46.13497" lon="5.96576">
        <ele>387.9</ele>
        <time>2022-09-27T11:56:09Z</time>
      </trkpt>
      <trkpt lat="46.13497" lon="5.96575">
        <ele>387.8</ele>
        <time>2022-09-27T11:56:10Z</time>
      </trkpt>
      <trkpt lat="46.13496" lon="5.96574">
        <ele>387.7</ele>
        <time>2022-09-27T11:56:11Z</time>
      </trkpt>
      <trkpt lat="46.13495" lon="5.96573">
        <ele>387.4</ele>
        <time>2022-09-27T11:56:12Z</time>
      </trkpt>
      <trkpt lat="46.13494" lon="5.96573">
        <ele>387.3</ele>
        <time>2022-09-27T11:56:13Z</time>
      </trkpt>
      <trkpt lat="46.13493" lon="5.96573">
        <ele>387.2</ele>
        <time>2022-09-27T11:56:14Z</time>
      </trkpt>
      <trkpt lat="46.1349" lon="5.9657">
        <ele>386.8</ele>
        <time>2022-09-27T11:56:15Z</time>
      </trkpt>
      <trkpt lat="46.13489" lon="5.96569">
        <ele>386.7</ele>
        <time>2022-09-27T11:56:16Z</time>
      </trkpt>
      <trkpt lat="46.13489" lon="5.96568">
        <ele>386.6</ele>
        <time>2022-09-27T11:56:17Z</time>
      </trkpt>
      <trkpt lat="46.13487" lon="5.96566">
        <ele>386.3</ele>
        <time>2022-09-27T11:56:18Z</time>
      </trkpt>
      <trkpt lat="46.13485" lon="5.96562">
        <ele>385.9</ele>
        <time>2022-09-27T11:56:19Z</time>
      </trkpt>
      <trkpt lat="46.13482" lon="5.96559">
        <ele>385.6</ele>
        <time>2022-09-27T11:56:20Z</time>
      </trkpt>
      <trkpt lat="46.13481" lon="5.96558">
        <ele>385.5</ele>
        <time>2022-09-27T11:56:21Z</time>
      </trkpt>
      <trkpt lat="46.13478" lon="5.96555">
        <ele>385.1</ele>
        <time>2022-09-27T11:56:22Z</time>
      </trkpt>
      <trkpt lat="46.13476" lon="5.96552">
        <ele>384.9</ele>
        <time>2022-09-27T11:56:23Z</time>
      </trkpt>
      <trkpt lat="46.13473" lon="5.96546">
        <ele>384.4</ele>
        <time>2022-09-27T11:56:24Z</time>
      </trkpt>
      <trkpt lat="46.13469" lon="5.96543">
        <ele>384.1</ele>
        <time>2022-09-27T11:56:25Z</time>
      </trkpt>
      <trkpt lat="46.13467" lon="5.96539">
        <ele>383.8</ele>
        <time>2022-09-27T11:56:26Z</time>
      </trkpt>
      <trkpt lat="46.13463" lon="5.96535">
        <ele>383.5</ele>
        <time>2022-09-27T11:56:27Z</time>
      </trkpt>
      <trkpt lat="46.1346" lon="5.96533">
        <ele>383.2</ele>
        <time>2022-09-27T11:56:29Z</time>
      </trkpt>
      <trkpt lat="46.13456" lon="5.9653">
        <ele>382.9</ele>
        <time>2022-09-27T11:56:30Z</time>
      </trkpt>
      <trkpt lat="46.13452" lon="5.96527">
        <ele>382.7</ele>
        <time>2022-09-27T11:56:31Z</time>
      </trkpt>
      <trkpt lat="46.1345" lon="5.96527">
        <ele>382.5</ele>
        <time>2022-09-27T11:56:32Z</time>
      </trkpt>
      <trkpt lat="46.13447" lon="5.96523">
        <ele>382.3</ele>
        <time>2022-09-27T11:56:33Z</time>
      </trkpt>
      <trkpt lat="46.13445" lon="5.9652">
        <ele>382</ele>
        <time>2022-09-27T11:56:34Z</time>
      </trkpt>
      <trkpt lat="46.13442" lon="5.96516">
        <ele>381.8</ele>
        <time>2022-09-27T11:56:35Z</time>
      </trkpt>
      <trkpt lat="46.13439" lon="5.96512">
        <ele>381.5</ele>
        <time>2022-09-27T11:56:36Z</time>
      </trkpt>
      <trkpt lat="46.13436" lon="5.9651">
        <ele>381.3</ele>
        <time>2022-09-27T11:56:37Z</time>
      </trkpt>
      <trkpt lat="46.13434" lon="5.96507">
        <ele>381.1</ele>
        <time>2022-09-27T11:56:38Z</time>
      </trkpt>
      <trkpt lat="46.1343" lon="5.96505">
        <ele>380.8</ele>
        <time>2022-09-27T11:56:39Z</time>
      </trkpt>
      <trkpt lat="46.13428" lon="5.96504">
        <ele>380.6</ele>
        <time>2022-09-27T11:56:40Z</time>
      </trkpt>
      <trkpt lat="46.13425" lon="5.96501">
        <ele>380.4</ele>
        <time>2022-09-27T11:56:41Z</time>
      </trkpt>
      <trkpt lat="46.13422" lon="5.96499">
        <ele>380.2</ele>
        <time>2022-09-27T11:56:42Z</time>
      </trkpt>
      <trkpt lat="46.13422" lon="5.96498">
        <ele>380.1</ele>
        <time>2022-09-27T11:56:43Z</time>
      </trkpt>
      <trkpt lat="46.13419" lon="5.96496">
        <ele>379.9</ele>
        <time>2022-09-27T11:56:44Z</time>
      </trkpt>
      <trkpt lat="46.13415" lon="5.96491">
        <ele>379.5</ele>
        <time>2022-09-27T11:56:45Z</time>
      </trkpt>
      <trkpt lat="46.13414" lon="5.9649">
        <ele>379.4</ele>
        <time>2022-09-27T11:56:46Z</time>
      </trkpt>
      <trkpt lat="46.13411" lon="5.96484">
        <ele>379</ele>
        <time>2022-09-27T11:56:47Z</time>
      </trkpt>
      <trkpt lat="46.13409" lon="5.96479">
        <ele>378.7</ele>
        <time>2022-09-27T11:56:48Z</time>
      </trkpt>
      <trkpt lat="46.13407" lon="5.96476">
        <ele>378.5</ele>
        <time>2022-09-27T11:56:49Z</time>
      </trkpt>
      <trkpt lat="46.13404" lon="5.96472">
        <ele>378.2</ele>
        <time>2022-09-27T11:56:50Z</time>
      </trkpt>
      <trkpt lat="46.13402" lon="5.96467">
        <ele>377.9</ele>
        <time>2022-09-27T11:56:51Z</time>
      </trkpt>
      <trkpt lat="46.134" lon="5.96464">
        <ele>377.7</ele>
        <time>2022-09-27T11:56:52Z</time>
      </trkpt>
      <trkpt lat="46.13397" lon="5.96459">
        <ele>377.3</ele>
        <time>2022-09-27T11:56:53Z</time>
      </trkpt>
      <trkpt lat="46.13394" lon="5.96453">
        <ele>377</ele>
        <time>2022-09-27T11:56:54Z</time>
      </trkpt>
      <trkpt lat="46.13393" lon="5.96451">
        <ele>376.8</ele>
        <time>2022-09-27T11:56:55Z</time>
      </trkpt>
      <trkpt lat="46.13392" lon="5.9645">
        <ele>376.7</ele>
        <time>2022-09-27T11:56:56Z</time>
      </trkpt>
      <trkpt lat="46.13391" lon="5.9645">
        <ele>376.6</ele>
        <time>2022-09-27T11:56:57Z</time>
      </trkpt>
      <trkpt lat="46.13391" lon="5.9645">
        <ele>376.6</ele>
        <time>2022-09-27T11:56:58Z</time>
      </trkpt>
      <trkpt lat="46.1339" lon="5.9645">
        <ele>376.5</ele>
        <time>2022-09-27T11:56:59Z</time>
      </trkpt>
      <trkpt lat="46.13389" lon="5.9645">
        <ele>376.4</ele>
        <time>2022-09-27T11:57:00Z</time>
      </trkpt>
      <trkpt lat="46.13388" lon="5.9645">
        <ele>376.4</ele>
        <time>2022-09-27T11:57:01Z</time>
      </trkpt>
      <trkpt lat="46.13388" lon="5.9645">
        <ele>376.4</ele>
        <time>2022-09-27T11:57:02Z</time>
      </trkpt>
      <trkpt lat="46.13388" lon="5.9645">
        <ele>376.4</ele>
        <time>2022-09-27T11:57:03Z</time>
      </trkpt>
      <trkpt lat="46.13388" lon="5.9645">
        <ele>376.4</ele>
        <time>2022-09-27T11:57:04Z</time>
      </trkpt>
      <trkpt lat="46.13388" lon="5.9645">
        <ele>376.4</ele>
        <time>2022-09-27T11:57:05Z</time>
      </trkpt>
      <trkpt lat="46.13378" lon="5.96435">
        <ele>375.2</ele>
        <time>2022-09-27T11:58:12Z</time>
      </trkpt>
      <trkpt lat="46.13376" lon="5.96435">
        <ele>375</ele>
        <time>2022-09-27T11:58:13Z</time>
      </trkpt>
      <trkpt lat="46.13374" lon="5.96433">
        <ele>374.8</ele>
        <time>2022-09-27T11:58:14Z</time>
      </trkpt>
      <trkpt lat="46.13373" lon="5.96432">
        <ele>374.7</ele>
        <time>2022-09-27T11:58:15Z</time>
      </trkpt>
      <trkpt lat="46.13369" lon="5.96428">
        <ele>374.2</ele>
        <time>2022-09-27T11:58:16Z</time>
      </trkpt>
      <trkpt lat="46.13367" lon="5.96425">
        <ele>374</ele>
        <time>2022-09-27T11:58:17Z</time>
      </trkpt>
      <trkpt lat="46.13365" lon="5.96421">
        <ele>373.6</ele>
        <time>2022-09-27T11:58:18Z</time>
      </trkpt>
      <trkpt lat="46.13363" lon="5.96418">
        <ele>373.3</ele>
        <time>2022-09-27T11:58:19Z</time>
      </trkpt>
      <trkpt lat="46.13361" lon="5.96416">
        <ele>373</ele>
        <time>2022-09-27T11:58:20Z</time>
      </trkpt>
      <trkpt lat="46.13358" lon="5.96412">
        <ele>372.7</ele>
        <time>2022-09-27T11:58:21Z</time>
      </trkpt>
      <trkpt lat="46.13356" lon="5.9641">
        <ele>372.4</ele>
        <time>2022-09-27T11:58:22Z</time>
      </trkpt>
      <trkpt lat="46.13353" lon="5.96406">
        <ele>372</ele>
        <time>2022-09-27T11:58:23Z</time>
      </trkpt>
      <trkpt lat="46.1335" lon="5.964">
        <ele>371.4</ele>
        <time>2022-09-27T11:58:24Z</time>
      </trkpt>
      <trkpt lat="46.13349" lon="5.96397">
        <ele>371.1</ele>
        <time>2022-09-27T11:58:25Z</time>
      </trkpt>
      <trkpt lat="46.13346" lon="5.96392">
        <ele>370.7</ele>
        <time>2022-09-27T11:58:26Z</time>
      </trkpt>
      <trkpt lat="46.13344" lon="5.96387">
        <ele>370.3</ele>
        <time>2022-09-27T11:58:27Z</time>
      </trkpt>
      <trkpt lat="46.13341" lon="5.96384">
        <ele>369.9</ele>
        <time>2022-09-27T11:58:28Z</time>
      </trkpt>
      <trkpt lat="46.13338" lon="5.96382">
        <ele>369.6</ele>
        <time>2022-09-27T11:58:29Z</time>
      </trkpt>
      <trkpt lat="46.13336" lon="5.96379">
        <ele>369.2</ele>
        <time>2022-09-27T11:58:30Z</time>
      </trkpt>
      <trkpt lat="46.13333" lon="5.96375">
        <ele>368.7</ele>
        <time>2022-09-27T11:58:31Z</time>
      </trkpt>
      <trkpt lat="46.1333" lon="5.96372">
        <ele>368.4</ele>
        <time>2022-09-27T11:58:32Z</time>
      </trkpt>
      <trkpt lat="46.13329" lon="5.9637">
        <ele>368.2</ele>
        <time>2022-09-27T11:58:33Z</time>
      </trkpt>
      <trkpt lat="46.13326" lon="5.96367">
        <ele>367.8</ele>
        <time>2022-09-27T11:58:35Z</time>
      </trkpt>
      <trkpt lat="46.13324" lon="5.96365">
        <ele>367.5</ele>
        <time>2022-09-27T11:58:36Z</time>
      </trkpt>
      <trkpt lat="46.1332" lon="5.96362">
        <ele>367.1</ele>
        <time>2022-09-27T11:58:37Z</time>
      </trkpt>
      <trkpt lat="46.13319" lon="5.96361">
        <ele>366.9</ele>
        <time>2022-09-27T11:58:38Z</time>
      </trkpt>
      <trkpt lat="46.13316" lon="5.96358">
        <ele>366.5</ele>
        <time>2022-09-27T11:58:39Z</time>
      </trkpt>
      <trkpt lat="46.13314" lon="5.96355">
        <ele>366.2</ele>
        <time>2022-09-27T11:58:40Z</time>
      </trkpt>
      <trkpt lat="46.13311" lon="5.96352">
        <ele>365.8</ele>
        <time>2022-09-27T11:58:41Z</time>
      </trkpt>
      <trkpt lat="46.13308" lon="5.96349">
        <ele>365.4</ele>
        <time>2022-09-27T11:58:42Z</time>
      </trkpt>
      <trkpt lat="46.13306" lon="5.96348">
        <ele>365.2</ele>
        <time>2022-09-27T11:58:43Z</time>
      </trkpt>
      <trkpt lat="46.13304" lon="5.96345">
        <ele>364.9</ele>
        <time>2022-09-27T11:58:44Z</time>
      </trkpt>
      <trkpt lat="46.13302" lon="5.96341">
        <ele>364.5</ele>
        <time>2022-09-27T11:58:45Z</time>
      </trkpt>
      <trkpt lat="46.13298" lon="5.96338">
        <ele>364.1</ele>
        <time>2022-09-27T11:58:46Z</time>
      </trkpt>
      <trkpt lat="46.13295" lon="5.96334">
        <ele>363.6</ele>
        <time>2022-09-27T11:58:47Z</time>
      </trkpt>
      <trkpt lat="46.13291" lon="5.96331">
        <ele>363.2</ele>
        <time>2022-09-27T11:58:48Z</time>
      </trkpt>
      <trkpt lat="46.13289" lon="5.96327">
        <ele>362.8</ele>
        <time>2022-09-27T11:58:49Z</time>
      </trkpt>
      <trkpt lat="46.13286" lon="5.96323">
        <ele>362.4</ele>
        <time>2022-09-27T11:58:50Z</time>
      </trkpt>
      <trkpt lat="46.13284" lon="5.96319">
        <ele>361.9</ele>
        <time>2022-09-27T11:58:51Z</time>
      </trkpt>
      <trkpt lat="46.13281" lon="5.96314">
        <ele>361.5</ele>
        <time>2022-09-27T11:58:52Z</time>
      </trkpt>
      <trkpt lat="46.1328" lon="5.9631">
        <ele>361.1</ele>
        <time>2022-09-27T11:58:53Z</time>
      </trkpt>
      <trkpt lat="46.13279" lon="5.96306">
        <ele>360.8</ele>
        <time>2022-09-27T11:58:54Z</time>
      </trkpt>
      <trkpt lat="46.13277" lon="5.96302">
        <ele>360.4</ele>
        <time>2022-09-27T11:58:55Z</time>
      </trkpt>
      <trkpt lat="46.13275" lon="5.96297">
        <ele>360</ele>
        <time>2022-09-27T11:58:56Z</time>
      </trkpt>
      <trkpt lat="46.13274" lon="5.96295">
        <ele>359.9</ele>
        <time>2022-09-27T11:58:57Z</time>
      </trkpt>
      <trkpt lat="46.13273" lon="5.96291">
        <ele>359.6</ele>
        <time>2022-09-27T11:58:58Z</time>
      </trkpt>
      <trkpt lat="46.13271" lon="5.96288">
        <ele>359.2</ele>
        <time>2022-09-27T11:58:59Z</time>
      </trkpt>
      <trkpt lat="46.13269" lon="5.96284">
        <ele>358.9</ele>
        <time>2022-09-27T11:59:00Z</time>
      </trkpt>
      <trkpt lat="46.13266" lon="5.96281">
        <ele>358.7</ele>
        <time>2022-09-27T11:59:01Z</time>
      </trkpt>
      <trkpt lat="46.13263" lon="5.96278">
        <ele>358.4</ele>
        <time>2022-09-27T11:59:02Z</time>
      </trkpt>
      <trkpt lat="46.1326" lon="5.96274">
        <ele>358.1</ele>
        <time>2022-09-27T11:59:03Z</time>
      </trkpt>
      <trkpt lat="46.13258" lon="5.96272">
        <ele>357.9</ele>
        <time>2022-09-27T11:59:04Z</time>
      </trkpt>
      <trkpt lat="46.13255" lon="5.96268">
        <ele>357.7</ele>
        <time>2022-09-27T11:59:05Z</time>
      </trkpt>
      <trkpt lat="46.13252" lon="5.96264">
        <ele>357.5</ele>
        <time>2022-09-27T11:59:06Z</time>
      </trkpt>
      <trkpt lat="46.1325" lon="5.9626">
        <ele>357.3</ele>
        <time>2022-09-27T11:59:07Z</time>
      </trkpt>
      <trkpt lat="46.13246" lon="5.96259">
        <ele>357.2</ele>
        <time>2022-09-27T11:59:08Z</time>
      </trkpt>
      <trkpt lat="46.13243" lon="5.96258">
        <ele>357.1</ele>
        <time>2022-09-27T11:59:09Z</time>
      </trkpt>
      <trkpt lat="46.13238" lon="5.96256">
        <ele>356.9</ele>
        <time>2022-09-27T11:59:10Z</time>
      </trkpt>
      <trkpt lat="46.13235" lon="5.96253">
        <ele>356.7</ele>
        <time>2022-09-27T11:59:11Z</time>
      </trkpt>
      <trkpt lat="46.13231" lon="5.9625">
        <ele>356.6</ele>
        <time>2022-09-27T11:59:12Z</time>
      </trkpt>
      <trkpt lat="46.13222" lon="5.96244">
        <ele>356.3</ele>
        <time>2022-09-27T11:59:13Z</time>
      </trkpt>
      <trkpt lat="46.13217" lon="5.96241">
        <ele>356.1</ele>
        <time>2022-09-27T11:59:14Z</time>
      </trkpt>
      <trkpt lat="46.13212" lon="5.96237">
        <ele>356</ele>
        <time>2022-09-27T11:59:15Z</time>
      </trkpt>
      <trkpt lat="46.13209" lon="5.96233">
        <ele>355.8</ele>
        <time>2022-09-27T11:59:16Z</time>
      </trkpt>
      <trkpt lat="46.13206" lon="5.96227">
        <ele>355.7</ele>
        <time>2022-09-27T11:59:17Z</time>
      </trkpt>
      <trkpt lat="46.13204" lon="5.96224">
        <ele>355.6</ele>
        <time>2022-09-27T11:59:18Z</time>
      </trkpt>
      <trkpt lat="46.132" lon="5.96222">
        <ele>355.4</ele>
        <time>2022-09-27T11:59:19Z</time>
      </trkpt>
      <trkpt lat="46.13196" lon="5.9622">
        <ele>355.3</ele>
        <time>2022-09-27T11:59:20Z</time>
      </trkpt>
      <trkpt lat="46.13191" lon="5.96213">
        <ele>355.1</ele>
        <time>2022-09-27T11:59:21Z</time>
      </trkpt>
      <trkpt lat="46.1319" lon="5.9621">
        <ele>355</ele>
        <time>2022-09-27T11:59:22Z</time>
      </trkpt>
      <trkpt lat="46.13186" lon="5.96207">
        <ele>354.8</ele>
        <time>2022-09-27T11:59:23Z</time>
      </trkpt>
      <trkpt lat="46.13185" lon="5.96205">
        <ele>354.7</ele>
        <time>2022-09-27T11:59:24Z</time>
      </trkpt>
      <trkpt lat="46.13181" lon="5.96199">
        <ele>354.4</ele>
        <time>2022-09-27T11:59:25Z</time>
      </trkpt>
      <trkpt lat="46.13177" lon="5.96193">
        <ele>354.1</ele>
        <time>2022-09-27T11:59:26Z</time>
      </trkpt>
      <trkpt lat="46.13173" lon="5.9619">
        <ele>353.9</ele>
        <time>2022-09-27T11:59:27Z</time>
      </trkpt>
      <trkpt lat="46.1317" lon="5.96184">
        <ele>353.5</ele>
        <time>2022-09-27T11:59:28Z</time>
      </trkpt>
      <trkpt lat="46.13167" lon="5.9618">
        <ele>353.2</ele>
        <time>2022-09-27T11:59:29Z</time>
      </trkpt>
      <trkpt lat="46.13164" lon="5.96175">
        <ele>352.9</ele>
        <time>2022-09-27T11:59:30Z</time>
      </trkpt>
      <trkpt lat="46.13161" lon="5.96171">
        <ele>352.6</ele>
        <time>2022-09-27T11:59:31Z</time>
      </trkpt>
      <trkpt lat="46.13158" lon="5.96166">
        <ele>352.2</ele>
        <time>2022-09-27T11:59:32Z</time>
      </trkpt>
      <trkpt lat="46.13156" lon="5.96162">
        <ele>351.9</ele>
        <time>2022-09-27T11:59:33Z</time>
      </trkpt>
      <trkpt lat="46.13153" lon="5.96158">
        <ele>351.6</ele>
        <time>2022-09-27T11:59:34Z</time>
      </trkpt>
      <trkpt lat="46.1315" lon="5.96153">
        <ele>351.2</ele>
        <time>2022-09-27T11:59:35Z</time>
      </trkpt>
      <trkpt lat="46.13148" lon="5.96149">
        <ele>350.8</ele>
        <time>2022-09-27T11:59:36Z</time>
      </trkpt>
      <trkpt lat="46.13144" lon="5.96141">
        <ele>350.1</ele>
        <time>2022-09-27T11:59:37Z</time>
      </trkpt>
      <trkpt lat="46.13142" lon="5.96137">
        <ele>349.7</ele>
        <time>2022-09-27T11:59:38Z</time>
      </trkpt>
      <trkpt lat="46.13141" lon="5.96135">
        <ele>349.5</ele>
        <time>2022-09-27T11:59:39Z</time>
      </trkpt>
      <trkpt lat="46.13139" lon="5.9613">
        <ele>349.1</ele>
        <time>2022-09-27T11:59:40Z</time>
      </trkpt>
      <trkpt lat="46.13137" lon="5.96127">
        <ele>348.8</ele>
        <time>2022-09-27T11:59:41Z</time>
      </trkpt>
      <trkpt lat="46.13136" lon="5.96123">
        <ele>348.5</ele>
        <time>2022-09-27T11:59:42Z</time>
      </trkpt>
      <trkpt lat="46.13134" lon="5.9612">
        <ele>348.1</ele>
        <time>2022-09-27T11:59:43Z</time>
      </trkpt>
      <trkpt lat="46.13131" lon="5.96116">
        <ele>347.7</ele>
        <time>2022-09-27T11:59:44Z</time>
      </trkpt>
      <trkpt lat="46.1313" lon="5.96111">
        <ele>347.3</ele>
        <time>2022-09-27T11:59:45Z</time>
      </trkpt>
      <trkpt lat="46.13128" lon="5.96108">
        <ele>347</ele>
        <time>2022-09-27T11:59:46Z</time>
      </trkpt>
      <trkpt lat="46.13125" lon="5.96104">
        <ele>346.6</ele>
        <time>2022-09-27T11:59:47Z</time>
      </trkpt>
      <trkpt lat="46.13123" lon="5.961">
        <ele>346.3</ele>
        <time>2022-09-27T11:59:48Z</time>
      </trkpt>
      <trkpt lat="46.13122" lon="5.96096">
        <ele>346</ele>
        <time>2022-09-27T11:59:49Z</time>
      </trkpt>
      <trkpt lat="46.13118" lon="5.96091">
        <ele>345.3</ele>
        <time>2022-09-27T11:59:50Z</time>
      </trkpt>
      <trkpt lat="46.13116" lon="5.96086">
        <ele>345.1</ele>
        <time>2022-09-27T11:59:51Z</time>
      </trkpt>
      <trkpt lat="46.13113" lon="5.96082">
        <ele>344.9</ele>
        <time>2022-09-27T11:59:52Z</time>
      </trkpt>
      <trkpt lat="46.13113" lon="5.96075">
        <ele>344.3</ele>
        <time>2022-09-27T11:59:53Z</time>
      </trkpt>
      <trkpt lat="46.13113" lon="5.96069">
        <ele>343.9</ele>
        <time>2022-09-27T11:59:54Z</time>
      </trkpt>
      <trkpt lat="46.13114" lon="5.96063">
        <ele>343.5</ele>
        <time>2022-09-27T11:59:55Z</time>
      </trkpt>
      <trkpt lat="46.13116" lon="5.96057">
        <ele>343.1</ele>
        <time>2022-09-27T11:59:56Z</time>
      </trkpt>
      <trkpt lat="46.13119" lon="5.96052">
        <ele>342.8</ele>
        <time>2022-09-27T11:59:57Z</time>
      </trkpt>
      <trkpt lat="46.13122" lon="5.96049">
        <ele>342.5</ele>
        <time>2022-09-27T11:59:58Z</time>
      </trkpt>
      <trkpt lat="46.13126" lon="5.96049">
        <ele>342.3</ele>
        <time>2022-09-27T11:59:59Z</time>
      </trkpt>
      <trkpt lat="46.1313" lon="5.96049">
        <ele>342.1</ele>
        <time>2022-09-27T12:00:00Z</time>
      </trkpt>
      <trkpt lat="46.13134" lon="5.96052">
        <ele>342</ele>
        <time>2022-09-27T12:00:01Z</time>
      </trkpt>
      <trkpt lat="46.13137" lon="5.96055">
        <ele>341.9</ele>
        <time>2022-09-27T12:00:02Z</time>
      </trkpt>
      <trkpt lat="46.13138" lon="5.96057">
        <ele>341.9</ele>
        <time>2022-09-27T12:00:03Z</time>
      </trkpt>
      <trkpt lat="46.13139" lon="5.9606">
        <ele>341.9</ele>
        <time>2022-09-27T12:00:04Z</time>
      </trkpt>
      <trkpt lat="46.13139" lon="5.96061">
        <ele>341.8</ele>
        <time>2022-09-27T12:00:05Z</time>
      </trkpt>
      <trkpt lat="46.1314" lon="5.9606">
        <ele>341.8</ele>
        <time>2022-09-27T12:00:06Z</time>
      </trkpt>
      <trkpt lat="46.13141" lon="5.96061">
        <ele>341.8</ele>
        <time>2022-09-27T12:00:07Z</time>
      </trkpt>
      <trkpt lat="46.1314" lon="5.9606">
        <ele>341.8</ele>
        <time>2022-09-27T12:00:08Z</time>
      </trkpt>
      <trkpt lat="46.13141" lon="5.96059">
        <ele>341.8</ele>
        <time>2022-09-27T12:00:09Z</time>
      </trkpt>
      <trkpt lat="46.13142" lon="5.96058">
        <ele>341.8</ele>
        <time>2022-09-27T12:00:10Z</time>
      </trkpt>
      <trkpt lat="46.13142" lon="5.96058">
        <ele>341.8</ele>
        <time>2022-09-27T12:00:11Z</time>
      </trkpt>
      <trkpt lat="46.13142" lon="5.96058">
        <ele>341.8</ele>
        <time>2022-09-27T12:00:12Z</time>
      </trkpt>
      <trkpt lat="46.13142" lon="5.96059">
        <ele>341.8</ele>
        <time>2022-09-27T12:00:13Z</time>
      </trkpt>
      <trkpt lat="46.13142" lon="5.96057">
        <ele>341.7</ele>
        <time>2022-09-27T12:00:14Z</time>
      </trkpt>
      <trkpt lat="46.13142" lon="5.96058">
        <ele>341.7</ele>
        <time>2022-09-27T12:00:15Z</time>
      </trkpt>
      <trkpt lat="46.13142" lon="5.96058">
        <ele>341.7</ele>
        <time>2022-09-27T12:00:16Z</time>
      </trkpt>
      <trkpt lat="46.13142" lon="5.96057">
        <ele>341.7</ele>
        <time>2022-09-27T12:00:17Z</time>
      </trkpt>
      <trkpt lat="46.13153" lon="5.96074">
        <ele>341.6</ele>
        <time>2022-09-27T12:01:11Z</time>
      </trkpt>
      <trkpt lat="46.13156" lon="5.96077">
        <ele>341.6</ele>
        <time>2022-09-27T12:01:12Z</time>
      </trkpt>
      <trkpt lat="46.13159" lon="5.96082">
        <ele>341.6</ele>
        <time>2022-09-27T12:01:13Z</time>
      </trkpt>
      <trkpt lat="46.13163" lon="5.96084">
        <ele>341.6</ele>
        <time>2022-09-27T12:01:14Z</time>
      </trkpt>
      <trkpt lat="46.13165" lon="5.96086">
        <ele>341.6</ele>
        <time>2022-09-27T12:01:15Z</time>
      </trkpt>
      <trkpt lat="46.13168" lon="5.96088">
        <ele>341.7</ele>
        <time>2022-09-27T12:01:16Z</time>
      </trkpt>
      <trkpt lat="46.13171" lon="5.9609">
        <ele>341.7</ele>
        <time>2022-09-27T12:01:17Z</time>
      </trkpt>
      <trkpt lat="46.13173" lon="5.96093">
        <ele>341.7</ele>
        <time>2022-09-27T12:01:18Z</time>
      </trkpt>
      <trkpt lat="46.13175" lon="5.96095">
        <ele>341.7</ele>
        <time>2022-09-27T12:01:19Z</time>
      </trkpt>
      <trkpt lat="46.13179" lon="5.96098">
        <ele>341.7</ele>
        <time>2022-09-27T12:01:20Z</time>
      </trkpt>
      <trkpt lat="46.13181" lon="5.96103">
        <ele>341.7</ele>
        <time>2022-09-27T12:01:21Z</time>
      </trkpt>
      <trkpt lat="46.13184" lon="5.96106">
        <ele>341.7</ele>
        <time>2022-09-27T12:01:22Z</time>
      </trkpt>
      <trkpt lat="46.13186" lon="5.96111">
        <ele>341.7</ele>
        <time>2022-09-27T12:01:23Z</time>
      </trkpt>
      <trkpt lat="46.13189" lon="5.96115">
        <ele>341.7</ele>
        <time>2022-09-27T12:01:24Z</time>
      </trkpt>
      <trkpt lat="46.13194" lon="5.96118">
        <ele>341.7</ele>
        <time>2022-09-27T12:01:25Z</time>
      </trkpt>
      <trkpt lat="46.13198" lon="5.96122">
        <ele>341.7</ele>
        <time>2022-09-27T12:01:26Z</time>
      </trkpt>
      <trkpt lat="46.13202" lon="5.96126">
        <ele>341.7</ele>
        <time>2022-09-27T12:01:27Z</time>
      </trkpt>
      <trkpt lat="46.13206" lon="5.96129">
        <ele>341.7</ele>
        <time>2022-09-27T12:01:28Z</time>
      </trkpt>
      <trkpt lat="46.1321" lon="5.96133">
        <ele>341.7</ele>
        <time>2022-09-27T12:01:29Z</time>
      </trkpt>
      <trkpt lat="46.13214" lon="5.96136">
        <ele>341.7</ele>
        <time>2022-09-27T12:01:30Z</time>
      </trkpt>
      <trkpt lat="46.13217" lon="5.9614">
        <ele>341.7</ele>
        <time>2022-09-27T12:01:31Z</time>
      </trkpt>
      <trkpt lat="46.13222" lon="5.96143">
        <ele>341.7</ele>
        <time>2022-09-27T12:01:32Z</time>
      </trkpt>
      <trkpt lat="46.13227" lon="5.96148">
        <ele>341.7</ele>
        <time>2022-09-27T12:01:33Z</time>
      </trkpt>
      <trkpt lat="46.13232" lon="5.96152">
        <ele>341.7</ele>
        <time>2022-09-27T12:01:34Z</time>
      </trkpt>
      <trkpt lat="46.13236" lon="5.96155">
        <ele>341.7</ele>
        <time>2022-09-27T12:01:35Z</time>
      </trkpt>
      <trkpt lat="46.1324" lon="5.96158">
        <ele>341.7</ele>
        <time>2022-09-27T12:01:36Z</time>
      </trkpt>
      <trkpt lat="46.13243" lon="5.96161">
        <ele>341.7</ele>
        <time>2022-09-27T12:01:37Z</time>
      </trkpt>
      <trkpt lat="46.13246" lon="5.96165">
        <ele>341.7</ele>
        <time>2022-09-27T12:01:38Z</time>
      </trkpt>
      <trkpt lat="46.13251" lon="5.96169">
        <ele>341.7</ele>
        <time>2022-09-27T12:01:39Z</time>
      </trkpt>
      <trkpt lat="46.13257" lon="5.96171">
        <ele>341.6</ele>
        <time>2022-09-27T12:01:40Z</time>
      </trkpt>
      <trkpt lat="46.13261" lon="5.96176">
        <ele>341.6</ele>
        <time>2022-09-27T12:01:41Z</time>
      </trkpt>
      <trkpt lat="46.13267" lon="5.96183">
        <ele>341.6</ele>
        <time>2022-09-27T12:01:42Z</time>
      </trkpt>
      <trkpt lat="46.13272" lon="5.96187">
        <ele>341.6</ele>
        <time>2022-09-27T12:01:43Z</time>
      </trkpt>
      <trkpt lat="46.13276" lon="5.96192">
        <ele>341.6</ele>
        <time>2022-09-27T12:01:44Z</time>
      </trkpt>
      <trkpt lat="46.13281" lon="5.96198">
        <ele>341.7</ele>
        <time>2022-09-27T12:01:45Z</time>
      </trkpt>
      <trkpt lat="46.13285" lon="5.96203">
        <ele>341.7</ele>
        <time>2022-09-27T12:01:46Z</time>
      </trkpt>
      <trkpt lat="46.13289" lon="5.96208">
        <ele>341.8</ele>
        <time>2022-09-27T12:01:47Z</time>
      </trkpt>
      <trkpt lat="46.13293" lon="5.96213">
        <ele>341.9</ele>
        <time>2022-09-27T12:01:48Z</time>
      </trkpt>
      <trkpt lat="46.13297" lon="5.96217">
        <ele>341.9</ele>
        <time>2022-09-27T12:01:49Z</time>
      </trkpt>
      <trkpt lat="46.133" lon="5.96222">
        <ele>342</ele>
        <time>2022-09-27T12:01:50Z</time>
      </trkpt>
      <trkpt lat="46.13303" lon="5.96227">
        <ele>342.1</ele>
        <time>2022-09-27T12:01:51Z</time>
      </trkpt>
      <trkpt lat="46.13307" lon="5.96231">
        <ele>342.1</ele>
        <time>2022-09-27T12:01:52Z</time>
      </trkpt>
      <trkpt lat="46.13312" lon="5.96236">
        <ele>342.2</ele>
        <time>2022-09-27T12:01:53Z</time>
      </trkpt>
      <trkpt lat="46.13316" lon="5.9624">
        <ele>342.3</ele>
        <time>2022-09-27T12:01:54Z</time>
      </trkpt>
      <trkpt lat="46.13319" lon="5.96247">
        <ele>342.3</ele>
        <time>2022-09-27T12:01:55Z</time>
      </trkpt>
      <trkpt lat="46.13322" lon="5.96252">
        <ele>342.4</ele>
        <time>2022-09-27T12:01:56Z</time>
      </trkpt>
      <trkpt lat="46.13325" lon="5.96255">
        <ele>342.3</ele>
        <time>2022-09-27T12:01:57Z</time>
      </trkpt>
      <trkpt lat="46.13331" lon="5.9626">
        <ele>342.3</ele>
        <time>2022-09-27T12:01:58Z</time>
      </trkpt>
      <trkpt lat="46.13335" lon="5.96263">
        <ele>342.3</ele>
        <time>2022-09-27T12:01:59Z</time>
      </trkpt>
      <trkpt lat="46.13341" lon="5.96267">
        <ele>342.2</ele>
        <time>2022-09-27T12:02:00Z</time>
      </trkpt>
      <trkpt lat="46.13346" lon="5.96271">
        <ele>342.2</ele>
        <time>2022-09-27T12:02:01Z</time>
      </trkpt>
      <trkpt lat="46.13351" lon="5.96275">
        <ele>342.1</ele>
        <time>2022-09-27T12:02:02Z</time>
      </trkpt>
      <trkpt lat="46.13356" lon="5.96279">
        <ele>342.1</ele>
        <time>2022-09-27T12:02:03Z</time>
      </trkpt>
      <trkpt lat="46.1336" lon="5.96283">
        <ele>342.1</ele>
        <time>2022-09-27T12:02:04Z</time>
      </trkpt>
      <trkpt lat="46.13363" lon="5.96288">
        <ele>342.1</ele>
        <time>2022-09-27T12:02:05Z</time>
      </trkpt>
      <trkpt lat="46.13367" lon="5.96291">
        <ele>342</ele>
        <time>2022-09-27T12:02:06Z</time>
      </trkpt>
      <trkpt lat="46.1337" lon="5.96296">
        <ele>342</ele>
        <time>2022-09-27T12:02:07Z</time>
      </trkpt>
      <trkpt lat="46.13373" lon="5.963">
        <ele>342</ele>
        <time>2022-09-27T12:02:08Z</time>
      </trkpt>
      <trkpt lat="46.13376" lon="5.96302">
        <ele>342</ele>
        <time>2022-09-27T12:02:09Z</time>
      </trkpt>
      <trkpt lat="46.13377" lon="5.96306">
        <ele>341.9</ele>
        <time>2022-09-27T12:02:10Z</time>
      </trkpt>
      <trkpt lat="46.1338" lon="5.9631">
        <ele>341.9</ele>
        <time>2022-09-27T12:02:11Z</time>
      </trkpt>
      <trkpt lat="46.13384" lon="5.96313">
        <ele>341.9</ele>
        <time>2022-09-27T12:02:12Z</time>
      </trkpt>
      <trkpt lat="46.13388" lon="5.96315">
        <ele>341.9</ele>
        <time>2022-09-27T12:02:13Z</time>
      </trkpt>
      <trkpt lat="46.13391" lon="5.96319">
        <ele>341.9</ele>
        <time>2022-09-27T12:02:14Z</time>
      </trkpt>
      <trkpt lat="46.13395" lon="5.96323">
        <ele>341.9</ele>
        <time>2022-09-27T12:02:15Z</time>
      </trkpt>
      <trkpt lat="46.13398" lon="5.96327">
        <ele>341.9</ele>
        <time>2022-09-27T12:02:16Z</time>
      </trkpt>
      <trkpt lat="46.13401" lon="5.96333">
        <ele>341.9</ele>
        <time>2022-09-27T12:02:17Z</time>
      </trkpt>
      <trkpt lat="46.13404" lon="5.96336">
        <ele>341.9</ele>
        <time>2022-09-27T12:02:18Z</time>
      </trkpt>
      <trkpt lat="46.13408" lon="5.96339">
        <ele>341.8</ele>
        <time>2022-09-27T12:02:19Z</time>
      </trkpt>
      <trkpt lat="46.13412" lon="5.96343">
        <ele>341.8</ele>
        <time>2022-09-27T12:02:20Z</time>
      </trkpt>
      <trkpt lat="46.13415" lon="5.96348">
        <ele>341.8</ele>
        <time>2022-09-27T12:02:21Z</time>
      </trkpt>
      <trkpt lat="46.1342" lon="5.96351">
        <ele>341.8</ele>
        <time>2022-09-27T12:02:22Z</time>
      </trkpt>
      <trkpt lat="46.13424" lon="5.96356">
        <ele>341.7</ele>
        <time>2022-09-27T12:02:23Z</time>
      </trkpt>
      <trkpt lat="46.13428" lon="5.96359">
        <ele>341.7</ele>
        <time>2022-09-27T12:02:24Z</time>
      </trkpt>
      <trkpt lat="46.13431" lon="5.96364">
        <ele>341.7</ele>
        <time>2022-09-27T12:02:25Z</time>
      </trkpt>
      <trkpt lat="46.13435" lon="5.96369">
        <ele>341.6</ele>
        <time>2022-09-27T12:02:26Z</time>
      </trkpt>
      <trkpt lat="46.13439" lon="5.96373">
        <ele>341.6</ele>
        <time>2022-09-27T12:02:27Z</time>
      </trkpt>
      <trkpt lat="46.13444" lon="5.96375">
        <ele>341.6</ele>
        <time>2022-09-27T12:02:28Z</time>
      </trkpt>
      <trkpt lat="46.13449" lon="5.96377">
        <ele>341.6</ele>
        <time>2022-09-27T12:02:29Z</time>
      </trkpt>
      <trkpt lat="46.13454" lon="5.96381">
        <ele>341.6</ele>
        <time>2022-09-27T12:02:30Z</time>
      </trkpt>
      <trkpt lat="46.13457" lon="5.96386">
        <ele>341.6</ele>
        <time>2022-09-27T12:02:31Z</time>
      </trkpt>
      <trkpt lat="46.13459" lon="5.9639">
        <ele>341.6</ele>
        <time>2022-09-27T12:02:32Z</time>
      </trkpt>
      <trkpt lat="46.13465" lon="5.96394">
        <ele>341.6</ele>
        <time>2022-09-27T12:02:33Z</time>
      </trkpt>
      <trkpt lat="46.1347" lon="5.96399">
        <ele>341.6</ele>
        <time>2022-09-27T12:02:34Z</time>
      </trkpt>
      <trkpt lat="46.13474" lon="5.96402">
        <ele>341.6</ele>
        <time>2022-09-27T12:02:35Z</time>
      </trkpt>
      <trkpt lat="46.13477" lon="5.96405">
        <ele>341.6</ele>
        <time>2022-09-27T12:02:36Z</time>
      </trkpt>
      <trkpt lat="46.13481" lon="5.96409">
        <ele>341.7</ele>
        <time>2022-09-27T12:02:37Z</time>
      </trkpt>
      <trkpt lat="46.13487" lon="5.96412">
        <ele>341.7</ele>
        <time>2022-09-27T12:02:38Z</time>
      </trkpt>
      <trkpt lat="46.13492" lon="5.96416">
        <ele>341.7</ele>
        <time>2022-09-27T12:02:39Z</time>
      </trkpt>
      <trkpt lat="46.13495" lon="5.96421">
        <ele>341.7</ele>
        <time>2022-09-27T12:02:40Z</time>
      </trkpt>
      <trkpt lat="46.13499" lon="5.96425">
        <ele>341.8</ele>
        <time>2022-09-27T12:02:41Z</time>
      </trkpt>
      <trkpt lat="46.13503" lon="5.96427">
        <ele>341.9</ele>
        <time>2022-09-27T12:02:42Z</time>
      </trkpt>
      <trkpt lat="46.13508" lon="5.9643">
        <ele>341.9</ele>
        <time>2022-09-27T12:02:43Z</time>
      </trkpt>
      <trkpt lat="46.13512" lon="5.96433">
        <ele>342</ele>
        <time>2022-09-27T12:02:44Z</time>
      </trkpt>
      <trkpt lat="46.13516" lon="5.96436">
        <ele>342.1</ele>
        <time>2022-09-27T12:02:45Z</time>
      </trkpt>
      <trkpt lat="46.1352" lon="5.96439">
        <ele>342.2</ele>
        <time>2022-09-27T12:02:47Z</time>
      </trkpt>
      <trkpt lat="46.13523" lon="5.96442">
        <ele>342.3</ele>
        <time>2022-09-27T12:02:48Z</time>
      </trkpt>
      <trkpt lat="46.13526" lon="5.96443">
        <ele>342.4</ele>
        <time>2022-09-27T12:02:49Z</time>
      </trkpt>
      <trkpt lat="46.1353" lon="5.96446">
        <ele>342.5</ele>
        <time>2022-09-27T12:02:50Z</time>
      </trkpt>
      <trkpt lat="46.13533" lon="5.96449">
        <ele>342.6</ele>
        <time>2022-09-27T12:02:51Z</time>
      </trkpt>
      <trkpt lat="46.13535" lon="5.96452">
        <ele>342.7</ele>
        <time>2022-09-27T12:02:52Z</time>
      </trkpt>
      <trkpt lat="46.13538" lon="5.96455">
        <ele>342.7</ele>
        <time>2022-09-27T12:02:53Z</time>
      </trkpt>
      <trkpt lat="46.13542" lon="5.96456">
        <ele>342.8</ele>
        <time>2022-09-27T12:02:54Z</time>
      </trkpt>
      <trkpt lat="46.13545" lon="5.96459">
        <ele>342.9</ele>
        <time>2022-09-27T12:02:55Z</time>
      </trkpt>
      <trkpt lat="46.13549" lon="5.96463">
        <ele>343</ele>
        <time>2022-09-27T12:02:56Z</time>
      </trkpt>
      <trkpt lat="46.13552" lon="5.96466">
        <ele>343.2</ele>
        <time>2022-09-27T12:02:57Z</time>
      </trkpt>
      <trkpt lat="46.13555" lon="5.96468">
        <ele>343.2</ele>
        <time>2022-09-27T12:02:58Z</time>
      </trkpt>
      <trkpt lat="46.1356" lon="5.96469">
        <ele>343.3</ele>
        <time>2022-09-27T12:02:59Z</time>
      </trkpt>
      <trkpt lat="46.13563" lon="5.96471">
        <ele>343.4</ele>
        <time>2022-09-27T12:03:00Z</time>
      </trkpt>
      <trkpt lat="46.13566" lon="5.96476">
        <ele>343.5</ele>
        <time>2022-09-27T12:03:01Z</time>
      </trkpt>
      <trkpt lat="46.13568" lon="5.96482">
        <ele>343.6</ele>
        <time>2022-09-27T12:03:02Z</time>
      </trkpt>
      <trkpt lat="46.1357" lon="5.96487">
        <ele>343.7</ele>
        <time>2022-09-27T12:03:03Z</time>
      </trkpt>
      <trkpt lat="46.13572" lon="5.96491">
        <ele>343.8</ele>
        <time>2022-09-27T12:03:04Z</time>
      </trkpt>
      <trkpt lat="46.13574" lon="5.96496">
        <ele>343.9</ele>
        <time>2022-09-27T12:03:05Z</time>
      </trkpt>
      <trkpt lat="46.13577" lon="5.965">
        <ele>344</ele>
        <time>2022-09-27T12:03:06Z</time>
      </trkpt>
      <trkpt lat="46.13578" lon="5.96504">
        <ele>344</ele>
        <time>2022-09-27T12:03:07Z</time>
      </trkpt>
      <trkpt lat="46.13581" lon="5.96508">
        <ele>344.1</ele>
        <time>2022-09-27T12:03:08Z</time>
      </trkpt>
      <trkpt lat="46.13583" lon="5.96514">
        <ele>344.1</ele>
        <time>2022-09-27T12:03:09Z</time>
      </trkpt>
      <trkpt lat="46.13585" lon="5.96519">
        <ele>344.2</ele>
        <time>2022-09-27T12:03:10Z</time>
      </trkpt>
      <trkpt lat="46.13586" lon="5.96523">
        <ele>344.2</ele>
        <time>2022-09-27T12:03:11Z</time>
      </trkpt>
      <trkpt lat="46.13589" lon="5.96526">
        <ele>344.3</ele>
        <time>2022-09-27T12:03:12Z</time>
      </trkpt>
      <trkpt lat="46.13591" lon="5.9653">
        <ele>344.3</ele>
        <time>2022-09-27T12:03:13Z</time>
      </trkpt>
      <trkpt lat="46.13592" lon="5.96534">
        <ele>344.3</ele>
        <time>2022-09-27T12:03:14Z</time>
      </trkpt>
      <trkpt lat="46.13593" lon="5.96539">
        <ele>344.4</ele>
        <time>2022-09-27T12:03:15Z</time>
      </trkpt>
      <trkpt lat="46.13597" lon="5.96543">
        <ele>344.4</ele>
        <time>2022-09-27T12:03:16Z</time>
      </trkpt>
      <trkpt lat="46.13598" lon="5.96546">
        <ele>344.4</ele>
        <time>2022-09-27T12:03:17Z</time>
      </trkpt>
      <trkpt lat="46.13601" lon="5.9655">
        <ele>344.5</ele>
        <time>2022-09-27T12:03:18Z</time>
      </trkpt>
      <trkpt lat="46.13602" lon="5.96551">
        <ele>344.5</ele>
        <time>2022-09-27T12:03:19Z</time>
      </trkpt>
      <trkpt lat="46.13605" lon="5.96555">
        <ele>344.5</ele>
        <time>2022-09-27T12:03:20Z</time>
      </trkpt>
      <trkpt lat="46.13608" lon="5.96558">
        <ele>344.6</ele>
        <time>2022-09-27T12:03:21Z</time>
      </trkpt>
      <trkpt lat="46.13611" lon="5.9656">
        <ele>344.6</ele>
        <time>2022-09-27T12:03:22Z</time>
      </trkpt>
      <trkpt lat="46.13614" lon="5.96562">
        <ele>344.7</ele>
        <time>2022-09-27T12:03:23Z</time>
      </trkpt>
      <trkpt lat="46.13618" lon="5.96566">
        <ele>344.8</ele>
        <time>2022-09-27T12:03:24Z</time>
      </trkpt>
      <trkpt lat="46.13622" lon="5.96569">
        <ele>344.9</ele>
        <time>2022-09-27T12:03:25Z</time>
      </trkpt>
      <trkpt lat="46.13628" lon="5.96574">
        <ele>345</ele>
        <time>2022-09-27T12:03:26Z</time>
      </trkpt>
      <trkpt lat="46.1363" lon="5.96577">
        <ele>345.1</ele>
        <time>2022-09-27T12:03:27Z</time>
      </trkpt>
      <trkpt lat="46.13634" lon="5.96581">
        <ele>345.1</ele>
        <time>2022-09-27T12:03:28Z</time>
      </trkpt>
      <trkpt lat="46.13638" lon="5.96584">
        <ele>345.2</ele>
        <time>2022-09-27T12:03:29Z</time>
      </trkpt>
      <trkpt lat="46.13641" lon="5.96587">
        <ele>345.3</ele>
        <time>2022-09-27T12:03:30Z</time>
      </trkpt>
      <trkpt lat="46.13644" lon="5.96591">
        <ele>345.3</ele>
        <time>2022-09-27T12:03:31Z</time>
      </trkpt>
      <trkpt lat="46.13648" lon="5.96595">
        <ele>345.4</ele>
        <time>2022-09-27T12:03:32Z</time>
      </trkpt>
      <trkpt lat="46.13651" lon="5.96597">
        <ele>345.5</ele>
        <time>2022-09-27T12:03:33Z</time>
      </trkpt>
      <trkpt lat="46.13655" lon="5.96599">
        <ele>345.6</ele>
        <time>2022-09-27T12:03:34Z</time>
      </trkpt>
      <trkpt lat="46.13658" lon="5.96604">
        <ele>345.7</ele>
        <time>2022-09-27T12:03:35Z</time>
      </trkpt>
      <trkpt lat="46.13662" lon="5.96606">
        <ele>345.8</ele>
        <time>2022-09-27T12:03:36Z</time>
      </trkpt>
      <trkpt lat="46.13665" lon="5.96608">
        <ele>345.8</ele>
        <time>2022-09-27T12:03:37Z</time>
      </trkpt>
      <trkpt lat="46.13667" lon="5.96609">
        <ele>345.9</ele>
        <time>2022-09-27T12:03:38Z</time>
      </trkpt>
      <trkpt lat="46.1367" lon="5.96611">
        <ele>345.9</ele>
        <time>2022-09-27T12:03:39Z</time>
      </trkpt>
      <trkpt lat="46.13673" lon="5.96614">
        <ele>346</ele>
        <time>2022-09-27T12:03:40Z</time>
      </trkpt>
      <trkpt lat="46.13676" lon="5.96617">
        <ele>346.1</ele>
        <time>2022-09-27T12:03:41Z</time>
      </trkpt>
      <trkpt lat="46.1368" lon="5.96621">
        <ele>346.1</ele>
        <time>2022-09-27T12:03:42Z</time>
      </trkpt>
      <trkpt lat="46.13684" lon="5.96621">
        <ele>346.2</ele>
        <time>2022-09-27T12:03:43Z</time>
      </trkpt>
      <trkpt lat="46.13687" lon="5.96624">
        <ele>346.2</ele>
        <time>2022-09-27T12:03:44Z</time>
      </trkpt>
      <trkpt lat="46.1369" lon="5.96627">
        <ele>346.3</ele>
        <time>2022-09-27T12:03:45Z</time>
      </trkpt>
      <trkpt lat="46.13693" lon="5.96629">
        <ele>346.3</ele>
        <time>2022-09-27T12:03:46Z</time>
      </trkpt>
      <trkpt lat="46.13696" lon="5.9663">
        <ele>346.4</ele>
        <time>2022-09-27T12:03:47Z</time>
      </trkpt>
      <trkpt lat="46.13699" lon="5.96632">
        <ele>346.4</ele>
        <time>2022-09-27T12:03:48Z</time>
      </trkpt>
      <trkpt lat="46.13704" lon="5.96634">
        <ele>346.5</ele>
        <time>2022-09-27T12:03:49Z</time>
      </trkpt>
      <trkpt lat="46.13708" lon="5.96637">
        <ele>346.6</ele>
        <time>2022-09-27T12:03:50Z</time>
      </trkpt>
      <trkpt lat="46.13712" lon="5.96639">
        <ele>346.7</ele>
        <time>2022-09-27T12:03:51Z</time>
      </trkpt>
      <trkpt lat="46.13715" lon="5.96642">
        <ele>346.8</ele>
        <time>2022-09-27T12:03:52Z</time>
      </trkpt>
      <trkpt lat="46.13718" lon="5.96644">
        <ele>346.8</ele>
        <time>2022-09-27T12:03:53Z</time>
      </trkpt>
      <trkpt lat="46.13721" lon="5.96648">
        <ele>346.9</ele>
        <time>2022-09-27T12:03:54Z</time>
      </trkpt>
      <trkpt lat="46.13722" lon="5.9665">
        <ele>346.9</ele>
        <time>2022-09-27T12:03:55Z</time>
      </trkpt>
      <trkpt lat="46.13725" lon="5.96652">
        <ele>347</ele>
        <time>2022-09-27T12:03:56Z</time>
      </trkpt>
      <trkpt lat="46.13727" lon="5.96653">
        <ele>347</ele>
        <time>2022-09-27T12:03:57Z</time>
      </trkpt>
      <trkpt lat="46.13731" lon="5.96658">
        <ele>347.1</ele>
        <time>2022-09-27T12:03:58Z</time>
      </trkpt>
      <trkpt lat="46.13736" lon="5.9666">
        <ele>347.2</ele>
        <time>2022-09-27T12:03:59Z</time>
      </trkpt>
      <trkpt lat="46.13738" lon="5.96662">
        <ele>347.3</ele>
        <time>2022-09-27T12:04:00Z</time>
      </trkpt>
      <trkpt lat="46.13742" lon="5.96666">
        <ele>347.4</ele>
        <time>2022-09-27T12:04:01Z</time>
      </trkpt>
      <trkpt lat="46.13744" lon="5.96669">
        <ele>347.4</ele>
        <time>2022-09-27T12:04:02Z</time>
      </trkpt>
      <trkpt lat="46.13748" lon="5.96672">
        <ele>347.5</ele>
        <time>2022-09-27T12:04:03Z</time>
      </trkpt>
      <trkpt lat="46.1375" lon="5.96675">
        <ele>347.6</ele>
        <time>2022-09-27T12:04:04Z</time>
      </trkpt>
      <trkpt lat="46.13754" lon="5.96678">
        <ele>347.7</ele>
        <time>2022-09-27T12:04:05Z</time>
      </trkpt>
      <trkpt lat="46.13756" lon="5.9668">
        <ele>347.7</ele>
        <time>2022-09-27T12:04:06Z</time>
      </trkpt>
      <trkpt lat="46.13759" lon="5.96683">
        <ele>347.8</ele>
        <time>2022-09-27T12:04:07Z</time>
      </trkpt>
      <trkpt lat="46.13762" lon="5.96685">
        <ele>347.8</ele>
        <time>2022-09-27T12:04:08Z</time>
      </trkpt>
      <trkpt lat="46.13764" lon="5.96687">
        <ele>347.9</ele>
        <time>2022-09-27T12:04:09Z</time>
      </trkpt>
      <trkpt lat="46.13768" lon="5.9669">
        <ele>348</ele>
        <time>2022-09-27T12:04:10Z</time>
      </trkpt>
      <trkpt lat="46.13769" lon="5.96691">
        <ele>348</ele>
        <time>2022-09-27T12:04:11Z</time>
      </trkpt>
      <trkpt lat="46.13772" lon="5.96693">
        <ele>348.1</ele>
        <time>2022-09-27T12:04:12Z</time>
      </trkpt>
      <trkpt lat="46.13775" lon="5.96697">
        <ele>348.2</ele>
        <time>2022-09-27T12:04:13Z</time>
      </trkpt>
      <trkpt lat="46.13778" lon="5.96702">
        <ele>348.3</ele>
        <time>2022-09-27T12:04:14Z</time>
      </trkpt>
      <trkpt lat="46.1378" lon="5.96705">
        <ele>348.4</ele>
        <time>2022-09-27T12:04:15Z</time>
      </trkpt>
      <trkpt lat="46.13783" lon="5.96708">
        <ele>348.5</ele>
        <time>2022-09-27T12:04:16Z</time>
      </trkpt>
      <trkpt lat="46.13785" lon="5.96712">
        <ele>348.5</ele>
        <time>2022-09-27T12:04:17Z</time>
      </trkpt>
      <trkpt lat="46.13787" lon="5.96715">
        <ele>348.6</ele>
        <time>2022-09-27T12:04:18Z</time>
      </trkpt>
      <trkpt lat="46.13788" lon="5.9672">
        <ele>348.7</ele>
        <time>2022-09-27T12:04:19Z</time>
      </trkpt>
      <trkpt lat="46.13789" lon="5.96725">
        <ele>348.8</ele>
        <time>2022-09-27T12:04:20Z</time>
      </trkpt>
      <trkpt lat="46.13791" lon="5.9673">
        <ele>348.9</ele>
        <time>2022-09-27T12:04:21Z</time>
      </trkpt>
      <trkpt lat="46.13792" lon="5.96734">
        <ele>349</ele>
        <time>2022-09-27T12:04:22Z</time>
      </trkpt>
      <trkpt lat="46.13795" lon="5.96738">
        <ele>349.1</ele>
        <time>2022-09-27T12:04:23Z</time>
      </trkpt>
      <trkpt lat="46.13795" lon="5.96743">
        <ele>349.2</ele>
        <time>2022-09-27T12:04:24Z</time>
      </trkpt>
      <trkpt lat="46.13796" lon="5.96749">
        <ele>349.3</ele>
        <time>2022-09-27T12:04:25Z</time>
      </trkpt>
      <trkpt lat="46.13797" lon="5.96751">
        <ele>349.4</ele>
        <time>2022-09-27T12:04:26Z</time>
      </trkpt>
      <trkpt lat="46.13798" lon="5.96757">
        <ele>349.5</ele>
        <time>2022-09-27T12:04:27Z</time>
      </trkpt>
      <trkpt lat="46.13798" lon="5.96762">
        <ele>349.7</ele>
        <time>2022-09-27T12:04:28Z</time>
      </trkpt>
      <trkpt lat="46.13799" lon="5.96766">
        <ele>349.8</ele>
        <time>2022-09-27T12:04:29Z</time>
      </trkpt>
      <trkpt lat="46.13799" lon="5.96771">
        <ele>349.9</ele>
        <time>2022-09-27T12:04:30Z</time>
      </trkpt>
      <trkpt lat="46.13799" lon="5.96773">
        <ele>350</ele>
        <time>2022-09-27T12:04:31Z</time>
      </trkpt>
      <trkpt lat="46.138" lon="5.96777">
        <ele>350.1</ele>
        <time>2022-09-27T12:04:32Z</time>
      </trkpt>
      <trkpt lat="46.138" lon="5.96782">
        <ele>350.3</ele>
        <time>2022-09-27T12:04:33Z</time>
      </trkpt>
      <trkpt lat="46.138" lon="5.96784">
        <ele>350.3</ele>
        <time>2022-09-27T12:04:34Z</time>
      </trkpt>
      <trkpt lat="46.138" lon="5.96789">
        <ele>350.5</ele>
        <time>2022-09-27T12:04:35Z</time>
      </trkpt>
      <trkpt lat="46.138" lon="5.96791">
        <ele>350.6</ele>
        <time>2022-09-27T12:04:36Z</time>
      </trkpt>
      <trkpt lat="46.13801" lon="5.96795">
        <ele>350.8</ele>
        <time>2022-09-27T12:04:37Z</time>
      </trkpt>
      <trkpt lat="46.13801" lon="5.96796">
        <ele>350.8</ele>
        <time>2022-09-27T12:04:38Z</time>
      </trkpt>
      <trkpt lat="46.13802" lon="5.968">
        <ele>351</ele>
        <time>2022-09-27T12:04:39Z</time>
      </trkpt>
      <trkpt lat="46.13803" lon="5.96805">
        <ele>351.3</ele>
        <time>2022-09-27T12:04:40Z</time>
      </trkpt>
      <trkpt lat="46.13804" lon="5.9681">
        <ele>351.5</ele>
        <time>2022-09-27T12:04:41Z</time>
      </trkpt>
      <trkpt lat="46.13804" lon="5.96811">
        <ele>351.5</ele>
        <time>2022-09-27T12:04:42Z</time>
      </trkpt>
      <trkpt lat="46.13806" lon="5.96816">
        <ele>351.4</ele>
        <time>2022-09-27T12:04:43Z</time>
      </trkpt>
      <trkpt lat="46.13807" lon="5.96818">
        <ele>351.2</ele>
        <time>2022-09-27T12:04:44Z</time>
      </trkpt>
      <trkpt lat="46.13808" lon="5.96822">
        <ele>350.9</ele>
        <time>2022-09-27T12:04:45Z</time>
      </trkpt>
      <trkpt lat="46.13811" lon="5.96825">
        <ele>350.9</ele>
        <time>2022-09-27T12:04:46Z</time>
      </trkpt>
      <trkpt lat="46.13812" lon="5.96827">
        <ele>351.1</ele>
        <time>2022-09-27T12:04:47Z</time>
      </trkpt>
      <trkpt lat="46.13813" lon="5.96828">
        <ele>351.1</ele>
        <time>2022-09-27T12:04:48Z</time>
      </trkpt>
      <trkpt lat="46.13815" lon="5.96832">
        <ele>351.4</ele>
        <time>2022-09-27T12:04:49Z</time>
      </trkpt>
      <trkpt lat="46.13816" lon="5.96834">
        <ele>351.5</ele>
        <time>2022-09-27T12:04:50Z</time>
      </trkpt>
      <trkpt lat="46.13818" lon="5.96837">
        <ele>351.7</ele>
        <time>2022-09-27T12:04:51Z</time>
      </trkpt>
      <trkpt lat="46.13822" lon="5.96841">
        <ele>352</ele>
        <time>2022-09-27T12:04:53Z</time>
      </trkpt>
      <trkpt lat="46.13823" lon="5.96843">
        <ele>352.1</ele>
        <time>2022-09-27T12:04:54Z</time>
      </trkpt>
      <trkpt lat="46.13824" lon="5.96845">
        <ele>352.3</ele>
        <time>2022-09-27T12:04:55Z</time>
      </trkpt>
      <trkpt lat="46.13827" lon="5.96848">
        <ele>352.6</ele>
        <time>2022-09-27T12:04:56Z</time>
      </trkpt>
      <trkpt lat="46.13828" lon="5.96849">
        <ele>352.6</ele>
        <time>2022-09-27T12:04:57Z</time>
      </trkpt>
      <trkpt lat="46.13831" lon="5.96851">
        <ele>352.9</ele>
        <time>2022-09-27T12:04:58Z</time>
      </trkpt>
      <trkpt lat="46.13831" lon="5.96852">
        <ele>353</ele>
        <time>2022-09-27T12:04:59Z</time>
      </trkpt>
      <trkpt lat="46.13834" lon="5.96853">
        <ele>353.2</ele>
        <time>2022-09-27T12:05:00Z</time>
      </trkpt>
      <trkpt lat="46.13837" lon="5.96855">
        <ele>353.5</ele>
        <time>2022-09-27T12:05:01Z</time>
      </trkpt>
      <trkpt lat="46.13837" lon="5.96856">
        <ele>353.6</ele>
        <time>2022-09-27T12:05:02Z</time>
      </trkpt>
      <trkpt lat="46.13839" lon="5.96857">
        <ele>353.8</ele>
        <time>2022-09-27T12:05:03Z</time>
      </trkpt>
      <trkpt lat="46.1384" lon="5.96858">
        <ele>353.9</ele>
        <time>2022-09-27T12:05:04Z</time>
      </trkpt>
      <trkpt lat="46.13842" lon="5.96861">
        <ele>354.2</ele>
        <time>2022-09-27T12:05:05Z</time>
      </trkpt>
      <trkpt lat="46.13843" lon="5.96862">
        <ele>354.3</ele>
        <time>2022-09-27T12:05:06Z</time>
      </trkpt>
      <trkpt lat="46.13845" lon="5.96864">
        <ele>354.4</ele>
        <time>2022-09-27T12:05:07Z</time>
      </trkpt>
      <trkpt lat="46.13845" lon="5.96865">
        <ele>354.6</ele>
        <time>2022-09-27T12:05:08Z</time>
      </trkpt>
      <trkpt lat="46.13847" lon="5.96867">
        <ele>354.8</ele>
        <time>2022-09-27T12:05:09Z</time>
      </trkpt>
      <trkpt lat="46.13848" lon="5.96868">
        <ele>354.9</ele>
        <time>2022-09-27T12:05:10Z</time>
      </trkpt>
      <trkpt lat="46.13849" lon="5.96869">
        <ele>355</ele>
        <time>2022-09-27T12:05:11Z</time>
      </trkpt>
      <trkpt lat="46.1385" lon="5.96871">
        <ele>355.2</ele>
        <time>2022-09-27T12:05:12Z</time>
      </trkpt>
      <trkpt lat="46.13852" lon="5.96873">
        <ele>355.5</ele>
        <time>2022-09-27T12:05:13Z</time>
      </trkpt>
      <trkpt lat="46.13853" lon="5.96874">
        <ele>355.6</ele>
        <time>2022-09-27T12:05:14Z</time>
      </trkpt>
      <trkpt lat="46.13855" lon="5.96877">
        <ele>356</ele>
        <time>2022-09-27T12:05:15Z</time>
      </trkpt>
      <trkpt lat="46.13856" lon="5.96878">
        <ele>356</ele>
        <time>2022-09-27T12:05:16Z</time>
      </trkpt>
      <trkpt lat="46.13857" lon="5.9688">
        <ele>356.2</ele>
        <time>2022-09-27T12:05:17Z</time>
      </trkpt>
      <trkpt lat="46.13858" lon="5.96881">
        <ele>356.4</ele>
        <time>2022-09-27T12:05:18Z</time>
      </trkpt>
      <trkpt lat="46.1386" lon="5.96884">
        <ele>356.7</ele>
        <time>2022-09-27T12:05:19Z</time>
      </trkpt>
      <trkpt lat="46.1386" lon="5.96886">
        <ele>356.8</ele>
        <time>2022-09-27T12:05:20Z</time>
      </trkpt>
      <trkpt lat="46.13861" lon="5.96889">
        <ele>357</ele>
        <time>2022-09-27T12:05:21Z</time>
      </trkpt>
      <trkpt lat="46.13862" lon="5.96893">
        <ele>357.3</ele>
        <time>2022-09-27T12:05:22Z</time>
      </trkpt>
      <trkpt lat="46.13863" lon="5.96894">
        <ele>357.4</ele>
        <time>2022-09-27T12:05:23Z</time>
      </trkpt>
      <trkpt lat="46.13864" lon="5.96896">
        <ele>357.6</ele>
        <time>2022-09-27T12:05:24Z</time>
      </trkpt>
      <trkpt lat="46.13864" lon="5.96898">
        <ele>357.7</ele>
        <time>2022-09-27T12:05:25Z</time>
      </trkpt>
      <trkpt lat="46.13865" lon="5.96899">
        <ele>357.8</ele>
        <time>2022-09-27T12:05:26Z</time>
      </trkpt>
      <trkpt lat="46.13866" lon="5.96902">
        <ele>358</ele>
        <time>2022-09-27T12:05:27Z</time>
      </trkpt>
      <trkpt lat="46.13868" lon="5.96906">
        <ele>358.3</ele>
        <time>2022-09-27T12:05:28Z</time>
      </trkpt>
      <trkpt lat="46.13868" lon="5.96907">
        <ele>358.4</ele>
        <time>2022-09-27T12:05:29Z</time>
      </trkpt>
      <trkpt lat="46.13869" lon="5.96908">
        <ele>358.5</ele>
        <time>2022-09-27T12:05:30Z</time>
      </trkpt>
      <trkpt lat="46.1387" lon="5.96911">
        <ele>358.7</ele>
        <time>2022-09-27T12:05:31Z</time>
      </trkpt>
      <trkpt lat="46.13872" lon="5.96916">
        <ele>359</ele>
        <time>2022-09-27T12:05:32Z</time>
      </trkpt>
      <trkpt lat="46.13873" lon="5.96918">
        <ele>359.1</ele>
        <time>2022-09-27T12:05:33Z</time>
      </trkpt>
      <trkpt lat="46.13874" lon="5.9692">
        <ele>359.3</ele>
        <time>2022-09-27T12:05:34Z</time>
      </trkpt>
      <trkpt lat="46.13875" lon="5.96921">
        <ele>359.4</ele>
        <time>2022-09-27T12:05:35Z</time>
      </trkpt>
      <trkpt lat="46.13876" lon="5.96923">
        <ele>359.5</ele>
        <time>2022-09-27T12:05:36Z</time>
      </trkpt>
      <trkpt lat="46.13877" lon="5.96924">
        <ele>359.7</ele>
        <time>2022-09-27T12:05:37Z</time>
      </trkpt>
      <trkpt lat="46.13878" lon="5.96926">
        <ele>359.8</ele>
        <time>2022-09-27T12:05:38Z</time>
      </trkpt>
      <trkpt lat="46.13878" lon="5.96928">
        <ele>359.9</ele>
        <time>2022-09-27T12:05:39Z</time>
      </trkpt>
      <trkpt lat="46.13879" lon="5.9693">
        <ele>360</ele>
        <time>2022-09-27T12:05:40Z</time>
      </trkpt>
      <trkpt lat="46.1388" lon="5.96932">
        <ele>360.1</ele>
        <time>2022-09-27T12:05:41Z</time>
      </trkpt>
      <trkpt lat="46.13881" lon="5.96935">
        <ele>360.3</ele>
        <time>2022-09-27T12:05:42Z</time>
      </trkpt>
      <trkpt lat="46.13883" lon="5.96939">
        <ele>360.5</ele>
        <time>2022-09-27T12:05:43Z</time>
      </trkpt>
      <trkpt lat="46.13884" lon="5.9694">
        <ele>360.6</ele>
        <time>2022-09-27T12:05:44Z</time>
      </trkpt>
      <trkpt lat="46.13884" lon="5.96942">
        <ele>360.7</ele>
        <time>2022-09-27T12:05:45Z</time>
      </trkpt>
      <trkpt lat="46.13885" lon="5.96944">
        <ele>360.9</ele>
        <time>2022-09-27T12:05:46Z</time>
      </trkpt>
      <trkpt lat="46.13887" lon="5.96948">
        <ele>361.1</ele>
        <time>2022-09-27T12:05:47Z</time>
      </trkpt>
      <trkpt lat="46.13888" lon="5.9695">
        <ele>361.1</ele>
        <time>2022-09-27T12:05:48Z</time>
      </trkpt>
      <trkpt lat="46.13889" lon="5.96953">
        <ele>361.3</ele>
        <time>2022-09-27T12:05:49Z</time>
      </trkpt>
      <trkpt lat="46.1389" lon="5.96954">
        <ele>361.3</ele>
        <time>2022-09-27T12:05:50Z</time>
      </trkpt>
      <trkpt lat="46.13892" lon="5.96958">
        <ele>361.5</ele>
        <time>2022-09-27T12:05:51Z</time>
      </trkpt>
      <trkpt lat="46.13893" lon="5.96959">
        <ele>361.5</ele>
        <time>2022-09-27T12:05:52Z</time>
      </trkpt>
      <trkpt lat="46.13894" lon="5.96961">
        <ele>361.6</ele>
        <time>2022-09-27T12:05:53Z</time>
      </trkpt>
      <trkpt lat="46.13895" lon="5.96962">
        <ele>361.7</ele>
        <time>2022-09-27T12:05:54Z</time>
      </trkpt>
      <trkpt lat="46.13895" lon="5.96964">
        <ele>361.7</ele>
        <time>2022-09-27T12:05:55Z</time>
      </trkpt>
      <trkpt lat="46.13896" lon="5.96966">
        <ele>361.8</ele>
        <time>2022-09-27T12:05:56Z</time>
      </trkpt>
      <trkpt lat="46.13897" lon="5.9697">
        <ele>361.9</ele>
        <time>2022-09-27T12:05:57Z</time>
      </trkpt>
      <trkpt lat="46.13897" lon="5.96971">
        <ele>361.9</ele>
        <time>2022-09-27T12:05:58Z</time>
      </trkpt>
      <trkpt lat="46.13899" lon="5.96973">
        <ele>362</ele>
        <time>2022-09-27T12:05:59Z</time>
      </trkpt>
      <trkpt lat="46.13899" lon="5.96975">
        <ele>362</ele>
        <time>2022-09-27T12:06:00Z</time>
      </trkpt>
      <trkpt lat="46.139" lon="5.96979">
        <ele>362.1</ele>
        <time>2022-09-27T12:06:01Z</time>
      </trkpt>
      <trkpt lat="46.13901" lon="5.9698">
        <ele>362.1</ele>
        <time>2022-09-27T12:06:02Z</time>
      </trkpt>
      <trkpt lat="46.13901" lon="5.96982">
        <ele>362.2</ele>
        <time>2022-09-27T12:06:03Z</time>
      </trkpt>
      <trkpt lat="46.13903" lon="5.96984">
        <ele>362.2</ele>
        <time>2022-09-27T12:06:04Z</time>
      </trkpt>
      <trkpt lat="46.13904" lon="5.96988">
        <ele>362.3</ele>
        <time>2022-09-27T12:06:05Z</time>
      </trkpt>
      <trkpt lat="46.13905" lon="5.96989">
        <ele>362.3</ele>
        <time>2022-09-27T12:06:06Z</time>
      </trkpt>
      <trkpt lat="46.13907" lon="5.96993">
        <ele>362.4</ele>
        <time>2022-09-27T12:06:07Z</time>
      </trkpt>
      <trkpt lat="46.13908" lon="5.96995">
        <ele>362.4</ele>
        <time>2022-09-27T12:06:08Z</time>
      </trkpt>
      <trkpt lat="46.13909" lon="5.96999">
        <ele>362.4</ele>
        <time>2022-09-27T12:06:09Z</time>
      </trkpt>
      <trkpt lat="46.1391" lon="5.97">
        <ele>362.4</ele>
        <time>2022-09-27T12:06:10Z</time>
      </trkpt>
      <trkpt lat="46.13911" lon="5.97005">
        <ele>362.5</ele>
        <time>2022-09-27T12:06:11Z</time>
      </trkpt>
      <trkpt lat="46.13911" lon="5.97005">
        <ele>362.5</ele>
        <time>2022-09-27T12:06:12Z</time>
      </trkpt>
      <trkpt lat="46.13913" lon="5.9701">
        <ele>362.5</ele>
        <time>2022-09-27T12:06:13Z</time>
      </trkpt>
      <trkpt lat="46.13913" lon="5.97011">
        <ele>362.5</ele>
        <time>2022-09-27T12:06:14Z</time>
      </trkpt>
      <trkpt lat="46.13915" lon="5.97016">
        <ele>362.5</ele>
        <time>2022-09-27T12:06:15Z</time>
      </trkpt>
      <trkpt lat="46.13916" lon="5.97017">
        <ele>362.5</ele>
        <time>2022-09-27T12:06:16Z</time>
      </trkpt>
      <trkpt lat="46.13917" lon="5.97021">
        <ele>362.4</ele>
        <time>2022-09-27T12:06:17Z</time>
      </trkpt>
      <trkpt lat="46.13917" lon="5.97023">
        <ele>362.4</ele>
        <time>2022-09-27T12:06:18Z</time>
      </trkpt>
      <trkpt lat="46.13919" lon="5.97027">
        <ele>362.4</ele>
        <time>2022-09-27T12:06:19Z</time>
      </trkpt>
      <trkpt lat="46.1392" lon="5.97029">
        <ele>362.3</ele>
        <time>2022-09-27T12:06:20Z</time>
      </trkpt>
      <trkpt lat="46.13922" lon="5.97032">
        <ele>362.3</ele>
        <time>2022-09-27T12:06:21Z</time>
      </trkpt>
      <trkpt lat="46.13924" lon="5.97036">
        <ele>362.2</ele>
        <time>2022-09-27T12:06:22Z</time>
      </trkpt>
      <trkpt lat="46.13925" lon="5.9704">
        <ele>362.1</ele>
        <time>2022-09-27T12:06:23Z</time>
      </trkpt>
      <trkpt lat="46.13926" lon="5.97045">
        <ele>362</ele>
        <time>2022-09-27T12:06:24Z</time>
      </trkpt>
      <trkpt lat="46.13927" lon="5.97049">
        <ele>362</ele>
        <time>2022-09-27T12:06:25Z</time>
      </trkpt>
      <trkpt lat="46.1393" lon="5.97052">
        <ele>361.9</ele>
        <time>2022-09-27T12:06:26Z</time>
      </trkpt>
      <trkpt lat="46.13932" lon="5.97056">
        <ele>361.8</ele>
        <time>2022-09-27T12:06:27Z</time>
      </trkpt>
      <trkpt lat="46.13934" lon="5.97062">
        <ele>361.7</ele>
        <time>2022-09-27T12:06:28Z</time>
      </trkpt>
      <trkpt lat="46.13936" lon="5.97067">
        <ele>361.6</ele>
        <time>2022-09-27T12:06:29Z</time>
      </trkpt>
      <trkpt lat="46.13938" lon="5.97072">
        <ele>361.5</ele>
        <time>2022-09-27T12:06:30Z</time>
      </trkpt>
      <trkpt lat="46.1394" lon="5.97076">
        <ele>361.4</ele>
        <time>2022-09-27T12:06:31Z</time>
      </trkpt>
      <trkpt lat="46.13944" lon="5.97081">
        <ele>361.2</ele>
        <time>2022-09-27T12:06:32Z</time>
      </trkpt>
      <trkpt lat="46.13946" lon="5.97086">
        <ele>361.1</ele>
        <time>2022-09-27T12:06:33Z</time>
      </trkpt>
      <trkpt lat="46.13948" lon="5.97091">
        <ele>361</ele>
        <time>2022-09-27T12:06:34Z</time>
      </trkpt>
      <trkpt lat="46.1395" lon="5.97097">
        <ele>360.9</ele>
        <time>2022-09-27T12:06:35Z</time>
      </trkpt>
      <trkpt lat="46.13952" lon="5.97103">
        <ele>360.8</ele>
        <time>2022-09-27T12:06:36Z</time>
      </trkpt>
      <trkpt lat="46.13955" lon="5.97108">
        <ele>360.7</ele>
        <time>2022-09-27T12:06:37Z</time>
      </trkpt>
      <trkpt lat="46.13959" lon="5.97114">
        <ele>360.5</ele>
        <time>2022-09-27T12:06:38Z</time>
      </trkpt>
      <trkpt lat="46.13962" lon="5.9712">
        <ele>360.4</ele>
        <time>2022-09-27T12:06:39Z</time>
      </trkpt>
      <trkpt lat="46.13966" lon="5.97124">
        <ele>360.3</ele>
        <time>2022-09-27T12:06:40Z</time>
      </trkpt>
      <trkpt lat="46.13969" lon="5.9713">
        <ele>360.3</ele>
        <time>2022-09-27T12:06:41Z</time>
      </trkpt>
      <trkpt lat="46.13971" lon="5.97133">
        <ele>360.2</ele>
        <time>2022-09-27T12:06:42Z</time>
      </trkpt>
      <trkpt lat="46.13974" lon="5.97137">
        <ele>360.2</ele>
        <time>2022-09-27T12:06:43Z</time>
      </trkpt>
      <trkpt lat="46.13974" lon="5.97139">
        <ele>360.2</ele>
        <time>2022-09-27T12:06:44Z</time>
      </trkpt>
      <trkpt lat="46.13974" lon="5.97139">
        <ele>360.2</ele>
        <time>2022-09-27T12:06:45Z</time>
      </trkpt>
      <trkpt lat="46.13973" lon="5.97139">
        <ele>360.1</ele>
        <time>2022-09-27T12:06:46Z</time>
      </trkpt>
      <trkpt lat="46.13973" lon="5.97139">
        <ele>360.1</ele>
        <time>2022-09-27T12:06:47Z</time>
      </trkpt>
      <trkpt lat="46.13973" lon="5.97139">
        <ele>360.1</ele>
        <time>2022-09-27T12:06:48Z</time>
      </trkpt>
      <trkpt lat="46.13973" lon="5.97139">
        <ele>360.1</ele>
        <time>2022-09-27T12:06:49Z</time>
      </trkpt>
      <trkpt lat="46.13974" lon="5.9714">
        <ele>360.1</ele>
        <time>2022-09-27T12:06:50Z</time>
      </trkpt>
      <trkpt lat="46.13974" lon="5.9714">
        <ele>360.1</ele>
        <time>2022-09-27T12:06:51Z</time>
      </trkpt>
      <trkpt lat="46.13974" lon="5.9714">
        <ele>360.1</ele>
        <time>2022-09-27T12:06:52Z</time>
      </trkpt>
      <trkpt lat="46.13974" lon="5.9714">
        <ele>360.1</ele>
        <time>2022-09-27T12:06:53Z</time>
      </trkpt>
      <trkpt lat="46.13975" lon="5.97141">
        <ele>360.1</ele>
        <time>2022-09-27T12:06:54Z</time>
      </trkpt>
      <trkpt lat="46.13981" lon="5.97155">
        <ele>359.9</ele>
        <time>2022-09-27T12:07:56Z</time>
      </trkpt>
      <trkpt lat="46.13983" lon="5.97159">
        <ele>359.9</ele>
        <time>2022-09-27T12:07:57Z</time>
      </trkpt>
      <trkpt lat="46.13985" lon="5.97163">
        <ele>359.8</ele>
        <time>2022-09-27T12:07:58Z</time>
      </trkpt>
      <trkpt lat="46.13988" lon="5.97167">
        <ele>359.8</ele>
        <time>2022-09-27T12:07:59Z</time>
      </trkpt>
      <trkpt lat="46.13991" lon="5.9717">
        <ele>359.7</ele>
        <time>2022-09-27T12:08:00Z</time>
      </trkpt>
      <trkpt lat="46.13994" lon="5.97174">
        <ele>359.7</ele>
        <time>2022-09-27T12:08:01Z</time>
      </trkpt>
      <trkpt lat="46.13997" lon="5.97178">
        <ele>359.6</ele>
        <time>2022-09-27T12:08:02Z</time>
      </trkpt>
      <trkpt lat="46.14" lon="5.97181">
        <ele>359.5</ele>
        <time>2022-09-27T12:08:03Z</time>
      </trkpt>
      <trkpt lat="46.14004" lon="5.97184">
        <ele>359.4</ele>
        <time>2022-09-27T12:08:04Z</time>
      </trkpt>
      <trkpt lat="46.14008" lon="5.97188">
        <ele>359.2</ele>
        <time>2022-09-27T12:08:05Z</time>
      </trkpt>
      <trkpt lat="46.14012" lon="5.97191">
        <ele>359</ele>
        <time>2022-09-27T12:08:06Z</time>
      </trkpt>
      <trkpt lat="46.14016" lon="5.97195">
        <ele>358.9</ele>
        <time>2022-09-27T12:08:07Z</time>
      </trkpt>
      <trkpt lat="46.1402" lon="5.97199">
        <ele>358.7</ele>
        <time>2022-09-27T12:08:08Z</time>
      </trkpt>
      <trkpt lat="46.14024" lon="5.97203">
        <ele>358.4</ele>
        <time>2022-09-27T12:08:09Z</time>
      </trkpt>
      <trkpt lat="46.14028" lon="5.97206">
        <ele>358.2</ele>
        <time>2022-09-27T12:08:10Z</time>
      </trkpt>
      <trkpt lat="46.14033" lon="5.97211">
        <ele>357.9</ele>
        <time>2022-09-27T12:08:11Z</time>
      </trkpt>
      <trkpt lat="46.14037" lon="5.97215">
        <ele>357.6</ele>
        <time>2022-09-27T12:08:12Z</time>
      </trkpt>
      <trkpt lat="46.14042" lon="5.97219">
        <ele>357.3</ele>
        <time>2022-09-27T12:08:13Z</time>
      </trkpt>
      <trkpt lat="46.14047" lon="5.97223">
        <ele>356.9</ele>
        <time>2022-09-27T12:08:14Z</time>
      </trkpt>
      <trkpt lat="46.14053" lon="5.97227">
        <ele>356.5</ele>
        <time>2022-09-27T12:08:15Z</time>
      </trkpt>
      <trkpt lat="46.14058" lon="5.97231">
        <ele>356.2</ele>
        <time>2022-09-27T12:08:16Z</time>
      </trkpt>
      <trkpt lat="46.14063" lon="5.97235">
        <ele>355.9</ele>
        <time>2022-09-27T12:08:17Z</time>
      </trkpt>
      <trkpt lat="46.14067" lon="5.97239">
        <ele>355.6</ele>
        <time>2022-09-27T12:08:18Z</time>
      </trkpt>
      <trkpt lat="46.14073" lon="5.97242">
        <ele>355.2</ele>
        <time>2022-09-27T12:08:19Z</time>
      </trkpt>
      <trkpt lat="46.14078" lon="5.97247">
        <ele>355</ele>
        <time>2022-09-27T12:08:20Z</time>
      </trkpt>
      <trkpt lat="46.14082" lon="5.97249">
        <ele>354.9</ele>
        <time>2022-09-27T12:08:21Z</time>
      </trkpt>
      <trkpt lat="46.14087" lon="5.97253">
        <ele>354.8</ele>
        <time>2022-09-27T12:08:22Z</time>
      </trkpt>
      <trkpt lat="46.14091" lon="5.97257">
        <ele>354.5</ele>
        <time>2022-09-27T12:08:23Z</time>
      </trkpt>
      <trkpt lat="46.14095" lon="5.9726">
        <ele>354.2</ele>
        <time>2022-09-27T12:08:24Z</time>
      </trkpt>
      <trkpt lat="46.141" lon="5.97265">
        <ele>353.9</ele>
        <time>2022-09-27T12:08:25Z</time>
      </trkpt>
      <trkpt lat="46.14105" lon="5.9727">
        <ele>353.6</ele>
        <time>2022-09-27T12:08:26Z</time>
      </trkpt>
      <trkpt lat="46.14108" lon="5.97275">
        <ele>353.3</ele>
        <time>2022-09-27T12:08:27Z</time>
      </trkpt>
      <trkpt lat="46.14112" lon="5.97279">
        <ele>353.1</ele>
        <time>2022-09-27T12:08:28Z</time>
      </trkpt>
      <trkpt lat="46.14116" lon="5.97284">
        <ele>352.9</ele>
        <time>2022-09-27T12:08:29Z</time>
      </trkpt>
      <trkpt lat="46.1412" lon="5.97288">
        <ele>352.7</ele>
        <time>2022-09-27T12:08:30Z</time>
      </trkpt>
      <trkpt lat="46.14124" lon="5.97291">
        <ele>352.5</ele>
        <time>2022-09-27T12:08:31Z</time>
      </trkpt>
      <trkpt lat="46.14129" lon="5.97296">
        <ele>352.2</ele>
        <time>2022-09-27T12:08:32Z</time>
      </trkpt>
      <trkpt lat="46.14134" lon="5.97301">
        <ele>352</ele>
        <time>2022-09-27T12:08:33Z</time>
      </trkpt>
      <trkpt lat="46.14139" lon="5.97305">
        <ele>351.8</ele>
        <time>2022-09-27T12:08:34Z</time>
      </trkpt>
      <trkpt lat="46.14144" lon="5.97309">
        <ele>351.8</ele>
        <time>2022-09-27T12:08:35Z</time>
      </trkpt>
      <trkpt lat="46.1415" lon="5.97312">
        <ele>351.7</ele>
        <time>2022-09-27T12:08:36Z</time>
      </trkpt>
      <trkpt lat="46.14155" lon="5.97313">
        <ele>351.6</ele>
        <time>2022-09-27T12:08:37Z</time>
      </trkpt>
      <trkpt lat="46.14161" lon="5.97315">
        <ele>351.4</ele>
        <time>2022-09-27T12:08:38Z</time>
      </trkpt>
      <trkpt lat="46.14168" lon="5.97317">
        <ele>351.2</ele>
        <time>2022-09-27T12:08:39Z</time>
      </trkpt>
      <trkpt lat="46.14173" lon="5.9732">
        <ele>351.1</ele>
        <time>2022-09-27T12:08:40Z</time>
      </trkpt>
      <trkpt lat="46.1418" lon="5.97322">
        <ele>350.9</ele>
        <time>2022-09-27T12:08:41Z</time>
      </trkpt>
      <trkpt lat="46.14186" lon="5.97324">
        <ele>350.8</ele>
        <time>2022-09-27T12:08:42Z</time>
      </trkpt>
      <trkpt lat="46.14192" lon="5.97325">
        <ele>350.6</ele>
        <time>2022-09-27T12:08:43Z</time>
      </trkpt>
      <trkpt lat="46.14198" lon="5.97326">
        <ele>350.5</ele>
        <time>2022-09-27T12:08:44Z</time>
      </trkpt>
      <trkpt lat="46.14203" lon="5.97326">
        <ele>350.4</ele>
        <time>2022-09-27T12:08:45Z</time>
      </trkpt>
      <trkpt lat="46.14209" lon="5.97325">
        <ele>350.3</ele>
        <time>2022-09-27T12:08:46Z</time>
      </trkpt>
      <trkpt lat="46.14213" lon="5.97324">
        <ele>350.2</ele>
        <time>2022-09-27T12:08:47Z</time>
      </trkpt>
      <trkpt lat="46.14219" lon="5.97321">
        <ele>350.1</ele>
        <time>2022-09-27T12:08:48Z</time>
      </trkpt>
      <trkpt lat="46.14224" lon="5.97318">
        <ele>350</ele>
        <time>2022-09-27T12:08:49Z</time>
      </trkpt>
      <trkpt lat="46.14229" lon="5.97314">
        <ele>349.9</ele>
        <time>2022-09-27T12:08:50Z</time>
      </trkpt>
      <trkpt lat="46.14235" lon="5.97309">
        <ele>349.6</ele>
        <time>2022-09-27T12:08:51Z</time>
      </trkpt>
      <trkpt lat="46.1424" lon="5.97304">
        <ele>349.4</ele>
        <time>2022-09-27T12:08:52Z</time>
      </trkpt>
      <trkpt lat="46.14244" lon="5.97299">
        <ele>349.3</ele>
        <time>2022-09-27T12:08:53Z</time>
      </trkpt>
      <trkpt lat="46.1425" lon="5.97295">
        <ele>349.2</ele>
        <time>2022-09-27T12:08:54Z</time>
      </trkpt>
      <trkpt lat="46.14255" lon="5.9729">
        <ele>349.1</ele>
        <time>2022-09-27T12:08:55Z</time>
      </trkpt>
      <trkpt lat="46.14259" lon="5.97284">
        <ele>349.1</ele>
        <time>2022-09-27T12:08:56Z</time>
      </trkpt>
      <trkpt lat="46.14264" lon="5.9728">
        <ele>349.1</ele>
        <time>2022-09-27T12:08:57Z</time>
      </trkpt>
      <trkpt lat="46.14269" lon="5.97274">
        <ele>349.1</ele>
        <time>2022-09-27T12:08:58Z</time>
      </trkpt>
      <trkpt lat="46.14274" lon="5.9727">
        <ele>349.1</ele>
        <time>2022-09-27T12:08:59Z</time>
      </trkpt>
      <trkpt lat="46.14278" lon="5.97266">
        <ele>349.2</ele>
        <time>2022-09-27T12:09:00Z</time>
      </trkpt>
      <trkpt lat="46.14282" lon="5.97261">
        <ele>349.3</ele>
        <time>2022-09-27T12:09:01Z</time>
      </trkpt>
      <trkpt lat="46.14287" lon="5.97257">
        <ele>349.5</ele>
        <time>2022-09-27T12:09:02Z</time>
      </trkpt>
      <trkpt lat="46.14291" lon="5.97253">
        <ele>349.6</ele>
        <time>2022-09-27T12:09:03Z</time>
      </trkpt>
      <trkpt lat="46.14296" lon="5.97249">
        <ele>349.8</ele>
        <time>2022-09-27T12:09:05Z</time>
      </trkpt>
      <trkpt lat="46.14299" lon="5.97245">
        <ele>350</ele>
        <time>2022-09-27T12:09:06Z</time>
      </trkpt>
      <trkpt lat="46.14303" lon="5.97241">
        <ele>350.2</ele>
        <time>2022-09-27T12:09:07Z</time>
      </trkpt>
      <trkpt lat="46.14306" lon="5.97237">
        <ele>350.4</ele>
        <time>2022-09-27T12:09:08Z</time>
      </trkpt>
      <trkpt lat="46.1431" lon="5.97234">
        <ele>350.6</ele>
        <time>2022-09-27T12:09:09Z</time>
      </trkpt>
      <trkpt lat="46.14313" lon="5.97231">
        <ele>350.8</ele>
        <time>2022-09-27T12:09:10Z</time>
      </trkpt>
      <trkpt lat="46.14316" lon="5.97227">
        <ele>351</ele>
        <time>2022-09-27T12:09:11Z</time>
      </trkpt>
      <trkpt lat="46.14319" lon="5.97223">
        <ele>351.2</ele>
        <time>2022-09-27T12:09:12Z</time>
      </trkpt>
      <trkpt lat="46.14321" lon="5.9722">
        <ele>351.3</ele>
        <time>2022-09-27T12:09:13Z</time>
      </trkpt>
      <trkpt lat="46.14324" lon="5.97217">
        <ele>351.6</ele>
        <time>2022-09-27T12:09:14Z</time>
      </trkpt>
      <trkpt lat="46.14326" lon="5.97216">
        <ele>351.7</ele>
        <time>2022-09-27T12:09:15Z</time>
      </trkpt>
      <trkpt lat="46.14329" lon="5.97214">
        <ele>351.9</ele>
        <time>2022-09-27T12:09:16Z</time>
      </trkpt>
      <trkpt lat="46.14331" lon="5.97209">
        <ele>352.1</ele>
        <time>2022-09-27T12:09:17Z</time>
      </trkpt>
      <trkpt lat="46.14333" lon="5.97208">
        <ele>352.2</ele>
        <time>2022-09-27T12:09:18Z</time>
      </trkpt>
      <trkpt lat="46.14335" lon="5.97205">
        <ele>352.4</ele>
        <time>2022-09-27T12:09:19Z</time>
      </trkpt>
      <trkpt lat="46.14336" lon="5.97204">
        <ele>352.5</ele>
        <time>2022-09-27T12:09:20Z</time>
      </trkpt>
      <trkpt lat="46.14339" lon="5.972">
        <ele>352.8</ele>
        <time>2022-09-27T12:09:21Z</time>
      </trkpt>
      <trkpt lat="46.1434" lon="5.97199">
        <ele>352.8</ele>
        <time>2022-09-27T12:09:22Z</time>
      </trkpt>
      <trkpt lat="46.14342" lon="5.97197">
        <ele>353</ele>
        <time>2022-09-27T12:09:23Z</time>
      </trkpt>
      <trkpt lat="46.14345" lon="5.97194">
        <ele>353.2</ele>
        <time>2022-09-27T12:09:24Z</time>
      </trkpt>
      <trkpt lat="46.14346" lon="5.97193">
        <ele>353.3</ele>
        <time>2022-09-27T12:09:25Z</time>
      </trkpt>
      <trkpt lat="46.14349" lon="5.97191">
        <ele>353.5</ele>
        <time>2022-09-27T12:09:26Z</time>
      </trkpt>
      <trkpt lat="46.14351" lon="5.9719">
        <ele>353.6</ele>
        <time>2022-09-27T12:09:27Z</time>
      </trkpt>
      <trkpt lat="46.14354" lon="5.97188">
        <ele>353.8</ele>
        <time>2022-09-27T12:09:28Z</time>
      </trkpt>
      <trkpt lat="46.14355" lon="5.97187">
        <ele>353.9</ele>
        <time>2022-09-27T12:09:29Z</time>
      </trkpt>
      <trkpt lat="46.14358" lon="5.97185">
        <ele>354.1</ele>
        <time>2022-09-27T12:09:30Z</time>
      </trkpt>
      <trkpt lat="46.1436" lon="5.97184">
        <ele>354.1</ele>
        <time>2022-09-27T12:09:31Z</time>
      </trkpt>
      <trkpt lat="46.14362" lon="5.97183">
        <ele>354.3</ele>
        <time>2022-09-27T12:09:32Z</time>
      </trkpt>
      <trkpt lat="46.14365" lon="5.97181">
        <ele>354.5</ele>
        <time>2022-09-27T12:09:33Z</time>
      </trkpt>
      <trkpt lat="46.14367" lon="5.9718">
        <ele>354.5</ele>
        <time>2022-09-27T12:09:34Z</time>
      </trkpt>
      <trkpt lat="46.14369" lon="5.97177">
        <ele>354.7</ele>
        <time>2022-09-27T12:09:35Z</time>
      </trkpt>
      <trkpt lat="46.1437" lon="5.97176">
        <ele>354.8</ele>
        <time>2022-09-27T12:09:36Z</time>
      </trkpt>
      <trkpt lat="46.14374" lon="5.97174">
        <ele>354.9</ele>
        <time>2022-09-27T12:09:37Z</time>
      </trkpt>
      <trkpt lat="46.14375" lon="5.97174">
        <ele>355</ele>
        <time>2022-09-27T12:09:38Z</time>
      </trkpt>
      <trkpt lat="46.14378" lon="5.97171">
        <ele>355.1</ele>
        <time>2022-09-27T12:09:39Z</time>
      </trkpt>
      <trkpt lat="46.14379" lon="5.9717">
        <ele>355.2</ele>
        <time>2022-09-27T12:09:40Z</time>
      </trkpt>
      <trkpt lat="46.14382" lon="5.97169">
        <ele>355.3</ele>
        <time>2022-09-27T12:09:41Z</time>
      </trkpt>
      <trkpt lat="46.14383" lon="5.97168">
        <ele>355.4</ele>
        <time>2022-09-27T12:09:42Z</time>
      </trkpt>
      <trkpt lat="46.14386" lon="5.97166">
        <ele>355.5</ele>
        <time>2022-09-27T12:09:43Z</time>
      </trkpt>
      <trkpt lat="46.14389" lon="5.97163">
        <ele>355.6</ele>
        <time>2022-09-27T12:09:44Z</time>
      </trkpt>
      <trkpt lat="46.14391" lon="5.97162">
        <ele>355.6</ele>
        <time>2022-09-27T12:09:45Z</time>
      </trkpt>
      <trkpt lat="46.14394" lon="5.9716">
        <ele>355.7</ele>
        <time>2022-09-27T12:09:46Z</time>
      </trkpt>
      <trkpt lat="46.14395" lon="5.97159">
        <ele>355.8</ele>
        <time>2022-09-27T12:09:47Z</time>
      </trkpt>
      <trkpt lat="46.14399" lon="5.97157">
        <ele>355.9</ele>
        <time>2022-09-27T12:09:48Z</time>
      </trkpt>
      <trkpt lat="46.144" lon="5.97156">
        <ele>355.9</ele>
        <time>2022-09-27T12:09:49Z</time>
      </trkpt>
      <trkpt lat="46.14402" lon="5.97154">
        <ele>356</ele>
        <time>2022-09-27T12:09:50Z</time>
      </trkpt>
      <trkpt lat="46.14405" lon="5.97151">
        <ele>356.1</ele>
        <time>2022-09-27T12:09:51Z</time>
      </trkpt>
      <trkpt lat="46.14407" lon="5.97148">
        <ele>356.2</ele>
        <time>2022-09-27T12:09:52Z</time>
      </trkpt>
      <trkpt lat="46.14409" lon="5.97146">
        <ele>356.3</ele>
        <time>2022-09-27T12:09:53Z</time>
      </trkpt>
      <trkpt lat="46.14412" lon="5.97142">
        <ele>356.4</ele>
        <time>2022-09-27T12:09:54Z</time>
      </trkpt>
      <trkpt lat="46.14417" lon="5.97136">
        <ele>356.6</ele>
        <time>2022-09-27T12:09:55Z</time>
      </trkpt>
      <trkpt lat="46.14419" lon="5.97133">
        <ele>356.7</ele>
        <time>2022-09-27T12:09:56Z</time>
      </trkpt>
      <trkpt lat="46.14421" lon="5.97131">
        <ele>356.8</ele>
        <time>2022-09-27T12:09:57Z</time>
      </trkpt>
      <trkpt lat="46.14424" lon="5.97128">
        <ele>356.8</ele>
        <time>2022-09-27T12:09:58Z</time>
      </trkpt>
      <trkpt lat="46.14426" lon="5.97125">
        <ele>356.9</ele>
        <time>2022-09-27T12:09:59Z</time>
      </trkpt>
      <trkpt lat="46.14429" lon="5.97123">
        <ele>357</ele>
        <time>2022-09-27T12:10:00Z</time>
      </trkpt>
      <trkpt lat="46.14431" lon="5.97119">
        <ele>357.1</ele>
        <time>2022-09-27T12:10:01Z</time>
      </trkpt>
      <trkpt lat="46.14433" lon="5.97117">
        <ele>357.2</ele>
        <time>2022-09-27T12:10:02Z</time>
      </trkpt>
      <trkpt lat="46.14435" lon="5.97115">
        <ele>357.3</ele>
        <time>2022-09-27T12:10:03Z</time>
      </trkpt>
      <trkpt lat="46.14438" lon="5.97111">
        <ele>357.4</ele>
        <time>2022-09-27T12:10:04Z</time>
      </trkpt>
      <trkpt lat="46.14439" lon="5.97109">
        <ele>357.4</ele>
        <time>2022-09-27T12:10:05Z</time>
      </trkpt>
      <trkpt lat="46.14441" lon="5.97107">
        <ele>357.5</ele>
        <time>2022-09-27T12:10:06Z</time>
      </trkpt>
      <trkpt lat="46.14444" lon="5.97103">
        <ele>357.6</ele>
        <time>2022-09-27T12:10:07Z</time>
      </trkpt>
      <trkpt lat="46.14445" lon="5.97102">
        <ele>357.6</ele>
        <time>2022-09-27T12:10:08Z</time>
      </trkpt>
      <trkpt lat="46.14448" lon="5.97099">
        <ele>357.6</ele>
        <time>2022-09-27T12:10:09Z</time>
      </trkpt>
      <trkpt lat="46.14449" lon="5.97098">
        <ele>357.6</ele>
        <time>2022-09-27T12:10:10Z</time>
      </trkpt>
      <trkpt lat="46.14452" lon="5.97095">
        <ele>357.7</ele>
        <time>2022-09-27T12:10:11Z</time>
      </trkpt>
      <trkpt lat="46.14455" lon="5.97093">
        <ele>357.7</ele>
        <time>2022-09-27T12:10:12Z</time>
      </trkpt>
      <trkpt lat="46.14457" lon="5.97091">
        <ele>357.7</ele>
        <time>2022-09-27T12:10:13Z</time>
      </trkpt>
      <trkpt lat="46.14459" lon="5.97088">
        <ele>357.7</ele>
        <time>2022-09-27T12:10:14Z</time>
      </trkpt>
      <trkpt lat="46.14462" lon="5.97086">
        <ele>357.7</ele>
        <time>2022-09-27T12:10:15Z</time>
      </trkpt>
      <trkpt lat="46.14465" lon="5.97083">
        <ele>357.7</ele>
        <time>2022-09-27T12:10:16Z</time>
      </trkpt>
      <trkpt lat="46.14467" lon="5.97081">
        <ele>357.8</ele>
        <time>2022-09-27T12:10:17Z</time>
      </trkpt>
      <trkpt lat="46.1447" lon="5.97079">
        <ele>357.8</ele>
        <time>2022-09-27T12:10:18Z</time>
      </trkpt>
      <trkpt lat="46.14473" lon="5.97076">
        <ele>357.8</ele>
        <time>2022-09-27T12:10:19Z</time>
      </trkpt>
      <trkpt lat="46.14476" lon="5.97074">
        <ele>357.8</ele>
        <time>2022-09-27T12:10:20Z</time>
      </trkpt>
      <trkpt lat="46.14479" lon="5.9707">
        <ele>357.8</ele>
        <time>2022-09-27T12:10:21Z</time>
      </trkpt>
      <trkpt lat="46.14482" lon="5.97068">
        <ele>357.8</ele>
        <time>2022-09-27T12:10:22Z</time>
      </trkpt>
      <trkpt lat="46.14485" lon="5.97065">
        <ele>357.8</ele>
        <time>2022-09-27T12:10:23Z</time>
      </trkpt>
      <trkpt lat="46.14489" lon="5.97063">
        <ele>357.8</ele>
        <time>2022-09-27T12:10:24Z</time>
      </trkpt>
      <trkpt lat="46.14493" lon="5.9706">
        <ele>357.8</ele>
        <time>2022-09-27T12:10:25Z</time>
      </trkpt>
      <trkpt lat="46.14496" lon="5.97058">
        <ele>357.8</ele>
        <time>2022-09-27T12:10:26Z</time>
      </trkpt>
      <trkpt lat="46.145" lon="5.97056">
        <ele>357.8</ele>
        <time>2022-09-27T12:10:27Z</time>
      </trkpt>
      <trkpt lat="46.14504" lon="5.97055">
        <ele>357.8</ele>
        <time>2022-09-27T12:10:28Z</time>
      </trkpt>
      <trkpt lat="46.14509" lon="5.97053">
        <ele>357.8</ele>
        <time>2022-09-27T12:10:29Z</time>
      </trkpt>
      <trkpt lat="46.14513" lon="5.97052">
        <ele>357.8</ele>
        <time>2022-09-27T12:10:30Z</time>
      </trkpt>
      <trkpt lat="46.14517" lon="5.97051">
        <ele>357.8</ele>
        <time>2022-09-27T12:10:31Z</time>
      </trkpt>
      <trkpt lat="46.14522" lon="5.97049">
        <ele>357.8</ele>
        <time>2022-09-27T12:10:32Z</time>
      </trkpt>
      <trkpt lat="46.14525" lon="5.97048">
        <ele>357.8</ele>
        <time>2022-09-27T12:10:33Z</time>
      </trkpt>
      <trkpt lat="46.1453" lon="5.97047">
        <ele>357.8</ele>
        <time>2022-09-27T12:10:34Z</time>
      </trkpt>
      <trkpt lat="46.14534" lon="5.97045">
        <ele>357.8</ele>
        <time>2022-09-27T12:10:35Z</time>
      </trkpt>
      <trkpt lat="46.14539" lon="5.97044">
        <ele>357.8</ele>
        <time>2022-09-27T12:10:36Z</time>
      </trkpt>
      <trkpt lat="46.14544" lon="5.97043">
        <ele>357.8</ele>
        <time>2022-09-27T12:10:37Z</time>
      </trkpt>
      <trkpt lat="46.14547" lon="5.97041">
        <ele>357.8</ele>
        <time>2022-09-27T12:10:38Z</time>
      </trkpt>
      <trkpt lat="46.14552" lon="5.97041">
        <ele>357.8</ele>
        <time>2022-09-27T12:10:39Z</time>
      </trkpt>
      <trkpt lat="46.14555" lon="5.9704">
        <ele>357.9</ele>
        <time>2022-09-27T12:10:40Z</time>
      </trkpt>
      <trkpt lat="46.14559" lon="5.97038">
        <ele>357.9</ele>
        <time>2022-09-27T12:10:41Z</time>
      </trkpt>
      <trkpt lat="46.14563" lon="5.97037">
        <ele>357.9</ele>
        <time>2022-09-27T12:10:42Z</time>
      </trkpt>
      <trkpt lat="46.14567" lon="5.97037">
        <ele>357.9</ele>
        <time>2022-09-27T12:10:43Z</time>
      </trkpt>
      <trkpt lat="46.14571" lon="5.97035">
        <ele>357.9</ele>
        <time>2022-09-27T12:10:44Z</time>
      </trkpt>
      <trkpt lat="46.14575" lon="5.97034">
        <ele>357.9</ele>
        <time>2022-09-27T12:10:45Z</time>
      </trkpt>
      <trkpt lat="46.1458" lon="5.97034">
        <ele>357.9</ele>
        <time>2022-09-27T12:10:46Z</time>
      </trkpt>
      <trkpt lat="46.14584" lon="5.97033">
        <ele>357.9</ele>
        <time>2022-09-27T12:10:47Z</time>
      </trkpt>
      <trkpt lat="46.14589" lon="5.97032">
        <ele>358</ele>
        <time>2022-09-27T12:10:48Z</time>
      </trkpt>
      <trkpt lat="46.14594" lon="5.97031">
        <ele>358</ele>
        <time>2022-09-27T12:10:49Z</time>
      </trkpt>
      <trkpt lat="46.14599" lon="5.97029">
        <ele>358</ele>
        <time>2022-09-27T12:10:50Z</time>
      </trkpt>
      <trkpt lat="46.14603" lon="5.97028">
        <ele>358</ele>
        <time>2022-09-27T12:10:51Z</time>
      </trkpt>
      <trkpt lat="46.14608" lon="5.97025">
        <ele>358</ele>
        <time>2022-09-27T12:10:52Z</time>
      </trkpt>
      <trkpt lat="46.14612" lon="5.97021">
        <ele>358.1</ele>
        <time>2022-09-27T12:10:53Z</time>
      </trkpt>
      <trkpt lat="46.14616" lon="5.97017">
        <ele>358.1</ele>
        <time>2022-09-27T12:10:54Z</time>
      </trkpt>
      <trkpt lat="46.14621" lon="5.97014">
        <ele>358.1</ele>
        <time>2022-09-27T12:10:55Z</time>
      </trkpt>
      <trkpt lat="46.14625" lon="5.9701">
        <ele>358.2</ele>
        <time>2022-09-27T12:10:56Z</time>
      </trkpt>
      <trkpt lat="46.1463" lon="5.97007">
        <ele>358.2</ele>
        <time>2022-09-27T12:10:57Z</time>
      </trkpt>
      <trkpt lat="46.14634" lon="5.97004">
        <ele>358.2</ele>
        <time>2022-09-27T12:10:58Z</time>
      </trkpt>
      <trkpt lat="46.14637" lon="5.97">
        <ele>358.3</ele>
        <time>2022-09-27T12:10:59Z</time>
      </trkpt>
      <trkpt lat="46.14642" lon="5.96996">
        <ele>358.4</ele>
        <time>2022-09-27T12:11:00Z</time>
      </trkpt>
      <trkpt lat="46.14646" lon="5.96992">
        <ele>358.5</ele>
        <time>2022-09-27T12:11:01Z</time>
      </trkpt>
      <trkpt lat="46.1465" lon="5.96989">
        <ele>358.6</ele>
        <time>2022-09-27T12:11:02Z</time>
      </trkpt>
      <trkpt lat="46.14653" lon="5.96986">
        <ele>358.6</ele>
        <time>2022-09-27T12:11:03Z</time>
      </trkpt>
      <trkpt lat="46.14656" lon="5.96983">
        <ele>358.7</ele>
        <time>2022-09-27T12:11:04Z</time>
      </trkpt>
      <trkpt lat="46.14659" lon="5.9698">
        <ele>358.8</ele>
        <time>2022-09-27T12:11:05Z</time>
      </trkpt>
      <trkpt lat="46.14662" lon="5.96977">
        <ele>358.9</ele>
        <time>2022-09-27T12:11:06Z</time>
      </trkpt>
      <trkpt lat="46.14664" lon="5.96975">
        <ele>358.9</ele>
        <time>2022-09-27T12:11:07Z</time>
      </trkpt>
      <trkpt lat="46.14667" lon="5.96973">
        <ele>359</ele>
        <time>2022-09-27T12:11:08Z</time>
      </trkpt>
      <trkpt lat="46.1467" lon="5.9697">
        <ele>359.1</ele>
        <time>2022-09-27T12:11:09Z</time>
      </trkpt>
      <trkpt lat="46.14673" lon="5.96967">
        <ele>359.1</ele>
        <time>2022-09-27T12:11:11Z</time>
      </trkpt>
      <trkpt lat="46.14674" lon="5.96966">
        <ele>359.2</ele>
        <time>2022-09-27T12:11:12Z</time>
      </trkpt>
      <trkpt lat="46.14677" lon="5.96964">
        <ele>359.2</ele>
        <time>2022-09-27T12:11:13Z</time>
      </trkpt>
      <trkpt lat="46.1468" lon="5.96961">
        <ele>359.3</ele>
        <time>2022-09-27T12:11:14Z</time>
      </trkpt>
      <trkpt lat="46.14683" lon="5.96959">
        <ele>359.4</ele>
        <time>2022-09-27T12:11:15Z</time>
      </trkpt>
      <trkpt lat="46.14685" lon="5.96956">
        <ele>359.4</ele>
        <time>2022-09-27T12:11:16Z</time>
      </trkpt>
      <trkpt lat="46.14688" lon="5.96954">
        <ele>359.5</ele>
        <time>2022-09-27T12:11:17Z</time>
      </trkpt>
      <trkpt lat="46.14691" lon="5.96953">
        <ele>359.5</ele>
        <time>2022-09-27T12:11:18Z</time>
      </trkpt>
      <trkpt lat="46.14694" lon="5.96952">
        <ele>359.6</ele>
        <time>2022-09-27T12:11:19Z</time>
      </trkpt>
      <trkpt lat="46.14697" lon="5.96951">
        <ele>359.7</ele>
        <time>2022-09-27T12:11:20Z</time>
      </trkpt>
      <trkpt lat="46.14701" lon="5.9695">
        <ele>359.7</ele>
        <time>2022-09-27T12:11:21Z</time>
      </trkpt>
      <trkpt lat="46.14703" lon="5.9695">
        <ele>359.8</ele>
        <time>2022-09-27T12:11:22Z</time>
      </trkpt>
      <trkpt lat="46.14707" lon="5.96951">
        <ele>359.8</ele>
        <time>2022-09-27T12:11:23Z</time>
      </trkpt>
      <trkpt lat="46.1471" lon="5.96953">
        <ele>359.9</ele>
        <time>2022-09-27T12:11:24Z</time>
      </trkpt>
      <trkpt lat="46.14711" lon="5.96953">
        <ele>359.9</ele>
        <time>2022-09-27T12:11:25Z</time>
      </trkpt>
      <trkpt lat="46.14714" lon="5.96957">
        <ele>360</ele>
        <time>2022-09-27T12:11:26Z</time>
      </trkpt>
      <trkpt lat="46.14716" lon="5.96958">
        <ele>360</ele>
        <time>2022-09-27T12:11:27Z</time>
      </trkpt>
      <trkpt lat="46.14718" lon="5.96963">
        <ele>360.1</ele>
        <time>2022-09-27T12:11:28Z</time>
      </trkpt>
      <trkpt lat="46.14722" lon="5.96966">
        <ele>360.1</ele>
        <time>2022-09-27T12:11:29Z</time>
      </trkpt>
      <trkpt lat="46.14727" lon="5.9697">
        <ele>360.1</ele>
        <time>2022-09-27T12:11:30Z</time>
      </trkpt>
      <trkpt lat="46.1473" lon="5.96974">
        <ele>360.2</ele>
        <time>2022-09-27T12:11:31Z</time>
      </trkpt>
      <trkpt lat="46.14733" lon="5.96979">
        <ele>360.2</ele>
        <time>2022-09-27T12:11:32Z</time>
      </trkpt>
      <trkpt lat="46.14736" lon="5.96983">
        <ele>360.2</ele>
        <time>2022-09-27T12:11:33Z</time>
      </trkpt>
      <trkpt lat="46.1474" lon="5.96987">
        <ele>360.3</ele>
        <time>2022-09-27T12:11:34Z</time>
      </trkpt>
      <trkpt lat="46.14743" lon="5.96991">
        <ele>360.3</ele>
        <time>2022-09-27T12:11:35Z</time>
      </trkpt>
      <trkpt lat="46.14746" lon="5.96995">
        <ele>360.4</ele>
        <time>2022-09-27T12:11:36Z</time>
      </trkpt>
      <trkpt lat="46.14749" lon="5.97">
        <ele>360.4</ele>
        <time>2022-09-27T12:11:37Z</time>
      </trkpt>
      <trkpt lat="46.14752" lon="5.97004">
        <ele>360.4</ele>
        <time>2022-09-27T12:11:38Z</time>
      </trkpt>
      <trkpt lat="46.14756" lon="5.97009">
        <ele>360.4</ele>
        <time>2022-09-27T12:11:39Z</time>
      </trkpt>
      <trkpt lat="46.14759" lon="5.97013">
        <ele>360.5</ele>
        <time>2022-09-27T12:11:40Z</time>
      </trkpt>
      <trkpt lat="46.14761" lon="5.97016">
        <ele>360.5</ele>
        <time>2022-09-27T12:11:41Z</time>
      </trkpt>
      <trkpt lat="46.14764" lon="5.9702">
        <ele>360.5</ele>
        <time>2022-09-27T12:11:42Z</time>
      </trkpt>
      <trkpt lat="46.14768" lon="5.97023">
        <ele>360.5</ele>
        <time>2022-09-27T12:11:43Z</time>
      </trkpt>
      <trkpt lat="46.1477" lon="5.97028">
        <ele>360.6</ele>
        <time>2022-09-27T12:11:44Z</time>
      </trkpt>
      <trkpt lat="46.14772" lon="5.97032">
        <ele>360.6</ele>
        <time>2022-09-27T12:11:45Z</time>
      </trkpt>
      <trkpt lat="46.14774" lon="5.97037">
        <ele>360.6</ele>
        <time>2022-09-27T12:11:46Z</time>
      </trkpt>
      <trkpt lat="46.14777" lon="5.97042">
        <ele>360.6</ele>
        <time>2022-09-27T12:11:47Z</time>
      </trkpt>
      <trkpt lat="46.14781" lon="5.97045">
        <ele>360.6</ele>
        <time>2022-09-27T12:11:48Z</time>
      </trkpt>
      <trkpt lat="46.14783" lon="5.9705">
        <ele>360.6</ele>
        <time>2022-09-27T12:11:49Z</time>
      </trkpt>
      <trkpt lat="46.14786" lon="5.97054">
        <ele>360.7</ele>
        <time>2022-09-27T12:11:50Z</time>
      </trkpt>
      <trkpt lat="46.14789" lon="5.97059">
        <ele>360.7</ele>
        <time>2022-09-27T12:11:51Z</time>
      </trkpt>
      <trkpt lat="46.14792" lon="5.97064">
        <ele>360.7</ele>
        <time>2022-09-27T12:11:52Z</time>
      </trkpt>
      <trkpt lat="46.14795" lon="5.97068">
        <ele>360.7</ele>
        <time>2022-09-27T12:11:53Z</time>
      </trkpt>
      <trkpt lat="46.14798" lon="5.97072">
        <ele>360.8</ele>
        <time>2022-09-27T12:11:54Z</time>
      </trkpt>
      <trkpt lat="46.14801" lon="5.97077">
        <ele>360.8</ele>
        <time>2022-09-27T12:11:55Z</time>
      </trkpt>
      <trkpt lat="46.14805" lon="5.97081">
        <ele>360.8</ele>
        <time>2022-09-27T12:11:56Z</time>
      </trkpt>
      <trkpt lat="46.14807" lon="5.97086">
        <ele>360.9</ele>
        <time>2022-09-27T12:11:57Z</time>
      </trkpt>
      <trkpt lat="46.1481" lon="5.9709">
        <ele>360.9</ele>
        <time>2022-09-27T12:11:58Z</time>
      </trkpt>
      <trkpt lat="46.14815" lon="5.97098">
        <ele>361</ele>
        <time>2022-09-27T12:11:59Z</time>
      </trkpt>
      <trkpt lat="46.14819" lon="5.97102">
        <ele>361</ele>
        <time>2022-09-27T12:12:00Z</time>
      </trkpt>
      <trkpt lat="46.14821" lon="5.97105">
        <ele>361.1</ele>
        <time>2022-09-27T12:12:01Z</time>
      </trkpt>
      <trkpt lat="46.14825" lon="5.97108">
        <ele>361.1</ele>
        <time>2022-09-27T12:12:02Z</time>
      </trkpt>
      <trkpt lat="46.14827" lon="5.97113">
        <ele>361.2</ele>
        <time>2022-09-27T12:12:03Z</time>
      </trkpt>
      <trkpt lat="46.14829" lon="5.97117">
        <ele>361.2</ele>
        <time>2022-09-27T12:12:04Z</time>
      </trkpt>
      <trkpt lat="46.14831" lon="5.9712">
        <ele>361.2</ele>
        <time>2022-09-27T12:12:05Z</time>
      </trkpt>
      <trkpt lat="46.14833" lon="5.97124">
        <ele>361.3</ele>
        <time>2022-09-27T12:12:06Z</time>
      </trkpt>
      <trkpt lat="46.14836" lon="5.97128">
        <ele>361.4</ele>
        <time>2022-09-27T12:12:07Z</time>
      </trkpt>
      <trkpt lat="46.14837" lon="5.9713">
        <ele>361.4</ele>
        <time>2022-09-27T12:12:08Z</time>
      </trkpt>
      <trkpt lat="46.14839" lon="5.97134">
        <ele>361.4</ele>
        <time>2022-09-27T12:12:09Z</time>
      </trkpt>
      <trkpt lat="46.14841" lon="5.97138">
        <ele>361.4</ele>
        <time>2022-09-27T12:12:10Z</time>
      </trkpt>
      <trkpt lat="46.14844" lon="5.97141">
        <ele>361.5</ele>
        <time>2022-09-27T12:12:11Z</time>
      </trkpt>
      <trkpt lat="46.14846" lon="5.97145">
        <ele>361.5</ele>
        <time>2022-09-27T12:12:12Z</time>
      </trkpt>
      <trkpt lat="46.14849" lon="5.97148">
        <ele>361.5</ele>
        <time>2022-09-27T12:12:13Z</time>
      </trkpt>
      <trkpt lat="46.14851" lon="5.97151">
        <ele>361.5</ele>
        <time>2022-09-27T12:12:14Z</time>
      </trkpt>
      <trkpt lat="46.14855" lon="5.97153">
        <ele>361.6</ele>
        <time>2022-09-27T12:12:15Z</time>
      </trkpt>
      <trkpt lat="46.14856" lon="5.97157">
        <ele>361.6</ele>
        <time>2022-09-27T12:12:16Z</time>
      </trkpt>
      <trkpt lat="46.14858" lon="5.97161">
        <ele>361.6</ele>
        <time>2022-09-27T12:12:17Z</time>
      </trkpt>
      <trkpt lat="46.14861" lon="5.97166">
        <ele>361.6</ele>
        <time>2022-09-27T12:12:18Z</time>
      </trkpt>
      <trkpt lat="46.14864" lon="5.97171">
        <ele>361.7</ele>
        <time>2022-09-27T12:12:19Z</time>
      </trkpt>
      <trkpt lat="46.14867" lon="5.97177">
        <ele>361.7</ele>
        <time>2022-09-27T12:12:20Z</time>
      </trkpt>
      <trkpt lat="46.1487" lon="5.97181">
        <ele>361.8</ele>
        <time>2022-09-27T12:12:21Z</time>
      </trkpt>
      <trkpt lat="46.14874" lon="5.97184">
        <ele>361.8</ele>
        <time>2022-09-27T12:12:22Z</time>
      </trkpt>
      <trkpt lat="46.14878" lon="5.97189">
        <ele>361.8</ele>
        <time>2022-09-27T12:12:23Z</time>
      </trkpt>
      <trkpt lat="46.14879" lon="5.97191">
        <ele>361.8</ele>
        <time>2022-09-27T12:12:24Z</time>
      </trkpt>
      <trkpt lat="46.14881" lon="5.97195">
        <ele>361.9</ele>
        <time>2022-09-27T12:12:25Z</time>
      </trkpt>
      <trkpt lat="46.14885" lon="5.97198">
        <ele>361.9</ele>
        <time>2022-09-27T12:12:26Z</time>
      </trkpt>
      <trkpt lat="46.14888" lon="5.97203">
        <ele>361.9</ele>
        <time>2022-09-27T12:12:27Z</time>
      </trkpt>
      <trkpt lat="46.1489" lon="5.97206">
        <ele>361.9</ele>
        <time>2022-09-27T12:12:28Z</time>
      </trkpt>
      <trkpt lat="46.14892" lon="5.9721">
        <ele>362</ele>
        <time>2022-09-27T12:12:29Z</time>
      </trkpt>
      <trkpt lat="46.14897" lon="5.97212">
        <ele>362</ele>
        <time>2022-09-27T12:12:30Z</time>
      </trkpt>
      <trkpt lat="46.149" lon="5.97215">
        <ele>362.1</ele>
        <time>2022-09-27T12:12:31Z</time>
      </trkpt>
      <trkpt lat="46.14902" lon="5.9722">
        <ele>362.1</ele>
        <time>2022-09-27T12:12:32Z</time>
      </trkpt>
      <trkpt lat="46.14905" lon="5.97224">
        <ele>362.2</ele>
        <time>2022-09-27T12:12:33Z</time>
      </trkpt>
      <trkpt lat="46.14908" lon="5.97228">
        <ele>362.2</ele>
        <time>2022-09-27T12:12:34Z</time>
      </trkpt>
      <trkpt lat="46.14912" lon="5.9723">
        <ele>362.3</ele>
        <time>2022-09-27T12:12:35Z</time>
      </trkpt>
      <trkpt lat="46.14915" lon="5.97234">
        <ele>362.4</ele>
        <time>2022-09-27T12:12:36Z</time>
      </trkpt>
      <trkpt lat="46.14918" lon="5.97238">
        <ele>362.4</ele>
        <time>2022-09-27T12:12:37Z</time>
      </trkpt>
      <trkpt lat="46.1492" lon="5.97243">
        <ele>362.5</ele>
        <time>2022-09-27T12:12:38Z</time>
      </trkpt>
      <trkpt lat="46.14924" lon="5.97246">
        <ele>362.5</ele>
        <time>2022-09-27T12:12:39Z</time>
      </trkpt>
      <trkpt lat="46.14926" lon="5.97249">
        <ele>362.5</ele>
        <time>2022-09-27T12:12:40Z</time>
      </trkpt>
      <trkpt lat="46.14927" lon="5.97254">
        <ele>362.6</ele>
        <time>2022-09-27T12:12:41Z</time>
      </trkpt>
      <trkpt lat="46.1493" lon="5.97256">
        <ele>362.6</ele>
        <time>2022-09-27T12:12:42Z</time>
      </trkpt>
      <trkpt lat="46.14933" lon="5.97259">
        <ele>362.7</ele>
        <time>2022-09-27T12:12:43Z</time>
      </trkpt>
      <trkpt lat="46.14935" lon="5.97261">
        <ele>362.7</ele>
        <time>2022-09-27T12:12:44Z</time>
      </trkpt>
      <trkpt lat="46.14938" lon="5.97263">
        <ele>362.8</ele>
        <time>2022-09-27T12:12:45Z</time>
      </trkpt>
      <trkpt lat="46.14938" lon="5.97264">
        <ele>362.8</ele>
        <time>2022-09-27T12:12:46Z</time>
      </trkpt>
      <trkpt lat="46.1494" lon="5.97268">
        <ele>362.8</ele>
        <time>2022-09-27T12:12:47Z</time>
      </trkpt>
      <trkpt lat="46.14941" lon="5.9727">
        <ele>362.8</ele>
        <time>2022-09-27T12:12:48Z</time>
      </trkpt>
      <trkpt lat="46.14944" lon="5.97272">
        <ele>362.9</ele>
        <time>2022-09-27T12:12:49Z</time>
      </trkpt>
      <trkpt lat="46.14945" lon="5.97273">
        <ele>362.9</ele>
        <time>2022-09-27T12:12:50Z</time>
      </trkpt>
      <trkpt lat="46.14948" lon="5.97275">
        <ele>363</ele>
        <time>2022-09-27T12:12:51Z</time>
      </trkpt>
      <trkpt lat="46.14949" lon="5.97276">
        <ele>363</ele>
        <time>2022-09-27T12:12:52Z</time>
      </trkpt>
      <trkpt lat="46.14951" lon="5.9728">
        <ele>363</ele>
        <time>2022-09-27T12:12:53Z</time>
      </trkpt>
      <trkpt lat="46.14952" lon="5.97282">
        <ele>363</ele>
        <time>2022-09-27T12:12:54Z</time>
      </trkpt>
      <trkpt lat="46.14955" lon="5.97286">
        <ele>363</ele>
        <time>2022-09-27T12:12:55Z</time>
      </trkpt>
      <trkpt lat="46.14957" lon="5.97287">
        <ele>363.1</ele>
        <time>2022-09-27T12:12:56Z</time>
      </trkpt>
      <trkpt lat="46.14959" lon="5.9729">
        <ele>363.1</ele>
        <time>2022-09-27T12:12:57Z</time>
      </trkpt>
      <trkpt lat="46.14962" lon="5.97294">
        <ele>363.1</ele>
        <time>2022-09-27T12:12:58Z</time>
      </trkpt>
      <trkpt lat="46.14964" lon="5.97298">
        <ele>363.1</ele>
        <time>2022-09-27T12:12:59Z</time>
      </trkpt>
      <trkpt lat="46.14966" lon="5.97302">
        <ele>363.1</ele>
        <time>2022-09-27T12:13:00Z</time>
      </trkpt>
      <trkpt lat="46.14969" lon="5.97307">
        <ele>363.2</ele>
        <time>2022-09-27T12:13:01Z</time>
      </trkpt>
      <trkpt lat="46.14971" lon="5.97311">
        <ele>363.2</ele>
        <time>2022-09-27T12:13:02Z</time>
      </trkpt>
      <trkpt lat="46.14974" lon="5.97314">
        <ele>363.2</ele>
        <time>2022-09-27T12:13:03Z</time>
      </trkpt>
      <trkpt lat="46.14975" lon="5.97318">
        <ele>363.2</ele>
        <time>2022-09-27T12:13:04Z</time>
      </trkpt>
      <trkpt lat="46.14977" lon="5.97322">
        <ele>363.2</ele>
        <time>2022-09-27T12:13:05Z</time>
      </trkpt>
      <trkpt lat="46.1498" lon="5.97324">
        <ele>363.3</ele>
        <time>2022-09-27T12:13:06Z</time>
      </trkpt>
      <trkpt lat="46.14983" lon="5.97327">
        <ele>363.3</ele>
        <time>2022-09-27T12:13:07Z</time>
      </trkpt>
      <trkpt lat="46.14985" lon="5.97331">
        <ele>363.3</ele>
        <time>2022-09-27T12:13:08Z</time>
      </trkpt>
      <trkpt lat="46.14987" lon="5.97334">
        <ele>363.3</ele>
        <time>2022-09-27T12:13:09Z</time>
      </trkpt>
      <trkpt lat="46.14989" lon="5.97337">
        <ele>363.3</ele>
        <time>2022-09-27T12:13:10Z</time>
      </trkpt>
      <trkpt lat="46.14992" lon="5.97339">
        <ele>363.3</ele>
        <time>2022-09-27T12:13:11Z</time>
      </trkpt>
      <trkpt lat="46.14995" lon="5.97342">
        <ele>363.3</ele>
        <time>2022-09-27T12:13:12Z</time>
      </trkpt>
      <trkpt lat="46.14997" lon="5.97345">
        <ele>363.4</ele>
        <time>2022-09-27T12:13:13Z</time>
      </trkpt>
      <trkpt lat="46.15" lon="5.97349">
        <ele>363.4</ele>
        <time>2022-09-27T12:13:14Z</time>
      </trkpt>
      <trkpt lat="46.15002" lon="5.97353">
        <ele>363.4</ele>
        <time>2022-09-27T12:13:15Z</time>
      </trkpt>
      <trkpt lat="46.15005" lon="5.97357">
        <ele>363.5</ele>
        <time>2022-09-27T12:13:17Z</time>
      </trkpt>
      <trkpt lat="46.15008" lon="5.97359">
        <ele>363.5</ele>
        <time>2022-09-27T12:13:18Z</time>
      </trkpt>
      <trkpt lat="46.1501" lon="5.97364">
        <ele>363.5</ele>
        <time>2022-09-27T12:13:19Z</time>
      </trkpt>
      <trkpt lat="46.1501" lon="5.97365">
        <ele>363.5</ele>
        <time>2022-09-27T12:13:20Z</time>
      </trkpt>
      <trkpt lat="46.15013" lon="5.97368">
        <ele>363.6</ele>
        <time>2022-09-27T12:13:21Z</time>
      </trkpt>
      <trkpt lat="46.15015" lon="5.97369">
        <ele>363.6</ele>
        <time>2022-09-27T12:13:22Z</time>
      </trkpt>
      <trkpt lat="46.15018" lon="5.97373">
        <ele>363.6</ele>
        <time>2022-09-27T12:13:23Z</time>
      </trkpt>
      <trkpt lat="46.15019" lon="5.97376">
        <ele>363.6</ele>
        <time>2022-09-27T12:13:24Z</time>
      </trkpt>
      <trkpt lat="46.15022" lon="5.9738">
        <ele>363.7</ele>
        <time>2022-09-27T12:13:25Z</time>
      </trkpt>
      <trkpt lat="46.15022" lon="5.97381">
        <ele>363.7</ele>
        <time>2022-09-27T12:13:26Z</time>
      </trkpt>
      <trkpt lat="46.15025" lon="5.97385">
        <ele>363.7</ele>
        <time>2022-09-27T12:13:27Z</time>
      </trkpt>
      <trkpt lat="46.15027" lon="5.97386">
        <ele>363.7</ele>
        <time>2022-09-27T12:13:28Z</time>
      </trkpt>
      <trkpt lat="46.15029" lon="5.9739">
        <ele>363.7</ele>
        <time>2022-09-27T12:13:29Z</time>
      </trkpt>
      <trkpt lat="46.15031" lon="5.97394">
        <ele>363.7</ele>
        <time>2022-09-27T12:13:30Z</time>
      </trkpt>
      <trkpt lat="46.15032" lon="5.97395">
        <ele>363.7</ele>
        <time>2022-09-27T12:13:31Z</time>
      </trkpt>
      <trkpt lat="46.15034" lon="5.97399">
        <ele>363.7</ele>
        <time>2022-09-27T12:13:32Z</time>
      </trkpt>
      <trkpt lat="46.15036" lon="5.97402">
        <ele>363.8</ele>
        <time>2022-09-27T12:13:33Z</time>
      </trkpt>
      <trkpt lat="46.15039" lon="5.97404">
        <ele>363.8</ele>
        <time>2022-09-27T12:13:34Z</time>
      </trkpt>
      <trkpt lat="46.15041" lon="5.97407">
        <ele>363.8</ele>
        <time>2022-09-27T12:13:35Z</time>
      </trkpt>
      <trkpt lat="46.15043" lon="5.9741">
        <ele>363.8</ele>
        <time>2022-09-27T12:13:36Z</time>
      </trkpt>
      <trkpt lat="46.15045" lon="5.97413">
        <ele>363.8</ele>
        <time>2022-09-27T12:13:37Z</time>
      </trkpt>
      <trkpt lat="46.15048" lon="5.97417">
        <ele>363.9</ele>
        <time>2022-09-27T12:13:38Z</time>
      </trkpt>
      <trkpt lat="46.15048" lon="5.97418">
        <ele>363.9</ele>
        <time>2022-09-27T12:13:39Z</time>
      </trkpt>
      <trkpt lat="46.1505" lon="5.9742">
        <ele>363.9</ele>
        <time>2022-09-27T12:13:40Z</time>
      </trkpt>
      <trkpt lat="46.15051" lon="5.97422">
        <ele>363.9</ele>
        <time>2022-09-27T12:13:41Z</time>
      </trkpt>
      <trkpt lat="46.15051" lon="5.97423">
        <ele>363.8</ele>
        <time>2022-09-27T12:13:42Z</time>
      </trkpt>
      <trkpt lat="46.15051" lon="5.97423">
        <ele>363.8</ele>
        <time>2022-09-27T12:13:43Z</time>
      </trkpt>
      <trkpt lat="46.15051" lon="5.97423">
        <ele>363.8</ele>
        <time>2022-09-27T12:13:44Z</time>
      </trkpt>
      <trkpt lat="46.15052" lon="5.97422">
        <ele>363.8</ele>
        <time>2022-09-27T12:13:45Z</time>
      </trkpt>
      <trkpt lat="46.15053" lon="5.97423">
        <ele>363.8</ele>
        <time>2022-09-27T12:13:46Z</time>
      </trkpt>
      <trkpt lat="46.15054" lon="5.97422">
        <ele>363.8</ele>
        <time>2022-09-27T12:13:47Z</time>
      </trkpt>
      <trkpt lat="46.15054" lon="5.97421">
        <ele>363.8</ele>
        <time>2022-09-27T12:13:48Z</time>
      </trkpt>
      <trkpt lat="46.15054" lon="5.97421">
        <ele>363.8</ele>
        <time>2022-09-27T12:13:49Z</time>
      </trkpt>
      <trkpt lat="46.15055" lon="5.97421">
        <ele>363.8</ele>
        <time>2022-09-27T12:13:50Z</time>
      </trkpt>
      <trkpt lat="46.15055" lon="5.9742">
        <ele>363.8</ele>
        <time>2022-09-27T12:13:51Z</time>
      </trkpt>
      <trkpt lat="46.15054" lon="5.97418">
        <ele>363.8</ele>
        <time>2022-09-27T12:13:52Z</time>
      </trkpt>
      <trkpt lat="46.15053" lon="5.97417">
        <ele>363.8</ele>
        <time>2022-09-27T12:13:53Z</time>
      </trkpt>
      <trkpt lat="46.15052" lon="5.97414">
        <ele>363.8</ele>
        <time>2022-09-27T12:13:54Z</time>
      </trkpt>
      <trkpt lat="46.1505" lon="5.9741">
        <ele>363.8</ele>
        <time>2022-09-27T12:13:55Z</time>
      </trkpt>
      <trkpt lat="46.15048" lon="5.97407">
        <ele>363.8</ele>
        <time>2022-09-27T12:13:56Z</time>
      </trkpt>
      <trkpt lat="46.15045" lon="5.97404">
        <ele>363.8</ele>
        <time>2022-09-27T12:13:57Z</time>
      </trkpt>
      <trkpt lat="46.15043" lon="5.974">
        <ele>363.8</ele>
        <time>2022-09-27T12:13:58Z</time>
      </trkpt>
      <trkpt lat="46.1504" lon="5.97396">
        <ele>363.8</ele>
        <time>2022-09-27T12:13:59Z</time>
      </trkpt>
      <trkpt lat="46.15038" lon="5.97393">
        <ele>363.7</ele>
        <time>2022-09-27T12:14:00Z</time>
      </trkpt>
      <trkpt lat="46.15035" lon="5.9739">
        <ele>363.7</ele>
        <time>2022-09-27T12:14:01Z</time>
      </trkpt>
      <trkpt lat="46.15033" lon="5.97386">
        <ele>363.7</ele>
        <time>2022-09-27T12:14:02Z</time>
      </trkpt>
      <trkpt lat="46.15029" lon="5.97381">
        <ele>363.7</ele>
        <time>2022-09-27T12:14:03Z</time>
      </trkpt>
      <trkpt lat="46.15026" lon="5.97377">
        <ele>363.7</ele>
        <time>2022-09-27T12:14:04Z</time>
      </trkpt>
      <trkpt lat="46.15024" lon="5.97373">
        <ele>363.7</ele>
        <time>2022-09-27T12:14:05Z</time>
      </trkpt>
      <trkpt lat="46.15021" lon="5.97368">
        <ele>363.6</ele>
        <time>2022-09-27T12:14:06Z</time>
      </trkpt>
      <trkpt lat="46.15018" lon="5.97366">
        <ele>363.6</ele>
        <time>2022-09-27T12:14:07Z</time>
      </trkpt>
      <trkpt lat="46.15015" lon="5.97362">
        <ele>363.6</ele>
        <time>2022-09-27T12:14:08Z</time>
      </trkpt>
      <trkpt lat="46.15012" lon="5.97358">
        <ele>363.5</ele>
        <time>2022-09-27T12:14:09Z</time>
      </trkpt>
      <trkpt lat="46.15008" lon="5.97352">
        <ele>363.5</ele>
        <time>2022-09-27T12:14:10Z</time>
      </trkpt>
      <trkpt lat="46.15004" lon="5.97348">
        <ele>363.5</ele>
        <time>2022-09-27T12:14:11Z</time>
      </trkpt>
      <trkpt lat="46.15003" lon="5.97347">
        <ele>363.5</ele>
        <time>2022-09-27T12:14:12Z</time>
      </trkpt>
      <trkpt lat="46.15001" lon="5.97344">
        <ele>363.5</ele>
        <time>2022-09-27T12:14:13Z</time>
      </trkpt>
      <trkpt lat="46.14999" lon="5.97343">
        <ele>363.5</ele>
        <time>2022-09-27T12:14:14Z</time>
      </trkpt>
      <trkpt lat="46.14998" lon="5.97343">
        <ele>363.5</ele>
        <time>2022-09-27T12:14:15Z</time>
      </trkpt>
      <trkpt lat="46.14995" lon="5.9734">
        <ele>363.4</ele>
        <time>2022-09-27T12:14:16Z</time>
      </trkpt>
      <trkpt lat="46.14992" lon="5.97344">
        <ele>363.4</ele>
        <time>2022-09-27T12:14:17Z</time>
      </trkpt>
      <trkpt lat="46.14991" lon="5.97346">
        <ele>363.4</ele>
        <time>2022-09-27T12:14:18Z</time>
      </trkpt>
      <trkpt lat="46.1499" lon="5.9735">
        <ele>363.4</ele>
        <time>2022-09-27T12:14:19Z</time>
      </trkpt>
      <trkpt lat="46.1499" lon="5.97351">
        <ele>363.4</ele>
        <time>2022-09-27T12:14:20Z</time>
      </trkpt>
      <trkpt lat="46.14991" lon="5.97353">
        <ele>363.4</ele>
        <time>2022-09-27T12:14:21Z</time>
      </trkpt>
      <trkpt lat="46.14991" lon="5.97354">
        <ele>363.4</ele>
        <time>2022-09-27T12:14:22Z</time>
      </trkpt>
      <trkpt lat="46.14992" lon="5.97354">
        <ele>363.4</ele>
        <time>2022-09-27T12:14:23Z</time>
      </trkpt>
      <trkpt lat="46.14991" lon="5.97354">
        <ele>363.4</ele>
        <time>2022-09-27T12:14:24Z</time>
      </trkpt>
      <trkpt lat="46.14991" lon="5.97355">
        <ele>363.4</ele>
        <time>2022-09-27T12:14:25Z</time>
      </trkpt>
      <trkpt lat="46.14991" lon="5.97354">
        <ele>363.4</ele>
        <time>2022-09-27T12:14:26Z</time>
      </trkpt>
      <trkpt lat="46.14991" lon="5.97354">
        <ele>363.4</ele>
        <time>2022-09-27T12:14:27Z</time>
      </trkpt>
      <trkpt lat="46.14991" lon="5.97355">
        <ele>363.4</ele>
        <time>2022-09-27T12:14:28Z</time>
      </trkpt>
      <trkpt lat="46.14991" lon="5.97355">
        <ele>363.4</ele>
        <time>2022-09-27T12:14:29Z</time>
      </trkpt>
      <trkpt lat="46.14992" lon="5.97356">
        <ele>363.4</ele>
        <time>2022-09-27T12:14:30Z</time>
      </trkpt>
      <trkpt lat="46.14992" lon="5.97355">
        <ele>363.4</ele>
        <time>2022-09-27T12:14:31Z</time>
      </trkpt>
      <trkpt lat="46.14993" lon="5.97355">
        <ele>363.4</ele>
        <time>2022-09-27T12:14:32Z</time>
      </trkpt>
      <trkpt lat="46.14993" lon="5.97355">
        <ele>363.4</ele>
        <time>2022-09-27T12:14:33Z</time>
      </trkpt>
      <trkpt lat="46.14994" lon="5.97354">
        <ele>363.4</ele>
        <time>2022-09-27T12:14:34Z</time>
      </trkpt>
      <trkpt lat="46.14993" lon="5.97354">
        <ele>363.4</ele>
        <time>2022-09-27T12:14:35Z</time>
      </trkpt>
      <trkpt lat="46.14993" lon="5.97354">
        <ele>363.4</ele>
        <time>2022-09-27T12:14:36Z</time>
      </trkpt>
      <trkpt lat="46.14994" lon="5.97354">
        <ele>363.4</ele>
        <time>2022-09-27T12:14:37Z</time>
      </trkpt>
      <trkpt lat="46.14992" lon="5.97353">
        <ele>363.4</ele>
        <time>2022-09-27T12:14:38Z</time>
      </trkpt>
      <trkpt lat="46.14992" lon="5.97353">
        <ele>363.4</ele>
        <time>2022-09-27T12:14:39Z</time>
      </trkpt>
      <trkpt lat="46.14992" lon="5.97352">
        <ele>363.4</ele>
        <time>2022-09-27T12:14:40Z</time>
      </trkpt>
      <trkpt lat="46.14992" lon="5.97353">
        <ele>363.4</ele>
        <time>2022-09-27T12:14:41Z</time>
      </trkpt>
      <trkpt lat="46.14992" lon="5.97353">
        <ele>363.4</ele>
        <time>2022-09-27T12:14:42Z</time>
      </trkpt>
      <trkpt lat="46.14992" lon="5.97353">
        <ele>363.4</ele>
        <time>2022-09-27T12:14:43Z</time>
      </trkpt>
      <trkpt lat="46.14992" lon="5.97353">
        <ele>363.4</ele>
        <time>2022-09-27T12:14:44Z</time>
      </trkpt>
      <trkpt lat="46.14992" lon="5.97353">
        <ele>363.4</ele>
        <time>2022-09-27T12:14:45Z</time>
      </trkpt>
      <trkpt lat="46.14992" lon="5.97353">
        <ele>363.4</ele>
        <time>2022-09-27T12:14:46Z</time>
      </trkpt>
      <trkpt lat="46.14992" lon="5.97353">
        <ele>363.4</ele>
        <time>2022-09-27T12:14:47Z</time>
      </trkpt>
      <trkpt lat="46.14992" lon="5.97353">
        <ele>363.4</ele>
        <time>2022-09-27T12:14:48Z</time>
      </trkpt>
      <trkpt lat="46.14994" lon="5.9734">
        <ele>363.3</ele>
        <time>2022-09-27T12:42:39Z</time>
      </trkpt>
      <trkpt lat="46.14995" lon="5.9734">
        <ele>363.3</ele>
        <time>2022-09-27T12:42:41Z</time>
      </trkpt>
      <trkpt lat="46.14996" lon="5.9734">
        <ele>363.3</ele>
        <time>2022-09-27T12:42:42Z</time>
      </trkpt>
      <trkpt lat="46.14997" lon="5.97339">
        <ele>363.4</ele>
        <time>2022-09-27T12:42:43Z</time>
      </trkpt>
      <trkpt lat="46.14997" lon="5.9734">
        <ele>363.4</ele>
        <time>2022-09-27T12:42:44Z</time>
      </trkpt>
      <trkpt lat="46.14998" lon="5.97341">
        <ele>363.4</ele>
        <time>2022-09-27T12:42:45Z</time>
      </trkpt>
      <trkpt lat="46.14999" lon="5.97342">
        <ele>363.4</ele>
        <time>2022-09-27T12:42:46Z</time>
      </trkpt>
      <trkpt lat="46.15001" lon="5.97343">
        <ele>363.4</ele>
        <time>2022-09-27T12:42:47Z</time>
      </trkpt>
      <trkpt lat="46.15002" lon="5.97344">
        <ele>363.4</ele>
        <time>2022-09-27T12:42:48Z</time>
      </trkpt>
      <trkpt lat="46.15003" lon="5.97345">
        <ele>363.4</ele>
        <time>2022-09-27T12:42:49Z</time>
      </trkpt>
      <trkpt lat="46.15005" lon="5.97349">
        <ele>363.4</ele>
        <time>2022-09-27T12:42:50Z</time>
      </trkpt>
      <trkpt lat="46.15006" lon="5.9735">
        <ele>363.5</ele>
        <time>2022-09-27T12:42:51Z</time>
      </trkpt>
      <trkpt lat="46.15008" lon="5.97354">
        <ele>363.5</ele>
        <time>2022-09-27T12:42:52Z</time>
      </trkpt>
      <trkpt lat="46.1501" lon="5.97359">
        <ele>363.5</ele>
        <time>2022-09-27T12:42:53Z</time>
      </trkpt>
      <trkpt lat="46.15011" lon="5.9736">
        <ele>363.5</ele>
        <time>2022-09-27T12:42:54Z</time>
      </trkpt>
      <trkpt lat="46.15014" lon="5.97362">
        <ele>363.6</ele>
        <time>2022-09-27T12:42:55Z</time>
      </trkpt>
      <trkpt lat="46.15016" lon="5.97365">
        <ele>363.6</ele>
        <time>2022-09-27T12:42:56Z</time>
      </trkpt>
      <trkpt lat="46.15019" lon="5.97369">
        <ele>363.6</ele>
        <time>2022-09-27T12:42:57Z</time>
      </trkpt>
      <trkpt lat="46.15021" lon="5.97373">
        <ele>363.6</ele>
        <time>2022-09-27T12:42:58Z</time>
      </trkpt>
      <trkpt lat="46.15023" lon="5.97376">
        <ele>363.7</ele>
        <time>2022-09-27T12:42:59Z</time>
      </trkpt>
      <trkpt lat="46.15026" lon="5.9738">
        <ele>363.7</ele>
        <time>2022-09-27T12:43:00Z</time>
      </trkpt>
      <trkpt lat="46.15028" lon="5.97384">
        <ele>363.7</ele>
        <time>2022-09-27T12:43:01Z</time>
      </trkpt>
      <trkpt lat="46.15031" lon="5.97388">
        <ele>363.7</ele>
        <time>2022-09-27T12:43:02Z</time>
      </trkpt>
      <trkpt lat="46.15034" lon="5.97392">
        <ele>363.7</ele>
        <time>2022-09-27T12:43:03Z</time>
      </trkpt>
      <trkpt lat="46.15037" lon="5.97395">
        <ele>363.7</ele>
        <time>2022-09-27T12:43:04Z</time>
      </trkpt>
      <trkpt lat="46.15039" lon="5.97399">
        <ele>363.8</ele>
        <time>2022-09-27T12:43:05Z</time>
      </trkpt>
      <trkpt lat="46.15042" lon="5.97403">
        <ele>363.8</ele>
        <time>2022-09-27T12:43:06Z</time>
      </trkpt>
      <trkpt lat="46.15045" lon="5.97407">
        <ele>363.8</ele>
        <time>2022-09-27T12:43:07Z</time>
      </trkpt>
      <trkpt lat="46.15049" lon="5.97411">
        <ele>363.8</ele>
        <time>2022-09-27T12:43:08Z</time>
      </trkpt>
      <trkpt lat="46.15052" lon="5.97415">
        <ele>363.9</ele>
        <time>2022-09-27T12:43:09Z</time>
      </trkpt>
      <trkpt lat="46.15054" lon="5.97419">
        <ele>363.9</ele>
        <time>2022-09-27T12:43:10Z</time>
      </trkpt>
      <trkpt lat="46.15057" lon="5.97424">
        <ele>364</ele>
        <time>2022-09-27T12:43:11Z</time>
      </trkpt>
      <trkpt lat="46.1506" lon="5.97427">
        <ele>364</ele>
        <time>2022-09-27T12:43:12Z</time>
      </trkpt>
      <trkpt lat="46.15063" lon="5.97432">
        <ele>364</ele>
        <time>2022-09-27T12:43:13Z</time>
      </trkpt>
      <trkpt lat="46.15065" lon="5.97437">
        <ele>364.1</ele>
        <time>2022-09-27T12:43:14Z</time>
      </trkpt>
      <trkpt lat="46.15069" lon="5.97441">
        <ele>364.1</ele>
        <time>2022-09-27T12:43:15Z</time>
      </trkpt>
      <trkpt lat="46.15072" lon="5.97444">
        <ele>364.2</ele>
        <time>2022-09-27T12:43:16Z</time>
      </trkpt>
      <trkpt lat="46.15075" lon="5.97449">
        <ele>364.2</ele>
        <time>2022-09-27T12:43:17Z</time>
      </trkpt>
      <trkpt lat="46.15078" lon="5.97453">
        <ele>364.3</ele>
        <time>2022-09-27T12:43:18Z</time>
      </trkpt>
      <trkpt lat="46.15082" lon="5.97456">
        <ele>364.3</ele>
        <time>2022-09-27T12:43:19Z</time>
      </trkpt>
      <trkpt lat="46.15084" lon="5.9746">
        <ele>364.3</ele>
        <time>2022-09-27T12:43:20Z</time>
      </trkpt>
      <trkpt lat="46.15087" lon="5.97464">
        <ele>364.4</ele>
        <time>2022-09-27T12:43:21Z</time>
      </trkpt>
      <trkpt lat="46.15089" lon="5.97468">
        <ele>364.4</ele>
        <time>2022-09-27T12:43:22Z</time>
      </trkpt>
      <trkpt lat="46.15092" lon="5.97472">
        <ele>364.5</ele>
        <time>2022-09-27T12:43:23Z</time>
      </trkpt>
      <trkpt lat="46.15095" lon="5.97476">
        <ele>364.5</ele>
        <time>2022-09-27T12:43:24Z</time>
      </trkpt>
      <trkpt lat="46.15098" lon="5.9748">
        <ele>364.5</ele>
        <time>2022-09-27T12:43:25Z</time>
      </trkpt>
      <trkpt lat="46.151" lon="5.97485">
        <ele>364.6</ele>
        <time>2022-09-27T12:43:26Z</time>
      </trkpt>
      <trkpt lat="46.15102" lon="5.97489">
        <ele>364.6</ele>
        <time>2022-09-27T12:43:27Z</time>
      </trkpt>
      <trkpt lat="46.15104" lon="5.97493">
        <ele>364.6</ele>
        <time>2022-09-27T12:43:28Z</time>
      </trkpt>
      <trkpt lat="46.15107" lon="5.97498">
        <ele>364.7</ele>
        <time>2022-09-27T12:43:29Z</time>
      </trkpt>
      <trkpt lat="46.15108" lon="5.97499">
        <ele>364.7</ele>
        <time>2022-09-27T12:43:30Z</time>
      </trkpt>
      <trkpt lat="46.1511" lon="5.97503">
        <ele>364.7</ele>
        <time>2022-09-27T12:43:31Z</time>
      </trkpt>
      <trkpt lat="46.15111" lon="5.97504">
        <ele>364.7</ele>
        <time>2022-09-27T12:43:32Z</time>
      </trkpt>
      <trkpt lat="46.15113" lon="5.97509">
        <ele>364.7</ele>
        <time>2022-09-27T12:43:33Z</time>
      </trkpt>
      <trkpt lat="46.15114" lon="5.9751">
        <ele>364.8</ele>
        <time>2022-09-27T12:43:34Z</time>
      </trkpt>
      <trkpt lat="46.15115" lon="5.97514">
        <ele>364.8</ele>
        <time>2022-09-27T12:43:35Z</time>
      </trkpt>
      <trkpt lat="46.15118" lon="5.97518">
        <ele>364.8</ele>
        <time>2022-09-27T12:43:36Z</time>
      </trkpt>
      <trkpt lat="46.15118" lon="5.97519">
        <ele>364.8</ele>
        <time>2022-09-27T12:43:37Z</time>
      </trkpt>
      <trkpt lat="46.1512" lon="5.9752">
        <ele>364.8</ele>
        <time>2022-09-27T12:43:38Z</time>
      </trkpt>
      <trkpt lat="46.15121" lon="5.97521">
        <ele>364.9</ele>
        <time>2022-09-27T12:43:39Z</time>
      </trkpt>
      <trkpt lat="46.15122" lon="5.97523">
        <ele>364.9</ele>
        <time>2022-09-27T12:43:40Z</time>
      </trkpt>
      <trkpt lat="46.15123" lon="5.97524">
        <ele>364.9</ele>
        <time>2022-09-27T12:43:41Z</time>
      </trkpt>
      <trkpt lat="46.15124" lon="5.97526">
        <ele>364.9</ele>
        <time>2022-09-27T12:43:42Z</time>
      </trkpt>
      <trkpt lat="46.15125" lon="5.97528">
        <ele>364.9</ele>
        <time>2022-09-27T12:43:43Z</time>
      </trkpt>
      <trkpt lat="46.15126" lon="5.97529">
        <ele>364.9</ele>
        <time>2022-09-27T12:43:44Z</time>
      </trkpt>
      <trkpt lat="46.15127" lon="5.97531">
        <ele>364.9</ele>
        <time>2022-09-27T12:43:45Z</time>
      </trkpt>
      <trkpt lat="46.15128" lon="5.97532">
        <ele>365</ele>
        <time>2022-09-27T12:43:46Z</time>
      </trkpt>
      <trkpt lat="46.15129" lon="5.97534">
        <ele>365</ele>
        <time>2022-09-27T12:44:09Z</time>
      </trkpt>
      <trkpt lat="46.1513" lon="5.97535">
        <ele>365</ele>
        <time>2022-09-27T12:44:10Z</time>
      </trkpt>
      <trkpt lat="46.15132" lon="5.97539">
        <ele>365</ele>
        <time>2022-09-27T12:44:11Z</time>
      </trkpt>
      <trkpt lat="46.15135" lon="5.97542">
        <ele>365</ele>
        <time>2022-09-27T12:44:12Z</time>
      </trkpt>
      <trkpt lat="46.15135" lon="5.97544">
        <ele>365.1</ele>
        <time>2022-09-27T12:44:13Z</time>
      </trkpt>
      <trkpt lat="46.15138" lon="5.97546">
        <ele>365.1</ele>
        <time>2022-09-27T12:44:14Z</time>
      </trkpt>
      <trkpt lat="46.15139" lon="5.97547">
        <ele>365.1</ele>
        <time>2022-09-27T12:44:15Z</time>
      </trkpt>
      <trkpt lat="46.15143" lon="5.97552">
        <ele>365.1</ele>
        <time>2022-09-27T12:44:16Z</time>
      </trkpt>
      <trkpt lat="46.15144" lon="5.97553">
        <ele>365.1</ele>
        <time>2022-09-27T12:44:17Z</time>
      </trkpt>
      <trkpt lat="46.15146" lon="5.97557">
        <ele>365.1</ele>
        <time>2022-09-27T12:44:18Z</time>
      </trkpt>
      <trkpt lat="46.15148" lon="5.97561">
        <ele>365.1</ele>
        <time>2022-09-27T12:44:19Z</time>
      </trkpt>
      <trkpt lat="46.15151" lon="5.97565">
        <ele>365.1</ele>
        <time>2022-09-27T12:44:20Z</time>
      </trkpt>
      <trkpt lat="46.15154" lon="5.9757">
        <ele>365.2</ele>
        <time>2022-09-27T12:44:21Z</time>
      </trkpt>
      <trkpt lat="46.15157" lon="5.97574">
        <ele>365.2</ele>
        <time>2022-09-27T12:44:22Z</time>
      </trkpt>
      <trkpt lat="46.1516" lon="5.97578">
        <ele>365.2</ele>
        <time>2022-09-27T12:44:23Z</time>
      </trkpt>
      <trkpt lat="46.15163" lon="5.97582">
        <ele>365.2</ele>
        <time>2022-09-27T12:44:24Z</time>
      </trkpt>
      <trkpt lat="46.15166" lon="5.97586">
        <ele>365.3</ele>
        <time>2022-09-27T12:44:25Z</time>
      </trkpt>
      <trkpt lat="46.15169" lon="5.97591">
        <ele>365.3</ele>
        <time>2022-09-27T12:44:26Z</time>
      </trkpt>
      <trkpt lat="46.15172" lon="5.97595">
        <ele>365.3</ele>
        <time>2022-09-27T12:44:27Z</time>
      </trkpt>
      <trkpt lat="46.15173" lon="5.976">
        <ele>365.3</ele>
        <time>2022-09-27T12:44:28Z</time>
      </trkpt>
      <trkpt lat="46.15177" lon="5.97604">
        <ele>365.3</ele>
        <time>2022-09-27T12:44:29Z</time>
      </trkpt>
      <trkpt lat="46.15182" lon="5.97605">
        <ele>365.4</ele>
        <time>2022-09-27T12:44:30Z</time>
      </trkpt>
      <trkpt lat="46.15186" lon="5.97608">
        <ele>365.4</ele>
        <time>2022-09-27T12:44:31Z</time>
      </trkpt>
      <trkpt lat="46.1519" lon="5.97612">
        <ele>365.4</ele>
        <time>2022-09-27T12:44:32Z</time>
      </trkpt>
      <trkpt lat="46.15193" lon="5.97615">
        <ele>365.4</ele>
        <time>2022-09-27T12:44:33Z</time>
      </trkpt>
      <trkpt lat="46.15197" lon="5.97619">
        <ele>365.4</ele>
        <time>2022-09-27T12:44:34Z</time>
      </trkpt>
      <trkpt lat="46.15199" lon="5.97623">
        <ele>365.4</ele>
        <time>2022-09-27T12:44:35Z</time>
      </trkpt>
      <trkpt lat="46.15202" lon="5.97626">
        <ele>365.4</ele>
        <time>2022-09-27T12:44:36Z</time>
      </trkpt>
      <trkpt lat="46.15206" lon="5.97631">
        <ele>365.4</ele>
        <time>2022-09-27T12:44:37Z</time>
      </trkpt>
      <trkpt lat="46.1521" lon="5.97635">
        <ele>365.4</ele>
        <time>2022-09-27T12:44:38Z</time>
      </trkpt>
      <trkpt lat="46.15213" lon="5.97639">
        <ele>365.5</ele>
        <time>2022-09-27T12:44:39Z</time>
      </trkpt>
      <trkpt lat="46.15216" lon="5.97644">
        <ele>365.5</ele>
        <time>2022-09-27T12:44:40Z</time>
      </trkpt>
      <trkpt lat="46.1522" lon="5.97648">
        <ele>365.5</ele>
        <time>2022-09-27T12:44:41Z</time>
      </trkpt>
      <trkpt lat="46.15223" lon="5.97653">
        <ele>365.5</ele>
        <time>2022-09-27T12:44:42Z</time>
      </trkpt>
      <trkpt lat="46.15227" lon="5.97657">
        <ele>365.5</ele>
        <time>2022-09-27T12:44:43Z</time>
      </trkpt>
      <trkpt lat="46.1523" lon="5.97662">
        <ele>365.5</ele>
        <time>2022-09-27T12:44:44Z</time>
      </trkpt>
      <trkpt lat="46.15233" lon="5.97666">
        <ele>365.6</ele>
        <time>2022-09-27T12:44:45Z</time>
      </trkpt>
      <trkpt lat="46.15236" lon="5.97671">
        <ele>365.6</ele>
        <time>2022-09-27T12:44:47Z</time>
      </trkpt>
      <trkpt lat="46.1524" lon="5.97676">
        <ele>365.6</ele>
        <time>2022-09-27T12:44:48Z</time>
      </trkpt>
      <trkpt lat="46.15243" lon="5.9768">
        <ele>365.6</ele>
        <time>2022-09-27T12:44:49Z</time>
      </trkpt>
      <trkpt lat="46.15247" lon="5.97685">
        <ele>365.7</ele>
        <time>2022-09-27T12:44:50Z</time>
      </trkpt>
      <trkpt lat="46.1525" lon="5.97689">
        <ele>365.7</ele>
        <time>2022-09-27T12:44:51Z</time>
      </trkpt>
      <trkpt lat="46.15254" lon="5.97694">
        <ele>365.7</ele>
        <time>2022-09-27T12:44:52Z</time>
      </trkpt>
      <trkpt lat="46.15257" lon="5.97699">
        <ele>365.7</ele>
        <time>2022-09-27T12:44:53Z</time>
      </trkpt>
      <trkpt lat="46.15261" lon="5.97703">
        <ele>365.8</ele>
        <time>2022-09-27T12:44:54Z</time>
      </trkpt>
      <trkpt lat="46.15264" lon="5.97708">
        <ele>365.8</ele>
        <time>2022-09-27T12:44:55Z</time>
      </trkpt>
      <trkpt lat="46.15268" lon="5.97713">
        <ele>365.8</ele>
        <time>2022-09-27T12:44:56Z</time>
      </trkpt>
      <trkpt lat="46.15272" lon="5.97716">
        <ele>365.8</ele>
        <time>2022-09-27T12:44:57Z</time>
      </trkpt>
      <trkpt lat="46.15276" lon="5.97721">
        <ele>365.8</ele>
        <time>2022-09-27T12:44:58Z</time>
      </trkpt>
      <trkpt lat="46.15279" lon="5.97725">
        <ele>365.9</ele>
        <time>2022-09-27T12:44:59Z</time>
      </trkpt>
      <trkpt lat="46.15283" lon="5.9773">
        <ele>365.9</ele>
        <time>2022-09-27T12:45:00Z</time>
      </trkpt>
      <trkpt lat="46.15286" lon="5.97734">
        <ele>365.9</ele>
        <time>2022-09-27T12:45:01Z</time>
      </trkpt>
      <trkpt lat="46.15291" lon="5.97739">
        <ele>365.9</ele>
        <time>2022-09-27T12:45:02Z</time>
      </trkpt>
      <trkpt lat="46.15295" lon="5.97744">
        <ele>366</ele>
        <time>2022-09-27T12:45:03Z</time>
      </trkpt>
      <trkpt lat="46.15299" lon="5.97748">
        <ele>366</ele>
        <time>2022-09-27T12:45:04Z</time>
      </trkpt>
      <trkpt lat="46.15304" lon="5.97752">
        <ele>366</ele>
        <time>2022-09-27T12:45:05Z</time>
      </trkpt>
      <trkpt lat="46.15308" lon="5.97756">
        <ele>366.1</ele>
        <time>2022-09-27T12:45:06Z</time>
      </trkpt>
      <trkpt lat="46.15312" lon="5.9776">
        <ele>366.1</ele>
        <time>2022-09-27T12:45:07Z</time>
      </trkpt>
      <trkpt lat="46.15316" lon="5.97764">
        <ele>366.1</ele>
        <time>2022-09-27T12:45:08Z</time>
      </trkpt>
      <trkpt lat="46.15321" lon="5.97769">
        <ele>366.1</ele>
        <time>2022-09-27T12:45:09Z</time>
      </trkpt>
      <trkpt lat="46.15325" lon="5.97773">
        <ele>366.2</ele>
        <time>2022-09-27T12:45:10Z</time>
      </trkpt>
      <trkpt lat="46.15329" lon="5.97777">
        <ele>366.2</ele>
        <time>2022-09-27T12:45:11Z</time>
      </trkpt>
      <trkpt lat="46.15333" lon="5.97781">
        <ele>366.2</ele>
        <time>2022-09-27T12:45:12Z</time>
      </trkpt>
      <trkpt lat="46.15338" lon="5.97786">
        <ele>366.3</ele>
        <time>2022-09-27T12:45:13Z</time>
      </trkpt>
      <trkpt lat="46.15342" lon="5.9779">
        <ele>366.3</ele>
        <time>2022-09-27T12:45:14Z</time>
      </trkpt>
      <trkpt lat="46.15347" lon="5.97794">
        <ele>366.3</ele>
        <time>2022-09-27T12:45:15Z</time>
      </trkpt>
      <trkpt lat="46.15351" lon="5.97798">
        <ele>366.3</ele>
        <time>2022-09-27T12:45:16Z</time>
      </trkpt>
      <trkpt lat="46.15355" lon="5.97803">
        <ele>366.3</ele>
        <time>2022-09-27T12:45:17Z</time>
      </trkpt>
      <trkpt lat="46.15359" lon="5.97806">
        <ele>366.3</ele>
        <time>2022-09-27T12:45:18Z</time>
      </trkpt>
      <trkpt lat="46.15364" lon="5.97811">
        <ele>366.3</ele>
        <time>2022-09-27T12:45:19Z</time>
      </trkpt>
      <trkpt lat="46.15368" lon="5.97815">
        <ele>366.4</ele>
        <time>2022-09-27T12:45:20Z</time>
      </trkpt>
      <trkpt lat="46.15372" lon="5.97819">
        <ele>366.4</ele>
        <time>2022-09-27T12:45:21Z</time>
      </trkpt>
      <trkpt lat="46.15377" lon="5.97823">
        <ele>366.4</ele>
        <time>2022-09-27T12:45:22Z</time>
      </trkpt>
      <trkpt lat="46.15381" lon="5.97828">
        <ele>366.4</ele>
        <time>2022-09-27T12:45:23Z</time>
      </trkpt>
      <trkpt lat="46.15386" lon="5.97832">
        <ele>366.5</ele>
        <time>2022-09-27T12:45:24Z</time>
      </trkpt>
      <trkpt lat="46.15389" lon="5.97836">
        <ele>366.5</ele>
        <time>2022-09-27T12:45:25Z</time>
      </trkpt>
      <trkpt lat="46.15394" lon="5.9784">
        <ele>366.6</ele>
        <time>2022-09-27T12:45:26Z</time>
      </trkpt>
      <trkpt lat="46.15398" lon="5.97844">
        <ele>366.6</ele>
        <time>2022-09-27T12:45:27Z</time>
      </trkpt>
      <trkpt lat="46.15403" lon="5.97848">
        <ele>366.7</ele>
        <time>2022-09-27T12:45:28Z</time>
      </trkpt>
      <trkpt lat="46.15407" lon="5.97852">
        <ele>366.8</ele>
        <time>2022-09-27T12:45:29Z</time>
      </trkpt>
      <trkpt lat="46.15411" lon="5.97856">
        <ele>366.8</ele>
        <time>2022-09-27T12:45:30Z</time>
      </trkpt>
      <trkpt lat="46.15415" lon="5.9786">
        <ele>366.9</ele>
        <time>2022-09-27T12:45:31Z</time>
      </trkpt>
      <trkpt lat="46.15418" lon="5.97864">
        <ele>367</ele>
        <time>2022-09-27T12:45:32Z</time>
      </trkpt>
      <trkpt lat="46.15422" lon="5.97867">
        <ele>367.1</ele>
        <time>2022-09-27T12:45:33Z</time>
      </trkpt>
      <trkpt lat="46.15426" lon="5.97871">
        <ele>367.2</ele>
        <time>2022-09-27T12:45:34Z</time>
      </trkpt>
      <trkpt lat="46.1543" lon="5.97875">
        <ele>367.3</ele>
        <time>2022-09-27T12:45:35Z</time>
      </trkpt>
      <trkpt lat="46.15434" lon="5.97878">
        <ele>367.4</ele>
        <time>2022-09-27T12:45:36Z</time>
      </trkpt>
      <trkpt lat="46.15437" lon="5.97882">
        <ele>367.5</ele>
        <time>2022-09-27T12:45:37Z</time>
      </trkpt>
      <trkpt lat="46.15441" lon="5.97886">
        <ele>367.6</ele>
        <time>2022-09-27T12:45:38Z</time>
      </trkpt>
      <trkpt lat="46.15445" lon="5.9789">
        <ele>367.8</ele>
        <time>2022-09-27T12:45:39Z</time>
      </trkpt>
      <trkpt lat="46.15448" lon="5.97894">
        <ele>367.9</ele>
        <time>2022-09-27T12:45:40Z</time>
      </trkpt>
      <trkpt lat="46.15451" lon="5.97897">
        <ele>368</ele>
        <time>2022-09-27T12:45:41Z</time>
      </trkpt>
      <trkpt lat="46.15455" lon="5.97901">
        <ele>368.2</ele>
        <time>2022-09-27T12:45:42Z</time>
      </trkpt>
      <trkpt lat="46.15458" lon="5.97904">
        <ele>368.3</ele>
        <time>2022-09-27T12:45:43Z</time>
      </trkpt>
      <trkpt lat="46.15461" lon="5.97909">
        <ele>368.5</ele>
        <time>2022-09-27T12:45:44Z</time>
      </trkpt>
      <trkpt lat="46.15464" lon="5.97912">
        <ele>368.7</ele>
        <time>2022-09-27T12:45:45Z</time>
      </trkpt>
      <trkpt lat="46.15468" lon="5.97916">
        <ele>368.9</ele>
        <time>2022-09-27T12:45:46Z</time>
      </trkpt>
      <trkpt lat="46.1547" lon="5.97919">
        <ele>369</ele>
        <time>2022-09-27T12:45:47Z</time>
      </trkpt>
      <trkpt lat="46.15473" lon="5.97923">
        <ele>369.2</ele>
        <time>2022-09-27T12:45:48Z</time>
      </trkpt>
      <trkpt lat="46.15476" lon="5.97928">
        <ele>369.4</ele>
        <time>2022-09-27T12:45:49Z</time>
      </trkpt>
      <trkpt lat="46.15479" lon="5.97931">
        <ele>369.5</ele>
        <time>2022-09-27T12:45:50Z</time>
      </trkpt>
      <trkpt lat="46.15481" lon="5.97934">
        <ele>369.6</ele>
        <time>2022-09-27T12:45:51Z</time>
      </trkpt>
      <trkpt lat="46.15484" lon="5.97938">
        <ele>369.8</ele>
        <time>2022-09-27T12:45:52Z</time>
      </trkpt>
      <trkpt lat="46.15486" lon="5.97942">
        <ele>369.9</ele>
        <time>2022-09-27T12:45:53Z</time>
      </trkpt>
      <trkpt lat="46.15488" lon="5.97946">
        <ele>370.1</ele>
        <time>2022-09-27T12:45:54Z</time>
      </trkpt>
      <trkpt lat="46.1549" lon="5.97949">
        <ele>370.2</ele>
        <time>2022-09-27T12:45:55Z</time>
      </trkpt>
      <trkpt lat="46.15492" lon="5.97952">
        <ele>370.3</ele>
        <time>2022-09-27T12:45:56Z</time>
      </trkpt>
      <trkpt lat="46.15494" lon="5.97955">
        <ele>370.5</ele>
        <time>2022-09-27T12:45:57Z</time>
      </trkpt>
      <trkpt lat="46.15497" lon="5.97961">
        <ele>370.7</ele>
        <time>2022-09-27T12:45:58Z</time>
      </trkpt>
      <trkpt lat="46.155" lon="5.97964">
        <ele>370.8</ele>
        <time>2022-09-27T12:45:59Z</time>
      </trkpt>
      <trkpt lat="46.15501" lon="5.97967">
        <ele>371</ele>
        <time>2022-09-27T12:46:00Z</time>
      </trkpt>
      <trkpt lat="46.15503" lon="5.9797">
        <ele>371.1</ele>
        <time>2022-09-27T12:46:01Z</time>
      </trkpt>
      <trkpt lat="46.15506" lon="5.97973">
        <ele>371.2</ele>
        <time>2022-09-27T12:46:02Z</time>
      </trkpt>
      <trkpt lat="46.15508" lon="5.97978">
        <ele>371.4</ele>
        <time>2022-09-27T12:46:03Z</time>
      </trkpt>
      <trkpt lat="46.15509" lon="5.97979">
        <ele>371.5</ele>
        <time>2022-09-27T12:46:04Z</time>
      </trkpt>
      <trkpt lat="46.1551" lon="5.97982">
        <ele>371.6</ele>
        <time>2022-09-27T12:46:05Z</time>
      </trkpt>
      <trkpt lat="46.15512" lon="5.97986">
        <ele>371.8</ele>
        <time>2022-09-27T12:46:06Z</time>
      </trkpt>
      <trkpt lat="46.15513" lon="5.97988">
        <ele>371.8</ele>
        <time>2022-09-27T12:46:07Z</time>
      </trkpt>
      <trkpt lat="46.15516" lon="5.97992">
        <ele>372</ele>
        <time>2022-09-27T12:46:08Z</time>
      </trkpt>
      <trkpt lat="46.15517" lon="5.97994">
        <ele>372.1</ele>
        <time>2022-09-27T12:46:09Z</time>
      </trkpt>
      <trkpt lat="46.15519" lon="5.97999">
        <ele>372.2</ele>
        <time>2022-09-27T12:46:10Z</time>
      </trkpt>
      <trkpt lat="46.15519" lon="5.98">
        <ele>372.3</ele>
        <time>2022-09-27T12:46:11Z</time>
      </trkpt>
      <trkpt lat="46.15522" lon="5.98004">
        <ele>372.4</ele>
        <time>2022-09-27T12:46:12Z</time>
      </trkpt>
      <trkpt lat="46.15523" lon="5.98005">
        <ele>372.4</ele>
        <time>2022-09-27T12:46:13Z</time>
      </trkpt>
      <trkpt lat="46.15525" lon="5.9801">
        <ele>372.4</ele>
        <time>2022-09-27T12:46:14Z</time>
      </trkpt>
      <trkpt lat="46.15526" lon="5.98011">
        <ele>372.5</ele>
        <time>2022-09-27T12:46:15Z</time>
      </trkpt>
      <trkpt lat="46.15528" lon="5.98016">
        <ele>372.6</ele>
        <time>2022-09-27T12:46:16Z</time>
      </trkpt>
      <trkpt lat="46.15529" lon="5.98017">
        <ele>372.6</ele>
        <time>2022-09-27T12:46:17Z</time>
      </trkpt>
      <trkpt lat="46.15531" lon="5.9802">
        <ele>372.8</ele>
        <time>2022-09-27T12:46:18Z</time>
      </trkpt>
      <trkpt lat="46.15533" lon="5.98023">
        <ele>372.9</ele>
        <time>2022-09-27T12:46:19Z</time>
      </trkpt>
      <trkpt lat="46.15535" lon="5.98028">
        <ele>373.1</ele>
        <time>2022-09-27T12:46:20Z</time>
      </trkpt>
      <trkpt lat="46.15536" lon="5.98029">
        <ele>373.1</ele>
        <time>2022-09-27T12:46:21Z</time>
      </trkpt>
      <trkpt lat="46.15538" lon="5.98034">
        <ele>373.3</ele>
        <time>2022-09-27T12:46:22Z</time>
      </trkpt>
      <trkpt lat="46.15539" lon="5.98035">
        <ele>373.4</ele>
        <time>2022-09-27T12:46:23Z</time>
      </trkpt>
      <trkpt lat="46.15542" lon="5.9804">
        <ele>373.6</ele>
        <time>2022-09-27T12:46:24Z</time>
      </trkpt>
      <trkpt lat="46.15543" lon="5.98042">
        <ele>373.6</ele>
        <time>2022-09-27T12:46:25Z</time>
      </trkpt>
      <trkpt lat="46.15545" lon="5.98046">
        <ele>373.8</ele>
        <time>2022-09-27T12:46:26Z</time>
      </trkpt>
      <trkpt lat="46.15546" lon="5.98048">
        <ele>373.9</ele>
        <time>2022-09-27T12:46:27Z</time>
      </trkpt>
      <trkpt lat="46.15548" lon="5.98052">
        <ele>374.1</ele>
        <time>2022-09-27T12:46:28Z</time>
      </trkpt>
      <trkpt lat="46.15549" lon="5.98054">
        <ele>374.1</ele>
        <time>2022-09-27T12:46:29Z</time>
      </trkpt>
      <trkpt lat="46.1555" lon="5.98058">
        <ele>374.3</ele>
        <time>2022-09-27T12:46:30Z</time>
      </trkpt>
      <trkpt lat="46.15551" lon="5.98059">
        <ele>374.3</ele>
        <time>2022-09-27T12:46:31Z</time>
      </trkpt>
      <trkpt lat="46.15553" lon="5.98063">
        <ele>374.5</ele>
        <time>2022-09-27T12:46:32Z</time>
      </trkpt>
      <trkpt lat="46.15553" lon="5.98064">
        <ele>374.5</ele>
        <time>2022-09-27T12:46:33Z</time>
      </trkpt>
      <trkpt lat="46.15555" lon="5.98068">
        <ele>374.7</ele>
        <time>2022-09-27T12:46:34Z</time>
      </trkpt>
      <trkpt lat="46.15556" lon="5.9807">
        <ele>374.7</ele>
        <time>2022-09-27T12:46:35Z</time>
      </trkpt>
      <trkpt lat="46.15558" lon="5.98072">
        <ele>374.9</ele>
        <time>2022-09-27T12:46:36Z</time>
      </trkpt>
      <trkpt lat="46.1556" lon="5.98077">
        <ele>375</ele>
        <time>2022-09-27T12:46:37Z</time>
      </trkpt>
      <trkpt lat="46.1556" lon="5.98078">
        <ele>375.1</ele>
        <time>2022-09-27T12:46:38Z</time>
      </trkpt>
      <trkpt lat="46.15562" lon="5.98082">
        <ele>375.2</ele>
        <time>2022-09-27T12:46:39Z</time>
      </trkpt>
      <trkpt lat="46.15563" lon="5.98083">
        <ele>375.3</ele>
        <time>2022-09-27T12:46:40Z</time>
      </trkpt>
      <trkpt lat="46.15565" lon="5.98087">
        <ele>375.4</ele>
        <time>2022-09-27T12:46:41Z</time>
      </trkpt>
      <trkpt lat="46.15566" lon="5.98088">
        <ele>375.5</ele>
        <time>2022-09-27T12:46:42Z</time>
      </trkpt>
      <trkpt lat="46.15568" lon="5.98093">
        <ele>375.7</ele>
        <time>2022-09-27T12:46:43Z</time>
      </trkpt>
      <trkpt lat="46.15568" lon="5.98094">
        <ele>375.7</ele>
        <time>2022-09-27T12:46:44Z</time>
      </trkpt>
      <trkpt lat="46.1557" lon="5.98097">
        <ele>375.8</ele>
        <time>2022-09-27T12:46:45Z</time>
      </trkpt>
      <trkpt lat="46.15571" lon="5.98099">
        <ele>375.9</ele>
        <time>2022-09-27T12:46:46Z</time>
      </trkpt>
      <trkpt lat="46.15573" lon="5.98103">
        <ele>376.1</ele>
        <time>2022-09-27T12:46:47Z</time>
      </trkpt>
      <trkpt lat="46.15574" lon="5.98104">
        <ele>376.1</ele>
        <time>2022-09-27T12:46:48Z</time>
      </trkpt>
      <trkpt lat="46.15576" lon="5.98108">
        <ele>376.2</ele>
        <time>2022-09-27T12:46:49Z</time>
      </trkpt>
      <trkpt lat="46.15576" lon="5.98109">
        <ele>376.3</ele>
        <time>2022-09-27T12:46:50Z</time>
      </trkpt>
      <trkpt lat="46.15578" lon="5.98112">
        <ele>376.4</ele>
        <time>2022-09-27T12:46:51Z</time>
      </trkpt>
      <trkpt lat="46.15579" lon="5.98115">
        <ele>376.5</ele>
        <time>2022-09-27T12:46:53Z</time>
      </trkpt>
      <trkpt lat="46.1558" lon="5.98119">
        <ele>376.6</ele>
        <time>2022-09-27T12:46:54Z</time>
      </trkpt>
      <trkpt lat="46.15581" lon="5.9812">
        <ele>376.7</ele>
        <time>2022-09-27T12:46:55Z</time>
      </trkpt>
      <trkpt lat="46.15583" lon="5.98124">
        <ele>376.8</ele>
        <time>2022-09-27T12:46:56Z</time>
      </trkpt>
      <trkpt lat="46.15584" lon="5.98125">
        <ele>376.9</ele>
        <time>2022-09-27T12:46:57Z</time>
      </trkpt>
      <trkpt lat="46.15585" lon="5.9813">
        <ele>377</ele>
        <time>2022-09-27T12:46:58Z</time>
      </trkpt>
      <trkpt lat="46.15586" lon="5.98131">
        <ele>377.1</ele>
        <time>2022-09-27T12:46:59Z</time>
      </trkpt>
      <trkpt lat="46.15588" lon="5.98135">
        <ele>377.2</ele>
        <time>2022-09-27T12:47:00Z</time>
      </trkpt>
      <trkpt lat="46.15589" lon="5.98137">
        <ele>377.3</ele>
        <time>2022-09-27T12:47:01Z</time>
      </trkpt>
      <trkpt lat="46.1559" lon="5.9814">
        <ele>377.4</ele>
        <time>2022-09-27T12:47:02Z</time>
      </trkpt>
      <trkpt lat="46.15591" lon="5.98141">
        <ele>377.5</ele>
        <time>2022-09-27T12:47:03Z</time>
      </trkpt>
      <trkpt lat="46.15594" lon="5.98145">
        <ele>377.7</ele>
        <time>2022-09-27T12:47:04Z</time>
      </trkpt>
      <trkpt lat="46.15595" lon="5.98147">
        <ele>377.7</ele>
        <time>2022-09-27T12:47:05Z</time>
      </trkpt>
      <trkpt lat="46.15597" lon="5.98151">
        <ele>377.9</ele>
        <time>2022-09-27T12:47:06Z</time>
      </trkpt>
      <trkpt lat="46.15597" lon="5.98152">
        <ele>377.9</ele>
        <time>2022-09-27T12:47:07Z</time>
      </trkpt>
      <trkpt lat="46.15599" lon="5.98156">
        <ele>378.1</ele>
        <time>2022-09-27T12:47:08Z</time>
      </trkpt>
      <trkpt lat="46.156" lon="5.98158">
        <ele>378.2</ele>
        <time>2022-09-27T12:47:09Z</time>
      </trkpt>
      <trkpt lat="46.15602" lon="5.98162">
        <ele>378.3</ele>
        <time>2022-09-27T12:47:10Z</time>
      </trkpt>
      <trkpt lat="46.15602" lon="5.98164">
        <ele>378.4</ele>
        <time>2022-09-27T12:47:11Z</time>
      </trkpt>
      <trkpt lat="46.15604" lon="5.98168">
        <ele>378.6</ele>
        <time>2022-09-27T12:47:12Z</time>
      </trkpt>
      <trkpt lat="46.15605" lon="5.98169">
        <ele>378.6</ele>
        <time>2022-09-27T12:47:13Z</time>
      </trkpt>
      <trkpt lat="46.15607" lon="5.98173">
        <ele>378.8</ele>
        <time>2022-09-27T12:47:14Z</time>
      </trkpt>
      <trkpt lat="46.15608" lon="5.98174">
        <ele>378.8</ele>
        <time>2022-09-27T12:47:15Z</time>
      </trkpt>
      <trkpt lat="46.1561" lon="5.98178">
        <ele>379</ele>
        <time>2022-09-27T12:47:16Z</time>
      </trkpt>
      <trkpt lat="46.1561" lon="5.98179">
        <ele>379</ele>
        <time>2022-09-27T12:47:17Z</time>
      </trkpt>
      <trkpt lat="46.15612" lon="5.98183">
        <ele>379.2</ele>
        <time>2022-09-27T12:47:18Z</time>
      </trkpt>
      <trkpt lat="46.15613" lon="5.98184">
        <ele>379.2</ele>
        <time>2022-09-27T12:47:19Z</time>
      </trkpt>
      <trkpt lat="46.15615" lon="5.98188">
        <ele>379.4</ele>
        <time>2022-09-27T12:47:20Z</time>
      </trkpt>
      <trkpt lat="46.15615" lon="5.98189">
        <ele>379.4</ele>
        <time>2022-09-27T12:47:21Z</time>
      </trkpt>
      <trkpt lat="46.15617" lon="5.98193">
        <ele>379.6</ele>
        <time>2022-09-27T12:47:22Z</time>
      </trkpt>
      <trkpt lat="46.15618" lon="5.98194">
        <ele>379.6</ele>
        <time>2022-09-27T12:47:23Z</time>
      </trkpt>
      <trkpt lat="46.1562" lon="5.98198">
        <ele>379.8</ele>
        <time>2022-09-27T12:47:24Z</time>
      </trkpt>
      <trkpt lat="46.1562" lon="5.982">
        <ele>379.9</ele>
        <time>2022-09-27T12:47:25Z</time>
      </trkpt>
      <trkpt lat="46.15623" lon="5.98204">
        <ele>380</ele>
        <time>2022-09-27T12:47:26Z</time>
      </trkpt>
      <trkpt lat="46.15623" lon="5.98205">
        <ele>380.1</ele>
        <time>2022-09-27T12:47:27Z</time>
      </trkpt>
      <trkpt lat="46.15625" lon="5.98209">
        <ele>380.2</ele>
        <time>2022-09-27T12:47:28Z</time>
      </trkpt>
      <trkpt lat="46.15626" lon="5.9821">
        <ele>380.3</ele>
        <time>2022-09-27T12:47:29Z</time>
      </trkpt>
      <trkpt lat="46.15628" lon="5.98214">
        <ele>380.5</ele>
        <time>2022-09-27T12:47:30Z</time>
      </trkpt>
      <trkpt lat="46.15629" lon="5.98215">
        <ele>380.5</ele>
        <time>2022-09-27T12:47:31Z</time>
      </trkpt>
      <trkpt lat="46.1563" lon="5.98219">
        <ele>380.7</ele>
        <time>2022-09-27T12:47:32Z</time>
      </trkpt>
      <trkpt lat="46.15631" lon="5.9822">
        <ele>380.7</ele>
        <time>2022-09-27T12:47:33Z</time>
      </trkpt>
      <trkpt lat="46.15633" lon="5.98224">
        <ele>380.9</ele>
        <time>2022-09-27T12:47:34Z</time>
      </trkpt>
      <trkpt lat="46.15633" lon="5.98225">
        <ele>380.9</ele>
        <time>2022-09-27T12:47:35Z</time>
      </trkpt>
      <trkpt lat="46.15636" lon="5.98229">
        <ele>381.1</ele>
        <time>2022-09-27T12:47:36Z</time>
      </trkpt>
      <trkpt lat="46.15637" lon="5.98231">
        <ele>381.2</ele>
        <time>2022-09-27T12:47:37Z</time>
      </trkpt>
      <trkpt lat="46.15638" lon="5.98235">
        <ele>381.3</ele>
        <time>2022-09-27T12:47:38Z</time>
      </trkpt>
      <trkpt lat="46.15639" lon="5.98236">
        <ele>381.3</ele>
        <time>2022-09-27T12:47:39Z</time>
      </trkpt>
      <trkpt lat="46.1564" lon="5.9824">
        <ele>381.5</ele>
        <time>2022-09-27T12:47:40Z</time>
      </trkpt>
      <trkpt lat="46.1564" lon="5.98241">
        <ele>381.5</ele>
        <time>2022-09-27T12:47:41Z</time>
      </trkpt>
      <trkpt lat="46.15642" lon="5.98245">
        <ele>381.7</ele>
        <time>2022-09-27T12:47:42Z</time>
      </trkpt>
      <trkpt lat="46.15642" lon="5.98247">
        <ele>381.7</ele>
        <time>2022-09-27T12:47:43Z</time>
      </trkpt>
      <trkpt lat="46.15643" lon="5.98249">
        <ele>381.8</ele>
        <time>2022-09-27T12:47:44Z</time>
      </trkpt>
      <trkpt lat="46.15643" lon="5.98251">
        <ele>381.8</ele>
        <time>2022-09-27T12:47:45Z</time>
      </trkpt>
      <trkpt lat="46.15644" lon="5.98253">
        <ele>381.9</ele>
        <time>2022-09-27T12:47:46Z</time>
      </trkpt>
      <trkpt lat="46.15645" lon="5.98255">
        <ele>382</ele>
        <time>2022-09-27T12:47:47Z</time>
      </trkpt>
      <trkpt lat="46.15645" lon="5.98255">
        <ele>382</ele>
        <time>2022-09-27T12:47:48Z</time>
      </trkpt>
      <trkpt lat="46.15645" lon="5.98255">
        <ele>382</ele>
        <time>2022-09-27T12:47:49Z</time>
      </trkpt>
      <trkpt lat="46.15645" lon="5.98254">
        <ele>382</ele>
        <time>2022-09-27T12:47:50Z</time>
      </trkpt>
      <trkpt lat="46.15644" lon="5.98255">
        <ele>382</ele>
        <time>2022-09-27T12:47:51Z</time>
      </trkpt>
      <trkpt lat="46.15644" lon="5.98255">
        <ele>382</ele>
        <time>2022-09-27T12:47:52Z</time>
      </trkpt>
      <trkpt lat="46.15645" lon="5.98255">
        <ele>382</ele>
        <time>2022-09-27T12:47:53Z</time>
      </trkpt>
      <trkpt lat="46.15645" lon="5.98255">
        <ele>382</ele>
        <time>2022-09-27T12:47:54Z</time>
      </trkpt>
      <trkpt lat="46.15645" lon="5.98255">
        <ele>382.1</ele>
        <time>2022-09-27T12:47:55Z</time>
      </trkpt>
      <trkpt lat="46.15646" lon="5.98255">
        <ele>382.1</ele>
        <time>2022-09-27T12:47:56Z</time>
      </trkpt>
      <trkpt lat="46.15646" lon="5.98255">
        <ele>382.1</ele>
        <time>2022-09-27T12:47:57Z</time>
      </trkpt>
      <trkpt lat="46.15649" lon="5.98258">
        <ele>382.3</ele>
        <time>2022-09-27T12:48:24Z</time>
      </trkpt>
      <trkpt lat="46.15651" lon="5.98257">
        <ele>382.2</ele>
        <time>2022-09-27T12:48:25Z</time>
      </trkpt>
      <trkpt lat="46.15653" lon="5.98253">
        <ele>382.1</ele>
        <time>2022-09-27T12:48:26Z</time>
      </trkpt>
      <trkpt lat="46.15653" lon="5.98251">
        <ele>382.1</ele>
        <time>2022-09-27T12:48:27Z</time>
      </trkpt>
      <trkpt lat="46.15655" lon="5.98247">
        <ele>382</ele>
        <time>2022-09-27T12:48:28Z</time>
      </trkpt>
      <trkpt lat="46.15655" lon="5.98243">
        <ele>382</ele>
        <time>2022-09-27T12:48:29Z</time>
      </trkpt>
      <trkpt lat="46.15657" lon="5.98237">
        <ele>381.9</ele>
        <time>2022-09-27T12:48:30Z</time>
      </trkpt>
      <trkpt lat="46.15658" lon="5.98232">
        <ele>381.8</ele>
        <time>2022-09-27T12:48:31Z</time>
      </trkpt>
      <trkpt lat="46.15658" lon="5.98226">
        <ele>381.4</ele>
        <time>2022-09-27T12:48:32Z</time>
      </trkpt>
      <trkpt lat="46.15659" lon="5.98221">
        <ele>381</ele>
        <time>2022-09-27T12:48:33Z</time>
      </trkpt>
      <trkpt lat="46.1566" lon="5.98215">
        <ele>380.6</ele>
        <time>2022-09-27T12:48:34Z</time>
      </trkpt>
      <trkpt lat="46.15662" lon="5.9821">
        <ele>380.2</ele>
        <time>2022-09-27T12:48:35Z</time>
      </trkpt>
      <trkpt lat="46.15663" lon="5.98204">
        <ele>379.9</ele>
        <time>2022-09-27T12:48:36Z</time>
      </trkpt>
      <trkpt lat="46.15663" lon="5.98198">
        <ele>379.5</ele>
        <time>2022-09-27T12:48:37Z</time>
      </trkpt>
      <trkpt lat="46.15665" lon="5.98192">
        <ele>379.1</ele>
        <time>2022-09-27T12:48:38Z</time>
      </trkpt>
      <trkpt lat="46.15666" lon="5.98188">
        <ele>378.8</ele>
        <time>2022-09-27T12:48:39Z</time>
      </trkpt>
      <trkpt lat="46.15666" lon="5.98182">
        <ele>378.5</ele>
        <time>2022-09-27T12:48:40Z</time>
      </trkpt>
      <trkpt lat="46.15667" lon="5.98178">
        <ele>378.3</ele>
        <time>2022-09-27T12:48:41Z</time>
      </trkpt>
      <trkpt lat="46.15667" lon="5.98174">
        <ele>378.1</ele>
        <time>2022-09-27T12:48:42Z</time>
      </trkpt>
      <trkpt lat="46.15667" lon="5.98171">
        <ele>377.9</ele>
        <time>2022-09-27T12:48:43Z</time>
      </trkpt>
      <trkpt lat="46.15668" lon="5.9817">
        <ele>377.8</ele>
        <time>2022-09-27T12:48:44Z</time>
      </trkpt>
      <trkpt lat="46.15669" lon="5.98166">
        <ele>377.6</ele>
        <time>2022-09-27T12:48:45Z</time>
      </trkpt>
      <trkpt lat="46.15669" lon="5.98164">
        <ele>377.5</ele>
        <time>2022-09-27T12:48:46Z</time>
      </trkpt>
      <trkpt lat="46.15669" lon="5.9816">
        <ele>377.3</ele>
        <time>2022-09-27T12:48:47Z</time>
      </trkpt>
      <trkpt lat="46.15669" lon="5.98159">
        <ele>377.2</ele>
        <time>2022-09-27T12:48:48Z</time>
      </trkpt>
      <trkpt lat="46.1567" lon="5.98154">
        <ele>377</ele>
        <time>2022-09-27T12:48:49Z</time>
      </trkpt>
      <trkpt lat="46.1567" lon="5.98153">
        <ele>377</ele>
        <time>2022-09-27T12:48:50Z</time>
      </trkpt>
      <trkpt lat="46.15672" lon="5.98149">
        <ele>376.9</ele>
        <time>2022-09-27T12:48:51Z</time>
      </trkpt>
      <trkpt lat="46.15673" lon="5.98146">
        <ele>376.8</ele>
        <time>2022-09-27T12:48:52Z</time>
      </trkpt>
      <trkpt lat="46.15674" lon="5.98142">
        <ele>376.7</ele>
        <time>2022-09-27T12:48:53Z</time>
      </trkpt>
      <trkpt lat="46.15676" lon="5.98138">
        <ele>375.9</ele>
        <time>2022-09-27T12:48:54Z</time>
      </trkpt>
      <trkpt lat="46.15677" lon="5.98137">
        <ele>375.9</ele>
        <time>2022-09-27T12:48:55Z</time>
      </trkpt>
      <trkpt lat="46.15678" lon="5.98137">
        <ele>375.9</ele>
        <time>2022-09-27T12:48:56Z</time>
      </trkpt>
      <trkpt lat="46.15678" lon="5.98137">
        <ele>375.9</ele>
        <time>2022-09-27T12:48:57Z</time>
      </trkpt>
      <trkpt lat="46.15677" lon="5.98137">
        <ele>375.9</ele>
        <time>2022-09-27T12:48:59Z</time>
      </trkpt>
      <trkpt lat="46.15677" lon="5.98137">
        <ele>375.9</ele>
        <time>2022-09-27T12:49:00Z</time>
      </trkpt>
      <trkpt lat="46.15678" lon="5.98136">
        <ele>375.9</ele>
        <time>2022-09-27T12:49:01Z</time>
      </trkpt>
      <trkpt lat="46.15679" lon="5.98134">
        <ele>375.9</ele>
        <time>2022-09-27T12:49:02Z</time>
      </trkpt>
      <trkpt lat="46.15682" lon="5.98131">
        <ele>375.8</ele>
        <time>2022-09-27T12:49:03Z</time>
      </trkpt>
      <trkpt lat="46.15683" lon="5.9813">
        <ele>375.8</ele>
        <time>2022-09-27T12:49:04Z</time>
      </trkpt>
      <trkpt lat="46.15686" lon="5.9813">
        <ele>375.8</ele>
        <time>2022-09-27T12:49:05Z</time>
      </trkpt>
      <trkpt lat="46.1569" lon="5.9813">
        <ele>375.7</ele>
        <time>2022-09-27T12:49:06Z</time>
      </trkpt>
      <trkpt lat="46.15695" lon="5.9813">
        <ele>375.7</ele>
        <time>2022-09-27T12:49:07Z</time>
      </trkpt>
      <trkpt lat="46.15699" lon="5.9813">
        <ele>375.7</ele>
        <time>2022-09-27T12:49:08Z</time>
      </trkpt>
      <trkpt lat="46.15704" lon="5.98131">
        <ele>375.7</ele>
        <time>2022-09-27T12:49:09Z</time>
      </trkpt>
      <trkpt lat="46.15707" lon="5.98131">
        <ele>375.6</ele>
        <time>2022-09-27T12:49:10Z</time>
      </trkpt>
      <trkpt lat="46.15712" lon="5.98132">
        <ele>375.6</ele>
        <time>2022-09-27T12:49:11Z</time>
      </trkpt>
      <trkpt lat="46.15717" lon="5.98133">
        <ele>375.6</ele>
        <time>2022-09-27T12:49:12Z</time>
      </trkpt>
      <trkpt lat="46.15721" lon="5.98133">
        <ele>375.6</ele>
        <time>2022-09-27T12:49:13Z</time>
      </trkpt>
      <trkpt lat="46.15726" lon="5.98135">
        <ele>375.5</ele>
        <time>2022-09-27T12:49:14Z</time>
      </trkpt>
      <trkpt lat="46.15731" lon="5.98136">
        <ele>375.5</ele>
        <time>2022-09-27T12:49:15Z</time>
      </trkpt>
      <trkpt lat="46.15735" lon="5.98138">
        <ele>375.5</ele>
        <time>2022-09-27T12:49:16Z</time>
      </trkpt>
      <trkpt lat="46.1574" lon="5.9814">
        <ele>375.5</ele>
        <time>2022-09-27T12:49:17Z</time>
      </trkpt>
      <trkpt lat="46.15744" lon="5.98142">
        <ele>375.4</ele>
        <time>2022-09-27T12:49:18Z</time>
      </trkpt>
      <trkpt lat="46.15748" lon="5.98147">
        <ele>375.4</ele>
        <time>2022-09-27T12:49:19Z</time>
      </trkpt>
      <trkpt lat="46.15752" lon="5.98151">
        <ele>375.4</ele>
        <time>2022-09-27T12:49:20Z</time>
      </trkpt>
      <trkpt lat="46.15756" lon="5.98155">
        <ele>375.4</ele>
        <time>2022-09-27T12:49:21Z</time>
      </trkpt>
      <trkpt lat="46.1576" lon="5.98159">
        <ele>375.4</ele>
        <time>2022-09-27T12:49:22Z</time>
      </trkpt>
      <trkpt lat="46.15764" lon="5.98163">
        <ele>375.3</ele>
        <time>2022-09-27T12:49:23Z</time>
      </trkpt>
      <trkpt lat="46.15768" lon="5.98167">
        <ele>375.3</ele>
        <time>2022-09-27T12:49:24Z</time>
      </trkpt>
      <trkpt lat="46.15771" lon="5.98171">
        <ele>375.3</ele>
        <time>2022-09-27T12:49:25Z</time>
      </trkpt>
      <trkpt lat="46.15775" lon="5.98175">
        <ele>375.3</ele>
        <time>2022-09-27T12:49:26Z</time>
      </trkpt>
      <trkpt lat="46.15778" lon="5.98178">
        <ele>375.3</ele>
        <time>2022-09-27T12:49:27Z</time>
      </trkpt>
      <trkpt lat="46.15782" lon="5.98182">
        <ele>375.4</ele>
        <time>2022-09-27T12:49:28Z</time>
      </trkpt>
      <trkpt lat="46.15786" lon="5.98183">
        <ele>375.4</ele>
        <time>2022-09-27T12:49:29Z</time>
      </trkpt>
      <trkpt lat="46.1579" lon="5.98186">
        <ele>375.4</ele>
        <time>2022-09-27T12:49:30Z</time>
      </trkpt>
      <trkpt lat="46.15795" lon="5.98188">
        <ele>375.4</ele>
        <time>2022-09-27T12:49:31Z</time>
      </trkpt>
      <trkpt lat="46.15801" lon="5.98189">
        <ele>375.4</ele>
        <time>2022-09-27T12:49:32Z</time>
      </trkpt>
      <trkpt lat="46.15806" lon="5.98192">
        <ele>375.4</ele>
        <time>2022-09-27T12:49:33Z</time>
      </trkpt>
      <trkpt lat="46.15812" lon="5.98193">
        <ele>375.5</ele>
        <time>2022-09-27T12:49:34Z</time>
      </trkpt>
      <trkpt lat="46.15818" lon="5.98194">
        <ele>375.6</ele>
        <time>2022-09-27T12:49:35Z</time>
      </trkpt>
      <trkpt lat="46.15824" lon="5.98195">
        <ele>375.6</ele>
        <time>2022-09-27T12:49:36Z</time>
      </trkpt>
      <trkpt lat="46.1583" lon="5.98196">
        <ele>375.6</ele>
        <time>2022-09-27T12:49:37Z</time>
      </trkpt>
      <trkpt lat="46.15835" lon="5.98195">
        <ele>375.6</ele>
        <time>2022-09-27T12:49:38Z</time>
      </trkpt>
      <trkpt lat="46.15843" lon="5.98197">
        <ele>375.5</ele>
        <time>2022-09-27T12:49:39Z</time>
      </trkpt>
      <trkpt lat="46.15847" lon="5.98198">
        <ele>375.5</ele>
        <time>2022-09-27T12:49:40Z</time>
      </trkpt>
      <trkpt lat="46.15852" lon="5.98198">
        <ele>375.5</ele>
        <time>2022-09-27T12:49:41Z</time>
      </trkpt>
      <trkpt lat="46.15857" lon="5.98199">
        <ele>375.5</ele>
        <time>2022-09-27T12:49:42Z</time>
      </trkpt>
      <trkpt lat="46.15862" lon="5.98199">
        <ele>375.5</ele>
        <time>2022-09-27T12:49:43Z</time>
      </trkpt>
      <trkpt lat="46.15866" lon="5.982">
        <ele>375.5</ele>
        <time>2022-09-27T12:49:44Z</time>
      </trkpt>
      <trkpt lat="46.1587" lon="5.98199">
        <ele>375.5</ele>
        <time>2022-09-27T12:49:45Z</time>
      </trkpt>
      <trkpt lat="46.15872" lon="5.98199">
        <ele>375.9</ele>
        <time>2022-09-27T12:49:46Z</time>
      </trkpt>
      <trkpt lat="46.15874" lon="5.98199">
        <ele>376</ele>
        <time>2022-09-27T12:49:47Z</time>
      </trkpt>
      <trkpt lat="46.15875" lon="5.98199">
        <ele>376</ele>
        <time>2022-09-27T12:49:48Z</time>
      </trkpt>
      <trkpt lat="46.15876" lon="5.98203">
        <ele>376.2</ele>
        <time>2022-09-27T12:49:49Z</time>
      </trkpt>
      <trkpt lat="46.15876" lon="5.98205">
        <ele>376.2</ele>
        <time>2022-09-27T12:49:50Z</time>
      </trkpt>
      <trkpt lat="46.15877" lon="5.98207">
        <ele>376.3</ele>
        <time>2022-09-27T12:49:51Z</time>
      </trkpt>
      <trkpt lat="46.15877" lon="5.98208">
        <ele>376.3</ele>
        <time>2022-09-27T12:49:52Z</time>
      </trkpt>
      <trkpt lat="46.15876" lon="5.98208">
        <ele>376.3</ele>
        <time>2022-09-27T12:49:53Z</time>
      </trkpt>
      <trkpt lat="46.15876" lon="5.98209">
        <ele>376.4</ele>
        <time>2022-09-27T12:49:54Z</time>
      </trkpt>
      <trkpt lat="46.15876" lon="5.98211">
        <ele>376.4</ele>
        <time>2022-09-27T12:49:55Z</time>
      </trkpt>
      <trkpt lat="46.15876" lon="5.98212">
        <ele>376.5</ele>
        <time>2022-09-27T12:49:56Z</time>
      </trkpt>
      <trkpt lat="46.15876" lon="5.98213">
        <ele>376.5</ele>
        <time>2022-09-27T12:49:57Z</time>
      </trkpt>
      <trkpt lat="46.15876" lon="5.98214">
        <ele>376.5</ele>
        <time>2022-09-27T12:49:58Z</time>
      </trkpt>
      <trkpt lat="46.15876" lon="5.98214">
        <ele>376.6</ele>
        <time>2022-09-27T12:49:59Z</time>
      </trkpt>
      <trkpt lat="46.15875" lon="5.98216">
        <ele>376.6</ele>
        <time>2022-09-27T12:50:00Z</time>
      </trkpt>
      <trkpt lat="46.15875" lon="5.98218">
        <ele>376.7</ele>
        <time>2022-09-27T12:50:01Z</time>
      </trkpt>
      <trkpt lat="46.15874" lon="5.98219">
        <ele>376.7</ele>
        <time>2022-09-27T12:50:02Z</time>
      </trkpt>
      <trkpt lat="46.15875" lon="5.9822">
        <ele>376.8</ele>
        <time>2022-09-27T12:50:03Z</time>
      </trkpt>
      <trkpt lat="46.15875" lon="5.98221">
        <ele>376.8</ele>
        <time>2022-09-27T12:50:04Z</time>
      </trkpt>
      <trkpt lat="46.15875" lon="5.98222">
        <ele>376.8</ele>
        <time>2022-09-27T12:50:05Z</time>
      </trkpt>
      <trkpt lat="46.15875" lon="5.98225">
        <ele>376.9</ele>
        <time>2022-09-27T12:50:06Z</time>
      </trkpt>
      <trkpt lat="46.15875" lon="5.98225">
        <ele>377</ele>
        <time>2022-09-27T12:50:07Z</time>
      </trkpt>
      <trkpt lat="46.15875" lon="5.98226">
        <ele>377</ele>
        <time>2022-09-27T12:50:08Z</time>
      </trkpt>
      <trkpt lat="46.15875" lon="5.98227">
        <ele>377</ele>
        <time>2022-09-27T12:50:09Z</time>
      </trkpt>
      <trkpt lat="46.15875" lon="5.98228">
        <ele>377</ele>
        <time>2022-09-27T12:50:10Z</time>
      </trkpt>
      <trkpt lat="46.15875" lon="5.9823">
        <ele>377.1</ele>
        <time>2022-09-27T12:50:11Z</time>
      </trkpt>
      <trkpt lat="46.15875" lon="5.98231">
        <ele>377.1</ele>
        <time>2022-09-27T12:50:12Z</time>
      </trkpt>
      <trkpt lat="46.15875" lon="5.98233">
        <ele>377.2</ele>
        <time>2022-09-27T12:50:13Z</time>
      </trkpt>
      <trkpt lat="46.15875" lon="5.98234">
        <ele>377.2</ele>
        <time>2022-09-27T12:50:14Z</time>
      </trkpt>
      <trkpt lat="46.15875" lon="5.98235">
        <ele>377.2</ele>
        <time>2022-09-27T12:50:15Z</time>
      </trkpt>
      <trkpt lat="46.15875" lon="5.98236">
        <ele>377.3</ele>
        <time>2022-09-27T12:50:16Z</time>
      </trkpt>
      <trkpt lat="46.15875" lon="5.98237">
        <ele>377.3</ele>
        <time>2022-09-27T12:50:17Z</time>
      </trkpt>
      <trkpt lat="46.15875" lon="5.98238">
        <ele>377.3</ele>
        <time>2022-09-27T12:50:18Z</time>
      </trkpt>
      <trkpt lat="46.15875" lon="5.98238">
        <ele>377.4</ele>
        <time>2022-09-27T12:50:19Z</time>
      </trkpt>
      <trkpt lat="46.15875" lon="5.98239">
        <ele>377.4</ele>
        <time>2022-09-27T12:50:20Z</time>
      </trkpt>
      <trkpt lat="46.15876" lon="5.9824">
        <ele>377.4</ele>
        <time>2022-09-27T12:50:21Z</time>
      </trkpt>
      <trkpt lat="46.15876" lon="5.9824">
        <ele>377.4</ele>
        <time>2022-09-27T12:50:22Z</time>
      </trkpt>
      <trkpt lat="46.15876" lon="5.98241">
        <ele>377.4</ele>
        <time>2022-09-27T12:50:23Z</time>
      </trkpt>
      <trkpt lat="46.15876" lon="5.98242">
        <ele>377.5</ele>
        <time>2022-09-27T12:50:24Z</time>
      </trkpt>
      <trkpt lat="46.15877" lon="5.98245">
        <ele>377.6</ele>
        <time>2022-09-27T12:50:25Z</time>
      </trkpt>
      <trkpt lat="46.15877" lon="5.98247">
        <ele>377.6</ele>
        <time>2022-09-27T12:50:26Z</time>
      </trkpt>
      <trkpt lat="46.15878" lon="5.98249">
        <ele>377.7</ele>
        <time>2022-09-27T12:50:27Z</time>
      </trkpt>
      <trkpt lat="46.15878" lon="5.98251">
        <ele>377.8</ele>
        <time>2022-09-27T12:50:28Z</time>
      </trkpt>
      <trkpt lat="46.15878" lon="5.98256">
        <ele>377.9</ele>
        <time>2022-09-27T12:50:29Z</time>
      </trkpt>
      <trkpt lat="46.15879" lon="5.98257">
        <ele>378</ele>
        <time>2022-09-27T12:50:30Z</time>
      </trkpt>
      <trkpt lat="46.15879" lon="5.98262">
        <ele>378.1</ele>
        <time>2022-09-27T12:50:31Z</time>
      </trkpt>
      <trkpt lat="46.15879" lon="5.98264">
        <ele>378.2</ele>
        <time>2022-09-27T12:50:32Z</time>
      </trkpt>
      <trkpt lat="46.15879" lon="5.98268">
        <ele>378.4</ele>
        <time>2022-09-27T12:50:33Z</time>
      </trkpt>
      <trkpt lat="46.1588" lon="5.9827">
        <ele>378.4</ele>
        <time>2022-09-27T12:50:34Z</time>
      </trkpt>
      <trkpt lat="46.1588" lon="5.98274">
        <ele>378.6</ele>
        <time>2022-09-27T12:50:35Z</time>
      </trkpt>
      <trkpt lat="46.1588" lon="5.98275">
        <ele>378.6</ele>
        <time>2022-09-27T12:50:36Z</time>
      </trkpt>
      <trkpt lat="46.1588" lon="5.98277">
        <ele>378.7</ele>
        <time>2022-09-27T12:50:37Z</time>
      </trkpt>
      <trkpt lat="46.15881" lon="5.98279">
        <ele>379.7</ele>
        <time>2022-09-27T12:50:38Z</time>
      </trkpt>
      <trkpt lat="46.15883" lon="5.98281">
        <ele>379.8</ele>
        <time>2022-09-27T12:50:39Z</time>
      </trkpt>
      <trkpt lat="46.15884" lon="5.98282">
        <ele>379.9</ele>
        <time>2022-09-27T12:50:40Z</time>
      </trkpt>
      <trkpt lat="46.15885" lon="5.98282">
        <ele>379.9</ele>
        <time>2022-09-27T12:50:41Z</time>
      </trkpt>
      <trkpt lat="46.15887" lon="5.98282">
        <ele>380</ele>
        <time>2022-09-27T12:50:42Z</time>
      </trkpt>
      <trkpt lat="46.15889" lon="5.98281">
        <ele>380.1</ele>
        <time>2022-09-27T12:50:43Z</time>
      </trkpt>
      <trkpt lat="46.1589" lon="5.9828">
        <ele>380.2</ele>
        <time>2022-09-27T12:50:44Z</time>
      </trkpt>
      <trkpt lat="46.15891" lon="5.98279">
        <ele>380.2</ele>
        <time>2022-09-27T12:50:45Z</time>
      </trkpt>
      <trkpt lat="46.15892" lon="5.98279">
        <ele>380.3</ele>
        <time>2022-09-27T12:50:46Z</time>
      </trkpt>
      <trkpt lat="46.15893" lon="5.98278">
        <ele>380.3</ele>
        <time>2022-09-27T12:50:47Z</time>
      </trkpt>
      <trkpt lat="46.15895" lon="5.98277">
        <ele>380.4</ele>
        <time>2022-09-27T12:50:48Z</time>
      </trkpt>
      <trkpt lat="46.15896" lon="5.98277">
        <ele>380.4</ele>
        <time>2022-09-27T12:50:49Z</time>
      </trkpt>
      <trkpt lat="46.15897" lon="5.98277">
        <ele>380.5</ele>
        <time>2022-09-27T12:50:50Z</time>
      </trkpt>
      <trkpt lat="46.15899" lon="5.98276">
        <ele>380.5</ele>
        <time>2022-09-27T12:50:51Z</time>
      </trkpt>
      <trkpt lat="46.15901" lon="5.98276">
        <ele>380.6</ele>
        <time>2022-09-27T12:50:52Z</time>
      </trkpt>
      <trkpt lat="46.15902" lon="5.98276">
        <ele>380.6</ele>
        <time>2022-09-27T12:50:53Z</time>
      </trkpt>
      <trkpt lat="46.15903" lon="5.98275">
        <ele>380.7</ele>
        <time>2022-09-27T12:50:54Z</time>
      </trkpt>
      <trkpt lat="46.15905" lon="5.98274">
        <ele>380.7</ele>
        <time>2022-09-27T12:50:55Z</time>
      </trkpt>
      <trkpt lat="46.15909" lon="5.98273">
        <ele>380.8</ele>
        <time>2022-09-27T12:50:56Z</time>
      </trkpt>
      <trkpt lat="46.1591" lon="5.98272">
        <ele>380.8</ele>
        <time>2022-09-27T12:50:57Z</time>
      </trkpt>
      <trkpt lat="46.15913" lon="5.98271">
        <ele>380.9</ele>
        <time>2022-09-27T12:50:58Z</time>
      </trkpt>
      <trkpt lat="46.15914" lon="5.9827">
        <ele>380.9</ele>
        <time>2022-09-27T12:50:59Z</time>
      </trkpt>
      <trkpt lat="46.15917" lon="5.98269">
        <ele>381</ele>
        <time>2022-09-27T12:51:00Z</time>
      </trkpt>
      <trkpt lat="46.15918" lon="5.98269">
        <ele>381</ele>
        <time>2022-09-27T12:51:01Z</time>
      </trkpt>
      <trkpt lat="46.15922" lon="5.98268">
        <ele>381</ele>
        <time>2022-09-27T12:51:02Z</time>
      </trkpt>
      <trkpt lat="46.15923" lon="5.98268">
        <ele>381</ele>
        <time>2022-09-27T12:51:03Z</time>
      </trkpt>
      <trkpt lat="46.15927" lon="5.98268">
        <ele>381.1</ele>
        <time>2022-09-27T12:51:05Z</time>
      </trkpt>
      <trkpt lat="46.15928" lon="5.98268">
        <ele>381.1</ele>
        <time>2022-09-27T12:51:06Z</time>
      </trkpt>
      <trkpt lat="46.15932" lon="5.98267">
        <ele>381.1</ele>
        <time>2022-09-27T12:51:07Z</time>
      </trkpt>
      <trkpt lat="46.15936" lon="5.98266">
        <ele>381.2</ele>
        <time>2022-09-27T12:51:08Z</time>
      </trkpt>
      <trkpt lat="46.15937" lon="5.98266">
        <ele>381.2</ele>
        <time>2022-09-27T12:51:09Z</time>
      </trkpt>
      <trkpt lat="46.15941" lon="5.98265">
        <ele>381.2</ele>
        <time>2022-09-27T12:51:10Z</time>
      </trkpt>
      <trkpt lat="46.15944" lon="5.98265">
        <ele>381.2</ele>
        <time>2022-09-27T12:51:11Z</time>
      </trkpt>
      <trkpt lat="46.15947" lon="5.98265">
        <ele>381.2</ele>
        <time>2022-09-27T12:51:12Z</time>
      </trkpt>
      <trkpt lat="46.1595" lon="5.98265">
        <ele>381.3</ele>
        <time>2022-09-27T12:51:13Z</time>
      </trkpt>
      <trkpt lat="46.15954" lon="5.98264">
        <ele>381.3</ele>
        <time>2022-09-27T12:51:14Z</time>
      </trkpt>
      <trkpt lat="46.15957" lon="5.98265">
        <ele>381.3</ele>
        <time>2022-09-27T12:51:15Z</time>
      </trkpt>
      <trkpt lat="46.1596" lon="5.98264">
        <ele>381.3</ele>
        <time>2022-09-27T12:51:16Z</time>
      </trkpt>
      <trkpt lat="46.15963" lon="5.98265">
        <ele>381.3</ele>
        <time>2022-09-27T12:51:17Z</time>
      </trkpt>
      <trkpt lat="46.15967" lon="5.98265">
        <ele>381.3</ele>
        <time>2022-09-27T12:51:18Z</time>
      </trkpt>
      <trkpt lat="46.1597" lon="5.98264">
        <ele>381.3</ele>
        <time>2022-09-27T12:51:19Z</time>
      </trkpt>
      <trkpt lat="46.15975" lon="5.98265">
        <ele>381.3</ele>
        <time>2022-09-27T12:51:20Z</time>
      </trkpt>
      <trkpt lat="46.15978" lon="5.98266">
        <ele>381.4</ele>
        <time>2022-09-27T12:51:21Z</time>
      </trkpt>
      <trkpt lat="46.15982" lon="5.98267">
        <ele>381.4</ele>
        <time>2022-09-27T12:51:22Z</time>
      </trkpt>
      <trkpt lat="46.15986" lon="5.98268">
        <ele>381.4</ele>
        <time>2022-09-27T12:51:23Z</time>
      </trkpt>
      <trkpt lat="46.1599" lon="5.98269">
        <ele>381.4</ele>
        <time>2022-09-27T12:51:24Z</time>
      </trkpt>
      <trkpt lat="46.15994" lon="5.98269">
        <ele>381.5</ele>
        <time>2022-09-27T12:51:25Z</time>
      </trkpt>
      <trkpt lat="46.15997" lon="5.9827">
        <ele>381.5</ele>
        <time>2022-09-27T12:51:26Z</time>
      </trkpt>
      <trkpt lat="46.16001" lon="5.9827">
        <ele>381.6</ele>
        <time>2022-09-27T12:51:27Z</time>
      </trkpt>
      <trkpt lat="46.16005" lon="5.98271">
        <ele>381.6</ele>
        <time>2022-09-27T12:51:28Z</time>
      </trkpt>
      <trkpt lat="46.16008" lon="5.98272">
        <ele>381.7</ele>
        <time>2022-09-27T12:51:29Z</time>
      </trkpt>
      <trkpt lat="46.16012" lon="5.98273">
        <ele>381.7</ele>
        <time>2022-09-27T12:51:30Z</time>
      </trkpt>
      <trkpt lat="46.16016" lon="5.98274">
        <ele>381.8</ele>
        <time>2022-09-27T12:51:31Z</time>
      </trkpt>
      <trkpt lat="46.1602" lon="5.98274">
        <ele>381.8</ele>
        <time>2022-09-27T12:51:32Z</time>
      </trkpt>
      <trkpt lat="46.16023" lon="5.98275">
        <ele>381.8</ele>
        <time>2022-09-27T12:51:33Z</time>
      </trkpt>
      <trkpt lat="46.16026" lon="5.98275">
        <ele>381.9</ele>
        <time>2022-09-27T12:51:34Z</time>
      </trkpt>
      <trkpt lat="46.1603" lon="5.98275">
        <ele>381.9</ele>
        <time>2022-09-27T12:51:35Z</time>
      </trkpt>
      <trkpt lat="46.16033" lon="5.98276">
        <ele>381.9</ele>
        <time>2022-09-27T12:51:36Z</time>
      </trkpt>
      <trkpt lat="46.16036" lon="5.98274">
        <ele>382</ele>
        <time>2022-09-27T12:51:37Z</time>
      </trkpt>
      <trkpt lat="46.16039" lon="5.98275">
        <ele>382</ele>
        <time>2022-09-27T12:51:38Z</time>
      </trkpt>
      <trkpt lat="46.16043" lon="5.98275">
        <ele>382</ele>
        <time>2022-09-27T12:51:39Z</time>
      </trkpt>
      <trkpt lat="46.16047" lon="5.98275">
        <ele>382.1</ele>
        <time>2022-09-27T12:51:40Z</time>
      </trkpt>
      <trkpt lat="46.16049" lon="5.98275">
        <ele>382.1</ele>
        <time>2022-09-27T12:51:41Z</time>
      </trkpt>
      <trkpt lat="46.16052" lon="5.98274">
        <ele>382.1</ele>
        <time>2022-09-27T12:51:42Z</time>
      </trkpt>
      <trkpt lat="46.16056" lon="5.98276">
        <ele>382.2</ele>
        <time>2022-09-27T12:51:43Z</time>
      </trkpt>
      <trkpt lat="46.1606" lon="5.98275">
        <ele>382.2</ele>
        <time>2022-09-27T12:51:44Z</time>
      </trkpt>
      <trkpt lat="46.16065" lon="5.98275">
        <ele>382.3</ele>
        <time>2022-09-27T12:51:45Z</time>
      </trkpt>
      <trkpt lat="46.16068" lon="5.98276">
        <ele>382.3</ele>
        <time>2022-09-27T12:51:46Z</time>
      </trkpt>
      <trkpt lat="46.16073" lon="5.98274">
        <ele>382.3</ele>
        <time>2022-09-27T12:51:47Z</time>
      </trkpt>
      <trkpt lat="46.16079" lon="5.98274">
        <ele>382.4</ele>
        <time>2022-09-27T12:51:48Z</time>
      </trkpt>
      <trkpt lat="46.16082" lon="5.98275">
        <ele>382.4</ele>
        <time>2022-09-27T12:51:49Z</time>
      </trkpt>
      <trkpt lat="46.16085" lon="5.98275">
        <ele>382.5</ele>
        <time>2022-09-27T12:51:50Z</time>
      </trkpt>
      <trkpt lat="46.1609" lon="5.98275">
        <ele>382.5</ele>
        <time>2022-09-27T12:51:51Z</time>
      </trkpt>
      <trkpt lat="46.16095" lon="5.98274">
        <ele>382.6</ele>
        <time>2022-09-27T12:51:52Z</time>
      </trkpt>
      <trkpt lat="46.16099" lon="5.98275">
        <ele>382.6</ele>
        <time>2022-09-27T12:51:53Z</time>
      </trkpt>
      <trkpt lat="46.16103" lon="5.98277">
        <ele>382.7</ele>
        <time>2022-09-27T12:51:54Z</time>
      </trkpt>
      <trkpt lat="46.16107" lon="5.98278">
        <ele>382.7</ele>
        <time>2022-09-27T12:51:55Z</time>
      </trkpt>
      <trkpt lat="46.16112" lon="5.98278">
        <ele>382.8</ele>
        <time>2022-09-27T12:51:56Z</time>
      </trkpt>
      <trkpt lat="46.16116" lon="5.98278">
        <ele>382.8</ele>
        <time>2022-09-27T12:51:57Z</time>
      </trkpt>
      <trkpt lat="46.1612" lon="5.98278">
        <ele>382.8</ele>
        <time>2022-09-27T12:51:58Z</time>
      </trkpt>
      <trkpt lat="46.16124" lon="5.9828">
        <ele>382.9</ele>
        <time>2022-09-27T12:51:59Z</time>
      </trkpt>
      <trkpt lat="46.16127" lon="5.98281">
        <ele>382.9</ele>
        <time>2022-09-27T12:52:00Z</time>
      </trkpt>
      <trkpt lat="46.16131" lon="5.98281">
        <ele>383</ele>
        <time>2022-09-27T12:52:01Z</time>
      </trkpt>
      <trkpt lat="46.16135" lon="5.98282">
        <ele>383</ele>
        <time>2022-09-27T12:52:02Z</time>
      </trkpt>
      <trkpt lat="46.1614" lon="5.98283">
        <ele>383.1</ele>
        <time>2022-09-27T12:52:03Z</time>
      </trkpt>
      <trkpt lat="46.16144" lon="5.98284">
        <ele>383.1</ele>
        <time>2022-09-27T12:52:04Z</time>
      </trkpt>
      <trkpt lat="46.16147" lon="5.98285">
        <ele>383.2</ele>
        <time>2022-09-27T12:52:05Z</time>
      </trkpt>
      <trkpt lat="46.16151" lon="5.98286">
        <ele>383.2</ele>
        <time>2022-09-27T12:52:06Z</time>
      </trkpt>
      <trkpt lat="46.16156" lon="5.98287">
        <ele>383.3</ele>
        <time>2022-09-27T12:52:07Z</time>
      </trkpt>
      <trkpt lat="46.1616" lon="5.98286">
        <ele>383.3</ele>
        <time>2022-09-27T12:52:08Z</time>
      </trkpt>
      <trkpt lat="46.16164" lon="5.98289">
        <ele>383.4</ele>
        <time>2022-09-27T12:52:09Z</time>
      </trkpt>
      <trkpt lat="46.16168" lon="5.9829">
        <ele>383.4</ele>
        <time>2022-09-27T12:52:10Z</time>
      </trkpt>
      <trkpt lat="46.16172" lon="5.98291">
        <ele>383.5</ele>
        <time>2022-09-27T12:52:11Z</time>
      </trkpt>
      <trkpt lat="46.16175" lon="5.98292">
        <ele>383.5</ele>
        <time>2022-09-27T12:52:12Z</time>
      </trkpt>
      <trkpt lat="46.16179" lon="5.98293">
        <ele>383.6</ele>
        <time>2022-09-27T12:52:13Z</time>
      </trkpt>
      <trkpt lat="46.16182" lon="5.98294">
        <ele>383.6</ele>
        <time>2022-09-27T12:52:14Z</time>
      </trkpt>
      <trkpt lat="46.16186" lon="5.98295">
        <ele>383.7</ele>
        <time>2022-09-27T12:52:15Z</time>
      </trkpt>
      <trkpt lat="46.1619" lon="5.98296">
        <ele>383.8</ele>
        <time>2022-09-27T12:52:16Z</time>
      </trkpt>
      <trkpt lat="46.16194" lon="5.98297">
        <ele>383.8</ele>
        <time>2022-09-27T12:52:17Z</time>
      </trkpt>
      <trkpt lat="46.16198" lon="5.983">
        <ele>383.9</ele>
        <time>2022-09-27T12:52:18Z</time>
      </trkpt>
      <trkpt lat="46.16202" lon="5.98301">
        <ele>384</ele>
        <time>2022-09-27T12:52:19Z</time>
      </trkpt>
      <trkpt lat="46.16207" lon="5.98303">
        <ele>384.1</ele>
        <time>2022-09-27T12:52:20Z</time>
      </trkpt>
      <trkpt lat="46.16212" lon="5.98305">
        <ele>384.2</ele>
        <time>2022-09-27T12:52:21Z</time>
      </trkpt>
      <trkpt lat="46.16216" lon="5.98306">
        <ele>384.3</ele>
        <time>2022-09-27T12:52:22Z</time>
      </trkpt>
      <trkpt lat="46.16221" lon="5.98307">
        <ele>384.4</ele>
        <time>2022-09-27T12:52:23Z</time>
      </trkpt>
      <trkpt lat="46.1623" lon="5.9831">
        <ele>384.6</ele>
        <time>2022-09-27T12:52:24Z</time>
      </trkpt>
      <trkpt lat="46.16234" lon="5.98311">
        <ele>384.6</ele>
        <time>2022-09-27T12:52:25Z</time>
      </trkpt>
      <trkpt lat="46.16238" lon="5.98312">
        <ele>384.7</ele>
        <time>2022-09-27T12:52:26Z</time>
      </trkpt>
      <trkpt lat="46.16241" lon="5.98313">
        <ele>384.8</ele>
        <time>2022-09-27T12:52:27Z</time>
      </trkpt>
      <trkpt lat="46.16244" lon="5.98314">
        <ele>384.9</ele>
        <time>2022-09-27T12:52:28Z</time>
      </trkpt>
      <trkpt lat="46.16249" lon="5.98313">
        <ele>385</ele>
        <time>2022-09-27T12:52:29Z</time>
      </trkpt>
      <trkpt lat="46.16253" lon="5.98313">
        <ele>385.1</ele>
        <time>2022-09-27T12:52:30Z</time>
      </trkpt>
      <trkpt lat="46.16256" lon="5.98313">
        <ele>385.2</ele>
        <time>2022-09-27T12:52:31Z</time>
      </trkpt>
      <trkpt lat="46.1626" lon="5.98313">
        <ele>385.3</ele>
        <time>2022-09-27T12:52:32Z</time>
      </trkpt>
      <trkpt lat="46.16263" lon="5.98312">
        <ele>385.3</ele>
        <time>2022-09-27T12:52:33Z</time>
      </trkpt>
      <trkpt lat="46.16266" lon="5.98313">
        <ele>385.4</ele>
        <time>2022-09-27T12:52:34Z</time>
      </trkpt>
      <trkpt lat="46.1627" lon="5.98313">
        <ele>385.5</ele>
        <time>2022-09-27T12:52:35Z</time>
      </trkpt>
      <trkpt lat="46.16274" lon="5.98312">
        <ele>385.6</ele>
        <time>2022-09-27T12:52:36Z</time>
      </trkpt>
      <trkpt lat="46.16278" lon="5.98312">
        <ele>385.7</ele>
        <time>2022-09-27T12:52:37Z</time>
      </trkpt>
      <trkpt lat="46.16282" lon="5.98313">
        <ele>385.8</ele>
        <time>2022-09-27T12:52:38Z</time>
      </trkpt>
      <trkpt lat="46.16286" lon="5.98313">
        <ele>385.9</ele>
        <time>2022-09-27T12:52:39Z</time>
      </trkpt>
      <trkpt lat="46.16291" lon="5.98314">
        <ele>386</ele>
        <time>2022-09-27T12:52:40Z</time>
      </trkpt>
      <trkpt lat="46.16295" lon="5.98315">
        <ele>386.1</ele>
        <time>2022-09-27T12:52:41Z</time>
      </trkpt>
      <trkpt lat="46.16299" lon="5.98315">
        <ele>386.2</ele>
        <time>2022-09-27T12:52:42Z</time>
      </trkpt>
      <trkpt lat="46.16302" lon="5.98315">
        <ele>386.2</ele>
        <time>2022-09-27T12:52:43Z</time>
      </trkpt>
      <trkpt lat="46.16306" lon="5.98316">
        <ele>386.3</ele>
        <time>2022-09-27T12:52:44Z</time>
      </trkpt>
      <trkpt lat="46.1631" lon="5.98316">
        <ele>386.4</ele>
        <time>2022-09-27T12:52:45Z</time>
      </trkpt>
      <trkpt lat="46.16314" lon="5.98315">
        <ele>386.5</ele>
        <time>2022-09-27T12:52:46Z</time>
      </trkpt>
      <trkpt lat="46.16318" lon="5.98315">
        <ele>386.6</ele>
        <time>2022-09-27T12:52:47Z</time>
      </trkpt>
      <trkpt lat="46.16322" lon="5.98315">
        <ele>386.7</ele>
        <time>2022-09-27T12:52:48Z</time>
      </trkpt>
      <trkpt lat="46.16325" lon="5.98315">
        <ele>386.8</ele>
        <time>2022-09-27T12:52:49Z</time>
      </trkpt>
      <trkpt lat="46.16328" lon="5.98316">
        <ele>386.9</ele>
        <time>2022-09-27T12:52:50Z</time>
      </trkpt>
      <trkpt lat="46.16332" lon="5.98316">
        <ele>387</ele>
        <time>2022-09-27T12:52:51Z</time>
      </trkpt>
      <trkpt lat="46.16335" lon="5.98316">
        <ele>387.1</ele>
        <time>2022-09-27T12:52:52Z</time>
      </trkpt>
      <trkpt lat="46.16339" lon="5.98315">
        <ele>387.2</ele>
        <time>2022-09-27T12:52:53Z</time>
      </trkpt>
      <trkpt lat="46.16342" lon="5.98314">
        <ele>387.3</ele>
        <time>2022-09-27T12:52:54Z</time>
      </trkpt>
      <trkpt lat="46.16345" lon="5.98316">
        <ele>387.4</ele>
        <time>2022-09-27T12:52:55Z</time>
      </trkpt>
      <trkpt lat="46.16349" lon="5.98316">
        <ele>387.5</ele>
        <time>2022-09-27T12:52:56Z</time>
      </trkpt>
      <trkpt lat="46.16352" lon="5.98316">
        <ele>387.5</ele>
        <time>2022-09-27T12:52:57Z</time>
      </trkpt>
      <trkpt lat="46.16355" lon="5.98316">
        <ele>387.6</ele>
        <time>2022-09-27T12:52:58Z</time>
      </trkpt>
      <trkpt lat="46.16359" lon="5.98314">
        <ele>387.7</ele>
        <time>2022-09-27T12:52:59Z</time>
      </trkpt>
      <trkpt lat="46.16362" lon="5.98314">
        <ele>387.7</ele>
        <time>2022-09-27T12:53:00Z</time>
      </trkpt>
      <trkpt lat="46.16366" lon="5.98313">
        <ele>387.8</ele>
        <time>2022-09-27T12:53:01Z</time>
      </trkpt>
      <trkpt lat="46.1637" lon="5.98314">
        <ele>387.8</ele>
        <time>2022-09-27T12:53:02Z</time>
      </trkpt>
      <trkpt lat="46.16374" lon="5.98313">
        <ele>387.8</ele>
        <time>2022-09-27T12:53:03Z</time>
      </trkpt>
      <trkpt lat="46.16378" lon="5.98312">
        <ele>387.9</ele>
        <time>2022-09-27T12:53:04Z</time>
      </trkpt>
      <trkpt lat="46.16382" lon="5.98311">
        <ele>387.9</ele>
        <time>2022-09-27T12:53:05Z</time>
      </trkpt>
      <trkpt lat="46.16386" lon="5.9831">
        <ele>388</ele>
        <time>2022-09-27T12:53:06Z</time>
      </trkpt>
      <trkpt lat="46.16391" lon="5.98309">
        <ele>388</ele>
        <time>2022-09-27T12:53:07Z</time>
      </trkpt>
      <trkpt lat="46.16395" lon="5.98308">
        <ele>388</ele>
        <time>2022-09-27T12:53:08Z</time>
      </trkpt>
      <trkpt lat="46.164" lon="5.98306">
        <ele>388.1</ele>
        <time>2022-09-27T12:53:09Z</time>
      </trkpt>
      <trkpt lat="46.16404" lon="5.98305">
        <ele>388.1</ele>
        <time>2022-09-27T12:53:11Z</time>
      </trkpt>
      <trkpt lat="46.16408" lon="5.98304">
        <ele>388.1</ele>
        <time>2022-09-27T12:53:12Z</time>
      </trkpt>
      <trkpt lat="46.16413" lon="5.98302">
        <ele>388.1</ele>
        <time>2022-09-27T12:53:13Z</time>
      </trkpt>
      <trkpt lat="46.16417" lon="5.98302">
        <ele>388.1</ele>
        <time>2022-09-27T12:53:14Z</time>
      </trkpt>
      <trkpt lat="46.16421" lon="5.98299">
        <ele>388.2</ele>
        <time>2022-09-27T12:53:15Z</time>
      </trkpt>
      <trkpt lat="46.16426" lon="5.98298">
        <ele>388.2</ele>
        <time>2022-09-27T12:53:16Z</time>
      </trkpt>
      <trkpt lat="46.1643" lon="5.98297">
        <ele>388.2</ele>
        <time>2022-09-27T12:53:17Z</time>
      </trkpt>
      <trkpt lat="46.16434" lon="5.98296">
        <ele>388.2</ele>
        <time>2022-09-27T12:53:18Z</time>
      </trkpt>
      <trkpt lat="46.16438" lon="5.98295">
        <ele>388.2</ele>
        <time>2022-09-27T12:53:19Z</time>
      </trkpt>
      <trkpt lat="46.16442" lon="5.98294">
        <ele>388.1</ele>
        <time>2022-09-27T12:53:20Z</time>
      </trkpt>
      <trkpt lat="46.16447" lon="5.98293">
        <ele>388.1</ele>
        <time>2022-09-27T12:53:21Z</time>
      </trkpt>
      <trkpt lat="46.16451" lon="5.9829">
        <ele>388.1</ele>
        <time>2022-09-27T12:53:22Z</time>
      </trkpt>
      <trkpt lat="46.16456" lon="5.98288">
        <ele>388</ele>
        <time>2022-09-27T12:53:23Z</time>
      </trkpt>
      <trkpt lat="46.16462" lon="5.98285">
        <ele>388</ele>
        <time>2022-09-27T12:53:24Z</time>
      </trkpt>
      <trkpt lat="46.16465" lon="5.98284">
        <ele>388</ele>
        <time>2022-09-27T12:53:25Z</time>
      </trkpt>
      <trkpt lat="46.1647" lon="5.98281">
        <ele>388</ele>
        <time>2022-09-27T12:53:26Z</time>
      </trkpt>
      <trkpt lat="46.16475" lon="5.98279">
        <ele>388</ele>
        <time>2022-09-27T12:53:27Z</time>
      </trkpt>
      <trkpt lat="46.1648" lon="5.98276">
        <ele>388</ele>
        <time>2022-09-27T12:53:28Z</time>
      </trkpt>
      <trkpt lat="46.16484" lon="5.98273">
        <ele>388</ele>
        <time>2022-09-27T12:53:29Z</time>
      </trkpt>
      <trkpt lat="46.16489" lon="5.9827">
        <ele>388</ele>
        <time>2022-09-27T12:53:30Z</time>
      </trkpt>
      <trkpt lat="46.16494" lon="5.98267">
        <ele>388</ele>
        <time>2022-09-27T12:53:31Z</time>
      </trkpt>
      <trkpt lat="46.16499" lon="5.98264">
        <ele>388</ele>
        <time>2022-09-27T12:53:32Z</time>
      </trkpt>
      <trkpt lat="46.16504" lon="5.9826">
        <ele>388</ele>
        <time>2022-09-27T12:53:33Z</time>
      </trkpt>
      <trkpt lat="46.16508" lon="5.98259">
        <ele>387.9</ele>
        <time>2022-09-27T12:53:34Z</time>
      </trkpt>
      <trkpt lat="46.16512" lon="5.98257">
        <ele>387.9</ele>
        <time>2022-09-27T12:53:35Z</time>
      </trkpt>
      <trkpt lat="46.16517" lon="5.98255">
        <ele>387.9</ele>
        <time>2022-09-27T12:53:36Z</time>
      </trkpt>
      <trkpt lat="46.16522" lon="5.98253">
        <ele>387.8</ele>
        <time>2022-09-27T12:53:37Z</time>
      </trkpt>
      <trkpt lat="46.16528" lon="5.98252">
        <ele>387.8</ele>
        <time>2022-09-27T12:53:38Z</time>
      </trkpt>
      <trkpt lat="46.16533" lon="5.98251">
        <ele>387.7</ele>
        <time>2022-09-27T12:53:39Z</time>
      </trkpt>
      <trkpt lat="46.16539" lon="5.98251">
        <ele>387.7</ele>
        <time>2022-09-27T12:53:40Z</time>
      </trkpt>
      <trkpt lat="46.16543" lon="5.9825">
        <ele>387.7</ele>
        <time>2022-09-27T12:53:41Z</time>
      </trkpt>
      <trkpt lat="46.16549" lon="5.98247">
        <ele>387.7</ele>
        <time>2022-09-27T12:53:42Z</time>
      </trkpt>
      <trkpt lat="46.16554" lon="5.9825">
        <ele>387.7</ele>
        <time>2022-09-27T12:53:43Z</time>
      </trkpt>
      <trkpt lat="46.16558" lon="5.98248">
        <ele>387.7</ele>
        <time>2022-09-27T12:53:44Z</time>
      </trkpt>
      <trkpt lat="46.16563" lon="5.98248">
        <ele>387.7</ele>
        <time>2022-09-27T12:53:45Z</time>
      </trkpt>
      <trkpt lat="46.16568" lon="5.98248">
        <ele>387.7</ele>
        <time>2022-09-27T12:53:46Z</time>
      </trkpt>
      <trkpt lat="46.16575" lon="5.98249">
        <ele>387.8</ele>
        <time>2022-09-27T12:53:47Z</time>
      </trkpt>
      <trkpt lat="46.16579" lon="5.98248">
        <ele>387.8</ele>
        <time>2022-09-27T12:53:48Z</time>
      </trkpt>
      <trkpt lat="46.16585" lon="5.98248">
        <ele>387.8</ele>
        <time>2022-09-27T12:53:49Z</time>
      </trkpt>
      <trkpt lat="46.16591" lon="5.98247">
        <ele>387.9</ele>
        <time>2022-09-27T12:53:50Z</time>
      </trkpt>
      <trkpt lat="46.16596" lon="5.98248">
        <ele>388</ele>
        <time>2022-09-27T12:53:51Z</time>
      </trkpt>
      <trkpt lat="46.16601" lon="5.98249">
        <ele>388</ele>
        <time>2022-09-27T12:53:52Z</time>
      </trkpt>
      <trkpt lat="46.16605" lon="5.98248">
        <ele>388.1</ele>
        <time>2022-09-27T12:53:53Z</time>
      </trkpt>
      <trkpt lat="46.16609" lon="5.98249">
        <ele>388.2</ele>
        <time>2022-09-27T12:53:54Z</time>
      </trkpt>
      <trkpt lat="46.16613" lon="5.98248">
        <ele>388.3</ele>
        <time>2022-09-27T12:53:55Z</time>
      </trkpt>
      <trkpt lat="46.16617" lon="5.98249">
        <ele>388.3</ele>
        <time>2022-09-27T12:53:56Z</time>
      </trkpt>
      <trkpt lat="46.1662" lon="5.98251">
        <ele>388.4</ele>
        <time>2022-09-27T12:53:57Z</time>
      </trkpt>
      <trkpt lat="46.16624" lon="5.98249">
        <ele>388.5</ele>
        <time>2022-09-27T12:53:58Z</time>
      </trkpt>
      <trkpt lat="46.16627" lon="5.98252">
        <ele>388.6</ele>
        <time>2022-09-27T12:53:59Z</time>
      </trkpt>
      <trkpt lat="46.1663" lon="5.98252">
        <ele>388.7</ele>
        <time>2022-09-27T12:54:00Z</time>
      </trkpt>
      <trkpt lat="46.16633" lon="5.98252">
        <ele>388.8</ele>
        <time>2022-09-27T12:54:01Z</time>
      </trkpt>
      <trkpt lat="46.16637" lon="5.98253">
        <ele>388.9</ele>
        <time>2022-09-27T12:54:02Z</time>
      </trkpt>
      <trkpt lat="46.1664" lon="5.98253">
        <ele>389</ele>
        <time>2022-09-27T12:54:03Z</time>
      </trkpt>
      <trkpt lat="46.16642" lon="5.98254">
        <ele>389.1</ele>
        <time>2022-09-27T12:54:04Z</time>
      </trkpt>
      <trkpt lat="46.16645" lon="5.98254">
        <ele>389.2</ele>
        <time>2022-09-27T12:54:05Z</time>
      </trkpt>
      <trkpt lat="46.16648" lon="5.98255">
        <ele>389.3</ele>
        <time>2022-09-27T12:54:06Z</time>
      </trkpt>
      <trkpt lat="46.16652" lon="5.98254">
        <ele>389.4</ele>
        <time>2022-09-27T12:54:07Z</time>
      </trkpt>
      <trkpt lat="46.16653" lon="5.98254">
        <ele>389.5</ele>
        <time>2022-09-27T12:54:08Z</time>
      </trkpt>
      <trkpt lat="46.16656" lon="5.98255">
        <ele>389.6</ele>
        <time>2022-09-27T12:54:09Z</time>
      </trkpt>
      <trkpt lat="46.16657" lon="5.98256">
        <ele>389.7</ele>
        <time>2022-09-27T12:54:10Z</time>
      </trkpt>
      <trkpt lat="46.16661" lon="5.98256">
        <ele>389.8</ele>
        <time>2022-09-27T12:54:11Z</time>
      </trkpt>
      <trkpt lat="46.16662" lon="5.98256">
        <ele>389.9</ele>
        <time>2022-09-27T12:54:12Z</time>
      </trkpt>
      <trkpt lat="46.16665" lon="5.98256">
        <ele>390</ele>
        <time>2022-09-27T12:54:13Z</time>
      </trkpt>
      <trkpt lat="46.16666" lon="5.98256">
        <ele>390.1</ele>
        <time>2022-09-27T12:54:14Z</time>
      </trkpt>
      <trkpt lat="46.16669" lon="5.98257">
        <ele>390.2</ele>
        <time>2022-09-27T12:54:15Z</time>
      </trkpt>
      <trkpt lat="46.1667" lon="5.98257">
        <ele>390.3</ele>
        <time>2022-09-27T12:54:16Z</time>
      </trkpt>
      <trkpt lat="46.16672" lon="5.98257">
        <ele>390.5</ele>
        <time>2022-09-27T12:54:17Z</time>
      </trkpt>
      <trkpt lat="46.16673" lon="5.98258">
        <ele>390.5</ele>
        <time>2022-09-27T12:54:18Z</time>
      </trkpt>
      <trkpt lat="46.16674" lon="5.98258">
        <ele>390.6</ele>
        <time>2022-09-27T12:54:19Z</time>
      </trkpt>
      <trkpt lat="46.16675" lon="5.98258">
        <ele>390.6</ele>
        <time>2022-09-27T12:54:20Z</time>
      </trkpt>
      <trkpt lat="46.16676" lon="5.98259">
        <ele>390.7</ele>
        <time>2022-09-27T12:54:21Z</time>
      </trkpt>
      <trkpt lat="46.16679" lon="5.98259">
        <ele>390.9</ele>
        <time>2022-09-27T12:54:22Z</time>
      </trkpt>
      <trkpt lat="46.16681" lon="5.98259">
        <ele>391</ele>
        <time>2022-09-27T12:54:23Z</time>
      </trkpt>
      <trkpt lat="46.16684" lon="5.98259">
        <ele>391.2</ele>
        <time>2022-09-27T12:54:24Z</time>
      </trkpt>
      <trkpt lat="46.16687" lon="5.98259">
        <ele>391.4</ele>
        <time>2022-09-27T12:54:25Z</time>
      </trkpt>
      <trkpt lat="46.1669" lon="5.98259">
        <ele>391.5</ele>
        <time>2022-09-27T12:54:26Z</time>
      </trkpt>
      <trkpt lat="46.16693" lon="5.98259">
        <ele>391.7</ele>
        <time>2022-09-27T12:54:27Z</time>
      </trkpt>
      <trkpt lat="46.16695" lon="5.98259">
        <ele>391.8</ele>
        <time>2022-09-27T12:54:28Z</time>
      </trkpt>
      <trkpt lat="46.16698" lon="5.98259">
        <ele>391.9</ele>
        <time>2022-09-27T12:54:29Z</time>
      </trkpt>
      <trkpt lat="46.16701" lon="5.98261">
        <ele>392</ele>
        <time>2022-09-27T12:54:30Z</time>
      </trkpt>
      <trkpt lat="46.16702" lon="5.98261">
        <ele>392.1</ele>
        <time>2022-09-27T12:54:31Z</time>
      </trkpt>
      <trkpt lat="46.16705" lon="5.98262">
        <ele>392.2</ele>
        <time>2022-09-27T12:54:32Z</time>
      </trkpt>
      <trkpt lat="46.16706" lon="5.98263">
        <ele>392.2</ele>
        <time>2022-09-27T12:54:33Z</time>
      </trkpt>
      <trkpt lat="46.16709" lon="5.98263">
        <ele>392.3</ele>
        <time>2022-09-27T12:54:34Z</time>
      </trkpt>
      <trkpt lat="46.16713" lon="5.98263">
        <ele>392.5</ele>
        <time>2022-09-27T12:54:35Z</time>
      </trkpt>
      <trkpt lat="46.16714" lon="5.98264">
        <ele>392.5</ele>
        <time>2022-09-27T12:54:36Z</time>
      </trkpt>
      <trkpt lat="46.16718" lon="5.98265">
        <ele>392.6</ele>
        <time>2022-09-27T12:54:37Z</time>
      </trkpt>
      <trkpt lat="46.16719" lon="5.98265">
        <ele>392.7</ele>
        <time>2022-09-27T12:54:38Z</time>
      </trkpt>
      <trkpt lat="46.16722" lon="5.98266">
        <ele>392.8</ele>
        <time>2022-09-27T12:54:39Z</time>
      </trkpt>
      <trkpt lat="46.16725" lon="5.98268">
        <ele>392.9</ele>
        <time>2022-09-27T12:54:40Z</time>
      </trkpt>
      <trkpt lat="46.16726" lon="5.98268">
        <ele>393</ele>
        <time>2022-09-27T12:54:41Z</time>
      </trkpt>
      <trkpt lat="46.16729" lon="5.98269">
        <ele>393.1</ele>
        <time>2022-09-27T12:54:42Z</time>
      </trkpt>
      <trkpt lat="46.16732" lon="5.98271">
        <ele>393.2</ele>
        <time>2022-09-27T12:54:43Z</time>
      </trkpt>
      <trkpt lat="46.16733" lon="5.98272">
        <ele>393.3</ele>
        <time>2022-09-27T12:54:44Z</time>
      </trkpt>
      <trkpt lat="46.16736" lon="5.98274">
        <ele>393.4</ele>
        <time>2022-09-27T12:54:45Z</time>
      </trkpt>
      <trkpt lat="46.16737" lon="5.98274">
        <ele>393.5</ele>
        <time>2022-09-27T12:54:46Z</time>
      </trkpt>
      <trkpt lat="46.1674" lon="5.98277">
        <ele>393.7</ele>
        <time>2022-09-27T12:54:47Z</time>
      </trkpt>
      <trkpt lat="46.16741" lon="5.98278">
        <ele>393.8</ele>
        <time>2022-09-27T12:54:48Z</time>
      </trkpt>
      <trkpt lat="46.16744" lon="5.98278">
        <ele>394</ele>
        <time>2022-09-27T12:54:49Z</time>
      </trkpt>
      <trkpt lat="46.16747" lon="5.98279">
        <ele>394.2</ele>
        <time>2022-09-27T12:54:50Z</time>
      </trkpt>
      <trkpt lat="46.16748" lon="5.98279">
        <ele>394.2</ele>
        <time>2022-09-27T12:54:51Z</time>
      </trkpt>
      <trkpt lat="46.1675" lon="5.98279">
        <ele>394.3</ele>
        <time>2022-09-27T12:54:52Z</time>
      </trkpt>
      <trkpt lat="46.16751" lon="5.9828">
        <ele>394.4</ele>
        <time>2022-09-27T12:54:53Z</time>
      </trkpt>
      <trkpt lat="46.16753" lon="5.98282">
        <ele>394.6</ele>
        <time>2022-09-27T12:54:54Z</time>
      </trkpt>
      <trkpt lat="46.16754" lon="5.98283">
        <ele>394.6</ele>
        <time>2022-09-27T12:54:55Z</time>
      </trkpt>
      <trkpt lat="46.16757" lon="5.98284">
        <ele>394.9</ele>
        <time>2022-09-27T12:54:56Z</time>
      </trkpt>
      <trkpt lat="46.1676" lon="5.98287">
        <ele>395.1</ele>
        <time>2022-09-27T12:54:57Z</time>
      </trkpt>
      <trkpt lat="46.1676" lon="5.98288">
        <ele>395.2</ele>
        <time>2022-09-27T12:54:58Z</time>
      </trkpt>
      <trkpt lat="46.16762" lon="5.98289">
        <ele>395.3</ele>
        <time>2022-09-27T12:54:59Z</time>
      </trkpt>
      <trkpt lat="46.16763" lon="5.9829">
        <ele>395.4</ele>
        <time>2022-09-27T12:55:00Z</time>
      </trkpt>
      <trkpt lat="46.16765" lon="5.98292">
        <ele>395.8</ele>
        <time>2022-09-27T12:55:01Z</time>
      </trkpt>
      <trkpt lat="46.16766" lon="5.98293">
        <ele>395.9</ele>
        <time>2022-09-27T12:55:02Z</time>
      </trkpt>
      <trkpt lat="46.16768" lon="5.98296">
        <ele>396.1</ele>
        <time>2022-09-27T12:55:03Z</time>
      </trkpt>
      <trkpt lat="46.16769" lon="5.98296">
        <ele>396.2</ele>
        <time>2022-09-27T12:55:04Z</time>
      </trkpt>
      <trkpt lat="46.1677" lon="5.98297">
        <ele>396.3</ele>
        <time>2022-09-27T12:55:05Z</time>
      </trkpt>
      <trkpt lat="46.16771" lon="5.98299">
        <ele>396.5</ele>
        <time>2022-09-27T12:55:06Z</time>
      </trkpt>
      <trkpt lat="46.16774" lon="5.98302">
        <ele>396.8</ele>
        <time>2022-09-27T12:55:07Z</time>
      </trkpt>
      <trkpt lat="46.16774" lon="5.98303">
        <ele>396.9</ele>
        <time>2022-09-27T12:55:08Z</time>
      </trkpt>
      <trkpt lat="46.16775" lon="5.98305">
        <ele>397.1</ele>
        <time>2022-09-27T12:55:09Z</time>
      </trkpt>
      <trkpt lat="46.16776" lon="5.98306">
        <ele>397.2</ele>
        <time>2022-09-27T12:55:10Z</time>
      </trkpt>
      <trkpt lat="46.16777" lon="5.98308">
        <ele>397.4</ele>
        <time>2022-09-27T12:55:11Z</time>
      </trkpt>
      <trkpt lat="46.16778" lon="5.9831">
        <ele>397.5</ele>
        <time>2022-09-27T12:55:12Z</time>
      </trkpt>
      <trkpt lat="46.16779" lon="5.98312">
        <ele>397.7</ele>
        <time>2022-09-27T12:55:13Z</time>
      </trkpt>
      <trkpt lat="46.1678" lon="5.98314">
        <ele>397.8</ele>
        <time>2022-09-27T12:55:14Z</time>
      </trkpt>
      <trkpt lat="46.16781" lon="5.98316">
        <ele>398</ele>
        <time>2022-09-27T12:55:15Z</time>
      </trkpt>
      <trkpt lat="46.16782" lon="5.98318">
        <ele>398.2</ele>
        <time>2022-09-27T12:55:17Z</time>
      </trkpt>
      <trkpt lat="46.16783" lon="5.98321">
        <ele>398.4</ele>
        <time>2022-09-27T12:55:18Z</time>
      </trkpt>
      <trkpt lat="46.16784" lon="5.98322">
        <ele>398.5</ele>
        <time>2022-09-27T12:55:19Z</time>
      </trkpt>
      <trkpt lat="46.16785" lon="5.98326">
        <ele>398.9</ele>
        <time>2022-09-27T12:55:20Z</time>
      </trkpt>
      <trkpt lat="46.16786" lon="5.98327">
        <ele>398.9</ele>
        <time>2022-09-27T12:55:21Z</time>
      </trkpt>
      <trkpt lat="46.16786" lon="5.98331">
        <ele>399.2</ele>
        <time>2022-09-27T12:55:22Z</time>
      </trkpt>
      <trkpt lat="46.16786" lon="5.98333">
        <ele>399.3</ele>
        <time>2022-09-27T12:55:23Z</time>
      </trkpt>
      <trkpt lat="46.16787" lon="5.98335">
        <ele>399.4</ele>
        <time>2022-09-27T12:55:24Z</time>
      </trkpt>
      <trkpt lat="46.16787" lon="5.98337">
        <ele>399.6</ele>
        <time>2022-09-27T12:55:25Z</time>
      </trkpt>
      <trkpt lat="46.16787" lon="5.98341">
        <ele>399.8</ele>
        <time>2022-09-27T12:55:26Z</time>
      </trkpt>
      <trkpt lat="46.16787" lon="5.98343">
        <ele>399.9</ele>
        <time>2022-09-27T12:55:27Z</time>
      </trkpt>
      <trkpt lat="46.16788" lon="5.98347">
        <ele>400.2</ele>
        <time>2022-09-27T12:55:28Z</time>
      </trkpt>
      <trkpt lat="46.16788" lon="5.98349">
        <ele>400.3</ele>
        <time>2022-09-27T12:55:29Z</time>
      </trkpt>
      <trkpt lat="46.16789" lon="5.98353">
        <ele>400.6</ele>
        <time>2022-09-27T12:55:30Z</time>
      </trkpt>
      <trkpt lat="46.16789" lon="5.98354">
        <ele>400.6</ele>
        <time>2022-09-27T12:55:31Z</time>
      </trkpt>
      <trkpt lat="46.1679" lon="5.98359">
        <ele>400.9</ele>
        <time>2022-09-27T12:55:32Z</time>
      </trkpt>
      <trkpt lat="46.1679" lon="5.98361">
        <ele>401</ele>
        <time>2022-09-27T12:55:33Z</time>
      </trkpt>
      <trkpt lat="46.1679" lon="5.98363">
        <ele>401.1</ele>
        <time>2022-09-27T12:55:34Z</time>
      </trkpt>
      <trkpt lat="46.1679" lon="5.98364">
        <ele>401.2</ele>
        <time>2022-09-27T12:55:35Z</time>
      </trkpt>
      <trkpt lat="46.1679" lon="5.98366">
        <ele>401.3</ele>
        <time>2022-09-27T12:55:36Z</time>
      </trkpt>
      <trkpt lat="46.1679" lon="5.98369">
        <ele>401.4</ele>
        <time>2022-09-27T12:55:37Z</time>
      </trkpt>
      <trkpt lat="46.16791" lon="5.98374">
        <ele>401.7</ele>
        <time>2022-09-27T12:55:38Z</time>
      </trkpt>
      <trkpt lat="46.16791" lon="5.98376">
        <ele>401.8</ele>
        <time>2022-09-27T12:55:39Z</time>
      </trkpt>
      <trkpt lat="46.16793" lon="5.9838">
        <ele>402</ele>
        <time>2022-09-27T12:55:40Z</time>
      </trkpt>
      <trkpt lat="46.16793" lon="5.98381">
        <ele>402.1</ele>
        <time>2022-09-27T12:55:41Z</time>
      </trkpt>
      <trkpt lat="46.16794" lon="5.98384">
        <ele>402.3</ele>
        <time>2022-09-27T12:55:42Z</time>
      </trkpt>
      <trkpt lat="46.16794" lon="5.98386">
        <ele>402.4</ele>
        <time>2022-09-27T12:55:43Z</time>
      </trkpt>
      <trkpt lat="46.16795" lon="5.9839">
        <ele>402.6</ele>
        <time>2022-09-27T12:55:44Z</time>
      </trkpt>
      <trkpt lat="46.16795" lon="5.98391">
        <ele>402.6</ele>
        <time>2022-09-27T12:55:45Z</time>
      </trkpt>
      <trkpt lat="46.16796" lon="5.98394">
        <ele>402.8</ele>
        <time>2022-09-27T12:55:46Z</time>
      </trkpt>
      <trkpt lat="46.16796" lon="5.98396">
        <ele>402.9</ele>
        <time>2022-09-27T12:55:47Z</time>
      </trkpt>
      <trkpt lat="46.16796" lon="5.98398">
        <ele>402.9</ele>
        <time>2022-09-27T12:55:48Z</time>
      </trkpt>
      <trkpt lat="46.16796" lon="5.984">
        <ele>403.1</ele>
        <time>2022-09-27T12:55:49Z</time>
      </trkpt>
      <trkpt lat="46.16797" lon="5.98402">
        <ele>403.2</ele>
        <time>2022-09-27T12:55:50Z</time>
      </trkpt>
      <trkpt lat="46.16798" lon="5.98406">
        <ele>403.4</ele>
        <time>2022-09-27T12:55:51Z</time>
      </trkpt>
      <trkpt lat="46.16798" lon="5.98407">
        <ele>403.4</ele>
        <time>2022-09-27T12:55:52Z</time>
      </trkpt>
      <trkpt lat="46.16798" lon="5.98411">
        <ele>403.5</ele>
        <time>2022-09-27T12:55:53Z</time>
      </trkpt>
      <trkpt lat="46.16798" lon="5.98413">
        <ele>403.6</ele>
        <time>2022-09-27T12:55:54Z</time>
      </trkpt>
      <trkpt lat="46.16799" lon="5.98415">
        <ele>403.7</ele>
        <time>2022-09-27T12:55:55Z</time>
      </trkpt>
      <trkpt lat="46.16799" lon="5.98417">
        <ele>403.8</ele>
        <time>2022-09-27T12:55:56Z</time>
      </trkpt>
      <trkpt lat="46.16799" lon="5.98419">
        <ele>403.9</ele>
        <time>2022-09-27T12:55:57Z</time>
      </trkpt>
      <trkpt lat="46.16798" lon="5.98421">
        <ele>404</ele>
        <time>2022-09-27T12:55:58Z</time>
      </trkpt>
      <trkpt lat="46.16799" lon="5.98423">
        <ele>404</ele>
        <time>2022-09-27T12:55:59Z</time>
      </trkpt>
      <trkpt lat="46.16799" lon="5.98426">
        <ele>404</ele>
        <time>2022-09-27T12:56:00Z</time>
      </trkpt>
      <trkpt lat="46.16799" lon="5.98429">
        <ele>404.1</ele>
        <time>2022-09-27T12:56:01Z</time>
      </trkpt>
      <trkpt lat="46.16798" lon="5.9843">
        <ele>404.1</ele>
        <time>2022-09-27T12:56:02Z</time>
      </trkpt>
      <trkpt lat="46.16798" lon="5.98432">
        <ele>404.1</ele>
        <time>2022-09-27T12:56:03Z</time>
      </trkpt>
      <trkpt lat="46.16798" lon="5.98435">
        <ele>404.1</ele>
        <time>2022-09-27T12:56:04Z</time>
      </trkpt>
      <trkpt lat="46.16798" lon="5.98436">
        <ele>404.1</ele>
        <time>2022-09-27T12:56:05Z</time>
      </trkpt>
      <trkpt lat="46.16798" lon="5.98439">
        <ele>404.1</ele>
        <time>2022-09-27T12:56:06Z</time>
      </trkpt>
      <trkpt lat="46.16798" lon="5.98442">
        <ele>404.1</ele>
        <time>2022-09-27T12:56:07Z</time>
      </trkpt>
      <trkpt lat="46.16797" lon="5.98443">
        <ele>404.2</ele>
        <time>2022-09-27T12:56:08Z</time>
      </trkpt>
      <trkpt lat="46.16797" lon="5.98446">
        <ele>404.3</ele>
        <time>2022-09-27T12:56:09Z</time>
      </trkpt>
      <trkpt lat="46.16797" lon="5.98447">
        <ele>404.3</ele>
        <time>2022-09-27T12:56:10Z</time>
      </trkpt>
      <trkpt lat="46.16797" lon="5.98449">
        <ele>404.4</ele>
        <time>2022-09-27T12:56:11Z</time>
      </trkpt>
      <trkpt lat="46.16796" lon="5.98453">
        <ele>404.5</ele>
        <time>2022-09-27T12:56:12Z</time>
      </trkpt>
      <trkpt lat="46.16795" lon="5.98457">
        <ele>404.7</ele>
        <time>2022-09-27T12:56:13Z</time>
      </trkpt>
      <trkpt lat="46.16795" lon="5.98458">
        <ele>404.8</ele>
        <time>2022-09-27T12:56:14Z</time>
      </trkpt>
      <trkpt lat="46.16795" lon="5.98459">
        <ele>404.8</ele>
        <time>2022-09-27T12:56:15Z</time>
      </trkpt>
      <trkpt lat="46.16795" lon="5.98463">
        <ele>404.9</ele>
        <time>2022-09-27T12:56:16Z</time>
      </trkpt>
      <trkpt lat="46.16794" lon="5.98467">
        <ele>405.1</ele>
        <time>2022-09-27T12:56:17Z</time>
      </trkpt>
      <trkpt lat="46.16794" lon="5.98469">
        <ele>405.2</ele>
        <time>2022-09-27T12:56:18Z</time>
      </trkpt>
      <trkpt lat="46.16793" lon="5.98474">
        <ele>405.4</ele>
        <time>2022-09-27T12:56:19Z</time>
      </trkpt>
      <trkpt lat="46.16792" lon="5.98475">
        <ele>405.5</ele>
        <time>2022-09-27T12:56:20Z</time>
      </trkpt>
      <trkpt lat="46.16793" lon="5.98478">
        <ele>405.6</ele>
        <time>2022-09-27T12:56:21Z</time>
      </trkpt>
      <trkpt lat="46.16793" lon="5.9848">
        <ele>405.7</ele>
        <time>2022-09-27T12:56:22Z</time>
      </trkpt>
      <trkpt lat="46.16793" lon="5.98483">
        <ele>405.8</ele>
        <time>2022-09-27T12:56:23Z</time>
      </trkpt>
      <trkpt lat="46.16793" lon="5.98484">
        <ele>405.9</ele>
        <time>2022-09-27T12:56:24Z</time>
      </trkpt>
      <trkpt lat="46.16792" lon="5.98486">
        <ele>406</ele>
        <time>2022-09-27T12:56:25Z</time>
      </trkpt>
      <trkpt lat="46.16792" lon="5.98489">
        <ele>406.1</ele>
        <time>2022-09-27T12:56:26Z</time>
      </trkpt>
      <trkpt lat="46.16792" lon="5.98491">
        <ele>406.2</ele>
        <time>2022-09-27T12:56:27Z</time>
      </trkpt>
      <trkpt lat="46.16792" lon="5.98494">
        <ele>406.3</ele>
        <time>2022-09-27T12:56:28Z</time>
      </trkpt>
      <trkpt lat="46.16791" lon="5.98496">
        <ele>406.5</ele>
        <time>2022-09-27T12:56:29Z</time>
      </trkpt>
      <trkpt lat="46.16791" lon="5.98498">
        <ele>406.5</ele>
        <time>2022-09-27T12:56:30Z</time>
      </trkpt>
      <trkpt lat="46.1679" lon="5.98499">
        <ele>406.6</ele>
        <time>2022-09-27T12:56:31Z</time>
      </trkpt>
      <trkpt lat="46.16788" lon="5.98503">
        <ele>406.8</ele>
        <time>2022-09-27T12:56:32Z</time>
      </trkpt>
      <trkpt lat="46.16788" lon="5.98504">
        <ele>406.9</ele>
        <time>2022-09-27T12:56:33Z</time>
      </trkpt>
      <trkpt lat="46.16787" lon="5.9851">
        <ele>407.1</ele>
        <time>2022-09-27T12:56:34Z</time>
      </trkpt>
      <trkpt lat="46.16787" lon="5.98512">
        <ele>407.3</ele>
        <time>2022-09-27T12:56:35Z</time>
      </trkpt>
      <trkpt lat="46.16787" lon="5.98517">
        <ele>407.4</ele>
        <time>2022-09-27T12:56:36Z</time>
      </trkpt>
      <trkpt lat="46.16787" lon="5.98518">
        <ele>407.5</ele>
        <time>2022-09-27T12:56:37Z</time>
      </trkpt>
      <trkpt lat="46.16786" lon="5.98521">
        <ele>407.6</ele>
        <time>2022-09-27T12:56:38Z</time>
      </trkpt>
      <trkpt lat="46.16787" lon="5.98522">
        <ele>407.7</ele>
        <time>2022-09-27T12:56:39Z</time>
      </trkpt>
      <trkpt lat="46.16787" lon="5.98524">
        <ele>407.8</ele>
        <time>2022-09-27T12:56:40Z</time>
      </trkpt>
      <trkpt lat="46.16786" lon="5.98526">
        <ele>407.8</ele>
        <time>2022-09-27T12:56:41Z</time>
      </trkpt>
      <trkpt lat="46.16786" lon="5.98528">
        <ele>407.9</ele>
        <time>2022-09-27T12:56:42Z</time>
      </trkpt>
      <trkpt lat="46.16786" lon="5.98531">
        <ele>408.1</ele>
        <time>2022-09-27T12:56:43Z</time>
      </trkpt>
      <trkpt lat="46.16785" lon="5.98533">
        <ele>408.1</ele>
        <time>2022-09-27T12:56:44Z</time>
      </trkpt>
      <trkpt lat="46.16785" lon="5.98534">
        <ele>408.2</ele>
        <time>2022-09-27T12:56:45Z</time>
      </trkpt>
      <trkpt lat="46.16785" lon="5.98539">
        <ele>408.4</ele>
        <time>2022-09-27T12:56:46Z</time>
      </trkpt>
      <trkpt lat="46.16785" lon="5.9854">
        <ele>408.4</ele>
        <time>2022-09-27T12:56:47Z</time>
      </trkpt>
      <trkpt lat="46.16784" lon="5.98544">
        <ele>408.6</ele>
        <time>2022-09-27T12:56:48Z</time>
      </trkpt>
      <trkpt lat="46.16783" lon="5.98549">
        <ele>408.8</ele>
        <time>2022-09-27T12:56:49Z</time>
      </trkpt>
      <trkpt lat="46.16782" lon="5.9855">
        <ele>408.9</ele>
        <time>2022-09-27T12:56:50Z</time>
      </trkpt>
      <trkpt lat="46.16781" lon="5.98552">
        <ele>409</ele>
        <time>2022-09-27T12:56:51Z</time>
      </trkpt>
      <trkpt lat="46.16781" lon="5.98554">
        <ele>409</ele>
        <time>2022-09-27T12:56:52Z</time>
      </trkpt>
      <trkpt lat="46.1678" lon="5.98559">
        <ele>409.2</ele>
        <time>2022-09-27T12:56:53Z</time>
      </trkpt>
      <trkpt lat="46.1678" lon="5.9856">
        <ele>409.2</ele>
        <time>2022-09-27T12:56:54Z</time>
      </trkpt>
      <trkpt lat="46.1678" lon="5.98565">
        <ele>409.3</ele>
        <time>2022-09-27T12:56:55Z</time>
      </trkpt>
      <trkpt lat="46.1678" lon="5.98566">
        <ele>409.3</ele>
        <time>2022-09-27T12:56:56Z</time>
      </trkpt>
      <trkpt lat="46.16779" lon="5.9857">
        <ele>409.4</ele>
        <time>2022-09-27T12:56:57Z</time>
      </trkpt>
      <trkpt lat="46.16779" lon="5.98571">
        <ele>409.4</ele>
        <time>2022-09-27T12:56:58Z</time>
      </trkpt>
      <trkpt lat="46.16778" lon="5.98576">
        <ele>409.5</ele>
        <time>2022-09-27T12:56:59Z</time>
      </trkpt>
      <trkpt lat="46.16778" lon="5.98578">
        <ele>409.5</ele>
        <time>2022-09-27T12:57:00Z</time>
      </trkpt>
      <trkpt lat="46.16776" lon="5.98582">
        <ele>409.6</ele>
        <time>2022-09-27T12:57:01Z</time>
      </trkpt>
      <trkpt lat="46.16775" lon="5.98584">
        <ele>409.7</ele>
        <time>2022-09-27T12:57:02Z</time>
      </trkpt>
      <trkpt lat="46.16774" lon="5.98588">
        <ele>409.9</ele>
        <time>2022-09-27T12:57:03Z</time>
      </trkpt>
      <trkpt lat="46.16773" lon="5.98589">
        <ele>410</ele>
        <time>2022-09-27T12:57:04Z</time>
      </trkpt>
      <trkpt lat="46.16772" lon="5.98593">
        <ele>410.1</ele>
        <time>2022-09-27T12:57:05Z</time>
      </trkpt>
      <trkpt lat="46.16771" lon="5.98595">
        <ele>410.2</ele>
        <time>2022-09-27T12:57:06Z</time>
      </trkpt>
      <trkpt lat="46.1677" lon="5.98597">
        <ele>410.3</ele>
        <time>2022-09-27T12:57:07Z</time>
      </trkpt>
      <trkpt lat="46.16769" lon="5.98599">
        <ele>410.4</ele>
        <time>2022-09-27T12:57:08Z</time>
      </trkpt>
      <trkpt lat="46.16768" lon="5.98602">
        <ele>410.5</ele>
        <time>2022-09-27T12:57:09Z</time>
      </trkpt>
      <trkpt lat="46.16767" lon="5.98604">
        <ele>410.6</ele>
        <time>2022-09-27T12:57:10Z</time>
      </trkpt>
      <trkpt lat="46.16766" lon="5.98608">
        <ele>410.7</ele>
        <time>2022-09-27T12:57:11Z</time>
      </trkpt>
      <trkpt lat="46.16765" lon="5.98609">
        <ele>410.8</ele>
        <time>2022-09-27T12:57:12Z</time>
      </trkpt>
      <trkpt lat="46.16764" lon="5.98613">
        <ele>411</ele>
        <time>2022-09-27T12:57:13Z</time>
      </trkpt>
      <trkpt lat="46.16763" lon="5.98614">
        <ele>411</ele>
        <time>2022-09-27T12:57:14Z</time>
      </trkpt>
      <trkpt lat="46.16763" lon="5.98616">
        <ele>411.1</ele>
        <time>2022-09-27T12:57:15Z</time>
      </trkpt>
      <trkpt lat="46.16762" lon="5.98618">
        <ele>411.2</ele>
        <time>2022-09-27T12:57:16Z</time>
      </trkpt>
      <trkpt lat="46.1676" lon="5.98621">
        <ele>411.4</ele>
        <time>2022-09-27T12:57:17Z</time>
      </trkpt>
      <trkpt lat="46.16759" lon="5.98622">
        <ele>411.4</ele>
        <time>2022-09-27T12:57:18Z</time>
      </trkpt>
      <trkpt lat="46.16757" lon="5.98626">
        <ele>411.6</ele>
        <time>2022-09-27T12:57:19Z</time>
      </trkpt>
      <trkpt lat="46.16756" lon="5.98627">
        <ele>411.6</ele>
        <time>2022-09-27T12:57:20Z</time>
      </trkpt>
      <trkpt lat="46.16755" lon="5.98629">
        <ele>411.7</ele>
        <time>2022-09-27T12:57:21Z</time>
      </trkpt>
      <trkpt lat="46.16755" lon="5.98632">
        <ele>411.8</ele>
        <time>2022-09-27T12:57:23Z</time>
      </trkpt>
      <trkpt lat="46.16754" lon="5.98633">
        <ele>411.9</ele>
        <time>2022-09-27T12:57:24Z</time>
      </trkpt>
      <trkpt lat="46.16752" lon="5.98635">
        <ele>412</ele>
        <time>2022-09-27T12:57:25Z</time>
      </trkpt>
      <trkpt lat="46.16751" lon="5.98639">
        <ele>412.2</ele>
        <time>2022-09-27T12:57:26Z</time>
      </trkpt>
      <trkpt lat="46.16751" lon="5.9864">
        <ele>412.2</ele>
        <time>2022-09-27T12:57:27Z</time>
      </trkpt>
      <trkpt lat="46.16749" lon="5.98644">
        <ele>412.4</ele>
        <time>2022-09-27T12:57:28Z</time>
      </trkpt>
      <trkpt lat="46.16748" lon="5.98645">
        <ele>412.4</ele>
        <time>2022-09-27T12:57:29Z</time>
      </trkpt>
      <trkpt lat="46.16746" lon="5.98649">
        <ele>412.6</ele>
        <time>2022-09-27T12:57:30Z</time>
      </trkpt>
      <trkpt lat="46.16745" lon="5.9865">
        <ele>412.6</ele>
        <time>2022-09-27T12:57:31Z</time>
      </trkpt>
      <trkpt lat="46.16744" lon="5.98654">
        <ele>412.8</ele>
        <time>2022-09-27T12:57:32Z</time>
      </trkpt>
      <trkpt lat="46.16742" lon="5.98657">
        <ele>412.9</ele>
        <time>2022-09-27T12:57:33Z</time>
      </trkpt>
      <trkpt lat="46.1674" lon="5.98662">
        <ele>413.1</ele>
        <time>2022-09-27T12:57:34Z</time>
      </trkpt>
      <trkpt lat="46.16739" lon="5.98664">
        <ele>413.1</ele>
        <time>2022-09-27T12:57:35Z</time>
      </trkpt>
      <trkpt lat="46.16736" lon="5.98668">
        <ele>413.2</ele>
        <time>2022-09-27T12:57:36Z</time>
      </trkpt>
      <trkpt lat="46.16736" lon="5.9867">
        <ele>413.3</ele>
        <time>2022-09-27T12:57:37Z</time>
      </trkpt>
      <trkpt lat="46.16735" lon="5.98674">
        <ele>413.4</ele>
        <time>2022-09-27T12:57:38Z</time>
      </trkpt>
      <trkpt lat="46.16733" lon="5.98678">
        <ele>413.5</ele>
        <time>2022-09-27T12:57:39Z</time>
      </trkpt>
      <trkpt lat="46.16733" lon="5.9868">
        <ele>413.5</ele>
        <time>2022-09-27T12:57:40Z</time>
      </trkpt>
      <trkpt lat="46.16732" lon="5.98684">
        <ele>413.6</ele>
        <time>2022-09-27T12:57:41Z</time>
      </trkpt>
      <trkpt lat="46.16731" lon="5.98688">
        <ele>413.7</ele>
        <time>2022-09-27T12:57:42Z</time>
      </trkpt>
      <trkpt lat="46.1673" lon="5.98693">
        <ele>413.8</ele>
        <time>2022-09-27T12:57:43Z</time>
      </trkpt>
      <trkpt lat="46.16729" lon="5.98695">
        <ele>413.9</ele>
        <time>2022-09-27T12:57:44Z</time>
      </trkpt>
      <trkpt lat="46.16728" lon="5.987">
        <ele>414</ele>
        <time>2022-09-27T12:57:45Z</time>
      </trkpt>
      <trkpt lat="46.16728" lon="5.98701">
        <ele>414</ele>
        <time>2022-09-27T12:57:46Z</time>
      </trkpt>
      <trkpt lat="46.16727" lon="5.98706">
        <ele>414.1</ele>
        <time>2022-09-27T12:57:47Z</time>
      </trkpt>
      <trkpt lat="46.16726" lon="5.98708">
        <ele>414.1</ele>
        <time>2022-09-27T12:57:48Z</time>
      </trkpt>
      <trkpt lat="46.16726" lon="5.98712">
        <ele>414.2</ele>
        <time>2022-09-27T12:57:49Z</time>
      </trkpt>
      <trkpt lat="46.16725" lon="5.98714">
        <ele>414.2</ele>
        <time>2022-09-27T12:57:50Z</time>
      </trkpt>
      <trkpt lat="46.16725" lon="5.98719">
        <ele>414.3</ele>
        <time>2022-09-27T12:57:51Z</time>
      </trkpt>
      <trkpt lat="46.16724" lon="5.98721">
        <ele>414.3</ele>
        <time>2022-09-27T12:57:52Z</time>
      </trkpt>
      <trkpt lat="46.16724" lon="5.98726">
        <ele>414.4</ele>
        <time>2022-09-27T12:57:53Z</time>
      </trkpt>
      <trkpt lat="46.16723" lon="5.98728">
        <ele>414.4</ele>
        <time>2022-09-27T12:57:54Z</time>
      </trkpt>
      <trkpt lat="46.16723" lon="5.98733">
        <ele>414.5</ele>
        <time>2022-09-27T12:57:55Z</time>
      </trkpt>
      <trkpt lat="46.16722" lon="5.98734">
        <ele>414.6</ele>
        <time>2022-09-27T12:57:56Z</time>
      </trkpt>
      <trkpt lat="46.16721" lon="5.98738">
        <ele>414.6</ele>
        <time>2022-09-27T12:57:57Z</time>
      </trkpt>
      <trkpt lat="46.1672" lon="5.98742">
        <ele>414.7</ele>
        <time>2022-09-27T12:57:58Z</time>
      </trkpt>
      <trkpt lat="46.16718" lon="5.98747">
        <ele>414.8</ele>
        <time>2022-09-27T12:57:59Z</time>
      </trkpt>
      <trkpt lat="46.16718" lon="5.98749">
        <ele>414.8</ele>
        <time>2022-09-27T12:58:00Z</time>
      </trkpt>
      <trkpt lat="46.16719" lon="5.98754">
        <ele>414.9</ele>
        <time>2022-09-27T12:58:01Z</time>
      </trkpt>
      <trkpt lat="46.16719" lon="5.98756">
        <ele>414.9</ele>
        <time>2022-09-27T12:58:02Z</time>
      </trkpt>
      <trkpt lat="46.16718" lon="5.9876">
        <ele>415</ele>
        <time>2022-09-27T12:58:03Z</time>
      </trkpt>
      <trkpt lat="46.16718" lon="5.98761">
        <ele>415</ele>
        <time>2022-09-27T12:58:04Z</time>
      </trkpt>
      <trkpt lat="46.16718" lon="5.98767">
        <ele>415.1</ele>
        <time>2022-09-27T12:58:05Z</time>
      </trkpt>
      <trkpt lat="46.16718" lon="5.98768">
        <ele>415.1</ele>
        <time>2022-09-27T12:58:06Z</time>
      </trkpt>
      <trkpt lat="46.16717" lon="5.98772">
        <ele>415.2</ele>
        <time>2022-09-27T12:58:07Z</time>
      </trkpt>
      <trkpt lat="46.16717" lon="5.98777">
        <ele>415.2</ele>
        <time>2022-09-27T12:58:08Z</time>
      </trkpt>
      <trkpt lat="46.16717" lon="5.98778">
        <ele>415.2</ele>
        <time>2022-09-27T12:58:09Z</time>
      </trkpt>
      <trkpt lat="46.16717" lon="5.98784">
        <ele>415.3</ele>
        <time>2022-09-27T12:58:10Z</time>
      </trkpt>
      <trkpt lat="46.16717" lon="5.98786">
        <ele>415.3</ele>
        <time>2022-09-27T12:58:11Z</time>
      </trkpt>
      <trkpt lat="46.16717" lon="5.9879">
        <ele>415.3</ele>
        <time>2022-09-27T12:58:12Z</time>
      </trkpt>
      <trkpt lat="46.16717" lon="5.98795">
        <ele>415.3</ele>
        <time>2022-09-27T12:58:13Z</time>
      </trkpt>
      <trkpt lat="46.16717" lon="5.98799">
        <ele>415.4</ele>
        <time>2022-09-27T12:58:14Z</time>
      </trkpt>
      <trkpt lat="46.16717" lon="5.98804">
        <ele>415.4</ele>
        <time>2022-09-27T12:58:15Z</time>
      </trkpt>
      <trkpt lat="46.16718" lon="5.98809">
        <ele>415.4</ele>
        <time>2022-09-27T12:58:16Z</time>
      </trkpt>
      <trkpt lat="46.16719" lon="5.98814">
        <ele>415.5</ele>
        <time>2022-09-27T12:58:17Z</time>
      </trkpt>
      <trkpt lat="46.16719" lon="5.98818">
        <ele>415.5</ele>
        <time>2022-09-27T12:58:18Z</time>
      </trkpt>
      <trkpt lat="46.16719" lon="5.98823">
        <ele>415.5</ele>
        <time>2022-09-27T12:58:19Z</time>
      </trkpt>
      <trkpt lat="46.16719" lon="5.98827">
        <ele>415.6</ele>
        <time>2022-09-27T12:58:20Z</time>
      </trkpt>
      <trkpt lat="46.16719" lon="5.98832">
        <ele>415.6</ele>
        <time>2022-09-27T12:58:21Z</time>
      </trkpt>
      <trkpt lat="46.1672" lon="5.98836">
        <ele>415.6</ele>
        <time>2022-09-27T12:58:22Z</time>
      </trkpt>
      <trkpt lat="46.16719" lon="5.98842">
        <ele>415.7</ele>
        <time>2022-09-27T12:58:23Z</time>
      </trkpt>
      <trkpt lat="46.1672" lon="5.98845">
        <ele>415.7</ele>
        <time>2022-09-27T12:58:24Z</time>
      </trkpt>
      <trkpt lat="46.1672" lon="5.98852">
        <ele>415.7</ele>
        <time>2022-09-27T12:58:25Z</time>
      </trkpt>
      <trkpt lat="46.16721" lon="5.98857">
        <ele>415.8</ele>
        <time>2022-09-27T12:58:26Z</time>
      </trkpt>
      <trkpt lat="46.16721" lon="5.98863">
        <ele>415.8</ele>
        <time>2022-09-27T12:58:27Z</time>
      </trkpt>
      <trkpt lat="46.16722" lon="5.98868">
        <ele>415.8</ele>
        <time>2022-09-27T12:58:28Z</time>
      </trkpt>
      <trkpt lat="46.16722" lon="5.98873">
        <ele>415.9</ele>
        <time>2022-09-27T12:58:29Z</time>
      </trkpt>
      <trkpt lat="46.16722" lon="5.98879">
        <ele>415.9</ele>
        <time>2022-09-27T12:58:30Z</time>
      </trkpt>
      <trkpt lat="46.16723" lon="5.98883">
        <ele>415.9</ele>
        <time>2022-09-27T12:58:31Z</time>
      </trkpt>
      <trkpt lat="46.16723" lon="5.98889">
        <ele>415.9</ele>
        <time>2022-09-27T12:58:32Z</time>
      </trkpt>
      <trkpt lat="46.16723" lon="5.98891">
        <ele>415.9</ele>
        <time>2022-09-27T12:58:33Z</time>
      </trkpt>
      <trkpt lat="46.16724" lon="5.98896">
        <ele>416</ele>
        <time>2022-09-27T12:58:34Z</time>
      </trkpt>
      <trkpt lat="46.16724" lon="5.98901">
        <ele>416</ele>
        <time>2022-09-27T12:58:35Z</time>
      </trkpt>
      <trkpt lat="46.16724" lon="5.98906">
        <ele>416</ele>
        <time>2022-09-27T12:58:36Z</time>
      </trkpt>
      <trkpt lat="46.16725" lon="5.98912">
        <ele>416</ele>
        <time>2022-09-27T12:58:37Z</time>
      </trkpt>
      <trkpt lat="46.16726" lon="5.98916">
        <ele>416</ele>
        <time>2022-09-27T12:58:38Z</time>
      </trkpt>
      <trkpt lat="46.16727" lon="5.98921">
        <ele>416</ele>
        <time>2022-09-27T12:58:39Z</time>
      </trkpt>
      <trkpt lat="46.16727" lon="5.98926">
        <ele>416</ele>
        <time>2022-09-27T12:58:40Z</time>
      </trkpt>
      <trkpt lat="46.16729" lon="5.98932">
        <ele>416.1</ele>
        <time>2022-09-27T12:58:41Z</time>
      </trkpt>
      <trkpt lat="46.1673" lon="5.98944">
        <ele>416.1</ele>
        <time>2022-09-27T12:58:42Z</time>
      </trkpt>
      <trkpt lat="46.16731" lon="5.9895">
        <ele>416.1</ele>
        <time>2022-09-27T12:58:43Z</time>
      </trkpt>
      <trkpt lat="46.16733" lon="5.98956">
        <ele>416.1</ele>
        <time>2022-09-27T12:58:44Z</time>
      </trkpt>
      <trkpt lat="46.16735" lon="5.9896">
        <ele>416.1</ele>
        <time>2022-09-27T12:58:45Z</time>
      </trkpt>
      <trkpt lat="46.16736" lon="5.98966">
        <ele>416.1</ele>
        <time>2022-09-27T12:58:46Z</time>
      </trkpt>
      <trkpt lat="46.16736" lon="5.9897">
        <ele>416.1</ele>
        <time>2022-09-27T12:58:47Z</time>
      </trkpt>
      <trkpt lat="46.16736" lon="5.98976">
        <ele>416.2</ele>
        <time>2022-09-27T12:58:48Z</time>
      </trkpt>
      <trkpt lat="46.16737" lon="5.9898">
        <ele>416.2</ele>
        <time>2022-09-27T12:58:49Z</time>
      </trkpt>
      <trkpt lat="46.16737" lon="5.98985">
        <ele>416.2</ele>
        <time>2022-09-27T12:58:50Z</time>
      </trkpt>
      <trkpt lat="46.16739" lon="5.98991">
        <ele>416.2</ele>
        <time>2022-09-27T12:58:51Z</time>
      </trkpt>
      <trkpt lat="46.1674" lon="5.98997">
        <ele>416.2</ele>
        <time>2022-09-27T12:58:52Z</time>
      </trkpt>
      <trkpt lat="46.16741" lon="5.99003">
        <ele>416.2</ele>
        <time>2022-09-27T12:58:53Z</time>
      </trkpt>
      <trkpt lat="46.16743" lon="5.99009">
        <ele>416.2</ele>
        <time>2022-09-27T12:58:54Z</time>
      </trkpt>
      <trkpt lat="46.16743" lon="5.99015">
        <ele>416.2</ele>
        <time>2022-09-27T12:58:55Z</time>
      </trkpt>
      <trkpt lat="46.16744" lon="5.99021">
        <ele>416.2</ele>
        <time>2022-09-27T12:58:56Z</time>
      </trkpt>
      <trkpt lat="46.16745" lon="5.99027">
        <ele>416.2</ele>
        <time>2022-09-27T12:58:57Z</time>
      </trkpt>
      <trkpt lat="46.16745" lon="5.99032">
        <ele>416.2</ele>
        <time>2022-09-27T12:58:58Z</time>
      </trkpt>
      <trkpt lat="46.16747" lon="5.99037">
        <ele>416.1</ele>
        <time>2022-09-27T12:58:59Z</time>
      </trkpt>
      <trkpt lat="46.16748" lon="5.99042">
        <ele>416.1</ele>
        <time>2022-09-27T12:59:00Z</time>
      </trkpt>
      <trkpt lat="46.1675" lon="5.99048">
        <ele>416.1</ele>
        <time>2022-09-27T12:59:01Z</time>
      </trkpt>
      <trkpt lat="46.16751" lon="5.99055">
        <ele>416.1</ele>
        <time>2022-09-27T12:59:02Z</time>
      </trkpt>
      <trkpt lat="46.16752" lon="5.99061">
        <ele>416.1</ele>
        <time>2022-09-27T12:59:03Z</time>
      </trkpt>
      <trkpt lat="46.16753" lon="5.99067">
        <ele>416.1</ele>
        <time>2022-09-27T12:59:04Z</time>
      </trkpt>
      <trkpt lat="46.16753" lon="5.99073">
        <ele>416.1</ele>
        <time>2022-09-27T12:59:05Z</time>
      </trkpt>
      <trkpt lat="46.16754" lon="5.9908">
        <ele>416.1</ele>
        <time>2022-09-27T12:59:06Z</time>
      </trkpt>
      <trkpt lat="46.16755" lon="5.99086">
        <ele>416.1</ele>
        <time>2022-09-27T12:59:07Z</time>
      </trkpt>
      <trkpt lat="46.16756" lon="5.99092">
        <ele>416.1</ele>
        <time>2022-09-27T12:59:08Z</time>
      </trkpt>
      <trkpt lat="46.16757" lon="5.99098">
        <ele>416.1</ele>
        <time>2022-09-27T12:59:09Z</time>
      </trkpt>
      <trkpt lat="46.16758" lon="5.99104">
        <ele>416.1</ele>
        <time>2022-09-27T12:59:10Z</time>
      </trkpt>
      <trkpt lat="46.16759" lon="5.99111">
        <ele>416.1</ele>
        <time>2022-09-27T12:59:11Z</time>
      </trkpt>
      <trkpt lat="46.16759" lon="5.99117">
        <ele>416.1</ele>
        <time>2022-09-27T12:59:12Z</time>
      </trkpt>
      <trkpt lat="46.1676" lon="5.99123">
        <ele>416.1</ele>
        <time>2022-09-27T12:59:13Z</time>
      </trkpt>
      <trkpt lat="46.16762" lon="5.9913">
        <ele>416.1</ele>
        <time>2022-09-27T12:59:14Z</time>
      </trkpt>
      <trkpt lat="46.16763" lon="5.99137">
        <ele>416</ele>
        <time>2022-09-27T12:59:15Z</time>
      </trkpt>
      <trkpt lat="46.16764" lon="5.99143">
        <ele>416</ele>
        <time>2022-09-27T12:59:16Z</time>
      </trkpt>
      <trkpt lat="46.16765" lon="5.99149">
        <ele>416</ele>
        <time>2022-09-27T12:59:17Z</time>
      </trkpt>
      <trkpt lat="46.16766" lon="5.99156">
        <ele>416</ele>
        <time>2022-09-27T12:59:18Z</time>
      </trkpt>
      <trkpt lat="46.16767" lon="5.99161">
        <ele>416</ele>
        <time>2022-09-27T12:59:19Z</time>
      </trkpt>
      <trkpt lat="46.16768" lon="5.99166">
        <ele>415.9</ele>
        <time>2022-09-27T12:59:20Z</time>
      </trkpt>
      <trkpt lat="46.16769" lon="5.99173">
        <ele>415.9</ele>
        <time>2022-09-27T12:59:21Z</time>
      </trkpt>
      <trkpt lat="46.16771" lon="5.9918">
        <ele>415.9</ele>
        <time>2022-09-27T12:59:22Z</time>
      </trkpt>
      <trkpt lat="46.16773" lon="5.99186">
        <ele>415.9</ele>
        <time>2022-09-27T12:59:23Z</time>
      </trkpt>
      <trkpt lat="46.16775" lon="5.99193">
        <ele>415.9</ele>
        <time>2022-09-27T12:59:24Z</time>
      </trkpt>
      <trkpt lat="46.16777" lon="5.99199">
        <ele>415.8</ele>
        <time>2022-09-27T12:59:25Z</time>
      </trkpt>
      <trkpt lat="46.16779" lon="5.99206">
        <ele>415.8</ele>
        <time>2022-09-27T12:59:26Z</time>
      </trkpt>
      <trkpt lat="46.1678" lon="5.99212">
        <ele>415.8</ele>
        <time>2022-09-27T12:59:27Z</time>
      </trkpt>
      <trkpt lat="46.16783" lon="5.99219">
        <ele>415.8</ele>
        <time>2022-09-27T12:59:29Z</time>
      </trkpt>
      <trkpt lat="46.16786" lon="5.99225">
        <ele>415.7</ele>
        <time>2022-09-27T12:59:30Z</time>
      </trkpt>
      <trkpt lat="46.16789" lon="5.99231">
        <ele>415.7</ele>
        <time>2022-09-27T12:59:31Z</time>
      </trkpt>
      <trkpt lat="46.16792" lon="5.99238">
        <ele>415.7</ele>
        <time>2022-09-27T12:59:32Z</time>
      </trkpt>
      <trkpt lat="46.16795" lon="5.99244">
        <ele>415.7</ele>
        <time>2022-09-27T12:59:33Z</time>
      </trkpt>
      <trkpt lat="46.16798" lon="5.99251">
        <ele>415.6</ele>
        <time>2022-09-27T12:59:34Z</time>
      </trkpt>
      <trkpt lat="46.16801" lon="5.99257">
        <ele>415.6</ele>
        <time>2022-09-27T12:59:35Z</time>
      </trkpt>
      <trkpt lat="46.16804" lon="5.99264">
        <ele>415.6</ele>
        <time>2022-09-27T12:59:36Z</time>
      </trkpt>
      <trkpt lat="46.16807" lon="5.99271">
        <ele>415.6</ele>
        <time>2022-09-27T12:59:37Z</time>
      </trkpt>
      <trkpt lat="46.1681" lon="5.99277">
        <ele>415.5</ele>
        <time>2022-09-27T12:59:38Z</time>
      </trkpt>
      <trkpt lat="46.16812" lon="5.99284">
        <ele>415.5</ele>
        <time>2022-09-27T12:59:39Z</time>
      </trkpt>
      <trkpt lat="46.16815" lon="5.99291">
        <ele>415.5</ele>
        <time>2022-09-27T12:59:40Z</time>
      </trkpt>
      <trkpt lat="46.16819" lon="5.99298">
        <ele>415.5</ele>
        <time>2022-09-27T12:59:41Z</time>
      </trkpt>
      <trkpt lat="46.16822" lon="5.99304">
        <ele>415.5</ele>
        <time>2022-09-27T12:59:42Z</time>
      </trkpt>
      <trkpt lat="46.16824" lon="5.99311">
        <ele>415.4</ele>
        <time>2022-09-27T12:59:43Z</time>
      </trkpt>
      <trkpt lat="46.16827" lon="5.99318">
        <ele>415.4</ele>
        <time>2022-09-27T12:59:44Z</time>
      </trkpt>
      <trkpt lat="46.1683" lon="5.99325">
        <ele>415.4</ele>
        <time>2022-09-27T12:59:45Z</time>
      </trkpt>
      <trkpt lat="46.16832" lon="5.99332">
        <ele>415.4</ele>
        <time>2022-09-27T12:59:46Z</time>
      </trkpt>
      <trkpt lat="46.16834" lon="5.99338">
        <ele>415.3</ele>
        <time>2022-09-27T12:59:47Z</time>
      </trkpt>
      <trkpt lat="46.16837" lon="5.99345">
        <ele>415.3</ele>
        <time>2022-09-27T12:59:48Z</time>
      </trkpt>
      <trkpt lat="46.1684" lon="5.99353">
        <ele>415.3</ele>
        <time>2022-09-27T12:59:49Z</time>
      </trkpt>
      <trkpt lat="46.16841" lon="5.9936">
        <ele>415.2</ele>
        <time>2022-09-27T12:59:50Z</time>
      </trkpt>
      <trkpt lat="46.16843" lon="5.99367">
        <ele>415.2</ele>
        <time>2022-09-27T12:59:51Z</time>
      </trkpt>
      <trkpt lat="46.16844" lon="5.99375">
        <ele>415.2</ele>
        <time>2022-09-27T12:59:52Z</time>
      </trkpt>
      <trkpt lat="46.16845" lon="5.99383">
        <ele>415.1</ele>
        <time>2022-09-27T12:59:53Z</time>
      </trkpt>
      <trkpt lat="46.16846" lon="5.99391">
        <ele>415.1</ele>
        <time>2022-09-27T12:59:54Z</time>
      </trkpt>
      <trkpt lat="46.16847" lon="5.99399">
        <ele>415.1</ele>
        <time>2022-09-27T12:59:55Z</time>
      </trkpt>
      <trkpt lat="46.16847" lon="5.99407">
        <ele>415.1</ele>
        <time>2022-09-27T12:59:56Z</time>
      </trkpt>
      <trkpt lat="46.16847" lon="5.99415">
        <ele>415.1</ele>
        <time>2022-09-27T12:59:57Z</time>
      </trkpt>
      <trkpt lat="46.16848" lon="5.99424">
        <ele>415.1</ele>
        <time>2022-09-27T12:59:58Z</time>
      </trkpt>
      <trkpt lat="46.16848" lon="5.99431">
        <ele>415.1</ele>
        <time>2022-09-27T12:59:59Z</time>
      </trkpt>
      <trkpt lat="46.16848" lon="5.99439">
        <ele>415.1</ele>
        <time>2022-09-27T13:00:00Z</time>
      </trkpt>
      <trkpt lat="46.16848" lon="5.99447">
        <ele>415.1</ele>
        <time>2022-09-27T13:00:01Z</time>
      </trkpt>
      <trkpt lat="46.16848" lon="5.99454">
        <ele>415.1</ele>
        <time>2022-09-27T13:00:02Z</time>
      </trkpt>
      <trkpt lat="46.16849" lon="5.99462">
        <ele>415.1</ele>
        <time>2022-09-27T13:00:03Z</time>
      </trkpt>
      <trkpt lat="46.1685" lon="5.99469">
        <ele>415.2</ele>
        <time>2022-09-27T13:00:04Z</time>
      </trkpt>
      <trkpt lat="46.16851" lon="5.99477">
        <ele>415.2</ele>
        <time>2022-09-27T13:00:05Z</time>
      </trkpt>
      <trkpt lat="46.1685" lon="5.99485">
        <ele>415.2</ele>
        <time>2022-09-27T13:00:06Z</time>
      </trkpt>
      <trkpt lat="46.1685" lon="5.99493">
        <ele>415.2</ele>
        <time>2022-09-27T13:00:07Z</time>
      </trkpt>
      <trkpt lat="46.1685" lon="5.99501">
        <ele>415.2</ele>
        <time>2022-09-27T13:00:08Z</time>
      </trkpt>
      <trkpt lat="46.1685" lon="5.99508">
        <ele>415.3</ele>
        <time>2022-09-27T13:00:09Z</time>
      </trkpt>
      <trkpt lat="46.1685" lon="5.99515">
        <ele>415.3</ele>
        <time>2022-09-27T13:00:10Z</time>
      </trkpt>
      <trkpt lat="46.16851" lon="5.99523">
        <ele>415.4</ele>
        <time>2022-09-27T13:00:11Z</time>
      </trkpt>
      <trkpt lat="46.1685" lon="5.99531">
        <ele>415.4</ele>
        <time>2022-09-27T13:00:12Z</time>
      </trkpt>
      <trkpt lat="46.16851" lon="5.99537">
        <ele>415.5</ele>
        <time>2022-09-27T13:00:13Z</time>
      </trkpt>
      <trkpt lat="46.16851" lon="5.99544">
        <ele>415.5</ele>
        <time>2022-09-27T13:00:14Z</time>
      </trkpt>
      <trkpt lat="46.16851" lon="5.99552">
        <ele>415.5</ele>
        <time>2022-09-27T13:00:15Z</time>
      </trkpt>
      <trkpt lat="46.1685" lon="5.99559">
        <ele>415.6</ele>
        <time>2022-09-27T13:00:16Z</time>
      </trkpt>
      <trkpt lat="46.1685" lon="5.99566">
        <ele>415.6</ele>
        <time>2022-09-27T13:00:17Z</time>
      </trkpt>
      <trkpt lat="46.1685" lon="5.99573">
        <ele>415.6</ele>
        <time>2022-09-27T13:00:18Z</time>
      </trkpt>
      <trkpt lat="46.16849" lon="5.99579">
        <ele>415.6</ele>
        <time>2022-09-27T13:00:19Z</time>
      </trkpt>
      <trkpt lat="46.16847" lon="5.99586">
        <ele>415.6</ele>
        <time>2022-09-27T13:00:20Z</time>
      </trkpt>
      <trkpt lat="46.16845" lon="5.99592">
        <ele>415.6</ele>
        <time>2022-09-27T13:00:21Z</time>
      </trkpt>
      <trkpt lat="46.16844" lon="5.99598">
        <ele>415.6</ele>
        <time>2022-09-27T13:00:22Z</time>
      </trkpt>
      <trkpt lat="46.16843" lon="5.99604">
        <ele>415.7</ele>
        <time>2022-09-27T13:00:23Z</time>
      </trkpt>
      <trkpt lat="46.1684" lon="5.99609">
        <ele>415.8</ele>
        <time>2022-09-27T13:00:24Z</time>
      </trkpt>
      <trkpt lat="46.16838" lon="5.99614">
        <ele>415.9</ele>
        <time>2022-09-27T13:00:25Z</time>
      </trkpt>
      <trkpt lat="46.16836" lon="5.99619">
        <ele>415.9</ele>
        <time>2022-09-27T13:00:26Z</time>
      </trkpt>
      <trkpt lat="46.16834" lon="5.99624">
        <ele>415.4</ele>
        <time>2022-09-27T13:00:27Z</time>
      </trkpt>
      <trkpt lat="46.16835" lon="5.99628">
        <ele>415.2</ele>
        <time>2022-09-27T13:00:28Z</time>
      </trkpt>
      <trkpt lat="46.16836" lon="5.99634">
        <ele>415.4</ele>
        <time>2022-09-27T13:00:29Z</time>
      </trkpt>
      <trkpt lat="46.16839" lon="5.99639">
        <ele>415.6</ele>
        <time>2022-09-27T13:00:30Z</time>
      </trkpt>
      <trkpt lat="46.16841" lon="5.99643">
        <ele>415.7</ele>
        <time>2022-09-27T13:00:31Z</time>
      </trkpt>
      <trkpt lat="46.16843" lon="5.99648">
        <ele>415.8</ele>
        <time>2022-09-27T13:00:32Z</time>
      </trkpt>
      <trkpt lat="46.16843" lon="5.9965">
        <ele>415.9</ele>
        <time>2022-09-27T13:00:33Z</time>
      </trkpt>
      <trkpt lat="46.16844" lon="5.99654">
        <ele>416</ele>
        <time>2022-09-27T13:00:34Z</time>
      </trkpt>
      <trkpt lat="46.16844" lon="5.99658">
        <ele>416.2</ele>
        <time>2022-09-27T13:00:35Z</time>
      </trkpt>
      <trkpt lat="46.16845" lon="5.99664">
        <ele>416.4</ele>
        <time>2022-09-27T13:00:36Z</time>
      </trkpt>
      <trkpt lat="46.16846" lon="5.99667">
        <ele>416.6</ele>
        <time>2022-09-27T13:00:37Z</time>
      </trkpt>
      <trkpt lat="46.16847" lon="5.99671">
        <ele>416.7</ele>
        <time>2022-09-27T13:00:38Z</time>
      </trkpt>
      <trkpt lat="46.16848" lon="5.99675">
        <ele>416.9</ele>
        <time>2022-09-27T13:00:39Z</time>
      </trkpt>
      <trkpt lat="46.16849" lon="5.9968">
        <ele>417.1</ele>
        <time>2022-09-27T13:00:40Z</time>
      </trkpt>
      <trkpt lat="46.1685" lon="5.99681">
        <ele>417.2</ele>
        <time>2022-09-27T13:00:41Z</time>
      </trkpt>
      <trkpt lat="46.16851" lon="5.99686">
        <ele>417.3</ele>
        <time>2022-09-27T13:00:42Z</time>
      </trkpt>
      <trkpt lat="46.16852" lon="5.99689">
        <ele>417.5</ele>
        <time>2022-09-27T13:00:43Z</time>
      </trkpt>
      <trkpt lat="46.16853" lon="5.99693">
        <ele>417.6</ele>
        <time>2022-09-27T13:00:44Z</time>
      </trkpt>
      <trkpt lat="46.16853" lon="5.99697">
        <ele>417.7</ele>
        <time>2022-09-27T13:00:45Z</time>
      </trkpt>
      <trkpt lat="46.16854" lon="5.99701">
        <ele>417.8</ele>
        <time>2022-09-27T13:00:46Z</time>
      </trkpt>
      <trkpt lat="46.16856" lon="5.99706">
        <ele>417.9</ele>
        <time>2022-09-27T13:00:47Z</time>
      </trkpt>
      <trkpt lat="46.16858" lon="5.99709">
        <ele>418.1</ele>
        <time>2022-09-27T13:00:48Z</time>
      </trkpt>
      <trkpt lat="46.1686" lon="5.99714">
        <ele>418.2</ele>
        <time>2022-09-27T13:00:49Z</time>
      </trkpt>
      <trkpt lat="46.16861" lon="5.99718">
        <ele>418.3</ele>
        <time>2022-09-27T13:00:50Z</time>
      </trkpt>
      <trkpt lat="46.16863" lon="5.99726">
        <ele>418.5</ele>
        <time>2022-09-27T13:00:51Z</time>
      </trkpt>
      <trkpt lat="46.16864" lon="5.99731">
        <ele>418.7</ele>
        <time>2022-09-27T13:00:52Z</time>
      </trkpt>
      <trkpt lat="46.16866" lon="5.99735">
        <ele>418.8</ele>
        <time>2022-09-27T13:00:53Z</time>
      </trkpt>
      <trkpt lat="46.16867" lon="5.99739">
        <ele>418.9</ele>
        <time>2022-09-27T13:00:54Z</time>
      </trkpt>
      <trkpt lat="46.16868" lon="5.99743">
        <ele>419.1</ele>
        <time>2022-09-27T13:00:55Z</time>
      </trkpt>
      <trkpt lat="46.16869" lon="5.99747">
        <ele>419.2</ele>
        <time>2022-09-27T13:00:56Z</time>
      </trkpt>
      <trkpt lat="46.1687" lon="5.99752">
        <ele>419.3</ele>
        <time>2022-09-27T13:00:57Z</time>
      </trkpt>
      <trkpt lat="46.16871" lon="5.99756">
        <ele>419.5</ele>
        <time>2022-09-27T13:00:58Z</time>
      </trkpt>
      <trkpt lat="46.16873" lon="5.99761">
        <ele>419.6</ele>
        <time>2022-09-27T13:00:59Z</time>
      </trkpt>
      <trkpt lat="46.16874" lon="5.99765">
        <ele>419.7</ele>
        <time>2022-09-27T13:01:00Z</time>
      </trkpt>
      <trkpt lat="46.16875" lon="5.99769">
        <ele>419.9</ele>
        <time>2022-09-27T13:01:01Z</time>
      </trkpt>
      <trkpt lat="46.16875" lon="5.99775">
        <ele>420</ele>
        <time>2022-09-27T13:01:02Z</time>
      </trkpt>
      <trkpt lat="46.16876" lon="5.99778">
        <ele>420.1</ele>
        <time>2022-09-27T13:01:03Z</time>
      </trkpt>
      <trkpt lat="46.16877" lon="5.99782">
        <ele>420.2</ele>
        <time>2022-09-27T13:01:04Z</time>
      </trkpt>
      <trkpt lat="46.16878" lon="5.99786">
        <ele>420.3</ele>
        <time>2022-09-27T13:01:05Z</time>
      </trkpt>
      <trkpt lat="46.16879" lon="5.9979">
        <ele>420.5</ele>
        <time>2022-09-27T13:01:06Z</time>
      </trkpt>
      <trkpt lat="46.16879" lon="5.99795">
        <ele>420.6</ele>
        <time>2022-09-27T13:01:07Z</time>
      </trkpt>
      <trkpt lat="46.1688" lon="5.99799">
        <ele>420.7</ele>
        <time>2022-09-27T13:01:08Z</time>
      </trkpt>
      <trkpt lat="46.16881" lon="5.99803">
        <ele>420.8</ele>
        <time>2022-09-27T13:01:09Z</time>
      </trkpt>
      <trkpt lat="46.16882" lon="5.99807">
        <ele>420.9</ele>
        <time>2022-09-27T13:01:10Z</time>
      </trkpt>
      <trkpt lat="46.16883" lon="5.99812">
        <ele>421</ele>
        <time>2022-09-27T13:01:11Z</time>
      </trkpt>
      <trkpt lat="46.16884" lon="5.99816">
        <ele>421.1</ele>
        <time>2022-09-27T13:01:12Z</time>
      </trkpt>
      <trkpt lat="46.16885" lon="5.9982">
        <ele>421.2</ele>
        <time>2022-09-27T13:01:13Z</time>
      </trkpt>
      <trkpt lat="46.16887" lon="5.99825">
        <ele>421.3</ele>
        <time>2022-09-27T13:01:14Z</time>
      </trkpt>
      <trkpt lat="46.16887" lon="5.99831">
        <ele>421.5</ele>
        <time>2022-09-27T13:01:15Z</time>
      </trkpt>
      <trkpt lat="46.16887" lon="5.99833">
        <ele>421.5</ele>
        <time>2022-09-27T13:01:16Z</time>
      </trkpt>
      <trkpt lat="46.16888" lon="5.99837">
        <ele>421.6</ele>
        <time>2022-09-27T13:01:17Z</time>
      </trkpt>
      <trkpt lat="46.16888" lon="5.99841">
        <ele>421.7</ele>
        <time>2022-09-27T13:01:18Z</time>
      </trkpt>
      <trkpt lat="46.16889" lon="5.99846">
        <ele>421.7</ele>
        <time>2022-09-27T13:01:19Z</time>
      </trkpt>
      <trkpt lat="46.16889" lon="5.9985">
        <ele>421.8</ele>
        <time>2022-09-27T13:01:20Z</time>
      </trkpt>
      <trkpt lat="46.16889" lon="5.99856">
        <ele>421.9</ele>
        <time>2022-09-27T13:01:21Z</time>
      </trkpt>
      <trkpt lat="46.16889" lon="5.99857">
        <ele>421.9</ele>
        <time>2022-09-27T13:01:22Z</time>
      </trkpt>
      <trkpt lat="46.1689" lon="5.99861">
        <ele>422</ele>
        <time>2022-09-27T13:01:23Z</time>
      </trkpt>
      <trkpt lat="46.1689" lon="5.99867">
        <ele>422.1</ele>
        <time>2022-09-27T13:01:24Z</time>
      </trkpt>
      <trkpt lat="46.16891" lon="5.99869">
        <ele>422.1</ele>
        <time>2022-09-27T13:01:25Z</time>
      </trkpt>
      <trkpt lat="46.1689" lon="5.99875">
        <ele>422.2</ele>
        <time>2022-09-27T13:01:26Z</time>
      </trkpt>
      <trkpt lat="46.1689" lon="5.99877">
        <ele>422.2</ele>
        <time>2022-09-27T13:01:27Z</time>
      </trkpt>
      <trkpt lat="46.16891" lon="5.99881">
        <ele>422.3</ele>
        <time>2022-09-27T13:01:28Z</time>
      </trkpt>
      <trkpt lat="46.16893" lon="5.99884">
        <ele>422.3</ele>
        <time>2022-09-27T13:01:29Z</time>
      </trkpt>
      <trkpt lat="46.16894" lon="5.99888">
        <ele>422.4</ele>
        <time>2022-09-27T13:01:30Z</time>
      </trkpt>
      <trkpt lat="46.16896" lon="5.99893">
        <ele>422.5</ele>
        <time>2022-09-27T13:01:31Z</time>
      </trkpt>
      <trkpt lat="46.16897" lon="5.99896">
        <ele>422.5</ele>
        <time>2022-09-27T13:01:32Z</time>
      </trkpt>
      <trkpt lat="46.16898" lon="5.999">
        <ele>422.6</ele>
        <time>2022-09-27T13:01:33Z</time>
      </trkpt>
      <trkpt lat="46.16899" lon="5.99906">
        <ele>422.6</ele>
        <time>2022-09-27T13:01:35Z</time>
      </trkpt>
      <trkpt lat="46.169" lon="5.99908">
        <ele>422.7</ele>
        <time>2022-09-27T13:01:36Z</time>
      </trkpt>
      <trkpt lat="46.169" lon="5.99912">
        <ele>422.7</ele>
        <time>2022-09-27T13:01:37Z</time>
      </trkpt>
      <trkpt lat="46.16901" lon="5.99918">
        <ele>422.8</ele>
        <time>2022-09-27T13:01:38Z</time>
      </trkpt>
      <trkpt lat="46.16904" lon="5.99924">
        <ele>422.9</ele>
        <time>2022-09-27T13:01:39Z</time>
      </trkpt>
      <trkpt lat="46.16905" lon="5.99929">
        <ele>422.9</ele>
        <time>2022-09-27T13:01:40Z</time>
      </trkpt>
      <trkpt lat="46.16905" lon="5.99931">
        <ele>422.9</ele>
        <time>2022-09-27T13:01:41Z</time>
      </trkpt>
      <trkpt lat="46.16907" lon="5.99935">
        <ele>423</ele>
        <time>2022-09-27T13:01:42Z</time>
      </trkpt>
      <trkpt lat="46.16909" lon="5.9994">
        <ele>423</ele>
        <time>2022-09-27T13:01:43Z</time>
      </trkpt>
      <trkpt lat="46.1691" lon="5.99945">
        <ele>423.1</ele>
        <time>2022-09-27T13:01:44Z</time>
      </trkpt>
      <trkpt lat="46.16911" lon="5.9995">
        <ele>423.1</ele>
        <time>2022-09-27T13:01:45Z</time>
      </trkpt>
      <trkpt lat="46.16913" lon="5.99956">
        <ele>423.2</ele>
        <time>2022-09-27T13:01:46Z</time>
      </trkpt>
      <trkpt lat="46.16914" lon="5.99962">
        <ele>423.2</ele>
        <time>2022-09-27T13:01:47Z</time>
      </trkpt>
      <trkpt lat="46.16916" lon="5.99967">
        <ele>423.2</ele>
        <time>2022-09-27T13:01:48Z</time>
      </trkpt>
      <trkpt lat="46.16918" lon="5.99973">
        <ele>423.3</ele>
        <time>2022-09-27T13:01:49Z</time>
      </trkpt>
      <trkpt lat="46.16919" lon="5.99979">
        <ele>423.3</ele>
        <time>2022-09-27T13:01:50Z</time>
      </trkpt>
      <trkpt lat="46.16922" lon="5.99984">
        <ele>423.4</ele>
        <time>2022-09-27T13:01:51Z</time>
      </trkpt>
      <trkpt lat="46.16923" lon="5.9999">
        <ele>423.4</ele>
        <time>2022-09-27T13:01:52Z</time>
      </trkpt>
      <trkpt lat="46.16924" lon="5.99996">
        <ele>423.4</ele>
        <time>2022-09-27T13:01:53Z</time>
      </trkpt>
      <trkpt lat="46.16926" lon="6.00002">
        <ele>423.5</ele>
        <time>2022-09-27T13:01:54Z</time>
      </trkpt>
      <trkpt lat="46.16928" lon="6.00008">
        <ele>423.5</ele>
        <time>2022-09-27T13:01:55Z</time>
      </trkpt>
      <trkpt lat="46.1693" lon="6.00013">
        <ele>423.6</ele>
        <time>2022-09-27T13:01:56Z</time>
      </trkpt>
      <trkpt lat="46.16932" lon="6.00019">
        <ele>423.6</ele>
        <time>2022-09-27T13:01:57Z</time>
      </trkpt>
      <trkpt lat="46.16934" lon="6.00026">
        <ele>423.7</ele>
        <time>2022-09-27T13:01:58Z</time>
      </trkpt>
      <trkpt lat="46.16935" lon="6.0003">
        <ele>423.7</ele>
        <time>2022-09-27T13:01:59Z</time>
      </trkpt>
      <trkpt lat="46.16937" lon="6.00035">
        <ele>423.7</ele>
        <time>2022-09-27T13:02:00Z</time>
      </trkpt>
      <trkpt lat="46.16938" lon="6.0004">
        <ele>423.8</ele>
        <time>2022-09-27T13:02:01Z</time>
      </trkpt>
      <trkpt lat="46.16939" lon="6.00044">
        <ele>423.8</ele>
        <time>2022-09-27T13:02:02Z</time>
      </trkpt>
      <trkpt lat="46.1694" lon="6.00049">
        <ele>423.9</ele>
        <time>2022-09-27T13:02:03Z</time>
      </trkpt>
      <trkpt lat="46.16941" lon="6.00055">
        <ele>423.9</ele>
        <time>2022-09-27T13:02:04Z</time>
      </trkpt>
      <trkpt lat="46.16943" lon="6.0006">
        <ele>424</ele>
        <time>2022-09-27T13:02:05Z</time>
      </trkpt>
      <trkpt lat="46.16944" lon="6.00066">
        <ele>424.1</ele>
        <time>2022-09-27T13:02:06Z</time>
      </trkpt>
      <trkpt lat="46.16945" lon="6.00071">
        <ele>424.2</ele>
        <time>2022-09-27T13:02:07Z</time>
      </trkpt>
      <trkpt lat="46.16946" lon="6.00077">
        <ele>424.3</ele>
        <time>2022-09-27T13:02:08Z</time>
      </trkpt>
      <trkpt lat="46.16947" lon="6.0008">
        <ele>424.3</ele>
        <time>2022-09-27T13:02:09Z</time>
      </trkpt>
      <trkpt lat="46.16947" lon="6.00085">
        <ele>424.4</ele>
        <time>2022-09-27T13:02:10Z</time>
      </trkpt>
      <trkpt lat="46.16948" lon="6.00089">
        <ele>424.4</ele>
        <time>2022-09-27T13:02:11Z</time>
      </trkpt>
      <trkpt lat="46.16949" lon="6.00093">
        <ele>424.5</ele>
        <time>2022-09-27T13:02:12Z</time>
      </trkpt>
      <trkpt lat="46.16951" lon="6.00098">
        <ele>424.5</ele>
        <time>2022-09-27T13:02:13Z</time>
      </trkpt>
      <trkpt lat="46.16951" lon="6.00102">
        <ele>424.6</ele>
        <time>2022-09-27T13:02:14Z</time>
      </trkpt>
      <trkpt lat="46.16952" lon="6.00106">
        <ele>424.6</ele>
        <time>2022-09-27T13:02:15Z</time>
      </trkpt>
      <trkpt lat="46.16953" lon="6.0011">
        <ele>424.7</ele>
        <time>2022-09-27T13:02:16Z</time>
      </trkpt>
      <trkpt lat="46.16955" lon="6.00114">
        <ele>424.8</ele>
        <time>2022-09-27T13:02:17Z</time>
      </trkpt>
      <trkpt lat="46.16956" lon="6.00118">
        <ele>424.8</ele>
        <time>2022-09-27T13:02:18Z</time>
      </trkpt>
      <trkpt lat="46.16957" lon="6.00122">
        <ele>424.9</ele>
        <time>2022-09-27T13:02:19Z</time>
      </trkpt>
      <trkpt lat="46.16958" lon="6.00126">
        <ele>424.9</ele>
        <time>2022-09-27T13:02:20Z</time>
      </trkpt>
      <trkpt lat="46.16959" lon="6.00127">
        <ele>425</ele>
        <time>2022-09-27T13:02:21Z</time>
      </trkpt>
      <trkpt lat="46.1696" lon="6.00132">
        <ele>425</ele>
        <time>2022-09-27T13:02:22Z</time>
      </trkpt>
      <trkpt lat="46.16961" lon="6.00133">
        <ele>425</ele>
        <time>2022-09-27T13:02:23Z</time>
      </trkpt>
      <trkpt lat="46.16962" lon="6.00137">
        <ele>425.1</ele>
        <time>2022-09-27T13:02:24Z</time>
      </trkpt>
      <trkpt lat="46.16965" lon="6.00139">
        <ele>425.1</ele>
        <time>2022-09-27T13:02:25Z</time>
      </trkpt>
      <trkpt lat="46.16967" lon="6.0014">
        <ele>425.1</ele>
        <time>2022-09-27T13:02:26Z</time>
      </trkpt>
      <trkpt lat="46.16971" lon="6.0014">
        <ele>425</ele>
        <time>2022-09-27T13:02:27Z</time>
      </trkpt>
      <trkpt lat="46.16973" lon="6.00139">
        <ele>425</ele>
        <time>2022-09-27T13:02:28Z</time>
      </trkpt>
      <trkpt lat="46.16975" lon="6.00137">
        <ele>425</ele>
        <time>2022-09-27T13:02:29Z</time>
      </trkpt>
      <trkpt lat="46.16978" lon="6.00134">
        <ele>424.9</ele>
        <time>2022-09-27T13:02:30Z</time>
      </trkpt>
      <trkpt lat="46.16981" lon="6.00131">
        <ele>424.7</ele>
        <time>2022-09-27T13:02:31Z</time>
      </trkpt>
      <trkpt lat="46.16984" lon="6.00128">
        <ele>424.6</ele>
        <time>2022-09-27T13:02:32Z</time>
      </trkpt>
      <trkpt lat="46.16987" lon="6.00126">
        <ele>424.5</ele>
        <time>2022-09-27T13:02:33Z</time>
      </trkpt>
      <trkpt lat="46.1699" lon="6.00124">
        <ele>424.4</ele>
        <time>2022-09-27T13:02:34Z</time>
      </trkpt>
      <trkpt lat="46.16993" lon="6.00122">
        <ele>424.3</ele>
        <time>2022-09-27T13:02:35Z</time>
      </trkpt>
      <trkpt lat="46.16997" lon="6.00121">
        <ele>424.1</ele>
        <time>2022-09-27T13:02:36Z</time>
      </trkpt>
      <trkpt lat="46.17002" lon="6.00123">
        <ele>423.9</ele>
        <time>2022-09-27T13:02:37Z</time>
      </trkpt>
      <trkpt lat="46.17006" lon="6.00124">
        <ele>423.7</ele>
        <time>2022-09-27T13:02:38Z</time>
      </trkpt>
      <trkpt lat="46.1701" lon="6.00126">
        <ele>423.5</ele>
        <time>2022-09-27T13:02:39Z</time>
      </trkpt>
      <trkpt lat="46.17013" lon="6.0013">
        <ele>423.3</ele>
        <time>2022-09-27T13:02:40Z</time>
      </trkpt>
      <trkpt lat="46.17017" lon="6.00135">
        <ele>423</ele>
        <time>2022-09-27T13:02:41Z</time>
      </trkpt>
      <trkpt lat="46.17022" lon="6.00139">
        <ele>422.6</ele>
        <time>2022-09-27T13:02:42Z</time>
      </trkpt>
      <trkpt lat="46.17026" lon="6.00144">
        <ele>422.3</ele>
        <time>2022-09-27T13:02:43Z</time>
      </trkpt>
      <trkpt lat="46.17032" lon="6.0015">
        <ele>421.9</ele>
        <time>2022-09-27T13:02:44Z</time>
      </trkpt>
      <trkpt lat="46.17038" lon="6.00156">
        <ele>421.4</ele>
        <time>2022-09-27T13:02:45Z</time>
      </trkpt>
      <trkpt lat="46.17043" lon="6.00162">
        <ele>421.1</ele>
        <time>2022-09-27T13:02:46Z</time>
      </trkpt>
      <trkpt lat="46.17049" lon="6.00168">
        <ele>420.8</ele>
        <time>2022-09-27T13:02:47Z</time>
      </trkpt>
      <trkpt lat="46.17054" lon="6.00173">
        <ele>420.5</ele>
        <time>2022-09-27T13:02:48Z</time>
      </trkpt>
      <trkpt lat="46.17059" lon="6.00177">
        <ele>420.3</ele>
        <time>2022-09-27T13:02:49Z</time>
      </trkpt>
      <trkpt lat="46.17064" lon="6.00181">
        <ele>420</ele>
        <time>2022-09-27T13:02:50Z</time>
      </trkpt>
      <trkpt lat="46.1707" lon="6.00185">
        <ele>419.7</ele>
        <time>2022-09-27T13:02:51Z</time>
      </trkpt>
      <trkpt lat="46.17076" lon="6.00189">
        <ele>419.5</ele>
        <time>2022-09-27T13:02:52Z</time>
      </trkpt>
      <trkpt lat="46.17083" lon="6.00193">
        <ele>419.3</ele>
        <time>2022-09-27T13:02:53Z</time>
      </trkpt>
      <trkpt lat="46.17088" lon="6.00197">
        <ele>418.9</ele>
        <time>2022-09-27T13:02:54Z</time>
      </trkpt>
      <trkpt lat="46.171" lon="6.00207">
        <ele>417.9</ele>
        <time>2022-09-27T13:02:55Z</time>
      </trkpt>
      <trkpt lat="46.17106" lon="6.00213">
        <ele>417.3</ele>
        <time>2022-09-27T13:02:56Z</time>
      </trkpt>
      <trkpt lat="46.1711" lon="6.00221">
        <ele>416.7</ele>
        <time>2022-09-27T13:02:57Z</time>
      </trkpt>
      <trkpt lat="46.17115" lon="6.00229">
        <ele>416.2</ele>
        <time>2022-09-27T13:02:58Z</time>
      </trkpt>
      <trkpt lat="46.1712" lon="6.00236">
        <ele>415.7</ele>
        <time>2022-09-27T13:02:59Z</time>
      </trkpt>
      <trkpt lat="46.17124" lon="6.00246">
        <ele>415.1</ele>
        <time>2022-09-27T13:03:00Z</time>
      </trkpt>
      <trkpt lat="46.1713" lon="6.00255">
        <ele>414.5</ele>
        <time>2022-09-27T13:03:01Z</time>
      </trkpt>
      <trkpt lat="46.17135" lon="6.00264">
        <ele>414</ele>
        <time>2022-09-27T13:03:02Z</time>
      </trkpt>
      <trkpt lat="46.17139" lon="6.00272">
        <ele>413.6</ele>
        <time>2022-09-27T13:03:03Z</time>
      </trkpt>
      <trkpt lat="46.17144" lon="6.00282">
        <ele>413.1</ele>
        <time>2022-09-27T13:03:04Z</time>
      </trkpt>
      <trkpt lat="46.17149" lon="6.0029">
        <ele>412.7</ele>
        <time>2022-09-27T13:03:05Z</time>
      </trkpt>
      <trkpt lat="46.17154" lon="6.003">
        <ele>412.2</ele>
        <time>2022-09-27T13:03:06Z</time>
      </trkpt>
      <trkpt lat="46.17159" lon="6.00309">
        <ele>411.8</ele>
        <time>2022-09-27T13:03:07Z</time>
      </trkpt>
      <trkpt lat="46.17164" lon="6.00319">
        <ele>411.3</ele>
        <time>2022-09-27T13:03:08Z</time>
      </trkpt>
      <trkpt lat="46.17169" lon="6.00328">
        <ele>410.9</ele>
        <time>2022-09-27T13:03:09Z</time>
      </trkpt>
      <trkpt lat="46.17174" lon="6.00338">
        <ele>410.4</ele>
        <time>2022-09-27T13:03:10Z</time>
      </trkpt>
      <trkpt lat="46.17179" lon="6.00348">
        <ele>409.9</ele>
        <time>2022-09-27T13:03:11Z</time>
      </trkpt>
      <trkpt lat="46.17184" lon="6.00358">
        <ele>409.4</ele>
        <time>2022-09-27T13:03:12Z</time>
      </trkpt>
      <trkpt lat="46.17189" lon="6.00367">
        <ele>408.9</ele>
        <time>2022-09-27T13:03:13Z</time>
      </trkpt>
      <trkpt lat="46.17194" lon="6.00377">
        <ele>408.3</ele>
        <time>2022-09-27T13:03:14Z</time>
      </trkpt>
      <trkpt lat="46.172" lon="6.00387">
        <ele>407.8</ele>
        <time>2022-09-27T13:03:15Z</time>
      </trkpt>
      <trkpt lat="46.17205" lon="6.00398">
        <ele>407.2</ele>
        <time>2022-09-27T13:03:16Z</time>
      </trkpt>
      <trkpt lat="46.1721" lon="6.00408">
        <ele>406.6</ele>
        <time>2022-09-27T13:03:17Z</time>
      </trkpt>
      <trkpt lat="46.17215" lon="6.00417">
        <ele>406.1</ele>
        <time>2022-09-27T13:03:18Z</time>
      </trkpt>
      <trkpt lat="46.1722" lon="6.00427">
        <ele>405.5</ele>
        <time>2022-09-27T13:03:19Z</time>
      </trkpt>
      <trkpt lat="46.17225" lon="6.00436">
        <ele>404.9</ele>
        <time>2022-09-27T13:03:20Z</time>
      </trkpt>
      <trkpt lat="46.17229" lon="6.00445">
        <ele>404.4</ele>
        <time>2022-09-27T13:03:21Z</time>
      </trkpt>
      <trkpt lat="46.17233" lon="6.00454">
        <ele>403.8</ele>
        <time>2022-09-27T13:03:22Z</time>
      </trkpt>
      <trkpt lat="46.17238" lon="6.00462">
        <ele>403.2</ele>
        <time>2022-09-27T13:03:23Z</time>
      </trkpt>
      <trkpt lat="46.17242" lon="6.00471">
        <ele>402.7</ele>
        <time>2022-09-27T13:03:24Z</time>
      </trkpt>
      <trkpt lat="46.17247" lon="6.0048">
        <ele>402.1</ele>
        <time>2022-09-27T13:03:25Z</time>
      </trkpt>
      <trkpt lat="46.17252" lon="6.00489">
        <ele>401.4</ele>
        <time>2022-09-27T13:03:26Z</time>
      </trkpt>
      <trkpt lat="46.17256" lon="6.00497">
        <ele>400.8</ele>
        <time>2022-09-27T13:03:27Z</time>
      </trkpt>
      <trkpt lat="46.17262" lon="6.00506">
        <ele>400.2</ele>
        <time>2022-09-27T13:03:28Z</time>
      </trkpt>
      <trkpt lat="46.17266" lon="6.00514">
        <ele>399.6</ele>
        <time>2022-09-27T13:03:29Z</time>
      </trkpt>
      <trkpt lat="46.17271" lon="6.00523">
        <ele>398.9</ele>
        <time>2022-09-27T13:03:30Z</time>
      </trkpt>
      <trkpt lat="46.17275" lon="6.0053">
        <ele>398.3</ele>
        <time>2022-09-27T13:03:31Z</time>
      </trkpt>
      <trkpt lat="46.1728" lon="6.00537">
        <ele>397.8</ele>
        <time>2022-09-27T13:03:32Z</time>
      </trkpt>
      <trkpt lat="46.17284" lon="6.00544">
        <ele>397.2</ele>
        <time>2022-09-27T13:03:33Z</time>
      </trkpt>
      <trkpt lat="46.17289" lon="6.0055">
        <ele>396.6</ele>
        <time>2022-09-27T13:03:34Z</time>
      </trkpt>
      <trkpt lat="46.17296" lon="6.00554">
        <ele>396.1</ele>
        <time>2022-09-27T13:03:35Z</time>
      </trkpt>
      <trkpt lat="46.17302" lon="6.00558">
        <ele>395.6</ele>
        <time>2022-09-27T13:03:36Z</time>
      </trkpt>
      <trkpt lat="46.17308" lon="6.00562">
        <ele>395.2</ele>
        <time>2022-09-27T13:03:37Z</time>
      </trkpt>
      <trkpt lat="46.17313" lon="6.00564">
        <ele>394.8</ele>
        <time>2022-09-27T13:03:38Z</time>
      </trkpt>
      <trkpt lat="46.1732" lon="6.00565">
        <ele>394.3</ele>
        <time>2022-09-27T13:03:39Z</time>
      </trkpt>
      <trkpt lat="46.17326" lon="6.00566">
        <ele>393.9</ele>
        <time>2022-09-27T13:03:41Z</time>
      </trkpt>
      <trkpt lat="46.17332" lon="6.00565">
        <ele>393.5</ele>
        <time>2022-09-27T13:03:42Z</time>
      </trkpt>
      <trkpt lat="46.17339" lon="6.00564">
        <ele>393.2</ele>
        <time>2022-09-27T13:03:43Z</time>
      </trkpt>
      <trkpt lat="46.17345" lon="6.00563">
        <ele>393</ele>
        <time>2022-09-27T13:03:44Z</time>
      </trkpt>
      <trkpt lat="46.1735" lon="6.00561">
        <ele>392.8</ele>
        <time>2022-09-27T13:03:45Z</time>
      </trkpt>
      <trkpt lat="46.17356" lon="6.00559">
        <ele>392.7</ele>
        <time>2022-09-27T13:03:46Z</time>
      </trkpt>
      <trkpt lat="46.17361" lon="6.00558">
        <ele>392.5</ele>
        <time>2022-09-27T13:03:47Z</time>
      </trkpt>
      <trkpt lat="46.17365" lon="6.00557">
        <ele>392.4</ele>
        <time>2022-09-27T13:03:48Z</time>
      </trkpt>
      <trkpt lat="46.1737" lon="6.00557">
        <ele>392.3</ele>
        <time>2022-09-27T13:03:49Z</time>
      </trkpt>
      <trkpt lat="46.17374" lon="6.00558">
        <ele>392.3</ele>
        <time>2022-09-27T13:03:50Z</time>
      </trkpt>
      <trkpt lat="46.17378" lon="6.00559">
        <ele>392.2</ele>
        <time>2022-09-27T13:03:51Z</time>
      </trkpt>
      <trkpt lat="46.17382" lon="6.00561">
        <ele>392.2</ele>
        <time>2022-09-27T13:03:52Z</time>
      </trkpt>
      <trkpt lat="46.17387" lon="6.00561">
        <ele>392.2</ele>
        <time>2022-09-27T13:03:53Z</time>
      </trkpt>
      <trkpt lat="46.17391" lon="6.00558">
        <ele>392</ele>
        <time>2022-09-27T13:03:54Z</time>
      </trkpt>
      <trkpt lat="46.17394" lon="6.00554">
        <ele>391.9</ele>
        <time>2022-09-27T13:03:55Z</time>
      </trkpt>
      <trkpt lat="46.17395" lon="6.00548">
        <ele>391.7</ele>
        <time>2022-09-27T13:03:56Z</time>
      </trkpt>
      <trkpt lat="46.17395" lon="6.00544">
        <ele>391.6</ele>
        <time>2022-09-27T13:03:57Z</time>
      </trkpt>
      <trkpt lat="46.17394" lon="6.00539">
        <ele>391.4</ele>
        <time>2022-09-27T13:03:58Z</time>
      </trkpt>
      <trkpt lat="46.17392" lon="6.00535">
        <ele>391.3</ele>
        <time>2022-09-27T13:03:59Z</time>
      </trkpt>
      <trkpt lat="46.1739" lon="6.0053">
        <ele>391.1</ele>
        <time>2022-09-27T13:04:00Z</time>
      </trkpt>
      <trkpt lat="46.17389" lon="6.00525">
        <ele>390.6</ele>
        <time>2022-09-27T13:04:01Z</time>
      </trkpt>
      <trkpt lat="46.17388" lon="6.00519">
        <ele>390.4</ele>
        <time>2022-09-27T13:04:02Z</time>
      </trkpt>
      <trkpt lat="46.17387" lon="6.00512">
        <ele>390.1</ele>
        <time>2022-09-27T13:04:03Z</time>
      </trkpt>
      <trkpt lat="46.17387" lon="6.00505">
        <ele>389.9</ele>
        <time>2022-09-27T13:04:04Z</time>
      </trkpt>
      <trkpt lat="46.17387" lon="6.00498">
        <ele>389.6</ele>
        <time>2022-09-27T13:04:05Z</time>
      </trkpt>
      <trkpt lat="46.17388" lon="6.00489">
        <ele>389.2</ele>
        <time>2022-09-27T13:04:06Z</time>
      </trkpt>
      <trkpt lat="46.1739" lon="6.00481">
        <ele>388.9</ele>
        <time>2022-09-27T13:04:07Z</time>
      </trkpt>
      <trkpt lat="46.17392" lon="6.00472">
        <ele>388.5</ele>
        <time>2022-09-27T13:04:08Z</time>
      </trkpt>
      <trkpt lat="46.17393" lon="6.00462">
        <ele>388.1</ele>
        <time>2022-09-27T13:04:09Z</time>
      </trkpt>
      <trkpt lat="46.17395" lon="6.00453">
        <ele>387.8</ele>
        <time>2022-09-27T13:04:10Z</time>
      </trkpt>
      <trkpt lat="46.17397" lon="6.00444">
        <ele>387.4</ele>
        <time>2022-09-27T13:04:11Z</time>
      </trkpt>
      <trkpt lat="46.17399" lon="6.00434">
        <ele>387</ele>
        <time>2022-09-27T13:04:12Z</time>
      </trkpt>
      <trkpt lat="46.17401" lon="6.00424">
        <ele>386.7</ele>
        <time>2022-09-27T13:04:13Z</time>
      </trkpt>
      <trkpt lat="46.17403" lon="6.00414">
        <ele>386.6</ele>
        <time>2022-09-27T13:04:14Z</time>
      </trkpt>
      <trkpt lat="46.17404" lon="6.00403">
        <ele>386.1</ele>
        <time>2022-09-27T13:04:15Z</time>
      </trkpt>
      <trkpt lat="46.17406" lon="6.00394">
        <ele>385.7</ele>
        <time>2022-09-27T13:04:16Z</time>
      </trkpt>
      <trkpt lat="46.17407" lon="6.00384">
        <ele>385.2</ele>
        <time>2022-09-27T13:04:17Z</time>
      </trkpt>
      <trkpt lat="46.17408" lon="6.00374">
        <ele>384.7</ele>
        <time>2022-09-27T13:04:18Z</time>
      </trkpt>
      <trkpt lat="46.17409" lon="6.00366">
        <ele>384.3</ele>
        <time>2022-09-27T13:04:19Z</time>
      </trkpt>
      <trkpt lat="46.1741" lon="6.00356">
        <ele>383.8</ele>
        <time>2022-09-27T13:04:20Z</time>
      </trkpt>
      <trkpt lat="46.17416" lon="6.00329">
        <ele>382.5</ele>
        <time>2022-09-27T13:04:21Z</time>
      </trkpt>
      <trkpt lat="46.17419" lon="6.00317">
        <ele>381.9</ele>
        <time>2022-09-27T13:04:22Z</time>
      </trkpt>
      <trkpt lat="46.17421" lon="6.00304">
        <ele>381.4</ele>
        <time>2022-09-27T13:04:23Z</time>
      </trkpt>
      <trkpt lat="46.17424" lon="6.00292">
        <ele>380.9</ele>
        <time>2022-09-27T13:04:24Z</time>
      </trkpt>
      <trkpt lat="46.17426" lon="6.0028">
        <ele>380.4</ele>
        <time>2022-09-27T13:04:25Z</time>
      </trkpt>
      <trkpt lat="46.17428" lon="6.00268">
        <ele>379.9</ele>
        <time>2022-09-27T13:04:26Z</time>
      </trkpt>
      <trkpt lat="46.1743" lon="6.00256">
        <ele>379.4</ele>
        <time>2022-09-27T13:04:27Z</time>
      </trkpt>
      <trkpt lat="46.17432" lon="6.00245">
        <ele>378.9</ele>
        <time>2022-09-27T13:04:28Z</time>
      </trkpt>
      <trkpt lat="46.17435" lon="6.00233">
        <ele>378.4</ele>
        <time>2022-09-27T13:04:29Z</time>
      </trkpt>
      <trkpt lat="46.17436" lon="6.00222">
        <ele>378</ele>
        <time>2022-09-27T13:04:30Z</time>
      </trkpt>
      <trkpt lat="46.17439" lon="6.00211">
        <ele>377.5</ele>
        <time>2022-09-27T13:04:31Z</time>
      </trkpt>
      <trkpt lat="46.17442" lon="6.00199">
        <ele>377</ele>
        <time>2022-09-27T13:04:32Z</time>
      </trkpt>
      <trkpt lat="46.17445" lon="6.00187">
        <ele>376.6</ele>
        <time>2022-09-27T13:04:33Z</time>
      </trkpt>
      <trkpt lat="46.17447" lon="6.00176">
        <ele>376.2</ele>
        <time>2022-09-27T13:04:34Z</time>
      </trkpt>
      <trkpt lat="46.17448" lon="6.00165">
        <ele>375.8</ele>
        <time>2022-09-27T13:04:35Z</time>
      </trkpt>
      <trkpt lat="46.17451" lon="6.00153">
        <ele>375.3</ele>
        <time>2022-09-27T13:04:36Z</time>
      </trkpt>
      <trkpt lat="46.17454" lon="6.00142">
        <ele>374.9</ele>
        <time>2022-09-27T13:04:37Z</time>
      </trkpt>
      <trkpt lat="46.17456" lon="6.0013">
        <ele>374.5</ele>
        <time>2022-09-27T13:04:38Z</time>
      </trkpt>
      <trkpt lat="46.17458" lon="6.00118">
        <ele>374.1</ele>
        <time>2022-09-27T13:04:39Z</time>
      </trkpt>
      <trkpt lat="46.1746" lon="6.00107">
        <ele>373.7</ele>
        <time>2022-09-27T13:04:40Z</time>
      </trkpt>
      <trkpt lat="46.17462" lon="6.00097">
        <ele>373.3</ele>
        <time>2022-09-27T13:04:41Z</time>
      </trkpt>
      <trkpt lat="46.17464" lon="6.00086">
        <ele>373</ele>
        <time>2022-09-27T13:04:42Z</time>
      </trkpt>
      <trkpt lat="46.17466" lon="6.00076">
        <ele>372.6</ele>
        <time>2022-09-27T13:04:43Z</time>
      </trkpt>
      <trkpt lat="46.17468" lon="6.00064">
        <ele>372.2</ele>
        <time>2022-09-27T13:04:44Z</time>
      </trkpt>
      <trkpt lat="46.1747" lon="6.00053">
        <ele>371.8</ele>
        <time>2022-09-27T13:04:45Z</time>
      </trkpt>
      <trkpt lat="46.17472" lon="6.00041">
        <ele>371.4</ele>
        <time>2022-09-27T13:04:46Z</time>
      </trkpt>
      <trkpt lat="46.17475" lon="6.0003">
        <ele>371.2</ele>
        <time>2022-09-27T13:04:47Z</time>
      </trkpt>
      <trkpt lat="46.17477" lon="6.00018">
        <ele>371.1</ele>
        <time>2022-09-27T13:04:48Z</time>
      </trkpt>
      <trkpt lat="46.17479" lon="6.00007">
        <ele>370.9</ele>
        <time>2022-09-27T13:04:49Z</time>
      </trkpt>
      <trkpt lat="46.17481" lon="5.99995">
        <ele>370.6</ele>
        <time>2022-09-27T13:04:50Z</time>
      </trkpt>
      <trkpt lat="46.17483" lon="5.99984">
        <ele>370.3</ele>
        <time>2022-09-27T13:04:51Z</time>
      </trkpt>
      <trkpt lat="46.17485" lon="5.99973">
        <ele>369.9</ele>
        <time>2022-09-27T13:04:52Z</time>
      </trkpt>
      <trkpt lat="46.17487" lon="5.99962">
        <ele>369.6</ele>
        <time>2022-09-27T13:04:53Z</time>
      </trkpt>
      <trkpt lat="46.17489" lon="5.99951">
        <ele>369.2</ele>
        <time>2022-09-27T13:04:54Z</time>
      </trkpt>
      <trkpt lat="46.17491" lon="5.9994">
        <ele>368.9</ele>
        <time>2022-09-27T13:04:55Z</time>
      </trkpt>
      <trkpt lat="46.17493" lon="5.99929">
        <ele>368.5</ele>
        <time>2022-09-27T13:04:56Z</time>
      </trkpt>
      <trkpt lat="46.17495" lon="5.99918">
        <ele>368.2</ele>
        <time>2022-09-27T13:04:57Z</time>
      </trkpt>
      <trkpt lat="46.17497" lon="5.99907">
        <ele>367.8</ele>
        <time>2022-09-27T13:04:58Z</time>
      </trkpt>
      <trkpt lat="46.17499" lon="5.99896">
        <ele>367.5</ele>
        <time>2022-09-27T13:04:59Z</time>
      </trkpt>
      <trkpt lat="46.17501" lon="5.99885">
        <ele>367.2</ele>
        <time>2022-09-27T13:05:00Z</time>
      </trkpt>
      <trkpt lat="46.17503" lon="5.99873">
        <ele>366.9</ele>
        <time>2022-09-27T13:05:01Z</time>
      </trkpt>
      <trkpt lat="46.17505" lon="5.99861">
        <ele>366.6</ele>
        <time>2022-09-27T13:05:02Z</time>
      </trkpt>
      <trkpt lat="46.17507" lon="5.99851">
        <ele>366.3</ele>
        <time>2022-09-27T13:05:03Z</time>
      </trkpt>
      <trkpt lat="46.17509" lon="5.99842">
        <ele>366.1</ele>
        <time>2022-09-27T13:05:04Z</time>
      </trkpt>
      <trkpt lat="46.17511" lon="5.99833">
        <ele>365.8</ele>
        <time>2022-09-27T13:05:05Z</time>
      </trkpt>
      <trkpt lat="46.17512" lon="5.99824">
        <ele>365.6</ele>
        <time>2022-09-27T13:05:06Z</time>
      </trkpt>
      <trkpt lat="46.17514" lon="5.99816">
        <ele>365.5</ele>
        <time>2022-09-27T13:05:07Z</time>
      </trkpt>
      <trkpt lat="46.17515" lon="5.99808">
        <ele>365.3</ele>
        <time>2022-09-27T13:05:08Z</time>
      </trkpt>
      <trkpt lat="46.17516" lon="5.99802">
        <ele>365.2</ele>
        <time>2022-09-27T13:05:09Z</time>
      </trkpt>
      <trkpt lat="46.17518" lon="5.99797">
        <ele>365.1</ele>
        <time>2022-09-27T13:05:10Z</time>
      </trkpt>
      <trkpt lat="46.1752" lon="5.9979">
        <ele>365.1</ele>
        <time>2022-09-27T13:05:11Z</time>
      </trkpt>
      <trkpt lat="46.17524" lon="5.99783">
        <ele>365.1</ele>
        <time>2022-09-27T13:05:12Z</time>
      </trkpt>
      <trkpt lat="46.17529" lon="5.99778">
        <ele>365</ele>
        <time>2022-09-27T13:05:13Z</time>
      </trkpt>
      <trkpt lat="46.17535" lon="5.99774">
        <ele>364.7</ele>
        <time>2022-09-27T13:05:14Z</time>
      </trkpt>
      <trkpt lat="46.17541" lon="5.99772">
        <ele>364.4</ele>
        <time>2022-09-27T13:05:15Z</time>
      </trkpt>
      <trkpt lat="46.17547" lon="5.99773">
        <ele>364.2</ele>
        <time>2022-09-27T13:05:16Z</time>
      </trkpt>
      <trkpt lat="46.17552" lon="5.99776">
        <ele>364</ele>
        <time>2022-09-27T13:05:17Z</time>
      </trkpt>
      <trkpt lat="46.17555" lon="5.99773">
        <ele>363.9</ele>
        <time>2022-09-27T13:05:18Z</time>
      </trkpt>
      <trkpt lat="46.17559" lon="5.99778">
        <ele>363.6</ele>
        <time>2022-09-27T13:05:19Z</time>
      </trkpt>
      <trkpt lat="46.17563" lon="5.99784">
        <ele>363.4</ele>
        <time>2022-09-27T13:05:20Z</time>
      </trkpt>
      <trkpt lat="46.17566" lon="5.9979">
        <ele>363.2</ele>
        <time>2022-09-27T13:05:21Z</time>
      </trkpt>
      <trkpt lat="46.17567" lon="5.99797">
        <ele>363</ele>
        <time>2022-09-27T13:05:22Z</time>
      </trkpt>
      <trkpt lat="46.17569" lon="5.99804">
        <ele>362.8</ele>
        <time>2022-09-27T13:05:23Z</time>
      </trkpt>
      <trkpt lat="46.17569" lon="5.99812">
        <ele>362.5</ele>
        <time>2022-09-27T13:05:24Z</time>
      </trkpt>
      <trkpt lat="46.17569" lon="5.99821">
        <ele>362.3</ele>
        <time>2022-09-27T13:05:25Z</time>
      </trkpt>
      <trkpt lat="46.17567" lon="5.9983">
        <ele>362</ele>
        <time>2022-09-27T13:05:26Z</time>
      </trkpt>
      <trkpt lat="46.17566" lon="5.99838">
        <ele>361.7</ele>
        <time>2022-09-27T13:05:27Z</time>
      </trkpt>
      <trkpt lat="46.17566" lon="5.99846">
        <ele>361.5</ele>
        <time>2022-09-27T13:05:28Z</time>
      </trkpt>
      <trkpt lat="46.17564" lon="5.99855">
        <ele>361.2</ele>
        <time>2022-09-27T13:05:29Z</time>
      </trkpt>
      <trkpt lat="46.17563" lon="5.99864">
        <ele>360.9</ele>
        <time>2022-09-27T13:05:30Z</time>
      </trkpt>
      <trkpt lat="46.17562" lon="5.99874">
        <ele>360.5</ele>
        <time>2022-09-27T13:05:31Z</time>
      </trkpt>
      <trkpt lat="46.1756" lon="5.99884">
        <ele>360.2</ele>
        <time>2022-09-27T13:05:32Z</time>
      </trkpt>
      <trkpt lat="46.17559" lon="5.99893">
        <ele>359.9</ele>
        <time>2022-09-27T13:05:33Z</time>
      </trkpt>
      <trkpt lat="46.17558" lon="5.99903">
        <ele>359.5</ele>
        <time>2022-09-27T13:05:34Z</time>
      </trkpt>
      <trkpt lat="46.17556" lon="5.99913">
        <ele>359.2</ele>
        <time>2022-09-27T13:05:35Z</time>
      </trkpt>
      <trkpt lat="46.17555" lon="5.99924">
        <ele>358.8</ele>
        <time>2022-09-27T13:05:36Z</time>
      </trkpt>
      <trkpt lat="46.17553" lon="5.99935">
        <ele>358.5</ele>
        <time>2022-09-27T13:05:37Z</time>
      </trkpt>
      <trkpt lat="46.17551" lon="5.99946">
        <ele>358.1</ele>
        <time>2022-09-27T13:05:38Z</time>
      </trkpt>
      <trkpt lat="46.1755" lon="5.99957">
        <ele>357.8</ele>
        <time>2022-09-27T13:05:39Z</time>
      </trkpt>
      <trkpt lat="46.17547" lon="5.99968">
        <ele>357.6</ele>
        <time>2022-09-27T13:05:40Z</time>
      </trkpt>
      <trkpt lat="46.17545" lon="5.99978">
        <ele>357.4</ele>
        <time>2022-09-27T13:05:41Z</time>
      </trkpt>
      <trkpt lat="46.17543" lon="5.99988">
        <ele>357.2</ele>
        <time>2022-09-27T13:05:42Z</time>
      </trkpt>
      <trkpt lat="46.17542" lon="5.99997">
        <ele>357.1</ele>
        <time>2022-09-27T13:05:43Z</time>
      </trkpt>
      <trkpt lat="46.17541" lon="6.00006">
        <ele>357</ele>
        <time>2022-09-27T13:05:44Z</time>
      </trkpt>
      <trkpt lat="46.17539" lon="6.00014">
        <ele>357</ele>
        <time>2022-09-27T13:05:45Z</time>
      </trkpt>
      <trkpt lat="46.17539" lon="6.0002">
        <ele>356.9</ele>
        <time>2022-09-27T13:05:46Z</time>
      </trkpt>
      <trkpt lat="46.17538" lon="6.00027">
        <ele>356.9</ele>
        <time>2022-09-27T13:05:47Z</time>
      </trkpt>
      <trkpt lat="46.1754" lon="6.00033">
        <ele>356.8</ele>
        <time>2022-09-27T13:05:48Z</time>
      </trkpt>
      <trkpt lat="46.17542" lon="6.00038">
        <ele>356.8</ele>
        <time>2022-09-27T13:05:49Z</time>
      </trkpt>
      <trkpt lat="46.17545" lon="6.00041">
        <ele>356.7</ele>
        <time>2022-09-27T13:05:50Z</time>
      </trkpt>
      <trkpt lat="46.17548" lon="6.00043">
        <ele>356.7</ele>
        <time>2022-09-27T13:05:51Z</time>
      </trkpt>
      <trkpt lat="46.17552" lon="6.00045">
        <ele>356.6</ele>
        <time>2022-09-27T13:05:52Z</time>
      </trkpt>
      <trkpt lat="46.17556" lon="6.00047">
        <ele>356.5</ele>
        <time>2022-09-27T13:05:53Z</time>
      </trkpt>
      <trkpt lat="46.17559" lon="6.0005">
        <ele>356.5</ele>
        <time>2022-09-27T13:05:54Z</time>
      </trkpt>
      <trkpt lat="46.17564" lon="6.00052">
        <ele>356.4</ele>
        <time>2022-09-27T13:05:55Z</time>
      </trkpt>
      <trkpt lat="46.17569" lon="6.00054">
        <ele>356.4</ele>
        <time>2022-09-27T13:05:56Z</time>
      </trkpt>
      <trkpt lat="46.17574" lon="6.00057">
        <ele>356.3</ele>
        <time>2022-09-27T13:05:57Z</time>
      </trkpt>
      <trkpt lat="46.17578" lon="6.00058">
        <ele>356.3</ele>
        <time>2022-09-27T13:05:58Z</time>
      </trkpt>
      <trkpt lat="46.17583" lon="6.0006">
        <ele>356.3</ele>
        <time>2022-09-27T13:05:59Z</time>
      </trkpt>
      <trkpt lat="46.17589" lon="6.00062">
        <ele>356.2</ele>
        <time>2022-09-27T13:06:00Z</time>
      </trkpt>
      <trkpt lat="46.17593" lon="6.00064">
        <ele>356.2</ele>
        <time>2022-09-27T13:06:01Z</time>
      </trkpt>
      <trkpt lat="46.17598" lon="6.00067">
        <ele>356.2</ele>
        <time>2022-09-27T13:06:02Z</time>
      </trkpt>
      <trkpt lat="46.17604" lon="6.00069">
        <ele>356.2</ele>
        <time>2022-09-27T13:06:03Z</time>
      </trkpt>
      <trkpt lat="46.17609" lon="6.00072">
        <ele>356.2</ele>
        <time>2022-09-27T13:06:04Z</time>
      </trkpt>
      <trkpt lat="46.17615" lon="6.00075">
        <ele>356.2</ele>
        <time>2022-09-27T13:06:05Z</time>
      </trkpt>
      <trkpt lat="46.1762" lon="6.00077">
        <ele>356.3</ele>
        <time>2022-09-27T13:06:06Z</time>
      </trkpt>
      <trkpt lat="46.17625" lon="6.0008">
        <ele>356.3</ele>
        <time>2022-09-27T13:06:07Z</time>
      </trkpt>
      <trkpt lat="46.17631" lon="6.00082">
        <ele>356.3</ele>
        <time>2022-09-27T13:06:08Z</time>
      </trkpt>
      <trkpt lat="46.17638" lon="6.00085">
        <ele>356.3</ele>
        <time>2022-09-27T13:06:09Z</time>
      </trkpt>
      <trkpt lat="46.17643" lon="6.00088">
        <ele>356.3</ele>
        <time>2022-09-27T13:06:10Z</time>
      </trkpt>
      <trkpt lat="46.17648" lon="6.0009">
        <ele>356.4</ele>
        <time>2022-09-27T13:06:11Z</time>
      </trkpt>
      <trkpt lat="46.17654" lon="6.00092">
        <ele>356.4</ele>
        <time>2022-09-27T13:06:12Z</time>
      </trkpt>
      <trkpt lat="46.17659" lon="6.00094">
        <ele>356.3</ele>
        <time>2022-09-27T13:06:13Z</time>
      </trkpt>
      <trkpt lat="46.17664" lon="6.00097">
        <ele>356.3</ele>
        <time>2022-09-27T13:06:14Z</time>
      </trkpt>
      <trkpt lat="46.1767" lon="6.00099">
        <ele>356.3</ele>
        <time>2022-09-27T13:06:15Z</time>
      </trkpt>
      <trkpt lat="46.17674" lon="6.00101">
        <ele>356.2</ele>
        <time>2022-09-27T13:06:16Z</time>
      </trkpt>
      <trkpt lat="46.17679" lon="6.00103">
        <ele>356.2</ele>
        <time>2022-09-27T13:06:17Z</time>
      </trkpt>
      <trkpt lat="46.17684" lon="6.00104">
        <ele>356.2</ele>
        <time>2022-09-27T13:06:18Z</time>
      </trkpt>
      <trkpt lat="46.17689" lon="6.00107">
        <ele>356.1</ele>
        <time>2022-09-27T13:06:19Z</time>
      </trkpt>
      <trkpt lat="46.17694" lon="6.00108">
        <ele>356.1</ele>
        <time>2022-09-27T13:06:20Z</time>
      </trkpt>
      <trkpt lat="46.17699" lon="6.00109">
        <ele>356.1</ele>
        <time>2022-09-27T13:06:21Z</time>
      </trkpt>
      <trkpt lat="46.17704" lon="6.0011">
        <ele>356</ele>
        <time>2022-09-27T13:06:22Z</time>
      </trkpt>
      <trkpt lat="46.17709" lon="6.00111">
        <ele>356</ele>
        <time>2022-09-27T13:06:23Z</time>
      </trkpt>
      <trkpt lat="46.17714" lon="6.00112">
        <ele>356</ele>
        <time>2022-09-27T13:06:24Z</time>
      </trkpt>
      <trkpt lat="46.17719" lon="6.00112">
        <ele>355.9</ele>
        <time>2022-09-27T13:06:25Z</time>
      </trkpt>
      <trkpt lat="46.17725" lon="6.00112">
        <ele>355.9</ele>
        <time>2022-09-27T13:06:26Z</time>
      </trkpt>
      <trkpt lat="46.17731" lon="6.00111">
        <ele>355.9</ele>
        <time>2022-09-27T13:06:27Z</time>
      </trkpt>
      <trkpt lat="46.17736" lon="6.0011">
        <ele>355.8</ele>
        <time>2022-09-27T13:06:28Z</time>
      </trkpt>
      <trkpt lat="46.17741" lon="6.00109">
        <ele>355.8</ele>
        <time>2022-09-27T13:06:29Z</time>
      </trkpt>
      <trkpt lat="46.17745" lon="6.00107">
        <ele>355.8</ele>
        <time>2022-09-27T13:06:30Z</time>
      </trkpt>
      <trkpt lat="46.1775" lon="6.00105">
        <ele>355.7</ele>
        <time>2022-09-27T13:06:31Z</time>
      </trkpt>
      <trkpt lat="46.17755" lon="6.00104">
        <ele>355.7</ele>
        <time>2022-09-27T13:06:32Z</time>
      </trkpt>
      <trkpt lat="46.17759" lon="6.00103">
        <ele>355.7</ele>
        <time>2022-09-27T13:06:33Z</time>
      </trkpt>
      <trkpt lat="46.17764" lon="6.001">
        <ele>355.7</ele>
        <time>2022-09-27T13:06:34Z</time>
      </trkpt>
      <trkpt lat="46.17768" lon="6.00099">
        <ele>355.7</ele>
        <time>2022-09-27T13:06:35Z</time>
      </trkpt>
      <trkpt lat="46.1777" lon="6.00099">
        <ele>355.7</ele>
        <time>2022-09-27T13:06:36Z</time>
      </trkpt>
      <trkpt lat="46.17772" lon="6.00099">
        <ele>355.8</ele>
        <time>2022-09-27T13:06:37Z</time>
      </trkpt>
      <trkpt lat="46.17776" lon="6.00101">
        <ele>355.8</ele>
        <time>2022-09-27T13:06:38Z</time>
      </trkpt>
      <trkpt lat="46.17779" lon="6.00105">
        <ele>355.9</ele>
        <time>2022-09-27T13:06:39Z</time>
      </trkpt>
      <trkpt lat="46.17781" lon="6.0011">
        <ele>355.9</ele>
        <time>2022-09-27T13:06:40Z</time>
      </trkpt>
      <trkpt lat="46.17783" lon="6.00115">
        <ele>355.9</ele>
        <time>2022-09-27T13:06:41Z</time>
      </trkpt>
      <trkpt lat="46.17784" lon="6.00122">
        <ele>356</ele>
        <time>2022-09-27T13:06:42Z</time>
      </trkpt>
      <trkpt lat="46.17785" lon="6.00128">
        <ele>356</ele>
        <time>2022-09-27T13:06:43Z</time>
      </trkpt>
      <trkpt lat="46.17787" lon="6.00132">
        <ele>356</ele>
        <time>2022-09-27T13:06:44Z</time>
      </trkpt>
      <trkpt lat="46.17787" lon="6.00138">
        <ele>356</ele>
        <time>2022-09-27T13:06:45Z</time>
      </trkpt>
      <trkpt lat="46.17786" lon="6.00145">
        <ele>356.1</ele>
        <time>2022-09-27T13:06:46Z</time>
      </trkpt>
      <trkpt lat="46.17786" lon="6.00152">
        <ele>356.1</ele>
        <time>2022-09-27T13:06:47Z</time>
      </trkpt>
      <trkpt lat="46.17786" lon="6.00159">
        <ele>356.1</ele>
        <time>2022-09-27T13:06:48Z</time>
      </trkpt>
      <trkpt lat="46.17786" lon="6.00166">
        <ele>356.1</ele>
        <time>2022-09-27T13:06:49Z</time>
      </trkpt>
      <trkpt lat="46.17786" lon="6.00173">
        <ele>356.2</ele>
        <time>2022-09-27T13:06:50Z</time>
      </trkpt>
      <trkpt lat="46.17786" lon="6.0018">
        <ele>356.2</ele>
        <time>2022-09-27T13:06:51Z</time>
      </trkpt>
      <trkpt lat="46.17787" lon="6.00187">
        <ele>356.2</ele>
        <time>2022-09-27T13:06:52Z</time>
      </trkpt>
      <trkpt lat="46.17787" lon="6.00194">
        <ele>356.2</ele>
        <time>2022-09-27T13:06:53Z</time>
      </trkpt>
      <trkpt lat="46.17786" lon="6.002">
        <ele>356.3</ele>
        <time>2022-09-27T13:06:54Z</time>
      </trkpt>
      <trkpt lat="46.17787" lon="6.00206">
        <ele>356.3</ele>
        <time>2022-09-27T13:06:55Z</time>
      </trkpt>
      <trkpt lat="46.17787" lon="6.00213">
        <ele>356.3</ele>
        <time>2022-09-27T13:06:56Z</time>
      </trkpt>
      <trkpt lat="46.17787" lon="6.0022">
        <ele>356.4</ele>
        <time>2022-09-27T13:06:57Z</time>
      </trkpt>
      <trkpt lat="46.17787" lon="6.00227">
        <ele>356.4</ele>
        <time>2022-09-27T13:06:58Z</time>
      </trkpt>
      <trkpt lat="46.17787" lon="6.00233">
        <ele>356.4</ele>
        <time>2022-09-27T13:06:59Z</time>
      </trkpt>
      <trkpt lat="46.17787" lon="6.0024">
        <ele>356.4</ele>
        <time>2022-09-27T13:07:00Z</time>
      </trkpt>
      <trkpt lat="46.17788" lon="6.00246">
        <ele>356.5</ele>
        <time>2022-09-27T13:07:01Z</time>
      </trkpt>
      <trkpt lat="46.17787" lon="6.00253">
        <ele>356.5</ele>
        <time>2022-09-27T13:07:02Z</time>
      </trkpt>
      <trkpt lat="46.17787" lon="6.0026">
        <ele>356.5</ele>
        <time>2022-09-27T13:07:03Z</time>
      </trkpt>
      <trkpt lat="46.17787" lon="6.00267">
        <ele>356.6</ele>
        <time>2022-09-27T13:07:04Z</time>
      </trkpt>
      <trkpt lat="46.17787" lon="6.00274">
        <ele>356.6</ele>
        <time>2022-09-27T13:07:05Z</time>
      </trkpt>
      <trkpt lat="46.17787" lon="6.00281">
        <ele>356.6</ele>
        <time>2022-09-27T13:07:06Z</time>
      </trkpt>
      <trkpt lat="46.17788" lon="6.00288">
        <ele>356.6</ele>
        <time>2022-09-27T13:07:07Z</time>
      </trkpt>
      <trkpt lat="46.17788" lon="6.00295">
        <ele>356.7</ele>
        <time>2022-09-27T13:07:08Z</time>
      </trkpt>
      <trkpt lat="46.17788" lon="6.00302">
        <ele>356.7</ele>
        <time>2022-09-27T13:07:09Z</time>
      </trkpt>
      <trkpt lat="46.17789" lon="6.00308">
        <ele>356.8</ele>
        <time>2022-09-27T13:07:10Z</time>
      </trkpt>
      <trkpt lat="46.17789" lon="6.00314">
        <ele>356.8</ele>
        <time>2022-09-27T13:07:11Z</time>
      </trkpt>
      <trkpt lat="46.17789" lon="6.00321">
        <ele>356.8</ele>
        <time>2022-09-27T13:07:12Z</time>
      </trkpt>
      <trkpt lat="46.17791" lon="6.00326">
        <ele>356.9</ele>
        <time>2022-09-27T13:07:13Z</time>
      </trkpt>
      <trkpt lat="46.17791" lon="6.00334">
        <ele>356.9</ele>
        <time>2022-09-27T13:07:14Z</time>
      </trkpt>
      <trkpt lat="46.1779" lon="6.00342">
        <ele>356.9</ele>
        <time>2022-09-27T13:07:15Z</time>
      </trkpt>
      <trkpt lat="46.17791" lon="6.00348">
        <ele>357</ele>
        <time>2022-09-27T13:07:16Z</time>
      </trkpt>
      <trkpt lat="46.1779" lon="6.00354">
        <ele>357</ele>
        <time>2022-09-27T13:07:17Z</time>
      </trkpt>
      <trkpt lat="46.17791" lon="6.00361">
        <ele>357</ele>
        <time>2022-09-27T13:07:18Z</time>
      </trkpt>
      <trkpt lat="46.1779" lon="6.00368">
        <ele>357</ele>
        <time>2022-09-27T13:07:19Z</time>
      </trkpt>
      <trkpt lat="46.1779" lon="6.00374">
        <ele>357.1</ele>
        <time>2022-09-27T13:07:20Z</time>
      </trkpt>
      <trkpt lat="46.1779" lon="6.0038">
        <ele>357.1</ele>
        <time>2022-09-27T13:07:21Z</time>
      </trkpt>
      <trkpt lat="46.1779" lon="6.00387">
        <ele>357.1</ele>
        <time>2022-09-27T13:07:22Z</time>
      </trkpt>
      <trkpt lat="46.17791" lon="6.00395">
        <ele>357.2</ele>
        <time>2022-09-27T13:07:23Z</time>
      </trkpt>
      <trkpt lat="46.17791" lon="6.00402">
        <ele>357.2</ele>
        <time>2022-09-27T13:07:24Z</time>
      </trkpt>
      <trkpt lat="46.17791" lon="6.00409">
        <ele>357.2</ele>
        <time>2022-09-27T13:07:25Z</time>
      </trkpt>
      <trkpt lat="46.17791" lon="6.00416">
        <ele>357.2</ele>
        <time>2022-09-27T13:07:26Z</time>
      </trkpt>
      <trkpt lat="46.17792" lon="6.00424">
        <ele>357.2</ele>
        <time>2022-09-27T13:07:27Z</time>
      </trkpt>
      <trkpt lat="46.17793" lon="6.0043">
        <ele>357.2</ele>
        <time>2022-09-27T13:07:28Z</time>
      </trkpt>
      <trkpt lat="46.17793" lon="6.00436">
        <ele>357.2</ele>
        <time>2022-09-27T13:07:29Z</time>
      </trkpt>
      <trkpt lat="46.17793" lon="6.00443">
        <ele>357.2</ele>
        <time>2022-09-27T13:07:30Z</time>
      </trkpt>
      <trkpt lat="46.17794" lon="6.00449">
        <ele>357.2</ele>
        <time>2022-09-27T13:07:31Z</time>
      </trkpt>
      <trkpt lat="46.17795" lon="6.00456">
        <ele>357.2</ele>
        <time>2022-09-27T13:07:32Z</time>
      </trkpt>
      <trkpt lat="46.17795" lon="6.00463">
        <ele>357.2</ele>
        <time>2022-09-27T13:07:33Z</time>
      </trkpt>
      <trkpt lat="46.17796" lon="6.0047">
        <ele>357.2</ele>
        <time>2022-09-27T13:07:34Z</time>
      </trkpt>
      <trkpt lat="46.17796" lon="6.00478">
        <ele>357.2</ele>
        <time>2022-09-27T13:07:35Z</time>
      </trkpt>
      <trkpt lat="46.17797" lon="6.00486">
        <ele>357.2</ele>
        <time>2022-09-27T13:07:36Z</time>
      </trkpt>
      <trkpt lat="46.17797" lon="6.00493">
        <ele>357.2</ele>
        <time>2022-09-27T13:07:37Z</time>
      </trkpt>
      <trkpt lat="46.17797" lon="6.005">
        <ele>357.2</ele>
        <time>2022-09-27T13:07:38Z</time>
      </trkpt>
      <trkpt lat="46.17798" lon="6.00507">
        <ele>357.2</ele>
        <time>2022-09-27T13:07:39Z</time>
      </trkpt>
      <trkpt lat="46.17798" lon="6.00514">
        <ele>357.2</ele>
        <time>2022-09-27T13:07:40Z</time>
      </trkpt>
      <trkpt lat="46.17798" lon="6.00521">
        <ele>357.2</ele>
        <time>2022-09-27T13:07:41Z</time>
      </trkpt>
      <trkpt lat="46.17799" lon="6.00528">
        <ele>357.2</ele>
        <time>2022-09-27T13:07:42Z</time>
      </trkpt>
      <trkpt lat="46.17799" lon="6.00534">
        <ele>357.2</ele>
        <time>2022-09-27T13:07:43Z</time>
      </trkpt>
      <trkpt lat="46.178" lon="6.00541">
        <ele>357.2</ele>
        <time>2022-09-27T13:07:44Z</time>
      </trkpt>
      <trkpt lat="46.178" lon="6.00547">
        <ele>357.2</ele>
        <time>2022-09-27T13:07:45Z</time>
      </trkpt>
      <trkpt lat="46.17801" lon="6.00553">
        <ele>357.2</ele>
        <time>2022-09-27T13:07:46Z</time>
      </trkpt>
      <trkpt lat="46.17802" lon="6.00559">
        <ele>357.2</ele>
        <time>2022-09-27T13:07:47Z</time>
      </trkpt>
      <trkpt lat="46.17804" lon="6.00566">
        <ele>357.2</ele>
        <time>2022-09-27T13:07:48Z</time>
      </trkpt>
      <trkpt lat="46.17806" lon="6.00572">
        <ele>357.2</ele>
        <time>2022-09-27T13:07:49Z</time>
      </trkpt>
      <trkpt lat="46.17808" lon="6.00578">
        <ele>357.2</ele>
        <time>2022-09-27T13:07:50Z</time>
      </trkpt>
      <trkpt lat="46.1781" lon="6.00584">
        <ele>357.2</ele>
        <time>2022-09-27T13:07:51Z</time>
      </trkpt>
      <trkpt lat="46.17812" lon="6.0059">
        <ele>357.2</ele>
        <time>2022-09-27T13:07:52Z</time>
      </trkpt>
      <trkpt lat="46.17815" lon="6.00596">
        <ele>357.2</ele>
        <time>2022-09-27T13:07:53Z</time>
      </trkpt>
      <trkpt lat="46.17818" lon="6.006">
        <ele>357.2</ele>
        <time>2022-09-27T13:07:54Z</time>
      </trkpt>
      <trkpt lat="46.17822" lon="6.00605">
        <ele>357.2</ele>
        <time>2022-09-27T13:07:55Z</time>
      </trkpt>
      <trkpt lat="46.17825" lon="6.00609">
        <ele>357.2</ele>
        <time>2022-09-27T13:07:56Z</time>
      </trkpt>
      <trkpt lat="46.17829" lon="6.00614">
        <ele>357.2</ele>
        <time>2022-09-27T13:07:57Z</time>
      </trkpt>
      <trkpt lat="46.17833" lon="6.00618">
        <ele>357.2</ele>
        <time>2022-09-27T13:07:58Z</time>
      </trkpt>
      <trkpt lat="46.17836" lon="6.00622">
        <ele>357.2</ele>
        <time>2022-09-27T13:07:59Z</time>
      </trkpt>
      <trkpt lat="46.17841" lon="6.00627">
        <ele>357.2</ele>
        <time>2022-09-27T13:08:00Z</time>
      </trkpt>
      <trkpt lat="46.17845" lon="6.00631">
        <ele>357.2</ele>
        <time>2022-09-27T13:08:01Z</time>
      </trkpt>
      <trkpt lat="46.17848" lon="6.00635">
        <ele>357.2</ele>
        <time>2022-09-27T13:08:02Z</time>
      </trkpt>
      <trkpt lat="46.17852" lon="6.00639">
        <ele>357.2</ele>
        <time>2022-09-27T13:08:03Z</time>
      </trkpt>
      <trkpt lat="46.17856" lon="6.00641">
        <ele>357.1</ele>
        <time>2022-09-27T13:08:04Z</time>
      </trkpt>
      <trkpt lat="46.1786" lon="6.00644">
        <ele>357.1</ele>
        <time>2022-09-27T13:08:05Z</time>
      </trkpt>
      <trkpt lat="46.17863" lon="6.00646">
        <ele>357.1</ele>
        <time>2022-09-27T13:08:06Z</time>
      </trkpt>
      <trkpt lat="46.17867" lon="6.00649">
        <ele>357.1</ele>
        <time>2022-09-27T13:08:07Z</time>
      </trkpt>
      <trkpt lat="46.1787" lon="6.00651">
        <ele>357</ele>
        <time>2022-09-27T13:08:08Z</time>
      </trkpt>
      <trkpt lat="46.17874" lon="6.00653">
        <ele>357</ele>
        <time>2022-09-27T13:08:09Z</time>
      </trkpt>
      <trkpt lat="46.17878" lon="6.00656">
        <ele>357</ele>
        <time>2022-09-27T13:08:10Z</time>
      </trkpt>
      <trkpt lat="46.17881" lon="6.00657">
        <ele>356.9</ele>
        <time>2022-09-27T13:08:11Z</time>
      </trkpt>
      <trkpt lat="46.17883" lon="6.00657">
        <ele>356.9</ele>
        <time>2022-09-27T13:08:12Z</time>
      </trkpt>
      <trkpt lat="46.17885" lon="6.00658">
        <ele>356.9</ele>
        <time>2022-09-27T13:08:13Z</time>
      </trkpt>
      <trkpt lat="46.17887" lon="6.00658">
        <ele>356.9</ele>
        <time>2022-09-27T13:08:14Z</time>
      </trkpt>
      <trkpt lat="46.17891" lon="6.00658">
        <ele>356.9</ele>
        <time>2022-09-27T13:08:15Z</time>
      </trkpt>
      <trkpt lat="46.17892" lon="6.00658">
        <ele>356.9</ele>
        <time>2022-09-27T13:08:16Z</time>
      </trkpt>
      <trkpt lat="46.17895" lon="6.00657">
        <ele>356.9</ele>
        <time>2022-09-27T13:08:17Z</time>
      </trkpt>
      <trkpt lat="46.17899" lon="6.00656">
        <ele>356.9</ele>
        <time>2022-09-27T13:08:18Z</time>
      </trkpt>
      <trkpt lat="46.17901" lon="6.00655">
        <ele>356.9</ele>
        <time>2022-09-27T13:08:19Z</time>
      </trkpt>
      <trkpt lat="46.17902" lon="6.00655">
        <ele>356.9</ele>
        <time>2022-09-27T13:08:20Z</time>
      </trkpt>
      <trkpt lat="46.17905" lon="6.00653">
        <ele>356.9</ele>
        <time>2022-09-27T13:08:21Z</time>
      </trkpt>
      <trkpt lat="46.17906" lon="6.00653">
        <ele>356.9</ele>
        <time>2022-09-27T13:08:22Z</time>
      </trkpt>
      <trkpt lat="46.1791" lon="6.00653">
        <ele>356.8</ele>
        <time>2022-09-27T13:08:23Z</time>
      </trkpt>
      <trkpt lat="46.17916" lon="6.00654">
        <ele>356.8</ele>
        <time>2022-09-27T13:08:24Z</time>
      </trkpt>
      <trkpt lat="46.17923" lon="6.00655">
        <ele>356.7</ele>
        <time>2022-09-27T13:08:25Z</time>
      </trkpt>
      <trkpt lat="46.17928" lon="6.00657">
        <ele>356.6</ele>
        <time>2022-09-27T13:08:26Z</time>
      </trkpt>
      <trkpt lat="46.17933" lon="6.00659">
        <ele>356.5</ele>
        <time>2022-09-27T13:08:27Z</time>
      </trkpt>
      <trkpt lat="46.17939" lon="6.00661">
        <ele>356.4</ele>
        <time>2022-09-27T13:08:28Z</time>
      </trkpt>
      <trkpt lat="46.17945" lon="6.00662">
        <ele>356.3</ele>
        <time>2022-09-27T13:08:29Z</time>
      </trkpt>
      <trkpt lat="46.1795" lon="6.00664">
        <ele>356.3</ele>
        <time>2022-09-27T13:08:30Z</time>
      </trkpt>
      <trkpt lat="46.17956" lon="6.00667">
        <ele>356.2</ele>
        <time>2022-09-27T13:08:31Z</time>
      </trkpt>
      <trkpt lat="46.17962" lon="6.00669">
        <ele>356.2</ele>
        <time>2022-09-27T13:08:32Z</time>
      </trkpt>
      <trkpt lat="46.17967" lon="6.00671">
        <ele>356.2</ele>
        <time>2022-09-27T13:08:33Z</time>
      </trkpt>
      <trkpt lat="46.17973" lon="6.00672">
        <ele>356.2</ele>
        <time>2022-09-27T13:08:34Z</time>
      </trkpt>
      <trkpt lat="46.17979" lon="6.00674">
        <ele>356.2</ele>
        <time>2022-09-27T13:08:35Z</time>
      </trkpt>
      <trkpt lat="46.17985" lon="6.00676">
        <ele>356.2</ele>
        <time>2022-09-27T13:08:36Z</time>
      </trkpt>
      <trkpt lat="46.1799" lon="6.00678">
        <ele>356.2</ele>
        <time>2022-09-27T13:08:37Z</time>
      </trkpt>
      <trkpt lat="46.17996" lon="6.0068">
        <ele>356.2</ele>
        <time>2022-09-27T13:08:38Z</time>
      </trkpt>
      <trkpt lat="46.18001" lon="6.00682">
        <ele>356.3</ele>
        <time>2022-09-27T13:08:39Z</time>
      </trkpt>
      <trkpt lat="46.18006" lon="6.00684">
        <ele>356.3</ele>
        <time>2022-09-27T13:08:40Z</time>
      </trkpt>
      <trkpt lat="46.18012" lon="6.00686">
        <ele>356.3</ele>
        <time>2022-09-27T13:08:41Z</time>
      </trkpt>
      <trkpt lat="46.18017" lon="6.00688">
        <ele>356.3</ele>
        <time>2022-09-27T13:08:42Z</time>
      </trkpt>
      <trkpt lat="46.18022" lon="6.0069">
        <ele>356.4</ele>
        <time>2022-09-27T13:08:43Z</time>
      </trkpt>
      <trkpt lat="46.18027" lon="6.00692">
        <ele>356.4</ele>
        <time>2022-09-27T13:08:44Z</time>
      </trkpt>
      <trkpt lat="46.18033" lon="6.00694">
        <ele>356.5</ele>
        <time>2022-09-27T13:08:45Z</time>
      </trkpt>
      <trkpt lat="46.18038" lon="6.00696">
        <ele>356.5</ele>
        <time>2022-09-27T13:08:46Z</time>
      </trkpt>
      <trkpt lat="46.18044" lon="6.00698">
        <ele>356.6</ele>
        <time>2022-09-27T13:08:47Z</time>
      </trkpt>
      <trkpt lat="46.18049" lon="6.00699">
        <ele>356.7</ele>
        <time>2022-09-27T13:08:48Z</time>
      </trkpt>
      <trkpt lat="46.18055" lon="6.00701">
        <ele>356.7</ele>
        <time>2022-09-27T13:08:49Z</time>
      </trkpt>
      <trkpt lat="46.1806" lon="6.00703">
        <ele>356.7</ele>
        <time>2022-09-27T13:08:50Z</time>
      </trkpt>
      <trkpt lat="46.18065" lon="6.00705">
        <ele>356.8</ele>
        <time>2022-09-27T13:08:51Z</time>
      </trkpt>
      <trkpt lat="46.1807" lon="6.00707">
        <ele>356.8</ele>
        <time>2022-09-27T13:08:52Z</time>
      </trkpt>
      <trkpt lat="46.18074" lon="6.00708">
        <ele>356.8</ele>
        <time>2022-09-27T13:08:53Z</time>
      </trkpt>
      <trkpt lat="46.18079" lon="6.00709">
        <ele>356.8</ele>
        <time>2022-09-27T13:08:54Z</time>
      </trkpt>
      <trkpt lat="46.18084" lon="6.0071">
        <ele>356.9</ele>
        <time>2022-09-27T13:08:55Z</time>
      </trkpt>
      <trkpt lat="46.18089" lon="6.00712">
        <ele>356.9</ele>
        <time>2022-09-27T13:08:56Z</time>
      </trkpt>
      <trkpt lat="46.18094" lon="6.00714">
        <ele>356.9</ele>
        <time>2022-09-27T13:08:57Z</time>
      </trkpt>
      <trkpt lat="46.18099" lon="6.00716">
        <ele>357</ele>
        <time>2022-09-27T13:08:58Z</time>
      </trkpt>
      <trkpt lat="46.18103" lon="6.00717">
        <ele>357</ele>
        <time>2022-09-27T13:08:59Z</time>
      </trkpt>
      <trkpt lat="46.18107" lon="6.00719">
        <ele>357.1</ele>
        <time>2022-09-27T13:09:00Z</time>
      </trkpt>
      <trkpt lat="46.18112" lon="6.00721">
        <ele>357.1</ele>
        <time>2022-09-27T13:09:01Z</time>
      </trkpt>
      <trkpt lat="46.18116" lon="6.00722">
        <ele>357.1</ele>
        <time>2022-09-27T13:09:02Z</time>
      </trkpt>
      <trkpt lat="46.1812" lon="6.00724">
        <ele>357.2</ele>
        <time>2022-09-27T13:09:03Z</time>
      </trkpt>
      <trkpt lat="46.18125" lon="6.00726">
        <ele>357.2</ele>
        <time>2022-09-27T13:09:04Z</time>
      </trkpt>
      <trkpt lat="46.18129" lon="6.00728">
        <ele>357.3</ele>
        <time>2022-09-27T13:09:05Z</time>
      </trkpt>
      <trkpt lat="46.18133" lon="6.00731">
        <ele>357.3</ele>
        <time>2022-09-27T13:09:06Z</time>
      </trkpt>
      <trkpt lat="46.18136" lon="6.00733">
        <ele>357.3</ele>
        <time>2022-09-27T13:09:07Z</time>
      </trkpt>
      <trkpt lat="46.18141" lon="6.00735">
        <ele>357.4</ele>
        <time>2022-09-27T13:09:08Z</time>
      </trkpt>
      <trkpt lat="46.18145" lon="6.00737">
        <ele>357.4</ele>
        <time>2022-09-27T13:09:09Z</time>
      </trkpt>
      <trkpt lat="46.18148" lon="6.0074">
        <ele>357.5</ele>
        <time>2022-09-27T13:09:10Z</time>
      </trkpt>
      <trkpt lat="46.18152" lon="6.00742">
        <ele>357.5</ele>
        <time>2022-09-27T13:09:11Z</time>
      </trkpt>
      <trkpt lat="46.18155" lon="6.00745">
        <ele>357.5</ele>
        <time>2022-09-27T13:09:12Z</time>
      </trkpt>
      <trkpt lat="46.18159" lon="6.00747">
        <ele>357.6</ele>
        <time>2022-09-27T13:09:13Z</time>
      </trkpt>
      <trkpt lat="46.18163" lon="6.0075">
        <ele>357.6</ele>
        <time>2022-09-27T13:09:14Z</time>
      </trkpt>
      <trkpt lat="46.18167" lon="6.00753">
        <ele>357.7</ele>
        <time>2022-09-27T13:09:15Z</time>
      </trkpt>
      <trkpt lat="46.1817" lon="6.00756">
        <ele>357.7</ele>
        <time>2022-09-27T13:09:16Z</time>
      </trkpt>
      <trkpt lat="46.18174" lon="6.00758">
        <ele>357.8</ele>
        <time>2022-09-27T13:09:17Z</time>
      </trkpt>
      <trkpt lat="46.18179" lon="6.00761">
        <ele>357.9</ele>
        <time>2022-09-27T13:09:18Z</time>
      </trkpt>
      <trkpt lat="46.18181" lon="6.00763">
        <ele>357.9</ele>
        <time>2022-09-27T13:09:19Z</time>
      </trkpt>
      <trkpt lat="46.18185" lon="6.00765">
        <ele>358</ele>
        <time>2022-09-27T13:09:20Z</time>
      </trkpt>
      <trkpt lat="46.18188" lon="6.00767">
        <ele>358</ele>
        <time>2022-09-27T13:09:21Z</time>
      </trkpt>
      <trkpt lat="46.18191" lon="6.00769">
        <ele>358.1</ele>
        <time>2022-09-27T13:09:22Z</time>
      </trkpt>
      <trkpt lat="46.18194" lon="6.00772">
        <ele>358.1</ele>
        <time>2022-09-27T13:09:23Z</time>
      </trkpt>
      <trkpt lat="46.18196" lon="6.00774">
        <ele>358.2</ele>
        <time>2022-09-27T13:09:24Z</time>
      </trkpt>
      <trkpt lat="46.18199" lon="6.00777">
        <ele>358.2</ele>
        <time>2022-09-27T13:09:25Z</time>
      </trkpt>
      <trkpt lat="46.18202" lon="6.00779">
        <ele>358.3</ele>
        <time>2022-09-27T13:09:26Z</time>
      </trkpt>
      <trkpt lat="46.18206" lon="6.00781">
        <ele>358.3</ele>
        <time>2022-09-27T13:09:27Z</time>
      </trkpt>
      <trkpt lat="46.1821" lon="6.00784">
        <ele>358.4</ele>
        <time>2022-09-27T13:09:28Z</time>
      </trkpt>
      <trkpt lat="46.18214" lon="6.00785">
        <ele>358.4</ele>
        <time>2022-09-27T13:09:29Z</time>
      </trkpt>
      <trkpt lat="46.18218" lon="6.00786">
        <ele>358.5</ele>
        <time>2022-09-27T13:09:30Z</time>
      </trkpt>
      <trkpt lat="46.18222" lon="6.00786">
        <ele>358.6</ele>
        <time>2022-09-27T13:09:31Z</time>
      </trkpt>
      <trkpt lat="46.18227" lon="6.00786">
        <ele>358.7</ele>
        <time>2022-09-27T13:09:32Z</time>
      </trkpt>
      <trkpt lat="46.18232" lon="6.00786">
        <ele>358.7</ele>
        <time>2022-09-27T13:09:33Z</time>
      </trkpt>
      <trkpt lat="46.18236" lon="6.00786">
        <ele>358.8</ele>
        <time>2022-09-27T13:09:34Z</time>
      </trkpt>
      <trkpt lat="46.1824" lon="6.00785">
        <ele>358.9</ele>
        <time>2022-09-27T13:09:35Z</time>
      </trkpt>
      <trkpt lat="46.18244" lon="6.00785">
        <ele>358.9</ele>
        <time>2022-09-27T13:09:36Z</time>
      </trkpt>
      <trkpt lat="46.18247" lon="6.00784">
        <ele>359</ele>
        <time>2022-09-27T13:09:37Z</time>
      </trkpt>
      <trkpt lat="46.18251" lon="6.00784">
        <ele>359</ele>
        <time>2022-09-27T13:09:38Z</time>
      </trkpt>
      <trkpt lat="46.18254" lon="6.00783">
        <ele>359.1</ele>
        <time>2022-09-27T13:09:39Z</time>
      </trkpt>
      <trkpt lat="46.18257" lon="6.00782">
        <ele>359.1</ele>
        <time>2022-09-27T13:09:40Z</time>
      </trkpt>
      <trkpt lat="46.1826" lon="6.00782">
        <ele>359.2</ele>
        <time>2022-09-27T13:09:41Z</time>
      </trkpt>
      <trkpt lat="46.18264" lon="6.00782">
        <ele>359.2</ele>
        <time>2022-09-27T13:09:42Z</time>
      </trkpt>
      <trkpt lat="46.18265" lon="6.00782">
        <ele>359.3</ele>
        <time>2022-09-27T13:09:43Z</time>
      </trkpt>
      <trkpt lat="46.18269" lon="6.00782">
        <ele>359.3</ele>
        <time>2022-09-27T13:09:44Z</time>
      </trkpt>
      <trkpt lat="46.18272" lon="6.00782">
        <ele>359.4</ele>
        <time>2022-09-27T13:09:45Z</time>
      </trkpt>
      <trkpt lat="46.18276" lon="6.00782">
        <ele>359.4</ele>
        <time>2022-09-27T13:09:46Z</time>
      </trkpt>
      <trkpt lat="46.18279" lon="6.00783">
        <ele>359.5</ele>
        <time>2022-09-27T13:09:47Z</time>
      </trkpt>
      <trkpt lat="46.18283" lon="6.00783">
        <ele>359.5</ele>
        <time>2022-09-27T13:09:48Z</time>
      </trkpt>
      <trkpt lat="46.18286" lon="6.00783">
        <ele>359.6</ele>
        <time>2022-09-27T13:09:49Z</time>
      </trkpt>
      <trkpt lat="46.1829" lon="6.00782">
        <ele>359.7</ele>
        <time>2022-09-27T13:09:50Z</time>
      </trkpt>
      <trkpt lat="46.18293" lon="6.00782">
        <ele>359.7</ele>
        <time>2022-09-27T13:09:51Z</time>
      </trkpt>
      <trkpt lat="46.18297" lon="6.00782">
        <ele>359.8</ele>
        <time>2022-09-27T13:09:52Z</time>
      </trkpt>
      <trkpt lat="46.183" lon="6.00782">
        <ele>359.9</ele>
        <time>2022-09-27T13:09:53Z</time>
      </trkpt>
      <trkpt lat="46.18304" lon="6.00783">
        <ele>359.9</ele>
        <time>2022-09-27T13:09:54Z</time>
      </trkpt>
      <trkpt lat="46.18307" lon="6.00783">
        <ele>360</ele>
        <time>2022-09-27T13:09:55Z</time>
      </trkpt>
      <trkpt lat="46.1831" lon="6.00784">
        <ele>360.1</ele>
        <time>2022-09-27T13:09:56Z</time>
      </trkpt>
      <trkpt lat="46.18313" lon="6.00784">
        <ele>360.1</ele>
        <time>2022-09-27T13:09:57Z</time>
      </trkpt>
      <trkpt lat="46.18317" lon="6.00786">
        <ele>360.2</ele>
        <time>2022-09-27T13:09:58Z</time>
      </trkpt>
      <trkpt lat="46.1832" lon="6.00786">
        <ele>360.2</ele>
        <time>2022-09-27T13:09:59Z</time>
      </trkpt>
      <trkpt lat="46.18323" lon="6.00787">
        <ele>360.3</ele>
        <time>2022-09-27T13:10:00Z</time>
      </trkpt>
      <trkpt lat="46.18326" lon="6.00787">
        <ele>360.4</ele>
        <time>2022-09-27T13:10:01Z</time>
      </trkpt>
      <trkpt lat="46.18329" lon="6.00788">
        <ele>360.4</ele>
        <time>2022-09-27T13:10:02Z</time>
      </trkpt>
      <trkpt lat="46.18332" lon="6.00788">
        <ele>360.5</ele>
        <time>2022-09-27T13:10:03Z</time>
      </trkpt>
      <trkpt lat="46.18336" lon="6.00789">
        <ele>360.6</ele>
        <time>2022-09-27T13:10:04Z</time>
      </trkpt>
      <trkpt lat="46.18337" lon="6.00789">
        <ele>360.6</ele>
        <time>2022-09-27T13:10:05Z</time>
      </trkpt>
      <trkpt lat="46.18341" lon="6.0079">
        <ele>360.7</ele>
        <time>2022-09-27T13:10:06Z</time>
      </trkpt>
      <trkpt lat="46.18344" lon="6.00791">
        <ele>360.7</ele>
        <time>2022-09-27T13:10:07Z</time>
      </trkpt>
      <trkpt lat="46.18347" lon="6.00792">
        <ele>360.8</ele>
        <time>2022-09-27T13:10:08Z</time>
      </trkpt>
      <trkpt lat="46.18349" lon="6.00793">
        <ele>360.8</ele>
        <time>2022-09-27T13:10:09Z</time>
      </trkpt>
      <trkpt lat="46.18352" lon="6.00794">
        <ele>360.9</ele>
        <time>2022-09-27T13:10:10Z</time>
      </trkpt>
      <trkpt lat="46.18355" lon="6.00795">
        <ele>361</ele>
        <time>2022-09-27T13:10:11Z</time>
      </trkpt>
      <trkpt lat="46.18358" lon="6.00795">
        <ele>361</ele>
        <time>2022-09-27T13:10:12Z</time>
      </trkpt>
      <trkpt lat="46.18361" lon="6.00796">
        <ele>361.1</ele>
        <time>2022-09-27T13:10:13Z</time>
      </trkpt>
      <trkpt lat="46.18365" lon="6.00797">
        <ele>361.2</ele>
        <time>2022-09-27T13:10:14Z</time>
      </trkpt>
      <trkpt lat="46.18368" lon="6.00797">
        <ele>361.2</ele>
        <time>2022-09-27T13:10:15Z</time>
      </trkpt>
      <trkpt lat="46.18372" lon="6.00798">
        <ele>361.3</ele>
        <time>2022-09-27T13:10:16Z</time>
      </trkpt>
      <trkpt lat="46.18376" lon="6.00799">
        <ele>361.4</ele>
        <time>2022-09-27T13:10:17Z</time>
      </trkpt>
      <trkpt lat="46.18379" lon="6.00801">
        <ele>361.5</ele>
        <time>2022-09-27T13:10:18Z</time>
      </trkpt>
      <trkpt lat="46.18382" lon="6.00802">
        <ele>361.5</ele>
        <time>2022-09-27T13:10:19Z</time>
      </trkpt>
      <trkpt lat="46.18386" lon="6.00803">
        <ele>361.6</ele>
        <time>2022-09-27T13:10:20Z</time>
      </trkpt>
      <trkpt lat="46.1839" lon="6.00804">
        <ele>361.6</ele>
        <time>2022-09-27T13:10:21Z</time>
      </trkpt>
      <trkpt lat="46.18394" lon="6.00805">
        <ele>361.7</ele>
        <time>2022-09-27T13:10:22Z</time>
      </trkpt>
      <trkpt lat="46.18398" lon="6.00806">
        <ele>361.7</ele>
        <time>2022-09-27T13:10:23Z</time>
      </trkpt>
      <trkpt lat="46.18401" lon="6.00808">
        <ele>361.8</ele>
        <time>2022-09-27T13:10:24Z</time>
      </trkpt>
      <trkpt lat="46.18405" lon="6.00809">
        <ele>361.8</ele>
        <time>2022-09-27T13:10:25Z</time>
      </trkpt>
      <trkpt lat="46.18409" lon="6.00811">
        <ele>361.9</ele>
        <time>2022-09-27T13:10:26Z</time>
      </trkpt>
      <trkpt lat="46.18413" lon="6.00812">
        <ele>362</ele>
        <time>2022-09-27T13:10:27Z</time>
      </trkpt>
      <trkpt lat="46.18416" lon="6.00815">
        <ele>362</ele>
        <time>2022-09-27T13:10:28Z</time>
      </trkpt>
      <trkpt lat="46.1842" lon="6.00816">
        <ele>362.1</ele>
        <time>2022-09-27T13:10:29Z</time>
      </trkpt>
      <trkpt lat="46.18423" lon="6.00817">
        <ele>362.1</ele>
        <time>2022-09-27T13:10:30Z</time>
      </trkpt>
      <trkpt lat="46.18426" lon="6.00819">
        <ele>362.2</ele>
        <time>2022-09-27T13:10:31Z</time>
      </trkpt>
      <trkpt lat="46.18429" lon="6.00821">
        <ele>362.3</ele>
        <time>2022-09-27T13:10:32Z</time>
      </trkpt>
      <trkpt lat="46.18432" lon="6.00823">
        <ele>362.3</ele>
        <time>2022-09-27T13:10:33Z</time>
      </trkpt>
      <trkpt lat="46.18435" lon="6.00825">
        <ele>362.4</ele>
        <time>2022-09-27T13:10:34Z</time>
      </trkpt>
      <trkpt lat="46.18438" lon="6.00827">
        <ele>362.5</ele>
        <time>2022-09-27T13:10:35Z</time>
      </trkpt>
      <trkpt lat="46.18441" lon="6.00829">
        <ele>362.5</ele>
        <time>2022-09-27T13:10:36Z</time>
      </trkpt>
      <trkpt lat="46.18445" lon="6.00831">
        <ele>362.6</ele>
        <time>2022-09-27T13:10:37Z</time>
      </trkpt>
      <trkpt lat="46.18448" lon="6.00833">
        <ele>362.7</ele>
        <time>2022-09-27T13:10:38Z</time>
      </trkpt>
      <trkpt lat="46.18452" lon="6.00835">
        <ele>362.7</ele>
        <time>2022-09-27T13:10:39Z</time>
      </trkpt>
      <trkpt lat="46.18455" lon="6.00836">
        <ele>362.8</ele>
        <time>2022-09-27T13:10:40Z</time>
      </trkpt>
      <trkpt lat="46.18457" lon="6.00838">
        <ele>362.8</ele>
        <time>2022-09-27T13:10:41Z</time>
      </trkpt>
      <trkpt lat="46.18461" lon="6.0084">
        <ele>362.9</ele>
        <time>2022-09-27T13:10:42Z</time>
      </trkpt>
      <trkpt lat="46.18464" lon="6.00842">
        <ele>363</ele>
        <time>2022-09-27T13:10:43Z</time>
      </trkpt>
      <trkpt lat="46.18467" lon="6.00844">
        <ele>363</ele>
        <time>2022-09-27T13:10:44Z</time>
      </trkpt>
      <trkpt lat="46.18471" lon="6.00845">
        <ele>363.1</ele>
        <time>2022-09-27T13:10:45Z</time>
      </trkpt>
      <trkpt lat="46.18474" lon="6.00847">
        <ele>363.2</ele>
        <time>2022-09-27T13:10:46Z</time>
      </trkpt>
      <trkpt lat="46.18478" lon="6.00848">
        <ele>363.3</ele>
        <time>2022-09-27T13:10:47Z</time>
      </trkpt>
      <trkpt lat="46.1848" lon="6.0085">
        <ele>363.3</ele>
        <time>2022-09-27T13:10:48Z</time>
      </trkpt>
      <trkpt lat="46.18484" lon="6.00851">
        <ele>363.4</ele>
        <time>2022-09-27T13:10:49Z</time>
      </trkpt>
      <trkpt lat="46.18487" lon="6.00853">
        <ele>363.5</ele>
        <time>2022-09-27T13:10:50Z</time>
      </trkpt>
      <trkpt lat="46.1849" lon="6.00854">
        <ele>363.6</ele>
        <time>2022-09-27T13:10:51Z</time>
      </trkpt>
      <trkpt lat="46.18493" lon="6.00854">
        <ele>363.6</ele>
        <time>2022-09-27T13:10:52Z</time>
      </trkpt>
      <trkpt lat="46.18496" lon="6.00856">
        <ele>363.6</ele>
        <time>2022-09-27T13:10:53Z</time>
      </trkpt>
      <trkpt lat="46.18499" lon="6.00857">
        <ele>363.6</ele>
        <time>2022-09-27T13:10:54Z</time>
      </trkpt>
      <trkpt lat="46.18503" lon="6.00857">
        <ele>363.7</ele>
        <time>2022-09-27T13:10:55Z</time>
      </trkpt>
      <trkpt lat="46.18507" lon="6.00857">
        <ele>363.7</ele>
        <time>2022-09-27T13:10:56Z</time>
      </trkpt>
      <trkpt lat="46.1851" lon="6.00858">
        <ele>363.7</ele>
        <time>2022-09-27T13:10:57Z</time>
      </trkpt>
      <trkpt lat="46.18513" lon="6.00858">
        <ele>363.8</ele>
        <time>2022-09-27T13:10:58Z</time>
      </trkpt>
      <trkpt lat="46.18516" lon="6.00858">
        <ele>363.8</ele>
        <time>2022-09-27T13:10:59Z</time>
      </trkpt>
      <trkpt lat="46.18519" lon="6.00859">
        <ele>363.8</ele>
        <time>2022-09-27T13:11:00Z</time>
      </trkpt>
      <trkpt lat="46.18522" lon="6.0086">
        <ele>363.8</ele>
        <time>2022-09-27T13:11:01Z</time>
      </trkpt>
      <trkpt lat="46.18525" lon="6.00859">
        <ele>363.9</ele>
        <time>2022-09-27T13:11:02Z</time>
      </trkpt>
      <trkpt lat="46.18528" lon="6.00859">
        <ele>364</ele>
        <time>2022-09-27T13:11:03Z</time>
      </trkpt>
      <trkpt lat="46.18529" lon="6.00859">
        <ele>364</ele>
        <time>2022-09-27T13:11:04Z</time>
      </trkpt>
      <trkpt lat="46.18532" lon="6.0086">
        <ele>364.1</ele>
        <time>2022-09-27T13:11:05Z</time>
      </trkpt>
      <trkpt lat="46.18534" lon="6.00862">
        <ele>364.1</ele>
        <time>2022-09-27T13:11:06Z</time>
      </trkpt>
      <trkpt lat="46.18538" lon="6.00865">
        <ele>364.1</ele>
        <time>2022-09-27T13:11:07Z</time>
      </trkpt>
      <trkpt lat="46.18539" lon="6.00866">
        <ele>364.1</ele>
        <time>2022-09-27T13:11:08Z</time>
      </trkpt>
      <trkpt lat="46.18541" lon="6.00869">
        <ele>364.1</ele>
        <time>2022-09-27T13:11:09Z</time>
      </trkpt>
      <trkpt lat="46.18543" lon="6.00873">
        <ele>364.2</ele>
        <time>2022-09-27T13:11:10Z</time>
      </trkpt>
      <trkpt lat="46.18545" lon="6.00881">
        <ele>364.1</ele>
        <time>2022-09-27T13:11:11Z</time>
      </trkpt>
      <trkpt lat="46.18547" lon="6.00886">
        <ele>364.1</ele>
        <time>2022-09-27T13:11:12Z</time>
      </trkpt>
      <trkpt lat="46.18549" lon="6.00891">
        <ele>364.1</ele>
        <time>2022-09-27T13:11:13Z</time>
      </trkpt>
      <trkpt lat="46.18551" lon="6.00897">
        <ele>364.1</ele>
        <time>2022-09-27T13:11:14Z</time>
      </trkpt>
      <trkpt lat="46.18554" lon="6.00903">
        <ele>364</ele>
        <time>2022-09-27T13:11:15Z</time>
      </trkpt>
      <trkpt lat="46.18556" lon="6.00908">
        <ele>364</ele>
        <time>2022-09-27T13:11:16Z</time>
      </trkpt>
      <trkpt lat="46.18559" lon="6.00913">
        <ele>364</ele>
        <time>2022-09-27T13:11:17Z</time>
      </trkpt>
      <trkpt lat="46.18562" lon="6.00918">
        <ele>363.9</ele>
        <time>2022-09-27T13:11:18Z</time>
      </trkpt>
      <trkpt lat="46.18565" lon="6.00924">
        <ele>363.9</ele>
        <time>2022-09-27T13:11:19Z</time>
      </trkpt>
      <trkpt lat="46.18568" lon="6.00929">
        <ele>363.9</ele>
        <time>2022-09-27T13:11:20Z</time>
      </trkpt>
      <trkpt lat="46.1857" lon="6.00934">
        <ele>363.9</ele>
        <time>2022-09-27T13:11:21Z</time>
      </trkpt>
      <trkpt lat="46.18573" lon="6.0094">
        <ele>363.8</ele>
        <time>2022-09-27T13:11:22Z</time>
      </trkpt>
      <trkpt lat="46.18575" lon="6.00945">
        <ele>363.8</ele>
        <time>2022-09-27T13:11:23Z</time>
      </trkpt>
      <trkpt lat="46.18577" lon="6.00951">
        <ele>363.8</ele>
        <time>2022-09-27T13:11:24Z</time>
      </trkpt>
      <trkpt lat="46.18579" lon="6.00956">
        <ele>363.8</ele>
        <time>2022-09-27T13:11:25Z</time>
      </trkpt>
      <trkpt lat="46.18581" lon="6.00962">
        <ele>363.8</ele>
        <time>2022-09-27T13:11:26Z</time>
      </trkpt>
      <trkpt lat="46.18582" lon="6.00968">
        <ele>363.8</ele>
        <time>2022-09-27T13:11:27Z</time>
      </trkpt>
      <trkpt lat="46.18583" lon="6.00973">
        <ele>363.8</ele>
        <time>2022-09-27T13:11:28Z</time>
      </trkpt>
      <trkpt lat="46.18584" lon="6.00979">
        <ele>363.8</ele>
        <time>2022-09-27T13:11:29Z</time>
      </trkpt>
      <trkpt lat="46.18584" lon="6.00985">
        <ele>363.9</ele>
        <time>2022-09-27T13:11:30Z</time>
      </trkpt>
      <trkpt lat="46.18584" lon="6.00991">
        <ele>363.9</ele>
        <time>2022-09-27T13:11:31Z</time>
      </trkpt>
      <trkpt lat="46.18585" lon="6.00996">
        <ele>364</ele>
        <time>2022-09-27T13:11:32Z</time>
      </trkpt>
      <trkpt lat="46.18584" lon="6.01002">
        <ele>364</ele>
        <time>2022-09-27T13:11:33Z</time>
      </trkpt>
      <trkpt lat="46.18583" lon="6.01009">
        <ele>364.1</ele>
        <time>2022-09-27T13:11:34Z</time>
      </trkpt>
      <trkpt lat="46.18581" lon="6.01015">
        <ele>364.1</ele>
        <time>2022-09-27T13:11:35Z</time>
      </trkpt>
      <trkpt lat="46.1858" lon="6.0102">
        <ele>364.2</ele>
        <time>2022-09-27T13:11:36Z</time>
      </trkpt>
      <trkpt lat="46.18577" lon="6.01025">
        <ele>364.3</ele>
        <time>2022-09-27T13:11:37Z</time>
      </trkpt>
      <trkpt lat="46.18575" lon="6.0103">
        <ele>364.4</ele>
        <time>2022-09-27T13:11:38Z</time>
      </trkpt>
      <trkpt lat="46.18573" lon="6.01034">
        <ele>364.5</ele>
        <time>2022-09-27T13:11:39Z</time>
      </trkpt>
      <trkpt lat="46.18571" lon="6.01039">
        <ele>364.7</ele>
        <time>2022-09-27T13:11:40Z</time>
      </trkpt>
      <trkpt lat="46.18569" lon="6.01043">
        <ele>364.8</ele>
        <time>2022-09-27T13:11:41Z</time>
      </trkpt>
      <trkpt lat="46.18567" lon="6.01047">
        <ele>364.9</ele>
        <time>2022-09-27T13:11:42Z</time>
      </trkpt>
      <trkpt lat="46.18565" lon="6.01051">
        <ele>365.1</ele>
        <time>2022-09-27T13:11:43Z</time>
      </trkpt>
      <trkpt lat="46.18563" lon="6.01055">
        <ele>365.2</ele>
        <time>2022-09-27T13:11:44Z</time>
      </trkpt>
      <trkpt lat="46.18561" lon="6.01058">
        <ele>365.3</ele>
        <time>2022-09-27T13:11:45Z</time>
      </trkpt>
      <trkpt lat="46.18558" lon="6.01062">
        <ele>365.5</ele>
        <time>2022-09-27T13:11:46Z</time>
      </trkpt>
      <trkpt lat="46.18557" lon="6.01064">
        <ele>365.6</ele>
        <time>2022-09-27T13:11:47Z</time>
      </trkpt>
      <trkpt lat="46.18555" lon="6.01067">
        <ele>365.8</ele>
        <time>2022-09-27T13:11:48Z</time>
      </trkpt>
      <trkpt lat="46.18553" lon="6.0107">
        <ele>366</ele>
        <time>2022-09-27T13:11:49Z</time>
      </trkpt>
      <trkpt lat="46.18551" lon="6.01072">
        <ele>366.2</ele>
        <time>2022-09-27T13:11:50Z</time>
      </trkpt>
      <trkpt lat="46.18548" lon="6.01074">
        <ele>366.4</ele>
        <time>2022-09-27T13:11:51Z</time>
      </trkpt>
      <trkpt lat="46.18547" lon="6.01075">
        <ele>366.5</ele>
        <time>2022-09-27T13:11:52Z</time>
      </trkpt>
      <trkpt lat="46.18546" lon="6.01076">
        <ele>366.6</ele>
        <time>2022-09-27T13:11:53Z</time>
      </trkpt>
      <trkpt lat="46.18545" lon="6.01078">
        <ele>366.7</ele>
        <time>2022-09-27T13:11:54Z</time>
      </trkpt>
      <trkpt lat="46.18543" lon="6.01079">
        <ele>366.8</ele>
        <time>2022-09-27T13:11:55Z</time>
      </trkpt>
      <trkpt lat="46.18541" lon="6.01082">
        <ele>367</ele>
        <time>2022-09-27T13:11:56Z</time>
      </trkpt>
      <trkpt lat="46.1854" lon="6.01083">
        <ele>367.1</ele>
        <time>2022-09-27T13:11:57Z</time>
      </trkpt>
      <trkpt lat="46.18537" lon="6.01085">
        <ele>367.3</ele>
        <time>2022-09-27T13:11:58Z</time>
      </trkpt>
      <trkpt lat="46.18535" lon="6.01087">
        <ele>367.5</ele>
        <time>2022-09-27T13:11:59Z</time>
      </trkpt>
      <trkpt lat="46.18532" lon="6.01089">
        <ele>367.7</ele>
        <time>2022-09-27T13:12:00Z</time>
      </trkpt>
      <trkpt lat="46.1853" lon="6.01092">
        <ele>367.9</ele>
        <time>2022-09-27T13:12:01Z</time>
      </trkpt>
      <trkpt lat="46.18527" lon="6.01094">
        <ele>368.1</ele>
        <time>2022-09-27T13:12:02Z</time>
      </trkpt>
      <trkpt lat="46.18526" lon="6.01095">
        <ele>368.2</ele>
        <time>2022-09-27T13:12:03Z</time>
      </trkpt>
      <trkpt lat="46.18523" lon="6.01097">
        <ele>368.5</ele>
        <time>2022-09-27T13:12:04Z</time>
      </trkpt>
      <trkpt lat="46.18522" lon="6.01098">
        <ele>368.5</ele>
        <time>2022-09-27T13:12:05Z</time>
      </trkpt>
      <trkpt lat="46.18519" lon="6.01099">
        <ele>368.7</ele>
        <time>2022-09-27T13:12:06Z</time>
      </trkpt>
      <trkpt lat="46.18519" lon="6.01099">
        <ele>368.8</ele>
        <time>2022-09-27T13:12:07Z</time>
      </trkpt>
      <trkpt lat="46.18516" lon="6.01102">
        <ele>369</ele>
        <time>2022-09-27T13:12:08Z</time>
      </trkpt>
      <trkpt lat="46.18515" lon="6.01102">
        <ele>369.1</ele>
        <time>2022-09-27T13:12:09Z</time>
      </trkpt>
      <trkpt lat="46.18513" lon="6.01103">
        <ele>369.2</ele>
        <time>2022-09-27T13:12:10Z</time>
      </trkpt>
      <trkpt lat="46.18512" lon="6.01103">
        <ele>369.3</ele>
        <time>2022-09-27T13:12:11Z</time>
      </trkpt>
      <trkpt lat="46.18509" lon="6.01104">
        <ele>369.5</ele>
        <time>2022-09-27T13:12:12Z</time>
      </trkpt>
      <trkpt lat="46.18508" lon="6.01104">
        <ele>369.6</ele>
        <time>2022-09-27T13:12:13Z</time>
      </trkpt>
      <trkpt lat="46.18507" lon="6.01104">
        <ele>369.7</ele>
        <time>2022-09-27T13:12:14Z</time>
      </trkpt>
      <trkpt lat="46.18506" lon="6.01105">
        <ele>369.8</ele>
        <time>2022-09-27T13:12:15Z</time>
      </trkpt>
      <trkpt lat="46.18504" lon="6.01106">
        <ele>369.9</ele>
        <time>2022-09-27T13:12:16Z</time>
      </trkpt>
      <trkpt lat="46.18501" lon="6.01106">
        <ele>370.2</ele>
        <time>2022-09-27T13:12:17Z</time>
      </trkpt>
      <trkpt lat="46.185" lon="6.01106">
        <ele>370.3</ele>
        <time>2022-09-27T13:12:18Z</time>
      </trkpt>
      <trkpt lat="46.18497" lon="6.01107">
        <ele>370.5</ele>
        <time>2022-09-27T13:12:19Z</time>
      </trkpt>
      <trkpt lat="46.18496" lon="6.01107">
        <ele>370.6</ele>
        <time>2022-09-27T13:12:20Z</time>
      </trkpt>
      <trkpt lat="46.18493" lon="6.01107">
        <ele>370.8</ele>
        <time>2022-09-27T13:12:21Z</time>
      </trkpt>
      <trkpt lat="46.18492" lon="6.01107">
        <ele>370.9</ele>
        <time>2022-09-27T13:12:22Z</time>
      </trkpt>
      <trkpt lat="46.1849" lon="6.01107">
        <ele>371</ele>
        <time>2022-09-27T13:12:23Z</time>
      </trkpt>
      <trkpt lat="46.18489" lon="6.01107">
        <ele>371.1</ele>
        <time>2022-09-27T13:12:24Z</time>
      </trkpt>
      <trkpt lat="46.18486" lon="6.01108">
        <ele>371.3</ele>
        <time>2022-09-27T13:12:25Z</time>
      </trkpt>
      <trkpt lat="46.18485" lon="6.01108">
        <ele>371.3</ele>
        <time>2022-09-27T13:12:26Z</time>
      </trkpt>
      <trkpt lat="46.18482" lon="6.01108">
        <ele>371.6</ele>
        <time>2022-09-27T13:12:27Z</time>
      </trkpt>
      <trkpt lat="46.18481" lon="6.01108">
        <ele>371.6</ele>
        <time>2022-09-27T13:12:28Z</time>
      </trkpt>
      <trkpt lat="46.18479" lon="6.01108">
        <ele>371.8</ele>
        <time>2022-09-27T13:12:29Z</time>
      </trkpt>
      <trkpt lat="46.18478" lon="6.01108">
        <ele>371.8</ele>
        <time>2022-09-27T13:12:30Z</time>
      </trkpt>
      <trkpt lat="46.18477" lon="6.01109">
        <ele>371.9</ele>
        <time>2022-09-27T13:12:31Z</time>
      </trkpt>
      <trkpt lat="46.18475" lon="6.01109">
        <ele>372</ele>
        <time>2022-09-27T13:12:32Z</time>
      </trkpt>
      <trkpt lat="46.18474" lon="6.01109">
        <ele>372.1</ele>
        <time>2022-09-27T13:12:33Z</time>
      </trkpt>
      <trkpt lat="46.18472" lon="6.01109">
        <ele>372.3</ele>
        <time>2022-09-27T13:12:34Z</time>
      </trkpt>
      <trkpt lat="46.18471" lon="6.01109">
        <ele>372.3</ele>
        <time>2022-09-27T13:12:35Z</time>
      </trkpt>
      <trkpt lat="46.18467" lon="6.01109">
        <ele>372.5</ele>
        <time>2022-09-27T13:12:36Z</time>
      </trkpt>
      <trkpt lat="46.18466" lon="6.01109">
        <ele>372.6</ele>
        <time>2022-09-27T13:12:37Z</time>
      </trkpt>
      <trkpt lat="46.18463" lon="6.01109">
        <ele>372.8</ele>
        <time>2022-09-27T13:12:38Z</time>
      </trkpt>
      <trkpt lat="46.18462" lon="6.01109">
        <ele>372.9</ele>
        <time>2022-09-27T13:12:39Z</time>
      </trkpt>
      <trkpt lat="46.1846" lon="6.01109">
        <ele>373</ele>
        <time>2022-09-27T13:12:40Z</time>
      </trkpt>
      <trkpt lat="46.18458" lon="6.0111">
        <ele>373.1</ele>
        <time>2022-09-27T13:12:41Z</time>
      </trkpt>
      <trkpt lat="46.18456" lon="6.01111">
        <ele>373.2</ele>
        <time>2022-09-27T13:12:42Z</time>
      </trkpt>
      <trkpt lat="46.18455" lon="6.01111">
        <ele>373.3</ele>
        <time>2022-09-27T13:12:43Z</time>
      </trkpt>
      <trkpt lat="46.18453" lon="6.01111">
        <ele>373.4</ele>
        <time>2022-09-27T13:12:44Z</time>
      </trkpt>
      <trkpt lat="46.18451" lon="6.01111">
        <ele>373.5</ele>
        <time>2022-09-27T13:12:45Z</time>
      </trkpt>
      <trkpt lat="46.18448" lon="6.01112">
        <ele>373.7</ele>
        <time>2022-09-27T13:12:46Z</time>
      </trkpt>
      <trkpt lat="46.18447" lon="6.01112">
        <ele>373.8</ele>
        <time>2022-09-27T13:12:47Z</time>
      </trkpt>
      <trkpt lat="46.18445" lon="6.01113">
        <ele>373.9</ele>
        <time>2022-09-27T13:12:48Z</time>
      </trkpt>
      <trkpt lat="46.18443" lon="6.01114">
        <ele>374</ele>
        <time>2022-09-27T13:12:49Z</time>
      </trkpt>
      <trkpt lat="46.18442" lon="6.01114">
        <ele>374.1</ele>
        <time>2022-09-27T13:12:50Z</time>
      </trkpt>
      <trkpt lat="46.1844" lon="6.01115">
        <ele>374.2</ele>
        <time>2022-09-27T13:12:51Z</time>
      </trkpt>
      <trkpt lat="46.18437" lon="6.01115">
        <ele>374.4</ele>
        <time>2022-09-27T13:12:52Z</time>
      </trkpt>
      <trkpt lat="46.18436" lon="6.01115">
        <ele>374.5</ele>
        <time>2022-09-27T13:12:53Z</time>
      </trkpt>
      <trkpt lat="46.18433" lon="6.01118">
        <ele>374.7</ele>
        <time>2022-09-27T13:12:54Z</time>
      </trkpt>
      <trkpt lat="46.18432" lon="6.01118">
        <ele>374.8</ele>
        <time>2022-09-27T13:12:55Z</time>
      </trkpt>
      <trkpt lat="46.18429" lon="6.01121">
        <ele>375.1</ele>
        <time>2022-09-27T13:12:56Z</time>
      </trkpt>
      <trkpt lat="46.18429" lon="6.01122">
        <ele>375.1</ele>
        <time>2022-09-27T13:12:57Z</time>
      </trkpt>
      <trkpt lat="46.18427" lon="6.01124">
        <ele>375.3</ele>
        <time>2022-09-27T13:12:58Z</time>
      </trkpt>
      <trkpt lat="46.18427" lon="6.01125">
        <ele>375.4</ele>
        <time>2022-09-27T13:12:59Z</time>
      </trkpt>
      <trkpt lat="46.18424" lon="6.01127">
        <ele>375.6</ele>
        <time>2022-09-27T13:13:00Z</time>
      </trkpt>
      <trkpt lat="46.18424" lon="6.01128">
        <ele>375.7</ele>
        <time>2022-09-27T13:13:01Z</time>
      </trkpt>
      <trkpt lat="46.18422" lon="6.0113">
        <ele>375.8</ele>
        <time>2022-09-27T13:13:02Z</time>
      </trkpt>
      <trkpt lat="46.18421" lon="6.01131">
        <ele>375.9</ele>
        <time>2022-09-27T13:13:03Z</time>
      </trkpt>
      <trkpt lat="46.1842" lon="6.01132">
        <ele>376</ele>
        <time>2022-09-27T13:13:04Z</time>
      </trkpt>
      <trkpt lat="46.18419" lon="6.01133">
        <ele>376.1</ele>
        <time>2022-09-27T13:13:05Z</time>
      </trkpt>
      <trkpt lat="46.18418" lon="6.01133">
        <ele>376.2</ele>
        <time>2022-09-27T13:13:06Z</time>
      </trkpt>
      <trkpt lat="46.18418" lon="6.01133">
        <ele>376.2</ele>
        <time>2022-09-27T13:13:07Z</time>
      </trkpt>
      <trkpt lat="46.18418" lon="6.01132">
        <ele>376.2</ele>
        <time>2022-09-27T13:13:08Z</time>
      </trkpt>
      <trkpt lat="46.18418" lon="6.01132">
        <ele>376.2</ele>
        <time>2022-09-27T13:13:09Z</time>
      </trkpt>
      <trkpt lat="46.18418" lon="6.01132">
        <ele>376.2</ele>
        <time>2022-09-27T13:13:10Z</time>
      </trkpt>
      <trkpt lat="46.18418" lon="6.01133">
        <ele>376.2</ele>
        <time>2022-09-27T13:13:11Z</time>
      </trkpt>
      <trkpt lat="46.18417" lon="6.01133">
        <ele>376.3</ele>
        <time>2022-09-27T13:13:12Z</time>
      </trkpt>
      <trkpt lat="46.18417" lon="6.01133">
        <ele>376.3</ele>
        <time>2022-09-27T13:13:13Z</time>
      </trkpt>
      <trkpt lat="46.18417" lon="6.01133">
        <ele>376.3</ele>
        <time>2022-09-27T13:13:14Z</time>
      </trkpt>
      <trkpt lat="46.18417" lon="6.01133">
        <ele>376.3</ele>
        <time>2022-09-27T13:13:15Z</time>
      </trkpt>
      <trkpt lat="46.18417" lon="6.01133">
        <ele>376.3</ele>
        <time>2022-09-27T13:13:16Z</time>
      </trkpt>
      <trkpt lat="46.18419" lon="6.0114">
        <ele>376.7</ele>
        <time>2022-09-27T13:14:38Z</time>
      </trkpt>
      <trkpt lat="46.18421" lon="6.01141">
        <ele>376.9</ele>
        <time>2022-09-27T13:14:39Z</time>
      </trkpt>
      <trkpt lat="46.18422" lon="6.01143">
        <ele>377</ele>
        <time>2022-09-27T13:14:40Z</time>
      </trkpt>
      <trkpt lat="46.18423" lon="6.01145">
        <ele>377.1</ele>
        <time>2022-09-27T13:14:41Z</time>
      </trkpt>
      <trkpt lat="46.18425" lon="6.01149">
        <ele>377.3</ele>
        <time>2022-09-27T13:14:42Z</time>
      </trkpt>
      <trkpt lat="46.18425" lon="6.0115">
        <ele>377.4</ele>
        <time>2022-09-27T13:14:43Z</time>
      </trkpt>
      <trkpt lat="46.18427" lon="6.01153">
        <ele>377.6</ele>
        <time>2022-09-27T13:14:44Z</time>
      </trkpt>
      <trkpt lat="46.18428" lon="6.01153">
        <ele>377.6</ele>
        <time>2022-09-27T13:14:45Z</time>
      </trkpt>
      <trkpt lat="46.1843" lon="6.01156">
        <ele>377.8</ele>
        <time>2022-09-27T13:14:46Z</time>
      </trkpt>
      <trkpt lat="46.18431" lon="6.01157">
        <ele>377.9</ele>
        <time>2022-09-27T13:14:47Z</time>
      </trkpt>
      <trkpt lat="46.18433" lon="6.01158">
        <ele>378</ele>
        <time>2022-09-27T13:14:48Z</time>
      </trkpt>
      <trkpt lat="46.18434" lon="6.01158">
        <ele>378.1</ele>
        <time>2022-09-27T13:14:49Z</time>
      </trkpt>
      <trkpt lat="46.18436" lon="6.01159">
        <ele>378.2</ele>
        <time>2022-09-27T13:14:50Z</time>
      </trkpt>
      <trkpt lat="46.18437" lon="6.01159">
        <ele>378.3</ele>
        <time>2022-09-27T13:14:51Z</time>
      </trkpt>
      <trkpt lat="46.1844" lon="6.01159">
        <ele>378.5</ele>
        <time>2022-09-27T13:14:52Z</time>
      </trkpt>
      <trkpt lat="46.18441" lon="6.01159">
        <ele>378.6</ele>
        <time>2022-09-27T13:14:53Z</time>
      </trkpt>
      <trkpt lat="46.18444" lon="6.01159">
        <ele>378.8</ele>
        <time>2022-09-27T13:14:54Z</time>
      </trkpt>
      <trkpt lat="46.18445" lon="6.01159">
        <ele>378.8</ele>
        <time>2022-09-27T13:14:55Z</time>
      </trkpt>
      <trkpt lat="46.18448" lon="6.01159">
        <ele>379</ele>
        <time>2022-09-27T13:14:56Z</time>
      </trkpt>
      <trkpt lat="46.18449" lon="6.01159">
        <ele>379.1</ele>
        <time>2022-09-27T13:14:57Z</time>
      </trkpt>
      <trkpt lat="46.18451" lon="6.0116">
        <ele>379.3</ele>
        <time>2022-09-27T13:14:58Z</time>
      </trkpt>
      <trkpt lat="46.18452" lon="6.0116">
        <ele>379.3</ele>
        <time>2022-09-27T13:14:59Z</time>
      </trkpt>
      <trkpt lat="46.18455" lon="6.0116">
        <ele>379.5</ele>
        <time>2022-09-27T13:15:00Z</time>
      </trkpt>
      <trkpt lat="46.18456" lon="6.0116">
        <ele>379.6</ele>
        <time>2022-09-27T13:15:01Z</time>
      </trkpt>
      <trkpt lat="46.18459" lon="6.01161">
        <ele>379.8</ele>
        <time>2022-09-27T13:15:02Z</time>
      </trkpt>
      <trkpt lat="46.1846" lon="6.01161">
        <ele>379.8</ele>
        <time>2022-09-27T13:15:03Z</time>
      </trkpt>
      <trkpt lat="46.18462" lon="6.01161">
        <ele>379.9</ele>
        <time>2022-09-27T13:15:04Z</time>
      </trkpt>
      <trkpt lat="46.18463" lon="6.01161">
        <ele>380</ele>
        <time>2022-09-27T13:15:05Z</time>
      </trkpt>
      <trkpt lat="46.18466" lon="6.01161">
        <ele>380.2</ele>
        <time>2022-09-27T13:15:06Z</time>
      </trkpt>
      <trkpt lat="46.18467" lon="6.01161">
        <ele>380.2</ele>
        <time>2022-09-27T13:15:07Z</time>
      </trkpt>
      <trkpt lat="46.1847" lon="6.01162">
        <ele>380.4</ele>
        <time>2022-09-27T13:15:08Z</time>
      </trkpt>
      <trkpt lat="46.1847" lon="6.01162">
        <ele>380.4</ele>
        <time>2022-09-27T13:15:09Z</time>
      </trkpt>
      <trkpt lat="46.18473" lon="6.01162">
        <ele>380.6</ele>
        <time>2022-09-27T13:15:10Z</time>
      </trkpt>
      <trkpt lat="46.18474" lon="6.01162">
        <ele>380.7</ele>
        <time>2022-09-27T13:15:11Z</time>
      </trkpt>
      <trkpt lat="46.18477" lon="6.01162">
        <ele>380.8</ele>
        <time>2022-09-27T13:15:12Z</time>
      </trkpt>
      <trkpt lat="46.18478" lon="6.01163">
        <ele>380.9</ele>
        <time>2022-09-27T13:15:13Z</time>
      </trkpt>
      <trkpt lat="46.1848" lon="6.01163">
        <ele>381</ele>
        <time>2022-09-27T13:15:14Z</time>
      </trkpt>
      <trkpt lat="46.18481" lon="6.01162">
        <ele>381.1</ele>
        <time>2022-09-27T13:15:15Z</time>
      </trkpt>
      <trkpt lat="46.18484" lon="6.01162">
        <ele>381.3</ele>
        <time>2022-09-27T13:15:16Z</time>
      </trkpt>
      <trkpt lat="46.18485" lon="6.01163">
        <ele>381.3</ele>
        <time>2022-09-27T13:15:17Z</time>
      </trkpt>
      <trkpt lat="46.18487" lon="6.01163">
        <ele>381.4</ele>
        <time>2022-09-27T13:15:18Z</time>
      </trkpt>
      <trkpt lat="46.18489" lon="6.01163">
        <ele>381.5</ele>
        <time>2022-09-27T13:15:19Z</time>
      </trkpt>
      <trkpt lat="46.1849" lon="6.01163">
        <ele>381.6</ele>
        <time>2022-09-27T13:15:20Z</time>
      </trkpt>
      <trkpt lat="46.18492" lon="6.01164">
        <ele>381.7</ele>
        <time>2022-09-27T13:15:21Z</time>
      </trkpt>
      <trkpt lat="46.18494" lon="6.01164">
        <ele>381.8</ele>
        <time>2022-09-27T13:15:22Z</time>
      </trkpt>
      <trkpt lat="46.18495" lon="6.01164">
        <ele>381.9</ele>
        <time>2022-09-27T13:15:23Z</time>
      </trkpt>
      <trkpt lat="46.18498" lon="6.01164">
        <ele>382.1</ele>
        <time>2022-09-27T13:15:24Z</time>
      </trkpt>
      <trkpt lat="46.18499" lon="6.01164">
        <ele>382.2</ele>
        <time>2022-09-27T13:15:25Z</time>
      </trkpt>
      <trkpt lat="46.18502" lon="6.01165">
        <ele>382.3</ele>
        <time>2022-09-27T13:15:26Z</time>
      </trkpt>
      <trkpt lat="46.18503" lon="6.01165">
        <ele>382.4</ele>
        <time>2022-09-27T13:15:27Z</time>
      </trkpt>
      <trkpt lat="46.18505" lon="6.01165">
        <ele>382.5</ele>
        <time>2022-09-27T13:15:28Z</time>
      </trkpt>
      <trkpt lat="46.18506" lon="6.01165">
        <ele>382.6</ele>
        <time>2022-09-27T13:15:29Z</time>
      </trkpt>
      <trkpt lat="46.18509" lon="6.01165">
        <ele>382.7</ele>
        <time>2022-09-27T13:15:30Z</time>
      </trkpt>
      <trkpt lat="46.1851" lon="6.01165">
        <ele>382.8</ele>
        <time>2022-09-27T13:15:31Z</time>
      </trkpt>
      <trkpt lat="46.18513" lon="6.01166">
        <ele>382.9</ele>
        <time>2022-09-27T13:15:32Z</time>
      </trkpt>
      <trkpt lat="46.18514" lon="6.01166">
        <ele>383</ele>
        <time>2022-09-27T13:15:33Z</time>
      </trkpt>
      <trkpt lat="46.18516" lon="6.01166">
        <ele>383.2</ele>
        <time>2022-09-27T13:15:34Z</time>
      </trkpt>
      <trkpt lat="46.18517" lon="6.01166">
        <ele>383.2</ele>
        <time>2022-09-27T13:15:35Z</time>
      </trkpt>
      <trkpt lat="46.18519" lon="6.01166">
        <ele>383.3</ele>
        <time>2022-09-27T13:15:36Z</time>
      </trkpt>
      <trkpt lat="46.18521" lon="6.01166">
        <ele>383.4</ele>
        <time>2022-09-27T13:15:37Z</time>
      </trkpt>
      <trkpt lat="46.18523" lon="6.01166">
        <ele>383.6</ele>
        <time>2022-09-27T13:15:38Z</time>
      </trkpt>
      <trkpt lat="46.18524" lon="6.01166">
        <ele>383.6</ele>
        <time>2022-09-27T13:15:39Z</time>
      </trkpt>
      <trkpt lat="46.18527" lon="6.01166">
        <ele>383.7</ele>
        <time>2022-09-27T13:15:40Z</time>
      </trkpt>
      <trkpt lat="46.18528" lon="6.01166">
        <ele>383.8</ele>
        <time>2022-09-27T13:15:41Z</time>
      </trkpt>
      <trkpt lat="46.18531" lon="6.01167">
        <ele>384</ele>
        <time>2022-09-27T13:15:42Z</time>
      </trkpt>
      <trkpt lat="46.18532" lon="6.01167">
        <ele>384</ele>
        <time>2022-09-27T13:15:43Z</time>
      </trkpt>
      <trkpt lat="46.18534" lon="6.01167">
        <ele>384.1</ele>
        <time>2022-09-27T13:15:44Z</time>
      </trkpt>
      <trkpt lat="46.18535" lon="6.01168">
        <ele>384.2</ele>
        <time>2022-09-27T13:15:45Z</time>
      </trkpt>
      <trkpt lat="46.18538" lon="6.01168">
        <ele>384.3</ele>
        <time>2022-09-27T13:15:46Z</time>
      </trkpt>
      <trkpt lat="46.18539" lon="6.01168">
        <ele>384.4</ele>
        <time>2022-09-27T13:15:47Z</time>
      </trkpt>
      <trkpt lat="46.18542" lon="6.01168">
        <ele>384.5</ele>
        <time>2022-09-27T13:15:48Z</time>
      </trkpt>
      <trkpt lat="46.18543" lon="6.01169">
        <ele>384.6</ele>
        <time>2022-09-27T13:15:49Z</time>
      </trkpt>
      <trkpt lat="46.18546" lon="6.01169">
        <ele>384.7</ele>
        <time>2022-09-27T13:15:50Z</time>
      </trkpt>
      <trkpt lat="46.18547" lon="6.01169">
        <ele>384.8</ele>
        <time>2022-09-27T13:15:51Z</time>
      </trkpt>
      <trkpt lat="46.1855" lon="6.0117">
        <ele>384.9</ele>
        <time>2022-09-27T13:15:52Z</time>
      </trkpt>
      <trkpt lat="46.18551" lon="6.0117">
        <ele>385</ele>
        <time>2022-09-27T13:15:53Z</time>
      </trkpt>
      <trkpt lat="46.18554" lon="6.0117">
        <ele>385.1</ele>
        <time>2022-09-27T13:15:54Z</time>
      </trkpt>
      <trkpt lat="46.18555" lon="6.01171">
        <ele>385.1</ele>
        <time>2022-09-27T13:15:55Z</time>
      </trkpt>
      <trkpt lat="46.18558" lon="6.01171">
        <ele>385.3</ele>
        <time>2022-09-27T13:15:56Z</time>
      </trkpt>
      <trkpt lat="46.18559" lon="6.0117">
        <ele>385.3</ele>
        <time>2022-09-27T13:15:57Z</time>
      </trkpt>
      <trkpt lat="46.18562" lon="6.01171">
        <ele>385.5</ele>
        <time>2022-09-27T13:15:58Z</time>
      </trkpt>
      <trkpt lat="46.18563" lon="6.01171">
        <ele>385.5</ele>
        <time>2022-09-27T13:15:59Z</time>
      </trkpt>
      <trkpt lat="46.18566" lon="6.01171">
        <ele>385.6</ele>
        <time>2022-09-27T13:16:00Z</time>
      </trkpt>
      <trkpt lat="46.18567" lon="6.01171">
        <ele>385.7</ele>
        <time>2022-09-27T13:16:01Z</time>
      </trkpt>
      <trkpt lat="46.1857" lon="6.01171">
        <ele>385.8</ele>
        <time>2022-09-27T13:16:02Z</time>
      </trkpt>
      <trkpt lat="46.18571" lon="6.01171">
        <ele>385.9</ele>
        <time>2022-09-27T13:16:03Z</time>
      </trkpt>
      <trkpt lat="46.18574" lon="6.01171">
        <ele>386</ele>
        <time>2022-09-27T13:16:04Z</time>
      </trkpt>
      <trkpt lat="46.18575" lon="6.01171">
        <ele>386</ele>
        <time>2022-09-27T13:16:05Z</time>
      </trkpt>
      <trkpt lat="46.18578" lon="6.01172">
        <ele>386.1</ele>
        <time>2022-09-27T13:16:06Z</time>
      </trkpt>
      <trkpt lat="46.18579" lon="6.01172">
        <ele>386.2</ele>
        <time>2022-09-27T13:16:07Z</time>
      </trkpt>
      <trkpt lat="46.18582" lon="6.01172">
        <ele>386.3</ele>
        <time>2022-09-27T13:16:08Z</time>
      </trkpt>
      <trkpt lat="46.18583" lon="6.01172">
        <ele>386.4</ele>
        <time>2022-09-27T13:16:09Z</time>
      </trkpt>
      <trkpt lat="46.18587" lon="6.01173">
        <ele>386.5</ele>
        <time>2022-09-27T13:16:10Z</time>
      </trkpt>
      <trkpt lat="46.18588" lon="6.01173">
        <ele>386.5</ele>
        <time>2022-09-27T13:16:11Z</time>
      </trkpt>
      <trkpt lat="46.18591" lon="6.01173">
        <ele>386.7</ele>
        <time>2022-09-27T13:16:12Z</time>
      </trkpt>
      <trkpt lat="46.18592" lon="6.01174">
        <ele>386.7</ele>
        <time>2022-09-27T13:16:13Z</time>
      </trkpt>
      <trkpt lat="46.18595" lon="6.01174">
        <ele>386.8</ele>
        <time>2022-09-27T13:16:14Z</time>
      </trkpt>
      <trkpt lat="46.18596" lon="6.01174">
        <ele>386.9</ele>
        <time>2022-09-27T13:16:15Z</time>
      </trkpt>
      <trkpt lat="46.186" lon="6.01174">
        <ele>387</ele>
        <time>2022-09-27T13:16:16Z</time>
      </trkpt>
      <trkpt lat="46.18601" lon="6.01174">
        <ele>387.1</ele>
        <time>2022-09-27T13:16:17Z</time>
      </trkpt>
      <trkpt lat="46.18604" lon="6.01175">
        <ele>387.2</ele>
        <time>2022-09-27T13:16:18Z</time>
      </trkpt>
      <trkpt lat="46.18605" lon="6.01175">
        <ele>387.3</ele>
        <time>2022-09-27T13:16:19Z</time>
      </trkpt>
      <trkpt lat="46.18608" lon="6.01175">
        <ele>387.4</ele>
        <time>2022-09-27T13:16:20Z</time>
      </trkpt>
      <trkpt lat="46.18609" lon="6.01175">
        <ele>387.5</ele>
        <time>2022-09-27T13:16:21Z</time>
      </trkpt>
      <trkpt lat="46.18613" lon="6.01176">
        <ele>387.6</ele>
        <time>2022-09-27T13:16:22Z</time>
      </trkpt>
      <trkpt lat="46.18614" lon="6.01176">
        <ele>387.7</ele>
        <time>2022-09-27T13:16:23Z</time>
      </trkpt>
      <trkpt lat="46.18618" lon="6.01176">
        <ele>387.9</ele>
        <time>2022-09-27T13:16:24Z</time>
      </trkpt>
      <trkpt lat="46.18619" lon="6.01176">
        <ele>387.9</ele>
        <time>2022-09-27T13:16:25Z</time>
      </trkpt>
      <trkpt lat="46.18621" lon="6.01176">
        <ele>388</ele>
        <time>2022-09-27T13:16:26Z</time>
      </trkpt>
      <trkpt lat="46.18623" lon="6.01177">
        <ele>388.1</ele>
        <time>2022-09-27T13:16:27Z</time>
      </trkpt>
      <trkpt lat="46.18624" lon="6.01177">
        <ele>388.2</ele>
        <time>2022-09-27T13:16:28Z</time>
      </trkpt>
      <trkpt lat="46.18626" lon="6.01177">
        <ele>388.3</ele>
        <time>2022-09-27T13:16:29Z</time>
      </trkpt>
      <trkpt lat="46.18629" lon="6.01178">
        <ele>388.5</ele>
        <time>2022-09-27T13:16:30Z</time>
      </trkpt>
      <trkpt lat="46.1863" lon="6.01178">
        <ele>388.5</ele>
        <time>2022-09-27T13:16:31Z</time>
      </trkpt>
      <trkpt lat="46.18633" lon="6.01178">
        <ele>388.7</ele>
        <time>2022-09-27T13:16:32Z</time>
      </trkpt>
      <trkpt lat="46.18634" lon="6.01178">
        <ele>388.8</ele>
        <time>2022-09-27T13:16:33Z</time>
      </trkpt>
      <trkpt lat="46.18638" lon="6.01178">
        <ele>389</ele>
        <time>2022-09-27T13:16:34Z</time>
      </trkpt>
      <trkpt lat="46.18639" lon="6.01178">
        <ele>389</ele>
        <time>2022-09-27T13:16:35Z</time>
      </trkpt>
      <trkpt lat="46.18642" lon="6.01178">
        <ele>389.2</ele>
        <time>2022-09-27T13:16:36Z</time>
      </trkpt>
      <trkpt lat="46.18643" lon="6.01178">
        <ele>389.3</ele>
        <time>2022-09-27T13:16:37Z</time>
      </trkpt>
      <trkpt lat="46.18646" lon="6.01179">
        <ele>389.5</ele>
        <time>2022-09-27T13:16:38Z</time>
      </trkpt>
      <trkpt lat="46.18647" lon="6.01179">
        <ele>389.5</ele>
        <time>2022-09-27T13:16:39Z</time>
      </trkpt>
      <trkpt lat="46.1865" lon="6.0118">
        <ele>389.7</ele>
        <time>2022-09-27T13:16:40Z</time>
      </trkpt>
      <trkpt lat="46.18651" lon="6.0118">
        <ele>389.8</ele>
        <time>2022-09-27T13:16:41Z</time>
      </trkpt>
      <trkpt lat="46.18654" lon="6.0118">
        <ele>390</ele>
        <time>2022-09-27T13:16:42Z</time>
      </trkpt>
      <trkpt lat="46.18655" lon="6.0118">
        <ele>390.1</ele>
        <time>2022-09-27T13:16:43Z</time>
      </trkpt>
      <trkpt lat="46.18659" lon="6.01181">
        <ele>390.3</ele>
        <time>2022-09-27T13:16:44Z</time>
      </trkpt>
      <trkpt lat="46.18659" lon="6.01181">
        <ele>390.3</ele>
        <time>2022-09-27T13:16:45Z</time>
      </trkpt>
      <trkpt lat="46.18663" lon="6.01181">
        <ele>390.6</ele>
        <time>2022-09-27T13:16:46Z</time>
      </trkpt>
      <trkpt lat="46.18664" lon="6.01181">
        <ele>390.6</ele>
        <time>2022-09-27T13:16:47Z</time>
      </trkpt>
      <trkpt lat="46.18667" lon="6.01181">
        <ele>390.8</ele>
        <time>2022-09-27T13:16:48Z</time>
      </trkpt>
      <trkpt lat="46.18668" lon="6.01181">
        <ele>390.9</ele>
        <time>2022-09-27T13:16:49Z</time>
      </trkpt>
      <trkpt lat="46.18671" lon="6.01182">
        <ele>391.1</ele>
        <time>2022-09-27T13:16:50Z</time>
      </trkpt>
      <trkpt lat="46.18672" lon="6.01182">
        <ele>391.2</ele>
        <time>2022-09-27T13:16:51Z</time>
      </trkpt>
      <trkpt lat="46.18673" lon="6.01182">
        <ele>391.3</ele>
        <time>2022-09-27T13:16:52Z</time>
      </trkpt>
      <trkpt lat="46.18675" lon="6.01182">
        <ele>391.4</ele>
        <time>2022-09-27T13:16:53Z</time>
      </trkpt>
      <trkpt lat="46.18677" lon="6.01182">
        <ele>391.6</ele>
        <time>2022-09-27T13:16:54Z</time>
      </trkpt>
      <trkpt lat="46.18679" lon="6.01183">
        <ele>391.7</ele>
        <time>2022-09-27T13:16:55Z</time>
      </trkpt>
      <trkpt lat="46.1868" lon="6.01182">
        <ele>391.8</ele>
        <time>2022-09-27T13:16:56Z</time>
      </trkpt>
      <trkpt lat="46.18682" lon="6.01182">
        <ele>391.9</ele>
        <time>2022-09-27T13:16:57Z</time>
      </trkpt>
      <trkpt lat="46.18684" lon="6.01182">
        <ele>392</ele>
        <time>2022-09-27T13:16:58Z</time>
      </trkpt>
      <trkpt lat="46.18685" lon="6.01182">
        <ele>392.1</ele>
        <time>2022-09-27T13:16:59Z</time>
      </trkpt>
      <trkpt lat="46.18687" lon="6.01182">
        <ele>392.3</ele>
        <time>2022-09-27T13:17:00Z</time>
      </trkpt>
      <trkpt lat="46.18689" lon="6.01183">
        <ele>392.4</ele>
        <time>2022-09-27T13:17:01Z</time>
      </trkpt>
      <trkpt lat="46.18691" lon="6.01182">
        <ele>392.6</ele>
        <time>2022-09-27T13:17:02Z</time>
      </trkpt>
      <trkpt lat="46.18692" lon="6.01182">
        <ele>392.6</ele>
        <time>2022-09-27T13:17:03Z</time>
      </trkpt>
      <trkpt lat="46.18695" lon="6.01183">
        <ele>392.8</ele>
        <time>2022-09-27T13:17:04Z</time>
      </trkpt>
      <trkpt lat="46.18696" lon="6.01183">
        <ele>392.9</ele>
        <time>2022-09-27T13:17:05Z</time>
      </trkpt>
      <trkpt lat="46.18698" lon="6.01182">
        <ele>393</ele>
        <time>2022-09-27T13:17:06Z</time>
      </trkpt>
      <trkpt lat="46.18699" lon="6.01183">
        <ele>393.1</ele>
        <time>2022-09-27T13:17:07Z</time>
      </trkpt>
      <trkpt lat="46.187" lon="6.01183">
        <ele>393.1</ele>
        <time>2022-09-27T13:17:08Z</time>
      </trkpt>
      <trkpt lat="46.18702" lon="6.01183">
        <ele>393.3</ele>
        <time>2022-09-27T13:17:09Z</time>
      </trkpt>
      <trkpt lat="46.18705" lon="6.01183">
        <ele>393.5</ele>
        <time>2022-09-27T13:17:10Z</time>
      </trkpt>
      <trkpt lat="46.18706" lon="6.01183">
        <ele>393.6</ele>
        <time>2022-09-27T13:17:11Z</time>
      </trkpt>
      <trkpt lat="46.18708" lon="6.01182">
        <ele>393.7</ele>
        <time>2022-09-27T13:17:12Z</time>
      </trkpt>
      <trkpt lat="46.1871" lon="6.01182">
        <ele>393.8</ele>
        <time>2022-09-27T13:17:13Z</time>
      </trkpt>
      <trkpt lat="46.18711" lon="6.01182">
        <ele>394</ele>
        <time>2022-09-27T13:17:14Z</time>
      </trkpt>
      <trkpt lat="46.18713" lon="6.01181">
        <ele>394.1</ele>
        <time>2022-09-27T13:17:15Z</time>
      </trkpt>
      <trkpt lat="46.18716" lon="6.01181">
        <ele>394.3</ele>
        <time>2022-09-27T13:17:16Z</time>
      </trkpt>
      <trkpt lat="46.18717" lon="6.0118">
        <ele>394.4</ele>
        <time>2022-09-27T13:17:17Z</time>
      </trkpt>
      <trkpt lat="46.18719" lon="6.01179">
        <ele>394.5</ele>
        <time>2022-09-27T13:17:18Z</time>
      </trkpt>
      <trkpt lat="46.1872" lon="6.01179">
        <ele>394.6</ele>
        <time>2022-09-27T13:17:19Z</time>
      </trkpt>
      <trkpt lat="46.18721" lon="6.01178">
        <ele>394.7</ele>
        <time>2022-09-27T13:17:20Z</time>
      </trkpt>
      <trkpt lat="46.18723" lon="6.01178">
        <ele>394.8</ele>
        <time>2022-09-27T13:17:21Z</time>
      </trkpt>
      <trkpt lat="46.18725" lon="6.01178">
        <ele>394.9</ele>
        <time>2022-09-27T13:17:22Z</time>
      </trkpt>
      <trkpt lat="46.18727" lon="6.01177">
        <ele>395.1</ele>
        <time>2022-09-27T13:17:23Z</time>
      </trkpt>
      <trkpt lat="46.18728" lon="6.01177">
        <ele>395.2</ele>
        <time>2022-09-27T13:17:24Z</time>
      </trkpt>
      <trkpt lat="46.1873" lon="6.01176">
        <ele>395.3</ele>
        <time>2022-09-27T13:17:25Z</time>
      </trkpt>
      <trkpt lat="46.18732" lon="6.01175">
        <ele>395.5</ele>
        <time>2022-09-27T13:17:26Z</time>
      </trkpt>
      <trkpt lat="46.18733" lon="6.01174">
        <ele>395.6</ele>
        <time>2022-09-27T13:17:27Z</time>
      </trkpt>
      <trkpt lat="46.18735" lon="6.01174">
        <ele>395.7</ele>
        <time>2022-09-27T13:17:28Z</time>
      </trkpt>
      <trkpt lat="46.18736" lon="6.01173">
        <ele>395.8</ele>
        <time>2022-09-27T13:17:29Z</time>
      </trkpt>
      <trkpt lat="46.18738" lon="6.01173">
        <ele>396</ele>
        <time>2022-09-27T13:17:30Z</time>
      </trkpt>
      <trkpt lat="46.1874" lon="6.01172">
        <ele>396.1</ele>
        <time>2022-09-27T13:17:31Z</time>
      </trkpt>
      <trkpt lat="46.18741" lon="6.01172">
        <ele>396.2</ele>
        <time>2022-09-27T13:17:32Z</time>
      </trkpt>
      <trkpt lat="46.18744" lon="6.0117">
        <ele>396.4</ele>
        <time>2022-09-27T13:17:33Z</time>
      </trkpt>
      <trkpt lat="46.18745" lon="6.0117">
        <ele>396.5</ele>
        <time>2022-09-27T13:17:34Z</time>
      </trkpt>
      <trkpt lat="46.18746" lon="6.01169">
        <ele>396.6</ele>
        <time>2022-09-27T13:17:35Z</time>
      </trkpt>
      <trkpt lat="46.18747" lon="6.01167">
        <ele>396.7</ele>
        <time>2022-09-27T13:17:36Z</time>
      </trkpt>
      <trkpt lat="46.18749" lon="6.01166">
        <ele>396.8</ele>
        <time>2022-09-27T13:17:37Z</time>
      </trkpt>
      <trkpt lat="46.1875" lon="6.01165">
        <ele>397</ele>
        <time>2022-09-27T13:17:38Z</time>
      </trkpt>
      <trkpt lat="46.18752" lon="6.01164">
        <ele>397.1</ele>
        <time>2022-09-27T13:17:39Z</time>
      </trkpt>
      <trkpt lat="46.18754" lon="6.01163">
        <ele>397.2</ele>
        <time>2022-09-27T13:17:40Z</time>
      </trkpt>
      <trkpt lat="46.18755" lon="6.01162">
        <ele>397.3</ele>
        <time>2022-09-27T13:17:41Z</time>
      </trkpt>
      <trkpt lat="46.18757" lon="6.01161">
        <ele>397.5</ele>
        <time>2022-09-27T13:17:42Z</time>
      </trkpt>
      <trkpt lat="46.18759" lon="6.01159">
        <ele>397.7</ele>
        <time>2022-09-27T13:17:43Z</time>
      </trkpt>
      <trkpt lat="46.1876" lon="6.01159">
        <ele>397.8</ele>
        <time>2022-09-27T13:17:44Z</time>
      </trkpt>
      <trkpt lat="46.18762" lon="6.01158">
        <ele>397.9</ele>
        <time>2022-09-27T13:17:45Z</time>
      </trkpt>
      <trkpt lat="46.18763" lon="6.01156">
        <ele>398</ele>
        <time>2022-09-27T13:17:46Z</time>
      </trkpt>
      <trkpt lat="46.18765" lon="6.01156">
        <ele>398.1</ele>
        <time>2022-09-27T13:17:47Z</time>
      </trkpt>
      <trkpt lat="46.18766" lon="6.01155">
        <ele>398.2</ele>
        <time>2022-09-27T13:17:48Z</time>
      </trkpt>
      <trkpt lat="46.18767" lon="6.01155">
        <ele>398.3</ele>
        <time>2022-09-27T13:17:49Z</time>
      </trkpt>
      <trkpt lat="46.18769" lon="6.01153">
        <ele>398.5</ele>
        <time>2022-09-27T13:17:50Z</time>
      </trkpt>
      <trkpt lat="46.1877" lon="6.01152">
        <ele>398.6</ele>
        <time>2022-09-27T13:17:51Z</time>
      </trkpt>
      <trkpt lat="46.18771" lon="6.01151">
        <ele>398.7</ele>
        <time>2022-09-27T13:17:52Z</time>
      </trkpt>
      <trkpt lat="46.18773" lon="6.0115">
        <ele>398.8</ele>
        <time>2022-09-27T13:17:53Z</time>
      </trkpt>
      <trkpt lat="46.18774" lon="6.01149">
        <ele>398.9</ele>
        <time>2022-09-27T13:17:54Z</time>
      </trkpt>
      <trkpt lat="46.18775" lon="6.01148">
        <ele>399</ele>
        <time>2022-09-27T13:17:55Z</time>
      </trkpt>
      <trkpt lat="46.18776" lon="6.01147">
        <ele>399.1</ele>
        <time>2022-09-27T13:17:56Z</time>
      </trkpt>
      <trkpt lat="46.18778" lon="6.01146">
        <ele>399.2</ele>
        <time>2022-09-27T13:17:57Z</time>
      </trkpt>
      <trkpt lat="46.18779" lon="6.01145">
        <ele>399.3</ele>
        <time>2022-09-27T13:17:58Z</time>
      </trkpt>
      <trkpt lat="46.1878" lon="6.01144">
        <ele>399.4</ele>
        <time>2022-09-27T13:17:59Z</time>
      </trkpt>
      <trkpt lat="46.18783" lon="6.01142">
        <ele>399.6</ele>
        <time>2022-09-27T13:18:00Z</time>
      </trkpt>
      <trkpt lat="46.18783" lon="6.01141">
        <ele>399.7</ele>
        <time>2022-09-27T13:18:01Z</time>
      </trkpt>
      <trkpt lat="46.18784" lon="6.01141">
        <ele>399.7</ele>
        <time>2022-09-27T13:18:02Z</time>
      </trkpt>
      <trkpt lat="46.18787" lon="6.01138">
        <ele>400</ele>
        <time>2022-09-27T13:18:03Z</time>
      </trkpt>
      <trkpt lat="46.18788" lon="6.01138">
        <ele>400.1</ele>
        <time>2022-09-27T13:18:04Z</time>
      </trkpt>
      <trkpt lat="46.18789" lon="6.01136">
        <ele>400.2</ele>
        <time>2022-09-27T13:18:05Z</time>
      </trkpt>
      <trkpt lat="46.18791" lon="6.01135">
        <ele>400.3</ele>
        <time>2022-09-27T13:18:06Z</time>
      </trkpt>
      <trkpt lat="46.18792" lon="6.01133">
        <ele>400.4</ele>
        <time>2022-09-27T13:18:07Z</time>
      </trkpt>
      <trkpt lat="46.18793" lon="6.01132">
        <ele>400.5</ele>
        <time>2022-09-27T13:18:08Z</time>
      </trkpt>
      <trkpt lat="46.18795" lon="6.01129">
        <ele>400.7</ele>
        <time>2022-09-27T13:18:09Z</time>
      </trkpt>
      <trkpt lat="46.18796" lon="6.01128">
        <ele>400.8</ele>
        <time>2022-09-27T13:18:10Z</time>
      </trkpt>
      <trkpt lat="46.18798" lon="6.01128">
        <ele>400.9</ele>
        <time>2022-09-27T13:18:11Z</time>
      </trkpt>
      <trkpt lat="46.18799" lon="6.01126">
        <ele>401</ele>
        <time>2022-09-27T13:18:12Z</time>
      </trkpt>
      <trkpt lat="46.18801" lon="6.01124">
        <ele>401.2</ele>
        <time>2022-09-27T13:18:13Z</time>
      </trkpt>
      <trkpt lat="46.18803" lon="6.01123">
        <ele>401.3</ele>
        <time>2022-09-27T13:18:14Z</time>
      </trkpt>
      <trkpt lat="46.18805" lon="6.01121">
        <ele>401.5</ele>
        <time>2022-09-27T13:18:15Z</time>
      </trkpt>
      <trkpt lat="46.18805" lon="6.0112">
        <ele>401.5</ele>
        <time>2022-09-27T13:18:16Z</time>
      </trkpt>
      <trkpt lat="46.18806" lon="6.01119">
        <ele>401.6</ele>
        <time>2022-09-27T13:18:17Z</time>
      </trkpt>
      <trkpt lat="46.18808" lon="6.01117">
        <ele>401.7</ele>
        <time>2022-09-27T13:18:18Z</time>
      </trkpt>
      <trkpt lat="46.18809" lon="6.01115">
        <ele>401.9</ele>
        <time>2022-09-27T13:18:19Z</time>
      </trkpt>
      <trkpt lat="46.1881" lon="6.01115">
        <ele>402</ele>
        <time>2022-09-27T13:18:20Z</time>
      </trkpt>
      <trkpt lat="46.18812" lon="6.01114">
        <ele>402</ele>
        <time>2022-09-27T13:18:21Z</time>
      </trkpt>
      <trkpt lat="46.18813" lon="6.01112">
        <ele>402.2</ele>
        <time>2022-09-27T13:18:22Z</time>
      </trkpt>
      <trkpt lat="46.18814" lon="6.0111">
        <ele>402.3</ele>
        <time>2022-09-27T13:18:23Z</time>
      </trkpt>
      <trkpt lat="46.18816" lon="6.01108">
        <ele>402.4</ele>
        <time>2022-09-27T13:18:24Z</time>
      </trkpt>
      <trkpt lat="46.18817" lon="6.01107">
        <ele>402.5</ele>
        <time>2022-09-27T13:18:25Z</time>
      </trkpt>
      <trkpt lat="46.1882" lon="6.01105">
        <ele>402.7</ele>
        <time>2022-09-27T13:18:26Z</time>
      </trkpt>
      <trkpt lat="46.1882" lon="6.01104">
        <ele>402.8</ele>
        <time>2022-09-27T13:18:27Z</time>
      </trkpt>
      <trkpt lat="46.18822" lon="6.01102">
        <ele>402.9</ele>
        <time>2022-09-27T13:18:28Z</time>
      </trkpt>
      <trkpt lat="46.18823" lon="6.01101">
        <ele>403</ele>
        <time>2022-09-27T13:18:29Z</time>
      </trkpt>
      <trkpt lat="46.18824" lon="6.01098">
        <ele>403.1</ele>
        <time>2022-09-27T13:18:30Z</time>
      </trkpt>
      <trkpt lat="46.18825" lon="6.01097">
        <ele>403.2</ele>
        <time>2022-09-27T13:18:31Z</time>
      </trkpt>
      <trkpt lat="46.18828" lon="6.01094">
        <ele>403.4</ele>
        <time>2022-09-27T13:18:32Z</time>
      </trkpt>
      <trkpt lat="46.18829" lon="6.01093">
        <ele>403.5</ele>
        <time>2022-09-27T13:18:33Z</time>
      </trkpt>
      <trkpt lat="46.1883" lon="6.01093">
        <ele>403.6</ele>
        <time>2022-09-27T13:18:34Z</time>
      </trkpt>
      <trkpt lat="46.18831" lon="6.01091">
        <ele>403.7</ele>
        <time>2022-09-27T13:18:35Z</time>
      </trkpt>
      <trkpt lat="46.18833" lon="6.01088">
        <ele>403.9</ele>
        <time>2022-09-27T13:18:36Z</time>
      </trkpt>
      <trkpt lat="46.18834" lon="6.01087">
        <ele>403.9</ele>
        <time>2022-09-27T13:18:37Z</time>
      </trkpt>
      <trkpt lat="46.18836" lon="6.01085">
        <ele>404.1</ele>
        <time>2022-09-27T13:18:38Z</time>
      </trkpt>
      <trkpt lat="46.18837" lon="6.01084">
        <ele>404.2</ele>
        <time>2022-09-27T13:18:39Z</time>
      </trkpt>
      <trkpt lat="46.1884" lon="6.01082">
        <ele>404.4</ele>
        <time>2022-09-27T13:18:40Z</time>
      </trkpt>
      <trkpt lat="46.18841" lon="6.01081">
        <ele>404.5</ele>
        <time>2022-09-27T13:18:41Z</time>
      </trkpt>
      <trkpt lat="46.18843" lon="6.01078">
        <ele>404.7</ele>
        <time>2022-09-27T13:18:42Z</time>
      </trkpt>
      <trkpt lat="46.18844" lon="6.01077">
        <ele>404.8</ele>
        <time>2022-09-27T13:18:43Z</time>
      </trkpt>
      <trkpt lat="46.18845" lon="6.01076">
        <ele>405</ele>
        <time>2022-09-27T13:18:44Z</time>
      </trkpt>
      <trkpt lat="46.18847" lon="6.01075">
        <ele>405.1</ele>
        <time>2022-09-27T13:18:45Z</time>
      </trkpt>
      <trkpt lat="46.18849" lon="6.01072">
        <ele>405.3</ele>
        <time>2022-09-27T13:18:46Z</time>
      </trkpt>
      <trkpt lat="46.1885" lon="6.01071">
        <ele>405.4</ele>
        <time>2022-09-27T13:18:47Z</time>
      </trkpt>
      <trkpt lat="46.18852" lon="6.01069">
        <ele>405.6</ele>
        <time>2022-09-27T13:18:48Z</time>
      </trkpt>
      <trkpt lat="46.18853" lon="6.01068">
        <ele>405.7</ele>
        <time>2022-09-27T13:18:49Z</time>
      </trkpt>
      <trkpt lat="46.18854" lon="6.01067">
        <ele>405.8</ele>
        <time>2022-09-27T13:18:50Z</time>
      </trkpt>
      <trkpt lat="46.18856" lon="6.01066">
        <ele>405.9</ele>
        <time>2022-09-27T13:18:51Z</time>
      </trkpt>
      <trkpt lat="46.18858" lon="6.01065">
        <ele>406.1</ele>
        <time>2022-09-27T13:18:52Z</time>
      </trkpt>
      <trkpt lat="46.18859" lon="6.01064">
        <ele>406.2</ele>
        <time>2022-09-27T13:18:53Z</time>
      </trkpt>
      <trkpt lat="46.18861" lon="6.01064">
        <ele>406.4</ele>
        <time>2022-09-27T13:18:54Z</time>
      </trkpt>
      <trkpt lat="46.18862" lon="6.01064">
        <ele>406.5</ele>
        <time>2022-09-27T13:18:55Z</time>
      </trkpt>
      <trkpt lat="46.18864" lon="6.01065">
        <ele>406.6</ele>
        <time>2022-09-27T13:18:56Z</time>
      </trkpt>
      <trkpt lat="46.18865" lon="6.01067">
        <ele>406.8</ele>
        <time>2022-09-27T13:18:57Z</time>
      </trkpt>
      <trkpt lat="46.18867" lon="6.01068">
        <ele>406.9</ele>
        <time>2022-09-27T13:18:58Z</time>
      </trkpt>
      <trkpt lat="46.18868" lon="6.0107">
        <ele>407.1</ele>
        <time>2022-09-27T13:18:59Z</time>
      </trkpt>
      <trkpt lat="46.18869" lon="6.01072">
        <ele>407.2</ele>
        <time>2022-09-27T13:19:00Z</time>
      </trkpt>
      <trkpt lat="46.1887" lon="6.01074">
        <ele>407.4</ele>
        <time>2022-09-27T13:19:01Z</time>
      </trkpt>
      <trkpt lat="46.1887" lon="6.01078">
        <ele>407.9</ele>
        <time>2022-09-27T13:19:02Z</time>
      </trkpt>
      <trkpt lat="46.1887" lon="6.0108">
        <ele>408</ele>
        <time>2022-09-27T13:19:03Z</time>
      </trkpt>
      <trkpt lat="46.18869" lon="6.01084">
        <ele>408.2</ele>
        <time>2022-09-27T13:19:04Z</time>
      </trkpt>
      <trkpt lat="46.18869" lon="6.01085">
        <ele>408.3</ele>
        <time>2022-09-27T13:19:05Z</time>
      </trkpt>
      <trkpt lat="46.18869" lon="6.01087">
        <ele>408.4</ele>
        <time>2022-09-27T13:19:06Z</time>
      </trkpt>
      <trkpt lat="46.18868" lon="6.01089">
        <ele>408.5</ele>
        <time>2022-09-27T13:19:07Z</time>
      </trkpt>
      <trkpt lat="46.18867" lon="6.01091">
        <ele>408.7</ele>
        <time>2022-09-27T13:19:08Z</time>
      </trkpt>
      <trkpt lat="46.18866" lon="6.01093">
        <ele>408.8</ele>
        <time>2022-09-27T13:19:09Z</time>
      </trkpt>
      <trkpt lat="46.18865" lon="6.01094">
        <ele>408.9</ele>
        <time>2022-09-27T13:19:10Z</time>
      </trkpt>
      <trkpt lat="46.18864" lon="6.01096">
        <ele>409</ele>
        <time>2022-09-27T13:19:11Z</time>
      </trkpt>
      <trkpt lat="46.18862" lon="6.01098">
        <ele>409.1</ele>
        <time>2022-09-27T13:19:12Z</time>
      </trkpt>
      <trkpt lat="46.18861" lon="6.01099">
        <ele>409.2</ele>
        <time>2022-09-27T13:19:13Z</time>
      </trkpt>
      <trkpt lat="46.1886" lon="6.01101">
        <ele>409.4</ele>
        <time>2022-09-27T13:19:14Z</time>
      </trkpt>
      <trkpt lat="46.18859" lon="6.01102">
        <ele>409.5</ele>
        <time>2022-09-27T13:19:15Z</time>
      </trkpt>
      <trkpt lat="46.18858" lon="6.01105">
        <ele>409.6</ele>
        <time>2022-09-27T13:19:16Z</time>
      </trkpt>
      <trkpt lat="46.18857" lon="6.01106">
        <ele>409.6</ele>
        <time>2022-09-27T13:19:17Z</time>
      </trkpt>
      <trkpt lat="46.18857" lon="6.01107">
        <ele>409.7</ele>
        <time>2022-09-27T13:19:18Z</time>
      </trkpt>
      <trkpt lat="46.18855" lon="6.01109">
        <ele>409.8</ele>
        <time>2022-09-27T13:19:19Z</time>
      </trkpt>
      <trkpt lat="46.18855" lon="6.0111">
        <ele>409.9</ele>
        <time>2022-09-27T13:19:20Z</time>
      </trkpt>
      <trkpt lat="46.18854" lon="6.01112">
        <ele>410</ele>
        <time>2022-09-27T13:19:21Z</time>
      </trkpt>
      <trkpt lat="46.18853" lon="6.01114">
        <ele>410.1</ele>
        <time>2022-09-27T13:19:22Z</time>
      </trkpt>
      <trkpt lat="46.1885" lon="6.01117">
        <ele>410.3</ele>
        <time>2022-09-27T13:19:23Z</time>
      </trkpt>
      <trkpt lat="46.18849" lon="6.01118">
        <ele>410.4</ele>
        <time>2022-09-27T13:19:24Z</time>
      </trkpt>
      <trkpt lat="46.18846" lon="6.0112">
        <ele>410.6</ele>
        <time>2022-09-27T13:19:25Z</time>
      </trkpt>
      <trkpt lat="46.18844" lon="6.01122">
        <ele>410.7</ele>
        <time>2022-09-27T13:19:26Z</time>
      </trkpt>
      <trkpt lat="46.18843" lon="6.01123">
        <ele>410.8</ele>
        <time>2022-09-27T13:19:27Z</time>
      </trkpt>
      <trkpt lat="46.18842" lon="6.01125">
        <ele>410.9</ele>
        <time>2022-09-27T13:19:28Z</time>
      </trkpt>
      <trkpt lat="46.18841" lon="6.01126">
        <ele>411</ele>
        <time>2022-09-27T13:19:29Z</time>
      </trkpt>
      <trkpt lat="46.1884" lon="6.01128">
        <ele>411</ele>
        <time>2022-09-27T13:19:30Z</time>
      </trkpt>
      <trkpt lat="46.18838" lon="6.0113">
        <ele>411.2</ele>
        <time>2022-09-27T13:19:31Z</time>
      </trkpt>
      <trkpt lat="46.18837" lon="6.01131">
        <ele>411.3</ele>
        <time>2022-09-27T13:19:32Z</time>
      </trkpt>
      <trkpt lat="46.18834" lon="6.01134">
        <ele>411.4</ele>
        <time>2022-09-27T13:19:33Z</time>
      </trkpt>
      <trkpt lat="46.18833" lon="6.01135">
        <ele>411.5</ele>
        <time>2022-09-27T13:19:34Z</time>
      </trkpt>
      <trkpt lat="46.18832" lon="6.01137">
        <ele>411.6</ele>
        <time>2022-09-27T13:19:35Z</time>
      </trkpt>
      <trkpt lat="46.18831" lon="6.01139">
        <ele>411.7</ele>
        <time>2022-09-27T13:19:36Z</time>
      </trkpt>
      <trkpt lat="46.1883" lon="6.0114">
        <ele>411.8</ele>
        <time>2022-09-27T13:19:37Z</time>
      </trkpt>
      <trkpt lat="46.18829" lon="6.01141">
        <ele>411.9</ele>
        <time>2022-09-27T13:19:38Z</time>
      </trkpt>
      <trkpt lat="46.18827" lon="6.01144">
        <ele>412</ele>
        <time>2022-09-27T13:19:39Z</time>
      </trkpt>
      <trkpt lat="46.18826" lon="6.01145">
        <ele>412.1</ele>
        <time>2022-09-27T13:19:40Z</time>
      </trkpt>
      <trkpt lat="46.18823" lon="6.01147">
        <ele>412.2</ele>
        <time>2022-09-27T13:19:41Z</time>
      </trkpt>
      <trkpt lat="46.18822" lon="6.01148">
        <ele>412.3</ele>
        <time>2022-09-27T13:19:42Z</time>
      </trkpt>
      <trkpt lat="46.18821" lon="6.01149">
        <ele>412.4</ele>
        <time>2022-09-27T13:19:43Z</time>
      </trkpt>
      <trkpt lat="46.18821" lon="6.01151">
        <ele>412.5</ele>
        <time>2022-09-27T13:19:44Z</time>
      </trkpt>
      <trkpt lat="46.18819" lon="6.01154">
        <ele>412.6</ele>
        <time>2022-09-27T13:19:45Z</time>
      </trkpt>
      <trkpt lat="46.18818" lon="6.01155">
        <ele>412.7</ele>
        <time>2022-09-27T13:19:46Z</time>
      </trkpt>
      <trkpt lat="46.18816" lon="6.01158">
        <ele>412.8</ele>
        <time>2022-09-27T13:19:47Z</time>
      </trkpt>
      <trkpt lat="46.18816" lon="6.01159">
        <ele>412.9</ele>
        <time>2022-09-27T13:19:48Z</time>
      </trkpt>
      <trkpt lat="46.18814" lon="6.01163">
        <ele>413</ele>
        <time>2022-09-27T13:19:49Z</time>
      </trkpt>
      <trkpt lat="46.18813" lon="6.01164">
        <ele>413.1</ele>
        <time>2022-09-27T13:19:50Z</time>
      </trkpt>
      <trkpt lat="46.18812" lon="6.01165">
        <ele>413.2</ele>
        <time>2022-09-27T13:19:51Z</time>
      </trkpt>
      <trkpt lat="46.18811" lon="6.01167">
        <ele>413.3</ele>
        <time>2022-09-27T13:19:52Z</time>
      </trkpt>
      <trkpt lat="46.18809" lon="6.01169">
        <ele>413.4</ele>
        <time>2022-09-27T13:19:53Z</time>
      </trkpt>
      <trkpt lat="46.18808" lon="6.0117">
        <ele>413.5</ele>
        <time>2022-09-27T13:19:54Z</time>
      </trkpt>
      <trkpt lat="46.18807" lon="6.01172">
        <ele>413.6</ele>
        <time>2022-09-27T13:19:55Z</time>
      </trkpt>
      <trkpt lat="46.18806" lon="6.01174">
        <ele>413.7</ele>
        <time>2022-09-27T13:19:56Z</time>
      </trkpt>
      <trkpt lat="46.18804" lon="6.01176">
        <ele>413.8</ele>
        <time>2022-09-27T13:19:57Z</time>
      </trkpt>
      <trkpt lat="46.18803" lon="6.01177">
        <ele>413.9</ele>
        <time>2022-09-27T13:19:58Z</time>
      </trkpt>
      <trkpt lat="46.18801" lon="6.0118">
        <ele>414</ele>
        <time>2022-09-27T13:19:59Z</time>
      </trkpt>
      <trkpt lat="46.188" lon="6.01181">
        <ele>414.1</ele>
        <time>2022-09-27T13:20:00Z</time>
      </trkpt>
      <trkpt lat="46.18798" lon="6.01185">
        <ele>414.3</ele>
        <time>2022-09-27T13:20:01Z</time>
      </trkpt>
      <trkpt lat="46.18797" lon="6.01186">
        <ele>414.4</ele>
        <time>2022-09-27T13:20:02Z</time>
      </trkpt>
      <trkpt lat="46.18795" lon="6.01188">
        <ele>414.5</ele>
        <time>2022-09-27T13:20:03Z</time>
      </trkpt>
      <trkpt lat="46.18794" lon="6.01189">
        <ele>414.6</ele>
        <time>2022-09-27T13:20:04Z</time>
      </trkpt>
      <trkpt lat="46.18792" lon="6.01193">
        <ele>414.7</ele>
        <time>2022-09-27T13:20:05Z</time>
      </trkpt>
      <trkpt lat="46.18791" lon="6.01193">
        <ele>414.9</ele>
        <time>2022-09-27T13:20:06Z</time>
      </trkpt>
      <trkpt lat="46.18789" lon="6.01196">
        <ele>415.1</ele>
        <time>2022-09-27T13:20:07Z</time>
      </trkpt>
      <trkpt lat="46.18788" lon="6.01198">
        <ele>415.1</ele>
        <time>2022-09-27T13:20:08Z</time>
      </trkpt>
      <trkpt lat="46.18787" lon="6.012">
        <ele>415.3</ele>
        <time>2022-09-27T13:20:09Z</time>
      </trkpt>
      <trkpt lat="46.18786" lon="6.01201">
        <ele>415.4</ele>
        <time>2022-09-27T13:20:10Z</time>
      </trkpt>
      <trkpt lat="46.18785" lon="6.01203">
        <ele>415.5</ele>
        <time>2022-09-27T13:20:11Z</time>
      </trkpt>
      <trkpt lat="46.18784" lon="6.01205">
        <ele>415.6</ele>
        <time>2022-09-27T13:20:12Z</time>
      </trkpt>
      <trkpt lat="46.18783" lon="6.01207">
        <ele>415.7</ele>
        <time>2022-09-27T13:20:13Z</time>
      </trkpt>
      <trkpt lat="46.18781" lon="6.01209">
        <ele>415.9</ele>
        <time>2022-09-27T13:20:14Z</time>
      </trkpt>
      <trkpt lat="46.18779" lon="6.01212">
        <ele>416.1</ele>
        <time>2022-09-27T13:20:15Z</time>
      </trkpt>
      <trkpt lat="46.18779" lon="6.01213">
        <ele>416.2</ele>
        <time>2022-09-27T13:20:16Z</time>
      </trkpt>
      <trkpt lat="46.18777" lon="6.01215">
        <ele>416.3</ele>
        <time>2022-09-27T13:20:17Z</time>
      </trkpt>
      <trkpt lat="46.18776" lon="6.01216">
        <ele>416.4</ele>
        <time>2022-09-27T13:20:18Z</time>
      </trkpt>
      <trkpt lat="46.18774" lon="6.0122">
        <ele>416.7</ele>
        <time>2022-09-27T13:20:19Z</time>
      </trkpt>
      <trkpt lat="46.18773" lon="6.01221">
        <ele>416.8</ele>
        <time>2022-09-27T13:20:20Z</time>
      </trkpt>
      <trkpt lat="46.18772" lon="6.01223">
        <ele>416.9</ele>
        <time>2022-09-27T13:20:21Z</time>
      </trkpt>
      <trkpt lat="46.18771" lon="6.01225">
        <ele>417.1</ele>
        <time>2022-09-27T13:20:22Z</time>
      </trkpt>
      <trkpt lat="46.18771" lon="6.01228">
        <ele>417.2</ele>
        <time>2022-09-27T13:20:23Z</time>
      </trkpt>
      <trkpt lat="46.1877" lon="6.0123">
        <ele>417.4</ele>
        <time>2022-09-27T13:20:24Z</time>
      </trkpt>
      <trkpt lat="46.18769" lon="6.01232">
        <ele>417.5</ele>
        <time>2022-09-27T13:20:25Z</time>
      </trkpt>
      <trkpt lat="46.18768" lon="6.01234">
        <ele>417.6</ele>
        <time>2022-09-27T13:20:26Z</time>
      </trkpt>
      <trkpt lat="46.18767" lon="6.01237">
        <ele>417.8</ele>
        <time>2022-09-27T13:20:27Z</time>
      </trkpt>
      <trkpt lat="46.18767" lon="6.01239">
        <ele>417.9</ele>
        <time>2022-09-27T13:20:28Z</time>
      </trkpt>
      <trkpt lat="46.18767" lon="6.0124">
        <ele>418</ele>
        <time>2022-09-27T13:20:29Z</time>
      </trkpt>
      <trkpt lat="46.18767" lon="6.01243">
        <ele>418.2</ele>
        <time>2022-09-27T13:20:30Z</time>
      </trkpt>
      <trkpt lat="46.18767" lon="6.01245">
        <ele>418.3</ele>
        <time>2022-09-27T13:20:31Z</time>
      </trkpt>
      <trkpt lat="46.18766" lon="6.01248">
        <ele>418.5</ele>
        <time>2022-09-27T13:20:32Z</time>
      </trkpt>
      <trkpt lat="46.18766" lon="6.0125">
        <ele>418.6</ele>
        <time>2022-09-27T13:20:33Z</time>
      </trkpt>
      <trkpt lat="46.18766" lon="6.01252">
        <ele>418.7</ele>
        <time>2022-09-27T13:20:34Z</time>
      </trkpt>
      <trkpt lat="46.18765" lon="6.01255">
        <ele>418.9</ele>
        <time>2022-09-27T13:20:35Z</time>
      </trkpt>
      <trkpt lat="46.18765" lon="6.01257">
        <ele>419</ele>
        <time>2022-09-27T13:20:36Z</time>
      </trkpt>
      <trkpt lat="46.18765" lon="6.01259">
        <ele>419.1</ele>
        <time>2022-09-27T13:20:37Z</time>
      </trkpt>
      <trkpt lat="46.18765" lon="6.01262">
        <ele>419.3</ele>
        <time>2022-09-27T13:20:38Z</time>
      </trkpt>
      <trkpt lat="46.18765" lon="6.01265">
        <ele>419.4</ele>
        <time>2022-09-27T13:20:39Z</time>
      </trkpt>
      <trkpt lat="46.18764" lon="6.01267">
        <ele>419.6</ele>
        <time>2022-09-27T13:20:40Z</time>
      </trkpt>
      <trkpt lat="46.18764" lon="6.0127">
        <ele>419.7</ele>
        <time>2022-09-27T13:20:41Z</time>
      </trkpt>
      <trkpt lat="46.18764" lon="6.01272">
        <ele>419.8</ele>
        <time>2022-09-27T13:20:42Z</time>
      </trkpt>
      <trkpt lat="46.18764" lon="6.01274">
        <ele>419.9</ele>
        <time>2022-09-27T13:20:43Z</time>
      </trkpt>
      <trkpt lat="46.18765" lon="6.01276">
        <ele>420</ele>
        <time>2022-09-27T13:20:44Z</time>
      </trkpt>
      <trkpt lat="46.18764" lon="6.01279">
        <ele>420.1</ele>
        <time>2022-09-27T13:20:45Z</time>
      </trkpt>
      <trkpt lat="46.18764" lon="6.01281">
        <ele>420.2</ele>
        <time>2022-09-27T13:20:46Z</time>
      </trkpt>
      <trkpt lat="46.18765" lon="6.01283">
        <ele>420.3</ele>
        <time>2022-09-27T13:20:47Z</time>
      </trkpt>
      <trkpt lat="46.18765" lon="6.01285">
        <ele>420.4</ele>
        <time>2022-09-27T13:20:48Z</time>
      </trkpt>
      <trkpt lat="46.18765" lon="6.01288">
        <ele>420.4</ele>
        <time>2022-09-27T13:20:49Z</time>
      </trkpt>
      <trkpt lat="46.18765" lon="6.0129">
        <ele>420.4</ele>
        <time>2022-09-27T13:20:50Z</time>
      </trkpt>
      <trkpt lat="46.18765" lon="6.01293">
        <ele>420.4</ele>
        <time>2022-09-27T13:20:51Z</time>
      </trkpt>
      <trkpt lat="46.18766" lon="6.01295">
        <ele>420.4</ele>
        <time>2022-09-27T13:20:52Z</time>
      </trkpt>
      <trkpt lat="46.18766" lon="6.01297">
        <ele>420.5</ele>
        <time>2022-09-27T13:20:53Z</time>
      </trkpt>
      <trkpt lat="46.18767" lon="6.01299">
        <ele>420.5</ele>
        <time>2022-09-27T13:20:54Z</time>
      </trkpt>
      <trkpt lat="46.18768" lon="6.01301">
        <ele>420.5</ele>
        <time>2022-09-27T13:20:55Z</time>
      </trkpt>
      <trkpt lat="46.18769" lon="6.01304">
        <ele>420.6</ele>
        <time>2022-09-27T13:20:56Z</time>
      </trkpt>
      <trkpt lat="46.18769" lon="6.01306">
        <ele>420.6</ele>
        <time>2022-09-27T13:20:57Z</time>
      </trkpt>
      <trkpt lat="46.1877" lon="6.01308">
        <ele>420.6</ele>
        <time>2022-09-27T13:20:58Z</time>
      </trkpt>
      <trkpt lat="46.18772" lon="6.01312">
        <ele>420.7</ele>
        <time>2022-09-27T13:20:59Z</time>
      </trkpt>
      <trkpt lat="46.18773" lon="6.01313">
        <ele>420.7</ele>
        <time>2022-09-27T13:21:00Z</time>
      </trkpt>
      <trkpt lat="46.18775" lon="6.01317">
        <ele>420.7</ele>
        <time>2022-09-27T13:21:01Z</time>
      </trkpt>
      <trkpt lat="46.18776" lon="6.01318">
        <ele>420.7</ele>
        <time>2022-09-27T13:21:02Z</time>
      </trkpt>
      <trkpt lat="46.18779" lon="6.01322">
        <ele>420.8</ele>
        <time>2022-09-27T13:21:03Z</time>
      </trkpt>
      <trkpt lat="46.1878" lon="6.01323">
        <ele>420.8</ele>
        <time>2022-09-27T13:21:04Z</time>
      </trkpt>
      <trkpt lat="46.18782" lon="6.01328">
        <ele>420.9</ele>
        <time>2022-09-27T13:21:05Z</time>
      </trkpt>
      <trkpt lat="46.18783" lon="6.0133">
        <ele>420.9</ele>
        <time>2022-09-27T13:21:06Z</time>
      </trkpt>
      <trkpt lat="46.18785" lon="6.01333">
        <ele>420.9</ele>
        <time>2022-09-27T13:21:07Z</time>
      </trkpt>
      <trkpt lat="46.18787" lon="6.01336">
        <ele>421</ele>
        <time>2022-09-27T13:21:08Z</time>
      </trkpt>
      <trkpt lat="46.18789" lon="6.0134">
        <ele>421</ele>
        <time>2022-09-27T13:21:09Z</time>
      </trkpt>
      <trkpt lat="46.18791" lon="6.01344">
        <ele>421</ele>
        <time>2022-09-27T13:21:10Z</time>
      </trkpt>
      <trkpt lat="46.18793" lon="6.01347">
        <ele>421</ele>
        <time>2022-09-27T13:21:11Z</time>
      </trkpt>
      <trkpt lat="46.18795" lon="6.0135">
        <ele>421.1</ele>
        <time>2022-09-27T13:21:12Z</time>
      </trkpt>
      <trkpt lat="46.18798" lon="6.01352">
        <ele>421.1</ele>
        <time>2022-09-27T13:21:13Z</time>
      </trkpt>
      <trkpt lat="46.188" lon="6.01356">
        <ele>421.1</ele>
        <time>2022-09-27T13:21:14Z</time>
      </trkpt>
      <trkpt lat="46.18804" lon="6.0136">
        <ele>421.1</ele>
        <time>2022-09-27T13:21:15Z</time>
      </trkpt>
      <trkpt lat="46.18806" lon="6.01361">
        <ele>421.1</ele>
        <time>2022-09-27T13:21:16Z</time>
      </trkpt>
      <trkpt lat="46.18809" lon="6.01363">
        <ele>421.1</ele>
        <time>2022-09-27T13:21:17Z</time>
      </trkpt>
      <trkpt lat="46.18813" lon="6.01365">
        <ele>421.1</ele>
        <time>2022-09-27T13:21:18Z</time>
      </trkpt>
      <trkpt lat="46.18817" lon="6.01366">
        <ele>421.1</ele>
        <time>2022-09-27T13:21:19Z</time>
      </trkpt>
      <trkpt lat="46.18821" lon="6.01368">
        <ele>421.1</ele>
        <time>2022-09-27T13:21:20Z</time>
      </trkpt>
      <trkpt lat="46.18826" lon="6.01369">
        <ele>421.1</ele>
        <time>2022-09-27T13:21:21Z</time>
      </trkpt>
      <trkpt lat="46.1883" lon="6.0137">
        <ele>421.1</ele>
        <time>2022-09-27T13:21:22Z</time>
      </trkpt>
      <trkpt lat="46.18834" lon="6.0137">
        <ele>421.1</ele>
        <time>2022-09-27T13:21:23Z</time>
      </trkpt>
      <trkpt lat="46.18837" lon="6.01372">
        <ele>421.1</ele>
        <time>2022-09-27T13:21:24Z</time>
      </trkpt>
      <trkpt lat="46.18841" lon="6.01372">
        <ele>421.1</ele>
        <time>2022-09-27T13:21:25Z</time>
      </trkpt>
      <trkpt lat="46.18844" lon="6.01374">
        <ele>421.1</ele>
        <time>2022-09-27T13:21:26Z</time>
      </trkpt>
      <trkpt lat="46.18848" lon="6.01374">
        <ele>421.1</ele>
        <time>2022-09-27T13:21:27Z</time>
      </trkpt>
      <trkpt lat="46.18852" lon="6.01373">
        <ele>421.1</ele>
        <time>2022-09-27T13:21:28Z</time>
      </trkpt>
      <trkpt lat="46.18856" lon="6.01373">
        <ele>421.1</ele>
        <time>2022-09-27T13:21:29Z</time>
      </trkpt>
      <trkpt lat="46.1886" lon="6.01374">
        <ele>421.1</ele>
        <time>2022-09-27T13:21:30Z</time>
      </trkpt>
      <trkpt lat="46.18865" lon="6.01375">
        <ele>421.1</ele>
        <time>2022-09-27T13:21:31Z</time>
      </trkpt>
      <trkpt lat="46.18869" lon="6.01376">
        <ele>421.2</ele>
        <time>2022-09-27T13:21:32Z</time>
      </trkpt>
      <trkpt lat="46.18873" lon="6.01376">
        <ele>421.2</ele>
        <time>2022-09-27T13:21:33Z</time>
      </trkpt>
      <trkpt lat="46.18877" lon="6.01376">
        <ele>421.2</ele>
        <time>2022-09-27T13:21:34Z</time>
      </trkpt>
      <trkpt lat="46.18881" lon="6.01377">
        <ele>421.2</ele>
        <time>2022-09-27T13:21:35Z</time>
      </trkpt>
      <trkpt lat="46.18886" lon="6.01377">
        <ele>421.2</ele>
        <time>2022-09-27T13:21:36Z</time>
      </trkpt>
      <trkpt lat="46.1889" lon="6.01378">
        <ele>421.2</ele>
        <time>2022-09-27T13:21:37Z</time>
      </trkpt>
      <trkpt lat="46.18893" lon="6.01378">
        <ele>421.2</ele>
        <time>2022-09-27T13:21:38Z</time>
      </trkpt>
      <trkpt lat="46.18897" lon="6.01378">
        <ele>421.2</ele>
        <time>2022-09-27T13:21:39Z</time>
      </trkpt>
      <trkpt lat="46.18902" lon="6.01378">
        <ele>421.2</ele>
        <time>2022-09-27T13:21:40Z</time>
      </trkpt>
      <trkpt lat="46.18906" lon="6.01378">
        <ele>421.2</ele>
        <time>2022-09-27T13:21:41Z</time>
      </trkpt>
      <trkpt lat="46.1891" lon="6.01377">
        <ele>421.3</ele>
        <time>2022-09-27T13:21:42Z</time>
      </trkpt>
      <trkpt lat="46.18913" lon="6.01377">
        <ele>421.3</ele>
        <time>2022-09-27T13:21:43Z</time>
      </trkpt>
      <trkpt lat="46.18918" lon="6.01377">
        <ele>421.3</ele>
        <time>2022-09-27T13:21:44Z</time>
      </trkpt>
      <trkpt lat="46.18922" lon="6.01378">
        <ele>421.3</ele>
        <time>2022-09-27T13:21:45Z</time>
      </trkpt>
      <trkpt lat="46.18926" lon="6.01378">
        <ele>421.3</ele>
        <time>2022-09-27T13:21:46Z</time>
      </trkpt>
      <trkpt lat="46.1893" lon="6.01378">
        <ele>421.3</ele>
        <time>2022-09-27T13:21:47Z</time>
      </trkpt>
      <trkpt lat="46.18935" lon="6.01379">
        <ele>421.4</ele>
        <time>2022-09-27T13:21:48Z</time>
      </trkpt>
      <trkpt lat="46.18939" lon="6.0138">
        <ele>421.4</ele>
        <time>2022-09-27T13:21:49Z</time>
      </trkpt>
      <trkpt lat="46.18943" lon="6.0138">
        <ele>421.4</ele>
        <time>2022-09-27T13:21:50Z</time>
      </trkpt>
      <trkpt lat="46.18947" lon="6.01382">
        <ele>421.4</ele>
        <time>2022-09-27T13:21:51Z</time>
      </trkpt>
      <trkpt lat="46.18951" lon="6.01383">
        <ele>421.4</ele>
        <time>2022-09-27T13:21:52Z</time>
      </trkpt>
      <trkpt lat="46.18955" lon="6.01384">
        <ele>421.4</ele>
        <time>2022-09-27T13:21:53Z</time>
      </trkpt>
      <trkpt lat="46.1896" lon="6.01386">
        <ele>421.5</ele>
        <time>2022-09-27T13:21:54Z</time>
      </trkpt>
      <trkpt lat="46.18964" lon="6.01387">
        <ele>421.5</ele>
        <time>2022-09-27T13:21:55Z</time>
      </trkpt>
      <trkpt lat="46.18968" lon="6.01387">
        <ele>421.5</ele>
        <time>2022-09-27T13:21:56Z</time>
      </trkpt>
      <trkpt lat="46.18971" lon="6.01388">
        <ele>421.5</ele>
        <time>2022-09-27T13:21:57Z</time>
      </trkpt>
      <trkpt lat="46.18975" lon="6.01389">
        <ele>421.5</ele>
        <time>2022-09-27T13:21:58Z</time>
      </trkpt>
      <trkpt lat="46.18979" lon="6.01391">
        <ele>421.6</ele>
        <time>2022-09-27T13:21:59Z</time>
      </trkpt>
      <trkpt lat="46.18984" lon="6.01392">
        <ele>421.6</ele>
        <time>2022-09-27T13:22:00Z</time>
      </trkpt>
      <trkpt lat="46.18988" lon="6.01392">
        <ele>421.6</ele>
        <time>2022-09-27T13:22:01Z</time>
      </trkpt>
      <trkpt lat="46.18993" lon="6.01394">
        <ele>421.7</ele>
        <time>2022-09-27T13:22:02Z</time>
      </trkpt>
      <trkpt lat="46.18997" lon="6.01396">
        <ele>421.7</ele>
        <time>2022-09-27T13:22:03Z</time>
      </trkpt>
      <trkpt lat="46.19001" lon="6.01398">
        <ele>421.7</ele>
        <time>2022-09-27T13:22:04Z</time>
      </trkpt>
      <trkpt lat="46.19005" lon="6.014">
        <ele>421.7</ele>
        <time>2022-09-27T13:22:05Z</time>
      </trkpt>
      <trkpt lat="46.19009" lon="6.01402">
        <ele>421.8</ele>
        <time>2022-09-27T13:22:06Z</time>
      </trkpt>
      <trkpt lat="46.19014" lon="6.01405">
        <ele>421.8</ele>
        <time>2022-09-27T13:22:07Z</time>
      </trkpt>
      <trkpt lat="46.19018" lon="6.01408">
        <ele>421.8</ele>
        <time>2022-09-27T13:22:08Z</time>
      </trkpt>
      <trkpt lat="46.19021" lon="6.01412">
        <ele>421.8</ele>
        <time>2022-09-27T13:22:09Z</time>
      </trkpt>
      <trkpt lat="46.19025" lon="6.01416">
        <ele>421.9</ele>
        <time>2022-09-27T13:22:10Z</time>
      </trkpt>
      <trkpt lat="46.19029" lon="6.0142">
        <ele>421.9</ele>
        <time>2022-09-27T13:22:11Z</time>
      </trkpt>
      <trkpt lat="46.19033" lon="6.01424">
        <ele>421.9</ele>
        <time>2022-09-27T13:22:12Z</time>
      </trkpt>
      <trkpt lat="46.19037" lon="6.01429">
        <ele>422</ele>
        <time>2022-09-27T13:22:13Z</time>
      </trkpt>
      <trkpt lat="46.1904" lon="6.01433">
        <ele>422</ele>
        <time>2022-09-27T13:22:14Z</time>
      </trkpt>
      <trkpt lat="46.19043" lon="6.01438">
        <ele>422</ele>
        <time>2022-09-27T13:22:15Z</time>
      </trkpt>
      <trkpt lat="46.19046" lon="6.01443">
        <ele>422</ele>
        <time>2022-09-27T13:22:16Z</time>
      </trkpt>
      <trkpt lat="46.19049" lon="6.01447">
        <ele>422</ele>
        <time>2022-09-27T13:22:17Z</time>
      </trkpt>
      <trkpt lat="46.19053" lon="6.01452">
        <ele>422</ele>
        <time>2022-09-27T13:22:18Z</time>
      </trkpt>
      <trkpt lat="46.19057" lon="6.01457">
        <ele>422</ele>
        <time>2022-09-27T13:22:19Z</time>
      </trkpt>
      <trkpt lat="46.19059" lon="6.01461">
        <ele>422</ele>
        <time>2022-09-27T13:22:20Z</time>
      </trkpt>
      <trkpt lat="46.19063" lon="6.01466">
        <ele>422</ele>
        <time>2022-09-27T13:22:21Z</time>
      </trkpt>
      <trkpt lat="46.19066" lon="6.01471">
        <ele>422</ele>
        <time>2022-09-27T13:22:22Z</time>
      </trkpt>
      <trkpt lat="46.19069" lon="6.01476">
        <ele>422.1</ele>
        <time>2022-09-27T13:22:23Z</time>
      </trkpt>
      <trkpt lat="46.19072" lon="6.01481">
        <ele>422.1</ele>
        <time>2022-09-27T13:22:24Z</time>
      </trkpt>
      <trkpt lat="46.19076" lon="6.01485">
        <ele>422.1</ele>
        <time>2022-09-27T13:22:25Z</time>
      </trkpt>
      <trkpt lat="46.1908" lon="6.0149">
        <ele>422.1</ele>
        <time>2022-09-27T13:22:26Z</time>
      </trkpt>
      <trkpt lat="46.19083" lon="6.01495">
        <ele>422.1</ele>
        <time>2022-09-27T13:22:27Z</time>
      </trkpt>
      <trkpt lat="46.19086" lon="6.015">
        <ele>422.1</ele>
        <time>2022-09-27T13:22:28Z</time>
      </trkpt>
      <trkpt lat="46.1909" lon="6.01505">
        <ele>422.1</ele>
        <time>2022-09-27T13:22:29Z</time>
      </trkpt>
      <trkpt lat="46.19093" lon="6.01509">
        <ele>422.2</ele>
        <time>2022-09-27T13:22:30Z</time>
      </trkpt>
      <trkpt lat="46.19098" lon="6.01513">
        <ele>422.2</ele>
        <time>2022-09-27T13:22:31Z</time>
      </trkpt>
      <trkpt lat="46.19101" lon="6.01518">
        <ele>422.2</ele>
        <time>2022-09-27T13:22:32Z</time>
      </trkpt>
      <trkpt lat="46.19105" lon="6.01522">
        <ele>422.2</ele>
        <time>2022-09-27T13:22:33Z</time>
      </trkpt>
      <trkpt lat="46.19109" lon="6.01526">
        <ele>422.2</ele>
        <time>2022-09-27T13:22:34Z</time>
      </trkpt>
      <trkpt lat="46.19113" lon="6.0153">
        <ele>422.3</ele>
        <time>2022-09-27T13:22:35Z</time>
      </trkpt>
      <trkpt lat="46.19118" lon="6.01533">
        <ele>422.3</ele>
        <time>2022-09-27T13:22:36Z</time>
      </trkpt>
      <trkpt lat="46.19122" lon="6.01536">
        <ele>422.3</ele>
        <time>2022-09-27T13:22:37Z</time>
      </trkpt>
      <trkpt lat="46.19126" lon="6.0154">
        <ele>422.3</ele>
        <time>2022-09-27T13:22:38Z</time>
      </trkpt>
      <trkpt lat="46.19131" lon="6.01543">
        <ele>422.4</ele>
        <time>2022-09-27T13:22:39Z</time>
      </trkpt>
      <trkpt lat="46.19135" lon="6.01545">
        <ele>422.4</ele>
        <time>2022-09-27T13:22:40Z</time>
      </trkpt>
      <trkpt lat="46.19141" lon="6.01548">
        <ele>422.4</ele>
        <time>2022-09-27T13:22:41Z</time>
      </trkpt>
      <trkpt lat="46.19144" lon="6.01551">
        <ele>422.5</ele>
        <time>2022-09-27T13:22:42Z</time>
      </trkpt>
      <trkpt lat="46.19148" lon="6.01553">
        <ele>422.5</ele>
        <time>2022-09-27T13:22:43Z</time>
      </trkpt>
      <trkpt lat="46.19152" lon="6.01554">
        <ele>422.5</ele>
        <time>2022-09-27T13:22:44Z</time>
      </trkpt>
      <trkpt lat="46.19156" lon="6.01557">
        <ele>422.5</ele>
        <time>2022-09-27T13:22:45Z</time>
      </trkpt>
      <trkpt lat="46.1916" lon="6.01559">
        <ele>422.5</ele>
        <time>2022-09-27T13:22:46Z</time>
      </trkpt>
      <trkpt lat="46.19164" lon="6.01561">
        <ele>422.6</ele>
        <time>2022-09-27T13:22:47Z</time>
      </trkpt>
      <trkpt lat="46.19168" lon="6.01563">
        <ele>422.6</ele>
        <time>2022-09-27T13:22:48Z</time>
      </trkpt>
      <trkpt lat="46.19172" lon="6.01566">
        <ele>422.6</ele>
        <time>2022-09-27T13:22:49Z</time>
      </trkpt>
      <trkpt lat="46.19177" lon="6.01567">
        <ele>422.6</ele>
        <time>2022-09-27T13:22:50Z</time>
      </trkpt>
      <trkpt lat="46.19181" lon="6.0157">
        <ele>422.6</ele>
        <time>2022-09-27T13:22:51Z</time>
      </trkpt>
      <trkpt lat="46.19186" lon="6.01572">
        <ele>422.6</ele>
        <time>2022-09-27T13:22:52Z</time>
      </trkpt>
      <trkpt lat="46.1919" lon="6.01574">
        <ele>422.6</ele>
        <time>2022-09-27T13:22:53Z</time>
      </trkpt>
      <trkpt lat="46.19195" lon="6.01577">
        <ele>422.6</ele>
        <time>2022-09-27T13:22:54Z</time>
      </trkpt>
      <trkpt lat="46.19199" lon="6.01579">
        <ele>422.6</ele>
        <time>2022-09-27T13:22:55Z</time>
      </trkpt>
      <trkpt lat="46.19203" lon="6.01581">
        <ele>422.7</ele>
        <time>2022-09-27T13:22:56Z</time>
      </trkpt>
      <trkpt lat="46.19208" lon="6.01583">
        <ele>422.7</ele>
        <time>2022-09-27T13:22:57Z</time>
      </trkpt>
      <trkpt lat="46.19213" lon="6.01587">
        <ele>422.7</ele>
        <time>2022-09-27T13:22:58Z</time>
      </trkpt>
      <trkpt lat="46.19218" lon="6.01589">
        <ele>422.7</ele>
        <time>2022-09-27T13:22:59Z</time>
      </trkpt>
      <trkpt lat="46.19221" lon="6.01592">
        <ele>422.7</ele>
        <time>2022-09-27T13:23:00Z</time>
      </trkpt>
      <trkpt lat="46.19227" lon="6.01594">
        <ele>422.7</ele>
        <time>2022-09-27T13:23:01Z</time>
      </trkpt>
      <trkpt lat="46.19232" lon="6.01597">
        <ele>422.7</ele>
        <time>2022-09-27T13:23:02Z</time>
      </trkpt>
      <trkpt lat="46.19237" lon="6.01599">
        <ele>422.7</ele>
        <time>2022-09-27T13:23:03Z</time>
      </trkpt>
      <trkpt lat="46.19242" lon="6.01602">
        <ele>422.7</ele>
        <time>2022-09-27T13:23:04Z</time>
      </trkpt>
      <trkpt lat="46.19246" lon="6.01604">
        <ele>422.7</ele>
        <time>2022-09-27T13:23:05Z</time>
      </trkpt>
      <trkpt lat="46.1925" lon="6.01606">
        <ele>422.7</ele>
        <time>2022-09-27T13:23:06Z</time>
      </trkpt>
      <trkpt lat="46.19255" lon="6.01609">
        <ele>422.7</ele>
        <time>2022-09-27T13:23:07Z</time>
      </trkpt>
      <trkpt lat="46.1926" lon="6.01611">
        <ele>422.7</ele>
        <time>2022-09-27T13:23:08Z</time>
      </trkpt>
      <trkpt lat="46.19265" lon="6.01614">
        <ele>422.7</ele>
        <time>2022-09-27T13:23:09Z</time>
      </trkpt>
      <trkpt lat="46.1927" lon="6.01616">
        <ele>422.6</ele>
        <time>2022-09-27T13:23:10Z</time>
      </trkpt>
      <trkpt lat="46.19274" lon="6.01618">
        <ele>422.6</ele>
        <time>2022-09-27T13:23:11Z</time>
      </trkpt>
      <trkpt lat="46.19279" lon="6.01621">
        <ele>422.6</ele>
        <time>2022-09-27T13:23:12Z</time>
      </trkpt>
      <trkpt lat="46.19283" lon="6.01623">
        <ele>422.6</ele>
        <time>2022-09-27T13:23:13Z</time>
      </trkpt>
      <trkpt lat="46.19288" lon="6.01626">
        <ele>422.6</ele>
        <time>2022-09-27T13:23:14Z</time>
      </trkpt>
      <trkpt lat="46.19292" lon="6.01629">
        <ele>422.5</ele>
        <time>2022-09-27T13:23:15Z</time>
      </trkpt>
      <trkpt lat="46.19297" lon="6.01632">
        <ele>422.5</ele>
        <time>2022-09-27T13:23:16Z</time>
      </trkpt>
      <trkpt lat="46.193" lon="6.01637">
        <ele>422.4</ele>
        <time>2022-09-27T13:23:17Z</time>
      </trkpt>
      <trkpt lat="46.19303" lon="6.01642">
        <ele>422.3</ele>
        <time>2022-09-27T13:23:18Z</time>
      </trkpt>
      <trkpt lat="46.19305" lon="6.01648">
        <ele>422.3</ele>
        <time>2022-09-27T13:23:19Z</time>
      </trkpt>
      <trkpt lat="46.19306" lon="6.01653">
        <ele>422.2</ele>
        <time>2022-09-27T13:23:20Z</time>
      </trkpt>
      <trkpt lat="46.19307" lon="6.01659">
        <ele>422.1</ele>
        <time>2022-09-27T13:23:21Z</time>
      </trkpt>
      <trkpt lat="46.19308" lon="6.01665">
        <ele>422.1</ele>
        <time>2022-09-27T13:23:22Z</time>
      </trkpt>
      <trkpt lat="46.19309" lon="6.01672">
        <ele>422</ele>
        <time>2022-09-27T13:23:23Z</time>
      </trkpt>
      <trkpt lat="46.19308" lon="6.0168">
        <ele>421.9</ele>
        <time>2022-09-27T13:23:24Z</time>
      </trkpt>
      <trkpt lat="46.19307" lon="6.01687">
        <ele>421.8</ele>
        <time>2022-09-27T13:23:25Z</time>
      </trkpt>
      <trkpt lat="46.19304" lon="6.01694">
        <ele>421.8</ele>
        <time>2022-09-27T13:23:26Z</time>
      </trkpt>
      <trkpt lat="46.19302" lon="6.017">
        <ele>421.7</ele>
        <time>2022-09-27T13:23:27Z</time>
      </trkpt>
      <trkpt lat="46.19301" lon="6.01707">
        <ele>421.7</ele>
        <time>2022-09-27T13:23:28Z</time>
      </trkpt>
      <trkpt lat="46.19298" lon="6.01713">
        <ele>421.6</ele>
        <time>2022-09-27T13:23:29Z</time>
      </trkpt>
      <trkpt lat="46.19295" lon="6.0172">
        <ele>421.5</ele>
        <time>2022-09-27T13:23:30Z</time>
      </trkpt>
      <trkpt lat="46.19293" lon="6.01727">
        <ele>421.4</ele>
        <time>2022-09-27T13:23:31Z</time>
      </trkpt>
      <trkpt lat="46.1929" lon="6.01733">
        <ele>421.3</ele>
        <time>2022-09-27T13:23:32Z</time>
      </trkpt>
      <trkpt lat="46.19287" lon="6.01741">
        <ele>421.2</ele>
        <time>2022-09-27T13:23:33Z</time>
      </trkpt>
      <trkpt lat="46.19284" lon="6.01748">
        <ele>421.2</ele>
        <time>2022-09-27T13:23:34Z</time>
      </trkpt>
      <trkpt lat="46.19281" lon="6.01755">
        <ele>421.1</ele>
        <time>2022-09-27T13:23:35Z</time>
      </trkpt>
      <trkpt lat="46.19279" lon="6.01761">
        <ele>421</ele>
        <time>2022-09-27T13:23:36Z</time>
      </trkpt>
      <trkpt lat="46.19276" lon="6.01769">
        <ele>420.9</ele>
        <time>2022-09-27T13:23:37Z</time>
      </trkpt>
      <trkpt lat="46.19273" lon="6.01776">
        <ele>420.8</ele>
        <time>2022-09-27T13:23:38Z</time>
      </trkpt>
      <trkpt lat="46.19271" lon="6.01783">
        <ele>420.7</ele>
        <time>2022-09-27T13:23:39Z</time>
      </trkpt>
      <trkpt lat="46.19269" lon="6.0179">
        <ele>420.6</ele>
        <time>2022-09-27T13:23:40Z</time>
      </trkpt>
      <trkpt lat="46.19266" lon="6.01797">
        <ele>420.4</ele>
        <time>2022-09-27T13:23:41Z</time>
      </trkpt>
      <trkpt lat="46.19263" lon="6.01804">
        <ele>420.3</ele>
        <time>2022-09-27T13:23:42Z</time>
      </trkpt>
      <trkpt lat="46.19261" lon="6.01812">
        <ele>420.1</ele>
        <time>2022-09-27T13:23:43Z</time>
      </trkpt>
      <trkpt lat="46.19258" lon="6.01817">
        <ele>420</ele>
        <time>2022-09-27T13:23:44Z</time>
      </trkpt>
      <trkpt lat="46.19256" lon="6.01825">
        <ele>419.9</ele>
        <time>2022-09-27T13:23:45Z</time>
      </trkpt>
      <trkpt lat="46.19253" lon="6.01832">
        <ele>419.8</ele>
        <time>2022-09-27T13:23:46Z</time>
      </trkpt>
      <trkpt lat="46.19251" lon="6.01838">
        <ele>419.5</ele>
        <time>2022-09-27T13:23:47Z</time>
      </trkpt>
      <trkpt lat="46.19248" lon="6.01845">
        <ele>419.2</ele>
        <time>2022-09-27T13:23:48Z</time>
      </trkpt>
      <trkpt lat="46.19246" lon="6.01851">
        <ele>418.9</ele>
        <time>2022-09-27T13:23:49Z</time>
      </trkpt>
      <trkpt lat="46.19244" lon="6.01858">
        <ele>418.6</ele>
        <time>2022-09-27T13:23:50Z</time>
      </trkpt>
      <trkpt lat="46.19241" lon="6.01865">
        <ele>418.2</ele>
        <time>2022-09-27T13:23:51Z</time>
      </trkpt>
      <trkpt lat="46.19239" lon="6.01872">
        <ele>417.9</ele>
        <time>2022-09-27T13:23:52Z</time>
      </trkpt>
      <trkpt lat="46.19236" lon="6.0188">
        <ele>417.4</ele>
        <time>2022-09-27T13:23:53Z</time>
      </trkpt>
      <trkpt lat="46.19233" lon="6.01887">
        <ele>417</ele>
        <time>2022-09-27T13:23:54Z</time>
      </trkpt>
      <trkpt lat="46.1923" lon="6.01895">
        <ele>416.6</ele>
        <time>2022-09-27T13:23:55Z</time>
      </trkpt>
      <trkpt lat="46.19227" lon="6.01905">
        <ele>416.1</ele>
        <time>2022-09-27T13:23:56Z</time>
      </trkpt>
      <trkpt lat="46.19224" lon="6.01913">
        <ele>415.6</ele>
        <time>2022-09-27T13:23:57Z</time>
      </trkpt>
      <trkpt lat="46.19221" lon="6.01923">
        <ele>415.1</ele>
        <time>2022-09-27T13:23:58Z</time>
      </trkpt>
      <trkpt lat="46.19217" lon="6.01932">
        <ele>414.6</ele>
        <time>2022-09-27T13:23:59Z</time>
      </trkpt>
      <trkpt lat="46.19214" lon="6.0194">
        <ele>414.2</ele>
        <time>2022-09-27T13:24:00Z</time>
      </trkpt>
      <trkpt lat="46.19212" lon="6.01948">
        <ele>413.8</ele>
        <time>2022-09-27T13:24:01Z</time>
      </trkpt>
      <trkpt lat="46.1921" lon="6.01955">
        <ele>413.5</ele>
        <time>2022-09-27T13:24:02Z</time>
      </trkpt>
      <trkpt lat="46.19208" lon="6.01964">
        <ele>413.1</ele>
        <time>2022-09-27T13:24:03Z</time>
      </trkpt>
      <trkpt lat="46.19207" lon="6.01971">
        <ele>412.8</ele>
        <time>2022-09-27T13:24:04Z</time>
      </trkpt>
      <trkpt lat="46.19207" lon="6.01979">
        <ele>412.4</ele>
        <time>2022-09-27T13:24:05Z</time>
      </trkpt>
      <trkpt lat="46.19208" lon="6.01987">
        <ele>412.1</ele>
        <time>2022-09-27T13:24:06Z</time>
      </trkpt>
      <trkpt lat="46.1921" lon="6.01994">
        <ele>411.8</ele>
        <time>2022-09-27T13:24:07Z</time>
      </trkpt>
      <trkpt lat="46.19213" lon="6.02002">
        <ele>411.4</ele>
        <time>2022-09-27T13:24:08Z</time>
      </trkpt>
      <trkpt lat="46.19216" lon="6.02009">
        <ele>411</ele>
        <time>2022-09-27T13:24:09Z</time>
      </trkpt>
      <trkpt lat="46.1922" lon="6.02015">
        <ele>410.6</ele>
        <time>2022-09-27T13:24:10Z</time>
      </trkpt>
      <trkpt lat="46.19225" lon="6.0202">
        <ele>410.1</ele>
        <time>2022-09-27T13:24:11Z</time>
      </trkpt>
      <trkpt lat="46.1923" lon="6.02025">
        <ele>409.7</ele>
        <time>2022-09-27T13:24:12Z</time>
      </trkpt>
      <trkpt lat="46.19236" lon="6.02028">
        <ele>409.3</ele>
        <time>2022-09-27T13:24:13Z</time>
      </trkpt>
      <trkpt lat="46.19242" lon="6.02029">
        <ele>408.8</ele>
        <time>2022-09-27T13:24:14Z</time>
      </trkpt>
      <trkpt lat="46.19249" lon="6.0203">
        <ele>408.3</ele>
        <time>2022-09-27T13:24:15Z</time>
      </trkpt>
      <trkpt lat="46.19255" lon="6.02029">
        <ele>407.9</ele>
        <time>2022-09-27T13:24:16Z</time>
      </trkpt>
      <trkpt lat="46.19261" lon="6.02028">
        <ele>407.5</ele>
        <time>2022-09-27T13:24:17Z</time>
      </trkpt>
      <trkpt lat="46.19265" lon="6.02027">
        <ele>407.2</ele>
        <time>2022-09-27T13:24:18Z</time>
      </trkpt>
      <trkpt lat="46.19272" lon="6.02026">
        <ele>406.8</ele>
        <time>2022-09-27T13:24:19Z</time>
      </trkpt>
      <trkpt lat="46.19278" lon="6.02026">
        <ele>406.4</ele>
        <time>2022-09-27T13:24:20Z</time>
      </trkpt>
      <trkpt lat="46.19283" lon="6.02026">
        <ele>406.1</ele>
        <time>2022-09-27T13:24:21Z</time>
      </trkpt>
      <trkpt lat="46.19289" lon="6.02026">
        <ele>405.8</ele>
        <time>2022-09-27T13:24:22Z</time>
      </trkpt>
      <trkpt lat="46.19295" lon="6.02028">
        <ele>405.4</ele>
        <time>2022-09-27T13:24:23Z</time>
      </trkpt>
      <trkpt lat="46.193" lon="6.02032">
        <ele>405.1</ele>
        <time>2022-09-27T13:24:24Z</time>
      </trkpt>
      <trkpt lat="46.19306" lon="6.02037">
        <ele>404.7</ele>
        <time>2022-09-27T13:24:25Z</time>
      </trkpt>
      <trkpt lat="46.1931" lon="6.02043">
        <ele>404.3</ele>
        <time>2022-09-27T13:24:26Z</time>
      </trkpt>
      <trkpt lat="46.19314" lon="6.02049">
        <ele>403.9</ele>
        <time>2022-09-27T13:24:27Z</time>
      </trkpt>
      <trkpt lat="46.19317" lon="6.02057">
        <ele>403.5</ele>
        <time>2022-09-27T13:24:28Z</time>
      </trkpt>
      <trkpt lat="46.19319" lon="6.02065">
        <ele>403.2</ele>
        <time>2022-09-27T13:24:29Z</time>
      </trkpt>
      <trkpt lat="46.1932" lon="6.02073">
        <ele>402.8</ele>
        <time>2022-09-27T13:24:30Z</time>
      </trkpt>
      <trkpt lat="46.19318" lon="6.02082">
        <ele>402.3</ele>
        <time>2022-09-27T13:24:31Z</time>
      </trkpt>
      <trkpt lat="46.19316" lon="6.0209">
        <ele>401.9</ele>
        <time>2022-09-27T13:24:32Z</time>
      </trkpt>
      <trkpt lat="46.19313" lon="6.02098">
        <ele>401.3</ele>
        <time>2022-09-27T13:24:33Z</time>
      </trkpt>
      <trkpt lat="46.1931" lon="6.02105">
        <ele>400.8</ele>
        <time>2022-09-27T13:24:34Z</time>
      </trkpt>
      <trkpt lat="46.19305" lon="6.02111">
        <ele>400.3</ele>
        <time>2022-09-27T13:24:35Z</time>
      </trkpt>
      <trkpt lat="46.193" lon="6.02116">
        <ele>399.8</ele>
        <time>2022-09-27T13:24:36Z</time>
      </trkpt>
      <trkpt lat="46.19293" lon="6.02122">
        <ele>399.3</ele>
        <time>2022-09-27T13:24:37Z</time>
      </trkpt>
      <trkpt lat="46.19288" lon="6.02126">
        <ele>398.9</ele>
        <time>2022-09-27T13:24:38Z</time>
      </trkpt>
      <trkpt lat="46.19281" lon="6.02131">
        <ele>398.4</ele>
        <time>2022-09-27T13:24:39Z</time>
      </trkpt>
      <trkpt lat="46.19274" lon="6.02136">
        <ele>397.9</ele>
        <time>2022-09-27T13:24:40Z</time>
      </trkpt>
      <trkpt lat="46.19267" lon="6.02141">
        <ele>397.3</ele>
        <time>2022-09-27T13:24:41Z</time>
      </trkpt>
      <trkpt lat="46.19261" lon="6.02146">
        <ele>396.9</ele>
        <time>2022-09-27T13:24:42Z</time>
      </trkpt>
      <trkpt lat="46.19254" lon="6.02151">
        <ele>396.4</ele>
        <time>2022-09-27T13:24:43Z</time>
      </trkpt>
      <trkpt lat="46.19247" lon="6.02157">
        <ele>395.9</ele>
        <time>2022-09-27T13:24:44Z</time>
      </trkpt>
      <trkpt lat="46.1924" lon="6.02162">
        <ele>395.4</ele>
        <time>2022-09-27T13:24:45Z</time>
      </trkpt>
      <trkpt lat="46.19234" lon="6.02167">
        <ele>395</ele>
        <time>2022-09-27T13:24:46Z</time>
      </trkpt>
      <trkpt lat="46.19228" lon="6.02172">
        <ele>394.6</ele>
        <time>2022-09-27T13:24:47Z</time>
      </trkpt>
      <trkpt lat="46.19223" lon="6.02178">
        <ele>394.3</ele>
        <time>2022-09-27T13:24:48Z</time>
      </trkpt>
      <trkpt lat="46.19218" lon="6.02185">
        <ele>393.9</ele>
        <time>2022-09-27T13:24:49Z</time>
      </trkpt>
      <trkpt lat="46.19215" lon="6.02193">
        <ele>393.5</ele>
        <time>2022-09-27T13:24:50Z</time>
      </trkpt>
      <trkpt lat="46.19213" lon="6.022">
        <ele>393.2</ele>
        <time>2022-09-27T13:24:51Z</time>
      </trkpt>
      <trkpt lat="46.19211" lon="6.02209">
        <ele>392.8</ele>
        <time>2022-09-27T13:24:52Z</time>
      </trkpt>
      <trkpt lat="46.19209" lon="6.02218">
        <ele>392.4</ele>
        <time>2022-09-27T13:24:53Z</time>
      </trkpt>
      <trkpt lat="46.19208" lon="6.02228">
        <ele>392</ele>
        <time>2022-09-27T13:24:54Z</time>
      </trkpt>
      <trkpt lat="46.19209" lon="6.02237">
        <ele>391.6</ele>
        <time>2022-09-27T13:24:55Z</time>
      </trkpt>
      <trkpt lat="46.1921" lon="6.02246">
        <ele>391.3</ele>
        <time>2022-09-27T13:24:56Z</time>
      </trkpt>
      <trkpt lat="46.19212" lon="6.02256">
        <ele>390.8</ele>
        <time>2022-09-27T13:24:57Z</time>
      </trkpt>
      <trkpt lat="46.19215" lon="6.02264">
        <ele>390.4</ele>
        <time>2022-09-27T13:24:58Z</time>
      </trkpt>
      <trkpt lat="46.19219" lon="6.02272">
        <ele>389.9</ele>
        <time>2022-09-27T13:24:59Z</time>
      </trkpt>
      <trkpt lat="46.19223" lon="6.02279">
        <ele>389.5</ele>
        <time>2022-09-27T13:25:00Z</time>
      </trkpt>
      <trkpt lat="46.19229" lon="6.02285">
        <ele>389.1</ele>
        <time>2022-09-27T13:25:01Z</time>
      </trkpt>
      <trkpt lat="46.19234" lon="6.0229">
        <ele>388.6</ele>
        <time>2022-09-27T13:25:02Z</time>
      </trkpt>
      <trkpt lat="46.19241" lon="6.02294">
        <ele>388.2</ele>
        <time>2022-09-27T13:25:03Z</time>
      </trkpt>
      <trkpt lat="46.19248" lon="6.02298">
        <ele>387.7</ele>
        <time>2022-09-27T13:25:04Z</time>
      </trkpt>
      <trkpt lat="46.19256" lon="6.02301">
        <ele>387.2</ele>
        <time>2022-09-27T13:25:05Z</time>
      </trkpt>
      <trkpt lat="46.19262" lon="6.02305">
        <ele>386.7</ele>
        <time>2022-09-27T13:25:06Z</time>
      </trkpt>
      <trkpt lat="46.19269" lon="6.02308">
        <ele>386.3</ele>
        <time>2022-09-27T13:25:07Z</time>
      </trkpt>
      <trkpt lat="46.19275" lon="6.02311">
        <ele>385.8</ele>
        <time>2022-09-27T13:25:08Z</time>
      </trkpt>
      <trkpt lat="46.19281" lon="6.02315">
        <ele>385.4</ele>
        <time>2022-09-27T13:25:09Z</time>
      </trkpt>
      <trkpt lat="46.19288" lon="6.02319">
        <ele>384.9</ele>
        <time>2022-09-27T13:25:10Z</time>
      </trkpt>
      <trkpt lat="46.19293" lon="6.02322">
        <ele>384.5</ele>
        <time>2022-09-27T13:25:11Z</time>
      </trkpt>
      <trkpt lat="46.19298" lon="6.02327">
        <ele>384.1</ele>
        <time>2022-09-27T13:25:12Z</time>
      </trkpt>
      <trkpt lat="46.19303" lon="6.02332">
        <ele>383.7</ele>
        <time>2022-09-27T13:25:13Z</time>
      </trkpt>
      <trkpt lat="46.19308" lon="6.02337">
        <ele>383.3</ele>
        <time>2022-09-27T13:25:14Z</time>
      </trkpt>
      <trkpt lat="46.19312" lon="6.02343">
        <ele>382.8</ele>
        <time>2022-09-27T13:25:15Z</time>
      </trkpt>
      <trkpt lat="46.19315" lon="6.02351">
        <ele>382.4</ele>
        <time>2022-09-27T13:25:16Z</time>
      </trkpt>
      <trkpt lat="46.19318" lon="6.0236">
        <ele>381.9</ele>
        <time>2022-09-27T13:25:17Z</time>
      </trkpt>
      <trkpt lat="46.19319" lon="6.02369">
        <ele>381.4</ele>
        <time>2022-09-27T13:25:18Z</time>
      </trkpt>
      <trkpt lat="46.19319" lon="6.02377">
        <ele>381</ele>
        <time>2022-09-27T13:25:19Z</time>
      </trkpt>
      <trkpt lat="46.19319" lon="6.02386">
        <ele>380.5</ele>
        <time>2022-09-27T13:25:20Z</time>
      </trkpt>
      <trkpt lat="46.19318" lon="6.02394">
        <ele>380.1</ele>
        <time>2022-09-27T13:25:21Z</time>
      </trkpt>
      <trkpt lat="46.19316" lon="6.02402">
        <ele>379.7</ele>
        <time>2022-09-27T13:25:22Z</time>
      </trkpt>
      <trkpt lat="46.19315" lon="6.02409">
        <ele>379.3</ele>
        <time>2022-09-27T13:25:23Z</time>
      </trkpt>
      <trkpt lat="46.19312" lon="6.02416">
        <ele>378.9</ele>
        <time>2022-09-27T13:25:24Z</time>
      </trkpt>
      <trkpt lat="46.19309" lon="6.02422">
        <ele>378.8</ele>
        <time>2022-09-27T13:25:25Z</time>
      </trkpt>
      <trkpt lat="46.19305" lon="6.02426">
        <ele>378.7</ele>
        <time>2022-09-27T13:25:26Z</time>
      </trkpt>
      <trkpt lat="46.193" lon="6.0243">
        <ele>378.5</ele>
        <time>2022-09-27T13:25:27Z</time>
      </trkpt>
      <trkpt lat="46.19297" lon="6.02433">
        <ele>378.4</ele>
        <time>2022-09-27T13:25:28Z</time>
      </trkpt>
      <trkpt lat="46.19292" lon="6.02436">
        <ele>378.3</ele>
        <time>2022-09-27T13:25:29Z</time>
      </trkpt>
      <trkpt lat="46.19287" lon="6.02439">
        <ele>378.2</ele>
        <time>2022-09-27T13:25:30Z</time>
      </trkpt>
      <trkpt lat="46.19283" lon="6.0244">
        <ele>378.1</ele>
        <time>2022-09-27T13:25:31Z</time>
      </trkpt>
      <trkpt lat="46.1928" lon="6.02442">
        <ele>378</ele>
        <time>2022-09-27T13:25:32Z</time>
      </trkpt>
      <trkpt lat="46.19277" lon="6.02442">
        <ele>378</ele>
        <time>2022-09-27T13:25:33Z</time>
      </trkpt>
      <trkpt lat="46.19275" lon="6.02446">
        <ele>377.9</ele>
        <time>2022-09-27T13:25:34Z</time>
      </trkpt>
      <trkpt lat="46.19274" lon="6.02448">
        <ele>377.9</ele>
        <time>2022-09-27T13:25:35Z</time>
      </trkpt>
      <trkpt lat="46.19275" lon="6.02452">
        <ele>377.8</ele>
        <time>2022-09-27T13:25:36Z</time>
      </trkpt>
      <trkpt lat="46.19278" lon="6.02455">
        <ele>377.8</ele>
        <time>2022-09-27T13:25:37Z</time>
      </trkpt>
      <trkpt lat="46.19281" lon="6.02456">
        <ele>377.7</ele>
        <time>2022-09-27T13:25:38Z</time>
      </trkpt>
      <trkpt lat="46.19283" lon="6.02459">
        <ele>377.7</ele>
        <time>2022-09-27T13:25:39Z</time>
      </trkpt>
      <trkpt lat="46.19286" lon="6.02461">
        <ele>377.6</ele>
        <time>2022-09-27T13:25:40Z</time>
      </trkpt>
      <trkpt lat="46.19289" lon="6.02463">
        <ele>377.6</ele>
        <time>2022-09-27T13:25:41Z</time>
      </trkpt>
      <trkpt lat="46.19291" lon="6.02466">
        <ele>377.5</ele>
        <time>2022-09-27T13:25:42Z</time>
      </trkpt>
      <trkpt lat="46.19292" lon="6.02467">
        <ele>377.5</ele>
        <time>2022-09-27T13:25:43Z</time>
      </trkpt>
      <trkpt lat="46.19295" lon="6.0247">
        <ele>377.4</ele>
        <time>2022-09-27T13:25:44Z</time>
      </trkpt>
      <trkpt lat="46.19295" lon="6.02472">
        <ele>377.5</ele>
        <time>2022-09-27T13:25:45Z</time>
      </trkpt>
      <trkpt lat="46.19297" lon="6.02477">
        <ele>377.9</ele>
        <time>2022-09-27T13:25:46Z</time>
      </trkpt>
      <trkpt lat="46.19297" lon="6.02478">
        <ele>378</ele>
        <time>2022-09-27T13:25:47Z</time>
      </trkpt>
      <trkpt lat="46.19297" lon="6.02483">
        <ele>377.8</ele>
        <time>2022-09-27T13:25:48Z</time>
      </trkpt>
      <trkpt lat="46.19296" lon="6.02488">
        <ele>377.6</ele>
        <time>2022-09-27T13:25:49Z</time>
      </trkpt>
      <trkpt lat="46.19295" lon="6.02494">
        <ele>377.3</ele>
        <time>2022-09-27T13:25:50Z</time>
      </trkpt>
      <trkpt lat="46.19294" lon="6.02501">
        <ele>377.1</ele>
        <time>2022-09-27T13:25:51Z</time>
      </trkpt>
      <trkpt lat="46.19291" lon="6.02508">
        <ele>376.7</ele>
        <time>2022-09-27T13:25:52Z</time>
      </trkpt>
      <trkpt lat="46.19289" lon="6.02516">
        <ele>376.4</ele>
        <time>2022-09-27T13:25:53Z</time>
      </trkpt>
      <trkpt lat="46.19287" lon="6.02523">
        <ele>376</ele>
        <time>2022-09-27T13:25:54Z</time>
      </trkpt>
      <trkpt lat="46.19284" lon="6.02531">
        <ele>375.7</ele>
        <time>2022-09-27T13:25:55Z</time>
      </trkpt>
      <trkpt lat="46.19283" lon="6.0254">
        <ele>375.3</ele>
        <time>2022-09-27T13:25:56Z</time>
      </trkpt>
      <trkpt lat="46.19281" lon="6.02549">
        <ele>375</ele>
        <time>2022-09-27T13:25:57Z</time>
      </trkpt>
      <trkpt lat="46.19279" lon="6.02559">
        <ele>374.6</ele>
        <time>2022-09-27T13:25:58Z</time>
      </trkpt>
      <trkpt lat="46.19276" lon="6.02569">
        <ele>374.3</ele>
        <time>2022-09-27T13:25:59Z</time>
      </trkpt>
      <trkpt lat="46.19274" lon="6.02579">
        <ele>374</ele>
        <time>2022-09-27T13:26:00Z</time>
      </trkpt>
      <trkpt lat="46.19271" lon="6.02588">
        <ele>373.7</ele>
        <time>2022-09-27T13:26:01Z</time>
      </trkpt>
      <trkpt lat="46.19269" lon="6.02599">
        <ele>373.4</ele>
        <time>2022-09-27T13:26:02Z</time>
      </trkpt>
      <trkpt lat="46.19266" lon="6.02609">
        <ele>373.2</ele>
        <time>2022-09-27T13:26:03Z</time>
      </trkpt>
      <trkpt lat="46.19264" lon="6.02618">
        <ele>373</ele>
        <time>2022-09-27T13:26:04Z</time>
      </trkpt>
      <trkpt lat="46.19262" lon="6.02627">
        <ele>372.8</ele>
        <time>2022-09-27T13:26:05Z</time>
      </trkpt>
      <trkpt lat="46.1926" lon="6.02636">
        <ele>372.7</ele>
        <time>2022-09-27T13:26:06Z</time>
      </trkpt>
      <trkpt lat="46.19258" lon="6.02645">
        <ele>372.7</ele>
        <time>2022-09-27T13:26:07Z</time>
      </trkpt>
      <trkpt lat="46.19257" lon="6.02654">
        <ele>372.7</ele>
        <time>2022-09-27T13:26:08Z</time>
      </trkpt>
      <trkpt lat="46.19256" lon="6.02662">
        <ele>372.7</ele>
        <time>2022-09-27T13:26:09Z</time>
      </trkpt>
      <trkpt lat="46.19254" lon="6.0267">
        <ele>372.7</ele>
        <time>2022-09-27T13:26:10Z</time>
      </trkpt>
      <trkpt lat="46.19253" lon="6.02678">
        <ele>372.7</ele>
        <time>2022-09-27T13:26:11Z</time>
      </trkpt>
      <trkpt lat="46.19252" lon="6.02686">
        <ele>372.7</ele>
        <time>2022-09-27T13:26:12Z</time>
      </trkpt>
      <trkpt lat="46.19251" lon="6.02694">
        <ele>372.6</ele>
        <time>2022-09-27T13:26:13Z</time>
      </trkpt>
      <trkpt lat="46.1925" lon="6.02702">
        <ele>372.6</ele>
        <time>2022-09-27T13:26:14Z</time>
      </trkpt>
      <trkpt lat="46.1925" lon="6.02708">
        <ele>372.7</ele>
        <time>2022-09-27T13:26:15Z</time>
      </trkpt>
      <trkpt lat="46.1925" lon="6.02716">
        <ele>372.7</ele>
        <time>2022-09-27T13:26:16Z</time>
      </trkpt>
      <trkpt lat="46.1925" lon="6.02724">
        <ele>372.7</ele>
        <time>2022-09-27T13:26:17Z</time>
      </trkpt>
      <trkpt lat="46.1925" lon="6.02732">
        <ele>372.7</ele>
        <time>2022-09-27T13:26:18Z</time>
      </trkpt>
      <trkpt lat="46.19251" lon="6.02738">
        <ele>372.7</ele>
        <time>2022-09-27T13:26:19Z</time>
      </trkpt>
      <trkpt lat="46.19252" lon="6.02746">
        <ele>372.7</ele>
        <time>2022-09-27T13:26:20Z</time>
      </trkpt>
      <trkpt lat="46.19254" lon="6.02753">
        <ele>372.7</ele>
        <time>2022-09-27T13:26:21Z</time>
      </trkpt>
      <trkpt lat="46.19256" lon="6.0276">
        <ele>372.8</ele>
        <time>2022-09-27T13:26:22Z</time>
      </trkpt>
      <trkpt lat="46.19258" lon="6.02767">
        <ele>372.8</ele>
        <time>2022-09-27T13:26:23Z</time>
      </trkpt>
      <trkpt lat="46.1926" lon="6.02774">
        <ele>372.8</ele>
        <time>2022-09-27T13:26:24Z</time>
      </trkpt>
      <trkpt lat="46.19262" lon="6.02781">
        <ele>372.8</ele>
        <time>2022-09-27T13:26:25Z</time>
      </trkpt>
      <trkpt lat="46.19265" lon="6.02787">
        <ele>372.8</ele>
        <time>2022-09-27T13:26:26Z</time>
      </trkpt>
      <trkpt lat="46.19267" lon="6.02794">
        <ele>372.8</ele>
        <time>2022-09-27T13:26:27Z</time>
      </trkpt>
      <trkpt lat="46.1927" lon="6.02802">
        <ele>372.8</ele>
        <time>2022-09-27T13:26:28Z</time>
      </trkpt>
      <trkpt lat="46.19272" lon="6.02809">
        <ele>372.8</ele>
        <time>2022-09-27T13:26:29Z</time>
      </trkpt>
      <trkpt lat="46.19275" lon="6.02816">
        <ele>372.8</ele>
        <time>2022-09-27T13:26:30Z</time>
      </trkpt>
      <trkpt lat="46.19278" lon="6.02824">
        <ele>372.8</ele>
        <time>2022-09-27T13:26:31Z</time>
      </trkpt>
      <trkpt lat="46.1928" lon="6.02831">
        <ele>372.8</ele>
        <time>2022-09-27T13:26:32Z</time>
      </trkpt>
      <trkpt lat="46.19283" lon="6.02838">
        <ele>372.8</ele>
        <time>2022-09-27T13:26:33Z</time>
      </trkpt>
      <trkpt lat="46.19286" lon="6.02845">
        <ele>372.8</ele>
        <time>2022-09-27T13:26:34Z</time>
      </trkpt>
      <trkpt lat="46.19289" lon="6.02853">
        <ele>372.8</ele>
        <time>2022-09-27T13:26:35Z</time>
      </trkpt>
      <trkpt lat="46.19292" lon="6.0286">
        <ele>372.8</ele>
        <time>2022-09-27T13:26:36Z</time>
      </trkpt>
      <trkpt lat="46.19295" lon="6.02868">
        <ele>372.8</ele>
        <time>2022-09-27T13:26:37Z</time>
      </trkpt>
      <trkpt lat="46.19298" lon="6.02875">
        <ele>372.8</ele>
        <time>2022-09-27T13:26:38Z</time>
      </trkpt>
      <trkpt lat="46.19301" lon="6.02883">
        <ele>372.8</ele>
        <time>2022-09-27T13:26:39Z</time>
      </trkpt>
      <trkpt lat="46.19304" lon="6.0289">
        <ele>372.8</ele>
        <time>2022-09-27T13:26:40Z</time>
      </trkpt>
      <trkpt lat="46.19306" lon="6.02898">
        <ele>372.8</ele>
        <time>2022-09-27T13:26:41Z</time>
      </trkpt>
      <trkpt lat="46.19309" lon="6.02905">
        <ele>372.8</ele>
        <time>2022-09-27T13:26:42Z</time>
      </trkpt>
      <trkpt lat="46.19311" lon="6.02913">
        <ele>372.7</ele>
        <time>2022-09-27T13:26:43Z</time>
      </trkpt>
      <trkpt lat="46.19314" lon="6.0292">
        <ele>372.7</ele>
        <time>2022-09-27T13:26:44Z</time>
      </trkpt>
      <trkpt lat="46.19317" lon="6.02928">
        <ele>372.7</ele>
        <time>2022-09-27T13:26:45Z</time>
      </trkpt>
      <trkpt lat="46.19319" lon="6.02935">
        <ele>372.7</ele>
        <time>2022-09-27T13:26:46Z</time>
      </trkpt>
      <trkpt lat="46.19322" lon="6.02942">
        <ele>372.7</ele>
        <time>2022-09-27T13:26:47Z</time>
      </trkpt>
      <trkpt lat="46.19324" lon="6.0295">
        <ele>372.7</ele>
        <time>2022-09-27T13:26:48Z</time>
      </trkpt>
      <trkpt lat="46.19327" lon="6.02957">
        <ele>372.7</ele>
        <time>2022-09-27T13:26:49Z</time>
      </trkpt>
      <trkpt lat="46.19329" lon="6.02964">
        <ele>372.7</ele>
        <time>2022-09-27T13:26:50Z</time>
      </trkpt>
      <trkpt lat="46.19331" lon="6.02972">
        <ele>372.6</ele>
        <time>2022-09-27T13:26:51Z</time>
      </trkpt>
      <trkpt lat="46.19334" lon="6.02979">
        <ele>372.6</ele>
        <time>2022-09-27T13:26:52Z</time>
      </trkpt>
      <trkpt lat="46.19336" lon="6.02986">
        <ele>372.6</ele>
        <time>2022-09-27T13:26:53Z</time>
      </trkpt>
      <trkpt lat="46.19339" lon="6.02994">
        <ele>372.6</ele>
        <time>2022-09-27T13:26:54Z</time>
      </trkpt>
      <trkpt lat="46.19341" lon="6.03">
        <ele>372.6</ele>
        <time>2022-09-27T13:26:55Z</time>
      </trkpt>
      <trkpt lat="46.19344" lon="6.03006">
        <ele>372.6</ele>
        <time>2022-09-27T13:26:56Z</time>
      </trkpt>
      <trkpt lat="46.19347" lon="6.03013">
        <ele>372.5</ele>
        <time>2022-09-27T13:26:57Z</time>
      </trkpt>
      <trkpt lat="46.19349" lon="6.03019">
        <ele>372.5</ele>
        <time>2022-09-27T13:26:58Z</time>
      </trkpt>
      <trkpt lat="46.19351" lon="6.03025">
        <ele>372.4</ele>
        <time>2022-09-27T13:26:59Z</time>
      </trkpt>
      <trkpt lat="46.19353" lon="6.0303">
        <ele>372.4</ele>
        <time>2022-09-27T13:27:00Z</time>
      </trkpt>
      <trkpt lat="46.19355" lon="6.03036">
        <ele>372.3</ele>
        <time>2022-09-27T13:27:01Z</time>
      </trkpt>
      <trkpt lat="46.19356" lon="6.03041">
        <ele>372.3</ele>
        <time>2022-09-27T13:27:02Z</time>
      </trkpt>
      <trkpt lat="46.19359" lon="6.03048">
        <ele>372.2</ele>
        <time>2022-09-27T13:27:03Z</time>
      </trkpt>
      <trkpt lat="46.19361" lon="6.03054">
        <ele>372.1</ele>
        <time>2022-09-27T13:27:04Z</time>
      </trkpt>
      <trkpt lat="46.19363" lon="6.03061">
        <ele>372.1</ele>
        <time>2022-09-27T13:27:05Z</time>
      </trkpt>
      <trkpt lat="46.19365" lon="6.03069">
        <ele>372</ele>
        <time>2022-09-27T13:27:06Z</time>
      </trkpt>
      <trkpt lat="46.19367" lon="6.03074">
        <ele>372</ele>
        <time>2022-09-27T13:27:07Z</time>
      </trkpt>
      <trkpt lat="46.19368" lon="6.0308">
        <ele>371.9</ele>
        <time>2022-09-27T13:27:08Z</time>
      </trkpt>
      <trkpt lat="46.19369" lon="6.03088">
        <ele>371.8</ele>
        <time>2022-09-27T13:27:09Z</time>
      </trkpt>
      <trkpt lat="46.19371" lon="6.03094">
        <ele>371.7</ele>
        <time>2022-09-27T13:27:10Z</time>
      </trkpt>
      <trkpt lat="46.19373" lon="6.03101">
        <ele>371.6</ele>
        <time>2022-09-27T13:27:11Z</time>
      </trkpt>
      <trkpt lat="46.19374" lon="6.03108">
        <ele>371.5</ele>
        <time>2022-09-27T13:27:12Z</time>
      </trkpt>
      <trkpt lat="46.19375" lon="6.03115">
        <ele>371.4</ele>
        <time>2022-09-27T13:27:13Z</time>
      </trkpt>
      <trkpt lat="46.19375" lon="6.03122">
        <ele>371.3</ele>
        <time>2022-09-27T13:27:14Z</time>
      </trkpt>
      <trkpt lat="46.19375" lon="6.0313">
        <ele>371.3</ele>
        <time>2022-09-27T13:27:15Z</time>
      </trkpt>
      <trkpt lat="46.19376" lon="6.03137">
        <ele>371.3</ele>
        <time>2022-09-27T13:27:16Z</time>
      </trkpt>
      <trkpt lat="46.19376" lon="6.03145">
        <ele>371.2</ele>
        <time>2022-09-27T13:27:17Z</time>
      </trkpt>
      <trkpt lat="46.19376" lon="6.03154">
        <ele>371.2</ele>
        <time>2022-09-27T13:27:18Z</time>
      </trkpt>
      <trkpt lat="46.19375" lon="6.03162">
        <ele>371.1</ele>
        <time>2022-09-27T13:27:19Z</time>
      </trkpt>
      <trkpt lat="46.19374" lon="6.0317">
        <ele>371</ele>
        <time>2022-09-27T13:27:20Z</time>
      </trkpt>
      <trkpt lat="46.19374" lon="6.03179">
        <ele>371</ele>
        <time>2022-09-27T13:27:21Z</time>
      </trkpt>
      <trkpt lat="46.19374" lon="6.03188">
        <ele>370.9</ele>
        <time>2022-09-27T13:27:22Z</time>
      </trkpt>
      <trkpt lat="46.19373" lon="6.03197">
        <ele>370.9</ele>
        <time>2022-09-27T13:27:23Z</time>
      </trkpt>
      <trkpt lat="46.19371" lon="6.03206">
        <ele>370.8</ele>
        <time>2022-09-27T13:27:24Z</time>
      </trkpt>
      <trkpt lat="46.1937" lon="6.03214">
        <ele>370.8</ele>
        <time>2022-09-27T13:27:25Z</time>
      </trkpt>
      <trkpt lat="46.19368" lon="6.03223">
        <ele>370.8</ele>
        <time>2022-09-27T13:27:26Z</time>
      </trkpt>
      <trkpt lat="46.19366" lon="6.03232">
        <ele>370.7</ele>
        <time>2022-09-27T13:27:27Z</time>
      </trkpt>
      <trkpt lat="46.19363" lon="6.0324">
        <ele>370.7</ele>
        <time>2022-09-27T13:27:28Z</time>
      </trkpt>
      <trkpt lat="46.1936" lon="6.03249">
        <ele>370.7</ele>
        <time>2022-09-27T13:27:29Z</time>
      </trkpt>
      <trkpt lat="46.19358" lon="6.03258">
        <ele>370.7</ele>
        <time>2022-09-27T13:27:30Z</time>
      </trkpt>
      <trkpt lat="46.19356" lon="6.03267">
        <ele>370.8</ele>
        <time>2022-09-27T13:27:31Z</time>
      </trkpt>
      <trkpt lat="46.19353" lon="6.03274">
        <ele>370.8</ele>
        <time>2022-09-27T13:27:32Z</time>
      </trkpt>
      <trkpt lat="46.19352" lon="6.03283">
        <ele>370.8</ele>
        <time>2022-09-27T13:27:33Z</time>
      </trkpt>
      <trkpt lat="46.1935" lon="6.0329">
        <ele>370.8</ele>
        <time>2022-09-27T13:27:34Z</time>
      </trkpt>
      <trkpt lat="46.19348" lon="6.03297">
        <ele>370.9</ele>
        <time>2022-09-27T13:27:35Z</time>
      </trkpt>
      <trkpt lat="46.19346" lon="6.03304">
        <ele>370.9</ele>
        <time>2022-09-27T13:27:36Z</time>
      </trkpt>
      <trkpt lat="46.19344" lon="6.03312">
        <ele>371</ele>
        <time>2022-09-27T13:27:37Z</time>
      </trkpt>
      <trkpt lat="46.19342" lon="6.03319">
        <ele>371</ele>
        <time>2022-09-27T13:27:38Z</time>
      </trkpt>
      <trkpt lat="46.1934" lon="6.03326">
        <ele>371.1</ele>
        <time>2022-09-27T13:27:39Z</time>
      </trkpt>
      <trkpt lat="46.19338" lon="6.03333">
        <ele>371.1</ele>
        <time>2022-09-27T13:27:40Z</time>
      </trkpt>
      <trkpt lat="46.19337" lon="6.0334">
        <ele>371.2</ele>
        <time>2022-09-27T13:27:41Z</time>
      </trkpt>
      <trkpt lat="46.19336" lon="6.03347">
        <ele>371.2</ele>
        <time>2022-09-27T13:27:42Z</time>
      </trkpt>
      <trkpt lat="46.19334" lon="6.03354">
        <ele>371.3</ele>
        <time>2022-09-27T13:27:43Z</time>
      </trkpt>
      <trkpt lat="46.19333" lon="6.03361">
        <ele>371.3</ele>
        <time>2022-09-27T13:27:44Z</time>
      </trkpt>
      <trkpt lat="46.19333" lon="6.03368">
        <ele>371.4</ele>
        <time>2022-09-27T13:27:45Z</time>
      </trkpt>
      <trkpt lat="46.19331" lon="6.03375">
        <ele>371.5</ele>
        <time>2022-09-27T13:27:46Z</time>
      </trkpt>
      <trkpt lat="46.19331" lon="6.03382">
        <ele>371.5</ele>
        <time>2022-09-27T13:27:47Z</time>
      </trkpt>
      <trkpt lat="46.1933" lon="6.03389">
        <ele>371.6</ele>
        <time>2022-09-27T13:27:48Z</time>
      </trkpt>
      <trkpt lat="46.19329" lon="6.03396">
        <ele>371.7</ele>
        <time>2022-09-27T13:27:49Z</time>
      </trkpt>
      <trkpt lat="46.19328" lon="6.03403">
        <ele>371.7</ele>
        <time>2022-09-27T13:27:50Z</time>
      </trkpt>
      <trkpt lat="46.19328" lon="6.0341">
        <ele>371.8</ele>
        <time>2022-09-27T13:27:51Z</time>
      </trkpt>
      <trkpt lat="46.19327" lon="6.03417">
        <ele>371.9</ele>
        <time>2022-09-27T13:27:52Z</time>
      </trkpt>
      <trkpt lat="46.19326" lon="6.03424">
        <ele>371.9</ele>
        <time>2022-09-27T13:27:53Z</time>
      </trkpt>
      <trkpt lat="46.19326" lon="6.03431">
        <ele>372</ele>
        <time>2022-09-27T13:27:54Z</time>
      </trkpt>
      <trkpt lat="46.19326" lon="6.03437">
        <ele>372.1</ele>
        <time>2022-09-27T13:27:55Z</time>
      </trkpt>
      <trkpt lat="46.19326" lon="6.03444">
        <ele>372.1</ele>
        <time>2022-09-27T13:27:56Z</time>
      </trkpt>
      <trkpt lat="46.19326" lon="6.03451">
        <ele>372.2</ele>
        <time>2022-09-27T13:27:57Z</time>
      </trkpt>
      <trkpt lat="46.19326" lon="6.03458">
        <ele>372.2</ele>
        <time>2022-09-27T13:27:58Z</time>
      </trkpt>
      <trkpt lat="46.19325" lon="6.03465">
        <ele>372.3</ele>
        <time>2022-09-27T13:27:59Z</time>
      </trkpt>
      <trkpt lat="46.19325" lon="6.03472">
        <ele>372.4</ele>
        <time>2022-09-27T13:28:00Z</time>
      </trkpt>
      <trkpt lat="46.19325" lon="6.03478">
        <ele>372.4</ele>
        <time>2022-09-27T13:28:01Z</time>
      </trkpt>
      <trkpt lat="46.19325" lon="6.03485">
        <ele>372.5</ele>
        <time>2022-09-27T13:28:02Z</time>
      </trkpt>
      <trkpt lat="46.19324" lon="6.03492">
        <ele>372.6</ele>
        <time>2022-09-27T13:28:03Z</time>
      </trkpt>
      <trkpt lat="46.19324" lon="6.03498">
        <ele>372.7</ele>
        <time>2022-09-27T13:28:04Z</time>
      </trkpt>
      <trkpt lat="46.19324" lon="6.03504">
        <ele>372.7</ele>
        <time>2022-09-27T13:28:05Z</time>
      </trkpt>
      <trkpt lat="46.19324" lon="6.03511">
        <ele>372.8</ele>
        <time>2022-09-27T13:28:06Z</time>
      </trkpt>
      <trkpt lat="46.19324" lon="6.03518">
        <ele>372.9</ele>
        <time>2022-09-27T13:28:07Z</time>
      </trkpt>
      <trkpt lat="46.19324" lon="6.03524">
        <ele>373</ele>
        <time>2022-09-27T13:28:08Z</time>
      </trkpt>
      <trkpt lat="46.19323" lon="6.0353">
        <ele>373</ele>
        <time>2022-09-27T13:28:09Z</time>
      </trkpt>
      <trkpt lat="46.19323" lon="6.03537">
        <ele>373.1</ele>
        <time>2022-09-27T13:28:10Z</time>
      </trkpt>
      <trkpt lat="46.19323" lon="6.03543">
        <ele>373.2</ele>
        <time>2022-09-27T13:28:11Z</time>
      </trkpt>
      <trkpt lat="46.19323" lon="6.03548">
        <ele>373.2</ele>
        <time>2022-09-27T13:28:12Z</time>
      </trkpt>
      <trkpt lat="46.19322" lon="6.03555">
        <ele>373.3</ele>
        <time>2022-09-27T13:28:13Z</time>
      </trkpt>
      <trkpt lat="46.19322" lon="6.03561">
        <ele>373.4</ele>
        <time>2022-09-27T13:28:14Z</time>
      </trkpt>
      <trkpt lat="46.19322" lon="6.03568">
        <ele>373.5</ele>
        <time>2022-09-27T13:28:15Z</time>
      </trkpt>
      <trkpt lat="46.19322" lon="6.03573">
        <ele>373.5</ele>
        <time>2022-09-27T13:28:16Z</time>
      </trkpt>
      <trkpt lat="46.19322" lon="6.03578">
        <ele>373.6</ele>
        <time>2022-09-27T13:28:17Z</time>
      </trkpt>
      <trkpt lat="46.19321" lon="6.03584">
        <ele>373.7</ele>
        <time>2022-09-27T13:28:18Z</time>
      </trkpt>
      <trkpt lat="46.19321" lon="6.03591">
        <ele>373.8</ele>
        <time>2022-09-27T13:28:19Z</time>
      </trkpt>
      <trkpt lat="46.1932" lon="6.03597">
        <ele>373.9</ele>
        <time>2022-09-27T13:28:20Z</time>
      </trkpt>
      <trkpt lat="46.1932" lon="6.036">
        <ele>373.9</ele>
        <time>2022-09-27T13:28:21Z</time>
      </trkpt>
      <trkpt lat="46.1932" lon="6.03605">
        <ele>374</ele>
        <time>2022-09-27T13:28:22Z</time>
      </trkpt>
      <trkpt lat="46.1932" lon="6.0361">
        <ele>374.1</ele>
        <time>2022-09-27T13:28:23Z</time>
      </trkpt>
      <trkpt lat="46.1932" lon="6.03615">
        <ele>374.1</ele>
        <time>2022-09-27T13:28:24Z</time>
      </trkpt>
      <trkpt lat="46.19321" lon="6.0362">
        <ele>374.2</ele>
        <time>2022-09-27T13:28:25Z</time>
      </trkpt>
      <trkpt lat="46.19321" lon="6.03625">
        <ele>374.3</ele>
        <time>2022-09-27T13:28:26Z</time>
      </trkpt>
      <trkpt lat="46.19321" lon="6.0363">
        <ele>374.4</ele>
        <time>2022-09-27T13:28:27Z</time>
      </trkpt>
      <trkpt lat="46.1932" lon="6.03636">
        <ele>374.5</ele>
        <time>2022-09-27T13:28:28Z</time>
      </trkpt>
      <trkpt lat="46.1932" lon="6.03641">
        <ele>374.6</ele>
        <time>2022-09-27T13:28:29Z</time>
      </trkpt>
      <trkpt lat="46.1932" lon="6.03645">
        <ele>374.7</ele>
        <time>2022-09-27T13:28:30Z</time>
      </trkpt>
      <trkpt lat="46.19319" lon="6.0365">
        <ele>374.8</ele>
        <time>2022-09-27T13:28:31Z</time>
      </trkpt>
      <trkpt lat="46.19317" lon="6.03652">
        <ele>374.8</ele>
        <time>2022-09-27T13:28:32Z</time>
      </trkpt>
      <trkpt lat="46.19315" lon="6.03655">
        <ele>374.8</ele>
        <time>2022-09-27T13:28:33Z</time>
      </trkpt>
      <trkpt lat="46.19312" lon="6.03657">
        <ele>374.9</ele>
        <time>2022-09-27T13:28:34Z</time>
      </trkpt>
      <trkpt lat="46.1931" lon="6.03659">
        <ele>374.9</ele>
        <time>2022-09-27T13:28:35Z</time>
      </trkpt>
      <trkpt lat="46.19308" lon="6.03662">
        <ele>374.9</ele>
        <time>2022-09-27T13:28:36Z</time>
      </trkpt>
      <trkpt lat="46.19305" lon="6.03665">
        <ele>374.9</ele>
        <time>2022-09-27T13:28:37Z</time>
      </trkpt>
      <trkpt lat="46.19303" lon="6.03669">
        <ele>375</ele>
        <time>2022-09-27T13:28:38Z</time>
      </trkpt>
      <trkpt lat="46.19299" lon="6.03673">
        <ele>375</ele>
        <time>2022-09-27T13:28:39Z</time>
      </trkpt>
      <trkpt lat="46.19298" lon="6.03674">
        <ele>375</ele>
        <time>2022-09-27T13:28:40Z</time>
      </trkpt>
      <trkpt lat="46.19295" lon="6.03676">
        <ele>375.1</ele>
        <time>2022-09-27T13:28:41Z</time>
      </trkpt>
      <trkpt lat="46.19292" lon="6.03679">
        <ele>375.1</ele>
        <time>2022-09-27T13:28:42Z</time>
      </trkpt>
      <trkpt lat="46.19289" lon="6.03683">
        <ele>375.1</ele>
        <time>2022-09-27T13:28:43Z</time>
      </trkpt>
      <trkpt lat="46.19288" lon="6.03684">
        <ele>375.1</ele>
        <time>2022-09-27T13:28:44Z</time>
      </trkpt>
      <trkpt lat="46.19286" lon="6.03688">
        <ele>375.1</ele>
        <time>2022-09-27T13:28:45Z</time>
      </trkpt>
      <trkpt lat="46.19284" lon="6.03691">
        <ele>375.1</ele>
        <time>2022-09-27T13:28:46Z</time>
      </trkpt>
      <trkpt lat="46.19281" lon="6.03695">
        <ele>375.1</ele>
        <time>2022-09-27T13:28:47Z</time>
      </trkpt>
      <trkpt lat="46.19279" lon="6.03698">
        <ele>375.1</ele>
        <time>2022-09-27T13:28:48Z</time>
      </trkpt>
      <trkpt lat="46.19276" lon="6.03701">
        <ele>375.1</ele>
        <time>2022-09-27T13:28:49Z</time>
      </trkpt>
      <trkpt lat="46.19273" lon="6.03704">
        <ele>375</ele>
        <time>2022-09-27T13:28:50Z</time>
      </trkpt>
      <trkpt lat="46.19269" lon="6.03708">
        <ele>375</ele>
        <time>2022-09-27T13:28:51Z</time>
      </trkpt>
      <trkpt lat="46.19267" lon="6.03711">
        <ele>375</ele>
        <time>2022-09-27T13:28:52Z</time>
      </trkpt>
      <trkpt lat="46.19264" lon="6.03714">
        <ele>374.9</ele>
        <time>2022-09-27T13:28:53Z</time>
      </trkpt>
      <trkpt lat="46.19261" lon="6.03717">
        <ele>374.9</ele>
        <time>2022-09-27T13:28:54Z</time>
      </trkpt>
      <trkpt lat="46.19258" lon="6.0372">
        <ele>374.9</ele>
        <time>2022-09-27T13:28:55Z</time>
      </trkpt>
      <trkpt lat="46.19255" lon="6.03724">
        <ele>374.8</ele>
        <time>2022-09-27T13:28:56Z</time>
      </trkpt>
      <trkpt lat="46.19251" lon="6.03728">
        <ele>374.8</ele>
        <time>2022-09-27T13:28:57Z</time>
      </trkpt>
      <trkpt lat="46.19247" lon="6.03733">
        <ele>374.7</ele>
        <time>2022-09-27T13:28:58Z</time>
      </trkpt>
      <trkpt lat="46.19243" lon="6.03737">
        <ele>374.7</ele>
        <time>2022-09-27T13:28:59Z</time>
      </trkpt>
      <trkpt lat="46.19239" lon="6.03741">
        <ele>374.7</ele>
        <time>2022-09-27T13:29:00Z</time>
      </trkpt>
      <trkpt lat="46.19236" lon="6.03745">
        <ele>374.6</ele>
        <time>2022-09-27T13:29:01Z</time>
      </trkpt>
      <trkpt lat="46.19231" lon="6.0375">
        <ele>374.6</ele>
        <time>2022-09-27T13:29:02Z</time>
      </trkpt>
      <trkpt lat="46.19228" lon="6.03754">
        <ele>374.6</ele>
        <time>2022-09-27T13:29:03Z</time>
      </trkpt>
      <trkpt lat="46.19224" lon="6.03758">
        <ele>374.6</ele>
        <time>2022-09-27T13:29:04Z</time>
      </trkpt>
      <trkpt lat="46.19221" lon="6.03762">
        <ele>374.6</ele>
        <time>2022-09-27T13:29:05Z</time>
      </trkpt>
      <trkpt lat="46.19217" lon="6.03767">
        <ele>374.6</ele>
        <time>2022-09-27T13:29:06Z</time>
      </trkpt>
      <trkpt lat="46.19213" lon="6.03771">
        <ele>374.6</ele>
        <time>2022-09-27T13:29:07Z</time>
      </trkpt>
      <trkpt lat="46.1921" lon="6.03775">
        <ele>374.6</ele>
        <time>2022-09-27T13:29:08Z</time>
      </trkpt>
      <trkpt lat="46.19206" lon="6.03779">
        <ele>374.6</ele>
        <time>2022-09-27T13:29:09Z</time>
      </trkpt>
      <trkpt lat="46.19203" lon="6.03783">
        <ele>374.6</ele>
        <time>2022-09-27T13:29:10Z</time>
      </trkpt>
      <trkpt lat="46.19199" lon="6.03787">
        <ele>374.6</ele>
        <time>2022-09-27T13:29:11Z</time>
      </trkpt>
      <trkpt lat="46.19195" lon="6.0379">
        <ele>374.6</ele>
        <time>2022-09-27T13:29:12Z</time>
      </trkpt>
      <trkpt lat="46.19192" lon="6.03794">
        <ele>374.7</ele>
        <time>2022-09-27T13:29:13Z</time>
      </trkpt>
      <trkpt lat="46.19188" lon="6.03798">
        <ele>374.7</ele>
        <time>2022-09-27T13:29:14Z</time>
      </trkpt>
      <trkpt lat="46.19185" lon="6.03803">
        <ele>374.7</ele>
        <time>2022-09-27T13:29:15Z</time>
      </trkpt>
      <trkpt lat="46.19181" lon="6.03807">
        <ele>374.8</ele>
        <time>2022-09-27T13:29:16Z</time>
      </trkpt>
      <trkpt lat="46.19178" lon="6.03811">
        <ele>374.8</ele>
        <time>2022-09-27T13:29:17Z</time>
      </trkpt>
      <trkpt lat="46.19174" lon="6.03815">
        <ele>374.9</ele>
        <time>2022-09-27T13:29:18Z</time>
      </trkpt>
      <trkpt lat="46.1917" lon="6.03819">
        <ele>375</ele>
        <time>2022-09-27T13:29:19Z</time>
      </trkpt>
      <trkpt lat="46.19166" lon="6.03823">
        <ele>375.1</ele>
        <time>2022-09-27T13:29:20Z</time>
      </trkpt>
      <trkpt lat="46.19163" lon="6.03827">
        <ele>375.2</ele>
        <time>2022-09-27T13:29:21Z</time>
      </trkpt>
      <trkpt lat="46.1916" lon="6.03831">
        <ele>375.2</ele>
        <time>2022-09-27T13:29:22Z</time>
      </trkpt>
      <trkpt lat="46.19156" lon="6.03835">
        <ele>375.4</ele>
        <time>2022-09-27T13:29:23Z</time>
      </trkpt>
      <trkpt lat="46.19152" lon="6.03839">
        <ele>375.5</ele>
        <time>2022-09-27T13:29:24Z</time>
      </trkpt>
      <trkpt lat="46.19149" lon="6.03842">
        <ele>375.6</ele>
        <time>2022-09-27T13:29:25Z</time>
      </trkpt>
      <trkpt lat="46.19147" lon="6.03846">
        <ele>375.7</ele>
        <time>2022-09-27T13:29:26Z</time>
      </trkpt>
      <trkpt lat="46.19144" lon="6.03849">
        <ele>375.9</ele>
        <time>2022-09-27T13:29:27Z</time>
      </trkpt>
      <trkpt lat="46.19141" lon="6.03852">
        <ele>376</ele>
        <time>2022-09-27T13:29:28Z</time>
      </trkpt>
      <trkpt lat="46.19138" lon="6.03855">
        <ele>376.1</ele>
        <time>2022-09-27T13:29:29Z</time>
      </trkpt>
      <trkpt lat="46.19136" lon="6.03858">
        <ele>376.3</ele>
        <time>2022-09-27T13:29:30Z</time>
      </trkpt>
      <trkpt lat="46.19133" lon="6.0386">
        <ele>376.4</ele>
        <time>2022-09-27T13:29:31Z</time>
      </trkpt>
      <trkpt lat="46.19131" lon="6.03862">
        <ele>376.5</ele>
        <time>2022-09-27T13:29:32Z</time>
      </trkpt>
      <trkpt lat="46.19129" lon="6.03865">
        <ele>376.6</ele>
        <time>2022-09-27T13:29:33Z</time>
      </trkpt>
      <trkpt lat="46.19127" lon="6.03868">
        <ele>376.7</ele>
        <time>2022-09-27T13:29:34Z</time>
      </trkpt>
      <trkpt lat="46.19124" lon="6.03872">
        <ele>376.8</ele>
        <time>2022-09-27T13:29:35Z</time>
      </trkpt>
      <trkpt lat="46.19122" lon="6.03874">
        <ele>376.9</ele>
        <time>2022-09-27T13:29:36Z</time>
      </trkpt>
      <trkpt lat="46.1912" lon="6.03877">
        <ele>377</ele>
        <time>2022-09-27T13:29:37Z</time>
      </trkpt>
      <trkpt lat="46.19118" lon="6.03879">
        <ele>377.1</ele>
        <time>2022-09-27T13:29:38Z</time>
      </trkpt>
      <trkpt lat="46.19115" lon="6.03882">
        <ele>377.2</ele>
        <time>2022-09-27T13:29:39Z</time>
      </trkpt>
      <trkpt lat="46.19112" lon="6.03884">
        <ele>377.2</ele>
        <time>2022-09-27T13:29:40Z</time>
      </trkpt>
      <trkpt lat="46.1911" lon="6.03887">
        <ele>377.3</ele>
        <time>2022-09-27T13:29:41Z</time>
      </trkpt>
      <trkpt lat="46.19109" lon="6.03888">
        <ele>377.3</ele>
        <time>2022-09-27T13:29:42Z</time>
      </trkpt>
      <trkpt lat="46.19106" lon="6.03892">
        <ele>377.4</ele>
        <time>2022-09-27T13:29:43Z</time>
      </trkpt>
      <trkpt lat="46.19103" lon="6.03895">
        <ele>377.4</ele>
        <time>2022-09-27T13:29:44Z</time>
      </trkpt>
      <trkpt lat="46.19101" lon="6.03898">
        <ele>377.5</ele>
        <time>2022-09-27T13:29:45Z</time>
      </trkpt>
      <trkpt lat="46.19098" lon="6.03902">
        <ele>377.5</ele>
        <time>2022-09-27T13:29:46Z</time>
      </trkpt>
      <trkpt lat="46.19096" lon="6.03903">
        <ele>377.5</ele>
        <time>2022-09-27T13:29:47Z</time>
      </trkpt>
      <trkpt lat="46.19094" lon="6.03906">
        <ele>377.6</ele>
        <time>2022-09-27T13:29:48Z</time>
      </trkpt>
      <trkpt lat="46.19091" lon="6.03908">
        <ele>377.6</ele>
        <time>2022-09-27T13:29:49Z</time>
      </trkpt>
      <trkpt lat="46.19088" lon="6.03912">
        <ele>377.6</ele>
        <time>2022-09-27T13:29:50Z</time>
      </trkpt>
      <trkpt lat="46.19085" lon="6.03915">
        <ele>377.7</ele>
        <time>2022-09-27T13:29:51Z</time>
      </trkpt>
      <trkpt lat="46.19082" lon="6.03918">
        <ele>377.7</ele>
        <time>2022-09-27T13:29:52Z</time>
      </trkpt>
      <trkpt lat="46.1908" lon="6.03922">
        <ele>377.7</ele>
        <time>2022-09-27T13:29:53Z</time>
      </trkpt>
      <trkpt lat="46.19077" lon="6.03926">
        <ele>377.8</ele>
        <time>2022-09-27T13:29:54Z</time>
      </trkpt>
      <trkpt lat="46.19075" lon="6.0393">
        <ele>377.8</ele>
        <time>2022-09-27T13:29:55Z</time>
      </trkpt>
      <trkpt lat="46.19073" lon="6.03933">
        <ele>377.9</ele>
        <time>2022-09-27T13:29:56Z</time>
      </trkpt>
      <trkpt lat="46.19071" lon="6.03939">
        <ele>377.9</ele>
        <time>2022-09-27T13:29:57Z</time>
      </trkpt>
      <trkpt lat="46.19068" lon="6.03943">
        <ele>377.9</ele>
        <time>2022-09-27T13:29:58Z</time>
      </trkpt>
      <trkpt lat="46.19065" lon="6.03949">
        <ele>377.9</ele>
        <time>2022-09-27T13:29:59Z</time>
      </trkpt>
      <trkpt lat="46.19064" lon="6.03951">
        <ele>378</ele>
        <time>2022-09-27T13:30:00Z</time>
      </trkpt>
      <trkpt lat="46.19062" lon="6.03956">
        <ele>378</ele>
        <time>2022-09-27T13:30:01Z</time>
      </trkpt>
      <trkpt lat="46.1906" lon="6.03961">
        <ele>378</ele>
        <time>2022-09-27T13:30:02Z</time>
      </trkpt>
      <trkpt lat="46.19057" lon="6.03965">
        <ele>378.1</ele>
        <time>2022-09-27T13:30:03Z</time>
      </trkpt>
      <trkpt lat="46.19055" lon="6.0397">
        <ele>378.1</ele>
        <time>2022-09-27T13:30:04Z</time>
      </trkpt>
      <trkpt lat="46.19053" lon="6.03975">
        <ele>378.1</ele>
        <time>2022-09-27T13:30:05Z</time>
      </trkpt>
      <trkpt lat="46.19051" lon="6.03979">
        <ele>378.2</ele>
        <time>2022-09-27T13:30:06Z</time>
      </trkpt>
      <trkpt lat="46.19048" lon="6.03984">
        <ele>378.2</ele>
        <time>2022-09-27T13:30:07Z</time>
      </trkpt>
      <trkpt lat="46.19047" lon="6.03989">
        <ele>378.2</ele>
        <time>2022-09-27T13:30:08Z</time>
      </trkpt>
      <trkpt lat="46.19046" lon="6.03992">
        <ele>378.3</ele>
        <time>2022-09-27T13:30:09Z</time>
      </trkpt>
      <trkpt lat="46.19044" lon="6.03997">
        <ele>378.3</ele>
        <time>2022-09-27T13:30:10Z</time>
      </trkpt>
      <trkpt lat="46.19042" lon="6.04001">
        <ele>378.3</ele>
        <time>2022-09-27T13:30:11Z</time>
      </trkpt>
      <trkpt lat="46.1904" lon="6.04006">
        <ele>378.4</ele>
        <time>2022-09-27T13:30:12Z</time>
      </trkpt>
      <trkpt lat="46.19038" lon="6.04011">
        <ele>378.4</ele>
        <time>2022-09-27T13:30:13Z</time>
      </trkpt>
      <trkpt lat="46.19035" lon="6.04016">
        <ele>378.4</ele>
        <time>2022-09-27T13:30:14Z</time>
      </trkpt>
      <trkpt lat="46.19034" lon="6.04021">
        <ele>378.4</ele>
        <time>2022-09-27T13:30:15Z</time>
      </trkpt>
      <trkpt lat="46.19032" lon="6.04025">
        <ele>378.5</ele>
        <time>2022-09-27T13:30:16Z</time>
      </trkpt>
      <trkpt lat="46.1903" lon="6.0403">
        <ele>378.5</ele>
        <time>2022-09-27T13:30:17Z</time>
      </trkpt>
      <trkpt lat="46.19028" lon="6.04036">
        <ele>378.5</ele>
        <time>2022-09-27T13:30:18Z</time>
      </trkpt>
      <trkpt lat="46.19025" lon="6.0404">
        <ele>378.6</ele>
        <time>2022-09-27T13:30:19Z</time>
      </trkpt>
      <trkpt lat="46.19024" lon="6.04045">
        <ele>378.6</ele>
        <time>2022-09-27T13:30:20Z</time>
      </trkpt>
      <trkpt lat="46.19022" lon="6.0405">
        <ele>378.6</ele>
        <time>2022-09-27T13:30:21Z</time>
      </trkpt>
      <trkpt lat="46.1902" lon="6.04055">
        <ele>378.7</ele>
        <time>2022-09-27T13:30:22Z</time>
      </trkpt>
      <trkpt lat="46.19019" lon="6.04059">
        <ele>378.7</ele>
        <time>2022-09-27T13:30:23Z</time>
      </trkpt>
      <trkpt lat="46.19016" lon="6.04063">
        <ele>378.7</ele>
        <time>2022-09-27T13:30:24Z</time>
      </trkpt>
      <trkpt lat="46.19015" lon="6.04068">
        <ele>378.7</ele>
        <time>2022-09-27T13:30:25Z</time>
      </trkpt>
      <trkpt lat="46.19013" lon="6.04072">
        <ele>378.7</ele>
        <time>2022-09-27T13:30:26Z</time>
      </trkpt>
      <trkpt lat="46.1901" lon="6.04076">
        <ele>378.7</ele>
        <time>2022-09-27T13:30:27Z</time>
      </trkpt>
      <trkpt lat="46.19008" lon="6.04081">
        <ele>378.7</ele>
        <time>2022-09-27T13:30:28Z</time>
      </trkpt>
      <trkpt lat="46.19006" lon="6.04086">
        <ele>378.7</ele>
        <time>2022-09-27T13:30:29Z</time>
      </trkpt>
      <trkpt lat="46.19003" lon="6.04091">
        <ele>378.7</ele>
        <time>2022-09-27T13:30:30Z</time>
      </trkpt>
      <trkpt lat="46.19001" lon="6.04096">
        <ele>378.7</ele>
        <time>2022-09-27T13:30:31Z</time>
      </trkpt>
      <trkpt lat="46.18999" lon="6.04101">
        <ele>378.7</ele>
        <time>2022-09-27T13:30:32Z</time>
      </trkpt>
      <trkpt lat="46.18997" lon="6.04106">
        <ele>378.8</ele>
        <time>2022-09-27T13:30:33Z</time>
      </trkpt>
      <trkpt lat="46.18994" lon="6.0411">
        <ele>378.8</ele>
        <time>2022-09-27T13:30:34Z</time>
      </trkpt>
      <trkpt lat="46.18991" lon="6.04116">
        <ele>378.8</ele>
        <time>2022-09-27T13:30:35Z</time>
      </trkpt>
      <trkpt lat="46.1899" lon="6.0412">
        <ele>378.9</ele>
        <time>2022-09-27T13:30:36Z</time>
      </trkpt>
      <trkpt lat="46.18989" lon="6.04125">
        <ele>378.9</ele>
        <time>2022-09-27T13:30:37Z</time>
      </trkpt>
      <trkpt lat="46.18987" lon="6.04129">
        <ele>378.9</ele>
        <time>2022-09-27T13:30:38Z</time>
      </trkpt>
      <trkpt lat="46.18985" lon="6.04134">
        <ele>379</ele>
        <time>2022-09-27T13:30:39Z</time>
      </trkpt>
      <trkpt lat="46.18983" lon="6.04138">
        <ele>379</ele>
        <time>2022-09-27T13:30:40Z</time>
      </trkpt>
      <trkpt lat="46.18982" lon="6.04142">
        <ele>379</ele>
        <time>2022-09-27T13:30:41Z</time>
      </trkpt>
      <trkpt lat="46.18979" lon="6.04146">
        <ele>379.1</ele>
        <time>2022-09-27T13:30:42Z</time>
      </trkpt>
      <trkpt lat="46.18978" lon="6.0415">
        <ele>379.1</ele>
        <time>2022-09-27T13:30:43Z</time>
      </trkpt>
      <trkpt lat="46.18976" lon="6.04153">
        <ele>379.1</ele>
        <time>2022-09-27T13:30:44Z</time>
      </trkpt>
      <trkpt lat="46.18975" lon="6.04157">
        <ele>379.2</ele>
        <time>2022-09-27T13:30:45Z</time>
      </trkpt>
      <trkpt lat="46.18974" lon="6.04162">
        <ele>379.2</ele>
        <time>2022-09-27T13:30:46Z</time>
      </trkpt>
      <trkpt lat="46.18975" lon="6.04167">
        <ele>379.2</ele>
        <time>2022-09-27T13:30:47Z</time>
      </trkpt>
      <trkpt lat="46.18975" lon="6.04168">
        <ele>379.2</ele>
        <time>2022-09-27T13:30:48Z</time>
      </trkpt>
      <trkpt lat="46.18976" lon="6.04173">
        <ele>379.2</ele>
        <time>2022-09-27T13:30:49Z</time>
      </trkpt>
      <trkpt lat="46.18978" lon="6.04176">
        <ele>379.2</ele>
        <time>2022-09-27T13:30:50Z</time>
      </trkpt>
      <trkpt lat="46.1898" lon="6.0418">
        <ele>379.2</ele>
        <time>2022-09-27T13:30:51Z</time>
      </trkpt>
      <trkpt lat="46.18982" lon="6.04184">
        <ele>379.2</ele>
        <time>2022-09-27T13:30:52Z</time>
      </trkpt>
      <trkpt lat="46.18984" lon="6.04189">
        <ele>379.2</ele>
        <time>2022-09-27T13:30:53Z</time>
      </trkpt>
      <trkpt lat="46.18985" lon="6.04194">
        <ele>379.2</ele>
        <time>2022-09-27T13:30:54Z</time>
      </trkpt>
      <trkpt lat="46.18988" lon="6.04199">
        <ele>379.1</ele>
        <time>2022-09-27T13:30:55Z</time>
      </trkpt>
      <trkpt lat="46.18989" lon="6.04204">
        <ele>379.1</ele>
        <time>2022-09-27T13:30:56Z</time>
      </trkpt>
      <trkpt lat="46.18991" lon="6.04209">
        <ele>379.1</ele>
        <time>2022-09-27T13:30:57Z</time>
      </trkpt>
      <trkpt lat="46.18993" lon="6.04214">
        <ele>379.1</ele>
        <time>2022-09-27T13:30:58Z</time>
      </trkpt>
      <trkpt lat="46.18995" lon="6.04219">
        <ele>379.1</ele>
        <time>2022-09-27T13:30:59Z</time>
      </trkpt>
      <trkpt lat="46.18998" lon="6.04223">
        <ele>379.1</ele>
        <time>2022-09-27T13:31:00Z</time>
      </trkpt>
      <trkpt lat="46.19001" lon="6.04226">
        <ele>379.1</ele>
        <time>2022-09-27T13:31:01Z</time>
      </trkpt>
      <trkpt lat="46.19005" lon="6.0423">
        <ele>379.1</ele>
        <time>2022-09-27T13:31:02Z</time>
      </trkpt>
      <trkpt lat="46.19008" lon="6.04233">
        <ele>379</ele>
        <time>2022-09-27T13:31:03Z</time>
      </trkpt>
      <trkpt lat="46.19011" lon="6.04237">
        <ele>379</ele>
        <time>2022-09-27T13:31:04Z</time>
      </trkpt>
      <trkpt lat="46.19015" lon="6.0424">
        <ele>379</ele>
        <time>2022-09-27T13:31:05Z</time>
      </trkpt>
      <trkpt lat="46.19017" lon="6.04243">
        <ele>379</ele>
        <time>2022-09-27T13:31:06Z</time>
      </trkpt>
      <trkpt lat="46.19022" lon="6.04246">
        <ele>378.9</ele>
        <time>2022-09-27T13:31:07Z</time>
      </trkpt>
      <trkpt lat="46.19025" lon="6.0425">
        <ele>378.9</ele>
        <time>2022-09-27T13:31:08Z</time>
      </trkpt>
      <trkpt lat="46.19027" lon="6.04252">
        <ele>378.9</ele>
        <time>2022-09-27T13:31:09Z</time>
      </trkpt>
      <trkpt lat="46.19031" lon="6.04256">
        <ele>378.8</ele>
        <time>2022-09-27T13:31:10Z</time>
      </trkpt>
      <trkpt lat="46.19033" lon="6.0426">
        <ele>378.8</ele>
        <time>2022-09-27T13:31:11Z</time>
      </trkpt>
      <trkpt lat="46.19036" lon="6.04264">
        <ele>378.8</ele>
        <time>2022-09-27T13:31:12Z</time>
      </trkpt>
      <trkpt lat="46.1904" lon="6.04268">
        <ele>378.8</ele>
        <time>2022-09-27T13:31:13Z</time>
      </trkpt>
      <trkpt lat="46.19043" lon="6.04272">
        <ele>378.8</ele>
        <time>2022-09-27T13:31:14Z</time>
      </trkpt>
      <trkpt lat="46.19046" lon="6.04276">
        <ele>378.8</ele>
        <time>2022-09-27T13:31:15Z</time>
      </trkpt>
      <trkpt lat="46.19048" lon="6.0428">
        <ele>378.8</ele>
        <time>2022-09-27T13:31:16Z</time>
      </trkpt>
      <trkpt lat="46.19051" lon="6.04283">
        <ele>378.9</ele>
        <time>2022-09-27T13:31:17Z</time>
      </trkpt>
      <trkpt lat="46.19053" lon="6.04287">
        <ele>378.9</ele>
        <time>2022-09-27T13:31:18Z</time>
      </trkpt>
      <trkpt lat="46.19056" lon="6.0429">
        <ele>378.9</ele>
        <time>2022-09-27T13:31:19Z</time>
      </trkpt>
      <trkpt lat="46.19055" lon="6.04294">
        <ele>379</ele>
        <time>2022-09-27T13:31:20Z</time>
      </trkpt>
      <trkpt lat="46.19054" lon="6.04295">
        <ele>379</ele>
        <time>2022-09-27T13:31:21Z</time>
      </trkpt>
      <trkpt lat="46.19052" lon="6.04297">
        <ele>379</ele>
        <time>2022-09-27T13:31:22Z</time>
      </trkpt>
      <trkpt lat="46.19051" lon="6.04298">
        <ele>379</ele>
        <time>2022-09-27T13:31:23Z</time>
      </trkpt>
      <trkpt lat="46.19048" lon="6.04299">
        <ele>379.1</ele>
        <time>2022-09-27T13:31:24Z</time>
      </trkpt>
      <trkpt lat="46.19045" lon="6.04301">
        <ele>379.1</ele>
        <time>2022-09-27T13:31:25Z</time>
      </trkpt>
      <trkpt lat="46.19044" lon="6.04302">
        <ele>379.1</ele>
        <time>2022-09-27T13:31:26Z</time>
      </trkpt>
      <trkpt lat="46.19041" lon="6.04305">
        <ele>379.1</ele>
        <time>2022-09-27T13:31:27Z</time>
      </trkpt>
      <trkpt lat="46.1904" lon="6.04307">
        <ele>379.2</ele>
        <time>2022-09-27T13:31:28Z</time>
      </trkpt>
      <trkpt lat="46.19038" lon="6.04309">
        <ele>379.2</ele>
        <time>2022-09-27T13:31:29Z</time>
      </trkpt>
      <trkpt lat="46.19035" lon="6.04313">
        <ele>379.2</ele>
        <time>2022-09-27T13:31:30Z</time>
      </trkpt>
      <trkpt lat="46.19032" lon="6.04317">
        <ele>379.3</ele>
        <time>2022-09-27T13:31:31Z</time>
      </trkpt>
      <trkpt lat="46.1903" lon="6.04319">
        <ele>379.3</ele>
        <time>2022-09-27T13:31:32Z</time>
      </trkpt>
      <trkpt lat="46.19027" lon="6.04323">
        <ele>379.4</ele>
        <time>2022-09-27T13:31:33Z</time>
      </trkpt>
      <trkpt lat="46.19024" lon="6.04326">
        <ele>379.4</ele>
        <time>2022-09-27T13:31:34Z</time>
      </trkpt>
      <trkpt lat="46.19022" lon="6.04327">
        <ele>379.4</ele>
        <time>2022-09-27T13:31:35Z</time>
      </trkpt>
      <trkpt lat="46.19019" lon="6.04331">
        <ele>379.5</ele>
        <time>2022-09-27T13:31:36Z</time>
      </trkpt>
      <trkpt lat="46.19016" lon="6.04333">
        <ele>379.6</ele>
        <time>2022-09-27T13:31:37Z</time>
      </trkpt>
      <trkpt lat="46.19013" lon="6.04337">
        <ele>379.6</ele>
        <time>2022-09-27T13:31:38Z</time>
      </trkpt>
      <trkpt lat="46.19011" lon="6.04341">
        <ele>379.7</ele>
        <time>2022-09-27T13:31:39Z</time>
      </trkpt>
      <trkpt lat="46.19008" lon="6.04344">
        <ele>379.7</ele>
        <time>2022-09-27T13:31:40Z</time>
      </trkpt>
      <trkpt lat="46.19006" lon="6.04347">
        <ele>379.7</ele>
        <time>2022-09-27T13:31:41Z</time>
      </trkpt>
      <trkpt lat="46.19003" lon="6.0435">
        <ele>379.8</ele>
        <time>2022-09-27T13:31:42Z</time>
      </trkpt>
      <trkpt lat="46.19" lon="6.04353">
        <ele>379.8</ele>
        <time>2022-09-27T13:31:43Z</time>
      </trkpt>
      <trkpt lat="46.18997" lon="6.04357">
        <ele>379.9</ele>
        <time>2022-09-27T13:31:44Z</time>
      </trkpt>
      <trkpt lat="46.18995" lon="6.0436">
        <ele>379.9</ele>
        <time>2022-09-27T13:31:45Z</time>
      </trkpt>
      <trkpt lat="46.18992" lon="6.04364">
        <ele>380</ele>
        <time>2022-09-27T13:31:46Z</time>
      </trkpt>
      <trkpt lat="46.1899" lon="6.04367">
        <ele>380</ele>
        <time>2022-09-27T13:31:47Z</time>
      </trkpt>
      <trkpt lat="46.18989" lon="6.04368">
        <ele>380</ele>
        <time>2022-09-27T13:31:48Z</time>
      </trkpt>
      <trkpt lat="46.18987" lon="6.04371">
        <ele>380.1</ele>
        <time>2022-09-27T13:31:49Z</time>
      </trkpt>
      <trkpt lat="46.18986" lon="6.04373">
        <ele>380.1</ele>
        <time>2022-09-27T13:31:50Z</time>
      </trkpt>
      <trkpt lat="46.18983" lon="6.04375">
        <ele>380.1</ele>
        <time>2022-09-27T13:31:51Z</time>
      </trkpt>
      <trkpt lat="46.1898" lon="6.04377">
        <ele>380.2</ele>
        <time>2022-09-27T13:31:52Z</time>
      </trkpt>
      <trkpt lat="46.18976" lon="6.0438">
        <ele>380.2</ele>
        <time>2022-09-27T13:31:53Z</time>
      </trkpt>
      <trkpt lat="46.18975" lon="6.04381">
        <ele>380.2</ele>
        <time>2022-09-27T13:31:54Z</time>
      </trkpt>
      <trkpt lat="46.18973" lon="6.04384">
        <ele>380.3</ele>
        <time>2022-09-27T13:31:55Z</time>
      </trkpt>
      <trkpt lat="46.18973" lon="6.04385">
        <ele>380.3</ele>
        <time>2022-09-27T13:31:56Z</time>
      </trkpt>
      <trkpt lat="46.18972" lon="6.04387">
        <ele>380.3</ele>
        <time>2022-09-27T13:31:57Z</time>
      </trkpt>
      <trkpt lat="46.18972" lon="6.04387">
        <ele>380.3</ele>
        <time>2022-09-27T13:31:58Z</time>
      </trkpt>
      <trkpt lat="46.18972" lon="6.04387">
        <ele>380.3</ele>
        <time>2022-09-27T13:31:59Z</time>
      </trkpt>
      <trkpt lat="46.18972" lon="6.04387">
        <ele>380.3</ele>
        <time>2022-09-27T13:32:00Z</time>
      </trkpt>
      <trkpt lat="46.18972" lon="6.04387">
        <ele>380.3</ele>
        <time>2022-09-27T13:32:01Z</time>
      </trkpt>
      <trkpt lat="46.18971" lon="6.04387">
        <ele>380.3</ele>
        <time>2022-09-27T13:32:02Z</time>
      </trkpt>
      <trkpt lat="46.18971" lon="6.04387">
        <ele>380.3</ele>
        <time>2022-09-27T13:32:03Z</time>
      </trkpt>
      <trkpt lat="46.18971" lon="6.04387">
        <ele>380.3</ele>
        <time>2022-09-27T13:32:04Z</time>
      </trkpt>
      <trkpt lat="46.18971" lon="6.04387">
        <ele>380.3</ele>
        <time>2022-09-27T13:32:05Z</time>
      </trkpt>
      <trkpt lat="46.18972" lon="6.04387">
        <ele>380.3</ele>
        <time>2022-09-27T13:32:06Z</time>
      </trkpt>
      <trkpt lat="46.18972" lon="6.04387">
        <ele>380.3</ele>
        <time>2022-09-27T13:32:07Z</time>
      </trkpt>
      <trkpt lat="46.18973" lon="6.04387">
        <ele>380.3</ele>
        <time>2022-09-27T13:43:18Z</time>
      </trkpt>
      <trkpt lat="46.18973" lon="6.04387">
        <ele>380.3</ele>
        <time>2022-09-27T13:43:19Z</time>
      </trkpt>
      <trkpt lat="46.18973" lon="6.04387">
        <ele>380.3</ele>
        <time>2022-09-27T13:43:20Z</time>
      </trkpt>
      <trkpt lat="46.18973" lon="6.04387">
        <ele>380.3</ele>
        <time>2022-09-27T13:43:21Z</time>
      </trkpt>
      <trkpt lat="46.18973" lon="6.04387">
        <ele>380.3</ele>
        <time>2022-09-27T13:43:22Z</time>
      </trkpt>
      <trkpt lat="46.18973" lon="6.04386">
        <ele>380.3</ele>
        <time>2022-09-27T13:43:23Z</time>
      </trkpt>
      <trkpt lat="46.18973" lon="6.04387">
        <ele>380.3</ele>
        <time>2022-09-27T13:43:24Z</time>
      </trkpt>
      <trkpt lat="46.18973" lon="6.04387">
        <ele>380.3</ele>
        <time>2022-09-27T13:43:25Z</time>
      </trkpt>
      <trkpt lat="46.18973" lon="6.04387">
        <ele>380.3</ele>
        <time>2022-09-27T13:43:26Z</time>
      </trkpt>
      <trkpt lat="46.18973" lon="6.04387">
        <ele>380.4</ele>
        <time>2022-09-27T13:43:27Z</time>
      </trkpt>
      <trkpt lat="46.18974" lon="6.04388">
        <ele>380.4</ele>
        <time>2022-09-27T13:53:33Z</time>
      </trkpt>
      <trkpt lat="46.18974" lon="6.04388">
        <ele>380.4</ele>
        <time>2022-09-27T13:53:34Z</time>
      </trkpt>
      <trkpt lat="46.18974" lon="6.04388">
        <ele>380.4</ele>
        <time>2022-09-27T13:53:35Z</time>
      </trkpt>
      <trkpt lat="46.18974" lon="6.04388">
        <ele>380.4</ele>
        <time>2022-09-27T13:53:36Z</time>
      </trkpt>
      <trkpt lat="46.18974" lon="6.04388">
        <ele>380.4</ele>
        <time>2022-09-27T13:53:37Z</time>
      </trkpt>
      <trkpt lat="46.18973" lon="6.04389">
        <ele>380.4</ele>
        <time>2022-09-27T13:53:38Z</time>
      </trkpt>
      <trkpt lat="46.18973" lon="6.0439">
        <ele>380.4</ele>
        <time>2022-09-27T13:53:39Z</time>
      </trkpt>
      <trkpt lat="46.18972" lon="6.04391">
        <ele>380.4</ele>
        <time>2022-09-27T13:53:40Z</time>
      </trkpt>
      <trkpt lat="46.1897" lon="6.04391">
        <ele>380.4</ele>
        <time>2022-09-27T13:53:41Z</time>
      </trkpt>
      <trkpt lat="46.18969" lon="6.04393">
        <ele>380.5</ele>
        <time>2022-09-27T13:53:42Z</time>
      </trkpt>
      <trkpt lat="46.18968" lon="6.04394">
        <ele>380.5</ele>
        <time>2022-09-27T13:53:43Z</time>
      </trkpt>
      <trkpt lat="46.18967" lon="6.04394">
        <ele>380.5</ele>
        <time>2022-09-27T13:53:44Z</time>
      </trkpt>
      <trkpt lat="46.18967" lon="6.04395">
        <ele>380.5</ele>
        <time>2022-09-27T13:53:45Z</time>
      </trkpt>
      <trkpt lat="46.18967" lon="6.04395">
        <ele>380.5</ele>
        <time>2022-09-27T13:53:46Z</time>
      </trkpt>
      <trkpt lat="46.18966" lon="6.04396">
        <ele>380.5</ele>
        <time>2022-09-27T13:53:47Z</time>
      </trkpt>
      <trkpt lat="46.18965" lon="6.04397">
        <ele>380.6</ele>
        <time>2022-09-27T13:53:48Z</time>
      </trkpt>
      <trkpt lat="46.18965" lon="6.04397">
        <ele>380.6</ele>
        <time>2022-09-27T13:53:49Z</time>
      </trkpt>
      <trkpt lat="46.18964" lon="6.04397">
        <ele>380.6</ele>
        <time>2022-09-27T13:53:50Z</time>
      </trkpt>
      <trkpt lat="46.18964" lon="6.04397">
        <ele>380.6</ele>
        <time>2022-09-27T13:53:51Z</time>
      </trkpt>
      <trkpt lat="46.18964" lon="6.04397">
        <ele>380.6</ele>
        <time>2022-09-27T13:53:52Z</time>
      </trkpt>
      <trkpt lat="46.18964" lon="6.04398">
        <ele>380.6</ele>
        <time>2022-09-27T13:53:53Z</time>
      </trkpt>
      <trkpt lat="46.18963" lon="6.04398">
        <ele>380.6</ele>
        <time>2022-09-27T13:53:54Z</time>
      </trkpt>
      <trkpt lat="46.18963" lon="6.04399">
        <ele>380.6</ele>
        <time>2022-09-27T13:53:55Z</time>
      </trkpt>
      <trkpt lat="46.18961" lon="6.04403">
        <ele>380.7</ele>
        <time>2022-09-27T13:53:57Z</time>
      </trkpt>
      <trkpt lat="46.18959" lon="6.04405">
        <ele>380.7</ele>
        <time>2022-09-27T13:53:58Z</time>
      </trkpt>
      <trkpt lat="46.18957" lon="6.04408">
        <ele>380.7</ele>
        <time>2022-09-27T13:53:59Z</time>
      </trkpt>
      <trkpt lat="46.18956" lon="6.04409">
        <ele>380.8</ele>
        <time>2022-09-27T13:54:00Z</time>
      </trkpt>
      <trkpt lat="46.18954" lon="6.04413">
        <ele>380.8</ele>
        <time>2022-09-27T13:54:01Z</time>
      </trkpt>
      <trkpt lat="46.18953" lon="6.04415">
        <ele>380.9</ele>
        <time>2022-09-27T13:54:02Z</time>
      </trkpt>
      <trkpt lat="46.1895" lon="6.04416">
        <ele>380.9</ele>
        <time>2022-09-27T13:54:03Z</time>
      </trkpt>
      <trkpt lat="46.18948" lon="6.0442">
        <ele>380.9</ele>
        <time>2022-09-27T13:54:04Z</time>
      </trkpt>
      <trkpt lat="46.18947" lon="6.04421">
        <ele>381</ele>
        <time>2022-09-27T13:54:05Z</time>
      </trkpt>
      <trkpt lat="46.18945" lon="6.04424">
        <ele>381</ele>
        <time>2022-09-27T13:54:06Z</time>
      </trkpt>
      <trkpt lat="46.18943" lon="6.04428">
        <ele>381</ele>
        <time>2022-09-27T13:54:07Z</time>
      </trkpt>
      <trkpt lat="46.18942" lon="6.04429">
        <ele>381.1</ele>
        <time>2022-09-27T13:54:08Z</time>
      </trkpt>
      <trkpt lat="46.18939" lon="6.04432">
        <ele>381.1</ele>
        <time>2022-09-27T13:54:09Z</time>
      </trkpt>
      <trkpt lat="46.18938" lon="6.04433">
        <ele>381.1</ele>
        <time>2022-09-27T13:54:10Z</time>
      </trkpt>
      <trkpt lat="46.18936" lon="6.04437">
        <ele>381.1</ele>
        <time>2022-09-27T13:54:11Z</time>
      </trkpt>
      <trkpt lat="46.18934" lon="6.0444">
        <ele>381.2</ele>
        <time>2022-09-27T13:54:12Z</time>
      </trkpt>
      <trkpt lat="46.18931" lon="6.04443">
        <ele>381.2</ele>
        <time>2022-09-27T13:54:13Z</time>
      </trkpt>
      <trkpt lat="46.18929" lon="6.04447">
        <ele>381.3</ele>
        <time>2022-09-27T13:54:14Z</time>
      </trkpt>
      <trkpt lat="46.18927" lon="6.0445">
        <ele>381.3</ele>
        <time>2022-09-27T13:54:15Z</time>
      </trkpt>
      <trkpt lat="46.18925" lon="6.04454">
        <ele>381.3</ele>
        <time>2022-09-27T13:54:16Z</time>
      </trkpt>
      <trkpt lat="46.18923" lon="6.04458">
        <ele>381.4</ele>
        <time>2022-09-27T13:54:17Z</time>
      </trkpt>
      <trkpt lat="46.18921" lon="6.04461">
        <ele>381.4</ele>
        <time>2022-09-27T13:54:18Z</time>
      </trkpt>
      <trkpt lat="46.18918" lon="6.04465">
        <ele>381.4</ele>
        <time>2022-09-27T13:54:19Z</time>
      </trkpt>
      <trkpt lat="46.18915" lon="6.04468">
        <ele>381.5</ele>
        <time>2022-09-27T13:54:20Z</time>
      </trkpt>
      <trkpt lat="46.18913" lon="6.04472">
        <ele>381.5</ele>
        <time>2022-09-27T13:54:21Z</time>
      </trkpt>
      <trkpt lat="46.18911" lon="6.04476">
        <ele>381.6</ele>
        <time>2022-09-27T13:54:22Z</time>
      </trkpt>
      <trkpt lat="46.18909" lon="6.0448">
        <ele>381.6</ele>
        <time>2022-09-27T13:54:23Z</time>
      </trkpt>
      <trkpt lat="46.18906" lon="6.04485">
        <ele>381.6</ele>
        <time>2022-09-27T13:54:24Z</time>
      </trkpt>
      <trkpt lat="46.18905" lon="6.04489">
        <ele>381.7</ele>
        <time>2022-09-27T13:54:25Z</time>
      </trkpt>
      <trkpt lat="46.18902" lon="6.04492">
        <ele>381.7</ele>
        <time>2022-09-27T13:54:26Z</time>
      </trkpt>
      <trkpt lat="46.189" lon="6.04495">
        <ele>381.8</ele>
        <time>2022-09-27T13:54:27Z</time>
      </trkpt>
      <trkpt lat="46.18897" lon="6.04499">
        <ele>381.8</ele>
        <time>2022-09-27T13:54:28Z</time>
      </trkpt>
      <trkpt lat="46.18896" lon="6.04504">
        <ele>381.9</ele>
        <time>2022-09-27T13:54:29Z</time>
      </trkpt>
      <trkpt lat="46.18892" lon="6.04508">
        <ele>381.9</ele>
        <time>2022-09-27T13:54:30Z</time>
      </trkpt>
      <trkpt lat="46.18891" lon="6.04511">
        <ele>382</ele>
        <time>2022-09-27T13:54:31Z</time>
      </trkpt>
      <trkpt lat="46.18888" lon="6.04514">
        <ele>382</ele>
        <time>2022-09-27T13:54:32Z</time>
      </trkpt>
      <trkpt lat="46.18885" lon="6.04518">
        <ele>382.1</ele>
        <time>2022-09-27T13:54:33Z</time>
      </trkpt>
      <trkpt lat="46.18882" lon="6.04523">
        <ele>382.2</ele>
        <time>2022-09-27T13:54:34Z</time>
      </trkpt>
      <trkpt lat="46.18881" lon="6.04525">
        <ele>382.2</ele>
        <time>2022-09-27T13:54:35Z</time>
      </trkpt>
      <trkpt lat="46.18878" lon="6.04528">
        <ele>382.3</ele>
        <time>2022-09-27T13:54:36Z</time>
      </trkpt>
      <trkpt lat="46.18876" lon="6.04531">
        <ele>382.3</ele>
        <time>2022-09-27T13:54:37Z</time>
      </trkpt>
      <trkpt lat="46.18874" lon="6.04535">
        <ele>382.4</ele>
        <time>2022-09-27T13:54:38Z</time>
      </trkpt>
      <trkpt lat="46.18872" lon="6.04539">
        <ele>382.4</ele>
        <time>2022-09-27T13:54:39Z</time>
      </trkpt>
      <trkpt lat="46.1887" lon="6.04543">
        <ele>382.5</ele>
        <time>2022-09-27T13:54:40Z</time>
      </trkpt>
      <trkpt lat="46.18868" lon="6.04547">
        <ele>382.5</ele>
        <time>2022-09-27T13:54:41Z</time>
      </trkpt>
      <trkpt lat="46.18866" lon="6.0455">
        <ele>382.6</ele>
        <time>2022-09-27T13:54:42Z</time>
      </trkpt>
      <trkpt lat="46.18864" lon="6.04553">
        <ele>382.6</ele>
        <time>2022-09-27T13:54:43Z</time>
      </trkpt>
      <trkpt lat="46.18861" lon="6.04557">
        <ele>382.7</ele>
        <time>2022-09-27T13:54:44Z</time>
      </trkpt>
      <trkpt lat="46.18858" lon="6.0456">
        <ele>382.8</ele>
        <time>2022-09-27T13:54:45Z</time>
      </trkpt>
      <trkpt lat="46.18855" lon="6.04563">
        <ele>382.9</ele>
        <time>2022-09-27T13:54:46Z</time>
      </trkpt>
      <trkpt lat="46.18853" lon="6.04568">
        <ele>383</ele>
        <time>2022-09-27T13:54:47Z</time>
      </trkpt>
      <trkpt lat="46.1885" lon="6.04572">
        <ele>383</ele>
        <time>2022-09-27T13:54:48Z</time>
      </trkpt>
      <trkpt lat="46.18849" lon="6.04574">
        <ele>383.1</ele>
        <time>2022-09-27T13:54:49Z</time>
      </trkpt>
      <trkpt lat="46.18846" lon="6.04577">
        <ele>383.2</ele>
        <time>2022-09-27T13:54:50Z</time>
      </trkpt>
      <trkpt lat="46.18844" lon="6.04581">
        <ele>383.2</ele>
        <time>2022-09-27T13:54:51Z</time>
      </trkpt>
      <trkpt lat="46.18844" lon="6.04582">
        <ele>383.3</ele>
        <time>2022-09-27T13:54:52Z</time>
      </trkpt>
      <trkpt lat="46.18842" lon="6.04586">
        <ele>383.3</ele>
        <time>2022-09-27T13:54:53Z</time>
      </trkpt>
      <trkpt lat="46.18841" lon="6.04587">
        <ele>383.4</ele>
        <time>2022-09-27T13:54:54Z</time>
      </trkpt>
      <trkpt lat="46.18838" lon="6.04587">
        <ele>383.5</ele>
        <time>2022-09-27T13:54:55Z</time>
      </trkpt>
      <trkpt lat="46.18834" lon="6.04587">
        <ele>383.5</ele>
        <time>2022-09-27T13:54:56Z</time>
      </trkpt>
      <trkpt lat="46.18831" lon="6.04588">
        <ele>383.6</ele>
        <time>2022-09-27T13:54:57Z</time>
      </trkpt>
      <trkpt lat="46.1883" lon="6.04588">
        <ele>383.6</ele>
        <time>2022-09-27T13:54:58Z</time>
      </trkpt>
      <trkpt lat="46.18826" lon="6.04589">
        <ele>383.7</ele>
        <time>2022-09-27T13:54:59Z</time>
      </trkpt>
      <trkpt lat="46.18825" lon="6.04589">
        <ele>383.7</ele>
        <time>2022-09-27T13:55:00Z</time>
      </trkpt>
      <trkpt lat="46.18822" lon="6.04589">
        <ele>383.8</ele>
        <time>2022-09-27T13:55:01Z</time>
      </trkpt>
      <trkpt lat="46.18818" lon="6.04588">
        <ele>383.8</ele>
        <time>2022-09-27T13:55:02Z</time>
      </trkpt>
      <trkpt lat="46.18817" lon="6.04588">
        <ele>383.8</ele>
        <time>2022-09-27T13:55:03Z</time>
      </trkpt>
      <trkpt lat="46.18814" lon="6.04587">
        <ele>383.9</ele>
        <time>2022-09-27T13:55:04Z</time>
      </trkpt>
      <trkpt lat="46.18813" lon="6.04587">
        <ele>383.9</ele>
        <time>2022-09-27T13:55:05Z</time>
      </trkpt>
      <trkpt lat="46.1881" lon="6.04589">
        <ele>383.9</ele>
        <time>2022-09-27T13:55:06Z</time>
      </trkpt>
      <trkpt lat="46.18809" lon="6.0459">
        <ele>384</ele>
        <time>2022-09-27T13:55:07Z</time>
      </trkpt>
      <trkpt lat="46.18807" lon="6.04593">
        <ele>384</ele>
        <time>2022-09-27T13:55:08Z</time>
      </trkpt>
      <trkpt lat="46.18806" lon="6.04595">
        <ele>384</ele>
        <time>2022-09-27T13:55:09Z</time>
      </trkpt>
      <trkpt lat="46.18804" lon="6.04597">
        <ele>384.1</ele>
        <time>2022-09-27T13:55:10Z</time>
      </trkpt>
      <trkpt lat="46.18803" lon="6.04601">
        <ele>384.3</ele>
        <time>2022-09-27T13:55:11Z</time>
      </trkpt>
      <trkpt lat="46.18801" lon="6.04606">
        <ele>384.4</ele>
        <time>2022-09-27T13:55:12Z</time>
      </trkpt>
      <trkpt lat="46.18801" lon="6.04607">
        <ele>384.4</ele>
        <time>2022-09-27T13:55:13Z</time>
      </trkpt>
      <trkpt lat="46.18802" lon="6.04613">
        <ele>384.6</ele>
        <time>2022-09-27T13:55:14Z</time>
      </trkpt>
      <trkpt lat="46.18802" lon="6.04615">
        <ele>384.6</ele>
        <time>2022-09-27T13:55:15Z</time>
      </trkpt>
      <trkpt lat="46.18801" lon="6.04621">
        <ele>384.6</ele>
        <time>2022-09-27T13:55:16Z</time>
      </trkpt>
      <trkpt lat="46.18801" lon="6.04623">
        <ele>384.7</ele>
        <time>2022-09-27T13:55:17Z</time>
      </trkpt>
      <trkpt lat="46.18801" lon="6.04627">
        <ele>384.7</ele>
        <time>2022-09-27T13:55:18Z</time>
      </trkpt>
      <trkpt lat="46.18803" lon="6.04631">
        <ele>384.8</ele>
        <time>2022-09-27T13:55:19Z</time>
      </trkpt>
      <trkpt lat="46.18804" lon="6.04633">
        <ele>384.8</ele>
        <time>2022-09-27T13:55:20Z</time>
      </trkpt>
      <trkpt lat="46.18804" lon="6.04638">
        <ele>384.9</ele>
        <time>2022-09-27T13:55:21Z</time>
      </trkpt>
      <trkpt lat="46.18804" lon="6.0464">
        <ele>384.9</ele>
        <time>2022-09-27T13:55:22Z</time>
      </trkpt>
      <trkpt lat="46.18801" lon="6.04643">
        <ele>384.9</ele>
        <time>2022-09-27T13:55:23Z</time>
      </trkpt>
      <trkpt lat="46.188" lon="6.04643">
        <ele>384.9</ele>
        <time>2022-09-27T13:55:24Z</time>
      </trkpt>
      <trkpt lat="46.18798" lon="6.04645">
        <ele>385</ele>
        <time>2022-09-27T13:55:25Z</time>
      </trkpt>
      <trkpt lat="46.18797" lon="6.04645">
        <ele>385</ele>
        <time>2022-09-27T13:55:26Z</time>
      </trkpt>
      <trkpt lat="46.18795" lon="6.04647">
        <ele>385</ele>
        <time>2022-09-27T13:55:27Z</time>
      </trkpt>
      <trkpt lat="46.18794" lon="6.04648">
        <ele>385</ele>
        <time>2022-09-27T13:55:28Z</time>
      </trkpt>
      <trkpt lat="46.18791" lon="6.04651">
        <ele>385</ele>
        <time>2022-09-27T13:55:29Z</time>
      </trkpt>
      <trkpt lat="46.18788" lon="6.04655">
        <ele>385</ele>
        <time>2022-09-27T13:55:30Z</time>
      </trkpt>
      <trkpt lat="46.18787" lon="6.04657">
        <ele>385</ele>
        <time>2022-09-27T13:55:31Z</time>
      </trkpt>
      <trkpt lat="46.18784" lon="6.04659">
        <ele>385</ele>
        <time>2022-09-27T13:55:32Z</time>
      </trkpt>
      <trkpt lat="46.18782" lon="6.04662">
        <ele>385</ele>
        <time>2022-09-27T13:55:33Z</time>
      </trkpt>
      <trkpt lat="46.18777" lon="6.04666">
        <ele>385</ele>
        <time>2022-09-27T13:55:34Z</time>
      </trkpt>
      <trkpt lat="46.18774" lon="6.0467">
        <ele>385</ele>
        <time>2022-09-27T13:55:35Z</time>
      </trkpt>
      <trkpt lat="46.18769" lon="6.04673">
        <ele>385</ele>
        <time>2022-09-27T13:55:36Z</time>
      </trkpt>
      <trkpt lat="46.18764" lon="6.04677">
        <ele>385.1</ele>
        <time>2022-09-27T13:55:37Z</time>
      </trkpt>
      <trkpt lat="46.1876" lon="6.04681">
        <ele>385.2</ele>
        <time>2022-09-27T13:55:38Z</time>
      </trkpt>
      <trkpt lat="46.18757" lon="6.04685">
        <ele>385.3</ele>
        <time>2022-09-27T13:55:39Z</time>
      </trkpt>
      <trkpt lat="46.18753" lon="6.04688">
        <ele>385.3</ele>
        <time>2022-09-27T13:55:40Z</time>
      </trkpt>
      <trkpt lat="46.1875" lon="6.04691">
        <ele>385.4</ele>
        <time>2022-09-27T13:55:41Z</time>
      </trkpt>
      <trkpt lat="46.18746" lon="6.04693">
        <ele>385.5</ele>
        <time>2022-09-27T13:55:42Z</time>
      </trkpt>
      <trkpt lat="46.18743" lon="6.04697">
        <ele>385.6</ele>
        <time>2022-09-27T13:55:43Z</time>
      </trkpt>
      <trkpt lat="46.18739" lon="6.047">
        <ele>385.8</ele>
        <time>2022-09-27T13:55:44Z</time>
      </trkpt>
      <trkpt lat="46.18735" lon="6.04703">
        <ele>385.9</ele>
        <time>2022-09-27T13:55:45Z</time>
      </trkpt>
      <trkpt lat="46.18731" lon="6.04706">
        <ele>386</ele>
        <time>2022-09-27T13:55:46Z</time>
      </trkpt>
      <trkpt lat="46.18727" lon="6.04709">
        <ele>386.2</ele>
        <time>2022-09-27T13:55:47Z</time>
      </trkpt>
      <trkpt lat="46.18724" lon="6.04712">
        <ele>386.3</ele>
        <time>2022-09-27T13:55:48Z</time>
      </trkpt>
      <trkpt lat="46.18721" lon="6.04715">
        <ele>386.5</ele>
        <time>2022-09-27T13:55:49Z</time>
      </trkpt>
      <trkpt lat="46.18719" lon="6.04718">
        <ele>386.6</ele>
        <time>2022-09-27T13:55:50Z</time>
      </trkpt>
      <trkpt lat="46.18716" lon="6.04721">
        <ele>386.7</ele>
        <time>2022-09-27T13:55:51Z</time>
      </trkpt>
      <trkpt lat="46.18713" lon="6.04724">
        <ele>386.8</ele>
        <time>2022-09-27T13:55:52Z</time>
      </trkpt>
      <trkpt lat="46.18709" lon="6.04727">
        <ele>387</ele>
        <time>2022-09-27T13:55:53Z</time>
      </trkpt>
      <trkpt lat="46.18706" lon="6.0473">
        <ele>387.2</ele>
        <time>2022-09-27T13:55:54Z</time>
      </trkpt>
      <trkpt lat="46.18704" lon="6.04733">
        <ele>387.4</ele>
        <time>2022-09-27T13:55:55Z</time>
      </trkpt>
      <trkpt lat="46.18701" lon="6.04735">
        <ele>387.5</ele>
        <time>2022-09-27T13:55:56Z</time>
      </trkpt>
      <trkpt lat="46.18698" lon="6.04738">
        <ele>387.7</ele>
        <time>2022-09-27T13:55:57Z</time>
      </trkpt>
      <trkpt lat="46.18696" lon="6.04742">
        <ele>387.9</ele>
        <time>2022-09-27T13:55:58Z</time>
      </trkpt>
      <trkpt lat="46.18695" lon="6.04743">
        <ele>388</ele>
        <time>2022-09-27T13:55:59Z</time>
      </trkpt>
      <trkpt lat="46.18692" lon="6.04746">
        <ele>388.2</ele>
        <time>2022-09-27T13:56:00Z</time>
      </trkpt>
      <trkpt lat="46.1869" lon="6.0475">
        <ele>388.4</ele>
        <time>2022-09-27T13:56:01Z</time>
      </trkpt>
      <trkpt lat="46.18689" lon="6.04753">
        <ele>388.5</ele>
        <time>2022-09-27T13:56:02Z</time>
      </trkpt>
      <trkpt lat="46.18688" lon="6.04754">
        <ele>388.6</ele>
        <time>2022-09-27T13:56:03Z</time>
      </trkpt>
      <trkpt lat="46.18685" lon="6.04758">
        <ele>388.8</ele>
        <time>2022-09-27T13:56:04Z</time>
      </trkpt>
      <trkpt lat="46.18684" lon="6.04759">
        <ele>388.9</ele>
        <time>2022-09-27T13:56:05Z</time>
      </trkpt>
      <trkpt lat="46.18682" lon="6.04762">
        <ele>389.1</ele>
        <time>2022-09-27T13:56:06Z</time>
      </trkpt>
      <trkpt lat="46.18681" lon="6.04763">
        <ele>389.2</ele>
        <time>2022-09-27T13:56:07Z</time>
      </trkpt>
      <trkpt lat="46.18679" lon="6.04767">
        <ele>389.4</ele>
        <time>2022-09-27T13:56:08Z</time>
      </trkpt>
      <trkpt lat="46.18678" lon="6.04768">
        <ele>389.5</ele>
        <time>2022-09-27T13:56:09Z</time>
      </trkpt>
      <trkpt lat="46.18677" lon="6.04771">
        <ele>389.7</ele>
        <time>2022-09-27T13:56:10Z</time>
      </trkpt>
      <trkpt lat="46.18674" lon="6.04774">
        <ele>390</ele>
        <time>2022-09-27T13:56:11Z</time>
      </trkpt>
      <trkpt lat="46.18673" lon="6.04775">
        <ele>390.1</ele>
        <time>2022-09-27T13:56:12Z</time>
      </trkpt>
      <trkpt lat="46.18671" lon="6.04777">
        <ele>390.3</ele>
        <time>2022-09-27T13:56:13Z</time>
      </trkpt>
      <trkpt lat="46.1867" lon="6.04778">
        <ele>390.4</ele>
        <time>2022-09-27T13:56:14Z</time>
      </trkpt>
      <trkpt lat="46.18667" lon="6.0478">
        <ele>390.6</ele>
        <time>2022-09-27T13:56:15Z</time>
      </trkpt>
      <trkpt lat="46.18666" lon="6.04781">
        <ele>390.7</ele>
        <time>2022-09-27T13:56:16Z</time>
      </trkpt>
      <trkpt lat="46.18663" lon="6.04784">
        <ele>391</ele>
        <time>2022-09-27T13:56:17Z</time>
      </trkpt>
      <trkpt lat="46.18662" lon="6.04784">
        <ele>391.1</ele>
        <time>2022-09-27T13:56:18Z</time>
      </trkpt>
      <trkpt lat="46.18659" lon="6.04787">
        <ele>391.3</ele>
        <time>2022-09-27T13:56:19Z</time>
      </trkpt>
      <trkpt lat="46.18658" lon="6.04788">
        <ele>391.5</ele>
        <time>2022-09-27T13:56:20Z</time>
      </trkpt>
      <trkpt lat="46.18655" lon="6.04791">
        <ele>391.8</ele>
        <time>2022-09-27T13:56:21Z</time>
      </trkpt>
      <trkpt lat="46.18655" lon="6.04792">
        <ele>391.8</ele>
        <time>2022-09-27T13:56:22Z</time>
      </trkpt>
      <trkpt lat="46.18652" lon="6.04794">
        <ele>392.1</ele>
        <time>2022-09-27T13:56:23Z</time>
      </trkpt>
      <trkpt lat="46.18651" lon="6.04795">
        <ele>392.2</ele>
        <time>2022-09-27T13:56:24Z</time>
      </trkpt>
      <trkpt lat="46.1865" lon="6.04796">
        <ele>392.4</ele>
        <time>2022-09-27T13:56:25Z</time>
      </trkpt>
      <trkpt lat="46.18649" lon="6.04798">
        <ele>392.5</ele>
        <time>2022-09-27T13:56:26Z</time>
      </trkpt>
      <trkpt lat="46.18647" lon="6.04799">
        <ele>392.7</ele>
        <time>2022-09-27T13:56:27Z</time>
      </trkpt>
      <trkpt lat="46.18647" lon="6.04801">
        <ele>392.8</ele>
        <time>2022-09-27T13:56:28Z</time>
      </trkpt>
      <trkpt lat="46.18645" lon="6.04803">
        <ele>393</ele>
        <time>2022-09-27T13:56:29Z</time>
      </trkpt>
      <trkpt lat="46.18644" lon="6.04804">
        <ele>393.1</ele>
        <time>2022-09-27T13:56:30Z</time>
      </trkpt>
      <trkpt lat="46.18641" lon="6.04807">
        <ele>393.5</ele>
        <time>2022-09-27T13:56:31Z</time>
      </trkpt>
      <trkpt lat="46.18639" lon="6.04808">
        <ele>393.7</ele>
        <time>2022-09-27T13:56:32Z</time>
      </trkpt>
      <trkpt lat="46.18637" lon="6.0481">
        <ele>394</ele>
        <time>2022-09-27T13:56:33Z</time>
      </trkpt>
      <trkpt lat="46.18636" lon="6.04811">
        <ele>394</ele>
        <time>2022-09-27T13:56:34Z</time>
      </trkpt>
      <trkpt lat="46.18634" lon="6.04812">
        <ele>394.3</ele>
        <time>2022-09-27T13:56:35Z</time>
      </trkpt>
      <trkpt lat="46.18633" lon="6.04812">
        <ele>394.4</ele>
        <time>2022-09-27T13:56:36Z</time>
      </trkpt>
      <trkpt lat="46.18633" lon="6.04814">
        <ele>394.5</ele>
        <time>2022-09-27T13:56:37Z</time>
      </trkpt>
      <trkpt lat="46.18631" lon="6.04815">
        <ele>394.6</ele>
        <time>2022-09-27T13:56:38Z</time>
      </trkpt>
      <trkpt lat="46.1863" lon="6.04817">
        <ele>394.8</ele>
        <time>2022-09-27T13:56:39Z</time>
      </trkpt>
      <trkpt lat="46.18629" lon="6.04819">
        <ele>395</ele>
        <time>2022-09-27T13:56:40Z</time>
      </trkpt>
      <trkpt lat="46.18628" lon="6.04822">
        <ele>395.2</ele>
        <time>2022-09-27T13:56:41Z</time>
      </trkpt>
      <trkpt lat="46.18627" lon="6.04823">
        <ele>395.3</ele>
        <time>2022-09-27T13:56:42Z</time>
      </trkpt>
      <trkpt lat="46.18627" lon="6.04823">
        <ele>395.3</ele>
        <time>2022-09-27T13:56:43Z</time>
      </trkpt>
      <trkpt lat="46.18625" lon="6.04826">
        <ele>395.6</ele>
        <time>2022-09-27T13:56:44Z</time>
      </trkpt>
      <trkpt lat="46.18624" lon="6.04827">
        <ele>395.7</ele>
        <time>2022-09-27T13:56:45Z</time>
      </trkpt>
      <trkpt lat="46.18623" lon="6.04827">
        <ele>395.8</ele>
        <time>2022-09-27T13:56:46Z</time>
      </trkpt>
      <trkpt lat="46.18621" lon="6.04829">
        <ele>396</ele>
        <time>2022-09-27T13:56:47Z</time>
      </trkpt>
      <trkpt lat="46.18621" lon="6.0483">
        <ele>396.1</ele>
        <time>2022-09-27T13:56:48Z</time>
      </trkpt>
      <trkpt lat="46.18602" lon="6.04851">
        <ele>398.1</ele>
        <time>2022-09-27T13:57:02Z</time>
      </trkpt>
      <trkpt lat="46.18598" lon="6.04852">
        <ele>398.4</ele>
        <time>2022-09-27T13:57:03Z</time>
      </trkpt>
      <trkpt lat="46.18596" lon="6.04856">
        <ele>398.6</ele>
        <time>2022-09-27T13:57:04Z</time>
      </trkpt>
      <trkpt lat="46.18596" lon="6.04857">
        <ele>398.7</ele>
        <time>2022-09-27T13:57:05Z</time>
      </trkpt>
      <trkpt lat="46.18594" lon="6.04858">
        <ele>398.7</ele>
        <time>2022-09-27T13:57:06Z</time>
      </trkpt>
      <trkpt lat="46.18593" lon="6.04858">
        <ele>398.8</ele>
        <time>2022-09-27T13:57:07Z</time>
      </trkpt>
      <trkpt lat="46.18592" lon="6.0486">
        <ele>398.9</ele>
        <time>2022-09-27T13:57:08Z</time>
      </trkpt>
      <trkpt lat="46.18591" lon="6.04861">
        <ele>399</ele>
        <time>2022-09-27T13:57:09Z</time>
      </trkpt>
      <trkpt lat="46.18589" lon="6.04863">
        <ele>399.2</ele>
        <time>2022-09-27T13:57:10Z</time>
      </trkpt>
      <trkpt lat="46.18588" lon="6.04865">
        <ele>399.2</ele>
        <time>2022-09-27T13:57:11Z</time>
      </trkpt>
      <trkpt lat="46.18588" lon="6.04866">
        <ele>399.3</ele>
        <time>2022-09-27T13:57:12Z</time>
      </trkpt>
      <trkpt lat="46.18586" lon="6.04867">
        <ele>399.4</ele>
        <time>2022-09-27T13:57:13Z</time>
      </trkpt>
      <trkpt lat="46.18585" lon="6.04869">
        <ele>399.5</ele>
        <time>2022-09-27T13:57:14Z</time>
      </trkpt>
      <trkpt lat="46.18583" lon="6.04872">
        <ele>399.7</ele>
        <time>2022-09-27T13:57:15Z</time>
      </trkpt>
      <trkpt lat="46.18582" lon="6.04873">
        <ele>399.7</ele>
        <time>2022-09-27T13:57:16Z</time>
      </trkpt>
      <trkpt lat="46.1858" lon="6.04877">
        <ele>399.9</ele>
        <time>2022-09-27T13:57:17Z</time>
      </trkpt>
      <trkpt lat="46.18579" lon="6.04878">
        <ele>400</ele>
        <time>2022-09-27T13:57:18Z</time>
      </trkpt>
      <trkpt lat="46.18577" lon="6.04881">
        <ele>400.2</ele>
        <time>2022-09-27T13:57:19Z</time>
      </trkpt>
      <trkpt lat="46.18577" lon="6.04883">
        <ele>400.2</ele>
        <time>2022-09-27T13:57:20Z</time>
      </trkpt>
      <trkpt lat="46.18575" lon="6.04885">
        <ele>400.4</ele>
        <time>2022-09-27T13:57:21Z</time>
      </trkpt>
      <trkpt lat="46.18574" lon="6.04887">
        <ele>400.4</ele>
        <time>2022-09-27T13:57:22Z</time>
      </trkpt>
      <trkpt lat="46.18572" lon="6.0489">
        <ele>400.6</ele>
        <time>2022-09-27T13:57:23Z</time>
      </trkpt>
      <trkpt lat="46.18571" lon="6.04891">
        <ele>400.7</ele>
        <time>2022-09-27T13:57:24Z</time>
      </trkpt>
      <trkpt lat="46.18571" lon="6.04894">
        <ele>400.8</ele>
        <time>2022-09-27T13:57:25Z</time>
      </trkpt>
      <trkpt lat="46.1857" lon="6.04895">
        <ele>400.9</ele>
        <time>2022-09-27T13:57:26Z</time>
      </trkpt>
      <trkpt lat="46.18569" lon="6.04897">
        <ele>400.9</ele>
        <time>2022-09-27T13:57:27Z</time>
      </trkpt>
      <trkpt lat="46.18567" lon="6.04901">
        <ele>401.2</ele>
        <time>2022-09-27T13:57:28Z</time>
      </trkpt>
      <trkpt lat="46.18566" lon="6.04902">
        <ele>401.2</ele>
        <time>2022-09-27T13:57:29Z</time>
      </trkpt>
      <trkpt lat="46.18564" lon="6.04906">
        <ele>401.4</ele>
        <time>2022-09-27T13:57:30Z</time>
      </trkpt>
      <trkpt lat="46.18563" lon="6.04907">
        <ele>401.5</ele>
        <time>2022-09-27T13:57:31Z</time>
      </trkpt>
      <trkpt lat="46.1856" lon="6.0491">
        <ele>401.7</ele>
        <time>2022-09-27T13:57:32Z</time>
      </trkpt>
      <trkpt lat="46.18559" lon="6.04912">
        <ele>401.8</ele>
        <time>2022-09-27T13:57:33Z</time>
      </trkpt>
      <trkpt lat="46.18557" lon="6.04915">
        <ele>402</ele>
        <time>2022-09-27T13:57:34Z</time>
      </trkpt>
      <trkpt lat="46.18557" lon="6.04916">
        <ele>402</ele>
        <time>2022-09-27T13:57:35Z</time>
      </trkpt>
      <trkpt lat="46.18556" lon="6.04917">
        <ele>402.1</ele>
        <time>2022-09-27T13:57:36Z</time>
      </trkpt>
      <trkpt lat="46.18554" lon="6.0492">
        <ele>402.3</ele>
        <time>2022-09-27T13:57:37Z</time>
      </trkpt>
      <trkpt lat="46.18551" lon="6.04923">
        <ele>402.5</ele>
        <time>2022-09-27T13:57:38Z</time>
      </trkpt>
      <trkpt lat="46.1855" lon="6.04924">
        <ele>402.5</ele>
        <time>2022-09-27T13:57:39Z</time>
      </trkpt>
      <trkpt lat="46.18548" lon="6.04927">
        <ele>402.7</ele>
        <time>2022-09-27T13:57:40Z</time>
      </trkpt>
      <trkpt lat="46.18547" lon="6.04929">
        <ele>402.8</ele>
        <time>2022-09-27T13:57:41Z</time>
      </trkpt>
      <trkpt lat="46.18546" lon="6.0493">
        <ele>402.9</ele>
        <time>2022-09-27T13:57:42Z</time>
      </trkpt>
      <trkpt lat="46.18545" lon="6.04931">
        <ele>402.9</ele>
        <time>2022-09-27T13:57:43Z</time>
      </trkpt>
      <trkpt lat="46.18544" lon="6.04933">
        <ele>403</ele>
        <time>2022-09-27T13:57:44Z</time>
      </trkpt>
      <trkpt lat="46.18543" lon="6.04935">
        <ele>403.1</ele>
        <time>2022-09-27T13:57:45Z</time>
      </trkpt>
      <trkpt lat="46.18542" lon="6.04937">
        <ele>403.2</ele>
        <time>2022-09-27T13:57:46Z</time>
      </trkpt>
      <trkpt lat="46.18541" lon="6.04938">
        <ele>403.3</ele>
        <time>2022-09-27T13:57:47Z</time>
      </trkpt>
      <trkpt lat="46.18539" lon="6.04941">
        <ele>403.5</ele>
        <time>2022-09-27T13:57:48Z</time>
      </trkpt>
      <trkpt lat="46.18539" lon="6.04942">
        <ele>403.5</ele>
        <time>2022-09-27T13:57:49Z</time>
      </trkpt>
      <trkpt lat="46.18537" lon="6.04944">
        <ele>403.7</ele>
        <time>2022-09-27T13:57:50Z</time>
      </trkpt>
      <trkpt lat="46.18537" lon="6.04946">
        <ele>403.7</ele>
        <time>2022-09-27T13:57:51Z</time>
      </trkpt>
      <trkpt lat="46.18536" lon="6.04948">
        <ele>403.8</ele>
        <time>2022-09-27T13:57:52Z</time>
      </trkpt>
      <trkpt lat="46.18534" lon="6.04949">
        <ele>404</ele>
        <time>2022-09-27T13:57:53Z</time>
      </trkpt>
      <trkpt lat="46.18533" lon="6.04952">
        <ele>404.1</ele>
        <time>2022-09-27T13:57:54Z</time>
      </trkpt>
      <trkpt lat="46.18532" lon="6.04953">
        <ele>404.2</ele>
        <time>2022-09-27T13:57:55Z</time>
      </trkpt>
      <trkpt lat="46.18531" lon="6.04954">
        <ele>404.2</ele>
        <time>2022-09-27T13:57:56Z</time>
      </trkpt>
      <trkpt lat="46.18529" lon="6.04955">
        <ele>404.3</ele>
        <time>2022-09-27T13:57:57Z</time>
      </trkpt>
      <trkpt lat="46.18529" lon="6.04958">
        <ele>404.4</ele>
        <time>2022-09-27T13:57:58Z</time>
      </trkpt>
      <trkpt lat="46.18527" lon="6.04959">
        <ele>404.4</ele>
        <time>2022-09-27T13:57:59Z</time>
      </trkpt>
      <trkpt lat="46.18526" lon="6.04961">
        <ele>404.5</ele>
        <time>2022-09-27T13:58:00Z</time>
      </trkpt>
      <trkpt lat="46.18525" lon="6.04962">
        <ele>404.5</ele>
        <time>2022-09-27T13:58:01Z</time>
      </trkpt>
      <trkpt lat="46.18523" lon="6.04965">
        <ele>404.6</ele>
        <time>2022-09-27T13:58:02Z</time>
      </trkpt>
      <trkpt lat="46.18522" lon="6.04966">
        <ele>404.7</ele>
        <time>2022-09-27T13:58:03Z</time>
      </trkpt>
      <trkpt lat="46.1852" lon="6.04971">
        <ele>404.8</ele>
        <time>2022-09-27T13:58:04Z</time>
      </trkpt>
      <trkpt lat="46.18519" lon="6.04972">
        <ele>404.8</ele>
        <time>2022-09-27T13:58:05Z</time>
      </trkpt>
      <trkpt lat="46.18518" lon="6.04975">
        <ele>404.9</ele>
        <time>2022-09-27T13:58:06Z</time>
      </trkpt>
      <trkpt lat="46.18515" lon="6.04979">
        <ele>405</ele>
        <time>2022-09-27T13:58:07Z</time>
      </trkpt>
      <trkpt lat="46.18514" lon="6.0498">
        <ele>405</ele>
        <time>2022-09-27T13:58:08Z</time>
      </trkpt>
      <trkpt lat="46.18512" lon="6.04984">
        <ele>405.1</ele>
        <time>2022-09-27T13:58:09Z</time>
      </trkpt>
      <trkpt lat="46.1851" lon="6.04987">
        <ele>405.1</ele>
        <time>2022-09-27T13:58:10Z</time>
      </trkpt>
      <trkpt lat="46.18508" lon="6.0499">
        <ele>405.2</ele>
        <time>2022-09-27T13:58:11Z</time>
      </trkpt>
      <trkpt lat="46.18506" lon="6.04994">
        <ele>405.2</ele>
        <time>2022-09-27T13:58:12Z</time>
      </trkpt>
      <trkpt lat="46.18503" lon="6.04997">
        <ele>405.3</ele>
        <time>2022-09-27T13:58:13Z</time>
      </trkpt>
      <trkpt lat="46.18501" lon="6.05">
        <ele>405.3</ele>
        <time>2022-09-27T13:58:14Z</time>
      </trkpt>
      <trkpt lat="46.18499" lon="6.05004">
        <ele>405.4</ele>
        <time>2022-09-27T13:58:15Z</time>
      </trkpt>
      <trkpt lat="46.18496" lon="6.05008">
        <ele>405.4</ele>
        <time>2022-09-27T13:58:16Z</time>
      </trkpt>
      <trkpt lat="46.18494" lon="6.05011">
        <ele>405.4</ele>
        <time>2022-09-27T13:58:17Z</time>
      </trkpt>
      <trkpt lat="46.18492" lon="6.05015">
        <ele>405.4</ele>
        <time>2022-09-27T13:58:18Z</time>
      </trkpt>
      <trkpt lat="46.18489" lon="6.05018">
        <ele>405.4</ele>
        <time>2022-09-27T13:58:19Z</time>
      </trkpt>
      <trkpt lat="46.18487" lon="6.05022">
        <ele>405.4</ele>
        <time>2022-09-27T13:58:20Z</time>
      </trkpt>
      <trkpt lat="46.18485" lon="6.05026">
        <ele>405.5</ele>
        <time>2022-09-27T13:58:21Z</time>
      </trkpt>
      <trkpt lat="46.18483" lon="6.0503">
        <ele>405.5</ele>
        <time>2022-09-27T13:58:22Z</time>
      </trkpt>
      <trkpt lat="46.18481" lon="6.05034">
        <ele>405.5</ele>
        <time>2022-09-27T13:58:23Z</time>
      </trkpt>
      <trkpt lat="46.18478" lon="6.05037">
        <ele>405.5</ele>
        <time>2022-09-27T13:58:24Z</time>
      </trkpt>
      <trkpt lat="46.18476" lon="6.05041">
        <ele>405.5</ele>
        <time>2022-09-27T13:58:25Z</time>
      </trkpt>
      <trkpt lat="46.18473" lon="6.05045">
        <ele>405.5</ele>
        <time>2022-09-27T13:58:26Z</time>
      </trkpt>
      <trkpt lat="46.18471" lon="6.0505">
        <ele>405.5</ele>
        <time>2022-09-27T13:58:27Z</time>
      </trkpt>
      <trkpt lat="46.18468" lon="6.05054">
        <ele>405.5</ele>
        <time>2022-09-27T13:58:28Z</time>
      </trkpt>
      <trkpt lat="46.18466" lon="6.05058">
        <ele>405.5</ele>
        <time>2022-09-27T13:58:29Z</time>
      </trkpt>
      <trkpt lat="46.18463" lon="6.05062">
        <ele>405.5</ele>
        <time>2022-09-27T13:58:30Z</time>
      </trkpt>
      <trkpt lat="46.1846" lon="6.05066">
        <ele>405.6</ele>
        <time>2022-09-27T13:58:31Z</time>
      </trkpt>
      <trkpt lat="46.18458" lon="6.05071">
        <ele>405.6</ele>
        <time>2022-09-27T13:58:32Z</time>
      </trkpt>
      <trkpt lat="46.18455" lon="6.05075">
        <ele>405.6</ele>
        <time>2022-09-27T13:58:33Z</time>
      </trkpt>
      <trkpt lat="46.1845" lon="6.05083">
        <ele>405.6</ele>
        <time>2022-09-27T13:58:34Z</time>
      </trkpt>
      <trkpt lat="46.18447" lon="6.05087">
        <ele>405.6</ele>
        <time>2022-09-27T13:58:35Z</time>
      </trkpt>
      <trkpt lat="46.18445" lon="6.05091">
        <ele>405.7</ele>
        <time>2022-09-27T13:58:36Z</time>
      </trkpt>
      <trkpt lat="46.18443" lon="6.05095">
        <ele>405.7</ele>
        <time>2022-09-27T13:58:37Z</time>
      </trkpt>
      <trkpt lat="46.1844" lon="6.05099">
        <ele>405.7</ele>
        <time>2022-09-27T13:58:38Z</time>
      </trkpt>
      <trkpt lat="46.18437" lon="6.05103">
        <ele>405.7</ele>
        <time>2022-09-27T13:58:39Z</time>
      </trkpt>
      <trkpt lat="46.18435" lon="6.05108">
        <ele>405.8</ele>
        <time>2022-09-27T13:58:40Z</time>
      </trkpt>
      <trkpt lat="46.18432" lon="6.05112">
        <ele>405.8</ele>
        <time>2022-09-27T13:58:41Z</time>
      </trkpt>
      <trkpt lat="46.1843" lon="6.05116">
        <ele>405.8</ele>
        <time>2022-09-27T13:58:42Z</time>
      </trkpt>
      <trkpt lat="46.18427" lon="6.0512">
        <ele>405.9</ele>
        <time>2022-09-27T13:58:43Z</time>
      </trkpt>
      <trkpt lat="46.18425" lon="6.05125">
        <ele>405.9</ele>
        <time>2022-09-27T13:58:44Z</time>
      </trkpt>
      <trkpt lat="46.18422" lon="6.0513">
        <ele>406</ele>
        <time>2022-09-27T13:58:45Z</time>
      </trkpt>
      <trkpt lat="46.18419" lon="6.05133">
        <ele>406</ele>
        <time>2022-09-27T13:58:46Z</time>
      </trkpt>
      <trkpt lat="46.18417" lon="6.05138">
        <ele>406</ele>
        <time>2022-09-27T13:58:47Z</time>
      </trkpt>
      <trkpt lat="46.18414" lon="6.05143">
        <ele>406.1</ele>
        <time>2022-09-27T13:58:48Z</time>
      </trkpt>
      <trkpt lat="46.18412" lon="6.05147">
        <ele>406.1</ele>
        <time>2022-09-27T13:58:49Z</time>
      </trkpt>
      <trkpt lat="46.1841" lon="6.05152">
        <ele>406.1</ele>
        <time>2022-09-27T13:58:50Z</time>
      </trkpt>
      <trkpt lat="46.18408" lon="6.05157">
        <ele>406.2</ele>
        <time>2022-09-27T13:58:51Z</time>
      </trkpt>
      <trkpt lat="46.18406" lon="6.05162">
        <ele>406.2</ele>
        <time>2022-09-27T13:58:52Z</time>
      </trkpt>
      <trkpt lat="46.18404" lon="6.05167">
        <ele>406.3</ele>
        <time>2022-09-27T13:58:53Z</time>
      </trkpt>
      <trkpt lat="46.18401" lon="6.05172">
        <ele>406.3</ele>
        <time>2022-09-27T13:58:54Z</time>
      </trkpt>
      <trkpt lat="46.18399" lon="6.05177">
        <ele>406.4</ele>
        <time>2022-09-27T13:58:55Z</time>
      </trkpt>
      <trkpt lat="46.18397" lon="6.05181">
        <ele>406.4</ele>
        <time>2022-09-27T13:58:56Z</time>
      </trkpt>
      <trkpt lat="46.18396" lon="6.05185">
        <ele>406.5</ele>
        <time>2022-09-27T13:58:57Z</time>
      </trkpt>
      <trkpt lat="46.18394" lon="6.0519">
        <ele>406.5</ele>
        <time>2022-09-27T13:58:58Z</time>
      </trkpt>
      <trkpt lat="46.18392" lon="6.05194">
        <ele>406.6</ele>
        <time>2022-09-27T13:58:59Z</time>
      </trkpt>
      <trkpt lat="46.18391" lon="6.05198">
        <ele>406.6</ele>
        <time>2022-09-27T13:59:00Z</time>
      </trkpt>
      <trkpt lat="46.18388" lon="6.05203">
        <ele>406.7</ele>
        <time>2022-09-27T13:59:01Z</time>
      </trkpt>
      <trkpt lat="46.18385" lon="6.05208">
        <ele>406.8</ele>
        <time>2022-09-27T13:59:02Z</time>
      </trkpt>
      <trkpt lat="46.18384" lon="6.05212">
        <ele>406.8</ele>
        <time>2022-09-27T13:59:03Z</time>
      </trkpt>
      <trkpt lat="46.18383" lon="6.05217">
        <ele>406.9</ele>
        <time>2022-09-27T13:59:04Z</time>
      </trkpt>
      <trkpt lat="46.18381" lon="6.05221">
        <ele>406.9</ele>
        <time>2022-09-27T13:59:05Z</time>
      </trkpt>
      <trkpt lat="46.18379" lon="6.05225">
        <ele>407</ele>
        <time>2022-09-27T13:59:06Z</time>
      </trkpt>
      <trkpt lat="46.18377" lon="6.05231">
        <ele>407.1</ele>
        <time>2022-09-27T13:59:07Z</time>
      </trkpt>
      <trkpt lat="46.18375" lon="6.05235">
        <ele>407.1</ele>
        <time>2022-09-27T13:59:08Z</time>
      </trkpt>
      <trkpt lat="46.18373" lon="6.0524">
        <ele>407.2</ele>
        <time>2022-09-27T13:59:09Z</time>
      </trkpt>
      <trkpt lat="46.18371" lon="6.05246">
        <ele>407.3</ele>
        <time>2022-09-27T13:59:10Z</time>
      </trkpt>
      <trkpt lat="46.18371" lon="6.05248">
        <ele>407.3</ele>
        <time>2022-09-27T13:59:11Z</time>
      </trkpt>
      <trkpt lat="46.18369" lon="6.05251">
        <ele>407.4</ele>
        <time>2022-09-27T13:59:12Z</time>
      </trkpt>
      <trkpt lat="46.18367" lon="6.05256">
        <ele>407.5</ele>
        <time>2022-09-27T13:59:14Z</time>
      </trkpt>
      <trkpt lat="46.18366" lon="6.0526">
        <ele>407.6</ele>
        <time>2022-09-27T13:59:15Z</time>
      </trkpt>
      <trkpt lat="46.18364" lon="6.05264">
        <ele>407.7</ele>
        <time>2022-09-27T13:59:16Z</time>
      </trkpt>
      <trkpt lat="46.18362" lon="6.05268">
        <ele>407.7</ele>
        <time>2022-09-27T13:59:17Z</time>
      </trkpt>
      <trkpt lat="46.18361" lon="6.05272">
        <ele>407.8</ele>
        <time>2022-09-27T13:59:18Z</time>
      </trkpt>
      <trkpt lat="46.18359" lon="6.05276">
        <ele>407.9</ele>
        <time>2022-09-27T13:59:19Z</time>
      </trkpt>
      <trkpt lat="46.18357" lon="6.0528">
        <ele>408</ele>
        <time>2022-09-27T13:59:20Z</time>
      </trkpt>
      <trkpt lat="46.18355" lon="6.05285">
        <ele>408.1</ele>
        <time>2022-09-27T13:59:21Z</time>
      </trkpt>
      <trkpt lat="46.18353" lon="6.05289">
        <ele>408.2</ele>
        <time>2022-09-27T13:59:22Z</time>
      </trkpt>
      <trkpt lat="46.18352" lon="6.05293">
        <ele>408.2</ele>
        <time>2022-09-27T13:59:23Z</time>
      </trkpt>
      <trkpt lat="46.18349" lon="6.05299">
        <ele>408.3</ele>
        <time>2022-09-27T13:59:24Z</time>
      </trkpt>
      <trkpt lat="46.18348" lon="6.05302">
        <ele>408.4</ele>
        <time>2022-09-27T13:59:25Z</time>
      </trkpt>
      <trkpt lat="46.18347" lon="6.05307">
        <ele>408.4</ele>
        <time>2022-09-27T13:59:26Z</time>
      </trkpt>
      <trkpt lat="46.18344" lon="6.05312">
        <ele>408.4</ele>
        <time>2022-09-27T13:59:27Z</time>
      </trkpt>
      <trkpt lat="46.18343" lon="6.05314">
        <ele>408.5</ele>
        <time>2022-09-27T13:59:28Z</time>
      </trkpt>
      <trkpt lat="46.18342" lon="6.05319">
        <ele>408.5</ele>
        <time>2022-09-27T13:59:29Z</time>
      </trkpt>
      <trkpt lat="46.1834" lon="6.05323">
        <ele>408.5</ele>
        <time>2022-09-27T13:59:30Z</time>
      </trkpt>
      <trkpt lat="46.18338" lon="6.05327">
        <ele>408.5</ele>
        <time>2022-09-27T13:59:31Z</time>
      </trkpt>
      <trkpt lat="46.18337" lon="6.05331">
        <ele>408.5</ele>
        <time>2022-09-27T13:59:32Z</time>
      </trkpt>
      <trkpt lat="46.18335" lon="6.05336">
        <ele>408.5</ele>
        <time>2022-09-27T13:59:33Z</time>
      </trkpt>
      <trkpt lat="46.18334" lon="6.05339">
        <ele>408.5</ele>
        <time>2022-09-27T13:59:34Z</time>
      </trkpt>
      <trkpt lat="46.18332" lon="6.05345">
        <ele>408.4</ele>
        <time>2022-09-27T13:59:35Z</time>
      </trkpt>
      <trkpt lat="46.18331" lon="6.05347">
        <ele>408.4</ele>
        <time>2022-09-27T13:59:36Z</time>
      </trkpt>
      <trkpt lat="46.18329" lon="6.0535">
        <ele>408.4</ele>
        <time>2022-09-27T13:59:37Z</time>
      </trkpt>
      <trkpt lat="46.18326" lon="6.05354">
        <ele>408.4</ele>
        <time>2022-09-27T13:59:38Z</time>
      </trkpt>
      <trkpt lat="46.18324" lon="6.05359">
        <ele>408.3</ele>
        <time>2022-09-27T13:59:39Z</time>
      </trkpt>
      <trkpt lat="46.18321" lon="6.05363">
        <ele>408.3</ele>
        <time>2022-09-27T13:59:40Z</time>
      </trkpt>
      <trkpt lat="46.18318" lon="6.05367">
        <ele>408.3</ele>
        <time>2022-09-27T13:59:41Z</time>
      </trkpt>
      <trkpt lat="46.18316" lon="6.05371">
        <ele>408.2</ele>
        <time>2022-09-27T13:59:42Z</time>
      </trkpt>
      <trkpt lat="46.18314" lon="6.05375">
        <ele>408.2</ele>
        <time>2022-09-27T13:59:43Z</time>
      </trkpt>
      <trkpt lat="46.18311" lon="6.05379">
        <ele>408.2</ele>
        <time>2022-09-27T13:59:44Z</time>
      </trkpt>
      <trkpt lat="46.18308" lon="6.05384">
        <ele>408.1</ele>
        <time>2022-09-27T13:59:45Z</time>
      </trkpt>
      <trkpt lat="46.18306" lon="6.05389">
        <ele>408.1</ele>
        <time>2022-09-27T13:59:46Z</time>
      </trkpt>
      <trkpt lat="46.18303" lon="6.05394">
        <ele>408</ele>
        <time>2022-09-27T13:59:47Z</time>
      </trkpt>
      <trkpt lat="46.18301" lon="6.05398">
        <ele>408</ele>
        <time>2022-09-27T13:59:48Z</time>
      </trkpt>
      <trkpt lat="46.18298" lon="6.05403">
        <ele>407.9</ele>
        <time>2022-09-27T13:59:49Z</time>
      </trkpt>
      <trkpt lat="46.18295" lon="6.05407">
        <ele>407.9</ele>
        <time>2022-09-27T13:59:50Z</time>
      </trkpt>
      <trkpt lat="46.18293" lon="6.05411">
        <ele>407.9</ele>
        <time>2022-09-27T13:59:51Z</time>
      </trkpt>
      <trkpt lat="46.1829" lon="6.05416">
        <ele>407.9</ele>
        <time>2022-09-27T13:59:52Z</time>
      </trkpt>
      <trkpt lat="46.18288" lon="6.0542">
        <ele>407.8</ele>
        <time>2022-09-27T13:59:53Z</time>
      </trkpt>
      <trkpt lat="46.18285" lon="6.05423">
        <ele>407.8</ele>
        <time>2022-09-27T13:59:54Z</time>
      </trkpt>
      <trkpt lat="46.18281" lon="6.05429">
        <ele>407.8</ele>
        <time>2022-09-27T13:59:55Z</time>
      </trkpt>
      <trkpt lat="46.18277" lon="6.05435">
        <ele>407.8</ele>
        <time>2022-09-27T13:59:56Z</time>
      </trkpt>
      <trkpt lat="46.18275" lon="6.05438">
        <ele>407.8</ele>
        <time>2022-09-27T13:59:57Z</time>
      </trkpt>
      <trkpt lat="46.18272" lon="6.05442">
        <ele>407.8</ele>
        <time>2022-09-27T13:59:58Z</time>
      </trkpt>
      <trkpt lat="46.18269" lon="6.05447">
        <ele>407.8</ele>
        <time>2022-09-27T13:59:59Z</time>
      </trkpt>
      <trkpt lat="46.18267" lon="6.0545">
        <ele>407.8</ele>
        <time>2022-09-27T14:00:00Z</time>
      </trkpt>
      <trkpt lat="46.18264" lon="6.05454">
        <ele>407.8</ele>
        <time>2022-09-27T14:00:01Z</time>
      </trkpt>
      <trkpt lat="46.18262" lon="6.05459">
        <ele>407.8</ele>
        <time>2022-09-27T14:00:02Z</time>
      </trkpt>
      <trkpt lat="46.1826" lon="6.05464">
        <ele>407.8</ele>
        <time>2022-09-27T14:00:03Z</time>
      </trkpt>
      <trkpt lat="46.18257" lon="6.05467">
        <ele>407.7</ele>
        <time>2022-09-27T14:00:04Z</time>
      </trkpt>
      <trkpt lat="46.18255" lon="6.0547">
        <ele>407.7</ele>
        <time>2022-09-27T14:00:05Z</time>
      </trkpt>
      <trkpt lat="46.1825" lon="6.05475">
        <ele>407.7</ele>
        <time>2022-09-27T14:00:06Z</time>
      </trkpt>
      <trkpt lat="46.18247" lon="6.05479">
        <ele>407.7</ele>
        <time>2022-09-27T14:00:07Z</time>
      </trkpt>
      <trkpt lat="46.18243" lon="6.05484">
        <ele>407.7</ele>
        <time>2022-09-27T14:00:08Z</time>
      </trkpt>
      <trkpt lat="46.18241" lon="6.05489">
        <ele>407.7</ele>
        <time>2022-09-27T14:00:09Z</time>
      </trkpt>
      <trkpt lat="46.18237" lon="6.05494">
        <ele>407.7</ele>
        <time>2022-09-27T14:00:10Z</time>
      </trkpt>
      <trkpt lat="46.18235" lon="6.05497">
        <ele>407.7</ele>
        <time>2022-09-27T14:00:11Z</time>
      </trkpt>
      <trkpt lat="46.18232" lon="6.055">
        <ele>407.7</ele>
        <time>2022-09-27T14:00:12Z</time>
      </trkpt>
      <trkpt lat="46.18229" lon="6.05504">
        <ele>407.7</ele>
        <time>2022-09-27T14:00:13Z</time>
      </trkpt>
      <trkpt lat="46.18226" lon="6.05509">
        <ele>407.7</ele>
        <time>2022-09-27T14:00:14Z</time>
      </trkpt>
      <trkpt lat="46.18223" lon="6.05512">
        <ele>407.7</ele>
        <time>2022-09-27T14:00:15Z</time>
      </trkpt>
      <trkpt lat="46.18219" lon="6.05516">
        <ele>407.7</ele>
        <time>2022-09-27T14:00:16Z</time>
      </trkpt>
      <trkpt lat="46.18217" lon="6.0552">
        <ele>407.7</ele>
        <time>2022-09-27T14:00:17Z</time>
      </trkpt>
      <trkpt lat="46.18213" lon="6.05525">
        <ele>407.6</ele>
        <time>2022-09-27T14:00:18Z</time>
      </trkpt>
      <trkpt lat="46.1821" lon="6.0553">
        <ele>407.6</ele>
        <time>2022-09-27T14:00:19Z</time>
      </trkpt>
      <trkpt lat="46.18207" lon="6.05535">
        <ele>407.5</ele>
        <time>2022-09-27T14:00:20Z</time>
      </trkpt>
      <trkpt lat="46.18203" lon="6.05541">
        <ele>407.4</ele>
        <time>2022-09-27T14:00:21Z</time>
      </trkpt>
      <trkpt lat="46.18199" lon="6.05546">
        <ele>407.4</ele>
        <time>2022-09-27T14:00:22Z</time>
      </trkpt>
      <trkpt lat="46.18196" lon="6.05553">
        <ele>407.3</ele>
        <time>2022-09-27T14:00:23Z</time>
      </trkpt>
      <trkpt lat="46.18193" lon="6.05557">
        <ele>407.3</ele>
        <time>2022-09-27T14:00:24Z</time>
      </trkpt>
      <trkpt lat="46.1819" lon="6.05563">
        <ele>407.2</ele>
        <time>2022-09-27T14:00:25Z</time>
      </trkpt>
      <trkpt lat="46.18187" lon="6.05569">
        <ele>407.2</ele>
        <time>2022-09-27T14:00:26Z</time>
      </trkpt>
      <trkpt lat="46.18185" lon="6.05574">
        <ele>407.2</ele>
        <time>2022-09-27T14:00:27Z</time>
      </trkpt>
      <trkpt lat="46.18182" lon="6.0558">
        <ele>407.1</ele>
        <time>2022-09-27T14:00:28Z</time>
      </trkpt>
      <trkpt lat="46.18179" lon="6.05585">
        <ele>407.1</ele>
        <time>2022-09-27T14:00:29Z</time>
      </trkpt>
      <trkpt lat="46.18176" lon="6.05591">
        <ele>407.1</ele>
        <time>2022-09-27T14:00:30Z</time>
      </trkpt>
      <trkpt lat="46.18174" lon="6.05597">
        <ele>407.1</ele>
        <time>2022-09-27T14:00:31Z</time>
      </trkpt>
      <trkpt lat="46.1817" lon="6.05602">
        <ele>407.2</ele>
        <time>2022-09-27T14:00:32Z</time>
      </trkpt>
      <trkpt lat="46.18167" lon="6.05607">
        <ele>407.2</ele>
        <time>2022-09-27T14:00:33Z</time>
      </trkpt>
      <trkpt lat="46.18164" lon="6.05612">
        <ele>407.2</ele>
        <time>2022-09-27T14:00:34Z</time>
      </trkpt>
      <trkpt lat="46.18162" lon="6.05617">
        <ele>407.2</ele>
        <time>2022-09-27T14:00:35Z</time>
      </trkpt>
      <trkpt lat="46.18159" lon="6.05622">
        <ele>407.3</ele>
        <time>2022-09-27T14:00:36Z</time>
      </trkpt>
      <trkpt lat="46.18155" lon="6.05627">
        <ele>407.3</ele>
        <time>2022-09-27T14:00:37Z</time>
      </trkpt>
      <trkpt lat="46.18153" lon="6.05633">
        <ele>407.4</ele>
        <time>2022-09-27T14:00:38Z</time>
      </trkpt>
      <trkpt lat="46.18147" lon="6.05644">
        <ele>407.6</ele>
        <time>2022-09-27T14:00:39Z</time>
      </trkpt>
      <trkpt lat="46.18144" lon="6.05649">
        <ele>407.6</ele>
        <time>2022-09-27T14:00:40Z</time>
      </trkpt>
      <trkpt lat="46.18141" lon="6.05654">
        <ele>407.7</ele>
        <time>2022-09-27T14:00:41Z</time>
      </trkpt>
      <trkpt lat="46.18139" lon="6.0566">
        <ele>407.8</ele>
        <time>2022-09-27T14:00:42Z</time>
      </trkpt>
      <trkpt lat="46.18137" lon="6.05665">
        <ele>407.9</ele>
        <time>2022-09-27T14:00:43Z</time>
      </trkpt>
      <trkpt lat="46.18135" lon="6.0567">
        <ele>408</ele>
        <time>2022-09-27T14:00:44Z</time>
      </trkpt>
      <trkpt lat="46.18134" lon="6.05676">
        <ele>408</ele>
        <time>2022-09-27T14:00:45Z</time>
      </trkpt>
      <trkpt lat="46.18132" lon="6.05681">
        <ele>408.1</ele>
        <time>2022-09-27T14:00:46Z</time>
      </trkpt>
      <trkpt lat="46.18131" lon="6.05686">
        <ele>408.2</ele>
        <time>2022-09-27T14:00:47Z</time>
      </trkpt>
      <trkpt lat="46.18129" lon="6.05691">
        <ele>408.3</ele>
        <time>2022-09-27T14:00:48Z</time>
      </trkpt>
      <trkpt lat="46.18128" lon="6.05696">
        <ele>408.3</ele>
        <time>2022-09-27T14:00:49Z</time>
      </trkpt>
      <trkpt lat="46.18127" lon="6.05701">
        <ele>408.4</ele>
        <time>2022-09-27T14:00:50Z</time>
      </trkpt>
      <trkpt lat="46.18125" lon="6.05706">
        <ele>408.5</ele>
        <time>2022-09-27T14:00:51Z</time>
      </trkpt>
      <trkpt lat="46.18124" lon="6.0571">
        <ele>408.5</ele>
        <time>2022-09-27T14:00:52Z</time>
      </trkpt>
      <trkpt lat="46.18123" lon="6.05715">
        <ele>408.6</ele>
        <time>2022-09-27T14:00:53Z</time>
      </trkpt>
      <trkpt lat="46.18122" lon="6.0572">
        <ele>408.7</ele>
        <time>2022-09-27T14:00:54Z</time>
      </trkpt>
      <trkpt lat="46.1812" lon="6.05724">
        <ele>408.8</ele>
        <time>2022-09-27T14:00:55Z</time>
      </trkpt>
      <trkpt lat="46.18119" lon="6.05729">
        <ele>408.8</ele>
        <time>2022-09-27T14:00:56Z</time>
      </trkpt>
      <trkpt lat="46.18117" lon="6.05734">
        <ele>408.9</ele>
        <time>2022-09-27T14:00:57Z</time>
      </trkpt>
      <trkpt lat="46.18116" lon="6.05738">
        <ele>409</ele>
        <time>2022-09-27T14:00:58Z</time>
      </trkpt>
      <trkpt lat="46.18116" lon="6.05742">
        <ele>409.1</ele>
        <time>2022-09-27T14:00:59Z</time>
      </trkpt>
      <trkpt lat="46.18115" lon="6.05747">
        <ele>409.2</ele>
        <time>2022-09-27T14:01:00Z</time>
      </trkpt>
      <trkpt lat="46.18115" lon="6.05749">
        <ele>409.2</ele>
        <time>2022-09-27T14:01:01Z</time>
      </trkpt>
      <trkpt lat="46.18113" lon="6.05754">
        <ele>409.4</ele>
        <time>2022-09-27T14:01:02Z</time>
      </trkpt>
      <trkpt lat="46.18112" lon="6.05759">
        <ele>409.5</ele>
        <time>2022-09-27T14:01:03Z</time>
      </trkpt>
      <trkpt lat="46.18111" lon="6.05763">
        <ele>409.5</ele>
        <time>2022-09-27T14:01:04Z</time>
      </trkpt>
      <trkpt lat="46.1811" lon="6.05768">
        <ele>409.6</ele>
        <time>2022-09-27T14:01:05Z</time>
      </trkpt>
      <trkpt lat="46.18109" lon="6.05772">
        <ele>409.6</ele>
        <time>2022-09-27T14:01:06Z</time>
      </trkpt>
      <trkpt lat="46.18107" lon="6.05776">
        <ele>409.7</ele>
        <time>2022-09-27T14:01:07Z</time>
      </trkpt>
      <trkpt lat="46.18106" lon="6.0578">
        <ele>409.8</ele>
        <time>2022-09-27T14:01:08Z</time>
      </trkpt>
      <trkpt lat="46.18105" lon="6.05786">
        <ele>409.8</ele>
        <time>2022-09-27T14:01:09Z</time>
      </trkpt>
      <trkpt lat="46.18103" lon="6.05792">
        <ele>409.9</ele>
        <time>2022-09-27T14:01:10Z</time>
      </trkpt>
      <trkpt lat="46.18103" lon="6.05797">
        <ele>410</ele>
        <time>2022-09-27T14:01:11Z</time>
      </trkpt>
      <trkpt lat="46.18102" lon="6.05802">
        <ele>410</ele>
        <time>2022-09-27T14:01:12Z</time>
      </trkpt>
      <trkpt lat="46.181" lon="6.05807">
        <ele>410.1</ele>
        <time>2022-09-27T14:01:13Z</time>
      </trkpt>
      <trkpt lat="46.18098" lon="6.05811">
        <ele>410.1</ele>
        <time>2022-09-27T14:01:14Z</time>
      </trkpt>
      <trkpt lat="46.18097" lon="6.05816">
        <ele>410.2</ele>
        <time>2022-09-27T14:01:15Z</time>
      </trkpt>
      <trkpt lat="46.18095" lon="6.0582">
        <ele>410.2</ele>
        <time>2022-09-27T14:01:16Z</time>
      </trkpt>
      <trkpt lat="46.18094" lon="6.05825">
        <ele>410.3</ele>
        <time>2022-09-27T14:01:17Z</time>
      </trkpt>
      <trkpt lat="46.18093" lon="6.0583">
        <ele>410.4</ele>
        <time>2022-09-27T14:01:18Z</time>
      </trkpt>
      <trkpt lat="46.18091" lon="6.05835">
        <ele>410.4</ele>
        <time>2022-09-27T14:01:20Z</time>
      </trkpt>
      <trkpt lat="46.1809" lon="6.0584">
        <ele>410.5</ele>
        <time>2022-09-27T14:01:21Z</time>
      </trkpt>
      <trkpt lat="46.18089" lon="6.05844">
        <ele>410.5</ele>
        <time>2022-09-27T14:01:22Z</time>
      </trkpt>
      <trkpt lat="46.18087" lon="6.0585">
        <ele>410.6</ele>
        <time>2022-09-27T14:01:23Z</time>
      </trkpt>
      <trkpt lat="46.18086" lon="6.05854">
        <ele>410.7</ele>
        <time>2022-09-27T14:01:24Z</time>
      </trkpt>
      <trkpt lat="46.18085" lon="6.05858">
        <ele>410.7</ele>
        <time>2022-09-27T14:01:25Z</time>
      </trkpt>
      <trkpt lat="46.18084" lon="6.05863">
        <ele>410.8</ele>
        <time>2022-09-27T14:01:26Z</time>
      </trkpt>
      <trkpt lat="46.18082" lon="6.05867">
        <ele>410.9</ele>
        <time>2022-09-27T14:01:27Z</time>
      </trkpt>
      <trkpt lat="46.18081" lon="6.05871">
        <ele>411</ele>
        <time>2022-09-27T14:01:28Z</time>
      </trkpt>
      <trkpt lat="46.18079" lon="6.05876">
        <ele>411.1</ele>
        <time>2022-09-27T14:01:29Z</time>
      </trkpt>
      <trkpt lat="46.18078" lon="6.0588">
        <ele>411.2</ele>
        <time>2022-09-27T14:01:30Z</time>
      </trkpt>
      <trkpt lat="46.18077" lon="6.05883">
        <ele>411.3</ele>
        <time>2022-09-27T14:01:31Z</time>
      </trkpt>
      <trkpt lat="46.18076" lon="6.05887">
        <ele>411.4</ele>
        <time>2022-09-27T14:01:32Z</time>
      </trkpt>
      <trkpt lat="46.18076" lon="6.05891">
        <ele>411.5</ele>
        <time>2022-09-27T14:01:33Z</time>
      </trkpt>
      <trkpt lat="46.18074" lon="6.05897">
        <ele>411.7</ele>
        <time>2022-09-27T14:01:34Z</time>
      </trkpt>
      <trkpt lat="46.18073" lon="6.05899">
        <ele>411.7</ele>
        <time>2022-09-27T14:01:35Z</time>
      </trkpt>
      <trkpt lat="46.18072" lon="6.05903">
        <ele>411.8</ele>
        <time>2022-09-27T14:01:36Z</time>
      </trkpt>
      <trkpt lat="46.18071" lon="6.05906">
        <ele>411.9</ele>
        <time>2022-09-27T14:01:37Z</time>
      </trkpt>
      <trkpt lat="46.18069" lon="6.05911">
        <ele>412.1</ele>
        <time>2022-09-27T14:01:38Z</time>
      </trkpt>
      <trkpt lat="46.18068" lon="6.05915">
        <ele>412.2</ele>
        <time>2022-09-27T14:01:39Z</time>
      </trkpt>
      <trkpt lat="46.18067" lon="6.05918">
        <ele>412.3</ele>
        <time>2022-09-27T14:01:40Z</time>
      </trkpt>
      <trkpt lat="46.18066" lon="6.05922">
        <ele>412.4</ele>
        <time>2022-09-27T14:01:41Z</time>
      </trkpt>
      <trkpt lat="46.18064" lon="6.05927">
        <ele>412.5</ele>
        <time>2022-09-27T14:01:42Z</time>
      </trkpt>
      <trkpt lat="46.18064" lon="6.05929">
        <ele>412.6</ele>
        <time>2022-09-27T14:01:43Z</time>
      </trkpt>
      <trkpt lat="46.18062" lon="6.05934">
        <ele>412.7</ele>
        <time>2022-09-27T14:01:44Z</time>
      </trkpt>
      <trkpt lat="46.18062" lon="6.05935">
        <ele>412.8</ele>
        <time>2022-09-27T14:01:45Z</time>
      </trkpt>
      <trkpt lat="46.18061" lon="6.05941">
        <ele>412.9</ele>
        <time>2022-09-27T14:01:46Z</time>
      </trkpt>
      <trkpt lat="46.1806" lon="6.05942">
        <ele>413</ele>
        <time>2022-09-27T14:01:47Z</time>
      </trkpt>
      <trkpt lat="46.18059" lon="6.05947">
        <ele>413.1</ele>
        <time>2022-09-27T14:01:48Z</time>
      </trkpt>
      <trkpt lat="46.18058" lon="6.05949">
        <ele>413.2</ele>
        <time>2022-09-27T14:01:49Z</time>
      </trkpt>
      <trkpt lat="46.18057" lon="6.05954">
        <ele>413.3</ele>
        <time>2022-09-27T14:01:50Z</time>
      </trkpt>
      <trkpt lat="46.18056" lon="6.05956">
        <ele>413.4</ele>
        <time>2022-09-27T14:01:51Z</time>
      </trkpt>
      <trkpt lat="46.18055" lon="6.05959">
        <ele>413.5</ele>
        <time>2022-09-27T14:01:52Z</time>
      </trkpt>
      <trkpt lat="46.18054" lon="6.05963">
        <ele>413.6</ele>
        <time>2022-09-27T14:01:53Z</time>
      </trkpt>
      <trkpt lat="46.18052" lon="6.05968">
        <ele>413.8</ele>
        <time>2022-09-27T14:01:54Z</time>
      </trkpt>
      <trkpt lat="46.18052" lon="6.0597">
        <ele>413.8</ele>
        <time>2022-09-27T14:01:55Z</time>
      </trkpt>
      <trkpt lat="46.18051" lon="6.05974">
        <ele>413.9</ele>
        <time>2022-09-27T14:01:56Z</time>
      </trkpt>
      <trkpt lat="46.1805" lon="6.05978">
        <ele>414</ele>
        <time>2022-09-27T14:01:57Z</time>
      </trkpt>
      <trkpt lat="46.18049" lon="6.05981">
        <ele>414.1</ele>
        <time>2022-09-27T14:01:58Z</time>
      </trkpt>
      <trkpt lat="46.18048" lon="6.05985">
        <ele>414.2</ele>
        <time>2022-09-27T14:01:59Z</time>
      </trkpt>
      <trkpt lat="46.18046" lon="6.05989">
        <ele>414.3</ele>
        <time>2022-09-27T14:02:00Z</time>
      </trkpt>
      <trkpt lat="46.18045" lon="6.05993">
        <ele>414.4</ele>
        <time>2022-09-27T14:02:01Z</time>
      </trkpt>
      <trkpt lat="46.18044" lon="6.05997">
        <ele>414.5</ele>
        <time>2022-09-27T14:02:02Z</time>
      </trkpt>
      <trkpt lat="46.18043" lon="6.06001">
        <ele>414.6</ele>
        <time>2022-09-27T14:02:03Z</time>
      </trkpt>
      <trkpt lat="46.18042" lon="6.06005">
        <ele>414.7</ele>
        <time>2022-09-27T14:02:04Z</time>
      </trkpt>
      <trkpt lat="46.18041" lon="6.06009">
        <ele>414.8</ele>
        <time>2022-09-27T14:02:05Z</time>
      </trkpt>
      <trkpt lat="46.1804" lon="6.06013">
        <ele>414.9</ele>
        <time>2022-09-27T14:02:06Z</time>
      </trkpt>
      <trkpt lat="46.18039" lon="6.06017">
        <ele>415</ele>
        <time>2022-09-27T14:02:07Z</time>
      </trkpt>
      <trkpt lat="46.18037" lon="6.06022">
        <ele>415.1</ele>
        <time>2022-09-27T14:02:08Z</time>
      </trkpt>
      <trkpt lat="46.18037" lon="6.06024">
        <ele>415.1</ele>
        <time>2022-09-27T14:02:09Z</time>
      </trkpt>
      <trkpt lat="46.18036" lon="6.06029">
        <ele>415.2</ele>
        <time>2022-09-27T14:02:10Z</time>
      </trkpt>
      <trkpt lat="46.18035" lon="6.06032">
        <ele>415.3</ele>
        <time>2022-09-27T14:02:11Z</time>
      </trkpt>
      <trkpt lat="46.18034" lon="6.06036">
        <ele>415.4</ele>
        <time>2022-09-27T14:02:12Z</time>
      </trkpt>
      <trkpt lat="46.18033" lon="6.0604">
        <ele>415.4</ele>
        <time>2022-09-27T14:02:13Z</time>
      </trkpt>
      <trkpt lat="46.18032" lon="6.06044">
        <ele>415.5</ele>
        <time>2022-09-27T14:02:14Z</time>
      </trkpt>
      <trkpt lat="46.1803" lon="6.0605">
        <ele>415.6</ele>
        <time>2022-09-27T14:02:15Z</time>
      </trkpt>
      <trkpt lat="46.1803" lon="6.06052">
        <ele>415.6</ele>
        <time>2022-09-27T14:02:16Z</time>
      </trkpt>
      <trkpt lat="46.18029" lon="6.06056">
        <ele>415.7</ele>
        <time>2022-09-27T14:02:17Z</time>
      </trkpt>
      <trkpt lat="46.18028" lon="6.06059">
        <ele>415.7</ele>
        <time>2022-09-27T14:02:18Z</time>
      </trkpt>
      <trkpt lat="46.18026" lon="6.06065">
        <ele>415.8</ele>
        <time>2022-09-27T14:02:19Z</time>
      </trkpt>
      <trkpt lat="46.18026" lon="6.06067">
        <ele>415.8</ele>
        <time>2022-09-27T14:02:20Z</time>
      </trkpt>
      <trkpt lat="46.18024" lon="6.0607">
        <ele>415.9</ele>
        <time>2022-09-27T14:02:21Z</time>
      </trkpt>
      <trkpt lat="46.18023" lon="6.06074">
        <ele>416</ele>
        <time>2022-09-27T14:02:22Z</time>
      </trkpt>
      <trkpt lat="46.18022" lon="6.06079">
        <ele>416</ele>
        <time>2022-09-27T14:02:23Z</time>
      </trkpt>
      <trkpt lat="46.18021" lon="6.06084">
        <ele>416.1</ele>
        <time>2022-09-27T14:02:24Z</time>
      </trkpt>
      <trkpt lat="46.18021" lon="6.06086">
        <ele>416.1</ele>
        <time>2022-09-27T14:02:25Z</time>
      </trkpt>
      <trkpt lat="46.18019" lon="6.06091">
        <ele>416.2</ele>
        <time>2022-09-27T14:02:26Z</time>
      </trkpt>
      <trkpt lat="46.18019" lon="6.06093">
        <ele>416.2</ele>
        <time>2022-09-27T14:02:27Z</time>
      </trkpt>
      <trkpt lat="46.18017" lon="6.06098">
        <ele>416.3</ele>
        <time>2022-09-27T14:02:28Z</time>
      </trkpt>
      <trkpt lat="46.18017" lon="6.061">
        <ele>416.3</ele>
        <time>2022-09-27T14:02:29Z</time>
      </trkpt>
      <trkpt lat="46.18016" lon="6.06104">
        <ele>416.4</ele>
        <time>2022-09-27T14:02:30Z</time>
      </trkpt>
      <trkpt lat="46.18015" lon="6.06108">
        <ele>416.4</ele>
        <time>2022-09-27T14:02:31Z</time>
      </trkpt>
      <trkpt lat="46.18013" lon="6.06112">
        <ele>416.5</ele>
        <time>2022-09-27T14:02:32Z</time>
      </trkpt>
      <trkpt lat="46.18011" lon="6.0612">
        <ele>416.6</ele>
        <time>2022-09-27T14:02:33Z</time>
      </trkpt>
      <trkpt lat="46.1801" lon="6.06124">
        <ele>416.6</ele>
        <time>2022-09-27T14:02:34Z</time>
      </trkpt>
      <trkpt lat="46.18008" lon="6.06128">
        <ele>416.6</ele>
        <time>2022-09-27T14:02:35Z</time>
      </trkpt>
      <trkpt lat="46.18007" lon="6.06133">
        <ele>416.6</ele>
        <time>2022-09-27T14:02:36Z</time>
      </trkpt>
      <trkpt lat="46.18006" lon="6.06137">
        <ele>416.7</ele>
        <time>2022-09-27T14:02:37Z</time>
      </trkpt>
      <trkpt lat="46.18004" lon="6.06142">
        <ele>416.7</ele>
        <time>2022-09-27T14:02:38Z</time>
      </trkpt>
      <trkpt lat="46.18003" lon="6.06146">
        <ele>416.7</ele>
        <time>2022-09-27T14:02:39Z</time>
      </trkpt>
      <trkpt lat="46.18002" lon="6.06151">
        <ele>416.7</ele>
        <time>2022-09-27T14:02:40Z</time>
      </trkpt>
      <trkpt lat="46.18" lon="6.06156">
        <ele>416.7</ele>
        <time>2022-09-27T14:02:41Z</time>
      </trkpt>
      <trkpt lat="46.17999" lon="6.06161">
        <ele>416.8</ele>
        <time>2022-09-27T14:02:42Z</time>
      </trkpt>
      <trkpt lat="46.17998" lon="6.06166">
        <ele>416.8</ele>
        <time>2022-09-27T14:02:43Z</time>
      </trkpt>
      <trkpt lat="46.17996" lon="6.06171">
        <ele>416.8</ele>
        <time>2022-09-27T14:02:44Z</time>
      </trkpt>
      <trkpt lat="46.17995" lon="6.06176">
        <ele>416.8</ele>
        <time>2022-09-27T14:02:45Z</time>
      </trkpt>
      <trkpt lat="46.17993" lon="6.06181">
        <ele>416.9</ele>
        <time>2022-09-27T14:02:46Z</time>
      </trkpt>
      <trkpt lat="46.17992" lon="6.06186">
        <ele>416.9</ele>
        <time>2022-09-27T14:02:47Z</time>
      </trkpt>
      <trkpt lat="46.1799" lon="6.06191">
        <ele>416.9</ele>
        <time>2022-09-27T14:02:48Z</time>
      </trkpt>
      <trkpt lat="46.17989" lon="6.06197">
        <ele>416.9</ele>
        <time>2022-09-27T14:02:49Z</time>
      </trkpt>
      <trkpt lat="46.17988" lon="6.06202">
        <ele>416.9</ele>
        <time>2022-09-27T14:02:50Z</time>
      </trkpt>
      <trkpt lat="46.17986" lon="6.06207">
        <ele>417</ele>
        <time>2022-09-27T14:02:51Z</time>
      </trkpt>
      <trkpt lat="46.17985" lon="6.06212">
        <ele>417</ele>
        <time>2022-09-27T14:02:52Z</time>
      </trkpt>
      <trkpt lat="46.17983" lon="6.06217">
        <ele>417</ele>
        <time>2022-09-27T14:02:53Z</time>
      </trkpt>
      <trkpt lat="46.17982" lon="6.06222">
        <ele>417</ele>
        <time>2022-09-27T14:02:54Z</time>
      </trkpt>
      <trkpt lat="46.1798" lon="6.06227">
        <ele>417</ele>
        <time>2022-09-27T14:02:55Z</time>
      </trkpt>
      <trkpt lat="46.17979" lon="6.06233">
        <ele>417</ele>
        <time>2022-09-27T14:02:56Z</time>
      </trkpt>
      <trkpt lat="46.17977" lon="6.06238">
        <ele>417.1</ele>
        <time>2022-09-27T14:02:57Z</time>
      </trkpt>
      <trkpt lat="46.17976" lon="6.06242">
        <ele>417.1</ele>
        <time>2022-09-27T14:02:58Z</time>
      </trkpt>
      <trkpt lat="46.17975" lon="6.06247">
        <ele>417.1</ele>
        <time>2022-09-27T14:02:59Z</time>
      </trkpt>
      <trkpt lat="46.17974" lon="6.06252">
        <ele>417.1</ele>
        <time>2022-09-27T14:03:00Z</time>
      </trkpt>
      <trkpt lat="46.17972" lon="6.06257">
        <ele>417.1</ele>
        <time>2022-09-27T14:03:01Z</time>
      </trkpt>
      <trkpt lat="46.17971" lon="6.06263">
        <ele>417.1</ele>
        <time>2022-09-27T14:03:02Z</time>
      </trkpt>
      <trkpt lat="46.1797" lon="6.06268">
        <ele>417.2</ele>
        <time>2022-09-27T14:03:03Z</time>
      </trkpt>
      <trkpt lat="46.17968" lon="6.06273">
        <ele>417.2</ele>
        <time>2022-09-27T14:03:04Z</time>
      </trkpt>
      <trkpt lat="46.17967" lon="6.06278">
        <ele>417.2</ele>
        <time>2022-09-27T14:03:05Z</time>
      </trkpt>
      <trkpt lat="46.17965" lon="6.06283">
        <ele>417.2</ele>
        <time>2022-09-27T14:03:06Z</time>
      </trkpt>
      <trkpt lat="46.17964" lon="6.06288">
        <ele>417.3</ele>
        <time>2022-09-27T14:03:07Z</time>
      </trkpt>
      <trkpt lat="46.17963" lon="6.06293">
        <ele>417.3</ele>
        <time>2022-09-27T14:03:08Z</time>
      </trkpt>
      <trkpt lat="46.17961" lon="6.06297">
        <ele>417.3</ele>
        <time>2022-09-27T14:03:09Z</time>
      </trkpt>
      <trkpt lat="46.1796" lon="6.06302">
        <ele>417.3</ele>
        <time>2022-09-27T14:03:10Z</time>
      </trkpt>
      <trkpt lat="46.17959" lon="6.06307">
        <ele>417.4</ele>
        <time>2022-09-27T14:03:11Z</time>
      </trkpt>
      <trkpt lat="46.17958" lon="6.06311">
        <ele>417.4</ele>
        <time>2022-09-27T14:03:12Z</time>
      </trkpt>
      <trkpt lat="46.17956" lon="6.06316">
        <ele>417.5</ele>
        <time>2022-09-27T14:03:13Z</time>
      </trkpt>
      <trkpt lat="46.17955" lon="6.06321">
        <ele>417.5</ele>
        <time>2022-09-27T14:03:14Z</time>
      </trkpt>
      <trkpt lat="46.17954" lon="6.06325">
        <ele>417.5</ele>
        <time>2022-09-27T14:03:15Z</time>
      </trkpt>
      <trkpt lat="46.17952" lon="6.0633">
        <ele>417.6</ele>
        <time>2022-09-27T14:03:16Z</time>
      </trkpt>
      <trkpt lat="46.17951" lon="6.06334">
        <ele>417.6</ele>
        <time>2022-09-27T14:03:17Z</time>
      </trkpt>
      <trkpt lat="46.1795" lon="6.06339">
        <ele>417.7</ele>
        <time>2022-09-27T14:03:18Z</time>
      </trkpt>
      <trkpt lat="46.17948" lon="6.06344">
        <ele>417.7</ele>
        <time>2022-09-27T14:03:19Z</time>
      </trkpt>
      <trkpt lat="46.17947" lon="6.06348">
        <ele>417.8</ele>
        <time>2022-09-27T14:03:20Z</time>
      </trkpt>
      <trkpt lat="46.17946" lon="6.06352">
        <ele>417.8</ele>
        <time>2022-09-27T14:03:21Z</time>
      </trkpt>
      <trkpt lat="46.17945" lon="6.06356">
        <ele>417.9</ele>
        <time>2022-09-27T14:03:22Z</time>
      </trkpt>
      <trkpt lat="46.17944" lon="6.0636">
        <ele>417.9</ele>
        <time>2022-09-27T14:03:23Z</time>
      </trkpt>
      <trkpt lat="46.17943" lon="6.06364">
        <ele>418</ele>
        <time>2022-09-27T14:03:24Z</time>
      </trkpt>
      <trkpt lat="46.17942" lon="6.0637">
        <ele>418</ele>
        <time>2022-09-27T14:03:26Z</time>
      </trkpt>
      <trkpt lat="46.17941" lon="6.06372">
        <ele>418.1</ele>
        <time>2022-09-27T14:03:27Z</time>
      </trkpt>
      <trkpt lat="46.1794" lon="6.06376">
        <ele>418.1</ele>
        <time>2022-09-27T14:03:28Z</time>
      </trkpt>
      <trkpt lat="46.17939" lon="6.0638">
        <ele>418.2</ele>
        <time>2022-09-27T14:03:29Z</time>
      </trkpt>
      <trkpt lat="46.17938" lon="6.06384">
        <ele>418.2</ele>
        <time>2022-09-27T14:03:30Z</time>
      </trkpt>
      <trkpt lat="46.17937" lon="6.06388">
        <ele>418.3</ele>
        <time>2022-09-27T14:03:31Z</time>
      </trkpt>
      <trkpt lat="46.17936" lon="6.06392">
        <ele>418.4</ele>
        <time>2022-09-27T14:03:32Z</time>
      </trkpt>
      <trkpt lat="46.17935" lon="6.06397">
        <ele>418.5</ele>
        <time>2022-09-27T14:03:33Z</time>
      </trkpt>
      <trkpt lat="46.17934" lon="6.06399">
        <ele>418.5</ele>
        <time>2022-09-27T14:03:34Z</time>
      </trkpt>
      <trkpt lat="46.17933" lon="6.06404">
        <ele>418.6</ele>
        <time>2022-09-27T14:03:35Z</time>
      </trkpt>
      <trkpt lat="46.17933" lon="6.06406">
        <ele>418.6</ele>
        <time>2022-09-27T14:03:36Z</time>
      </trkpt>
      <trkpt lat="46.17931" lon="6.06409">
        <ele>418.7</ele>
        <time>2022-09-27T14:03:37Z</time>
      </trkpt>
      <trkpt lat="46.1793" lon="6.0641">
        <ele>418.7</ele>
        <time>2022-09-27T14:03:38Z</time>
      </trkpt>
      <trkpt lat="46.17929" lon="6.06412">
        <ele>418.8</ele>
        <time>2022-09-27T14:03:39Z</time>
      </trkpt>
      <trkpt lat="46.17929" lon="6.06414">
        <ele>418.8</ele>
        <time>2022-09-27T14:03:40Z</time>
      </trkpt>
      <trkpt lat="46.17929" lon="6.06415">
        <ele>418.8</ele>
        <time>2022-09-27T14:03:41Z</time>
      </trkpt>
      <trkpt lat="46.17928" lon="6.06416">
        <ele>418.8</ele>
        <time>2022-09-27T14:03:42Z</time>
      </trkpt>
      <trkpt lat="46.17927" lon="6.06417">
        <ele>418.9</ele>
        <time>2022-09-27T14:03:43Z</time>
      </trkpt>
      <trkpt lat="46.17927" lon="6.06417">
        <ele>418.9</ele>
        <time>2022-09-27T14:03:44Z</time>
      </trkpt>
      <trkpt lat="46.17927" lon="6.06416">
        <ele>418.9</ele>
        <time>2022-09-27T14:03:45Z</time>
      </trkpt>
      <trkpt lat="46.17927" lon="6.06416">
        <ele>418.9</ele>
        <time>2022-09-27T14:03:46Z</time>
      </trkpt>
      <trkpt lat="46.17927" lon="6.06416">
        <ele>418.9</ele>
        <time>2022-09-27T14:03:47Z</time>
      </trkpt>
      <trkpt lat="46.17927" lon="6.06416">
        <ele>418.9</ele>
        <time>2022-09-27T14:03:48Z</time>
      </trkpt>
      <trkpt lat="46.17927" lon="6.06416">
        <ele>418.9</ele>
        <time>2022-09-27T14:03:49Z</time>
      </trkpt>
      <trkpt lat="46.17926" lon="6.06417">
        <ele>418.9</ele>
        <time>2022-09-27T14:03:50Z</time>
      </trkpt>
      <trkpt lat="46.17926" lon="6.06417">
        <ele>418.9</ele>
        <time>2022-09-27T14:03:51Z</time>
      </trkpt>
      <trkpt lat="46.17925" lon="6.06423">
        <ele>419</ele>
        <time>2022-09-27T14:05:40Z</time>
      </trkpt>
      <trkpt lat="46.17924" lon="6.06425">
        <ele>419</ele>
        <time>2022-09-27T14:05:41Z</time>
      </trkpt>
      <trkpt lat="46.17923" lon="6.06427">
        <ele>419.1</ele>
        <time>2022-09-27T14:05:42Z</time>
      </trkpt>
      <trkpt lat="46.17923" lon="6.06428">
        <ele>419.1</ele>
        <time>2022-09-27T14:05:43Z</time>
      </trkpt>
      <trkpt lat="46.17922" lon="6.06431">
        <ele>419.1</ele>
        <time>2022-09-27T14:05:44Z</time>
      </trkpt>
      <trkpt lat="46.17919" lon="6.06435">
        <ele>419.2</ele>
        <time>2022-09-27T14:05:45Z</time>
      </trkpt>
      <trkpt lat="46.17919" lon="6.06436">
        <ele>419.3</ele>
        <time>2022-09-27T14:05:46Z</time>
      </trkpt>
      <trkpt lat="46.17917" lon="6.0644">
        <ele>419.3</ele>
        <time>2022-09-27T14:05:47Z</time>
      </trkpt>
      <trkpt lat="46.17916" lon="6.06441">
        <ele>419.4</ele>
        <time>2022-09-27T14:05:48Z</time>
      </trkpt>
      <trkpt lat="46.17915" lon="6.06446">
        <ele>419.5</ele>
        <time>2022-09-27T14:05:49Z</time>
      </trkpt>
      <trkpt lat="46.17914" lon="6.06447">
        <ele>419.5</ele>
        <time>2022-09-27T14:05:50Z</time>
      </trkpt>
      <trkpt lat="46.17912" lon="6.06452">
        <ele>419.6</ele>
        <time>2022-09-27T14:05:51Z</time>
      </trkpt>
      <trkpt lat="46.17912" lon="6.06453">
        <ele>419.6</ele>
        <time>2022-09-27T14:05:52Z</time>
      </trkpt>
      <trkpt lat="46.1791" lon="6.06458">
        <ele>419.7</ele>
        <time>2022-09-27T14:05:53Z</time>
      </trkpt>
      <trkpt lat="46.17909" lon="6.0646">
        <ele>419.8</ele>
        <time>2022-09-27T14:05:54Z</time>
      </trkpt>
      <trkpt lat="46.17907" lon="6.06464">
        <ele>419.9</ele>
        <time>2022-09-27T14:05:55Z</time>
      </trkpt>
      <trkpt lat="46.17905" lon="6.06469">
        <ele>420</ele>
        <time>2022-09-27T14:05:56Z</time>
      </trkpt>
      <trkpt lat="46.17905" lon="6.06471">
        <ele>420</ele>
        <time>2022-09-27T14:05:57Z</time>
      </trkpt>
      <trkpt lat="46.17903" lon="6.06476">
        <ele>420.1</ele>
        <time>2022-09-27T14:05:58Z</time>
      </trkpt>
      <trkpt lat="46.17902" lon="6.06478">
        <ele>420.1</ele>
        <time>2022-09-27T14:05:59Z</time>
      </trkpt>
      <trkpt lat="46.179" lon="6.06482">
        <ele>420.3</ele>
        <time>2022-09-27T14:06:00Z</time>
      </trkpt>
      <trkpt lat="46.17899" lon="6.06484">
        <ele>420.3</ele>
        <time>2022-09-27T14:06:01Z</time>
      </trkpt>
      <trkpt lat="46.17897" lon="6.06489">
        <ele>420.4</ele>
        <time>2022-09-27T14:06:02Z</time>
      </trkpt>
      <trkpt lat="46.17896" lon="6.0649">
        <ele>420.5</ele>
        <time>2022-09-27T14:06:03Z</time>
      </trkpt>
      <trkpt lat="46.17895" lon="6.06494">
        <ele>420.6</ele>
        <time>2022-09-27T14:06:04Z</time>
      </trkpt>
      <trkpt lat="46.17893" lon="6.06497">
        <ele>420.7</ele>
        <time>2022-09-27T14:06:05Z</time>
      </trkpt>
      <trkpt lat="46.17892" lon="6.06501">
        <ele>420.8</ele>
        <time>2022-09-27T14:06:06Z</time>
      </trkpt>
      <trkpt lat="46.1789" lon="6.06506">
        <ele>420.9</ele>
        <time>2022-09-27T14:06:07Z</time>
      </trkpt>
      <trkpt lat="46.17889" lon="6.06508">
        <ele>421</ele>
        <time>2022-09-27T14:06:08Z</time>
      </trkpt>
      <trkpt lat="46.17887" lon="6.06513">
        <ele>421.1</ele>
        <time>2022-09-27T14:06:09Z</time>
      </trkpt>
      <trkpt lat="46.17887" lon="6.06515">
        <ele>421.1</ele>
        <time>2022-09-27T14:06:10Z</time>
      </trkpt>
      <trkpt lat="46.17885" lon="6.06518">
        <ele>421.2</ele>
        <time>2022-09-27T14:06:11Z</time>
      </trkpt>
      <trkpt lat="46.17883" lon="6.06523">
        <ele>421.4</ele>
        <time>2022-09-27T14:06:12Z</time>
      </trkpt>
      <trkpt lat="46.17883" lon="6.06525">
        <ele>421.4</ele>
        <time>2022-09-27T14:06:13Z</time>
      </trkpt>
      <trkpt lat="46.17881" lon="6.0653">
        <ele>421.6</ele>
        <time>2022-09-27T14:06:14Z</time>
      </trkpt>
      <trkpt lat="46.1788" lon="6.06531">
        <ele>421.6</ele>
        <time>2022-09-27T14:06:15Z</time>
      </trkpt>
      <trkpt lat="46.17878" lon="6.06536">
        <ele>421.7</ele>
        <time>2022-09-27T14:06:16Z</time>
      </trkpt>
      <trkpt lat="46.17878" lon="6.06537">
        <ele>421.8</ele>
        <time>2022-09-27T14:06:17Z</time>
      </trkpt>
      <trkpt lat="46.17876" lon="6.06541">
        <ele>421.9</ele>
        <time>2022-09-27T14:06:18Z</time>
      </trkpt>
      <trkpt lat="46.17875" lon="6.06543">
        <ele>421.9</ele>
        <time>2022-09-27T14:06:19Z</time>
      </trkpt>
      <trkpt lat="46.17873" lon="6.06548">
        <ele>422.1</ele>
        <time>2022-09-27T14:06:20Z</time>
      </trkpt>
      <trkpt lat="46.17873" lon="6.06549">
        <ele>422.1</ele>
        <time>2022-09-27T14:06:21Z</time>
      </trkpt>
      <trkpt lat="46.17871" lon="6.06553">
        <ele>422.3</ele>
        <time>2022-09-27T14:06:22Z</time>
      </trkpt>
      <trkpt lat="46.17871" lon="6.06555">
        <ele>422.3</ele>
        <time>2022-09-27T14:06:23Z</time>
      </trkpt>
      <trkpt lat="46.17869" lon="6.0656">
        <ele>422.5</ele>
        <time>2022-09-27T14:06:24Z</time>
      </trkpt>
      <trkpt lat="46.17868" lon="6.06561">
        <ele>422.5</ele>
        <time>2022-09-27T14:06:25Z</time>
      </trkpt>
      <trkpt lat="46.17866" lon="6.06566">
        <ele>422.7</ele>
        <time>2022-09-27T14:06:26Z</time>
      </trkpt>
      <trkpt lat="46.17866" lon="6.06567">
        <ele>422.7</ele>
        <time>2022-09-27T14:06:27Z</time>
      </trkpt>
      <trkpt lat="46.17864" lon="6.06572">
        <ele>422.9</ele>
        <time>2022-09-27T14:06:28Z</time>
      </trkpt>
      <trkpt lat="46.17863" lon="6.06574">
        <ele>422.9</ele>
        <time>2022-09-27T14:06:29Z</time>
      </trkpt>
      <trkpt lat="46.17861" lon="6.06579">
        <ele>423.1</ele>
        <time>2022-09-27T14:06:30Z</time>
      </trkpt>
      <trkpt lat="46.17861" lon="6.0658">
        <ele>423.2</ele>
        <time>2022-09-27T14:06:31Z</time>
      </trkpt>
      <trkpt lat="46.17859" lon="6.06583">
        <ele>423.3</ele>
        <time>2022-09-27T14:06:32Z</time>
      </trkpt>
      <trkpt lat="46.17857" lon="6.06588">
        <ele>423.5</ele>
        <time>2022-09-27T14:06:33Z</time>
      </trkpt>
      <trkpt lat="46.17857" lon="6.06589">
        <ele>423.5</ele>
        <time>2022-09-27T14:06:34Z</time>
      </trkpt>
      <trkpt lat="46.17855" lon="6.06593">
        <ele>423.7</ele>
        <time>2022-09-27T14:06:35Z</time>
      </trkpt>
      <trkpt lat="46.17855" lon="6.06594">
        <ele>423.7</ele>
        <time>2022-09-27T14:06:36Z</time>
      </trkpt>
      <trkpt lat="46.17853" lon="6.06598">
        <ele>423.9</ele>
        <time>2022-09-27T14:06:37Z</time>
      </trkpt>
      <trkpt lat="46.17853" lon="6.06599">
        <ele>423.9</ele>
        <time>2022-09-27T14:06:38Z</time>
      </trkpt>
      <trkpt lat="46.17851" lon="6.06603">
        <ele>424.1</ele>
        <time>2022-09-27T14:06:39Z</time>
      </trkpt>
      <trkpt lat="46.17851" lon="6.06604">
        <ele>424.2</ele>
        <time>2022-09-27T14:06:40Z</time>
      </trkpt>
      <trkpt lat="46.17849" lon="6.06608">
        <ele>424.4</ele>
        <time>2022-09-27T14:06:41Z</time>
      </trkpt>
      <trkpt lat="46.17848" lon="6.06609">
        <ele>424.5</ele>
        <time>2022-09-27T14:06:42Z</time>
      </trkpt>
      <trkpt lat="46.17846" lon="6.06614">
        <ele>424.7</ele>
        <time>2022-09-27T14:06:43Z</time>
      </trkpt>
      <trkpt lat="46.17845" lon="6.06618">
        <ele>425</ele>
        <time>2022-09-27T14:06:44Z</time>
      </trkpt>
      <trkpt lat="46.17844" lon="6.06619">
        <ele>425</ele>
        <time>2022-09-27T14:06:45Z</time>
      </trkpt>
      <trkpt lat="46.17843" lon="6.06622">
        <ele>425.2</ele>
        <time>2022-09-27T14:06:46Z</time>
      </trkpt>
      <trkpt lat="46.17842" lon="6.06623">
        <ele>425.3</ele>
        <time>2022-09-27T14:06:47Z</time>
      </trkpt>
      <trkpt lat="46.17842" lon="6.06626">
        <ele>425.4</ele>
        <time>2022-09-27T14:06:48Z</time>
      </trkpt>
      <trkpt lat="46.17841" lon="6.06627">
        <ele>425.6</ele>
        <time>2022-09-27T14:06:49Z</time>
      </trkpt>
      <trkpt lat="46.1784" lon="6.06629">
        <ele>425.7</ele>
        <time>2022-09-27T14:06:50Z</time>
      </trkpt>
      <trkpt lat="46.17839" lon="6.06631">
        <ele>425.8</ele>
        <time>2022-09-27T14:06:51Z</time>
      </trkpt>
      <trkpt lat="46.17838" lon="6.06633">
        <ele>426</ele>
        <time>2022-09-27T14:06:52Z</time>
      </trkpt>
      <trkpt lat="46.17837" lon="6.06635">
        <ele>426.1</ele>
        <time>2022-09-27T14:06:53Z</time>
      </trkpt>
      <trkpt lat="46.17836" lon="6.06637">
        <ele>426.2</ele>
        <time>2022-09-27T14:06:54Z</time>
      </trkpt>
      <trkpt lat="46.17836" lon="6.06639">
        <ele>426.4</ele>
        <time>2022-09-27T14:06:55Z</time>
      </trkpt>
      <trkpt lat="46.17835" lon="6.06641">
        <ele>426.6</ele>
        <time>2022-09-27T14:06:56Z</time>
      </trkpt>
      <trkpt lat="46.17834" lon="6.06643">
        <ele>426.7</ele>
        <time>2022-09-27T14:06:57Z</time>
      </trkpt>
      <trkpt lat="46.17833" lon="6.06645">
        <ele>426.9</ele>
        <time>2022-09-27T14:06:58Z</time>
      </trkpt>
      <trkpt lat="46.17832" lon="6.06647">
        <ele>427</ele>
        <time>2022-09-27T14:06:59Z</time>
      </trkpt>
      <trkpt lat="46.17831" lon="6.06648">
        <ele>427.1</ele>
        <time>2022-09-27T14:07:00Z</time>
      </trkpt>
      <trkpt lat="46.17831" lon="6.0665">
        <ele>427.3</ele>
        <time>2022-09-27T14:07:01Z</time>
      </trkpt>
      <trkpt lat="46.17829" lon="6.06653">
        <ele>427.5</ele>
        <time>2022-09-27T14:07:02Z</time>
      </trkpt>
      <trkpt lat="46.17829" lon="6.06654">
        <ele>427.6</ele>
        <time>2022-09-27T14:07:03Z</time>
      </trkpt>
      <trkpt lat="46.17828" lon="6.06655">
        <ele>427.6</ele>
        <time>2022-09-27T14:07:04Z</time>
      </trkpt>
      <trkpt lat="46.17828" lon="6.06658">
        <ele>427.8</ele>
        <time>2022-09-27T14:07:05Z</time>
      </trkpt>
      <trkpt lat="46.17827" lon="6.06659">
        <ele>427.9</ele>
        <time>2022-09-27T14:07:06Z</time>
      </trkpt>
      <trkpt lat="46.17827" lon="6.0666">
        <ele>428</ele>
        <time>2022-09-27T14:07:07Z</time>
      </trkpt>
      <trkpt lat="46.17826" lon="6.06662">
        <ele>428.2</ele>
        <time>2022-09-27T14:07:08Z</time>
      </trkpt>
      <trkpt lat="46.17825" lon="6.06664">
        <ele>428.3</ele>
        <time>2022-09-27T14:07:09Z</time>
      </trkpt>
      <trkpt lat="46.17824" lon="6.06668">
        <ele>428.6</ele>
        <time>2022-09-27T14:07:10Z</time>
      </trkpt>
      <trkpt lat="46.17824" lon="6.06669">
        <ele>428.7</ele>
        <time>2022-09-27T14:07:11Z</time>
      </trkpt>
      <trkpt lat="46.17823" lon="6.0667">
        <ele>428.8</ele>
        <time>2022-09-27T14:07:12Z</time>
      </trkpt>
      <trkpt lat="46.17823" lon="6.06671">
        <ele>428.8</ele>
        <time>2022-09-27T14:07:13Z</time>
      </trkpt>
      <trkpt lat="46.17823" lon="6.06673">
        <ele>429</ele>
        <time>2022-09-27T14:07:14Z</time>
      </trkpt>
      <trkpt lat="46.17822" lon="6.06674">
        <ele>429.1</ele>
        <time>2022-09-27T14:07:15Z</time>
      </trkpt>
      <trkpt lat="46.17821" lon="6.06676">
        <ele>429.3</ele>
        <time>2022-09-27T14:07:16Z</time>
      </trkpt>
      <trkpt lat="46.1782" lon="6.06678">
        <ele>429.5</ele>
        <time>2022-09-27T14:07:17Z</time>
      </trkpt>
      <trkpt lat="46.17819" lon="6.06681">
        <ele>429.7</ele>
        <time>2022-09-27T14:07:18Z</time>
      </trkpt>
      <trkpt lat="46.17817" lon="6.06682">
        <ele>429.9</ele>
        <time>2022-09-27T14:07:19Z</time>
      </trkpt>
      <trkpt lat="46.17816" lon="6.06685">
        <ele>430.1</ele>
        <time>2022-09-27T14:07:20Z</time>
      </trkpt>
      <trkpt lat="46.17816" lon="6.06687">
        <ele>430.2</ele>
        <time>2022-09-27T14:07:21Z</time>
      </trkpt>
      <trkpt lat="46.17815" lon="6.06689">
        <ele>430.4</ele>
        <time>2022-09-27T14:07:22Z</time>
      </trkpt>
      <trkpt lat="46.17814" lon="6.0669">
        <ele>430.6</ele>
        <time>2022-09-27T14:07:23Z</time>
      </trkpt>
      <trkpt lat="46.17813" lon="6.06692">
        <ele>430.7</ele>
        <time>2022-09-27T14:07:24Z</time>
      </trkpt>
      <trkpt lat="46.17813" lon="6.06694">
        <ele>430.9</ele>
        <time>2022-09-27T14:07:25Z</time>
      </trkpt>
      <trkpt lat="46.17812" lon="6.06695">
        <ele>431</ele>
        <time>2022-09-27T14:07:26Z</time>
      </trkpt>
      <trkpt lat="46.1781" lon="6.06698">
        <ele>431.3</ele>
        <time>2022-09-27T14:07:27Z</time>
      </trkpt>
      <trkpt lat="46.1781" lon="6.06699">
        <ele>431.4</ele>
        <time>2022-09-27T14:07:28Z</time>
      </trkpt>
      <trkpt lat="46.17809" lon="6.067">
        <ele>431.5</ele>
        <time>2022-09-27T14:07:29Z</time>
      </trkpt>
      <trkpt lat="46.17807" lon="6.06704">
        <ele>431.8</ele>
        <time>2022-09-27T14:07:30Z</time>
      </trkpt>
      <trkpt lat="46.17807" lon="6.06705">
        <ele>431.9</ele>
        <time>2022-09-27T14:07:31Z</time>
      </trkpt>
      <trkpt lat="46.17807" lon="6.06706">
        <ele>432</ele>
        <time>2022-09-27T14:07:32Z</time>
      </trkpt>
      <trkpt lat="46.17806" lon="6.06707">
        <ele>432.1</ele>
        <time>2022-09-27T14:07:33Z</time>
      </trkpt>
      <trkpt lat="46.17805" lon="6.0671">
        <ele>432.3</ele>
        <time>2022-09-27T14:07:34Z</time>
      </trkpt>
      <trkpt lat="46.17804" lon="6.06711">
        <ele>432.4</ele>
        <time>2022-09-27T14:07:35Z</time>
      </trkpt>
      <trkpt lat="46.17804" lon="6.06713">
        <ele>432.5</ele>
        <time>2022-09-27T14:07:36Z</time>
      </trkpt>
      <trkpt lat="46.17802" lon="6.06715">
        <ele>432.8</ele>
        <time>2022-09-27T14:07:38Z</time>
      </trkpt>
      <trkpt lat="46.17802" lon="6.06716">
        <ele>432.8</ele>
        <time>2022-09-27T14:07:39Z</time>
      </trkpt>
      <trkpt lat="46.17801" lon="6.06719">
        <ele>433</ele>
        <time>2022-09-27T14:07:40Z</time>
      </trkpt>
      <trkpt lat="46.178" lon="6.06721">
        <ele>433.2</ele>
        <time>2022-09-27T14:07:41Z</time>
      </trkpt>
      <trkpt lat="46.17799" lon="6.06723">
        <ele>433.3</ele>
        <time>2022-09-27T14:07:42Z</time>
      </trkpt>
      <trkpt lat="46.17798" lon="6.06724">
        <ele>433.5</ele>
        <time>2022-09-27T14:07:43Z</time>
      </trkpt>
      <trkpt lat="46.17798" lon="6.06725">
        <ele>433.5</ele>
        <time>2022-09-27T14:07:44Z</time>
      </trkpt>
      <trkpt lat="46.17797" lon="6.06728">
        <ele>433.7</ele>
        <time>2022-09-27T14:07:45Z</time>
      </trkpt>
      <trkpt lat="46.17796" lon="6.06729">
        <ele>433.8</ele>
        <time>2022-09-27T14:07:46Z</time>
      </trkpt>
      <trkpt lat="46.17795" lon="6.06731">
        <ele>434</ele>
        <time>2022-09-27T14:07:47Z</time>
      </trkpt>
      <trkpt lat="46.17793" lon="6.06734">
        <ele>434.2</ele>
        <time>2022-09-27T14:07:48Z</time>
      </trkpt>
      <trkpt lat="46.17793" lon="6.06734">
        <ele>434.2</ele>
        <time>2022-09-27T14:07:49Z</time>
      </trkpt>
      <trkpt lat="46.17792" lon="6.06737">
        <ele>434.4</ele>
        <time>2022-09-27T14:07:50Z</time>
      </trkpt>
      <trkpt lat="46.17792" lon="6.06738">
        <ele>434.4</ele>
        <time>2022-09-27T14:07:51Z</time>
      </trkpt>
      <trkpt lat="46.1779" lon="6.06741">
        <ele>434.6</ele>
        <time>2022-09-27T14:07:52Z</time>
      </trkpt>
      <trkpt lat="46.1779" lon="6.06742">
        <ele>434.7</ele>
        <time>2022-09-27T14:07:53Z</time>
      </trkpt>
      <trkpt lat="46.17788" lon="6.06745">
        <ele>434.9</ele>
        <time>2022-09-27T14:07:54Z</time>
      </trkpt>
      <trkpt lat="46.17787" lon="6.06747">
        <ele>435</ele>
        <time>2022-09-27T14:07:55Z</time>
      </trkpt>
      <trkpt lat="46.17787" lon="6.06747">
        <ele>435</ele>
        <time>2022-09-27T14:07:56Z</time>
      </trkpt>
      <trkpt lat="46.17786" lon="6.0675">
        <ele>435.2</ele>
        <time>2022-09-27T14:07:57Z</time>
      </trkpt>
      <trkpt lat="46.17785" lon="6.06751">
        <ele>435.2</ele>
        <time>2022-09-27T14:07:58Z</time>
      </trkpt>
      <trkpt lat="46.17784" lon="6.06753">
        <ele>435.3</ele>
        <time>2022-09-27T14:07:59Z</time>
      </trkpt>
      <trkpt lat="46.17782" lon="6.06756">
        <ele>435.5</ele>
        <time>2022-09-27T14:08:00Z</time>
      </trkpt>
      <trkpt lat="46.17781" lon="6.06758">
        <ele>435.6</ele>
        <time>2022-09-27T14:08:01Z</time>
      </trkpt>
      <trkpt lat="46.17781" lon="6.0676">
        <ele>435.6</ele>
        <time>2022-09-27T14:08:02Z</time>
      </trkpt>
      <trkpt lat="46.1778" lon="6.06761">
        <ele>435.7</ele>
        <time>2022-09-27T14:08:03Z</time>
      </trkpt>
      <trkpt lat="46.17779" lon="6.06764">
        <ele>435.8</ele>
        <time>2022-09-27T14:08:04Z</time>
      </trkpt>
      <trkpt lat="46.17779" lon="6.06765">
        <ele>435.9</ele>
        <time>2022-09-27T14:08:05Z</time>
      </trkpt>
      <trkpt lat="46.17777" lon="6.06768">
        <ele>436</ele>
        <time>2022-09-27T14:08:06Z</time>
      </trkpt>
      <trkpt lat="46.17777" lon="6.06768">
        <ele>436</ele>
        <time>2022-09-27T14:08:07Z</time>
      </trkpt>
      <trkpt lat="46.17775" lon="6.06771">
        <ele>436.1</ele>
        <time>2022-09-27T14:08:08Z</time>
      </trkpt>
      <trkpt lat="46.17775" lon="6.06772">
        <ele>436.1</ele>
        <time>2022-09-27T14:08:09Z</time>
      </trkpt>
      <trkpt lat="46.17773" lon="6.06776">
        <ele>436.3</ele>
        <time>2022-09-27T14:08:10Z</time>
      </trkpt>
      <trkpt lat="46.17772" lon="6.06778">
        <ele>436.3</ele>
        <time>2022-09-27T14:08:11Z</time>
      </trkpt>
      <trkpt lat="46.17772" lon="6.06779">
        <ele>436.3</ele>
        <time>2022-09-27T14:08:12Z</time>
      </trkpt>
      <trkpt lat="46.1777" lon="6.06782">
        <ele>436.4</ele>
        <time>2022-09-27T14:08:13Z</time>
      </trkpt>
      <trkpt lat="46.17768" lon="6.06786">
        <ele>436.5</ele>
        <time>2022-09-27T14:08:14Z</time>
      </trkpt>
      <trkpt lat="46.17767" lon="6.06788">
        <ele>436.5</ele>
        <time>2022-09-27T14:08:15Z</time>
      </trkpt>
      <trkpt lat="46.17764" lon="6.06794">
        <ele>436.6</ele>
        <time>2022-09-27T14:08:16Z</time>
      </trkpt>
      <trkpt lat="46.17761" lon="6.068">
        <ele>436.7</ele>
        <time>2022-09-27T14:08:17Z</time>
      </trkpt>
      <trkpt lat="46.17758" lon="6.06805">
        <ele>436.7</ele>
        <time>2022-09-27T14:08:18Z</time>
      </trkpt>
      <trkpt lat="46.17755" lon="6.06809">
        <ele>436.7</ele>
        <time>2022-09-27T14:08:19Z</time>
      </trkpt>
      <trkpt lat="46.17753" lon="6.06813">
        <ele>436.7</ele>
        <time>2022-09-27T14:08:20Z</time>
      </trkpt>
      <trkpt lat="46.17751" lon="6.06817">
        <ele>436.7</ele>
        <time>2022-09-27T14:08:21Z</time>
      </trkpt>
      <trkpt lat="46.17749" lon="6.06822">
        <ele>436.7</ele>
        <time>2022-09-27T14:08:22Z</time>
      </trkpt>
      <trkpt lat="46.17746" lon="6.06827">
        <ele>436.6</ele>
        <time>2022-09-27T14:08:23Z</time>
      </trkpt>
      <trkpt lat="46.17744" lon="6.06831">
        <ele>436.6</ele>
        <time>2022-09-27T14:08:24Z</time>
      </trkpt>
      <trkpt lat="46.17741" lon="6.06834">
        <ele>436.5</ele>
        <time>2022-09-27T14:08:25Z</time>
      </trkpt>
      <trkpt lat="46.17739" lon="6.06838">
        <ele>436.5</ele>
        <time>2022-09-27T14:08:26Z</time>
      </trkpt>
      <trkpt lat="46.17737" lon="6.06843">
        <ele>436.4</ele>
        <time>2022-09-27T14:08:27Z</time>
      </trkpt>
      <trkpt lat="46.17734" lon="6.06848">
        <ele>436.3</ele>
        <time>2022-09-27T14:08:28Z</time>
      </trkpt>
      <trkpt lat="46.17732" lon="6.06852">
        <ele>436.3</ele>
        <time>2022-09-27T14:08:29Z</time>
      </trkpt>
      <trkpt lat="46.17729" lon="6.06856">
        <ele>436.2</ele>
        <time>2022-09-27T14:08:30Z</time>
      </trkpt>
      <trkpt lat="46.17727" lon="6.0686">
        <ele>436.2</ele>
        <time>2022-09-27T14:08:31Z</time>
      </trkpt>
      <trkpt lat="46.17725" lon="6.06865">
        <ele>436.1</ele>
        <time>2022-09-27T14:08:32Z</time>
      </trkpt>
      <trkpt lat="46.17723" lon="6.06869">
        <ele>436.1</ele>
        <time>2022-09-27T14:08:33Z</time>
      </trkpt>
      <trkpt lat="46.1772" lon="6.06874">
        <ele>436</ele>
        <time>2022-09-27T14:08:34Z</time>
      </trkpt>
      <trkpt lat="46.17717" lon="6.06878">
        <ele>436</ele>
        <time>2022-09-27T14:08:35Z</time>
      </trkpt>
      <trkpt lat="46.17715" lon="6.06882">
        <ele>436</ele>
        <time>2022-09-27T14:08:36Z</time>
      </trkpt>
      <trkpt lat="46.17713" lon="6.06886">
        <ele>435.9</ele>
        <time>2022-09-27T14:08:37Z</time>
      </trkpt>
      <trkpt lat="46.17711" lon="6.0689">
        <ele>435.9</ele>
        <time>2022-09-27T14:08:38Z</time>
      </trkpt>
      <trkpt lat="46.17709" lon="6.06893">
        <ele>435.9</ele>
        <time>2022-09-27T14:08:39Z</time>
      </trkpt>
      <trkpt lat="46.17707" lon="6.06897">
        <ele>435.9</ele>
        <time>2022-09-27T14:08:40Z</time>
      </trkpt>
      <trkpt lat="46.17707" lon="6.06898">
        <ele>435.9</ele>
        <time>2022-09-27T14:08:41Z</time>
      </trkpt>
      <trkpt lat="46.17705" lon="6.069">
        <ele>435.9</ele>
        <time>2022-09-27T14:08:42Z</time>
      </trkpt>
      <trkpt lat="46.17705" lon="6.06901">
        <ele>435.9</ele>
        <time>2022-09-27T14:08:43Z</time>
      </trkpt>
      <trkpt lat="46.17704" lon="6.06903">
        <ele>435.9</ele>
        <time>2022-09-27T14:08:44Z</time>
      </trkpt>
      <trkpt lat="46.17703" lon="6.06904">
        <ele>435.9</ele>
        <time>2022-09-27T14:08:45Z</time>
      </trkpt>
      <trkpt lat="46.17703" lon="6.06904">
        <ele>435.9</ele>
        <time>2022-09-27T14:08:46Z</time>
      </trkpt>
      <trkpt lat="46.17703" lon="6.06904">
        <ele>435.9</ele>
        <time>2022-09-27T14:08:47Z</time>
      </trkpt>
      <trkpt lat="46.17703" lon="6.06904">
        <ele>435.9</ele>
        <time>2022-09-27T14:08:48Z</time>
      </trkpt>
      <trkpt lat="46.17703" lon="6.06904">
        <ele>435.9</ele>
        <time>2022-09-27T14:08:49Z</time>
      </trkpt>
      <trkpt lat="46.17703" lon="6.06904">
        <ele>435.9</ele>
        <time>2022-09-27T14:08:50Z</time>
      </trkpt>
      <trkpt lat="46.17703" lon="6.06904">
        <ele>435.9</ele>
        <time>2022-09-27T14:08:51Z</time>
      </trkpt>
      <trkpt lat="46.17703" lon="6.06904">
        <ele>435.9</ele>
        <time>2022-09-27T14:08:52Z</time>
      </trkpt>
      <trkpt lat="46.17703" lon="6.06904">
        <ele>435.9</ele>
        <time>2022-09-27T14:08:53Z</time>
      </trkpt>
      <trkpt lat="46.17703" lon="6.06904">
        <ele>435.9</ele>
        <time>2022-09-27T14:08:54Z</time>
      </trkpt>
      <trkpt lat="46.17699" lon="6.06911">
        <ele>435.8</ele>
        <time>2022-09-27T14:09:31Z</time>
      </trkpt>
      <trkpt lat="46.17698" lon="6.06913">
        <ele>435.8</ele>
        <time>2022-09-27T14:09:32Z</time>
      </trkpt>
      <trkpt lat="46.17696" lon="6.06915">
        <ele>435.9</ele>
        <time>2022-09-27T14:09:33Z</time>
      </trkpt>
      <trkpt lat="46.17695" lon="6.06917">
        <ele>435.9</ele>
        <time>2022-09-27T14:09:34Z</time>
      </trkpt>
      <trkpt lat="46.17694" lon="6.06918">
        <ele>435.9</ele>
        <time>2022-09-27T14:09:35Z</time>
      </trkpt>
      <trkpt lat="46.17693" lon="6.0692">
        <ele>435.9</ele>
        <time>2022-09-27T14:09:36Z</time>
      </trkpt>
      <trkpt lat="46.17691" lon="6.06923">
        <ele>435.9</ele>
        <time>2022-09-27T14:09:37Z</time>
      </trkpt>
      <trkpt lat="46.1769" lon="6.06924">
        <ele>435.9</ele>
        <time>2022-09-27T14:09:38Z</time>
      </trkpt>
      <trkpt lat="46.1769" lon="6.06926">
        <ele>436</ele>
        <time>2022-09-27T14:09:39Z</time>
      </trkpt>
      <trkpt lat="46.1769" lon="6.06928">
        <ele>436</ele>
        <time>2022-09-27T14:09:40Z</time>
      </trkpt>
      <trkpt lat="46.17688" lon="6.06931">
        <ele>436</ele>
        <time>2022-09-27T14:09:41Z</time>
      </trkpt>
      <trkpt lat="46.17687" lon="6.06932">
        <ele>436</ele>
        <time>2022-09-27T14:09:42Z</time>
      </trkpt>
      <trkpt lat="46.17685" lon="6.06935">
        <ele>436</ele>
        <time>2022-09-27T14:09:44Z</time>
      </trkpt>
      <trkpt lat="46.17684" lon="6.06937">
        <ele>436</ele>
        <time>2022-09-27T14:09:45Z</time>
      </trkpt>
      <trkpt lat="46.17682" lon="6.06941">
        <ele>436</ele>
        <time>2022-09-27T14:09:46Z</time>
      </trkpt>
      <trkpt lat="46.17681" lon="6.06942">
        <ele>436</ele>
        <time>2022-09-27T14:09:47Z</time>
      </trkpt>
      <trkpt lat="46.17679" lon="6.06945">
        <ele>436</ele>
        <time>2022-09-27T14:09:48Z</time>
      </trkpt>
      <trkpt lat="46.17677" lon="6.0695">
        <ele>436</ele>
        <time>2022-09-27T14:09:49Z</time>
      </trkpt>
      <trkpt lat="46.17675" lon="6.06953">
        <ele>436</ele>
        <time>2022-09-27T14:09:50Z</time>
      </trkpt>
      <trkpt lat="46.17671" lon="6.06956">
        <ele>436</ele>
        <time>2022-09-27T14:09:51Z</time>
      </trkpt>
      <trkpt lat="46.17669" lon="6.0696">
        <ele>436</ele>
        <time>2022-09-27T14:09:52Z</time>
      </trkpt>
      <trkpt lat="46.17667" lon="6.06964">
        <ele>436</ele>
        <time>2022-09-27T14:09:53Z</time>
      </trkpt>
      <trkpt lat="46.17665" lon="6.06967">
        <ele>436</ele>
        <time>2022-09-27T14:09:54Z</time>
      </trkpt>
      <trkpt lat="46.17663" lon="6.06971">
        <ele>436.1</ele>
        <time>2022-09-27T14:09:55Z</time>
      </trkpt>
      <trkpt lat="46.17661" lon="6.06975">
        <ele>436.1</ele>
        <time>2022-09-27T14:09:56Z</time>
      </trkpt>
      <trkpt lat="46.17658" lon="6.06979">
        <ele>436.1</ele>
        <time>2022-09-27T14:09:57Z</time>
      </trkpt>
      <trkpt lat="46.17656" lon="6.06982">
        <ele>436.1</ele>
        <time>2022-09-27T14:09:58Z</time>
      </trkpt>
      <trkpt lat="46.17654" lon="6.06986">
        <ele>436.2</ele>
        <time>2022-09-27T14:09:59Z</time>
      </trkpt>
      <trkpt lat="46.17652" lon="6.06989">
        <ele>436.2</ele>
        <time>2022-09-27T14:10:00Z</time>
      </trkpt>
      <trkpt lat="46.1765" lon="6.06993">
        <ele>436.3</ele>
        <time>2022-09-27T14:10:01Z</time>
      </trkpt>
      <trkpt lat="46.17648" lon="6.06997">
        <ele>436.3</ele>
        <time>2022-09-27T14:10:02Z</time>
      </trkpt>
      <trkpt lat="46.17645" lon="6.07">
        <ele>436.4</ele>
        <time>2022-09-27T14:10:03Z</time>
      </trkpt>
      <trkpt lat="46.17644" lon="6.07004">
        <ele>436.4</ele>
        <time>2022-09-27T14:10:04Z</time>
      </trkpt>
      <trkpt lat="46.17642" lon="6.07007">
        <ele>436.5</ele>
        <time>2022-09-27T14:10:05Z</time>
      </trkpt>
      <trkpt lat="46.17639" lon="6.0701">
        <ele>436.5</ele>
        <time>2022-09-27T14:10:06Z</time>
      </trkpt>
      <trkpt lat="46.17637" lon="6.07013">
        <ele>436.5</ele>
        <time>2022-09-27T14:10:07Z</time>
      </trkpt>
      <trkpt lat="46.17635" lon="6.07017">
        <ele>436.6</ele>
        <time>2022-09-27T14:10:08Z</time>
      </trkpt>
      <trkpt lat="46.17634" lon="6.07018">
        <ele>436.6</ele>
        <time>2022-09-27T14:10:09Z</time>
      </trkpt>
      <trkpt lat="46.17633" lon="6.07022">
        <ele>436.6</ele>
        <time>2022-09-27T14:10:10Z</time>
      </trkpt>
      <trkpt lat="46.1763" lon="6.07025">
        <ele>436.7</ele>
        <time>2022-09-27T14:10:11Z</time>
      </trkpt>
      <trkpt lat="46.17629" lon="6.07029">
        <ele>436.7</ele>
        <time>2022-09-27T14:10:12Z</time>
      </trkpt>
      <trkpt lat="46.17627" lon="6.07032">
        <ele>436.8</ele>
        <time>2022-09-27T14:10:13Z</time>
      </trkpt>
      <trkpt lat="46.17625" lon="6.07035">
        <ele>436.8</ele>
        <time>2022-09-27T14:10:14Z</time>
      </trkpt>
      <trkpt lat="46.17623" lon="6.07038">
        <ele>436.9</ele>
        <time>2022-09-27T14:10:15Z</time>
      </trkpt>
      <trkpt lat="46.17621" lon="6.07041">
        <ele>437</ele>
        <time>2022-09-27T14:10:16Z</time>
      </trkpt>
      <trkpt lat="46.17618" lon="6.07045">
        <ele>437.1</ele>
        <time>2022-09-27T14:10:17Z</time>
      </trkpt>
      <trkpt lat="46.17618" lon="6.07046">
        <ele>437.1</ele>
        <time>2022-09-27T14:10:18Z</time>
      </trkpt>
      <trkpt lat="46.17615" lon="6.0705">
        <ele>437.3</ele>
        <time>2022-09-27T14:10:19Z</time>
      </trkpt>
      <trkpt lat="46.17614" lon="6.0705">
        <ele>437.3</ele>
        <time>2022-09-27T14:10:20Z</time>
      </trkpt>
      <trkpt lat="46.17612" lon="6.07054">
        <ele>437.5</ele>
        <time>2022-09-27T14:10:21Z</time>
      </trkpt>
      <trkpt lat="46.17611" lon="6.07056">
        <ele>437.5</ele>
        <time>2022-09-27T14:10:22Z</time>
      </trkpt>
      <trkpt lat="46.17609" lon="6.07059">
        <ele>437.7</ele>
        <time>2022-09-27T14:10:23Z</time>
      </trkpt>
      <trkpt lat="46.17608" lon="6.07061">
        <ele>437.8</ele>
        <time>2022-09-27T14:10:24Z</time>
      </trkpt>
      <trkpt lat="46.17608" lon="6.07063">
        <ele>437.9</ele>
        <time>2022-09-27T14:10:25Z</time>
      </trkpt>
      <trkpt lat="46.17607" lon="6.07065">
        <ele>437.9</ele>
        <time>2022-09-27T14:10:26Z</time>
      </trkpt>
      <trkpt lat="46.17607" lon="6.07067">
        <ele>438</ele>
        <time>2022-09-27T14:10:27Z</time>
      </trkpt>
      <trkpt lat="46.17607" lon="6.07069">
        <ele>438.1</ele>
        <time>2022-09-27T14:10:28Z</time>
      </trkpt>
      <trkpt lat="46.17608" lon="6.07072">
        <ele>438.2</ele>
        <time>2022-09-27T14:10:29Z</time>
      </trkpt>
      <trkpt lat="46.17609" lon="6.07076">
        <ele>438.6</ele>
        <time>2022-09-27T14:10:30Z</time>
      </trkpt>
      <trkpt lat="46.1761" lon="6.07081">
        <ele>438.7</ele>
        <time>2022-09-27T14:10:31Z</time>
      </trkpt>
      <trkpt lat="46.17611" lon="6.07083">
        <ele>438.7</ele>
        <time>2022-09-27T14:10:32Z</time>
      </trkpt>
      <trkpt lat="46.17612" lon="6.07088">
        <ele>438.8</ele>
        <time>2022-09-27T14:10:33Z</time>
      </trkpt>
      <trkpt lat="46.17612" lon="6.0709">
        <ele>438.8</ele>
        <time>2022-09-27T14:10:34Z</time>
      </trkpt>
      <trkpt lat="46.17614" lon="6.07094">
        <ele>438.9</ele>
        <time>2022-09-27T14:10:35Z</time>
      </trkpt>
      <trkpt lat="46.17615" lon="6.07098">
        <ele>438.9</ele>
        <time>2022-09-27T14:10:36Z</time>
      </trkpt>
      <trkpt lat="46.17616" lon="6.07102">
        <ele>439</ele>
        <time>2022-09-27T14:10:37Z</time>
      </trkpt>
      <trkpt lat="46.17618" lon="6.07106">
        <ele>439.1</ele>
        <time>2022-09-27T14:10:38Z</time>
      </trkpt>
      <trkpt lat="46.17619" lon="6.0711">
        <ele>439.1</ele>
        <time>2022-09-27T14:10:39Z</time>
      </trkpt>
      <trkpt lat="46.1762" lon="6.07114">
        <ele>439.2</ele>
        <time>2022-09-27T14:10:40Z</time>
      </trkpt>
      <trkpt lat="46.17622" lon="6.07118">
        <ele>439.3</ele>
        <time>2022-09-27T14:10:41Z</time>
      </trkpt>
      <trkpt lat="46.17623" lon="6.07123">
        <ele>439.4</ele>
        <time>2022-09-27T14:10:42Z</time>
      </trkpt>
      <trkpt lat="46.17624" lon="6.07128">
        <ele>439.6</ele>
        <time>2022-09-27T14:10:43Z</time>
      </trkpt>
      <trkpt lat="46.17625" lon="6.0713">
        <ele>439.6</ele>
        <time>2022-09-27T14:10:44Z</time>
      </trkpt>
      <trkpt lat="46.17626" lon="6.07135">
        <ele>439.8</ele>
        <time>2022-09-27T14:10:45Z</time>
      </trkpt>
      <trkpt lat="46.17627" lon="6.07136">
        <ele>439.8</ele>
        <time>2022-09-27T14:10:46Z</time>
      </trkpt>
      <trkpt lat="46.17628" lon="6.0714">
        <ele>440</ele>
        <time>2022-09-27T14:10:47Z</time>
      </trkpt>
      <trkpt lat="46.17628" lon="6.07142">
        <ele>440</ele>
        <time>2022-09-27T14:10:48Z</time>
      </trkpt>
      <trkpt lat="46.17629" lon="6.07148">
        <ele>440.2</ele>
        <time>2022-09-27T14:10:49Z</time>
      </trkpt>
      <trkpt lat="46.17629" lon="6.07151">
        <ele>440.3</ele>
        <time>2022-09-27T14:10:50Z</time>
      </trkpt>
      <trkpt lat="46.1763" lon="6.07154">
        <ele>440.4</ele>
        <time>2022-09-27T14:10:51Z</time>
      </trkpt>
      <trkpt lat="46.17631" lon="6.07159">
        <ele>440.6</ele>
        <time>2022-09-27T14:10:52Z</time>
      </trkpt>
      <trkpt lat="46.17632" lon="6.07161">
        <ele>440.6</ele>
        <time>2022-09-27T14:10:53Z</time>
      </trkpt>
      <trkpt lat="46.17632" lon="6.07163">
        <ele>440.7</ele>
        <time>2022-09-27T14:10:54Z</time>
      </trkpt>
      <trkpt lat="46.17633" lon="6.07165">
        <ele>440.8</ele>
        <time>2022-09-27T14:10:55Z</time>
      </trkpt>
      <trkpt lat="46.17634" lon="6.07167">
        <ele>440.9</ele>
        <time>2022-09-27T14:10:56Z</time>
      </trkpt>
      <trkpt lat="46.17635" lon="6.07169">
        <ele>441</ele>
        <time>2022-09-27T14:10:57Z</time>
      </trkpt>
      <trkpt lat="46.17635" lon="6.07173">
        <ele>441.2</ele>
        <time>2022-09-27T14:10:58Z</time>
      </trkpt>
      <trkpt lat="46.17635" lon="6.07175">
        <ele>441.2</ele>
        <time>2022-09-27T14:10:59Z</time>
      </trkpt>
      <trkpt lat="46.17636" lon="6.07177">
        <ele>441.3</ele>
        <time>2022-09-27T14:11:00Z</time>
      </trkpt>
      <trkpt lat="46.17636" lon="6.07179">
        <ele>441.4</ele>
        <time>2022-09-27T14:11:01Z</time>
      </trkpt>
      <trkpt lat="46.17637" lon="6.07181">
        <ele>441.5</ele>
        <time>2022-09-27T14:11:02Z</time>
      </trkpt>
      <trkpt lat="46.17637" lon="6.07184">
        <ele>441.6</ele>
        <time>2022-09-27T14:11:03Z</time>
      </trkpt>
      <trkpt lat="46.17637" lon="6.07187">
        <ele>441.8</ele>
        <time>2022-09-27T14:11:04Z</time>
      </trkpt>
      <trkpt lat="46.17637" lon="6.07189">
        <ele>441.8</ele>
        <time>2022-09-27T14:11:05Z</time>
      </trkpt>
      <trkpt lat="46.17638" lon="6.07191">
        <ele>441.9</ele>
        <time>2022-09-27T14:11:06Z</time>
      </trkpt>
      <trkpt lat="46.17638" lon="6.07193">
        <ele>442</ele>
        <time>2022-09-27T14:11:07Z</time>
      </trkpt>
      <trkpt lat="46.17638" lon="6.07195">
        <ele>442.1</ele>
        <time>2022-09-27T14:11:08Z</time>
      </trkpt>
      <trkpt lat="46.17639" lon="6.07197">
        <ele>442.3</ele>
        <time>2022-09-27T14:11:09Z</time>
      </trkpt>
      <trkpt lat="46.17639" lon="6.07199">
        <ele>442.4</ele>
        <time>2022-09-27T14:11:10Z</time>
      </trkpt>
      <trkpt lat="46.17639" lon="6.07202">
        <ele>442.5</ele>
        <time>2022-09-27T14:11:11Z</time>
      </trkpt>
      <trkpt lat="46.1764" lon="6.07204">
        <ele>442.6</ele>
        <time>2022-09-27T14:11:12Z</time>
      </trkpt>
      <trkpt lat="46.1764" lon="6.07206">
        <ele>442.7</ele>
        <time>2022-09-27T14:11:13Z</time>
      </trkpt>
      <trkpt lat="46.17641" lon="6.07211">
        <ele>443</ele>
        <time>2022-09-27T14:11:14Z</time>
      </trkpt>
      <trkpt lat="46.17641" lon="6.07213">
        <ele>443.1</ele>
        <time>2022-09-27T14:11:15Z</time>
      </trkpt>
      <trkpt lat="46.17641" lon="6.07215">
        <ele>443.2</ele>
        <time>2022-09-27T14:11:16Z</time>
      </trkpt>
      <trkpt lat="46.17641" lon="6.07217">
        <ele>443.3</ele>
        <time>2022-09-27T14:11:17Z</time>
      </trkpt>
      <trkpt lat="46.17642" lon="6.07221">
        <ele>443.5</ele>
        <time>2022-09-27T14:11:18Z</time>
      </trkpt>
      <trkpt lat="46.17642" lon="6.07223">
        <ele>443.6</ele>
        <time>2022-09-27T14:11:19Z</time>
      </trkpt>
      <trkpt lat="46.17643" lon="6.07227">
        <ele>443.8</ele>
        <time>2022-09-27T14:11:20Z</time>
      </trkpt>
      <trkpt lat="46.17643" lon="6.07229">
        <ele>443.9</ele>
        <time>2022-09-27T14:11:21Z</time>
      </trkpt>
      <trkpt lat="46.17644" lon="6.07233">
        <ele>444.1</ele>
        <time>2022-09-27T14:11:22Z</time>
      </trkpt>
      <trkpt lat="46.17644" lon="6.07235">
        <ele>444.3</ele>
        <time>2022-09-27T14:11:23Z</time>
      </trkpt>
      <trkpt lat="46.17645" lon="6.07238">
        <ele>444.4</ele>
        <time>2022-09-27T14:11:24Z</time>
      </trkpt>
      <trkpt lat="46.17646" lon="6.07242">
        <ele>444.6</ele>
        <time>2022-09-27T14:11:25Z</time>
      </trkpt>
      <trkpt lat="46.17646" lon="6.07243">
        <ele>444.7</ele>
        <time>2022-09-27T14:11:26Z</time>
      </trkpt>
      <trkpt lat="46.17647" lon="6.07247">
        <ele>444.9</ele>
        <time>2022-09-27T14:11:27Z</time>
      </trkpt>
      <trkpt lat="46.17648" lon="6.07248">
        <ele>444.9</ele>
        <time>2022-09-27T14:11:28Z</time>
      </trkpt>
      <trkpt lat="46.17649" lon="6.07252">
        <ele>445.1</ele>
        <time>2022-09-27T14:11:29Z</time>
      </trkpt>
      <trkpt lat="46.17649" lon="6.07253">
        <ele>445.1</ele>
        <time>2022-09-27T14:11:30Z</time>
      </trkpt>
      <trkpt lat="46.1765" lon="6.07257">
        <ele>445.3</ele>
        <time>2022-09-27T14:11:31Z</time>
      </trkpt>
      <trkpt lat="46.17651" lon="6.07258">
        <ele>445.3</ele>
        <time>2022-09-27T14:11:32Z</time>
      </trkpt>
      <trkpt lat="46.1765" lon="6.0726">
        <ele>445.4</ele>
        <time>2022-09-27T14:11:33Z</time>
      </trkpt>
      <trkpt lat="46.17651" lon="6.07263">
        <ele>445.5</ele>
        <time>2022-09-27T14:11:34Z</time>
      </trkpt>
      <trkpt lat="46.17653" lon="6.07266">
        <ele>445.6</ele>
        <time>2022-09-27T14:11:35Z</time>
      </trkpt>
      <trkpt lat="46.17653" lon="6.07268">
        <ele>445.7</ele>
        <time>2022-09-27T14:11:36Z</time>
      </trkpt>
      <trkpt lat="46.17653" lon="6.0727">
        <ele>445.8</ele>
        <time>2022-09-27T14:11:37Z</time>
      </trkpt>
      <trkpt lat="46.17655" lon="6.07272">
        <ele>445.9</ele>
        <time>2022-09-27T14:11:38Z</time>
      </trkpt>
      <trkpt lat="46.17655" lon="6.07274">
        <ele>445.9</ele>
        <time>2022-09-27T14:11:39Z</time>
      </trkpt>
      <trkpt lat="46.17656" lon="6.07276">
        <ele>446</ele>
        <time>2022-09-27T14:11:40Z</time>
      </trkpt>
      <trkpt lat="46.17656" lon="6.07278">
        <ele>446.1</ele>
        <time>2022-09-27T14:11:41Z</time>
      </trkpt>
      <trkpt lat="46.17657" lon="6.07281">
        <ele>446.1</ele>
        <time>2022-09-27T14:11:42Z</time>
      </trkpt>
      <trkpt lat="46.17658" lon="6.07284">
        <ele>446.3</ele>
        <time>2022-09-27T14:11:43Z</time>
      </trkpt>
      <trkpt lat="46.17658" lon="6.07286">
        <ele>446.3</ele>
        <time>2022-09-27T14:11:44Z</time>
      </trkpt>
      <trkpt lat="46.17658" lon="6.07287">
        <ele>446.4</ele>
        <time>2022-09-27T14:11:45Z</time>
      </trkpt>
      <trkpt lat="46.17659" lon="6.07289">
        <ele>446.4</ele>
        <time>2022-09-27T14:11:46Z</time>
      </trkpt>
      <trkpt lat="46.17659" lon="6.07292">
        <ele>446.5</ele>
        <time>2022-09-27T14:11:47Z</time>
      </trkpt>
      <trkpt lat="46.1766" lon="6.07294">
        <ele>446.6</ele>
        <time>2022-09-27T14:11:48Z</time>
      </trkpt>
      <trkpt lat="46.1766" lon="6.07298">
        <ele>446.7</ele>
        <time>2022-09-27T14:11:50Z</time>
      </trkpt>
      <trkpt lat="46.1766" lon="6.07299">
        <ele>446.8</ele>
        <time>2022-09-27T14:11:51Z</time>
      </trkpt>
      <trkpt lat="46.17661" lon="6.073">
        <ele>446.8</ele>
        <time>2022-09-27T14:11:52Z</time>
      </trkpt>
      <trkpt lat="46.17661" lon="6.07304">
        <ele>447</ele>
        <time>2022-09-27T14:11:53Z</time>
      </trkpt>
      <trkpt lat="46.17662" lon="6.07305">
        <ele>447</ele>
        <time>2022-09-27T14:11:54Z</time>
      </trkpt>
      <trkpt lat="46.17662" lon="6.07308">
        <ele>447.1</ele>
        <time>2022-09-27T14:11:55Z</time>
      </trkpt>
      <trkpt lat="46.17662" lon="6.0731">
        <ele>447.2</ele>
        <time>2022-09-27T14:11:56Z</time>
      </trkpt>
      <trkpt lat="46.17661" lon="6.07312">
        <ele>447.3</ele>
        <time>2022-09-27T14:11:57Z</time>
      </trkpt>
      <trkpt lat="46.17661" lon="6.07314">
        <ele>447.3</ele>
        <time>2022-09-27T14:11:58Z</time>
      </trkpt>
      <trkpt lat="46.17661" lon="6.07316">
        <ele>447.4</ele>
        <time>2022-09-27T14:11:59Z</time>
      </trkpt>
      <trkpt lat="46.17663" lon="6.07319">
        <ele>447.5</ele>
        <time>2022-09-27T14:12:00Z</time>
      </trkpt>
      <trkpt lat="46.17663" lon="6.07321">
        <ele>447.5</ele>
        <time>2022-09-27T14:12:01Z</time>
      </trkpt>
      <trkpt lat="46.17663" lon="6.07323">
        <ele>447.6</ele>
        <time>2022-09-27T14:12:02Z</time>
      </trkpt>
      <trkpt lat="46.17663" lon="6.07326">
        <ele>447.6</ele>
        <time>2022-09-27T14:12:03Z</time>
      </trkpt>
      <trkpt lat="46.17663" lon="6.07328">
        <ele>447.7</ele>
        <time>2022-09-27T14:12:04Z</time>
      </trkpt>
      <trkpt lat="46.17663" lon="6.0733">
        <ele>447.7</ele>
        <time>2022-09-27T14:12:05Z</time>
      </trkpt>
      <trkpt lat="46.17663" lon="6.07332">
        <ele>447.8</ele>
        <time>2022-09-27T14:12:06Z</time>
      </trkpt>
      <trkpt lat="46.17663" lon="6.07337">
        <ele>447.8</ele>
        <time>2022-09-27T14:12:07Z</time>
      </trkpt>
      <trkpt lat="46.17664" lon="6.07339">
        <ele>447.9</ele>
        <time>2022-09-27T14:12:08Z</time>
      </trkpt>
      <trkpt lat="46.17665" lon="6.07343">
        <ele>448</ele>
        <time>2022-09-27T14:12:09Z</time>
      </trkpt>
      <trkpt lat="46.17665" lon="6.07345">
        <ele>448</ele>
        <time>2022-09-27T14:12:10Z</time>
      </trkpt>
      <trkpt lat="46.17666" lon="6.07351">
        <ele>448.1</ele>
        <time>2022-09-27T14:12:11Z</time>
      </trkpt>
      <trkpt lat="46.17667" lon="6.07353">
        <ele>448.1</ele>
        <time>2022-09-27T14:12:12Z</time>
      </trkpt>
      <trkpt lat="46.17669" lon="6.07357">
        <ele>448.2</ele>
        <time>2022-09-27T14:12:13Z</time>
      </trkpt>
      <trkpt lat="46.17669" lon="6.07362">
        <ele>448.2</ele>
        <time>2022-09-27T14:12:14Z</time>
      </trkpt>
      <trkpt lat="46.17669" lon="6.07367">
        <ele>448.2</ele>
        <time>2022-09-27T14:12:15Z</time>
      </trkpt>
      <trkpt lat="46.17669" lon="6.07372">
        <ele>448.3</ele>
        <time>2022-09-27T14:12:16Z</time>
      </trkpt>
      <trkpt lat="46.1767" lon="6.07377">
        <ele>448.3</ele>
        <time>2022-09-27T14:12:17Z</time>
      </trkpt>
      <trkpt lat="46.1767" lon="6.07381">
        <ele>448.3</ele>
        <time>2022-09-27T14:12:18Z</time>
      </trkpt>
      <trkpt lat="46.17672" lon="6.0739">
        <ele>448.3</ele>
        <time>2022-09-27T14:12:19Z</time>
      </trkpt>
      <trkpt lat="46.17675" lon="6.07396">
        <ele>448.3</ele>
        <time>2022-09-27T14:12:20Z</time>
      </trkpt>
      <trkpt lat="46.17676" lon="6.07401">
        <ele>448.3</ele>
        <time>2022-09-27T14:12:21Z</time>
      </trkpt>
      <trkpt lat="46.17676" lon="6.07408">
        <ele>448.3</ele>
        <time>2022-09-27T14:12:22Z</time>
      </trkpt>
      <trkpt lat="46.17676" lon="6.07414">
        <ele>448.4</ele>
        <time>2022-09-27T14:12:23Z</time>
      </trkpt>
      <trkpt lat="46.17677" lon="6.0742">
        <ele>448.4</ele>
        <time>2022-09-27T14:12:24Z</time>
      </trkpt>
      <trkpt lat="46.17678" lon="6.07426">
        <ele>448.4</ele>
        <time>2022-09-27T14:12:25Z</time>
      </trkpt>
      <trkpt lat="46.1768" lon="6.07431">
        <ele>448.4</ele>
        <time>2022-09-27T14:12:26Z</time>
      </trkpt>
      <trkpt lat="46.17682" lon="6.07436">
        <ele>448.4</ele>
        <time>2022-09-27T14:12:27Z</time>
      </trkpt>
      <trkpt lat="46.17683" lon="6.0744">
        <ele>448.4</ele>
        <time>2022-09-27T14:12:28Z</time>
      </trkpt>
      <trkpt lat="46.17685" lon="6.07447">
        <ele>448.4</ele>
        <time>2022-09-27T14:12:29Z</time>
      </trkpt>
      <trkpt lat="46.17686" lon="6.07453">
        <ele>448.4</ele>
        <time>2022-09-27T14:12:30Z</time>
      </trkpt>
      <trkpt lat="46.17687" lon="6.0746">
        <ele>448.4</ele>
        <time>2022-09-27T14:12:31Z</time>
      </trkpt>
      <trkpt lat="46.17688" lon="6.07467">
        <ele>448.4</ele>
        <time>2022-09-27T14:12:32Z</time>
      </trkpt>
      <trkpt lat="46.1769" lon="6.07472">
        <ele>448.3</ele>
        <time>2022-09-27T14:12:33Z</time>
      </trkpt>
      <trkpt lat="46.17691" lon="6.07478">
        <ele>448.3</ele>
        <time>2022-09-27T14:12:34Z</time>
      </trkpt>
      <trkpt lat="46.17693" lon="6.07484">
        <ele>448.3</ele>
        <time>2022-09-27T14:12:35Z</time>
      </trkpt>
      <trkpt lat="46.17694" lon="6.07491">
        <ele>448.3</ele>
        <time>2022-09-27T14:12:36Z</time>
      </trkpt>
      <trkpt lat="46.17696" lon="6.07497">
        <ele>448.3</ele>
        <time>2022-09-27T14:12:37Z</time>
      </trkpt>
      <trkpt lat="46.17696" lon="6.07503">
        <ele>448.3</ele>
        <time>2022-09-27T14:12:38Z</time>
      </trkpt>
      <trkpt lat="46.17697" lon="6.07508">
        <ele>448.3</ele>
        <time>2022-09-27T14:12:39Z</time>
      </trkpt>
      <trkpt lat="46.17699" lon="6.07513">
        <ele>448.3</ele>
        <time>2022-09-27T14:12:40Z</time>
      </trkpt>
      <trkpt lat="46.177" lon="6.0752">
        <ele>448.3</ele>
        <time>2022-09-27T14:12:41Z</time>
      </trkpt>
      <trkpt lat="46.177" lon="6.07526">
        <ele>448.3</ele>
        <time>2022-09-27T14:12:42Z</time>
      </trkpt>
      <trkpt lat="46.17701" lon="6.07531">
        <ele>448.3</ele>
        <time>2022-09-27T14:12:43Z</time>
      </trkpt>
      <trkpt lat="46.17702" lon="6.07537">
        <ele>448.3</ele>
        <time>2022-09-27T14:12:44Z</time>
      </trkpt>
      <trkpt lat="46.17703" lon="6.07543">
        <ele>448.3</ele>
        <time>2022-09-27T14:12:45Z</time>
      </trkpt>
      <trkpt lat="46.17705" lon="6.07548">
        <ele>448.3</ele>
        <time>2022-09-27T14:12:46Z</time>
      </trkpt>
      <trkpt lat="46.17706" lon="6.07553">
        <ele>448.3</ele>
        <time>2022-09-27T14:12:47Z</time>
      </trkpt>
      <trkpt lat="46.17707" lon="6.07557">
        <ele>448.3</ele>
        <time>2022-09-27T14:12:48Z</time>
      </trkpt>
      <trkpt lat="46.17707" lon="6.07564">
        <ele>448.3</ele>
        <time>2022-09-27T14:12:49Z</time>
      </trkpt>
      <trkpt lat="46.17709" lon="6.07569">
        <ele>448.3</ele>
        <time>2022-09-27T14:12:50Z</time>
      </trkpt>
      <trkpt lat="46.1771" lon="6.07573">
        <ele>448.3</ele>
        <time>2022-09-27T14:12:51Z</time>
      </trkpt>
      <trkpt lat="46.17711" lon="6.07577">
        <ele>448.3</ele>
        <time>2022-09-27T14:12:52Z</time>
      </trkpt>
      <trkpt lat="46.17712" lon="6.07582">
        <ele>448.3</ele>
        <time>2022-09-27T14:12:53Z</time>
      </trkpt>
      <trkpt lat="46.17712" lon="6.07583">
        <ele>448.3</ele>
        <time>2022-09-27T14:12:54Z</time>
      </trkpt>
      <trkpt lat="46.17715" lon="6.07587">
        <ele>448.2</ele>
        <time>2022-09-27T14:12:55Z</time>
      </trkpt>
      <trkpt lat="46.17716" lon="6.07589">
        <ele>448.2</ele>
        <time>2022-09-27T14:12:56Z</time>
      </trkpt>
      <trkpt lat="46.17716" lon="6.07591">
        <ele>448.2</ele>
        <time>2022-09-27T14:12:57Z</time>
      </trkpt>
      <trkpt lat="46.17716" lon="6.07593">
        <ele>448.1</ele>
        <time>2022-09-27T14:12:58Z</time>
      </trkpt>
      <trkpt lat="46.17718" lon="6.07596">
        <ele>448.2</ele>
        <time>2022-09-27T14:12:59Z</time>
      </trkpt>
      <trkpt lat="46.17719" lon="6.07597">
        <ele>448.2</ele>
        <time>2022-09-27T14:13:00Z</time>
      </trkpt>
      <trkpt lat="46.1772" lon="6.07601">
        <ele>448.2</ele>
        <time>2022-09-27T14:13:01Z</time>
      </trkpt>
      <trkpt lat="46.1772" lon="6.07605">
        <ele>448.3</ele>
        <time>2022-09-27T14:13:02Z</time>
      </trkpt>
      <trkpt lat="46.1772" lon="6.07607">
        <ele>448.3</ele>
        <time>2022-09-27T14:13:03Z</time>
      </trkpt>
      <trkpt lat="46.17719" lon="6.07611">
        <ele>448.3</ele>
        <time>2022-09-27T14:13:04Z</time>
      </trkpt>
      <trkpt lat="46.17719" lon="6.07612">
        <ele>448.4</ele>
        <time>2022-09-27T14:13:05Z</time>
      </trkpt>
      <trkpt lat="46.17718" lon="6.07617">
        <ele>448.4</ele>
        <time>2022-09-27T14:13:06Z</time>
      </trkpt>
      <trkpt lat="46.17717" lon="6.07618">
        <ele>448.4</ele>
        <time>2022-09-27T14:13:07Z</time>
      </trkpt>
      <trkpt lat="46.17715" lon="6.0762">
        <ele>448.5</ele>
        <time>2022-09-27T14:13:08Z</time>
      </trkpt>
      <trkpt lat="46.17715" lon="6.0762">
        <ele>448.5</ele>
        <time>2022-09-27T14:13:09Z</time>
      </trkpt>
      <trkpt lat="46.17714" lon="6.07621">
        <ele>448.5</ele>
        <time>2022-09-27T14:13:10Z</time>
      </trkpt>
      <trkpt lat="46.17712" lon="6.07624">
        <ele>449.1</ele>
        <time>2022-09-27T14:13:11Z</time>
      </trkpt>
      <trkpt lat="46.17711" lon="6.07625">
        <ele>449.3</ele>
        <time>2022-09-27T14:13:12Z</time>
      </trkpt>
      <trkpt lat="46.17708" lon="6.07627">
        <ele>449.7</ele>
        <time>2022-09-27T14:13:13Z</time>
      </trkpt>
      <trkpt lat="46.17707" lon="6.07629">
        <ele>449.9</ele>
        <time>2022-09-27T14:13:14Z</time>
      </trkpt>
      <trkpt lat="46.17706" lon="6.07632">
        <ele>450.1</ele>
        <time>2022-09-27T14:13:15Z</time>
      </trkpt>
      <trkpt lat="46.17705" lon="6.07636">
        <ele>450</ele>
        <time>2022-09-27T14:13:16Z</time>
      </trkpt>
      <trkpt lat="46.17707" lon="6.0764">
        <ele>449.8</ele>
        <time>2022-09-27T14:13:17Z</time>
      </trkpt>
      <trkpt lat="46.17708" lon="6.07642">
        <ele>449.7</ele>
        <time>2022-09-27T14:13:18Z</time>
      </trkpt>
      <trkpt lat="46.17708" lon="6.07648">
        <ele>449.6</ele>
        <time>2022-09-27T14:13:19Z</time>
      </trkpt>
      <trkpt lat="46.17708" lon="6.07653">
        <ele>449.5</ele>
        <time>2022-09-27T14:13:20Z</time>
      </trkpt>
      <trkpt lat="46.17709" lon="6.07657">
        <ele>449.4</ele>
        <time>2022-09-27T14:13:21Z</time>
      </trkpt>
      <trkpt lat="46.17711" lon="6.07663">
        <ele>449.3</ele>
        <time>2022-09-27T14:13:22Z</time>
      </trkpt>
      <trkpt lat="46.17711" lon="6.0767">
        <ele>449.2</ele>
        <time>2022-09-27T14:13:23Z</time>
      </trkpt>
      <trkpt lat="46.17712" lon="6.07676">
        <ele>449.1</ele>
        <time>2022-09-27T14:13:24Z</time>
      </trkpt>
      <trkpt lat="46.17713" lon="6.07682">
        <ele>449</ele>
        <time>2022-09-27T14:13:25Z</time>
      </trkpt>
      <trkpt lat="46.17715" lon="6.07688">
        <ele>448.9</ele>
        <time>2022-09-27T14:13:26Z</time>
      </trkpt>
      <trkpt lat="46.17717" lon="6.07694">
        <ele>448.8</ele>
        <time>2022-09-27T14:13:27Z</time>
      </trkpt>
      <trkpt lat="46.17718" lon="6.07699">
        <ele>448.8</ele>
        <time>2022-09-27T14:13:28Z</time>
      </trkpt>
      <trkpt lat="46.1772" lon="6.07706">
        <ele>448.6</ele>
        <time>2022-09-27T14:13:29Z</time>
      </trkpt>
      <trkpt lat="46.17717" lon="6.07715">
        <ele>448.4</ele>
        <time>2022-09-27T14:13:30Z</time>
      </trkpt>
      <trkpt lat="46.17718" lon="6.07722">
        <ele>448.3</ele>
        <time>2022-09-27T14:13:31Z</time>
      </trkpt>
      <trkpt lat="46.17719" lon="6.07728">
        <ele>448.1</ele>
        <time>2022-09-27T14:13:32Z</time>
      </trkpt>
      <trkpt lat="46.1772" lon="6.07734">
        <ele>448</ele>
        <time>2022-09-27T14:13:33Z</time>
      </trkpt>
      <trkpt lat="46.17718" lon="6.07741">
        <ele>447.9</ele>
        <time>2022-09-27T14:13:34Z</time>
      </trkpt>
      <trkpt lat="46.1772" lon="6.07748">
        <ele>447.7</ele>
        <time>2022-09-27T14:13:35Z</time>
      </trkpt>
      <trkpt lat="46.17722" lon="6.07754">
        <ele>447.6</ele>
        <time>2022-09-27T14:13:36Z</time>
      </trkpt>
      <trkpt lat="46.17724" lon="6.07761">
        <ele>447.5</ele>
        <time>2022-09-27T14:13:37Z</time>
      </trkpt>
      <trkpt lat="46.17723" lon="6.0777">
        <ele>447.3</ele>
        <time>2022-09-27T14:13:38Z</time>
      </trkpt>
      <trkpt lat="46.17724" lon="6.07778">
        <ele>447.2</ele>
        <time>2022-09-27T14:13:39Z</time>
      </trkpt>
      <trkpt lat="46.17726" lon="6.07783">
        <ele>447</ele>
        <time>2022-09-27T14:13:40Z</time>
      </trkpt>
      <trkpt lat="46.17728" lon="6.07789">
        <ele>447</ele>
        <time>2022-09-27T14:13:41Z</time>
      </trkpt>
      <trkpt lat="46.17729" lon="6.07794">
        <ele>446.9</ele>
        <time>2022-09-27T14:13:42Z</time>
      </trkpt>
      <trkpt lat="46.17731" lon="6.07799">
        <ele>446.8</ele>
        <time>2022-09-27T14:13:43Z</time>
      </trkpt>
      <trkpt lat="46.17733" lon="6.07804">
        <ele>446.7</ele>
        <time>2022-09-27T14:13:44Z</time>
      </trkpt>
      <trkpt lat="46.17734" lon="6.07809">
        <ele>446.7</ele>
        <time>2022-09-27T14:13:45Z</time>
      </trkpt>
      <trkpt lat="46.17733" lon="6.07813">
        <ele>446.6</ele>
        <time>2022-09-27T14:13:46Z</time>
      </trkpt>
      <trkpt lat="46.17732" lon="6.07814">
        <ele>446.6</ele>
        <time>2022-09-27T14:13:47Z</time>
      </trkpt>
      <trkpt lat="46.17728" lon="6.07818">
        <ele>446.7</ele>
        <time>2022-09-27T14:13:48Z</time>
      </trkpt>
      <trkpt lat="46.17725" lon="6.07821">
        <ele>446.7</ele>
        <time>2022-09-27T14:13:49Z</time>
      </trkpt>
      <trkpt lat="46.17722" lon="6.07825">
        <ele>446.7</ele>
        <time>2022-09-27T14:13:50Z</time>
      </trkpt>
      <trkpt lat="46.17719" lon="6.07828">
        <ele>446.7</ele>
        <time>2022-09-27T14:13:51Z</time>
      </trkpt>
      <trkpt lat="46.17717" lon="6.07831">
        <ele>446.7</ele>
        <time>2022-09-27T14:13:52Z</time>
      </trkpt>
      <trkpt lat="46.17715" lon="6.07835">
        <ele>446.8</ele>
        <time>2022-09-27T14:13:53Z</time>
      </trkpt>
      <trkpt lat="46.17714" lon="6.07837">
        <ele>446.8</ele>
        <time>2022-09-27T14:13:54Z</time>
      </trkpt>
      <trkpt lat="46.17711" lon="6.0784">
        <ele>446.8</ele>
        <time>2022-09-27T14:13:56Z</time>
      </trkpt>
      <trkpt lat="46.17709" lon="6.07845">
        <ele>446.8</ele>
        <time>2022-09-27T14:13:57Z</time>
      </trkpt>
      <trkpt lat="46.17708" lon="6.07849">
        <ele>446.9</ele>
        <time>2022-09-27T14:13:58Z</time>
      </trkpt>
      <trkpt lat="46.17706" lon="6.07852">
        <ele>446.9</ele>
        <time>2022-09-27T14:13:59Z</time>
      </trkpt>
      <trkpt lat="46.17704" lon="6.07855">
        <ele>447</ele>
        <time>2022-09-27T14:14:00Z</time>
      </trkpt>
      <trkpt lat="46.17701" lon="6.07857">
        <ele>447</ele>
        <time>2022-09-27T14:14:01Z</time>
      </trkpt>
      <trkpt lat="46.17699" lon="6.0786">
        <ele>447.1</ele>
        <time>2022-09-27T14:14:02Z</time>
      </trkpt>
      <trkpt lat="46.17697" lon="6.07863">
        <ele>447.1</ele>
        <time>2022-09-27T14:14:03Z</time>
      </trkpt>
      <trkpt lat="46.17695" lon="6.07866">
        <ele>447.2</ele>
        <time>2022-09-27T14:14:04Z</time>
      </trkpt>
      <trkpt lat="46.17692" lon="6.0787">
        <ele>447.3</ele>
        <time>2022-09-27T14:14:05Z</time>
      </trkpt>
      <trkpt lat="46.17689" lon="6.07874">
        <ele>447.4</ele>
        <time>2022-09-27T14:14:06Z</time>
      </trkpt>
      <trkpt lat="46.17686" lon="6.07878">
        <ele>447.4</ele>
        <time>2022-09-27T14:14:07Z</time>
      </trkpt>
      <trkpt lat="46.17683" lon="6.07882">
        <ele>447.5</ele>
        <time>2022-09-27T14:14:08Z</time>
      </trkpt>
      <trkpt lat="46.1768" lon="6.07886">
        <ele>447.6</ele>
        <time>2022-09-27T14:14:09Z</time>
      </trkpt>
      <trkpt lat="46.17678" lon="6.07888">
        <ele>447.6</ele>
        <time>2022-09-27T14:14:10Z</time>
      </trkpt>
      <trkpt lat="46.17674" lon="6.07892">
        <ele>447.7</ele>
        <time>2022-09-27T14:14:11Z</time>
      </trkpt>
      <trkpt lat="46.17671" lon="6.07895">
        <ele>447.8</ele>
        <time>2022-09-27T14:14:12Z</time>
      </trkpt>
      <trkpt lat="46.17668" lon="6.07898">
        <ele>447.8</ele>
        <time>2022-09-27T14:14:13Z</time>
      </trkpt>
      <trkpt lat="46.17665" lon="6.07901">
        <ele>447.9</ele>
        <time>2022-09-27T14:14:14Z</time>
      </trkpt>
      <trkpt lat="46.17662" lon="6.07903">
        <ele>447.9</ele>
        <time>2022-09-27T14:14:15Z</time>
      </trkpt>
      <trkpt lat="46.17659" lon="6.07906">
        <ele>448</ele>
        <time>2022-09-27T14:14:16Z</time>
      </trkpt>
      <trkpt lat="46.17656" lon="6.07908">
        <ele>448</ele>
        <time>2022-09-27T14:14:17Z</time>
      </trkpt>
      <trkpt lat="46.17654" lon="6.07911">
        <ele>448.1</ele>
        <time>2022-09-27T14:14:18Z</time>
      </trkpt>
      <trkpt lat="46.17651" lon="6.07913">
        <ele>448.1</ele>
        <time>2022-09-27T14:14:19Z</time>
      </trkpt>
      <trkpt lat="46.17649" lon="6.07915">
        <ele>448.2</ele>
        <time>2022-09-27T14:14:20Z</time>
      </trkpt>
      <trkpt lat="46.17646" lon="6.07916">
        <ele>448.2</ele>
        <time>2022-09-27T14:14:21Z</time>
      </trkpt>
      <trkpt lat="46.17642" lon="6.07917">
        <ele>448.3</ele>
        <time>2022-09-27T14:14:22Z</time>
      </trkpt>
      <trkpt lat="46.17638" lon="6.0792">
        <ele>448.3</ele>
        <time>2022-09-27T14:14:23Z</time>
      </trkpt>
      <trkpt lat="46.17636" lon="6.0792">
        <ele>448.3</ele>
        <time>2022-09-27T14:14:24Z</time>
      </trkpt>
      <trkpt lat="46.17632" lon="6.07922">
        <ele>448.4</ele>
        <time>2022-09-27T14:14:25Z</time>
      </trkpt>
      <trkpt lat="46.17629" lon="6.07923">
        <ele>448.4</ele>
        <time>2022-09-27T14:14:26Z</time>
      </trkpt>
      <trkpt lat="46.17626" lon="6.07924">
        <ele>448.5</ele>
        <time>2022-09-27T14:14:27Z</time>
      </trkpt>
      <trkpt lat="46.17623" lon="6.07925">
        <ele>448.5</ele>
        <time>2022-09-27T14:14:28Z</time>
      </trkpt>
      <trkpt lat="46.17619" lon="6.07927">
        <ele>448.6</ele>
        <time>2022-09-27T14:14:29Z</time>
      </trkpt>
      <trkpt lat="46.17616" lon="6.07929">
        <ele>448.6</ele>
        <time>2022-09-27T14:14:30Z</time>
      </trkpt>
      <trkpt lat="46.17612" lon="6.07931">
        <ele>448.7</ele>
        <time>2022-09-27T14:14:31Z</time>
      </trkpt>
      <trkpt lat="46.1761" lon="6.07931">
        <ele>448.7</ele>
        <time>2022-09-27T14:14:32Z</time>
      </trkpt>
      <trkpt lat="46.17607" lon="6.07931">
        <ele>448.7</ele>
        <time>2022-09-27T14:14:33Z</time>
      </trkpt>
      <trkpt lat="46.17603" lon="6.07933">
        <ele>448.8</ele>
        <time>2022-09-27T14:14:34Z</time>
      </trkpt>
      <trkpt lat="46.176" lon="6.07934">
        <ele>448.8</ele>
        <time>2022-09-27T14:14:35Z</time>
      </trkpt>
      <trkpt lat="46.17596" lon="6.07936">
        <ele>448.8</ele>
        <time>2022-09-27T14:14:36Z</time>
      </trkpt>
      <trkpt lat="46.17593" lon="6.07937">
        <ele>448.8</ele>
        <time>2022-09-27T14:14:37Z</time>
      </trkpt>
      <trkpt lat="46.17589" lon="6.07938">
        <ele>448.8</ele>
        <time>2022-09-27T14:14:38Z</time>
      </trkpt>
      <trkpt lat="46.17586" lon="6.07939">
        <ele>448.8</ele>
        <time>2022-09-27T14:14:39Z</time>
      </trkpt>
      <trkpt lat="46.17584" lon="6.07942">
        <ele>448.8</ele>
        <time>2022-09-27T14:14:40Z</time>
      </trkpt>
      <trkpt lat="46.17581" lon="6.07943">
        <ele>448.8</ele>
        <time>2022-09-27T14:14:41Z</time>
      </trkpt>
      <trkpt lat="46.17577" lon="6.07944">
        <ele>448.8</ele>
        <time>2022-09-27T14:14:42Z</time>
      </trkpt>
      <trkpt lat="46.17574" lon="6.07946">
        <ele>448.8</ele>
        <time>2022-09-27T14:14:43Z</time>
      </trkpt>
      <trkpt lat="46.1757" lon="6.07948">
        <ele>448.8</ele>
        <time>2022-09-27T14:14:44Z</time>
      </trkpt>
      <trkpt lat="46.17566" lon="6.0795">
        <ele>448.9</ele>
        <time>2022-09-27T14:14:45Z</time>
      </trkpt>
      <trkpt lat="46.17563" lon="6.07953">
        <ele>448.9</ele>
        <time>2022-09-27T14:14:46Z</time>
      </trkpt>
      <trkpt lat="46.17562" lon="6.07955">
        <ele>448.9</ele>
        <time>2022-09-27T14:14:47Z</time>
      </trkpt>
      <trkpt lat="46.17558" lon="6.07957">
        <ele>448.9</ele>
        <time>2022-09-27T14:14:48Z</time>
      </trkpt>
      <trkpt lat="46.17555" lon="6.0796">
        <ele>448.9</ele>
        <time>2022-09-27T14:14:49Z</time>
      </trkpt>
      <trkpt lat="46.17552" lon="6.07963">
        <ele>449</ele>
        <time>2022-09-27T14:14:50Z</time>
      </trkpt>
      <trkpt lat="46.17549" lon="6.07965">
        <ele>449</ele>
        <time>2022-09-27T14:14:51Z</time>
      </trkpt>
      <trkpt lat="46.17546" lon="6.07966">
        <ele>449</ele>
        <time>2022-09-27T14:14:52Z</time>
      </trkpt>
      <trkpt lat="46.17542" lon="6.07968">
        <ele>449.1</ele>
        <time>2022-09-27T14:14:53Z</time>
      </trkpt>
      <trkpt lat="46.1754" lon="6.07971">
        <ele>449.1</ele>
        <time>2022-09-27T14:14:54Z</time>
      </trkpt>
      <trkpt lat="46.17536" lon="6.07973">
        <ele>449.1</ele>
        <time>2022-09-27T14:14:55Z</time>
      </trkpt>
      <trkpt lat="46.17533" lon="6.07976">
        <ele>449.2</ele>
        <time>2022-09-27T14:14:56Z</time>
      </trkpt>
      <trkpt lat="46.1753" lon="6.07979">
        <ele>449.2</ele>
        <time>2022-09-27T14:14:57Z</time>
      </trkpt>
      <trkpt lat="46.17528" lon="6.07982">
        <ele>449.3</ele>
        <time>2022-09-27T14:14:58Z</time>
      </trkpt>
      <trkpt lat="46.17526" lon="6.07986">
        <ele>449.3</ele>
        <time>2022-09-27T14:14:59Z</time>
      </trkpt>
      <trkpt lat="46.17525" lon="6.07987">
        <ele>449.3</ele>
        <time>2022-09-27T14:15:00Z</time>
      </trkpt>
      <trkpt lat="46.17521" lon="6.07988">
        <ele>449.4</ele>
        <time>2022-09-27T14:15:01Z</time>
      </trkpt>
      <trkpt lat="46.17519" lon="6.0799">
        <ele>449.4</ele>
        <time>2022-09-27T14:15:02Z</time>
      </trkpt>
      <trkpt lat="46.17516" lon="6.07993">
        <ele>449.5</ele>
        <time>2022-09-27T14:15:03Z</time>
      </trkpt>
      <trkpt lat="46.17513" lon="6.07994">
        <ele>449.5</ele>
        <time>2022-09-27T14:15:04Z</time>
      </trkpt>
      <trkpt lat="46.17512" lon="6.07994">
        <ele>449.5</ele>
        <time>2022-09-27T14:15:05Z</time>
      </trkpt>
      <trkpt lat="46.17509" lon="6.07995">
        <ele>449.6</ele>
        <time>2022-09-27T14:15:06Z</time>
      </trkpt>
      <trkpt lat="46.17505" lon="6.07997">
        <ele>449.6</ele>
        <time>2022-09-27T14:15:07Z</time>
      </trkpt>
      <trkpt lat="46.17504" lon="6.07997">
        <ele>449.7</ele>
        <time>2022-09-27T14:15:08Z</time>
      </trkpt>
      <trkpt lat="46.17501" lon="6.08">
        <ele>449.7</ele>
        <time>2022-09-27T14:15:09Z</time>
      </trkpt>
      <trkpt lat="46.17499" lon="6.08002">
        <ele>449.8</ele>
        <time>2022-09-27T14:15:10Z</time>
      </trkpt>
      <trkpt lat="46.17496" lon="6.08004">
        <ele>449.8</ele>
        <time>2022-09-27T14:15:11Z</time>
      </trkpt>
      <trkpt lat="46.1749" lon="6.08009">
        <ele>449.9</ele>
        <time>2022-09-27T14:15:12Z</time>
      </trkpt>
      <trkpt lat="46.17488" lon="6.08011">
        <ele>450</ele>
        <time>2022-09-27T14:15:13Z</time>
      </trkpt>
      <trkpt lat="46.17485" lon="6.08013">
        <ele>450.1</ele>
        <time>2022-09-27T14:15:14Z</time>
      </trkpt>
      <trkpt lat="46.17482" lon="6.08016">
        <ele>450.1</ele>
        <time>2022-09-27T14:15:15Z</time>
      </trkpt>
      <trkpt lat="46.17479" lon="6.08018">
        <ele>450.2</ele>
        <time>2022-09-27T14:15:16Z</time>
      </trkpt>
      <trkpt lat="46.17478" lon="6.08019">
        <ele>450.2</ele>
        <time>2022-09-27T14:15:17Z</time>
      </trkpt>
      <trkpt lat="46.17476" lon="6.08022">
        <ele>450.2</ele>
        <time>2022-09-27T14:15:18Z</time>
      </trkpt>
      <trkpt lat="46.17474" lon="6.08023">
        <ele>450.3</ele>
        <time>2022-09-27T14:15:19Z</time>
      </trkpt>
      <trkpt lat="46.1747" lon="6.08027">
        <ele>450.4</ele>
        <time>2022-09-27T14:15:20Z</time>
      </trkpt>
      <trkpt lat="46.17467" lon="6.08029">
        <ele>450.4</ele>
        <time>2022-09-27T14:15:21Z</time>
      </trkpt>
      <trkpt lat="46.17464" lon="6.08031">
        <ele>450.5</ele>
        <time>2022-09-27T14:15:22Z</time>
      </trkpt>
      <trkpt lat="46.17461" lon="6.08034">
        <ele>450.5</ele>
        <time>2022-09-27T14:15:23Z</time>
      </trkpt>
      <trkpt lat="46.17458" lon="6.08037">
        <ele>450.6</ele>
        <time>2022-09-27T14:15:24Z</time>
      </trkpt>
      <trkpt lat="46.17455" lon="6.08038">
        <ele>450.7</ele>
        <time>2022-09-27T14:15:25Z</time>
      </trkpt>
      <trkpt lat="46.17452" lon="6.0804">
        <ele>450.7</ele>
        <time>2022-09-27T14:15:26Z</time>
      </trkpt>
      <trkpt lat="46.17448" lon="6.08042">
        <ele>450.8</ele>
        <time>2022-09-27T14:15:27Z</time>
      </trkpt>
      <trkpt lat="46.17445" lon="6.08043">
        <ele>450.8</ele>
        <time>2022-09-27T14:15:28Z</time>
      </trkpt>
      <trkpt lat="46.17441" lon="6.08045">
        <ele>450.9</ele>
        <time>2022-09-27T14:15:29Z</time>
      </trkpt>
      <trkpt lat="46.17438" lon="6.08047">
        <ele>451</ele>
        <time>2022-09-27T14:15:30Z</time>
      </trkpt>
      <trkpt lat="46.17434" lon="6.08048">
        <ele>451</ele>
        <time>2022-09-27T14:15:31Z</time>
      </trkpt>
      <trkpt lat="46.17431" lon="6.0805">
        <ele>451.1</ele>
        <time>2022-09-27T14:15:32Z</time>
      </trkpt>
      <trkpt lat="46.17427" lon="6.08051">
        <ele>451.1</ele>
        <time>2022-09-27T14:15:33Z</time>
      </trkpt>
      <trkpt lat="46.17424" lon="6.08054">
        <ele>451.2</ele>
        <time>2022-09-27T14:15:34Z</time>
      </trkpt>
      <trkpt lat="46.17421" lon="6.08054">
        <ele>451.2</ele>
        <time>2022-09-27T14:15:35Z</time>
      </trkpt>
      <trkpt lat="46.17418" lon="6.08055">
        <ele>451.3</ele>
        <time>2022-09-27T14:15:36Z</time>
      </trkpt>
      <trkpt lat="46.17415" lon="6.08055">
        <ele>451.3</ele>
        <time>2022-09-27T14:15:37Z</time>
      </trkpt>
      <trkpt lat="46.17411" lon="6.08055">
        <ele>451.3</ele>
        <time>2022-09-27T14:15:38Z</time>
      </trkpt>
      <trkpt lat="46.17408" lon="6.08055">
        <ele>451.3</ele>
        <time>2022-09-27T14:15:39Z</time>
      </trkpt>
      <trkpt lat="46.17404" lon="6.08055">
        <ele>451.4</ele>
        <time>2022-09-27T14:15:40Z</time>
      </trkpt>
      <trkpt lat="46.17401" lon="6.08054">
        <ele>451.4</ele>
        <time>2022-09-27T14:15:41Z</time>
      </trkpt>
      <trkpt lat="46.17398" lon="6.08053">
        <ele>451.4</ele>
        <time>2022-09-27T14:15:42Z</time>
      </trkpt>
      <trkpt lat="46.17394" lon="6.08052">
        <ele>451.5</ele>
        <time>2022-09-27T14:15:43Z</time>
      </trkpt>
      <trkpt lat="46.17391" lon="6.0805">
        <ele>451.5</ele>
        <time>2022-09-27T14:15:44Z</time>
      </trkpt>
      <trkpt lat="46.17388" lon="6.08047">
        <ele>451.5</ele>
        <time>2022-09-27T14:15:45Z</time>
      </trkpt>
      <trkpt lat="46.17385" lon="6.08044">
        <ele>451.6</ele>
        <time>2022-09-27T14:15:46Z</time>
      </trkpt>
      <trkpt lat="46.17382" lon="6.08042">
        <ele>451.6</ele>
        <time>2022-09-27T14:15:47Z</time>
      </trkpt>
      <trkpt lat="46.1738" lon="6.08039">
        <ele>451.6</ele>
        <time>2022-09-27T14:15:48Z</time>
      </trkpt>
      <trkpt lat="46.17377" lon="6.08037">
        <ele>451.7</ele>
        <time>2022-09-27T14:15:49Z</time>
      </trkpt>
      <trkpt lat="46.17374" lon="6.08033">
        <ele>451.7</ele>
        <time>2022-09-27T14:15:50Z</time>
      </trkpt>
      <trkpt lat="46.17373" lon="6.08032">
        <ele>451.7</ele>
        <time>2022-09-27T14:15:51Z</time>
      </trkpt>
      <trkpt lat="46.17369" lon="6.0803">
        <ele>451.8</ele>
        <time>2022-09-27T14:15:52Z</time>
      </trkpt>
      <trkpt lat="46.17366" lon="6.08028">
        <ele>451.8</ele>
        <time>2022-09-27T14:15:53Z</time>
      </trkpt>
      <trkpt lat="46.17362" lon="6.08027">
        <ele>451.8</ele>
        <time>2022-09-27T14:15:54Z</time>
      </trkpt>
      <trkpt lat="46.17358" lon="6.08027">
        <ele>451.8</ele>
        <time>2022-09-27T14:15:55Z</time>
      </trkpt>
      <trkpt lat="46.17355" lon="6.08027">
        <ele>451.8</ele>
        <time>2022-09-27T14:15:56Z</time>
      </trkpt>
      <trkpt lat="46.17352" lon="6.08028">
        <ele>451.8</ele>
        <time>2022-09-27T14:15:57Z</time>
      </trkpt>
      <trkpt lat="46.17348" lon="6.08027">
        <ele>451.7</ele>
        <time>2022-09-27T14:15:58Z</time>
      </trkpt>
      <trkpt lat="46.17344" lon="6.08028">
        <ele>451.7</ele>
        <time>2022-09-27T14:15:59Z</time>
      </trkpt>
      <trkpt lat="46.1734" lon="6.08028">
        <ele>451.7</ele>
        <time>2022-09-27T14:16:00Z</time>
      </trkpt>
      <trkpt lat="46.17336" lon="6.08028">
        <ele>451.6</ele>
        <time>2022-09-27T14:16:02Z</time>
      </trkpt>
      <trkpt lat="46.17332" lon="6.08029">
        <ele>451.6</ele>
        <time>2022-09-27T14:16:03Z</time>
      </trkpt>
      <trkpt lat="46.17327" lon="6.08032">
        <ele>451.5</ele>
        <time>2022-09-27T14:16:04Z</time>
      </trkpt>
      <trkpt lat="46.17323" lon="6.08035">
        <ele>451.5</ele>
        <time>2022-09-27T14:16:05Z</time>
      </trkpt>
      <trkpt lat="46.1732" lon="6.08037">
        <ele>451.4</ele>
        <time>2022-09-27T14:16:06Z</time>
      </trkpt>
      <trkpt lat="46.17316" lon="6.0804">
        <ele>451.3</ele>
        <time>2022-09-27T14:16:07Z</time>
      </trkpt>
      <trkpt lat="46.17312" lon="6.08041">
        <ele>451.3</ele>
        <time>2022-09-27T14:16:08Z</time>
      </trkpt>
      <trkpt lat="46.17307" lon="6.0804">
        <ele>451.2</ele>
        <time>2022-09-27T14:16:09Z</time>
      </trkpt>
      <trkpt lat="46.17303" lon="6.08042">
        <ele>451.1</ele>
        <time>2022-09-27T14:16:10Z</time>
      </trkpt>
      <trkpt lat="46.17298" lon="6.08045">
        <ele>451</ele>
        <time>2022-09-27T14:16:11Z</time>
      </trkpt>
      <trkpt lat="46.17294" lon="6.08047">
        <ele>450.9</ele>
        <time>2022-09-27T14:16:12Z</time>
      </trkpt>
      <trkpt lat="46.17291" lon="6.08049">
        <ele>450.8</ele>
        <time>2022-09-27T14:16:13Z</time>
      </trkpt>
      <trkpt lat="46.17288" lon="6.08049">
        <ele>450.7</ele>
        <time>2022-09-27T14:16:14Z</time>
      </trkpt>
      <trkpt lat="46.17284" lon="6.08052">
        <ele>450.6</ele>
        <time>2022-09-27T14:16:15Z</time>
      </trkpt>
      <trkpt lat="46.17282" lon="6.08055">
        <ele>450.5</ele>
        <time>2022-09-27T14:16:16Z</time>
      </trkpt>
      <trkpt lat="46.17281" lon="6.08057">
        <ele>450.4</ele>
        <time>2022-09-27T14:16:17Z</time>
      </trkpt>
      <trkpt lat="46.17278" lon="6.0806">
        <ele>450.2</ele>
        <time>2022-09-27T14:16:18Z</time>
      </trkpt>
      <trkpt lat="46.17276" lon="6.08064">
        <ele>450</ele>
        <time>2022-09-27T14:16:19Z</time>
      </trkpt>
      <trkpt lat="46.17273" lon="6.08069">
        <ele>449.7</ele>
        <time>2022-09-27T14:16:20Z</time>
      </trkpt>
      <trkpt lat="46.1727" lon="6.08075">
        <ele>449.4</ele>
        <time>2022-09-27T14:16:21Z</time>
      </trkpt>
      <trkpt lat="46.17267" lon="6.08081">
        <ele>449.1</ele>
        <time>2022-09-27T14:16:22Z</time>
      </trkpt>
      <trkpt lat="46.17264" lon="6.08087">
        <ele>448.8</ele>
        <time>2022-09-27T14:16:23Z</time>
      </trkpt>
      <trkpt lat="46.17262" lon="6.08093">
        <ele>448.5</ele>
        <time>2022-09-27T14:16:24Z</time>
      </trkpt>
      <trkpt lat="46.17259" lon="6.08098">
        <ele>448.2</ele>
        <time>2022-09-27T14:16:25Z</time>
      </trkpt>
      <trkpt lat="46.17257" lon="6.08104">
        <ele>447.8</ele>
        <time>2022-09-27T14:16:26Z</time>
      </trkpt>
      <trkpt lat="46.17253" lon="6.0811">
        <ele>447.3</ele>
        <time>2022-09-27T14:16:27Z</time>
      </trkpt>
      <trkpt lat="46.1725" lon="6.08117">
        <ele>446.8</ele>
        <time>2022-09-27T14:16:28Z</time>
      </trkpt>
      <trkpt lat="46.17247" lon="6.08124">
        <ele>446.2</ele>
        <time>2022-09-27T14:16:29Z</time>
      </trkpt>
      <trkpt lat="46.17244" lon="6.08131">
        <ele>445.8</ele>
        <time>2022-09-27T14:16:30Z</time>
      </trkpt>
      <trkpt lat="46.17242" lon="6.08137">
        <ele>445.3</ele>
        <time>2022-09-27T14:16:31Z</time>
      </trkpt>
      <trkpt lat="46.1724" lon="6.08141">
        <ele>445</ele>
        <time>2022-09-27T14:16:32Z</time>
      </trkpt>
      <trkpt lat="46.1724" lon="6.08146">
        <ele>444.7</ele>
        <time>2022-09-27T14:16:33Z</time>
      </trkpt>
      <trkpt lat="46.1724" lon="6.0815">
        <ele>444.4</ele>
        <time>2022-09-27T14:16:34Z</time>
      </trkpt>
      <trkpt lat="46.1724" lon="6.08156">
        <ele>444.1</ele>
        <time>2022-09-27T14:16:35Z</time>
      </trkpt>
      <trkpt lat="46.1724" lon="6.08158">
        <ele>444</ele>
        <time>2022-09-27T14:16:36Z</time>
      </trkpt>
      <trkpt lat="46.17239" lon="6.08161">
        <ele>443.7</ele>
        <time>2022-09-27T14:16:37Z</time>
      </trkpt>
      <trkpt lat="46.17239" lon="6.08165">
        <ele>443.4</ele>
        <time>2022-09-27T14:16:38Z</time>
      </trkpt>
      <trkpt lat="46.17238" lon="6.0817">
        <ele>443.4</ele>
        <time>2022-09-27T14:16:39Z</time>
      </trkpt>
      <trkpt lat="46.17237" lon="6.08177">
        <ele>443.3</ele>
        <time>2022-09-27T14:16:40Z</time>
      </trkpt>
      <trkpt lat="46.17235" lon="6.08183">
        <ele>442.8</ele>
        <time>2022-09-27T14:16:41Z</time>
      </trkpt>
      <trkpt lat="46.17235" lon="6.08191">
        <ele>442.2</ele>
        <time>2022-09-27T14:16:42Z</time>
      </trkpt>
      <trkpt lat="46.17234" lon="6.08199">
        <ele>441.5</ele>
        <time>2022-09-27T14:16:43Z</time>
      </trkpt>
      <trkpt lat="46.17233" lon="6.08206">
        <ele>441</ele>
        <time>2022-09-27T14:16:44Z</time>
      </trkpt>
      <trkpt lat="46.17232" lon="6.08212">
        <ele>440.4</ele>
        <time>2022-09-27T14:16:45Z</time>
      </trkpt>
      <trkpt lat="46.17229" lon="6.08217">
        <ele>440</ele>
        <time>2022-09-27T14:16:46Z</time>
      </trkpt>
      <trkpt lat="46.1723" lon="6.08223">
        <ele>439.5</ele>
        <time>2022-09-27T14:16:47Z</time>
      </trkpt>
      <trkpt lat="46.17228" lon="6.08228">
        <ele>439.1</ele>
        <time>2022-09-27T14:16:48Z</time>
      </trkpt>
      <trkpt lat="46.17227" lon="6.08231">
        <ele>438.8</ele>
        <time>2022-09-27T14:16:49Z</time>
      </trkpt>
      <trkpt lat="46.17224" lon="6.08235">
        <ele>438.5</ele>
        <time>2022-09-27T14:16:50Z</time>
      </trkpt>
      <trkpt lat="46.17222" lon="6.08236">
        <ele>438.4</ele>
        <time>2022-09-27T14:16:51Z</time>
      </trkpt>
      <trkpt lat="46.1722" lon="6.08239">
        <ele>438.2</ele>
        <time>2022-09-27T14:16:52Z</time>
      </trkpt>
      <trkpt lat="46.17219" lon="6.0824">
        <ele>438.1</ele>
        <time>2022-09-27T14:16:53Z</time>
      </trkpt>
      <trkpt lat="46.17216" lon="6.08243">
        <ele>437.9</ele>
        <time>2022-09-27T14:16:54Z</time>
      </trkpt>
      <trkpt lat="46.17215" lon="6.08243">
        <ele>437.8</ele>
        <time>2022-09-27T14:16:55Z</time>
      </trkpt>
      <trkpt lat="46.17213" lon="6.08244">
        <ele>437.7</ele>
        <time>2022-09-27T14:16:56Z</time>
      </trkpt>
      <trkpt lat="46.17212" lon="6.08245">
        <ele>437.7</ele>
        <time>2022-09-27T14:16:57Z</time>
      </trkpt>
      <trkpt lat="46.17211" lon="6.08247">
        <ele>437.5</ele>
        <time>2022-09-27T14:16:58Z</time>
      </trkpt>
      <trkpt lat="46.17211" lon="6.08248">
        <ele>437.5</ele>
        <time>2022-09-27T14:16:59Z</time>
      </trkpt>
      <trkpt lat="46.1721" lon="6.08249">
        <ele>437.5</ele>
        <time>2022-09-27T14:17:00Z</time>
      </trkpt>
      <trkpt lat="46.1721" lon="6.0825">
        <ele>437.4</ele>
        <time>2022-09-27T14:17:01Z</time>
      </trkpt>
      <trkpt lat="46.17209" lon="6.08255">
        <ele>437.2</ele>
        <time>2022-09-27T14:17:02Z</time>
      </trkpt>
      <trkpt lat="46.1721" lon="6.08257">
        <ele>437.1</ele>
        <time>2022-09-27T14:17:03Z</time>
      </trkpt>
      <trkpt lat="46.17212" lon="6.08261">
        <ele>436.9</ele>
        <time>2022-09-27T14:17:04Z</time>
      </trkpt>
      <trkpt lat="46.17216" lon="6.08264">
        <ele>436.7</ele>
        <time>2022-09-27T14:17:05Z</time>
      </trkpt>
      <trkpt lat="46.17219" lon="6.08266">
        <ele>436.5</ele>
        <time>2022-09-27T14:17:06Z</time>
      </trkpt>
      <trkpt lat="46.17222" lon="6.08268">
        <ele>436.4</ele>
        <time>2022-09-27T14:17:07Z</time>
      </trkpt>
      <trkpt lat="46.17224" lon="6.08272">
        <ele>436.3</ele>
        <time>2022-09-27T14:17:08Z</time>
      </trkpt>
      <trkpt lat="46.17227" lon="6.08274">
        <ele>436.2</ele>
        <time>2022-09-27T14:17:09Z</time>
      </trkpt>
      <trkpt lat="46.1723" lon="6.08279">
        <ele>436</ele>
        <time>2022-09-27T14:17:10Z</time>
      </trkpt>
      <trkpt lat="46.17233" lon="6.08282">
        <ele>435.9</ele>
        <time>2022-09-27T14:17:11Z</time>
      </trkpt>
      <trkpt lat="46.17236" lon="6.08287">
        <ele>435.8</ele>
        <time>2022-09-27T14:17:12Z</time>
      </trkpt>
      <trkpt lat="46.17241" lon="6.08296">
        <ele>435.7</ele>
        <time>2022-09-27T14:17:13Z</time>
      </trkpt>
      <trkpt lat="46.17244" lon="6.08302">
        <ele>435.6</ele>
        <time>2022-09-27T14:17:14Z</time>
      </trkpt>
      <trkpt lat="46.17246" lon="6.08309">
        <ele>435.5</ele>
        <time>2022-09-27T14:17:15Z</time>
      </trkpt>
      <trkpt lat="46.1725" lon="6.08315">
        <ele>435.4</ele>
        <time>2022-09-27T14:17:16Z</time>
      </trkpt>
      <trkpt lat="46.17253" lon="6.08322">
        <ele>435.2</ele>
        <time>2022-09-27T14:17:17Z</time>
      </trkpt>
      <trkpt lat="46.17256" lon="6.08328">
        <ele>435.1</ele>
        <time>2022-09-27T14:17:18Z</time>
      </trkpt>
      <trkpt lat="46.1726" lon="6.08335">
        <ele>435</ele>
        <time>2022-09-27T14:17:19Z</time>
      </trkpt>
      <trkpt lat="46.17263" lon="6.08342">
        <ele>434.8</ele>
        <time>2022-09-27T14:17:20Z</time>
      </trkpt>
      <trkpt lat="46.17267" lon="6.08349">
        <ele>434.7</ele>
        <time>2022-09-27T14:17:21Z</time>
      </trkpt>
      <trkpt lat="46.1727" lon="6.08356">
        <ele>434.5</ele>
        <time>2022-09-27T14:17:22Z</time>
      </trkpt>
      <trkpt lat="46.17274" lon="6.08363">
        <ele>434.4</ele>
        <time>2022-09-27T14:17:23Z</time>
      </trkpt>
      <trkpt lat="46.17278" lon="6.08371">
        <ele>434.2</ele>
        <time>2022-09-27T14:17:24Z</time>
      </trkpt>
      <trkpt lat="46.17282" lon="6.08378">
        <ele>434</ele>
        <time>2022-09-27T14:17:25Z</time>
      </trkpt>
      <trkpt lat="46.17286" lon="6.08386">
        <ele>433.8</ele>
        <time>2022-09-27T14:17:26Z</time>
      </trkpt>
      <trkpt lat="46.1729" lon="6.08392">
        <ele>433.5</ele>
        <time>2022-09-27T14:17:27Z</time>
      </trkpt>
      <trkpt lat="46.17294" lon="6.08399">
        <ele>433.3</ele>
        <time>2022-09-27T14:17:28Z</time>
      </trkpt>
      <trkpt lat="46.173" lon="6.08407">
        <ele>433.1</ele>
        <time>2022-09-27T14:17:29Z</time>
      </trkpt>
      <trkpt lat="46.17305" lon="6.08414">
        <ele>433</ele>
        <time>2022-09-27T14:17:30Z</time>
      </trkpt>
      <trkpt lat="46.1731" lon="6.0842">
        <ele>432.8</ele>
        <time>2022-09-27T14:17:31Z</time>
      </trkpt>
      <trkpt lat="46.17314" lon="6.0843">
        <ele>432.8</ele>
        <time>2022-09-27T14:17:32Z</time>
      </trkpt>
      <trkpt lat="46.17319" lon="6.08438">
        <ele>432.8</ele>
        <time>2022-09-27T14:17:33Z</time>
      </trkpt>
      <trkpt lat="46.17325" lon="6.08445">
        <ele>432.8</ele>
        <time>2022-09-27T14:17:34Z</time>
      </trkpt>
      <trkpt lat="46.17331" lon="6.0845">
        <ele>432.9</ele>
        <time>2022-09-27T14:17:35Z</time>
      </trkpt>
      <trkpt lat="46.17335" lon="6.08456">
        <ele>433.1</ele>
        <time>2022-09-27T14:17:36Z</time>
      </trkpt>
      <trkpt lat="46.1734" lon="6.0846">
        <ele>433.2</ele>
        <time>2022-09-27T14:17:37Z</time>
      </trkpt>
      <trkpt lat="46.17344" lon="6.08465">
        <ele>433.3</ele>
        <time>2022-09-27T14:17:38Z</time>
      </trkpt>
      <trkpt lat="46.17348" lon="6.08468">
        <ele>433.4</ele>
        <time>2022-09-27T14:17:39Z</time>
      </trkpt>
      <trkpt lat="46.17351" lon="6.08471">
        <ele>433.5</ele>
        <time>2022-09-27T14:17:40Z</time>
      </trkpt>
      <trkpt lat="46.17355" lon="6.08476">
        <ele>433.6</ele>
        <time>2022-09-27T14:17:41Z</time>
      </trkpt>
      <trkpt lat="46.17359" lon="6.0848">
        <ele>433.7</ele>
        <time>2022-09-27T14:17:42Z</time>
      </trkpt>
      <trkpt lat="46.17362" lon="6.08483">
        <ele>433.7</ele>
        <time>2022-09-27T14:17:43Z</time>
      </trkpt>
      <trkpt lat="46.17365" lon="6.08486">
        <ele>433.7</ele>
        <time>2022-09-27T14:17:44Z</time>
      </trkpt>
      <trkpt lat="46.17366" lon="6.08491">
        <ele>433.7</ele>
        <time>2022-09-27T14:17:45Z</time>
      </trkpt>
      <trkpt lat="46.17367" lon="6.08493">
        <ele>433.5</ele>
        <time>2022-09-27T14:17:46Z</time>
      </trkpt>
      <trkpt lat="46.17367" lon="6.08497">
        <ele>433.3</ele>
        <time>2022-09-27T14:17:47Z</time>
      </trkpt>
      <trkpt lat="46.17367" lon="6.08501">
        <ele>433</ele>
        <time>2022-09-27T14:17:48Z</time>
      </trkpt>
      <trkpt lat="46.17367" lon="6.08502">
        <ele>432.9</ele>
        <time>2022-09-27T14:17:49Z</time>
      </trkpt>
      <trkpt lat="46.17365" lon="6.08506">
        <ele>432.6</ele>
        <time>2022-09-27T14:17:50Z</time>
      </trkpt>
      <trkpt lat="46.17362" lon="6.0851">
        <ele>432.1</ele>
        <time>2022-09-27T14:17:51Z</time>
      </trkpt>
      <trkpt lat="46.1736" lon="6.08512">
        <ele>431.9</ele>
        <time>2022-09-27T14:17:52Z</time>
      </trkpt>
      <trkpt lat="46.17358" lon="6.08516">
        <ele>431.5</ele>
        <time>2022-09-27T14:17:53Z</time>
      </trkpt>
      <trkpt lat="46.17355" lon="6.0852">
        <ele>431</ele>
        <time>2022-09-27T14:17:54Z</time>
      </trkpt>
      <trkpt lat="46.17354" lon="6.08522">
        <ele>430.8</ele>
        <time>2022-09-27T14:17:55Z</time>
      </trkpt>
      <trkpt lat="46.17352" lon="6.08525">
        <ele>430.5</ele>
        <time>2022-09-27T14:17:56Z</time>
      </trkpt>
      <trkpt lat="46.1735" lon="6.08527">
        <ele>430.1</ele>
        <time>2022-09-27T14:17:57Z</time>
      </trkpt>
      <trkpt lat="46.17349" lon="6.08529">
        <ele>429.9</ele>
        <time>2022-09-27T14:17:58Z</time>
      </trkpt>
      <trkpt lat="46.17346" lon="6.08532">
        <ele>429.5</ele>
        <time>2022-09-27T14:17:59Z</time>
      </trkpt>
      <trkpt lat="46.17344" lon="6.08537">
        <ele>428.3</ele>
        <time>2022-09-27T14:18:00Z</time>
      </trkpt>
      <trkpt lat="46.17343" lon="6.08541">
        <ele>428.3</ele>
        <time>2022-09-27T14:18:01Z</time>
      </trkpt>
      <trkpt lat="46.17343" lon="6.08546">
        <ele>428.3</ele>
        <time>2022-09-27T14:18:02Z</time>
      </trkpt>
      <trkpt lat="46.17344" lon="6.08551">
        <ele>427.5</ele>
        <time>2022-09-27T14:18:03Z</time>
      </trkpt>
      <trkpt lat="46.17345" lon="6.08556">
        <ele>427.3</ele>
        <time>2022-09-27T14:18:04Z</time>
      </trkpt>
      <trkpt lat="46.17347" lon="6.08561">
        <ele>427</ele>
        <time>2022-09-27T14:18:05Z</time>
      </trkpt>
      <trkpt lat="46.17348" lon="6.08568">
        <ele>426.7</ele>
        <time>2022-09-27T14:18:06Z</time>
      </trkpt>
      <trkpt lat="46.17352" lon="6.08575">
        <ele>426.4</ele>
        <time>2022-09-27T14:18:08Z</time>
      </trkpt>
      <trkpt lat="46.17355" lon="6.08582">
        <ele>426.1</ele>
        <time>2022-09-27T14:18:09Z</time>
      </trkpt>
      <trkpt lat="46.17358" lon="6.08588">
        <ele>425.9</ele>
        <time>2022-09-27T14:18:10Z</time>
      </trkpt>
      <trkpt lat="46.17361" lon="6.08593">
        <ele>425.8</ele>
        <time>2022-09-27T14:18:11Z</time>
      </trkpt>
      <trkpt lat="46.17362" lon="6.086">
        <ele>425.5</ele>
        <time>2022-09-27T14:18:12Z</time>
      </trkpt>
      <trkpt lat="46.17365" lon="6.08608">
        <ele>425.3</ele>
        <time>2022-09-27T14:18:13Z</time>
      </trkpt>
      <trkpt lat="46.17368" lon="6.08614">
        <ele>425.1</ele>
        <time>2022-09-27T14:18:14Z</time>
      </trkpt>
      <trkpt lat="46.17371" lon="6.08619">
        <ele>424.9</ele>
        <time>2022-09-27T14:18:15Z</time>
      </trkpt>
      <trkpt lat="46.17373" lon="6.08626">
        <ele>424.7</ele>
        <time>2022-09-27T14:18:16Z</time>
      </trkpt>
      <trkpt lat="46.17376" lon="6.08633">
        <ele>424.5</ele>
        <time>2022-09-27T14:18:17Z</time>
      </trkpt>
      <trkpt lat="46.1738" lon="6.0864">
        <ele>424.2</ele>
        <time>2022-09-27T14:18:18Z</time>
      </trkpt>
      <trkpt lat="46.17383" lon="6.08648">
        <ele>424</ele>
        <time>2022-09-27T14:18:19Z</time>
      </trkpt>
      <trkpt lat="46.17387" lon="6.08654">
        <ele>423.8</ele>
        <time>2022-09-27T14:18:20Z</time>
      </trkpt>
      <trkpt lat="46.17391" lon="6.08661">
        <ele>423.5</ele>
        <time>2022-09-27T14:18:21Z</time>
      </trkpt>
      <trkpt lat="46.17394" lon="6.08668">
        <ele>423.4</ele>
        <time>2022-09-27T14:18:22Z</time>
      </trkpt>
      <trkpt lat="46.17396" lon="6.08672">
        <ele>423.3</ele>
        <time>2022-09-27T14:18:23Z</time>
      </trkpt>
      <trkpt lat="46.17398" lon="6.08678">
        <ele>423.1</ele>
        <time>2022-09-27T14:18:24Z</time>
      </trkpt>
      <trkpt lat="46.174" lon="6.08683">
        <ele>423</ele>
        <time>2022-09-27T14:18:25Z</time>
      </trkpt>
      <trkpt lat="46.17403" lon="6.08687">
        <ele>422.8</ele>
        <time>2022-09-27T14:18:26Z</time>
      </trkpt>
      <trkpt lat="46.17406" lon="6.08692">
        <ele>422.6</ele>
        <time>2022-09-27T14:18:27Z</time>
      </trkpt>
      <trkpt lat="46.17407" lon="6.08696">
        <ele>422.4</ele>
        <time>2022-09-27T14:18:28Z</time>
      </trkpt>
      <trkpt lat="46.17409" lon="6.08701">
        <ele>422.2</ele>
        <time>2022-09-27T14:18:29Z</time>
      </trkpt>
      <trkpt lat="46.17409" lon="6.08702">
        <ele>422.2</ele>
        <time>2022-09-27T14:18:30Z</time>
      </trkpt>
      <trkpt lat="46.1741" lon="6.08706">
        <ele>422</ele>
        <time>2022-09-27T14:18:31Z</time>
      </trkpt>
      <trkpt lat="46.17409" lon="6.0871">
        <ele>421.8</ele>
        <time>2022-09-27T14:18:32Z</time>
      </trkpt>
      <trkpt lat="46.17409" lon="6.08711">
        <ele>421.8</ele>
        <time>2022-09-27T14:18:33Z</time>
      </trkpt>
      <trkpt lat="46.1741" lon="6.08715">
        <ele>421.7</ele>
        <time>2022-09-27T14:18:34Z</time>
      </trkpt>
      <trkpt lat="46.17411" lon="6.08717">
        <ele>421.7</ele>
        <time>2022-09-27T14:18:35Z</time>
      </trkpt>
      <trkpt lat="46.17414" lon="6.08719">
        <ele>421.6</ele>
        <time>2022-09-27T14:18:36Z</time>
      </trkpt>
      <trkpt lat="46.17415" lon="6.08719">
        <ele>421.6</ele>
        <time>2022-09-27T14:18:37Z</time>
      </trkpt>
      <trkpt lat="46.17417" lon="6.08723">
        <ele>421.5</ele>
        <time>2022-09-27T14:18:38Z</time>
      </trkpt>
      <trkpt lat="46.17419" lon="6.08724">
        <ele>421.5</ele>
        <time>2022-09-27T14:18:39Z</time>
      </trkpt>
      <trkpt lat="46.17421" lon="6.08727">
        <ele>421.4</ele>
        <time>2022-09-27T14:18:40Z</time>
      </trkpt>
      <trkpt lat="46.17423" lon="6.08732">
        <ele>421.3</ele>
        <time>2022-09-27T14:18:41Z</time>
      </trkpt>
      <trkpt lat="46.17425" lon="6.08737">
        <ele>421.3</ele>
        <time>2022-09-27T14:18:42Z</time>
      </trkpt>
      <trkpt lat="46.17428" lon="6.08743">
        <ele>421.2</ele>
        <time>2022-09-27T14:18:43Z</time>
      </trkpt>
      <trkpt lat="46.17431" lon="6.08747">
        <ele>421.2</ele>
        <time>2022-09-27T14:18:44Z</time>
      </trkpt>
      <trkpt lat="46.17434" lon="6.08751">
        <ele>421.1</ele>
        <time>2022-09-27T14:18:45Z</time>
      </trkpt>
      <trkpt lat="46.17437" lon="6.08756">
        <ele>421.1</ele>
        <time>2022-09-27T14:18:46Z</time>
      </trkpt>
      <trkpt lat="46.1744" lon="6.08761">
        <ele>421.1</ele>
        <time>2022-09-27T14:18:47Z</time>
      </trkpt>
      <trkpt lat="46.17443" lon="6.08766">
        <ele>421</ele>
        <time>2022-09-27T14:18:48Z</time>
      </trkpt>
      <trkpt lat="46.17446" lon="6.08772">
        <ele>421</ele>
        <time>2022-09-27T14:18:49Z</time>
      </trkpt>
      <trkpt lat="46.1745" lon="6.08778">
        <ele>420.9</ele>
        <time>2022-09-27T14:18:50Z</time>
      </trkpt>
      <trkpt lat="46.17454" lon="6.08784">
        <ele>420.9</ele>
        <time>2022-09-27T14:18:51Z</time>
      </trkpt>
      <trkpt lat="46.17456" lon="6.08789">
        <ele>420.9</ele>
        <time>2022-09-27T14:18:52Z</time>
      </trkpt>
      <trkpt lat="46.1746" lon="6.08794">
        <ele>420.8</ele>
        <time>2022-09-27T14:18:53Z</time>
      </trkpt>
      <trkpt lat="46.17463" lon="6.088">
        <ele>420.7</ele>
        <time>2022-09-27T14:18:54Z</time>
      </trkpt>
      <trkpt lat="46.17466" lon="6.08807">
        <ele>420.7</ele>
        <time>2022-09-27T14:18:55Z</time>
      </trkpt>
      <trkpt lat="46.17469" lon="6.08813">
        <ele>420.6</ele>
        <time>2022-09-27T14:18:56Z</time>
      </trkpt>
      <trkpt lat="46.17473" lon="6.0882">
        <ele>420.5</ele>
        <time>2022-09-27T14:18:57Z</time>
      </trkpt>
      <trkpt lat="46.17476" lon="6.08825">
        <ele>420.4</ele>
        <time>2022-09-27T14:18:58Z</time>
      </trkpt>
      <trkpt lat="46.17479" lon="6.08831">
        <ele>420.4</ele>
        <time>2022-09-27T14:18:59Z</time>
      </trkpt>
      <trkpt lat="46.17483" lon="6.08838">
        <ele>420.3</ele>
        <time>2022-09-27T14:19:00Z</time>
      </trkpt>
      <trkpt lat="46.17486" lon="6.08843">
        <ele>420.2</ele>
        <time>2022-09-27T14:19:01Z</time>
      </trkpt>
      <trkpt lat="46.17489" lon="6.08849">
        <ele>420.1</ele>
        <time>2022-09-27T14:19:02Z</time>
      </trkpt>
      <trkpt lat="46.17493" lon="6.08855">
        <ele>420.1</ele>
        <time>2022-09-27T14:19:03Z</time>
      </trkpt>
      <trkpt lat="46.17496" lon="6.08859">
        <ele>420</ele>
        <time>2022-09-27T14:19:04Z</time>
      </trkpt>
      <trkpt lat="46.175" lon="6.08865">
        <ele>420</ele>
        <time>2022-09-27T14:19:05Z</time>
      </trkpt>
      <trkpt lat="46.17503" lon="6.08871">
        <ele>419.9</ele>
        <time>2022-09-27T14:19:06Z</time>
      </trkpt>
      <trkpt lat="46.17507" lon="6.08876">
        <ele>419.8</ele>
        <time>2022-09-27T14:19:07Z</time>
      </trkpt>
      <trkpt lat="46.17511" lon="6.08881">
        <ele>419.8</ele>
        <time>2022-09-27T14:19:08Z</time>
      </trkpt>
      <trkpt lat="46.17515" lon="6.08887">
        <ele>419.7</ele>
        <time>2022-09-27T14:19:09Z</time>
      </trkpt>
      <trkpt lat="46.17518" lon="6.08892">
        <ele>419.7</ele>
        <time>2022-09-27T14:19:10Z</time>
      </trkpt>
      <trkpt lat="46.17522" lon="6.08899">
        <ele>419.6</ele>
        <time>2022-09-27T14:19:11Z</time>
      </trkpt>
      <trkpt lat="46.17526" lon="6.08902">
        <ele>419.6</ele>
        <time>2022-09-27T14:19:12Z</time>
      </trkpt>
      <trkpt lat="46.1753" lon="6.08908">
        <ele>419.6</ele>
        <time>2022-09-27T14:19:13Z</time>
      </trkpt>
      <trkpt lat="46.17533" lon="6.08913">
        <ele>419.5</ele>
        <time>2022-09-27T14:19:14Z</time>
      </trkpt>
      <trkpt lat="46.17536" lon="6.08918">
        <ele>419.5</ele>
        <time>2022-09-27T14:19:15Z</time>
      </trkpt>
      <trkpt lat="46.17539" lon="6.08923">
        <ele>419.5</ele>
        <time>2022-09-27T14:19:16Z</time>
      </trkpt>
      <trkpt lat="46.17541" lon="6.08928">
        <ele>419.4</ele>
        <time>2022-09-27T14:19:17Z</time>
      </trkpt>
      <trkpt lat="46.17544" lon="6.08933">
        <ele>419.4</ele>
        <time>2022-09-27T14:19:18Z</time>
      </trkpt>
      <trkpt lat="46.17548" lon="6.08939">
        <ele>419.4</ele>
        <time>2022-09-27T14:19:19Z</time>
      </trkpt>
      <trkpt lat="46.17551" lon="6.08943">
        <ele>419.4</ele>
        <time>2022-09-27T14:19:20Z</time>
      </trkpt>
      <trkpt lat="46.17555" lon="6.08948">
        <ele>419.3</ele>
        <time>2022-09-27T14:19:21Z</time>
      </trkpt>
      <trkpt lat="46.17558" lon="6.08953">
        <ele>419.3</ele>
        <time>2022-09-27T14:19:22Z</time>
      </trkpt>
      <trkpt lat="46.17561" lon="6.08958">
        <ele>419.3</ele>
        <time>2022-09-27T14:19:23Z</time>
      </trkpt>
      <trkpt lat="46.17564" lon="6.08962">
        <ele>419.2</ele>
        <time>2022-09-27T14:19:24Z</time>
      </trkpt>
      <trkpt lat="46.17566" lon="6.08968">
        <ele>419.2</ele>
        <time>2022-09-27T14:19:25Z</time>
      </trkpt>
      <trkpt lat="46.1757" lon="6.08974">
        <ele>419.2</ele>
        <time>2022-09-27T14:19:26Z</time>
      </trkpt>
      <trkpt lat="46.17573" lon="6.0898">
        <ele>419.1</ele>
        <time>2022-09-27T14:19:27Z</time>
      </trkpt>
      <trkpt lat="46.17579" lon="6.08993">
        <ele>419</ele>
        <time>2022-09-27T14:19:28Z</time>
      </trkpt>
      <trkpt lat="46.17582" lon="6.08999">
        <ele>419</ele>
        <time>2022-09-27T14:19:29Z</time>
      </trkpt>
      <trkpt lat="46.17585" lon="6.09005">
        <ele>419</ele>
        <time>2022-09-27T14:19:30Z</time>
      </trkpt>
      <trkpt lat="46.17588" lon="6.09011">
        <ele>419</ele>
        <time>2022-09-27T14:19:31Z</time>
      </trkpt>
      <trkpt lat="46.17591" lon="6.09016">
        <ele>419</ele>
        <time>2022-09-27T14:19:32Z</time>
      </trkpt>
      <trkpt lat="46.17594" lon="6.09022">
        <ele>419</ele>
        <time>2022-09-27T14:19:33Z</time>
      </trkpt>
      <trkpt lat="46.17597" lon="6.09026">
        <ele>419</ele>
        <time>2022-09-27T14:19:34Z</time>
      </trkpt>
      <trkpt lat="46.176" lon="6.09031">
        <ele>419</ele>
        <time>2022-09-27T14:19:35Z</time>
      </trkpt>
      <trkpt lat="46.17602" lon="6.09035">
        <ele>419</ele>
        <time>2022-09-27T14:19:36Z</time>
      </trkpt>
      <trkpt lat="46.17605" lon="6.09039">
        <ele>419.1</ele>
        <time>2022-09-27T14:19:37Z</time>
      </trkpt>
      <trkpt lat="46.17607" lon="6.09044">
        <ele>419.1</ele>
        <time>2022-09-27T14:19:38Z</time>
      </trkpt>
      <trkpt lat="46.1761" lon="6.09049">
        <ele>419.2</ele>
        <time>2022-09-27T14:19:39Z</time>
      </trkpt>
      <trkpt lat="46.17612" lon="6.09054">
        <ele>419.2</ele>
        <time>2022-09-27T14:19:40Z</time>
      </trkpt>
      <trkpt lat="46.17615" lon="6.09059">
        <ele>419.2</ele>
        <time>2022-09-27T14:19:41Z</time>
      </trkpt>
      <trkpt lat="46.17617" lon="6.09063">
        <ele>419.2</ele>
        <time>2022-09-27T14:19:42Z</time>
      </trkpt>
      <trkpt lat="46.1762" lon="6.09067">
        <ele>419.2</ele>
        <time>2022-09-27T14:19:43Z</time>
      </trkpt>
      <trkpt lat="46.17623" lon="6.09072">
        <ele>419.3</ele>
        <time>2022-09-27T14:19:44Z</time>
      </trkpt>
      <trkpt lat="46.17625" lon="6.09077">
        <ele>419.3</ele>
        <time>2022-09-27T14:19:45Z</time>
      </trkpt>
      <trkpt lat="46.17627" lon="6.09081">
        <ele>419.3</ele>
        <time>2022-09-27T14:19:46Z</time>
      </trkpt>
      <trkpt lat="46.1763" lon="6.09085">
        <ele>419.3</ele>
        <time>2022-09-27T14:19:47Z</time>
      </trkpt>
      <trkpt lat="46.17633" lon="6.09089">
        <ele>419.4</ele>
        <time>2022-09-27T14:19:48Z</time>
      </trkpt>
      <trkpt lat="46.17635" lon="6.09094">
        <ele>419.4</ele>
        <time>2022-09-27T14:19:49Z</time>
      </trkpt>
      <trkpt lat="46.17638" lon="6.09099">
        <ele>419.4</ele>
        <time>2022-09-27T14:19:50Z</time>
      </trkpt>
      <trkpt lat="46.17642" lon="6.09104">
        <ele>419.5</ele>
        <time>2022-09-27T14:19:51Z</time>
      </trkpt>
      <trkpt lat="46.17644" lon="6.09107">
        <ele>419.5</ele>
        <time>2022-09-27T14:19:52Z</time>
      </trkpt>
      <trkpt lat="46.17647" lon="6.09112">
        <ele>419.5</ele>
        <time>2022-09-27T14:19:53Z</time>
      </trkpt>
      <trkpt lat="46.1765" lon="6.09117">
        <ele>419.6</ele>
        <time>2022-09-27T14:19:54Z</time>
      </trkpt>
      <trkpt lat="46.17653" lon="6.09122">
        <ele>419.6</ele>
        <time>2022-09-27T14:19:55Z</time>
      </trkpt>
      <trkpt lat="46.17656" lon="6.09126">
        <ele>419.7</ele>
        <time>2022-09-27T14:19:56Z</time>
      </trkpt>
      <trkpt lat="46.17659" lon="6.09131">
        <ele>419.7</ele>
        <time>2022-09-27T14:19:57Z</time>
      </trkpt>
      <trkpt lat="46.17662" lon="6.09136">
        <ele>419.8</ele>
        <time>2022-09-27T14:19:58Z</time>
      </trkpt>
      <trkpt lat="46.17665" lon="6.0914">
        <ele>419.9</ele>
        <time>2022-09-27T14:19:59Z</time>
      </trkpt>
      <trkpt lat="46.17667" lon="6.09144">
        <ele>419.9</ele>
        <time>2022-09-27T14:20:00Z</time>
      </trkpt>
      <trkpt lat="46.1767" lon="6.09147">
        <ele>420</ele>
        <time>2022-09-27T14:20:01Z</time>
      </trkpt>
      <trkpt lat="46.17674" lon="6.09149">
        <ele>420.2</ele>
        <time>2022-09-27T14:20:02Z</time>
      </trkpt>
      <trkpt lat="46.17677" lon="6.09148">
        <ele>420.3</ele>
        <time>2022-09-27T14:20:03Z</time>
      </trkpt>
      <trkpt lat="46.17679" lon="6.09147">
        <ele>420.4</ele>
        <time>2022-09-27T14:20:04Z</time>
      </trkpt>
      <trkpt lat="46.17682" lon="6.09144">
        <ele>420.6</ele>
        <time>2022-09-27T14:20:05Z</time>
      </trkpt>
      <trkpt lat="46.17685" lon="6.09141">
        <ele>420.8</ele>
        <time>2022-09-27T14:20:06Z</time>
      </trkpt>
      <trkpt lat="46.17686" lon="6.0914">
        <ele>420.8</ele>
        <time>2022-09-27T14:20:07Z</time>
      </trkpt>
      <trkpt lat="46.17687" lon="6.09139">
        <ele>420.9</ele>
        <time>2022-09-27T14:20:08Z</time>
      </trkpt>
      <trkpt lat="46.17689" lon="6.09139">
        <ele>421</ele>
        <time>2022-09-27T14:20:09Z</time>
      </trkpt>
      <trkpt lat="46.17691" lon="6.09137">
        <ele>421.2</ele>
        <time>2022-09-27T14:20:10Z</time>
      </trkpt>
      <trkpt lat="46.17692" lon="6.09136">
        <ele>421.3</ele>
        <time>2022-09-27T14:20:11Z</time>
      </trkpt>
      <trkpt lat="46.17694" lon="6.09134">
        <ele>421.4</ele>
        <time>2022-09-27T14:20:12Z</time>
      </trkpt>
      <trkpt lat="46.17696" lon="6.09132">
        <ele>421.5</ele>
        <time>2022-09-27T14:20:14Z</time>
      </trkpt>
      <trkpt lat="46.17698" lon="6.0913">
        <ele>421.7</ele>
        <time>2022-09-27T14:20:15Z</time>
      </trkpt>
      <trkpt lat="46.17699" lon="6.09129">
        <ele>421.7</ele>
        <time>2022-09-27T14:20:16Z</time>
      </trkpt>
      <trkpt lat="46.177" lon="6.09128">
        <ele>421.8</ele>
        <time>2022-09-27T14:20:17Z</time>
      </trkpt>
      <trkpt lat="46.17702" lon="6.09127">
        <ele>421.9</ele>
        <time>2022-09-27T14:20:18Z</time>
      </trkpt>
      <trkpt lat="46.17704" lon="6.09126">
        <ele>422.1</ele>
        <time>2022-09-27T14:20:19Z</time>
      </trkpt>
      <trkpt lat="46.17705" lon="6.09125">
        <ele>422.2</ele>
        <time>2022-09-27T14:20:20Z</time>
      </trkpt>
      <trkpt lat="46.17706" lon="6.09124">
        <ele>422.2</ele>
        <time>2022-09-27T14:20:21Z</time>
      </trkpt>
      <trkpt lat="46.17707" lon="6.09124">
        <ele>422.3</ele>
        <time>2022-09-27T14:20:22Z</time>
      </trkpt>
      <trkpt lat="46.17709" lon="6.09124">
        <ele>422.4</ele>
        <time>2022-09-27T14:20:23Z</time>
      </trkpt>
      <trkpt lat="46.17711" lon="6.09126">
        <ele>422.3</ele>
        <time>2022-09-27T14:20:24Z</time>
      </trkpt>
      <trkpt lat="46.17712" lon="6.09127">
        <ele>422.3</ele>
        <time>2022-09-27T14:20:25Z</time>
      </trkpt>
      <trkpt lat="46.17712" lon="6.09128">
        <ele>422.2</ele>
        <time>2022-09-27T14:20:26Z</time>
      </trkpt>
      <trkpt lat="46.17713" lon="6.09134">
        <ele>422</ele>
        <time>2022-09-27T14:20:27Z</time>
      </trkpt>
      <trkpt lat="46.17713" lon="6.09136">
        <ele>421.9</ele>
        <time>2022-09-27T14:20:28Z</time>
      </trkpt>
      <trkpt lat="46.17713" lon="6.09143">
        <ele>421.7</ele>
        <time>2022-09-27T14:20:29Z</time>
      </trkpt>
      <trkpt lat="46.17714" lon="6.09147">
        <ele>421.5</ele>
        <time>2022-09-27T14:20:30Z</time>
      </trkpt>
      <trkpt lat="46.17715" lon="6.09154">
        <ele>421.3</ele>
        <time>2022-09-27T14:20:31Z</time>
      </trkpt>
      <trkpt lat="46.17715" lon="6.0916">
        <ele>421.1</ele>
        <time>2022-09-27T14:20:32Z</time>
      </trkpt>
      <trkpt lat="46.17716" lon="6.09167">
        <ele>420.9</ele>
        <time>2022-09-27T14:20:33Z</time>
      </trkpt>
      <trkpt lat="46.17717" lon="6.09174">
        <ele>420.8</ele>
        <time>2022-09-27T14:20:34Z</time>
      </trkpt>
      <trkpt lat="46.17719" lon="6.0918">
        <ele>420.6</ele>
        <time>2022-09-27T14:20:35Z</time>
      </trkpt>
      <trkpt lat="46.1772" lon="6.09187">
        <ele>420.5</ele>
        <time>2022-09-27T14:20:36Z</time>
      </trkpt>
      <trkpt lat="46.17721" lon="6.09193">
        <ele>420.4</ele>
        <time>2022-09-27T14:20:37Z</time>
      </trkpt>
      <trkpt lat="46.17721" lon="6.09198">
        <ele>420.3</ele>
        <time>2022-09-27T14:20:38Z</time>
      </trkpt>
      <trkpt lat="46.17721" lon="6.09202">
        <ele>420.3</ele>
        <time>2022-09-27T14:20:39Z</time>
      </trkpt>
      <trkpt lat="46.17721" lon="6.09209">
        <ele>420.3</ele>
        <time>2022-09-27T14:20:40Z</time>
      </trkpt>
      <trkpt lat="46.17722" lon="6.09212">
        <ele>420.3</ele>
        <time>2022-09-27T14:20:41Z</time>
      </trkpt>
      <trkpt lat="46.17724" lon="6.09216">
        <ele>420.4</ele>
        <time>2022-09-27T14:20:42Z</time>
      </trkpt>
      <trkpt lat="46.17726" lon="6.09221">
        <ele>420.5</ele>
        <time>2022-09-27T14:20:43Z</time>
      </trkpt>
      <trkpt lat="46.17726" lon="6.09225">
        <ele>420.5</ele>
        <time>2022-09-27T14:20:44Z</time>
      </trkpt>
      <trkpt lat="46.17727" lon="6.09227">
        <ele>420.6</ele>
        <time>2022-09-27T14:20:45Z</time>
      </trkpt>
      <trkpt lat="46.17728" lon="6.09233">
        <ele>420.6</ele>
        <time>2022-09-27T14:20:46Z</time>
      </trkpt>
      <trkpt lat="46.17729" lon="6.09237">
        <ele>420.7</ele>
        <time>2022-09-27T14:20:47Z</time>
      </trkpt>
      <trkpt lat="46.1773" lon="6.09243">
        <ele>420.8</ele>
        <time>2022-09-27T14:20:48Z</time>
      </trkpt>
      <trkpt lat="46.17731" lon="6.09245">
        <ele>420.8</ele>
        <time>2022-09-27T14:20:49Z</time>
      </trkpt>
      <trkpt lat="46.17731" lon="6.0925">
        <ele>420.9</ele>
        <time>2022-09-27T14:20:50Z</time>
      </trkpt>
      <trkpt lat="46.17733" lon="6.09254">
        <ele>420.9</ele>
        <time>2022-09-27T14:20:51Z</time>
      </trkpt>
      <trkpt lat="46.17734" lon="6.09258">
        <ele>421</ele>
        <time>2022-09-27T14:20:52Z</time>
      </trkpt>
      <trkpt lat="46.17735" lon="6.09264">
        <ele>421.1</ele>
        <time>2022-09-27T14:20:53Z</time>
      </trkpt>
      <trkpt lat="46.17737" lon="6.09269">
        <ele>421.1</ele>
        <time>2022-09-27T14:20:54Z</time>
      </trkpt>
      <trkpt lat="46.17738" lon="6.09274">
        <ele>421.2</ele>
        <time>2022-09-27T14:20:55Z</time>
      </trkpt>
      <trkpt lat="46.1774" lon="6.09279">
        <ele>421.2</ele>
        <time>2022-09-27T14:20:56Z</time>
      </trkpt>
      <trkpt lat="46.17741" lon="6.09285">
        <ele>421.2</ele>
        <time>2022-09-27T14:20:57Z</time>
      </trkpt>
      <trkpt lat="46.17742" lon="6.0929">
        <ele>421.2</ele>
        <time>2022-09-27T14:20:58Z</time>
      </trkpt>
      <trkpt lat="46.17744" lon="6.09295">
        <ele>421.2</ele>
        <time>2022-09-27T14:20:59Z</time>
      </trkpt>
      <trkpt lat="46.17745" lon="6.09301">
        <ele>421.2</ele>
        <time>2022-09-27T14:21:00Z</time>
      </trkpt>
      <trkpt lat="46.17745" lon="6.09306">
        <ele>421.1</ele>
        <time>2022-09-27T14:21:01Z</time>
      </trkpt>
      <trkpt lat="46.17746" lon="6.09313">
        <ele>421.1</ele>
        <time>2022-09-27T14:21:02Z</time>
      </trkpt>
      <trkpt lat="46.17747" lon="6.0932">
        <ele>421</ele>
        <time>2022-09-27T14:21:03Z</time>
      </trkpt>
      <trkpt lat="46.17748" lon="6.09326">
        <ele>421</ele>
        <time>2022-09-27T14:21:04Z</time>
      </trkpt>
      <trkpt lat="46.1775" lon="6.09333">
        <ele>420.9</ele>
        <time>2022-09-27T14:21:05Z</time>
      </trkpt>
      <trkpt lat="46.17751" lon="6.0934">
        <ele>420.8</ele>
        <time>2022-09-27T14:21:06Z</time>
      </trkpt>
      <trkpt lat="46.17752" lon="6.09347">
        <ele>420.7</ele>
        <time>2022-09-27T14:21:07Z</time>
      </trkpt>
      <trkpt lat="46.17754" lon="6.09356">
        <ele>420.7</ele>
        <time>2022-09-27T14:21:08Z</time>
      </trkpt>
      <trkpt lat="46.17755" lon="6.09362">
        <ele>420.6</ele>
        <time>2022-09-27T14:21:09Z</time>
      </trkpt>
      <trkpt lat="46.17757" lon="6.09369">
        <ele>420.5</ele>
        <time>2022-09-27T14:21:10Z</time>
      </trkpt>
      <trkpt lat="46.17758" lon="6.09376">
        <ele>420.4</ele>
        <time>2022-09-27T14:21:11Z</time>
      </trkpt>
      <trkpt lat="46.1776" lon="6.09382">
        <ele>420.4</ele>
        <time>2022-09-27T14:21:12Z</time>
      </trkpt>
      <trkpt lat="46.17761" lon="6.09389">
        <ele>420.3</ele>
        <time>2022-09-27T14:21:13Z</time>
      </trkpt>
      <trkpt lat="46.17762" lon="6.09397">
        <ele>420.3</ele>
        <time>2022-09-27T14:21:14Z</time>
      </trkpt>
      <trkpt lat="46.17764" lon="6.09404">
        <ele>420.2</ele>
        <time>2022-09-27T14:21:15Z</time>
      </trkpt>
      <trkpt lat="46.17765" lon="6.09411">
        <ele>420.1</ele>
        <time>2022-09-27T14:21:16Z</time>
      </trkpt>
      <trkpt lat="46.17767" lon="6.09418">
        <ele>420.1</ele>
        <time>2022-09-27T14:21:17Z</time>
      </trkpt>
      <trkpt lat="46.17768" lon="6.09424">
        <ele>420</ele>
        <time>2022-09-27T14:21:18Z</time>
      </trkpt>
      <trkpt lat="46.1777" lon="6.0943">
        <ele>419.9</ele>
        <time>2022-09-27T14:21:19Z</time>
      </trkpt>
      <trkpt lat="46.17772" lon="6.09437">
        <ele>419.8</ele>
        <time>2022-09-27T14:21:20Z</time>
      </trkpt>
      <trkpt lat="46.17774" lon="6.09443">
        <ele>419.8</ele>
        <time>2022-09-27T14:21:21Z</time>
      </trkpt>
      <trkpt lat="46.17775" lon="6.09448">
        <ele>419.7</ele>
        <time>2022-09-27T14:21:22Z</time>
      </trkpt>
      <trkpt lat="46.17777" lon="6.09455">
        <ele>419.6</ele>
        <time>2022-09-27T14:21:23Z</time>
      </trkpt>
      <trkpt lat="46.17779" lon="6.09462">
        <ele>419.5</ele>
        <time>2022-09-27T14:21:24Z</time>
      </trkpt>
      <trkpt lat="46.17783" lon="6.09469">
        <ele>419.4</ele>
        <time>2022-09-27T14:21:25Z</time>
      </trkpt>
      <trkpt lat="46.17784" lon="6.09475">
        <ele>419.4</ele>
        <time>2022-09-27T14:21:26Z</time>
      </trkpt>
      <trkpt lat="46.17785" lon="6.09481">
        <ele>419.3</ele>
        <time>2022-09-27T14:21:27Z</time>
      </trkpt>
      <trkpt lat="46.17787" lon="6.09487">
        <ele>419.3</ele>
        <time>2022-09-27T14:21:28Z</time>
      </trkpt>
      <trkpt lat="46.17789" lon="6.09493">
        <ele>419.2</ele>
        <time>2022-09-27T14:21:29Z</time>
      </trkpt>
      <trkpt lat="46.17791" lon="6.09499">
        <ele>419.2</ele>
        <time>2022-09-27T14:21:30Z</time>
      </trkpt>
      <trkpt lat="46.17793" lon="6.09505">
        <ele>419.2</ele>
        <time>2022-09-27T14:21:31Z</time>
      </trkpt>
      <trkpt lat="46.17795" lon="6.09512">
        <ele>419.2</ele>
        <time>2022-09-27T14:21:32Z</time>
      </trkpt>
      <trkpt lat="46.17798" lon="6.09518">
        <ele>419.2</ele>
        <time>2022-09-27T14:21:33Z</time>
      </trkpt>
      <trkpt lat="46.17801" lon="6.09525">
        <ele>419.2</ele>
        <time>2022-09-27T14:21:34Z</time>
      </trkpt>
      <trkpt lat="46.17804" lon="6.09531">
        <ele>419.2</ele>
        <time>2022-09-27T14:21:35Z</time>
      </trkpt>
      <trkpt lat="46.17806" lon="6.09538">
        <ele>419.3</ele>
        <time>2022-09-27T14:21:36Z</time>
      </trkpt>
      <trkpt lat="46.17811" lon="6.0955">
        <ele>419.3</ele>
        <time>2022-09-27T14:21:37Z</time>
      </trkpt>
      <trkpt lat="46.17815" lon="6.09555">
        <ele>419.3</ele>
        <time>2022-09-27T14:21:38Z</time>
      </trkpt>
      <trkpt lat="46.17817" lon="6.09563">
        <ele>419.4</ele>
        <time>2022-09-27T14:21:39Z</time>
      </trkpt>
      <trkpt lat="46.17818" lon="6.09568">
        <ele>419.4</ele>
        <time>2022-09-27T14:21:40Z</time>
      </trkpt>
      <trkpt lat="46.17821" lon="6.09573">
        <ele>419.5</ele>
        <time>2022-09-27T14:21:41Z</time>
      </trkpt>
      <trkpt lat="46.17824" lon="6.09578">
        <ele>419.6</ele>
        <time>2022-09-27T14:21:42Z</time>
      </trkpt>
      <trkpt lat="46.17824" lon="6.09582">
        <ele>419.6</ele>
        <time>2022-09-27T14:21:43Z</time>
      </trkpt>
      <trkpt lat="46.17827" lon="6.09588">
        <ele>419.7</ele>
        <time>2022-09-27T14:21:44Z</time>
      </trkpt>
      <trkpt lat="46.17829" lon="6.09594">
        <ele>419.7</ele>
        <time>2022-09-27T14:21:45Z</time>
      </trkpt>
      <trkpt lat="46.17831" lon="6.096">
        <ele>419.8</ele>
        <time>2022-09-27T14:21:46Z</time>
      </trkpt>
      <trkpt lat="46.17834" lon="6.09606">
        <ele>419.8</ele>
        <time>2022-09-27T14:21:47Z</time>
      </trkpt>
      <trkpt lat="46.17836" lon="6.09612">
        <ele>419.8</ele>
        <time>2022-09-27T14:21:48Z</time>
      </trkpt>
      <trkpt lat="46.17839" lon="6.09619">
        <ele>419.8</ele>
        <time>2022-09-27T14:21:49Z</time>
      </trkpt>
      <trkpt lat="46.17842" lon="6.09625">
        <ele>419.8</ele>
        <time>2022-09-27T14:21:50Z</time>
      </trkpt>
      <trkpt lat="46.17844" lon="6.09631">
        <ele>419.7</ele>
        <time>2022-09-27T14:21:51Z</time>
      </trkpt>
      <trkpt lat="46.17847" lon="6.09638">
        <ele>419.7</ele>
        <time>2022-09-27T14:21:52Z</time>
      </trkpt>
      <trkpt lat="46.17849" lon="6.09644">
        <ele>419.6</ele>
        <time>2022-09-27T14:21:53Z</time>
      </trkpt>
      <trkpt lat="46.17851" lon="6.09651">
        <ele>419.6</ele>
        <time>2022-09-27T14:21:54Z</time>
      </trkpt>
      <trkpt lat="46.17853" lon="6.09658">
        <ele>419.6</ele>
        <time>2022-09-27T14:21:55Z</time>
      </trkpt>
      <trkpt lat="46.17856" lon="6.09665">
        <ele>419.6</ele>
        <time>2022-09-27T14:21:56Z</time>
      </trkpt>
      <trkpt lat="46.17859" lon="6.09671">
        <ele>419.5</ele>
        <time>2022-09-27T14:21:57Z</time>
      </trkpt>
      <trkpt lat="46.17861" lon="6.09676">
        <ele>419.5</ele>
        <time>2022-09-27T14:21:58Z</time>
      </trkpt>
      <trkpt lat="46.17862" lon="6.09681">
        <ele>419.5</ele>
        <time>2022-09-27T14:21:59Z</time>
      </trkpt>
      <trkpt lat="46.17865" lon="6.09685">
        <ele>419.5</ele>
        <time>2022-09-27T14:22:00Z</time>
      </trkpt>
      <trkpt lat="46.17867" lon="6.0969">
        <ele>419.5</ele>
        <time>2022-09-27T14:22:01Z</time>
      </trkpt>
      <trkpt lat="46.1787" lon="6.09695">
        <ele>419.4</ele>
        <time>2022-09-27T14:22:02Z</time>
      </trkpt>
      <trkpt lat="46.17872" lon="6.09701">
        <ele>419.4</ele>
        <time>2022-09-27T14:22:03Z</time>
      </trkpt>
      <trkpt lat="46.17873" lon="6.09708">
        <ele>419.4</ele>
        <time>2022-09-27T14:22:04Z</time>
      </trkpt>
      <trkpt lat="46.17876" lon="6.09715">
        <ele>419.4</ele>
        <time>2022-09-27T14:22:05Z</time>
      </trkpt>
      <trkpt lat="46.17879" lon="6.09722">
        <ele>419.4</ele>
        <time>2022-09-27T14:22:06Z</time>
      </trkpt>
      <trkpt lat="46.17881" lon="6.09729">
        <ele>419.4</ele>
        <time>2022-09-27T14:22:07Z</time>
      </trkpt>
      <trkpt lat="46.17883" lon="6.09737">
        <ele>419.4</ele>
        <time>2022-09-27T14:22:08Z</time>
      </trkpt>
      <trkpt lat="46.17886" lon="6.09744">
        <ele>419.4</ele>
        <time>2022-09-27T14:22:09Z</time>
      </trkpt>
      <trkpt lat="46.1789" lon="6.09751">
        <ele>419.4</ele>
        <time>2022-09-27T14:22:10Z</time>
      </trkpt>
      <trkpt lat="46.17894" lon="6.09757">
        <ele>419.4</ele>
        <time>2022-09-27T14:22:11Z</time>
      </trkpt>
      <trkpt lat="46.17898" lon="6.09763">
        <ele>419.6</ele>
        <time>2022-09-27T14:22:12Z</time>
      </trkpt>
      <trkpt lat="46.179" lon="6.0977">
        <ele>419.7</ele>
        <time>2022-09-27T14:22:13Z</time>
      </trkpt>
      <trkpt lat="46.17902" lon="6.09776">
        <ele>419.9</ele>
        <time>2022-09-27T14:22:14Z</time>
      </trkpt>
      <trkpt lat="46.17905" lon="6.09781">
        <ele>420</ele>
        <time>2022-09-27T14:22:15Z</time>
      </trkpt>
      <trkpt lat="46.17907" lon="6.09786">
        <ele>420.1</ele>
        <time>2022-09-27T14:22:16Z</time>
      </trkpt>
      <trkpt lat="46.17909" lon="6.0979">
        <ele>420.2</ele>
        <time>2022-09-27T14:22:17Z</time>
      </trkpt>
      <trkpt lat="46.17911" lon="6.09797">
        <ele>420.4</ele>
        <time>2022-09-27T14:22:18Z</time>
      </trkpt>
      <trkpt lat="46.17914" lon="6.09803">
        <ele>420.5</ele>
        <time>2022-09-27T14:22:20Z</time>
      </trkpt>
      <trkpt lat="46.17916" lon="6.09807">
        <ele>420.6</ele>
        <time>2022-09-27T14:22:21Z</time>
      </trkpt>
      <trkpt lat="46.17918" lon="6.09812">
        <ele>420.7</ele>
        <time>2022-09-27T14:22:22Z</time>
      </trkpt>
      <trkpt lat="46.17921" lon="6.09817">
        <ele>420.8</ele>
        <time>2022-09-27T14:22:23Z</time>
      </trkpt>
      <trkpt lat="46.17923" lon="6.09822">
        <ele>420.9</ele>
        <time>2022-09-27T14:22:24Z</time>
      </trkpt>
      <trkpt lat="46.17926" lon="6.09828">
        <ele>421</ele>
        <time>2022-09-27T14:22:25Z</time>
      </trkpt>
      <trkpt lat="46.17928" lon="6.09832">
        <ele>421.1</ele>
        <time>2022-09-27T14:22:26Z</time>
      </trkpt>
      <trkpt lat="46.1793" lon="6.09836">
        <ele>421.2</ele>
        <time>2022-09-27T14:22:27Z</time>
      </trkpt>
      <trkpt lat="46.17933" lon="6.09841">
        <ele>421.3</ele>
        <time>2022-09-27T14:22:28Z</time>
      </trkpt>
      <trkpt lat="46.17936" lon="6.09847">
        <ele>421.5</ele>
        <time>2022-09-27T14:22:29Z</time>
      </trkpt>
      <trkpt lat="46.17937" lon="6.09851">
        <ele>421.6</ele>
        <time>2022-09-27T14:22:30Z</time>
      </trkpt>
      <trkpt lat="46.17941" lon="6.09855">
        <ele>421.7</ele>
        <time>2022-09-27T14:22:31Z</time>
      </trkpt>
      <trkpt lat="46.17944" lon="6.0986">
        <ele>421.9</ele>
        <time>2022-09-27T14:22:32Z</time>
      </trkpt>
      <trkpt lat="46.17945" lon="6.09865">
        <ele>422</ele>
        <time>2022-09-27T14:22:33Z</time>
      </trkpt>
      <trkpt lat="46.17947" lon="6.09869">
        <ele>422.1</ele>
        <time>2022-09-27T14:22:34Z</time>
      </trkpt>
      <trkpt lat="46.17949" lon="6.09873">
        <ele>422.2</ele>
        <time>2022-09-27T14:22:35Z</time>
      </trkpt>
      <trkpt lat="46.1795" lon="6.09877">
        <ele>422.3</ele>
        <time>2022-09-27T14:22:36Z</time>
      </trkpt>
      <trkpt lat="46.17953" lon="6.09881">
        <ele>422.4</ele>
        <time>2022-09-27T14:22:37Z</time>
      </trkpt>
      <trkpt lat="46.17955" lon="6.09884">
        <ele>422.5</ele>
        <time>2022-09-27T14:22:38Z</time>
      </trkpt>
      <trkpt lat="46.17957" lon="6.09888">
        <ele>422.6</ele>
        <time>2022-09-27T14:22:39Z</time>
      </trkpt>
      <trkpt lat="46.17958" lon="6.09889">
        <ele>422.6</ele>
        <time>2022-09-27T14:22:40Z</time>
      </trkpt>
      <trkpt lat="46.17958" lon="6.0989">
        <ele>422.6</ele>
        <time>2022-09-27T14:22:41Z</time>
      </trkpt>
      <trkpt lat="46.17958" lon="6.09891">
        <ele>422.7</ele>
        <time>2022-09-27T14:22:42Z</time>
      </trkpt>
      <trkpt lat="46.17959" lon="6.09892">
        <ele>422.7</ele>
        <time>2022-09-27T14:22:43Z</time>
      </trkpt>
      <trkpt lat="46.17959" lon="6.09892">
        <ele>422.7</ele>
        <time>2022-09-27T14:22:44Z</time>
      </trkpt>
      <trkpt lat="46.17959" lon="6.09893">
        <ele>422.7</ele>
        <time>2022-09-27T14:22:45Z</time>
      </trkpt>
      <trkpt lat="46.17959" lon="6.09894">
        <ele>422.7</ele>
        <time>2022-09-27T14:22:46Z</time>
      </trkpt>
      <trkpt lat="46.1796" lon="6.09897">
        <ele>422.8</ele>
        <time>2022-09-27T14:22:47Z</time>
      </trkpt>
      <trkpt lat="46.17961" lon="6.09898">
        <ele>422.9</ele>
        <time>2022-09-27T14:22:48Z</time>
      </trkpt>
      <trkpt lat="46.17964" lon="6.09899">
        <ele>423</ele>
        <time>2022-09-27T14:22:49Z</time>
      </trkpt>
      <trkpt lat="46.17965" lon="6.09899">
        <ele>423.1</ele>
        <time>2022-09-27T14:22:50Z</time>
      </trkpt>
      <trkpt lat="46.17969" lon="6.099">
        <ele>423.2</ele>
        <time>2022-09-27T14:22:51Z</time>
      </trkpt>
      <trkpt lat="46.1797" lon="6.099">
        <ele>423.3</ele>
        <time>2022-09-27T14:22:52Z</time>
      </trkpt>
      <trkpt lat="46.17973" lon="6.09901">
        <ele>423.4</ele>
        <time>2022-09-27T14:22:53Z</time>
      </trkpt>
      <trkpt lat="46.17974" lon="6.09902">
        <ele>423.5</ele>
        <time>2022-09-27T14:22:54Z</time>
      </trkpt>
      <trkpt lat="46.17975" lon="6.09902">
        <ele>423.6</ele>
        <time>2022-09-27T14:22:55Z</time>
      </trkpt>
      <trkpt lat="46.17977" lon="6.09903">
        <ele>423.7</ele>
        <time>2022-09-27T14:22:56Z</time>
      </trkpt>
      <trkpt lat="46.17979" lon="6.09907">
        <ele>423.9</ele>
        <time>2022-09-27T14:22:57Z</time>
      </trkpt>
      <trkpt lat="46.1798" lon="6.09908">
        <ele>423.9</ele>
        <time>2022-09-27T14:22:58Z</time>
      </trkpt>
      <trkpt lat="46.17982" lon="6.09912">
        <ele>424.1</ele>
        <time>2022-09-27T14:22:59Z</time>
      </trkpt>
      <trkpt lat="46.17983" lon="6.09913">
        <ele>424.2</ele>
        <time>2022-09-27T14:23:00Z</time>
      </trkpt>
      <trkpt lat="46.17985" lon="6.09917">
        <ele>424.3</ele>
        <time>2022-09-27T14:23:01Z</time>
      </trkpt>
      <trkpt lat="46.17986" lon="6.09918">
        <ele>424.4</ele>
        <time>2022-09-27T14:23:02Z</time>
      </trkpt>
      <trkpt lat="46.17988" lon="6.09923">
        <ele>424.5</ele>
        <time>2022-09-27T14:23:03Z</time>
      </trkpt>
      <trkpt lat="46.17989" lon="6.09924">
        <ele>424.6</ele>
        <time>2022-09-27T14:23:04Z</time>
      </trkpt>
      <trkpt lat="46.17991" lon="6.09927">
        <ele>424.7</ele>
        <time>2022-09-27T14:23:05Z</time>
      </trkpt>
      <trkpt lat="46.17994" lon="6.0993">
        <ele>424.8</ele>
        <time>2022-09-27T14:23:06Z</time>
      </trkpt>
      <trkpt lat="46.17994" lon="6.09931">
        <ele>424.9</ele>
        <time>2022-09-27T14:23:07Z</time>
      </trkpt>
      <trkpt lat="46.17997" lon="6.09935">
        <ele>425</ele>
        <time>2022-09-27T14:23:08Z</time>
      </trkpt>
      <trkpt lat="46.17998" lon="6.09937">
        <ele>425.1</ele>
        <time>2022-09-27T14:23:09Z</time>
      </trkpt>
      <trkpt lat="46.18" lon="6.09941">
        <ele>425.2</ele>
        <time>2022-09-27T14:23:10Z</time>
      </trkpt>
      <trkpt lat="46.18001" lon="6.09945">
        <ele>425.3</ele>
        <time>2022-09-27T14:23:11Z</time>
      </trkpt>
      <trkpt lat="46.18004" lon="6.09949">
        <ele>425.4</ele>
        <time>2022-09-27T14:23:12Z</time>
      </trkpt>
      <trkpt lat="46.18005" lon="6.09951">
        <ele>425.5</ele>
        <time>2022-09-27T14:23:13Z</time>
      </trkpt>
      <trkpt lat="46.18007" lon="6.09955">
        <ele>425.6</ele>
        <time>2022-09-27T14:23:14Z</time>
      </trkpt>
      <trkpt lat="46.18009" lon="6.09957">
        <ele>425.7</ele>
        <time>2022-09-27T14:23:15Z</time>
      </trkpt>
      <trkpt lat="46.18011" lon="6.09962">
        <ele>425.8</ele>
        <time>2022-09-27T14:23:16Z</time>
      </trkpt>
      <trkpt lat="46.18012" lon="6.09964">
        <ele>425.8</ele>
        <time>2022-09-27T14:23:17Z</time>
      </trkpt>
      <trkpt lat="46.18014" lon="6.09967">
        <ele>425.9</ele>
        <time>2022-09-27T14:23:18Z</time>
      </trkpt>
      <trkpt lat="46.18016" lon="6.09971">
        <ele>426</ele>
        <time>2022-09-27T14:23:19Z</time>
      </trkpt>
      <trkpt lat="46.18017" lon="6.09976">
        <ele>426.1</ele>
        <time>2022-09-27T14:23:20Z</time>
      </trkpt>
      <trkpt lat="46.18019" lon="6.09979">
        <ele>426.1</ele>
        <time>2022-09-27T14:23:21Z</time>
      </trkpt>
      <trkpt lat="46.18021" lon="6.09984">
        <ele>426.2</ele>
        <time>2022-09-27T14:23:22Z</time>
      </trkpt>
      <trkpt lat="46.18022" lon="6.09989">
        <ele>426.3</ele>
        <time>2022-09-27T14:23:23Z</time>
      </trkpt>
      <trkpt lat="46.18024" lon="6.09994">
        <ele>426.3</ele>
        <time>2022-09-27T14:23:24Z</time>
      </trkpt>
      <trkpt lat="46.18026" lon="6.09997">
        <ele>426.4</ele>
        <time>2022-09-27T14:23:25Z</time>
      </trkpt>
      <trkpt lat="46.18026" lon="6.10001">
        <ele>426.5</ele>
        <time>2022-09-27T14:23:26Z</time>
      </trkpt>
      <trkpt lat="46.18028" lon="6.10005">
        <ele>426.6</ele>
        <time>2022-09-27T14:23:27Z</time>
      </trkpt>
      <trkpt lat="46.18029" lon="6.10009">
        <ele>426.7</ele>
        <time>2022-09-27T14:23:28Z</time>
      </trkpt>
      <trkpt lat="46.18031" lon="6.10014">
        <ele>426.8</ele>
        <time>2022-09-27T14:23:29Z</time>
      </trkpt>
      <trkpt lat="46.18033" lon="6.10018">
        <ele>426.9</ele>
        <time>2022-09-27T14:23:30Z</time>
      </trkpt>
      <trkpt lat="46.18034" lon="6.1002">
        <ele>427</ele>
        <time>2022-09-27T14:23:31Z</time>
      </trkpt>
      <trkpt lat="46.18037" lon="6.10024">
        <ele>427.1</ele>
        <time>2022-09-27T14:23:32Z</time>
      </trkpt>
      <trkpt lat="46.18038" lon="6.10028">
        <ele>427.2</ele>
        <time>2022-09-27T14:23:33Z</time>
      </trkpt>
      <trkpt lat="46.1804" lon="6.10032">
        <ele>427.3</ele>
        <time>2022-09-27T14:23:34Z</time>
      </trkpt>
      <trkpt lat="46.18042" lon="6.10035">
        <ele>427.3</ele>
        <time>2022-09-27T14:23:35Z</time>
      </trkpt>
      <trkpt lat="46.18044" lon="6.1004">
        <ele>427.4</ele>
        <time>2022-09-27T14:23:36Z</time>
      </trkpt>
      <trkpt lat="46.18046" lon="6.10044">
        <ele>427.5</ele>
        <time>2022-09-27T14:23:37Z</time>
      </trkpt>
      <trkpt lat="46.18047" lon="6.10045">
        <ele>427.6</ele>
        <time>2022-09-27T14:23:38Z</time>
      </trkpt>
      <trkpt lat="46.18048" lon="6.10049">
        <ele>427.6</ele>
        <time>2022-09-27T14:23:39Z</time>
      </trkpt>
      <trkpt lat="46.1805" lon="6.10053">
        <ele>427.7</ele>
        <time>2022-09-27T14:23:40Z</time>
      </trkpt>
      <trkpt lat="46.18051" lon="6.10056">
        <ele>427.8</ele>
        <time>2022-09-27T14:23:41Z</time>
      </trkpt>
      <trkpt lat="46.18056" lon="6.10061">
        <ele>428</ele>
        <time>2022-09-27T14:23:42Z</time>
      </trkpt>
      <trkpt lat="46.18057" lon="6.10061">
        <ele>428</ele>
        <time>2022-09-27T14:23:43Z</time>
      </trkpt>
      <trkpt lat="46.18061" lon="6.10062">
        <ele>428.2</ele>
        <time>2022-09-27T14:23:44Z</time>
      </trkpt>
      <trkpt lat="46.18063" lon="6.10061">
        <ele>428.2</ele>
        <time>2022-09-27T14:23:45Z</time>
      </trkpt>
      <trkpt lat="46.18066" lon="6.10058">
        <ele>428.4</ele>
        <time>2022-09-27T14:23:46Z</time>
      </trkpt>
      <trkpt lat="46.18068" lon="6.10058">
        <ele>428.4</ele>
        <time>2022-09-27T14:23:47Z</time>
      </trkpt>
      <trkpt lat="46.18071" lon="6.10055">
        <ele>428.5</ele>
        <time>2022-09-27T14:23:48Z</time>
      </trkpt>
      <trkpt lat="46.18072" lon="6.10054">
        <ele>428.6</ele>
        <time>2022-09-27T14:23:49Z</time>
      </trkpt>
      <trkpt lat="46.18075" lon="6.10052">
        <ele>428.7</ele>
        <time>2022-09-27T14:23:50Z</time>
      </trkpt>
      <trkpt lat="46.18078" lon="6.10049">
        <ele>428.8</ele>
        <time>2022-09-27T14:23:51Z</time>
      </trkpt>
      <trkpt lat="46.18079" lon="6.10048">
        <ele>428.8</ele>
        <time>2022-09-27T14:23:52Z</time>
      </trkpt>
      <trkpt lat="46.18083" lon="6.10046">
        <ele>428.9</ele>
        <time>2022-09-27T14:23:53Z</time>
      </trkpt>
      <trkpt lat="46.18084" lon="6.10046">
        <ele>429</ele>
        <time>2022-09-27T14:23:54Z</time>
      </trkpt>
      <trkpt lat="46.18088" lon="6.10045">
        <ele>429.1</ele>
        <time>2022-09-27T14:23:55Z</time>
      </trkpt>
      <trkpt lat="46.18089" lon="6.10044">
        <ele>429.1</ele>
        <time>2022-09-27T14:23:56Z</time>
      </trkpt>
      <trkpt lat="46.18092" lon="6.10044">
        <ele>429.1</ele>
        <time>2022-09-27T14:23:57Z</time>
      </trkpt>
      <trkpt lat="46.18094" lon="6.10043">
        <ele>429.2</ele>
        <time>2022-09-27T14:23:58Z</time>
      </trkpt>
      <trkpt lat="46.18096" lon="6.10043">
        <ele>429.2</ele>
        <time>2022-09-27T14:23:59Z</time>
      </trkpt>
      <trkpt lat="46.18099" lon="6.10043">
        <ele>429.3</ele>
        <time>2022-09-27T14:24:00Z</time>
      </trkpt>
      <trkpt lat="46.181" lon="6.10043">
        <ele>429.3</ele>
        <time>2022-09-27T14:24:01Z</time>
      </trkpt>
      <trkpt lat="46.18104" lon="6.10044">
        <ele>429.4</ele>
        <time>2022-09-27T14:24:02Z</time>
      </trkpt>
      <trkpt lat="46.18107" lon="6.10045">
        <ele>429.4</ele>
        <time>2022-09-27T14:24:03Z</time>
      </trkpt>
      <trkpt lat="46.1811" lon="6.10048">
        <ele>429.5</ele>
        <time>2022-09-27T14:24:04Z</time>
      </trkpt>
      <trkpt lat="46.18111" lon="6.1005">
        <ele>429.6</ele>
        <time>2022-09-27T14:24:05Z</time>
      </trkpt>
      <trkpt lat="46.18114" lon="6.10053">
        <ele>429.6</ele>
        <time>2022-09-27T14:24:06Z</time>
      </trkpt>
      <trkpt lat="46.18117" lon="6.10056">
        <ele>429.7</ele>
        <time>2022-09-27T14:24:07Z</time>
      </trkpt>
      <trkpt lat="46.18118" lon="6.10059">
        <ele>429.8</ele>
        <time>2022-09-27T14:24:08Z</time>
      </trkpt>
      <trkpt lat="46.18121" lon="6.10064">
        <ele>429.8</ele>
        <time>2022-09-27T14:24:09Z</time>
      </trkpt>
      <trkpt lat="46.18123" lon="6.10068">
        <ele>429.9</ele>
        <time>2022-09-27T14:24:10Z</time>
      </trkpt>
      <trkpt lat="46.18125" lon="6.10071">
        <ele>430</ele>
        <time>2022-09-27T14:24:11Z</time>
      </trkpt>
      <trkpt lat="46.18126" lon="6.10075">
        <ele>430.1</ele>
        <time>2022-09-27T14:24:12Z</time>
      </trkpt>
      <trkpt lat="46.18128" lon="6.10079">
        <ele>430.2</ele>
        <time>2022-09-27T14:24:13Z</time>
      </trkpt>
      <trkpt lat="46.18129" lon="6.10082">
        <ele>430.2</ele>
        <time>2022-09-27T14:24:14Z</time>
      </trkpt>
      <trkpt lat="46.18131" lon="6.10086">
        <ele>430.3</ele>
        <time>2022-09-27T14:24:15Z</time>
      </trkpt>
      <trkpt lat="46.18132" lon="6.10089">
        <ele>430.4</ele>
        <time>2022-09-27T14:24:16Z</time>
      </trkpt>
      <trkpt lat="46.18134" lon="6.10093">
        <ele>430.5</ele>
        <time>2022-09-27T14:24:17Z</time>
      </trkpt>
      <trkpt lat="46.18136" lon="6.10096">
        <ele>430.5</ele>
        <time>2022-09-27T14:24:18Z</time>
      </trkpt>
      <trkpt lat="46.18139" lon="6.10099">
        <ele>430.6</ele>
        <time>2022-09-27T14:24:19Z</time>
      </trkpt>
      <trkpt lat="46.18141" lon="6.10103">
        <ele>430.7</ele>
        <time>2022-09-27T14:24:20Z</time>
      </trkpt>
      <trkpt lat="46.18143" lon="6.10106">
        <ele>430.8</ele>
        <time>2022-09-27T14:24:21Z</time>
      </trkpt>
      <trkpt lat="46.18144" lon="6.1011">
        <ele>430.8</ele>
        <time>2022-09-27T14:24:22Z</time>
      </trkpt>
      <trkpt lat="46.18145" lon="6.10114">
        <ele>430.9</ele>
        <time>2022-09-27T14:24:23Z</time>
      </trkpt>
      <trkpt lat="46.18147" lon="6.10117">
        <ele>431</ele>
        <time>2022-09-27T14:24:24Z</time>
      </trkpt>
      <trkpt lat="46.18148" lon="6.1012">
        <ele>431</ele>
        <time>2022-09-27T14:24:26Z</time>
      </trkpt>
      <trkpt lat="46.18149" lon="6.10123">
        <ele>431.1</ele>
        <time>2022-09-27T14:24:27Z</time>
      </trkpt>
      <trkpt lat="46.18151" lon="6.10127">
        <ele>431.2</ele>
        <time>2022-09-27T14:24:28Z</time>
      </trkpt>
      <trkpt lat="46.18153" lon="6.10132">
        <ele>431.2</ele>
        <time>2022-09-27T14:24:29Z</time>
      </trkpt>
      <trkpt lat="46.18154" lon="6.10133">
        <ele>431.3</ele>
        <time>2022-09-27T14:24:30Z</time>
      </trkpt>
      <trkpt lat="46.18156" lon="6.10136">
        <ele>431.3</ele>
        <time>2022-09-27T14:24:31Z</time>
      </trkpt>
      <trkpt lat="46.18157" lon="6.1014">
        <ele>431.4</ele>
        <time>2022-09-27T14:24:32Z</time>
      </trkpt>
      <trkpt lat="46.18159" lon="6.10145">
        <ele>431.5</ele>
        <time>2022-09-27T14:24:33Z</time>
      </trkpt>
      <trkpt lat="46.18159" lon="6.10147">
        <ele>431.5</ele>
        <time>2022-09-27T14:24:34Z</time>
      </trkpt>
      <trkpt lat="46.18161" lon="6.10152">
        <ele>431.6</ele>
        <time>2022-09-27T14:24:35Z</time>
      </trkpt>
      <trkpt lat="46.18162" lon="6.10153">
        <ele>431.7</ele>
        <time>2022-09-27T14:24:36Z</time>
      </trkpt>
      <trkpt lat="46.18164" lon="6.10157">
        <ele>431.7</ele>
        <time>2022-09-27T14:24:37Z</time>
      </trkpt>
      <trkpt lat="46.18165" lon="6.10162">
        <ele>431.8</ele>
        <time>2022-09-27T14:24:38Z</time>
      </trkpt>
      <trkpt lat="46.18166" lon="6.10164">
        <ele>431.8</ele>
        <time>2022-09-27T14:24:39Z</time>
      </trkpt>
      <trkpt lat="46.18168" lon="6.10168">
        <ele>431.8</ele>
        <time>2022-09-27T14:24:40Z</time>
      </trkpt>
      <trkpt lat="46.18168" lon="6.1017">
        <ele>431.9</ele>
        <time>2022-09-27T14:24:41Z</time>
      </trkpt>
      <trkpt lat="46.1817" lon="6.10175">
        <ele>431.9</ele>
        <time>2022-09-27T14:24:42Z</time>
      </trkpt>
      <trkpt lat="46.1817" lon="6.10176">
        <ele>431.9</ele>
        <time>2022-09-27T14:24:43Z</time>
      </trkpt>
      <trkpt lat="46.18171" lon="6.10179">
        <ele>431.9</ele>
        <time>2022-09-27T14:24:44Z</time>
      </trkpt>
      <trkpt lat="46.18173" lon="6.10183">
        <ele>431.9</ele>
        <time>2022-09-27T14:24:45Z</time>
      </trkpt>
      <trkpt lat="46.18175" lon="6.10186">
        <ele>431.9</ele>
        <time>2022-09-27T14:24:46Z</time>
      </trkpt>
      <trkpt lat="46.18176" lon="6.10191">
        <ele>431.9</ele>
        <time>2022-09-27T14:24:47Z</time>
      </trkpt>
      <trkpt lat="46.18177" lon="6.10193">
        <ele>431.9</ele>
        <time>2022-09-27T14:24:48Z</time>
      </trkpt>
      <trkpt lat="46.18179" lon="6.10196">
        <ele>431.9</ele>
        <time>2022-09-27T14:24:49Z</time>
      </trkpt>
      <trkpt lat="46.18181" lon="6.10199">
        <ele>431.9</ele>
        <time>2022-09-27T14:24:50Z</time>
      </trkpt>
      <trkpt lat="46.18183" lon="6.10203">
        <ele>431.9</ele>
        <time>2022-09-27T14:24:51Z</time>
      </trkpt>
      <trkpt lat="46.18185" lon="6.10206">
        <ele>431.9</ele>
        <time>2022-09-27T14:24:52Z</time>
      </trkpt>
      <trkpt lat="46.18187" lon="6.1021">
        <ele>431.9</ele>
        <time>2022-09-27T14:24:53Z</time>
      </trkpt>
      <trkpt lat="46.18189" lon="6.10213">
        <ele>431.8</ele>
        <time>2022-09-27T14:24:54Z</time>
      </trkpt>
      <trkpt lat="46.18192" lon="6.10217">
        <ele>431.8</ele>
        <time>2022-09-27T14:24:55Z</time>
      </trkpt>
      <trkpt lat="46.18194" lon="6.10219">
        <ele>431.8</ele>
        <time>2022-09-27T14:24:56Z</time>
      </trkpt>
      <trkpt lat="46.18197" lon="6.10224">
        <ele>431.8</ele>
        <time>2022-09-27T14:24:57Z</time>
      </trkpt>
      <trkpt lat="46.18199" lon="6.10227">
        <ele>431.7</ele>
        <time>2022-09-27T14:24:58Z</time>
      </trkpt>
      <trkpt lat="46.18202" lon="6.10231">
        <ele>431.7</ele>
        <time>2022-09-27T14:24:59Z</time>
      </trkpt>
      <trkpt lat="46.18204" lon="6.10235">
        <ele>431.7</ele>
        <time>2022-09-27T14:25:00Z</time>
      </trkpt>
      <trkpt lat="46.18206" lon="6.10239">
        <ele>431.6</ele>
        <time>2022-09-27T14:25:01Z</time>
      </trkpt>
      <trkpt lat="46.18209" lon="6.10242">
        <ele>431.6</ele>
        <time>2022-09-27T14:25:02Z</time>
      </trkpt>
      <trkpt lat="46.18211" lon="6.10246">
        <ele>431.5</ele>
        <time>2022-09-27T14:25:03Z</time>
      </trkpt>
      <trkpt lat="46.18215" lon="6.10251">
        <ele>431.5</ele>
        <time>2022-09-27T14:25:04Z</time>
      </trkpt>
      <trkpt lat="46.18217" lon="6.10255">
        <ele>431.4</ele>
        <time>2022-09-27T14:25:05Z</time>
      </trkpt>
      <trkpt lat="46.18219" lon="6.1026">
        <ele>431.3</ele>
        <time>2022-09-27T14:25:06Z</time>
      </trkpt>
      <trkpt lat="46.18222" lon="6.10264">
        <ele>431.3</ele>
        <time>2022-09-27T14:25:07Z</time>
      </trkpt>
      <trkpt lat="46.18225" lon="6.10268">
        <ele>431.2</ele>
        <time>2022-09-27T14:25:08Z</time>
      </trkpt>
      <trkpt lat="46.18227" lon="6.10273">
        <ele>431</ele>
        <time>2022-09-27T14:25:09Z</time>
      </trkpt>
      <trkpt lat="46.1823" lon="6.10277">
        <ele>431</ele>
        <time>2022-09-27T14:25:10Z</time>
      </trkpt>
      <trkpt lat="46.18232" lon="6.10282">
        <ele>430.9</ele>
        <time>2022-09-27T14:25:11Z</time>
      </trkpt>
      <trkpt lat="46.18234" lon="6.10286">
        <ele>430.8</ele>
        <time>2022-09-27T14:25:12Z</time>
      </trkpt>
      <trkpt lat="46.18236" lon="6.10291">
        <ele>430.7</ele>
        <time>2022-09-27T14:25:13Z</time>
      </trkpt>
      <trkpt lat="46.18239" lon="6.10296">
        <ele>430.6</ele>
        <time>2022-09-27T14:25:14Z</time>
      </trkpt>
      <trkpt lat="46.18241" lon="6.10302">
        <ele>430.5</ele>
        <time>2022-09-27T14:25:15Z</time>
      </trkpt>
      <trkpt lat="46.18245" lon="6.10307">
        <ele>430.4</ele>
        <time>2022-09-27T14:25:16Z</time>
      </trkpt>
      <trkpt lat="46.18247" lon="6.10312">
        <ele>430.3</ele>
        <time>2022-09-27T14:25:17Z</time>
      </trkpt>
      <trkpt lat="46.18249" lon="6.10319">
        <ele>430.2</ele>
        <time>2022-09-27T14:25:18Z</time>
      </trkpt>
      <trkpt lat="46.18251" lon="6.10326">
        <ele>430.1</ele>
        <time>2022-09-27T14:25:19Z</time>
      </trkpt>
      <trkpt lat="46.18253" lon="6.10332">
        <ele>430</ele>
        <time>2022-09-27T14:25:20Z</time>
      </trkpt>
      <trkpt lat="46.18255" lon="6.10339">
        <ele>429.9</ele>
        <time>2022-09-27T14:25:21Z</time>
      </trkpt>
      <trkpt lat="46.18257" lon="6.10343">
        <ele>429.8</ele>
        <time>2022-09-27T14:25:22Z</time>
      </trkpt>
      <trkpt lat="46.18261" lon="6.10347">
        <ele>429.8</ele>
        <time>2022-09-27T14:25:23Z</time>
      </trkpt>
      <trkpt lat="46.18264" lon="6.10349">
        <ele>429.7</ele>
        <time>2022-09-27T14:25:24Z</time>
      </trkpt>
      <trkpt lat="46.18267" lon="6.1035">
        <ele>429.6</ele>
        <time>2022-09-27T14:25:25Z</time>
      </trkpt>
      <trkpt lat="46.1827" lon="6.10349">
        <ele>429.5</ele>
        <time>2022-09-27T14:25:26Z</time>
      </trkpt>
      <trkpt lat="46.18273" lon="6.10347">
        <ele>429.5</ele>
        <time>2022-09-27T14:25:27Z</time>
      </trkpt>
      <trkpt lat="46.18276" lon="6.10346">
        <ele>429.5</ele>
        <time>2022-09-27T14:25:28Z</time>
      </trkpt>
      <trkpt lat="46.18279" lon="6.10349">
        <ele>429.4</ele>
        <time>2022-09-27T14:25:29Z</time>
      </trkpt>
      <trkpt lat="46.1828" lon="6.10351">
        <ele>429.4</ele>
        <time>2022-09-27T14:25:30Z</time>
      </trkpt>
      <trkpt lat="46.18283" lon="6.10353">
        <ele>429.3</ele>
        <time>2022-09-27T14:25:31Z</time>
      </trkpt>
      <trkpt lat="46.18286" lon="6.10357">
        <ele>429.2</ele>
        <time>2022-09-27T14:25:32Z</time>
      </trkpt>
      <trkpt lat="46.18288" lon="6.1036">
        <ele>429.2</ele>
        <time>2022-09-27T14:25:33Z</time>
      </trkpt>
      <trkpt lat="46.18291" lon="6.10364">
        <ele>429</ele>
        <time>2022-09-27T14:25:34Z</time>
      </trkpt>
      <trkpt lat="46.18295" lon="6.10366">
        <ele>428.9</ele>
        <time>2022-09-27T14:25:35Z</time>
      </trkpt>
      <trkpt lat="46.18297" lon="6.1037">
        <ele>428.7</ele>
        <time>2022-09-27T14:25:36Z</time>
      </trkpt>
      <trkpt lat="46.183" lon="6.10375">
        <ele>428.6</ele>
        <time>2022-09-27T14:25:37Z</time>
      </trkpt>
      <trkpt lat="46.18303" lon="6.1038">
        <ele>428.4</ele>
        <time>2022-09-27T14:25:38Z</time>
      </trkpt>
      <trkpt lat="46.18308" lon="6.10386">
        <ele>428.1</ele>
        <time>2022-09-27T14:25:39Z</time>
      </trkpt>
      <trkpt lat="46.18312" lon="6.10391">
        <ele>427.8</ele>
        <time>2022-09-27T14:25:40Z</time>
      </trkpt>
      <trkpt lat="46.18316" lon="6.10395">
        <ele>427.6</ele>
        <time>2022-09-27T14:25:41Z</time>
      </trkpt>
      <trkpt lat="46.1832" lon="6.10402">
        <ele>427.4</ele>
        <time>2022-09-27T14:25:42Z</time>
      </trkpt>
      <trkpt lat="46.18324" lon="6.10408">
        <ele>427.2</ele>
        <time>2022-09-27T14:25:43Z</time>
      </trkpt>
      <trkpt lat="46.18328" lon="6.10414">
        <ele>427</ele>
        <time>2022-09-27T14:25:44Z</time>
      </trkpt>
      <trkpt lat="46.18332" lon="6.1042">
        <ele>427</ele>
        <time>2022-09-27T14:25:45Z</time>
      </trkpt>
      <trkpt lat="46.18336" lon="6.10424">
        <ele>426.9</ele>
        <time>2022-09-27T14:25:46Z</time>
      </trkpt>
      <trkpt lat="46.18339" lon="6.10429">
        <ele>426.8</ele>
        <time>2022-09-27T14:25:47Z</time>
      </trkpt>
      <trkpt lat="46.18342" lon="6.10433">
        <ele>426.7</ele>
        <time>2022-09-27T14:25:48Z</time>
      </trkpt>
      <trkpt lat="46.18346" lon="6.1044">
        <ele>426.6</ele>
        <time>2022-09-27T14:25:49Z</time>
      </trkpt>
      <trkpt lat="46.18351" lon="6.10448">
        <ele>426.4</ele>
        <time>2022-09-27T14:25:50Z</time>
      </trkpt>
      <trkpt lat="46.18354" lon="6.10453">
        <ele>426.2</ele>
        <time>2022-09-27T14:25:51Z</time>
      </trkpt>
      <trkpt lat="46.18357" lon="6.10456">
        <ele>426.1</ele>
        <time>2022-09-27T14:25:52Z</time>
      </trkpt>
      <trkpt lat="46.18359" lon="6.1046">
        <ele>425.9</ele>
        <time>2022-09-27T14:25:53Z</time>
      </trkpt>
      <trkpt lat="46.18361" lon="6.10465">
        <ele>425.8</ele>
        <time>2022-09-27T14:25:54Z</time>
      </trkpt>
      <trkpt lat="46.18364" lon="6.1047">
        <ele>425.6</ele>
        <time>2022-09-27T14:25:55Z</time>
      </trkpt>
      <trkpt lat="46.18367" lon="6.10474">
        <ele>425.4</ele>
        <time>2022-09-27T14:25:56Z</time>
      </trkpt>
      <trkpt lat="46.18368" lon="6.10479">
        <ele>425.2</ele>
        <time>2022-09-27T14:25:57Z</time>
      </trkpt>
      <trkpt lat="46.18369" lon="6.10485">
        <ele>425</ele>
        <time>2022-09-27T14:25:58Z</time>
      </trkpt>
      <trkpt lat="46.18371" lon="6.10492">
        <ele>424.8</ele>
        <time>2022-09-27T14:25:59Z</time>
      </trkpt>
      <trkpt lat="46.18374" lon="6.10499">
        <ele>424.5</ele>
        <time>2022-09-27T14:26:00Z</time>
      </trkpt>
      <trkpt lat="46.18378" lon="6.10505">
        <ele>424.3</ele>
        <time>2022-09-27T14:26:01Z</time>
      </trkpt>
      <trkpt lat="46.18382" lon="6.10513">
        <ele>424.2</ele>
        <time>2022-09-27T14:26:02Z</time>
      </trkpt>
      <trkpt lat="46.18385" lon="6.10521">
        <ele>424.1</ele>
        <time>2022-09-27T14:26:03Z</time>
      </trkpt>
      <trkpt lat="46.18387" lon="6.10528">
        <ele>424.1</ele>
        <time>2022-09-27T14:26:04Z</time>
      </trkpt>
      <trkpt lat="46.1839" lon="6.10535">
        <ele>424</ele>
        <time>2022-09-27T14:26:05Z</time>
      </trkpt>
      <trkpt lat="46.18393" lon="6.10542">
        <ele>423.9</ele>
        <time>2022-09-27T14:26:06Z</time>
      </trkpt>
      <trkpt lat="46.18395" lon="6.10548">
        <ele>423.9</ele>
        <time>2022-09-27T14:26:07Z</time>
      </trkpt>
      <trkpt lat="46.18398" lon="6.10555">
        <ele>423.8</ele>
        <time>2022-09-27T14:26:08Z</time>
      </trkpt>
      <trkpt lat="46.184" lon="6.1056">
        <ele>423.7</ele>
        <time>2022-09-27T14:26:09Z</time>
      </trkpt>
      <trkpt lat="46.18402" lon="6.10565">
        <ele>423.7</ele>
        <time>2022-09-27T14:26:10Z</time>
      </trkpt>
      <trkpt lat="46.18403" lon="6.10569">
        <ele>423.7</ele>
        <time>2022-09-27T14:26:11Z</time>
      </trkpt>
      <trkpt lat="46.18405" lon="6.10574">
        <ele>423.6</ele>
        <time>2022-09-27T14:26:12Z</time>
      </trkpt>
      <trkpt lat="46.18406" lon="6.10575">
        <ele>423.6</ele>
        <time>2022-09-27T14:26:13Z</time>
      </trkpt>
      <trkpt lat="46.18407" lon="6.1058">
        <ele>423.6</ele>
        <time>2022-09-27T14:26:14Z</time>
      </trkpt>
      <trkpt lat="46.18408" lon="6.10582">
        <ele>423.6</ele>
        <time>2022-09-27T14:26:15Z</time>
      </trkpt>
      <trkpt lat="46.18409" lon="6.10586">
        <ele>423.6</ele>
        <time>2022-09-27T14:26:16Z</time>
      </trkpt>
      <trkpt lat="46.1841" lon="6.1059">
        <ele>423.5</ele>
        <time>2022-09-27T14:26:17Z</time>
      </trkpt>
      <trkpt lat="46.18412" lon="6.10594">
        <ele>423.5</ele>
        <time>2022-09-27T14:26:18Z</time>
      </trkpt>
      <trkpt lat="46.18413" lon="6.10598">
        <ele>423.5</ele>
        <time>2022-09-27T14:26:19Z</time>
      </trkpt>
      <trkpt lat="46.18415" lon="6.10603">
        <ele>423.5</ele>
        <time>2022-09-27T14:26:20Z</time>
      </trkpt>
      <trkpt lat="46.18417" lon="6.10607">
        <ele>423.4</ele>
        <time>2022-09-27T14:26:21Z</time>
      </trkpt>
      <trkpt lat="46.18417" lon="6.10612">
        <ele>423.4</ele>
        <time>2022-09-27T14:26:22Z</time>
      </trkpt>
      <trkpt lat="46.18419" lon="6.10616">
        <ele>423.4</ele>
        <time>2022-09-27T14:26:23Z</time>
      </trkpt>
      <trkpt lat="46.18421" lon="6.10621">
        <ele>423.4</ele>
        <time>2022-09-27T14:26:24Z</time>
      </trkpt>
      <trkpt lat="46.18423" lon="6.10625">
        <ele>423.3</ele>
        <time>2022-09-27T14:26:25Z</time>
      </trkpt>
      <trkpt lat="46.18424" lon="6.1063">
        <ele>423.3</ele>
        <time>2022-09-27T14:26:26Z</time>
      </trkpt>
      <trkpt lat="46.18426" lon="6.10634">
        <ele>423.3</ele>
        <time>2022-09-27T14:26:27Z</time>
      </trkpt>
      <trkpt lat="46.18427" lon="6.10638">
        <ele>423.3</ele>
        <time>2022-09-27T14:26:28Z</time>
      </trkpt>
      <trkpt lat="46.18428" lon="6.10642">
        <ele>423.3</ele>
        <time>2022-09-27T14:26:29Z</time>
      </trkpt>
      <trkpt lat="46.1843" lon="6.10648">
        <ele>423.3</ele>
        <time>2022-09-27T14:26:30Z</time>
      </trkpt>
      <trkpt lat="46.18433" lon="6.10652">
        <ele>423.2</ele>
        <time>2022-09-27T14:26:31Z</time>
      </trkpt>
      <trkpt lat="46.18434" lon="6.10657">
        <ele>423.2</ele>
        <time>2022-09-27T14:26:32Z</time>
      </trkpt>
      <trkpt lat="46.18436" lon="6.10663">
        <ele>423.1</ele>
        <time>2022-09-27T14:26:33Z</time>
      </trkpt>
      <trkpt lat="46.18437" lon="6.10667">
        <ele>423.1</ele>
        <time>2022-09-27T14:26:34Z</time>
      </trkpt>
      <trkpt lat="46.18439" lon="6.10673">
        <ele>423.1</ele>
        <time>2022-09-27T14:26:35Z</time>
      </trkpt>
      <trkpt lat="46.18441" lon="6.10679">
        <ele>423</ele>
        <time>2022-09-27T14:26:36Z</time>
      </trkpt>
      <trkpt lat="46.18442" lon="6.10683">
        <ele>423</ele>
        <time>2022-09-27T14:26:37Z</time>
      </trkpt>
      <trkpt lat="46.18444" lon="6.10689">
        <ele>423</ele>
        <time>2022-09-27T14:26:38Z</time>
      </trkpt>
      <trkpt lat="46.18446" lon="6.10694">
        <ele>423</ele>
        <time>2022-09-27T14:26:39Z</time>
      </trkpt>
      <trkpt lat="46.18447" lon="6.10699">
        <ele>423</ele>
        <time>2022-09-27T14:26:40Z</time>
      </trkpt>
      <trkpt lat="46.18448" lon="6.10704">
        <ele>422.9</ele>
        <time>2022-09-27T14:26:41Z</time>
      </trkpt>
      <trkpt lat="46.1845" lon="6.10709">
        <ele>422.9</ele>
        <time>2022-09-27T14:26:42Z</time>
      </trkpt>
      <trkpt lat="46.1845" lon="6.10711">
        <ele>422.9</ele>
        <time>2022-09-27T14:26:43Z</time>
      </trkpt>
      <trkpt lat="46.18452" lon="6.10715">
        <ele>422.9</ele>
        <time>2022-09-27T14:26:44Z</time>
      </trkpt>
      <trkpt lat="46.18452" lon="6.10716">
        <ele>422.9</ele>
        <time>2022-09-27T14:26:45Z</time>
      </trkpt>
      <trkpt lat="46.18453" lon="6.10718">
        <ele>422.9</ele>
        <time>2022-09-27T14:26:46Z</time>
      </trkpt>
      <trkpt lat="46.18453" lon="6.1072">
        <ele>422.9</ele>
        <time>2022-09-27T14:26:47Z</time>
      </trkpt>
      <trkpt lat="46.18453" lon="6.10722">
        <ele>422.8</ele>
        <time>2022-09-27T14:26:48Z</time>
      </trkpt>
      <trkpt lat="46.18453" lon="6.10725">
        <ele>422.8</ele>
        <time>2022-09-27T14:26:49Z</time>
      </trkpt>
      <trkpt lat="46.18454" lon="6.10729">
        <ele>422.8</ele>
        <time>2022-09-27T14:26:50Z</time>
      </trkpt>
      <trkpt lat="46.18456" lon="6.10733">
        <ele>422.8</ele>
        <time>2022-09-27T14:26:51Z</time>
      </trkpt>
      <trkpt lat="46.18457" lon="6.10737">
        <ele>422.7</ele>
        <time>2022-09-27T14:26:52Z</time>
      </trkpt>
      <trkpt lat="46.18459" lon="6.10742">
        <ele>422.7</ele>
        <time>2022-09-27T14:26:53Z</time>
      </trkpt>
      <trkpt lat="46.18461" lon="6.10747">
        <ele>422.7</ele>
        <time>2022-09-27T14:26:54Z</time>
      </trkpt>
      <trkpt lat="46.18462" lon="6.1075">
        <ele>422.7</ele>
        <time>2022-09-27T14:26:55Z</time>
      </trkpt>
      <trkpt lat="46.18463" lon="6.10753">
        <ele>422.6</ele>
        <time>2022-09-27T14:26:56Z</time>
      </trkpt>
      <trkpt lat="46.18465" lon="6.10757">
        <ele>422.6</ele>
        <time>2022-09-27T14:26:57Z</time>
      </trkpt>
      <trkpt lat="46.18467" lon="6.10761">
        <ele>422.6</ele>
        <time>2022-09-27T14:26:58Z</time>
      </trkpt>
      <trkpt lat="46.18469" lon="6.10766">
        <ele>422.5</ele>
        <time>2022-09-27T14:26:59Z</time>
      </trkpt>
      <trkpt lat="46.1847" lon="6.1077">
        <ele>422.5</ele>
        <time>2022-09-27T14:27:00Z</time>
      </trkpt>
      <trkpt lat="46.18472" lon="6.10775">
        <ele>422.5</ele>
        <time>2022-09-27T14:27:01Z</time>
      </trkpt>
      <trkpt lat="46.18473" lon="6.10779">
        <ele>422.5</ele>
        <time>2022-09-27T14:27:02Z</time>
      </trkpt>
      <trkpt lat="46.18475" lon="6.10785">
        <ele>422.4</ele>
        <time>2022-09-27T14:27:03Z</time>
      </trkpt>
      <trkpt lat="46.18477" lon="6.10789">
        <ele>422.4</ele>
        <time>2022-09-27T14:27:04Z</time>
      </trkpt>
      <trkpt lat="46.18478" lon="6.10792">
        <ele>422.4</ele>
        <time>2022-09-27T14:27:05Z</time>
      </trkpt>
      <trkpt lat="46.18479" lon="6.10796">
        <ele>422.4</ele>
        <time>2022-09-27T14:27:06Z</time>
      </trkpt>
      <trkpt lat="46.18481" lon="6.10801">
        <ele>422.4</ele>
        <time>2022-09-27T14:27:07Z</time>
      </trkpt>
      <trkpt lat="46.18483" lon="6.10805">
        <ele>422.3</ele>
        <time>2022-09-27T14:27:08Z</time>
      </trkpt>
      <trkpt lat="46.18484" lon="6.10809">
        <ele>422.3</ele>
        <time>2022-09-27T14:27:09Z</time>
      </trkpt>
      <trkpt lat="46.18485" lon="6.10814">
        <ele>422.3</ele>
        <time>2022-09-27T14:27:10Z</time>
      </trkpt>
      <trkpt lat="46.18486" lon="6.10818">
        <ele>422.3</ele>
        <time>2022-09-27T14:27:11Z</time>
      </trkpt>
      <trkpt lat="46.18486" lon="6.10823">
        <ele>422.3</ele>
        <time>2022-09-27T14:27:12Z</time>
      </trkpt>
      <trkpt lat="46.18486" lon="6.10829">
        <ele>422.3</ele>
        <time>2022-09-27T14:27:13Z</time>
      </trkpt>
      <trkpt lat="46.18486" lon="6.10832">
        <ele>422.3</ele>
        <time>2022-09-27T14:27:14Z</time>
      </trkpt>
      <trkpt lat="46.18486" lon="6.10837">
        <ele>422.3</ele>
        <time>2022-09-27T14:27:15Z</time>
      </trkpt>
      <trkpt lat="46.18485" lon="6.10842">
        <ele>422.3</ele>
        <time>2022-09-27T14:27:16Z</time>
      </trkpt>
      <trkpt lat="46.18485" lon="6.10849">
        <ele>422.3</ele>
        <time>2022-09-27T14:27:17Z</time>
      </trkpt>
      <trkpt lat="46.18485" lon="6.10855">
        <ele>422.3</ele>
        <time>2022-09-27T14:27:18Z</time>
      </trkpt>
      <trkpt lat="46.18485" lon="6.1086">
        <ele>422.3</ele>
        <time>2022-09-27T14:27:19Z</time>
      </trkpt>
      <trkpt lat="46.18485" lon="6.10864">
        <ele>422.3</ele>
        <time>2022-09-27T14:27:20Z</time>
      </trkpt>
      <trkpt lat="46.18485" lon="6.1087">
        <ele>422.3</ele>
        <time>2022-09-27T14:27:21Z</time>
      </trkpt>
      <trkpt lat="46.18485" lon="6.10876">
        <ele>422.3</ele>
        <time>2022-09-27T14:27:22Z</time>
      </trkpt>
      <trkpt lat="46.18485" lon="6.10882">
        <ele>422.3</ele>
        <time>2022-09-27T14:27:23Z</time>
      </trkpt>
      <trkpt lat="46.18486" lon="6.10888">
        <ele>422.4</ele>
        <time>2022-09-27T14:27:24Z</time>
      </trkpt>
      <trkpt lat="46.18486" lon="6.10893">
        <ele>422.4</ele>
        <time>2022-09-27T14:27:25Z</time>
      </trkpt>
      <trkpt lat="46.18486" lon="6.10899">
        <ele>422.4</ele>
        <time>2022-09-27T14:27:26Z</time>
      </trkpt>
      <trkpt lat="46.18486" lon="6.10904">
        <ele>422.3</ele>
        <time>2022-09-27T14:27:27Z</time>
      </trkpt>
      <trkpt lat="46.18487" lon="6.10911">
        <ele>422.3</ele>
        <time>2022-09-27T14:27:28Z</time>
      </trkpt>
      <trkpt lat="46.18488" lon="6.10917">
        <ele>422.2</ele>
        <time>2022-09-27T14:27:29Z</time>
      </trkpt>
      <trkpt lat="46.18489" lon="6.10923">
        <ele>422.2</ele>
        <time>2022-09-27T14:27:30Z</time>
      </trkpt>
      <trkpt lat="46.18489" lon="6.10929">
        <ele>422.1</ele>
        <time>2022-09-27T14:27:31Z</time>
      </trkpt>
      <trkpt lat="46.1849" lon="6.10935">
        <ele>422.1</ele>
        <time>2022-09-27T14:27:32Z</time>
      </trkpt>
      <trkpt lat="46.1849" lon="6.10941">
        <ele>422</ele>
        <time>2022-09-27T14:27:33Z</time>
      </trkpt>
      <trkpt lat="46.18491" lon="6.10947">
        <ele>421.9</ele>
        <time>2022-09-27T14:27:34Z</time>
      </trkpt>
      <trkpt lat="46.18493" lon="6.10954">
        <ele>421.8</ele>
        <time>2022-09-27T14:27:35Z</time>
      </trkpt>
      <trkpt lat="46.18494" lon="6.10962">
        <ele>421.7</ele>
        <time>2022-09-27T14:27:36Z</time>
      </trkpt>
      <trkpt lat="46.18495" lon="6.10969">
        <ele>421.6</ele>
        <time>2022-09-27T14:27:37Z</time>
      </trkpt>
      <trkpt lat="46.18497" lon="6.10974">
        <ele>421.5</ele>
        <time>2022-09-27T14:27:38Z</time>
      </trkpt>
      <trkpt lat="46.18498" lon="6.10981">
        <ele>421.4</ele>
        <time>2022-09-27T14:27:39Z</time>
      </trkpt>
      <trkpt lat="46.185" lon="6.10988">
        <ele>421.3</ele>
        <time>2022-09-27T14:27:40Z</time>
      </trkpt>
      <trkpt lat="46.18502" lon="6.10994">
        <ele>421.2</ele>
        <time>2022-09-27T14:27:41Z</time>
      </trkpt>
      <trkpt lat="46.18504" lon="6.11">
        <ele>421.1</ele>
        <time>2022-09-27T14:27:42Z</time>
      </trkpt>
      <trkpt lat="46.18506" lon="6.11006">
        <ele>421</ele>
        <time>2022-09-27T14:27:43Z</time>
      </trkpt>
      <trkpt lat="46.18507" lon="6.11013">
        <ele>421</ele>
        <time>2022-09-27T14:27:44Z</time>
      </trkpt>
      <trkpt lat="46.18508" lon="6.11017">
        <ele>421</ele>
        <time>2022-09-27T14:27:45Z</time>
      </trkpt>
      <trkpt lat="46.1851" lon="6.11021">
        <ele>421</ele>
        <time>2022-09-27T14:27:46Z</time>
      </trkpt>
      <trkpt lat="46.18512" lon="6.11026">
        <ele>420.9</ele>
        <time>2022-09-27T14:27:47Z</time>
      </trkpt>
      <trkpt lat="46.18514" lon="6.11031">
        <ele>420.9</ele>
        <time>2022-09-27T14:27:48Z</time>
      </trkpt>
      <trkpt lat="46.18517" lon="6.11034">
        <ele>420.9</ele>
        <time>2022-09-27T14:27:49Z</time>
      </trkpt>
      <trkpt lat="46.18519" lon="6.11038">
        <ele>420.9</ele>
        <time>2022-09-27T14:27:50Z</time>
      </trkpt>
      <trkpt lat="46.18522" lon="6.11041">
        <ele>421</ele>
        <time>2022-09-27T14:27:51Z</time>
      </trkpt>
      <trkpt lat="46.18524" lon="6.11043">
        <ele>421</ele>
        <time>2022-09-27T14:27:52Z</time>
      </trkpt>
      <trkpt lat="46.18527" lon="6.11045">
        <ele>421</ele>
        <time>2022-09-27T14:27:53Z</time>
      </trkpt>
      <trkpt lat="46.18528" lon="6.11046">
        <ele>421</ele>
        <time>2022-09-27T14:27:54Z</time>
      </trkpt>
      <trkpt lat="46.18529" lon="6.1105">
        <ele>421</ele>
        <time>2022-09-27T14:27:55Z</time>
      </trkpt>
      <trkpt lat="46.1853" lon="6.11052">
        <ele>421</ele>
        <time>2022-09-27T14:27:56Z</time>
      </trkpt>
      <trkpt lat="46.18531" lon="6.11056">
        <ele>421</ele>
        <time>2022-09-27T14:27:57Z</time>
      </trkpt>
      <trkpt lat="46.18532" lon="6.11061">
        <ele>421</ele>
        <time>2022-09-27T14:27:58Z</time>
      </trkpt>
      <trkpt lat="46.18532" lon="6.11066">
        <ele>421</ele>
        <time>2022-09-27T14:27:59Z</time>
      </trkpt>
      <trkpt lat="46.18531" lon="6.1107">
        <ele>421</ele>
        <time>2022-09-27T14:28:00Z</time>
      </trkpt>
      <trkpt lat="46.18532" lon="6.11074">
        <ele>421</ele>
        <time>2022-09-27T14:28:01Z</time>
      </trkpt>
      <trkpt lat="46.18532" lon="6.11079">
        <ele>421</ele>
        <time>2022-09-27T14:28:02Z</time>
      </trkpt>
      <trkpt lat="46.18531" lon="6.11083">
        <ele>421</ele>
        <time>2022-09-27T14:28:03Z</time>
      </trkpt>
      <trkpt lat="46.18529" lon="6.11088">
        <ele>421</ele>
        <time>2022-09-27T14:28:04Z</time>
      </trkpt>
      <trkpt lat="46.18528" lon="6.11093">
        <ele>421</ele>
        <time>2022-09-27T14:28:05Z</time>
      </trkpt>
      <trkpt lat="46.18526" lon="6.11097">
        <ele>421</ele>
        <time>2022-09-27T14:28:06Z</time>
      </trkpt>
      <trkpt lat="46.18525" lon="6.11102">
        <ele>421</ele>
        <time>2022-09-27T14:28:07Z</time>
      </trkpt>
      <trkpt lat="46.18523" lon="6.11105">
        <ele>421</ele>
        <time>2022-09-27T14:28:08Z</time>
      </trkpt>
      <trkpt lat="46.18522" lon="6.1111">
        <ele>421</ele>
        <time>2022-09-27T14:28:09Z</time>
      </trkpt>
      <trkpt lat="46.18521" lon="6.11114">
        <ele>421</ele>
        <time>2022-09-27T14:28:10Z</time>
      </trkpt>
      <trkpt lat="46.18519" lon="6.11118">
        <ele>421</ele>
        <time>2022-09-27T14:28:11Z</time>
      </trkpt>
      <trkpt lat="46.18517" lon="6.11123">
        <ele>421.1</ele>
        <time>2022-09-27T14:28:12Z</time>
      </trkpt>
      <trkpt lat="46.18515" lon="6.11128">
        <ele>421.1</ele>
        <time>2022-09-27T14:28:13Z</time>
      </trkpt>
      <trkpt lat="46.18512" lon="6.11134">
        <ele>421.1</ele>
        <time>2022-09-27T14:28:14Z</time>
      </trkpt>
      <trkpt lat="46.18509" lon="6.11138">
        <ele>421.1</ele>
        <time>2022-09-27T14:28:15Z</time>
      </trkpt>
      <trkpt lat="46.18508" lon="6.11142">
        <ele>421.1</ele>
        <time>2022-09-27T14:28:16Z</time>
      </trkpt>
      <trkpt lat="46.18506" lon="6.11148">
        <ele>421.1</ele>
        <time>2022-09-27T14:28:17Z</time>
      </trkpt>
      <trkpt lat="46.18505" lon="6.1115">
        <ele>421.1</ele>
        <time>2022-09-27T14:28:18Z</time>
      </trkpt>
      <trkpt lat="46.18503" lon="6.11155">
        <ele>421.1</ele>
        <time>2022-09-27T14:28:19Z</time>
      </trkpt>
      <trkpt lat="46.18501" lon="6.11158">
        <ele>421.2</ele>
        <time>2022-09-27T14:28:20Z</time>
      </trkpt>
      <trkpt lat="46.185" lon="6.11161">
        <ele>421.2</ele>
        <time>2022-09-27T14:28:21Z</time>
      </trkpt>
      <trkpt lat="46.18497" lon="6.11166">
        <ele>421.2</ele>
        <time>2022-09-27T14:28:22Z</time>
      </trkpt>
      <trkpt lat="46.18496" lon="6.1117">
        <ele>421.2</ele>
        <time>2022-09-27T14:28:23Z</time>
      </trkpt>
      <trkpt lat="46.18497" lon="6.11177">
        <ele>421.3</ele>
        <time>2022-09-27T14:28:24Z</time>
      </trkpt>
      <trkpt lat="46.18498" lon="6.11182">
        <ele>421.4</ele>
        <time>2022-09-27T14:28:25Z</time>
      </trkpt>
      <trkpt lat="46.185" lon="6.11187">
        <ele>421.5</ele>
        <time>2022-09-27T14:28:26Z</time>
      </trkpt>
      <trkpt lat="46.18502" lon="6.11191">
        <ele>421.6</ele>
        <time>2022-09-27T14:28:27Z</time>
      </trkpt>
      <trkpt lat="46.18503" lon="6.11195">
        <ele>421.7</ele>
        <time>2022-09-27T14:28:28Z</time>
      </trkpt>
      <trkpt lat="46.18505" lon="6.11199">
        <ele>421.8</ele>
        <time>2022-09-27T14:28:29Z</time>
      </trkpt>
      <trkpt lat="46.18506" lon="6.11201">
        <ele>421.9</ele>
        <time>2022-09-27T14:28:30Z</time>
      </trkpt>
      <trkpt lat="46.18507" lon="6.11206">
        <ele>421.9</ele>
        <time>2022-09-27T14:28:31Z</time>
      </trkpt>
      <trkpt lat="46.18508" lon="6.11211">
        <ele>422</ele>
        <time>2022-09-27T14:28:32Z</time>
      </trkpt>
      <trkpt lat="46.18509" lon="6.11215">
        <ele>422.1</ele>
        <time>2022-09-27T14:28:33Z</time>
      </trkpt>
      <trkpt lat="46.18511" lon="6.11219">
        <ele>422.1</ele>
        <time>2022-09-27T14:28:34Z</time>
      </trkpt>
      <trkpt lat="46.18513" lon="6.11223">
        <ele>422.2</ele>
        <time>2022-09-27T14:28:35Z</time>
      </trkpt>
      <trkpt lat="46.18514" lon="6.11228">
        <ele>422.2</ele>
        <time>2022-09-27T14:28:36Z</time>
      </trkpt>
      <trkpt lat="46.18515" lon="6.11233">
        <ele>422.3</ele>
        <time>2022-09-27T14:28:37Z</time>
      </trkpt>
      <trkpt lat="46.18517" lon="6.11236">
        <ele>422.3</ele>
        <time>2022-09-27T14:28:38Z</time>
      </trkpt>
      <trkpt lat="46.18518" lon="6.11241">
        <ele>422.3</ele>
        <time>2022-09-27T14:28:39Z</time>
      </trkpt>
      <trkpt lat="46.1852" lon="6.11245">
        <ele>422.4</ele>
        <time>2022-09-27T14:28:40Z</time>
      </trkpt>
      <trkpt lat="46.18522" lon="6.1125">
        <ele>422.4</ele>
        <time>2022-09-27T14:28:41Z</time>
      </trkpt>
      <trkpt lat="46.18523" lon="6.11255">
        <ele>422.4</ele>
        <time>2022-09-27T14:28:42Z</time>
      </trkpt>
      <trkpt lat="46.18524" lon="6.11259">
        <ele>422.5</ele>
        <time>2022-09-27T14:28:43Z</time>
      </trkpt>
      <trkpt lat="46.18526" lon="6.11264">
        <ele>422.5</ele>
        <time>2022-09-27T14:28:44Z</time>
      </trkpt>
      <trkpt lat="46.18527" lon="6.11269">
        <ele>422.5</ele>
        <time>2022-09-27T14:28:45Z</time>
      </trkpt>
      <trkpt lat="46.18529" lon="6.11273">
        <ele>422.5</ele>
        <time>2022-09-27T14:28:46Z</time>
      </trkpt>
      <trkpt lat="46.1853" lon="6.11278">
        <ele>422.6</ele>
        <time>2022-09-27T14:28:47Z</time>
      </trkpt>
      <trkpt lat="46.18531" lon="6.11283">
        <ele>422.6</ele>
        <time>2022-09-27T14:28:48Z</time>
      </trkpt>
      <trkpt lat="46.18533" lon="6.11288">
        <ele>422.6</ele>
        <time>2022-09-27T14:28:49Z</time>
      </trkpt>
      <trkpt lat="46.18534" lon="6.11292">
        <ele>422.6</ele>
        <time>2022-09-27T14:28:50Z</time>
      </trkpt>
      <trkpt lat="46.18536" lon="6.11296">
        <ele>422.6</ele>
        <time>2022-09-27T14:28:51Z</time>
      </trkpt>
      <trkpt lat="46.18537" lon="6.11302">
        <ele>422.6</ele>
        <time>2022-09-27T14:28:52Z</time>
      </trkpt>
      <trkpt lat="46.18538" lon="6.11305">
        <ele>422.6</ele>
        <time>2022-09-27T14:28:53Z</time>
      </trkpt>
      <trkpt lat="46.1854" lon="6.11309">
        <ele>422.6</ele>
        <time>2022-09-27T14:28:54Z</time>
      </trkpt>
      <trkpt lat="46.18541" lon="6.11313">
        <ele>422.6</ele>
        <time>2022-09-27T14:28:55Z</time>
      </trkpt>
      <trkpt lat="46.18541" lon="6.11315">
        <ele>422.6</ele>
        <time>2022-09-27T14:28:56Z</time>
      </trkpt>
      <trkpt lat="46.18541" lon="6.11315">
        <ele>422.6</ele>
        <time>2022-09-27T14:28:57Z</time>
      </trkpt>
      <trkpt lat="46.1854" lon="6.11314">
        <ele>422.6</ele>
        <time>2022-09-27T14:28:58Z</time>
      </trkpt>
      <trkpt lat="46.1854" lon="6.11315">
        <ele>422.6</ele>
        <time>2022-09-27T14:28:59Z</time>
      </trkpt>
      <trkpt lat="46.1854" lon="6.11315">
        <ele>422.6</ele>
        <time>2022-09-27T14:29:00Z</time>
      </trkpt>
      <trkpt lat="46.1854" lon="6.11315">
        <ele>422.6</ele>
        <time>2022-09-27T14:29:01Z</time>
      </trkpt>
      <trkpt lat="46.1854" lon="6.11315">
        <ele>422.6</ele>
        <time>2022-09-27T14:29:02Z</time>
      </trkpt>
      <trkpt lat="46.1854" lon="6.11316">
        <ele>422.6</ele>
        <time>2022-09-27T14:29:03Z</time>
      </trkpt>
      <trkpt lat="46.1854" lon="6.11319">
        <ele>422.6</ele>
        <time>2022-09-27T14:29:04Z</time>
      </trkpt>
      <trkpt lat="46.18542" lon="6.11323">
        <ele>422.6</ele>
        <time>2022-09-27T14:29:05Z</time>
      </trkpt>
      <trkpt lat="46.18542" lon="6.11324">
        <ele>422.6</ele>
        <time>2022-09-27T14:29:06Z</time>
      </trkpt>
      <trkpt lat="46.18543" lon="6.11328">
        <ele>422.6</ele>
        <time>2022-09-27T14:29:07Z</time>
      </trkpt>
      <trkpt lat="46.18543" lon="6.1133">
        <ele>422.6</ele>
        <time>2022-09-27T14:29:08Z</time>
      </trkpt>
      <trkpt lat="46.18544" lon="6.11334">
        <ele>422.5</ele>
        <time>2022-09-27T14:29:09Z</time>
      </trkpt>
      <trkpt lat="46.18546" lon="6.11338">
        <ele>422.5</ele>
        <time>2022-09-27T14:29:10Z</time>
      </trkpt>
      <trkpt lat="46.18547" lon="6.11343">
        <ele>422.4</ele>
        <time>2022-09-27T14:29:11Z</time>
      </trkpt>
      <trkpt lat="46.18548" lon="6.11347">
        <ele>422.4</ele>
        <time>2022-09-27T14:29:12Z</time>
      </trkpt>
      <trkpt lat="46.1855" lon="6.11352">
        <ele>422.3</ele>
        <time>2022-09-27T14:29:13Z</time>
      </trkpt>
      <trkpt lat="46.18551" lon="6.11358">
        <ele>422.2</ele>
        <time>2022-09-27T14:29:14Z</time>
      </trkpt>
      <trkpt lat="46.18553" lon="6.11364">
        <ele>422.2</ele>
        <time>2022-09-27T14:29:15Z</time>
      </trkpt>
      <trkpt lat="46.18555" lon="6.11369">
        <ele>422.1</ele>
        <time>2022-09-27T14:29:16Z</time>
      </trkpt>
      <trkpt lat="46.18557" lon="6.11375">
        <ele>422</ele>
        <time>2022-09-27T14:29:17Z</time>
      </trkpt>
      <trkpt lat="46.18558" lon="6.1138">
        <ele>422</ele>
        <time>2022-09-27T14:29:18Z</time>
      </trkpt>
      <trkpt lat="46.18559" lon="6.11386">
        <ele>421.9</ele>
        <time>2022-09-27T14:29:19Z</time>
      </trkpt>
      <trkpt lat="46.1856" lon="6.11393">
        <ele>421.9</ele>
        <time>2022-09-27T14:29:20Z</time>
      </trkpt>
      <trkpt lat="46.18561" lon="6.11399">
        <ele>421.9</ele>
        <time>2022-09-27T14:29:21Z</time>
      </trkpt>
      <trkpt lat="46.18563" lon="6.11404">
        <ele>421.9</ele>
        <time>2022-09-27T14:29:22Z</time>
      </trkpt>
      <trkpt lat="46.18564" lon="6.1141">
        <ele>421.8</ele>
        <time>2022-09-27T14:29:23Z</time>
      </trkpt>
      <trkpt lat="46.18566" lon="6.11416">
        <ele>421.8</ele>
        <time>2022-09-27T14:29:24Z</time>
      </trkpt>
      <trkpt lat="46.18567" lon="6.11421">
        <ele>421.8</ele>
        <time>2022-09-27T14:29:25Z</time>
      </trkpt>
      <trkpt lat="46.18569" lon="6.11427">
        <ele>421.8</ele>
        <time>2022-09-27T14:29:26Z</time>
      </trkpt>
      <trkpt lat="46.1857" lon="6.11434">
        <ele>421.8</ele>
        <time>2022-09-27T14:29:27Z</time>
      </trkpt>
      <trkpt lat="46.18571" lon="6.11439">
        <ele>421.7</ele>
        <time>2022-09-27T14:29:28Z</time>
      </trkpt>
      <trkpt lat="46.18572" lon="6.11445">
        <ele>421.7</ele>
        <time>2022-09-27T14:29:29Z</time>
      </trkpt>
      <trkpt lat="46.18574" lon="6.11451">
        <ele>421.7</ele>
        <time>2022-09-27T14:29:30Z</time>
      </trkpt>
      <trkpt lat="46.18575" lon="6.11455">
        <ele>421.6</ele>
        <time>2022-09-27T14:29:31Z</time>
      </trkpt>
      <trkpt lat="46.18576" lon="6.1146">
        <ele>421.6</ele>
        <time>2022-09-27T14:29:32Z</time>
      </trkpt>
      <trkpt lat="46.18576" lon="6.11461">
        <ele>421.6</ele>
        <time>2022-09-27T14:29:33Z</time>
      </trkpt>
      <trkpt lat="46.18577" lon="6.11466">
        <ele>421.5</ele>
        <time>2022-09-27T14:29:34Z</time>
      </trkpt>
      <trkpt lat="46.18577" lon="6.11467">
        <ele>421.5</ele>
        <time>2022-09-27T14:29:35Z</time>
      </trkpt>
      <trkpt lat="46.18577" lon="6.11472">
        <ele>421.4</ele>
        <time>2022-09-27T14:29:36Z</time>
      </trkpt>
      <trkpt lat="46.18577" lon="6.11474">
        <ele>421.4</ele>
        <time>2022-09-27T14:29:37Z</time>
      </trkpt>
      <trkpt lat="46.18578" lon="6.11479">
        <ele>421.4</ele>
        <time>2022-09-27T14:29:38Z</time>
      </trkpt>
      <trkpt lat="46.18578" lon="6.11481">
        <ele>421.3</ele>
        <time>2022-09-27T14:29:39Z</time>
      </trkpt>
      <trkpt lat="46.1858" lon="6.11485">
        <ele>421.3</ele>
        <time>2022-09-27T14:29:40Z</time>
      </trkpt>
      <trkpt lat="46.1858" lon="6.11489">
        <ele>421.3</ele>
        <time>2022-09-27T14:29:41Z</time>
      </trkpt>
      <trkpt lat="46.18582" lon="6.11494">
        <ele>421.2</ele>
        <time>2022-09-27T14:29:42Z</time>
      </trkpt>
      <trkpt lat="46.18583" lon="6.11496">
        <ele>421.2</ele>
        <time>2022-09-27T14:29:43Z</time>
      </trkpt>
      <trkpt lat="46.18583" lon="6.11502">
        <ele>421.1</ele>
        <time>2022-09-27T14:29:44Z</time>
      </trkpt>
      <trkpt lat="46.18586" lon="6.11507">
        <ele>421.1</ele>
        <time>2022-09-27T14:29:45Z</time>
      </trkpt>
      <trkpt lat="46.18588" lon="6.11512">
        <ele>421</ele>
        <time>2022-09-27T14:29:46Z</time>
      </trkpt>
      <trkpt lat="46.1859" lon="6.11517">
        <ele>421</ele>
        <time>2022-09-27T14:29:47Z</time>
      </trkpt>
      <trkpt lat="46.18593" lon="6.1152">
        <ele>420.9</ele>
        <time>2022-09-27T14:29:48Z</time>
      </trkpt>
      <trkpt lat="46.18595" lon="6.11526">
        <ele>420.9</ele>
        <time>2022-09-27T14:29:49Z</time>
      </trkpt>
      <trkpt lat="46.18598" lon="6.11531">
        <ele>420.8</ele>
        <time>2022-09-27T14:29:50Z</time>
      </trkpt>
      <trkpt lat="46.186" lon="6.11535">
        <ele>420.8</ele>
        <time>2022-09-27T14:29:51Z</time>
      </trkpt>
      <trkpt lat="46.18602" lon="6.11541">
        <ele>420.8</ele>
        <time>2022-09-27T14:29:52Z</time>
      </trkpt>
      <trkpt lat="46.18604" lon="6.11547">
        <ele>420.8</ele>
        <time>2022-09-27T14:29:53Z</time>
      </trkpt>
      <trkpt lat="46.18607" lon="6.11552">
        <ele>420.8</ele>
        <time>2022-09-27T14:29:54Z</time>
      </trkpt>
      <trkpt lat="46.18609" lon="6.11557">
        <ele>420.8</ele>
        <time>2022-09-27T14:29:55Z</time>
      </trkpt>
      <trkpt lat="46.18611" lon="6.11563">
        <ele>420.8</ele>
        <time>2022-09-27T14:29:56Z</time>
      </trkpt>
      <trkpt lat="46.18612" lon="6.11568">
        <ele>420.8</ele>
        <time>2022-09-27T14:29:57Z</time>
      </trkpt>
      <trkpt lat="46.18613" lon="6.11574">
        <ele>420.8</ele>
        <time>2022-09-27T14:29:58Z</time>
      </trkpt>
      <trkpt lat="46.18615" lon="6.11578">
        <ele>420.8</ele>
        <time>2022-09-27T14:29:59Z</time>
      </trkpt>
      <trkpt lat="46.18616" lon="6.11583">
        <ele>420.9</ele>
        <time>2022-09-27T14:30:00Z</time>
      </trkpt>
      <trkpt lat="46.18615" lon="6.11588">
        <ele>420.9</ele>
        <time>2022-09-27T14:30:01Z</time>
      </trkpt>
      <trkpt lat="46.18616" lon="6.11593">
        <ele>421</ele>
        <time>2022-09-27T14:30:02Z</time>
      </trkpt>
      <trkpt lat="46.18617" lon="6.11597">
        <ele>421.1</ele>
        <time>2022-09-27T14:30:03Z</time>
      </trkpt>
      <trkpt lat="46.18621" lon="6.11601">
        <ele>421.2</ele>
        <time>2022-09-27T14:30:04Z</time>
      </trkpt>
      <trkpt lat="46.18624" lon="6.11606">
        <ele>421.3</ele>
        <time>2022-09-27T14:30:05Z</time>
      </trkpt>
      <trkpt lat="46.18624" lon="6.11611">
        <ele>421.4</ele>
        <time>2022-09-27T14:30:06Z</time>
      </trkpt>
      <trkpt lat="46.18626" lon="6.11616">
        <ele>421.5</ele>
        <time>2022-09-27T14:30:07Z</time>
      </trkpt>
      <trkpt lat="46.18628" lon="6.1162">
        <ele>421.5</ele>
        <time>2022-09-27T14:30:08Z</time>
      </trkpt>
      <trkpt lat="46.1863" lon="6.11625">
        <ele>421.6</ele>
        <time>2022-09-27T14:30:09Z</time>
      </trkpt>
      <trkpt lat="46.1863" lon="6.11628">
        <ele>421.7</ele>
        <time>2022-09-27T14:30:10Z</time>
      </trkpt>
      <trkpt lat="46.18631" lon="6.11632">
        <ele>421.7</ele>
        <time>2022-09-27T14:30:11Z</time>
      </trkpt>
      <trkpt lat="46.18632" lon="6.11636">
        <ele>421.8</ele>
        <time>2022-09-27T14:30:12Z</time>
      </trkpt>
      <trkpt lat="46.18634" lon="6.11641">
        <ele>421.9</ele>
        <time>2022-09-27T14:30:13Z</time>
      </trkpt>
      <trkpt lat="46.18635" lon="6.11642">
        <ele>421.9</ele>
        <time>2022-09-27T14:30:14Z</time>
      </trkpt>
      <trkpt lat="46.18637" lon="6.11645">
        <ele>422</ele>
        <time>2022-09-27T14:30:15Z</time>
      </trkpt>
      <trkpt lat="46.18638" lon="6.11646">
        <ele>422</ele>
        <time>2022-09-27T14:30:16Z</time>
      </trkpt>
      <trkpt lat="46.1864" lon="6.11651">
        <ele>422.1</ele>
        <time>2022-09-27T14:30:17Z</time>
      </trkpt>
      <trkpt lat="46.18641" lon="6.11652">
        <ele>422.1</ele>
        <time>2022-09-27T14:30:18Z</time>
      </trkpt>
      <trkpt lat="46.18643" lon="6.11655">
        <ele>422.1</ele>
        <time>2022-09-27T14:30:19Z</time>
      </trkpt>
      <trkpt lat="46.18645" lon="6.11658">
        <ele>422</ele>
        <time>2022-09-27T14:30:20Z</time>
      </trkpt>
      <trkpt lat="46.18647" lon="6.11661">
        <ele>421.9</ele>
        <time>2022-09-27T14:30:21Z</time>
      </trkpt>
      <trkpt lat="46.1865" lon="6.11665">
        <ele>421.8</ele>
        <time>2022-09-27T14:30:22Z</time>
      </trkpt>
      <trkpt lat="46.18653" lon="6.11669">
        <ele>421.6</ele>
        <time>2022-09-27T14:30:23Z</time>
      </trkpt>
      <trkpt lat="46.18655" lon="6.11672">
        <ele>421.4</ele>
        <time>2022-09-27T14:30:24Z</time>
      </trkpt>
      <trkpt lat="46.18658" lon="6.11677">
        <ele>421</ele>
        <time>2022-09-27T14:30:25Z</time>
      </trkpt>
      <trkpt lat="46.18661" lon="6.11681">
        <ele>420.8</ele>
        <time>2022-09-27T14:30:26Z</time>
      </trkpt>
      <trkpt lat="46.18663" lon="6.11686">
        <ele>420.5</ele>
        <time>2022-09-27T14:30:27Z</time>
      </trkpt>
      <trkpt lat="46.18665" lon="6.11689">
        <ele>420.3</ele>
        <time>2022-09-27T14:30:28Z</time>
      </trkpt>
      <trkpt lat="46.18667" lon="6.11694">
        <ele>420.1</ele>
        <time>2022-09-27T14:30:29Z</time>
      </trkpt>
      <trkpt lat="46.18668" lon="6.11698">
        <ele>419.9</ele>
        <time>2022-09-27T14:30:30Z</time>
      </trkpt>
      <trkpt lat="46.18669" lon="6.11702">
        <ele>419.7</ele>
        <time>2022-09-27T14:30:31Z</time>
      </trkpt>
      <trkpt lat="46.18671" lon="6.11707">
        <ele>419.6</ele>
        <time>2022-09-27T14:30:32Z</time>
      </trkpt>
      <trkpt lat="46.18671" lon="6.11708">
        <ele>419.6</ele>
        <time>2022-09-27T14:30:33Z</time>
      </trkpt>
      <trkpt lat="46.18674" lon="6.11713">
        <ele>419.5</ele>
        <time>2022-09-27T14:30:34Z</time>
      </trkpt>
      <trkpt lat="46.18675" lon="6.11716">
        <ele>419.5</ele>
        <time>2022-09-27T14:30:35Z</time>
      </trkpt>
      <trkpt lat="46.18677" lon="6.1172">
        <ele>419.4</ele>
        <time>2022-09-27T14:30:36Z</time>
      </trkpt>
      <trkpt lat="46.1868" lon="6.11724">
        <ele>419.4</ele>
        <time>2022-09-27T14:30:37Z</time>
      </trkpt>
      <trkpt lat="46.18683" lon="6.11728">
        <ele>419.4</ele>
        <time>2022-09-27T14:30:38Z</time>
      </trkpt>
      <trkpt lat="46.18685" lon="6.11732">
        <ele>419.4</ele>
        <time>2022-09-27T14:30:39Z</time>
      </trkpt>
      <trkpt lat="46.18688" lon="6.11736">
        <ele>419.4</ele>
        <time>2022-09-27T14:30:40Z</time>
      </trkpt>
      <trkpt lat="46.18691" lon="6.1174">
        <ele>419.4</ele>
        <time>2022-09-27T14:30:41Z</time>
      </trkpt>
      <trkpt lat="46.18694" lon="6.11744">
        <ele>419.4</ele>
        <time>2022-09-27T14:30:42Z</time>
      </trkpt>
      <trkpt lat="46.18695" lon="6.1175">
        <ele>419.4</ele>
        <time>2022-09-27T14:30:43Z</time>
      </trkpt>
      <trkpt lat="46.18698" lon="6.11754">
        <ele>419.5</ele>
        <time>2022-09-27T14:30:44Z</time>
      </trkpt>
      <trkpt lat="46.18699" lon="6.11758">
        <ele>419.6</ele>
        <time>2022-09-27T14:30:45Z</time>
      </trkpt>
      <trkpt lat="46.18701" lon="6.11762">
        <ele>419.6</ele>
        <time>2022-09-27T14:30:46Z</time>
      </trkpt>
      <trkpt lat="46.18702" lon="6.11765">
        <ele>419.7</ele>
        <time>2022-09-27T14:30:47Z</time>
      </trkpt>
      <trkpt lat="46.18704" lon="6.11768">
        <ele>419.7</ele>
        <time>2022-09-27T14:30:48Z</time>
      </trkpt>
      <trkpt lat="46.18707" lon="6.11771">
        <ele>419.8</ele>
        <time>2022-09-27T14:30:49Z</time>
      </trkpt>
      <trkpt lat="46.18709" lon="6.11774">
        <ele>419.8</ele>
        <time>2022-09-27T14:30:50Z</time>
      </trkpt>
      <trkpt lat="46.18711" lon="6.11778">
        <ele>419.8</ele>
        <time>2022-09-27T14:30:51Z</time>
      </trkpt>
      <trkpt lat="46.18713" lon="6.11783">
        <ele>419.9</ele>
        <time>2022-09-27T14:30:52Z</time>
      </trkpt>
      <trkpt lat="46.18714" lon="6.11785">
        <ele>419.9</ele>
        <time>2022-09-27T14:30:53Z</time>
      </trkpt>
      <trkpt lat="46.18716" lon="6.11788">
        <ele>420</ele>
        <time>2022-09-27T14:30:54Z</time>
      </trkpt>
      <trkpt lat="46.18718" lon="6.11792">
        <ele>420</ele>
        <time>2022-09-27T14:30:55Z</time>
      </trkpt>
      <trkpt lat="46.18719" lon="6.11795">
        <ele>420.1</ele>
        <time>2022-09-27T14:30:56Z</time>
      </trkpt>
      <trkpt lat="46.18722" lon="6.11798">
        <ele>420.1</ele>
        <time>2022-09-27T14:30:57Z</time>
      </trkpt>
      <trkpt lat="46.18723" lon="6.11798">
        <ele>420.1</ele>
        <time>2022-09-27T14:30:58Z</time>
      </trkpt>
      <trkpt lat="46.18727" lon="6.11797">
        <ele>420.2</ele>
        <time>2022-09-27T14:30:59Z</time>
      </trkpt>
      <trkpt lat="46.18728" lon="6.11796">
        <ele>420.2</ele>
        <time>2022-09-27T14:31:00Z</time>
      </trkpt>
      <trkpt lat="46.18731" lon="6.11793">
        <ele>420.3</ele>
        <time>2022-09-27T14:31:01Z</time>
      </trkpt>
      <trkpt lat="46.18733" lon="6.11792">
        <ele>420.4</ele>
        <time>2022-09-27T14:31:02Z</time>
      </trkpt>
      <trkpt lat="46.18735" lon="6.11789">
        <ele>420.4</ele>
        <time>2022-09-27T14:31:03Z</time>
      </trkpt>
      <trkpt lat="46.18737" lon="6.11787">
        <ele>420.5</ele>
        <time>2022-09-27T14:31:04Z</time>
      </trkpt>
      <trkpt lat="46.1874" lon="6.11784">
        <ele>420.5</ele>
        <time>2022-09-27T14:31:05Z</time>
      </trkpt>
      <trkpt lat="46.18741" lon="6.11782">
        <ele>420.6</ele>
        <time>2022-09-27T14:31:06Z</time>
      </trkpt>
      <trkpt lat="46.18743" lon="6.11779">
        <ele>420.6</ele>
        <time>2022-09-27T14:31:07Z</time>
      </trkpt>
      <trkpt lat="46.18746" lon="6.11775">
        <ele>420.7</ele>
        <time>2022-09-27T14:31:08Z</time>
      </trkpt>
      <trkpt lat="46.18747" lon="6.11774">
        <ele>420.8</ele>
        <time>2022-09-27T14:31:09Z</time>
      </trkpt>
      <trkpt lat="46.18749" lon="6.11771">
        <ele>420.8</ele>
        <time>2022-09-27T14:31:10Z</time>
      </trkpt>
      <trkpt lat="46.18752" lon="6.11767">
        <ele>420.9</ele>
        <time>2022-09-27T14:31:11Z</time>
      </trkpt>
      <trkpt lat="46.18753" lon="6.11765">
        <ele>421</ele>
        <time>2022-09-27T14:31:12Z</time>
      </trkpt>
      <trkpt lat="46.18755" lon="6.11762">
        <ele>421.1</ele>
        <time>2022-09-27T14:31:13Z</time>
      </trkpt>
      <trkpt lat="46.18757" lon="6.11759">
        <ele>421.1</ele>
        <time>2022-09-27T14:31:14Z</time>
      </trkpt>
      <trkpt lat="46.1876" lon="6.11755">
        <ele>421.2</ele>
        <time>2022-09-27T14:31:15Z</time>
      </trkpt>
      <trkpt lat="46.18761" lon="6.11753">
        <ele>421.3</ele>
        <time>2022-09-27T14:31:16Z</time>
      </trkpt>
      <trkpt lat="46.18764" lon="6.11749">
        <ele>421.4</ele>
        <time>2022-09-27T14:31:17Z</time>
      </trkpt>
      <trkpt lat="46.18765" lon="6.11748">
        <ele>421.4</ele>
        <time>2022-09-27T14:31:18Z</time>
      </trkpt>
      <trkpt lat="46.18767" lon="6.11745">
        <ele>421.5</ele>
        <time>2022-09-27T14:31:19Z</time>
      </trkpt>
      <trkpt lat="46.18769" lon="6.11743">
        <ele>421.6</ele>
        <time>2022-09-27T14:31:20Z</time>
      </trkpt>
      <trkpt lat="46.18772" lon="6.11741">
        <ele>421.7</ele>
        <time>2022-09-27T14:31:21Z</time>
      </trkpt>
      <trkpt lat="46.18775" lon="6.11738">
        <ele>421.8</ele>
        <time>2022-09-27T14:31:22Z</time>
      </trkpt>
      <trkpt lat="46.1878" lon="6.11737">
        <ele>422</ele>
        <time>2022-09-27T14:31:23Z</time>
      </trkpt>
      <trkpt lat="46.18784" lon="6.11737">
        <ele>422.2</ele>
        <time>2022-09-27T14:31:24Z</time>
      </trkpt>
      <trkpt lat="46.18787" lon="6.11739">
        <ele>422.4</ele>
        <time>2022-09-27T14:31:25Z</time>
      </trkpt>
      <trkpt lat="46.1879" lon="6.1174">
        <ele>422.5</ele>
        <time>2022-09-27T14:31:26Z</time>
      </trkpt>
      <trkpt lat="46.18793" lon="6.11743">
        <ele>422.5</ele>
        <time>2022-09-27T14:31:27Z</time>
      </trkpt>
      <trkpt lat="46.18795" lon="6.11745">
        <ele>422.6</ele>
        <time>2022-09-27T14:31:28Z</time>
      </trkpt>
      <trkpt lat="46.18797" lon="6.11749">
        <ele>422.7</ele>
        <time>2022-09-27T14:31:29Z</time>
      </trkpt>
      <trkpt lat="46.18798" lon="6.1175">
        <ele>422.8</ele>
        <time>2022-09-27T14:31:30Z</time>
      </trkpt>
      <trkpt lat="46.18801" lon="6.11754">
        <ele>422.9</ele>
        <time>2022-09-27T14:31:31Z</time>
      </trkpt>
      <trkpt lat="46.18802" lon="6.11755">
        <ele>423</ele>
        <time>2022-09-27T14:31:32Z</time>
      </trkpt>
      <trkpt lat="46.18804" lon="6.11758">
        <ele>423.1</ele>
        <time>2022-09-27T14:31:33Z</time>
      </trkpt>
      <trkpt lat="46.18807" lon="6.11762">
        <ele>423.2</ele>
        <time>2022-09-27T14:31:34Z</time>
      </trkpt>
      <trkpt lat="46.18808" lon="6.11764">
        <ele>423.2</ele>
        <time>2022-09-27T14:31:35Z</time>
      </trkpt>
      <trkpt lat="46.1881" lon="6.11767">
        <ele>423.3</ele>
        <time>2022-09-27T14:31:36Z</time>
      </trkpt>
      <trkpt lat="46.18811" lon="6.11768">
        <ele>423.3</ele>
        <time>2022-09-27T14:31:37Z</time>
      </trkpt>
      <trkpt lat="46.18813" lon="6.11771">
        <ele>423.4</ele>
        <time>2022-09-27T14:31:38Z</time>
      </trkpt>
      <trkpt lat="46.18816" lon="6.11774">
        <ele>423.5</ele>
        <time>2022-09-27T14:31:39Z</time>
      </trkpt>
      <trkpt lat="46.18817" lon="6.11775">
        <ele>423.5</ele>
        <time>2022-09-27T14:31:40Z</time>
      </trkpt>
      <trkpt lat="46.18819" lon="6.11778">
        <ele>423.5</ele>
        <time>2022-09-27T14:31:41Z</time>
      </trkpt>
      <trkpt lat="46.18822" lon="6.1178">
        <ele>423.6</ele>
        <time>2022-09-27T14:31:42Z</time>
      </trkpt>
      <trkpt lat="46.18824" lon="6.11782">
        <ele>423.7</ele>
        <time>2022-09-27T14:31:43Z</time>
      </trkpt>
      <trkpt lat="46.18827" lon="6.11786">
        <ele>423.7</ele>
        <time>2022-09-27T14:31:44Z</time>
      </trkpt>
      <trkpt lat="46.18828" lon="6.11787">
        <ele>423.7</ele>
        <time>2022-09-27T14:31:45Z</time>
      </trkpt>
      <trkpt lat="46.18831" lon="6.1179">
        <ele>423.8</ele>
        <time>2022-09-27T14:31:46Z</time>
      </trkpt>
      <trkpt lat="46.18834" lon="6.11792">
        <ele>423.9</ele>
        <time>2022-09-27T14:31:47Z</time>
      </trkpt>
      <trkpt lat="46.18836" lon="6.11795">
        <ele>423.9</ele>
        <time>2022-09-27T14:31:48Z</time>
      </trkpt>
      <trkpt lat="46.18838" lon="6.11799">
        <ele>424</ele>
        <time>2022-09-27T14:31:49Z</time>
      </trkpt>
      <trkpt lat="46.18841" lon="6.11802">
        <ele>424</ele>
        <time>2022-09-27T14:31:50Z</time>
      </trkpt>
      <trkpt lat="46.18844" lon="6.11805">
        <ele>424.1</ele>
        <time>2022-09-27T14:31:51Z</time>
      </trkpt>
      <trkpt lat="46.18846" lon="6.11809">
        <ele>424.1</ele>
        <time>2022-09-27T14:31:52Z</time>
      </trkpt>
      <trkpt lat="46.18849" lon="6.11812">
        <ele>424.1</ele>
        <time>2022-09-27T14:31:53Z</time>
      </trkpt>
      <trkpt lat="46.18851" lon="6.11815">
        <ele>424.2</ele>
        <time>2022-09-27T14:31:54Z</time>
      </trkpt>
      <trkpt lat="46.18854" lon="6.11818">
        <ele>424.2</ele>
        <time>2022-09-27T14:31:55Z</time>
      </trkpt>
      <trkpt lat="46.18856" lon="6.11822">
        <ele>424.2</ele>
        <time>2022-09-27T14:31:56Z</time>
      </trkpt>
      <trkpt lat="46.18859" lon="6.11825">
        <ele>424.2</ele>
        <time>2022-09-27T14:31:57Z</time>
      </trkpt>
      <trkpt lat="46.18861" lon="6.11828">
        <ele>424.2</ele>
        <time>2022-09-27T14:31:58Z</time>
      </trkpt>
      <trkpt lat="46.18864" lon="6.11832">
        <ele>424.2</ele>
        <time>2022-09-27T14:31:59Z</time>
      </trkpt>
      <trkpt lat="46.18866" lon="6.11836">
        <ele>424.2</ele>
        <time>2022-09-27T14:32:00Z</time>
      </trkpt>
      <trkpt lat="46.18869" lon="6.1184">
        <ele>424.2</ele>
        <time>2022-09-27T14:32:01Z</time>
      </trkpt>
      <trkpt lat="46.18871" lon="6.11844">
        <ele>424.2</ele>
        <time>2022-09-27T14:32:02Z</time>
      </trkpt>
      <trkpt lat="46.18873" lon="6.11848">
        <ele>424.2</ele>
        <time>2022-09-27T14:32:03Z</time>
      </trkpt>
      <trkpt lat="46.18876" lon="6.11851">
        <ele>424.2</ele>
        <time>2022-09-27T14:32:04Z</time>
      </trkpt>
      <trkpt lat="46.18877" lon="6.11853">
        <ele>424.2</ele>
        <time>2022-09-27T14:32:05Z</time>
      </trkpt>
      <trkpt lat="46.18879" lon="6.11857">
        <ele>424.2</ele>
        <time>2022-09-27T14:32:06Z</time>
      </trkpt>
      <trkpt lat="46.18881" lon="6.1186">
        <ele>424.2</ele>
        <time>2022-09-27T14:32:07Z</time>
      </trkpt>
      <trkpt lat="46.18883" lon="6.11864">
        <ele>424.2</ele>
        <time>2022-09-27T14:32:08Z</time>
      </trkpt>
      <trkpt lat="46.18885" lon="6.11868">
        <ele>424.2</ele>
        <time>2022-09-27T14:32:09Z</time>
      </trkpt>
      <trkpt lat="46.18887" lon="6.11871">
        <ele>424.2</ele>
        <time>2022-09-27T14:32:10Z</time>
      </trkpt>
      <trkpt lat="46.18888" lon="6.11877">
        <ele>424.2</ele>
        <time>2022-09-27T14:32:11Z</time>
      </trkpt>
      <trkpt lat="46.18888" lon="6.11879">
        <ele>424.2</ele>
        <time>2022-09-27T14:32:12Z</time>
      </trkpt>
      <trkpt lat="46.1889" lon="6.11882">
        <ele>424.3</ele>
        <time>2022-09-27T14:32:13Z</time>
      </trkpt>
      <trkpt lat="46.18892" lon="6.11886">
        <ele>424.3</ele>
        <time>2022-09-27T14:32:14Z</time>
      </trkpt>
      <trkpt lat="46.18893" lon="6.11888">
        <ele>424.3</ele>
        <time>2022-09-27T14:32:15Z</time>
      </trkpt>
      <trkpt lat="46.18895" lon="6.11892">
        <ele>424.3</ele>
        <time>2022-09-27T14:32:16Z</time>
      </trkpt>
      <trkpt lat="46.18895" lon="6.11893">
        <ele>424.3</ele>
        <time>2022-09-27T14:32:17Z</time>
      </trkpt>
      <trkpt lat="46.18897" lon="6.11897">
        <ele>424.2</ele>
        <time>2022-09-27T14:32:18Z</time>
      </trkpt>
      <trkpt lat="46.18897" lon="6.119">
        <ele>424.2</ele>
        <time>2022-09-27T14:32:19Z</time>
      </trkpt>
      <trkpt lat="46.18897" lon="6.119">
        <ele>424.2</ele>
        <time>2022-09-27T14:32:20Z</time>
      </trkpt>
      <trkpt lat="46.18898" lon="6.119">
        <ele>424.2</ele>
        <time>2022-09-27T14:32:21Z</time>
      </trkpt>
      <trkpt lat="46.18898" lon="6.119">
        <ele>424.2</ele>
        <time>2022-09-27T14:32:22Z</time>
      </trkpt>
      <trkpt lat="46.18898" lon="6.119">
        <ele>424.2</ele>
        <time>2022-09-27T14:32:23Z</time>
      </trkpt>
      <trkpt lat="46.189" lon="6.11901">
        <ele>424.2</ele>
        <time>2022-09-27T14:32:24Z</time>
      </trkpt>
      <trkpt lat="46.18901" lon="6.11902">
        <ele>424.2</ele>
        <time>2022-09-27T14:32:25Z</time>
      </trkpt>
      <trkpt lat="46.18902" lon="6.11902">
        <ele>424.2</ele>
        <time>2022-09-27T14:32:26Z</time>
      </trkpt>
      <trkpt lat="46.18903" lon="6.11903">
        <ele>424.2</ele>
        <time>2022-09-27T14:32:27Z</time>
      </trkpt>
      <trkpt lat="46.18904" lon="6.11904">
        <ele>424.1</ele>
        <time>2022-09-27T14:32:28Z</time>
      </trkpt>
      <trkpt lat="46.18906" lon="6.11905">
        <ele>424.1</ele>
        <time>2022-09-27T14:32:29Z</time>
      </trkpt>
      <trkpt lat="46.18907" lon="6.11905">
        <ele>424.1</ele>
        <time>2022-09-27T14:32:30Z</time>
      </trkpt>
      <trkpt lat="46.18908" lon="6.11906">
        <ele>424.1</ele>
        <time>2022-09-27T14:34:08Z</time>
      </trkpt>
      <trkpt lat="46.18909" lon="6.11907">
        <ele>424.1</ele>
        <time>2022-09-27T14:34:09Z</time>
      </trkpt>
      <trkpt lat="46.18911" lon="6.11911">
        <ele>424.1</ele>
        <time>2022-09-27T14:34:10Z</time>
      </trkpt>
      <trkpt lat="46.18912" lon="6.11915">
        <ele>424</ele>
        <time>2022-09-27T14:34:11Z</time>
      </trkpt>
      <trkpt lat="46.18913" lon="6.11919">
        <ele>424</ele>
        <time>2022-09-27T14:34:12Z</time>
      </trkpt>
      <trkpt lat="46.18915" lon="6.11923">
        <ele>424</ele>
        <time>2022-09-27T14:34:13Z</time>
      </trkpt>
      <trkpt lat="46.18916" lon="6.11927">
        <ele>424</ele>
        <time>2022-09-27T14:34:14Z</time>
      </trkpt>
      <trkpt lat="46.18918" lon="6.11931">
        <ele>424</ele>
        <time>2022-09-27T14:34:15Z</time>
      </trkpt>
      <trkpt lat="46.1892" lon="6.11936">
        <ele>423.9</ele>
        <time>2022-09-27T14:34:16Z</time>
      </trkpt>
      <trkpt lat="46.18923" lon="6.1194">
        <ele>423.9</ele>
        <time>2022-09-27T14:34:17Z</time>
      </trkpt>
      <trkpt lat="46.18924" lon="6.11945">
        <ele>423.9</ele>
        <time>2022-09-27T14:34:18Z</time>
      </trkpt>
      <trkpt lat="46.18926" lon="6.1195">
        <ele>423.9</ele>
        <time>2022-09-27T14:34:19Z</time>
      </trkpt>
      <trkpt lat="46.18927" lon="6.11954">
        <ele>423.9</ele>
        <time>2022-09-27T14:34:20Z</time>
      </trkpt>
      <trkpt lat="46.18929" lon="6.11959">
        <ele>423.9</ele>
        <time>2022-09-27T14:34:21Z</time>
      </trkpt>
      <trkpt lat="46.18931" lon="6.11964">
        <ele>423.9</ele>
        <time>2022-09-27T14:34:22Z</time>
      </trkpt>
      <trkpt lat="46.18933" lon="6.11969">
        <ele>423.9</ele>
        <time>2022-09-27T14:34:23Z</time>
      </trkpt>
      <trkpt lat="46.18935" lon="6.11973">
        <ele>423.9</ele>
        <time>2022-09-27T14:34:24Z</time>
      </trkpt>
      <trkpt lat="46.18937" lon="6.11977">
        <ele>423.8</ele>
        <time>2022-09-27T14:34:25Z</time>
      </trkpt>
      <trkpt lat="46.18939" lon="6.11981">
        <ele>423.8</ele>
        <time>2022-09-27T14:34:26Z</time>
      </trkpt>
      <trkpt lat="46.18942" lon="6.11986">
        <ele>423.8</ele>
        <time>2022-09-27T14:34:27Z</time>
      </trkpt>
      <trkpt lat="46.18944" lon="6.11989">
        <ele>423.8</ele>
        <time>2022-09-27T14:34:28Z</time>
      </trkpt>
      <trkpt lat="46.18946" lon="6.11992">
        <ele>423.7</ele>
        <time>2022-09-27T14:34:29Z</time>
      </trkpt>
      <trkpt lat="46.18947" lon="6.11993">
        <ele>423.7</ele>
        <time>2022-09-27T14:34:30Z</time>
      </trkpt>
      <trkpt lat="46.18949" lon="6.11997">
        <ele>423.7</ele>
        <time>2022-09-27T14:34:31Z</time>
      </trkpt>
      <trkpt lat="46.1895" lon="6.12">
        <ele>423.7</ele>
        <time>2022-09-27T14:34:32Z</time>
      </trkpt>
      <trkpt lat="46.18952" lon="6.12004">
        <ele>423.7</ele>
        <time>2022-09-27T14:34:33Z</time>
      </trkpt>
      <trkpt lat="46.18955" lon="6.12007">
        <ele>423.6</ele>
        <time>2022-09-27T14:34:34Z</time>
      </trkpt>
      <trkpt lat="46.18958" lon="6.12009">
        <ele>423.6</ele>
        <time>2022-09-27T14:34:35Z</time>
      </trkpt>
      <trkpt lat="46.18962" lon="6.12009">
        <ele>423.7</ele>
        <time>2022-09-27T14:34:36Z</time>
      </trkpt>
      <trkpt lat="46.18966" lon="6.12008">
        <ele>423.7</ele>
        <time>2022-09-27T14:34:37Z</time>
      </trkpt>
      <trkpt lat="46.18969" lon="6.12006">
        <ele>423.8</ele>
        <time>2022-09-27T14:34:38Z</time>
      </trkpt>
      <trkpt lat="46.18972" lon="6.12003">
        <ele>423.8</ele>
        <time>2022-09-27T14:34:39Z</time>
      </trkpt>
      <trkpt lat="46.18974" lon="6.11998">
        <ele>423.8</ele>
        <time>2022-09-27T14:34:40Z</time>
      </trkpt>
      <trkpt lat="46.18975" lon="6.11994">
        <ele>423.9</ele>
        <time>2022-09-27T14:34:41Z</time>
      </trkpt>
      <trkpt lat="46.18977" lon="6.11989">
        <ele>423.9</ele>
        <time>2022-09-27T14:34:42Z</time>
      </trkpt>
      <trkpt lat="46.18979" lon="6.11984">
        <ele>424</ele>
        <time>2022-09-27T14:34:43Z</time>
      </trkpt>
      <trkpt lat="46.1898" lon="6.1198">
        <ele>424</ele>
        <time>2022-09-27T14:34:44Z</time>
      </trkpt>
      <trkpt lat="46.18982" lon="6.11975">
        <ele>424</ele>
        <time>2022-09-27T14:34:45Z</time>
      </trkpt>
      <trkpt lat="46.18983" lon="6.11971">
        <ele>424.1</ele>
        <time>2022-09-27T14:34:46Z</time>
      </trkpt>
      <trkpt lat="46.18985" lon="6.11966">
        <ele>424.1</ele>
        <time>2022-09-27T14:34:47Z</time>
      </trkpt>
      <trkpt lat="46.18987" lon="6.11962">
        <ele>424.2</ele>
        <time>2022-09-27T14:34:48Z</time>
      </trkpt>
      <trkpt lat="46.18988" lon="6.11958">
        <ele>424.2</ele>
        <time>2022-09-27T14:34:49Z</time>
      </trkpt>
      <trkpt lat="46.1899" lon="6.11952">
        <ele>424.2</ele>
        <time>2022-09-27T14:34:50Z</time>
      </trkpt>
      <trkpt lat="46.18992" lon="6.11948">
        <ele>424.3</ele>
        <time>2022-09-27T14:34:51Z</time>
      </trkpt>
      <trkpt lat="46.18993" lon="6.11943">
        <ele>424.3</ele>
        <time>2022-09-27T14:34:52Z</time>
      </trkpt>
      <trkpt lat="46.18994" lon="6.11939">
        <ele>424.4</ele>
        <time>2022-09-27T14:34:53Z</time>
      </trkpt>
      <trkpt lat="46.18995" lon="6.11934">
        <ele>424.5</ele>
        <time>2022-09-27T14:34:54Z</time>
      </trkpt>
      <trkpt lat="46.18997" lon="6.1193">
        <ele>424.5</ele>
        <time>2022-09-27T14:34:55Z</time>
      </trkpt>
      <trkpt lat="46.18998" lon="6.11926">
        <ele>424.6</ele>
        <time>2022-09-27T14:34:56Z</time>
      </trkpt>
      <trkpt lat="46.19" lon="6.11921">
        <ele>424.6</ele>
        <time>2022-09-27T14:34:57Z</time>
      </trkpt>
      <trkpt lat="46.19001" lon="6.11919">
        <ele>424.7</ele>
        <time>2022-09-27T14:34:58Z</time>
      </trkpt>
      <trkpt lat="46.19002" lon="6.11915">
        <ele>424.7</ele>
        <time>2022-09-27T14:34:59Z</time>
      </trkpt>
      <trkpt lat="46.19002" lon="6.11914">
        <ele>424.7</ele>
        <time>2022-09-27T14:35:00Z</time>
      </trkpt>
      <trkpt lat="46.19003" lon="6.11911">
        <ele>424.8</ele>
        <time>2022-09-27T14:35:01Z</time>
      </trkpt>
      <trkpt lat="46.19003" lon="6.1191">
        <ele>424.8</ele>
        <time>2022-09-27T14:35:02Z</time>
      </trkpt>
      <trkpt lat="46.19004" lon="6.11908">
        <ele>424.8</ele>
        <time>2022-09-27T14:35:03Z</time>
      </trkpt>
      <trkpt lat="46.19004" lon="6.11908">
        <ele>424.8</ele>
        <time>2022-09-27T14:35:04Z</time>
      </trkpt>
      <trkpt lat="46.19005" lon="6.11908">
        <ele>424.8</ele>
        <time>2022-09-27T14:35:05Z</time>
      </trkpt>
      <trkpt lat="46.19005" lon="6.11907">
        <ele>424.8</ele>
        <time>2022-09-27T14:35:06Z</time>
      </trkpt>
      <trkpt lat="46.19005" lon="6.11906">
        <ele>424.9</ele>
        <time>2022-09-27T14:35:07Z</time>
      </trkpt>
      <trkpt lat="46.19005" lon="6.11904">
        <ele>424.9</ele>
        <time>2022-09-27T14:35:08Z</time>
      </trkpt>
      <trkpt lat="46.19005" lon="6.11904">
        <ele>424.9</ele>
        <time>2022-09-27T14:35:09Z</time>
      </trkpt>
      <trkpt lat="46.19005" lon="6.11902">
        <ele>424.9</ele>
        <time>2022-09-27T14:35:10Z</time>
      </trkpt>
      <trkpt lat="46.19005" lon="6.11902">
        <ele>424.9</ele>
        <time>2022-09-27T14:35:11Z</time>
      </trkpt>
      <trkpt lat="46.19006" lon="6.11902">
        <ele>424.9</ele>
        <time>2022-09-27T14:35:12Z</time>
      </trkpt>
      <trkpt lat="46.19006" lon="6.119">
        <ele>425</ele>
        <time>2022-09-27T14:35:13Z</time>
      </trkpt>
      <trkpt lat="46.19007" lon="6.11899">
        <ele>425</ele>
        <time>2022-09-27T14:35:14Z</time>
      </trkpt>
      <trkpt lat="46.19007" lon="6.11897">
        <ele>425</ele>
        <time>2022-09-27T14:35:15Z</time>
      </trkpt>
      <trkpt lat="46.19007" lon="6.11896">
        <ele>425</ele>
        <time>2022-09-27T14:35:16Z</time>
      </trkpt>
      <trkpt lat="46.19008" lon="6.11894">
        <ele>425</ele>
        <time>2022-09-27T14:35:17Z</time>
      </trkpt>
      <trkpt lat="46.19008" lon="6.11893">
        <ele>425</ele>
        <time>2022-09-27T14:35:18Z</time>
      </trkpt>
      <trkpt lat="46.19009" lon="6.11892">
        <ele>425</ele>
        <time>2022-09-27T14:35:31Z</time>
      </trkpt>
      <trkpt lat="46.19009" lon="6.1189">
        <ele>425</ele>
        <time>2022-09-27T14:35:32Z</time>
      </trkpt>
      <trkpt lat="46.19011" lon="6.11885">
        <ele>425</ele>
        <time>2022-09-27T14:35:33Z</time>
      </trkpt>
      <trkpt lat="46.19011" lon="6.11883">
        <ele>425</ele>
        <time>2022-09-27T14:35:34Z</time>
      </trkpt>
      <trkpt lat="46.19012" lon="6.11878">
        <ele>425</ele>
        <time>2022-09-27T14:35:35Z</time>
      </trkpt>
      <trkpt lat="46.19012" lon="6.11876">
        <ele>425.1</ele>
        <time>2022-09-27T14:35:36Z</time>
      </trkpt>
      <trkpt lat="46.19013" lon="6.11871">
        <ele>425.2</ele>
        <time>2022-09-27T14:35:37Z</time>
      </trkpt>
      <trkpt lat="46.19014" lon="6.11869">
        <ele>425.2</ele>
        <time>2022-09-27T14:35:38Z</time>
      </trkpt>
      <trkpt lat="46.19014" lon="6.11863">
        <ele>425.4</ele>
        <time>2022-09-27T14:35:39Z</time>
      </trkpt>
      <trkpt lat="46.19014" lon="6.11861">
        <ele>425.4</ele>
        <time>2022-09-27T14:35:40Z</time>
      </trkpt>
      <trkpt lat="46.19016" lon="6.11857">
        <ele>425.5</ele>
        <time>2022-09-27T14:35:41Z</time>
      </trkpt>
      <trkpt lat="46.19016" lon="6.11856">
        <ele>425.5</ele>
        <time>2022-09-27T14:35:42Z</time>
      </trkpt>
      <trkpt lat="46.19018" lon="6.11851">
        <ele>425.7</ele>
        <time>2022-09-27T14:35:43Z</time>
      </trkpt>
      <trkpt lat="46.19018" lon="6.1185">
        <ele>425.7</ele>
        <time>2022-09-27T14:35:44Z</time>
      </trkpt>
      <trkpt lat="46.1902" lon="6.11845">
        <ele>425.8</ele>
        <time>2022-09-27T14:35:45Z</time>
      </trkpt>
      <trkpt lat="46.19021" lon="6.11843">
        <ele>425.9</ele>
        <time>2022-09-27T14:35:46Z</time>
      </trkpt>
      <trkpt lat="46.19024" lon="6.1184">
        <ele>426</ele>
        <time>2022-09-27T14:35:47Z</time>
      </trkpt>
      <trkpt lat="46.19024" lon="6.11838">
        <ele>426</ele>
        <time>2022-09-27T14:35:48Z</time>
      </trkpt>
      <trkpt lat="46.19027" lon="6.11836">
        <ele>426.1</ele>
        <time>2022-09-27T14:35:49Z</time>
      </trkpt>
      <trkpt lat="46.19028" lon="6.11832">
        <ele>426.2</ele>
        <time>2022-09-27T14:35:50Z</time>
      </trkpt>
      <trkpt lat="46.19029" lon="6.11829">
        <ele>426.3</ele>
        <time>2022-09-27T14:35:51Z</time>
      </trkpt>
      <trkpt lat="46.1903" lon="6.11824">
        <ele>426.4</ele>
        <time>2022-09-27T14:35:52Z</time>
      </trkpt>
      <trkpt lat="46.1903" lon="6.11822">
        <ele>426.5</ele>
        <time>2022-09-27T14:35:53Z</time>
      </trkpt>
      <trkpt lat="46.19031" lon="6.11818">
        <ele>426.6</ele>
        <time>2022-09-27T14:35:54Z</time>
      </trkpt>
      <trkpt lat="46.19033" lon="6.11814">
        <ele>426.7</ele>
        <time>2022-09-27T14:35:55Z</time>
      </trkpt>
      <trkpt lat="46.19034" lon="6.11812">
        <ele>426.8</ele>
        <time>2022-09-27T14:35:56Z</time>
      </trkpt>
      <trkpt lat="46.19035" lon="6.11806">
        <ele>426.9</ele>
        <time>2022-09-27T14:35:57Z</time>
      </trkpt>
      <trkpt lat="46.19036" lon="6.11805">
        <ele>426.9</ele>
        <time>2022-09-27T14:35:58Z</time>
      </trkpt>
      <trkpt lat="46.19038" lon="6.11801">
        <ele>427</ele>
        <time>2022-09-27T14:35:59Z</time>
      </trkpt>
      <trkpt lat="46.19039" lon="6.11801">
        <ele>427.1</ele>
        <time>2022-09-27T14:36:00Z</time>
      </trkpt>
      <trkpt lat="46.19042" lon="6.11799">
        <ele>427.1</ele>
        <time>2022-09-27T14:36:01Z</time>
      </trkpt>
      <trkpt lat="46.19044" lon="6.11798">
        <ele>427.1</ele>
        <time>2022-09-27T14:36:02Z</time>
      </trkpt>
      <trkpt lat="46.19047" lon="6.11796">
        <ele>427.1</ele>
        <time>2022-09-27T14:36:03Z</time>
      </trkpt>
      <trkpt lat="46.19048" lon="6.11796">
        <ele>427.1</ele>
        <time>2022-09-27T14:36:04Z</time>
      </trkpt>
      <trkpt lat="46.1905" lon="6.11795">
        <ele>427.1</ele>
        <time>2022-09-27T14:36:05Z</time>
      </trkpt>
      <trkpt lat="46.19053" lon="6.11794">
        <ele>427.1</ele>
        <time>2022-09-27T14:36:06Z</time>
      </trkpt>
      <trkpt lat="46.19055" lon="6.11793">
        <ele>427.1</ele>
        <time>2022-09-27T14:36:07Z</time>
      </trkpt>
      <trkpt lat="46.19057" lon="6.1179">
        <ele>427.1</ele>
        <time>2022-09-27T14:36:08Z</time>
      </trkpt>
      <trkpt lat="46.1906" lon="6.11788">
        <ele>427.1</ele>
        <time>2022-09-27T14:36:09Z</time>
      </trkpt>
      <trkpt lat="46.19063" lon="6.11786">
        <ele>427</ele>
        <time>2022-09-27T14:36:10Z</time>
      </trkpt>
      <trkpt lat="46.19066" lon="6.11784">
        <ele>427</ele>
        <time>2022-09-27T14:36:11Z</time>
      </trkpt>
      <trkpt lat="46.19069" lon="6.11782">
        <ele>427</ele>
        <time>2022-09-27T14:36:12Z</time>
      </trkpt>
      <trkpt lat="46.19072" lon="6.1178">
        <ele>427</ele>
        <time>2022-09-27T14:36:13Z</time>
      </trkpt>
      <trkpt lat="46.19075" lon="6.11778">
        <ele>427</ele>
        <time>2022-09-27T14:36:14Z</time>
      </trkpt>
      <trkpt lat="46.19078" lon="6.11777">
        <ele>427</ele>
        <time>2022-09-27T14:36:15Z</time>
      </trkpt>
      <trkpt lat="46.19082" lon="6.11775">
        <ele>427</ele>
        <time>2022-09-27T14:36:16Z</time>
      </trkpt>
      <trkpt lat="46.19085" lon="6.11773">
        <ele>427</ele>
        <time>2022-09-27T14:36:17Z</time>
      </trkpt>
      <trkpt lat="46.19088" lon="6.11771">
        <ele>427</ele>
        <time>2022-09-27T14:36:18Z</time>
      </trkpt>
      <trkpt lat="46.19091" lon="6.11769">
        <ele>427</ele>
        <time>2022-09-27T14:36:19Z</time>
      </trkpt>
      <trkpt lat="46.19094" lon="6.11767">
        <ele>427</ele>
        <time>2022-09-27T14:36:20Z</time>
      </trkpt>
      <trkpt lat="46.19096" lon="6.11765">
        <ele>426.9</ele>
        <time>2022-09-27T14:36:21Z</time>
      </trkpt>
      <trkpt lat="46.19099" lon="6.11763">
        <ele>426.9</ele>
        <time>2022-09-27T14:36:22Z</time>
      </trkpt>
      <trkpt lat="46.19102" lon="6.1176">
        <ele>426.9</ele>
        <time>2022-09-27T14:36:23Z</time>
      </trkpt>
      <trkpt lat="46.19104" lon="6.11757">
        <ele>426.9</ele>
        <time>2022-09-27T14:36:24Z</time>
      </trkpt>
      <trkpt lat="46.19107" lon="6.11753">
        <ele>426.9</ele>
        <time>2022-09-27T14:36:25Z</time>
      </trkpt>
      <trkpt lat="46.19108" lon="6.11752">
        <ele>426.9</ele>
        <time>2022-09-27T14:36:26Z</time>
      </trkpt>
      <trkpt lat="46.19113" lon="6.1175">
        <ele>426.9</ele>
        <time>2022-09-27T14:36:27Z</time>
      </trkpt>
      <trkpt lat="46.19117" lon="6.11749">
        <ele>426.9</ele>
        <time>2022-09-27T14:36:28Z</time>
      </trkpt>
      <trkpt lat="46.1912" lon="6.11747">
        <ele>426.9</ele>
        <time>2022-09-27T14:36:29Z</time>
      </trkpt>
      <trkpt lat="46.19122" lon="6.11744">
        <ele>426.9</ele>
        <time>2022-09-27T14:36:30Z</time>
      </trkpt>
      <trkpt lat="46.19126" lon="6.11742">
        <ele>426.8</ele>
        <time>2022-09-27T14:36:31Z</time>
      </trkpt>
      <trkpt lat="46.19128" lon="6.1174">
        <ele>426.8</ele>
        <time>2022-09-27T14:36:32Z</time>
      </trkpt>
      <trkpt lat="46.19133" lon="6.11737">
        <ele>426.8</ele>
        <time>2022-09-27T14:36:33Z</time>
      </trkpt>
      <trkpt lat="46.19137" lon="6.11735">
        <ele>426.8</ele>
        <time>2022-09-27T14:36:34Z</time>
      </trkpt>
      <trkpt lat="46.19142" lon="6.11732">
        <ele>426.8</ele>
        <time>2022-09-27T14:36:35Z</time>
      </trkpt>
      <trkpt lat="46.19145" lon="6.11729">
        <ele>426.8</ele>
        <time>2022-09-27T14:36:36Z</time>
      </trkpt>
      <trkpt lat="46.19149" lon="6.11725">
        <ele>426.7</ele>
        <time>2022-09-27T14:36:37Z</time>
      </trkpt>
      <trkpt lat="46.19153" lon="6.11721">
        <ele>426.7</ele>
        <time>2022-09-27T14:36:38Z</time>
      </trkpt>
      <trkpt lat="46.19158" lon="6.11717">
        <ele>426.7</ele>
        <time>2022-09-27T14:36:39Z</time>
      </trkpt>
      <trkpt lat="46.19162" lon="6.11714">
        <ele>426.6</ele>
        <time>2022-09-27T14:36:40Z</time>
      </trkpt>
      <trkpt lat="46.19166" lon="6.1171">
        <ele>426.6</ele>
        <time>2022-09-27T14:36:41Z</time>
      </trkpt>
      <trkpt lat="46.1917" lon="6.11707">
        <ele>426.6</ele>
        <time>2022-09-27T14:36:42Z</time>
      </trkpt>
      <trkpt lat="46.19175" lon="6.11703">
        <ele>426.6</ele>
        <time>2022-09-27T14:36:43Z</time>
      </trkpt>
      <trkpt lat="46.19179" lon="6.11702">
        <ele>426.5</ele>
        <time>2022-09-27T14:36:44Z</time>
      </trkpt>
      <trkpt lat="46.19184" lon="6.11699">
        <ele>426.5</ele>
        <time>2022-09-27T14:36:45Z</time>
      </trkpt>
      <trkpt lat="46.1919" lon="6.11697">
        <ele>426.4</ele>
        <time>2022-09-27T14:36:46Z</time>
      </trkpt>
      <trkpt lat="46.19195" lon="6.11697">
        <ele>426.4</ele>
        <time>2022-09-27T14:36:47Z</time>
      </trkpt>
      <trkpt lat="46.19199" lon="6.11693">
        <ele>426.4</ele>
        <time>2022-09-27T14:36:48Z</time>
      </trkpt>
      <trkpt lat="46.19204" lon="6.11689">
        <ele>426.3</ele>
        <time>2022-09-27T14:36:49Z</time>
      </trkpt>
      <trkpt lat="46.19209" lon="6.11686">
        <ele>426.3</ele>
        <time>2022-09-27T14:36:50Z</time>
      </trkpt>
      <trkpt lat="46.19213" lon="6.11682">
        <ele>426.3</ele>
        <time>2022-09-27T14:36:51Z</time>
      </trkpt>
      <trkpt lat="46.19218" lon="6.1168">
        <ele>426.3</ele>
        <time>2022-09-27T14:36:52Z</time>
      </trkpt>
      <trkpt lat="46.19223" lon="6.11682">
        <ele>426.3</ele>
        <time>2022-09-27T14:36:53Z</time>
      </trkpt>
      <trkpt lat="46.19226" lon="6.11683">
        <ele>426.3</ele>
        <time>2022-09-27T14:36:54Z</time>
      </trkpt>
      <trkpt lat="46.19231" lon="6.11684">
        <ele>426.2</ele>
        <time>2022-09-27T14:36:55Z</time>
      </trkpt>
      <trkpt lat="46.19235" lon="6.11686">
        <ele>426.2</ele>
        <time>2022-09-27T14:36:56Z</time>
      </trkpt>
      <trkpt lat="46.19239" lon="6.1169">
        <ele>426.2</ele>
        <time>2022-09-27T14:36:57Z</time>
      </trkpt>
      <trkpt lat="46.19241" lon="6.11696">
        <ele>426.1</ele>
        <time>2022-09-27T14:36:58Z</time>
      </trkpt>
      <trkpt lat="46.19243" lon="6.11703">
        <ele>426.1</ele>
        <time>2022-09-27T14:36:59Z</time>
      </trkpt>
      <trkpt lat="46.19245" lon="6.1171">
        <ele>426.1</ele>
        <time>2022-09-27T14:37:00Z</time>
      </trkpt>
      <trkpt lat="46.19248" lon="6.11716">
        <ele>426</ele>
        <time>2022-09-27T14:37:01Z</time>
      </trkpt>
      <trkpt lat="46.1925" lon="6.11724">
        <ele>425.9</ele>
        <time>2022-09-27T14:37:02Z</time>
      </trkpt>
      <trkpt lat="46.19253" lon="6.1173">
        <ele>425.9</ele>
        <time>2022-09-27T14:37:03Z</time>
      </trkpt>
      <trkpt lat="46.19256" lon="6.11736">
        <ele>425.8</ele>
        <time>2022-09-27T14:37:04Z</time>
      </trkpt>
      <trkpt lat="46.1926" lon="6.11741">
        <ele>425.7</ele>
        <time>2022-09-27T14:37:05Z</time>
      </trkpt>
      <trkpt lat="46.19263" lon="6.11749">
        <ele>425.7</ele>
        <time>2022-09-27T14:37:06Z</time>
      </trkpt>
      <trkpt lat="46.19265" lon="6.11756">
        <ele>425.6</ele>
        <time>2022-09-27T14:37:07Z</time>
      </trkpt>
      <trkpt lat="46.19267" lon="6.11763">
        <ele>425.5</ele>
        <time>2022-09-27T14:37:08Z</time>
      </trkpt>
      <trkpt lat="46.1927" lon="6.1177">
        <ele>425.5</ele>
        <time>2022-09-27T14:37:09Z</time>
      </trkpt>
      <trkpt lat="46.19273" lon="6.11776">
        <ele>425.4</ele>
        <time>2022-09-27T14:37:10Z</time>
      </trkpt>
      <trkpt lat="46.19276" lon="6.11783">
        <ele>425.4</ele>
        <time>2022-09-27T14:37:11Z</time>
      </trkpt>
      <trkpt lat="46.19278" lon="6.1179">
        <ele>425.3</ele>
        <time>2022-09-27T14:37:12Z</time>
      </trkpt>
      <trkpt lat="46.19279" lon="6.11796">
        <ele>425.3</ele>
        <time>2022-09-27T14:37:13Z</time>
      </trkpt>
      <trkpt lat="46.1928" lon="6.11804">
        <ele>425.3</ele>
        <time>2022-09-27T14:37:14Z</time>
      </trkpt>
      <trkpt lat="46.19283" lon="6.11811">
        <ele>425.2</ele>
        <time>2022-09-27T14:37:15Z</time>
      </trkpt>
      <trkpt lat="46.19285" lon="6.11817">
        <ele>425.2</ele>
        <time>2022-09-27T14:37:16Z</time>
      </trkpt>
      <trkpt lat="46.19289" lon="6.11822">
        <ele>425.2</ele>
        <time>2022-09-27T14:37:17Z</time>
      </trkpt>
      <trkpt lat="46.19291" lon="6.11828">
        <ele>425.2</ele>
        <time>2022-09-27T14:37:18Z</time>
      </trkpt>
      <trkpt lat="46.19293" lon="6.11831">
        <ele>425.2</ele>
        <time>2022-09-27T14:37:19Z</time>
      </trkpt>
      <trkpt lat="46.19295" lon="6.11834">
        <ele>425.2</ele>
        <time>2022-09-27T14:37:20Z</time>
      </trkpt>
      <trkpt lat="46.19297" lon="6.11838">
        <ele>425.2</ele>
        <time>2022-09-27T14:37:21Z</time>
      </trkpt>
      <trkpt lat="46.19301" lon="6.11839">
        <ele>425.2</ele>
        <time>2022-09-27T14:37:22Z</time>
      </trkpt>
      <trkpt lat="46.19303" lon="6.11842">
        <ele>425.2</ele>
        <time>2022-09-27T14:37:23Z</time>
      </trkpt>
      <trkpt lat="46.19307" lon="6.11846">
        <ele>425.2</ele>
        <time>2022-09-27T14:37:24Z</time>
      </trkpt>
      <trkpt lat="46.19309" lon="6.1185">
        <ele>425.2</ele>
        <time>2022-09-27T14:37:25Z</time>
      </trkpt>
      <trkpt lat="46.19311" lon="6.11854">
        <ele>425.2</ele>
        <time>2022-09-27T14:37:26Z</time>
      </trkpt>
      <trkpt lat="46.19313" lon="6.11859">
        <ele>425.2</ele>
        <time>2022-09-27T14:37:27Z</time>
      </trkpt>
      <trkpt lat="46.19315" lon="6.11864">
        <ele>425.2</ele>
        <time>2022-09-27T14:37:28Z</time>
      </trkpt>
      <trkpt lat="46.19317" lon="6.1187">
        <ele>425.2</ele>
        <time>2022-09-27T14:37:29Z</time>
      </trkpt>
      <trkpt lat="46.1932" lon="6.11876">
        <ele>425.2</ele>
        <time>2022-09-27T14:37:30Z</time>
      </trkpt>
      <trkpt lat="46.19323" lon="6.11881">
        <ele>425.2</ele>
        <time>2022-09-27T14:37:31Z</time>
      </trkpt>
      <trkpt lat="46.19325" lon="6.11886">
        <ele>425.2</ele>
        <time>2022-09-27T14:37:32Z</time>
      </trkpt>
      <trkpt lat="46.19328" lon="6.11892">
        <ele>425.2</ele>
        <time>2022-09-27T14:37:33Z</time>
      </trkpt>
      <trkpt lat="46.1933" lon="6.11898">
        <ele>425.1</ele>
        <time>2022-09-27T14:37:34Z</time>
      </trkpt>
      <trkpt lat="46.19332" lon="6.11904">
        <ele>425.1</ele>
        <time>2022-09-27T14:37:35Z</time>
      </trkpt>
      <trkpt lat="46.19335" lon="6.11909">
        <ele>425.1</ele>
        <time>2022-09-27T14:37:36Z</time>
      </trkpt>
      <trkpt lat="46.19337" lon="6.11915">
        <ele>425.1</ele>
        <time>2022-09-27T14:37:37Z</time>
      </trkpt>
      <trkpt lat="46.19339" lon="6.11921">
        <ele>425.1</ele>
        <time>2022-09-27T14:37:38Z</time>
      </trkpt>
      <trkpt lat="46.19342" lon="6.11926">
        <ele>425.1</ele>
        <time>2022-09-27T14:37:39Z</time>
      </trkpt>
      <trkpt lat="46.19346" lon="6.11932">
        <ele>425.1</ele>
        <time>2022-09-27T14:37:40Z</time>
      </trkpt>
      <trkpt lat="46.19348" lon="6.11938">
        <ele>425.1</ele>
        <time>2022-09-27T14:37:41Z</time>
      </trkpt>
      <trkpt lat="46.1935" lon="6.11944">
        <ele>425.1</ele>
        <time>2022-09-27T14:37:42Z</time>
      </trkpt>
      <trkpt lat="46.19352" lon="6.11949">
        <ele>425.1</ele>
        <time>2022-09-27T14:37:43Z</time>
      </trkpt>
      <trkpt lat="46.19353" lon="6.11954">
        <ele>425.1</ele>
        <time>2022-09-27T14:37:44Z</time>
      </trkpt>
      <trkpt lat="46.19354" lon="6.11958">
        <ele>425.1</ele>
        <time>2022-09-27T14:37:45Z</time>
      </trkpt>
      <trkpt lat="46.19355" lon="6.11959">
        <ele>425.1</ele>
        <time>2022-09-27T14:37:46Z</time>
      </trkpt>
      <trkpt lat="46.19358" lon="6.11962">
        <ele>425</ele>
        <time>2022-09-27T14:37:47Z</time>
      </trkpt>
      <trkpt lat="46.1936" lon="6.11966">
        <ele>425</ele>
        <time>2022-09-27T14:37:48Z</time>
      </trkpt>
      <trkpt lat="46.19363" lon="6.1197">
        <ele>424.9</ele>
        <time>2022-09-27T14:37:49Z</time>
      </trkpt>
      <trkpt lat="46.19365" lon="6.11974">
        <ele>424.9</ele>
        <time>2022-09-27T14:37:50Z</time>
      </trkpt>
      <trkpt lat="46.19367" lon="6.1198">
        <ele>424.8</ele>
        <time>2022-09-27T14:37:51Z</time>
      </trkpt>
      <trkpt lat="46.19369" lon="6.11985">
        <ele>424.7</ele>
        <time>2022-09-27T14:37:52Z</time>
      </trkpt>
      <trkpt lat="46.19372" lon="6.11991">
        <ele>424.6</ele>
        <time>2022-09-27T14:37:53Z</time>
      </trkpt>
      <trkpt lat="46.19375" lon="6.11996">
        <ele>424.5</ele>
        <time>2022-09-27T14:37:54Z</time>
      </trkpt>
      <trkpt lat="46.19379" lon="6.12001">
        <ele>424.4</ele>
        <time>2022-09-27T14:37:55Z</time>
      </trkpt>
      <trkpt lat="46.19382" lon="6.12006">
        <ele>424.3</ele>
        <time>2022-09-27T14:37:56Z</time>
      </trkpt>
      <trkpt lat="46.19385" lon="6.12012">
        <ele>424.2</ele>
        <time>2022-09-27T14:37:57Z</time>
      </trkpt>
      <trkpt lat="46.19388" lon="6.12017">
        <ele>424</ele>
        <time>2022-09-27T14:37:58Z</time>
      </trkpt>
      <trkpt lat="46.19391" lon="6.12023">
        <ele>423.9</ele>
        <time>2022-09-27T14:37:59Z</time>
      </trkpt>
      <trkpt lat="46.19394" lon="6.12028">
        <ele>423.8</ele>
        <time>2022-09-27T14:38:00Z</time>
      </trkpt>
      <trkpt lat="46.19397" lon="6.12033">
        <ele>423.6</ele>
        <time>2022-09-27T14:38:01Z</time>
      </trkpt>
      <trkpt lat="46.194" lon="6.12039">
        <ele>423.5</ele>
        <time>2022-09-27T14:38:02Z</time>
      </trkpt>
      <trkpt lat="46.19402" lon="6.12044">
        <ele>423.3</ele>
        <time>2022-09-27T14:38:03Z</time>
      </trkpt>
      <trkpt lat="46.19404" lon="6.12049">
        <ele>423.3</ele>
        <time>2022-09-27T14:38:04Z</time>
      </trkpt>
      <trkpt lat="46.19408" lon="6.12053">
        <ele>423.2</ele>
        <time>2022-09-27T14:38:05Z</time>
      </trkpt>
      <trkpt lat="46.19409" lon="6.12059">
        <ele>423.1</ele>
        <time>2022-09-27T14:38:06Z</time>
      </trkpt>
      <trkpt lat="46.19412" lon="6.12062">
        <ele>423</ele>
        <time>2022-09-27T14:38:07Z</time>
      </trkpt>
      <trkpt lat="46.19415" lon="6.12064">
        <ele>422.9</ele>
        <time>2022-09-27T14:38:08Z</time>
      </trkpt>
      <trkpt lat="46.19419" lon="6.12067">
        <ele>422.9</ele>
        <time>2022-09-27T14:38:09Z</time>
      </trkpt>
      <trkpt lat="46.19423" lon="6.12069">
        <ele>422.8</ele>
        <time>2022-09-27T14:38:10Z</time>
      </trkpt>
      <trkpt lat="46.19427" lon="6.12072">
        <ele>422.7</ele>
        <time>2022-09-27T14:38:11Z</time>
      </trkpt>
      <trkpt lat="46.1943" lon="6.12074">
        <ele>422.7</ele>
        <time>2022-09-27T14:38:12Z</time>
      </trkpt>
      <trkpt lat="46.19433" lon="6.12076">
        <ele>422.6</ele>
        <time>2022-09-27T14:38:13Z</time>
      </trkpt>
      <trkpt lat="46.19438" lon="6.12076">
        <ele>422.6</ele>
        <time>2022-09-27T14:38:14Z</time>
      </trkpt>
      <trkpt lat="46.19442" lon="6.12078">
        <ele>422.5</ele>
        <time>2022-09-27T14:38:15Z</time>
      </trkpt>
      <trkpt lat="46.19446" lon="6.1208">
        <ele>422.4</ele>
        <time>2022-09-27T14:38:16Z</time>
      </trkpt>
      <trkpt lat="46.1945" lon="6.12082">
        <ele>422.4</ele>
        <time>2022-09-27T14:38:17Z</time>
      </trkpt>
      <trkpt lat="46.19454" lon="6.12083">
        <ele>422.3</ele>
        <time>2022-09-27T14:38:18Z</time>
      </trkpt>
      <trkpt lat="46.19459" lon="6.12085">
        <ele>422.2</ele>
        <time>2022-09-27T14:38:19Z</time>
      </trkpt>
      <trkpt lat="46.19463" lon="6.12087">
        <ele>422.1</ele>
        <time>2022-09-27T14:38:20Z</time>
      </trkpt>
      <trkpt lat="46.19469" lon="6.12089">
        <ele>422</ele>
        <time>2022-09-27T14:38:21Z</time>
      </trkpt>
      <trkpt lat="46.19472" lon="6.12091">
        <ele>422</ele>
        <time>2022-09-27T14:38:22Z</time>
      </trkpt>
      <trkpt lat="46.19477" lon="6.12095">
        <ele>421.9</ele>
        <time>2022-09-27T14:38:23Z</time>
      </trkpt>
      <trkpt lat="46.19482" lon="6.12098">
        <ele>421.8</ele>
        <time>2022-09-27T14:38:24Z</time>
      </trkpt>
      <trkpt lat="46.19487" lon="6.121">
        <ele>421.8</ele>
        <time>2022-09-27T14:38:25Z</time>
      </trkpt>
      <trkpt lat="46.19491" lon="6.12102">
        <ele>421.7</ele>
        <time>2022-09-27T14:38:26Z</time>
      </trkpt>
      <trkpt lat="46.19496" lon="6.12104">
        <ele>421.6</ele>
        <time>2022-09-27T14:38:27Z</time>
      </trkpt>
      <trkpt lat="46.19503" lon="6.12105">
        <ele>421.5</ele>
        <time>2022-09-27T14:38:28Z</time>
      </trkpt>
      <trkpt lat="46.19507" lon="6.12106">
        <ele>421.4</ele>
        <time>2022-09-27T14:38:29Z</time>
      </trkpt>
      <trkpt lat="46.19512" lon="6.12108">
        <ele>421.3</ele>
        <time>2022-09-27T14:38:30Z</time>
      </trkpt>
      <trkpt lat="46.19518" lon="6.12112">
        <ele>421</ele>
        <time>2022-09-27T14:38:31Z</time>
      </trkpt>
      <trkpt lat="46.19523" lon="6.12115">
        <ele>420.8</ele>
        <time>2022-09-27T14:38:32Z</time>
      </trkpt>
      <trkpt lat="46.19528" lon="6.12118">
        <ele>420.6</ele>
        <time>2022-09-27T14:38:33Z</time>
      </trkpt>
      <trkpt lat="46.1953" lon="6.12122">
        <ele>420.4</ele>
        <time>2022-09-27T14:38:34Z</time>
      </trkpt>
      <trkpt lat="46.19532" lon="6.12124">
        <ele>420.3</ele>
        <time>2022-09-27T14:38:35Z</time>
      </trkpt>
      <trkpt lat="46.19536" lon="6.12123">
        <ele>420.1</ele>
        <time>2022-09-27T14:38:36Z</time>
      </trkpt>
      <trkpt lat="46.1954" lon="6.12125">
        <ele>419.9</ele>
        <time>2022-09-27T14:38:37Z</time>
      </trkpt>
      <trkpt lat="46.19542" lon="6.12126">
        <ele>419.9</ele>
        <time>2022-09-27T14:38:38Z</time>
      </trkpt>
      <trkpt lat="46.19546" lon="6.12128">
        <ele>419.7</ele>
        <time>2022-09-27T14:38:39Z</time>
      </trkpt>
      <trkpt lat="46.1955" lon="6.1213">
        <ele>419.5</ele>
        <time>2022-09-27T14:38:40Z</time>
      </trkpt>
      <trkpt lat="46.19552" lon="6.12131">
        <ele>419.4</ele>
        <time>2022-09-27T14:38:41Z</time>
      </trkpt>
      <trkpt lat="46.19555" lon="6.12133">
        <ele>419.2</ele>
        <time>2022-09-27T14:38:42Z</time>
      </trkpt>
      <trkpt lat="46.1956" lon="6.12135">
        <ele>419.1</ele>
        <time>2022-09-27T14:38:43Z</time>
      </trkpt>
      <trkpt lat="46.19565" lon="6.12136">
        <ele>418.9</ele>
        <time>2022-09-27T14:38:44Z</time>
      </trkpt>
      <trkpt lat="46.19569" lon="6.12138">
        <ele>418.8</ele>
        <time>2022-09-27T14:38:45Z</time>
      </trkpt>
      <trkpt lat="46.19573" lon="6.1214">
        <ele>418.7</ele>
        <time>2022-09-27T14:38:46Z</time>
      </trkpt>
      <trkpt lat="46.19577" lon="6.12142">
        <ele>418.6</ele>
        <time>2022-09-27T14:38:47Z</time>
      </trkpt>
      <trkpt lat="46.1958" lon="6.12143">
        <ele>418.5</ele>
        <time>2022-09-27T14:38:48Z</time>
      </trkpt>
      <trkpt lat="46.19583" lon="6.12143">
        <ele>418.4</ele>
        <time>2022-09-27T14:38:49Z</time>
      </trkpt>
      <trkpt lat="46.19586" lon="6.12146">
        <ele>418.3</ele>
        <time>2022-09-27T14:38:50Z</time>
      </trkpt>
      <trkpt lat="46.19587" lon="6.12146">
        <ele>418.3</ele>
        <time>2022-09-27T14:38:51Z</time>
      </trkpt>
      <trkpt lat="46.19588" lon="6.12147">
        <ele>418.3</ele>
        <time>2022-09-27T14:38:52Z</time>
      </trkpt>
      <trkpt lat="46.19589" lon="6.12148">
        <ele>418.2</ele>
        <time>2022-09-27T14:38:53Z</time>
      </trkpt>
      <trkpt lat="46.19589" lon="6.12147">
        <ele>418.2</ele>
        <time>2022-09-27T14:38:54Z</time>
      </trkpt>
      <trkpt lat="46.19589" lon="6.12147">
        <ele>418.2</ele>
        <time>2022-09-27T14:38:55Z</time>
      </trkpt>
      <trkpt lat="46.1959" lon="6.12148">
        <ele>418.2</ele>
        <time>2022-09-27T14:38:56Z</time>
      </trkpt>
      <trkpt lat="46.1959" lon="6.12148">
        <ele>418.2</ele>
        <time>2022-09-27T14:38:57Z</time>
      </trkpt>
      <trkpt lat="46.19591" lon="6.12148">
        <ele>418.2</ele>
        <time>2022-09-27T14:38:58Z</time>
      </trkpt>
      <trkpt lat="46.19591" lon="6.12148">
        <ele>418.2</ele>
        <time>2022-09-27T14:38:59Z</time>
      </trkpt>
      <trkpt lat="46.19592" lon="6.12149">
        <ele>418.2</ele>
        <time>2022-09-27T14:39:00Z</time>
      </trkpt>
      <trkpt lat="46.19592" lon="6.12149">
        <ele>418.1</ele>
        <time>2022-09-27T14:39:01Z</time>
      </trkpt>
      <trkpt lat="46.19593" lon="6.12149">
        <ele>418.1</ele>
        <time>2022-09-27T14:39:02Z</time>
      </trkpt>
      <trkpt lat="46.19595" lon="6.12152">
        <ele>418.1</ele>
        <time>2022-09-27T14:39:04Z</time>
      </trkpt>
      <trkpt lat="46.19597" lon="6.12153">
        <ele>418</ele>
        <time>2022-09-27T14:39:05Z</time>
      </trkpt>
      <trkpt lat="46.19601" lon="6.12155">
        <ele>417.9</ele>
        <time>2022-09-27T14:39:06Z</time>
      </trkpt>
      <trkpt lat="46.19602" lon="6.12156">
        <ele>417.9</ele>
        <time>2022-09-27T14:39:07Z</time>
      </trkpt>
      <trkpt lat="46.19606" lon="6.12155">
        <ele>417.8</ele>
        <time>2022-09-27T14:39:08Z</time>
      </trkpt>
      <trkpt lat="46.19608" lon="6.12155">
        <ele>417.9</ele>
        <time>2022-09-27T14:39:09Z</time>
      </trkpt>
      <trkpt lat="46.19611" lon="6.12155">
        <ele>418</ele>
        <time>2022-09-27T14:39:10Z</time>
      </trkpt>
      <trkpt lat="46.19612" lon="6.12156">
        <ele>418.1</ele>
        <time>2022-09-27T14:39:11Z</time>
      </trkpt>
      <trkpt lat="46.19614" lon="6.12157">
        <ele>418.2</ele>
        <time>2022-09-27T14:39:12Z</time>
      </trkpt>
      <trkpt lat="46.19615" lon="6.12158">
        <ele>418.3</ele>
        <time>2022-09-27T14:39:13Z</time>
      </trkpt>
      <trkpt lat="46.19618" lon="6.1216">
        <ele>418.2</ele>
        <time>2022-09-27T14:39:14Z</time>
      </trkpt>
      <trkpt lat="46.19618" lon="6.12161">
        <ele>418.2</ele>
        <time>2022-09-27T14:39:15Z</time>
      </trkpt>
      <trkpt lat="46.19619" lon="6.12163">
        <ele>418.1</ele>
        <time>2022-09-27T14:39:16Z</time>
      </trkpt>
      <trkpt lat="46.19619" lon="6.12164">
        <ele>418.1</ele>
        <time>2022-09-27T14:39:17Z</time>
      </trkpt>
      <trkpt lat="46.19619" lon="6.12165">
        <ele>418.1</ele>
        <time>2022-09-27T14:39:18Z</time>
      </trkpt>
      <trkpt lat="46.19619" lon="6.12166">
        <ele>418.1</ele>
        <time>2022-09-27T14:39:19Z</time>
      </trkpt>
      <trkpt lat="46.19618" lon="6.1217">
        <ele>418</ele>
        <time>2022-09-27T14:39:20Z</time>
      </trkpt>
      <trkpt lat="46.19618" lon="6.12172">
        <ele>418</ele>
        <time>2022-09-27T14:39:21Z</time>
      </trkpt>
      <trkpt lat="46.19619" lon="6.12177">
        <ele>417.9</ele>
        <time>2022-09-27T14:39:22Z</time>
      </trkpt>
      <trkpt lat="46.19619" lon="6.12179">
        <ele>417.9</ele>
        <time>2022-09-27T14:39:23Z</time>
      </trkpt>
      <trkpt lat="46.1962" lon="6.12184">
        <ele>417.8</ele>
        <time>2022-09-27T14:39:24Z</time>
      </trkpt>
      <trkpt lat="46.1962" lon="6.12188">
        <ele>417.8</ele>
        <time>2022-09-27T14:39:25Z</time>
      </trkpt>
      <trkpt lat="46.19622" lon="6.12193">
        <ele>417.7</ele>
        <time>2022-09-27T14:39:26Z</time>
      </trkpt>
      <trkpt lat="46.19623" lon="6.12195">
        <ele>417.7</ele>
        <time>2022-09-27T14:39:27Z</time>
      </trkpt>
      <trkpt lat="46.19623" lon="6.122">
        <ele>417.7</ele>
        <time>2022-09-27T14:39:28Z</time>
      </trkpt>
      <trkpt lat="46.19621" lon="6.12206">
        <ele>417.6</ele>
        <time>2022-09-27T14:39:29Z</time>
      </trkpt>
      <trkpt lat="46.19621" lon="6.12212">
        <ele>417.6</ele>
        <time>2022-09-27T14:39:30Z</time>
      </trkpt>
      <trkpt lat="46.19621" lon="6.12218">
        <ele>417.5</ele>
        <time>2022-09-27T14:39:31Z</time>
      </trkpt>
      <trkpt lat="46.19619" lon="6.12222">
        <ele>417.5</ele>
        <time>2022-09-27T14:39:32Z</time>
      </trkpt>
      <trkpt lat="46.19618" lon="6.12223">
        <ele>417.5</ele>
        <time>2022-09-27T14:39:33Z</time>
      </trkpt>
      <trkpt lat="46.19618" lon="6.12225">
        <ele>417.4</ele>
        <time>2022-09-27T14:39:34Z</time>
      </trkpt>
      <trkpt lat="46.19617" lon="6.12226">
        <ele>417.4</ele>
        <time>2022-09-27T14:39:35Z</time>
      </trkpt>
      <trkpt lat="46.19616" lon="6.12227">
        <ele>417.4</ele>
        <time>2022-09-27T14:39:36Z</time>
      </trkpt>
      <trkpt lat="46.19616" lon="6.1223">
        <ele>417.2</ele>
        <time>2022-09-27T14:39:37Z</time>
      </trkpt>
      <trkpt lat="46.19616" lon="6.1223">
        <ele>417.2</ele>
        <time>2022-09-27T14:39:38Z</time>
      </trkpt>
      <trkpt lat="46.19615" lon="6.12233">
        <ele>417.1</ele>
        <time>2022-09-27T14:39:39Z</time>
      </trkpt>
      <trkpt lat="46.19614" lon="6.12234">
        <ele>417</ele>
        <time>2022-09-27T14:39:40Z</time>
      </trkpt>
      <trkpt lat="46.19613" lon="6.12235">
        <ele>416.9</ele>
        <time>2022-09-27T14:39:41Z</time>
      </trkpt>
      <trkpt lat="46.19612" lon="6.12237">
        <ele>416.8</ele>
        <time>2022-09-27T14:39:42Z</time>
      </trkpt>
      <trkpt lat="46.19612" lon="6.12238">
        <ele>416.7</ele>
        <time>2022-09-27T14:39:43Z</time>
      </trkpt>
      <trkpt lat="46.19611" lon="6.12243">
        <ele>416.4</ele>
        <time>2022-09-27T14:39:44Z</time>
      </trkpt>
      <trkpt lat="46.1961" lon="6.12245">
        <ele>416.3</ele>
        <time>2022-09-27T14:39:45Z</time>
      </trkpt>
      <trkpt lat="46.1961" lon="6.1225">
        <ele>416</ele>
        <time>2022-09-27T14:39:46Z</time>
      </trkpt>
      <trkpt lat="46.1961" lon="6.12252">
        <ele>415.9</ele>
        <time>2022-09-27T14:39:47Z</time>
      </trkpt>
      <trkpt lat="46.19609" lon="6.12253">
        <ele>415.8</ele>
        <time>2022-09-27T14:39:48Z</time>
      </trkpt>
      <trkpt lat="46.19608" lon="6.12255">
        <ele>415.7</ele>
        <time>2022-09-27T14:39:49Z</time>
      </trkpt>
      <trkpt lat="46.19606" lon="6.12259">
        <ele>415.4</ele>
        <time>2022-09-27T14:39:50Z</time>
      </trkpt>
      <trkpt lat="46.19605" lon="6.12261">
        <ele>415.3</ele>
        <time>2022-09-27T14:39:51Z</time>
      </trkpt>
      <trkpt lat="46.19604" lon="6.12266">
        <ele>415.1</ele>
        <time>2022-09-27T14:39:52Z</time>
      </trkpt>
      <trkpt lat="46.19604" lon="6.12267">
        <ele>415</ele>
        <time>2022-09-27T14:39:53Z</time>
      </trkpt>
      <trkpt lat="46.19604" lon="6.12272">
        <ele>414.7</ele>
        <time>2022-09-27T14:39:54Z</time>
      </trkpt>
      <trkpt lat="46.19604" lon="6.12273">
        <ele>414.7</ele>
        <time>2022-09-27T14:39:55Z</time>
      </trkpt>
      <trkpt lat="46.19603" lon="6.12277">
        <ele>414.5</ele>
        <time>2022-09-27T14:39:56Z</time>
      </trkpt>
      <trkpt lat="46.19603" lon="6.12283">
        <ele>414.3</ele>
        <time>2022-09-27T14:39:57Z</time>
      </trkpt>
      <trkpt lat="46.19602" lon="6.12284">
        <ele>414.2</ele>
        <time>2022-09-27T14:39:58Z</time>
      </trkpt>
      <trkpt lat="46.19602" lon="6.12287">
        <ele>414.1</ele>
        <time>2022-09-27T14:39:59Z</time>
      </trkpt>
      <trkpt lat="46.19602" lon="6.12289">
        <ele>414</ele>
        <time>2022-09-27T14:40:00Z</time>
      </trkpt>
      <trkpt lat="46.19602" lon="6.12293">
        <ele>413.8</ele>
        <time>2022-09-27T14:40:01Z</time>
      </trkpt>
      <trkpt lat="46.19602" lon="6.12295">
        <ele>413.7</ele>
        <time>2022-09-27T14:40:02Z</time>
      </trkpt>
      <trkpt lat="46.196" lon="6.12301">
        <ele>413.4</ele>
        <time>2022-09-27T14:40:03Z</time>
      </trkpt>
      <trkpt lat="46.19598" lon="6.12306">
        <ele>413.2</ele>
        <time>2022-09-27T14:40:04Z</time>
      </trkpt>
      <trkpt lat="46.19597" lon="6.1231">
        <ele>413</ele>
        <time>2022-09-27T14:40:05Z</time>
      </trkpt>
      <trkpt lat="46.19596" lon="6.12311">
        <ele>412.9</ele>
        <time>2022-09-27T14:40:06Z</time>
      </trkpt>
      <trkpt lat="46.19594" lon="6.12315">
        <ele>412.7</ele>
        <time>2022-09-27T14:40:07Z</time>
      </trkpt>
      <trkpt lat="46.19592" lon="6.1232">
        <ele>412.5</ele>
        <time>2022-09-27T14:40:08Z</time>
      </trkpt>
      <trkpt lat="46.19591" lon="6.12323">
        <ele>412.4</ele>
        <time>2022-09-27T14:40:09Z</time>
      </trkpt>
      <trkpt lat="46.1959" lon="6.12324">
        <ele>412.3</ele>
        <time>2022-09-27T14:40:10Z</time>
      </trkpt>
      <trkpt lat="46.19589" lon="6.12327">
        <ele>412.2</ele>
        <time>2022-09-27T14:40:11Z</time>
      </trkpt>
      <trkpt lat="46.19589" lon="6.12332">
        <ele>412</ele>
        <time>2022-09-27T14:40:12Z</time>
      </trkpt>
      <trkpt lat="46.19589" lon="6.12333">
        <ele>411.9</ele>
        <time>2022-09-27T14:40:13Z</time>
      </trkpt>
      <trkpt lat="46.19587" lon="6.12338">
        <ele>411.7</ele>
        <time>2022-09-27T14:40:14Z</time>
      </trkpt>
      <trkpt lat="46.19587" lon="6.12339">
        <ele>411.6</ele>
        <time>2022-09-27T14:40:15Z</time>
      </trkpt>
      <trkpt lat="46.19587" lon="6.12341">
        <ele>411.5</ele>
        <time>2022-09-27T14:40:16Z</time>
      </trkpt>
      <trkpt lat="46.19588" lon="6.12343">
        <ele>411.4</ele>
        <time>2022-09-27T14:40:17Z</time>
      </trkpt>
      <trkpt lat="46.1959" lon="6.12347">
        <ele>411.3</ele>
        <time>2022-09-27T14:40:18Z</time>
      </trkpt>
      <trkpt lat="46.19591" lon="6.12349">
        <ele>411.2</ele>
        <time>2022-09-27T14:40:19Z</time>
      </trkpt>
      <trkpt lat="46.19593" lon="6.12353">
        <ele>411.1</ele>
        <time>2022-09-27T14:40:20Z</time>
      </trkpt>
      <trkpt lat="46.19593" lon="6.12355">
        <ele>411</ele>
        <time>2022-09-27T14:40:21Z</time>
      </trkpt>
      <trkpt lat="46.19595" lon="6.12358">
        <ele>410.9</ele>
        <time>2022-09-27T14:40:22Z</time>
      </trkpt>
      <trkpt lat="46.19596" lon="6.12363">
        <ele>410.7</ele>
        <time>2022-09-27T14:40:23Z</time>
      </trkpt>
      <trkpt lat="46.19596" lon="6.12365">
        <ele>410.7</ele>
        <time>2022-09-27T14:40:24Z</time>
      </trkpt>
      <trkpt lat="46.19597" lon="6.1237">
        <ele>410.5</ele>
        <time>2022-09-27T14:40:25Z</time>
      </trkpt>
      <trkpt lat="46.196" lon="6.12373">
        <ele>410.3</ele>
        <time>2022-09-27T14:40:26Z</time>
      </trkpt>
      <trkpt lat="46.19601" lon="6.12377">
        <ele>410.2</ele>
        <time>2022-09-27T14:40:27Z</time>
      </trkpt>
      <trkpt lat="46.19601" lon="6.12382">
        <ele>410</ele>
        <time>2022-09-27T14:40:28Z</time>
      </trkpt>
      <trkpt lat="46.19602" lon="6.12387">
        <ele>409.8</ele>
        <time>2022-09-27T14:40:29Z</time>
      </trkpt>
      <trkpt lat="46.19603" lon="6.12391">
        <ele>409.6</ele>
        <time>2022-09-27T14:40:30Z</time>
      </trkpt>
      <trkpt lat="46.19605" lon="6.12395">
        <ele>409.5</ele>
        <time>2022-09-27T14:40:31Z</time>
      </trkpt>
      <trkpt lat="46.19605" lon="6.12399">
        <ele>409.3</ele>
        <time>2022-09-27T14:40:32Z</time>
      </trkpt>
      <trkpt lat="46.19605" lon="6.12404">
        <ele>409.1</ele>
        <time>2022-09-27T14:40:33Z</time>
      </trkpt>
      <trkpt lat="46.19607" lon="6.12408">
        <ele>409</ele>
        <time>2022-09-27T14:40:34Z</time>
      </trkpt>
      <trkpt lat="46.19608" lon="6.12413">
        <ele>408.8</ele>
        <time>2022-09-27T14:40:35Z</time>
      </trkpt>
      <trkpt lat="46.1961" lon="6.12417">
        <ele>408.6</ele>
        <time>2022-09-27T14:40:36Z</time>
      </trkpt>
      <trkpt lat="46.1961" lon="6.12422">
        <ele>408.4</ele>
        <time>2022-09-27T14:40:37Z</time>
      </trkpt>
      <trkpt lat="46.1961" lon="6.12424">
        <ele>408.4</ele>
        <time>2022-09-27T14:40:38Z</time>
      </trkpt>
      <trkpt lat="46.19611" lon="6.1243">
        <ele>408.2</ele>
        <time>2022-09-27T14:40:39Z</time>
      </trkpt>
      <trkpt lat="46.19612" lon="6.12432">
        <ele>408.1</ele>
        <time>2022-09-27T14:40:40Z</time>
      </trkpt>
      <trkpt lat="46.19611" lon="6.12435">
        <ele>408</ele>
        <time>2022-09-27T14:40:41Z</time>
      </trkpt>
      <trkpt lat="46.19612" lon="6.12436">
        <ele>408</ele>
        <time>2022-09-27T14:40:42Z</time>
      </trkpt>
      <trkpt lat="46.19613" lon="6.12438">
        <ele>407.9</ele>
        <time>2022-09-27T14:40:43Z</time>
      </trkpt>
      <trkpt lat="46.19614" lon="6.1244">
        <ele>407.8</ele>
        <time>2022-09-27T14:40:44Z</time>
      </trkpt>
      <trkpt lat="46.19614" lon="6.12442">
        <ele>407.8</ele>
        <time>2022-09-27T14:40:45Z</time>
      </trkpt>
      <trkpt lat="46.19614" lon="6.12443">
        <ele>407.7</ele>
        <time>2022-09-27T14:40:46Z</time>
      </trkpt>
      <trkpt lat="46.19614" lon="6.12445">
        <ele>407.7</ele>
        <time>2022-09-27T14:40:47Z</time>
      </trkpt>
      <trkpt lat="46.19614" lon="6.12446">
        <ele>407.7</ele>
        <time>2022-09-27T14:40:48Z</time>
      </trkpt>
      <trkpt lat="46.19615" lon="6.12447">
        <ele>407.7</ele>
        <time>2022-09-27T14:40:49Z</time>
      </trkpt>
      <trkpt lat="46.19615" lon="6.12447">
        <ele>407.7</ele>
        <time>2022-09-27T14:40:50Z</time>
      </trkpt>
      <trkpt lat="46.19615" lon="6.12448">
        <ele>407.7</ele>
        <time>2022-09-27T14:40:51Z</time>
      </trkpt>
      <trkpt lat="46.19615" lon="6.12448">
        <ele>407.7</ele>
        <time>2022-09-27T14:40:52Z</time>
      </trkpt>
      <trkpt lat="46.19615" lon="6.12449">
        <ele>407.7</ele>
        <time>2022-09-27T14:40:53Z</time>
      </trkpt>
      <trkpt lat="46.19615" lon="6.12449">
        <ele>407.7</ele>
        <time>2022-09-27T14:40:54Z</time>
      </trkpt>
      <trkpt lat="46.19615" lon="6.12449">
        <ele>407.7</ele>
        <time>2022-09-27T14:40:55Z</time>
      </trkpt>
      <trkpt lat="46.19615" lon="6.12449">
        <ele>407.7</ele>
        <time>2022-09-27T14:40:56Z</time>
      </trkpt>
      <trkpt lat="46.19613" lon="6.12452">
        <ele>407.7</ele>
        <time>2022-09-27T14:40:57Z</time>
      </trkpt>
      <trkpt lat="46.19614" lon="6.12452">
        <ele>407.7</ele>
        <time>2022-09-27T14:40:58Z</time>
      </trkpt>
      <trkpt lat="46.19613" lon="6.12453">
        <ele>407.7</ele>
        <time>2022-09-27T14:40:59Z</time>
      </trkpt>
      <trkpt lat="46.19621" lon="6.12458">
        <ele>407.1</ele>
        <time>2022-09-27T14:41:59Z</time>
      </trkpt>
      <trkpt lat="46.19622" lon="6.12458">
        <ele>407.1</ele>
        <time>2022-09-27T14:42:00Z</time>
      </trkpt>
      <trkpt lat="46.19621" lon="6.12459">
        <ele>407</ele>
        <time>2022-09-27T14:42:01Z</time>
      </trkpt>
      <trkpt lat="46.19622" lon="6.12462">
        <ele>406.8</ele>
        <time>2022-09-27T14:42:02Z</time>
      </trkpt>
      <trkpt lat="46.19622" lon="6.12467">
        <ele>406.4</ele>
        <time>2022-09-27T14:42:03Z</time>
      </trkpt>
      <trkpt lat="46.19622" lon="6.12468">
        <ele>406.3</ele>
        <time>2022-09-27T14:42:04Z</time>
      </trkpt>
      <trkpt lat="46.19623" lon="6.1247">
        <ele>406.1</ele>
        <time>2022-09-27T14:42:05Z</time>
      </trkpt>
      <trkpt lat="46.19624" lon="6.12472">
        <ele>406</ele>
        <time>2022-09-27T14:42:06Z</time>
      </trkpt>
      <trkpt lat="46.19625" lon="6.12476">
        <ele>405.6</ele>
        <time>2022-09-27T14:42:07Z</time>
      </trkpt>
      <trkpt lat="46.19625" lon="6.12477">
        <ele>405.5</ele>
        <time>2022-09-27T14:42:08Z</time>
      </trkpt>
      <trkpt lat="46.19627" lon="6.12479">
        <ele>405.3</ele>
        <time>2022-09-27T14:42:09Z</time>
      </trkpt>
      <trkpt lat="46.19627" lon="6.1248">
        <ele>405.2</ele>
        <time>2022-09-27T14:42:10Z</time>
      </trkpt>
      <trkpt lat="46.19628" lon="6.12481">
        <ele>405</ele>
        <time>2022-09-27T14:42:11Z</time>
      </trkpt>
      <trkpt lat="46.1963" lon="6.12484">
        <ele>404.7</ele>
        <time>2022-09-27T14:42:12Z</time>
      </trkpt>
      <trkpt lat="46.1963" lon="6.12486">
        <ele>404.6</ele>
        <time>2022-09-27T14:42:13Z</time>
      </trkpt>
      <trkpt lat="46.19632" lon="6.12489">
        <ele>404.2</ele>
        <time>2022-09-27T14:42:14Z</time>
      </trkpt>
      <trkpt lat="46.19634" lon="6.12492">
        <ele>403.9</ele>
        <time>2022-09-27T14:42:15Z</time>
      </trkpt>
      <trkpt lat="46.19634" lon="6.12494">
        <ele>403.8</ele>
        <time>2022-09-27T14:42:16Z</time>
      </trkpt>
      <trkpt lat="46.19634" lon="6.12495">
        <ele>403.7</ele>
        <time>2022-09-27T14:42:17Z</time>
      </trkpt>
      <trkpt lat="46.19636" lon="6.12499">
        <ele>403.3</ele>
        <time>2022-09-27T14:42:18Z</time>
      </trkpt>
      <trkpt lat="46.19636" lon="6.12501">
        <ele>403.2</ele>
        <time>2022-09-27T14:42:19Z</time>
      </trkpt>
      <trkpt lat="46.19637" lon="6.12503">
        <ele>403</ele>
        <time>2022-09-27T14:42:20Z</time>
      </trkpt>
      <trkpt lat="46.19638" lon="6.12505">
        <ele>402.8</ele>
        <time>2022-09-27T14:42:21Z</time>
      </trkpt>
      <trkpt lat="46.19639" lon="6.12507">
        <ele>402.7</ele>
        <time>2022-09-27T14:42:22Z</time>
      </trkpt>
      <trkpt lat="46.19639" lon="6.12509">
        <ele>402.6</ele>
        <time>2022-09-27T14:42:23Z</time>
      </trkpt>
      <trkpt lat="46.19639" lon="6.1251">
        <ele>402.5</ele>
        <time>2022-09-27T14:42:24Z</time>
      </trkpt>
      <trkpt lat="46.1964" lon="6.12514">
        <ele>402.2</ele>
        <time>2022-09-27T14:42:25Z</time>
      </trkpt>
      <trkpt lat="46.19641" lon="6.12515">
        <ele>402.1</ele>
        <time>2022-09-27T14:42:26Z</time>
      </trkpt>
      <trkpt lat="46.19641" lon="6.1252">
        <ele>401.9</ele>
        <time>2022-09-27T14:42:27Z</time>
      </trkpt>
      <trkpt lat="46.19641" lon="6.12523">
        <ele>401.8</ele>
        <time>2022-09-27T14:42:28Z</time>
      </trkpt>
      <trkpt lat="46.19641" lon="6.12527">
        <ele>401.6</ele>
        <time>2022-09-27T14:42:29Z</time>
      </trkpt>
      <trkpt lat="46.1964" lon="6.12533">
        <ele>401.4</ele>
        <time>2022-09-27T14:42:30Z</time>
      </trkpt>
      <trkpt lat="46.19641" lon="6.12538">
        <ele>401.3</ele>
        <time>2022-09-27T14:42:31Z</time>
      </trkpt>
      <trkpt lat="46.19642" lon="6.12542">
        <ele>401.1</ele>
        <time>2022-09-27T14:42:32Z</time>
      </trkpt>
      <trkpt lat="46.19645" lon="6.12547">
        <ele>401</ele>
        <time>2022-09-27T14:42:33Z</time>
      </trkpt>
      <trkpt lat="46.19646" lon="6.12548">
        <ele>401</ele>
        <time>2022-09-27T14:42:34Z</time>
      </trkpt>
      <trkpt lat="46.19648" lon="6.12552">
        <ele>400.9</ele>
        <time>2022-09-27T14:42:35Z</time>
      </trkpt>
      <trkpt lat="46.19651" lon="6.12556">
        <ele>400.8</ele>
        <time>2022-09-27T14:42:36Z</time>
      </trkpt>
      <trkpt lat="46.19654" lon="6.12559">
        <ele>400.7</ele>
        <time>2022-09-27T14:42:37Z</time>
      </trkpt>
      <trkpt lat="46.19656" lon="6.12562">
        <ele>400.6</ele>
        <time>2022-09-27T14:42:38Z</time>
      </trkpt>
      <trkpt lat="46.19659" lon="6.12568">
        <ele>400.5</ele>
        <time>2022-09-27T14:42:39Z</time>
      </trkpt>
      <trkpt lat="46.19662" lon="6.12573">
        <ele>400.4</ele>
        <time>2022-09-27T14:42:40Z</time>
      </trkpt>
      <trkpt lat="46.19666" lon="6.12578">
        <ele>400.4</ele>
        <time>2022-09-27T14:42:41Z</time>
      </trkpt>
      <trkpt lat="46.19669" lon="6.12582">
        <ele>400.3</ele>
        <time>2022-09-27T14:42:42Z</time>
      </trkpt>
      <trkpt lat="46.19672" lon="6.12588">
        <ele>400.2</ele>
        <time>2022-09-27T14:42:43Z</time>
      </trkpt>
      <trkpt lat="46.19674" lon="6.12594">
        <ele>400.1</ele>
        <time>2022-09-27T14:42:44Z</time>
      </trkpt>
      <trkpt lat="46.19676" lon="6.12598">
        <ele>400.1</ele>
        <time>2022-09-27T14:42:45Z</time>
      </trkpt>
      <trkpt lat="46.19679" lon="6.12604">
        <ele>400</ele>
        <time>2022-09-27T14:42:46Z</time>
      </trkpt>
      <trkpt lat="46.19682" lon="6.12612">
        <ele>399.8</ele>
        <time>2022-09-27T14:42:47Z</time>
      </trkpt>
      <trkpt lat="46.19684" lon="6.12617">
        <ele>399.7</ele>
        <time>2022-09-27T14:42:48Z</time>
      </trkpt>
      <trkpt lat="46.19686" lon="6.12622">
        <ele>399.5</ele>
        <time>2022-09-27T14:42:49Z</time>
      </trkpt>
      <trkpt lat="46.19688" lon="6.12627">
        <ele>399.4</ele>
        <time>2022-09-27T14:42:50Z</time>
      </trkpt>
      <trkpt lat="46.1969" lon="6.12631">
        <ele>399.1</ele>
        <time>2022-09-27T14:42:51Z</time>
      </trkpt>
      <trkpt lat="46.19691" lon="6.12635">
        <ele>398.9</ele>
        <time>2022-09-27T14:42:52Z</time>
      </trkpt>
      <trkpt lat="46.19693" lon="6.1264">
        <ele>398.6</ele>
        <time>2022-09-27T14:42:53Z</time>
      </trkpt>
      <trkpt lat="46.19694" lon="6.12642">
        <ele>398.5</ele>
        <time>2022-09-27T14:42:54Z</time>
      </trkpt>
      <trkpt lat="46.19694" lon="6.12646">
        <ele>398.2</ele>
        <time>2022-09-27T14:42:55Z</time>
      </trkpt>
      <trkpt lat="46.19694" lon="6.1265">
        <ele>397.9</ele>
        <time>2022-09-27T14:42:56Z</time>
      </trkpt>
      <trkpt lat="46.19695" lon="6.12656">
        <ele>397.4</ele>
        <time>2022-09-27T14:42:57Z</time>
      </trkpt>
      <trkpt lat="46.19695" lon="6.12658">
        <ele>397.2</ele>
        <time>2022-09-27T14:42:58Z</time>
      </trkpt>
      <trkpt lat="46.19696" lon="6.12662">
        <ele>396.9</ele>
        <time>2022-09-27T14:42:59Z</time>
      </trkpt>
      <trkpt lat="46.19698" lon="6.12665">
        <ele>396.5</ele>
        <time>2022-09-27T14:43:00Z</time>
      </trkpt>
      <trkpt lat="46.19699" lon="6.12669">
        <ele>396</ele>
        <time>2022-09-27T14:43:01Z</time>
      </trkpt>
      <trkpt lat="46.19701" lon="6.12674">
        <ele>395.5</ele>
        <time>2022-09-27T14:43:02Z</time>
      </trkpt>
      <trkpt lat="46.19702" lon="6.12678">
        <ele>395</ele>
        <time>2022-09-27T14:43:03Z</time>
      </trkpt>
      <trkpt lat="46.19703" lon="6.12684">
        <ele>394.4</ele>
        <time>2022-09-27T14:43:04Z</time>
      </trkpt>
      <trkpt lat="46.19703" lon="6.12689">
        <ele>393.9</ele>
        <time>2022-09-27T14:43:05Z</time>
      </trkpt>
      <trkpt lat="46.19704" lon="6.12693">
        <ele>393.5</ele>
        <time>2022-09-27T14:43:06Z</time>
      </trkpt>
      <trkpt lat="46.19706" lon="6.12697">
        <ele>393.1</ele>
        <time>2022-09-27T14:43:07Z</time>
      </trkpt>
      <trkpt lat="46.19707" lon="6.12701">
        <ele>392.7</ele>
        <time>2022-09-27T14:43:08Z</time>
      </trkpt>
      <trkpt lat="46.19708" lon="6.12701">
        <ele>392.6</ele>
        <time>2022-09-27T14:43:09Z</time>
      </trkpt>
      <trkpt lat="46.19709" lon="6.12704">
        <ele>392.3</ele>
        <time>2022-09-27T14:43:10Z</time>
      </trkpt>
      <trkpt lat="46.1971" lon="6.12705">
        <ele>392.2</ele>
        <time>2022-09-27T14:43:11Z</time>
      </trkpt>
      <trkpt lat="46.19712" lon="6.12708">
        <ele>391.8</ele>
        <time>2022-09-27T14:43:12Z</time>
      </trkpt>
      <trkpt lat="46.19714" lon="6.1271">
        <ele>391.7</ele>
        <time>2022-09-27T14:43:13Z</time>
      </trkpt>
      <trkpt lat="46.19717" lon="6.12712">
        <ele>391.6</ele>
        <time>2022-09-27T14:43:14Z</time>
      </trkpt>
      <trkpt lat="46.19718" lon="6.12715">
        <ele>391.5</ele>
        <time>2022-09-27T14:43:15Z</time>
      </trkpt>
      <trkpt lat="46.19721" lon="6.12717">
        <ele>391.4</ele>
        <time>2022-09-27T14:43:16Z</time>
      </trkpt>
      <trkpt lat="46.19724" lon="6.12719">
        <ele>391.2</ele>
        <time>2022-09-27T14:43:17Z</time>
      </trkpt>
      <trkpt lat="46.19727" lon="6.12722">
        <ele>390.7</ele>
        <time>2022-09-27T14:43:18Z</time>
      </trkpt>
      <trkpt lat="46.19731" lon="6.12724">
        <ele>389.5</ele>
        <time>2022-09-27T14:43:19Z</time>
      </trkpt>
      <trkpt lat="46.19736" lon="6.12725">
        <ele>389.3</ele>
        <time>2022-09-27T14:43:20Z</time>
      </trkpt>
      <trkpt lat="46.1974" lon="6.12728">
        <ele>389.1</ele>
        <time>2022-09-27T14:43:21Z</time>
      </trkpt>
      <trkpt lat="46.19743" lon="6.12728">
        <ele>389</ele>
        <time>2022-09-27T14:43:22Z</time>
      </trkpt>
      <trkpt lat="46.19745" lon="6.12729">
        <ele>388.9</ele>
        <time>2022-09-27T14:43:23Z</time>
      </trkpt>
      <trkpt lat="46.19749" lon="6.1273">
        <ele>388.8</ele>
        <time>2022-09-27T14:43:24Z</time>
      </trkpt>
      <trkpt lat="46.19752" lon="6.12732">
        <ele>388.6</ele>
        <time>2022-09-27T14:43:25Z</time>
      </trkpt>
      <trkpt lat="46.19753" lon="6.12733">
        <ele>388.6</ele>
        <time>2022-09-27T14:43:26Z</time>
      </trkpt>
      <trkpt lat="46.19756" lon="6.12734">
        <ele>388.5</ele>
        <time>2022-09-27T14:43:27Z</time>
      </trkpt>
      <trkpt lat="46.19757" lon="6.12734">
        <ele>388.4</ele>
        <time>2022-09-27T14:43:28Z</time>
      </trkpt>
      <trkpt lat="46.1976" lon="6.12735">
        <ele>388.3</ele>
        <time>2022-09-27T14:43:29Z</time>
      </trkpt>
      <trkpt lat="46.19762" lon="6.12736">
        <ele>388.2</ele>
        <time>2022-09-27T14:43:30Z</time>
      </trkpt>
      <trkpt lat="46.19764" lon="6.12736">
        <ele>388.1</ele>
        <time>2022-09-27T14:43:31Z</time>
      </trkpt>
      <trkpt lat="46.19768" lon="6.12737">
        <ele>387.9</ele>
        <time>2022-09-27T14:43:32Z</time>
      </trkpt>
      <trkpt lat="46.19772" lon="6.1274">
        <ele>387.7</ele>
        <time>2022-09-27T14:43:33Z</time>
      </trkpt>
      <trkpt lat="46.19776" lon="6.1274">
        <ele>387.5</ele>
        <time>2022-09-27T14:43:34Z</time>
      </trkpt>
      <trkpt lat="46.19779" lon="6.12742">
        <ele>387.4</ele>
        <time>2022-09-27T14:43:35Z</time>
      </trkpt>
      <trkpt lat="46.19784" lon="6.12743">
        <ele>387.1</ele>
        <time>2022-09-27T14:43:36Z</time>
      </trkpt>
      <trkpt lat="46.19789" lon="6.12745">
        <ele>386.9</ele>
        <time>2022-09-27T14:43:37Z</time>
      </trkpt>
      <trkpt lat="46.19794" lon="6.12746">
        <ele>386.7</ele>
        <time>2022-09-27T14:43:38Z</time>
      </trkpt>
      <trkpt lat="46.198" lon="6.12747">
        <ele>386.4</ele>
        <time>2022-09-27T14:43:39Z</time>
      </trkpt>
      <trkpt lat="46.19805" lon="6.12749">
        <ele>386.2</ele>
        <time>2022-09-27T14:43:40Z</time>
      </trkpt>
      <trkpt lat="46.1981" lon="6.1275">
        <ele>385.9</ele>
        <time>2022-09-27T14:43:41Z</time>
      </trkpt>
      <trkpt lat="46.19815" lon="6.1275">
        <ele>385.7</ele>
        <time>2022-09-27T14:43:42Z</time>
      </trkpt>
      <trkpt lat="46.1982" lon="6.12752">
        <ele>385.4</ele>
        <time>2022-09-27T14:43:43Z</time>
      </trkpt>
      <trkpt lat="46.19824" lon="6.12755">
        <ele>385.3</ele>
        <time>2022-09-27T14:43:44Z</time>
      </trkpt>
      <trkpt lat="46.19828" lon="6.12755">
        <ele>385</ele>
        <time>2022-09-27T14:43:45Z</time>
      </trkpt>
      <trkpt lat="46.19833" lon="6.12757">
        <ele>384.9</ele>
        <time>2022-09-27T14:43:46Z</time>
      </trkpt>
      <trkpt lat="46.19837" lon="6.12757">
        <ele>384.6</ele>
        <time>2022-09-27T14:43:47Z</time>
      </trkpt>
      <trkpt lat="46.19841" lon="6.12759">
        <ele>384.5</ele>
        <time>2022-09-27T14:43:48Z</time>
      </trkpt>
      <trkpt lat="46.19845" lon="6.12761">
        <ele>384.3</ele>
        <time>2022-09-27T14:43:49Z</time>
      </trkpt>
      <trkpt lat="46.19848" lon="6.12762">
        <ele>384.1</ele>
        <time>2022-09-27T14:43:50Z</time>
      </trkpt>
      <trkpt lat="46.19851" lon="6.12761">
        <ele>384</ele>
        <time>2022-09-27T14:43:51Z</time>
      </trkpt>
      <trkpt lat="46.19855" lon="6.12765">
        <ele>383.8</ele>
        <time>2022-09-27T14:43:52Z</time>
      </trkpt>
      <trkpt lat="46.19858" lon="6.12766">
        <ele>383.7</ele>
        <time>2022-09-27T14:43:53Z</time>
      </trkpt>
      <trkpt lat="46.19862" lon="6.12767">
        <ele>383.5</ele>
        <time>2022-09-27T14:43:54Z</time>
      </trkpt>
      <trkpt lat="46.19867" lon="6.12768">
        <ele>383.3</ele>
        <time>2022-09-27T14:43:55Z</time>
      </trkpt>
      <trkpt lat="46.19871" lon="6.12771">
        <ele>383.1</ele>
        <time>2022-09-27T14:43:56Z</time>
      </trkpt>
      <trkpt lat="46.19874" lon="6.12772">
        <ele>383</ele>
        <time>2022-09-27T14:43:57Z</time>
      </trkpt>
      <trkpt lat="46.19879" lon="6.12775">
        <ele>382.8</ele>
        <time>2022-09-27T14:43:58Z</time>
      </trkpt>
      <trkpt lat="46.19882" lon="6.12777">
        <ele>382.7</ele>
        <time>2022-09-27T14:43:59Z</time>
      </trkpt>
      <trkpt lat="46.19887" lon="6.12779">
        <ele>382.5</ele>
        <time>2022-09-27T14:44:00Z</time>
      </trkpt>
      <trkpt lat="46.1989" lon="6.1278">
        <ele>382.5</ele>
        <time>2022-09-27T14:44:01Z</time>
      </trkpt>
      <trkpt lat="46.19893" lon="6.12784">
        <ele>382.5</ele>
        <time>2022-09-27T14:44:02Z</time>
      </trkpt>
      <trkpt lat="46.19896" lon="6.12786">
        <ele>382.4</ele>
        <time>2022-09-27T14:44:03Z</time>
      </trkpt>
      <trkpt lat="46.19899" lon="6.12792">
        <ele>382.4</ele>
        <time>2022-09-27T14:44:04Z</time>
      </trkpt>
      <trkpt lat="46.19903" lon="6.12793">
        <ele>382.4</ele>
        <time>2022-09-27T14:44:05Z</time>
      </trkpt>
      <trkpt lat="46.19906" lon="6.12794">
        <ele>382.4</ele>
        <time>2022-09-27T14:44:06Z</time>
      </trkpt>
      <trkpt lat="46.19909" lon="6.12795">
        <ele>382.3</ele>
        <time>2022-09-27T14:44:07Z</time>
      </trkpt>
      <trkpt lat="46.1991" lon="6.12794">
        <ele>382.3</ele>
        <time>2022-09-27T14:44:08Z</time>
      </trkpt>
      <trkpt lat="46.19911" lon="6.12794">
        <ele>382.3</ele>
        <time>2022-09-27T14:44:09Z</time>
      </trkpt>
      <trkpt lat="46.19913" lon="6.12795">
        <ele>382.2</ele>
        <time>2022-09-27T14:44:10Z</time>
      </trkpt>
      <trkpt lat="46.19914" lon="6.12796">
        <ele>382.2</ele>
        <time>2022-09-27T14:44:11Z</time>
      </trkpt>
      <trkpt lat="46.19918" lon="6.12796">
        <ele>382.2</ele>
        <time>2022-09-27T14:44:12Z</time>
      </trkpt>
      <trkpt lat="46.19919" lon="6.12796">
        <ele>382.3</ele>
        <time>2022-09-27T14:44:13Z</time>
      </trkpt>
      <trkpt lat="46.19922" lon="6.12791">
        <ele>382.4</ele>
        <time>2022-09-27T14:44:14Z</time>
      </trkpt>
      <trkpt lat="46.19924" lon="6.12786">
        <ele>382.4</ele>
        <time>2022-09-27T14:44:15Z</time>
      </trkpt>
      <trkpt lat="46.19927" lon="6.12781">
        <ele>382.4</ele>
        <time>2022-09-27T14:44:16Z</time>
      </trkpt>
      <trkpt lat="46.19929" lon="6.12777">
        <ele>382.4</ele>
        <time>2022-09-27T14:44:17Z</time>
      </trkpt>
      <trkpt lat="46.19932" lon="6.12771">
        <ele>382.4</ele>
        <time>2022-09-27T14:44:18Z</time>
      </trkpt>
      <trkpt lat="46.19934" lon="6.12767">
        <ele>382.3</ele>
        <time>2022-09-27T14:44:19Z</time>
      </trkpt>
      <trkpt lat="46.19937" lon="6.12762">
        <ele>382.3</ele>
        <time>2022-09-27T14:44:20Z</time>
      </trkpt>
      <trkpt lat="46.1994" lon="6.12757">
        <ele>382.3</ele>
        <time>2022-09-27T14:44:21Z</time>
      </trkpt>
      <trkpt lat="46.19941" lon="6.12753">
        <ele>382.3</ele>
        <time>2022-09-27T14:44:22Z</time>
      </trkpt>
      <trkpt lat="46.19944" lon="6.12748">
        <ele>382.3</ele>
        <time>2022-09-27T14:44:23Z</time>
      </trkpt>
      <trkpt lat="46.19946" lon="6.12743">
        <ele>382.3</ele>
        <time>2022-09-27T14:44:24Z</time>
      </trkpt>
      <trkpt lat="46.19948" lon="6.12738">
        <ele>382.3</ele>
        <time>2022-09-27T14:44:25Z</time>
      </trkpt>
      <trkpt lat="46.19949" lon="6.12733">
        <ele>382.3</ele>
        <time>2022-09-27T14:44:26Z</time>
      </trkpt>
      <trkpt lat="46.19952" lon="6.12728">
        <ele>382.3</ele>
        <time>2022-09-27T14:44:27Z</time>
      </trkpt>
      <trkpt lat="46.19953" lon="6.12723">
        <ele>382.3</ele>
        <time>2022-09-27T14:44:28Z</time>
      </trkpt>
      <trkpt lat="46.19956" lon="6.12717">
        <ele>382.3</ele>
        <time>2022-09-27T14:44:29Z</time>
      </trkpt>
      <trkpt lat="46.19957" lon="6.12713">
        <ele>382.3</ele>
        <time>2022-09-27T14:44:30Z</time>
      </trkpt>
      <trkpt lat="46.1996" lon="6.12707">
        <ele>382.3</ele>
        <time>2022-09-27T14:44:31Z</time>
      </trkpt>
      <trkpt lat="46.19961" lon="6.12703">
        <ele>382.3</ele>
        <time>2022-09-27T14:44:32Z</time>
      </trkpt>
      <trkpt lat="46.19963" lon="6.12698">
        <ele>382.2</ele>
        <time>2022-09-27T14:44:33Z</time>
      </trkpt>
      <trkpt lat="46.19965" lon="6.12692">
        <ele>382.2</ele>
        <time>2022-09-27T14:44:34Z</time>
      </trkpt>
      <trkpt lat="46.19967" lon="6.12686">
        <ele>382.2</ele>
        <time>2022-09-27T14:44:35Z</time>
      </trkpt>
      <trkpt lat="46.19968" lon="6.12679">
        <ele>382.2</ele>
        <time>2022-09-27T14:44:36Z</time>
      </trkpt>
      <trkpt lat="46.19969" lon="6.12673">
        <ele>382.2</ele>
        <time>2022-09-27T14:44:37Z</time>
      </trkpt>
      <trkpt lat="46.19971" lon="6.12668">
        <ele>382.2</ele>
        <time>2022-09-27T14:44:38Z</time>
      </trkpt>
      <trkpt lat="46.19972" lon="6.12661">
        <ele>382.2</ele>
        <time>2022-09-27T14:44:39Z</time>
      </trkpt>
      <trkpt lat="46.19974" lon="6.12653">
        <ele>382.2</ele>
        <time>2022-09-27T14:44:40Z</time>
      </trkpt>
      <trkpt lat="46.19975" lon="6.12646">
        <ele>382.2</ele>
        <time>2022-09-27T14:44:41Z</time>
      </trkpt>
      <trkpt lat="46.19977" lon="6.1264">
        <ele>382.2</ele>
        <time>2022-09-27T14:44:42Z</time>
      </trkpt>
      <trkpt lat="46.19978" lon="6.12634">
        <ele>382.2</ele>
        <time>2022-09-27T14:44:43Z</time>
      </trkpt>
      <trkpt lat="46.19978" lon="6.12627">
        <ele>382.1</ele>
        <time>2022-09-27T14:44:44Z</time>
      </trkpt>
      <trkpt lat="46.19979" lon="6.1262">
        <ele>382.1</ele>
        <time>2022-09-27T14:44:45Z</time>
      </trkpt>
      <trkpt lat="46.19979" lon="6.12613">
        <ele>382.1</ele>
        <time>2022-09-27T14:44:46Z</time>
      </trkpt>
      <trkpt lat="46.19981" lon="6.12606">
        <ele>382</ele>
        <time>2022-09-27T14:44:47Z</time>
      </trkpt>
      <trkpt lat="46.19982" lon="6.12599">
        <ele>382</ele>
        <time>2022-09-27T14:44:48Z</time>
      </trkpt>
      <trkpt lat="46.19984" lon="6.12593">
        <ele>382</ele>
        <time>2022-09-27T14:44:49Z</time>
      </trkpt>
      <trkpt lat="46.19983" lon="6.12587">
        <ele>382</ele>
        <time>2022-09-27T14:44:50Z</time>
      </trkpt>
      <trkpt lat="46.19984" lon="6.12579">
        <ele>382</ele>
        <time>2022-09-27T14:44:51Z</time>
      </trkpt>
      <trkpt lat="46.19985" lon="6.12572">
        <ele>382</ele>
        <time>2022-09-27T14:44:52Z</time>
      </trkpt>
      <trkpt lat="46.19986" lon="6.12565">
        <ele>381.9</ele>
        <time>2022-09-27T14:44:53Z</time>
      </trkpt>
      <trkpt lat="46.19986" lon="6.12558">
        <ele>381.9</ele>
        <time>2022-09-27T14:44:54Z</time>
      </trkpt>
      <trkpt lat="46.19988" lon="6.1255">
        <ele>381.9</ele>
        <time>2022-09-27T14:44:55Z</time>
      </trkpt>
      <trkpt lat="46.1999" lon="6.12541">
        <ele>381.9</ele>
        <time>2022-09-27T14:44:56Z</time>
      </trkpt>
      <trkpt lat="46.19991" lon="6.12533">
        <ele>381.8</ele>
        <time>2022-09-27T14:44:57Z</time>
      </trkpt>
      <trkpt lat="46.19993" lon="6.12525">
        <ele>381.8</ele>
        <time>2022-09-27T14:44:58Z</time>
      </trkpt>
      <trkpt lat="46.19995" lon="6.12517">
        <ele>381.8</ele>
        <time>2022-09-27T14:44:59Z</time>
      </trkpt>
      <trkpt lat="46.19995" lon="6.1251">
        <ele>381.8</ele>
        <time>2022-09-27T14:45:00Z</time>
      </trkpt>
      <trkpt lat="46.19997" lon="6.12501">
        <ele>381.7</ele>
        <time>2022-09-27T14:45:01Z</time>
      </trkpt>
      <trkpt lat="46.19999" lon="6.12493">
        <ele>381.7</ele>
        <time>2022-09-27T14:45:02Z</time>
      </trkpt>
      <trkpt lat="46.19999" lon="6.12487">
        <ele>381.7</ele>
        <time>2022-09-27T14:45:03Z</time>
      </trkpt>
      <trkpt lat="46.2" lon="6.1248">
        <ele>381.7</ele>
        <time>2022-09-27T14:45:04Z</time>
      </trkpt>
      <trkpt lat="46.20002" lon="6.12473">
        <ele>381.6</ele>
        <time>2022-09-27T14:45:05Z</time>
      </trkpt>
      <trkpt lat="46.20002" lon="6.12466">
        <ele>381.6</ele>
        <time>2022-09-27T14:45:06Z</time>
      </trkpt>
      <trkpt lat="46.20002" lon="6.12457">
        <ele>381.6</ele>
        <time>2022-09-27T14:45:07Z</time>
      </trkpt>
      <trkpt lat="46.20003" lon="6.1245">
        <ele>381.5</ele>
        <time>2022-09-27T14:45:08Z</time>
      </trkpt>
      <trkpt lat="46.20005" lon="6.12443">
        <ele>381.5</ele>
        <time>2022-09-27T14:45:09Z</time>
      </trkpt>
      <trkpt lat="46.20006" lon="6.12435">
        <ele>381.4</ele>
        <time>2022-09-27T14:45:10Z</time>
      </trkpt>
      <trkpt lat="46.20008" lon="6.12428">
        <ele>381.4</ele>
        <time>2022-09-27T14:45:11Z</time>
      </trkpt>
      <trkpt lat="46.20009" lon="6.12422">
        <ele>381.4</ele>
        <time>2022-09-27T14:45:12Z</time>
      </trkpt>
      <trkpt lat="46.2001" lon="6.12415">
        <ele>381.4</ele>
        <time>2022-09-27T14:45:13Z</time>
      </trkpt>
      <trkpt lat="46.20011" lon="6.1241">
        <ele>381.4</ele>
        <time>2022-09-27T14:45:14Z</time>
      </trkpt>
      <trkpt lat="46.20011" lon="6.12404">
        <ele>381.3</ele>
        <time>2022-09-27T14:45:15Z</time>
      </trkpt>
      <trkpt lat="46.20012" lon="6.12397">
        <ele>381.3</ele>
        <time>2022-09-27T14:45:16Z</time>
      </trkpt>
      <trkpt lat="46.20013" lon="6.12391">
        <ele>381.3</ele>
        <time>2022-09-27T14:45:17Z</time>
      </trkpt>
      <trkpt lat="46.20013" lon="6.12384">
        <ele>381.3</ele>
        <time>2022-09-27T14:45:18Z</time>
      </trkpt>
      <trkpt lat="46.20013" lon="6.12378">
        <ele>381.3</ele>
        <time>2022-09-27T14:45:19Z</time>
      </trkpt>
      <trkpt lat="46.20015" lon="6.12369">
        <ele>381.3</ele>
        <time>2022-09-27T14:45:20Z</time>
      </trkpt>
      <trkpt lat="46.20015" lon="6.12363">
        <ele>381.3</ele>
        <time>2022-09-27T14:45:21Z</time>
      </trkpt>
      <trkpt lat="46.20015" lon="6.12357">
        <ele>381.3</ele>
        <time>2022-09-27T14:45:22Z</time>
      </trkpt>
      <trkpt lat="46.20017" lon="6.12349">
        <ele>381.3</ele>
        <time>2022-09-27T14:45:23Z</time>
      </trkpt>
      <trkpt lat="46.20018" lon="6.1234">
        <ele>381.2</ele>
        <time>2022-09-27T14:45:24Z</time>
      </trkpt>
      <trkpt lat="46.2002" lon="6.12333">
        <ele>381.2</ele>
        <time>2022-09-27T14:45:25Z</time>
      </trkpt>
      <trkpt lat="46.20021" lon="6.12324">
        <ele>381.2</ele>
        <time>2022-09-27T14:45:26Z</time>
      </trkpt>
      <trkpt lat="46.20023" lon="6.12316">
        <ele>381.2</ele>
        <time>2022-09-27T14:45:27Z</time>
      </trkpt>
      <trkpt lat="46.20026" lon="6.12309">
        <ele>381.2</ele>
        <time>2022-09-27T14:45:28Z</time>
      </trkpt>
      <trkpt lat="46.20028" lon="6.123">
        <ele>381.2</ele>
        <time>2022-09-27T14:45:29Z</time>
      </trkpt>
      <trkpt lat="46.20029" lon="6.12294">
        <ele>381.2</ele>
        <time>2022-09-27T14:45:30Z</time>
      </trkpt>
      <trkpt lat="46.2003" lon="6.12286">
        <ele>381.3</ele>
        <time>2022-09-27T14:45:31Z</time>
      </trkpt>
      <trkpt lat="46.2003" lon="6.1228">
        <ele>381.3</ele>
        <time>2022-09-27T14:45:32Z</time>
      </trkpt>
      <trkpt lat="46.2003" lon="6.12275">
        <ele>381.3</ele>
        <time>2022-09-27T14:45:33Z</time>
      </trkpt>
      <trkpt lat="46.2003" lon="6.12267">
        <ele>381.3</ele>
        <time>2022-09-27T14:45:34Z</time>
      </trkpt>
      <trkpt lat="46.20031" lon="6.1226">
        <ele>381.3</ele>
        <time>2022-09-27T14:45:35Z</time>
      </trkpt>
      <trkpt lat="46.20031" lon="6.12254">
        <ele>381.3</ele>
        <time>2022-09-27T14:45:36Z</time>
      </trkpt>
      <trkpt lat="46.20031" lon="6.12248">
        <ele>381.3</ele>
        <time>2022-09-27T14:45:37Z</time>
      </trkpt>
      <trkpt lat="46.2003" lon="6.12245">
        <ele>381.3</ele>
        <time>2022-09-27T14:45:38Z</time>
      </trkpt>
      <trkpt lat="46.2003" lon="6.12244">
        <ele>381.3</ele>
        <time>2022-09-27T14:45:39Z</time>
      </trkpt>
      <trkpt lat="46.20031" lon="6.12243">
        <ele>381.3</ele>
        <time>2022-09-27T14:45:40Z</time>
      </trkpt>
      <trkpt lat="46.20031" lon="6.12238">
        <ele>381.3</ele>
        <time>2022-09-27T14:45:41Z</time>
      </trkpt>
      <trkpt lat="46.20031" lon="6.12236">
        <ele>381.3</ele>
        <time>2022-09-27T14:45:42Z</time>
      </trkpt>
      <trkpt lat="46.20032" lon="6.12234">
        <ele>381.3</ele>
        <time>2022-09-27T14:45:43Z</time>
      </trkpt>
      <trkpt lat="46.20033" lon="6.12233">
        <ele>381.3</ele>
        <time>2022-09-27T14:45:44Z</time>
      </trkpt>
      <trkpt lat="46.20033" lon="6.12232">
        <ele>381.3</ele>
        <time>2022-09-27T14:45:45Z</time>
      </trkpt>
      <trkpt lat="46.20033" lon="6.12232">
        <ele>381.3</ele>
        <time>2022-09-27T14:45:46Z</time>
      </trkpt>
      <trkpt lat="46.20033" lon="6.12231">
        <ele>381.3</ele>
        <time>2022-09-27T14:45:47Z</time>
      </trkpt>
      <trkpt lat="46.20034" lon="6.12231">
        <ele>381.3</ele>
        <time>2022-09-27T14:45:48Z</time>
      </trkpt>
      <trkpt lat="46.20034" lon="6.12231">
        <ele>381.3</ele>
        <time>2022-09-27T14:45:49Z</time>
      </trkpt>
      <trkpt lat="46.20034" lon="6.12231">
        <ele>381.3</ele>
        <time>2022-09-27T14:45:50Z</time>
      </trkpt>
      <trkpt lat="46.20034" lon="6.12231">
        <ele>381.3</ele>
        <time>2022-09-27T14:45:51Z</time>
      </trkpt>
      <trkpt lat="46.20034" lon="6.1223">
        <ele>381.3</ele>
        <time>2022-09-27T14:45:52Z</time>
      </trkpt>
      <trkpt lat="46.20034" lon="6.1223">
        <ele>381.3</ele>
        <time>2022-09-27T14:45:53Z</time>
      </trkpt>
      <trkpt lat="46.20033" lon="6.1223">
        <ele>381.3</ele>
        <time>2022-09-27T14:45:54Z</time>
      </trkpt>
      <trkpt lat="46.20032" lon="6.12229">
        <ele>381.3</ele>
        <time>2022-09-27T14:45:55Z</time>
      </trkpt>
      <trkpt lat="46.2003" lon="6.1223">
        <ele>381.3</ele>
        <time>2022-09-27T14:46:15Z</time>
      </trkpt>
      <trkpt lat="46.2003" lon="6.12232">
        <ele>381.3</ele>
        <time>2022-09-27T14:46:16Z</time>
      </trkpt>
      <trkpt lat="46.2003" lon="6.12233">
        <ele>381.3</ele>
        <time>2022-09-27T14:46:17Z</time>
      </trkpt>
      <trkpt lat="46.20028" lon="6.12234">
        <ele>381.3</ele>
        <time>2022-09-27T14:46:18Z</time>
      </trkpt>
      <trkpt lat="46.20028" lon="6.12238">
        <ele>381.3</ele>
        <time>2022-09-27T14:46:19Z</time>
      </trkpt>
      <trkpt lat="46.20029" lon="6.12242">
        <ele>381.3</ele>
        <time>2022-09-27T14:46:20Z</time>
      </trkpt>
      <trkpt lat="46.20029" lon="6.12243">
        <ele>381.3</ele>
        <time>2022-09-27T14:46:21Z</time>
      </trkpt>
      <trkpt lat="46.20028" lon="6.12247">
        <ele>381.3</ele>
        <time>2022-09-27T14:46:22Z</time>
      </trkpt>
      <trkpt lat="46.20028" lon="6.12248">
        <ele>381.3</ele>
        <time>2022-09-27T14:46:23Z</time>
      </trkpt>
      <trkpt lat="46.20028" lon="6.1225">
        <ele>381.3</ele>
        <time>2022-09-27T14:46:24Z</time>
      </trkpt>
      <trkpt lat="46.20027" lon="6.12255">
        <ele>381.3</ele>
        <time>2022-09-27T14:46:25Z</time>
      </trkpt>
      <trkpt lat="46.20026" lon="6.12257">
        <ele>381.3</ele>
        <time>2022-09-27T14:46:26Z</time>
      </trkpt>
      <trkpt lat="46.20026" lon="6.12262">
        <ele>381.3</ele>
        <time>2022-09-27T14:46:27Z</time>
      </trkpt>
      <trkpt lat="46.20027" lon="6.12267">
        <ele>381.3</ele>
        <time>2022-09-27T14:46:28Z</time>
      </trkpt>
      <trkpt lat="46.20026" lon="6.12272">
        <ele>381.2</ele>
        <time>2022-09-27T14:46:29Z</time>
      </trkpt>
      <trkpt lat="46.20025" lon="6.12277">
        <ele>381.2</ele>
        <time>2022-09-27T14:46:30Z</time>
      </trkpt>
      <trkpt lat="46.20024" lon="6.12283">
        <ele>381.2</ele>
        <time>2022-09-27T14:46:31Z</time>
      </trkpt>
      <trkpt lat="46.20023" lon="6.12288">
        <ele>381.2</ele>
        <time>2022-09-27T14:46:32Z</time>
      </trkpt>
      <trkpt lat="46.20023" lon="6.12293">
        <ele>381.2</ele>
        <time>2022-09-27T14:46:33Z</time>
      </trkpt>
      <trkpt lat="46.20021" lon="6.12299">
        <ele>381.2</ele>
        <time>2022-09-27T14:46:34Z</time>
      </trkpt>
      <trkpt lat="46.2002" lon="6.12304">
        <ele>381.2</ele>
        <time>2022-09-27T14:46:35Z</time>
      </trkpt>
      <trkpt lat="46.2002" lon="6.12311">
        <ele>381.2</ele>
        <time>2022-09-27T14:46:36Z</time>
      </trkpt>
      <trkpt lat="46.20018" lon="6.12316">
        <ele>381.2</ele>
        <time>2022-09-27T14:46:37Z</time>
      </trkpt>
      <trkpt lat="46.20017" lon="6.12323">
        <ele>381.2</ele>
        <time>2022-09-27T14:46:38Z</time>
      </trkpt>
      <trkpt lat="46.20016" lon="6.12331">
        <ele>381.2</ele>
        <time>2022-09-27T14:46:39Z</time>
      </trkpt>
      <trkpt lat="46.20015" lon="6.12338">
        <ele>381.3</ele>
        <time>2022-09-27T14:46:40Z</time>
      </trkpt>
      <trkpt lat="46.20014" lon="6.12345">
        <ele>381.3</ele>
        <time>2022-09-27T14:46:41Z</time>
      </trkpt>
      <trkpt lat="46.20013" lon="6.12353">
        <ele>381.3</ele>
        <time>2022-09-27T14:46:42Z</time>
      </trkpt>
      <trkpt lat="46.20011" lon="6.12361">
        <ele>381.3</ele>
        <time>2022-09-27T14:46:43Z</time>
      </trkpt>
      <trkpt lat="46.2001" lon="6.12369">
        <ele>381.3</ele>
        <time>2022-09-27T14:46:44Z</time>
      </trkpt>
      <trkpt lat="46.20009" lon="6.12374">
        <ele>381.3</ele>
        <time>2022-09-27T14:46:45Z</time>
      </trkpt>
      <trkpt lat="46.2001" lon="6.12382">
        <ele>381.3</ele>
        <time>2022-09-27T14:46:46Z</time>
      </trkpt>
      <trkpt lat="46.20007" lon="6.1239">
        <ele>381.3</ele>
        <time>2022-09-27T14:46:47Z</time>
      </trkpt>
      <trkpt lat="46.20006" lon="6.12397">
        <ele>381.3</ele>
        <time>2022-09-27T14:46:48Z</time>
      </trkpt>
      <trkpt lat="46.20005" lon="6.12403">
        <ele>381.3</ele>
        <time>2022-09-27T14:46:49Z</time>
      </trkpt>
      <trkpt lat="46.20005" lon="6.12411">
        <ele>381.4</ele>
        <time>2022-09-27T14:46:50Z</time>
      </trkpt>
      <trkpt lat="46.20003" lon="6.12418">
        <ele>381.4</ele>
        <time>2022-09-27T14:46:51Z</time>
      </trkpt>
      <trkpt lat="46.20003" lon="6.12427">
        <ele>381.4</ele>
        <time>2022-09-27T14:46:52Z</time>
      </trkpt>
      <trkpt lat="46.2" lon="6.12433">
        <ele>381.4</ele>
        <time>2022-09-27T14:46:53Z</time>
      </trkpt>
      <trkpt lat="46.19999" lon="6.12441">
        <ele>381.5</ele>
        <time>2022-09-27T14:46:54Z</time>
      </trkpt>
      <trkpt lat="46.19999" lon="6.12449">
        <ele>381.5</ele>
        <time>2022-09-27T14:46:55Z</time>
      </trkpt>
      <trkpt lat="46.19997" lon="6.12456">
        <ele>381.6</ele>
        <time>2022-09-27T14:46:56Z</time>
      </trkpt>
      <trkpt lat="46.19997" lon="6.12464">
        <ele>381.6</ele>
        <time>2022-09-27T14:46:57Z</time>
      </trkpt>
      <trkpt lat="46.19997" lon="6.12471">
        <ele>381.6</ele>
        <time>2022-09-27T14:46:58Z</time>
      </trkpt>
      <trkpt lat="46.19996" lon="6.12479">
        <ele>381.7</ele>
        <time>2022-09-27T14:46:59Z</time>
      </trkpt>
      <trkpt lat="46.19996" lon="6.12487">
        <ele>381.7</ele>
        <time>2022-09-27T14:47:00Z</time>
      </trkpt>
      <trkpt lat="46.19994" lon="6.12494">
        <ele>381.7</ele>
        <time>2022-09-27T14:47:01Z</time>
      </trkpt>
      <trkpt lat="46.19993" lon="6.12501">
        <ele>381.7</ele>
        <time>2022-09-27T14:47:02Z</time>
      </trkpt>
      <trkpt lat="46.19993" lon="6.12509">
        <ele>381.8</ele>
        <time>2022-09-27T14:47:03Z</time>
      </trkpt>
      <trkpt lat="46.19991" lon="6.12515">
        <ele>381.8</ele>
        <time>2022-09-27T14:47:04Z</time>
      </trkpt>
      <trkpt lat="46.19991" lon="6.12522">
        <ele>381.8</ele>
        <time>2022-09-27T14:47:05Z</time>
      </trkpt>
      <trkpt lat="46.19992" lon="6.12528">
        <ele>381.8</ele>
        <time>2022-09-27T14:47:06Z</time>
      </trkpt>
      <trkpt lat="46.19992" lon="6.12535">
        <ele>381.8</ele>
        <time>2022-09-27T14:47:07Z</time>
      </trkpt>
      <trkpt lat="46.19992" lon="6.1254">
        <ele>381.9</ele>
        <time>2022-09-27T14:47:08Z</time>
      </trkpt>
      <trkpt lat="46.1999" lon="6.12546">
        <ele>381.9</ele>
        <time>2022-09-27T14:47:09Z</time>
      </trkpt>
      <trkpt lat="46.19991" lon="6.12552">
        <ele>381.9</ele>
        <time>2022-09-27T14:47:10Z</time>
      </trkpt>
      <trkpt lat="46.1999" lon="6.12556">
        <ele>381.9</ele>
        <time>2022-09-27T14:47:11Z</time>
      </trkpt>
      <trkpt lat="46.19989" lon="6.12562">
        <ele>381.9</ele>
        <time>2022-09-27T14:47:12Z</time>
      </trkpt>
      <trkpt lat="46.19987" lon="6.12567">
        <ele>382</ele>
        <time>2022-09-27T14:47:13Z</time>
      </trkpt>
      <trkpt lat="46.19987" lon="6.12574">
        <ele>382</ele>
        <time>2022-09-27T14:47:14Z</time>
      </trkpt>
      <trkpt lat="46.19986" lon="6.12581">
        <ele>382</ele>
        <time>2022-09-27T14:47:15Z</time>
      </trkpt>
      <trkpt lat="46.19985" lon="6.12587">
        <ele>382</ele>
        <time>2022-09-27T14:47:16Z</time>
      </trkpt>
      <trkpt lat="46.19985" lon="6.12594">
        <ele>382</ele>
        <time>2022-09-27T14:47:17Z</time>
      </trkpt>
      <trkpt lat="46.19984" lon="6.12599">
        <ele>382</ele>
        <time>2022-09-27T14:47:18Z</time>
      </trkpt>
      <trkpt lat="46.19983" lon="6.12605">
        <ele>382</ele>
        <time>2022-09-27T14:47:19Z</time>
      </trkpt>
      <trkpt lat="46.19982" lon="6.12611">
        <ele>382.1</ele>
        <time>2022-09-27T14:47:20Z</time>
      </trkpt>
      <trkpt lat="46.1998" lon="6.12617">
        <ele>382.1</ele>
        <time>2022-09-27T14:47:21Z</time>
      </trkpt>
      <trkpt lat="46.19979" lon="6.12624">
        <ele>382.1</ele>
        <time>2022-09-27T14:47:22Z</time>
      </trkpt>
      <trkpt lat="46.19979" lon="6.12629">
        <ele>382.1</ele>
        <time>2022-09-27T14:47:23Z</time>
      </trkpt>
      <trkpt lat="46.19977" lon="6.12636">
        <ele>382.2</ele>
        <time>2022-09-27T14:47:24Z</time>
      </trkpt>
      <trkpt lat="46.19976" lon="6.12643">
        <ele>382.2</ele>
        <time>2022-09-27T14:47:25Z</time>
      </trkpt>
      <trkpt lat="46.19975" lon="6.12649">
        <ele>382.2</ele>
        <time>2022-09-27T14:47:26Z</time>
      </trkpt>
      <trkpt lat="46.19973" lon="6.12656">
        <ele>382.2</ele>
        <time>2022-09-27T14:47:27Z</time>
      </trkpt>
      <trkpt lat="46.19972" lon="6.12662">
        <ele>382.2</ele>
        <time>2022-09-27T14:47:28Z</time>
      </trkpt>
      <trkpt lat="46.1997" lon="6.12669">
        <ele>382.2</ele>
        <time>2022-09-27T14:47:29Z</time>
      </trkpt>
      <trkpt lat="46.1997" lon="6.12674">
        <ele>382.2</ele>
        <time>2022-09-27T14:47:30Z</time>
      </trkpt>
      <trkpt lat="46.19968" lon="6.12681">
        <ele>382.2</ele>
        <time>2022-09-27T14:47:31Z</time>
      </trkpt>
      <trkpt lat="46.19965" lon="6.12688">
        <ele>382.2</ele>
        <time>2022-09-27T14:47:32Z</time>
      </trkpt>
      <trkpt lat="46.19962" lon="6.12692">
        <ele>382.2</ele>
        <time>2022-09-27T14:47:33Z</time>
      </trkpt>
      <trkpt lat="46.1996" lon="6.12699">
        <ele>382.2</ele>
        <time>2022-09-27T14:47:34Z</time>
      </trkpt>
      <trkpt lat="46.19958" lon="6.12705">
        <ele>382.3</ele>
        <time>2022-09-27T14:47:35Z</time>
      </trkpt>
      <trkpt lat="46.19955" lon="6.1271">
        <ele>382.3</ele>
        <time>2022-09-27T14:47:36Z</time>
      </trkpt>
      <trkpt lat="46.19952" lon="6.12715">
        <ele>382.3</ele>
        <time>2022-09-27T14:47:37Z</time>
      </trkpt>
      <trkpt lat="46.1995" lon="6.12721">
        <ele>382.3</ele>
        <time>2022-09-27T14:47:38Z</time>
      </trkpt>
      <trkpt lat="46.19947" lon="6.12727">
        <ele>382.3</ele>
        <time>2022-09-27T14:47:39Z</time>
      </trkpt>
      <trkpt lat="46.19945" lon="6.12732">
        <ele>382.3</ele>
        <time>2022-09-27T14:47:40Z</time>
      </trkpt>
      <trkpt lat="46.19942" lon="6.12738">
        <ele>382.3</ele>
        <time>2022-09-27T14:47:41Z</time>
      </trkpt>
      <trkpt lat="46.1994" lon="6.12742">
        <ele>382.3</ele>
        <time>2022-09-27T14:47:42Z</time>
      </trkpt>
      <trkpt lat="46.19937" lon="6.12748">
        <ele>382.3</ele>
        <time>2022-09-27T14:47:43Z</time>
      </trkpt>
      <trkpt lat="46.19934" lon="6.12752">
        <ele>382.3</ele>
        <time>2022-09-27T14:47:44Z</time>
      </trkpt>
      <trkpt lat="46.19931" lon="6.12756">
        <ele>382.3</ele>
        <time>2022-09-27T14:47:45Z</time>
      </trkpt>
      <trkpt lat="46.19929" lon="6.12759">
        <ele>382.3</ele>
        <time>2022-09-27T14:47:46Z</time>
      </trkpt>
      <trkpt lat="46.19927" lon="6.12763">
        <ele>382.3</ele>
        <time>2022-09-27T14:47:47Z</time>
      </trkpt>
      <trkpt lat="46.19924" lon="6.12768">
        <ele>382.4</ele>
        <time>2022-09-27T14:47:48Z</time>
      </trkpt>
      <trkpt lat="46.19923" lon="6.12772">
        <ele>382.4</ele>
        <time>2022-09-27T14:47:49Z</time>
      </trkpt>
      <trkpt lat="46.19922" lon="6.12777">
        <ele>382.4</ele>
        <time>2022-09-27T14:47:50Z</time>
      </trkpt>
      <trkpt lat="46.19921" lon="6.12778">
        <ele>382.4</ele>
        <time>2022-09-27T14:47:51Z</time>
      </trkpt>
      <trkpt lat="46.19921" lon="6.12781">
        <ele>382.4</ele>
        <time>2022-09-27T14:47:52Z</time>
      </trkpt>
      <trkpt lat="46.19921" lon="6.12783">
        <ele>382.4</ele>
        <time>2022-09-27T14:47:53Z</time>
      </trkpt>
      <trkpt lat="46.19921" lon="6.12784">
        <ele>382.4</ele>
        <time>2022-09-27T14:47:54Z</time>
      </trkpt>
      <trkpt lat="46.19922" lon="6.12785">
        <ele>382.4</ele>
        <time>2022-09-27T14:47:55Z</time>
      </trkpt>
      <trkpt lat="46.19922" lon="6.12786">
        <ele>382.4</ele>
        <time>2022-09-27T14:47:56Z</time>
      </trkpt>
      <trkpt lat="46.19922" lon="6.12787">
        <ele>382.3</ele>
        <time>2022-09-27T14:47:57Z</time>
      </trkpt>
      <trkpt lat="46.19922" lon="6.12788">
        <ele>382.3</ele>
        <time>2022-09-27T14:47:58Z</time>
      </trkpt>
      <trkpt lat="46.19923" lon="6.12793">
        <ele>382.1</ele>
        <time>2022-09-27T14:47:59Z</time>
      </trkpt>
      <trkpt lat="46.19923" lon="6.12794">
        <ele>382.1</ele>
        <time>2022-09-27T14:48:00Z</time>
      </trkpt>
      <trkpt lat="46.19925" lon="6.12796">
        <ele>381.9</ele>
        <time>2022-09-27T14:48:01Z</time>
      </trkpt>
      <trkpt lat="46.19926" lon="6.12797">
        <ele>381.9</ele>
        <time>2022-09-27T14:48:02Z</time>
      </trkpt>
      <trkpt lat="46.19926" lon="6.12799">
        <ele>381.9</ele>
        <time>2022-09-27T14:48:03Z</time>
      </trkpt>
      <trkpt lat="46.19929" lon="6.128">
        <ele>381.7</ele>
        <time>2022-09-27T14:48:04Z</time>
      </trkpt>
      <trkpt lat="46.1993" lon="6.12802">
        <ele>381.7</ele>
        <time>2022-09-27T14:48:05Z</time>
      </trkpt>
      <trkpt lat="46.19932" lon="6.12805">
        <ele>381.6</ele>
        <time>2022-09-27T14:48:06Z</time>
      </trkpt>
      <trkpt lat="46.19935" lon="6.12807">
        <ele>381.5</ele>
        <time>2022-09-27T14:48:07Z</time>
      </trkpt>
      <trkpt lat="46.19938" lon="6.12811">
        <ele>381.4</ele>
        <time>2022-09-27T14:48:08Z</time>
      </trkpt>
      <trkpt lat="46.1994" lon="6.12814">
        <ele>381.2</ele>
        <time>2022-09-27T14:48:09Z</time>
      </trkpt>
      <trkpt lat="46.19943" lon="6.12816">
        <ele>381.1</ele>
        <time>2022-09-27T14:48:10Z</time>
      </trkpt>
      <trkpt lat="46.19946" lon="6.1282">
        <ele>381</ele>
        <time>2022-09-27T14:48:11Z</time>
      </trkpt>
      <trkpt lat="46.19949" lon="6.12824">
        <ele>380.8</ele>
        <time>2022-09-27T14:48:12Z</time>
      </trkpt>
      <trkpt lat="46.19953" lon="6.12828">
        <ele>380.6</ele>
        <time>2022-09-27T14:48:13Z</time>
      </trkpt>
      <trkpt lat="46.19955" lon="6.12831">
        <ele>380.5</ele>
        <time>2022-09-27T14:48:14Z</time>
      </trkpt>
      <trkpt lat="46.19959" lon="6.12835">
        <ele>380.3</ele>
        <time>2022-09-27T14:48:15Z</time>
      </trkpt>
      <trkpt lat="46.19963" lon="6.12839">
        <ele>380.1</ele>
        <time>2022-09-27T14:48:16Z</time>
      </trkpt>
      <trkpt lat="46.19966" lon="6.12842">
        <ele>380</ele>
        <time>2022-09-27T14:48:17Z</time>
      </trkpt>
      <trkpt lat="46.1997" lon="6.12845">
        <ele>379.8</ele>
        <time>2022-09-27T14:48:18Z</time>
      </trkpt>
      <trkpt lat="46.19973" lon="6.12849">
        <ele>379.6</ele>
        <time>2022-09-27T14:48:19Z</time>
      </trkpt>
      <trkpt lat="46.19976" lon="6.12852">
        <ele>379.5</ele>
        <time>2022-09-27T14:48:20Z</time>
      </trkpt>
      <trkpt lat="46.19979" lon="6.12855">
        <ele>379.4</ele>
        <time>2022-09-27T14:48:21Z</time>
      </trkpt>
      <trkpt lat="46.19982" lon="6.12859">
        <ele>379.2</ele>
        <time>2022-09-27T14:48:22Z</time>
      </trkpt>
      <trkpt lat="46.19985" lon="6.12862">
        <ele>379.1</ele>
        <time>2022-09-27T14:48:23Z</time>
      </trkpt>
      <trkpt lat="46.19988" lon="6.12864">
        <ele>379</ele>
        <time>2022-09-27T14:48:24Z</time>
      </trkpt>
      <trkpt lat="46.1999" lon="6.12868">
        <ele>378.8</ele>
        <time>2022-09-27T14:48:25Z</time>
      </trkpt>
      <trkpt lat="46.19991" lon="6.12869">
        <ele>378.8</ele>
        <time>2022-09-27T14:48:26Z</time>
      </trkpt>
      <trkpt lat="46.19993" lon="6.12871">
        <ele>378.6</ele>
        <time>2022-09-27T14:48:27Z</time>
      </trkpt>
      <trkpt lat="46.19996" lon="6.12872">
        <ele>378.6</ele>
        <time>2022-09-27T14:48:28Z</time>
      </trkpt>
      <trkpt lat="46.19997" lon="6.12873">
        <ele>378.6</ele>
        <time>2022-09-27T14:48:29Z</time>
      </trkpt>
      <trkpt lat="46.19999" lon="6.12876">
        <ele>378.6</ele>
        <time>2022-09-27T14:48:30Z</time>
      </trkpt>
      <trkpt lat="46.20002" lon="6.12879">
        <ele>378.7</ele>
        <time>2022-09-27T14:48:31Z</time>
      </trkpt>
      <trkpt lat="46.20003" lon="6.1288">
        <ele>378.7</ele>
        <time>2022-09-27T14:48:32Z</time>
      </trkpt>
      <trkpt lat="46.20005" lon="6.12882">
        <ele>378.7</ele>
        <time>2022-09-27T14:48:33Z</time>
      </trkpt>
      <trkpt lat="46.20007" lon="6.12885">
        <ele>378.7</ele>
        <time>2022-09-27T14:48:34Z</time>
      </trkpt>
      <trkpt lat="46.20008" lon="6.12886">
        <ele>378.7</ele>
        <time>2022-09-27T14:48:35Z</time>
      </trkpt>
      <trkpt lat="46.20009" lon="6.12888">
        <ele>378.8</ele>
        <time>2022-09-27T14:48:36Z</time>
      </trkpt>
      <trkpt lat="46.20009" lon="6.12888">
        <ele>378.8</ele>
        <time>2022-09-27T14:48:37Z</time>
      </trkpt>
      <trkpt lat="46.20009" lon="6.12887">
        <ele>378.8</ele>
        <time>2022-09-27T14:48:38Z</time>
      </trkpt>
      <trkpt lat="46.20009" lon="6.12888">
        <ele>378.8</ele>
        <time>2022-09-27T14:48:39Z</time>
      </trkpt>
      <trkpt lat="46.20009" lon="6.12888">
        <ele>378.8</ele>
        <time>2022-09-27T14:48:40Z</time>
      </trkpt>
      <trkpt lat="46.20009" lon="6.12888">
        <ele>378.8</ele>
        <time>2022-09-27T14:48:41Z</time>
      </trkpt>
      <trkpt lat="46.20009" lon="6.12888">
        <ele>378.8</ele>
        <time>2022-09-27T14:48:42Z</time>
      </trkpt>
      <trkpt lat="46.20009" lon="6.12888">
        <ele>378.8</ele>
        <time>2022-09-27T14:48:43Z</time>
      </trkpt>
      <trkpt lat="46.20009" lon="6.12888">
        <ele>378.8</ele>
        <time>2022-09-27T14:48:44Z</time>
      </trkpt>
      <trkpt lat="46.20009" lon="6.12888">
        <ele>378.8</ele>
        <time>2022-09-27T14:48:45Z</time>
      </trkpt>
      <trkpt lat="46.20009" lon="6.12888">
        <ele>378.8</ele>
        <time>2022-09-27T14:48:46Z</time>
      </trkpt>
      <trkpt lat="46.20009" lon="6.12888">
        <ele>378.8</ele>
        <time>2022-09-27T14:48:47Z</time>
      </trkpt>
      <trkpt lat="46.2001" lon="6.12901">
        <ele>378.8</ele>
        <time>2022-09-27T14:49:20Z</time>
      </trkpt>
      <trkpt lat="46.20009" lon="6.12902">
        <ele>378.9</ele>
        <time>2022-09-27T14:49:21Z</time>
      </trkpt>
      <trkpt lat="46.20009" lon="6.12902">
        <ele>378.9</ele>
        <time>2022-09-27T14:49:22Z</time>
      </trkpt>
      <trkpt lat="46.20008" lon="6.12902">
        <ele>378.9</ele>
        <time>2022-09-27T14:49:23Z</time>
      </trkpt>
      <trkpt lat="46.20008" lon="6.129">
        <ele>378.9</ele>
        <time>2022-09-27T14:49:24Z</time>
      </trkpt>
      <trkpt lat="46.20006" lon="6.12899">
        <ele>379</ele>
        <time>2022-09-27T14:49:25Z</time>
      </trkpt>
      <trkpt lat="46.20006" lon="6.12902">
        <ele>379</ele>
        <time>2022-09-27T14:49:26Z</time>
      </trkpt>
      <trkpt lat="46.20005" lon="6.12903">
        <ele>379.1</ele>
        <time>2022-09-27T14:49:27Z</time>
      </trkpt>
      <trkpt lat="46.20004" lon="6.12905">
        <ele>379.1</ele>
        <time>2022-09-27T14:49:28Z</time>
      </trkpt>
      <trkpt lat="46.20003" lon="6.12908">
        <ele>379.2</ele>
        <time>2022-09-27T14:49:29Z</time>
      </trkpt>
      <trkpt lat="46.20002" lon="6.12909">
        <ele>379.2</ele>
        <time>2022-09-27T14:49:30Z</time>
      </trkpt>
      <trkpt lat="46.20001" lon="6.1291">
        <ele>379.2</ele>
        <time>2022-09-27T14:49:31Z</time>
      </trkpt>
      <trkpt lat="46.20001" lon="6.12912">
        <ele>379.2</ele>
        <time>2022-09-27T14:49:32Z</time>
      </trkpt>
      <trkpt lat="46.20001" lon="6.12912">
        <ele>379.2</ele>
        <time>2022-09-27T14:49:33Z</time>
      </trkpt>
      <trkpt lat="46.20001" lon="6.12912">
        <ele>379.2</ele>
        <time>2022-09-27T14:49:34Z</time>
      </trkpt>
      <trkpt lat="46.19999" lon="6.12913">
        <ele>379.2</ele>
        <time>2022-09-27T14:49:35Z</time>
      </trkpt>
      <trkpt lat="46.2" lon="6.12912">
        <ele>379.2</ele>
        <time>2022-09-27T14:49:36Z</time>
      </trkpt>
      <trkpt lat="46.2" lon="6.12913">
        <ele>379.2</ele>
        <time>2022-09-27T14:49:37Z</time>
      </trkpt>
      <trkpt lat="46.20001" lon="6.12914">
        <ele>379.2</ele>
        <time>2022-09-27T14:49:38Z</time>
      </trkpt>
      <trkpt lat="46.20001" lon="6.12915">
        <ele>379.1</ele>
        <time>2022-09-27T14:49:39Z</time>
      </trkpt>
      <trkpt lat="46.20002" lon="6.12917">
        <ele>379.1</ele>
        <time>2022-09-27T14:49:40Z</time>
      </trkpt>
      <trkpt lat="46.20003" lon="6.12918">
        <ele>379.1</ele>
        <time>2022-09-27T14:49:41Z</time>
      </trkpt>
      <trkpt lat="46.20005" lon="6.12919">
        <ele>379.1</ele>
        <time>2022-09-27T14:49:42Z</time>
      </trkpt>
      <trkpt lat="46.20006" lon="6.1292">
        <ele>379.1</ele>
        <time>2022-09-27T14:49:43Z</time>
      </trkpt>
      <trkpt lat="46.20006" lon="6.12921">
        <ele>379.1</ele>
        <time>2022-09-27T14:49:44Z</time>
      </trkpt>
      <trkpt lat="46.20008" lon="6.12923">
        <ele>379.1</ele>
        <time>2022-09-27T14:49:45Z</time>
      </trkpt>
      <trkpt lat="46.20009" lon="6.12925">
        <ele>379.1</ele>
        <time>2022-09-27T14:49:46Z</time>
      </trkpt>
      <trkpt lat="46.20009" lon="6.12926">
        <ele>379.1</ele>
        <time>2022-09-27T14:49:47Z</time>
      </trkpt>
      <trkpt lat="46.2001" lon="6.12928">
        <ele>379.1</ele>
        <time>2022-09-27T14:49:48Z</time>
      </trkpt>
      <trkpt lat="46.20011" lon="6.1293">
        <ele>379.1</ele>
        <time>2022-09-27T14:49:49Z</time>
      </trkpt>
      <trkpt lat="46.20012" lon="6.12931">
        <ele>379</ele>
        <time>2022-09-27T14:49:50Z</time>
      </trkpt>
      <trkpt lat="46.20014" lon="6.12933">
        <ele>379</ele>
        <time>2022-09-27T14:49:51Z</time>
      </trkpt>
      <trkpt lat="46.20016" lon="6.12936">
        <ele>379</ele>
        <time>2022-09-27T14:49:52Z</time>
      </trkpt>
      <trkpt lat="46.20016" lon="6.12936">
        <ele>379</ele>
        <time>2022-09-27T14:49:53Z</time>
      </trkpt>
      <trkpt lat="46.20017" lon="6.12937">
        <ele>379</ele>
        <time>2022-09-27T14:49:54Z</time>
      </trkpt>
      <trkpt lat="46.20019" lon="6.1294">
        <ele>379</ele>
        <time>2022-09-27T14:49:55Z</time>
      </trkpt>
      <trkpt lat="46.20019" lon="6.12941">
        <ele>379</ele>
        <time>2022-09-27T14:49:56Z</time>
      </trkpt>
      <trkpt lat="46.2002" lon="6.12942">
        <ele>379</ele>
        <time>2022-09-27T14:49:57Z</time>
      </trkpt>
      <trkpt lat="46.2002" lon="6.12943">
        <ele>379</ele>
        <time>2022-09-27T14:49:58Z</time>
      </trkpt>
      <trkpt lat="46.20021" lon="6.12944">
        <ele>379</ele>
        <time>2022-09-27T14:49:59Z</time>
      </trkpt>
      <trkpt lat="46.20022" lon="6.12945">
        <ele>379</ele>
        <time>2022-09-27T14:50:00Z</time>
      </trkpt>
      <trkpt lat="46.20022" lon="6.12946">
        <ele>379</ele>
        <time>2022-09-27T14:50:01Z</time>
      </trkpt>
      <trkpt lat="46.20023" lon="6.12947">
        <ele>379</ele>
        <time>2022-09-27T14:50:02Z</time>
      </trkpt>
      <trkpt lat="46.20024" lon="6.12947">
        <ele>379</ele>
        <time>2022-09-27T14:50:03Z</time>
      </trkpt>
      <trkpt lat="46.20025" lon="6.12949">
        <ele>379</ele>
        <time>2022-09-27T14:50:04Z</time>
      </trkpt>
      <trkpt lat="46.20026" lon="6.1295">
        <ele>379</ele>
        <time>2022-09-27T14:50:05Z</time>
      </trkpt>
      <trkpt lat="46.20027" lon="6.12951">
        <ele>379</ele>
        <time>2022-09-27T14:50:06Z</time>
      </trkpt>
      <trkpt lat="46.20027" lon="6.12952">
        <ele>379</ele>
        <time>2022-09-27T14:50:07Z</time>
      </trkpt>
      <trkpt lat="46.20028" lon="6.12954">
        <ele>379</ele>
        <time>2022-09-27T14:50:08Z</time>
      </trkpt>
      <trkpt lat="46.20029" lon="6.12955">
        <ele>379</ele>
        <time>2022-09-27T14:50:09Z</time>
      </trkpt>
      <trkpt lat="46.20031" lon="6.12957">
        <ele>379</ele>
        <time>2022-09-27T14:50:10Z</time>
      </trkpt>
      <trkpt lat="46.20031" lon="6.12958">
        <ele>378.9</ele>
        <time>2022-09-27T14:50:11Z</time>
      </trkpt>
      <trkpt lat="46.20032" lon="6.12959">
        <ele>378.9</ele>
        <time>2022-09-27T14:50:12Z</time>
      </trkpt>
      <trkpt lat="46.20033" lon="6.12961">
        <ele>378.9</ele>
        <time>2022-09-27T14:50:13Z</time>
      </trkpt>
      <trkpt lat="46.20034" lon="6.12964">
        <ele>378.9</ele>
        <time>2022-09-27T14:50:14Z</time>
      </trkpt>
      <trkpt lat="46.20035" lon="6.12966">
        <ele>378.9</ele>
        <time>2022-09-27T14:50:15Z</time>
      </trkpt>
      <trkpt lat="46.20036" lon="6.12968">
        <ele>378.9</ele>
        <time>2022-09-27T14:50:16Z</time>
      </trkpt>
      <trkpt lat="46.20036" lon="6.12969">
        <ele>378.9</ele>
        <time>2022-09-27T14:50:17Z</time>
      </trkpt>
      <trkpt lat="46.20036" lon="6.12969">
        <ele>378.9</ele>
        <time>2022-09-27T14:50:18Z</time>
      </trkpt>
      <trkpt lat="46.20036" lon="6.12969">
        <ele>378.9</ele>
        <time>2022-09-27T14:50:19Z</time>
      </trkpt>
      <trkpt lat="46.20037" lon="6.12969">
        <ele>378.9</ele>
        <time>2022-09-27T14:50:20Z</time>
      </trkpt>
      <trkpt lat="46.20037" lon="6.1297">
        <ele>378.9</ele>
        <time>2022-09-27T14:50:21Z</time>
      </trkpt>
      <trkpt lat="46.20037" lon="6.12972">
        <ele>378.9</ele>
        <time>2022-09-27T14:50:22Z</time>
      </trkpt>
      <trkpt lat="46.20037" lon="6.12972">
        <ele>378.9</ele>
        <time>2022-09-27T14:50:23Z</time>
      </trkpt>
      <trkpt lat="46.20038" lon="6.12972">
        <ele>378.9</ele>
        <time>2022-09-27T14:50:24Z</time>
      </trkpt>
      <trkpt lat="46.20038" lon="6.12973">
        <ele>378.9</ele>
        <time>2022-09-27T14:50:25Z</time>
      </trkpt>
      <trkpt lat="46.20041" lon="6.12973">
        <ele>378.9</ele>
        <time>2022-09-27T14:50:26Z</time>
      </trkpt>
      <trkpt lat="46.20043" lon="6.12972">
        <ele>378.9</ele>
        <time>2022-09-27T14:50:27Z</time>
      </trkpt>
      <trkpt lat="46.21118" lon="6.15284">
        <ele>378.1</ele>
        <time>2022-09-28T06:49:56Z</time>
      </trkpt>
      <trkpt lat="46.21118" lon="6.15284">
        <ele>378.1</ele>
        <time>2022-09-28T06:49:57Z</time>
      </trkpt>
      <trkpt lat="46.21118" lon="6.15285">
        <ele>378.1</ele>
        <time>2022-09-28T06:49:58Z</time>
      </trkpt>
      <trkpt lat="46.21118" lon="6.15285">
        <ele>378.1</ele>
        <time>2022-09-28T06:49:59Z</time>
      </trkpt>
      <trkpt lat="46.21118" lon="6.15285">
        <ele>378.1</ele>
        <time>2022-09-28T06:50:00Z</time>
      </trkpt>
      <trkpt lat="46.21117" lon="6.15285">
        <ele>378.1</ele>
        <time>2022-09-28T06:50:01Z</time>
      </trkpt>
      <trkpt lat="46.21117" lon="6.15285">
        <ele>378.1</ele>
        <time>2022-09-28T06:50:02Z</time>
      </trkpt>
      <trkpt lat="46.21117" lon="6.15286">
        <ele>378.1</ele>
        <time>2022-09-28T06:50:03Z</time>
      </trkpt>
      <trkpt lat="46.21116" lon="6.15286">
        <ele>378.1</ele>
        <time>2022-09-28T06:50:04Z</time>
      </trkpt>
      <trkpt lat="46.21116" lon="6.15286">
        <ele>378.1</ele>
        <time>2022-09-28T06:50:05Z</time>
      </trkpt>
      <trkpt lat="46.21116" lon="6.15286">
        <ele>378.1</ele>
        <time>2022-09-28T06:50:16Z</time>
      </trkpt>
      <trkpt lat="46.21116" lon="6.15286">
        <ele>378.1</ele>
        <time>2022-09-28T06:50:17Z</time>
      </trkpt>
      <trkpt lat="46.21115" lon="6.15287">
        <ele>378.1</ele>
        <time>2022-09-28T06:50:18Z</time>
      </trkpt>
      <trkpt lat="46.21115" lon="6.15287">
        <ele>378.1</ele>
        <time>2022-09-28T06:50:19Z</time>
      </trkpt>
      <trkpt lat="46.21115" lon="6.15287">
        <ele>378.1</ele>
        <time>2022-09-28T06:50:20Z</time>
      </trkpt>
      <trkpt lat="46.21114" lon="6.15287">
        <ele>378.1</ele>
        <time>2022-09-28T06:50:21Z</time>
      </trkpt>
      <trkpt lat="46.21114" lon="6.15287">
        <ele>378.1</ele>
        <time>2022-09-28T06:50:22Z</time>
      </trkpt>
      <trkpt lat="46.21114" lon="6.15287">
        <ele>378.1</ele>
        <time>2022-09-28T06:50:23Z</time>
      </trkpt>
      <trkpt lat="46.21114" lon="6.15285">
        <ele>378.1</ele>
        <time>2022-09-28T06:50:24Z</time>
      </trkpt>
      <trkpt lat="46.21115" lon="6.15284">
        <ele>378.1</ele>
        <time>2022-09-28T06:50:25Z</time>
      </trkpt>
      <trkpt lat="46.21114" lon="6.15283">
        <ele>378.1</ele>
        <time>2022-09-28T06:50:26Z</time>
      </trkpt>
      <trkpt lat="46.21112" lon="6.15278">
        <ele>378.1</ele>
        <time>2022-09-28T06:50:28Z</time>
      </trkpt>
      <trkpt lat="46.21112" lon="6.15276">
        <ele>378.1</ele>
        <time>2022-09-28T06:50:29Z</time>
      </trkpt>
      <trkpt lat="46.21112" lon="6.15274">
        <ele>378.1</ele>
        <time>2022-09-28T06:50:30Z</time>
      </trkpt>
      <trkpt lat="46.21114" lon="6.15271">
        <ele>378.1</ele>
        <time>2022-09-28T06:50:31Z</time>
      </trkpt>
      <trkpt lat="46.21115" lon="6.1527">
        <ele>378.1</ele>
        <time>2022-09-28T06:50:32Z</time>
      </trkpt>
      <trkpt lat="46.21118" lon="6.1527">
        <ele>378.1</ele>
        <time>2022-09-28T06:50:33Z</time>
      </trkpt>
      <trkpt lat="46.21119" lon="6.15269">
        <ele>378.1</ele>
        <time>2022-09-28T06:50:34Z</time>
      </trkpt>
      <trkpt lat="46.21123" lon="6.1527">
        <ele>378.1</ele>
        <time>2022-09-28T06:50:35Z</time>
      </trkpt>
      <trkpt lat="46.21124" lon="6.1527">
        <ele>378.1</ele>
        <time>2022-09-28T06:50:36Z</time>
      </trkpt>
      <trkpt lat="46.21128" lon="6.15271">
        <ele>378.1</ele>
        <time>2022-09-28T06:50:37Z</time>
      </trkpt>
      <trkpt lat="46.21129" lon="6.1527">
        <ele>378.1</ele>
        <time>2022-09-28T06:50:38Z</time>
      </trkpt>
      <trkpt lat="46.21132" lon="6.15268">
        <ele>378.1</ele>
        <time>2022-09-28T06:50:39Z</time>
      </trkpt>
      <trkpt lat="46.21135" lon="6.15268">
        <ele>378.1</ele>
        <time>2022-09-28T06:50:40Z</time>
      </trkpt>
      <trkpt lat="46.21138" lon="6.15273">
        <ele>378.1</ele>
        <time>2022-09-28T06:50:41Z</time>
      </trkpt>
      <trkpt lat="46.21141" lon="6.15275">
        <ele>378.1</ele>
        <time>2022-09-28T06:50:42Z</time>
      </trkpt>
      <trkpt lat="46.21143" lon="6.15278">
        <ele>378.1</ele>
        <time>2022-09-28T06:50:43Z</time>
      </trkpt>
      <trkpt lat="46.21147" lon="6.1528">
        <ele>378</ele>
        <time>2022-09-28T06:50:44Z</time>
      </trkpt>
      <trkpt lat="46.2115" lon="6.15281">
        <ele>378</ele>
        <time>2022-09-28T06:50:45Z</time>
      </trkpt>
      <trkpt lat="46.21154" lon="6.15283">
        <ele>378</ele>
        <time>2022-09-28T06:50:46Z</time>
      </trkpt>
      <trkpt lat="46.21158" lon="6.15283">
        <ele>378</ele>
        <time>2022-09-28T06:50:47Z</time>
      </trkpt>
      <trkpt lat="46.21163" lon="6.15283">
        <ele>378</ele>
        <time>2022-09-28T06:50:48Z</time>
      </trkpt>
      <trkpt lat="46.21166" lon="6.15283">
        <ele>377.9</ele>
        <time>2022-09-28T06:50:49Z</time>
      </trkpt>
      <trkpt lat="46.2117" lon="6.15283">
        <ele>377.9</ele>
        <time>2022-09-28T06:50:50Z</time>
      </trkpt>
      <trkpt lat="46.21173" lon="6.15282">
        <ele>377.9</ele>
        <time>2022-09-28T06:50:51Z</time>
      </trkpt>
      <trkpt lat="46.21177" lon="6.1528">
        <ele>377.8</ele>
        <time>2022-09-28T06:50:52Z</time>
      </trkpt>
      <trkpt lat="46.21181" lon="6.15279">
        <ele>377.8</ele>
        <time>2022-09-28T06:50:53Z</time>
      </trkpt>
      <trkpt lat="46.21186" lon="6.15278">
        <ele>377.7</ele>
        <time>2022-09-28T06:50:54Z</time>
      </trkpt>
      <trkpt lat="46.2119" lon="6.15277">
        <ele>377.7</ele>
        <time>2022-09-28T06:50:55Z</time>
      </trkpt>
      <trkpt lat="46.212" lon="6.15276">
        <ele>377.6</ele>
        <time>2022-09-28T06:50:56Z</time>
      </trkpt>
      <trkpt lat="46.21206" lon="6.15276">
        <ele>377.6</ele>
        <time>2022-09-28T06:50:57Z</time>
      </trkpt>
      <trkpt lat="46.21211" lon="6.15275">
        <ele>377.5</ele>
        <time>2022-09-28T06:50:58Z</time>
      </trkpt>
      <trkpt lat="46.21217" lon="6.15274">
        <ele>377.5</ele>
        <time>2022-09-28T06:50:59Z</time>
      </trkpt>
      <trkpt lat="46.21222" lon="6.15272">
        <ele>377.5</ele>
        <time>2022-09-28T06:51:00Z</time>
      </trkpt>
      <trkpt lat="46.21228" lon="6.15271">
        <ele>377.5</ele>
        <time>2022-09-28T06:51:01Z</time>
      </trkpt>
      <trkpt lat="46.21233" lon="6.1527">
        <ele>377.4</ele>
        <time>2022-09-28T06:51:02Z</time>
      </trkpt>
      <trkpt lat="46.21238" lon="6.15269">
        <ele>377.5</ele>
        <time>2022-09-28T06:51:03Z</time>
      </trkpt>
      <trkpt lat="46.21243" lon="6.15268">
        <ele>377.5</ele>
        <time>2022-09-28T06:51:04Z</time>
      </trkpt>
      <trkpt lat="46.21249" lon="6.15266">
        <ele>377.5</ele>
        <time>2022-09-28T06:51:05Z</time>
      </trkpt>
      <trkpt lat="46.21254" lon="6.15265">
        <ele>377.5</ele>
        <time>2022-09-28T06:51:06Z</time>
      </trkpt>
      <trkpt lat="46.2126" lon="6.15264">
        <ele>377.5</ele>
        <time>2022-09-28T06:51:07Z</time>
      </trkpt>
      <trkpt lat="46.21265" lon="6.15262">
        <ele>377.5</ele>
        <time>2022-09-28T06:51:08Z</time>
      </trkpt>
      <trkpt lat="46.21271" lon="6.15261">
        <ele>377.5</ele>
        <time>2022-09-28T06:51:09Z</time>
      </trkpt>
      <trkpt lat="46.21277" lon="6.1526">
        <ele>377.5</ele>
        <time>2022-09-28T06:51:10Z</time>
      </trkpt>
      <trkpt lat="46.21281" lon="6.15258">
        <ele>377.5</ele>
        <time>2022-09-28T06:51:11Z</time>
      </trkpt>
      <trkpt lat="46.21287" lon="6.15255">
        <ele>377.4</ele>
        <time>2022-09-28T06:51:12Z</time>
      </trkpt>
      <trkpt lat="46.21293" lon="6.15254">
        <ele>377.4</ele>
        <time>2022-09-28T06:51:13Z</time>
      </trkpt>
      <trkpt lat="46.21298" lon="6.15253">
        <ele>377.4</ele>
        <time>2022-09-28T06:51:14Z</time>
      </trkpt>
      <trkpt lat="46.21303" lon="6.15251">
        <ele>377.4</ele>
        <time>2022-09-28T06:51:15Z</time>
      </trkpt>
      <trkpt lat="46.21309" lon="6.1525">
        <ele>377.4</ele>
        <time>2022-09-28T06:51:16Z</time>
      </trkpt>
      <trkpt lat="46.21314" lon="6.15247">
        <ele>377.4</ele>
        <time>2022-09-28T06:51:17Z</time>
      </trkpt>
      <trkpt lat="46.2132" lon="6.15246">
        <ele>377.4</ele>
        <time>2022-09-28T06:51:18Z</time>
      </trkpt>
      <trkpt lat="46.21325" lon="6.15244">
        <ele>377.4</ele>
        <time>2022-09-28T06:51:19Z</time>
      </trkpt>
      <trkpt lat="46.21331" lon="6.15242">
        <ele>377.4</ele>
        <time>2022-09-28T06:51:20Z</time>
      </trkpt>
      <trkpt lat="46.21336" lon="6.15241">
        <ele>377.4</ele>
        <time>2022-09-28T06:51:21Z</time>
      </trkpt>
      <trkpt lat="46.21342" lon="6.15241">
        <ele>377.4</ele>
        <time>2022-09-28T06:51:22Z</time>
      </trkpt>
      <trkpt lat="46.21347" lon="6.1524">
        <ele>377.4</ele>
        <time>2022-09-28T06:51:23Z</time>
      </trkpt>
      <trkpt lat="46.21353" lon="6.15238">
        <ele>377.4</ele>
        <time>2022-09-28T06:51:24Z</time>
      </trkpt>
      <trkpt lat="46.21358" lon="6.15236">
        <ele>377.4</ele>
        <time>2022-09-28T06:51:25Z</time>
      </trkpt>
      <trkpt lat="46.21364" lon="6.15235">
        <ele>377.5</ele>
        <time>2022-09-28T06:51:26Z</time>
      </trkpt>
      <trkpt lat="46.21369" lon="6.15234">
        <ele>377.5</ele>
        <time>2022-09-28T06:51:27Z</time>
      </trkpt>
      <trkpt lat="46.21375" lon="6.15232">
        <ele>377.5</ele>
        <time>2022-09-28T06:51:28Z</time>
      </trkpt>
      <trkpt lat="46.2138" lon="6.1523">
        <ele>377.5</ele>
        <time>2022-09-28T06:51:29Z</time>
      </trkpt>
      <trkpt lat="46.21385" lon="6.15229">
        <ele>377.5</ele>
        <time>2022-09-28T06:51:30Z</time>
      </trkpt>
      <trkpt lat="46.21392" lon="6.15228">
        <ele>377.6</ele>
        <time>2022-09-28T06:51:31Z</time>
      </trkpt>
      <trkpt lat="46.21397" lon="6.15228">
        <ele>377.6</ele>
        <time>2022-09-28T06:51:32Z</time>
      </trkpt>
      <trkpt lat="46.21403" lon="6.15226">
        <ele>377.6</ele>
        <time>2022-09-28T06:51:33Z</time>
      </trkpt>
      <trkpt lat="46.21408" lon="6.15223">
        <ele>377.7</ele>
        <time>2022-09-28T06:51:34Z</time>
      </trkpt>
      <trkpt lat="46.21414" lon="6.15221">
        <ele>377.7</ele>
        <time>2022-09-28T06:51:35Z</time>
      </trkpt>
      <trkpt lat="46.21419" lon="6.1522">
        <ele>377.7</ele>
        <time>2022-09-28T06:51:36Z</time>
      </trkpt>
      <trkpt lat="46.21423" lon="6.15218">
        <ele>377.7</ele>
        <time>2022-09-28T06:51:37Z</time>
      </trkpt>
      <trkpt lat="46.21429" lon="6.15216">
        <ele>377.7</ele>
        <time>2022-09-28T06:51:38Z</time>
      </trkpt>
      <trkpt lat="46.21436" lon="6.15214">
        <ele>377.7</ele>
        <time>2022-09-28T06:51:39Z</time>
      </trkpt>
      <trkpt lat="46.21442" lon="6.15213">
        <ele>377.6</ele>
        <time>2022-09-28T06:51:40Z</time>
      </trkpt>
      <trkpt lat="46.21448" lon="6.15212">
        <ele>377.6</ele>
        <time>2022-09-28T06:51:41Z</time>
      </trkpt>
      <trkpt lat="46.21455" lon="6.1521">
        <ele>377.6</ele>
        <time>2022-09-28T06:51:42Z</time>
      </trkpt>
      <trkpt lat="46.21459" lon="6.15207">
        <ele>377.6</ele>
        <time>2022-09-28T06:51:43Z</time>
      </trkpt>
      <trkpt lat="46.21465" lon="6.15207">
        <ele>377.6</ele>
        <time>2022-09-28T06:51:44Z</time>
      </trkpt>
      <trkpt lat="46.21471" lon="6.15206">
        <ele>377.6</ele>
        <time>2022-09-28T06:51:45Z</time>
      </trkpt>
      <trkpt lat="46.21476" lon="6.15204">
        <ele>377.6</ele>
        <time>2022-09-28T06:51:46Z</time>
      </trkpt>
      <trkpt lat="46.21482" lon="6.15202">
        <ele>377.6</ele>
        <time>2022-09-28T06:51:47Z</time>
      </trkpt>
      <trkpt lat="46.21488" lon="6.15201">
        <ele>377.6</ele>
        <time>2022-09-28T06:51:48Z</time>
      </trkpt>
      <trkpt lat="46.21494" lon="6.152">
        <ele>377.6</ele>
        <time>2022-09-28T06:51:49Z</time>
      </trkpt>
      <trkpt lat="46.215" lon="6.15198">
        <ele>377.6</ele>
        <time>2022-09-28T06:51:50Z</time>
      </trkpt>
      <trkpt lat="46.21505" lon="6.15197">
        <ele>377.6</ele>
        <time>2022-09-28T06:51:51Z</time>
      </trkpt>
      <trkpt lat="46.21511" lon="6.15196">
        <ele>377.6</ele>
        <time>2022-09-28T06:51:52Z</time>
      </trkpt>
      <trkpt lat="46.21517" lon="6.15194">
        <ele>377.6</ele>
        <time>2022-09-28T06:51:53Z</time>
      </trkpt>
      <trkpt lat="46.21522" lon="6.15194">
        <ele>377.6</ele>
        <time>2022-09-28T06:51:54Z</time>
      </trkpt>
      <trkpt lat="46.21528" lon="6.15191">
        <ele>377.6</ele>
        <time>2022-09-28T06:51:55Z</time>
      </trkpt>
      <trkpt lat="46.21533" lon="6.15189">
        <ele>377.6</ele>
        <time>2022-09-28T06:51:56Z</time>
      </trkpt>
      <trkpt lat="46.21538" lon="6.15188">
        <ele>377.7</ele>
        <time>2022-09-28T06:51:58Z</time>
      </trkpt>
      <trkpt lat="46.21545" lon="6.15187">
        <ele>377.7</ele>
        <time>2022-09-28T06:51:59Z</time>
      </trkpt>
      <trkpt lat="46.2155" lon="6.15185">
        <ele>377.7</ele>
        <time>2022-09-28T06:52:00Z</time>
      </trkpt>
      <trkpt lat="46.21555" lon="6.15183">
        <ele>377.7</ele>
        <time>2022-09-28T06:52:01Z</time>
      </trkpt>
      <trkpt lat="46.2156" lon="6.15182">
        <ele>377.7</ele>
        <time>2022-09-28T06:52:02Z</time>
      </trkpt>
      <trkpt lat="46.21565" lon="6.15183">
        <ele>377.8</ele>
        <time>2022-09-28T06:52:03Z</time>
      </trkpt>
      <trkpt lat="46.21571" lon="6.15179">
        <ele>377.8</ele>
        <time>2022-09-28T06:52:04Z</time>
      </trkpt>
      <trkpt lat="46.21576" lon="6.15178">
        <ele>377.8</ele>
        <time>2022-09-28T06:52:05Z</time>
      </trkpt>
      <trkpt lat="46.21581" lon="6.15177">
        <ele>377.8</ele>
        <time>2022-09-28T06:52:06Z</time>
      </trkpt>
      <trkpt lat="46.21586" lon="6.15175">
        <ele>377.8</ele>
        <time>2022-09-28T06:52:07Z</time>
      </trkpt>
      <trkpt lat="46.21591" lon="6.15173">
        <ele>377.8</ele>
        <time>2022-09-28T06:52:08Z</time>
      </trkpt>
      <trkpt lat="46.21596" lon="6.15171">
        <ele>377.8</ele>
        <time>2022-09-28T06:52:09Z</time>
      </trkpt>
      <trkpt lat="46.21601" lon="6.15169">
        <ele>377.8</ele>
        <time>2022-09-28T06:52:10Z</time>
      </trkpt>
      <trkpt lat="46.21606" lon="6.15166">
        <ele>377.8</ele>
        <time>2022-09-28T06:52:11Z</time>
      </trkpt>
      <trkpt lat="46.2161" lon="6.15163">
        <ele>377.8</ele>
        <time>2022-09-28T06:52:12Z</time>
      </trkpt>
      <trkpt lat="46.21615" lon="6.15161">
        <ele>377.9</ele>
        <time>2022-09-28T06:52:13Z</time>
      </trkpt>
      <trkpt lat="46.2162" lon="6.15158">
        <ele>377.9</ele>
        <time>2022-09-28T06:52:14Z</time>
      </trkpt>
      <trkpt lat="46.21625" lon="6.15156">
        <ele>377.9</ele>
        <time>2022-09-28T06:52:15Z</time>
      </trkpt>
      <trkpt lat="46.2163" lon="6.15154">
        <ele>377.9</ele>
        <time>2022-09-28T06:52:16Z</time>
      </trkpt>
      <trkpt lat="46.21634" lon="6.15151">
        <ele>378</ele>
        <time>2022-09-28T06:52:17Z</time>
      </trkpt>
      <trkpt lat="46.21638" lon="6.15149">
        <ele>378</ele>
        <time>2022-09-28T06:52:18Z</time>
      </trkpt>
      <trkpt lat="46.21643" lon="6.15146">
        <ele>378.1</ele>
        <time>2022-09-28T06:52:19Z</time>
      </trkpt>
      <trkpt lat="46.21652" lon="6.15142">
        <ele>378.1</ele>
        <time>2022-09-28T06:52:20Z</time>
      </trkpt>
      <trkpt lat="46.21656" lon="6.15139">
        <ele>378.2</ele>
        <time>2022-09-28T06:52:21Z</time>
      </trkpt>
      <trkpt lat="46.21659" lon="6.15137">
        <ele>378.2</ele>
        <time>2022-09-28T06:52:22Z</time>
      </trkpt>
      <trkpt lat="46.21664" lon="6.15134">
        <ele>378.2</ele>
        <time>2022-09-28T06:52:23Z</time>
      </trkpt>
      <trkpt lat="46.21667" lon="6.15132">
        <ele>378.3</ele>
        <time>2022-09-28T06:52:24Z</time>
      </trkpt>
      <trkpt lat="46.21671" lon="6.1513">
        <ele>378.3</ele>
        <time>2022-09-28T06:52:25Z</time>
      </trkpt>
      <trkpt lat="46.21674" lon="6.15128">
        <ele>378.3</ele>
        <time>2022-09-28T06:52:26Z</time>
      </trkpt>
      <trkpt lat="46.21676" lon="6.15126">
        <ele>378.3</ele>
        <time>2022-09-28T06:52:27Z</time>
      </trkpt>
      <trkpt lat="46.21679" lon="6.15124">
        <ele>378.4</ele>
        <time>2022-09-28T06:52:28Z</time>
      </trkpt>
      <trkpt lat="46.21683" lon="6.15122">
        <ele>378.4</ele>
        <time>2022-09-28T06:52:29Z</time>
      </trkpt>
      <trkpt lat="46.21684" lon="6.15121">
        <ele>378.8</ele>
        <time>2022-09-28T06:52:30Z</time>
      </trkpt>
      <trkpt lat="46.21687" lon="6.15121">
        <ele>378.8</ele>
        <time>2022-09-28T06:52:31Z</time>
      </trkpt>
      <trkpt lat="46.21688" lon="6.15121">
        <ele>378.8</ele>
        <time>2022-09-28T06:52:32Z</time>
      </trkpt>
      <trkpt lat="46.21693" lon="6.15123">
        <ele>378.8</ele>
        <time>2022-09-28T06:52:33Z</time>
      </trkpt>
      <trkpt lat="46.21696" lon="6.15124">
        <ele>378.8</ele>
        <time>2022-09-28T06:52:34Z</time>
      </trkpt>
      <trkpt lat="46.217" lon="6.15124">
        <ele>378.9</ele>
        <time>2022-09-28T06:52:35Z</time>
      </trkpt>
      <trkpt lat="46.21704" lon="6.15122">
        <ele>378.9</ele>
        <time>2022-09-28T06:52:36Z</time>
      </trkpt>
      <trkpt lat="46.21708" lon="6.1512">
        <ele>378.9</ele>
        <time>2022-09-28T06:52:37Z</time>
      </trkpt>
      <trkpt lat="46.21712" lon="6.15118">
        <ele>378.9</ele>
        <time>2022-09-28T06:52:38Z</time>
      </trkpt>
      <trkpt lat="46.21715" lon="6.15116">
        <ele>379</ele>
        <time>2022-09-28T06:52:39Z</time>
      </trkpt>
      <trkpt lat="46.21719" lon="6.15115">
        <ele>379</ele>
        <time>2022-09-28T06:52:40Z</time>
      </trkpt>
      <trkpt lat="46.21722" lon="6.15115">
        <ele>379</ele>
        <time>2022-09-28T06:52:41Z</time>
      </trkpt>
      <trkpt lat="46.21726" lon="6.15117">
        <ele>379</ele>
        <time>2022-09-28T06:52:42Z</time>
      </trkpt>
      <trkpt lat="46.2173" lon="6.15119">
        <ele>379</ele>
        <time>2022-09-28T06:52:43Z</time>
      </trkpt>
      <trkpt lat="46.21734" lon="6.15123">
        <ele>379</ele>
        <time>2022-09-28T06:52:44Z</time>
      </trkpt>
      <trkpt lat="46.21737" lon="6.15125">
        <ele>378.9</ele>
        <time>2022-09-28T06:52:45Z</time>
      </trkpt>
      <trkpt lat="46.21742" lon="6.15128">
        <ele>378.9</ele>
        <time>2022-09-28T06:52:46Z</time>
      </trkpt>
      <trkpt lat="46.21746" lon="6.15131">
        <ele>378.9</ele>
        <time>2022-09-28T06:52:47Z</time>
      </trkpt>
      <trkpt lat="46.21751" lon="6.15134">
        <ele>378.9</ele>
        <time>2022-09-28T06:52:48Z</time>
      </trkpt>
      <trkpt lat="46.21755" lon="6.15136">
        <ele>378.9</ele>
        <time>2022-09-28T06:52:49Z</time>
      </trkpt>
      <trkpt lat="46.21758" lon="6.15134">
        <ele>379</ele>
        <time>2022-09-28T06:52:50Z</time>
      </trkpt>
      <trkpt lat="46.21758" lon="6.15133">
        <ele>379</ele>
        <time>2022-09-28T06:52:51Z</time>
      </trkpt>
      <trkpt lat="46.21759" lon="6.15132">
        <ele>379.1</ele>
        <time>2022-09-28T06:52:52Z</time>
      </trkpt>
      <trkpt lat="46.2176" lon="6.15129">
        <ele>379.1</ele>
        <time>2022-09-28T06:52:53Z</time>
      </trkpt>
      <trkpt lat="46.21762" lon="6.15125">
        <ele>379.2</ele>
        <time>2022-09-28T06:52:54Z</time>
      </trkpt>
      <trkpt lat="46.21762" lon="6.15123">
        <ele>379.3</ele>
        <time>2022-09-28T06:52:55Z</time>
      </trkpt>
      <trkpt lat="46.21764" lon="6.15119">
        <ele>379.3</ele>
        <time>2022-09-28T06:52:56Z</time>
      </trkpt>
      <trkpt lat="46.21765" lon="6.15118">
        <ele>379.4</ele>
        <time>2022-09-28T06:52:57Z</time>
      </trkpt>
      <trkpt lat="46.21767" lon="6.15115">
        <ele>379.4</ele>
        <time>2022-09-28T06:52:58Z</time>
      </trkpt>
      <trkpt lat="46.21769" lon="6.15112">
        <ele>379.5</ele>
        <time>2022-09-28T06:52:59Z</time>
      </trkpt>
      <trkpt lat="46.21771" lon="6.15108">
        <ele>379.6</ele>
        <time>2022-09-28T06:53:00Z</time>
      </trkpt>
      <trkpt lat="46.21773" lon="6.15104">
        <ele>379.7</ele>
        <time>2022-09-28T06:53:01Z</time>
      </trkpt>
      <trkpt lat="46.21775" lon="6.15101">
        <ele>379.7</ele>
        <time>2022-09-28T06:53:02Z</time>
      </trkpt>
      <trkpt lat="46.21778" lon="6.15098">
        <ele>379.8</ele>
        <time>2022-09-28T06:53:03Z</time>
      </trkpt>
      <trkpt lat="46.2178" lon="6.15096">
        <ele>379.9</ele>
        <time>2022-09-28T06:53:04Z</time>
      </trkpt>
      <trkpt lat="46.21783" lon="6.15095">
        <ele>380</ele>
        <time>2022-09-28T06:53:05Z</time>
      </trkpt>
      <trkpt lat="46.21786" lon="6.15094">
        <ele>380.1</ele>
        <time>2022-09-28T06:53:06Z</time>
      </trkpt>
      <trkpt lat="46.21788" lon="6.15091">
        <ele>380.2</ele>
        <time>2022-09-28T06:53:07Z</time>
      </trkpt>
      <trkpt lat="46.2179" lon="6.15088">
        <ele>380.3</ele>
        <time>2022-09-28T06:53:08Z</time>
      </trkpt>
      <trkpt lat="46.21792" lon="6.15085">
        <ele>380.4</ele>
        <time>2022-09-28T06:53:09Z</time>
      </trkpt>
      <trkpt lat="46.21793" lon="6.15084">
        <ele>380.5</ele>
        <time>2022-09-28T06:53:10Z</time>
      </trkpt>
      <trkpt lat="46.21795" lon="6.15084">
        <ele>380.5</ele>
        <time>2022-09-28T06:53:11Z</time>
      </trkpt>
      <trkpt lat="46.21796" lon="6.15082">
        <ele>380.6</ele>
        <time>2022-09-28T06:53:12Z</time>
      </trkpt>
      <trkpt lat="46.21799" lon="6.15078">
        <ele>380.7</ele>
        <time>2022-09-28T06:53:13Z</time>
      </trkpt>
      <trkpt lat="46.21803" lon="6.15075">
        <ele>380.9</ele>
        <time>2022-09-28T06:53:14Z</time>
      </trkpt>
      <trkpt lat="46.21806" lon="6.15073">
        <ele>381</ele>
        <time>2022-09-28T06:53:15Z</time>
      </trkpt>
      <trkpt lat="46.21809" lon="6.15071">
        <ele>381.1</ele>
        <time>2022-09-28T06:53:16Z</time>
      </trkpt>
      <trkpt lat="46.21813" lon="6.15068">
        <ele>381.3</ele>
        <time>2022-09-28T06:53:17Z</time>
      </trkpt>
      <trkpt lat="46.21816" lon="6.15067">
        <ele>381.4</ele>
        <time>2022-09-28T06:53:18Z</time>
      </trkpt>
      <trkpt lat="46.21819" lon="6.15064">
        <ele>381.5</ele>
        <time>2022-09-28T06:53:19Z</time>
      </trkpt>
      <trkpt lat="46.21821" lon="6.15061">
        <ele>381.6</ele>
        <time>2022-09-28T06:53:20Z</time>
      </trkpt>
      <trkpt lat="46.21824" lon="6.1506">
        <ele>381.7</ele>
        <time>2022-09-28T06:53:21Z</time>
      </trkpt>
      <trkpt lat="46.21828" lon="6.15059">
        <ele>381.8</ele>
        <time>2022-09-28T06:53:22Z</time>
      </trkpt>
      <trkpt lat="46.21831" lon="6.15058">
        <ele>381.9</ele>
        <time>2022-09-28T06:53:23Z</time>
      </trkpt>
      <trkpt lat="46.21834" lon="6.15057">
        <ele>382</ele>
        <time>2022-09-28T06:53:24Z</time>
      </trkpt>
      <trkpt lat="46.21837" lon="6.15057">
        <ele>382.1</ele>
        <time>2022-09-28T06:53:25Z</time>
      </trkpt>
      <trkpt lat="46.21841" lon="6.15056">
        <ele>382.2</ele>
        <time>2022-09-28T06:53:26Z</time>
      </trkpt>
      <trkpt lat="46.21844" lon="6.15057">
        <ele>382.3</ele>
        <time>2022-09-28T06:53:27Z</time>
      </trkpt>
      <trkpt lat="46.21848" lon="6.15057">
        <ele>382.4</ele>
        <time>2022-09-28T06:53:28Z</time>
      </trkpt>
      <trkpt lat="46.21849" lon="6.15057">
        <ele>382.5</ele>
        <time>2022-09-28T06:53:29Z</time>
      </trkpt>
      <trkpt lat="46.21854" lon="6.15057">
        <ele>382.6</ele>
        <time>2022-09-28T06:53:30Z</time>
      </trkpt>
      <trkpt lat="46.21857" lon="6.15058">
        <ele>382.7</ele>
        <time>2022-09-28T06:53:31Z</time>
      </trkpt>
      <trkpt lat="46.21859" lon="6.15056">
        <ele>382.9</ele>
        <time>2022-09-28T06:53:32Z</time>
      </trkpt>
      <trkpt lat="46.21862" lon="6.15054">
        <ele>383</ele>
        <time>2022-09-28T06:53:33Z</time>
      </trkpt>
      <trkpt lat="46.21865" lon="6.15051">
        <ele>383.1</ele>
        <time>2022-09-28T06:53:34Z</time>
      </trkpt>
      <trkpt lat="46.21866" lon="6.1505">
        <ele>383.2</ele>
        <time>2022-09-28T06:53:35Z</time>
      </trkpt>
      <trkpt lat="46.21868" lon="6.15048">
        <ele>383.3</ele>
        <time>2022-09-28T06:53:36Z</time>
      </trkpt>
      <trkpt lat="46.21871" lon="6.15045">
        <ele>383.4</ele>
        <time>2022-09-28T06:53:37Z</time>
      </trkpt>
      <trkpt lat="46.21874" lon="6.15042">
        <ele>383.6</ele>
        <time>2022-09-28T06:53:38Z</time>
      </trkpt>
      <trkpt lat="46.21876" lon="6.15042">
        <ele>383.7</ele>
        <time>2022-09-28T06:53:39Z</time>
      </trkpt>
      <trkpt lat="46.21879" lon="6.1504">
        <ele>383.8</ele>
        <time>2022-09-28T06:53:40Z</time>
      </trkpt>
      <trkpt lat="46.21882" lon="6.15037">
        <ele>384</ele>
        <time>2022-09-28T06:53:41Z</time>
      </trkpt>
      <trkpt lat="46.21883" lon="6.15036">
        <ele>384.1</ele>
        <time>2022-09-28T06:53:42Z</time>
      </trkpt>
      <trkpt lat="46.21887" lon="6.15034">
        <ele>384.2</ele>
        <time>2022-09-28T06:53:43Z</time>
      </trkpt>
      <trkpt lat="46.21888" lon="6.15034">
        <ele>384.3</ele>
        <time>2022-09-28T06:53:44Z</time>
      </trkpt>
      <trkpt lat="46.21891" lon="6.15032">
        <ele>384.5</ele>
        <time>2022-09-28T06:53:45Z</time>
      </trkpt>
      <trkpt lat="46.21892" lon="6.15031">
        <ele>384.5</ele>
        <time>2022-09-28T06:53:46Z</time>
      </trkpt>
      <trkpt lat="46.21895" lon="6.15029">
        <ele>384.7</ele>
        <time>2022-09-28T06:53:47Z</time>
      </trkpt>
      <trkpt lat="46.21896" lon="6.15029">
        <ele>384.7</ele>
        <time>2022-09-28T06:53:48Z</time>
      </trkpt>
      <trkpt lat="46.21897" lon="6.15029">
        <ele>384.8</ele>
        <time>2022-09-28T06:53:49Z</time>
      </trkpt>
      <trkpt lat="46.21899" lon="6.15031">
        <ele>384.9</ele>
        <time>2022-09-28T06:53:50Z</time>
      </trkpt>
      <trkpt lat="46.21902" lon="6.15034">
        <ele>385</ele>
        <time>2022-09-28T06:53:51Z</time>
      </trkpt>
      <trkpt lat="46.21904" lon="6.15035">
        <ele>385</ele>
        <time>2022-09-28T06:53:52Z</time>
      </trkpt>
      <trkpt lat="46.21907" lon="6.15035">
        <ele>385.1</ele>
        <time>2022-09-28T06:53:53Z</time>
      </trkpt>
      <trkpt lat="46.2191" lon="6.15033">
        <ele>385.1</ele>
        <time>2022-09-28T06:53:54Z</time>
      </trkpt>
      <trkpt lat="46.21913" lon="6.15031">
        <ele>385.2</ele>
        <time>2022-09-28T06:53:55Z</time>
      </trkpt>
      <trkpt lat="46.21917" lon="6.15029">
        <ele>385.4</ele>
        <time>2022-09-28T06:53:56Z</time>
      </trkpt>
      <trkpt lat="46.21919" lon="6.15025">
        <ele>385.5</ele>
        <time>2022-09-28T06:53:57Z</time>
      </trkpt>
      <trkpt lat="46.2192" lon="6.15023">
        <ele>385.5</ele>
        <time>2022-09-28T06:53:58Z</time>
      </trkpt>
      <trkpt lat="46.21922" lon="6.15021">
        <ele>385.6</ele>
        <time>2022-09-28T06:53:59Z</time>
      </trkpt>
      <trkpt lat="46.21923" lon="6.15021">
        <ele>385.6</ele>
        <time>2022-09-28T06:54:00Z</time>
      </trkpt>
      <trkpt lat="46.21926" lon="6.15021">
        <ele>385.7</ele>
        <time>2022-09-28T06:54:01Z</time>
      </trkpt>
      <trkpt lat="46.21927" lon="6.15021">
        <ele>385.8</ele>
        <time>2022-09-28T06:54:02Z</time>
      </trkpt>
      <trkpt lat="46.2193" lon="6.15023">
        <ele>385.9</ele>
        <time>2022-09-28T06:54:03Z</time>
      </trkpt>
      <trkpt lat="46.21931" lon="6.15025">
        <ele>385.9</ele>
        <time>2022-09-28T06:54:04Z</time>
      </trkpt>
      <trkpt lat="46.21935" lon="6.15028">
        <ele>386.1</ele>
        <time>2022-09-28T06:54:05Z</time>
      </trkpt>
      <trkpt lat="46.21937" lon="6.15028">
        <ele>386.2</ele>
        <time>2022-09-28T06:54:06Z</time>
      </trkpt>
      <trkpt lat="46.2194" lon="6.15028">
        <ele>386.3</ele>
        <time>2022-09-28T06:54:07Z</time>
      </trkpt>
      <trkpt lat="46.21944" lon="6.1503">
        <ele>386.4</ele>
        <time>2022-09-28T06:54:08Z</time>
      </trkpt>
      <trkpt lat="46.21947" lon="6.15032">
        <ele>386.4</ele>
        <time>2022-09-28T06:54:09Z</time>
      </trkpt>
      <trkpt lat="46.2195" lon="6.15033">
        <ele>386.5</ele>
        <time>2022-09-28T06:54:10Z</time>
      </trkpt>
      <trkpt lat="46.21953" lon="6.15034">
        <ele>386.5</ele>
        <time>2022-09-28T06:54:11Z</time>
      </trkpt>
      <trkpt lat="46.21956" lon="6.15036">
        <ele>386.6</ele>
        <time>2022-09-28T06:54:12Z</time>
      </trkpt>
      <trkpt lat="46.21959" lon="6.15038">
        <ele>386.7</ele>
        <time>2022-09-28T06:54:13Z</time>
      </trkpt>
      <trkpt lat="46.21961" lon="6.15041">
        <ele>386.7</ele>
        <time>2022-09-28T06:54:14Z</time>
      </trkpt>
      <trkpt lat="46.21964" lon="6.15043">
        <ele>386.8</ele>
        <time>2022-09-28T06:54:15Z</time>
      </trkpt>
      <trkpt lat="46.21965" lon="6.15046">
        <ele>386.9</ele>
        <time>2022-09-28T06:54:16Z</time>
      </trkpt>
      <trkpt lat="46.21968" lon="6.15047">
        <ele>387</ele>
        <time>2022-09-28T06:54:17Z</time>
      </trkpt>
      <trkpt lat="46.21971" lon="6.15048">
        <ele>387</ele>
        <time>2022-09-28T06:54:18Z</time>
      </trkpt>
      <trkpt lat="46.21974" lon="6.15049">
        <ele>387.1</ele>
        <time>2022-09-28T06:54:19Z</time>
      </trkpt>
      <trkpt lat="46.21975" lon="6.15051">
        <ele>387.2</ele>
        <time>2022-09-28T06:54:20Z</time>
      </trkpt>
      <trkpt lat="46.21978" lon="6.15053">
        <ele>387.2</ele>
        <time>2022-09-28T06:54:21Z</time>
      </trkpt>
      <trkpt lat="46.21981" lon="6.15055">
        <ele>387.3</ele>
        <time>2022-09-28T06:54:22Z</time>
      </trkpt>
      <trkpt lat="46.21983" lon="6.15058">
        <ele>387.3</ele>
        <time>2022-09-28T06:54:23Z</time>
      </trkpt>
      <trkpt lat="46.21987" lon="6.1506">
        <ele>387.4</ele>
        <time>2022-09-28T06:54:24Z</time>
      </trkpt>
      <trkpt lat="46.21988" lon="6.15062">
        <ele>387.4</ele>
        <time>2022-09-28T06:54:25Z</time>
      </trkpt>
      <trkpt lat="46.21991" lon="6.15065">
        <ele>387.4</ele>
        <time>2022-09-28T06:54:26Z</time>
      </trkpt>
      <trkpt lat="46.21995" lon="6.15067">
        <ele>387.4</ele>
        <time>2022-09-28T06:54:27Z</time>
      </trkpt>
      <trkpt lat="46.21997" lon="6.15068">
        <ele>387.5</ele>
        <time>2022-09-28T06:54:28Z</time>
      </trkpt>
      <trkpt lat="46.22001" lon="6.15071">
        <ele>387.5</ele>
        <time>2022-09-28T06:54:29Z</time>
      </trkpt>
      <trkpt lat="46.22002" lon="6.15072">
        <ele>387.6</ele>
        <time>2022-09-28T06:54:30Z</time>
      </trkpt>
      <trkpt lat="46.22005" lon="6.15074">
        <ele>387.6</ele>
        <time>2022-09-28T06:54:31Z</time>
      </trkpt>
      <trkpt lat="46.22008" lon="6.15076">
        <ele>387.7</ele>
        <time>2022-09-28T06:54:32Z</time>
      </trkpt>
      <trkpt lat="46.22011" lon="6.15077">
        <ele>387.7</ele>
        <time>2022-09-28T06:54:33Z</time>
      </trkpt>
      <trkpt lat="46.22014" lon="6.15079">
        <ele>387.8</ele>
        <time>2022-09-28T06:54:34Z</time>
      </trkpt>
      <trkpt lat="46.22016" lon="6.1508">
        <ele>387.8</ele>
        <time>2022-09-28T06:54:35Z</time>
      </trkpt>
      <trkpt lat="46.22019" lon="6.15083">
        <ele>387.9</ele>
        <time>2022-09-28T06:54:36Z</time>
      </trkpt>
      <trkpt lat="46.2202" lon="6.15084">
        <ele>387.9</ele>
        <time>2022-09-28T06:54:37Z</time>
      </trkpt>
      <trkpt lat="46.22023" lon="6.15086">
        <ele>387.9</ele>
        <time>2022-09-28T06:54:38Z</time>
      </trkpt>
      <trkpt lat="46.22027" lon="6.15088">
        <ele>388</ele>
        <time>2022-09-28T06:54:39Z</time>
      </trkpt>
      <trkpt lat="46.2203" lon="6.15091">
        <ele>388.1</ele>
        <time>2022-09-28T06:54:40Z</time>
      </trkpt>
      <trkpt lat="46.22033" lon="6.15094">
        <ele>388.1</ele>
        <time>2022-09-28T06:54:41Z</time>
      </trkpt>
      <trkpt lat="46.22036" lon="6.15095">
        <ele>388.2</ele>
        <time>2022-09-28T06:54:42Z</time>
      </trkpt>
      <trkpt lat="46.2204" lon="6.15097">
        <ele>388.3</ele>
        <time>2022-09-28T06:54:43Z</time>
      </trkpt>
      <trkpt lat="46.22044" lon="6.15099">
        <ele>388.3</ele>
        <time>2022-09-28T06:54:44Z</time>
      </trkpt>
      <trkpt lat="46.22046" lon="6.151">
        <ele>388.4</ele>
        <time>2022-09-28T06:54:45Z</time>
      </trkpt>
      <trkpt lat="46.22049" lon="6.15101">
        <ele>388.4</ele>
        <time>2022-09-28T06:54:46Z</time>
      </trkpt>
      <trkpt lat="46.22052" lon="6.15102">
        <ele>388.5</ele>
        <time>2022-09-28T06:54:47Z</time>
      </trkpt>
      <trkpt lat="46.22054" lon="6.15105">
        <ele>388.5</ele>
        <time>2022-09-28T06:54:48Z</time>
      </trkpt>
      <trkpt lat="46.22057" lon="6.15106">
        <ele>388.6</ele>
        <time>2022-09-28T06:54:49Z</time>
      </trkpt>
      <trkpt lat="46.22061" lon="6.15108">
        <ele>388.6</ele>
        <time>2022-09-28T06:54:50Z</time>
      </trkpt>
      <trkpt lat="46.22061" lon="6.15108">
        <ele>388.6</ele>
        <time>2022-09-28T06:54:51Z</time>
      </trkpt>
      <trkpt lat="46.22065" lon="6.1511">
        <ele>388.7</ele>
        <time>2022-09-28T06:54:52Z</time>
      </trkpt>
      <trkpt lat="46.22066" lon="6.1511">
        <ele>388.7</ele>
        <time>2022-09-28T06:54:53Z</time>
      </trkpt>
      <trkpt lat="46.22069" lon="6.15112">
        <ele>388.7</ele>
        <time>2022-09-28T06:54:54Z</time>
      </trkpt>
      <trkpt lat="46.22072" lon="6.15114">
        <ele>388.7</ele>
        <time>2022-09-28T06:54:55Z</time>
      </trkpt>
      <trkpt lat="46.22076" lon="6.15117">
        <ele>388.8</ele>
        <time>2022-09-28T06:54:56Z</time>
      </trkpt>
      <trkpt lat="46.22079" lon="6.15119">
        <ele>388.8</ele>
        <time>2022-09-28T06:54:57Z</time>
      </trkpt>
      <trkpt lat="46.22083" lon="6.15122">
        <ele>388.8</ele>
        <time>2022-09-28T06:54:58Z</time>
      </trkpt>
      <trkpt lat="46.22084" lon="6.15123">
        <ele>388.8</ele>
        <time>2022-09-28T06:54:59Z</time>
      </trkpt>
      <trkpt lat="46.22088" lon="6.15126">
        <ele>388.7</ele>
        <time>2022-09-28T06:55:00Z</time>
      </trkpt>
      <trkpt lat="46.2209" lon="6.15128">
        <ele>388.7</ele>
        <time>2022-09-28T06:55:01Z</time>
      </trkpt>
      <trkpt lat="46.22093" lon="6.15131">
        <ele>388.7</ele>
        <time>2022-09-28T06:55:02Z</time>
      </trkpt>
      <trkpt lat="46.22097" lon="6.15129">
        <ele>388.7</ele>
        <time>2022-09-28T06:55:03Z</time>
      </trkpt>
      <trkpt lat="46.22099" lon="6.15129">
        <ele>388.8</ele>
        <time>2022-09-28T06:55:04Z</time>
      </trkpt>
      <trkpt lat="46.22101" lon="6.15127">
        <ele>388.8</ele>
        <time>2022-09-28T06:55:05Z</time>
      </trkpt>
      <trkpt lat="46.22104" lon="6.15127">
        <ele>388.9</ele>
        <time>2022-09-28T06:55:06Z</time>
      </trkpt>
      <trkpt lat="46.22107" lon="6.15126">
        <ele>388.9</ele>
        <time>2022-09-28T06:55:07Z</time>
      </trkpt>
      <trkpt lat="46.22111" lon="6.15123">
        <ele>389</ele>
        <time>2022-09-28T06:55:08Z</time>
      </trkpt>
      <trkpt lat="46.22114" lon="6.15121">
        <ele>389.1</ele>
        <time>2022-09-28T06:55:09Z</time>
      </trkpt>
      <trkpt lat="46.22115" lon="6.1512">
        <ele>389.1</ele>
        <time>2022-09-28T06:55:10Z</time>
      </trkpt>
      <trkpt lat="46.22117" lon="6.15117">
        <ele>389.2</ele>
        <time>2022-09-28T06:55:11Z</time>
      </trkpt>
      <trkpt lat="46.22118" lon="6.15116">
        <ele>389.3</ele>
        <time>2022-09-28T06:55:12Z</time>
      </trkpt>
      <trkpt lat="46.22121" lon="6.15113">
        <ele>389.3</ele>
        <time>2022-09-28T06:55:13Z</time>
      </trkpt>
      <trkpt lat="46.22122" lon="6.15112">
        <ele>389.4</ele>
        <time>2022-09-28T06:55:14Z</time>
      </trkpt>
      <trkpt lat="46.22124" lon="6.15108">
        <ele>389.5</ele>
        <time>2022-09-28T06:55:15Z</time>
      </trkpt>
      <trkpt lat="46.22125" lon="6.15107">
        <ele>389.6</ele>
        <time>2022-09-28T06:55:16Z</time>
      </trkpt>
      <trkpt lat="46.22126" lon="6.15102">
        <ele>389.6</ele>
        <time>2022-09-28T06:55:17Z</time>
      </trkpt>
      <trkpt lat="46.22125" lon="6.15101">
        <ele>389.7</ele>
        <time>2022-09-28T06:55:18Z</time>
      </trkpt>
      <trkpt lat="46.22126" lon="6.15098">
        <ele>389.7</ele>
        <time>2022-09-28T06:55:19Z</time>
      </trkpt>
      <trkpt lat="46.22126" lon="6.15097">
        <ele>389.7</ele>
        <time>2022-09-28T06:55:20Z</time>
      </trkpt>
      <trkpt lat="46.22125" lon="6.15093">
        <ele>389.8</ele>
        <time>2022-09-28T06:55:21Z</time>
      </trkpt>
      <trkpt lat="46.22125" lon="6.15092">
        <ele>389.8</ele>
        <time>2022-09-28T06:55:22Z</time>
      </trkpt>
      <trkpt lat="46.22123" lon="6.15087">
        <ele>390.1</ele>
        <time>2022-09-28T06:55:23Z</time>
      </trkpt>
      <trkpt lat="46.22122" lon="6.15085">
        <ele>390.1</ele>
        <time>2022-09-28T06:55:24Z</time>
      </trkpt>
      <trkpt lat="46.22121" lon="6.15081">
        <ele>390.2</ele>
        <time>2022-09-28T06:55:25Z</time>
      </trkpt>
      <trkpt lat="46.2212" lon="6.15079">
        <ele>390.2</ele>
        <time>2022-09-28T06:55:26Z</time>
      </trkpt>
      <trkpt lat="46.2212" lon="6.15075">
        <ele>390.2</ele>
        <time>2022-09-28T06:55:27Z</time>
      </trkpt>
      <trkpt lat="46.22122" lon="6.15071">
        <ele>390.2</ele>
        <time>2022-09-28T06:55:28Z</time>
      </trkpt>
      <trkpt lat="46.22125" lon="6.15068">
        <ele>390.3</ele>
        <time>2022-09-28T06:55:29Z</time>
      </trkpt>
      <trkpt lat="46.22126" lon="6.15064">
        <ele>390.3</ele>
        <time>2022-09-28T06:55:30Z</time>
      </trkpt>
      <trkpt lat="46.22127" lon="6.1506">
        <ele>390.4</ele>
        <time>2022-09-28T06:55:31Z</time>
      </trkpt>
      <trkpt lat="46.22127" lon="6.15056">
        <ele>390.4</ele>
        <time>2022-09-28T06:55:32Z</time>
      </trkpt>
      <trkpt lat="46.22128" lon="6.15052">
        <ele>390.4</ele>
        <time>2022-09-28T06:55:33Z</time>
      </trkpt>
      <trkpt lat="46.22128" lon="6.15048">
        <ele>390.5</ele>
        <time>2022-09-28T06:55:34Z</time>
      </trkpt>
      <trkpt lat="46.22129" lon="6.15044">
        <ele>390.5</ele>
        <time>2022-09-28T06:55:35Z</time>
      </trkpt>
      <trkpt lat="46.22129" lon="6.1504">
        <ele>390.5</ele>
        <time>2022-09-28T06:55:36Z</time>
      </trkpt>
      <trkpt lat="46.22129" lon="6.15036">
        <ele>390.6</ele>
        <time>2022-09-28T06:55:37Z</time>
      </trkpt>
      <trkpt lat="46.22128" lon="6.15032">
        <ele>390.6</ele>
        <time>2022-09-28T06:55:38Z</time>
      </trkpt>
      <trkpt lat="46.22127" lon="6.1503">
        <ele>390.6</ele>
        <time>2022-09-28T06:55:39Z</time>
      </trkpt>
      <trkpt lat="46.22126" lon="6.15027">
        <ele>390.6</ele>
        <time>2022-09-28T06:55:40Z</time>
      </trkpt>
      <trkpt lat="46.22125" lon="6.15025">
        <ele>390.6</ele>
        <time>2022-09-28T06:55:41Z</time>
      </trkpt>
      <trkpt lat="46.22125" lon="6.1502">
        <ele>390.6</ele>
        <time>2022-09-28T06:55:42Z</time>
      </trkpt>
      <trkpt lat="46.22125" lon="6.15018">
        <ele>390.6</ele>
        <time>2022-09-28T06:55:43Z</time>
      </trkpt>
      <trkpt lat="46.22127" lon="6.15014">
        <ele>390.7</ele>
        <time>2022-09-28T06:55:44Z</time>
      </trkpt>
      <trkpt lat="46.22131" lon="6.15011">
        <ele>390.7</ele>
        <time>2022-09-28T06:55:45Z</time>
      </trkpt>
      <trkpt lat="46.22132" lon="6.1501">
        <ele>390.7</ele>
        <time>2022-09-28T06:55:46Z</time>
      </trkpt>
      <trkpt lat="46.22135" lon="6.15009">
        <ele>390.7</ele>
        <time>2022-09-28T06:55:47Z</time>
      </trkpt>
      <trkpt lat="46.22138" lon="6.15007">
        <ele>390.7</ele>
        <time>2022-09-28T06:55:48Z</time>
      </trkpt>
      <trkpt lat="46.22142" lon="6.15003">
        <ele>390.7</ele>
        <time>2022-09-28T06:55:49Z</time>
      </trkpt>
      <trkpt lat="46.22143" lon="6.15001">
        <ele>390.7</ele>
        <time>2022-09-28T06:55:50Z</time>
      </trkpt>
      <trkpt lat="46.22145" lon="6.14997">
        <ele>390.6</ele>
        <time>2022-09-28T06:55:51Z</time>
      </trkpt>
      <trkpt lat="46.22147" lon="6.14993">
        <ele>390.6</ele>
        <time>2022-09-28T06:55:52Z</time>
      </trkpt>
      <trkpt lat="46.22151" lon="6.1499">
        <ele>390.6</ele>
        <time>2022-09-28T06:55:53Z</time>
      </trkpt>
      <trkpt lat="46.22152" lon="6.14989">
        <ele>390.5</ele>
        <time>2022-09-28T06:55:54Z</time>
      </trkpt>
      <trkpt lat="46.22155" lon="6.14986">
        <ele>390.5</ele>
        <time>2022-09-28T06:55:55Z</time>
      </trkpt>
      <trkpt lat="46.22159" lon="6.14981">
        <ele>390.4</ele>
        <time>2022-09-28T06:55:56Z</time>
      </trkpt>
      <trkpt lat="46.2216" lon="6.14979">
        <ele>390.4</ele>
        <time>2022-09-28T06:55:57Z</time>
      </trkpt>
      <trkpt lat="46.22164" lon="6.14976">
        <ele>390.3</ele>
        <time>2022-09-28T06:55:58Z</time>
      </trkpt>
      <trkpt lat="46.22168" lon="6.14974">
        <ele>390.2</ele>
        <time>2022-09-28T06:55:59Z</time>
      </trkpt>
      <trkpt lat="46.22172" lon="6.14972">
        <ele>390</ele>
        <time>2022-09-28T06:56:00Z</time>
      </trkpt>
      <trkpt lat="46.22177" lon="6.14971">
        <ele>389.9</ele>
        <time>2022-09-28T06:56:01Z</time>
      </trkpt>
      <trkpt lat="46.22181" lon="6.14972">
        <ele>389.7</ele>
        <time>2022-09-28T06:56:02Z</time>
      </trkpt>
      <trkpt lat="46.22186" lon="6.14974">
        <ele>389.5</ele>
        <time>2022-09-28T06:56:03Z</time>
      </trkpt>
      <trkpt lat="46.2219" lon="6.14976">
        <ele>389.3</ele>
        <time>2022-09-28T06:56:04Z</time>
      </trkpt>
      <trkpt lat="46.22194" lon="6.14979">
        <ele>389.1</ele>
        <time>2022-09-28T06:56:05Z</time>
      </trkpt>
      <trkpt lat="46.22198" lon="6.14982">
        <ele>388.9</ele>
        <time>2022-09-28T06:56:06Z</time>
      </trkpt>
      <trkpt lat="46.22202" lon="6.14983">
        <ele>388.7</ele>
        <time>2022-09-28T06:56:07Z</time>
      </trkpt>
      <trkpt lat="46.22206" lon="6.14986">
        <ele>388.5</ele>
        <time>2022-09-28T06:56:08Z</time>
      </trkpt>
      <trkpt lat="46.22209" lon="6.14985">
        <ele>388.2</ele>
        <time>2022-09-28T06:56:09Z</time>
      </trkpt>
      <trkpt lat="46.22212" lon="6.14982">
        <ele>388.1</ele>
        <time>2022-09-28T06:56:10Z</time>
      </trkpt>
      <trkpt lat="46.22212" lon="6.14981">
        <ele>388.1</ele>
        <time>2022-09-28T06:56:11Z</time>
      </trkpt>
      <trkpt lat="46.22213" lon="6.14979">
        <ele>388.1</ele>
        <time>2022-09-28T06:56:12Z</time>
      </trkpt>
      <trkpt lat="46.22214" lon="6.14978">
        <ele>388.1</ele>
        <time>2022-09-28T06:56:13Z</time>
      </trkpt>
      <trkpt lat="46.22217" lon="6.14976">
        <ele>388</ele>
        <time>2022-09-28T06:56:14Z</time>
      </trkpt>
      <trkpt lat="46.22219" lon="6.14975">
        <ele>388</ele>
        <time>2022-09-28T06:56:15Z</time>
      </trkpt>
      <trkpt lat="46.22221" lon="6.14972">
        <ele>388</ele>
        <time>2022-09-28T06:56:16Z</time>
      </trkpt>
      <trkpt lat="46.22224" lon="6.1497">
        <ele>387.9</ele>
        <time>2022-09-28T06:56:17Z</time>
      </trkpt>
      <trkpt lat="46.22226" lon="6.14969">
        <ele>387.9</ele>
        <time>2022-09-28T06:56:18Z</time>
      </trkpt>
      <trkpt lat="46.2223" lon="6.14968">
        <ele>387.9</ele>
        <time>2022-09-28T06:56:19Z</time>
      </trkpt>
      <trkpt lat="46.22233" lon="6.14967">
        <ele>387.9</ele>
        <time>2022-09-28T06:56:20Z</time>
      </trkpt>
      <trkpt lat="46.22236" lon="6.14966">
        <ele>387.9</ele>
        <time>2022-09-28T06:56:21Z</time>
      </trkpt>
      <trkpt lat="46.22241" lon="6.14966">
        <ele>387.8</ele>
        <time>2022-09-28T06:56:22Z</time>
      </trkpt>
      <trkpt lat="46.22243" lon="6.14965">
        <ele>387.8</ele>
        <time>2022-09-28T06:56:23Z</time>
      </trkpt>
      <trkpt lat="46.22246" lon="6.14962">
        <ele>387.8</ele>
        <time>2022-09-28T06:56:24Z</time>
      </trkpt>
      <trkpt lat="46.22248" lon="6.14958">
        <ele>387.8</ele>
        <time>2022-09-28T06:56:25Z</time>
      </trkpt>
      <trkpt lat="46.22248" lon="6.14958">
        <ele>387.8</ele>
        <time>2022-09-28T06:56:26Z</time>
      </trkpt>
      <trkpt lat="46.22249" lon="6.14956">
        <ele>387.8</ele>
        <time>2022-09-28T06:56:27Z</time>
      </trkpt>
      <trkpt lat="46.22252" lon="6.14956">
        <ele>387.8</ele>
        <time>2022-09-28T06:56:28Z</time>
      </trkpt>
      <trkpt lat="46.22254" lon="6.14957">
        <ele>387.7</ele>
        <time>2022-09-28T06:56:29Z</time>
      </trkpt>
      <trkpt lat="46.22256" lon="6.14958">
        <ele>387.6</ele>
        <time>2022-09-28T06:56:30Z</time>
      </trkpt>
      <trkpt lat="46.22259" lon="6.14962">
        <ele>387.4</ele>
        <time>2022-09-28T06:56:31Z</time>
      </trkpt>
      <trkpt lat="46.2226" lon="6.14963">
        <ele>387.3</ele>
        <time>2022-09-28T06:56:32Z</time>
      </trkpt>
      <trkpt lat="46.22263" lon="6.14966">
        <ele>387.1</ele>
        <time>2022-09-28T06:56:33Z</time>
      </trkpt>
      <trkpt lat="46.22266" lon="6.14969">
        <ele>386.8</ele>
        <time>2022-09-28T06:56:34Z</time>
      </trkpt>
      <trkpt lat="46.22269" lon="6.14972">
        <ele>386.5</ele>
        <time>2022-09-28T06:56:35Z</time>
      </trkpt>
      <trkpt lat="46.22272" lon="6.14976">
        <ele>386.2</ele>
        <time>2022-09-28T06:56:36Z</time>
      </trkpt>
      <trkpt lat="46.22275" lon="6.14981">
        <ele>385.9</ele>
        <time>2022-09-28T06:56:37Z</time>
      </trkpt>
      <trkpt lat="46.22277" lon="6.14986">
        <ele>385.5</ele>
        <time>2022-09-28T06:56:38Z</time>
      </trkpt>
      <trkpt lat="46.22279" lon="6.14991">
        <ele>385.2</ele>
        <time>2022-09-28T06:56:39Z</time>
      </trkpt>
      <trkpt lat="46.22281" lon="6.14996">
        <ele>384.9</ele>
        <time>2022-09-28T06:56:40Z</time>
      </trkpt>
      <trkpt lat="46.22282" lon="6.15">
        <ele>384.6</ele>
        <time>2022-09-28T06:56:41Z</time>
      </trkpt>
      <trkpt lat="46.22283" lon="6.15006">
        <ele>384.4</ele>
        <time>2022-09-28T06:56:42Z</time>
      </trkpt>
      <trkpt lat="46.22283" lon="6.15011">
        <ele>384.2</ele>
        <time>2022-09-28T06:56:43Z</time>
      </trkpt>
      <trkpt lat="46.22283" lon="6.15017">
        <ele>383.9</ele>
        <time>2022-09-28T06:56:44Z</time>
      </trkpt>
      <trkpt lat="46.22284" lon="6.15023">
        <ele>383.6</ele>
        <time>2022-09-28T06:56:45Z</time>
      </trkpt>
      <trkpt lat="46.22286" lon="6.15029">
        <ele>383.4</ele>
        <time>2022-09-28T06:56:46Z</time>
      </trkpt>
      <trkpt lat="46.22288" lon="6.15033">
        <ele>383.2</ele>
        <time>2022-09-28T06:56:47Z</time>
      </trkpt>
      <trkpt lat="46.22291" lon="6.15038">
        <ele>383.1</ele>
        <time>2022-09-28T06:56:48Z</time>
      </trkpt>
      <trkpt lat="46.22295" lon="6.15043">
        <ele>382.9</ele>
        <time>2022-09-28T06:56:49Z</time>
      </trkpt>
      <trkpt lat="46.22299" lon="6.15047">
        <ele>382.8</ele>
        <time>2022-09-28T06:56:50Z</time>
      </trkpt>
      <trkpt lat="46.22303" lon="6.15052">
        <ele>382.6</ele>
        <time>2022-09-28T06:56:51Z</time>
      </trkpt>
      <trkpt lat="46.22307" lon="6.15056">
        <ele>382.5</ele>
        <time>2022-09-28T06:56:52Z</time>
      </trkpt>
      <trkpt lat="46.2231" lon="6.1506">
        <ele>382.5</ele>
        <time>2022-09-28T06:56:53Z</time>
      </trkpt>
      <trkpt lat="46.22314" lon="6.15064">
        <ele>382.4</ele>
        <time>2022-09-28T06:56:54Z</time>
      </trkpt>
      <trkpt lat="46.22317" lon="6.15067">
        <ele>382.3</ele>
        <time>2022-09-28T06:56:55Z</time>
      </trkpt>
      <trkpt lat="46.22321" lon="6.15071">
        <ele>382.2</ele>
        <time>2022-09-28T06:56:56Z</time>
      </trkpt>
      <trkpt lat="46.22321" lon="6.15075">
        <ele>382.1</ele>
        <time>2022-09-28T06:56:57Z</time>
      </trkpt>
      <trkpt lat="46.22324" lon="6.15082">
        <ele>381.9</ele>
        <time>2022-09-28T06:56:58Z</time>
      </trkpt>
      <trkpt lat="46.22327" lon="6.15087">
        <ele>381.8</ele>
        <time>2022-09-28T06:56:59Z</time>
      </trkpt>
      <trkpt lat="46.2233" lon="6.15093">
        <ele>381.7</ele>
        <time>2022-09-28T06:57:00Z</time>
      </trkpt>
      <trkpt lat="46.22333" lon="6.15096">
        <ele>381.6</ele>
        <time>2022-09-28T06:57:01Z</time>
      </trkpt>
      <trkpt lat="46.22336" lon="6.15099">
        <ele>381.4</ele>
        <time>2022-09-28T06:57:02Z</time>
      </trkpt>
      <trkpt lat="46.22339" lon="6.15101">
        <ele>381.3</ele>
        <time>2022-09-28T06:57:03Z</time>
      </trkpt>
      <trkpt lat="46.22343" lon="6.15103">
        <ele>381.2</ele>
        <time>2022-09-28T06:57:04Z</time>
      </trkpt>
      <trkpt lat="46.22346" lon="6.15104">
        <ele>381</ele>
        <time>2022-09-28T06:57:05Z</time>
      </trkpt>
      <trkpt lat="46.2235" lon="6.15106">
        <ele>380.9</ele>
        <time>2022-09-28T06:57:06Z</time>
      </trkpt>
      <trkpt lat="46.22353" lon="6.15109">
        <ele>380.8</ele>
        <time>2022-09-28T06:57:07Z</time>
      </trkpt>
      <trkpt lat="46.22356" lon="6.15113">
        <ele>380.7</ele>
        <time>2022-09-28T06:57:08Z</time>
      </trkpt>
      <trkpt lat="46.2236" lon="6.15117">
        <ele>380.6</ele>
        <time>2022-09-28T06:57:09Z</time>
      </trkpt>
      <trkpt lat="46.22364" lon="6.15119">
        <ele>380.3</ele>
        <time>2022-09-28T06:57:10Z</time>
      </trkpt>
      <trkpt lat="46.22368" lon="6.15119">
        <ele>380.2</ele>
        <time>2022-09-28T06:57:11Z</time>
      </trkpt>
      <trkpt lat="46.22372" lon="6.15118">
        <ele>380.2</ele>
        <time>2022-09-28T06:57:12Z</time>
      </trkpt>
      <trkpt lat="46.22377" lon="6.15116">
        <ele>380.1</ele>
        <time>2022-09-28T06:57:13Z</time>
      </trkpt>
      <trkpt lat="46.22381" lon="6.15115">
        <ele>380.1</ele>
        <time>2022-09-28T06:57:14Z</time>
      </trkpt>
      <trkpt lat="46.22385" lon="6.15114">
        <ele>380</ele>
        <time>2022-09-28T06:57:15Z</time>
      </trkpt>
      <trkpt lat="46.2239" lon="6.15112">
        <ele>380</ele>
        <time>2022-09-28T06:57:16Z</time>
      </trkpt>
      <trkpt lat="46.22394" lon="6.15111">
        <ele>380</ele>
        <time>2022-09-28T06:57:17Z</time>
      </trkpt>
      <trkpt lat="46.22398" lon="6.15108">
        <ele>380</ele>
        <time>2022-09-28T06:57:18Z</time>
      </trkpt>
      <trkpt lat="46.22402" lon="6.15106">
        <ele>380</ele>
        <time>2022-09-28T06:57:19Z</time>
      </trkpt>
      <trkpt lat="46.22404" lon="6.15102">
        <ele>380</ele>
        <time>2022-09-28T06:57:20Z</time>
      </trkpt>
      <trkpt lat="46.22405" lon="6.15101">
        <ele>380</ele>
        <time>2022-09-28T06:57:21Z</time>
      </trkpt>
      <trkpt lat="46.22408" lon="6.15098">
        <ele>380</ele>
        <time>2022-09-28T06:57:22Z</time>
      </trkpt>
      <trkpt lat="46.22412" lon="6.15096">
        <ele>380</ele>
        <time>2022-09-28T06:57:23Z</time>
      </trkpt>
      <trkpt lat="46.22417" lon="6.15094">
        <ele>379.9</ele>
        <time>2022-09-28T06:57:24Z</time>
      </trkpt>
      <trkpt lat="46.22421" lon="6.15091">
        <ele>379.9</ele>
        <time>2022-09-28T06:57:25Z</time>
      </trkpt>
      <trkpt lat="46.22426" lon="6.15088">
        <ele>379.8</ele>
        <time>2022-09-28T06:57:26Z</time>
      </trkpt>
      <trkpt lat="46.22431" lon="6.15085">
        <ele>379.8</ele>
        <time>2022-09-28T06:57:27Z</time>
      </trkpt>
      <trkpt lat="46.22436" lon="6.15081">
        <ele>379.7</ele>
        <time>2022-09-28T06:57:28Z</time>
      </trkpt>
      <trkpt lat="46.22441" lon="6.15076">
        <ele>379.6</ele>
        <time>2022-09-28T06:57:29Z</time>
      </trkpt>
      <trkpt lat="46.22446" lon="6.15072">
        <ele>379.6</ele>
        <time>2022-09-28T06:57:30Z</time>
      </trkpt>
      <trkpt lat="46.22451" lon="6.15068">
        <ele>379.5</ele>
        <time>2022-09-28T06:57:31Z</time>
      </trkpt>
      <trkpt lat="46.22455" lon="6.15064">
        <ele>379.5</ele>
        <time>2022-09-28T06:57:32Z</time>
      </trkpt>
      <trkpt lat="46.2246" lon="6.15059">
        <ele>379.5</ele>
        <time>2022-09-28T06:57:33Z</time>
      </trkpt>
      <trkpt lat="46.22465" lon="6.15054">
        <ele>379.4</ele>
        <time>2022-09-28T06:57:34Z</time>
      </trkpt>
      <trkpt lat="46.2247" lon="6.1505">
        <ele>379.4</ele>
        <time>2022-09-28T06:57:35Z</time>
      </trkpt>
      <trkpt lat="46.22475" lon="6.15046">
        <ele>379.4</ele>
        <time>2022-09-28T06:57:36Z</time>
      </trkpt>
      <trkpt lat="46.22479" lon="6.15041">
        <ele>379.4</ele>
        <time>2022-09-28T06:57:37Z</time>
      </trkpt>
      <trkpt lat="46.22483" lon="6.15037">
        <ele>379.3</ele>
        <time>2022-09-28T06:57:38Z</time>
      </trkpt>
      <trkpt lat="46.22488" lon="6.15032">
        <ele>379.3</ele>
        <time>2022-09-28T06:57:39Z</time>
      </trkpt>
      <trkpt lat="46.22492" lon="6.15028">
        <ele>379.3</ele>
        <time>2022-09-28T06:57:40Z</time>
      </trkpt>
      <trkpt lat="46.22496" lon="6.15025">
        <ele>379.3</ele>
        <time>2022-09-28T06:57:41Z</time>
      </trkpt>
      <trkpt lat="46.225" lon="6.1502">
        <ele>379.3</ele>
        <time>2022-09-28T06:57:42Z</time>
      </trkpt>
      <trkpt lat="46.22504" lon="6.15016">
        <ele>379.2</ele>
        <time>2022-09-28T06:57:43Z</time>
      </trkpt>
      <trkpt lat="46.22507" lon="6.15013">
        <ele>379.2</ele>
        <time>2022-09-28T06:57:44Z</time>
      </trkpt>
      <trkpt lat="46.22511" lon="6.15011">
        <ele>379.2</ele>
        <time>2022-09-28T06:57:45Z</time>
      </trkpt>
      <trkpt lat="46.22515" lon="6.15006">
        <ele>379.2</ele>
        <time>2022-09-28T06:57:46Z</time>
      </trkpt>
      <trkpt lat="46.22519" lon="6.15001">
        <ele>379.2</ele>
        <time>2022-09-28T06:57:47Z</time>
      </trkpt>
      <trkpt lat="46.22522" lon="6.14997">
        <ele>379.2</ele>
        <time>2022-09-28T06:57:48Z</time>
      </trkpt>
      <trkpt lat="46.22526" lon="6.14992">
        <ele>379.1</ele>
        <time>2022-09-28T06:57:49Z</time>
      </trkpt>
      <trkpt lat="46.22529" lon="6.14986">
        <ele>379.1</ele>
        <time>2022-09-28T06:57:50Z</time>
      </trkpt>
      <trkpt lat="46.2253" lon="6.14982">
        <ele>379.1</ele>
        <time>2022-09-28T06:57:51Z</time>
      </trkpt>
      <trkpt lat="46.22533" lon="6.14977">
        <ele>379.1</ele>
        <time>2022-09-28T06:57:52Z</time>
      </trkpt>
      <trkpt lat="46.22535" lon="6.14973">
        <ele>379.1</ele>
        <time>2022-09-28T06:57:53Z</time>
      </trkpt>
      <trkpt lat="46.22537" lon="6.14967">
        <ele>379.1</ele>
        <time>2022-09-28T06:57:54Z</time>
      </trkpt>
      <trkpt lat="46.2254" lon="6.14963">
        <ele>379.1</ele>
        <time>2022-09-28T06:57:55Z</time>
      </trkpt>
      <trkpt lat="46.22542" lon="6.14959">
        <ele>379.1</ele>
        <time>2022-09-28T06:57:56Z</time>
      </trkpt>
      <trkpt lat="46.22543" lon="6.14954">
        <ele>379.1</ele>
        <time>2022-09-28T06:57:57Z</time>
      </trkpt>
      <trkpt lat="46.22543" lon="6.14953">
        <ele>379.1</ele>
        <time>2022-09-28T06:57:58Z</time>
      </trkpt>
      <trkpt lat="46.22545" lon="6.14948">
        <ele>379.1</ele>
        <time>2022-09-28T06:57:59Z</time>
      </trkpt>
      <trkpt lat="46.22546" lon="6.14946">
        <ele>379.1</ele>
        <time>2022-09-28T06:58:00Z</time>
      </trkpt>
      <trkpt lat="46.22546" lon="6.1494">
        <ele>379.1</ele>
        <time>2022-09-28T06:58:01Z</time>
      </trkpt>
      <trkpt lat="46.22546" lon="6.14939">
        <ele>379.1</ele>
        <time>2022-09-28T06:58:02Z</time>
      </trkpt>
      <trkpt lat="46.22546" lon="6.14934">
        <ele>379.2</ele>
        <time>2022-09-28T06:58:03Z</time>
      </trkpt>
      <trkpt lat="46.22546" lon="6.14929">
        <ele>379.2</ele>
        <time>2022-09-28T06:58:04Z</time>
      </trkpt>
      <trkpt lat="46.22547" lon="6.14927">
        <ele>379.2</ele>
        <time>2022-09-28T06:58:05Z</time>
      </trkpt>
      <trkpt lat="46.22549" lon="6.14923">
        <ele>379.2</ele>
        <time>2022-09-28T06:58:06Z</time>
      </trkpt>
      <trkpt lat="46.2255" lon="6.14922">
        <ele>379.2</ele>
        <time>2022-09-28T06:58:07Z</time>
      </trkpt>
      <trkpt lat="46.22551" lon="6.14921">
        <ele>379.2</ele>
        <time>2022-09-28T06:58:08Z</time>
      </trkpt>
      <trkpt lat="46.22553" lon="6.14921">
        <ele>379.2</ele>
        <time>2022-09-28T06:58:09Z</time>
      </trkpt>
      <trkpt lat="46.22552" lon="6.14921">
        <ele>379.2</ele>
        <time>2022-09-28T06:58:10Z</time>
      </trkpt>
      <trkpt lat="46.22552" lon="6.1492">
        <ele>379.2</ele>
        <time>2022-09-28T06:58:11Z</time>
      </trkpt>
      <trkpt lat="46.22552" lon="6.14919">
        <ele>379.2</ele>
        <time>2022-09-28T06:58:12Z</time>
      </trkpt>
      <trkpt lat="46.22552" lon="6.14917">
        <ele>379.2</ele>
        <time>2022-09-28T06:58:13Z</time>
      </trkpt>
      <trkpt lat="46.22553" lon="6.14917">
        <ele>379.2</ele>
        <time>2022-09-28T06:58:14Z</time>
      </trkpt>
      <trkpt lat="46.22553" lon="6.14917">
        <ele>379.2</ele>
        <time>2022-09-28T06:58:15Z</time>
      </trkpt>
      <trkpt lat="46.22553" lon="6.14917">
        <ele>379.2</ele>
        <time>2022-09-28T06:58:16Z</time>
      </trkpt>
      <trkpt lat="46.22552" lon="6.14918">
        <ele>379.2</ele>
        <time>2022-09-28T06:58:17Z</time>
      </trkpt>
      <trkpt lat="46.22551" lon="6.1492">
        <ele>379.3</ele>
        <time>2022-09-28T06:58:18Z</time>
      </trkpt>
      <trkpt lat="46.2255" lon="6.14921">
        <ele>379.3</ele>
        <time>2022-09-28T06:58:19Z</time>
      </trkpt>
      <trkpt lat="46.2255" lon="6.14922">
        <ele>379.3</ele>
        <time>2022-09-28T06:58:22Z</time>
      </trkpt>
      <trkpt lat="46.22549" lon="6.14923">
        <ele>379.3</ele>
        <time>2022-09-28T06:58:23Z</time>
      </trkpt>
      <trkpt lat="46.22548" lon="6.14925">
        <ele>379.3</ele>
        <time>2022-09-28T06:58:24Z</time>
      </trkpt>
      <trkpt lat="46.22547" lon="6.14926">
        <ele>379.3</ele>
        <time>2022-09-28T06:58:25Z</time>
      </trkpt>
      <trkpt lat="46.22548" lon="6.14931">
        <ele>379.2</ele>
        <time>2022-09-28T06:58:26Z</time>
      </trkpt>
      <trkpt lat="46.22549" lon="6.14932">
        <ele>379.2</ele>
        <time>2022-09-28T06:58:27Z</time>
      </trkpt>
      <trkpt lat="46.22551" lon="6.14936">
        <ele>379.2</ele>
        <time>2022-09-28T06:58:28Z</time>
      </trkpt>
      <trkpt lat="46.22555" lon="6.14937">
        <ele>379.2</ele>
        <time>2022-09-28T06:58:29Z</time>
      </trkpt>
      <trkpt lat="46.22558" lon="6.14938">
        <ele>379.2</ele>
        <time>2022-09-28T06:58:30Z</time>
      </trkpt>
      <trkpt lat="46.22559" lon="6.14937">
        <ele>379.2</ele>
        <time>2022-09-28T06:58:31Z</time>
      </trkpt>
      <trkpt lat="46.22561" lon="6.14938">
        <ele>379.2</ele>
        <time>2022-09-28T06:58:32Z</time>
      </trkpt>
      <trkpt lat="46.22562" lon="6.14937">
        <ele>379.2</ele>
        <time>2022-09-28T06:58:33Z</time>
      </trkpt>
      <trkpt lat="46.22562" lon="6.14936">
        <ele>379.2</ele>
        <time>2022-09-28T06:58:34Z</time>
      </trkpt>
      <trkpt lat="46.22561" lon="6.14936">
        <ele>379.2</ele>
        <time>2022-09-28T06:58:35Z</time>
      </trkpt>
      <trkpt lat="46.2256" lon="6.14935">
        <ele>379.2</ele>
        <time>2022-09-28T06:58:36Z</time>
      </trkpt>
      <trkpt lat="46.22559" lon="6.14935">
        <ele>379.2</ele>
        <time>2022-09-28T06:58:37Z</time>
      </trkpt>
      <trkpt lat="46.22556" lon="6.14935">
        <ele>379.2</ele>
        <time>2022-09-28T06:58:38Z</time>
      </trkpt>
      <trkpt lat="46.22555" lon="6.14936">
        <ele>379.2</ele>
        <time>2022-09-28T06:58:39Z</time>
      </trkpt>
      <trkpt lat="46.22552" lon="6.14937">
        <ele>379.1</ele>
        <time>2022-09-28T06:58:40Z</time>
      </trkpt>
      <trkpt lat="46.22551" lon="6.14938">
        <ele>379.1</ele>
        <time>2022-09-28T06:58:41Z</time>
      </trkpt>
      <trkpt lat="46.22548" lon="6.1494">
        <ele>379.1</ele>
        <time>2022-09-28T06:58:42Z</time>
      </trkpt>
      <trkpt lat="46.22547" lon="6.14941">
        <ele>379.1</ele>
        <time>2022-09-28T06:58:43Z</time>
      </trkpt>
      <trkpt lat="46.22546" lon="6.14947">
        <ele>379.1</ele>
        <time>2022-09-28T06:58:44Z</time>
      </trkpt>
      <trkpt lat="46.22545" lon="6.14949">
        <ele>379.1</ele>
        <time>2022-09-28T06:58:45Z</time>
      </trkpt>
      <trkpt lat="46.22545" lon="6.14954">
        <ele>379.1</ele>
        <time>2022-09-28T06:58:46Z</time>
      </trkpt>
      <trkpt lat="46.22543" lon="6.14959">
        <ele>379.1</ele>
        <time>2022-09-28T06:58:47Z</time>
      </trkpt>
      <trkpt lat="46.22542" lon="6.14963">
        <ele>379.1</ele>
        <time>2022-09-28T06:58:48Z</time>
      </trkpt>
      <trkpt lat="46.2254" lon="6.14968">
        <ele>379.1</ele>
        <time>2022-09-28T06:58:49Z</time>
      </trkpt>
      <trkpt lat="46.22538" lon="6.14972">
        <ele>379.1</ele>
        <time>2022-09-28T06:58:50Z</time>
      </trkpt>
      <trkpt lat="46.22536" lon="6.14978">
        <ele>379.1</ele>
        <time>2022-09-28T06:58:51Z</time>
      </trkpt>
      <trkpt lat="46.22535" lon="6.1498">
        <ele>379.1</ele>
        <time>2022-09-28T06:58:52Z</time>
      </trkpt>
      <trkpt lat="46.22532" lon="6.14985">
        <ele>379.1</ele>
        <time>2022-09-28T06:58:53Z</time>
      </trkpt>
      <trkpt lat="46.22529" lon="6.1499">
        <ele>379.1</ele>
        <time>2022-09-28T06:58:54Z</time>
      </trkpt>
      <trkpt lat="46.22525" lon="6.14995">
        <ele>379.2</ele>
        <time>2022-09-28T06:58:55Z</time>
      </trkpt>
      <trkpt lat="46.22521" lon="6.14998">
        <ele>379.2</ele>
        <time>2022-09-28T06:58:56Z</time>
      </trkpt>
      <trkpt lat="46.22517" lon="6.15003">
        <ele>379.2</ele>
        <time>2022-09-28T06:58:57Z</time>
      </trkpt>
      <trkpt lat="46.22514" lon="6.15007">
        <ele>379.2</ele>
        <time>2022-09-28T06:58:58Z</time>
      </trkpt>
      <trkpt lat="46.2251" lon="6.1501">
        <ele>379.2</ele>
        <time>2022-09-28T06:58:59Z</time>
      </trkpt>
      <trkpt lat="46.22507" lon="6.15012">
        <ele>379.2</ele>
        <time>2022-09-28T06:59:00Z</time>
      </trkpt>
      <trkpt lat="46.22503" lon="6.15015">
        <ele>379.2</ele>
        <time>2022-09-28T06:59:01Z</time>
      </trkpt>
      <trkpt lat="46.22499" lon="6.15018">
        <ele>379.3</ele>
        <time>2022-09-28T06:59:02Z</time>
      </trkpt>
      <trkpt lat="46.22495" lon="6.15022">
        <ele>379.3</ele>
        <time>2022-09-28T06:59:03Z</time>
      </trkpt>
      <trkpt lat="46.22491" lon="6.15026">
        <ele>379.3</ele>
        <time>2022-09-28T06:59:04Z</time>
      </trkpt>
      <trkpt lat="46.22488" lon="6.15031">
        <ele>379.3</ele>
        <time>2022-09-28T06:59:05Z</time>
      </trkpt>
      <trkpt lat="46.22483" lon="6.15036">
        <ele>379.3</ele>
        <time>2022-09-28T06:59:06Z</time>
      </trkpt>
      <trkpt lat="46.22479" lon="6.1504">
        <ele>379.4</ele>
        <time>2022-09-28T06:59:07Z</time>
      </trkpt>
      <trkpt lat="46.22475" lon="6.15044">
        <ele>379.4</ele>
        <time>2022-09-28T06:59:08Z</time>
      </trkpt>
      <trkpt lat="46.22472" lon="6.15047">
        <ele>379.4</ele>
        <time>2022-09-28T06:59:09Z</time>
      </trkpt>
      <trkpt lat="46.22468" lon="6.15052">
        <ele>379.4</ele>
        <time>2022-09-28T06:59:10Z</time>
      </trkpt>
      <trkpt lat="46.22465" lon="6.15057">
        <ele>379.4</ele>
        <time>2022-09-28T06:59:11Z</time>
      </trkpt>
      <trkpt lat="46.22461" lon="6.1506">
        <ele>379.5</ele>
        <time>2022-09-28T06:59:12Z</time>
      </trkpt>
      <trkpt lat="46.22457" lon="6.15065">
        <ele>379.5</ele>
        <time>2022-09-28T06:59:13Z</time>
      </trkpt>
      <trkpt lat="46.22453" lon="6.15068">
        <ele>379.5</ele>
        <time>2022-09-28T06:59:14Z</time>
      </trkpt>
      <trkpt lat="46.2245" lon="6.15073">
        <ele>379.5</ele>
        <time>2022-09-28T06:59:15Z</time>
      </trkpt>
      <trkpt lat="46.22445" lon="6.15076">
        <ele>379.6</ele>
        <time>2022-09-28T06:59:16Z</time>
      </trkpt>
      <trkpt lat="46.22442" lon="6.15079">
        <ele>379.6</ele>
        <time>2022-09-28T06:59:17Z</time>
      </trkpt>
      <trkpt lat="46.22438" lon="6.15082">
        <ele>379.7</ele>
        <time>2022-09-28T06:59:18Z</time>
      </trkpt>
      <trkpt lat="46.22435" lon="6.15086">
        <ele>379.7</ele>
        <time>2022-09-28T06:59:19Z</time>
      </trkpt>
      <trkpt lat="46.22432" lon="6.15088">
        <ele>379.8</ele>
        <time>2022-09-28T06:59:20Z</time>
      </trkpt>
      <trkpt lat="46.22428" lon="6.15093">
        <ele>379.8</ele>
        <time>2022-09-28T06:59:21Z</time>
      </trkpt>
      <trkpt lat="46.22425" lon="6.15093">
        <ele>379.9</ele>
        <time>2022-09-28T06:59:22Z</time>
      </trkpt>
      <trkpt lat="46.22422" lon="6.15093">
        <ele>379.9</ele>
        <time>2022-09-28T06:59:23Z</time>
      </trkpt>
      <trkpt lat="46.2242" lon="6.15097">
        <ele>379.9</ele>
        <time>2022-09-28T06:59:24Z</time>
      </trkpt>
      <trkpt lat="46.22417" lon="6.15097">
        <ele>379.9</ele>
        <time>2022-09-28T06:59:25Z</time>
      </trkpt>
      <trkpt lat="46.22414" lon="6.151">
        <ele>380</ele>
        <time>2022-09-28T06:59:26Z</time>
      </trkpt>
      <trkpt lat="46.22413" lon="6.15101">
        <ele>380</ele>
        <time>2022-09-28T06:59:27Z</time>
      </trkpt>
      <trkpt lat="46.2241" lon="6.15102">
        <ele>380</ele>
        <time>2022-09-28T06:59:28Z</time>
      </trkpt>
      <trkpt lat="46.22406" lon="6.15106">
        <ele>380</ele>
        <time>2022-09-28T06:59:29Z</time>
      </trkpt>
      <trkpt lat="46.22405" lon="6.15107">
        <ele>380</ele>
        <time>2022-09-28T06:59:30Z</time>
      </trkpt>
      <trkpt lat="46.224" lon="6.1511">
        <ele>380</ele>
        <time>2022-09-28T06:59:31Z</time>
      </trkpt>
      <trkpt lat="46.22397" lon="6.15112">
        <ele>380</ele>
        <time>2022-09-28T06:59:32Z</time>
      </trkpt>
      <trkpt lat="46.22392" lon="6.15114">
        <ele>380</ele>
        <time>2022-09-28T06:59:33Z</time>
      </trkpt>
      <trkpt lat="46.22387" lon="6.15115">
        <ele>380</ele>
        <time>2022-09-28T06:59:34Z</time>
      </trkpt>
      <trkpt lat="46.22382" lon="6.15116">
        <ele>380</ele>
        <time>2022-09-28T06:59:35Z</time>
      </trkpt>
      <trkpt lat="46.22378" lon="6.15117">
        <ele>380.1</ele>
        <time>2022-09-28T06:59:36Z</time>
      </trkpt>
      <trkpt lat="46.22374" lon="6.15118">
        <ele>380.1</ele>
        <time>2022-09-28T06:59:37Z</time>
      </trkpt>
      <trkpt lat="46.2237" lon="6.15119">
        <ele>380.2</ele>
        <time>2022-09-28T06:59:38Z</time>
      </trkpt>
      <trkpt lat="46.22367" lon="6.15119">
        <ele>380.3</ele>
        <time>2022-09-28T06:59:39Z</time>
      </trkpt>
      <trkpt lat="46.22363" lon="6.15118">
        <ele>380.3</ele>
        <time>2022-09-28T06:59:40Z</time>
      </trkpt>
      <trkpt lat="46.22361" lon="6.15116">
        <ele>380.4</ele>
        <time>2022-09-28T06:59:41Z</time>
      </trkpt>
      <trkpt lat="46.22358" lon="6.15114">
        <ele>380.6</ele>
        <time>2022-09-28T06:59:42Z</time>
      </trkpt>
      <trkpt lat="46.22355" lon="6.1511">
        <ele>380.7</ele>
        <time>2022-09-28T06:59:43Z</time>
      </trkpt>
      <trkpt lat="46.22352" lon="6.15109">
        <ele>380.8</ele>
        <time>2022-09-28T06:59:44Z</time>
      </trkpt>
      <trkpt lat="46.2235" lon="6.15107">
        <ele>380.9</ele>
        <time>2022-09-28T06:59:45Z</time>
      </trkpt>
      <trkpt lat="46.22346" lon="6.15106">
        <ele>381</ele>
        <time>2022-09-28T06:59:46Z</time>
      </trkpt>
      <trkpt lat="46.22345" lon="6.15106">
        <ele>381</ele>
        <time>2022-09-28T06:59:47Z</time>
      </trkpt>
      <trkpt lat="46.22341" lon="6.15105">
        <ele>381.2</ele>
        <time>2022-09-28T06:59:48Z</time>
      </trkpt>
      <trkpt lat="46.22341" lon="6.15105">
        <ele>381.3</ele>
        <time>2022-09-28T06:59:49Z</time>
      </trkpt>
      <trkpt lat="46.22338" lon="6.15103">
        <ele>381.4</ele>
        <time>2022-09-28T06:59:50Z</time>
      </trkpt>
      <trkpt lat="46.22337" lon="6.15103">
        <ele>381.4</ele>
        <time>2022-09-28T06:59:51Z</time>
      </trkpt>
      <trkpt lat="46.22335" lon="6.151">
        <ele>381.5</ele>
        <time>2022-09-28T06:59:52Z</time>
      </trkpt>
      <trkpt lat="46.22335" lon="6.15099">
        <ele>381.5</ele>
        <time>2022-09-28T06:59:53Z</time>
      </trkpt>
      <trkpt lat="46.22333" lon="6.15095">
        <ele>381.6</ele>
        <time>2022-09-28T06:59:54Z</time>
      </trkpt>
      <trkpt lat="46.22332" lon="6.15093">
        <ele>381.7</ele>
        <time>2022-09-28T06:59:55Z</time>
      </trkpt>
      <trkpt lat="46.2233" lon="6.1509">
        <ele>381.8</ele>
        <time>2022-09-28T06:59:56Z</time>
      </trkpt>
      <trkpt lat="46.2233" lon="6.15089">
        <ele>381.8</ele>
        <time>2022-09-28T06:59:57Z</time>
      </trkpt>
      <trkpt lat="46.22328" lon="6.15085">
        <ele>381.8</ele>
        <time>2022-09-28T06:59:58Z</time>
      </trkpt>
      <trkpt lat="46.22325" lon="6.15081">
        <ele>381.9</ele>
        <time>2022-09-28T06:59:59Z</time>
      </trkpt>
      <trkpt lat="46.22325" lon="6.15079">
        <ele>382</ele>
        <time>2022-09-28T07:00:00Z</time>
      </trkpt>
      <trkpt lat="46.22323" lon="6.15076">
        <ele>382.1</ele>
        <time>2022-09-28T07:00:01Z</time>
      </trkpt>
      <trkpt lat="46.22322" lon="6.15075">
        <ele>382.1</ele>
        <time>2022-09-28T07:00:02Z</time>
      </trkpt>
      <trkpt lat="46.2232" lon="6.15072">
        <ele>382.1</ele>
        <time>2022-09-28T07:00:03Z</time>
      </trkpt>
      <trkpt lat="46.22319" lon="6.15072">
        <ele>382.2</ele>
        <time>2022-09-28T07:00:04Z</time>
      </trkpt>
      <trkpt lat="46.22316" lon="6.1507">
        <ele>382.2</ele>
        <time>2022-09-28T07:00:05Z</time>
      </trkpt>
      <trkpt lat="46.22314" lon="6.15068">
        <ele>382.3</ele>
        <time>2022-09-28T07:00:06Z</time>
      </trkpt>
      <trkpt lat="46.2231" lon="6.15065">
        <ele>382.4</ele>
        <time>2022-09-28T07:00:07Z</time>
      </trkpt>
      <trkpt lat="46.22309" lon="6.15064">
        <ele>382.4</ele>
        <time>2022-09-28T07:00:08Z</time>
      </trkpt>
      <trkpt lat="46.22306" lon="6.15061">
        <ele>382.5</ele>
        <time>2022-09-28T07:00:09Z</time>
      </trkpt>
      <trkpt lat="46.22305" lon="6.1506">
        <ele>382.6</ele>
        <time>2022-09-28T07:00:10Z</time>
      </trkpt>
      <trkpt lat="46.22303" lon="6.15056">
        <ele>382.6</ele>
        <time>2022-09-28T07:00:11Z</time>
      </trkpt>
      <trkpt lat="46.22301" lon="6.15053">
        <ele>382.7</ele>
        <time>2022-09-28T07:00:12Z</time>
      </trkpt>
      <trkpt lat="46.223" lon="6.15052">
        <ele>382.7</ele>
        <time>2022-09-28T07:00:13Z</time>
      </trkpt>
      <trkpt lat="46.22298" lon="6.15049">
        <ele>382.8</ele>
        <time>2022-09-28T07:00:14Z</time>
      </trkpt>
      <trkpt lat="46.22295" lon="6.15046">
        <ele>382.9</ele>
        <time>2022-09-28T07:00:15Z</time>
      </trkpt>
      <trkpt lat="46.22294" lon="6.15044">
        <ele>382.9</ele>
        <time>2022-09-28T07:00:16Z</time>
      </trkpt>
      <trkpt lat="46.22294" lon="6.1504">
        <ele>383</ele>
        <time>2022-09-28T07:00:17Z</time>
      </trkpt>
      <trkpt lat="46.22294" lon="6.15039">
        <ele>383.1</ele>
        <time>2022-09-28T07:00:18Z</time>
      </trkpt>
      <trkpt lat="46.22293" lon="6.15036">
        <ele>383.1</ele>
        <time>2022-09-28T07:00:19Z</time>
      </trkpt>
      <trkpt lat="46.22292" lon="6.15032">
        <ele>383.2</ele>
        <time>2022-09-28T07:00:20Z</time>
      </trkpt>
      <trkpt lat="46.2229" lon="6.15027">
        <ele>383.4</ele>
        <time>2022-09-28T07:00:21Z</time>
      </trkpt>
      <trkpt lat="46.22289" lon="6.15025">
        <ele>383.4</ele>
        <time>2022-09-28T07:00:22Z</time>
      </trkpt>
      <trkpt lat="46.22289" lon="6.15021">
        <ele>383.5</ele>
        <time>2022-09-28T07:00:23Z</time>
      </trkpt>
      <trkpt lat="46.22288" lon="6.15019">
        <ele>383.8</ele>
        <time>2022-09-28T07:00:24Z</time>
      </trkpt>
      <trkpt lat="46.22288" lon="6.15015">
        <ele>383.9</ele>
        <time>2022-09-28T07:00:25Z</time>
      </trkpt>
      <trkpt lat="46.22288" lon="6.1501">
        <ele>384.1</ele>
        <time>2022-09-28T07:00:26Z</time>
      </trkpt>
      <trkpt lat="46.22289" lon="6.15009">
        <ele>384.2</ele>
        <time>2022-09-28T07:00:27Z</time>
      </trkpt>
      <trkpt lat="46.22286" lon="6.15005">
        <ele>384.4</ele>
        <time>2022-09-28T07:00:28Z</time>
      </trkpt>
      <trkpt lat="46.22286" lon="6.15003">
        <ele>384.5</ele>
        <time>2022-09-28T07:00:29Z</time>
      </trkpt>
      <trkpt lat="46.22285" lon="6.14999">
        <ele>384.7</ele>
        <time>2022-09-28T07:00:30Z</time>
      </trkpt>
      <trkpt lat="46.22285" lon="6.14998">
        <ele>384.7</ele>
        <time>2022-09-28T07:00:31Z</time>
      </trkpt>
      <trkpt lat="46.22284" lon="6.14994">
        <ele>384.9</ele>
        <time>2022-09-28T07:00:32Z</time>
      </trkpt>
      <trkpt lat="46.22284" lon="6.14993">
        <ele>385</ele>
        <time>2022-09-28T07:00:33Z</time>
      </trkpt>
      <trkpt lat="46.22282" lon="6.14988">
        <ele>385.3</ele>
        <time>2022-09-28T07:00:34Z</time>
      </trkpt>
      <trkpt lat="46.22281" lon="6.14987">
        <ele>385.3</ele>
        <time>2022-09-28T07:00:35Z</time>
      </trkpt>
      <trkpt lat="46.22279" lon="6.14984">
        <ele>385.6</ele>
        <time>2022-09-28T07:00:36Z</time>
      </trkpt>
      <trkpt lat="46.22278" lon="6.14983">
        <ele>385.6</ele>
        <time>2022-09-28T07:00:37Z</time>
      </trkpt>
      <trkpt lat="46.22277" lon="6.14981">
        <ele>385.8</ele>
        <time>2022-09-28T07:00:38Z</time>
      </trkpt>
      <trkpt lat="46.22276" lon="6.14979">
        <ele>385.9</ele>
        <time>2022-09-28T07:00:39Z</time>
      </trkpt>
      <trkpt lat="46.22274" lon="6.14976">
        <ele>386.1</ele>
        <time>2022-09-28T07:00:40Z</time>
      </trkpt>
      <trkpt lat="46.22274" lon="6.14975">
        <ele>386.2</ele>
        <time>2022-09-28T07:00:41Z</time>
      </trkpt>
      <trkpt lat="46.22273" lon="6.14972">
        <ele>386.3</ele>
        <time>2022-09-28T07:00:42Z</time>
      </trkpt>
      <trkpt lat="46.22271" lon="6.14971">
        <ele>386.4</ele>
        <time>2022-09-28T07:00:43Z</time>
      </trkpt>
      <trkpt lat="46.2227" lon="6.14969">
        <ele>386.6</ele>
        <time>2022-09-28T07:00:44Z</time>
      </trkpt>
      <trkpt lat="46.22269" lon="6.14968">
        <ele>386.7</ele>
        <time>2022-09-28T07:00:45Z</time>
      </trkpt>
      <trkpt lat="46.22268" lon="6.14967">
        <ele>386.7</ele>
        <time>2022-09-28T07:00:46Z</time>
      </trkpt>
      <trkpt lat="46.22265" lon="6.14965">
        <ele>386.9</ele>
        <time>2022-09-28T07:00:47Z</time>
      </trkpt>
      <trkpt lat="46.22265" lon="6.14965">
        <ele>387</ele>
        <time>2022-09-28T07:00:48Z</time>
      </trkpt>
      <trkpt lat="46.22263" lon="6.14963">
        <ele>387.1</ele>
        <time>2022-09-28T07:00:49Z</time>
      </trkpt>
      <trkpt lat="46.22262" lon="6.14961">
        <ele>387.2</ele>
        <time>2022-09-28T07:00:50Z</time>
      </trkpt>
      <trkpt lat="46.22261" lon="6.14958">
        <ele>387.4</ele>
        <time>2022-09-28T07:00:51Z</time>
      </trkpt>
      <trkpt lat="46.2226" lon="6.14956">
        <ele>387.4</ele>
        <time>2022-09-28T07:00:52Z</time>
      </trkpt>
      <trkpt lat="46.22259" lon="6.14955">
        <ele>387.5</ele>
        <time>2022-09-28T07:00:53Z</time>
      </trkpt>
      <trkpt lat="46.22257" lon="6.14951">
        <ele>387.7</ele>
        <time>2022-09-28T07:00:54Z</time>
      </trkpt>
      <trkpt lat="46.22256" lon="6.1495">
        <ele>387.8</ele>
        <time>2022-09-28T07:00:55Z</time>
      </trkpt>
      <trkpt lat="46.22253" lon="6.14947">
        <ele>387.9</ele>
        <time>2022-09-28T07:00:56Z</time>
      </trkpt>
      <trkpt lat="46.22253" lon="6.14946">
        <ele>387.9</ele>
        <time>2022-09-28T07:00:57Z</time>
      </trkpt>
      <trkpt lat="46.22252" lon="6.14944">
        <ele>387.9</ele>
        <time>2022-09-28T07:00:58Z</time>
      </trkpt>
      <trkpt lat="46.22251" lon="6.14943">
        <ele>387.9</ele>
        <time>2022-09-28T07:00:59Z</time>
      </trkpt>
      <trkpt lat="46.2225" lon="6.14941">
        <ele>388</ele>
        <time>2022-09-28T07:01:00Z</time>
      </trkpt>
      <trkpt lat="46.22249" lon="6.14939">
        <ele>388</ele>
        <time>2022-09-28T07:01:01Z</time>
      </trkpt>
      <trkpt lat="46.22248" lon="6.14936">
        <ele>388.1</ele>
        <time>2022-09-28T07:01:02Z</time>
      </trkpt>
      <trkpt lat="46.22247" lon="6.14935">
        <ele>388.1</ele>
        <time>2022-09-28T07:01:03Z</time>
      </trkpt>
      <trkpt lat="46.22246" lon="6.14934">
        <ele>388.1</ele>
        <time>2022-09-28T07:01:04Z</time>
      </trkpt>
      <trkpt lat="46.22245" lon="6.14933">
        <ele>388.1</ele>
        <time>2022-09-28T07:01:05Z</time>
      </trkpt>
      <trkpt lat="46.22245" lon="6.14933">
        <ele>388.1</ele>
        <time>2022-09-28T07:01:06Z</time>
      </trkpt>
      <trkpt lat="46.22245" lon="6.14932">
        <ele>388.1</ele>
        <time>2022-09-28T07:01:07Z</time>
      </trkpt>
      <trkpt lat="46.22245" lon="6.14932">
        <ele>388.1</ele>
        <time>2022-09-28T07:01:08Z</time>
      </trkpt>
      <trkpt lat="46.22245" lon="6.14932">
        <ele>388.1</ele>
        <time>2022-09-28T07:01:09Z</time>
      </trkpt>
      <trkpt lat="46.22244" lon="6.14931">
        <ele>388.1</ele>
        <time>2022-09-28T07:01:10Z</time>
      </trkpt>
      <trkpt lat="46.22245" lon="6.14929">
        <ele>388.2</ele>
        <time>2022-09-28T07:01:11Z</time>
      </trkpt>
      <trkpt lat="46.22245" lon="6.14927">
        <ele>388.2</ele>
        <time>2022-09-28T07:01:12Z</time>
      </trkpt>
      <trkpt lat="46.22246" lon="6.14925">
        <ele>388.2</ele>
        <time>2022-09-28T07:01:13Z</time>
      </trkpt>
      <trkpt lat="46.22247" lon="6.14923">
        <ele>388.3</ele>
        <time>2022-09-28T07:01:14Z</time>
      </trkpt>
      <trkpt lat="46.22248" lon="6.14921">
        <ele>388.3</ele>
        <time>2022-09-28T07:01:15Z</time>
      </trkpt>
      <trkpt lat="46.22248" lon="6.14919">
        <ele>388.1</ele>
        <time>2022-09-28T07:01:55Z</time>
      </trkpt>
      <trkpt lat="46.22249" lon="6.14917">
        <ele>388</ele>
        <time>2022-09-28T07:01:56Z</time>
      </trkpt>
      <trkpt lat="46.22253" lon="6.14916">
        <ele>388</ele>
        <time>2022-09-28T07:01:57Z</time>
      </trkpt>
      <trkpt lat="46.22254" lon="6.14916">
        <ele>387.9</ele>
        <time>2022-09-28T07:01:58Z</time>
      </trkpt>
      <trkpt lat="46.22257" lon="6.14914">
        <ele>387.9</ele>
        <time>2022-09-28T07:01:59Z</time>
      </trkpt>
      <trkpt lat="46.22258" lon="6.14913">
        <ele>387.9</ele>
        <time>2022-09-28T07:02:00Z</time>
      </trkpt>
      <trkpt lat="46.22262" lon="6.14911">
        <ele>387.8</ele>
        <time>2022-09-28T07:02:01Z</time>
      </trkpt>
      <trkpt lat="46.22263" lon="6.1491">
        <ele>387.7</ele>
        <time>2022-09-28T07:02:02Z</time>
      </trkpt>
      <trkpt lat="46.22267" lon="6.14909">
        <ele>387.7</ele>
        <time>2022-09-28T07:02:03Z</time>
      </trkpt>
      <trkpt lat="46.22271" lon="6.14905">
        <ele>387.6</ele>
        <time>2022-09-28T07:02:04Z</time>
      </trkpt>
      <trkpt lat="46.22272" lon="6.14904">
        <ele>387.5</ele>
        <time>2022-09-28T07:02:05Z</time>
      </trkpt>
      <trkpt lat="46.22276" lon="6.14903">
        <ele>387.4</ele>
        <time>2022-09-28T07:02:06Z</time>
      </trkpt>
      <trkpt lat="46.22279" lon="6.14903">
        <ele>387.4</ele>
        <time>2022-09-28T07:02:07Z</time>
      </trkpt>
      <trkpt lat="46.22282" lon="6.149">
        <ele>387.3</ele>
        <time>2022-09-28T07:02:08Z</time>
      </trkpt>
      <trkpt lat="46.22286" lon="6.14899">
        <ele>387.2</ele>
        <time>2022-09-28T07:02:09Z</time>
      </trkpt>
      <trkpt lat="46.2229" lon="6.14898">
        <ele>387.1</ele>
        <time>2022-09-28T07:02:10Z</time>
      </trkpt>
      <trkpt lat="46.22293" lon="6.14895">
        <ele>387</ele>
        <time>2022-09-28T07:02:11Z</time>
      </trkpt>
      <trkpt lat="46.22298" lon="6.14893">
        <ele>386.9</ele>
        <time>2022-09-28T07:02:12Z</time>
      </trkpt>
      <trkpt lat="46.22302" lon="6.1489">
        <ele>386.9</ele>
        <time>2022-09-28T07:02:13Z</time>
      </trkpt>
      <trkpt lat="46.22306" lon="6.14887">
        <ele>386.8</ele>
        <time>2022-09-28T07:02:14Z</time>
      </trkpt>
      <trkpt lat="46.22309" lon="6.14885">
        <ele>386.7</ele>
        <time>2022-09-28T07:02:15Z</time>
      </trkpt>
      <trkpt lat="46.22313" lon="6.14881">
        <ele>386.7</ele>
        <time>2022-09-28T07:02:16Z</time>
      </trkpt>
      <trkpt lat="46.22316" lon="6.14878">
        <ele>386.6</ele>
        <time>2022-09-28T07:02:17Z</time>
      </trkpt>
      <trkpt lat="46.22322" lon="6.14876">
        <ele>386.5</ele>
        <time>2022-09-28T07:02:18Z</time>
      </trkpt>
      <trkpt lat="46.22326" lon="6.14871">
        <ele>386.5</ele>
        <time>2022-09-28T07:02:19Z</time>
      </trkpt>
      <trkpt lat="46.22329" lon="6.14867">
        <ele>386.4</ele>
        <time>2022-09-28T07:02:20Z</time>
      </trkpt>
      <trkpt lat="46.22333" lon="6.14863">
        <ele>386.3</ele>
        <time>2022-09-28T07:02:21Z</time>
      </trkpt>
      <trkpt lat="46.22337" lon="6.14859">
        <ele>386.3</ele>
        <time>2022-09-28T07:02:22Z</time>
      </trkpt>
      <trkpt lat="46.22337" lon="6.14857">
        <ele>386.3</ele>
        <time>2022-09-28T07:02:23Z</time>
      </trkpt>
      <trkpt lat="46.22336" lon="6.14856">
        <ele>386.2</ele>
        <time>2022-09-28T07:02:24Z</time>
      </trkpt>
      <trkpt lat="46.22334" lon="6.14855">
        <ele>386.2</ele>
        <time>2022-09-28T07:02:25Z</time>
      </trkpt>
      <trkpt lat="46.2233" lon="6.14854">
        <ele>386.1</ele>
        <time>2022-09-28T07:02:26Z</time>
      </trkpt>
      <trkpt lat="46.22371" lon="6.14854">
        <ele>385.6</ele>
        <time>2022-09-28T07:02:27Z</time>
      </trkpt>
      <trkpt lat="46.22374" lon="6.14854">
        <ele>385.6</ele>
        <time>2022-09-28T07:02:28Z</time>
      </trkpt>
      <trkpt lat="46.22379" lon="6.14852">
        <ele>385.5</ele>
        <time>2022-09-28T07:02:29Z</time>
      </trkpt>
      <trkpt lat="46.22384" lon="6.1485">
        <ele>385.4</ele>
        <time>2022-09-28T07:02:30Z</time>
      </trkpt>
      <trkpt lat="46.22389" lon="6.14849">
        <ele>385.4</ele>
        <time>2022-09-28T07:02:31Z</time>
      </trkpt>
      <trkpt lat="46.22392" lon="6.14849">
        <ele>385.3</ele>
        <time>2022-09-28T07:02:32Z</time>
      </trkpt>
      <trkpt lat="46.22394" lon="6.14849">
        <ele>385.3</ele>
        <time>2022-09-28T07:02:33Z</time>
      </trkpt>
      <trkpt lat="46.22396" lon="6.1485">
        <ele>385.3</ele>
        <time>2022-09-28T07:02:34Z</time>
      </trkpt>
      <trkpt lat="46.22397" lon="6.1485">
        <ele>385.3</ele>
        <time>2022-09-28T07:02:35Z</time>
      </trkpt>
      <trkpt lat="46.22397" lon="6.1485">
        <ele>385.3</ele>
        <time>2022-09-28T07:02:36Z</time>
      </trkpt>
      <trkpt lat="46.22398" lon="6.1485">
        <ele>385.3</ele>
        <time>2022-09-28T07:02:37Z</time>
      </trkpt>
      <trkpt lat="46.22398" lon="6.1485">
        <ele>385.2</ele>
        <time>2022-09-28T07:02:38Z</time>
      </trkpt>
      <trkpt lat="46.22399" lon="6.1485">
        <ele>385.2</ele>
        <time>2022-09-28T07:02:39Z</time>
      </trkpt>
      <trkpt lat="46.224" lon="6.1485">
        <ele>385.2</ele>
        <time>2022-09-28T07:02:40Z</time>
      </trkpt>
      <trkpt lat="46.224" lon="6.1485">
        <ele>385.2</ele>
        <time>2022-09-28T07:02:41Z</time>
      </trkpt>
      <trkpt lat="46.22401" lon="6.1485">
        <ele>385.2</ele>
        <time>2022-09-28T07:02:42Z</time>
      </trkpt>
      <trkpt lat="46.22402" lon="6.14849">
        <ele>385.2</ele>
        <time>2022-09-28T07:02:43Z</time>
      </trkpt>
      <trkpt lat="46.22402" lon="6.14849">
        <ele>385.2</ele>
        <time>2022-09-28T07:02:44Z</time>
      </trkpt>
      <trkpt lat="46.22403" lon="6.14849">
        <ele>385.2</ele>
        <time>2022-09-28T07:02:47Z</time>
      </trkpt>
      <trkpt lat="46.22403" lon="6.14849">
        <ele>385.2</ele>
        <time>2022-09-28T07:02:48Z</time>
      </trkpt>
      <trkpt lat="46.22407" lon="6.14847">
        <ele>385.2</ele>
        <time>2022-09-28T07:02:49Z</time>
      </trkpt>
      <trkpt lat="46.22411" lon="6.14846">
        <ele>385.1</ele>
        <time>2022-09-28T07:02:50Z</time>
      </trkpt>
      <trkpt lat="46.22415" lon="6.14844">
        <ele>385.1</ele>
        <time>2022-09-28T07:02:51Z</time>
      </trkpt>
      <trkpt lat="46.22419" lon="6.14841">
        <ele>385</ele>
        <time>2022-09-28T07:02:52Z</time>
      </trkpt>
      <trkpt lat="46.22422" lon="6.1484">
        <ele>384.9</ele>
        <time>2022-09-28T07:02:53Z</time>
      </trkpt>
      <trkpt lat="46.22425" lon="6.14838">
        <ele>384.8</ele>
        <time>2022-09-28T07:02:54Z</time>
      </trkpt>
      <trkpt lat="46.2243" lon="6.14836">
        <ele>384.8</ele>
        <time>2022-09-28T07:02:55Z</time>
      </trkpt>
      <trkpt lat="46.22434" lon="6.14834">
        <ele>384.7</ele>
        <time>2022-09-28T07:02:56Z</time>
      </trkpt>
      <trkpt lat="46.22438" lon="6.14832">
        <ele>384.7</ele>
        <time>2022-09-28T07:02:57Z</time>
      </trkpt>
      <trkpt lat="46.22442" lon="6.14831">
        <ele>384.6</ele>
        <time>2022-09-28T07:02:58Z</time>
      </trkpt>
      <trkpt lat="46.22445" lon="6.1483">
        <ele>384.5</ele>
        <time>2022-09-28T07:02:59Z</time>
      </trkpt>
      <trkpt lat="46.22448" lon="6.14827">
        <ele>384.4</ele>
        <time>2022-09-28T07:03:00Z</time>
      </trkpt>
      <trkpt lat="46.22452" lon="6.14824">
        <ele>384.3</ele>
        <time>2022-09-28T07:03:01Z</time>
      </trkpt>
      <trkpt lat="46.22458" lon="6.14821">
        <ele>384.2</ele>
        <time>2022-09-28T07:03:02Z</time>
      </trkpt>
      <trkpt lat="46.22463" lon="6.14819">
        <ele>384.1</ele>
        <time>2022-09-28T07:03:03Z</time>
      </trkpt>
      <trkpt lat="46.22467" lon="6.14818">
        <ele>384</ele>
        <time>2022-09-28T07:03:04Z</time>
      </trkpt>
      <trkpt lat="46.22472" lon="6.14815">
        <ele>383.8</ele>
        <time>2022-09-28T07:03:05Z</time>
      </trkpt>
      <trkpt lat="46.22477" lon="6.14812">
        <ele>383.7</ele>
        <time>2022-09-28T07:03:06Z</time>
      </trkpt>
      <trkpt lat="46.22483" lon="6.1481">
        <ele>383.6</ele>
        <time>2022-09-28T07:03:07Z</time>
      </trkpt>
      <trkpt lat="46.22488" lon="6.14809">
        <ele>383.5</ele>
        <time>2022-09-28T07:03:08Z</time>
      </trkpt>
      <trkpt lat="46.22493" lon="6.14807">
        <ele>383.5</ele>
        <time>2022-09-28T07:03:09Z</time>
      </trkpt>
      <trkpt lat="46.22497" lon="6.14806">
        <ele>383.4</ele>
        <time>2022-09-28T07:03:10Z</time>
      </trkpt>
      <trkpt lat="46.22503" lon="6.14804">
        <ele>383.3</ele>
        <time>2022-09-28T07:03:11Z</time>
      </trkpt>
      <trkpt lat="46.22508" lon="6.14802">
        <ele>383.3</ele>
        <time>2022-09-28T07:03:12Z</time>
      </trkpt>
      <trkpt lat="46.22513" lon="6.14802">
        <ele>383.2</ele>
        <time>2022-09-28T07:03:13Z</time>
      </trkpt>
      <trkpt lat="46.2252" lon="6.14801">
        <ele>383.2</ele>
        <time>2022-09-28T07:03:14Z</time>
      </trkpt>
      <trkpt lat="46.22525" lon="6.148">
        <ele>383.1</ele>
        <time>2022-09-28T07:03:15Z</time>
      </trkpt>
      <trkpt lat="46.22531" lon="6.148">
        <ele>383.1</ele>
        <time>2022-09-28T07:03:16Z</time>
      </trkpt>
      <trkpt lat="46.22536" lon="6.14799">
        <ele>383</ele>
        <time>2022-09-28T07:03:17Z</time>
      </trkpt>
      <trkpt lat="46.22541" lon="6.14798">
        <ele>383</ele>
        <time>2022-09-28T07:03:18Z</time>
      </trkpt>
      <trkpt lat="46.22547" lon="6.14799">
        <ele>382.9</ele>
        <time>2022-09-28T07:03:19Z</time>
      </trkpt>
      <trkpt lat="46.22554" lon="6.14799">
        <ele>382.9</ele>
        <time>2022-09-28T07:03:20Z</time>
      </trkpt>
      <trkpt lat="46.22559" lon="6.148">
        <ele>382.9</ele>
        <time>2022-09-28T07:03:21Z</time>
      </trkpt>
      <trkpt lat="46.22566" lon="6.14801">
        <ele>382.8</ele>
        <time>2022-09-28T07:03:22Z</time>
      </trkpt>
      <trkpt lat="46.22572" lon="6.14802">
        <ele>382.8</ele>
        <time>2022-09-28T07:03:23Z</time>
      </trkpt>
      <trkpt lat="46.22577" lon="6.14804">
        <ele>382.8</ele>
        <time>2022-09-28T07:03:24Z</time>
      </trkpt>
      <trkpt lat="46.22583" lon="6.14806">
        <ele>382.7</ele>
        <time>2022-09-28T07:03:25Z</time>
      </trkpt>
      <trkpt lat="46.22589" lon="6.14807">
        <ele>382.7</ele>
        <time>2022-09-28T07:03:26Z</time>
      </trkpt>
      <trkpt lat="46.22594" lon="6.1481">
        <ele>382.7</ele>
        <time>2022-09-28T07:03:27Z</time>
      </trkpt>
      <trkpt lat="46.226" lon="6.14812">
        <ele>382.7</ele>
        <time>2022-09-28T07:03:28Z</time>
      </trkpt>
      <trkpt lat="46.22605" lon="6.14814">
        <ele>382.6</ele>
        <time>2022-09-28T07:03:29Z</time>
      </trkpt>
      <trkpt lat="46.2261" lon="6.14816">
        <ele>382.6</ele>
        <time>2022-09-28T07:03:30Z</time>
      </trkpt>
      <trkpt lat="46.22615" lon="6.14818">
        <ele>382.6</ele>
        <time>2022-09-28T07:03:31Z</time>
      </trkpt>
      <trkpt lat="46.22619" lon="6.14819">
        <ele>382.6</ele>
        <time>2022-09-28T07:03:32Z</time>
      </trkpt>
      <trkpt lat="46.22623" lon="6.14821">
        <ele>382.5</ele>
        <time>2022-09-28T07:03:33Z</time>
      </trkpt>
      <trkpt lat="46.22627" lon="6.14822">
        <ele>382.5</ele>
        <time>2022-09-28T07:03:34Z</time>
      </trkpt>
      <trkpt lat="46.22632" lon="6.14824">
        <ele>382.5</ele>
        <time>2022-09-28T07:03:35Z</time>
      </trkpt>
      <trkpt lat="46.22639" lon="6.14826">
        <ele>382.5</ele>
        <time>2022-09-28T07:03:36Z</time>
      </trkpt>
      <trkpt lat="46.22643" lon="6.14829">
        <ele>382.4</ele>
        <time>2022-09-28T07:03:37Z</time>
      </trkpt>
      <trkpt lat="46.2265" lon="6.14832">
        <ele>382.4</ele>
        <time>2022-09-28T07:03:38Z</time>
      </trkpt>
      <trkpt lat="46.22657" lon="6.14834">
        <ele>382.4</ele>
        <time>2022-09-28T07:03:39Z</time>
      </trkpt>
      <trkpt lat="46.22664" lon="6.14838">
        <ele>382.3</ele>
        <time>2022-09-28T07:03:40Z</time>
      </trkpt>
      <trkpt lat="46.22669" lon="6.14841">
        <ele>382.3</ele>
        <time>2022-09-28T07:03:41Z</time>
      </trkpt>
      <trkpt lat="46.22675" lon="6.14844">
        <ele>382.3</ele>
        <time>2022-09-28T07:03:42Z</time>
      </trkpt>
      <trkpt lat="46.22681" lon="6.14846">
        <ele>382.3</ele>
        <time>2022-09-28T07:03:43Z</time>
      </trkpt>
      <trkpt lat="46.22687" lon="6.14849">
        <ele>382.3</ele>
        <time>2022-09-28T07:03:44Z</time>
      </trkpt>
      <trkpt lat="46.22693" lon="6.14852">
        <ele>382.3</ele>
        <time>2022-09-28T07:03:45Z</time>
      </trkpt>
      <trkpt lat="46.22698" lon="6.14854">
        <ele>382.3</ele>
        <time>2022-09-28T07:03:46Z</time>
      </trkpt>
      <trkpt lat="46.22705" lon="6.14856">
        <ele>382.2</ele>
        <time>2022-09-28T07:03:47Z</time>
      </trkpt>
      <trkpt lat="46.22709" lon="6.14859">
        <ele>382.2</ele>
        <time>2022-09-28T07:03:48Z</time>
      </trkpt>
      <trkpt lat="46.22715" lon="6.14862">
        <ele>382.2</ele>
        <time>2022-09-28T07:03:49Z</time>
      </trkpt>
      <trkpt lat="46.22721" lon="6.14864">
        <ele>382.2</ele>
        <time>2022-09-28T07:03:50Z</time>
      </trkpt>
      <trkpt lat="46.22726" lon="6.14865">
        <ele>382.2</ele>
        <time>2022-09-28T07:03:51Z</time>
      </trkpt>
      <trkpt lat="46.22732" lon="6.14867">
        <ele>382.1</ele>
        <time>2022-09-28T07:03:52Z</time>
      </trkpt>
      <trkpt lat="46.22736" lon="6.14869">
        <ele>382.1</ele>
        <time>2022-09-28T07:03:53Z</time>
      </trkpt>
      <trkpt lat="46.22742" lon="6.14871">
        <ele>382.1</ele>
        <time>2022-09-28T07:03:54Z</time>
      </trkpt>
      <trkpt lat="46.22747" lon="6.14872">
        <ele>382.1</ele>
        <time>2022-09-28T07:03:55Z</time>
      </trkpt>
      <trkpt lat="46.22752" lon="6.14874">
        <ele>382.1</ele>
        <time>2022-09-28T07:03:56Z</time>
      </trkpt>
      <trkpt lat="46.22757" lon="6.14875">
        <ele>382.1</ele>
        <time>2022-09-28T07:03:57Z</time>
      </trkpt>
      <trkpt lat="46.22763" lon="6.14878">
        <ele>382</ele>
        <time>2022-09-28T07:03:58Z</time>
      </trkpt>
      <trkpt lat="46.2277" lon="6.1488">
        <ele>382</ele>
        <time>2022-09-28T07:03:59Z</time>
      </trkpt>
      <trkpt lat="46.22776" lon="6.14883">
        <ele>382</ele>
        <time>2022-09-28T07:04:00Z</time>
      </trkpt>
      <trkpt lat="46.22783" lon="6.14885">
        <ele>382</ele>
        <time>2022-09-28T07:04:01Z</time>
      </trkpt>
      <trkpt lat="46.22789" lon="6.14887">
        <ele>381.9</ele>
        <time>2022-09-28T07:04:02Z</time>
      </trkpt>
      <trkpt lat="46.22795" lon="6.1489">
        <ele>381.9</ele>
        <time>2022-09-28T07:04:03Z</time>
      </trkpt>
      <trkpt lat="46.22801" lon="6.14892">
        <ele>381.8</ele>
        <time>2022-09-28T07:04:04Z</time>
      </trkpt>
      <trkpt lat="46.22807" lon="6.14894">
        <ele>381.8</ele>
        <time>2022-09-28T07:04:05Z</time>
      </trkpt>
      <trkpt lat="46.22813" lon="6.14895">
        <ele>381.8</ele>
        <time>2022-09-28T07:04:06Z</time>
      </trkpt>
      <trkpt lat="46.22819" lon="6.14897">
        <ele>381.8</ele>
        <time>2022-09-28T07:04:07Z</time>
      </trkpt>
      <trkpt lat="46.22824" lon="6.14898">
        <ele>381.8</ele>
        <time>2022-09-28T07:04:08Z</time>
      </trkpt>
      <trkpt lat="46.2283" lon="6.14899">
        <ele>381.7</ele>
        <time>2022-09-28T07:04:09Z</time>
      </trkpt>
      <trkpt lat="46.22835" lon="6.14901">
        <ele>381.7</ele>
        <time>2022-09-28T07:04:10Z</time>
      </trkpt>
      <trkpt lat="46.22841" lon="6.14903">
        <ele>381.6</ele>
        <time>2022-09-28T07:04:11Z</time>
      </trkpt>
      <trkpt lat="46.22848" lon="6.14905">
        <ele>381.6</ele>
        <time>2022-09-28T07:04:12Z</time>
      </trkpt>
      <trkpt lat="46.22854" lon="6.14906">
        <ele>381.6</ele>
        <time>2022-09-28T07:04:13Z</time>
      </trkpt>
      <trkpt lat="46.22861" lon="6.14908">
        <ele>381.5</ele>
        <time>2022-09-28T07:04:14Z</time>
      </trkpt>
      <trkpt lat="46.22867" lon="6.1491">
        <ele>381.5</ele>
        <time>2022-09-28T07:04:15Z</time>
      </trkpt>
      <trkpt lat="46.22874" lon="6.14912">
        <ele>381.4</ele>
        <time>2022-09-28T07:04:16Z</time>
      </trkpt>
      <trkpt lat="46.22881" lon="6.14914">
        <ele>381.4</ele>
        <time>2022-09-28T07:04:17Z</time>
      </trkpt>
      <trkpt lat="46.22888" lon="6.14916">
        <ele>381.4</ele>
        <time>2022-09-28T07:04:18Z</time>
      </trkpt>
      <trkpt lat="46.22894" lon="6.14916">
        <ele>381.4</ele>
        <time>2022-09-28T07:04:19Z</time>
      </trkpt>
      <trkpt lat="46.22899" lon="6.14917">
        <ele>381.3</ele>
        <time>2022-09-28T07:04:20Z</time>
      </trkpt>
      <trkpt lat="46.22905" lon="6.14919">
        <ele>381.3</ele>
        <time>2022-09-28T07:04:21Z</time>
      </trkpt>
      <trkpt lat="46.22911" lon="6.14919">
        <ele>381.3</ele>
        <time>2022-09-28T07:04:22Z</time>
      </trkpt>
      <trkpt lat="46.22918" lon="6.14921">
        <ele>381.3</ele>
        <time>2022-09-28T07:04:23Z</time>
      </trkpt>
      <trkpt lat="46.22924" lon="6.14923">
        <ele>381.3</ele>
        <time>2022-09-28T07:04:24Z</time>
      </trkpt>
      <trkpt lat="46.22929" lon="6.14925">
        <ele>381.2</ele>
        <time>2022-09-28T07:04:25Z</time>
      </trkpt>
      <trkpt lat="46.22937" lon="6.14924">
        <ele>381.2</ele>
        <time>2022-09-28T07:04:26Z</time>
      </trkpt>
      <trkpt lat="46.22943" lon="6.14926">
        <ele>381.2</ele>
        <time>2022-09-28T07:04:27Z</time>
      </trkpt>
      <trkpt lat="46.2295" lon="6.14928">
        <ele>381.2</ele>
        <time>2022-09-28T07:04:28Z</time>
      </trkpt>
      <trkpt lat="46.22957" lon="6.1493">
        <ele>381.1</ele>
        <time>2022-09-28T07:04:29Z</time>
      </trkpt>
      <trkpt lat="46.22964" lon="6.14931">
        <ele>381.1</ele>
        <time>2022-09-28T07:04:30Z</time>
      </trkpt>
      <trkpt lat="46.2297" lon="6.14933">
        <ele>381.1</ele>
        <time>2022-09-28T07:04:31Z</time>
      </trkpt>
      <trkpt lat="46.22977" lon="6.14933">
        <ele>381.1</ele>
        <time>2022-09-28T07:04:32Z</time>
      </trkpt>
      <trkpt lat="46.22983" lon="6.14935">
        <ele>381.1</ele>
        <time>2022-09-28T07:04:33Z</time>
      </trkpt>
      <trkpt lat="46.22989" lon="6.14936">
        <ele>381.1</ele>
        <time>2022-09-28T07:04:34Z</time>
      </trkpt>
      <trkpt lat="46.22995" lon="6.14937">
        <ele>381.1</ele>
        <time>2022-09-28T07:04:35Z</time>
      </trkpt>
      <trkpt lat="46.23001" lon="6.14938">
        <ele>381.1</ele>
        <time>2022-09-28T07:04:36Z</time>
      </trkpt>
      <trkpt lat="46.23009" lon="6.14941">
        <ele>381.1</ele>
        <time>2022-09-28T07:04:37Z</time>
      </trkpt>
      <trkpt lat="46.23014" lon="6.1494">
        <ele>381.2</ele>
        <time>2022-09-28T07:04:38Z</time>
      </trkpt>
      <trkpt lat="46.23019" lon="6.1494">
        <ele>381.2</ele>
        <time>2022-09-28T07:04:39Z</time>
      </trkpt>
      <trkpt lat="46.23026" lon="6.14941">
        <ele>381.2</ele>
        <time>2022-09-28T07:04:40Z</time>
      </trkpt>
      <trkpt lat="46.23032" lon="6.14942">
        <ele>381.2</ele>
        <time>2022-09-28T07:04:41Z</time>
      </trkpt>
      <trkpt lat="46.23038" lon="6.14943">
        <ele>381.2</ele>
        <time>2022-09-28T07:04:42Z</time>
      </trkpt>
      <trkpt lat="46.23043" lon="6.14944">
        <ele>381.2</ele>
        <time>2022-09-28T07:04:43Z</time>
      </trkpt>
      <trkpt lat="46.23048" lon="6.14945">
        <ele>381.3</ele>
        <time>2022-09-28T07:04:44Z</time>
      </trkpt>
      <trkpt lat="46.23054" lon="6.14945">
        <ele>381.3</ele>
        <time>2022-09-28T07:04:45Z</time>
      </trkpt>
      <trkpt lat="46.2306" lon="6.14946">
        <ele>381.3</ele>
        <time>2022-09-28T07:04:46Z</time>
      </trkpt>
      <trkpt lat="46.23066" lon="6.14947">
        <ele>381.4</ele>
        <time>2022-09-28T07:04:47Z</time>
      </trkpt>
      <trkpt lat="46.23071" lon="6.14948">
        <ele>381.4</ele>
        <time>2022-09-28T07:04:48Z</time>
      </trkpt>
      <trkpt lat="46.23076" lon="6.14949">
        <ele>381.4</ele>
        <time>2022-09-28T07:04:49Z</time>
      </trkpt>
      <trkpt lat="46.23081" lon="6.14949">
        <ele>381.5</ele>
        <time>2022-09-28T07:04:50Z</time>
      </trkpt>
      <trkpt lat="46.23086" lon="6.14949">
        <ele>381.5</ele>
        <time>2022-09-28T07:04:51Z</time>
      </trkpt>
      <trkpt lat="46.23092" lon="6.14948">
        <ele>381.5</ele>
        <time>2022-09-28T07:04:52Z</time>
      </trkpt>
      <trkpt lat="46.23098" lon="6.14949">
        <ele>381.6</ele>
        <time>2022-09-28T07:04:53Z</time>
      </trkpt>
      <trkpt lat="46.23103" lon="6.14949">
        <ele>381.6</ele>
        <time>2022-09-28T07:04:54Z</time>
      </trkpt>
      <trkpt lat="46.23108" lon="6.14949">
        <ele>381.6</ele>
        <time>2022-09-28T07:04:55Z</time>
      </trkpt>
      <trkpt lat="46.23113" lon="6.1495">
        <ele>381.7</ele>
        <time>2022-09-28T07:04:56Z</time>
      </trkpt>
      <trkpt lat="46.23119" lon="6.14949">
        <ele>381.7</ele>
        <time>2022-09-28T07:04:57Z</time>
      </trkpt>
      <trkpt lat="46.23124" lon="6.1495">
        <ele>381.7</ele>
        <time>2022-09-28T07:04:58Z</time>
      </trkpt>
      <trkpt lat="46.23129" lon="6.1495">
        <ele>381.8</ele>
        <time>2022-09-28T07:04:59Z</time>
      </trkpt>
      <trkpt lat="46.23135" lon="6.14951">
        <ele>381.8</ele>
        <time>2022-09-28T07:05:00Z</time>
      </trkpt>
      <trkpt lat="46.2314" lon="6.14951">
        <ele>381.9</ele>
        <time>2022-09-28T07:05:01Z</time>
      </trkpt>
      <trkpt lat="46.23145" lon="6.14951">
        <ele>382</ele>
        <time>2022-09-28T07:05:02Z</time>
      </trkpt>
      <trkpt lat="46.2315" lon="6.14952">
        <ele>382</ele>
        <time>2022-09-28T07:05:03Z</time>
      </trkpt>
      <trkpt lat="46.23155" lon="6.14953">
        <ele>382.1</ele>
        <time>2022-09-28T07:05:04Z</time>
      </trkpt>
      <trkpt lat="46.23159" lon="6.14953">
        <ele>382.1</ele>
        <time>2022-09-28T07:05:05Z</time>
      </trkpt>
      <trkpt lat="46.23164" lon="6.14953">
        <ele>382.2</ele>
        <time>2022-09-28T07:05:06Z</time>
      </trkpt>
      <trkpt lat="46.2317" lon="6.14953">
        <ele>382.2</ele>
        <time>2022-09-28T07:05:07Z</time>
      </trkpt>
      <trkpt lat="46.23174" lon="6.14954">
        <ele>382.3</ele>
        <time>2022-09-28T07:05:08Z</time>
      </trkpt>
      <trkpt lat="46.23179" lon="6.14954">
        <ele>382.3</ele>
        <time>2022-09-28T07:05:09Z</time>
      </trkpt>
      <trkpt lat="46.23183" lon="6.14954">
        <ele>382.4</ele>
        <time>2022-09-28T07:05:10Z</time>
      </trkpt>
      <trkpt lat="46.23187" lon="6.14953">
        <ele>382.4</ele>
        <time>2022-09-28T07:05:11Z</time>
      </trkpt>
      <trkpt lat="46.23193" lon="6.14953">
        <ele>382.5</ele>
        <time>2022-09-28T07:05:12Z</time>
      </trkpt>
      <trkpt lat="46.23198" lon="6.14953">
        <ele>382.5</ele>
        <time>2022-09-28T07:05:13Z</time>
      </trkpt>
      <trkpt lat="46.23203" lon="6.14953">
        <ele>382.6</ele>
        <time>2022-09-28T07:05:14Z</time>
      </trkpt>
      <trkpt lat="46.23208" lon="6.14953">
        <ele>382.6</ele>
        <time>2022-09-28T07:05:15Z</time>
      </trkpt>
      <trkpt lat="46.23213" lon="6.14953">
        <ele>382.7</ele>
        <time>2022-09-28T07:05:16Z</time>
      </trkpt>
      <trkpt lat="46.23218" lon="6.14953">
        <ele>382.7</ele>
        <time>2022-09-28T07:05:17Z</time>
      </trkpt>
      <trkpt lat="46.23223" lon="6.14952">
        <ele>382.8</ele>
        <time>2022-09-28T07:05:18Z</time>
      </trkpt>
      <trkpt lat="46.23228" lon="6.14951">
        <ele>382.8</ele>
        <time>2022-09-28T07:05:19Z</time>
      </trkpt>
      <trkpt lat="46.23233" lon="6.14953">
        <ele>382.9</ele>
        <time>2022-09-28T07:05:20Z</time>
      </trkpt>
      <trkpt lat="46.23238" lon="6.14952">
        <ele>382.9</ele>
        <time>2022-09-28T07:05:21Z</time>
      </trkpt>
      <trkpt lat="46.23243" lon="6.14952">
        <ele>383</ele>
        <time>2022-09-28T07:05:22Z</time>
      </trkpt>
      <trkpt lat="46.23248" lon="6.14953">
        <ele>383</ele>
        <time>2022-09-28T07:05:23Z</time>
      </trkpt>
      <trkpt lat="46.23253" lon="6.14952">
        <ele>383.1</ele>
        <time>2022-09-28T07:05:24Z</time>
      </trkpt>
      <trkpt lat="46.23258" lon="6.14952">
        <ele>383.1</ele>
        <time>2022-09-28T07:05:25Z</time>
      </trkpt>
      <trkpt lat="46.23263" lon="6.14951">
        <ele>383.2</ele>
        <time>2022-09-28T07:05:26Z</time>
      </trkpt>
      <trkpt lat="46.23267" lon="6.1495">
        <ele>383.2</ele>
        <time>2022-09-28T07:05:27Z</time>
      </trkpt>
      <trkpt lat="46.23272" lon="6.14951">
        <ele>383.2</ele>
        <time>2022-09-28T07:05:28Z</time>
      </trkpt>
      <trkpt lat="46.23277" lon="6.14949">
        <ele>383.3</ele>
        <time>2022-09-28T07:05:29Z</time>
      </trkpt>
      <trkpt lat="46.23282" lon="6.14949">
        <ele>383.3</ele>
        <time>2022-09-28T07:05:30Z</time>
      </trkpt>
      <trkpt lat="46.23287" lon="6.14949">
        <ele>383.3</ele>
        <time>2022-09-28T07:05:31Z</time>
      </trkpt>
      <trkpt lat="46.23293" lon="6.14948">
        <ele>383.4</ele>
        <time>2022-09-28T07:05:32Z</time>
      </trkpt>
      <trkpt lat="46.23296" lon="6.14948">
        <ele>383.4</ele>
        <time>2022-09-28T07:05:33Z</time>
      </trkpt>
      <trkpt lat="46.23301" lon="6.14947">
        <ele>383.4</ele>
        <time>2022-09-28T07:05:34Z</time>
      </trkpt>
      <trkpt lat="46.23305" lon="6.14947">
        <ele>383.5</ele>
        <time>2022-09-28T07:05:35Z</time>
      </trkpt>
      <trkpt lat="46.2331" lon="6.14946">
        <ele>383.5</ele>
        <time>2022-09-28T07:05:36Z</time>
      </trkpt>
      <trkpt lat="46.23314" lon="6.14946">
        <ele>383.5</ele>
        <time>2022-09-28T07:05:37Z</time>
      </trkpt>
      <trkpt lat="46.23319" lon="6.14945">
        <ele>383.5</ele>
        <time>2022-09-28T07:05:38Z</time>
      </trkpt>
      <trkpt lat="46.23324" lon="6.14945">
        <ele>383.6</ele>
        <time>2022-09-28T07:05:39Z</time>
      </trkpt>
      <trkpt lat="46.23329" lon="6.14944">
        <ele>383.6</ele>
        <time>2022-09-28T07:05:40Z</time>
      </trkpt>
      <trkpt lat="46.23333" lon="6.14944">
        <ele>383.6</ele>
        <time>2022-09-28T07:05:41Z</time>
      </trkpt>
      <trkpt lat="46.23337" lon="6.14943">
        <ele>383.7</ele>
        <time>2022-09-28T07:05:42Z</time>
      </trkpt>
      <trkpt lat="46.23342" lon="6.14942">
        <ele>383.7</ele>
        <time>2022-09-28T07:05:43Z</time>
      </trkpt>
      <trkpt lat="46.23347" lon="6.14941">
        <ele>383.7</ele>
        <time>2022-09-28T07:05:44Z</time>
      </trkpt>
      <trkpt lat="46.23352" lon="6.1494">
        <ele>383.7</ele>
        <time>2022-09-28T07:05:45Z</time>
      </trkpt>
      <trkpt lat="46.23357" lon="6.1494">
        <ele>383.8</ele>
        <time>2022-09-28T07:05:46Z</time>
      </trkpt>
      <trkpt lat="46.23361" lon="6.1494">
        <ele>383.8</ele>
        <time>2022-09-28T07:05:47Z</time>
      </trkpt>
      <trkpt lat="46.23368" lon="6.14939">
        <ele>383.8</ele>
        <time>2022-09-28T07:05:48Z</time>
      </trkpt>
      <trkpt lat="46.23373" lon="6.14938">
        <ele>383.8</ele>
        <time>2022-09-28T07:05:49Z</time>
      </trkpt>
      <trkpt lat="46.23378" lon="6.14938">
        <ele>383.9</ele>
        <time>2022-09-28T07:05:50Z</time>
      </trkpt>
      <trkpt lat="46.23383" lon="6.14937">
        <ele>383.9</ele>
        <time>2022-09-28T07:05:51Z</time>
      </trkpt>
      <trkpt lat="46.23387" lon="6.14936">
        <ele>383.9</ele>
        <time>2022-09-28T07:05:52Z</time>
      </trkpt>
      <trkpt lat="46.23393" lon="6.14936">
        <ele>383.9</ele>
        <time>2022-09-28T07:05:53Z</time>
      </trkpt>
      <trkpt lat="46.23398" lon="6.14935">
        <ele>384</ele>
        <time>2022-09-28T07:05:54Z</time>
      </trkpt>
      <trkpt lat="46.23403" lon="6.14936">
        <ele>384</ele>
        <time>2022-09-28T07:05:55Z</time>
      </trkpt>
      <trkpt lat="46.23408" lon="6.14935">
        <ele>384</ele>
        <time>2022-09-28T07:05:56Z</time>
      </trkpt>
      <trkpt lat="46.23413" lon="6.14933">
        <ele>384</ele>
        <time>2022-09-28T07:05:57Z</time>
      </trkpt>
      <trkpt lat="46.23418" lon="6.14932">
        <ele>384</ele>
        <time>2022-09-28T07:05:58Z</time>
      </trkpt>
      <trkpt lat="46.23423" lon="6.14932">
        <ele>384.1</ele>
        <time>2022-09-28T07:05:59Z</time>
      </trkpt>
      <trkpt lat="46.23429" lon="6.14932">
        <ele>384.1</ele>
        <time>2022-09-28T07:06:00Z</time>
      </trkpt>
      <trkpt lat="46.23433" lon="6.14931">
        <ele>384.1</ele>
        <time>2022-09-28T07:06:01Z</time>
      </trkpt>
      <trkpt lat="46.23438" lon="6.14931">
        <ele>384.1</ele>
        <time>2022-09-28T07:06:02Z</time>
      </trkpt>
      <trkpt lat="46.23443" lon="6.14931">
        <ele>384.1</ele>
        <time>2022-09-28T07:06:03Z</time>
      </trkpt>
      <trkpt lat="46.23448" lon="6.1493">
        <ele>384.2</ele>
        <time>2022-09-28T07:06:04Z</time>
      </trkpt>
      <trkpt lat="46.23453" lon="6.14929">
        <ele>384.2</ele>
        <time>2022-09-28T07:06:05Z</time>
      </trkpt>
      <trkpt lat="46.23457" lon="6.14929">
        <ele>384.2</ele>
        <time>2022-09-28T07:06:06Z</time>
      </trkpt>
      <trkpt lat="46.23462" lon="6.14928">
        <ele>384.2</ele>
        <time>2022-09-28T07:06:07Z</time>
      </trkpt>
      <trkpt lat="46.23467" lon="6.14927">
        <ele>384.2</ele>
        <time>2022-09-28T07:06:08Z</time>
      </trkpt>
      <trkpt lat="46.23471" lon="6.14927">
        <ele>384.2</ele>
        <time>2022-09-28T07:06:09Z</time>
      </trkpt>
      <trkpt lat="46.23476" lon="6.14927">
        <ele>384.2</ele>
        <time>2022-09-28T07:06:10Z</time>
      </trkpt>
      <trkpt lat="46.23481" lon="6.14926">
        <ele>384.2</ele>
        <time>2022-09-28T07:06:11Z</time>
      </trkpt>
      <trkpt lat="46.23485" lon="6.14923">
        <ele>384.2</ele>
        <time>2022-09-28T07:06:12Z</time>
      </trkpt>
      <trkpt lat="46.23488" lon="6.14924">
        <ele>384.3</ele>
        <time>2022-09-28T07:06:13Z</time>
      </trkpt>
      <trkpt lat="46.23493" lon="6.14923">
        <ele>384.3</ele>
        <time>2022-09-28T07:06:14Z</time>
      </trkpt>
      <trkpt lat="46.23498" lon="6.14923">
        <ele>384.3</ele>
        <time>2022-09-28T07:06:15Z</time>
      </trkpt>
      <trkpt lat="46.23503" lon="6.14923">
        <ele>384.3</ele>
        <time>2022-09-28T07:06:16Z</time>
      </trkpt>
      <trkpt lat="46.23508" lon="6.14923">
        <ele>384.3</ele>
        <time>2022-09-28T07:06:17Z</time>
      </trkpt>
      <trkpt lat="46.23514" lon="6.14922">
        <ele>384.3</ele>
        <time>2022-09-28T07:06:18Z</time>
      </trkpt>
      <trkpt lat="46.2352" lon="6.14921">
        <ele>384.4</ele>
        <time>2022-09-28T07:06:19Z</time>
      </trkpt>
      <trkpt lat="46.23525" lon="6.14921">
        <ele>384.4</ele>
        <time>2022-09-28T07:06:20Z</time>
      </trkpt>
      <trkpt lat="46.23531" lon="6.14922">
        <ele>384.4</ele>
        <time>2022-09-28T07:06:21Z</time>
      </trkpt>
      <trkpt lat="46.23536" lon="6.14922">
        <ele>384.4</ele>
        <time>2022-09-28T07:06:22Z</time>
      </trkpt>
      <trkpt lat="46.23541" lon="6.14921">
        <ele>384.4</ele>
        <time>2022-09-28T07:06:23Z</time>
      </trkpt>
      <trkpt lat="46.23545" lon="6.14921">
        <ele>384.4</ele>
        <time>2022-09-28T07:06:24Z</time>
      </trkpt>
      <trkpt lat="46.2355" lon="6.1492">
        <ele>384.4</ele>
        <time>2022-09-28T07:06:25Z</time>
      </trkpt>
      <trkpt lat="46.23555" lon="6.1492">
        <ele>384.5</ele>
        <time>2022-09-28T07:06:26Z</time>
      </trkpt>
      <trkpt lat="46.2356" lon="6.14919">
        <ele>384.5</ele>
        <time>2022-09-28T07:06:27Z</time>
      </trkpt>
      <trkpt lat="46.23565" lon="6.14919">
        <ele>384.5</ele>
        <time>2022-09-28T07:06:28Z</time>
      </trkpt>
      <trkpt lat="46.2357" lon="6.14918">
        <ele>384.5</ele>
        <time>2022-09-28T07:06:29Z</time>
      </trkpt>
      <trkpt lat="46.23576" lon="6.14918">
        <ele>384.5</ele>
        <time>2022-09-28T07:06:30Z</time>
      </trkpt>
      <trkpt lat="46.2358" lon="6.14918">
        <ele>384.5</ele>
        <time>2022-09-28T07:06:31Z</time>
      </trkpt>
      <trkpt lat="46.23585" lon="6.14917">
        <ele>384.6</ele>
        <time>2022-09-28T07:06:32Z</time>
      </trkpt>
      <trkpt lat="46.2359" lon="6.14916">
        <ele>384.6</ele>
        <time>2022-09-28T07:06:33Z</time>
      </trkpt>
      <trkpt lat="46.23595" lon="6.14916">
        <ele>384.6</ele>
        <time>2022-09-28T07:06:34Z</time>
      </trkpt>
      <trkpt lat="46.236" lon="6.14915">
        <ele>384.6</ele>
        <time>2022-09-28T07:06:35Z</time>
      </trkpt>
      <trkpt lat="46.23605" lon="6.14915">
        <ele>384.7</ele>
        <time>2022-09-28T07:06:36Z</time>
      </trkpt>
      <trkpt lat="46.23611" lon="6.14915">
        <ele>384.7</ele>
        <time>2022-09-28T07:06:37Z</time>
      </trkpt>
      <trkpt lat="46.23615" lon="6.14915">
        <ele>384.7</ele>
        <time>2022-09-28T07:06:38Z</time>
      </trkpt>
      <trkpt lat="46.2362" lon="6.14914">
        <ele>384.7</ele>
        <time>2022-09-28T07:06:39Z</time>
      </trkpt>
      <trkpt lat="46.23625" lon="6.14913">
        <ele>384.8</ele>
        <time>2022-09-28T07:06:40Z</time>
      </trkpt>
      <trkpt lat="46.2363" lon="6.14913">
        <ele>384.8</ele>
        <time>2022-09-28T07:06:41Z</time>
      </trkpt>
      <trkpt lat="46.23635" lon="6.14913">
        <ele>384.8</ele>
        <time>2022-09-28T07:06:42Z</time>
      </trkpt>
      <trkpt lat="46.23639" lon="6.14913">
        <ele>384.8</ele>
        <time>2022-09-28T07:06:43Z</time>
      </trkpt>
      <trkpt lat="46.23644" lon="6.14913">
        <ele>384.8</ele>
        <time>2022-09-28T07:06:44Z</time>
      </trkpt>
      <trkpt lat="46.23648" lon="6.14912">
        <ele>384.8</ele>
        <time>2022-09-28T07:06:45Z</time>
      </trkpt>
      <trkpt lat="46.23652" lon="6.14912">
        <ele>384.9</ele>
        <time>2022-09-28T07:06:46Z</time>
      </trkpt>
      <trkpt lat="46.23656" lon="6.1491">
        <ele>384.9</ele>
        <time>2022-09-28T07:06:47Z</time>
      </trkpt>
      <trkpt lat="46.2366" lon="6.14909">
        <ele>384.9</ele>
        <time>2022-09-28T07:06:48Z</time>
      </trkpt>
      <trkpt lat="46.23664" lon="6.14908">
        <ele>384.9</ele>
        <time>2022-09-28T07:06:49Z</time>
      </trkpt>
      <trkpt lat="46.23668" lon="6.14908">
        <ele>384.9</ele>
        <time>2022-09-28T07:06:50Z</time>
      </trkpt>
      <trkpt lat="46.23673" lon="6.14908">
        <ele>385</ele>
        <time>2022-09-28T07:06:51Z</time>
      </trkpt>
      <trkpt lat="46.23676" lon="6.14907">
        <ele>385</ele>
        <time>2022-09-28T07:06:52Z</time>
      </trkpt>
      <trkpt lat="46.2368" lon="6.14906">
        <ele>385</ele>
        <time>2022-09-28T07:06:53Z</time>
      </trkpt>
      <trkpt lat="46.23683" lon="6.14907">
        <ele>385</ele>
        <time>2022-09-28T07:06:54Z</time>
      </trkpt>
      <trkpt lat="46.23684" lon="6.14907">
        <ele>385</ele>
        <time>2022-09-28T07:06:55Z</time>
      </trkpt>
      <trkpt lat="46.23687" lon="6.14908">
        <ele>385</ele>
        <time>2022-09-28T07:06:56Z</time>
      </trkpt>
      <trkpt lat="46.23691" lon="6.14909">
        <ele>385</ele>
        <time>2022-09-28T07:06:57Z</time>
      </trkpt>
      <trkpt lat="46.23694" lon="6.1491">
        <ele>385</ele>
        <time>2022-09-28T07:06:58Z</time>
      </trkpt>
      <trkpt lat="46.23696" lon="6.14911">
        <ele>385</ele>
        <time>2022-09-28T07:06:59Z</time>
      </trkpt>
      <trkpt lat="46.23699" lon="6.1491">
        <ele>385</ele>
        <time>2022-09-28T07:07:00Z</time>
      </trkpt>
      <trkpt lat="46.23702" lon="6.1491">
        <ele>385</ele>
        <time>2022-09-28T07:07:01Z</time>
      </trkpt>
      <trkpt lat="46.23706" lon="6.1491">
        <ele>385.1</ele>
        <time>2022-09-28T07:07:02Z</time>
      </trkpt>
      <trkpt lat="46.23709" lon="6.1491">
        <ele>385.1</ele>
        <time>2022-09-28T07:07:03Z</time>
      </trkpt>
      <trkpt lat="46.23713" lon="6.1491">
        <ele>385.1</ele>
        <time>2022-09-28T07:07:04Z</time>
      </trkpt>
      <trkpt lat="46.23717" lon="6.1491">
        <ele>385.1</ele>
        <time>2022-09-28T07:07:05Z</time>
      </trkpt>
      <trkpt lat="46.23721" lon="6.14909">
        <ele>385.1</ele>
        <time>2022-09-28T07:07:06Z</time>
      </trkpt>
      <trkpt lat="46.23725" lon="6.14909">
        <ele>385.1</ele>
        <time>2022-09-28T07:07:07Z</time>
      </trkpt>
      <trkpt lat="46.23729" lon="6.1491">
        <ele>385.1</ele>
        <time>2022-09-28T07:07:08Z</time>
      </trkpt>
      <trkpt lat="46.23733" lon="6.14912">
        <ele>385.1</ele>
        <time>2022-09-28T07:07:09Z</time>
      </trkpt>
      <trkpt lat="46.23738" lon="6.14913">
        <ele>385.1</ele>
        <time>2022-09-28T07:07:10Z</time>
      </trkpt>
      <trkpt lat="46.23743" lon="6.14914">
        <ele>385.2</ele>
        <time>2022-09-28T07:07:11Z</time>
      </trkpt>
      <trkpt lat="46.23747" lon="6.14914">
        <ele>385.2</ele>
        <time>2022-09-28T07:07:12Z</time>
      </trkpt>
      <trkpt lat="46.23751" lon="6.14914">
        <ele>385.2</ele>
        <time>2022-09-28T07:07:13Z</time>
      </trkpt>
      <trkpt lat="46.23756" lon="6.14914">
        <ele>385.2</ele>
        <time>2022-09-28T07:07:14Z</time>
      </trkpt>
      <trkpt lat="46.2376" lon="6.14914">
        <ele>385.2</ele>
        <time>2022-09-28T07:07:15Z</time>
      </trkpt>
      <trkpt lat="46.23765" lon="6.14914">
        <ele>385.2</ele>
        <time>2022-09-28T07:07:16Z</time>
      </trkpt>
      <trkpt lat="46.2377" lon="6.14915">
        <ele>385.3</ele>
        <time>2022-09-28T07:07:17Z</time>
      </trkpt>
      <trkpt lat="46.23774" lon="6.14915">
        <ele>385.3</ele>
        <time>2022-09-28T07:07:18Z</time>
      </trkpt>
      <trkpt lat="46.23778" lon="6.14915">
        <ele>385.3</ele>
        <time>2022-09-28T07:07:19Z</time>
      </trkpt>
      <trkpt lat="46.23782" lon="6.14916">
        <ele>385.3</ele>
        <time>2022-09-28T07:07:20Z</time>
      </trkpt>
      <trkpt lat="46.23787" lon="6.14916">
        <ele>385.3</ele>
        <time>2022-09-28T07:07:21Z</time>
      </trkpt>
      <trkpt lat="46.23791" lon="6.14916">
        <ele>385.4</ele>
        <time>2022-09-28T07:07:22Z</time>
      </trkpt>
      <trkpt lat="46.23795" lon="6.14917">
        <ele>385.4</ele>
        <time>2022-09-28T07:07:23Z</time>
      </trkpt>
      <trkpt lat="46.23801" lon="6.14918">
        <ele>385.4</ele>
        <time>2022-09-28T07:07:24Z</time>
      </trkpt>
      <trkpt lat="46.23805" lon="6.14919">
        <ele>385.4</ele>
        <time>2022-09-28T07:07:25Z</time>
      </trkpt>
      <trkpt lat="46.2381" lon="6.1492">
        <ele>385.4</ele>
        <time>2022-09-28T07:07:26Z</time>
      </trkpt>
      <trkpt lat="46.23815" lon="6.1492">
        <ele>385.5</ele>
        <time>2022-09-28T07:07:27Z</time>
      </trkpt>
      <trkpt lat="46.2382" lon="6.14922">
        <ele>385.5</ele>
        <time>2022-09-28T07:07:28Z</time>
      </trkpt>
      <trkpt lat="46.23825" lon="6.14923">
        <ele>385.5</ele>
        <time>2022-09-28T07:07:29Z</time>
      </trkpt>
      <trkpt lat="46.23829" lon="6.14923">
        <ele>385.5</ele>
        <time>2022-09-28T07:07:30Z</time>
      </trkpt>
      <trkpt lat="46.23833" lon="6.14925">
        <ele>385.5</ele>
        <time>2022-09-28T07:07:31Z</time>
      </trkpt>
      <trkpt lat="46.23837" lon="6.14926">
        <ele>385.6</ele>
        <time>2022-09-28T07:07:32Z</time>
      </trkpt>
      <trkpt lat="46.23841" lon="6.14927">
        <ele>385.6</ele>
        <time>2022-09-28T07:07:33Z</time>
      </trkpt>
      <trkpt lat="46.23846" lon="6.14928">
        <ele>385.6</ele>
        <time>2022-09-28T07:07:34Z</time>
      </trkpt>
      <trkpt lat="46.23849" lon="6.14929">
        <ele>385.7</ele>
        <time>2022-09-28T07:07:35Z</time>
      </trkpt>
      <trkpt lat="46.23854" lon="6.14929">
        <ele>385.7</ele>
        <time>2022-09-28T07:07:36Z</time>
      </trkpt>
      <trkpt lat="46.23858" lon="6.1493">
        <ele>385.7</ele>
        <time>2022-09-28T07:07:37Z</time>
      </trkpt>
      <trkpt lat="46.23862" lon="6.1493">
        <ele>385.8</ele>
        <time>2022-09-28T07:07:38Z</time>
      </trkpt>
      <trkpt lat="46.23866" lon="6.14929">
        <ele>385.8</ele>
        <time>2022-09-28T07:07:39Z</time>
      </trkpt>
      <trkpt lat="46.23869" lon="6.14927">
        <ele>385.8</ele>
        <time>2022-09-28T07:07:40Z</time>
      </trkpt>
      <trkpt lat="46.23873" lon="6.14927">
        <ele>385.8</ele>
        <time>2022-09-28T07:07:41Z</time>
      </trkpt>
      <trkpt lat="46.23877" lon="6.14929">
        <ele>385.9</ele>
        <time>2022-09-28T07:07:42Z</time>
      </trkpt>
      <trkpt lat="46.2388" lon="6.14931">
        <ele>385.9</ele>
        <time>2022-09-28T07:07:43Z</time>
      </trkpt>
      <trkpt lat="46.23881" lon="6.14932">
        <ele>385.9</ele>
        <time>2022-09-28T07:07:44Z</time>
      </trkpt>
      <trkpt lat="46.23884" lon="6.14932">
        <ele>385.9</ele>
        <time>2022-09-28T07:07:45Z</time>
      </trkpt>
      <trkpt lat="46.23887" lon="6.14933">
        <ele>386</ele>
        <time>2022-09-28T07:07:46Z</time>
      </trkpt>
      <trkpt lat="46.23891" lon="6.14934">
        <ele>386</ele>
        <time>2022-09-28T07:07:47Z</time>
      </trkpt>
      <trkpt lat="46.23895" lon="6.14936">
        <ele>386</ele>
        <time>2022-09-28T07:07:48Z</time>
      </trkpt>
      <trkpt lat="46.23899" lon="6.14937">
        <ele>386</ele>
        <time>2022-09-28T07:07:49Z</time>
      </trkpt>
      <trkpt lat="46.23903" lon="6.14938">
        <ele>386</ele>
        <time>2022-09-28T07:07:50Z</time>
      </trkpt>
      <trkpt lat="46.23907" lon="6.14941">
        <ele>386.1</ele>
        <time>2022-09-28T07:07:51Z</time>
      </trkpt>
      <trkpt lat="46.23908" lon="6.14941">
        <ele>386.1</ele>
        <time>2022-09-28T07:07:52Z</time>
      </trkpt>
      <trkpt lat="46.23911" lon="6.14942">
        <ele>386.1</ele>
        <time>2022-09-28T07:07:53Z</time>
      </trkpt>
      <trkpt lat="46.23914" lon="6.14943">
        <ele>386.1</ele>
        <time>2022-09-28T07:07:54Z</time>
      </trkpt>
      <trkpt lat="46.23918" lon="6.14944">
        <ele>386.1</ele>
        <time>2022-09-28T07:07:55Z</time>
      </trkpt>
      <trkpt lat="46.23922" lon="6.14946">
        <ele>386.1</ele>
        <time>2022-09-28T07:07:56Z</time>
      </trkpt>
      <trkpt lat="46.23927" lon="6.14948">
        <ele>386.2</ele>
        <time>2022-09-28T07:07:57Z</time>
      </trkpt>
      <trkpt lat="46.23931" lon="6.1495">
        <ele>386.2</ele>
        <time>2022-09-28T07:07:58Z</time>
      </trkpt>
      <trkpt lat="46.23935" lon="6.14951">
        <ele>386.2</ele>
        <time>2022-09-28T07:07:59Z</time>
      </trkpt>
      <trkpt lat="46.23938" lon="6.14953">
        <ele>386.2</ele>
        <time>2022-09-28T07:08:00Z</time>
      </trkpt>
      <trkpt lat="46.23943" lon="6.14955">
        <ele>386.2</ele>
        <time>2022-09-28T07:08:01Z</time>
      </trkpt>
      <trkpt lat="46.23947" lon="6.14958">
        <ele>386.2</ele>
        <time>2022-09-28T07:08:02Z</time>
      </trkpt>
      <trkpt lat="46.23952" lon="6.14959">
        <ele>386.1</ele>
        <time>2022-09-28T07:08:03Z</time>
      </trkpt>
      <trkpt lat="46.23957" lon="6.14962">
        <ele>386.1</ele>
        <time>2022-09-28T07:08:04Z</time>
      </trkpt>
      <trkpt lat="46.2396" lon="6.14964">
        <ele>386.1</ele>
        <time>2022-09-28T07:08:05Z</time>
      </trkpt>
      <trkpt lat="46.23967" lon="6.14968">
        <ele>386.1</ele>
        <time>2022-09-28T07:08:06Z</time>
      </trkpt>
      <trkpt lat="46.23973" lon="6.14972">
        <ele>386</ele>
        <time>2022-09-28T07:08:07Z</time>
      </trkpt>
      <trkpt lat="46.23979" lon="6.14977">
        <ele>386</ele>
        <time>2022-09-28T07:08:08Z</time>
      </trkpt>
      <trkpt lat="46.23984" lon="6.14979">
        <ele>386</ele>
        <time>2022-09-28T07:08:09Z</time>
      </trkpt>
      <trkpt lat="46.23987" lon="6.1498">
        <ele>386</ele>
        <time>2022-09-28T07:08:10Z</time>
      </trkpt>
      <trkpt lat="46.23991" lon="6.14983">
        <ele>386</ele>
        <time>2022-09-28T07:08:11Z</time>
      </trkpt>
      <trkpt lat="46.23994" lon="6.14985">
        <ele>386</ele>
        <time>2022-09-28T07:08:12Z</time>
      </trkpt>
      <trkpt lat="46.23998" lon="6.14988">
        <ele>386</ele>
        <time>2022-09-28T07:08:13Z</time>
      </trkpt>
      <trkpt lat="46.24002" lon="6.1499">
        <ele>386</ele>
        <time>2022-09-28T07:08:14Z</time>
      </trkpt>
      <trkpt lat="46.24006" lon="6.14993">
        <ele>386</ele>
        <time>2022-09-28T07:08:15Z</time>
      </trkpt>
      <trkpt lat="46.2401" lon="6.14997">
        <ele>386</ele>
        <time>2022-09-28T07:08:16Z</time>
      </trkpt>
      <trkpt lat="46.24017" lon="6.15">
        <ele>385.9</ele>
        <time>2022-09-28T07:08:17Z</time>
      </trkpt>
      <trkpt lat="46.24021" lon="6.15004">
        <ele>385.9</ele>
        <time>2022-09-28T07:08:18Z</time>
      </trkpt>
      <trkpt lat="46.24026" lon="6.15007">
        <ele>385.9</ele>
        <time>2022-09-28T07:08:19Z</time>
      </trkpt>
      <trkpt lat="46.24029" lon="6.15009">
        <ele>385.9</ele>
        <time>2022-09-28T07:08:20Z</time>
      </trkpt>
      <trkpt lat="46.24036" lon="6.15013">
        <ele>385.8</ele>
        <time>2022-09-28T07:08:21Z</time>
      </trkpt>
      <trkpt lat="46.24041" lon="6.15016">
        <ele>385.8</ele>
        <time>2022-09-28T07:08:22Z</time>
      </trkpt>
      <trkpt lat="46.24046" lon="6.15021">
        <ele>385.7</ele>
        <time>2022-09-28T07:08:23Z</time>
      </trkpt>
      <trkpt lat="46.24053" lon="6.15025">
        <ele>385.6</ele>
        <time>2022-09-28T07:08:24Z</time>
      </trkpt>
      <trkpt lat="46.24058" lon="6.15029">
        <ele>385.5</ele>
        <time>2022-09-28T07:08:25Z</time>
      </trkpt>
      <trkpt lat="46.24064" lon="6.15034">
        <ele>385.4</ele>
        <time>2022-09-28T07:08:26Z</time>
      </trkpt>
      <trkpt lat="46.2407" lon="6.15038">
        <ele>385.4</ele>
        <time>2022-09-28T07:08:27Z</time>
      </trkpt>
      <trkpt lat="46.24075" lon="6.15041">
        <ele>385.3</ele>
        <time>2022-09-28T07:08:28Z</time>
      </trkpt>
      <trkpt lat="46.2408" lon="6.15045">
        <ele>385.2</ele>
        <time>2022-09-28T07:08:29Z</time>
      </trkpt>
      <trkpt lat="46.24085" lon="6.15049">
        <ele>385.1</ele>
        <time>2022-09-28T07:08:30Z</time>
      </trkpt>
      <trkpt lat="46.24089" lon="6.15053">
        <ele>385.1</ele>
        <time>2022-09-28T07:08:31Z</time>
      </trkpt>
      <trkpt lat="46.24094" lon="6.15058">
        <ele>385</ele>
        <time>2022-09-28T07:08:32Z</time>
      </trkpt>
      <trkpt lat="46.24099" lon="6.15062">
        <ele>384.9</ele>
        <time>2022-09-28T07:08:33Z</time>
      </trkpt>
      <trkpt lat="46.24104" lon="6.15067">
        <ele>384.8</ele>
        <time>2022-09-28T07:08:34Z</time>
      </trkpt>
      <trkpt lat="46.2411" lon="6.15071">
        <ele>384.7</ele>
        <time>2022-09-28T07:08:35Z</time>
      </trkpt>
      <trkpt lat="46.24115" lon="6.15075">
        <ele>384.7</ele>
        <time>2022-09-28T07:08:36Z</time>
      </trkpt>
      <trkpt lat="46.2412" lon="6.15079">
        <ele>384.6</ele>
        <time>2022-09-28T07:08:37Z</time>
      </trkpt>
      <trkpt lat="46.24125" lon="6.15083">
        <ele>384.5</ele>
        <time>2022-09-28T07:08:38Z</time>
      </trkpt>
      <trkpt lat="46.24131" lon="6.15087">
        <ele>384.5</ele>
        <time>2022-09-28T07:08:39Z</time>
      </trkpt>
      <trkpt lat="46.24136" lon="6.15091">
        <ele>384.4</ele>
        <time>2022-09-28T07:08:40Z</time>
      </trkpt>
      <trkpt lat="46.24142" lon="6.15096">
        <ele>384.3</ele>
        <time>2022-09-28T07:08:41Z</time>
      </trkpt>
      <trkpt lat="46.24147" lon="6.151">
        <ele>384.2</ele>
        <time>2022-09-28T07:08:42Z</time>
      </trkpt>
      <trkpt lat="46.24153" lon="6.15104">
        <ele>384.1</ele>
        <time>2022-09-28T07:08:43Z</time>
      </trkpt>
      <trkpt lat="46.24159" lon="6.15108">
        <ele>384</ele>
        <time>2022-09-28T07:08:44Z</time>
      </trkpt>
      <trkpt lat="46.24164" lon="6.15112">
        <ele>383.9</ele>
        <time>2022-09-28T07:08:45Z</time>
      </trkpt>
      <trkpt lat="46.2417" lon="6.15116">
        <ele>383.8</ele>
        <time>2022-09-28T07:08:46Z</time>
      </trkpt>
      <trkpt lat="46.24175" lon="6.1512">
        <ele>383.8</ele>
        <time>2022-09-28T07:08:47Z</time>
      </trkpt>
      <trkpt lat="46.24182" lon="6.15123">
        <ele>383.7</ele>
        <time>2022-09-28T07:08:48Z</time>
      </trkpt>
      <trkpt lat="46.24189" lon="6.15128">
        <ele>383.6</ele>
        <time>2022-09-28T07:08:49Z</time>
      </trkpt>
      <trkpt lat="46.24194" lon="6.15132">
        <ele>383.5</ele>
        <time>2022-09-28T07:08:50Z</time>
      </trkpt>
      <trkpt lat="46.242" lon="6.15136">
        <ele>383.4</ele>
        <time>2022-09-28T07:08:51Z</time>
      </trkpt>
      <trkpt lat="46.24206" lon="6.1514">
        <ele>383.4</ele>
        <time>2022-09-28T07:08:52Z</time>
      </trkpt>
      <trkpt lat="46.24213" lon="6.15144">
        <ele>383.3</ele>
        <time>2022-09-28T07:08:53Z</time>
      </trkpt>
      <trkpt lat="46.24218" lon="6.15147">
        <ele>383.3</ele>
        <time>2022-09-28T07:08:54Z</time>
      </trkpt>
      <trkpt lat="46.24225" lon="6.1515">
        <ele>383.2</ele>
        <time>2022-09-28T07:08:55Z</time>
      </trkpt>
      <trkpt lat="46.24231" lon="6.15155">
        <ele>383.2</ele>
        <time>2022-09-28T07:08:56Z</time>
      </trkpt>
      <trkpt lat="46.24238" lon="6.15158">
        <ele>383.1</ele>
        <time>2022-09-28T07:08:57Z</time>
      </trkpt>
      <trkpt lat="46.24244" lon="6.15162">
        <ele>383.1</ele>
        <time>2022-09-28T07:08:58Z</time>
      </trkpt>
      <trkpt lat="46.2425" lon="6.15165">
        <ele>383</ele>
        <time>2022-09-28T07:08:59Z</time>
      </trkpt>
      <trkpt lat="46.24256" lon="6.15168">
        <ele>383</ele>
        <time>2022-09-28T07:09:00Z</time>
      </trkpt>
      <trkpt lat="46.24263" lon="6.15171">
        <ele>382.9</ele>
        <time>2022-09-28T07:09:01Z</time>
      </trkpt>
      <trkpt lat="46.24269" lon="6.15173">
        <ele>382.9</ele>
        <time>2022-09-28T07:09:02Z</time>
      </trkpt>
      <trkpt lat="46.24276" lon="6.15175">
        <ele>382.8</ele>
        <time>2022-09-28T07:09:03Z</time>
      </trkpt>
      <trkpt lat="46.24281" lon="6.15178">
        <ele>382.8</ele>
        <time>2022-09-28T07:09:04Z</time>
      </trkpt>
      <trkpt lat="46.24287" lon="6.1518">
        <ele>382.8</ele>
        <time>2022-09-28T07:09:05Z</time>
      </trkpt>
      <trkpt lat="46.24293" lon="6.15182">
        <ele>382.7</ele>
        <time>2022-09-28T07:09:06Z</time>
      </trkpt>
      <trkpt lat="46.243" lon="6.15185">
        <ele>382.7</ele>
        <time>2022-09-28T07:09:07Z</time>
      </trkpt>
      <trkpt lat="46.24306" lon="6.15186">
        <ele>382.6</ele>
        <time>2022-09-28T07:09:08Z</time>
      </trkpt>
      <trkpt lat="46.24313" lon="6.15189">
        <ele>382.6</ele>
        <time>2022-09-28T07:09:09Z</time>
      </trkpt>
      <trkpt lat="46.24319" lon="6.15191">
        <ele>382.5</ele>
        <time>2022-09-28T07:09:10Z</time>
      </trkpt>
      <trkpt lat="46.24326" lon="6.15194">
        <ele>382.5</ele>
        <time>2022-09-28T07:09:11Z</time>
      </trkpt>
      <trkpt lat="46.24332" lon="6.15195">
        <ele>382.5</ele>
        <time>2022-09-28T07:09:12Z</time>
      </trkpt>
      <trkpt lat="46.24339" lon="6.15197">
        <ele>382.4</ele>
        <time>2022-09-28T07:09:13Z</time>
      </trkpt>
      <trkpt lat="46.24345" lon="6.15198">
        <ele>382.4</ele>
        <time>2022-09-28T07:09:14Z</time>
      </trkpt>
      <trkpt lat="46.24351" lon="6.152">
        <ele>382.4</ele>
        <time>2022-09-28T07:09:15Z</time>
      </trkpt>
      <trkpt lat="46.24357" lon="6.15201">
        <ele>382.3</ele>
        <time>2022-09-28T07:09:16Z</time>
      </trkpt>
      <trkpt lat="46.24363" lon="6.15203">
        <ele>382.3</ele>
        <time>2022-09-28T07:09:17Z</time>
      </trkpt>
      <trkpt lat="46.24369" lon="6.15204">
        <ele>382.3</ele>
        <time>2022-09-28T07:09:18Z</time>
      </trkpt>
      <trkpt lat="46.24375" lon="6.15205">
        <ele>382.2</ele>
        <time>2022-09-28T07:09:19Z</time>
      </trkpt>
      <trkpt lat="46.24382" lon="6.15206">
        <ele>382.2</ele>
        <time>2022-09-28T07:09:20Z</time>
      </trkpt>
      <trkpt lat="46.24388" lon="6.15207">
        <ele>382.2</ele>
        <time>2022-09-28T07:09:21Z</time>
      </trkpt>
      <trkpt lat="46.24394" lon="6.15208">
        <ele>382.1</ele>
        <time>2022-09-28T07:09:22Z</time>
      </trkpt>
      <trkpt lat="46.244" lon="6.15209">
        <ele>382.1</ele>
        <time>2022-09-28T07:09:23Z</time>
      </trkpt>
      <trkpt lat="46.24407" lon="6.1521">
        <ele>382.1</ele>
        <time>2022-09-28T07:09:24Z</time>
      </trkpt>
      <trkpt lat="46.24413" lon="6.15211">
        <ele>382</ele>
        <time>2022-09-28T07:09:25Z</time>
      </trkpt>
      <trkpt lat="46.2442" lon="6.15211">
        <ele>382</ele>
        <time>2022-09-28T07:09:26Z</time>
      </trkpt>
      <trkpt lat="46.24426" lon="6.15212">
        <ele>382</ele>
        <time>2022-09-28T07:09:27Z</time>
      </trkpt>
      <trkpt lat="46.24432" lon="6.15212">
        <ele>381.9</ele>
        <time>2022-09-28T07:09:28Z</time>
      </trkpt>
      <trkpt lat="46.24439" lon="6.15213">
        <ele>381.9</ele>
        <time>2022-09-28T07:09:29Z</time>
      </trkpt>
      <trkpt lat="46.24445" lon="6.15214">
        <ele>381.9</ele>
        <time>2022-09-28T07:09:30Z</time>
      </trkpt>
      <trkpt lat="46.2445" lon="6.15215">
        <ele>381.9</ele>
        <time>2022-09-28T07:09:31Z</time>
      </trkpt>
      <trkpt lat="46.24457" lon="6.15215">
        <ele>381.8</ele>
        <time>2022-09-28T07:09:32Z</time>
      </trkpt>
      <trkpt lat="46.24463" lon="6.15215">
        <ele>381.8</ele>
        <time>2022-09-28T07:09:33Z</time>
      </trkpt>
      <trkpt lat="46.24469" lon="6.15215">
        <ele>381.8</ele>
        <time>2022-09-28T07:09:34Z</time>
      </trkpt>
      <trkpt lat="46.24475" lon="6.15215">
        <ele>381.8</ele>
        <time>2022-09-28T07:09:35Z</time>
      </trkpt>
      <trkpt lat="46.24481" lon="6.15215">
        <ele>381.7</ele>
        <time>2022-09-28T07:09:36Z</time>
      </trkpt>
      <trkpt lat="46.24486" lon="6.15215">
        <ele>381.7</ele>
        <time>2022-09-28T07:09:37Z</time>
      </trkpt>
      <trkpt lat="46.24492" lon="6.15214">
        <ele>381.7</ele>
        <time>2022-09-28T07:09:38Z</time>
      </trkpt>
      <trkpt lat="46.24498" lon="6.15214">
        <ele>381.6</ele>
        <time>2022-09-28T07:09:39Z</time>
      </trkpt>
      <trkpt lat="46.24504" lon="6.15213">
        <ele>381.6</ele>
        <time>2022-09-28T07:09:40Z</time>
      </trkpt>
      <trkpt lat="46.24511" lon="6.15212">
        <ele>381.5</ele>
        <time>2022-09-28T07:09:41Z</time>
      </trkpt>
      <trkpt lat="46.24517" lon="6.15212">
        <ele>381.5</ele>
        <time>2022-09-28T07:09:42Z</time>
      </trkpt>
      <trkpt lat="46.24522" lon="6.15211">
        <ele>381.4</ele>
        <time>2022-09-28T07:09:43Z</time>
      </trkpt>
      <trkpt lat="46.24527" lon="6.15208">
        <ele>381.4</ele>
        <time>2022-09-28T07:09:44Z</time>
      </trkpt>
      <trkpt lat="46.24533" lon="6.15208">
        <ele>381.4</ele>
        <time>2022-09-28T07:09:45Z</time>
      </trkpt>
      <trkpt lat="46.2454" lon="6.15205">
        <ele>381.3</ele>
        <time>2022-09-28T07:09:46Z</time>
      </trkpt>
      <trkpt lat="46.24545" lon="6.15203">
        <ele>381.3</ele>
        <time>2022-09-28T07:09:47Z</time>
      </trkpt>
      <trkpt lat="46.24549" lon="6.15201">
        <ele>381.3</ele>
        <time>2022-09-28T07:09:48Z</time>
      </trkpt>
      <trkpt lat="46.24554" lon="6.15199">
        <ele>381.2</ele>
        <time>2022-09-28T07:09:49Z</time>
      </trkpt>
      <trkpt lat="46.24558" lon="6.15198">
        <ele>381.2</ele>
        <time>2022-09-28T07:09:50Z</time>
      </trkpt>
      <trkpt lat="46.24559" lon="6.15197">
        <ele>381.2</ele>
        <time>2022-09-28T07:09:51Z</time>
      </trkpt>
      <trkpt lat="46.24562" lon="6.15197">
        <ele>381.2</ele>
        <time>2022-09-28T07:09:52Z</time>
      </trkpt>
      <trkpt lat="46.24565" lon="6.15196">
        <ele>381.2</ele>
        <time>2022-09-28T07:09:53Z</time>
      </trkpt>
      <trkpt lat="46.24569" lon="6.15195">
        <ele>381.1</ele>
        <time>2022-09-28T07:09:54Z</time>
      </trkpt>
      <trkpt lat="46.24571" lon="6.15193">
        <ele>381.1</ele>
        <time>2022-09-28T07:09:55Z</time>
      </trkpt>
      <trkpt lat="46.24574" lon="6.15192">
        <ele>381.1</ele>
        <time>2022-09-28T07:09:56Z</time>
      </trkpt>
      <trkpt lat="46.24577" lon="6.15192">
        <ele>381.1</ele>
        <time>2022-09-28T07:09:57Z</time>
      </trkpt>
      <trkpt lat="46.24581" lon="6.15191">
        <ele>381.1</ele>
        <time>2022-09-28T07:09:58Z</time>
      </trkpt>
      <trkpt lat="46.24583" lon="6.15189">
        <ele>381.1</ele>
        <time>2022-09-28T07:09:59Z</time>
      </trkpt>
      <trkpt lat="46.24586" lon="6.15188">
        <ele>381.1</ele>
        <time>2022-09-28T07:10:00Z</time>
      </trkpt>
      <trkpt lat="46.2459" lon="6.15187">
        <ele>381</ele>
        <time>2022-09-28T07:10:01Z</time>
      </trkpt>
      <trkpt lat="46.24593" lon="6.15185">
        <ele>381</ele>
        <time>2022-09-28T07:10:02Z</time>
      </trkpt>
      <trkpt lat="46.24597" lon="6.15183">
        <ele>381</ele>
        <time>2022-09-28T07:10:03Z</time>
      </trkpt>
      <trkpt lat="46.246" lon="6.15181">
        <ele>381</ele>
        <time>2022-09-28T07:10:04Z</time>
      </trkpt>
      <trkpt lat="46.24603" lon="6.15179">
        <ele>381</ele>
        <time>2022-09-28T07:10:05Z</time>
      </trkpt>
      <trkpt lat="46.24606" lon="6.15178">
        <ele>381</ele>
        <time>2022-09-28T07:10:06Z</time>
      </trkpt>
      <trkpt lat="46.2461" lon="6.15177">
        <ele>381</ele>
        <time>2022-09-28T07:10:07Z</time>
      </trkpt>
      <trkpt lat="46.2461" lon="6.15176">
        <ele>381</ele>
        <time>2022-09-28T07:10:08Z</time>
      </trkpt>
      <trkpt lat="46.24613" lon="6.15174">
        <ele>381</ele>
        <time>2022-09-28T07:10:09Z</time>
      </trkpt>
      <trkpt lat="46.24615" lon="6.15172">
        <ele>381</ele>
        <time>2022-09-28T07:10:10Z</time>
      </trkpt>
      <trkpt lat="46.24618" lon="6.1517">
        <ele>381</ele>
        <time>2022-09-28T07:10:11Z</time>
      </trkpt>
      <trkpt lat="46.2462" lon="6.15167">
        <ele>381</ele>
        <time>2022-09-28T07:10:12Z</time>
      </trkpt>
      <trkpt lat="46.24624" lon="6.15165">
        <ele>381</ele>
        <time>2022-09-28T07:10:13Z</time>
      </trkpt>
      <trkpt lat="46.24627" lon="6.15164">
        <ele>381</ele>
        <time>2022-09-28T07:10:14Z</time>
      </trkpt>
      <trkpt lat="46.2463" lon="6.15163">
        <ele>381</ele>
        <time>2022-09-28T07:10:15Z</time>
      </trkpt>
      <trkpt lat="46.24634" lon="6.15161">
        <ele>381</ele>
        <time>2022-09-28T07:10:16Z</time>
      </trkpt>
      <trkpt lat="46.24638" lon="6.15158">
        <ele>381.1</ele>
        <time>2022-09-28T07:10:17Z</time>
      </trkpt>
      <trkpt lat="46.24642" lon="6.15156">
        <ele>381.1</ele>
        <time>2022-09-28T07:10:18Z</time>
      </trkpt>
      <trkpt lat="46.24645" lon="6.15155">
        <ele>381.1</ele>
        <time>2022-09-28T07:10:19Z</time>
      </trkpt>
      <trkpt lat="46.24648" lon="6.15154">
        <ele>381.1</ele>
        <time>2022-09-28T07:10:20Z</time>
      </trkpt>
      <trkpt lat="46.24652" lon="6.15153">
        <ele>381.1</ele>
        <time>2022-09-28T07:10:21Z</time>
      </trkpt>
      <trkpt lat="46.24656" lon="6.15152">
        <ele>381.1</ele>
        <time>2022-09-28T07:10:22Z</time>
      </trkpt>
      <trkpt lat="46.24661" lon="6.1515">
        <ele>381.2</ele>
        <time>2022-09-28T07:10:23Z</time>
      </trkpt>
      <trkpt lat="46.24664" lon="6.1515">
        <ele>381.2</ele>
        <time>2022-09-28T07:10:24Z</time>
      </trkpt>
      <trkpt lat="46.24669" lon="6.15149">
        <ele>381.2</ele>
        <time>2022-09-28T07:10:25Z</time>
      </trkpt>
      <trkpt lat="46.24673" lon="6.15147">
        <ele>381.2</ele>
        <time>2022-09-28T07:10:26Z</time>
      </trkpt>
      <trkpt lat="46.24678" lon="6.15146">
        <ele>381.3</ele>
        <time>2022-09-28T07:10:27Z</time>
      </trkpt>
      <trkpt lat="46.24682" lon="6.15145">
        <ele>381.3</ele>
        <time>2022-09-28T07:10:28Z</time>
      </trkpt>
      <trkpt lat="46.24686" lon="6.15144">
        <ele>381.4</ele>
        <time>2022-09-28T07:10:29Z</time>
      </trkpt>
      <trkpt lat="46.2469" lon="6.15144">
        <ele>381.4</ele>
        <time>2022-09-28T07:10:30Z</time>
      </trkpt>
      <trkpt lat="46.24694" lon="6.15143">
        <ele>381.5</ele>
        <time>2022-09-28T07:10:31Z</time>
      </trkpt>
      <trkpt lat="46.24698" lon="6.15144">
        <ele>381.5</ele>
        <time>2022-09-28T07:10:32Z</time>
      </trkpt>
      <trkpt lat="46.24701" lon="6.15144">
        <ele>381.6</ele>
        <time>2022-09-28T07:10:33Z</time>
      </trkpt>
      <trkpt lat="46.24704" lon="6.15142">
        <ele>381.7</ele>
        <time>2022-09-28T07:10:34Z</time>
      </trkpt>
      <trkpt lat="46.24709" lon="6.1514">
        <ele>381.7</ele>
        <time>2022-09-28T07:10:35Z</time>
      </trkpt>
      <trkpt lat="46.24711" lon="6.15139">
        <ele>381.8</ele>
        <time>2022-09-28T07:10:36Z</time>
      </trkpt>
      <trkpt lat="46.24715" lon="6.15137">
        <ele>381.9</ele>
        <time>2022-09-28T07:10:37Z</time>
      </trkpt>
      <trkpt lat="46.24719" lon="6.15136">
        <ele>381.9</ele>
        <time>2022-09-28T07:10:38Z</time>
      </trkpt>
      <trkpt lat="46.24723" lon="6.15134">
        <ele>382</ele>
        <time>2022-09-28T07:10:39Z</time>
      </trkpt>
      <trkpt lat="46.24726" lon="6.15133">
        <ele>382.1</ele>
        <time>2022-09-28T07:10:40Z</time>
      </trkpt>
      <trkpt lat="46.2473" lon="6.15132">
        <ele>382.2</ele>
        <time>2022-09-28T07:10:41Z</time>
      </trkpt>
      <trkpt lat="46.24734" lon="6.15131">
        <ele>382.2</ele>
        <time>2022-09-28T07:10:42Z</time>
      </trkpt>
      <trkpt lat="46.24737" lon="6.1513">
        <ele>382.3</ele>
        <time>2022-09-28T07:10:43Z</time>
      </trkpt>
      <trkpt lat="46.24741" lon="6.15128">
        <ele>382.4</ele>
        <time>2022-09-28T07:10:44Z</time>
      </trkpt>
      <trkpt lat="46.24744" lon="6.15126">
        <ele>382.5</ele>
        <time>2022-09-28T07:10:45Z</time>
      </trkpt>
      <trkpt lat="46.24748" lon="6.15125">
        <ele>382.6</ele>
        <time>2022-09-28T07:10:46Z</time>
      </trkpt>
      <trkpt lat="46.24751" lon="6.15124">
        <ele>382.7</ele>
        <time>2022-09-28T07:10:47Z</time>
      </trkpt>
      <trkpt lat="46.24755" lon="6.15123">
        <ele>382.8</ele>
        <time>2022-09-28T07:10:48Z</time>
      </trkpt>
      <trkpt lat="46.24759" lon="6.15121">
        <ele>382.9</ele>
        <time>2022-09-28T07:10:49Z</time>
      </trkpt>
      <trkpt lat="46.24762" lon="6.1512">
        <ele>383</ele>
        <time>2022-09-28T07:10:50Z</time>
      </trkpt>
      <trkpt lat="46.24766" lon="6.15118">
        <ele>383.1</ele>
        <time>2022-09-28T07:10:51Z</time>
      </trkpt>
      <trkpt lat="46.2477" lon="6.15117">
        <ele>383.2</ele>
        <time>2022-09-28T07:10:52Z</time>
      </trkpt>
      <trkpt lat="46.24773" lon="6.15115">
        <ele>383.3</ele>
        <time>2022-09-28T07:10:53Z</time>
      </trkpt>
      <trkpt lat="46.24777" lon="6.15114">
        <ele>383.3</ele>
        <time>2022-09-28T07:10:54Z</time>
      </trkpt>
      <trkpt lat="46.2478" lon="6.15112">
        <ele>383.4</ele>
        <time>2022-09-28T07:10:55Z</time>
      </trkpt>
      <trkpt lat="46.24784" lon="6.15112">
        <ele>383.5</ele>
        <time>2022-09-28T07:10:56Z</time>
      </trkpt>
      <trkpt lat="46.24788" lon="6.15111">
        <ele>383.5</ele>
        <time>2022-09-28T07:10:57Z</time>
      </trkpt>
      <trkpt lat="46.24791" lon="6.15108">
        <ele>383.6</ele>
        <time>2022-09-28T07:10:58Z</time>
      </trkpt>
      <trkpt lat="46.24794" lon="6.15106">
        <ele>383.6</ele>
        <time>2022-09-28T07:10:59Z</time>
      </trkpt>
      <trkpt lat="46.24798" lon="6.15104">
        <ele>383.7</ele>
        <time>2022-09-28T07:11:00Z</time>
      </trkpt>
      <trkpt lat="46.24802" lon="6.15102">
        <ele>383.7</ele>
        <time>2022-09-28T07:11:01Z</time>
      </trkpt>
      <trkpt lat="46.24805" lon="6.15101">
        <ele>383.8</ele>
        <time>2022-09-28T07:11:02Z</time>
      </trkpt>
      <trkpt lat="46.24809" lon="6.15099">
        <ele>383.8</ele>
        <time>2022-09-28T07:11:03Z</time>
      </trkpt>
      <trkpt lat="46.24813" lon="6.15097">
        <ele>383.9</ele>
        <time>2022-09-28T07:11:04Z</time>
      </trkpt>
      <trkpt lat="46.24817" lon="6.15094">
        <ele>383.9</ele>
        <time>2022-09-28T07:11:05Z</time>
      </trkpt>
      <trkpt lat="46.24822" lon="6.15093">
        <ele>384</ele>
        <time>2022-09-28T07:11:06Z</time>
      </trkpt>
      <trkpt lat="46.24826" lon="6.15092">
        <ele>384.1</ele>
        <time>2022-09-28T07:11:07Z</time>
      </trkpt>
      <trkpt lat="46.2483" lon="6.15092">
        <ele>384.1</ele>
        <time>2022-09-28T07:11:08Z</time>
      </trkpt>
      <trkpt lat="46.24834" lon="6.15092">
        <ele>384.2</ele>
        <time>2022-09-28T07:11:09Z</time>
      </trkpt>
      <trkpt lat="46.24839" lon="6.15091">
        <ele>384.2</ele>
        <time>2022-09-28T07:11:10Z</time>
      </trkpt>
      <trkpt lat="46.24843" lon="6.15091">
        <ele>384.3</ele>
        <time>2022-09-28T07:11:11Z</time>
      </trkpt>
      <trkpt lat="46.24847" lon="6.1509">
        <ele>384.3</ele>
        <time>2022-09-28T07:11:12Z</time>
      </trkpt>
      <trkpt lat="46.24851" lon="6.1509">
        <ele>384.3</ele>
        <time>2022-09-28T07:11:13Z</time>
      </trkpt>
      <trkpt lat="46.24856" lon="6.15089">
        <ele>384.3</ele>
        <time>2022-09-28T07:11:14Z</time>
      </trkpt>
      <trkpt lat="46.2486" lon="6.1509">
        <ele>384.4</ele>
        <time>2022-09-28T07:11:15Z</time>
      </trkpt>
      <trkpt lat="46.24864" lon="6.15089">
        <ele>384.4</ele>
        <time>2022-09-28T07:11:16Z</time>
      </trkpt>
      <trkpt lat="46.24868" lon="6.15089">
        <ele>384.4</ele>
        <time>2022-09-28T07:11:17Z</time>
      </trkpt>
      <trkpt lat="46.24872" lon="6.15089">
        <ele>384.4</ele>
        <time>2022-09-28T07:11:18Z</time>
      </trkpt>
      <trkpt lat="46.24875" lon="6.15088">
        <ele>384.4</ele>
        <time>2022-09-28T07:11:19Z</time>
      </trkpt>
      <trkpt lat="46.24879" lon="6.15088">
        <ele>384.4</ele>
        <time>2022-09-28T07:11:20Z</time>
      </trkpt>
      <trkpt lat="46.24883" lon="6.15088">
        <ele>384.4</ele>
        <time>2022-09-28T07:11:21Z</time>
      </trkpt>
      <trkpt lat="46.24888" lon="6.1509">
        <ele>384.5</ele>
        <time>2022-09-28T07:11:22Z</time>
      </trkpt>
      <trkpt lat="46.24893" lon="6.15089">
        <ele>384.5</ele>
        <time>2022-09-28T07:11:23Z</time>
      </trkpt>
      <trkpt lat="46.24897" lon="6.15089">
        <ele>384.5</ele>
        <time>2022-09-28T07:11:24Z</time>
      </trkpt>
      <trkpt lat="46.24901" lon="6.15087">
        <ele>384.5</ele>
        <time>2022-09-28T07:11:25Z</time>
      </trkpt>
      <trkpt lat="46.24906" lon="6.15088">
        <ele>384.5</ele>
        <time>2022-09-28T07:11:26Z</time>
      </trkpt>
      <trkpt lat="46.24911" lon="6.1509">
        <ele>384.4</ele>
        <time>2022-09-28T07:11:27Z</time>
      </trkpt>
      <trkpt lat="46.24916" lon="6.15092">
        <ele>384.4</ele>
        <time>2022-09-28T07:11:28Z</time>
      </trkpt>
      <trkpt lat="46.24922" lon="6.15093">
        <ele>384.4</ele>
        <time>2022-09-28T07:11:29Z</time>
      </trkpt>
      <trkpt lat="46.24926" lon="6.15094">
        <ele>384.4</ele>
        <time>2022-09-28T07:11:30Z</time>
      </trkpt>
      <trkpt lat="46.2493" lon="6.15095">
        <ele>384.4</ele>
        <time>2022-09-28T07:11:31Z</time>
      </trkpt>
      <trkpt lat="46.24935" lon="6.15096">
        <ele>384.3</ele>
        <time>2022-09-28T07:11:32Z</time>
      </trkpt>
      <trkpt lat="46.2494" lon="6.15096">
        <ele>384.3</ele>
        <time>2022-09-28T07:11:33Z</time>
      </trkpt>
      <trkpt lat="46.24945" lon="6.15097">
        <ele>384.2</ele>
        <time>2022-09-28T07:11:34Z</time>
      </trkpt>
      <trkpt lat="46.24951" lon="6.15098">
        <ele>384.2</ele>
        <time>2022-09-28T07:11:35Z</time>
      </trkpt>
      <trkpt lat="46.24957" lon="6.15099">
        <ele>384.1</ele>
        <time>2022-09-28T07:11:36Z</time>
      </trkpt>
      <trkpt lat="46.24962" lon="6.151">
        <ele>384</ele>
        <time>2022-09-28T07:11:37Z</time>
      </trkpt>
      <trkpt lat="46.24968" lon="6.151">
        <ele>384</ele>
        <time>2022-09-28T07:11:38Z</time>
      </trkpt>
      <trkpt lat="46.24974" lon="6.15101">
        <ele>383.9</ele>
        <time>2022-09-28T07:11:39Z</time>
      </trkpt>
      <trkpt lat="46.24979" lon="6.15102">
        <ele>383.8</ele>
        <time>2022-09-28T07:11:40Z</time>
      </trkpt>
      <trkpt lat="46.24985" lon="6.15103">
        <ele>383.8</ele>
        <time>2022-09-28T07:11:41Z</time>
      </trkpt>
      <trkpt lat="46.24991" lon="6.15103">
        <ele>383.7</ele>
        <time>2022-09-28T07:11:42Z</time>
      </trkpt>
      <trkpt lat="46.24996" lon="6.15104">
        <ele>383.7</ele>
        <time>2022-09-28T07:11:43Z</time>
      </trkpt>
      <trkpt lat="46.25002" lon="6.15105">
        <ele>383.6</ele>
        <time>2022-09-28T07:11:44Z</time>
      </trkpt>
      <trkpt lat="46.25008" lon="6.15106">
        <ele>383.5</ele>
        <time>2022-09-28T07:11:45Z</time>
      </trkpt>
      <trkpt lat="46.25014" lon="6.15107">
        <ele>383.4</ele>
        <time>2022-09-28T07:11:46Z</time>
      </trkpt>
      <trkpt lat="46.2502" lon="6.15107">
        <ele>383.4</ele>
        <time>2022-09-28T07:11:47Z</time>
      </trkpt>
      <trkpt lat="46.25025" lon="6.15108">
        <ele>383.3</ele>
        <time>2022-09-28T07:11:48Z</time>
      </trkpt>
      <trkpt lat="46.25031" lon="6.15108">
        <ele>383.2</ele>
        <time>2022-09-28T07:11:49Z</time>
      </trkpt>
      <trkpt lat="46.25037" lon="6.15109">
        <ele>383.1</ele>
        <time>2022-09-28T07:11:50Z</time>
      </trkpt>
      <trkpt lat="46.25042" lon="6.15108">
        <ele>383.1</ele>
        <time>2022-09-28T07:11:51Z</time>
      </trkpt>
      <trkpt lat="46.25047" lon="6.15109">
        <ele>383</ele>
        <time>2022-09-28T07:11:52Z</time>
      </trkpt>
      <trkpt lat="46.25053" lon="6.1511">
        <ele>382.9</ele>
        <time>2022-09-28T07:11:53Z</time>
      </trkpt>
      <trkpt lat="46.25059" lon="6.15111">
        <ele>382.9</ele>
        <time>2022-09-28T07:11:54Z</time>
      </trkpt>
      <trkpt lat="46.25064" lon="6.15112">
        <ele>382.8</ele>
        <time>2022-09-28T07:11:55Z</time>
      </trkpt>
      <trkpt lat="46.2507" lon="6.15113">
        <ele>382.7</ele>
        <time>2022-09-28T07:11:56Z</time>
      </trkpt>
      <trkpt lat="46.25076" lon="6.15114">
        <ele>382.7</ele>
        <time>2022-09-28T07:11:57Z</time>
      </trkpt>
      <trkpt lat="46.25081" lon="6.15115">
        <ele>382.6</ele>
        <time>2022-09-28T07:11:58Z</time>
      </trkpt>
      <trkpt lat="46.25086" lon="6.15115">
        <ele>382.5</ele>
        <time>2022-09-28T07:11:59Z</time>
      </trkpt>
      <trkpt lat="46.25089" lon="6.15116">
        <ele>382.5</ele>
        <time>2022-09-28T07:12:00Z</time>
      </trkpt>
      <trkpt lat="46.25093" lon="6.15116">
        <ele>382.4</ele>
        <time>2022-09-28T07:12:01Z</time>
      </trkpt>
      <trkpt lat="46.25095" lon="6.15116">
        <ele>382.4</ele>
        <time>2022-09-28T07:12:02Z</time>
      </trkpt>
      <trkpt lat="46.25098" lon="6.15116">
        <ele>382.4</ele>
        <time>2022-09-28T07:12:03Z</time>
      </trkpt>
      <trkpt lat="46.25101" lon="6.15115">
        <ele>382.3</ele>
        <time>2022-09-28T07:12:04Z</time>
      </trkpt>
      <trkpt lat="46.25105" lon="6.15115">
        <ele>382.3</ele>
        <time>2022-09-28T07:12:05Z</time>
      </trkpt>
      <trkpt lat="46.2511" lon="6.15116">
        <ele>382.2</ele>
        <time>2022-09-28T07:12:06Z</time>
      </trkpt>
      <trkpt lat="46.25114" lon="6.15116">
        <ele>382.1</ele>
        <time>2022-09-28T07:12:07Z</time>
      </trkpt>
      <trkpt lat="46.25119" lon="6.15117">
        <ele>382.1</ele>
        <time>2022-09-28T07:12:08Z</time>
      </trkpt>
      <trkpt lat="46.25123" lon="6.15118">
        <ele>382</ele>
        <time>2022-09-28T07:12:09Z</time>
      </trkpt>
      <trkpt lat="46.25126" lon="6.1512">
        <ele>382</ele>
        <time>2022-09-28T07:12:10Z</time>
      </trkpt>
      <trkpt lat="46.25132" lon="6.15122">
        <ele>381.9</ele>
        <time>2022-09-28T07:12:11Z</time>
      </trkpt>
      <trkpt lat="46.25136" lon="6.15124">
        <ele>381.8</ele>
        <time>2022-09-28T07:12:12Z</time>
      </trkpt>
      <trkpt lat="46.25141" lon="6.15126">
        <ele>381.8</ele>
        <time>2022-09-28T07:12:13Z</time>
      </trkpt>
      <trkpt lat="46.25145" lon="6.15127">
        <ele>381.7</ele>
        <time>2022-09-28T07:12:14Z</time>
      </trkpt>
      <trkpt lat="46.2515" lon="6.15129">
        <ele>381.6</ele>
        <time>2022-09-28T07:12:15Z</time>
      </trkpt>
      <trkpt lat="46.25154" lon="6.15131">
        <ele>381.6</ele>
        <time>2022-09-28T07:12:16Z</time>
      </trkpt>
      <trkpt lat="46.25159" lon="6.15134">
        <ele>381.5</ele>
        <time>2022-09-28T07:12:17Z</time>
      </trkpt>
      <trkpt lat="46.25164" lon="6.15138">
        <ele>381.5</ele>
        <time>2022-09-28T07:12:18Z</time>
      </trkpt>
      <trkpt lat="46.25168" lon="6.15141">
        <ele>381.4</ele>
        <time>2022-09-28T07:12:19Z</time>
      </trkpt>
      <trkpt lat="46.25173" lon="6.15144">
        <ele>381.3</ele>
        <time>2022-09-28T07:12:20Z</time>
      </trkpt>
      <trkpt lat="46.25178" lon="6.15147">
        <ele>381.3</ele>
        <time>2022-09-28T07:12:21Z</time>
      </trkpt>
      <trkpt lat="46.25183" lon="6.15151">
        <ele>381.2</ele>
        <time>2022-09-28T07:12:22Z</time>
      </trkpt>
      <trkpt lat="46.25188" lon="6.15154">
        <ele>381.2</ele>
        <time>2022-09-28T07:12:23Z</time>
      </trkpt>
      <trkpt lat="46.25193" lon="6.15157">
        <ele>381.1</ele>
        <time>2022-09-28T07:12:24Z</time>
      </trkpt>
      <trkpt lat="46.25197" lon="6.1516">
        <ele>381.1</ele>
        <time>2022-09-28T07:12:25Z</time>
      </trkpt>
      <trkpt lat="46.25202" lon="6.15163">
        <ele>381</ele>
        <time>2022-09-28T07:12:26Z</time>
      </trkpt>
      <trkpt lat="46.25206" lon="6.15167">
        <ele>381</ele>
        <time>2022-09-28T07:12:27Z</time>
      </trkpt>
      <trkpt lat="46.25211" lon="6.1517">
        <ele>381</ele>
        <time>2022-09-28T07:12:28Z</time>
      </trkpt>
      <trkpt lat="46.25215" lon="6.15174">
        <ele>380.9</ele>
        <time>2022-09-28T07:12:29Z</time>
      </trkpt>
      <trkpt lat="46.25222" lon="6.15177">
        <ele>380.9</ele>
        <time>2022-09-28T07:12:30Z</time>
      </trkpt>
      <trkpt lat="46.25226" lon="6.15181">
        <ele>380.9</ele>
        <time>2022-09-28T07:12:31Z</time>
      </trkpt>
      <trkpt lat="46.25231" lon="6.15184">
        <ele>380.8</ele>
        <time>2022-09-28T07:12:32Z</time>
      </trkpt>
      <trkpt lat="46.25235" lon="6.15187">
        <ele>380.8</ele>
        <time>2022-09-28T07:12:33Z</time>
      </trkpt>
      <trkpt lat="46.25241" lon="6.15193">
        <ele>380.7</ele>
        <time>2022-09-28T07:12:34Z</time>
      </trkpt>
      <trkpt lat="46.25244" lon="6.15198">
        <ele>380.7</ele>
        <time>2022-09-28T07:12:35Z</time>
      </trkpt>
      <trkpt lat="46.25248" lon="6.15203">
        <ele>380.6</ele>
        <time>2022-09-28T07:12:36Z</time>
      </trkpt>
      <trkpt lat="46.25253" lon="6.15209">
        <ele>380.6</ele>
        <time>2022-09-28T07:12:37Z</time>
      </trkpt>
      <trkpt lat="46.25257" lon="6.15214">
        <ele>380.5</ele>
        <time>2022-09-28T07:12:38Z</time>
      </trkpt>
      <trkpt lat="46.25261" lon="6.1522">
        <ele>380.5</ele>
        <time>2022-09-28T07:12:39Z</time>
      </trkpt>
      <trkpt lat="46.25265" lon="6.15226">
        <ele>380.4</ele>
        <time>2022-09-28T07:12:40Z</time>
      </trkpt>
      <trkpt lat="46.25269" lon="6.15231">
        <ele>380.4</ele>
        <time>2022-09-28T07:12:41Z</time>
      </trkpt>
      <trkpt lat="46.25274" lon="6.15237">
        <ele>380.4</ele>
        <time>2022-09-28T07:12:42Z</time>
      </trkpt>
      <trkpt lat="46.25277" lon="6.15242">
        <ele>380.3</ele>
        <time>2022-09-28T07:12:43Z</time>
      </trkpt>
      <trkpt lat="46.25282" lon="6.15246">
        <ele>380.3</ele>
        <time>2022-09-28T07:12:44Z</time>
      </trkpt>
      <trkpt lat="46.25286" lon="6.15252">
        <ele>380.3</ele>
        <time>2022-09-28T07:12:45Z</time>
      </trkpt>
      <trkpt lat="46.25291" lon="6.15257">
        <ele>380.3</ele>
        <time>2022-09-28T07:12:46Z</time>
      </trkpt>
      <trkpt lat="46.25295" lon="6.15262">
        <ele>380.3</ele>
        <time>2022-09-28T07:12:47Z</time>
      </trkpt>
      <trkpt lat="46.253" lon="6.15268">
        <ele>380.3</ele>
        <time>2022-09-28T07:12:48Z</time>
      </trkpt>
      <trkpt lat="46.25304" lon="6.15273">
        <ele>380.3</ele>
        <time>2022-09-28T07:12:49Z</time>
      </trkpt>
      <trkpt lat="46.25309" lon="6.15279">
        <ele>380.4</ele>
        <time>2022-09-28T07:12:50Z</time>
      </trkpt>
      <trkpt lat="46.25313" lon="6.15284">
        <ele>380.4</ele>
        <time>2022-09-28T07:12:51Z</time>
      </trkpt>
      <trkpt lat="46.25318" lon="6.1529">
        <ele>380.4</ele>
        <time>2022-09-28T07:12:52Z</time>
      </trkpt>
      <trkpt lat="46.25322" lon="6.15295">
        <ele>380.4</ele>
        <time>2022-09-28T07:12:53Z</time>
      </trkpt>
      <trkpt lat="46.25328" lon="6.153">
        <ele>380.4</ele>
        <time>2022-09-28T07:12:54Z</time>
      </trkpt>
      <trkpt lat="46.25332" lon="6.15305">
        <ele>380.4</ele>
        <time>2022-09-28T07:12:55Z</time>
      </trkpt>
      <trkpt lat="46.25337" lon="6.15311">
        <ele>380.4</ele>
        <time>2022-09-28T07:12:56Z</time>
      </trkpt>
      <trkpt lat="46.2534" lon="6.15316">
        <ele>380.4</ele>
        <time>2022-09-28T07:12:57Z</time>
      </trkpt>
      <trkpt lat="46.25345" lon="6.15322">
        <ele>380.5</ele>
        <time>2022-09-28T07:12:58Z</time>
      </trkpt>
      <trkpt lat="46.2535" lon="6.15328">
        <ele>380.5</ele>
        <time>2022-09-28T07:12:59Z</time>
      </trkpt>
      <trkpt lat="46.25354" lon="6.15333">
        <ele>380.5</ele>
        <time>2022-09-28T07:13:00Z</time>
      </trkpt>
      <trkpt lat="46.25359" lon="6.15338">
        <ele>380.5</ele>
        <time>2022-09-28T07:13:01Z</time>
      </trkpt>
      <trkpt lat="46.25363" lon="6.15344">
        <ele>380.5</ele>
        <time>2022-09-28T07:13:02Z</time>
      </trkpt>
      <trkpt lat="46.25368" lon="6.1535">
        <ele>380.5</ele>
        <time>2022-09-28T07:13:03Z</time>
      </trkpt>
      <trkpt lat="46.25372" lon="6.15355">
        <ele>380.5</ele>
        <time>2022-09-28T07:13:04Z</time>
      </trkpt>
      <trkpt lat="46.25377" lon="6.1536">
        <ele>380.5</ele>
        <time>2022-09-28T07:13:05Z</time>
      </trkpt>
      <trkpt lat="46.25382" lon="6.15366">
        <ele>380.5</ele>
        <time>2022-09-28T07:13:06Z</time>
      </trkpt>
      <trkpt lat="46.25387" lon="6.15372">
        <ele>380.5</ele>
        <time>2022-09-28T07:13:07Z</time>
      </trkpt>
      <trkpt lat="46.25391" lon="6.15378">
        <ele>380.6</ele>
        <time>2022-09-28T07:13:08Z</time>
      </trkpt>
      <trkpt lat="46.25395" lon="6.15383">
        <ele>380.6</ele>
        <time>2022-09-28T07:13:09Z</time>
      </trkpt>
      <trkpt lat="46.254" lon="6.15388">
        <ele>380.6</ele>
        <time>2022-09-28T07:13:10Z</time>
      </trkpt>
      <trkpt lat="46.25404" lon="6.15395">
        <ele>380.6</ele>
        <time>2022-09-28T07:13:11Z</time>
      </trkpt>
      <trkpt lat="46.25409" lon="6.154">
        <ele>380.6</ele>
        <time>2022-09-28T07:13:12Z</time>
      </trkpt>
      <trkpt lat="46.25413" lon="6.15405">
        <ele>380.6</ele>
        <time>2022-09-28T07:13:13Z</time>
      </trkpt>
      <trkpt lat="46.25418" lon="6.15411">
        <ele>380.6</ele>
        <time>2022-09-28T07:13:14Z</time>
      </trkpt>
      <trkpt lat="46.25422" lon="6.15416">
        <ele>380.7</ele>
        <time>2022-09-28T07:13:15Z</time>
      </trkpt>
      <trkpt lat="46.25427" lon="6.15421">
        <ele>380.7</ele>
        <time>2022-09-28T07:13:16Z</time>
      </trkpt>
      <trkpt lat="46.25431" lon="6.15427">
        <ele>380.6</ele>
        <time>2022-09-28T07:13:17Z</time>
      </trkpt>
      <trkpt lat="46.25435" lon="6.15432">
        <ele>380.6</ele>
        <time>2022-09-28T07:13:18Z</time>
      </trkpt>
      <trkpt lat="46.2544" lon="6.15437">
        <ele>380.7</ele>
        <time>2022-09-28T07:13:19Z</time>
      </trkpt>
      <trkpt lat="46.25443" lon="6.15443">
        <ele>380.7</ele>
        <time>2022-09-28T07:13:20Z</time>
      </trkpt>
      <trkpt lat="46.25446" lon="6.15449">
        <ele>380.7</ele>
        <time>2022-09-28T07:13:21Z</time>
      </trkpt>
      <trkpt lat="46.25449" lon="6.15454">
        <ele>380.7</ele>
        <time>2022-09-28T07:13:22Z</time>
      </trkpt>
      <trkpt lat="46.25453" lon="6.15459">
        <ele>380.7</ele>
        <time>2022-09-28T07:13:23Z</time>
      </trkpt>
      <trkpt lat="46.25457" lon="6.15464">
        <ele>380.7</ele>
        <time>2022-09-28T07:13:24Z</time>
      </trkpt>
      <trkpt lat="46.25461" lon="6.15469">
        <ele>380.7</ele>
        <time>2022-09-28T07:13:25Z</time>
      </trkpt>
      <trkpt lat="46.25465" lon="6.15473">
        <ele>380.7</ele>
        <time>2022-09-28T07:13:26Z</time>
      </trkpt>
      <trkpt lat="46.25468" lon="6.15478">
        <ele>380.7</ele>
        <time>2022-09-28T07:13:27Z</time>
      </trkpt>
      <trkpt lat="46.25471" lon="6.15482">
        <ele>380.7</ele>
        <time>2022-09-28T07:13:28Z</time>
      </trkpt>
      <trkpt lat="46.25475" lon="6.15486">
        <ele>380.7</ele>
        <time>2022-09-28T07:13:29Z</time>
      </trkpt>
      <trkpt lat="46.2548" lon="6.15491">
        <ele>380.8</ele>
        <time>2022-09-28T07:13:30Z</time>
      </trkpt>
      <trkpt lat="46.25484" lon="6.15495">
        <ele>380.8</ele>
        <time>2022-09-28T07:13:31Z</time>
      </trkpt>
      <trkpt lat="46.25488" lon="6.155">
        <ele>380.8</ele>
        <time>2022-09-28T07:13:32Z</time>
      </trkpt>
      <trkpt lat="46.25492" lon="6.15505">
        <ele>380.8</ele>
        <time>2022-09-28T07:13:33Z</time>
      </trkpt>
      <trkpt lat="46.25497" lon="6.1551">
        <ele>380.8</ele>
        <time>2022-09-28T07:13:34Z</time>
      </trkpt>
      <trkpt lat="46.255" lon="6.15515">
        <ele>380.8</ele>
        <time>2022-09-28T07:13:35Z</time>
      </trkpt>
      <trkpt lat="46.25504" lon="6.15521">
        <ele>380.8</ele>
        <time>2022-09-28T07:13:36Z</time>
      </trkpt>
      <trkpt lat="46.25508" lon="6.15525">
        <ele>380.9</ele>
        <time>2022-09-28T07:13:37Z</time>
      </trkpt>
      <trkpt lat="46.25512" lon="6.15531">
        <ele>380.9</ele>
        <time>2022-09-28T07:13:38Z</time>
      </trkpt>
      <trkpt lat="46.25516" lon="6.15536">
        <ele>380.9</ele>
        <time>2022-09-28T07:13:39Z</time>
      </trkpt>
      <trkpt lat="46.2552" lon="6.15541">
        <ele>380.9</ele>
        <time>2022-09-28T07:13:40Z</time>
      </trkpt>
      <trkpt lat="46.25523" lon="6.15546">
        <ele>380.9</ele>
        <time>2022-09-28T07:13:41Z</time>
      </trkpt>
      <trkpt lat="46.25527" lon="6.1555">
        <ele>380.9</ele>
        <time>2022-09-28T07:13:42Z</time>
      </trkpt>
      <trkpt lat="46.25531" lon="6.15556">
        <ele>380.9</ele>
        <time>2022-09-28T07:13:43Z</time>
      </trkpt>
      <trkpt lat="46.25535" lon="6.15559">
        <ele>380.9</ele>
        <time>2022-09-28T07:13:44Z</time>
      </trkpt>
      <trkpt lat="46.25539" lon="6.15563">
        <ele>380.9</ele>
        <time>2022-09-28T07:13:45Z</time>
      </trkpt>
      <trkpt lat="46.25543" lon="6.15567">
        <ele>380.9</ele>
        <time>2022-09-28T07:13:46Z</time>
      </trkpt>
      <trkpt lat="46.25547" lon="6.15572">
        <ele>380.9</ele>
        <time>2022-09-28T07:13:47Z</time>
      </trkpt>
      <trkpt lat="46.2555" lon="6.15576">
        <ele>381</ele>
        <time>2022-09-28T07:13:48Z</time>
      </trkpt>
      <trkpt lat="46.25554" lon="6.15579">
        <ele>381</ele>
        <time>2022-09-28T07:13:49Z</time>
      </trkpt>
      <trkpt lat="46.25558" lon="6.15582">
        <ele>381</ele>
        <time>2022-09-28T07:13:50Z</time>
      </trkpt>
      <trkpt lat="46.25561" lon="6.15586">
        <ele>381.1</ele>
        <time>2022-09-28T07:13:51Z</time>
      </trkpt>
      <trkpt lat="46.25564" lon="6.1559">
        <ele>381.1</ele>
        <time>2022-09-28T07:13:52Z</time>
      </trkpt>
      <trkpt lat="46.25568" lon="6.15593">
        <ele>381.1</ele>
        <time>2022-09-28T07:13:53Z</time>
      </trkpt>
      <trkpt lat="46.25574" lon="6.15597">
        <ele>381.1</ele>
        <time>2022-09-28T07:13:54Z</time>
      </trkpt>
      <trkpt lat="46.25578" lon="6.15601">
        <ele>381.2</ele>
        <time>2022-09-28T07:13:55Z</time>
      </trkpt>
      <trkpt lat="46.25582" lon="6.15604">
        <ele>381.2</ele>
        <time>2022-09-28T07:13:56Z</time>
      </trkpt>
      <trkpt lat="46.25587" lon="6.15606">
        <ele>381.2</ele>
        <time>2022-09-28T07:13:57Z</time>
      </trkpt>
      <trkpt lat="46.25592" lon="6.15609">
        <ele>381.3</ele>
        <time>2022-09-28T07:13:58Z</time>
      </trkpt>
      <trkpt lat="46.25597" lon="6.15613">
        <ele>381.3</ele>
        <time>2022-09-28T07:13:59Z</time>
      </trkpt>
      <trkpt lat="46.25602" lon="6.15614">
        <ele>381.3</ele>
        <time>2022-09-28T07:14:00Z</time>
      </trkpt>
      <trkpt lat="46.25606" lon="6.15615">
        <ele>381.3</ele>
        <time>2022-09-28T07:14:01Z</time>
      </trkpt>
      <trkpt lat="46.25611" lon="6.15616">
        <ele>381.3</ele>
        <time>2022-09-28T07:14:02Z</time>
      </trkpt>
      <trkpt lat="46.25616" lon="6.15618">
        <ele>381.4</ele>
        <time>2022-09-28T07:14:03Z</time>
      </trkpt>
      <trkpt lat="46.25622" lon="6.1562">
        <ele>381.4</ele>
        <time>2022-09-28T07:14:04Z</time>
      </trkpt>
      <trkpt lat="46.25627" lon="6.15621">
        <ele>381.4</ele>
        <time>2022-09-28T07:14:05Z</time>
      </trkpt>
      <trkpt lat="46.25632" lon="6.15623">
        <ele>381.5</ele>
        <time>2022-09-28T07:14:06Z</time>
      </trkpt>
      <trkpt lat="46.25636" lon="6.15624">
        <ele>381.5</ele>
        <time>2022-09-28T07:14:07Z</time>
      </trkpt>
      <trkpt lat="46.25642" lon="6.15627">
        <ele>381.5</ele>
        <time>2022-09-28T07:14:08Z</time>
      </trkpt>
      <trkpt lat="46.25647" lon="6.15628">
        <ele>381.6</ele>
        <time>2022-09-28T07:14:09Z</time>
      </trkpt>
      <trkpt lat="46.25652" lon="6.1563">
        <ele>381.7</ele>
        <time>2022-09-28T07:14:10Z</time>
      </trkpt>
      <trkpt lat="46.25657" lon="6.15631">
        <ele>381.7</ele>
        <time>2022-09-28T07:14:11Z</time>
      </trkpt>
      <trkpt lat="46.25662" lon="6.15633">
        <ele>381.7</ele>
        <time>2022-09-28T07:14:12Z</time>
      </trkpt>
      <trkpt lat="46.25668" lon="6.15634">
        <ele>381.7</ele>
        <time>2022-09-28T07:14:13Z</time>
      </trkpt>
      <trkpt lat="46.25673" lon="6.15636">
        <ele>381.7</ele>
        <time>2022-09-28T07:14:14Z</time>
      </trkpt>
      <trkpt lat="46.25678" lon="6.15637">
        <ele>381.7</ele>
        <time>2022-09-28T07:14:15Z</time>
      </trkpt>
      <trkpt lat="46.25683" lon="6.15638">
        <ele>381.7</ele>
        <time>2022-09-28T07:14:16Z</time>
      </trkpt>
      <trkpt lat="46.25688" lon="6.1564">
        <ele>381.7</ele>
        <time>2022-09-28T07:14:17Z</time>
      </trkpt>
      <trkpt lat="46.25693" lon="6.15641">
        <ele>381.7</ele>
        <time>2022-09-28T07:14:18Z</time>
      </trkpt>
      <trkpt lat="46.25698" lon="6.15643">
        <ele>381.6</ele>
        <time>2022-09-28T07:14:19Z</time>
      </trkpt>
      <trkpt lat="46.25703" lon="6.15645">
        <ele>381.6</ele>
        <time>2022-09-28T07:14:20Z</time>
      </trkpt>
      <trkpt lat="46.25708" lon="6.15646">
        <ele>381.6</ele>
        <time>2022-09-28T07:14:21Z</time>
      </trkpt>
      <trkpt lat="46.25713" lon="6.15648">
        <ele>381.8</ele>
        <time>2022-09-28T07:14:22Z</time>
      </trkpt>
      <trkpt lat="46.25717" lon="6.15649">
        <ele>381.9</ele>
        <time>2022-09-28T07:14:23Z</time>
      </trkpt>
      <trkpt lat="46.25722" lon="6.15651">
        <ele>381.9</ele>
        <time>2022-09-28T07:14:24Z</time>
      </trkpt>
      <trkpt lat="46.25727" lon="6.15654">
        <ele>381.9</ele>
        <time>2022-09-28T07:14:25Z</time>
      </trkpt>
      <trkpt lat="46.25731" lon="6.15657">
        <ele>382</ele>
        <time>2022-09-28T07:14:26Z</time>
      </trkpt>
      <trkpt lat="46.25735" lon="6.15661">
        <ele>382</ele>
        <time>2022-09-28T07:14:27Z</time>
      </trkpt>
      <trkpt lat="46.25739" lon="6.15663">
        <ele>382</ele>
        <time>2022-09-28T07:14:28Z</time>
      </trkpt>
      <trkpt lat="46.25744" lon="6.15665">
        <ele>382.1</ele>
        <time>2022-09-28T07:14:29Z</time>
      </trkpt>
      <trkpt lat="46.25749" lon="6.15667">
        <ele>382.1</ele>
        <time>2022-09-28T07:14:30Z</time>
      </trkpt>
      <trkpt lat="46.25754" lon="6.15668">
        <ele>382.2</ele>
        <time>2022-09-28T07:14:31Z</time>
      </trkpt>
      <trkpt lat="46.25758" lon="6.15671">
        <ele>382.3</ele>
        <time>2022-09-28T07:14:32Z</time>
      </trkpt>
      <trkpt lat="46.25762" lon="6.15673">
        <ele>382.3</ele>
        <time>2022-09-28T07:14:33Z</time>
      </trkpt>
      <trkpt lat="46.25766" lon="6.15675">
        <ele>382.4</ele>
        <time>2022-09-28T07:14:34Z</time>
      </trkpt>
      <trkpt lat="46.25771" lon="6.15676">
        <ele>382.4</ele>
        <time>2022-09-28T07:14:35Z</time>
      </trkpt>
      <trkpt lat="46.25775" lon="6.15679">
        <ele>382.5</ele>
        <time>2022-09-28T07:14:36Z</time>
      </trkpt>
      <trkpt lat="46.2578" lon="6.15681">
        <ele>382.5</ele>
        <time>2022-09-28T07:14:37Z</time>
      </trkpt>
      <trkpt lat="46.25784" lon="6.15684">
        <ele>382.6</ele>
        <time>2022-09-28T07:14:38Z</time>
      </trkpt>
      <trkpt lat="46.25789" lon="6.15686">
        <ele>382.6</ele>
        <time>2022-09-28T07:14:39Z</time>
      </trkpt>
      <trkpt lat="46.25793" lon="6.15688">
        <ele>382.7</ele>
        <time>2022-09-28T07:14:40Z</time>
      </trkpt>
      <trkpt lat="46.25797" lon="6.15692">
        <ele>382.7</ele>
        <time>2022-09-28T07:14:41Z</time>
      </trkpt>
      <trkpt lat="46.25801" lon="6.15694">
        <ele>382.8</ele>
        <time>2022-09-28T07:14:42Z</time>
      </trkpt>
      <trkpt lat="46.25806" lon="6.15696">
        <ele>382.9</ele>
        <time>2022-09-28T07:14:43Z</time>
      </trkpt>
      <trkpt lat="46.25809" lon="6.15699">
        <ele>382.9</ele>
        <time>2022-09-28T07:14:44Z</time>
      </trkpt>
      <trkpt lat="46.25813" lon="6.15701">
        <ele>383</ele>
        <time>2022-09-28T07:14:45Z</time>
      </trkpt>
      <trkpt lat="46.25817" lon="6.15703">
        <ele>383</ele>
        <time>2022-09-28T07:14:46Z</time>
      </trkpt>
      <trkpt lat="46.2582" lon="6.15703">
        <ele>383.1</ele>
        <time>2022-09-28T07:14:47Z</time>
      </trkpt>
      <trkpt lat="46.25823" lon="6.15705">
        <ele>383.1</ele>
        <time>2022-09-28T07:14:48Z</time>
      </trkpt>
      <trkpt lat="46.25825" lon="6.15707">
        <ele>383.1</ele>
        <time>2022-09-28T07:14:49Z</time>
      </trkpt>
      <trkpt lat="46.25829" lon="6.15709">
        <ele>383.2</ele>
        <time>2022-09-28T07:14:50Z</time>
      </trkpt>
      <trkpt lat="46.25832" lon="6.15711">
        <ele>383.2</ele>
        <time>2022-09-28T07:14:51Z</time>
      </trkpt>
      <trkpt lat="46.25835" lon="6.15714">
        <ele>383.3</ele>
        <time>2022-09-28T07:14:52Z</time>
      </trkpt>
      <trkpt lat="46.25839" lon="6.15716">
        <ele>383.3</ele>
        <time>2022-09-28T07:14:53Z</time>
      </trkpt>
      <trkpt lat="46.25842" lon="6.15719">
        <ele>383.3</ele>
        <time>2022-09-28T07:14:54Z</time>
      </trkpt>
      <trkpt lat="46.25845" lon="6.15722">
        <ele>383.4</ele>
        <time>2022-09-28T07:14:55Z</time>
      </trkpt>
      <trkpt lat="46.25849" lon="6.15724">
        <ele>383.4</ele>
        <time>2022-09-28T07:14:56Z</time>
      </trkpt>
      <trkpt lat="46.25852" lon="6.15727">
        <ele>383.5</ele>
        <time>2022-09-28T07:14:57Z</time>
      </trkpt>
      <trkpt lat="46.25856" lon="6.15729">
        <ele>383.5</ele>
        <time>2022-09-28T07:14:58Z</time>
      </trkpt>
      <trkpt lat="46.25859" lon="6.15732">
        <ele>383.6</ele>
        <time>2022-09-28T07:14:59Z</time>
      </trkpt>
      <trkpt lat="46.25863" lon="6.15735">
        <ele>383.6</ele>
        <time>2022-09-28T07:15:00Z</time>
      </trkpt>
      <trkpt lat="46.25866" lon="6.15737">
        <ele>383.7</ele>
        <time>2022-09-28T07:15:01Z</time>
      </trkpt>
      <trkpt lat="46.25869" lon="6.1574">
        <ele>383.7</ele>
        <time>2022-09-28T07:15:02Z</time>
      </trkpt>
      <trkpt lat="46.25873" lon="6.15743">
        <ele>383.8</ele>
        <time>2022-09-28T07:15:03Z</time>
      </trkpt>
      <trkpt lat="46.25876" lon="6.15745">
        <ele>383.9</ele>
        <time>2022-09-28T07:15:04Z</time>
      </trkpt>
      <trkpt lat="46.25879" lon="6.15747">
        <ele>383.9</ele>
        <time>2022-09-28T07:15:05Z</time>
      </trkpt>
      <trkpt lat="46.25883" lon="6.1575">
        <ele>384</ele>
        <time>2022-09-28T07:15:06Z</time>
      </trkpt>
      <trkpt lat="46.25886" lon="6.15753">
        <ele>384.1</ele>
        <time>2022-09-28T07:15:07Z</time>
      </trkpt>
      <trkpt lat="46.2589" lon="6.15756">
        <ele>384.1</ele>
        <time>2022-09-28T07:15:08Z</time>
      </trkpt>
      <trkpt lat="46.25893" lon="6.15758">
        <ele>384.2</ele>
        <time>2022-09-28T07:15:09Z</time>
      </trkpt>
      <trkpt lat="46.25896" lon="6.15761">
        <ele>384.3</ele>
        <time>2022-09-28T07:15:10Z</time>
      </trkpt>
      <trkpt lat="46.25899" lon="6.15764">
        <ele>384.3</ele>
        <time>2022-09-28T07:15:11Z</time>
      </trkpt>
      <trkpt lat="46.25903" lon="6.15766">
        <ele>384.4</ele>
        <time>2022-09-28T07:15:12Z</time>
      </trkpt>
      <trkpt lat="46.25906" lon="6.15769">
        <ele>384.5</ele>
        <time>2022-09-28T07:15:13Z</time>
      </trkpt>
      <trkpt lat="46.25909" lon="6.15772">
        <ele>384.5</ele>
        <time>2022-09-28T07:15:14Z</time>
      </trkpt>
      <trkpt lat="46.25912" lon="6.15775">
        <ele>384.6</ele>
        <time>2022-09-28T07:15:15Z</time>
      </trkpt>
      <trkpt lat="46.25916" lon="6.15778">
        <ele>384.7</ele>
        <time>2022-09-28T07:15:16Z</time>
      </trkpt>
      <trkpt lat="46.25919" lon="6.15781">
        <ele>384.7</ele>
        <time>2022-09-28T07:15:17Z</time>
      </trkpt>
      <trkpt lat="46.25923" lon="6.15784">
        <ele>384.8</ele>
        <time>2022-09-28T07:15:18Z</time>
      </trkpt>
      <trkpt lat="46.25926" lon="6.15787">
        <ele>384.8</ele>
        <time>2022-09-28T07:15:19Z</time>
      </trkpt>
      <trkpt lat="46.2593" lon="6.1579">
        <ele>384.9</ele>
        <time>2022-09-28T07:15:20Z</time>
      </trkpt>
      <trkpt lat="46.25933" lon="6.15793">
        <ele>385</ele>
        <time>2022-09-28T07:15:21Z</time>
      </trkpt>
      <trkpt lat="46.25936" lon="6.15795">
        <ele>385</ele>
        <time>2022-09-28T07:15:22Z</time>
      </trkpt>
      <trkpt lat="46.2594" lon="6.15798">
        <ele>385.1</ele>
        <time>2022-09-28T07:15:23Z</time>
      </trkpt>
      <trkpt lat="46.25943" lon="6.15801">
        <ele>385.1</ele>
        <time>2022-09-28T07:15:24Z</time>
      </trkpt>
      <trkpt lat="46.25947" lon="6.15805">
        <ele>385.2</ele>
        <time>2022-09-28T07:15:25Z</time>
      </trkpt>
      <trkpt lat="46.2595" lon="6.15808">
        <ele>385.2</ele>
        <time>2022-09-28T07:15:26Z</time>
      </trkpt>
      <trkpt lat="46.25954" lon="6.1581">
        <ele>385.3</ele>
        <time>2022-09-28T07:15:27Z</time>
      </trkpt>
      <trkpt lat="46.25957" lon="6.15813">
        <ele>385.4</ele>
        <time>2022-09-28T07:15:28Z</time>
      </trkpt>
      <trkpt lat="46.2596" lon="6.15816">
        <ele>385.4</ele>
        <time>2022-09-28T07:15:29Z</time>
      </trkpt>
      <trkpt lat="46.25964" lon="6.15819">
        <ele>385.5</ele>
        <time>2022-09-28T07:15:30Z</time>
      </trkpt>
      <trkpt lat="46.25967" lon="6.15822">
        <ele>385.5</ele>
        <time>2022-09-28T07:15:31Z</time>
      </trkpt>
      <trkpt lat="46.25971" lon="6.15824">
        <ele>385.6</ele>
        <time>2022-09-28T07:15:32Z</time>
      </trkpt>
      <trkpt lat="46.25974" lon="6.15828">
        <ele>385.7</ele>
        <time>2022-09-28T07:15:33Z</time>
      </trkpt>
      <trkpt lat="46.25978" lon="6.1583">
        <ele>385.7</ele>
        <time>2022-09-28T07:15:34Z</time>
      </trkpt>
      <trkpt lat="46.25981" lon="6.15833">
        <ele>385.8</ele>
        <time>2022-09-28T07:15:35Z</time>
      </trkpt>
      <trkpt lat="46.25984" lon="6.15836">
        <ele>385.8</ele>
        <time>2022-09-28T07:15:36Z</time>
      </trkpt>
      <trkpt lat="46.25988" lon="6.15839">
        <ele>385.9</ele>
        <time>2022-09-28T07:15:37Z</time>
      </trkpt>
      <trkpt lat="46.25991" lon="6.15841">
        <ele>386</ele>
        <time>2022-09-28T07:15:38Z</time>
      </trkpt>
      <trkpt lat="46.25995" lon="6.15845">
        <ele>386</ele>
        <time>2022-09-28T07:15:39Z</time>
      </trkpt>
      <trkpt lat="46.25998" lon="6.15848">
        <ele>386.1</ele>
        <time>2022-09-28T07:15:40Z</time>
      </trkpt>
      <trkpt lat="46.26002" lon="6.15851">
        <ele>386.2</ele>
        <time>2022-09-28T07:15:41Z</time>
      </trkpt>
      <trkpt lat="46.26006" lon="6.15853">
        <ele>386.2</ele>
        <time>2022-09-28T07:15:42Z</time>
      </trkpt>
      <trkpt lat="46.26009" lon="6.15856">
        <ele>386.3</ele>
        <time>2022-09-28T07:15:43Z</time>
      </trkpt>
      <trkpt lat="46.26011" lon="6.15858">
        <ele>386.3</ele>
        <time>2022-09-28T07:15:44Z</time>
      </trkpt>
      <trkpt lat="46.26015" lon="6.15861">
        <ele>386.4</ele>
        <time>2022-09-28T07:15:45Z</time>
      </trkpt>
      <trkpt lat="46.26018" lon="6.15863">
        <ele>386.5</ele>
        <time>2022-09-28T07:15:46Z</time>
      </trkpt>
      <trkpt lat="46.26021" lon="6.15867">
        <ele>386.6</ele>
        <time>2022-09-28T07:15:47Z</time>
      </trkpt>
      <trkpt lat="46.26025" lon="6.15869">
        <ele>386.6</ele>
        <time>2022-09-28T07:15:48Z</time>
      </trkpt>
      <trkpt lat="46.26028" lon="6.15872">
        <ele>386.7</ele>
        <time>2022-09-28T07:15:49Z</time>
      </trkpt>
      <trkpt lat="46.26031" lon="6.15874">
        <ele>386.7</ele>
        <time>2022-09-28T07:15:50Z</time>
      </trkpt>
      <trkpt lat="46.26035" lon="6.15877">
        <ele>386.8</ele>
        <time>2022-09-28T07:15:51Z</time>
      </trkpt>
      <trkpt lat="46.26039" lon="6.1588">
        <ele>386.9</ele>
        <time>2022-09-28T07:15:52Z</time>
      </trkpt>
      <trkpt lat="46.26042" lon="6.15883">
        <ele>386.9</ele>
        <time>2022-09-28T07:15:53Z</time>
      </trkpt>
      <trkpt lat="46.26046" lon="6.15886">
        <ele>387</ele>
        <time>2022-09-28T07:15:54Z</time>
      </trkpt>
      <trkpt lat="46.26049" lon="6.15889">
        <ele>387</ele>
        <time>2022-09-28T07:15:55Z</time>
      </trkpt>
      <trkpt lat="46.26052" lon="6.15892">
        <ele>387.1</ele>
        <time>2022-09-28T07:15:56Z</time>
      </trkpt>
      <trkpt lat="46.26056" lon="6.15894">
        <ele>387.1</ele>
        <time>2022-09-28T07:15:57Z</time>
      </trkpt>
      <trkpt lat="46.2606" lon="6.15897">
        <ele>387.2</ele>
        <time>2022-09-28T07:15:58Z</time>
      </trkpt>
      <trkpt lat="46.26064" lon="6.159">
        <ele>387.3</ele>
        <time>2022-09-28T07:15:59Z</time>
      </trkpt>
      <trkpt lat="46.26067" lon="6.15904">
        <ele>387.3</ele>
        <time>2022-09-28T07:16:00Z</time>
      </trkpt>
      <trkpt lat="46.26071" lon="6.15906">
        <ele>387.4</ele>
        <time>2022-09-28T07:16:01Z</time>
      </trkpt>
      <trkpt lat="46.26074" lon="6.1591">
        <ele>387.4</ele>
        <time>2022-09-28T07:16:02Z</time>
      </trkpt>
      <trkpt lat="46.26078" lon="6.15913">
        <ele>387.5</ele>
        <time>2022-09-28T07:16:03Z</time>
      </trkpt>
      <trkpt lat="46.26082" lon="6.15916">
        <ele>387.5</ele>
        <time>2022-09-28T07:16:04Z</time>
      </trkpt>
      <trkpt lat="46.26085" lon="6.15919">
        <ele>387.6</ele>
        <time>2022-09-28T07:16:05Z</time>
      </trkpt>
      <trkpt lat="46.26089" lon="6.15922">
        <ele>387.6</ele>
        <time>2022-09-28T07:16:06Z</time>
      </trkpt>
      <trkpt lat="46.26093" lon="6.15924">
        <ele>387.7</ele>
        <time>2022-09-28T07:16:07Z</time>
      </trkpt>
      <trkpt lat="46.26096" lon="6.15928">
        <ele>387.7</ele>
        <time>2022-09-28T07:16:08Z</time>
      </trkpt>
      <trkpt lat="46.261" lon="6.15931">
        <ele>387.8</ele>
        <time>2022-09-28T07:16:09Z</time>
      </trkpt>
      <trkpt lat="46.26103" lon="6.15935">
        <ele>387.8</ele>
        <time>2022-09-28T07:16:10Z</time>
      </trkpt>
      <trkpt lat="46.26107" lon="6.15937">
        <ele>387.9</ele>
        <time>2022-09-28T07:16:11Z</time>
      </trkpt>
      <trkpt lat="46.2611" lon="6.15941">
        <ele>387.9</ele>
        <time>2022-09-28T07:16:12Z</time>
      </trkpt>
      <trkpt lat="46.26114" lon="6.15943">
        <ele>388</ele>
        <time>2022-09-28T07:16:13Z</time>
      </trkpt>
      <trkpt lat="46.26117" lon="6.15945">
        <ele>388</ele>
        <time>2022-09-28T07:16:14Z</time>
      </trkpt>
      <trkpt lat="46.2612" lon="6.15948">
        <ele>388.1</ele>
        <time>2022-09-28T07:16:15Z</time>
      </trkpt>
      <trkpt lat="46.26124" lon="6.15951">
        <ele>388.1</ele>
        <time>2022-09-28T07:16:16Z</time>
      </trkpt>
      <trkpt lat="46.26128" lon="6.15954">
        <ele>388.2</ele>
        <time>2022-09-28T07:16:17Z</time>
      </trkpt>
      <trkpt lat="46.26131" lon="6.15957">
        <ele>388.2</ele>
        <time>2022-09-28T07:16:18Z</time>
      </trkpt>
      <trkpt lat="46.26135" lon="6.1596">
        <ele>388.3</ele>
        <time>2022-09-28T07:16:19Z</time>
      </trkpt>
      <trkpt lat="46.26138" lon="6.15963">
        <ele>388.3</ele>
        <time>2022-09-28T07:16:20Z</time>
      </trkpt>
      <trkpt lat="46.26142" lon="6.15966">
        <ele>388.4</ele>
        <time>2022-09-28T07:16:21Z</time>
      </trkpt>
      <trkpt lat="46.26146" lon="6.15969">
        <ele>388.5</ele>
        <time>2022-09-28T07:16:22Z</time>
      </trkpt>
      <trkpt lat="46.2615" lon="6.15972">
        <ele>388.5</ele>
        <time>2022-09-28T07:16:23Z</time>
      </trkpt>
      <trkpt lat="46.26154" lon="6.15975">
        <ele>388.6</ele>
        <time>2022-09-28T07:16:24Z</time>
      </trkpt>
      <trkpt lat="46.26157" lon="6.15978">
        <ele>388.6</ele>
        <time>2022-09-28T07:16:25Z</time>
      </trkpt>
      <trkpt lat="46.26161" lon="6.15981">
        <ele>388.7</ele>
        <time>2022-09-28T07:16:26Z</time>
      </trkpt>
      <trkpt lat="46.26165" lon="6.15983">
        <ele>388.7</ele>
        <time>2022-09-28T07:16:27Z</time>
      </trkpt>
      <trkpt lat="46.26168" lon="6.15987">
        <ele>388.8</ele>
        <time>2022-09-28T07:16:28Z</time>
      </trkpt>
      <trkpt lat="46.26172" lon="6.15989">
        <ele>388.8</ele>
        <time>2022-09-28T07:16:29Z</time>
      </trkpt>
      <trkpt lat="46.26177" lon="6.15993">
        <ele>388.9</ele>
        <time>2022-09-28T07:16:30Z</time>
      </trkpt>
      <trkpt lat="46.26181" lon="6.15996">
        <ele>388.9</ele>
        <time>2022-09-28T07:16:31Z</time>
      </trkpt>
      <trkpt lat="46.26186" lon="6.16001">
        <ele>389</ele>
        <time>2022-09-28T07:16:32Z</time>
      </trkpt>
      <trkpt lat="46.2619" lon="6.16004">
        <ele>389</ele>
        <time>2022-09-28T07:16:33Z</time>
      </trkpt>
      <trkpt lat="46.26194" lon="6.16008">
        <ele>389.1</ele>
        <time>2022-09-28T07:16:34Z</time>
      </trkpt>
      <trkpt lat="46.26199" lon="6.16012">
        <ele>389.1</ele>
        <time>2022-09-28T07:16:35Z</time>
      </trkpt>
      <trkpt lat="46.26202" lon="6.16015">
        <ele>389.2</ele>
        <time>2022-09-28T07:16:36Z</time>
      </trkpt>
      <trkpt lat="46.26206" lon="6.16018">
        <ele>389.2</ele>
        <time>2022-09-28T07:16:37Z</time>
      </trkpt>
      <trkpt lat="46.2621" lon="6.16022">
        <ele>389.2</ele>
        <time>2022-09-28T07:16:38Z</time>
      </trkpt>
      <trkpt lat="46.26214" lon="6.16025">
        <ele>389.3</ele>
        <time>2022-09-28T07:16:39Z</time>
      </trkpt>
      <trkpt lat="46.26218" lon="6.16028">
        <ele>389.3</ele>
        <time>2022-09-28T07:16:40Z</time>
      </trkpt>
      <trkpt lat="46.26222" lon="6.16031">
        <ele>389.4</ele>
        <time>2022-09-28T07:16:41Z</time>
      </trkpt>
      <trkpt lat="46.26227" lon="6.16035">
        <ele>389.4</ele>
        <time>2022-09-28T07:16:42Z</time>
      </trkpt>
      <trkpt lat="46.26231" lon="6.16039">
        <ele>389.5</ele>
        <time>2022-09-28T07:16:43Z</time>
      </trkpt>
      <trkpt lat="46.26235" lon="6.16043">
        <ele>389.5</ele>
        <time>2022-09-28T07:16:44Z</time>
      </trkpt>
      <trkpt lat="46.26239" lon="6.16046">
        <ele>389.5</ele>
        <time>2022-09-28T07:16:45Z</time>
      </trkpt>
      <trkpt lat="46.26245" lon="6.1605">
        <ele>389.6</ele>
        <time>2022-09-28T07:16:46Z</time>
      </trkpt>
      <trkpt lat="46.26248" lon="6.16053">
        <ele>389.6</ele>
        <time>2022-09-28T07:16:47Z</time>
      </trkpt>
      <trkpt lat="46.26251" lon="6.16056">
        <ele>389.6</ele>
        <time>2022-09-28T07:16:48Z</time>
      </trkpt>
      <trkpt lat="46.26256" lon="6.1606">
        <ele>389.7</ele>
        <time>2022-09-28T07:16:49Z</time>
      </trkpt>
      <trkpt lat="46.26261" lon="6.16064">
        <ele>389.7</ele>
        <time>2022-09-28T07:16:50Z</time>
      </trkpt>
      <trkpt lat="46.26265" lon="6.16067">
        <ele>389.7</ele>
        <time>2022-09-28T07:16:51Z</time>
      </trkpt>
      <trkpt lat="46.26269" lon="6.16071">
        <ele>389.8</ele>
        <time>2022-09-28T07:16:52Z</time>
      </trkpt>
      <trkpt lat="46.26273" lon="6.16074">
        <ele>389.8</ele>
        <time>2022-09-28T07:16:53Z</time>
      </trkpt>
      <trkpt lat="46.26276" lon="6.16078">
        <ele>389.8</ele>
        <time>2022-09-28T07:16:54Z</time>
      </trkpt>
      <trkpt lat="46.26281" lon="6.16081">
        <ele>389.9</ele>
        <time>2022-09-28T07:16:55Z</time>
      </trkpt>
      <trkpt lat="46.26286" lon="6.16084">
        <ele>389.9</ele>
        <time>2022-09-28T07:16:56Z</time>
      </trkpt>
      <trkpt lat="46.2629" lon="6.16088">
        <ele>389.9</ele>
        <time>2022-09-28T07:16:57Z</time>
      </trkpt>
      <trkpt lat="46.26293" lon="6.16091">
        <ele>390</ele>
        <time>2022-09-28T07:16:58Z</time>
      </trkpt>
      <trkpt lat="46.26298" lon="6.16095">
        <ele>390</ele>
        <time>2022-09-28T07:16:59Z</time>
      </trkpt>
      <trkpt lat="46.26302" lon="6.16098">
        <ele>390.1</ele>
        <time>2022-09-28T07:17:00Z</time>
      </trkpt>
      <trkpt lat="46.26306" lon="6.16102">
        <ele>390.1</ele>
        <time>2022-09-28T07:17:01Z</time>
      </trkpt>
      <trkpt lat="46.2631" lon="6.16105">
        <ele>390.1</ele>
        <time>2022-09-28T07:17:02Z</time>
      </trkpt>
      <trkpt lat="46.26313" lon="6.16108">
        <ele>390.2</ele>
        <time>2022-09-28T07:17:03Z</time>
      </trkpt>
      <trkpt lat="46.26317" lon="6.16111">
        <ele>390.2</ele>
        <time>2022-09-28T07:17:04Z</time>
      </trkpt>
      <trkpt lat="46.26321" lon="6.16114">
        <ele>390.2</ele>
        <time>2022-09-28T07:17:05Z</time>
      </trkpt>
      <trkpt lat="46.26326" lon="6.16118">
        <ele>390.3</ele>
        <time>2022-09-28T07:17:06Z</time>
      </trkpt>
      <trkpt lat="46.2633" lon="6.1612">
        <ele>390.3</ele>
        <time>2022-09-28T07:17:07Z</time>
      </trkpt>
      <trkpt lat="46.26334" lon="6.16123">
        <ele>390.4</ele>
        <time>2022-09-28T07:17:08Z</time>
      </trkpt>
      <trkpt lat="46.26339" lon="6.16126">
        <ele>390.4</ele>
        <time>2022-09-28T07:17:10Z</time>
      </trkpt>
      <trkpt lat="46.26343" lon="6.16129">
        <ele>390.5</ele>
        <time>2022-09-28T07:17:11Z</time>
      </trkpt>
      <trkpt lat="46.26347" lon="6.16132">
        <ele>390.5</ele>
        <time>2022-09-28T07:17:12Z</time>
      </trkpt>
      <trkpt lat="46.26352" lon="6.16135">
        <ele>390.5</ele>
        <time>2022-09-28T07:17:13Z</time>
      </trkpt>
      <trkpt lat="46.26356" lon="6.16139">
        <ele>390.6</ele>
        <time>2022-09-28T07:17:14Z</time>
      </trkpt>
      <trkpt lat="46.2636" lon="6.16142">
        <ele>390.6</ele>
        <time>2022-09-28T07:17:15Z</time>
      </trkpt>
      <trkpt lat="46.26365" lon="6.16146">
        <ele>390.6</ele>
        <time>2022-09-28T07:17:16Z</time>
      </trkpt>
      <trkpt lat="46.2637" lon="6.16148">
        <ele>390.6</ele>
        <time>2022-09-28T07:17:17Z</time>
      </trkpt>
      <trkpt lat="46.26374" lon="6.16152">
        <ele>390.7</ele>
        <time>2022-09-28T07:17:18Z</time>
      </trkpt>
      <trkpt lat="46.26384" lon="6.16158">
        <ele>390.7</ele>
        <time>2022-09-28T07:17:19Z</time>
      </trkpt>
      <trkpt lat="46.26388" lon="6.16161">
        <ele>390.7</ele>
        <time>2022-09-28T07:17:20Z</time>
      </trkpt>
      <trkpt lat="46.26393" lon="6.16164">
        <ele>390.8</ele>
        <time>2022-09-28T07:17:21Z</time>
      </trkpt>
      <trkpt lat="46.26398" lon="6.16167">
        <ele>390.8</ele>
        <time>2022-09-28T07:17:22Z</time>
      </trkpt>
      <trkpt lat="46.26403" lon="6.1617">
        <ele>390.8</ele>
        <time>2022-09-28T07:17:23Z</time>
      </trkpt>
      <trkpt lat="46.26407" lon="6.16172">
        <ele>390.8</ele>
        <time>2022-09-28T07:17:24Z</time>
      </trkpt>
      <trkpt lat="46.26412" lon="6.16174">
        <ele>390.8</ele>
        <time>2022-09-28T07:17:25Z</time>
      </trkpt>
      <trkpt lat="46.26417" lon="6.16177">
        <ele>390.8</ele>
        <time>2022-09-28T07:17:26Z</time>
      </trkpt>
      <trkpt lat="46.26421" lon="6.16179">
        <ele>390.8</ele>
        <time>2022-09-28T07:17:28Z</time>
      </trkpt>
      <trkpt lat="46.26426" lon="6.16182">
        <ele>390.8</ele>
        <time>2022-09-28T07:17:29Z</time>
      </trkpt>
      <trkpt lat="46.26431" lon="6.16186">
        <ele>390.8</ele>
        <time>2022-09-28T07:17:30Z</time>
      </trkpt>
      <trkpt lat="46.26441" lon="6.16192">
        <ele>390.8</ele>
        <time>2022-09-28T07:17:31Z</time>
      </trkpt>
      <trkpt lat="46.26446" lon="6.16195">
        <ele>390.8</ele>
        <time>2022-09-28T07:17:32Z</time>
      </trkpt>
      <trkpt lat="46.2645" lon="6.16199">
        <ele>390.9</ele>
        <time>2022-09-28T07:17:33Z</time>
      </trkpt>
      <trkpt lat="46.26455" lon="6.16202">
        <ele>390.9</ele>
        <time>2022-09-28T07:17:34Z</time>
      </trkpt>
      <trkpt lat="46.2646" lon="6.16204">
        <ele>390.9</ele>
        <time>2022-09-28T07:17:35Z</time>
      </trkpt>
      <trkpt lat="46.26465" lon="6.16208">
        <ele>391</ele>
        <time>2022-09-28T07:17:36Z</time>
      </trkpt>
      <trkpt lat="46.26469" lon="6.16211">
        <ele>391</ele>
        <time>2022-09-28T07:17:37Z</time>
      </trkpt>
      <trkpt lat="46.26474" lon="6.16214">
        <ele>391</ele>
        <time>2022-09-28T07:17:38Z</time>
      </trkpt>
      <trkpt lat="46.26479" lon="6.16217">
        <ele>391</ele>
        <time>2022-09-28T07:17:39Z</time>
      </trkpt>
      <trkpt lat="46.26484" lon="6.1622">
        <ele>391</ele>
        <time>2022-09-28T07:17:40Z</time>
      </trkpt>
      <trkpt lat="46.26489" lon="6.16223">
        <ele>391</ele>
        <time>2022-09-28T07:17:41Z</time>
      </trkpt>
      <trkpt lat="46.26494" lon="6.16225">
        <ele>391</ele>
        <time>2022-09-28T07:17:42Z</time>
      </trkpt>
      <trkpt lat="46.26499" lon="6.16229">
        <ele>391</ele>
        <time>2022-09-28T07:17:43Z</time>
      </trkpt>
      <trkpt lat="46.26504" lon="6.16231">
        <ele>391</ele>
        <time>2022-09-28T07:17:44Z</time>
      </trkpt>
      <trkpt lat="46.26509" lon="6.16234">
        <ele>391</ele>
        <time>2022-09-28T07:17:45Z</time>
      </trkpt>
      <trkpt lat="46.26514" lon="6.16237">
        <ele>391</ele>
        <time>2022-09-28T07:17:46Z</time>
      </trkpt>
      <trkpt lat="46.26519" lon="6.16241">
        <ele>391</ele>
        <time>2022-09-28T07:17:47Z</time>
      </trkpt>
      <trkpt lat="46.26524" lon="6.16244">
        <ele>391</ele>
        <time>2022-09-28T07:17:48Z</time>
      </trkpt>
      <trkpt lat="46.26529" lon="6.16247">
        <ele>391.1</ele>
        <time>2022-09-28T07:17:49Z</time>
      </trkpt>
      <trkpt lat="46.26534" lon="6.1625">
        <ele>391.1</ele>
        <time>2022-09-28T07:17:50Z</time>
      </trkpt>
      <trkpt lat="46.26539" lon="6.16254">
        <ele>391.1</ele>
        <time>2022-09-28T07:17:51Z</time>
      </trkpt>
      <trkpt lat="46.26544" lon="6.16257">
        <ele>391.1</ele>
        <time>2022-09-28T07:17:52Z</time>
      </trkpt>
      <trkpt lat="46.2655" lon="6.1626">
        <ele>391.1</ele>
        <time>2022-09-28T07:17:53Z</time>
      </trkpt>
      <trkpt lat="46.26555" lon="6.16263">
        <ele>391.1</ele>
        <time>2022-09-28T07:17:54Z</time>
      </trkpt>
      <trkpt lat="46.2656" lon="6.16267">
        <ele>391.1</ele>
        <time>2022-09-28T07:17:55Z</time>
      </trkpt>
      <trkpt lat="46.26565" lon="6.1627">
        <ele>391.1</ele>
        <time>2022-09-28T07:17:56Z</time>
      </trkpt>
      <trkpt lat="46.2657" lon="6.16272">
        <ele>391.1</ele>
        <time>2022-09-28T07:17:57Z</time>
      </trkpt>
      <trkpt lat="46.26576" lon="6.16276">
        <ele>391.1</ele>
        <time>2022-09-28T07:17:58Z</time>
      </trkpt>
      <trkpt lat="46.26581" lon="6.1628">
        <ele>391.1</ele>
        <time>2022-09-28T07:17:59Z</time>
      </trkpt>
      <trkpt lat="46.26586" lon="6.16283">
        <ele>391.1</ele>
        <time>2022-09-28T07:18:00Z</time>
      </trkpt>
      <trkpt lat="46.26591" lon="6.16286">
        <ele>391.1</ele>
        <time>2022-09-28T07:18:01Z</time>
      </trkpt>
      <trkpt lat="46.26596" lon="6.1629">
        <ele>391</ele>
        <time>2022-09-28T07:18:02Z</time>
      </trkpt>
      <trkpt lat="46.26602" lon="6.16294">
        <ele>391</ele>
        <time>2022-09-28T07:18:03Z</time>
      </trkpt>
      <trkpt lat="46.26607" lon="6.16297">
        <ele>391</ele>
        <time>2022-09-28T07:18:04Z</time>
      </trkpt>
      <trkpt lat="46.26612" lon="6.16301">
        <ele>391</ele>
        <time>2022-09-28T07:18:05Z</time>
      </trkpt>
      <trkpt lat="46.26618" lon="6.16304">
        <ele>390.9</ele>
        <time>2022-09-28T07:18:06Z</time>
      </trkpt>
      <trkpt lat="46.26623" lon="6.16308">
        <ele>390.9</ele>
        <time>2022-09-28T07:18:07Z</time>
      </trkpt>
      <trkpt lat="46.26629" lon="6.16311">
        <ele>390.9</ele>
        <time>2022-09-28T07:18:08Z</time>
      </trkpt>
      <trkpt lat="46.26635" lon="6.16315">
        <ele>390.8</ele>
        <time>2022-09-28T07:18:09Z</time>
      </trkpt>
      <trkpt lat="46.2664" lon="6.16319">
        <ele>390.8</ele>
        <time>2022-09-28T07:18:10Z</time>
      </trkpt>
      <trkpt lat="46.26646" lon="6.16323">
        <ele>390.8</ele>
        <time>2022-09-28T07:18:11Z</time>
      </trkpt>
      <trkpt lat="46.26652" lon="6.16326">
        <ele>390.7</ele>
        <time>2022-09-28T07:18:12Z</time>
      </trkpt>
      <trkpt lat="46.26658" lon="6.1633">
        <ele>390.7</ele>
        <time>2022-09-28T07:18:13Z</time>
      </trkpt>
      <trkpt lat="46.26664" lon="6.16333">
        <ele>390.7</ele>
        <time>2022-09-28T07:18:14Z</time>
      </trkpt>
      <trkpt lat="46.2667" lon="6.16337">
        <ele>390.7</ele>
        <time>2022-09-28T07:18:15Z</time>
      </trkpt>
      <trkpt lat="46.26676" lon="6.16341">
        <ele>390.6</ele>
        <time>2022-09-28T07:18:16Z</time>
      </trkpt>
      <trkpt lat="46.26682" lon="6.16345">
        <ele>390.6</ele>
        <time>2022-09-28T07:18:17Z</time>
      </trkpt>
      <trkpt lat="46.26688" lon="6.16349">
        <ele>390.5</ele>
        <time>2022-09-28T07:18:18Z</time>
      </trkpt>
      <trkpt lat="46.26694" lon="6.16352">
        <ele>390.5</ele>
        <time>2022-09-28T07:18:19Z</time>
      </trkpt>
      <trkpt lat="46.267" lon="6.16356">
        <ele>390.4</ele>
        <time>2022-09-28T07:18:20Z</time>
      </trkpt>
      <trkpt lat="46.26707" lon="6.1636">
        <ele>390.4</ele>
        <time>2022-09-28T07:18:21Z</time>
      </trkpt>
      <trkpt lat="46.26713" lon="6.16364">
        <ele>390.3</ele>
        <time>2022-09-28T07:18:22Z</time>
      </trkpt>
      <trkpt lat="46.26719" lon="6.16368">
        <ele>390.3</ele>
        <time>2022-09-28T07:18:23Z</time>
      </trkpt>
      <trkpt lat="46.26725" lon="6.16372">
        <ele>390.3</ele>
        <time>2022-09-28T07:18:24Z</time>
      </trkpt>
      <trkpt lat="46.26731" lon="6.16376">
        <ele>390.2</ele>
        <time>2022-09-28T07:18:25Z</time>
      </trkpt>
      <trkpt lat="46.26737" lon="6.1638">
        <ele>390.1</ele>
        <time>2022-09-28T07:18:26Z</time>
      </trkpt>
      <trkpt lat="46.26743" lon="6.16384">
        <ele>390.1</ele>
        <time>2022-09-28T07:18:27Z</time>
      </trkpt>
      <trkpt lat="46.2675" lon="6.16388">
        <ele>390</ele>
        <time>2022-09-28T07:18:28Z</time>
      </trkpt>
      <trkpt lat="46.26756" lon="6.16392">
        <ele>389.9</ele>
        <time>2022-09-28T07:18:29Z</time>
      </trkpt>
      <trkpt lat="46.26762" lon="6.16396">
        <ele>389.9</ele>
        <time>2022-09-28T07:18:30Z</time>
      </trkpt>
      <trkpt lat="46.26768" lon="6.16399">
        <ele>389.8</ele>
        <time>2022-09-28T07:18:31Z</time>
      </trkpt>
      <trkpt lat="46.26774" lon="6.16402">
        <ele>389.8</ele>
        <time>2022-09-28T07:18:32Z</time>
      </trkpt>
      <trkpt lat="46.2678" lon="6.16406">
        <ele>389.7</ele>
        <time>2022-09-28T07:18:33Z</time>
      </trkpt>
      <trkpt lat="46.26786" lon="6.1641">
        <ele>389.7</ele>
        <time>2022-09-28T07:18:34Z</time>
      </trkpt>
      <trkpt lat="46.26791" lon="6.16414">
        <ele>389.7</ele>
        <time>2022-09-28T07:18:35Z</time>
      </trkpt>
      <trkpt lat="46.26798" lon="6.16418">
        <ele>389.6</ele>
        <time>2022-09-28T07:18:36Z</time>
      </trkpt>
      <trkpt lat="46.26804" lon="6.16421">
        <ele>389.6</ele>
        <time>2022-09-28T07:18:37Z</time>
      </trkpt>
      <trkpt lat="46.26809" lon="6.16424">
        <ele>389.6</ele>
        <time>2022-09-28T07:18:38Z</time>
      </trkpt>
      <trkpt lat="46.26815" lon="6.16428">
        <ele>389.5</ele>
        <time>2022-09-28T07:18:39Z</time>
      </trkpt>
      <trkpt lat="46.26821" lon="6.16432">
        <ele>389.5</ele>
        <time>2022-09-28T07:18:40Z</time>
      </trkpt>
      <trkpt lat="46.26827" lon="6.16436">
        <ele>389.4</ele>
        <time>2022-09-28T07:18:41Z</time>
      </trkpt>
      <trkpt lat="46.26833" lon="6.16439">
        <ele>389.4</ele>
        <time>2022-09-28T07:18:42Z</time>
      </trkpt>
      <trkpt lat="46.26839" lon="6.16443">
        <ele>389.3</ele>
        <time>2022-09-28T07:18:43Z</time>
      </trkpt>
      <trkpt lat="46.26846" lon="6.16447">
        <ele>389.3</ele>
        <time>2022-09-28T07:18:44Z</time>
      </trkpt>
      <trkpt lat="46.26851" lon="6.16451">
        <ele>389.2</ele>
        <time>2022-09-28T07:18:45Z</time>
      </trkpt>
      <trkpt lat="46.26858" lon="6.16455">
        <ele>389.1</ele>
        <time>2022-09-28T07:18:46Z</time>
      </trkpt>
      <trkpt lat="46.26864" lon="6.16458">
        <ele>389.1</ele>
        <time>2022-09-28T07:18:47Z</time>
      </trkpt>
      <trkpt lat="46.2687" lon="6.16461">
        <ele>389.1</ele>
        <time>2022-09-28T07:18:48Z</time>
      </trkpt>
      <trkpt lat="46.26876" lon="6.16466">
        <ele>389</ele>
        <time>2022-09-28T07:18:49Z</time>
      </trkpt>
      <trkpt lat="46.26882" lon="6.16469">
        <ele>389</ele>
        <time>2022-09-28T07:18:50Z</time>
      </trkpt>
      <trkpt lat="46.26888" lon="6.16473">
        <ele>388.9</ele>
        <time>2022-09-28T07:18:51Z</time>
      </trkpt>
      <trkpt lat="46.26894" lon="6.16477">
        <ele>388.9</ele>
        <time>2022-09-28T07:18:52Z</time>
      </trkpt>
      <trkpt lat="46.269" lon="6.1648">
        <ele>388.8</ele>
        <time>2022-09-28T07:18:53Z</time>
      </trkpt>
      <trkpt lat="46.26906" lon="6.16484">
        <ele>388.8</ele>
        <time>2022-09-28T07:18:54Z</time>
      </trkpt>
      <trkpt lat="46.26912" lon="6.16488">
        <ele>388.7</ele>
        <time>2022-09-28T07:18:55Z</time>
      </trkpt>
      <trkpt lat="46.26919" lon="6.16492">
        <ele>388.7</ele>
        <time>2022-09-28T07:18:56Z</time>
      </trkpt>
      <trkpt lat="46.26925" lon="6.16496">
        <ele>388.6</ele>
        <time>2022-09-28T07:18:57Z</time>
      </trkpt>
      <trkpt lat="46.26931" lon="6.165">
        <ele>388.6</ele>
        <time>2022-09-28T07:18:58Z</time>
      </trkpt>
      <trkpt lat="46.26938" lon="6.16503">
        <ele>388.5</ele>
        <time>2022-09-28T07:18:59Z</time>
      </trkpt>
      <trkpt lat="46.26944" lon="6.16507">
        <ele>388.5</ele>
        <time>2022-09-28T07:19:00Z</time>
      </trkpt>
      <trkpt lat="46.2695" lon="6.16511">
        <ele>388.4</ele>
        <time>2022-09-28T07:19:01Z</time>
      </trkpt>
      <trkpt lat="46.26956" lon="6.16515">
        <ele>388.4</ele>
        <time>2022-09-28T07:19:02Z</time>
      </trkpt>
      <trkpt lat="46.26962" lon="6.16519">
        <ele>388.3</ele>
        <time>2022-09-28T07:19:03Z</time>
      </trkpt>
      <trkpt lat="46.26967" lon="6.16523">
        <ele>388.3</ele>
        <time>2022-09-28T07:19:04Z</time>
      </trkpt>
      <trkpt lat="46.26973" lon="6.16526">
        <ele>388.2</ele>
        <time>2022-09-28T07:19:05Z</time>
      </trkpt>
      <trkpt lat="46.26979" lon="6.1653">
        <ele>388.2</ele>
        <time>2022-09-28T07:19:06Z</time>
      </trkpt>
      <trkpt lat="46.26986" lon="6.16534">
        <ele>388.1</ele>
        <time>2022-09-28T07:19:07Z</time>
      </trkpt>
      <trkpt lat="46.26992" lon="6.16539">
        <ele>388.1</ele>
        <time>2022-09-28T07:19:08Z</time>
      </trkpt>
      <trkpt lat="46.26999" lon="6.16543">
        <ele>388.1</ele>
        <time>2022-09-28T07:19:09Z</time>
      </trkpt>
      <trkpt lat="46.27005" lon="6.16546">
        <ele>388.1</ele>
        <time>2022-09-28T07:19:10Z</time>
      </trkpt>
      <trkpt lat="46.27011" lon="6.1655">
        <ele>388.1</ele>
        <time>2022-09-28T07:19:11Z</time>
      </trkpt>
      <trkpt lat="46.27017" lon="6.16553">
        <ele>388</ele>
        <time>2022-09-28T07:19:12Z</time>
      </trkpt>
      <trkpt lat="46.27023" lon="6.16557">
        <ele>388</ele>
        <time>2022-09-28T07:19:13Z</time>
      </trkpt>
      <trkpt lat="46.27029" lon="6.16561">
        <ele>388</ele>
        <time>2022-09-28T07:19:14Z</time>
      </trkpt>
      <trkpt lat="46.27034" lon="6.16564">
        <ele>388</ele>
        <time>2022-09-28T07:19:15Z</time>
      </trkpt>
      <trkpt lat="46.2704" lon="6.16568">
        <ele>388</ele>
        <time>2022-09-28T07:19:16Z</time>
      </trkpt>
      <trkpt lat="46.27046" lon="6.16571">
        <ele>388</ele>
        <time>2022-09-28T07:19:17Z</time>
      </trkpt>
      <trkpt lat="46.27051" lon="6.16575">
        <ele>387.9</ele>
        <time>2022-09-28T07:19:18Z</time>
      </trkpt>
      <trkpt lat="46.27057" lon="6.16578">
        <ele>387.9</ele>
        <time>2022-09-28T07:19:19Z</time>
      </trkpt>
      <trkpt lat="46.27063" lon="6.16581">
        <ele>387.9</ele>
        <time>2022-09-28T07:19:20Z</time>
      </trkpt>
      <trkpt lat="46.27068" lon="6.16584">
        <ele>387.9</ele>
        <time>2022-09-28T07:19:21Z</time>
      </trkpt>
      <trkpt lat="46.27074" lon="6.16587">
        <ele>387.8</ele>
        <time>2022-09-28T07:19:22Z</time>
      </trkpt>
      <trkpt lat="46.2708" lon="6.16591">
        <ele>387.8</ele>
        <time>2022-09-28T07:19:23Z</time>
      </trkpt>
      <trkpt lat="46.27086" lon="6.16594">
        <ele>387.8</ele>
        <time>2022-09-28T07:19:24Z</time>
      </trkpt>
      <trkpt lat="46.27092" lon="6.16597">
        <ele>387.8</ele>
        <time>2022-09-28T07:19:25Z</time>
      </trkpt>
      <trkpt lat="46.27098" lon="6.16601">
        <ele>387.7</ele>
        <time>2022-09-28T07:19:26Z</time>
      </trkpt>
      <trkpt lat="46.27104" lon="6.16604">
        <ele>387.7</ele>
        <time>2022-09-28T07:19:27Z</time>
      </trkpt>
      <trkpt lat="46.2711" lon="6.16608">
        <ele>387.7</ele>
        <time>2022-09-28T07:19:28Z</time>
      </trkpt>
      <trkpt lat="46.27116" lon="6.16611">
        <ele>387.6</ele>
        <time>2022-09-28T07:19:29Z</time>
      </trkpt>
      <trkpt lat="46.27122" lon="6.16614">
        <ele>387.6</ele>
        <time>2022-09-28T07:19:30Z</time>
      </trkpt>
      <trkpt lat="46.27128" lon="6.16617">
        <ele>387.6</ele>
        <time>2022-09-28T07:19:31Z</time>
      </trkpt>
      <trkpt lat="46.27133" lon="6.16621">
        <ele>387.6</ele>
        <time>2022-09-28T07:19:32Z</time>
      </trkpt>
      <trkpt lat="46.27139" lon="6.16624">
        <ele>387.5</ele>
        <time>2022-09-28T07:19:33Z</time>
      </trkpt>
      <trkpt lat="46.27146" lon="6.16627">
        <ele>387.5</ele>
        <time>2022-09-28T07:19:34Z</time>
      </trkpt>
      <trkpt lat="46.27152" lon="6.16631">
        <ele>387.5</ele>
        <time>2022-09-28T07:19:35Z</time>
      </trkpt>
      <trkpt lat="46.27158" lon="6.16634">
        <ele>387.5</ele>
        <time>2022-09-28T07:19:36Z</time>
      </trkpt>
      <trkpt lat="46.27164" lon="6.16637">
        <ele>387.5</ele>
        <time>2022-09-28T07:19:37Z</time>
      </trkpt>
      <trkpt lat="46.2717" lon="6.1664">
        <ele>387.4</ele>
        <time>2022-09-28T07:19:38Z</time>
      </trkpt>
      <trkpt lat="46.27176" lon="6.16643">
        <ele>387.4</ele>
        <time>2022-09-28T07:19:39Z</time>
      </trkpt>
      <trkpt lat="46.27183" lon="6.16646">
        <ele>387.4</ele>
        <time>2022-09-28T07:19:40Z</time>
      </trkpt>
      <trkpt lat="46.27189" lon="6.1665">
        <ele>387.4</ele>
        <time>2022-09-28T07:19:41Z</time>
      </trkpt>
      <trkpt lat="46.27195" lon="6.16653">
        <ele>387.4</ele>
        <time>2022-09-28T07:19:42Z</time>
      </trkpt>
      <trkpt lat="46.27201" lon="6.16656">
        <ele>387.4</ele>
        <time>2022-09-28T07:19:43Z</time>
      </trkpt>
      <trkpt lat="46.27207" lon="6.1666">
        <ele>387.3</ele>
        <time>2022-09-28T07:19:44Z</time>
      </trkpt>
      <trkpt lat="46.27213" lon="6.16663">
        <ele>387.3</ele>
        <time>2022-09-28T07:19:45Z</time>
      </trkpt>
      <trkpt lat="46.27219" lon="6.16666">
        <ele>387.3</ele>
        <time>2022-09-28T07:19:46Z</time>
      </trkpt>
      <trkpt lat="46.27224" lon="6.16669">
        <ele>387.3</ele>
        <time>2022-09-28T07:19:47Z</time>
      </trkpt>
      <trkpt lat="46.2723" lon="6.16671">
        <ele>387.3</ele>
        <time>2022-09-28T07:19:48Z</time>
      </trkpt>
      <trkpt lat="46.27236" lon="6.16674">
        <ele>387.3</ele>
        <time>2022-09-28T07:19:49Z</time>
      </trkpt>
      <trkpt lat="46.27242" lon="6.16677">
        <ele>387.3</ele>
        <time>2022-09-28T07:19:50Z</time>
      </trkpt>
      <trkpt lat="46.27248" lon="6.1668">
        <ele>387.3</ele>
        <time>2022-09-28T07:19:51Z</time>
      </trkpt>
      <trkpt lat="46.27255" lon="6.16683">
        <ele>387.3</ele>
        <time>2022-09-28T07:19:52Z</time>
      </trkpt>
      <trkpt lat="46.27261" lon="6.16687">
        <ele>387.3</ele>
        <time>2022-09-28T07:19:53Z</time>
      </trkpt>
      <trkpt lat="46.27267" lon="6.16688">
        <ele>387.3</ele>
        <time>2022-09-28T07:19:54Z</time>
      </trkpt>
      <trkpt lat="46.27272" lon="6.16691">
        <ele>387.3</ele>
        <time>2022-09-28T07:19:55Z</time>
      </trkpt>
      <trkpt lat="46.27279" lon="6.16694">
        <ele>387.4</ele>
        <time>2022-09-28T07:19:56Z</time>
      </trkpt>
      <trkpt lat="46.27285" lon="6.16698">
        <ele>387.4</ele>
        <time>2022-09-28T07:19:57Z</time>
      </trkpt>
      <trkpt lat="46.27291" lon="6.16701">
        <ele>387.4</ele>
        <time>2022-09-28T07:19:58Z</time>
      </trkpt>
      <trkpt lat="46.27296" lon="6.16703">
        <ele>387.4</ele>
        <time>2022-09-28T07:19:59Z</time>
      </trkpt>
      <trkpt lat="46.27302" lon="6.16705">
        <ele>387.4</ele>
        <time>2022-09-28T07:20:00Z</time>
      </trkpt>
      <trkpt lat="46.27308" lon="6.16708">
        <ele>387.4</ele>
        <time>2022-09-28T07:20:01Z</time>
      </trkpt>
      <trkpt lat="46.27313" lon="6.16711">
        <ele>387.4</ele>
        <time>2022-09-28T07:20:02Z</time>
      </trkpt>
      <trkpt lat="46.27319" lon="6.16713">
        <ele>387.4</ele>
        <time>2022-09-28T07:20:03Z</time>
      </trkpt>
      <trkpt lat="46.27325" lon="6.16715">
        <ele>387.4</ele>
        <time>2022-09-28T07:20:04Z</time>
      </trkpt>
      <trkpt lat="46.27331" lon="6.16718">
        <ele>387.4</ele>
        <time>2022-09-28T07:20:05Z</time>
      </trkpt>
      <trkpt lat="46.27337" lon="6.1672">
        <ele>387.4</ele>
        <time>2022-09-28T07:20:06Z</time>
      </trkpt>
      <trkpt lat="46.2734" lon="6.16724">
        <ele>387.4</ele>
        <time>2022-09-28T07:20:07Z</time>
      </trkpt>
      <trkpt lat="46.27346" lon="6.16726">
        <ele>387.4</ele>
        <time>2022-09-28T07:20:08Z</time>
      </trkpt>
      <trkpt lat="46.27351" lon="6.16729">
        <ele>387.4</ele>
        <time>2022-09-28T07:20:09Z</time>
      </trkpt>
      <trkpt lat="46.27357" lon="6.16731">
        <ele>387.3</ele>
        <time>2022-09-28T07:20:10Z</time>
      </trkpt>
      <trkpt lat="46.27361" lon="6.16735">
        <ele>387.3</ele>
        <time>2022-09-28T07:20:11Z</time>
      </trkpt>
      <trkpt lat="46.27367" lon="6.16738">
        <ele>387.3</ele>
        <time>2022-09-28T07:20:12Z</time>
      </trkpt>
      <trkpt lat="46.27372" lon="6.1674">
        <ele>387.2</ele>
        <time>2022-09-28T07:20:13Z</time>
      </trkpt>
      <trkpt lat="46.27377" lon="6.16741">
        <ele>387.2</ele>
        <time>2022-09-28T07:20:14Z</time>
      </trkpt>
      <trkpt lat="46.27382" lon="6.16744">
        <ele>387.1</ele>
        <time>2022-09-28T07:20:15Z</time>
      </trkpt>
      <trkpt lat="46.27386" lon="6.16746">
        <ele>387.1</ele>
        <time>2022-09-28T07:20:16Z</time>
      </trkpt>
      <trkpt lat="46.27391" lon="6.16748">
        <ele>387</ele>
        <time>2022-09-28T07:20:17Z</time>
      </trkpt>
      <trkpt lat="46.27395" lon="6.16749">
        <ele>387</ele>
        <time>2022-09-28T07:20:18Z</time>
      </trkpt>
      <trkpt lat="46.27399" lon="6.16752">
        <ele>386.9</ele>
        <time>2022-09-28T07:20:19Z</time>
      </trkpt>
      <trkpt lat="46.27403" lon="6.16754">
        <ele>386.9</ele>
        <time>2022-09-28T07:20:20Z</time>
      </trkpt>
      <trkpt lat="46.27406" lon="6.16756">
        <ele>386.9</ele>
        <time>2022-09-28T07:20:21Z</time>
      </trkpt>
      <trkpt lat="46.2741" lon="6.16761">
        <ele>386.7</ele>
        <time>2022-09-28T07:20:22Z</time>
      </trkpt>
      <trkpt lat="46.27413" lon="6.16765">
        <ele>386.5</ele>
        <time>2022-09-28T07:20:23Z</time>
      </trkpt>
      <trkpt lat="46.27417" lon="6.16766">
        <ele>386.4</ele>
        <time>2022-09-28T07:20:24Z</time>
      </trkpt>
      <trkpt lat="46.27421" lon="6.16767">
        <ele>386.1</ele>
        <time>2022-09-28T07:20:25Z</time>
      </trkpt>
      <trkpt lat="46.27425" lon="6.16764">
        <ele>385.8</ele>
        <time>2022-09-28T07:20:26Z</time>
      </trkpt>
      <trkpt lat="46.27427" lon="6.16761">
        <ele>385.6</ele>
        <time>2022-09-28T07:20:27Z</time>
      </trkpt>
      <trkpt lat="46.2743" lon="6.16757">
        <ele>385.4</ele>
        <time>2022-09-28T07:20:28Z</time>
      </trkpt>
      <trkpt lat="46.27431" lon="6.16753">
        <ele>385.2</ele>
        <time>2022-09-28T07:20:29Z</time>
      </trkpt>
      <trkpt lat="46.27434" lon="6.1675">
        <ele>385.3</ele>
        <time>2022-09-28T07:20:30Z</time>
      </trkpt>
      <trkpt lat="46.27437" lon="6.16745">
        <ele>385.5</ele>
        <time>2022-09-28T07:20:31Z</time>
      </trkpt>
      <trkpt lat="46.27441" lon="6.16742">
        <ele>385.5</ele>
        <time>2022-09-28T07:20:32Z</time>
      </trkpt>
      <trkpt lat="46.27444" lon="6.16739">
        <ele>385.4</ele>
        <time>2022-09-28T07:20:33Z</time>
      </trkpt>
      <trkpt lat="46.27447" lon="6.16735">
        <ele>385.3</ele>
        <time>2022-09-28T07:20:34Z</time>
      </trkpt>
      <trkpt lat="46.2745" lon="6.1673">
        <ele>385.1</ele>
        <time>2022-09-28T07:20:35Z</time>
      </trkpt>
      <trkpt lat="46.27453" lon="6.16724">
        <ele>385</ele>
        <time>2022-09-28T07:20:36Z</time>
      </trkpt>
      <trkpt lat="46.27455" lon="6.16718">
        <ele>384.9</ele>
        <time>2022-09-28T07:20:37Z</time>
      </trkpt>
      <trkpt lat="46.27458" lon="6.16712">
        <ele>384.7</ele>
        <time>2022-09-28T07:20:38Z</time>
      </trkpt>
      <trkpt lat="46.27462" lon="6.16705">
        <ele>384.5</ele>
        <time>2022-09-28T07:20:39Z</time>
      </trkpt>
      <trkpt lat="46.27466" lon="6.16698">
        <ele>384.4</ele>
        <time>2022-09-28T07:20:40Z</time>
      </trkpt>
      <trkpt lat="46.27469" lon="6.16693">
        <ele>384.2</ele>
        <time>2022-09-28T07:20:41Z</time>
      </trkpt>
      <trkpt lat="46.27473" lon="6.16689">
        <ele>384.1</ele>
        <time>2022-09-28T07:20:42Z</time>
      </trkpt>
      <trkpt lat="46.27476" lon="6.16685">
        <ele>384.2</ele>
        <time>2022-09-28T07:20:43Z</time>
      </trkpt>
      <trkpt lat="46.27478" lon="6.16683">
        <ele>384.2</ele>
        <time>2022-09-28T07:20:44Z</time>
      </trkpt>
      <trkpt lat="46.27479" lon="6.16681">
        <ele>384.2</ele>
        <time>2022-09-28T07:20:45Z</time>
      </trkpt>
      <trkpt lat="46.2748" lon="6.16677">
        <ele>384.2</ele>
        <time>2022-09-28T07:20:46Z</time>
      </trkpt>
      <trkpt lat="46.27481" lon="6.16676">
        <ele>384.2</ele>
        <time>2022-09-28T07:20:47Z</time>
      </trkpt>
      <trkpt lat="46.2748" lon="6.16676">
        <ele>384.2</ele>
        <time>2022-09-28T07:20:48Z</time>
      </trkpt>
      <trkpt lat="46.2748" lon="6.16677">
        <ele>384.2</ele>
        <time>2022-09-28T07:20:49Z</time>
      </trkpt>
      <trkpt lat="46.27479" lon="6.16677">
        <ele>384.2</ele>
        <time>2022-09-28T07:20:50Z</time>
      </trkpt>
      <trkpt lat="46.27479" lon="6.16677">
        <ele>384.2</ele>
        <time>2022-09-28T07:20:51Z</time>
      </trkpt>
      <trkpt lat="46.27478" lon="6.16677">
        <ele>384.2</ele>
        <time>2022-09-28T07:20:52Z</time>
      </trkpt>
      <trkpt lat="46.27477" lon="6.16678">
        <ele>384.2</ele>
        <time>2022-09-28T07:20:53Z</time>
      </trkpt>
      <trkpt lat="46.27477" lon="6.16678">
        <ele>384.2</ele>
        <time>2022-09-28T07:20:54Z</time>
      </trkpt>
      <trkpt lat="46.27476" lon="6.16678">
        <ele>384.2</ele>
        <time>2022-09-28T07:20:55Z</time>
      </trkpt>
      <trkpt lat="46.27476" lon="6.16678">
        <ele>384.2</ele>
        <time>2022-09-28T07:20:56Z</time>
      </trkpt>
      <trkpt lat="46.27475" lon="6.16678">
        <ele>384.2</ele>
        <time>2022-09-28T07:20:57Z</time>
      </trkpt>
      <trkpt lat="46.27474" lon="6.16679">
        <ele>384.2</ele>
        <time>2022-09-28T07:22:28Z</time>
      </trkpt>
      <trkpt lat="46.27474" lon="6.16679">
        <ele>384.2</ele>
        <time>2022-09-28T07:22:29Z</time>
      </trkpt>
      <trkpt lat="46.27471" lon="6.16682">
        <ele>384.3</ele>
        <time>2022-09-28T07:22:30Z</time>
      </trkpt>
      <trkpt lat="46.2747" lon="6.16683">
        <ele>384.3</ele>
        <time>2022-09-28T07:22:31Z</time>
      </trkpt>
      <trkpt lat="46.27468" lon="6.16686">
        <ele>384.3</ele>
        <time>2022-09-28T07:22:32Z</time>
      </trkpt>
      <trkpt lat="46.27467" lon="6.16687">
        <ele>384.3</ele>
        <time>2022-09-28T07:22:33Z</time>
      </trkpt>
      <trkpt lat="46.27464" lon="6.16691">
        <ele>384.3</ele>
        <time>2022-09-28T07:22:34Z</time>
      </trkpt>
      <trkpt lat="46.27463" lon="6.16693">
        <ele>384.3</ele>
        <time>2022-09-28T07:22:35Z</time>
      </trkpt>
      <trkpt lat="46.27461" lon="6.16697">
        <ele>384.4</ele>
        <time>2022-09-28T07:22:36Z</time>
      </trkpt>
      <trkpt lat="46.27459" lon="6.16701">
        <ele>384.5</ele>
        <time>2022-09-28T07:22:37Z</time>
      </trkpt>
      <trkpt lat="46.27457" lon="6.16705">
        <ele>384.6</ele>
        <time>2022-09-28T07:22:38Z</time>
      </trkpt>
      <trkpt lat="46.27455" lon="6.16708">
        <ele>384.7</ele>
        <time>2022-09-28T07:22:39Z</time>
      </trkpt>
      <trkpt lat="46.27453" lon="6.16712">
        <ele>384.8</ele>
        <time>2022-09-28T07:22:40Z</time>
      </trkpt>
      <trkpt lat="46.27451" lon="6.16716">
        <ele>384.9</ele>
        <time>2022-09-28T07:22:41Z</time>
      </trkpt>
      <trkpt lat="46.2745" lon="6.16719">
        <ele>385</ele>
        <time>2022-09-28T07:22:42Z</time>
      </trkpt>
      <trkpt lat="46.27447" lon="6.16722">
        <ele>385.1</ele>
        <time>2022-09-28T07:22:43Z</time>
      </trkpt>
      <trkpt lat="46.27446" lon="6.16727">
        <ele>385.2</ele>
        <time>2022-09-28T07:22:44Z</time>
      </trkpt>
      <trkpt lat="46.27445" lon="6.16728">
        <ele>385.2</ele>
        <time>2022-09-28T07:22:45Z</time>
      </trkpt>
      <trkpt lat="46.27442" lon="6.16732">
        <ele>385.3</ele>
        <time>2022-09-28T07:22:46Z</time>
      </trkpt>
      <trkpt lat="46.27441" lon="6.16733">
        <ele>385.4</ele>
        <time>2022-09-28T07:22:47Z</time>
      </trkpt>
      <trkpt lat="46.27438" lon="6.16736">
        <ele>385.4</ele>
        <time>2022-09-28T07:22:48Z</time>
      </trkpt>
      <trkpt lat="46.27437" lon="6.16737">
        <ele>385.5</ele>
        <time>2022-09-28T07:22:49Z</time>
      </trkpt>
      <trkpt lat="46.27434" lon="6.16737">
        <ele>385.5</ele>
        <time>2022-09-28T07:22:50Z</time>
      </trkpt>
      <trkpt lat="46.27432" lon="6.16737">
        <ele>385.5</ele>
        <time>2022-09-28T07:22:51Z</time>
      </trkpt>
      <trkpt lat="46.27429" lon="6.16737">
        <ele>385.9</ele>
        <time>2022-09-28T07:22:52Z</time>
      </trkpt>
      <trkpt lat="46.27428" lon="6.16737">
        <ele>385.9</ele>
        <time>2022-09-28T07:22:53Z</time>
      </trkpt>
      <trkpt lat="46.27425" lon="6.16736">
        <ele>386</ele>
        <time>2022-09-28T07:22:54Z</time>
      </trkpt>
      <trkpt lat="46.27422" lon="6.16735">
        <ele>386.3</ele>
        <time>2022-09-28T07:22:55Z</time>
      </trkpt>
      <trkpt lat="46.27419" lon="6.16735">
        <ele>386.5</ele>
        <time>2022-09-28T07:22:56Z</time>
      </trkpt>
      <trkpt lat="46.27417" lon="6.16736">
        <ele>386.5</ele>
        <time>2022-09-28T07:22:57Z</time>
      </trkpt>
      <trkpt lat="46.27415" lon="6.16738">
        <ele>386.9</ele>
        <time>2022-09-28T07:22:58Z</time>
      </trkpt>
      <trkpt lat="46.27413" lon="6.16742">
        <ele>387</ele>
        <time>2022-09-28T07:22:59Z</time>
      </trkpt>
      <trkpt lat="46.27413" lon="6.16748">
        <ele>386.9</ele>
        <time>2022-09-28T07:23:00Z</time>
      </trkpt>
      <trkpt lat="46.27413" lon="6.16751">
        <ele>386.9</ele>
        <time>2022-09-28T07:23:01Z</time>
      </trkpt>
      <trkpt lat="46.27414" lon="6.16756">
        <ele>386.6</ele>
        <time>2022-09-28T07:23:02Z</time>
      </trkpt>
      <trkpt lat="46.27417" lon="6.1676">
        <ele>386.5</ele>
        <time>2022-09-28T07:23:03Z</time>
      </trkpt>
      <trkpt lat="46.27421" lon="6.16763">
        <ele>386.3</ele>
        <time>2022-09-28T07:23:04Z</time>
      </trkpt>
      <trkpt lat="46.27424" lon="6.16766">
        <ele>386.2</ele>
        <time>2022-09-28T07:23:05Z</time>
      </trkpt>
      <trkpt lat="46.27428" lon="6.16771">
        <ele>386</ele>
        <time>2022-09-28T07:23:06Z</time>
      </trkpt>
      <trkpt lat="46.27432" lon="6.16776">
        <ele>385.7</ele>
        <time>2022-09-28T07:23:07Z</time>
      </trkpt>
      <trkpt lat="46.27435" lon="6.16782">
        <ele>385.2</ele>
        <time>2022-09-28T07:23:08Z</time>
      </trkpt>
      <trkpt lat="46.27439" lon="6.16788">
        <ele>384.7</ele>
        <time>2022-09-28T07:23:09Z</time>
      </trkpt>
      <trkpt lat="46.27443" lon="6.16795">
        <ele>384.2</ele>
        <time>2022-09-28T07:23:10Z</time>
      </trkpt>
      <trkpt lat="46.27448" lon="6.16802">
        <ele>383.7</ele>
        <time>2022-09-28T07:23:11Z</time>
      </trkpt>
      <trkpt lat="46.27452" lon="6.16809">
        <ele>383.6</ele>
        <time>2022-09-28T07:23:12Z</time>
      </trkpt>
      <trkpt lat="46.27457" lon="6.16816">
        <ele>383.5</ele>
        <time>2022-09-28T07:23:13Z</time>
      </trkpt>
      <trkpt lat="46.27462" lon="6.16823">
        <ele>383.3</ele>
        <time>2022-09-28T07:23:14Z</time>
      </trkpt>
      <trkpt lat="46.27467" lon="6.16829">
        <ele>383.1</ele>
        <time>2022-09-28T07:23:15Z</time>
      </trkpt>
      <trkpt lat="46.27471" lon="6.16836">
        <ele>382.9</ele>
        <time>2022-09-28T07:23:16Z</time>
      </trkpt>
      <trkpt lat="46.27476" lon="6.16843">
        <ele>382.7</ele>
        <time>2022-09-28T07:23:17Z</time>
      </trkpt>
      <trkpt lat="46.27482" lon="6.1685">
        <ele>382.5</ele>
        <time>2022-09-28T07:23:18Z</time>
      </trkpt>
      <trkpt lat="46.27488" lon="6.16856">
        <ele>382.4</ele>
        <time>2022-09-28T07:23:19Z</time>
      </trkpt>
      <trkpt lat="46.27494" lon="6.16861">
        <ele>382.2</ele>
        <time>2022-09-28T07:23:20Z</time>
      </trkpt>
      <trkpt lat="46.27499" lon="6.16867">
        <ele>382</ele>
        <time>2022-09-28T07:23:21Z</time>
      </trkpt>
      <trkpt lat="46.27504" lon="6.16873">
        <ele>381.9</ele>
        <time>2022-09-28T07:23:22Z</time>
      </trkpt>
      <trkpt lat="46.2751" lon="6.16878">
        <ele>381.7</ele>
        <time>2022-09-28T07:23:23Z</time>
      </trkpt>
      <trkpt lat="46.27516" lon="6.16881">
        <ele>381.4</ele>
        <time>2022-09-28T07:23:24Z</time>
      </trkpt>
      <trkpt lat="46.27521" lon="6.16886">
        <ele>381.2</ele>
        <time>2022-09-28T07:23:25Z</time>
      </trkpt>
      <trkpt lat="46.27526" lon="6.16891">
        <ele>381</ele>
        <time>2022-09-28T07:23:26Z</time>
      </trkpt>
      <trkpt lat="46.27531" lon="6.16894">
        <ele>380.8</ele>
        <time>2022-09-28T07:23:27Z</time>
      </trkpt>
      <trkpt lat="46.27535" lon="6.16899">
        <ele>380.6</ele>
        <time>2022-09-28T07:23:28Z</time>
      </trkpt>
      <trkpt lat="46.2754" lon="6.16905">
        <ele>380.4</ele>
        <time>2022-09-28T07:23:29Z</time>
      </trkpt>
      <trkpt lat="46.27546" lon="6.1691">
        <ele>380.1</ele>
        <time>2022-09-28T07:23:30Z</time>
      </trkpt>
      <trkpt lat="46.27552" lon="6.16914">
        <ele>379.9</ele>
        <time>2022-09-28T07:23:31Z</time>
      </trkpt>
      <trkpt lat="46.27557" lon="6.16918">
        <ele>379.7</ele>
        <time>2022-09-28T07:23:32Z</time>
      </trkpt>
      <trkpt lat="46.27561" lon="6.16924">
        <ele>379.5</ele>
        <time>2022-09-28T07:23:33Z</time>
      </trkpt>
      <trkpt lat="46.27567" lon="6.16929">
        <ele>379.3</ele>
        <time>2022-09-28T07:23:34Z</time>
      </trkpt>
      <trkpt lat="46.27571" lon="6.16932">
        <ele>379.1</ele>
        <time>2022-09-28T07:23:35Z</time>
      </trkpt>
      <trkpt lat="46.27577" lon="6.16935">
        <ele>379</ele>
        <time>2022-09-28T07:23:36Z</time>
      </trkpt>
      <trkpt lat="46.27581" lon="6.16938">
        <ele>378.9</ele>
        <time>2022-09-28T07:23:37Z</time>
      </trkpt>
      <trkpt lat="46.27586" lon="6.16941">
        <ele>378.8</ele>
        <time>2022-09-28T07:23:38Z</time>
      </trkpt>
      <trkpt lat="46.27589" lon="6.16942">
        <ele>378.7</ele>
        <time>2022-09-28T07:23:39Z</time>
      </trkpt>
      <trkpt lat="46.27592" lon="6.16945">
        <ele>378.7</ele>
        <time>2022-09-28T07:23:40Z</time>
      </trkpt>
      <trkpt lat="46.27596" lon="6.16946">
        <ele>378.6</ele>
        <time>2022-09-28T07:23:41Z</time>
      </trkpt>
      <trkpt lat="46.276" lon="6.16948">
        <ele>378.6</ele>
        <time>2022-09-28T07:23:42Z</time>
      </trkpt>
      <trkpt lat="46.27603" lon="6.16949">
        <ele>378.5</ele>
        <time>2022-09-28T07:23:43Z</time>
      </trkpt>
      <trkpt lat="46.27607" lon="6.16951">
        <ele>378.4</ele>
        <time>2022-09-28T07:23:44Z</time>
      </trkpt>
      <trkpt lat="46.27613" lon="6.16953">
        <ele>378.4</ele>
        <time>2022-09-28T07:23:45Z</time>
      </trkpt>
      <trkpt lat="46.27616" lon="6.16956">
        <ele>378.3</ele>
        <time>2022-09-28T07:23:46Z</time>
      </trkpt>
      <trkpt lat="46.27621" lon="6.16956">
        <ele>378.3</ele>
        <time>2022-09-28T07:23:47Z</time>
      </trkpt>
      <trkpt lat="46.27626" lon="6.16959">
        <ele>378.2</ele>
        <time>2022-09-28T07:23:48Z</time>
      </trkpt>
      <trkpt lat="46.2763" lon="6.16961">
        <ele>378.2</ele>
        <time>2022-09-28T07:23:49Z</time>
      </trkpt>
      <trkpt lat="46.27634" lon="6.16961">
        <ele>378.2</ele>
        <time>2022-09-28T07:23:50Z</time>
      </trkpt>
      <trkpt lat="46.27639" lon="6.1696">
        <ele>378.2</ele>
        <time>2022-09-28T07:23:51Z</time>
      </trkpt>
      <trkpt lat="46.27642" lon="6.16958">
        <ele>378.2</ele>
        <time>2022-09-28T07:23:52Z</time>
      </trkpt>
      <trkpt lat="46.27646" lon="6.16956">
        <ele>378.2</ele>
        <time>2022-09-28T07:23:53Z</time>
      </trkpt>
      <trkpt lat="46.2765" lon="6.16952">
        <ele>378.2</ele>
        <time>2022-09-28T07:23:54Z</time>
      </trkpt>
      <trkpt lat="46.27654" lon="6.16949">
        <ele>378.2</ele>
        <time>2022-09-28T07:23:55Z</time>
      </trkpt>
      <trkpt lat="46.27659" lon="6.16947">
        <ele>378.1</ele>
        <time>2022-09-28T07:23:56Z</time>
      </trkpt>
      <trkpt lat="46.27662" lon="6.16946">
        <ele>378.1</ele>
        <time>2022-09-28T07:23:57Z</time>
      </trkpt>
      <trkpt lat="46.27666" lon="6.16943">
        <ele>378.1</ele>
        <time>2022-09-28T07:23:58Z</time>
      </trkpt>
      <trkpt lat="46.27671" lon="6.16941">
        <ele>378.1</ele>
        <time>2022-09-28T07:23:59Z</time>
      </trkpt>
      <trkpt lat="46.27675" lon="6.16938">
        <ele>378.1</ele>
        <time>2022-09-28T07:24:00Z</time>
      </trkpt>
      <trkpt lat="46.2768" lon="6.16935">
        <ele>378.2</ele>
        <time>2022-09-28T07:24:01Z</time>
      </trkpt>
      <trkpt lat="46.27685" lon="6.16931">
        <ele>378.2</ele>
        <time>2022-09-28T07:24:02Z</time>
      </trkpt>
      <trkpt lat="46.27689" lon="6.16928">
        <ele>378.2</ele>
        <time>2022-09-28T07:24:03Z</time>
      </trkpt>
      <trkpt lat="46.27694" lon="6.16925">
        <ele>378.2</ele>
        <time>2022-09-28T07:24:04Z</time>
      </trkpt>
      <trkpt lat="46.27698" lon="6.16921">
        <ele>378.2</ele>
        <time>2022-09-28T07:24:05Z</time>
      </trkpt>
      <trkpt lat="46.27702" lon="6.16917">
        <ele>378.2</ele>
        <time>2022-09-28T07:24:06Z</time>
      </trkpt>
      <trkpt lat="46.27706" lon="6.16914">
        <ele>378.2</ele>
        <time>2022-09-28T07:24:07Z</time>
      </trkpt>
      <trkpt lat="46.27712" lon="6.16913">
        <ele>378.3</ele>
        <time>2022-09-28T07:24:08Z</time>
      </trkpt>
      <trkpt lat="46.27717" lon="6.1691">
        <ele>378.3</ele>
        <time>2022-09-28T07:24:09Z</time>
      </trkpt>
      <trkpt lat="46.2772" lon="6.16907">
        <ele>378.3</ele>
        <time>2022-09-28T07:24:10Z</time>
      </trkpt>
      <trkpt lat="46.27724" lon="6.16903">
        <ele>378.3</ele>
        <time>2022-09-28T07:24:11Z</time>
      </trkpt>
      <trkpt lat="46.27729" lon="6.16899">
        <ele>378.4</ele>
        <time>2022-09-28T07:24:12Z</time>
      </trkpt>
      <trkpt lat="46.27732" lon="6.16897">
        <ele>378.4</ele>
        <time>2022-09-28T07:24:13Z</time>
      </trkpt>
      <trkpt lat="46.27737" lon="6.16893">
        <ele>378.4</ele>
        <time>2022-09-28T07:24:14Z</time>
      </trkpt>
      <trkpt lat="46.27741" lon="6.1689">
        <ele>378.4</ele>
        <time>2022-09-28T07:24:15Z</time>
      </trkpt>
      <trkpt lat="46.27745" lon="6.16889">
        <ele>378.5</ele>
        <time>2022-09-28T07:24:16Z</time>
      </trkpt>
      <trkpt lat="46.27749" lon="6.16886">
        <ele>378.5</ele>
        <time>2022-09-28T07:24:17Z</time>
      </trkpt>
      <trkpt lat="46.27754" lon="6.16884">
        <ele>378.5</ele>
        <time>2022-09-28T07:24:18Z</time>
      </trkpt>
      <trkpt lat="46.27758" lon="6.16881">
        <ele>378.5</ele>
        <time>2022-09-28T07:24:19Z</time>
      </trkpt>
      <trkpt lat="46.27762" lon="6.16879">
        <ele>378.5</ele>
        <time>2022-09-28T07:24:20Z</time>
      </trkpt>
      <trkpt lat="46.27766" lon="6.16877">
        <ele>378.6</ele>
        <time>2022-09-28T07:24:21Z</time>
      </trkpt>
      <trkpt lat="46.27771" lon="6.16875">
        <ele>378.6</ele>
        <time>2022-09-28T07:24:22Z</time>
      </trkpt>
      <trkpt lat="46.27775" lon="6.16872">
        <ele>378.6</ele>
        <time>2022-09-28T07:24:23Z</time>
      </trkpt>
      <trkpt lat="46.27779" lon="6.16868">
        <ele>378.6</ele>
        <time>2022-09-28T07:24:24Z</time>
      </trkpt>
      <trkpt lat="46.27783" lon="6.16864">
        <ele>378.6</ele>
        <time>2022-09-28T07:24:25Z</time>
      </trkpt>
      <trkpt lat="46.27787" lon="6.16861">
        <ele>378.7</ele>
        <time>2022-09-28T07:24:26Z</time>
      </trkpt>
      <trkpt lat="46.27792" lon="6.16859">
        <ele>378.7</ele>
        <time>2022-09-28T07:24:27Z</time>
      </trkpt>
      <trkpt lat="46.27796" lon="6.16856">
        <ele>378.7</ele>
        <time>2022-09-28T07:24:28Z</time>
      </trkpt>
      <trkpt lat="46.27801" lon="6.16854">
        <ele>378.7</ele>
        <time>2022-09-28T07:24:29Z</time>
      </trkpt>
      <trkpt lat="46.27805" lon="6.16851">
        <ele>378.8</ele>
        <time>2022-09-28T07:24:30Z</time>
      </trkpt>
      <trkpt lat="46.27809" lon="6.16849">
        <ele>378.8</ele>
        <time>2022-09-28T07:24:31Z</time>
      </trkpt>
      <trkpt lat="46.27813" lon="6.16846">
        <ele>378.8</ele>
        <time>2022-09-28T07:24:32Z</time>
      </trkpt>
      <trkpt lat="46.27817" lon="6.16844">
        <ele>378.9</ele>
        <time>2022-09-28T07:24:33Z</time>
      </trkpt>
      <trkpt lat="46.27821" lon="6.16841">
        <ele>378.9</ele>
        <time>2022-09-28T07:24:34Z</time>
      </trkpt>
      <trkpt lat="46.27825" lon="6.16838">
        <ele>378.9</ele>
        <time>2022-09-28T07:24:35Z</time>
      </trkpt>
      <trkpt lat="46.27829" lon="6.16836">
        <ele>379</ele>
        <time>2022-09-28T07:24:36Z</time>
      </trkpt>
      <trkpt lat="46.27834" lon="6.16834">
        <ele>379</ele>
        <time>2022-09-28T07:24:37Z</time>
      </trkpt>
      <trkpt lat="46.27838" lon="6.1683">
        <ele>379</ele>
        <time>2022-09-28T07:24:38Z</time>
      </trkpt>
      <trkpt lat="46.27842" lon="6.16827">
        <ele>379</ele>
        <time>2022-09-28T07:24:39Z</time>
      </trkpt>
      <trkpt lat="46.27846" lon="6.16824">
        <ele>379.1</ele>
        <time>2022-09-28T07:24:40Z</time>
      </trkpt>
      <trkpt lat="46.27851" lon="6.16821">
        <ele>379.1</ele>
        <time>2022-09-28T07:24:41Z</time>
      </trkpt>
      <trkpt lat="46.27856" lon="6.16819">
        <ele>379.1</ele>
        <time>2022-09-28T07:24:42Z</time>
      </trkpt>
      <trkpt lat="46.2786" lon="6.16816">
        <ele>379.2</ele>
        <time>2022-09-28T07:24:43Z</time>
      </trkpt>
      <trkpt lat="46.27865" lon="6.16813">
        <ele>379.2</ele>
        <time>2022-09-28T07:24:44Z</time>
      </trkpt>
      <trkpt lat="46.27869" lon="6.16808">
        <ele>379.3</ele>
        <time>2022-09-28T07:24:45Z</time>
      </trkpt>
      <trkpt lat="46.27874" lon="6.16807">
        <ele>379.3</ele>
        <time>2022-09-28T07:24:46Z</time>
      </trkpt>
      <trkpt lat="46.27878" lon="6.16805">
        <ele>379.4</ele>
        <time>2022-09-28T07:24:47Z</time>
      </trkpt>
      <trkpt lat="46.27882" lon="6.16802">
        <ele>379.4</ele>
        <time>2022-09-28T07:24:48Z</time>
      </trkpt>
      <trkpt lat="46.27887" lon="6.16799">
        <ele>379.5</ele>
        <time>2022-09-28T07:24:49Z</time>
      </trkpt>
      <trkpt lat="46.27892" lon="6.16796">
        <ele>379.5</ele>
        <time>2022-09-28T07:24:50Z</time>
      </trkpt>
      <trkpt lat="46.27897" lon="6.16793">
        <ele>379.6</ele>
        <time>2022-09-28T07:24:51Z</time>
      </trkpt>
      <trkpt lat="46.27902" lon="6.16791">
        <ele>379.6</ele>
        <time>2022-09-28T07:24:52Z</time>
      </trkpt>
      <trkpt lat="46.27906" lon="6.16787">
        <ele>379.7</ele>
        <time>2022-09-28T07:24:53Z</time>
      </trkpt>
      <trkpt lat="46.2791" lon="6.16784">
        <ele>379.7</ele>
        <time>2022-09-28T07:24:54Z</time>
      </trkpt>
      <trkpt lat="46.27914" lon="6.16781">
        <ele>379.7</ele>
        <time>2022-09-28T07:24:55Z</time>
      </trkpt>
      <trkpt lat="46.27917" lon="6.16778">
        <ele>379.8</ele>
        <time>2022-09-28T07:24:56Z</time>
      </trkpt>
      <trkpt lat="46.27922" lon="6.16776">
        <ele>379.8</ele>
        <time>2022-09-28T07:24:57Z</time>
      </trkpt>
      <trkpt lat="46.27926" lon="6.16773">
        <ele>379.9</ele>
        <time>2022-09-28T07:24:58Z</time>
      </trkpt>
      <trkpt lat="46.27929" lon="6.1677">
        <ele>379.9</ele>
        <time>2022-09-28T07:24:59Z</time>
      </trkpt>
      <trkpt lat="46.27933" lon="6.16768">
        <ele>379.9</ele>
        <time>2022-09-28T07:25:00Z</time>
      </trkpt>
      <trkpt lat="46.27937" lon="6.16766">
        <ele>380</ele>
        <time>2022-09-28T07:25:01Z</time>
      </trkpt>
      <trkpt lat="46.27941" lon="6.16764">
        <ele>380</ele>
        <time>2022-09-28T07:25:02Z</time>
      </trkpt>
      <trkpt lat="46.27945" lon="6.16762">
        <ele>380</ele>
        <time>2022-09-28T07:25:03Z</time>
      </trkpt>
      <trkpt lat="46.27949" lon="6.1676">
        <ele>380</ele>
        <time>2022-09-28T07:25:04Z</time>
      </trkpt>
      <trkpt lat="46.27952" lon="6.16756">
        <ele>380</ele>
        <time>2022-09-28T07:25:05Z</time>
      </trkpt>
      <trkpt lat="46.27955" lon="6.16753">
        <ele>380.1</ele>
        <time>2022-09-28T07:25:06Z</time>
      </trkpt>
      <trkpt lat="46.27959" lon="6.1675">
        <ele>380.2</ele>
        <time>2022-09-28T07:25:07Z</time>
      </trkpt>
      <trkpt lat="46.27961" lon="6.16749">
        <ele>380.2</ele>
        <time>2022-09-28T07:25:08Z</time>
      </trkpt>
      <trkpt lat="46.27965" lon="6.16746">
        <ele>380.3</ele>
        <time>2022-09-28T07:25:09Z</time>
      </trkpt>
      <trkpt lat="46.27967" lon="6.16741">
        <ele>380.3</ele>
        <time>2022-09-28T07:25:10Z</time>
      </trkpt>
      <trkpt lat="46.27972" lon="6.16738">
        <ele>380.4</ele>
        <time>2022-09-28T07:25:11Z</time>
      </trkpt>
      <trkpt lat="46.27976" lon="6.16737">
        <ele>380.5</ele>
        <time>2022-09-28T07:25:12Z</time>
      </trkpt>
      <trkpt lat="46.2798" lon="6.16735">
        <ele>380.6</ele>
        <time>2022-09-28T07:25:13Z</time>
      </trkpt>
      <trkpt lat="46.27983" lon="6.16732">
        <ele>380.7</ele>
        <time>2022-09-28T07:25:14Z</time>
      </trkpt>
      <trkpt lat="46.27987" lon="6.1673">
        <ele>380.8</ele>
        <time>2022-09-28T07:25:15Z</time>
      </trkpt>
      <trkpt lat="46.2799" lon="6.16729">
        <ele>380.8</ele>
        <time>2022-09-28T07:25:16Z</time>
      </trkpt>
      <trkpt lat="46.27994" lon="6.16727">
        <ele>380.9</ele>
        <time>2022-09-28T07:25:17Z</time>
      </trkpt>
      <trkpt lat="46.27998" lon="6.16726">
        <ele>381</ele>
        <time>2022-09-28T07:25:18Z</time>
      </trkpt>
      <trkpt lat="46.28001" lon="6.16723">
        <ele>381.1</ele>
        <time>2022-09-28T07:25:19Z</time>
      </trkpt>
      <trkpt lat="46.28004" lon="6.16722">
        <ele>381.2</ele>
        <time>2022-09-28T07:25:20Z</time>
      </trkpt>
      <trkpt lat="46.28008" lon="6.1672">
        <ele>381.3</ele>
        <time>2022-09-28T07:25:21Z</time>
      </trkpt>
      <trkpt lat="46.28011" lon="6.16719">
        <ele>381.3</ele>
        <time>2022-09-28T07:25:22Z</time>
      </trkpt>
      <trkpt lat="46.28015" lon="6.16717">
        <ele>381.4</ele>
        <time>2022-09-28T07:25:23Z</time>
      </trkpt>
      <trkpt lat="46.28019" lon="6.16716">
        <ele>381.5</ele>
        <time>2022-09-28T07:25:24Z</time>
      </trkpt>
      <trkpt lat="46.28023" lon="6.16714">
        <ele>381.6</ele>
        <time>2022-09-28T07:25:25Z</time>
      </trkpt>
      <trkpt lat="46.28027" lon="6.16712">
        <ele>381.7</ele>
        <time>2022-09-28T07:25:26Z</time>
      </trkpt>
      <trkpt lat="46.2803" lon="6.1671">
        <ele>381.8</ele>
        <time>2022-09-28T07:25:27Z</time>
      </trkpt>
      <trkpt lat="46.28033" lon="6.16708">
        <ele>381.9</ele>
        <time>2022-09-28T07:25:28Z</time>
      </trkpt>
      <trkpt lat="46.28037" lon="6.16707">
        <ele>382</ele>
        <time>2022-09-28T07:25:29Z</time>
      </trkpt>
      <trkpt lat="46.28038" lon="6.16707">
        <ele>382</ele>
        <time>2022-09-28T07:25:30Z</time>
      </trkpt>
      <trkpt lat="46.28041" lon="6.16704">
        <ele>382.1</ele>
        <time>2022-09-28T07:25:31Z</time>
      </trkpt>
      <trkpt lat="46.28045" lon="6.16701">
        <ele>382.2</ele>
        <time>2022-09-28T07:25:32Z</time>
      </trkpt>
      <trkpt lat="46.28048" lon="6.16698">
        <ele>382.3</ele>
        <time>2022-09-28T07:25:33Z</time>
      </trkpt>
      <trkpt lat="46.28052" lon="6.16696">
        <ele>382.5</ele>
        <time>2022-09-28T07:25:34Z</time>
      </trkpt>
      <trkpt lat="46.28055" lon="6.16694">
        <ele>382.6</ele>
        <time>2022-09-28T07:25:35Z</time>
      </trkpt>
      <trkpt lat="46.28058" lon="6.16692">
        <ele>382.7</ele>
        <time>2022-09-28T07:25:36Z</time>
      </trkpt>
      <trkpt lat="46.28062" lon="6.1669">
        <ele>382.8</ele>
        <time>2022-09-28T07:25:37Z</time>
      </trkpt>
      <trkpt lat="46.28065" lon="6.16689">
        <ele>382.9</ele>
        <time>2022-09-28T07:25:38Z</time>
      </trkpt>
      <trkpt lat="46.28068" lon="6.16687">
        <ele>383.1</ele>
        <time>2022-09-28T07:25:39Z</time>
      </trkpt>
      <trkpt lat="46.28071" lon="6.16685">
        <ele>383.2</ele>
        <time>2022-09-28T07:25:40Z</time>
      </trkpt>
      <trkpt lat="46.28074" lon="6.16682">
        <ele>383.3</ele>
        <time>2022-09-28T07:25:41Z</time>
      </trkpt>
      <trkpt lat="46.28078" lon="6.16681">
        <ele>383.4</ele>
        <time>2022-09-28T07:25:42Z</time>
      </trkpt>
      <trkpt lat="46.2808" lon="6.16679">
        <ele>383.5</ele>
        <time>2022-09-28T07:25:43Z</time>
      </trkpt>
      <trkpt lat="46.28083" lon="6.16678">
        <ele>383.6</ele>
        <time>2022-09-28T07:25:44Z</time>
      </trkpt>
      <trkpt lat="46.28086" lon="6.16677">
        <ele>383.7</ele>
        <time>2022-09-28T07:25:45Z</time>
      </trkpt>
      <trkpt lat="46.28089" lon="6.16675">
        <ele>383.8</ele>
        <time>2022-09-28T07:25:46Z</time>
      </trkpt>
      <trkpt lat="46.28092" lon="6.16673">
        <ele>383.9</ele>
        <time>2022-09-28T07:25:47Z</time>
      </trkpt>
      <trkpt lat="46.28095" lon="6.16672">
        <ele>384</ele>
        <time>2022-09-28T07:25:48Z</time>
      </trkpt>
      <trkpt lat="46.28096" lon="6.16672">
        <ele>384.1</ele>
        <time>2022-09-28T07:25:49Z</time>
      </trkpt>
      <trkpt lat="46.28099" lon="6.16669">
        <ele>384.2</ele>
        <time>2022-09-28T07:25:50Z</time>
      </trkpt>
      <trkpt lat="46.28102" lon="6.16668">
        <ele>384.3</ele>
        <time>2022-09-28T07:25:51Z</time>
      </trkpt>
      <trkpt lat="46.28104" lon="6.16665">
        <ele>384.4</ele>
        <time>2022-09-28T07:25:52Z</time>
      </trkpt>
      <trkpt lat="46.28107" lon="6.16661">
        <ele>384.5</ele>
        <time>2022-09-28T07:25:53Z</time>
      </trkpt>
      <trkpt lat="46.28107" lon="6.1666">
        <ele>384.6</ele>
        <time>2022-09-28T07:25:54Z</time>
      </trkpt>
      <trkpt lat="46.2811" lon="6.16658">
        <ele>384.6</ele>
        <time>2022-09-28T07:25:55Z</time>
      </trkpt>
      <trkpt lat="46.28112" lon="6.16658">
        <ele>384.7</ele>
        <time>2022-09-28T07:25:56Z</time>
      </trkpt>
      <trkpt lat="46.28115" lon="6.16657">
        <ele>384.8</ele>
        <time>2022-09-28T07:25:57Z</time>
      </trkpt>
      <trkpt lat="46.28115" lon="6.16657">
        <ele>384.8</ele>
        <time>2022-09-28T07:25:58Z</time>
      </trkpt>
      <trkpt lat="46.28119" lon="6.16656">
        <ele>384.9</ele>
        <time>2022-09-28T07:25:59Z</time>
      </trkpt>
      <trkpt lat="46.28121" lon="6.16655">
        <ele>384.9</ele>
        <time>2022-09-28T07:26:00Z</time>
      </trkpt>
      <trkpt lat="46.28125" lon="6.16653">
        <ele>385</ele>
        <time>2022-09-28T07:26:01Z</time>
      </trkpt>
      <trkpt lat="46.28127" lon="6.16652">
        <ele>385</ele>
        <time>2022-09-28T07:26:02Z</time>
      </trkpt>
      <trkpt lat="46.28129" lon="6.16651">
        <ele>385.1</ele>
        <time>2022-09-28T07:26:03Z</time>
      </trkpt>
      <trkpt lat="46.28132" lon="6.16649">
        <ele>385.1</ele>
        <time>2022-09-28T07:26:04Z</time>
      </trkpt>
      <trkpt lat="46.28133" lon="6.16648">
        <ele>385.1</ele>
        <time>2022-09-28T07:26:05Z</time>
      </trkpt>
      <trkpt lat="46.28135" lon="6.16646">
        <ele>385.2</ele>
        <time>2022-09-28T07:26:06Z</time>
      </trkpt>
      <trkpt lat="46.28138" lon="6.16643">
        <ele>385.2</ele>
        <time>2022-09-28T07:26:07Z</time>
      </trkpt>
      <trkpt lat="46.2814" lon="6.16641">
        <ele>385.3</ele>
        <time>2022-09-28T07:26:08Z</time>
      </trkpt>
      <trkpt lat="46.28142" lon="6.1664">
        <ele>385.4</ele>
        <time>2022-09-28T07:26:09Z</time>
      </trkpt>
      <trkpt lat="46.28144" lon="6.16636">
        <ele>385.5</ele>
        <time>2022-09-28T07:26:10Z</time>
      </trkpt>
      <trkpt lat="46.28146" lon="6.16632">
        <ele>385.6</ele>
        <time>2022-09-28T07:26:11Z</time>
      </trkpt>
      <trkpt lat="46.28147" lon="6.16631">
        <ele>385.6</ele>
        <time>2022-09-28T07:26:12Z</time>
      </trkpt>
      <trkpt lat="46.28151" lon="6.16628">
        <ele>385.7</ele>
        <time>2022-09-28T07:26:13Z</time>
      </trkpt>
      <trkpt lat="46.28152" lon="6.16626">
        <ele>385.8</ele>
        <time>2022-09-28T07:26:14Z</time>
      </trkpt>
      <trkpt lat="46.28155" lon="6.16622">
        <ele>385.9</ele>
        <time>2022-09-28T07:26:15Z</time>
      </trkpt>
      <trkpt lat="46.28155" lon="6.1662">
        <ele>385.9</ele>
        <time>2022-09-28T07:26:16Z</time>
      </trkpt>
      <trkpt lat="46.28158" lon="6.16618">
        <ele>386</ele>
        <time>2022-09-28T07:26:17Z</time>
      </trkpt>
      <trkpt lat="46.2816" lon="6.16616">
        <ele>386.1</ele>
        <time>2022-09-28T07:26:18Z</time>
      </trkpt>
      <trkpt lat="46.28164" lon="6.16613">
        <ele>386.2</ele>
        <time>2022-09-28T07:26:19Z</time>
      </trkpt>
      <trkpt lat="46.28167" lon="6.16613">
        <ele>386.3</ele>
        <time>2022-09-28T07:26:20Z</time>
      </trkpt>
      <trkpt lat="46.2817" lon="6.16612">
        <ele>386.4</ele>
        <time>2022-09-28T07:26:21Z</time>
      </trkpt>
      <trkpt lat="46.28174" lon="6.1661">
        <ele>386.5</ele>
        <time>2022-09-28T07:26:22Z</time>
      </trkpt>
      <trkpt lat="46.28175" lon="6.1661">
        <ele>386.5</ele>
        <time>2022-09-28T07:26:23Z</time>
      </trkpt>
      <trkpt lat="46.28179" lon="6.16609">
        <ele>386.6</ele>
        <time>2022-09-28T07:26:24Z</time>
      </trkpt>
      <trkpt lat="46.28184" lon="6.16608">
        <ele>386.8</ele>
        <time>2022-09-28T07:26:25Z</time>
      </trkpt>
      <trkpt lat="46.28187" lon="6.16608">
        <ele>386.9</ele>
        <time>2022-09-28T07:26:26Z</time>
      </trkpt>
      <trkpt lat="46.2819" lon="6.16606">
        <ele>386.9</ele>
        <time>2022-09-28T07:26:27Z</time>
      </trkpt>
      <trkpt lat="46.28194" lon="6.16606">
        <ele>387</ele>
        <time>2022-09-28T07:26:28Z</time>
      </trkpt>
      <trkpt lat="46.28196" lon="6.16605">
        <ele>387.1</ele>
        <time>2022-09-28T07:26:29Z</time>
      </trkpt>
      <trkpt lat="46.28199" lon="6.16603">
        <ele>387.2</ele>
        <time>2022-09-28T07:26:30Z</time>
      </trkpt>
      <trkpt lat="46.28201" lon="6.16602">
        <ele>387.2</ele>
        <time>2022-09-28T07:26:31Z</time>
      </trkpt>
      <trkpt lat="46.28204" lon="6.166">
        <ele>387.3</ele>
        <time>2022-09-28T07:26:32Z</time>
      </trkpt>
      <trkpt lat="46.28206" lon="6.166">
        <ele>387.4</ele>
        <time>2022-09-28T07:26:33Z</time>
      </trkpt>
      <trkpt lat="46.28208" lon="6.16599">
        <ele>387.4</ele>
        <time>2022-09-28T07:26:34Z</time>
      </trkpt>
      <trkpt lat="46.28211" lon="6.16599">
        <ele>387.5</ele>
        <time>2022-09-28T07:26:35Z</time>
      </trkpt>
      <trkpt lat="46.28215" lon="6.16598">
        <ele>387.6</ele>
        <time>2022-09-28T07:26:36Z</time>
      </trkpt>
      <trkpt lat="46.28216" lon="6.16598">
        <ele>387.6</ele>
        <time>2022-09-28T07:26:37Z</time>
      </trkpt>
      <trkpt lat="46.2822" lon="6.16597">
        <ele>387.7</ele>
        <time>2022-09-28T07:26:38Z</time>
      </trkpt>
      <trkpt lat="46.28221" lon="6.16597">
        <ele>387.7</ele>
        <time>2022-09-28T07:26:39Z</time>
      </trkpt>
      <trkpt lat="46.28225" lon="6.16597">
        <ele>387.8</ele>
        <time>2022-09-28T07:26:40Z</time>
      </trkpt>
      <trkpt lat="46.28226" lon="6.16597">
        <ele>387.9</ele>
        <time>2022-09-28T07:26:41Z</time>
      </trkpt>
      <trkpt lat="46.28229" lon="6.16597">
        <ele>387.9</ele>
        <time>2022-09-28T07:26:42Z</time>
      </trkpt>
      <trkpt lat="46.2823" lon="6.16597">
        <ele>387.9</ele>
        <time>2022-09-28T07:26:43Z</time>
      </trkpt>
      <trkpt lat="46.28233" lon="6.16596">
        <ele>388</ele>
        <time>2022-09-28T07:26:44Z</time>
      </trkpt>
      <trkpt lat="46.28236" lon="6.16596">
        <ele>388</ele>
        <time>2022-09-28T07:26:45Z</time>
      </trkpt>
      <trkpt lat="46.28239" lon="6.16594">
        <ele>388</ele>
        <time>2022-09-28T07:26:46Z</time>
      </trkpt>
      <trkpt lat="46.28242" lon="6.16593">
        <ele>388.1</ele>
        <time>2022-09-28T07:26:47Z</time>
      </trkpt>
      <trkpt lat="46.28245" lon="6.16593">
        <ele>388.1</ele>
        <time>2022-09-28T07:26:48Z</time>
      </trkpt>
      <trkpt lat="46.28248" lon="6.16592">
        <ele>388.1</ele>
        <time>2022-09-28T07:26:49Z</time>
      </trkpt>
      <trkpt lat="46.28252" lon="6.16593">
        <ele>388.2</ele>
        <time>2022-09-28T07:26:50Z</time>
      </trkpt>
      <trkpt lat="46.28255" lon="6.16592">
        <ele>388.2</ele>
        <time>2022-09-28T07:26:51Z</time>
      </trkpt>
      <trkpt lat="46.28259" lon="6.16592">
        <ele>388.2</ele>
        <time>2022-09-28T07:26:52Z</time>
      </trkpt>
      <trkpt lat="46.28263" lon="6.16591">
        <ele>388.3</ele>
        <time>2022-09-28T07:26:53Z</time>
      </trkpt>
      <trkpt lat="46.28267" lon="6.16591">
        <ele>388.3</ele>
        <time>2022-09-28T07:26:54Z</time>
      </trkpt>
      <trkpt lat="46.28269" lon="6.16591">
        <ele>388.3</ele>
        <time>2022-09-28T07:26:55Z</time>
      </trkpt>
      <trkpt lat="46.28272" lon="6.16592">
        <ele>388.3</ele>
        <time>2022-09-28T07:26:56Z</time>
      </trkpt>
      <trkpt lat="46.28279" lon="6.16592">
        <ele>388.4</ele>
        <time>2022-09-28T07:26:57Z</time>
      </trkpt>
      <trkpt lat="46.28283" lon="6.16592">
        <ele>388.4</ele>
        <time>2022-09-28T07:26:58Z</time>
      </trkpt>
      <trkpt lat="46.28286" lon="6.16593">
        <ele>388.4</ele>
        <time>2022-09-28T07:26:59Z</time>
      </trkpt>
      <trkpt lat="46.2829" lon="6.16592">
        <ele>388.4</ele>
        <time>2022-09-28T07:27:00Z</time>
      </trkpt>
      <trkpt lat="46.28294" lon="6.16591">
        <ele>388.4</ele>
        <time>2022-09-28T07:27:01Z</time>
      </trkpt>
      <trkpt lat="46.28299" lon="6.1659">
        <ele>388.4</ele>
        <time>2022-09-28T07:27:02Z</time>
      </trkpt>
      <trkpt lat="46.28303" lon="6.16588">
        <ele>388.4</ele>
        <time>2022-09-28T07:27:03Z</time>
      </trkpt>
      <trkpt lat="46.28304" lon="6.16587">
        <ele>388.4</ele>
        <time>2022-09-28T07:27:04Z</time>
      </trkpt>
      <trkpt lat="46.28308" lon="6.16587">
        <ele>388.4</ele>
        <time>2022-09-28T07:27:05Z</time>
      </trkpt>
      <trkpt lat="46.28313" lon="6.16586">
        <ele>388.4</ele>
        <time>2022-09-28T07:27:06Z</time>
      </trkpt>
      <trkpt lat="46.28317" lon="6.16585">
        <ele>388.4</ele>
        <time>2022-09-28T07:27:07Z</time>
      </trkpt>
      <trkpt lat="46.2832" lon="6.16584">
        <ele>388.4</ele>
        <time>2022-09-28T07:27:08Z</time>
      </trkpt>
      <trkpt lat="46.28324" lon="6.16585">
        <ele>388.4</ele>
        <time>2022-09-28T07:27:09Z</time>
      </trkpt>
      <trkpt lat="46.28328" lon="6.16585">
        <ele>388.4</ele>
        <time>2022-09-28T07:27:10Z</time>
      </trkpt>
      <trkpt lat="46.28333" lon="6.16585">
        <ele>388.4</ele>
        <time>2022-09-28T07:27:11Z</time>
      </trkpt>
      <trkpt lat="46.28337" lon="6.16585">
        <ele>388.4</ele>
        <time>2022-09-28T07:27:12Z</time>
      </trkpt>
      <trkpt lat="46.28341" lon="6.16585">
        <ele>388.4</ele>
        <time>2022-09-28T07:27:13Z</time>
      </trkpt>
      <trkpt lat="46.28345" lon="6.16586">
        <ele>388.4</ele>
        <time>2022-09-28T07:27:14Z</time>
      </trkpt>
      <trkpt lat="46.28349" lon="6.16586">
        <ele>388.4</ele>
        <time>2022-09-28T07:27:15Z</time>
      </trkpt>
      <trkpt lat="46.28353" lon="6.16587">
        <ele>388.4</ele>
        <time>2022-09-28T07:27:16Z</time>
      </trkpt>
      <trkpt lat="46.28357" lon="6.16588">
        <ele>388.4</ele>
        <time>2022-09-28T07:27:17Z</time>
      </trkpt>
      <trkpt lat="46.28361" lon="6.16587">
        <ele>388.4</ele>
        <time>2022-09-28T07:27:18Z</time>
      </trkpt>
      <trkpt lat="46.28365" lon="6.16588">
        <ele>388.4</ele>
        <time>2022-09-28T07:27:19Z</time>
      </trkpt>
      <trkpt lat="46.28369" lon="6.16588">
        <ele>388.5</ele>
        <time>2022-09-28T07:27:20Z</time>
      </trkpt>
      <trkpt lat="46.28373" lon="6.16588">
        <ele>388.5</ele>
        <time>2022-09-28T07:27:21Z</time>
      </trkpt>
      <trkpt lat="46.28378" lon="6.16589">
        <ele>388.5</ele>
        <time>2022-09-28T07:27:22Z</time>
      </trkpt>
      <trkpt lat="46.2838" lon="6.16589">
        <ele>388.5</ele>
        <time>2022-09-28T07:27:23Z</time>
      </trkpt>
      <trkpt lat="46.28383" lon="6.16589">
        <ele>388.5</ele>
        <time>2022-09-28T07:27:24Z</time>
      </trkpt>
      <trkpt lat="46.28388" lon="6.16589">
        <ele>388.5</ele>
        <time>2022-09-28T07:27:25Z</time>
      </trkpt>
      <trkpt lat="46.28392" lon="6.16588">
        <ele>388.5</ele>
        <time>2022-09-28T07:27:26Z</time>
      </trkpt>
      <trkpt lat="46.28396" lon="6.16587">
        <ele>388.5</ele>
        <time>2022-09-28T07:27:27Z</time>
      </trkpt>
      <trkpt lat="46.28399" lon="6.16587">
        <ele>388.5</ele>
        <time>2022-09-28T07:27:28Z</time>
      </trkpt>
      <trkpt lat="46.28404" lon="6.16586">
        <ele>388.6</ele>
        <time>2022-09-28T07:27:29Z</time>
      </trkpt>
      <trkpt lat="46.28408" lon="6.16587">
        <ele>388.6</ele>
        <time>2022-09-28T07:27:30Z</time>
      </trkpt>
      <trkpt lat="46.28413" lon="6.16587">
        <ele>388.6</ele>
        <time>2022-09-28T07:27:31Z</time>
      </trkpt>
      <trkpt lat="46.28418" lon="6.16587">
        <ele>388.6</ele>
        <time>2022-09-28T07:27:32Z</time>
      </trkpt>
      <trkpt lat="46.28422" lon="6.16587">
        <ele>388.6</ele>
        <time>2022-09-28T07:27:33Z</time>
      </trkpt>
      <trkpt lat="46.28426" lon="6.16586">
        <ele>388.7</ele>
        <time>2022-09-28T07:27:34Z</time>
      </trkpt>
      <trkpt lat="46.2843" lon="6.16586">
        <ele>388.7</ele>
        <time>2022-09-28T07:27:35Z</time>
      </trkpt>
      <trkpt lat="46.28432" lon="6.16586">
        <ele>388.7</ele>
        <time>2022-09-28T07:27:36Z</time>
      </trkpt>
      <trkpt lat="46.28436" lon="6.16586">
        <ele>388.7</ele>
        <time>2022-09-28T07:27:37Z</time>
      </trkpt>
      <trkpt lat="46.2844" lon="6.16586">
        <ele>388.8</ele>
        <time>2022-09-28T07:27:38Z</time>
      </trkpt>
      <trkpt lat="46.28444" lon="6.16585">
        <ele>388.8</ele>
        <time>2022-09-28T07:27:39Z</time>
      </trkpt>
      <trkpt lat="46.28448" lon="6.16585">
        <ele>388.8</ele>
        <time>2022-09-28T07:27:40Z</time>
      </trkpt>
      <trkpt lat="46.28452" lon="6.16585">
        <ele>388.8</ele>
        <time>2022-09-28T07:27:41Z</time>
      </trkpt>
      <trkpt lat="46.28457" lon="6.16585">
        <ele>388.8</ele>
        <time>2022-09-28T07:27:42Z</time>
      </trkpt>
      <trkpt lat="46.28462" lon="6.16585">
        <ele>388.8</ele>
        <time>2022-09-28T07:27:43Z</time>
      </trkpt>
      <trkpt lat="46.28466" lon="6.16584">
        <ele>388.9</ele>
        <time>2022-09-28T07:27:44Z</time>
      </trkpt>
      <trkpt lat="46.2847" lon="6.16582">
        <ele>388.9</ele>
        <time>2022-09-28T07:27:45Z</time>
      </trkpt>
      <trkpt lat="46.28475" lon="6.16583">
        <ele>388.9</ele>
        <time>2022-09-28T07:27:46Z</time>
      </trkpt>
      <trkpt lat="46.2848" lon="6.16583">
        <ele>389</ele>
        <time>2022-09-28T07:27:47Z</time>
      </trkpt>
      <trkpt lat="46.28484" lon="6.16583">
        <ele>389</ele>
        <time>2022-09-28T07:27:48Z</time>
      </trkpt>
      <trkpt lat="46.28488" lon="6.16583">
        <ele>389</ele>
        <time>2022-09-28T07:27:49Z</time>
      </trkpt>
      <trkpt lat="46.28492" lon="6.16583">
        <ele>389</ele>
        <time>2022-09-28T07:27:50Z</time>
      </trkpt>
      <trkpt lat="46.28495" lon="6.16582">
        <ele>389</ele>
        <time>2022-09-28T07:27:51Z</time>
      </trkpt>
      <trkpt lat="46.28499" lon="6.16584">
        <ele>389.1</ele>
        <time>2022-09-28T07:27:52Z</time>
      </trkpt>
      <trkpt lat="46.28503" lon="6.16585">
        <ele>389.1</ele>
        <time>2022-09-28T07:27:53Z</time>
      </trkpt>
      <trkpt lat="46.28507" lon="6.16585">
        <ele>389.1</ele>
        <time>2022-09-28T07:27:54Z</time>
      </trkpt>
      <trkpt lat="46.2851" lon="6.16584">
        <ele>389.1</ele>
        <time>2022-09-28T07:27:55Z</time>
      </trkpt>
      <trkpt lat="46.28514" lon="6.16586">
        <ele>389.2</ele>
        <time>2022-09-28T07:27:56Z</time>
      </trkpt>
      <trkpt lat="46.28517" lon="6.16586">
        <ele>389.2</ele>
        <time>2022-09-28T07:27:57Z</time>
      </trkpt>
      <trkpt lat="46.28521" lon="6.16585">
        <ele>389.2</ele>
        <time>2022-09-28T07:27:58Z</time>
      </trkpt>
      <trkpt lat="46.28524" lon="6.16586">
        <ele>389.2</ele>
        <time>2022-09-28T07:27:59Z</time>
      </trkpt>
      <trkpt lat="46.28528" lon="6.16586">
        <ele>389.3</ele>
        <time>2022-09-28T07:28:00Z</time>
      </trkpt>
      <trkpt lat="46.28531" lon="6.16586">
        <ele>389.3</ele>
        <time>2022-09-28T07:28:01Z</time>
      </trkpt>
      <trkpt lat="46.28534" lon="6.16586">
        <ele>389.4</ele>
        <time>2022-09-28T07:28:02Z</time>
      </trkpt>
      <trkpt lat="46.28538" lon="6.16586">
        <ele>389.4</ele>
        <time>2022-09-28T07:28:03Z</time>
      </trkpt>
      <trkpt lat="46.28541" lon="6.16586">
        <ele>389.5</ele>
        <time>2022-09-28T07:28:04Z</time>
      </trkpt>
      <trkpt lat="46.28545" lon="6.16586">
        <ele>389.5</ele>
        <time>2022-09-28T07:28:05Z</time>
      </trkpt>
      <trkpt lat="46.28548" lon="6.16586">
        <ele>389.5</ele>
        <time>2022-09-28T07:28:06Z</time>
      </trkpt>
      <trkpt lat="46.28552" lon="6.16586">
        <ele>389.6</ele>
        <time>2022-09-28T07:28:07Z</time>
      </trkpt>
      <trkpt lat="46.28556" lon="6.16586">
        <ele>389.6</ele>
        <time>2022-09-28T07:28:08Z</time>
      </trkpt>
      <trkpt lat="46.2856" lon="6.16586">
        <ele>389.7</ele>
        <time>2022-09-28T07:28:09Z</time>
      </trkpt>
      <trkpt lat="46.28564" lon="6.16586">
        <ele>389.7</ele>
        <time>2022-09-28T07:28:10Z</time>
      </trkpt>
      <trkpt lat="46.28568" lon="6.16586">
        <ele>389.7</ele>
        <time>2022-09-28T07:28:11Z</time>
      </trkpt>
      <trkpt lat="46.28571" lon="6.16585">
        <ele>389.7</ele>
        <time>2022-09-28T07:28:12Z</time>
      </trkpt>
      <trkpt lat="46.28574" lon="6.16586">
        <ele>389.7</ele>
        <time>2022-09-28T07:28:13Z</time>
      </trkpt>
      <trkpt lat="46.28577" lon="6.16586">
        <ele>389.8</ele>
        <time>2022-09-28T07:28:14Z</time>
      </trkpt>
      <trkpt lat="46.2858" lon="6.16586">
        <ele>389.8</ele>
        <time>2022-09-28T07:28:15Z</time>
      </trkpt>
      <trkpt lat="46.28584" lon="6.16586">
        <ele>389.8</ele>
        <time>2022-09-28T07:28:16Z</time>
      </trkpt>
      <trkpt lat="46.28589" lon="6.16586">
        <ele>389.8</ele>
        <time>2022-09-28T07:28:17Z</time>
      </trkpt>
      <trkpt lat="46.28592" lon="6.16586">
        <ele>389.8</ele>
        <time>2022-09-28T07:28:18Z</time>
      </trkpt>
      <trkpt lat="46.28596" lon="6.16586">
        <ele>389.8</ele>
        <time>2022-09-28T07:28:19Z</time>
      </trkpt>
      <trkpt lat="46.286" lon="6.16586">
        <ele>389.8</ele>
        <time>2022-09-28T07:28:20Z</time>
      </trkpt>
      <trkpt lat="46.28605" lon="6.16586">
        <ele>389.8</ele>
        <time>2022-09-28T07:28:21Z</time>
      </trkpt>
      <trkpt lat="46.2861" lon="6.16586">
        <ele>389.8</ele>
        <time>2022-09-28T07:28:22Z</time>
      </trkpt>
      <trkpt lat="46.28613" lon="6.16585">
        <ele>389.8</ele>
        <time>2022-09-28T07:28:23Z</time>
      </trkpt>
      <trkpt lat="46.28617" lon="6.16585">
        <ele>389.8</ele>
        <time>2022-09-28T07:28:24Z</time>
      </trkpt>
      <trkpt lat="46.28622" lon="6.16585">
        <ele>389.8</ele>
        <time>2022-09-28T07:28:25Z</time>
      </trkpt>
      <trkpt lat="46.28626" lon="6.16585">
        <ele>389.8</ele>
        <time>2022-09-28T07:28:26Z</time>
      </trkpt>
      <trkpt lat="46.28632" lon="6.16585">
        <ele>389.7</ele>
        <time>2022-09-28T07:28:27Z</time>
      </trkpt>
      <trkpt lat="46.28637" lon="6.16585">
        <ele>389.7</ele>
        <time>2022-09-28T07:28:28Z</time>
      </trkpt>
      <trkpt lat="46.28642" lon="6.16584">
        <ele>389.7</ele>
        <time>2022-09-28T07:28:29Z</time>
      </trkpt>
      <trkpt lat="46.28647" lon="6.16583">
        <ele>389.7</ele>
        <time>2022-09-28T07:28:30Z</time>
      </trkpt>
      <trkpt lat="46.2865" lon="6.16582">
        <ele>389.7</ele>
        <time>2022-09-28T07:28:31Z</time>
      </trkpt>
      <trkpt lat="46.28657" lon="6.16583">
        <ele>389.6</ele>
        <time>2022-09-28T07:28:32Z</time>
      </trkpt>
      <trkpt lat="46.28662" lon="6.16582">
        <ele>389.6</ele>
        <time>2022-09-28T07:28:33Z</time>
      </trkpt>
      <trkpt lat="46.28666" lon="6.16582">
        <ele>389.6</ele>
        <time>2022-09-28T07:28:34Z</time>
      </trkpt>
      <trkpt lat="46.28671" lon="6.16581">
        <ele>389.5</ele>
        <time>2022-09-28T07:28:35Z</time>
      </trkpt>
      <trkpt lat="46.28676" lon="6.16582">
        <ele>389.5</ele>
        <time>2022-09-28T07:28:36Z</time>
      </trkpt>
      <trkpt lat="46.28681" lon="6.16581">
        <ele>389.5</ele>
        <time>2022-09-28T07:28:37Z</time>
      </trkpt>
      <trkpt lat="46.28686" lon="6.16581">
        <ele>389.4</ele>
        <time>2022-09-28T07:28:38Z</time>
      </trkpt>
      <trkpt lat="46.2869" lon="6.16582">
        <ele>389.4</ele>
        <time>2022-09-28T07:28:39Z</time>
      </trkpt>
      <trkpt lat="46.28696" lon="6.16582">
        <ele>389.4</ele>
        <time>2022-09-28T07:28:40Z</time>
      </trkpt>
      <trkpt lat="46.287" lon="6.16581">
        <ele>389.4</ele>
        <time>2022-09-28T07:28:41Z</time>
      </trkpt>
      <trkpt lat="46.28705" lon="6.16581">
        <ele>389.4</ele>
        <time>2022-09-28T07:28:42Z</time>
      </trkpt>
      <trkpt lat="46.28709" lon="6.16582">
        <ele>389.3</ele>
        <time>2022-09-28T07:28:43Z</time>
      </trkpt>
      <trkpt lat="46.28714" lon="6.16581">
        <ele>389.3</ele>
        <time>2022-09-28T07:28:44Z</time>
      </trkpt>
      <trkpt lat="46.28719" lon="6.16581">
        <ele>389.3</ele>
        <time>2022-09-28T07:28:45Z</time>
      </trkpt>
      <trkpt lat="46.28723" lon="6.16582">
        <ele>389.3</ele>
        <time>2022-09-28T07:28:46Z</time>
      </trkpt>
      <trkpt lat="46.28728" lon="6.16581">
        <ele>389.3</ele>
        <time>2022-09-28T07:28:47Z</time>
      </trkpt>
      <trkpt lat="46.28732" lon="6.1658">
        <ele>389.3</ele>
        <time>2022-09-28T07:28:48Z</time>
      </trkpt>
      <trkpt lat="46.28735" lon="6.16579">
        <ele>389.3</ele>
        <time>2022-09-28T07:28:49Z</time>
      </trkpt>
      <trkpt lat="46.28741" lon="6.16579">
        <ele>389.3</ele>
        <time>2022-09-28T07:28:50Z</time>
      </trkpt>
      <trkpt lat="46.28745" lon="6.16579">
        <ele>389.3</ele>
        <time>2022-09-28T07:28:51Z</time>
      </trkpt>
      <trkpt lat="46.2875" lon="6.16579">
        <ele>389.3</ele>
        <time>2022-09-28T07:28:52Z</time>
      </trkpt>
      <trkpt lat="46.28755" lon="6.16579">
        <ele>389.3</ele>
        <time>2022-09-28T07:28:53Z</time>
      </trkpt>
      <trkpt lat="46.2876" lon="6.16578">
        <ele>389.3</ele>
        <time>2022-09-28T07:28:54Z</time>
      </trkpt>
      <trkpt lat="46.28764" lon="6.16578">
        <ele>389.4</ele>
        <time>2022-09-28T07:28:55Z</time>
      </trkpt>
      <trkpt lat="46.28769" lon="6.16578">
        <ele>389.4</ele>
        <time>2022-09-28T07:28:56Z</time>
      </trkpt>
      <trkpt lat="46.28773" lon="6.16577">
        <ele>389.4</ele>
        <time>2022-09-28T07:28:57Z</time>
      </trkpt>
      <trkpt lat="46.28777" lon="6.16577">
        <ele>389.4</ele>
        <time>2022-09-28T07:28:58Z</time>
      </trkpt>
      <trkpt lat="46.28782" lon="6.16578">
        <ele>389.5</ele>
        <time>2022-09-28T07:28:59Z</time>
      </trkpt>
      <trkpt lat="46.28786" lon="6.16577">
        <ele>389.5</ele>
        <time>2022-09-28T07:29:00Z</time>
      </trkpt>
      <trkpt lat="46.2879" lon="6.16576">
        <ele>389.5</ele>
        <time>2022-09-28T07:29:01Z</time>
      </trkpt>
      <trkpt lat="46.28796" lon="6.16577">
        <ele>389.6</ele>
        <time>2022-09-28T07:29:02Z</time>
      </trkpt>
      <trkpt lat="46.288" lon="6.16577">
        <ele>389.6</ele>
        <time>2022-09-28T07:29:03Z</time>
      </trkpt>
      <trkpt lat="46.28804" lon="6.16577">
        <ele>389.6</ele>
        <time>2022-09-28T07:29:04Z</time>
      </trkpt>
      <trkpt lat="46.28809" lon="6.16577">
        <ele>389.7</ele>
        <time>2022-09-28T07:29:05Z</time>
      </trkpt>
      <trkpt lat="46.28812" lon="6.16577">
        <ele>389.7</ele>
        <time>2022-09-28T07:29:06Z</time>
      </trkpt>
      <trkpt lat="46.28818" lon="6.16576">
        <ele>389.8</ele>
        <time>2022-09-28T07:29:07Z</time>
      </trkpt>
      <trkpt lat="46.28822" lon="6.16576">
        <ele>389.8</ele>
        <time>2022-09-28T07:29:08Z</time>
      </trkpt>
      <trkpt lat="46.28827" lon="6.16576">
        <ele>389.9</ele>
        <time>2022-09-28T07:29:09Z</time>
      </trkpt>
      <trkpt lat="46.28831" lon="6.16576">
        <ele>389.9</ele>
        <time>2022-09-28T07:29:10Z</time>
      </trkpt>
      <trkpt lat="46.28836" lon="6.16576">
        <ele>389.9</ele>
        <time>2022-09-28T07:29:11Z</time>
      </trkpt>
      <trkpt lat="46.28841" lon="6.16577">
        <ele>390</ele>
        <time>2022-09-28T07:29:12Z</time>
      </trkpt>
      <trkpt lat="46.28845" lon="6.16578">
        <ele>390</ele>
        <time>2022-09-28T07:29:13Z</time>
      </trkpt>
      <trkpt lat="46.2885" lon="6.16578">
        <ele>390</ele>
        <time>2022-09-28T07:29:14Z</time>
      </trkpt>
      <trkpt lat="46.28853" lon="6.16578">
        <ele>390</ele>
        <time>2022-09-28T07:29:15Z</time>
      </trkpt>
      <trkpt lat="46.28857" lon="6.16577">
        <ele>390.1</ele>
        <time>2022-09-28T07:29:16Z</time>
      </trkpt>
      <trkpt lat="46.28861" lon="6.16576">
        <ele>390.1</ele>
        <time>2022-09-28T07:29:17Z</time>
      </trkpt>
      <trkpt lat="46.28865" lon="6.16575">
        <ele>390.2</ele>
        <time>2022-09-28T07:29:18Z</time>
      </trkpt>
      <trkpt lat="46.28868" lon="6.16574">
        <ele>390.2</ele>
        <time>2022-09-28T07:29:19Z</time>
      </trkpt>
      <trkpt lat="46.28872" lon="6.16573">
        <ele>390.3</ele>
        <time>2022-09-28T07:29:20Z</time>
      </trkpt>
      <trkpt lat="46.28876" lon="6.16573">
        <ele>390.3</ele>
        <time>2022-09-28T07:29:21Z</time>
      </trkpt>
      <trkpt lat="46.28879" lon="6.16573">
        <ele>390.4</ele>
        <time>2022-09-28T07:29:22Z</time>
      </trkpt>
      <trkpt lat="46.28883" lon="6.16573">
        <ele>390.5</ele>
        <time>2022-09-28T07:29:23Z</time>
      </trkpt>
      <trkpt lat="46.28886" lon="6.16573">
        <ele>390.5</ele>
        <time>2022-09-28T07:29:24Z</time>
      </trkpt>
      <trkpt lat="46.28889" lon="6.16574">
        <ele>390.6</ele>
        <time>2022-09-28T07:29:25Z</time>
      </trkpt>
      <trkpt lat="46.28893" lon="6.16575">
        <ele>390.7</ele>
        <time>2022-09-28T07:29:26Z</time>
      </trkpt>
      <trkpt lat="46.28898" lon="6.16575">
        <ele>390.8</ele>
        <time>2022-09-28T07:29:27Z</time>
      </trkpt>
      <trkpt lat="46.289" lon="6.16575">
        <ele>390.8</ele>
        <time>2022-09-28T07:29:28Z</time>
      </trkpt>
      <trkpt lat="46.28904" lon="6.16576">
        <ele>390.9</ele>
        <time>2022-09-28T07:29:29Z</time>
      </trkpt>
      <trkpt lat="46.28908" lon="6.16576">
        <ele>391</ele>
        <time>2022-09-28T07:29:30Z</time>
      </trkpt>
      <trkpt lat="46.28911" lon="6.16575">
        <ele>391.1</ele>
        <time>2022-09-28T07:29:31Z</time>
      </trkpt>
      <trkpt lat="46.28914" lon="6.16575">
        <ele>391.2</ele>
        <time>2022-09-28T07:29:32Z</time>
      </trkpt>
      <trkpt lat="46.28919" lon="6.16575">
        <ele>391.2</ele>
        <time>2022-09-28T07:29:33Z</time>
      </trkpt>
      <trkpt lat="46.28922" lon="6.16575">
        <ele>391.3</ele>
        <time>2022-09-28T07:29:34Z</time>
      </trkpt>
      <trkpt lat="46.28926" lon="6.16575">
        <ele>391.3</ele>
        <time>2022-09-28T07:29:35Z</time>
      </trkpt>
      <trkpt lat="46.2893" lon="6.16575">
        <ele>391.4</ele>
        <time>2022-09-28T07:29:36Z</time>
      </trkpt>
      <trkpt lat="46.28934" lon="6.16575">
        <ele>391.5</ele>
        <time>2022-09-28T07:29:37Z</time>
      </trkpt>
      <trkpt lat="46.28938" lon="6.16575">
        <ele>391.6</ele>
        <time>2022-09-28T07:29:38Z</time>
      </trkpt>
      <trkpt lat="46.28941" lon="6.16575">
        <ele>391.6</ele>
        <time>2022-09-28T07:29:39Z</time>
      </trkpt>
      <trkpt lat="46.28944" lon="6.16575">
        <ele>391.7</ele>
        <time>2022-09-28T07:29:40Z</time>
      </trkpt>
      <trkpt lat="46.28947" lon="6.16574">
        <ele>391.8</ele>
        <time>2022-09-28T07:29:41Z</time>
      </trkpt>
      <trkpt lat="46.2895" lon="6.16574">
        <ele>391.8</ele>
        <time>2022-09-28T07:29:42Z</time>
      </trkpt>
      <trkpt lat="46.28954" lon="6.16572">
        <ele>391.9</ele>
        <time>2022-09-28T07:29:43Z</time>
      </trkpt>
      <trkpt lat="46.28956" lon="6.1657">
        <ele>392</ele>
        <time>2022-09-28T07:29:44Z</time>
      </trkpt>
      <trkpt lat="46.28959" lon="6.1657">
        <ele>392</ele>
        <time>2022-09-28T07:29:46Z</time>
      </trkpt>
      <trkpt lat="46.28963" lon="6.16571">
        <ele>392.1</ele>
        <time>2022-09-28T07:29:47Z</time>
      </trkpt>
      <trkpt lat="46.28967" lon="6.16572">
        <ele>391.9</ele>
        <time>2022-09-28T07:29:48Z</time>
      </trkpt>
      <trkpt lat="46.28971" lon="6.16573">
        <ele>392</ele>
        <time>2022-09-28T07:29:49Z</time>
      </trkpt>
      <trkpt lat="46.28974" lon="6.16575">
        <ele>392.1</ele>
        <time>2022-09-28T07:29:50Z</time>
      </trkpt>
      <trkpt lat="46.28977" lon="6.16577">
        <ele>392.1</ele>
        <time>2022-09-28T07:29:51Z</time>
      </trkpt>
      <trkpt lat="46.2898" lon="6.16579">
        <ele>392.2</ele>
        <time>2022-09-28T07:29:52Z</time>
      </trkpt>
      <trkpt lat="46.28983" lon="6.1658">
        <ele>392.2</ele>
        <time>2022-09-28T07:29:53Z</time>
      </trkpt>
      <trkpt lat="46.28986" lon="6.1658">
        <ele>392.3</ele>
        <time>2022-09-28T07:29:54Z</time>
      </trkpt>
      <trkpt lat="46.28992" lon="6.1658">
        <ele>392.4</ele>
        <time>2022-09-28T07:29:55Z</time>
      </trkpt>
      <trkpt lat="46.28995" lon="6.16579">
        <ele>392.4</ele>
        <time>2022-09-28T07:29:56Z</time>
      </trkpt>
      <trkpt lat="46.29" lon="6.16579">
        <ele>392.5</ele>
        <time>2022-09-28T07:29:57Z</time>
      </trkpt>
      <trkpt lat="46.29002" lon="6.16579">
        <ele>392.6</ele>
        <time>2022-09-28T07:29:58Z</time>
      </trkpt>
      <trkpt lat="46.29006" lon="6.1658">
        <ele>392.6</ele>
        <time>2022-09-28T07:29:59Z</time>
      </trkpt>
      <trkpt lat="46.2901" lon="6.1658">
        <ele>392.7</ele>
        <time>2022-09-28T07:30:00Z</time>
      </trkpt>
      <trkpt lat="46.29013" lon="6.1658">
        <ele>392.8</ele>
        <time>2022-09-28T07:30:01Z</time>
      </trkpt>
      <trkpt lat="46.29016" lon="6.16581">
        <ele>392.8</ele>
        <time>2022-09-28T07:30:02Z</time>
      </trkpt>
      <trkpt lat="46.2902" lon="6.1658">
        <ele>392.9</ele>
        <time>2022-09-28T07:30:03Z</time>
      </trkpt>
      <trkpt lat="46.29024" lon="6.1658">
        <ele>392.9</ele>
        <time>2022-09-28T07:30:04Z</time>
      </trkpt>
      <trkpt lat="46.29028" lon="6.1658">
        <ele>393</ele>
        <time>2022-09-28T07:30:05Z</time>
      </trkpt>
      <trkpt lat="46.29032" lon="6.16581">
        <ele>393.1</ele>
        <time>2022-09-28T07:30:06Z</time>
      </trkpt>
      <trkpt lat="46.29036" lon="6.16581">
        <ele>393.1</ele>
        <time>2022-09-28T07:30:07Z</time>
      </trkpt>
      <trkpt lat="46.2904" lon="6.16581">
        <ele>393.2</ele>
        <time>2022-09-28T07:30:08Z</time>
      </trkpt>
      <trkpt lat="46.29044" lon="6.16582">
        <ele>393.3</ele>
        <time>2022-09-28T07:30:09Z</time>
      </trkpt>
      <trkpt lat="46.29048" lon="6.16581">
        <ele>393.3</ele>
        <time>2022-09-28T07:30:10Z</time>
      </trkpt>
      <trkpt lat="46.29052" lon="6.16581">
        <ele>393.4</ele>
        <time>2022-09-28T07:30:11Z</time>
      </trkpt>
      <trkpt lat="46.29056" lon="6.16582">
        <ele>393.4</ele>
        <time>2022-09-28T07:30:12Z</time>
      </trkpt>
      <trkpt lat="46.29061" lon="6.16582">
        <ele>393.5</ele>
        <time>2022-09-28T07:30:13Z</time>
      </trkpt>
      <trkpt lat="46.29065" lon="6.16583">
        <ele>393.5</ele>
        <time>2022-09-28T07:30:14Z</time>
      </trkpt>
      <trkpt lat="46.29069" lon="6.16583">
        <ele>393.6</ele>
        <time>2022-09-28T07:30:15Z</time>
      </trkpt>
      <trkpt lat="46.29073" lon="6.16583">
        <ele>393.6</ele>
        <time>2022-09-28T07:30:16Z</time>
      </trkpt>
      <trkpt lat="46.29078" lon="6.16584">
        <ele>393.7</ele>
        <time>2022-09-28T07:30:17Z</time>
      </trkpt>
      <trkpt lat="46.29082" lon="6.16584">
        <ele>393.7</ele>
        <time>2022-09-28T07:30:18Z</time>
      </trkpt>
      <trkpt lat="46.29086" lon="6.16583">
        <ele>393.8</ele>
        <time>2022-09-28T07:30:19Z</time>
      </trkpt>
      <trkpt lat="46.2909" lon="6.16583">
        <ele>393.8</ele>
        <time>2022-09-28T07:30:20Z</time>
      </trkpt>
      <trkpt lat="46.29094" lon="6.16583">
        <ele>393.8</ele>
        <time>2022-09-28T07:30:21Z</time>
      </trkpt>
      <trkpt lat="46.29098" lon="6.16584">
        <ele>393.9</ele>
        <time>2022-09-28T07:30:22Z</time>
      </trkpt>
      <trkpt lat="46.29101" lon="6.16584">
        <ele>393.9</ele>
        <time>2022-09-28T07:30:23Z</time>
      </trkpt>
      <trkpt lat="46.29105" lon="6.16584">
        <ele>393.9</ele>
        <time>2022-09-28T07:30:24Z</time>
      </trkpt>
      <trkpt lat="46.29109" lon="6.16584">
        <ele>393.9</ele>
        <time>2022-09-28T07:30:25Z</time>
      </trkpt>
      <trkpt lat="46.29113" lon="6.16585">
        <ele>394</ele>
        <time>2022-09-28T07:30:26Z</time>
      </trkpt>
      <trkpt lat="46.29118" lon="6.16587">
        <ele>394</ele>
        <time>2022-09-28T07:30:27Z</time>
      </trkpt>
      <trkpt lat="46.29122" lon="6.16586">
        <ele>394</ele>
        <time>2022-09-28T07:30:28Z</time>
      </trkpt>
      <trkpt lat="46.29126" lon="6.16585">
        <ele>394</ele>
        <time>2022-09-28T07:30:29Z</time>
      </trkpt>
      <trkpt lat="46.2913" lon="6.16585">
        <ele>394.1</ele>
        <time>2022-09-28T07:30:30Z</time>
      </trkpt>
      <trkpt lat="46.29134" lon="6.16584">
        <ele>394.1</ele>
        <time>2022-09-28T07:30:31Z</time>
      </trkpt>
      <trkpt lat="46.29138" lon="6.16584">
        <ele>394.1</ele>
        <time>2022-09-28T07:30:32Z</time>
      </trkpt>
      <trkpt lat="46.29142" lon="6.16584">
        <ele>394.1</ele>
        <time>2022-09-28T07:30:33Z</time>
      </trkpt>
      <trkpt lat="46.29146" lon="6.16583">
        <ele>394.1</ele>
        <time>2022-09-28T07:30:34Z</time>
      </trkpt>
      <trkpt lat="46.29149" lon="6.16582">
        <ele>394.1</ele>
        <time>2022-09-28T07:30:35Z</time>
      </trkpt>
      <trkpt lat="46.29152" lon="6.1658">
        <ele>394.2</ele>
        <time>2022-09-28T07:30:36Z</time>
      </trkpt>
      <trkpt lat="46.29155" lon="6.1658">
        <ele>394.2</ele>
        <time>2022-09-28T07:30:37Z</time>
      </trkpt>
      <trkpt lat="46.29158" lon="6.16579">
        <ele>394.2</ele>
        <time>2022-09-28T07:30:38Z</time>
      </trkpt>
      <trkpt lat="46.29159" lon="6.16579">
        <ele>394.2</ele>
        <time>2022-09-28T07:30:39Z</time>
      </trkpt>
      <trkpt lat="46.29162" lon="6.16579">
        <ele>394.2</ele>
        <time>2022-09-28T07:30:40Z</time>
      </trkpt>
      <trkpt lat="46.29165" lon="6.16578">
        <ele>394.2</ele>
        <time>2022-09-28T07:30:41Z</time>
      </trkpt>
      <trkpt lat="46.29169" lon="6.16577">
        <ele>394.2</ele>
        <time>2022-09-28T07:30:42Z</time>
      </trkpt>
      <trkpt lat="46.29172" lon="6.16577">
        <ele>394.2</ele>
        <time>2022-09-28T07:30:43Z</time>
      </trkpt>
      <trkpt lat="46.29176" lon="6.16577">
        <ele>394.2</ele>
        <time>2022-09-28T07:30:44Z</time>
      </trkpt>
      <trkpt lat="46.29179" lon="6.16576">
        <ele>394.2</ele>
        <time>2022-09-28T07:30:45Z</time>
      </trkpt>
      <trkpt lat="46.29183" lon="6.16577">
        <ele>394.2</ele>
        <time>2022-09-28T07:30:46Z</time>
      </trkpt>
      <trkpt lat="46.29187" lon="6.16576">
        <ele>394.2</ele>
        <time>2022-09-28T07:30:47Z</time>
      </trkpt>
      <trkpt lat="46.29191" lon="6.16576">
        <ele>394.3</ele>
        <time>2022-09-28T07:30:48Z</time>
      </trkpt>
      <trkpt lat="46.29194" lon="6.16575">
        <ele>394.3</ele>
        <time>2022-09-28T07:30:49Z</time>
      </trkpt>
      <trkpt lat="46.29197" lon="6.16575">
        <ele>394.3</ele>
        <time>2022-09-28T07:30:50Z</time>
      </trkpt>
      <trkpt lat="46.29201" lon="6.16575">
        <ele>394.3</ele>
        <time>2022-09-28T07:30:51Z</time>
      </trkpt>
      <trkpt lat="46.29205" lon="6.16577">
        <ele>394.3</ele>
        <time>2022-09-28T07:30:52Z</time>
      </trkpt>
      <trkpt lat="46.29208" lon="6.16579">
        <ele>394.3</ele>
        <time>2022-09-28T07:30:53Z</time>
      </trkpt>
      <trkpt lat="46.29212" lon="6.16581">
        <ele>394.2</ele>
        <time>2022-09-28T07:30:54Z</time>
      </trkpt>
      <trkpt lat="46.29215" lon="6.16581">
        <ele>394.2</ele>
        <time>2022-09-28T07:30:55Z</time>
      </trkpt>
      <trkpt lat="46.29219" lon="6.1658">
        <ele>394.2</ele>
        <time>2022-09-28T07:30:56Z</time>
      </trkpt>
      <trkpt lat="46.29222" lon="6.1658">
        <ele>394.2</ele>
        <time>2022-09-28T07:30:57Z</time>
      </trkpt>
      <trkpt lat="46.29226" lon="6.16579">
        <ele>394.2</ele>
        <time>2022-09-28T07:30:58Z</time>
      </trkpt>
      <trkpt lat="46.29231" lon="6.16579">
        <ele>394.2</ele>
        <time>2022-09-28T07:30:59Z</time>
      </trkpt>
      <trkpt lat="46.29235" lon="6.1658">
        <ele>394.1</ele>
        <time>2022-09-28T07:31:00Z</time>
      </trkpt>
      <trkpt lat="46.2924" lon="6.16581">
        <ele>394.1</ele>
        <time>2022-09-28T07:31:01Z</time>
      </trkpt>
      <trkpt lat="46.29244" lon="6.16581">
        <ele>394</ele>
        <time>2022-09-28T07:31:02Z</time>
      </trkpt>
      <trkpt lat="46.29249" lon="6.16582">
        <ele>394</ele>
        <time>2022-09-28T07:31:03Z</time>
      </trkpt>
      <trkpt lat="46.29254" lon="6.16583">
        <ele>393.9</ele>
        <time>2022-09-28T07:31:04Z</time>
      </trkpt>
      <trkpt lat="46.29258" lon="6.16583">
        <ele>393.9</ele>
        <time>2022-09-28T07:31:05Z</time>
      </trkpt>
      <trkpt lat="46.29263" lon="6.16585">
        <ele>393.8</ele>
        <time>2022-09-28T07:31:06Z</time>
      </trkpt>
      <trkpt lat="46.29268" lon="6.16586">
        <ele>393.7</ele>
        <time>2022-09-28T07:31:07Z</time>
      </trkpt>
      <trkpt lat="46.29273" lon="6.16587">
        <ele>393.6</ele>
        <time>2022-09-28T07:31:08Z</time>
      </trkpt>
      <trkpt lat="46.29279" lon="6.16588">
        <ele>393.5</ele>
        <time>2022-09-28T07:31:09Z</time>
      </trkpt>
      <trkpt lat="46.29284" lon="6.1659">
        <ele>393.4</ele>
        <time>2022-09-28T07:31:10Z</time>
      </trkpt>
      <trkpt lat="46.2929" lon="6.16591">
        <ele>393.3</ele>
        <time>2022-09-28T07:31:11Z</time>
      </trkpt>
      <trkpt lat="46.29295" lon="6.16593">
        <ele>393.2</ele>
        <time>2022-09-28T07:31:12Z</time>
      </trkpt>
      <trkpt lat="46.293" lon="6.16594">
        <ele>393.1</ele>
        <time>2022-09-28T07:31:13Z</time>
      </trkpt>
      <trkpt lat="46.29304" lon="6.16596">
        <ele>393</ele>
        <time>2022-09-28T07:31:14Z</time>
      </trkpt>
      <trkpt lat="46.29308" lon="6.16597">
        <ele>392.9</ele>
        <time>2022-09-28T07:31:15Z</time>
      </trkpt>
      <trkpt lat="46.29314" lon="6.16599">
        <ele>392.7</ele>
        <time>2022-09-28T07:31:16Z</time>
      </trkpt>
      <trkpt lat="46.2932" lon="6.16601">
        <ele>392.6</ele>
        <time>2022-09-28T07:31:17Z</time>
      </trkpt>
      <trkpt lat="46.29324" lon="6.16603">
        <ele>392.5</ele>
        <time>2022-09-28T07:31:18Z</time>
      </trkpt>
      <trkpt lat="46.29329" lon="6.16605">
        <ele>392.4</ele>
        <time>2022-09-28T07:31:19Z</time>
      </trkpt>
      <trkpt lat="46.29335" lon="6.16607">
        <ele>392.2</ele>
        <time>2022-09-28T07:31:20Z</time>
      </trkpt>
      <trkpt lat="46.2934" lon="6.1661">
        <ele>392.1</ele>
        <time>2022-09-28T07:31:21Z</time>
      </trkpt>
      <trkpt lat="46.29344" lon="6.16611">
        <ele>392</ele>
        <time>2022-09-28T07:31:22Z</time>
      </trkpt>
      <trkpt lat="46.29349" lon="6.16614">
        <ele>391.8</ele>
        <time>2022-09-28T07:31:23Z</time>
      </trkpt>
      <trkpt lat="46.29353" lon="6.16615">
        <ele>391.7</ele>
        <time>2022-09-28T07:31:24Z</time>
      </trkpt>
      <trkpt lat="46.29358" lon="6.16617">
        <ele>391.6</ele>
        <time>2022-09-28T07:31:25Z</time>
      </trkpt>
      <trkpt lat="46.29363" lon="6.16619">
        <ele>391.5</ele>
        <time>2022-09-28T07:31:26Z</time>
      </trkpt>
      <trkpt lat="46.29367" lon="6.16622">
        <ele>391.4</ele>
        <time>2022-09-28T07:31:27Z</time>
      </trkpt>
      <trkpt lat="46.29372" lon="6.16625">
        <ele>391.3</ele>
        <time>2022-09-28T07:31:28Z</time>
      </trkpt>
      <trkpt lat="46.29377" lon="6.16628">
        <ele>391.1</ele>
        <time>2022-09-28T07:31:29Z</time>
      </trkpt>
      <trkpt lat="46.29383" lon="6.1663">
        <ele>390.9</ele>
        <time>2022-09-28T07:31:30Z</time>
      </trkpt>
      <trkpt lat="46.29387" lon="6.16635">
        <ele>390.8</ele>
        <time>2022-09-28T07:31:31Z</time>
      </trkpt>
      <trkpt lat="46.29393" lon="6.16638">
        <ele>390.6</ele>
        <time>2022-09-28T07:31:32Z</time>
      </trkpt>
      <trkpt lat="46.29398" lon="6.16641">
        <ele>390.5</ele>
        <time>2022-09-28T07:31:33Z</time>
      </trkpt>
      <trkpt lat="46.29403" lon="6.16644">
        <ele>390.4</ele>
        <time>2022-09-28T07:31:34Z</time>
      </trkpt>
      <trkpt lat="46.29409" lon="6.16648">
        <ele>390.3</ele>
        <time>2022-09-28T07:31:35Z</time>
      </trkpt>
      <trkpt lat="46.29414" lon="6.16651">
        <ele>390.1</ele>
        <time>2022-09-28T07:31:36Z</time>
      </trkpt>
      <trkpt lat="46.29419" lon="6.16653">
        <ele>390</ele>
        <time>2022-09-28T07:31:37Z</time>
      </trkpt>
      <trkpt lat="46.29424" lon="6.16656">
        <ele>389.9</ele>
        <time>2022-09-28T07:31:38Z</time>
      </trkpt>
      <trkpt lat="46.2943" lon="6.1666">
        <ele>389.8</ele>
        <time>2022-09-28T07:31:39Z</time>
      </trkpt>
      <trkpt lat="46.29436" lon="6.16663">
        <ele>389.7</ele>
        <time>2022-09-28T07:31:40Z</time>
      </trkpt>
      <trkpt lat="46.29443" lon="6.16666">
        <ele>389.6</ele>
        <time>2022-09-28T07:31:41Z</time>
      </trkpt>
      <trkpt lat="46.29449" lon="6.16669">
        <ele>389.6</ele>
        <time>2022-09-28T07:31:42Z</time>
      </trkpt>
      <trkpt lat="46.29453" lon="6.16672">
        <ele>389.6</ele>
        <time>2022-09-28T07:31:43Z</time>
      </trkpt>
      <trkpt lat="46.29458" lon="6.16675">
        <ele>389.5</ele>
        <time>2022-09-28T07:31:44Z</time>
      </trkpt>
      <trkpt lat="46.29462" lon="6.16679">
        <ele>389.5</ele>
        <time>2022-09-28T07:31:45Z</time>
      </trkpt>
      <trkpt lat="46.29468" lon="6.16681">
        <ele>389.4</ele>
        <time>2022-09-28T07:31:46Z</time>
      </trkpt>
      <trkpt lat="46.29474" lon="6.16684">
        <ele>389.4</ele>
        <time>2022-09-28T07:31:47Z</time>
      </trkpt>
      <trkpt lat="46.2948" lon="6.16687">
        <ele>389.3</ele>
        <time>2022-09-28T07:31:48Z</time>
      </trkpt>
      <trkpt lat="46.29485" lon="6.16691">
        <ele>389.3</ele>
        <time>2022-09-28T07:31:49Z</time>
      </trkpt>
      <trkpt lat="46.2949" lon="6.16694">
        <ele>389.2</ele>
        <time>2022-09-28T07:31:50Z</time>
      </trkpt>
      <trkpt lat="46.29495" lon="6.16696">
        <ele>389.2</ele>
        <time>2022-09-28T07:31:52Z</time>
      </trkpt>
      <trkpt lat="46.295" lon="6.16698">
        <ele>389.2</ele>
        <time>2022-09-28T07:31:53Z</time>
      </trkpt>
      <trkpt lat="46.29506" lon="6.16701">
        <ele>389.1</ele>
        <time>2022-09-28T07:31:54Z</time>
      </trkpt>
      <trkpt lat="46.29511" lon="6.16705">
        <ele>389.1</ele>
        <time>2022-09-28T07:31:55Z</time>
      </trkpt>
      <trkpt lat="46.29517" lon="6.16708">
        <ele>389.1</ele>
        <time>2022-09-28T07:31:56Z</time>
      </trkpt>
      <trkpt lat="46.29523" lon="6.16712">
        <ele>389.1</ele>
        <time>2022-09-28T07:31:57Z</time>
      </trkpt>
      <trkpt lat="46.29528" lon="6.16715">
        <ele>389.1</ele>
        <time>2022-09-28T07:31:58Z</time>
      </trkpt>
      <trkpt lat="46.29534" lon="6.16718">
        <ele>389.1</ele>
        <time>2022-09-28T07:31:59Z</time>
      </trkpt>
      <trkpt lat="46.2954" lon="6.16722">
        <ele>389.1</ele>
        <time>2022-09-28T07:32:00Z</time>
      </trkpt>
      <trkpt lat="46.29545" lon="6.16725">
        <ele>389.1</ele>
        <time>2022-09-28T07:32:01Z</time>
      </trkpt>
      <trkpt lat="46.29551" lon="6.16729">
        <ele>389.1</ele>
        <time>2022-09-28T07:32:02Z</time>
      </trkpt>
      <trkpt lat="46.29562" lon="6.16735">
        <ele>389.1</ele>
        <time>2022-09-28T07:32:03Z</time>
      </trkpt>
      <trkpt lat="46.29566" lon="6.16738">
        <ele>389.1</ele>
        <time>2022-09-28T07:32:04Z</time>
      </trkpt>
      <trkpt lat="46.29571" lon="6.16741">
        <ele>389.2</ele>
        <time>2022-09-28T07:32:05Z</time>
      </trkpt>
      <trkpt lat="46.29576" lon="6.16744">
        <ele>389.2</ele>
        <time>2022-09-28T07:32:06Z</time>
      </trkpt>
      <trkpt lat="46.2958" lon="6.16746">
        <ele>389.2</ele>
        <time>2022-09-28T07:32:07Z</time>
      </trkpt>
      <trkpt lat="46.29585" lon="6.16749">
        <ele>389.2</ele>
        <time>2022-09-28T07:32:08Z</time>
      </trkpt>
      <trkpt lat="46.2959" lon="6.16752">
        <ele>389.3</ele>
        <time>2022-09-28T07:32:09Z</time>
      </trkpt>
      <trkpt lat="46.29595" lon="6.16756">
        <ele>389.3</ele>
        <time>2022-09-28T07:32:10Z</time>
      </trkpt>
      <trkpt lat="46.296" lon="6.16759">
        <ele>389.3</ele>
        <time>2022-09-28T07:32:11Z</time>
      </trkpt>
      <trkpt lat="46.29605" lon="6.16762">
        <ele>389.3</ele>
        <time>2022-09-28T07:32:12Z</time>
      </trkpt>
      <trkpt lat="46.29611" lon="6.16765">
        <ele>389.3</ele>
        <time>2022-09-28T07:32:13Z</time>
      </trkpt>
      <trkpt lat="46.29615" lon="6.16768">
        <ele>389.3</ele>
        <time>2022-09-28T07:32:14Z</time>
      </trkpt>
      <trkpt lat="46.2962" lon="6.16773">
        <ele>389.4</ele>
        <time>2022-09-28T07:32:15Z</time>
      </trkpt>
      <trkpt lat="46.29625" lon="6.16776">
        <ele>389.4</ele>
        <time>2022-09-28T07:32:16Z</time>
      </trkpt>
      <trkpt lat="46.2963" lon="6.1678">
        <ele>389.5</ele>
        <time>2022-09-28T07:32:17Z</time>
      </trkpt>
      <trkpt lat="46.29635" lon="6.16783">
        <ele>389.5</ele>
        <time>2022-09-28T07:32:18Z</time>
      </trkpt>
      <trkpt lat="46.29639" lon="6.16787">
        <ele>389.5</ele>
        <time>2022-09-28T07:32:19Z</time>
      </trkpt>
      <trkpt lat="46.29645" lon="6.16792">
        <ele>389.5</ele>
        <time>2022-09-28T07:32:20Z</time>
      </trkpt>
      <trkpt lat="46.2965" lon="6.16796">
        <ele>389.5</ele>
        <time>2022-09-28T07:32:21Z</time>
      </trkpt>
      <trkpt lat="46.29654" lon="6.16799">
        <ele>389.5</ele>
        <time>2022-09-28T07:32:22Z</time>
      </trkpt>
      <trkpt lat="46.29659" lon="6.16803">
        <ele>389.6</ele>
        <time>2022-09-28T07:32:23Z</time>
      </trkpt>
      <trkpt lat="46.29664" lon="6.16808">
        <ele>389.6</ele>
        <time>2022-09-28T07:32:24Z</time>
      </trkpt>
      <trkpt lat="46.29669" lon="6.16812">
        <ele>389.6</ele>
        <time>2022-09-28T07:32:25Z</time>
      </trkpt>
      <trkpt lat="46.29672" lon="6.16814">
        <ele>389.6</ele>
        <time>2022-09-28T07:32:26Z</time>
      </trkpt>
      <trkpt lat="46.29677" lon="6.16819">
        <ele>389.6</ele>
        <time>2022-09-28T07:32:27Z</time>
      </trkpt>
      <trkpt lat="46.29681" lon="6.16823">
        <ele>389.7</ele>
        <time>2022-09-28T07:32:28Z</time>
      </trkpt>
      <trkpt lat="46.29686" lon="6.16827">
        <ele>389.7</ele>
        <time>2022-09-28T07:32:29Z</time>
      </trkpt>
      <trkpt lat="46.29691" lon="6.16832">
        <ele>389.8</ele>
        <time>2022-09-28T07:32:30Z</time>
      </trkpt>
      <trkpt lat="46.29695" lon="6.16835">
        <ele>389.8</ele>
        <time>2022-09-28T07:32:31Z</time>
      </trkpt>
      <trkpt lat="46.29699" lon="6.1684">
        <ele>389.8</ele>
        <time>2022-09-28T07:32:32Z</time>
      </trkpt>
      <trkpt lat="46.29702" lon="6.16844">
        <ele>389.8</ele>
        <time>2022-09-28T07:32:33Z</time>
      </trkpt>
      <trkpt lat="46.29707" lon="6.16849">
        <ele>389.8</ele>
        <time>2022-09-28T07:32:34Z</time>
      </trkpt>
      <trkpt lat="46.2971" lon="6.16854">
        <ele>389.8</ele>
        <time>2022-09-28T07:32:35Z</time>
      </trkpt>
      <trkpt lat="46.29714" lon="6.16858">
        <ele>389.8</ele>
        <time>2022-09-28T07:32:36Z</time>
      </trkpt>
      <trkpt lat="46.29717" lon="6.16863">
        <ele>389.8</ele>
        <time>2022-09-28T07:32:37Z</time>
      </trkpt>
      <trkpt lat="46.2972" lon="6.16867">
        <ele>389.8</ele>
        <time>2022-09-28T07:32:38Z</time>
      </trkpt>
      <trkpt lat="46.29724" lon="6.16872">
        <ele>389.8</ele>
        <time>2022-09-28T07:32:39Z</time>
      </trkpt>
      <trkpt lat="46.29726" lon="6.16877">
        <ele>389.8</ele>
        <time>2022-09-28T07:32:40Z</time>
      </trkpt>
      <trkpt lat="46.29728" lon="6.16882">
        <ele>389.8</ele>
        <time>2022-09-28T07:32:41Z</time>
      </trkpt>
      <trkpt lat="46.2973" lon="6.16888">
        <ele>389.8</ele>
        <time>2022-09-28T07:32:42Z</time>
      </trkpt>
      <trkpt lat="46.29732" lon="6.16892">
        <ele>389.8</ele>
        <time>2022-09-28T07:32:43Z</time>
      </trkpt>
      <trkpt lat="46.29735" lon="6.16896">
        <ele>389.8</ele>
        <time>2022-09-28T07:32:44Z</time>
      </trkpt>
      <trkpt lat="46.29738" lon="6.169">
        <ele>389.8</ele>
        <time>2022-09-28T07:32:45Z</time>
      </trkpt>
      <trkpt lat="46.29741" lon="6.16903">
        <ele>389.8</ele>
        <time>2022-09-28T07:32:46Z</time>
      </trkpt>
      <trkpt lat="46.29745" lon="6.16906">
        <ele>389.8</ele>
        <time>2022-09-28T07:32:47Z</time>
      </trkpt>
      <trkpt lat="46.29749" lon="6.1691">
        <ele>389.8</ele>
        <time>2022-09-28T07:32:48Z</time>
      </trkpt>
      <trkpt lat="46.29753" lon="6.16913">
        <ele>389.8</ele>
        <time>2022-09-28T07:32:49Z</time>
      </trkpt>
      <trkpt lat="46.29758" lon="6.16915">
        <ele>389.8</ele>
        <time>2022-09-28T07:32:50Z</time>
      </trkpt>
      <trkpt lat="46.29762" lon="6.16917">
        <ele>389.8</ele>
        <time>2022-09-28T07:32:51Z</time>
      </trkpt>
      <trkpt lat="46.29766" lon="6.16919">
        <ele>389.8</ele>
        <time>2022-09-28T07:32:52Z</time>
      </trkpt>
      <trkpt lat="46.2977" lon="6.16922">
        <ele>389.8</ele>
        <time>2022-09-28T07:32:53Z</time>
      </trkpt>
      <trkpt lat="46.29773" lon="6.16926">
        <ele>389.8</ele>
        <time>2022-09-28T07:32:54Z</time>
      </trkpt>
      <trkpt lat="46.29778" lon="6.1693">
        <ele>389.8</ele>
        <time>2022-09-28T07:32:55Z</time>
      </trkpt>
      <trkpt lat="46.29781" lon="6.16935">
        <ele>389.9</ele>
        <time>2022-09-28T07:32:56Z</time>
      </trkpt>
      <trkpt lat="46.29785" lon="6.16939">
        <ele>389.9</ele>
        <time>2022-09-28T07:32:57Z</time>
      </trkpt>
      <trkpt lat="46.29788" lon="6.16944">
        <ele>389.9</ele>
        <time>2022-09-28T07:32:58Z</time>
      </trkpt>
      <trkpt lat="46.29792" lon="6.16949">
        <ele>389.9</ele>
        <time>2022-09-28T07:32:59Z</time>
      </trkpt>
      <trkpt lat="46.29796" lon="6.16954">
        <ele>389.9</ele>
        <time>2022-09-28T07:33:00Z</time>
      </trkpt>
      <trkpt lat="46.298" lon="6.16959">
        <ele>389.8</ele>
        <time>2022-09-28T07:33:01Z</time>
      </trkpt>
      <trkpt lat="46.29804" lon="6.16964">
        <ele>389.8</ele>
        <time>2022-09-28T07:33:02Z</time>
      </trkpt>
      <trkpt lat="46.29808" lon="6.1697">
        <ele>389.8</ele>
        <time>2022-09-28T07:33:03Z</time>
      </trkpt>
      <trkpt lat="46.29812" lon="6.16975">
        <ele>389.8</ele>
        <time>2022-09-28T07:33:04Z</time>
      </trkpt>
      <trkpt lat="46.29816" lon="6.16981">
        <ele>389.8</ele>
        <time>2022-09-28T07:33:05Z</time>
      </trkpt>
      <trkpt lat="46.2982" lon="6.16987">
        <ele>389.8</ele>
        <time>2022-09-28T07:33:06Z</time>
      </trkpt>
      <trkpt lat="46.29824" lon="6.16992">
        <ele>389.8</ele>
        <time>2022-09-28T07:33:07Z</time>
      </trkpt>
      <trkpt lat="46.29828" lon="6.16998">
        <ele>389.8</ele>
        <time>2022-09-28T07:33:08Z</time>
      </trkpt>
      <trkpt lat="46.29832" lon="6.17004">
        <ele>389.8</ele>
        <time>2022-09-28T07:33:09Z</time>
      </trkpt>
      <trkpt lat="46.29836" lon="6.17009">
        <ele>389.8</ele>
        <time>2022-09-28T07:33:10Z</time>
      </trkpt>
      <trkpt lat="46.2984" lon="6.17015">
        <ele>389.8</ele>
        <time>2022-09-28T07:33:11Z</time>
      </trkpt>
      <trkpt lat="46.29844" lon="6.17021">
        <ele>389.7</ele>
        <time>2022-09-28T07:33:12Z</time>
      </trkpt>
      <trkpt lat="46.29848" lon="6.17027">
        <ele>389.7</ele>
        <time>2022-09-28T07:33:13Z</time>
      </trkpt>
      <trkpt lat="46.29852" lon="6.17033">
        <ele>389.7</ele>
        <time>2022-09-28T07:33:14Z</time>
      </trkpt>
      <trkpt lat="46.29855" lon="6.17039">
        <ele>389.7</ele>
        <time>2022-09-28T07:33:15Z</time>
      </trkpt>
      <trkpt lat="46.2986" lon="6.17046">
        <ele>389.6</ele>
        <time>2022-09-28T07:33:16Z</time>
      </trkpt>
      <trkpt lat="46.29864" lon="6.17051">
        <ele>389.6</ele>
        <time>2022-09-28T07:33:17Z</time>
      </trkpt>
      <trkpt lat="46.29867" lon="6.17058">
        <ele>389.6</ele>
        <time>2022-09-28T07:33:18Z</time>
      </trkpt>
      <trkpt lat="46.29871" lon="6.17064">
        <ele>389.6</ele>
        <time>2022-09-28T07:33:19Z</time>
      </trkpt>
      <trkpt lat="46.29875" lon="6.1707">
        <ele>389.5</ele>
        <time>2022-09-28T07:33:20Z</time>
      </trkpt>
      <trkpt lat="46.29879" lon="6.17076">
        <ele>389.5</ele>
        <time>2022-09-28T07:33:21Z</time>
      </trkpt>
      <trkpt lat="46.29883" lon="6.17082">
        <ele>389.5</ele>
        <time>2022-09-28T07:33:22Z</time>
      </trkpt>
      <trkpt lat="46.29887" lon="6.17089">
        <ele>389.5</ele>
        <time>2022-09-28T07:33:23Z</time>
      </trkpt>
      <trkpt lat="46.29891" lon="6.17095">
        <ele>389.4</ele>
        <time>2022-09-28T07:33:24Z</time>
      </trkpt>
      <trkpt lat="46.29894" lon="6.17102">
        <ele>389.4</ele>
        <time>2022-09-28T07:33:25Z</time>
      </trkpt>
      <trkpt lat="46.29898" lon="6.17108">
        <ele>389.4</ele>
        <time>2022-09-28T07:33:26Z</time>
      </trkpt>
      <trkpt lat="46.29902" lon="6.17115">
        <ele>389.3</ele>
        <time>2022-09-28T07:33:27Z</time>
      </trkpt>
      <trkpt lat="46.29905" lon="6.17121">
        <ele>389.3</ele>
        <time>2022-09-28T07:33:28Z</time>
      </trkpt>
      <trkpt lat="46.29909" lon="6.17127">
        <ele>389.3</ele>
        <time>2022-09-28T07:33:29Z</time>
      </trkpt>
      <trkpt lat="46.29912" lon="6.17133">
        <ele>389.3</ele>
        <time>2022-09-28T07:33:30Z</time>
      </trkpt>
      <trkpt lat="46.29916" lon="6.1714">
        <ele>389.3</ele>
        <time>2022-09-28T07:33:31Z</time>
      </trkpt>
      <trkpt lat="46.29919" lon="6.17146">
        <ele>389.2</ele>
        <time>2022-09-28T07:33:32Z</time>
      </trkpt>
      <trkpt lat="46.29922" lon="6.17153">
        <ele>389.2</ele>
        <time>2022-09-28T07:33:33Z</time>
      </trkpt>
      <trkpt lat="46.29925" lon="6.1716">
        <ele>389.2</ele>
        <time>2022-09-28T07:33:34Z</time>
      </trkpt>
      <trkpt lat="46.29928" lon="6.17166">
        <ele>389.2</ele>
        <time>2022-09-28T07:33:35Z</time>
      </trkpt>
      <trkpt lat="46.29932" lon="6.17172">
        <ele>389.1</ele>
        <time>2022-09-28T07:33:36Z</time>
      </trkpt>
      <trkpt lat="46.29935" lon="6.17179">
        <ele>389.1</ele>
        <time>2022-09-28T07:33:37Z</time>
      </trkpt>
      <trkpt lat="46.29938" lon="6.17186">
        <ele>389.1</ele>
        <time>2022-09-28T07:33:38Z</time>
      </trkpt>
      <trkpt lat="46.29942" lon="6.17193">
        <ele>389.1</ele>
        <time>2022-09-28T07:33:39Z</time>
      </trkpt>
      <trkpt lat="46.29946" lon="6.17199">
        <ele>389.1</ele>
        <time>2022-09-28T07:33:40Z</time>
      </trkpt>
      <trkpt lat="46.29948" lon="6.17206">
        <ele>389.1</ele>
        <time>2022-09-28T07:33:41Z</time>
      </trkpt>
      <trkpt lat="46.29952" lon="6.17213">
        <ele>389.1</ele>
        <time>2022-09-28T07:33:42Z</time>
      </trkpt>
      <trkpt lat="46.29954" lon="6.17219">
        <ele>389.1</ele>
        <time>2022-09-28T07:33:43Z</time>
      </trkpt>
      <trkpt lat="46.29958" lon="6.17225">
        <ele>389.1</ele>
        <time>2022-09-28T07:33:44Z</time>
      </trkpt>
      <trkpt lat="46.29961" lon="6.17231">
        <ele>389</ele>
        <time>2022-09-28T07:33:45Z</time>
      </trkpt>
      <trkpt lat="46.29964" lon="6.17237">
        <ele>389</ele>
        <time>2022-09-28T07:33:46Z</time>
      </trkpt>
      <trkpt lat="46.29967" lon="6.17244">
        <ele>389</ele>
        <time>2022-09-28T07:33:47Z</time>
      </trkpt>
      <trkpt lat="46.29971" lon="6.1725">
        <ele>389</ele>
        <time>2022-09-28T07:33:48Z</time>
      </trkpt>
      <trkpt lat="46.29974" lon="6.17257">
        <ele>389</ele>
        <time>2022-09-28T07:33:49Z</time>
      </trkpt>
      <trkpt lat="46.29978" lon="6.17262">
        <ele>389</ele>
        <time>2022-09-28T07:33:50Z</time>
      </trkpt>
      <trkpt lat="46.29981" lon="6.17269">
        <ele>389</ele>
        <time>2022-09-28T07:33:51Z</time>
      </trkpt>
      <trkpt lat="46.29984" lon="6.17275">
        <ele>389</ele>
        <time>2022-09-28T07:33:52Z</time>
      </trkpt>
      <trkpt lat="46.29988" lon="6.17281">
        <ele>389</ele>
        <time>2022-09-28T07:33:53Z</time>
      </trkpt>
      <trkpt lat="46.29992" lon="6.17287">
        <ele>388.9</ele>
        <time>2022-09-28T07:33:54Z</time>
      </trkpt>
      <trkpt lat="46.29995" lon="6.17294">
        <ele>388.9</ele>
        <time>2022-09-28T07:33:55Z</time>
      </trkpt>
      <trkpt lat="46.29998" lon="6.17301">
        <ele>388.9</ele>
        <time>2022-09-28T07:33:56Z</time>
      </trkpt>
      <trkpt lat="46.30002" lon="6.17308">
        <ele>388.9</ele>
        <time>2022-09-28T07:33:58Z</time>
      </trkpt>
      <trkpt lat="46.30005" lon="6.17315">
        <ele>388.9</ele>
        <time>2022-09-28T07:33:59Z</time>
      </trkpt>
      <trkpt lat="46.30008" lon="6.17321">
        <ele>388.9</ele>
        <time>2022-09-28T07:34:00Z</time>
      </trkpt>
      <trkpt lat="46.30011" lon="6.17328">
        <ele>388.9</ele>
        <time>2022-09-28T07:34:01Z</time>
      </trkpt>
      <trkpt lat="46.30014" lon="6.17335">
        <ele>388.9</ele>
        <time>2022-09-28T07:34:02Z</time>
      </trkpt>
      <trkpt lat="46.30018" lon="6.17342">
        <ele>388.9</ele>
        <time>2022-09-28T07:34:03Z</time>
      </trkpt>
      <trkpt lat="46.30021" lon="6.17348">
        <ele>388.8</ele>
        <time>2022-09-28T07:34:04Z</time>
      </trkpt>
      <trkpt lat="46.30024" lon="6.17355">
        <ele>388.8</ele>
        <time>2022-09-28T07:34:05Z</time>
      </trkpt>
      <trkpt lat="46.30028" lon="6.17362">
        <ele>388.8</ele>
        <time>2022-09-28T07:34:06Z</time>
      </trkpt>
      <trkpt lat="46.30034" lon="6.17375">
        <ele>388.7</ele>
        <time>2022-09-28T07:34:07Z</time>
      </trkpt>
      <trkpt lat="46.30037" lon="6.17382">
        <ele>388.7</ele>
        <time>2022-09-28T07:34:08Z</time>
      </trkpt>
      <trkpt lat="46.30041" lon="6.17389">
        <ele>388.7</ele>
        <time>2022-09-28T07:34:09Z</time>
      </trkpt>
      <trkpt lat="46.30045" lon="6.17396">
        <ele>388.7</ele>
        <time>2022-09-28T07:34:10Z</time>
      </trkpt>
      <trkpt lat="46.30048" lon="6.17404">
        <ele>388.6</ele>
        <time>2022-09-28T07:34:11Z</time>
      </trkpt>
      <trkpt lat="46.30051" lon="6.1741">
        <ele>388.6</ele>
        <time>2022-09-28T07:34:12Z</time>
      </trkpt>
      <trkpt lat="46.30055" lon="6.17417">
        <ele>388.6</ele>
        <time>2022-09-28T07:34:13Z</time>
      </trkpt>
      <trkpt lat="46.30058" lon="6.17424">
        <ele>388.6</ele>
        <time>2022-09-28T07:34:14Z</time>
      </trkpt>
      <trkpt lat="46.30062" lon="6.17431">
        <ele>388.6</ele>
        <time>2022-09-28T07:34:16Z</time>
      </trkpt>
      <trkpt lat="46.30065" lon="6.17437">
        <ele>388.5</ele>
        <time>2022-09-28T07:34:17Z</time>
      </trkpt>
      <trkpt lat="46.30069" lon="6.17444">
        <ele>388.5</ele>
        <time>2022-09-28T07:34:18Z</time>
      </trkpt>
      <trkpt lat="46.30072" lon="6.1745">
        <ele>388.5</ele>
        <time>2022-09-28T07:34:19Z</time>
      </trkpt>
      <trkpt lat="46.30075" lon="6.17457">
        <ele>388.5</ele>
        <time>2022-09-28T07:34:20Z</time>
      </trkpt>
      <trkpt lat="46.30082" lon="6.17472">
        <ele>388.4</ele>
        <time>2022-09-28T07:34:21Z</time>
      </trkpt>
      <trkpt lat="46.30085" lon="6.17478">
        <ele>388.4</ele>
        <time>2022-09-28T07:34:22Z</time>
      </trkpt>
      <trkpt lat="46.30089" lon="6.17485">
        <ele>388.4</ele>
        <time>2022-09-28T07:34:23Z</time>
      </trkpt>
      <trkpt lat="46.30092" lon="6.17492">
        <ele>388.4</ele>
        <time>2022-09-28T07:34:24Z</time>
      </trkpt>
      <trkpt lat="46.30095" lon="6.17498">
        <ele>388.4</ele>
        <time>2022-09-28T07:34:25Z</time>
      </trkpt>
      <trkpt lat="46.30099" lon="6.17504">
        <ele>388.4</ele>
        <time>2022-09-28T07:34:26Z</time>
      </trkpt>
      <trkpt lat="46.30103" lon="6.17511">
        <ele>388.4</ele>
        <time>2022-09-28T07:34:27Z</time>
      </trkpt>
      <trkpt lat="46.30107" lon="6.17518">
        <ele>388.3</ele>
        <time>2022-09-28T07:34:28Z</time>
      </trkpt>
      <trkpt lat="46.30112" lon="6.17523">
        <ele>388.3</ele>
        <time>2022-09-28T07:34:29Z</time>
      </trkpt>
      <trkpt lat="46.30114" lon="6.1753">
        <ele>388.3</ele>
        <time>2022-09-28T07:34:30Z</time>
      </trkpt>
      <trkpt lat="46.30118" lon="6.17538">
        <ele>388.3</ele>
        <time>2022-09-28T07:34:31Z</time>
      </trkpt>
      <trkpt lat="46.30121" lon="6.17543">
        <ele>388.3</ele>
        <time>2022-09-28T07:34:32Z</time>
      </trkpt>
      <trkpt lat="46.30126" lon="6.1755">
        <ele>388.2</ele>
        <time>2022-09-28T07:34:33Z</time>
      </trkpt>
      <trkpt lat="46.3013" lon="6.17556">
        <ele>388.2</ele>
        <time>2022-09-28T07:34:34Z</time>
      </trkpt>
      <trkpt lat="46.30135" lon="6.17562">
        <ele>388.1</ele>
        <time>2022-09-28T07:34:35Z</time>
      </trkpt>
      <trkpt lat="46.30139" lon="6.17567">
        <ele>388.1</ele>
        <time>2022-09-28T07:34:36Z</time>
      </trkpt>
      <trkpt lat="46.30143" lon="6.17575">
        <ele>388.1</ele>
        <time>2022-09-28T07:34:37Z</time>
      </trkpt>
      <trkpt lat="46.30146" lon="6.17581">
        <ele>388</ele>
        <time>2022-09-28T07:34:38Z</time>
      </trkpt>
      <trkpt lat="46.3015" lon="6.17587">
        <ele>388</ele>
        <time>2022-09-28T07:34:39Z</time>
      </trkpt>
      <trkpt lat="46.30154" lon="6.17593">
        <ele>388</ele>
        <time>2022-09-28T07:34:40Z</time>
      </trkpt>
      <trkpt lat="46.30158" lon="6.176">
        <ele>387.9</ele>
        <time>2022-09-28T07:34:41Z</time>
      </trkpt>
      <trkpt lat="46.30162" lon="6.17606">
        <ele>387.9</ele>
        <time>2022-09-28T07:34:42Z</time>
      </trkpt>
      <trkpt lat="46.30166" lon="6.17613">
        <ele>387.9</ele>
        <time>2022-09-28T07:34:43Z</time>
      </trkpt>
      <trkpt lat="46.3017" lon="6.17619">
        <ele>387.9</ele>
        <time>2022-09-28T07:34:44Z</time>
      </trkpt>
      <trkpt lat="46.30174" lon="6.17626">
        <ele>387.8</ele>
        <time>2022-09-28T07:34:45Z</time>
      </trkpt>
      <trkpt lat="46.30178" lon="6.17633">
        <ele>387.8</ele>
        <time>2022-09-28T07:34:46Z</time>
      </trkpt>
      <trkpt lat="46.30182" lon="6.17639">
        <ele>387.8</ele>
        <time>2022-09-28T07:34:47Z</time>
      </trkpt>
      <trkpt lat="46.30186" lon="6.17646">
        <ele>387.8</ele>
        <time>2022-09-28T07:34:48Z</time>
      </trkpt>
      <trkpt lat="46.3019" lon="6.17652">
        <ele>387.8</ele>
        <time>2022-09-28T07:34:49Z</time>
      </trkpt>
      <trkpt lat="46.30194" lon="6.17658">
        <ele>387.8</ele>
        <time>2022-09-28T07:34:50Z</time>
      </trkpt>
      <trkpt lat="46.30198" lon="6.17665">
        <ele>387.8</ele>
        <time>2022-09-28T07:34:51Z</time>
      </trkpt>
      <trkpt lat="46.30202" lon="6.17671">
        <ele>387.8</ele>
        <time>2022-09-28T07:34:52Z</time>
      </trkpt>
      <trkpt lat="46.30206" lon="6.17677">
        <ele>387.7</ele>
        <time>2022-09-28T07:34:53Z</time>
      </trkpt>
      <trkpt lat="46.3021" lon="6.17684">
        <ele>387.7</ele>
        <time>2022-09-28T07:34:54Z</time>
      </trkpt>
      <trkpt lat="46.30214" lon="6.1769">
        <ele>387.7</ele>
        <time>2022-09-28T07:34:55Z</time>
      </trkpt>
      <trkpt lat="46.30218" lon="6.17697">
        <ele>387.6</ele>
        <time>2022-09-28T07:34:56Z</time>
      </trkpt>
      <trkpt lat="46.30222" lon="6.17703">
        <ele>387.6</ele>
        <time>2022-09-28T07:34:57Z</time>
      </trkpt>
      <trkpt lat="46.30226" lon="6.17708">
        <ele>387.6</ele>
        <time>2022-09-28T07:34:58Z</time>
      </trkpt>
      <trkpt lat="46.30231" lon="6.17714">
        <ele>387.5</ele>
        <time>2022-09-28T07:34:59Z</time>
      </trkpt>
      <trkpt lat="46.30235" lon="6.1772">
        <ele>387.5</ele>
        <time>2022-09-28T07:35:00Z</time>
      </trkpt>
      <trkpt lat="46.30238" lon="6.17726">
        <ele>387.5</ele>
        <time>2022-09-28T07:35:01Z</time>
      </trkpt>
      <trkpt lat="46.30242" lon="6.17732">
        <ele>387.4</ele>
        <time>2022-09-28T07:35:02Z</time>
      </trkpt>
      <trkpt lat="46.30245" lon="6.17738">
        <ele>387.4</ele>
        <time>2022-09-28T07:35:03Z</time>
      </trkpt>
      <trkpt lat="46.30248" lon="6.17745">
        <ele>387.4</ele>
        <time>2022-09-28T07:35:04Z</time>
      </trkpt>
      <trkpt lat="46.30252" lon="6.17751">
        <ele>387.3</ele>
        <time>2022-09-28T07:35:05Z</time>
      </trkpt>
      <trkpt lat="46.30256" lon="6.17757">
        <ele>387.3</ele>
        <time>2022-09-28T07:35:06Z</time>
      </trkpt>
      <trkpt lat="46.3026" lon="6.17762">
        <ele>387.2</ele>
        <time>2022-09-28T07:35:07Z</time>
      </trkpt>
      <trkpt lat="46.30265" lon="6.17768">
        <ele>387.2</ele>
        <time>2022-09-28T07:35:08Z</time>
      </trkpt>
      <trkpt lat="46.30269" lon="6.17774">
        <ele>387.1</ele>
        <time>2022-09-28T07:35:09Z</time>
      </trkpt>
      <trkpt lat="46.30273" lon="6.1778">
        <ele>387</ele>
        <time>2022-09-28T07:35:10Z</time>
      </trkpt>
      <trkpt lat="46.30278" lon="6.17786">
        <ele>387</ele>
        <time>2022-09-28T07:35:11Z</time>
      </trkpt>
      <trkpt lat="46.30282" lon="6.17792">
        <ele>386.9</ele>
        <time>2022-09-28T07:35:12Z</time>
      </trkpt>
      <trkpt lat="46.30287" lon="6.17797">
        <ele>386.8</ele>
        <time>2022-09-28T07:35:13Z</time>
      </trkpt>
      <trkpt lat="46.30292" lon="6.17803">
        <ele>386.7</ele>
        <time>2022-09-28T07:35:14Z</time>
      </trkpt>
      <trkpt lat="46.30296" lon="6.17809">
        <ele>386.6</ele>
        <time>2022-09-28T07:35:15Z</time>
      </trkpt>
      <trkpt lat="46.30301" lon="6.17815">
        <ele>386.5</ele>
        <time>2022-09-28T07:35:16Z</time>
      </trkpt>
      <trkpt lat="46.30305" lon="6.17821">
        <ele>386.4</ele>
        <time>2022-09-28T07:35:17Z</time>
      </trkpt>
      <trkpt lat="46.30309" lon="6.17826">
        <ele>386.3</ele>
        <time>2022-09-28T07:35:18Z</time>
      </trkpt>
      <trkpt lat="46.30314" lon="6.17832">
        <ele>386.1</ele>
        <time>2022-09-28T07:35:19Z</time>
      </trkpt>
      <trkpt lat="46.30319" lon="6.17839">
        <ele>386</ele>
        <time>2022-09-28T07:35:20Z</time>
      </trkpt>
      <trkpt lat="46.30323" lon="6.17845">
        <ele>385.9</ele>
        <time>2022-09-28T07:35:21Z</time>
      </trkpt>
      <trkpt lat="46.30327" lon="6.17853">
        <ele>385.7</ele>
        <time>2022-09-28T07:35:22Z</time>
      </trkpt>
      <trkpt lat="46.30332" lon="6.17858">
        <ele>385.6</ele>
        <time>2022-09-28T07:35:23Z</time>
      </trkpt>
      <trkpt lat="46.30337" lon="6.17863">
        <ele>385.5</ele>
        <time>2022-09-28T07:35:24Z</time>
      </trkpt>
      <trkpt lat="46.30341" lon="6.17869">
        <ele>385.4</ele>
        <time>2022-09-28T07:35:25Z</time>
      </trkpt>
      <trkpt lat="46.30346" lon="6.17875">
        <ele>385.2</ele>
        <time>2022-09-28T07:35:26Z</time>
      </trkpt>
      <trkpt lat="46.30351" lon="6.17881">
        <ele>385</ele>
        <time>2022-09-28T07:35:27Z</time>
      </trkpt>
      <trkpt lat="46.30356" lon="6.17887">
        <ele>384.8</ele>
        <time>2022-09-28T07:35:28Z</time>
      </trkpt>
      <trkpt lat="46.30362" lon="6.17893">
        <ele>384.7</ele>
        <time>2022-09-28T07:35:29Z</time>
      </trkpt>
      <trkpt lat="46.30367" lon="6.17899">
        <ele>384.5</ele>
        <time>2022-09-28T07:35:30Z</time>
      </trkpt>
      <trkpt lat="46.30372" lon="6.17906">
        <ele>384.3</ele>
        <time>2022-09-28T07:35:31Z</time>
      </trkpt>
      <trkpt lat="46.30378" lon="6.17912">
        <ele>384.1</ele>
        <time>2022-09-28T07:35:32Z</time>
      </trkpt>
      <trkpt lat="46.30384" lon="6.17919">
        <ele>383.9</ele>
        <time>2022-09-28T07:35:33Z</time>
      </trkpt>
      <trkpt lat="46.30389" lon="6.17924">
        <ele>383.7</ele>
        <time>2022-09-28T07:35:34Z</time>
      </trkpt>
      <trkpt lat="46.30394" lon="6.17931">
        <ele>383.5</ele>
        <time>2022-09-28T07:35:35Z</time>
      </trkpt>
      <trkpt lat="46.30399" lon="6.17937">
        <ele>383.3</ele>
        <time>2022-09-28T07:35:36Z</time>
      </trkpt>
      <trkpt lat="46.30405" lon="6.17944">
        <ele>383.1</ele>
        <time>2022-09-28T07:35:37Z</time>
      </trkpt>
      <trkpt lat="46.30411" lon="6.17951">
        <ele>382.9</ele>
        <time>2022-09-28T07:35:38Z</time>
      </trkpt>
      <trkpt lat="46.30416" lon="6.17957">
        <ele>382.7</ele>
        <time>2022-09-28T07:35:39Z</time>
      </trkpt>
      <trkpt lat="46.30422" lon="6.17964">
        <ele>382.5</ele>
        <time>2022-09-28T07:35:40Z</time>
      </trkpt>
      <trkpt lat="46.30428" lon="6.1797">
        <ele>382.3</ele>
        <time>2022-09-28T07:35:41Z</time>
      </trkpt>
      <trkpt lat="46.30433" lon="6.17976">
        <ele>382.1</ele>
        <time>2022-09-28T07:35:42Z</time>
      </trkpt>
      <trkpt lat="46.30438" lon="6.17983">
        <ele>381.9</ele>
        <time>2022-09-28T07:35:43Z</time>
      </trkpt>
      <trkpt lat="46.30443" lon="6.17988">
        <ele>381.8</ele>
        <time>2022-09-28T07:35:44Z</time>
      </trkpt>
      <trkpt lat="46.30447" lon="6.17993">
        <ele>381.8</ele>
        <time>2022-09-28T07:35:45Z</time>
      </trkpt>
      <trkpt lat="46.30451" lon="6.17998">
        <ele>381.7</ele>
        <time>2022-09-28T07:35:46Z</time>
      </trkpt>
      <trkpt lat="46.30455" lon="6.18003">
        <ele>381.7</ele>
        <time>2022-09-28T07:35:47Z</time>
      </trkpt>
      <trkpt lat="46.30458" lon="6.18007">
        <ele>381.6</ele>
        <time>2022-09-28T07:35:48Z</time>
      </trkpt>
      <trkpt lat="46.30461" lon="6.1801">
        <ele>381.5</ele>
        <time>2022-09-28T07:35:49Z</time>
      </trkpt>
      <trkpt lat="46.30462" lon="6.18012">
        <ele>381.5</ele>
        <time>2022-09-28T07:35:50Z</time>
      </trkpt>
      <trkpt lat="46.30466" lon="6.18012">
        <ele>381.4</ele>
        <time>2022-09-28T07:35:51Z</time>
      </trkpt>
      <trkpt lat="46.30467" lon="6.18012">
        <ele>381.4</ele>
        <time>2022-09-28T07:35:52Z</time>
      </trkpt>
      <trkpt lat="46.3047" lon="6.18015">
        <ele>381.3</ele>
        <time>2022-09-28T07:35:53Z</time>
      </trkpt>
      <trkpt lat="46.30472" lon="6.18019">
        <ele>381.2</ele>
        <time>2022-09-28T07:35:54Z</time>
      </trkpt>
      <trkpt lat="46.30475" lon="6.18022">
        <ele>381.1</ele>
        <time>2022-09-28T07:35:55Z</time>
      </trkpt>
      <trkpt lat="46.30479" lon="6.18025">
        <ele>381</ele>
        <time>2022-09-28T07:35:56Z</time>
      </trkpt>
      <trkpt lat="46.30482" lon="6.18028">
        <ele>381</ele>
        <time>2022-09-28T07:35:57Z</time>
      </trkpt>
      <trkpt lat="46.30485" lon="6.18031">
        <ele>381</ele>
        <time>2022-09-28T07:35:58Z</time>
      </trkpt>
      <trkpt lat="46.30488" lon="6.18036">
        <ele>381</ele>
        <time>2022-09-28T07:35:59Z</time>
      </trkpt>
      <trkpt lat="46.30491" lon="6.1804">
        <ele>380.9</ele>
        <time>2022-09-28T07:36:00Z</time>
      </trkpt>
      <trkpt lat="46.30493" lon="6.18045">
        <ele>380.9</ele>
        <time>2022-09-28T07:36:01Z</time>
      </trkpt>
      <trkpt lat="46.30495" lon="6.18049">
        <ele>380.9</ele>
        <time>2022-09-28T07:36:02Z</time>
      </trkpt>
      <trkpt lat="46.30497" lon="6.18054">
        <ele>380.9</ele>
        <time>2022-09-28T07:36:04Z</time>
      </trkpt>
      <trkpt lat="46.305" lon="6.18059">
        <ele>380.8</ele>
        <time>2022-09-28T07:36:05Z</time>
      </trkpt>
      <trkpt lat="46.30503" lon="6.18062">
        <ele>380.8</ele>
        <time>2022-09-28T07:36:06Z</time>
      </trkpt>
      <trkpt lat="46.30507" lon="6.18064">
        <ele>380.8</ele>
        <time>2022-09-28T07:36:07Z</time>
      </trkpt>
      <trkpt lat="46.30511" lon="6.18065">
        <ele>380.7</ele>
        <time>2022-09-28T07:36:08Z</time>
      </trkpt>
      <trkpt lat="46.30515" lon="6.18067">
        <ele>380.7</ele>
        <time>2022-09-28T07:36:09Z</time>
      </trkpt>
      <trkpt lat="46.3052" lon="6.1807">
        <ele>380.7</ele>
        <time>2022-09-28T07:36:10Z</time>
      </trkpt>
      <trkpt lat="46.30524" lon="6.18073">
        <ele>380.6</ele>
        <time>2022-09-28T07:36:11Z</time>
      </trkpt>
      <trkpt lat="46.30528" lon="6.18077">
        <ele>380.6</ele>
        <time>2022-09-28T07:36:12Z</time>
      </trkpt>
      <trkpt lat="46.30531" lon="6.18081">
        <ele>380.6</ele>
        <time>2022-09-28T07:36:13Z</time>
      </trkpt>
      <trkpt lat="46.30535" lon="6.18086">
        <ele>380.5</ele>
        <time>2022-09-28T07:36:14Z</time>
      </trkpt>
      <trkpt lat="46.30539" lon="6.18089">
        <ele>380.5</ele>
        <time>2022-09-28T07:36:15Z</time>
      </trkpt>
      <trkpt lat="46.30544" lon="6.18094">
        <ele>380.5</ele>
        <time>2022-09-28T07:36:16Z</time>
      </trkpt>
      <trkpt lat="46.30549" lon="6.18098">
        <ele>380.5</ele>
        <time>2022-09-28T07:36:17Z</time>
      </trkpt>
      <trkpt lat="46.30554" lon="6.18102">
        <ele>380.5</ele>
        <time>2022-09-28T07:36:18Z</time>
      </trkpt>
      <trkpt lat="46.30563" lon="6.18112">
        <ele>380.4</ele>
        <time>2022-09-28T07:36:19Z</time>
      </trkpt>
      <trkpt lat="46.30567" lon="6.18116">
        <ele>380.4</ele>
        <time>2022-09-28T07:36:20Z</time>
      </trkpt>
      <trkpt lat="46.30572" lon="6.18121">
        <ele>380.4</ele>
        <time>2022-09-28T07:36:22Z</time>
      </trkpt>
      <trkpt lat="46.30578" lon="6.18125">
        <ele>380.4</ele>
        <time>2022-09-28T07:36:23Z</time>
      </trkpt>
      <trkpt lat="46.30586" lon="6.18134">
        <ele>380.4</ele>
        <time>2022-09-28T07:36:24Z</time>
      </trkpt>
      <trkpt lat="46.30591" lon="6.18139">
        <ele>380.4</ele>
        <time>2022-09-28T07:36:25Z</time>
      </trkpt>
      <trkpt lat="46.30596" lon="6.18143">
        <ele>380.4</ele>
        <time>2022-09-28T07:36:26Z</time>
      </trkpt>
      <trkpt lat="46.30601" lon="6.18148">
        <ele>380.3</ele>
        <time>2022-09-28T07:36:27Z</time>
      </trkpt>
      <trkpt lat="46.30606" lon="6.18152">
        <ele>380.3</ele>
        <time>2022-09-28T07:36:28Z</time>
      </trkpt>
      <trkpt lat="46.3061" lon="6.18156">
        <ele>380.3</ele>
        <time>2022-09-28T07:36:29Z</time>
      </trkpt>
      <trkpt lat="46.30615" lon="6.18161">
        <ele>380.4</ele>
        <time>2022-09-28T07:36:30Z</time>
      </trkpt>
      <trkpt lat="46.3062" lon="6.18165">
        <ele>380.4</ele>
        <time>2022-09-28T07:36:31Z</time>
      </trkpt>
      <trkpt lat="46.30624" lon="6.1817">
        <ele>380.4</ele>
        <time>2022-09-28T07:36:32Z</time>
      </trkpt>
      <trkpt lat="46.30628" lon="6.18174">
        <ele>380.4</ele>
        <time>2022-09-28T07:36:33Z</time>
      </trkpt>
      <trkpt lat="46.30632" lon="6.18178">
        <ele>380.5</ele>
        <time>2022-09-28T07:36:34Z</time>
      </trkpt>
      <trkpt lat="46.30637" lon="6.18182">
        <ele>380.5</ele>
        <time>2022-09-28T07:36:35Z</time>
      </trkpt>
      <trkpt lat="46.30641" lon="6.18186">
        <ele>380.6</ele>
        <time>2022-09-28T07:36:36Z</time>
      </trkpt>
      <trkpt lat="46.30645" lon="6.1819">
        <ele>380.6</ele>
        <time>2022-09-28T07:36:37Z</time>
      </trkpt>
      <trkpt lat="46.30649" lon="6.18194">
        <ele>380.7</ele>
        <time>2022-09-28T07:36:38Z</time>
      </trkpt>
      <trkpt lat="46.30653" lon="6.18197">
        <ele>380.7</ele>
        <time>2022-09-28T07:36:39Z</time>
      </trkpt>
      <trkpt lat="46.30656" lon="6.18201">
        <ele>380.8</ele>
        <time>2022-09-28T07:36:40Z</time>
      </trkpt>
      <trkpt lat="46.30658" lon="6.18203">
        <ele>380.8</ele>
        <time>2022-09-28T07:36:41Z</time>
      </trkpt>
      <trkpt lat="46.30662" lon="6.18207">
        <ele>380.9</ele>
        <time>2022-09-28T07:36:42Z</time>
      </trkpt>
      <trkpt lat="46.30665" lon="6.1821">
        <ele>380.9</ele>
        <time>2022-09-28T07:36:43Z</time>
      </trkpt>
      <trkpt lat="46.30669" lon="6.18212">
        <ele>381</ele>
        <time>2022-09-28T07:36:44Z</time>
      </trkpt>
      <trkpt lat="46.30672" lon="6.18215">
        <ele>381.1</ele>
        <time>2022-09-28T07:36:45Z</time>
      </trkpt>
      <trkpt lat="46.30675" lon="6.18218">
        <ele>381.1</ele>
        <time>2022-09-28T07:36:46Z</time>
      </trkpt>
      <trkpt lat="46.30678" lon="6.1822">
        <ele>381.2</ele>
        <time>2022-09-28T07:36:47Z</time>
      </trkpt>
      <trkpt lat="46.30682" lon="6.18223">
        <ele>381.3</ele>
        <time>2022-09-28T07:36:48Z</time>
      </trkpt>
      <trkpt lat="46.30685" lon="6.18225">
        <ele>381.3</ele>
        <time>2022-09-28T07:36:49Z</time>
      </trkpt>
      <trkpt lat="46.30687" lon="6.18229">
        <ele>381.4</ele>
        <time>2022-09-28T07:36:50Z</time>
      </trkpt>
      <trkpt lat="46.30691" lon="6.18232">
        <ele>381.5</ele>
        <time>2022-09-28T07:36:51Z</time>
      </trkpt>
      <trkpt lat="46.30693" lon="6.18234">
        <ele>381.5</ele>
        <time>2022-09-28T07:36:52Z</time>
      </trkpt>
      <trkpt lat="46.30697" lon="6.18237">
        <ele>381.6</ele>
        <time>2022-09-28T07:36:53Z</time>
      </trkpt>
      <trkpt lat="46.30701" lon="6.18241">
        <ele>381.8</ele>
        <time>2022-09-28T07:36:54Z</time>
      </trkpt>
      <trkpt lat="46.30705" lon="6.18242">
        <ele>381.9</ele>
        <time>2022-09-28T07:36:55Z</time>
      </trkpt>
      <trkpt lat="46.30708" lon="6.18246">
        <ele>382.1</ele>
        <time>2022-09-28T07:36:56Z</time>
      </trkpt>
      <trkpt lat="46.3071" lon="6.18247">
        <ele>382.1</ele>
        <time>2022-09-28T07:36:57Z</time>
      </trkpt>
      <trkpt lat="46.30713" lon="6.18251">
        <ele>382.3</ele>
        <time>2022-09-28T07:36:58Z</time>
      </trkpt>
      <trkpt lat="46.30716" lon="6.18254">
        <ele>382.4</ele>
        <time>2022-09-28T07:36:59Z</time>
      </trkpt>
      <trkpt lat="46.30719" lon="6.18256">
        <ele>382.5</ele>
        <time>2022-09-28T07:37:00Z</time>
      </trkpt>
      <trkpt lat="46.30722" lon="6.18259">
        <ele>382.7</ele>
        <time>2022-09-28T07:37:01Z</time>
      </trkpt>
      <trkpt lat="46.30724" lon="6.18261">
        <ele>382.8</ele>
        <time>2022-09-28T07:37:02Z</time>
      </trkpt>
      <trkpt lat="46.30727" lon="6.18263">
        <ele>382.9</ele>
        <time>2022-09-28T07:37:03Z</time>
      </trkpt>
      <trkpt lat="46.3073" lon="6.18265">
        <ele>383.1</ele>
        <time>2022-09-28T07:37:04Z</time>
      </trkpt>
      <trkpt lat="46.30732" lon="6.18268">
        <ele>383.2</ele>
        <time>2022-09-28T07:37:05Z</time>
      </trkpt>
      <trkpt lat="46.30734" lon="6.1827">
        <ele>383.3</ele>
        <time>2022-09-28T07:37:06Z</time>
      </trkpt>
      <trkpt lat="46.30737" lon="6.18272">
        <ele>383.4</ele>
        <time>2022-09-28T07:37:07Z</time>
      </trkpt>
      <trkpt lat="46.30739" lon="6.18276">
        <ele>383.5</ele>
        <time>2022-09-28T07:37:08Z</time>
      </trkpt>
      <trkpt lat="46.30742" lon="6.18279">
        <ele>383.7</ele>
        <time>2022-09-28T07:37:09Z</time>
      </trkpt>
      <trkpt lat="46.30743" lon="6.18279">
        <ele>383.8</ele>
        <time>2022-09-28T07:37:10Z</time>
      </trkpt>
      <trkpt lat="46.30746" lon="6.18282">
        <ele>383.9</ele>
        <time>2022-09-28T07:37:11Z</time>
      </trkpt>
      <trkpt lat="46.30747" lon="6.18284">
        <ele>384</ele>
        <time>2022-09-28T07:37:12Z</time>
      </trkpt>
      <trkpt lat="46.30749" lon="6.18286">
        <ele>384.1</ele>
        <time>2022-09-28T07:37:13Z</time>
      </trkpt>
      <trkpt lat="46.30753" lon="6.18289">
        <ele>384.2</ele>
        <time>2022-09-28T07:37:14Z</time>
      </trkpt>
      <trkpt lat="46.30754" lon="6.1829">
        <ele>384.3</ele>
        <time>2022-09-28T07:37:15Z</time>
      </trkpt>
      <trkpt lat="46.30758" lon="6.18292">
        <ele>384.5</ele>
        <time>2022-09-28T07:37:16Z</time>
      </trkpt>
      <trkpt lat="46.30759" lon="6.18293">
        <ele>384.5</ele>
        <time>2022-09-28T07:37:17Z</time>
      </trkpt>
      <trkpt lat="46.30762" lon="6.18296">
        <ele>384.7</ele>
        <time>2022-09-28T07:37:18Z</time>
      </trkpt>
      <trkpt lat="46.30763" lon="6.18297">
        <ele>384.8</ele>
        <time>2022-09-28T07:37:19Z</time>
      </trkpt>
      <trkpt lat="46.30766" lon="6.183">
        <ele>385</ele>
        <time>2022-09-28T07:37:20Z</time>
      </trkpt>
      <trkpt lat="46.30767" lon="6.18301">
        <ele>385</ele>
        <time>2022-09-28T07:37:21Z</time>
      </trkpt>
      <trkpt lat="46.3077" lon="6.18304">
        <ele>385.2</ele>
        <time>2022-09-28T07:37:22Z</time>
      </trkpt>
      <trkpt lat="46.30772" lon="6.18306">
        <ele>385.4</ele>
        <time>2022-09-28T07:37:23Z</time>
      </trkpt>
      <trkpt lat="46.30773" lon="6.18307">
        <ele>385.4</ele>
        <time>2022-09-28T07:37:24Z</time>
      </trkpt>
      <trkpt lat="46.30776" lon="6.18309">
        <ele>385.6</ele>
        <time>2022-09-28T07:37:25Z</time>
      </trkpt>
      <trkpt lat="46.30778" lon="6.18311">
        <ele>385.7</ele>
        <time>2022-09-28T07:37:26Z</time>
      </trkpt>
      <trkpt lat="46.30779" lon="6.18312">
        <ele>385.8</ele>
        <time>2022-09-28T07:37:27Z</time>
      </trkpt>
      <trkpt lat="46.30782" lon="6.18315">
        <ele>385.9</ele>
        <time>2022-09-28T07:37:28Z</time>
      </trkpt>
      <trkpt lat="46.30783" lon="6.18316">
        <ele>386</ele>
        <time>2022-09-28T07:37:29Z</time>
      </trkpt>
      <trkpt lat="46.30787" lon="6.18318">
        <ele>386.2</ele>
        <time>2022-09-28T07:37:30Z</time>
      </trkpt>
      <trkpt lat="46.30788" lon="6.18318">
        <ele>386.2</ele>
        <time>2022-09-28T07:37:31Z</time>
      </trkpt>
      <trkpt lat="46.30791" lon="6.18322">
        <ele>386.4</ele>
        <time>2022-09-28T07:37:32Z</time>
      </trkpt>
      <trkpt lat="46.30793" lon="6.18323">
        <ele>386.5</ele>
        <time>2022-09-28T07:37:33Z</time>
      </trkpt>
      <trkpt lat="46.30795" lon="6.18325">
        <ele>386.8</ele>
        <time>2022-09-28T07:37:34Z</time>
      </trkpt>
      <trkpt lat="46.30798" lon="6.18329">
        <ele>386.9</ele>
        <time>2022-09-28T07:37:35Z</time>
      </trkpt>
      <trkpt lat="46.30799" lon="6.1833">
        <ele>386.9</ele>
        <time>2022-09-28T07:37:36Z</time>
      </trkpt>
      <trkpt lat="46.30802" lon="6.18333">
        <ele>386.9</ele>
        <time>2022-09-28T07:37:37Z</time>
      </trkpt>
      <trkpt lat="46.30803" lon="6.18334">
        <ele>386.9</ele>
        <time>2022-09-28T07:37:38Z</time>
      </trkpt>
      <trkpt lat="46.30806" lon="6.18336">
        <ele>387</ele>
        <time>2022-09-28T07:37:39Z</time>
      </trkpt>
      <trkpt lat="46.30807" lon="6.18337">
        <ele>387</ele>
        <time>2022-09-28T07:37:40Z</time>
      </trkpt>
      <trkpt lat="46.3081" lon="6.18339">
        <ele>387.1</ele>
        <time>2022-09-28T07:37:41Z</time>
      </trkpt>
      <trkpt lat="46.30812" lon="6.18341">
        <ele>387.2</ele>
        <time>2022-09-28T07:37:42Z</time>
      </trkpt>
      <trkpt lat="46.30816" lon="6.18344">
        <ele>387.3</ele>
        <time>2022-09-28T07:37:43Z</time>
      </trkpt>
      <trkpt lat="46.30817" lon="6.18345">
        <ele>387.3</ele>
        <time>2022-09-28T07:37:44Z</time>
      </trkpt>
      <trkpt lat="46.30819" lon="6.18348">
        <ele>387.4</ele>
        <time>2022-09-28T07:37:45Z</time>
      </trkpt>
      <trkpt lat="46.30821" lon="6.18351">
        <ele>387.5</ele>
        <time>2022-09-28T07:37:46Z</time>
      </trkpt>
      <trkpt lat="46.30823" lon="6.18355">
        <ele>387.6</ele>
        <time>2022-09-28T07:37:47Z</time>
      </trkpt>
      <trkpt lat="46.30826" lon="6.18357">
        <ele>387.7</ele>
        <time>2022-09-28T07:37:48Z</time>
      </trkpt>
      <trkpt lat="46.30828" lon="6.18359">
        <ele>387.8</ele>
        <time>2022-09-28T07:37:49Z</time>
      </trkpt>
      <trkpt lat="46.30831" lon="6.18359">
        <ele>387.8</ele>
        <time>2022-09-28T07:37:50Z</time>
      </trkpt>
      <trkpt lat="46.30834" lon="6.1836">
        <ele>388</ele>
        <time>2022-09-28T07:37:51Z</time>
      </trkpt>
      <trkpt lat="46.30837" lon="6.18362">
        <ele>388</ele>
        <time>2022-09-28T07:37:52Z</time>
      </trkpt>
      <trkpt lat="46.30841" lon="6.18365">
        <ele>388.2</ele>
        <time>2022-09-28T07:37:53Z</time>
      </trkpt>
      <trkpt lat="46.30843" lon="6.18367">
        <ele>388.3</ele>
        <time>2022-09-28T07:37:54Z</time>
      </trkpt>
      <trkpt lat="46.30846" lon="6.1837">
        <ele>388.4</ele>
        <time>2022-09-28T07:37:55Z</time>
      </trkpt>
      <trkpt lat="46.30849" lon="6.18373">
        <ele>388.5</ele>
        <time>2022-09-28T07:37:56Z</time>
      </trkpt>
      <trkpt lat="46.3085" lon="6.18376">
        <ele>388.6</ele>
        <time>2022-09-28T07:37:57Z</time>
      </trkpt>
      <trkpt lat="46.30853" lon="6.18381">
        <ele>388.8</ele>
        <time>2022-09-28T07:37:58Z</time>
      </trkpt>
      <trkpt lat="46.30854" lon="6.18383">
        <ele>388.8</ele>
        <time>2022-09-28T07:37:59Z</time>
      </trkpt>
      <trkpt lat="46.30856" lon="6.18386">
        <ele>388.9</ele>
        <time>2022-09-28T07:38:00Z</time>
      </trkpt>
      <trkpt lat="46.30859" lon="6.18388">
        <ele>388.8</ele>
        <time>2022-09-28T07:38:01Z</time>
      </trkpt>
      <trkpt lat="46.30862" lon="6.1839">
        <ele>388.8</ele>
        <time>2022-09-28T07:38:02Z</time>
      </trkpt>
      <trkpt lat="46.30866" lon="6.18393">
        <ele>388.8</ele>
        <time>2022-09-28T07:38:03Z</time>
      </trkpt>
      <trkpt lat="46.30869" lon="6.18396">
        <ele>388.8</ele>
        <time>2022-09-28T07:38:04Z</time>
      </trkpt>
      <trkpt lat="46.30872" lon="6.184">
        <ele>388.7</ele>
        <time>2022-09-28T07:38:05Z</time>
      </trkpt>
      <trkpt lat="46.30875" lon="6.18402">
        <ele>388.7</ele>
        <time>2022-09-28T07:38:06Z</time>
      </trkpt>
      <trkpt lat="46.30878" lon="6.18405">
        <ele>388.7</ele>
        <time>2022-09-28T07:38:07Z</time>
      </trkpt>
      <trkpt lat="46.30882" lon="6.18408">
        <ele>388.7</ele>
        <time>2022-09-28T07:38:08Z</time>
      </trkpt>
      <trkpt lat="46.30885" lon="6.18411">
        <ele>388.7</ele>
        <time>2022-09-28T07:38:09Z</time>
      </trkpt>
      <trkpt lat="46.30888" lon="6.18414">
        <ele>388.7</ele>
        <time>2022-09-28T07:38:10Z</time>
      </trkpt>
      <trkpt lat="46.30892" lon="6.18417">
        <ele>388.7</ele>
        <time>2022-09-28T07:38:11Z</time>
      </trkpt>
      <trkpt lat="46.30895" lon="6.18421">
        <ele>388.7</ele>
        <time>2022-09-28T07:38:12Z</time>
      </trkpt>
      <trkpt lat="46.30898" lon="6.18424">
        <ele>388.8</ele>
        <time>2022-09-28T07:38:13Z</time>
      </trkpt>
      <trkpt lat="46.30902" lon="6.18427">
        <ele>388.8</ele>
        <time>2022-09-28T07:38:14Z</time>
      </trkpt>
      <trkpt lat="46.30905" lon="6.1843">
        <ele>388.8</ele>
        <time>2022-09-28T07:38:15Z</time>
      </trkpt>
      <trkpt lat="46.30909" lon="6.18434">
        <ele>388.8</ele>
        <time>2022-09-28T07:38:16Z</time>
      </trkpt>
      <trkpt lat="46.30913" lon="6.18437">
        <ele>388.8</ele>
        <time>2022-09-28T07:38:17Z</time>
      </trkpt>
      <trkpt lat="46.30916" lon="6.1844">
        <ele>388.8</ele>
        <time>2022-09-28T07:38:18Z</time>
      </trkpt>
      <trkpt lat="46.3092" lon="6.18443">
        <ele>388.8</ele>
        <time>2022-09-28T07:38:19Z</time>
      </trkpt>
      <trkpt lat="46.30922" lon="6.18446">
        <ele>388.8</ele>
        <time>2022-09-28T07:38:20Z</time>
      </trkpt>
      <trkpt lat="46.30927" lon="6.1845">
        <ele>388.8</ele>
        <time>2022-09-28T07:38:21Z</time>
      </trkpt>
      <trkpt lat="46.30931" lon="6.18453">
        <ele>388.7</ele>
        <time>2022-09-28T07:38:22Z</time>
      </trkpt>
      <trkpt lat="46.30934" lon="6.18457">
        <ele>388.7</ele>
        <time>2022-09-28T07:38:23Z</time>
      </trkpt>
      <trkpt lat="46.30938" lon="6.1846">
        <ele>388.7</ele>
        <time>2022-09-28T07:38:24Z</time>
      </trkpt>
      <trkpt lat="46.30942" lon="6.18464">
        <ele>388.6</ele>
        <time>2022-09-28T07:38:25Z</time>
      </trkpt>
      <trkpt lat="46.30946" lon="6.18468">
        <ele>388.6</ele>
        <time>2022-09-28T07:38:26Z</time>
      </trkpt>
      <trkpt lat="46.3095" lon="6.18471">
        <ele>388.6</ele>
        <time>2022-09-28T07:38:27Z</time>
      </trkpt>
      <trkpt lat="46.30954" lon="6.18476">
        <ele>388.5</ele>
        <time>2022-09-28T07:38:28Z</time>
      </trkpt>
      <trkpt lat="46.30959" lon="6.18479">
        <ele>388.5</ele>
        <time>2022-09-28T07:38:29Z</time>
      </trkpt>
      <trkpt lat="46.30963" lon="6.18484">
        <ele>388.4</ele>
        <time>2022-09-28T07:38:30Z</time>
      </trkpt>
      <trkpt lat="46.30968" lon="6.18487">
        <ele>388.4</ele>
        <time>2022-09-28T07:38:31Z</time>
      </trkpt>
      <trkpt lat="46.30972" lon="6.18492">
        <ele>388.3</ele>
        <time>2022-09-28T07:38:32Z</time>
      </trkpt>
      <trkpt lat="46.30976" lon="6.18496">
        <ele>388.2</ele>
        <time>2022-09-28T07:38:33Z</time>
      </trkpt>
      <trkpt lat="46.3098" lon="6.185">
        <ele>388.1</ele>
        <time>2022-09-28T07:38:34Z</time>
      </trkpt>
      <trkpt lat="46.30985" lon="6.18504">
        <ele>388.1</ele>
        <time>2022-09-28T07:38:35Z</time>
      </trkpt>
      <trkpt lat="46.3099" lon="6.18509">
        <ele>388</ele>
        <time>2022-09-28T07:38:36Z</time>
      </trkpt>
      <trkpt lat="46.30994" lon="6.18514">
        <ele>387.9</ele>
        <time>2022-09-28T07:38:37Z</time>
      </trkpt>
      <trkpt lat="46.30999" lon="6.18518">
        <ele>387.8</ele>
        <time>2022-09-28T07:38:38Z</time>
      </trkpt>
      <trkpt lat="46.31004" lon="6.18522">
        <ele>387.8</ele>
        <time>2022-09-28T07:38:39Z</time>
      </trkpt>
      <trkpt lat="46.31009" lon="6.18527">
        <ele>387.7</ele>
        <time>2022-09-28T07:38:40Z</time>
      </trkpt>
      <trkpt lat="46.31014" lon="6.18532">
        <ele>387.6</ele>
        <time>2022-09-28T07:38:41Z</time>
      </trkpt>
      <trkpt lat="46.3102" lon="6.18536">
        <ele>387.5</ele>
        <time>2022-09-28T07:38:42Z</time>
      </trkpt>
      <trkpt lat="46.31024" lon="6.18541">
        <ele>387.5</ele>
        <time>2022-09-28T07:38:43Z</time>
      </trkpt>
      <trkpt lat="46.3103" lon="6.18545">
        <ele>387.4</ele>
        <time>2022-09-28T07:38:44Z</time>
      </trkpt>
      <trkpt lat="46.31035" lon="6.18549">
        <ele>387.3</ele>
        <time>2022-09-28T07:38:45Z</time>
      </trkpt>
      <trkpt lat="46.31039" lon="6.18554">
        <ele>387.3</ele>
        <time>2022-09-28T07:38:46Z</time>
      </trkpt>
      <trkpt lat="46.31045" lon="6.18559">
        <ele>387.2</ele>
        <time>2022-09-28T07:38:47Z</time>
      </trkpt>
      <trkpt lat="46.3105" lon="6.18563">
        <ele>387.2</ele>
        <time>2022-09-28T07:38:48Z</time>
      </trkpt>
      <trkpt lat="46.31055" lon="6.18568">
        <ele>387.1</ele>
        <time>2022-09-28T07:38:49Z</time>
      </trkpt>
      <trkpt lat="46.31059" lon="6.18573">
        <ele>387</ele>
        <time>2022-09-28T07:38:50Z</time>
      </trkpt>
      <trkpt lat="46.31065" lon="6.18577">
        <ele>387</ele>
        <time>2022-09-28T07:38:51Z</time>
      </trkpt>
      <trkpt lat="46.31069" lon="6.18582">
        <ele>386.9</ele>
        <time>2022-09-28T07:38:52Z</time>
      </trkpt>
      <trkpt lat="46.31074" lon="6.18586">
        <ele>386.9</ele>
        <time>2022-09-28T07:38:53Z</time>
      </trkpt>
      <trkpt lat="46.31079" lon="6.18591">
        <ele>386.8</ele>
        <time>2022-09-28T07:38:54Z</time>
      </trkpt>
      <trkpt lat="46.31084" lon="6.18596">
        <ele>386.8</ele>
        <time>2022-09-28T07:38:55Z</time>
      </trkpt>
      <trkpt lat="46.31089" lon="6.186">
        <ele>386.7</ele>
        <time>2022-09-28T07:38:56Z</time>
      </trkpt>
      <trkpt lat="46.31094" lon="6.18604">
        <ele>386.7</ele>
        <time>2022-09-28T07:38:57Z</time>
      </trkpt>
      <trkpt lat="46.31099" lon="6.18609">
        <ele>386.7</ele>
        <time>2022-09-28T07:38:58Z</time>
      </trkpt>
      <trkpt lat="46.31104" lon="6.18615">
        <ele>386.6</ele>
        <time>2022-09-28T07:38:59Z</time>
      </trkpt>
      <trkpt lat="46.31109" lon="6.1862">
        <ele>386.6</ele>
        <time>2022-09-28T07:39:00Z</time>
      </trkpt>
      <trkpt lat="46.31114" lon="6.18624">
        <ele>386.6</ele>
        <time>2022-09-28T07:39:01Z</time>
      </trkpt>
      <trkpt lat="46.3112" lon="6.18629">
        <ele>386.6</ele>
        <time>2022-09-28T07:39:02Z</time>
      </trkpt>
      <trkpt lat="46.31125" lon="6.18633">
        <ele>386.6</ele>
        <time>2022-09-28T07:39:03Z</time>
      </trkpt>
      <trkpt lat="46.3113" lon="6.18638">
        <ele>386.6</ele>
        <time>2022-09-28T07:39:04Z</time>
      </trkpt>
      <trkpt lat="46.31135" lon="6.18643">
        <ele>386.6</ele>
        <time>2022-09-28T07:39:05Z</time>
      </trkpt>
      <trkpt lat="46.31139" lon="6.18647">
        <ele>386.6</ele>
        <time>2022-09-28T07:39:06Z</time>
      </trkpt>
      <trkpt lat="46.31144" lon="6.18652">
        <ele>386.6</ele>
        <time>2022-09-28T07:39:07Z</time>
      </trkpt>
      <trkpt lat="46.31149" lon="6.18658">
        <ele>386.6</ele>
        <time>2022-09-28T07:39:08Z</time>
      </trkpt>
      <trkpt lat="46.31154" lon="6.18662">
        <ele>386.7</ele>
        <time>2022-09-28T07:39:09Z</time>
      </trkpt>
      <trkpt lat="46.31159" lon="6.18666">
        <ele>386.7</ele>
        <time>2022-09-28T07:39:10Z</time>
      </trkpt>
      <trkpt lat="46.31163" lon="6.18671">
        <ele>386.7</ele>
        <time>2022-09-28T07:39:11Z</time>
      </trkpt>
      <trkpt lat="46.31168" lon="6.18676">
        <ele>386.7</ele>
        <time>2022-09-28T07:39:12Z</time>
      </trkpt>
      <trkpt lat="46.31173" lon="6.1868">
        <ele>386.7</ele>
        <time>2022-09-28T07:39:13Z</time>
      </trkpt>
      <trkpt lat="46.31178" lon="6.18684">
        <ele>386.7</ele>
        <time>2022-09-28T07:39:14Z</time>
      </trkpt>
      <trkpt lat="46.31183" lon="6.18688">
        <ele>386.7</ele>
        <time>2022-09-28T07:39:15Z</time>
      </trkpt>
      <trkpt lat="46.31188" lon="6.18692">
        <ele>386.7</ele>
        <time>2022-09-28T07:39:16Z</time>
      </trkpt>
      <trkpt lat="46.31193" lon="6.18697">
        <ele>386.8</ele>
        <time>2022-09-28T07:39:17Z</time>
      </trkpt>
      <trkpt lat="46.31198" lon="6.18703">
        <ele>386.8</ele>
        <time>2022-09-28T07:39:18Z</time>
      </trkpt>
      <trkpt lat="46.31202" lon="6.18707">
        <ele>386.8</ele>
        <time>2022-09-28T07:39:19Z</time>
      </trkpt>
      <trkpt lat="46.31207" lon="6.18711">
        <ele>386.8</ele>
        <time>2022-09-28T07:39:20Z</time>
      </trkpt>
      <trkpt lat="46.31212" lon="6.18715">
        <ele>386.8</ele>
        <time>2022-09-28T07:39:21Z</time>
      </trkpt>
      <trkpt lat="46.31217" lon="6.1872">
        <ele>386.8</ele>
        <time>2022-09-28T07:39:22Z</time>
      </trkpt>
      <trkpt lat="46.31221" lon="6.18724">
        <ele>386.9</ele>
        <time>2022-09-28T07:39:23Z</time>
      </trkpt>
      <trkpt lat="46.31226" lon="6.18728">
        <ele>386.9</ele>
        <time>2022-09-28T07:39:24Z</time>
      </trkpt>
      <trkpt lat="46.31231" lon="6.18732">
        <ele>386.9</ele>
        <time>2022-09-28T07:39:25Z</time>
      </trkpt>
      <trkpt lat="46.31236" lon="6.18737">
        <ele>386.9</ele>
        <time>2022-09-28T07:39:26Z</time>
      </trkpt>
      <trkpt lat="46.31241" lon="6.18742">
        <ele>386.9</ele>
        <time>2022-09-28T07:39:27Z</time>
      </trkpt>
      <trkpt lat="46.31245" lon="6.18747">
        <ele>386.9</ele>
        <time>2022-09-28T07:39:28Z</time>
      </trkpt>
      <trkpt lat="46.31251" lon="6.18752">
        <ele>387</ele>
        <time>2022-09-28T07:39:29Z</time>
      </trkpt>
      <trkpt lat="46.31256" lon="6.18757">
        <ele>387</ele>
        <time>2022-09-28T07:39:30Z</time>
      </trkpt>
      <trkpt lat="46.3126" lon="6.18761">
        <ele>387</ele>
        <time>2022-09-28T07:39:31Z</time>
      </trkpt>
      <trkpt lat="46.31266" lon="6.18765">
        <ele>387</ele>
        <time>2022-09-28T07:39:32Z</time>
      </trkpt>
      <trkpt lat="46.3127" lon="6.1877">
        <ele>387</ele>
        <time>2022-09-28T07:39:33Z</time>
      </trkpt>
      <trkpt lat="46.31275" lon="6.18774">
        <ele>387</ele>
        <time>2022-09-28T07:39:34Z</time>
      </trkpt>
      <trkpt lat="46.31279" lon="6.18779">
        <ele>387</ele>
        <time>2022-09-28T07:39:35Z</time>
      </trkpt>
      <trkpt lat="46.31284" lon="6.18782">
        <ele>387</ele>
        <time>2022-09-28T07:39:36Z</time>
      </trkpt>
      <trkpt lat="46.31288" lon="6.18787">
        <ele>387</ele>
        <time>2022-09-28T07:39:37Z</time>
      </trkpt>
      <trkpt lat="46.31291" lon="6.18789">
        <ele>387</ele>
        <time>2022-09-28T07:39:38Z</time>
      </trkpt>
      <trkpt lat="46.31296" lon="6.18792">
        <ele>387</ele>
        <time>2022-09-28T07:39:39Z</time>
      </trkpt>
      <trkpt lat="46.31299" lon="6.18798">
        <ele>387</ele>
        <time>2022-09-28T07:39:40Z</time>
      </trkpt>
      <trkpt lat="46.31302" lon="6.18802">
        <ele>387</ele>
        <time>2022-09-28T07:39:41Z</time>
      </trkpt>
      <trkpt lat="46.31306" lon="6.18807">
        <ele>386.9</ele>
        <time>2022-09-28T07:39:42Z</time>
      </trkpt>
      <trkpt lat="46.31309" lon="6.1881">
        <ele>386.9</ele>
        <time>2022-09-28T07:39:43Z</time>
      </trkpt>
      <trkpt lat="46.31312" lon="6.18813">
        <ele>386.9</ele>
        <time>2022-09-28T07:39:44Z</time>
      </trkpt>
      <trkpt lat="46.31314" lon="6.18816">
        <ele>386.9</ele>
        <time>2022-09-28T07:39:45Z</time>
      </trkpt>
      <trkpt lat="46.31316" lon="6.18819">
        <ele>386.9</ele>
        <time>2022-09-28T07:39:46Z</time>
      </trkpt>
      <trkpt lat="46.31319" lon="6.18822">
        <ele>386.9</ele>
        <time>2022-09-28T07:39:47Z</time>
      </trkpt>
      <trkpt lat="46.31322" lon="6.18826">
        <ele>386.9</ele>
        <time>2022-09-28T07:39:48Z</time>
      </trkpt>
      <trkpt lat="46.31325" lon="6.18832">
        <ele>386.9</ele>
        <time>2022-09-28T07:39:49Z</time>
      </trkpt>
      <trkpt lat="46.31328" lon="6.18837">
        <ele>386.8</ele>
        <time>2022-09-28T07:39:50Z</time>
      </trkpt>
      <trkpt lat="46.31333" lon="6.18842">
        <ele>386.8</ele>
        <time>2022-09-28T07:39:51Z</time>
      </trkpt>
      <trkpt lat="46.31336" lon="6.18847">
        <ele>386.7</ele>
        <time>2022-09-28T07:39:52Z</time>
      </trkpt>
      <trkpt lat="46.3134" lon="6.18853">
        <ele>386.7</ele>
        <time>2022-09-28T07:39:53Z</time>
      </trkpt>
      <trkpt lat="46.31343" lon="6.18859">
        <ele>386.6</ele>
        <time>2022-09-28T07:39:54Z</time>
      </trkpt>
      <trkpt lat="46.31346" lon="6.18865">
        <ele>386.5</ele>
        <time>2022-09-28T07:39:55Z</time>
      </trkpt>
      <trkpt lat="46.3135" lon="6.1887">
        <ele>386.5</ele>
        <time>2022-09-28T07:39:56Z</time>
      </trkpt>
      <trkpt lat="46.31354" lon="6.18877">
        <ele>386.4</ele>
        <time>2022-09-28T07:39:57Z</time>
      </trkpt>
      <trkpt lat="46.31357" lon="6.18882">
        <ele>386.4</ele>
        <time>2022-09-28T07:39:58Z</time>
      </trkpt>
      <trkpt lat="46.31361" lon="6.1889">
        <ele>386.3</ele>
        <time>2022-09-28T07:39:59Z</time>
      </trkpt>
      <trkpt lat="46.31365" lon="6.18896">
        <ele>386.2</ele>
        <time>2022-09-28T07:40:00Z</time>
      </trkpt>
      <trkpt lat="46.31369" lon="6.18903">
        <ele>386.1</ele>
        <time>2022-09-28T07:40:01Z</time>
      </trkpt>
      <trkpt lat="46.31373" lon="6.18909">
        <ele>386.1</ele>
        <time>2022-09-28T07:40:02Z</time>
      </trkpt>
      <trkpt lat="46.31377" lon="6.18916">
        <ele>385.9</ele>
        <time>2022-09-28T07:40:03Z</time>
      </trkpt>
      <trkpt lat="46.3138" lon="6.18923">
        <ele>385.8</ele>
        <time>2022-09-28T07:40:04Z</time>
      </trkpt>
      <trkpt lat="46.31384" lon="6.18929">
        <ele>385.7</ele>
        <time>2022-09-28T07:40:05Z</time>
      </trkpt>
      <trkpt lat="46.31388" lon="6.18936">
        <ele>385.6</ele>
        <time>2022-09-28T07:40:06Z</time>
      </trkpt>
      <trkpt lat="46.31393" lon="6.18942">
        <ele>385.4</ele>
        <time>2022-09-28T07:40:07Z</time>
      </trkpt>
      <trkpt lat="46.31396" lon="6.18949">
        <ele>385.3</ele>
        <time>2022-09-28T07:40:08Z</time>
      </trkpt>
      <trkpt lat="46.31401" lon="6.18956">
        <ele>385.2</ele>
        <time>2022-09-28T07:40:09Z</time>
      </trkpt>
      <trkpt lat="46.31405" lon="6.18963">
        <ele>385</ele>
        <time>2022-09-28T07:40:10Z</time>
      </trkpt>
      <trkpt lat="46.31408" lon="6.1897">
        <ele>384.9</ele>
        <time>2022-09-28T07:40:11Z</time>
      </trkpt>
      <trkpt lat="46.31412" lon="6.18977">
        <ele>384.7</ele>
        <time>2022-09-28T07:40:12Z</time>
      </trkpt>
      <trkpt lat="46.31416" lon="6.18984">
        <ele>384.5</ele>
        <time>2022-09-28T07:40:13Z</time>
      </trkpt>
      <trkpt lat="46.3142" lon="6.18991">
        <ele>384.4</ele>
        <time>2022-09-28T07:40:14Z</time>
      </trkpt>
      <trkpt lat="46.31423" lon="6.18997">
        <ele>384.2</ele>
        <time>2022-09-28T07:40:15Z</time>
      </trkpt>
      <trkpt lat="46.31428" lon="6.19005">
        <ele>384.1</ele>
        <time>2022-09-28T07:40:16Z</time>
      </trkpt>
      <trkpt lat="46.31431" lon="6.19012">
        <ele>383.9</ele>
        <time>2022-09-28T07:40:17Z</time>
      </trkpt>
      <trkpt lat="46.31435" lon="6.19019">
        <ele>383.9</ele>
        <time>2022-09-28T07:40:18Z</time>
      </trkpt>
      <trkpt lat="46.3144" lon="6.19027">
        <ele>383.8</ele>
        <time>2022-09-28T07:40:19Z</time>
      </trkpt>
      <trkpt lat="46.31444" lon="6.19033">
        <ele>383.6</ele>
        <time>2022-09-28T07:40:20Z</time>
      </trkpt>
      <trkpt lat="46.31448" lon="6.1904">
        <ele>383.5</ele>
        <time>2022-09-28T07:40:21Z</time>
      </trkpt>
      <trkpt lat="46.31453" lon="6.19047">
        <ele>383.3</ele>
        <time>2022-09-28T07:40:22Z</time>
      </trkpt>
      <trkpt lat="46.31457" lon="6.19055">
        <ele>383.1</ele>
        <time>2022-09-28T07:40:23Z</time>
      </trkpt>
      <trkpt lat="46.31461" lon="6.19063">
        <ele>382.9</ele>
        <time>2022-09-28T07:40:24Z</time>
      </trkpt>
      <trkpt lat="46.31465" lon="6.19071">
        <ele>382.7</ele>
        <time>2022-09-28T07:40:25Z</time>
      </trkpt>
      <trkpt lat="46.3147" lon="6.19079">
        <ele>382.6</ele>
        <time>2022-09-28T07:40:26Z</time>
      </trkpt>
      <trkpt lat="46.31474" lon="6.19087">
        <ele>382.4</ele>
        <time>2022-09-28T07:40:27Z</time>
      </trkpt>
      <trkpt lat="46.31477" lon="6.19094">
        <ele>382.2</ele>
        <time>2022-09-28T07:40:28Z</time>
      </trkpt>
      <trkpt lat="46.31482" lon="6.19102">
        <ele>382.1</ele>
        <time>2022-09-28T07:40:29Z</time>
      </trkpt>
      <trkpt lat="46.31485" lon="6.19109">
        <ele>381.9</ele>
        <time>2022-09-28T07:40:30Z</time>
      </trkpt>
      <trkpt lat="46.31489" lon="6.19116">
        <ele>381.8</ele>
        <time>2022-09-28T07:40:31Z</time>
      </trkpt>
      <trkpt lat="46.31493" lon="6.19123">
        <ele>381.7</ele>
        <time>2022-09-28T07:40:32Z</time>
      </trkpt>
      <trkpt lat="46.31498" lon="6.19131">
        <ele>381.6</ele>
        <time>2022-09-28T07:40:33Z</time>
      </trkpt>
      <trkpt lat="46.31501" lon="6.19138">
        <ele>381.6</ele>
        <time>2022-09-28T07:40:34Z</time>
      </trkpt>
      <trkpt lat="46.31505" lon="6.19144">
        <ele>381.5</ele>
        <time>2022-09-28T07:40:35Z</time>
      </trkpt>
      <trkpt lat="46.31509" lon="6.19151">
        <ele>381.5</ele>
        <time>2022-09-28T07:40:36Z</time>
      </trkpt>
      <trkpt lat="46.31513" lon="6.19157">
        <ele>381.4</ele>
        <time>2022-09-28T07:40:37Z</time>
      </trkpt>
      <trkpt lat="46.31517" lon="6.19164">
        <ele>381.3</ele>
        <time>2022-09-28T07:40:38Z</time>
      </trkpt>
      <trkpt lat="46.31521" lon="6.1917">
        <ele>381.2</ele>
        <time>2022-09-28T07:40:39Z</time>
      </trkpt>
      <trkpt lat="46.31524" lon="6.19176">
        <ele>381.1</ele>
        <time>2022-09-28T07:40:40Z</time>
      </trkpt>
      <trkpt lat="46.31528" lon="6.19182">
        <ele>381</ele>
        <time>2022-09-28T07:40:41Z</time>
      </trkpt>
      <trkpt lat="46.31531" lon="6.1919">
        <ele>380.9</ele>
        <time>2022-09-28T07:40:42Z</time>
      </trkpt>
      <trkpt lat="46.31534" lon="6.19196">
        <ele>380.8</ele>
        <time>2022-09-28T07:40:43Z</time>
      </trkpt>
      <trkpt lat="46.31538" lon="6.19202">
        <ele>380.7</ele>
        <time>2022-09-28T07:40:44Z</time>
      </trkpt>
      <trkpt lat="46.31542" lon="6.19208">
        <ele>380.6</ele>
        <time>2022-09-28T07:40:45Z</time>
      </trkpt>
      <trkpt lat="46.31545" lon="6.19214">
        <ele>380.5</ele>
        <time>2022-09-28T07:40:46Z</time>
      </trkpt>
      <trkpt lat="46.31548" lon="6.19221">
        <ele>380.4</ele>
        <time>2022-09-28T07:40:47Z</time>
      </trkpt>
      <trkpt lat="46.31551" lon="6.19227">
        <ele>380.4</ele>
        <time>2022-09-28T07:40:48Z</time>
      </trkpt>
      <trkpt lat="46.31554" lon="6.19232">
        <ele>380.3</ele>
        <time>2022-09-28T07:40:49Z</time>
      </trkpt>
      <trkpt lat="46.31557" lon="6.19238">
        <ele>380.2</ele>
        <time>2022-09-28T07:40:50Z</time>
      </trkpt>
      <trkpt lat="46.3156" lon="6.19244">
        <ele>380.2</ele>
        <time>2022-09-28T07:40:51Z</time>
      </trkpt>
      <trkpt lat="46.31563" lon="6.1925">
        <ele>380.1</ele>
        <time>2022-09-28T07:40:52Z</time>
      </trkpt>
      <trkpt lat="46.31566" lon="6.19256">
        <ele>380.1</ele>
        <time>2022-09-28T07:40:53Z</time>
      </trkpt>
      <trkpt lat="46.3157" lon="6.19261">
        <ele>380</ele>
        <time>2022-09-28T07:40:54Z</time>
      </trkpt>
      <trkpt lat="46.31574" lon="6.19266">
        <ele>380</ele>
        <time>2022-09-28T07:40:55Z</time>
      </trkpt>
      <trkpt lat="46.31577" lon="6.19271">
        <ele>379.9</ele>
        <time>2022-09-28T07:40:56Z</time>
      </trkpt>
      <trkpt lat="46.31581" lon="6.19274">
        <ele>379.9</ele>
        <time>2022-09-28T07:40:57Z</time>
      </trkpt>
      <trkpt lat="46.31585" lon="6.19276">
        <ele>379.8</ele>
        <time>2022-09-28T07:40:58Z</time>
      </trkpt>
      <trkpt lat="46.31589" lon="6.19279">
        <ele>379.8</ele>
        <time>2022-09-28T07:40:59Z</time>
      </trkpt>
      <trkpt lat="46.31591" lon="6.19278">
        <ele>379.8</ele>
        <time>2022-09-28T07:41:00Z</time>
      </trkpt>
      <trkpt lat="46.31592" lon="6.19278">
        <ele>379.8</ele>
        <time>2022-09-28T07:41:01Z</time>
      </trkpt>
      <trkpt lat="46.31593" lon="6.1928">
        <ele>379.7</ele>
        <time>2022-09-28T07:41:02Z</time>
      </trkpt>
      <trkpt lat="46.31594" lon="6.19281">
        <ele>379.7</ele>
        <time>2022-09-28T07:41:03Z</time>
      </trkpt>
      <trkpt lat="46.31594" lon="6.19282">
        <ele>379.7</ele>
        <time>2022-09-28T07:41:04Z</time>
      </trkpt>
      <trkpt lat="46.31594" lon="6.19283">
        <ele>379.7</ele>
        <time>2022-09-28T07:41:05Z</time>
      </trkpt>
      <trkpt lat="46.31594" lon="6.19284">
        <ele>379.7</ele>
        <time>2022-09-28T07:41:06Z</time>
      </trkpt>
      <trkpt lat="46.31595" lon="6.19285">
        <ele>379.7</ele>
        <time>2022-09-28T07:41:07Z</time>
      </trkpt>
      <trkpt lat="46.31596" lon="6.19283">
        <ele>379.7</ele>
        <time>2022-09-28T07:41:08Z</time>
      </trkpt>
      <trkpt lat="46.31596" lon="6.19284">
        <ele>379.7</ele>
        <time>2022-09-28T07:41:09Z</time>
      </trkpt>
      <trkpt lat="46.31596" lon="6.19284">
        <ele>379.7</ele>
        <time>2022-09-28T07:41:10Z</time>
      </trkpt>
      <trkpt lat="46.31597" lon="6.19284">
        <ele>379.7</ele>
        <time>2022-09-28T07:41:11Z</time>
      </trkpt>
      <trkpt lat="46.31597" lon="6.19284">
        <ele>379.7</ele>
        <time>2022-09-28T07:41:12Z</time>
      </trkpt>
      <trkpt lat="46.31598" lon="6.19286">
        <ele>379.7</ele>
        <time>2022-09-28T07:41:13Z</time>
      </trkpt>
      <trkpt lat="46.31599" lon="6.19288">
        <ele>379.6</ele>
        <time>2022-09-28T07:41:14Z</time>
      </trkpt>
      <trkpt lat="46.316" lon="6.19289">
        <ele>379.6</ele>
        <time>2022-09-28T07:41:15Z</time>
      </trkpt>
      <trkpt lat="46.31602" lon="6.1929">
        <ele>379.6</ele>
        <time>2022-09-28T07:41:16Z</time>
      </trkpt>
      <trkpt lat="46.31603" lon="6.19291">
        <ele>379.6</ele>
        <time>2022-09-28T07:41:17Z</time>
      </trkpt>
      <trkpt lat="46.31604" lon="6.19292">
        <ele>379.6</ele>
        <time>2022-09-28T07:41:18Z</time>
      </trkpt>
      <trkpt lat="46.31605" lon="6.19292">
        <ele>379.6</ele>
        <time>2022-09-28T07:41:19Z</time>
      </trkpt>
      <trkpt lat="46.31607" lon="6.19293">
        <ele>379.6</ele>
        <time>2022-09-28T07:41:20Z</time>
      </trkpt>
      <trkpt lat="46.31608" lon="6.19294">
        <ele>379.5</ele>
        <time>2022-09-28T07:41:22Z</time>
      </trkpt>
      <trkpt lat="46.31609" lon="6.19295">
        <ele>379.5</ele>
        <time>2022-09-28T07:41:23Z</time>
      </trkpt>
      <trkpt lat="46.31613" lon="6.19307">
        <ele>379.4</ele>
        <time>2022-09-28T07:41:24Z</time>
      </trkpt>
      <trkpt lat="46.31615" lon="6.19309">
        <ele>379.4</ele>
        <time>2022-09-28T07:41:25Z</time>
      </trkpt>
      <trkpt lat="46.31617" lon="6.19311">
        <ele>379.4</ele>
        <time>2022-09-28T07:41:26Z</time>
      </trkpt>
      <trkpt lat="46.31619" lon="6.19314">
        <ele>379.4</ele>
        <time>2022-09-28T07:41:27Z</time>
      </trkpt>
      <trkpt lat="46.3162" lon="6.19314">
        <ele>379.4</ele>
        <time>2022-09-28T07:41:28Z</time>
      </trkpt>
      <trkpt lat="46.31621" lon="6.19315">
        <ele>379.3</ele>
        <time>2022-09-28T07:41:29Z</time>
      </trkpt>
      <trkpt lat="46.31621" lon="6.19315">
        <ele>379.3</ele>
        <time>2022-09-28T07:41:30Z</time>
      </trkpt>
      <trkpt lat="46.31622" lon="6.19315">
        <ele>379.3</ele>
        <time>2022-09-28T07:41:31Z</time>
      </trkpt>
      <trkpt lat="46.31622" lon="6.19315">
        <ele>379.3</ele>
        <time>2022-09-28T07:41:32Z</time>
      </trkpt>
      <trkpt lat="46.31623" lon="6.19316">
        <ele>379.3</ele>
        <time>2022-09-28T07:41:33Z</time>
      </trkpt>
      <trkpt lat="46.31624" lon="6.19316">
        <ele>379.3</ele>
        <time>2022-09-28T07:41:34Z</time>
      </trkpt>
      <trkpt lat="46.31625" lon="6.19316">
        <ele>379.3</ele>
        <time>2022-09-28T07:41:35Z</time>
      </trkpt>
      <trkpt lat="46.31625" lon="6.19316">
        <ele>379.3</ele>
        <time>2022-09-28T07:41:36Z</time>
      </trkpt>
      <trkpt lat="46.31625" lon="6.19319">
        <ele>379.3</ele>
        <time>2022-09-28T07:41:37Z</time>
      </trkpt>
      <trkpt lat="46.31625" lon="6.19321">
        <ele>379.3</ele>
        <time>2022-09-28T07:41:38Z</time>
      </trkpt>
      <trkpt lat="46.31626" lon="6.19325">
        <ele>379.3</ele>
        <time>2022-09-28T07:41:39Z</time>
      </trkpt>
      <trkpt lat="46.31625" lon="6.19327">
        <ele>379.2</ele>
        <time>2022-09-28T07:41:40Z</time>
      </trkpt>
      <trkpt lat="46.31625" lon="6.1933">
        <ele>379.2</ele>
        <time>2022-09-28T07:41:41Z</time>
      </trkpt>
      <trkpt lat="46.31625" lon="6.19331">
        <ele>379.2</ele>
        <time>2022-09-28T07:41:42Z</time>
      </trkpt>
      <trkpt lat="46.31625" lon="6.19331">
        <ele>379.2</ele>
        <time>2022-09-28T07:41:43Z</time>
      </trkpt>
      <trkpt lat="46.31625" lon="6.19331">
        <ele>379.2</ele>
        <time>2022-09-28T07:41:44Z</time>
      </trkpt>
      <trkpt lat="46.31626" lon="6.19332">
        <ele>379.2</ele>
        <time>2022-09-28T07:41:45Z</time>
      </trkpt>
      <trkpt lat="46.31626" lon="6.19332">
        <ele>379.2</ele>
        <time>2022-09-28T07:41:46Z</time>
      </trkpt>
      <trkpt lat="46.31626" lon="6.19332">
        <ele>379.2</ele>
        <time>2022-09-28T07:41:47Z</time>
      </trkpt>
      <trkpt lat="46.31626" lon="6.19333">
        <ele>379.2</ele>
        <time>2022-09-28T07:41:48Z</time>
      </trkpt>
      <trkpt lat="46.31627" lon="6.19333">
        <ele>379.2</ele>
        <time>2022-09-28T07:41:49Z</time>
      </trkpt>
      <trkpt lat="46.31627" lon="6.19333">
        <ele>379.2</ele>
        <time>2022-09-28T07:50:17Z</time>
      </trkpt>
      <trkpt lat="46.31627" lon="6.19333">
        <ele>379.2</ele>
        <time>2022-09-28T07:50:18Z</time>
      </trkpt>
      <trkpt lat="46.31627" lon="6.19334">
        <ele>379.2</ele>
        <time>2022-09-28T07:50:19Z</time>
      </trkpt>
      <trkpt lat="46.31628" lon="6.19334">
        <ele>379.2</ele>
        <time>2022-09-28T07:50:20Z</time>
      </trkpt>
      <trkpt lat="46.31628" lon="6.19334">
        <ele>379.2</ele>
        <time>2022-09-28T07:50:21Z</time>
      </trkpt>
      <trkpt lat="46.31628" lon="6.19335">
        <ele>379.2</ele>
        <time>2022-09-28T07:50:22Z</time>
      </trkpt>
      <trkpt lat="46.31628" lon="6.19335">
        <ele>379.2</ele>
        <time>2022-09-28T07:50:23Z</time>
      </trkpt>
      <trkpt lat="46.31629" lon="6.19335">
        <ele>379.2</ele>
        <time>2022-09-28T07:50:24Z</time>
      </trkpt>
      <trkpt lat="46.31629" lon="6.19335">
        <ele>379.2</ele>
        <time>2022-09-28T07:50:25Z</time>
      </trkpt>
      <trkpt lat="46.31629" lon="6.19336">
        <ele>379.2</ele>
        <time>2022-09-28T07:50:26Z</time>
      </trkpt>
      <trkpt lat="46.31629" lon="6.19336">
        <ele>379.2</ele>
        <time>2022-09-28T07:50:27Z</time>
      </trkpt>
      <trkpt lat="46.3163" lon="6.19336">
        <ele>379.2</ele>
        <time>2022-09-28T07:50:28Z</time>
      </trkpt>
      <trkpt lat="46.3163" lon="6.19337">
        <ele>379.2</ele>
        <time>2022-09-28T07:51:40Z</time>
      </trkpt>
      <trkpt lat="46.3163" lon="6.19337">
        <ele>379.2</ele>
        <time>2022-09-28T07:51:41Z</time>
      </trkpt>
      <trkpt lat="46.3163" lon="6.19337">
        <ele>379.2</ele>
        <time>2022-09-28T07:51:42Z</time>
      </trkpt>
      <trkpt lat="46.31631" lon="6.19337">
        <ele>379.2</ele>
        <time>2022-09-28T07:51:43Z</time>
      </trkpt>
      <trkpt lat="46.31631" lon="6.19336">
        <ele>379.1</ele>
        <time>2022-09-28T07:51:44Z</time>
      </trkpt>
      <trkpt lat="46.31631" lon="6.19337">
        <ele>379.1</ele>
        <time>2022-09-28T07:51:45Z</time>
      </trkpt>
      <trkpt lat="46.31632" lon="6.19337">
        <ele>379.1</ele>
        <time>2022-09-28T07:51:46Z</time>
      </trkpt>
      <trkpt lat="46.31633" lon="6.1934">
        <ele>379.1</ele>
        <time>2022-09-28T07:51:47Z</time>
      </trkpt>
      <trkpt lat="46.31636" lon="6.19343">
        <ele>379.1</ele>
        <time>2022-09-28T07:51:48Z</time>
      </trkpt>
      <trkpt lat="46.31637" lon="6.19345">
        <ele>379.1</ele>
        <time>2022-09-28T07:51:49Z</time>
      </trkpt>
      <trkpt lat="46.31638" lon="6.19345">
        <ele>379.1</ele>
        <time>2022-09-28T07:51:50Z</time>
      </trkpt>
      <trkpt lat="46.31639" lon="6.19346">
        <ele>379.1</ele>
        <time>2022-09-28T07:51:51Z</time>
      </trkpt>
      <trkpt lat="46.3164" lon="6.19346">
        <ele>379.1</ele>
        <time>2022-09-28T07:51:52Z</time>
      </trkpt>
      <trkpt lat="46.31639" lon="6.19346">
        <ele>379.1</ele>
        <time>2022-09-28T07:51:53Z</time>
      </trkpt>
      <trkpt lat="46.3164" lon="6.19347">
        <ele>379.1</ele>
        <time>2022-09-28T07:51:54Z</time>
      </trkpt>
      <trkpt lat="46.31642" lon="6.19349">
        <ele>379</ele>
        <time>2022-09-28T07:51:55Z</time>
      </trkpt>
      <trkpt lat="46.31645" lon="6.1935">
        <ele>379</ele>
        <time>2022-09-28T07:51:56Z</time>
      </trkpt>
      <trkpt lat="46.31646" lon="6.19351">
        <ele>379</ele>
        <time>2022-09-28T07:51:57Z</time>
      </trkpt>
      <trkpt lat="46.31649" lon="6.19353">
        <ele>379</ele>
        <time>2022-09-28T07:51:58Z</time>
      </trkpt>
      <trkpt lat="46.3165" lon="6.19354">
        <ele>379</ele>
        <time>2022-09-28T07:51:59Z</time>
      </trkpt>
      <trkpt lat="46.31653" lon="6.19355">
        <ele>379</ele>
        <time>2022-09-28T07:52:00Z</time>
      </trkpt>
      <trkpt lat="46.31656" lon="6.19355">
        <ele>379</ele>
        <time>2022-09-28T07:52:01Z</time>
      </trkpt>
      <trkpt lat="46.3166" lon="6.19356">
        <ele>379</ele>
        <time>2022-09-28T07:52:02Z</time>
      </trkpt>
      <trkpt lat="46.31664" lon="6.19357">
        <ele>379.1</ele>
        <time>2022-09-28T07:52:03Z</time>
      </trkpt>
      <trkpt lat="46.31668" lon="6.19358">
        <ele>379.1</ele>
        <time>2022-09-28T07:52:04Z</time>
      </trkpt>
      <trkpt lat="46.31672" lon="6.19361">
        <ele>379.1</ele>
        <time>2022-09-28T07:52:05Z</time>
      </trkpt>
      <trkpt lat="46.31676" lon="6.19363">
        <ele>379.1</ele>
        <time>2022-09-28T07:52:06Z</time>
      </trkpt>
      <trkpt lat="46.31678" lon="6.19367">
        <ele>379.1</ele>
        <time>2022-09-28T07:52:07Z</time>
      </trkpt>
      <trkpt lat="46.3168" lon="6.19368">
        <ele>379.1</ele>
        <time>2022-09-28T07:52:08Z</time>
      </trkpt>
      <trkpt lat="46.31682" lon="6.19371">
        <ele>379.1</ele>
        <time>2022-09-28T07:52:09Z</time>
      </trkpt>
      <trkpt lat="46.31686" lon="6.19374">
        <ele>379.1</ele>
        <time>2022-09-28T07:52:10Z</time>
      </trkpt>
      <trkpt lat="46.31689" lon="6.19376">
        <ele>379.1</ele>
        <time>2022-09-28T07:52:11Z</time>
      </trkpt>
      <trkpt lat="46.31692" lon="6.19378">
        <ele>379.2</ele>
        <time>2022-09-28T07:52:12Z</time>
      </trkpt>
      <trkpt lat="46.31696" lon="6.19379">
        <ele>379.2</ele>
        <time>2022-09-28T07:52:13Z</time>
      </trkpt>
      <trkpt lat="46.317" lon="6.19382">
        <ele>379.3</ele>
        <time>2022-09-28T07:52:14Z</time>
      </trkpt>
      <trkpt lat="46.31703" lon="6.19385">
        <ele>379.3</ele>
        <time>2022-09-28T07:52:15Z</time>
      </trkpt>
      <trkpt lat="46.31706" lon="6.19389">
        <ele>379.3</ele>
        <time>2022-09-28T07:52:16Z</time>
      </trkpt>
      <trkpt lat="46.31709" lon="6.19394">
        <ele>379.4</ele>
        <time>2022-09-28T07:52:17Z</time>
      </trkpt>
      <trkpt lat="46.31713" lon="6.19398">
        <ele>379.5</ele>
        <time>2022-09-28T07:52:18Z</time>
      </trkpt>
      <trkpt lat="46.31715" lon="6.19402">
        <ele>379.5</ele>
        <time>2022-09-28T07:52:19Z</time>
      </trkpt>
      <trkpt lat="46.31719" lon="6.19406">
        <ele>379.6</ele>
        <time>2022-09-28T07:52:20Z</time>
      </trkpt>
      <trkpt lat="46.31723" lon="6.1941">
        <ele>379.7</ele>
        <time>2022-09-28T07:52:21Z</time>
      </trkpt>
      <trkpt lat="46.31727" lon="6.19414">
        <ele>379.7</ele>
        <time>2022-09-28T07:52:22Z</time>
      </trkpt>
      <trkpt lat="46.3173" lon="6.19418">
        <ele>379.8</ele>
        <time>2022-09-28T07:52:23Z</time>
      </trkpt>
      <trkpt lat="46.31733" lon="6.1942">
        <ele>379.8</ele>
        <time>2022-09-28T07:52:24Z</time>
      </trkpt>
      <trkpt lat="46.31737" lon="6.19422">
        <ele>379.9</ele>
        <time>2022-09-28T07:52:25Z</time>
      </trkpt>
      <trkpt lat="46.31741" lon="6.19424">
        <ele>379.9</ele>
        <time>2022-09-28T07:52:26Z</time>
      </trkpt>
      <trkpt lat="46.31744" lon="6.19426">
        <ele>380</ele>
        <time>2022-09-28T07:52:27Z</time>
      </trkpt>
      <trkpt lat="46.31747" lon="6.19427">
        <ele>380.1</ele>
        <time>2022-09-28T07:52:28Z</time>
      </trkpt>
      <trkpt lat="46.31751" lon="6.19429">
        <ele>380.1</ele>
        <time>2022-09-28T07:52:29Z</time>
      </trkpt>
      <trkpt lat="46.31755" lon="6.19431">
        <ele>380.2</ele>
        <time>2022-09-28T07:52:30Z</time>
      </trkpt>
      <trkpt lat="46.31758" lon="6.19434">
        <ele>380.3</ele>
        <time>2022-09-28T07:52:31Z</time>
      </trkpt>
      <trkpt lat="46.31761" lon="6.19437">
        <ele>380.4</ele>
        <time>2022-09-28T07:52:32Z</time>
      </trkpt>
      <trkpt lat="46.31764" lon="6.19438">
        <ele>380.5</ele>
        <time>2022-09-28T07:52:33Z</time>
      </trkpt>
      <trkpt lat="46.31767" lon="6.1944">
        <ele>380.6</ele>
        <time>2022-09-28T07:52:34Z</time>
      </trkpt>
      <trkpt lat="46.31771" lon="6.19442">
        <ele>380.7</ele>
        <time>2022-09-28T07:52:35Z</time>
      </trkpt>
      <trkpt lat="46.31775" lon="6.19444">
        <ele>380.8</ele>
        <time>2022-09-28T07:52:36Z</time>
      </trkpt>
      <trkpt lat="46.31778" lon="6.19446">
        <ele>380.9</ele>
        <time>2022-09-28T07:52:37Z</time>
      </trkpt>
      <trkpt lat="46.31781" lon="6.19447">
        <ele>380.9</ele>
        <time>2022-09-28T07:52:38Z</time>
      </trkpt>
      <trkpt lat="46.31784" lon="6.19449">
        <ele>381</ele>
        <time>2022-09-28T07:52:39Z</time>
      </trkpt>
      <trkpt lat="46.31788" lon="6.19451">
        <ele>381.1</ele>
        <time>2022-09-28T07:52:40Z</time>
      </trkpt>
      <trkpt lat="46.3179" lon="6.19453">
        <ele>381.2</ele>
        <time>2022-09-28T07:52:41Z</time>
      </trkpt>
      <trkpt lat="46.31793" lon="6.19455">
        <ele>381.3</ele>
        <time>2022-09-28T07:52:42Z</time>
      </trkpt>
      <trkpt lat="46.31797" lon="6.19456">
        <ele>381.4</ele>
        <time>2022-09-28T07:52:43Z</time>
      </trkpt>
      <trkpt lat="46.31801" lon="6.19457">
        <ele>381.5</ele>
        <time>2022-09-28T07:52:44Z</time>
      </trkpt>
      <trkpt lat="46.31804" lon="6.19459">
        <ele>381.6</ele>
        <time>2022-09-28T07:52:45Z</time>
      </trkpt>
      <trkpt lat="46.31807" lon="6.1946">
        <ele>381.7</ele>
        <time>2022-09-28T07:52:46Z</time>
      </trkpt>
      <trkpt lat="46.3181" lon="6.19462">
        <ele>381.8</ele>
        <time>2022-09-28T07:52:47Z</time>
      </trkpt>
      <trkpt lat="46.31813" lon="6.19465">
        <ele>381.9</ele>
        <time>2022-09-28T07:52:48Z</time>
      </trkpt>
      <trkpt lat="46.31816" lon="6.19467">
        <ele>382</ele>
        <time>2022-09-28T07:52:49Z</time>
      </trkpt>
      <trkpt lat="46.3182" lon="6.19468">
        <ele>382</ele>
        <time>2022-09-28T07:52:50Z</time>
      </trkpt>
      <trkpt lat="46.31823" lon="6.1947">
        <ele>382.1</ele>
        <time>2022-09-28T07:52:52Z</time>
      </trkpt>
      <trkpt lat="46.31827" lon="6.1947">
        <ele>382.2</ele>
        <time>2022-09-28T07:52:53Z</time>
      </trkpt>
      <trkpt lat="46.31831" lon="6.19473">
        <ele>382.3</ele>
        <time>2022-09-28T07:52:54Z</time>
      </trkpt>
      <trkpt lat="46.31834" lon="6.19475">
        <ele>382.4</ele>
        <time>2022-09-28T07:52:55Z</time>
      </trkpt>
      <trkpt lat="46.31837" lon="6.19477">
        <ele>382.4</ele>
        <time>2022-09-28T07:52:56Z</time>
      </trkpt>
      <trkpt lat="46.31841" lon="6.19479">
        <ele>382.5</ele>
        <time>2022-09-28T07:52:57Z</time>
      </trkpt>
      <trkpt lat="46.31844" lon="6.19481">
        <ele>382.5</ele>
        <time>2022-09-28T07:52:58Z</time>
      </trkpt>
      <trkpt lat="46.31848" lon="6.19483">
        <ele>382.6</ele>
        <time>2022-09-28T07:52:59Z</time>
      </trkpt>
      <trkpt lat="46.31851" lon="6.19485">
        <ele>382.7</ele>
        <time>2022-09-28T07:53:00Z</time>
      </trkpt>
      <trkpt lat="46.31855" lon="6.19487">
        <ele>382.7</ele>
        <time>2022-09-28T07:53:01Z</time>
      </trkpt>
      <trkpt lat="46.31858" lon="6.19489">
        <ele>382.8</ele>
        <time>2022-09-28T07:53:02Z</time>
      </trkpt>
      <trkpt lat="46.31862" lon="6.1949">
        <ele>382.8</ele>
        <time>2022-09-28T07:53:03Z</time>
      </trkpt>
      <trkpt lat="46.31865" lon="6.19492">
        <ele>382.9</ele>
        <time>2022-09-28T07:53:04Z</time>
      </trkpt>
      <trkpt lat="46.31869" lon="6.19494">
        <ele>382.9</ele>
        <time>2022-09-28T07:53:05Z</time>
      </trkpt>
      <trkpt lat="46.31872" lon="6.19496">
        <ele>383</ele>
        <time>2022-09-28T07:53:06Z</time>
      </trkpt>
      <trkpt lat="46.31876" lon="6.19498">
        <ele>383</ele>
        <time>2022-09-28T07:53:07Z</time>
      </trkpt>
      <trkpt lat="46.31879" lon="6.195">
        <ele>383.1</ele>
        <time>2022-09-28T07:53:08Z</time>
      </trkpt>
      <trkpt lat="46.31883" lon="6.19502">
        <ele>383.1</ele>
        <time>2022-09-28T07:53:09Z</time>
      </trkpt>
      <trkpt lat="46.31887" lon="6.19504">
        <ele>383.2</ele>
        <time>2022-09-28T07:53:10Z</time>
      </trkpt>
      <trkpt lat="46.3189" lon="6.19506">
        <ele>383.2</ele>
        <time>2022-09-28T07:53:11Z</time>
      </trkpt>
      <trkpt lat="46.31894" lon="6.19508">
        <ele>383.3</ele>
        <time>2022-09-28T07:53:12Z</time>
      </trkpt>
      <trkpt lat="46.31899" lon="6.19511">
        <ele>383.3</ele>
        <time>2022-09-28T07:53:13Z</time>
      </trkpt>
      <trkpt lat="46.31903" lon="6.19513">
        <ele>383.4</ele>
        <time>2022-09-28T07:53:14Z</time>
      </trkpt>
      <trkpt lat="46.31906" lon="6.19515">
        <ele>383.4</ele>
        <time>2022-09-28T07:53:15Z</time>
      </trkpt>
      <trkpt lat="46.31909" lon="6.19518">
        <ele>383.5</ele>
        <time>2022-09-28T07:53:16Z</time>
      </trkpt>
      <trkpt lat="46.31913" lon="6.1952">
        <ele>383.5</ele>
        <time>2022-09-28T07:53:17Z</time>
      </trkpt>
      <trkpt lat="46.31921" lon="6.19524">
        <ele>383.6</ele>
        <time>2022-09-28T07:53:18Z</time>
      </trkpt>
      <trkpt lat="46.31925" lon="6.19527">
        <ele>383.6</ele>
        <time>2022-09-28T07:53:19Z</time>
      </trkpt>
      <trkpt lat="46.31929" lon="6.19529">
        <ele>383.7</ele>
        <time>2022-09-28T07:53:20Z</time>
      </trkpt>
      <trkpt lat="46.31933" lon="6.19532">
        <ele>383.7</ele>
        <time>2022-09-28T07:53:21Z</time>
      </trkpt>
      <trkpt lat="46.31937" lon="6.19534">
        <ele>383.8</ele>
        <time>2022-09-28T07:53:22Z</time>
      </trkpt>
      <trkpt lat="46.31941" lon="6.19537">
        <ele>383.8</ele>
        <time>2022-09-28T07:53:23Z</time>
      </trkpt>
      <trkpt lat="46.31945" lon="6.19539">
        <ele>383.9</ele>
        <time>2022-09-28T07:53:24Z</time>
      </trkpt>
      <trkpt lat="46.31949" lon="6.19541">
        <ele>383.9</ele>
        <time>2022-09-28T07:53:25Z</time>
      </trkpt>
      <trkpt lat="46.31954" lon="6.19543">
        <ele>383.9</ele>
        <time>2022-09-28T07:53:26Z</time>
      </trkpt>
      <trkpt lat="46.31957" lon="6.19545">
        <ele>384</ele>
        <time>2022-09-28T07:53:27Z</time>
      </trkpt>
      <trkpt lat="46.31961" lon="6.19548">
        <ele>384</ele>
        <time>2022-09-28T07:53:28Z</time>
      </trkpt>
      <trkpt lat="46.31965" lon="6.1955">
        <ele>384</ele>
        <time>2022-09-28T07:53:29Z</time>
      </trkpt>
      <trkpt lat="46.31969" lon="6.19552">
        <ele>384</ele>
        <time>2022-09-28T07:53:30Z</time>
      </trkpt>
      <trkpt lat="46.31973" lon="6.19554">
        <ele>384.1</ele>
        <time>2022-09-28T07:53:31Z</time>
      </trkpt>
      <trkpt lat="46.31978" lon="6.19556">
        <ele>384.1</ele>
        <time>2022-09-28T07:53:32Z</time>
      </trkpt>
      <trkpt lat="46.31981" lon="6.19559">
        <ele>384.1</ele>
        <time>2022-09-28T07:53:33Z</time>
      </trkpt>
      <trkpt lat="46.31986" lon="6.19562">
        <ele>384.1</ele>
        <time>2022-09-28T07:53:34Z</time>
      </trkpt>
      <trkpt lat="46.3199" lon="6.19565">
        <ele>384.2</ele>
        <time>2022-09-28T07:53:35Z</time>
      </trkpt>
      <trkpt lat="46.31994" lon="6.19567">
        <ele>384.2</ele>
        <time>2022-09-28T07:53:36Z</time>
      </trkpt>
      <trkpt lat="46.31998" lon="6.19569">
        <ele>384.2</ele>
        <time>2022-09-28T07:53:37Z</time>
      </trkpt>
      <trkpt lat="46.32003" lon="6.19572">
        <ele>384.2</ele>
        <time>2022-09-28T07:53:38Z</time>
      </trkpt>
      <trkpt lat="46.32007" lon="6.19575">
        <ele>384.3</ele>
        <time>2022-09-28T07:53:39Z</time>
      </trkpt>
      <trkpt lat="46.32012" lon="6.19577">
        <ele>384.3</ele>
        <time>2022-09-28T07:53:40Z</time>
      </trkpt>
      <trkpt lat="46.32016" lon="6.19579">
        <ele>384.3</ele>
        <time>2022-09-28T07:53:41Z</time>
      </trkpt>
      <trkpt lat="46.3202" lon="6.19582">
        <ele>384.3</ele>
        <time>2022-09-28T07:53:42Z</time>
      </trkpt>
      <trkpt lat="46.32024" lon="6.19585">
        <ele>384.4</ele>
        <time>2022-09-28T07:53:43Z</time>
      </trkpt>
      <trkpt lat="46.32029" lon="6.19587">
        <ele>384.4</ele>
        <time>2022-09-28T07:53:44Z</time>
      </trkpt>
      <trkpt lat="46.32033" lon="6.19589">
        <ele>384.4</ele>
        <time>2022-09-28T07:53:45Z</time>
      </trkpt>
      <trkpt lat="46.32037" lon="6.19592">
        <ele>384.5</ele>
        <time>2022-09-28T07:53:46Z</time>
      </trkpt>
      <trkpt lat="46.32042" lon="6.19593">
        <ele>384.5</ele>
        <time>2022-09-28T07:53:47Z</time>
      </trkpt>
      <trkpt lat="46.32046" lon="6.19595">
        <ele>384.5</ele>
        <time>2022-09-28T07:53:48Z</time>
      </trkpt>
      <trkpt lat="46.3205" lon="6.19598">
        <ele>384.5</ele>
        <time>2022-09-28T07:53:49Z</time>
      </trkpt>
      <trkpt lat="46.32054" lon="6.19602">
        <ele>384.5</ele>
        <time>2022-09-28T07:53:50Z</time>
      </trkpt>
      <trkpt lat="46.32059" lon="6.19604">
        <ele>384.5</ele>
        <time>2022-09-28T07:53:51Z</time>
      </trkpt>
      <trkpt lat="46.32064" lon="6.19606">
        <ele>384.6</ele>
        <time>2022-09-28T07:53:52Z</time>
      </trkpt>
      <trkpt lat="46.32068" lon="6.19609">
        <ele>384.6</ele>
        <time>2022-09-28T07:53:53Z</time>
      </trkpt>
      <trkpt lat="46.32071" lon="6.19611">
        <ele>384.6</ele>
        <time>2022-09-28T07:53:54Z</time>
      </trkpt>
      <trkpt lat="46.32076" lon="6.19613">
        <ele>384.6</ele>
        <time>2022-09-28T07:53:55Z</time>
      </trkpt>
      <trkpt lat="46.3208" lon="6.19614">
        <ele>384.6</ele>
        <time>2022-09-28T07:53:56Z</time>
      </trkpt>
      <trkpt lat="46.32083" lon="6.19617">
        <ele>384.6</ele>
        <time>2022-09-28T07:53:57Z</time>
      </trkpt>
      <trkpt lat="46.32088" lon="6.19619">
        <ele>384.6</ele>
        <time>2022-09-28T07:53:58Z</time>
      </trkpt>
      <trkpt lat="46.32092" lon="6.19621">
        <ele>384.7</ele>
        <time>2022-09-28T07:53:59Z</time>
      </trkpt>
      <trkpt lat="46.32096" lon="6.19624">
        <ele>384.7</ele>
        <time>2022-09-28T07:54:00Z</time>
      </trkpt>
      <trkpt lat="46.321" lon="6.19626">
        <ele>384.7</ele>
        <time>2022-09-28T07:54:01Z</time>
      </trkpt>
      <trkpt lat="46.32105" lon="6.19628">
        <ele>384.7</ele>
        <time>2022-09-28T07:54:02Z</time>
      </trkpt>
      <trkpt lat="46.3211" lon="6.1963">
        <ele>384.7</ele>
        <time>2022-09-28T07:54:03Z</time>
      </trkpt>
      <trkpt lat="46.32114" lon="6.19633">
        <ele>384.7</ele>
        <time>2022-09-28T07:54:04Z</time>
      </trkpt>
      <trkpt lat="46.32119" lon="6.19635">
        <ele>384.7</ele>
        <time>2022-09-28T07:54:05Z</time>
      </trkpt>
      <trkpt lat="46.32123" lon="6.19638">
        <ele>384.7</ele>
        <time>2022-09-28T07:54:06Z</time>
      </trkpt>
      <trkpt lat="46.32128" lon="6.1964">
        <ele>384.7</ele>
        <time>2022-09-28T07:54:07Z</time>
      </trkpt>
      <trkpt lat="46.32133" lon="6.19642">
        <ele>384.7</ele>
        <time>2022-09-28T07:54:08Z</time>
      </trkpt>
      <trkpt lat="46.32138" lon="6.19644">
        <ele>384.6</ele>
        <time>2022-09-28T07:54:09Z</time>
      </trkpt>
      <trkpt lat="46.32142" lon="6.19647">
        <ele>384.6</ele>
        <time>2022-09-28T07:54:10Z</time>
      </trkpt>
      <trkpt lat="46.32146" lon="6.1965">
        <ele>384.5</ele>
        <time>2022-09-28T07:54:11Z</time>
      </trkpt>
      <trkpt lat="46.32151" lon="6.19651">
        <ele>384.5</ele>
        <time>2022-09-28T07:54:12Z</time>
      </trkpt>
      <trkpt lat="46.32209" lon="6.19679">
        <ele>384.4</ele>
        <time>2022-09-28T07:54:23Z</time>
      </trkpt>
      <trkpt lat="46.32211" lon="6.19683">
        <ele>384.4</ele>
        <time>2022-09-28T07:54:24Z</time>
      </trkpt>
      <trkpt lat="46.32215" lon="6.1969">
        <ele>384.4</ele>
        <time>2022-09-28T07:54:25Z</time>
      </trkpt>
      <trkpt lat="46.3222" lon="6.19692">
        <ele>384.5</ele>
        <time>2022-09-28T07:54:26Z</time>
      </trkpt>
      <trkpt lat="46.32224" lon="6.19695">
        <ele>384.5</ele>
        <time>2022-09-28T07:54:27Z</time>
      </trkpt>
      <trkpt lat="46.3223" lon="6.19698">
        <ele>384.5</ele>
        <time>2022-09-28T07:54:28Z</time>
      </trkpt>
      <trkpt lat="46.32234" lon="6.19701">
        <ele>384.5</ele>
        <time>2022-09-28T07:54:29Z</time>
      </trkpt>
      <trkpt lat="46.32238" lon="6.19704">
        <ele>384.5</ele>
        <time>2022-09-28T07:54:30Z</time>
      </trkpt>
      <trkpt lat="46.32242" lon="6.19706">
        <ele>384.5</ele>
        <time>2022-09-28T07:54:31Z</time>
      </trkpt>
      <trkpt lat="46.32247" lon="6.19709">
        <ele>384.5</ele>
        <time>2022-09-28T07:54:32Z</time>
      </trkpt>
      <trkpt lat="46.32251" lon="6.19712">
        <ele>384.5</ele>
        <time>2022-09-28T07:54:33Z</time>
      </trkpt>
      <trkpt lat="46.32255" lon="6.19714">
        <ele>384.5</ele>
        <time>2022-09-28T07:54:34Z</time>
      </trkpt>
      <trkpt lat="46.3226" lon="6.19717">
        <ele>384.5</ele>
        <time>2022-09-28T07:54:35Z</time>
      </trkpt>
      <trkpt lat="46.32264" lon="6.1972">
        <ele>384.5</ele>
        <time>2022-09-28T07:54:36Z</time>
      </trkpt>
      <trkpt lat="46.3227" lon="6.19723">
        <ele>384.4</ele>
        <time>2022-09-28T07:54:37Z</time>
      </trkpt>
      <trkpt lat="46.32274" lon="6.19725">
        <ele>384.4</ele>
        <time>2022-09-28T07:54:38Z</time>
      </trkpt>
      <trkpt lat="46.32278" lon="6.19728">
        <ele>384.4</ele>
        <time>2022-09-28T07:54:39Z</time>
      </trkpt>
      <trkpt lat="46.32282" lon="6.19731">
        <ele>384.4</ele>
        <time>2022-09-28T07:54:40Z</time>
      </trkpt>
      <trkpt lat="46.32287" lon="6.19734">
        <ele>384.4</ele>
        <time>2022-09-28T07:54:41Z</time>
      </trkpt>
      <trkpt lat="46.32291" lon="6.19737">
        <ele>384.4</ele>
        <time>2022-09-28T07:54:42Z</time>
      </trkpt>
      <trkpt lat="46.32296" lon="6.19738">
        <ele>384.4</ele>
        <time>2022-09-28T07:54:43Z</time>
      </trkpt>
      <trkpt lat="46.323" lon="6.19742">
        <ele>384.4</ele>
        <time>2022-09-28T07:54:44Z</time>
      </trkpt>
      <trkpt lat="46.32305" lon="6.19744">
        <ele>384.4</ele>
        <time>2022-09-28T07:54:45Z</time>
      </trkpt>
      <trkpt lat="46.3231" lon="6.19747">
        <ele>384.4</ele>
        <time>2022-09-28T07:54:46Z</time>
      </trkpt>
      <trkpt lat="46.32315" lon="6.1975">
        <ele>384.4</ele>
        <time>2022-09-28T07:54:47Z</time>
      </trkpt>
      <trkpt lat="46.3232" lon="6.19752">
        <ele>384.3</ele>
        <time>2022-09-28T07:54:48Z</time>
      </trkpt>
      <trkpt lat="46.32325" lon="6.19754">
        <ele>384.3</ele>
        <time>2022-09-28T07:54:49Z</time>
      </trkpt>
      <trkpt lat="46.3233" lon="6.19757">
        <ele>384.3</ele>
        <time>2022-09-28T07:54:50Z</time>
      </trkpt>
      <trkpt lat="46.32335" lon="6.19759">
        <ele>384.3</ele>
        <time>2022-09-28T07:54:51Z</time>
      </trkpt>
      <trkpt lat="46.3234" lon="6.19761">
        <ele>384.3</ele>
        <time>2022-09-28T07:54:52Z</time>
      </trkpt>
      <trkpt lat="46.32345" lon="6.19765">
        <ele>384.2</ele>
        <time>2022-09-28T07:54:53Z</time>
      </trkpt>
      <trkpt lat="46.3235" lon="6.19768">
        <ele>384.2</ele>
        <time>2022-09-28T07:54:54Z</time>
      </trkpt>
      <trkpt lat="46.32357" lon="6.1977">
        <ele>384.2</ele>
        <time>2022-09-28T07:54:55Z</time>
      </trkpt>
      <trkpt lat="46.32362" lon="6.19773">
        <ele>384.2</ele>
        <time>2022-09-28T07:54:56Z</time>
      </trkpt>
      <trkpt lat="46.32367" lon="6.19776">
        <ele>384.1</ele>
        <time>2022-09-28T07:54:57Z</time>
      </trkpt>
      <trkpt lat="46.32371" lon="6.19778">
        <ele>384.1</ele>
        <time>2022-09-28T07:54:58Z</time>
      </trkpt>
      <trkpt lat="46.32376" lon="6.19781">
        <ele>384</ele>
        <time>2022-09-28T07:54:59Z</time>
      </trkpt>
      <trkpt lat="46.32381" lon="6.19784">
        <ele>384</ele>
        <time>2022-09-28T07:55:00Z</time>
      </trkpt>
      <trkpt lat="46.32387" lon="6.19787">
        <ele>383.9</ele>
        <time>2022-09-28T07:55:01Z</time>
      </trkpt>
      <trkpt lat="46.32393" lon="6.1979">
        <ele>383.8</ele>
        <time>2022-09-28T07:55:02Z</time>
      </trkpt>
      <trkpt lat="46.32398" lon="6.19793">
        <ele>383.8</ele>
        <time>2022-09-28T07:55:03Z</time>
      </trkpt>
      <trkpt lat="46.32405" lon="6.19796">
        <ele>383.7</ele>
        <time>2022-09-28T07:55:04Z</time>
      </trkpt>
      <trkpt lat="46.3241" lon="6.19798">
        <ele>383.6</ele>
        <time>2022-09-28T07:55:05Z</time>
      </trkpt>
      <trkpt lat="46.32416" lon="6.19802">
        <ele>383.6</ele>
        <time>2022-09-28T07:55:06Z</time>
      </trkpt>
      <trkpt lat="46.32423" lon="6.19803">
        <ele>383.5</ele>
        <time>2022-09-28T07:55:07Z</time>
      </trkpt>
      <trkpt lat="46.32427" lon="6.19807">
        <ele>383.4</ele>
        <time>2022-09-28T07:55:08Z</time>
      </trkpt>
      <trkpt lat="46.32432" lon="6.19809">
        <ele>383.4</ele>
        <time>2022-09-28T07:55:09Z</time>
      </trkpt>
      <trkpt lat="46.32438" lon="6.19812">
        <ele>383.3</ele>
        <time>2022-09-28T07:55:10Z</time>
      </trkpt>
      <trkpt lat="46.32444" lon="6.19815">
        <ele>383.2</ele>
        <time>2022-09-28T07:55:11Z</time>
      </trkpt>
      <trkpt lat="46.32451" lon="6.19817">
        <ele>383.2</ele>
        <time>2022-09-28T07:55:12Z</time>
      </trkpt>
      <trkpt lat="46.32457" lon="6.1982">
        <ele>383.1</ele>
        <time>2022-09-28T07:55:13Z</time>
      </trkpt>
      <trkpt lat="46.32463" lon="6.19822">
        <ele>383</ele>
        <time>2022-09-28T07:55:14Z</time>
      </trkpt>
      <trkpt lat="46.3247" lon="6.19825">
        <ele>382.9</ele>
        <time>2022-09-28T07:55:15Z</time>
      </trkpt>
      <trkpt lat="46.32476" lon="6.19828">
        <ele>382.8</ele>
        <time>2022-09-28T07:55:16Z</time>
      </trkpt>
      <trkpt lat="46.32482" lon="6.1983">
        <ele>382.7</ele>
        <time>2022-09-28T07:55:17Z</time>
      </trkpt>
      <trkpt lat="46.32488" lon="6.19832">
        <ele>382.6</ele>
        <time>2022-09-28T07:55:18Z</time>
      </trkpt>
      <trkpt lat="46.32495" lon="6.19834">
        <ele>382.6</ele>
        <time>2022-09-28T07:55:19Z</time>
      </trkpt>
      <trkpt lat="46.32501" lon="6.19837">
        <ele>382.5</ele>
        <time>2022-09-28T07:55:20Z</time>
      </trkpt>
      <trkpt lat="46.32507" lon="6.19841">
        <ele>382.4</ele>
        <time>2022-09-28T07:55:21Z</time>
      </trkpt>
      <trkpt lat="46.32514" lon="6.19843">
        <ele>382.4</ele>
        <time>2022-09-28T07:55:22Z</time>
      </trkpt>
      <trkpt lat="46.3252" lon="6.19845">
        <ele>382.3</ele>
        <time>2022-09-28T07:55:23Z</time>
      </trkpt>
      <trkpt lat="46.32526" lon="6.19848">
        <ele>382.3</ele>
        <time>2022-09-28T07:55:24Z</time>
      </trkpt>
      <trkpt lat="46.32532" lon="6.19851">
        <ele>382.2</ele>
        <time>2022-09-28T07:55:25Z</time>
      </trkpt>
      <trkpt lat="46.32538" lon="6.19853">
        <ele>382.2</ele>
        <time>2022-09-28T07:55:26Z</time>
      </trkpt>
      <trkpt lat="46.32544" lon="6.19856">
        <ele>382.2</ele>
        <time>2022-09-28T07:55:27Z</time>
      </trkpt>
      <trkpt lat="46.32549" lon="6.19857">
        <ele>382.1</ele>
        <time>2022-09-28T07:55:28Z</time>
      </trkpt>
      <trkpt lat="46.32555" lon="6.1986">
        <ele>382.1</ele>
        <time>2022-09-28T07:55:29Z</time>
      </trkpt>
      <trkpt lat="46.3256" lon="6.19862">
        <ele>382.1</ele>
        <time>2022-09-28T07:55:30Z</time>
      </trkpt>
      <trkpt lat="46.32566" lon="6.19865">
        <ele>382.1</ele>
        <time>2022-09-28T07:55:31Z</time>
      </trkpt>
      <trkpt lat="46.32571" lon="6.19867">
        <ele>382.1</ele>
        <time>2022-09-28T07:55:32Z</time>
      </trkpt>
      <trkpt lat="46.32577" lon="6.19869">
        <ele>382.1</ele>
        <time>2022-09-28T07:55:33Z</time>
      </trkpt>
      <trkpt lat="46.32583" lon="6.19872">
        <ele>382.1</ele>
        <time>2022-09-28T07:55:34Z</time>
      </trkpt>
      <trkpt lat="46.32589" lon="6.19874">
        <ele>382.1</ele>
        <time>2022-09-28T07:55:35Z</time>
      </trkpt>
      <trkpt lat="46.32595" lon="6.19876">
        <ele>382.1</ele>
        <time>2022-09-28T07:55:36Z</time>
      </trkpt>
      <trkpt lat="46.326" lon="6.19879">
        <ele>382.2</ele>
        <time>2022-09-28T07:55:37Z</time>
      </trkpt>
      <trkpt lat="46.32606" lon="6.1988">
        <ele>382.2</ele>
        <time>2022-09-28T07:55:38Z</time>
      </trkpt>
      <trkpt lat="46.32611" lon="6.19883">
        <ele>382.2</ele>
        <time>2022-09-28T07:55:39Z</time>
      </trkpt>
      <trkpt lat="46.32616" lon="6.19886">
        <ele>382.3</ele>
        <time>2022-09-28T07:55:40Z</time>
      </trkpt>
      <trkpt lat="46.32621" lon="6.19889">
        <ele>382.3</ele>
        <time>2022-09-28T07:55:41Z</time>
      </trkpt>
      <trkpt lat="46.32627" lon="6.19892">
        <ele>382.3</ele>
        <time>2022-09-28T07:55:42Z</time>
      </trkpt>
      <trkpt lat="46.32633" lon="6.19894">
        <ele>382.4</ele>
        <time>2022-09-28T07:55:43Z</time>
      </trkpt>
      <trkpt lat="46.32638" lon="6.19897">
        <ele>382.4</ele>
        <time>2022-09-28T07:55:44Z</time>
      </trkpt>
      <trkpt lat="46.32643" lon="6.199">
        <ele>382.5</ele>
        <time>2022-09-28T07:55:45Z</time>
      </trkpt>
      <trkpt lat="46.32648" lon="6.19903">
        <ele>382.5</ele>
        <time>2022-09-28T07:55:46Z</time>
      </trkpt>
      <trkpt lat="46.32653" lon="6.19906">
        <ele>382.6</ele>
        <time>2022-09-28T07:55:47Z</time>
      </trkpt>
      <trkpt lat="46.32663" lon="6.19911">
        <ele>382.7</ele>
        <time>2022-09-28T07:55:48Z</time>
      </trkpt>
      <trkpt lat="46.32668" lon="6.19914">
        <ele>382.7</ele>
        <time>2022-09-28T07:55:49Z</time>
      </trkpt>
      <trkpt lat="46.32672" lon="6.19916">
        <ele>382.8</ele>
        <time>2022-09-28T07:55:50Z</time>
      </trkpt>
      <trkpt lat="46.32676" lon="6.19919">
        <ele>382.8</ele>
        <time>2022-09-28T07:55:51Z</time>
      </trkpt>
      <trkpt lat="46.32681" lon="6.19921">
        <ele>382.9</ele>
        <time>2022-09-28T07:55:52Z</time>
      </trkpt>
      <trkpt lat="46.32685" lon="6.19924">
        <ele>382.9</ele>
        <time>2022-09-28T07:55:53Z</time>
      </trkpt>
      <trkpt lat="46.3269" lon="6.19926">
        <ele>383</ele>
        <time>2022-09-28T07:55:54Z</time>
      </trkpt>
      <trkpt lat="46.32694" lon="6.19928">
        <ele>383</ele>
        <time>2022-09-28T07:55:55Z</time>
      </trkpt>
      <trkpt lat="46.32698" lon="6.19931">
        <ele>383.1</ele>
        <time>2022-09-28T07:55:56Z</time>
      </trkpt>
      <trkpt lat="46.32702" lon="6.19934">
        <ele>383.1</ele>
        <time>2022-09-28T07:55:57Z</time>
      </trkpt>
      <trkpt lat="46.32707" lon="6.19936">
        <ele>383.1</ele>
        <time>2022-09-28T07:55:58Z</time>
      </trkpt>
      <trkpt lat="46.32711" lon="6.19939">
        <ele>383.2</ele>
        <time>2022-09-28T07:55:59Z</time>
      </trkpt>
      <trkpt lat="46.32715" lon="6.19941">
        <ele>383.2</ele>
        <time>2022-09-28T07:56:00Z</time>
      </trkpt>
      <trkpt lat="46.32719" lon="6.19944">
        <ele>383.3</ele>
        <time>2022-09-28T07:56:01Z</time>
      </trkpt>
      <trkpt lat="46.32723" lon="6.19949">
        <ele>383.4</ele>
        <time>2022-09-28T07:56:02Z</time>
      </trkpt>
      <trkpt lat="46.32726" lon="6.1995">
        <ele>383.5</ele>
        <time>2022-09-28T07:56:03Z</time>
      </trkpt>
      <trkpt lat="46.32729" lon="6.19951">
        <ele>383.5</ele>
        <time>2022-09-28T07:56:04Z</time>
      </trkpt>
      <trkpt lat="46.32733" lon="6.19953">
        <ele>383.6</ele>
        <time>2022-09-28T07:56:05Z</time>
      </trkpt>
      <trkpt lat="46.32738" lon="6.19955">
        <ele>383.7</ele>
        <time>2022-09-28T07:56:06Z</time>
      </trkpt>
      <trkpt lat="46.32741" lon="6.19957">
        <ele>383.7</ele>
        <time>2022-09-28T07:56:07Z</time>
      </trkpt>
      <trkpt lat="46.32743" lon="6.19958">
        <ele>383.8</ele>
        <time>2022-09-28T07:56:08Z</time>
      </trkpt>
      <trkpt lat="46.32746" lon="6.19961">
        <ele>383.8</ele>
        <time>2022-09-28T07:56:09Z</time>
      </trkpt>
      <trkpt lat="46.32749" lon="6.19961">
        <ele>383.9</ele>
        <time>2022-09-28T07:56:10Z</time>
      </trkpt>
      <trkpt lat="46.32753" lon="6.19963">
        <ele>384</ele>
        <time>2022-09-28T07:56:11Z</time>
      </trkpt>
      <trkpt lat="46.32757" lon="6.19965">
        <ele>383.9</ele>
        <time>2022-09-28T07:56:12Z</time>
      </trkpt>
      <trkpt lat="46.32762" lon="6.19967">
        <ele>383.8</ele>
        <time>2022-09-28T07:56:13Z</time>
      </trkpt>
      <trkpt lat="46.32766" lon="6.1997">
        <ele>383.8</ele>
        <time>2022-09-28T07:56:14Z</time>
      </trkpt>
      <trkpt lat="46.32771" lon="6.19973">
        <ele>383.9</ele>
        <time>2022-09-28T07:56:15Z</time>
      </trkpt>
      <trkpt lat="46.32775" lon="6.19978">
        <ele>383.9</ele>
        <time>2022-09-28T07:56:16Z</time>
      </trkpt>
      <trkpt lat="46.32779" lon="6.19981">
        <ele>383.9</ele>
        <time>2022-09-28T07:56:17Z</time>
      </trkpt>
      <trkpt lat="46.32784" lon="6.19984">
        <ele>383.9</ele>
        <time>2022-09-28T07:56:18Z</time>
      </trkpt>
      <trkpt lat="46.32789" lon="6.19986">
        <ele>383.9</ele>
        <time>2022-09-28T07:56:19Z</time>
      </trkpt>
      <trkpt lat="46.32794" lon="6.19989">
        <ele>383.9</ele>
        <time>2022-09-28T07:56:20Z</time>
      </trkpt>
      <trkpt lat="46.32798" lon="6.19994">
        <ele>383.9</ele>
        <time>2022-09-28T07:56:21Z</time>
      </trkpt>
      <trkpt lat="46.32801" lon="6.19998">
        <ele>384</ele>
        <time>2022-09-28T07:56:22Z</time>
      </trkpt>
      <trkpt lat="46.32806" lon="6.20003">
        <ele>384.3</ele>
        <time>2022-09-28T07:56:23Z</time>
      </trkpt>
      <trkpt lat="46.3281" lon="6.20008">
        <ele>384.3</ele>
        <time>2022-09-28T07:56:24Z</time>
      </trkpt>
      <trkpt lat="46.32814" lon="6.20013">
        <ele>384.3</ele>
        <time>2022-09-28T07:56:25Z</time>
      </trkpt>
      <trkpt lat="46.32818" lon="6.20017">
        <ele>384.3</ele>
        <time>2022-09-28T07:56:26Z</time>
      </trkpt>
      <trkpt lat="46.32821" lon="6.20019">
        <ele>384.3</ele>
        <time>2022-09-28T07:56:27Z</time>
      </trkpt>
      <trkpt lat="46.32824" lon="6.20023">
        <ele>384.3</ele>
        <time>2022-09-28T07:56:28Z</time>
      </trkpt>
      <trkpt lat="46.32826" lon="6.20026">
        <ele>384.2</ele>
        <time>2022-09-28T07:56:29Z</time>
      </trkpt>
      <trkpt lat="46.32828" lon="6.2003">
        <ele>384.2</ele>
        <time>2022-09-28T07:56:30Z</time>
      </trkpt>
      <trkpt lat="46.32832" lon="6.20034">
        <ele>384.2</ele>
        <time>2022-09-28T07:56:31Z</time>
      </trkpt>
      <trkpt lat="46.32836" lon="6.20037">
        <ele>384.2</ele>
        <time>2022-09-28T07:56:32Z</time>
      </trkpt>
      <trkpt lat="46.3284" lon="6.2004">
        <ele>384.1</ele>
        <time>2022-09-28T07:56:34Z</time>
      </trkpt>
      <trkpt lat="46.32844" lon="6.20043">
        <ele>384.1</ele>
        <time>2022-09-28T07:56:35Z</time>
      </trkpt>
      <trkpt lat="46.32849" lon="6.20046">
        <ele>384.1</ele>
        <time>2022-09-28T07:56:36Z</time>
      </trkpt>
      <trkpt lat="46.32852" lon="6.2005">
        <ele>384</ele>
        <time>2022-09-28T07:56:37Z</time>
      </trkpt>
      <trkpt lat="46.32857" lon="6.20054">
        <ele>384</ele>
        <time>2022-09-28T07:56:38Z</time>
      </trkpt>
      <trkpt lat="46.32861" lon="6.20057">
        <ele>383.9</ele>
        <time>2022-09-28T07:56:39Z</time>
      </trkpt>
      <trkpt lat="46.32865" lon="6.2006">
        <ele>383.9</ele>
        <time>2022-09-28T07:56:40Z</time>
      </trkpt>
      <trkpt lat="46.32869" lon="6.20064">
        <ele>383.8</ele>
        <time>2022-09-28T07:56:41Z</time>
      </trkpt>
      <trkpt lat="46.32873" lon="6.20068">
        <ele>383.8</ele>
        <time>2022-09-28T07:56:42Z</time>
      </trkpt>
      <trkpt lat="46.32877" lon="6.20071">
        <ele>383.7</ele>
        <time>2022-09-28T07:56:43Z</time>
      </trkpt>
      <trkpt lat="46.32881" lon="6.20074">
        <ele>383.6</ele>
        <time>2022-09-28T07:56:44Z</time>
      </trkpt>
      <trkpt lat="46.32885" lon="6.20077">
        <ele>383.6</ele>
        <time>2022-09-28T07:56:45Z</time>
      </trkpt>
      <trkpt lat="46.32888" lon="6.20081">
        <ele>383.6</ele>
        <time>2022-09-28T07:56:46Z</time>
      </trkpt>
      <trkpt lat="46.32891" lon="6.20084">
        <ele>383.5</ele>
        <time>2022-09-28T07:56:47Z</time>
      </trkpt>
      <trkpt lat="46.32892" lon="6.20085">
        <ele>383.5</ele>
        <time>2022-09-28T07:56:48Z</time>
      </trkpt>
      <trkpt lat="46.32895" lon="6.20088">
        <ele>383.5</ele>
        <time>2022-09-28T07:56:49Z</time>
      </trkpt>
      <trkpt lat="46.32895" lon="6.20088">
        <ele>383.5</ele>
        <time>2022-09-28T07:56:50Z</time>
      </trkpt>
      <trkpt lat="46.32898" lon="6.2009">
        <ele>383.5</ele>
        <time>2022-09-28T07:56:51Z</time>
      </trkpt>
      <trkpt lat="46.32901" lon="6.20092">
        <ele>383.5</ele>
        <time>2022-09-28T07:56:52Z</time>
      </trkpt>
      <trkpt lat="46.32906" lon="6.20094">
        <ele>383.4</ele>
        <time>2022-09-28T07:56:53Z</time>
      </trkpt>
      <trkpt lat="46.3291" lon="6.20096">
        <ele>383.4</ele>
        <time>2022-09-28T07:56:54Z</time>
      </trkpt>
      <trkpt lat="46.32913" lon="6.20099">
        <ele>383.3</ele>
        <time>2022-09-28T07:56:55Z</time>
      </trkpt>
      <trkpt lat="46.32918" lon="6.20103">
        <ele>383.3</ele>
        <time>2022-09-28T07:56:56Z</time>
      </trkpt>
      <trkpt lat="46.32921" lon="6.20106">
        <ele>383.3</ele>
        <time>2022-09-28T07:56:57Z</time>
      </trkpt>
      <trkpt lat="46.32926" lon="6.20109">
        <ele>383.2</ele>
        <time>2022-09-28T07:56:58Z</time>
      </trkpt>
      <trkpt lat="46.32931" lon="6.20112">
        <ele>383.2</ele>
        <time>2022-09-28T07:56:59Z</time>
      </trkpt>
      <trkpt lat="46.32935" lon="6.20117">
        <ele>383.1</ele>
        <time>2022-09-28T07:57:00Z</time>
      </trkpt>
      <trkpt lat="46.3294" lon="6.2012">
        <ele>383.1</ele>
        <time>2022-09-28T07:57:01Z</time>
      </trkpt>
      <trkpt lat="46.32945" lon="6.20123">
        <ele>383.1</ele>
        <time>2022-09-28T07:57:02Z</time>
      </trkpt>
      <trkpt lat="46.3295" lon="6.20126">
        <ele>383</ele>
        <time>2022-09-28T07:57:03Z</time>
      </trkpt>
      <trkpt lat="46.32954" lon="6.20129">
        <ele>383</ele>
        <time>2022-09-28T07:57:04Z</time>
      </trkpt>
      <trkpt lat="46.32959" lon="6.20132">
        <ele>382.9</ele>
        <time>2022-09-28T07:57:05Z</time>
      </trkpt>
      <trkpt lat="46.32964" lon="6.20135">
        <ele>382.9</ele>
        <time>2022-09-28T07:57:06Z</time>
      </trkpt>
      <trkpt lat="46.3297" lon="6.20139">
        <ele>382.9</ele>
        <time>2022-09-28T07:57:07Z</time>
      </trkpt>
      <trkpt lat="46.32975" lon="6.20142">
        <ele>382.8</ele>
        <time>2022-09-28T07:57:08Z</time>
      </trkpt>
      <trkpt lat="46.3298" lon="6.20145">
        <ele>382.8</ele>
        <time>2022-09-28T07:57:09Z</time>
      </trkpt>
      <trkpt lat="46.32986" lon="6.20148">
        <ele>382.7</ele>
        <time>2022-09-28T07:57:10Z</time>
      </trkpt>
      <trkpt lat="46.32992" lon="6.20151">
        <ele>382.7</ele>
        <time>2022-09-28T07:57:11Z</time>
      </trkpt>
      <trkpt lat="46.32997" lon="6.20154">
        <ele>382.6</ele>
        <time>2022-09-28T07:57:12Z</time>
      </trkpt>
      <trkpt lat="46.33003" lon="6.20157">
        <ele>382.6</ele>
        <time>2022-09-28T07:57:13Z</time>
      </trkpt>
      <trkpt lat="46.33008" lon="6.20161">
        <ele>382.5</ele>
        <time>2022-09-28T07:57:14Z</time>
      </trkpt>
      <trkpt lat="46.33014" lon="6.20164">
        <ele>382.5</ele>
        <time>2022-09-28T07:57:15Z</time>
      </trkpt>
      <trkpt lat="46.33019" lon="6.20167">
        <ele>382.4</ele>
        <time>2022-09-28T07:57:16Z</time>
      </trkpt>
      <trkpt lat="46.33025" lon="6.2017">
        <ele>382.4</ele>
        <time>2022-09-28T07:57:17Z</time>
      </trkpt>
      <trkpt lat="46.33031" lon="6.20172">
        <ele>382.3</ele>
        <time>2022-09-28T07:57:18Z</time>
      </trkpt>
      <trkpt lat="46.33037" lon="6.20175">
        <ele>382.3</ele>
        <time>2022-09-28T07:57:19Z</time>
      </trkpt>
      <trkpt lat="46.33043" lon="6.20178">
        <ele>382.2</ele>
        <time>2022-09-28T07:57:20Z</time>
      </trkpt>
      <trkpt lat="46.33049" lon="6.20181">
        <ele>382.1</ele>
        <time>2022-09-28T07:57:21Z</time>
      </trkpt>
      <trkpt lat="46.33054" lon="6.20184">
        <ele>382.1</ele>
        <time>2022-09-28T07:57:22Z</time>
      </trkpt>
      <trkpt lat="46.33061" lon="6.20187">
        <ele>382</ele>
        <time>2022-09-28T07:57:23Z</time>
      </trkpt>
      <trkpt lat="46.33067" lon="6.20189">
        <ele>381.9</ele>
        <time>2022-09-28T07:57:24Z</time>
      </trkpt>
      <trkpt lat="46.33073" lon="6.20192">
        <ele>381.9</ele>
        <time>2022-09-28T07:57:25Z</time>
      </trkpt>
      <trkpt lat="46.33079" lon="6.20195">
        <ele>381.8</ele>
        <time>2022-09-28T07:57:26Z</time>
      </trkpt>
      <trkpt lat="46.33086" lon="6.20199">
        <ele>381.7</ele>
        <time>2022-09-28T07:57:27Z</time>
      </trkpt>
      <trkpt lat="46.33092" lon="6.20201">
        <ele>381.7</ele>
        <time>2022-09-28T07:57:28Z</time>
      </trkpt>
      <trkpt lat="46.33099" lon="6.20203">
        <ele>381.6</ele>
        <time>2022-09-28T07:57:29Z</time>
      </trkpt>
      <trkpt lat="46.33106" lon="6.20206">
        <ele>381.6</ele>
        <time>2022-09-28T07:57:30Z</time>
      </trkpt>
      <trkpt lat="46.33112" lon="6.20208">
        <ele>381.5</ele>
        <time>2022-09-28T07:57:31Z</time>
      </trkpt>
      <trkpt lat="46.33118" lon="6.20211">
        <ele>381.5</ele>
        <time>2022-09-28T07:57:32Z</time>
      </trkpt>
      <trkpt lat="46.33125" lon="6.20213">
        <ele>381.4</ele>
        <time>2022-09-28T07:57:33Z</time>
      </trkpt>
      <trkpt lat="46.33131" lon="6.20215">
        <ele>381.4</ele>
        <time>2022-09-28T07:57:34Z</time>
      </trkpt>
      <trkpt lat="46.33138" lon="6.20217">
        <ele>381.3</ele>
        <time>2022-09-28T07:57:35Z</time>
      </trkpt>
      <trkpt lat="46.33144" lon="6.20219">
        <ele>381.3</ele>
        <time>2022-09-28T07:57:36Z</time>
      </trkpt>
      <trkpt lat="46.3315" lon="6.20222">
        <ele>381.2</ele>
        <time>2022-09-28T07:57:37Z</time>
      </trkpt>
      <trkpt lat="46.33157" lon="6.20224">
        <ele>381.2</ele>
        <time>2022-09-28T07:57:38Z</time>
      </trkpt>
      <trkpt lat="46.33164" lon="6.20226">
        <ele>381.1</ele>
        <time>2022-09-28T07:57:39Z</time>
      </trkpt>
      <trkpt lat="46.3317" lon="6.20228">
        <ele>381</ele>
        <time>2022-09-28T07:57:40Z</time>
      </trkpt>
      <trkpt lat="46.33177" lon="6.20229">
        <ele>381</ele>
        <time>2022-09-28T07:57:41Z</time>
      </trkpt>
      <trkpt lat="46.33183" lon="6.20231">
        <ele>380.9</ele>
        <time>2022-09-28T07:57:42Z</time>
      </trkpt>
      <trkpt lat="46.3319" lon="6.20232">
        <ele>380.8</ele>
        <time>2022-09-28T07:57:43Z</time>
      </trkpt>
      <trkpt lat="46.33196" lon="6.20234">
        <ele>380.8</ele>
        <time>2022-09-28T07:57:44Z</time>
      </trkpt>
      <trkpt lat="46.33201" lon="6.20236">
        <ele>380.7</ele>
        <time>2022-09-28T07:57:45Z</time>
      </trkpt>
      <trkpt lat="46.33207" lon="6.20237">
        <ele>380.7</ele>
        <time>2022-09-28T07:57:46Z</time>
      </trkpt>
      <trkpt lat="46.33214" lon="6.20237">
        <ele>380.6</ele>
        <time>2022-09-28T07:57:47Z</time>
      </trkpt>
      <trkpt lat="46.33221" lon="6.20238">
        <ele>380.6</ele>
        <time>2022-09-28T07:57:48Z</time>
      </trkpt>
      <trkpt lat="46.33228" lon="6.20239">
        <ele>380.5</ele>
        <time>2022-09-28T07:57:49Z</time>
      </trkpt>
      <trkpt lat="46.33234" lon="6.2024">
        <ele>380.4</ele>
        <time>2022-09-28T07:57:50Z</time>
      </trkpt>
      <trkpt lat="46.33241" lon="6.20241">
        <ele>380.4</ele>
        <time>2022-09-28T07:57:51Z</time>
      </trkpt>
      <trkpt lat="46.33248" lon="6.20242">
        <ele>380.3</ele>
        <time>2022-09-28T07:57:52Z</time>
      </trkpt>
      <trkpt lat="46.33255" lon="6.20243">
        <ele>380.3</ele>
        <time>2022-09-28T07:57:53Z</time>
      </trkpt>
      <trkpt lat="46.33262" lon="6.20243">
        <ele>380.2</ele>
        <time>2022-09-28T07:57:54Z</time>
      </trkpt>
      <trkpt lat="46.33269" lon="6.20244">
        <ele>380.2</ele>
        <time>2022-09-28T07:57:55Z</time>
      </trkpt>
      <trkpt lat="46.33275" lon="6.20244">
        <ele>380.1</ele>
        <time>2022-09-28T07:57:56Z</time>
      </trkpt>
      <trkpt lat="46.33281" lon="6.20244">
        <ele>380.1</ele>
        <time>2022-09-28T07:57:57Z</time>
      </trkpt>
      <trkpt lat="46.33294" lon="6.20244">
        <ele>380</ele>
        <time>2022-09-28T07:57:58Z</time>
      </trkpt>
      <trkpt lat="46.333" lon="6.20244">
        <ele>380</ele>
        <time>2022-09-28T07:57:59Z</time>
      </trkpt>
      <trkpt lat="46.33306" lon="6.20245">
        <ele>380</ele>
        <time>2022-09-28T07:58:00Z</time>
      </trkpt>
      <trkpt lat="46.33312" lon="6.20245">
        <ele>380</ele>
        <time>2022-09-28T07:58:01Z</time>
      </trkpt>
      <trkpt lat="46.33318" lon="6.20245">
        <ele>379.9</ele>
        <time>2022-09-28T07:58:02Z</time>
      </trkpt>
      <trkpt lat="46.33324" lon="6.20245">
        <ele>379.9</ele>
        <time>2022-09-28T07:58:03Z</time>
      </trkpt>
      <trkpt lat="46.33329" lon="6.20246">
        <ele>379.9</ele>
        <time>2022-09-28T07:58:04Z</time>
      </trkpt>
      <trkpt lat="46.33335" lon="6.20246">
        <ele>379.9</ele>
        <time>2022-09-28T07:58:05Z</time>
      </trkpt>
      <trkpt lat="46.3334" lon="6.20246">
        <ele>379.9</ele>
        <time>2022-09-28T07:58:06Z</time>
      </trkpt>
      <trkpt lat="46.33345" lon="6.20245">
        <ele>379.9</ele>
        <time>2022-09-28T07:58:07Z</time>
      </trkpt>
      <trkpt lat="46.33351" lon="6.20246">
        <ele>379.9</ele>
        <time>2022-09-28T07:58:08Z</time>
      </trkpt>
      <trkpt lat="46.33355" lon="6.20246">
        <ele>379.9</ele>
        <time>2022-09-28T07:58:09Z</time>
      </trkpt>
      <trkpt lat="46.33361" lon="6.20246">
        <ele>379.8</ele>
        <time>2022-09-28T07:58:10Z</time>
      </trkpt>
      <trkpt lat="46.33366" lon="6.20245">
        <ele>379.8</ele>
        <time>2022-09-28T07:58:11Z</time>
      </trkpt>
      <trkpt lat="46.33371" lon="6.20246">
        <ele>379.8</ele>
        <time>2022-09-28T07:58:12Z</time>
      </trkpt>
      <trkpt lat="46.33377" lon="6.20245">
        <ele>379.8</ele>
        <time>2022-09-28T07:58:13Z</time>
      </trkpt>
      <trkpt lat="46.33383" lon="6.20245">
        <ele>379.8</ele>
        <time>2022-09-28T07:58:14Z</time>
      </trkpt>
      <trkpt lat="46.33388" lon="6.20246">
        <ele>379.8</ele>
        <time>2022-09-28T07:58:15Z</time>
      </trkpt>
      <trkpt lat="46.33394" lon="6.20246">
        <ele>379.8</ele>
        <time>2022-09-28T07:58:16Z</time>
      </trkpt>
      <trkpt lat="46.33399" lon="6.20246">
        <ele>379.8</ele>
        <time>2022-09-28T07:58:17Z</time>
      </trkpt>
      <trkpt lat="46.33404" lon="6.20246">
        <ele>379.8</ele>
        <time>2022-09-28T07:58:18Z</time>
      </trkpt>
      <trkpt lat="46.3341" lon="6.20247">
        <ele>379.8</ele>
        <time>2022-09-28T07:58:19Z</time>
      </trkpt>
      <trkpt lat="46.33416" lon="6.20248">
        <ele>379.7</ele>
        <time>2022-09-28T07:58:20Z</time>
      </trkpt>
      <trkpt lat="46.33422" lon="6.20249">
        <ele>379.7</ele>
        <time>2022-09-28T07:58:21Z</time>
      </trkpt>
      <trkpt lat="46.33427" lon="6.20249">
        <ele>379.7</ele>
        <time>2022-09-28T07:58:22Z</time>
      </trkpt>
      <trkpt lat="46.33433" lon="6.20248">
        <ele>379.7</ele>
        <time>2022-09-28T07:58:23Z</time>
      </trkpt>
      <trkpt lat="46.3344" lon="6.20247">
        <ele>379.7</ele>
        <time>2022-09-28T07:58:24Z</time>
      </trkpt>
      <trkpt lat="46.33445" lon="6.20246">
        <ele>379.7</ele>
        <time>2022-09-28T07:58:25Z</time>
      </trkpt>
      <trkpt lat="46.33451" lon="6.20246">
        <ele>379.7</ele>
        <time>2022-09-28T07:58:26Z</time>
      </trkpt>
      <trkpt lat="46.33456" lon="6.20245">
        <ele>379.7</ele>
        <time>2022-09-28T07:58:27Z</time>
      </trkpt>
      <trkpt lat="46.33462" lon="6.20246">
        <ele>379.6</ele>
        <time>2022-09-28T07:58:28Z</time>
      </trkpt>
      <trkpt lat="46.33468" lon="6.20245">
        <ele>379.6</ele>
        <time>2022-09-28T07:58:29Z</time>
      </trkpt>
      <trkpt lat="46.33472" lon="6.20245">
        <ele>379.6</ele>
        <time>2022-09-28T07:58:30Z</time>
      </trkpt>
      <trkpt lat="46.33478" lon="6.20246">
        <ele>379.6</ele>
        <time>2022-09-28T07:58:31Z</time>
      </trkpt>
      <trkpt lat="46.33484" lon="6.20245">
        <ele>379.6</ele>
        <time>2022-09-28T07:58:32Z</time>
      </trkpt>
      <trkpt lat="46.3349" lon="6.20245">
        <ele>379.5</ele>
        <time>2022-09-28T07:58:33Z</time>
      </trkpt>
      <trkpt lat="46.33496" lon="6.20245">
        <ele>379.5</ele>
        <time>2022-09-28T07:58:34Z</time>
      </trkpt>
      <trkpt lat="46.33501" lon="6.20245">
        <ele>379.5</ele>
        <time>2022-09-28T07:58:35Z</time>
      </trkpt>
      <trkpt lat="46.33507" lon="6.20244">
        <ele>379.4</ele>
        <time>2022-09-28T07:58:36Z</time>
      </trkpt>
      <trkpt lat="46.33513" lon="6.20245">
        <ele>379.4</ele>
        <time>2022-09-28T07:58:37Z</time>
      </trkpt>
      <trkpt lat="46.33519" lon="6.20243">
        <ele>379.3</ele>
        <time>2022-09-28T07:58:38Z</time>
      </trkpt>
      <trkpt lat="46.33525" lon="6.20245">
        <ele>379.3</ele>
        <time>2022-09-28T07:58:39Z</time>
      </trkpt>
      <trkpt lat="46.33531" lon="6.20246">
        <ele>379.3</ele>
        <time>2022-09-28T07:58:40Z</time>
      </trkpt>
      <trkpt lat="46.33537" lon="6.20246">
        <ele>379.2</ele>
        <time>2022-09-28T07:58:41Z</time>
      </trkpt>
      <trkpt lat="46.33543" lon="6.20247">
        <ele>379.2</ele>
        <time>2022-09-28T07:58:42Z</time>
      </trkpt>
      <trkpt lat="46.33549" lon="6.20247">
        <ele>379.2</ele>
        <time>2022-09-28T07:58:43Z</time>
      </trkpt>
      <trkpt lat="46.33556" lon="6.20247">
        <ele>379.1</ele>
        <time>2022-09-28T07:58:44Z</time>
      </trkpt>
      <trkpt lat="46.33562" lon="6.20248">
        <ele>379.1</ele>
        <time>2022-09-28T07:58:45Z</time>
      </trkpt>
      <trkpt lat="46.33568" lon="6.20249">
        <ele>379</ele>
        <time>2022-09-28T07:58:46Z</time>
      </trkpt>
      <trkpt lat="46.33574" lon="6.2025">
        <ele>379</ele>
        <time>2022-09-28T07:58:47Z</time>
      </trkpt>
      <trkpt lat="46.3358" lon="6.20252">
        <ele>379</ele>
        <time>2022-09-28T07:58:48Z</time>
      </trkpt>
      <trkpt lat="46.33587" lon="6.20252">
        <ele>378.9</ele>
        <time>2022-09-28T07:58:49Z</time>
      </trkpt>
      <trkpt lat="46.33592" lon="6.20253">
        <ele>378.9</ele>
        <time>2022-09-28T07:58:50Z</time>
      </trkpt>
      <trkpt lat="46.33598" lon="6.20254">
        <ele>378.9</ele>
        <time>2022-09-28T07:58:51Z</time>
      </trkpt>
      <trkpt lat="46.33603" lon="6.20257">
        <ele>378.8</ele>
        <time>2022-09-28T07:58:52Z</time>
      </trkpt>
      <trkpt lat="46.33608" lon="6.20257">
        <ele>378.8</ele>
        <time>2022-09-28T07:58:53Z</time>
      </trkpt>
      <trkpt lat="46.33613" lon="6.20257">
        <ele>378.8</ele>
        <time>2022-09-28T07:58:54Z</time>
      </trkpt>
      <trkpt lat="46.33619" lon="6.20259">
        <ele>378.8</ele>
        <time>2022-09-28T07:58:55Z</time>
      </trkpt>
      <trkpt lat="46.33625" lon="6.2026">
        <ele>378.8</ele>
        <time>2022-09-28T07:58:56Z</time>
      </trkpt>
      <trkpt lat="46.3363" lon="6.20261">
        <ele>378.8</ele>
        <time>2022-09-28T07:58:57Z</time>
      </trkpt>
      <trkpt lat="46.33633" lon="6.20262">
        <ele>378.8</ele>
        <time>2022-09-28T07:58:58Z</time>
      </trkpt>
      <trkpt lat="46.33638" lon="6.20263">
        <ele>378.8</ele>
        <time>2022-09-28T07:58:59Z</time>
      </trkpt>
      <trkpt lat="46.33642" lon="6.20263">
        <ele>378.8</ele>
        <time>2022-09-28T07:59:00Z</time>
      </trkpt>
      <trkpt lat="46.33647" lon="6.20265">
        <ele>378.8</ele>
        <time>2022-09-28T07:59:01Z</time>
      </trkpt>
      <trkpt lat="46.33651" lon="6.20266">
        <ele>378.8</ele>
        <time>2022-09-28T07:59:02Z</time>
      </trkpt>
      <trkpt lat="46.33655" lon="6.20266">
        <ele>378.8</ele>
        <time>2022-09-28T07:59:03Z</time>
      </trkpt>
      <trkpt lat="46.33659" lon="6.20268">
        <ele>378.8</ele>
        <time>2022-09-28T07:59:04Z</time>
      </trkpt>
      <trkpt lat="46.33665" lon="6.2027">
        <ele>378.8</ele>
        <time>2022-09-28T07:59:05Z</time>
      </trkpt>
      <trkpt lat="46.33669" lon="6.20271">
        <ele>378.8</ele>
        <time>2022-09-28T07:59:06Z</time>
      </trkpt>
      <trkpt lat="46.33674" lon="6.20273">
        <ele>378.8</ele>
        <time>2022-09-28T07:59:07Z</time>
      </trkpt>
      <trkpt lat="46.33679" lon="6.20274">
        <ele>378.9</ele>
        <time>2022-09-28T07:59:08Z</time>
      </trkpt>
      <trkpt lat="46.33683" lon="6.20275">
        <ele>378.9</ele>
        <time>2022-09-28T07:59:09Z</time>
      </trkpt>
      <trkpt lat="46.33688" lon="6.20276">
        <ele>378.9</ele>
        <time>2022-09-28T07:59:10Z</time>
      </trkpt>
      <trkpt lat="46.33692" lon="6.20278">
        <ele>378.9</ele>
        <time>2022-09-28T07:59:11Z</time>
      </trkpt>
      <trkpt lat="46.33696" lon="6.2028">
        <ele>379</ele>
        <time>2022-09-28T07:59:12Z</time>
      </trkpt>
      <trkpt lat="46.337" lon="6.20282">
        <ele>379</ele>
        <time>2022-09-28T07:59:13Z</time>
      </trkpt>
      <trkpt lat="46.33705" lon="6.20283">
        <ele>379.1</ele>
        <time>2022-09-28T07:59:14Z</time>
      </trkpt>
      <trkpt lat="46.3371" lon="6.20284">
        <ele>379.1</ele>
        <time>2022-09-28T07:59:15Z</time>
      </trkpt>
      <trkpt lat="46.33715" lon="6.20286">
        <ele>379.2</ele>
        <time>2022-09-28T07:59:16Z</time>
      </trkpt>
      <trkpt lat="46.3372" lon="6.20287">
        <ele>379.2</ele>
        <time>2022-09-28T07:59:17Z</time>
      </trkpt>
      <trkpt lat="46.33725" lon="6.20288">
        <ele>379.2</ele>
        <time>2022-09-28T07:59:18Z</time>
      </trkpt>
      <trkpt lat="46.3373" lon="6.2029">
        <ele>379.3</ele>
        <time>2022-09-28T07:59:19Z</time>
      </trkpt>
      <trkpt lat="46.33735" lon="6.20293">
        <ele>379.3</ele>
        <time>2022-09-28T07:59:20Z</time>
      </trkpt>
      <trkpt lat="46.33738" lon="6.20294">
        <ele>379.4</ele>
        <time>2022-09-28T07:59:21Z</time>
      </trkpt>
      <trkpt lat="46.33744" lon="6.20296">
        <ele>379.4</ele>
        <time>2022-09-28T07:59:22Z</time>
      </trkpt>
      <trkpt lat="46.33748" lon="6.20298">
        <ele>379.5</ele>
        <time>2022-09-28T07:59:23Z</time>
      </trkpt>
      <trkpt lat="46.33752" lon="6.203">
        <ele>379.6</ele>
        <time>2022-09-28T07:59:24Z</time>
      </trkpt>
      <trkpt lat="46.33757" lon="6.20302">
        <ele>379.6</ele>
        <time>2022-09-28T07:59:25Z</time>
      </trkpt>
      <trkpt lat="46.33761" lon="6.20304">
        <ele>379.7</ele>
        <time>2022-09-28T07:59:26Z</time>
      </trkpt>
      <trkpt lat="46.33765" lon="6.20306">
        <ele>379.8</ele>
        <time>2022-09-28T07:59:27Z</time>
      </trkpt>
      <trkpt lat="46.3377" lon="6.20308">
        <ele>379.9</ele>
        <time>2022-09-28T07:59:28Z</time>
      </trkpt>
      <trkpt lat="46.33774" lon="6.20311">
        <ele>380</ele>
        <time>2022-09-28T07:59:29Z</time>
      </trkpt>
      <trkpt lat="46.33779" lon="6.20313">
        <ele>380</ele>
        <time>2022-09-28T07:59:30Z</time>
      </trkpt>
      <trkpt lat="46.33783" lon="6.20315">
        <ele>380.1</ele>
        <time>2022-09-28T07:59:31Z</time>
      </trkpt>
      <trkpt lat="46.33788" lon="6.20318">
        <ele>380.2</ele>
        <time>2022-09-28T07:59:32Z</time>
      </trkpt>
      <trkpt lat="46.33792" lon="6.2032">
        <ele>380.3</ele>
        <time>2022-09-28T07:59:33Z</time>
      </trkpt>
      <trkpt lat="46.33796" lon="6.20322">
        <ele>380.3</ele>
        <time>2022-09-28T07:59:34Z</time>
      </trkpt>
      <trkpt lat="46.338" lon="6.20324">
        <ele>380.4</ele>
        <time>2022-09-28T07:59:35Z</time>
      </trkpt>
      <trkpt lat="46.33805" lon="6.20327">
        <ele>380.5</ele>
        <time>2022-09-28T07:59:36Z</time>
      </trkpt>
      <trkpt lat="46.33809" lon="6.20329">
        <ele>380.5</ele>
        <time>2022-09-28T07:59:37Z</time>
      </trkpt>
      <trkpt lat="46.33813" lon="6.2033">
        <ele>380.6</ele>
        <time>2022-09-28T07:59:38Z</time>
      </trkpt>
      <trkpt lat="46.33817" lon="6.20333">
        <ele>380.7</ele>
        <time>2022-09-28T07:59:39Z</time>
      </trkpt>
      <trkpt lat="46.33821" lon="6.20335">
        <ele>380.7</ele>
        <time>2022-09-28T07:59:40Z</time>
      </trkpt>
      <trkpt lat="46.33825" lon="6.20337">
        <ele>380.8</ele>
        <time>2022-09-28T07:59:41Z</time>
      </trkpt>
      <trkpt lat="46.33829" lon="6.2034">
        <ele>380.9</ele>
        <time>2022-09-28T07:59:42Z</time>
      </trkpt>
      <trkpt lat="46.33834" lon="6.20342">
        <ele>380.9</ele>
        <time>2022-09-28T07:59:43Z</time>
      </trkpt>
      <trkpt lat="46.33837" lon="6.20345">
        <ele>381</ele>
        <time>2022-09-28T07:59:44Z</time>
      </trkpt>
      <trkpt lat="46.33842" lon="6.20347">
        <ele>381.1</ele>
        <time>2022-09-28T07:59:45Z</time>
      </trkpt>
      <trkpt lat="46.33846" lon="6.20349">
        <ele>381.1</ele>
        <time>2022-09-28T07:59:46Z</time>
      </trkpt>
      <trkpt lat="46.3385" lon="6.20352">
        <ele>381.2</ele>
        <time>2022-09-28T07:59:47Z</time>
      </trkpt>
      <trkpt lat="46.33854" lon="6.20354">
        <ele>381.3</ele>
        <time>2022-09-28T07:59:48Z</time>
      </trkpt>
      <trkpt lat="46.33858" lon="6.20357">
        <ele>381.4</ele>
        <time>2022-09-28T07:59:49Z</time>
      </trkpt>
      <trkpt lat="46.33861" lon="6.20359">
        <ele>381.4</ele>
        <time>2022-09-28T07:59:50Z</time>
      </trkpt>
      <trkpt lat="46.33864" lon="6.20361">
        <ele>381.5</ele>
        <time>2022-09-28T07:59:51Z</time>
      </trkpt>
      <trkpt lat="46.33868" lon="6.20364">
        <ele>381.6</ele>
        <time>2022-09-28T07:59:52Z</time>
      </trkpt>
      <trkpt lat="46.33872" lon="6.20366">
        <ele>381.6</ele>
        <time>2022-09-28T07:59:53Z</time>
      </trkpt>
      <trkpt lat="46.33875" lon="6.20369">
        <ele>381.7</ele>
        <time>2022-09-28T07:59:54Z</time>
      </trkpt>
      <trkpt lat="46.33878" lon="6.20372">
        <ele>381.7</ele>
        <time>2022-09-28T07:59:55Z</time>
      </trkpt>
      <trkpt lat="46.33882" lon="6.20374">
        <ele>381.8</ele>
        <time>2022-09-28T07:59:56Z</time>
      </trkpt>
      <trkpt lat="46.33886" lon="6.20377">
        <ele>381.9</ele>
        <time>2022-09-28T07:59:57Z</time>
      </trkpt>
      <trkpt lat="46.33891" lon="6.20379">
        <ele>381.9</ele>
        <time>2022-09-28T07:59:58Z</time>
      </trkpt>
      <trkpt lat="46.33895" lon="6.20382">
        <ele>382</ele>
        <time>2022-09-28T07:59:59Z</time>
      </trkpt>
      <trkpt lat="46.33899" lon="6.20384">
        <ele>382.1</ele>
        <time>2022-09-28T08:00:00Z</time>
      </trkpt>
      <trkpt lat="46.33903" lon="6.20387">
        <ele>382.1</ele>
        <time>2022-09-28T08:00:01Z</time>
      </trkpt>
      <trkpt lat="46.33907" lon="6.2039">
        <ele>382.2</ele>
        <time>2022-09-28T08:00:02Z</time>
      </trkpt>
      <trkpt lat="46.33911" lon="6.20393">
        <ele>382.3</ele>
        <time>2022-09-28T08:00:03Z</time>
      </trkpt>
      <trkpt lat="46.33915" lon="6.20395">
        <ele>382.3</ele>
        <time>2022-09-28T08:00:04Z</time>
      </trkpt>
      <trkpt lat="46.3392" lon="6.20397">
        <ele>382.4</ele>
        <time>2022-09-28T08:00:05Z</time>
      </trkpt>
      <trkpt lat="46.33924" lon="6.20401">
        <ele>382.4</ele>
        <time>2022-09-28T08:00:06Z</time>
      </trkpt>
      <trkpt lat="46.33928" lon="6.20405">
        <ele>382.5</ele>
        <time>2022-09-28T08:00:07Z</time>
      </trkpt>
      <trkpt lat="46.33933" lon="6.20407">
        <ele>382.5</ele>
        <time>2022-09-28T08:00:08Z</time>
      </trkpt>
      <trkpt lat="46.33936" lon="6.2041">
        <ele>382.6</ele>
        <time>2022-09-28T08:00:09Z</time>
      </trkpt>
      <trkpt lat="46.3394" lon="6.20413">
        <ele>382.6</ele>
        <time>2022-09-28T08:00:10Z</time>
      </trkpt>
      <trkpt lat="46.33944" lon="6.20416">
        <ele>382.6</ele>
        <time>2022-09-28T08:00:11Z</time>
      </trkpt>
      <trkpt lat="46.33949" lon="6.20419">
        <ele>382.7</ele>
        <time>2022-09-28T08:00:12Z</time>
      </trkpt>
      <trkpt lat="46.33953" lon="6.20421">
        <ele>382.7</ele>
        <time>2022-09-28T08:00:13Z</time>
      </trkpt>
      <trkpt lat="46.33957" lon="6.20425">
        <ele>382.7</ele>
        <time>2022-09-28T08:00:14Z</time>
      </trkpt>
      <trkpt lat="46.33961" lon="6.20428">
        <ele>382.7</ele>
        <time>2022-09-28T08:00:15Z</time>
      </trkpt>
      <trkpt lat="46.33965" lon="6.20432">
        <ele>382.8</ele>
        <time>2022-09-28T08:00:16Z</time>
      </trkpt>
      <trkpt lat="46.33969" lon="6.20435">
        <ele>382.8</ele>
        <time>2022-09-28T08:00:17Z</time>
      </trkpt>
      <trkpt lat="46.33973" lon="6.20439">
        <ele>382.8</ele>
        <time>2022-09-28T08:00:18Z</time>
      </trkpt>
      <trkpt lat="46.33978" lon="6.20442">
        <ele>382.8</ele>
        <time>2022-09-28T08:00:19Z</time>
      </trkpt>
      <trkpt lat="46.33981" lon="6.20444">
        <ele>382.8</ele>
        <time>2022-09-28T08:00:20Z</time>
      </trkpt>
      <trkpt lat="46.33986" lon="6.20448">
        <ele>382.8</ele>
        <time>2022-09-28T08:00:21Z</time>
      </trkpt>
      <trkpt lat="46.3399" lon="6.20451">
        <ele>382.8</ele>
        <time>2022-09-28T08:00:22Z</time>
      </trkpt>
      <trkpt lat="46.33993" lon="6.20454">
        <ele>382.7</ele>
        <time>2022-09-28T08:00:23Z</time>
      </trkpt>
      <trkpt lat="46.33997" lon="6.20457">
        <ele>382.7</ele>
        <time>2022-09-28T08:00:24Z</time>
      </trkpt>
      <trkpt lat="46.34002" lon="6.2046">
        <ele>382.7</ele>
        <time>2022-09-28T08:00:25Z</time>
      </trkpt>
      <trkpt lat="46.34006" lon="6.20462">
        <ele>382.7</ele>
        <time>2022-09-28T08:00:26Z</time>
      </trkpt>
      <trkpt lat="46.34011" lon="6.20464">
        <ele>382.7</ele>
        <time>2022-09-28T08:00:27Z</time>
      </trkpt>
      <trkpt lat="46.34015" lon="6.20465">
        <ele>382.7</ele>
        <time>2022-09-28T08:00:28Z</time>
      </trkpt>
      <trkpt lat="46.34019" lon="6.20469">
        <ele>382.6</ele>
        <time>2022-09-28T08:00:29Z</time>
      </trkpt>
      <trkpt lat="46.34025" lon="6.20472">
        <ele>382.6</ele>
        <time>2022-09-28T08:00:30Z</time>
      </trkpt>
      <trkpt lat="46.34029" lon="6.20477">
        <ele>382.6</ele>
        <time>2022-09-28T08:00:31Z</time>
      </trkpt>
      <trkpt lat="46.34035" lon="6.2048">
        <ele>382.5</ele>
        <time>2022-09-28T08:00:32Z</time>
      </trkpt>
      <trkpt lat="46.34041" lon="6.20483">
        <ele>382.5</ele>
        <time>2022-09-28T08:00:33Z</time>
      </trkpt>
      <trkpt lat="46.34047" lon="6.20485">
        <ele>382.4</ele>
        <time>2022-09-28T08:00:34Z</time>
      </trkpt>
      <trkpt lat="46.34052" lon="6.20486">
        <ele>382.4</ele>
        <time>2022-09-28T08:00:35Z</time>
      </trkpt>
      <trkpt lat="46.34057" lon="6.20487">
        <ele>382.3</ele>
        <time>2022-09-28T08:00:36Z</time>
      </trkpt>
      <trkpt lat="46.34063" lon="6.20491">
        <ele>382.3</ele>
        <time>2022-09-28T08:00:37Z</time>
      </trkpt>
      <trkpt lat="46.34069" lon="6.20495">
        <ele>382.2</ele>
        <time>2022-09-28T08:00:38Z</time>
      </trkpt>
      <trkpt lat="46.34075" lon="6.20497">
        <ele>382.1</ele>
        <time>2022-09-28T08:00:39Z</time>
      </trkpt>
      <trkpt lat="46.34081" lon="6.205">
        <ele>382.1</ele>
        <time>2022-09-28T08:00:40Z</time>
      </trkpt>
      <trkpt lat="46.34087" lon="6.20502">
        <ele>382</ele>
        <time>2022-09-28T08:00:41Z</time>
      </trkpt>
      <trkpt lat="46.34093" lon="6.20504">
        <ele>382</ele>
        <time>2022-09-28T08:00:42Z</time>
      </trkpt>
      <trkpt lat="46.34099" lon="6.20508">
        <ele>381.9</ele>
        <time>2022-09-28T08:00:43Z</time>
      </trkpt>
      <trkpt lat="46.34105" lon="6.2051">
        <ele>381.9</ele>
        <time>2022-09-28T08:00:44Z</time>
      </trkpt>
      <trkpt lat="46.34112" lon="6.20512">
        <ele>381.9</ele>
        <time>2022-09-28T08:00:45Z</time>
      </trkpt>
      <trkpt lat="46.34118" lon="6.20514">
        <ele>381.8</ele>
        <time>2022-09-28T08:00:46Z</time>
      </trkpt>
      <trkpt lat="46.34123" lon="6.20516">
        <ele>381.8</ele>
        <time>2022-09-28T08:00:47Z</time>
      </trkpt>
      <trkpt lat="46.34128" lon="6.20519">
        <ele>381.8</ele>
        <time>2022-09-28T08:00:48Z</time>
      </trkpt>
      <trkpt lat="46.34134" lon="6.20521">
        <ele>381.7</ele>
        <time>2022-09-28T08:00:49Z</time>
      </trkpt>
      <trkpt lat="46.3414" lon="6.20523">
        <ele>381.7</ele>
        <time>2022-09-28T08:00:50Z</time>
      </trkpt>
      <trkpt lat="46.34146" lon="6.20525">
        <ele>381.6</ele>
        <time>2022-09-28T08:00:51Z</time>
      </trkpt>
      <trkpt lat="46.34152" lon="6.20527">
        <ele>381.6</ele>
        <time>2022-09-28T08:00:52Z</time>
      </trkpt>
      <trkpt lat="46.34158" lon="6.20529">
        <ele>381.6</ele>
        <time>2022-09-28T08:00:53Z</time>
      </trkpt>
      <trkpt lat="46.34163" lon="6.20531">
        <ele>381.5</ele>
        <time>2022-09-28T08:00:54Z</time>
      </trkpt>
      <trkpt lat="46.34169" lon="6.20532">
        <ele>381.5</ele>
        <time>2022-09-28T08:00:55Z</time>
      </trkpt>
      <trkpt lat="46.34175" lon="6.20534">
        <ele>381.5</ele>
        <time>2022-09-28T08:00:56Z</time>
      </trkpt>
      <trkpt lat="46.3418" lon="6.20536">
        <ele>381.4</ele>
        <time>2022-09-28T08:00:57Z</time>
      </trkpt>
      <trkpt lat="46.34186" lon="6.20538">
        <ele>381.4</ele>
        <time>2022-09-28T08:00:58Z</time>
      </trkpt>
      <trkpt lat="46.34192" lon="6.20539">
        <ele>381.4</ele>
        <time>2022-09-28T08:00:59Z</time>
      </trkpt>
      <trkpt lat="46.34199" lon="6.20541">
        <ele>381.3</ele>
        <time>2022-09-28T08:01:00Z</time>
      </trkpt>
      <trkpt lat="46.34204" lon="6.20542">
        <ele>381.3</ele>
        <time>2022-09-28T08:01:01Z</time>
      </trkpt>
      <trkpt lat="46.34209" lon="6.20544">
        <ele>381.3</ele>
        <time>2022-09-28T08:01:02Z</time>
      </trkpt>
      <trkpt lat="46.34215" lon="6.20545">
        <ele>381.3</ele>
        <time>2022-09-28T08:01:03Z</time>
      </trkpt>
      <trkpt lat="46.34221" lon="6.20547">
        <ele>381.3</ele>
        <time>2022-09-28T08:01:04Z</time>
      </trkpt>
      <trkpt lat="46.34226" lon="6.20547">
        <ele>381.2</ele>
        <time>2022-09-28T08:01:05Z</time>
      </trkpt>
      <trkpt lat="46.34231" lon="6.20549">
        <ele>381.2</ele>
        <time>2022-09-28T08:01:06Z</time>
      </trkpt>
      <trkpt lat="46.34237" lon="6.20551">
        <ele>381.2</ele>
        <time>2022-09-28T08:01:07Z</time>
      </trkpt>
      <trkpt lat="46.34243" lon="6.20553">
        <ele>381.1</ele>
        <time>2022-09-28T08:01:08Z</time>
      </trkpt>
      <trkpt lat="46.34249" lon="6.20554">
        <ele>381.1</ele>
        <time>2022-09-28T08:01:09Z</time>
      </trkpt>
      <trkpt lat="46.34255" lon="6.20556">
        <ele>381.1</ele>
        <time>2022-09-28T08:01:10Z</time>
      </trkpt>
      <trkpt lat="46.34261" lon="6.20557">
        <ele>381</ele>
        <time>2022-09-28T08:01:11Z</time>
      </trkpt>
      <trkpt lat="46.34266" lon="6.20558">
        <ele>381</ele>
        <time>2022-09-28T08:01:12Z</time>
      </trkpt>
      <trkpt lat="46.34272" lon="6.20559">
        <ele>380.9</ele>
        <time>2022-09-28T08:01:13Z</time>
      </trkpt>
      <trkpt lat="46.34277" lon="6.20561">
        <ele>380.8</ele>
        <time>2022-09-28T08:01:14Z</time>
      </trkpt>
      <trkpt lat="46.34283" lon="6.20562">
        <ele>380.8</ele>
        <time>2022-09-28T08:01:15Z</time>
      </trkpt>
      <trkpt lat="46.3429" lon="6.20565">
        <ele>380.7</ele>
        <time>2022-09-28T08:01:16Z</time>
      </trkpt>
      <trkpt lat="46.34296" lon="6.20566">
        <ele>380.7</ele>
        <time>2022-09-28T08:01:17Z</time>
      </trkpt>
      <trkpt lat="46.34303" lon="6.20567">
        <ele>380.6</ele>
        <time>2022-09-28T08:01:18Z</time>
      </trkpt>
      <trkpt lat="46.34309" lon="6.20569">
        <ele>380.6</ele>
        <time>2022-09-28T08:01:19Z</time>
      </trkpt>
      <trkpt lat="46.34315" lon="6.20571">
        <ele>380.5</ele>
        <time>2022-09-28T08:01:20Z</time>
      </trkpt>
      <trkpt lat="46.34322" lon="6.20572">
        <ele>380.5</ele>
        <time>2022-09-28T08:01:21Z</time>
      </trkpt>
      <trkpt lat="46.34329" lon="6.20573">
        <ele>380.4</ele>
        <time>2022-09-28T08:01:22Z</time>
      </trkpt>
      <trkpt lat="46.34334" lon="6.20575">
        <ele>380.4</ele>
        <time>2022-09-28T08:01:23Z</time>
      </trkpt>
      <trkpt lat="46.34341" lon="6.20576">
        <ele>380.4</ele>
        <time>2022-09-28T08:01:24Z</time>
      </trkpt>
      <trkpt lat="46.34348" lon="6.20578">
        <ele>380.3</ele>
        <time>2022-09-28T08:01:25Z</time>
      </trkpt>
      <trkpt lat="46.34355" lon="6.20579">
        <ele>380.3</ele>
        <time>2022-09-28T08:01:26Z</time>
      </trkpt>
      <trkpt lat="46.34362" lon="6.2058">
        <ele>380.2</ele>
        <time>2022-09-28T08:01:27Z</time>
      </trkpt>
      <trkpt lat="46.34369" lon="6.20581">
        <ele>380.2</ele>
        <time>2022-09-28T08:01:28Z</time>
      </trkpt>
      <trkpt lat="46.34375" lon="6.20582">
        <ele>380.1</ele>
        <time>2022-09-28T08:01:29Z</time>
      </trkpt>
      <trkpt lat="46.34382" lon="6.20584">
        <ele>380.1</ele>
        <time>2022-09-28T08:01:30Z</time>
      </trkpt>
      <trkpt lat="46.34389" lon="6.20587">
        <ele>380</ele>
        <time>2022-09-28T08:01:31Z</time>
      </trkpt>
      <trkpt lat="46.34396" lon="6.20588">
        <ele>380</ele>
        <time>2022-09-28T08:01:32Z</time>
      </trkpt>
      <trkpt lat="46.34403" lon="6.20589">
        <ele>380</ele>
        <time>2022-09-28T08:01:33Z</time>
      </trkpt>
      <trkpt lat="46.34408" lon="6.20591">
        <ele>379.9</ele>
        <time>2022-09-28T08:01:34Z</time>
      </trkpt>
      <trkpt lat="46.34415" lon="6.20592">
        <ele>379.9</ele>
        <time>2022-09-28T08:01:35Z</time>
      </trkpt>
      <trkpt lat="46.34422" lon="6.20594">
        <ele>379.8</ele>
        <time>2022-09-28T08:01:36Z</time>
      </trkpt>
      <trkpt lat="46.34429" lon="6.20596">
        <ele>379.8</ele>
        <time>2022-09-28T08:01:37Z</time>
      </trkpt>
      <trkpt lat="46.34437" lon="6.20598">
        <ele>379.8</ele>
        <time>2022-09-28T08:01:38Z</time>
      </trkpt>
      <trkpt lat="46.34443" lon="6.20599">
        <ele>379.8</ele>
        <time>2022-09-28T08:01:39Z</time>
      </trkpt>
      <trkpt lat="46.3445" lon="6.206">
        <ele>379.7</ele>
        <time>2022-09-28T08:01:40Z</time>
      </trkpt>
      <trkpt lat="46.34457" lon="6.20603">
        <ele>379.7</ele>
        <time>2022-09-28T08:01:41Z</time>
      </trkpt>
      <trkpt lat="46.34465" lon="6.20605">
        <ele>379.6</ele>
        <time>2022-09-28T08:01:42Z</time>
      </trkpt>
      <trkpt lat="46.34472" lon="6.20606">
        <ele>379.6</ele>
        <time>2022-09-28T08:01:43Z</time>
      </trkpt>
      <trkpt lat="46.34479" lon="6.20607">
        <ele>379.6</ele>
        <time>2022-09-28T08:01:44Z</time>
      </trkpt>
      <trkpt lat="46.34485" lon="6.2061">
        <ele>379.5</ele>
        <time>2022-09-28T08:01:45Z</time>
      </trkpt>
      <trkpt lat="46.34492" lon="6.20611">
        <ele>379.5</ele>
        <time>2022-09-28T08:01:46Z</time>
      </trkpt>
      <trkpt lat="46.34499" lon="6.20613">
        <ele>379.5</ele>
        <time>2022-09-28T08:01:47Z</time>
      </trkpt>
      <trkpt lat="46.34505" lon="6.20614">
        <ele>379.5</ele>
        <time>2022-09-28T08:01:48Z</time>
      </trkpt>
      <trkpt lat="46.34512" lon="6.20616">
        <ele>379.5</ele>
        <time>2022-09-28T08:01:49Z</time>
      </trkpt>
      <trkpt lat="46.34518" lon="6.20618">
        <ele>379.5</ele>
        <time>2022-09-28T08:01:50Z</time>
      </trkpt>
      <trkpt lat="46.34524" lon="6.20619">
        <ele>379.5</ele>
        <time>2022-09-28T08:01:51Z</time>
      </trkpt>
      <trkpt lat="46.3453" lon="6.20619">
        <ele>379.5</ele>
        <time>2022-09-28T08:01:52Z</time>
      </trkpt>
      <trkpt lat="46.34535" lon="6.20621">
        <ele>379.5</ele>
        <time>2022-09-28T08:01:53Z</time>
      </trkpt>
      <trkpt lat="46.34541" lon="6.20623">
        <ele>379.5</ele>
        <time>2022-09-28T08:01:54Z</time>
      </trkpt>
      <trkpt lat="46.34546" lon="6.20624">
        <ele>379.5</ele>
        <time>2022-09-28T08:01:55Z</time>
      </trkpt>
      <trkpt lat="46.34552" lon="6.20624">
        <ele>379.5</ele>
        <time>2022-09-28T08:01:56Z</time>
      </trkpt>
      <trkpt lat="46.34558" lon="6.20624">
        <ele>379.5</ele>
        <time>2022-09-28T08:01:57Z</time>
      </trkpt>
      <trkpt lat="46.34565" lon="6.20624">
        <ele>379.5</ele>
        <time>2022-09-28T08:01:58Z</time>
      </trkpt>
      <trkpt lat="46.34572" lon="6.20627">
        <ele>379.4</ele>
        <time>2022-09-28T08:01:59Z</time>
      </trkpt>
      <trkpt lat="46.34578" lon="6.20628">
        <ele>379.4</ele>
        <time>2022-09-28T08:02:00Z</time>
      </trkpt>
      <trkpt lat="46.34584" lon="6.2063">
        <ele>379.4</ele>
        <time>2022-09-28T08:02:01Z</time>
      </trkpt>
      <trkpt lat="46.3459" lon="6.20631">
        <ele>379.4</ele>
        <time>2022-09-28T08:02:02Z</time>
      </trkpt>
      <trkpt lat="46.34597" lon="6.20633">
        <ele>379.4</ele>
        <time>2022-09-28T08:02:03Z</time>
      </trkpt>
      <trkpt lat="46.34602" lon="6.20635">
        <ele>379.4</ele>
        <time>2022-09-28T08:02:04Z</time>
      </trkpt>
      <trkpt lat="46.34608" lon="6.20636">
        <ele>379.4</ele>
        <time>2022-09-28T08:02:05Z</time>
      </trkpt>
      <trkpt lat="46.34613" lon="6.20636">
        <ele>379.4</ele>
        <time>2022-09-28T08:02:06Z</time>
      </trkpt>
      <trkpt lat="46.3462" lon="6.20638">
        <ele>379.4</ele>
        <time>2022-09-28T08:02:07Z</time>
      </trkpt>
      <trkpt lat="46.34626" lon="6.2064">
        <ele>379.4</ele>
        <time>2022-09-28T08:02:08Z</time>
      </trkpt>
      <trkpt lat="46.34632" lon="6.2064">
        <ele>379.4</ele>
        <time>2022-09-28T08:02:09Z</time>
      </trkpt>
      <trkpt lat="46.34638" lon="6.20643">
        <ele>379.5</ele>
        <time>2022-09-28T08:02:10Z</time>
      </trkpt>
      <trkpt lat="46.34644" lon="6.20644">
        <ele>379.5</ele>
        <time>2022-09-28T08:02:11Z</time>
      </trkpt>
      <trkpt lat="46.34649" lon="6.20646">
        <ele>379.5</ele>
        <time>2022-09-28T08:02:12Z</time>
      </trkpt>
      <trkpt lat="46.34654" lon="6.20647">
        <ele>379.5</ele>
        <time>2022-09-28T08:02:13Z</time>
      </trkpt>
      <trkpt lat="46.34659" lon="6.20649">
        <ele>379.5</ele>
        <time>2022-09-28T08:02:14Z</time>
      </trkpt>
      <trkpt lat="46.34664" lon="6.2065">
        <ele>379.5</ele>
        <time>2022-09-28T08:02:15Z</time>
      </trkpt>
      <trkpt lat="46.3467" lon="6.20651">
        <ele>379.6</ele>
        <time>2022-09-28T08:02:16Z</time>
      </trkpt>
      <trkpt lat="46.34674" lon="6.20652">
        <ele>379.6</ele>
        <time>2022-09-28T08:02:17Z</time>
      </trkpt>
      <trkpt lat="46.34679" lon="6.20653">
        <ele>379.6</ele>
        <time>2022-09-28T08:02:18Z</time>
      </trkpt>
      <trkpt lat="46.34684" lon="6.20655">
        <ele>379.6</ele>
        <time>2022-09-28T08:02:19Z</time>
      </trkpt>
      <trkpt lat="46.3469" lon="6.20656">
        <ele>379.6</ele>
        <time>2022-09-28T08:02:20Z</time>
      </trkpt>
      <trkpt lat="46.34694" lon="6.20657">
        <ele>379.6</ele>
        <time>2022-09-28T08:02:21Z</time>
      </trkpt>
      <trkpt lat="46.34699" lon="6.20657">
        <ele>379.7</ele>
        <time>2022-09-28T08:02:22Z</time>
      </trkpt>
      <trkpt lat="46.34703" lon="6.20659">
        <ele>379.7</ele>
        <time>2022-09-28T08:02:23Z</time>
      </trkpt>
      <trkpt lat="46.34707" lon="6.2066">
        <ele>379.7</ele>
        <time>2022-09-28T08:02:24Z</time>
      </trkpt>
      <trkpt lat="46.34712" lon="6.20662">
        <ele>379.7</ele>
        <time>2022-09-28T08:02:25Z</time>
      </trkpt>
      <trkpt lat="46.34717" lon="6.20663">
        <ele>379.7</ele>
        <time>2022-09-28T08:02:26Z</time>
      </trkpt>
      <trkpt lat="46.34722" lon="6.20664">
        <ele>379.8</ele>
        <time>2022-09-28T08:02:27Z</time>
      </trkpt>
      <trkpt lat="46.34727" lon="6.20665">
        <ele>379.8</ele>
        <time>2022-09-28T08:02:28Z</time>
      </trkpt>
      <trkpt lat="46.34732" lon="6.20666">
        <ele>379.8</ele>
        <time>2022-09-28T08:02:29Z</time>
      </trkpt>
      <trkpt lat="46.34737" lon="6.20669">
        <ele>379.8</ele>
        <time>2022-09-28T08:02:30Z</time>
      </trkpt>
      <trkpt lat="46.34742" lon="6.20669">
        <ele>379.8</ele>
        <time>2022-09-28T08:02:31Z</time>
      </trkpt>
      <trkpt lat="46.34747" lon="6.2067">
        <ele>379.9</ele>
        <time>2022-09-28T08:02:32Z</time>
      </trkpt>
      <trkpt lat="46.34751" lon="6.20671">
        <ele>379.9</ele>
        <time>2022-09-28T08:02:33Z</time>
      </trkpt>
      <trkpt lat="46.34756" lon="6.20672">
        <ele>379.9</ele>
        <time>2022-09-28T08:02:34Z</time>
      </trkpt>
      <trkpt lat="46.34761" lon="6.20673">
        <ele>379.9</ele>
        <time>2022-09-28T08:02:35Z</time>
      </trkpt>
      <trkpt lat="46.34766" lon="6.20674">
        <ele>379.9</ele>
        <time>2022-09-28T08:02:36Z</time>
      </trkpt>
      <trkpt lat="46.3477" lon="6.20675">
        <ele>379.9</ele>
        <time>2022-09-28T08:02:37Z</time>
      </trkpt>
      <trkpt lat="46.34776" lon="6.20676">
        <ele>379.9</ele>
        <time>2022-09-28T08:02:38Z</time>
      </trkpt>
      <trkpt lat="46.34781" lon="6.20678">
        <ele>379.9</ele>
        <time>2022-09-28T08:02:39Z</time>
      </trkpt>
      <trkpt lat="46.34786" lon="6.2068">
        <ele>379.9</ele>
        <time>2022-09-28T08:02:40Z</time>
      </trkpt>
      <trkpt lat="46.34791" lon="6.20681">
        <ele>380</ele>
        <time>2022-09-28T08:02:41Z</time>
      </trkpt>
      <trkpt lat="46.34796" lon="6.20683">
        <ele>380</ele>
        <time>2022-09-28T08:02:42Z</time>
      </trkpt>
      <trkpt lat="46.34801" lon="6.20684">
        <ele>380</ele>
        <time>2022-09-28T08:02:43Z</time>
      </trkpt>
      <trkpt lat="46.34806" lon="6.20685">
        <ele>380</ele>
        <time>2022-09-28T08:02:44Z</time>
      </trkpt>
      <trkpt lat="46.3481" lon="6.20687">
        <ele>380.1</ele>
        <time>2022-09-28T08:02:45Z</time>
      </trkpt>
      <trkpt lat="46.34814" lon="6.20689">
        <ele>380.1</ele>
        <time>2022-09-28T08:02:46Z</time>
      </trkpt>
      <trkpt lat="46.34818" lon="6.20691">
        <ele>380.1</ele>
        <time>2022-09-28T08:02:47Z</time>
      </trkpt>
      <trkpt lat="46.34822" lon="6.20691">
        <ele>380.2</ele>
        <time>2022-09-28T08:02:48Z</time>
      </trkpt>
      <trkpt lat="46.34827" lon="6.20693">
        <ele>380.2</ele>
        <time>2022-09-28T08:02:49Z</time>
      </trkpt>
      <trkpt lat="46.3483" lon="6.20694">
        <ele>380.2</ele>
        <time>2022-09-28T08:02:50Z</time>
      </trkpt>
      <trkpt lat="46.34833" lon="6.20694">
        <ele>380.3</ele>
        <time>2022-09-28T08:02:51Z</time>
      </trkpt>
      <trkpt lat="46.34836" lon="6.20696">
        <ele>380.3</ele>
        <time>2022-09-28T08:02:52Z</time>
      </trkpt>
      <trkpt lat="46.34838" lon="6.20696">
        <ele>380.3</ele>
        <time>2022-09-28T08:02:53Z</time>
      </trkpt>
      <trkpt lat="46.34841" lon="6.20699">
        <ele>380.3</ele>
        <time>2022-09-28T08:02:54Z</time>
      </trkpt>
      <trkpt lat="46.34845" lon="6.207">
        <ele>380.4</ele>
        <time>2022-09-28T08:02:55Z</time>
      </trkpt>
      <trkpt lat="46.34849" lon="6.20701">
        <ele>380.4</ele>
        <time>2022-09-28T08:02:56Z</time>
      </trkpt>
      <trkpt lat="46.34852" lon="6.20702">
        <ele>380.4</ele>
        <time>2022-09-28T08:02:57Z</time>
      </trkpt>
      <trkpt lat="46.34857" lon="6.20702">
        <ele>380.5</ele>
        <time>2022-09-28T08:02:58Z</time>
      </trkpt>
      <trkpt lat="46.3486" lon="6.20704">
        <ele>380.5</ele>
        <time>2022-09-28T08:02:59Z</time>
      </trkpt>
      <trkpt lat="46.34863" lon="6.20706">
        <ele>380.6</ele>
        <time>2022-09-28T08:03:00Z</time>
      </trkpt>
      <trkpt lat="46.34867" lon="6.20707">
        <ele>380.6</ele>
        <time>2022-09-28T08:03:01Z</time>
      </trkpt>
      <trkpt lat="46.3487" lon="6.20708">
        <ele>380.6</ele>
        <time>2022-09-28T08:03:02Z</time>
      </trkpt>
      <trkpt lat="46.34874" lon="6.20709">
        <ele>380.7</ele>
        <time>2022-09-28T08:03:03Z</time>
      </trkpt>
      <trkpt lat="46.34878" lon="6.20711">
        <ele>380.7</ele>
        <time>2022-09-28T08:03:04Z</time>
      </trkpt>
      <trkpt lat="46.34882" lon="6.20712">
        <ele>380.6</ele>
        <time>2022-09-28T08:03:05Z</time>
      </trkpt>
      <trkpt lat="46.34886" lon="6.20714">
        <ele>380.6</ele>
        <time>2022-09-28T08:03:06Z</time>
      </trkpt>
      <trkpt lat="46.34889" lon="6.20716">
        <ele>380.6</ele>
        <time>2022-09-28T08:03:07Z</time>
      </trkpt>
      <trkpt lat="46.34893" lon="6.20717">
        <ele>380.6</ele>
        <time>2022-09-28T08:03:08Z</time>
      </trkpt>
      <trkpt lat="46.34896" lon="6.20719">
        <ele>380.7</ele>
        <time>2022-09-28T08:03:09Z</time>
      </trkpt>
      <trkpt lat="46.34901" lon="6.2072">
        <ele>380.7</ele>
        <time>2022-09-28T08:03:10Z</time>
      </trkpt>
      <trkpt lat="46.34904" lon="6.20721">
        <ele>380.7</ele>
        <time>2022-09-28T08:03:11Z</time>
      </trkpt>
      <trkpt lat="46.34907" lon="6.20723">
        <ele>380.7</ele>
        <time>2022-09-28T08:03:12Z</time>
      </trkpt>
      <trkpt lat="46.34911" lon="6.20725">
        <ele>380.7</ele>
        <time>2022-09-28T08:03:13Z</time>
      </trkpt>
      <trkpt lat="46.34915" lon="6.20726">
        <ele>380.7</ele>
        <time>2022-09-28T08:03:14Z</time>
      </trkpt>
      <trkpt lat="46.34919" lon="6.20728">
        <ele>380.7</ele>
        <time>2022-09-28T08:03:15Z</time>
      </trkpt>
      <trkpt lat="46.34923" lon="6.2073">
        <ele>380.8</ele>
        <time>2022-09-28T08:03:16Z</time>
      </trkpt>
      <trkpt lat="46.34926" lon="6.20731">
        <ele>380.8</ele>
        <time>2022-09-28T08:03:17Z</time>
      </trkpt>
      <trkpt lat="46.3493" lon="6.20734">
        <ele>380.8</ele>
        <time>2022-09-28T08:03:18Z</time>
      </trkpt>
      <trkpt lat="46.34934" lon="6.20736">
        <ele>380.8</ele>
        <time>2022-09-28T08:03:19Z</time>
      </trkpt>
      <trkpt lat="46.34939" lon="6.20738">
        <ele>380.8</ele>
        <time>2022-09-28T08:03:20Z</time>
      </trkpt>
      <trkpt lat="46.34943" lon="6.2074">
        <ele>380.8</ele>
        <time>2022-09-28T08:03:21Z</time>
      </trkpt>
      <trkpt lat="46.34947" lon="6.20741">
        <ele>380.9</ele>
        <time>2022-09-28T08:03:22Z</time>
      </trkpt>
      <trkpt lat="46.34951" lon="6.20744">
        <ele>380.9</ele>
        <time>2022-09-28T08:03:23Z</time>
      </trkpt>
      <trkpt lat="46.34955" lon="6.20746">
        <ele>380.9</ele>
        <time>2022-09-28T08:03:24Z</time>
      </trkpt>
      <trkpt lat="46.3496" lon="6.20749">
        <ele>380.9</ele>
        <time>2022-09-28T08:03:25Z</time>
      </trkpt>
      <trkpt lat="46.34964" lon="6.20751">
        <ele>380.9</ele>
        <time>2022-09-28T08:03:26Z</time>
      </trkpt>
      <trkpt lat="46.34968" lon="6.20754">
        <ele>381</ele>
        <time>2022-09-28T08:03:27Z</time>
      </trkpt>
      <trkpt lat="46.34972" lon="6.20755">
        <ele>381</ele>
        <time>2022-09-28T08:03:28Z</time>
      </trkpt>
      <trkpt lat="46.34976" lon="6.20758">
        <ele>381</ele>
        <time>2022-09-28T08:03:29Z</time>
      </trkpt>
      <trkpt lat="46.34981" lon="6.20761">
        <ele>381.1</ele>
        <time>2022-09-28T08:03:30Z</time>
      </trkpt>
      <trkpt lat="46.34986" lon="6.20764">
        <ele>381.1</ele>
        <time>2022-09-28T08:03:31Z</time>
      </trkpt>
      <trkpt lat="46.3499" lon="6.20766">
        <ele>381.1</ele>
        <time>2022-09-28T08:03:32Z</time>
      </trkpt>
      <trkpt lat="46.34993" lon="6.20768">
        <ele>381.1</ele>
        <time>2022-09-28T08:03:33Z</time>
      </trkpt>
      <trkpt lat="46.34997" lon="6.20771">
        <ele>381.1</ele>
        <time>2022-09-28T08:03:34Z</time>
      </trkpt>
      <trkpt lat="46.35001" lon="6.20774">
        <ele>381.1</ele>
        <time>2022-09-28T08:03:35Z</time>
      </trkpt>
      <trkpt lat="46.35006" lon="6.20777">
        <ele>381.2</ele>
        <time>2022-09-28T08:03:36Z</time>
      </trkpt>
      <trkpt lat="46.3501" lon="6.20779">
        <ele>381.2</ele>
        <time>2022-09-28T08:03:37Z</time>
      </trkpt>
      <trkpt lat="46.35015" lon="6.20781">
        <ele>381.2</ele>
        <time>2022-09-28T08:03:38Z</time>
      </trkpt>
      <trkpt lat="46.35018" lon="6.20784">
        <ele>381.2</ele>
        <time>2022-09-28T08:03:39Z</time>
      </trkpt>
      <trkpt lat="46.35023" lon="6.20787">
        <ele>381.2</ele>
        <time>2022-09-28T08:03:40Z</time>
      </trkpt>
      <trkpt lat="46.35027" lon="6.2079">
        <ele>381.3</ele>
        <time>2022-09-28T08:03:41Z</time>
      </trkpt>
      <trkpt lat="46.35032" lon="6.20793">
        <ele>381.3</ele>
        <time>2022-09-28T08:03:42Z</time>
      </trkpt>
      <trkpt lat="46.35036" lon="6.20796">
        <ele>381.3</ele>
        <time>2022-09-28T08:03:43Z</time>
      </trkpt>
      <trkpt lat="46.35041" lon="6.20799">
        <ele>381.3</ele>
        <time>2022-09-28T08:03:44Z</time>
      </trkpt>
      <trkpt lat="46.35045" lon="6.20802">
        <ele>381.3</ele>
        <time>2022-09-28T08:03:45Z</time>
      </trkpt>
      <trkpt lat="46.35049" lon="6.20806">
        <ele>381.3</ele>
        <time>2022-09-28T08:03:46Z</time>
      </trkpt>
      <trkpt lat="46.35055" lon="6.20809">
        <ele>381.3</ele>
        <time>2022-09-28T08:03:47Z</time>
      </trkpt>
      <trkpt lat="46.35059" lon="6.20813">
        <ele>381.3</ele>
        <time>2022-09-28T08:03:48Z</time>
      </trkpt>
      <trkpt lat="46.35063" lon="6.20816">
        <ele>381.4</ele>
        <time>2022-09-28T08:03:49Z</time>
      </trkpt>
      <trkpt lat="46.35068" lon="6.20819">
        <ele>381.4</ele>
        <time>2022-09-28T08:03:50Z</time>
      </trkpt>
      <trkpt lat="46.35072" lon="6.20823">
        <ele>381.4</ele>
        <time>2022-09-28T08:03:51Z</time>
      </trkpt>
      <trkpt lat="46.35077" lon="6.20825">
        <ele>381.4</ele>
        <time>2022-09-28T08:03:52Z</time>
      </trkpt>
      <trkpt lat="46.35081" lon="6.20829">
        <ele>381.5</ele>
        <time>2022-09-28T08:03:53Z</time>
      </trkpt>
      <trkpt lat="46.35085" lon="6.20832">
        <ele>381.5</ele>
        <time>2022-09-28T08:03:54Z</time>
      </trkpt>
      <trkpt lat="46.35089" lon="6.20835">
        <ele>381.5</ele>
        <time>2022-09-28T08:03:55Z</time>
      </trkpt>
      <trkpt lat="46.35094" lon="6.20839">
        <ele>381.5</ele>
        <time>2022-09-28T08:03:56Z</time>
      </trkpt>
      <trkpt lat="46.35098" lon="6.20842">
        <ele>381.5</ele>
        <time>2022-09-28T08:03:57Z</time>
      </trkpt>
      <trkpt lat="46.35102" lon="6.20845">
        <ele>381.5</ele>
        <time>2022-09-28T08:03:58Z</time>
      </trkpt>
      <trkpt lat="46.35107" lon="6.2085">
        <ele>381.5</ele>
        <time>2022-09-28T08:03:59Z</time>
      </trkpt>
      <trkpt lat="46.35112" lon="6.20853">
        <ele>381.5</ele>
        <time>2022-09-28T08:04:00Z</time>
      </trkpt>
      <trkpt lat="46.35116" lon="6.20857">
        <ele>381.5</ele>
        <time>2022-09-28T08:04:01Z</time>
      </trkpt>
      <trkpt lat="46.35121" lon="6.20862">
        <ele>381.5</ele>
        <time>2022-09-28T08:04:02Z</time>
      </trkpt>
      <trkpt lat="46.35125" lon="6.20865">
        <ele>381.5</ele>
        <time>2022-09-28T08:04:03Z</time>
      </trkpt>
      <trkpt lat="46.35129" lon="6.20868">
        <ele>381.5</ele>
        <time>2022-09-28T08:04:04Z</time>
      </trkpt>
      <trkpt lat="46.35134" lon="6.20873">
        <ele>381.6</ele>
        <time>2022-09-28T08:04:05Z</time>
      </trkpt>
      <trkpt lat="46.35137" lon="6.20876">
        <ele>381.6</ele>
        <time>2022-09-28T08:04:06Z</time>
      </trkpt>
      <trkpt lat="46.35142" lon="6.2088">
        <ele>381.6</ele>
        <time>2022-09-28T08:04:07Z</time>
      </trkpt>
      <trkpt lat="46.35147" lon="6.20884">
        <ele>381.6</ele>
        <time>2022-09-28T08:04:08Z</time>
      </trkpt>
      <trkpt lat="46.35151" lon="6.20888">
        <ele>381.6</ele>
        <time>2022-09-28T08:04:09Z</time>
      </trkpt>
      <trkpt lat="46.35155" lon="6.20892">
        <ele>381.6</ele>
        <time>2022-09-28T08:04:10Z</time>
      </trkpt>
      <trkpt lat="46.35159" lon="6.20897">
        <ele>381.6</ele>
        <time>2022-09-28T08:04:11Z</time>
      </trkpt>
      <trkpt lat="46.35164" lon="6.20901">
        <ele>381.6</ele>
        <time>2022-09-28T08:04:12Z</time>
      </trkpt>
      <trkpt lat="46.35169" lon="6.20904">
        <ele>381.6</ele>
        <time>2022-09-28T08:04:13Z</time>
      </trkpt>
      <trkpt lat="46.35174" lon="6.20909">
        <ele>381.6</ele>
        <time>2022-09-28T08:04:14Z</time>
      </trkpt>
      <trkpt lat="46.35178" lon="6.20913">
        <ele>381.6</ele>
        <time>2022-09-28T08:04:15Z</time>
      </trkpt>
      <trkpt lat="46.35183" lon="6.20917">
        <ele>381.6</ele>
        <time>2022-09-28T08:04:16Z</time>
      </trkpt>
      <trkpt lat="46.35188" lon="6.20922">
        <ele>381.6</ele>
        <time>2022-09-28T08:04:17Z</time>
      </trkpt>
      <trkpt lat="46.35193" lon="6.20928">
        <ele>381.6</ele>
        <time>2022-09-28T08:04:18Z</time>
      </trkpt>
      <trkpt lat="46.35197" lon="6.20932">
        <ele>381.6</ele>
        <time>2022-09-28T08:04:19Z</time>
      </trkpt>
      <trkpt lat="46.35201" lon="6.20937">
        <ele>381.6</ele>
        <time>2022-09-28T08:04:20Z</time>
      </trkpt>
      <trkpt lat="46.35206" lon="6.20941">
        <ele>381.6</ele>
        <time>2022-09-28T08:04:21Z</time>
      </trkpt>
      <trkpt lat="46.35211" lon="6.20945">
        <ele>381.6</ele>
        <time>2022-09-28T08:04:22Z</time>
      </trkpt>
      <trkpt lat="46.35216" lon="6.2095">
        <ele>381.6</ele>
        <time>2022-09-28T08:04:23Z</time>
      </trkpt>
      <trkpt lat="46.3522" lon="6.20954">
        <ele>381.6</ele>
        <time>2022-09-28T08:04:24Z</time>
      </trkpt>
      <trkpt lat="46.35224" lon="6.20958">
        <ele>381.5</ele>
        <time>2022-09-28T08:04:25Z</time>
      </trkpt>
      <trkpt lat="46.35229" lon="6.20963">
        <ele>381.5</ele>
        <time>2022-09-28T08:04:26Z</time>
      </trkpt>
      <trkpt lat="46.35233" lon="6.20967">
        <ele>381.5</ele>
        <time>2022-09-28T08:04:27Z</time>
      </trkpt>
      <trkpt lat="46.35238" lon="6.20972">
        <ele>381.5</ele>
        <time>2022-09-28T08:04:28Z</time>
      </trkpt>
      <trkpt lat="46.35243" lon="6.20977">
        <ele>381.5</ele>
        <time>2022-09-28T08:04:29Z</time>
      </trkpt>
      <trkpt lat="46.35248" lon="6.20981">
        <ele>381.5</ele>
        <time>2022-09-28T08:04:30Z</time>
      </trkpt>
      <trkpt lat="46.35253" lon="6.20986">
        <ele>381.5</ele>
        <time>2022-09-28T08:04:31Z</time>
      </trkpt>
      <trkpt lat="46.35257" lon="6.2099">
        <ele>381.5</ele>
        <time>2022-09-28T08:04:32Z</time>
      </trkpt>
      <trkpt lat="46.35263" lon="6.20995">
        <ele>381.5</ele>
        <time>2022-09-28T08:04:33Z</time>
      </trkpt>
      <trkpt lat="46.35268" lon="6.21">
        <ele>381.5</ele>
        <time>2022-09-28T08:04:34Z</time>
      </trkpt>
      <trkpt lat="46.35273" lon="6.21006">
        <ele>381.5</ele>
        <time>2022-09-28T08:04:35Z</time>
      </trkpt>
      <trkpt lat="46.35277" lon="6.21009">
        <ele>381.5</ele>
        <time>2022-09-28T08:04:36Z</time>
      </trkpt>
      <trkpt lat="46.35281" lon="6.21013">
        <ele>381.5</ele>
        <time>2022-09-28T08:04:37Z</time>
      </trkpt>
      <trkpt lat="46.35285" lon="6.21017">
        <ele>381.5</ele>
        <time>2022-09-28T08:04:38Z</time>
      </trkpt>
      <trkpt lat="46.3529" lon="6.21021">
        <ele>381.5</ele>
        <time>2022-09-28T08:04:39Z</time>
      </trkpt>
      <trkpt lat="46.35295" lon="6.21026">
        <ele>381.5</ele>
        <time>2022-09-28T08:04:40Z</time>
      </trkpt>
      <trkpt lat="46.35299" lon="6.2103">
        <ele>381.5</ele>
        <time>2022-09-28T08:04:41Z</time>
      </trkpt>
      <trkpt lat="46.35304" lon="6.21034">
        <ele>381.5</ele>
        <time>2022-09-28T08:04:42Z</time>
      </trkpt>
      <trkpt lat="46.35308" lon="6.21039">
        <ele>381.5</ele>
        <time>2022-09-28T08:04:43Z</time>
      </trkpt>
      <trkpt lat="46.35312" lon="6.21043">
        <ele>381.5</ele>
        <time>2022-09-28T08:04:44Z</time>
      </trkpt>
      <trkpt lat="46.35316" lon="6.21046">
        <ele>381.5</ele>
        <time>2022-09-28T08:04:45Z</time>
      </trkpt>
      <trkpt lat="46.3532" lon="6.21051">
        <ele>381.5</ele>
        <time>2022-09-28T08:04:46Z</time>
      </trkpt>
      <trkpt lat="46.35325" lon="6.21054">
        <ele>381.5</ele>
        <time>2022-09-28T08:04:47Z</time>
      </trkpt>
      <trkpt lat="46.35329" lon="6.21059">
        <ele>381.5</ele>
        <time>2022-09-28T08:04:48Z</time>
      </trkpt>
      <trkpt lat="46.35333" lon="6.21064">
        <ele>381.5</ele>
        <time>2022-09-28T08:04:49Z</time>
      </trkpt>
      <trkpt lat="46.35337" lon="6.21068">
        <ele>381.5</ele>
        <time>2022-09-28T08:04:50Z</time>
      </trkpt>
      <trkpt lat="46.35341" lon="6.21071">
        <ele>381.5</ele>
        <time>2022-09-28T08:04:51Z</time>
      </trkpt>
      <trkpt lat="46.35345" lon="6.21076">
        <ele>381.5</ele>
        <time>2022-09-28T08:04:52Z</time>
      </trkpt>
      <trkpt lat="46.3535" lon="6.2108">
        <ele>381.4</ele>
        <time>2022-09-28T08:04:53Z</time>
      </trkpt>
      <trkpt lat="46.35355" lon="6.21085">
        <ele>381.4</ele>
        <time>2022-09-28T08:04:54Z</time>
      </trkpt>
      <trkpt lat="46.35359" lon="6.21089">
        <ele>381.3</ele>
        <time>2022-09-28T08:04:55Z</time>
      </trkpt>
      <trkpt lat="46.35364" lon="6.21094">
        <ele>381.3</ele>
        <time>2022-09-28T08:04:56Z</time>
      </trkpt>
      <trkpt lat="46.35369" lon="6.21097">
        <ele>381.3</ele>
        <time>2022-09-28T08:04:57Z</time>
      </trkpt>
      <trkpt lat="46.35374" lon="6.21102">
        <ele>381.3</ele>
        <time>2022-09-28T08:04:58Z</time>
      </trkpt>
      <trkpt lat="46.35378" lon="6.21107">
        <ele>381.3</ele>
        <time>2022-09-28T08:04:59Z</time>
      </trkpt>
      <trkpt lat="46.35383" lon="6.21112">
        <ele>381.3</ele>
        <time>2022-09-28T08:05:00Z</time>
      </trkpt>
      <trkpt lat="46.35387" lon="6.21115">
        <ele>381.3</ele>
        <time>2022-09-28T08:05:01Z</time>
      </trkpt>
      <trkpt lat="46.35392" lon="6.21119">
        <ele>381.3</ele>
        <time>2022-09-28T08:05:02Z</time>
      </trkpt>
      <trkpt lat="46.35396" lon="6.21124">
        <ele>381.3</ele>
        <time>2022-09-28T08:05:03Z</time>
      </trkpt>
      <trkpt lat="46.35401" lon="6.21128">
        <ele>381.3</ele>
        <time>2022-09-28T08:05:04Z</time>
      </trkpt>
      <trkpt lat="46.35406" lon="6.21133">
        <ele>381.3</ele>
        <time>2022-09-28T08:05:05Z</time>
      </trkpt>
      <trkpt lat="46.35411" lon="6.21138">
        <ele>381.3</ele>
        <time>2022-09-28T08:05:06Z</time>
      </trkpt>
      <trkpt lat="46.35417" lon="6.21143">
        <ele>381.3</ele>
        <time>2022-09-28T08:05:07Z</time>
      </trkpt>
      <trkpt lat="46.35422" lon="6.21147">
        <ele>381.3</ele>
        <time>2022-09-28T08:05:08Z</time>
      </trkpt>
      <trkpt lat="46.35427" lon="6.21152">
        <ele>381.3</ele>
        <time>2022-09-28T08:05:09Z</time>
      </trkpt>
      <trkpt lat="46.35432" lon="6.21157">
        <ele>381.3</ele>
        <time>2022-09-28T08:05:10Z</time>
      </trkpt>
      <trkpt lat="46.35437" lon="6.21161">
        <ele>381.3</ele>
        <time>2022-09-28T08:05:11Z</time>
      </trkpt>
      <trkpt lat="46.35442" lon="6.21167">
        <ele>381.3</ele>
        <time>2022-09-28T08:05:12Z</time>
      </trkpt>
      <trkpt lat="46.35447" lon="6.21171">
        <ele>381.3</ele>
        <time>2022-09-28T08:05:13Z</time>
      </trkpt>
      <trkpt lat="46.35452" lon="6.21176">
        <ele>381.3</ele>
        <time>2022-09-28T08:05:14Z</time>
      </trkpt>
      <trkpt lat="46.35457" lon="6.2118">
        <ele>381.3</ele>
        <time>2022-09-28T08:05:15Z</time>
      </trkpt>
      <trkpt lat="46.35463" lon="6.21185">
        <ele>381.4</ele>
        <time>2022-09-28T08:05:16Z</time>
      </trkpt>
      <trkpt lat="46.35467" lon="6.2119">
        <ele>381.4</ele>
        <time>2022-09-28T08:05:17Z</time>
      </trkpt>
      <trkpt lat="46.35473" lon="6.21195">
        <ele>381.4</ele>
        <time>2022-09-28T08:05:18Z</time>
      </trkpt>
      <trkpt lat="46.35478" lon="6.212">
        <ele>381.4</ele>
        <time>2022-09-28T08:05:19Z</time>
      </trkpt>
      <trkpt lat="46.35483" lon="6.21204">
        <ele>381.5</ele>
        <time>2022-09-28T08:05:20Z</time>
      </trkpt>
      <trkpt lat="46.35488" lon="6.21209">
        <ele>381.5</ele>
        <time>2022-09-28T08:05:21Z</time>
      </trkpt>
      <trkpt lat="46.35492" lon="6.21213">
        <ele>381.5</ele>
        <time>2022-09-28T08:05:22Z</time>
      </trkpt>
      <trkpt lat="46.35497" lon="6.21218">
        <ele>381.6</ele>
        <time>2022-09-28T08:05:23Z</time>
      </trkpt>
      <trkpt lat="46.35501" lon="6.21223">
        <ele>381.6</ele>
        <time>2022-09-28T08:05:24Z</time>
      </trkpt>
      <trkpt lat="46.35506" lon="6.21228">
        <ele>381.6</ele>
        <time>2022-09-28T08:05:25Z</time>
      </trkpt>
      <trkpt lat="46.35511" lon="6.21232">
        <ele>381.6</ele>
        <time>2022-09-28T08:05:26Z</time>
      </trkpt>
      <trkpt lat="46.35515" lon="6.21237">
        <ele>381.7</ele>
        <time>2022-09-28T08:05:27Z</time>
      </trkpt>
      <trkpt lat="46.3552" lon="6.21241">
        <ele>381.7</ele>
        <time>2022-09-28T08:05:28Z</time>
      </trkpt>
      <trkpt lat="46.35525" lon="6.21246">
        <ele>381.7</ele>
        <time>2022-09-28T08:05:29Z</time>
      </trkpt>
      <trkpt lat="46.35529" lon="6.2125">
        <ele>381.7</ele>
        <time>2022-09-28T08:05:30Z</time>
      </trkpt>
      <trkpt lat="46.35534" lon="6.21254">
        <ele>381.8</ele>
        <time>2022-09-28T08:05:31Z</time>
      </trkpt>
      <trkpt lat="46.35538" lon="6.21259">
        <ele>381.8</ele>
        <time>2022-09-28T08:05:32Z</time>
      </trkpt>
      <trkpt lat="46.35544" lon="6.21263">
        <ele>381.8</ele>
        <time>2022-09-28T08:05:33Z</time>
      </trkpt>
      <trkpt lat="46.35548" lon="6.21268">
        <ele>381.9</ele>
        <time>2022-09-28T08:05:34Z</time>
      </trkpt>
      <trkpt lat="46.35552" lon="6.21273">
        <ele>381.9</ele>
        <time>2022-09-28T08:05:35Z</time>
      </trkpt>
      <trkpt lat="46.35557" lon="6.21277">
        <ele>381.9</ele>
        <time>2022-09-28T08:05:36Z</time>
      </trkpt>
      <trkpt lat="46.35562" lon="6.21281">
        <ele>381.9</ele>
        <time>2022-09-28T08:05:37Z</time>
      </trkpt>
      <trkpt lat="46.35566" lon="6.21285">
        <ele>381.9</ele>
        <time>2022-09-28T08:05:38Z</time>
      </trkpt>
      <trkpt lat="46.35571" lon="6.21289">
        <ele>382</ele>
        <time>2022-09-28T08:05:39Z</time>
      </trkpt>
      <trkpt lat="46.35575" lon="6.21294">
        <ele>382</ele>
        <time>2022-09-28T08:05:40Z</time>
      </trkpt>
      <trkpt lat="46.3558" lon="6.21298">
        <ele>382</ele>
        <time>2022-09-28T08:05:41Z</time>
      </trkpt>
      <trkpt lat="46.35584" lon="6.21303">
        <ele>382</ele>
        <time>2022-09-28T08:05:42Z</time>
      </trkpt>
      <trkpt lat="46.35588" lon="6.21307">
        <ele>382</ele>
        <time>2022-09-28T08:05:43Z</time>
      </trkpt>
      <trkpt lat="46.35593" lon="6.21311">
        <ele>382.1</ele>
        <time>2022-09-28T08:05:44Z</time>
      </trkpt>
      <trkpt lat="46.35598" lon="6.21315">
        <ele>382.1</ele>
        <time>2022-09-28T08:05:45Z</time>
      </trkpt>
      <trkpt lat="46.35602" lon="6.21319">
        <ele>382.1</ele>
        <time>2022-09-28T08:05:46Z</time>
      </trkpt>
      <trkpt lat="46.35607" lon="6.21324">
        <ele>382.2</ele>
        <time>2022-09-28T08:05:47Z</time>
      </trkpt>
      <trkpt lat="46.35611" lon="6.21328">
        <ele>382.2</ele>
        <time>2022-09-28T08:05:48Z</time>
      </trkpt>
      <trkpt lat="46.35616" lon="6.21332">
        <ele>382.3</ele>
        <time>2022-09-28T08:05:49Z</time>
      </trkpt>
      <trkpt lat="46.3562" lon="6.21337">
        <ele>382.4</ele>
        <time>2022-09-28T08:05:50Z</time>
      </trkpt>
      <trkpt lat="46.35625" lon="6.21341">
        <ele>382.4</ele>
        <time>2022-09-28T08:05:51Z</time>
      </trkpt>
      <trkpt lat="46.3563" lon="6.21346">
        <ele>382.5</ele>
        <time>2022-09-28T08:05:52Z</time>
      </trkpt>
      <trkpt lat="46.35634" lon="6.21351">
        <ele>382.5</ele>
        <time>2022-09-28T08:05:53Z</time>
      </trkpt>
      <trkpt lat="46.35639" lon="6.21356">
        <ele>382.5</ele>
        <time>2022-09-28T08:05:54Z</time>
      </trkpt>
      <trkpt lat="46.35644" lon="6.2136">
        <ele>382.5</ele>
        <time>2022-09-28T08:05:55Z</time>
      </trkpt>
      <trkpt lat="46.35649" lon="6.21365">
        <ele>382.6</ele>
        <time>2022-09-28T08:05:56Z</time>
      </trkpt>
      <trkpt lat="46.35654" lon="6.21369">
        <ele>382.6</ele>
        <time>2022-09-28T08:05:57Z</time>
      </trkpt>
      <trkpt lat="46.35659" lon="6.21374">
        <ele>382.6</ele>
        <time>2022-09-28T08:05:58Z</time>
      </trkpt>
      <trkpt lat="46.35663" lon="6.21379">
        <ele>382.7</ele>
        <time>2022-09-28T08:05:59Z</time>
      </trkpt>
      <trkpt lat="46.35668" lon="6.21383">
        <ele>382.7</ele>
        <time>2022-09-28T08:06:00Z</time>
      </trkpt>
      <trkpt lat="46.35672" lon="6.21387">
        <ele>382.7</ele>
        <time>2022-09-28T08:06:01Z</time>
      </trkpt>
      <trkpt lat="46.35677" lon="6.21392">
        <ele>382.8</ele>
        <time>2022-09-28T08:06:02Z</time>
      </trkpt>
      <trkpt lat="46.35681" lon="6.21396">
        <ele>382.8</ele>
        <time>2022-09-28T08:06:03Z</time>
      </trkpt>
      <trkpt lat="46.35686" lon="6.21401">
        <ele>382.9</ele>
        <time>2022-09-28T08:06:04Z</time>
      </trkpt>
      <trkpt lat="46.35691" lon="6.21405">
        <ele>382.9</ele>
        <time>2022-09-28T08:06:05Z</time>
      </trkpt>
      <trkpt lat="46.35695" lon="6.2141">
        <ele>382.9</ele>
        <time>2022-09-28T08:06:06Z</time>
      </trkpt>
      <trkpt lat="46.35699" lon="6.21414">
        <ele>383</ele>
        <time>2022-09-28T08:06:07Z</time>
      </trkpt>
      <trkpt lat="46.35703" lon="6.21418">
        <ele>383</ele>
        <time>2022-09-28T08:06:08Z</time>
      </trkpt>
      <trkpt lat="46.35709" lon="6.21422">
        <ele>383</ele>
        <time>2022-09-28T08:06:09Z</time>
      </trkpt>
      <trkpt lat="46.35712" lon="6.21426">
        <ele>383</ele>
        <time>2022-09-28T08:06:10Z</time>
      </trkpt>
      <trkpt lat="46.35715" lon="6.21429">
        <ele>383</ele>
        <time>2022-09-28T08:06:11Z</time>
      </trkpt>
      <trkpt lat="46.35719" lon="6.21432">
        <ele>383.1</ele>
        <time>2022-09-28T08:06:12Z</time>
      </trkpt>
      <trkpt lat="46.35723" lon="6.21436">
        <ele>383.1</ele>
        <time>2022-09-28T08:06:13Z</time>
      </trkpt>
      <trkpt lat="46.35728" lon="6.21441">
        <ele>383.1</ele>
        <time>2022-09-28T08:06:14Z</time>
      </trkpt>
      <trkpt lat="46.35732" lon="6.21444">
        <ele>383.1</ele>
        <time>2022-09-28T08:06:15Z</time>
      </trkpt>
      <trkpt lat="46.35736" lon="6.21448">
        <ele>383.1</ele>
        <time>2022-09-28T08:06:16Z</time>
      </trkpt>
      <trkpt lat="46.35739" lon="6.21451">
        <ele>383.1</ele>
        <time>2022-09-28T08:06:17Z</time>
      </trkpt>
      <trkpt lat="46.35742" lon="6.21454">
        <ele>383.1</ele>
        <time>2022-09-28T08:06:18Z</time>
      </trkpt>
      <trkpt lat="46.35745" lon="6.21457">
        <ele>383.1</ele>
        <time>2022-09-28T08:06:19Z</time>
      </trkpt>
      <trkpt lat="46.35749" lon="6.21461">
        <ele>383.1</ele>
        <time>2022-09-28T08:06:20Z</time>
      </trkpt>
      <trkpt lat="46.35753" lon="6.21465">
        <ele>383.1</ele>
        <time>2022-09-28T08:06:21Z</time>
      </trkpt>
      <trkpt lat="46.35757" lon="6.21469">
        <ele>383.1</ele>
        <time>2022-09-28T08:06:22Z</time>
      </trkpt>
      <trkpt lat="46.35762" lon="6.21473">
        <ele>383.1</ele>
        <time>2022-09-28T08:06:23Z</time>
      </trkpt>
      <trkpt lat="46.35765" lon="6.21477">
        <ele>383.1</ele>
        <time>2022-09-28T08:06:24Z</time>
      </trkpt>
      <trkpt lat="46.3577" lon="6.21481">
        <ele>383.1</ele>
        <time>2022-09-28T08:06:25Z</time>
      </trkpt>
      <trkpt lat="46.35774" lon="6.21484">
        <ele>383.1</ele>
        <time>2022-09-28T08:06:26Z</time>
      </trkpt>
      <trkpt lat="46.35778" lon="6.21488">
        <ele>383.1</ele>
        <time>2022-09-28T08:06:27Z</time>
      </trkpt>
      <trkpt lat="46.35783" lon="6.21492">
        <ele>383</ele>
        <time>2022-09-28T08:06:28Z</time>
      </trkpt>
      <trkpt lat="46.35786" lon="6.21497">
        <ele>383</ele>
        <time>2022-09-28T08:06:29Z</time>
      </trkpt>
      <trkpt lat="46.35791" lon="6.21501">
        <ele>383</ele>
        <time>2022-09-28T08:06:30Z</time>
      </trkpt>
      <trkpt lat="46.35795" lon="6.21505">
        <ele>383</ele>
        <time>2022-09-28T08:06:31Z</time>
      </trkpt>
      <trkpt lat="46.358" lon="6.2151">
        <ele>382.9</ele>
        <time>2022-09-28T08:06:32Z</time>
      </trkpt>
      <trkpt lat="46.35804" lon="6.21514">
        <ele>382.9</ele>
        <time>2022-09-28T08:06:33Z</time>
      </trkpt>
      <trkpt lat="46.35808" lon="6.21519">
        <ele>382.9</ele>
        <time>2022-09-28T08:06:34Z</time>
      </trkpt>
      <trkpt lat="46.35813" lon="6.21524">
        <ele>382.9</ele>
        <time>2022-09-28T08:06:35Z</time>
      </trkpt>
      <trkpt lat="46.35817" lon="6.21528">
        <ele>382.8</ele>
        <time>2022-09-28T08:06:36Z</time>
      </trkpt>
      <trkpt lat="46.35822" lon="6.21532">
        <ele>382.8</ele>
        <time>2022-09-28T08:06:37Z</time>
      </trkpt>
      <trkpt lat="46.35826" lon="6.21537">
        <ele>382.8</ele>
        <time>2022-09-28T08:06:38Z</time>
      </trkpt>
      <trkpt lat="46.3583" lon="6.21542">
        <ele>382.7</ele>
        <time>2022-09-28T08:06:39Z</time>
      </trkpt>
      <trkpt lat="46.35834" lon="6.21546">
        <ele>382.7</ele>
        <time>2022-09-28T08:06:40Z</time>
      </trkpt>
      <trkpt lat="46.35839" lon="6.21551">
        <ele>382.6</ele>
        <time>2022-09-28T08:06:41Z</time>
      </trkpt>
      <trkpt lat="46.35842" lon="6.21555">
        <ele>382.6</ele>
        <time>2022-09-28T08:06:42Z</time>
      </trkpt>
      <trkpt lat="46.35845" lon="6.21559">
        <ele>382.6</ele>
        <time>2022-09-28T08:06:43Z</time>
      </trkpt>
      <trkpt lat="46.3585" lon="6.21562">
        <ele>382.5</ele>
        <time>2022-09-28T08:06:44Z</time>
      </trkpt>
      <trkpt lat="46.35853" lon="6.21565">
        <ele>382.5</ele>
        <time>2022-09-28T08:06:45Z</time>
      </trkpt>
      <trkpt lat="46.35857" lon="6.21568">
        <ele>382.5</ele>
        <time>2022-09-28T08:06:46Z</time>
      </trkpt>
      <trkpt lat="46.35859" lon="6.2157">
        <ele>382.5</ele>
        <time>2022-09-28T08:06:47Z</time>
      </trkpt>
      <trkpt lat="46.35862" lon="6.21573">
        <ele>382.5</ele>
        <time>2022-09-28T08:06:48Z</time>
      </trkpt>
      <trkpt lat="46.35866" lon="6.21575">
        <ele>382.5</ele>
        <time>2022-09-28T08:06:49Z</time>
      </trkpt>
      <trkpt lat="46.3587" lon="6.21577">
        <ele>382.5</ele>
        <time>2022-09-28T08:06:50Z</time>
      </trkpt>
      <trkpt lat="46.35873" lon="6.2158">
        <ele>382.5</ele>
        <time>2022-09-28T08:06:51Z</time>
      </trkpt>
      <trkpt lat="46.35878" lon="6.21583">
        <ele>382.4</ele>
        <time>2022-09-28T08:06:52Z</time>
      </trkpt>
      <trkpt lat="46.3588" lon="6.21587">
        <ele>382.4</ele>
        <time>2022-09-28T08:06:53Z</time>
      </trkpt>
      <trkpt lat="46.35883" lon="6.21591">
        <ele>382.4</ele>
        <time>2022-09-28T08:06:54Z</time>
      </trkpt>
      <trkpt lat="46.35886" lon="6.21597">
        <ele>382.4</ele>
        <time>2022-09-28T08:06:55Z</time>
      </trkpt>
      <trkpt lat="46.35889" lon="6.21601">
        <ele>382.3</ele>
        <time>2022-09-28T08:06:56Z</time>
      </trkpt>
      <trkpt lat="46.35892" lon="6.21605">
        <ele>382.3</ele>
        <time>2022-09-28T08:06:57Z</time>
      </trkpt>
      <trkpt lat="46.35895" lon="6.21609">
        <ele>382.3</ele>
        <time>2022-09-28T08:06:58Z</time>
      </trkpt>
      <trkpt lat="46.35898" lon="6.21612">
        <ele>382.2</ele>
        <time>2022-09-28T08:06:59Z</time>
      </trkpt>
      <trkpt lat="46.35902" lon="6.21616">
        <ele>382.2</ele>
        <time>2022-09-28T08:07:00Z</time>
      </trkpt>
      <trkpt lat="46.35905" lon="6.2162">
        <ele>382.2</ele>
        <time>2022-09-28T08:07:01Z</time>
      </trkpt>
      <trkpt lat="46.3591" lon="6.21625">
        <ele>382.1</ele>
        <time>2022-09-28T08:07:02Z</time>
      </trkpt>
      <trkpt lat="46.35914" lon="6.2163">
        <ele>382.1</ele>
        <time>2022-09-28T08:07:03Z</time>
      </trkpt>
      <trkpt lat="46.35917" lon="6.21634">
        <ele>382</ele>
        <time>2022-09-28T08:07:04Z</time>
      </trkpt>
      <trkpt lat="46.35921" lon="6.21639">
        <ele>382</ele>
        <time>2022-09-28T08:07:05Z</time>
      </trkpt>
      <trkpt lat="46.35925" lon="6.21643">
        <ele>381.9</ele>
        <time>2022-09-28T08:07:06Z</time>
      </trkpt>
      <trkpt lat="46.3593" lon="6.21648">
        <ele>381.9</ele>
        <time>2022-09-28T08:07:07Z</time>
      </trkpt>
      <trkpt lat="46.35934" lon="6.21652">
        <ele>381.8</ele>
        <time>2022-09-28T08:07:08Z</time>
      </trkpt>
      <trkpt lat="46.35938" lon="6.21658">
        <ele>381.8</ele>
        <time>2022-09-28T08:07:09Z</time>
      </trkpt>
      <trkpt lat="46.35943" lon="6.21663">
        <ele>381.7</ele>
        <time>2022-09-28T08:07:10Z</time>
      </trkpt>
      <trkpt lat="46.35948" lon="6.21667">
        <ele>381.7</ele>
        <time>2022-09-28T08:07:11Z</time>
      </trkpt>
      <trkpt lat="46.35952" lon="6.21672">
        <ele>381.6</ele>
        <time>2022-09-28T08:07:12Z</time>
      </trkpt>
      <trkpt lat="46.35956" lon="6.21677">
        <ele>381.6</ele>
        <time>2022-09-28T08:07:13Z</time>
      </trkpt>
      <trkpt lat="46.35961" lon="6.21682">
        <ele>381.5</ele>
        <time>2022-09-28T08:07:14Z</time>
      </trkpt>
      <trkpt lat="46.35966" lon="6.21688">
        <ele>381.5</ele>
        <time>2022-09-28T08:07:15Z</time>
      </trkpt>
      <trkpt lat="46.3597" lon="6.21693">
        <ele>381.5</ele>
        <time>2022-09-28T08:07:16Z</time>
      </trkpt>
      <trkpt lat="46.35975" lon="6.21698">
        <ele>381.5</ele>
        <time>2022-09-28T08:07:17Z</time>
      </trkpt>
      <trkpt lat="46.3598" lon="6.21703">
        <ele>381.5</ele>
        <time>2022-09-28T08:07:18Z</time>
      </trkpt>
      <trkpt lat="46.35985" lon="6.21708">
        <ele>381.5</ele>
        <time>2022-09-28T08:07:19Z</time>
      </trkpt>
      <trkpt lat="46.35989" lon="6.21713">
        <ele>381.5</ele>
        <time>2022-09-28T08:07:20Z</time>
      </trkpt>
      <trkpt lat="46.35994" lon="6.21719">
        <ele>381.5</ele>
        <time>2022-09-28T08:07:21Z</time>
      </trkpt>
      <trkpt lat="46.35999" lon="6.21724">
        <ele>381.5</ele>
        <time>2022-09-28T08:07:22Z</time>
      </trkpt>
      <trkpt lat="46.36004" lon="6.21729">
        <ele>381.5</ele>
        <time>2022-09-28T08:07:23Z</time>
      </trkpt>
      <trkpt lat="46.36008" lon="6.21734">
        <ele>381.5</ele>
        <time>2022-09-28T08:07:24Z</time>
      </trkpt>
      <trkpt lat="46.36013" lon="6.2174">
        <ele>381.5</ele>
        <time>2022-09-28T08:07:25Z</time>
      </trkpt>
      <trkpt lat="46.36018" lon="6.21745">
        <ele>381.5</ele>
        <time>2022-09-28T08:07:26Z</time>
      </trkpt>
      <trkpt lat="46.36022" lon="6.2175">
        <ele>381.5</ele>
        <time>2022-09-28T08:07:27Z</time>
      </trkpt>
      <trkpt lat="46.36027" lon="6.21755">
        <ele>381.5</ele>
        <time>2022-09-28T08:07:28Z</time>
      </trkpt>
      <trkpt lat="46.36031" lon="6.2176">
        <ele>381.5</ele>
        <time>2022-09-28T08:07:29Z</time>
      </trkpt>
      <trkpt lat="46.36036" lon="6.21765">
        <ele>381.6</ele>
        <time>2022-09-28T08:07:30Z</time>
      </trkpt>
      <trkpt lat="46.36041" lon="6.2177">
        <ele>381.6</ele>
        <time>2022-09-28T08:07:31Z</time>
      </trkpt>
      <trkpt lat="46.36045" lon="6.21775">
        <ele>381.7</ele>
        <time>2022-09-28T08:07:32Z</time>
      </trkpt>
      <trkpt lat="46.3605" lon="6.2178">
        <ele>381.8</ele>
        <time>2022-09-28T08:07:33Z</time>
      </trkpt>
      <trkpt lat="46.36055" lon="6.21785">
        <ele>381.8</ele>
        <time>2022-09-28T08:07:34Z</time>
      </trkpt>
      <trkpt lat="46.3606" lon="6.2179">
        <ele>381.9</ele>
        <time>2022-09-28T08:07:35Z</time>
      </trkpt>
      <trkpt lat="46.36064" lon="6.21794">
        <ele>381.9</ele>
        <time>2022-09-28T08:07:36Z</time>
      </trkpt>
      <trkpt lat="46.36068" lon="6.21799">
        <ele>382</ele>
        <time>2022-09-28T08:07:37Z</time>
      </trkpt>
      <trkpt lat="46.36073" lon="6.21804">
        <ele>382</ele>
        <time>2022-09-28T08:07:38Z</time>
      </trkpt>
      <trkpt lat="46.36078" lon="6.21808">
        <ele>382.1</ele>
        <time>2022-09-28T08:07:39Z</time>
      </trkpt>
      <trkpt lat="46.36082" lon="6.21812">
        <ele>382.2</ele>
        <time>2022-09-28T08:07:40Z</time>
      </trkpt>
      <trkpt lat="46.36087" lon="6.21817">
        <ele>382.2</ele>
        <time>2022-09-28T08:07:41Z</time>
      </trkpt>
      <trkpt lat="46.36091" lon="6.21821">
        <ele>382.3</ele>
        <time>2022-09-28T08:07:42Z</time>
      </trkpt>
      <trkpt lat="46.36095" lon="6.21826">
        <ele>382.3</ele>
        <time>2022-09-28T08:07:43Z</time>
      </trkpt>
      <trkpt lat="46.361" lon="6.2183">
        <ele>382.4</ele>
        <time>2022-09-28T08:07:44Z</time>
      </trkpt>
      <trkpt lat="46.36104" lon="6.21834">
        <ele>382.4</ele>
        <time>2022-09-28T08:07:45Z</time>
      </trkpt>
      <trkpt lat="46.36109" lon="6.21839">
        <ele>382.5</ele>
        <time>2022-09-28T08:07:46Z</time>
      </trkpt>
      <trkpt lat="46.36113" lon="6.21844">
        <ele>382.5</ele>
        <time>2022-09-28T08:07:47Z</time>
      </trkpt>
      <trkpt lat="46.36118" lon="6.21848">
        <ele>382.6</ele>
        <time>2022-09-28T08:07:48Z</time>
      </trkpt>
      <trkpt lat="46.36122" lon="6.21852">
        <ele>382.6</ele>
        <time>2022-09-28T08:07:49Z</time>
      </trkpt>
      <trkpt lat="46.36127" lon="6.21856">
        <ele>382.7</ele>
        <time>2022-09-28T08:07:50Z</time>
      </trkpt>
      <trkpt lat="46.36131" lon="6.2186">
        <ele>382.8</ele>
        <time>2022-09-28T08:07:51Z</time>
      </trkpt>
      <trkpt lat="46.36135" lon="6.21864">
        <ele>382.8</ele>
        <time>2022-09-28T08:07:52Z</time>
      </trkpt>
      <trkpt lat="46.36139" lon="6.21867">
        <ele>382.9</ele>
        <time>2022-09-28T08:07:53Z</time>
      </trkpt>
      <trkpt lat="46.36144" lon="6.21872">
        <ele>382.9</ele>
        <time>2022-09-28T08:07:54Z</time>
      </trkpt>
      <trkpt lat="46.36149" lon="6.21875">
        <ele>383</ele>
        <time>2022-09-28T08:07:55Z</time>
      </trkpt>
      <trkpt lat="46.36153" lon="6.21879">
        <ele>383</ele>
        <time>2022-09-28T08:07:56Z</time>
      </trkpt>
      <trkpt lat="46.36157" lon="6.21883">
        <ele>383.1</ele>
        <time>2022-09-28T08:07:57Z</time>
      </trkpt>
      <trkpt lat="46.36161" lon="6.21888">
        <ele>383.2</ele>
        <time>2022-09-28T08:07:58Z</time>
      </trkpt>
      <trkpt lat="46.36166" lon="6.21892">
        <ele>383.3</ele>
        <time>2022-09-28T08:07:59Z</time>
      </trkpt>
      <trkpt lat="46.36171" lon="6.21895">
        <ele>383.3</ele>
        <time>2022-09-28T08:08:00Z</time>
      </trkpt>
      <trkpt lat="46.36175" lon="6.21899">
        <ele>383.4</ele>
        <time>2022-09-28T08:08:01Z</time>
      </trkpt>
      <trkpt lat="46.3618" lon="6.21903">
        <ele>383.5</ele>
        <time>2022-09-28T08:08:02Z</time>
      </trkpt>
      <trkpt lat="46.36184" lon="6.21907">
        <ele>383.5</ele>
        <time>2022-09-28T08:08:03Z</time>
      </trkpt>
      <trkpt lat="46.36188" lon="6.21911">
        <ele>383.6</ele>
        <time>2022-09-28T08:08:04Z</time>
      </trkpt>
      <trkpt lat="46.36193" lon="6.21913">
        <ele>383.7</ele>
        <time>2022-09-28T08:08:05Z</time>
      </trkpt>
      <trkpt lat="46.36197" lon="6.21917">
        <ele>383.7</ele>
        <time>2022-09-28T08:08:06Z</time>
      </trkpt>
      <trkpt lat="46.36202" lon="6.21922">
        <ele>383.8</ele>
        <time>2022-09-28T08:08:07Z</time>
      </trkpt>
      <trkpt lat="46.36205" lon="6.21925">
        <ele>383.8</ele>
        <time>2022-09-28T08:08:08Z</time>
      </trkpt>
      <trkpt lat="46.3621" lon="6.21929">
        <ele>383.9</ele>
        <time>2022-09-28T08:08:09Z</time>
      </trkpt>
      <trkpt lat="46.36215" lon="6.21932">
        <ele>384</ele>
        <time>2022-09-28T08:08:10Z</time>
      </trkpt>
      <trkpt lat="46.36219" lon="6.21936">
        <ele>384</ele>
        <time>2022-09-28T08:08:11Z</time>
      </trkpt>
      <trkpt lat="46.36223" lon="6.21939">
        <ele>384.1</ele>
        <time>2022-09-28T08:08:12Z</time>
      </trkpt>
      <trkpt lat="46.36227" lon="6.21943">
        <ele>384.1</ele>
        <time>2022-09-28T08:08:13Z</time>
      </trkpt>
      <trkpt lat="46.36232" lon="6.21949">
        <ele>384.2</ele>
        <time>2022-09-28T08:08:14Z</time>
      </trkpt>
      <trkpt lat="46.36237" lon="6.21951">
        <ele>384.2</ele>
        <time>2022-09-28T08:08:15Z</time>
      </trkpt>
      <trkpt lat="46.36242" lon="6.21954">
        <ele>384.3</ele>
        <time>2022-09-28T08:08:16Z</time>
      </trkpt>
      <trkpt lat="46.36246" lon="6.21958">
        <ele>384.3</ele>
        <time>2022-09-28T08:08:17Z</time>
      </trkpt>
      <trkpt lat="46.3625" lon="6.21963">
        <ele>384.4</ele>
        <time>2022-09-28T08:08:18Z</time>
      </trkpt>
      <trkpt lat="46.36255" lon="6.21966">
        <ele>384.4</ele>
        <time>2022-09-28T08:08:19Z</time>
      </trkpt>
      <trkpt lat="46.36259" lon="6.2197">
        <ele>384.5</ele>
        <time>2022-09-28T08:08:20Z</time>
      </trkpt>
      <trkpt lat="46.36264" lon="6.21972">
        <ele>384.5</ele>
        <time>2022-09-28T08:08:21Z</time>
      </trkpt>
      <trkpt lat="46.36268" lon="6.21976">
        <ele>384.6</ele>
        <time>2022-09-28T08:08:22Z</time>
      </trkpt>
      <trkpt lat="46.36273" lon="6.21979">
        <ele>384.6</ele>
        <time>2022-09-28T08:08:23Z</time>
      </trkpt>
      <trkpt lat="46.36277" lon="6.21982">
        <ele>384.7</ele>
        <time>2022-09-28T08:08:24Z</time>
      </trkpt>
      <trkpt lat="46.36281" lon="6.21985">
        <ele>384.7</ele>
        <time>2022-09-28T08:08:25Z</time>
      </trkpt>
      <trkpt lat="46.36286" lon="6.21989">
        <ele>384.8</ele>
        <time>2022-09-28T08:08:26Z</time>
      </trkpt>
      <trkpt lat="46.36291" lon="6.21993">
        <ele>384.8</ele>
        <time>2022-09-28T08:08:27Z</time>
      </trkpt>
      <trkpt lat="46.36296" lon="6.21995">
        <ele>384.9</ele>
        <time>2022-09-28T08:08:28Z</time>
      </trkpt>
      <trkpt lat="46.36301" lon="6.21998">
        <ele>384.9</ele>
        <time>2022-09-28T08:08:29Z</time>
      </trkpt>
      <trkpt lat="46.36305" lon="6.22003">
        <ele>385</ele>
        <time>2022-09-28T08:08:30Z</time>
      </trkpt>
      <trkpt lat="46.36309" lon="6.22005">
        <ele>385</ele>
        <time>2022-09-28T08:08:31Z</time>
      </trkpt>
      <trkpt lat="46.36313" lon="6.22009">
        <ele>385</ele>
        <time>2022-09-28T08:08:32Z</time>
      </trkpt>
      <trkpt lat="46.36318" lon="6.22012">
        <ele>385.1</ele>
        <time>2022-09-28T08:08:33Z</time>
      </trkpt>
      <trkpt lat="46.36322" lon="6.22015">
        <ele>385.1</ele>
        <time>2022-09-28T08:08:34Z</time>
      </trkpt>
      <trkpt lat="46.36327" lon="6.22018">
        <ele>385.2</ele>
        <time>2022-09-28T08:08:35Z</time>
      </trkpt>
      <trkpt lat="46.36332" lon="6.22022">
        <ele>385.2</ele>
        <time>2022-09-28T08:08:36Z</time>
      </trkpt>
      <trkpt lat="46.36337" lon="6.22025">
        <ele>385.3</ele>
        <time>2022-09-28T08:08:37Z</time>
      </trkpt>
      <trkpt lat="46.36342" lon="6.22029">
        <ele>385.3</ele>
        <time>2022-09-28T08:08:38Z</time>
      </trkpt>
      <trkpt lat="46.36346" lon="6.22032">
        <ele>385.4</ele>
        <time>2022-09-28T08:08:39Z</time>
      </trkpt>
      <trkpt lat="46.36351" lon="6.22035">
        <ele>385.5</ele>
        <time>2022-09-28T08:08:40Z</time>
      </trkpt>
      <trkpt lat="46.36356" lon="6.22039">
        <ele>385.5</ele>
        <time>2022-09-28T08:08:41Z</time>
      </trkpt>
      <trkpt lat="46.36361" lon="6.22042">
        <ele>385.6</ele>
        <time>2022-09-28T08:08:42Z</time>
      </trkpt>
      <trkpt lat="46.36365" lon="6.22045">
        <ele>385.6</ele>
        <time>2022-09-28T08:08:43Z</time>
      </trkpt>
      <trkpt lat="46.3637" lon="6.22049">
        <ele>385.7</ele>
        <time>2022-09-28T08:08:44Z</time>
      </trkpt>
      <trkpt lat="46.36374" lon="6.22052">
        <ele>385.7</ele>
        <time>2022-09-28T08:08:45Z</time>
      </trkpt>
      <trkpt lat="46.36379" lon="6.22056">
        <ele>385.8</ele>
        <time>2022-09-28T08:08:46Z</time>
      </trkpt>
      <trkpt lat="46.36383" lon="6.22058">
        <ele>385.8</ele>
        <time>2022-09-28T08:08:47Z</time>
      </trkpt>
      <trkpt lat="46.36388" lon="6.22061">
        <ele>385.8</ele>
        <time>2022-09-28T08:08:48Z</time>
      </trkpt>
      <trkpt lat="46.36392" lon="6.22065">
        <ele>385.9</ele>
        <time>2022-09-28T08:08:49Z</time>
      </trkpt>
      <trkpt lat="46.36396" lon="6.22068">
        <ele>385.9</ele>
        <time>2022-09-28T08:08:50Z</time>
      </trkpt>
      <trkpt lat="46.364" lon="6.22071">
        <ele>386</ele>
        <time>2022-09-28T08:08:51Z</time>
      </trkpt>
      <trkpt lat="46.36405" lon="6.22074">
        <ele>386.1</ele>
        <time>2022-09-28T08:08:52Z</time>
      </trkpt>
      <trkpt lat="46.36409" lon="6.22077">
        <ele>386.1</ele>
        <time>2022-09-28T08:08:53Z</time>
      </trkpt>
      <trkpt lat="46.36414" lon="6.2208">
        <ele>386.2</ele>
        <time>2022-09-28T08:08:54Z</time>
      </trkpt>
      <trkpt lat="46.36419" lon="6.22083">
        <ele>386.2</ele>
        <time>2022-09-28T08:08:55Z</time>
      </trkpt>
      <trkpt lat="46.36424" lon="6.22087">
        <ele>386.3</ele>
        <time>2022-09-28T08:08:56Z</time>
      </trkpt>
      <trkpt lat="46.36428" lon="6.2209">
        <ele>386.3</ele>
        <time>2022-09-28T08:08:57Z</time>
      </trkpt>
      <trkpt lat="46.36433" lon="6.22093">
        <ele>386.4</ele>
        <time>2022-09-28T08:08:58Z</time>
      </trkpt>
      <trkpt lat="46.36437" lon="6.22097">
        <ele>386.4</ele>
        <time>2022-09-28T08:08:59Z</time>
      </trkpt>
      <trkpt lat="46.36441" lon="6.22099">
        <ele>386.5</ele>
        <time>2022-09-28T08:09:00Z</time>
      </trkpt>
      <trkpt lat="46.36446" lon="6.22103">
        <ele>386.5</ele>
        <time>2022-09-28T08:09:01Z</time>
      </trkpt>
      <trkpt lat="46.36451" lon="6.22106">
        <ele>386.6</ele>
        <time>2022-09-28T08:09:02Z</time>
      </trkpt>
      <trkpt lat="46.36455" lon="6.22109">
        <ele>386.6</ele>
        <time>2022-09-28T08:09:03Z</time>
      </trkpt>
      <trkpt lat="46.3646" lon="6.22113">
        <ele>386.6</ele>
        <time>2022-09-28T08:09:04Z</time>
      </trkpt>
      <trkpt lat="46.36464" lon="6.22116">
        <ele>386.7</ele>
        <time>2022-09-28T08:09:05Z</time>
      </trkpt>
      <trkpt lat="46.3647" lon="6.2212">
        <ele>386.7</ele>
        <time>2022-09-28T08:09:06Z</time>
      </trkpt>
      <trkpt lat="46.36474" lon="6.22123">
        <ele>386.7</ele>
        <time>2022-09-28T08:09:07Z</time>
      </trkpt>
      <trkpt lat="46.36479" lon="6.22125">
        <ele>386.8</ele>
        <time>2022-09-28T08:09:08Z</time>
      </trkpt>
      <trkpt lat="46.36483" lon="6.22128">
        <ele>386.8</ele>
        <time>2022-09-28T08:09:09Z</time>
      </trkpt>
      <trkpt lat="46.36487" lon="6.22131">
        <ele>386.9</ele>
        <time>2022-09-28T08:09:10Z</time>
      </trkpt>
      <trkpt lat="46.36492" lon="6.22134">
        <ele>386.9</ele>
        <time>2022-09-28T08:09:11Z</time>
      </trkpt>
      <trkpt lat="46.36498" lon="6.22138">
        <ele>386.9</ele>
        <time>2022-09-28T08:09:12Z</time>
      </trkpt>
      <trkpt lat="46.36503" lon="6.22142">
        <ele>387</ele>
        <time>2022-09-28T08:09:13Z</time>
      </trkpt>
      <trkpt lat="46.36508" lon="6.22145">
        <ele>387</ele>
        <time>2022-09-28T08:09:14Z</time>
      </trkpt>
      <trkpt lat="46.36512" lon="6.22147">
        <ele>387</ele>
        <time>2022-09-28T08:09:15Z</time>
      </trkpt>
      <trkpt lat="46.36517" lon="6.22152">
        <ele>387.1</ele>
        <time>2022-09-28T08:09:16Z</time>
      </trkpt>
      <trkpt lat="46.36522" lon="6.22155">
        <ele>387.1</ele>
        <time>2022-09-28T08:09:17Z</time>
      </trkpt>
      <trkpt lat="46.36527" lon="6.22159">
        <ele>387.1</ele>
        <time>2022-09-28T08:09:18Z</time>
      </trkpt>
      <trkpt lat="46.36532" lon="6.22162">
        <ele>387.1</ele>
        <time>2022-09-28T08:09:19Z</time>
      </trkpt>
      <trkpt lat="46.36537" lon="6.22165">
        <ele>387.2</ele>
        <time>2022-09-28T08:09:20Z</time>
      </trkpt>
      <trkpt lat="46.36542" lon="6.22169">
        <ele>387.2</ele>
        <time>2022-09-28T08:09:21Z</time>
      </trkpt>
      <trkpt lat="46.36547" lon="6.22173">
        <ele>387.3</ele>
        <time>2022-09-28T08:09:22Z</time>
      </trkpt>
      <trkpt lat="46.36552" lon="6.22177">
        <ele>387.3</ele>
        <time>2022-09-28T08:09:23Z</time>
      </trkpt>
      <trkpt lat="46.36557" lon="6.2218">
        <ele>387.3</ele>
        <time>2022-09-28T08:09:24Z</time>
      </trkpt>
      <trkpt lat="46.36562" lon="6.22183">
        <ele>387.3</ele>
        <time>2022-09-28T08:09:25Z</time>
      </trkpt>
      <trkpt lat="46.36568" lon="6.22187">
        <ele>387.4</ele>
        <time>2022-09-28T08:09:26Z</time>
      </trkpt>
      <trkpt lat="46.36572" lon="6.2219">
        <ele>387.4</ele>
        <time>2022-09-28T08:09:27Z</time>
      </trkpt>
      <trkpt lat="46.36577" lon="6.22194">
        <ele>387.4</ele>
        <time>2022-09-28T08:09:28Z</time>
      </trkpt>
      <trkpt lat="46.36583" lon="6.22198">
        <ele>387.5</ele>
        <time>2022-09-28T08:09:29Z</time>
      </trkpt>
      <trkpt lat="46.36588" lon="6.22201">
        <ele>387.5</ele>
        <time>2022-09-28T08:09:30Z</time>
      </trkpt>
      <trkpt lat="46.36592" lon="6.22205">
        <ele>387.5</ele>
        <time>2022-09-28T08:09:31Z</time>
      </trkpt>
      <trkpt lat="46.36598" lon="6.22208">
        <ele>387.5</ele>
        <time>2022-09-28T08:09:32Z</time>
      </trkpt>
      <trkpt lat="46.36602" lon="6.22212">
        <ele>387.6</ele>
        <time>2022-09-28T08:09:33Z</time>
      </trkpt>
      <trkpt lat="46.36607" lon="6.22216">
        <ele>387.6</ele>
        <time>2022-09-28T08:09:34Z</time>
      </trkpt>
      <trkpt lat="46.36612" lon="6.2222">
        <ele>387.6</ele>
        <time>2022-09-28T08:09:35Z</time>
      </trkpt>
      <trkpt lat="46.36616" lon="6.22223">
        <ele>387.6</ele>
        <time>2022-09-28T08:09:36Z</time>
      </trkpt>
      <trkpt lat="46.36622" lon="6.22227">
        <ele>387.6</ele>
        <time>2022-09-28T08:09:37Z</time>
      </trkpt>
      <trkpt lat="46.36627" lon="6.22229">
        <ele>387.7</ele>
        <time>2022-09-28T08:09:38Z</time>
      </trkpt>
      <trkpt lat="46.36632" lon="6.22234">
        <ele>387.7</ele>
        <time>2022-09-28T08:09:39Z</time>
      </trkpt>
      <trkpt lat="46.36636" lon="6.22238">
        <ele>387.7</ele>
        <time>2022-09-28T08:09:40Z</time>
      </trkpt>
      <trkpt lat="46.36641" lon="6.22242">
        <ele>387.7</ele>
        <time>2022-09-28T08:09:41Z</time>
      </trkpt>
      <trkpt lat="46.36646" lon="6.22246">
        <ele>387.7</ele>
        <time>2022-09-28T08:09:42Z</time>
      </trkpt>
      <trkpt lat="46.36651" lon="6.2225">
        <ele>387.8</ele>
        <time>2022-09-28T08:09:43Z</time>
      </trkpt>
      <trkpt lat="46.36656" lon="6.22255">
        <ele>387.8</ele>
        <time>2022-09-28T08:09:44Z</time>
      </trkpt>
      <trkpt lat="46.3666" lon="6.22259">
        <ele>387.8</ele>
        <time>2022-09-28T08:09:45Z</time>
      </trkpt>
      <trkpt lat="46.36664" lon="6.22263">
        <ele>387.8</ele>
        <time>2022-09-28T08:09:46Z</time>
      </trkpt>
      <trkpt lat="46.36669" lon="6.22267">
        <ele>387.9</ele>
        <time>2022-09-28T08:09:47Z</time>
      </trkpt>
      <trkpt lat="46.36674" lon="6.22271">
        <ele>387.9</ele>
        <time>2022-09-28T08:09:48Z</time>
      </trkpt>
      <trkpt lat="46.36678" lon="6.22275">
        <ele>387.9</ele>
        <time>2022-09-28T08:09:49Z</time>
      </trkpt>
      <trkpt lat="46.36682" lon="6.2228">
        <ele>387.9</ele>
        <time>2022-09-28T08:09:50Z</time>
      </trkpt>
      <trkpt lat="46.36687" lon="6.22284">
        <ele>387.9</ele>
        <time>2022-09-28T08:09:51Z</time>
      </trkpt>
      <trkpt lat="46.36691" lon="6.22288">
        <ele>387.9</ele>
        <time>2022-09-28T08:09:52Z</time>
      </trkpt>
      <trkpt lat="46.36696" lon="6.22292">
        <ele>388</ele>
        <time>2022-09-28T08:09:53Z</time>
      </trkpt>
      <trkpt lat="46.367" lon="6.22297">
        <ele>388</ele>
        <time>2022-09-28T08:09:54Z</time>
      </trkpt>
      <trkpt lat="46.36705" lon="6.22302">
        <ele>388</ele>
        <time>2022-09-28T08:09:55Z</time>
      </trkpt>
      <trkpt lat="46.36709" lon="6.22306">
        <ele>388</ele>
        <time>2022-09-28T08:09:56Z</time>
      </trkpt>
      <trkpt lat="46.36714" lon="6.22311">
        <ele>388</ele>
        <time>2022-09-28T08:09:57Z</time>
      </trkpt>
      <trkpt lat="46.36719" lon="6.22315">
        <ele>388</ele>
        <time>2022-09-28T08:09:58Z</time>
      </trkpt>
      <trkpt lat="46.36723" lon="6.2232">
        <ele>388</ele>
        <time>2022-09-28T08:09:59Z</time>
      </trkpt>
      <trkpt lat="46.36727" lon="6.22325">
        <ele>388.1</ele>
        <time>2022-09-28T08:10:00Z</time>
      </trkpt>
      <trkpt lat="46.36732" lon="6.22329">
        <ele>388.1</ele>
        <time>2022-09-28T08:10:01Z</time>
      </trkpt>
      <trkpt lat="46.36736" lon="6.22334">
        <ele>388.1</ele>
        <time>2022-09-28T08:10:02Z</time>
      </trkpt>
      <trkpt lat="46.3674" lon="6.22339">
        <ele>388.1</ele>
        <time>2022-09-28T08:10:03Z</time>
      </trkpt>
      <trkpt lat="46.36745" lon="6.22344">
        <ele>388</ele>
        <time>2022-09-28T08:10:04Z</time>
      </trkpt>
      <trkpt lat="46.36749" lon="6.22349">
        <ele>388</ele>
        <time>2022-09-28T08:10:05Z</time>
      </trkpt>
      <trkpt lat="46.36753" lon="6.22354">
        <ele>388</ele>
        <time>2022-09-28T08:10:06Z</time>
      </trkpt>
      <trkpt lat="46.36757" lon="6.2236">
        <ele>388</ele>
        <time>2022-09-28T08:10:07Z</time>
      </trkpt>
      <trkpt lat="46.36761" lon="6.22365">
        <ele>388</ele>
        <time>2022-09-28T08:10:08Z</time>
      </trkpt>
      <trkpt lat="46.36766" lon="6.22369">
        <ele>388</ele>
        <time>2022-09-28T08:10:09Z</time>
      </trkpt>
      <trkpt lat="46.3677" lon="6.22375">
        <ele>388</ele>
        <time>2022-09-28T08:10:10Z</time>
      </trkpt>
      <trkpt lat="46.36774" lon="6.22379">
        <ele>388</ele>
        <time>2022-09-28T08:10:11Z</time>
      </trkpt>
      <trkpt lat="46.36778" lon="6.22385">
        <ele>388</ele>
        <time>2022-09-28T08:10:12Z</time>
      </trkpt>
      <trkpt lat="46.36781" lon="6.22391">
        <ele>388</ele>
        <time>2022-09-28T08:10:13Z</time>
      </trkpt>
      <trkpt lat="46.36785" lon="6.22397">
        <ele>388</ele>
        <time>2022-09-28T08:10:14Z</time>
      </trkpt>
      <trkpt lat="46.36788" lon="6.22402">
        <ele>388</ele>
        <time>2022-09-28T08:10:15Z</time>
      </trkpt>
      <trkpt lat="46.36792" lon="6.22408">
        <ele>388</ele>
        <time>2022-09-28T08:10:16Z</time>
      </trkpt>
      <trkpt lat="46.36795" lon="6.22413">
        <ele>388</ele>
        <time>2022-09-28T08:10:17Z</time>
      </trkpt>
      <trkpt lat="46.36799" lon="6.22418">
        <ele>388</ele>
        <time>2022-09-28T08:10:18Z</time>
      </trkpt>
      <trkpt lat="46.36803" lon="6.22423">
        <ele>388.1</ele>
        <time>2022-09-28T08:10:19Z</time>
      </trkpt>
      <trkpt lat="46.36806" lon="6.22429">
        <ele>388.1</ele>
        <time>2022-09-28T08:10:20Z</time>
      </trkpt>
      <trkpt lat="46.3681" lon="6.22433">
        <ele>388.1</ele>
        <time>2022-09-28T08:10:21Z</time>
      </trkpt>
      <trkpt lat="46.36813" lon="6.22439">
        <ele>388.2</ele>
        <time>2022-09-28T08:10:22Z</time>
      </trkpt>
      <trkpt lat="46.36816" lon="6.22444">
        <ele>388.2</ele>
        <time>2022-09-28T08:10:23Z</time>
      </trkpt>
      <trkpt lat="46.3682" lon="6.22448">
        <ele>388.2</ele>
        <time>2022-09-28T08:10:24Z</time>
      </trkpt>
      <trkpt lat="46.36823" lon="6.22452">
        <ele>388.3</ele>
        <time>2022-09-28T08:10:25Z</time>
      </trkpt>
      <trkpt lat="46.36825" lon="6.22456">
        <ele>388.3</ele>
        <time>2022-09-28T08:10:26Z</time>
      </trkpt>
      <trkpt lat="46.36827" lon="6.22459">
        <ele>388.3</ele>
        <time>2022-09-28T08:10:27Z</time>
      </trkpt>
      <trkpt lat="46.36827" lon="6.2246">
        <ele>388.3</ele>
        <time>2022-09-28T08:10:28Z</time>
      </trkpt>
      <trkpt lat="46.3683" lon="6.22463">
        <ele>388.3</ele>
        <time>2022-09-28T08:10:29Z</time>
      </trkpt>
      <trkpt lat="46.36831" lon="6.22464">
        <ele>388.4</ele>
        <time>2022-09-28T08:10:30Z</time>
      </trkpt>
      <trkpt lat="46.36834" lon="6.22466">
        <ele>388.4</ele>
        <time>2022-09-28T08:10:31Z</time>
      </trkpt>
      <trkpt lat="46.36836" lon="6.22468">
        <ele>388.4</ele>
        <time>2022-09-28T08:10:32Z</time>
      </trkpt>
      <trkpt lat="46.36837" lon="6.2247">
        <ele>388.4</ele>
        <time>2022-09-28T08:10:33Z</time>
      </trkpt>
      <trkpt lat="46.3684" lon="6.22474">
        <ele>388.4</ele>
        <time>2022-09-28T08:10:34Z</time>
      </trkpt>
      <trkpt lat="46.36841" lon="6.22475">
        <ele>388.4</ele>
        <time>2022-09-28T08:10:35Z</time>
      </trkpt>
      <trkpt lat="46.36843" lon="6.22479">
        <ele>388.5</ele>
        <time>2022-09-28T08:10:36Z</time>
      </trkpt>
      <trkpt lat="46.36846" lon="6.22482">
        <ele>388.5</ele>
        <time>2022-09-28T08:10:37Z</time>
      </trkpt>
      <trkpt lat="46.36848" lon="6.22486">
        <ele>388.6</ele>
        <time>2022-09-28T08:10:38Z</time>
      </trkpt>
      <trkpt lat="46.3685" lon="6.2249">
        <ele>388.6</ele>
        <time>2022-09-28T08:10:39Z</time>
      </trkpt>
      <trkpt lat="46.36852" lon="6.22494">
        <ele>388.6</ele>
        <time>2022-09-28T08:10:40Z</time>
      </trkpt>
      <trkpt lat="46.36855" lon="6.22498">
        <ele>388.7</ele>
        <time>2022-09-28T08:10:41Z</time>
      </trkpt>
      <trkpt lat="46.36857" lon="6.22502">
        <ele>388.7</ele>
        <time>2022-09-28T08:10:42Z</time>
      </trkpt>
      <trkpt lat="46.36859" lon="6.22506">
        <ele>388.7</ele>
        <time>2022-09-28T08:10:43Z</time>
      </trkpt>
      <trkpt lat="46.36862" lon="6.22509">
        <ele>388.8</ele>
        <time>2022-09-28T08:10:44Z</time>
      </trkpt>
      <trkpt lat="46.36864" lon="6.22514">
        <ele>388.8</ele>
        <time>2022-09-28T08:10:45Z</time>
      </trkpt>
      <trkpt lat="46.36866" lon="6.22518">
        <ele>388.9</ele>
        <time>2022-09-28T08:10:46Z</time>
      </trkpt>
      <trkpt lat="46.36869" lon="6.22522">
        <ele>388.9</ele>
        <time>2022-09-28T08:10:47Z</time>
      </trkpt>
      <trkpt lat="46.36871" lon="6.22526">
        <ele>389</ele>
        <time>2022-09-28T08:10:48Z</time>
      </trkpt>
      <trkpt lat="46.36873" lon="6.22531">
        <ele>389</ele>
        <time>2022-09-28T08:10:49Z</time>
      </trkpt>
      <trkpt lat="46.36876" lon="6.22535">
        <ele>389.1</ele>
        <time>2022-09-28T08:10:50Z</time>
      </trkpt>
      <trkpt lat="46.36878" lon="6.22539">
        <ele>389.2</ele>
        <time>2022-09-28T08:10:51Z</time>
      </trkpt>
      <trkpt lat="46.36881" lon="6.22544">
        <ele>389.2</ele>
        <time>2022-09-28T08:10:52Z</time>
      </trkpt>
      <trkpt lat="46.36883" lon="6.22548">
        <ele>389.3</ele>
        <time>2022-09-28T08:10:53Z</time>
      </trkpt>
      <trkpt lat="46.36885" lon="6.22552">
        <ele>389.3</ele>
        <time>2022-09-28T08:10:54Z</time>
      </trkpt>
      <trkpt lat="46.36887" lon="6.22556">
        <ele>389.4</ele>
        <time>2022-09-28T08:10:55Z</time>
      </trkpt>
      <trkpt lat="46.36889" lon="6.2256">
        <ele>389.4</ele>
        <time>2022-09-28T08:10:56Z</time>
      </trkpt>
      <trkpt lat="46.36891" lon="6.22565">
        <ele>389.5</ele>
        <time>2022-09-28T08:10:57Z</time>
      </trkpt>
      <trkpt lat="46.36894" lon="6.22568">
        <ele>389.5</ele>
        <time>2022-09-28T08:10:58Z</time>
      </trkpt>
      <trkpt lat="46.36896" lon="6.22572">
        <ele>389.6</ele>
        <time>2022-09-28T08:10:59Z</time>
      </trkpt>
      <trkpt lat="46.36897" lon="6.22577">
        <ele>389.7</ele>
        <time>2022-09-28T08:11:00Z</time>
      </trkpt>
      <trkpt lat="46.36899" lon="6.22581">
        <ele>389.7</ele>
        <time>2022-09-28T08:11:01Z</time>
      </trkpt>
      <trkpt lat="46.36901" lon="6.22585">
        <ele>389.8</ele>
        <time>2022-09-28T08:11:02Z</time>
      </trkpt>
      <trkpt lat="46.36904" lon="6.22589">
        <ele>389.8</ele>
        <time>2022-09-28T08:11:03Z</time>
      </trkpt>
      <trkpt lat="46.36906" lon="6.22593">
        <ele>389.9</ele>
        <time>2022-09-28T08:11:04Z</time>
      </trkpt>
      <trkpt lat="46.36907" lon="6.22598">
        <ele>390</ele>
        <time>2022-09-28T08:11:05Z</time>
      </trkpt>
      <trkpt lat="46.36909" lon="6.22602">
        <ele>390</ele>
        <time>2022-09-28T08:11:06Z</time>
      </trkpt>
      <trkpt lat="46.36911" lon="6.22606">
        <ele>390.1</ele>
        <time>2022-09-28T08:11:07Z</time>
      </trkpt>
      <trkpt lat="46.36913" lon="6.22611">
        <ele>390.2</ele>
        <time>2022-09-28T08:11:08Z</time>
      </trkpt>
      <trkpt lat="46.36915" lon="6.22614">
        <ele>390.3</ele>
        <time>2022-09-28T08:11:09Z</time>
      </trkpt>
      <trkpt lat="46.36917" lon="6.22618">
        <ele>390.3</ele>
        <time>2022-09-28T08:11:10Z</time>
      </trkpt>
      <trkpt lat="46.3692" lon="6.22622">
        <ele>390.4</ele>
        <time>2022-09-28T08:11:11Z</time>
      </trkpt>
      <trkpt lat="46.36922" lon="6.22627">
        <ele>390.5</ele>
        <time>2022-09-28T08:11:12Z</time>
      </trkpt>
      <trkpt lat="46.36923" lon="6.22631">
        <ele>390.6</ele>
        <time>2022-09-28T08:11:13Z</time>
      </trkpt>
      <trkpt lat="46.36926" lon="6.22634">
        <ele>390.6</ele>
        <time>2022-09-28T08:11:14Z</time>
      </trkpt>
      <trkpt lat="46.36928" lon="6.22638">
        <ele>390.7</ele>
        <time>2022-09-28T08:11:15Z</time>
      </trkpt>
      <trkpt lat="46.36929" lon="6.22643">
        <ele>390.8</ele>
        <time>2022-09-28T08:11:16Z</time>
      </trkpt>
      <trkpt lat="46.36931" lon="6.22647">
        <ele>390.8</ele>
        <time>2022-09-28T08:11:17Z</time>
      </trkpt>
      <trkpt lat="46.36933" lon="6.22651">
        <ele>390.9</ele>
        <time>2022-09-28T08:11:18Z</time>
      </trkpt>
      <trkpt lat="46.36935" lon="6.22655">
        <ele>390.9</ele>
        <time>2022-09-28T08:11:19Z</time>
      </trkpt>
      <trkpt lat="46.36938" lon="6.22659">
        <ele>391</ele>
        <time>2022-09-28T08:11:20Z</time>
      </trkpt>
      <trkpt lat="46.3694" lon="6.22664">
        <ele>391.1</ele>
        <time>2022-09-28T08:11:21Z</time>
      </trkpt>
      <trkpt lat="46.36942" lon="6.22668">
        <ele>391.1</ele>
        <time>2022-09-28T08:11:22Z</time>
      </trkpt>
      <trkpt lat="46.36944" lon="6.22672">
        <ele>391.2</ele>
        <time>2022-09-28T08:11:23Z</time>
      </trkpt>
      <trkpt lat="46.36946" lon="6.22676">
        <ele>391.3</ele>
        <time>2022-09-28T08:11:24Z</time>
      </trkpt>
      <trkpt lat="46.36948" lon="6.2268">
        <ele>391.4</ele>
        <time>2022-09-28T08:11:25Z</time>
      </trkpt>
      <trkpt lat="46.3695" lon="6.22685">
        <ele>391.5</ele>
        <time>2022-09-28T08:11:26Z</time>
      </trkpt>
      <trkpt lat="46.36953" lon="6.22689">
        <ele>391.6</ele>
        <time>2022-09-28T08:11:27Z</time>
      </trkpt>
      <trkpt lat="46.36955" lon="6.22694">
        <ele>391.7</ele>
        <time>2022-09-28T08:11:28Z</time>
      </trkpt>
      <trkpt lat="46.36956" lon="6.22697">
        <ele>391.7</ele>
        <time>2022-09-28T08:11:29Z</time>
      </trkpt>
      <trkpt lat="46.36959" lon="6.22702">
        <ele>391.8</ele>
        <time>2022-09-28T08:11:30Z</time>
      </trkpt>
      <trkpt lat="46.36961" lon="6.22706">
        <ele>391.9</ele>
        <time>2022-09-28T08:11:31Z</time>
      </trkpt>
      <trkpt lat="46.36963" lon="6.2271">
        <ele>392</ele>
        <time>2022-09-28T08:11:32Z</time>
      </trkpt>
      <trkpt lat="46.36965" lon="6.22714">
        <ele>392</ele>
        <time>2022-09-28T08:11:33Z</time>
      </trkpt>
      <trkpt lat="46.36967" lon="6.22719">
        <ele>392</ele>
        <time>2022-09-28T08:11:34Z</time>
      </trkpt>
      <trkpt lat="46.36968" lon="6.22723">
        <ele>392</ele>
        <time>2022-09-28T08:11:35Z</time>
      </trkpt>
      <trkpt lat="46.3697" lon="6.22726">
        <ele>392</ele>
        <time>2022-09-28T08:11:36Z</time>
      </trkpt>
      <trkpt lat="46.36972" lon="6.22729">
        <ele>392</ele>
        <time>2022-09-28T08:11:37Z</time>
      </trkpt>
      <trkpt lat="46.36974" lon="6.22734">
        <ele>392</ele>
        <time>2022-09-28T08:11:38Z</time>
      </trkpt>
      <trkpt lat="46.36976" lon="6.22738">
        <ele>392.1</ele>
        <time>2022-09-28T08:11:39Z</time>
      </trkpt>
      <trkpt lat="46.36978" lon="6.22742">
        <ele>392.1</ele>
        <time>2022-09-28T08:11:40Z</time>
      </trkpt>
      <trkpt lat="46.3698" lon="6.22747">
        <ele>392.1</ele>
        <time>2022-09-28T08:11:41Z</time>
      </trkpt>
      <trkpt lat="46.36982" lon="6.22751">
        <ele>392.2</ele>
        <time>2022-09-28T08:11:42Z</time>
      </trkpt>
      <trkpt lat="46.36984" lon="6.22755">
        <ele>392.2</ele>
        <time>2022-09-28T08:11:43Z</time>
      </trkpt>
      <trkpt lat="46.36986" lon="6.22759">
        <ele>392.3</ele>
        <time>2022-09-28T08:11:44Z</time>
      </trkpt>
      <trkpt lat="46.36988" lon="6.22763">
        <ele>392.3</ele>
        <time>2022-09-28T08:11:45Z</time>
      </trkpt>
      <trkpt lat="46.3699" lon="6.22766">
        <ele>392.3</ele>
        <time>2022-09-28T08:11:46Z</time>
      </trkpt>
      <trkpt lat="46.36991" lon="6.2277">
        <ele>392.4</ele>
        <time>2022-09-28T08:11:47Z</time>
      </trkpt>
      <trkpt lat="46.36993" lon="6.22774">
        <ele>392.4</ele>
        <time>2022-09-28T08:11:48Z</time>
      </trkpt>
      <trkpt lat="46.36995" lon="6.22779">
        <ele>392.5</ele>
        <time>2022-09-28T08:11:49Z</time>
      </trkpt>
      <trkpt lat="46.36997" lon="6.22782">
        <ele>392.6</ele>
        <time>2022-09-28T08:11:50Z</time>
      </trkpt>
      <trkpt lat="46.36999" lon="6.22787">
        <ele>392.7</ele>
        <time>2022-09-28T08:11:51Z</time>
      </trkpt>
      <trkpt lat="46.37002" lon="6.22791">
        <ele>392.7</ele>
        <time>2022-09-28T08:11:52Z</time>
      </trkpt>
      <trkpt lat="46.37004" lon="6.22795">
        <ele>392.8</ele>
        <time>2022-09-28T08:11:53Z</time>
      </trkpt>
      <trkpt lat="46.37006" lon="6.22799">
        <ele>392.9</ele>
        <time>2022-09-28T08:11:54Z</time>
      </trkpt>
      <trkpt lat="46.37008" lon="6.22804">
        <ele>393</ele>
        <time>2022-09-28T08:11:55Z</time>
      </trkpt>
      <trkpt lat="46.3701" lon="6.22807">
        <ele>393.1</ele>
        <time>2022-09-28T08:11:56Z</time>
      </trkpt>
      <trkpt lat="46.37012" lon="6.22812">
        <ele>393.2</ele>
        <time>2022-09-28T08:11:57Z</time>
      </trkpt>
      <trkpt lat="46.37014" lon="6.22816">
        <ele>393.2</ele>
        <time>2022-09-28T08:11:58Z</time>
      </trkpt>
      <trkpt lat="46.37016" lon="6.2282">
        <ele>393.3</ele>
        <time>2022-09-28T08:11:59Z</time>
      </trkpt>
      <trkpt lat="46.37018" lon="6.22824">
        <ele>393.4</ele>
        <time>2022-09-28T08:12:00Z</time>
      </trkpt>
      <trkpt lat="46.3702" lon="6.22828">
        <ele>393.5</ele>
        <time>2022-09-28T08:12:01Z</time>
      </trkpt>
      <trkpt lat="46.37022" lon="6.22831">
        <ele>393.6</ele>
        <time>2022-09-28T08:12:02Z</time>
      </trkpt>
      <trkpt lat="46.37024" lon="6.22835">
        <ele>393.7</ele>
        <time>2022-09-28T08:12:03Z</time>
      </trkpt>
      <trkpt lat="46.37026" lon="6.22838">
        <ele>393.7</ele>
        <time>2022-09-28T08:12:04Z</time>
      </trkpt>
      <trkpt lat="46.37028" lon="6.22843">
        <ele>393.8</ele>
        <time>2022-09-28T08:12:05Z</time>
      </trkpt>
      <trkpt lat="46.37029" lon="6.22845">
        <ele>393.9</ele>
        <time>2022-09-28T08:12:06Z</time>
      </trkpt>
      <trkpt lat="46.37032" lon="6.22849">
        <ele>393.9</ele>
        <time>2022-09-28T08:12:07Z</time>
      </trkpt>
      <trkpt lat="46.37033" lon="6.22853">
        <ele>394</ele>
        <time>2022-09-28T08:12:08Z</time>
      </trkpt>
      <trkpt lat="46.37035" lon="6.22856">
        <ele>394.1</ele>
        <time>2022-09-28T08:12:09Z</time>
      </trkpt>
      <trkpt lat="46.37037" lon="6.22861">
        <ele>394.2</ele>
        <time>2022-09-28T08:12:10Z</time>
      </trkpt>
      <trkpt lat="46.37039" lon="6.22865">
        <ele>394.2</ele>
        <time>2022-09-28T08:12:11Z</time>
      </trkpt>
      <trkpt lat="46.37041" lon="6.22868">
        <ele>394.3</ele>
        <time>2022-09-28T08:12:12Z</time>
      </trkpt>
      <trkpt lat="46.37043" lon="6.22872">
        <ele>394.4</ele>
        <time>2022-09-28T08:12:13Z</time>
      </trkpt>
      <trkpt lat="46.37044" lon="6.22875">
        <ele>394.4</ele>
        <time>2022-09-28T08:12:14Z</time>
      </trkpt>
      <trkpt lat="46.37047" lon="6.22879">
        <ele>394.5</ele>
        <time>2022-09-28T08:12:15Z</time>
      </trkpt>
      <trkpt lat="46.37048" lon="6.22883">
        <ele>394.6</ele>
        <time>2022-09-28T08:12:16Z</time>
      </trkpt>
      <trkpt lat="46.3705" lon="6.22886">
        <ele>394.6</ele>
        <time>2022-09-28T08:12:17Z</time>
      </trkpt>
      <trkpt lat="46.37053" lon="6.22889">
        <ele>394.6</ele>
        <time>2022-09-28T08:12:18Z</time>
      </trkpt>
      <trkpt lat="46.37054" lon="6.22893">
        <ele>394.7</ele>
        <time>2022-09-28T08:12:19Z</time>
      </trkpt>
      <trkpt lat="46.37056" lon="6.22897">
        <ele>394.7</ele>
        <time>2022-09-28T08:12:20Z</time>
      </trkpt>
      <trkpt lat="46.37059" lon="6.22901">
        <ele>394.7</ele>
        <time>2022-09-28T08:12:21Z</time>
      </trkpt>
      <trkpt lat="46.3706" lon="6.22903">
        <ele>394.8</ele>
        <time>2022-09-28T08:12:22Z</time>
      </trkpt>
      <trkpt lat="46.37063" lon="6.22907">
        <ele>394.8</ele>
        <time>2022-09-28T08:12:23Z</time>
      </trkpt>
      <trkpt lat="46.37065" lon="6.22911">
        <ele>394.8</ele>
        <time>2022-09-28T08:12:24Z</time>
      </trkpt>
      <trkpt lat="46.37067" lon="6.22915">
        <ele>394.9</ele>
        <time>2022-09-28T08:12:25Z</time>
      </trkpt>
      <trkpt lat="46.37069" lon="6.22918">
        <ele>394.9</ele>
        <time>2022-09-28T08:12:26Z</time>
      </trkpt>
      <trkpt lat="46.37072" lon="6.22922">
        <ele>395</ele>
        <time>2022-09-28T08:12:27Z</time>
      </trkpt>
      <trkpt lat="46.37074" lon="6.22926">
        <ele>395</ele>
        <time>2022-09-28T08:12:28Z</time>
      </trkpt>
      <trkpt lat="46.37076" lon="6.2293">
        <ele>395.1</ele>
        <time>2022-09-28T08:12:29Z</time>
      </trkpt>
      <trkpt lat="46.37079" lon="6.22934">
        <ele>395.1</ele>
        <time>2022-09-28T08:12:30Z</time>
      </trkpt>
      <trkpt lat="46.37081" lon="6.22938">
        <ele>395.2</ele>
        <time>2022-09-28T08:12:31Z</time>
      </trkpt>
      <trkpt lat="46.37084" lon="6.22942">
        <ele>395.3</ele>
        <time>2022-09-28T08:12:32Z</time>
      </trkpt>
      <trkpt lat="46.37086" lon="6.22946">
        <ele>395.3</ele>
        <time>2022-09-28T08:12:33Z</time>
      </trkpt>
      <trkpt lat="46.37088" lon="6.2295">
        <ele>395.4</ele>
        <time>2022-09-28T08:12:34Z</time>
      </trkpt>
      <trkpt lat="46.37091" lon="6.22954">
        <ele>395.4</ele>
        <time>2022-09-28T08:12:35Z</time>
      </trkpt>
      <trkpt lat="46.37093" lon="6.22957">
        <ele>395.5</ele>
        <time>2022-09-28T08:12:36Z</time>
      </trkpt>
      <trkpt lat="46.37096" lon="6.22961">
        <ele>395.6</ele>
        <time>2022-09-28T08:12:37Z</time>
      </trkpt>
      <trkpt lat="46.37098" lon="6.22965">
        <ele>395.6</ele>
        <time>2022-09-28T08:12:38Z</time>
      </trkpt>
      <trkpt lat="46.37101" lon="6.22969">
        <ele>395.7</ele>
        <time>2022-09-28T08:12:39Z</time>
      </trkpt>
      <trkpt lat="46.37104" lon="6.22973">
        <ele>395.7</ele>
        <time>2022-09-28T08:12:40Z</time>
      </trkpt>
      <trkpt lat="46.37106" lon="6.22977">
        <ele>395.8</ele>
        <time>2022-09-28T08:12:41Z</time>
      </trkpt>
      <trkpt lat="46.37109" lon="6.22982">
        <ele>395.9</ele>
        <time>2022-09-28T08:12:42Z</time>
      </trkpt>
      <trkpt lat="46.37111" lon="6.22986">
        <ele>395.9</ele>
        <time>2022-09-28T08:12:43Z</time>
      </trkpt>
      <trkpt lat="46.37114" lon="6.2299">
        <ele>396</ele>
        <time>2022-09-28T08:12:44Z</time>
      </trkpt>
      <trkpt lat="46.37117" lon="6.22994">
        <ele>396</ele>
        <time>2022-09-28T08:12:45Z</time>
      </trkpt>
      <trkpt lat="46.3712" lon="6.22997">
        <ele>396.1</ele>
        <time>2022-09-28T08:12:46Z</time>
      </trkpt>
      <trkpt lat="46.37122" lon="6.23001">
        <ele>396.2</ele>
        <time>2022-09-28T08:12:47Z</time>
      </trkpt>
      <trkpt lat="46.37125" lon="6.23005">
        <ele>396.2</ele>
        <time>2022-09-28T08:12:48Z</time>
      </trkpt>
      <trkpt lat="46.37128" lon="6.23009">
        <ele>396.3</ele>
        <time>2022-09-28T08:12:49Z</time>
      </trkpt>
      <trkpt lat="46.3713" lon="6.23013">
        <ele>396.3</ele>
        <time>2022-09-28T08:12:50Z</time>
      </trkpt>
      <trkpt lat="46.37133" lon="6.23017">
        <ele>396.4</ele>
        <time>2022-09-28T08:12:51Z</time>
      </trkpt>
      <trkpt lat="46.37136" lon="6.23021">
        <ele>396.4</ele>
        <time>2022-09-28T08:12:52Z</time>
      </trkpt>
      <trkpt lat="46.3714" lon="6.23025">
        <ele>396.4</ele>
        <time>2022-09-28T08:12:53Z</time>
      </trkpt>
      <trkpt lat="46.37142" lon="6.23029">
        <ele>396.5</ele>
        <time>2022-09-28T08:12:54Z</time>
      </trkpt>
      <trkpt lat="46.37146" lon="6.23033">
        <ele>396.5</ele>
        <time>2022-09-28T08:12:55Z</time>
      </trkpt>
      <trkpt lat="46.37149" lon="6.23037">
        <ele>396.5</ele>
        <time>2022-09-28T08:12:56Z</time>
      </trkpt>
      <trkpt lat="46.37152" lon="6.23041">
        <ele>396.5</ele>
        <time>2022-09-28T08:12:57Z</time>
      </trkpt>
      <trkpt lat="46.37155" lon="6.23045">
        <ele>396.5</ele>
        <time>2022-09-28T08:12:58Z</time>
      </trkpt>
      <trkpt lat="46.37159" lon="6.23049">
        <ele>396.5</ele>
        <time>2022-09-28T08:12:59Z</time>
      </trkpt>
      <trkpt lat="46.37162" lon="6.23053">
        <ele>396.5</ele>
        <time>2022-09-28T08:13:00Z</time>
      </trkpt>
      <trkpt lat="46.37166" lon="6.23057">
        <ele>396.5</ele>
        <time>2022-09-28T08:13:01Z</time>
      </trkpt>
      <trkpt lat="46.3717" lon="6.23061">
        <ele>396.5</ele>
        <time>2022-09-28T08:13:02Z</time>
      </trkpt>
      <trkpt lat="46.37173" lon="6.23065">
        <ele>396.5</ele>
        <time>2022-09-28T08:13:03Z</time>
      </trkpt>
      <trkpt lat="46.37177" lon="6.23069">
        <ele>396.4</ele>
        <time>2022-09-28T08:13:04Z</time>
      </trkpt>
      <trkpt lat="46.3718" lon="6.23073">
        <ele>396.4</ele>
        <time>2022-09-28T08:13:05Z</time>
      </trkpt>
      <trkpt lat="46.37184" lon="6.23077">
        <ele>396.3</ele>
        <time>2022-09-28T08:13:06Z</time>
      </trkpt>
      <trkpt lat="46.37187" lon="6.23081">
        <ele>396.3</ele>
        <time>2022-09-28T08:13:07Z</time>
      </trkpt>
      <trkpt lat="46.37191" lon="6.23085">
        <ele>396.2</ele>
        <time>2022-09-28T08:13:08Z</time>
      </trkpt>
      <trkpt lat="46.37195" lon="6.23089">
        <ele>396.2</ele>
        <time>2022-09-28T08:13:09Z</time>
      </trkpt>
      <trkpt lat="46.37198" lon="6.23092">
        <ele>396.1</ele>
        <time>2022-09-28T08:13:10Z</time>
      </trkpt>
      <trkpt lat="46.37202" lon="6.23096">
        <ele>396</ele>
        <time>2022-09-28T08:13:11Z</time>
      </trkpt>
      <trkpt lat="46.37205" lon="6.231">
        <ele>395.9</ele>
        <time>2022-09-28T08:13:12Z</time>
      </trkpt>
      <trkpt lat="46.3721" lon="6.23105">
        <ele>395.8</ele>
        <time>2022-09-28T08:13:13Z</time>
      </trkpt>
      <trkpt lat="46.37213" lon="6.2311">
        <ele>395.7</ele>
        <time>2022-09-28T08:13:14Z</time>
      </trkpt>
      <trkpt lat="46.37217" lon="6.23113">
        <ele>395.6</ele>
        <time>2022-09-28T08:13:15Z</time>
      </trkpt>
      <trkpt lat="46.37222" lon="6.23119">
        <ele>395.4</ele>
        <time>2022-09-28T08:13:16Z</time>
      </trkpt>
      <trkpt lat="46.37226" lon="6.23124">
        <ele>395.3</ele>
        <time>2022-09-28T08:13:17Z</time>
      </trkpt>
      <trkpt lat="46.3723" lon="6.23129">
        <ele>395.1</ele>
        <time>2022-09-28T08:13:18Z</time>
      </trkpt>
      <trkpt lat="46.37235" lon="6.23134">
        <ele>395</ele>
        <time>2022-09-28T08:13:19Z</time>
      </trkpt>
      <trkpt lat="46.3724" lon="6.23139">
        <ele>394.8</ele>
        <time>2022-09-28T08:13:20Z</time>
      </trkpt>
      <trkpt lat="46.37246" lon="6.23145">
        <ele>394.6</ele>
        <time>2022-09-28T08:13:21Z</time>
      </trkpt>
      <trkpt lat="46.37252" lon="6.23151">
        <ele>394.3</ele>
        <time>2022-09-28T08:13:22Z</time>
      </trkpt>
      <trkpt lat="46.37257" lon="6.23157">
        <ele>394.1</ele>
        <time>2022-09-28T08:13:23Z</time>
      </trkpt>
      <trkpt lat="46.37263" lon="6.23163">
        <ele>393.9</ele>
        <time>2022-09-28T08:13:24Z</time>
      </trkpt>
      <trkpt lat="46.37268" lon="6.23169">
        <ele>393.6</ele>
        <time>2022-09-28T08:13:25Z</time>
      </trkpt>
      <trkpt lat="46.37274" lon="6.23175">
        <ele>393.5</ele>
        <time>2022-09-28T08:13:26Z</time>
      </trkpt>
      <trkpt lat="46.3728" lon="6.23182">
        <ele>393.3</ele>
        <time>2022-09-28T08:13:27Z</time>
      </trkpt>
      <trkpt lat="46.37287" lon="6.23189">
        <ele>393</ele>
        <time>2022-09-28T08:13:28Z</time>
      </trkpt>
      <trkpt lat="46.37292" lon="6.23195">
        <ele>392.6</ele>
        <time>2022-09-28T08:13:29Z</time>
      </trkpt>
      <trkpt lat="46.37298" lon="6.23202">
        <ele>392.2</ele>
        <time>2022-09-28T08:13:30Z</time>
      </trkpt>
      <trkpt lat="46.37304" lon="6.23208">
        <ele>391.9</ele>
        <time>2022-09-28T08:13:31Z</time>
      </trkpt>
      <trkpt lat="46.37312" lon="6.23216">
        <ele>391.4</ele>
        <time>2022-09-28T08:13:32Z</time>
      </trkpt>
      <trkpt lat="46.3732" lon="6.23223">
        <ele>390.9</ele>
        <time>2022-09-28T08:13:33Z</time>
      </trkpt>
      <trkpt lat="46.37326" lon="6.2323">
        <ele>390.5</ele>
        <time>2022-09-28T08:13:34Z</time>
      </trkpt>
      <trkpt lat="46.37333" lon="6.23238">
        <ele>390</ele>
        <time>2022-09-28T08:13:35Z</time>
      </trkpt>
      <trkpt lat="46.3734" lon="6.23245">
        <ele>389.6</ele>
        <time>2022-09-28T08:13:36Z</time>
      </trkpt>
      <trkpt lat="46.37347" lon="6.23253">
        <ele>389.2</ele>
        <time>2022-09-28T08:13:37Z</time>
      </trkpt>
      <trkpt lat="46.37353" lon="6.23259">
        <ele>388.9</ele>
        <time>2022-09-28T08:13:38Z</time>
      </trkpt>
      <trkpt lat="46.37359" lon="6.23266">
        <ele>388.6</ele>
        <time>2022-09-28T08:13:39Z</time>
      </trkpt>
      <trkpt lat="46.37367" lon="6.23274">
        <ele>388.3</ele>
        <time>2022-09-28T08:13:40Z</time>
      </trkpt>
      <trkpt lat="46.37373" lon="6.2328">
        <ele>388</ele>
        <time>2022-09-28T08:13:41Z</time>
      </trkpt>
      <trkpt lat="46.37381" lon="6.23287">
        <ele>387.8</ele>
        <time>2022-09-28T08:13:42Z</time>
      </trkpt>
      <trkpt lat="46.37387" lon="6.23292">
        <ele>387.7</ele>
        <time>2022-09-28T08:13:43Z</time>
      </trkpt>
      <trkpt lat="46.37393" lon="6.23297">
        <ele>387.6</ele>
        <time>2022-09-28T08:13:44Z</time>
      </trkpt>
      <trkpt lat="46.37398" lon="6.23301">
        <ele>387.5</ele>
        <time>2022-09-28T08:13:45Z</time>
      </trkpt>
      <trkpt lat="46.37404" lon="6.23306">
        <ele>387.4</ele>
        <time>2022-09-28T08:13:46Z</time>
      </trkpt>
      <trkpt lat="46.37409" lon="6.2331">
        <ele>387.3</ele>
        <time>2022-09-28T08:13:47Z</time>
      </trkpt>
      <trkpt lat="46.37414" lon="6.23315">
        <ele>387.2</ele>
        <time>2022-09-28T08:13:48Z</time>
      </trkpt>
      <trkpt lat="46.3742" lon="6.23319">
        <ele>387.1</ele>
        <time>2022-09-28T08:13:49Z</time>
      </trkpt>
      <trkpt lat="46.37426" lon="6.23324">
        <ele>387.1</ele>
        <time>2022-09-28T08:13:50Z</time>
      </trkpt>
      <trkpt lat="46.37433" lon="6.2333">
        <ele>387</ele>
        <time>2022-09-28T08:13:51Z</time>
      </trkpt>
      <trkpt lat="46.3744" lon="6.23334">
        <ele>386.9</ele>
        <time>2022-09-28T08:13:52Z</time>
      </trkpt>
      <trkpt lat="46.37445" lon="6.23338">
        <ele>386.9</ele>
        <time>2022-09-28T08:13:53Z</time>
      </trkpt>
      <trkpt lat="46.37451" lon="6.23343">
        <ele>386.8</ele>
        <time>2022-09-28T08:13:54Z</time>
      </trkpt>
      <trkpt lat="46.37456" lon="6.23347">
        <ele>386.8</ele>
        <time>2022-09-28T08:13:55Z</time>
      </trkpt>
      <trkpt lat="46.37462" lon="6.23352">
        <ele>386.7</ele>
        <time>2022-09-28T08:13:56Z</time>
      </trkpt>
      <trkpt lat="46.37469" lon="6.23357">
        <ele>386.7</ele>
        <time>2022-09-28T08:13:57Z</time>
      </trkpt>
      <trkpt lat="46.37477" lon="6.23363">
        <ele>386.7</ele>
        <time>2022-09-28T08:13:58Z</time>
      </trkpt>
      <trkpt lat="46.37484" lon="6.23369">
        <ele>386.7</ele>
        <time>2022-09-28T08:13:59Z</time>
      </trkpt>
      <trkpt lat="46.37491" lon="6.23374">
        <ele>386.7</ele>
        <time>2022-09-28T08:14:00Z</time>
      </trkpt>
      <trkpt lat="46.37498" lon="6.23379">
        <ele>386.6</ele>
        <time>2022-09-28T08:14:01Z</time>
      </trkpt>
      <trkpt lat="46.37504" lon="6.23383">
        <ele>386.6</ele>
        <time>2022-09-28T08:14:02Z</time>
      </trkpt>
      <trkpt lat="46.3751" lon="6.23388">
        <ele>386.5</ele>
        <time>2022-09-28T08:14:03Z</time>
      </trkpt>
      <trkpt lat="46.37516" lon="6.23394">
        <ele>386.4</ele>
        <time>2022-09-28T08:14:04Z</time>
      </trkpt>
      <trkpt lat="46.37522" lon="6.23398">
        <ele>386.4</ele>
        <time>2022-09-28T08:14:05Z</time>
      </trkpt>
      <trkpt lat="46.37528" lon="6.23403">
        <ele>386.4</ele>
        <time>2022-09-28T08:14:06Z</time>
      </trkpt>
      <trkpt lat="46.37534" lon="6.23407">
        <ele>386.3</ele>
        <time>2022-09-28T08:14:07Z</time>
      </trkpt>
      <trkpt lat="46.37539" lon="6.23412">
        <ele>386.3</ele>
        <time>2022-09-28T08:14:08Z</time>
      </trkpt>
      <trkpt lat="46.37545" lon="6.23416">
        <ele>386.3</ele>
        <time>2022-09-28T08:14:09Z</time>
      </trkpt>
      <trkpt lat="46.37551" lon="6.23419">
        <ele>386.2</ele>
        <time>2022-09-28T08:14:10Z</time>
      </trkpt>
      <trkpt lat="46.37557" lon="6.23424">
        <ele>386.2</ele>
        <time>2022-09-28T08:14:11Z</time>
      </trkpt>
      <trkpt lat="46.37563" lon="6.23429">
        <ele>386.1</ele>
        <time>2022-09-28T08:14:12Z</time>
      </trkpt>
      <trkpt lat="46.37569" lon="6.23434">
        <ele>386.1</ele>
        <time>2022-09-28T08:14:13Z</time>
      </trkpt>
      <trkpt lat="46.37575" lon="6.23438">
        <ele>386</ele>
        <time>2022-09-28T08:14:14Z</time>
      </trkpt>
      <trkpt lat="46.3758" lon="6.23443">
        <ele>386</ele>
        <time>2022-09-28T08:14:15Z</time>
      </trkpt>
      <trkpt lat="46.37586" lon="6.23447">
        <ele>385.9</ele>
        <time>2022-09-28T08:14:16Z</time>
      </trkpt>
      <trkpt lat="46.37592" lon="6.23451">
        <ele>385.9</ele>
        <time>2022-09-28T08:14:17Z</time>
      </trkpt>
      <trkpt lat="46.37597" lon="6.23455">
        <ele>385.8</ele>
        <time>2022-09-28T08:14:18Z</time>
      </trkpt>
      <trkpt lat="46.37603" lon="6.23459">
        <ele>385.8</ele>
        <time>2022-09-28T08:14:19Z</time>
      </trkpt>
      <trkpt lat="46.37608" lon="6.23463">
        <ele>385.7</ele>
        <time>2022-09-28T08:14:20Z</time>
      </trkpt>
      <trkpt lat="46.37613" lon="6.23467">
        <ele>385.7</ele>
        <time>2022-09-28T08:14:21Z</time>
      </trkpt>
      <trkpt lat="46.37619" lon="6.23472">
        <ele>385.6</ele>
        <time>2022-09-28T08:14:22Z</time>
      </trkpt>
      <trkpt lat="46.37624" lon="6.23476">
        <ele>385.6</ele>
        <time>2022-09-28T08:14:23Z</time>
      </trkpt>
      <trkpt lat="46.37629" lon="6.2348">
        <ele>385.6</ele>
        <time>2022-09-28T08:14:24Z</time>
      </trkpt>
      <trkpt lat="46.37634" lon="6.23484">
        <ele>385.5</ele>
        <time>2022-09-28T08:14:25Z</time>
      </trkpt>
      <trkpt lat="46.37639" lon="6.23488">
        <ele>385.5</ele>
        <time>2022-09-28T08:14:26Z</time>
      </trkpt>
      <trkpt lat="46.37644" lon="6.23492">
        <ele>385.4</ele>
        <time>2022-09-28T08:14:27Z</time>
      </trkpt>
      <trkpt lat="46.37649" lon="6.23496">
        <ele>385.3</ele>
        <time>2022-09-28T08:14:28Z</time>
      </trkpt>
      <trkpt lat="46.37654" lon="6.23499">
        <ele>385.2</ele>
        <time>2022-09-28T08:14:29Z</time>
      </trkpt>
      <trkpt lat="46.37659" lon="6.23505">
        <ele>385.2</ele>
        <time>2022-09-28T08:14:30Z</time>
      </trkpt>
      <trkpt lat="46.37664" lon="6.2351">
        <ele>385.1</ele>
        <time>2022-09-28T08:14:31Z</time>
      </trkpt>
      <trkpt lat="46.37669" lon="6.23515">
        <ele>385</ele>
        <time>2022-09-28T08:14:32Z</time>
      </trkpt>
      <trkpt lat="46.37674" lon="6.2352">
        <ele>384.9</ele>
        <time>2022-09-28T08:14:33Z</time>
      </trkpt>
      <trkpt lat="46.37678" lon="6.23526">
        <ele>384.8</ele>
        <time>2022-09-28T08:14:34Z</time>
      </trkpt>
      <trkpt lat="46.37683" lon="6.23532">
        <ele>384.7</ele>
        <time>2022-09-28T08:14:35Z</time>
      </trkpt>
      <trkpt lat="46.37688" lon="6.23538">
        <ele>384.6</ele>
        <time>2022-09-28T08:14:36Z</time>
      </trkpt>
      <trkpt lat="46.37692" lon="6.23543">
        <ele>384.6</ele>
        <time>2022-09-28T08:14:37Z</time>
      </trkpt>
      <trkpt lat="46.37696" lon="6.23549">
        <ele>384.5</ele>
        <time>2022-09-28T08:14:38Z</time>
      </trkpt>
      <trkpt lat="46.377" lon="6.23555">
        <ele>384.5</ele>
        <time>2022-09-28T08:14:39Z</time>
      </trkpt>
      <trkpt lat="46.37704" lon="6.2356">
        <ele>384.4</ele>
        <time>2022-09-28T08:14:40Z</time>
      </trkpt>
      <trkpt lat="46.37708" lon="6.23566">
        <ele>384.4</ele>
        <time>2022-09-28T08:14:41Z</time>
      </trkpt>
      <trkpt lat="46.37711" lon="6.23572">
        <ele>384.3</ele>
        <time>2022-09-28T08:14:42Z</time>
      </trkpt>
      <trkpt lat="46.37714" lon="6.2358">
        <ele>384.2</ele>
        <time>2022-09-28T08:14:43Z</time>
      </trkpt>
      <trkpt lat="46.37716" lon="6.23587">
        <ele>384.1</ele>
        <time>2022-09-28T08:14:44Z</time>
      </trkpt>
      <trkpt lat="46.37718" lon="6.23596">
        <ele>384</ele>
        <time>2022-09-28T08:14:45Z</time>
      </trkpt>
      <trkpt lat="46.37722" lon="6.23603">
        <ele>383.9</ele>
        <time>2022-09-28T08:14:46Z</time>
      </trkpt>
      <trkpt lat="46.37726" lon="6.23611">
        <ele>383.8</ele>
        <time>2022-09-28T08:14:47Z</time>
      </trkpt>
      <trkpt lat="46.37729" lon="6.23619">
        <ele>383.7</ele>
        <time>2022-09-28T08:14:48Z</time>
      </trkpt>
      <trkpt lat="46.37733" lon="6.23627">
        <ele>383.6</ele>
        <time>2022-09-28T08:14:49Z</time>
      </trkpt>
      <trkpt lat="46.37736" lon="6.23635">
        <ele>383.5</ele>
        <time>2022-09-28T08:14:50Z</time>
      </trkpt>
      <trkpt lat="46.3774" lon="6.23642">
        <ele>383.4</ele>
        <time>2022-09-28T08:14:51Z</time>
      </trkpt>
      <trkpt lat="46.37744" lon="6.23651">
        <ele>383.3</ele>
        <time>2022-09-28T08:14:52Z</time>
      </trkpt>
      <trkpt lat="46.37747" lon="6.23658">
        <ele>383.2</ele>
        <time>2022-09-28T08:14:53Z</time>
      </trkpt>
      <trkpt lat="46.37752" lon="6.23667">
        <ele>383.1</ele>
        <time>2022-09-28T08:14:54Z</time>
      </trkpt>
      <trkpt lat="46.37755" lon="6.23674">
        <ele>383</ele>
        <time>2022-09-28T08:14:55Z</time>
      </trkpt>
      <trkpt lat="46.37758" lon="6.23682">
        <ele>382.9</ele>
        <time>2022-09-28T08:14:56Z</time>
      </trkpt>
      <trkpt lat="46.37761" lon="6.23689">
        <ele>382.9</ele>
        <time>2022-09-28T08:14:57Z</time>
      </trkpt>
      <trkpt lat="46.37765" lon="6.23697">
        <ele>382.8</ele>
        <time>2022-09-28T08:14:58Z</time>
      </trkpt>
      <trkpt lat="46.37769" lon="6.23704">
        <ele>382.7</ele>
        <time>2022-09-28T08:14:59Z</time>
      </trkpt>
      <trkpt lat="46.37772" lon="6.23711">
        <ele>382.7</ele>
        <time>2022-09-28T08:15:00Z</time>
      </trkpt>
      <trkpt lat="46.37775" lon="6.23718">
        <ele>382.6</ele>
        <time>2022-09-28T08:15:01Z</time>
      </trkpt>
      <trkpt lat="46.37778" lon="6.23726">
        <ele>382.6</ele>
        <time>2022-09-28T08:15:02Z</time>
      </trkpt>
      <trkpt lat="46.37782" lon="6.23733">
        <ele>382.5</ele>
        <time>2022-09-28T08:15:03Z</time>
      </trkpt>
      <trkpt lat="46.37786" lon="6.2374">
        <ele>382.4</ele>
        <time>2022-09-28T08:15:04Z</time>
      </trkpt>
      <trkpt lat="46.37789" lon="6.23747">
        <ele>382.4</ele>
        <time>2022-09-28T08:15:05Z</time>
      </trkpt>
      <trkpt lat="46.37793" lon="6.23754">
        <ele>382.3</ele>
        <time>2022-09-28T08:15:06Z</time>
      </trkpt>
      <trkpt lat="46.37796" lon="6.23761">
        <ele>382.2</ele>
        <time>2022-09-28T08:15:07Z</time>
      </trkpt>
      <trkpt lat="46.37799" lon="6.23768">
        <ele>382</ele>
        <time>2022-09-28T08:15:08Z</time>
      </trkpt>
      <trkpt lat="46.37803" lon="6.23775">
        <ele>381.5</ele>
        <time>2022-09-28T08:15:09Z</time>
      </trkpt>
      <trkpt lat="46.37806" lon="6.23782">
        <ele>381</ele>
        <time>2022-09-28T08:15:10Z</time>
      </trkpt>
      <trkpt lat="46.37809" lon="6.23788">
        <ele>380.7</ele>
        <time>2022-09-28T08:15:11Z</time>
      </trkpt>
      <trkpt lat="46.37813" lon="6.23794">
        <ele>380.7</ele>
        <time>2022-09-28T08:15:12Z</time>
      </trkpt>
      <trkpt lat="46.37817" lon="6.23798">
        <ele>380.7</ele>
        <time>2022-09-28T08:15:13Z</time>
      </trkpt>
      <trkpt lat="46.37819" lon="6.23803">
        <ele>380.7</ele>
        <time>2022-09-28T08:15:14Z</time>
      </trkpt>
      <trkpt lat="46.37822" lon="6.23808">
        <ele>380.7</ele>
        <time>2022-09-28T08:15:15Z</time>
      </trkpt>
      <trkpt lat="46.37822" lon="6.23813">
        <ele>380.7</ele>
        <time>2022-09-28T08:15:16Z</time>
      </trkpt>
      <trkpt lat="46.37822" lon="6.2382">
        <ele>380.6</ele>
        <time>2022-09-28T08:15:17Z</time>
      </trkpt>
      <trkpt lat="46.37823" lon="6.23827">
        <ele>380.6</ele>
        <time>2022-09-28T08:15:18Z</time>
      </trkpt>
      <trkpt lat="46.37824" lon="6.23833">
        <ele>380.6</ele>
        <time>2022-09-28T08:15:19Z</time>
      </trkpt>
      <trkpt lat="46.37825" lon="6.2384">
        <ele>380.6</ele>
        <time>2022-09-28T08:15:20Z</time>
      </trkpt>
      <trkpt lat="46.37826" lon="6.23845">
        <ele>380.5</ele>
        <time>2022-09-28T08:15:21Z</time>
      </trkpt>
      <trkpt lat="46.3783" lon="6.23845">
        <ele>380.5</ele>
        <time>2022-09-28T08:15:22Z</time>
      </trkpt>
      <trkpt lat="46.37832" lon="6.23845">
        <ele>380.5</ele>
        <time>2022-09-28T08:15:23Z</time>
      </trkpt>
      <trkpt lat="46.37837" lon="6.23847">
        <ele>380.4</ele>
        <time>2022-09-28T08:15:24Z</time>
      </trkpt>
      <trkpt lat="46.37839" lon="6.23852">
        <ele>380.3</ele>
        <time>2022-09-28T08:15:25Z</time>
      </trkpt>
      <trkpt lat="46.37841" lon="6.23854">
        <ele>380.2</ele>
        <time>2022-09-28T08:15:26Z</time>
      </trkpt>
      <trkpt lat="46.37843" lon="6.23858">
        <ele>380</ele>
        <time>2022-09-28T08:15:27Z</time>
      </trkpt>
      <trkpt lat="46.37844" lon="6.23859">
        <ele>380</ele>
        <time>2022-09-28T08:15:28Z</time>
      </trkpt>
      <trkpt lat="46.37847" lon="6.23862">
        <ele>379.8</ele>
        <time>2022-09-28T08:15:29Z</time>
      </trkpt>
      <trkpt lat="46.3785" lon="6.23865">
        <ele>379.6</ele>
        <time>2022-09-28T08:15:30Z</time>
      </trkpt>
      <trkpt lat="46.37854" lon="6.23869">
        <ele>379.3</ele>
        <time>2022-09-28T08:15:31Z</time>
      </trkpt>
      <trkpt lat="46.37857" lon="6.23872">
        <ele>379.1</ele>
        <time>2022-09-28T08:15:32Z</time>
      </trkpt>
      <trkpt lat="46.37859" lon="6.23875">
        <ele>379</ele>
        <time>2022-09-28T08:15:33Z</time>
      </trkpt>
      <trkpt lat="46.3786" lon="6.23878">
        <ele>378.8</ele>
        <time>2022-09-28T08:15:34Z</time>
      </trkpt>
      <trkpt lat="46.37862" lon="6.2388">
        <ele>378.7</ele>
        <time>2022-09-28T08:15:35Z</time>
      </trkpt>
      <trkpt lat="46.37863" lon="6.23881">
        <ele>378.7</ele>
        <time>2022-09-28T08:15:36Z</time>
      </trkpt>
      <trkpt lat="46.37863" lon="6.23882">
        <ele>378.7</ele>
        <time>2022-09-28T08:15:37Z</time>
      </trkpt>
      <trkpt lat="46.37865" lon="6.23885">
        <ele>378.5</ele>
        <time>2022-09-28T08:15:38Z</time>
      </trkpt>
      <trkpt lat="46.37866" lon="6.23887">
        <ele>378.5</ele>
        <time>2022-09-28T08:15:39Z</time>
      </trkpt>
      <trkpt lat="46.37868" lon="6.23891">
        <ele>378.3</ele>
        <time>2022-09-28T08:15:40Z</time>
      </trkpt>
      <trkpt lat="46.3787" lon="6.23895">
        <ele>378.2</ele>
        <time>2022-09-28T08:15:41Z</time>
      </trkpt>
      <trkpt lat="46.37875" lon="6.23897">
        <ele>378</ele>
        <time>2022-09-28T08:15:42Z</time>
      </trkpt>
      <trkpt lat="46.37878" lon="6.239">
        <ele>377.9</ele>
        <time>2022-09-28T08:15:43Z</time>
      </trkpt>
      <trkpt lat="46.37881" lon="6.23905">
        <ele>377.8</ele>
        <time>2022-09-28T08:15:44Z</time>
      </trkpt>
      <trkpt lat="46.37883" lon="6.23908">
        <ele>377.7</ele>
        <time>2022-09-28T08:15:45Z</time>
      </trkpt>
      <trkpt lat="46.37886" lon="6.23912">
        <ele>377.6</ele>
        <time>2022-09-28T08:15:46Z</time>
      </trkpt>
      <trkpt lat="46.3789" lon="6.23917">
        <ele>377.6</ele>
        <time>2022-09-28T08:15:47Z</time>
      </trkpt>
      <trkpt lat="46.37893" lon="6.23921">
        <ele>377.5</ele>
        <time>2022-09-28T08:15:48Z</time>
      </trkpt>
      <trkpt lat="46.37896" lon="6.23925">
        <ele>377.4</ele>
        <time>2022-09-28T08:15:49Z</time>
      </trkpt>
      <trkpt lat="46.37899" lon="6.2393">
        <ele>377.4</ele>
        <time>2022-09-28T08:15:50Z</time>
      </trkpt>
      <trkpt lat="46.37902" lon="6.23934">
        <ele>377.3</ele>
        <time>2022-09-28T08:15:51Z</time>
      </trkpt>
      <trkpt lat="46.37905" lon="6.23938">
        <ele>377.3</ele>
        <time>2022-09-28T08:15:52Z</time>
      </trkpt>
      <trkpt lat="46.37908" lon="6.23942">
        <ele>377.2</ele>
        <time>2022-09-28T08:15:53Z</time>
      </trkpt>
      <trkpt lat="46.37911" lon="6.23946">
        <ele>377.2</ele>
        <time>2022-09-28T08:15:54Z</time>
      </trkpt>
      <trkpt lat="46.37913" lon="6.2395">
        <ele>377.1</ele>
        <time>2022-09-28T08:15:55Z</time>
      </trkpt>
      <trkpt lat="46.37916" lon="6.23954">
        <ele>377.1</ele>
        <time>2022-09-28T08:15:56Z</time>
      </trkpt>
      <trkpt lat="46.37919" lon="6.23957">
        <ele>377.1</ele>
        <time>2022-09-28T08:15:57Z</time>
      </trkpt>
      <trkpt lat="46.3792" lon="6.23959">
        <ele>377.1</ele>
        <time>2022-09-28T08:15:58Z</time>
      </trkpt>
      <trkpt lat="46.3792" lon="6.2396">
        <ele>377.1</ele>
        <time>2022-09-28T08:15:59Z</time>
      </trkpt>
      <trkpt lat="46.3792" lon="6.2396">
        <ele>377.1</ele>
        <time>2022-09-28T08:16:00Z</time>
      </trkpt>
      <trkpt lat="46.37921" lon="6.2396">
        <ele>377.1</ele>
        <time>2022-09-28T08:16:01Z</time>
      </trkpt>
      <trkpt lat="46.37921" lon="6.23961">
        <ele>377.1</ele>
        <time>2022-09-28T08:16:02Z</time>
      </trkpt>
      <trkpt lat="46.37921" lon="6.23961">
        <ele>377.1</ele>
        <time>2022-09-28T08:16:03Z</time>
      </trkpt>
      <trkpt lat="46.37921" lon="6.23961">
        <ele>377.1</ele>
        <time>2022-09-28T08:16:04Z</time>
      </trkpt>
      <trkpt lat="46.37921" lon="6.23962">
        <ele>377.1</ele>
        <time>2022-09-28T08:16:05Z</time>
      </trkpt>
      <trkpt lat="46.37922" lon="6.23962">
        <ele>377.1</ele>
        <time>2022-09-28T08:16:06Z</time>
      </trkpt>
      <trkpt lat="46.37922" lon="6.23962">
        <ele>377.1</ele>
        <time>2022-09-28T08:16:07Z</time>
      </trkpt>
      <trkpt lat="46.37922" lon="6.23963">
        <ele>377.1</ele>
        <time>2022-09-28T08:16:08Z</time>
      </trkpt>
      <trkpt lat="46.37922" lon="6.23963">
        <ele>377.1</ele>
        <time>2022-09-28T08:16:09Z</time>
      </trkpt>
      <trkpt lat="46.37922" lon="6.23963">
        <ele>377.1</ele>
        <time>2022-09-28T08:16:33Z</time>
      </trkpt>
      <trkpt lat="46.37923" lon="6.23964">
        <ele>377.1</ele>
        <time>2022-09-28T08:16:34Z</time>
      </trkpt>
      <trkpt lat="46.37923" lon="6.23964">
        <ele>377.1</ele>
        <time>2022-09-28T08:16:35Z</time>
      </trkpt>
      <trkpt lat="46.37923" lon="6.23964">
        <ele>377.1</ele>
        <time>2022-09-28T08:16:36Z</time>
      </trkpt>
      <trkpt lat="46.37923" lon="6.23965">
        <ele>377.1</ele>
        <time>2022-09-28T08:16:37Z</time>
      </trkpt>
      <trkpt lat="46.37923" lon="6.23965">
        <ele>377.2</ele>
        <time>2022-09-28T08:16:38Z</time>
      </trkpt>
      <trkpt lat="46.37923" lon="6.23965">
        <ele>377.2</ele>
        <time>2022-09-28T08:16:39Z</time>
      </trkpt>
      <trkpt lat="46.37924" lon="6.23966">
        <ele>377.2</ele>
        <time>2022-09-28T08:16:40Z</time>
      </trkpt>
      <trkpt lat="46.37924" lon="6.23966">
        <ele>377.2</ele>
        <time>2022-09-28T08:16:41Z</time>
      </trkpt>
      <trkpt lat="46.37924" lon="6.23966">
        <ele>377.2</ele>
        <time>2022-09-28T08:16:42Z</time>
      </trkpt>
      <trkpt lat="46.37924" lon="6.23967">
        <ele>377.2</ele>
        <time>2022-09-28T08:17:12Z</time>
      </trkpt>
      <trkpt lat="46.37924" lon="6.23967">
        <ele>377.2</ele>
        <time>2022-09-28T08:17:13Z</time>
      </trkpt>
      <trkpt lat="46.37927" lon="6.2397">
        <ele>377.2</ele>
        <time>2022-09-28T08:17:14Z</time>
      </trkpt>
      <trkpt lat="46.37927" lon="6.23971">
        <ele>377.2</ele>
        <time>2022-09-28T08:17:15Z</time>
      </trkpt>
      <trkpt lat="46.3793" lon="6.23974">
        <ele>377.2</ele>
        <time>2022-09-28T08:17:16Z</time>
      </trkpt>
      <trkpt lat="46.37931" lon="6.23976">
        <ele>377.2</ele>
        <time>2022-09-28T08:17:17Z</time>
      </trkpt>
      <trkpt lat="46.37933" lon="6.2398">
        <ele>377.3</ele>
        <time>2022-09-28T08:17:18Z</time>
      </trkpt>
      <trkpt lat="46.37934" lon="6.23981">
        <ele>377.3</ele>
        <time>2022-09-28T08:17:19Z</time>
      </trkpt>
      <trkpt lat="46.37937" lon="6.23985">
        <ele>377.3</ele>
        <time>2022-09-28T08:17:20Z</time>
      </trkpt>
      <trkpt lat="46.37937" lon="6.23986">
        <ele>377.3</ele>
        <time>2022-09-28T08:17:21Z</time>
      </trkpt>
      <trkpt lat="46.3794" lon="6.23989">
        <ele>377.4</ele>
        <time>2022-09-28T08:17:22Z</time>
      </trkpt>
      <trkpt lat="46.3794" lon="6.2399">
        <ele>377.4</ele>
        <time>2022-09-28T08:17:23Z</time>
      </trkpt>
      <trkpt lat="46.37943" lon="6.23994">
        <ele>377.3</ele>
        <time>2022-09-28T08:17:24Z</time>
      </trkpt>
      <trkpt lat="46.37943" lon="6.23996">
        <ele>377.3</ele>
        <time>2022-09-28T08:17:25Z</time>
      </trkpt>
      <trkpt lat="46.37946" lon="6.23999">
        <ele>377.2</ele>
        <time>2022-09-28T08:17:26Z</time>
      </trkpt>
      <trkpt lat="46.37947" lon="6.24003">
        <ele>377.2</ele>
        <time>2022-09-28T08:17:27Z</time>
      </trkpt>
      <trkpt lat="46.37949" lon="6.24007">
        <ele>377.1</ele>
        <time>2022-09-28T08:17:28Z</time>
      </trkpt>
      <trkpt lat="46.37952" lon="6.2401">
        <ele>377.1</ele>
        <time>2022-09-28T08:17:29Z</time>
      </trkpt>
      <trkpt lat="46.37955" lon="6.24013">
        <ele>377</ele>
        <time>2022-09-28T08:17:30Z</time>
      </trkpt>
      <trkpt lat="46.37958" lon="6.24017">
        <ele>377</ele>
        <time>2022-09-28T08:17:31Z</time>
      </trkpt>
      <trkpt lat="46.3796" lon="6.24021">
        <ele>376.9</ele>
        <time>2022-09-28T08:17:32Z</time>
      </trkpt>
      <trkpt lat="46.37963" lon="6.24024">
        <ele>376.9</ele>
        <time>2022-09-28T08:17:33Z</time>
      </trkpt>
      <trkpt lat="46.37966" lon="6.24028">
        <ele>376.9</ele>
        <time>2022-09-28T08:17:34Z</time>
      </trkpt>
      <trkpt lat="46.37969" lon="6.24032">
        <ele>376.9</ele>
        <time>2022-09-28T08:17:35Z</time>
      </trkpt>
      <trkpt lat="46.37972" lon="6.24036">
        <ele>376.9</ele>
        <time>2022-09-28T08:17:36Z</time>
      </trkpt>
      <trkpt lat="46.37975" lon="6.2404">
        <ele>376.9</ele>
        <time>2022-09-28T08:17:37Z</time>
      </trkpt>
      <trkpt lat="46.37978" lon="6.24043">
        <ele>376.9</ele>
        <time>2022-09-28T08:17:38Z</time>
      </trkpt>
      <trkpt lat="46.37981" lon="6.24047">
        <ele>376.9</ele>
        <time>2022-09-28T08:17:39Z</time>
      </trkpt>
      <trkpt lat="46.37984" lon="6.24052">
        <ele>376.9</ele>
        <time>2022-09-28T08:17:40Z</time>
      </trkpt>
      <trkpt lat="46.37986" lon="6.24056">
        <ele>376.9</ele>
        <time>2022-09-28T08:17:41Z</time>
      </trkpt>
      <trkpt lat="46.37989" lon="6.2406">
        <ele>376.9</ele>
        <time>2022-09-28T08:17:42Z</time>
      </trkpt>
      <trkpt lat="46.37992" lon="6.24064">
        <ele>376.9</ele>
        <time>2022-09-28T08:17:43Z</time>
      </trkpt>
      <trkpt lat="46.37995" lon="6.24068">
        <ele>376.8</ele>
        <time>2022-09-28T08:17:44Z</time>
      </trkpt>
      <trkpt lat="46.37998" lon="6.24072">
        <ele>376.8</ele>
        <time>2022-09-28T08:17:45Z</time>
      </trkpt>
      <trkpt lat="46.38001" lon="6.24077">
        <ele>376.7</ele>
        <time>2022-09-28T08:17:46Z</time>
      </trkpt>
      <trkpt lat="46.38003" lon="6.24081">
        <ele>376.7</ele>
        <time>2022-09-28T08:17:47Z</time>
      </trkpt>
      <trkpt lat="46.38005" lon="6.24086">
        <ele>376.6</ele>
        <time>2022-09-28T08:17:48Z</time>
      </trkpt>
      <trkpt lat="46.38007" lon="6.24091">
        <ele>376.6</ele>
        <time>2022-09-28T08:17:49Z</time>
      </trkpt>
      <trkpt lat="46.38009" lon="6.24097">
        <ele>376.5</ele>
        <time>2022-09-28T08:17:50Z</time>
      </trkpt>
      <trkpt lat="46.38011" lon="6.24101">
        <ele>376.5</ele>
        <time>2022-09-28T08:17:51Z</time>
      </trkpt>
      <trkpt lat="46.38013" lon="6.24107">
        <ele>376.4</ele>
        <time>2022-09-28T08:17:52Z</time>
      </trkpt>
      <trkpt lat="46.38015" lon="6.24113">
        <ele>376.4</ele>
        <time>2022-09-28T08:17:53Z</time>
      </trkpt>
      <trkpt lat="46.38017" lon="6.24119">
        <ele>376.3</ele>
        <time>2022-09-28T08:17:54Z</time>
      </trkpt>
      <trkpt lat="46.38018" lon="6.24125">
        <ele>376.3</ele>
        <time>2022-09-28T08:17:55Z</time>
      </trkpt>
      <trkpt lat="46.38021" lon="6.2413">
        <ele>376.3</ele>
        <time>2022-09-28T08:17:56Z</time>
      </trkpt>
      <trkpt lat="46.38023" lon="6.24135">
        <ele>376.2</ele>
        <time>2022-09-28T08:17:57Z</time>
      </trkpt>
      <trkpt lat="46.38024" lon="6.2414">
        <ele>376.2</ele>
        <time>2022-09-28T08:17:58Z</time>
      </trkpt>
      <trkpt lat="46.38027" lon="6.24144">
        <ele>376.2</ele>
        <time>2022-09-28T08:17:59Z</time>
      </trkpt>
      <trkpt lat="46.38028" lon="6.24148">
        <ele>376.2</ele>
        <time>2022-09-28T08:18:00Z</time>
      </trkpt>
      <trkpt lat="46.3803" lon="6.24152">
        <ele>376.3</ele>
        <time>2022-09-28T08:18:01Z</time>
      </trkpt>
      <trkpt lat="46.38032" lon="6.24155">
        <ele>376.3</ele>
        <time>2022-09-28T08:18:02Z</time>
      </trkpt>
      <trkpt lat="46.38034" lon="6.24158">
        <ele>376.4</ele>
        <time>2022-09-28T08:18:03Z</time>
      </trkpt>
      <trkpt lat="46.38036" lon="6.24161">
        <ele>376.4</ele>
        <time>2022-09-28T08:18:04Z</time>
      </trkpt>
      <trkpt lat="46.38038" lon="6.24166">
        <ele>376.3</ele>
        <time>2022-09-28T08:18:05Z</time>
      </trkpt>
      <trkpt lat="46.38039" lon="6.24168">
        <ele>376.3</ele>
        <time>2022-09-28T08:18:06Z</time>
      </trkpt>
      <trkpt lat="46.38041" lon="6.24173">
        <ele>376.3</ele>
        <time>2022-09-28T08:18:07Z</time>
      </trkpt>
      <trkpt lat="46.38043" lon="6.24178">
        <ele>376.2</ele>
        <time>2022-09-28T08:18:08Z</time>
      </trkpt>
      <trkpt lat="46.38044" lon="6.24179">
        <ele>376.2</ele>
        <time>2022-09-28T08:18:09Z</time>
      </trkpt>
      <trkpt lat="46.38048" lon="6.24182">
        <ele>376.2</ele>
        <time>2022-09-28T08:18:10Z</time>
      </trkpt>
      <trkpt lat="46.38051" lon="6.24185">
        <ele>376.2</ele>
        <time>2022-09-28T08:18:11Z</time>
      </trkpt>
      <trkpt lat="46.38054" lon="6.24186">
        <ele>376.2</ele>
        <time>2022-09-28T08:18:12Z</time>
      </trkpt>
      <trkpt lat="46.38057" lon="6.24189">
        <ele>376.2</ele>
        <time>2022-09-28T08:18:13Z</time>
      </trkpt>
      <trkpt lat="46.3806" lon="6.24192">
        <ele>376.2</ele>
        <time>2022-09-28T08:18:14Z</time>
      </trkpt>
      <trkpt lat="46.38063" lon="6.24195">
        <ele>376.2</ele>
        <time>2022-09-28T08:18:15Z</time>
      </trkpt>
      <trkpt lat="46.38066" lon="6.24197">
        <ele>376.2</ele>
        <time>2022-09-28T08:18:16Z</time>
      </trkpt>
      <trkpt lat="46.38069" lon="6.242">
        <ele>376.2</ele>
        <time>2022-09-28T08:18:17Z</time>
      </trkpt>
      <trkpt lat="46.38072" lon="6.24203">
        <ele>376.2</ele>
        <time>2022-09-28T08:18:18Z</time>
      </trkpt>
      <trkpt lat="46.38075" lon="6.24206">
        <ele>376.2</ele>
        <time>2022-09-28T08:18:19Z</time>
      </trkpt>
      <trkpt lat="46.38077" lon="6.24208">
        <ele>376.2</ele>
        <time>2022-09-28T08:18:20Z</time>
      </trkpt>
      <trkpt lat="46.3808" lon="6.2421">
        <ele>376.2</ele>
        <time>2022-09-28T08:18:21Z</time>
      </trkpt>
      <trkpt lat="46.38082" lon="6.24213">
        <ele>376.2</ele>
        <time>2022-09-28T08:18:22Z</time>
      </trkpt>
      <trkpt lat="46.38085" lon="6.24216">
        <ele>376.2</ele>
        <time>2022-09-28T08:18:23Z</time>
      </trkpt>
      <trkpt lat="46.38085" lon="6.24217">
        <ele>376.2</ele>
        <time>2022-09-28T08:18:24Z</time>
      </trkpt>
      <trkpt lat="46.38086" lon="6.24218">
        <ele>376.2</ele>
        <time>2022-09-28T08:18:25Z</time>
      </trkpt>
      <trkpt lat="46.38087" lon="6.24219">
        <ele>376.2</ele>
        <time>2022-09-28T08:18:26Z</time>
      </trkpt>
      <trkpt lat="46.38087" lon="6.2422">
        <ele>376.2</ele>
        <time>2022-09-28T08:18:27Z</time>
      </trkpt>
      <trkpt lat="46.38088" lon="6.24221">
        <ele>376.2</ele>
        <time>2022-09-28T08:18:28Z</time>
      </trkpt>
      <trkpt lat="46.38089" lon="6.24222">
        <ele>376.2</ele>
        <time>2022-09-28T08:18:29Z</time>
      </trkpt>
      <trkpt lat="46.3809" lon="6.24223">
        <ele>376.2</ele>
        <time>2022-09-28T08:18:30Z</time>
      </trkpt>
      <trkpt lat="46.38091" lon="6.24224">
        <ele>376.2</ele>
        <time>2022-09-28T08:18:31Z</time>
      </trkpt>
      <trkpt lat="46.38092" lon="6.24225">
        <ele>376.2</ele>
        <time>2022-09-28T08:18:32Z</time>
      </trkpt>
      <trkpt lat="46.38093" lon="6.24226">
        <ele>376.2</ele>
        <time>2022-09-28T08:18:33Z</time>
      </trkpt>
      <trkpt lat="46.38093" lon="6.24227">
        <ele>376.2</ele>
        <time>2022-09-28T08:18:34Z</time>
      </trkpt>
      <trkpt lat="46.38094" lon="6.24228">
        <ele>376.2</ele>
        <time>2022-09-28T08:18:56Z</time>
      </trkpt>
      <trkpt lat="46.38095" lon="6.24229">
        <ele>376.2</ele>
        <time>2022-09-28T08:18:57Z</time>
      </trkpt>
      <trkpt lat="46.38099" lon="6.2423">
        <ele>376.2</ele>
        <time>2022-09-28T08:18:58Z</time>
      </trkpt>
      <trkpt lat="46.381" lon="6.2423">
        <ele>376.2</ele>
        <time>2022-09-28T08:18:59Z</time>
      </trkpt>
      <trkpt lat="46.38104" lon="6.24234">
        <ele>376.2</ele>
        <time>2022-09-28T08:19:00Z</time>
      </trkpt>
      <trkpt lat="46.38105" lon="6.24235">
        <ele>376.2</ele>
        <time>2022-09-28T08:19:01Z</time>
      </trkpt>
      <trkpt lat="46.38108" lon="6.24238">
        <ele>376.2</ele>
        <time>2022-09-28T08:19:02Z</time>
      </trkpt>
      <trkpt lat="46.3811" lon="6.2424">
        <ele>376.2</ele>
        <time>2022-09-28T08:19:03Z</time>
      </trkpt>
      <trkpt lat="46.38112" lon="6.24243">
        <ele>376.2</ele>
        <time>2022-09-28T08:19:04Z</time>
      </trkpt>
      <trkpt lat="46.38115" lon="6.24245">
        <ele>376.2</ele>
        <time>2022-09-28T08:19:05Z</time>
      </trkpt>
      <trkpt lat="46.38118" lon="6.24247">
        <ele>376.2</ele>
        <time>2022-09-28T08:19:06Z</time>
      </trkpt>
      <trkpt lat="46.38121" lon="6.2425">
        <ele>376.2</ele>
        <time>2022-09-28T08:19:07Z</time>
      </trkpt>
      <trkpt lat="46.38124" lon="6.24254">
        <ele>376.2</ele>
        <time>2022-09-28T08:19:08Z</time>
      </trkpt>
      <trkpt lat="46.38127" lon="6.24256">
        <ele>376.2</ele>
        <time>2022-09-28T08:19:09Z</time>
      </trkpt>
      <trkpt lat="46.38131" lon="6.24259">
        <ele>376.2</ele>
        <time>2022-09-28T08:19:10Z</time>
      </trkpt>
      <trkpt lat="46.38134" lon="6.24263">
        <ele>376.2</ele>
        <time>2022-09-28T08:19:11Z</time>
      </trkpt>
      <trkpt lat="46.38138" lon="6.24267">
        <ele>376.2</ele>
        <time>2022-09-28T08:19:12Z</time>
      </trkpt>
      <trkpt lat="46.38142" lon="6.2427">
        <ele>376.2</ele>
        <time>2022-09-28T08:19:13Z</time>
      </trkpt>
      <trkpt lat="46.38145" lon="6.24274">
        <ele>376.2</ele>
        <time>2022-09-28T08:19:14Z</time>
      </trkpt>
      <trkpt lat="46.38149" lon="6.24277">
        <ele>376.2</ele>
        <time>2022-09-28T08:19:15Z</time>
      </trkpt>
      <trkpt lat="46.38153" lon="6.24281">
        <ele>376.2</ele>
        <time>2022-09-28T08:19:16Z</time>
      </trkpt>
      <trkpt lat="46.38157" lon="6.24285">
        <ele>376.3</ele>
        <time>2022-09-28T08:19:17Z</time>
      </trkpt>
      <trkpt lat="46.38161" lon="6.24289">
        <ele>376.3</ele>
        <time>2022-09-28T08:19:18Z</time>
      </trkpt>
      <trkpt lat="46.38165" lon="6.24292">
        <ele>376.3</ele>
        <time>2022-09-28T08:19:19Z</time>
      </trkpt>
      <trkpt lat="46.38168" lon="6.24296">
        <ele>376.3</ele>
        <time>2022-09-28T08:19:20Z</time>
      </trkpt>
      <trkpt lat="46.38172" lon="6.24299">
        <ele>376.3</ele>
        <time>2022-09-28T08:19:21Z</time>
      </trkpt>
      <trkpt lat="46.38176" lon="6.24303">
        <ele>376.3</ele>
        <time>2022-09-28T08:19:22Z</time>
      </trkpt>
      <trkpt lat="46.38179" lon="6.24306">
        <ele>376.3</ele>
        <time>2022-09-28T08:19:23Z</time>
      </trkpt>
      <trkpt lat="46.38183" lon="6.2431">
        <ele>376.3</ele>
        <time>2022-09-28T08:19:24Z</time>
      </trkpt>
      <trkpt lat="46.38186" lon="6.24313">
        <ele>376.3</ele>
        <time>2022-09-28T08:19:25Z</time>
      </trkpt>
      <trkpt lat="46.3819" lon="6.24316">
        <ele>376.4</ele>
        <time>2022-09-28T08:19:26Z</time>
      </trkpt>
      <trkpt lat="46.38193" lon="6.24319">
        <ele>376.4</ele>
        <time>2022-09-28T08:19:27Z</time>
      </trkpt>
      <trkpt lat="46.38196" lon="6.24322">
        <ele>376.4</ele>
        <time>2022-09-28T08:19:28Z</time>
      </trkpt>
      <trkpt lat="46.382" lon="6.24326">
        <ele>376.4</ele>
        <time>2022-09-28T08:19:29Z</time>
      </trkpt>
      <trkpt lat="46.38203" lon="6.24329">
        <ele>376.4</ele>
        <time>2022-09-28T08:19:30Z</time>
      </trkpt>
      <trkpt lat="46.38206" lon="6.24331">
        <ele>376.4</ele>
        <time>2022-09-28T08:19:31Z</time>
      </trkpt>
      <trkpt lat="46.38209" lon="6.24334">
        <ele>376.4</ele>
        <time>2022-09-28T08:19:32Z</time>
      </trkpt>
      <trkpt lat="46.38211" lon="6.24335">
        <ele>376.4</ele>
        <time>2022-09-28T08:19:33Z</time>
      </trkpt>
      <trkpt lat="46.38214" lon="6.24335">
        <ele>376.4</ele>
        <time>2022-09-28T08:19:34Z</time>
      </trkpt>
      <trkpt lat="46.38215" lon="6.24335">
        <ele>376.4</ele>
        <time>2022-09-28T08:19:35Z</time>
      </trkpt>
      <trkpt lat="46.38215" lon="6.24334">
        <ele>376.4</ele>
        <time>2022-09-28T08:19:36Z</time>
      </trkpt>
      <trkpt lat="46.38216" lon="6.24335">
        <ele>376.4</ele>
        <time>2022-09-28T08:19:37Z</time>
      </trkpt>
      <trkpt lat="46.38216" lon="6.24334">
        <ele>376.4</ele>
        <time>2022-09-28T08:19:38Z</time>
      </trkpt>
      <trkpt lat="46.38217" lon="6.24335">
        <ele>376.4</ele>
        <time>2022-09-28T08:19:39Z</time>
      </trkpt>
      <trkpt lat="46.38217" lon="6.24334">
        <ele>376.4</ele>
        <time>2022-09-28T08:19:40Z</time>
      </trkpt>
      <trkpt lat="46.38217" lon="6.24334">
        <ele>376.5</ele>
        <time>2022-09-28T08:19:41Z</time>
      </trkpt>
      <trkpt lat="46.38218" lon="6.24335">
        <ele>376.5</ele>
        <time>2022-09-28T08:19:42Z</time>
      </trkpt>
      <trkpt lat="46.38219" lon="6.24335">
        <ele>376.5</ele>
        <time>2022-09-28T08:19:43Z</time>
      </trkpt>
      <trkpt lat="46.3822" lon="6.24335">
        <ele>376.5</ele>
        <time>2022-09-28T08:19:44Z</time>
      </trkpt>
      <trkpt lat="46.38221" lon="6.24336">
        <ele>376.5</ele>
        <time>2022-09-28T08:19:45Z</time>
      </trkpt>
      <trkpt lat="46.38228" lon="6.24339">
        <ele>376.5</ele>
        <time>2022-09-28T08:19:49Z</time>
      </trkpt>
      <trkpt lat="46.38231" lon="6.2434">
        <ele>376.5</ele>
        <time>2022-09-28T08:19:50Z</time>
      </trkpt>
      <trkpt lat="46.38234" lon="6.24341">
        <ele>377</ele>
        <time>2022-09-28T08:19:51Z</time>
      </trkpt>
      <trkpt lat="46.38237" lon="6.24342">
        <ele>377</ele>
        <time>2022-09-28T08:19:52Z</time>
      </trkpt>
      <trkpt lat="46.3824" lon="6.24343">
        <ele>377.4</ele>
        <time>2022-09-28T08:19:53Z</time>
      </trkpt>
      <trkpt lat="46.38244" lon="6.24344">
        <ele>377.5</ele>
        <time>2022-09-28T08:19:54Z</time>
      </trkpt>
      <trkpt lat="46.38248" lon="6.24345">
        <ele>377.5</ele>
        <time>2022-09-28T08:19:55Z</time>
      </trkpt>
      <trkpt lat="46.38252" lon="6.24346">
        <ele>377.6</ele>
        <time>2022-09-28T08:19:56Z</time>
      </trkpt>
      <trkpt lat="46.38256" lon="6.24347">
        <ele>377.6</ele>
        <time>2022-09-28T08:19:57Z</time>
      </trkpt>
      <trkpt lat="46.38261" lon="6.24349">
        <ele>377.7</ele>
        <time>2022-09-28T08:19:58Z</time>
      </trkpt>
      <trkpt lat="46.38266" lon="6.2435">
        <ele>377.7</ele>
        <time>2022-09-28T08:19:59Z</time>
      </trkpt>
      <trkpt lat="46.3827" lon="6.24352">
        <ele>377.7</ele>
        <time>2022-09-28T08:20:00Z</time>
      </trkpt>
      <trkpt lat="46.38273" lon="6.24354">
        <ele>377.8</ele>
        <time>2022-09-28T08:20:01Z</time>
      </trkpt>
      <trkpt lat="46.38277" lon="6.24357">
        <ele>377.8</ele>
        <time>2022-09-28T08:20:02Z</time>
      </trkpt>
      <trkpt lat="46.38281" lon="6.24359">
        <ele>377.8</ele>
        <time>2022-09-28T08:20:03Z</time>
      </trkpt>
      <trkpt lat="46.38286" lon="6.24362">
        <ele>377.9</ele>
        <time>2022-09-28T08:20:04Z</time>
      </trkpt>
      <trkpt lat="46.38289" lon="6.24366">
        <ele>377.9</ele>
        <time>2022-09-28T08:20:05Z</time>
      </trkpt>
      <trkpt lat="46.38293" lon="6.24368">
        <ele>378</ele>
        <time>2022-09-28T08:20:06Z</time>
      </trkpt>
      <trkpt lat="46.38297" lon="6.2437">
        <ele>378</ele>
        <time>2022-09-28T08:20:07Z</time>
      </trkpt>
      <trkpt lat="46.38301" lon="6.24372">
        <ele>378.1</ele>
        <time>2022-09-28T08:20:08Z</time>
      </trkpt>
      <trkpt lat="46.38304" lon="6.24374">
        <ele>378.1</ele>
        <time>2022-09-28T08:20:09Z</time>
      </trkpt>
      <trkpt lat="46.38307" lon="6.24376">
        <ele>378.1</ele>
        <time>2022-09-28T08:20:10Z</time>
      </trkpt>
      <trkpt lat="46.38309" lon="6.24378">
        <ele>378.1</ele>
        <time>2022-09-28T08:20:11Z</time>
      </trkpt>
      <trkpt lat="46.3831" lon="6.24378">
        <ele>378.1</ele>
        <time>2022-09-28T08:20:12Z</time>
      </trkpt>
      <trkpt lat="46.3831" lon="6.24379">
        <ele>378.1</ele>
        <time>2022-09-28T08:20:13Z</time>
      </trkpt>
      <trkpt lat="46.38311" lon="6.24379">
        <ele>378.2</ele>
        <time>2022-09-28T08:20:14Z</time>
      </trkpt>
      <trkpt lat="46.38311" lon="6.2438">
        <ele>378.2</ele>
        <time>2022-09-28T08:20:15Z</time>
      </trkpt>
      <trkpt lat="46.38312" lon="6.2438">
        <ele>378.2</ele>
        <time>2022-09-28T08:20:16Z</time>
      </trkpt>
      <trkpt lat="46.38315" lon="6.24382">
        <ele>378.2</ele>
        <time>2022-09-28T08:20:17Z</time>
      </trkpt>
      <trkpt lat="46.38316" lon="6.24382">
        <ele>378.2</ele>
        <time>2022-09-28T08:20:18Z</time>
      </trkpt>
      <trkpt lat="46.38319" lon="6.24384">
        <ele>378.2</ele>
        <time>2022-09-28T08:20:19Z</time>
      </trkpt>
      <trkpt lat="46.38322" lon="6.24387">
        <ele>378.3</ele>
        <time>2022-09-28T08:20:20Z</time>
      </trkpt>
      <trkpt lat="46.38325" lon="6.24391">
        <ele>378.3</ele>
        <time>2022-09-28T08:20:21Z</time>
      </trkpt>
      <trkpt lat="46.38327" lon="6.24395">
        <ele>378.4</ele>
        <time>2022-09-28T08:20:22Z</time>
      </trkpt>
      <trkpt lat="46.3833" lon="6.24398">
        <ele>378.4</ele>
        <time>2022-09-28T08:20:23Z</time>
      </trkpt>
      <trkpt lat="46.38333" lon="6.24401">
        <ele>378.5</ele>
        <time>2022-09-28T08:20:24Z</time>
      </trkpt>
      <trkpt lat="46.38336" lon="6.24404">
        <ele>378.5</ele>
        <time>2022-09-28T08:20:25Z</time>
      </trkpt>
      <trkpt lat="46.3834" lon="6.24407">
        <ele>378.6</ele>
        <time>2022-09-28T08:20:26Z</time>
      </trkpt>
      <trkpt lat="46.38344" lon="6.24411">
        <ele>378.6</ele>
        <time>2022-09-28T08:20:27Z</time>
      </trkpt>
      <trkpt lat="46.38348" lon="6.24414">
        <ele>378.6</ele>
        <time>2022-09-28T08:20:28Z</time>
      </trkpt>
      <trkpt lat="46.38351" lon="6.24418">
        <ele>378.6</ele>
        <time>2022-09-28T08:20:29Z</time>
      </trkpt>
      <trkpt lat="46.38354" lon="6.24421">
        <ele>378.6</ele>
        <time>2022-09-28T08:20:30Z</time>
      </trkpt>
      <trkpt lat="46.38358" lon="6.24426">
        <ele>378.6</ele>
        <time>2022-09-28T08:20:31Z</time>
      </trkpt>
      <trkpt lat="46.38362" lon="6.2443">
        <ele>378.6</ele>
        <time>2022-09-28T08:20:32Z</time>
      </trkpt>
      <trkpt lat="46.38365" lon="6.24435">
        <ele>378.7</ele>
        <time>2022-09-28T08:20:33Z</time>
      </trkpt>
      <trkpt lat="46.38368" lon="6.2444">
        <ele>378.7</ele>
        <time>2022-09-28T08:20:34Z</time>
      </trkpt>
      <trkpt lat="46.38372" lon="6.24444">
        <ele>378.7</ele>
        <time>2022-09-28T08:20:35Z</time>
      </trkpt>
      <trkpt lat="46.38375" lon="6.24448">
        <ele>378.7</ele>
        <time>2022-09-28T08:20:36Z</time>
      </trkpt>
      <trkpt lat="46.38378" lon="6.24453">
        <ele>378.7</ele>
        <time>2022-09-28T08:20:37Z</time>
      </trkpt>
      <trkpt lat="46.3838" lon="6.24458">
        <ele>378.6</ele>
        <time>2022-09-28T08:20:38Z</time>
      </trkpt>
      <trkpt lat="46.38383" lon="6.24462">
        <ele>378.6</ele>
        <time>2022-09-28T08:20:39Z</time>
      </trkpt>
      <trkpt lat="46.38386" lon="6.24466">
        <ele>378.6</ele>
        <time>2022-09-28T08:20:40Z</time>
      </trkpt>
      <trkpt lat="46.38389" lon="6.24471">
        <ele>378.6</ele>
        <time>2022-09-28T08:20:41Z</time>
      </trkpt>
      <trkpt lat="46.38392" lon="6.24475">
        <ele>378.6</ele>
        <time>2022-09-28T08:20:42Z</time>
      </trkpt>
      <trkpt lat="46.38396" lon="6.2448">
        <ele>378.6</ele>
        <time>2022-09-28T08:20:43Z</time>
      </trkpt>
      <trkpt lat="46.38399" lon="6.24484">
        <ele>378.6</ele>
        <time>2022-09-28T08:20:44Z</time>
      </trkpt>
      <trkpt lat="46.38402" lon="6.24488">
        <ele>378.6</ele>
        <time>2022-09-28T08:20:45Z</time>
      </trkpt>
      <trkpt lat="46.38405" lon="6.24493">
        <ele>378.6</ele>
        <time>2022-09-28T08:20:46Z</time>
      </trkpt>
      <trkpt lat="46.38408" lon="6.24499">
        <ele>378.6</ele>
        <time>2022-09-28T08:20:47Z</time>
      </trkpt>
      <trkpt lat="46.38411" lon="6.24504">
        <ele>378.6</ele>
        <time>2022-09-28T08:20:48Z</time>
      </trkpt>
      <trkpt lat="46.38414" lon="6.24509">
        <ele>378.5</ele>
        <time>2022-09-28T08:20:49Z</time>
      </trkpt>
      <trkpt lat="46.38417" lon="6.24514">
        <ele>378.5</ele>
        <time>2022-09-28T08:20:50Z</time>
      </trkpt>
      <trkpt lat="46.3842" lon="6.24519">
        <ele>378.5</ele>
        <time>2022-09-28T08:20:51Z</time>
      </trkpt>
      <trkpt lat="46.38423" lon="6.24524">
        <ele>378.5</ele>
        <time>2022-09-28T08:20:52Z</time>
      </trkpt>
      <trkpt lat="46.38426" lon="6.24528">
        <ele>378.5</ele>
        <time>2022-09-28T08:20:53Z</time>
      </trkpt>
      <trkpt lat="46.38428" lon="6.24533">
        <ele>378.5</ele>
        <time>2022-09-28T08:20:54Z</time>
      </trkpt>
      <trkpt lat="46.38431" lon="6.24537">
        <ele>378.5</ele>
        <time>2022-09-28T08:20:55Z</time>
      </trkpt>
      <trkpt lat="46.38434" lon="6.24542">
        <ele>378.5</ele>
        <time>2022-09-28T08:20:56Z</time>
      </trkpt>
      <trkpt lat="46.38436" lon="6.24547">
        <ele>378.5</ele>
        <time>2022-09-28T08:20:57Z</time>
      </trkpt>
      <trkpt lat="46.38439" lon="6.24552">
        <ele>378.4</ele>
        <time>2022-09-28T08:20:58Z</time>
      </trkpt>
      <trkpt lat="46.38443" lon="6.24556">
        <ele>378.4</ele>
        <time>2022-09-28T08:20:59Z</time>
      </trkpt>
      <trkpt lat="46.38446" lon="6.24561">
        <ele>378.5</ele>
        <time>2022-09-28T08:21:00Z</time>
      </trkpt>
      <trkpt lat="46.3845" lon="6.24565">
        <ele>378.5</ele>
        <time>2022-09-28T08:21:01Z</time>
      </trkpt>
      <trkpt lat="46.38454" lon="6.24569">
        <ele>378.5</ele>
        <time>2022-09-28T08:21:02Z</time>
      </trkpt>
      <trkpt lat="46.38458" lon="6.24574">
        <ele>378.5</ele>
        <time>2022-09-28T08:21:03Z</time>
      </trkpt>
      <trkpt lat="46.38461" lon="6.24578">
        <ele>378.5</ele>
        <time>2022-09-28T08:21:04Z</time>
      </trkpt>
      <trkpt lat="46.38465" lon="6.24582">
        <ele>378.5</ele>
        <time>2022-09-28T08:21:05Z</time>
      </trkpt>
      <trkpt lat="46.38469" lon="6.24586">
        <ele>378.5</ele>
        <time>2022-09-28T08:21:06Z</time>
      </trkpt>
      <trkpt lat="46.38474" lon="6.24589">
        <ele>378.5</ele>
        <time>2022-09-28T08:21:07Z</time>
      </trkpt>
      <trkpt lat="46.38478" lon="6.24592">
        <ele>378.5</ele>
        <time>2022-09-28T08:21:08Z</time>
      </trkpt>
      <trkpt lat="46.38482" lon="6.24594">
        <ele>378.5</ele>
        <time>2022-09-28T08:21:09Z</time>
      </trkpt>
      <trkpt lat="46.38485" lon="6.24597">
        <ele>378.5</ele>
        <time>2022-09-28T08:21:10Z</time>
      </trkpt>
      <trkpt lat="46.38488" lon="6.24598">
        <ele>378.5</ele>
        <time>2022-09-28T08:21:11Z</time>
      </trkpt>
      <trkpt lat="46.38491" lon="6.246">
        <ele>378.5</ele>
        <time>2022-09-28T08:21:12Z</time>
      </trkpt>
      <trkpt lat="46.38494" lon="6.246">
        <ele>378.5</ele>
        <time>2022-09-28T08:21:13Z</time>
      </trkpt>
      <trkpt lat="46.38498" lon="6.24601">
        <ele>378.6</ele>
        <time>2022-09-28T08:21:14Z</time>
      </trkpt>
      <trkpt lat="46.38501" lon="6.24603">
        <ele>378.6</ele>
        <time>2022-09-28T08:21:15Z</time>
      </trkpt>
      <trkpt lat="46.38504" lon="6.24604">
        <ele>378.6</ele>
        <time>2022-09-28T08:21:16Z</time>
      </trkpt>
      <trkpt lat="46.38508" lon="6.24607">
        <ele>378.6</ele>
        <time>2022-09-28T08:21:17Z</time>
      </trkpt>
      <trkpt lat="46.38514" lon="6.2461">
        <ele>378.6</ele>
        <time>2022-09-28T08:21:18Z</time>
      </trkpt>
      <trkpt lat="46.3852" lon="6.24615">
        <ele>378.6</ele>
        <time>2022-09-28T08:21:19Z</time>
      </trkpt>
      <trkpt lat="46.38525" lon="6.24617">
        <ele>378.6</ele>
        <time>2022-09-28T08:21:20Z</time>
      </trkpt>
      <trkpt lat="46.38528" lon="6.24618">
        <ele>378.6</ele>
        <time>2022-09-28T08:21:21Z</time>
      </trkpt>
      <trkpt lat="46.38532" lon="6.24619">
        <ele>378.7</ele>
        <time>2022-09-28T08:21:22Z</time>
      </trkpt>
      <trkpt lat="46.38537" lon="6.24621">
        <ele>378.7</ele>
        <time>2022-09-28T08:21:23Z</time>
      </trkpt>
      <trkpt lat="46.38542" lon="6.24623">
        <ele>378.7</ele>
        <time>2022-09-28T08:21:24Z</time>
      </trkpt>
      <trkpt lat="46.38547" lon="6.24624">
        <ele>378.7</ele>
        <time>2022-09-28T08:21:25Z</time>
      </trkpt>
      <trkpt lat="46.38552" lon="6.24626">
        <ele>378.7</ele>
        <time>2022-09-28T08:21:26Z</time>
      </trkpt>
      <trkpt lat="46.38558" lon="6.2463">
        <ele>378.8</ele>
        <time>2022-09-28T08:21:27Z</time>
      </trkpt>
      <trkpt lat="46.38564" lon="6.24633">
        <ele>378.8</ele>
        <time>2022-09-28T08:21:28Z</time>
      </trkpt>
      <trkpt lat="46.38571" lon="6.24635">
        <ele>378.8</ele>
        <time>2022-09-28T08:21:29Z</time>
      </trkpt>
      <trkpt lat="46.38577" lon="6.24637">
        <ele>378.9</ele>
        <time>2022-09-28T08:21:30Z</time>
      </trkpt>
      <trkpt lat="46.38583" lon="6.24639">
        <ele>378.9</ele>
        <time>2022-09-28T08:21:31Z</time>
      </trkpt>
      <trkpt lat="46.38589" lon="6.24641">
        <ele>378.9</ele>
        <time>2022-09-28T08:21:32Z</time>
      </trkpt>
      <trkpt lat="46.38594" lon="6.24643">
        <ele>378.9</ele>
        <time>2022-09-28T08:21:33Z</time>
      </trkpt>
      <trkpt lat="46.38599" lon="6.24645">
        <ele>378.9</ele>
        <time>2022-09-28T08:21:34Z</time>
      </trkpt>
      <trkpt lat="46.38605" lon="6.24646">
        <ele>379</ele>
        <time>2022-09-28T08:21:35Z</time>
      </trkpt>
      <trkpt lat="46.38611" lon="6.24648">
        <ele>379</ele>
        <time>2022-09-28T08:21:36Z</time>
      </trkpt>
      <trkpt lat="46.38616" lon="6.24651">
        <ele>379</ele>
        <time>2022-09-28T08:21:37Z</time>
      </trkpt>
      <trkpt lat="46.38622" lon="6.24652">
        <ele>379</ele>
        <time>2022-09-28T08:21:38Z</time>
      </trkpt>
      <trkpt lat="46.38628" lon="6.24654">
        <ele>379</ele>
        <time>2022-09-28T08:21:39Z</time>
      </trkpt>
      <trkpt lat="46.38633" lon="6.24656">
        <ele>379</ele>
        <time>2022-09-28T08:21:40Z</time>
      </trkpt>
      <trkpt lat="46.38638" lon="6.24658">
        <ele>379</ele>
        <time>2022-09-28T08:21:41Z</time>
      </trkpt>
      <trkpt lat="46.38642" lon="6.2466">
        <ele>379.1</ele>
        <time>2022-09-28T08:21:42Z</time>
      </trkpt>
      <trkpt lat="46.38646" lon="6.24662">
        <ele>379.1</ele>
        <time>2022-09-28T08:21:43Z</time>
      </trkpt>
      <trkpt lat="46.38651" lon="6.24663">
        <ele>379.2</ele>
        <time>2022-09-28T08:21:44Z</time>
      </trkpt>
      <trkpt lat="46.38656" lon="6.24665">
        <ele>379.3</ele>
        <time>2022-09-28T08:21:45Z</time>
      </trkpt>
      <trkpt lat="46.3866" lon="6.24667">
        <ele>379.3</ele>
        <time>2022-09-28T08:21:46Z</time>
      </trkpt>
      <trkpt lat="46.38664" lon="6.24669">
        <ele>379.4</ele>
        <time>2022-09-28T08:21:47Z</time>
      </trkpt>
      <trkpt lat="46.38669" lon="6.24671">
        <ele>379.4</ele>
        <time>2022-09-28T08:21:48Z</time>
      </trkpt>
      <trkpt lat="46.38673" lon="6.24673">
        <ele>379.5</ele>
        <time>2022-09-28T08:21:49Z</time>
      </trkpt>
      <trkpt lat="46.38678" lon="6.24676">
        <ele>379.6</ele>
        <time>2022-09-28T08:21:50Z</time>
      </trkpt>
      <trkpt lat="46.38682" lon="6.24678">
        <ele>379.6</ele>
        <time>2022-09-28T08:21:51Z</time>
      </trkpt>
      <trkpt lat="46.38686" lon="6.24681">
        <ele>379.7</ele>
        <time>2022-09-28T08:21:52Z</time>
      </trkpt>
      <trkpt lat="46.3869" lon="6.24683">
        <ele>379.8</ele>
        <time>2022-09-28T08:21:53Z</time>
      </trkpt>
      <trkpt lat="46.38695" lon="6.24686">
        <ele>379.8</ele>
        <time>2022-09-28T08:21:54Z</time>
      </trkpt>
      <trkpt lat="46.38699" lon="6.24688">
        <ele>379.9</ele>
        <time>2022-09-28T08:21:55Z</time>
      </trkpt>
      <trkpt lat="46.38702" lon="6.24691">
        <ele>379.9</ele>
        <time>2022-09-28T08:21:56Z</time>
      </trkpt>
      <trkpt lat="46.38706" lon="6.24694">
        <ele>380</ele>
        <time>2022-09-28T08:21:57Z</time>
      </trkpt>
      <trkpt lat="46.38709" lon="6.24695">
        <ele>380.1</ele>
        <time>2022-09-28T08:21:58Z</time>
      </trkpt>
      <trkpt lat="46.38713" lon="6.24698">
        <ele>380.1</ele>
        <time>2022-09-28T08:21:59Z</time>
      </trkpt>
      <trkpt lat="46.38716" lon="6.24701">
        <ele>380.2</ele>
        <time>2022-09-28T08:22:00Z</time>
      </trkpt>
      <trkpt lat="46.38719" lon="6.24703">
        <ele>380.2</ele>
        <time>2022-09-28T08:22:01Z</time>
      </trkpt>
      <trkpt lat="46.38722" lon="6.24705">
        <ele>380.3</ele>
        <time>2022-09-28T08:22:02Z</time>
      </trkpt>
      <trkpt lat="46.38725" lon="6.24708">
        <ele>380.4</ele>
        <time>2022-09-28T08:22:03Z</time>
      </trkpt>
      <trkpt lat="46.38728" lon="6.24711">
        <ele>380.4</ele>
        <time>2022-09-28T08:22:04Z</time>
      </trkpt>
      <trkpt lat="46.3873" lon="6.24715">
        <ele>380.5</ele>
        <time>2022-09-28T08:22:05Z</time>
      </trkpt>
      <trkpt lat="46.38734" lon="6.24718">
        <ele>380.6</ele>
        <time>2022-09-28T08:22:06Z</time>
      </trkpt>
      <trkpt lat="46.38736" lon="6.24721">
        <ele>380.6</ele>
        <time>2022-09-28T08:22:07Z</time>
      </trkpt>
      <trkpt lat="46.38739" lon="6.24723">
        <ele>380.7</ele>
        <time>2022-09-28T08:22:08Z</time>
      </trkpt>
      <trkpt lat="46.38742" lon="6.24726">
        <ele>380.7</ele>
        <time>2022-09-28T08:22:09Z</time>
      </trkpt>
      <trkpt lat="46.38745" lon="6.2473">
        <ele>380.8</ele>
        <time>2022-09-28T08:22:10Z</time>
      </trkpt>
      <trkpt lat="46.38747" lon="6.24733">
        <ele>380.9</ele>
        <time>2022-09-28T08:22:11Z</time>
      </trkpt>
      <trkpt lat="46.3875" lon="6.24736">
        <ele>380.9</ele>
        <time>2022-09-28T08:22:12Z</time>
      </trkpt>
      <trkpt lat="46.38753" lon="6.2474">
        <ele>381</ele>
        <time>2022-09-28T08:22:13Z</time>
      </trkpt>
      <trkpt lat="46.38756" lon="6.24743">
        <ele>381.1</ele>
        <time>2022-09-28T08:22:14Z</time>
      </trkpt>
      <trkpt lat="46.38758" lon="6.24747">
        <ele>381.1</ele>
        <time>2022-09-28T08:22:15Z</time>
      </trkpt>
      <trkpt lat="46.38761" lon="6.2475">
        <ele>381.2</ele>
        <time>2022-09-28T08:22:16Z</time>
      </trkpt>
      <trkpt lat="46.38764" lon="6.24753">
        <ele>381.3</ele>
        <time>2022-09-28T08:22:17Z</time>
      </trkpt>
      <trkpt lat="46.38767" lon="6.24757">
        <ele>381.3</ele>
        <time>2022-09-28T08:22:18Z</time>
      </trkpt>
      <trkpt lat="46.3877" lon="6.24761">
        <ele>381.4</ele>
        <time>2022-09-28T08:22:19Z</time>
      </trkpt>
      <trkpt lat="46.38772" lon="6.24765">
        <ele>381.5</ele>
        <time>2022-09-28T08:22:20Z</time>
      </trkpt>
      <trkpt lat="46.38775" lon="6.24768">
        <ele>381.5</ele>
        <time>2022-09-28T08:22:21Z</time>
      </trkpt>
      <trkpt lat="46.38778" lon="6.24771">
        <ele>381.6</ele>
        <time>2022-09-28T08:22:22Z</time>
      </trkpt>
      <trkpt lat="46.38781" lon="6.24774">
        <ele>381.7</ele>
        <time>2022-09-28T08:22:23Z</time>
      </trkpt>
      <trkpt lat="46.38784" lon="6.24778">
        <ele>381.7</ele>
        <time>2022-09-28T08:22:24Z</time>
      </trkpt>
      <trkpt lat="46.38787" lon="6.24782">
        <ele>381.8</ele>
        <time>2022-09-28T08:22:25Z</time>
      </trkpt>
      <trkpt lat="46.3879" lon="6.24785">
        <ele>381.9</ele>
        <time>2022-09-28T08:22:26Z</time>
      </trkpt>
      <trkpt lat="46.38793" lon="6.24789">
        <ele>381.9</ele>
        <time>2022-09-28T08:22:27Z</time>
      </trkpt>
      <trkpt lat="46.38796" lon="6.24792">
        <ele>382</ele>
        <time>2022-09-28T08:22:28Z</time>
      </trkpt>
      <trkpt lat="46.388" lon="6.24795">
        <ele>382.1</ele>
        <time>2022-09-28T08:22:29Z</time>
      </trkpt>
      <trkpt lat="46.38802" lon="6.24799">
        <ele>382.1</ele>
        <time>2022-09-28T08:22:30Z</time>
      </trkpt>
      <trkpt lat="46.38805" lon="6.24803">
        <ele>382.2</ele>
        <time>2022-09-28T08:22:31Z</time>
      </trkpt>
      <trkpt lat="46.38808" lon="6.24807">
        <ele>382.3</ele>
        <time>2022-09-28T08:22:32Z</time>
      </trkpt>
      <trkpt lat="46.38811" lon="6.24811">
        <ele>382.3</ele>
        <time>2022-09-28T08:22:33Z</time>
      </trkpt>
      <trkpt lat="46.38814" lon="6.24814">
        <ele>382.4</ele>
        <time>2022-09-28T08:22:34Z</time>
      </trkpt>
      <trkpt lat="46.38817" lon="6.24818">
        <ele>382.4</ele>
        <time>2022-09-28T08:22:35Z</time>
      </trkpt>
      <trkpt lat="46.3882" lon="6.24821">
        <ele>382.4</ele>
        <time>2022-09-28T08:22:36Z</time>
      </trkpt>
      <trkpt lat="46.38822" lon="6.24825">
        <ele>382.5</ele>
        <time>2022-09-28T08:22:37Z</time>
      </trkpt>
      <trkpt lat="46.38825" lon="6.24828">
        <ele>382.5</ele>
        <time>2022-09-28T08:22:38Z</time>
      </trkpt>
      <trkpt lat="46.38828" lon="6.24832">
        <ele>382.6</ele>
        <time>2022-09-28T08:22:39Z</time>
      </trkpt>
      <trkpt lat="46.38831" lon="6.24836">
        <ele>382.6</ele>
        <time>2022-09-28T08:22:40Z</time>
      </trkpt>
      <trkpt lat="46.38834" lon="6.2484">
        <ele>382.7</ele>
        <time>2022-09-28T08:22:41Z</time>
      </trkpt>
      <trkpt lat="46.38837" lon="6.24844">
        <ele>382.7</ele>
        <time>2022-09-28T08:22:42Z</time>
      </trkpt>
      <trkpt lat="46.38839" lon="6.24848">
        <ele>382.7</ele>
        <time>2022-09-28T08:22:43Z</time>
      </trkpt>
      <trkpt lat="46.38842" lon="6.24851">
        <ele>382.8</ele>
        <time>2022-09-28T08:22:44Z</time>
      </trkpt>
      <trkpt lat="46.38845" lon="6.24854">
        <ele>382.8</ele>
        <time>2022-09-28T08:22:45Z</time>
      </trkpt>
      <trkpt lat="46.38848" lon="6.24858">
        <ele>382.9</ele>
        <time>2022-09-28T08:22:46Z</time>
      </trkpt>
      <trkpt lat="46.3885" lon="6.24862">
        <ele>382.9</ele>
        <time>2022-09-28T08:22:47Z</time>
      </trkpt>
      <trkpt lat="46.38854" lon="6.24866">
        <ele>383</ele>
        <time>2022-09-28T08:22:48Z</time>
      </trkpt>
      <trkpt lat="46.38856" lon="6.24869">
        <ele>383</ele>
        <time>2022-09-28T08:22:49Z</time>
      </trkpt>
      <trkpt lat="46.38859" lon="6.24873">
        <ele>383.1</ele>
        <time>2022-09-28T08:22:50Z</time>
      </trkpt>
      <trkpt lat="46.38862" lon="6.24876">
        <ele>383.1</ele>
        <time>2022-09-28T08:22:51Z</time>
      </trkpt>
      <trkpt lat="46.38864" lon="6.24879">
        <ele>383.1</ele>
        <time>2022-09-28T08:22:52Z</time>
      </trkpt>
      <trkpt lat="46.38867" lon="6.24883">
        <ele>383.2</ele>
        <time>2022-09-28T08:22:53Z</time>
      </trkpt>
      <trkpt lat="46.3887" lon="6.24887">
        <ele>383.2</ele>
        <time>2022-09-28T08:22:54Z</time>
      </trkpt>
      <trkpt lat="46.38873" lon="6.2489">
        <ele>383.3</ele>
        <time>2022-09-28T08:22:55Z</time>
      </trkpt>
      <trkpt lat="46.38875" lon="6.24894">
        <ele>383.3</ele>
        <time>2022-09-28T08:22:56Z</time>
      </trkpt>
      <trkpt lat="46.38878" lon="6.24897">
        <ele>383.4</ele>
        <time>2022-09-28T08:22:57Z</time>
      </trkpt>
      <trkpt lat="46.38881" lon="6.24901">
        <ele>383.4</ele>
        <time>2022-09-28T08:22:58Z</time>
      </trkpt>
      <trkpt lat="46.38884" lon="6.24904">
        <ele>383.5</ele>
        <time>2022-09-28T08:22:59Z</time>
      </trkpt>
      <trkpt lat="46.38887" lon="6.24908">
        <ele>383.5</ele>
        <time>2022-09-28T08:23:00Z</time>
      </trkpt>
      <trkpt lat="46.3889" lon="6.24912">
        <ele>383.5</ele>
        <time>2022-09-28T08:23:01Z</time>
      </trkpt>
      <trkpt lat="46.38893" lon="6.24916">
        <ele>383.6</ele>
        <time>2022-09-28T08:23:02Z</time>
      </trkpt>
      <trkpt lat="46.38896" lon="6.24919">
        <ele>383.6</ele>
        <time>2022-09-28T08:23:03Z</time>
      </trkpt>
      <trkpt lat="46.38899" lon="6.24922">
        <ele>383.7</ele>
        <time>2022-09-28T08:23:04Z</time>
      </trkpt>
      <trkpt lat="46.38901" lon="6.24926">
        <ele>383.7</ele>
        <time>2022-09-28T08:23:05Z</time>
      </trkpt>
      <trkpt lat="46.38903" lon="6.24928">
        <ele>383.7</ele>
        <time>2022-09-28T08:23:06Z</time>
      </trkpt>
      <trkpt lat="46.38906" lon="6.24932">
        <ele>383.7</ele>
        <time>2022-09-28T08:23:07Z</time>
      </trkpt>
      <trkpt lat="46.38908" lon="6.24935">
        <ele>383.8</ele>
        <time>2022-09-28T08:23:08Z</time>
      </trkpt>
      <trkpt lat="46.3891" lon="6.24939">
        <ele>383.8</ele>
        <time>2022-09-28T08:23:09Z</time>
      </trkpt>
      <trkpt lat="46.38913" lon="6.24942">
        <ele>383.8</ele>
        <time>2022-09-28T08:23:10Z</time>
      </trkpt>
      <trkpt lat="46.38915" lon="6.24946">
        <ele>383.9</ele>
        <time>2022-09-28T08:23:11Z</time>
      </trkpt>
      <trkpt lat="46.38918" lon="6.2495">
        <ele>383.9</ele>
        <time>2022-09-28T08:23:12Z</time>
      </trkpt>
      <trkpt lat="46.38921" lon="6.24953">
        <ele>384</ele>
        <time>2022-09-28T08:23:13Z</time>
      </trkpt>
      <trkpt lat="46.38923" lon="6.24956">
        <ele>384</ele>
        <time>2022-09-28T08:23:14Z</time>
      </trkpt>
      <trkpt lat="46.38926" lon="6.2496">
        <ele>384</ele>
        <time>2022-09-28T08:23:15Z</time>
      </trkpt>
      <trkpt lat="46.38929" lon="6.24964">
        <ele>384.1</ele>
        <time>2022-09-28T08:23:16Z</time>
      </trkpt>
      <trkpt lat="46.38932" lon="6.24968">
        <ele>384.1</ele>
        <time>2022-09-28T08:23:17Z</time>
      </trkpt>
      <trkpt lat="46.38935" lon="6.24972">
        <ele>384.2</ele>
        <time>2022-09-28T08:23:18Z</time>
      </trkpt>
      <trkpt lat="46.38938" lon="6.24976">
        <ele>384.2</ele>
        <time>2022-09-28T08:23:19Z</time>
      </trkpt>
      <trkpt lat="46.38941" lon="6.2498">
        <ele>384.2</ele>
        <time>2022-09-28T08:23:20Z</time>
      </trkpt>
      <trkpt lat="46.38945" lon="6.24983">
        <ele>384.3</ele>
        <time>2022-09-28T08:23:21Z</time>
      </trkpt>
      <trkpt lat="46.38949" lon="6.24987">
        <ele>384.3</ele>
        <time>2022-09-28T08:23:22Z</time>
      </trkpt>
      <trkpt lat="46.38953" lon="6.24991">
        <ele>384.4</ele>
        <time>2022-09-28T08:23:23Z</time>
      </trkpt>
      <trkpt lat="46.38956" lon="6.24994">
        <ele>384.4</ele>
        <time>2022-09-28T08:23:24Z</time>
      </trkpt>
      <trkpt lat="46.3896" lon="6.24998">
        <ele>384.5</ele>
        <time>2022-09-28T08:23:25Z</time>
      </trkpt>
      <trkpt lat="46.38963" lon="6.25002">
        <ele>384.5</ele>
        <time>2022-09-28T08:23:26Z</time>
      </trkpt>
      <trkpt lat="46.38966" lon="6.25005">
        <ele>384.6</ele>
        <time>2022-09-28T08:23:27Z</time>
      </trkpt>
      <trkpt lat="46.3897" lon="6.25009">
        <ele>384.6</ele>
        <time>2022-09-28T08:23:28Z</time>
      </trkpt>
      <trkpt lat="46.38973" lon="6.25013">
        <ele>384.7</ele>
        <time>2022-09-28T08:23:29Z</time>
      </trkpt>
      <trkpt lat="46.38976" lon="6.25017">
        <ele>384.7</ele>
        <time>2022-09-28T08:23:30Z</time>
      </trkpt>
      <trkpt lat="46.38979" lon="6.25021">
        <ele>384.8</ele>
        <time>2022-09-28T08:23:31Z</time>
      </trkpt>
      <trkpt lat="46.38982" lon="6.25025">
        <ele>384.8</ele>
        <time>2022-09-28T08:23:32Z</time>
      </trkpt>
      <trkpt lat="46.38985" lon="6.25028">
        <ele>384.9</ele>
        <time>2022-09-28T08:23:33Z</time>
      </trkpt>
      <trkpt lat="46.38988" lon="6.25032">
        <ele>384.9</ele>
        <time>2022-09-28T08:23:34Z</time>
      </trkpt>
      <trkpt lat="46.38991" lon="6.25035">
        <ele>385</ele>
        <time>2022-09-28T08:23:35Z</time>
      </trkpt>
      <trkpt lat="46.38994" lon="6.25039">
        <ele>385</ele>
        <time>2022-09-28T08:23:36Z</time>
      </trkpt>
      <trkpt lat="46.38997" lon="6.25042">
        <ele>385.1</ele>
        <time>2022-09-28T08:23:37Z</time>
      </trkpt>
      <trkpt lat="46.39" lon="6.25046">
        <ele>385.1</ele>
        <time>2022-09-28T08:23:38Z</time>
      </trkpt>
      <trkpt lat="46.39003" lon="6.2505">
        <ele>385.1</ele>
        <time>2022-09-28T08:23:39Z</time>
      </trkpt>
      <trkpt lat="46.39006" lon="6.25054">
        <ele>385.2</ele>
        <time>2022-09-28T08:23:40Z</time>
      </trkpt>
      <trkpt lat="46.39009" lon="6.25058">
        <ele>385.2</ele>
        <time>2022-09-28T08:23:41Z</time>
      </trkpt>
      <trkpt lat="46.39012" lon="6.25062">
        <ele>385.3</ele>
        <time>2022-09-28T08:23:42Z</time>
      </trkpt>
      <trkpt lat="46.39015" lon="6.25065">
        <ele>385.3</ele>
        <time>2022-09-28T08:23:43Z</time>
      </trkpt>
      <trkpt lat="46.39018" lon="6.25069">
        <ele>385.3</ele>
        <time>2022-09-28T08:23:44Z</time>
      </trkpt>
      <trkpt lat="46.39021" lon="6.25073">
        <ele>385.4</ele>
        <time>2022-09-28T08:23:45Z</time>
      </trkpt>
      <trkpt lat="46.39024" lon="6.25077">
        <ele>385.4</ele>
        <time>2022-09-28T08:23:46Z</time>
      </trkpt>
      <trkpt lat="46.39027" lon="6.25081">
        <ele>385.5</ele>
        <time>2022-09-28T08:23:47Z</time>
      </trkpt>
      <trkpt lat="46.39031" lon="6.25084">
        <ele>385.5</ele>
        <time>2022-09-28T08:23:48Z</time>
      </trkpt>
      <trkpt lat="46.39034" lon="6.25088">
        <ele>385.5</ele>
        <time>2022-09-28T08:23:49Z</time>
      </trkpt>
      <trkpt lat="46.39037" lon="6.25092">
        <ele>385.6</ele>
        <time>2022-09-28T08:23:50Z</time>
      </trkpt>
      <trkpt lat="46.39041" lon="6.25097">
        <ele>385.6</ele>
        <time>2022-09-28T08:23:51Z</time>
      </trkpt>
      <trkpt lat="46.39043" lon="6.25101">
        <ele>385.7</ele>
        <time>2022-09-28T08:23:52Z</time>
      </trkpt>
      <trkpt lat="46.39046" lon="6.25104">
        <ele>385.7</ele>
        <time>2022-09-28T08:23:53Z</time>
      </trkpt>
      <trkpt lat="46.39049" lon="6.25107">
        <ele>385.8</ele>
        <time>2022-09-28T08:23:54Z</time>
      </trkpt>
      <trkpt lat="46.39052" lon="6.25111">
        <ele>385.8</ele>
        <time>2022-09-28T08:23:55Z</time>
      </trkpt>
      <trkpt lat="46.39055" lon="6.25115">
        <ele>385.9</ele>
        <time>2022-09-28T08:23:56Z</time>
      </trkpt>
      <trkpt lat="46.39058" lon="6.25118">
        <ele>385.9</ele>
        <time>2022-09-28T08:23:57Z</time>
      </trkpt>
      <trkpt lat="46.3906" lon="6.25123">
        <ele>386</ele>
        <time>2022-09-28T08:23:58Z</time>
      </trkpt>
      <trkpt lat="46.39063" lon="6.25127">
        <ele>386</ele>
        <time>2022-09-28T08:23:59Z</time>
      </trkpt>
      <trkpt lat="46.39067" lon="6.25131">
        <ele>386</ele>
        <time>2022-09-28T08:24:00Z</time>
      </trkpt>
      <trkpt lat="46.3907" lon="6.25134">
        <ele>386.1</ele>
        <time>2022-09-28T08:24:01Z</time>
      </trkpt>
      <trkpt lat="46.39073" lon="6.25138">
        <ele>386.1</ele>
        <time>2022-09-28T08:24:02Z</time>
      </trkpt>
      <trkpt lat="46.39076" lon="6.25143">
        <ele>386.2</ele>
        <time>2022-09-28T08:24:03Z</time>
      </trkpt>
      <trkpt lat="46.39079" lon="6.25146">
        <ele>386.2</ele>
        <time>2022-09-28T08:24:04Z</time>
      </trkpt>
      <trkpt lat="46.39082" lon="6.25149">
        <ele>386.3</ele>
        <time>2022-09-28T08:24:05Z</time>
      </trkpt>
      <trkpt lat="46.39085" lon="6.25152">
        <ele>386.3</ele>
        <time>2022-09-28T08:24:06Z</time>
      </trkpt>
      <trkpt lat="46.39087" lon="6.25156">
        <ele>386.3</ele>
        <time>2022-09-28T08:24:07Z</time>
      </trkpt>
      <trkpt lat="46.3909" lon="6.2516">
        <ele>386.4</ele>
        <time>2022-09-28T08:24:08Z</time>
      </trkpt>
      <trkpt lat="46.39092" lon="6.25163">
        <ele>386.4</ele>
        <time>2022-09-28T08:24:09Z</time>
      </trkpt>
      <trkpt lat="46.39095" lon="6.25166">
        <ele>386.4</ele>
        <time>2022-09-28T08:24:10Z</time>
      </trkpt>
      <trkpt lat="46.39097" lon="6.2517">
        <ele>386.5</ele>
        <time>2022-09-28T08:24:11Z</time>
      </trkpt>
      <trkpt lat="46.39101" lon="6.25174">
        <ele>386.5</ele>
        <time>2022-09-28T08:24:12Z</time>
      </trkpt>
      <trkpt lat="46.39104" lon="6.25177">
        <ele>386.5</ele>
        <time>2022-09-28T08:24:13Z</time>
      </trkpt>
      <trkpt lat="46.39107" lon="6.25181">
        <ele>386.6</ele>
        <time>2022-09-28T08:24:14Z</time>
      </trkpt>
      <trkpt lat="46.3911" lon="6.25185">
        <ele>386.6</ele>
        <time>2022-09-28T08:24:15Z</time>
      </trkpt>
      <trkpt lat="46.39114" lon="6.25189">
        <ele>386.6</ele>
        <time>2022-09-28T08:24:16Z</time>
      </trkpt>
      <trkpt lat="46.39117" lon="6.25193">
        <ele>386.6</ele>
        <time>2022-09-28T08:24:17Z</time>
      </trkpt>
      <trkpt lat="46.3912" lon="6.25197">
        <ele>386.7</ele>
        <time>2022-09-28T08:24:18Z</time>
      </trkpt>
      <trkpt lat="46.39124" lon="6.25202">
        <ele>386.7</ele>
        <time>2022-09-28T08:24:19Z</time>
      </trkpt>
      <trkpt lat="46.39127" lon="6.25207">
        <ele>386.7</ele>
        <time>2022-09-28T08:24:20Z</time>
      </trkpt>
      <trkpt lat="46.39131" lon="6.25212">
        <ele>386.8</ele>
        <time>2022-09-28T08:24:21Z</time>
      </trkpt>
      <trkpt lat="46.39135" lon="6.25217">
        <ele>386.8</ele>
        <time>2022-09-28T08:24:22Z</time>
      </trkpt>
      <trkpt lat="46.39139" lon="6.25221">
        <ele>386.8</ele>
        <time>2022-09-28T08:24:23Z</time>
      </trkpt>
      <trkpt lat="46.39143" lon="6.25226">
        <ele>386.9</ele>
        <time>2022-09-28T08:24:24Z</time>
      </trkpt>
      <trkpt lat="46.39146" lon="6.2523">
        <ele>386.9</ele>
        <time>2022-09-28T08:24:25Z</time>
      </trkpt>
      <trkpt lat="46.3915" lon="6.25235">
        <ele>386.9</ele>
        <time>2022-09-28T08:24:26Z</time>
      </trkpt>
      <trkpt lat="46.39153" lon="6.25239">
        <ele>386.9</ele>
        <time>2022-09-28T08:24:27Z</time>
      </trkpt>
      <trkpt lat="46.39157" lon="6.25244">
        <ele>386.9</ele>
        <time>2022-09-28T08:24:28Z</time>
      </trkpt>
      <trkpt lat="46.3916" lon="6.25249">
        <ele>387</ele>
        <time>2022-09-28T08:24:29Z</time>
      </trkpt>
      <trkpt lat="46.39163" lon="6.25253">
        <ele>387</ele>
        <time>2022-09-28T08:24:30Z</time>
      </trkpt>
      <trkpt lat="46.39167" lon="6.25257">
        <ele>387</ele>
        <time>2022-09-28T08:24:31Z</time>
      </trkpt>
      <trkpt lat="46.39171" lon="6.25261">
        <ele>387.1</ele>
        <time>2022-09-28T08:24:32Z</time>
      </trkpt>
      <trkpt lat="46.39174" lon="6.25266">
        <ele>387.1</ele>
        <time>2022-09-28T08:24:33Z</time>
      </trkpt>
      <trkpt lat="46.39178" lon="6.2527">
        <ele>387.1</ele>
        <time>2022-09-28T08:24:34Z</time>
      </trkpt>
      <trkpt lat="46.39183" lon="6.25275">
        <ele>387.1</ele>
        <time>2022-09-28T08:24:35Z</time>
      </trkpt>
      <trkpt lat="46.39186" lon="6.2528">
        <ele>387</ele>
        <time>2022-09-28T08:24:36Z</time>
      </trkpt>
      <trkpt lat="46.3919" lon="6.25285">
        <ele>387</ele>
        <time>2022-09-28T08:24:37Z</time>
      </trkpt>
      <trkpt lat="46.39195" lon="6.2529">
        <ele>387</ele>
        <time>2022-09-28T08:24:38Z</time>
      </trkpt>
      <trkpt lat="46.39198" lon="6.25295">
        <ele>387</ele>
        <time>2022-09-28T08:24:39Z</time>
      </trkpt>
      <trkpt lat="46.39202" lon="6.253">
        <ele>387</ele>
        <time>2022-09-28T08:24:40Z</time>
      </trkpt>
      <trkpt lat="46.39206" lon="6.25305">
        <ele>387.1</ele>
        <time>2022-09-28T08:24:41Z</time>
      </trkpt>
      <trkpt lat="46.39211" lon="6.2531">
        <ele>387.1</ele>
        <time>2022-09-28T08:24:42Z</time>
      </trkpt>
      <trkpt lat="46.39213" lon="6.25317">
        <ele>387.1</ele>
        <time>2022-09-28T08:24:43Z</time>
      </trkpt>
      <trkpt lat="46.39216" lon="6.25321">
        <ele>387.1</ele>
        <time>2022-09-28T08:24:44Z</time>
      </trkpt>
      <trkpt lat="46.3922" lon="6.25326">
        <ele>387.1</ele>
        <time>2022-09-28T08:24:45Z</time>
      </trkpt>
      <trkpt lat="46.39224" lon="6.25331">
        <ele>387.1</ele>
        <time>2022-09-28T08:24:46Z</time>
      </trkpt>
      <trkpt lat="46.39228" lon="6.25336">
        <ele>387.1</ele>
        <time>2022-09-28T08:24:47Z</time>
      </trkpt>
      <trkpt lat="46.39232" lon="6.2534">
        <ele>387.1</ele>
        <time>2022-09-28T08:24:48Z</time>
      </trkpt>
      <trkpt lat="46.39237" lon="6.25346">
        <ele>387.1</ele>
        <time>2022-09-28T08:24:49Z</time>
      </trkpt>
      <trkpt lat="46.39242" lon="6.25352">
        <ele>387.1</ele>
        <time>2022-09-28T08:24:50Z</time>
      </trkpt>
      <trkpt lat="46.39246" lon="6.25358">
        <ele>387.1</ele>
        <time>2022-09-28T08:24:51Z</time>
      </trkpt>
      <trkpt lat="46.39251" lon="6.25364">
        <ele>387.1</ele>
        <time>2022-09-28T08:24:52Z</time>
      </trkpt>
      <trkpt lat="46.39256" lon="6.2537">
        <ele>387.1</ele>
        <time>2022-09-28T08:24:53Z</time>
      </trkpt>
      <trkpt lat="46.39262" lon="6.25376">
        <ele>387</ele>
        <time>2022-09-28T08:24:54Z</time>
      </trkpt>
      <trkpt lat="46.39266" lon="6.25382">
        <ele>387</ele>
        <time>2022-09-28T08:24:55Z</time>
      </trkpt>
      <trkpt lat="46.39271" lon="6.25388">
        <ele>387</ele>
        <time>2022-09-28T08:24:56Z</time>
      </trkpt>
      <trkpt lat="46.39276" lon="6.25394">
        <ele>387</ele>
        <time>2022-09-28T08:24:57Z</time>
      </trkpt>
      <trkpt lat="46.39281" lon="6.254">
        <ele>387.1</ele>
        <time>2022-09-28T08:24:58Z</time>
      </trkpt>
      <trkpt lat="46.39285" lon="6.25405">
        <ele>387.1</ele>
        <time>2022-09-28T08:24:59Z</time>
      </trkpt>
      <trkpt lat="46.3929" lon="6.25411">
        <ele>387.1</ele>
        <time>2022-09-28T08:25:00Z</time>
      </trkpt>
      <trkpt lat="46.39294" lon="6.25417">
        <ele>387.2</ele>
        <time>2022-09-28T08:25:01Z</time>
      </trkpt>
      <trkpt lat="46.39299" lon="6.25422">
        <ele>387.2</ele>
        <time>2022-09-28T08:25:02Z</time>
      </trkpt>
      <trkpt lat="46.39303" lon="6.25428">
        <ele>387.3</ele>
        <time>2022-09-28T08:25:03Z</time>
      </trkpt>
      <trkpt lat="46.39308" lon="6.25434">
        <ele>387.3</ele>
        <time>2022-09-28T08:25:04Z</time>
      </trkpt>
      <trkpt lat="46.39312" lon="6.25439">
        <ele>387.3</ele>
        <time>2022-09-28T08:25:05Z</time>
      </trkpt>
      <trkpt lat="46.39316" lon="6.25444">
        <ele>387.4</ele>
        <time>2022-09-28T08:25:06Z</time>
      </trkpt>
      <trkpt lat="46.39321" lon="6.2545">
        <ele>387.5</ele>
        <time>2022-09-28T08:25:07Z</time>
      </trkpt>
      <trkpt lat="46.39325" lon="6.25455">
        <ele>387.5</ele>
        <time>2022-09-28T08:25:08Z</time>
      </trkpt>
      <trkpt lat="46.39329" lon="6.2546">
        <ele>387.6</ele>
        <time>2022-09-28T08:25:09Z</time>
      </trkpt>
      <trkpt lat="46.39333" lon="6.25465">
        <ele>387.6</ele>
        <time>2022-09-28T08:25:10Z</time>
      </trkpt>
      <trkpt lat="46.39337" lon="6.2547">
        <ele>387.7</ele>
        <time>2022-09-28T08:25:11Z</time>
      </trkpt>
      <trkpt lat="46.3934" lon="6.25475">
        <ele>387.7</ele>
        <time>2022-09-28T08:25:12Z</time>
      </trkpt>
      <trkpt lat="46.39344" lon="6.2548">
        <ele>387.8</ele>
        <time>2022-09-28T08:25:13Z</time>
      </trkpt>
      <trkpt lat="46.39348" lon="6.25485">
        <ele>387.8</ele>
        <time>2022-09-28T08:25:14Z</time>
      </trkpt>
      <trkpt lat="46.39352" lon="6.2549">
        <ele>387.8</ele>
        <time>2022-09-28T08:25:15Z</time>
      </trkpt>
      <trkpt lat="46.39356" lon="6.25494">
        <ele>387.8</ele>
        <time>2022-09-28T08:25:16Z</time>
      </trkpt>
      <trkpt lat="46.39359" lon="6.25499">
        <ele>387.9</ele>
        <time>2022-09-28T08:25:17Z</time>
      </trkpt>
      <trkpt lat="46.39363" lon="6.25504">
        <ele>387.9</ele>
        <time>2022-09-28T08:25:18Z</time>
      </trkpt>
      <trkpt lat="46.39366" lon="6.25508">
        <ele>388</ele>
        <time>2022-09-28T08:25:19Z</time>
      </trkpt>
      <trkpt lat="46.3937" lon="6.25512">
        <ele>388</ele>
        <time>2022-09-28T08:25:20Z</time>
      </trkpt>
      <trkpt lat="46.39373" lon="6.25516">
        <ele>388.1</ele>
        <time>2022-09-28T08:25:21Z</time>
      </trkpt>
      <trkpt lat="46.39377" lon="6.2552">
        <ele>388.1</ele>
        <time>2022-09-28T08:25:22Z</time>
      </trkpt>
      <trkpt lat="46.3938" lon="6.25524">
        <ele>388.2</ele>
        <time>2022-09-28T08:25:23Z</time>
      </trkpt>
      <trkpt lat="46.39383" lon="6.25528">
        <ele>388.2</ele>
        <time>2022-09-28T08:25:24Z</time>
      </trkpt>
      <trkpt lat="46.39386" lon="6.25533">
        <ele>388.2</ele>
        <time>2022-09-28T08:25:25Z</time>
      </trkpt>
      <trkpt lat="46.39389" lon="6.25537">
        <ele>388.3</ele>
        <time>2022-09-28T08:25:26Z</time>
      </trkpt>
      <trkpt lat="46.39392" lon="6.2554">
        <ele>388.3</ele>
        <time>2022-09-28T08:25:27Z</time>
      </trkpt>
      <trkpt lat="46.39396" lon="6.25544">
        <ele>388.3</ele>
        <time>2022-09-28T08:25:28Z</time>
      </trkpt>
      <trkpt lat="46.39399" lon="6.25548">
        <ele>388.4</ele>
        <time>2022-09-28T08:25:29Z</time>
      </trkpt>
      <trkpt lat="46.39402" lon="6.25552">
        <ele>388.4</ele>
        <time>2022-09-28T08:25:30Z</time>
      </trkpt>
      <trkpt lat="46.39405" lon="6.25555">
        <ele>388.4</ele>
        <time>2022-09-28T08:25:31Z</time>
      </trkpt>
      <trkpt lat="46.39408" lon="6.25559">
        <ele>388.5</ele>
        <time>2022-09-28T08:25:32Z</time>
      </trkpt>
      <trkpt lat="46.39412" lon="6.25564">
        <ele>388.5</ele>
        <time>2022-09-28T08:25:33Z</time>
      </trkpt>
      <trkpt lat="46.39415" lon="6.25568">
        <ele>388.5</ele>
        <time>2022-09-28T08:25:34Z</time>
      </trkpt>
      <trkpt lat="46.39418" lon="6.25572">
        <ele>388.5</ele>
        <time>2022-09-28T08:25:35Z</time>
      </trkpt>
      <trkpt lat="46.39422" lon="6.25576">
        <ele>388.5</ele>
        <time>2022-09-28T08:25:36Z</time>
      </trkpt>
      <trkpt lat="46.39426" lon="6.25582">
        <ele>388.5</ele>
        <time>2022-09-28T08:25:37Z</time>
      </trkpt>
      <trkpt lat="46.39431" lon="6.25588">
        <ele>388.5</ele>
        <time>2022-09-28T08:25:38Z</time>
      </trkpt>
      <trkpt lat="46.39433" lon="6.25592">
        <ele>388.5</ele>
        <time>2022-09-28T08:25:39Z</time>
      </trkpt>
      <trkpt lat="46.39434" lon="6.25598">
        <ele>388.5</ele>
        <time>2022-09-28T08:25:40Z</time>
      </trkpt>
      <trkpt lat="46.39435" lon="6.25602">
        <ele>388.2</ele>
        <time>2022-09-28T08:25:41Z</time>
      </trkpt>
      <trkpt lat="46.39434" lon="6.25606">
        <ele>388.1</ele>
        <time>2022-09-28T08:25:42Z</time>
      </trkpt>
      <trkpt lat="46.39433" lon="6.2561">
        <ele>388</ele>
        <time>2022-09-28T08:25:43Z</time>
      </trkpt>
      <trkpt lat="46.39432" lon="6.25614">
        <ele>387.9</ele>
        <time>2022-09-28T08:25:44Z</time>
      </trkpt>
      <trkpt lat="46.39429" lon="6.25617">
        <ele>387.7</ele>
        <time>2022-09-28T08:25:45Z</time>
      </trkpt>
      <trkpt lat="46.39426" lon="6.25622">
        <ele>387.5</ele>
        <time>2022-09-28T08:25:46Z</time>
      </trkpt>
      <trkpt lat="46.39423" lon="6.25628">
        <ele>387.2</ele>
        <time>2022-09-28T08:25:47Z</time>
      </trkpt>
      <trkpt lat="46.3942" lon="6.25633">
        <ele>386.9</ele>
        <time>2022-09-28T08:25:48Z</time>
      </trkpt>
      <trkpt lat="46.39416" lon="6.25639">
        <ele>386.7</ele>
        <time>2022-09-28T08:25:49Z</time>
      </trkpt>
      <trkpt lat="46.39413" lon="6.25644">
        <ele>386.4</ele>
        <time>2022-09-28T08:25:50Z</time>
      </trkpt>
      <trkpt lat="46.3941" lon="6.25649">
        <ele>386.2</ele>
        <time>2022-09-28T08:25:51Z</time>
      </trkpt>
      <trkpt lat="46.39408" lon="6.25653">
        <ele>386.1</ele>
        <time>2022-09-28T08:25:52Z</time>
      </trkpt>
      <trkpt lat="46.39406" lon="6.25656">
        <ele>386</ele>
        <time>2022-09-28T08:25:53Z</time>
      </trkpt>
      <trkpt lat="46.39402" lon="6.25658">
        <ele>385.8</ele>
        <time>2022-09-28T08:25:54Z</time>
      </trkpt>
      <trkpt lat="46.394" lon="6.25658">
        <ele>385.7</ele>
        <time>2022-09-28T08:25:55Z</time>
      </trkpt>
      <trkpt lat="46.39397" lon="6.25657">
        <ele>385.2</ele>
        <time>2022-09-28T08:25:56Z</time>
      </trkpt>
      <trkpt lat="46.39394" lon="6.25655">
        <ele>385.2</ele>
        <time>2022-09-28T08:25:57Z</time>
      </trkpt>
      <trkpt lat="46.39391" lon="6.25652">
        <ele>385.2</ele>
        <time>2022-09-28T08:25:58Z</time>
      </trkpt>
      <trkpt lat="46.39389" lon="6.25649">
        <ele>385.1</ele>
        <time>2022-09-28T08:25:59Z</time>
      </trkpt>
      <trkpt lat="46.39387" lon="6.25645">
        <ele>385.1</ele>
        <time>2022-09-28T08:26:00Z</time>
      </trkpt>
      <trkpt lat="46.39384" lon="6.25642">
        <ele>385.1</ele>
        <time>2022-09-28T08:26:01Z</time>
      </trkpt>
      <trkpt lat="46.39382" lon="6.25638">
        <ele>385</ele>
        <time>2022-09-28T08:26:02Z</time>
      </trkpt>
      <trkpt lat="46.3938" lon="6.25634">
        <ele>385</ele>
        <time>2022-09-28T08:26:03Z</time>
      </trkpt>
      <trkpt lat="46.39377" lon="6.25629">
        <ele>385</ele>
        <time>2022-09-28T08:26:04Z</time>
      </trkpt>
      <trkpt lat="46.39375" lon="6.25624">
        <ele>385</ele>
        <time>2022-09-28T08:26:05Z</time>
      </trkpt>
      <trkpt lat="46.39372" lon="6.25619">
        <ele>385</ele>
        <time>2022-09-28T08:26:06Z</time>
      </trkpt>
      <trkpt lat="46.39368" lon="6.25614">
        <ele>385</ele>
        <time>2022-09-28T08:26:07Z</time>
      </trkpt>
      <trkpt lat="46.39365" lon="6.25609">
        <ele>384.9</ele>
        <time>2022-09-28T08:26:08Z</time>
      </trkpt>
      <trkpt lat="46.39361" lon="6.25604">
        <ele>384.9</ele>
        <time>2022-09-28T08:26:09Z</time>
      </trkpt>
      <trkpt lat="46.39358" lon="6.25599">
        <ele>384.8</ele>
        <time>2022-09-28T08:26:10Z</time>
      </trkpt>
      <trkpt lat="46.39355" lon="6.25595">
        <ele>384.8</ele>
        <time>2022-09-28T08:26:11Z</time>
      </trkpt>
      <trkpt lat="46.39352" lon="6.2559">
        <ele>384.8</ele>
        <time>2022-09-28T08:26:12Z</time>
      </trkpt>
      <trkpt lat="46.39349" lon="6.25586">
        <ele>384.8</ele>
        <time>2022-09-28T08:26:13Z</time>
      </trkpt>
      <trkpt lat="46.39347" lon="6.25581">
        <ele>384.8</ele>
        <time>2022-09-28T08:26:14Z</time>
      </trkpt>
      <trkpt lat="46.39344" lon="6.25577">
        <ele>384.7</ele>
        <time>2022-09-28T08:26:15Z</time>
      </trkpt>
      <trkpt lat="46.39342" lon="6.25573">
        <ele>384.7</ele>
        <time>2022-09-28T08:26:16Z</time>
      </trkpt>
      <trkpt lat="46.3934" lon="6.25569">
        <ele>384.7</ele>
        <time>2022-09-28T08:26:17Z</time>
      </trkpt>
      <trkpt lat="46.39338" lon="6.25568">
        <ele>384.7</ele>
        <time>2022-09-28T08:26:18Z</time>
      </trkpt>
      <trkpt lat="46.39336" lon="6.25568">
        <ele>384.6</ele>
        <time>2022-09-28T08:26:19Z</time>
      </trkpt>
      <trkpt lat="46.39333" lon="6.2557">
        <ele>384.6</ele>
        <time>2022-09-28T08:26:20Z</time>
      </trkpt>
      <trkpt lat="46.39331" lon="6.25573">
        <ele>384.5</ele>
        <time>2022-09-28T08:26:21Z</time>
      </trkpt>
      <trkpt lat="46.39329" lon="6.25576">
        <ele>384.4</ele>
        <time>2022-09-28T08:26:22Z</time>
      </trkpt>
      <trkpt lat="46.39326" lon="6.2558">
        <ele>384.2</ele>
        <time>2022-09-28T08:26:23Z</time>
      </trkpt>
      <trkpt lat="46.39325" lon="6.25581">
        <ele>384.2</ele>
        <time>2022-09-28T08:26:24Z</time>
      </trkpt>
      <trkpt lat="46.39324" lon="6.25583">
        <ele>384.1</ele>
        <time>2022-09-28T08:26:25Z</time>
      </trkpt>
      <trkpt lat="46.39322" lon="6.25583">
        <ele>384</ele>
        <time>2022-09-28T08:26:26Z</time>
      </trkpt>
      <trkpt lat="46.3932" lon="6.25586">
        <ele>383.9</ele>
        <time>2022-09-28T08:26:27Z</time>
      </trkpt>
      <trkpt lat="46.39319" lon="6.25587">
        <ele>383.8</ele>
        <time>2022-09-28T08:26:28Z</time>
      </trkpt>
      <trkpt lat="46.39316" lon="6.25589">
        <ele>383.6</ele>
        <time>2022-09-28T08:26:29Z</time>
      </trkpt>
      <trkpt lat="46.39313" lon="6.25591">
        <ele>383.4</ele>
        <time>2022-09-28T08:26:30Z</time>
      </trkpt>
      <trkpt lat="46.39311" lon="6.25594">
        <ele>383.2</ele>
        <time>2022-09-28T08:26:31Z</time>
      </trkpt>
      <trkpt lat="46.39307" lon="6.25597">
        <ele>383</ele>
        <time>2022-09-28T08:26:32Z</time>
      </trkpt>
      <trkpt lat="46.39303" lon="6.25601">
        <ele>382.7</ele>
        <time>2022-09-28T08:26:33Z</time>
      </trkpt>
      <trkpt lat="46.39299" lon="6.25606">
        <ele>382.4</ele>
        <time>2022-09-28T08:26:34Z</time>
      </trkpt>
      <trkpt lat="46.39295" lon="6.25611">
        <ele>382.1</ele>
        <time>2022-09-28T08:26:35Z</time>
      </trkpt>
      <trkpt lat="46.39292" lon="6.25616">
        <ele>381.9</ele>
        <time>2022-09-28T08:26:36Z</time>
      </trkpt>
      <trkpt lat="46.39287" lon="6.25622">
        <ele>381.6</ele>
        <time>2022-09-28T08:26:37Z</time>
      </trkpt>
      <trkpt lat="46.39283" lon="6.25627">
        <ele>381.3</ele>
        <time>2022-09-28T08:26:38Z</time>
      </trkpt>
      <trkpt lat="46.39279" lon="6.25631">
        <ele>381.1</ele>
        <time>2022-09-28T08:26:39Z</time>
      </trkpt>
      <trkpt lat="46.39276" lon="6.25635">
        <ele>380.9</ele>
        <time>2022-09-28T08:26:40Z</time>
      </trkpt>
      <trkpt lat="46.39273" lon="6.25636">
        <ele>380.8</ele>
        <time>2022-09-28T08:26:41Z</time>
      </trkpt>
      <trkpt lat="46.3927" lon="6.25638">
        <ele>380.5</ele>
        <time>2022-09-28T08:26:42Z</time>
      </trkpt>
      <trkpt lat="46.39266" lon="6.2564">
        <ele>380.4</ele>
        <time>2022-09-28T08:26:43Z</time>
      </trkpt>
      <trkpt lat="46.39264" lon="6.25644">
        <ele>380.2</ele>
        <time>2022-09-28T08:26:44Z</time>
      </trkpt>
      <trkpt lat="46.3926" lon="6.25647">
        <ele>380</ele>
        <time>2022-09-28T08:26:45Z</time>
      </trkpt>
      <trkpt lat="46.39257" lon="6.2565">
        <ele>379.8</ele>
        <time>2022-09-28T08:26:46Z</time>
      </trkpt>
      <trkpt lat="46.39254" lon="6.25653">
        <ele>379.6</ele>
        <time>2022-09-28T08:26:47Z</time>
      </trkpt>
      <trkpt lat="46.3925" lon="6.25657">
        <ele>379.4</ele>
        <time>2022-09-28T08:26:48Z</time>
      </trkpt>
      <trkpt lat="46.39246" lon="6.25662">
        <ele>379.1</ele>
        <time>2022-09-28T08:26:49Z</time>
      </trkpt>
      <trkpt lat="46.39242" lon="6.25667">
        <ele>378.9</ele>
        <time>2022-09-28T08:26:50Z</time>
      </trkpt>
      <trkpt lat="46.39238" lon="6.2567">
        <ele>378.7</ele>
        <time>2022-09-28T08:26:51Z</time>
      </trkpt>
      <trkpt lat="46.39234" lon="6.25673">
        <ele>378.5</ele>
        <time>2022-09-28T08:26:52Z</time>
      </trkpt>
      <trkpt lat="46.3923" lon="6.25675">
        <ele>378.3</ele>
        <time>2022-09-28T08:26:53Z</time>
      </trkpt>
      <trkpt lat="46.39226" lon="6.25677">
        <ele>378.2</ele>
        <time>2022-09-28T08:26:54Z</time>
      </trkpt>
      <trkpt lat="46.39222" lon="6.25677">
        <ele>378.1</ele>
        <time>2022-09-28T08:26:55Z</time>
      </trkpt>
      <trkpt lat="46.39218" lon="6.25678">
        <ele>378</ele>
        <time>2022-09-28T08:26:56Z</time>
      </trkpt>
      <trkpt lat="46.39214" lon="6.25679">
        <ele>377.9</ele>
        <time>2022-09-28T08:26:57Z</time>
      </trkpt>
      <trkpt lat="46.3921" lon="6.2568">
        <ele>377.8</ele>
        <time>2022-09-28T08:26:58Z</time>
      </trkpt>
      <trkpt lat="46.39206" lon="6.2568">
        <ele>377.6</ele>
        <time>2022-09-28T08:26:59Z</time>
      </trkpt>
      <trkpt lat="46.39201" lon="6.2568">
        <ele>377.5</ele>
        <time>2022-09-28T08:27:00Z</time>
      </trkpt>
      <trkpt lat="46.39197" lon="6.25681">
        <ele>377.4</ele>
        <time>2022-09-28T08:27:01Z</time>
      </trkpt>
      <trkpt lat="46.39194" lon="6.25683">
        <ele>377.2</ele>
        <time>2022-09-28T08:27:02Z</time>
      </trkpt>
      <trkpt lat="46.39191" lon="6.25685">
        <ele>377.1</ele>
        <time>2022-09-28T08:27:03Z</time>
      </trkpt>
      <trkpt lat="46.3919" lon="6.25685">
        <ele>377.1</ele>
        <time>2022-09-28T08:27:04Z</time>
      </trkpt>
      <trkpt lat="46.39188" lon="6.25686">
        <ele>377</ele>
        <time>2022-09-28T08:27:05Z</time>
      </trkpt>
      <trkpt lat="46.39188" lon="6.25685">
        <ele>377</ele>
        <time>2022-09-28T08:27:06Z</time>
      </trkpt>
      <trkpt lat="46.39187" lon="6.25686">
        <ele>377</ele>
        <time>2022-09-28T08:27:07Z</time>
      </trkpt>
      <trkpt lat="46.39186" lon="6.25686">
        <ele>377</ele>
        <time>2022-09-28T08:27:08Z</time>
      </trkpt>
      <trkpt lat="46.39186" lon="6.25686">
        <ele>377</ele>
        <time>2022-09-28T08:27:09Z</time>
      </trkpt>
      <trkpt lat="46.39186" lon="6.25686">
        <ele>376.9</ele>
        <time>2022-09-28T08:27:10Z</time>
      </trkpt>
      <trkpt lat="46.39186" lon="6.25686">
        <ele>376.9</ele>
        <time>2022-09-28T08:27:11Z</time>
      </trkpt>
      <trkpt lat="46.39186" lon="6.25685">
        <ele>376.9</ele>
        <time>2022-09-28T08:27:12Z</time>
      </trkpt>
      <trkpt lat="46.39186" lon="6.25686">
        <ele>376.9</ele>
        <time>2022-09-28T08:27:13Z</time>
      </trkpt>
      <trkpt lat="46.39186" lon="6.25686">
        <ele>376.9</ele>
        <time>2022-09-28T08:27:14Z</time>
      </trkpt>
      <trkpt lat="46.39191" lon="6.25718">
        <ele>376.1</ele>
        <time>2022-09-28T08:30:54Z</time>
      </trkpt>
      <trkpt lat="46.3919" lon="6.25713">
        <ele>376</ele>
        <time>2022-09-28T08:30:55Z</time>
      </trkpt>
      <trkpt lat="46.39189" lon="6.25709">
        <ele>375.9</ele>
        <time>2022-09-28T08:30:56Z</time>
      </trkpt>
      <trkpt lat="46.39188" lon="6.25706">
        <ele>376</ele>
        <time>2022-09-28T08:30:57Z</time>
      </trkpt>
      <trkpt lat="46.39187" lon="6.25702">
        <ele>376.1</ele>
        <time>2022-09-28T08:30:58Z</time>
      </trkpt>
      <trkpt lat="46.39188" lon="6.25698">
        <ele>376.2</ele>
        <time>2022-09-28T08:30:59Z</time>
      </trkpt>
      <trkpt lat="46.3919" lon="6.25694">
        <ele>376.3</ele>
        <time>2022-09-28T08:31:00Z</time>
      </trkpt>
      <trkpt lat="46.39191" lon="6.25691">
        <ele>376.4</ele>
        <time>2022-09-28T08:31:01Z</time>
      </trkpt>
      <trkpt lat="46.39194" lon="6.25688">
        <ele>376.5</ele>
        <time>2022-09-28T08:31:02Z</time>
      </trkpt>
      <trkpt lat="46.39196" lon="6.25686">
        <ele>376.6</ele>
        <time>2022-09-28T08:31:03Z</time>
      </trkpt>
      <trkpt lat="46.39199" lon="6.25686">
        <ele>376.8</ele>
        <time>2022-09-28T08:31:04Z</time>
      </trkpt>
      <trkpt lat="46.392" lon="6.25686">
        <ele>376.8</ele>
        <time>2022-09-28T08:31:05Z</time>
      </trkpt>
      <trkpt lat="46.39203" lon="6.25686">
        <ele>377</ele>
        <time>2022-09-28T08:31:06Z</time>
      </trkpt>
      <trkpt lat="46.39204" lon="6.25686">
        <ele>377</ele>
        <time>2022-09-28T08:31:07Z</time>
      </trkpt>
      <trkpt lat="46.39207" lon="6.25687">
        <ele>377.1</ele>
        <time>2022-09-28T08:31:08Z</time>
      </trkpt>
      <trkpt lat="46.39208" lon="6.25687">
        <ele>377.2</ele>
        <time>2022-09-28T08:31:09Z</time>
      </trkpt>
      <trkpt lat="46.39211" lon="6.25687">
        <ele>377.3</ele>
        <time>2022-09-28T08:31:10Z</time>
      </trkpt>
      <trkpt lat="46.39212" lon="6.25687">
        <ele>377.3</ele>
        <time>2022-09-28T08:31:11Z</time>
      </trkpt>
      <trkpt lat="46.39215" lon="6.25686">
        <ele>377.4</ele>
        <time>2022-09-28T08:31:12Z</time>
      </trkpt>
      <trkpt lat="46.39215" lon="6.25686">
        <ele>377.5</ele>
        <time>2022-09-28T08:31:13Z</time>
      </trkpt>
      <trkpt lat="46.39219" lon="6.25684">
        <ele>377.6</ele>
        <time>2022-09-28T08:31:14Z</time>
      </trkpt>
      <trkpt lat="46.39219" lon="6.25684">
        <ele>377.6</ele>
        <time>2022-09-28T08:31:15Z</time>
      </trkpt>
      <trkpt lat="46.39221" lon="6.25682">
        <ele>377.7</ele>
        <time>2022-09-28T08:31:16Z</time>
      </trkpt>
      <trkpt lat="46.39222" lon="6.25681">
        <ele>377.8</ele>
        <time>2022-09-28T08:31:17Z</time>
      </trkpt>
      <trkpt lat="46.39225" lon="6.25679">
        <ele>377.8</ele>
        <time>2022-09-28T08:31:18Z</time>
      </trkpt>
      <trkpt lat="46.39226" lon="6.25678">
        <ele>377.9</ele>
        <time>2022-09-28T08:31:19Z</time>
      </trkpt>
      <trkpt lat="46.39229" lon="6.25676">
        <ele>378</ele>
        <time>2022-09-28T08:31:20Z</time>
      </trkpt>
      <trkpt lat="46.39229" lon="6.25675">
        <ele>378</ele>
        <time>2022-09-28T08:31:21Z</time>
      </trkpt>
      <trkpt lat="46.39232" lon="6.25673">
        <ele>378.1</ele>
        <time>2022-09-28T08:31:22Z</time>
      </trkpt>
      <trkpt lat="46.39234" lon="6.2567">
        <ele>378.2</ele>
        <time>2022-09-28T08:31:23Z</time>
      </trkpt>
      <trkpt lat="46.39237" lon="6.25668">
        <ele>378.3</ele>
        <time>2022-09-28T08:31:24Z</time>
      </trkpt>
      <trkpt lat="46.3924" lon="6.25665">
        <ele>378.5</ele>
        <time>2022-09-28T08:31:25Z</time>
      </trkpt>
      <trkpt lat="46.39244" lon="6.25664">
        <ele>378.7</ele>
        <time>2022-09-28T08:31:26Z</time>
      </trkpt>
      <trkpt lat="46.39245" lon="6.25663">
        <ele>378.7</ele>
        <time>2022-09-28T08:31:27Z</time>
      </trkpt>
      <trkpt lat="46.39249" lon="6.25663">
        <ele>378.9</ele>
        <time>2022-09-28T08:31:28Z</time>
      </trkpt>
      <trkpt lat="46.3925" lon="6.25662">
        <ele>379</ele>
        <time>2022-09-28T08:31:29Z</time>
      </trkpt>
      <trkpt lat="46.39254" lon="6.25661">
        <ele>379.2</ele>
        <time>2022-09-28T08:31:30Z</time>
      </trkpt>
      <trkpt lat="46.39255" lon="6.25661">
        <ele>379.3</ele>
        <time>2022-09-28T08:31:31Z</time>
      </trkpt>
      <trkpt lat="46.39258" lon="6.2566">
        <ele>379.5</ele>
        <time>2022-09-28T08:31:32Z</time>
      </trkpt>
      <trkpt lat="46.39258" lon="6.25659">
        <ele>379.5</ele>
        <time>2022-09-28T08:31:33Z</time>
      </trkpt>
      <trkpt lat="46.39261" lon="6.25657">
        <ele>379.7</ele>
        <time>2022-09-28T08:31:34Z</time>
      </trkpt>
      <trkpt lat="46.39262" lon="6.25657">
        <ele>379.8</ele>
        <time>2022-09-28T08:31:35Z</time>
      </trkpt>
      <trkpt lat="46.39263" lon="6.25654">
        <ele>379.9</ele>
        <time>2022-09-28T08:31:36Z</time>
      </trkpt>
      <trkpt lat="46.39264" lon="6.25653">
        <ele>380</ele>
        <time>2022-09-28T08:31:37Z</time>
      </trkpt>
      <trkpt lat="46.39267" lon="6.25651">
        <ele>380.2</ele>
        <time>2022-09-28T08:31:38Z</time>
      </trkpt>
      <trkpt lat="46.39268" lon="6.25651">
        <ele>380.2</ele>
        <time>2022-09-28T08:31:39Z</time>
      </trkpt>
      <trkpt lat="46.3927" lon="6.25648">
        <ele>380.4</ele>
        <time>2022-09-28T08:31:40Z</time>
      </trkpt>
      <trkpt lat="46.39271" lon="6.25647">
        <ele>380.5</ele>
        <time>2022-09-28T08:31:41Z</time>
      </trkpt>
      <trkpt lat="46.39274" lon="6.25645">
        <ele>380.6</ele>
        <time>2022-09-28T08:31:42Z</time>
      </trkpt>
      <trkpt lat="46.39275" lon="6.25645">
        <ele>380.7</ele>
        <time>2022-09-28T08:31:43Z</time>
      </trkpt>
      <trkpt lat="46.39276" lon="6.25644">
        <ele>380.7</ele>
        <time>2022-09-28T08:31:44Z</time>
      </trkpt>
      <trkpt lat="46.39278" lon="6.25642">
        <ele>380.8</ele>
        <time>2022-09-28T08:31:45Z</time>
      </trkpt>
      <trkpt lat="46.39284" lon="6.25635">
        <ele>381.2</ele>
        <time>2022-09-28T08:31:46Z</time>
      </trkpt>
      <trkpt lat="46.39289" lon="6.2563">
        <ele>381.5</ele>
        <time>2022-09-28T08:31:54Z</time>
      </trkpt>
      <trkpt lat="46.39293" lon="6.25624">
        <ele>381.8</ele>
        <time>2022-09-28T08:31:55Z</time>
      </trkpt>
      <trkpt lat="46.39296" lon="6.25621">
        <ele>382</ele>
        <time>2022-09-28T08:31:56Z</time>
      </trkpt>
      <trkpt lat="46.39296" lon="6.2562">
        <ele>382.1</ele>
        <time>2022-09-28T08:31:57Z</time>
      </trkpt>
      <trkpt lat="46.39299" lon="6.25618">
        <ele>382.2</ele>
        <time>2022-09-28T08:31:58Z</time>
      </trkpt>
      <trkpt lat="46.39299" lon="6.25617">
        <ele>382.3</ele>
        <time>2022-09-28T08:31:59Z</time>
      </trkpt>
      <trkpt lat="46.393" lon="6.25615">
        <ele>382.4</ele>
        <time>2022-09-28T08:32:00Z</time>
      </trkpt>
      <trkpt lat="46.39301" lon="6.25613">
        <ele>382.5</ele>
        <time>2022-09-28T08:32:01Z</time>
      </trkpt>
      <trkpt lat="46.39303" lon="6.2561">
        <ele>382.6</ele>
        <time>2022-09-28T08:32:02Z</time>
      </trkpt>
      <trkpt lat="46.39304" lon="6.25609">
        <ele>382.7</ele>
        <time>2022-09-28T08:32:03Z</time>
      </trkpt>
      <trkpt lat="46.39306" lon="6.25606">
        <ele>382.9</ele>
        <time>2022-09-28T08:32:04Z</time>
      </trkpt>
      <trkpt lat="46.39307" lon="6.25605">
        <ele>382.9</ele>
        <time>2022-09-28T08:32:05Z</time>
      </trkpt>
      <trkpt lat="46.39308" lon="6.25603">
        <ele>383.1</ele>
        <time>2022-09-28T08:32:06Z</time>
      </trkpt>
      <trkpt lat="46.39309" lon="6.25602">
        <ele>383.1</ele>
        <time>2022-09-28T08:32:07Z</time>
      </trkpt>
      <trkpt lat="46.3931" lon="6.256">
        <ele>383.2</ele>
        <time>2022-09-28T08:32:08Z</time>
      </trkpt>
      <trkpt lat="46.39311" lon="6.25599">
        <ele>383.3</ele>
        <time>2022-09-28T08:32:09Z</time>
      </trkpt>
      <trkpt lat="46.39314" lon="6.25596">
        <ele>383.5</ele>
        <time>2022-09-28T08:32:10Z</time>
      </trkpt>
      <trkpt lat="46.39315" lon="6.25594">
        <ele>383.6</ele>
        <time>2022-09-28T08:32:11Z</time>
      </trkpt>
      <trkpt lat="46.39317" lon="6.25591">
        <ele>383.8</ele>
        <time>2022-09-28T08:32:12Z</time>
      </trkpt>
      <trkpt lat="46.39317" lon="6.2559">
        <ele>383.9</ele>
        <time>2022-09-28T08:32:13Z</time>
      </trkpt>
      <trkpt lat="46.39318" lon="6.25588">
        <ele>384</ele>
        <time>2022-09-28T08:32:14Z</time>
      </trkpt>
      <trkpt lat="46.39319" lon="6.25586">
        <ele>384.1</ele>
        <time>2022-09-28T08:32:15Z</time>
      </trkpt>
      <trkpt lat="46.39321" lon="6.25583">
        <ele>384.2</ele>
        <time>2022-09-28T08:32:16Z</time>
      </trkpt>
      <trkpt lat="46.39322" lon="6.25582">
        <ele>384.2</ele>
        <time>2022-09-28T08:32:17Z</time>
      </trkpt>
      <trkpt lat="46.39323" lon="6.25581">
        <ele>384.3</ele>
        <time>2022-09-28T08:32:18Z</time>
      </trkpt>
      <trkpt lat="46.39325" lon="6.2558">
        <ele>384.4</ele>
        <time>2022-09-28T08:32:19Z</time>
      </trkpt>
      <trkpt lat="46.39327" lon="6.25579">
        <ele>384.5</ele>
        <time>2022-09-28T08:32:20Z</time>
      </trkpt>
      <trkpt lat="46.39328" lon="6.25579">
        <ele>384.5</ele>
        <time>2022-09-28T08:32:21Z</time>
      </trkpt>
      <trkpt lat="46.39329" lon="6.25579">
        <ele>384.5</ele>
        <time>2022-09-28T08:32:22Z</time>
      </trkpt>
      <trkpt lat="46.39331" lon="6.2558">
        <ele>384.6</ele>
        <time>2022-09-28T08:32:23Z</time>
      </trkpt>
      <trkpt lat="46.39332" lon="6.25581">
        <ele>384.6</ele>
        <time>2022-09-28T08:32:24Z</time>
      </trkpt>
      <trkpt lat="46.39335" lon="6.25584">
        <ele>384.7</ele>
        <time>2022-09-28T08:32:25Z</time>
      </trkpt>
      <trkpt lat="46.39336" lon="6.25585">
        <ele>384.7</ele>
        <time>2022-09-28T08:32:26Z</time>
      </trkpt>
      <trkpt lat="46.39338" lon="6.25589">
        <ele>384.7</ele>
        <time>2022-09-28T08:32:27Z</time>
      </trkpt>
      <trkpt lat="46.3934" lon="6.25593">
        <ele>384.7</ele>
        <time>2022-09-28T08:32:28Z</time>
      </trkpt>
      <trkpt lat="46.39343" lon="6.25596">
        <ele>384.8</ele>
        <time>2022-09-28T08:32:29Z</time>
      </trkpt>
      <trkpt lat="46.39345" lon="6.25599">
        <ele>384.8</ele>
        <time>2022-09-28T08:32:30Z</time>
      </trkpt>
      <trkpt lat="46.39347" lon="6.25602">
        <ele>384.8</ele>
        <time>2022-09-28T08:32:31Z</time>
      </trkpt>
      <trkpt lat="46.3935" lon="6.25605">
        <ele>384.8</ele>
        <time>2022-09-28T08:32:32Z</time>
      </trkpt>
      <trkpt lat="46.39352" lon="6.25609">
        <ele>384.9</ele>
        <time>2022-09-28T08:32:33Z</time>
      </trkpt>
      <trkpt lat="46.39355" lon="6.25613">
        <ele>384.9</ele>
        <time>2022-09-28T08:32:34Z</time>
      </trkpt>
      <trkpt lat="46.39357" lon="6.25617">
        <ele>384.9</ele>
        <time>2022-09-28T08:32:35Z</time>
      </trkpt>
      <trkpt lat="46.3936" lon="6.2562">
        <ele>384.9</ele>
        <time>2022-09-28T08:32:36Z</time>
      </trkpt>
      <trkpt lat="46.39362" lon="6.25624">
        <ele>385</ele>
        <time>2022-09-28T08:32:37Z</time>
      </trkpt>
      <trkpt lat="46.39365" lon="6.25628">
        <ele>385</ele>
        <time>2022-09-28T08:32:38Z</time>
      </trkpt>
      <trkpt lat="46.39368" lon="6.25631">
        <ele>385</ele>
        <time>2022-09-28T08:32:39Z</time>
      </trkpt>
      <trkpt lat="46.39371" lon="6.25635">
        <ele>385</ele>
        <time>2022-09-28T08:32:40Z</time>
      </trkpt>
      <trkpt lat="46.39374" lon="6.25639">
        <ele>385</ele>
        <time>2022-09-28T08:32:41Z</time>
      </trkpt>
      <trkpt lat="46.39376" lon="6.25643">
        <ele>385</ele>
        <time>2022-09-28T08:32:42Z</time>
      </trkpt>
      <trkpt lat="46.39379" lon="6.25647">
        <ele>385.1</ele>
        <time>2022-09-28T08:32:43Z</time>
      </trkpt>
      <trkpt lat="46.39382" lon="6.25651">
        <ele>385.1</ele>
        <time>2022-09-28T08:32:44Z</time>
      </trkpt>
      <trkpt lat="46.39384" lon="6.25654">
        <ele>385.1</ele>
        <time>2022-09-28T08:32:45Z</time>
      </trkpt>
      <trkpt lat="46.39386" lon="6.25657">
        <ele>385.1</ele>
        <time>2022-09-28T08:32:46Z</time>
      </trkpt>
      <trkpt lat="46.39388" lon="6.2566">
        <ele>385.2</ele>
        <time>2022-09-28T08:32:47Z</time>
      </trkpt>
      <trkpt lat="46.3939" lon="6.25663">
        <ele>385.2</ele>
        <time>2022-09-28T08:32:48Z</time>
      </trkpt>
      <trkpt lat="46.39392" lon="6.25666">
        <ele>385.3</ele>
        <time>2022-09-28T08:32:49Z</time>
      </trkpt>
      <trkpt lat="46.39393" lon="6.25667">
        <ele>385.3</ele>
        <time>2022-09-28T08:32:50Z</time>
      </trkpt>
      <trkpt lat="46.39395" lon="6.2567">
        <ele>385.3</ele>
        <time>2022-09-28T08:32:51Z</time>
      </trkpt>
      <trkpt lat="46.39397" lon="6.25671">
        <ele>385.3</ele>
        <time>2022-09-28T08:32:52Z</time>
      </trkpt>
      <trkpt lat="46.394" lon="6.25669">
        <ele>385.5</ele>
        <time>2022-09-28T08:32:53Z</time>
      </trkpt>
      <trkpt lat="46.39402" lon="6.25669">
        <ele>385.5</ele>
        <time>2022-09-28T08:32:54Z</time>
      </trkpt>
      <trkpt lat="46.39404" lon="6.25665">
        <ele>385.7</ele>
        <time>2022-09-28T08:32:55Z</time>
      </trkpt>
      <trkpt lat="46.39406" lon="6.25662">
        <ele>385.8</ele>
        <time>2022-09-28T08:32:56Z</time>
      </trkpt>
      <trkpt lat="46.39409" lon="6.25659">
        <ele>386</ele>
        <time>2022-09-28T08:32:57Z</time>
      </trkpt>
      <trkpt lat="46.39411" lon="6.25657">
        <ele>386.1</ele>
        <time>2022-09-28T08:32:58Z</time>
      </trkpt>
      <trkpt lat="46.39414" lon="6.25654">
        <ele>386.2</ele>
        <time>2022-09-28T08:32:59Z</time>
      </trkpt>
      <trkpt lat="46.39415" lon="6.25652">
        <ele>386.3</ele>
        <time>2022-09-28T08:33:00Z</time>
      </trkpt>
      <trkpt lat="46.39418" lon="6.25648">
        <ele>386.5</ele>
        <time>2022-09-28T08:33:01Z</time>
      </trkpt>
      <trkpt lat="46.39418" lon="6.25647">
        <ele>386.5</ele>
        <time>2022-09-28T08:33:02Z</time>
      </trkpt>
      <trkpt lat="46.39421" lon="6.25644">
        <ele>386.7</ele>
        <time>2022-09-28T08:33:03Z</time>
      </trkpt>
      <trkpt lat="46.39422" lon="6.25643">
        <ele>386.7</ele>
        <time>2022-09-28T08:33:04Z</time>
      </trkpt>
      <trkpt lat="46.39424" lon="6.25639">
        <ele>386.9</ele>
        <time>2022-09-28T08:33:05Z</time>
      </trkpt>
      <trkpt lat="46.39425" lon="6.25638">
        <ele>387</ele>
        <time>2022-09-28T08:33:06Z</time>
      </trkpt>
      <trkpt lat="46.39428" lon="6.25635">
        <ele>387.1</ele>
        <time>2022-09-28T08:33:07Z</time>
      </trkpt>
      <trkpt lat="46.39429" lon="6.25634">
        <ele>387.2</ele>
        <time>2022-09-28T08:33:08Z</time>
      </trkpt>
      <trkpt lat="46.39431" lon="6.25631">
        <ele>387.4</ele>
        <time>2022-09-28T08:33:09Z</time>
      </trkpt>
      <trkpt lat="46.39432" lon="6.2563">
        <ele>387.4</ele>
        <time>2022-09-28T08:33:10Z</time>
      </trkpt>
      <trkpt lat="46.39434" lon="6.25627">
        <ele>387.6</ele>
        <time>2022-09-28T08:33:11Z</time>
      </trkpt>
      <trkpt lat="46.39434" lon="6.25626">
        <ele>387.6</ele>
        <time>2022-09-28T08:33:12Z</time>
      </trkpt>
      <trkpt lat="46.39435" lon="6.25624">
        <ele>387.7</ele>
        <time>2022-09-28T08:33:13Z</time>
      </trkpt>
      <trkpt lat="46.39437" lon="6.25623">
        <ele>387.8</ele>
        <time>2022-09-28T08:33:14Z</time>
      </trkpt>
      <trkpt lat="46.39439" lon="6.2562">
        <ele>387.9</ele>
        <time>2022-09-28T08:33:15Z</time>
      </trkpt>
      <trkpt lat="46.3944" lon="6.2562">
        <ele>388</ele>
        <time>2022-09-28T08:33:16Z</time>
      </trkpt>
      <trkpt lat="46.39441" lon="6.2562">
        <ele>388</ele>
        <time>2022-09-28T08:33:17Z</time>
      </trkpt>
      <trkpt lat="46.39442" lon="6.25619">
        <ele>388.1</ele>
        <time>2022-09-28T08:33:18Z</time>
      </trkpt>
      <trkpt lat="46.39443" lon="6.25618">
        <ele>388.1</ele>
        <time>2022-09-28T08:33:19Z</time>
      </trkpt>
      <trkpt lat="46.39445" lon="6.25618">
        <ele>388.2</ele>
        <time>2022-09-28T08:33:20Z</time>
      </trkpt>
      <trkpt lat="46.39446" lon="6.25619">
        <ele>388.4</ele>
        <time>2022-09-28T08:33:21Z</time>
      </trkpt>
      <trkpt lat="46.39447" lon="6.25619">
        <ele>388.4</ele>
        <time>2022-09-28T08:33:22Z</time>
      </trkpt>
      <trkpt lat="46.39448" lon="6.2562">
        <ele>388.4</ele>
        <time>2022-09-28T08:33:23Z</time>
      </trkpt>
      <trkpt lat="46.3945" lon="6.25621">
        <ele>388.4</ele>
        <time>2022-09-28T08:33:24Z</time>
      </trkpt>
      <trkpt lat="46.39451" lon="6.25622">
        <ele>388.4</ele>
        <time>2022-09-28T08:33:25Z</time>
      </trkpt>
      <trkpt lat="46.39452" lon="6.25622">
        <ele>388.4</ele>
        <time>2022-09-28T08:33:26Z</time>
      </trkpt>
      <trkpt lat="46.39453" lon="6.25623">
        <ele>388.4</ele>
        <time>2022-09-28T08:33:33Z</time>
      </trkpt>
      <trkpt lat="46.39454" lon="6.25624">
        <ele>388.4</ele>
        <time>2022-09-28T08:33:34Z</time>
      </trkpt>
      <trkpt lat="46.39457" lon="6.25627">
        <ele>388.4</ele>
        <time>2022-09-28T08:33:35Z</time>
      </trkpt>
      <trkpt lat="46.39457" lon="6.25629">
        <ele>388.4</ele>
        <time>2022-09-28T08:33:36Z</time>
      </trkpt>
      <trkpt lat="46.3946" lon="6.25633">
        <ele>388.3</ele>
        <time>2022-09-28T08:33:37Z</time>
      </trkpt>
      <trkpt lat="46.39461" lon="6.25634">
        <ele>388.3</ele>
        <time>2022-09-28T08:33:38Z</time>
      </trkpt>
      <trkpt lat="46.39463" lon="6.25636">
        <ele>388.3</ele>
        <time>2022-09-28T08:33:39Z</time>
      </trkpt>
      <trkpt lat="46.39466" lon="6.2564">
        <ele>388.3</ele>
        <time>2022-09-28T08:33:40Z</time>
      </trkpt>
      <trkpt lat="46.39469" lon="6.25643">
        <ele>388.3</ele>
        <time>2022-09-28T08:33:41Z</time>
      </trkpt>
      <trkpt lat="46.39471" lon="6.25646">
        <ele>388.3</ele>
        <time>2022-09-28T08:33:42Z</time>
      </trkpt>
      <trkpt lat="46.39474" lon="6.25648">
        <ele>388.3</ele>
        <time>2022-09-28T08:33:43Z</time>
      </trkpt>
      <trkpt lat="46.39477" lon="6.25651">
        <ele>388.2</ele>
        <time>2022-09-28T08:33:44Z</time>
      </trkpt>
      <trkpt lat="46.39479" lon="6.25655">
        <ele>388.2</ele>
        <time>2022-09-28T08:33:45Z</time>
      </trkpt>
      <trkpt lat="46.39482" lon="6.25658">
        <ele>388.2</ele>
        <time>2022-09-28T08:33:46Z</time>
      </trkpt>
      <trkpt lat="46.39485" lon="6.25662">
        <ele>388.2</ele>
        <time>2022-09-28T08:33:47Z</time>
      </trkpt>
      <trkpt lat="46.39488" lon="6.25665">
        <ele>388.2</ele>
        <time>2022-09-28T08:33:48Z</time>
      </trkpt>
      <trkpt lat="46.39491" lon="6.25669">
        <ele>388.2</ele>
        <time>2022-09-28T08:33:49Z</time>
      </trkpt>
      <trkpt lat="46.39494" lon="6.25673">
        <ele>388.2</ele>
        <time>2022-09-28T08:33:50Z</time>
      </trkpt>
      <trkpt lat="46.39497" lon="6.25676">
        <ele>388.2</ele>
        <time>2022-09-28T08:33:51Z</time>
      </trkpt>
      <trkpt lat="46.395" lon="6.2568">
        <ele>388.2</ele>
        <time>2022-09-28T08:33:52Z</time>
      </trkpt>
      <trkpt lat="46.39503" lon="6.25684">
        <ele>388.2</ele>
        <time>2022-09-28T08:33:53Z</time>
      </trkpt>
      <trkpt lat="46.39506" lon="6.25688">
        <ele>388.2</ele>
        <time>2022-09-28T08:33:54Z</time>
      </trkpt>
      <trkpt lat="46.39509" lon="6.25692">
        <ele>388.2</ele>
        <time>2022-09-28T08:33:55Z</time>
      </trkpt>
      <trkpt lat="46.39512" lon="6.25695">
        <ele>388.2</ele>
        <time>2022-09-28T08:33:56Z</time>
      </trkpt>
      <trkpt lat="46.39515" lon="6.25699">
        <ele>388.2</ele>
        <time>2022-09-28T08:33:57Z</time>
      </trkpt>
      <trkpt lat="46.39518" lon="6.25703">
        <ele>388.2</ele>
        <time>2022-09-28T08:33:58Z</time>
      </trkpt>
      <trkpt lat="46.39522" lon="6.25707">
        <ele>388.2</ele>
        <time>2022-09-28T08:33:59Z</time>
      </trkpt>
      <trkpt lat="46.39525" lon="6.2571">
        <ele>388.3</ele>
        <time>2022-09-28T08:34:00Z</time>
      </trkpt>
      <trkpt lat="46.39528" lon="6.25714">
        <ele>388.3</ele>
        <time>2022-09-28T08:34:01Z</time>
      </trkpt>
      <trkpt lat="46.39531" lon="6.25717">
        <ele>388.3</ele>
        <time>2022-09-28T08:34:02Z</time>
      </trkpt>
      <trkpt lat="46.39534" lon="6.25721">
        <ele>388.3</ele>
        <time>2022-09-28T08:34:03Z</time>
      </trkpt>
      <trkpt lat="46.39537" lon="6.25725">
        <ele>388.3</ele>
        <time>2022-09-28T08:34:04Z</time>
      </trkpt>
      <trkpt lat="46.3954" lon="6.25729">
        <ele>388.3</ele>
        <time>2022-09-28T08:34:05Z</time>
      </trkpt>
      <trkpt lat="46.39543" lon="6.25733">
        <ele>388.3</ele>
        <time>2022-09-28T08:34:06Z</time>
      </trkpt>
      <trkpt lat="46.39546" lon="6.25737">
        <ele>388.4</ele>
        <time>2022-09-28T08:34:07Z</time>
      </trkpt>
      <trkpt lat="46.39549" lon="6.25741">
        <ele>388.4</ele>
        <time>2022-09-28T08:34:08Z</time>
      </trkpt>
      <trkpt lat="46.39553" lon="6.25746">
        <ele>388.4</ele>
        <time>2022-09-28T08:34:09Z</time>
      </trkpt>
      <trkpt lat="46.39556" lon="6.2575">
        <ele>388.4</ele>
        <time>2022-09-28T08:34:10Z</time>
      </trkpt>
      <trkpt lat="46.3956" lon="6.25754">
        <ele>388.5</ele>
        <time>2022-09-28T08:34:11Z</time>
      </trkpt>
      <trkpt lat="46.39563" lon="6.25758">
        <ele>388.5</ele>
        <time>2022-09-28T08:34:12Z</time>
      </trkpt>
      <trkpt lat="46.39566" lon="6.25762">
        <ele>388.6</ele>
        <time>2022-09-28T08:34:13Z</time>
      </trkpt>
      <trkpt lat="46.39569" lon="6.25766">
        <ele>388.6</ele>
        <time>2022-09-28T08:34:14Z</time>
      </trkpt>
      <trkpt lat="46.39573" lon="6.2577">
        <ele>388.7</ele>
        <time>2022-09-28T08:34:15Z</time>
      </trkpt>
      <trkpt lat="46.39576" lon="6.25774">
        <ele>388.7</ele>
        <time>2022-09-28T08:34:16Z</time>
      </trkpt>
      <trkpt lat="46.3958" lon="6.25778">
        <ele>388.8</ele>
        <time>2022-09-28T08:34:17Z</time>
      </trkpt>
      <trkpt lat="46.39583" lon="6.25783">
        <ele>388.8</ele>
        <time>2022-09-28T08:34:18Z</time>
      </trkpt>
      <trkpt lat="46.39586" lon="6.25787">
        <ele>388.9</ele>
        <time>2022-09-28T08:34:19Z</time>
      </trkpt>
      <trkpt lat="46.3959" lon="6.25791">
        <ele>388.9</ele>
        <time>2022-09-28T08:34:20Z</time>
      </trkpt>
      <trkpt lat="46.39593" lon="6.25795">
        <ele>389</ele>
        <time>2022-09-28T08:34:21Z</time>
      </trkpt>
      <trkpt lat="46.39596" lon="6.25799">
        <ele>389.1</ele>
        <time>2022-09-28T08:34:22Z</time>
      </trkpt>
      <trkpt lat="46.39599" lon="6.25803">
        <ele>389.2</ele>
        <time>2022-09-28T08:34:23Z</time>
      </trkpt>
      <trkpt lat="46.39602" lon="6.25806">
        <ele>389.3</ele>
        <time>2022-09-28T08:34:24Z</time>
      </trkpt>
      <trkpt lat="46.39605" lon="6.2581">
        <ele>389.4</ele>
        <time>2022-09-28T08:34:25Z</time>
      </trkpt>
      <trkpt lat="46.39608" lon="6.25814">
        <ele>389.5</ele>
        <time>2022-09-28T08:34:26Z</time>
      </trkpt>
      <trkpt lat="46.39611" lon="6.25817">
        <ele>389.6</ele>
        <time>2022-09-28T08:34:27Z</time>
      </trkpt>
      <trkpt lat="46.39614" lon="6.25821">
        <ele>389.7</ele>
        <time>2022-09-28T08:34:28Z</time>
      </trkpt>
      <trkpt lat="46.39616" lon="6.25824">
        <ele>389.9</ele>
        <time>2022-09-28T08:34:29Z</time>
      </trkpt>
      <trkpt lat="46.39619" lon="6.25828">
        <ele>390</ele>
        <time>2022-09-28T08:34:30Z</time>
      </trkpt>
      <trkpt lat="46.39622" lon="6.25831">
        <ele>390.1</ele>
        <time>2022-09-28T08:34:31Z</time>
      </trkpt>
      <trkpt lat="46.39624" lon="6.25834">
        <ele>390.2</ele>
        <time>2022-09-28T08:34:32Z</time>
      </trkpt>
      <trkpt lat="46.39627" lon="6.25838">
        <ele>390.4</ele>
        <time>2022-09-28T08:34:33Z</time>
      </trkpt>
      <trkpt lat="46.39629" lon="6.25841">
        <ele>390.5</ele>
        <time>2022-09-28T08:34:34Z</time>
      </trkpt>
      <trkpt lat="46.39632" lon="6.25844">
        <ele>390.7</ele>
        <time>2022-09-28T08:34:35Z</time>
      </trkpt>
      <trkpt lat="46.39634" lon="6.25847">
        <ele>390.8</ele>
        <time>2022-09-28T08:34:36Z</time>
      </trkpt>
      <trkpt lat="46.39636" lon="6.25851">
        <ele>390.9</ele>
        <time>2022-09-28T08:34:37Z</time>
      </trkpt>
      <trkpt lat="46.39638" lon="6.25854">
        <ele>391.1</ele>
        <time>2022-09-28T08:34:38Z</time>
      </trkpt>
      <trkpt lat="46.39641" lon="6.25857">
        <ele>391.2</ele>
        <time>2022-09-28T08:34:39Z</time>
      </trkpt>
      <trkpt lat="46.39643" lon="6.2586">
        <ele>391.4</ele>
        <time>2022-09-28T08:34:40Z</time>
      </trkpt>
      <trkpt lat="46.39646" lon="6.25864">
        <ele>391.6</ele>
        <time>2022-09-28T08:34:41Z</time>
      </trkpt>
      <trkpt lat="46.39647" lon="6.25865">
        <ele>391.6</ele>
        <time>2022-09-28T08:34:42Z</time>
      </trkpt>
      <trkpt lat="46.3965" lon="6.25869">
        <ele>391.8</ele>
        <time>2022-09-28T08:34:43Z</time>
      </trkpt>
      <trkpt lat="46.39651" lon="6.2587">
        <ele>391.9</ele>
        <time>2022-09-28T08:34:44Z</time>
      </trkpt>
      <trkpt lat="46.39654" lon="6.25873">
        <ele>392.1</ele>
        <time>2022-09-28T08:34:45Z</time>
      </trkpt>
      <trkpt lat="46.39655" lon="6.25875">
        <ele>392.2</ele>
        <time>2022-09-28T08:34:46Z</time>
      </trkpt>
      <trkpt lat="46.39658" lon="6.25878">
        <ele>392.4</ele>
        <time>2022-09-28T08:34:47Z</time>
      </trkpt>
      <trkpt lat="46.39658" lon="6.2588">
        <ele>392.5</ele>
        <time>2022-09-28T08:34:48Z</time>
      </trkpt>
      <trkpt lat="46.39661" lon="6.25883">
        <ele>392.7</ele>
        <time>2022-09-28T08:34:49Z</time>
      </trkpt>
      <trkpt lat="46.39662" lon="6.25884">
        <ele>392.8</ele>
        <time>2022-09-28T08:34:50Z</time>
      </trkpt>
      <trkpt lat="46.39665" lon="6.25887">
        <ele>393</ele>
        <time>2022-09-28T08:34:51Z</time>
      </trkpt>
      <trkpt lat="46.39666" lon="6.25888">
        <ele>393.1</ele>
        <time>2022-09-28T08:34:52Z</time>
      </trkpt>
      <trkpt lat="46.39668" lon="6.25891">
        <ele>393.3</ele>
        <time>2022-09-28T08:34:53Z</time>
      </trkpt>
      <trkpt lat="46.39669" lon="6.25892">
        <ele>393.3</ele>
        <time>2022-09-28T08:34:54Z</time>
      </trkpt>
      <trkpt lat="46.39671" lon="6.25895">
        <ele>393.5</ele>
        <time>2022-09-28T08:34:55Z</time>
      </trkpt>
      <trkpt lat="46.39672" lon="6.25896">
        <ele>393.6</ele>
        <time>2022-09-28T08:34:56Z</time>
      </trkpt>
      <trkpt lat="46.39674" lon="6.25898">
        <ele>393.8</ele>
        <time>2022-09-28T08:34:57Z</time>
      </trkpt>
      <trkpt lat="46.39675" lon="6.25899">
        <ele>393.8</ele>
        <time>2022-09-28T08:34:58Z</time>
      </trkpt>
      <trkpt lat="46.39677" lon="6.25902">
        <ele>394</ele>
        <time>2022-09-28T08:34:59Z</time>
      </trkpt>
      <trkpt lat="46.39678" lon="6.25902">
        <ele>394.1</ele>
        <time>2022-09-28T08:35:00Z</time>
      </trkpt>
      <trkpt lat="46.3968" lon="6.25904">
        <ele>394.2</ele>
        <time>2022-09-28T08:35:01Z</time>
      </trkpt>
      <trkpt lat="46.39681" lon="6.25906">
        <ele>394.3</ele>
        <time>2022-09-28T08:35:02Z</time>
      </trkpt>
      <trkpt lat="46.39682" lon="6.25908">
        <ele>394.5</ele>
        <time>2022-09-28T08:35:03Z</time>
      </trkpt>
      <trkpt lat="46.39683" lon="6.25909">
        <ele>394.6</ele>
        <time>2022-09-28T08:35:04Z</time>
      </trkpt>
      <trkpt lat="46.39686" lon="6.25912">
        <ele>394.8</ele>
        <time>2022-09-28T08:35:05Z</time>
      </trkpt>
      <trkpt lat="46.39686" lon="6.25913">
        <ele>394.9</ele>
        <time>2022-09-28T08:35:06Z</time>
      </trkpt>
      <trkpt lat="46.39687" lon="6.25914">
        <ele>395</ele>
        <time>2022-09-28T08:35:07Z</time>
      </trkpt>
      <trkpt lat="46.39688" lon="6.25916">
        <ele>395.1</ele>
        <time>2022-09-28T08:35:08Z</time>
      </trkpt>
      <trkpt lat="46.39689" lon="6.25918">
        <ele>395.2</ele>
        <time>2022-09-28T08:35:09Z</time>
      </trkpt>
      <trkpt lat="46.39691" lon="6.25919">
        <ele>395.3</ele>
        <time>2022-09-28T08:35:10Z</time>
      </trkpt>
      <trkpt lat="46.39693" lon="6.25922">
        <ele>395.5</ele>
        <time>2022-09-28T08:35:11Z</time>
      </trkpt>
      <trkpt lat="46.39694" lon="6.25923">
        <ele>395.6</ele>
        <time>2022-09-28T08:35:12Z</time>
      </trkpt>
      <trkpt lat="46.39696" lon="6.25926">
        <ele>395.9</ele>
        <time>2022-09-28T08:35:13Z</time>
      </trkpt>
      <trkpt lat="46.39697" lon="6.25927">
        <ele>395.9</ele>
        <time>2022-09-28T08:35:14Z</time>
      </trkpt>
      <trkpt lat="46.39699" lon="6.2593">
        <ele>396.1</ele>
        <time>2022-09-28T08:35:15Z</time>
      </trkpt>
      <trkpt lat="46.397" lon="6.25931">
        <ele>396.2</ele>
        <time>2022-09-28T08:35:16Z</time>
      </trkpt>
      <trkpt lat="46.39702" lon="6.25934">
        <ele>396.4</ele>
        <time>2022-09-28T08:35:17Z</time>
      </trkpt>
      <trkpt lat="46.39703" lon="6.25934">
        <ele>396.5</ele>
        <time>2022-09-28T08:35:18Z</time>
      </trkpt>
      <trkpt lat="46.39705" lon="6.25937">
        <ele>396.7</ele>
        <time>2022-09-28T08:35:19Z</time>
      </trkpt>
      <trkpt lat="46.39706" lon="6.25938">
        <ele>396.8</ele>
        <time>2022-09-28T08:35:20Z</time>
      </trkpt>
      <trkpt lat="46.39708" lon="6.25941">
        <ele>397</ele>
        <time>2022-09-28T08:35:21Z</time>
      </trkpt>
      <trkpt lat="46.39709" lon="6.25942">
        <ele>397</ele>
        <time>2022-09-28T08:35:22Z</time>
      </trkpt>
      <trkpt lat="46.39712" lon="6.25945">
        <ele>397.3</ele>
        <time>2022-09-28T08:35:23Z</time>
      </trkpt>
      <trkpt lat="46.39713" lon="6.25947">
        <ele>397.4</ele>
        <time>2022-09-28T08:35:24Z</time>
      </trkpt>
      <trkpt lat="46.39715" lon="6.2595">
        <ele>397.6</ele>
        <time>2022-09-28T08:35:25Z</time>
      </trkpt>
      <trkpt lat="46.39716" lon="6.25951">
        <ele>397.6</ele>
        <time>2022-09-28T08:35:26Z</time>
      </trkpt>
      <trkpt lat="46.39718" lon="6.25954">
        <ele>397.8</ele>
        <time>2022-09-28T08:35:27Z</time>
      </trkpt>
      <trkpt lat="46.39719" lon="6.25955">
        <ele>397.9</ele>
        <time>2022-09-28T08:35:28Z</time>
      </trkpt>
      <trkpt lat="46.3972" lon="6.25956">
        <ele>398</ele>
        <time>2022-09-28T08:35:29Z</time>
      </trkpt>
      <trkpt lat="46.39721" lon="6.25958">
        <ele>398.1</ele>
        <time>2022-09-28T08:35:30Z</time>
      </trkpt>
      <trkpt lat="46.39723" lon="6.25961">
        <ele>398.3</ele>
        <time>2022-09-28T08:35:31Z</time>
      </trkpt>
      <trkpt lat="46.39724" lon="6.25961">
        <ele>398.4</ele>
        <time>2022-09-28T08:35:32Z</time>
      </trkpt>
      <trkpt lat="46.39726" lon="6.25965">
        <ele>398.5</ele>
        <time>2022-09-28T08:35:33Z</time>
      </trkpt>
      <trkpt lat="46.39727" lon="6.25965">
        <ele>398.6</ele>
        <time>2022-09-28T08:35:34Z</time>
      </trkpt>
      <trkpt lat="46.39729" lon="6.25968">
        <ele>398.8</ele>
        <time>2022-09-28T08:35:35Z</time>
      </trkpt>
      <trkpt lat="46.3973" lon="6.25969">
        <ele>398.8</ele>
        <time>2022-09-28T08:35:36Z</time>
      </trkpt>
      <trkpt lat="46.39732" lon="6.25972">
        <ele>398.9</ele>
        <time>2022-09-28T08:35:37Z</time>
      </trkpt>
      <trkpt lat="46.39733" lon="6.25973">
        <ele>398.9</ele>
        <time>2022-09-28T08:35:38Z</time>
      </trkpt>
      <trkpt lat="46.39735" lon="6.25976">
        <ele>399</ele>
        <time>2022-09-28T08:35:39Z</time>
      </trkpt>
      <trkpt lat="46.39736" lon="6.25977">
        <ele>399</ele>
        <time>2022-09-28T08:35:40Z</time>
      </trkpt>
      <trkpt lat="46.39738" lon="6.2598">
        <ele>399.1</ele>
        <time>2022-09-28T08:35:41Z</time>
      </trkpt>
      <trkpt lat="46.39739" lon="6.25981">
        <ele>399.1</ele>
        <time>2022-09-28T08:35:42Z</time>
      </trkpt>
      <trkpt lat="46.39741" lon="6.25983">
        <ele>399.1</ele>
        <time>2022-09-28T08:35:43Z</time>
      </trkpt>
      <trkpt lat="46.39742" lon="6.25983">
        <ele>399.2</ele>
        <time>2022-09-28T08:35:44Z</time>
      </trkpt>
      <trkpt lat="46.39744" lon="6.25985">
        <ele>399.3</ele>
        <time>2022-09-28T08:35:45Z</time>
      </trkpt>
      <trkpt lat="46.39745" lon="6.25986">
        <ele>399.4</ele>
        <time>2022-09-28T08:35:46Z</time>
      </trkpt>
      <trkpt lat="46.39747" lon="6.25988">
        <ele>399.5</ele>
        <time>2022-09-28T08:35:47Z</time>
      </trkpt>
      <trkpt lat="46.39748" lon="6.25989">
        <ele>399.6</ele>
        <time>2022-09-28T08:35:48Z</time>
      </trkpt>
      <trkpt lat="46.3975" lon="6.25992">
        <ele>399.7</ele>
        <time>2022-09-28T08:35:49Z</time>
      </trkpt>
      <trkpt lat="46.39751" lon="6.25993">
        <ele>399.8</ele>
        <time>2022-09-28T08:35:50Z</time>
      </trkpt>
      <trkpt lat="46.39753" lon="6.25995">
        <ele>399.9</ele>
        <time>2022-09-28T08:35:51Z</time>
      </trkpt>
      <trkpt lat="46.39754" lon="6.25996">
        <ele>400</ele>
        <time>2022-09-28T08:35:52Z</time>
      </trkpt>
      <trkpt lat="46.39756" lon="6.25999">
        <ele>400.1</ele>
        <time>2022-09-28T08:35:53Z</time>
      </trkpt>
      <trkpt lat="46.39757" lon="6.26">
        <ele>400.2</ele>
        <time>2022-09-28T08:35:54Z</time>
      </trkpt>
      <trkpt lat="46.39759" lon="6.26003">
        <ele>400.3</ele>
        <time>2022-09-28T08:35:55Z</time>
      </trkpt>
      <trkpt lat="46.3976" lon="6.26004">
        <ele>400.4</ele>
        <time>2022-09-28T08:35:56Z</time>
      </trkpt>
      <trkpt lat="46.39762" lon="6.26006">
        <ele>400.5</ele>
        <time>2022-09-28T08:35:57Z</time>
      </trkpt>
      <trkpt lat="46.39763" lon="6.26007">
        <ele>400.6</ele>
        <time>2022-09-28T08:35:58Z</time>
      </trkpt>
      <trkpt lat="46.39765" lon="6.26009">
        <ele>400.7</ele>
        <time>2022-09-28T08:35:59Z</time>
      </trkpt>
      <trkpt lat="46.39765" lon="6.2601">
        <ele>400.8</ele>
        <time>2022-09-28T08:36:00Z</time>
      </trkpt>
      <trkpt lat="46.39768" lon="6.26013">
        <ele>400.9</ele>
        <time>2022-09-28T08:36:01Z</time>
      </trkpt>
      <trkpt lat="46.39769" lon="6.26014">
        <ele>401</ele>
        <time>2022-09-28T08:36:02Z</time>
      </trkpt>
      <trkpt lat="46.3977" lon="6.26016">
        <ele>401.1</ele>
        <time>2022-09-28T08:36:03Z</time>
      </trkpt>
      <trkpt lat="46.39771" lon="6.26018">
        <ele>401.2</ele>
        <time>2022-09-28T08:36:04Z</time>
      </trkpt>
      <trkpt lat="46.39773" lon="6.26021">
        <ele>401.3</ele>
        <time>2022-09-28T08:36:05Z</time>
      </trkpt>
      <trkpt lat="46.39774" lon="6.26022">
        <ele>401.3</ele>
        <time>2022-09-28T08:36:06Z</time>
      </trkpt>
      <trkpt lat="46.39777" lon="6.26025">
        <ele>401.5</ele>
        <time>2022-09-28T08:36:07Z</time>
      </trkpt>
      <trkpt lat="46.39777" lon="6.26026">
        <ele>401.5</ele>
        <time>2022-09-28T08:36:08Z</time>
      </trkpt>
      <trkpt lat="46.3978" lon="6.26029">
        <ele>401.6</ele>
        <time>2022-09-28T08:36:09Z</time>
      </trkpt>
      <trkpt lat="46.39781" lon="6.2603">
        <ele>401.7</ele>
        <time>2022-09-28T08:36:10Z</time>
      </trkpt>
      <trkpt lat="46.39783" lon="6.26034">
        <ele>401.8</ele>
        <time>2022-09-28T08:36:11Z</time>
      </trkpt>
      <trkpt lat="46.39784" lon="6.26035">
        <ele>401.9</ele>
        <time>2022-09-28T08:36:12Z</time>
      </trkpt>
      <trkpt lat="46.39787" lon="6.26039">
        <ele>402</ele>
        <time>2022-09-28T08:36:13Z</time>
      </trkpt>
      <trkpt lat="46.39788" lon="6.2604">
        <ele>402</ele>
        <time>2022-09-28T08:36:14Z</time>
      </trkpt>
      <trkpt lat="46.39791" lon="6.26044">
        <ele>402.2</ele>
        <time>2022-09-28T08:36:15Z</time>
      </trkpt>
      <trkpt lat="46.39792" lon="6.26045">
        <ele>402.2</ele>
        <time>2022-09-28T08:36:16Z</time>
      </trkpt>
      <trkpt lat="46.39794" lon="6.26049">
        <ele>402.3</ele>
        <time>2022-09-28T08:36:17Z</time>
      </trkpt>
      <trkpt lat="46.39796" lon="6.2605">
        <ele>402.4</ele>
        <time>2022-09-28T08:36:18Z</time>
      </trkpt>
      <trkpt lat="46.39798" lon="6.26054">
        <ele>402.5</ele>
        <time>2022-09-28T08:36:19Z</time>
      </trkpt>
      <trkpt lat="46.39799" lon="6.26055">
        <ele>402.5</ele>
        <time>2022-09-28T08:36:20Z</time>
      </trkpt>
      <trkpt lat="46.39802" lon="6.26058">
        <ele>402.6</ele>
        <time>2022-09-28T08:36:21Z</time>
      </trkpt>
      <trkpt lat="46.39804" lon="6.2606">
        <ele>402.7</ele>
        <time>2022-09-28T08:36:22Z</time>
      </trkpt>
      <trkpt lat="46.39807" lon="6.26064">
        <ele>402.8</ele>
        <time>2022-09-28T08:36:23Z</time>
      </trkpt>
      <trkpt lat="46.39808" lon="6.26065">
        <ele>402.8</ele>
        <time>2022-09-28T08:36:24Z</time>
      </trkpt>
      <trkpt lat="46.3981" lon="6.26068">
        <ele>402.8</ele>
        <time>2022-09-28T08:36:25Z</time>
      </trkpt>
      <trkpt lat="46.39812" lon="6.26071">
        <ele>402.9</ele>
        <time>2022-09-28T08:36:26Z</time>
      </trkpt>
      <trkpt lat="46.39815" lon="6.26074">
        <ele>403</ele>
        <time>2022-09-28T08:36:27Z</time>
      </trkpt>
      <trkpt lat="46.39817" lon="6.26077">
        <ele>403</ele>
        <time>2022-09-28T08:36:28Z</time>
      </trkpt>
      <trkpt lat="46.3982" lon="6.2608">
        <ele>403.1</ele>
        <time>2022-09-28T08:36:29Z</time>
      </trkpt>
      <trkpt lat="46.39822" lon="6.26083">
        <ele>403.2</ele>
        <time>2022-09-28T08:36:30Z</time>
      </trkpt>
      <trkpt lat="46.39824" lon="6.26086">
        <ele>403.2</ele>
        <time>2022-09-28T08:36:31Z</time>
      </trkpt>
      <trkpt lat="46.39827" lon="6.26089">
        <ele>403.3</ele>
        <time>2022-09-28T08:36:32Z</time>
      </trkpt>
      <trkpt lat="46.39829" lon="6.26092">
        <ele>403.4</ele>
        <time>2022-09-28T08:36:33Z</time>
      </trkpt>
      <trkpt lat="46.39831" lon="6.26095">
        <ele>403.4</ele>
        <time>2022-09-28T08:36:34Z</time>
      </trkpt>
      <trkpt lat="46.39833" lon="6.26098">
        <ele>403.5</ele>
        <time>2022-09-28T08:36:35Z</time>
      </trkpt>
      <trkpt lat="46.39836" lon="6.26101">
        <ele>403.6</ele>
        <time>2022-09-28T08:36:36Z</time>
      </trkpt>
      <trkpt lat="46.39839" lon="6.26104">
        <ele>403.6</ele>
        <time>2022-09-28T08:36:37Z</time>
      </trkpt>
      <trkpt lat="46.3984" lon="6.26108">
        <ele>403.7</ele>
        <time>2022-09-28T08:36:38Z</time>
      </trkpt>
      <trkpt lat="46.39843" lon="6.26111">
        <ele>403.8</ele>
        <time>2022-09-28T08:36:39Z</time>
      </trkpt>
      <trkpt lat="46.39845" lon="6.26114">
        <ele>403.8</ele>
        <time>2022-09-28T08:36:40Z</time>
      </trkpt>
      <trkpt lat="46.39847" lon="6.26117">
        <ele>403.8</ele>
        <time>2022-09-28T08:36:41Z</time>
      </trkpt>
      <trkpt lat="46.3985" lon="6.26121">
        <ele>403.9</ele>
        <time>2022-09-28T08:36:42Z</time>
      </trkpt>
      <trkpt lat="46.39853" lon="6.26124">
        <ele>403.9</ele>
        <time>2022-09-28T08:36:43Z</time>
      </trkpt>
      <trkpt lat="46.39855" lon="6.26127">
        <ele>403.9</ele>
        <time>2022-09-28T08:36:44Z</time>
      </trkpt>
      <trkpt lat="46.39858" lon="6.26131">
        <ele>404</ele>
        <time>2022-09-28T08:36:45Z</time>
      </trkpt>
      <trkpt lat="46.39861" lon="6.26134">
        <ele>404</ele>
        <time>2022-09-28T08:36:46Z</time>
      </trkpt>
      <trkpt lat="46.39863" lon="6.26137">
        <ele>404.1</ele>
        <time>2022-09-28T08:36:47Z</time>
      </trkpt>
      <trkpt lat="46.39866" lon="6.26141">
        <ele>404.1</ele>
        <time>2022-09-28T08:36:48Z</time>
      </trkpt>
      <trkpt lat="46.39869" lon="6.26144">
        <ele>404.1</ele>
        <time>2022-09-28T08:36:49Z</time>
      </trkpt>
      <trkpt lat="46.39871" lon="6.26147">
        <ele>404.2</ele>
        <time>2022-09-28T08:36:50Z</time>
      </trkpt>
      <trkpt lat="46.39874" lon="6.26151">
        <ele>404.2</ele>
        <time>2022-09-28T08:36:51Z</time>
      </trkpt>
      <trkpt lat="46.39876" lon="6.26154">
        <ele>404.3</ele>
        <time>2022-09-28T08:36:52Z</time>
      </trkpt>
      <trkpt lat="46.39879" lon="6.26157">
        <ele>404.3</ele>
        <time>2022-09-28T08:36:53Z</time>
      </trkpt>
      <trkpt lat="46.39881" lon="6.2616">
        <ele>404.4</ele>
        <time>2022-09-28T08:36:54Z</time>
      </trkpt>
      <trkpt lat="46.39884" lon="6.26164">
        <ele>404.4</ele>
        <time>2022-09-28T08:36:55Z</time>
      </trkpt>
      <trkpt lat="46.39887" lon="6.26167">
        <ele>404.5</ele>
        <time>2022-09-28T08:36:56Z</time>
      </trkpt>
      <trkpt lat="46.3989" lon="6.26171">
        <ele>404.5</ele>
        <time>2022-09-28T08:36:57Z</time>
      </trkpt>
      <trkpt lat="46.39893" lon="6.26175">
        <ele>404.6</ele>
        <time>2022-09-28T08:36:58Z</time>
      </trkpt>
      <trkpt lat="46.39895" lon="6.26178">
        <ele>404.6</ele>
        <time>2022-09-28T08:36:59Z</time>
      </trkpt>
      <trkpt lat="46.39898" lon="6.26182">
        <ele>404.7</ele>
        <time>2022-09-28T08:37:00Z</time>
      </trkpt>
      <trkpt lat="46.39901" lon="6.26185">
        <ele>404.7</ele>
        <time>2022-09-28T08:37:01Z</time>
      </trkpt>
      <trkpt lat="46.39904" lon="6.26189">
        <ele>404.7</ele>
        <time>2022-09-28T08:37:02Z</time>
      </trkpt>
      <trkpt lat="46.39907" lon="6.26193">
        <ele>404.8</ele>
        <time>2022-09-28T08:37:03Z</time>
      </trkpt>
      <trkpt lat="46.3991" lon="6.26197">
        <ele>404.8</ele>
        <time>2022-09-28T08:37:04Z</time>
      </trkpt>
      <trkpt lat="46.39913" lon="6.26201">
        <ele>404.9</ele>
        <time>2022-09-28T08:37:05Z</time>
      </trkpt>
      <trkpt lat="46.39915" lon="6.26204">
        <ele>404.9</ele>
        <time>2022-09-28T08:37:06Z</time>
      </trkpt>
      <trkpt lat="46.39918" lon="6.26208">
        <ele>405</ele>
        <time>2022-09-28T08:37:07Z</time>
      </trkpt>
      <trkpt lat="46.39921" lon="6.26212">
        <ele>405</ele>
        <time>2022-09-28T08:37:08Z</time>
      </trkpt>
      <trkpt lat="46.39924" lon="6.26215">
        <ele>405.1</ele>
        <time>2022-09-28T08:37:09Z</time>
      </trkpt>
      <trkpt lat="46.39927" lon="6.26219">
        <ele>405.1</ele>
        <time>2022-09-28T08:37:10Z</time>
      </trkpt>
      <trkpt lat="46.3993" lon="6.26222">
        <ele>405.2</ele>
        <time>2022-09-28T08:37:11Z</time>
      </trkpt>
      <trkpt lat="46.39933" lon="6.26226">
        <ele>405.2</ele>
        <time>2022-09-28T08:37:12Z</time>
      </trkpt>
      <trkpt lat="46.39936" lon="6.2623">
        <ele>405.3</ele>
        <time>2022-09-28T08:37:13Z</time>
      </trkpt>
      <trkpt lat="46.39939" lon="6.26233">
        <ele>405.3</ele>
        <time>2022-09-28T08:37:14Z</time>
      </trkpt>
      <trkpt lat="46.39941" lon="6.26237">
        <ele>405.3</ele>
        <time>2022-09-28T08:37:15Z</time>
      </trkpt>
      <trkpt lat="46.39945" lon="6.26241">
        <ele>405.4</ele>
        <time>2022-09-28T08:37:16Z</time>
      </trkpt>
      <trkpt lat="46.39947" lon="6.26244">
        <ele>405.4</ele>
        <time>2022-09-28T08:37:17Z</time>
      </trkpt>
      <trkpt lat="46.39951" lon="6.26249">
        <ele>405.5</ele>
        <time>2022-09-28T08:37:18Z</time>
      </trkpt>
      <trkpt lat="46.39954" lon="6.26253">
        <ele>405.5</ele>
        <time>2022-09-28T08:37:19Z</time>
      </trkpt>
      <trkpt lat="46.39957" lon="6.26256">
        <ele>405.6</ele>
        <time>2022-09-28T08:37:20Z</time>
      </trkpt>
      <trkpt lat="46.3996" lon="6.2626">
        <ele>405.6</ele>
        <time>2022-09-28T08:37:21Z</time>
      </trkpt>
      <trkpt lat="46.39964" lon="6.26264">
        <ele>405.7</ele>
        <time>2022-09-28T08:37:22Z</time>
      </trkpt>
      <trkpt lat="46.39967" lon="6.26268">
        <ele>405.7</ele>
        <time>2022-09-28T08:37:23Z</time>
      </trkpt>
      <trkpt lat="46.3997" lon="6.26272">
        <ele>405.8</ele>
        <time>2022-09-28T08:37:24Z</time>
      </trkpt>
      <trkpt lat="46.39973" lon="6.26276">
        <ele>405.8</ele>
        <time>2022-09-28T08:37:25Z</time>
      </trkpt>
      <trkpt lat="46.39977" lon="6.2628">
        <ele>405.9</ele>
        <time>2022-09-28T08:37:26Z</time>
      </trkpt>
      <trkpt lat="46.3998" lon="6.26284">
        <ele>405.9</ele>
        <time>2022-09-28T08:37:27Z</time>
      </trkpt>
      <trkpt lat="46.39983" lon="6.26289">
        <ele>406</ele>
        <time>2022-09-28T08:37:28Z</time>
      </trkpt>
      <trkpt lat="46.39986" lon="6.26293">
        <ele>406</ele>
        <time>2022-09-28T08:37:29Z</time>
      </trkpt>
      <trkpt lat="46.39989" lon="6.26297">
        <ele>406</ele>
        <time>2022-09-28T08:37:30Z</time>
      </trkpt>
      <trkpt lat="46.39993" lon="6.26302">
        <ele>406.1</ele>
        <time>2022-09-28T08:37:31Z</time>
      </trkpt>
      <trkpt lat="46.39996" lon="6.26306">
        <ele>406.1</ele>
        <time>2022-09-28T08:37:32Z</time>
      </trkpt>
      <trkpt lat="46.39999" lon="6.2631">
        <ele>406.2</ele>
        <time>2022-09-28T08:37:33Z</time>
      </trkpt>
      <trkpt lat="46.40003" lon="6.26314">
        <ele>406.2</ele>
        <time>2022-09-28T08:37:34Z</time>
      </trkpt>
      <trkpt lat="46.40006" lon="6.26319">
        <ele>406.3</ele>
        <time>2022-09-28T08:37:35Z</time>
      </trkpt>
      <trkpt lat="46.4001" lon="6.26323">
        <ele>406.3</ele>
        <time>2022-09-28T08:37:36Z</time>
      </trkpt>
      <trkpt lat="46.40013" lon="6.26328">
        <ele>406.3</ele>
        <time>2022-09-28T08:37:37Z</time>
      </trkpt>
      <trkpt lat="46.40017" lon="6.26332">
        <ele>406.4</ele>
        <time>2022-09-28T08:37:38Z</time>
      </trkpt>
      <trkpt lat="46.4002" lon="6.26336">
        <ele>406.4</ele>
        <time>2022-09-28T08:37:39Z</time>
      </trkpt>
      <trkpt lat="46.40024" lon="6.26341">
        <ele>406.5</ele>
        <time>2022-09-28T08:37:40Z</time>
      </trkpt>
      <trkpt lat="46.40027" lon="6.26345">
        <ele>406.5</ele>
        <time>2022-09-28T08:37:41Z</time>
      </trkpt>
      <trkpt lat="46.4003" lon="6.26349">
        <ele>406.6</ele>
        <time>2022-09-28T08:37:42Z</time>
      </trkpt>
      <trkpt lat="46.40034" lon="6.26354">
        <ele>406.7</ele>
        <time>2022-09-28T08:37:43Z</time>
      </trkpt>
      <trkpt lat="46.40037" lon="6.26358">
        <ele>406.7</ele>
        <time>2022-09-28T08:37:44Z</time>
      </trkpt>
      <trkpt lat="46.40041" lon="6.26362">
        <ele>406.8</ele>
        <time>2022-09-28T08:37:45Z</time>
      </trkpt>
      <trkpt lat="46.40045" lon="6.26366">
        <ele>406.8</ele>
        <time>2022-09-28T08:37:46Z</time>
      </trkpt>
      <trkpt lat="46.40048" lon="6.2637">
        <ele>406.9</ele>
        <time>2022-09-28T08:37:47Z</time>
      </trkpt>
      <trkpt lat="46.40051" lon="6.26375">
        <ele>406.9</ele>
        <time>2022-09-28T08:37:48Z</time>
      </trkpt>
      <trkpt lat="46.40055" lon="6.26379">
        <ele>406.9</ele>
        <time>2022-09-28T08:37:49Z</time>
      </trkpt>
      <trkpt lat="46.40058" lon="6.26383">
        <ele>407</ele>
        <time>2022-09-28T08:37:50Z</time>
      </trkpt>
      <trkpt lat="46.40061" lon="6.26387">
        <ele>407</ele>
        <time>2022-09-28T08:37:51Z</time>
      </trkpt>
      <trkpt lat="46.40064" lon="6.26391">
        <ele>407</ele>
        <time>2022-09-28T08:37:52Z</time>
      </trkpt>
      <trkpt lat="46.40067" lon="6.26396">
        <ele>407</ele>
        <time>2022-09-28T08:37:53Z</time>
      </trkpt>
      <trkpt lat="46.40071" lon="6.264">
        <ele>407.1</ele>
        <time>2022-09-28T08:37:54Z</time>
      </trkpt>
      <trkpt lat="46.40074" lon="6.26404">
        <ele>407.1</ele>
        <time>2022-09-28T08:37:55Z</time>
      </trkpt>
      <trkpt lat="46.40078" lon="6.26408">
        <ele>407.1</ele>
        <time>2022-09-28T08:37:56Z</time>
      </trkpt>
      <trkpt lat="46.40081" lon="6.26412">
        <ele>407.1</ele>
        <time>2022-09-28T08:37:57Z</time>
      </trkpt>
      <trkpt lat="46.40085" lon="6.26416">
        <ele>407.2</ele>
        <time>2022-09-28T08:37:58Z</time>
      </trkpt>
      <trkpt lat="46.40088" lon="6.26421">
        <ele>407.2</ele>
        <time>2022-09-28T08:37:59Z</time>
      </trkpt>
      <trkpt lat="46.40091" lon="6.26425">
        <ele>407.2</ele>
        <time>2022-09-28T08:38:00Z</time>
      </trkpt>
      <trkpt lat="46.40095" lon="6.2643">
        <ele>407.2</ele>
        <time>2022-09-28T08:38:01Z</time>
      </trkpt>
      <trkpt lat="46.40098" lon="6.26434">
        <ele>407.2</ele>
        <time>2022-09-28T08:38:02Z</time>
      </trkpt>
      <trkpt lat="46.40102" lon="6.26438">
        <ele>407.2</ele>
        <time>2022-09-28T08:38:03Z</time>
      </trkpt>
      <trkpt lat="46.40105" lon="6.26443">
        <ele>407.2</ele>
        <time>2022-09-28T08:38:04Z</time>
      </trkpt>
      <trkpt lat="46.40109" lon="6.26448">
        <ele>407.2</ele>
        <time>2022-09-28T08:38:05Z</time>
      </trkpt>
      <trkpt lat="46.40112" lon="6.26452">
        <ele>407.2</ele>
        <time>2022-09-28T08:38:06Z</time>
      </trkpt>
      <trkpt lat="46.40116" lon="6.26457">
        <ele>407.3</ele>
        <time>2022-09-28T08:38:07Z</time>
      </trkpt>
      <trkpt lat="46.40119" lon="6.26461">
        <ele>407.3</ele>
        <time>2022-09-28T08:38:08Z</time>
      </trkpt>
      <trkpt lat="46.40123" lon="6.26465">
        <ele>407.3</ele>
        <time>2022-09-28T08:38:09Z</time>
      </trkpt>
      <trkpt lat="46.40126" lon="6.2647">
        <ele>407.4</ele>
        <time>2022-09-28T08:38:10Z</time>
      </trkpt>
      <trkpt lat="46.4013" lon="6.26474">
        <ele>407.4</ele>
        <time>2022-09-28T08:38:11Z</time>
      </trkpt>
      <trkpt lat="46.40133" lon="6.26478">
        <ele>407.4</ele>
        <time>2022-09-28T08:38:12Z</time>
      </trkpt>
      <trkpt lat="46.40136" lon="6.26483">
        <ele>407.4</ele>
        <time>2022-09-28T08:38:13Z</time>
      </trkpt>
      <trkpt lat="46.4014" lon="6.26487">
        <ele>407.4</ele>
        <time>2022-09-28T08:38:14Z</time>
      </trkpt>
      <trkpt lat="46.40144" lon="6.26492">
        <ele>407.4</ele>
        <time>2022-09-28T08:38:15Z</time>
      </trkpt>
      <trkpt lat="46.40148" lon="6.26497">
        <ele>407.4</ele>
        <time>2022-09-28T08:38:16Z</time>
      </trkpt>
      <trkpt lat="46.40151" lon="6.26501">
        <ele>407.4</ele>
        <time>2022-09-28T08:38:17Z</time>
      </trkpt>
      <trkpt lat="46.40155" lon="6.26506">
        <ele>407.5</ele>
        <time>2022-09-28T08:38:18Z</time>
      </trkpt>
      <trkpt lat="46.40159" lon="6.26511">
        <ele>407.5</ele>
        <time>2022-09-28T08:38:19Z</time>
      </trkpt>
      <trkpt lat="46.40163" lon="6.26516">
        <ele>407.5</ele>
        <time>2022-09-28T08:38:20Z</time>
      </trkpt>
      <trkpt lat="46.40166" lon="6.26521">
        <ele>407.5</ele>
        <time>2022-09-28T08:38:21Z</time>
      </trkpt>
      <trkpt lat="46.4017" lon="6.26526">
        <ele>407.5</ele>
        <time>2022-09-28T08:38:22Z</time>
      </trkpt>
      <trkpt lat="46.40174" lon="6.2653">
        <ele>407.5</ele>
        <time>2022-09-28T08:38:23Z</time>
      </trkpt>
      <trkpt lat="46.40177" lon="6.26536">
        <ele>407.5</ele>
        <time>2022-09-28T08:38:24Z</time>
      </trkpt>
      <trkpt lat="46.40181" lon="6.2654">
        <ele>407.5</ele>
        <time>2022-09-28T08:38:25Z</time>
      </trkpt>
      <trkpt lat="46.40185" lon="6.26545">
        <ele>407.5</ele>
        <time>2022-09-28T08:38:26Z</time>
      </trkpt>
      <trkpt lat="46.40189" lon="6.2655">
        <ele>407.6</ele>
        <time>2022-09-28T08:38:27Z</time>
      </trkpt>
      <trkpt lat="46.40193" lon="6.26555">
        <ele>407.6</ele>
        <time>2022-09-28T08:38:28Z</time>
      </trkpt>
      <trkpt lat="46.40197" lon="6.2656">
        <ele>407.6</ele>
        <time>2022-09-28T08:38:29Z</time>
      </trkpt>
      <trkpt lat="46.40201" lon="6.26565">
        <ele>407.6</ele>
        <time>2022-09-28T08:38:30Z</time>
      </trkpt>
      <trkpt lat="46.40206" lon="6.2657">
        <ele>407.7</ele>
        <time>2022-09-28T08:38:31Z</time>
      </trkpt>
      <trkpt lat="46.4021" lon="6.26576">
        <ele>407.7</ele>
        <time>2022-09-28T08:38:32Z</time>
      </trkpt>
      <trkpt lat="46.40214" lon="6.26581">
        <ele>407.7</ele>
        <time>2022-09-28T08:38:33Z</time>
      </trkpt>
      <trkpt lat="46.40218" lon="6.26586">
        <ele>407.7</ele>
        <time>2022-09-28T08:38:34Z</time>
      </trkpt>
      <trkpt lat="46.40222" lon="6.26591">
        <ele>407.7</ele>
        <time>2022-09-28T08:38:35Z</time>
      </trkpt>
      <trkpt lat="46.40227" lon="6.26597">
        <ele>407.7</ele>
        <time>2022-09-28T08:38:36Z</time>
      </trkpt>
      <trkpt lat="46.40231" lon="6.26602">
        <ele>407.7</ele>
        <time>2022-09-28T08:38:37Z</time>
      </trkpt>
      <trkpt lat="46.40235" lon="6.26608">
        <ele>407.7</ele>
        <time>2022-09-28T08:38:38Z</time>
      </trkpt>
      <trkpt lat="46.40239" lon="6.26613">
        <ele>407.7</ele>
        <time>2022-09-28T08:38:39Z</time>
      </trkpt>
      <trkpt lat="46.40243" lon="6.26618">
        <ele>407.7</ele>
        <time>2022-09-28T08:38:40Z</time>
      </trkpt>
      <trkpt lat="46.40248" lon="6.26623">
        <ele>407.7</ele>
        <time>2022-09-28T08:38:41Z</time>
      </trkpt>
      <trkpt lat="46.40252" lon="6.26629">
        <ele>407.7</ele>
        <time>2022-09-28T08:38:42Z</time>
      </trkpt>
      <trkpt lat="46.40256" lon="6.26634">
        <ele>407.7</ele>
        <time>2022-09-28T08:38:43Z</time>
      </trkpt>
      <trkpt lat="46.4026" lon="6.26639">
        <ele>407.7</ele>
        <time>2022-09-28T08:38:44Z</time>
      </trkpt>
      <trkpt lat="46.40264" lon="6.26645">
        <ele>407.7</ele>
        <time>2022-09-28T08:38:45Z</time>
      </trkpt>
      <trkpt lat="46.40268" lon="6.2665">
        <ele>407.7</ele>
        <time>2022-09-28T08:38:46Z</time>
      </trkpt>
      <trkpt lat="46.40272" lon="6.26655">
        <ele>407.7</ele>
        <time>2022-09-28T08:38:47Z</time>
      </trkpt>
      <trkpt lat="46.40277" lon="6.26661">
        <ele>407.7</ele>
        <time>2022-09-28T08:38:48Z</time>
      </trkpt>
      <trkpt lat="46.40281" lon="6.26666">
        <ele>407.7</ele>
        <time>2022-09-28T08:38:49Z</time>
      </trkpt>
      <trkpt lat="46.40285" lon="6.26671">
        <ele>407.8</ele>
        <time>2022-09-28T08:38:50Z</time>
      </trkpt>
      <trkpt lat="46.4029" lon="6.26677">
        <ele>407.8</ele>
        <time>2022-09-28T08:38:51Z</time>
      </trkpt>
      <trkpt lat="46.40294" lon="6.26682">
        <ele>407.8</ele>
        <time>2022-09-28T08:38:52Z</time>
      </trkpt>
      <trkpt lat="46.40298" lon="6.26687">
        <ele>407.8</ele>
        <time>2022-09-28T08:38:53Z</time>
      </trkpt>
      <trkpt lat="46.40302" lon="6.26693">
        <ele>407.9</ele>
        <time>2022-09-28T08:38:54Z</time>
      </trkpt>
      <trkpt lat="46.40306" lon="6.26698">
        <ele>407.9</ele>
        <time>2022-09-28T08:38:55Z</time>
      </trkpt>
      <trkpt lat="46.4031" lon="6.26703">
        <ele>408</ele>
        <time>2022-09-28T08:38:56Z</time>
      </trkpt>
      <trkpt lat="46.40314" lon="6.26708">
        <ele>408</ele>
        <time>2022-09-28T08:38:57Z</time>
      </trkpt>
      <trkpt lat="46.40318" lon="6.26712">
        <ele>408</ele>
        <time>2022-09-28T08:38:58Z</time>
      </trkpt>
      <trkpt lat="46.40323" lon="6.26717">
        <ele>408</ele>
        <time>2022-09-28T08:38:59Z</time>
      </trkpt>
      <trkpt lat="46.40326" lon="6.26722">
        <ele>408.1</ele>
        <time>2022-09-28T08:39:00Z</time>
      </trkpt>
      <trkpt lat="46.40331" lon="6.26728">
        <ele>408.1</ele>
        <time>2022-09-28T08:39:01Z</time>
      </trkpt>
      <trkpt lat="46.40335" lon="6.26732">
        <ele>408.1</ele>
        <time>2022-09-28T08:39:02Z</time>
      </trkpt>
      <trkpt lat="46.40339" lon="6.26737">
        <ele>408.2</ele>
        <time>2022-09-28T08:39:03Z</time>
      </trkpt>
      <trkpt lat="46.40344" lon="6.26741">
        <ele>408.2</ele>
        <time>2022-09-28T08:39:04Z</time>
      </trkpt>
      <trkpt lat="46.40348" lon="6.26745">
        <ele>408.2</ele>
        <time>2022-09-28T08:39:05Z</time>
      </trkpt>
      <trkpt lat="46.40352" lon="6.26749">
        <ele>408.2</ele>
        <time>2022-09-28T08:39:06Z</time>
      </trkpt>
      <trkpt lat="46.40356" lon="6.26753">
        <ele>408.3</ele>
        <time>2022-09-28T08:39:07Z</time>
      </trkpt>
      <trkpt lat="46.40361" lon="6.26757">
        <ele>408.3</ele>
        <time>2022-09-28T08:39:08Z</time>
      </trkpt>
      <trkpt lat="46.40364" lon="6.26761">
        <ele>408.3</ele>
        <time>2022-09-28T08:39:09Z</time>
      </trkpt>
      <trkpt lat="46.40368" lon="6.26764">
        <ele>408.3</ele>
        <time>2022-09-28T08:39:10Z</time>
      </trkpt>
      <trkpt lat="46.40371" lon="6.26767">
        <ele>408.3</ele>
        <time>2022-09-28T08:39:11Z</time>
      </trkpt>
      <trkpt lat="46.40375" lon="6.26771">
        <ele>408.2</ele>
        <time>2022-09-28T08:39:12Z</time>
      </trkpt>
      <trkpt lat="46.40379" lon="6.26774">
        <ele>408.2</ele>
        <time>2022-09-28T08:39:13Z</time>
      </trkpt>
      <trkpt lat="46.40383" lon="6.26778">
        <ele>408.2</ele>
        <time>2022-09-28T08:39:14Z</time>
      </trkpt>
      <trkpt lat="46.40388" lon="6.26781">
        <ele>408.2</ele>
        <time>2022-09-28T08:39:15Z</time>
      </trkpt>
      <trkpt lat="46.40392" lon="6.26785">
        <ele>408.1</ele>
        <time>2022-09-28T08:39:16Z</time>
      </trkpt>
      <trkpt lat="46.40396" lon="6.26788">
        <ele>408.1</ele>
        <time>2022-09-28T08:39:17Z</time>
      </trkpt>
      <trkpt lat="46.40401" lon="6.26791">
        <ele>408.1</ele>
        <time>2022-09-28T08:39:18Z</time>
      </trkpt>
      <trkpt lat="46.40405" lon="6.26794">
        <ele>408</ele>
        <time>2022-09-28T08:39:19Z</time>
      </trkpt>
      <trkpt lat="46.4041" lon="6.26797">
        <ele>408</ele>
        <time>2022-09-28T08:39:20Z</time>
      </trkpt>
      <trkpt lat="46.40414" lon="6.268">
        <ele>407.9</ele>
        <time>2022-09-28T08:39:21Z</time>
      </trkpt>
      <trkpt lat="46.40418" lon="6.26802">
        <ele>407.8</ele>
        <time>2022-09-28T08:39:22Z</time>
      </trkpt>
      <trkpt lat="46.40423" lon="6.26806">
        <ele>407.7</ele>
        <time>2022-09-28T08:39:23Z</time>
      </trkpt>
      <trkpt lat="46.40427" lon="6.26809">
        <ele>407.6</ele>
        <time>2022-09-28T08:39:24Z</time>
      </trkpt>
      <trkpt lat="46.40432" lon="6.26812">
        <ele>407.4</ele>
        <time>2022-09-28T08:39:25Z</time>
      </trkpt>
      <trkpt lat="46.40438" lon="6.26815">
        <ele>407.3</ele>
        <time>2022-09-28T08:39:26Z</time>
      </trkpt>
      <trkpt lat="46.40443" lon="6.26818">
        <ele>407.1</ele>
        <time>2022-09-28T08:39:27Z</time>
      </trkpt>
      <trkpt lat="46.40448" lon="6.26821">
        <ele>406.9</ele>
        <time>2022-09-28T08:39:28Z</time>
      </trkpt>
      <trkpt lat="46.40453" lon="6.26824">
        <ele>406.7</ele>
        <time>2022-09-28T08:39:29Z</time>
      </trkpt>
      <trkpt lat="46.40458" lon="6.26826">
        <ele>406.5</ele>
        <time>2022-09-28T08:39:30Z</time>
      </trkpt>
      <trkpt lat="46.40464" lon="6.26829">
        <ele>406.2</ele>
        <time>2022-09-28T08:39:31Z</time>
      </trkpt>
      <trkpt lat="46.4047" lon="6.26832">
        <ele>405.9</ele>
        <time>2022-09-28T08:39:32Z</time>
      </trkpt>
      <trkpt lat="46.40477" lon="6.26834">
        <ele>405.6</ele>
        <time>2022-09-28T08:39:33Z</time>
      </trkpt>
      <trkpt lat="46.40484" lon="6.26837">
        <ele>405.2</ele>
        <time>2022-09-28T08:39:34Z</time>
      </trkpt>
      <trkpt lat="46.40491" lon="6.2684">
        <ele>404.8</ele>
        <time>2022-09-28T08:39:35Z</time>
      </trkpt>
      <trkpt lat="46.40498" lon="6.26843">
        <ele>404.4</ele>
        <time>2022-09-28T08:39:36Z</time>
      </trkpt>
      <trkpt lat="46.40505" lon="6.26845">
        <ele>403.9</ele>
        <time>2022-09-28T08:39:37Z</time>
      </trkpt>
      <trkpt lat="46.40513" lon="6.26847">
        <ele>403.5</ele>
        <time>2022-09-28T08:39:38Z</time>
      </trkpt>
      <trkpt lat="46.4052" lon="6.2685">
        <ele>403.1</ele>
        <time>2022-09-28T08:39:39Z</time>
      </trkpt>
      <trkpt lat="46.40527" lon="6.26852">
        <ele>402.7</ele>
        <time>2022-09-28T08:39:40Z</time>
      </trkpt>
      <trkpt lat="46.40534" lon="6.26855">
        <ele>402.2</ele>
        <time>2022-09-28T08:39:41Z</time>
      </trkpt>
      <trkpt lat="46.40541" lon="6.26857">
        <ele>401.9</ele>
        <time>2022-09-28T08:39:42Z</time>
      </trkpt>
      <trkpt lat="46.40547" lon="6.26859">
        <ele>401.6</ele>
        <time>2022-09-28T08:39:43Z</time>
      </trkpt>
      <trkpt lat="46.40552" lon="6.26861">
        <ele>401.4</ele>
        <time>2022-09-28T08:39:44Z</time>
      </trkpt>
      <trkpt lat="46.40557" lon="6.26863">
        <ele>401.2</ele>
        <time>2022-09-28T08:39:45Z</time>
      </trkpt>
      <trkpt lat="46.40562" lon="6.26865">
        <ele>401.1</ele>
        <time>2022-09-28T08:39:46Z</time>
      </trkpt>
      <trkpt lat="46.40567" lon="6.26866">
        <ele>401</ele>
        <time>2022-09-28T08:39:47Z</time>
      </trkpt>
      <trkpt lat="46.40572" lon="6.26868">
        <ele>400.9</ele>
        <time>2022-09-28T08:39:48Z</time>
      </trkpt>
      <trkpt lat="46.40576" lon="6.2687">
        <ele>400.8</ele>
        <time>2022-09-28T08:39:49Z</time>
      </trkpt>
      <trkpt lat="46.40581" lon="6.26872">
        <ele>400.6</ele>
        <time>2022-09-28T08:39:50Z</time>
      </trkpt>
      <trkpt lat="46.40587" lon="6.26874">
        <ele>400.4</ele>
        <time>2022-09-28T08:39:51Z</time>
      </trkpt>
      <trkpt lat="46.40592" lon="6.26877">
        <ele>400.2</ele>
        <time>2022-09-28T08:39:52Z</time>
      </trkpt>
      <trkpt lat="46.40599" lon="6.26878">
        <ele>399.9</ele>
        <time>2022-09-28T08:39:53Z</time>
      </trkpt>
      <trkpt lat="46.40604" lon="6.26881">
        <ele>399.8</ele>
        <time>2022-09-28T08:39:54Z</time>
      </trkpt>
      <trkpt lat="46.40609" lon="6.26883">
        <ele>399.6</ele>
        <time>2022-09-28T08:39:55Z</time>
      </trkpt>
      <trkpt lat="46.40616" lon="6.26885">
        <ele>399.4</ele>
        <time>2022-09-28T08:39:56Z</time>
      </trkpt>
      <trkpt lat="46.40621" lon="6.26888">
        <ele>399.4</ele>
        <time>2022-09-28T08:39:57Z</time>
      </trkpt>
      <trkpt lat="46.40626" lon="6.26891">
        <ele>399.3</ele>
        <time>2022-09-28T08:39:58Z</time>
      </trkpt>
      <trkpt lat="46.4063" lon="6.26894">
        <ele>399.2</ele>
        <time>2022-09-28T08:39:59Z</time>
      </trkpt>
      <trkpt lat="46.40634" lon="6.26897">
        <ele>399.2</ele>
        <time>2022-09-28T08:40:00Z</time>
      </trkpt>
      <trkpt lat="46.40638" lon="6.26899">
        <ele>399.2</ele>
        <time>2022-09-28T08:40:01Z</time>
      </trkpt>
      <trkpt lat="46.40642" lon="6.26901">
        <ele>399.3</ele>
        <time>2022-09-28T08:40:02Z</time>
      </trkpt>
      <trkpt lat="46.40647" lon="6.26903">
        <ele>399.3</ele>
        <time>2022-09-28T08:40:03Z</time>
      </trkpt>
      <trkpt lat="46.40651" lon="6.26905">
        <ele>399.3</ele>
        <time>2022-09-28T08:40:04Z</time>
      </trkpt>
      <trkpt lat="46.40655" lon="6.26908">
        <ele>399.3</ele>
        <time>2022-09-28T08:40:05Z</time>
      </trkpt>
      <trkpt lat="46.40658" lon="6.26911">
        <ele>399.4</ele>
        <time>2022-09-28T08:40:06Z</time>
      </trkpt>
      <trkpt lat="46.40661" lon="6.26913">
        <ele>399.4</ele>
        <time>2022-09-28T08:40:07Z</time>
      </trkpt>
      <trkpt lat="46.40665" lon="6.26917">
        <ele>399.4</ele>
        <time>2022-09-28T08:40:08Z</time>
      </trkpt>
      <trkpt lat="46.40668" lon="6.26921">
        <ele>399.5</ele>
        <time>2022-09-28T08:40:09Z</time>
      </trkpt>
      <trkpt lat="46.40672" lon="6.26925">
        <ele>399.5</ele>
        <time>2022-09-28T08:40:10Z</time>
      </trkpt>
      <trkpt lat="46.40675" lon="6.26928">
        <ele>399.6</ele>
        <time>2022-09-28T08:40:11Z</time>
      </trkpt>
      <trkpt lat="46.40679" lon="6.26932">
        <ele>399.7</ele>
        <time>2022-09-28T08:40:12Z</time>
      </trkpt>
      <trkpt lat="46.40682" lon="6.26936">
        <ele>399.7</ele>
        <time>2022-09-28T08:40:13Z</time>
      </trkpt>
      <trkpt lat="46.40687" lon="6.2694">
        <ele>399.8</ele>
        <time>2022-09-28T08:40:14Z</time>
      </trkpt>
      <trkpt lat="46.40689" lon="6.26944">
        <ele>399.9</ele>
        <time>2022-09-28T08:40:15Z</time>
      </trkpt>
      <trkpt lat="46.40693" lon="6.26949">
        <ele>400</ele>
        <time>2022-09-28T08:40:16Z</time>
      </trkpt>
      <trkpt lat="46.40697" lon="6.26953">
        <ele>400.2</ele>
        <time>2022-09-28T08:40:17Z</time>
      </trkpt>
      <trkpt lat="46.40701" lon="6.26957">
        <ele>400.4</ele>
        <time>2022-09-28T08:40:18Z</time>
      </trkpt>
      <trkpt lat="46.40705" lon="6.26961">
        <ele>400.6</ele>
        <time>2022-09-28T08:40:19Z</time>
      </trkpt>
      <trkpt lat="46.40707" lon="6.26964">
        <ele>400.7</ele>
        <time>2022-09-28T08:40:20Z</time>
      </trkpt>
      <trkpt lat="46.4071" lon="6.26968">
        <ele>400.9</ele>
        <time>2022-09-28T08:40:21Z</time>
      </trkpt>
      <trkpt lat="46.40714" lon="6.26972">
        <ele>401.1</ele>
        <time>2022-09-28T08:40:22Z</time>
      </trkpt>
      <trkpt lat="46.40716" lon="6.26975">
        <ele>401.3</ele>
        <time>2022-09-28T08:40:23Z</time>
      </trkpt>
      <trkpt lat="46.4072" lon="6.26979">
        <ele>401.5</ele>
        <time>2022-09-28T08:40:24Z</time>
      </trkpt>
      <trkpt lat="46.40722" lon="6.26983">
        <ele>401.8</ele>
        <time>2022-09-28T08:40:25Z</time>
      </trkpt>
      <trkpt lat="46.40725" lon="6.26985">
        <ele>401.9</ele>
        <time>2022-09-28T08:40:26Z</time>
      </trkpt>
      <trkpt lat="46.40727" lon="6.26989">
        <ele>402.1</ele>
        <time>2022-09-28T08:40:27Z</time>
      </trkpt>
      <trkpt lat="46.4073" lon="6.26992">
        <ele>402.3</ele>
        <time>2022-09-28T08:40:28Z</time>
      </trkpt>
      <trkpt lat="46.40732" lon="6.26994">
        <ele>402.5</ele>
        <time>2022-09-28T08:40:29Z</time>
      </trkpt>
      <trkpt lat="46.40734" lon="6.26998">
        <ele>402.6</ele>
        <time>2022-09-28T08:40:30Z</time>
      </trkpt>
      <trkpt lat="46.40736" lon="6.27">
        <ele>402.8</ele>
        <time>2022-09-28T08:40:31Z</time>
      </trkpt>
      <trkpt lat="46.40739" lon="6.27003">
        <ele>403</ele>
        <time>2022-09-28T08:40:32Z</time>
      </trkpt>
      <trkpt lat="46.40742" lon="6.27006">
        <ele>403.2</ele>
        <time>2022-09-28T08:40:33Z</time>
      </trkpt>
      <trkpt lat="46.40743" lon="6.27007">
        <ele>403.2</ele>
        <time>2022-09-28T08:40:34Z</time>
      </trkpt>
      <trkpt lat="46.40745" lon="6.2701">
        <ele>403.4</ele>
        <time>2022-09-28T08:40:35Z</time>
      </trkpt>
      <trkpt lat="46.40747" lon="6.27013">
        <ele>403.5</ele>
        <time>2022-09-28T08:40:36Z</time>
      </trkpt>
      <trkpt lat="46.4075" lon="6.27016">
        <ele>403.7</ele>
        <time>2022-09-28T08:40:37Z</time>
      </trkpt>
      <trkpt lat="46.40752" lon="6.27018">
        <ele>403.8</ele>
        <time>2022-09-28T08:40:38Z</time>
      </trkpt>
      <trkpt lat="46.40754" lon="6.27021">
        <ele>404</ele>
        <time>2022-09-28T08:40:39Z</time>
      </trkpt>
      <trkpt lat="46.40756" lon="6.27023">
        <ele>404.1</ele>
        <time>2022-09-28T08:40:40Z</time>
      </trkpt>
      <trkpt lat="46.40759" lon="6.27027">
        <ele>404.3</ele>
        <time>2022-09-28T08:40:41Z</time>
      </trkpt>
      <trkpt lat="46.40761" lon="6.27028">
        <ele>404.4</ele>
        <time>2022-09-28T08:40:42Z</time>
      </trkpt>
      <trkpt lat="46.40763" lon="6.27031">
        <ele>404.6</ele>
        <time>2022-09-28T08:40:43Z</time>
      </trkpt>
      <trkpt lat="46.40764" lon="6.27032">
        <ele>404.6</ele>
        <time>2022-09-28T08:40:44Z</time>
      </trkpt>
      <trkpt lat="46.40767" lon="6.27035">
        <ele>404.8</ele>
        <time>2022-09-28T08:40:45Z</time>
      </trkpt>
      <trkpt lat="46.40768" lon="6.27036">
        <ele>404.9</ele>
        <time>2022-09-28T08:40:46Z</time>
      </trkpt>
      <trkpt lat="46.40771" lon="6.27039">
        <ele>405.1</ele>
        <time>2022-09-28T08:40:47Z</time>
      </trkpt>
      <trkpt lat="46.40772" lon="6.27041">
        <ele>405.1</ele>
        <time>2022-09-28T08:40:48Z</time>
      </trkpt>
      <trkpt lat="46.40775" lon="6.27044">
        <ele>405.3</ele>
        <time>2022-09-28T08:40:49Z</time>
      </trkpt>
      <trkpt lat="46.40776" lon="6.27044">
        <ele>405.3</ele>
        <time>2022-09-28T08:40:50Z</time>
      </trkpt>
      <trkpt lat="46.40779" lon="6.27048">
        <ele>405.5</ele>
        <time>2022-09-28T08:40:51Z</time>
      </trkpt>
      <trkpt lat="46.4078" lon="6.27049">
        <ele>405.5</ele>
        <time>2022-09-28T08:40:52Z</time>
      </trkpt>
      <trkpt lat="46.40782" lon="6.27052">
        <ele>405.7</ele>
        <time>2022-09-28T08:40:53Z</time>
      </trkpt>
      <trkpt lat="46.40783" lon="6.27053">
        <ele>405.8</ele>
        <time>2022-09-28T08:40:54Z</time>
      </trkpt>
      <trkpt lat="46.40786" lon="6.27056">
        <ele>405.9</ele>
        <time>2022-09-28T08:40:55Z</time>
      </trkpt>
      <trkpt lat="46.40787" lon="6.27057">
        <ele>406</ele>
        <time>2022-09-28T08:40:56Z</time>
      </trkpt>
      <trkpt lat="46.40789" lon="6.27061">
        <ele>406.1</ele>
        <time>2022-09-28T08:40:57Z</time>
      </trkpt>
      <trkpt lat="46.4079" lon="6.27062">
        <ele>406.1</ele>
        <time>2022-09-28T08:40:58Z</time>
      </trkpt>
      <trkpt lat="46.40792" lon="6.27065">
        <ele>406.2</ele>
        <time>2022-09-28T08:40:59Z</time>
      </trkpt>
      <trkpt lat="46.40795" lon="6.27069">
        <ele>406.4</ele>
        <time>2022-09-28T08:41:00Z</time>
      </trkpt>
      <trkpt lat="46.40795" lon="6.2707">
        <ele>406.4</ele>
        <time>2022-09-28T08:41:01Z</time>
      </trkpt>
      <trkpt lat="46.40798" lon="6.27072">
        <ele>406.5</ele>
        <time>2022-09-28T08:41:02Z</time>
      </trkpt>
      <trkpt lat="46.40799" lon="6.27073">
        <ele>406.6</ele>
        <time>2022-09-28T08:41:03Z</time>
      </trkpt>
      <trkpt lat="46.40803" lon="6.27076">
        <ele>406.7</ele>
        <time>2022-09-28T08:41:04Z</time>
      </trkpt>
      <trkpt lat="46.40804" lon="6.27077">
        <ele>406.7</ele>
        <time>2022-09-28T08:41:05Z</time>
      </trkpt>
      <trkpt lat="46.40807" lon="6.27081">
        <ele>406.9</ele>
        <time>2022-09-28T08:41:06Z</time>
      </trkpt>
      <trkpt lat="46.40808" lon="6.27081">
        <ele>406.9</ele>
        <time>2022-09-28T08:41:07Z</time>
      </trkpt>
      <trkpt lat="46.40811" lon="6.27085">
        <ele>407</ele>
        <time>2022-09-28T08:41:08Z</time>
      </trkpt>
      <trkpt lat="46.40811" lon="6.27086">
        <ele>407</ele>
        <time>2022-09-28T08:41:09Z</time>
      </trkpt>
      <trkpt lat="46.40814" lon="6.27089">
        <ele>407.1</ele>
        <time>2022-09-28T08:41:10Z</time>
      </trkpt>
      <trkpt lat="46.40815" lon="6.2709">
        <ele>407.1</ele>
        <time>2022-09-28T08:41:11Z</time>
      </trkpt>
      <trkpt lat="46.40817" lon="6.27094">
        <ele>407.2</ele>
        <time>2022-09-28T08:41:12Z</time>
      </trkpt>
      <trkpt lat="46.40818" lon="6.27095">
        <ele>407.2</ele>
        <time>2022-09-28T08:41:13Z</time>
      </trkpt>
      <trkpt lat="46.40821" lon="6.27099">
        <ele>407.3</ele>
        <time>2022-09-28T08:41:14Z</time>
      </trkpt>
      <trkpt lat="46.40822" lon="6.271">
        <ele>407.3</ele>
        <time>2022-09-28T08:41:15Z</time>
      </trkpt>
      <trkpt lat="46.40824" lon="6.27103">
        <ele>407.4</ele>
        <time>2022-09-28T08:41:16Z</time>
      </trkpt>
      <trkpt lat="46.40827" lon="6.27107">
        <ele>407.5</ele>
        <time>2022-09-28T08:41:17Z</time>
      </trkpt>
      <trkpt lat="46.40828" lon="6.27108">
        <ele>407.5</ele>
        <time>2022-09-28T08:41:18Z</time>
      </trkpt>
      <trkpt lat="46.40831" lon="6.27111">
        <ele>407.6</ele>
        <time>2022-09-28T08:41:19Z</time>
      </trkpt>
      <trkpt lat="46.40832" lon="6.27112">
        <ele>407.6</ele>
        <time>2022-09-28T08:41:20Z</time>
      </trkpt>
      <trkpt lat="46.40835" lon="6.27114">
        <ele>407.7</ele>
        <time>2022-09-28T08:41:21Z</time>
      </trkpt>
      <trkpt lat="46.40836" lon="6.27115">
        <ele>407.7</ele>
        <time>2022-09-28T08:41:22Z</time>
      </trkpt>
      <trkpt lat="46.40839" lon="6.27118">
        <ele>407.7</ele>
        <time>2022-09-28T08:41:23Z</time>
      </trkpt>
      <trkpt lat="46.40841" lon="6.27121">
        <ele>407.8</ele>
        <time>2022-09-28T08:41:24Z</time>
      </trkpt>
      <trkpt lat="46.40844" lon="6.27125">
        <ele>407.9</ele>
        <time>2022-09-28T08:41:25Z</time>
      </trkpt>
      <trkpt lat="46.40845" lon="6.27126">
        <ele>407.9</ele>
        <time>2022-09-28T08:41:26Z</time>
      </trkpt>
      <trkpt lat="46.40848" lon="6.27129">
        <ele>407.9</ele>
        <time>2022-09-28T08:41:27Z</time>
      </trkpt>
      <trkpt lat="46.4085" lon="6.2713">
        <ele>407.9</ele>
        <time>2022-09-28T08:41:28Z</time>
      </trkpt>
      <trkpt lat="46.40851" lon="6.27134">
        <ele>408</ele>
        <time>2022-09-28T08:41:29Z</time>
      </trkpt>
      <trkpt lat="46.40854" lon="6.27137">
        <ele>408</ele>
        <time>2022-09-28T08:41:30Z</time>
      </trkpt>
      <trkpt lat="46.40856" lon="6.2714">
        <ele>408</ele>
        <time>2022-09-28T08:41:31Z</time>
      </trkpt>
      <trkpt lat="46.40859" lon="6.27142">
        <ele>408</ele>
        <time>2022-09-28T08:41:32Z</time>
      </trkpt>
      <trkpt lat="46.40861" lon="6.27146">
        <ele>408.1</ele>
        <time>2022-09-28T08:41:33Z</time>
      </trkpt>
      <trkpt lat="46.40864" lon="6.27149">
        <ele>408.1</ele>
        <time>2022-09-28T08:41:34Z</time>
      </trkpt>
      <trkpt lat="46.40866" lon="6.27153">
        <ele>408.1</ele>
        <time>2022-09-28T08:41:35Z</time>
      </trkpt>
      <trkpt lat="46.40869" lon="6.27156">
        <ele>408.2</ele>
        <time>2022-09-28T08:41:36Z</time>
      </trkpt>
      <trkpt lat="46.40872" lon="6.2716">
        <ele>408.2</ele>
        <time>2022-09-28T08:41:37Z</time>
      </trkpt>
      <trkpt lat="46.40874" lon="6.27163">
        <ele>408.2</ele>
        <time>2022-09-28T08:41:38Z</time>
      </trkpt>
      <trkpt lat="46.40877" lon="6.27166">
        <ele>408.2</ele>
        <time>2022-09-28T08:41:39Z</time>
      </trkpt>
      <trkpt lat="46.40879" lon="6.27169">
        <ele>408.2</ele>
        <time>2022-09-28T08:41:40Z</time>
      </trkpt>
      <trkpt lat="46.40882" lon="6.27172">
        <ele>408.2</ele>
        <time>2022-09-28T08:41:41Z</time>
      </trkpt>
      <trkpt lat="46.40885" lon="6.27175">
        <ele>408.2</ele>
        <time>2022-09-28T08:41:42Z</time>
      </trkpt>
      <trkpt lat="46.40888" lon="6.27178">
        <ele>408.2</ele>
        <time>2022-09-28T08:41:43Z</time>
      </trkpt>
      <trkpt lat="46.40891" lon="6.27181">
        <ele>408.2</ele>
        <time>2022-09-28T08:41:44Z</time>
      </trkpt>
      <trkpt lat="46.40894" lon="6.27185">
        <ele>408.2</ele>
        <time>2022-09-28T08:41:45Z</time>
      </trkpt>
      <trkpt lat="46.40896" lon="6.27188">
        <ele>408.2</ele>
        <time>2022-09-28T08:41:46Z</time>
      </trkpt>
      <trkpt lat="46.40899" lon="6.27191">
        <ele>408.2</ele>
        <time>2022-09-28T08:41:47Z</time>
      </trkpt>
      <trkpt lat="46.40902" lon="6.27195">
        <ele>408.2</ele>
        <time>2022-09-28T08:41:48Z</time>
      </trkpt>
      <trkpt lat="46.40905" lon="6.27198">
        <ele>408.3</ele>
        <time>2022-09-28T08:41:49Z</time>
      </trkpt>
      <trkpt lat="46.40908" lon="6.27201">
        <ele>408.3</ele>
        <time>2022-09-28T08:41:50Z</time>
      </trkpt>
      <trkpt lat="46.40912" lon="6.27205">
        <ele>408.3</ele>
        <time>2022-09-28T08:41:51Z</time>
      </trkpt>
      <trkpt lat="46.40915" lon="6.27209">
        <ele>408.3</ele>
        <time>2022-09-28T08:41:52Z</time>
      </trkpt>
      <trkpt lat="46.40918" lon="6.27212">
        <ele>408.3</ele>
        <time>2022-09-28T08:41:53Z</time>
      </trkpt>
      <trkpt lat="46.40921" lon="6.27215">
        <ele>408.3</ele>
        <time>2022-09-28T08:41:54Z</time>
      </trkpt>
      <trkpt lat="46.40925" lon="6.27219">
        <ele>408.3</ele>
        <time>2022-09-28T08:41:55Z</time>
      </trkpt>
      <trkpt lat="46.40928" lon="6.27223">
        <ele>408.2</ele>
        <time>2022-09-28T08:41:56Z</time>
      </trkpt>
      <trkpt lat="46.40931" lon="6.27226">
        <ele>408.2</ele>
        <time>2022-09-28T08:41:57Z</time>
      </trkpt>
      <trkpt lat="46.40934" lon="6.2723">
        <ele>408.2</ele>
        <time>2022-09-28T08:41:58Z</time>
      </trkpt>
      <trkpt lat="46.40937" lon="6.27234">
        <ele>408.2</ele>
        <time>2022-09-28T08:41:59Z</time>
      </trkpt>
      <trkpt lat="46.4094" lon="6.27237">
        <ele>408.2</ele>
        <time>2022-09-28T08:42:00Z</time>
      </trkpt>
      <trkpt lat="46.40943" lon="6.2724">
        <ele>408.2</ele>
        <time>2022-09-28T08:42:01Z</time>
      </trkpt>
      <trkpt lat="46.40946" lon="6.27244">
        <ele>408.2</ele>
        <time>2022-09-28T08:42:02Z</time>
      </trkpt>
      <trkpt lat="46.4095" lon="6.27248">
        <ele>408.2</ele>
        <time>2022-09-28T08:42:03Z</time>
      </trkpt>
      <trkpt lat="46.40954" lon="6.27252">
        <ele>408.2</ele>
        <time>2022-09-28T08:42:04Z</time>
      </trkpt>
      <trkpt lat="46.40957" lon="6.27256">
        <ele>408.2</ele>
        <time>2022-09-28T08:42:05Z</time>
      </trkpt>
      <trkpt lat="46.40962" lon="6.2726">
        <ele>408.2</ele>
        <time>2022-09-28T08:42:06Z</time>
      </trkpt>
      <trkpt lat="46.40965" lon="6.27265">
        <ele>408.2</ele>
        <time>2022-09-28T08:42:07Z</time>
      </trkpt>
      <trkpt lat="46.40969" lon="6.27269">
        <ele>408.2</ele>
        <time>2022-09-28T08:42:08Z</time>
      </trkpt>
      <trkpt lat="46.40973" lon="6.27274">
        <ele>408.2</ele>
        <time>2022-09-28T08:42:09Z</time>
      </trkpt>
      <trkpt lat="46.40976" lon="6.27278">
        <ele>408.2</ele>
        <time>2022-09-28T08:42:10Z</time>
      </trkpt>
      <trkpt lat="46.4098" lon="6.27282">
        <ele>408.2</ele>
        <time>2022-09-28T08:42:11Z</time>
      </trkpt>
      <trkpt lat="46.40984" lon="6.27287">
        <ele>408.2</ele>
        <time>2022-09-28T08:42:12Z</time>
      </trkpt>
      <trkpt lat="46.40988" lon="6.27291">
        <ele>408.1</ele>
        <time>2022-09-28T08:42:13Z</time>
      </trkpt>
      <trkpt lat="46.40991" lon="6.27295">
        <ele>408.1</ele>
        <time>2022-09-28T08:42:14Z</time>
      </trkpt>
      <trkpt lat="46.40994" lon="6.27299">
        <ele>408.1</ele>
        <time>2022-09-28T08:42:15Z</time>
      </trkpt>
      <trkpt lat="46.40998" lon="6.27303">
        <ele>408.1</ele>
        <time>2022-09-28T08:42:16Z</time>
      </trkpt>
      <trkpt lat="46.41002" lon="6.27308">
        <ele>408</ele>
        <time>2022-09-28T08:42:17Z</time>
      </trkpt>
      <trkpt lat="46.41007" lon="6.27312">
        <ele>408</ele>
        <time>2022-09-28T08:42:18Z</time>
      </trkpt>
      <trkpt lat="46.41011" lon="6.27317">
        <ele>408.1</ele>
        <time>2022-09-28T08:42:19Z</time>
      </trkpt>
      <trkpt lat="46.41015" lon="6.27322">
        <ele>408.1</ele>
        <time>2022-09-28T08:42:20Z</time>
      </trkpt>
      <trkpt lat="46.41019" lon="6.27327">
        <ele>408</ele>
        <time>2022-09-28T08:42:21Z</time>
      </trkpt>
      <trkpt lat="46.41023" lon="6.27331">
        <ele>408</ele>
        <time>2022-09-28T08:42:22Z</time>
      </trkpt>
      <trkpt lat="46.41027" lon="6.27337">
        <ele>408</ele>
        <time>2022-09-28T08:42:23Z</time>
      </trkpt>
      <trkpt lat="46.41031" lon="6.27341">
        <ele>408</ele>
        <time>2022-09-28T08:42:24Z</time>
      </trkpt>
      <trkpt lat="46.41035" lon="6.27346">
        <ele>407.9</ele>
        <time>2022-09-28T08:42:25Z</time>
      </trkpt>
      <trkpt lat="46.41038" lon="6.27351">
        <ele>407.9</ele>
        <time>2022-09-28T08:42:26Z</time>
      </trkpt>
      <trkpt lat="46.41042" lon="6.27355">
        <ele>407.8</ele>
        <time>2022-09-28T08:42:27Z</time>
      </trkpt>
      <trkpt lat="46.41046" lon="6.27359">
        <ele>407.8</ele>
        <time>2022-09-28T08:42:28Z</time>
      </trkpt>
      <trkpt lat="46.4105" lon="6.27364">
        <ele>407.7</ele>
        <time>2022-09-28T08:42:29Z</time>
      </trkpt>
      <trkpt lat="46.41053" lon="6.27368">
        <ele>407.7</ele>
        <time>2022-09-28T08:42:30Z</time>
      </trkpt>
      <trkpt lat="46.41057" lon="6.27373">
        <ele>407.7</ele>
        <time>2022-09-28T08:42:31Z</time>
      </trkpt>
      <trkpt lat="46.41061" lon="6.27377">
        <ele>407.6</ele>
        <time>2022-09-28T08:42:32Z</time>
      </trkpt>
      <trkpt lat="46.41065" lon="6.27381">
        <ele>407.6</ele>
        <time>2022-09-28T08:42:33Z</time>
      </trkpt>
      <trkpt lat="46.41069" lon="6.27386">
        <ele>407.5</ele>
        <time>2022-09-28T08:42:34Z</time>
      </trkpt>
      <trkpt lat="46.41074" lon="6.27392">
        <ele>407.5</ele>
        <time>2022-09-28T08:42:35Z</time>
      </trkpt>
      <trkpt lat="46.41078" lon="6.27396">
        <ele>407.4</ele>
        <time>2022-09-28T08:42:36Z</time>
      </trkpt>
      <trkpt lat="46.41082" lon="6.27401">
        <ele>407.4</ele>
        <time>2022-09-28T08:42:37Z</time>
      </trkpt>
      <trkpt lat="46.41086" lon="6.27406">
        <ele>407.4</ele>
        <time>2022-09-28T08:42:38Z</time>
      </trkpt>
      <trkpt lat="46.4109" lon="6.27411">
        <ele>407.3</ele>
        <time>2022-09-28T08:42:39Z</time>
      </trkpt>
      <trkpt lat="46.41095" lon="6.27417">
        <ele>407.3</ele>
        <time>2022-09-28T08:42:40Z</time>
      </trkpt>
      <trkpt lat="46.41099" lon="6.27422">
        <ele>407.3</ele>
        <time>2022-09-28T08:42:41Z</time>
      </trkpt>
      <trkpt lat="46.41103" lon="6.27426">
        <ele>407.2</ele>
        <time>2022-09-28T08:42:42Z</time>
      </trkpt>
      <trkpt lat="46.41107" lon="6.27431">
        <ele>407.2</ele>
        <time>2022-09-28T08:42:43Z</time>
      </trkpt>
      <trkpt lat="46.41111" lon="6.27435">
        <ele>407.2</ele>
        <time>2022-09-28T08:42:44Z</time>
      </trkpt>
      <trkpt lat="46.41115" lon="6.2744">
        <ele>407.2</ele>
        <time>2022-09-28T08:42:45Z</time>
      </trkpt>
      <trkpt lat="46.4112" lon="6.27444">
        <ele>407.1</ele>
        <time>2022-09-28T08:42:46Z</time>
      </trkpt>
      <trkpt lat="46.41124" lon="6.27449">
        <ele>407.1</ele>
        <time>2022-09-28T08:42:47Z</time>
      </trkpt>
      <trkpt lat="46.41128" lon="6.27454">
        <ele>407.1</ele>
        <time>2022-09-28T08:42:48Z</time>
      </trkpt>
      <trkpt lat="46.41132" lon="6.27459">
        <ele>407</ele>
        <time>2022-09-28T08:42:49Z</time>
      </trkpt>
      <trkpt lat="46.41136" lon="6.27465">
        <ele>407</ele>
        <time>2022-09-28T08:42:50Z</time>
      </trkpt>
      <trkpt lat="46.41141" lon="6.2747">
        <ele>406.9</ele>
        <time>2022-09-28T08:42:51Z</time>
      </trkpt>
      <trkpt lat="46.41145" lon="6.27475">
        <ele>406.8</ele>
        <time>2022-09-28T08:42:52Z</time>
      </trkpt>
      <trkpt lat="46.4115" lon="6.27482">
        <ele>406.8</ele>
        <time>2022-09-28T08:42:53Z</time>
      </trkpt>
      <trkpt lat="46.41155" lon="6.27488">
        <ele>406.7</ele>
        <time>2022-09-28T08:42:54Z</time>
      </trkpt>
      <trkpt lat="46.4116" lon="6.27493">
        <ele>406.7</ele>
        <time>2022-09-28T08:42:55Z</time>
      </trkpt>
      <trkpt lat="46.41165" lon="6.27499">
        <ele>406.6</ele>
        <time>2022-09-28T08:42:56Z</time>
      </trkpt>
      <trkpt lat="46.4117" lon="6.27505">
        <ele>406.6</ele>
        <time>2022-09-28T08:42:57Z</time>
      </trkpt>
      <trkpt lat="46.41175" lon="6.27511">
        <ele>406.5</ele>
        <time>2022-09-28T08:42:58Z</time>
      </trkpt>
      <trkpt lat="46.41179" lon="6.27516">
        <ele>406.5</ele>
        <time>2022-09-28T08:42:59Z</time>
      </trkpt>
      <trkpt lat="46.41183" lon="6.2752">
        <ele>406.4</ele>
        <time>2022-09-28T08:43:00Z</time>
      </trkpt>
      <trkpt lat="46.41188" lon="6.27525">
        <ele>406.4</ele>
        <time>2022-09-28T08:43:01Z</time>
      </trkpt>
      <trkpt lat="46.41192" lon="6.2753">
        <ele>406.3</ele>
        <time>2022-09-28T08:43:02Z</time>
      </trkpt>
      <trkpt lat="46.41197" lon="6.27533">
        <ele>406.3</ele>
        <time>2022-09-28T08:43:03Z</time>
      </trkpt>
      <trkpt lat="46.41201" lon="6.27538">
        <ele>406.2</ele>
        <time>2022-09-28T08:43:04Z</time>
      </trkpt>
      <trkpt lat="46.41206" lon="6.27543">
        <ele>406.2</ele>
        <time>2022-09-28T08:43:05Z</time>
      </trkpt>
      <trkpt lat="46.4121" lon="6.27548">
        <ele>406.1</ele>
        <time>2022-09-28T08:43:06Z</time>
      </trkpt>
      <trkpt lat="46.41215" lon="6.27553">
        <ele>406.1</ele>
        <time>2022-09-28T08:43:07Z</time>
      </trkpt>
      <trkpt lat="46.41219" lon="6.27557">
        <ele>406.1</ele>
        <time>2022-09-28T08:43:08Z</time>
      </trkpt>
      <trkpt lat="46.41222" lon="6.27562">
        <ele>406</ele>
        <time>2022-09-28T08:43:09Z</time>
      </trkpt>
      <trkpt lat="46.41226" lon="6.27566">
        <ele>406</ele>
        <time>2022-09-28T08:43:10Z</time>
      </trkpt>
      <trkpt lat="46.4123" lon="6.27571">
        <ele>406</ele>
        <time>2022-09-28T08:43:11Z</time>
      </trkpt>
      <trkpt lat="46.41234" lon="6.27576">
        <ele>405.9</ele>
        <time>2022-09-28T08:43:12Z</time>
      </trkpt>
      <trkpt lat="46.41238" lon="6.2758">
        <ele>405.9</ele>
        <time>2022-09-28T08:43:13Z</time>
      </trkpt>
      <trkpt lat="46.41242" lon="6.27585">
        <ele>405.9</ele>
        <time>2022-09-28T08:43:14Z</time>
      </trkpt>
      <trkpt lat="46.41246" lon="6.2759">
        <ele>405.9</ele>
        <time>2022-09-28T08:43:15Z</time>
      </trkpt>
      <trkpt lat="46.4125" lon="6.27595">
        <ele>405.8</ele>
        <time>2022-09-28T08:43:16Z</time>
      </trkpt>
      <trkpt lat="46.41255" lon="6.27601">
        <ele>405.8</ele>
        <time>2022-09-28T08:43:17Z</time>
      </trkpt>
      <trkpt lat="46.4126" lon="6.27606">
        <ele>405.8</ele>
        <time>2022-09-28T08:43:18Z</time>
      </trkpt>
      <trkpt lat="46.41263" lon="6.27611">
        <ele>405.7</ele>
        <time>2022-09-28T08:43:19Z</time>
      </trkpt>
      <trkpt lat="46.41267" lon="6.27615">
        <ele>405.7</ele>
        <time>2022-09-28T08:43:20Z</time>
      </trkpt>
      <trkpt lat="46.41271" lon="6.2762">
        <ele>405.6</ele>
        <time>2022-09-28T08:43:21Z</time>
      </trkpt>
      <trkpt lat="46.41274" lon="6.27624">
        <ele>405.6</ele>
        <time>2022-09-28T08:43:22Z</time>
      </trkpt>
      <trkpt lat="46.41278" lon="6.27628">
        <ele>405.5</ele>
        <time>2022-09-28T08:43:23Z</time>
      </trkpt>
      <trkpt lat="46.41281" lon="6.27631">
        <ele>405.5</ele>
        <time>2022-09-28T08:43:24Z</time>
      </trkpt>
      <trkpt lat="46.41283" lon="6.27635">
        <ele>405.4</ele>
        <time>2022-09-28T08:43:25Z</time>
      </trkpt>
      <trkpt lat="46.41284" lon="6.27637">
        <ele>405.4</ele>
        <time>2022-09-28T08:43:26Z</time>
      </trkpt>
      <trkpt lat="46.41285" lon="6.27638">
        <ele>405.4</ele>
        <time>2022-09-28T08:43:27Z</time>
      </trkpt>
      <trkpt lat="46.41285" lon="6.27638">
        <ele>405.4</ele>
        <time>2022-09-28T08:43:28Z</time>
      </trkpt>
      <trkpt lat="46.41285" lon="6.27639">
        <ele>405.4</ele>
        <time>2022-09-28T08:43:29Z</time>
      </trkpt>
      <trkpt lat="46.41286" lon="6.27639">
        <ele>405.4</ele>
        <time>2022-09-28T08:43:30Z</time>
      </trkpt>
      <trkpt lat="46.41286" lon="6.27639">
        <ele>405.4</ele>
        <time>2022-09-28T08:43:31Z</time>
      </trkpt>
      <trkpt lat="46.41286" lon="6.2764">
        <ele>405.4</ele>
        <time>2022-09-28T08:43:32Z</time>
      </trkpt>
      <trkpt lat="46.41286" lon="6.2764">
        <ele>405.4</ele>
        <time>2022-09-28T08:43:33Z</time>
      </trkpt>
      <trkpt lat="46.4129" lon="6.27642">
        <ele>405.3</ele>
        <time>2022-09-28T08:43:34Z</time>
      </trkpt>
      <trkpt lat="46.41293" lon="6.27644">
        <ele>405.3</ele>
        <time>2022-09-28T08:43:35Z</time>
      </trkpt>
      <trkpt lat="46.41296" lon="6.27646">
        <ele>405.3</ele>
        <time>2022-09-28T08:43:36Z</time>
      </trkpt>
      <trkpt lat="46.413" lon="6.27648">
        <ele>405.3</ele>
        <time>2022-09-28T08:45:01Z</time>
      </trkpt>
      <trkpt lat="46.41303" lon="6.2765">
        <ele>405.2</ele>
        <time>2022-09-28T08:45:02Z</time>
      </trkpt>
      <trkpt lat="46.41306" lon="6.27653">
        <ele>405.2</ele>
        <time>2022-09-28T08:45:03Z</time>
      </trkpt>
      <trkpt lat="46.41307" lon="6.27654">
        <ele>405.2</ele>
        <time>2022-09-28T08:45:04Z</time>
      </trkpt>
      <trkpt lat="46.41308" lon="6.27658">
        <ele>405.2</ele>
        <time>2022-09-28T08:45:05Z</time>
      </trkpt>
      <trkpt lat="46.4131" lon="6.27661">
        <ele>405.2</ele>
        <time>2022-09-28T08:45:06Z</time>
      </trkpt>
      <trkpt lat="46.41313" lon="6.27664">
        <ele>405.1</ele>
        <time>2022-09-28T08:45:07Z</time>
      </trkpt>
      <trkpt lat="46.41315" lon="6.27667">
        <ele>405.1</ele>
        <time>2022-09-28T08:45:08Z</time>
      </trkpt>
      <trkpt lat="46.41318" lon="6.2767">
        <ele>405</ele>
        <time>2022-09-28T08:45:09Z</time>
      </trkpt>
      <trkpt lat="46.4132" lon="6.27673">
        <ele>404.9</ele>
        <time>2022-09-28T08:45:10Z</time>
      </trkpt>
      <trkpt lat="46.41323" lon="6.27676">
        <ele>404.9</ele>
        <time>2022-09-28T08:45:11Z</time>
      </trkpt>
      <trkpt lat="46.41324" lon="6.27678">
        <ele>404.9</ele>
        <time>2022-09-28T08:45:12Z</time>
      </trkpt>
      <trkpt lat="46.41327" lon="6.2768">
        <ele>404.8</ele>
        <time>2022-09-28T08:45:13Z</time>
      </trkpt>
      <trkpt lat="46.41329" lon="6.27683">
        <ele>404.7</ele>
        <time>2022-09-28T08:45:14Z</time>
      </trkpt>
      <trkpt lat="46.41332" lon="6.27686">
        <ele>404.6</ele>
        <time>2022-09-28T08:45:15Z</time>
      </trkpt>
      <trkpt lat="46.41334" lon="6.27688">
        <ele>404.6</ele>
        <time>2022-09-28T08:45:16Z</time>
      </trkpt>
      <trkpt lat="46.41337" lon="6.27692">
        <ele>404.5</ele>
        <time>2022-09-28T08:45:17Z</time>
      </trkpt>
      <trkpt lat="46.4134" lon="6.27695">
        <ele>404.4</ele>
        <time>2022-09-28T08:45:18Z</time>
      </trkpt>
      <trkpt lat="46.41343" lon="6.27698">
        <ele>404.4</ele>
        <time>2022-09-28T08:45:19Z</time>
      </trkpt>
      <trkpt lat="46.41346" lon="6.27704">
        <ele>404.4</ele>
        <time>2022-09-28T08:45:20Z</time>
      </trkpt>
      <trkpt lat="46.41351" lon="6.27704">
        <ele>404.3</ele>
        <time>2022-09-28T08:45:21Z</time>
      </trkpt>
      <trkpt lat="46.41353" lon="6.27707">
        <ele>404.3</ele>
        <time>2022-09-28T08:45:22Z</time>
      </trkpt>
      <trkpt lat="46.41356" lon="6.27711">
        <ele>404.3</ele>
        <time>2022-09-28T08:45:23Z</time>
      </trkpt>
      <trkpt lat="46.4136" lon="6.27716">
        <ele>404.3</ele>
        <time>2022-09-28T08:45:24Z</time>
      </trkpt>
      <trkpt lat="46.41363" lon="6.2772">
        <ele>404.2</ele>
        <time>2022-09-28T08:45:25Z</time>
      </trkpt>
      <trkpt lat="46.41367" lon="6.27725">
        <ele>404.2</ele>
        <time>2022-09-28T08:45:26Z</time>
      </trkpt>
      <trkpt lat="46.4137" lon="6.27729">
        <ele>404.2</ele>
        <time>2022-09-28T08:45:27Z</time>
      </trkpt>
      <trkpt lat="46.41374" lon="6.27733">
        <ele>404.1</ele>
        <time>2022-09-28T08:45:28Z</time>
      </trkpt>
      <trkpt lat="46.41377" lon="6.27737">
        <ele>404.1</ele>
        <time>2022-09-28T08:45:29Z</time>
      </trkpt>
      <trkpt lat="46.41381" lon="6.27742">
        <ele>404.1</ele>
        <time>2022-09-28T08:45:30Z</time>
      </trkpt>
      <trkpt lat="46.41384" lon="6.27746">
        <ele>404</ele>
        <time>2022-09-28T08:45:31Z</time>
      </trkpt>
      <trkpt lat="46.41388" lon="6.27751">
        <ele>403.9</ele>
        <time>2022-09-28T08:45:32Z</time>
      </trkpt>
      <trkpt lat="46.41392" lon="6.27756">
        <ele>403.8</ele>
        <time>2022-09-28T08:45:33Z</time>
      </trkpt>
      <trkpt lat="46.41395" lon="6.27759">
        <ele>403.8</ele>
        <time>2022-09-28T08:45:34Z</time>
      </trkpt>
      <trkpt lat="46.414" lon="6.27763">
        <ele>403.7</ele>
        <time>2022-09-28T08:45:35Z</time>
      </trkpt>
      <trkpt lat="46.41403" lon="6.27769">
        <ele>403.6</ele>
        <time>2022-09-28T08:45:36Z</time>
      </trkpt>
      <trkpt lat="46.41407" lon="6.27774">
        <ele>403.5</ele>
        <time>2022-09-28T08:45:37Z</time>
      </trkpt>
      <trkpt lat="46.41412" lon="6.27779">
        <ele>403.4</ele>
        <time>2022-09-28T08:45:38Z</time>
      </trkpt>
      <trkpt lat="46.41416" lon="6.27784">
        <ele>403.4</ele>
        <time>2022-09-28T08:45:39Z</time>
      </trkpt>
      <trkpt lat="46.4142" lon="6.27789">
        <ele>403.3</ele>
        <time>2022-09-28T08:45:40Z</time>
      </trkpt>
      <trkpt lat="46.41425" lon="6.27795">
        <ele>403.2</ele>
        <time>2022-09-28T08:45:41Z</time>
      </trkpt>
      <trkpt lat="46.41429" lon="6.278">
        <ele>403.1</ele>
        <time>2022-09-28T08:45:42Z</time>
      </trkpt>
      <trkpt lat="46.41433" lon="6.27805">
        <ele>403</ele>
        <time>2022-09-28T08:45:43Z</time>
      </trkpt>
      <trkpt lat="46.41437" lon="6.2781">
        <ele>403</ele>
        <time>2022-09-28T08:45:44Z</time>
      </trkpt>
      <trkpt lat="46.41441" lon="6.27815">
        <ele>402.9</ele>
        <time>2022-09-28T08:45:45Z</time>
      </trkpt>
      <trkpt lat="46.41445" lon="6.2782">
        <ele>402.9</ele>
        <time>2022-09-28T08:45:46Z</time>
      </trkpt>
      <trkpt lat="46.41449" lon="6.27825">
        <ele>402.8</ele>
        <time>2022-09-28T08:45:47Z</time>
      </trkpt>
      <trkpt lat="46.41453" lon="6.27831">
        <ele>402.8</ele>
        <time>2022-09-28T08:45:48Z</time>
      </trkpt>
      <trkpt lat="46.41457" lon="6.27836">
        <ele>402.7</ele>
        <time>2022-09-28T08:45:49Z</time>
      </trkpt>
      <trkpt lat="46.4146" lon="6.27842">
        <ele>402.7</ele>
        <time>2022-09-28T08:45:50Z</time>
      </trkpt>
      <trkpt lat="46.41464" lon="6.27848">
        <ele>402.6</ele>
        <time>2022-09-28T08:45:51Z</time>
      </trkpt>
      <trkpt lat="46.41468" lon="6.27853">
        <ele>402.6</ele>
        <time>2022-09-28T08:45:52Z</time>
      </trkpt>
      <trkpt lat="46.41473" lon="6.27857">
        <ele>402.5</ele>
        <time>2022-09-28T08:45:53Z</time>
      </trkpt>
      <trkpt lat="46.41477" lon="6.27863">
        <ele>402.4</ele>
        <time>2022-09-28T08:45:54Z</time>
      </trkpt>
      <trkpt lat="46.41482" lon="6.27868">
        <ele>402.4</ele>
        <time>2022-09-28T08:45:55Z</time>
      </trkpt>
      <trkpt lat="46.41486" lon="6.27874">
        <ele>402.3</ele>
        <time>2022-09-28T08:45:56Z</time>
      </trkpt>
      <trkpt lat="46.4149" lon="6.27879">
        <ele>402.2</ele>
        <time>2022-09-28T08:45:57Z</time>
      </trkpt>
      <trkpt lat="46.41494" lon="6.27884">
        <ele>402.1</ele>
        <time>2022-09-28T08:45:58Z</time>
      </trkpt>
      <trkpt lat="46.41499" lon="6.27889">
        <ele>402.1</ele>
        <time>2022-09-28T08:45:59Z</time>
      </trkpt>
      <trkpt lat="46.41503" lon="6.27894">
        <ele>402</ele>
        <time>2022-09-28T08:46:00Z</time>
      </trkpt>
      <trkpt lat="46.41508" lon="6.27899">
        <ele>401.9</ele>
        <time>2022-09-28T08:46:01Z</time>
      </trkpt>
      <trkpt lat="46.41512" lon="6.27904">
        <ele>401.8</ele>
        <time>2022-09-28T08:46:02Z</time>
      </trkpt>
      <trkpt lat="46.41516" lon="6.27909">
        <ele>401.8</ele>
        <time>2022-09-28T08:46:03Z</time>
      </trkpt>
      <trkpt lat="46.4152" lon="6.27913">
        <ele>401.8</ele>
        <time>2022-09-28T08:46:04Z</time>
      </trkpt>
      <trkpt lat="46.41523" lon="6.27918">
        <ele>401.7</ele>
        <time>2022-09-28T08:46:05Z</time>
      </trkpt>
      <trkpt lat="46.41526" lon="6.27922">
        <ele>401.7</ele>
        <time>2022-09-28T08:46:06Z</time>
      </trkpt>
      <trkpt lat="46.41529" lon="6.27926">
        <ele>401.7</ele>
        <time>2022-09-28T08:46:07Z</time>
      </trkpt>
      <trkpt lat="46.41532" lon="6.27931">
        <ele>401.6</ele>
        <time>2022-09-28T08:46:08Z</time>
      </trkpt>
      <trkpt lat="46.41534" lon="6.27936">
        <ele>401.5</ele>
        <time>2022-09-28T08:46:09Z</time>
      </trkpt>
      <trkpt lat="46.41536" lon="6.27942">
        <ele>401.5</ele>
        <time>2022-09-28T08:46:10Z</time>
      </trkpt>
      <trkpt lat="46.41537" lon="6.27946">
        <ele>401.5</ele>
        <time>2022-09-28T08:46:11Z</time>
      </trkpt>
      <trkpt lat="46.41537" lon="6.27951">
        <ele>401.5</ele>
        <time>2022-09-28T08:46:12Z</time>
      </trkpt>
      <trkpt lat="46.41536" lon="6.27955">
        <ele>401.5</ele>
        <time>2022-09-28T08:46:13Z</time>
      </trkpt>
      <trkpt lat="46.41536" lon="6.27957">
        <ele>401.5</ele>
        <time>2022-09-28T08:46:14Z</time>
      </trkpt>
      <trkpt lat="46.41535" lon="6.27959">
        <ele>401.5</ele>
        <time>2022-09-28T08:46:15Z</time>
      </trkpt>
      <trkpt lat="46.41536" lon="6.27963">
        <ele>401.4</ele>
        <time>2022-09-28T08:46:16Z</time>
      </trkpt>
      <trkpt lat="46.41537" lon="6.27964">
        <ele>401.4</ele>
        <time>2022-09-28T08:46:17Z</time>
      </trkpt>
      <trkpt lat="46.41541" lon="6.27964">
        <ele>401.4</ele>
        <time>2022-09-28T08:46:18Z</time>
      </trkpt>
      <trkpt lat="46.41542" lon="6.27963">
        <ele>401.4</ele>
        <time>2022-09-28T08:46:19Z</time>
      </trkpt>
      <trkpt lat="46.41544" lon="6.27961">
        <ele>401.4</ele>
        <time>2022-09-28T08:46:20Z</time>
      </trkpt>
      <trkpt lat="46.41545" lon="6.2796">
        <ele>401.4</ele>
        <time>2022-09-28T08:46:21Z</time>
      </trkpt>
      <trkpt lat="46.41548" lon="6.27959">
        <ele>401.4</ele>
        <time>2022-09-28T08:46:22Z</time>
      </trkpt>
      <trkpt lat="46.41549" lon="6.27959">
        <ele>401.4</ele>
        <time>2022-09-28T08:46:23Z</time>
      </trkpt>
      <trkpt lat="46.41553" lon="6.27959">
        <ele>401.4</ele>
        <time>2022-09-28T08:46:24Z</time>
      </trkpt>
      <trkpt lat="46.41554" lon="6.2796">
        <ele>401.3</ele>
        <time>2022-09-28T08:46:25Z</time>
      </trkpt>
      <trkpt lat="46.41557" lon="6.27961">
        <ele>401.2</ele>
        <time>2022-09-28T08:46:26Z</time>
      </trkpt>
      <trkpt lat="46.41558" lon="6.27961">
        <ele>401.2</ele>
        <time>2022-09-28T08:46:27Z</time>
      </trkpt>
      <trkpt lat="46.41561" lon="6.27963">
        <ele>401.2</ele>
        <time>2022-09-28T08:46:28Z</time>
      </trkpt>
      <trkpt lat="46.41564" lon="6.27965">
        <ele>401.2</ele>
        <time>2022-09-28T08:46:29Z</time>
      </trkpt>
      <trkpt lat="46.41567" lon="6.27967">
        <ele>401.1</ele>
        <time>2022-09-28T08:46:30Z</time>
      </trkpt>
      <trkpt lat="46.41569" lon="6.2797">
        <ele>401.1</ele>
        <time>2022-09-28T08:46:31Z</time>
      </trkpt>
      <trkpt lat="46.41572" lon="6.27972">
        <ele>401</ele>
        <time>2022-09-28T08:46:32Z</time>
      </trkpt>
      <trkpt lat="46.41575" lon="6.27976">
        <ele>401</ele>
        <time>2022-09-28T08:46:33Z</time>
      </trkpt>
      <trkpt lat="46.41579" lon="6.27979">
        <ele>401</ele>
        <time>2022-09-28T08:46:34Z</time>
      </trkpt>
      <trkpt lat="46.41582" lon="6.27982">
        <ele>400.9</ele>
        <time>2022-09-28T08:46:35Z</time>
      </trkpt>
      <trkpt lat="46.41586" lon="6.27986">
        <ele>400.9</ele>
        <time>2022-09-28T08:46:36Z</time>
      </trkpt>
      <trkpt lat="46.4159" lon="6.27989">
        <ele>400.8</ele>
        <time>2022-09-28T08:46:37Z</time>
      </trkpt>
      <trkpt lat="46.41593" lon="6.27993">
        <ele>400.8</ele>
        <time>2022-09-28T08:46:38Z</time>
      </trkpt>
      <trkpt lat="46.41597" lon="6.27997">
        <ele>400.8</ele>
        <time>2022-09-28T08:46:39Z</time>
      </trkpt>
      <trkpt lat="46.41601" lon="6.28001">
        <ele>400.7</ele>
        <time>2022-09-28T08:46:40Z</time>
      </trkpt>
      <trkpt lat="46.41605" lon="6.28006">
        <ele>400.6</ele>
        <time>2022-09-28T08:46:41Z</time>
      </trkpt>
      <trkpt lat="46.41609" lon="6.28011">
        <ele>400.6</ele>
        <time>2022-09-28T08:46:42Z</time>
      </trkpt>
      <trkpt lat="46.41613" lon="6.28016">
        <ele>400.5</ele>
        <time>2022-09-28T08:46:43Z</time>
      </trkpt>
      <trkpt lat="46.41617" lon="6.28021">
        <ele>400.5</ele>
        <time>2022-09-28T08:46:44Z</time>
      </trkpt>
      <trkpt lat="46.41621" lon="6.28026">
        <ele>400.4</ele>
        <time>2022-09-28T08:46:45Z</time>
      </trkpt>
      <trkpt lat="46.41625" lon="6.28031">
        <ele>400.3</ele>
        <time>2022-09-28T08:46:46Z</time>
      </trkpt>
      <trkpt lat="46.4163" lon="6.28036">
        <ele>400.2</ele>
        <time>2022-09-28T08:46:47Z</time>
      </trkpt>
      <trkpt lat="46.41634" lon="6.28041">
        <ele>400.1</ele>
        <time>2022-09-28T08:46:48Z</time>
      </trkpt>
      <trkpt lat="46.41638" lon="6.28047">
        <ele>400.1</ele>
        <time>2022-09-28T08:46:49Z</time>
      </trkpt>
      <trkpt lat="46.41643" lon="6.28052">
        <ele>400</ele>
        <time>2022-09-28T08:46:50Z</time>
      </trkpt>
      <trkpt lat="46.41647" lon="6.28057">
        <ele>399.9</ele>
        <time>2022-09-28T08:46:51Z</time>
      </trkpt>
      <trkpt lat="46.41652" lon="6.28062">
        <ele>399.9</ele>
        <time>2022-09-28T08:46:52Z</time>
      </trkpt>
      <trkpt lat="46.41656" lon="6.28067">
        <ele>399.8</ele>
        <time>2022-09-28T08:46:53Z</time>
      </trkpt>
      <trkpt lat="46.41661" lon="6.28072">
        <ele>399.7</ele>
        <time>2022-09-28T08:46:54Z</time>
      </trkpt>
      <trkpt lat="46.41665" lon="6.28078">
        <ele>399.7</ele>
        <time>2022-09-28T08:46:55Z</time>
      </trkpt>
      <trkpt lat="46.4167" lon="6.28083">
        <ele>399.6</ele>
        <time>2022-09-28T08:46:56Z</time>
      </trkpt>
      <trkpt lat="46.41674" lon="6.28088">
        <ele>399.5</ele>
        <time>2022-09-28T08:46:57Z</time>
      </trkpt>
      <trkpt lat="46.41678" lon="6.28093">
        <ele>399.5</ele>
        <time>2022-09-28T08:46:58Z</time>
      </trkpt>
      <trkpt lat="46.41683" lon="6.28098">
        <ele>399.4</ele>
        <time>2022-09-28T08:46:59Z</time>
      </trkpt>
      <trkpt lat="46.41687" lon="6.28104">
        <ele>399.4</ele>
        <time>2022-09-28T08:47:00Z</time>
      </trkpt>
      <trkpt lat="46.41692" lon="6.28109">
        <ele>399.3</ele>
        <time>2022-09-28T08:47:01Z</time>
      </trkpt>
      <trkpt lat="46.41697" lon="6.28115">
        <ele>399.2</ele>
        <time>2022-09-28T08:47:02Z</time>
      </trkpt>
      <trkpt lat="46.41702" lon="6.28121">
        <ele>399.2</ele>
        <time>2022-09-28T08:47:03Z</time>
      </trkpt>
      <trkpt lat="46.41707" lon="6.28126">
        <ele>399.1</ele>
        <time>2022-09-28T08:47:04Z</time>
      </trkpt>
      <trkpt lat="46.41712" lon="6.28132">
        <ele>399</ele>
        <time>2022-09-28T08:47:05Z</time>
      </trkpt>
      <trkpt lat="46.41716" lon="6.28138">
        <ele>398.9</ele>
        <time>2022-09-28T08:47:06Z</time>
      </trkpt>
      <trkpt lat="46.41721" lon="6.28144">
        <ele>398.8</ele>
        <time>2022-09-28T08:47:07Z</time>
      </trkpt>
      <trkpt lat="46.41726" lon="6.2815">
        <ele>398.8</ele>
        <time>2022-09-28T08:47:08Z</time>
      </trkpt>
      <trkpt lat="46.41731" lon="6.28156">
        <ele>398.7</ele>
        <time>2022-09-28T08:47:09Z</time>
      </trkpt>
      <trkpt lat="46.41736" lon="6.28161">
        <ele>398.6</ele>
        <time>2022-09-28T08:47:10Z</time>
      </trkpt>
      <trkpt lat="46.41741" lon="6.28167">
        <ele>398.6</ele>
        <time>2022-09-28T08:47:11Z</time>
      </trkpt>
      <trkpt lat="46.41746" lon="6.28173">
        <ele>398.5</ele>
        <time>2022-09-28T08:47:12Z</time>
      </trkpt>
      <trkpt lat="46.41751" lon="6.28179">
        <ele>398.4</ele>
        <time>2022-09-28T08:47:13Z</time>
      </trkpt>
      <trkpt lat="46.41756" lon="6.28184">
        <ele>398.3</ele>
        <time>2022-09-28T08:47:14Z</time>
      </trkpt>
      <trkpt lat="46.41761" lon="6.2819">
        <ele>398.2</ele>
        <time>2022-09-28T08:47:15Z</time>
      </trkpt>
      <trkpt lat="46.41766" lon="6.28196">
        <ele>398.2</ele>
        <time>2022-09-28T08:47:16Z</time>
      </trkpt>
      <trkpt lat="46.41771" lon="6.28202">
        <ele>398.1</ele>
        <time>2022-09-28T08:47:17Z</time>
      </trkpt>
      <trkpt lat="46.41777" lon="6.28208">
        <ele>398</ele>
        <time>2022-09-28T08:47:18Z</time>
      </trkpt>
      <trkpt lat="46.41782" lon="6.28214">
        <ele>397.9</ele>
        <time>2022-09-28T08:47:19Z</time>
      </trkpt>
      <trkpt lat="46.41787" lon="6.28219">
        <ele>397.8</ele>
        <time>2022-09-28T08:47:20Z</time>
      </trkpt>
      <trkpt lat="46.41791" lon="6.28225">
        <ele>397.8</ele>
        <time>2022-09-28T08:47:21Z</time>
      </trkpt>
      <trkpt lat="46.41796" lon="6.28231">
        <ele>397.7</ele>
        <time>2022-09-28T08:47:22Z</time>
      </trkpt>
      <trkpt lat="46.41801" lon="6.28236">
        <ele>397.6</ele>
        <time>2022-09-28T08:47:23Z</time>
      </trkpt>
      <trkpt lat="46.41805" lon="6.28241">
        <ele>397.6</ele>
        <time>2022-09-28T08:47:24Z</time>
      </trkpt>
      <trkpt lat="46.41809" lon="6.28247">
        <ele>397.5</ele>
        <time>2022-09-28T08:47:25Z</time>
      </trkpt>
      <trkpt lat="46.41814" lon="6.28252">
        <ele>397.5</ele>
        <time>2022-09-28T08:47:26Z</time>
      </trkpt>
      <trkpt lat="46.41818" lon="6.28258">
        <ele>397.4</ele>
        <time>2022-09-28T08:47:27Z</time>
      </trkpt>
      <trkpt lat="46.41822" lon="6.28263">
        <ele>397.3</ele>
        <time>2022-09-28T08:47:28Z</time>
      </trkpt>
      <trkpt lat="46.41827" lon="6.28269">
        <ele>397.3</ele>
        <time>2022-09-28T08:47:29Z</time>
      </trkpt>
      <trkpt lat="46.41831" lon="6.28274">
        <ele>397.2</ele>
        <time>2022-09-28T08:47:30Z</time>
      </trkpt>
      <trkpt lat="46.41835" lon="6.28279">
        <ele>397.2</ele>
        <time>2022-09-28T08:47:31Z</time>
      </trkpt>
      <trkpt lat="46.41839" lon="6.28283">
        <ele>397.1</ele>
        <time>2022-09-28T08:47:32Z</time>
      </trkpt>
      <trkpt lat="46.41843" lon="6.28286">
        <ele>397.1</ele>
        <time>2022-09-28T08:47:33Z</time>
      </trkpt>
      <trkpt lat="46.41847" lon="6.28289">
        <ele>397</ele>
        <time>2022-09-28T08:47:34Z</time>
      </trkpt>
      <trkpt lat="46.4185" lon="6.28291">
        <ele>396.9</ele>
        <time>2022-09-28T08:47:35Z</time>
      </trkpt>
      <trkpt lat="46.41854" lon="6.28295">
        <ele>396.9</ele>
        <time>2022-09-28T08:47:36Z</time>
      </trkpt>
      <trkpt lat="46.41856" lon="6.28299">
        <ele>396.8</ele>
        <time>2022-09-28T08:47:37Z</time>
      </trkpt>
      <trkpt lat="46.4186" lon="6.28303">
        <ele>396.8</ele>
        <time>2022-09-28T08:47:38Z</time>
      </trkpt>
      <trkpt lat="46.41864" lon="6.28308">
        <ele>396.7</ele>
        <time>2022-09-28T08:47:39Z</time>
      </trkpt>
      <trkpt lat="46.41867" lon="6.28312">
        <ele>396.6</ele>
        <time>2022-09-28T08:47:40Z</time>
      </trkpt>
      <trkpt lat="46.41872" lon="6.28316">
        <ele>396.5</ele>
        <time>2022-09-28T08:47:41Z</time>
      </trkpt>
      <trkpt lat="46.41875" lon="6.28321">
        <ele>396.4</ele>
        <time>2022-09-28T08:47:42Z</time>
      </trkpt>
      <trkpt lat="46.41879" lon="6.28325">
        <ele>396.4</ele>
        <time>2022-09-28T08:47:43Z</time>
      </trkpt>
      <trkpt lat="46.41883" lon="6.2833">
        <ele>396.3</ele>
        <time>2022-09-28T08:47:44Z</time>
      </trkpt>
      <trkpt lat="46.41887" lon="6.28334">
        <ele>396.2</ele>
        <time>2022-09-28T08:47:45Z</time>
      </trkpt>
      <trkpt lat="46.41892" lon="6.2834">
        <ele>396.2</ele>
        <time>2022-09-28T08:47:46Z</time>
      </trkpt>
      <trkpt lat="46.41897" lon="6.28345">
        <ele>396.1</ele>
        <time>2022-09-28T08:47:47Z</time>
      </trkpt>
      <trkpt lat="46.41901" lon="6.2835">
        <ele>396</ele>
        <time>2022-09-28T08:47:48Z</time>
      </trkpt>
      <trkpt lat="46.41905" lon="6.28355">
        <ele>396</ele>
        <time>2022-09-28T08:47:49Z</time>
      </trkpt>
      <trkpt lat="46.41909" lon="6.28359">
        <ele>395.9</ele>
        <time>2022-09-28T08:47:50Z</time>
      </trkpt>
      <trkpt lat="46.41914" lon="6.28364">
        <ele>395.9</ele>
        <time>2022-09-28T08:47:51Z</time>
      </trkpt>
      <trkpt lat="46.41919" lon="6.2837">
        <ele>395.8</ele>
        <time>2022-09-28T08:47:52Z</time>
      </trkpt>
      <trkpt lat="46.41923" lon="6.28375">
        <ele>395.8</ele>
        <time>2022-09-28T08:47:53Z</time>
      </trkpt>
      <trkpt lat="46.41927" lon="6.28381">
        <ele>395.7</ele>
        <time>2022-09-28T08:47:54Z</time>
      </trkpt>
      <trkpt lat="46.41931" lon="6.28386">
        <ele>395.7</ele>
        <time>2022-09-28T08:47:55Z</time>
      </trkpt>
      <trkpt lat="46.41936" lon="6.28391">
        <ele>395.6</ele>
        <time>2022-09-28T08:47:56Z</time>
      </trkpt>
      <trkpt lat="46.4194" lon="6.28396">
        <ele>395.5</ele>
        <time>2022-09-28T08:47:57Z</time>
      </trkpt>
      <trkpt lat="46.41945" lon="6.28401">
        <ele>395.5</ele>
        <time>2022-09-28T08:47:58Z</time>
      </trkpt>
      <trkpt lat="46.41949" lon="6.28406">
        <ele>395.4</ele>
        <time>2022-09-28T08:47:59Z</time>
      </trkpt>
      <trkpt lat="46.41952" lon="6.2841">
        <ele>395.4</ele>
        <time>2022-09-28T08:48:00Z</time>
      </trkpt>
      <trkpt lat="46.41956" lon="6.28415">
        <ele>395.3</ele>
        <time>2022-09-28T08:48:01Z</time>
      </trkpt>
      <trkpt lat="46.4196" lon="6.28418">
        <ele>395.3</ele>
        <time>2022-09-28T08:48:02Z</time>
      </trkpt>
      <trkpt lat="46.41963" lon="6.28422">
        <ele>395.3</ele>
        <time>2022-09-28T08:48:03Z</time>
      </trkpt>
      <trkpt lat="46.41966" lon="6.28426">
        <ele>395.3</ele>
        <time>2022-09-28T08:48:04Z</time>
      </trkpt>
      <trkpt lat="46.41968" lon="6.28431">
        <ele>395.2</ele>
        <time>2022-09-28T08:48:05Z</time>
      </trkpt>
      <trkpt lat="46.4197" lon="6.28435">
        <ele>395.2</ele>
        <time>2022-09-28T08:48:06Z</time>
      </trkpt>
      <trkpt lat="46.41972" lon="6.28439">
        <ele>395.2</ele>
        <time>2022-09-28T08:48:07Z</time>
      </trkpt>
      <trkpt lat="46.41973" lon="6.28444">
        <ele>395.2</ele>
        <time>2022-09-28T08:48:08Z</time>
      </trkpt>
      <trkpt lat="46.41975" lon="6.28449">
        <ele>395</ele>
        <time>2022-09-28T08:48:09Z</time>
      </trkpt>
      <trkpt lat="46.41975" lon="6.28454">
        <ele>395</ele>
        <time>2022-09-28T08:48:10Z</time>
      </trkpt>
      <trkpt lat="46.41976" lon="6.28458">
        <ele>395</ele>
        <time>2022-09-28T08:48:11Z</time>
      </trkpt>
      <trkpt lat="46.41977" lon="6.28462">
        <ele>395</ele>
        <time>2022-09-28T08:48:12Z</time>
      </trkpt>
      <trkpt lat="46.41978" lon="6.28466">
        <ele>394.9</ele>
        <time>2022-09-28T08:48:13Z</time>
      </trkpt>
      <trkpt lat="46.41978" lon="6.28468">
        <ele>394.9</ele>
        <time>2022-09-28T08:48:14Z</time>
      </trkpt>
      <trkpt lat="46.41979" lon="6.2847">
        <ele>394.9</ele>
        <time>2022-09-28T08:48:15Z</time>
      </trkpt>
      <trkpt lat="46.4198" lon="6.2847">
        <ele>394.9</ele>
        <time>2022-09-28T08:48:16Z</time>
      </trkpt>
      <trkpt lat="46.41981" lon="6.28471">
        <ele>394.9</ele>
        <time>2022-09-28T08:48:17Z</time>
      </trkpt>
      <trkpt lat="46.41981" lon="6.28471">
        <ele>394.9</ele>
        <time>2022-09-28T08:48:18Z</time>
      </trkpt>
      <trkpt lat="46.41982" lon="6.28471">
        <ele>394.9</ele>
        <time>2022-09-28T08:48:19Z</time>
      </trkpt>
      <trkpt lat="46.41983" lon="6.28472">
        <ele>394.9</ele>
        <time>2022-09-28T08:48:20Z</time>
      </trkpt>
      <trkpt lat="46.41984" lon="6.28472">
        <ele>394.9</ele>
        <time>2022-09-28T08:48:21Z</time>
      </trkpt>
      <trkpt lat="46.41984" lon="6.28472">
        <ele>394.9</ele>
        <time>2022-09-28T08:48:22Z</time>
      </trkpt>
      <trkpt lat="46.41985" lon="6.28473">
        <ele>394.9</ele>
        <time>2022-09-28T08:48:23Z</time>
      </trkpt>
      <trkpt lat="46.41986" lon="6.28473">
        <ele>394.9</ele>
        <time>2022-09-28T08:48:24Z</time>
      </trkpt>
      <trkpt lat="46.41987" lon="6.28473">
        <ele>394.9</ele>
        <time>2022-09-28T08:48:25Z</time>
      </trkpt>
      <trkpt lat="46.41988" lon="6.28474">
        <ele>394.9</ele>
        <time>2022-09-28T08:49:39Z</time>
      </trkpt>
      <trkpt lat="46.41988" lon="6.28474">
        <ele>394.9</ele>
        <time>2022-09-28T08:49:40Z</time>
      </trkpt>
      <trkpt lat="46.4199" lon="6.28472">
        <ele>394.9</ele>
        <time>2022-09-28T08:49:41Z</time>
      </trkpt>
      <trkpt lat="46.4199" lon="6.28471">
        <ele>394.9</ele>
        <time>2022-09-28T08:49:42Z</time>
      </trkpt>
      <trkpt lat="46.41991" lon="6.28469">
        <ele>394.9</ele>
        <time>2022-09-28T08:49:43Z</time>
      </trkpt>
      <trkpt lat="46.41994" lon="6.2847">
        <ele>394.8</ele>
        <time>2022-09-28T08:49:44Z</time>
      </trkpt>
      <trkpt lat="46.41996" lon="6.28469">
        <ele>394.8</ele>
        <time>2022-09-28T08:49:45Z</time>
      </trkpt>
      <trkpt lat="46.42" lon="6.2847">
        <ele>394.7</ele>
        <time>2022-09-28T08:49:46Z</time>
      </trkpt>
      <trkpt lat="46.42002" lon="6.28471">
        <ele>394.7</ele>
        <time>2022-09-28T08:49:47Z</time>
      </trkpt>
      <trkpt lat="46.42005" lon="6.28472">
        <ele>394.6</ele>
        <time>2022-09-28T08:49:48Z</time>
      </trkpt>
      <trkpt lat="46.42007" lon="6.28476">
        <ele>394.6</ele>
        <time>2022-09-28T08:49:49Z</time>
      </trkpt>
      <trkpt lat="46.42011" lon="6.28479">
        <ele>394.5</ele>
        <time>2022-09-28T08:49:50Z</time>
      </trkpt>
      <trkpt lat="46.42013" lon="6.28483">
        <ele>394.5</ele>
        <time>2022-09-28T08:49:51Z</time>
      </trkpt>
      <trkpt lat="46.42016" lon="6.28487">
        <ele>394.4</ele>
        <time>2022-09-28T08:49:52Z</time>
      </trkpt>
      <trkpt lat="46.4202" lon="6.2849">
        <ele>394.4</ele>
        <time>2022-09-28T08:49:53Z</time>
      </trkpt>
      <trkpt lat="46.42023" lon="6.28494">
        <ele>394.3</ele>
        <time>2022-09-28T08:49:54Z</time>
      </trkpt>
      <trkpt lat="46.42027" lon="6.28498">
        <ele>394.3</ele>
        <time>2022-09-28T08:49:55Z</time>
      </trkpt>
      <trkpt lat="46.4203" lon="6.28502">
        <ele>394.2</ele>
        <time>2022-09-28T08:49:56Z</time>
      </trkpt>
      <trkpt lat="46.42034" lon="6.28506">
        <ele>394.2</ele>
        <time>2022-09-28T08:49:57Z</time>
      </trkpt>
      <trkpt lat="46.42037" lon="6.28511">
        <ele>394.1</ele>
        <time>2022-09-28T08:49:58Z</time>
      </trkpt>
      <trkpt lat="46.42042" lon="6.28515">
        <ele>394.1</ele>
        <time>2022-09-28T08:49:59Z</time>
      </trkpt>
      <trkpt lat="46.42046" lon="6.2852">
        <ele>394</ele>
        <time>2022-09-28T08:50:00Z</time>
      </trkpt>
      <trkpt lat="46.4205" lon="6.28525">
        <ele>394</ele>
        <time>2022-09-28T08:50:01Z</time>
      </trkpt>
      <trkpt lat="46.42054" lon="6.28529">
        <ele>393.9</ele>
        <time>2022-09-28T08:50:02Z</time>
      </trkpt>
      <trkpt lat="46.42058" lon="6.28534">
        <ele>393.8</ele>
        <time>2022-09-28T08:50:03Z</time>
      </trkpt>
      <trkpt lat="46.42062" lon="6.28539">
        <ele>393.8</ele>
        <time>2022-09-28T08:50:04Z</time>
      </trkpt>
      <trkpt lat="46.42067" lon="6.28545">
        <ele>393.7</ele>
        <time>2022-09-28T08:50:05Z</time>
      </trkpt>
      <trkpt lat="46.42071" lon="6.2855">
        <ele>393.6</ele>
        <time>2022-09-28T08:50:06Z</time>
      </trkpt>
      <trkpt lat="46.42076" lon="6.28556">
        <ele>393.6</ele>
        <time>2022-09-28T08:50:07Z</time>
      </trkpt>
      <trkpt lat="46.4208" lon="6.28561">
        <ele>393.5</ele>
        <time>2022-09-28T08:50:08Z</time>
      </trkpt>
      <trkpt lat="46.42085" lon="6.28566">
        <ele>393.4</ele>
        <time>2022-09-28T08:50:09Z</time>
      </trkpt>
      <trkpt lat="46.4209" lon="6.28572">
        <ele>393.4</ele>
        <time>2022-09-28T08:50:10Z</time>
      </trkpt>
      <trkpt lat="46.42094" lon="6.28577">
        <ele>393.3</ele>
        <time>2022-09-28T08:50:11Z</time>
      </trkpt>
      <trkpt lat="46.42099" lon="6.28583">
        <ele>393.2</ele>
        <time>2022-09-28T08:50:12Z</time>
      </trkpt>
      <trkpt lat="46.42104" lon="6.28588">
        <ele>393.1</ele>
        <time>2022-09-28T08:50:13Z</time>
      </trkpt>
      <trkpt lat="46.42109" lon="6.28594">
        <ele>393.1</ele>
        <time>2022-09-28T08:50:14Z</time>
      </trkpt>
      <trkpt lat="46.42114" lon="6.28599">
        <ele>393</ele>
        <time>2022-09-28T08:50:15Z</time>
      </trkpt>
      <trkpt lat="46.42119" lon="6.28605">
        <ele>392.9</ele>
        <time>2022-09-28T08:50:16Z</time>
      </trkpt>
      <trkpt lat="46.42124" lon="6.28611">
        <ele>392.8</ele>
        <time>2022-09-28T08:50:17Z</time>
      </trkpt>
      <trkpt lat="46.42129" lon="6.28616">
        <ele>392.7</ele>
        <time>2022-09-28T08:50:18Z</time>
      </trkpt>
      <trkpt lat="46.42134" lon="6.28623">
        <ele>392.6</ele>
        <time>2022-09-28T08:50:19Z</time>
      </trkpt>
      <trkpt lat="46.42139" lon="6.28629">
        <ele>392.4</ele>
        <time>2022-09-28T08:50:20Z</time>
      </trkpt>
      <trkpt lat="46.42144" lon="6.28635">
        <ele>392.3</ele>
        <time>2022-09-28T08:50:21Z</time>
      </trkpt>
      <trkpt lat="46.4215" lon="6.28641">
        <ele>392.2</ele>
        <time>2022-09-28T08:50:22Z</time>
      </trkpt>
      <trkpt lat="46.42155" lon="6.28647">
        <ele>392.1</ele>
        <time>2022-09-28T08:50:23Z</time>
      </trkpt>
      <trkpt lat="46.42161" lon="6.28653">
        <ele>392</ele>
        <time>2022-09-28T08:50:24Z</time>
      </trkpt>
      <trkpt lat="46.42166" lon="6.2866">
        <ele>391.8</ele>
        <time>2022-09-28T08:50:25Z</time>
      </trkpt>
      <trkpt lat="46.42171" lon="6.28666">
        <ele>391.7</ele>
        <time>2022-09-28T08:50:26Z</time>
      </trkpt>
      <trkpt lat="46.42177" lon="6.28672">
        <ele>391.6</ele>
        <time>2022-09-28T08:50:27Z</time>
      </trkpt>
      <trkpt lat="46.42183" lon="6.28679">
        <ele>391.5</ele>
        <time>2022-09-28T08:50:28Z</time>
      </trkpt>
      <trkpt lat="46.42189" lon="6.28685">
        <ele>391.4</ele>
        <time>2022-09-28T08:50:29Z</time>
      </trkpt>
      <trkpt lat="46.42194" lon="6.28692">
        <ele>391.3</ele>
        <time>2022-09-28T08:50:30Z</time>
      </trkpt>
      <trkpt lat="46.42199" lon="6.28698">
        <ele>391.2</ele>
        <time>2022-09-28T08:50:31Z</time>
      </trkpt>
      <trkpt lat="46.42203" lon="6.28704">
        <ele>391.1</ele>
        <time>2022-09-28T08:50:32Z</time>
      </trkpt>
      <trkpt lat="46.42208" lon="6.2871">
        <ele>391.1</ele>
        <time>2022-09-28T08:50:33Z</time>
      </trkpt>
      <trkpt lat="46.42212" lon="6.28716">
        <ele>391</ele>
        <time>2022-09-28T08:50:34Z</time>
      </trkpt>
      <trkpt lat="46.42217" lon="6.28722">
        <ele>391</ele>
        <time>2022-09-28T08:50:35Z</time>
      </trkpt>
      <trkpt lat="46.42221" lon="6.28728">
        <ele>390.9</ele>
        <time>2022-09-28T08:50:36Z</time>
      </trkpt>
      <trkpt lat="46.42225" lon="6.28734">
        <ele>390.9</ele>
        <time>2022-09-28T08:50:37Z</time>
      </trkpt>
      <trkpt lat="46.42229" lon="6.28739">
        <ele>390.8</ele>
        <time>2022-09-28T08:50:38Z</time>
      </trkpt>
      <trkpt lat="46.42233" lon="6.28745">
        <ele>390.8</ele>
        <time>2022-09-28T08:50:39Z</time>
      </trkpt>
      <trkpt lat="46.42237" lon="6.28751">
        <ele>390.7</ele>
        <time>2022-09-28T08:50:40Z</time>
      </trkpt>
      <trkpt lat="46.4224" lon="6.28756">
        <ele>390.7</ele>
        <time>2022-09-28T08:50:41Z</time>
      </trkpt>
      <trkpt lat="46.42244" lon="6.28762">
        <ele>390.7</ele>
        <time>2022-09-28T08:50:42Z</time>
      </trkpt>
      <trkpt lat="46.42249" lon="6.28768">
        <ele>390.7</ele>
        <time>2022-09-28T08:50:43Z</time>
      </trkpt>
      <trkpt lat="46.42253" lon="6.28774">
        <ele>390.7</ele>
        <time>2022-09-28T08:50:44Z</time>
      </trkpt>
      <trkpt lat="46.42257" lon="6.28781">
        <ele>390.7</ele>
        <time>2022-09-28T08:50:45Z</time>
      </trkpt>
      <trkpt lat="46.42261" lon="6.28787">
        <ele>390.7</ele>
        <time>2022-09-28T08:50:46Z</time>
      </trkpt>
      <trkpt lat="46.42266" lon="6.28793">
        <ele>390.7</ele>
        <time>2022-09-28T08:50:47Z</time>
      </trkpt>
      <trkpt lat="46.4227" lon="6.28799">
        <ele>390.7</ele>
        <time>2022-09-28T08:50:48Z</time>
      </trkpt>
      <trkpt lat="46.42274" lon="6.28805">
        <ele>390.7</ele>
        <time>2022-09-28T08:50:49Z</time>
      </trkpt>
      <trkpt lat="46.42278" lon="6.28811">
        <ele>390.8</ele>
        <time>2022-09-28T08:50:50Z</time>
      </trkpt>
      <trkpt lat="46.42282" lon="6.28817">
        <ele>390.8</ele>
        <time>2022-09-28T08:50:51Z</time>
      </trkpt>
      <trkpt lat="46.42286" lon="6.28823">
        <ele>390.9</ele>
        <time>2022-09-28T08:50:52Z</time>
      </trkpt>
      <trkpt lat="46.42289" lon="6.28829">
        <ele>390.9</ele>
        <time>2022-09-28T08:50:53Z</time>
      </trkpt>
      <trkpt lat="46.42293" lon="6.28835">
        <ele>391</ele>
        <time>2022-09-28T08:50:54Z</time>
      </trkpt>
      <trkpt lat="46.42297" lon="6.28841">
        <ele>391</ele>
        <time>2022-09-28T08:50:55Z</time>
      </trkpt>
      <trkpt lat="46.42301" lon="6.28847">
        <ele>391.1</ele>
        <time>2022-09-28T08:50:56Z</time>
      </trkpt>
      <trkpt lat="46.42304" lon="6.28853">
        <ele>391.1</ele>
        <time>2022-09-28T08:50:57Z</time>
      </trkpt>
      <trkpt lat="46.42308" lon="6.28859">
        <ele>391.1</ele>
        <time>2022-09-28T08:50:58Z</time>
      </trkpt>
      <trkpt lat="46.42312" lon="6.28865">
        <ele>391.1</ele>
        <time>2022-09-28T08:50:59Z</time>
      </trkpt>
      <trkpt lat="46.42315" lon="6.28871">
        <ele>391.2</ele>
        <time>2022-09-28T08:51:00Z</time>
      </trkpt>
      <trkpt lat="46.42319" lon="6.28877">
        <ele>391.2</ele>
        <time>2022-09-28T08:51:01Z</time>
      </trkpt>
      <trkpt lat="46.42322" lon="6.28883">
        <ele>391.2</ele>
        <time>2022-09-28T08:51:02Z</time>
      </trkpt>
      <trkpt lat="46.42326" lon="6.28889">
        <ele>391.3</ele>
        <time>2022-09-28T08:51:03Z</time>
      </trkpt>
      <trkpt lat="46.4233" lon="6.28896">
        <ele>391.3</ele>
        <time>2022-09-28T08:51:04Z</time>
      </trkpt>
      <trkpt lat="46.42334" lon="6.28902">
        <ele>391.3</ele>
        <time>2022-09-28T08:51:05Z</time>
      </trkpt>
      <trkpt lat="46.42338" lon="6.28908">
        <ele>391.3</ele>
        <time>2022-09-28T08:51:06Z</time>
      </trkpt>
      <trkpt lat="46.42342" lon="6.28914">
        <ele>391.4</ele>
        <time>2022-09-28T08:51:07Z</time>
      </trkpt>
      <trkpt lat="46.42346" lon="6.28921">
        <ele>391.4</ele>
        <time>2022-09-28T08:51:08Z</time>
      </trkpt>
      <trkpt lat="46.42349" lon="6.28927">
        <ele>391.4</ele>
        <time>2022-09-28T08:51:09Z</time>
      </trkpt>
      <trkpt lat="46.42353" lon="6.28933">
        <ele>391.4</ele>
        <time>2022-09-28T08:51:10Z</time>
      </trkpt>
      <trkpt lat="46.42357" lon="6.28939">
        <ele>391.5</ele>
        <time>2022-09-28T08:51:11Z</time>
      </trkpt>
      <trkpt lat="46.42361" lon="6.28946">
        <ele>391.5</ele>
        <time>2022-09-28T08:51:12Z</time>
      </trkpt>
      <trkpt lat="46.42366" lon="6.28952">
        <ele>391.5</ele>
        <time>2022-09-28T08:51:13Z</time>
      </trkpt>
      <trkpt lat="46.42369" lon="6.28958">
        <ele>391.5</ele>
        <time>2022-09-28T08:51:14Z</time>
      </trkpt>
      <trkpt lat="46.42373" lon="6.28964">
        <ele>391.5</ele>
        <time>2022-09-28T08:51:15Z</time>
      </trkpt>
      <trkpt lat="46.42377" lon="6.28971">
        <ele>391.5</ele>
        <time>2022-09-28T08:51:16Z</time>
      </trkpt>
      <trkpt lat="46.42381" lon="6.28977">
        <ele>391.5</ele>
        <time>2022-09-28T08:51:17Z</time>
      </trkpt>
      <trkpt lat="46.42385" lon="6.28984">
        <ele>391.6</ele>
        <time>2022-09-28T08:51:18Z</time>
      </trkpt>
      <trkpt lat="46.42389" lon="6.2899">
        <ele>391.6</ele>
        <time>2022-09-28T08:51:19Z</time>
      </trkpt>
      <trkpt lat="46.42393" lon="6.28995">
        <ele>391.6</ele>
        <time>2022-09-28T08:51:20Z</time>
      </trkpt>
      <trkpt lat="46.42397" lon="6.29001">
        <ele>391.6</ele>
        <time>2022-09-28T08:51:21Z</time>
      </trkpt>
      <trkpt lat="46.424" lon="6.29007">
        <ele>391.6</ele>
        <time>2022-09-28T08:51:22Z</time>
      </trkpt>
      <trkpt lat="46.42404" lon="6.29013">
        <ele>391.7</ele>
        <time>2022-09-28T08:51:23Z</time>
      </trkpt>
      <trkpt lat="46.42407" lon="6.29019">
        <ele>391.7</ele>
        <time>2022-09-28T08:51:24Z</time>
      </trkpt>
      <trkpt lat="46.4241" lon="6.29025">
        <ele>391.7</ele>
        <time>2022-09-28T08:51:25Z</time>
      </trkpt>
      <trkpt lat="46.42414" lon="6.29031">
        <ele>391.7</ele>
        <time>2022-09-28T08:51:26Z</time>
      </trkpt>
      <trkpt lat="46.42418" lon="6.29038">
        <ele>391.7</ele>
        <time>2022-09-28T08:51:27Z</time>
      </trkpt>
      <trkpt lat="46.42423" lon="6.29044">
        <ele>391.7</ele>
        <time>2022-09-28T08:51:28Z</time>
      </trkpt>
      <trkpt lat="46.42427" lon="6.2905">
        <ele>391.7</ele>
        <time>2022-09-28T08:51:29Z</time>
      </trkpt>
      <trkpt lat="46.42431" lon="6.29056">
        <ele>391.7</ele>
        <time>2022-09-28T08:51:30Z</time>
      </trkpt>
      <trkpt lat="46.42435" lon="6.29062">
        <ele>391.7</ele>
        <time>2022-09-28T08:51:31Z</time>
      </trkpt>
      <trkpt lat="46.42439" lon="6.29068">
        <ele>391.7</ele>
        <time>2022-09-28T08:51:32Z</time>
      </trkpt>
      <trkpt lat="46.42444" lon="6.29074">
        <ele>391.7</ele>
        <time>2022-09-28T08:51:33Z</time>
      </trkpt>
      <trkpt lat="46.42447" lon="6.2908">
        <ele>391.7</ele>
        <time>2022-09-28T08:51:34Z</time>
      </trkpt>
      <trkpt lat="46.42451" lon="6.29087">
        <ele>391.7</ele>
        <time>2022-09-28T08:51:35Z</time>
      </trkpt>
      <trkpt lat="46.42455" lon="6.29093">
        <ele>391.7</ele>
        <time>2022-09-28T08:51:36Z</time>
      </trkpt>
      <trkpt lat="46.4246" lon="6.29099">
        <ele>391.7</ele>
        <time>2022-09-28T08:51:37Z</time>
      </trkpt>
      <trkpt lat="46.42464" lon="6.29105">
        <ele>391.7</ele>
        <time>2022-09-28T08:51:38Z</time>
      </trkpt>
      <trkpt lat="46.42467" lon="6.29112">
        <ele>391.7</ele>
        <time>2022-09-28T08:51:39Z</time>
      </trkpt>
      <trkpt lat="46.42472" lon="6.29118">
        <ele>391.7</ele>
        <time>2022-09-28T08:51:40Z</time>
      </trkpt>
      <trkpt lat="46.42476" lon="6.29125">
        <ele>391.7</ele>
        <time>2022-09-28T08:51:41Z</time>
      </trkpt>
      <trkpt lat="46.4248" lon="6.29131">
        <ele>391.7</ele>
        <time>2022-09-28T08:51:42Z</time>
      </trkpt>
      <trkpt lat="46.42485" lon="6.29138">
        <ele>391.6</ele>
        <time>2022-09-28T08:51:43Z</time>
      </trkpt>
      <trkpt lat="46.42489" lon="6.29145">
        <ele>391.6</ele>
        <time>2022-09-28T08:51:44Z</time>
      </trkpt>
      <trkpt lat="46.42493" lon="6.29152">
        <ele>391.6</ele>
        <time>2022-09-28T08:51:45Z</time>
      </trkpt>
      <trkpt lat="46.42497" lon="6.29159">
        <ele>391.5</ele>
        <time>2022-09-28T08:51:46Z</time>
      </trkpt>
      <trkpt lat="46.42502" lon="6.29165">
        <ele>391.5</ele>
        <time>2022-09-28T08:51:47Z</time>
      </trkpt>
      <trkpt lat="46.42506" lon="6.29172">
        <ele>391.4</ele>
        <time>2022-09-28T08:51:48Z</time>
      </trkpt>
      <trkpt lat="46.4251" lon="6.29179">
        <ele>391.4</ele>
        <time>2022-09-28T08:51:49Z</time>
      </trkpt>
      <trkpt lat="46.42514" lon="6.29185">
        <ele>391.3</ele>
        <time>2022-09-28T08:51:50Z</time>
      </trkpt>
      <trkpt lat="46.42518" lon="6.29192">
        <ele>391.2</ele>
        <time>2022-09-28T08:51:51Z</time>
      </trkpt>
      <trkpt lat="46.42522" lon="6.29199">
        <ele>391.2</ele>
        <time>2022-09-28T08:51:52Z</time>
      </trkpt>
      <trkpt lat="46.42526" lon="6.29206">
        <ele>391.2</ele>
        <time>2022-09-28T08:51:53Z</time>
      </trkpt>
      <trkpt lat="46.4253" lon="6.29213">
        <ele>391.1</ele>
        <time>2022-09-28T08:51:54Z</time>
      </trkpt>
      <trkpt lat="46.42534" lon="6.2922">
        <ele>391.1</ele>
        <time>2022-09-28T08:51:55Z</time>
      </trkpt>
      <trkpt lat="46.42538" lon="6.29227">
        <ele>391</ele>
        <time>2022-09-28T08:51:56Z</time>
      </trkpt>
      <trkpt lat="46.42542" lon="6.29234">
        <ele>391</ele>
        <time>2022-09-28T08:51:57Z</time>
      </trkpt>
      <trkpt lat="46.42546" lon="6.29241">
        <ele>391</ele>
        <time>2022-09-28T08:51:58Z</time>
      </trkpt>
      <trkpt lat="46.4255" lon="6.29249">
        <ele>390.9</ele>
        <time>2022-09-28T08:51:59Z</time>
      </trkpt>
      <trkpt lat="46.42554" lon="6.29256">
        <ele>390.9</ele>
        <time>2022-09-28T08:52:00Z</time>
      </trkpt>
      <trkpt lat="46.42557" lon="6.29263">
        <ele>390.9</ele>
        <time>2022-09-28T08:52:01Z</time>
      </trkpt>
      <trkpt lat="46.42561" lon="6.29271">
        <ele>390.9</ele>
        <time>2022-09-28T08:52:02Z</time>
      </trkpt>
      <trkpt lat="46.42565" lon="6.29278">
        <ele>390.8</ele>
        <time>2022-09-28T08:52:03Z</time>
      </trkpt>
      <trkpt lat="46.42568" lon="6.29285">
        <ele>390.8</ele>
        <time>2022-09-28T08:52:04Z</time>
      </trkpt>
      <trkpt lat="46.42572" lon="6.29293">
        <ele>390.8</ele>
        <time>2022-09-28T08:52:05Z</time>
      </trkpt>
      <trkpt lat="46.42575" lon="6.293">
        <ele>390.7</ele>
        <time>2022-09-28T08:52:06Z</time>
      </trkpt>
      <trkpt lat="46.42579" lon="6.29307">
        <ele>390.7</ele>
        <time>2022-09-28T08:52:07Z</time>
      </trkpt>
      <trkpt lat="46.42582" lon="6.29315">
        <ele>390.6</ele>
        <time>2022-09-28T08:52:08Z</time>
      </trkpt>
      <trkpt lat="46.42586" lon="6.29323">
        <ele>390.5</ele>
        <time>2022-09-28T08:52:09Z</time>
      </trkpt>
      <trkpt lat="46.42589" lon="6.2933">
        <ele>390.4</ele>
        <time>2022-09-28T08:52:10Z</time>
      </trkpt>
      <trkpt lat="46.42592" lon="6.29338">
        <ele>390.4</ele>
        <time>2022-09-28T08:52:11Z</time>
      </trkpt>
      <trkpt lat="46.42596" lon="6.29345">
        <ele>390.3</ele>
        <time>2022-09-28T08:52:12Z</time>
      </trkpt>
      <trkpt lat="46.42599" lon="6.29353">
        <ele>390.2</ele>
        <time>2022-09-28T08:52:13Z</time>
      </trkpt>
      <trkpt lat="46.42602" lon="6.2936">
        <ele>390.1</ele>
        <time>2022-09-28T08:52:14Z</time>
      </trkpt>
      <trkpt lat="46.42605" lon="6.29368">
        <ele>390.1</ele>
        <time>2022-09-28T08:52:15Z</time>
      </trkpt>
      <trkpt lat="46.42608" lon="6.29376">
        <ele>390</ele>
        <time>2022-09-28T08:52:16Z</time>
      </trkpt>
      <trkpt lat="46.42611" lon="6.29383">
        <ele>389.9</ele>
        <time>2022-09-28T08:52:17Z</time>
      </trkpt>
      <trkpt lat="46.42614" lon="6.29391">
        <ele>389.9</ele>
        <time>2022-09-28T08:52:18Z</time>
      </trkpt>
      <trkpt lat="46.42617" lon="6.29398">
        <ele>389.8</ele>
        <time>2022-09-28T08:52:19Z</time>
      </trkpt>
      <trkpt lat="46.4262" lon="6.29406">
        <ele>389.8</ele>
        <time>2022-09-28T08:52:20Z</time>
      </trkpt>
      <trkpt lat="46.42623" lon="6.29414">
        <ele>389.7</ele>
        <time>2022-09-28T08:52:21Z</time>
      </trkpt>
      <trkpt lat="46.42626" lon="6.29422">
        <ele>389.6</ele>
        <time>2022-09-28T08:52:22Z</time>
      </trkpt>
      <trkpt lat="46.42629" lon="6.2943">
        <ele>389.6</ele>
        <time>2022-09-28T08:52:23Z</time>
      </trkpt>
      <trkpt lat="46.42633" lon="6.29438">
        <ele>389.5</ele>
        <time>2022-09-28T08:52:24Z</time>
      </trkpt>
      <trkpt lat="46.42636" lon="6.29446">
        <ele>389.5</ele>
        <time>2022-09-28T08:52:25Z</time>
      </trkpt>
      <trkpt lat="46.42639" lon="6.29454">
        <ele>389.4</ele>
        <time>2022-09-28T08:52:26Z</time>
      </trkpt>
      <trkpt lat="46.42642" lon="6.29462">
        <ele>389.4</ele>
        <time>2022-09-28T08:52:27Z</time>
      </trkpt>
      <trkpt lat="46.42646" lon="6.2947">
        <ele>389.4</ele>
        <time>2022-09-28T08:52:28Z</time>
      </trkpt>
      <trkpt lat="46.42649" lon="6.29479">
        <ele>389.3</ele>
        <time>2022-09-28T08:52:29Z</time>
      </trkpt>
      <trkpt lat="46.42652" lon="6.29486">
        <ele>389.3</ele>
        <time>2022-09-28T08:52:30Z</time>
      </trkpt>
      <trkpt lat="46.42655" lon="6.29494">
        <ele>389.3</ele>
        <time>2022-09-28T08:52:31Z</time>
      </trkpt>
      <trkpt lat="46.42658" lon="6.29501">
        <ele>389.3</ele>
        <time>2022-09-28T08:52:32Z</time>
      </trkpt>
      <trkpt lat="46.42661" lon="6.29509">
        <ele>389.3</ele>
        <time>2022-09-28T08:52:33Z</time>
      </trkpt>
      <trkpt lat="46.42664" lon="6.29517">
        <ele>389.3</ele>
        <time>2022-09-28T08:52:34Z</time>
      </trkpt>
      <trkpt lat="46.42667" lon="6.29525">
        <ele>389.3</ele>
        <time>2022-09-28T08:52:35Z</time>
      </trkpt>
      <trkpt lat="46.4267" lon="6.29533">
        <ele>389.4</ele>
        <time>2022-09-28T08:52:36Z</time>
      </trkpt>
      <trkpt lat="46.42674" lon="6.29541">
        <ele>389.4</ele>
        <time>2022-09-28T08:52:37Z</time>
      </trkpt>
      <trkpt lat="46.42677" lon="6.29549">
        <ele>389.4</ele>
        <time>2022-09-28T08:52:38Z</time>
      </trkpt>
      <trkpt lat="46.4268" lon="6.29557">
        <ele>389.4</ele>
        <time>2022-09-28T08:52:39Z</time>
      </trkpt>
      <trkpt lat="46.42683" lon="6.29565">
        <ele>389.5</ele>
        <time>2022-09-28T08:52:40Z</time>
      </trkpt>
      <trkpt lat="46.42686" lon="6.29571">
        <ele>389.6</ele>
        <time>2022-09-28T08:52:41Z</time>
      </trkpt>
      <trkpt lat="46.42689" lon="6.29578">
        <ele>389.7</ele>
        <time>2022-09-28T08:52:42Z</time>
      </trkpt>
      <trkpt lat="46.42691" lon="6.29583">
        <ele>389.8</ele>
        <time>2022-09-28T08:52:43Z</time>
      </trkpt>
      <trkpt lat="46.42693" lon="6.29588">
        <ele>389.8</ele>
        <time>2022-09-28T08:52:44Z</time>
      </trkpt>
      <trkpt lat="46.42695" lon="6.29594">
        <ele>389.9</ele>
        <time>2022-09-28T08:52:45Z</time>
      </trkpt>
      <trkpt lat="46.42698" lon="6.29598">
        <ele>390</ele>
        <time>2022-09-28T08:52:46Z</time>
      </trkpt>
      <trkpt lat="46.42699" lon="6.29604">
        <ele>390.1</ele>
        <time>2022-09-28T08:52:47Z</time>
      </trkpt>
      <trkpt lat="46.42702" lon="6.29609">
        <ele>390.2</ele>
        <time>2022-09-28T08:52:48Z</time>
      </trkpt>
      <trkpt lat="46.42704" lon="6.29613">
        <ele>390.4</ele>
        <time>2022-09-28T08:52:49Z</time>
      </trkpt>
      <trkpt lat="46.42707" lon="6.29618">
        <ele>390.5</ele>
        <time>2022-09-28T08:52:50Z</time>
      </trkpt>
      <trkpt lat="46.42709" lon="6.29623">
        <ele>390.7</ele>
        <time>2022-09-28T08:52:51Z</time>
      </trkpt>
      <trkpt lat="46.42711" lon="6.29627">
        <ele>390.8</ele>
        <time>2022-09-28T08:52:52Z</time>
      </trkpt>
      <trkpt lat="46.42713" lon="6.29632">
        <ele>391</ele>
        <time>2022-09-28T08:52:53Z</time>
      </trkpt>
      <trkpt lat="46.42715" lon="6.29636">
        <ele>391.1</ele>
        <time>2022-09-28T08:52:54Z</time>
      </trkpt>
      <trkpt lat="46.42717" lon="6.2964">
        <ele>391.3</ele>
        <time>2022-09-28T08:52:55Z</time>
      </trkpt>
      <trkpt lat="46.42719" lon="6.29645">
        <ele>391.4</ele>
        <time>2022-09-28T08:52:56Z</time>
      </trkpt>
      <trkpt lat="46.4272" lon="6.29649">
        <ele>391.6</ele>
        <time>2022-09-28T08:52:57Z</time>
      </trkpt>
      <trkpt lat="46.42722" lon="6.29654">
        <ele>391.8</ele>
        <time>2022-09-28T08:52:58Z</time>
      </trkpt>
      <trkpt lat="46.42724" lon="6.29658">
        <ele>391.9</ele>
        <time>2022-09-28T08:52:59Z</time>
      </trkpt>
      <trkpt lat="46.42726" lon="6.29662">
        <ele>392.1</ele>
        <time>2022-09-28T08:53:00Z</time>
      </trkpt>
      <trkpt lat="46.42727" lon="6.29666">
        <ele>392.2</ele>
        <time>2022-09-28T08:53:01Z</time>
      </trkpt>
      <trkpt lat="46.42728" lon="6.29669">
        <ele>392.4</ele>
        <time>2022-09-28T08:53:02Z</time>
      </trkpt>
      <trkpt lat="46.4273" lon="6.29673">
        <ele>392.5</ele>
        <time>2022-09-28T08:53:03Z</time>
      </trkpt>
      <trkpt lat="46.42731" lon="6.29677">
        <ele>392.7</ele>
        <time>2022-09-28T08:53:04Z</time>
      </trkpt>
      <trkpt lat="46.42732" lon="6.29681">
        <ele>392.8</ele>
        <time>2022-09-28T08:53:05Z</time>
      </trkpt>
      <trkpt lat="46.42734" lon="6.29684">
        <ele>393</ele>
        <time>2022-09-28T08:53:06Z</time>
      </trkpt>
      <trkpt lat="46.42736" lon="6.29689">
        <ele>393.2</ele>
        <time>2022-09-28T08:53:07Z</time>
      </trkpt>
      <trkpt lat="46.42737" lon="6.29691">
        <ele>393.2</ele>
        <time>2022-09-28T08:53:08Z</time>
      </trkpt>
      <trkpt lat="46.42739" lon="6.29696">
        <ele>393.4</ele>
        <time>2022-09-28T08:53:09Z</time>
      </trkpt>
      <trkpt lat="46.4274" lon="6.29697">
        <ele>393.5</ele>
        <time>2022-09-28T08:53:10Z</time>
      </trkpt>
      <trkpt lat="46.42741" lon="6.29702">
        <ele>393.7</ele>
        <time>2022-09-28T08:53:11Z</time>
      </trkpt>
      <trkpt lat="46.42742" lon="6.29704">
        <ele>393.8</ele>
        <time>2022-09-28T08:53:12Z</time>
      </trkpt>
      <trkpt lat="46.42744" lon="6.29708">
        <ele>393.9</ele>
        <time>2022-09-28T08:53:13Z</time>
      </trkpt>
      <trkpt lat="46.42744" lon="6.2971">
        <ele>394</ele>
        <time>2022-09-28T08:53:14Z</time>
      </trkpt>
      <trkpt lat="46.42747" lon="6.29714">
        <ele>394.2</ele>
        <time>2022-09-28T08:53:15Z</time>
      </trkpt>
      <trkpt lat="46.42747" lon="6.29715">
        <ele>394.2</ele>
        <time>2022-09-28T08:53:16Z</time>
      </trkpt>
      <trkpt lat="46.42749" lon="6.29719">
        <ele>394.4</ele>
        <time>2022-09-28T08:53:17Z</time>
      </trkpt>
      <trkpt lat="46.42749" lon="6.29721">
        <ele>394.5</ele>
        <time>2022-09-28T08:53:18Z</time>
      </trkpt>
      <trkpt lat="46.42751" lon="6.29725">
        <ele>394.6</ele>
        <time>2022-09-28T08:53:19Z</time>
      </trkpt>
      <trkpt lat="46.42752" lon="6.29726">
        <ele>394.7</ele>
        <time>2022-09-28T08:53:20Z</time>
      </trkpt>
      <trkpt lat="46.42754" lon="6.29732">
        <ele>394.9</ele>
        <time>2022-09-28T08:53:21Z</time>
      </trkpt>
      <trkpt lat="46.42754" lon="6.29733">
        <ele>394.9</ele>
        <time>2022-09-28T08:53:22Z</time>
      </trkpt>
      <trkpt lat="46.42756" lon="6.29739">
        <ele>395.1</ele>
        <time>2022-09-28T08:53:23Z</time>
      </trkpt>
      <trkpt lat="46.42756" lon="6.2974">
        <ele>395.2</ele>
        <time>2022-09-28T08:53:24Z</time>
      </trkpt>
      <trkpt lat="46.42758" lon="6.29745">
        <ele>395.3</ele>
        <time>2022-09-28T08:53:25Z</time>
      </trkpt>
      <trkpt lat="46.42759" lon="6.29746">
        <ele>395.4</ele>
        <time>2022-09-28T08:53:26Z</time>
      </trkpt>
      <trkpt lat="46.4276" lon="6.29751">
        <ele>395.5</ele>
        <time>2022-09-28T08:53:27Z</time>
      </trkpt>
      <trkpt lat="46.42761" lon="6.29753">
        <ele>395.6</ele>
        <time>2022-09-28T08:53:28Z</time>
      </trkpt>
      <trkpt lat="46.42763" lon="6.29757">
        <ele>395.7</ele>
        <time>2022-09-28T08:53:29Z</time>
      </trkpt>
      <trkpt lat="46.42763" lon="6.29759">
        <ele>395.7</ele>
        <time>2022-09-28T08:53:30Z</time>
      </trkpt>
      <trkpt lat="46.42765" lon="6.29763">
        <ele>395.9</ele>
        <time>2022-09-28T08:53:31Z</time>
      </trkpt>
      <trkpt lat="46.42766" lon="6.29765">
        <ele>395.9</ele>
        <time>2022-09-28T08:53:32Z</time>
      </trkpt>
      <trkpt lat="46.42768" lon="6.29768">
        <ele>396</ele>
        <time>2022-09-28T08:53:33Z</time>
      </trkpt>
      <trkpt lat="46.42769" lon="6.2977">
        <ele>396.1</ele>
        <time>2022-09-28T08:53:34Z</time>
      </trkpt>
      <trkpt lat="46.42771" lon="6.29774">
        <ele>396.2</ele>
        <time>2022-09-28T08:53:35Z</time>
      </trkpt>
      <trkpt lat="46.42771" lon="6.29776">
        <ele>396.2</ele>
        <time>2022-09-28T08:53:36Z</time>
      </trkpt>
      <trkpt lat="46.42773" lon="6.2978">
        <ele>396.3</ele>
        <time>2022-09-28T08:53:37Z</time>
      </trkpt>
      <trkpt lat="46.42774" lon="6.29781">
        <ele>396.4</ele>
        <time>2022-09-28T08:53:38Z</time>
      </trkpt>
      <trkpt lat="46.42776" lon="6.29786">
        <ele>396.4</ele>
        <time>2022-09-28T08:53:39Z</time>
      </trkpt>
      <trkpt lat="46.42777" lon="6.29787">
        <ele>396.5</ele>
        <time>2022-09-28T08:53:40Z</time>
      </trkpt>
      <trkpt lat="46.42779" lon="6.29791">
        <ele>396.6</ele>
        <time>2022-09-28T08:53:41Z</time>
      </trkpt>
      <trkpt lat="46.4278" lon="6.29792">
        <ele>396.6</ele>
        <time>2022-09-28T08:53:42Z</time>
      </trkpt>
      <trkpt lat="46.42782" lon="6.29797">
        <ele>396.7</ele>
        <time>2022-09-28T08:53:43Z</time>
      </trkpt>
      <trkpt lat="46.42783" lon="6.29799">
        <ele>396.7</ele>
        <time>2022-09-28T08:53:44Z</time>
      </trkpt>
      <trkpt lat="46.42785" lon="6.29802">
        <ele>396.8</ele>
        <time>2022-09-28T08:53:45Z</time>
      </trkpt>
      <trkpt lat="46.42785" lon="6.29804">
        <ele>396.8</ele>
        <time>2022-09-28T08:53:46Z</time>
      </trkpt>
      <trkpt lat="46.42788" lon="6.29808">
        <ele>396.9</ele>
        <time>2022-09-28T08:53:47Z</time>
      </trkpt>
      <trkpt lat="46.42789" lon="6.29809">
        <ele>396.9</ele>
        <time>2022-09-28T08:53:48Z</time>
      </trkpt>
      <trkpt lat="46.42792" lon="6.29813">
        <ele>397</ele>
        <time>2022-09-28T08:53:49Z</time>
      </trkpt>
      <trkpt lat="46.42792" lon="6.29814">
        <ele>397</ele>
        <time>2022-09-28T08:53:50Z</time>
      </trkpt>
      <trkpt lat="46.42795" lon="6.29818">
        <ele>397.1</ele>
        <time>2022-09-28T08:53:51Z</time>
      </trkpt>
      <trkpt lat="46.42795" lon="6.29819">
        <ele>397.1</ele>
        <time>2022-09-28T08:53:52Z</time>
      </trkpt>
      <trkpt lat="46.42798" lon="6.29823">
        <ele>397.2</ele>
        <time>2022-09-28T08:53:53Z</time>
      </trkpt>
      <trkpt lat="46.42799" lon="6.29825">
        <ele>397.2</ele>
        <time>2022-09-28T08:53:54Z</time>
      </trkpt>
      <trkpt lat="46.42802" lon="6.29829">
        <ele>397.3</ele>
        <time>2022-09-28T08:53:55Z</time>
      </trkpt>
      <trkpt lat="46.42803" lon="6.2983">
        <ele>397.4</ele>
        <time>2022-09-28T08:53:56Z</time>
      </trkpt>
      <trkpt lat="46.42806" lon="6.29834">
        <ele>397.5</ele>
        <time>2022-09-28T08:53:57Z</time>
      </trkpt>
      <trkpt lat="46.42806" lon="6.29835">
        <ele>397.5</ele>
        <time>2022-09-28T08:53:58Z</time>
      </trkpt>
      <trkpt lat="46.42808" lon="6.29839">
        <ele>397.5</ele>
        <time>2022-09-28T08:53:59Z</time>
      </trkpt>
      <trkpt lat="46.4281" lon="6.29842">
        <ele>397.6</ele>
        <time>2022-09-28T08:54:00Z</time>
      </trkpt>
      <trkpt lat="46.42812" lon="6.29845">
        <ele>397.6</ele>
        <time>2022-09-28T08:54:01Z</time>
      </trkpt>
      <trkpt lat="46.42814" lon="6.29849">
        <ele>397.7</ele>
        <time>2022-09-28T08:54:02Z</time>
      </trkpt>
      <trkpt lat="46.42815" lon="6.2985">
        <ele>397.7</ele>
        <time>2022-09-28T08:54:03Z</time>
      </trkpt>
      <trkpt lat="46.42817" lon="6.29853">
        <ele>397.8</ele>
        <time>2022-09-28T08:54:04Z</time>
      </trkpt>
      <trkpt lat="46.4282" lon="6.29856">
        <ele>397.8</ele>
        <time>2022-09-28T08:54:05Z</time>
      </trkpt>
      <trkpt lat="46.42821" lon="6.29858">
        <ele>397.9</ele>
        <time>2022-09-28T08:54:06Z</time>
      </trkpt>
      <trkpt lat="46.42824" lon="6.29862">
        <ele>397.9</ele>
        <time>2022-09-28T08:54:07Z</time>
      </trkpt>
      <trkpt lat="46.42825" lon="6.29863">
        <ele>397.9</ele>
        <time>2022-09-28T08:54:08Z</time>
      </trkpt>
      <trkpt lat="46.42828" lon="6.29867">
        <ele>398</ele>
        <time>2022-09-28T08:54:09Z</time>
      </trkpt>
      <trkpt lat="46.42829" lon="6.29868">
        <ele>398</ele>
        <time>2022-09-28T08:54:10Z</time>
      </trkpt>
      <trkpt lat="46.42831" lon="6.29872">
        <ele>398.1</ele>
        <time>2022-09-28T08:54:11Z</time>
      </trkpt>
      <trkpt lat="46.42834" lon="6.29874">
        <ele>398.1</ele>
        <time>2022-09-28T08:54:12Z</time>
      </trkpt>
      <trkpt lat="46.42836" lon="6.29877">
        <ele>398.2</ele>
        <time>2022-09-28T08:54:13Z</time>
      </trkpt>
      <trkpt lat="46.42838" lon="6.2988">
        <ele>398.2</ele>
        <time>2022-09-28T08:54:14Z</time>
      </trkpt>
      <trkpt lat="46.42841" lon="6.29883">
        <ele>398.3</ele>
        <time>2022-09-28T08:54:15Z</time>
      </trkpt>
      <trkpt lat="46.42843" lon="6.29886">
        <ele>398.3</ele>
        <time>2022-09-28T08:54:16Z</time>
      </trkpt>
      <trkpt lat="46.42845" lon="6.29889">
        <ele>398.4</ele>
        <time>2022-09-28T08:54:17Z</time>
      </trkpt>
      <trkpt lat="46.42847" lon="6.29892">
        <ele>398.4</ele>
        <time>2022-09-28T08:54:18Z</time>
      </trkpt>
      <trkpt lat="46.4285" lon="6.29895">
        <ele>398.5</ele>
        <time>2022-09-28T08:54:19Z</time>
      </trkpt>
      <trkpt lat="46.42852" lon="6.29898">
        <ele>398.5</ele>
        <time>2022-09-28T08:54:20Z</time>
      </trkpt>
      <trkpt lat="46.42855" lon="6.29902">
        <ele>398.5</ele>
        <time>2022-09-28T08:54:21Z</time>
      </trkpt>
      <trkpt lat="46.42857" lon="6.29906">
        <ele>398.6</ele>
        <time>2022-09-28T08:54:22Z</time>
      </trkpt>
      <trkpt lat="46.4286" lon="6.29909">
        <ele>398.6</ele>
        <time>2022-09-28T08:54:23Z</time>
      </trkpt>
      <trkpt lat="46.42862" lon="6.29912">
        <ele>398.7</ele>
        <time>2022-09-28T08:54:24Z</time>
      </trkpt>
      <trkpt lat="46.42865" lon="6.29915">
        <ele>398.7</ele>
        <time>2022-09-28T08:54:25Z</time>
      </trkpt>
      <trkpt lat="46.42867" lon="6.29918">
        <ele>398.8</ele>
        <time>2022-09-28T08:54:26Z</time>
      </trkpt>
      <trkpt lat="46.42869" lon="6.29921">
        <ele>398.8</ele>
        <time>2022-09-28T08:54:27Z</time>
      </trkpt>
      <trkpt lat="46.42872" lon="6.29924">
        <ele>398.8</ele>
        <time>2022-09-28T08:54:28Z</time>
      </trkpt>
      <trkpt lat="46.42874" lon="6.29927">
        <ele>398.9</ele>
        <time>2022-09-28T08:54:29Z</time>
      </trkpt>
      <trkpt lat="46.42876" lon="6.29931">
        <ele>398.9</ele>
        <time>2022-09-28T08:54:30Z</time>
      </trkpt>
      <trkpt lat="46.42879" lon="6.29934">
        <ele>398.9</ele>
        <time>2022-09-28T08:54:31Z</time>
      </trkpt>
      <trkpt lat="46.42881" lon="6.29938">
        <ele>398.9</ele>
        <time>2022-09-28T08:54:32Z</time>
      </trkpt>
      <trkpt lat="46.42883" lon="6.29941">
        <ele>398.9</ele>
        <time>2022-09-28T08:54:33Z</time>
      </trkpt>
      <trkpt lat="46.42886" lon="6.29945">
        <ele>398.9</ele>
        <time>2022-09-28T08:54:34Z</time>
      </trkpt>
      <trkpt lat="46.42889" lon="6.29948">
        <ele>398.9</ele>
        <time>2022-09-28T08:54:35Z</time>
      </trkpt>
      <trkpt lat="46.42892" lon="6.29952">
        <ele>399</ele>
        <time>2022-09-28T08:54:36Z</time>
      </trkpt>
      <trkpt lat="46.42896" lon="6.29956">
        <ele>399</ele>
        <time>2022-09-28T08:54:37Z</time>
      </trkpt>
      <trkpt lat="46.42899" lon="6.29959">
        <ele>399</ele>
        <time>2022-09-28T08:54:38Z</time>
      </trkpt>
      <trkpt lat="46.42902" lon="6.29963">
        <ele>399</ele>
        <time>2022-09-28T08:54:39Z</time>
      </trkpt>
      <trkpt lat="46.42905" lon="6.29967">
        <ele>399</ele>
        <time>2022-09-28T08:54:40Z</time>
      </trkpt>
      <trkpt lat="46.42908" lon="6.29971">
        <ele>399</ele>
        <time>2022-09-28T08:54:41Z</time>
      </trkpt>
      <trkpt lat="46.42912" lon="6.29976">
        <ele>399</ele>
        <time>2022-09-28T08:54:42Z</time>
      </trkpt>
      <trkpt lat="46.42915" lon="6.2998">
        <ele>399</ele>
        <time>2022-09-28T08:54:43Z</time>
      </trkpt>
      <trkpt lat="46.42919" lon="6.29985">
        <ele>399</ele>
        <time>2022-09-28T08:54:44Z</time>
      </trkpt>
      <trkpt lat="46.42922" lon="6.29989">
        <ele>399</ele>
        <time>2022-09-28T08:54:45Z</time>
      </trkpt>
      <trkpt lat="46.42925" lon="6.29993">
        <ele>399</ele>
        <time>2022-09-28T08:54:46Z</time>
      </trkpt>
      <trkpt lat="46.42928" lon="6.29997">
        <ele>399</ele>
        <time>2022-09-28T08:54:47Z</time>
      </trkpt>
      <trkpt lat="46.42931" lon="6.30002">
        <ele>399</ele>
        <time>2022-09-28T08:54:48Z</time>
      </trkpt>
      <trkpt lat="46.42935" lon="6.30006">
        <ele>398.9</ele>
        <time>2022-09-28T08:54:49Z</time>
      </trkpt>
      <trkpt lat="46.42938" lon="6.3001">
        <ele>398.9</ele>
        <time>2022-09-28T08:54:50Z</time>
      </trkpt>
      <trkpt lat="46.42941" lon="6.30014">
        <ele>398.9</ele>
        <time>2022-09-28T08:54:51Z</time>
      </trkpt>
      <trkpt lat="46.42945" lon="6.3002">
        <ele>398.9</ele>
        <time>2022-09-28T08:54:52Z</time>
      </trkpt>
      <trkpt lat="46.42948" lon="6.30024">
        <ele>398.8</ele>
        <time>2022-09-28T08:54:53Z</time>
      </trkpt>
      <trkpt lat="46.42952" lon="6.30029">
        <ele>398.8</ele>
        <time>2022-09-28T08:54:54Z</time>
      </trkpt>
      <trkpt lat="46.42955" lon="6.30034">
        <ele>398.7</ele>
        <time>2022-09-28T08:54:55Z</time>
      </trkpt>
      <trkpt lat="46.4296" lon="6.30039">
        <ele>398.7</ele>
        <time>2022-09-28T08:54:56Z</time>
      </trkpt>
      <trkpt lat="46.42964" lon="6.30044">
        <ele>398.6</ele>
        <time>2022-09-28T08:54:57Z</time>
      </trkpt>
      <trkpt lat="46.42968" lon="6.3005">
        <ele>398.5</ele>
        <time>2022-09-28T08:54:58Z</time>
      </trkpt>
      <trkpt lat="46.42972" lon="6.30055">
        <ele>398.5</ele>
        <time>2022-09-28T08:54:59Z</time>
      </trkpt>
      <trkpt lat="46.42976" lon="6.30061">
        <ele>398.4</ele>
        <time>2022-09-28T08:55:00Z</time>
      </trkpt>
      <trkpt lat="46.4298" lon="6.30066">
        <ele>398.3</ele>
        <time>2022-09-28T08:55:01Z</time>
      </trkpt>
      <trkpt lat="46.42985" lon="6.30072">
        <ele>398.3</ele>
        <time>2022-09-28T08:55:02Z</time>
      </trkpt>
      <trkpt lat="46.42989" lon="6.30077">
        <ele>398.2</ele>
        <time>2022-09-28T08:55:03Z</time>
      </trkpt>
      <trkpt lat="46.42993" lon="6.30082">
        <ele>398.2</ele>
        <time>2022-09-28T08:55:04Z</time>
      </trkpt>
      <trkpt lat="46.42997" lon="6.30087">
        <ele>398.1</ele>
        <time>2022-09-28T08:55:05Z</time>
      </trkpt>
      <trkpt lat="46.43001" lon="6.30093">
        <ele>398</ele>
        <time>2022-09-28T08:55:06Z</time>
      </trkpt>
      <trkpt lat="46.43005" lon="6.30098">
        <ele>398</ele>
        <time>2022-09-28T08:55:07Z</time>
      </trkpt>
      <trkpt lat="46.43009" lon="6.30104">
        <ele>397.9</ele>
        <time>2022-09-28T08:55:08Z</time>
      </trkpt>
      <trkpt lat="46.43013" lon="6.3011">
        <ele>397.8</ele>
        <time>2022-09-28T08:55:09Z</time>
      </trkpt>
      <trkpt lat="46.43017" lon="6.30115">
        <ele>397.8</ele>
        <time>2022-09-28T08:55:10Z</time>
      </trkpt>
      <trkpt lat="46.43022" lon="6.30121">
        <ele>397.7</ele>
        <time>2022-09-28T08:55:11Z</time>
      </trkpt>
      <trkpt lat="46.43027" lon="6.30126">
        <ele>397.6</ele>
        <time>2022-09-28T08:55:12Z</time>
      </trkpt>
      <trkpt lat="46.43031" lon="6.30132">
        <ele>397.5</ele>
        <time>2022-09-28T08:55:13Z</time>
      </trkpt>
      <trkpt lat="46.43036" lon="6.30138">
        <ele>397.4</ele>
        <time>2022-09-28T08:55:14Z</time>
      </trkpt>
      <trkpt lat="46.43041" lon="6.30144">
        <ele>397.4</ele>
        <time>2022-09-28T08:55:15Z</time>
      </trkpt>
      <trkpt lat="46.43045" lon="6.3015">
        <ele>397.3</ele>
        <time>2022-09-28T08:55:16Z</time>
      </trkpt>
      <trkpt lat="46.4305" lon="6.30156">
        <ele>397.2</ele>
        <time>2022-09-28T08:55:17Z</time>
      </trkpt>
      <trkpt lat="46.43055" lon="6.30162">
        <ele>397.1</ele>
        <time>2022-09-28T08:55:18Z</time>
      </trkpt>
      <trkpt lat="46.4306" lon="6.30168">
        <ele>397</ele>
        <time>2022-09-28T08:55:19Z</time>
      </trkpt>
      <trkpt lat="46.43065" lon="6.30175">
        <ele>397</ele>
        <time>2022-09-28T08:55:20Z</time>
      </trkpt>
      <trkpt lat="46.4307" lon="6.30181">
        <ele>396.9</ele>
        <time>2022-09-28T08:55:21Z</time>
      </trkpt>
      <trkpt lat="46.43075" lon="6.30188">
        <ele>396.8</ele>
        <time>2022-09-28T08:55:22Z</time>
      </trkpt>
      <trkpt lat="46.4308" lon="6.30194">
        <ele>396.7</ele>
        <time>2022-09-28T08:55:23Z</time>
      </trkpt>
      <trkpt lat="46.43085" lon="6.30201">
        <ele>396.6</ele>
        <time>2022-09-28T08:55:24Z</time>
      </trkpt>
      <trkpt lat="46.4309" lon="6.30208">
        <ele>396.5</ele>
        <time>2022-09-28T08:55:25Z</time>
      </trkpt>
      <trkpt lat="46.43095" lon="6.30214">
        <ele>396.4</ele>
        <time>2022-09-28T08:55:26Z</time>
      </trkpt>
      <trkpt lat="46.431" lon="6.30221">
        <ele>396.3</ele>
        <time>2022-09-28T08:55:27Z</time>
      </trkpt>
      <trkpt lat="46.43105" lon="6.30227">
        <ele>396.2</ele>
        <time>2022-09-28T08:55:28Z</time>
      </trkpt>
      <trkpt lat="46.43111" lon="6.30235">
        <ele>396.1</ele>
        <time>2022-09-28T08:55:29Z</time>
      </trkpt>
      <trkpt lat="46.43116" lon="6.30242">
        <ele>396</ele>
        <time>2022-09-28T08:55:30Z</time>
      </trkpt>
      <trkpt lat="46.43122" lon="6.30249">
        <ele>395.9</ele>
        <time>2022-09-28T08:55:31Z</time>
      </trkpt>
      <trkpt lat="46.43128" lon="6.30256">
        <ele>395.8</ele>
        <time>2022-09-28T08:55:32Z</time>
      </trkpt>
      <trkpt lat="46.43133" lon="6.30263">
        <ele>395.7</ele>
        <time>2022-09-28T08:55:33Z</time>
      </trkpt>
      <trkpt lat="46.43138" lon="6.3027">
        <ele>395.6</ele>
        <time>2022-09-28T08:55:34Z</time>
      </trkpt>
      <trkpt lat="46.43144" lon="6.30277">
        <ele>395.5</ele>
        <time>2022-09-28T08:55:35Z</time>
      </trkpt>
      <trkpt lat="46.43149" lon="6.30284">
        <ele>395.5</ele>
        <time>2022-09-28T08:55:36Z</time>
      </trkpt>
      <trkpt lat="46.43155" lon="6.30291">
        <ele>395.4</ele>
        <time>2022-09-28T08:55:37Z</time>
      </trkpt>
      <trkpt lat="46.4316" lon="6.30298">
        <ele>395.3</ele>
        <time>2022-09-28T08:55:38Z</time>
      </trkpt>
      <trkpt lat="46.43165" lon="6.30305">
        <ele>395.2</ele>
        <time>2022-09-28T08:55:39Z</time>
      </trkpt>
      <trkpt lat="46.4317" lon="6.30311">
        <ele>395.1</ele>
        <time>2022-09-28T08:55:40Z</time>
      </trkpt>
      <trkpt lat="46.43176" lon="6.30318">
        <ele>395</ele>
        <time>2022-09-28T08:55:41Z</time>
      </trkpt>
      <trkpt lat="46.43181" lon="6.30325">
        <ele>395</ele>
        <time>2022-09-28T08:55:42Z</time>
      </trkpt>
      <trkpt lat="46.43186" lon="6.30332">
        <ele>394.9</ele>
        <time>2022-09-28T08:55:43Z</time>
      </trkpt>
      <trkpt lat="46.43192" lon="6.30339">
        <ele>394.9</ele>
        <time>2022-09-28T08:55:44Z</time>
      </trkpt>
      <trkpt lat="46.43197" lon="6.30346">
        <ele>394.8</ele>
        <time>2022-09-28T08:55:45Z</time>
      </trkpt>
      <trkpt lat="46.43203" lon="6.30352">
        <ele>394.8</ele>
        <time>2022-09-28T08:55:46Z</time>
      </trkpt>
      <trkpt lat="46.43208" lon="6.30359">
        <ele>394.8</ele>
        <time>2022-09-28T08:55:47Z</time>
      </trkpt>
      <trkpt lat="46.43213" lon="6.30366">
        <ele>394.8</ele>
        <time>2022-09-28T08:55:48Z</time>
      </trkpt>
      <trkpt lat="46.43218" lon="6.30372">
        <ele>394.8</ele>
        <time>2022-09-28T08:55:49Z</time>
      </trkpt>
      <trkpt lat="46.43223" lon="6.30379">
        <ele>394.8</ele>
        <time>2022-09-28T08:55:50Z</time>
      </trkpt>
      <trkpt lat="46.43228" lon="6.30385">
        <ele>394.8</ele>
        <time>2022-09-28T08:55:51Z</time>
      </trkpt>
      <trkpt lat="46.43233" lon="6.30392">
        <ele>394.8</ele>
        <time>2022-09-28T08:55:52Z</time>
      </trkpt>
      <trkpt lat="46.43238" lon="6.30398">
        <ele>394.8</ele>
        <time>2022-09-28T08:55:53Z</time>
      </trkpt>
      <trkpt lat="46.43243" lon="6.30404">
        <ele>394.8</ele>
        <time>2022-09-28T08:55:54Z</time>
      </trkpt>
      <trkpt lat="46.43248" lon="6.30411">
        <ele>394.9</ele>
        <time>2022-09-28T08:55:55Z</time>
      </trkpt>
      <trkpt lat="46.43253" lon="6.30417">
        <ele>394.9</ele>
        <time>2022-09-28T08:55:56Z</time>
      </trkpt>
      <trkpt lat="46.43258" lon="6.30424">
        <ele>395</ele>
        <time>2022-09-28T08:55:57Z</time>
      </trkpt>
      <trkpt lat="46.43262" lon="6.3043">
        <ele>395</ele>
        <time>2022-09-28T08:55:58Z</time>
      </trkpt>
      <trkpt lat="46.43268" lon="6.30436">
        <ele>395.1</ele>
        <time>2022-09-28T08:55:59Z</time>
      </trkpt>
      <trkpt lat="46.43272" lon="6.30443">
        <ele>395.1</ele>
        <time>2022-09-28T08:56:00Z</time>
      </trkpt>
      <trkpt lat="46.43278" lon="6.3045">
        <ele>395.1</ele>
        <time>2022-09-28T08:56:01Z</time>
      </trkpt>
      <trkpt lat="46.43282" lon="6.30456">
        <ele>395.1</ele>
        <time>2022-09-28T08:56:02Z</time>
      </trkpt>
      <trkpt lat="46.43287" lon="6.30463">
        <ele>395</ele>
        <time>2022-09-28T08:56:03Z</time>
      </trkpt>
      <trkpt lat="46.43292" lon="6.30469">
        <ele>395</ele>
        <time>2022-09-28T08:56:04Z</time>
      </trkpt>
      <trkpt lat="46.43298" lon="6.30475">
        <ele>395.1</ele>
        <time>2022-09-28T08:56:05Z</time>
      </trkpt>
      <trkpt lat="46.43303" lon="6.30482">
        <ele>395.1</ele>
        <time>2022-09-28T08:56:06Z</time>
      </trkpt>
      <trkpt lat="46.43307" lon="6.30489">
        <ele>395.1</ele>
        <time>2022-09-28T08:56:07Z</time>
      </trkpt>
      <trkpt lat="46.43312" lon="6.30495">
        <ele>395.1</ele>
        <time>2022-09-28T08:56:08Z</time>
      </trkpt>
      <trkpt lat="46.43317" lon="6.30501">
        <ele>395.1</ele>
        <time>2022-09-28T08:56:09Z</time>
      </trkpt>
      <trkpt lat="46.43322" lon="6.30508">
        <ele>395.1</ele>
        <time>2022-09-28T08:56:10Z</time>
      </trkpt>
      <trkpt lat="46.43327" lon="6.30514">
        <ele>395.1</ele>
        <time>2022-09-28T08:56:11Z</time>
      </trkpt>
      <trkpt lat="46.43331" lon="6.3052">
        <ele>395.1</ele>
        <time>2022-09-28T08:56:12Z</time>
      </trkpt>
      <trkpt lat="46.43336" lon="6.30526">
        <ele>395.1</ele>
        <time>2022-09-28T08:56:13Z</time>
      </trkpt>
      <trkpt lat="46.43341" lon="6.30533">
        <ele>395.1</ele>
        <time>2022-09-28T08:56:14Z</time>
      </trkpt>
      <trkpt lat="46.43346" lon="6.30539">
        <ele>395.1</ele>
        <time>2022-09-28T08:56:15Z</time>
      </trkpt>
      <trkpt lat="46.43351" lon="6.30545">
        <ele>395.1</ele>
        <time>2022-09-28T08:56:16Z</time>
      </trkpt>
      <trkpt lat="46.43356" lon="6.30551">
        <ele>395.1</ele>
        <time>2022-09-28T08:56:17Z</time>
      </trkpt>
      <trkpt lat="46.4336" lon="6.30558">
        <ele>395.1</ele>
        <time>2022-09-28T08:56:18Z</time>
      </trkpt>
      <trkpt lat="46.43365" lon="6.30564">
        <ele>395</ele>
        <time>2022-09-28T08:56:19Z</time>
      </trkpt>
      <trkpt lat="46.4337" lon="6.30571">
        <ele>395</ele>
        <time>2022-09-28T08:56:20Z</time>
      </trkpt>
      <trkpt lat="46.43375" lon="6.30577">
        <ele>395</ele>
        <time>2022-09-28T08:56:21Z</time>
      </trkpt>
      <trkpt lat="46.4338" lon="6.30584">
        <ele>395</ele>
        <time>2022-09-28T08:56:22Z</time>
      </trkpt>
      <trkpt lat="46.43385" lon="6.3059">
        <ele>395</ele>
        <time>2022-09-28T08:56:23Z</time>
      </trkpt>
      <trkpt lat="46.4339" lon="6.30596">
        <ele>395</ele>
        <time>2022-09-28T08:56:24Z</time>
      </trkpt>
      <trkpt lat="46.43395" lon="6.30603">
        <ele>395</ele>
        <time>2022-09-28T08:56:25Z</time>
      </trkpt>
      <trkpt lat="46.434" lon="6.30609">
        <ele>395</ele>
        <time>2022-09-28T08:56:26Z</time>
      </trkpt>
      <trkpt lat="46.43405" lon="6.30615">
        <ele>395</ele>
        <time>2022-09-28T08:56:27Z</time>
      </trkpt>
      <trkpt lat="46.43409" lon="6.30622">
        <ele>395</ele>
        <time>2022-09-28T08:56:28Z</time>
      </trkpt>
      <trkpt lat="46.43415" lon="6.30628">
        <ele>395</ele>
        <time>2022-09-28T08:56:29Z</time>
      </trkpt>
      <trkpt lat="46.4342" lon="6.30635">
        <ele>395</ele>
        <time>2022-09-28T08:56:30Z</time>
      </trkpt>
      <trkpt lat="46.43425" lon="6.30642">
        <ele>395</ele>
        <time>2022-09-28T08:56:31Z</time>
      </trkpt>
      <trkpt lat="46.4343" lon="6.30649">
        <ele>395</ele>
        <time>2022-09-28T08:56:32Z</time>
      </trkpt>
      <trkpt lat="46.43435" lon="6.30655">
        <ele>395</ele>
        <time>2022-09-28T08:56:33Z</time>
      </trkpt>
      <trkpt lat="46.43439" lon="6.30661">
        <ele>395</ele>
        <time>2022-09-28T08:56:34Z</time>
      </trkpt>
      <trkpt lat="46.43444" lon="6.30667">
        <ele>395</ele>
        <time>2022-09-28T08:56:35Z</time>
      </trkpt>
      <trkpt lat="46.43449" lon="6.30674">
        <ele>395</ele>
        <time>2022-09-28T08:56:36Z</time>
      </trkpt>
      <trkpt lat="46.43454" lon="6.3068">
        <ele>395</ele>
        <time>2022-09-28T08:56:37Z</time>
      </trkpt>
      <trkpt lat="46.43459" lon="6.30687">
        <ele>395</ele>
        <time>2022-09-28T08:56:38Z</time>
      </trkpt>
      <trkpt lat="46.43464" lon="6.30693">
        <ele>395</ele>
        <time>2022-09-28T08:56:39Z</time>
      </trkpt>
      <trkpt lat="46.43469" lon="6.307">
        <ele>395</ele>
        <time>2022-09-28T08:56:40Z</time>
      </trkpt>
      <trkpt lat="46.43474" lon="6.30706">
        <ele>395</ele>
        <time>2022-09-28T08:56:41Z</time>
      </trkpt>
      <trkpt lat="46.43479" lon="6.30712">
        <ele>395</ele>
        <time>2022-09-28T08:56:42Z</time>
      </trkpt>
      <trkpt lat="46.43484" lon="6.30719">
        <ele>395</ele>
        <time>2022-09-28T08:56:43Z</time>
      </trkpt>
      <trkpt lat="46.43489" lon="6.30725">
        <ele>395</ele>
        <time>2022-09-28T08:56:44Z</time>
      </trkpt>
      <trkpt lat="46.43493" lon="6.30731">
        <ele>395</ele>
        <time>2022-09-28T08:56:45Z</time>
      </trkpt>
      <trkpt lat="46.43498" lon="6.30737">
        <ele>395</ele>
        <time>2022-09-28T08:56:46Z</time>
      </trkpt>
      <trkpt lat="46.43503" lon="6.30743">
        <ele>395.1</ele>
        <time>2022-09-28T08:56:47Z</time>
      </trkpt>
      <trkpt lat="46.43507" lon="6.30749">
        <ele>395.1</ele>
        <time>2022-09-28T08:56:48Z</time>
      </trkpt>
      <trkpt lat="46.43511" lon="6.30755">
        <ele>395.1</ele>
        <time>2022-09-28T08:56:49Z</time>
      </trkpt>
      <trkpt lat="46.43516" lon="6.30761">
        <ele>395.1</ele>
        <time>2022-09-28T08:56:50Z</time>
      </trkpt>
      <trkpt lat="46.43521" lon="6.30766">
        <ele>395.2</ele>
        <time>2022-09-28T08:56:51Z</time>
      </trkpt>
      <trkpt lat="46.43525" lon="6.30772">
        <ele>395.2</ele>
        <time>2022-09-28T08:56:52Z</time>
      </trkpt>
      <trkpt lat="46.43529" lon="6.30778">
        <ele>395.2</ele>
        <time>2022-09-28T08:56:53Z</time>
      </trkpt>
      <trkpt lat="46.43534" lon="6.30784">
        <ele>395.3</ele>
        <time>2022-09-28T08:56:54Z</time>
      </trkpt>
      <trkpt lat="46.43538" lon="6.3079">
        <ele>395.3</ele>
        <time>2022-09-28T08:56:55Z</time>
      </trkpt>
      <trkpt lat="46.43543" lon="6.30796">
        <ele>395.3</ele>
        <time>2022-09-28T08:56:56Z</time>
      </trkpt>
      <trkpt lat="46.43547" lon="6.30802">
        <ele>395.4</ele>
        <time>2022-09-28T08:56:57Z</time>
      </trkpt>
      <trkpt lat="46.43552" lon="6.30808">
        <ele>395.4</ele>
        <time>2022-09-28T08:56:58Z</time>
      </trkpt>
      <trkpt lat="46.43557" lon="6.30814">
        <ele>395.4</ele>
        <time>2022-09-28T08:56:59Z</time>
      </trkpt>
      <trkpt lat="46.43561" lon="6.3082">
        <ele>395.5</ele>
        <time>2022-09-28T08:57:00Z</time>
      </trkpt>
      <trkpt lat="46.43566" lon="6.30826">
        <ele>395.5</ele>
        <time>2022-09-28T08:57:01Z</time>
      </trkpt>
      <trkpt lat="46.4357" lon="6.30832">
        <ele>395.5</ele>
        <time>2022-09-28T08:57:02Z</time>
      </trkpt>
      <trkpt lat="46.43575" lon="6.30838">
        <ele>395.6</ele>
        <time>2022-09-28T08:57:03Z</time>
      </trkpt>
      <trkpt lat="46.43579" lon="6.30843">
        <ele>395.6</ele>
        <time>2022-09-28T08:57:04Z</time>
      </trkpt>
      <trkpt lat="46.43584" lon="6.30849">
        <ele>395.6</ele>
        <time>2022-09-28T08:57:05Z</time>
      </trkpt>
      <trkpt lat="46.43588" lon="6.30855">
        <ele>395.6</ele>
        <time>2022-09-28T08:57:06Z</time>
      </trkpt>
      <trkpt lat="46.43592" lon="6.30861">
        <ele>395.7</ele>
        <time>2022-09-28T08:57:07Z</time>
      </trkpt>
      <trkpt lat="46.43597" lon="6.30867">
        <ele>395.7</ele>
        <time>2022-09-28T08:57:08Z</time>
      </trkpt>
      <trkpt lat="46.43601" lon="6.30872">
        <ele>395.7</ele>
        <time>2022-09-28T08:57:09Z</time>
      </trkpt>
      <trkpt lat="46.43606" lon="6.30878">
        <ele>395.8</ele>
        <time>2022-09-28T08:57:10Z</time>
      </trkpt>
      <trkpt lat="46.4361" lon="6.30883">
        <ele>395.8</ele>
        <time>2022-09-28T08:57:11Z</time>
      </trkpt>
      <trkpt lat="46.43614" lon="6.30889">
        <ele>395.8</ele>
        <time>2022-09-28T08:57:12Z</time>
      </trkpt>
      <trkpt lat="46.43619" lon="6.30895">
        <ele>395.8</ele>
        <time>2022-09-28T08:57:13Z</time>
      </trkpt>
      <trkpt lat="46.43623" lon="6.309">
        <ele>395.8</ele>
        <time>2022-09-28T08:57:14Z</time>
      </trkpt>
      <trkpt lat="46.43628" lon="6.30906">
        <ele>395.8</ele>
        <time>2022-09-28T08:57:15Z</time>
      </trkpt>
      <trkpt lat="46.43632" lon="6.30911">
        <ele>395.8</ele>
        <time>2022-09-28T08:57:16Z</time>
      </trkpt>
      <trkpt lat="46.43636" lon="6.30917">
        <ele>395.8</ele>
        <time>2022-09-28T08:57:17Z</time>
      </trkpt>
      <trkpt lat="46.43641" lon="6.30922">
        <ele>395.8</ele>
        <time>2022-09-28T08:57:18Z</time>
      </trkpt>
      <trkpt lat="46.43645" lon="6.30928">
        <ele>395.8</ele>
        <time>2022-09-28T08:57:19Z</time>
      </trkpt>
      <trkpt lat="46.43649" lon="6.30933">
        <ele>395.8</ele>
        <time>2022-09-28T08:57:20Z</time>
      </trkpt>
      <trkpt lat="46.43654" lon="6.30938">
        <ele>395.8</ele>
        <time>2022-09-28T08:57:21Z</time>
      </trkpt>
      <trkpt lat="46.43658" lon="6.30944">
        <ele>395.8</ele>
        <time>2022-09-28T08:57:22Z</time>
      </trkpt>
      <trkpt lat="46.43662" lon="6.30949">
        <ele>395.8</ele>
        <time>2022-09-28T08:57:23Z</time>
      </trkpt>
      <trkpt lat="46.43666" lon="6.30955">
        <ele>395.8</ele>
        <time>2022-09-28T08:57:24Z</time>
      </trkpt>
      <trkpt lat="46.4367" lon="6.3096">
        <ele>395.8</ele>
        <time>2022-09-28T08:57:25Z</time>
      </trkpt>
      <trkpt lat="46.43674" lon="6.30966">
        <ele>395.7</ele>
        <time>2022-09-28T08:57:26Z</time>
      </trkpt>
      <trkpt lat="46.43679" lon="6.30972">
        <ele>395.7</ele>
        <time>2022-09-28T08:57:27Z</time>
      </trkpt>
      <trkpt lat="46.43683" lon="6.30977">
        <ele>395.6</ele>
        <time>2022-09-28T08:57:28Z</time>
      </trkpt>
      <trkpt lat="46.43688" lon="6.30983">
        <ele>395.5</ele>
        <time>2022-09-28T08:57:29Z</time>
      </trkpt>
      <trkpt lat="46.43693" lon="6.30989">
        <ele>395.5</ele>
        <time>2022-09-28T08:57:30Z</time>
      </trkpt>
      <trkpt lat="46.43697" lon="6.30995">
        <ele>395.4</ele>
        <time>2022-09-28T08:57:31Z</time>
      </trkpt>
      <trkpt lat="46.43702" lon="6.31002">
        <ele>395.3</ele>
        <time>2022-09-28T08:57:32Z</time>
      </trkpt>
      <trkpt lat="46.43707" lon="6.31008">
        <ele>395.2</ele>
        <time>2022-09-28T08:57:33Z</time>
      </trkpt>
      <trkpt lat="46.43712" lon="6.31014">
        <ele>395.2</ele>
        <time>2022-09-28T08:57:34Z</time>
      </trkpt>
      <trkpt lat="46.43717" lon="6.31021">
        <ele>395.1</ele>
        <time>2022-09-28T08:57:35Z</time>
      </trkpt>
      <trkpt lat="46.43722" lon="6.31027">
        <ele>395</ele>
        <time>2022-09-28T08:57:36Z</time>
      </trkpt>
      <trkpt lat="46.43727" lon="6.31034">
        <ele>394.9</ele>
        <time>2022-09-28T08:57:37Z</time>
      </trkpt>
      <trkpt lat="46.43733" lon="6.31041">
        <ele>394.9</ele>
        <time>2022-09-28T08:57:38Z</time>
      </trkpt>
      <trkpt lat="46.43738" lon="6.31048">
        <ele>394.8</ele>
        <time>2022-09-28T08:57:39Z</time>
      </trkpt>
      <trkpt lat="46.43744" lon="6.31055">
        <ele>394.7</ele>
        <time>2022-09-28T08:57:40Z</time>
      </trkpt>
      <trkpt lat="46.43749" lon="6.31062">
        <ele>394.7</ele>
        <time>2022-09-28T08:57:41Z</time>
      </trkpt>
      <trkpt lat="46.43754" lon="6.31069">
        <ele>394.6</ele>
        <time>2022-09-28T08:57:42Z</time>
      </trkpt>
      <trkpt lat="46.43759" lon="6.31076">
        <ele>394.5</ele>
        <time>2022-09-28T08:57:43Z</time>
      </trkpt>
      <trkpt lat="46.43765" lon="6.31083">
        <ele>394.4</ele>
        <time>2022-09-28T08:57:44Z</time>
      </trkpt>
      <trkpt lat="46.4377" lon="6.3109">
        <ele>394.4</ele>
        <time>2022-09-28T08:57:45Z</time>
      </trkpt>
      <trkpt lat="46.43775" lon="6.31097">
        <ele>394.3</ele>
        <time>2022-09-28T08:57:46Z</time>
      </trkpt>
      <trkpt lat="46.43781" lon="6.31103">
        <ele>394.2</ele>
        <time>2022-09-28T08:57:47Z</time>
      </trkpt>
      <trkpt lat="46.43786" lon="6.3111">
        <ele>394.2</ele>
        <time>2022-09-28T08:57:48Z</time>
      </trkpt>
      <trkpt lat="46.43791" lon="6.31117">
        <ele>394.1</ele>
        <time>2022-09-28T08:57:49Z</time>
      </trkpt>
      <trkpt lat="46.43796" lon="6.31124">
        <ele>394</ele>
        <time>2022-09-28T08:57:50Z</time>
      </trkpt>
      <trkpt lat="46.43802" lon="6.31131">
        <ele>394</ele>
        <time>2022-09-28T08:57:51Z</time>
      </trkpt>
      <trkpt lat="46.43807" lon="6.31138">
        <ele>393.9</ele>
        <time>2022-09-28T08:57:52Z</time>
      </trkpt>
      <trkpt lat="46.43812" lon="6.31145">
        <ele>393.8</ele>
        <time>2022-09-28T08:57:53Z</time>
      </trkpt>
      <trkpt lat="46.43817" lon="6.31151">
        <ele>393.8</ele>
        <time>2022-09-28T08:57:54Z</time>
      </trkpt>
      <trkpt lat="46.43822" lon="6.31158">
        <ele>393.7</ele>
        <time>2022-09-28T08:57:55Z</time>
      </trkpt>
      <trkpt lat="46.43827" lon="6.31165">
        <ele>393.6</ele>
        <time>2022-09-28T08:57:56Z</time>
      </trkpt>
      <trkpt lat="46.43833" lon="6.31172">
        <ele>393.6</ele>
        <time>2022-09-28T08:57:57Z</time>
      </trkpt>
      <trkpt lat="46.43838" lon="6.31179">
        <ele>393.5</ele>
        <time>2022-09-28T08:57:58Z</time>
      </trkpt>
      <trkpt lat="46.43843" lon="6.31185">
        <ele>393.5</ele>
        <time>2022-09-28T08:57:59Z</time>
      </trkpt>
      <trkpt lat="46.43849" lon="6.31192">
        <ele>393.4</ele>
        <time>2022-09-28T08:58:00Z</time>
      </trkpt>
      <trkpt lat="46.43854" lon="6.31199">
        <ele>393.3</ele>
        <time>2022-09-28T08:58:01Z</time>
      </trkpt>
      <trkpt lat="46.43859" lon="6.31206">
        <ele>393.3</ele>
        <time>2022-09-28T08:58:02Z</time>
      </trkpt>
      <trkpt lat="46.43864" lon="6.31213">
        <ele>393.2</ele>
        <time>2022-09-28T08:58:03Z</time>
      </trkpt>
      <trkpt lat="46.4387" lon="6.3122">
        <ele>393.1</ele>
        <time>2022-09-28T08:58:04Z</time>
      </trkpt>
      <trkpt lat="46.43875" lon="6.31227">
        <ele>393</ele>
        <time>2022-09-28T08:58:05Z</time>
      </trkpt>
      <trkpt lat="46.4388" lon="6.31234">
        <ele>393</ele>
        <time>2022-09-28T08:58:06Z</time>
      </trkpt>
      <trkpt lat="46.43886" lon="6.31241">
        <ele>392.9</ele>
        <time>2022-09-28T08:58:07Z</time>
      </trkpt>
      <trkpt lat="46.43891" lon="6.31248">
        <ele>392.8</ele>
        <time>2022-09-28T08:58:08Z</time>
      </trkpt>
      <trkpt lat="46.43896" lon="6.31255">
        <ele>392.7</ele>
        <time>2022-09-28T08:58:09Z</time>
      </trkpt>
      <trkpt lat="46.43902" lon="6.31262">
        <ele>392.6</ele>
        <time>2022-09-28T08:58:10Z</time>
      </trkpt>
      <trkpt lat="46.43907" lon="6.31269">
        <ele>392.6</ele>
        <time>2022-09-28T08:58:11Z</time>
      </trkpt>
      <trkpt lat="46.43913" lon="6.31276">
        <ele>392.5</ele>
        <time>2022-09-28T08:58:12Z</time>
      </trkpt>
      <trkpt lat="46.43918" lon="6.31283">
        <ele>392.3</ele>
        <time>2022-09-28T08:58:13Z</time>
      </trkpt>
      <trkpt lat="46.43924" lon="6.3129">
        <ele>392.2</ele>
        <time>2022-09-28T08:58:14Z</time>
      </trkpt>
      <trkpt lat="46.43929" lon="6.31297">
        <ele>392.1</ele>
        <time>2022-09-28T08:58:15Z</time>
      </trkpt>
      <trkpt lat="46.43935" lon="6.31305">
        <ele>392</ele>
        <time>2022-09-28T08:58:16Z</time>
      </trkpt>
      <trkpt lat="46.4394" lon="6.31312">
        <ele>391.8</ele>
        <time>2022-09-28T08:58:17Z</time>
      </trkpt>
      <trkpt lat="46.43946" lon="6.31319">
        <ele>391.7</ele>
        <time>2022-09-28T08:58:18Z</time>
      </trkpt>
      <trkpt lat="46.43952" lon="6.31326">
        <ele>391.5</ele>
        <time>2022-09-28T08:58:19Z</time>
      </trkpt>
      <trkpt lat="46.43957" lon="6.31334">
        <ele>391.4</ele>
        <time>2022-09-28T08:58:20Z</time>
      </trkpt>
      <trkpt lat="46.43963" lon="6.31341">
        <ele>391.2</ele>
        <time>2022-09-28T08:58:21Z</time>
      </trkpt>
      <trkpt lat="46.43968" lon="6.31348">
        <ele>391.1</ele>
        <time>2022-09-28T08:58:22Z</time>
      </trkpt>
      <trkpt lat="46.43974" lon="6.31356">
        <ele>391</ele>
        <time>2022-09-28T08:58:23Z</time>
      </trkpt>
      <trkpt lat="46.43979" lon="6.31364">
        <ele>390.9</ele>
        <time>2022-09-28T08:58:24Z</time>
      </trkpt>
      <trkpt lat="46.43985" lon="6.31371">
        <ele>390.8</ele>
        <time>2022-09-28T08:58:25Z</time>
      </trkpt>
      <trkpt lat="46.43991" lon="6.31379">
        <ele>390.7</ele>
        <time>2022-09-28T08:58:26Z</time>
      </trkpt>
      <trkpt lat="46.43997" lon="6.31386">
        <ele>390.5</ele>
        <time>2022-09-28T08:58:27Z</time>
      </trkpt>
      <trkpt lat="46.44003" lon="6.31394">
        <ele>390.3</ele>
        <time>2022-09-28T08:58:28Z</time>
      </trkpt>
      <trkpt lat="46.44009" lon="6.31401">
        <ele>390.1</ele>
        <time>2022-09-28T08:58:29Z</time>
      </trkpt>
      <trkpt lat="46.44015" lon="6.31408">
        <ele>389.9</ele>
        <time>2022-09-28T08:58:30Z</time>
      </trkpt>
      <trkpt lat="46.44021" lon="6.31416">
        <ele>389.7</ele>
        <time>2022-09-28T08:58:31Z</time>
      </trkpt>
      <trkpt lat="46.44027" lon="6.31424">
        <ele>389.5</ele>
        <time>2022-09-28T08:58:32Z</time>
      </trkpt>
      <trkpt lat="46.44033" lon="6.31431">
        <ele>389.3</ele>
        <time>2022-09-28T08:58:33Z</time>
      </trkpt>
      <trkpt lat="46.44039" lon="6.31439">
        <ele>389.1</ele>
        <time>2022-09-28T08:58:34Z</time>
      </trkpt>
      <trkpt lat="46.44045" lon="6.31447">
        <ele>388.8</ele>
        <time>2022-09-28T08:58:35Z</time>
      </trkpt>
      <trkpt lat="46.44052" lon="6.31455">
        <ele>388.6</ele>
        <time>2022-09-28T08:58:36Z</time>
      </trkpt>
      <trkpt lat="46.44058" lon="6.31464">
        <ele>388.4</ele>
        <time>2022-09-28T08:58:37Z</time>
      </trkpt>
      <trkpt lat="46.44064" lon="6.31472">
        <ele>388.2</ele>
        <time>2022-09-28T08:58:38Z</time>
      </trkpt>
      <trkpt lat="46.4407" lon="6.3148">
        <ele>388</ele>
        <time>2022-09-28T08:58:39Z</time>
      </trkpt>
      <trkpt lat="46.44076" lon="6.31488">
        <ele>387.8</ele>
        <time>2022-09-28T08:58:40Z</time>
      </trkpt>
      <trkpt lat="46.44083" lon="6.31496">
        <ele>387.6</ele>
        <time>2022-09-28T08:58:41Z</time>
      </trkpt>
      <trkpt lat="46.44089" lon="6.31504">
        <ele>387.4</ele>
        <time>2022-09-28T08:58:42Z</time>
      </trkpt>
      <trkpt lat="46.44095" lon="6.31513">
        <ele>387.2</ele>
        <time>2022-09-28T08:58:43Z</time>
      </trkpt>
      <trkpt lat="46.44102" lon="6.31521">
        <ele>387</ele>
        <time>2022-09-28T08:58:44Z</time>
      </trkpt>
      <trkpt lat="46.44108" lon="6.31529">
        <ele>386.8</ele>
        <time>2022-09-28T08:58:45Z</time>
      </trkpt>
      <trkpt lat="46.44115" lon="6.31538">
        <ele>386.7</ele>
        <time>2022-09-28T08:58:46Z</time>
      </trkpt>
      <trkpt lat="46.44121" lon="6.31546">
        <ele>386.5</ele>
        <time>2022-09-28T08:58:47Z</time>
      </trkpt>
      <trkpt lat="46.44127" lon="6.31554">
        <ele>386.3</ele>
        <time>2022-09-28T08:58:48Z</time>
      </trkpt>
      <trkpt lat="46.44133" lon="6.31562">
        <ele>386.2</ele>
        <time>2022-09-28T08:58:49Z</time>
      </trkpt>
      <trkpt lat="46.44139" lon="6.31571">
        <ele>386</ele>
        <time>2022-09-28T08:58:50Z</time>
      </trkpt>
      <trkpt lat="46.44145" lon="6.31579">
        <ele>385.9</ele>
        <time>2022-09-28T08:58:51Z</time>
      </trkpt>
      <trkpt lat="46.44151" lon="6.31587">
        <ele>385.7</ele>
        <time>2022-09-28T08:58:52Z</time>
      </trkpt>
      <trkpt lat="46.44157" lon="6.31595">
        <ele>385.6</ele>
        <time>2022-09-28T08:58:53Z</time>
      </trkpt>
      <trkpt lat="46.44162" lon="6.31602">
        <ele>385.4</ele>
        <time>2022-09-28T08:58:54Z</time>
      </trkpt>
      <trkpt lat="46.44168" lon="6.31609">
        <ele>385.3</ele>
        <time>2022-09-28T08:58:55Z</time>
      </trkpt>
      <trkpt lat="46.44173" lon="6.31617">
        <ele>385.1</ele>
        <time>2022-09-28T08:58:56Z</time>
      </trkpt>
      <trkpt lat="46.4418" lon="6.31624">
        <ele>384.9</ele>
        <time>2022-09-28T08:58:57Z</time>
      </trkpt>
      <trkpt lat="46.44186" lon="6.31633">
        <ele>384.8</ele>
        <time>2022-09-28T08:58:58Z</time>
      </trkpt>
      <trkpt lat="46.44193" lon="6.31642">
        <ele>384.6</ele>
        <time>2022-09-28T08:58:59Z</time>
      </trkpt>
      <trkpt lat="46.44199" lon="6.3165">
        <ele>384.4</ele>
        <time>2022-09-28T08:59:00Z</time>
      </trkpt>
      <trkpt lat="46.44206" lon="6.3166">
        <ele>384.2</ele>
        <time>2022-09-28T08:59:01Z</time>
      </trkpt>
      <trkpt lat="46.44214" lon="6.31669">
        <ele>384</ele>
        <time>2022-09-28T08:59:02Z</time>
      </trkpt>
      <trkpt lat="46.44221" lon="6.31679">
        <ele>383.8</ele>
        <time>2022-09-28T08:59:03Z</time>
      </trkpt>
      <trkpt lat="46.44228" lon="6.31688">
        <ele>383.5</ele>
        <time>2022-09-28T08:59:04Z</time>
      </trkpt>
      <trkpt lat="46.44235" lon="6.31697">
        <ele>383.3</ele>
        <time>2022-09-28T08:59:05Z</time>
      </trkpt>
      <trkpt lat="46.44242" lon="6.31705">
        <ele>383.1</ele>
        <time>2022-09-28T08:59:06Z</time>
      </trkpt>
      <trkpt lat="46.44249" lon="6.31714">
        <ele>382.9</ele>
        <time>2022-09-28T08:59:07Z</time>
      </trkpt>
      <trkpt lat="46.44255" lon="6.31723">
        <ele>382.8</ele>
        <time>2022-09-28T08:59:08Z</time>
      </trkpt>
      <trkpt lat="46.44262" lon="6.31731">
        <ele>382.6</ele>
        <time>2022-09-28T08:59:09Z</time>
      </trkpt>
      <trkpt lat="46.44268" lon="6.31739">
        <ele>382.5</ele>
        <time>2022-09-28T08:59:10Z</time>
      </trkpt>
      <trkpt lat="46.44274" lon="6.31747">
        <ele>382.4</ele>
        <time>2022-09-28T08:59:11Z</time>
      </trkpt>
      <trkpt lat="46.4428" lon="6.31755">
        <ele>382.2</ele>
        <time>2022-09-28T08:59:12Z</time>
      </trkpt>
      <trkpt lat="46.44286" lon="6.31763">
        <ele>382.1</ele>
        <time>2022-09-28T08:59:13Z</time>
      </trkpt>
      <trkpt lat="46.44292" lon="6.31771">
        <ele>382</ele>
        <time>2022-09-28T08:59:14Z</time>
      </trkpt>
      <trkpt lat="46.44298" lon="6.31778">
        <ele>381.9</ele>
        <time>2022-09-28T08:59:15Z</time>
      </trkpt>
      <trkpt lat="46.44304" lon="6.31786">
        <ele>381.8</ele>
        <time>2022-09-28T08:59:16Z</time>
      </trkpt>
      <trkpt lat="46.4431" lon="6.31794">
        <ele>381.7</ele>
        <time>2022-09-28T08:59:17Z</time>
      </trkpt>
      <trkpt lat="46.44317" lon="6.31802">
        <ele>381.6</ele>
        <time>2022-09-28T08:59:18Z</time>
      </trkpt>
      <trkpt lat="46.44322" lon="6.3181">
        <ele>381.5</ele>
        <time>2022-09-28T08:59:19Z</time>
      </trkpt>
      <trkpt lat="46.44327" lon="6.31818">
        <ele>381.4</ele>
        <time>2022-09-28T08:59:20Z</time>
      </trkpt>
      <trkpt lat="46.44333" lon="6.31826">
        <ele>381.3</ele>
        <time>2022-09-28T08:59:21Z</time>
      </trkpt>
      <trkpt lat="46.44338" lon="6.31833">
        <ele>381.3</ele>
        <time>2022-09-28T08:59:22Z</time>
      </trkpt>
      <trkpt lat="46.44344" lon="6.31841">
        <ele>381.2</ele>
        <time>2022-09-28T08:59:23Z</time>
      </trkpt>
      <trkpt lat="46.44349" lon="6.31848">
        <ele>381.2</ele>
        <time>2022-09-28T08:59:24Z</time>
      </trkpt>
      <trkpt lat="46.44354" lon="6.31855">
        <ele>381.1</ele>
        <time>2022-09-28T08:59:25Z</time>
      </trkpt>
      <trkpt lat="46.4436" lon="6.31862">
        <ele>381.1</ele>
        <time>2022-09-28T08:59:26Z</time>
      </trkpt>
      <trkpt lat="46.44365" lon="6.3187">
        <ele>381.1</ele>
        <time>2022-09-28T08:59:27Z</time>
      </trkpt>
      <trkpt lat="46.44369" lon="6.31877">
        <ele>381</ele>
        <time>2022-09-28T08:59:28Z</time>
      </trkpt>
      <trkpt lat="46.44374" lon="6.31885">
        <ele>381</ele>
        <time>2022-09-28T08:59:29Z</time>
      </trkpt>
      <trkpt lat="46.44379" lon="6.31892">
        <ele>380.9</ele>
        <time>2022-09-28T08:59:30Z</time>
      </trkpt>
      <trkpt lat="46.44383" lon="6.31899">
        <ele>380.9</ele>
        <time>2022-09-28T08:59:31Z</time>
      </trkpt>
      <trkpt lat="46.44387" lon="6.31907">
        <ele>380.9</ele>
        <time>2022-09-28T08:59:32Z</time>
      </trkpt>
      <trkpt lat="46.44392" lon="6.31914">
        <ele>380.8</ele>
        <time>2022-09-28T08:59:33Z</time>
      </trkpt>
      <trkpt lat="46.44396" lon="6.31921">
        <ele>380.8</ele>
        <time>2022-09-28T08:59:34Z</time>
      </trkpt>
      <trkpt lat="46.444" lon="6.31928">
        <ele>380.8</ele>
        <time>2022-09-28T08:59:35Z</time>
      </trkpt>
      <trkpt lat="46.44404" lon="6.31935">
        <ele>380.8</ele>
        <time>2022-09-28T08:59:36Z</time>
      </trkpt>
      <trkpt lat="46.44408" lon="6.31942">
        <ele>380.8</ele>
        <time>2022-09-28T08:59:37Z</time>
      </trkpt>
      <trkpt lat="46.44412" lon="6.31949">
        <ele>380.7</ele>
        <time>2022-09-28T08:59:38Z</time>
      </trkpt>
      <trkpt lat="46.44416" lon="6.31956">
        <ele>380.7</ele>
        <time>2022-09-28T08:59:39Z</time>
      </trkpt>
      <trkpt lat="46.4442" lon="6.31962">
        <ele>380.7</ele>
        <time>2022-09-28T08:59:40Z</time>
      </trkpt>
      <trkpt lat="46.44424" lon="6.3197">
        <ele>380.7</ele>
        <time>2022-09-28T08:59:41Z</time>
      </trkpt>
      <trkpt lat="46.44428" lon="6.31976">
        <ele>380.7</ele>
        <time>2022-09-28T08:59:42Z</time>
      </trkpt>
      <trkpt lat="46.44432" lon="6.31983">
        <ele>380.7</ele>
        <time>2022-09-28T08:59:43Z</time>
      </trkpt>
      <trkpt lat="46.44436" lon="6.3199">
        <ele>380.7</ele>
        <time>2022-09-28T08:59:44Z</time>
      </trkpt>
      <trkpt lat="46.44439" lon="6.31996">
        <ele>380.6</ele>
        <time>2022-09-28T08:59:45Z</time>
      </trkpt>
      <trkpt lat="46.44444" lon="6.32003">
        <ele>380.6</ele>
        <time>2022-09-28T08:59:46Z</time>
      </trkpt>
      <trkpt lat="46.44448" lon="6.3201">
        <ele>380.6</ele>
        <time>2022-09-28T08:59:47Z</time>
      </trkpt>
      <trkpt lat="46.44452" lon="6.32016">
        <ele>380.6</ele>
        <time>2022-09-28T08:59:48Z</time>
      </trkpt>
      <trkpt lat="46.44457" lon="6.32023">
        <ele>380.5</ele>
        <time>2022-09-28T08:59:49Z</time>
      </trkpt>
      <trkpt lat="46.44461" lon="6.3203">
        <ele>380.5</ele>
        <time>2022-09-28T08:59:50Z</time>
      </trkpt>
      <trkpt lat="46.44466" lon="6.32037">
        <ele>380.5</ele>
        <time>2022-09-28T08:59:51Z</time>
      </trkpt>
      <trkpt lat="46.4447" lon="6.32043">
        <ele>380.5</ele>
        <time>2022-09-28T08:59:52Z</time>
      </trkpt>
      <trkpt lat="46.44474" lon="6.3205">
        <ele>380.5</ele>
        <time>2022-09-28T08:59:53Z</time>
      </trkpt>
      <trkpt lat="46.44477" lon="6.32057">
        <ele>380.5</ele>
        <time>2022-09-28T08:59:54Z</time>
      </trkpt>
      <trkpt lat="46.44481" lon="6.32064">
        <ele>380.5</ele>
        <time>2022-09-28T08:59:55Z</time>
      </trkpt>
      <trkpt lat="46.44485" lon="6.32069">
        <ele>380.5</ele>
        <time>2022-09-28T08:59:56Z</time>
      </trkpt>
      <trkpt lat="46.44489" lon="6.32075">
        <ele>380.5</ele>
        <time>2022-09-28T08:59:57Z</time>
      </trkpt>
      <trkpt lat="46.44492" lon="6.32083">
        <ele>380.5</ele>
        <time>2022-09-28T08:59:58Z</time>
      </trkpt>
      <trkpt lat="46.44495" lon="6.32089">
        <ele>380.6</ele>
        <time>2022-09-28T08:59:59Z</time>
      </trkpt>
      <trkpt lat="46.44499" lon="6.32095">
        <ele>380.6</ele>
        <time>2022-09-28T09:00:00Z</time>
      </trkpt>
      <trkpt lat="46.44503" lon="6.32101">
        <ele>380.6</ele>
        <time>2022-09-28T09:00:01Z</time>
      </trkpt>
      <trkpt lat="46.44507" lon="6.32107">
        <ele>380.7</ele>
        <time>2022-09-28T09:00:02Z</time>
      </trkpt>
      <trkpt lat="46.44511" lon="6.32114">
        <ele>380.7</ele>
        <time>2022-09-28T09:00:03Z</time>
      </trkpt>
      <trkpt lat="46.44515" lon="6.3212">
        <ele>380.7</ele>
        <time>2022-09-28T09:00:04Z</time>
      </trkpt>
      <trkpt lat="46.44519" lon="6.32126">
        <ele>380.8</ele>
        <time>2022-09-28T09:00:05Z</time>
      </trkpt>
      <trkpt lat="46.44522" lon="6.32132">
        <ele>380.8</ele>
        <time>2022-09-28T09:00:06Z</time>
      </trkpt>
      <trkpt lat="46.44526" lon="6.32138">
        <ele>380.9</ele>
        <time>2022-09-28T09:00:07Z</time>
      </trkpt>
      <trkpt lat="46.44529" lon="6.32144">
        <ele>380.9</ele>
        <time>2022-09-28T09:00:08Z</time>
      </trkpt>
      <trkpt lat="46.44533" lon="6.3215">
        <ele>380.9</ele>
        <time>2022-09-28T09:00:09Z</time>
      </trkpt>
      <trkpt lat="46.44536" lon="6.32156">
        <ele>381</ele>
        <time>2022-09-28T09:00:10Z</time>
      </trkpt>
      <trkpt lat="46.4454" lon="6.32162">
        <ele>381</ele>
        <time>2022-09-28T09:00:11Z</time>
      </trkpt>
      <trkpt lat="46.44543" lon="6.32169">
        <ele>381.1</ele>
        <time>2022-09-28T09:00:12Z</time>
      </trkpt>
      <trkpt lat="46.44547" lon="6.32175">
        <ele>381.1</ele>
        <time>2022-09-28T09:00:13Z</time>
      </trkpt>
      <trkpt lat="46.4455" lon="6.32181">
        <ele>381.1</ele>
        <time>2022-09-28T09:00:14Z</time>
      </trkpt>
      <trkpt lat="46.44554" lon="6.32187">
        <ele>381.2</ele>
        <time>2022-09-28T09:00:15Z</time>
      </trkpt>
      <trkpt lat="46.44557" lon="6.32193">
        <ele>381.2</ele>
        <time>2022-09-28T09:00:16Z</time>
      </trkpt>
      <trkpt lat="46.44561" lon="6.32199">
        <ele>381.3</ele>
        <time>2022-09-28T09:00:17Z</time>
      </trkpt>
      <trkpt lat="46.44564" lon="6.32205">
        <ele>381.3</ele>
        <time>2022-09-28T09:00:18Z</time>
      </trkpt>
      <trkpt lat="46.44567" lon="6.32211">
        <ele>381.3</ele>
        <time>2022-09-28T09:00:19Z</time>
      </trkpt>
      <trkpt lat="46.44571" lon="6.32217">
        <ele>381.4</ele>
        <time>2022-09-28T09:00:20Z</time>
      </trkpt>
      <trkpt lat="46.44575" lon="6.32223">
        <ele>381.4</ele>
        <time>2022-09-28T09:00:21Z</time>
      </trkpt>
      <trkpt lat="46.44578" lon="6.32229">
        <ele>381.4</ele>
        <time>2022-09-28T09:00:22Z</time>
      </trkpt>
      <trkpt lat="46.44581" lon="6.32235">
        <ele>381.4</ele>
        <time>2022-09-28T09:00:23Z</time>
      </trkpt>
      <trkpt lat="46.44585" lon="6.32241">
        <ele>381.3</ele>
        <time>2022-09-28T09:00:24Z</time>
      </trkpt>
      <trkpt lat="46.44588" lon="6.32246">
        <ele>381.3</ele>
        <time>2022-09-28T09:00:25Z</time>
      </trkpt>
      <trkpt lat="46.44591" lon="6.32252">
        <ele>381.2</ele>
        <time>2022-09-28T09:00:26Z</time>
      </trkpt>
      <trkpt lat="46.44595" lon="6.32258">
        <ele>381.2</ele>
        <time>2022-09-28T09:00:27Z</time>
      </trkpt>
      <trkpt lat="46.44598" lon="6.32265">
        <ele>381.1</ele>
        <time>2022-09-28T09:00:28Z</time>
      </trkpt>
      <trkpt lat="46.44602" lon="6.32271">
        <ele>381</ele>
        <time>2022-09-28T09:00:29Z</time>
      </trkpt>
      <trkpt lat="46.44606" lon="6.32278">
        <ele>381</ele>
        <time>2022-09-28T09:00:30Z</time>
      </trkpt>
      <trkpt lat="46.4461" lon="6.32285">
        <ele>381</ele>
        <time>2022-09-28T09:00:31Z</time>
      </trkpt>
      <trkpt lat="46.44615" lon="6.32292">
        <ele>380.9</ele>
        <time>2022-09-28T09:00:32Z</time>
      </trkpt>
      <trkpt lat="46.44619" lon="6.32298">
        <ele>380.9</ele>
        <time>2022-09-28T09:00:33Z</time>
      </trkpt>
      <trkpt lat="46.44623" lon="6.32305">
        <ele>380.9</ele>
        <time>2022-09-28T09:00:34Z</time>
      </trkpt>
      <trkpt lat="46.44628" lon="6.32312">
        <ele>380.8</ele>
        <time>2022-09-28T09:00:35Z</time>
      </trkpt>
      <trkpt lat="46.44632" lon="6.32319">
        <ele>380.8</ele>
        <time>2022-09-28T09:00:36Z</time>
      </trkpt>
      <trkpt lat="46.44636" lon="6.32326">
        <ele>380.7</ele>
        <time>2022-09-28T09:00:37Z</time>
      </trkpt>
      <trkpt lat="46.4464" lon="6.32332">
        <ele>380.6</ele>
        <time>2022-09-28T09:00:38Z</time>
      </trkpt>
      <trkpt lat="46.44644" lon="6.32339">
        <ele>380.6</ele>
        <time>2022-09-28T09:00:39Z</time>
      </trkpt>
      <trkpt lat="46.44648" lon="6.32346">
        <ele>380.5</ele>
        <time>2022-09-28T09:00:40Z</time>
      </trkpt>
      <trkpt lat="46.44652" lon="6.32353">
        <ele>380.5</ele>
        <time>2022-09-28T09:00:41Z</time>
      </trkpt>
      <trkpt lat="46.44656" lon="6.3236">
        <ele>380.4</ele>
        <time>2022-09-28T09:00:42Z</time>
      </trkpt>
      <trkpt lat="46.4466" lon="6.32366">
        <ele>380.4</ele>
        <time>2022-09-28T09:00:43Z</time>
      </trkpt>
      <trkpt lat="46.44664" lon="6.32373">
        <ele>380.4</ele>
        <time>2022-09-28T09:00:44Z</time>
      </trkpt>
      <trkpt lat="46.44668" lon="6.3238">
        <ele>380.4</ele>
        <time>2022-09-28T09:00:45Z</time>
      </trkpt>
      <trkpt lat="46.44672" lon="6.32386">
        <ele>380.4</ele>
        <time>2022-09-28T09:00:46Z</time>
      </trkpt>
      <trkpt lat="46.44676" lon="6.32393">
        <ele>380.4</ele>
        <time>2022-09-28T09:00:47Z</time>
      </trkpt>
      <trkpt lat="46.4468" lon="6.324">
        <ele>380.4</ele>
        <time>2022-09-28T09:00:48Z</time>
      </trkpt>
      <trkpt lat="46.44684" lon="6.32407">
        <ele>380.5</ele>
        <time>2022-09-28T09:00:49Z</time>
      </trkpt>
      <trkpt lat="46.44688" lon="6.32414">
        <ele>380.5</ele>
        <time>2022-09-28T09:00:50Z</time>
      </trkpt>
      <trkpt lat="46.44692" lon="6.32421">
        <ele>380.5</ele>
        <time>2022-09-28T09:00:51Z</time>
      </trkpt>
      <trkpt lat="46.44696" lon="6.32427">
        <ele>380.6</ele>
        <time>2022-09-28T09:00:52Z</time>
      </trkpt>
      <trkpt lat="46.44699" lon="6.32433">
        <ele>380.7</ele>
        <time>2022-09-28T09:00:53Z</time>
      </trkpt>
      <trkpt lat="46.44703" lon="6.32439">
        <ele>380.7</ele>
        <time>2022-09-28T09:00:54Z</time>
      </trkpt>
      <trkpt lat="46.44706" lon="6.32445">
        <ele>380.8</ele>
        <time>2022-09-28T09:00:55Z</time>
      </trkpt>
      <trkpt lat="46.4471" lon="6.32451">
        <ele>380.9</ele>
        <time>2022-09-28T09:00:56Z</time>
      </trkpt>
      <trkpt lat="46.44713" lon="6.32457">
        <ele>381</ele>
        <time>2022-09-28T09:00:57Z</time>
      </trkpt>
      <trkpt lat="46.44716" lon="6.32463">
        <ele>381</ele>
        <time>2022-09-28T09:00:58Z</time>
      </trkpt>
      <trkpt lat="46.44719" lon="6.32468">
        <ele>381.1</ele>
        <time>2022-09-28T09:00:59Z</time>
      </trkpt>
      <trkpt lat="46.44722" lon="6.32473">
        <ele>381.2</ele>
        <time>2022-09-28T09:01:00Z</time>
      </trkpt>
      <trkpt lat="46.44726" lon="6.32478">
        <ele>381.3</ele>
        <time>2022-09-28T09:01:01Z</time>
      </trkpt>
      <trkpt lat="46.44729" lon="6.32483">
        <ele>381.3</ele>
        <time>2022-09-28T09:01:02Z</time>
      </trkpt>
      <trkpt lat="46.44731" lon="6.32487">
        <ele>381.4</ele>
        <time>2022-09-28T09:01:03Z</time>
      </trkpt>
      <trkpt lat="46.44734" lon="6.32493">
        <ele>381.5</ele>
        <time>2022-09-28T09:01:04Z</time>
      </trkpt>
      <trkpt lat="46.44737" lon="6.32498">
        <ele>381.6</ele>
        <time>2022-09-28T09:01:05Z</time>
      </trkpt>
      <trkpt lat="46.4474" lon="6.32503">
        <ele>381.7</ele>
        <time>2022-09-28T09:01:06Z</time>
      </trkpt>
      <trkpt lat="46.44743" lon="6.32508">
        <ele>381.7</ele>
        <time>2022-09-28T09:01:07Z</time>
      </trkpt>
      <trkpt lat="46.44746" lon="6.32513">
        <ele>381.8</ele>
        <time>2022-09-28T09:01:08Z</time>
      </trkpt>
      <trkpt lat="46.44749" lon="6.32518">
        <ele>381.9</ele>
        <time>2022-09-28T09:01:09Z</time>
      </trkpt>
      <trkpt lat="46.44752" lon="6.32522">
        <ele>381.9</ele>
        <time>2022-09-28T09:01:10Z</time>
      </trkpt>
      <trkpt lat="46.44755" lon="6.32526">
        <ele>382</ele>
        <time>2022-09-28T09:01:11Z</time>
      </trkpt>
      <trkpt lat="46.44757" lon="6.32531">
        <ele>382.1</ele>
        <time>2022-09-28T09:01:12Z</time>
      </trkpt>
      <trkpt lat="46.4476" lon="6.32535">
        <ele>382.1</ele>
        <time>2022-09-28T09:01:13Z</time>
      </trkpt>
      <trkpt lat="46.44762" lon="6.3254">
        <ele>382.2</ele>
        <time>2022-09-28T09:01:14Z</time>
      </trkpt>
      <trkpt lat="46.44765" lon="6.32544">
        <ele>382.3</ele>
        <time>2022-09-28T09:01:15Z</time>
      </trkpt>
      <trkpt lat="46.44768" lon="6.32549">
        <ele>382.4</ele>
        <time>2022-09-28T09:01:16Z</time>
      </trkpt>
      <trkpt lat="46.4477" lon="6.32553">
        <ele>382.4</ele>
        <time>2022-09-28T09:01:17Z</time>
      </trkpt>
      <trkpt lat="46.44773" lon="6.32557">
        <ele>382.5</ele>
        <time>2022-09-28T09:01:18Z</time>
      </trkpt>
      <trkpt lat="46.44776" lon="6.32562">
        <ele>382.6</ele>
        <time>2022-09-28T09:01:19Z</time>
      </trkpt>
      <trkpt lat="46.44778" lon="6.32566">
        <ele>382.6</ele>
        <time>2022-09-28T09:01:20Z</time>
      </trkpt>
      <trkpt lat="46.44781" lon="6.3257">
        <ele>382.7</ele>
        <time>2022-09-28T09:01:21Z</time>
      </trkpt>
      <trkpt lat="46.44784" lon="6.32573">
        <ele>382.8</ele>
        <time>2022-09-28T09:01:22Z</time>
      </trkpt>
      <trkpt lat="46.44787" lon="6.32577">
        <ele>382.9</ele>
        <time>2022-09-28T09:01:23Z</time>
      </trkpt>
      <trkpt lat="46.44789" lon="6.32582">
        <ele>383</ele>
        <time>2022-09-28T09:01:24Z</time>
      </trkpt>
      <trkpt lat="46.44792" lon="6.32586">
        <ele>383.1</ele>
        <time>2022-09-28T09:01:25Z</time>
      </trkpt>
      <trkpt lat="46.44794" lon="6.3259">
        <ele>383.2</ele>
        <time>2022-09-28T09:01:26Z</time>
      </trkpt>
      <trkpt lat="46.44796" lon="6.32594">
        <ele>383.3</ele>
        <time>2022-09-28T09:01:27Z</time>
      </trkpt>
      <trkpt lat="46.44799" lon="6.32598">
        <ele>383.4</ele>
        <time>2022-09-28T09:01:28Z</time>
      </trkpt>
      <trkpt lat="46.44801" lon="6.32603">
        <ele>383.5</ele>
        <time>2022-09-28T09:01:29Z</time>
      </trkpt>
      <trkpt lat="46.44804" lon="6.32607">
        <ele>383.6</ele>
        <time>2022-09-28T09:01:30Z</time>
      </trkpt>
      <trkpt lat="46.44806" lon="6.32612">
        <ele>383.7</ele>
        <time>2022-09-28T09:01:31Z</time>
      </trkpt>
      <trkpt lat="46.44809" lon="6.32616">
        <ele>383.8</ele>
        <time>2022-09-28T09:01:32Z</time>
      </trkpt>
      <trkpt lat="46.44811" lon="6.3262">
        <ele>383.8</ele>
        <time>2022-09-28T09:01:33Z</time>
      </trkpt>
      <trkpt lat="46.44814" lon="6.32625">
        <ele>383.9</ele>
        <time>2022-09-28T09:01:34Z</time>
      </trkpt>
      <trkpt lat="46.44816" lon="6.32628">
        <ele>384</ele>
        <time>2022-09-28T09:01:35Z</time>
      </trkpt>
      <trkpt lat="46.44818" lon="6.32632">
        <ele>384.1</ele>
        <time>2022-09-28T09:01:36Z</time>
      </trkpt>
      <trkpt lat="46.4482" lon="6.32636">
        <ele>384.1</ele>
        <time>2022-09-28T09:01:37Z</time>
      </trkpt>
      <trkpt lat="46.44823" lon="6.3264">
        <ele>384.2</ele>
        <time>2022-09-28T09:01:38Z</time>
      </trkpt>
      <trkpt lat="46.44825" lon="6.32644">
        <ele>384.3</ele>
        <time>2022-09-28T09:01:39Z</time>
      </trkpt>
      <trkpt lat="46.44827" lon="6.32647">
        <ele>384.3</ele>
        <time>2022-09-28T09:01:40Z</time>
      </trkpt>
      <trkpt lat="46.44829" lon="6.32651">
        <ele>384.4</ele>
        <time>2022-09-28T09:01:41Z</time>
      </trkpt>
      <trkpt lat="46.44831" lon="6.32655">
        <ele>384.4</ele>
        <time>2022-09-28T09:01:42Z</time>
      </trkpt>
      <trkpt lat="46.44834" lon="6.32659">
        <ele>384.5</ele>
        <time>2022-09-28T09:01:43Z</time>
      </trkpt>
      <trkpt lat="46.44836" lon="6.32663">
        <ele>384.5</ele>
        <time>2022-09-28T09:01:44Z</time>
      </trkpt>
      <trkpt lat="46.44838" lon="6.32667">
        <ele>384.5</ele>
        <time>2022-09-28T09:01:45Z</time>
      </trkpt>
      <trkpt lat="46.4484" lon="6.32671">
        <ele>384.6</ele>
        <time>2022-09-28T09:01:46Z</time>
      </trkpt>
      <trkpt lat="46.44842" lon="6.32674">
        <ele>384.6</ele>
        <time>2022-09-28T09:01:47Z</time>
      </trkpt>
      <trkpt lat="46.44844" lon="6.32678">
        <ele>384.6</ele>
        <time>2022-09-28T09:01:48Z</time>
      </trkpt>
      <trkpt lat="46.44847" lon="6.32682">
        <ele>384.6</ele>
        <time>2022-09-28T09:01:49Z</time>
      </trkpt>
      <trkpt lat="46.44849" lon="6.32686">
        <ele>384.6</ele>
        <time>2022-09-28T09:01:50Z</time>
      </trkpt>
      <trkpt lat="46.44852" lon="6.3269">
        <ele>384.6</ele>
        <time>2022-09-28T09:01:51Z</time>
      </trkpt>
      <trkpt lat="46.44854" lon="6.32694">
        <ele>384.7</ele>
        <time>2022-09-28T09:01:52Z</time>
      </trkpt>
      <trkpt lat="46.44857" lon="6.32698">
        <ele>384.7</ele>
        <time>2022-09-28T09:01:53Z</time>
      </trkpt>
      <trkpt lat="46.44859" lon="6.32702">
        <ele>384.7</ele>
        <time>2022-09-28T09:01:54Z</time>
      </trkpt>
      <trkpt lat="46.44861" lon="6.32707">
        <ele>384.7</ele>
        <time>2022-09-28T09:01:55Z</time>
      </trkpt>
      <trkpt lat="46.44864" lon="6.32711">
        <ele>384.7</ele>
        <time>2022-09-28T09:01:56Z</time>
      </trkpt>
      <trkpt lat="46.44867" lon="6.32716">
        <ele>384.7</ele>
        <time>2022-09-28T09:01:57Z</time>
      </trkpt>
      <trkpt lat="46.4487" lon="6.3272">
        <ele>384.8</ele>
        <time>2022-09-28T09:01:58Z</time>
      </trkpt>
      <trkpt lat="46.44873" lon="6.32725">
        <ele>384.8</ele>
        <time>2022-09-28T09:01:59Z</time>
      </trkpt>
      <trkpt lat="46.44875" lon="6.3273">
        <ele>384.8</ele>
        <time>2022-09-28T09:02:00Z</time>
      </trkpt>
      <trkpt lat="46.44878" lon="6.32735">
        <ele>384.8</ele>
        <time>2022-09-28T09:02:01Z</time>
      </trkpt>
      <trkpt lat="46.44881" lon="6.3274">
        <ele>384.8</ele>
        <time>2022-09-28T09:02:02Z</time>
      </trkpt>
      <trkpt lat="46.44884" lon="6.32745">
        <ele>384.8</ele>
        <time>2022-09-28T09:02:03Z</time>
      </trkpt>
      <trkpt lat="46.44888" lon="6.32751">
        <ele>384.8</ele>
        <time>2022-09-28T09:02:04Z</time>
      </trkpt>
      <trkpt lat="46.44891" lon="6.32756">
        <ele>384.8</ele>
        <time>2022-09-28T09:02:05Z</time>
      </trkpt>
      <trkpt lat="46.44894" lon="6.32761">
        <ele>384.8</ele>
        <time>2022-09-28T09:02:06Z</time>
      </trkpt>
      <trkpt lat="46.44897" lon="6.32767">
        <ele>384.7</ele>
        <time>2022-09-28T09:02:07Z</time>
      </trkpt>
      <trkpt lat="46.449" lon="6.32773">
        <ele>384.7</ele>
        <time>2022-09-28T09:02:08Z</time>
      </trkpt>
      <trkpt lat="46.44904" lon="6.32778">
        <ele>384.7</ele>
        <time>2022-09-28T09:02:09Z</time>
      </trkpt>
      <trkpt lat="46.44907" lon="6.32784">
        <ele>384.7</ele>
        <time>2022-09-28T09:02:10Z</time>
      </trkpt>
      <trkpt lat="46.4491" lon="6.3279">
        <ele>384.6</ele>
        <time>2022-09-28T09:02:11Z</time>
      </trkpt>
      <trkpt lat="46.44913" lon="6.32795">
        <ele>384.6</ele>
        <time>2022-09-28T09:02:12Z</time>
      </trkpt>
      <trkpt lat="46.44917" lon="6.328">
        <ele>384.5</ele>
        <time>2022-09-28T09:02:13Z</time>
      </trkpt>
      <trkpt lat="46.4492" lon="6.32806">
        <ele>384.5</ele>
        <time>2022-09-28T09:02:14Z</time>
      </trkpt>
      <trkpt lat="46.44923" lon="6.32812">
        <ele>384.5</ele>
        <time>2022-09-28T09:02:15Z</time>
      </trkpt>
      <trkpt lat="46.44926" lon="6.32817">
        <ele>384.4</ele>
        <time>2022-09-28T09:02:16Z</time>
      </trkpt>
      <trkpt lat="46.44929" lon="6.32822">
        <ele>384.4</ele>
        <time>2022-09-28T09:02:17Z</time>
      </trkpt>
      <trkpt lat="46.44933" lon="6.32828">
        <ele>384.4</ele>
        <time>2022-09-28T09:02:18Z</time>
      </trkpt>
      <trkpt lat="46.44936" lon="6.32834">
        <ele>384.4</ele>
        <time>2022-09-28T09:02:19Z</time>
      </trkpt>
      <trkpt lat="46.44939" lon="6.32839">
        <ele>384.4</ele>
        <time>2022-09-28T09:02:20Z</time>
      </trkpt>
      <trkpt lat="46.44943" lon="6.32845">
        <ele>384.4</ele>
        <time>2022-09-28T09:02:21Z</time>
      </trkpt>
      <trkpt lat="46.44946" lon="6.32851">
        <ele>384.4</ele>
        <time>2022-09-28T09:02:22Z</time>
      </trkpt>
      <trkpt lat="46.44949" lon="6.32856">
        <ele>384.4</ele>
        <time>2022-09-28T09:02:23Z</time>
      </trkpt>
      <trkpt lat="46.44953" lon="6.32862">
        <ele>384.5</ele>
        <time>2022-09-28T09:02:24Z</time>
      </trkpt>
      <trkpt lat="46.44956" lon="6.32869">
        <ele>384.5</ele>
        <time>2022-09-28T09:02:25Z</time>
      </trkpt>
      <trkpt lat="46.44959" lon="6.32874">
        <ele>384.5</ele>
        <time>2022-09-28T09:02:26Z</time>
      </trkpt>
      <trkpt lat="46.44963" lon="6.3288">
        <ele>384.4</ele>
        <time>2022-09-28T09:02:27Z</time>
      </trkpt>
      <trkpt lat="46.44966" lon="6.32886">
        <ele>384.4</ele>
        <time>2022-09-28T09:02:28Z</time>
      </trkpt>
      <trkpt lat="46.4497" lon="6.32892">
        <ele>384.4</ele>
        <time>2022-09-28T09:02:29Z</time>
      </trkpt>
      <trkpt lat="46.44973" lon="6.32898">
        <ele>384.3</ele>
        <time>2022-09-28T09:02:30Z</time>
      </trkpt>
      <trkpt lat="46.44977" lon="6.32903">
        <ele>384.3</ele>
        <time>2022-09-28T09:02:31Z</time>
      </trkpt>
      <trkpt lat="46.4498" lon="6.32909">
        <ele>384.3</ele>
        <time>2022-09-28T09:02:32Z</time>
      </trkpt>
      <trkpt lat="46.44984" lon="6.32915">
        <ele>384.3</ele>
        <time>2022-09-28T09:02:33Z</time>
      </trkpt>
      <trkpt lat="46.44988" lon="6.32921">
        <ele>384.2</ele>
        <time>2022-09-28T09:02:34Z</time>
      </trkpt>
      <trkpt lat="46.44991" lon="6.32927">
        <ele>384.2</ele>
        <time>2022-09-28T09:02:35Z</time>
      </trkpt>
      <trkpt lat="46.44995" lon="6.32933">
        <ele>384.3</ele>
        <time>2022-09-28T09:02:36Z</time>
      </trkpt>
      <trkpt lat="46.44998" lon="6.32939">
        <ele>384.3</ele>
        <time>2022-09-28T09:02:37Z</time>
      </trkpt>
      <trkpt lat="46.45002" lon="6.32945">
        <ele>384.4</ele>
        <time>2022-09-28T09:02:38Z</time>
      </trkpt>
      <trkpt lat="46.45005" lon="6.32951">
        <ele>384.4</ele>
        <time>2022-09-28T09:02:39Z</time>
      </trkpt>
      <trkpt lat="46.45009" lon="6.32957">
        <ele>384.5</ele>
        <time>2022-09-28T09:02:40Z</time>
      </trkpt>
      <trkpt lat="46.45012" lon="6.32963">
        <ele>384.5</ele>
        <time>2022-09-28T09:02:41Z</time>
      </trkpt>
      <trkpt lat="46.45016" lon="6.32968">
        <ele>384.4</ele>
        <time>2022-09-28T09:02:42Z</time>
      </trkpt>
      <trkpt lat="46.45019" lon="6.32974">
        <ele>384.4</ele>
        <time>2022-09-28T09:02:43Z</time>
      </trkpt>
      <trkpt lat="46.45023" lon="6.3298">
        <ele>384.4</ele>
        <time>2022-09-28T09:02:44Z</time>
      </trkpt>
      <trkpt lat="46.45026" lon="6.32986">
        <ele>384.4</ele>
        <time>2022-09-28T09:02:45Z</time>
      </trkpt>
      <trkpt lat="46.4503" lon="6.32991">
        <ele>384.3</ele>
        <time>2022-09-28T09:02:46Z</time>
      </trkpt>
      <trkpt lat="46.45033" lon="6.32997">
        <ele>384.3</ele>
        <time>2022-09-28T09:02:47Z</time>
      </trkpt>
      <trkpt lat="46.45037" lon="6.33004">
        <ele>384.3</ele>
        <time>2022-09-28T09:02:48Z</time>
      </trkpt>
      <trkpt lat="46.4504" lon="6.3301">
        <ele>384.3</ele>
        <time>2022-09-28T09:02:49Z</time>
      </trkpt>
      <trkpt lat="46.45044" lon="6.33016">
        <ele>384.3</ele>
        <time>2022-09-28T09:02:50Z</time>
      </trkpt>
      <trkpt lat="46.45048" lon="6.33022">
        <ele>384.3</ele>
        <time>2022-09-28T09:02:51Z</time>
      </trkpt>
      <trkpt lat="46.45051" lon="6.33028">
        <ele>384.4</ele>
        <time>2022-09-28T09:02:52Z</time>
      </trkpt>
      <trkpt lat="46.45055" lon="6.33034">
        <ele>384.4</ele>
        <time>2022-09-28T09:02:53Z</time>
      </trkpt>
      <trkpt lat="46.45058" lon="6.33039">
        <ele>384.4</ele>
        <time>2022-09-28T09:02:54Z</time>
      </trkpt>
      <trkpt lat="46.45062" lon="6.33045">
        <ele>384.4</ele>
        <time>2022-09-28T09:02:55Z</time>
      </trkpt>
      <trkpt lat="46.45065" lon="6.33051">
        <ele>384.5</ele>
        <time>2022-09-28T09:02:56Z</time>
      </trkpt>
      <trkpt lat="46.45068" lon="6.33057">
        <ele>384.5</ele>
        <time>2022-09-28T09:02:57Z</time>
      </trkpt>
      <trkpt lat="46.45072" lon="6.33063">
        <ele>384.5</ele>
        <time>2022-09-28T09:02:58Z</time>
      </trkpt>
      <trkpt lat="46.45075" lon="6.33068">
        <ele>384.6</ele>
        <time>2022-09-28T09:02:59Z</time>
      </trkpt>
      <trkpt lat="46.45079" lon="6.33074">
        <ele>384.6</ele>
        <time>2022-09-28T09:03:00Z</time>
      </trkpt>
      <trkpt lat="46.45082" lon="6.3308">
        <ele>384.7</ele>
        <time>2022-09-28T09:03:01Z</time>
      </trkpt>
      <trkpt lat="46.45085" lon="6.33085">
        <ele>384.7</ele>
        <time>2022-09-28T09:03:02Z</time>
      </trkpt>
      <trkpt lat="46.45089" lon="6.33091">
        <ele>384.8</ele>
        <time>2022-09-28T09:03:03Z</time>
      </trkpt>
      <trkpt lat="46.45092" lon="6.33096">
        <ele>384.9</ele>
        <time>2022-09-28T09:03:04Z</time>
      </trkpt>
      <trkpt lat="46.45095" lon="6.33102">
        <ele>384.9</ele>
        <time>2022-09-28T09:03:05Z</time>
      </trkpt>
      <trkpt lat="46.45098" lon="6.33107">
        <ele>385</ele>
        <time>2022-09-28T09:03:06Z</time>
      </trkpt>
      <trkpt lat="46.45101" lon="6.33112">
        <ele>385</ele>
        <time>2022-09-28T09:03:07Z</time>
      </trkpt>
      <trkpt lat="46.45105" lon="6.33118">
        <ele>385.1</ele>
        <time>2022-09-28T09:03:08Z</time>
      </trkpt>
      <trkpt lat="46.45108" lon="6.33124">
        <ele>385.2</ele>
        <time>2022-09-28T09:03:09Z</time>
      </trkpt>
      <trkpt lat="46.45111" lon="6.33129">
        <ele>385.2</ele>
        <time>2022-09-28T09:03:10Z</time>
      </trkpt>
      <trkpt lat="46.45114" lon="6.33134">
        <ele>385.3</ele>
        <time>2022-09-28T09:03:11Z</time>
      </trkpt>
      <trkpt lat="46.45117" lon="6.33139">
        <ele>385.4</ele>
        <time>2022-09-28T09:03:12Z</time>
      </trkpt>
      <trkpt lat="46.4512" lon="6.33143">
        <ele>385.4</ele>
        <time>2022-09-28T09:03:13Z</time>
      </trkpt>
      <trkpt lat="46.45123" lon="6.33148">
        <ele>385.5</ele>
        <time>2022-09-28T09:03:14Z</time>
      </trkpt>
      <trkpt lat="46.45126" lon="6.33152">
        <ele>385.5</ele>
        <time>2022-09-28T09:03:15Z</time>
      </trkpt>
      <trkpt lat="46.45129" lon="6.33157">
        <ele>385.6</ele>
        <time>2022-09-28T09:03:16Z</time>
      </trkpt>
      <trkpt lat="46.45132" lon="6.33162">
        <ele>385.6</ele>
        <time>2022-09-28T09:03:17Z</time>
      </trkpt>
      <trkpt lat="46.45134" lon="6.33167">
        <ele>385.7</ele>
        <time>2022-09-28T09:03:18Z</time>
      </trkpt>
      <trkpt lat="46.45137" lon="6.33172">
        <ele>385.7</ele>
        <time>2022-09-28T09:03:19Z</time>
      </trkpt>
      <trkpt lat="46.4514" lon="6.33178">
        <ele>385.7</ele>
        <time>2022-09-28T09:03:20Z</time>
      </trkpt>
      <trkpt lat="46.45143" lon="6.33183">
        <ele>385.8</ele>
        <time>2022-09-28T09:03:21Z</time>
      </trkpt>
      <trkpt lat="46.45146" lon="6.33187">
        <ele>385.8</ele>
        <time>2022-09-28T09:03:22Z</time>
      </trkpt>
      <trkpt lat="46.45149" lon="6.33192">
        <ele>385.9</ele>
        <time>2022-09-28T09:03:23Z</time>
      </trkpt>
      <trkpt lat="46.45152" lon="6.33197">
        <ele>385.9</ele>
        <time>2022-09-28T09:03:24Z</time>
      </trkpt>
      <trkpt lat="46.45155" lon="6.33202">
        <ele>385.9</ele>
        <time>2022-09-28T09:03:25Z</time>
      </trkpt>
      <trkpt lat="46.45158" lon="6.33207">
        <ele>385.9</ele>
        <time>2022-09-28T09:03:26Z</time>
      </trkpt>
      <trkpt lat="46.45161" lon="6.33212">
        <ele>386</ele>
        <time>2022-09-28T09:03:27Z</time>
      </trkpt>
      <trkpt lat="46.45164" lon="6.33217">
        <ele>386</ele>
        <time>2022-09-28T09:03:28Z</time>
      </trkpt>
      <trkpt lat="46.45167" lon="6.33222">
        <ele>386</ele>
        <time>2022-09-28T09:03:29Z</time>
      </trkpt>
      <trkpt lat="46.4517" lon="6.33227">
        <ele>386</ele>
        <time>2022-09-28T09:03:30Z</time>
      </trkpt>
      <trkpt lat="46.45173" lon="6.33232">
        <ele>385.9</ele>
        <time>2022-09-28T09:03:31Z</time>
      </trkpt>
      <trkpt lat="46.45176" lon="6.33237">
        <ele>385.9</ele>
        <time>2022-09-28T09:03:32Z</time>
      </trkpt>
      <trkpt lat="46.45179" lon="6.33242">
        <ele>385.9</ele>
        <time>2022-09-28T09:03:33Z</time>
      </trkpt>
      <trkpt lat="46.45182" lon="6.33248">
        <ele>385.9</ele>
        <time>2022-09-28T09:03:34Z</time>
      </trkpt>
      <trkpt lat="46.45185" lon="6.33253">
        <ele>385.9</ele>
        <time>2022-09-28T09:03:35Z</time>
      </trkpt>
      <trkpt lat="46.45188" lon="6.33258">
        <ele>385.9</ele>
        <time>2022-09-28T09:03:36Z</time>
      </trkpt>
      <trkpt lat="46.45191" lon="6.33263">
        <ele>385.8</ele>
        <time>2022-09-28T09:03:37Z</time>
      </trkpt>
      <trkpt lat="46.45194" lon="6.33268">
        <ele>385.8</ele>
        <time>2022-09-28T09:03:38Z</time>
      </trkpt>
      <trkpt lat="46.45197" lon="6.33273">
        <ele>385.8</ele>
        <time>2022-09-28T09:03:39Z</time>
      </trkpt>
      <trkpt lat="46.452" lon="6.33277">
        <ele>385.8</ele>
        <time>2022-09-28T09:03:40Z</time>
      </trkpt>
      <trkpt lat="46.45203" lon="6.33283">
        <ele>385.8</ele>
        <time>2022-09-28T09:03:41Z</time>
      </trkpt>
      <trkpt lat="46.45206" lon="6.33288">
        <ele>385.7</ele>
        <time>2022-09-28T09:03:42Z</time>
      </trkpt>
      <trkpt lat="46.45209" lon="6.33293">
        <ele>385.7</ele>
        <time>2022-09-28T09:03:43Z</time>
      </trkpt>
      <trkpt lat="46.45211" lon="6.33298">
        <ele>385.7</ele>
        <time>2022-09-28T09:03:44Z</time>
      </trkpt>
      <trkpt lat="46.45214" lon="6.33302">
        <ele>385.6</ele>
        <time>2022-09-28T09:03:45Z</time>
      </trkpt>
      <trkpt lat="46.45217" lon="6.33307">
        <ele>385.6</ele>
        <time>2022-09-28T09:03:46Z</time>
      </trkpt>
      <trkpt lat="46.4522" lon="6.33313">
        <ele>385.5</ele>
        <time>2022-09-28T09:03:47Z</time>
      </trkpt>
      <trkpt lat="46.45223" lon="6.33317">
        <ele>385.5</ele>
        <time>2022-09-28T09:03:48Z</time>
      </trkpt>
      <trkpt lat="46.45226" lon="6.33322">
        <ele>385.4</ele>
        <time>2022-09-28T09:03:49Z</time>
      </trkpt>
      <trkpt lat="46.45228" lon="6.33326">
        <ele>385.4</ele>
        <time>2022-09-28T09:03:50Z</time>
      </trkpt>
      <trkpt lat="46.45231" lon="6.33331">
        <ele>385.3</ele>
        <time>2022-09-28T09:03:51Z</time>
      </trkpt>
      <trkpt lat="46.45234" lon="6.33336">
        <ele>385.3</ele>
        <time>2022-09-28T09:03:52Z</time>
      </trkpt>
      <trkpt lat="46.45237" lon="6.33341">
        <ele>385.2</ele>
        <time>2022-09-28T09:03:53Z</time>
      </trkpt>
      <trkpt lat="46.4524" lon="6.33346">
        <ele>385.2</ele>
        <time>2022-09-28T09:03:54Z</time>
      </trkpt>
      <trkpt lat="46.45243" lon="6.33351">
        <ele>385.1</ele>
        <time>2022-09-28T09:03:55Z</time>
      </trkpt>
      <trkpt lat="46.45246" lon="6.33355">
        <ele>385</ele>
        <time>2022-09-28T09:03:56Z</time>
      </trkpt>
      <trkpt lat="46.45249" lon="6.33361">
        <ele>385</ele>
        <time>2022-09-28T09:03:57Z</time>
      </trkpt>
      <trkpt lat="46.45253" lon="6.33366">
        <ele>384.9</ele>
        <time>2022-09-28T09:03:58Z</time>
      </trkpt>
      <trkpt lat="46.45255" lon="6.3337">
        <ele>384.8</ele>
        <time>2022-09-28T09:03:59Z</time>
      </trkpt>
      <trkpt lat="46.45258" lon="6.33375">
        <ele>384.8</ele>
        <time>2022-09-28T09:04:00Z</time>
      </trkpt>
      <trkpt lat="46.45262" lon="6.3338">
        <ele>384.7</ele>
        <time>2022-09-28T09:04:01Z</time>
      </trkpt>
      <trkpt lat="46.45266" lon="6.33387">
        <ele>384.6</ele>
        <time>2022-09-28T09:04:02Z</time>
      </trkpt>
      <trkpt lat="46.4527" lon="6.33393">
        <ele>384.5</ele>
        <time>2022-09-28T09:04:03Z</time>
      </trkpt>
      <trkpt lat="46.45274" lon="6.33399">
        <ele>384.4</ele>
        <time>2022-09-28T09:04:04Z</time>
      </trkpt>
      <trkpt lat="46.45278" lon="6.33405">
        <ele>384.3</ele>
        <time>2022-09-28T09:04:05Z</time>
      </trkpt>
      <trkpt lat="46.45282" lon="6.3341">
        <ele>384.2</ele>
        <time>2022-09-28T09:04:06Z</time>
      </trkpt>
      <trkpt lat="46.45286" lon="6.33415">
        <ele>384.2</ele>
        <time>2022-09-28T09:04:07Z</time>
      </trkpt>
      <trkpt lat="46.45291" lon="6.3342">
        <ele>384.1</ele>
        <time>2022-09-28T09:04:08Z</time>
      </trkpt>
      <trkpt lat="46.45295" lon="6.33426">
        <ele>384</ele>
        <time>2022-09-28T09:04:09Z</time>
      </trkpt>
      <trkpt lat="46.45298" lon="6.33431">
        <ele>383.9</ele>
        <time>2022-09-28T09:04:10Z</time>
      </trkpt>
      <trkpt lat="46.45302" lon="6.33436">
        <ele>383.9</ele>
        <time>2022-09-28T09:04:11Z</time>
      </trkpt>
      <trkpt lat="46.45306" lon="6.3344">
        <ele>383.8</ele>
        <time>2022-09-28T09:04:12Z</time>
      </trkpt>
      <trkpt lat="46.45311" lon="6.33444">
        <ele>383.7</ele>
        <time>2022-09-28T09:04:13Z</time>
      </trkpt>
      <trkpt lat="46.45317" lon="6.33448">
        <ele>383.7</ele>
        <time>2022-09-28T09:04:14Z</time>
      </trkpt>
      <trkpt lat="46.45322" lon="6.33451">
        <ele>383.6</ele>
        <time>2022-09-28T09:04:15Z</time>
      </trkpt>
      <trkpt lat="46.45328" lon="6.33455">
        <ele>383.5</ele>
        <time>2022-09-28T09:04:16Z</time>
      </trkpt>
      <trkpt lat="46.45333" lon="6.33458">
        <ele>383.5</ele>
        <time>2022-09-28T09:04:17Z</time>
      </trkpt>
      <trkpt lat="46.45338" lon="6.33462">
        <ele>383.4</ele>
        <time>2022-09-28T09:04:18Z</time>
      </trkpt>
      <trkpt lat="46.45342" lon="6.33467">
        <ele>383.3</ele>
        <time>2022-09-28T09:04:19Z</time>
      </trkpt>
      <trkpt lat="46.45347" lon="6.3347">
        <ele>383.2</ele>
        <time>2022-09-28T09:04:20Z</time>
      </trkpt>
      <trkpt lat="46.45352" lon="6.33473">
        <ele>383.2</ele>
        <time>2022-09-28T09:04:21Z</time>
      </trkpt>
      <trkpt lat="46.45356" lon="6.33476">
        <ele>383.1</ele>
        <time>2022-09-28T09:04:22Z</time>
      </trkpt>
      <trkpt lat="46.45361" lon="6.33479">
        <ele>383</ele>
        <time>2022-09-28T09:04:23Z</time>
      </trkpt>
      <trkpt lat="46.45366" lon="6.33482">
        <ele>382.9</ele>
        <time>2022-09-28T09:04:24Z</time>
      </trkpt>
      <trkpt lat="46.4537" lon="6.33486">
        <ele>382.9</ele>
        <time>2022-09-28T09:04:25Z</time>
      </trkpt>
      <trkpt lat="46.45375" lon="6.33489">
        <ele>382.9</ele>
        <time>2022-09-28T09:04:26Z</time>
      </trkpt>
      <trkpt lat="46.45379" lon="6.33492">
        <ele>382.8</ele>
        <time>2022-09-28T09:04:27Z</time>
      </trkpt>
      <trkpt lat="46.45384" lon="6.33496">
        <ele>382.8</ele>
        <time>2022-09-28T09:04:28Z</time>
      </trkpt>
      <trkpt lat="46.45388" lon="6.33499">
        <ele>382.7</ele>
        <time>2022-09-28T09:04:29Z</time>
      </trkpt>
      <trkpt lat="46.45393" lon="6.33502">
        <ele>382.7</ele>
        <time>2022-09-28T09:04:30Z</time>
      </trkpt>
      <trkpt lat="46.45397" lon="6.33505">
        <ele>382.7</ele>
        <time>2022-09-28T09:04:31Z</time>
      </trkpt>
      <trkpt lat="46.45402" lon="6.33508">
        <ele>382.6</ele>
        <time>2022-09-28T09:04:32Z</time>
      </trkpt>
      <trkpt lat="46.45406" lon="6.33511">
        <ele>382.6</ele>
        <time>2022-09-28T09:04:33Z</time>
      </trkpt>
      <trkpt lat="46.45411" lon="6.33514">
        <ele>382.6</ele>
        <time>2022-09-28T09:04:34Z</time>
      </trkpt>
      <trkpt lat="46.45415" lon="6.33518">
        <ele>382.6</ele>
        <time>2022-09-28T09:04:35Z</time>
      </trkpt>
      <trkpt lat="46.4542" lon="6.33521">
        <ele>382.5</ele>
        <time>2022-09-28T09:04:36Z</time>
      </trkpt>
      <trkpt lat="46.45424" lon="6.33525">
        <ele>382.5</ele>
        <time>2022-09-28T09:04:37Z</time>
      </trkpt>
      <trkpt lat="46.45428" lon="6.33528">
        <ele>382.4</ele>
        <time>2022-09-28T09:04:38Z</time>
      </trkpt>
      <trkpt lat="46.45432" lon="6.33531">
        <ele>382.4</ele>
        <time>2022-09-28T09:04:39Z</time>
      </trkpt>
      <trkpt lat="46.45436" lon="6.33534">
        <ele>382.3</ele>
        <time>2022-09-28T09:04:40Z</time>
      </trkpt>
      <trkpt lat="46.45441" lon="6.33537">
        <ele>382.3</ele>
        <time>2022-09-28T09:04:41Z</time>
      </trkpt>
      <trkpt lat="46.45445" lon="6.3354">
        <ele>382.2</ele>
        <time>2022-09-28T09:04:42Z</time>
      </trkpt>
      <trkpt lat="46.4545" lon="6.33543">
        <ele>382.2</ele>
        <time>2022-09-28T09:04:43Z</time>
      </trkpt>
      <trkpt lat="46.45454" lon="6.33545">
        <ele>382.1</ele>
        <time>2022-09-28T09:04:44Z</time>
      </trkpt>
      <trkpt lat="46.45459" lon="6.33547">
        <ele>382.1</ele>
        <time>2022-09-28T09:04:45Z</time>
      </trkpt>
      <trkpt lat="46.45463" lon="6.3355">
        <ele>382</ele>
        <time>2022-09-28T09:04:46Z</time>
      </trkpt>
      <trkpt lat="46.45468" lon="6.33553">
        <ele>381.9</ele>
        <time>2022-09-28T09:04:47Z</time>
      </trkpt>
      <trkpt lat="46.45472" lon="6.33556">
        <ele>381.9</ele>
        <time>2022-09-28T09:04:48Z</time>
      </trkpt>
      <trkpt lat="46.45477" lon="6.3356">
        <ele>381.8</ele>
        <time>2022-09-28T09:04:49Z</time>
      </trkpt>
      <trkpt lat="46.45482" lon="6.33563">
        <ele>381.7</ele>
        <time>2022-09-28T09:04:50Z</time>
      </trkpt>
      <trkpt lat="46.45487" lon="6.33565">
        <ele>381.6</ele>
        <time>2022-09-28T09:04:51Z</time>
      </trkpt>
      <trkpt lat="46.45492" lon="6.33569">
        <ele>381.5</ele>
        <time>2022-09-28T09:04:52Z</time>
      </trkpt>
      <trkpt lat="46.45496" lon="6.33572">
        <ele>381.4</ele>
        <time>2022-09-28T09:04:53Z</time>
      </trkpt>
      <trkpt lat="46.45501" lon="6.33575">
        <ele>381.3</ele>
        <time>2022-09-28T09:04:54Z</time>
      </trkpt>
      <trkpt lat="46.45505" lon="6.33578">
        <ele>381.2</ele>
        <time>2022-09-28T09:04:55Z</time>
      </trkpt>
      <trkpt lat="46.4551" lon="6.33581">
        <ele>381</ele>
        <time>2022-09-28T09:04:56Z</time>
      </trkpt>
      <trkpt lat="46.45514" lon="6.33584">
        <ele>380.9</ele>
        <time>2022-09-28T09:04:57Z</time>
      </trkpt>
      <trkpt lat="46.45519" lon="6.33587">
        <ele>380.8</ele>
        <time>2022-09-28T09:04:58Z</time>
      </trkpt>
      <trkpt lat="46.45524" lon="6.3359">
        <ele>380.7</ele>
        <time>2022-09-28T09:04:59Z</time>
      </trkpt>
      <trkpt lat="46.45528" lon="6.33593">
        <ele>380.6</ele>
        <time>2022-09-28T09:05:00Z</time>
      </trkpt>
      <trkpt lat="46.45533" lon="6.33596">
        <ele>380.5</ele>
        <time>2022-09-28T09:05:01Z</time>
      </trkpt>
      <trkpt lat="46.45538" lon="6.33598">
        <ele>380.5</ele>
        <time>2022-09-28T09:05:02Z</time>
      </trkpt>
      <trkpt lat="46.45542" lon="6.33601">
        <ele>380.4</ele>
        <time>2022-09-28T09:05:03Z</time>
      </trkpt>
      <trkpt lat="46.45547" lon="6.33603">
        <ele>380.3</ele>
        <time>2022-09-28T09:05:04Z</time>
      </trkpt>
      <trkpt lat="46.45552" lon="6.33606">
        <ele>380.2</ele>
        <time>2022-09-28T09:05:05Z</time>
      </trkpt>
      <trkpt lat="46.45556" lon="6.33609">
        <ele>380.2</ele>
        <time>2022-09-28T09:05:06Z</time>
      </trkpt>
      <trkpt lat="46.45561" lon="6.33612">
        <ele>380.2</ele>
        <time>2022-09-28T09:05:07Z</time>
      </trkpt>
      <trkpt lat="46.45565" lon="6.33615">
        <ele>380.1</ele>
        <time>2022-09-28T09:05:08Z</time>
      </trkpt>
      <trkpt lat="46.45569" lon="6.33618">
        <ele>380.1</ele>
        <time>2022-09-28T09:05:09Z</time>
      </trkpt>
      <trkpt lat="46.45574" lon="6.33621">
        <ele>380</ele>
        <time>2022-09-28T09:05:10Z</time>
      </trkpt>
      <trkpt lat="46.45578" lon="6.33624">
        <ele>380</ele>
        <time>2022-09-28T09:05:11Z</time>
      </trkpt>
      <trkpt lat="46.45582" lon="6.33629">
        <ele>380</ele>
        <time>2022-09-28T09:05:12Z</time>
      </trkpt>
      <trkpt lat="46.45586" lon="6.33632">
        <ele>379.9</ele>
        <time>2022-09-28T09:05:13Z</time>
      </trkpt>
      <trkpt lat="46.4559" lon="6.33634">
        <ele>379.9</ele>
        <time>2022-09-28T09:05:14Z</time>
      </trkpt>
      <trkpt lat="46.45594" lon="6.33637">
        <ele>379.9</ele>
        <time>2022-09-28T09:05:15Z</time>
      </trkpt>
      <trkpt lat="46.45598" lon="6.3364">
        <ele>379.8</ele>
        <time>2022-09-28T09:05:16Z</time>
      </trkpt>
      <trkpt lat="46.45602" lon="6.33644">
        <ele>379.8</ele>
        <time>2022-09-28T09:05:17Z</time>
      </trkpt>
      <trkpt lat="46.45605" lon="6.33647">
        <ele>379.8</ele>
        <time>2022-09-28T09:05:18Z</time>
      </trkpt>
      <trkpt lat="46.45607" lon="6.33651">
        <ele>379.8</ele>
        <time>2022-09-28T09:05:19Z</time>
      </trkpt>
      <trkpt lat="46.45611" lon="6.33653">
        <ele>379.7</ele>
        <time>2022-09-28T09:05:20Z</time>
      </trkpt>
      <trkpt lat="46.45614" lon="6.33656">
        <ele>379.7</ele>
        <time>2022-09-28T09:05:21Z</time>
      </trkpt>
      <trkpt lat="46.45618" lon="6.33657">
        <ele>379.6</ele>
        <time>2022-09-28T09:05:22Z</time>
      </trkpt>
      <trkpt lat="46.45622" lon="6.33658">
        <ele>379.5</ele>
        <time>2022-09-28T09:05:23Z</time>
      </trkpt>
      <trkpt lat="46.45626" lon="6.33661">
        <ele>379.4</ele>
        <time>2022-09-28T09:05:24Z</time>
      </trkpt>
      <trkpt lat="46.4563" lon="6.33663">
        <ele>379.3</ele>
        <time>2022-09-28T09:05:25Z</time>
      </trkpt>
      <trkpt lat="46.45634" lon="6.33668">
        <ele>379.2</ele>
        <time>2022-09-28T09:05:26Z</time>
      </trkpt>
      <trkpt lat="46.45638" lon="6.33672">
        <ele>379.1</ele>
        <time>2022-09-28T09:05:27Z</time>
      </trkpt>
      <trkpt lat="46.45642" lon="6.33676">
        <ele>379</ele>
        <time>2022-09-28T09:05:28Z</time>
      </trkpt>
      <trkpt lat="46.45646" lon="6.33681">
        <ele>378.9</ele>
        <time>2022-09-28T09:05:29Z</time>
      </trkpt>
      <trkpt lat="46.4565" lon="6.33685">
        <ele>378.8</ele>
        <time>2022-09-28T09:05:30Z</time>
      </trkpt>
      <trkpt lat="46.45654" lon="6.33689">
        <ele>378.7</ele>
        <time>2022-09-28T09:05:31Z</time>
      </trkpt>
      <trkpt lat="46.45658" lon="6.33694">
        <ele>378.6</ele>
        <time>2022-09-28T09:05:32Z</time>
      </trkpt>
      <trkpt lat="46.45663" lon="6.33699">
        <ele>378.5</ele>
        <time>2022-09-28T09:05:33Z</time>
      </trkpt>
      <trkpt lat="46.45666" lon="6.33703">
        <ele>378.4</ele>
        <time>2022-09-28T09:05:34Z</time>
      </trkpt>
      <trkpt lat="46.45669" lon="6.33708">
        <ele>378.4</ele>
        <time>2022-09-28T09:05:35Z</time>
      </trkpt>
      <trkpt lat="46.45672" lon="6.33712">
        <ele>378.3</ele>
        <time>2022-09-28T09:05:36Z</time>
      </trkpt>
      <trkpt lat="46.45677" lon="6.33715">
        <ele>378.2</ele>
        <time>2022-09-28T09:05:37Z</time>
      </trkpt>
      <trkpt lat="46.45681" lon="6.3372">
        <ele>378.2</ele>
        <time>2022-09-28T09:05:38Z</time>
      </trkpt>
      <trkpt lat="46.45685" lon="6.33724">
        <ele>378.1</ele>
        <time>2022-09-28T09:05:39Z</time>
      </trkpt>
      <trkpt lat="46.45689" lon="6.33729">
        <ele>378</ele>
        <time>2022-09-28T09:05:40Z</time>
      </trkpt>
      <trkpt lat="46.45693" lon="6.33733">
        <ele>378</ele>
        <time>2022-09-28T09:05:41Z</time>
      </trkpt>
      <trkpt lat="46.45695" lon="6.3374">
        <ele>378</ele>
        <time>2022-09-28T09:05:42Z</time>
      </trkpt>
      <trkpt lat="46.45699" lon="6.33745">
        <ele>377.9</ele>
        <time>2022-09-28T09:05:43Z</time>
      </trkpt>
      <trkpt lat="46.45704" lon="6.33749">
        <ele>377.9</ele>
        <time>2022-09-28T09:05:44Z</time>
      </trkpt>
      <trkpt lat="46.45708" lon="6.33754">
        <ele>377.9</ele>
        <time>2022-09-28T09:05:45Z</time>
      </trkpt>
      <trkpt lat="46.45712" lon="6.33759">
        <ele>377.8</ele>
        <time>2022-09-28T09:05:46Z</time>
      </trkpt>
      <trkpt lat="46.45717" lon="6.33763">
        <ele>377.8</ele>
        <time>2022-09-28T09:05:47Z</time>
      </trkpt>
      <trkpt lat="46.45722" lon="6.33768">
        <ele>377.8</ele>
        <time>2022-09-28T09:05:48Z</time>
      </trkpt>
      <trkpt lat="46.45726" lon="6.33773">
        <ele>377.8</ele>
        <time>2022-09-28T09:05:49Z</time>
      </trkpt>
      <trkpt lat="46.45731" lon="6.33778">
        <ele>377.8</ele>
        <time>2022-09-28T09:05:50Z</time>
      </trkpt>
      <trkpt lat="46.45735" lon="6.33783">
        <ele>377.8</ele>
        <time>2022-09-28T09:05:51Z</time>
      </trkpt>
      <trkpt lat="46.45739" lon="6.33787">
        <ele>377.8</ele>
        <time>2022-09-28T09:05:52Z</time>
      </trkpt>
      <trkpt lat="46.45743" lon="6.33791">
        <ele>377.8</ele>
        <time>2022-09-28T09:05:53Z</time>
      </trkpt>
      <trkpt lat="46.45747" lon="6.33796">
        <ele>377.8</ele>
        <time>2022-09-28T09:05:54Z</time>
      </trkpt>
      <trkpt lat="46.4575" lon="6.338">
        <ele>377.8</ele>
        <time>2022-09-28T09:05:55Z</time>
      </trkpt>
      <trkpt lat="46.45753" lon="6.33804">
        <ele>377.8</ele>
        <time>2022-09-28T09:05:56Z</time>
      </trkpt>
      <trkpt lat="46.45757" lon="6.33808">
        <ele>377.9</ele>
        <time>2022-09-28T09:05:57Z</time>
      </trkpt>
      <trkpt lat="46.45761" lon="6.33812">
        <ele>377.9</ele>
        <time>2022-09-28T09:05:58Z</time>
      </trkpt>
      <trkpt lat="46.45764" lon="6.33816">
        <ele>377.9</ele>
        <time>2022-09-28T09:05:59Z</time>
      </trkpt>
      <trkpt lat="46.45767" lon="6.3382">
        <ele>377.9</ele>
        <time>2022-09-28T09:06:00Z</time>
      </trkpt>
      <trkpt lat="46.45771" lon="6.33823">
        <ele>378</ele>
        <time>2022-09-28T09:06:01Z</time>
      </trkpt>
      <trkpt lat="46.45774" lon="6.33827">
        <ele>378</ele>
        <time>2022-09-28T09:06:02Z</time>
      </trkpt>
      <trkpt lat="46.45777" lon="6.3383">
        <ele>378</ele>
        <time>2022-09-28T09:06:03Z</time>
      </trkpt>
      <trkpt lat="46.4578" lon="6.33834">
        <ele>378.1</ele>
        <time>2022-09-28T09:06:04Z</time>
      </trkpt>
      <trkpt lat="46.45783" lon="6.33837">
        <ele>378.1</ele>
        <time>2022-09-28T09:06:05Z</time>
      </trkpt>
      <trkpt lat="46.45786" lon="6.33842">
        <ele>378.1</ele>
        <time>2022-09-28T09:06:06Z</time>
      </trkpt>
      <trkpt lat="46.4579" lon="6.33845">
        <ele>378.2</ele>
        <time>2022-09-28T09:06:07Z</time>
      </trkpt>
      <trkpt lat="46.45793" lon="6.33849">
        <ele>378.2</ele>
        <time>2022-09-28T09:06:08Z</time>
      </trkpt>
      <trkpt lat="46.45795" lon="6.33853">
        <ele>378.2</ele>
        <time>2022-09-28T09:06:09Z</time>
      </trkpt>
      <trkpt lat="46.45798" lon="6.33856">
        <ele>378.2</ele>
        <time>2022-09-28T09:06:10Z</time>
      </trkpt>
      <trkpt lat="46.45801" lon="6.33859">
        <ele>378.3</ele>
        <time>2022-09-28T09:06:11Z</time>
      </trkpt>
      <trkpt lat="46.45802" lon="6.33862">
        <ele>378.3</ele>
        <time>2022-09-28T09:06:12Z</time>
      </trkpt>
      <trkpt lat="46.45802" lon="6.33863">
        <ele>378.3</ele>
        <time>2022-09-28T09:06:13Z</time>
      </trkpt>
      <trkpt lat="46.45803" lon="6.33863">
        <ele>378.3</ele>
        <time>2022-09-28T09:06:14Z</time>
      </trkpt>
      <trkpt lat="46.45802" lon="6.33863">
        <ele>378.3</ele>
        <time>2022-09-28T09:06:15Z</time>
      </trkpt>
      <trkpt lat="46.45802" lon="6.33862">
        <ele>378.3</ele>
        <time>2022-09-28T09:06:16Z</time>
      </trkpt>
      <trkpt lat="46.45801" lon="6.33861">
        <ele>378.3</ele>
        <time>2022-09-28T09:06:17Z</time>
      </trkpt>
      <trkpt lat="46.458" lon="6.33861">
        <ele>378.3</ele>
        <time>2022-09-28T09:06:18Z</time>
      </trkpt>
      <trkpt lat="46.458" lon="6.3386">
        <ele>378.3</ele>
        <time>2022-09-28T09:06:19Z</time>
      </trkpt>
      <trkpt lat="46.45799" lon="6.33859">
        <ele>378.3</ele>
        <time>2022-09-28T09:06:20Z</time>
      </trkpt>
      <trkpt lat="46.45798" lon="6.33859">
        <ele>378.2</ele>
        <time>2022-09-28T09:06:21Z</time>
      </trkpt>
      <trkpt lat="46.45798" lon="6.33858">
        <ele>378.2</ele>
        <time>2022-09-28T09:06:22Z</time>
      </trkpt>
      <trkpt lat="46.45797" lon="6.33857">
        <ele>378.2</ele>
        <time>2022-09-28T09:06:40Z</time>
      </trkpt>
      <trkpt lat="46.45796" lon="6.33857">
        <ele>378.2</ele>
        <time>2022-09-28T09:06:41Z</time>
      </trkpt>
      <trkpt lat="46.45796" lon="6.33856">
        <ele>378.2</ele>
        <time>2022-09-28T09:06:42Z</time>
      </trkpt>
      <trkpt lat="46.45795" lon="6.33853">
        <ele>378.2</ele>
        <time>2022-09-28T09:06:43Z</time>
      </trkpt>
      <trkpt lat="46.45794" lon="6.33853">
        <ele>378.2</ele>
        <time>2022-09-28T09:06:44Z</time>
      </trkpt>
      <trkpt lat="46.45793" lon="6.33852">
        <ele>378.2</ele>
        <time>2022-09-28T09:06:45Z</time>
      </trkpt>
      <trkpt lat="46.45791" lon="6.33851">
        <ele>378.2</ele>
        <time>2022-09-28T09:06:46Z</time>
      </trkpt>
      <trkpt lat="46.45791" lon="6.33849">
        <ele>378.2</ele>
        <time>2022-09-28T09:06:47Z</time>
      </trkpt>
      <trkpt lat="46.4579" lon="6.33848">
        <ele>378.2</ele>
        <time>2022-09-28T09:06:48Z</time>
      </trkpt>
      <trkpt lat="46.45787" lon="6.33846">
        <ele>378.2</ele>
        <time>2022-09-28T09:06:49Z</time>
      </trkpt>
      <trkpt lat="46.45784" lon="6.33845">
        <ele>378.1</ele>
        <time>2022-09-28T09:06:50Z</time>
      </trkpt>
      <trkpt lat="46.45781" lon="6.33844">
        <ele>378.1</ele>
        <time>2022-09-28T09:12:54Z</time>
      </trkpt>
      <trkpt lat="46.45778" lon="6.33843">
        <ele>378.1</ele>
        <time>2022-09-28T09:12:55Z</time>
      </trkpt>
      <trkpt lat="46.45778" lon="6.33844">
        <ele>378.1</ele>
        <time>2022-09-28T09:12:56Z</time>
      </trkpt>
      <trkpt lat="46.45779" lon="6.33845">
        <ele>378.1</ele>
        <time>2022-09-28T09:12:57Z</time>
      </trkpt>
      <trkpt lat="46.4578" lon="6.33845">
        <ele>378.1</ele>
        <time>2022-09-28T09:12:58Z</time>
      </trkpt>
      <trkpt lat="46.45781" lon="6.33846">
        <ele>378.1</ele>
        <time>2022-09-28T09:12:59Z</time>
      </trkpt>
      <trkpt lat="46.45781" lon="6.33846">
        <ele>378.1</ele>
        <time>2022-09-28T09:13:00Z</time>
      </trkpt>
      <trkpt lat="46.45782" lon="6.33847">
        <ele>378.1</ele>
        <time>2022-09-28T09:13:01Z</time>
      </trkpt>
      <trkpt lat="46.45783" lon="6.33848">
        <ele>378.1</ele>
        <time>2022-09-28T09:13:02Z</time>
      </trkpt>
      <trkpt lat="46.45783" lon="6.33848">
        <ele>378.1</ele>
        <time>2022-09-28T09:13:03Z</time>
      </trkpt>
      <trkpt lat="46.45783" lon="6.33848">
        <ele>378.1</ele>
        <time>2022-09-28T09:13:04Z</time>
      </trkpt>
      <trkpt lat="46.45783" lon="6.33847">
        <ele>378.1</ele>
        <time>2022-09-28T09:13:05Z</time>
      </trkpt>
      <trkpt lat="46.45783" lon="6.33847">
        <ele>378.1</ele>
        <time>2022-09-28T09:13:06Z</time>
      </trkpt>
      <trkpt lat="46.45783" lon="6.33847">
        <ele>378.1</ele>
        <time>2022-09-28T09:13:07Z</time>
      </trkpt>
      <trkpt lat="46.45783" lon="6.33846">
        <ele>378.1</ele>
        <time>2022-09-28T09:13:08Z</time>
      </trkpt>
      <trkpt lat="46.45782" lon="6.33845">
        <ele>378.1</ele>
        <time>2022-09-28T09:13:09Z</time>
      </trkpt>
      <trkpt lat="46.45783" lon="6.33846">
        <ele>378.1</ele>
        <time>2022-09-28T09:13:10Z</time>
      </trkpt>
      <trkpt lat="46.45783" lon="6.33846">
        <ele>378.1</ele>
        <time>2022-09-28T09:13:11Z</time>
      </trkpt>
      <trkpt lat="46.45784" lon="6.33847">
        <ele>378.1</ele>
        <time>2022-09-28T09:13:12Z</time>
      </trkpt>
      <trkpt lat="46.45784" lon="6.33847">
        <ele>378.1</ele>
        <time>2022-09-28T09:13:13Z</time>
      </trkpt>
      <trkpt lat="46.45785" lon="6.33847">
        <ele>378.1</ele>
        <time>2022-09-28T09:13:14Z</time>
      </trkpt>
      <trkpt lat="46.45786" lon="6.33848">
        <ele>378.1</ele>
        <time>2022-09-28T09:13:15Z</time>
      </trkpt>
      <trkpt lat="46.45786" lon="6.33848">
        <ele>378.1</ele>
        <time>2022-09-28T09:13:16Z</time>
      </trkpt>
      <trkpt lat="46.45787" lon="6.33848">
        <ele>378.1</ele>
        <time>2022-09-28T09:13:17Z</time>
      </trkpt>
      <trkpt lat="46.45788" lon="6.3385">
        <ele>378.1</ele>
        <time>2022-09-28T09:13:18Z</time>
      </trkpt>
      <trkpt lat="46.45805" lon="6.33837">
        <ele>378.1</ele>
        <time>2022-09-28T09:14:42Z</time>
      </trkpt>
      <trkpt lat="46.45803" lon="6.33839">
        <ele>378.1</ele>
        <time>2022-09-28T09:14:43Z</time>
      </trkpt>
      <trkpt lat="46.45798" lon="6.3384">
        <ele>378.1</ele>
        <time>2022-09-28T09:14:44Z</time>
      </trkpt>
      <trkpt lat="46.45793" lon="6.33839">
        <ele>378.1</ele>
        <time>2022-09-28T09:14:45Z</time>
      </trkpt>
      <trkpt lat="46.45792" lon="6.33843">
        <ele>378.1</ele>
        <time>2022-09-28T09:14:46Z</time>
      </trkpt>
      <trkpt lat="46.45792" lon="6.33842">
        <ele>378.1</ele>
        <time>2022-09-28T09:14:47Z</time>
      </trkpt>
      <trkpt lat="46.45792" lon="6.33841">
        <ele>378.1</ele>
        <time>2022-09-28T09:14:48Z</time>
      </trkpt>
      <trkpt lat="46.45792" lon="6.3384">
        <ele>378.1</ele>
        <time>2022-09-28T09:14:49Z</time>
      </trkpt>
      <trkpt lat="46.45792" lon="6.3384">
        <ele>378.1</ele>
        <time>2022-09-28T09:14:50Z</time>
      </trkpt>
      <trkpt lat="46.45792" lon="6.33839">
        <ele>378.1</ele>
        <time>2022-09-28T09:14:51Z</time>
      </trkpt>
      <trkpt lat="46.45792" lon="6.33838">
        <ele>378.1</ele>
        <time>2022-09-28T09:14:52Z</time>
      </trkpt>
      <trkpt lat="46.45792" lon="6.33837">
        <ele>378.1</ele>
        <time>2022-09-28T09:14:53Z</time>
      </trkpt>
      <trkpt lat="46.45792" lon="6.33836">
        <ele>378.1</ele>
        <time>2022-09-28T09:16:42Z</time>
      </trkpt>
      <trkpt lat="46.45793" lon="6.33835">
        <ele>378.1</ele>
        <time>2022-09-28T09:16:43Z</time>
      </trkpt>
      <trkpt lat="46.45793" lon="6.33835">
        <ele>378.1</ele>
        <time>2022-09-28T09:16:44Z</time>
      </trkpt>
      <trkpt lat="46.45793" lon="6.33834">
        <ele>378.1</ele>
        <time>2022-09-28T09:16:45Z</time>
      </trkpt>
      <trkpt lat="46.45793" lon="6.33833">
        <ele>378.1</ele>
        <time>2022-09-28T09:16:46Z</time>
      </trkpt>
      <trkpt lat="46.45793" lon="6.33832">
        <ele>378.1</ele>
        <time>2022-09-28T09:16:47Z</time>
      </trkpt>
      <trkpt lat="46.45793" lon="6.33831">
        <ele>378.1</ele>
        <time>2022-09-28T09:16:48Z</time>
      </trkpt>
      <trkpt lat="46.45793" lon="6.3383">
        <ele>378.1</ele>
        <time>2022-09-28T09:16:49Z</time>
      </trkpt>
      <trkpt lat="46.45793" lon="6.3383">
        <ele>378.1</ele>
        <time>2022-09-28T09:16:50Z</time>
      </trkpt>
      <trkpt lat="46.45791" lon="6.33828">
        <ele>378.1</ele>
        <time>2022-09-28T09:16:51Z</time>
      </trkpt>
      <trkpt lat="46.45788" lon="6.33825">
        <ele>378.1</ele>
        <time>2022-09-28T09:16:52Z</time>
      </trkpt>
      <trkpt lat="46.45788" lon="6.33824">
        <ele>378.1</ele>
        <time>2022-09-28T09:16:53Z</time>
      </trkpt>
      <trkpt lat="46.45787" lon="6.33824">
        <ele>378.1</ele>
        <time>2022-09-28T09:16:54Z</time>
      </trkpt>
      <trkpt lat="46.45787" lon="6.33823">
        <ele>378.1</ele>
        <time>2022-09-28T09:18:55Z</time>
      </trkpt>
      <trkpt lat="46.45787" lon="6.33822">
        <ele>378.1</ele>
        <time>2022-09-28T09:18:56Z</time>
      </trkpt>
      <trkpt lat="46.45787" lon="6.33821">
        <ele>378.1</ele>
        <time>2022-09-28T09:18:57Z</time>
      </trkpt>
      <trkpt lat="46.45787" lon="6.3382">
        <ele>378.1</ele>
        <time>2022-09-28T09:18:58Z</time>
      </trkpt>
      <trkpt lat="46.45786" lon="6.33819">
        <ele>378.1</ele>
        <time>2022-09-28T09:18:59Z</time>
      </trkpt>
      <trkpt lat="46.45786" lon="6.33818">
        <ele>378.1</ele>
        <time>2022-09-28T09:19:00Z</time>
      </trkpt>
      <trkpt lat="46.45788" lon="6.3382">
        <ele>378.1</ele>
        <time>2022-09-28T09:19:01Z</time>
      </trkpt>
      <trkpt lat="46.45789" lon="6.33821">
        <ele>378.1</ele>
        <time>2022-09-28T09:19:02Z</time>
      </trkpt>
      <trkpt lat="46.4579" lon="6.33823">
        <ele>378.1</ele>
        <time>2022-09-28T09:19:03Z</time>
      </trkpt>
      <trkpt lat="46.45792" lon="6.33824">
        <ele>378.1</ele>
        <time>2022-09-28T09:19:04Z</time>
      </trkpt>
      <trkpt lat="46.45793" lon="6.33826">
        <ele>378.1</ele>
        <time>2022-09-28T09:32:30Z</time>
      </trkpt>
      <trkpt lat="46.45794" lon="6.33827">
        <ele>378.1</ele>
        <time>2022-09-28T09:32:31Z</time>
      </trkpt>
      <trkpt lat="46.45795" lon="6.33829">
        <ele>378.1</ele>
        <time>2022-09-28T09:32:32Z</time>
      </trkpt>
      <trkpt lat="46.45795" lon="6.33829">
        <ele>378.1</ele>
        <time>2022-09-28T09:32:33Z</time>
      </trkpt>
      <trkpt lat="46.45795" lon="6.33829">
        <ele>378.1</ele>
        <time>2022-09-28T09:32:34Z</time>
      </trkpt>
      <trkpt lat="46.45795" lon="6.33829">
        <ele>378.1</ele>
        <time>2022-09-28T09:32:35Z</time>
      </trkpt>
      <trkpt lat="46.45795" lon="6.33829">
        <ele>378.1</ele>
        <time>2022-09-28T09:32:36Z</time>
      </trkpt>
      <trkpt lat="46.45795" lon="6.33829">
        <ele>378.1</ele>
        <time>2022-09-28T09:32:37Z</time>
      </trkpt>
      <trkpt lat="46.45795" lon="6.33829">
        <ele>378.1</ele>
        <time>2022-09-28T09:32:38Z</time>
      </trkpt>
      <trkpt lat="46.45795" lon="6.33829">
        <ele>378.1</ele>
        <time>2022-09-28T09:32:39Z</time>
      </trkpt>
      <trkpt lat="46.45797" lon="6.33828">
        <ele>378.2</ele>
        <time>2022-09-28T09:32:40Z</time>
      </trkpt>
      <trkpt lat="46.45795" lon="6.33823">
        <ele>378.2</ele>
        <time>2022-09-28T09:33:58Z</time>
      </trkpt>
      <trkpt lat="46.45792" lon="6.33824">
        <ele>378.2</ele>
        <time>2022-09-28T09:33:59Z</time>
      </trkpt>
      <trkpt lat="46.45794" lon="6.33826">
        <ele>378.2</ele>
        <time>2022-09-28T09:34:00Z</time>
      </trkpt>
      <trkpt lat="46.45793" lon="6.33827">
        <ele>378.2</ele>
        <time>2022-09-28T09:34:01Z</time>
      </trkpt>
      <trkpt lat="46.45793" lon="6.33826">
        <ele>378.2</ele>
        <time>2022-09-28T09:34:02Z</time>
      </trkpt>
      <trkpt lat="46.45793" lon="6.33825">
        <ele>378.2</ele>
        <time>2022-09-28T09:34:03Z</time>
      </trkpt>
      <trkpt lat="46.45794" lon="6.33827">
        <ele>378.2</ele>
        <time>2022-09-28T09:34:04Z</time>
      </trkpt>
      <trkpt lat="46.45794" lon="6.33826">
        <ele>378.2</ele>
        <time>2022-09-28T09:34:05Z</time>
      </trkpt>
      <trkpt lat="46.45793" lon="6.33827">
        <ele>378.2</ele>
        <time>2022-09-28T09:34:06Z</time>
      </trkpt>
      <trkpt lat="46.45795" lon="6.33831">
        <ele>378.2</ele>
        <time>2022-09-28T09:34:07Z</time>
      </trkpt>
      <trkpt lat="46.45798" lon="6.33834">
        <ele>378.2</ele>
        <time>2022-09-28T09:34:08Z</time>
      </trkpt>
      <trkpt lat="46.45801" lon="6.33837">
        <ele>378.2</ele>
        <time>2022-09-28T09:34:09Z</time>
      </trkpt>
      <trkpt lat="46.45804" lon="6.3384">
        <ele>378.2</ele>
        <time>2022-09-28T09:34:10Z</time>
      </trkpt>
      <trkpt lat="46.45806" lon="6.33843">
        <ele>378.2</ele>
        <time>2022-09-28T09:34:40Z</time>
      </trkpt>
      <trkpt lat="46.45809" lon="6.33846">
        <ele>378.3</ele>
        <time>2022-09-28T09:34:41Z</time>
      </trkpt>
      <trkpt lat="46.45811" lon="6.33849">
        <ele>378.3</ele>
        <time>2022-09-28T09:34:42Z</time>
      </trkpt>
      <trkpt lat="46.45812" lon="6.3385">
        <ele>378.3</ele>
        <time>2022-09-28T09:34:43Z</time>
      </trkpt>
      <trkpt lat="46.45815" lon="6.33853">
        <ele>378.3</ele>
        <time>2022-09-28T09:34:44Z</time>
      </trkpt>
      <trkpt lat="46.45818" lon="6.33855">
        <ele>378.3</ele>
        <time>2022-09-28T09:34:45Z</time>
      </trkpt>
      <trkpt lat="46.4582" lon="6.33859">
        <ele>378.4</ele>
        <time>2022-09-28T09:34:46Z</time>
      </trkpt>
      <trkpt lat="46.45823" lon="6.33864">
        <ele>378.4</ele>
        <time>2022-09-28T09:34:47Z</time>
      </trkpt>
      <trkpt lat="46.45826" lon="6.33868">
        <ele>378.4</ele>
        <time>2022-09-28T09:34:48Z</time>
      </trkpt>
      <trkpt lat="46.45829" lon="6.33872">
        <ele>378.4</ele>
        <time>2022-09-28T09:34:49Z</time>
      </trkpt>
      <trkpt lat="46.45831" lon="6.33876">
        <ele>378.5</ele>
        <time>2022-09-28T09:34:50Z</time>
      </trkpt>
      <trkpt lat="46.45835" lon="6.33879">
        <ele>378.5</ele>
        <time>2022-09-28T09:34:51Z</time>
      </trkpt>
      <trkpt lat="46.45837" lon="6.33882">
        <ele>378.5</ele>
        <time>2022-09-28T09:34:52Z</time>
      </trkpt>
      <trkpt lat="46.45839" lon="6.33887">
        <ele>378.5</ele>
        <time>2022-09-28T09:34:53Z</time>
      </trkpt>
      <trkpt lat="46.45842" lon="6.33891">
        <ele>378.6</ele>
        <time>2022-09-28T09:34:54Z</time>
      </trkpt>
      <trkpt lat="46.45845" lon="6.33895">
        <ele>378.6</ele>
        <time>2022-09-28T09:34:55Z</time>
      </trkpt>
      <trkpt lat="46.45848" lon="6.33899">
        <ele>378.7</ele>
        <time>2022-09-28T09:34:56Z</time>
      </trkpt>
      <trkpt lat="46.45851" lon="6.33905">
        <ele>378.7</ele>
        <time>2022-09-28T09:34:57Z</time>
      </trkpt>
      <trkpt lat="46.45855" lon="6.33908">
        <ele>378.7</ele>
        <time>2022-09-28T09:34:58Z</time>
      </trkpt>
      <trkpt lat="46.45859" lon="6.33911">
        <ele>378.8</ele>
        <time>2022-09-28T09:34:59Z</time>
      </trkpt>
      <trkpt lat="46.45862" lon="6.33915">
        <ele>378.8</ele>
        <time>2022-09-28T09:35:00Z</time>
      </trkpt>
      <trkpt lat="46.45865" lon="6.33919">
        <ele>378.9</ele>
        <time>2022-09-28T09:35:01Z</time>
      </trkpt>
      <trkpt lat="46.45868" lon="6.33923">
        <ele>378.9</ele>
        <time>2022-09-28T09:35:02Z</time>
      </trkpt>
      <trkpt lat="46.45871" lon="6.33928">
        <ele>378.9</ele>
        <time>2022-09-28T09:35:03Z</time>
      </trkpt>
      <trkpt lat="46.45875" lon="6.33932">
        <ele>379</ele>
        <time>2022-09-28T09:35:04Z</time>
      </trkpt>
      <trkpt lat="46.45879" lon="6.33937">
        <ele>379</ele>
        <time>2022-09-28T09:35:05Z</time>
      </trkpt>
      <trkpt lat="46.45882" lon="6.3394">
        <ele>379</ele>
        <time>2022-09-28T09:35:06Z</time>
      </trkpt>
      <trkpt lat="46.45886" lon="6.33943">
        <ele>379.1</ele>
        <time>2022-09-28T09:35:07Z</time>
      </trkpt>
      <trkpt lat="46.45889" lon="6.33949">
        <ele>379.1</ele>
        <time>2022-09-28T09:35:08Z</time>
      </trkpt>
      <trkpt lat="46.45892" lon="6.33953">
        <ele>379.1</ele>
        <time>2022-09-28T09:35:09Z</time>
      </trkpt>
      <trkpt lat="46.45895" lon="6.33957">
        <ele>379.2</ele>
        <time>2022-09-28T09:35:10Z</time>
      </trkpt>
      <trkpt lat="46.45899" lon="6.3396">
        <ele>379.2</ele>
        <time>2022-09-28T09:35:11Z</time>
      </trkpt>
      <trkpt lat="46.45904" lon="6.33965">
        <ele>379.3</ele>
        <time>2022-09-28T09:35:12Z</time>
      </trkpt>
      <trkpt lat="46.45907" lon="6.3397">
        <ele>379.3</ele>
        <time>2022-09-28T09:35:13Z</time>
      </trkpt>
      <trkpt lat="46.4591" lon="6.33975">
        <ele>379.3</ele>
        <time>2022-09-28T09:35:14Z</time>
      </trkpt>
      <trkpt lat="46.45913" lon="6.3398">
        <ele>379.4</ele>
        <time>2022-09-28T09:35:16Z</time>
      </trkpt>
      <trkpt lat="46.45918" lon="6.33985">
        <ele>379.4</ele>
        <time>2022-09-28T09:35:17Z</time>
      </trkpt>
      <trkpt lat="46.45922" lon="6.3399">
        <ele>379.5</ele>
        <time>2022-09-28T09:35:18Z</time>
      </trkpt>
      <trkpt lat="46.45924" lon="6.33994">
        <ele>379.5</ele>
        <time>2022-09-28T09:35:19Z</time>
      </trkpt>
      <trkpt lat="46.45927" lon="6.33998">
        <ele>379.6</ele>
        <time>2022-09-28T09:35:20Z</time>
      </trkpt>
      <trkpt lat="46.45931" lon="6.34002">
        <ele>379.6</ele>
        <time>2022-09-28T09:35:21Z</time>
      </trkpt>
      <trkpt lat="46.45933" lon="6.34006">
        <ele>379.7</ele>
        <time>2022-09-28T09:35:22Z</time>
      </trkpt>
      <trkpt lat="46.4594" lon="6.34018">
        <ele>379.8</ele>
        <time>2022-09-28T09:35:23Z</time>
      </trkpt>
      <trkpt lat="46.45945" lon="6.34019">
        <ele>379.9</ele>
        <time>2022-09-28T09:35:24Z</time>
      </trkpt>
      <trkpt lat="46.45948" lon="6.34023">
        <ele>379.9</ele>
        <time>2022-09-28T09:35:26Z</time>
      </trkpt>
      <trkpt lat="46.45952" lon="6.34026">
        <ele>380</ele>
        <time>2022-09-28T09:35:27Z</time>
      </trkpt>
      <trkpt lat="46.45955" lon="6.3403">
        <ele>380.1</ele>
        <time>2022-09-28T09:35:28Z</time>
      </trkpt>
      <trkpt lat="46.45958" lon="6.34034">
        <ele>380.1</ele>
        <time>2022-09-28T09:35:29Z</time>
      </trkpt>
      <trkpt lat="46.45962" lon="6.34037">
        <ele>380.2</ele>
        <time>2022-09-28T09:35:30Z</time>
      </trkpt>
      <trkpt lat="46.45967" lon="6.34041">
        <ele>380.3</ele>
        <time>2022-09-28T09:35:31Z</time>
      </trkpt>
      <trkpt lat="46.45969" lon="6.34046">
        <ele>380.4</ele>
        <time>2022-09-28T09:35:32Z</time>
      </trkpt>
      <trkpt lat="46.45972" lon="6.3405">
        <ele>380.4</ele>
        <time>2022-09-28T09:35:33Z</time>
      </trkpt>
      <trkpt lat="46.45974" lon="6.34053">
        <ele>380.5</ele>
        <time>2022-09-28T09:35:34Z</time>
      </trkpt>
      <trkpt lat="46.45976" lon="6.34057">
        <ele>380.5</ele>
        <time>2022-09-28T09:35:35Z</time>
      </trkpt>
      <trkpt lat="46.45979" lon="6.34062">
        <ele>380.6</ele>
        <time>2022-09-28T09:35:36Z</time>
      </trkpt>
      <trkpt lat="46.45981" lon="6.34066">
        <ele>380.6</ele>
        <time>2022-09-28T09:35:37Z</time>
      </trkpt>
      <trkpt lat="46.45983" lon="6.3407">
        <ele>380.6</ele>
        <time>2022-09-28T09:35:38Z</time>
      </trkpt>
      <trkpt lat="46.45983" lon="6.34072">
        <ele>380.6</ele>
        <time>2022-09-28T09:35:39Z</time>
      </trkpt>
      <trkpt lat="46.45985" lon="6.34075">
        <ele>380.6</ele>
        <time>2022-09-28T09:35:40Z</time>
      </trkpt>
      <trkpt lat="46.45987" lon="6.3408">
        <ele>380.6</ele>
        <time>2022-09-28T09:35:41Z</time>
      </trkpt>
      <trkpt lat="46.4599" lon="6.34082">
        <ele>380.6</ele>
        <time>2022-09-28T09:35:42Z</time>
      </trkpt>
      <trkpt lat="46.45993" lon="6.34085">
        <ele>380.7</ele>
        <time>2022-09-28T09:35:43Z</time>
      </trkpt>
      <trkpt lat="46.45996" lon="6.34088">
        <ele>380.8</ele>
        <time>2022-09-28T09:35:44Z</time>
      </trkpt>
      <trkpt lat="46.45999" lon="6.34089">
        <ele>380.9</ele>
        <time>2022-09-28T09:35:45Z</time>
      </trkpt>
      <trkpt lat="46.46003" lon="6.34092">
        <ele>381</ele>
        <time>2022-09-28T09:35:46Z</time>
      </trkpt>
      <trkpt lat="46.46005" lon="6.34097">
        <ele>381.1</ele>
        <time>2022-09-28T09:35:47Z</time>
      </trkpt>
      <trkpt lat="46.4601" lon="6.34097">
        <ele>381.2</ele>
        <time>2022-09-28T09:35:48Z</time>
      </trkpt>
      <trkpt lat="46.46013" lon="6.34101">
        <ele>381.2</ele>
        <time>2022-09-28T09:35:49Z</time>
      </trkpt>
      <trkpt lat="46.46019" lon="6.34109">
        <ele>381.2</ele>
        <time>2022-09-28T09:35:50Z</time>
      </trkpt>
      <trkpt lat="46.46022" lon="6.34112">
        <ele>381.3</ele>
        <time>2022-09-28T09:35:51Z</time>
      </trkpt>
      <trkpt lat="46.46026" lon="6.34116">
        <ele>381.3</ele>
        <time>2022-09-28T09:35:52Z</time>
      </trkpt>
      <trkpt lat="46.46028" lon="6.34119">
        <ele>381.3</ele>
        <time>2022-09-28T09:35:53Z</time>
      </trkpt>
      <trkpt lat="46.46031" lon="6.34123">
        <ele>381.3</ele>
        <time>2022-09-28T09:35:54Z</time>
      </trkpt>
      <trkpt lat="46.46034" lon="6.34127">
        <ele>381.4</ele>
        <time>2022-09-28T09:35:55Z</time>
      </trkpt>
      <trkpt lat="46.46038" lon="6.34131">
        <ele>381.4</ele>
        <time>2022-09-28T09:35:56Z</time>
      </trkpt>
      <trkpt lat="46.46042" lon="6.34134">
        <ele>381.5</ele>
        <time>2022-09-28T09:35:57Z</time>
      </trkpt>
      <trkpt lat="46.46045" lon="6.34137">
        <ele>381.5</ele>
        <time>2022-09-28T09:35:58Z</time>
      </trkpt>
      <trkpt lat="46.46048" lon="6.34141">
        <ele>381.6</ele>
        <time>2022-09-28T09:35:59Z</time>
      </trkpt>
      <trkpt lat="46.46052" lon="6.34145">
        <ele>381.6</ele>
        <time>2022-09-28T09:36:00Z</time>
      </trkpt>
      <trkpt lat="46.46054" lon="6.34149">
        <ele>381.7</ele>
        <time>2022-09-28T09:36:01Z</time>
      </trkpt>
      <trkpt lat="46.46058" lon="6.34153">
        <ele>381.8</ele>
        <time>2022-09-28T09:36:02Z</time>
      </trkpt>
      <trkpt lat="46.4606" lon="6.34156">
        <ele>381.8</ele>
        <time>2022-09-28T09:36:03Z</time>
      </trkpt>
      <trkpt lat="46.46064" lon="6.3416">
        <ele>381.9</ele>
        <time>2022-09-28T09:36:04Z</time>
      </trkpt>
      <trkpt lat="46.46068" lon="6.34163">
        <ele>382</ele>
        <time>2022-09-28T09:36:05Z</time>
      </trkpt>
      <trkpt lat="46.46072" lon="6.34167">
        <ele>382.1</ele>
        <time>2022-09-28T09:36:06Z</time>
      </trkpt>
      <trkpt lat="46.46074" lon="6.34172">
        <ele>382.1</ele>
        <time>2022-09-28T09:36:07Z</time>
      </trkpt>
      <trkpt lat="46.46077" lon="6.34176">
        <ele>382.2</ele>
        <time>2022-09-28T09:36:08Z</time>
      </trkpt>
      <trkpt lat="46.46078" lon="6.34182">
        <ele>382.2</ele>
        <time>2022-09-28T09:36:09Z</time>
      </trkpt>
      <trkpt lat="46.46081" lon="6.34186">
        <ele>382.2</ele>
        <time>2022-09-28T09:36:10Z</time>
      </trkpt>
      <trkpt lat="46.46085" lon="6.34189">
        <ele>382.2</ele>
        <time>2022-09-28T09:36:11Z</time>
      </trkpt>
      <trkpt lat="46.46088" lon="6.34194">
        <ele>382.2</ele>
        <time>2022-09-28T09:36:12Z</time>
      </trkpt>
      <trkpt lat="46.46092" lon="6.34197">
        <ele>382.2</ele>
        <time>2022-09-28T09:36:13Z</time>
      </trkpt>
      <trkpt lat="46.46096" lon="6.342">
        <ele>382.2</ele>
        <time>2022-09-28T09:36:14Z</time>
      </trkpt>
      <trkpt lat="46.461" lon="6.34205">
        <ele>382.3</ele>
        <time>2022-09-28T09:36:15Z</time>
      </trkpt>
      <trkpt lat="46.46104" lon="6.34209">
        <ele>382.2</ele>
        <time>2022-09-28T09:36:16Z</time>
      </trkpt>
      <trkpt lat="46.46108" lon="6.34212">
        <ele>382.2</ele>
        <time>2022-09-28T09:36:17Z</time>
      </trkpt>
      <trkpt lat="46.46112" lon="6.34218">
        <ele>382.2</ele>
        <time>2022-09-28T09:36:18Z</time>
      </trkpt>
      <trkpt lat="46.46117" lon="6.34223">
        <ele>382.1</ele>
        <time>2022-09-28T09:36:19Z</time>
      </trkpt>
      <trkpt lat="46.4612" lon="6.34228">
        <ele>382.1</ele>
        <time>2022-09-28T09:36:20Z</time>
      </trkpt>
      <trkpt lat="46.46123" lon="6.34231">
        <ele>382</ele>
        <time>2022-09-28T09:36:21Z</time>
      </trkpt>
      <trkpt lat="46.46128" lon="6.34237">
        <ele>381.9</ele>
        <time>2022-09-28T09:36:22Z</time>
      </trkpt>
      <trkpt lat="46.46131" lon="6.34241">
        <ele>381.9</ele>
        <time>2022-09-28T09:36:23Z</time>
      </trkpt>
      <trkpt lat="46.46135" lon="6.34245">
        <ele>381.8</ele>
        <time>2022-09-28T09:36:24Z</time>
      </trkpt>
      <trkpt lat="46.46139" lon="6.34249">
        <ele>381.8</ele>
        <time>2022-09-28T09:36:25Z</time>
      </trkpt>
      <trkpt lat="46.46142" lon="6.34253">
        <ele>381.7</ele>
        <time>2022-09-28T09:36:26Z</time>
      </trkpt>
      <trkpt lat="46.46145" lon="6.34257">
        <ele>381.7</ele>
        <time>2022-09-28T09:36:27Z</time>
      </trkpt>
      <trkpt lat="46.4615" lon="6.34262">
        <ele>381.6</ele>
        <time>2022-09-28T09:36:28Z</time>
      </trkpt>
      <trkpt lat="46.46152" lon="6.34265">
        <ele>381.5</ele>
        <time>2022-09-28T09:36:29Z</time>
      </trkpt>
      <trkpt lat="46.46156" lon="6.34269">
        <ele>381.4</ele>
        <time>2022-09-28T09:36:30Z</time>
      </trkpt>
      <trkpt lat="46.46159" lon="6.34271">
        <ele>381.4</ele>
        <time>2022-09-28T09:36:31Z</time>
      </trkpt>
      <trkpt lat="46.46162" lon="6.34275">
        <ele>381.3</ele>
        <time>2022-09-28T09:36:32Z</time>
      </trkpt>
      <trkpt lat="46.46166" lon="6.3428">
        <ele>381.2</ele>
        <time>2022-09-28T09:36:33Z</time>
      </trkpt>
      <trkpt lat="46.4617" lon="6.34285">
        <ele>381.1</ele>
        <time>2022-09-28T09:36:34Z</time>
      </trkpt>
      <trkpt lat="46.46174" lon="6.34289">
        <ele>381</ele>
        <time>2022-09-28T09:36:35Z</time>
      </trkpt>
      <trkpt lat="46.46178" lon="6.34294">
        <ele>380.9</ele>
        <time>2022-09-28T09:36:36Z</time>
      </trkpt>
      <trkpt lat="46.46182" lon="6.34298">
        <ele>380.8</ele>
        <time>2022-09-28T09:36:37Z</time>
      </trkpt>
      <trkpt lat="46.46186" lon="6.34303">
        <ele>380.7</ele>
        <time>2022-09-28T09:36:38Z</time>
      </trkpt>
      <trkpt lat="46.4619" lon="6.34308">
        <ele>380.6</ele>
        <time>2022-09-28T09:36:39Z</time>
      </trkpt>
      <trkpt lat="46.46194" lon="6.34313">
        <ele>380.5</ele>
        <time>2022-09-28T09:36:40Z</time>
      </trkpt>
      <trkpt lat="46.46198" lon="6.34317">
        <ele>380.4</ele>
        <time>2022-09-28T09:36:41Z</time>
      </trkpt>
      <trkpt lat="46.46202" lon="6.34322">
        <ele>380.3</ele>
        <time>2022-09-28T09:36:42Z</time>
      </trkpt>
      <trkpt lat="46.46205" lon="6.34326">
        <ele>380.2</ele>
        <time>2022-09-28T09:36:43Z</time>
      </trkpt>
      <trkpt lat="46.46209" lon="6.34332">
        <ele>380.2</ele>
        <time>2022-09-28T09:36:44Z</time>
      </trkpt>
      <trkpt lat="46.46213" lon="6.34337">
        <ele>380.1</ele>
        <time>2022-09-28T09:36:45Z</time>
      </trkpt>
      <trkpt lat="46.46217" lon="6.34342">
        <ele>380</ele>
        <time>2022-09-28T09:36:46Z</time>
      </trkpt>
      <trkpt lat="46.46221" lon="6.34348">
        <ele>380</ele>
        <time>2022-09-28T09:36:47Z</time>
      </trkpt>
      <trkpt lat="46.46224" lon="6.34353">
        <ele>379.9</ele>
        <time>2022-09-28T09:36:48Z</time>
      </trkpt>
      <trkpt lat="46.46227" lon="6.3436">
        <ele>379.9</ele>
        <time>2022-09-28T09:36:49Z</time>
      </trkpt>
      <trkpt lat="46.46231" lon="6.34366">
        <ele>379.8</ele>
        <time>2022-09-28T09:36:50Z</time>
      </trkpt>
      <trkpt lat="46.46233" lon="6.34372">
        <ele>379.7</ele>
        <time>2022-09-28T09:36:51Z</time>
      </trkpt>
      <trkpt lat="46.46236" lon="6.34377">
        <ele>379.7</ele>
        <time>2022-09-28T09:36:52Z</time>
      </trkpt>
      <trkpt lat="46.46238" lon="6.34383">
        <ele>379.6</ele>
        <time>2022-09-28T09:36:53Z</time>
      </trkpt>
      <trkpt lat="46.46241" lon="6.34389">
        <ele>379.5</ele>
        <time>2022-09-28T09:36:54Z</time>
      </trkpt>
      <trkpt lat="46.46242" lon="6.34395">
        <ele>379.5</ele>
        <time>2022-09-28T09:36:55Z</time>
      </trkpt>
      <trkpt lat="46.46244" lon="6.34401">
        <ele>379.5</ele>
        <time>2022-09-28T09:36:56Z</time>
      </trkpt>
      <trkpt lat="46.46246" lon="6.34408">
        <ele>379.4</ele>
        <time>2022-09-28T09:36:57Z</time>
      </trkpt>
      <trkpt lat="46.46247" lon="6.34416">
        <ele>379.4</ele>
        <time>2022-09-28T09:36:58Z</time>
      </trkpt>
      <trkpt lat="46.46249" lon="6.34423">
        <ele>379.4</ele>
        <time>2022-09-28T09:36:59Z</time>
      </trkpt>
      <trkpt lat="46.4625" lon="6.34431">
        <ele>379.4</ele>
        <time>2022-09-28T09:37:00Z</time>
      </trkpt>
      <trkpt lat="46.46252" lon="6.34438">
        <ele>379.3</ele>
        <time>2022-09-28T09:37:01Z</time>
      </trkpt>
      <trkpt lat="46.46253" lon="6.34446">
        <ele>379.3</ele>
        <time>2022-09-28T09:37:02Z</time>
      </trkpt>
      <trkpt lat="46.46253" lon="6.34452">
        <ele>379.3</ele>
        <time>2022-09-28T09:37:03Z</time>
      </trkpt>
      <trkpt lat="46.46254" lon="6.3446">
        <ele>379.3</ele>
        <time>2022-09-28T09:37:04Z</time>
      </trkpt>
      <trkpt lat="46.46254" lon="6.34467">
        <ele>379.3</ele>
        <time>2022-09-28T09:37:05Z</time>
      </trkpt>
      <trkpt lat="46.46255" lon="6.34473">
        <ele>379.3</ele>
        <time>2022-09-28T09:37:06Z</time>
      </trkpt>
      <trkpt lat="46.46256" lon="6.34481">
        <ele>379.3</ele>
        <time>2022-09-28T09:37:07Z</time>
      </trkpt>
      <trkpt lat="46.46256" lon="6.34488">
        <ele>379.3</ele>
        <time>2022-09-28T09:37:08Z</time>
      </trkpt>
      <trkpt lat="46.46257" lon="6.34495">
        <ele>379.4</ele>
        <time>2022-09-28T09:37:09Z</time>
      </trkpt>
      <trkpt lat="46.46257" lon="6.34502">
        <ele>379.4</ele>
        <time>2022-09-28T09:37:10Z</time>
      </trkpt>
      <trkpt lat="46.46258" lon="6.34508">
        <ele>379.4</ele>
        <time>2022-09-28T09:37:11Z</time>
      </trkpt>
      <trkpt lat="46.46259" lon="6.34516">
        <ele>379.4</ele>
        <time>2022-09-28T09:37:12Z</time>
      </trkpt>
      <trkpt lat="46.46259" lon="6.34524">
        <ele>379.5</ele>
        <time>2022-09-28T09:37:13Z</time>
      </trkpt>
      <trkpt lat="46.4626" lon="6.34531">
        <ele>379.5</ele>
        <time>2022-09-28T09:37:14Z</time>
      </trkpt>
      <trkpt lat="46.46261" lon="6.34539">
        <ele>379.6</ele>
        <time>2022-09-28T09:37:15Z</time>
      </trkpt>
      <trkpt lat="46.46262" lon="6.34546">
        <ele>379.6</ele>
        <time>2022-09-28T09:37:16Z</time>
      </trkpt>
      <trkpt lat="46.46262" lon="6.34552">
        <ele>379.6</ele>
        <time>2022-09-28T09:37:17Z</time>
      </trkpt>
      <trkpt lat="46.46262" lon="6.34559">
        <ele>379.7</ele>
        <time>2022-09-28T09:37:18Z</time>
      </trkpt>
      <trkpt lat="46.46262" lon="6.34566">
        <ele>379.7</ele>
        <time>2022-09-28T09:37:19Z</time>
      </trkpt>
      <trkpt lat="46.46263" lon="6.34572">
        <ele>379.7</ele>
        <time>2022-09-28T09:37:20Z</time>
      </trkpt>
      <trkpt lat="46.46263" lon="6.34577">
        <ele>379.7</ele>
        <time>2022-09-28T09:37:21Z</time>
      </trkpt>
      <trkpt lat="46.46264" lon="6.34583">
        <ele>379.7</ele>
        <time>2022-09-28T09:37:22Z</time>
      </trkpt>
      <trkpt lat="46.46264" lon="6.34588">
        <ele>379.8</ele>
        <time>2022-09-28T09:37:24Z</time>
      </trkpt>
      <trkpt lat="46.46264" lon="6.34593">
        <ele>379.7</ele>
        <time>2022-09-28T09:37:25Z</time>
      </trkpt>
      <trkpt lat="46.46263" lon="6.34595">
        <ele>379.6</ele>
        <time>2022-09-28T09:37:26Z</time>
      </trkpt>
      <trkpt lat="46.46262" lon="6.34596">
        <ele>379.5</ele>
        <time>2022-09-28T09:37:27Z</time>
      </trkpt>
      <trkpt lat="46.46256" lon="6.34598">
        <ele>379.1</ele>
        <time>2022-09-28T09:37:28Z</time>
      </trkpt>
      <trkpt lat="46.46254" lon="6.34598">
        <ele>378.8</ele>
        <time>2022-09-28T09:37:29Z</time>
      </trkpt>
      <trkpt lat="46.46249" lon="6.34599">
        <ele>378.5</ele>
        <time>2022-09-28T09:37:30Z</time>
      </trkpt>
      <trkpt lat="46.46244" lon="6.346">
        <ele>378.2</ele>
        <time>2022-09-28T09:37:31Z</time>
      </trkpt>
      <trkpt lat="46.4624" lon="6.346">
        <ele>377.9</ele>
        <time>2022-09-28T09:37:32Z</time>
      </trkpt>
      <trkpt lat="46.46235" lon="6.34602">
        <ele>377.6</ele>
        <time>2022-09-28T09:37:34Z</time>
      </trkpt>
      <trkpt lat="46.4623" lon="6.34602">
        <ele>377.4</ele>
        <time>2022-09-28T09:37:35Z</time>
      </trkpt>
      <trkpt lat="46.46224" lon="6.34605">
        <ele>377.1</ele>
        <time>2022-09-28T09:37:36Z</time>
      </trkpt>
      <trkpt lat="46.46219" lon="6.34606">
        <ele>376.9</ele>
        <time>2022-09-28T09:37:37Z</time>
      </trkpt>
      <trkpt lat="46.46214" lon="6.34609">
        <ele>376.7</ele>
        <time>2022-09-28T09:37:38Z</time>
      </trkpt>
      <trkpt lat="46.46205" lon="6.34609">
        <ele>376.3</ele>
        <time>2022-09-28T09:37:39Z</time>
      </trkpt>
      <trkpt lat="46.462" lon="6.3461">
        <ele>376.2</ele>
        <time>2022-09-28T09:37:40Z</time>
      </trkpt>
      <trkpt lat="46.46197" lon="6.34611">
        <ele>376.1</ele>
        <time>2022-09-28T09:37:41Z</time>
      </trkpt>
      <trkpt lat="46.46194" lon="6.34611">
        <ele>376</ele>
        <time>2022-09-28T09:37:42Z</time>
      </trkpt>
      <trkpt lat="46.46193" lon="6.34611">
        <ele>376</ele>
        <time>2022-09-28T09:37:43Z</time>
      </trkpt>
      <trkpt lat="46.46189" lon="6.34612">
        <ele>375.9</ele>
        <time>2022-09-28T09:37:44Z</time>
      </trkpt>
      <trkpt lat="46.46187" lon="6.34613">
        <ele>375.9</ele>
        <time>2022-09-28T09:37:45Z</time>
      </trkpt>
      <trkpt lat="46.46184" lon="6.34613">
        <ele>375.9</ele>
        <time>2022-09-28T09:37:46Z</time>
      </trkpt>
      <trkpt lat="46.46181" lon="6.34615">
        <ele>375.9</ele>
        <time>2022-09-28T09:37:47Z</time>
      </trkpt>
      <trkpt lat="46.46177" lon="6.34617">
        <ele>375.9</ele>
        <time>2022-09-28T09:37:48Z</time>
      </trkpt>
      <trkpt lat="46.46174" lon="6.34621">
        <ele>376</ele>
        <time>2022-09-28T09:37:49Z</time>
      </trkpt>
      <trkpt lat="46.4617" lon="6.34622">
        <ele>376</ele>
        <time>2022-09-28T09:37:50Z</time>
      </trkpt>
      <trkpt lat="46.46167" lon="6.34625">
        <ele>376</ele>
        <time>2022-09-28T09:37:51Z</time>
      </trkpt>
      <trkpt lat="46.46164" lon="6.34629">
        <ele>376.1</ele>
        <time>2022-09-28T09:37:52Z</time>
      </trkpt>
      <trkpt lat="46.46163" lon="6.34634">
        <ele>376.1</ele>
        <time>2022-09-28T09:37:53Z</time>
      </trkpt>
      <trkpt lat="46.46161" lon="6.34637">
        <ele>376.2</ele>
        <time>2022-09-28T09:37:54Z</time>
      </trkpt>
      <trkpt lat="46.46161" lon="6.34638">
        <ele>376.2</ele>
        <time>2022-09-28T09:37:55Z</time>
      </trkpt>
      <trkpt lat="46.46159" lon="6.34642">
        <ele>376.2</ele>
        <time>2022-09-28T09:37:56Z</time>
      </trkpt>
      <trkpt lat="46.46158" lon="6.34644">
        <ele>376.2</ele>
        <time>2022-09-28T09:37:57Z</time>
      </trkpt>
      <trkpt lat="46.46157" lon="6.34646">
        <ele>376.2</ele>
        <time>2022-09-28T09:37:58Z</time>
      </trkpt>
      <trkpt lat="46.46156" lon="6.34648">
        <ele>376.2</ele>
        <time>2022-09-28T09:37:59Z</time>
      </trkpt>
      <trkpt lat="46.46156" lon="6.34649">
        <ele>376.2</ele>
        <time>2022-09-28T09:38:00Z</time>
      </trkpt>
      <trkpt lat="46.46155" lon="6.34649">
        <ele>376.2</ele>
        <time>2022-09-28T09:38:01Z</time>
      </trkpt>
      <trkpt lat="46.46155" lon="6.3465">
        <ele>376.2</ele>
        <time>2022-09-28T09:38:02Z</time>
      </trkpt>
      <trkpt lat="46.46155" lon="6.34651">
        <ele>376.2</ele>
        <time>2022-09-28T09:38:03Z</time>
      </trkpt>
      <trkpt lat="46.46156" lon="6.34651">
        <ele>376.2</ele>
        <time>2022-09-28T09:38:04Z</time>
      </trkpt>
      <trkpt lat="46.46155" lon="6.34651">
        <ele>376.2</ele>
        <time>2022-09-28T09:38:05Z</time>
      </trkpt>
      <trkpt lat="46.46156" lon="6.34651">
        <ele>376.2</ele>
        <time>2022-09-28T09:38:06Z</time>
      </trkpt>
      <trkpt lat="46.46156" lon="6.34651">
        <ele>376.2</ele>
        <time>2022-09-28T09:38:07Z</time>
      </trkpt>
      <trkpt lat="46.46156" lon="6.34652">
        <ele>376.2</ele>
        <time>2022-09-28T09:38:08Z</time>
      </trkpt>
      <trkpt lat="46.46156" lon="6.34652">
        <ele>376.2</ele>
        <time>2022-09-28T09:38:09Z</time>
      </trkpt>
      <trkpt lat="46.46157" lon="6.34652">
        <ele>376.2</ele>
        <time>2022-09-28T09:38:10Z</time>
      </trkpt>
      <trkpt lat="46.46157" lon="6.34653">
        <ele>376.2</ele>
        <time>2022-09-28T09:38:11Z</time>
      </trkpt>
      <trkpt lat="46.46157" lon="6.34653">
        <ele>376.2</ele>
        <time>2022-09-28T09:38:12Z</time>
      </trkpt>
      <trkpt lat="46.46157" lon="6.34653">
        <ele>376.2</ele>
        <time>2022-09-28T09:38:13Z</time>
      </trkpt>
      <trkpt lat="46.4616" lon="6.34655">
        <ele>376.2</ele>
        <time>2022-09-28T09:43:34Z</time>
      </trkpt>
      <trkpt lat="46.46159" lon="6.34655">
        <ele>376.2</ele>
        <time>2022-09-28T09:43:35Z</time>
      </trkpt>
      <trkpt lat="46.46159" lon="6.34655">
        <ele>376.2</ele>
        <time>2022-09-28T09:43:36Z</time>
      </trkpt>
      <trkpt lat="46.46158" lon="6.34656">
        <ele>376.2</ele>
        <time>2022-09-28T09:43:37Z</time>
      </trkpt>
      <trkpt lat="46.46158" lon="6.34656">
        <ele>376.2</ele>
        <time>2022-09-28T09:43:38Z</time>
      </trkpt>
      <trkpt lat="46.46157" lon="6.34653">
        <ele>376.2</ele>
        <time>2022-09-28T09:43:40Z</time>
      </trkpt>
      <trkpt lat="46.46157" lon="6.34652">
        <ele>376.2</ele>
        <time>2022-09-28T09:43:41Z</time>
      </trkpt>
      <trkpt lat="46.46157" lon="6.3465">
        <ele>376.2</ele>
        <time>2022-09-28T09:43:42Z</time>
      </trkpt>
      <trkpt lat="46.46157" lon="6.34648">
        <ele>376.2</ele>
        <time>2022-09-28T09:43:44Z</time>
      </trkpt>
      <trkpt lat="46.46157" lon="6.34647">
        <ele>376.2</ele>
        <time>2022-09-28T09:52:32Z</time>
      </trkpt>
      <trkpt lat="46.46157" lon="6.34645">
        <ele>376.2</ele>
        <time>2022-09-28T09:52:33Z</time>
      </trkpt>
      <trkpt lat="46.46157" lon="6.34643">
        <ele>376.2</ele>
        <time>2022-09-28T09:52:34Z</time>
      </trkpt>
      <trkpt lat="46.46157" lon="6.34642">
        <ele>376.2</ele>
        <time>2022-09-28T09:52:35Z</time>
      </trkpt>
      <trkpt lat="46.46158" lon="6.34639">
        <ele>376.2</ele>
        <time>2022-09-28T09:52:36Z</time>
      </trkpt>
      <trkpt lat="46.46159" lon="6.34637">
        <ele>376.2</ele>
        <time>2022-09-28T09:52:37Z</time>
      </trkpt>
      <trkpt lat="46.46161" lon="6.34632">
        <ele>376.2</ele>
        <time>2022-09-28T09:52:38Z</time>
      </trkpt>
      <trkpt lat="46.46163" lon="6.34631">
        <ele>376.1</ele>
        <time>2022-09-28T09:52:39Z</time>
      </trkpt>
      <trkpt lat="46.46165" lon="6.34626">
        <ele>376.1</ele>
        <time>2022-09-28T09:52:40Z</time>
      </trkpt>
      <trkpt lat="46.46165" lon="6.34625">
        <ele>376</ele>
        <time>2022-09-28T09:52:41Z</time>
      </trkpt>
      <trkpt lat="46.46168" lon="6.34624">
        <ele>376</ele>
        <time>2022-09-28T09:52:42Z</time>
      </trkpt>
      <trkpt lat="46.4617" lon="6.34623">
        <ele>376</ele>
        <time>2022-09-28T09:52:43Z</time>
      </trkpt>
      <trkpt lat="46.46173" lon="6.34621">
        <ele>376</ele>
        <time>2022-09-28T09:52:44Z</time>
      </trkpt>
      <trkpt lat="46.46176" lon="6.34619">
        <ele>375.9</ele>
        <time>2022-09-28T09:52:45Z</time>
      </trkpt>
      <trkpt lat="46.46177" lon="6.34619">
        <ele>375.9</ele>
        <time>2022-09-28T09:52:46Z</time>
      </trkpt>
      <trkpt lat="46.46179" lon="6.34618">
        <ele>375.9</ele>
        <time>2022-09-28T09:52:47Z</time>
      </trkpt>
      <trkpt lat="46.46183" lon="6.34617">
        <ele>375.9</ele>
        <time>2022-09-28T09:52:48Z</time>
      </trkpt>
      <trkpt lat="46.46184" lon="6.34617">
        <ele>375.9</ele>
        <time>2022-09-28T09:52:49Z</time>
      </trkpt>
      <trkpt lat="46.46186" lon="6.34616">
        <ele>375.9</ele>
        <time>2022-09-28T09:52:50Z</time>
      </trkpt>
      <trkpt lat="46.46187" lon="6.34616">
        <ele>375.9</ele>
        <time>2022-09-28T09:52:51Z</time>
      </trkpt>
      <trkpt lat="46.4619" lon="6.34616">
        <ele>375.9</ele>
        <time>2022-09-28T09:52:52Z</time>
      </trkpt>
      <trkpt lat="46.46193" lon="6.34615">
        <ele>376</ele>
        <time>2022-09-28T09:52:53Z</time>
      </trkpt>
      <trkpt lat="46.46197" lon="6.34615">
        <ele>376.1</ele>
        <time>2022-09-28T09:52:54Z</time>
      </trkpt>
      <trkpt lat="46.46201" lon="6.34613">
        <ele>376.2</ele>
        <time>2022-09-28T09:52:55Z</time>
      </trkpt>
      <trkpt lat="46.46205" lon="6.34612">
        <ele>376.3</ele>
        <time>2022-09-28T09:52:56Z</time>
      </trkpt>
      <trkpt lat="46.46209" lon="6.34612">
        <ele>376.5</ele>
        <time>2022-09-28T09:52:57Z</time>
      </trkpt>
      <trkpt lat="46.46212" lon="6.34611">
        <ele>376.6</ele>
        <time>2022-09-28T09:52:58Z</time>
      </trkpt>
      <trkpt lat="46.46216" lon="6.3461">
        <ele>376.7</ele>
        <time>2022-09-28T09:52:59Z</time>
      </trkpt>
      <trkpt lat="46.46219" lon="6.34607">
        <ele>376.9</ele>
        <time>2022-09-28T09:53:00Z</time>
      </trkpt>
      <trkpt lat="46.46222" lon="6.34604">
        <ele>377</ele>
        <time>2022-09-28T09:53:01Z</time>
      </trkpt>
      <trkpt lat="46.46227" lon="6.34604">
        <ele>377.2</ele>
        <time>2022-09-28T09:53:02Z</time>
      </trkpt>
      <trkpt lat="46.46232" lon="6.34603">
        <ele>377.5</ele>
        <time>2022-09-28T09:53:03Z</time>
      </trkpt>
      <trkpt lat="46.46236" lon="6.34602">
        <ele>377.7</ele>
        <time>2022-09-28T09:53:04Z</time>
      </trkpt>
      <trkpt lat="46.46239" lon="6.34602">
        <ele>377.9</ele>
        <time>2022-09-28T09:53:05Z</time>
      </trkpt>
      <trkpt lat="46.46242" lon="6.34601">
        <ele>378.1</ele>
        <time>2022-09-28T09:53:06Z</time>
      </trkpt>
      <trkpt lat="46.46245" lon="6.346">
        <ele>378.3</ele>
        <time>2022-09-28T09:53:07Z</time>
      </trkpt>
      <trkpt lat="46.46248" lon="6.34598">
        <ele>378.5</ele>
        <time>2022-09-28T09:53:08Z</time>
      </trkpt>
      <trkpt lat="46.46251" lon="6.34598">
        <ele>378.7</ele>
        <time>2022-09-28T09:53:09Z</time>
      </trkpt>
      <trkpt lat="46.46254" lon="6.34598">
        <ele>378.9</ele>
        <time>2022-09-28T09:53:10Z</time>
      </trkpt>
      <trkpt lat="46.46255" lon="6.34598">
        <ele>379</ele>
        <time>2022-09-28T09:53:11Z</time>
      </trkpt>
      <trkpt lat="46.46258" lon="6.34601">
        <ele>379.8</ele>
        <time>2022-09-28T09:53:12Z</time>
      </trkpt>
      <trkpt lat="46.46259" lon="6.34602">
        <ele>379.8</ele>
        <time>2022-09-28T09:53:13Z</time>
      </trkpt>
      <trkpt lat="46.46262" lon="6.34605">
        <ele>379.8</ele>
        <time>2022-09-28T09:53:14Z</time>
      </trkpt>
      <trkpt lat="46.46262" lon="6.34606">
        <ele>379.8</ele>
        <time>2022-09-28T09:53:15Z</time>
      </trkpt>
      <trkpt lat="46.46263" lon="6.34611">
        <ele>379.8</ele>
        <time>2022-09-28T09:53:16Z</time>
      </trkpt>
      <trkpt lat="46.46263" lon="6.34612">
        <ele>379.9</ele>
        <time>2022-09-28T09:53:17Z</time>
      </trkpt>
      <trkpt lat="46.46265" lon="6.34616">
        <ele>379.9</ele>
        <time>2022-09-28T09:53:18Z</time>
      </trkpt>
      <trkpt lat="46.46266" lon="6.3462">
        <ele>379.9</ele>
        <time>2022-09-28T09:53:19Z</time>
      </trkpt>
      <trkpt lat="46.46266" lon="6.34622">
        <ele>379.9</ele>
        <time>2022-09-28T09:53:20Z</time>
      </trkpt>
      <trkpt lat="46.46266" lon="6.34626">
        <ele>379.9</ele>
        <time>2022-09-28T09:53:21Z</time>
      </trkpt>
      <trkpt lat="46.46266" lon="6.34627">
        <ele>379.9</ele>
        <time>2022-09-28T09:53:22Z</time>
      </trkpt>
      <trkpt lat="46.46268" lon="6.34631">
        <ele>379.9</ele>
        <time>2022-09-28T09:53:23Z</time>
      </trkpt>
      <trkpt lat="46.46268" lon="6.34632">
        <ele>379.9</ele>
        <time>2022-09-28T09:53:24Z</time>
      </trkpt>
      <trkpt lat="46.46268" lon="6.34634">
        <ele>379.9</ele>
        <time>2022-09-28T09:53:25Z</time>
      </trkpt>
      <trkpt lat="46.46268" lon="6.34636">
        <ele>379.9</ele>
        <time>2022-09-28T09:53:26Z</time>
      </trkpt>
      <trkpt lat="46.46268" lon="6.34641">
        <ele>380</ele>
        <time>2022-09-28T09:53:27Z</time>
      </trkpt>
      <trkpt lat="46.46268" lon="6.34642">
        <ele>380</ele>
        <time>2022-09-28T09:53:28Z</time>
      </trkpt>
      <trkpt lat="46.46268" lon="6.34645">
        <ele>380</ele>
        <time>2022-09-28T09:53:29Z</time>
      </trkpt>
      <trkpt lat="46.46268" lon="6.34647">
        <ele>380</ele>
        <time>2022-09-28T09:53:30Z</time>
      </trkpt>
      <trkpt lat="46.46268" lon="6.34648">
        <ele>380</ele>
        <time>2022-09-28T09:53:31Z</time>
      </trkpt>
      <trkpt lat="46.46268" lon="6.34651">
        <ele>380</ele>
        <time>2022-09-28T09:53:32Z</time>
      </trkpt>
      <trkpt lat="46.46268" lon="6.34656">
        <ele>380</ele>
        <time>2022-09-28T09:53:33Z</time>
      </trkpt>
      <trkpt lat="46.46268" lon="6.34657">
        <ele>380.1</ele>
        <time>2022-09-28T09:53:34Z</time>
      </trkpt>
      <trkpt lat="46.4627" lon="6.34663">
        <ele>380.1</ele>
        <time>2022-09-28T09:53:35Z</time>
      </trkpt>
      <trkpt lat="46.4627" lon="6.34667">
        <ele>380.1</ele>
        <time>2022-09-28T09:53:36Z</time>
      </trkpt>
      <trkpt lat="46.4627" lon="6.34672">
        <ele>380.2</ele>
        <time>2022-09-28T09:53:37Z</time>
      </trkpt>
      <trkpt lat="46.4627" lon="6.34678">
        <ele>380.2</ele>
        <time>2022-09-28T09:53:38Z</time>
      </trkpt>
      <trkpt lat="46.46271" lon="6.34682">
        <ele>380.2</ele>
        <time>2022-09-28T09:53:39Z</time>
      </trkpt>
      <trkpt lat="46.46273" lon="6.34686">
        <ele>380.3</ele>
        <time>2022-09-28T09:53:40Z</time>
      </trkpt>
      <trkpt lat="46.46272" lon="6.34691">
        <ele>380.3</ele>
        <time>2022-09-28T09:53:41Z</time>
      </trkpt>
      <trkpt lat="46.46272" lon="6.34697">
        <ele>380.3</ele>
        <time>2022-09-28T09:53:42Z</time>
      </trkpt>
      <trkpt lat="46.46272" lon="6.34702">
        <ele>380.4</ele>
        <time>2022-09-28T09:53:43Z</time>
      </trkpt>
      <trkpt lat="46.46273" lon="6.34708">
        <ele>380.4</ele>
        <time>2022-09-28T09:53:44Z</time>
      </trkpt>
      <trkpt lat="46.46274" lon="6.34715">
        <ele>380.5</ele>
        <time>2022-09-28T09:53:45Z</time>
      </trkpt>
      <trkpt lat="46.46274" lon="6.34718">
        <ele>380.5</ele>
        <time>2022-09-28T09:53:46Z</time>
      </trkpt>
      <trkpt lat="46.46274" lon="6.34723">
        <ele>380.5</ele>
        <time>2022-09-28T09:53:47Z</time>
      </trkpt>
      <trkpt lat="46.46275" lon="6.34728">
        <ele>380.6</ele>
        <time>2022-09-28T09:53:48Z</time>
      </trkpt>
      <trkpt lat="46.46275" lon="6.34733">
        <ele>380.6</ele>
        <time>2022-09-28T09:53:49Z</time>
      </trkpt>
      <trkpt lat="46.46276" lon="6.34738">
        <ele>380.6</ele>
        <time>2022-09-28T09:53:50Z</time>
      </trkpt>
      <trkpt lat="46.46275" lon="6.34745">
        <ele>380.7</ele>
        <time>2022-09-28T09:53:51Z</time>
      </trkpt>
      <trkpt lat="46.46277" lon="6.34749">
        <ele>380.7</ele>
        <time>2022-09-28T09:53:52Z</time>
      </trkpt>
      <trkpt lat="46.46277" lon="6.34754">
        <ele>380.8</ele>
        <time>2022-09-28T09:53:53Z</time>
      </trkpt>
      <trkpt lat="46.46277" lon="6.34761">
        <ele>380.9</ele>
        <time>2022-09-28T09:53:54Z</time>
      </trkpt>
      <trkpt lat="46.46277" lon="6.34766">
        <ele>380.9</ele>
        <time>2022-09-28T09:53:55Z</time>
      </trkpt>
      <trkpt lat="46.46278" lon="6.34772">
        <ele>381</ele>
        <time>2022-09-28T09:53:56Z</time>
      </trkpt>
      <trkpt lat="46.46279" lon="6.34777">
        <ele>381</ele>
        <time>2022-09-28T09:53:57Z</time>
      </trkpt>
      <trkpt lat="46.46279" lon="6.34783">
        <ele>381.1</ele>
        <time>2022-09-28T09:53:58Z</time>
      </trkpt>
      <trkpt lat="46.4628" lon="6.34788">
        <ele>381.1</ele>
        <time>2022-09-28T09:53:59Z</time>
      </trkpt>
      <trkpt lat="46.4628" lon="6.34794">
        <ele>381.2</ele>
        <time>2022-09-28T09:54:00Z</time>
      </trkpt>
      <trkpt lat="46.4628" lon="6.34798">
        <ele>381.2</ele>
        <time>2022-09-28T09:54:01Z</time>
      </trkpt>
      <trkpt lat="46.46281" lon="6.34804">
        <ele>381.3</ele>
        <time>2022-09-28T09:54:02Z</time>
      </trkpt>
      <trkpt lat="46.46281" lon="6.34811">
        <ele>381.3</ele>
        <time>2022-09-28T09:54:03Z</time>
      </trkpt>
      <trkpt lat="46.46282" lon="6.34816">
        <ele>381.3</ele>
        <time>2022-09-28T09:54:04Z</time>
      </trkpt>
      <trkpt lat="46.46284" lon="6.3482">
        <ele>381.4</ele>
        <time>2022-09-28T09:54:05Z</time>
      </trkpt>
      <trkpt lat="46.46284" lon="6.34825">
        <ele>381.4</ele>
        <time>2022-09-28T09:54:06Z</time>
      </trkpt>
      <trkpt lat="46.46283" lon="6.34832">
        <ele>381.5</ele>
        <time>2022-09-28T09:54:07Z</time>
      </trkpt>
      <trkpt lat="46.46284" lon="6.34836">
        <ele>381.5</ele>
        <time>2022-09-28T09:54:08Z</time>
      </trkpt>
      <trkpt lat="46.46284" lon="6.34843">
        <ele>381.6</ele>
        <time>2022-09-28T09:54:10Z</time>
      </trkpt>
      <trkpt lat="46.46285" lon="6.34848">
        <ele>381.6</ele>
        <time>2022-09-28T09:54:11Z</time>
      </trkpt>
      <trkpt lat="46.46286" lon="6.34855">
        <ele>381.6</ele>
        <time>2022-09-28T09:54:12Z</time>
      </trkpt>
      <trkpt lat="46.46285" lon="6.34861">
        <ele>381.7</ele>
        <time>2022-09-28T09:54:13Z</time>
      </trkpt>
      <trkpt lat="46.46286" lon="6.34867">
        <ele>381.7</ele>
        <time>2022-09-28T09:54:14Z</time>
      </trkpt>
      <trkpt lat="46.46287" lon="6.34873">
        <ele>381.7</ele>
        <time>2022-09-28T09:54:15Z</time>
      </trkpt>
      <trkpt lat="46.46287" lon="6.34878">
        <ele>381.7</ele>
        <time>2022-09-28T09:54:16Z</time>
      </trkpt>
      <trkpt lat="46.46287" lon="6.34883">
        <ele>381.8</ele>
        <time>2022-09-28T09:54:17Z</time>
      </trkpt>
      <trkpt lat="46.46289" lon="6.34894">
        <ele>381.8</ele>
        <time>2022-09-28T09:54:18Z</time>
      </trkpt>
      <trkpt lat="46.46289" lon="6.34906">
        <ele>381.9</ele>
        <time>2022-09-28T09:54:20Z</time>
      </trkpt>
      <trkpt lat="46.4629" lon="6.34912">
        <ele>382</ele>
        <time>2022-09-28T09:54:22Z</time>
      </trkpt>
      <trkpt lat="46.46291" lon="6.34924">
        <ele>382</ele>
        <time>2022-09-28T09:54:23Z</time>
      </trkpt>
      <trkpt lat="46.46291" lon="6.34931">
        <ele>382.1</ele>
        <time>2022-09-28T09:54:24Z</time>
      </trkpt>
      <trkpt lat="46.46291" lon="6.34937">
        <ele>382.1</ele>
        <time>2022-09-28T09:54:26Z</time>
      </trkpt>
      <trkpt lat="46.46292" lon="6.34942">
        <ele>382.2</ele>
        <time>2022-09-28T09:54:27Z</time>
      </trkpt>
      <trkpt lat="46.46292" lon="6.34948">
        <ele>382.2</ele>
        <time>2022-09-28T09:54:28Z</time>
      </trkpt>
      <trkpt lat="46.46292" lon="6.34954">
        <ele>382.2</ele>
        <time>2022-09-28T09:54:29Z</time>
      </trkpt>
      <trkpt lat="46.46292" lon="6.34959">
        <ele>382.3</ele>
        <time>2022-09-28T09:54:30Z</time>
      </trkpt>
      <trkpt lat="46.46293" lon="6.34965">
        <ele>382.3</ele>
        <time>2022-09-28T09:54:31Z</time>
      </trkpt>
      <trkpt lat="46.46294" lon="6.3497">
        <ele>382.4</ele>
        <time>2022-09-28T09:54:32Z</time>
      </trkpt>
      <trkpt lat="46.46294" lon="6.34976">
        <ele>382.4</ele>
        <time>2022-09-28T09:54:33Z</time>
      </trkpt>
      <trkpt lat="46.46294" lon="6.34984">
        <ele>382.5</ele>
        <time>2022-09-28T09:54:34Z</time>
      </trkpt>
      <trkpt lat="46.46294" lon="6.34989">
        <ele>382.5</ele>
        <time>2022-09-28T09:54:35Z</time>
      </trkpt>
      <trkpt lat="46.46295" lon="6.34995">
        <ele>382.6</ele>
        <time>2022-09-28T09:54:36Z</time>
      </trkpt>
      <trkpt lat="46.46295" lon="6.35001">
        <ele>382.6</ele>
        <time>2022-09-28T09:54:37Z</time>
      </trkpt>
      <trkpt lat="46.46296" lon="6.35008">
        <ele>382.7</ele>
        <time>2022-09-28T09:54:38Z</time>
      </trkpt>
      <trkpt lat="46.46296" lon="6.35014">
        <ele>382.7</ele>
        <time>2022-09-28T09:54:39Z</time>
      </trkpt>
      <trkpt lat="46.46296" lon="6.3502">
        <ele>382.8</ele>
        <time>2022-09-28T09:54:40Z</time>
      </trkpt>
      <trkpt lat="46.46297" lon="6.35027">
        <ele>382.8</ele>
        <time>2022-09-28T09:54:41Z</time>
      </trkpt>
      <trkpt lat="46.46297" lon="6.35033">
        <ele>382.9</ele>
        <time>2022-09-28T09:54:42Z</time>
      </trkpt>
      <trkpt lat="46.46297" lon="6.35039">
        <ele>382.9</ele>
        <time>2022-09-28T09:54:43Z</time>
      </trkpt>
      <trkpt lat="46.46298" lon="6.35045">
        <ele>383</ele>
        <time>2022-09-28T09:54:44Z</time>
      </trkpt>
      <trkpt lat="46.46298" lon="6.35051">
        <ele>383</ele>
        <time>2022-09-28T09:54:45Z</time>
      </trkpt>
      <trkpt lat="46.46298" lon="6.35059">
        <ele>383.1</ele>
        <time>2022-09-28T09:54:46Z</time>
      </trkpt>
      <trkpt lat="46.46299" lon="6.35065">
        <ele>383.1</ele>
        <time>2022-09-28T09:54:47Z</time>
      </trkpt>
      <trkpt lat="46.46299" lon="6.35072">
        <ele>383.2</ele>
        <time>2022-09-28T09:54:48Z</time>
      </trkpt>
      <trkpt lat="46.463" lon="6.35077">
        <ele>383.2</ele>
        <time>2022-09-28T09:54:49Z</time>
      </trkpt>
      <trkpt lat="46.463" lon="6.35083">
        <ele>383.3</ele>
        <time>2022-09-28T09:54:50Z</time>
      </trkpt>
      <trkpt lat="46.46301" lon="6.3509">
        <ele>383.3</ele>
        <time>2022-09-28T09:54:51Z</time>
      </trkpt>
      <trkpt lat="46.46302" lon="6.35096">
        <ele>383.3</ele>
        <time>2022-09-28T09:54:52Z</time>
      </trkpt>
      <trkpt lat="46.46301" lon="6.35102">
        <ele>383.4</ele>
        <time>2022-09-28T09:54:53Z</time>
      </trkpt>
      <trkpt lat="46.46303" lon="6.35108">
        <ele>383.4</ele>
        <time>2022-09-28T09:54:54Z</time>
      </trkpt>
      <trkpt lat="46.46303" lon="6.35115">
        <ele>383.4</ele>
        <time>2022-09-28T09:54:55Z</time>
      </trkpt>
      <trkpt lat="46.46303" lon="6.35121">
        <ele>383.5</ele>
        <time>2022-09-28T09:54:56Z</time>
      </trkpt>
      <trkpt lat="46.46304" lon="6.35127">
        <ele>383.6</ele>
        <time>2022-09-28T09:54:57Z</time>
      </trkpt>
      <trkpt lat="46.46304" lon="6.35133">
        <ele>383.6</ele>
        <time>2022-09-28T09:54:58Z</time>
      </trkpt>
      <trkpt lat="46.46304" lon="6.35139">
        <ele>383.7</ele>
        <time>2022-09-28T09:54:59Z</time>
      </trkpt>
      <trkpt lat="46.46305" lon="6.35146">
        <ele>383.7</ele>
        <time>2022-09-28T09:55:00Z</time>
      </trkpt>
      <trkpt lat="46.46305" lon="6.35148">
        <ele>383.7</ele>
        <time>2022-09-28T09:55:01Z</time>
      </trkpt>
      <trkpt lat="46.46306" lon="6.35153">
        <ele>383.7</ele>
        <time>2022-09-28T09:55:02Z</time>
      </trkpt>
      <trkpt lat="46.46305" lon="6.35157">
        <ele>383.6</ele>
        <time>2022-09-28T09:55:03Z</time>
      </trkpt>
      <trkpt lat="46.46305" lon="6.35162">
        <ele>383.6</ele>
        <time>2022-09-28T09:55:04Z</time>
      </trkpt>
      <trkpt lat="46.46304" lon="6.35167">
        <ele>383.6</ele>
        <time>2022-09-28T09:55:05Z</time>
      </trkpt>
      <trkpt lat="46.46305" lon="6.35173">
        <ele>383.6</ele>
        <time>2022-09-28T09:55:06Z</time>
      </trkpt>
      <trkpt lat="46.46303" lon="6.35176">
        <ele>383.6</ele>
        <time>2022-09-28T09:55:07Z</time>
      </trkpt>
      <trkpt lat="46.46302" lon="6.35183">
        <ele>383.7</ele>
        <time>2022-09-28T09:55:08Z</time>
      </trkpt>
      <trkpt lat="46.46303" lon="6.35188">
        <ele>383.7</ele>
        <time>2022-09-28T09:55:09Z</time>
      </trkpt>
      <trkpt lat="46.46303" lon="6.35193">
        <ele>383.8</ele>
        <time>2022-09-28T09:55:10Z</time>
      </trkpt>
      <trkpt lat="46.46305" lon="6.35198">
        <ele>383.9</ele>
        <time>2022-09-28T09:55:11Z</time>
      </trkpt>
      <trkpt lat="46.46307" lon="6.35204">
        <ele>383.9</ele>
        <time>2022-09-28T09:55:12Z</time>
      </trkpt>
      <trkpt lat="46.46309" lon="6.35209">
        <ele>383.8</ele>
        <time>2022-09-28T09:55:13Z</time>
      </trkpt>
      <trkpt lat="46.4631" lon="6.35215">
        <ele>383.8</ele>
        <time>2022-09-28T09:55:14Z</time>
      </trkpt>
      <trkpt lat="46.4631" lon="6.35222">
        <ele>383.7</ele>
        <time>2022-09-28T09:55:15Z</time>
      </trkpt>
      <trkpt lat="46.46312" lon="6.35235">
        <ele>383.7</ele>
        <time>2022-09-28T09:55:16Z</time>
      </trkpt>
      <trkpt lat="46.46313" lon="6.35242">
        <ele>383.6</ele>
        <time>2022-09-28T09:55:17Z</time>
      </trkpt>
      <trkpt lat="46.46313" lon="6.35249">
        <ele>383.6</ele>
        <time>2022-09-28T09:55:18Z</time>
      </trkpt>
      <trkpt lat="46.46314" lon="6.35257">
        <ele>383.5</ele>
        <time>2022-09-28T09:55:19Z</time>
      </trkpt>
      <trkpt lat="46.46315" lon="6.35264">
        <ele>383.4</ele>
        <time>2022-09-28T09:55:20Z</time>
      </trkpt>
      <trkpt lat="46.46316" lon="6.3527">
        <ele>383.4</ele>
        <time>2022-09-28T09:55:21Z</time>
      </trkpt>
      <trkpt lat="46.46316" lon="6.35277">
        <ele>383.3</ele>
        <time>2022-09-28T09:55:22Z</time>
      </trkpt>
      <trkpt lat="46.46316" lon="6.35286">
        <ele>383.2</ele>
        <time>2022-09-28T09:55:23Z</time>
      </trkpt>
      <trkpt lat="46.46317" lon="6.35294">
        <ele>383.1</ele>
        <time>2022-09-28T09:55:24Z</time>
      </trkpt>
      <trkpt lat="46.46318" lon="6.35301">
        <ele>383</ele>
        <time>2022-09-28T09:55:25Z</time>
      </trkpt>
      <trkpt lat="46.46319" lon="6.3531">
        <ele>382.9</ele>
        <time>2022-09-28T09:55:26Z</time>
      </trkpt>
      <trkpt lat="46.46319" lon="6.35318">
        <ele>382.8</ele>
        <time>2022-09-28T09:55:27Z</time>
      </trkpt>
      <trkpt lat="46.46319" lon="6.35325">
        <ele>382.7</ele>
        <time>2022-09-28T09:55:28Z</time>
      </trkpt>
      <trkpt lat="46.46321" lon="6.35333">
        <ele>382.5</ele>
        <time>2022-09-28T09:55:29Z</time>
      </trkpt>
      <trkpt lat="46.46321" lon="6.35341">
        <ele>382.4</ele>
        <time>2022-09-28T09:55:30Z</time>
      </trkpt>
      <trkpt lat="46.46322" lon="6.35349">
        <ele>382.3</ele>
        <time>2022-09-28T09:55:31Z</time>
      </trkpt>
      <trkpt lat="46.46322" lon="6.35358">
        <ele>382.1</ele>
        <time>2022-09-28T09:55:32Z</time>
      </trkpt>
      <trkpt lat="46.46323" lon="6.35366">
        <ele>382</ele>
        <time>2022-09-28T09:55:33Z</time>
      </trkpt>
      <trkpt lat="46.46324" lon="6.35375">
        <ele>381.9</ele>
        <time>2022-09-28T09:55:34Z</time>
      </trkpt>
      <trkpt lat="46.46324" lon="6.35384">
        <ele>381.7</ele>
        <time>2022-09-28T09:55:35Z</time>
      </trkpt>
      <trkpt lat="46.46325" lon="6.35392">
        <ele>381.7</ele>
        <time>2022-09-28T09:55:36Z</time>
      </trkpt>
      <trkpt lat="46.46326" lon="6.35399">
        <ele>381.6</ele>
        <time>2022-09-28T09:55:37Z</time>
      </trkpt>
      <trkpt lat="46.46326" lon="6.35409">
        <ele>381.5</ele>
        <time>2022-09-28T09:55:38Z</time>
      </trkpt>
      <trkpt lat="46.46327" lon="6.35417">
        <ele>381.4</ele>
        <time>2022-09-28T09:55:39Z</time>
      </trkpt>
      <trkpt lat="46.46328" lon="6.35426">
        <ele>381.3</ele>
        <time>2022-09-28T09:55:40Z</time>
      </trkpt>
      <trkpt lat="46.46329" lon="6.35434">
        <ele>381.2</ele>
        <time>2022-09-28T09:55:41Z</time>
      </trkpt>
      <trkpt lat="46.46329" lon="6.35443">
        <ele>381.1</ele>
        <time>2022-09-28T09:55:42Z</time>
      </trkpt>
      <trkpt lat="46.46331" lon="6.35452">
        <ele>380.9</ele>
        <time>2022-09-28T09:55:43Z</time>
      </trkpt>
      <trkpt lat="46.46331" lon="6.35461">
        <ele>380.8</ele>
        <time>2022-09-28T09:55:44Z</time>
      </trkpt>
      <trkpt lat="46.46332" lon="6.3547">
        <ele>380.7</ele>
        <time>2022-09-28T09:55:45Z</time>
      </trkpt>
      <trkpt lat="46.46333" lon="6.35479">
        <ele>380.6</ele>
        <time>2022-09-28T09:55:46Z</time>
      </trkpt>
      <trkpt lat="46.46333" lon="6.35488">
        <ele>380.5</ele>
        <time>2022-09-28T09:55:47Z</time>
      </trkpt>
      <trkpt lat="46.46334" lon="6.35497">
        <ele>380.4</ele>
        <time>2022-09-28T09:55:48Z</time>
      </trkpt>
      <trkpt lat="46.46335" lon="6.35505">
        <ele>380.3</ele>
        <time>2022-09-28T09:55:49Z</time>
      </trkpt>
      <trkpt lat="46.46335" lon="6.35513">
        <ele>380.3</ele>
        <time>2022-09-28T09:55:50Z</time>
      </trkpt>
      <trkpt lat="46.46336" lon="6.35522">
        <ele>380.2</ele>
        <time>2022-09-28T09:55:51Z</time>
      </trkpt>
      <trkpt lat="46.46337" lon="6.35529">
        <ele>380.2</ele>
        <time>2022-09-28T09:55:52Z</time>
      </trkpt>
      <trkpt lat="46.46337" lon="6.35537">
        <ele>380.2</ele>
        <time>2022-09-28T09:55:53Z</time>
      </trkpt>
      <trkpt lat="46.46338" lon="6.35544">
        <ele>380.2</ele>
        <time>2022-09-28T09:55:54Z</time>
      </trkpt>
      <trkpt lat="46.46339" lon="6.35549">
        <ele>380.2</ele>
        <time>2022-09-28T09:55:55Z</time>
      </trkpt>
      <trkpt lat="46.46339" lon="6.35558">
        <ele>380.2</ele>
        <time>2022-09-28T09:55:56Z</time>
      </trkpt>
      <trkpt lat="46.4634" lon="6.35566">
        <ele>380.2</ele>
        <time>2022-09-28T09:55:57Z</time>
      </trkpt>
      <trkpt lat="46.4634" lon="6.35572">
        <ele>380.2</ele>
        <time>2022-09-28T09:55:58Z</time>
      </trkpt>
      <trkpt lat="46.46341" lon="6.35579">
        <ele>380.2</ele>
        <time>2022-09-28T09:55:59Z</time>
      </trkpt>
      <trkpt lat="46.46341" lon="6.35586">
        <ele>380.2</ele>
        <time>2022-09-28T09:56:00Z</time>
      </trkpt>
      <trkpt lat="46.46341" lon="6.35593">
        <ele>380.3</ele>
        <time>2022-09-28T09:56:01Z</time>
      </trkpt>
      <trkpt lat="46.46342" lon="6.356">
        <ele>380.3</ele>
        <time>2022-09-28T09:56:02Z</time>
      </trkpt>
      <trkpt lat="46.46343" lon="6.35608">
        <ele>380.3</ele>
        <time>2022-09-28T09:56:03Z</time>
      </trkpt>
      <trkpt lat="46.46343" lon="6.35615">
        <ele>380.4</ele>
        <time>2022-09-28T09:56:04Z</time>
      </trkpt>
      <trkpt lat="46.46344" lon="6.35621">
        <ele>380.4</ele>
        <time>2022-09-28T09:56:05Z</time>
      </trkpt>
      <trkpt lat="46.46345" lon="6.35628">
        <ele>380.5</ele>
        <time>2022-09-28T09:56:06Z</time>
      </trkpt>
      <trkpt lat="46.46345" lon="6.35636">
        <ele>380.6</ele>
        <time>2022-09-28T09:56:07Z</time>
      </trkpt>
      <trkpt lat="46.46345" lon="6.35643">
        <ele>380.7</ele>
        <time>2022-09-28T09:56:08Z</time>
      </trkpt>
      <trkpt lat="46.46345" lon="6.35648">
        <ele>380.7</ele>
        <time>2022-09-28T09:56:09Z</time>
      </trkpt>
      <trkpt lat="46.46347" lon="6.35654">
        <ele>380.8</ele>
        <time>2022-09-28T09:56:10Z</time>
      </trkpt>
      <trkpt lat="46.46348" lon="6.35661">
        <ele>380.9</ele>
        <time>2022-09-28T09:56:11Z</time>
      </trkpt>
      <trkpt lat="46.46348" lon="6.35667">
        <ele>380.9</ele>
        <time>2022-09-28T09:56:12Z</time>
      </trkpt>
      <trkpt lat="46.46348" lon="6.35674">
        <ele>381</ele>
        <time>2022-09-28T09:56:13Z</time>
      </trkpt>
      <trkpt lat="46.46349" lon="6.35682">
        <ele>381.1</ele>
        <time>2022-09-28T09:56:14Z</time>
      </trkpt>
      <trkpt lat="46.46349" lon="6.35688">
        <ele>381.2</ele>
        <time>2022-09-28T09:56:16Z</time>
      </trkpt>
      <trkpt lat="46.4635" lon="6.35694">
        <ele>381.3</ele>
        <time>2022-09-28T09:56:17Z</time>
      </trkpt>
      <trkpt lat="46.4635" lon="6.35701">
        <ele>381.4</ele>
        <time>2022-09-28T09:56:18Z</time>
      </trkpt>
      <trkpt lat="46.46352" lon="6.35707">
        <ele>381.5</ele>
        <time>2022-09-28T09:56:19Z</time>
      </trkpt>
      <trkpt lat="46.46351" lon="6.35715">
        <ele>381.6</ele>
        <time>2022-09-28T09:56:20Z</time>
      </trkpt>
      <trkpt lat="46.46352" lon="6.35721">
        <ele>381.6</ele>
        <time>2022-09-28T09:56:21Z</time>
      </trkpt>
      <trkpt lat="46.46353" lon="6.35726">
        <ele>381.7</ele>
        <time>2022-09-28T09:56:22Z</time>
      </trkpt>
      <trkpt lat="46.46353" lon="6.35733">
        <ele>381.8</ele>
        <time>2022-09-28T09:56:23Z</time>
      </trkpt>
      <trkpt lat="46.46353" lon="6.3574">
        <ele>381.9</ele>
        <time>2022-09-28T09:56:24Z</time>
      </trkpt>
      <trkpt lat="46.46354" lon="6.35746">
        <ele>381.9</ele>
        <time>2022-09-28T09:56:25Z</time>
      </trkpt>
      <trkpt lat="46.46355" lon="6.35751">
        <ele>382</ele>
        <time>2022-09-28T09:56:26Z</time>
      </trkpt>
      <trkpt lat="46.46355" lon="6.35758">
        <ele>382.1</ele>
        <time>2022-09-28T09:56:27Z</time>
      </trkpt>
      <trkpt lat="46.46355" lon="6.35764">
        <ele>382.2</ele>
        <time>2022-09-28T09:56:28Z</time>
      </trkpt>
      <trkpt lat="46.46355" lon="6.35771">
        <ele>382.2</ele>
        <time>2022-09-28T09:56:29Z</time>
      </trkpt>
      <trkpt lat="46.46356" lon="6.35778">
        <ele>382.3</ele>
        <time>2022-09-28T09:56:30Z</time>
      </trkpt>
      <trkpt lat="46.46356" lon="6.35784">
        <ele>382.4</ele>
        <time>2022-09-28T09:56:31Z</time>
      </trkpt>
      <trkpt lat="46.46357" lon="6.35791">
        <ele>382.5</ele>
        <time>2022-09-28T09:56:32Z</time>
      </trkpt>
      <trkpt lat="46.46357" lon="6.35797">
        <ele>382.6</ele>
        <time>2022-09-28T09:56:33Z</time>
      </trkpt>
      <trkpt lat="46.46358" lon="6.35804">
        <ele>382.7</ele>
        <time>2022-09-28T09:56:34Z</time>
      </trkpt>
      <trkpt lat="46.46358" lon="6.3581">
        <ele>382.8</ele>
        <time>2022-09-28T09:56:35Z</time>
      </trkpt>
      <trkpt lat="46.46358" lon="6.35816">
        <ele>382.8</ele>
        <time>2022-09-28T09:56:36Z</time>
      </trkpt>
      <trkpt lat="46.46359" lon="6.35822">
        <ele>382.9</ele>
        <time>2022-09-28T09:56:37Z</time>
      </trkpt>
      <trkpt lat="46.46359" lon="6.35828">
        <ele>383</ele>
        <time>2022-09-28T09:56:38Z</time>
      </trkpt>
      <trkpt lat="46.46359" lon="6.35834">
        <ele>383.1</ele>
        <time>2022-09-28T09:56:39Z</time>
      </trkpt>
      <trkpt lat="46.4636" lon="6.3584">
        <ele>383.1</ele>
        <time>2022-09-28T09:56:40Z</time>
      </trkpt>
      <trkpt lat="46.46361" lon="6.35846">
        <ele>383.2</ele>
        <time>2022-09-28T09:56:41Z</time>
      </trkpt>
      <trkpt lat="46.46361" lon="6.35852">
        <ele>383.2</ele>
        <time>2022-09-28T09:56:42Z</time>
      </trkpt>
      <trkpt lat="46.46361" lon="6.35858">
        <ele>383.3</ele>
        <time>2022-09-28T09:56:43Z</time>
      </trkpt>
      <trkpt lat="46.46362" lon="6.35864">
        <ele>383.3</ele>
        <time>2022-09-28T09:56:44Z</time>
      </trkpt>
      <trkpt lat="46.46363" lon="6.3587">
        <ele>383.4</ele>
        <time>2022-09-28T09:56:45Z</time>
      </trkpt>
      <trkpt lat="46.46362" lon="6.35876">
        <ele>383.5</ele>
        <time>2022-09-28T09:56:46Z</time>
      </trkpt>
      <trkpt lat="46.46363" lon="6.35882">
        <ele>383.5</ele>
        <time>2022-09-28T09:56:47Z</time>
      </trkpt>
      <trkpt lat="46.46363" lon="6.35888">
        <ele>383.6</ele>
        <time>2022-09-28T09:56:48Z</time>
      </trkpt>
      <trkpt lat="46.46364" lon="6.35895">
        <ele>383.6</ele>
        <time>2022-09-28T09:56:49Z</time>
      </trkpt>
      <trkpt lat="46.46365" lon="6.35901">
        <ele>383.7</ele>
        <time>2022-09-28T09:56:50Z</time>
      </trkpt>
      <trkpt lat="46.46365" lon="6.35907">
        <ele>383.7</ele>
        <time>2022-09-28T09:56:51Z</time>
      </trkpt>
      <trkpt lat="46.46366" lon="6.35914">
        <ele>383.8</ele>
        <time>2022-09-28T09:56:52Z</time>
      </trkpt>
      <trkpt lat="46.46366" lon="6.35921">
        <ele>383.8</ele>
        <time>2022-09-28T09:56:53Z</time>
      </trkpt>
      <trkpt lat="46.46366" lon="6.35927">
        <ele>383.8</ele>
        <time>2022-09-28T09:56:54Z</time>
      </trkpt>
      <trkpt lat="46.46367" lon="6.35934">
        <ele>383.9</ele>
        <time>2022-09-28T09:56:55Z</time>
      </trkpt>
      <trkpt lat="46.46367" lon="6.3594">
        <ele>383.9</ele>
        <time>2022-09-28T09:56:56Z</time>
      </trkpt>
      <trkpt lat="46.46368" lon="6.35947">
        <ele>383.9</ele>
        <time>2022-09-28T09:56:57Z</time>
      </trkpt>
      <trkpt lat="46.46368" lon="6.35953">
        <ele>383.9</ele>
        <time>2022-09-28T09:56:58Z</time>
      </trkpt>
      <trkpt lat="46.46369" lon="6.35961">
        <ele>384</ele>
        <time>2022-09-28T09:56:59Z</time>
      </trkpt>
      <trkpt lat="46.46369" lon="6.35968">
        <ele>384</ele>
        <time>2022-09-28T09:57:00Z</time>
      </trkpt>
      <trkpt lat="46.4637" lon="6.35981">
        <ele>384</ele>
        <time>2022-09-28T09:57:01Z</time>
      </trkpt>
      <trkpt lat="46.46371" lon="6.35988">
        <ele>384.1</ele>
        <time>2022-09-28T09:57:02Z</time>
      </trkpt>
      <trkpt lat="46.46372" lon="6.35995">
        <ele>384.1</ele>
        <time>2022-09-28T09:57:03Z</time>
      </trkpt>
      <trkpt lat="46.46372" lon="6.36002">
        <ele>384.1</ele>
        <time>2022-09-28T09:57:04Z</time>
      </trkpt>
      <trkpt lat="46.46372" lon="6.36008">
        <ele>384.1</ele>
        <time>2022-09-28T09:57:05Z</time>
      </trkpt>
      <trkpt lat="46.46373" lon="6.36016">
        <ele>384.1</ele>
        <time>2022-09-28T09:57:06Z</time>
      </trkpt>
      <trkpt lat="46.46373" lon="6.36023">
        <ele>384.1</ele>
        <time>2022-09-28T09:57:07Z</time>
      </trkpt>
      <trkpt lat="46.46374" lon="6.3603">
        <ele>384.1</ele>
        <time>2022-09-28T09:57:08Z</time>
      </trkpt>
      <trkpt lat="46.46374" lon="6.36038">
        <ele>384.1</ele>
        <time>2022-09-28T09:57:09Z</time>
      </trkpt>
      <trkpt lat="46.46375" lon="6.36045">
        <ele>384.1</ele>
        <time>2022-09-28T09:57:10Z</time>
      </trkpt>
      <trkpt lat="46.46376" lon="6.36052">
        <ele>384.1</ele>
        <time>2022-09-28T09:57:11Z</time>
      </trkpt>
      <trkpt lat="46.46376" lon="6.36059">
        <ele>384.1</ele>
        <time>2022-09-28T09:57:12Z</time>
      </trkpt>
      <trkpt lat="46.46376" lon="6.36066">
        <ele>384.1</ele>
        <time>2022-09-28T09:57:13Z</time>
      </trkpt>
      <trkpt lat="46.46377" lon="6.36072">
        <ele>384.1</ele>
        <time>2022-09-28T09:57:14Z</time>
      </trkpt>
      <trkpt lat="46.46377" lon="6.3608">
        <ele>384.1</ele>
        <time>2022-09-28T09:57:15Z</time>
      </trkpt>
      <trkpt lat="46.46378" lon="6.36087">
        <ele>384.1</ele>
        <time>2022-09-28T09:57:16Z</time>
      </trkpt>
      <trkpt lat="46.46379" lon="6.36093">
        <ele>384.1</ele>
        <time>2022-09-28T09:57:17Z</time>
      </trkpt>
      <trkpt lat="46.4638" lon="6.36101">
        <ele>384.1</ele>
        <time>2022-09-28T09:57:18Z</time>
      </trkpt>
      <trkpt lat="46.4638" lon="6.36109">
        <ele>384.1</ele>
        <time>2022-09-28T09:57:19Z</time>
      </trkpt>
      <trkpt lat="46.4638" lon="6.36117">
        <ele>384.1</ele>
        <time>2022-09-28T09:57:20Z</time>
      </trkpt>
      <trkpt lat="46.46381" lon="6.36124">
        <ele>384.1</ele>
        <time>2022-09-28T09:57:21Z</time>
      </trkpt>
      <trkpt lat="46.46382" lon="6.36131">
        <ele>384.1</ele>
        <time>2022-09-28T09:57:22Z</time>
      </trkpt>
      <trkpt lat="46.46383" lon="6.36139">
        <ele>384.1</ele>
        <time>2022-09-28T09:57:23Z</time>
      </trkpt>
      <trkpt lat="46.46383" lon="6.36146">
        <ele>384.1</ele>
        <time>2022-09-28T09:57:24Z</time>
      </trkpt>
      <trkpt lat="46.46383" lon="6.36153">
        <ele>384.1</ele>
        <time>2022-09-28T09:57:25Z</time>
      </trkpt>
      <trkpt lat="46.46384" lon="6.3616">
        <ele>384.1</ele>
        <time>2022-09-28T09:57:26Z</time>
      </trkpt>
      <trkpt lat="46.46385" lon="6.36168">
        <ele>384.1</ele>
        <time>2022-09-28T09:57:27Z</time>
      </trkpt>
      <trkpt lat="46.46385" lon="6.36175">
        <ele>384.1</ele>
        <time>2022-09-28T09:57:28Z</time>
      </trkpt>
      <trkpt lat="46.46385" lon="6.36183">
        <ele>384.1</ele>
        <time>2022-09-28T09:57:29Z</time>
      </trkpt>
      <trkpt lat="46.46386" lon="6.36189">
        <ele>384.1</ele>
        <time>2022-09-28T09:57:30Z</time>
      </trkpt>
      <trkpt lat="46.46387" lon="6.36197">
        <ele>384.1</ele>
        <time>2022-09-28T09:57:31Z</time>
      </trkpt>
      <trkpt lat="46.46387" lon="6.36204">
        <ele>384.2</ele>
        <time>2022-09-28T09:57:32Z</time>
      </trkpt>
      <trkpt lat="46.46388" lon="6.36211">
        <ele>384.2</ele>
        <time>2022-09-28T09:57:33Z</time>
      </trkpt>
      <trkpt lat="46.46388" lon="6.36219">
        <ele>384.2</ele>
        <time>2022-09-28T09:57:34Z</time>
      </trkpt>
      <trkpt lat="46.46388" lon="6.36226">
        <ele>384.2</ele>
        <time>2022-09-28T09:57:35Z</time>
      </trkpt>
      <trkpt lat="46.46389" lon="6.36234">
        <ele>384.2</ele>
        <time>2022-09-28T09:57:36Z</time>
      </trkpt>
      <trkpt lat="46.4639" lon="6.3624">
        <ele>384.2</ele>
        <time>2022-09-28T09:57:37Z</time>
      </trkpt>
      <trkpt lat="46.4639" lon="6.36248">
        <ele>384.2</ele>
        <time>2022-09-28T09:57:38Z</time>
      </trkpt>
      <trkpt lat="46.46391" lon="6.36257">
        <ele>384.2</ele>
        <time>2022-09-28T09:57:39Z</time>
      </trkpt>
      <trkpt lat="46.46391" lon="6.36264">
        <ele>384.2</ele>
        <time>2022-09-28T09:57:40Z</time>
      </trkpt>
      <trkpt lat="46.46392" lon="6.36271">
        <ele>384.1</ele>
        <time>2022-09-28T09:57:41Z</time>
      </trkpt>
      <trkpt lat="46.46393" lon="6.36279">
        <ele>384.1</ele>
        <time>2022-09-28T09:57:42Z</time>
      </trkpt>
      <trkpt lat="46.46394" lon="6.36287">
        <ele>384.1</ele>
        <time>2022-09-28T09:57:43Z</time>
      </trkpt>
      <trkpt lat="46.46394" lon="6.36295">
        <ele>384.1</ele>
        <time>2022-09-28T09:57:44Z</time>
      </trkpt>
      <trkpt lat="46.46395" lon="6.36303">
        <ele>384.1</ele>
        <time>2022-09-28T09:57:45Z</time>
      </trkpt>
      <trkpt lat="46.46396" lon="6.36311">
        <ele>384.1</ele>
        <time>2022-09-28T09:57:46Z</time>
      </trkpt>
      <trkpt lat="46.46396" lon="6.36318">
        <ele>384.1</ele>
        <time>2022-09-28T09:57:47Z</time>
      </trkpt>
      <trkpt lat="46.46397" lon="6.36326">
        <ele>384.1</ele>
        <time>2022-09-28T09:57:48Z</time>
      </trkpt>
      <trkpt lat="46.46397" lon="6.36334">
        <ele>384.1</ele>
        <time>2022-09-28T09:57:49Z</time>
      </trkpt>
      <trkpt lat="46.46398" lon="6.36341">
        <ele>384.1</ele>
        <time>2022-09-28T09:57:50Z</time>
      </trkpt>
      <trkpt lat="46.464" lon="6.36349">
        <ele>384.1</ele>
        <time>2022-09-28T09:57:51Z</time>
      </trkpt>
      <trkpt lat="46.46401" lon="6.36357">
        <ele>384.1</ele>
        <time>2022-09-28T09:57:52Z</time>
      </trkpt>
      <trkpt lat="46.46401" lon="6.36364">
        <ele>384.1</ele>
        <time>2022-09-28T09:57:53Z</time>
      </trkpt>
      <trkpt lat="46.46403" lon="6.36371">
        <ele>384.1</ele>
        <time>2022-09-28T09:57:54Z</time>
      </trkpt>
      <trkpt lat="46.46404" lon="6.36379">
        <ele>384.2</ele>
        <time>2022-09-28T09:57:55Z</time>
      </trkpt>
      <trkpt lat="46.46405" lon="6.36387">
        <ele>384.2</ele>
        <time>2022-09-28T09:57:56Z</time>
      </trkpt>
      <trkpt lat="46.46405" lon="6.36395">
        <ele>384.2</ele>
        <time>2022-09-28T09:57:57Z</time>
      </trkpt>
      <trkpt lat="46.46406" lon="6.36402">
        <ele>384.2</ele>
        <time>2022-09-28T09:57:58Z</time>
      </trkpt>
      <trkpt lat="46.46409" lon="6.36408">
        <ele>384.2</ele>
        <time>2022-09-28T09:57:59Z</time>
      </trkpt>
      <trkpt lat="46.46408" lon="6.36415">
        <ele>384.2</ele>
        <time>2022-09-28T09:58:00Z</time>
      </trkpt>
      <trkpt lat="46.46409" lon="6.36423">
        <ele>384.2</ele>
        <time>2022-09-28T09:58:01Z</time>
      </trkpt>
      <trkpt lat="46.4641" lon="6.36433">
        <ele>384.3</ele>
        <time>2022-09-28T09:58:02Z</time>
      </trkpt>
      <trkpt lat="46.46411" lon="6.3644">
        <ele>384.3</ele>
        <time>2022-09-28T09:58:03Z</time>
      </trkpt>
      <trkpt lat="46.46412" lon="6.36446">
        <ele>384.3</ele>
        <time>2022-09-28T09:58:04Z</time>
      </trkpt>
      <trkpt lat="46.46412" lon="6.36448">
        <ele>384.3</ele>
        <time>2022-09-28T09:58:05Z</time>
      </trkpt>
      <trkpt lat="46.46413" lon="6.36452">
        <ele>384.3</ele>
        <time>2022-09-28T09:58:06Z</time>
      </trkpt>
      <trkpt lat="46.46416" lon="6.36457">
        <ele>384.3</ele>
        <time>2022-09-28T09:58:07Z</time>
      </trkpt>
      <trkpt lat="46.46416" lon="6.36464">
        <ele>384.3</ele>
        <time>2022-09-28T09:58:08Z</time>
      </trkpt>
      <trkpt lat="46.46417" lon="6.3647">
        <ele>384.3</ele>
        <time>2022-09-28T09:58:09Z</time>
      </trkpt>
      <trkpt lat="46.46418" lon="6.36476">
        <ele>384.3</ele>
        <time>2022-09-28T09:58:10Z</time>
      </trkpt>
      <trkpt lat="46.46419" lon="6.36482">
        <ele>384.3</ele>
        <time>2022-09-28T09:58:11Z</time>
      </trkpt>
      <trkpt lat="46.4642" lon="6.36489">
        <ele>384.3</ele>
        <time>2022-09-28T09:58:12Z</time>
      </trkpt>
      <trkpt lat="46.46422" lon="6.36496">
        <ele>384.3</ele>
        <time>2022-09-28T09:58:13Z</time>
      </trkpt>
      <trkpt lat="46.46423" lon="6.36503">
        <ele>384.3</ele>
        <time>2022-09-28T09:58:14Z</time>
      </trkpt>
      <trkpt lat="46.46424" lon="6.36509">
        <ele>384.3</ele>
        <time>2022-09-28T09:58:15Z</time>
      </trkpt>
      <trkpt lat="46.46425" lon="6.36515">
        <ele>384.3</ele>
        <time>2022-09-28T09:58:16Z</time>
      </trkpt>
      <trkpt lat="46.46427" lon="6.36523">
        <ele>384.3</ele>
        <time>2022-09-28T09:58:17Z</time>
      </trkpt>
      <trkpt lat="46.46428" lon="6.3653">
        <ele>384.3</ele>
        <time>2022-09-28T09:58:18Z</time>
      </trkpt>
      <trkpt lat="46.46429" lon="6.36536">
        <ele>384.3</ele>
        <time>2022-09-28T09:58:19Z</time>
      </trkpt>
      <trkpt lat="46.4643" lon="6.36544">
        <ele>384.3</ele>
        <time>2022-09-28T09:58:20Z</time>
      </trkpt>
      <trkpt lat="46.46431" lon="6.36551">
        <ele>384.3</ele>
        <time>2022-09-28T09:58:22Z</time>
      </trkpt>
      <trkpt lat="46.46433" lon="6.36557">
        <ele>384.3</ele>
        <time>2022-09-28T09:58:23Z</time>
      </trkpt>
      <trkpt lat="46.46434" lon="6.36565">
        <ele>384.3</ele>
        <time>2022-09-28T09:58:24Z</time>
      </trkpt>
      <trkpt lat="46.46435" lon="6.36572">
        <ele>384.3</ele>
        <time>2022-09-28T09:58:25Z</time>
      </trkpt>
      <trkpt lat="46.46437" lon="6.3658">
        <ele>384.3</ele>
        <time>2022-09-28T09:58:26Z</time>
      </trkpt>
      <trkpt lat="46.46438" lon="6.36588">
        <ele>384.3</ele>
        <time>2022-09-28T09:58:27Z</time>
      </trkpt>
      <trkpt lat="46.46439" lon="6.36594">
        <ele>384.3</ele>
        <time>2022-09-28T09:58:28Z</time>
      </trkpt>
      <trkpt lat="46.46441" lon="6.36601">
        <ele>384.3</ele>
        <time>2022-09-28T09:58:29Z</time>
      </trkpt>
      <trkpt lat="46.46442" lon="6.36608">
        <ele>384.3</ele>
        <time>2022-09-28T09:58:30Z</time>
      </trkpt>
      <trkpt lat="46.46443" lon="6.36614">
        <ele>384.3</ele>
        <time>2022-09-28T09:58:31Z</time>
      </trkpt>
      <trkpt lat="46.46445" lon="6.36621">
        <ele>384.3</ele>
        <time>2022-09-28T09:58:32Z</time>
      </trkpt>
      <trkpt lat="46.46446" lon="6.36628">
        <ele>384.3</ele>
        <time>2022-09-28T09:58:33Z</time>
      </trkpt>
      <trkpt lat="46.46448" lon="6.36635">
        <ele>384.3</ele>
        <time>2022-09-28T09:58:34Z</time>
      </trkpt>
      <trkpt lat="46.46449" lon="6.36642">
        <ele>384.3</ele>
        <time>2022-09-28T09:58:35Z</time>
      </trkpt>
      <trkpt lat="46.4645" lon="6.36649">
        <ele>384.3</ele>
        <time>2022-09-28T09:58:36Z</time>
      </trkpt>
      <trkpt lat="46.46452" lon="6.36657">
        <ele>384.3</ele>
        <time>2022-09-28T09:58:37Z</time>
      </trkpt>
      <trkpt lat="46.46453" lon="6.36663">
        <ele>384.3</ele>
        <time>2022-09-28T09:58:38Z</time>
      </trkpt>
      <trkpt lat="46.46454" lon="6.36671">
        <ele>384.3</ele>
        <time>2022-09-28T09:58:39Z</time>
      </trkpt>
      <trkpt lat="46.46455" lon="6.36677">
        <ele>384.3</ele>
        <time>2022-09-28T09:58:40Z</time>
      </trkpt>
      <trkpt lat="46.46457" lon="6.36684">
        <ele>384.4</ele>
        <time>2022-09-28T09:58:41Z</time>
      </trkpt>
      <trkpt lat="46.46459" lon="6.3669">
        <ele>384.4</ele>
        <time>2022-09-28T09:58:42Z</time>
      </trkpt>
      <trkpt lat="46.4646" lon="6.36697">
        <ele>384.4</ele>
        <time>2022-09-28T09:58:43Z</time>
      </trkpt>
      <trkpt lat="46.46461" lon="6.36705">
        <ele>384.4</ele>
        <time>2022-09-28T09:58:44Z</time>
      </trkpt>
      <trkpt lat="46.46462" lon="6.36711">
        <ele>384.4</ele>
        <time>2022-09-28T09:58:45Z</time>
      </trkpt>
      <trkpt lat="46.46463" lon="6.36718">
        <ele>384.4</ele>
        <time>2022-09-28T09:58:46Z</time>
      </trkpt>
      <trkpt lat="46.46465" lon="6.36725">
        <ele>384.5</ele>
        <time>2022-09-28T09:58:47Z</time>
      </trkpt>
      <trkpt lat="46.46467" lon="6.36732">
        <ele>384.5</ele>
        <time>2022-09-28T09:58:48Z</time>
      </trkpt>
      <trkpt lat="46.46468" lon="6.36739">
        <ele>384.5</ele>
        <time>2022-09-28T09:58:49Z</time>
      </trkpt>
      <trkpt lat="46.4647" lon="6.36746">
        <ele>384.5</ele>
        <time>2022-09-28T09:58:50Z</time>
      </trkpt>
      <trkpt lat="46.46471" lon="6.36752">
        <ele>384.5</ele>
        <time>2022-09-28T09:58:51Z</time>
      </trkpt>
      <trkpt lat="46.46473" lon="6.3676">
        <ele>384.5</ele>
        <time>2022-09-28T09:58:52Z</time>
      </trkpt>
      <trkpt lat="46.46474" lon="6.36767">
        <ele>384.5</ele>
        <time>2022-09-28T09:58:53Z</time>
      </trkpt>
      <trkpt lat="46.46475" lon="6.36775">
        <ele>384.5</ele>
        <time>2022-09-28T09:58:54Z</time>
      </trkpt>
      <trkpt lat="46.46477" lon="6.36782">
        <ele>384.6</ele>
        <time>2022-09-28T09:58:55Z</time>
      </trkpt>
      <trkpt lat="46.46478" lon="6.36789">
        <ele>384.6</ele>
        <time>2022-09-28T09:58:56Z</time>
      </trkpt>
      <trkpt lat="46.46479" lon="6.36796">
        <ele>384.6</ele>
        <time>2022-09-28T09:58:57Z</time>
      </trkpt>
      <trkpt lat="46.46481" lon="6.36804">
        <ele>384.6</ele>
        <time>2022-09-28T09:58:58Z</time>
      </trkpt>
      <trkpt lat="46.46482" lon="6.36811">
        <ele>384.6</ele>
        <time>2022-09-28T09:58:59Z</time>
      </trkpt>
      <trkpt lat="46.46484" lon="6.36817">
        <ele>384.6</ele>
        <time>2022-09-28T09:59:00Z</time>
      </trkpt>
      <trkpt lat="46.46485" lon="6.36825">
        <ele>384.6</ele>
        <time>2022-09-28T09:59:01Z</time>
      </trkpt>
      <trkpt lat="46.46487" lon="6.36831">
        <ele>384.6</ele>
        <time>2022-09-28T09:59:02Z</time>
      </trkpt>
      <trkpt lat="46.46488" lon="6.3684">
        <ele>384.6</ele>
        <time>2022-09-28T09:59:03Z</time>
      </trkpt>
      <trkpt lat="46.4649" lon="6.36847">
        <ele>384.7</ele>
        <time>2022-09-28T09:59:04Z</time>
      </trkpt>
      <trkpt lat="46.46491" lon="6.36854">
        <ele>384.7</ele>
        <time>2022-09-28T09:59:05Z</time>
      </trkpt>
      <trkpt lat="46.46492" lon="6.3686">
        <ele>384.7</ele>
        <time>2022-09-28T09:59:06Z</time>
      </trkpt>
      <trkpt lat="46.46493" lon="6.36868">
        <ele>384.7</ele>
        <time>2022-09-28T09:59:07Z</time>
      </trkpt>
      <trkpt lat="46.46495" lon="6.36875">
        <ele>384.7</ele>
        <time>2022-09-28T09:59:08Z</time>
      </trkpt>
      <trkpt lat="46.46496" lon="6.36882">
        <ele>384.7</ele>
        <time>2022-09-28T09:59:09Z</time>
      </trkpt>
      <trkpt lat="46.46498" lon="6.36896">
        <ele>384.7</ele>
        <time>2022-09-28T09:59:10Z</time>
      </trkpt>
      <trkpt lat="46.465" lon="6.36903">
        <ele>384.7</ele>
        <time>2022-09-28T09:59:11Z</time>
      </trkpt>
      <trkpt lat="46.465" lon="6.3691">
        <ele>384.7</ele>
        <time>2022-09-28T09:59:12Z</time>
      </trkpt>
      <trkpt lat="46.46501" lon="6.36917">
        <ele>384.7</ele>
        <time>2022-09-28T09:59:13Z</time>
      </trkpt>
      <trkpt lat="46.46502" lon="6.36923">
        <ele>384.7</ele>
        <time>2022-09-28T09:59:14Z</time>
      </trkpt>
      <trkpt lat="46.46505" lon="6.3693">
        <ele>384.7</ele>
        <time>2022-09-28T09:59:15Z</time>
      </trkpt>
      <trkpt lat="46.46505" lon="6.36937">
        <ele>384.6</ele>
        <time>2022-09-28T09:59:16Z</time>
      </trkpt>
      <trkpt lat="46.46506" lon="6.36941">
        <ele>384.6</ele>
        <time>2022-09-28T09:59:17Z</time>
      </trkpt>
      <trkpt lat="46.46508" lon="6.36949">
        <ele>384.6</ele>
        <time>2022-09-28T09:59:18Z</time>
      </trkpt>
      <trkpt lat="46.4651" lon="6.36956">
        <ele>384.6</ele>
        <time>2022-09-28T09:59:19Z</time>
      </trkpt>
      <trkpt lat="46.46512" lon="6.36963">
        <ele>384.6</ele>
        <time>2022-09-28T09:59:20Z</time>
      </trkpt>
      <trkpt lat="46.46512" lon="6.36971">
        <ele>384.6</ele>
        <time>2022-09-28T09:59:21Z</time>
      </trkpt>
      <trkpt lat="46.46513" lon="6.36978">
        <ele>384.5</ele>
        <time>2022-09-28T09:59:22Z</time>
      </trkpt>
      <trkpt lat="46.46515" lon="6.36987">
        <ele>384.5</ele>
        <time>2022-09-28T09:59:23Z</time>
      </trkpt>
      <trkpt lat="46.46516" lon="6.36995">
        <ele>384.4</ele>
        <time>2022-09-28T09:59:24Z</time>
      </trkpt>
      <trkpt lat="46.46517" lon="6.37002">
        <ele>384.4</ele>
        <time>2022-09-28T09:59:25Z</time>
      </trkpt>
      <trkpt lat="46.4652" lon="6.3701">
        <ele>384.3</ele>
        <time>2022-09-28T09:59:26Z</time>
      </trkpt>
      <trkpt lat="46.46521" lon="6.37017">
        <ele>384.3</ele>
        <time>2022-09-28T09:59:27Z</time>
      </trkpt>
      <trkpt lat="46.46522" lon="6.37025">
        <ele>384.2</ele>
        <time>2022-09-28T09:59:28Z</time>
      </trkpt>
      <trkpt lat="46.46523" lon="6.37034">
        <ele>384.2</ele>
        <time>2022-09-28T09:59:29Z</time>
      </trkpt>
      <trkpt lat="46.46525" lon="6.37042">
        <ele>384.2</ele>
        <time>2022-09-28T09:59:30Z</time>
      </trkpt>
      <trkpt lat="46.46526" lon="6.3705">
        <ele>384.1</ele>
        <time>2022-09-28T09:59:31Z</time>
      </trkpt>
      <trkpt lat="46.46527" lon="6.37058">
        <ele>384.1</ele>
        <time>2022-09-28T09:59:32Z</time>
      </trkpt>
      <trkpt lat="46.46529" lon="6.37066">
        <ele>384</ele>
        <time>2022-09-28T09:59:33Z</time>
      </trkpt>
      <trkpt lat="46.46531" lon="6.37075">
        <ele>384</ele>
        <time>2022-09-28T09:59:34Z</time>
      </trkpt>
      <trkpt lat="46.46532" lon="6.37082">
        <ele>384</ele>
        <time>2022-09-28T09:59:35Z</time>
      </trkpt>
      <trkpt lat="46.46534" lon="6.37088">
        <ele>383.9</ele>
        <time>2022-09-28T09:59:36Z</time>
      </trkpt>
      <trkpt lat="46.46535" lon="6.37098">
        <ele>383.9</ele>
        <time>2022-09-28T09:59:37Z</time>
      </trkpt>
      <trkpt lat="46.46537" lon="6.37106">
        <ele>383.8</ele>
        <time>2022-09-28T09:59:38Z</time>
      </trkpt>
      <trkpt lat="46.46539" lon="6.37113">
        <ele>383.8</ele>
        <time>2022-09-28T09:59:39Z</time>
      </trkpt>
      <trkpt lat="46.46541" lon="6.37121">
        <ele>383.7</ele>
        <time>2022-09-28T09:59:40Z</time>
      </trkpt>
      <trkpt lat="46.46541" lon="6.37129">
        <ele>383.7</ele>
        <time>2022-09-28T09:59:41Z</time>
      </trkpt>
      <trkpt lat="46.46543" lon="6.37136">
        <ele>383.7</ele>
        <time>2022-09-28T09:59:42Z</time>
      </trkpt>
      <trkpt lat="46.46544" lon="6.37144">
        <ele>383.7</ele>
        <time>2022-09-28T09:59:43Z</time>
      </trkpt>
      <trkpt lat="46.46546" lon="6.3715">
        <ele>383.7</ele>
        <time>2022-09-28T09:59:44Z</time>
      </trkpt>
      <trkpt lat="46.46548" lon="6.37157">
        <ele>383.6</ele>
        <time>2022-09-28T09:59:45Z</time>
      </trkpt>
      <trkpt lat="46.46549" lon="6.37166">
        <ele>383.6</ele>
        <time>2022-09-28T09:59:46Z</time>
      </trkpt>
      <trkpt lat="46.46551" lon="6.37174">
        <ele>383.6</ele>
        <time>2022-09-28T09:59:47Z</time>
      </trkpt>
      <trkpt lat="46.46552" lon="6.37182">
        <ele>383.6</ele>
        <time>2022-09-28T09:59:48Z</time>
      </trkpt>
      <trkpt lat="46.46554" lon="6.37187">
        <ele>383.6</ele>
        <time>2022-09-28T09:59:49Z</time>
      </trkpt>
      <trkpt lat="46.46555" lon="6.37195">
        <ele>383.6</ele>
        <time>2022-09-28T09:59:50Z</time>
      </trkpt>
      <trkpt lat="46.46557" lon="6.37202">
        <ele>383.6</ele>
        <time>2022-09-28T09:59:51Z</time>
      </trkpt>
      <trkpt lat="46.46559" lon="6.3721">
        <ele>383.6</ele>
        <time>2022-09-28T09:59:52Z</time>
      </trkpt>
      <trkpt lat="46.4656" lon="6.37217">
        <ele>383.6</ele>
        <time>2022-09-28T09:59:53Z</time>
      </trkpt>
      <trkpt lat="46.46561" lon="6.37224">
        <ele>383.5</ele>
        <time>2022-09-28T09:59:54Z</time>
      </trkpt>
      <trkpt lat="46.46563" lon="6.37231">
        <ele>383.5</ele>
        <time>2022-09-28T09:59:55Z</time>
      </trkpt>
      <trkpt lat="46.46564" lon="6.37239">
        <ele>383.5</ele>
        <time>2022-09-28T09:59:56Z</time>
      </trkpt>
      <trkpt lat="46.46566" lon="6.37246">
        <ele>383.5</ele>
        <time>2022-09-28T09:59:57Z</time>
      </trkpt>
      <trkpt lat="46.46567" lon="6.37253">
        <ele>383.5</ele>
        <time>2022-09-28T09:59:58Z</time>
      </trkpt>
      <trkpt lat="46.46568" lon="6.37263">
        <ele>383.5</ele>
        <time>2022-09-28T09:59:59Z</time>
      </trkpt>
      <trkpt lat="46.46569" lon="6.37272">
        <ele>383.5</ele>
        <time>2022-09-28T10:00:00Z</time>
      </trkpt>
      <trkpt lat="46.4657" lon="6.37281">
        <ele>383.5</ele>
        <time>2022-09-28T10:00:01Z</time>
      </trkpt>
      <trkpt lat="46.46571" lon="6.37288">
        <ele>383.5</ele>
        <time>2022-09-28T10:00:02Z</time>
      </trkpt>
      <trkpt lat="46.46572" lon="6.37296">
        <ele>383.5</ele>
        <time>2022-09-28T10:00:03Z</time>
      </trkpt>
      <trkpt lat="46.46573" lon="6.37304">
        <ele>383.5</ele>
        <time>2022-09-28T10:00:04Z</time>
      </trkpt>
      <trkpt lat="46.46574" lon="6.37312">
        <ele>383.5</ele>
        <time>2022-09-28T10:00:05Z</time>
      </trkpt>
      <trkpt lat="46.46576" lon="6.37321">
        <ele>383.5</ele>
        <time>2022-09-28T10:00:06Z</time>
      </trkpt>
      <trkpt lat="46.46576" lon="6.3733">
        <ele>383.6</ele>
        <time>2022-09-28T10:00:07Z</time>
      </trkpt>
      <trkpt lat="46.46577" lon="6.37338">
        <ele>383.6</ele>
        <time>2022-09-28T10:00:08Z</time>
      </trkpt>
      <trkpt lat="46.46577" lon="6.37347">
        <ele>383.6</ele>
        <time>2022-09-28T10:00:09Z</time>
      </trkpt>
      <trkpt lat="46.46578" lon="6.37355">
        <ele>383.7</ele>
        <time>2022-09-28T10:00:10Z</time>
      </trkpt>
      <trkpt lat="46.46579" lon="6.37363">
        <ele>383.7</ele>
        <time>2022-09-28T10:00:11Z</time>
      </trkpt>
      <trkpt lat="46.4658" lon="6.37371">
        <ele>383.8</ele>
        <time>2022-09-28T10:00:12Z</time>
      </trkpt>
      <trkpt lat="46.4658" lon="6.37381">
        <ele>383.8</ele>
        <time>2022-09-28T10:00:13Z</time>
      </trkpt>
      <trkpt lat="46.46581" lon="6.37388">
        <ele>383.8</ele>
        <time>2022-09-28T10:00:14Z</time>
      </trkpt>
      <trkpt lat="46.46582" lon="6.37395">
        <ele>383.9</ele>
        <time>2022-09-28T10:00:15Z</time>
      </trkpt>
      <trkpt lat="46.46583" lon="6.37403">
        <ele>383.9</ele>
        <time>2022-09-28T10:00:16Z</time>
      </trkpt>
      <trkpt lat="46.46584" lon="6.37412">
        <ele>384</ele>
        <time>2022-09-28T10:00:17Z</time>
      </trkpt>
      <trkpt lat="46.46584" lon="6.37419">
        <ele>384</ele>
        <time>2022-09-28T10:00:18Z</time>
      </trkpt>
      <trkpt lat="46.46585" lon="6.37427">
        <ele>384</ele>
        <time>2022-09-28T10:00:19Z</time>
      </trkpt>
      <trkpt lat="46.46586" lon="6.37435">
        <ele>384</ele>
        <time>2022-09-28T10:00:20Z</time>
      </trkpt>
      <trkpt lat="46.46587" lon="6.37441">
        <ele>384.1</ele>
        <time>2022-09-28T10:00:21Z</time>
      </trkpt>
      <trkpt lat="46.46587" lon="6.37449">
        <ele>384.1</ele>
        <time>2022-09-28T10:00:22Z</time>
      </trkpt>
      <trkpt lat="46.46588" lon="6.37457">
        <ele>384.1</ele>
        <time>2022-09-28T10:00:23Z</time>
      </trkpt>
      <trkpt lat="46.46589" lon="6.37465">
        <ele>384.1</ele>
        <time>2022-09-28T10:00:24Z</time>
      </trkpt>
      <trkpt lat="46.4659" lon="6.37473">
        <ele>384.2</ele>
        <time>2022-09-28T10:00:25Z</time>
      </trkpt>
      <trkpt lat="46.4659" lon="6.37479">
        <ele>384.2</ele>
        <time>2022-09-28T10:00:26Z</time>
      </trkpt>
      <trkpt lat="46.46591" lon="6.37486">
        <ele>384.2</ele>
        <time>2022-09-28T10:00:28Z</time>
      </trkpt>
      <trkpt lat="46.46592" lon="6.37493">
        <ele>384.2</ele>
        <time>2022-09-28T10:00:29Z</time>
      </trkpt>
      <trkpt lat="46.46592" lon="6.37502">
        <ele>384.3</ele>
        <time>2022-09-28T10:00:30Z</time>
      </trkpt>
      <trkpt lat="46.46593" lon="6.37509">
        <ele>384.3</ele>
        <time>2022-09-28T10:00:31Z</time>
      </trkpt>
      <trkpt lat="46.46595" lon="6.37517">
        <ele>384.3</ele>
        <time>2022-09-28T10:00:32Z</time>
      </trkpt>
      <trkpt lat="46.46594" lon="6.37523">
        <ele>384.4</ele>
        <time>2022-09-28T10:00:33Z</time>
      </trkpt>
      <trkpt lat="46.46595" lon="6.3753">
        <ele>384.4</ele>
        <time>2022-09-28T10:00:34Z</time>
      </trkpt>
      <trkpt lat="46.46597" lon="6.37543">
        <ele>384.4</ele>
        <time>2022-09-28T10:00:35Z</time>
      </trkpt>
      <trkpt lat="46.46598" lon="6.3755">
        <ele>384.5</ele>
        <time>2022-09-28T10:00:36Z</time>
      </trkpt>
      <trkpt lat="46.46598" lon="6.37557">
        <ele>384.5</ele>
        <time>2022-09-28T10:00:38Z</time>
      </trkpt>
      <trkpt lat="46.46599" lon="6.37571">
        <ele>384.5</ele>
        <time>2022-09-28T10:00:39Z</time>
      </trkpt>
      <trkpt lat="46.466" lon="6.37579">
        <ele>384.6</ele>
        <time>2022-09-28T10:00:40Z</time>
      </trkpt>
      <trkpt lat="46.46602" lon="6.37587">
        <ele>384.6</ele>
        <time>2022-09-28T10:00:41Z</time>
      </trkpt>
      <trkpt lat="46.46602" lon="6.37594">
        <ele>384.6</ele>
        <time>2022-09-28T10:00:42Z</time>
      </trkpt>
      <trkpt lat="46.46603" lon="6.37601">
        <ele>384.6</ele>
        <time>2022-09-28T10:00:44Z</time>
      </trkpt>
      <trkpt lat="46.46604" lon="6.37616">
        <ele>384.6</ele>
        <time>2022-09-28T10:00:45Z</time>
      </trkpt>
      <trkpt lat="46.46605" lon="6.37624">
        <ele>384.6</ele>
        <time>2022-09-28T10:00:46Z</time>
      </trkpt>
      <trkpt lat="46.46604" lon="6.37632">
        <ele>384.6</ele>
        <time>2022-09-28T10:00:47Z</time>
      </trkpt>
      <trkpt lat="46.46606" lon="6.37639">
        <ele>384.6</ele>
        <time>2022-09-28T10:00:48Z</time>
      </trkpt>
      <trkpt lat="46.46606" lon="6.37647">
        <ele>384.6</ele>
        <time>2022-09-28T10:00:49Z</time>
      </trkpt>
      <trkpt lat="46.46608" lon="6.37652">
        <ele>384.6</ele>
        <time>2022-09-28T10:00:50Z</time>
      </trkpt>
      <trkpt lat="46.46609" lon="6.37658">
        <ele>384.6</ele>
        <time>2022-09-28T10:00:51Z</time>
      </trkpt>
      <trkpt lat="46.46609" lon="6.37665">
        <ele>384.6</ele>
        <time>2022-09-28T10:00:52Z</time>
      </trkpt>
      <trkpt lat="46.4661" lon="6.37673">
        <ele>384.6</ele>
        <time>2022-09-28T10:00:53Z</time>
      </trkpt>
      <trkpt lat="46.46612" lon="6.37678">
        <ele>384.6</ele>
        <time>2022-09-28T10:00:54Z</time>
      </trkpt>
      <trkpt lat="46.46612" lon="6.37685">
        <ele>384.6</ele>
        <time>2022-09-28T10:00:55Z</time>
      </trkpt>
      <trkpt lat="46.46612" lon="6.37691">
        <ele>384.5</ele>
        <time>2022-09-28T10:00:56Z</time>
      </trkpt>
      <trkpt lat="46.46613" lon="6.37696">
        <ele>384.5</ele>
        <time>2022-09-28T10:00:57Z</time>
      </trkpt>
      <trkpt lat="46.46614" lon="6.37704">
        <ele>384.5</ele>
        <time>2022-09-28T10:00:58Z</time>
      </trkpt>
      <trkpt lat="46.46615" lon="6.3771">
        <ele>384.5</ele>
        <time>2022-09-28T10:00:59Z</time>
      </trkpt>
      <trkpt lat="46.46615" lon="6.37717">
        <ele>384.4</ele>
        <time>2022-09-28T10:01:00Z</time>
      </trkpt>
      <trkpt lat="46.46616" lon="6.37722">
        <ele>384.4</ele>
        <time>2022-09-28T10:01:01Z</time>
      </trkpt>
      <trkpt lat="46.46617" lon="6.37728">
        <ele>384.3</ele>
        <time>2022-09-28T10:01:02Z</time>
      </trkpt>
      <trkpt lat="46.46617" lon="6.37734">
        <ele>384.3</ele>
        <time>2022-09-28T10:01:03Z</time>
      </trkpt>
      <trkpt lat="46.46617" lon="6.3774">
        <ele>384.2</ele>
        <time>2022-09-28T10:01:04Z</time>
      </trkpt>
      <trkpt lat="46.46616" lon="6.37744">
        <ele>384.2</ele>
        <time>2022-09-28T10:01:05Z</time>
      </trkpt>
      <trkpt lat="46.46614" lon="6.37749">
        <ele>383.8</ele>
        <time>2022-09-28T10:01:06Z</time>
      </trkpt>
      <trkpt lat="46.46612" lon="6.37751">
        <ele>383.6</ele>
        <time>2022-09-28T10:01:07Z</time>
      </trkpt>
      <trkpt lat="46.4661" lon="6.37754">
        <ele>383.3</ele>
        <time>2022-09-28T10:01:08Z</time>
      </trkpt>
      <trkpt lat="46.46607" lon="6.37757">
        <ele>382.9</ele>
        <time>2022-09-28T10:01:09Z</time>
      </trkpt>
      <trkpt lat="46.46605" lon="6.37759">
        <ele>382.8</ele>
        <time>2022-09-28T10:01:10Z</time>
      </trkpt>
      <trkpt lat="46.46602" lon="6.37762">
        <ele>382.4</ele>
        <time>2022-09-28T10:01:11Z</time>
      </trkpt>
      <trkpt lat="46.46598" lon="6.37767">
        <ele>381.9</ele>
        <time>2022-09-28T10:01:12Z</time>
      </trkpt>
      <trkpt lat="46.46594" lon="6.37772">
        <ele>381.4</ele>
        <time>2022-09-28T10:01:13Z</time>
      </trkpt>
      <trkpt lat="46.46589" lon="6.37778">
        <ele>380.8</ele>
        <time>2022-09-28T10:01:14Z</time>
      </trkpt>
      <trkpt lat="46.46585" lon="6.37782">
        <ele>380.4</ele>
        <time>2022-09-28T10:01:15Z</time>
      </trkpt>
      <trkpt lat="46.46581" lon="6.37787">
        <ele>380</ele>
        <time>2022-09-28T10:01:16Z</time>
      </trkpt>
      <trkpt lat="46.46578" lon="6.37793">
        <ele>379.7</ele>
        <time>2022-09-28T10:01:17Z</time>
      </trkpt>
      <trkpt lat="46.46575" lon="6.37798">
        <ele>379.3</ele>
        <time>2022-09-28T10:01:18Z</time>
      </trkpt>
      <trkpt lat="46.46572" lon="6.37804">
        <ele>379</ele>
        <time>2022-09-28T10:01:19Z</time>
      </trkpt>
      <trkpt lat="46.46571" lon="6.37809">
        <ele>378.8</ele>
        <time>2022-09-28T10:01:20Z</time>
      </trkpt>
      <trkpt lat="46.4657" lon="6.37816">
        <ele>378.6</ele>
        <time>2022-09-28T10:01:21Z</time>
      </trkpt>
      <trkpt lat="46.46569" lon="6.37819">
        <ele>378.5</ele>
        <time>2022-09-28T10:01:22Z</time>
      </trkpt>
      <trkpt lat="46.46567" lon="6.37826">
        <ele>378.3</ele>
        <time>2022-09-28T10:01:23Z</time>
      </trkpt>
      <trkpt lat="46.46567" lon="6.37831">
        <ele>378.3</ele>
        <time>2022-09-28T10:01:24Z</time>
      </trkpt>
      <trkpt lat="46.46566" lon="6.37837">
        <ele>378.1</ele>
        <time>2022-09-28T10:01:25Z</time>
      </trkpt>
      <trkpt lat="46.46565" lon="6.37845">
        <ele>378</ele>
        <time>2022-09-28T10:01:26Z</time>
      </trkpt>
      <trkpt lat="46.46565" lon="6.37851">
        <ele>377.9</ele>
        <time>2022-09-28T10:01:27Z</time>
      </trkpt>
      <trkpt lat="46.46566" lon="6.37856">
        <ele>377.9</ele>
        <time>2022-09-28T10:01:28Z</time>
      </trkpt>
      <trkpt lat="46.46566" lon="6.37861">
        <ele>377.8</ele>
        <time>2022-09-28T10:01:29Z</time>
      </trkpt>
      <trkpt lat="46.46565" lon="6.37867">
        <ele>377.7</ele>
        <time>2022-09-28T10:01:30Z</time>
      </trkpt>
      <trkpt lat="46.46565" lon="6.37872">
        <ele>377.7</ele>
        <time>2022-09-28T10:01:31Z</time>
      </trkpt>
      <trkpt lat="46.46566" lon="6.37873">
        <ele>377.7</ele>
        <time>2022-09-28T10:01:32Z</time>
      </trkpt>
      <trkpt lat="46.46565" lon="6.37883">
        <ele>377.6</ele>
        <time>2022-09-28T10:01:33Z</time>
      </trkpt>
      <trkpt lat="46.46565" lon="6.37889">
        <ele>377.5</ele>
        <time>2022-09-28T10:01:34Z</time>
      </trkpt>
      <trkpt lat="46.46564" lon="6.37895">
        <ele>377.5</ele>
        <time>2022-09-28T10:01:35Z</time>
      </trkpt>
      <trkpt lat="46.46564" lon="6.379">
        <ele>377.4</ele>
        <time>2022-09-28T10:01:36Z</time>
      </trkpt>
      <trkpt lat="46.46564" lon="6.37906">
        <ele>377.4</ele>
        <time>2022-09-28T10:01:37Z</time>
      </trkpt>
      <trkpt lat="46.46564" lon="6.37914">
        <ele>377.3</ele>
        <time>2022-09-28T10:01:38Z</time>
      </trkpt>
      <trkpt lat="46.46564" lon="6.37918">
        <ele>377.3</ele>
        <time>2022-09-28T10:01:39Z</time>
      </trkpt>
      <trkpt lat="46.46565" lon="6.37921">
        <ele>377.3</ele>
        <time>2022-09-28T10:01:40Z</time>
      </trkpt>
      <trkpt lat="46.46564" lon="6.37927">
        <ele>377.3</ele>
        <time>2022-09-28T10:01:41Z</time>
      </trkpt>
      <trkpt lat="46.46566" lon="6.37936">
        <ele>377.2</ele>
        <time>2022-09-28T10:01:42Z</time>
      </trkpt>
      <trkpt lat="46.46567" lon="6.37944">
        <ele>377.1</ele>
        <time>2022-09-28T10:01:43Z</time>
      </trkpt>
      <trkpt lat="46.46565" lon="6.37951">
        <ele>377.1</ele>
        <time>2022-09-28T10:01:44Z</time>
      </trkpt>
      <trkpt lat="46.46565" lon="6.3796">
        <ele>377</ele>
        <time>2022-09-28T10:01:45Z</time>
      </trkpt>
      <trkpt lat="46.46566" lon="6.37967">
        <ele>376.9</ele>
        <time>2022-09-28T10:01:46Z</time>
      </trkpt>
      <trkpt lat="46.46565" lon="6.37975">
        <ele>376.9</ele>
        <time>2022-09-28T10:01:47Z</time>
      </trkpt>
      <trkpt lat="46.46567" lon="6.37983">
        <ele>376.8</ele>
        <time>2022-09-28T10:01:48Z</time>
      </trkpt>
      <trkpt lat="46.46567" lon="6.37992">
        <ele>376.8</ele>
        <time>2022-09-28T10:01:49Z</time>
      </trkpt>
      <trkpt lat="46.46566" lon="6.37999">
        <ele>376.8</ele>
        <time>2022-09-28T10:01:50Z</time>
      </trkpt>
      <trkpt lat="46.46566" lon="6.38007">
        <ele>376.7</ele>
        <time>2022-09-28T10:01:51Z</time>
      </trkpt>
      <trkpt lat="46.46565" lon="6.38015">
        <ele>376.7</ele>
        <time>2022-09-28T10:01:52Z</time>
      </trkpt>
      <trkpt lat="46.46566" lon="6.38022">
        <ele>376.7</ele>
        <time>2022-09-28T10:01:53Z</time>
      </trkpt>
      <trkpt lat="46.46566" lon="6.38029">
        <ele>376.7</ele>
        <time>2022-09-28T10:01:54Z</time>
      </trkpt>
      <trkpt lat="46.46566" lon="6.38038">
        <ele>376.7</ele>
        <time>2022-09-28T10:01:55Z</time>
      </trkpt>
      <trkpt lat="46.46567" lon="6.38045">
        <ele>376.7</ele>
        <time>2022-09-28T10:01:56Z</time>
      </trkpt>
      <trkpt lat="46.46567" lon="6.38051">
        <ele>376.7</ele>
        <time>2022-09-28T10:01:57Z</time>
      </trkpt>
      <trkpt lat="46.46568" lon="6.38059">
        <ele>376.7</ele>
        <time>2022-09-28T10:01:58Z</time>
      </trkpt>
      <trkpt lat="46.46569" lon="6.38066">
        <ele>376.7</ele>
        <time>2022-09-28T10:01:59Z</time>
      </trkpt>
      <trkpt lat="46.46569" lon="6.38073">
        <ele>376.7</ele>
        <time>2022-09-28T10:02:00Z</time>
      </trkpt>
      <trkpt lat="46.46569" lon="6.38082">
        <ele>376.7</ele>
        <time>2022-09-28T10:02:01Z</time>
      </trkpt>
      <trkpt lat="46.46569" lon="6.38087">
        <ele>376.7</ele>
        <time>2022-09-28T10:02:02Z</time>
      </trkpt>
      <trkpt lat="46.46571" lon="6.38094">
        <ele>376.7</ele>
        <time>2022-09-28T10:02:03Z</time>
      </trkpt>
      <trkpt lat="46.46571" lon="6.38101">
        <ele>376.8</ele>
        <time>2022-09-28T10:02:04Z</time>
      </trkpt>
      <trkpt lat="46.46571" lon="6.38105">
        <ele>376.8</ele>
        <time>2022-09-28T10:02:05Z</time>
      </trkpt>
      <trkpt lat="46.46571" lon="6.38106">
        <ele>376.8</ele>
        <time>2022-09-28T10:02:06Z</time>
      </trkpt>
      <trkpt lat="46.46571" lon="6.38112">
        <ele>376.8</ele>
        <time>2022-09-28T10:02:07Z</time>
      </trkpt>
      <trkpt lat="46.46571" lon="6.38118">
        <ele>376.8</ele>
        <time>2022-09-28T10:02:08Z</time>
      </trkpt>
      <trkpt lat="46.46572" lon="6.38123">
        <ele>376.8</ele>
        <time>2022-09-28T10:02:09Z</time>
      </trkpt>
      <trkpt lat="46.46571" lon="6.38128">
        <ele>376.8</ele>
        <time>2022-09-28T10:02:10Z</time>
      </trkpt>
      <trkpt lat="46.46572" lon="6.38133">
        <ele>376.8</ele>
        <time>2022-09-28T10:02:11Z</time>
      </trkpt>
      <trkpt lat="46.46571" lon="6.38137">
        <ele>376.8</ele>
        <time>2022-09-28T10:02:12Z</time>
      </trkpt>
      <trkpt lat="46.4657" lon="6.38143">
        <ele>376.8</ele>
        <time>2022-09-28T10:02:13Z</time>
      </trkpt>
      <trkpt lat="46.4657" lon="6.38149">
        <ele>376.8</ele>
        <time>2022-09-28T10:02:14Z</time>
      </trkpt>
      <trkpt lat="46.46568" lon="6.38154">
        <ele>376.8</ele>
        <time>2022-09-28T10:02:15Z</time>
      </trkpt>
      <trkpt lat="46.46567" lon="6.38156">
        <ele>376.8</ele>
        <time>2022-09-28T10:02:16Z</time>
      </trkpt>
      <trkpt lat="46.46566" lon="6.38161">
        <ele>376.8</ele>
        <time>2022-09-28T10:02:17Z</time>
      </trkpt>
      <trkpt lat="46.46564" lon="6.38166">
        <ele>376.8</ele>
        <time>2022-09-28T10:02:18Z</time>
      </trkpt>
      <trkpt lat="46.46563" lon="6.38172">
        <ele>376.8</ele>
        <time>2022-09-28T10:02:19Z</time>
      </trkpt>
      <trkpt lat="46.4656" lon="6.38177">
        <ele>376.8</ele>
        <time>2022-09-28T10:02:20Z</time>
      </trkpt>
      <trkpt lat="46.46559" lon="6.38182">
        <ele>376.8</ele>
        <time>2022-09-28T10:02:21Z</time>
      </trkpt>
      <trkpt lat="46.46558" lon="6.38187">
        <ele>376.8</ele>
        <time>2022-09-28T10:02:22Z</time>
      </trkpt>
      <trkpt lat="46.46556" lon="6.38193">
        <ele>376.8</ele>
        <time>2022-09-28T10:02:23Z</time>
      </trkpt>
      <trkpt lat="46.46555" lon="6.38196">
        <ele>376.8</ele>
        <time>2022-09-28T10:02:24Z</time>
      </trkpt>
      <trkpt lat="46.46554" lon="6.38201">
        <ele>376.8</ele>
        <time>2022-09-28T10:02:25Z</time>
      </trkpt>
      <trkpt lat="46.46552" lon="6.38206">
        <ele>376.8</ele>
        <time>2022-09-28T10:02:26Z</time>
      </trkpt>
      <trkpt lat="46.4655" lon="6.38211">
        <ele>376.8</ele>
        <time>2022-09-28T10:02:27Z</time>
      </trkpt>
      <trkpt lat="46.46548" lon="6.38216">
        <ele>376.8</ele>
        <time>2022-09-28T10:02:28Z</time>
      </trkpt>
      <trkpt lat="46.46546" lon="6.38221">
        <ele>376.8</ele>
        <time>2022-09-28T10:02:29Z</time>
      </trkpt>
      <trkpt lat="46.46545" lon="6.38225">
        <ele>376.8</ele>
        <time>2022-09-28T10:02:30Z</time>
      </trkpt>
      <trkpt lat="46.46543" lon="6.3823">
        <ele>376.8</ele>
        <time>2022-09-28T10:02:31Z</time>
      </trkpt>
      <trkpt lat="46.46543" lon="6.38232">
        <ele>376.8</ele>
        <time>2022-09-28T10:02:32Z</time>
      </trkpt>
      <trkpt lat="46.46541" lon="6.38237">
        <ele>376.8</ele>
        <time>2022-09-28T10:02:34Z</time>
      </trkpt>
      <trkpt lat="46.46539" lon="6.3824">
        <ele>376.8</ele>
        <time>2022-09-28T10:02:35Z</time>
      </trkpt>
      <trkpt lat="46.46537" lon="6.38243">
        <ele>376.8</ele>
        <time>2022-09-28T10:02:36Z</time>
      </trkpt>
      <trkpt lat="46.46535" lon="6.38248">
        <ele>376.8</ele>
        <time>2022-09-28T10:02:37Z</time>
      </trkpt>
      <trkpt lat="46.46534" lon="6.38252">
        <ele>376.8</ele>
        <time>2022-09-28T10:02:38Z</time>
      </trkpt>
      <trkpt lat="46.46532" lon="6.38257">
        <ele>376.8</ele>
        <time>2022-09-28T10:02:39Z</time>
      </trkpt>
      <trkpt lat="46.4653" lon="6.38261">
        <ele>376.8</ele>
        <time>2022-09-28T10:02:40Z</time>
      </trkpt>
      <trkpt lat="46.46527" lon="6.38271">
        <ele>376.8</ele>
        <time>2022-09-28T10:02:41Z</time>
      </trkpt>
      <trkpt lat="46.46526" lon="6.38275">
        <ele>376.8</ele>
        <time>2022-09-28T10:02:42Z</time>
      </trkpt>
      <trkpt lat="46.46523" lon="6.38284">
        <ele>376.7</ele>
        <time>2022-09-28T10:02:44Z</time>
      </trkpt>
      <trkpt lat="46.46522" lon="6.38289">
        <ele>376.7</ele>
        <time>2022-09-28T10:02:45Z</time>
      </trkpt>
      <trkpt lat="46.46521" lon="6.38293">
        <ele>376.7</ele>
        <time>2022-09-28T10:02:46Z</time>
      </trkpt>
      <trkpt lat="46.4652" lon="6.38297">
        <ele>376.7</ele>
        <time>2022-09-28T10:02:48Z</time>
      </trkpt>
      <trkpt lat="46.46518" lon="6.38303">
        <ele>376.7</ele>
        <time>2022-09-28T10:02:49Z</time>
      </trkpt>
      <trkpt lat="46.46516" lon="6.38306">
        <ele>376.7</ele>
        <time>2022-09-28T10:02:50Z</time>
      </trkpt>
      <trkpt lat="46.46513" lon="6.38316">
        <ele>376.7</ele>
        <time>2022-09-28T10:02:51Z</time>
      </trkpt>
      <trkpt lat="46.46511" lon="6.3832">
        <ele>376.7</ele>
        <time>2022-09-28T10:02:52Z</time>
      </trkpt>
      <trkpt lat="46.46509" lon="6.38324">
        <ele>376.7</ele>
        <time>2022-09-28T10:02:53Z</time>
      </trkpt>
      <trkpt lat="46.46508" lon="6.38329">
        <ele>376.7</ele>
        <time>2022-09-28T10:02:54Z</time>
      </trkpt>
      <trkpt lat="46.46507" lon="6.38333">
        <ele>376.7</ele>
        <time>2022-09-28T10:02:55Z</time>
      </trkpt>
      <trkpt lat="46.46505" lon="6.38338">
        <ele>376.8</ele>
        <time>2022-09-28T10:02:56Z</time>
      </trkpt>
      <trkpt lat="46.46504" lon="6.38343">
        <ele>376.8</ele>
        <time>2022-09-28T10:02:57Z</time>
      </trkpt>
      <trkpt lat="46.46501" lon="6.38347">
        <ele>376.8</ele>
        <time>2022-09-28T10:02:58Z</time>
      </trkpt>
      <trkpt lat="46.465" lon="6.38351">
        <ele>376.8</ele>
        <time>2022-09-28T10:02:59Z</time>
      </trkpt>
      <trkpt lat="46.465" lon="6.38355">
        <ele>376.8</ele>
        <time>2022-09-28T10:03:00Z</time>
      </trkpt>
      <trkpt lat="46.46499" lon="6.38359">
        <ele>376.8</ele>
        <time>2022-09-28T10:03:01Z</time>
      </trkpt>
      <trkpt lat="46.46497" lon="6.38365">
        <ele>376.8</ele>
        <time>2022-09-28T10:03:02Z</time>
      </trkpt>
      <trkpt lat="46.46497" lon="6.38367">
        <ele>376.8</ele>
        <time>2022-09-28T10:03:03Z</time>
      </trkpt>
      <trkpt lat="46.46494" lon="6.38371">
        <ele>376.8</ele>
        <time>2022-09-28T10:03:04Z</time>
      </trkpt>
      <trkpt lat="46.46493" lon="6.38376">
        <ele>376.8</ele>
        <time>2022-09-28T10:03:05Z</time>
      </trkpt>
      <trkpt lat="46.46493" lon="6.38378">
        <ele>376.8</ele>
        <time>2022-09-28T10:03:06Z</time>
      </trkpt>
      <trkpt lat="46.46491" lon="6.38382">
        <ele>376.8</ele>
        <time>2022-09-28T10:03:07Z</time>
      </trkpt>
      <trkpt lat="46.46489" lon="6.38387">
        <ele>376.8</ele>
        <time>2022-09-28T10:03:08Z</time>
      </trkpt>
      <trkpt lat="46.46488" lon="6.3839">
        <ele>376.8</ele>
        <time>2022-09-28T10:03:09Z</time>
      </trkpt>
      <trkpt lat="46.46486" lon="6.38393">
        <ele>376.8</ele>
        <time>2022-09-28T10:03:10Z</time>
      </trkpt>
      <trkpt lat="46.46484" lon="6.384">
        <ele>376.8</ele>
        <time>2022-09-28T10:03:11Z</time>
      </trkpt>
      <trkpt lat="46.46482" lon="6.38407">
        <ele>376.8</ele>
        <time>2022-09-28T10:03:12Z</time>
      </trkpt>
      <trkpt lat="46.4648" lon="6.38413">
        <ele>376.7</ele>
        <time>2022-09-28T10:03:13Z</time>
      </trkpt>
      <trkpt lat="46.46479" lon="6.38418">
        <ele>376.7</ele>
        <time>2022-09-28T10:03:14Z</time>
      </trkpt>
      <trkpt lat="46.46478" lon="6.38422">
        <ele>376.7</ele>
        <time>2022-09-28T10:03:15Z</time>
      </trkpt>
      <trkpt lat="46.46475" lon="6.3843">
        <ele>376.7</ele>
        <time>2022-09-28T10:03:16Z</time>
      </trkpt>
      <trkpt lat="46.46471" lon="6.38436">
        <ele>376.6</ele>
        <time>2022-09-28T10:03:17Z</time>
      </trkpt>
      <trkpt lat="46.4647" lon="6.38442">
        <ele>376.6</ele>
        <time>2022-09-28T10:03:18Z</time>
      </trkpt>
      <trkpt lat="46.46466" lon="6.38449">
        <ele>376.6</ele>
        <time>2022-09-28T10:03:19Z</time>
      </trkpt>
      <trkpt lat="46.46463" lon="6.38456">
        <ele>376.5</ele>
        <time>2022-09-28T10:03:20Z</time>
      </trkpt>
      <trkpt lat="46.4646" lon="6.38464">
        <ele>376.5</ele>
        <time>2022-09-28T10:03:21Z</time>
      </trkpt>
      <trkpt lat="46.46458" lon="6.3847">
        <ele>376.4</ele>
        <time>2022-09-28T10:03:22Z</time>
      </trkpt>
      <trkpt lat="46.46456" lon="6.38475">
        <ele>376.4</ele>
        <time>2022-09-28T10:03:23Z</time>
      </trkpt>
      <trkpt lat="46.46453" lon="6.38481">
        <ele>376.4</ele>
        <time>2022-09-28T10:03:24Z</time>
      </trkpt>
      <trkpt lat="46.46451" lon="6.38488">
        <ele>376.3</ele>
        <time>2022-09-28T10:03:25Z</time>
      </trkpt>
      <trkpt lat="46.46448" lon="6.38494">
        <ele>376.3</ele>
        <time>2022-09-28T10:03:26Z</time>
      </trkpt>
      <trkpt lat="46.46447" lon="6.38501">
        <ele>376.3</ele>
        <time>2022-09-28T10:03:27Z</time>
      </trkpt>
      <trkpt lat="46.46444" lon="6.38507">
        <ele>376.2</ele>
        <time>2022-09-28T10:03:28Z</time>
      </trkpt>
      <trkpt lat="46.46444" lon="6.38514">
        <ele>376.2</ele>
        <time>2022-09-28T10:03:29Z</time>
      </trkpt>
      <trkpt lat="46.46443" lon="6.38521">
        <ele>376.2</ele>
        <time>2022-09-28T10:03:30Z</time>
      </trkpt>
      <trkpt lat="46.46442" lon="6.38527">
        <ele>376.2</ele>
        <time>2022-09-28T10:03:31Z</time>
      </trkpt>
      <trkpt lat="46.46442" lon="6.38532">
        <ele>376.3</ele>
        <time>2022-09-28T10:03:32Z</time>
      </trkpt>
      <trkpt lat="46.46442" lon="6.38539">
        <ele>376.3</ele>
        <time>2022-09-28T10:03:33Z</time>
      </trkpt>
      <trkpt lat="46.46441" lon="6.38546">
        <ele>376.3</ele>
        <time>2022-09-28T10:03:34Z</time>
      </trkpt>
      <trkpt lat="46.4644" lon="6.38552">
        <ele>376.4</ele>
        <time>2022-09-28T10:03:35Z</time>
      </trkpt>
      <trkpt lat="46.46438" lon="6.38558">
        <ele>376.4</ele>
        <time>2022-09-28T10:03:36Z</time>
      </trkpt>
      <trkpt lat="46.46437" lon="6.38564">
        <ele>376.4</ele>
        <time>2022-09-28T10:03:37Z</time>
      </trkpt>
      <trkpt lat="46.46437" lon="6.38571">
        <ele>376.5</ele>
        <time>2022-09-28T10:03:38Z</time>
      </trkpt>
      <trkpt lat="46.46437" lon="6.38576">
        <ele>376.5</ele>
        <time>2022-09-28T10:03:39Z</time>
      </trkpt>
      <trkpt lat="46.46436" lon="6.3858">
        <ele>376.5</ele>
        <time>2022-09-28T10:03:40Z</time>
      </trkpt>
      <trkpt lat="46.46436" lon="6.38584">
        <ele>376.5</ele>
        <time>2022-09-28T10:03:41Z</time>
      </trkpt>
      <trkpt lat="46.46437" lon="6.38588">
        <ele>376.5</ele>
        <time>2022-09-28T10:03:42Z</time>
      </trkpt>
      <trkpt lat="46.46435" lon="6.38589">
        <ele>376.5</ele>
        <time>2022-09-28T10:03:43Z</time>
      </trkpt>
      <trkpt lat="46.46436" lon="6.38593">
        <ele>376.5</ele>
        <time>2022-09-28T10:03:44Z</time>
      </trkpt>
      <trkpt lat="46.46434" lon="6.38597">
        <ele>376.5</ele>
        <time>2022-09-28T10:03:45Z</time>
      </trkpt>
      <trkpt lat="46.46433" lon="6.38599">
        <ele>376.5</ele>
        <time>2022-09-28T10:03:46Z</time>
      </trkpt>
      <trkpt lat="46.46433" lon="6.38604">
        <ele>376.5</ele>
        <time>2022-09-28T10:03:47Z</time>
      </trkpt>
      <trkpt lat="46.46433" lon="6.38608">
        <ele>376.6</ele>
        <time>2022-09-28T10:03:48Z</time>
      </trkpt>
      <trkpt lat="46.46433" lon="6.38612">
        <ele>376.6</ele>
        <time>2022-09-28T10:03:49Z</time>
      </trkpt>
      <trkpt lat="46.46432" lon="6.38618">
        <ele>376.6</ele>
        <time>2022-09-28T10:03:50Z</time>
      </trkpt>
      <trkpt lat="46.46433" lon="6.38624">
        <ele>376.6</ele>
        <time>2022-09-28T10:03:51Z</time>
      </trkpt>
      <trkpt lat="46.46436" lon="6.3863">
        <ele>376.6</ele>
        <time>2022-09-28T10:03:52Z</time>
      </trkpt>
      <trkpt lat="46.46438" lon="6.38634">
        <ele>376.6</ele>
        <time>2022-09-28T10:03:53Z</time>
      </trkpt>
      <trkpt lat="46.4644" lon="6.38639">
        <ele>376.6</ele>
        <time>2022-09-28T10:03:54Z</time>
      </trkpt>
      <trkpt lat="46.46444" lon="6.38643">
        <ele>376.6</ele>
        <time>2022-09-28T10:03:55Z</time>
      </trkpt>
      <trkpt lat="46.46446" lon="6.38647">
        <ele>376.6</ele>
        <time>2022-09-28T10:03:56Z</time>
      </trkpt>
      <trkpt lat="46.46449" lon="6.38654">
        <ele>376.6</ele>
        <time>2022-09-28T10:03:57Z</time>
      </trkpt>
      <trkpt lat="46.46452" lon="6.38659">
        <ele>376.6</ele>
        <time>2022-09-28T10:03:58Z</time>
      </trkpt>
      <trkpt lat="46.46454" lon="6.38667">
        <ele>376.6</ele>
        <time>2022-09-28T10:03:59Z</time>
      </trkpt>
      <trkpt lat="46.46457" lon="6.38672">
        <ele>376.6</ele>
        <time>2022-09-28T10:04:00Z</time>
      </trkpt>
      <trkpt lat="46.46459" lon="6.38678">
        <ele>376.6</ele>
        <time>2022-09-28T10:04:01Z</time>
      </trkpt>
      <trkpt lat="46.46461" lon="6.38683">
        <ele>376.6</ele>
        <time>2022-09-28T10:04:02Z</time>
      </trkpt>
      <trkpt lat="46.46464" lon="6.38688">
        <ele>376.6</ele>
        <time>2022-09-28T10:04:03Z</time>
      </trkpt>
      <trkpt lat="46.46466" lon="6.38695">
        <ele>376.6</ele>
        <time>2022-09-28T10:04:04Z</time>
      </trkpt>
      <trkpt lat="46.46469" lon="6.38701">
        <ele>376.7</ele>
        <time>2022-09-28T10:04:05Z</time>
      </trkpt>
      <trkpt lat="46.46473" lon="6.38706">
        <ele>376.7</ele>
        <time>2022-09-28T10:04:06Z</time>
      </trkpt>
      <trkpt lat="46.46476" lon="6.38712">
        <ele>376.7</ele>
        <time>2022-09-28T10:04:07Z</time>
      </trkpt>
      <trkpt lat="46.46479" lon="6.38716">
        <ele>376.8</ele>
        <time>2022-09-28T10:04:08Z</time>
      </trkpt>
      <trkpt lat="46.46482" lon="6.38722">
        <ele>376.8</ele>
        <time>2022-09-28T10:04:09Z</time>
      </trkpt>
      <trkpt lat="46.46486" lon="6.38727">
        <ele>376.9</ele>
        <time>2022-09-28T10:04:10Z</time>
      </trkpt>
      <trkpt lat="46.46489" lon="6.38733">
        <ele>377</ele>
        <time>2022-09-28T10:04:11Z</time>
      </trkpt>
      <trkpt lat="46.46492" lon="6.38738">
        <ele>377.1</ele>
        <time>2022-09-28T10:04:12Z</time>
      </trkpt>
      <trkpt lat="46.46495" lon="6.38744">
        <ele>377.2</ele>
        <time>2022-09-28T10:04:13Z</time>
      </trkpt>
      <trkpt lat="46.46498" lon="6.38749">
        <ele>377.2</ele>
        <time>2022-09-28T10:04:14Z</time>
      </trkpt>
      <trkpt lat="46.46502" lon="6.38753">
        <ele>377.3</ele>
        <time>2022-09-28T10:04:15Z</time>
      </trkpt>
      <trkpt lat="46.46503" lon="6.38759">
        <ele>377.4</ele>
        <time>2022-09-28T10:04:16Z</time>
      </trkpt>
      <trkpt lat="46.46506" lon="6.38764">
        <ele>377.5</ele>
        <time>2022-09-28T10:04:17Z</time>
      </trkpt>
      <trkpt lat="46.46509" lon="6.38768">
        <ele>377.6</ele>
        <time>2022-09-28T10:04:18Z</time>
      </trkpt>
      <trkpt lat="46.46512" lon="6.38773">
        <ele>377.6</ele>
        <time>2022-09-28T10:04:19Z</time>
      </trkpt>
      <trkpt lat="46.46515" lon="6.38778">
        <ele>377.7</ele>
        <time>2022-09-28T10:04:20Z</time>
      </trkpt>
      <trkpt lat="46.46518" lon="6.38783">
        <ele>377.8</ele>
        <time>2022-09-28T10:04:21Z</time>
      </trkpt>
      <trkpt lat="46.46521" lon="6.38787">
        <ele>377.9</ele>
        <time>2022-09-28T10:04:22Z</time>
      </trkpt>
      <trkpt lat="46.46523" lon="6.38792">
        <ele>377.9</ele>
        <time>2022-09-28T10:04:23Z</time>
      </trkpt>
      <trkpt lat="46.46525" lon="6.38795">
        <ele>378</ele>
        <time>2022-09-28T10:04:24Z</time>
      </trkpt>
      <trkpt lat="46.46528" lon="6.38798">
        <ele>378</ele>
        <time>2022-09-28T10:04:25Z</time>
      </trkpt>
      <trkpt lat="46.4653" lon="6.38801">
        <ele>378</ele>
        <time>2022-09-28T10:04:26Z</time>
      </trkpt>
      <trkpt lat="46.46533" lon="6.38805">
        <ele>378.1</ele>
        <time>2022-09-28T10:04:27Z</time>
      </trkpt>
      <trkpt lat="46.46535" lon="6.38806">
        <ele>378.1</ele>
        <time>2022-09-28T10:04:28Z</time>
      </trkpt>
      <trkpt lat="46.46537" lon="6.38806">
        <ele>378.2</ele>
        <time>2022-09-28T10:04:29Z</time>
      </trkpt>
      <trkpt lat="46.46539" lon="6.38805">
        <ele>378.2</ele>
        <time>2022-09-28T10:04:30Z</time>
      </trkpt>
      <trkpt lat="46.46539" lon="6.38807">
        <ele>378.2</ele>
        <time>2022-09-28T10:04:31Z</time>
      </trkpt>
      <trkpt lat="46.4654" lon="6.38808">
        <ele>378.2</ele>
        <time>2022-09-28T10:04:32Z</time>
      </trkpt>
      <trkpt lat="46.4654" lon="6.38809">
        <ele>378.2</ele>
        <time>2022-09-28T10:04:33Z</time>
      </trkpt>
      <trkpt lat="46.4654" lon="6.3881">
        <ele>378.2</ele>
        <time>2022-09-28T10:04:34Z</time>
      </trkpt>
      <trkpt lat="46.4654" lon="6.38811">
        <ele>378.2</ele>
        <time>2022-09-28T10:04:35Z</time>
      </trkpt>
      <trkpt lat="46.4654" lon="6.38813">
        <ele>378.2</ele>
        <time>2022-09-28T10:04:36Z</time>
      </trkpt>
      <trkpt lat="46.4654" lon="6.38814">
        <ele>378.2</ele>
        <time>2022-09-28T10:04:37Z</time>
      </trkpt>
      <trkpt lat="46.4654" lon="6.38815">
        <ele>378.2</ele>
        <time>2022-09-28T10:04:38Z</time>
      </trkpt>
      <trkpt lat="46.4654" lon="6.38816">
        <ele>378.2</ele>
        <time>2022-09-28T10:04:40Z</time>
      </trkpt>
      <trkpt lat="46.4654" lon="6.38817">
        <ele>378.2</ele>
        <time>2022-09-28T10:04:41Z</time>
      </trkpt>
      <trkpt lat="46.4654" lon="6.38819">
        <ele>378.2</ele>
        <time>2022-09-28T10:04:42Z</time>
      </trkpt>
      <trkpt lat="46.4654" lon="6.3882">
        <ele>378.3</ele>
        <time>2022-09-28T10:26:12Z</time>
      </trkpt>
      <trkpt lat="46.4654" lon="6.38821">
        <ele>378.3</ele>
        <time>2022-09-28T10:26:13Z</time>
      </trkpt>
      <trkpt lat="46.4654" lon="6.38822">
        <ele>378.3</ele>
        <time>2022-09-28T10:26:14Z</time>
      </trkpt>
      <trkpt lat="46.46542" lon="6.38826">
        <ele>378.3</ele>
        <time>2022-09-28T10:26:15Z</time>
      </trkpt>
      <trkpt lat="46.46543" lon="6.38828">
        <ele>378.3</ele>
        <time>2022-09-28T10:26:16Z</time>
      </trkpt>
      <trkpt lat="46.46545" lon="6.3883">
        <ele>378.3</ele>
        <time>2022-09-28T10:26:17Z</time>
      </trkpt>
      <trkpt lat="46.46548" lon="6.38834">
        <ele>378.4</ele>
        <time>2022-09-28T10:26:18Z</time>
      </trkpt>
      <trkpt lat="46.46549" lon="6.38835">
        <ele>378.4</ele>
        <time>2022-09-28T10:26:19Z</time>
      </trkpt>
      <trkpt lat="46.4655" lon="6.38839">
        <ele>378.4</ele>
        <time>2022-09-28T10:26:20Z</time>
      </trkpt>
      <trkpt lat="46.46553" lon="6.38842">
        <ele>378.4</ele>
        <time>2022-09-28T10:26:21Z</time>
      </trkpt>
      <trkpt lat="46.46555" lon="6.38845">
        <ele>378.5</ele>
        <time>2022-09-28T10:26:22Z</time>
      </trkpt>
      <trkpt lat="46.4656" lon="6.38853">
        <ele>378.5</ele>
        <time>2022-09-28T10:26:23Z</time>
      </trkpt>
      <trkpt lat="46.46563" lon="6.38857">
        <ele>378.5</ele>
        <time>2022-09-28T10:26:24Z</time>
      </trkpt>
      <trkpt lat="46.46565" lon="6.38861">
        <ele>378.6</ele>
        <time>2022-09-28T10:26:25Z</time>
      </trkpt>
      <trkpt lat="46.46567" lon="6.38865">
        <ele>378.6</ele>
        <time>2022-09-28T10:26:26Z</time>
      </trkpt>
      <trkpt lat="46.46569" lon="6.38869">
        <ele>378.6</ele>
        <time>2022-09-28T10:26:27Z</time>
      </trkpt>
      <trkpt lat="46.46571" lon="6.38875">
        <ele>378.7</ele>
        <time>2022-09-28T10:26:28Z</time>
      </trkpt>
      <trkpt lat="46.46573" lon="6.38879">
        <ele>378.7</ele>
        <time>2022-09-28T10:26:29Z</time>
      </trkpt>
      <trkpt lat="46.46576" lon="6.38882">
        <ele>378.8</ele>
        <time>2022-09-28T10:26:30Z</time>
      </trkpt>
      <trkpt lat="46.46577" lon="6.38886">
        <ele>378.8</ele>
        <time>2022-09-28T10:26:31Z</time>
      </trkpt>
      <trkpt lat="46.4658" lon="6.3889">
        <ele>378.9</ele>
        <time>2022-09-28T10:26:32Z</time>
      </trkpt>
      <trkpt lat="46.46581" lon="6.38894">
        <ele>378.9</ele>
        <time>2022-09-28T10:26:33Z</time>
      </trkpt>
      <trkpt lat="46.46582" lon="6.38899">
        <ele>379</ele>
        <time>2022-09-28T10:26:34Z</time>
      </trkpt>
      <trkpt lat="46.46584" lon="6.38904">
        <ele>379</ele>
        <time>2022-09-28T10:26:35Z</time>
      </trkpt>
      <trkpt lat="46.46586" lon="6.38909">
        <ele>379.1</ele>
        <time>2022-09-28T10:26:36Z</time>
      </trkpt>
      <trkpt lat="46.46587" lon="6.38914">
        <ele>379.1</ele>
        <time>2022-09-28T10:26:37Z</time>
      </trkpt>
      <trkpt lat="46.46589" lon="6.38919">
        <ele>379.2</ele>
        <time>2022-09-28T10:26:38Z</time>
      </trkpt>
      <trkpt lat="46.46591" lon="6.38924">
        <ele>379.2</ele>
        <time>2022-09-28T10:26:39Z</time>
      </trkpt>
      <trkpt lat="46.46593" lon="6.38929">
        <ele>379.2</ele>
        <time>2022-09-28T10:26:40Z</time>
      </trkpt>
      <trkpt lat="46.46594" lon="6.38933">
        <ele>379.3</ele>
        <time>2022-09-28T10:26:41Z</time>
      </trkpt>
      <trkpt lat="46.46596" lon="6.38939">
        <ele>379.4</ele>
        <time>2022-09-28T10:26:42Z</time>
      </trkpt>
      <trkpt lat="46.46598" lon="6.38944">
        <ele>379.5</ele>
        <time>2022-09-28T10:26:43Z</time>
      </trkpt>
      <trkpt lat="46.466" lon="6.38949">
        <ele>379.5</ele>
        <time>2022-09-28T10:26:44Z</time>
      </trkpt>
      <trkpt lat="46.46602" lon="6.38953">
        <ele>379.6</ele>
        <time>2022-09-28T10:26:45Z</time>
      </trkpt>
      <trkpt lat="46.46605" lon="6.38958">
        <ele>379.7</ele>
        <time>2022-09-28T10:26:46Z</time>
      </trkpt>
      <trkpt lat="46.46607" lon="6.38962">
        <ele>379.8</ele>
        <time>2022-09-28T10:26:47Z</time>
      </trkpt>
      <trkpt lat="46.46609" lon="6.38967">
        <ele>379.8</ele>
        <time>2022-09-28T10:26:48Z</time>
      </trkpt>
      <trkpt lat="46.46612" lon="6.38972">
        <ele>379.9</ele>
        <time>2022-09-28T10:26:49Z</time>
      </trkpt>
      <trkpt lat="46.46614" lon="6.38977">
        <ele>380</ele>
        <time>2022-09-28T10:26:50Z</time>
      </trkpt>
      <trkpt lat="46.46616" lon="6.38981">
        <ele>380.1</ele>
        <time>2022-09-28T10:26:51Z</time>
      </trkpt>
      <trkpt lat="46.46619" lon="6.38986">
        <ele>380.2</ele>
        <time>2022-09-28T10:26:52Z</time>
      </trkpt>
      <trkpt lat="46.46621" lon="6.3899">
        <ele>380.3</ele>
        <time>2022-09-28T10:26:53Z</time>
      </trkpt>
      <trkpt lat="46.46624" lon="6.38995">
        <ele>380.4</ele>
        <time>2022-09-28T10:26:54Z</time>
      </trkpt>
      <trkpt lat="46.46626" lon="6.39">
        <ele>380.5</ele>
        <time>2022-09-28T10:26:55Z</time>
      </trkpt>
      <trkpt lat="46.46629" lon="6.39004">
        <ele>380.6</ele>
        <time>2022-09-28T10:26:56Z</time>
      </trkpt>
      <trkpt lat="46.46631" lon="6.39009">
        <ele>380.7</ele>
        <time>2022-09-28T10:26:57Z</time>
      </trkpt>
      <trkpt lat="46.46634" lon="6.39013">
        <ele>380.9</ele>
        <time>2022-09-28T10:26:58Z</time>
      </trkpt>
      <trkpt lat="46.46637" lon="6.39018">
        <ele>381</ele>
        <time>2022-09-28T10:26:59Z</time>
      </trkpt>
      <trkpt lat="46.46639" lon="6.39022">
        <ele>381.1</ele>
        <time>2022-09-28T10:27:00Z</time>
      </trkpt>
      <trkpt lat="46.46642" lon="6.39027">
        <ele>381.2</ele>
        <time>2022-09-28T10:27:01Z</time>
      </trkpt>
      <trkpt lat="46.46644" lon="6.39031">
        <ele>381.3</ele>
        <time>2022-09-28T10:27:02Z</time>
      </trkpt>
      <trkpt lat="46.46647" lon="6.39036">
        <ele>381.5</ele>
        <time>2022-09-28T10:27:03Z</time>
      </trkpt>
      <trkpt lat="46.46649" lon="6.3904">
        <ele>381.6</ele>
        <time>2022-09-28T10:27:04Z</time>
      </trkpt>
      <trkpt lat="46.46651" lon="6.39044">
        <ele>381.7</ele>
        <time>2022-09-28T10:27:05Z</time>
      </trkpt>
      <trkpt lat="46.46654" lon="6.39049">
        <ele>381.8</ele>
        <time>2022-09-28T10:27:06Z</time>
      </trkpt>
      <trkpt lat="46.46656" lon="6.39053">
        <ele>382</ele>
        <time>2022-09-28T10:27:07Z</time>
      </trkpt>
      <trkpt lat="46.46658" lon="6.39057">
        <ele>382.1</ele>
        <time>2022-09-28T10:27:08Z</time>
      </trkpt>
      <trkpt lat="46.46661" lon="6.39062">
        <ele>382.2</ele>
        <time>2022-09-28T10:27:09Z</time>
      </trkpt>
      <trkpt lat="46.46662" lon="6.39066">
        <ele>382.3</ele>
        <time>2022-09-28T10:27:10Z</time>
      </trkpt>
      <trkpt lat="46.46665" lon="6.3907">
        <ele>382.4</ele>
        <time>2022-09-28T10:27:11Z</time>
      </trkpt>
      <trkpt lat="46.46667" lon="6.39074">
        <ele>382.5</ele>
        <time>2022-09-28T10:27:12Z</time>
      </trkpt>
      <trkpt lat="46.46669" lon="6.39077">
        <ele>382.6</ele>
        <time>2022-09-28T10:27:13Z</time>
      </trkpt>
      <trkpt lat="46.4667" lon="6.39082">
        <ele>382.7</ele>
        <time>2022-09-28T10:27:14Z</time>
      </trkpt>
      <trkpt lat="46.46674" lon="6.39086">
        <ele>382.8</ele>
        <time>2022-09-28T10:27:15Z</time>
      </trkpt>
      <trkpt lat="46.46676" lon="6.39089">
        <ele>382.8</ele>
        <time>2022-09-28T10:27:16Z</time>
      </trkpt>
      <trkpt lat="46.46678" lon="6.39093">
        <ele>382.9</ele>
        <time>2022-09-28T10:27:17Z</time>
      </trkpt>
      <trkpt lat="46.4668" lon="6.39098">
        <ele>383</ele>
        <time>2022-09-28T10:27:18Z</time>
      </trkpt>
      <trkpt lat="46.46682" lon="6.39102">
        <ele>383</ele>
        <time>2022-09-28T10:27:19Z</time>
      </trkpt>
      <trkpt lat="46.46685" lon="6.39108">
        <ele>383.1</ele>
        <time>2022-09-28T10:27:20Z</time>
      </trkpt>
      <trkpt lat="46.46687" lon="6.39111">
        <ele>383.2</ele>
        <time>2022-09-28T10:27:21Z</time>
      </trkpt>
      <trkpt lat="46.46689" lon="6.39116">
        <ele>383.3</ele>
        <time>2022-09-28T10:27:22Z</time>
      </trkpt>
      <trkpt lat="46.46691" lon="6.39121">
        <ele>383.3</ele>
        <time>2022-09-28T10:27:23Z</time>
      </trkpt>
      <trkpt lat="46.46694" lon="6.39125">
        <ele>383.4</ele>
        <time>2022-09-28T10:27:24Z</time>
      </trkpt>
      <trkpt lat="46.46696" lon="6.3913">
        <ele>383.5</ele>
        <time>2022-09-28T10:27:25Z</time>
      </trkpt>
      <trkpt lat="46.46698" lon="6.39134">
        <ele>383.6</ele>
        <time>2022-09-28T10:27:26Z</time>
      </trkpt>
      <trkpt lat="46.467" lon="6.39138">
        <ele>383.7</ele>
        <time>2022-09-28T10:27:27Z</time>
      </trkpt>
      <trkpt lat="46.46702" lon="6.39142">
        <ele>383.8</ele>
        <time>2022-09-28T10:27:28Z</time>
      </trkpt>
      <trkpt lat="46.46703" lon="6.39144">
        <ele>383.8</ele>
        <time>2022-09-28T10:27:29Z</time>
      </trkpt>
      <trkpt lat="46.46705" lon="6.39149">
        <ele>383.9</ele>
        <time>2022-09-28T10:27:30Z</time>
      </trkpt>
      <trkpt lat="46.46705" lon="6.3915">
        <ele>383.9</ele>
        <time>2022-09-28T10:27:31Z</time>
      </trkpt>
      <trkpt lat="46.46707" lon="6.39154">
        <ele>384</ele>
        <time>2022-09-28T10:27:32Z</time>
      </trkpt>
      <trkpt lat="46.46709" lon="6.39159">
        <ele>384.1</ele>
        <time>2022-09-28T10:27:33Z</time>
      </trkpt>
      <trkpt lat="46.4671" lon="6.39161">
        <ele>384.1</ele>
        <time>2022-09-28T10:27:34Z</time>
      </trkpt>
      <trkpt lat="46.46711" lon="6.39166">
        <ele>384.2</ele>
        <time>2022-09-28T10:27:35Z</time>
      </trkpt>
      <trkpt lat="46.46713" lon="6.39169">
        <ele>384.2</ele>
        <time>2022-09-28T10:27:36Z</time>
      </trkpt>
      <trkpt lat="46.46715" lon="6.39173">
        <ele>384.3</ele>
        <time>2022-09-28T10:27:37Z</time>
      </trkpt>
      <trkpt lat="46.46717" lon="6.39177">
        <ele>384.4</ele>
        <time>2022-09-28T10:27:38Z</time>
      </trkpt>
      <trkpt lat="46.46718" lon="6.39181">
        <ele>384.4</ele>
        <time>2022-09-28T10:27:39Z</time>
      </trkpt>
      <trkpt lat="46.4672" lon="6.39185">
        <ele>384.5</ele>
        <time>2022-09-28T10:27:40Z</time>
      </trkpt>
      <trkpt lat="46.46723" lon="6.39189">
        <ele>384.6</ele>
        <time>2022-09-28T10:27:41Z</time>
      </trkpt>
      <trkpt lat="46.46725" lon="6.39194">
        <ele>384.7</ele>
        <time>2022-09-28T10:27:42Z</time>
      </trkpt>
      <trkpt lat="46.46727" lon="6.39199">
        <ele>384.8</ele>
        <time>2022-09-28T10:27:43Z</time>
      </trkpt>
      <trkpt lat="46.46729" lon="6.39202">
        <ele>384.8</ele>
        <time>2022-09-28T10:27:44Z</time>
      </trkpt>
      <trkpt lat="46.46731" lon="6.39206">
        <ele>384.9</ele>
        <time>2022-09-28T10:27:46Z</time>
      </trkpt>
      <trkpt lat="46.46733" lon="6.3921">
        <ele>385</ele>
        <time>2022-09-28T10:27:47Z</time>
      </trkpt>
      <trkpt lat="46.46735" lon="6.39215">
        <ele>385.1</ele>
        <time>2022-09-28T10:27:48Z</time>
      </trkpt>
      <trkpt lat="46.46736" lon="6.39219">
        <ele>385.1</ele>
        <time>2022-09-28T10:27:49Z</time>
      </trkpt>
      <trkpt lat="46.46737" lon="6.39224">
        <ele>385.2</ele>
        <time>2022-09-28T10:27:50Z</time>
      </trkpt>
      <trkpt lat="46.46739" lon="6.39229">
        <ele>385.3</ele>
        <time>2022-09-28T10:27:51Z</time>
      </trkpt>
      <trkpt lat="46.46742" lon="6.39233">
        <ele>385.4</ele>
        <time>2022-09-28T10:27:52Z</time>
      </trkpt>
      <trkpt lat="46.46745" lon="6.39237">
        <ele>385.5</ele>
        <time>2022-09-28T10:27:53Z</time>
      </trkpt>
      <trkpt lat="46.46747" lon="6.39242">
        <ele>385.6</ele>
        <time>2022-09-28T10:27:54Z</time>
      </trkpt>
      <trkpt lat="46.46749" lon="6.39246">
        <ele>385.7</ele>
        <time>2022-09-28T10:27:55Z</time>
      </trkpt>
      <trkpt lat="46.46751" lon="6.39251">
        <ele>385.8</ele>
        <time>2022-09-28T10:27:56Z</time>
      </trkpt>
      <trkpt lat="46.46753" lon="6.39256">
        <ele>385.9</ele>
        <time>2022-09-28T10:27:57Z</time>
      </trkpt>
      <trkpt lat="46.46756" lon="6.3926">
        <ele>386</ele>
        <time>2022-09-28T10:27:58Z</time>
      </trkpt>
      <trkpt lat="46.46757" lon="6.39264">
        <ele>386</ele>
        <time>2022-09-28T10:27:59Z</time>
      </trkpt>
      <trkpt lat="46.4676" lon="6.39268">
        <ele>386.1</ele>
        <time>2022-09-28T10:28:00Z</time>
      </trkpt>
      <trkpt lat="46.46762" lon="6.39271">
        <ele>386.2</ele>
        <time>2022-09-28T10:28:01Z</time>
      </trkpt>
      <trkpt lat="46.46764" lon="6.39275">
        <ele>386.3</ele>
        <time>2022-09-28T10:28:02Z</time>
      </trkpt>
      <trkpt lat="46.46766" lon="6.39279">
        <ele>386.4</ele>
        <time>2022-09-28T10:28:03Z</time>
      </trkpt>
      <trkpt lat="46.46768" lon="6.39282">
        <ele>386.5</ele>
        <time>2022-09-28T10:28:04Z</time>
      </trkpt>
      <trkpt lat="46.4677" lon="6.39286">
        <ele>386.5</ele>
        <time>2022-09-28T10:28:05Z</time>
      </trkpt>
      <trkpt lat="46.46773" lon="6.3929">
        <ele>386.6</ele>
        <time>2022-09-28T10:28:06Z</time>
      </trkpt>
      <trkpt lat="46.46775" lon="6.39294">
        <ele>386.7</ele>
        <time>2022-09-28T10:28:07Z</time>
      </trkpt>
      <trkpt lat="46.46776" lon="6.39295">
        <ele>386.7</ele>
        <time>2022-09-28T10:28:08Z</time>
      </trkpt>
      <trkpt lat="46.46779" lon="6.39299">
        <ele>386.8</ele>
        <time>2022-09-28T10:28:09Z</time>
      </trkpt>
      <trkpt lat="46.4678" lon="6.39301">
        <ele>386.8</ele>
        <time>2022-09-28T10:28:10Z</time>
      </trkpt>
      <trkpt lat="46.46782" lon="6.39305">
        <ele>386.9</ele>
        <time>2022-09-28T10:28:11Z</time>
      </trkpt>
      <trkpt lat="46.46784" lon="6.39308">
        <ele>387</ele>
        <time>2022-09-28T10:28:12Z</time>
      </trkpt>
      <trkpt lat="46.46786" lon="6.39312">
        <ele>387.1</ele>
        <time>2022-09-28T10:28:13Z</time>
      </trkpt>
      <trkpt lat="46.46788" lon="6.39316">
        <ele>387.2</ele>
        <time>2022-09-28T10:28:14Z</time>
      </trkpt>
      <trkpt lat="46.4679" lon="6.39321">
        <ele>387.2</ele>
        <time>2022-09-28T10:28:15Z</time>
      </trkpt>
      <trkpt lat="46.46792" lon="6.39324">
        <ele>387.3</ele>
        <time>2022-09-28T10:28:16Z</time>
      </trkpt>
      <trkpt lat="46.46795" lon="6.39328">
        <ele>387.4</ele>
        <time>2022-09-28T10:28:17Z</time>
      </trkpt>
      <trkpt lat="46.46798" lon="6.39332">
        <ele>387.5</ele>
        <time>2022-09-28T10:28:18Z</time>
      </trkpt>
      <trkpt lat="46.46802" lon="6.3934">
        <ele>387.6</ele>
        <time>2022-09-28T10:28:19Z</time>
      </trkpt>
      <trkpt lat="46.46804" lon="6.39343">
        <ele>387.7</ele>
        <time>2022-09-28T10:28:20Z</time>
      </trkpt>
      <trkpt lat="46.46806" lon="6.39347">
        <ele>387.8</ele>
        <time>2022-09-28T10:28:21Z</time>
      </trkpt>
      <trkpt lat="46.46809" lon="6.39351">
        <ele>387.9</ele>
        <time>2022-09-28T10:28:22Z</time>
      </trkpt>
      <trkpt lat="46.46811" lon="6.39355">
        <ele>388</ele>
        <time>2022-09-28T10:28:23Z</time>
      </trkpt>
      <trkpt lat="46.46813" lon="6.39359">
        <ele>388.1</ele>
        <time>2022-09-28T10:28:24Z</time>
      </trkpt>
      <trkpt lat="46.46815" lon="6.39363">
        <ele>388.2</ele>
        <time>2022-09-28T10:28:25Z</time>
      </trkpt>
      <trkpt lat="46.46817" lon="6.39367">
        <ele>388.3</ele>
        <time>2022-09-28T10:28:26Z</time>
      </trkpt>
      <trkpt lat="46.46819" lon="6.3937">
        <ele>388.4</ele>
        <time>2022-09-28T10:28:27Z</time>
      </trkpt>
      <trkpt lat="46.46822" lon="6.39374">
        <ele>388.4</ele>
        <time>2022-09-28T10:28:28Z</time>
      </trkpt>
      <trkpt lat="46.46824" lon="6.39377">
        <ele>388.5</ele>
        <time>2022-09-28T10:28:29Z</time>
      </trkpt>
      <trkpt lat="46.46826" lon="6.39382">
        <ele>388.6</ele>
        <time>2022-09-28T10:28:30Z</time>
      </trkpt>
      <trkpt lat="46.46828" lon="6.39386">
        <ele>388.7</ele>
        <time>2022-09-28T10:28:31Z</time>
      </trkpt>
      <trkpt lat="46.46831" lon="6.3939">
        <ele>388.8</ele>
        <time>2022-09-28T10:28:32Z</time>
      </trkpt>
      <trkpt lat="46.46833" lon="6.39395">
        <ele>388.9</ele>
        <time>2022-09-28T10:28:33Z</time>
      </trkpt>
      <trkpt lat="46.46835" lon="6.39398">
        <ele>389</ele>
        <time>2022-09-28T10:28:34Z</time>
      </trkpt>
      <trkpt lat="46.46837" lon="6.39402">
        <ele>389.1</ele>
        <time>2022-09-28T10:28:35Z</time>
      </trkpt>
      <trkpt lat="46.46838" lon="6.39407">
        <ele>389.2</ele>
        <time>2022-09-28T10:28:36Z</time>
      </trkpt>
      <trkpt lat="46.4684" lon="6.39411">
        <ele>389.3</ele>
        <time>2022-09-28T10:28:37Z</time>
      </trkpt>
      <trkpt lat="46.46842" lon="6.39415">
        <ele>389.3</ele>
        <time>2022-09-28T10:28:38Z</time>
      </trkpt>
      <trkpt lat="46.46844" lon="6.39419">
        <ele>389.4</ele>
        <time>2022-09-28T10:28:39Z</time>
      </trkpt>
      <trkpt lat="46.46846" lon="6.39423">
        <ele>389.5</ele>
        <time>2022-09-28T10:28:40Z</time>
      </trkpt>
      <trkpt lat="46.46847" lon="6.39428">
        <ele>389.6</ele>
        <time>2022-09-28T10:28:41Z</time>
      </trkpt>
      <trkpt lat="46.46848" lon="6.39432">
        <ele>389.7</ele>
        <time>2022-09-28T10:28:42Z</time>
      </trkpt>
      <trkpt lat="46.46849" lon="6.39437">
        <ele>389.8</ele>
        <time>2022-09-28T10:28:43Z</time>
      </trkpt>
      <trkpt lat="46.4685" lon="6.39441">
        <ele>390</ele>
        <time>2022-09-28T10:28:44Z</time>
      </trkpt>
      <trkpt lat="46.46851" lon="6.39446">
        <ele>390.1</ele>
        <time>2022-09-28T10:28:45Z</time>
      </trkpt>
      <trkpt lat="46.46852" lon="6.3945">
        <ele>390.2</ele>
        <time>2022-09-28T10:28:46Z</time>
      </trkpt>
      <trkpt lat="46.46853" lon="6.39456">
        <ele>390.3</ele>
        <time>2022-09-28T10:28:47Z</time>
      </trkpt>
      <trkpt lat="46.46854" lon="6.39458">
        <ele>390.4</ele>
        <time>2022-09-28T10:28:48Z</time>
      </trkpt>
      <trkpt lat="46.46854" lon="6.39463">
        <ele>390.5</ele>
        <time>2022-09-28T10:28:49Z</time>
      </trkpt>
      <trkpt lat="46.46855" lon="6.39468">
        <ele>390.6</ele>
        <time>2022-09-28T10:28:50Z</time>
      </trkpt>
      <trkpt lat="46.46855" lon="6.3947">
        <ele>390.7</ele>
        <time>2022-09-28T10:28:51Z</time>
      </trkpt>
      <trkpt lat="46.46855" lon="6.39474">
        <ele>390.8</ele>
        <time>2022-09-28T10:28:52Z</time>
      </trkpt>
      <trkpt lat="46.46854" lon="6.3948">
        <ele>390.9</ele>
        <time>2022-09-28T10:28:53Z</time>
      </trkpt>
      <trkpt lat="46.46854" lon="6.39482">
        <ele>390.9</ele>
        <time>2022-09-28T10:28:54Z</time>
      </trkpt>
      <trkpt lat="46.46854" lon="6.39487">
        <ele>391.1</ele>
        <time>2022-09-28T10:28:55Z</time>
      </trkpt>
      <trkpt lat="46.46854" lon="6.39489">
        <ele>391.1</ele>
        <time>2022-09-28T10:28:56Z</time>
      </trkpt>
      <trkpt lat="46.46853" lon="6.39494">
        <ele>391.3</ele>
        <time>2022-09-28T10:28:57Z</time>
      </trkpt>
      <trkpt lat="46.46853" lon="6.39495">
        <ele>391.3</ele>
        <time>2022-09-28T10:28:58Z</time>
      </trkpt>
      <trkpt lat="46.46853" lon="6.395">
        <ele>391.4</ele>
        <time>2022-09-28T10:28:59Z</time>
      </trkpt>
      <trkpt lat="46.46853" lon="6.39505">
        <ele>391.6</ele>
        <time>2022-09-28T10:29:00Z</time>
      </trkpt>
      <trkpt lat="46.46853" lon="6.39506">
        <ele>391.6</ele>
        <time>2022-09-28T10:29:01Z</time>
      </trkpt>
      <trkpt lat="46.46852" lon="6.3951">
        <ele>391.7</ele>
        <time>2022-09-28T10:29:02Z</time>
      </trkpt>
      <trkpt lat="46.46851" lon="6.39513">
        <ele>391.8</ele>
        <time>2022-09-28T10:29:03Z</time>
      </trkpt>
      <trkpt lat="46.46851" lon="6.39515">
        <ele>391.9</ele>
        <time>2022-09-28T10:29:04Z</time>
      </trkpt>
      <trkpt lat="46.46852" lon="6.39519">
        <ele>392</ele>
        <time>2022-09-28T10:29:05Z</time>
      </trkpt>
      <trkpt lat="46.46852" lon="6.39521">
        <ele>392</ele>
        <time>2022-09-28T10:29:06Z</time>
      </trkpt>
      <trkpt lat="46.46851" lon="6.39525">
        <ele>392.1</ele>
        <time>2022-09-28T10:29:07Z</time>
      </trkpt>
      <trkpt lat="46.46851" lon="6.39529">
        <ele>392.3</ele>
        <time>2022-09-28T10:29:08Z</time>
      </trkpt>
      <trkpt lat="46.46851" lon="6.39531">
        <ele>392.3</ele>
        <time>2022-09-28T10:29:09Z</time>
      </trkpt>
      <trkpt lat="46.46852" lon="6.39535">
        <ele>392.4</ele>
        <time>2022-09-28T10:29:10Z</time>
      </trkpt>
      <trkpt lat="46.46852" lon="6.39537">
        <ele>392.4</ele>
        <time>2022-09-28T10:29:11Z</time>
      </trkpt>
      <trkpt lat="46.46853" lon="6.39541">
        <ele>392.5</ele>
        <time>2022-09-28T10:29:12Z</time>
      </trkpt>
      <trkpt lat="46.46853" lon="6.39543">
        <ele>392.6</ele>
        <time>2022-09-28T10:29:13Z</time>
      </trkpt>
      <trkpt lat="46.46853" lon="6.39548">
        <ele>392.7</ele>
        <time>2022-09-28T10:29:14Z</time>
      </trkpt>
      <trkpt lat="46.46854" lon="6.39553">
        <ele>392.8</ele>
        <time>2022-09-28T10:29:15Z</time>
      </trkpt>
      <trkpt lat="46.46855" lon="6.39554">
        <ele>392.9</ele>
        <time>2022-09-28T10:29:16Z</time>
      </trkpt>
      <trkpt lat="46.46856" lon="6.39559">
        <ele>393</ele>
        <time>2022-09-28T10:29:17Z</time>
      </trkpt>
      <trkpt lat="46.46856" lon="6.39561">
        <ele>393.1</ele>
        <time>2022-09-28T10:29:18Z</time>
      </trkpt>
      <trkpt lat="46.46857" lon="6.39565">
        <ele>393.2</ele>
        <time>2022-09-28T10:29:19Z</time>
      </trkpt>
      <trkpt lat="46.46858" lon="6.39569">
        <ele>393.3</ele>
        <time>2022-09-28T10:29:20Z</time>
      </trkpt>
      <trkpt lat="46.4686" lon="6.39572">
        <ele>393.4</ele>
        <time>2022-09-28T10:29:21Z</time>
      </trkpt>
      <trkpt lat="46.46862" lon="6.39576">
        <ele>393.6</ele>
        <time>2022-09-28T10:29:22Z</time>
      </trkpt>
      <trkpt lat="46.46864" lon="6.39578">
        <ele>393.7</ele>
        <time>2022-09-28T10:29:23Z</time>
      </trkpt>
      <trkpt lat="46.46866" lon="6.39581">
        <ele>394.1</ele>
        <time>2022-09-28T10:29:24Z</time>
      </trkpt>
      <trkpt lat="46.46869" lon="6.39583">
        <ele>394.4</ele>
        <time>2022-09-28T10:29:25Z</time>
      </trkpt>
      <trkpt lat="46.46872" lon="6.39584">
        <ele>394.6</ele>
        <time>2022-09-28T10:29:26Z</time>
      </trkpt>
      <trkpt lat="46.46873" lon="6.39585">
        <ele>394.7</ele>
        <time>2022-09-28T10:29:27Z</time>
      </trkpt>
      <trkpt lat="46.46875" lon="6.39586">
        <ele>395</ele>
        <time>2022-09-28T10:29:28Z</time>
      </trkpt>
      <trkpt lat="46.46876" lon="6.39587">
        <ele>395</ele>
        <time>2022-09-28T10:29:29Z</time>
      </trkpt>
      <trkpt lat="46.46878" lon="6.39588">
        <ele>395.2</ele>
        <time>2022-09-28T10:29:30Z</time>
      </trkpt>
      <trkpt lat="46.46879" lon="6.39589">
        <ele>395.3</ele>
        <time>2022-09-28T10:29:31Z</time>
      </trkpt>
      <trkpt lat="46.4688" lon="6.39591">
        <ele>395.4</ele>
        <time>2022-09-28T10:29:32Z</time>
      </trkpt>
      <trkpt lat="46.46881" lon="6.39592">
        <ele>395.6</ele>
        <time>2022-09-28T10:29:33Z</time>
      </trkpt>
      <trkpt lat="46.46883" lon="6.39593">
        <ele>395.8</ele>
        <time>2022-09-28T10:29:34Z</time>
      </trkpt>
      <trkpt lat="46.46884" lon="6.39593">
        <ele>395.9</ele>
        <time>2022-09-28T10:29:35Z</time>
      </trkpt>
      <trkpt lat="46.46885" lon="6.39593">
        <ele>395.9</ele>
        <time>2022-09-28T10:29:36Z</time>
      </trkpt>
      <trkpt lat="46.46888" lon="6.39594">
        <ele>396.2</ele>
        <time>2022-09-28T10:29:37Z</time>
      </trkpt>
      <trkpt lat="46.46889" lon="6.39594">
        <ele>396.3</ele>
        <time>2022-09-28T10:29:38Z</time>
      </trkpt>
      <trkpt lat="46.46891" lon="6.39596">
        <ele>396.5</ele>
        <time>2022-09-28T10:29:39Z</time>
      </trkpt>
      <trkpt lat="46.46892" lon="6.39597">
        <ele>396.6</ele>
        <time>2022-09-28T10:29:40Z</time>
      </trkpt>
      <trkpt lat="46.46895" lon="6.39598">
        <ele>396.9</ele>
        <time>2022-09-28T10:29:41Z</time>
      </trkpt>
      <trkpt lat="46.46896" lon="6.39599">
        <ele>396.9</ele>
        <time>2022-09-28T10:29:42Z</time>
      </trkpt>
      <trkpt lat="46.46897" lon="6.396">
        <ele>397.1</ele>
        <time>2022-09-28T10:29:43Z</time>
      </trkpt>
      <trkpt lat="46.46898" lon="6.39601">
        <ele>397.2</ele>
        <time>2022-09-28T10:29:44Z</time>
      </trkpt>
      <trkpt lat="46.46901" lon="6.39603">
        <ele>397.5</ele>
        <time>2022-09-28T10:29:45Z</time>
      </trkpt>
      <trkpt lat="46.46902" lon="6.39603">
        <ele>397.5</ele>
        <time>2022-09-28T10:29:46Z</time>
      </trkpt>
      <trkpt lat="46.46904" lon="6.39603">
        <ele>397.7</ele>
        <time>2022-09-28T10:29:47Z</time>
      </trkpt>
      <trkpt lat="46.46906" lon="6.39603">
        <ele>397.8</ele>
        <time>2022-09-28T10:29:48Z</time>
      </trkpt>
      <trkpt lat="46.46907" lon="6.39604">
        <ele>397.9</ele>
        <time>2022-09-28T10:29:49Z</time>
      </trkpt>
      <trkpt lat="46.46909" lon="6.39605">
        <ele>398.1</ele>
        <time>2022-09-28T10:29:50Z</time>
      </trkpt>
      <trkpt lat="46.46912" lon="6.39606">
        <ele>398.3</ele>
        <time>2022-09-28T10:29:52Z</time>
      </trkpt>
      <trkpt lat="46.46913" lon="6.39607">
        <ele>398.3</ele>
        <time>2022-09-28T10:29:53Z</time>
      </trkpt>
      <trkpt lat="46.46914" lon="6.39607">
        <ele>398.4</ele>
        <time>2022-09-28T10:29:54Z</time>
      </trkpt>
      <trkpt lat="46.46916" lon="6.39607">
        <ele>398.5</ele>
        <time>2022-09-28T10:29:55Z</time>
      </trkpt>
      <trkpt lat="46.46917" lon="6.39608">
        <ele>398.6</ele>
        <time>2022-09-28T10:29:56Z</time>
      </trkpt>
      <trkpt lat="46.46919" lon="6.39609">
        <ele>398.7</ele>
        <time>2022-09-28T10:29:57Z</time>
      </trkpt>
      <trkpt lat="46.4692" lon="6.3961">
        <ele>398.8</ele>
        <time>2022-09-28T10:29:58Z</time>
      </trkpt>
      <trkpt lat="46.46922" lon="6.3961">
        <ele>398.9</ele>
        <time>2022-09-28T10:29:59Z</time>
      </trkpt>
      <trkpt lat="46.46925" lon="6.39611">
        <ele>399.1</ele>
        <time>2022-09-28T10:30:00Z</time>
      </trkpt>
      <trkpt lat="46.46926" lon="6.39612">
        <ele>399.1</ele>
        <time>2022-09-28T10:30:01Z</time>
      </trkpt>
      <trkpt lat="46.46928" lon="6.39613">
        <ele>399.2</ele>
        <time>2022-09-28T10:30:02Z</time>
      </trkpt>
      <trkpt lat="46.46929" lon="6.39613">
        <ele>399.3</ele>
        <time>2022-09-28T10:30:03Z</time>
      </trkpt>
      <trkpt lat="46.46932" lon="6.39614">
        <ele>399.5</ele>
        <time>2022-09-28T10:30:04Z</time>
      </trkpt>
      <trkpt lat="46.46933" lon="6.39614">
        <ele>399.5</ele>
        <time>2022-09-28T10:30:05Z</time>
      </trkpt>
      <trkpt lat="46.46935" lon="6.39615">
        <ele>399.6</ele>
        <time>2022-09-28T10:30:06Z</time>
      </trkpt>
      <trkpt lat="46.46936" lon="6.39616">
        <ele>399.7</ele>
        <time>2022-09-28T10:30:07Z</time>
      </trkpt>
      <trkpt lat="46.46939" lon="6.39617">
        <ele>399.8</ele>
        <time>2022-09-28T10:30:08Z</time>
      </trkpt>
      <trkpt lat="46.4694" lon="6.39617">
        <ele>399.9</ele>
        <time>2022-09-28T10:30:09Z</time>
      </trkpt>
      <trkpt lat="46.46942" lon="6.3962">
        <ele>400</ele>
        <time>2022-09-28T10:30:10Z</time>
      </trkpt>
      <trkpt lat="46.46943" lon="6.3962">
        <ele>400.1</ele>
        <time>2022-09-28T10:30:11Z</time>
      </trkpt>
      <trkpt lat="46.46946" lon="6.39621">
        <ele>400.2</ele>
        <time>2022-09-28T10:30:12Z</time>
      </trkpt>
      <trkpt lat="46.46947" lon="6.39621">
        <ele>400.3</ele>
        <time>2022-09-28T10:30:13Z</time>
      </trkpt>
      <trkpt lat="46.46949" lon="6.39622">
        <ele>400.4</ele>
        <time>2022-09-28T10:30:14Z</time>
      </trkpt>
      <trkpt lat="46.4695" lon="6.39623">
        <ele>400.5</ele>
        <time>2022-09-28T10:30:15Z</time>
      </trkpt>
      <trkpt lat="46.46953" lon="6.39625">
        <ele>400.6</ele>
        <time>2022-09-28T10:30:16Z</time>
      </trkpt>
      <trkpt lat="46.46954" lon="6.39626">
        <ele>400.7</ele>
        <time>2022-09-28T10:30:17Z</time>
      </trkpt>
      <trkpt lat="46.46957" lon="6.39627">
        <ele>400.8</ele>
        <time>2022-09-28T10:30:18Z</time>
      </trkpt>
      <trkpt lat="46.46957" lon="6.39627">
        <ele>400.9</ele>
        <time>2022-09-28T10:30:19Z</time>
      </trkpt>
      <trkpt lat="46.4696" lon="6.3963">
        <ele>401.1</ele>
        <time>2022-09-28T10:30:20Z</time>
      </trkpt>
      <trkpt lat="46.46961" lon="6.39631">
        <ele>401.1</ele>
        <time>2022-09-28T10:30:21Z</time>
      </trkpt>
      <trkpt lat="46.46963" lon="6.39633">
        <ele>401.2</ele>
        <time>2022-09-28T10:30:22Z</time>
      </trkpt>
      <trkpt lat="46.46963" lon="6.39635">
        <ele>401.2</ele>
        <time>2022-09-28T10:30:23Z</time>
      </trkpt>
      <trkpt lat="46.46964" lon="6.39639">
        <ele>401.3</ele>
        <time>2022-09-28T10:30:24Z</time>
      </trkpt>
      <trkpt lat="46.46965" lon="6.3964">
        <ele>401.3</ele>
        <time>2022-09-28T10:30:25Z</time>
      </trkpt>
      <trkpt lat="46.46965" lon="6.39645">
        <ele>401.4</ele>
        <time>2022-09-28T10:30:26Z</time>
      </trkpt>
      <trkpt lat="46.46966" lon="6.39649">
        <ele>401.5</ele>
        <time>2022-09-28T10:30:27Z</time>
      </trkpt>
      <trkpt lat="46.46966" lon="6.39651">
        <ele>401.5</ele>
        <time>2022-09-28T10:30:28Z</time>
      </trkpt>
      <trkpt lat="46.46967" lon="6.39656">
        <ele>401.6</ele>
        <time>2022-09-28T10:30:29Z</time>
      </trkpt>
      <trkpt lat="46.46967" lon="6.39658">
        <ele>401.6</ele>
        <time>2022-09-28T10:30:30Z</time>
      </trkpt>
      <trkpt lat="46.46967" lon="6.39662">
        <ele>401.7</ele>
        <time>2022-09-28T10:30:31Z</time>
      </trkpt>
      <trkpt lat="46.46967" lon="6.39667">
        <ele>401.8</ele>
        <time>2022-09-28T10:30:32Z</time>
      </trkpt>
      <trkpt lat="46.46969" lon="6.3967">
        <ele>401.8</ele>
        <time>2022-09-28T10:30:33Z</time>
      </trkpt>
      <trkpt lat="46.46971" lon="6.39675">
        <ele>401.9</ele>
        <time>2022-09-28T10:30:34Z</time>
      </trkpt>
      <trkpt lat="46.46971" lon="6.39677">
        <ele>402</ele>
        <time>2022-09-28T10:30:35Z</time>
      </trkpt>
      <trkpt lat="46.46972" lon="6.39682">
        <ele>402</ele>
        <time>2022-09-28T10:30:36Z</time>
      </trkpt>
      <trkpt lat="46.46973" lon="6.39686">
        <ele>402.1</ele>
        <time>2022-09-28T10:30:37Z</time>
      </trkpt>
      <trkpt lat="46.46974" lon="6.3969">
        <ele>402.2</ele>
        <time>2022-09-28T10:30:38Z</time>
      </trkpt>
      <trkpt lat="46.46975" lon="6.39695">
        <ele>402.2</ele>
        <time>2022-09-28T10:30:39Z</time>
      </trkpt>
      <trkpt lat="46.46975" lon="6.397">
        <ele>402.3</ele>
        <time>2022-09-28T10:30:40Z</time>
      </trkpt>
      <trkpt lat="46.46977" lon="6.39703">
        <ele>402.4</ele>
        <time>2022-09-28T10:30:41Z</time>
      </trkpt>
      <trkpt lat="46.46977" lon="6.39707">
        <ele>402.5</ele>
        <time>2022-09-28T10:30:42Z</time>
      </trkpt>
      <trkpt lat="46.46978" lon="6.39713">
        <ele>402.6</ele>
        <time>2022-09-28T10:30:43Z</time>
      </trkpt>
      <trkpt lat="46.46978" lon="6.39716">
        <ele>402.6</ele>
        <time>2022-09-28T10:30:44Z</time>
      </trkpt>
      <trkpt lat="46.46978" lon="6.3972">
        <ele>402.7</ele>
        <time>2022-09-28T10:30:45Z</time>
      </trkpt>
      <trkpt lat="46.46978" lon="6.39724">
        <ele>402.8</ele>
        <time>2022-09-28T10:30:46Z</time>
      </trkpt>
      <trkpt lat="46.46979" lon="6.39729">
        <ele>402.8</ele>
        <time>2022-09-28T10:30:47Z</time>
      </trkpt>
      <trkpt lat="46.46979" lon="6.39733">
        <ele>402.9</ele>
        <time>2022-09-28T10:30:48Z</time>
      </trkpt>
      <trkpt lat="46.46978" lon="6.39738">
        <ele>403</ele>
        <time>2022-09-28T10:30:49Z</time>
      </trkpt>
      <trkpt lat="46.46978" lon="6.39743">
        <ele>403</ele>
        <time>2022-09-28T10:30:50Z</time>
      </trkpt>
      <trkpt lat="46.46977" lon="6.39747">
        <ele>403.1</ele>
        <time>2022-09-28T10:30:51Z</time>
      </trkpt>
      <trkpt lat="46.46976" lon="6.39752">
        <ele>403.1</ele>
        <time>2022-09-28T10:30:52Z</time>
      </trkpt>
      <trkpt lat="46.46976" lon="6.39757">
        <ele>403.2</ele>
        <time>2022-09-28T10:30:53Z</time>
      </trkpt>
      <trkpt lat="46.46976" lon="6.39761">
        <ele>403.3</ele>
        <time>2022-09-28T10:30:54Z</time>
      </trkpt>
      <trkpt lat="46.46975" lon="6.39766">
        <ele>403.3</ele>
        <time>2022-09-28T10:30:55Z</time>
      </trkpt>
      <trkpt lat="46.46974" lon="6.3977">
        <ele>403.4</ele>
        <time>2022-09-28T10:30:56Z</time>
      </trkpt>
      <trkpt lat="46.46973" lon="6.39775">
        <ele>403.5</ele>
        <time>2022-09-28T10:30:57Z</time>
      </trkpt>
      <trkpt lat="46.46972" lon="6.39779">
        <ele>403.5</ele>
        <time>2022-09-28T10:30:58Z</time>
      </trkpt>
      <trkpt lat="46.46971" lon="6.39784">
        <ele>403.6</ele>
        <time>2022-09-28T10:30:59Z</time>
      </trkpt>
      <trkpt lat="46.46971" lon="6.39788">
        <ele>403.6</ele>
        <time>2022-09-28T10:31:00Z</time>
      </trkpt>
      <trkpt lat="46.4697" lon="6.39793">
        <ele>403.7</ele>
        <time>2022-09-28T10:31:01Z</time>
      </trkpt>
      <trkpt lat="46.46969" lon="6.39797">
        <ele>403.7</ele>
        <time>2022-09-28T10:31:02Z</time>
      </trkpt>
      <trkpt lat="46.46967" lon="6.39801">
        <ele>403.8</ele>
        <time>2022-09-28T10:31:03Z</time>
      </trkpt>
      <trkpt lat="46.46965" lon="6.39805">
        <ele>403.8</ele>
        <time>2022-09-28T10:31:04Z</time>
      </trkpt>
      <trkpt lat="46.46964" lon="6.39811">
        <ele>403.9</ele>
        <time>2022-09-28T10:31:05Z</time>
      </trkpt>
      <trkpt lat="46.46963" lon="6.39816">
        <ele>404</ele>
        <time>2022-09-28T10:31:06Z</time>
      </trkpt>
      <trkpt lat="46.46961" lon="6.39821">
        <ele>404</ele>
        <time>2022-09-28T10:31:07Z</time>
      </trkpt>
      <trkpt lat="46.4696" lon="6.39826">
        <ele>404.1</ele>
        <time>2022-09-28T10:31:08Z</time>
      </trkpt>
      <trkpt lat="46.46959" lon="6.39831">
        <ele>404.1</ele>
        <time>2022-09-28T10:31:09Z</time>
      </trkpt>
      <trkpt lat="46.46958" lon="6.39836">
        <ele>404.2</ele>
        <time>2022-09-28T10:31:10Z</time>
      </trkpt>
      <trkpt lat="46.46956" lon="6.39842">
        <ele>404.2</ele>
        <time>2022-09-28T10:31:11Z</time>
      </trkpt>
      <trkpt lat="46.46955" lon="6.39847">
        <ele>404.3</ele>
        <time>2022-09-28T10:31:12Z</time>
      </trkpt>
      <trkpt lat="46.46953" lon="6.39852">
        <ele>404.3</ele>
        <time>2022-09-28T10:31:13Z</time>
      </trkpt>
      <trkpt lat="46.4695" lon="6.39862">
        <ele>404.3</ele>
        <time>2022-09-28T10:31:14Z</time>
      </trkpt>
      <trkpt lat="46.46948" lon="6.39867">
        <ele>404.3</ele>
        <time>2022-09-28T10:31:15Z</time>
      </trkpt>
      <trkpt lat="46.46946" lon="6.39873">
        <ele>404.3</ele>
        <time>2022-09-28T10:31:16Z</time>
      </trkpt>
      <trkpt lat="46.46944" lon="6.39879">
        <ele>404.3</ele>
        <time>2022-09-28T10:31:17Z</time>
      </trkpt>
      <trkpt lat="46.46942" lon="6.39884">
        <ele>404.3</ele>
        <time>2022-09-28T10:31:18Z</time>
      </trkpt>
      <trkpt lat="46.4694" lon="6.39889">
        <ele>404.3</ele>
        <time>2022-09-28T10:31:19Z</time>
      </trkpt>
      <trkpt lat="46.46938" lon="6.39895">
        <ele>404.2</ele>
        <time>2022-09-28T10:31:20Z</time>
      </trkpt>
      <trkpt lat="46.46936" lon="6.399">
        <ele>404.2</ele>
        <time>2022-09-28T10:31:21Z</time>
      </trkpt>
      <trkpt lat="46.46934" lon="6.39905">
        <ele>404.2</ele>
        <time>2022-09-28T10:31:22Z</time>
      </trkpt>
      <trkpt lat="46.46932" lon="6.39911">
        <ele>404.2</ele>
        <time>2022-09-28T10:31:23Z</time>
      </trkpt>
      <trkpt lat="46.4693" lon="6.39916">
        <ele>404.2</ele>
        <time>2022-09-28T10:31:24Z</time>
      </trkpt>
      <trkpt lat="46.46928" lon="6.39922">
        <ele>404.2</ele>
        <time>2022-09-28T10:31:25Z</time>
      </trkpt>
      <trkpt lat="46.46927" lon="6.39927">
        <ele>404.2</ele>
        <time>2022-09-28T10:31:26Z</time>
      </trkpt>
      <trkpt lat="46.46924" lon="6.39933">
        <ele>404.2</ele>
        <time>2022-09-28T10:31:27Z</time>
      </trkpt>
      <trkpt lat="46.46922" lon="6.39939">
        <ele>404.2</ele>
        <time>2022-09-28T10:31:28Z</time>
      </trkpt>
      <trkpt lat="46.46921" lon="6.39945">
        <ele>404.2</ele>
        <time>2022-09-28T10:31:29Z</time>
      </trkpt>
      <trkpt lat="46.46918" lon="6.39951">
        <ele>404.1</ele>
        <time>2022-09-28T10:31:30Z</time>
      </trkpt>
      <trkpt lat="46.46916" lon="6.39958">
        <ele>404.1</ele>
        <time>2022-09-28T10:31:31Z</time>
      </trkpt>
      <trkpt lat="46.46914" lon="6.39965">
        <ele>404</ele>
        <time>2022-09-28T10:31:32Z</time>
      </trkpt>
      <trkpt lat="46.46912" lon="6.39971">
        <ele>404</ele>
        <time>2022-09-28T10:31:33Z</time>
      </trkpt>
      <trkpt lat="46.46911" lon="6.39977">
        <ele>403.9</ele>
        <time>2022-09-28T10:31:34Z</time>
      </trkpt>
      <trkpt lat="46.46909" lon="6.39985">
        <ele>403.8</ele>
        <time>2022-09-28T10:31:35Z</time>
      </trkpt>
      <trkpt lat="46.46907" lon="6.39993">
        <ele>403.7</ele>
        <time>2022-09-28T10:31:36Z</time>
      </trkpt>
      <trkpt lat="46.46906" lon="6.40001">
        <ele>403.7</ele>
        <time>2022-09-28T10:31:37Z</time>
      </trkpt>
      <trkpt lat="46.46904" lon="6.4001">
        <ele>403.5</ele>
        <time>2022-09-28T10:31:38Z</time>
      </trkpt>
      <trkpt lat="46.46904" lon="6.40018">
        <ele>403.3</ele>
        <time>2022-09-28T10:31:39Z</time>
      </trkpt>
      <trkpt lat="46.46904" lon="6.40026">
        <ele>403.1</ele>
        <time>2022-09-28T10:31:40Z</time>
      </trkpt>
      <trkpt lat="46.46904" lon="6.40035">
        <ele>402.8</ele>
        <time>2022-09-28T10:31:41Z</time>
      </trkpt>
      <trkpt lat="46.46904" lon="6.40045">
        <ele>402.5</ele>
        <time>2022-09-28T10:31:42Z</time>
      </trkpt>
      <trkpt lat="46.46905" lon="6.40056">
        <ele>402.1</ele>
        <time>2022-09-28T10:31:43Z</time>
      </trkpt>
      <trkpt lat="46.46906" lon="6.40066">
        <ele>401.7</ele>
        <time>2022-09-28T10:31:44Z</time>
      </trkpt>
      <trkpt lat="46.46909" lon="6.40075">
        <ele>401.4</ele>
        <time>2022-09-28T10:31:45Z</time>
      </trkpt>
      <trkpt lat="46.46911" lon="6.40085">
        <ele>401</ele>
        <time>2022-09-28T10:31:46Z</time>
      </trkpt>
      <trkpt lat="46.46914" lon="6.40095">
        <ele>400.6</ele>
        <time>2022-09-28T10:31:47Z</time>
      </trkpt>
      <trkpt lat="46.46917" lon="6.40105">
        <ele>400.1</ele>
        <time>2022-09-28T10:31:48Z</time>
      </trkpt>
      <trkpt lat="46.46921" lon="6.40114">
        <ele>399.7</ele>
        <time>2022-09-28T10:31:49Z</time>
      </trkpt>
      <trkpt lat="46.46926" lon="6.40123">
        <ele>399.3</ele>
        <time>2022-09-28T10:31:50Z</time>
      </trkpt>
      <trkpt lat="46.4693" lon="6.40131">
        <ele>398.8</ele>
        <time>2022-09-28T10:31:51Z</time>
      </trkpt>
      <trkpt lat="46.46935" lon="6.4014">
        <ele>398.4</ele>
        <time>2022-09-28T10:31:52Z</time>
      </trkpt>
      <trkpt lat="46.46941" lon="6.40148">
        <ele>398</ele>
        <time>2022-09-28T10:31:53Z</time>
      </trkpt>
      <trkpt lat="46.46947" lon="6.40157">
        <ele>397.5</ele>
        <time>2022-09-28T10:31:54Z</time>
      </trkpt>
      <trkpt lat="46.46952" lon="6.40165">
        <ele>397.1</ele>
        <time>2022-09-28T10:31:55Z</time>
      </trkpt>
      <trkpt lat="46.46957" lon="6.40173">
        <ele>396.8</ele>
        <time>2022-09-28T10:31:56Z</time>
      </trkpt>
      <trkpt lat="46.46962" lon="6.4018">
        <ele>396.6</ele>
        <time>2022-09-28T10:31:58Z</time>
      </trkpt>
      <trkpt lat="46.46967" lon="6.40188">
        <ele>396.4</ele>
        <time>2022-09-28T10:31:59Z</time>
      </trkpt>
      <trkpt lat="46.46972" lon="6.40194">
        <ele>396.3</ele>
        <time>2022-09-28T10:32:00Z</time>
      </trkpt>
      <trkpt lat="46.46977" lon="6.402">
        <ele>396.1</ele>
        <time>2022-09-28T10:32:01Z</time>
      </trkpt>
      <trkpt lat="46.46982" lon="6.40205">
        <ele>395.9</ele>
        <time>2022-09-28T10:32:02Z</time>
      </trkpt>
      <trkpt lat="46.46987" lon="6.40212">
        <ele>395.7</ele>
        <time>2022-09-28T10:32:03Z</time>
      </trkpt>
      <trkpt lat="46.46992" lon="6.40218">
        <ele>395.5</ele>
        <time>2022-09-28T10:32:04Z</time>
      </trkpt>
      <trkpt lat="46.46998" lon="6.40224">
        <ele>395.3</ele>
        <time>2022-09-28T10:32:05Z</time>
      </trkpt>
      <trkpt lat="46.47003" lon="6.40229">
        <ele>395.1</ele>
        <time>2022-09-28T10:32:06Z</time>
      </trkpt>
      <trkpt lat="46.47008" lon="6.40235">
        <ele>395</ele>
        <time>2022-09-28T10:32:07Z</time>
      </trkpt>
      <trkpt lat="46.47014" lon="6.40241">
        <ele>394.8</ele>
        <time>2022-09-28T10:32:08Z</time>
      </trkpt>
      <trkpt lat="46.47019" lon="6.40246">
        <ele>394.7</ele>
        <time>2022-09-28T10:32:09Z</time>
      </trkpt>
      <trkpt lat="46.47025" lon="6.40252">
        <ele>394.6</ele>
        <time>2022-09-28T10:32:10Z</time>
      </trkpt>
      <trkpt lat="46.4703" lon="6.40257">
        <ele>394.5</ele>
        <time>2022-09-28T10:32:11Z</time>
      </trkpt>
      <trkpt lat="46.47035" lon="6.40262">
        <ele>394.4</ele>
        <time>2022-09-28T10:32:12Z</time>
      </trkpt>
      <trkpt lat="46.47041" lon="6.40267">
        <ele>394.4</ele>
        <time>2022-09-28T10:32:13Z</time>
      </trkpt>
      <trkpt lat="46.47047" lon="6.40273">
        <ele>394.3</ele>
        <time>2022-09-28T10:32:14Z</time>
      </trkpt>
      <trkpt lat="46.47052" lon="6.40278">
        <ele>394.2</ele>
        <time>2022-09-28T10:32:15Z</time>
      </trkpt>
      <trkpt lat="46.47058" lon="6.40283">
        <ele>394.2</ele>
        <time>2022-09-28T10:32:16Z</time>
      </trkpt>
      <trkpt lat="46.47064" lon="6.40288">
        <ele>394.2</ele>
        <time>2022-09-28T10:32:17Z</time>
      </trkpt>
      <trkpt lat="46.47069" lon="6.40293">
        <ele>394.2</ele>
        <time>2022-09-28T10:32:18Z</time>
      </trkpt>
      <trkpt lat="46.47074" lon="6.40298">
        <ele>394.2</ele>
        <time>2022-09-28T10:32:19Z</time>
      </trkpt>
      <trkpt lat="46.47079" lon="6.40302">
        <ele>394.2</ele>
        <time>2022-09-28T10:32:20Z</time>
      </trkpt>
      <trkpt lat="46.47085" lon="6.40307">
        <ele>394.2</ele>
        <time>2022-09-28T10:32:21Z</time>
      </trkpt>
      <trkpt lat="46.4709" lon="6.40312">
        <ele>394.2</ele>
        <time>2022-09-28T10:32:22Z</time>
      </trkpt>
      <trkpt lat="46.47095" lon="6.40317">
        <ele>394.2</ele>
        <time>2022-09-28T10:32:23Z</time>
      </trkpt>
      <trkpt lat="46.471" lon="6.40321">
        <ele>394.3</ele>
        <time>2022-09-28T10:32:24Z</time>
      </trkpt>
      <trkpt lat="46.47105" lon="6.40326">
        <ele>394.3</ele>
        <time>2022-09-28T10:32:25Z</time>
      </trkpt>
      <trkpt lat="46.47109" lon="6.4033">
        <ele>394.4</ele>
        <time>2022-09-28T10:32:26Z</time>
      </trkpt>
      <trkpt lat="46.47114" lon="6.40335">
        <ele>394.4</ele>
        <time>2022-09-28T10:32:27Z</time>
      </trkpt>
      <trkpt lat="46.47119" lon="6.40339">
        <ele>394.5</ele>
        <time>2022-09-28T10:32:28Z</time>
      </trkpt>
      <trkpt lat="46.47124" lon="6.40344">
        <ele>394.6</ele>
        <time>2022-09-28T10:32:29Z</time>
      </trkpt>
      <trkpt lat="46.47128" lon="6.40347">
        <ele>394.7</ele>
        <time>2022-09-28T10:32:30Z</time>
      </trkpt>
      <trkpt lat="46.47133" lon="6.40351">
        <ele>394.8</ele>
        <time>2022-09-28T10:32:31Z</time>
      </trkpt>
      <trkpt lat="46.47137" lon="6.40356">
        <ele>394.9</ele>
        <time>2022-09-28T10:32:32Z</time>
      </trkpt>
      <trkpt lat="46.47141" lon="6.40361">
        <ele>394.9</ele>
        <time>2022-09-28T10:32:33Z</time>
      </trkpt>
      <trkpt lat="46.47145" lon="6.40365">
        <ele>395</ele>
        <time>2022-09-28T10:32:34Z</time>
      </trkpt>
      <trkpt lat="46.47149" lon="6.40368">
        <ele>395.1</ele>
        <time>2022-09-28T10:32:35Z</time>
      </trkpt>
      <trkpt lat="46.47153" lon="6.40372">
        <ele>395.2</ele>
        <time>2022-09-28T10:32:36Z</time>
      </trkpt>
      <trkpt lat="46.47156" lon="6.40376">
        <ele>395.3</ele>
        <time>2022-09-28T10:32:37Z</time>
      </trkpt>
      <trkpt lat="46.4716" lon="6.4038">
        <ele>395.3</ele>
        <time>2022-09-28T10:32:38Z</time>
      </trkpt>
      <trkpt lat="46.47164" lon="6.40384">
        <ele>395.3</ele>
        <time>2022-09-28T10:32:39Z</time>
      </trkpt>
      <trkpt lat="46.47167" lon="6.40389">
        <ele>395.4</ele>
        <time>2022-09-28T10:32:40Z</time>
      </trkpt>
      <trkpt lat="46.4717" lon="6.40393">
        <ele>395.4</ele>
        <time>2022-09-28T10:32:41Z</time>
      </trkpt>
      <trkpt lat="46.47174" lon="6.40397">
        <ele>395.5</ele>
        <time>2022-09-28T10:32:42Z</time>
      </trkpt>
      <trkpt lat="46.47178" lon="6.40401">
        <ele>395.5</ele>
        <time>2022-09-28T10:32:43Z</time>
      </trkpt>
      <trkpt lat="46.47181" lon="6.40405">
        <ele>395.6</ele>
        <time>2022-09-28T10:32:44Z</time>
      </trkpt>
      <trkpt lat="46.47184" lon="6.4041">
        <ele>395.7</ele>
        <time>2022-09-28T10:32:45Z</time>
      </trkpt>
      <trkpt lat="46.47188" lon="6.40414">
        <ele>395.7</ele>
        <time>2022-09-28T10:32:46Z</time>
      </trkpt>
      <trkpt lat="46.47192" lon="6.40419">
        <ele>395.8</ele>
        <time>2022-09-28T10:32:47Z</time>
      </trkpt>
      <trkpt lat="46.47195" lon="6.40423">
        <ele>395.9</ele>
        <time>2022-09-28T10:32:48Z</time>
      </trkpt>
      <trkpt lat="46.47198" lon="6.40428">
        <ele>396</ele>
        <time>2022-09-28T10:32:49Z</time>
      </trkpt>
      <trkpt lat="46.47202" lon="6.40432">
        <ele>396</ele>
        <time>2022-09-28T10:32:50Z</time>
      </trkpt>
      <trkpt lat="46.47205" lon="6.40437">
        <ele>396.1</ele>
        <time>2022-09-28T10:32:51Z</time>
      </trkpt>
      <trkpt lat="46.47209" lon="6.40442">
        <ele>396.2</ele>
        <time>2022-09-28T10:32:52Z</time>
      </trkpt>
      <trkpt lat="46.47212" lon="6.40447">
        <ele>396.3</ele>
        <time>2022-09-28T10:32:53Z</time>
      </trkpt>
      <trkpt lat="46.47216" lon="6.40451">
        <ele>396.4</ele>
        <time>2022-09-28T10:32:54Z</time>
      </trkpt>
      <trkpt lat="46.47219" lon="6.40456">
        <ele>396.4</ele>
        <time>2022-09-28T10:32:55Z</time>
      </trkpt>
      <trkpt lat="46.47222" lon="6.40461">
        <ele>396.5</ele>
        <time>2022-09-28T10:32:56Z</time>
      </trkpt>
      <trkpt lat="46.47225" lon="6.40466">
        <ele>396.6</ele>
        <time>2022-09-28T10:32:57Z</time>
      </trkpt>
      <trkpt lat="46.47228" lon="6.40471">
        <ele>396.7</ele>
        <time>2022-09-28T10:32:58Z</time>
      </trkpt>
      <trkpt lat="46.47231" lon="6.40476">
        <ele>396.7</ele>
        <time>2022-09-28T10:32:59Z</time>
      </trkpt>
      <trkpt lat="46.47234" lon="6.40481">
        <ele>396.8</ele>
        <time>2022-09-28T10:33:00Z</time>
      </trkpt>
      <trkpt lat="46.47237" lon="6.40486">
        <ele>396.8</ele>
        <time>2022-09-28T10:33:01Z</time>
      </trkpt>
      <trkpt lat="46.47241" lon="6.4049">
        <ele>396.9</ele>
        <time>2022-09-28T10:33:02Z</time>
      </trkpt>
      <trkpt lat="46.47244" lon="6.40495">
        <ele>397</ele>
        <time>2022-09-28T10:33:03Z</time>
      </trkpt>
      <trkpt lat="46.47247" lon="6.405">
        <ele>397</ele>
        <time>2022-09-28T10:33:04Z</time>
      </trkpt>
      <trkpt lat="46.4725" lon="6.40505">
        <ele>397.1</ele>
        <time>2022-09-28T10:33:05Z</time>
      </trkpt>
      <trkpt lat="46.47253" lon="6.4051">
        <ele>397.1</ele>
        <time>2022-09-28T10:33:06Z</time>
      </trkpt>
      <trkpt lat="46.47256" lon="6.40516">
        <ele>397.2</ele>
        <time>2022-09-28T10:33:07Z</time>
      </trkpt>
      <trkpt lat="46.47259" lon="6.40521">
        <ele>397.2</ele>
        <time>2022-09-28T10:33:08Z</time>
      </trkpt>
      <trkpt lat="46.47262" lon="6.40526">
        <ele>397.3</ele>
        <time>2022-09-28T10:33:09Z</time>
      </trkpt>
      <trkpt lat="46.47265" lon="6.40532">
        <ele>397.3</ele>
        <time>2022-09-28T10:33:10Z</time>
      </trkpt>
      <trkpt lat="46.47267" lon="6.40538">
        <ele>397.4</ele>
        <time>2022-09-28T10:33:11Z</time>
      </trkpt>
      <trkpt lat="46.4727" lon="6.40545">
        <ele>397.4</ele>
        <time>2022-09-28T10:33:12Z</time>
      </trkpt>
      <trkpt lat="46.47273" lon="6.40551">
        <ele>397.5</ele>
        <time>2022-09-28T10:33:13Z</time>
      </trkpt>
      <trkpt lat="46.47276" lon="6.40556">
        <ele>397.6</ele>
        <time>2022-09-28T10:33:14Z</time>
      </trkpt>
      <trkpt lat="46.47279" lon="6.40562">
        <ele>397.6</ele>
        <time>2022-09-28T10:33:15Z</time>
      </trkpt>
      <trkpt lat="46.47282" lon="6.40568">
        <ele>397.7</ele>
        <time>2022-09-28T10:33:16Z</time>
      </trkpt>
      <trkpt lat="46.47284" lon="6.40573">
        <ele>397.8</ele>
        <time>2022-09-28T10:33:17Z</time>
      </trkpt>
      <trkpt lat="46.47287" lon="6.40578">
        <ele>397.8</ele>
        <time>2022-09-28T10:33:18Z</time>
      </trkpt>
      <trkpt lat="46.47289" lon="6.40584">
        <ele>397.9</ele>
        <time>2022-09-28T10:33:19Z</time>
      </trkpt>
      <trkpt lat="46.47291" lon="6.40589">
        <ele>398</ele>
        <time>2022-09-28T10:33:20Z</time>
      </trkpt>
      <trkpt lat="46.47294" lon="6.40593">
        <ele>398</ele>
        <time>2022-09-28T10:33:21Z</time>
      </trkpt>
      <trkpt lat="46.47296" lon="6.40598">
        <ele>398.1</ele>
        <time>2022-09-28T10:33:22Z</time>
      </trkpt>
      <trkpt lat="46.47301" lon="6.40607">
        <ele>398.2</ele>
        <time>2022-09-28T10:33:23Z</time>
      </trkpt>
      <trkpt lat="46.47303" lon="6.40611">
        <ele>398.2</ele>
        <time>2022-09-28T10:33:24Z</time>
      </trkpt>
      <trkpt lat="46.47305" lon="6.40615">
        <ele>398.3</ele>
        <time>2022-09-28T10:33:25Z</time>
      </trkpt>
      <trkpt lat="46.47307" lon="6.40619">
        <ele>398.3</ele>
        <time>2022-09-28T10:33:26Z</time>
      </trkpt>
      <trkpt lat="46.47309" lon="6.40623">
        <ele>398.4</ele>
        <time>2022-09-28T10:33:27Z</time>
      </trkpt>
      <trkpt lat="46.47311" lon="6.40628">
        <ele>398.4</ele>
        <time>2022-09-28T10:33:28Z</time>
      </trkpt>
      <trkpt lat="46.47313" lon="6.40632">
        <ele>398.5</ele>
        <time>2022-09-28T10:33:29Z</time>
      </trkpt>
      <trkpt lat="46.47315" lon="6.40636">
        <ele>398.5</ele>
        <time>2022-09-28T10:33:30Z</time>
      </trkpt>
      <trkpt lat="46.47316" lon="6.40639">
        <ele>398.6</ele>
        <time>2022-09-28T10:33:31Z</time>
      </trkpt>
      <trkpt lat="46.47318" lon="6.40643">
        <ele>398.6</ele>
        <time>2022-09-28T10:33:32Z</time>
      </trkpt>
      <trkpt lat="46.4732" lon="6.40647">
        <ele>398.7</ele>
        <time>2022-09-28T10:33:33Z</time>
      </trkpt>
      <trkpt lat="46.47322" lon="6.40652">
        <ele>398.7</ele>
        <time>2022-09-28T10:33:34Z</time>
      </trkpt>
      <trkpt lat="46.47324" lon="6.40656">
        <ele>398.8</ele>
        <time>2022-09-28T10:33:35Z</time>
      </trkpt>
      <trkpt lat="46.47326" lon="6.40661">
        <ele>398.9</ele>
        <time>2022-09-28T10:33:36Z</time>
      </trkpt>
      <trkpt lat="46.47328" lon="6.40666">
        <ele>398.9</ele>
        <time>2022-09-28T10:33:37Z</time>
      </trkpt>
      <trkpt lat="46.4733" lon="6.4067">
        <ele>399</ele>
        <time>2022-09-28T10:33:38Z</time>
      </trkpt>
      <trkpt lat="46.47332" lon="6.40675">
        <ele>399.1</ele>
        <time>2022-09-28T10:33:39Z</time>
      </trkpt>
      <trkpt lat="46.47335" lon="6.4068">
        <ele>399.2</ele>
        <time>2022-09-28T10:33:40Z</time>
      </trkpt>
      <trkpt lat="46.47336" lon="6.40682">
        <ele>399.2</ele>
        <time>2022-09-28T10:33:41Z</time>
      </trkpt>
      <trkpt lat="46.47338" lon="6.40686">
        <ele>399.3</ele>
        <time>2022-09-28T10:33:42Z</time>
      </trkpt>
      <trkpt lat="46.4734" lon="6.40689">
        <ele>399.3</ele>
        <time>2022-09-28T10:33:43Z</time>
      </trkpt>
      <trkpt lat="46.47342" lon="6.40693">
        <ele>399.4</ele>
        <time>2022-09-28T10:33:44Z</time>
      </trkpt>
      <trkpt lat="46.47344" lon="6.40697">
        <ele>399.4</ele>
        <time>2022-09-28T10:33:45Z</time>
      </trkpt>
      <trkpt lat="46.47346" lon="6.40701">
        <ele>399.5</ele>
        <time>2022-09-28T10:33:46Z</time>
      </trkpt>
      <trkpt lat="46.47348" lon="6.40705">
        <ele>399.5</ele>
        <time>2022-09-28T10:33:47Z</time>
      </trkpt>
      <trkpt lat="46.4735" lon="6.40711">
        <ele>399.6</ele>
        <time>2022-09-28T10:33:48Z</time>
      </trkpt>
      <trkpt lat="46.47352" lon="6.40716">
        <ele>399.7</ele>
        <time>2022-09-28T10:33:49Z</time>
      </trkpt>
      <trkpt lat="46.47354" lon="6.40721">
        <ele>399.8</ele>
        <time>2022-09-28T10:33:50Z</time>
      </trkpt>
      <trkpt lat="46.47356" lon="6.40725">
        <ele>399.9</ele>
        <time>2022-09-28T10:33:51Z</time>
      </trkpt>
      <trkpt lat="46.47358" lon="6.4073">
        <ele>400</ele>
        <time>2022-09-28T10:33:52Z</time>
      </trkpt>
      <trkpt lat="46.47359" lon="6.40734">
        <ele>400.1</ele>
        <time>2022-09-28T10:33:53Z</time>
      </trkpt>
      <trkpt lat="46.47361" lon="6.40738">
        <ele>400.2</ele>
        <time>2022-09-28T10:33:54Z</time>
      </trkpt>
      <trkpt lat="46.47362" lon="6.40742">
        <ele>400.2</ele>
        <time>2022-09-28T10:33:55Z</time>
      </trkpt>
      <trkpt lat="46.47364" lon="6.40747">
        <ele>400.3</ele>
        <time>2022-09-28T10:33:56Z</time>
      </trkpt>
      <trkpt lat="46.47365" lon="6.4075">
        <ele>400.5</ele>
        <time>2022-09-28T10:33:57Z</time>
      </trkpt>
      <trkpt lat="46.47366" lon="6.40754">
        <ele>400.6</ele>
        <time>2022-09-28T10:33:58Z</time>
      </trkpt>
      <trkpt lat="46.47367" lon="6.40758">
        <ele>400.8</ele>
        <time>2022-09-28T10:33:59Z</time>
      </trkpt>
      <trkpt lat="46.47369" lon="6.40763">
        <ele>401</ele>
        <time>2022-09-28T10:34:00Z</time>
      </trkpt>
      <trkpt lat="46.47369" lon="6.40765">
        <ele>401</ele>
        <time>2022-09-28T10:34:01Z</time>
      </trkpt>
      <trkpt lat="46.4737" lon="6.40769">
        <ele>401.2</ele>
        <time>2022-09-28T10:34:02Z</time>
      </trkpt>
      <trkpt lat="46.47372" lon="6.40774">
        <ele>401.3</ele>
        <time>2022-09-28T10:34:04Z</time>
      </trkpt>
      <trkpt lat="46.47372" lon="6.40776">
        <ele>401.4</ele>
        <time>2022-09-28T10:34:05Z</time>
      </trkpt>
      <trkpt lat="46.47373" lon="6.40781">
        <ele>401.6</ele>
        <time>2022-09-28T10:34:06Z</time>
      </trkpt>
      <trkpt lat="46.47374" lon="6.40783">
        <ele>401.7</ele>
        <time>2022-09-28T10:34:07Z</time>
      </trkpt>
      <trkpt lat="46.47375" lon="6.40787">
        <ele>401.8</ele>
        <time>2022-09-28T10:34:08Z</time>
      </trkpt>
      <trkpt lat="46.47375" lon="6.40789">
        <ele>401.9</ele>
        <time>2022-09-28T10:34:09Z</time>
      </trkpt>
      <trkpt lat="46.47376" lon="6.40793">
        <ele>402.1</ele>
        <time>2022-09-28T10:34:10Z</time>
      </trkpt>
      <trkpt lat="46.47377" lon="6.40795">
        <ele>402.1</ele>
        <time>2022-09-28T10:34:11Z</time>
      </trkpt>
      <trkpt lat="46.47378" lon="6.408">
        <ele>402.3</ele>
        <time>2022-09-28T10:34:12Z</time>
      </trkpt>
      <trkpt lat="46.47378" lon="6.40801">
        <ele>402.4</ele>
        <time>2022-09-28T10:34:13Z</time>
      </trkpt>
      <trkpt lat="46.47379" lon="6.40806">
        <ele>402.6</ele>
        <time>2022-09-28T10:34:14Z</time>
      </trkpt>
      <trkpt lat="46.47379" lon="6.40807">
        <ele>402.6</ele>
        <time>2022-09-28T10:34:15Z</time>
      </trkpt>
      <trkpt lat="46.4738" lon="6.40812">
        <ele>402.8</ele>
        <time>2022-09-28T10:34:16Z</time>
      </trkpt>
      <trkpt lat="46.4738" lon="6.40813">
        <ele>402.9</ele>
        <time>2022-09-28T10:34:17Z</time>
      </trkpt>
      <trkpt lat="46.47381" lon="6.40819">
        <ele>403.1</ele>
        <time>2022-09-28T10:34:18Z</time>
      </trkpt>
      <trkpt lat="46.47382" lon="6.4082">
        <ele>403.2</ele>
        <time>2022-09-28T10:34:19Z</time>
      </trkpt>
      <trkpt lat="46.47382" lon="6.40825">
        <ele>403.4</ele>
        <time>2022-09-28T10:34:20Z</time>
      </trkpt>
      <trkpt lat="46.47383" lon="6.40826">
        <ele>403.4</ele>
        <time>2022-09-28T10:34:21Z</time>
      </trkpt>
      <trkpt lat="46.47384" lon="6.4083">
        <ele>403.6</ele>
        <time>2022-09-28T10:34:22Z</time>
      </trkpt>
      <trkpt lat="46.47384" lon="6.40832">
        <ele>403.6</ele>
        <time>2022-09-28T10:34:23Z</time>
      </trkpt>
      <trkpt lat="46.47385" lon="6.40836">
        <ele>403.8</ele>
        <time>2022-09-28T10:34:24Z</time>
      </trkpt>
      <trkpt lat="46.47385" lon="6.40838">
        <ele>403.9</ele>
        <time>2022-09-28T10:34:25Z</time>
      </trkpt>
      <trkpt lat="46.47385" lon="6.40842">
        <ele>404.1</ele>
        <time>2022-09-28T10:34:26Z</time>
      </trkpt>
      <trkpt lat="46.47386" lon="6.40844">
        <ele>404.2</ele>
        <time>2022-09-28T10:34:27Z</time>
      </trkpt>
      <trkpt lat="46.47386" lon="6.40848">
        <ele>404.3</ele>
        <time>2022-09-28T10:34:28Z</time>
      </trkpt>
      <trkpt lat="46.47386" lon="6.4085">
        <ele>404.4</ele>
        <time>2022-09-28T10:34:29Z</time>
      </trkpt>
      <trkpt lat="46.47386" lon="6.40855">
        <ele>404.6</ele>
        <time>2022-09-28T10:34:30Z</time>
      </trkpt>
      <trkpt lat="46.47386" lon="6.40857">
        <ele>404.7</ele>
        <time>2022-09-28T10:34:31Z</time>
      </trkpt>
      <trkpt lat="46.47387" lon="6.40861">
        <ele>404.9</ele>
        <time>2022-09-28T10:34:32Z</time>
      </trkpt>
      <trkpt lat="46.47387" lon="6.40863">
        <ele>405</ele>
        <time>2022-09-28T10:34:33Z</time>
      </trkpt>
      <trkpt lat="46.47387" lon="6.40868">
        <ele>405.2</ele>
        <time>2022-09-28T10:34:34Z</time>
      </trkpt>
      <trkpt lat="46.47387" lon="6.40869">
        <ele>405.2</ele>
        <time>2022-09-28T10:34:35Z</time>
      </trkpt>
      <trkpt lat="46.47387" lon="6.40874">
        <ele>405.4</ele>
        <time>2022-09-28T10:34:36Z</time>
      </trkpt>
      <trkpt lat="46.47387" lon="6.40876">
        <ele>405.5</ele>
        <time>2022-09-28T10:34:37Z</time>
      </trkpt>
      <trkpt lat="46.47387" lon="6.40881">
        <ele>405.7</ele>
        <time>2022-09-28T10:34:38Z</time>
      </trkpt>
      <trkpt lat="46.47387" lon="6.40882">
        <ele>405.8</ele>
        <time>2022-09-28T10:34:39Z</time>
      </trkpt>
      <trkpt lat="46.47388" lon="6.40887">
        <ele>405.9</ele>
        <time>2022-09-28T10:34:40Z</time>
      </trkpt>
      <trkpt lat="46.47388" lon="6.40889">
        <ele>406</ele>
        <time>2022-09-28T10:34:41Z</time>
      </trkpt>
      <trkpt lat="46.47388" lon="6.40893">
        <ele>406.2</ele>
        <time>2022-09-28T10:34:42Z</time>
      </trkpt>
      <trkpt lat="46.47388" lon="6.40895">
        <ele>406.2</ele>
        <time>2022-09-28T10:34:43Z</time>
      </trkpt>
      <trkpt lat="46.47388" lon="6.40899">
        <ele>406.4</ele>
        <time>2022-09-28T10:34:44Z</time>
      </trkpt>
      <trkpt lat="46.47388" lon="6.40901">
        <ele>406.5</ele>
        <time>2022-09-28T10:34:45Z</time>
      </trkpt>
      <trkpt lat="46.47389" lon="6.40905">
        <ele>406.6</ele>
        <time>2022-09-28T10:34:46Z</time>
      </trkpt>
      <trkpt lat="46.47389" lon="6.40906">
        <ele>406.7</ele>
        <time>2022-09-28T10:34:47Z</time>
      </trkpt>
      <trkpt lat="46.4739" lon="6.40911">
        <ele>406.8</ele>
        <time>2022-09-28T10:34:48Z</time>
      </trkpt>
      <trkpt lat="46.4739" lon="6.40912">
        <ele>406.9</ele>
        <time>2022-09-28T10:34:49Z</time>
      </trkpt>
      <trkpt lat="46.4739" lon="6.40917">
        <ele>407.1</ele>
        <time>2022-09-28T10:34:50Z</time>
      </trkpt>
      <trkpt lat="46.4739" lon="6.40919">
        <ele>407.1</ele>
        <time>2022-09-28T10:34:51Z</time>
      </trkpt>
      <trkpt lat="46.47391" lon="6.40923">
        <ele>407.3</ele>
        <time>2022-09-28T10:34:52Z</time>
      </trkpt>
      <trkpt lat="46.47391" lon="6.40925">
        <ele>407.4</ele>
        <time>2022-09-28T10:34:53Z</time>
      </trkpt>
      <trkpt lat="46.47391" lon="6.4093">
        <ele>407.6</ele>
        <time>2022-09-28T10:34:54Z</time>
      </trkpt>
      <trkpt lat="46.47392" lon="6.40932">
        <ele>407.7</ele>
        <time>2022-09-28T10:34:55Z</time>
      </trkpt>
      <trkpt lat="46.47392" lon="6.40936">
        <ele>407.8</ele>
        <time>2022-09-28T10:34:56Z</time>
      </trkpt>
      <trkpt lat="46.47392" lon="6.40937">
        <ele>407.9</ele>
        <time>2022-09-28T10:34:57Z</time>
      </trkpt>
      <trkpt lat="46.47392" lon="6.40942">
        <ele>408.1</ele>
        <time>2022-09-28T10:34:58Z</time>
      </trkpt>
      <trkpt lat="46.47392" lon="6.40943">
        <ele>408.1</ele>
        <time>2022-09-28T10:34:59Z</time>
      </trkpt>
      <trkpt lat="46.47392" lon="6.40948">
        <ele>408.3</ele>
        <time>2022-09-28T10:35:00Z</time>
      </trkpt>
      <trkpt lat="46.47392" lon="6.40949">
        <ele>408.3</ele>
        <time>2022-09-28T10:35:01Z</time>
      </trkpt>
      <trkpt lat="46.47392" lon="6.40952">
        <ele>408.5</ele>
        <time>2022-09-28T10:35:02Z</time>
      </trkpt>
      <trkpt lat="46.47392" lon="6.40954">
        <ele>408.5</ele>
        <time>2022-09-28T10:35:03Z</time>
      </trkpt>
      <trkpt lat="46.47392" lon="6.40957">
        <ele>408.7</ele>
        <time>2022-09-28T10:35:04Z</time>
      </trkpt>
      <trkpt lat="46.47392" lon="6.40959">
        <ele>408.7</ele>
        <time>2022-09-28T10:35:05Z</time>
      </trkpt>
      <trkpt lat="46.47392" lon="6.40961">
        <ele>408.8</ele>
        <time>2022-09-28T10:35:06Z</time>
      </trkpt>
      <trkpt lat="46.47392" lon="6.40964">
        <ele>408.9</ele>
        <time>2022-09-28T10:35:07Z</time>
      </trkpt>
      <trkpt lat="46.47393" lon="6.40968">
        <ele>409.1</ele>
        <time>2022-09-28T10:35:08Z</time>
      </trkpt>
      <trkpt lat="46.47392" lon="6.40969">
        <ele>409.1</ele>
        <time>2022-09-28T10:35:09Z</time>
      </trkpt>
      <trkpt lat="46.47393" lon="6.40972">
        <ele>409.2</ele>
        <time>2022-09-28T10:35:10Z</time>
      </trkpt>
      <trkpt lat="46.47393" lon="6.40975">
        <ele>409.3</ele>
        <time>2022-09-28T10:35:11Z</time>
      </trkpt>
      <trkpt lat="46.47393" lon="6.40979">
        <ele>409.5</ele>
        <time>2022-09-28T10:35:12Z</time>
      </trkpt>
      <trkpt lat="46.47393" lon="6.4098">
        <ele>409.5</ele>
        <time>2022-09-28T10:35:13Z</time>
      </trkpt>
      <trkpt lat="46.47393" lon="6.40982">
        <ele>409.6</ele>
        <time>2022-09-28T10:35:14Z</time>
      </trkpt>
      <trkpt lat="46.47393" lon="6.40985">
        <ele>409.6</ele>
        <time>2022-09-28T10:35:15Z</time>
      </trkpt>
      <trkpt lat="46.47393" lon="6.40988">
        <ele>409.7</ele>
        <time>2022-09-28T10:35:16Z</time>
      </trkpt>
      <trkpt lat="46.47393" lon="6.4099">
        <ele>409.8</ele>
        <time>2022-09-28T10:35:17Z</time>
      </trkpt>
      <trkpt lat="46.47393" lon="6.40994">
        <ele>409.9</ele>
        <time>2022-09-28T10:35:18Z</time>
      </trkpt>
      <trkpt lat="46.47393" lon="6.40995">
        <ele>409.9</ele>
        <time>2022-09-28T10:35:19Z</time>
      </trkpt>
      <trkpt lat="46.47392" lon="6.41">
        <ele>410</ele>
        <time>2022-09-28T10:35:20Z</time>
      </trkpt>
      <trkpt lat="46.47392" lon="6.41001">
        <ele>410.1</ele>
        <time>2022-09-28T10:35:21Z</time>
      </trkpt>
      <trkpt lat="46.47392" lon="6.41004">
        <ele>410.1</ele>
        <time>2022-09-28T10:35:22Z</time>
      </trkpt>
      <trkpt lat="46.47392" lon="6.41006">
        <ele>410.2</ele>
        <time>2022-09-28T10:35:23Z</time>
      </trkpt>
      <trkpt lat="46.47391" lon="6.41007">
        <ele>410.3</ele>
        <time>2022-09-28T10:35:24Z</time>
      </trkpt>
      <trkpt lat="46.47389" lon="6.41011">
        <ele>410.4</ele>
        <time>2022-09-28T10:35:25Z</time>
      </trkpt>
      <trkpt lat="46.47388" lon="6.41014">
        <ele>410.8</ele>
        <time>2022-09-28T10:35:26Z</time>
      </trkpt>
      <trkpt lat="46.47385" lon="6.41017">
        <ele>410.9</ele>
        <time>2022-09-28T10:35:27Z</time>
      </trkpt>
      <trkpt lat="46.47385" lon="6.41018">
        <ele>410.9</ele>
        <time>2022-09-28T10:35:28Z</time>
      </trkpt>
      <trkpt lat="46.47383" lon="6.41019">
        <ele>410.9</ele>
        <time>2022-09-28T10:35:29Z</time>
      </trkpt>
      <trkpt lat="46.47381" lon="6.4102">
        <ele>411</ele>
        <time>2022-09-28T10:35:30Z</time>
      </trkpt>
      <trkpt lat="46.4738" lon="6.41019">
        <ele>411</ele>
        <time>2022-09-28T10:35:31Z</time>
      </trkpt>
      <trkpt lat="46.47379" lon="6.41019">
        <ele>411</ele>
        <time>2022-09-28T10:35:32Z</time>
      </trkpt>
      <trkpt lat="46.47362" lon="6.41027">
        <ele>411.4</ele>
        <time>2022-09-28T10:35:39Z</time>
      </trkpt>
      <trkpt lat="46.47359" lon="6.41029">
        <ele>411.5</ele>
        <time>2022-09-28T10:35:40Z</time>
      </trkpt>
      <trkpt lat="46.47356" lon="6.41032">
        <ele>411.5</ele>
        <time>2022-09-28T10:35:41Z</time>
      </trkpt>
      <trkpt lat="46.47354" lon="6.41036">
        <ele>411.6</ele>
        <time>2022-09-28T10:35:42Z</time>
      </trkpt>
      <trkpt lat="46.47352" lon="6.4104">
        <ele>411.6</ele>
        <time>2022-09-28T10:35:43Z</time>
      </trkpt>
      <trkpt lat="46.47351" lon="6.41044">
        <ele>411.6</ele>
        <time>2022-09-28T10:35:44Z</time>
      </trkpt>
      <trkpt lat="46.47349" lon="6.41047">
        <ele>411.6</ele>
        <time>2022-09-28T10:35:45Z</time>
      </trkpt>
      <trkpt lat="46.47347" lon="6.41052">
        <ele>411.7</ele>
        <time>2022-09-28T10:35:46Z</time>
      </trkpt>
      <trkpt lat="46.47345" lon="6.41056">
        <ele>411.7</ele>
        <time>2022-09-28T10:35:47Z</time>
      </trkpt>
      <trkpt lat="46.47344" lon="6.4106">
        <ele>411.7</ele>
        <time>2022-09-28T10:35:48Z</time>
      </trkpt>
      <trkpt lat="46.47342" lon="6.41065">
        <ele>411.7</ele>
        <time>2022-09-28T10:35:49Z</time>
      </trkpt>
      <trkpt lat="46.47341" lon="6.41071">
        <ele>411.7</ele>
        <time>2022-09-28T10:35:50Z</time>
      </trkpt>
      <trkpt lat="46.47339" lon="6.41076">
        <ele>411.6</ele>
        <time>2022-09-28T10:35:51Z</time>
      </trkpt>
      <trkpt lat="46.47338" lon="6.41081">
        <ele>411.6</ele>
        <time>2022-09-28T10:35:52Z</time>
      </trkpt>
      <trkpt lat="46.47337" lon="6.41085">
        <ele>411.6</ele>
        <time>2022-09-28T10:35:53Z</time>
      </trkpt>
      <trkpt lat="46.47334" lon="6.41091">
        <ele>411.6</ele>
        <time>2022-09-28T10:35:54Z</time>
      </trkpt>
      <trkpt lat="46.47332" lon="6.41097">
        <ele>411.5</ele>
        <time>2022-09-28T10:35:55Z</time>
      </trkpt>
      <trkpt lat="46.47329" lon="6.41103">
        <ele>411.5</ele>
        <time>2022-09-28T10:35:56Z</time>
      </trkpt>
      <trkpt lat="46.47326" lon="6.41109">
        <ele>411.4</ele>
        <time>2022-09-28T10:35:57Z</time>
      </trkpt>
      <trkpt lat="46.47324" lon="6.41116">
        <ele>411.4</ele>
        <time>2022-09-28T10:35:58Z</time>
      </trkpt>
      <trkpt lat="46.47322" lon="6.41122">
        <ele>411.4</ele>
        <time>2022-09-28T10:35:59Z</time>
      </trkpt>
      <trkpt lat="46.4732" lon="6.41127">
        <ele>411.3</ele>
        <time>2022-09-28T10:36:00Z</time>
      </trkpt>
      <trkpt lat="46.47319" lon="6.41132">
        <ele>411.3</ele>
        <time>2022-09-28T10:36:01Z</time>
      </trkpt>
      <trkpt lat="46.47318" lon="6.41138">
        <ele>411.3</ele>
        <time>2022-09-28T10:36:02Z</time>
      </trkpt>
      <trkpt lat="46.47317" lon="6.41145">
        <ele>411.2</ele>
        <time>2022-09-28T10:36:03Z</time>
      </trkpt>
      <trkpt lat="46.47315" lon="6.41152">
        <ele>411.2</ele>
        <time>2022-09-28T10:36:04Z</time>
      </trkpt>
      <trkpt lat="46.47313" lon="6.41159">
        <ele>411.2</ele>
        <time>2022-09-28T10:36:05Z</time>
      </trkpt>
      <trkpt lat="46.47312" lon="6.41166">
        <ele>411.2</ele>
        <time>2022-09-28T10:36:06Z</time>
      </trkpt>
      <trkpt lat="46.4731" lon="6.41174">
        <ele>411.1</ele>
        <time>2022-09-28T10:36:07Z</time>
      </trkpt>
      <trkpt lat="46.47308" lon="6.41182">
        <ele>411.1</ele>
        <time>2022-09-28T10:36:08Z</time>
      </trkpt>
      <trkpt lat="46.47307" lon="6.41189">
        <ele>411.1</ele>
        <time>2022-09-28T10:36:10Z</time>
      </trkpt>
      <trkpt lat="46.47306" lon="6.41195">
        <ele>411.1</ele>
        <time>2022-09-28T10:36:11Z</time>
      </trkpt>
      <trkpt lat="46.47305" lon="6.41202">
        <ele>411.1</ele>
        <time>2022-09-28T10:36:12Z</time>
      </trkpt>
      <trkpt lat="46.47304" lon="6.41209">
        <ele>411.1</ele>
        <time>2022-09-28T10:36:13Z</time>
      </trkpt>
      <trkpt lat="46.47303" lon="6.41216">
        <ele>411.1</ele>
        <time>2022-09-28T10:36:14Z</time>
      </trkpt>
      <trkpt lat="46.47302" lon="6.41223">
        <ele>411</ele>
        <time>2022-09-28T10:36:15Z</time>
      </trkpt>
      <trkpt lat="46.47299" lon="6.41231">
        <ele>411</ele>
        <time>2022-09-28T10:36:16Z</time>
      </trkpt>
      <trkpt lat="46.47298" lon="6.41238">
        <ele>411</ele>
        <time>2022-09-28T10:36:17Z</time>
      </trkpt>
      <trkpt lat="46.47297" lon="6.41245">
        <ele>411</ele>
        <time>2022-09-28T10:36:18Z</time>
      </trkpt>
      <trkpt lat="46.47296" lon="6.41253">
        <ele>410.9</ele>
        <time>2022-09-28T10:36:19Z</time>
      </trkpt>
      <trkpt lat="46.47295" lon="6.4126">
        <ele>410.9</ele>
        <time>2022-09-28T10:36:20Z</time>
      </trkpt>
      <trkpt lat="46.47293" lon="6.41268">
        <ele>410.9</ele>
        <time>2022-09-28T10:36:21Z</time>
      </trkpt>
      <trkpt lat="46.47292" lon="6.41275">
        <ele>410.8</ele>
        <time>2022-09-28T10:36:22Z</time>
      </trkpt>
      <trkpt lat="46.47291" lon="6.41282">
        <ele>410.8</ele>
        <time>2022-09-28T10:36:23Z</time>
      </trkpt>
      <trkpt lat="46.47289" lon="6.41289">
        <ele>410.7</ele>
        <time>2022-09-28T10:36:24Z</time>
      </trkpt>
      <trkpt lat="46.47288" lon="6.41297">
        <ele>410.7</ele>
        <time>2022-09-28T10:36:25Z</time>
      </trkpt>
      <trkpt lat="46.47286" lon="6.41304">
        <ele>410.6</ele>
        <time>2022-09-28T10:36:26Z</time>
      </trkpt>
      <trkpt lat="46.47284" lon="6.41312">
        <ele>410.5</ele>
        <time>2022-09-28T10:36:27Z</time>
      </trkpt>
      <trkpt lat="46.47282" lon="6.41319">
        <ele>410.5</ele>
        <time>2022-09-28T10:36:28Z</time>
      </trkpt>
      <trkpt lat="46.4728" lon="6.41325">
        <ele>410.4</ele>
        <time>2022-09-28T10:36:29Z</time>
      </trkpt>
      <trkpt lat="46.4728" lon="6.41329">
        <ele>410.4</ele>
        <time>2022-09-28T10:36:30Z</time>
      </trkpt>
      <trkpt lat="46.47279" lon="6.41334">
        <ele>410.4</ele>
        <time>2022-09-28T10:36:31Z</time>
      </trkpt>
      <trkpt lat="46.47278" lon="6.41336">
        <ele>410.3</ele>
        <time>2022-09-28T10:36:32Z</time>
      </trkpt>
      <trkpt lat="46.47277" lon="6.41341">
        <ele>410.3</ele>
        <time>2022-09-28T10:36:33Z</time>
      </trkpt>
      <trkpt lat="46.47275" lon="6.41347">
        <ele>410.2</ele>
        <time>2022-09-28T10:36:34Z</time>
      </trkpt>
      <trkpt lat="46.47273" lon="6.41353">
        <ele>410.1</ele>
        <time>2022-09-28T10:36:35Z</time>
      </trkpt>
      <trkpt lat="46.4727" lon="6.41361">
        <ele>410</ele>
        <time>2022-09-28T10:36:36Z</time>
      </trkpt>
      <trkpt lat="46.47268" lon="6.41369">
        <ele>409.9</ele>
        <time>2022-09-28T10:36:37Z</time>
      </trkpt>
      <trkpt lat="46.47268" lon="6.41376">
        <ele>409.9</ele>
        <time>2022-09-28T10:36:38Z</time>
      </trkpt>
      <trkpt lat="46.47267" lon="6.41383">
        <ele>409.8</ele>
        <time>2022-09-28T10:36:39Z</time>
      </trkpt>
      <trkpt lat="46.47267" lon="6.41391">
        <ele>409.7</ele>
        <time>2022-09-28T10:36:40Z</time>
      </trkpt>
      <trkpt lat="46.47266" lon="6.41399">
        <ele>409.7</ele>
        <time>2022-09-28T10:36:41Z</time>
      </trkpt>
      <trkpt lat="46.47265" lon="6.41406">
        <ele>409.6</ele>
        <time>2022-09-28T10:36:42Z</time>
      </trkpt>
      <trkpt lat="46.47264" lon="6.41413">
        <ele>409.6</ele>
        <time>2022-09-28T10:36:43Z</time>
      </trkpt>
      <trkpt lat="46.47263" lon="6.41421">
        <ele>409.6</ele>
        <time>2022-09-28T10:36:44Z</time>
      </trkpt>
      <trkpt lat="46.47261" lon="6.41429">
        <ele>409.5</ele>
        <time>2022-09-28T10:36:45Z</time>
      </trkpt>
      <trkpt lat="46.4726" lon="6.41438">
        <ele>409.5</ele>
        <time>2022-09-28T10:36:46Z</time>
      </trkpt>
      <trkpt lat="46.47258" lon="6.41446">
        <ele>409.4</ele>
        <time>2022-09-28T10:36:47Z</time>
      </trkpt>
      <trkpt lat="46.47256" lon="6.41454">
        <ele>409.4</ele>
        <time>2022-09-28T10:36:48Z</time>
      </trkpt>
      <trkpt lat="46.47255" lon="6.41463">
        <ele>409.3</ele>
        <time>2022-09-28T10:36:49Z</time>
      </trkpt>
      <trkpt lat="46.47253" lon="6.41471">
        <ele>409.3</ele>
        <time>2022-09-28T10:36:50Z</time>
      </trkpt>
      <trkpt lat="46.4725" lon="6.4148">
        <ele>409.2</ele>
        <time>2022-09-28T10:36:51Z</time>
      </trkpt>
      <trkpt lat="46.47249" lon="6.41488">
        <ele>409.1</ele>
        <time>2022-09-28T10:36:52Z</time>
      </trkpt>
      <trkpt lat="46.47247" lon="6.41497">
        <ele>409.1</ele>
        <time>2022-09-28T10:36:53Z</time>
      </trkpt>
      <trkpt lat="46.47245" lon="6.41506">
        <ele>409</ele>
        <time>2022-09-28T10:36:54Z</time>
      </trkpt>
      <trkpt lat="46.47243" lon="6.41514">
        <ele>409</ele>
        <time>2022-09-28T10:36:55Z</time>
      </trkpt>
      <trkpt lat="46.47241" lon="6.41522">
        <ele>408.9</ele>
        <time>2022-09-28T10:36:56Z</time>
      </trkpt>
      <trkpt lat="46.47239" lon="6.4153">
        <ele>408.9</ele>
        <time>2022-09-28T10:36:57Z</time>
      </trkpt>
      <trkpt lat="46.47236" lon="6.41538">
        <ele>408.8</ele>
        <time>2022-09-28T10:36:58Z</time>
      </trkpt>
      <trkpt lat="46.47234" lon="6.41546">
        <ele>408.7</ele>
        <time>2022-09-28T10:36:59Z</time>
      </trkpt>
      <trkpt lat="46.47231" lon="6.41553">
        <ele>408.7</ele>
        <time>2022-09-28T10:37:00Z</time>
      </trkpt>
      <trkpt lat="46.4723" lon="6.41561">
        <ele>408.6</ele>
        <time>2022-09-28T10:37:01Z</time>
      </trkpt>
      <trkpt lat="46.47227" lon="6.41569">
        <ele>408.6</ele>
        <time>2022-09-28T10:37:02Z</time>
      </trkpt>
      <trkpt lat="46.47226" lon="6.41576">
        <ele>408.5</ele>
        <time>2022-09-28T10:37:03Z</time>
      </trkpt>
      <trkpt lat="46.47224" lon="6.41584">
        <ele>408.5</ele>
        <time>2022-09-28T10:37:04Z</time>
      </trkpt>
      <trkpt lat="46.47222" lon="6.41591">
        <ele>408.4</ele>
        <time>2022-09-28T10:37:05Z</time>
      </trkpt>
      <trkpt lat="46.4722" lon="6.41598">
        <ele>408.4</ele>
        <time>2022-09-28T10:37:06Z</time>
      </trkpt>
      <trkpt lat="46.47218" lon="6.41605">
        <ele>408.3</ele>
        <time>2022-09-28T10:37:07Z</time>
      </trkpt>
      <trkpt lat="46.47216" lon="6.41613">
        <ele>408.2</ele>
        <time>2022-09-28T10:37:08Z</time>
      </trkpt>
      <trkpt lat="46.47213" lon="6.41621">
        <ele>408.2</ele>
        <time>2022-09-28T10:37:09Z</time>
      </trkpt>
      <trkpt lat="46.47211" lon="6.41629">
        <ele>408.1</ele>
        <time>2022-09-28T10:37:10Z</time>
      </trkpt>
      <trkpt lat="46.47208" lon="6.41638">
        <ele>408.1</ele>
        <time>2022-09-28T10:37:11Z</time>
      </trkpt>
      <trkpt lat="46.47206" lon="6.41646">
        <ele>408</ele>
        <time>2022-09-28T10:37:12Z</time>
      </trkpt>
      <trkpt lat="46.47204" lon="6.41655">
        <ele>407.9</ele>
        <time>2022-09-28T10:37:13Z</time>
      </trkpt>
      <trkpt lat="46.47201" lon="6.41663">
        <ele>407.9</ele>
        <time>2022-09-28T10:37:14Z</time>
      </trkpt>
      <trkpt lat="46.47199" lon="6.41672">
        <ele>407.8</ele>
        <time>2022-09-28T10:37:15Z</time>
      </trkpt>
      <trkpt lat="46.47196" lon="6.41681">
        <ele>407.7</ele>
        <time>2022-09-28T10:37:16Z</time>
      </trkpt>
      <trkpt lat="46.47191" lon="6.41698">
        <ele>407.6</ele>
        <time>2022-09-28T10:37:17Z</time>
      </trkpt>
      <trkpt lat="46.47188" lon="6.41706">
        <ele>407.5</ele>
        <time>2022-09-28T10:37:18Z</time>
      </trkpt>
      <trkpt lat="46.47185" lon="6.41714">
        <ele>407.4</ele>
        <time>2022-09-28T10:37:19Z</time>
      </trkpt>
      <trkpt lat="46.47183" lon="6.41722">
        <ele>407.4</ele>
        <time>2022-09-28T10:37:20Z</time>
      </trkpt>
      <trkpt lat="46.4718" lon="6.4173">
        <ele>407.3</ele>
        <time>2022-09-28T10:37:21Z</time>
      </trkpt>
      <trkpt lat="46.47178" lon="6.41737">
        <ele>407.3</ele>
        <time>2022-09-28T10:37:22Z</time>
      </trkpt>
      <trkpt lat="46.47175" lon="6.41745">
        <ele>407.2</ele>
        <time>2022-09-28T10:37:23Z</time>
      </trkpt>
      <trkpt lat="46.47173" lon="6.41752">
        <ele>407.2</ele>
        <time>2022-09-28T10:37:24Z</time>
      </trkpt>
      <trkpt lat="46.47171" lon="6.4176">
        <ele>407.2</ele>
        <time>2022-09-28T10:37:25Z</time>
      </trkpt>
      <trkpt lat="46.47167" lon="6.41768">
        <ele>407.1</ele>
        <time>2022-09-28T10:37:26Z</time>
      </trkpt>
      <trkpt lat="46.47165" lon="6.41775">
        <ele>407.1</ele>
        <time>2022-09-28T10:37:27Z</time>
      </trkpt>
      <trkpt lat="46.47163" lon="6.41782">
        <ele>407.1</ele>
        <time>2022-09-28T10:37:28Z</time>
      </trkpt>
      <trkpt lat="46.4716" lon="6.41791">
        <ele>407</ele>
        <time>2022-09-28T10:37:29Z</time>
      </trkpt>
      <trkpt lat="46.47159" lon="6.41798">
        <ele>407</ele>
        <time>2022-09-28T10:37:30Z</time>
      </trkpt>
      <trkpt lat="46.47157" lon="6.41807">
        <ele>407</ele>
        <time>2022-09-28T10:37:31Z</time>
      </trkpt>
      <trkpt lat="46.47157" lon="6.41817">
        <ele>406.9</ele>
        <time>2022-09-28T10:37:32Z</time>
      </trkpt>
      <trkpt lat="46.47156" lon="6.41825">
        <ele>406.9</ele>
        <time>2022-09-28T10:37:33Z</time>
      </trkpt>
      <trkpt lat="46.47156" lon="6.41835">
        <ele>406.8</ele>
        <time>2022-09-28T10:37:34Z</time>
      </trkpt>
      <trkpt lat="46.47156" lon="6.41844">
        <ele>406.8</ele>
        <time>2022-09-28T10:37:35Z</time>
      </trkpt>
      <trkpt lat="46.47157" lon="6.41853">
        <ele>406.7</ele>
        <time>2022-09-28T10:37:36Z</time>
      </trkpt>
      <trkpt lat="46.47158" lon="6.41862">
        <ele>406.7</ele>
        <time>2022-09-28T10:37:37Z</time>
      </trkpt>
      <trkpt lat="46.47158" lon="6.4187">
        <ele>406.7</ele>
        <time>2022-09-28T10:37:38Z</time>
      </trkpt>
      <trkpt lat="46.47157" lon="6.4188">
        <ele>406.6</ele>
        <time>2022-09-28T10:37:39Z</time>
      </trkpt>
      <trkpt lat="46.47156" lon="6.4189">
        <ele>406.6</ele>
        <time>2022-09-28T10:37:40Z</time>
      </trkpt>
      <trkpt lat="46.47157" lon="6.41899">
        <ele>406.6</ele>
        <time>2022-09-28T10:37:41Z</time>
      </trkpt>
      <trkpt lat="46.47157" lon="6.41909">
        <ele>406.5</ele>
        <time>2022-09-28T10:37:42Z</time>
      </trkpt>
      <trkpt lat="46.47158" lon="6.41918">
        <ele>406.5</ele>
        <time>2022-09-28T10:37:43Z</time>
      </trkpt>
      <trkpt lat="46.47158" lon="6.41926">
        <ele>406.5</ele>
        <time>2022-09-28T10:37:44Z</time>
      </trkpt>
      <trkpt lat="46.47158" lon="6.41935">
        <ele>406.4</ele>
        <time>2022-09-28T10:37:45Z</time>
      </trkpt>
      <trkpt lat="46.47159" lon="6.41944">
        <ele>406.3</ele>
        <time>2022-09-28T10:37:46Z</time>
      </trkpt>
      <trkpt lat="46.47159" lon="6.41953">
        <ele>406.3</ele>
        <time>2022-09-28T10:37:47Z</time>
      </trkpt>
      <trkpt lat="46.4716" lon="6.41963">
        <ele>406.2</ele>
        <time>2022-09-28T10:37:48Z</time>
      </trkpt>
      <trkpt lat="46.4716" lon="6.41971">
        <ele>406.1</ele>
        <time>2022-09-28T10:37:49Z</time>
      </trkpt>
      <trkpt lat="46.47161" lon="6.41981">
        <ele>406.1</ele>
        <time>2022-09-28T10:37:50Z</time>
      </trkpt>
      <trkpt lat="46.47161" lon="6.41989">
        <ele>406.1</ele>
        <time>2022-09-28T10:37:51Z</time>
      </trkpt>
      <trkpt lat="46.47162" lon="6.41999">
        <ele>406</ele>
        <time>2022-09-28T10:37:52Z</time>
      </trkpt>
      <trkpt lat="46.47162" lon="6.42007">
        <ele>406</ele>
        <time>2022-09-28T10:37:53Z</time>
      </trkpt>
      <trkpt lat="46.47163" lon="6.42016">
        <ele>406</ele>
        <time>2022-09-28T10:37:54Z</time>
      </trkpt>
      <trkpt lat="46.47163" lon="6.42024">
        <ele>405.9</ele>
        <time>2022-09-28T10:37:55Z</time>
      </trkpt>
      <trkpt lat="46.47164" lon="6.42033">
        <ele>405.8</ele>
        <time>2022-09-28T10:37:56Z</time>
      </trkpt>
      <trkpt lat="46.47164" lon="6.4204">
        <ele>405.8</ele>
        <time>2022-09-28T10:37:57Z</time>
      </trkpt>
      <trkpt lat="46.47163" lon="6.42049">
        <ele>405.7</ele>
        <time>2022-09-28T10:37:58Z</time>
      </trkpt>
      <trkpt lat="46.47163" lon="6.42059">
        <ele>405.7</ele>
        <time>2022-09-28T10:37:59Z</time>
      </trkpt>
      <trkpt lat="46.47163" lon="6.42067">
        <ele>405.6</ele>
        <time>2022-09-28T10:38:00Z</time>
      </trkpt>
      <trkpt lat="46.47164" lon="6.42076">
        <ele>405.6</ele>
        <time>2022-09-28T10:38:01Z</time>
      </trkpt>
      <trkpt lat="46.47163" lon="6.42086">
        <ele>405.6</ele>
        <time>2022-09-28T10:38:02Z</time>
      </trkpt>
      <trkpt lat="46.47163" lon="6.42094">
        <ele>405.5</ele>
        <time>2022-09-28T10:38:03Z</time>
      </trkpt>
      <trkpt lat="46.47163" lon="6.42104">
        <ele>405.5</ele>
        <time>2022-09-28T10:38:04Z</time>
      </trkpt>
      <trkpt lat="46.47163" lon="6.42112">
        <ele>405.4</ele>
        <time>2022-09-28T10:38:05Z</time>
      </trkpt>
      <trkpt lat="46.47163" lon="6.42121">
        <ele>405.3</ele>
        <time>2022-09-28T10:38:06Z</time>
      </trkpt>
      <trkpt lat="46.47163" lon="6.42129">
        <ele>405.3</ele>
        <time>2022-09-28T10:38:07Z</time>
      </trkpt>
      <trkpt lat="46.47163" lon="6.42137">
        <ele>405.2</ele>
        <time>2022-09-28T10:38:08Z</time>
      </trkpt>
      <trkpt lat="46.47163" lon="6.42144">
        <ele>405.2</ele>
        <time>2022-09-28T10:38:09Z</time>
      </trkpt>
      <trkpt lat="46.47163" lon="6.42151">
        <ele>405.1</ele>
        <time>2022-09-28T10:38:10Z</time>
      </trkpt>
      <trkpt lat="46.47163" lon="6.4216">
        <ele>405</ele>
        <time>2022-09-28T10:38:11Z</time>
      </trkpt>
      <trkpt lat="46.47163" lon="6.42167">
        <ele>405</ele>
        <time>2022-09-28T10:38:12Z</time>
      </trkpt>
      <trkpt lat="46.47163" lon="6.42176">
        <ele>404.9</ele>
        <time>2022-09-28T10:38:13Z</time>
      </trkpt>
      <trkpt lat="46.47164" lon="6.42184">
        <ele>404.8</ele>
        <time>2022-09-28T10:38:14Z</time>
      </trkpt>
      <trkpt lat="46.47164" lon="6.42192">
        <ele>404.7</ele>
        <time>2022-09-28T10:38:16Z</time>
      </trkpt>
      <trkpt lat="46.47164" lon="6.42201">
        <ele>404.7</ele>
        <time>2022-09-28T10:38:17Z</time>
      </trkpt>
      <trkpt lat="46.47163" lon="6.42209">
        <ele>404.6</ele>
        <time>2022-09-28T10:38:18Z</time>
      </trkpt>
      <trkpt lat="46.47164" lon="6.42217">
        <ele>404.5</ele>
        <time>2022-09-28T10:38:19Z</time>
      </trkpt>
      <trkpt lat="46.47164" lon="6.42226">
        <ele>404.3</ele>
        <time>2022-09-28T10:38:20Z</time>
      </trkpt>
      <trkpt lat="46.47165" lon="6.42233">
        <ele>404.2</ele>
        <time>2022-09-28T10:38:21Z</time>
      </trkpt>
      <trkpt lat="46.47165" lon="6.42242">
        <ele>404.1</ele>
        <time>2022-09-28T10:38:22Z</time>
      </trkpt>
      <trkpt lat="46.47165" lon="6.4225">
        <ele>404</ele>
        <time>2022-09-28T10:38:23Z</time>
      </trkpt>
      <trkpt lat="46.47165" lon="6.42259">
        <ele>403.8</ele>
        <time>2022-09-28T10:38:24Z</time>
      </trkpt>
      <trkpt lat="46.47163" lon="6.42267">
        <ele>403.7</ele>
        <time>2022-09-28T10:38:25Z</time>
      </trkpt>
      <trkpt lat="46.47162" lon="6.42276">
        <ele>403.6</ele>
        <time>2022-09-28T10:38:26Z</time>
      </trkpt>
      <trkpt lat="46.47163" lon="6.42284">
        <ele>403.4</ele>
        <time>2022-09-28T10:38:27Z</time>
      </trkpt>
      <trkpt lat="46.47163" lon="6.42293">
        <ele>403.3</ele>
        <time>2022-09-28T10:38:28Z</time>
      </trkpt>
      <trkpt lat="46.47163" lon="6.42302">
        <ele>403.2</ele>
        <time>2022-09-28T10:38:29Z</time>
      </trkpt>
      <trkpt lat="46.47164" lon="6.42312">
        <ele>403.1</ele>
        <time>2022-09-28T10:38:30Z</time>
      </trkpt>
      <trkpt lat="46.47164" lon="6.42321">
        <ele>402.9</ele>
        <time>2022-09-28T10:38:31Z</time>
      </trkpt>
      <trkpt lat="46.47165" lon="6.4233">
        <ele>402.8</ele>
        <time>2022-09-28T10:38:32Z</time>
      </trkpt>
      <trkpt lat="46.47166" lon="6.4234">
        <ele>402.7</ele>
        <time>2022-09-28T10:38:33Z</time>
      </trkpt>
      <trkpt lat="46.47166" lon="6.4235">
        <ele>402.6</ele>
        <time>2022-09-28T10:38:34Z</time>
      </trkpt>
      <trkpt lat="46.47167" lon="6.42359">
        <ele>402.5</ele>
        <time>2022-09-28T10:38:35Z</time>
      </trkpt>
      <trkpt lat="46.47165" lon="6.42371">
        <ele>402.3</ele>
        <time>2022-09-28T10:38:36Z</time>
      </trkpt>
      <trkpt lat="46.47164" lon="6.42382">
        <ele>402.3</ele>
        <time>2022-09-28T10:38:37Z</time>
      </trkpt>
      <trkpt lat="46.47165" lon="6.42391">
        <ele>402.2</ele>
        <time>2022-09-28T10:38:38Z</time>
      </trkpt>
      <trkpt lat="46.47164" lon="6.42401">
        <ele>402.1</ele>
        <time>2022-09-28T10:38:39Z</time>
      </trkpt>
      <trkpt lat="46.47165" lon="6.42411">
        <ele>402</ele>
        <time>2022-09-28T10:38:40Z</time>
      </trkpt>
      <trkpt lat="46.47166" lon="6.4242">
        <ele>402</ele>
        <time>2022-09-28T10:38:41Z</time>
      </trkpt>
      <trkpt lat="46.47166" lon="6.42429">
        <ele>402</ele>
        <time>2022-09-28T10:38:42Z</time>
      </trkpt>
      <trkpt lat="46.47166" lon="6.42437">
        <ele>401.9</ele>
        <time>2022-09-28T10:38:43Z</time>
      </trkpt>
      <trkpt lat="46.47165" lon="6.42446">
        <ele>401.9</ele>
        <time>2022-09-28T10:38:44Z</time>
      </trkpt>
      <trkpt lat="46.47164" lon="6.42455">
        <ele>401.9</ele>
        <time>2022-09-28T10:38:45Z</time>
      </trkpt>
      <trkpt lat="46.47163" lon="6.42464">
        <ele>401.9</ele>
        <time>2022-09-28T10:38:46Z</time>
      </trkpt>
      <trkpt lat="46.47163" lon="6.42473">
        <ele>401.8</ele>
        <time>2022-09-28T10:38:47Z</time>
      </trkpt>
      <trkpt lat="46.47162" lon="6.42481">
        <ele>401.8</ele>
        <time>2022-09-28T10:38:48Z</time>
      </trkpt>
      <trkpt lat="46.47162" lon="6.42488">
        <ele>401.8</ele>
        <time>2022-09-28T10:38:49Z</time>
      </trkpt>
      <trkpt lat="46.47161" lon="6.42494">
        <ele>401.7</ele>
        <time>2022-09-28T10:38:50Z</time>
      </trkpt>
      <trkpt lat="46.4716" lon="6.42501">
        <ele>401.7</ele>
        <time>2022-09-28T10:38:51Z</time>
      </trkpt>
      <trkpt lat="46.47159" lon="6.42508">
        <ele>401.6</ele>
        <time>2022-09-28T10:38:52Z</time>
      </trkpt>
      <trkpt lat="46.47158" lon="6.42513">
        <ele>401.6</ele>
        <time>2022-09-28T10:38:53Z</time>
      </trkpt>
      <trkpt lat="46.47158" lon="6.42519">
        <ele>401.5</ele>
        <time>2022-09-28T10:38:54Z</time>
      </trkpt>
      <trkpt lat="46.47158" lon="6.42526">
        <ele>401.4</ele>
        <time>2022-09-28T10:38:55Z</time>
      </trkpt>
      <trkpt lat="46.47157" lon="6.42533">
        <ele>401.4</ele>
        <time>2022-09-28T10:38:56Z</time>
      </trkpt>
      <trkpt lat="46.47158" lon="6.42538">
        <ele>401.3</ele>
        <time>2022-09-28T10:38:57Z</time>
      </trkpt>
      <trkpt lat="46.47161" lon="6.42544">
        <ele>401.2</ele>
        <time>2022-09-28T10:38:58Z</time>
      </trkpt>
      <trkpt lat="46.47162" lon="6.42551">
        <ele>401</ele>
        <time>2022-09-28T10:38:59Z</time>
      </trkpt>
      <trkpt lat="46.47164" lon="6.42558">
        <ele>400.9</ele>
        <time>2022-09-28T10:39:00Z</time>
      </trkpt>
      <trkpt lat="46.47166" lon="6.42565">
        <ele>400.7</ele>
        <time>2022-09-28T10:39:01Z</time>
      </trkpt>
      <trkpt lat="46.47168" lon="6.42574">
        <ele>400.5</ele>
        <time>2022-09-28T10:39:02Z</time>
      </trkpt>
      <trkpt lat="46.47168" lon="6.42585">
        <ele>400.2</ele>
        <time>2022-09-28T10:39:03Z</time>
      </trkpt>
      <trkpt lat="46.47171" lon="6.42592">
        <ele>400</ele>
        <time>2022-09-28T10:39:04Z</time>
      </trkpt>
      <trkpt lat="46.47172" lon="6.42602">
        <ele>399.8</ele>
        <time>2022-09-28T10:39:05Z</time>
      </trkpt>
      <trkpt lat="46.47174" lon="6.4261">
        <ele>399.5</ele>
        <time>2022-09-28T10:39:06Z</time>
      </trkpt>
      <trkpt lat="46.47177" lon="6.42619">
        <ele>399.3</ele>
        <time>2022-09-28T10:39:07Z</time>
      </trkpt>
      <trkpt lat="46.47179" lon="6.42629">
        <ele>399</ele>
        <time>2022-09-28T10:39:08Z</time>
      </trkpt>
      <trkpt lat="46.47181" lon="6.42639">
        <ele>398.8</ele>
        <time>2022-09-28T10:39:09Z</time>
      </trkpt>
      <trkpt lat="46.47183" lon="6.42648">
        <ele>398.6</ele>
        <time>2022-09-28T10:39:10Z</time>
      </trkpt>
      <trkpt lat="46.47185" lon="6.42657">
        <ele>398.5</ele>
        <time>2022-09-28T10:39:11Z</time>
      </trkpt>
      <trkpt lat="46.47188" lon="6.42666">
        <ele>398.3</ele>
        <time>2022-09-28T10:39:12Z</time>
      </trkpt>
      <trkpt lat="46.47189" lon="6.42676">
        <ele>398.1</ele>
        <time>2022-09-28T10:39:13Z</time>
      </trkpt>
      <trkpt lat="46.4719" lon="6.42685">
        <ele>398</ele>
        <time>2022-09-28T10:39:14Z</time>
      </trkpt>
      <trkpt lat="46.47194" lon="6.42702">
        <ele>397.7</ele>
        <time>2022-09-28T10:39:15Z</time>
      </trkpt>
      <trkpt lat="46.47196" lon="6.42709">
        <ele>397.5</ele>
        <time>2022-09-28T10:39:16Z</time>
      </trkpt>
      <trkpt lat="46.47198" lon="6.42715">
        <ele>397.4</ele>
        <time>2022-09-28T10:39:17Z</time>
      </trkpt>
      <trkpt lat="46.472" lon="6.42721">
        <ele>397.4</ele>
        <time>2022-09-28T10:39:18Z</time>
      </trkpt>
      <trkpt lat="46.47201" lon="6.42725">
        <ele>397.3</ele>
        <time>2022-09-28T10:39:19Z</time>
      </trkpt>
      <trkpt lat="46.47203" lon="6.42732">
        <ele>397.2</ele>
        <time>2022-09-28T10:39:20Z</time>
      </trkpt>
      <trkpt lat="46.47204" lon="6.42739">
        <ele>397</ele>
        <time>2022-09-28T10:39:21Z</time>
      </trkpt>
      <trkpt lat="46.47205" lon="6.42746">
        <ele>396.9</ele>
        <time>2022-09-28T10:39:22Z</time>
      </trkpt>
      <trkpt lat="46.47205" lon="6.42754">
        <ele>396.7</ele>
        <time>2022-09-28T10:39:23Z</time>
      </trkpt>
      <trkpt lat="46.47205" lon="6.42763">
        <ele>396.6</ele>
        <time>2022-09-28T10:39:24Z</time>
      </trkpt>
      <trkpt lat="46.47205" lon="6.42772">
        <ele>396.4</ele>
        <time>2022-09-28T10:39:25Z</time>
      </trkpt>
      <trkpt lat="46.47206" lon="6.42781">
        <ele>396.3</ele>
        <time>2022-09-28T10:39:26Z</time>
      </trkpt>
      <trkpt lat="46.47207" lon="6.4279">
        <ele>396.2</ele>
        <time>2022-09-28T10:39:27Z</time>
      </trkpt>
      <trkpt lat="46.47207" lon="6.428">
        <ele>396</ele>
        <time>2022-09-28T10:39:28Z</time>
      </trkpt>
      <trkpt lat="46.47207" lon="6.4281">
        <ele>395.9</ele>
        <time>2022-09-28T10:39:29Z</time>
      </trkpt>
      <trkpt lat="46.47207" lon="6.4282">
        <ele>395.8</ele>
        <time>2022-09-28T10:39:30Z</time>
      </trkpt>
      <trkpt lat="46.47207" lon="6.4283">
        <ele>395.7</ele>
        <time>2022-09-28T10:39:31Z</time>
      </trkpt>
      <trkpt lat="46.47208" lon="6.4284">
        <ele>395.5</ele>
        <time>2022-09-28T10:39:32Z</time>
      </trkpt>
      <trkpt lat="46.47208" lon="6.42849">
        <ele>395.3</ele>
        <time>2022-09-28T10:39:33Z</time>
      </trkpt>
      <trkpt lat="46.47207" lon="6.42859">
        <ele>395.1</ele>
        <time>2022-09-28T10:39:34Z</time>
      </trkpt>
      <trkpt lat="46.47206" lon="6.42869">
        <ele>394.9</ele>
        <time>2022-09-28T10:39:35Z</time>
      </trkpt>
      <trkpt lat="46.47206" lon="6.42879">
        <ele>394.6</ele>
        <time>2022-09-28T10:39:36Z</time>
      </trkpt>
      <trkpt lat="46.47206" lon="6.42889">
        <ele>394.4</ele>
        <time>2022-09-28T10:39:37Z</time>
      </trkpt>
      <trkpt lat="46.47206" lon="6.42899">
        <ele>394.1</ele>
        <time>2022-09-28T10:39:38Z</time>
      </trkpt>
      <trkpt lat="46.47206" lon="6.4291">
        <ele>393.8</ele>
        <time>2022-09-28T10:39:39Z</time>
      </trkpt>
      <trkpt lat="46.47205" lon="6.42922">
        <ele>393.5</ele>
        <time>2022-09-28T10:39:40Z</time>
      </trkpt>
      <trkpt lat="46.47205" lon="6.42932">
        <ele>393.2</ele>
        <time>2022-09-28T10:39:41Z</time>
      </trkpt>
      <trkpt lat="46.47204" lon="6.42943">
        <ele>393</ele>
        <time>2022-09-28T10:39:42Z</time>
      </trkpt>
      <trkpt lat="46.47204" lon="6.42954">
        <ele>392.7</ele>
        <time>2022-09-28T10:39:43Z</time>
      </trkpt>
      <trkpt lat="46.47205" lon="6.42964">
        <ele>392.5</ele>
        <time>2022-09-28T10:39:44Z</time>
      </trkpt>
      <trkpt lat="46.47205" lon="6.42973">
        <ele>392.3</ele>
        <time>2022-09-28T10:39:45Z</time>
      </trkpt>
      <trkpt lat="46.47206" lon="6.42982">
        <ele>392.1</ele>
        <time>2022-09-28T10:39:46Z</time>
      </trkpt>
      <trkpt lat="46.47206" lon="6.4299">
        <ele>391.9</ele>
        <time>2022-09-28T10:39:47Z</time>
      </trkpt>
      <trkpt lat="46.47209" lon="6.42997">
        <ele>391.8</ele>
        <time>2022-09-28T10:39:48Z</time>
      </trkpt>
      <trkpt lat="46.47211" lon="6.43005">
        <ele>391.6</ele>
        <time>2022-09-28T10:39:49Z</time>
      </trkpt>
      <trkpt lat="46.47214" lon="6.43012">
        <ele>391.4</ele>
        <time>2022-09-28T10:39:50Z</time>
      </trkpt>
      <trkpt lat="46.47217" lon="6.4302">
        <ele>391.2</ele>
        <time>2022-09-28T10:39:51Z</time>
      </trkpt>
      <trkpt lat="46.4722" lon="6.43026">
        <ele>391</ele>
        <time>2022-09-28T10:39:52Z</time>
      </trkpt>
      <trkpt lat="46.47223" lon="6.43033">
        <ele>390.8</ele>
        <time>2022-09-28T10:39:53Z</time>
      </trkpt>
      <trkpt lat="46.47227" lon="6.43039">
        <ele>390.6</ele>
        <time>2022-09-28T10:39:54Z</time>
      </trkpt>
      <trkpt lat="46.47228" lon="6.43046">
        <ele>390.5</ele>
        <time>2022-09-28T10:39:55Z</time>
      </trkpt>
      <trkpt lat="46.47231" lon="6.43052">
        <ele>390.5</ele>
        <time>2022-09-28T10:39:56Z</time>
      </trkpt>
      <trkpt lat="46.47234" lon="6.43058">
        <ele>390.5</ele>
        <time>2022-09-28T10:39:57Z</time>
      </trkpt>
      <trkpt lat="46.47236" lon="6.43065">
        <ele>390.5</ele>
        <time>2022-09-28T10:39:58Z</time>
      </trkpt>
      <trkpt lat="46.47238" lon="6.43071">
        <ele>390.5</ele>
        <time>2022-09-28T10:39:59Z</time>
      </trkpt>
      <trkpt lat="46.47239" lon="6.43079">
        <ele>390.4</ele>
        <time>2022-09-28T10:40:00Z</time>
      </trkpt>
      <trkpt lat="46.47239" lon="6.43086">
        <ele>390.4</ele>
        <time>2022-09-28T10:40:01Z</time>
      </trkpt>
      <trkpt lat="46.47239" lon="6.43093">
        <ele>390.3</ele>
        <time>2022-09-28T10:40:02Z</time>
      </trkpt>
      <trkpt lat="46.47238" lon="6.431">
        <ele>390.3</ele>
        <time>2022-09-28T10:40:03Z</time>
      </trkpt>
      <trkpt lat="46.47238" lon="6.43106">
        <ele>390.3</ele>
        <time>2022-09-28T10:40:04Z</time>
      </trkpt>
      <trkpt lat="46.47238" lon="6.43112">
        <ele>390.3</ele>
        <time>2022-09-28T10:40:05Z</time>
      </trkpt>
      <trkpt lat="46.47238" lon="6.43119">
        <ele>390.3</ele>
        <time>2022-09-28T10:40:06Z</time>
      </trkpt>
      <trkpt lat="46.47237" lon="6.43126">
        <ele>390.3</ele>
        <time>2022-09-28T10:40:07Z</time>
      </trkpt>
      <trkpt lat="46.47237" lon="6.43132">
        <ele>390.3</ele>
        <time>2022-09-28T10:40:08Z</time>
      </trkpt>
      <trkpt lat="46.47238" lon="6.4314">
        <ele>390.3</ele>
        <time>2022-09-28T10:40:09Z</time>
      </trkpt>
      <trkpt lat="46.47238" lon="6.43147">
        <ele>390.4</ele>
        <time>2022-09-28T10:40:10Z</time>
      </trkpt>
      <trkpt lat="46.47238" lon="6.43154">
        <ele>390.4</ele>
        <time>2022-09-28T10:40:11Z</time>
      </trkpt>
      <trkpt lat="46.47238" lon="6.43161">
        <ele>390.4</ele>
        <time>2022-09-28T10:40:12Z</time>
      </trkpt>
      <trkpt lat="46.47238" lon="6.43167">
        <ele>390.5</ele>
        <time>2022-09-28T10:40:13Z</time>
      </trkpt>
      <trkpt lat="46.47239" lon="6.43174">
        <ele>390.5</ele>
        <time>2022-09-28T10:40:14Z</time>
      </trkpt>
      <trkpt lat="46.4724" lon="6.4318">
        <ele>390.6</ele>
        <time>2022-09-28T10:40:15Z</time>
      </trkpt>
      <trkpt lat="46.47241" lon="6.43186">
        <ele>390.7</ele>
        <time>2022-09-28T10:40:16Z</time>
      </trkpt>
      <trkpt lat="46.47243" lon="6.43192">
        <ele>390.8</ele>
        <time>2022-09-28T10:40:17Z</time>
      </trkpt>
      <trkpt lat="46.47244" lon="6.43198">
        <ele>390.8</ele>
        <time>2022-09-28T10:40:18Z</time>
      </trkpt>
      <trkpt lat="46.47246" lon="6.43204">
        <ele>391</ele>
        <time>2022-09-28T10:40:19Z</time>
      </trkpt>
      <trkpt lat="46.47248" lon="6.43209">
        <ele>391.1</ele>
        <time>2022-09-28T10:40:20Z</time>
      </trkpt>
      <trkpt lat="46.4725" lon="6.43214">
        <ele>391.2</ele>
        <time>2022-09-28T10:40:22Z</time>
      </trkpt>
      <trkpt lat="46.47252" lon="6.43219">
        <ele>391.3</ele>
        <time>2022-09-28T10:40:23Z</time>
      </trkpt>
      <trkpt lat="46.47255" lon="6.43223">
        <ele>391.5</ele>
        <time>2022-09-28T10:40:24Z</time>
      </trkpt>
      <trkpt lat="46.47257" lon="6.43228">
        <ele>391.6</ele>
        <time>2022-09-28T10:40:25Z</time>
      </trkpt>
      <trkpt lat="46.47258" lon="6.43232">
        <ele>391.7</ele>
        <time>2022-09-28T10:40:26Z</time>
      </trkpt>
      <trkpt lat="46.47261" lon="6.43236">
        <ele>391.9</ele>
        <time>2022-09-28T10:40:27Z</time>
      </trkpt>
      <trkpt lat="46.47263" lon="6.4324">
        <ele>392</ele>
        <time>2022-09-28T10:40:28Z</time>
      </trkpt>
      <trkpt lat="46.47264" lon="6.43244">
        <ele>392.2</ele>
        <time>2022-09-28T10:40:29Z</time>
      </trkpt>
      <trkpt lat="46.47267" lon="6.43247">
        <ele>392.3</ele>
        <time>2022-09-28T10:40:30Z</time>
      </trkpt>
      <trkpt lat="46.47269" lon="6.43252">
        <ele>392.5</ele>
        <time>2022-09-28T10:40:31Z</time>
      </trkpt>
      <trkpt lat="46.4727" lon="6.43254">
        <ele>392.6</ele>
        <time>2022-09-28T10:40:32Z</time>
      </trkpt>
      <trkpt lat="46.47271" lon="6.43257">
        <ele>392.8</ele>
        <time>2022-09-28T10:40:33Z</time>
      </trkpt>
      <trkpt lat="46.47274" lon="6.43261">
        <ele>393</ele>
        <time>2022-09-28T10:40:34Z</time>
      </trkpt>
      <trkpt lat="46.47275" lon="6.43263">
        <ele>393</ele>
        <time>2022-09-28T10:40:35Z</time>
      </trkpt>
      <trkpt lat="46.47276" lon="6.43267">
        <ele>393.2</ele>
        <time>2022-09-28T10:40:36Z</time>
      </trkpt>
      <trkpt lat="46.47277" lon="6.43268">
        <ele>393.3</ele>
        <time>2022-09-28T10:40:37Z</time>
      </trkpt>
      <trkpt lat="46.47279" lon="6.43271">
        <ele>393.5</ele>
        <time>2022-09-28T10:40:38Z</time>
      </trkpt>
      <trkpt lat="46.4728" lon="6.43272">
        <ele>393.5</ele>
        <time>2022-09-28T10:40:39Z</time>
      </trkpt>
      <trkpt lat="46.47282" lon="6.43276">
        <ele>393.7</ele>
        <time>2022-09-28T10:40:40Z</time>
      </trkpt>
      <trkpt lat="46.47282" lon="6.43278">
        <ele>393.8</ele>
        <time>2022-09-28T10:40:41Z</time>
      </trkpt>
      <trkpt lat="46.47284" lon="6.43281">
        <ele>393.9</ele>
        <time>2022-09-28T10:40:42Z</time>
      </trkpt>
      <trkpt lat="46.47285" lon="6.43282">
        <ele>394</ele>
        <time>2022-09-28T10:40:43Z</time>
      </trkpt>
      <trkpt lat="46.47287" lon="6.43286">
        <ele>394.2</ele>
        <time>2022-09-28T10:40:44Z</time>
      </trkpt>
      <trkpt lat="46.47287" lon="6.43287">
        <ele>394.2</ele>
        <time>2022-09-28T10:40:45Z</time>
      </trkpt>
      <trkpt lat="46.47289" lon="6.4329">
        <ele>394.4</ele>
        <time>2022-09-28T10:40:46Z</time>
      </trkpt>
      <trkpt lat="46.47289" lon="6.43291">
        <ele>394.4</ele>
        <time>2022-09-28T10:40:47Z</time>
      </trkpt>
      <trkpt lat="46.47291" lon="6.43295">
        <ele>394.6</ele>
        <time>2022-09-28T10:40:48Z</time>
      </trkpt>
      <trkpt lat="46.47292" lon="6.43296">
        <ele>394.6</ele>
        <time>2022-09-28T10:40:49Z</time>
      </trkpt>
      <trkpt lat="46.47294" lon="6.43299">
        <ele>394.8</ele>
        <time>2022-09-28T10:40:50Z</time>
      </trkpt>
      <trkpt lat="46.47295" lon="6.433">
        <ele>394.8</ele>
        <time>2022-09-28T10:40:51Z</time>
      </trkpt>
      <trkpt lat="46.47296" lon="6.43303">
        <ele>395</ele>
        <time>2022-09-28T10:40:52Z</time>
      </trkpt>
      <trkpt lat="46.47297" lon="6.43305">
        <ele>395</ele>
        <time>2022-09-28T10:40:53Z</time>
      </trkpt>
      <trkpt lat="46.47298" lon="6.43308">
        <ele>395.2</ele>
        <time>2022-09-28T10:40:54Z</time>
      </trkpt>
      <trkpt lat="46.47299" lon="6.4331">
        <ele>395.2</ele>
        <time>2022-09-28T10:40:55Z</time>
      </trkpt>
      <trkpt lat="46.473" lon="6.43312">
        <ele>395.3</ele>
        <time>2022-09-28T10:40:56Z</time>
      </trkpt>
      <trkpt lat="46.47301" lon="6.43314">
        <ele>395.4</ele>
        <time>2022-09-28T10:40:57Z</time>
      </trkpt>
      <trkpt lat="46.47303" lon="6.43318">
        <ele>395.5</ele>
        <time>2022-09-28T10:40:58Z</time>
      </trkpt>
      <trkpt lat="46.47303" lon="6.43319">
        <ele>395.5</ele>
        <time>2022-09-28T10:40:59Z</time>
      </trkpt>
      <trkpt lat="46.47305" lon="6.43324">
        <ele>395.7</ele>
        <time>2022-09-28T10:41:00Z</time>
      </trkpt>
      <trkpt lat="46.47306" lon="6.43325">
        <ele>395.7</ele>
        <time>2022-09-28T10:41:01Z</time>
      </trkpt>
      <trkpt lat="46.47309" lon="6.43329">
        <ele>395.9</ele>
        <time>2022-09-28T10:41:02Z</time>
      </trkpt>
      <trkpt lat="46.4731" lon="6.43331">
        <ele>395.9</ele>
        <time>2022-09-28T10:41:03Z</time>
      </trkpt>
      <trkpt lat="46.47312" lon="6.43336">
        <ele>396</ele>
        <time>2022-09-28T10:41:04Z</time>
      </trkpt>
      <trkpt lat="46.47313" lon="6.43338">
        <ele>396</ele>
        <time>2022-09-28T10:41:05Z</time>
      </trkpt>
      <trkpt lat="46.47315" lon="6.43341">
        <ele>396.1</ele>
        <time>2022-09-28T10:41:06Z</time>
      </trkpt>
      <trkpt lat="46.47316" lon="6.43345">
        <ele>396.1</ele>
        <time>2022-09-28T10:41:07Z</time>
      </trkpt>
      <trkpt lat="46.47318" lon="6.43348">
        <ele>396.2</ele>
        <time>2022-09-28T10:41:08Z</time>
      </trkpt>
      <trkpt lat="46.4732" lon="6.43352">
        <ele>396.2</ele>
        <time>2022-09-28T10:41:09Z</time>
      </trkpt>
      <trkpt lat="46.47322" lon="6.43355">
        <ele>396.2</ele>
        <time>2022-09-28T10:41:10Z</time>
      </trkpt>
      <trkpt lat="46.47324" lon="6.43358">
        <ele>396.2</ele>
        <time>2022-09-28T10:41:11Z</time>
      </trkpt>
      <trkpt lat="46.47326" lon="6.43362">
        <ele>396.2</ele>
        <time>2022-09-28T10:41:12Z</time>
      </trkpt>
      <trkpt lat="46.47328" lon="6.43366">
        <ele>396.2</ele>
        <time>2022-09-28T10:41:13Z</time>
      </trkpt>
      <trkpt lat="46.47331" lon="6.4337">
        <ele>396.2</ele>
        <time>2022-09-28T10:41:14Z</time>
      </trkpt>
      <trkpt lat="46.47333" lon="6.43375">
        <ele>396.2</ele>
        <time>2022-09-28T10:41:15Z</time>
      </trkpt>
      <trkpt lat="46.47336" lon="6.4338">
        <ele>396.1</ele>
        <time>2022-09-28T10:41:16Z</time>
      </trkpt>
      <trkpt lat="46.47338" lon="6.43384">
        <ele>396.1</ele>
        <time>2022-09-28T10:41:17Z</time>
      </trkpt>
      <trkpt lat="46.47341" lon="6.43389">
        <ele>396.1</ele>
        <time>2022-09-28T10:41:18Z</time>
      </trkpt>
      <trkpt lat="46.47345" lon="6.43395">
        <ele>396</ele>
        <time>2022-09-28T10:41:19Z</time>
      </trkpt>
      <trkpt lat="46.47347" lon="6.43399">
        <ele>396</ele>
        <time>2022-09-28T10:41:20Z</time>
      </trkpt>
      <trkpt lat="46.4735" lon="6.43403">
        <ele>396</ele>
        <time>2022-09-28T10:41:21Z</time>
      </trkpt>
      <trkpt lat="46.47353" lon="6.43408">
        <ele>396</ele>
        <time>2022-09-28T10:41:22Z</time>
      </trkpt>
      <trkpt lat="46.47355" lon="6.43415">
        <ele>396</ele>
        <time>2022-09-28T10:41:23Z</time>
      </trkpt>
      <trkpt lat="46.47357" lon="6.43423">
        <ele>396</ele>
        <time>2022-09-28T10:41:24Z</time>
      </trkpt>
      <trkpt lat="46.47359" lon="6.43431">
        <ele>396</ele>
        <time>2022-09-28T10:41:25Z</time>
      </trkpt>
      <trkpt lat="46.47359" lon="6.43441">
        <ele>396</ele>
        <time>2022-09-28T10:41:26Z</time>
      </trkpt>
      <trkpt lat="46.47359" lon="6.43449">
        <ele>396</ele>
        <time>2022-09-28T10:41:27Z</time>
      </trkpt>
      <trkpt lat="46.47359" lon="6.43457">
        <ele>396</ele>
        <time>2022-09-28T10:41:28Z</time>
      </trkpt>
      <trkpt lat="46.4736" lon="6.43465">
        <ele>396.1</ele>
        <time>2022-09-28T10:41:29Z</time>
      </trkpt>
      <trkpt lat="46.47361" lon="6.43472">
        <ele>396.1</ele>
        <time>2022-09-28T10:41:30Z</time>
      </trkpt>
      <trkpt lat="46.47362" lon="6.43487">
        <ele>396.3</ele>
        <time>2022-09-28T10:41:31Z</time>
      </trkpt>
      <trkpt lat="46.47363" lon="6.43494">
        <ele>396.4</ele>
        <time>2022-09-28T10:41:32Z</time>
      </trkpt>
      <trkpt lat="46.47364" lon="6.43501">
        <ele>396.4</ele>
        <time>2022-09-28T10:41:33Z</time>
      </trkpt>
      <trkpt lat="46.47364" lon="6.43507">
        <ele>396.5</ele>
        <time>2022-09-28T10:41:34Z</time>
      </trkpt>
      <trkpt lat="46.47365" lon="6.43513">
        <ele>396.6</ele>
        <time>2022-09-28T10:41:35Z</time>
      </trkpt>
      <trkpt lat="46.47365" lon="6.43519">
        <ele>396.7</ele>
        <time>2022-09-28T10:41:36Z</time>
      </trkpt>
      <trkpt lat="46.47366" lon="6.43525">
        <ele>396.8</ele>
        <time>2022-09-28T10:41:37Z</time>
      </trkpt>
      <trkpt lat="46.47366" lon="6.43531">
        <ele>396.9</ele>
        <time>2022-09-28T10:41:38Z</time>
      </trkpt>
      <trkpt lat="46.47367" lon="6.43537">
        <ele>397</ele>
        <time>2022-09-28T10:41:39Z</time>
      </trkpt>
      <trkpt lat="46.47367" lon="6.43542">
        <ele>397.1</ele>
        <time>2022-09-28T10:41:40Z</time>
      </trkpt>
      <trkpt lat="46.47368" lon="6.43548">
        <ele>397.2</ele>
        <time>2022-09-28T10:41:41Z</time>
      </trkpt>
      <trkpt lat="46.47368" lon="6.43554">
        <ele>397.3</ele>
        <time>2022-09-28T10:41:42Z</time>
      </trkpt>
      <trkpt lat="46.47369" lon="6.43559">
        <ele>397.3</ele>
        <time>2022-09-28T10:41:43Z</time>
      </trkpt>
      <trkpt lat="46.4737" lon="6.43565">
        <ele>397.4</ele>
        <time>2022-09-28T10:41:44Z</time>
      </trkpt>
      <trkpt lat="46.4737" lon="6.43571">
        <ele>397.5</ele>
        <time>2022-09-28T10:41:45Z</time>
      </trkpt>
      <trkpt lat="46.4737" lon="6.43577">
        <ele>397.6</ele>
        <time>2022-09-28T10:41:46Z</time>
      </trkpt>
      <trkpt lat="46.47371" lon="6.43582">
        <ele>397.7</ele>
        <time>2022-09-28T10:41:47Z</time>
      </trkpt>
      <trkpt lat="46.47371" lon="6.43587">
        <ele>397.7</ele>
        <time>2022-09-28T10:41:48Z</time>
      </trkpt>
      <trkpt lat="46.47372" lon="6.43592">
        <ele>397.8</ele>
        <time>2022-09-28T10:41:49Z</time>
      </trkpt>
      <trkpt lat="46.47372" lon="6.43597">
        <ele>397.9</ele>
        <time>2022-09-28T10:41:50Z</time>
      </trkpt>
      <trkpt lat="46.47373" lon="6.43602">
        <ele>397.9</ele>
        <time>2022-09-28T10:41:51Z</time>
      </trkpt>
      <trkpt lat="46.47373" lon="6.43607">
        <ele>398</ele>
        <time>2022-09-28T10:41:52Z</time>
      </trkpt>
      <trkpt lat="46.47373" lon="6.43612">
        <ele>398</ele>
        <time>2022-09-28T10:41:53Z</time>
      </trkpt>
      <trkpt lat="46.47374" lon="6.43617">
        <ele>398.1</ele>
        <time>2022-09-28T10:41:54Z</time>
      </trkpt>
      <trkpt lat="46.47374" lon="6.43621">
        <ele>398.1</ele>
        <time>2022-09-28T10:41:55Z</time>
      </trkpt>
      <trkpt lat="46.47375" lon="6.43625">
        <ele>398.1</ele>
        <time>2022-09-28T10:41:56Z</time>
      </trkpt>
      <trkpt lat="46.47376" lon="6.43631">
        <ele>398.2</ele>
        <time>2022-09-28T10:41:57Z</time>
      </trkpt>
      <trkpt lat="46.47376" lon="6.43633">
        <ele>398.2</ele>
        <time>2022-09-28T10:41:58Z</time>
      </trkpt>
      <trkpt lat="46.47376" lon="6.43636">
        <ele>398.2</ele>
        <time>2022-09-28T10:41:59Z</time>
      </trkpt>
      <trkpt lat="46.47376" lon="6.43638">
        <ele>398.3</ele>
        <time>2022-09-28T10:42:00Z</time>
      </trkpt>
      <trkpt lat="46.47376" lon="6.4364">
        <ele>398.3</ele>
        <time>2022-09-28T10:42:01Z</time>
      </trkpt>
      <trkpt lat="46.47376" lon="6.43641">
        <ele>398.3</ele>
        <time>2022-09-28T10:42:02Z</time>
      </trkpt>
      <trkpt lat="46.47376" lon="6.43642">
        <ele>398.3</ele>
        <time>2022-09-28T10:42:03Z</time>
      </trkpt>
      <trkpt lat="46.47376" lon="6.43643">
        <ele>398.3</ele>
        <time>2022-09-28T10:42:04Z</time>
      </trkpt>
      <trkpt lat="46.47377" lon="6.43645">
        <ele>398.4</ele>
        <time>2022-09-28T10:42:05Z</time>
      </trkpt>
      <trkpt lat="46.47378" lon="6.43647">
        <ele>398.4</ele>
        <time>2022-09-28T10:42:06Z</time>
      </trkpt>
      <trkpt lat="46.47379" lon="6.43649">
        <ele>398.4</ele>
        <time>2022-09-28T10:42:07Z</time>
      </trkpt>
      <trkpt lat="46.4738" lon="6.4365">
        <ele>398.4</ele>
        <time>2022-09-28T10:42:08Z</time>
      </trkpt>
      <trkpt lat="46.47381" lon="6.43654">
        <ele>398.5</ele>
        <time>2022-09-28T10:42:09Z</time>
      </trkpt>
      <trkpt lat="46.47382" lon="6.43656">
        <ele>398.5</ele>
        <time>2022-09-28T10:42:10Z</time>
      </trkpt>
      <trkpt lat="46.47384" lon="6.43659">
        <ele>398.6</ele>
        <time>2022-09-28T10:42:11Z</time>
      </trkpt>
      <trkpt lat="46.47385" lon="6.4366">
        <ele>398.6</ele>
        <time>2022-09-28T10:42:12Z</time>
      </trkpt>
      <trkpt lat="46.47386" lon="6.43663">
        <ele>398.6</ele>
        <time>2022-09-28T10:42:13Z</time>
      </trkpt>
      <trkpt lat="46.47387" lon="6.43665">
        <ele>398.6</ele>
        <time>2022-09-28T10:42:14Z</time>
      </trkpt>
      <trkpt lat="46.47387" lon="6.43667">
        <ele>398.7</ele>
        <time>2022-09-28T10:42:15Z</time>
      </trkpt>
      <trkpt lat="46.47387" lon="6.43668">
        <ele>398.7</ele>
        <time>2022-09-28T10:42:16Z</time>
      </trkpt>
      <trkpt lat="46.47387" lon="6.43669">
        <ele>398.7</ele>
        <time>2022-09-28T10:42:17Z</time>
      </trkpt>
      <trkpt lat="46.47387" lon="6.43671">
        <ele>398.7</ele>
        <time>2022-09-28T10:42:18Z</time>
      </trkpt>
      <trkpt lat="46.47387" lon="6.43672">
        <ele>398.7</ele>
        <time>2022-09-28T10:42:19Z</time>
      </trkpt>
      <trkpt lat="46.47388" lon="6.43673">
        <ele>398.7</ele>
        <time>2022-09-28T10:42:20Z</time>
      </trkpt>
      <trkpt lat="46.47388" lon="6.43674">
        <ele>398.7</ele>
        <time>2022-09-28T10:42:21Z</time>
      </trkpt>
      <trkpt lat="46.47388" lon="6.43675">
        <ele>398.8</ele>
        <time>2022-09-28T10:42:22Z</time>
      </trkpt>
      <trkpt lat="46.47388" lon="6.43676">
        <ele>398.8</ele>
        <time>2022-09-28T10:42:23Z</time>
      </trkpt>
      <trkpt lat="46.47388" lon="6.43678">
        <ele>398.8</ele>
        <time>2022-09-28T10:42:24Z</time>
      </trkpt>
      <trkpt lat="46.47388" lon="6.43679">
        <ele>398.8</ele>
        <time>2022-09-28T10:42:25Z</time>
      </trkpt>
      <trkpt lat="46.47389" lon="6.4368">
        <ele>398.8</ele>
        <time>2022-09-28T10:44:46Z</time>
      </trkpt>
      <trkpt lat="46.47389" lon="6.43681">
        <ele>398.8</ele>
        <time>2022-09-28T10:44:47Z</time>
      </trkpt>
      <trkpt lat="46.47389" lon="6.43682">
        <ele>398.8</ele>
        <time>2022-09-28T10:44:48Z</time>
      </trkpt>
      <trkpt lat="46.47388" lon="6.43686">
        <ele>398.9</ele>
        <time>2022-09-28T10:44:49Z</time>
      </trkpt>
      <trkpt lat="46.47388" lon="6.43691">
        <ele>398.9</ele>
        <time>2022-09-28T10:44:50Z</time>
      </trkpt>
      <trkpt lat="46.47389" lon="6.43696">
        <ele>399</ele>
        <time>2022-09-28T10:44:51Z</time>
      </trkpt>
      <trkpt lat="46.4739" lon="6.43701">
        <ele>399</ele>
        <time>2022-09-28T10:44:52Z</time>
      </trkpt>
      <trkpt lat="46.47391" lon="6.43707">
        <ele>399.1</ele>
        <time>2022-09-28T10:44:53Z</time>
      </trkpt>
      <trkpt lat="46.47393" lon="6.43713">
        <ele>399.2</ele>
        <time>2022-09-28T10:44:54Z</time>
      </trkpt>
      <trkpt lat="46.47394" lon="6.43718">
        <ele>399.2</ele>
        <time>2022-09-28T10:44:55Z</time>
      </trkpt>
      <trkpt lat="46.47396" lon="6.43723">
        <ele>399.3</ele>
        <time>2022-09-28T10:44:56Z</time>
      </trkpt>
      <trkpt lat="46.47397" lon="6.4373">
        <ele>399.4</ele>
        <time>2022-09-28T10:44:57Z</time>
      </trkpt>
      <trkpt lat="46.47398" lon="6.43735">
        <ele>399.5</ele>
        <time>2022-09-28T10:44:58Z</time>
      </trkpt>
      <trkpt lat="46.47399" lon="6.43741">
        <ele>399.5</ele>
        <time>2022-09-28T10:44:59Z</time>
      </trkpt>
      <trkpt lat="46.47401" lon="6.43746">
        <ele>399.6</ele>
        <time>2022-09-28T10:45:00Z</time>
      </trkpt>
      <trkpt lat="46.47402" lon="6.43752">
        <ele>399.7</ele>
        <time>2022-09-28T10:45:01Z</time>
      </trkpt>
      <trkpt lat="46.47404" lon="6.43758">
        <ele>399.8</ele>
        <time>2022-09-28T10:45:02Z</time>
      </trkpt>
      <trkpt lat="46.47405" lon="6.43764">
        <ele>399.9</ele>
        <time>2022-09-28T10:45:03Z</time>
      </trkpt>
      <trkpt lat="46.47407" lon="6.43771">
        <ele>400</ele>
        <time>2022-09-28T10:45:04Z</time>
      </trkpt>
      <trkpt lat="46.47408" lon="6.43776">
        <ele>400</ele>
        <time>2022-09-28T10:45:05Z</time>
      </trkpt>
      <trkpt lat="46.47409" lon="6.43783">
        <ele>400.1</ele>
        <time>2022-09-28T10:45:06Z</time>
      </trkpt>
      <trkpt lat="46.4741" lon="6.43788">
        <ele>400.2</ele>
        <time>2022-09-28T10:45:07Z</time>
      </trkpt>
      <trkpt lat="46.47411" lon="6.43794">
        <ele>400.3</ele>
        <time>2022-09-28T10:45:08Z</time>
      </trkpt>
      <trkpt lat="46.47412" lon="6.438">
        <ele>400.4</ele>
        <time>2022-09-28T10:45:09Z</time>
      </trkpt>
      <trkpt lat="46.47414" lon="6.43805">
        <ele>400.4</ele>
        <time>2022-09-28T10:45:10Z</time>
      </trkpt>
      <trkpt lat="46.47415" lon="6.43811">
        <ele>400.5</ele>
        <time>2022-09-28T10:45:11Z</time>
      </trkpt>
      <trkpt lat="46.47417" lon="6.43818">
        <ele>400.6</ele>
        <time>2022-09-28T10:45:12Z</time>
      </trkpt>
      <trkpt lat="46.47418" lon="6.43823">
        <ele>400.7</ele>
        <time>2022-09-28T10:45:13Z</time>
      </trkpt>
      <trkpt lat="46.4742" lon="6.43829">
        <ele>400.7</ele>
        <time>2022-09-28T10:45:14Z</time>
      </trkpt>
      <trkpt lat="46.47421" lon="6.43835">
        <ele>400.8</ele>
        <time>2022-09-28T10:45:15Z</time>
      </trkpt>
      <trkpt lat="46.47423" lon="6.43841">
        <ele>400.9</ele>
        <time>2022-09-28T10:45:16Z</time>
      </trkpt>
      <trkpt lat="46.47424" lon="6.43847">
        <ele>401</ele>
        <time>2022-09-28T10:45:17Z</time>
      </trkpt>
      <trkpt lat="46.47425" lon="6.43853">
        <ele>401.1</ele>
        <time>2022-09-28T10:45:18Z</time>
      </trkpt>
      <trkpt lat="46.47427" lon="6.43859">
        <ele>401.2</ele>
        <time>2022-09-28T10:45:19Z</time>
      </trkpt>
      <trkpt lat="46.47428" lon="6.43864">
        <ele>401.3</ele>
        <time>2022-09-28T10:45:20Z</time>
      </trkpt>
      <trkpt lat="46.47429" lon="6.43869">
        <ele>401.4</ele>
        <time>2022-09-28T10:45:21Z</time>
      </trkpt>
      <trkpt lat="46.4743" lon="6.43874">
        <ele>401.4</ele>
        <time>2022-09-28T10:45:22Z</time>
      </trkpt>
      <trkpt lat="46.47431" lon="6.43878">
        <ele>401.5</ele>
        <time>2022-09-28T10:45:23Z</time>
      </trkpt>
      <trkpt lat="46.47433" lon="6.43883">
        <ele>401.5</ele>
        <time>2022-09-28T10:45:24Z</time>
      </trkpt>
      <trkpt lat="46.47434" lon="6.43887">
        <ele>401.5</ele>
        <time>2022-09-28T10:45:25Z</time>
      </trkpt>
      <trkpt lat="46.47434" lon="6.43893">
        <ele>401.6</ele>
        <time>2022-09-28T10:45:26Z</time>
      </trkpt>
      <trkpt lat="46.47436" lon="6.43898">
        <ele>401.6</ele>
        <time>2022-09-28T10:45:27Z</time>
      </trkpt>
      <trkpt lat="46.47438" lon="6.43903">
        <ele>401.7</ele>
        <time>2022-09-28T10:45:28Z</time>
      </trkpt>
      <trkpt lat="46.47438" lon="6.43909">
        <ele>401.7</ele>
        <time>2022-09-28T10:45:29Z</time>
      </trkpt>
      <trkpt lat="46.4744" lon="6.43915">
        <ele>401.8</ele>
        <time>2022-09-28T10:45:30Z</time>
      </trkpt>
      <trkpt lat="46.47441" lon="6.43921">
        <ele>401.8</ele>
        <time>2022-09-28T10:45:31Z</time>
      </trkpt>
      <trkpt lat="46.47442" lon="6.43927">
        <ele>401.9</ele>
        <time>2022-09-28T10:45:32Z</time>
      </trkpt>
      <trkpt lat="46.47444" lon="6.43932">
        <ele>401.9</ele>
        <time>2022-09-28T10:45:33Z</time>
      </trkpt>
      <trkpt lat="46.47445" lon="6.43938">
        <ele>401.9</ele>
        <time>2022-09-28T10:45:34Z</time>
      </trkpt>
      <trkpt lat="46.47447" lon="6.43944">
        <ele>402</ele>
        <time>2022-09-28T10:45:35Z</time>
      </trkpt>
      <trkpt lat="46.47448" lon="6.4395">
        <ele>402</ele>
        <time>2022-09-28T10:45:36Z</time>
      </trkpt>
      <trkpt lat="46.47449" lon="6.43957">
        <ele>402.1</ele>
        <time>2022-09-28T10:45:37Z</time>
      </trkpt>
      <trkpt lat="46.47451" lon="6.43963">
        <ele>402.1</ele>
        <time>2022-09-28T10:45:38Z</time>
      </trkpt>
      <trkpt lat="46.47452" lon="6.43969">
        <ele>402.1</ele>
        <time>2022-09-28T10:45:39Z</time>
      </trkpt>
      <trkpt lat="46.47454" lon="6.43975">
        <ele>402.2</ele>
        <time>2022-09-28T10:45:40Z</time>
      </trkpt>
      <trkpt lat="46.47455" lon="6.43981">
        <ele>402.2</ele>
        <time>2022-09-28T10:45:41Z</time>
      </trkpt>
      <trkpt lat="46.47456" lon="6.43987">
        <ele>402.2</ele>
        <time>2022-09-28T10:45:42Z</time>
      </trkpt>
      <trkpt lat="46.47458" lon="6.43993">
        <ele>402.3</ele>
        <time>2022-09-28T10:45:43Z</time>
      </trkpt>
      <trkpt lat="46.47459" lon="6.43998">
        <ele>402.3</ele>
        <time>2022-09-28T10:45:44Z</time>
      </trkpt>
      <trkpt lat="46.47463" lon="6.44012">
        <ele>402.3</ele>
        <time>2022-09-28T10:45:45Z</time>
      </trkpt>
      <trkpt lat="46.47464" lon="6.44018">
        <ele>402.4</ele>
        <time>2022-09-28T10:45:46Z</time>
      </trkpt>
      <trkpt lat="46.47465" lon="6.44025">
        <ele>402.4</ele>
        <time>2022-09-28T10:45:47Z</time>
      </trkpt>
      <trkpt lat="46.47466" lon="6.44031">
        <ele>402.5</ele>
        <time>2022-09-28T10:45:48Z</time>
      </trkpt>
      <trkpt lat="46.47467" lon="6.44038">
        <ele>402.5</ele>
        <time>2022-09-28T10:45:49Z</time>
      </trkpt>
      <trkpt lat="46.47468" lon="6.44044">
        <ele>402.5</ele>
        <time>2022-09-28T10:45:50Z</time>
      </trkpt>
      <trkpt lat="46.4747" lon="6.4405">
        <ele>402.6</ele>
        <time>2022-09-28T10:45:51Z</time>
      </trkpt>
      <trkpt lat="46.47472" lon="6.44056">
        <ele>402.6</ele>
        <time>2022-09-28T10:45:52Z</time>
      </trkpt>
      <trkpt lat="46.47472" lon="6.44063">
        <ele>402.6</ele>
        <time>2022-09-28T10:45:53Z</time>
      </trkpt>
      <trkpt lat="46.47474" lon="6.4407">
        <ele>402.7</ele>
        <time>2022-09-28T10:45:54Z</time>
      </trkpt>
      <trkpt lat="46.47476" lon="6.44077">
        <ele>402.7</ele>
        <time>2022-09-28T10:45:55Z</time>
      </trkpt>
      <trkpt lat="46.47477" lon="6.44082">
        <ele>402.7</ele>
        <time>2022-09-28T10:45:56Z</time>
      </trkpt>
      <trkpt lat="46.47479" lon="6.44088">
        <ele>402.8</ele>
        <time>2022-09-28T10:45:57Z</time>
      </trkpt>
      <trkpt lat="46.47481" lon="6.44094">
        <ele>402.8</ele>
        <time>2022-09-28T10:45:58Z</time>
      </trkpt>
      <trkpt lat="46.47483" lon="6.441">
        <ele>402.8</ele>
        <time>2022-09-28T10:45:59Z</time>
      </trkpt>
      <trkpt lat="46.47485" lon="6.44106">
        <ele>402.9</ele>
        <time>2022-09-28T10:46:00Z</time>
      </trkpt>
      <trkpt lat="46.47487" lon="6.44113">
        <ele>402.9</ele>
        <time>2022-09-28T10:46:01Z</time>
      </trkpt>
      <trkpt lat="46.4749" lon="6.4412">
        <ele>402.9</ele>
        <time>2022-09-28T10:46:02Z</time>
      </trkpt>
      <trkpt lat="46.47492" lon="6.44126">
        <ele>403</ele>
        <time>2022-09-28T10:46:03Z</time>
      </trkpt>
      <trkpt lat="46.47494" lon="6.44133">
        <ele>403</ele>
        <time>2022-09-28T10:46:04Z</time>
      </trkpt>
      <trkpt lat="46.47495" lon="6.4414">
        <ele>403</ele>
        <time>2022-09-28T10:46:05Z</time>
      </trkpt>
      <trkpt lat="46.47497" lon="6.44147">
        <ele>403</ele>
        <time>2022-09-28T10:46:06Z</time>
      </trkpt>
      <trkpt lat="46.47499" lon="6.44154">
        <ele>403</ele>
        <time>2022-09-28T10:46:07Z</time>
      </trkpt>
      <trkpt lat="46.47501" lon="6.44161">
        <ele>403</ele>
        <time>2022-09-28T10:46:08Z</time>
      </trkpt>
      <trkpt lat="46.47503" lon="6.44168">
        <ele>403</ele>
        <time>2022-09-28T10:46:09Z</time>
      </trkpt>
      <trkpt lat="46.47505" lon="6.44174">
        <ele>403</ele>
        <time>2022-09-28T10:46:10Z</time>
      </trkpt>
      <trkpt lat="46.47508" lon="6.4418">
        <ele>403</ele>
        <time>2022-09-28T10:46:11Z</time>
      </trkpt>
      <trkpt lat="46.4751" lon="6.44187">
        <ele>403</ele>
        <time>2022-09-28T10:46:12Z</time>
      </trkpt>
      <trkpt lat="46.47512" lon="6.44193">
        <ele>403</ele>
        <time>2022-09-28T10:46:13Z</time>
      </trkpt>
      <trkpt lat="46.47515" lon="6.442">
        <ele>403</ele>
        <time>2022-09-28T10:46:14Z</time>
      </trkpt>
      <trkpt lat="46.47517" lon="6.44207">
        <ele>402.9</ele>
        <time>2022-09-28T10:46:15Z</time>
      </trkpt>
      <trkpt lat="46.4752" lon="6.44214">
        <ele>402.9</ele>
        <time>2022-09-28T10:46:16Z</time>
      </trkpt>
      <trkpt lat="46.47523" lon="6.4422">
        <ele>402.9</ele>
        <time>2022-09-28T10:46:17Z</time>
      </trkpt>
      <trkpt lat="46.47526" lon="6.44226">
        <ele>402.9</ele>
        <time>2022-09-28T10:46:18Z</time>
      </trkpt>
      <trkpt lat="46.47529" lon="6.44232">
        <ele>402.9</ele>
        <time>2022-09-28T10:46:19Z</time>
      </trkpt>
      <trkpt lat="46.47531" lon="6.44238">
        <ele>402.9</ele>
        <time>2022-09-28T10:46:20Z</time>
      </trkpt>
      <trkpt lat="46.47534" lon="6.44244">
        <ele>402.8</ele>
        <time>2022-09-28T10:46:21Z</time>
      </trkpt>
      <trkpt lat="46.47536" lon="6.4425">
        <ele>402.8</ele>
        <time>2022-09-28T10:46:22Z</time>
      </trkpt>
      <trkpt lat="46.47539" lon="6.44255">
        <ele>402.8</ele>
        <time>2022-09-28T10:46:23Z</time>
      </trkpt>
      <trkpt lat="46.47542" lon="6.44262">
        <ele>402.8</ele>
        <time>2022-09-28T10:46:24Z</time>
      </trkpt>
      <trkpt lat="46.47545" lon="6.44267">
        <ele>402.7</ele>
        <time>2022-09-28T10:46:25Z</time>
      </trkpt>
      <trkpt lat="46.47548" lon="6.44273">
        <ele>402.7</ele>
        <time>2022-09-28T10:46:26Z</time>
      </trkpt>
      <trkpt lat="46.47551" lon="6.44279">
        <ele>402.7</ele>
        <time>2022-09-28T10:46:27Z</time>
      </trkpt>
      <trkpt lat="46.47554" lon="6.44286">
        <ele>402.6</ele>
        <time>2022-09-28T10:46:28Z</time>
      </trkpt>
      <trkpt lat="46.47557" lon="6.44293">
        <ele>402.6</ele>
        <time>2022-09-28T10:46:29Z</time>
      </trkpt>
      <trkpt lat="46.47559" lon="6.443">
        <ele>402.6</ele>
        <time>2022-09-28T10:46:30Z</time>
      </trkpt>
      <trkpt lat="46.47561" lon="6.44305">
        <ele>402.5</ele>
        <time>2022-09-28T10:46:31Z</time>
      </trkpt>
      <trkpt lat="46.47563" lon="6.44311">
        <ele>402.5</ele>
        <time>2022-09-28T10:46:32Z</time>
      </trkpt>
      <trkpt lat="46.47565" lon="6.44317">
        <ele>402.5</ele>
        <time>2022-09-28T10:46:33Z</time>
      </trkpt>
      <trkpt lat="46.47569" lon="6.44321">
        <ele>402.4</ele>
        <time>2022-09-28T10:46:34Z</time>
      </trkpt>
      <trkpt lat="46.47572" lon="6.44325">
        <ele>402.4</ele>
        <time>2022-09-28T10:46:35Z</time>
      </trkpt>
      <trkpt lat="46.47575" lon="6.4433">
        <ele>402.4</ele>
        <time>2022-09-28T10:46:36Z</time>
      </trkpt>
      <trkpt lat="46.47578" lon="6.44337">
        <ele>402.3</ele>
        <time>2022-09-28T10:46:37Z</time>
      </trkpt>
      <trkpt lat="46.4758" lon="6.44343">
        <ele>402.3</ele>
        <time>2022-09-28T10:46:38Z</time>
      </trkpt>
      <trkpt lat="46.47583" lon="6.44349">
        <ele>402.3</ele>
        <time>2022-09-28T10:46:40Z</time>
      </trkpt>
      <trkpt lat="46.47585" lon="6.44355">
        <ele>402.2</ele>
        <time>2022-09-28T10:46:41Z</time>
      </trkpt>
      <trkpt lat="46.47586" lon="6.44364">
        <ele>402.2</ele>
        <time>2022-09-28T10:46:42Z</time>
      </trkpt>
      <trkpt lat="46.47589" lon="6.44371">
        <ele>402.1</ele>
        <time>2022-09-28T10:46:43Z</time>
      </trkpt>
      <trkpt lat="46.47592" lon="6.44377">
        <ele>402.1</ele>
        <time>2022-09-28T10:46:44Z</time>
      </trkpt>
      <trkpt lat="46.47595" lon="6.44383">
        <ele>402.1</ele>
        <time>2022-09-28T10:46:45Z</time>
      </trkpt>
      <trkpt lat="46.47598" lon="6.4439">
        <ele>402</ele>
        <time>2022-09-28T10:46:46Z</time>
      </trkpt>
      <trkpt lat="46.47602" lon="6.44396">
        <ele>402</ele>
        <time>2022-09-28T10:46:47Z</time>
      </trkpt>
      <trkpt lat="46.47604" lon="6.44403">
        <ele>401.9</ele>
        <time>2022-09-28T10:46:48Z</time>
      </trkpt>
      <trkpt lat="46.47607" lon="6.4441">
        <ele>401.9</ele>
        <time>2022-09-28T10:46:49Z</time>
      </trkpt>
      <trkpt lat="46.47611" lon="6.44417">
        <ele>401.9</ele>
        <time>2022-09-28T10:46:50Z</time>
      </trkpt>
      <trkpt lat="46.47614" lon="6.44424">
        <ele>401.9</ele>
        <time>2022-09-28T10:46:51Z</time>
      </trkpt>
      <trkpt lat="46.47617" lon="6.4443">
        <ele>401.8</ele>
        <time>2022-09-28T10:46:52Z</time>
      </trkpt>
      <trkpt lat="46.47619" lon="6.44436">
        <ele>401.8</ele>
        <time>2022-09-28T10:46:53Z</time>
      </trkpt>
      <trkpt lat="46.47621" lon="6.44441">
        <ele>401.8</ele>
        <time>2022-09-28T10:46:54Z</time>
      </trkpt>
      <trkpt lat="46.47623" lon="6.44445">
        <ele>401.8</ele>
        <time>2022-09-28T10:46:55Z</time>
      </trkpt>
      <trkpt lat="46.47624" lon="6.44449">
        <ele>401.8</ele>
        <time>2022-09-28T10:46:56Z</time>
      </trkpt>
      <trkpt lat="46.47626" lon="6.44453">
        <ele>401.8</ele>
        <time>2022-09-28T10:46:57Z</time>
      </trkpt>
      <trkpt lat="46.47627" lon="6.44455">
        <ele>401.8</ele>
        <time>2022-09-28T10:46:58Z</time>
      </trkpt>
      <trkpt lat="46.47628" lon="6.44459">
        <ele>401.8</ele>
        <time>2022-09-28T10:46:59Z</time>
      </trkpt>
      <trkpt lat="46.4763" lon="6.44463">
        <ele>401.7</ele>
        <time>2022-09-28T10:47:00Z</time>
      </trkpt>
      <trkpt lat="46.47631" lon="6.44468">
        <ele>401.7</ele>
        <time>2022-09-28T10:47:01Z</time>
      </trkpt>
      <trkpt lat="46.47632" lon="6.44473">
        <ele>401.7</ele>
        <time>2022-09-28T10:47:02Z</time>
      </trkpt>
      <trkpt lat="46.47632" lon="6.44479">
        <ele>401.6</ele>
        <time>2022-09-28T10:47:03Z</time>
      </trkpt>
      <trkpt lat="46.47634" lon="6.44486">
        <ele>401.6</ele>
        <time>2022-09-28T10:47:04Z</time>
      </trkpt>
      <trkpt lat="46.47635" lon="6.44493">
        <ele>401.5</ele>
        <time>2022-09-28T10:47:05Z</time>
      </trkpt>
      <trkpt lat="46.47636" lon="6.445">
        <ele>401.5</ele>
        <time>2022-09-28T10:47:06Z</time>
      </trkpt>
      <trkpt lat="46.47638" lon="6.44507">
        <ele>401.4</ele>
        <time>2022-09-28T10:47:07Z</time>
      </trkpt>
      <trkpt lat="46.4764" lon="6.44514">
        <ele>401.4</ele>
        <time>2022-09-28T10:47:08Z</time>
      </trkpt>
      <trkpt lat="46.47641" lon="6.44522">
        <ele>401.4</ele>
        <time>2022-09-28T10:47:09Z</time>
      </trkpt>
      <trkpt lat="46.47642" lon="6.44529">
        <ele>401.3</ele>
        <time>2022-09-28T10:47:10Z</time>
      </trkpt>
      <trkpt lat="46.47643" lon="6.44537">
        <ele>401.3</ele>
        <time>2022-09-28T10:47:11Z</time>
      </trkpt>
      <trkpt lat="46.47644" lon="6.44545">
        <ele>401.2</ele>
        <time>2022-09-28T10:47:12Z</time>
      </trkpt>
      <trkpt lat="46.47645" lon="6.44552">
        <ele>401.2</ele>
        <time>2022-09-28T10:47:13Z</time>
      </trkpt>
      <trkpt lat="46.47647" lon="6.44568">
        <ele>401.1</ele>
        <time>2022-09-28T10:47:14Z</time>
      </trkpt>
      <trkpt lat="46.47648" lon="6.44576">
        <ele>401.1</ele>
        <time>2022-09-28T10:47:15Z</time>
      </trkpt>
      <trkpt lat="46.47649" lon="6.44584">
        <ele>401.1</ele>
        <time>2022-09-28T10:47:16Z</time>
      </trkpt>
      <trkpt lat="46.4765" lon="6.44592">
        <ele>401</ele>
        <time>2022-09-28T10:47:17Z</time>
      </trkpt>
      <trkpt lat="46.47651" lon="6.446">
        <ele>401</ele>
        <time>2022-09-28T10:47:18Z</time>
      </trkpt>
      <trkpt lat="46.47652" lon="6.44608">
        <ele>401</ele>
        <time>2022-09-28T10:47:19Z</time>
      </trkpt>
      <trkpt lat="46.47651" lon="6.44618">
        <ele>400.9</ele>
        <time>2022-09-28T10:47:20Z</time>
      </trkpt>
      <trkpt lat="46.4765" lon="6.44628">
        <ele>400.8</ele>
        <time>2022-09-28T10:47:21Z</time>
      </trkpt>
      <trkpt lat="46.47651" lon="6.44637">
        <ele>400.8</ele>
        <time>2022-09-28T10:47:22Z</time>
      </trkpt>
      <trkpt lat="46.47652" lon="6.44646">
        <ele>400.7</ele>
        <time>2022-09-28T10:47:23Z</time>
      </trkpt>
      <trkpt lat="46.47654" lon="6.44654">
        <ele>400.7</ele>
        <time>2022-09-28T10:47:24Z</time>
      </trkpt>
      <trkpt lat="46.47654" lon="6.44663">
        <ele>400.6</ele>
        <time>2022-09-28T10:47:25Z</time>
      </trkpt>
      <trkpt lat="46.47656" lon="6.44673">
        <ele>400.6</ele>
        <time>2022-09-28T10:47:26Z</time>
      </trkpt>
      <trkpt lat="46.47656" lon="6.44682">
        <ele>400.5</ele>
        <time>2022-09-28T10:47:27Z</time>
      </trkpt>
      <trkpt lat="46.47658" lon="6.4469">
        <ele>400.5</ele>
        <time>2022-09-28T10:47:28Z</time>
      </trkpt>
      <trkpt lat="46.47659" lon="6.44698">
        <ele>400.5</ele>
        <time>2022-09-28T10:47:29Z</time>
      </trkpt>
      <trkpt lat="46.4766" lon="6.44706">
        <ele>400.4</ele>
        <time>2022-09-28T10:47:30Z</time>
      </trkpt>
      <trkpt lat="46.47661" lon="6.44714">
        <ele>400.4</ele>
        <time>2022-09-28T10:47:31Z</time>
      </trkpt>
      <trkpt lat="46.47663" lon="6.44721">
        <ele>400.3</ele>
        <time>2022-09-28T10:47:32Z</time>
      </trkpt>
      <trkpt lat="46.47664" lon="6.44729">
        <ele>400.3</ele>
        <time>2022-09-28T10:47:33Z</time>
      </trkpt>
      <trkpt lat="46.47665" lon="6.44737">
        <ele>400.3</ele>
        <time>2022-09-28T10:47:34Z</time>
      </trkpt>
      <trkpt lat="46.47667" lon="6.44745">
        <ele>400.2</ele>
        <time>2022-09-28T10:47:35Z</time>
      </trkpt>
      <trkpt lat="46.47668" lon="6.44753">
        <ele>400.2</ele>
        <time>2022-09-28T10:47:36Z</time>
      </trkpt>
      <trkpt lat="46.4767" lon="6.44761">
        <ele>400.1</ele>
        <time>2022-09-28T10:47:37Z</time>
      </trkpt>
      <trkpt lat="46.47672" lon="6.44769">
        <ele>400.1</ele>
        <time>2022-09-28T10:47:38Z</time>
      </trkpt>
      <trkpt lat="46.47673" lon="6.44777">
        <ele>400</ele>
        <time>2022-09-28T10:47:39Z</time>
      </trkpt>
      <trkpt lat="46.47675" lon="6.44785">
        <ele>400</ele>
        <time>2022-09-28T10:47:40Z</time>
      </trkpt>
      <trkpt lat="46.47676" lon="6.44793">
        <ele>400</ele>
        <time>2022-09-28T10:47:41Z</time>
      </trkpt>
      <trkpt lat="46.47678" lon="6.44801">
        <ele>399.9</ele>
        <time>2022-09-28T10:47:42Z</time>
      </trkpt>
      <trkpt lat="46.4768" lon="6.44809">
        <ele>399.9</ele>
        <time>2022-09-28T10:47:43Z</time>
      </trkpt>
      <trkpt lat="46.47681" lon="6.44817">
        <ele>399.8</ele>
        <time>2022-09-28T10:47:44Z</time>
      </trkpt>
      <trkpt lat="46.47682" lon="6.44825">
        <ele>399.8</ele>
        <time>2022-09-28T10:47:45Z</time>
      </trkpt>
      <trkpt lat="46.47683" lon="6.44832">
        <ele>399.8</ele>
        <time>2022-09-28T10:47:46Z</time>
      </trkpt>
      <trkpt lat="46.47684" lon="6.44838">
        <ele>399.7</ele>
        <time>2022-09-28T10:47:47Z</time>
      </trkpt>
      <trkpt lat="46.47685" lon="6.44843">
        <ele>399.7</ele>
        <time>2022-09-28T10:47:48Z</time>
      </trkpt>
      <trkpt lat="46.47686" lon="6.44847">
        <ele>399.7</ele>
        <time>2022-09-28T10:47:49Z</time>
      </trkpt>
      <trkpt lat="46.47687" lon="6.4485">
        <ele>399.7</ele>
        <time>2022-09-28T10:47:50Z</time>
      </trkpt>
      <trkpt lat="46.47688" lon="6.44854">
        <ele>399.7</ele>
        <time>2022-09-28T10:47:51Z</time>
      </trkpt>
      <trkpt lat="46.4769" lon="6.44859">
        <ele>399.7</ele>
        <time>2022-09-28T10:47:52Z</time>
      </trkpt>
      <trkpt lat="46.47691" lon="6.44864">
        <ele>399.6</ele>
        <time>2022-09-28T10:47:53Z</time>
      </trkpt>
      <trkpt lat="46.47692" lon="6.4487">
        <ele>399.6</ele>
        <time>2022-09-28T10:47:54Z</time>
      </trkpt>
      <trkpt lat="46.47694" lon="6.44876">
        <ele>399.6</ele>
        <time>2022-09-28T10:47:55Z</time>
      </trkpt>
      <trkpt lat="46.47695" lon="6.44882">
        <ele>399.5</ele>
        <time>2022-09-28T10:47:56Z</time>
      </trkpt>
      <trkpt lat="46.47697" lon="6.44889">
        <ele>399.4</ele>
        <time>2022-09-28T10:47:57Z</time>
      </trkpt>
      <trkpt lat="46.47699" lon="6.44896">
        <ele>399.4</ele>
        <time>2022-09-28T10:47:58Z</time>
      </trkpt>
      <trkpt lat="46.47702" lon="6.44903">
        <ele>399.3</ele>
        <time>2022-09-28T10:47:59Z</time>
      </trkpt>
      <trkpt lat="46.47704" lon="6.4491">
        <ele>399.3</ele>
        <time>2022-09-28T10:48:00Z</time>
      </trkpt>
      <trkpt lat="46.47707" lon="6.44917">
        <ele>399.3</ele>
        <time>2022-09-28T10:48:01Z</time>
      </trkpt>
      <trkpt lat="46.4771" lon="6.44924">
        <ele>399.2</ele>
        <time>2022-09-28T10:48:02Z</time>
      </trkpt>
      <trkpt lat="46.47712" lon="6.4493">
        <ele>399.2</ele>
        <time>2022-09-28T10:48:03Z</time>
      </trkpt>
      <trkpt lat="46.47715" lon="6.44937">
        <ele>399.2</ele>
        <time>2022-09-28T10:48:04Z</time>
      </trkpt>
      <trkpt lat="46.47718" lon="6.44943">
        <ele>399.2</ele>
        <time>2022-09-28T10:48:05Z</time>
      </trkpt>
      <trkpt lat="46.47721" lon="6.44948">
        <ele>399.2</ele>
        <time>2022-09-28T10:48:06Z</time>
      </trkpt>
      <trkpt lat="46.47723" lon="6.44953">
        <ele>399.1</ele>
        <time>2022-09-28T10:48:07Z</time>
      </trkpt>
      <trkpt lat="46.47725" lon="6.44957">
        <ele>399.1</ele>
        <time>2022-09-28T10:48:08Z</time>
      </trkpt>
      <trkpt lat="46.47726" lon="6.44962">
        <ele>399.1</ele>
        <time>2022-09-28T10:48:09Z</time>
      </trkpt>
      <trkpt lat="46.47727" lon="6.44963">
        <ele>399.1</ele>
        <time>2022-09-28T10:48:10Z</time>
      </trkpt>
      <trkpt lat="46.47727" lon="6.44964">
        <ele>399.1</ele>
        <time>2022-09-28T10:48:11Z</time>
      </trkpt>
      <trkpt lat="46.47727" lon="6.44964">
        <ele>399.1</ele>
        <time>2022-09-28T10:48:12Z</time>
      </trkpt>
      <trkpt lat="46.47728" lon="6.44964">
        <ele>399.1</ele>
        <time>2022-09-28T10:48:13Z</time>
      </trkpt>
      <trkpt lat="46.47728" lon="6.44964">
        <ele>399.1</ele>
        <time>2022-09-28T10:48:14Z</time>
      </trkpt>
      <trkpt lat="46.47728" lon="6.44964">
        <ele>399.1</ele>
        <time>2022-09-28T10:48:15Z</time>
      </trkpt>
      <trkpt lat="46.47728" lon="6.44964">
        <ele>399.1</ele>
        <time>2022-09-28T10:48:16Z</time>
      </trkpt>
      <trkpt lat="46.47729" lon="6.44966">
        <ele>399.1</ele>
        <time>2022-09-28T10:48:17Z</time>
      </trkpt>
      <trkpt lat="46.47731" lon="6.44968">
        <ele>399.1</ele>
        <time>2022-09-28T10:48:18Z</time>
      </trkpt>
      <trkpt lat="46.47732" lon="6.44969">
        <ele>399</ele>
        <time>2022-09-28T10:48:19Z</time>
      </trkpt>
      <trkpt lat="46.47734" lon="6.44974">
        <ele>399</ele>
        <time>2022-09-28T10:48:20Z</time>
      </trkpt>
      <trkpt lat="46.47735" lon="6.44975">
        <ele>399</ele>
        <time>2022-09-28T10:48:21Z</time>
      </trkpt>
      <trkpt lat="46.47737" lon="6.4498">
        <ele>399</ele>
        <time>2022-09-28T10:48:22Z</time>
      </trkpt>
      <trkpt lat="46.47738" lon="6.44984">
        <ele>399</ele>
        <time>2022-09-28T10:48:23Z</time>
      </trkpt>
      <trkpt lat="46.4774" lon="6.44988">
        <ele>398.9</ele>
        <time>2022-09-28T10:48:24Z</time>
      </trkpt>
      <trkpt lat="46.47743" lon="6.44993">
        <ele>398.9</ele>
        <time>2022-09-28T10:48:25Z</time>
      </trkpt>
      <trkpt lat="46.47744" lon="6.44998">
        <ele>398.9</ele>
        <time>2022-09-28T10:48:26Z</time>
      </trkpt>
      <trkpt lat="46.47746" lon="6.45004">
        <ele>398.8</ele>
        <time>2022-09-28T10:48:27Z</time>
      </trkpt>
      <trkpt lat="46.47748" lon="6.4501">
        <ele>398.8</ele>
        <time>2022-09-28T10:48:28Z</time>
      </trkpt>
      <trkpt lat="46.47751" lon="6.45016">
        <ele>398.8</ele>
        <time>2022-09-28T10:48:29Z</time>
      </trkpt>
      <trkpt lat="46.47753" lon="6.45022">
        <ele>398.7</ele>
        <time>2022-09-28T10:48:30Z</time>
      </trkpt>
      <trkpt lat="46.47756" lon="6.45029">
        <ele>398.7</ele>
        <time>2022-09-28T10:48:31Z</time>
      </trkpt>
      <trkpt lat="46.47759" lon="6.45035">
        <ele>398.7</ele>
        <time>2022-09-28T10:48:32Z</time>
      </trkpt>
      <trkpt lat="46.47762" lon="6.45041">
        <ele>398.7</ele>
        <time>2022-09-28T10:48:33Z</time>
      </trkpt>
      <trkpt lat="46.47765" lon="6.45047">
        <ele>398.7</ele>
        <time>2022-09-28T10:48:34Z</time>
      </trkpt>
      <trkpt lat="46.47768" lon="6.45053">
        <ele>398.6</ele>
        <time>2022-09-28T10:48:35Z</time>
      </trkpt>
      <trkpt lat="46.47771" lon="6.45059">
        <ele>398.6</ele>
        <time>2022-09-28T10:48:36Z</time>
      </trkpt>
      <trkpt lat="46.47774" lon="6.45066">
        <ele>398.6</ele>
        <time>2022-09-28T10:48:37Z</time>
      </trkpt>
      <trkpt lat="46.47778" lon="6.45072">
        <ele>398.6</ele>
        <time>2022-09-28T10:48:38Z</time>
      </trkpt>
      <trkpt lat="46.47781" lon="6.45079">
        <ele>398.5</ele>
        <time>2022-09-28T10:48:39Z</time>
      </trkpt>
      <trkpt lat="46.47784" lon="6.45086">
        <ele>398.5</ele>
        <time>2022-09-28T10:48:40Z</time>
      </trkpt>
      <trkpt lat="46.47787" lon="6.45092">
        <ele>398.5</ele>
        <time>2022-09-28T10:48:41Z</time>
      </trkpt>
      <trkpt lat="46.4779" lon="6.45099">
        <ele>398.4</ele>
        <time>2022-09-28T10:48:42Z</time>
      </trkpt>
      <trkpt lat="46.47792" lon="6.45105">
        <ele>398.4</ele>
        <time>2022-09-28T10:48:43Z</time>
      </trkpt>
      <trkpt lat="46.47796" lon="6.45113">
        <ele>398.3</ele>
        <time>2022-09-28T10:48:44Z</time>
      </trkpt>
      <trkpt lat="46.47799" lon="6.45119">
        <ele>398.3</ele>
        <time>2022-09-28T10:48:46Z</time>
      </trkpt>
      <trkpt lat="46.47802" lon="6.45126">
        <ele>398.3</ele>
        <time>2022-09-28T10:48:47Z</time>
      </trkpt>
      <trkpt lat="46.47806" lon="6.45132">
        <ele>398.2</ele>
        <time>2022-09-28T10:48:48Z</time>
      </trkpt>
      <trkpt lat="46.47809" lon="6.45139">
        <ele>398.2</ele>
        <time>2022-09-28T10:48:49Z</time>
      </trkpt>
      <trkpt lat="46.47813" lon="6.45146">
        <ele>398.2</ele>
        <time>2022-09-28T10:48:50Z</time>
      </trkpt>
      <trkpt lat="46.47816" lon="6.45153">
        <ele>398.2</ele>
        <time>2022-09-28T10:48:51Z</time>
      </trkpt>
      <trkpt lat="46.47819" lon="6.45159">
        <ele>398.1</ele>
        <time>2022-09-28T10:48:52Z</time>
      </trkpt>
      <trkpt lat="46.47822" lon="6.45165">
        <ele>398.1</ele>
        <time>2022-09-28T10:48:53Z</time>
      </trkpt>
      <trkpt lat="46.47825" lon="6.45172">
        <ele>398.1</ele>
        <time>2022-09-28T10:48:54Z</time>
      </trkpt>
      <trkpt lat="46.47828" lon="6.45178">
        <ele>398.1</ele>
        <time>2022-09-28T10:48:55Z</time>
      </trkpt>
      <trkpt lat="46.47831" lon="6.45185">
        <ele>398.1</ele>
        <time>2022-09-28T10:48:56Z</time>
      </trkpt>
      <trkpt lat="46.47834" lon="6.45191">
        <ele>398.1</ele>
        <time>2022-09-28T10:48:57Z</time>
      </trkpt>
      <trkpt lat="46.47837" lon="6.45198">
        <ele>398</ele>
        <time>2022-09-28T10:48:58Z</time>
      </trkpt>
      <trkpt lat="46.47839" lon="6.45203">
        <ele>398</ele>
        <time>2022-09-28T10:48:59Z</time>
      </trkpt>
      <trkpt lat="46.47842" lon="6.4521">
        <ele>397.9</ele>
        <time>2022-09-28T10:49:00Z</time>
      </trkpt>
      <trkpt lat="46.47845" lon="6.45217">
        <ele>397.9</ele>
        <time>2022-09-28T10:49:01Z</time>
      </trkpt>
      <trkpt lat="46.47848" lon="6.45223">
        <ele>397.8</ele>
        <time>2022-09-28T10:49:02Z</time>
      </trkpt>
      <trkpt lat="46.47851" lon="6.4523">
        <ele>397.8</ele>
        <time>2022-09-28T10:49:03Z</time>
      </trkpt>
      <trkpt lat="46.47855" lon="6.45237">
        <ele>397.7</ele>
        <time>2022-09-28T10:49:04Z</time>
      </trkpt>
      <trkpt lat="46.47858" lon="6.45244">
        <ele>397.7</ele>
        <time>2022-09-28T10:49:05Z</time>
      </trkpt>
      <trkpt lat="46.47862" lon="6.45251">
        <ele>397.6</ele>
        <time>2022-09-28T10:49:06Z</time>
      </trkpt>
      <trkpt lat="46.47865" lon="6.45258">
        <ele>397.6</ele>
        <time>2022-09-28T10:49:07Z</time>
      </trkpt>
      <trkpt lat="46.47868" lon="6.45265">
        <ele>397.5</ele>
        <time>2022-09-28T10:49:08Z</time>
      </trkpt>
      <trkpt lat="46.47872" lon="6.45273">
        <ele>397.5</ele>
        <time>2022-09-28T10:49:09Z</time>
      </trkpt>
      <trkpt lat="46.47876" lon="6.4528">
        <ele>397.4</ele>
        <time>2022-09-28T10:49:10Z</time>
      </trkpt>
      <trkpt lat="46.4788" lon="6.45287">
        <ele>397.4</ele>
        <time>2022-09-28T10:49:11Z</time>
      </trkpt>
      <trkpt lat="46.47884" lon="6.45295">
        <ele>397.3</ele>
        <time>2022-09-28T10:49:12Z</time>
      </trkpt>
      <trkpt lat="46.47887" lon="6.45302">
        <ele>397.2</ele>
        <time>2022-09-28T10:49:13Z</time>
      </trkpt>
      <trkpt lat="46.47891" lon="6.4531">
        <ele>397.1</ele>
        <time>2022-09-28T10:49:14Z</time>
      </trkpt>
      <trkpt lat="46.47894" lon="6.45317">
        <ele>397.1</ele>
        <time>2022-09-28T10:49:15Z</time>
      </trkpt>
      <trkpt lat="46.47898" lon="6.45325">
        <ele>397</ele>
        <time>2022-09-28T10:49:16Z</time>
      </trkpt>
      <trkpt lat="46.47902" lon="6.45332">
        <ele>397</ele>
        <time>2022-09-28T10:49:17Z</time>
      </trkpt>
      <trkpt lat="46.47905" lon="6.4534">
        <ele>397</ele>
        <time>2022-09-28T10:49:18Z</time>
      </trkpt>
      <trkpt lat="46.47909" lon="6.45347">
        <ele>397</ele>
        <time>2022-09-28T10:49:19Z</time>
      </trkpt>
      <trkpt lat="46.47912" lon="6.45355">
        <ele>396.9</ele>
        <time>2022-09-28T10:49:20Z</time>
      </trkpt>
      <trkpt lat="46.47915" lon="6.45363">
        <ele>396.9</ele>
        <time>2022-09-28T10:49:21Z</time>
      </trkpt>
      <trkpt lat="46.47919" lon="6.45371">
        <ele>396.9</ele>
        <time>2022-09-28T10:49:22Z</time>
      </trkpt>
      <trkpt lat="46.47923" lon="6.45378">
        <ele>396.9</ele>
        <time>2022-09-28T10:49:23Z</time>
      </trkpt>
      <trkpt lat="46.47927" lon="6.45385">
        <ele>396.9</ele>
        <time>2022-09-28T10:49:24Z</time>
      </trkpt>
      <trkpt lat="46.4793" lon="6.45393">
        <ele>396.8</ele>
        <time>2022-09-28T10:49:25Z</time>
      </trkpt>
      <trkpt lat="46.47932" lon="6.45401">
        <ele>396.8</ele>
        <time>2022-09-28T10:49:26Z</time>
      </trkpt>
      <trkpt lat="46.47935" lon="6.45408">
        <ele>396.8</ele>
        <time>2022-09-28T10:49:27Z</time>
      </trkpt>
      <trkpt lat="46.47938" lon="6.45415">
        <ele>396.7</ele>
        <time>2022-09-28T10:49:28Z</time>
      </trkpt>
      <trkpt lat="46.47941" lon="6.45422">
        <ele>396.7</ele>
        <time>2022-09-28T10:49:29Z</time>
      </trkpt>
      <trkpt lat="46.47944" lon="6.45428">
        <ele>396.7</ele>
        <time>2022-09-28T10:49:30Z</time>
      </trkpt>
      <trkpt lat="46.47945" lon="6.45434">
        <ele>396.6</ele>
        <time>2022-09-28T10:49:31Z</time>
      </trkpt>
      <trkpt lat="46.47947" lon="6.45439">
        <ele>396.6</ele>
        <time>2022-09-28T10:49:32Z</time>
      </trkpt>
      <trkpt lat="46.47949" lon="6.45443">
        <ele>396.6</ele>
        <time>2022-09-28T10:49:33Z</time>
      </trkpt>
      <trkpt lat="46.4795" lon="6.45448">
        <ele>396.5</ele>
        <time>2022-09-28T10:49:34Z</time>
      </trkpt>
      <trkpt lat="46.47951" lon="6.45449">
        <ele>396.4</ele>
        <time>2022-09-28T10:49:35Z</time>
      </trkpt>
      <trkpt lat="46.47951" lon="6.45454">
        <ele>396.1</ele>
        <time>2022-09-28T10:49:36Z</time>
      </trkpt>
      <trkpt lat="46.47949" lon="6.45459">
        <ele>395.8</ele>
        <time>2022-09-28T10:49:37Z</time>
      </trkpt>
      <trkpt lat="46.47947" lon="6.45464">
        <ele>395.4</ele>
        <time>2022-09-28T10:49:38Z</time>
      </trkpt>
      <trkpt lat="46.47946" lon="6.4547">
        <ele>395</ele>
        <time>2022-09-28T10:49:39Z</time>
      </trkpt>
      <trkpt lat="46.47946" lon="6.45477">
        <ele>394.6</ele>
        <time>2022-09-28T10:49:40Z</time>
      </trkpt>
      <trkpt lat="46.47946" lon="6.45484">
        <ele>394.2</ele>
        <time>2022-09-28T10:49:41Z</time>
      </trkpt>
      <trkpt lat="46.47946" lon="6.45501">
        <ele>393</ele>
        <time>2022-09-28T10:49:42Z</time>
      </trkpt>
      <trkpt lat="46.47946" lon="6.4551">
        <ele>392.4</ele>
        <time>2022-09-28T10:49:43Z</time>
      </trkpt>
      <trkpt lat="46.47946" lon="6.45519">
        <ele>391.8</ele>
        <time>2022-09-28T10:49:44Z</time>
      </trkpt>
      <trkpt lat="46.47947" lon="6.45528">
        <ele>391.2</ele>
        <time>2022-09-28T10:49:45Z</time>
      </trkpt>
      <trkpt lat="46.47947" lon="6.45537">
        <ele>390.5</ele>
        <time>2022-09-28T10:49:46Z</time>
      </trkpt>
      <trkpt lat="46.47947" lon="6.45547">
        <ele>389.8</ele>
        <time>2022-09-28T10:49:47Z</time>
      </trkpt>
      <trkpt lat="46.47947" lon="6.45555">
        <ele>389.2</ele>
        <time>2022-09-28T10:49:48Z</time>
      </trkpt>
      <trkpt lat="46.47948" lon="6.45564">
        <ele>388.6</ele>
        <time>2022-09-28T10:49:49Z</time>
      </trkpt>
      <trkpt lat="46.47948" lon="6.45573">
        <ele>387.9</ele>
        <time>2022-09-28T10:49:50Z</time>
      </trkpt>
      <trkpt lat="46.47947" lon="6.45583">
        <ele>387.2</ele>
        <time>2022-09-28T10:49:51Z</time>
      </trkpt>
      <trkpt lat="46.47947" lon="6.45592">
        <ele>386.6</ele>
        <time>2022-09-28T10:49:52Z</time>
      </trkpt>
      <trkpt lat="46.47946" lon="6.45602">
        <ele>385.9</ele>
        <time>2022-09-28T10:49:53Z</time>
      </trkpt>
      <trkpt lat="46.47946" lon="6.4561">
        <ele>385.3</ele>
        <time>2022-09-28T10:49:54Z</time>
      </trkpt>
      <trkpt lat="46.47946" lon="6.4562">
        <ele>384.7</ele>
        <time>2022-09-28T10:49:55Z</time>
      </trkpt>
      <trkpt lat="46.47946" lon="6.45629">
        <ele>384.1</ele>
        <time>2022-09-28T10:49:56Z</time>
      </trkpt>
      <trkpt lat="46.47946" lon="6.45639">
        <ele>383.4</ele>
        <time>2022-09-28T10:49:57Z</time>
      </trkpt>
      <trkpt lat="46.47946" lon="6.45647">
        <ele>382.9</ele>
        <time>2022-09-28T10:49:58Z</time>
      </trkpt>
      <trkpt lat="46.47945" lon="6.45657">
        <ele>382.3</ele>
        <time>2022-09-28T10:49:59Z</time>
      </trkpt>
      <trkpt lat="46.47946" lon="6.45666">
        <ele>381.8</ele>
        <time>2022-09-28T10:50:00Z</time>
      </trkpt>
      <trkpt lat="46.47946" lon="6.45675">
        <ele>381.3</ele>
        <time>2022-09-28T10:50:01Z</time>
      </trkpt>
      <trkpt lat="46.47946" lon="6.45682">
        <ele>380.9</ele>
        <time>2022-09-28T10:50:02Z</time>
      </trkpt>
      <trkpt lat="46.47946" lon="6.45688">
        <ele>380.6</ele>
        <time>2022-09-28T10:50:03Z</time>
      </trkpt>
      <trkpt lat="46.47946" lon="6.45693">
        <ele>380.3</ele>
        <time>2022-09-28T10:50:04Z</time>
      </trkpt>
      <trkpt lat="46.47945" lon="6.45698">
        <ele>380.1</ele>
        <time>2022-09-28T10:50:05Z</time>
      </trkpt>
      <trkpt lat="46.47943" lon="6.45705">
        <ele>379.8</ele>
        <time>2022-09-28T10:50:06Z</time>
      </trkpt>
      <trkpt lat="46.47942" lon="6.45712">
        <ele>379.6</ele>
        <time>2022-09-28T10:50:07Z</time>
      </trkpt>
      <trkpt lat="46.47941" lon="6.45719">
        <ele>379.3</ele>
        <time>2022-09-28T10:50:08Z</time>
      </trkpt>
      <trkpt lat="46.4794" lon="6.45728">
        <ele>379.1</ele>
        <time>2022-09-28T10:50:09Z</time>
      </trkpt>
      <trkpt lat="46.47939" lon="6.45736">
        <ele>378.9</ele>
        <time>2022-09-28T10:50:10Z</time>
      </trkpt>
      <trkpt lat="46.47939" lon="6.45745">
        <ele>378.7</ele>
        <time>2022-09-28T10:50:11Z</time>
      </trkpt>
      <trkpt lat="46.47939" lon="6.45753">
        <ele>378.5</ele>
        <time>2022-09-28T10:50:12Z</time>
      </trkpt>
      <trkpt lat="46.47938" lon="6.45762">
        <ele>378.4</ele>
        <time>2022-09-28T10:50:13Z</time>
      </trkpt>
      <trkpt lat="46.47939" lon="6.45769">
        <ele>378.3</ele>
        <time>2022-09-28T10:50:14Z</time>
      </trkpt>
      <trkpt lat="46.47939" lon="6.45776">
        <ele>378.2</ele>
        <time>2022-09-28T10:50:15Z</time>
      </trkpt>
      <trkpt lat="46.47939" lon="6.45784">
        <ele>378.2</ele>
        <time>2022-09-28T10:50:16Z</time>
      </trkpt>
      <trkpt lat="46.4794" lon="6.45791">
        <ele>378.2</ele>
        <time>2022-09-28T10:50:17Z</time>
      </trkpt>
      <trkpt lat="46.47941" lon="6.45797">
        <ele>378.1</ele>
        <time>2022-09-28T10:50:18Z</time>
      </trkpt>
      <trkpt lat="46.47944" lon="6.45804">
        <ele>378.1</ele>
        <time>2022-09-28T10:50:19Z</time>
      </trkpt>
      <trkpt lat="46.47946" lon="6.45809">
        <ele>378.2</ele>
        <time>2022-09-28T10:50:20Z</time>
      </trkpt>
      <trkpt lat="46.47948" lon="6.45815">
        <ele>378.2</ele>
        <time>2022-09-28T10:50:21Z</time>
      </trkpt>
      <trkpt lat="46.4795" lon="6.45822">
        <ele>378.2</ele>
        <time>2022-09-28T10:50:22Z</time>
      </trkpt>
      <trkpt lat="46.47953" lon="6.45828">
        <ele>378.3</ele>
        <time>2022-09-28T10:50:23Z</time>
      </trkpt>
      <trkpt lat="46.47957" lon="6.45834">
        <ele>378.3</ele>
        <time>2022-09-28T10:50:24Z</time>
      </trkpt>
      <trkpt lat="46.4796" lon="6.4584">
        <ele>378.3</ele>
        <time>2022-09-28T10:50:25Z</time>
      </trkpt>
      <trkpt lat="46.47963" lon="6.45846">
        <ele>378.3</ele>
        <time>2022-09-28T10:50:26Z</time>
      </trkpt>
      <trkpt lat="46.47966" lon="6.45852">
        <ele>378.3</ele>
        <time>2022-09-28T10:50:27Z</time>
      </trkpt>
      <trkpt lat="46.47969" lon="6.45858">
        <ele>378.3</ele>
        <time>2022-09-28T10:50:28Z</time>
      </trkpt>
      <trkpt lat="46.47973" lon="6.45864">
        <ele>378.3</ele>
        <time>2022-09-28T10:50:29Z</time>
      </trkpt>
      <trkpt lat="46.47975" lon="6.4587">
        <ele>378.3</ele>
        <time>2022-09-28T10:50:30Z</time>
      </trkpt>
      <trkpt lat="46.47978" lon="6.45876">
        <ele>378.3</ele>
        <time>2022-09-28T10:50:31Z</time>
      </trkpt>
      <trkpt lat="46.47981" lon="6.45882">
        <ele>378.3</ele>
        <time>2022-09-28T10:50:32Z</time>
      </trkpt>
      <trkpt lat="46.47984" lon="6.45889">
        <ele>378.4</ele>
        <time>2022-09-28T10:50:33Z</time>
      </trkpt>
      <trkpt lat="46.47987" lon="6.45895">
        <ele>378.4</ele>
        <time>2022-09-28T10:50:34Z</time>
      </trkpt>
      <trkpt lat="46.47989" lon="6.45901">
        <ele>378.4</ele>
        <time>2022-09-28T10:50:35Z</time>
      </trkpt>
      <trkpt lat="46.47992" lon="6.45906">
        <ele>378.4</ele>
        <time>2022-09-28T10:50:36Z</time>
      </trkpt>
      <trkpt lat="46.47995" lon="6.45911">
        <ele>378.4</ele>
        <time>2022-09-28T10:50:37Z</time>
      </trkpt>
      <trkpt lat="46.47997" lon="6.45915">
        <ele>378.5</ele>
        <time>2022-09-28T10:50:38Z</time>
      </trkpt>
      <trkpt lat="46.47999" lon="6.45921">
        <ele>378.5</ele>
        <time>2022-09-28T10:50:39Z</time>
      </trkpt>
      <trkpt lat="46.48" lon="6.45924">
        <ele>378.5</ele>
        <time>2022-09-28T10:50:40Z</time>
      </trkpt>
      <trkpt lat="46.48003" lon="6.45928">
        <ele>378.5</ele>
        <time>2022-09-28T10:50:41Z</time>
      </trkpt>
      <trkpt lat="46.48003" lon="6.4593">
        <ele>378.5</ele>
        <time>2022-09-28T10:50:42Z</time>
      </trkpt>
      <trkpt lat="46.48004" lon="6.45935">
        <ele>378.5</ele>
        <time>2022-09-28T10:50:43Z</time>
      </trkpt>
      <trkpt lat="46.48005" lon="6.45936">
        <ele>378.5</ele>
        <time>2022-09-28T10:50:44Z</time>
      </trkpt>
      <trkpt lat="46.48005" lon="6.45938">
        <ele>378.5</ele>
        <time>2022-09-28T10:50:45Z</time>
      </trkpt>
      <trkpt lat="46.48006" lon="6.4594">
        <ele>378.5</ele>
        <time>2022-09-28T10:50:46Z</time>
      </trkpt>
      <trkpt lat="46.48007" lon="6.45943">
        <ele>378.4</ele>
        <time>2022-09-28T10:50:47Z</time>
      </trkpt>
      <trkpt lat="46.48007" lon="6.45943">
        <ele>378.4</ele>
        <time>2022-09-28T10:50:48Z</time>
      </trkpt>
      <trkpt lat="46.48007" lon="6.45943">
        <ele>378.4</ele>
        <time>2022-09-28T10:50:49Z</time>
      </trkpt>
      <trkpt lat="46.48007" lon="6.45944">
        <ele>378.4</ele>
        <time>2022-09-28T10:50:50Z</time>
      </trkpt>
      <trkpt lat="46.48007" lon="6.45944">
        <ele>378.4</ele>
        <time>2022-09-28T10:50:52Z</time>
      </trkpt>
      <trkpt lat="46.48007" lon="6.45944">
        <ele>378.4</ele>
        <time>2022-09-28T10:50:53Z</time>
      </trkpt>
      <trkpt lat="46.48006" lon="6.45945">
        <ele>378.4</ele>
        <time>2022-09-28T10:50:54Z</time>
      </trkpt>
      <trkpt lat="46.48006" lon="6.45945">
        <ele>378.4</ele>
        <time>2022-09-28T10:50:55Z</time>
      </trkpt>
      <trkpt lat="46.48006" lon="6.45945">
        <ele>378.4</ele>
        <time>2022-09-28T10:50:56Z</time>
      </trkpt>
      <trkpt lat="46.48006" lon="6.45945">
        <ele>378.4</ele>
        <time>2022-09-28T10:50:57Z</time>
      </trkpt>
      <trkpt lat="46.48006" lon="6.45946">
        <ele>378.4</ele>
        <time>2022-09-28T10:51:13Z</time>
      </trkpt>
      <trkpt lat="46.48006" lon="6.45946">
        <ele>378.4</ele>
        <time>2022-09-28T10:51:14Z</time>
      </trkpt>
      <trkpt lat="46.48006" lon="6.45946">
        <ele>378.4</ele>
        <time>2022-09-28T10:51:15Z</time>
      </trkpt>
      <trkpt lat="46.48006" lon="6.45947">
        <ele>378.4</ele>
        <time>2022-09-28T10:51:16Z</time>
      </trkpt>
      <trkpt lat="46.48006" lon="6.45947">
        <ele>378.4</ele>
        <time>2022-09-28T10:51:17Z</time>
      </trkpt>
      <trkpt lat="46.48006" lon="6.45947">
        <ele>378.4</ele>
        <time>2022-09-28T10:51:18Z</time>
      </trkpt>
      <trkpt lat="46.48006" lon="6.45947">
        <ele>378.4</ele>
        <time>2022-09-28T10:51:19Z</time>
      </trkpt>
      <trkpt lat="46.48006" lon="6.45948">
        <ele>378.4</ele>
        <time>2022-09-28T10:51:20Z</time>
      </trkpt>
      <trkpt lat="46.48006" lon="6.45948">
        <ele>378.4</ele>
        <time>2022-09-28T10:51:21Z</time>
      </trkpt>
      <trkpt lat="46.48006" lon="6.45948">
        <ele>378.4</ele>
        <time>2022-09-28T10:51:22Z</time>
      </trkpt>
      <trkpt lat="46.48006" lon="6.45949">
        <ele>378.4</ele>
        <time>2022-09-28T10:51:33Z</time>
      </trkpt>
      <trkpt lat="46.48005" lon="6.45949">
        <ele>378.4</ele>
        <time>2022-09-28T10:51:34Z</time>
      </trkpt>
      <trkpt lat="46.48005" lon="6.45949">
        <ele>378.4</ele>
        <time>2022-09-28T10:51:35Z</time>
      </trkpt>
      <trkpt lat="46.48006" lon="6.45949">
        <ele>378.4</ele>
        <time>2022-09-28T10:51:36Z</time>
      </trkpt>
      <trkpt lat="46.48007" lon="6.45949">
        <ele>378.4</ele>
        <time>2022-09-28T10:51:37Z</time>
      </trkpt>
      <trkpt lat="46.48007" lon="6.45948">
        <ele>378.4</ele>
        <time>2022-09-28T10:51:38Z</time>
      </trkpt>
      <trkpt lat="46.48008" lon="6.45948">
        <ele>378.4</ele>
        <time>2022-09-28T10:51:39Z</time>
      </trkpt>
      <trkpt lat="46.48009" lon="6.45947">
        <ele>378.4</ele>
        <time>2022-09-28T10:51:40Z</time>
      </trkpt>
      <trkpt lat="46.48009" lon="6.45947">
        <ele>378.4</ele>
        <time>2022-09-28T10:51:41Z</time>
      </trkpt>
      <trkpt lat="46.4801" lon="6.45947">
        <ele>378.4</ele>
        <time>2022-09-28T10:51:42Z</time>
      </trkpt>
      <trkpt lat="46.48011" lon="6.45946">
        <ele>378.4</ele>
        <time>2022-09-28T10:51:43Z</time>
      </trkpt>
      <trkpt lat="46.48011" lon="6.45946">
        <ele>378.4</ele>
        <time>2022-09-28T10:52:35Z</time>
      </trkpt>
      <trkpt lat="46.48012" lon="6.45945">
        <ele>378.4</ele>
        <time>2022-09-28T10:52:36Z</time>
      </trkpt>
      <trkpt lat="46.48014" lon="6.45949">
        <ele>378.4</ele>
        <time>2022-09-28T10:52:37Z</time>
      </trkpt>
      <trkpt lat="46.48015" lon="6.45951">
        <ele>378.4</ele>
        <time>2022-09-28T10:52:38Z</time>
      </trkpt>
      <trkpt lat="46.48017" lon="6.45955">
        <ele>378.4</ele>
        <time>2022-09-28T10:52:39Z</time>
      </trkpt>
      <trkpt lat="46.48018" lon="6.45956">
        <ele>378.3</ele>
        <time>2022-09-28T10:52:40Z</time>
      </trkpt>
      <trkpt lat="46.48019" lon="6.4596">
        <ele>378.3</ele>
        <time>2022-09-28T10:52:41Z</time>
      </trkpt>
      <trkpt lat="46.48021" lon="6.45964">
        <ele>378.3</ele>
        <time>2022-09-28T10:52:42Z</time>
      </trkpt>
      <trkpt lat="46.48023" lon="6.45968">
        <ele>378.3</ele>
        <time>2022-09-28T10:52:43Z</time>
      </trkpt>
      <trkpt lat="46.48024" lon="6.45974">
        <ele>378.3</ele>
        <time>2022-09-28T10:52:44Z</time>
      </trkpt>
      <trkpt lat="46.48027" lon="6.45977">
        <ele>378.2</ele>
        <time>2022-09-28T10:52:45Z</time>
      </trkpt>
      <trkpt lat="46.48029" lon="6.45982">
        <ele>378.2</ele>
        <time>2022-09-28T10:52:46Z</time>
      </trkpt>
      <trkpt lat="46.48032" lon="6.45987">
        <ele>378.2</ele>
        <time>2022-09-28T10:52:47Z</time>
      </trkpt>
      <trkpt lat="46.48034" lon="6.45992">
        <ele>378.1</ele>
        <time>2022-09-28T10:52:48Z</time>
      </trkpt>
      <trkpt lat="46.48036" lon="6.45998">
        <ele>378.1</ele>
        <time>2022-09-28T10:52:49Z</time>
      </trkpt>
      <trkpt lat="46.48038" lon="6.46002">
        <ele>378</ele>
        <time>2022-09-28T10:52:50Z</time>
      </trkpt>
      <trkpt lat="46.48041" lon="6.46007">
        <ele>378</ele>
        <time>2022-09-28T10:52:51Z</time>
      </trkpt>
      <trkpt lat="46.48044" lon="6.46012">
        <ele>378</ele>
        <time>2022-09-28T10:52:52Z</time>
      </trkpt>
      <trkpt lat="46.48047" lon="6.46016">
        <ele>377.9</ele>
        <time>2022-09-28T10:52:53Z</time>
      </trkpt>
      <trkpt lat="46.4805" lon="6.4602">
        <ele>377.9</ele>
        <time>2022-09-28T10:52:54Z</time>
      </trkpt>
      <trkpt lat="46.48053" lon="6.46024">
        <ele>377.9</ele>
        <time>2022-09-28T10:52:55Z</time>
      </trkpt>
      <trkpt lat="46.48057" lon="6.46027">
        <ele>377.9</ele>
        <time>2022-09-28T10:52:56Z</time>
      </trkpt>
      <trkpt lat="46.4806" lon="6.46031">
        <ele>377.8</ele>
        <time>2022-09-28T10:52:57Z</time>
      </trkpt>
      <trkpt lat="46.48063" lon="6.46035">
        <ele>377.8</ele>
        <time>2022-09-28T10:52:58Z</time>
      </trkpt>
      <trkpt lat="46.48065" lon="6.46035">
        <ele>377.8</ele>
        <time>2022-09-28T10:52:59Z</time>
      </trkpt>
      <trkpt lat="46.48065" lon="6.46037">
        <ele>377.8</ele>
        <time>2022-09-28T10:53:00Z</time>
      </trkpt>
      <trkpt lat="46.48067" lon="6.46041">
        <ele>377.8</ele>
        <time>2022-09-28T10:53:01Z</time>
      </trkpt>
      <trkpt lat="46.4807" lon="6.46044">
        <ele>377.8</ele>
        <time>2022-09-28T10:53:02Z</time>
      </trkpt>
      <trkpt lat="46.48071" lon="6.46044">
        <ele>377.8</ele>
        <time>2022-09-28T10:53:03Z</time>
      </trkpt>
      <trkpt lat="46.48074" lon="6.46046">
        <ele>377.7</ele>
        <time>2022-09-28T10:53:04Z</time>
      </trkpt>
      <trkpt lat="46.48077" lon="6.46047">
        <ele>377.7</ele>
        <time>2022-09-28T10:53:05Z</time>
      </trkpt>
      <trkpt lat="46.48081" lon="6.46049">
        <ele>377.7</ele>
        <time>2022-09-28T10:53:06Z</time>
      </trkpt>
      <trkpt lat="46.48083" lon="6.46049">
        <ele>377.7</ele>
        <time>2022-09-28T10:53:07Z</time>
      </trkpt>
      <trkpt lat="46.48086" lon="6.46051">
        <ele>377.7</ele>
        <time>2022-09-28T10:53:08Z</time>
      </trkpt>
      <trkpt lat="46.48087" lon="6.46053">
        <ele>377.7</ele>
        <time>2022-09-28T10:53:09Z</time>
      </trkpt>
      <trkpt lat="46.48088" lon="6.46054">
        <ele>377.6</ele>
        <time>2022-09-28T10:53:10Z</time>
      </trkpt>
      <trkpt lat="46.48088" lon="6.46057">
        <ele>377.6</ele>
        <time>2022-09-28T10:53:11Z</time>
      </trkpt>
      <trkpt lat="46.48088" lon="6.46059">
        <ele>377.5</ele>
        <time>2022-09-28T10:53:12Z</time>
      </trkpt>
      <trkpt lat="46.48088" lon="6.4606">
        <ele>377.5</ele>
        <time>2022-09-28T10:53:13Z</time>
      </trkpt>
      <trkpt lat="46.48087" lon="6.46065">
        <ele>377.4</ele>
        <time>2022-09-28T10:53:14Z</time>
      </trkpt>
      <trkpt lat="46.48086" lon="6.46067">
        <ele>377.4</ele>
        <time>2022-09-28T10:53:15Z</time>
      </trkpt>
      <trkpt lat="46.48084" lon="6.46071">
        <ele>377.4</ele>
        <time>2022-09-28T10:53:16Z</time>
      </trkpt>
      <trkpt lat="46.48081" lon="6.46074">
        <ele>377.3</ele>
        <time>2022-09-28T10:53:17Z</time>
      </trkpt>
      <trkpt lat="46.48079" lon="6.46075">
        <ele>377.3</ele>
        <time>2022-09-28T10:53:18Z</time>
      </trkpt>
      <trkpt lat="46.48075" lon="6.46076">
        <ele>377.2</ele>
        <time>2022-09-28T10:53:19Z</time>
      </trkpt>
      <trkpt lat="46.48074" lon="6.46076">
        <ele>377.2</ele>
        <time>2022-09-28T10:53:20Z</time>
      </trkpt>
      <trkpt lat="46.4807" lon="6.46077">
        <ele>377.2</ele>
        <time>2022-09-28T10:53:21Z</time>
      </trkpt>
      <trkpt lat="46.48069" lon="6.46078">
        <ele>377.1</ele>
        <time>2022-09-28T10:53:22Z</time>
      </trkpt>
      <trkpt lat="46.48066" lon="6.46081">
        <ele>377.1</ele>
        <time>2022-09-28T10:53:23Z</time>
      </trkpt>
      <trkpt lat="46.48064" lon="6.46085">
        <ele>377</ele>
        <time>2022-09-28T10:53:24Z</time>
      </trkpt>
      <trkpt lat="46.48063" lon="6.46089">
        <ele>377</ele>
        <time>2022-09-28T10:53:25Z</time>
      </trkpt>
      <trkpt lat="46.48061" lon="6.46092">
        <ele>376.9</ele>
        <time>2022-09-28T10:53:26Z</time>
      </trkpt>
      <trkpt lat="46.48059" lon="6.46095">
        <ele>376.9</ele>
        <time>2022-09-28T10:53:27Z</time>
      </trkpt>
      <trkpt lat="46.48057" lon="6.46098">
        <ele>376.8</ele>
        <time>2022-09-28T10:53:28Z</time>
      </trkpt>
      <trkpt lat="46.48054" lon="6.46103">
        <ele>376.8</ele>
        <time>2022-09-28T10:53:29Z</time>
      </trkpt>
      <trkpt lat="46.48054" lon="6.46105">
        <ele>376.7</ele>
        <time>2022-09-28T10:53:30Z</time>
      </trkpt>
      <trkpt lat="46.48051" lon="6.46109">
        <ele>376.7</ele>
        <time>2022-09-28T10:53:31Z</time>
      </trkpt>
      <trkpt lat="46.4805" lon="6.46111">
        <ele>376.6</ele>
        <time>2022-09-28T10:53:32Z</time>
      </trkpt>
      <trkpt lat="46.4805" lon="6.46112">
        <ele>376.6</ele>
        <time>2022-09-28T10:53:33Z</time>
      </trkpt>
      <trkpt lat="46.4805" lon="6.46112">
        <ele>376.6</ele>
        <time>2022-09-28T10:53:34Z</time>
      </trkpt>
      <trkpt lat="46.4805" lon="6.46112">
        <ele>376.6</ele>
        <time>2022-09-28T10:53:35Z</time>
      </trkpt>
      <trkpt lat="46.4805" lon="6.46113">
        <ele>376.6</ele>
        <time>2022-09-28T10:53:36Z</time>
      </trkpt>
      <trkpt lat="46.4805" lon="6.46113">
        <ele>376.6</ele>
        <time>2022-09-28T10:53:37Z</time>
      </trkpt>
      <trkpt lat="46.4805" lon="6.46115">
        <ele>376.6</ele>
        <time>2022-09-28T10:53:38Z</time>
      </trkpt>
      <trkpt lat="46.4805" lon="6.46115">
        <ele>376.6</ele>
        <time>2022-09-28T10:53:39Z</time>
      </trkpt>
      <trkpt lat="46.4805" lon="6.46117">
        <ele>376.6</ele>
        <time>2022-09-28T10:53:40Z</time>
      </trkpt>
      <trkpt lat="46.48049" lon="6.46118">
        <ele>376.6</ele>
        <time>2022-09-28T10:53:41Z</time>
      </trkpt>
      <trkpt lat="46.48049" lon="6.46118">
        <ele>376.6</ele>
        <time>2022-09-28T10:53:42Z</time>
      </trkpt>
      <trkpt lat="46.4805" lon="6.46118">
        <ele>376.6</ele>
        <time>2022-09-28T10:53:43Z</time>
      </trkpt>
      <trkpt lat="46.4805" lon="6.46117">
        <ele>376.6</ele>
        <time>2022-09-28T10:53:44Z</time>
      </trkpt>
      <trkpt lat="46.4805" lon="6.46117">
        <ele>376.7</ele>
        <time>2022-09-28T10:53:45Z</time>
      </trkpt>
      <trkpt lat="46.4805" lon="6.46117">
        <ele>376.7</ele>
        <time>2022-09-28T10:53:46Z</time>
      </trkpt>
      <trkpt lat="46.4805" lon="6.46117">
        <ele>376.7</ele>
        <time>2022-09-28T10:53:47Z</time>
      </trkpt>
      <trkpt lat="46.4805" lon="6.46117">
        <ele>376.7</ele>
        <time>2022-09-28T10:53:48Z</time>
      </trkpt>
      <trkpt lat="46.4805" lon="6.46117">
        <ele>376.7</ele>
        <time>2022-09-28T10:53:49Z</time>
      </trkpt>
      <trkpt lat="46.48051" lon="6.46116">
        <ele>376.7</ele>
        <time>2022-09-28T10:53:50Z</time>
      </trkpt>
      <trkpt lat="46.48051" lon="6.46116">
        <ele>376.7</ele>
        <time>2022-09-28T10:53:51Z</time>
      </trkpt>
      <trkpt lat="46.48051" lon="6.46116">
        <ele>376.7</ele>
        <time>2022-09-28T10:53:52Z</time>
      </trkpt>
      <trkpt lat="46.48051" lon="6.46116">
        <ele>376.7</ele>
        <time>2022-09-28T10:54:19Z</time>
      </trkpt>
      <trkpt lat="46.48051" lon="6.46116">
        <ele>376.7</ele>
        <time>2022-09-28T10:54:20Z</time>
      </trkpt>
      <trkpt lat="46.48051" lon="6.46115">
        <ele>376.7</ele>
        <time>2022-09-28T10:54:21Z</time>
      </trkpt>
      <trkpt lat="46.48051" lon="6.46115">
        <ele>376.7</ele>
        <time>2022-09-28T10:54:22Z</time>
      </trkpt>
      <trkpt lat="46.48052" lon="6.46115">
        <ele>376.7</ele>
        <time>2022-09-28T10:54:23Z</time>
      </trkpt>
      <trkpt lat="46.48052" lon="6.46115">
        <ele>376.7</ele>
        <time>2022-09-28T10:54:24Z</time>
      </trkpt>
      <trkpt lat="46.48052" lon="6.46115">
        <ele>376.7</ele>
        <time>2022-09-28T10:54:25Z</time>
      </trkpt>
      <trkpt lat="46.48052" lon="6.46114">
        <ele>376.7</ele>
        <time>2022-09-28T10:54:26Z</time>
      </trkpt>
      <trkpt lat="46.48052" lon="6.46114">
        <ele>376.7</ele>
        <time>2022-09-28T10:54:27Z</time>
      </trkpt>
      <trkpt lat="46.48052" lon="6.46114">
        <ele>376.7</ele>
        <time>2022-09-28T10:54:28Z</time>
      </trkpt>
      <trkpt lat="46.48052" lon="6.46114">
        <ele>376.7</ele>
        <time>2022-09-28T10:56:25Z</time>
      </trkpt>
      <trkpt lat="46.48052" lon="6.46114">
        <ele>376.7</ele>
        <time>2022-09-28T10:56:26Z</time>
      </trkpt>
      <trkpt lat="46.48053" lon="6.46114">
        <ele>376.7</ele>
        <time>2022-09-28T10:56:27Z</time>
      </trkpt>
      <trkpt lat="46.48053" lon="6.46113">
        <ele>376.7</ele>
        <time>2022-09-28T10:56:28Z</time>
      </trkpt>
      <trkpt lat="46.48053" lon="6.46112">
        <ele>376.7</ele>
        <time>2022-09-28T10:56:29Z</time>
      </trkpt>
      <trkpt lat="46.48053" lon="6.46112">
        <ele>376.7</ele>
        <time>2022-09-28T10:56:30Z</time>
      </trkpt>
      <trkpt lat="46.48053" lon="6.46112">
        <ele>376.7</ele>
        <time>2022-09-28T10:56:31Z</time>
      </trkpt>
      <trkpt lat="46.48053" lon="6.46112">
        <ele>376.7</ele>
        <time>2022-09-28T10:56:32Z</time>
      </trkpt>
      <trkpt lat="46.48052" lon="6.46112">
        <ele>376.7</ele>
        <time>2022-09-28T10:56:33Z</time>
      </trkpt>
      <trkpt lat="46.48052" lon="6.46111">
        <ele>376.7</ele>
        <time>2022-09-28T10:56:34Z</time>
      </trkpt>
      <trkpt lat="46.48052" lon="6.46111">
        <ele>376.7</ele>
        <time>2022-09-28T10:56:35Z</time>
      </trkpt>
      <trkpt lat="46.48051" lon="6.46111">
        <ele>376.7</ele>
        <time>2022-09-28T10:56:36Z</time>
      </trkpt>
      <trkpt lat="46.48051" lon="6.46111">
        <ele>376.7</ele>
        <time>2022-09-28T10:56:37Z</time>
      </trkpt>
      <trkpt lat="46.48051" lon="6.46111">
        <ele>376.7</ele>
        <time>2022-09-28T10:56:38Z</time>
      </trkpt>
      <trkpt lat="46.4805" lon="6.46111">
        <ele>376.7</ele>
        <time>2022-09-28T10:56:39Z</time>
      </trkpt>
      <trkpt lat="46.4805" lon="6.46111">
        <ele>376.8</ele>
        <time>2022-09-28T10:56:40Z</time>
      </trkpt>
      <trkpt lat="46.4805" lon="6.4611">
        <ele>376.8</ele>
        <time>2022-09-28T10:56:46Z</time>
      </trkpt>
      <trkpt lat="46.48049" lon="6.4611">
        <ele>376.8</ele>
        <time>2022-09-28T10:56:47Z</time>
      </trkpt>
      <trkpt lat="46.48049" lon="6.46112">
        <ele>376.8</ele>
        <time>2022-09-28T10:56:48Z</time>
      </trkpt>
      <trkpt lat="46.48049" lon="6.46113">
        <ele>376.8</ele>
        <time>2022-09-28T10:56:49Z</time>
      </trkpt>
      <trkpt lat="46.48049" lon="6.46115">
        <ele>376.8</ele>
        <time>2022-09-28T10:56:50Z</time>
      </trkpt>
      <trkpt lat="46.48049" lon="6.46116">
        <ele>376.8</ele>
        <time>2022-09-28T10:56:51Z</time>
      </trkpt>
      <trkpt lat="46.48049" lon="6.46115">
        <ele>376.8</ele>
        <time>2022-09-28T10:56:52Z</time>
      </trkpt>
      <trkpt lat="46.48049" lon="6.46114">
        <ele>376.8</ele>
        <time>2022-09-28T10:56:53Z</time>
      </trkpt>
      <trkpt lat="46.48049" lon="6.46113">
        <ele>376.8</ele>
        <time>2022-09-28T10:56:54Z</time>
      </trkpt>
      <trkpt lat="46.4805" lon="6.46113">
        <ele>376.8</ele>
        <time>2022-09-28T10:56:55Z</time>
      </trkpt>
      <trkpt lat="46.4805" lon="6.46112">
        <ele>376.8</ele>
        <time>2022-09-28T10:56:56Z</time>
      </trkpt>
      <trkpt lat="46.4805" lon="6.46111">
        <ele>376.9</ele>
        <time>2022-09-28T10:56:57Z</time>
      </trkpt>
      <trkpt lat="46.48051" lon="6.4611">
        <ele>376.9</ele>
        <time>2022-09-28T10:56:58Z</time>
      </trkpt>
      <trkpt lat="46.48051" lon="6.4611">
        <ele>376.9</ele>
        <time>2022-09-28T10:56:59Z</time>
      </trkpt>
      <trkpt lat="46.48051" lon="6.46109">
        <ele>376.9</ele>
        <time>2022-09-28T10:57:00Z</time>
      </trkpt>
      <trkpt lat="46.48051" lon="6.46108">
        <ele>376.9</ele>
        <time>2022-09-28T10:57:01Z</time>
      </trkpt>
      <trkpt lat="46.48052" lon="6.46107">
        <ele>376.9</ele>
        <time>2022-09-28T10:57:02Z</time>
      </trkpt>
      <trkpt lat="46.48052" lon="6.46107">
        <ele>376.9</ele>
        <time>2022-09-28T10:57:16Z</time>
      </trkpt>
      <trkpt lat="46.48052" lon="6.46106">
        <ele>376.9</ele>
        <time>2022-09-28T10:57:17Z</time>
      </trkpt>
      <trkpt lat="46.48053" lon="6.46105">
        <ele>376.9</ele>
        <time>2022-09-28T10:57:18Z</time>
      </trkpt>
      <trkpt lat="46.48053" lon="6.46104">
        <ele>376.9</ele>
        <time>2022-09-28T10:57:19Z</time>
      </trkpt>
      <trkpt lat="46.48053" lon="6.46104">
        <ele>376.9</ele>
        <time>2022-09-28T10:57:20Z</time>
      </trkpt>
      <trkpt lat="46.48054" lon="6.46103">
        <ele>377</ele>
        <time>2022-09-28T10:57:21Z</time>
      </trkpt>
      <trkpt lat="46.48054" lon="6.46102">
        <ele>377</ele>
        <time>2022-09-28T10:57:22Z</time>
      </trkpt>
      <trkpt lat="46.48055" lon="6.46101">
        <ele>377</ele>
        <time>2022-09-28T10:57:23Z</time>
      </trkpt>
      <trkpt lat="46.48056" lon="6.461">
        <ele>377</ele>
        <time>2022-09-28T10:57:24Z</time>
      </trkpt>
      <trkpt lat="46.48056" lon="6.461">
        <ele>377</ele>
        <time>2022-09-28T10:57:25Z</time>
      </trkpt>
      <trkpt lat="46.48057" lon="6.46099">
        <ele>377</ele>
        <time>2022-09-28T10:57:26Z</time>
      </trkpt>
      <trkpt lat="46.48057" lon="6.46098">
        <ele>377</ele>
        <time>2022-09-28T10:57:27Z</time>
      </trkpt>
      <trkpt lat="46.48058" lon="6.46097">
        <ele>377</ele>
        <time>2022-09-28T10:57:28Z</time>
      </trkpt>
      <trkpt lat="46.48058" lon="6.46096">
        <ele>377</ele>
        <time>2022-09-28T10:57:29Z</time>
      </trkpt>
      <trkpt lat="46.48059" lon="6.46095">
        <ele>377.1</ele>
        <time>2022-09-28T10:57:30Z</time>
      </trkpt>
      <trkpt lat="46.4806" lon="6.46093">
        <ele>377.1</ele>
        <time>2022-09-28T10:57:31Z</time>
      </trkpt>
      <trkpt lat="46.4806" lon="6.46093">
        <ele>377.1</ele>
        <time>2022-09-28T10:57:32Z</time>
      </trkpt>
      <trkpt lat="46.4806" lon="6.46092">
        <ele>377.1</ele>
        <time>2022-09-28T10:57:33Z</time>
      </trkpt>
      <trkpt lat="46.48061" lon="6.46091">
        <ele>377.1</ele>
        <time>2022-09-28T10:57:34Z</time>
      </trkpt>
      <trkpt lat="46.48061" lon="6.4609">
        <ele>377.1</ele>
        <time>2022-09-28T10:57:35Z</time>
      </trkpt>
      <trkpt lat="46.48061" lon="6.46089">
        <ele>377.1</ele>
        <time>2022-09-28T10:57:36Z</time>
      </trkpt>
      <trkpt lat="46.48062" lon="6.46089">
        <ele>377.1</ele>
        <time>2022-09-28T10:57:37Z</time>
      </trkpt>
      <trkpt lat="46.48062" lon="6.46088">
        <ele>377.1</ele>
        <time>2022-09-28T10:57:38Z</time>
      </trkpt>
      <trkpt lat="46.48063" lon="6.46087">
        <ele>377.1</ele>
        <time>2022-09-28T10:57:39Z</time>
      </trkpt>
      <trkpt lat="46.48063" lon="6.46086">
        <ele>377.1</ele>
        <time>2022-09-28T10:57:40Z</time>
      </trkpt>
      <trkpt lat="46.48063" lon="6.46086">
        <ele>377.1</ele>
        <time>2022-09-28T10:57:41Z</time>
      </trkpt>
      <trkpt lat="46.48064" lon="6.46085">
        <ele>377.2</ele>
        <time>2022-09-28T10:57:42Z</time>
      </trkpt>
      <trkpt lat="46.48064" lon="6.46084">
        <ele>377.2</ele>
        <time>2022-09-28T10:57:43Z</time>
      </trkpt>
      <trkpt lat="46.48064" lon="6.46083">
        <ele>377.2</ele>
        <time>2022-09-28T10:58:07Z</time>
      </trkpt>
      <trkpt lat="46.48065" lon="6.46083">
        <ele>377.2</ele>
        <time>2022-09-28T10:58:08Z</time>
      </trkpt>
      <trkpt lat="46.48067" lon="6.4608">
        <ele>377.2</ele>
        <time>2022-09-28T10:58:09Z</time>
      </trkpt>
      <trkpt lat="46.48067" lon="6.46079">
        <ele>377.2</ele>
        <time>2022-09-28T10:58:10Z</time>
      </trkpt>
      <trkpt lat="46.4807" lon="6.46077">
        <ele>377.2</ele>
        <time>2022-09-28T10:58:11Z</time>
      </trkpt>
      <trkpt lat="46.48071" lon="6.46077">
        <ele>377.3</ele>
        <time>2022-09-28T10:58:12Z</time>
      </trkpt>
      <trkpt lat="46.48075" lon="6.46077">
        <ele>377.3</ele>
        <time>2022-09-28T10:58:13Z</time>
      </trkpt>
      <trkpt lat="46.48076" lon="6.46077">
        <ele>377.3</ele>
        <time>2022-09-28T10:58:14Z</time>
      </trkpt>
      <trkpt lat="46.4808" lon="6.46075">
        <ele>377.3</ele>
        <time>2022-09-28T10:58:15Z</time>
      </trkpt>
      <trkpt lat="46.48082" lon="6.46075">
        <ele>377.4</ele>
        <time>2022-09-28T10:58:16Z</time>
      </trkpt>
      <trkpt lat="46.48084" lon="6.46071">
        <ele>377.4</ele>
        <time>2022-09-28T10:58:17Z</time>
      </trkpt>
      <trkpt lat="46.48085" lon="6.4607">
        <ele>377.4</ele>
        <time>2022-09-28T10:58:18Z</time>
      </trkpt>
      <trkpt lat="46.48086" lon="6.46065">
        <ele>377.5</ele>
        <time>2022-09-28T10:58:19Z</time>
      </trkpt>
      <trkpt lat="46.48086" lon="6.46063">
        <ele>377.5</ele>
        <time>2022-09-28T10:58:20Z</time>
      </trkpt>
      <trkpt lat="46.48086" lon="6.4606">
        <ele>377.5</ele>
        <time>2022-09-28T10:58:21Z</time>
      </trkpt>
      <trkpt lat="46.48087" lon="6.46058">
        <ele>377.6</ele>
        <time>2022-09-28T10:58:22Z</time>
      </trkpt>
      <trkpt lat="46.48088" lon="6.46056">
        <ele>377.6</ele>
        <time>2022-09-28T10:58:23Z</time>
      </trkpt>
      <trkpt lat="46.48088" lon="6.46055">
        <ele>377.7</ele>
        <time>2022-09-28T10:58:24Z</time>
      </trkpt>
      <trkpt lat="46.48089" lon="6.46054">
        <ele>377.7</ele>
        <time>2022-09-28T10:58:25Z</time>
      </trkpt>
      <trkpt lat="46.48093" lon="6.46053">
        <ele>377.6</ele>
        <time>2022-09-28T10:58:26Z</time>
      </trkpt>
      <trkpt lat="46.48094" lon="6.46053">
        <ele>377.6</ele>
        <time>2022-09-28T10:58:27Z</time>
      </trkpt>
      <trkpt lat="46.48097" lon="6.46054">
        <ele>377.6</ele>
        <time>2022-09-28T10:58:28Z</time>
      </trkpt>
      <trkpt lat="46.48099" lon="6.46055">
        <ele>377.6</ele>
        <time>2022-09-28T10:58:29Z</time>
      </trkpt>
      <trkpt lat="46.48103" lon="6.46057">
        <ele>377.6</ele>
        <time>2022-09-28T10:58:30Z</time>
      </trkpt>
      <trkpt lat="46.48106" lon="6.46058">
        <ele>377.5</ele>
        <time>2022-09-28T10:58:31Z</time>
      </trkpt>
      <trkpt lat="46.48109" lon="6.46059">
        <ele>377.5</ele>
        <time>2022-09-28T10:58:32Z</time>
      </trkpt>
      <trkpt lat="46.48113" lon="6.4606">
        <ele>377.5</ele>
        <time>2022-09-28T10:58:33Z</time>
      </trkpt>
      <trkpt lat="46.48116" lon="6.4606">
        <ele>377.5</ele>
        <time>2022-09-28T10:58:34Z</time>
      </trkpt>
      <trkpt lat="46.48119" lon="6.46062">
        <ele>377.5</ele>
        <time>2022-09-28T10:58:35Z</time>
      </trkpt>
      <trkpt lat="46.48122" lon="6.46063">
        <ele>377.5</ele>
        <time>2022-09-28T10:58:36Z</time>
      </trkpt>
      <trkpt lat="46.48125" lon="6.46065">
        <ele>377.4</ele>
        <time>2022-09-28T10:58:37Z</time>
      </trkpt>
      <trkpt lat="46.48128" lon="6.46066">
        <ele>377.4</ele>
        <time>2022-09-28T10:58:38Z</time>
      </trkpt>
      <trkpt lat="46.48132" lon="6.46067">
        <ele>377.4</ele>
        <time>2022-09-28T10:58:39Z</time>
      </trkpt>
      <trkpt lat="46.48135" lon="6.46068">
        <ele>377.4</ele>
        <time>2022-09-28T10:58:40Z</time>
      </trkpt>
      <trkpt lat="46.48139" lon="6.46069">
        <ele>377.3</ele>
        <time>2022-09-28T10:58:41Z</time>
      </trkpt>
      <trkpt lat="46.48143" lon="6.4607">
        <ele>377.3</ele>
        <time>2022-09-28T10:58:42Z</time>
      </trkpt>
      <trkpt lat="46.48148" lon="6.46071">
        <ele>377.3</ele>
        <time>2022-09-28T10:58:43Z</time>
      </trkpt>
      <trkpt lat="46.48153" lon="6.46072">
        <ele>377.3</ele>
        <time>2022-09-28T10:58:44Z</time>
      </trkpt>
      <trkpt lat="46.48158" lon="6.46074">
        <ele>377.3</ele>
        <time>2022-09-28T10:58:45Z</time>
      </trkpt>
      <trkpt lat="46.48162" lon="6.46075">
        <ele>377.2</ele>
        <time>2022-09-28T10:58:46Z</time>
      </trkpt>
      <trkpt lat="46.48168" lon="6.46076">
        <ele>377.2</ele>
        <time>2022-09-28T10:58:47Z</time>
      </trkpt>
      <trkpt lat="46.48172" lon="6.46077">
        <ele>377.2</ele>
        <time>2022-09-28T10:58:48Z</time>
      </trkpt>
      <trkpt lat="46.48177" lon="6.46079">
        <ele>377.2</ele>
        <time>2022-09-28T10:58:49Z</time>
      </trkpt>
      <trkpt lat="46.48183" lon="6.4608">
        <ele>377.2</ele>
        <time>2022-09-28T10:58:50Z</time>
      </trkpt>
      <trkpt lat="46.48187" lon="6.46082">
        <ele>377.2</ele>
        <time>2022-09-28T10:58:51Z</time>
      </trkpt>
      <trkpt lat="46.48192" lon="6.46083">
        <ele>377.2</ele>
        <time>2022-09-28T10:58:52Z</time>
      </trkpt>
      <trkpt lat="46.48197" lon="6.46083">
        <ele>377.2</ele>
        <time>2022-09-28T10:58:53Z</time>
      </trkpt>
      <trkpt lat="46.48202" lon="6.46085">
        <ele>377.2</ele>
        <time>2022-09-28T10:58:54Z</time>
      </trkpt>
      <trkpt lat="46.48206" lon="6.46085">
        <ele>377.2</ele>
        <time>2022-09-28T10:58:55Z</time>
      </trkpt>
      <trkpt lat="46.4821" lon="6.46086">
        <ele>377.3</ele>
        <time>2022-09-28T10:58:56Z</time>
      </trkpt>
      <trkpt lat="46.48214" lon="6.46087">
        <ele>377.3</ele>
        <time>2022-09-28T10:58:57Z</time>
      </trkpt>
      <trkpt lat="46.48218" lon="6.46088">
        <ele>377.3</ele>
        <time>2022-09-28T10:58:58Z</time>
      </trkpt>
      <trkpt lat="46.48222" lon="6.46089">
        <ele>377.4</ele>
        <time>2022-09-28T10:58:59Z</time>
      </trkpt>
      <trkpt lat="46.48226" lon="6.4609">
        <ele>377.4</ele>
        <time>2022-09-28T10:59:00Z</time>
      </trkpt>
      <trkpt lat="46.4823" lon="6.4609">
        <ele>377.5</ele>
        <time>2022-09-28T10:59:01Z</time>
      </trkpt>
      <trkpt lat="46.48234" lon="6.46091">
        <ele>377.5</ele>
        <time>2022-09-28T10:59:02Z</time>
      </trkpt>
      <trkpt lat="46.48237" lon="6.46092">
        <ele>377.6</ele>
        <time>2022-09-28T10:59:03Z</time>
      </trkpt>
      <trkpt lat="46.48241" lon="6.46093">
        <ele>377.6</ele>
        <time>2022-09-28T10:59:04Z</time>
      </trkpt>
      <trkpt lat="46.48245" lon="6.46094">
        <ele>377.7</ele>
        <time>2022-09-28T10:59:05Z</time>
      </trkpt>
      <trkpt lat="46.48248" lon="6.46096">
        <ele>377.7</ele>
        <time>2022-09-28T10:59:06Z</time>
      </trkpt>
      <trkpt lat="46.48252" lon="6.46097">
        <ele>377.8</ele>
        <time>2022-09-28T10:59:07Z</time>
      </trkpt>
      <trkpt lat="46.48255" lon="6.46098">
        <ele>377.8</ele>
        <time>2022-09-28T10:59:08Z</time>
      </trkpt>
      <trkpt lat="46.48258" lon="6.46099">
        <ele>377.9</ele>
        <time>2022-09-28T10:59:09Z</time>
      </trkpt>
      <trkpt lat="46.48261" lon="6.461">
        <ele>377.9</ele>
        <time>2022-09-28T10:59:10Z</time>
      </trkpt>
      <trkpt lat="46.48265" lon="6.461">
        <ele>378</ele>
        <time>2022-09-28T10:59:11Z</time>
      </trkpt>
      <trkpt lat="46.48268" lon="6.46102">
        <ele>378</ele>
        <time>2022-09-28T10:59:12Z</time>
      </trkpt>
      <trkpt lat="46.48271" lon="6.46103">
        <ele>378.1</ele>
        <time>2022-09-28T10:59:13Z</time>
      </trkpt>
      <trkpt lat="46.48275" lon="6.46104">
        <ele>378.2</ele>
        <time>2022-09-28T10:59:14Z</time>
      </trkpt>
      <trkpt lat="46.48278" lon="6.46105">
        <ele>378.2</ele>
        <time>2022-09-28T10:59:15Z</time>
      </trkpt>
      <trkpt lat="46.48281" lon="6.46106">
        <ele>378.3</ele>
        <time>2022-09-28T10:59:16Z</time>
      </trkpt>
      <trkpt lat="46.48283" lon="6.46107">
        <ele>378.3</ele>
        <time>2022-09-28T10:59:17Z</time>
      </trkpt>
      <trkpt lat="46.48284" lon="6.46107">
        <ele>378.3</ele>
        <time>2022-09-28T10:59:18Z</time>
      </trkpt>
      <trkpt lat="46.48284" lon="6.46108">
        <ele>378.4</ele>
        <time>2022-09-28T10:59:19Z</time>
      </trkpt>
      <trkpt lat="46.48285" lon="6.46108">
        <ele>378.4</ele>
        <time>2022-09-28T10:59:20Z</time>
      </trkpt>
      <trkpt lat="46.48285" lon="6.46108">
        <ele>378.4</ele>
        <time>2022-09-28T10:59:21Z</time>
      </trkpt>
      <trkpt lat="46.48285" lon="6.46109">
        <ele>378.4</ele>
        <time>2022-09-28T10:59:22Z</time>
      </trkpt>
      <trkpt lat="46.48285" lon="6.46109">
        <ele>378.4</ele>
        <time>2022-09-28T10:59:23Z</time>
      </trkpt>
      <trkpt lat="46.48285" lon="6.4611">
        <ele>378.4</ele>
        <time>2022-09-28T10:59:24Z</time>
      </trkpt>
      <trkpt lat="46.48285" lon="6.4611">
        <ele>378.4</ele>
        <time>2022-09-28T10:59:25Z</time>
      </trkpt>
      <trkpt lat="46.48285" lon="6.46111">
        <ele>378.4</ele>
        <time>2022-09-28T10:59:26Z</time>
      </trkpt>
      <trkpt lat="46.48285" lon="6.46112">
        <ele>378.5</ele>
        <time>2022-09-28T10:59:27Z</time>
      </trkpt>
      <trkpt lat="46.48285" lon="6.46113">
        <ele>378.5</ele>
        <time>2022-09-28T10:59:28Z</time>
      </trkpt>
      <trkpt lat="46.48286" lon="6.46114">
        <ele>378.5</ele>
        <time>2022-09-28T10:59:29Z</time>
      </trkpt>
      <trkpt lat="46.48286" lon="6.46114">
        <ele>378.5</ele>
        <time>2022-09-28T10:59:30Z</time>
      </trkpt>
      <trkpt lat="46.48285" lon="6.46115">
        <ele>378.5</ele>
        <time>2022-09-28T10:59:31Z</time>
      </trkpt>
      <trkpt lat="46.48285" lon="6.46116">
        <ele>378.5</ele>
        <time>2022-09-28T10:59:32Z</time>
      </trkpt>
      <trkpt lat="46.48285" lon="6.46116">
        <ele>378.5</ele>
        <time>2022-09-28T10:59:33Z</time>
      </trkpt>
      <trkpt lat="46.48285" lon="6.46116">
        <ele>378.5</ele>
        <time>2022-09-28T10:59:34Z</time>
      </trkpt>
      <trkpt lat="46.48285" lon="6.46117">
        <ele>378.5</ele>
        <time>2022-09-28T10:59:35Z</time>
      </trkpt>
      <trkpt lat="46.48285" lon="6.46117">
        <ele>378.5</ele>
        <time>2022-09-28T10:59:36Z</time>
      </trkpt>
      <trkpt lat="46.48285" lon="6.46117">
        <ele>378.5</ele>
        <time>2022-09-28T10:59:37Z</time>
      </trkpt>
      <trkpt lat="46.48284" lon="6.46117">
        <ele>378.5</ele>
        <time>2022-09-28T10:59:38Z</time>
      </trkpt>
      <trkpt lat="46.48283" lon="6.46119">
        <ele>378.6</ele>
        <time>2022-09-28T11:02:08Z</time>
      </trkpt>
      <trkpt lat="46.48282" lon="6.46119">
        <ele>378.6</ele>
        <time>2022-09-28T11:02:09Z</time>
      </trkpt>
      <trkpt lat="46.48283" lon="6.46118">
        <ele>378.6</ele>
        <time>2022-09-28T11:02:10Z</time>
      </trkpt>
      <trkpt lat="46.48282" lon="6.46118">
        <ele>378.6</ele>
        <time>2022-09-28T11:02:11Z</time>
      </trkpt>
      <trkpt lat="46.48283" lon="6.46118">
        <ele>378.6</ele>
        <time>2022-09-28T11:02:12Z</time>
      </trkpt>
      <trkpt lat="46.48283" lon="6.46118">
        <ele>378.6</ele>
        <time>2022-09-28T11:02:13Z</time>
      </trkpt>
      <trkpt lat="46.48283" lon="6.46118">
        <ele>378.6</ele>
        <time>2022-09-28T11:02:14Z</time>
      </trkpt>
      <trkpt lat="46.48284" lon="6.46118">
        <ele>378.6</ele>
        <time>2022-09-28T11:02:15Z</time>
      </trkpt>
      <trkpt lat="46.48284" lon="6.46118">
        <ele>378.6</ele>
        <time>2022-09-28T11:02:16Z</time>
      </trkpt>
      <trkpt lat="46.48284" lon="6.46118">
        <ele>378.6</ele>
        <time>2022-09-28T11:02:17Z</time>
      </trkpt>
      <trkpt lat="46.48283" lon="6.46114">
        <ele>378.7</ele>
        <time>2022-09-28T11:06:06Z</time>
      </trkpt>
      <trkpt lat="46.48284" lon="6.46113">
        <ele>378.7</ele>
        <time>2022-09-28T11:06:07Z</time>
      </trkpt>
      <trkpt lat="46.48285" lon="6.46112">
        <ele>378.7</ele>
        <time>2022-09-28T11:06:08Z</time>
      </trkpt>
      <trkpt lat="46.48286" lon="6.46111">
        <ele>378.8</ele>
        <time>2022-09-28T11:06:09Z</time>
      </trkpt>
      <trkpt lat="46.48286" lon="6.46111">
        <ele>378.8</ele>
        <time>2022-09-28T11:06:10Z</time>
      </trkpt>
      <trkpt lat="46.48287" lon="6.46111">
        <ele>378.8</ele>
        <time>2022-09-28T11:06:11Z</time>
      </trkpt>
      <trkpt lat="46.48286" lon="6.46111">
        <ele>378.8</ele>
        <time>2022-09-28T11:06:12Z</time>
      </trkpt>
      <trkpt lat="46.48286" lon="6.46111">
        <ele>378.8</ele>
        <time>2022-09-28T11:06:13Z</time>
      </trkpt>
      <trkpt lat="46.48287" lon="6.46111">
        <ele>378.8</ele>
        <time>2022-09-28T11:06:14Z</time>
      </trkpt>
      <trkpt lat="46.48287" lon="6.4611">
        <ele>378.8</ele>
        <time>2022-09-28T11:06:15Z</time>
      </trkpt>
      <trkpt lat="46.48288" lon="6.46109">
        <ele>378.8</ele>
        <time>2022-09-28T11:06:16Z</time>
      </trkpt>
      <trkpt lat="46.48289" lon="6.46109">
        <ele>378.9</ele>
        <time>2022-09-28T11:06:17Z</time>
      </trkpt>
      <trkpt lat="46.4829" lon="6.46109">
        <ele>378.9</ele>
        <time>2022-09-28T11:06:18Z</time>
      </trkpt>
      <trkpt lat="46.48291" lon="6.46109">
        <ele>378.9</ele>
        <time>2022-09-28T11:06:19Z</time>
      </trkpt>
      <trkpt lat="46.48292" lon="6.4611">
        <ele>378.9</ele>
        <time>2022-09-28T11:06:20Z</time>
      </trkpt>
      <trkpt lat="46.48292" lon="6.4611">
        <ele>378.9</ele>
        <time>2022-09-28T11:06:21Z</time>
      </trkpt>
      <trkpt lat="46.48293" lon="6.4611">
        <ele>379</ele>
        <time>2022-09-28T11:06:22Z</time>
      </trkpt>
      <trkpt lat="46.48294" lon="6.4611">
        <ele>379</ele>
        <time>2022-09-28T11:06:23Z</time>
      </trkpt>
      <trkpt lat="46.48295" lon="6.46111">
        <ele>379</ele>
        <time>2022-09-28T11:06:24Z</time>
      </trkpt>
      <trkpt lat="46.48296" lon="6.46111">
        <ele>379</ele>
        <time>2022-09-28T11:06:25Z</time>
      </trkpt>
      <trkpt lat="46.48297" lon="6.46111">
        <ele>379</ele>
        <time>2022-09-28T11:06:26Z</time>
      </trkpt>
      <trkpt lat="46.48298" lon="6.46111">
        <ele>379.1</ele>
        <time>2022-09-28T11:06:32Z</time>
      </trkpt>
      <trkpt lat="46.48298" lon="6.46112">
        <ele>379.1</ele>
        <time>2022-09-28T11:06:33Z</time>
      </trkpt>
      <trkpt lat="46.48302" lon="6.46112">
        <ele>379.1</ele>
        <time>2022-09-28T11:06:34Z</time>
      </trkpt>
      <trkpt lat="46.48304" lon="6.46113">
        <ele>379.2</ele>
        <time>2022-09-28T11:06:35Z</time>
      </trkpt>
      <trkpt lat="46.48307" lon="6.46114">
        <ele>379.3</ele>
        <time>2022-09-28T11:06:36Z</time>
      </trkpt>
      <trkpt lat="46.48311" lon="6.46115">
        <ele>379.3</ele>
        <time>2022-09-28T11:06:37Z</time>
      </trkpt>
      <trkpt lat="46.48312" lon="6.46115">
        <ele>379.4</ele>
        <time>2022-09-28T11:06:38Z</time>
      </trkpt>
      <trkpt lat="46.48315" lon="6.46115">
        <ele>379.4</ele>
        <time>2022-09-28T11:06:39Z</time>
      </trkpt>
      <trkpt lat="46.48319" lon="6.46116">
        <ele>379.5</ele>
        <time>2022-09-28T11:06:40Z</time>
      </trkpt>
      <trkpt lat="46.48321" lon="6.46117">
        <ele>379.6</ele>
        <time>2022-09-28T11:06:41Z</time>
      </trkpt>
      <trkpt lat="46.48324" lon="6.46118">
        <ele>379.6</ele>
        <time>2022-09-28T11:06:42Z</time>
      </trkpt>
      <trkpt lat="46.48328" lon="6.46119">
        <ele>379.7</ele>
        <time>2022-09-28T11:06:43Z</time>
      </trkpt>
      <trkpt lat="46.48331" lon="6.4612">
        <ele>379.8</ele>
        <time>2022-09-28T11:06:44Z</time>
      </trkpt>
      <trkpt lat="46.48334" lon="6.46121">
        <ele>379.8</ele>
        <time>2022-09-28T11:06:45Z</time>
      </trkpt>
      <trkpt lat="46.48337" lon="6.46122">
        <ele>379.9</ele>
        <time>2022-09-28T11:06:46Z</time>
      </trkpt>
      <trkpt lat="46.48341" lon="6.46123">
        <ele>380</ele>
        <time>2022-09-28T11:06:47Z</time>
      </trkpt>
      <trkpt lat="46.48345" lon="6.46123">
        <ele>380</ele>
        <time>2022-09-28T11:06:48Z</time>
      </trkpt>
      <trkpt lat="46.48349" lon="6.46124">
        <ele>380.1</ele>
        <time>2022-09-28T11:06:49Z</time>
      </trkpt>
      <trkpt lat="46.48353" lon="6.46125">
        <ele>380.2</ele>
        <time>2022-09-28T11:06:50Z</time>
      </trkpt>
      <trkpt lat="46.48356" lon="6.46125">
        <ele>380.3</ele>
        <time>2022-09-28T11:06:51Z</time>
      </trkpt>
      <trkpt lat="46.4836" lon="6.46126">
        <ele>380.4</ele>
        <time>2022-09-28T11:06:52Z</time>
      </trkpt>
      <trkpt lat="46.48364" lon="6.46127">
        <ele>380.4</ele>
        <time>2022-09-28T11:06:53Z</time>
      </trkpt>
      <trkpt lat="46.48368" lon="6.46128">
        <ele>380.5</ele>
        <time>2022-09-28T11:06:54Z</time>
      </trkpt>
      <trkpt lat="46.48373" lon="6.46127">
        <ele>380.6</ele>
        <time>2022-09-28T11:06:55Z</time>
      </trkpt>
      <trkpt lat="46.48376" lon="6.46128">
        <ele>380.7</ele>
        <time>2022-09-28T11:06:56Z</time>
      </trkpt>
      <trkpt lat="46.4838" lon="6.46127">
        <ele>380.8</ele>
        <time>2022-09-28T11:06:57Z</time>
      </trkpt>
      <trkpt lat="46.48384" lon="6.46128">
        <ele>380.9</ele>
        <time>2022-09-28T11:06:58Z</time>
      </trkpt>
      <trkpt lat="46.48388" lon="6.46128">
        <ele>380.9</ele>
        <time>2022-09-28T11:06:59Z</time>
      </trkpt>
      <trkpt lat="46.48393" lon="6.46128">
        <ele>381</ele>
        <time>2022-09-28T11:07:00Z</time>
      </trkpt>
      <trkpt lat="46.48395" lon="6.46128">
        <ele>381.1</ele>
        <time>2022-09-28T11:07:01Z</time>
      </trkpt>
      <trkpt lat="46.484" lon="6.4613">
        <ele>381.2</ele>
        <time>2022-09-28T11:07:02Z</time>
      </trkpt>
      <trkpt lat="46.48406" lon="6.4613">
        <ele>381.2</ele>
        <time>2022-09-28T11:07:03Z</time>
      </trkpt>
      <trkpt lat="46.4841" lon="6.4613">
        <ele>381.3</ele>
        <time>2022-09-28T11:07:04Z</time>
      </trkpt>
      <trkpt lat="46.48414" lon="6.4613">
        <ele>381.4</ele>
        <time>2022-09-28T11:07:05Z</time>
      </trkpt>
      <trkpt lat="46.48417" lon="6.46131">
        <ele>381.4</ele>
        <time>2022-09-28T11:07:06Z</time>
      </trkpt>
      <trkpt lat="46.4842" lon="6.46134">
        <ele>381.4</ele>
        <time>2022-09-28T11:07:07Z</time>
      </trkpt>
      <trkpt lat="46.48426" lon="6.46133">
        <ele>381.5</ele>
        <time>2022-09-28T11:07:08Z</time>
      </trkpt>
      <trkpt lat="46.4843" lon="6.46135">
        <ele>381.6</ele>
        <time>2022-09-28T11:07:09Z</time>
      </trkpt>
      <trkpt lat="46.48434" lon="6.46135">
        <ele>381.6</ele>
        <time>2022-09-28T11:07:10Z</time>
      </trkpt>
      <trkpt lat="46.48439" lon="6.46136">
        <ele>381.7</ele>
        <time>2022-09-28T11:07:11Z</time>
      </trkpt>
      <trkpt lat="46.48443" lon="6.46137">
        <ele>381.7</ele>
        <time>2022-09-28T11:07:12Z</time>
      </trkpt>
      <trkpt lat="46.48447" lon="6.46138">
        <ele>381.7</ele>
        <time>2022-09-28T11:07:13Z</time>
      </trkpt>
      <trkpt lat="46.48452" lon="6.46138">
        <ele>381.8</ele>
        <time>2022-09-28T11:07:14Z</time>
      </trkpt>
      <trkpt lat="46.48456" lon="6.46138">
        <ele>381.8</ele>
        <time>2022-09-28T11:07:15Z</time>
      </trkpt>
      <trkpt lat="46.48461" lon="6.4614">
        <ele>381.8</ele>
        <time>2022-09-28T11:07:16Z</time>
      </trkpt>
      <trkpt lat="46.48465" lon="6.4614">
        <ele>381.8</ele>
        <time>2022-09-28T11:07:17Z</time>
      </trkpt>
      <trkpt lat="46.4847" lon="6.46141">
        <ele>381.8</ele>
        <time>2022-09-28T11:07:18Z</time>
      </trkpt>
      <trkpt lat="46.48475" lon="6.4614">
        <ele>381.9</ele>
        <time>2022-09-28T11:07:19Z</time>
      </trkpt>
      <trkpt lat="46.48479" lon="6.4614">
        <ele>381.9</ele>
        <time>2022-09-28T11:07:20Z</time>
      </trkpt>
      <trkpt lat="46.48484" lon="6.4614">
        <ele>381.9</ele>
        <time>2022-09-28T11:07:21Z</time>
      </trkpt>
      <trkpt lat="46.48489" lon="6.4614">
        <ele>381.9</ele>
        <time>2022-09-28T11:07:22Z</time>
      </trkpt>
      <trkpt lat="46.48494" lon="6.4614">
        <ele>381.9</ele>
        <time>2022-09-28T11:07:23Z</time>
      </trkpt>
      <trkpt lat="46.48499" lon="6.4614">
        <ele>382</ele>
        <time>2022-09-28T11:07:24Z</time>
      </trkpt>
      <trkpt lat="46.48504" lon="6.4614">
        <ele>382</ele>
        <time>2022-09-28T11:07:25Z</time>
      </trkpt>
      <trkpt lat="46.48509" lon="6.4614">
        <ele>382</ele>
        <time>2022-09-28T11:07:26Z</time>
      </trkpt>
      <trkpt lat="46.48514" lon="6.46139">
        <ele>382</ele>
        <time>2022-09-28T11:07:27Z</time>
      </trkpt>
      <trkpt lat="46.48519" lon="6.46139">
        <ele>382.1</ele>
        <time>2022-09-28T11:07:28Z</time>
      </trkpt>
      <trkpt lat="46.48524" lon="6.46138">
        <ele>382.1</ele>
        <time>2022-09-28T11:07:29Z</time>
      </trkpt>
      <trkpt lat="46.48529" lon="6.46139">
        <ele>382.1</ele>
        <time>2022-09-28T11:07:30Z</time>
      </trkpt>
      <trkpt lat="46.48534" lon="6.46139">
        <ele>382.2</ele>
        <time>2022-09-28T11:07:31Z</time>
      </trkpt>
      <trkpt lat="46.48539" lon="6.46139">
        <ele>382.3</ele>
        <time>2022-09-28T11:07:32Z</time>
      </trkpt>
      <trkpt lat="46.48544" lon="6.46137">
        <ele>382.4</ele>
        <time>2022-09-28T11:07:33Z</time>
      </trkpt>
      <trkpt lat="46.48549" lon="6.46136">
        <ele>382.5</ele>
        <time>2022-09-28T11:07:34Z</time>
      </trkpt>
      <trkpt lat="46.48553" lon="6.46136">
        <ele>382.6</ele>
        <time>2022-09-28T11:07:35Z</time>
      </trkpt>
      <trkpt lat="46.48557" lon="6.46136">
        <ele>382.7</ele>
        <time>2022-09-28T11:07:36Z</time>
      </trkpt>
      <trkpt lat="46.4856" lon="6.46134">
        <ele>382.8</ele>
        <time>2022-09-28T11:07:37Z</time>
      </trkpt>
      <trkpt lat="46.48566" lon="6.46135">
        <ele>382.9</ele>
        <time>2022-09-28T11:07:38Z</time>
      </trkpt>
      <trkpt lat="46.4857" lon="6.46133">
        <ele>383</ele>
        <time>2022-09-28T11:07:39Z</time>
      </trkpt>
      <trkpt lat="46.48574" lon="6.46131">
        <ele>383.2</ele>
        <time>2022-09-28T11:07:40Z</time>
      </trkpt>
      <trkpt lat="46.48578" lon="6.46131">
        <ele>383.3</ele>
        <time>2022-09-28T11:07:41Z</time>
      </trkpt>
      <trkpt lat="46.48582" lon="6.46131">
        <ele>383.4</ele>
        <time>2022-09-28T11:07:42Z</time>
      </trkpt>
      <trkpt lat="46.48587" lon="6.4613">
        <ele>383.5</ele>
        <time>2022-09-28T11:07:43Z</time>
      </trkpt>
      <trkpt lat="46.48591" lon="6.46129">
        <ele>383.7</ele>
        <time>2022-09-28T11:07:44Z</time>
      </trkpt>
      <trkpt lat="46.48595" lon="6.46128">
        <ele>383.8</ele>
        <time>2022-09-28T11:07:45Z</time>
      </trkpt>
      <trkpt lat="46.48598" lon="6.46127">
        <ele>383.9</ele>
        <time>2022-09-28T11:07:46Z</time>
      </trkpt>
      <trkpt lat="46.48601" lon="6.46124">
        <ele>384</ele>
        <time>2022-09-28T11:07:47Z</time>
      </trkpt>
      <trkpt lat="46.48604" lon="6.46122">
        <ele>384.4</ele>
        <time>2022-09-28T11:07:48Z</time>
      </trkpt>
      <trkpt lat="46.48606" lon="6.46117">
        <ele>384.6</ele>
        <time>2022-09-28T11:07:49Z</time>
      </trkpt>
      <trkpt lat="46.48607" lon="6.46116">
        <ele>384.7</ele>
        <time>2022-09-28T11:07:50Z</time>
      </trkpt>
      <trkpt lat="46.48609" lon="6.46112">
        <ele>384.9</ele>
        <time>2022-09-28T11:07:51Z</time>
      </trkpt>
      <trkpt lat="46.4861" lon="6.46111">
        <ele>385</ele>
        <time>2022-09-28T11:07:52Z</time>
      </trkpt>
      <trkpt lat="46.48612" lon="6.46108">
        <ele>385.2</ele>
        <time>2022-09-28T11:07:53Z</time>
      </trkpt>
      <trkpt lat="46.48613" lon="6.46108">
        <ele>385.3</ele>
        <time>2022-09-28T11:07:54Z</time>
      </trkpt>
      <trkpt lat="46.48614" lon="6.46106">
        <ele>385.4</ele>
        <time>2022-09-28T11:07:55Z</time>
      </trkpt>
      <trkpt lat="46.48615" lon="6.46105">
        <ele>385.5</ele>
        <time>2022-09-28T11:07:56Z</time>
      </trkpt>
      <trkpt lat="46.48616" lon="6.46104">
        <ele>385.5</ele>
        <time>2022-09-28T11:07:57Z</time>
      </trkpt>
      <trkpt lat="46.48616" lon="6.46103">
        <ele>385.6</ele>
        <time>2022-09-28T11:07:58Z</time>
      </trkpt>
      <trkpt lat="46.48617" lon="6.46102">
        <ele>385.6</ele>
        <time>2022-09-28T11:07:59Z</time>
      </trkpt>
      <trkpt lat="46.48618" lon="6.46101">
        <ele>385.7</ele>
        <time>2022-09-28T11:08:00Z</time>
      </trkpt>
      <trkpt lat="46.48618" lon="6.461">
        <ele>385.7</ele>
        <time>2022-09-28T11:08:01Z</time>
      </trkpt>
      <trkpt lat="46.48619" lon="6.461">
        <ele>385.8</ele>
        <time>2022-09-28T11:08:02Z</time>
      </trkpt>
      <trkpt lat="46.4862" lon="6.46099">
        <ele>385.8</ele>
        <time>2022-09-28T11:08:03Z</time>
      </trkpt>
      <trkpt lat="46.4862" lon="6.46098">
        <ele>385.8</ele>
        <time>2022-09-28T11:08:04Z</time>
      </trkpt>
      <trkpt lat="46.48621" lon="6.46097">
        <ele>385.8</ele>
        <time>2022-09-28T11:08:05Z</time>
      </trkpt>
      <trkpt lat="46.48622" lon="6.46096">
        <ele>385.8</ele>
        <time>2022-09-28T11:08:20Z</time>
      </trkpt>
      <trkpt lat="46.48622" lon="6.46095">
        <ele>385.8</ele>
        <time>2022-09-28T11:08:21Z</time>
      </trkpt>
      <trkpt lat="46.48624" lon="6.46091">
        <ele>385.8</ele>
        <time>2022-09-28T11:08:22Z</time>
      </trkpt>
      <trkpt lat="46.48626" lon="6.46087">
        <ele>385.8</ele>
        <time>2022-09-28T11:08:23Z</time>
      </trkpt>
      <trkpt lat="46.48628" lon="6.46083">
        <ele>385.8</ele>
        <time>2022-09-28T11:08:24Z</time>
      </trkpt>
      <trkpt lat="46.48633" lon="6.46079">
        <ele>385.8</ele>
        <time>2022-09-28T11:08:25Z</time>
      </trkpt>
      <trkpt lat="46.48637" lon="6.46076">
        <ele>385.8</ele>
        <time>2022-09-28T11:08:26Z</time>
      </trkpt>
      <trkpt lat="46.4864" lon="6.46072">
        <ele>385.9</ele>
        <time>2022-09-28T11:08:27Z</time>
      </trkpt>
      <trkpt lat="46.48643" lon="6.46068">
        <ele>385.9</ele>
        <time>2022-09-28T11:08:28Z</time>
      </trkpt>
      <trkpt lat="46.48647" lon="6.46064">
        <ele>385.9</ele>
        <time>2022-09-28T11:08:29Z</time>
      </trkpt>
      <trkpt lat="46.48651" lon="6.46061">
        <ele>386</ele>
        <time>2022-09-28T11:08:30Z</time>
      </trkpt>
      <trkpt lat="46.48654" lon="6.46057">
        <ele>386</ele>
        <time>2022-09-28T11:08:31Z</time>
      </trkpt>
      <trkpt lat="46.48657" lon="6.46053">
        <ele>386.1</ele>
        <time>2022-09-28T11:08:32Z</time>
      </trkpt>
      <trkpt lat="46.4866" lon="6.4605">
        <ele>386.1</ele>
        <time>2022-09-28T11:08:33Z</time>
      </trkpt>
      <trkpt lat="46.48663" lon="6.46047">
        <ele>386.2</ele>
        <time>2022-09-28T11:08:34Z</time>
      </trkpt>
      <trkpt lat="46.48665" lon="6.46045">
        <ele>386.2</ele>
        <time>2022-09-28T11:08:35Z</time>
      </trkpt>
      <trkpt lat="46.48669" lon="6.46041">
        <ele>386.3</ele>
        <time>2022-09-28T11:08:36Z</time>
      </trkpt>
      <trkpt lat="46.48674" lon="6.46036">
        <ele>386.3</ele>
        <time>2022-09-28T11:08:37Z</time>
      </trkpt>
      <trkpt lat="46.48678" lon="6.4603">
        <ele>386.4</ele>
        <time>2022-09-28T11:08:38Z</time>
      </trkpt>
      <trkpt lat="46.48681" lon="6.46028">
        <ele>386.5</ele>
        <time>2022-09-28T11:08:39Z</time>
      </trkpt>
      <trkpt lat="46.48684" lon="6.46025">
        <ele>386.5</ele>
        <time>2022-09-28T11:08:40Z</time>
      </trkpt>
      <trkpt lat="46.48686" lon="6.46024">
        <ele>386.6</ele>
        <time>2022-09-28T11:08:41Z</time>
      </trkpt>
      <trkpt lat="46.48689" lon="6.4602">
        <ele>386.6</ele>
        <time>2022-09-28T11:08:42Z</time>
      </trkpt>
      <trkpt lat="46.4869" lon="6.46018">
        <ele>386.6</ele>
        <time>2022-09-28T11:08:43Z</time>
      </trkpt>
      <trkpt lat="46.48691" lon="6.46014">
        <ele>386.7</ele>
        <time>2022-09-28T11:08:44Z</time>
      </trkpt>
      <trkpt lat="46.48692" lon="6.46012">
        <ele>386.7</ele>
        <time>2022-09-28T11:08:45Z</time>
      </trkpt>
      <trkpt lat="46.48691" lon="6.46008">
        <ele>386.7</ele>
        <time>2022-09-28T11:08:46Z</time>
      </trkpt>
      <trkpt lat="46.48691" lon="6.46007">
        <ele>386.8</ele>
        <time>2022-09-28T11:08:47Z</time>
      </trkpt>
      <trkpt lat="46.48689" lon="6.46003">
        <ele>386.8</ele>
        <time>2022-09-28T11:08:48Z</time>
      </trkpt>
      <trkpt lat="46.48688" lon="6.46001">
        <ele>386.8</ele>
        <time>2022-09-28T11:08:49Z</time>
      </trkpt>
      <trkpt lat="46.48685" lon="6.45998">
        <ele>386.9</ele>
        <time>2022-09-28T11:08:50Z</time>
      </trkpt>
      <trkpt lat="46.48684" lon="6.45998">
        <ele>386.9</ele>
        <time>2022-09-28T11:08:51Z</time>
      </trkpt>
      <trkpt lat="46.48681" lon="6.45995">
        <ele>386.9</ele>
        <time>2022-09-28T11:08:52Z</time>
      </trkpt>
      <trkpt lat="46.48679" lon="6.45992">
        <ele>386.9</ele>
        <time>2022-09-28T11:08:53Z</time>
      </trkpt>
      <trkpt lat="46.48675" lon="6.4599">
        <ele>387</ele>
        <time>2022-09-28T11:08:54Z</time>
      </trkpt>
      <trkpt lat="46.48672" lon="6.45986">
        <ele>387</ele>
        <time>2022-09-28T11:08:55Z</time>
      </trkpt>
      <trkpt lat="46.48669" lon="6.45983">
        <ele>387.1</ele>
        <time>2022-09-28T11:08:56Z</time>
      </trkpt>
      <trkpt lat="46.48666" lon="6.4598">
        <ele>387.1</ele>
        <time>2022-09-28T11:08:57Z</time>
      </trkpt>
      <trkpt lat="46.48664" lon="6.45977">
        <ele>387.2</ele>
        <time>2022-09-28T11:08:58Z</time>
      </trkpt>
      <trkpt lat="46.4866" lon="6.45974">
        <ele>387.2</ele>
        <time>2022-09-28T11:08:59Z</time>
      </trkpt>
      <trkpt lat="46.48657" lon="6.45969">
        <ele>387.3</ele>
        <time>2022-09-28T11:09:00Z</time>
      </trkpt>
      <trkpt lat="46.48654" lon="6.45965">
        <ele>387.3</ele>
        <time>2022-09-28T11:09:01Z</time>
      </trkpt>
      <trkpt lat="46.48649" lon="6.45961">
        <ele>387.4</ele>
        <time>2022-09-28T11:09:02Z</time>
      </trkpt>
      <trkpt lat="46.48647" lon="6.45958">
        <ele>387.4</ele>
        <time>2022-09-28T11:09:03Z</time>
      </trkpt>
      <trkpt lat="46.48643" lon="6.45955">
        <ele>387.4</ele>
        <time>2022-09-28T11:09:04Z</time>
      </trkpt>
      <trkpt lat="46.4864" lon="6.4595">
        <ele>387.5</ele>
        <time>2022-09-28T11:09:05Z</time>
      </trkpt>
      <trkpt lat="46.48636" lon="6.45946">
        <ele>387.5</ele>
        <time>2022-09-28T11:09:06Z</time>
      </trkpt>
      <trkpt lat="46.48633" lon="6.45942">
        <ele>387.5</ele>
        <time>2022-09-28T11:09:07Z</time>
      </trkpt>
      <trkpt lat="46.48628" lon="6.45938">
        <ele>387.6</ele>
        <time>2022-09-28T11:09:08Z</time>
      </trkpt>
      <trkpt lat="46.48625" lon="6.45934">
        <ele>387.6</ele>
        <time>2022-09-28T11:09:09Z</time>
      </trkpt>
      <trkpt lat="46.48621" lon="6.4593">
        <ele>387.6</ele>
        <time>2022-09-28T11:09:10Z</time>
      </trkpt>
      <trkpt lat="46.48617" lon="6.45926">
        <ele>387.6</ele>
        <time>2022-09-28T11:09:11Z</time>
      </trkpt>
      <trkpt lat="46.48614" lon="6.45922">
        <ele>387.7</ele>
        <time>2022-09-28T11:09:12Z</time>
      </trkpt>
      <trkpt lat="46.48611" lon="6.45919">
        <ele>387.7</ele>
        <time>2022-09-28T11:09:13Z</time>
      </trkpt>
      <trkpt lat="46.48608" lon="6.45915">
        <ele>387.8</ele>
        <time>2022-09-28T11:09:14Z</time>
      </trkpt>
      <trkpt lat="46.48605" lon="6.45911">
        <ele>387.8</ele>
        <time>2022-09-28T11:09:15Z</time>
      </trkpt>
      <trkpt lat="46.48603" lon="6.45907">
        <ele>387.8</ele>
        <time>2022-09-28T11:09:16Z</time>
      </trkpt>
      <trkpt lat="46.48601" lon="6.45903">
        <ele>387.9</ele>
        <time>2022-09-28T11:09:17Z</time>
      </trkpt>
      <trkpt lat="46.48598" lon="6.459">
        <ele>387.9</ele>
        <time>2022-09-28T11:09:18Z</time>
      </trkpt>
      <trkpt lat="46.48595" lon="6.45896">
        <ele>388</ele>
        <time>2022-09-28T11:09:19Z</time>
      </trkpt>
      <trkpt lat="46.48593" lon="6.45893">
        <ele>388</ele>
        <time>2022-09-28T11:09:20Z</time>
      </trkpt>
      <trkpt lat="46.48591" lon="6.45888">
        <ele>388.1</ele>
        <time>2022-09-28T11:09:21Z</time>
      </trkpt>
      <trkpt lat="46.48588" lon="6.45883">
        <ele>388.1</ele>
        <time>2022-09-28T11:09:22Z</time>
      </trkpt>
      <trkpt lat="46.48587" lon="6.4588">
        <ele>388.2</ele>
        <time>2022-09-28T11:09:23Z</time>
      </trkpt>
      <trkpt lat="46.48584" lon="6.45876">
        <ele>388.2</ele>
        <time>2022-09-28T11:09:24Z</time>
      </trkpt>
      <trkpt lat="46.48581" lon="6.45872">
        <ele>388.3</ele>
        <time>2022-09-28T11:09:25Z</time>
      </trkpt>
      <trkpt lat="46.48579" lon="6.45869">
        <ele>388.3</ele>
        <time>2022-09-28T11:09:26Z</time>
      </trkpt>
      <trkpt lat="46.48579" lon="6.45864">
        <ele>388.3</ele>
        <time>2022-09-28T11:09:27Z</time>
      </trkpt>
      <trkpt lat="46.48576" lon="6.4586">
        <ele>388.4</ele>
        <time>2022-09-28T11:09:28Z</time>
      </trkpt>
      <trkpt lat="46.48572" lon="6.45857">
        <ele>388.4</ele>
        <time>2022-09-28T11:09:29Z</time>
      </trkpt>
      <trkpt lat="46.48571" lon="6.45853">
        <ele>388.5</ele>
        <time>2022-09-28T11:09:30Z</time>
      </trkpt>
      <trkpt lat="46.48569" lon="6.45849">
        <ele>388.5</ele>
        <time>2022-09-28T11:09:31Z</time>
      </trkpt>
      <trkpt lat="46.48567" lon="6.45845">
        <ele>388.5</ele>
        <time>2022-09-28T11:09:32Z</time>
      </trkpt>
      <trkpt lat="46.48564" lon="6.4584">
        <ele>388.6</ele>
        <time>2022-09-28T11:09:33Z</time>
      </trkpt>
      <trkpt lat="46.48562" lon="6.45837">
        <ele>388.6</ele>
        <time>2022-09-28T11:09:34Z</time>
      </trkpt>
      <trkpt lat="46.4856" lon="6.45833">
        <ele>388.7</ele>
        <time>2022-09-28T11:09:35Z</time>
      </trkpt>
      <trkpt lat="46.48557" lon="6.4583">
        <ele>388.8</ele>
        <time>2022-09-28T11:09:36Z</time>
      </trkpt>
      <trkpt lat="46.48555" lon="6.45827">
        <ele>388.8</ele>
        <time>2022-09-28T11:09:37Z</time>
      </trkpt>
      <trkpt lat="46.48552" lon="6.45825">
        <ele>388.9</ele>
        <time>2022-09-28T11:09:38Z</time>
      </trkpt>
      <trkpt lat="46.48549" lon="6.45821">
        <ele>388.9</ele>
        <time>2022-09-28T11:09:39Z</time>
      </trkpt>
      <trkpt lat="46.48547" lon="6.45817">
        <ele>389</ele>
        <time>2022-09-28T11:09:40Z</time>
      </trkpt>
      <trkpt lat="46.48544" lon="6.45815">
        <ele>389.1</ele>
        <time>2022-09-28T11:09:41Z</time>
      </trkpt>
      <trkpt lat="46.48541" lon="6.45812">
        <ele>389.1</ele>
        <time>2022-09-28T11:09:42Z</time>
      </trkpt>
      <trkpt lat="46.48538" lon="6.4581">
        <ele>389.2</ele>
        <time>2022-09-28T11:09:43Z</time>
      </trkpt>
      <trkpt lat="46.48535" lon="6.45806">
        <ele>389.2</ele>
        <time>2022-09-28T11:09:44Z</time>
      </trkpt>
      <trkpt lat="46.48532" lon="6.45804">
        <ele>389.2</ele>
        <time>2022-09-28T11:09:45Z</time>
      </trkpt>
      <trkpt lat="46.48529" lon="6.45801">
        <ele>389.3</ele>
        <time>2022-09-28T11:09:46Z</time>
      </trkpt>
      <trkpt lat="46.48527" lon="6.45797">
        <ele>389.3</ele>
        <time>2022-09-28T11:09:47Z</time>
      </trkpt>
      <trkpt lat="46.48524" lon="6.45795">
        <ele>389.3</ele>
        <time>2022-09-28T11:09:48Z</time>
      </trkpt>
      <trkpt lat="46.48521" lon="6.45792">
        <ele>389.3</ele>
        <time>2022-09-28T11:09:49Z</time>
      </trkpt>
      <trkpt lat="46.48518" lon="6.4579">
        <ele>389.3</ele>
        <time>2022-09-28T11:09:50Z</time>
      </trkpt>
      <trkpt lat="46.48515" lon="6.45787">
        <ele>389.3</ele>
        <time>2022-09-28T11:09:51Z</time>
      </trkpt>
      <trkpt lat="46.48512" lon="6.45784">
        <ele>389.4</ele>
        <time>2022-09-28T11:09:52Z</time>
      </trkpt>
      <trkpt lat="46.48509" lon="6.45781">
        <ele>389.4</ele>
        <time>2022-09-28T11:09:53Z</time>
      </trkpt>
      <trkpt lat="46.48506" lon="6.45777">
        <ele>389.4</ele>
        <time>2022-09-28T11:09:54Z</time>
      </trkpt>
      <trkpt lat="46.48504" lon="6.45774">
        <ele>389.4</ele>
        <time>2022-09-28T11:09:55Z</time>
      </trkpt>
      <trkpt lat="46.48501" lon="6.45771">
        <ele>389.5</ele>
        <time>2022-09-28T11:09:56Z</time>
      </trkpt>
      <trkpt lat="46.48498" lon="6.45768">
        <ele>389.5</ele>
        <time>2022-09-28T11:09:57Z</time>
      </trkpt>
      <trkpt lat="46.48495" lon="6.45764">
        <ele>389.5</ele>
        <time>2022-09-28T11:09:58Z</time>
      </trkpt>
      <trkpt lat="46.48493" lon="6.4576">
        <ele>389.5</ele>
        <time>2022-09-28T11:09:59Z</time>
      </trkpt>
      <trkpt lat="46.48491" lon="6.45756">
        <ele>389.5</ele>
        <time>2022-09-28T11:10:00Z</time>
      </trkpt>
      <trkpt lat="46.48489" lon="6.45752">
        <ele>389.5</ele>
        <time>2022-09-28T11:10:01Z</time>
      </trkpt>
      <trkpt lat="46.48487" lon="6.45748">
        <ele>389.6</ele>
        <time>2022-09-28T11:10:02Z</time>
      </trkpt>
      <trkpt lat="46.48484" lon="6.45744">
        <ele>389.6</ele>
        <time>2022-09-28T11:10:03Z</time>
      </trkpt>
      <trkpt lat="46.48482" lon="6.45741">
        <ele>389.6</ele>
        <time>2022-09-28T11:10:04Z</time>
      </trkpt>
      <trkpt lat="46.4848" lon="6.45737">
        <ele>389.7</ele>
        <time>2022-09-28T11:10:05Z</time>
      </trkpt>
      <trkpt lat="46.48478" lon="6.45734">
        <ele>389.7</ele>
        <time>2022-09-28T11:10:06Z</time>
      </trkpt>
      <trkpt lat="46.48476" lon="6.4573">
        <ele>389.7</ele>
        <time>2022-09-28T11:10:07Z</time>
      </trkpt>
      <trkpt lat="46.48474" lon="6.45727">
        <ele>389.8</ele>
        <time>2022-09-28T11:10:08Z</time>
      </trkpt>
      <trkpt lat="46.48472" lon="6.45723">
        <ele>389.8</ele>
        <time>2022-09-28T11:10:09Z</time>
      </trkpt>
      <trkpt lat="46.4847" lon="6.45719">
        <ele>389.8</ele>
        <time>2022-09-28T11:10:10Z</time>
      </trkpt>
      <trkpt lat="46.48468" lon="6.45716">
        <ele>389.9</ele>
        <time>2022-09-28T11:10:11Z</time>
      </trkpt>
      <trkpt lat="46.48466" lon="6.45713">
        <ele>389.9</ele>
        <time>2022-09-28T11:10:12Z</time>
      </trkpt>
      <trkpt lat="46.48464" lon="6.45709">
        <ele>390</ele>
        <time>2022-09-28T11:10:13Z</time>
      </trkpt>
      <trkpt lat="46.48462" lon="6.45705">
        <ele>390</ele>
        <time>2022-09-28T11:10:14Z</time>
      </trkpt>
      <trkpt lat="46.4846" lon="6.45702">
        <ele>390</ele>
        <time>2022-09-28T11:10:15Z</time>
      </trkpt>
      <trkpt lat="46.48458" lon="6.45698">
        <ele>390.1</ele>
        <time>2022-09-28T11:10:16Z</time>
      </trkpt>
      <trkpt lat="46.48457" lon="6.45696">
        <ele>390.2</ele>
        <time>2022-09-28T11:10:17Z</time>
      </trkpt>
      <trkpt lat="46.48455" lon="6.45691">
        <ele>390.2</ele>
        <time>2022-09-28T11:10:18Z</time>
      </trkpt>
      <trkpt lat="46.48455" lon="6.4569">
        <ele>390.3</ele>
        <time>2022-09-28T11:10:19Z</time>
      </trkpt>
      <trkpt lat="46.48453" lon="6.45684">
        <ele>390.3</ele>
        <time>2022-09-28T11:10:20Z</time>
      </trkpt>
      <trkpt lat="46.48453" lon="6.45683">
        <ele>390.4</ele>
        <time>2022-09-28T11:10:21Z</time>
      </trkpt>
      <trkpt lat="46.48453" lon="6.45678">
        <ele>390.4</ele>
        <time>2022-09-28T11:10:22Z</time>
      </trkpt>
      <trkpt lat="46.48453" lon="6.45677">
        <ele>390.5</ele>
        <time>2022-09-28T11:10:23Z</time>
      </trkpt>
      <trkpt lat="46.48453" lon="6.45673">
        <ele>390.7</ele>
        <time>2022-09-28T11:10:24Z</time>
      </trkpt>
      <trkpt lat="46.48452" lon="6.45669">
        <ele>390.8</ele>
        <time>2022-09-28T11:10:25Z</time>
      </trkpt>
      <trkpt lat="46.48452" lon="6.45667">
        <ele>390.9</ele>
        <time>2022-09-28T11:10:26Z</time>
      </trkpt>
      <trkpt lat="46.48449" lon="6.45664">
        <ele>391.1</ele>
        <time>2022-09-28T11:10:27Z</time>
      </trkpt>
      <trkpt lat="46.48449" lon="6.45663">
        <ele>391.2</ele>
        <time>2022-09-28T11:10:28Z</time>
      </trkpt>
      <trkpt lat="46.48445" lon="6.45661">
        <ele>391.5</ele>
        <time>2022-09-28T11:10:29Z</time>
      </trkpt>
      <trkpt lat="46.48444" lon="6.45661">
        <ele>391.5</ele>
        <time>2022-09-28T11:10:30Z</time>
      </trkpt>
      <trkpt lat="46.48441" lon="6.45662">
        <ele>391.8</ele>
        <time>2022-09-28T11:10:31Z</time>
      </trkpt>
      <trkpt lat="46.4844" lon="6.45663">
        <ele>391.9</ele>
        <time>2022-09-28T11:10:32Z</time>
      </trkpt>
      <trkpt lat="46.48438" lon="6.45666">
        <ele>392</ele>
        <time>2022-09-28T11:10:33Z</time>
      </trkpt>
      <trkpt lat="46.48436" lon="6.45669">
        <ele>392</ele>
        <time>2022-09-28T11:10:34Z</time>
      </trkpt>
      <trkpt lat="46.48435" lon="6.45673">
        <ele>392</ele>
        <time>2022-09-28T11:10:35Z</time>
      </trkpt>
      <trkpt lat="46.48433" lon="6.45678">
        <ele>391.7</ele>
        <time>2022-09-28T11:10:36Z</time>
      </trkpt>
      <trkpt lat="46.48431" lon="6.45682">
        <ele>391.5</ele>
        <time>2022-09-28T11:10:37Z</time>
      </trkpt>
      <trkpt lat="46.48428" lon="6.45688">
        <ele>391.1</ele>
        <time>2022-09-28T11:10:38Z</time>
      </trkpt>
      <trkpt lat="46.48424" lon="6.45693">
        <ele>390.8</ele>
        <time>2022-09-28T11:10:39Z</time>
      </trkpt>
      <trkpt lat="46.48421" lon="6.45698">
        <ele>390.4</ele>
        <time>2022-09-28T11:10:40Z</time>
      </trkpt>
      <trkpt lat="46.48417" lon="6.45704">
        <ele>390.2</ele>
        <time>2022-09-28T11:10:41Z</time>
      </trkpt>
      <trkpt lat="46.48415" lon="6.45708">
        <ele>390.1</ele>
        <time>2022-09-28T11:10:42Z</time>
      </trkpt>
      <trkpt lat="46.48412" lon="6.45712">
        <ele>390</ele>
        <time>2022-09-28T11:10:43Z</time>
      </trkpt>
      <trkpt lat="46.48408" lon="6.45718">
        <ele>389.9</ele>
        <time>2022-09-28T11:10:44Z</time>
      </trkpt>
      <trkpt lat="46.48406" lon="6.45722">
        <ele>389.8</ele>
        <time>2022-09-28T11:10:45Z</time>
      </trkpt>
      <trkpt lat="46.48405" lon="6.45726">
        <ele>389.8</ele>
        <time>2022-09-28T11:10:46Z</time>
      </trkpt>
      <trkpt lat="46.48401" lon="6.45734">
        <ele>389.7</ele>
        <time>2022-09-28T11:10:47Z</time>
      </trkpt>
      <trkpt lat="46.48397" lon="6.45737">
        <ele>389.6</ele>
        <time>2022-09-28T11:10:48Z</time>
      </trkpt>
      <trkpt lat="46.48394" lon="6.4574">
        <ele>389.6</ele>
        <time>2022-09-28T11:10:49Z</time>
      </trkpt>
      <trkpt lat="46.4839" lon="6.45746">
        <ele>389.5</ele>
        <time>2022-09-28T11:10:50Z</time>
      </trkpt>
      <trkpt lat="46.48386" lon="6.45753">
        <ele>389.4</ele>
        <time>2022-09-28T11:10:51Z</time>
      </trkpt>
      <trkpt lat="46.48382" lon="6.45758">
        <ele>389.3</ele>
        <time>2022-09-28T11:10:52Z</time>
      </trkpt>
      <trkpt lat="46.48378" lon="6.45763">
        <ele>389.2</ele>
        <time>2022-09-28T11:10:53Z</time>
      </trkpt>
      <trkpt lat="46.48374" lon="6.45769">
        <ele>389.2</ele>
        <time>2022-09-28T11:10:54Z</time>
      </trkpt>
      <trkpt lat="46.48369" lon="6.45775">
        <ele>389.1</ele>
        <time>2022-09-28T11:10:55Z</time>
      </trkpt>
      <trkpt lat="46.48367" lon="6.45781">
        <ele>389</ele>
        <time>2022-09-28T11:10:56Z</time>
      </trkpt>
      <trkpt lat="46.48362" lon="6.45788">
        <ele>389</ele>
        <time>2022-09-28T11:10:57Z</time>
      </trkpt>
      <trkpt lat="46.48358" lon="6.45794">
        <ele>388.9</ele>
        <time>2022-09-28T11:10:58Z</time>
      </trkpt>
      <trkpt lat="46.48355" lon="6.45799">
        <ele>388.9</ele>
        <time>2022-09-28T11:10:59Z</time>
      </trkpt>
      <trkpt lat="46.48352" lon="6.45802">
        <ele>388.8</ele>
        <time>2022-09-28T11:11:00Z</time>
      </trkpt>
      <trkpt lat="46.48348" lon="6.45806">
        <ele>388.8</ele>
        <time>2022-09-28T11:11:01Z</time>
      </trkpt>
      <trkpt lat="46.48344" lon="6.45812">
        <ele>388.7</ele>
        <time>2022-09-28T11:11:02Z</time>
      </trkpt>
      <trkpt lat="46.4834" lon="6.45818">
        <ele>388.7</ele>
        <time>2022-09-28T11:11:03Z</time>
      </trkpt>
      <trkpt lat="46.48337" lon="6.45822">
        <ele>388.7</ele>
        <time>2022-09-28T11:11:04Z</time>
      </trkpt>
      <trkpt lat="46.48334" lon="6.45825">
        <ele>388.7</ele>
        <time>2022-09-28T11:11:05Z</time>
      </trkpt>
      <trkpt lat="46.48332" lon="6.4583">
        <ele>388.7</ele>
        <time>2022-09-28T11:11:06Z</time>
      </trkpt>
      <trkpt lat="46.48328" lon="6.45832">
        <ele>388.7</ele>
        <time>2022-09-28T11:11:07Z</time>
      </trkpt>
      <trkpt lat="46.48326" lon="6.45834">
        <ele>388.7</ele>
        <time>2022-09-28T11:11:08Z</time>
      </trkpt>
      <trkpt lat="46.48322" lon="6.45835">
        <ele>388.7</ele>
        <time>2022-09-28T11:11:09Z</time>
      </trkpt>
      <trkpt lat="46.4832" lon="6.45836">
        <ele>388.7</ele>
        <time>2022-09-28T11:11:10Z</time>
      </trkpt>
      <trkpt lat="46.48316" lon="6.45839">
        <ele>388.7</ele>
        <time>2022-09-28T11:11:11Z</time>
      </trkpt>
      <trkpt lat="46.48314" lon="6.45843">
        <ele>388.7</ele>
        <time>2022-09-28T11:11:12Z</time>
      </trkpt>
      <trkpt lat="46.48313" lon="6.45848">
        <ele>388.7</ele>
        <time>2022-09-28T11:11:13Z</time>
      </trkpt>
      <trkpt lat="46.48312" lon="6.45853">
        <ele>388.7</ele>
        <time>2022-09-28T11:11:14Z</time>
      </trkpt>
      <trkpt lat="46.48313" lon="6.45859">
        <ele>388.6</ele>
        <time>2022-09-28T11:11:15Z</time>
      </trkpt>
      <trkpt lat="46.48315" lon="6.45863">
        <ele>388.6</ele>
        <time>2022-09-28T11:11:16Z</time>
      </trkpt>
      <trkpt lat="46.48319" lon="6.45867">
        <ele>388.6</ele>
        <time>2022-09-28T11:11:17Z</time>
      </trkpt>
      <trkpt lat="46.48323" lon="6.45869">
        <ele>388.5</ele>
        <time>2022-09-28T11:11:18Z</time>
      </trkpt>
      <trkpt lat="46.48327" lon="6.4587">
        <ele>388.4</ele>
        <time>2022-09-28T11:11:19Z</time>
      </trkpt>
      <trkpt lat="46.48332" lon="6.45872">
        <ele>388.3</ele>
        <time>2022-09-28T11:11:20Z</time>
      </trkpt>
      <trkpt lat="46.48336" lon="6.45875">
        <ele>388.2</ele>
        <time>2022-09-28T11:11:21Z</time>
      </trkpt>
      <trkpt lat="46.48341" lon="6.45878">
        <ele>388.1</ele>
        <time>2022-09-28T11:11:22Z</time>
      </trkpt>
      <trkpt lat="46.48346" lon="6.45882">
        <ele>388</ele>
        <time>2022-09-28T11:11:23Z</time>
      </trkpt>
      <trkpt lat="46.48351" lon="6.45886">
        <ele>387.9</ele>
        <time>2022-09-28T11:11:24Z</time>
      </trkpt>
      <trkpt lat="46.48356" lon="6.4589">
        <ele>387.8</ele>
        <time>2022-09-28T11:11:25Z</time>
      </trkpt>
      <trkpt lat="46.48361" lon="6.45894">
        <ele>387.7</ele>
        <time>2022-09-28T11:11:26Z</time>
      </trkpt>
      <trkpt lat="46.48366" lon="6.45898">
        <ele>387.6</ele>
        <time>2022-09-28T11:11:27Z</time>
      </trkpt>
      <trkpt lat="46.48371" lon="6.45903">
        <ele>387.6</ele>
        <time>2022-09-28T11:11:28Z</time>
      </trkpt>
      <trkpt lat="46.48376" lon="6.45908">
        <ele>387.5</ele>
        <time>2022-09-28T11:11:29Z</time>
      </trkpt>
      <trkpt lat="46.48381" lon="6.45913">
        <ele>387.4</ele>
        <time>2022-09-28T11:11:30Z</time>
      </trkpt>
      <trkpt lat="46.48387" lon="6.45917">
        <ele>387.4</ele>
        <time>2022-09-28T11:11:31Z</time>
      </trkpt>
      <trkpt lat="46.48393" lon="6.45921">
        <ele>387.4</ele>
        <time>2022-09-28T11:11:32Z</time>
      </trkpt>
      <trkpt lat="46.48398" lon="6.45926">
        <ele>387.3</ele>
        <time>2022-09-28T11:11:33Z</time>
      </trkpt>
      <trkpt lat="46.48404" lon="6.45931">
        <ele>387.3</ele>
        <time>2022-09-28T11:11:34Z</time>
      </trkpt>
      <trkpt lat="46.4841" lon="6.45936">
        <ele>387.3</ele>
        <time>2022-09-28T11:11:35Z</time>
      </trkpt>
      <trkpt lat="46.48416" lon="6.45941">
        <ele>387.3</ele>
        <time>2022-09-28T11:11:36Z</time>
      </trkpt>
      <trkpt lat="46.48422" lon="6.45946">
        <ele>387.2</ele>
        <time>2022-09-28T11:11:37Z</time>
      </trkpt>
      <trkpt lat="46.48428" lon="6.45951">
        <ele>387.2</ele>
        <time>2022-09-28T11:11:38Z</time>
      </trkpt>
      <trkpt lat="46.48434" lon="6.45955">
        <ele>387.1</ele>
        <time>2022-09-28T11:11:39Z</time>
      </trkpt>
      <trkpt lat="46.4844" lon="6.4596">
        <ele>387.1</ele>
        <time>2022-09-28T11:11:40Z</time>
      </trkpt>
      <trkpt lat="46.48445" lon="6.45966">
        <ele>387</ele>
        <time>2022-09-28T11:11:41Z</time>
      </trkpt>
      <trkpt lat="46.48451" lon="6.4597">
        <ele>387</ele>
        <time>2022-09-28T11:11:42Z</time>
      </trkpt>
      <trkpt lat="46.48457" lon="6.45975">
        <ele>386.9</ele>
        <time>2022-09-28T11:11:43Z</time>
      </trkpt>
      <trkpt lat="46.48463" lon="6.45978">
        <ele>386.9</ele>
        <time>2022-09-28T11:11:44Z</time>
      </trkpt>
      <trkpt lat="46.48468" lon="6.45983">
        <ele>386.9</ele>
        <time>2022-09-28T11:11:45Z</time>
      </trkpt>
      <trkpt lat="46.48473" lon="6.45988">
        <ele>386.8</ele>
        <time>2022-09-28T11:11:46Z</time>
      </trkpt>
      <trkpt lat="46.48479" lon="6.45993">
        <ele>386.8</ele>
        <time>2022-09-28T11:11:47Z</time>
      </trkpt>
      <trkpt lat="46.48485" lon="6.45997">
        <ele>386.7</ele>
        <time>2022-09-28T11:11:48Z</time>
      </trkpt>
      <trkpt lat="46.48491" lon="6.46">
        <ele>386.7</ele>
        <time>2022-09-28T11:11:49Z</time>
      </trkpt>
      <trkpt lat="46.48496" lon="6.46005">
        <ele>386.7</ele>
        <time>2022-09-28T11:11:50Z</time>
      </trkpt>
      <trkpt lat="46.48502" lon="6.4601">
        <ele>386.6</ele>
        <time>2022-09-28T11:11:51Z</time>
      </trkpt>
      <trkpt lat="46.48507" lon="6.46015">
        <ele>386.6</ele>
        <time>2022-09-28T11:11:52Z</time>
      </trkpt>
      <trkpt lat="46.48512" lon="6.46019">
        <ele>386.5</ele>
        <time>2022-09-28T11:11:53Z</time>
      </trkpt>
      <trkpt lat="46.48518" lon="6.46024">
        <ele>386.5</ele>
        <time>2022-09-28T11:11:54Z</time>
      </trkpt>
      <trkpt lat="46.48523" lon="6.46028">
        <ele>386.5</ele>
        <time>2022-09-28T11:11:55Z</time>
      </trkpt>
      <trkpt lat="46.48529" lon="6.46032">
        <ele>386.5</ele>
        <time>2022-09-28T11:11:56Z</time>
      </trkpt>
      <trkpt lat="46.48534" lon="6.46037">
        <ele>386.4</ele>
        <time>2022-09-28T11:11:57Z</time>
      </trkpt>
      <trkpt lat="46.4854" lon="6.46041">
        <ele>386.4</ele>
        <time>2022-09-28T11:11:58Z</time>
      </trkpt>
      <trkpt lat="46.48545" lon="6.46046">
        <ele>386.3</ele>
        <time>2022-09-28T11:11:59Z</time>
      </trkpt>
      <trkpt lat="46.48551" lon="6.4605">
        <ele>386.3</ele>
        <time>2022-09-28T11:12:00Z</time>
      </trkpt>
      <trkpt lat="46.48556" lon="6.46054">
        <ele>386.3</ele>
        <time>2022-09-28T11:12:01Z</time>
      </trkpt>
      <trkpt lat="46.48562" lon="6.46059">
        <ele>386.2</ele>
        <time>2022-09-28T11:12:02Z</time>
      </trkpt>
      <trkpt lat="46.48567" lon="6.46063">
        <ele>386.2</ele>
        <time>2022-09-28T11:12:03Z</time>
      </trkpt>
      <trkpt lat="46.48573" lon="6.46068">
        <ele>386.1</ele>
        <time>2022-09-28T11:12:04Z</time>
      </trkpt>
      <trkpt lat="46.48578" lon="6.46073">
        <ele>386.1</ele>
        <time>2022-09-28T11:12:05Z</time>
      </trkpt>
      <trkpt lat="46.48584" lon="6.46077">
        <ele>386.1</ele>
        <time>2022-09-28T11:12:06Z</time>
      </trkpt>
      <trkpt lat="46.4859" lon="6.46081">
        <ele>386</ele>
        <time>2022-09-28T11:12:07Z</time>
      </trkpt>
      <trkpt lat="46.48594" lon="6.46086">
        <ele>386</ele>
        <time>2022-09-28T11:12:08Z</time>
      </trkpt>
      <trkpt lat="46.48599" lon="6.4609">
        <ele>386</ele>
        <time>2022-09-28T11:12:09Z</time>
      </trkpt>
      <trkpt lat="46.48605" lon="6.46095">
        <ele>385.9</ele>
        <time>2022-09-28T11:12:10Z</time>
      </trkpt>
      <trkpt lat="46.4861" lon="6.46099">
        <ele>385.8</ele>
        <time>2022-09-28T11:12:11Z</time>
      </trkpt>
      <trkpt lat="46.48616" lon="6.46103">
        <ele>385.8</ele>
        <time>2022-09-28T11:12:12Z</time>
      </trkpt>
      <trkpt lat="46.4862" lon="6.46107">
        <ele>385.7</ele>
        <time>2022-09-28T11:12:13Z</time>
      </trkpt>
      <trkpt lat="46.48625" lon="6.46111">
        <ele>385.7</ele>
        <time>2022-09-28T11:12:14Z</time>
      </trkpt>
      <trkpt lat="46.4863" lon="6.46116">
        <ele>385.6</ele>
        <time>2022-09-28T11:12:15Z</time>
      </trkpt>
      <trkpt lat="46.48635" lon="6.46119">
        <ele>385.6</ele>
        <time>2022-09-28T11:12:16Z</time>
      </trkpt>
      <trkpt lat="46.48641" lon="6.46125">
        <ele>385.5</ele>
        <time>2022-09-28T11:12:17Z</time>
      </trkpt>
      <trkpt lat="46.48646" lon="6.46129">
        <ele>385.4</ele>
        <time>2022-09-28T11:12:18Z</time>
      </trkpt>
      <trkpt lat="46.48652" lon="6.46133">
        <ele>385.4</ele>
        <time>2022-09-28T11:12:19Z</time>
      </trkpt>
      <trkpt lat="46.48658" lon="6.46137">
        <ele>385.4</ele>
        <time>2022-09-28T11:12:20Z</time>
      </trkpt>
      <trkpt lat="46.48663" lon="6.46142">
        <ele>385.3</ele>
        <time>2022-09-28T11:12:21Z</time>
      </trkpt>
      <trkpt lat="46.48668" lon="6.46148">
        <ele>385.3</ele>
        <time>2022-09-28T11:12:22Z</time>
      </trkpt>
      <trkpt lat="46.48674" lon="6.46153">
        <ele>385.3</ele>
        <time>2022-09-28T11:12:23Z</time>
      </trkpt>
      <trkpt lat="46.48679" lon="6.46157">
        <ele>385.3</ele>
        <time>2022-09-28T11:12:24Z</time>
      </trkpt>
      <trkpt lat="46.48682" lon="6.46164">
        <ele>385.2</ele>
        <time>2022-09-28T11:12:25Z</time>
      </trkpt>
      <trkpt lat="46.48687" lon="6.46171">
        <ele>385.2</ele>
        <time>2022-09-28T11:12:26Z</time>
      </trkpt>
      <trkpt lat="46.48692" lon="6.46178">
        <ele>385.2</ele>
        <time>2022-09-28T11:12:27Z</time>
      </trkpt>
      <trkpt lat="46.48698" lon="6.46184">
        <ele>385.2</ele>
        <time>2022-09-28T11:12:28Z</time>
      </trkpt>
      <trkpt lat="46.48703" lon="6.46192">
        <ele>385.1</ele>
        <time>2022-09-28T11:12:29Z</time>
      </trkpt>
      <trkpt lat="46.48709" lon="6.46199">
        <ele>385.1</ele>
        <time>2022-09-28T11:12:30Z</time>
      </trkpt>
      <trkpt lat="46.48713" lon="6.46206">
        <ele>385</ele>
        <time>2022-09-28T11:12:31Z</time>
      </trkpt>
      <trkpt lat="46.48717" lon="6.46212">
        <ele>385</ele>
        <time>2022-09-28T11:12:32Z</time>
      </trkpt>
      <trkpt lat="46.48721" lon="6.4622">
        <ele>385</ele>
        <time>2022-09-28T11:12:33Z</time>
      </trkpt>
      <trkpt lat="46.48726" lon="6.46227">
        <ele>384.9</ele>
        <time>2022-09-28T11:12:34Z</time>
      </trkpt>
      <trkpt lat="46.48731" lon="6.46234">
        <ele>384.9</ele>
        <time>2022-09-28T11:12:35Z</time>
      </trkpt>
      <trkpt lat="46.48736" lon="6.46241">
        <ele>384.9</ele>
        <time>2022-09-28T11:12:36Z</time>
      </trkpt>
      <trkpt lat="46.48742" lon="6.46249">
        <ele>384.8</ele>
        <time>2022-09-28T11:12:37Z</time>
      </trkpt>
      <trkpt lat="46.48745" lon="6.46255">
        <ele>384.8</ele>
        <time>2022-09-28T11:12:38Z</time>
      </trkpt>
      <trkpt lat="46.4875" lon="6.46263">
        <ele>384.8</ele>
        <time>2022-09-28T11:12:39Z</time>
      </trkpt>
      <trkpt lat="46.48755" lon="6.46269">
        <ele>384.8</ele>
        <time>2022-09-28T11:12:40Z</time>
      </trkpt>
      <trkpt lat="46.48759" lon="6.46275">
        <ele>384.8</ele>
        <time>2022-09-28T11:12:41Z</time>
      </trkpt>
      <trkpt lat="46.48764" lon="6.46282">
        <ele>384.8</ele>
        <time>2022-09-28T11:12:42Z</time>
      </trkpt>
      <trkpt lat="46.48768" lon="6.4629">
        <ele>384.8</ele>
        <time>2022-09-28T11:12:43Z</time>
      </trkpt>
      <trkpt lat="46.48772" lon="6.46295">
        <ele>384.9</ele>
        <time>2022-09-28T11:12:44Z</time>
      </trkpt>
      <trkpt lat="46.48776" lon="6.46301">
        <ele>384.9</ele>
        <time>2022-09-28T11:12:45Z</time>
      </trkpt>
      <trkpt lat="46.4878" lon="6.46309">
        <ele>384.9</ele>
        <time>2022-09-28T11:12:46Z</time>
      </trkpt>
      <trkpt lat="46.48785" lon="6.46317">
        <ele>384.9</ele>
        <time>2022-09-28T11:12:47Z</time>
      </trkpt>
      <trkpt lat="46.4879" lon="6.46322">
        <ele>384.9</ele>
        <time>2022-09-28T11:12:48Z</time>
      </trkpt>
      <trkpt lat="46.48795" lon="6.46329">
        <ele>384.9</ele>
        <time>2022-09-28T11:12:49Z</time>
      </trkpt>
      <trkpt lat="46.488" lon="6.46336">
        <ele>384.9</ele>
        <time>2022-09-28T11:12:50Z</time>
      </trkpt>
      <trkpt lat="46.48805" lon="6.46342">
        <ele>385</ele>
        <time>2022-09-28T11:12:51Z</time>
      </trkpt>
      <trkpt lat="46.4881" lon="6.46349">
        <ele>385</ele>
        <time>2022-09-28T11:12:52Z</time>
      </trkpt>
      <trkpt lat="46.48814" lon="6.46356">
        <ele>385</ele>
        <time>2022-09-28T11:12:53Z</time>
      </trkpt>
      <trkpt lat="46.48818" lon="6.46363">
        <ele>385.1</ele>
        <time>2022-09-28T11:12:54Z</time>
      </trkpt>
      <trkpt lat="46.48823" lon="6.4637">
        <ele>385.1</ele>
        <time>2022-09-28T11:12:55Z</time>
      </trkpt>
      <trkpt lat="46.48827" lon="6.46377">
        <ele>385.2</ele>
        <time>2022-09-28T11:12:56Z</time>
      </trkpt>
      <trkpt lat="46.48833" lon="6.46384">
        <ele>385.2</ele>
        <time>2022-09-28T11:12:57Z</time>
      </trkpt>
      <trkpt lat="46.48837" lon="6.4639">
        <ele>385.3</ele>
        <time>2022-09-28T11:12:58Z</time>
      </trkpt>
      <trkpt lat="46.48841" lon="6.46397">
        <ele>385.3</ele>
        <time>2022-09-28T11:12:59Z</time>
      </trkpt>
      <trkpt lat="46.48845" lon="6.46404">
        <ele>385.4</ele>
        <time>2022-09-28T11:13:00Z</time>
      </trkpt>
      <trkpt lat="46.4885" lon="6.4641">
        <ele>385.4</ele>
        <time>2022-09-28T11:13:01Z</time>
      </trkpt>
      <trkpt lat="46.48854" lon="6.46417">
        <ele>385.5</ele>
        <time>2022-09-28T11:13:02Z</time>
      </trkpt>
      <trkpt lat="46.48858" lon="6.46423">
        <ele>385.5</ele>
        <time>2022-09-28T11:13:03Z</time>
      </trkpt>
      <trkpt lat="46.48862" lon="6.4643">
        <ele>385.6</ele>
        <time>2022-09-28T11:13:04Z</time>
      </trkpt>
      <trkpt lat="46.48866" lon="6.46435">
        <ele>385.6</ele>
        <time>2022-09-28T11:13:05Z</time>
      </trkpt>
      <trkpt lat="46.4887" lon="6.46442">
        <ele>385.6</ele>
        <time>2022-09-28T11:13:06Z</time>
      </trkpt>
      <trkpt lat="46.48874" lon="6.46447">
        <ele>385.7</ele>
        <time>2022-09-28T11:13:07Z</time>
      </trkpt>
      <trkpt lat="46.48878" lon="6.46453">
        <ele>385.7</ele>
        <time>2022-09-28T11:13:08Z</time>
      </trkpt>
      <trkpt lat="46.48882" lon="6.46459">
        <ele>385.7</ele>
        <time>2022-09-28T11:13:09Z</time>
      </trkpt>
      <trkpt lat="46.48886" lon="6.46464">
        <ele>385.8</ele>
        <time>2022-09-28T11:13:10Z</time>
      </trkpt>
      <trkpt lat="46.4889" lon="6.4647">
        <ele>385.8</ele>
        <time>2022-09-28T11:13:11Z</time>
      </trkpt>
      <trkpt lat="46.48894" lon="6.46475">
        <ele>385.8</ele>
        <time>2022-09-28T11:13:12Z</time>
      </trkpt>
      <trkpt lat="46.48898" lon="6.4648">
        <ele>385.9</ele>
        <time>2022-09-28T11:13:13Z</time>
      </trkpt>
      <trkpt lat="46.48902" lon="6.46486">
        <ele>385.9</ele>
        <time>2022-09-28T11:13:14Z</time>
      </trkpt>
      <trkpt lat="46.48906" lon="6.46491">
        <ele>385.9</ele>
        <time>2022-09-28T11:13:15Z</time>
      </trkpt>
      <trkpt lat="46.48909" lon="6.46497">
        <ele>385.9</ele>
        <time>2022-09-28T11:13:16Z</time>
      </trkpt>
      <trkpt lat="46.48913" lon="6.46503">
        <ele>385.9</ele>
        <time>2022-09-28T11:13:17Z</time>
      </trkpt>
      <trkpt lat="46.48918" lon="6.46509">
        <ele>385.9</ele>
        <time>2022-09-28T11:13:18Z</time>
      </trkpt>
      <trkpt lat="46.48922" lon="6.46514">
        <ele>385.9</ele>
        <time>2022-09-28T11:13:19Z</time>
      </trkpt>
      <trkpt lat="46.48925" lon="6.4652">
        <ele>385.9</ele>
        <time>2022-09-28T11:13:20Z</time>
      </trkpt>
      <trkpt lat="46.48929" lon="6.46525">
        <ele>385.9</ele>
        <time>2022-09-28T11:13:21Z</time>
      </trkpt>
      <trkpt lat="46.48933" lon="6.46531">
        <ele>385.9</ele>
        <time>2022-09-28T11:13:22Z</time>
      </trkpt>
      <trkpt lat="46.48937" lon="6.46535">
        <ele>385.9</ele>
        <time>2022-09-28T11:13:23Z</time>
      </trkpt>
      <trkpt lat="46.48941" lon="6.46541">
        <ele>385.9</ele>
        <time>2022-09-28T11:13:24Z</time>
      </trkpt>
      <trkpt lat="46.48945" lon="6.46548">
        <ele>385.9</ele>
        <time>2022-09-28T11:13:25Z</time>
      </trkpt>
      <trkpt lat="46.48951" lon="6.46557">
        <ele>385.9</ele>
        <time>2022-09-28T11:13:26Z</time>
      </trkpt>
      <trkpt lat="46.48954" lon="6.46563">
        <ele>386</ele>
        <time>2022-09-28T11:13:27Z</time>
      </trkpt>
      <trkpt lat="46.48958" lon="6.46569">
        <ele>386</ele>
        <time>2022-09-28T11:13:28Z</time>
      </trkpt>
      <trkpt lat="46.48963" lon="6.46576">
        <ele>386</ele>
        <time>2022-09-28T11:13:29Z</time>
      </trkpt>
      <trkpt lat="46.48967" lon="6.46582">
        <ele>386</ele>
        <time>2022-09-28T11:13:30Z</time>
      </trkpt>
      <trkpt lat="46.48971" lon="6.46589">
        <ele>386</ele>
        <time>2022-09-28T11:13:31Z</time>
      </trkpt>
      <trkpt lat="46.48976" lon="6.46595">
        <ele>386.1</ele>
        <time>2022-09-28T11:13:32Z</time>
      </trkpt>
      <trkpt lat="46.48979" lon="6.46601">
        <ele>386.1</ele>
        <time>2022-09-28T11:13:33Z</time>
      </trkpt>
      <trkpt lat="46.48983" lon="6.46607">
        <ele>386.1</ele>
        <time>2022-09-28T11:13:34Z</time>
      </trkpt>
      <trkpt lat="46.48988" lon="6.46615">
        <ele>386.1</ele>
        <time>2022-09-28T11:13:35Z</time>
      </trkpt>
      <trkpt lat="46.48993" lon="6.46621">
        <ele>386.2</ele>
        <time>2022-09-28T11:13:36Z</time>
      </trkpt>
      <trkpt lat="46.48997" lon="6.46627">
        <ele>386.3</ele>
        <time>2022-09-28T11:13:37Z</time>
      </trkpt>
      <trkpt lat="46.49001" lon="6.46634">
        <ele>386.3</ele>
        <time>2022-09-28T11:13:38Z</time>
      </trkpt>
      <trkpt lat="46.49005" lon="6.46639">
        <ele>386.3</ele>
        <time>2022-09-28T11:13:39Z</time>
      </trkpt>
      <trkpt lat="46.49009" lon="6.46645">
        <ele>386.4</ele>
        <time>2022-09-28T11:13:40Z</time>
      </trkpt>
      <trkpt lat="46.49013" lon="6.4665">
        <ele>386.4</ele>
        <time>2022-09-28T11:13:41Z</time>
      </trkpt>
      <trkpt lat="46.49017" lon="6.46656">
        <ele>386.4</ele>
        <time>2022-09-28T11:13:42Z</time>
      </trkpt>
      <trkpt lat="46.49021" lon="6.46663">
        <ele>386.5</ele>
        <time>2022-09-28T11:13:43Z</time>
      </trkpt>
      <trkpt lat="46.49024" lon="6.46668">
        <ele>386.5</ele>
        <time>2022-09-28T11:13:44Z</time>
      </trkpt>
      <trkpt lat="46.49029" lon="6.46673">
        <ele>386.5</ele>
        <time>2022-09-28T11:13:45Z</time>
      </trkpt>
      <trkpt lat="46.49033" lon="6.46679">
        <ele>386.6</ele>
        <time>2022-09-28T11:13:46Z</time>
      </trkpt>
      <trkpt lat="46.49037" lon="6.46686">
        <ele>386.6</ele>
        <time>2022-09-28T11:13:47Z</time>
      </trkpt>
      <trkpt lat="46.49041" lon="6.46692">
        <ele>386.7</ele>
        <time>2022-09-28T11:13:48Z</time>
      </trkpt>
      <trkpt lat="46.49044" lon="6.46697">
        <ele>386.7</ele>
        <time>2022-09-28T11:13:49Z</time>
      </trkpt>
      <trkpt lat="46.49045" lon="6.46699">
        <ele>386.7</ele>
        <time>2022-09-28T11:13:50Z</time>
      </trkpt>
      <trkpt lat="46.49047" lon="6.46706">
        <ele>386.8</ele>
        <time>2022-09-28T11:13:51Z</time>
      </trkpt>
      <trkpt lat="46.49052" lon="6.46711">
        <ele>386.8</ele>
        <time>2022-09-28T11:13:52Z</time>
      </trkpt>
      <trkpt lat="46.49057" lon="6.46717">
        <ele>386.9</ele>
        <time>2022-09-28T11:13:53Z</time>
      </trkpt>
      <trkpt lat="46.4906" lon="6.46724">
        <ele>386.9</ele>
        <time>2022-09-28T11:13:54Z</time>
      </trkpt>
      <trkpt lat="46.49063" lon="6.46729">
        <ele>387</ele>
        <time>2022-09-28T11:13:55Z</time>
      </trkpt>
      <trkpt lat="46.49067" lon="6.46734">
        <ele>387</ele>
        <time>2022-09-28T11:13:56Z</time>
      </trkpt>
      <trkpt lat="46.49071" lon="6.46739">
        <ele>387</ele>
        <time>2022-09-28T11:13:57Z</time>
      </trkpt>
      <trkpt lat="46.49074" lon="6.46747">
        <ele>387.1</ele>
        <time>2022-09-28T11:13:58Z</time>
      </trkpt>
      <trkpt lat="46.49077" lon="6.46752">
        <ele>387.1</ele>
        <time>2022-09-28T11:13:59Z</time>
      </trkpt>
      <trkpt lat="46.4908" lon="6.46757">
        <ele>387.2</ele>
        <time>2022-09-28T11:14:00Z</time>
      </trkpt>
      <trkpt lat="46.49084" lon="6.46763">
        <ele>387.3</ele>
        <time>2022-09-28T11:14:01Z</time>
      </trkpt>
      <trkpt lat="46.49087" lon="6.46768">
        <ele>387.3</ele>
        <time>2022-09-28T11:14:02Z</time>
      </trkpt>
      <trkpt lat="46.49093" lon="6.46779">
        <ele>387.5</ele>
        <time>2022-09-28T11:14:03Z</time>
      </trkpt>
      <trkpt lat="46.49097" lon="6.46785">
        <ele>387.5</ele>
        <time>2022-09-28T11:14:04Z</time>
      </trkpt>
      <trkpt lat="46.491" lon="6.46792">
        <ele>387.6</ele>
        <time>2022-09-28T11:14:05Z</time>
      </trkpt>
      <trkpt lat="46.49104" lon="6.46797">
        <ele>387.6</ele>
        <time>2022-09-28T11:14:06Z</time>
      </trkpt>
      <trkpt lat="46.49107" lon="6.46803">
        <ele>387.7</ele>
        <time>2022-09-28T11:14:07Z</time>
      </trkpt>
      <trkpt lat="46.49111" lon="6.46809">
        <ele>387.7</ele>
        <time>2022-09-28T11:14:08Z</time>
      </trkpt>
      <trkpt lat="46.49114" lon="6.46813">
        <ele>387.7</ele>
        <time>2022-09-28T11:14:09Z</time>
      </trkpt>
      <trkpt lat="46.49117" lon="6.46819">
        <ele>387.8</ele>
        <time>2022-09-28T11:14:10Z</time>
      </trkpt>
      <trkpt lat="46.4912" lon="6.46825">
        <ele>387.8</ele>
        <time>2022-09-28T11:14:11Z</time>
      </trkpt>
      <trkpt lat="46.49123" lon="6.46831">
        <ele>387.8</ele>
        <time>2022-09-28T11:14:12Z</time>
      </trkpt>
      <trkpt lat="46.49126" lon="6.46836">
        <ele>387.8</ele>
        <time>2022-09-28T11:14:13Z</time>
      </trkpt>
      <trkpt lat="46.49129" lon="6.46842">
        <ele>387.8</ele>
        <time>2022-09-28T11:14:14Z</time>
      </trkpt>
      <trkpt lat="46.49132" lon="6.46848">
        <ele>387.8</ele>
        <time>2022-09-28T11:14:15Z</time>
      </trkpt>
      <trkpt lat="46.49135" lon="6.46855">
        <ele>387.8</ele>
        <time>2022-09-28T11:14:16Z</time>
      </trkpt>
      <trkpt lat="46.49138" lon="6.46861">
        <ele>387.7</ele>
        <time>2022-09-28T11:14:17Z</time>
      </trkpt>
      <trkpt lat="46.49141" lon="6.46866">
        <ele>387.7</ele>
        <time>2022-09-28T11:14:18Z</time>
      </trkpt>
      <trkpt lat="46.49144" lon="6.46873">
        <ele>387.6</ele>
        <time>2022-09-28T11:14:19Z</time>
      </trkpt>
      <trkpt lat="46.49148" lon="6.46879">
        <ele>387.5</ele>
        <time>2022-09-28T11:14:20Z</time>
      </trkpt>
      <trkpt lat="46.49151" lon="6.46887">
        <ele>387.4</ele>
        <time>2022-09-28T11:14:21Z</time>
      </trkpt>
      <trkpt lat="46.49154" lon="6.46893">
        <ele>387.3</ele>
        <time>2022-09-28T11:14:22Z</time>
      </trkpt>
      <trkpt lat="46.49157" lon="6.469">
        <ele>387.2</ele>
        <time>2022-09-28T11:14:23Z</time>
      </trkpt>
      <trkpt lat="46.4916" lon="6.46908">
        <ele>387.1</ele>
        <time>2022-09-28T11:14:24Z</time>
      </trkpt>
      <trkpt lat="46.49163" lon="6.46915">
        <ele>387</ele>
        <time>2022-09-28T11:14:25Z</time>
      </trkpt>
      <trkpt lat="46.49165" lon="6.4692">
        <ele>386.9</ele>
        <time>2022-09-28T11:14:26Z</time>
      </trkpt>
      <trkpt lat="46.49168" lon="6.46928">
        <ele>386.8</ele>
        <time>2022-09-28T11:14:27Z</time>
      </trkpt>
      <trkpt lat="46.49172" lon="6.46935">
        <ele>386.7</ele>
        <time>2022-09-28T11:14:28Z</time>
      </trkpt>
      <trkpt lat="46.49175" lon="6.46943">
        <ele>386.6</ele>
        <time>2022-09-28T11:14:29Z</time>
      </trkpt>
      <trkpt lat="46.49178" lon="6.46952">
        <ele>386.4</ele>
        <time>2022-09-28T11:14:30Z</time>
      </trkpt>
      <trkpt lat="46.49181" lon="6.4696">
        <ele>386.3</ele>
        <time>2022-09-28T11:14:31Z</time>
      </trkpt>
      <trkpt lat="46.49185" lon="6.46968">
        <ele>386.1</ele>
        <time>2022-09-28T11:14:32Z</time>
      </trkpt>
      <trkpt lat="46.49189" lon="6.46977">
        <ele>385.9</ele>
        <time>2022-09-28T11:14:33Z</time>
      </trkpt>
      <trkpt lat="46.49192" lon="6.46986">
        <ele>385.8</ele>
        <time>2022-09-28T11:14:34Z</time>
      </trkpt>
      <trkpt lat="46.49195" lon="6.46994">
        <ele>385.6</ele>
        <time>2022-09-28T11:14:35Z</time>
      </trkpt>
      <trkpt lat="46.49199" lon="6.47003">
        <ele>385.4</ele>
        <time>2022-09-28T11:14:36Z</time>
      </trkpt>
      <trkpt lat="46.49201" lon="6.47011">
        <ele>385.3</ele>
        <time>2022-09-28T11:14:37Z</time>
      </trkpt>
      <trkpt lat="46.49204" lon="6.47019">
        <ele>385.1</ele>
        <time>2022-09-28T11:14:38Z</time>
      </trkpt>
      <trkpt lat="46.49207" lon="6.47028">
        <ele>385</ele>
        <time>2022-09-28T11:14:39Z</time>
      </trkpt>
      <trkpt lat="46.4921" lon="6.47037">
        <ele>384.8</ele>
        <time>2022-09-28T11:14:40Z</time>
      </trkpt>
      <trkpt lat="46.49214" lon="6.47044">
        <ele>384.6</ele>
        <time>2022-09-28T11:14:41Z</time>
      </trkpt>
      <trkpt lat="46.49217" lon="6.47054">
        <ele>384.4</ele>
        <time>2022-09-28T11:14:42Z</time>
      </trkpt>
      <trkpt lat="46.4922" lon="6.47062">
        <ele>384.2</ele>
        <time>2022-09-28T11:14:43Z</time>
      </trkpt>
      <trkpt lat="46.49224" lon="6.47072">
        <ele>384</ele>
        <time>2022-09-28T11:14:44Z</time>
      </trkpt>
      <trkpt lat="46.49226" lon="6.4708">
        <ele>383.9</ele>
        <time>2022-09-28T11:14:45Z</time>
      </trkpt>
      <trkpt lat="46.49229" lon="6.47088">
        <ele>383.8</ele>
        <time>2022-09-28T11:14:46Z</time>
      </trkpt>
      <trkpt lat="46.49232" lon="6.47096">
        <ele>383.6</ele>
        <time>2022-09-28T11:14:47Z</time>
      </trkpt>
      <trkpt lat="46.49234" lon="6.47105">
        <ele>383.4</ele>
        <time>2022-09-28T11:14:48Z</time>
      </trkpt>
      <trkpt lat="46.49237" lon="6.47113">
        <ele>383.3</ele>
        <time>2022-09-28T11:14:49Z</time>
      </trkpt>
      <trkpt lat="46.49241" lon="6.47121">
        <ele>383.1</ele>
        <time>2022-09-28T11:14:50Z</time>
      </trkpt>
      <trkpt lat="46.49243" lon="6.4713">
        <ele>383</ele>
        <time>2022-09-28T11:14:51Z</time>
      </trkpt>
      <trkpt lat="46.49246" lon="6.47139">
        <ele>382.8</ele>
        <time>2022-09-28T11:14:52Z</time>
      </trkpt>
      <trkpt lat="46.49249" lon="6.47148">
        <ele>382.7</ele>
        <time>2022-09-28T11:14:53Z</time>
      </trkpt>
      <trkpt lat="46.49252" lon="6.47157">
        <ele>382.5</ele>
        <time>2022-09-28T11:14:54Z</time>
      </trkpt>
      <trkpt lat="46.49255" lon="6.47165">
        <ele>382.4</ele>
        <time>2022-09-28T11:14:55Z</time>
      </trkpt>
      <trkpt lat="46.49259" lon="6.47173">
        <ele>382.2</ele>
        <time>2022-09-28T11:14:56Z</time>
      </trkpt>
      <trkpt lat="46.49263" lon="6.47182">
        <ele>382.1</ele>
        <time>2022-09-28T11:14:57Z</time>
      </trkpt>
      <trkpt lat="46.49266" lon="6.47193">
        <ele>382</ele>
        <time>2022-09-28T11:14:58Z</time>
      </trkpt>
      <trkpt lat="46.49269" lon="6.47201">
        <ele>381.9</ele>
        <time>2022-09-28T11:14:59Z</time>
      </trkpt>
      <trkpt lat="46.49271" lon="6.47208">
        <ele>381.8</ele>
        <time>2022-09-28T11:15:00Z</time>
      </trkpt>
      <trkpt lat="46.49274" lon="6.47216">
        <ele>381.6</ele>
        <time>2022-09-28T11:15:01Z</time>
      </trkpt>
      <trkpt lat="46.49275" lon="6.47225">
        <ele>381.5</ele>
        <time>2022-09-28T11:15:02Z</time>
      </trkpt>
      <trkpt lat="46.49277" lon="6.47235">
        <ele>381.4</ele>
        <time>2022-09-28T11:15:03Z</time>
      </trkpt>
      <trkpt lat="46.49281" lon="6.47244">
        <ele>381.3</ele>
        <time>2022-09-28T11:15:04Z</time>
      </trkpt>
      <trkpt lat="46.49285" lon="6.47254">
        <ele>381.2</ele>
        <time>2022-09-28T11:15:05Z</time>
      </trkpt>
      <trkpt lat="46.49287" lon="6.47263">
        <ele>381.2</ele>
        <time>2022-09-28T11:15:06Z</time>
      </trkpt>
      <trkpt lat="46.4929" lon="6.47272">
        <ele>381.1</ele>
        <time>2022-09-28T11:15:07Z</time>
      </trkpt>
      <trkpt lat="46.49292" lon="6.47279">
        <ele>381.1</ele>
        <time>2022-09-28T11:15:08Z</time>
      </trkpt>
      <trkpt lat="46.49295" lon="6.47287">
        <ele>381</ele>
        <time>2022-09-28T11:15:09Z</time>
      </trkpt>
      <trkpt lat="46.49297" lon="6.47296">
        <ele>381</ele>
        <time>2022-09-28T11:15:10Z</time>
      </trkpt>
      <trkpt lat="46.493" lon="6.47307">
        <ele>381</ele>
        <time>2022-09-28T11:15:11Z</time>
      </trkpt>
      <trkpt lat="46.49303" lon="6.47315">
        <ele>381</ele>
        <time>2022-09-28T11:15:12Z</time>
      </trkpt>
      <trkpt lat="46.49305" lon="6.47324">
        <ele>381</ele>
        <time>2022-09-28T11:15:13Z</time>
      </trkpt>
      <trkpt lat="46.49307" lon="6.47333">
        <ele>381</ele>
        <time>2022-09-28T11:15:14Z</time>
      </trkpt>
      <trkpt lat="46.49312" lon="6.47344">
        <ele>381</ele>
        <time>2022-09-28T11:15:15Z</time>
      </trkpt>
      <trkpt lat="46.49317" lon="6.47354">
        <ele>381</ele>
        <time>2022-09-28T11:15:16Z</time>
      </trkpt>
      <trkpt lat="46.49321" lon="6.47363">
        <ele>381</ele>
        <time>2022-09-28T11:15:17Z</time>
      </trkpt>
      <trkpt lat="46.49324" lon="6.47372">
        <ele>381</ele>
        <time>2022-09-28T11:15:18Z</time>
      </trkpt>
      <trkpt lat="46.49327" lon="6.47381">
        <ele>381</ele>
        <time>2022-09-28T11:15:19Z</time>
      </trkpt>
      <trkpt lat="46.4933" lon="6.4739">
        <ele>381</ele>
        <time>2022-09-28T11:15:20Z</time>
      </trkpt>
      <trkpt lat="46.49334" lon="6.47397">
        <ele>381</ele>
        <time>2022-09-28T11:15:21Z</time>
      </trkpt>
      <trkpt lat="46.49337" lon="6.47406">
        <ele>381</ele>
        <time>2022-09-28T11:15:22Z</time>
      </trkpt>
      <trkpt lat="46.4934" lon="6.47415">
        <ele>381</ele>
        <time>2022-09-28T11:15:23Z</time>
      </trkpt>
      <trkpt lat="46.49342" lon="6.47423">
        <ele>381.1</ele>
        <time>2022-09-28T11:15:24Z</time>
      </trkpt>
      <trkpt lat="46.49345" lon="6.47432">
        <ele>381.1</ele>
        <time>2022-09-28T11:15:25Z</time>
      </trkpt>
      <trkpt lat="46.49348" lon="6.4744">
        <ele>381.1</ele>
        <time>2022-09-28T11:15:26Z</time>
      </trkpt>
      <trkpt lat="46.49351" lon="6.47448">
        <ele>381.1</ele>
        <time>2022-09-28T11:15:27Z</time>
      </trkpt>
      <trkpt lat="46.49354" lon="6.47457">
        <ele>381.1</ele>
        <time>2022-09-28T11:15:28Z</time>
      </trkpt>
      <trkpt lat="46.49357" lon="6.47466">
        <ele>381.1</ele>
        <time>2022-09-28T11:15:29Z</time>
      </trkpt>
      <trkpt lat="46.4936" lon="6.47474">
        <ele>381.1</ele>
        <time>2022-09-28T11:15:30Z</time>
      </trkpt>
      <trkpt lat="46.49364" lon="6.47483">
        <ele>381.1</ele>
        <time>2022-09-28T11:15:31Z</time>
      </trkpt>
      <trkpt lat="46.49366" lon="6.47492">
        <ele>381.1</ele>
        <time>2022-09-28T11:15:32Z</time>
      </trkpt>
      <trkpt lat="46.49369" lon="6.475">
        <ele>381.1</ele>
        <time>2022-09-28T11:15:33Z</time>
      </trkpt>
      <trkpt lat="46.49373" lon="6.47509">
        <ele>381</ele>
        <time>2022-09-28T11:15:34Z</time>
      </trkpt>
      <trkpt lat="46.49375" lon="6.47517">
        <ele>380.9</ele>
        <time>2022-09-28T11:15:35Z</time>
      </trkpt>
      <trkpt lat="46.49378" lon="6.47526">
        <ele>380.9</ele>
        <time>2022-09-28T11:15:36Z</time>
      </trkpt>
      <trkpt lat="46.49381" lon="6.47534">
        <ele>380.8</ele>
        <time>2022-09-28T11:15:37Z</time>
      </trkpt>
      <trkpt lat="46.49384" lon="6.47542">
        <ele>380.8</ele>
        <time>2022-09-28T11:15:38Z</time>
      </trkpt>
      <trkpt lat="46.49387" lon="6.4755">
        <ele>380.8</ele>
        <time>2022-09-28T11:15:39Z</time>
      </trkpt>
      <trkpt lat="46.4939" lon="6.47559">
        <ele>380.8</ele>
        <time>2022-09-28T11:15:40Z</time>
      </trkpt>
      <trkpt lat="46.49393" lon="6.47567">
        <ele>380.8</ele>
        <time>2022-09-28T11:15:41Z</time>
      </trkpt>
      <trkpt lat="46.49396" lon="6.47576">
        <ele>380.8</ele>
        <time>2022-09-28T11:15:42Z</time>
      </trkpt>
      <trkpt lat="46.49399" lon="6.47583">
        <ele>380.8</ele>
        <time>2022-09-28T11:15:43Z</time>
      </trkpt>
      <trkpt lat="46.49402" lon="6.47592">
        <ele>380.9</ele>
        <time>2022-09-28T11:15:44Z</time>
      </trkpt>
      <trkpt lat="46.49405" lon="6.47599">
        <ele>380.9</ele>
        <time>2022-09-28T11:15:45Z</time>
      </trkpt>
      <trkpt lat="46.49408" lon="6.47607">
        <ele>380.9</ele>
        <time>2022-09-28T11:15:46Z</time>
      </trkpt>
      <trkpt lat="46.4941" lon="6.47615">
        <ele>381</ele>
        <time>2022-09-28T11:15:47Z</time>
      </trkpt>
      <trkpt lat="46.49413" lon="6.47623">
        <ele>381</ele>
        <time>2022-09-28T11:15:48Z</time>
      </trkpt>
      <trkpt lat="46.49416" lon="6.47631">
        <ele>381.1</ele>
        <time>2022-09-28T11:15:49Z</time>
      </trkpt>
      <trkpt lat="46.49419" lon="6.47639">
        <ele>381.1</ele>
        <time>2022-09-28T11:15:50Z</time>
      </trkpt>
      <trkpt lat="46.49421" lon="6.47646">
        <ele>381.2</ele>
        <time>2022-09-28T11:15:51Z</time>
      </trkpt>
      <trkpt lat="46.49424" lon="6.47654">
        <ele>381.3</ele>
        <time>2022-09-28T11:15:52Z</time>
      </trkpt>
      <trkpt lat="46.49427" lon="6.47662">
        <ele>381.3</ele>
        <time>2022-09-28T11:15:53Z</time>
      </trkpt>
      <trkpt lat="46.49429" lon="6.47669">
        <ele>381.4</ele>
        <time>2022-09-28T11:15:54Z</time>
      </trkpt>
      <trkpt lat="46.49432" lon="6.47677">
        <ele>381.5</ele>
        <time>2022-09-28T11:15:55Z</time>
      </trkpt>
      <trkpt lat="46.49434" lon="6.47684">
        <ele>381.6</ele>
        <time>2022-09-28T11:15:56Z</time>
      </trkpt>
      <trkpt lat="46.49437" lon="6.47691">
        <ele>381.7</ele>
        <time>2022-09-28T11:15:57Z</time>
      </trkpt>
      <trkpt lat="46.49439" lon="6.47698">
        <ele>381.8</ele>
        <time>2022-09-28T11:15:58Z</time>
      </trkpt>
      <trkpt lat="46.49442" lon="6.47705">
        <ele>381.9</ele>
        <time>2022-09-28T11:15:59Z</time>
      </trkpt>
      <trkpt lat="46.49444" lon="6.47711">
        <ele>382</ele>
        <time>2022-09-28T11:16:00Z</time>
      </trkpt>
      <trkpt lat="46.49447" lon="6.47719">
        <ele>382.1</ele>
        <time>2022-09-28T11:16:01Z</time>
      </trkpt>
      <trkpt lat="46.49449" lon="6.47726">
        <ele>382.1</ele>
        <time>2022-09-28T11:16:02Z</time>
      </trkpt>
      <trkpt lat="46.49451" lon="6.47732">
        <ele>382.2</ele>
        <time>2022-09-28T11:16:03Z</time>
      </trkpt>
      <trkpt lat="46.49453" lon="6.47739">
        <ele>382.3</ele>
        <time>2022-09-28T11:16:04Z</time>
      </trkpt>
      <trkpt lat="46.49455" lon="6.47745">
        <ele>382.3</ele>
        <time>2022-09-28T11:16:05Z</time>
      </trkpt>
      <trkpt lat="46.49457" lon="6.47752">
        <ele>382.3</ele>
        <time>2022-09-28T11:16:06Z</time>
      </trkpt>
      <trkpt lat="46.49459" lon="6.47759">
        <ele>382.4</ele>
        <time>2022-09-28T11:16:07Z</time>
      </trkpt>
      <trkpt lat="46.49461" lon="6.47765">
        <ele>382.5</ele>
        <time>2022-09-28T11:16:08Z</time>
      </trkpt>
      <trkpt lat="46.49464" lon="6.47772">
        <ele>382.5</ele>
        <time>2022-09-28T11:16:09Z</time>
      </trkpt>
      <trkpt lat="46.49467" lon="6.47779">
        <ele>382.6</ele>
        <time>2022-09-28T11:16:10Z</time>
      </trkpt>
      <trkpt lat="46.4947" lon="6.47786">
        <ele>382.7</ele>
        <time>2022-09-28T11:16:11Z</time>
      </trkpt>
      <trkpt lat="46.49472" lon="6.47793">
        <ele>382.8</ele>
        <time>2022-09-28T11:16:12Z</time>
      </trkpt>
      <trkpt lat="46.49475" lon="6.478">
        <ele>382.9</ele>
        <time>2022-09-28T11:16:13Z</time>
      </trkpt>
      <trkpt lat="46.49477" lon="6.47807">
        <ele>382.9</ele>
        <time>2022-09-28T11:16:14Z</time>
      </trkpt>
      <trkpt lat="46.4948" lon="6.47813">
        <ele>383</ele>
        <time>2022-09-28T11:16:15Z</time>
      </trkpt>
      <trkpt lat="46.49482" lon="6.4782">
        <ele>383.1</ele>
        <time>2022-09-28T11:16:16Z</time>
      </trkpt>
      <trkpt lat="46.49484" lon="6.47826">
        <ele>383.2</ele>
        <time>2022-09-28T11:16:17Z</time>
      </trkpt>
      <trkpt lat="46.49486" lon="6.47833">
        <ele>383.2</ele>
        <time>2022-09-28T11:16:18Z</time>
      </trkpt>
      <trkpt lat="46.49489" lon="6.4784">
        <ele>383.3</ele>
        <time>2022-09-28T11:16:19Z</time>
      </trkpt>
      <trkpt lat="46.49492" lon="6.47846">
        <ele>383.4</ele>
        <time>2022-09-28T11:16:20Z</time>
      </trkpt>
      <trkpt lat="46.49494" lon="6.47853">
        <ele>383.4</ele>
        <time>2022-09-28T11:16:21Z</time>
      </trkpt>
      <trkpt lat="46.49496" lon="6.4786">
        <ele>383.5</ele>
        <time>2022-09-28T11:16:22Z</time>
      </trkpt>
      <trkpt lat="46.49497" lon="6.47867">
        <ele>383.6</ele>
        <time>2022-09-28T11:16:23Z</time>
      </trkpt>
      <trkpt lat="46.495" lon="6.47872">
        <ele>383.7</ele>
        <time>2022-09-28T11:16:24Z</time>
      </trkpt>
      <trkpt lat="46.49502" lon="6.47879">
        <ele>383.7</ele>
        <time>2022-09-28T11:16:25Z</time>
      </trkpt>
      <trkpt lat="46.49505" lon="6.47885">
        <ele>383.8</ele>
        <time>2022-09-28T11:16:26Z</time>
      </trkpt>
      <trkpt lat="46.49507" lon="6.47892">
        <ele>383.9</ele>
        <time>2022-09-28T11:16:27Z</time>
      </trkpt>
      <trkpt lat="46.49509" lon="6.47898">
        <ele>384</ele>
        <time>2022-09-28T11:16:28Z</time>
      </trkpt>
      <trkpt lat="46.49511" lon="6.47904">
        <ele>384</ele>
        <time>2022-09-28T11:16:29Z</time>
      </trkpt>
      <trkpt lat="46.49513" lon="6.4791">
        <ele>384.1</ele>
        <time>2022-09-28T11:16:30Z</time>
      </trkpt>
      <trkpt lat="46.49515" lon="6.47918">
        <ele>384.3</ele>
        <time>2022-09-28T11:16:31Z</time>
      </trkpt>
      <trkpt lat="46.49516" lon="6.47923">
        <ele>384.3</ele>
        <time>2022-09-28T11:16:32Z</time>
      </trkpt>
      <trkpt lat="46.49519" lon="6.4793">
        <ele>384.5</ele>
        <time>2022-09-28T11:16:33Z</time>
      </trkpt>
      <trkpt lat="46.49521" lon="6.47936">
        <ele>384.6</ele>
        <time>2022-09-28T11:16:34Z</time>
      </trkpt>
      <trkpt lat="46.49523" lon="6.47941">
        <ele>384.7</ele>
        <time>2022-09-28T11:16:35Z</time>
      </trkpt>
      <trkpt lat="46.49523" lon="6.47946">
        <ele>384.7</ele>
        <time>2022-09-28T11:16:36Z</time>
      </trkpt>
      <trkpt lat="46.49524" lon="6.47952">
        <ele>384.8</ele>
        <time>2022-09-28T11:16:37Z</time>
      </trkpt>
      <trkpt lat="46.49525" lon="6.47958">
        <ele>384.9</ele>
        <time>2022-09-28T11:16:38Z</time>
      </trkpt>
      <trkpt lat="46.49525" lon="6.47965">
        <ele>385</ele>
        <time>2022-09-28T11:16:39Z</time>
      </trkpt>
      <trkpt lat="46.49526" lon="6.4797">
        <ele>385</ele>
        <time>2022-09-28T11:16:40Z</time>
      </trkpt>
      <trkpt lat="46.49529" lon="6.47976">
        <ele>385</ele>
        <time>2022-09-28T11:16:41Z</time>
      </trkpt>
      <trkpt lat="46.49532" lon="6.47982">
        <ele>385.1</ele>
        <time>2022-09-28T11:16:42Z</time>
      </trkpt>
      <trkpt lat="46.49536" lon="6.47986">
        <ele>385.2</ele>
        <time>2022-09-28T11:16:43Z</time>
      </trkpt>
      <trkpt lat="46.49539" lon="6.4799">
        <ele>385.2</ele>
        <time>2022-09-28T11:16:44Z</time>
      </trkpt>
      <trkpt lat="46.49542" lon="6.47994">
        <ele>385.2</ele>
        <time>2022-09-28T11:16:45Z</time>
      </trkpt>
      <trkpt lat="46.49544" lon="6.48">
        <ele>385.1</ele>
        <time>2022-09-28T11:16:46Z</time>
      </trkpt>
      <trkpt lat="46.49547" lon="6.48007">
        <ele>385.1</ele>
        <time>2022-09-28T11:16:47Z</time>
      </trkpt>
      <trkpt lat="46.4955" lon="6.48012">
        <ele>385.1</ele>
        <time>2022-09-28T11:16:48Z</time>
      </trkpt>
      <trkpt lat="46.49553" lon="6.48019">
        <ele>385.1</ele>
        <time>2022-09-28T11:16:49Z</time>
      </trkpt>
      <trkpt lat="46.49556" lon="6.48025">
        <ele>385.1</ele>
        <time>2022-09-28T11:16:50Z</time>
      </trkpt>
      <trkpt lat="46.49558" lon="6.4803">
        <ele>385.1</ele>
        <time>2022-09-28T11:16:51Z</time>
      </trkpt>
      <trkpt lat="46.4956" lon="6.48034">
        <ele>385.1</ele>
        <time>2022-09-28T11:16:52Z</time>
      </trkpt>
      <trkpt lat="46.49563" lon="6.48041">
        <ele>385.1</ele>
        <time>2022-09-28T11:16:53Z</time>
      </trkpt>
      <trkpt lat="46.49566" lon="6.48047">
        <ele>385.1</ele>
        <time>2022-09-28T11:16:54Z</time>
      </trkpt>
      <trkpt lat="46.49569" lon="6.48052">
        <ele>385.2</ele>
        <time>2022-09-28T11:16:55Z</time>
      </trkpt>
      <trkpt lat="46.49571" lon="6.48057">
        <ele>385.2</ele>
        <time>2022-09-28T11:16:56Z</time>
      </trkpt>
      <trkpt lat="46.49574" lon="6.48063">
        <ele>385.2</ele>
        <time>2022-09-28T11:16:57Z</time>
      </trkpt>
      <trkpt lat="46.49577" lon="6.48069">
        <ele>385.3</ele>
        <time>2022-09-28T11:16:58Z</time>
      </trkpt>
      <trkpt lat="46.49579" lon="6.48074">
        <ele>385.3</ele>
        <time>2022-09-28T11:16:59Z</time>
      </trkpt>
      <trkpt lat="46.49583" lon="6.4808">
        <ele>385.4</ele>
        <time>2022-09-28T11:17:00Z</time>
      </trkpt>
      <trkpt lat="46.49586" lon="6.48085">
        <ele>385.4</ele>
        <time>2022-09-28T11:17:01Z</time>
      </trkpt>
      <trkpt lat="46.4959" lon="6.4809">
        <ele>385.4</ele>
        <time>2022-09-28T11:17:02Z</time>
      </trkpt>
      <trkpt lat="46.49592" lon="6.48095">
        <ele>385.4</ele>
        <time>2022-09-28T11:17:03Z</time>
      </trkpt>
      <trkpt lat="46.49596" lon="6.481">
        <ele>385.5</ele>
        <time>2022-09-28T11:17:04Z</time>
      </trkpt>
      <trkpt lat="46.49599" lon="6.48105">
        <ele>385.5</ele>
        <time>2022-09-28T11:17:05Z</time>
      </trkpt>
      <trkpt lat="46.49603" lon="6.4811">
        <ele>385.5</ele>
        <time>2022-09-28T11:17:06Z</time>
      </trkpt>
      <trkpt lat="46.49607" lon="6.48115">
        <ele>385.6</ele>
        <time>2022-09-28T11:17:07Z</time>
      </trkpt>
      <trkpt lat="46.49611" lon="6.48119">
        <ele>385.6</ele>
        <time>2022-09-28T11:17:08Z</time>
      </trkpt>
      <trkpt lat="46.49615" lon="6.48124">
        <ele>385.6</ele>
        <time>2022-09-28T11:17:09Z</time>
      </trkpt>
      <trkpt lat="46.49619" lon="6.48129">
        <ele>385.6</ele>
        <time>2022-09-28T11:17:10Z</time>
      </trkpt>
      <trkpt lat="46.49623" lon="6.48134">
        <ele>385.7</ele>
        <time>2022-09-28T11:17:11Z</time>
      </trkpt>
      <trkpt lat="46.49628" lon="6.48137">
        <ele>385.7</ele>
        <time>2022-09-28T11:17:12Z</time>
      </trkpt>
      <trkpt lat="46.49632" lon="6.48141">
        <ele>385.7</ele>
        <time>2022-09-28T11:17:13Z</time>
      </trkpt>
      <trkpt lat="46.49637" lon="6.48144">
        <ele>385.8</ele>
        <time>2022-09-28T11:17:14Z</time>
      </trkpt>
      <trkpt lat="46.49642" lon="6.48148">
        <ele>385.8</ele>
        <time>2022-09-28T11:17:15Z</time>
      </trkpt>
      <trkpt lat="46.49647" lon="6.48152">
        <ele>385.9</ele>
        <time>2022-09-28T11:17:16Z</time>
      </trkpt>
      <trkpt lat="46.49651" lon="6.48155">
        <ele>385.9</ele>
        <time>2022-09-28T11:17:17Z</time>
      </trkpt>
      <trkpt lat="46.49656" lon="6.48159">
        <ele>386</ele>
        <time>2022-09-28T11:17:18Z</time>
      </trkpt>
      <trkpt lat="46.49661" lon="6.48162">
        <ele>386</ele>
        <time>2022-09-28T11:17:19Z</time>
      </trkpt>
      <trkpt lat="46.49666" lon="6.48164">
        <ele>386.1</ele>
        <time>2022-09-28T11:17:20Z</time>
      </trkpt>
      <trkpt lat="46.4967" lon="6.48166">
        <ele>386.2</ele>
        <time>2022-09-28T11:17:21Z</time>
      </trkpt>
      <trkpt lat="46.49675" lon="6.48168">
        <ele>386.3</ele>
        <time>2022-09-28T11:17:22Z</time>
      </trkpt>
      <trkpt lat="46.4968" lon="6.4817">
        <ele>386.4</ele>
        <time>2022-09-28T11:17:23Z</time>
      </trkpt>
      <trkpt lat="46.49684" lon="6.48172">
        <ele>386.4</ele>
        <time>2022-09-28T11:17:24Z</time>
      </trkpt>
      <trkpt lat="46.49688" lon="6.48173">
        <ele>386.5</ele>
        <time>2022-09-28T11:17:25Z</time>
      </trkpt>
      <trkpt lat="46.49693" lon="6.48174">
        <ele>386.6</ele>
        <time>2022-09-28T11:17:26Z</time>
      </trkpt>
      <trkpt lat="46.49697" lon="6.48174">
        <ele>386.6</ele>
        <time>2022-09-28T11:17:27Z</time>
      </trkpt>
      <trkpt lat="46.49702" lon="6.48175">
        <ele>386.7</ele>
        <time>2022-09-28T11:17:28Z</time>
      </trkpt>
      <trkpt lat="46.49706" lon="6.48176">
        <ele>386.8</ele>
        <time>2022-09-28T11:17:29Z</time>
      </trkpt>
      <trkpt lat="46.4971" lon="6.48177">
        <ele>386.8</ele>
        <time>2022-09-28T11:17:30Z</time>
      </trkpt>
      <trkpt lat="46.49715" lon="6.48177">
        <ele>386.9</ele>
        <time>2022-09-28T11:17:31Z</time>
      </trkpt>
      <trkpt lat="46.49719" lon="6.48178">
        <ele>386.9</ele>
        <time>2022-09-28T11:17:32Z</time>
      </trkpt>
      <trkpt lat="46.49723" lon="6.48179">
        <ele>387</ele>
        <time>2022-09-28T11:17:33Z</time>
      </trkpt>
      <trkpt lat="46.49727" lon="6.48179">
        <ele>387</ele>
        <time>2022-09-28T11:17:34Z</time>
      </trkpt>
      <trkpt lat="46.49732" lon="6.4818">
        <ele>387.1</ele>
        <time>2022-09-28T11:17:35Z</time>
      </trkpt>
      <trkpt lat="46.49736" lon="6.48181">
        <ele>387.1</ele>
        <time>2022-09-28T11:17:36Z</time>
      </trkpt>
      <trkpt lat="46.4974" lon="6.48182">
        <ele>387.2</ele>
        <time>2022-09-28T11:17:37Z</time>
      </trkpt>
      <trkpt lat="46.49744" lon="6.48182">
        <ele>387.2</ele>
        <time>2022-09-28T11:17:38Z</time>
      </trkpt>
      <trkpt lat="46.49748" lon="6.48184">
        <ele>387.2</ele>
        <time>2022-09-28T11:17:39Z</time>
      </trkpt>
      <trkpt lat="46.49752" lon="6.48184">
        <ele>387.3</ele>
        <time>2022-09-28T11:17:40Z</time>
      </trkpt>
      <trkpt lat="46.49757" lon="6.48186">
        <ele>387.3</ele>
        <time>2022-09-28T11:17:41Z</time>
      </trkpt>
      <trkpt lat="46.49761" lon="6.48188">
        <ele>387.3</ele>
        <time>2022-09-28T11:17:42Z</time>
      </trkpt>
      <trkpt lat="46.49766" lon="6.48189">
        <ele>387.3</ele>
        <time>2022-09-28T11:17:43Z</time>
      </trkpt>
      <trkpt lat="46.49769" lon="6.48192">
        <ele>387.3</ele>
        <time>2022-09-28T11:17:44Z</time>
      </trkpt>
      <trkpt lat="46.49773" lon="6.48193">
        <ele>387.3</ele>
        <time>2022-09-28T11:17:45Z</time>
      </trkpt>
      <trkpt lat="46.49778" lon="6.48195">
        <ele>387.3</ele>
        <time>2022-09-28T11:17:46Z</time>
      </trkpt>
      <trkpt lat="46.49782" lon="6.48198">
        <ele>387.3</ele>
        <time>2022-09-28T11:17:47Z</time>
      </trkpt>
      <trkpt lat="46.49787" lon="6.482">
        <ele>387.3</ele>
        <time>2022-09-28T11:17:48Z</time>
      </trkpt>
      <trkpt lat="46.4979" lon="6.48202">
        <ele>387.3</ele>
        <time>2022-09-28T11:17:49Z</time>
      </trkpt>
      <trkpt lat="46.49795" lon="6.48205">
        <ele>387.2</ele>
        <time>2022-09-28T11:17:50Z</time>
      </trkpt>
      <trkpt lat="46.49799" lon="6.48208">
        <ele>387.2</ele>
        <time>2022-09-28T11:17:51Z</time>
      </trkpt>
      <trkpt lat="46.49803" lon="6.48211">
        <ele>387.2</ele>
        <time>2022-09-28T11:17:52Z</time>
      </trkpt>
      <trkpt lat="46.49808" lon="6.48215">
        <ele>387.1</ele>
        <time>2022-09-28T11:17:53Z</time>
      </trkpt>
      <trkpt lat="46.49813" lon="6.48218">
        <ele>387.1</ele>
        <time>2022-09-28T11:17:54Z</time>
      </trkpt>
      <trkpt lat="46.49817" lon="6.48219">
        <ele>387.1</ele>
        <time>2022-09-28T11:17:55Z</time>
      </trkpt>
      <trkpt lat="46.49821" lon="6.48225">
        <ele>387.1</ele>
        <time>2022-09-28T11:17:56Z</time>
      </trkpt>
      <trkpt lat="46.49826" lon="6.4823">
        <ele>387.1</ele>
        <time>2022-09-28T11:17:57Z</time>
      </trkpt>
      <trkpt lat="46.49831" lon="6.48234">
        <ele>387.1</ele>
        <time>2022-09-28T11:17:58Z</time>
      </trkpt>
      <trkpt lat="46.49835" lon="6.48238">
        <ele>387.1</ele>
        <time>2022-09-28T11:17:59Z</time>
      </trkpt>
      <trkpt lat="46.49838" lon="6.48243">
        <ele>387.1</ele>
        <time>2022-09-28T11:18:00Z</time>
      </trkpt>
      <trkpt lat="46.49843" lon="6.48247">
        <ele>387.1</ele>
        <time>2022-09-28T11:18:01Z</time>
      </trkpt>
      <trkpt lat="46.49848" lon="6.48252">
        <ele>387.1</ele>
        <time>2022-09-28T11:18:02Z</time>
      </trkpt>
      <trkpt lat="46.49852" lon="6.48257">
        <ele>387.1</ele>
        <time>2022-09-28T11:18:03Z</time>
      </trkpt>
      <trkpt lat="46.49856" lon="6.48261">
        <ele>387</ele>
        <time>2022-09-28T11:18:04Z</time>
      </trkpt>
      <trkpt lat="46.49861" lon="6.48266">
        <ele>387</ele>
        <time>2022-09-28T11:18:05Z</time>
      </trkpt>
      <trkpt lat="46.49867" lon="6.4827">
        <ele>387</ele>
        <time>2022-09-28T11:18:06Z</time>
      </trkpt>
      <trkpt lat="46.49872" lon="6.48275">
        <ele>387</ele>
        <time>2022-09-28T11:18:07Z</time>
      </trkpt>
      <trkpt lat="46.49876" lon="6.4828">
        <ele>386.9</ele>
        <time>2022-09-28T11:18:08Z</time>
      </trkpt>
      <trkpt lat="46.49882" lon="6.48284">
        <ele>386.9</ele>
        <time>2022-09-28T11:18:09Z</time>
      </trkpt>
      <trkpt lat="46.49887" lon="6.48289">
        <ele>386.9</ele>
        <time>2022-09-28T11:18:10Z</time>
      </trkpt>
      <trkpt lat="46.49892" lon="6.48294">
        <ele>386.8</ele>
        <time>2022-09-28T11:18:11Z</time>
      </trkpt>
      <trkpt lat="46.49897" lon="6.48299">
        <ele>386.8</ele>
        <time>2022-09-28T11:18:12Z</time>
      </trkpt>
      <trkpt lat="46.49903" lon="6.48304">
        <ele>386.8</ele>
        <time>2022-09-28T11:18:13Z</time>
      </trkpt>
      <trkpt lat="46.49908" lon="6.48309">
        <ele>386.7</ele>
        <time>2022-09-28T11:18:14Z</time>
      </trkpt>
      <trkpt lat="46.49913" lon="6.48313">
        <ele>386.7</ele>
        <time>2022-09-28T11:18:15Z</time>
      </trkpt>
      <trkpt lat="46.49918" lon="6.48319">
        <ele>386.7</ele>
        <time>2022-09-28T11:18:16Z</time>
      </trkpt>
      <trkpt lat="46.49923" lon="6.48324">
        <ele>386.6</ele>
        <time>2022-09-28T11:18:17Z</time>
      </trkpt>
      <trkpt lat="46.49929" lon="6.48327">
        <ele>386.6</ele>
        <time>2022-09-28T11:18:18Z</time>
      </trkpt>
      <trkpt lat="46.49934" lon="6.48331">
        <ele>386.6</ele>
        <time>2022-09-28T11:18:19Z</time>
      </trkpt>
      <trkpt lat="46.49941" lon="6.48335">
        <ele>386.6</ele>
        <time>2022-09-28T11:18:20Z</time>
      </trkpt>
      <trkpt lat="46.49944" lon="6.48342">
        <ele>386.6</ele>
        <time>2022-09-28T11:18:21Z</time>
      </trkpt>
      <trkpt lat="46.49949" lon="6.48348">
        <ele>386.5</ele>
        <time>2022-09-28T11:18:22Z</time>
      </trkpt>
      <trkpt lat="46.49954" lon="6.48353">
        <ele>386.5</ele>
        <time>2022-09-28T11:18:23Z</time>
      </trkpt>
      <trkpt lat="46.4996" lon="6.48357">
        <ele>386.4</ele>
        <time>2022-09-28T11:18:24Z</time>
      </trkpt>
      <trkpt lat="46.49965" lon="6.48363">
        <ele>386.4</ele>
        <time>2022-09-28T11:18:25Z</time>
      </trkpt>
      <trkpt lat="46.4997" lon="6.48368">
        <ele>386.4</ele>
        <time>2022-09-28T11:18:26Z</time>
      </trkpt>
      <trkpt lat="46.49976" lon="6.48373">
        <ele>386.3</ele>
        <time>2022-09-28T11:18:27Z</time>
      </trkpt>
      <trkpt lat="46.49981" lon="6.48379">
        <ele>386.3</ele>
        <time>2022-09-28T11:18:28Z</time>
      </trkpt>
      <trkpt lat="46.49987" lon="6.48384">
        <ele>386.3</ele>
        <time>2022-09-28T11:18:29Z</time>
      </trkpt>
      <trkpt lat="46.49993" lon="6.48389">
        <ele>386.2</ele>
        <time>2022-09-28T11:18:30Z</time>
      </trkpt>
      <trkpt lat="46.49998" lon="6.48394">
        <ele>386.2</ele>
        <time>2022-09-28T11:18:31Z</time>
      </trkpt>
      <trkpt lat="46.50004" lon="6.48399">
        <ele>386.2</ele>
        <time>2022-09-28T11:18:32Z</time>
      </trkpt>
      <trkpt lat="46.50009" lon="6.48402">
        <ele>386.1</ele>
        <time>2022-09-28T11:18:33Z</time>
      </trkpt>
      <trkpt lat="46.50014" lon="6.48409">
        <ele>386.1</ele>
        <time>2022-09-28T11:18:34Z</time>
      </trkpt>
      <trkpt lat="46.5002" lon="6.48415">
        <ele>386</ele>
        <time>2022-09-28T11:18:35Z</time>
      </trkpt>
      <trkpt lat="46.50025" lon="6.48419">
        <ele>386</ele>
        <time>2022-09-28T11:18:36Z</time>
      </trkpt>
      <trkpt lat="46.50031" lon="6.48425">
        <ele>385.9</ele>
        <time>2022-09-28T11:18:37Z</time>
      </trkpt>
      <trkpt lat="46.50037" lon="6.48429">
        <ele>385.9</ele>
        <time>2022-09-28T11:18:38Z</time>
      </trkpt>
      <trkpt lat="46.50042" lon="6.48437">
        <ele>385.8</ele>
        <time>2022-09-28T11:18:39Z</time>
      </trkpt>
      <trkpt lat="46.50048" lon="6.48441">
        <ele>385.8</ele>
        <time>2022-09-28T11:18:40Z</time>
      </trkpt>
      <trkpt lat="46.50054" lon="6.48446">
        <ele>385.8</ele>
        <time>2022-09-28T11:18:41Z</time>
      </trkpt>
      <trkpt lat="46.50059" lon="6.48452">
        <ele>385.7</ele>
        <time>2022-09-28T11:18:42Z</time>
      </trkpt>
      <trkpt lat="46.50065" lon="6.48456">
        <ele>385.7</ele>
        <time>2022-09-28T11:18:43Z</time>
      </trkpt>
      <trkpt lat="46.5007" lon="6.48463">
        <ele>385.6</ele>
        <time>2022-09-28T11:18:44Z</time>
      </trkpt>
      <trkpt lat="46.50075" lon="6.48467">
        <ele>385.6</ele>
        <time>2022-09-28T11:18:45Z</time>
      </trkpt>
      <trkpt lat="46.50081" lon="6.48472">
        <ele>385.5</ele>
        <time>2022-09-28T11:18:46Z</time>
      </trkpt>
      <trkpt lat="46.50087" lon="6.48478">
        <ele>385.4</ele>
        <time>2022-09-28T11:18:47Z</time>
      </trkpt>
      <trkpt lat="46.50092" lon="6.48484">
        <ele>385.4</ele>
        <time>2022-09-28T11:18:48Z</time>
      </trkpt>
      <trkpt lat="46.50097" lon="6.48489">
        <ele>385.3</ele>
        <time>2022-09-28T11:18:49Z</time>
      </trkpt>
      <trkpt lat="46.50104" lon="6.48493">
        <ele>385.2</ele>
        <time>2022-09-28T11:18:50Z</time>
      </trkpt>
      <trkpt lat="46.5011" lon="6.48498">
        <ele>385.1</ele>
        <time>2022-09-28T11:18:51Z</time>
      </trkpt>
      <trkpt lat="46.50114" lon="6.48504">
        <ele>385.1</ele>
        <time>2022-09-28T11:18:52Z</time>
      </trkpt>
      <trkpt lat="46.5012" lon="6.48509">
        <ele>385</ele>
        <time>2022-09-28T11:18:53Z</time>
      </trkpt>
      <trkpt lat="46.50125" lon="6.48514">
        <ele>384.9</ele>
        <time>2022-09-28T11:18:54Z</time>
      </trkpt>
      <trkpt lat="46.50131" lon="6.48519">
        <ele>384.8</ele>
        <time>2022-09-28T11:18:55Z</time>
      </trkpt>
      <trkpt lat="46.50137" lon="6.48524">
        <ele>384.7</ele>
        <time>2022-09-28T11:18:56Z</time>
      </trkpt>
      <trkpt lat="46.50143" lon="6.48529">
        <ele>384.5</ele>
        <time>2022-09-28T11:18:57Z</time>
      </trkpt>
      <trkpt lat="46.50148" lon="6.48535">
        <ele>384.4</ele>
        <time>2022-09-28T11:18:58Z</time>
      </trkpt>
      <trkpt lat="46.50154" lon="6.4854">
        <ele>384.3</ele>
        <time>2022-09-28T11:18:59Z</time>
      </trkpt>
      <trkpt lat="46.50159" lon="6.48547">
        <ele>384.2</ele>
        <time>2022-09-28T11:19:00Z</time>
      </trkpt>
      <trkpt lat="46.50165" lon="6.48551">
        <ele>384.1</ele>
        <time>2022-09-28T11:19:01Z</time>
      </trkpt>
      <trkpt lat="46.50171" lon="6.48556">
        <ele>383.9</ele>
        <time>2022-09-28T11:19:02Z</time>
      </trkpt>
      <trkpt lat="46.50177" lon="6.48561">
        <ele>383.8</ele>
        <time>2022-09-28T11:19:03Z</time>
      </trkpt>
      <trkpt lat="46.50182" lon="6.48566">
        <ele>383.6</ele>
        <time>2022-09-28T11:19:04Z</time>
      </trkpt>
      <trkpt lat="46.50187" lon="6.48571">
        <ele>383.5</ele>
        <time>2022-09-28T11:19:05Z</time>
      </trkpt>
      <trkpt lat="46.50192" lon="6.48576">
        <ele>383.4</ele>
        <time>2022-09-28T11:19:06Z</time>
      </trkpt>
      <trkpt lat="46.50197" lon="6.48581">
        <ele>383.4</ele>
        <time>2022-09-28T11:19:07Z</time>
      </trkpt>
      <trkpt lat="46.50199" lon="6.48585">
        <ele>383.3</ele>
        <time>2022-09-28T11:19:08Z</time>
      </trkpt>
      <trkpt lat="46.50202" lon="6.4859">
        <ele>383.3</ele>
        <time>2022-09-28T11:19:09Z</time>
      </trkpt>
      <trkpt lat="46.50209" lon="6.48596">
        <ele>383.2</ele>
        <time>2022-09-28T11:19:10Z</time>
      </trkpt>
      <trkpt lat="46.50215" lon="6.48601">
        <ele>383.1</ele>
        <time>2022-09-28T11:19:11Z</time>
      </trkpt>
      <trkpt lat="46.5022" lon="6.48608">
        <ele>382.9</ele>
        <time>2022-09-28T11:19:12Z</time>
      </trkpt>
      <trkpt lat="46.50225" lon="6.48612">
        <ele>382.8</ele>
        <time>2022-09-28T11:19:13Z</time>
      </trkpt>
      <trkpt lat="46.50231" lon="6.48617">
        <ele>382.7</ele>
        <time>2022-09-28T11:19:14Z</time>
      </trkpt>
      <trkpt lat="46.50237" lon="6.48622">
        <ele>382.5</ele>
        <time>2022-09-28T11:19:15Z</time>
      </trkpt>
      <trkpt lat="46.50242" lon="6.48627">
        <ele>382.4</ele>
        <time>2022-09-28T11:19:16Z</time>
      </trkpt>
      <trkpt lat="46.50246" lon="6.48632">
        <ele>382.3</ele>
        <time>2022-09-28T11:19:17Z</time>
      </trkpt>
      <trkpt lat="46.50251" lon="6.48637">
        <ele>382.2</ele>
        <time>2022-09-28T11:19:18Z</time>
      </trkpt>
      <trkpt lat="46.50256" lon="6.48641">
        <ele>382.1</ele>
        <time>2022-09-28T11:19:19Z</time>
      </trkpt>
      <trkpt lat="46.50262" lon="6.48647">
        <ele>381.9</ele>
        <time>2022-09-28T11:19:20Z</time>
      </trkpt>
      <trkpt lat="46.50267" lon="6.48652">
        <ele>381.8</ele>
        <time>2022-09-28T11:19:21Z</time>
      </trkpt>
      <trkpt lat="46.5027" lon="6.48657">
        <ele>381.8</ele>
        <time>2022-09-28T11:19:22Z</time>
      </trkpt>
      <trkpt lat="46.50276" lon="6.48662">
        <ele>381.7</ele>
        <time>2022-09-28T11:19:23Z</time>
      </trkpt>
      <trkpt lat="46.50281" lon="6.48667">
        <ele>381.6</ele>
        <time>2022-09-28T11:19:24Z</time>
      </trkpt>
      <trkpt lat="46.50288" lon="6.4867">
        <ele>381.5</ele>
        <time>2022-09-28T11:19:25Z</time>
      </trkpt>
      <trkpt lat="46.50293" lon="6.48677">
        <ele>381.4</ele>
        <time>2022-09-28T11:19:26Z</time>
      </trkpt>
      <trkpt lat="46.50296" lon="6.48683">
        <ele>381.3</ele>
        <time>2022-09-28T11:19:27Z</time>
      </trkpt>
      <trkpt lat="46.503" lon="6.48688">
        <ele>381.2</ele>
        <time>2022-09-28T11:19:28Z</time>
      </trkpt>
      <trkpt lat="46.50304" lon="6.48693">
        <ele>381.2</ele>
        <time>2022-09-28T11:19:29Z</time>
      </trkpt>
      <trkpt lat="46.50308" lon="6.48697">
        <ele>381.1</ele>
        <time>2022-09-28T11:19:30Z</time>
      </trkpt>
      <trkpt lat="46.50314" lon="6.48701">
        <ele>381</ele>
        <time>2022-09-28T11:19:31Z</time>
      </trkpt>
      <trkpt lat="46.5032" lon="6.48705">
        <ele>380.9</ele>
        <time>2022-09-28T11:19:32Z</time>
      </trkpt>
      <trkpt lat="46.50325" lon="6.48711">
        <ele>380.8</ele>
        <time>2022-09-28T11:19:33Z</time>
      </trkpt>
      <trkpt lat="46.50329" lon="6.48716">
        <ele>380.8</ele>
        <time>2022-09-28T11:19:34Z</time>
      </trkpt>
      <trkpt lat="46.50333" lon="6.48721">
        <ele>380.7</ele>
        <time>2022-09-28T11:19:35Z</time>
      </trkpt>
      <trkpt lat="46.50339" lon="6.48726">
        <ele>380.6</ele>
        <time>2022-09-28T11:19:36Z</time>
      </trkpt>
      <trkpt lat="46.50343" lon="6.48732">
        <ele>380.5</ele>
        <time>2022-09-28T11:19:37Z</time>
      </trkpt>
      <trkpt lat="46.50348" lon="6.48738">
        <ele>380.4</ele>
        <time>2022-09-28T11:19:38Z</time>
      </trkpt>
      <trkpt lat="46.50352" lon="6.48743">
        <ele>380.3</ele>
        <time>2022-09-28T11:19:39Z</time>
      </trkpt>
      <trkpt lat="46.50357" lon="6.48748">
        <ele>380.3</ele>
        <time>2022-09-28T11:19:40Z</time>
      </trkpt>
      <trkpt lat="46.50362" lon="6.48752">
        <ele>380.1</ele>
        <time>2022-09-28T11:19:41Z</time>
      </trkpt>
      <trkpt lat="46.50367" lon="6.48756">
        <ele>380</ele>
        <time>2022-09-28T11:19:42Z</time>
      </trkpt>
      <trkpt lat="46.50373" lon="6.48758">
        <ele>380.1</ele>
        <time>2022-09-28T11:19:43Z</time>
      </trkpt>
      <trkpt lat="46.50377" lon="6.4876">
        <ele>380.2</ele>
        <time>2022-09-28T11:19:44Z</time>
      </trkpt>
      <trkpt lat="46.50381" lon="6.48762">
        <ele>380.2</ele>
        <time>2022-09-28T11:19:45Z</time>
      </trkpt>
      <trkpt lat="46.50386" lon="6.48766">
        <ele>380.1</ele>
        <time>2022-09-28T11:19:46Z</time>
      </trkpt>
      <trkpt lat="46.50389" lon="6.4877">
        <ele>380.1</ele>
        <time>2022-09-28T11:19:47Z</time>
      </trkpt>
      <trkpt lat="46.50393" lon="6.48774">
        <ele>380.1</ele>
        <time>2022-09-28T11:19:48Z</time>
      </trkpt>
      <trkpt lat="46.50396" lon="6.48777">
        <ele>380.1</ele>
        <time>2022-09-28T11:19:49Z</time>
      </trkpt>
      <trkpt lat="46.50398" lon="6.48779">
        <ele>380.1</ele>
        <time>2022-09-28T11:19:50Z</time>
      </trkpt>
      <trkpt lat="46.50401" lon="6.48783">
        <ele>380</ele>
        <time>2022-09-28T11:19:51Z</time>
      </trkpt>
      <trkpt lat="46.50403" lon="6.48788">
        <ele>380</ele>
        <time>2022-09-28T11:19:52Z</time>
      </trkpt>
      <trkpt lat="46.50407" lon="6.48791">
        <ele>380</ele>
        <time>2022-09-28T11:19:53Z</time>
      </trkpt>
      <trkpt lat="46.5041" lon="6.48796">
        <ele>380</ele>
        <time>2022-09-28T11:19:54Z</time>
      </trkpt>
      <trkpt lat="46.50414" lon="6.48799">
        <ele>379.9</ele>
        <time>2022-09-28T11:19:55Z</time>
      </trkpt>
      <trkpt lat="46.50418" lon="6.48802">
        <ele>379.9</ele>
        <time>2022-09-28T11:19:56Z</time>
      </trkpt>
      <trkpt lat="46.5042" lon="6.48806">
        <ele>379.9</ele>
        <time>2022-09-28T11:19:57Z</time>
      </trkpt>
      <trkpt lat="46.50424" lon="6.48808">
        <ele>379.8</ele>
        <time>2022-09-28T11:19:58Z</time>
      </trkpt>
      <trkpt lat="46.50429" lon="6.48814">
        <ele>379.8</ele>
        <time>2022-09-28T11:19:59Z</time>
      </trkpt>
      <trkpt lat="46.50432" lon="6.48817">
        <ele>379.7</ele>
        <time>2022-09-28T11:20:00Z</time>
      </trkpt>
      <trkpt lat="46.50436" lon="6.48822">
        <ele>379.7</ele>
        <time>2022-09-28T11:20:01Z</time>
      </trkpt>
      <trkpt lat="46.50441" lon="6.48827">
        <ele>379.6</ele>
        <time>2022-09-28T11:20:02Z</time>
      </trkpt>
      <trkpt lat="46.50447" lon="6.4883">
        <ele>379.6</ele>
        <time>2022-09-28T11:20:03Z</time>
      </trkpt>
      <trkpt lat="46.5045" lon="6.48834">
        <ele>379.6</ele>
        <time>2022-09-28T11:20:04Z</time>
      </trkpt>
      <trkpt lat="46.50453" lon="6.48838">
        <ele>379.5</ele>
        <time>2022-09-28T11:20:05Z</time>
      </trkpt>
      <trkpt lat="46.50456" lon="6.48842">
        <ele>379.5</ele>
        <time>2022-09-28T11:20:06Z</time>
      </trkpt>
      <trkpt lat="46.50457" lon="6.48844">
        <ele>379.5</ele>
        <time>2022-09-28T11:20:07Z</time>
      </trkpt>
      <trkpt lat="46.50461" lon="6.48847">
        <ele>379.5</ele>
        <time>2022-09-28T11:20:08Z</time>
      </trkpt>
      <trkpt lat="46.50465" lon="6.48851">
        <ele>379.5</ele>
        <time>2022-09-28T11:20:09Z</time>
      </trkpt>
      <trkpt lat="46.5047" lon="6.48857">
        <ele>379.4</ele>
        <time>2022-09-28T11:20:10Z</time>
      </trkpt>
      <trkpt lat="46.50473" lon="6.4886">
        <ele>379.4</ele>
        <time>2022-09-28T11:20:11Z</time>
      </trkpt>
      <trkpt lat="46.50509" lon="6.48886">
        <ele>379.2</ele>
        <time>2022-09-28T11:20:12Z</time>
      </trkpt>
      <trkpt lat="46.50512" lon="6.48889">
        <ele>379.2</ele>
        <time>2022-09-28T11:20:13Z</time>
      </trkpt>
      <trkpt lat="46.50518" lon="6.48894">
        <ele>379.2</ele>
        <time>2022-09-28T11:20:14Z</time>
      </trkpt>
      <trkpt lat="46.50523" lon="6.48899">
        <ele>379.2</ele>
        <time>2022-09-28T11:20:15Z</time>
      </trkpt>
      <trkpt lat="46.50529" lon="6.48903">
        <ele>379.1</ele>
        <time>2022-09-28T11:20:16Z</time>
      </trkpt>
      <trkpt lat="46.50533" lon="6.48907">
        <ele>379.1</ele>
        <time>2022-09-28T11:20:17Z</time>
      </trkpt>
      <trkpt lat="46.50539" lon="6.48912">
        <ele>379</ele>
        <time>2022-09-28T11:20:18Z</time>
      </trkpt>
      <trkpt lat="46.50543" lon="6.48917">
        <ele>379</ele>
        <time>2022-09-28T11:20:19Z</time>
      </trkpt>
      <trkpt lat="46.50549" lon="6.48923">
        <ele>379</ele>
        <time>2022-09-28T11:20:20Z</time>
      </trkpt>
      <trkpt lat="46.50555" lon="6.48927">
        <ele>378.9</ele>
        <time>2022-09-28T11:20:21Z</time>
      </trkpt>
      <trkpt lat="46.5056" lon="6.48931">
        <ele>378.9</ele>
        <time>2022-09-28T11:20:22Z</time>
      </trkpt>
      <trkpt lat="46.50565" lon="6.48936">
        <ele>378.8</ele>
        <time>2022-09-28T11:20:23Z</time>
      </trkpt>
      <trkpt lat="46.5057" lon="6.48941">
        <ele>378.8</ele>
        <time>2022-09-28T11:20:24Z</time>
      </trkpt>
      <trkpt lat="46.50574" lon="6.48947">
        <ele>378.8</ele>
        <time>2022-09-28T11:20:25Z</time>
      </trkpt>
      <trkpt lat="46.50578" lon="6.48951">
        <ele>378.7</ele>
        <time>2022-09-28T11:20:26Z</time>
      </trkpt>
      <trkpt lat="46.50582" lon="6.48956">
        <ele>378.7</ele>
        <time>2022-09-28T11:20:27Z</time>
      </trkpt>
      <trkpt lat="46.50586" lon="6.4896">
        <ele>378.6</ele>
        <time>2022-09-28T11:20:28Z</time>
      </trkpt>
      <trkpt lat="46.50589" lon="6.48965">
        <ele>378.6</ele>
        <time>2022-09-28T11:20:29Z</time>
      </trkpt>
      <trkpt lat="46.50591" lon="6.48971">
        <ele>378.5</ele>
        <time>2022-09-28T11:20:30Z</time>
      </trkpt>
      <trkpt lat="46.50594" lon="6.48977">
        <ele>378.5</ele>
        <time>2022-09-28T11:20:31Z</time>
      </trkpt>
      <trkpt lat="46.50597" lon="6.48983">
        <ele>378.5</ele>
        <time>2022-09-28T11:20:32Z</time>
      </trkpt>
      <trkpt lat="46.506" lon="6.48989">
        <ele>378.5</ele>
        <time>2022-09-28T11:20:33Z</time>
      </trkpt>
      <trkpt lat="46.50599" lon="6.48994">
        <ele>378.5</ele>
        <time>2022-09-28T11:20:34Z</time>
      </trkpt>
      <trkpt lat="46.50601" lon="6.49">
        <ele>378.4</ele>
        <time>2022-09-28T11:20:35Z</time>
      </trkpt>
      <trkpt lat="46.50603" lon="6.49007">
        <ele>378.4</ele>
        <time>2022-09-28T11:20:36Z</time>
      </trkpt>
      <trkpt lat="46.50607" lon="6.49013">
        <ele>378.4</ele>
        <time>2022-09-28T11:20:37Z</time>
      </trkpt>
      <trkpt lat="46.50611" lon="6.49017">
        <ele>378.4</ele>
        <time>2022-09-28T11:20:38Z</time>
      </trkpt>
      <trkpt lat="46.50616" lon="6.49022">
        <ele>378.3</ele>
        <time>2022-09-28T11:20:39Z</time>
      </trkpt>
      <trkpt lat="46.50619" lon="6.49026">
        <ele>378.3</ele>
        <time>2022-09-28T11:20:40Z</time>
      </trkpt>
      <trkpt lat="46.50622" lon="6.49031">
        <ele>378.3</ele>
        <time>2022-09-28T11:20:41Z</time>
      </trkpt>
      <trkpt lat="46.50626" lon="6.49037">
        <ele>378.3</ele>
        <time>2022-09-28T11:20:42Z</time>
      </trkpt>
      <trkpt lat="46.50627" lon="6.49042">
        <ele>378.3</ele>
        <time>2022-09-28T11:20:43Z</time>
      </trkpt>
      <trkpt lat="46.50629" lon="6.49048">
        <ele>378.3</ele>
        <time>2022-09-28T11:20:44Z</time>
      </trkpt>
      <trkpt lat="46.50632" lon="6.49054">
        <ele>378.3</ele>
        <time>2022-09-28T11:20:45Z</time>
      </trkpt>
      <trkpt lat="46.50634" lon="6.49061">
        <ele>378.3</ele>
        <time>2022-09-28T11:20:46Z</time>
      </trkpt>
      <trkpt lat="46.50637" lon="6.49069">
        <ele>378.3</ele>
        <time>2022-09-28T11:20:47Z</time>
      </trkpt>
      <trkpt lat="46.50639" lon="6.49075">
        <ele>378.3</ele>
        <time>2022-09-28T11:20:48Z</time>
      </trkpt>
      <trkpt lat="46.50641" lon="6.4908">
        <ele>378.3</ele>
        <time>2022-09-28T11:20:49Z</time>
      </trkpt>
      <trkpt lat="46.50643" lon="6.49087">
        <ele>378.3</ele>
        <time>2022-09-28T11:20:50Z</time>
      </trkpt>
      <trkpt lat="46.50646" lon="6.49093">
        <ele>378.3</ele>
        <time>2022-09-28T11:20:51Z</time>
      </trkpt>
      <trkpt lat="46.50649" lon="6.491">
        <ele>378.3</ele>
        <time>2022-09-28T11:20:52Z</time>
      </trkpt>
      <trkpt lat="46.50651" lon="6.49107">
        <ele>378.3</ele>
        <time>2022-09-28T11:20:53Z</time>
      </trkpt>
      <trkpt lat="46.50654" lon="6.49113">
        <ele>378.3</ele>
        <time>2022-09-28T11:20:54Z</time>
      </trkpt>
      <trkpt lat="46.50657" lon="6.49119">
        <ele>378.3</ele>
        <time>2022-09-28T11:20:55Z</time>
      </trkpt>
      <trkpt lat="46.50659" lon="6.49125">
        <ele>378.3</ele>
        <time>2022-09-28T11:20:56Z</time>
      </trkpt>
      <trkpt lat="46.50663" lon="6.49131">
        <ele>378.3</ele>
        <time>2022-09-28T11:20:57Z</time>
      </trkpt>
      <trkpt lat="46.50665" lon="6.49139">
        <ele>378.4</ele>
        <time>2022-09-28T11:20:58Z</time>
      </trkpt>
      <trkpt lat="46.50668" lon="6.49146">
        <ele>378.4</ele>
        <time>2022-09-28T11:20:59Z</time>
      </trkpt>
      <trkpt lat="46.50671" lon="6.49154">
        <ele>378.4</ele>
        <time>2022-09-28T11:21:00Z</time>
      </trkpt>
      <trkpt lat="46.50673" lon="6.4916">
        <ele>378.4</ele>
        <time>2022-09-28T11:21:01Z</time>
      </trkpt>
      <trkpt lat="46.50676" lon="6.49167">
        <ele>378.4</ele>
        <time>2022-09-28T11:21:02Z</time>
      </trkpt>
      <trkpt lat="46.50678" lon="6.49173">
        <ele>378.5</ele>
        <time>2022-09-28T11:21:03Z</time>
      </trkpt>
      <trkpt lat="46.5068" lon="6.4918">
        <ele>378.5</ele>
        <time>2022-09-28T11:21:04Z</time>
      </trkpt>
      <trkpt lat="46.50682" lon="6.49187">
        <ele>378.5</ele>
        <time>2022-09-28T11:21:05Z</time>
      </trkpt>
      <trkpt lat="46.50685" lon="6.49194">
        <ele>378.5</ele>
        <time>2022-09-28T11:21:06Z</time>
      </trkpt>
      <trkpt lat="46.50687" lon="6.49201">
        <ele>378.6</ele>
        <time>2022-09-28T11:21:07Z</time>
      </trkpt>
      <trkpt lat="46.50689" lon="6.49209">
        <ele>378.6</ele>
        <time>2022-09-28T11:21:08Z</time>
      </trkpt>
      <trkpt lat="46.50691" lon="6.49216">
        <ele>378.6</ele>
        <time>2022-09-28T11:21:09Z</time>
      </trkpt>
      <trkpt lat="46.50693" lon="6.49224">
        <ele>378.6</ele>
        <time>2022-09-28T11:21:10Z</time>
      </trkpt>
      <trkpt lat="46.50695" lon="6.49231">
        <ele>378.7</ele>
        <time>2022-09-28T11:21:11Z</time>
      </trkpt>
      <trkpt lat="46.50698" lon="6.49238">
        <ele>378.7</ele>
        <time>2022-09-28T11:21:12Z</time>
      </trkpt>
      <trkpt lat="46.507" lon="6.49246">
        <ele>378.7</ele>
        <time>2022-09-28T11:21:13Z</time>
      </trkpt>
      <trkpt lat="46.50702" lon="6.49253">
        <ele>378.8</ele>
        <time>2022-09-28T11:21:14Z</time>
      </trkpt>
      <trkpt lat="46.50705" lon="6.4926">
        <ele>378.8</ele>
        <time>2022-09-28T11:21:15Z</time>
      </trkpt>
      <trkpt lat="46.50707" lon="6.49268">
        <ele>378.8</ele>
        <time>2022-09-28T11:21:16Z</time>
      </trkpt>
      <trkpt lat="46.50709" lon="6.49276">
        <ele>378.9</ele>
        <time>2022-09-28T11:21:17Z</time>
      </trkpt>
      <trkpt lat="46.50712" lon="6.49285">
        <ele>378.9</ele>
        <time>2022-09-28T11:21:18Z</time>
      </trkpt>
      <trkpt lat="46.50714" lon="6.49291">
        <ele>378.9</ele>
        <time>2022-09-28T11:21:19Z</time>
      </trkpt>
      <trkpt lat="46.50717" lon="6.493">
        <ele>379</ele>
        <time>2022-09-28T11:21:20Z</time>
      </trkpt>
      <trkpt lat="46.50718" lon="6.49307">
        <ele>379</ele>
        <time>2022-09-28T11:21:21Z</time>
      </trkpt>
      <trkpt lat="46.5072" lon="6.49315">
        <ele>379</ele>
        <time>2022-09-28T11:21:22Z</time>
      </trkpt>
      <trkpt lat="46.50721" lon="6.49323">
        <ele>379</ele>
        <time>2022-09-28T11:21:23Z</time>
      </trkpt>
      <trkpt lat="46.50722" lon="6.49331">
        <ele>379</ele>
        <time>2022-09-28T11:21:24Z</time>
      </trkpt>
      <trkpt lat="46.50724" lon="6.49338">
        <ele>378.9</ele>
        <time>2022-09-28T11:21:25Z</time>
      </trkpt>
      <trkpt lat="46.50725" lon="6.49345">
        <ele>378.9</ele>
        <time>2022-09-28T11:21:26Z</time>
      </trkpt>
      <trkpt lat="46.50726" lon="6.49351">
        <ele>378.9</ele>
        <time>2022-09-28T11:21:27Z</time>
      </trkpt>
      <trkpt lat="46.50727" lon="6.4936">
        <ele>378.9</ele>
        <time>2022-09-28T11:21:28Z</time>
      </trkpt>
      <trkpt lat="46.50728" lon="6.49369">
        <ele>378.9</ele>
        <time>2022-09-28T11:21:29Z</time>
      </trkpt>
      <trkpt lat="46.5073" lon="6.49376">
        <ele>378.9</ele>
        <time>2022-09-28T11:21:30Z</time>
      </trkpt>
      <trkpt lat="46.5073" lon="6.49383">
        <ele>378.9</ele>
        <time>2022-09-28T11:21:31Z</time>
      </trkpt>
      <trkpt lat="46.50732" lon="6.49389">
        <ele>378.9</ele>
        <time>2022-09-28T11:21:32Z</time>
      </trkpt>
      <trkpt lat="46.50733" lon="6.49398">
        <ele>378.9</ele>
        <time>2022-09-28T11:21:33Z</time>
      </trkpt>
      <trkpt lat="46.50734" lon="6.49404">
        <ele>378.9</ele>
        <time>2022-09-28T11:21:34Z</time>
      </trkpt>
      <trkpt lat="46.50734" lon="6.4941">
        <ele>378.9</ele>
        <time>2022-09-28T11:21:35Z</time>
      </trkpt>
      <trkpt lat="46.50736" lon="6.49417">
        <ele>378.9</ele>
        <time>2022-09-28T11:21:36Z</time>
      </trkpt>
      <trkpt lat="46.50737" lon="6.49423">
        <ele>378.9</ele>
        <time>2022-09-28T11:21:37Z</time>
      </trkpt>
      <trkpt lat="46.50738" lon="6.49431">
        <ele>378.9</ele>
        <time>2022-09-28T11:21:38Z</time>
      </trkpt>
      <trkpt lat="46.50738" lon="6.49437">
        <ele>378.9</ele>
        <time>2022-09-28T11:21:39Z</time>
      </trkpt>
      <trkpt lat="46.50739" lon="6.49443">
        <ele>378.9</ele>
        <time>2022-09-28T11:21:40Z</time>
      </trkpt>
      <trkpt lat="46.5074" lon="6.49451">
        <ele>378.9</ele>
        <time>2022-09-28T11:21:41Z</time>
      </trkpt>
      <trkpt lat="46.50741" lon="6.49457">
        <ele>378.9</ele>
        <time>2022-09-28T11:21:42Z</time>
      </trkpt>
      <trkpt lat="46.50742" lon="6.49464">
        <ele>378.9</ele>
        <time>2022-09-28T11:21:43Z</time>
      </trkpt>
      <trkpt lat="46.50743" lon="6.4947">
        <ele>378.8</ele>
        <time>2022-09-28T11:21:44Z</time>
      </trkpt>
      <trkpt lat="46.50744" lon="6.49477">
        <ele>378.8</ele>
        <time>2022-09-28T11:21:45Z</time>
      </trkpt>
      <trkpt lat="46.50746" lon="6.49483">
        <ele>378.8</ele>
        <time>2022-09-28T11:21:46Z</time>
      </trkpt>
      <trkpt lat="46.50747" lon="6.49489">
        <ele>378.7</ele>
        <time>2022-09-28T11:21:47Z</time>
      </trkpt>
      <trkpt lat="46.50749" lon="6.49496">
        <ele>378.7</ele>
        <time>2022-09-28T11:21:48Z</time>
      </trkpt>
      <trkpt lat="46.50749" lon="6.49502">
        <ele>378.7</ele>
        <time>2022-09-28T11:21:49Z</time>
      </trkpt>
      <trkpt lat="46.5075" lon="6.4951">
        <ele>378.6</ele>
        <time>2022-09-28T11:21:50Z</time>
      </trkpt>
      <trkpt lat="46.50751" lon="6.49517">
        <ele>378.6</ele>
        <time>2022-09-28T11:21:51Z</time>
      </trkpt>
      <trkpt lat="46.50752" lon="6.49524">
        <ele>378.6</ele>
        <time>2022-09-28T11:21:52Z</time>
      </trkpt>
      <trkpt lat="46.50753" lon="6.4953">
        <ele>378.5</ele>
        <time>2022-09-28T11:21:53Z</time>
      </trkpt>
      <trkpt lat="46.50754" lon="6.49537">
        <ele>378.5</ele>
        <time>2022-09-28T11:21:54Z</time>
      </trkpt>
      <trkpt lat="46.50755" lon="6.49546">
        <ele>378.5</ele>
        <time>2022-09-28T11:21:55Z</time>
      </trkpt>
      <trkpt lat="46.50756" lon="6.49553">
        <ele>378.4</ele>
        <time>2022-09-28T11:21:56Z</time>
      </trkpt>
      <trkpt lat="46.50757" lon="6.4956">
        <ele>378.4</ele>
        <time>2022-09-28T11:21:57Z</time>
      </trkpt>
      <trkpt lat="46.50759" lon="6.49567">
        <ele>378.4</ele>
        <time>2022-09-28T11:21:58Z</time>
      </trkpt>
      <trkpt lat="46.5076" lon="6.49575">
        <ele>378.3</ele>
        <time>2022-09-28T11:21:59Z</time>
      </trkpt>
      <trkpt lat="46.50761" lon="6.49581">
        <ele>378.3</ele>
        <time>2022-09-28T11:22:00Z</time>
      </trkpt>
      <trkpt lat="46.50762" lon="6.49588">
        <ele>378.3</ele>
        <time>2022-09-28T11:22:01Z</time>
      </trkpt>
      <trkpt lat="46.50764" lon="6.49596">
        <ele>378.2</ele>
        <time>2022-09-28T11:22:02Z</time>
      </trkpt>
      <trkpt lat="46.50764" lon="6.49605">
        <ele>378.2</ele>
        <time>2022-09-28T11:22:03Z</time>
      </trkpt>
      <trkpt lat="46.50766" lon="6.49612">
        <ele>378.1</ele>
        <time>2022-09-28T11:22:04Z</time>
      </trkpt>
      <trkpt lat="46.50767" lon="6.49617">
        <ele>378.1</ele>
        <time>2022-09-28T11:22:05Z</time>
      </trkpt>
      <trkpt lat="46.50766" lon="6.49622">
        <ele>378</ele>
        <time>2022-09-28T11:22:06Z</time>
      </trkpt>
      <trkpt lat="46.50766" lon="6.49623">
        <ele>378</ele>
        <time>2022-09-28T11:22:07Z</time>
      </trkpt>
      <trkpt lat="46.50766" lon="6.49625">
        <ele>378</ele>
        <time>2022-09-28T11:22:08Z</time>
      </trkpt>
      <trkpt lat="46.50766" lon="6.49626">
        <ele>378</ele>
        <time>2022-09-28T11:22:09Z</time>
      </trkpt>
      <trkpt lat="46.50765" lon="6.49628">
        <ele>378</ele>
        <time>2022-09-28T11:22:10Z</time>
      </trkpt>
      <trkpt lat="46.50765" lon="6.49629">
        <ele>377.9</ele>
        <time>2022-09-28T11:22:11Z</time>
      </trkpt>
      <trkpt lat="46.50765" lon="6.4963">
        <ele>377.9</ele>
        <time>2022-09-28T11:22:12Z</time>
      </trkpt>
      <trkpt lat="46.50763" lon="6.49634">
        <ele>377.9</ele>
        <time>2022-09-28T11:22:13Z</time>
      </trkpt>
      <trkpt lat="46.50763" lon="6.49636">
        <ele>377.9</ele>
        <time>2022-09-28T11:22:14Z</time>
      </trkpt>
      <trkpt lat="46.50761" lon="6.49638">
        <ele>377.8</ele>
        <time>2022-09-28T11:22:15Z</time>
      </trkpt>
      <trkpt lat="46.5076" lon="6.49638">
        <ele>377.8</ele>
        <time>2022-09-28T11:22:16Z</time>
      </trkpt>
      <trkpt lat="46.50758" lon="6.4964">
        <ele>377.8</ele>
        <time>2022-09-28T11:22:17Z</time>
      </trkpt>
      <trkpt lat="46.50756" lon="6.49645">
        <ele>377.7</ele>
        <time>2022-09-28T11:22:18Z</time>
      </trkpt>
      <trkpt lat="46.50753" lon="6.4965">
        <ele>377.7</ele>
        <time>2022-09-28T11:22:19Z</time>
      </trkpt>
      <trkpt lat="46.5075" lon="6.49655">
        <ele>377.6</ele>
        <time>2022-09-28T11:22:20Z</time>
      </trkpt>
      <trkpt lat="46.50747" lon="6.49662">
        <ele>377.5</ele>
        <time>2022-09-28T11:22:21Z</time>
      </trkpt>
      <trkpt lat="46.50742" lon="6.49666">
        <ele>377.4</ele>
        <time>2022-09-28T11:22:22Z</time>
      </trkpt>
      <trkpt lat="46.50739" lon="6.49673">
        <ele>377.4</ele>
        <time>2022-09-28T11:22:23Z</time>
      </trkpt>
      <trkpt lat="46.50735" lon="6.4968">
        <ele>377.3</ele>
        <time>2022-09-28T11:22:24Z</time>
      </trkpt>
      <trkpt lat="46.50733" lon="6.49685">
        <ele>377.2</ele>
        <time>2022-09-28T11:22:25Z</time>
      </trkpt>
      <trkpt lat="46.50731" lon="6.49691">
        <ele>377.2</ele>
        <time>2022-09-28T11:22:26Z</time>
      </trkpt>
      <trkpt lat="46.5073" lon="6.49697">
        <ele>377.2</ele>
        <time>2022-09-28T11:22:27Z</time>
      </trkpt>
      <trkpt lat="46.5073" lon="6.49704">
        <ele>377.2</ele>
        <time>2022-09-28T11:22:28Z</time>
      </trkpt>
      <trkpt lat="46.50731" lon="6.4971">
        <ele>377.1</ele>
        <time>2022-09-28T11:22:29Z</time>
      </trkpt>
      <trkpt lat="46.50733" lon="6.49715">
        <ele>377.1</ele>
        <time>2022-09-28T11:22:30Z</time>
      </trkpt>
      <trkpt lat="46.50735" lon="6.49721">
        <ele>377.1</ele>
        <time>2022-09-28T11:22:31Z</time>
      </trkpt>
      <trkpt lat="46.50736" lon="6.49728">
        <ele>377</ele>
        <time>2022-09-28T11:22:32Z</time>
      </trkpt>
      <trkpt lat="46.50739" lon="6.49732">
        <ele>377</ele>
        <time>2022-09-28T11:22:33Z</time>
      </trkpt>
      <trkpt lat="46.50743" lon="6.49737">
        <ele>377</ele>
        <time>2022-09-28T11:22:34Z</time>
      </trkpt>
      <trkpt lat="46.50749" lon="6.4974">
        <ele>377</ele>
        <time>2022-09-28T11:22:35Z</time>
      </trkpt>
      <trkpt lat="46.50753" lon="6.49744">
        <ele>377</ele>
        <time>2022-09-28T11:22:36Z</time>
      </trkpt>
      <trkpt lat="46.50758" lon="6.49749">
        <ele>377</ele>
        <time>2022-09-28T11:22:37Z</time>
      </trkpt>
      <trkpt lat="46.50762" lon="6.49753">
        <ele>377</ele>
        <time>2022-09-28T11:22:38Z</time>
      </trkpt>
      <trkpt lat="46.50766" lon="6.49759">
        <ele>377</ele>
        <time>2022-09-28T11:22:39Z</time>
      </trkpt>
      <trkpt lat="46.50768" lon="6.49765">
        <ele>377</ele>
        <time>2022-09-28T11:22:40Z</time>
      </trkpt>
      <trkpt lat="46.50771" lon="6.49771">
        <ele>377</ele>
        <time>2022-09-28T11:22:41Z</time>
      </trkpt>
      <trkpt lat="46.50775" lon="6.49774">
        <ele>377</ele>
        <time>2022-09-28T11:22:42Z</time>
      </trkpt>
      <trkpt lat="46.50778" lon="6.4978">
        <ele>377</ele>
        <time>2022-09-28T11:22:43Z</time>
      </trkpt>
      <trkpt lat="46.50782" lon="6.49786">
        <ele>377</ele>
        <time>2022-09-28T11:22:44Z</time>
      </trkpt>
      <trkpt lat="46.50784" lon="6.49793">
        <ele>377</ele>
        <time>2022-09-28T11:22:45Z</time>
      </trkpt>
      <trkpt lat="46.50788" lon="6.49798">
        <ele>377</ele>
        <time>2022-09-28T11:22:46Z</time>
      </trkpt>
      <trkpt lat="46.50792" lon="6.49804">
        <ele>377</ele>
        <time>2022-09-28T11:22:47Z</time>
      </trkpt>
      <trkpt lat="46.50796" lon="6.4981">
        <ele>377</ele>
        <time>2022-09-28T11:22:48Z</time>
      </trkpt>
      <trkpt lat="46.50801" lon="6.49815">
        <ele>377</ele>
        <time>2022-09-28T11:22:49Z</time>
      </trkpt>
      <trkpt lat="46.50805" lon="6.49821">
        <ele>377</ele>
        <time>2022-09-28T11:22:50Z</time>
      </trkpt>
      <trkpt lat="46.50808" lon="6.49826">
        <ele>377</ele>
        <time>2022-09-28T11:22:51Z</time>
      </trkpt>
      <trkpt lat="46.50812" lon="6.49832">
        <ele>377</ele>
        <time>2022-09-28T11:22:52Z</time>
      </trkpt>
      <trkpt lat="46.50816" lon="6.49837">
        <ele>377.1</ele>
        <time>2022-09-28T11:22:53Z</time>
      </trkpt>
      <trkpt lat="46.50819" lon="6.49843">
        <ele>377.1</ele>
        <time>2022-09-28T11:22:54Z</time>
      </trkpt>
      <trkpt lat="46.50824" lon="6.49849">
        <ele>377.1</ele>
        <time>2022-09-28T11:22:55Z</time>
      </trkpt>
      <trkpt lat="46.50829" lon="6.49855">
        <ele>377.1</ele>
        <time>2022-09-28T11:22:56Z</time>
      </trkpt>
      <trkpt lat="46.50833" lon="6.49859">
        <ele>377.1</ele>
        <time>2022-09-28T11:22:57Z</time>
      </trkpt>
      <trkpt lat="46.50838" lon="6.49865">
        <ele>377.1</ele>
        <time>2022-09-28T11:22:58Z</time>
      </trkpt>
      <trkpt lat="46.50843" lon="6.4987">
        <ele>377.1</ele>
        <time>2022-09-28T11:22:59Z</time>
      </trkpt>
      <trkpt lat="46.50847" lon="6.49877">
        <ele>377.1</ele>
        <time>2022-09-28T11:23:00Z</time>
      </trkpt>
      <trkpt lat="46.50852" lon="6.49884">
        <ele>377.2</ele>
        <time>2022-09-28T11:23:01Z</time>
      </trkpt>
      <trkpt lat="46.50857" lon="6.49889">
        <ele>377.2</ele>
        <time>2022-09-28T11:23:02Z</time>
      </trkpt>
      <trkpt lat="46.50862" lon="6.49894">
        <ele>377.2</ele>
        <time>2022-09-28T11:23:03Z</time>
      </trkpt>
      <trkpt lat="46.50866" lon="6.49899">
        <ele>377.2</ele>
        <time>2022-09-28T11:23:04Z</time>
      </trkpt>
      <trkpt lat="46.50871" lon="6.49904">
        <ele>377.2</ele>
        <time>2022-09-28T11:23:05Z</time>
      </trkpt>
      <trkpt lat="46.50876" lon="6.4991">
        <ele>377.2</ele>
        <time>2022-09-28T11:23:06Z</time>
      </trkpt>
      <trkpt lat="46.50879" lon="6.49916">
        <ele>377.2</ele>
        <time>2022-09-28T11:23:07Z</time>
      </trkpt>
      <trkpt lat="46.50884" lon="6.49921">
        <ele>377.3</ele>
        <time>2022-09-28T11:23:08Z</time>
      </trkpt>
      <trkpt lat="46.50888" lon="6.49926">
        <ele>377.3</ele>
        <time>2022-09-28T11:23:09Z</time>
      </trkpt>
      <trkpt lat="46.50893" lon="6.4993">
        <ele>377.3</ele>
        <time>2022-09-28T11:23:10Z</time>
      </trkpt>
      <trkpt lat="46.50899" lon="6.49935">
        <ele>377.3</ele>
        <time>2022-09-28T11:23:11Z</time>
      </trkpt>
      <trkpt lat="46.50901" lon="6.49938">
        <ele>377.3</ele>
        <time>2022-09-28T11:23:12Z</time>
      </trkpt>
      <trkpt lat="46.50903" lon="6.49938">
        <ele>377.3</ele>
        <time>2022-09-28T11:23:13Z</time>
      </trkpt>
      <trkpt lat="46.50904" lon="6.49939">
        <ele>377.3</ele>
        <time>2022-09-28T11:23:14Z</time>
      </trkpt>
      <trkpt lat="46.50906" lon="6.49942">
        <ele>377.3</ele>
        <time>2022-09-28T11:23:15Z</time>
      </trkpt>
      <trkpt lat="46.50909" lon="6.49946">
        <ele>377.2</ele>
        <time>2022-09-28T11:23:16Z</time>
      </trkpt>
      <trkpt lat="46.50913" lon="6.49951">
        <ele>377.2</ele>
        <time>2022-09-28T11:23:17Z</time>
      </trkpt>
      <trkpt lat="46.50916" lon="6.49952">
        <ele>377.2</ele>
        <time>2022-09-28T11:23:18Z</time>
      </trkpt>
      <trkpt lat="46.50919" lon="6.49956">
        <ele>377.2</ele>
        <time>2022-09-28T11:23:19Z</time>
      </trkpt>
      <trkpt lat="46.50923" lon="6.49959">
        <ele>377.1</ele>
        <time>2022-09-28T11:23:20Z</time>
      </trkpt>
      <trkpt lat="46.50927" lon="6.49961">
        <ele>377.1</ele>
        <time>2022-09-28T11:23:21Z</time>
      </trkpt>
      <trkpt lat="46.50932" lon="6.49964">
        <ele>377.1</ele>
        <time>2022-09-28T11:23:22Z</time>
      </trkpt>
      <trkpt lat="46.50936" lon="6.49969">
        <ele>377</ele>
        <time>2022-09-28T11:23:23Z</time>
      </trkpt>
      <trkpt lat="46.5094" lon="6.49972">
        <ele>377</ele>
        <time>2022-09-28T11:23:24Z</time>
      </trkpt>
      <trkpt lat="46.50944" lon="6.49974">
        <ele>377</ele>
        <time>2022-09-28T11:23:25Z</time>
      </trkpt>
      <trkpt lat="46.50948" lon="6.49977">
        <ele>376.9</ele>
        <time>2022-09-28T11:23:26Z</time>
      </trkpt>
      <trkpt lat="46.50952" lon="6.49979">
        <ele>376.9</ele>
        <time>2022-09-28T11:23:27Z</time>
      </trkpt>
      <trkpt lat="46.50956" lon="6.49981">
        <ele>376.8</ele>
        <time>2022-09-28T11:23:28Z</time>
      </trkpt>
      <trkpt lat="46.5096" lon="6.49983">
        <ele>376.8</ele>
        <time>2022-09-28T11:23:29Z</time>
      </trkpt>
      <trkpt lat="46.50964" lon="6.49986">
        <ele>376.8</ele>
        <time>2022-09-28T11:23:30Z</time>
      </trkpt>
      <trkpt lat="46.50966" lon="6.49989">
        <ele>376.7</ele>
        <time>2022-09-28T11:23:31Z</time>
      </trkpt>
      <trkpt lat="46.50969" lon="6.49989">
        <ele>376.7</ele>
        <time>2022-09-28T11:23:32Z</time>
      </trkpt>
      <trkpt lat="46.50974" lon="6.49991">
        <ele>376.7</ele>
        <time>2022-09-28T11:23:33Z</time>
      </trkpt>
      <trkpt lat="46.50979" lon="6.49993">
        <ele>376.7</ele>
        <time>2022-09-28T11:23:34Z</time>
      </trkpt>
      <trkpt lat="46.50984" lon="6.49993">
        <ele>376.7</ele>
        <time>2022-09-28T11:23:35Z</time>
      </trkpt>
      <trkpt lat="46.50987" lon="6.49994">
        <ele>376.7</ele>
        <time>2022-09-28T11:23:36Z</time>
      </trkpt>
      <trkpt lat="46.50991" lon="6.49995">
        <ele>376.7</ele>
        <time>2022-09-28T11:23:37Z</time>
      </trkpt>
      <trkpt lat="46.50995" lon="6.49996">
        <ele>376.6</ele>
        <time>2022-09-28T11:23:38Z</time>
      </trkpt>
      <trkpt lat="46.50998" lon="6.49997">
        <ele>376.6</ele>
        <time>2022-09-28T11:23:39Z</time>
      </trkpt>
      <trkpt lat="46.51002" lon="6.49998">
        <ele>376.6</ele>
        <time>2022-09-28T11:23:40Z</time>
      </trkpt>
      <trkpt lat="46.51006" lon="6.49998">
        <ele>376.7</ele>
        <time>2022-09-28T11:23:41Z</time>
      </trkpt>
      <trkpt lat="46.5101" lon="6.49999">
        <ele>376.7</ele>
        <time>2022-09-28T11:23:42Z</time>
      </trkpt>
      <trkpt lat="46.51015" lon="6.49999">
        <ele>376.7</ele>
        <time>2022-09-28T11:23:43Z</time>
      </trkpt>
      <trkpt lat="46.5102" lon="6.49999">
        <ele>376.7</ele>
        <time>2022-09-28T11:23:44Z</time>
      </trkpt>
      <trkpt lat="46.51024" lon="6.5">
        <ele>376.7</ele>
        <time>2022-09-28T11:23:45Z</time>
      </trkpt>
      <trkpt lat="46.51029" lon="6.50001">
        <ele>376.8</ele>
        <time>2022-09-28T11:23:46Z</time>
      </trkpt>
      <trkpt lat="46.51033" lon="6.50001">
        <ele>376.8</ele>
        <time>2022-09-28T11:23:47Z</time>
      </trkpt>
      <trkpt lat="46.5104" lon="6.5">
        <ele>376.9</ele>
        <time>2022-09-28T11:23:48Z</time>
      </trkpt>
      <trkpt lat="46.51045" lon="6.5">
        <ele>376.9</ele>
        <time>2022-09-28T11:23:49Z</time>
      </trkpt>
      <trkpt lat="46.5105" lon="6.50001">
        <ele>377</ele>
        <time>2022-09-28T11:23:50Z</time>
      </trkpt>
      <trkpt lat="46.51056" lon="6.5">
        <ele>377</ele>
        <time>2022-09-28T11:23:51Z</time>
      </trkpt>
      <trkpt lat="46.51061" lon="6.5">
        <ele>377</ele>
        <time>2022-09-28T11:23:52Z</time>
      </trkpt>
      <trkpt lat="46.51065" lon="6.5">
        <ele>377.1</ele>
        <time>2022-09-28T11:23:53Z</time>
      </trkpt>
      <trkpt lat="46.51069" lon="6.50001">
        <ele>377.1</ele>
        <time>2022-09-28T11:23:54Z</time>
      </trkpt>
      <trkpt lat="46.51072" lon="6.5">
        <ele>377.1</ele>
        <time>2022-09-28T11:23:55Z</time>
      </trkpt>
      <trkpt lat="46.51077" lon="6.49999">
        <ele>377.1</ele>
        <time>2022-09-28T11:23:56Z</time>
      </trkpt>
      <trkpt lat="46.5108" lon="6.5">
        <ele>377.1</ele>
        <time>2022-09-28T11:23:57Z</time>
      </trkpt>
      <trkpt lat="46.51084" lon="6.50001">
        <ele>377.1</ele>
        <time>2022-09-28T11:23:58Z</time>
      </trkpt>
      <trkpt lat="46.51089" lon="6.50001">
        <ele>377.1</ele>
        <time>2022-09-28T11:23:59Z</time>
      </trkpt>
      <trkpt lat="46.51093" lon="6.50001">
        <ele>377.1</ele>
        <time>2022-09-28T11:24:00Z</time>
      </trkpt>
      <trkpt lat="46.51098" lon="6.50002">
        <ele>377.1</ele>
        <time>2022-09-28T11:24:01Z</time>
      </trkpt>
      <trkpt lat="46.51103" lon="6.50002">
        <ele>377.1</ele>
        <time>2022-09-28T11:24:02Z</time>
      </trkpt>
      <trkpt lat="46.51107" lon="6.50002">
        <ele>377.2</ele>
        <time>2022-09-28T11:24:03Z</time>
      </trkpt>
      <trkpt lat="46.51112" lon="6.50001">
        <ele>377.2</ele>
        <time>2022-09-28T11:24:04Z</time>
      </trkpt>
      <trkpt lat="46.51118" lon="6.5">
        <ele>377.3</ele>
        <time>2022-09-28T11:24:05Z</time>
      </trkpt>
      <trkpt lat="46.51124" lon="6.50001">
        <ele>377.2</ele>
        <time>2022-09-28T11:24:06Z</time>
      </trkpt>
      <trkpt lat="46.51129" lon="6.50002">
        <ele>377.2</ele>
        <time>2022-09-28T11:24:07Z</time>
      </trkpt>
      <trkpt lat="46.51135" lon="6.50001">
        <ele>377.2</ele>
        <time>2022-09-28T11:24:08Z</time>
      </trkpt>
      <trkpt lat="46.5114" lon="6.50002">
        <ele>377.2</ele>
        <time>2022-09-28T11:24:09Z</time>
      </trkpt>
      <trkpt lat="46.51146" lon="6.50002">
        <ele>377.2</ele>
        <time>2022-09-28T11:24:10Z</time>
      </trkpt>
      <trkpt lat="46.51152" lon="6.50003">
        <ele>377.2</ele>
        <time>2022-09-28T11:24:11Z</time>
      </trkpt>
      <trkpt lat="46.51158" lon="6.50003">
        <ele>377.2</ele>
        <time>2022-09-28T11:24:12Z</time>
      </trkpt>
      <trkpt lat="46.51163" lon="6.50003">
        <ele>377.1</ele>
        <time>2022-09-28T11:24:13Z</time>
      </trkpt>
      <trkpt lat="46.51169" lon="6.50005">
        <ele>377.1</ele>
        <time>2022-09-28T11:24:14Z</time>
      </trkpt>
      <trkpt lat="46.51174" lon="6.50008">
        <ele>377</ele>
        <time>2022-09-28T11:24:15Z</time>
      </trkpt>
      <trkpt lat="46.5118" lon="6.50011">
        <ele>377</ele>
        <time>2022-09-28T11:24:16Z</time>
      </trkpt>
      <trkpt lat="46.51185" lon="6.50014">
        <ele>376.9</ele>
        <time>2022-09-28T11:24:17Z</time>
      </trkpt>
      <trkpt lat="46.5119" lon="6.50019">
        <ele>376.9</ele>
        <time>2022-09-28T11:24:18Z</time>
      </trkpt>
      <trkpt lat="46.51194" lon="6.50023">
        <ele>376.8</ele>
        <time>2022-09-28T11:24:19Z</time>
      </trkpt>
      <trkpt lat="46.51198" lon="6.50025">
        <ele>376.8</ele>
        <time>2022-09-28T11:24:20Z</time>
      </trkpt>
      <trkpt lat="46.51204" lon="6.50028">
        <ele>376.8</ele>
        <time>2022-09-28T11:24:21Z</time>
      </trkpt>
      <trkpt lat="46.51209" lon="6.50032">
        <ele>376.8</ele>
        <time>2022-09-28T11:24:22Z</time>
      </trkpt>
      <trkpt lat="46.51213" lon="6.50038">
        <ele>376.8</ele>
        <time>2022-09-28T11:24:23Z</time>
      </trkpt>
      <trkpt lat="46.5122" lon="6.50042">
        <ele>376.8</ele>
        <time>2022-09-28T11:24:24Z</time>
      </trkpt>
      <trkpt lat="46.51225" lon="6.50048">
        <ele>376.8</ele>
        <time>2022-09-28T11:24:25Z</time>
      </trkpt>
      <trkpt lat="46.51231" lon="6.50053">
        <ele>376.8</ele>
        <time>2022-09-28T11:24:26Z</time>
      </trkpt>
      <trkpt lat="46.51237" lon="6.50057">
        <ele>376.8</ele>
        <time>2022-09-28T11:24:27Z</time>
      </trkpt>
      <trkpt lat="46.51241" lon="6.50061">
        <ele>376.8</ele>
        <time>2022-09-28T11:24:28Z</time>
      </trkpt>
      <trkpt lat="46.51245" lon="6.50065">
        <ele>376.8</ele>
        <time>2022-09-28T11:24:29Z</time>
      </trkpt>
      <trkpt lat="46.5125" lon="6.50071">
        <ele>376.8</ele>
        <time>2022-09-28T11:24:30Z</time>
      </trkpt>
      <trkpt lat="46.51255" lon="6.50076">
        <ele>376.8</ele>
        <time>2022-09-28T11:24:31Z</time>
      </trkpt>
      <trkpt lat="46.51261" lon="6.5008">
        <ele>376.8</ele>
        <time>2022-09-28T11:24:32Z</time>
      </trkpt>
      <trkpt lat="46.51264" lon="6.50085">
        <ele>376.8</ele>
        <time>2022-09-28T11:24:33Z</time>
      </trkpt>
      <trkpt lat="46.51268" lon="6.50089">
        <ele>376.8</ele>
        <time>2022-09-28T11:24:34Z</time>
      </trkpt>
      <trkpt lat="46.51273" lon="6.50096">
        <ele>376.8</ele>
        <time>2022-09-28T11:24:35Z</time>
      </trkpt>
      <trkpt lat="46.51278" lon="6.501">
        <ele>376.8</ele>
        <time>2022-09-28T11:24:36Z</time>
      </trkpt>
      <trkpt lat="46.51282" lon="6.50105">
        <ele>376.8</ele>
        <time>2022-09-28T11:24:37Z</time>
      </trkpt>
      <trkpt lat="46.51286" lon="6.5011">
        <ele>376.8</ele>
        <time>2022-09-28T11:24:38Z</time>
      </trkpt>
      <trkpt lat="46.51291" lon="6.50114">
        <ele>376.8</ele>
        <time>2022-09-28T11:24:39Z</time>
      </trkpt>
      <trkpt lat="46.51296" lon="6.50121">
        <ele>376.8</ele>
        <time>2022-09-28T11:24:40Z</time>
      </trkpt>
      <trkpt lat="46.51301" lon="6.50126">
        <ele>376.8</ele>
        <time>2022-09-28T11:24:41Z</time>
      </trkpt>
      <trkpt lat="46.51305" lon="6.50131">
        <ele>376.8</ele>
        <time>2022-09-28T11:24:42Z</time>
      </trkpt>
      <trkpt lat="46.5131" lon="6.50139">
        <ele>376.9</ele>
        <time>2022-09-28T11:24:43Z</time>
      </trkpt>
      <trkpt lat="46.51313" lon="6.50144">
        <ele>376.9</ele>
        <time>2022-09-28T11:24:44Z</time>
      </trkpt>
      <trkpt lat="46.51317" lon="6.5015">
        <ele>376.9</ele>
        <time>2022-09-28T11:24:45Z</time>
      </trkpt>
      <trkpt lat="46.51321" lon="6.50155">
        <ele>376.9</ele>
        <time>2022-09-28T11:24:46Z</time>
      </trkpt>
      <trkpt lat="46.51325" lon="6.5016">
        <ele>376.9</ele>
        <time>2022-09-28T11:24:47Z</time>
      </trkpt>
      <trkpt lat="46.5133" lon="6.50164">
        <ele>376.9</ele>
        <time>2022-09-28T11:24:48Z</time>
      </trkpt>
      <trkpt lat="46.51333" lon="6.50168">
        <ele>376.9</ele>
        <time>2022-09-28T11:24:49Z</time>
      </trkpt>
      <trkpt lat="46.51337" lon="6.50173">
        <ele>376.9</ele>
        <time>2022-09-28T11:24:50Z</time>
      </trkpt>
      <trkpt lat="46.51343" lon="6.50178">
        <ele>377</ele>
        <time>2022-09-28T11:24:51Z</time>
      </trkpt>
      <trkpt lat="46.51348" lon="6.50184">
        <ele>377</ele>
        <time>2022-09-28T11:24:52Z</time>
      </trkpt>
      <trkpt lat="46.51352" lon="6.50188">
        <ele>377</ele>
        <time>2022-09-28T11:24:53Z</time>
      </trkpt>
      <trkpt lat="46.51357" lon="6.50193">
        <ele>377</ele>
        <time>2022-09-28T11:24:54Z</time>
      </trkpt>
      <trkpt lat="46.51361" lon="6.50198">
        <ele>377</ele>
        <time>2022-09-28T11:24:55Z</time>
      </trkpt>
      <trkpt lat="46.51365" lon="6.50203">
        <ele>377</ele>
        <time>2022-09-28T11:24:56Z</time>
      </trkpt>
      <trkpt lat="46.51369" lon="6.50209">
        <ele>377.1</ele>
        <time>2022-09-28T11:24:57Z</time>
      </trkpt>
      <trkpt lat="46.51374" lon="6.50214">
        <ele>377.1</ele>
        <time>2022-09-28T11:24:58Z</time>
      </trkpt>
      <trkpt lat="46.51379" lon="6.5022">
        <ele>377.1</ele>
        <time>2022-09-28T11:24:59Z</time>
      </trkpt>
      <trkpt lat="46.51383" lon="6.50225">
        <ele>377.1</ele>
        <time>2022-09-28T11:25:00Z</time>
      </trkpt>
      <trkpt lat="46.51387" lon="6.5023">
        <ele>377.1</ele>
        <time>2022-09-28T11:25:01Z</time>
      </trkpt>
      <trkpt lat="46.51392" lon="6.50235">
        <ele>377.1</ele>
        <time>2022-09-28T11:25:02Z</time>
      </trkpt>
      <trkpt lat="46.51396" lon="6.50239">
        <ele>377.1</ele>
        <time>2022-09-28T11:25:03Z</time>
      </trkpt>
      <trkpt lat="46.51401" lon="6.50245">
        <ele>377.2</ele>
        <time>2022-09-28T11:25:04Z</time>
      </trkpt>
      <trkpt lat="46.51404" lon="6.5025">
        <ele>377.2</ele>
        <time>2022-09-28T11:25:05Z</time>
      </trkpt>
      <trkpt lat="46.51408" lon="6.50256">
        <ele>377.2</ele>
        <time>2022-09-28T11:25:06Z</time>
      </trkpt>
      <trkpt lat="46.51413" lon="6.50261">
        <ele>377.2</ele>
        <time>2022-09-28T11:25:07Z</time>
      </trkpt>
      <trkpt lat="46.51418" lon="6.50266">
        <ele>377.2</ele>
        <time>2022-09-28T11:25:08Z</time>
      </trkpt>
      <trkpt lat="46.51422" lon="6.50271">
        <ele>377.3</ele>
        <time>2022-09-28T11:25:09Z</time>
      </trkpt>
      <trkpt lat="46.51427" lon="6.50277">
        <ele>377.3</ele>
        <time>2022-09-28T11:25:10Z</time>
      </trkpt>
      <trkpt lat="46.51432" lon="6.50282">
        <ele>377.3</ele>
        <time>2022-09-28T11:25:11Z</time>
      </trkpt>
      <trkpt lat="46.51435" lon="6.50287">
        <ele>377.3</ele>
        <time>2022-09-28T11:25:12Z</time>
      </trkpt>
      <trkpt lat="46.5144" lon="6.50292">
        <ele>377.4</ele>
        <time>2022-09-28T11:25:13Z</time>
      </trkpt>
      <trkpt lat="46.51444" lon="6.50298">
        <ele>377.4</ele>
        <time>2022-09-28T11:25:14Z</time>
      </trkpt>
      <trkpt lat="46.51449" lon="6.50304">
        <ele>377.4</ele>
        <time>2022-09-28T11:25:15Z</time>
      </trkpt>
      <trkpt lat="46.51454" lon="6.5031">
        <ele>377.4</ele>
        <time>2022-09-28T11:25:16Z</time>
      </trkpt>
      <trkpt lat="46.51458" lon="6.50316">
        <ele>377.4</ele>
        <time>2022-09-28T11:25:17Z</time>
      </trkpt>
      <trkpt lat="46.51463" lon="6.50321">
        <ele>377.5</ele>
        <time>2022-09-28T11:25:18Z</time>
      </trkpt>
      <trkpt lat="46.51467" lon="6.50326">
        <ele>377.5</ele>
        <time>2022-09-28T11:25:19Z</time>
      </trkpt>
      <trkpt lat="46.51472" lon="6.50331">
        <ele>377.5</ele>
        <time>2022-09-28T11:25:20Z</time>
      </trkpt>
      <trkpt lat="46.51476" lon="6.50337">
        <ele>377.5</ele>
        <time>2022-09-28T11:25:21Z</time>
      </trkpt>
      <trkpt lat="46.5148" lon="6.50342">
        <ele>377.5</ele>
        <time>2022-09-28T11:25:22Z</time>
      </trkpt>
      <trkpt lat="46.51485" lon="6.50346">
        <ele>377.5</ele>
        <time>2022-09-28T11:25:23Z</time>
      </trkpt>
      <trkpt lat="46.51489" lon="6.50349">
        <ele>377.6</ele>
        <time>2022-09-28T11:25:24Z</time>
      </trkpt>
      <trkpt lat="46.51493" lon="6.50355">
        <ele>377.6</ele>
        <time>2022-09-28T11:25:25Z</time>
      </trkpt>
      <trkpt lat="46.51497" lon="6.5036">
        <ele>377.6</ele>
        <time>2022-09-28T11:25:26Z</time>
      </trkpt>
      <trkpt lat="46.51501" lon="6.50364">
        <ele>377.6</ele>
        <time>2022-09-28T11:25:27Z</time>
      </trkpt>
      <trkpt lat="46.51505" lon="6.50369">
        <ele>377.6</ele>
        <time>2022-09-28T11:25:28Z</time>
      </trkpt>
      <trkpt lat="46.51509" lon="6.50374">
        <ele>377.6</ele>
        <time>2022-09-28T11:25:29Z</time>
      </trkpt>
      <trkpt lat="46.51513" lon="6.50379">
        <ele>377.6</ele>
        <time>2022-09-28T11:25:30Z</time>
      </trkpt>
      <trkpt lat="46.51516" lon="6.50385">
        <ele>377.7</ele>
        <time>2022-09-28T11:25:31Z</time>
      </trkpt>
      <trkpt lat="46.5152" lon="6.50391">
        <ele>377.7</ele>
        <time>2022-09-28T11:25:32Z</time>
      </trkpt>
      <trkpt lat="46.51525" lon="6.50396">
        <ele>377.7</ele>
        <time>2022-09-28T11:25:33Z</time>
      </trkpt>
      <trkpt lat="46.51529" lon="6.50401">
        <ele>377.8</ele>
        <time>2022-09-28T11:25:34Z</time>
      </trkpt>
      <trkpt lat="46.51532" lon="6.50407">
        <ele>377.8</ele>
        <time>2022-09-28T11:25:35Z</time>
      </trkpt>
      <trkpt lat="46.51536" lon="6.50413">
        <ele>377.8</ele>
        <time>2022-09-28T11:25:36Z</time>
      </trkpt>
      <trkpt lat="46.51538" lon="6.50418">
        <ele>377.8</ele>
        <time>2022-09-28T11:25:37Z</time>
      </trkpt>
      <trkpt lat="46.5154" lon="6.50423">
        <ele>377.8</ele>
        <time>2022-09-28T11:25:38Z</time>
      </trkpt>
      <trkpt lat="46.51543" lon="6.5043">
        <ele>377.8</ele>
        <time>2022-09-28T11:25:39Z</time>
      </trkpt>
      <trkpt lat="46.51547" lon="6.50435">
        <ele>377.9</ele>
        <time>2022-09-28T11:25:40Z</time>
      </trkpt>
      <trkpt lat="46.5155" lon="6.5044">
        <ele>377.9</ele>
        <time>2022-09-28T11:25:41Z</time>
      </trkpt>
      <trkpt lat="46.51552" lon="6.50446">
        <ele>377.9</ele>
        <time>2022-09-28T11:25:42Z</time>
      </trkpt>
      <trkpt lat="46.51554" lon="6.50453">
        <ele>377.9</ele>
        <time>2022-09-28T11:25:43Z</time>
      </trkpt>
      <trkpt lat="46.51558" lon="6.50457">
        <ele>377.9</ele>
        <time>2022-09-28T11:25:44Z</time>
      </trkpt>
      <trkpt lat="46.5156" lon="6.50464">
        <ele>377.9</ele>
        <time>2022-09-28T11:25:45Z</time>
      </trkpt>
      <trkpt lat="46.51562" lon="6.5047">
        <ele>377.9</ele>
        <time>2022-09-28T11:25:46Z</time>
      </trkpt>
      <trkpt lat="46.51565" lon="6.50477">
        <ele>377.9</ele>
        <time>2022-09-28T11:25:47Z</time>
      </trkpt>
      <trkpt lat="46.51567" lon="6.50483">
        <ele>377.9</ele>
        <time>2022-09-28T11:25:48Z</time>
      </trkpt>
      <trkpt lat="46.51569" lon="6.50489">
        <ele>377.9</ele>
        <time>2022-09-28T11:25:49Z</time>
      </trkpt>
      <trkpt lat="46.5157" lon="6.50495">
        <ele>377.9</ele>
        <time>2022-09-28T11:25:50Z</time>
      </trkpt>
      <trkpt lat="46.51573" lon="6.50501">
        <ele>378</ele>
        <time>2022-09-28T11:25:51Z</time>
      </trkpt>
      <trkpt lat="46.51577" lon="6.50508">
        <ele>378</ele>
        <time>2022-09-28T11:25:52Z</time>
      </trkpt>
      <trkpt lat="46.51579" lon="6.50515">
        <ele>378</ele>
        <time>2022-09-28T11:25:53Z</time>
      </trkpt>
      <trkpt lat="46.51581" lon="6.50522">
        <ele>378</ele>
        <time>2022-09-28T11:25:54Z</time>
      </trkpt>
      <trkpt lat="46.51583" lon="6.50529">
        <ele>378</ele>
        <time>2022-09-28T11:25:55Z</time>
      </trkpt>
      <trkpt lat="46.51586" lon="6.50536">
        <ele>378</ele>
        <time>2022-09-28T11:25:56Z</time>
      </trkpt>
      <trkpt lat="46.51588" lon="6.50543">
        <ele>378</ele>
        <time>2022-09-28T11:25:57Z</time>
      </trkpt>
      <trkpt lat="46.51591" lon="6.5055">
        <ele>378</ele>
        <time>2022-09-28T11:25:58Z</time>
      </trkpt>
      <trkpt lat="46.51594" lon="6.50558">
        <ele>378</ele>
        <time>2022-09-28T11:25:59Z</time>
      </trkpt>
      <trkpt lat="46.51597" lon="6.50565">
        <ele>378</ele>
        <time>2022-09-28T11:26:00Z</time>
      </trkpt>
      <trkpt lat="46.516" lon="6.50572">
        <ele>378</ele>
        <time>2022-09-28T11:26:01Z</time>
      </trkpt>
      <trkpt lat="46.51602" lon="6.5058">
        <ele>378</ele>
        <time>2022-09-28T11:26:02Z</time>
      </trkpt>
      <trkpt lat="46.51605" lon="6.50587">
        <ele>378</ele>
        <time>2022-09-28T11:26:03Z</time>
      </trkpt>
      <trkpt lat="46.51608" lon="6.50594">
        <ele>378</ele>
        <time>2022-09-28T11:26:04Z</time>
      </trkpt>
      <trkpt lat="46.51611" lon="6.50602">
        <ele>378</ele>
        <time>2022-09-28T11:26:05Z</time>
      </trkpt>
      <trkpt lat="46.51613" lon="6.50609">
        <ele>377.9</ele>
        <time>2022-09-28T11:26:06Z</time>
      </trkpt>
      <trkpt lat="46.51617" lon="6.50616">
        <ele>377.9</ele>
        <time>2022-09-28T11:26:07Z</time>
      </trkpt>
      <trkpt lat="46.51619" lon="6.50624">
        <ele>377.9</ele>
        <time>2022-09-28T11:26:08Z</time>
      </trkpt>
      <trkpt lat="46.51622" lon="6.5063">
        <ele>377.9</ele>
        <time>2022-09-28T11:26:09Z</time>
      </trkpt>
      <trkpt lat="46.51625" lon="6.50637">
        <ele>377.9</ele>
        <time>2022-09-28T11:26:10Z</time>
      </trkpt>
      <trkpt lat="46.51627" lon="6.50644">
        <ele>377.8</ele>
        <time>2022-09-28T11:26:11Z</time>
      </trkpt>
      <trkpt lat="46.51629" lon="6.50651">
        <ele>377.8</ele>
        <time>2022-09-28T11:26:12Z</time>
      </trkpt>
      <trkpt lat="46.51632" lon="6.50659">
        <ele>377.8</ele>
        <time>2022-09-28T11:26:13Z</time>
      </trkpt>
      <trkpt lat="46.51635" lon="6.50666">
        <ele>377.8</ele>
        <time>2022-09-28T11:26:14Z</time>
      </trkpt>
      <trkpt lat="46.51637" lon="6.50672">
        <ele>377.7</ele>
        <time>2022-09-28T11:26:15Z</time>
      </trkpt>
      <trkpt lat="46.51639" lon="6.50678">
        <ele>377.7</ele>
        <time>2022-09-28T11:26:16Z</time>
      </trkpt>
      <trkpt lat="46.51642" lon="6.50684">
        <ele>377.7</ele>
        <time>2022-09-28T11:26:17Z</time>
      </trkpt>
      <trkpt lat="46.51643" lon="6.5069">
        <ele>377.7</ele>
        <time>2022-09-28T11:26:18Z</time>
      </trkpt>
      <trkpt lat="46.51646" lon="6.50696">
        <ele>377.7</ele>
        <time>2022-09-28T11:26:19Z</time>
      </trkpt>
      <trkpt lat="46.51648" lon="6.50704">
        <ele>377.6</ele>
        <time>2022-09-28T11:26:20Z</time>
      </trkpt>
      <trkpt lat="46.5165" lon="6.50711">
        <ele>377.6</ele>
        <time>2022-09-28T11:26:21Z</time>
      </trkpt>
      <trkpt lat="46.51652" lon="6.50718">
        <ele>377.6</ele>
        <time>2022-09-28T11:26:22Z</time>
      </trkpt>
      <trkpt lat="46.51654" lon="6.50725">
        <ele>377.6</ele>
        <time>2022-09-28T11:26:23Z</time>
      </trkpt>
      <trkpt lat="46.51655" lon="6.50732">
        <ele>377.5</ele>
        <time>2022-09-28T11:26:24Z</time>
      </trkpt>
      <trkpt lat="46.51657" lon="6.5074">
        <ele>377.5</ele>
        <time>2022-09-28T11:26:25Z</time>
      </trkpt>
      <trkpt lat="46.51658" lon="6.50748">
        <ele>377.5</ele>
        <time>2022-09-28T11:26:26Z</time>
      </trkpt>
      <trkpt lat="46.5166" lon="6.50755">
        <ele>377.5</ele>
        <time>2022-09-28T11:26:27Z</time>
      </trkpt>
      <trkpt lat="46.51661" lon="6.50763">
        <ele>377.5</ele>
        <time>2022-09-28T11:26:28Z</time>
      </trkpt>
      <trkpt lat="46.51663" lon="6.50769">
        <ele>377.5</ele>
        <time>2022-09-28T11:26:29Z</time>
      </trkpt>
      <trkpt lat="46.51663" lon="6.50776">
        <ele>377.5</ele>
        <time>2022-09-28T11:26:30Z</time>
      </trkpt>
      <trkpt lat="46.51663" lon="6.50784">
        <ele>377.4</ele>
        <time>2022-09-28T11:26:31Z</time>
      </trkpt>
      <trkpt lat="46.51663" lon="6.50792">
        <ele>377.4</ele>
        <time>2022-09-28T11:26:32Z</time>
      </trkpt>
      <trkpt lat="46.51665" lon="6.50799">
        <ele>377.4</ele>
        <time>2022-09-28T11:26:33Z</time>
      </trkpt>
      <trkpt lat="46.51666" lon="6.50807">
        <ele>377.4</ele>
        <time>2022-09-28T11:26:34Z</time>
      </trkpt>
      <trkpt lat="46.51667" lon="6.50815">
        <ele>377.4</ele>
        <time>2022-09-28T11:26:35Z</time>
      </trkpt>
      <trkpt lat="46.51668" lon="6.50823">
        <ele>377.4</ele>
        <time>2022-09-28T11:26:36Z</time>
      </trkpt>
      <trkpt lat="46.51669" lon="6.50831">
        <ele>377.4</ele>
        <time>2022-09-28T11:26:37Z</time>
      </trkpt>
      <trkpt lat="46.5167" lon="6.50839">
        <ele>377.4</ele>
        <time>2022-09-28T11:26:38Z</time>
      </trkpt>
      <trkpt lat="46.5167" lon="6.50847">
        <ele>377.4</ele>
        <time>2022-09-28T11:26:39Z</time>
      </trkpt>
      <trkpt lat="46.51672" lon="6.50855">
        <ele>377.4</ele>
        <time>2022-09-28T11:26:40Z</time>
      </trkpt>
      <trkpt lat="46.51672" lon="6.50862">
        <ele>377.4</ele>
        <time>2022-09-28T11:26:41Z</time>
      </trkpt>
      <trkpt lat="46.51673" lon="6.50872">
        <ele>377.4</ele>
        <time>2022-09-28T11:26:42Z</time>
      </trkpt>
      <trkpt lat="46.51674" lon="6.5088">
        <ele>377.4</ele>
        <time>2022-09-28T11:26:43Z</time>
      </trkpt>
      <trkpt lat="46.51675" lon="6.50887">
        <ele>377.4</ele>
        <time>2022-09-28T11:26:44Z</time>
      </trkpt>
      <trkpt lat="46.51677" lon="6.50895">
        <ele>377.4</ele>
        <time>2022-09-28T11:26:45Z</time>
      </trkpt>
      <trkpt lat="46.51679" lon="6.50907">
        <ele>377.4</ele>
        <time>2022-09-28T11:26:46Z</time>
      </trkpt>
      <trkpt lat="46.51679" lon="6.50916">
        <ele>377.4</ele>
        <time>2022-09-28T11:26:47Z</time>
      </trkpt>
      <trkpt lat="46.5168" lon="6.50924">
        <ele>377.4</ele>
        <time>2022-09-28T11:26:48Z</time>
      </trkpt>
      <trkpt lat="46.51681" lon="6.50932">
        <ele>377.4</ele>
        <time>2022-09-28T11:26:49Z</time>
      </trkpt>
      <trkpt lat="46.51682" lon="6.5094">
        <ele>377.4</ele>
        <time>2022-09-28T11:26:50Z</time>
      </trkpt>
      <trkpt lat="46.51684" lon="6.50948">
        <ele>377.4</ele>
        <time>2022-09-28T11:26:51Z</time>
      </trkpt>
      <trkpt lat="46.51684" lon="6.50955">
        <ele>377.4</ele>
        <time>2022-09-28T11:26:52Z</time>
      </trkpt>
      <trkpt lat="46.51685" lon="6.50962">
        <ele>377.4</ele>
        <time>2022-09-28T11:26:53Z</time>
      </trkpt>
      <trkpt lat="46.51687" lon="6.5097">
        <ele>377.4</ele>
        <time>2022-09-28T11:26:54Z</time>
      </trkpt>
      <trkpt lat="46.51688" lon="6.50977">
        <ele>377.4</ele>
        <time>2022-09-28T11:26:55Z</time>
      </trkpt>
      <trkpt lat="46.51689" lon="6.50983">
        <ele>377.5</ele>
        <time>2022-09-28T11:26:56Z</time>
      </trkpt>
      <trkpt lat="46.51689" lon="6.5099">
        <ele>377.5</ele>
        <time>2022-09-28T11:26:57Z</time>
      </trkpt>
      <trkpt lat="46.5169" lon="6.50997">
        <ele>377.5</ele>
        <time>2022-09-28T11:26:58Z</time>
      </trkpt>
      <trkpt lat="46.51691" lon="6.51004">
        <ele>377.5</ele>
        <time>2022-09-28T11:26:59Z</time>
      </trkpt>
      <trkpt lat="46.51692" lon="6.51012">
        <ele>377.6</ele>
        <time>2022-09-28T11:27:00Z</time>
      </trkpt>
      <trkpt lat="46.51693" lon="6.5102">
        <ele>377.6</ele>
        <time>2022-09-28T11:27:01Z</time>
      </trkpt>
      <trkpt lat="46.51694" lon="6.51026">
        <ele>377.6</ele>
        <time>2022-09-28T11:27:02Z</time>
      </trkpt>
      <trkpt lat="46.51694" lon="6.51035">
        <ele>377.7</ele>
        <time>2022-09-28T11:27:03Z</time>
      </trkpt>
      <trkpt lat="46.51694" lon="6.51043">
        <ele>377.7</ele>
        <time>2022-09-28T11:27:04Z</time>
      </trkpt>
      <trkpt lat="46.51696" lon="6.5105">
        <ele>377.8</ele>
        <time>2022-09-28T11:27:05Z</time>
      </trkpt>
      <trkpt lat="46.51696" lon="6.51057">
        <ele>377.8</ele>
        <time>2022-09-28T11:27:06Z</time>
      </trkpt>
      <trkpt lat="46.51698" lon="6.51065">
        <ele>377.8</ele>
        <time>2022-09-28T11:27:07Z</time>
      </trkpt>
      <trkpt lat="46.51699" lon="6.51072">
        <ele>377.9</ele>
        <time>2022-09-28T11:27:08Z</time>
      </trkpt>
      <trkpt lat="46.51699" lon="6.51077">
        <ele>377.9</ele>
        <time>2022-09-28T11:27:09Z</time>
      </trkpt>
      <trkpt lat="46.517" lon="6.51082">
        <ele>377.9</ele>
        <time>2022-09-28T11:27:10Z</time>
      </trkpt>
      <trkpt lat="46.517" lon="6.5109">
        <ele>377.9</ele>
        <time>2022-09-28T11:27:11Z</time>
      </trkpt>
      <trkpt lat="46.51701" lon="6.51097">
        <ele>377.9</ele>
        <time>2022-09-28T11:27:12Z</time>
      </trkpt>
      <trkpt lat="46.51702" lon="6.51104">
        <ele>378</ele>
        <time>2022-09-28T11:27:13Z</time>
      </trkpt>
      <trkpt lat="46.51703" lon="6.5111">
        <ele>378</ele>
        <time>2022-09-28T11:27:14Z</time>
      </trkpt>
      <trkpt lat="46.51704" lon="6.51116">
        <ele>378</ele>
        <time>2022-09-28T11:27:15Z</time>
      </trkpt>
      <trkpt lat="46.51704" lon="6.51124">
        <ele>378.1</ele>
        <time>2022-09-28T11:27:16Z</time>
      </trkpt>
      <trkpt lat="46.51705" lon="6.5113">
        <ele>378.1</ele>
        <time>2022-09-28T11:27:17Z</time>
      </trkpt>
      <trkpt lat="46.51706" lon="6.51135">
        <ele>378.1</ele>
        <time>2022-09-28T11:27:18Z</time>
      </trkpt>
      <trkpt lat="46.51705" lon="6.51141">
        <ele>378.2</ele>
        <time>2022-09-28T11:27:19Z</time>
      </trkpt>
      <trkpt lat="46.51706" lon="6.51147">
        <ele>378.2</ele>
        <time>2022-09-28T11:27:20Z</time>
      </trkpt>
      <trkpt lat="46.51707" lon="6.51155">
        <ele>378.2</ele>
        <time>2022-09-28T11:27:21Z</time>
      </trkpt>
      <trkpt lat="46.51708" lon="6.51161">
        <ele>378.2</ele>
        <time>2022-09-28T11:27:22Z</time>
      </trkpt>
      <trkpt lat="46.51709" lon="6.51168">
        <ele>378.3</ele>
        <time>2022-09-28T11:27:23Z</time>
      </trkpt>
      <trkpt lat="46.5171" lon="6.51174">
        <ele>378.3</ele>
        <time>2022-09-28T11:27:24Z</time>
      </trkpt>
      <trkpt lat="46.5171" lon="6.51179">
        <ele>378.3</ele>
        <time>2022-09-28T11:27:25Z</time>
      </trkpt>
      <trkpt lat="46.51711" lon="6.51186">
        <ele>378.3</ele>
        <time>2022-09-28T11:27:26Z</time>
      </trkpt>
      <trkpt lat="46.51712" lon="6.51194">
        <ele>378.4</ele>
        <time>2022-09-28T11:27:27Z</time>
      </trkpt>
      <trkpt lat="46.51712" lon="6.512">
        <ele>378.4</ele>
        <time>2022-09-28T11:27:28Z</time>
      </trkpt>
      <trkpt lat="46.51712" lon="6.51205">
        <ele>378.4</ele>
        <time>2022-09-28T11:27:29Z</time>
      </trkpt>
      <trkpt lat="46.51714" lon="6.51211">
        <ele>378.4</ele>
        <time>2022-09-28T11:27:30Z</time>
      </trkpt>
      <trkpt lat="46.51714" lon="6.51218">
        <ele>378.5</ele>
        <time>2022-09-28T11:27:31Z</time>
      </trkpt>
      <trkpt lat="46.51714" lon="6.51225">
        <ele>378.5</ele>
        <time>2022-09-28T11:27:32Z</time>
      </trkpt>
      <trkpt lat="46.51715" lon="6.51231">
        <ele>378.5</ele>
        <time>2022-09-28T11:27:33Z</time>
      </trkpt>
      <trkpt lat="46.51716" lon="6.51238">
        <ele>378.5</ele>
        <time>2022-09-28T11:27:34Z</time>
      </trkpt>
      <trkpt lat="46.51717" lon="6.51246">
        <ele>378.5</ele>
        <time>2022-09-28T11:27:35Z</time>
      </trkpt>
      <trkpt lat="46.51718" lon="6.51251">
        <ele>378.5</ele>
        <time>2022-09-28T11:27:36Z</time>
      </trkpt>
      <trkpt lat="46.51719" lon="6.51257">
        <ele>378.6</ele>
        <time>2022-09-28T11:27:37Z</time>
      </trkpt>
      <trkpt lat="46.5172" lon="6.51264">
        <ele>378.6</ele>
        <time>2022-09-28T11:27:38Z</time>
      </trkpt>
      <trkpt lat="46.5172" lon="6.5127">
        <ele>378.6</ele>
        <time>2022-09-28T11:27:39Z</time>
      </trkpt>
      <trkpt lat="46.51721" lon="6.51276">
        <ele>378.6</ele>
        <time>2022-09-28T11:27:40Z</time>
      </trkpt>
      <trkpt lat="46.51721" lon="6.51282">
        <ele>378.6</ele>
        <time>2022-09-28T11:27:41Z</time>
      </trkpt>
      <trkpt lat="46.51721" lon="6.51289">
        <ele>378.6</ele>
        <time>2022-09-28T11:27:42Z</time>
      </trkpt>
      <trkpt lat="46.51722" lon="6.51296">
        <ele>378.6</ele>
        <time>2022-09-28T11:27:43Z</time>
      </trkpt>
      <trkpt lat="46.51723" lon="6.51302">
        <ele>378.6</ele>
        <time>2022-09-28T11:27:44Z</time>
      </trkpt>
      <trkpt lat="46.51723" lon="6.51309">
        <ele>378.6</ele>
        <time>2022-09-28T11:27:45Z</time>
      </trkpt>
      <trkpt lat="46.51723" lon="6.51314">
        <ele>378.6</ele>
        <time>2022-09-28T11:27:46Z</time>
      </trkpt>
      <trkpt lat="46.51724" lon="6.51322">
        <ele>378.7</ele>
        <time>2022-09-28T11:27:47Z</time>
      </trkpt>
      <trkpt lat="46.51726" lon="6.51329">
        <ele>378.7</ele>
        <time>2022-09-28T11:27:48Z</time>
      </trkpt>
      <trkpt lat="46.51727" lon="6.51336">
        <ele>378.7</ele>
        <time>2022-09-28T11:27:49Z</time>
      </trkpt>
      <trkpt lat="46.51727" lon="6.51342">
        <ele>378.7</ele>
        <time>2022-09-28T11:27:50Z</time>
      </trkpt>
      <trkpt lat="46.51729" lon="6.51351">
        <ele>378.7</ele>
        <time>2022-09-28T11:27:51Z</time>
      </trkpt>
      <trkpt lat="46.5173" lon="6.51357">
        <ele>378.7</ele>
        <time>2022-09-28T11:27:52Z</time>
      </trkpt>
      <trkpt lat="46.51731" lon="6.51364">
        <ele>378.8</ele>
        <time>2022-09-28T11:27:53Z</time>
      </trkpt>
      <trkpt lat="46.51732" lon="6.51371">
        <ele>378.8</ele>
        <time>2022-09-28T11:27:54Z</time>
      </trkpt>
      <trkpt lat="46.51733" lon="6.51377">
        <ele>378.8</ele>
        <time>2022-09-28T11:27:55Z</time>
      </trkpt>
      <trkpt lat="46.51734" lon="6.51385">
        <ele>378.8</ele>
        <time>2022-09-28T11:27:56Z</time>
      </trkpt>
      <trkpt lat="46.51734" lon="6.51391">
        <ele>378.8</ele>
        <time>2022-09-28T11:27:57Z</time>
      </trkpt>
      <trkpt lat="46.51734" lon="6.51397">
        <ele>378.9</ele>
        <time>2022-09-28T11:27:58Z</time>
      </trkpt>
      <trkpt lat="46.51736" lon="6.51404">
        <ele>378.9</ele>
        <time>2022-09-28T11:27:59Z</time>
      </trkpt>
      <trkpt lat="46.51736" lon="6.51411">
        <ele>378.9</ele>
        <time>2022-09-28T11:28:00Z</time>
      </trkpt>
      <trkpt lat="46.51738" lon="6.51417">
        <ele>379</ele>
        <time>2022-09-28T11:28:01Z</time>
      </trkpt>
      <trkpt lat="46.51739" lon="6.51423">
        <ele>379</ele>
        <time>2022-09-28T11:28:02Z</time>
      </trkpt>
      <trkpt lat="46.51739" lon="6.51429">
        <ele>379.1</ele>
        <time>2022-09-28T11:28:03Z</time>
      </trkpt>
      <trkpt lat="46.51741" lon="6.51434">
        <ele>379.1</ele>
        <time>2022-09-28T11:28:04Z</time>
      </trkpt>
      <trkpt lat="46.51741" lon="6.5144">
        <ele>379.1</ele>
        <time>2022-09-28T11:28:05Z</time>
      </trkpt>
      <trkpt lat="46.51742" lon="6.51446">
        <ele>379.2</ele>
        <time>2022-09-28T11:28:06Z</time>
      </trkpt>
      <trkpt lat="46.51742" lon="6.51452">
        <ele>379.3</ele>
        <time>2022-09-28T11:28:07Z</time>
      </trkpt>
      <trkpt lat="46.51744" lon="6.51457">
        <ele>379.3</ele>
        <time>2022-09-28T11:28:08Z</time>
      </trkpt>
      <trkpt lat="46.51744" lon="6.51462">
        <ele>379.4</ele>
        <time>2022-09-28T11:28:09Z</time>
      </trkpt>
      <trkpt lat="46.51745" lon="6.51468">
        <ele>379.4</ele>
        <time>2022-09-28T11:28:10Z</time>
      </trkpt>
      <trkpt lat="46.51745" lon="6.51474">
        <ele>379.5</ele>
        <time>2022-09-28T11:28:11Z</time>
      </trkpt>
      <trkpt lat="46.51746" lon="6.51479">
        <ele>379.6</ele>
        <time>2022-09-28T11:28:12Z</time>
      </trkpt>
      <trkpt lat="46.51746" lon="6.51484">
        <ele>379.6</ele>
        <time>2022-09-28T11:28:13Z</time>
      </trkpt>
      <trkpt lat="46.51748" lon="6.51489">
        <ele>379.7</ele>
        <time>2022-09-28T11:28:14Z</time>
      </trkpt>
      <trkpt lat="46.51748" lon="6.51495">
        <ele>379.8</ele>
        <time>2022-09-28T11:28:15Z</time>
      </trkpt>
      <trkpt lat="46.51748" lon="6.515">
        <ele>379.9</ele>
        <time>2022-09-28T11:28:16Z</time>
      </trkpt>
      <trkpt lat="46.51749" lon="6.51505">
        <ele>380</ele>
        <time>2022-09-28T11:28:17Z</time>
      </trkpt>
      <trkpt lat="46.51749" lon="6.5151">
        <ele>380.1</ele>
        <time>2022-09-28T11:28:18Z</time>
      </trkpt>
      <trkpt lat="46.5175" lon="6.51515">
        <ele>380.1</ele>
        <time>2022-09-28T11:28:19Z</time>
      </trkpt>
      <trkpt lat="46.51751" lon="6.5152">
        <ele>380.2</ele>
        <time>2022-09-28T11:28:20Z</time>
      </trkpt>
      <trkpt lat="46.51752" lon="6.51525">
        <ele>380.3</ele>
        <time>2022-09-28T11:28:21Z</time>
      </trkpt>
      <trkpt lat="46.51752" lon="6.5153">
        <ele>380.4</ele>
        <time>2022-09-28T11:28:22Z</time>
      </trkpt>
      <trkpt lat="46.51753" lon="6.51535">
        <ele>380.5</ele>
        <time>2022-09-28T11:28:23Z</time>
      </trkpt>
      <trkpt lat="46.51754" lon="6.5154">
        <ele>380.5</ele>
        <time>2022-09-28T11:28:24Z</time>
      </trkpt>
      <trkpt lat="46.51754" lon="6.51544">
        <ele>380.6</ele>
        <time>2022-09-28T11:28:25Z</time>
      </trkpt>
      <trkpt lat="46.51756" lon="6.5155">
        <ele>380.6</ele>
        <time>2022-09-28T11:28:26Z</time>
      </trkpt>
      <trkpt lat="46.51756" lon="6.51555">
        <ele>380.8</ele>
        <time>2022-09-28T11:28:27Z</time>
      </trkpt>
      <trkpt lat="46.51757" lon="6.51561">
        <ele>380.9</ele>
        <time>2022-09-28T11:28:28Z</time>
      </trkpt>
      <trkpt lat="46.51757" lon="6.51562">
        <ele>380.9</ele>
        <time>2022-09-28T11:28:29Z</time>
      </trkpt>
      <trkpt lat="46.51757" lon="6.51567">
        <ele>381.1</ele>
        <time>2022-09-28T11:28:30Z</time>
      </trkpt>
      <trkpt lat="46.51758" lon="6.51573">
        <ele>381.2</ele>
        <time>2022-09-28T11:28:31Z</time>
      </trkpt>
      <trkpt lat="46.51758" lon="6.51575">
        <ele>381.2</ele>
        <time>2022-09-28T11:28:32Z</time>
      </trkpt>
      <trkpt lat="46.51759" lon="6.5158">
        <ele>381.4</ele>
        <time>2022-09-28T11:28:33Z</time>
      </trkpt>
      <trkpt lat="46.51759" lon="6.51584">
        <ele>381.5</ele>
        <time>2022-09-28T11:28:34Z</time>
      </trkpt>
      <trkpt lat="46.5176" lon="6.51588">
        <ele>381.6</ele>
        <time>2022-09-28T11:28:35Z</time>
      </trkpt>
      <trkpt lat="46.51761" lon="6.51592">
        <ele>381.7</ele>
        <time>2022-09-28T11:28:36Z</time>
      </trkpt>
      <trkpt lat="46.51762" lon="6.51598">
        <ele>381.8</ele>
        <time>2022-09-28T11:28:37Z</time>
      </trkpt>
      <trkpt lat="46.51762" lon="6.516">
        <ele>381.9</ele>
        <time>2022-09-28T11:28:38Z</time>
      </trkpt>
      <trkpt lat="46.51762" lon="6.51604">
        <ele>382</ele>
        <time>2022-09-28T11:28:39Z</time>
      </trkpt>
      <trkpt lat="46.51762" lon="6.5161">
        <ele>382.1</ele>
        <time>2022-09-28T11:28:40Z</time>
      </trkpt>
      <trkpt lat="46.51763" lon="6.51614">
        <ele>382.2</ele>
        <time>2022-09-28T11:28:41Z</time>
      </trkpt>
      <trkpt lat="46.51764" lon="6.51618">
        <ele>382.3</ele>
        <time>2022-09-28T11:28:42Z</time>
      </trkpt>
      <trkpt lat="46.51764" lon="6.51622">
        <ele>382.4</ele>
        <time>2022-09-28T11:28:43Z</time>
      </trkpt>
      <trkpt lat="46.51764" lon="6.51626">
        <ele>382.5</ele>
        <time>2022-09-28T11:28:44Z</time>
      </trkpt>
      <trkpt lat="46.51765" lon="6.5163">
        <ele>382.7</ele>
        <time>2022-09-28T11:28:45Z</time>
      </trkpt>
      <trkpt lat="46.51765" lon="6.51635">
        <ele>382.8</ele>
        <time>2022-09-28T11:28:46Z</time>
      </trkpt>
      <trkpt lat="46.51766" lon="6.51639">
        <ele>382.9</ele>
        <time>2022-09-28T11:28:47Z</time>
      </trkpt>
      <trkpt lat="46.51766" lon="6.51646">
        <ele>383</ele>
        <time>2022-09-28T11:28:48Z</time>
      </trkpt>
      <trkpt lat="46.51767" lon="6.51648">
        <ele>383.1</ele>
        <time>2022-09-28T11:28:49Z</time>
      </trkpt>
      <trkpt lat="46.51767" lon="6.51653">
        <ele>383.2</ele>
        <time>2022-09-28T11:28:50Z</time>
      </trkpt>
      <trkpt lat="46.51767" lon="6.51657">
        <ele>383.3</ele>
        <time>2022-09-28T11:28:51Z</time>
      </trkpt>
      <trkpt lat="46.51768" lon="6.51662">
        <ele>383.4</ele>
        <time>2022-09-28T11:28:52Z</time>
      </trkpt>
      <trkpt lat="46.51768" lon="6.51667">
        <ele>383.6</ele>
        <time>2022-09-28T11:28:53Z</time>
      </trkpt>
      <trkpt lat="46.51768" lon="6.51672">
        <ele>383.7</ele>
        <time>2022-09-28T11:28:54Z</time>
      </trkpt>
      <trkpt lat="46.51768" lon="6.51676">
        <ele>383.8</ele>
        <time>2022-09-28T11:28:55Z</time>
      </trkpt>
      <trkpt lat="46.51769" lon="6.51681">
        <ele>383.9</ele>
        <time>2022-09-28T11:28:56Z</time>
      </trkpt>
      <trkpt lat="46.51769" lon="6.51685">
        <ele>384.1</ele>
        <time>2022-09-28T11:28:57Z</time>
      </trkpt>
      <trkpt lat="46.51769" lon="6.5169">
        <ele>384.2</ele>
        <time>2022-09-28T11:28:58Z</time>
      </trkpt>
      <trkpt lat="46.5177" lon="6.51694">
        <ele>384.3</ele>
        <time>2022-09-28T11:28:59Z</time>
      </trkpt>
      <trkpt lat="46.51771" lon="6.51701">
        <ele>384.5</ele>
        <time>2022-09-28T11:29:00Z</time>
      </trkpt>
      <trkpt lat="46.51772" lon="6.51705">
        <ele>384.6</ele>
        <time>2022-09-28T11:29:01Z</time>
      </trkpt>
      <trkpt lat="46.51772" lon="6.51707">
        <ele>384.7</ele>
        <time>2022-09-28T11:29:02Z</time>
      </trkpt>
      <trkpt lat="46.51772" lon="6.51712">
        <ele>384.8</ele>
        <time>2022-09-28T11:29:03Z</time>
      </trkpt>
      <trkpt lat="46.51773" lon="6.51716">
        <ele>384.9</ele>
        <time>2022-09-28T11:29:04Z</time>
      </trkpt>
      <trkpt lat="46.51774" lon="6.51723">
        <ele>385.1</ele>
        <time>2022-09-28T11:29:05Z</time>
      </trkpt>
      <trkpt lat="46.51774" lon="6.51726">
        <ele>385.2</ele>
        <time>2022-09-28T11:29:06Z</time>
      </trkpt>
      <trkpt lat="46.51775" lon="6.51728">
        <ele>385.3</ele>
        <time>2022-09-28T11:29:07Z</time>
      </trkpt>
      <trkpt lat="46.51775" lon="6.51733">
        <ele>385.4</ele>
        <time>2022-09-28T11:29:08Z</time>
      </trkpt>
      <trkpt lat="46.51775" lon="6.51738">
        <ele>385.5</ele>
        <time>2022-09-28T11:29:09Z</time>
      </trkpt>
      <trkpt lat="46.51776" lon="6.51742">
        <ele>385.6</ele>
        <time>2022-09-28T11:29:10Z</time>
      </trkpt>
      <trkpt lat="46.51777" lon="6.51747">
        <ele>385.8</ele>
        <time>2022-09-28T11:29:11Z</time>
      </trkpt>
      <trkpt lat="46.51777" lon="6.51753">
        <ele>385.9</ele>
        <time>2022-09-28T11:29:12Z</time>
      </trkpt>
      <trkpt lat="46.51777" lon="6.51757">
        <ele>386</ele>
        <time>2022-09-28T11:29:13Z</time>
      </trkpt>
      <trkpt lat="46.51778" lon="6.51762">
        <ele>386.1</ele>
        <time>2022-09-28T11:29:14Z</time>
      </trkpt>
      <trkpt lat="46.51778" lon="6.51764">
        <ele>386.1</ele>
        <time>2022-09-28T11:29:15Z</time>
      </trkpt>
      <trkpt lat="46.51779" lon="6.51768">
        <ele>386.2</ele>
        <time>2022-09-28T11:29:16Z</time>
      </trkpt>
      <trkpt lat="46.51779" lon="6.51772">
        <ele>386.3</ele>
        <time>2022-09-28T11:29:17Z</time>
      </trkpt>
      <trkpt lat="46.51779" lon="6.51778">
        <ele>386.4</ele>
        <time>2022-09-28T11:29:18Z</time>
      </trkpt>
      <trkpt lat="46.51779" lon="6.51782">
        <ele>386.5</ele>
        <time>2022-09-28T11:29:19Z</time>
      </trkpt>
      <trkpt lat="46.51779" lon="6.51787">
        <ele>386.6</ele>
        <time>2022-09-28T11:29:20Z</time>
      </trkpt>
      <trkpt lat="46.5178" lon="6.51793">
        <ele>386.8</ele>
        <time>2022-09-28T11:29:21Z</time>
      </trkpt>
      <trkpt lat="46.5178" lon="6.51795">
        <ele>386.8</ele>
        <time>2022-09-28T11:29:22Z</time>
      </trkpt>
      <trkpt lat="46.5178" lon="6.518">
        <ele>386.9</ele>
        <time>2022-09-28T11:29:23Z</time>
      </trkpt>
      <trkpt lat="46.5178" lon="6.51801">
        <ele>387</ele>
        <time>2022-09-28T11:29:24Z</time>
      </trkpt>
      <trkpt lat="46.5178" lon="6.51805">
        <ele>387.1</ele>
        <time>2022-09-28T11:29:25Z</time>
      </trkpt>
      <trkpt lat="46.51781" lon="6.51811">
        <ele>387.2</ele>
        <time>2022-09-28T11:29:26Z</time>
      </trkpt>
      <trkpt lat="46.51781" lon="6.51813">
        <ele>387.3</ele>
        <time>2022-09-28T11:29:27Z</time>
      </trkpt>
      <trkpt lat="46.51781" lon="6.51817">
        <ele>387.4</ele>
        <time>2022-09-28T11:29:28Z</time>
      </trkpt>
      <trkpt lat="46.51782" lon="6.51821">
        <ele>387.5</ele>
        <time>2022-09-28T11:29:29Z</time>
      </trkpt>
      <trkpt lat="46.51782" lon="6.51827">
        <ele>387.6</ele>
        <time>2022-09-28T11:29:30Z</time>
      </trkpt>
      <trkpt lat="46.51782" lon="6.5183">
        <ele>387.7</ele>
        <time>2022-09-28T11:29:31Z</time>
      </trkpt>
      <trkpt lat="46.51783" lon="6.51833">
        <ele>387.8</ele>
        <time>2022-09-28T11:29:32Z</time>
      </trkpt>
      <trkpt lat="46.51783" lon="6.51837">
        <ele>387.8</ele>
        <time>2022-09-28T11:29:33Z</time>
      </trkpt>
      <trkpt lat="46.51784" lon="6.51842">
        <ele>387.9</ele>
        <time>2022-09-28T11:29:34Z</time>
      </trkpt>
      <trkpt lat="46.51784" lon="6.51847">
        <ele>388.1</ele>
        <time>2022-09-28T11:29:35Z</time>
      </trkpt>
      <trkpt lat="46.51784" lon="6.51849">
        <ele>388.1</ele>
        <time>2022-09-28T11:29:36Z</time>
      </trkpt>
      <trkpt lat="46.51785" lon="6.51855">
        <ele>388.2</ele>
        <time>2022-09-28T11:29:37Z</time>
      </trkpt>
      <trkpt lat="46.51785" lon="6.51858">
        <ele>388.2</ele>
        <time>2022-09-28T11:29:38Z</time>
      </trkpt>
      <trkpt lat="46.51785" lon="6.51863">
        <ele>388.3</ele>
        <time>2022-09-28T11:29:39Z</time>
      </trkpt>
      <trkpt lat="46.51784" lon="6.51865">
        <ele>388.3</ele>
        <time>2022-09-28T11:29:40Z</time>
      </trkpt>
      <trkpt lat="46.51784" lon="6.5187">
        <ele>388.4</ele>
        <time>2022-09-28T11:29:41Z</time>
      </trkpt>
      <trkpt lat="46.51785" lon="6.51874">
        <ele>388.5</ele>
        <time>2022-09-28T11:29:42Z</time>
      </trkpt>
      <trkpt lat="46.51785" lon="6.51879">
        <ele>388.6</ele>
        <time>2022-09-28T11:29:43Z</time>
      </trkpt>
      <trkpt lat="46.51784" lon="6.5188">
        <ele>388.6</ele>
        <time>2022-09-28T11:29:44Z</time>
      </trkpt>
      <trkpt lat="46.51784" lon="6.51884">
        <ele>388.7</ele>
        <time>2022-09-28T11:29:45Z</time>
      </trkpt>
      <trkpt lat="46.51785" lon="6.51888">
        <ele>388.8</ele>
        <time>2022-09-28T11:29:46Z</time>
      </trkpt>
      <trkpt lat="46.51784" lon="6.51894">
        <ele>388.9</ele>
        <time>2022-09-28T11:29:47Z</time>
      </trkpt>
      <trkpt lat="46.51784" lon="6.51896">
        <ele>389</ele>
        <time>2022-09-28T11:29:48Z</time>
      </trkpt>
      <trkpt lat="46.51784" lon="6.519">
        <ele>389.1</ele>
        <time>2022-09-28T11:29:49Z</time>
      </trkpt>
      <trkpt lat="46.51784" lon="6.51905">
        <ele>389.2</ele>
        <time>2022-09-28T11:29:50Z</time>
      </trkpt>
      <trkpt lat="46.51784" lon="6.51909">
        <ele>389.3</ele>
        <time>2022-09-28T11:29:51Z</time>
      </trkpt>
      <trkpt lat="46.51785" lon="6.51914">
        <ele>389.3</ele>
        <time>2022-09-28T11:29:52Z</time>
      </trkpt>
      <trkpt lat="46.51785" lon="6.51918">
        <ele>389.4</ele>
        <time>2022-09-28T11:29:53Z</time>
      </trkpt>
      <trkpt lat="46.51785" lon="6.51922">
        <ele>389.5</ele>
        <time>2022-09-28T11:29:54Z</time>
      </trkpt>
      <trkpt lat="46.51785" lon="6.51927">
        <ele>389.6</ele>
        <time>2022-09-28T11:29:55Z</time>
      </trkpt>
      <trkpt lat="46.51785" lon="6.51931">
        <ele>389.7</ele>
        <time>2022-09-28T11:29:56Z</time>
      </trkpt>
      <trkpt lat="46.51785" lon="6.51937">
        <ele>389.8</ele>
        <time>2022-09-28T11:29:57Z</time>
      </trkpt>
      <trkpt lat="46.51785" lon="6.51939">
        <ele>389.8</ele>
        <time>2022-09-28T11:29:58Z</time>
      </trkpt>
      <trkpt lat="46.51785" lon="6.51943">
        <ele>389.9</ele>
        <time>2022-09-28T11:29:59Z</time>
      </trkpt>
      <trkpt lat="46.51785" lon="6.51949">
        <ele>390</ele>
        <time>2022-09-28T11:30:00Z</time>
      </trkpt>
      <trkpt lat="46.51785" lon="6.51951">
        <ele>390</ele>
        <time>2022-09-28T11:30:01Z</time>
      </trkpt>
      <trkpt lat="46.51785" lon="6.51957">
        <ele>390.1</ele>
        <time>2022-09-28T11:30:02Z</time>
      </trkpt>
      <trkpt lat="46.51785" lon="6.51959">
        <ele>390.2</ele>
        <time>2022-09-28T11:30:03Z</time>
      </trkpt>
      <trkpt lat="46.51785" lon="6.51964">
        <ele>390.2</ele>
        <time>2022-09-28T11:30:04Z</time>
      </trkpt>
      <trkpt lat="46.51785" lon="6.51966">
        <ele>390.3</ele>
        <time>2022-09-28T11:30:05Z</time>
      </trkpt>
      <trkpt lat="46.51785" lon="6.5197">
        <ele>390.3</ele>
        <time>2022-09-28T11:30:06Z</time>
      </trkpt>
      <trkpt lat="46.51784" lon="6.51975">
        <ele>390.4</ele>
        <time>2022-09-28T11:30:07Z</time>
      </trkpt>
      <trkpt lat="46.51784" lon="6.51979">
        <ele>390.4</ele>
        <time>2022-09-28T11:30:08Z</time>
      </trkpt>
      <trkpt lat="46.51784" lon="6.51983">
        <ele>390.5</ele>
        <time>2022-09-28T11:30:09Z</time>
      </trkpt>
      <trkpt lat="46.51784" lon="6.51988">
        <ele>390.6</ele>
        <time>2022-09-28T11:30:10Z</time>
      </trkpt>
      <trkpt lat="46.51784" lon="6.51991">
        <ele>390.6</ele>
        <time>2022-09-28T11:30:11Z</time>
      </trkpt>
      <trkpt lat="46.51783" lon="6.51997">
        <ele>390.7</ele>
        <time>2022-09-28T11:30:12Z</time>
      </trkpt>
      <trkpt lat="46.51783" lon="6.51999">
        <ele>390.7</ele>
        <time>2022-09-28T11:30:13Z</time>
      </trkpt>
      <trkpt lat="46.51783" lon="6.52005">
        <ele>390.8</ele>
        <time>2022-09-28T11:30:14Z</time>
      </trkpt>
      <trkpt lat="46.51783" lon="6.52006">
        <ele>390.8</ele>
        <time>2022-09-28T11:30:15Z</time>
      </trkpt>
      <trkpt lat="46.51783" lon="6.52012">
        <ele>390.9</ele>
        <time>2022-09-28T11:30:16Z</time>
      </trkpt>
      <trkpt lat="46.51783" lon="6.52014">
        <ele>390.9</ele>
        <time>2022-09-28T11:30:17Z</time>
      </trkpt>
      <trkpt lat="46.51783" lon="6.5202">
        <ele>390.9</ele>
        <time>2022-09-28T11:30:18Z</time>
      </trkpt>
      <trkpt lat="46.51783" lon="6.52021">
        <ele>391</ele>
        <time>2022-09-28T11:30:19Z</time>
      </trkpt>
      <trkpt lat="46.51782" lon="6.52027">
        <ele>391</ele>
        <time>2022-09-28T11:30:20Z</time>
      </trkpt>
      <trkpt lat="46.51782" lon="6.52029">
        <ele>391.1</ele>
        <time>2022-09-28T11:30:21Z</time>
      </trkpt>
      <trkpt lat="46.51782" lon="6.52034">
        <ele>391.1</ele>
        <time>2022-09-28T11:30:22Z</time>
      </trkpt>
      <trkpt lat="46.51782" lon="6.52036">
        <ele>391.2</ele>
        <time>2022-09-28T11:30:23Z</time>
      </trkpt>
      <trkpt lat="46.51782" lon="6.52042">
        <ele>391.3</ele>
        <time>2022-09-28T11:30:24Z</time>
      </trkpt>
      <trkpt lat="46.51782" lon="6.52043">
        <ele>391.3</ele>
        <time>2022-09-28T11:30:25Z</time>
      </trkpt>
      <trkpt lat="46.51782" lon="6.52049">
        <ele>391.4</ele>
        <time>2022-09-28T11:30:26Z</time>
      </trkpt>
      <trkpt lat="46.51782" lon="6.5205">
        <ele>391.4</ele>
        <time>2022-09-28T11:30:27Z</time>
      </trkpt>
      <trkpt lat="46.51781" lon="6.52056">
        <ele>391.5</ele>
        <time>2022-09-28T11:30:28Z</time>
      </trkpt>
      <trkpt lat="46.51781" lon="6.52058">
        <ele>391.6</ele>
        <time>2022-09-28T11:30:29Z</time>
      </trkpt>
      <trkpt lat="46.51781" lon="6.52063">
        <ele>391.7</ele>
        <time>2022-09-28T11:30:30Z</time>
      </trkpt>
      <trkpt lat="46.51781" lon="6.52065">
        <ele>391.7</ele>
        <time>2022-09-28T11:30:31Z</time>
      </trkpt>
      <trkpt lat="46.51781" lon="6.5207">
        <ele>391.8</ele>
        <time>2022-09-28T11:30:32Z</time>
      </trkpt>
      <trkpt lat="46.51781" lon="6.52072">
        <ele>391.9</ele>
        <time>2022-09-28T11:30:33Z</time>
      </trkpt>
      <trkpt lat="46.5178" lon="6.52077">
        <ele>392</ele>
        <time>2022-09-28T11:30:34Z</time>
      </trkpt>
      <trkpt lat="46.5178" lon="6.52078">
        <ele>392</ele>
        <time>2022-09-28T11:30:35Z</time>
      </trkpt>
      <trkpt lat="46.5178" lon="6.52084">
        <ele>392.1</ele>
        <time>2022-09-28T11:30:36Z</time>
      </trkpt>
      <trkpt lat="46.5178" lon="6.52086">
        <ele>392.1</ele>
        <time>2022-09-28T11:30:37Z</time>
      </trkpt>
      <trkpt lat="46.5178" lon="6.52091">
        <ele>392.2</ele>
        <time>2022-09-28T11:30:38Z</time>
      </trkpt>
      <trkpt lat="46.5178" lon="6.52093">
        <ele>392.3</ele>
        <time>2022-09-28T11:30:39Z</time>
      </trkpt>
      <trkpt lat="46.51779" lon="6.52097">
        <ele>392.4</ele>
        <time>2022-09-28T11:30:40Z</time>
      </trkpt>
      <trkpt lat="46.51779" lon="6.52103">
        <ele>392.5</ele>
        <time>2022-09-28T11:30:41Z</time>
      </trkpt>
      <trkpt lat="46.51779" lon="6.52105">
        <ele>392.5</ele>
        <time>2022-09-28T11:30:42Z</time>
      </trkpt>
      <trkpt lat="46.51778" lon="6.5211">
        <ele>392.6</ele>
        <time>2022-09-28T11:30:43Z</time>
      </trkpt>
      <trkpt lat="46.51778" lon="6.52112">
        <ele>392.7</ele>
        <time>2022-09-28T11:30:44Z</time>
      </trkpt>
      <trkpt lat="46.51778" lon="6.52118">
        <ele>392.8</ele>
        <time>2022-09-28T11:30:45Z</time>
      </trkpt>
      <trkpt lat="46.51778" lon="6.52119">
        <ele>392.8</ele>
        <time>2022-09-28T11:30:46Z</time>
      </trkpt>
      <trkpt lat="46.51778" lon="6.52125">
        <ele>393</ele>
        <time>2022-09-28T11:30:47Z</time>
      </trkpt>
      <trkpt lat="46.51778" lon="6.52127">
        <ele>393</ele>
        <time>2022-09-28T11:30:48Z</time>
      </trkpt>
      <trkpt lat="46.51777" lon="6.52133">
        <ele>393.1</ele>
        <time>2022-09-28T11:30:49Z</time>
      </trkpt>
      <trkpt lat="46.51777" lon="6.52135">
        <ele>393.2</ele>
        <time>2022-09-28T11:30:50Z</time>
      </trkpt>
      <trkpt lat="46.51777" lon="6.5214">
        <ele>393.3</ele>
        <time>2022-09-28T11:30:51Z</time>
      </trkpt>
      <trkpt lat="46.51777" lon="6.52142">
        <ele>393.4</ele>
        <time>2022-09-28T11:30:52Z</time>
      </trkpt>
      <trkpt lat="46.51777" lon="6.52148">
        <ele>393.5</ele>
        <time>2022-09-28T11:30:53Z</time>
      </trkpt>
      <trkpt lat="46.51777" lon="6.52149">
        <ele>393.5</ele>
        <time>2022-09-28T11:30:54Z</time>
      </trkpt>
      <trkpt lat="46.51776" lon="6.52155">
        <ele>393.7</ele>
        <time>2022-09-28T11:30:55Z</time>
      </trkpt>
      <trkpt lat="46.51776" lon="6.52157">
        <ele>393.7</ele>
        <time>2022-09-28T11:30:56Z</time>
      </trkpt>
      <trkpt lat="46.51776" lon="6.52162">
        <ele>393.9</ele>
        <time>2022-09-28T11:30:57Z</time>
      </trkpt>
      <trkpt lat="46.51776" lon="6.52164">
        <ele>393.9</ele>
        <time>2022-09-28T11:30:58Z</time>
      </trkpt>
      <trkpt lat="46.51775" lon="6.5217">
        <ele>394</ele>
        <time>2022-09-28T11:30:59Z</time>
      </trkpt>
      <trkpt lat="46.51775" lon="6.52171">
        <ele>394.1</ele>
        <time>2022-09-28T11:31:00Z</time>
      </trkpt>
      <trkpt lat="46.51775" lon="6.52177">
        <ele>394.2</ele>
        <time>2022-09-28T11:31:01Z</time>
      </trkpt>
      <trkpt lat="46.51775" lon="6.52178">
        <ele>394.3</ele>
        <time>2022-09-28T11:31:02Z</time>
      </trkpt>
      <trkpt lat="46.51775" lon="6.52184">
        <ele>394.4</ele>
        <time>2022-09-28T11:31:03Z</time>
      </trkpt>
      <trkpt lat="46.51775" lon="6.52186">
        <ele>394.5</ele>
        <time>2022-09-28T11:31:04Z</time>
      </trkpt>
      <trkpt lat="46.51774" lon="6.52191">
        <ele>394.6</ele>
        <time>2022-09-28T11:31:05Z</time>
      </trkpt>
      <trkpt lat="46.51774" lon="6.52192">
        <ele>394.7</ele>
        <time>2022-09-28T11:31:06Z</time>
      </trkpt>
      <trkpt lat="46.51774" lon="6.52198">
        <ele>394.9</ele>
        <time>2022-09-28T11:31:07Z</time>
      </trkpt>
      <trkpt lat="46.51774" lon="6.52199">
        <ele>394.9</ele>
        <time>2022-09-28T11:31:08Z</time>
      </trkpt>
      <trkpt lat="46.51774" lon="6.52204">
        <ele>395.1</ele>
        <time>2022-09-28T11:31:09Z</time>
      </trkpt>
      <trkpt lat="46.51774" lon="6.52206">
        <ele>395.1</ele>
        <time>2022-09-28T11:31:10Z</time>
      </trkpt>
      <trkpt lat="46.51774" lon="6.52211">
        <ele>395.3</ele>
        <time>2022-09-28T11:31:11Z</time>
      </trkpt>
      <trkpt lat="46.51774" lon="6.52213">
        <ele>395.3</ele>
        <time>2022-09-28T11:31:12Z</time>
      </trkpt>
      <trkpt lat="46.51774" lon="6.52217">
        <ele>395.5</ele>
        <time>2022-09-28T11:31:13Z</time>
      </trkpt>
      <trkpt lat="46.51774" lon="6.52219">
        <ele>395.6</ele>
        <time>2022-09-28T11:31:14Z</time>
      </trkpt>
      <trkpt lat="46.51773" lon="6.52225">
        <ele>395.8</ele>
        <time>2022-09-28T11:31:15Z</time>
      </trkpt>
      <trkpt lat="46.51773" lon="6.52227">
        <ele>395.9</ele>
        <time>2022-09-28T11:31:16Z</time>
      </trkpt>
      <trkpt lat="46.51773" lon="6.52231">
        <ele>396</ele>
        <time>2022-09-28T11:31:17Z</time>
      </trkpt>
      <trkpt lat="46.51773" lon="6.52235">
        <ele>396.2</ele>
        <time>2022-09-28T11:31:18Z</time>
      </trkpt>
      <trkpt lat="46.51773" lon="6.52237">
        <ele>396.2</ele>
        <time>2022-09-28T11:31:19Z</time>
      </trkpt>
      <trkpt lat="46.51773" lon="6.52239">
        <ele>396.3</ele>
        <time>2022-09-28T11:31:20Z</time>
      </trkpt>
      <trkpt lat="46.51772" lon="6.52242">
        <ele>396.4</ele>
        <time>2022-09-28T11:31:21Z</time>
      </trkpt>
      <trkpt lat="46.51772" lon="6.52247">
        <ele>396.6</ele>
        <time>2022-09-28T11:31:22Z</time>
      </trkpt>
      <trkpt lat="46.51772" lon="6.52249">
        <ele>396.7</ele>
        <time>2022-09-28T11:31:23Z</time>
      </trkpt>
      <trkpt lat="46.51772" lon="6.52254">
        <ele>396.9</ele>
        <time>2022-09-28T11:31:24Z</time>
      </trkpt>
      <trkpt lat="46.51771" lon="6.52255">
        <ele>396.9</ele>
        <time>2022-09-28T11:31:25Z</time>
      </trkpt>
      <trkpt lat="46.51771" lon="6.5226">
        <ele>397.1</ele>
        <time>2022-09-28T11:31:26Z</time>
      </trkpt>
      <trkpt lat="46.51771" lon="6.52262">
        <ele>397.2</ele>
        <time>2022-09-28T11:31:27Z</time>
      </trkpt>
      <trkpt lat="46.51771" lon="6.52266">
        <ele>397.4</ele>
        <time>2022-09-28T11:31:28Z</time>
      </trkpt>
      <trkpt lat="46.51771" lon="6.52272">
        <ele>397.6</ele>
        <time>2022-09-28T11:31:29Z</time>
      </trkpt>
      <trkpt lat="46.51771" lon="6.52274">
        <ele>397.7</ele>
        <time>2022-09-28T11:31:30Z</time>
      </trkpt>
      <trkpt lat="46.5177" lon="6.52278">
        <ele>397.8</ele>
        <time>2022-09-28T11:31:31Z</time>
      </trkpt>
      <trkpt lat="46.5177" lon="6.52279">
        <ele>397.9</ele>
        <time>2022-09-28T11:31:32Z</time>
      </trkpt>
      <trkpt lat="46.5177" lon="6.52285">
        <ele>398.1</ele>
        <time>2022-09-28T11:31:33Z</time>
      </trkpt>
      <trkpt lat="46.5177" lon="6.52287">
        <ele>398.2</ele>
        <time>2022-09-28T11:31:34Z</time>
      </trkpt>
      <trkpt lat="46.51769" lon="6.52292">
        <ele>398.4</ele>
        <time>2022-09-28T11:31:35Z</time>
      </trkpt>
      <trkpt lat="46.51769" lon="6.52294">
        <ele>398.5</ele>
        <time>2022-09-28T11:31:36Z</time>
      </trkpt>
      <trkpt lat="46.51769" lon="6.52299">
        <ele>398.7</ele>
        <time>2022-09-28T11:31:37Z</time>
      </trkpt>
      <trkpt lat="46.51769" lon="6.523">
        <ele>398.8</ele>
        <time>2022-09-28T11:31:38Z</time>
      </trkpt>
      <trkpt lat="46.51769" lon="6.52305">
        <ele>398.9</ele>
        <time>2022-09-28T11:31:39Z</time>
      </trkpt>
      <trkpt lat="46.51769" lon="6.52306">
        <ele>399</ele>
        <time>2022-09-28T11:31:40Z</time>
      </trkpt>
      <trkpt lat="46.51768" lon="6.52312">
        <ele>399.2</ele>
        <time>2022-09-28T11:31:41Z</time>
      </trkpt>
      <trkpt lat="46.51768" lon="6.52313">
        <ele>399.3</ele>
        <time>2022-09-28T11:31:42Z</time>
      </trkpt>
      <trkpt lat="46.51768" lon="6.52318">
        <ele>399.4</ele>
        <time>2022-09-28T11:31:43Z</time>
      </trkpt>
      <trkpt lat="46.51768" lon="6.52319">
        <ele>399.5</ele>
        <time>2022-09-28T11:31:44Z</time>
      </trkpt>
      <trkpt lat="46.51768" lon="6.52325">
        <ele>399.7</ele>
        <time>2022-09-28T11:31:45Z</time>
      </trkpt>
      <trkpt lat="46.51767" lon="6.52328">
        <ele>399.8</ele>
        <time>2022-09-28T11:31:46Z</time>
      </trkpt>
      <trkpt lat="46.51767" lon="6.52332">
        <ele>400</ele>
        <time>2022-09-28T11:31:47Z</time>
      </trkpt>
      <trkpt lat="46.51768" lon="6.52334">
        <ele>400.1</ele>
        <time>2022-09-28T11:31:48Z</time>
      </trkpt>
      <trkpt lat="46.51767" lon="6.52338">
        <ele>400.2</ele>
        <time>2022-09-28T11:31:49Z</time>
      </trkpt>
      <trkpt lat="46.51766" lon="6.52342">
        <ele>400.4</ele>
        <time>2022-09-28T11:31:50Z</time>
      </trkpt>
      <trkpt lat="46.51766" lon="6.52344">
        <ele>400.4</ele>
        <time>2022-09-28T11:31:51Z</time>
      </trkpt>
      <trkpt lat="46.51766" lon="6.52349">
        <ele>400.7</ele>
        <time>2022-09-28T11:31:52Z</time>
      </trkpt>
      <trkpt lat="46.51766" lon="6.5235">
        <ele>400.7</ele>
        <time>2022-09-28T11:31:53Z</time>
      </trkpt>
      <trkpt lat="46.51766" lon="6.52356">
        <ele>400.9</ele>
        <time>2022-09-28T11:31:54Z</time>
      </trkpt>
      <trkpt lat="46.51766" lon="6.52358">
        <ele>401</ele>
        <time>2022-09-28T11:31:55Z</time>
      </trkpt>
      <trkpt lat="46.51766" lon="6.52362">
        <ele>401.1</ele>
        <time>2022-09-28T11:31:56Z</time>
      </trkpt>
      <trkpt lat="46.51766" lon="6.52364">
        <ele>401.2</ele>
        <time>2022-09-28T11:31:57Z</time>
      </trkpt>
      <trkpt lat="46.51766" lon="6.52368">
        <ele>401.3</ele>
        <time>2022-09-28T11:31:58Z</time>
      </trkpt>
      <trkpt lat="46.51766" lon="6.5237">
        <ele>401.3</ele>
        <time>2022-09-28T11:31:59Z</time>
      </trkpt>
      <trkpt lat="46.51766" lon="6.52375">
        <ele>401.5</ele>
        <time>2022-09-28T11:32:00Z</time>
      </trkpt>
      <trkpt lat="46.51765" lon="6.52376">
        <ele>401.5</ele>
        <time>2022-09-28T11:32:01Z</time>
      </trkpt>
      <trkpt lat="46.51764" lon="6.52381">
        <ele>401.7</ele>
        <time>2022-09-28T11:32:02Z</time>
      </trkpt>
      <trkpt lat="46.51764" lon="6.52383">
        <ele>401.7</ele>
        <time>2022-09-28T11:32:03Z</time>
      </trkpt>
      <trkpt lat="46.51763" lon="6.52385">
        <ele>401.8</ele>
        <time>2022-09-28T11:32:04Z</time>
      </trkpt>
      <trkpt lat="46.51763" lon="6.52388">
        <ele>401.9</ele>
        <time>2022-09-28T11:32:05Z</time>
      </trkpt>
      <trkpt lat="46.51763" lon="6.52393">
        <ele>402.1</ele>
        <time>2022-09-28T11:32:06Z</time>
      </trkpt>
      <trkpt lat="46.51763" lon="6.52395">
        <ele>402.1</ele>
        <time>2022-09-28T11:32:07Z</time>
      </trkpt>
      <trkpt lat="46.51763" lon="6.52397">
        <ele>402.2</ele>
        <time>2022-09-28T11:32:08Z</time>
      </trkpt>
      <trkpt lat="46.51762" lon="6.52399">
        <ele>402.3</ele>
        <time>2022-09-28T11:32:09Z</time>
      </trkpt>
      <trkpt lat="46.51762" lon="6.52404">
        <ele>402.5</ele>
        <time>2022-09-28T11:32:10Z</time>
      </trkpt>
      <trkpt lat="46.51762" lon="6.52405">
        <ele>402.5</ele>
        <time>2022-09-28T11:32:11Z</time>
      </trkpt>
      <trkpt lat="46.51762" lon="6.52409">
        <ele>402.7</ele>
        <time>2022-09-28T11:32:12Z</time>
      </trkpt>
      <trkpt lat="46.51762" lon="6.52411">
        <ele>402.7</ele>
        <time>2022-09-28T11:32:13Z</time>
      </trkpt>
      <trkpt lat="46.51762" lon="6.52415">
        <ele>402.9</ele>
        <time>2022-09-28T11:32:14Z</time>
      </trkpt>
      <trkpt lat="46.51762" lon="6.52416">
        <ele>402.9</ele>
        <time>2022-09-28T11:32:15Z</time>
      </trkpt>
      <trkpt lat="46.51762" lon="6.52419">
        <ele>403</ele>
        <time>2022-09-28T11:32:16Z</time>
      </trkpt>
      <trkpt lat="46.51762" lon="6.52421">
        <ele>403.1</ele>
        <time>2022-09-28T11:32:17Z</time>
      </trkpt>
      <trkpt lat="46.51762" lon="6.52423">
        <ele>403.2</ele>
        <time>2022-09-28T11:32:18Z</time>
      </trkpt>
      <trkpt lat="46.51762" lon="6.52426">
        <ele>403.3</ele>
        <time>2022-09-28T11:32:19Z</time>
      </trkpt>
      <trkpt lat="46.51762" lon="6.52431">
        <ele>403.5</ele>
        <time>2022-09-28T11:32:20Z</time>
      </trkpt>
      <trkpt lat="46.51762" lon="6.52433">
        <ele>403.5</ele>
        <time>2022-09-28T11:32:21Z</time>
      </trkpt>
      <trkpt lat="46.51761" lon="6.52437">
        <ele>403.7</ele>
        <time>2022-09-28T11:32:22Z</time>
      </trkpt>
      <trkpt lat="46.51761" lon="6.52439">
        <ele>403.7</ele>
        <time>2022-09-28T11:32:23Z</time>
      </trkpt>
      <trkpt lat="46.51762" lon="6.52441">
        <ele>403.8</ele>
        <time>2022-09-28T11:32:24Z</time>
      </trkpt>
      <trkpt lat="46.51761" lon="6.52444">
        <ele>403.9</ele>
        <time>2022-09-28T11:32:25Z</time>
      </trkpt>
      <trkpt lat="46.51761" lon="6.52449">
        <ele>404</ele>
        <time>2022-09-28T11:32:26Z</time>
      </trkpt>
      <trkpt lat="46.51761" lon="6.5245">
        <ele>404.1</ele>
        <time>2022-09-28T11:32:27Z</time>
      </trkpt>
      <trkpt lat="46.5176" lon="6.52455">
        <ele>404.2</ele>
        <time>2022-09-28T11:32:28Z</time>
      </trkpt>
      <trkpt lat="46.5176" lon="6.52457">
        <ele>404.2</ele>
        <time>2022-09-28T11:32:29Z</time>
      </trkpt>
      <trkpt lat="46.5176" lon="6.52462">
        <ele>404.3</ele>
        <time>2022-09-28T11:32:30Z</time>
      </trkpt>
      <trkpt lat="46.5176" lon="6.52463">
        <ele>404.3</ele>
        <time>2022-09-28T11:32:31Z</time>
      </trkpt>
      <trkpt lat="46.5176" lon="6.52469">
        <ele>404.4</ele>
        <time>2022-09-28T11:32:32Z</time>
      </trkpt>
      <trkpt lat="46.51759" lon="6.52471">
        <ele>404.4</ele>
        <time>2022-09-28T11:32:33Z</time>
      </trkpt>
      <trkpt lat="46.51759" lon="6.52476">
        <ele>404.4</ele>
        <time>2022-09-28T11:32:34Z</time>
      </trkpt>
      <trkpt lat="46.51759" lon="6.52478">
        <ele>404.4</ele>
        <time>2022-09-28T11:32:35Z</time>
      </trkpt>
      <trkpt lat="46.51758" lon="6.52481">
        <ele>404.5</ele>
        <time>2022-09-28T11:32:36Z</time>
      </trkpt>
      <trkpt lat="46.51757" lon="6.52485">
        <ele>404.5</ele>
        <time>2022-09-28T11:32:37Z</time>
      </trkpt>
      <trkpt lat="46.51757" lon="6.52487">
        <ele>404.6</ele>
        <time>2022-09-28T11:32:38Z</time>
      </trkpt>
      <trkpt lat="46.51755" lon="6.52491">
        <ele>404.6</ele>
        <time>2022-09-28T11:32:39Z</time>
      </trkpt>
      <trkpt lat="46.51754" lon="6.52493">
        <ele>404.7</ele>
        <time>2022-09-28T11:32:40Z</time>
      </trkpt>
      <trkpt lat="46.51752" lon="6.52497">
        <ele>404.8</ele>
        <time>2022-09-28T11:32:41Z</time>
      </trkpt>
      <trkpt lat="46.5175" lon="6.525">
        <ele>404.9</ele>
        <time>2022-09-28T11:32:42Z</time>
      </trkpt>
      <trkpt lat="46.51749" lon="6.52506">
        <ele>405</ele>
        <time>2022-09-28T11:32:43Z</time>
      </trkpt>
      <trkpt lat="46.51749" lon="6.52508">
        <ele>405</ele>
        <time>2022-09-28T11:32:44Z</time>
      </trkpt>
      <trkpt lat="46.51748" lon="6.52512">
        <ele>405.1</ele>
        <time>2022-09-28T11:32:45Z</time>
      </trkpt>
      <trkpt lat="46.51749" lon="6.52517">
        <ele>405.1</ele>
        <time>2022-09-28T11:32:46Z</time>
      </trkpt>
      <trkpt lat="46.51749" lon="6.52521">
        <ele>405.2</ele>
        <time>2022-09-28T11:32:47Z</time>
      </trkpt>
      <trkpt lat="46.51749" lon="6.52525">
        <ele>405.2</ele>
        <time>2022-09-28T11:32:48Z</time>
      </trkpt>
      <trkpt lat="46.5175" lon="6.5253">
        <ele>405.2</ele>
        <time>2022-09-28T11:32:49Z</time>
      </trkpt>
      <trkpt lat="46.5175" lon="6.52532">
        <ele>405.3</ele>
        <time>2022-09-28T11:32:50Z</time>
      </trkpt>
      <trkpt lat="46.5175" lon="6.52536">
        <ele>405.3</ele>
        <time>2022-09-28T11:32:51Z</time>
      </trkpt>
      <trkpt lat="46.51749" lon="6.52541">
        <ele>405.3</ele>
        <time>2022-09-28T11:32:52Z</time>
      </trkpt>
      <trkpt lat="46.51748" lon="6.52546">
        <ele>405.3</ele>
        <time>2022-09-28T11:32:53Z</time>
      </trkpt>
      <trkpt lat="46.51747" lon="6.52551">
        <ele>405.3</ele>
        <time>2022-09-28T11:32:54Z</time>
      </trkpt>
      <trkpt lat="46.51746" lon="6.52557">
        <ele>405.3</ele>
        <time>2022-09-28T11:32:55Z</time>
      </trkpt>
      <trkpt lat="46.51744" lon="6.52561">
        <ele>405.3</ele>
        <time>2022-09-28T11:32:56Z</time>
      </trkpt>
      <trkpt lat="46.51744" lon="6.52566">
        <ele>405.3</ele>
        <time>2022-09-28T11:32:57Z</time>
      </trkpt>
      <trkpt lat="46.51743" lon="6.52572">
        <ele>405.2</ele>
        <time>2022-09-28T11:32:58Z</time>
      </trkpt>
      <trkpt lat="46.51741" lon="6.52578">
        <ele>405.2</ele>
        <time>2022-09-28T11:32:59Z</time>
      </trkpt>
      <trkpt lat="46.5174" lon="6.52584">
        <ele>405.2</ele>
        <time>2022-09-28T11:33:00Z</time>
      </trkpt>
      <trkpt lat="46.51739" lon="6.5259">
        <ele>405.1</ele>
        <time>2022-09-28T11:33:01Z</time>
      </trkpt>
      <trkpt lat="46.51738" lon="6.52595">
        <ele>405.1</ele>
        <time>2022-09-28T11:33:02Z</time>
      </trkpt>
      <trkpt lat="46.51737" lon="6.526">
        <ele>405.1</ele>
        <time>2022-09-28T11:33:03Z</time>
      </trkpt>
      <trkpt lat="46.51736" lon="6.52606">
        <ele>405</ele>
        <time>2022-09-28T11:33:04Z</time>
      </trkpt>
      <trkpt lat="46.51735" lon="6.52611">
        <ele>405</ele>
        <time>2022-09-28T11:33:05Z</time>
      </trkpt>
      <trkpt lat="46.51734" lon="6.52616">
        <ele>405</ele>
        <time>2022-09-28T11:33:06Z</time>
      </trkpt>
      <trkpt lat="46.51734" lon="6.52618">
        <ele>405</ele>
        <time>2022-09-28T11:33:07Z</time>
      </trkpt>
      <trkpt lat="46.51734" lon="6.52618">
        <ele>405</ele>
        <time>2022-09-28T11:33:08Z</time>
      </trkpt>
      <trkpt lat="46.51734" lon="6.52619">
        <ele>405</ele>
        <time>2022-09-28T11:33:09Z</time>
      </trkpt>
      <trkpt lat="46.51734" lon="6.5262">
        <ele>405</ele>
        <time>2022-09-28T11:33:10Z</time>
      </trkpt>
      <trkpt lat="46.51734" lon="6.52618">
        <ele>405.1</ele>
        <time>2022-09-28T11:33:11Z</time>
      </trkpt>
      <trkpt lat="46.51733" lon="6.52619">
        <ele>405.1</ele>
        <time>2022-09-28T11:33:12Z</time>
      </trkpt>
      <trkpt lat="46.51733" lon="6.52619">
        <ele>405.1</ele>
        <time>2022-09-28T11:33:13Z</time>
      </trkpt>
      <trkpt lat="46.51732" lon="6.52619">
        <ele>405.1</ele>
        <time>2022-09-28T11:33:14Z</time>
      </trkpt>
      <trkpt lat="46.51733" lon="6.52619">
        <ele>405.1</ele>
        <time>2022-09-28T11:33:15Z</time>
      </trkpt>
      <trkpt lat="46.51734" lon="6.52622">
        <ele>405.1</ele>
        <time>2022-09-28T11:33:16Z</time>
      </trkpt>
      <trkpt lat="46.51734" lon="6.52622">
        <ele>405.1</ele>
        <time>2022-09-28T11:33:17Z</time>
      </trkpt>
      <trkpt lat="46.51732" lon="6.52623">
        <ele>405.1</ele>
        <time>2022-09-28T11:33:18Z</time>
      </trkpt>
      <trkpt lat="46.51734" lon="6.52623">
        <ele>405.1</ele>
        <time>2022-09-28T11:33:19Z</time>
      </trkpt>
      <trkpt lat="46.51733" lon="6.52623">
        <ele>405.1</ele>
        <time>2022-09-28T11:33:20Z</time>
      </trkpt>
      <trkpt lat="46.51734" lon="6.52623">
        <ele>405.1</ele>
        <time>2022-09-28T11:33:21Z</time>
      </trkpt>
      <trkpt lat="46.51734" lon="6.52623">
        <ele>405.1</ele>
        <time>2022-09-28T11:33:22Z</time>
      </trkpt>
      <trkpt lat="46.51735" lon="6.52624">
        <ele>405.1</ele>
        <time>2022-09-28T11:33:23Z</time>
      </trkpt>
      <trkpt lat="46.51735" lon="6.52623">
        <ele>405.1</ele>
        <time>2022-09-28T11:33:24Z</time>
      </trkpt>
      <trkpt lat="46.51735" lon="6.52623">
        <ele>405.1</ele>
        <time>2022-09-28T11:33:25Z</time>
      </trkpt>
      <trkpt lat="46.51736" lon="6.52623">
        <ele>405.1</ele>
        <time>2022-09-28T11:33:26Z</time>
      </trkpt>
      <trkpt lat="46.51736" lon="6.52623">
        <ele>405.1</ele>
        <time>2022-09-28T11:33:27Z</time>
      </trkpt>
      <trkpt lat="46.51736" lon="6.52623">
        <ele>405.1</ele>
        <time>2022-09-28T11:33:28Z</time>
      </trkpt>
      <trkpt lat="46.51736" lon="6.52623">
        <ele>405.1</ele>
        <time>2022-09-28T11:37:01Z</time>
      </trkpt>
      <trkpt lat="46.51736" lon="6.52623">
        <ele>405.1</ele>
        <time>2022-09-28T11:37:02Z</time>
      </trkpt>
      <trkpt lat="46.51736" lon="6.52622">
        <ele>405.1</ele>
        <time>2022-09-28T11:37:03Z</time>
      </trkpt>
      <trkpt lat="46.51736" lon="6.52622">
        <ele>405.1</ele>
        <time>2022-09-28T11:37:04Z</time>
      </trkpt>
      <trkpt lat="46.51736" lon="6.52622">
        <ele>405.1</ele>
        <time>2022-09-28T11:37:05Z</time>
      </trkpt>
      <trkpt lat="46.51737" lon="6.52622">
        <ele>405.1</ele>
        <time>2022-09-28T11:37:06Z</time>
      </trkpt>
      <trkpt lat="46.51737" lon="6.52622">
        <ele>405.1</ele>
        <time>2022-09-28T11:37:07Z</time>
      </trkpt>
      <trkpt lat="46.51737" lon="6.52622">
        <ele>405.1</ele>
        <time>2022-09-28T11:37:08Z</time>
      </trkpt>
      <trkpt lat="46.51737" lon="6.52621">
        <ele>405.1</ele>
        <time>2022-09-28T11:37:09Z</time>
      </trkpt>
      <trkpt lat="46.51737" lon="6.52621">
        <ele>405.1</ele>
        <time>2022-09-28T11:37:10Z</time>
      </trkpt>
      <trkpt lat="46.51737" lon="6.52621">
        <ele>405.1</ele>
        <time>2022-09-28T11:37:11Z</time>
      </trkpt>
      <trkpt lat="46.51737" lon="6.52621">
        <ele>405.1</ele>
        <time>2022-09-28T11:37:12Z</time>
      </trkpt>
      <trkpt lat="46.51737" lon="6.52621">
        <ele>405.1</ele>
        <time>2022-09-28T11:37:13Z</time>
      </trkpt>
      <trkpt lat="46.51737" lon="6.52621">
        <ele>405.1</ele>
        <time>2022-09-28T11:37:14Z</time>
      </trkpt>
      <trkpt lat="46.51738" lon="6.52621">
        <ele>405.1</ele>
        <time>2022-09-28T11:37:15Z</time>
      </trkpt>
      <trkpt lat="46.51738" lon="6.5262">
        <ele>405.1</ele>
        <time>2022-09-28T11:37:16Z</time>
      </trkpt>
      <trkpt lat="46.51738" lon="6.5262">
        <ele>405.1</ele>
        <time>2022-09-28T11:37:17Z</time>
      </trkpt>
      <trkpt lat="46.51738" lon="6.5262">
        <ele>405.1</ele>
        <time>2022-09-28T11:37:18Z</time>
      </trkpt>
      <trkpt lat="46.51738" lon="6.5262">
        <ele>405.1</ele>
        <time>2022-09-28T11:37:19Z</time>
      </trkpt>
      <trkpt lat="46.51738" lon="6.5262">
        <ele>405.1</ele>
        <time>2022-09-28T11:37:20Z</time>
      </trkpt>
      <trkpt lat="46.51738" lon="6.5262">
        <ele>405.1</ele>
        <time>2022-09-28T11:37:21Z</time>
      </trkpt>
      <trkpt lat="46.51738" lon="6.5262">
        <ele>405.1</ele>
        <time>2022-09-28T11:37:22Z</time>
      </trkpt>
      <trkpt lat="46.51739" lon="6.52619">
        <ele>405.1</ele>
        <time>2022-09-28T11:37:23Z</time>
      </trkpt>
      <trkpt lat="46.51739" lon="6.52619">
        <ele>405.1</ele>
        <time>2022-09-28T11:37:24Z</time>
      </trkpt>
      <trkpt lat="46.51739" lon="6.52619">
        <ele>405.1</ele>
        <time>2022-09-28T11:37:25Z</time>
      </trkpt>
      <trkpt lat="46.51739" lon="6.52619">
        <ele>405.1</ele>
        <time>2022-09-28T11:37:26Z</time>
      </trkpt>
      <trkpt lat="46.51739" lon="6.52619">
        <ele>405.1</ele>
        <time>2022-09-28T11:37:27Z</time>
      </trkpt>
      <trkpt lat="46.51739" lon="6.52619">
        <ele>405.1</ele>
        <time>2022-09-28T11:37:28Z</time>
      </trkpt>
      <trkpt lat="46.51739" lon="6.52619">
        <ele>405.1</ele>
        <time>2022-09-28T11:37:46Z</time>
      </trkpt>
      <trkpt lat="46.51739" lon="6.52618">
        <ele>405.1</ele>
        <time>2022-09-28T11:37:47Z</time>
      </trkpt>
      <trkpt lat="46.51739" lon="6.52618">
        <ele>405.1</ele>
        <time>2022-09-28T11:37:48Z</time>
      </trkpt>
      <trkpt lat="46.5174" lon="6.52618">
        <ele>405.1</ele>
        <time>2022-09-28T11:37:49Z</time>
      </trkpt>
      <trkpt lat="46.5174" lon="6.52618">
        <ele>405.1</ele>
        <time>2022-09-28T11:37:50Z</time>
      </trkpt>
      <trkpt lat="46.5174" lon="6.52618">
        <ele>405.1</ele>
        <time>2022-09-28T11:37:51Z</time>
      </trkpt>
      <trkpt lat="46.5174" lon="6.52618">
        <ele>405.1</ele>
        <time>2022-09-28T11:37:52Z</time>
      </trkpt>
      <trkpt lat="46.5174" lon="6.52618">
        <ele>405.1</ele>
        <time>2022-09-28T11:37:53Z</time>
      </trkpt>
      <trkpt lat="46.5174" lon="6.52617">
        <ele>405.1</ele>
        <time>2022-09-28T11:37:54Z</time>
      </trkpt>
      <trkpt lat="46.5174" lon="6.52617">
        <ele>405.1</ele>
        <time>2022-09-28T11:37:55Z</time>
      </trkpt>
      <trkpt lat="46.5174" lon="6.52617">
        <ele>405.1</ele>
        <time>2022-09-28T11:37:56Z</time>
      </trkpt>
      <trkpt lat="46.5174" lon="6.52617">
        <ele>405.1</ele>
        <time>2022-09-28T11:37:57Z</time>
      </trkpt>
      <trkpt lat="46.51741" lon="6.52617">
        <ele>405.1</ele>
        <time>2022-09-28T11:37:58Z</time>
      </trkpt>
      <trkpt lat="46.51741" lon="6.52617">
        <ele>405.1</ele>
        <time>2022-09-28T11:42:36Z</time>
      </trkpt>
      <trkpt lat="46.51741" lon="6.52616">
        <ele>405.1</ele>
        <time>2022-09-28T11:42:37Z</time>
      </trkpt>
      <trkpt lat="46.51741" lon="6.52616">
        <ele>405.1</ele>
        <time>2022-09-28T11:42:38Z</time>
      </trkpt>
      <trkpt lat="46.51741" lon="6.52616">
        <ele>405.1</ele>
        <time>2022-09-28T11:42:39Z</time>
      </trkpt>
      <trkpt lat="46.51741" lon="6.52616">
        <ele>405.1</ele>
        <time>2022-09-28T11:42:40Z</time>
      </trkpt>
      <trkpt lat="46.51741" lon="6.52616">
        <ele>405.1</ele>
        <time>2022-09-28T11:42:41Z</time>
      </trkpt>
      <trkpt lat="46.51741" lon="6.52616">
        <ele>405.1</ele>
        <time>2022-09-28T11:42:42Z</time>
      </trkpt>
      <trkpt lat="46.51742" lon="6.52616">
        <ele>405.1</ele>
        <time>2022-09-28T11:42:43Z</time>
      </trkpt>
      <trkpt lat="46.51742" lon="6.52615">
        <ele>405.1</ele>
        <time>2022-09-28T11:42:44Z</time>
      </trkpt>
      <trkpt lat="46.51742" lon="6.52615">
        <ele>405.1</ele>
        <time>2022-09-28T11:42:45Z</time>
      </trkpt>
      <trkpt lat="46.51742" lon="6.52615">
        <ele>405.1</ele>
        <time>2022-09-28T11:42:46Z</time>
      </trkpt>
      <trkpt lat="46.51742" lon="6.52615">
        <ele>405.1</ele>
        <time>2022-09-28T11:42:47Z</time>
      </trkpt>
      <trkpt lat="46.51742" lon="6.52615">
        <ele>405.1</ele>
        <time>2022-09-28T11:42:48Z</time>
      </trkpt>
      <trkpt lat="46.51742" lon="6.52615">
        <ele>405.1</ele>
        <time>2022-09-28T11:42:49Z</time>
      </trkpt>
      <trkpt lat="46.51742" lon="6.52615">
        <ele>405.1</ele>
        <time>2022-09-28T11:47:10Z</time>
      </trkpt>
      <trkpt lat="46.51742" lon="6.52614">
        <ele>405.1</ele>
        <time>2022-09-28T11:47:11Z</time>
      </trkpt>
      <trkpt lat="46.51745" lon="6.52611">
        <ele>405.2</ele>
        <time>2022-09-28T11:47:12Z</time>
      </trkpt>
      <trkpt lat="46.51746" lon="6.52607">
        <ele>405.2</ele>
        <time>2022-09-28T11:47:13Z</time>
      </trkpt>
      <trkpt lat="46.51747" lon="6.526">
        <ele>405.2</ele>
        <time>2022-09-28T11:47:14Z</time>
      </trkpt>
      <trkpt lat="46.51747" lon="6.52597">
        <ele>405.2</ele>
        <time>2022-09-28T11:47:15Z</time>
      </trkpt>
      <trkpt lat="46.5175" lon="6.52594">
        <ele>405.2</ele>
        <time>2022-09-28T11:47:16Z</time>
      </trkpt>
      <trkpt lat="46.51751" lon="6.52592">
        <ele>405.2</ele>
        <time>2022-09-28T11:47:17Z</time>
      </trkpt>
      <trkpt lat="46.51751" lon="6.52586">
        <ele>405.2</ele>
        <time>2022-09-28T11:47:18Z</time>
      </trkpt>
      <trkpt lat="46.51752" lon="6.5258">
        <ele>405.2</ele>
        <time>2022-09-28T11:47:19Z</time>
      </trkpt>
      <trkpt lat="46.51753" lon="6.52575">
        <ele>405.3</ele>
        <time>2022-09-28T11:47:20Z</time>
      </trkpt>
      <trkpt lat="46.51752" lon="6.52574">
        <ele>405.3</ele>
        <time>2022-09-28T11:47:21Z</time>
      </trkpt>
      <trkpt lat="46.51754" lon="6.52569">
        <ele>405.3</ele>
        <time>2022-09-28T11:47:22Z</time>
      </trkpt>
      <trkpt lat="46.51756" lon="6.52565">
        <ele>405.3</ele>
        <time>2022-09-28T11:47:23Z</time>
      </trkpt>
      <trkpt lat="46.51756" lon="6.5256">
        <ele>405.3</ele>
        <time>2022-09-28T11:47:24Z</time>
      </trkpt>
      <trkpt lat="46.51758" lon="6.52555">
        <ele>405.4</ele>
        <time>2022-09-28T11:47:25Z</time>
      </trkpt>
      <trkpt lat="46.51759" lon="6.5255">
        <ele>405.4</ele>
        <time>2022-09-28T11:47:26Z</time>
      </trkpt>
      <trkpt lat="46.51761" lon="6.52545">
        <ele>405.4</ele>
        <time>2022-09-28T11:47:27Z</time>
      </trkpt>
      <trkpt lat="46.51761" lon="6.52542">
        <ele>405.5</ele>
        <time>2022-09-28T11:47:28Z</time>
      </trkpt>
      <trkpt lat="46.51763" lon="6.52536">
        <ele>405.5</ele>
        <time>2022-09-28T11:47:29Z</time>
      </trkpt>
      <trkpt lat="46.51763" lon="6.52534">
        <ele>405.5</ele>
        <time>2022-09-28T11:47:30Z</time>
      </trkpt>
      <trkpt lat="46.51766" lon="6.52533">
        <ele>405.5</ele>
        <time>2022-09-28T11:47:31Z</time>
      </trkpt>
      <trkpt lat="46.51769" lon="6.52536">
        <ele>405.6</ele>
        <time>2022-09-28T11:47:32Z</time>
      </trkpt>
      <trkpt lat="46.5177" lon="6.52536">
        <ele>405.6</ele>
        <time>2022-09-28T11:47:33Z</time>
      </trkpt>
      <trkpt lat="46.51772" lon="6.5254">
        <ele>405.6</ele>
        <time>2022-09-28T11:47:34Z</time>
      </trkpt>
      <trkpt lat="46.51774" lon="6.52544">
        <ele>405.6</ele>
        <time>2022-09-28T11:47:35Z</time>
      </trkpt>
      <trkpt lat="46.51775" lon="6.52545">
        <ele>405.6</ele>
        <time>2022-09-28T11:47:36Z</time>
      </trkpt>
      <trkpt lat="46.51777" lon="6.52548">
        <ele>405.6</ele>
        <time>2022-09-28T11:47:37Z</time>
      </trkpt>
      <trkpt lat="46.5178" lon="6.52551">
        <ele>405.6</ele>
        <time>2022-09-28T11:47:38Z</time>
      </trkpt>
      <trkpt lat="46.51782" lon="6.52556">
        <ele>405.6</ele>
        <time>2022-09-28T11:47:39Z</time>
      </trkpt>
      <trkpt lat="46.51782" lon="6.52558">
        <ele>405.6</ele>
        <time>2022-09-28T11:47:40Z</time>
      </trkpt>
      <trkpt lat="46.51783" lon="6.52561">
        <ele>405.7</ele>
        <time>2022-09-28T11:47:41Z</time>
      </trkpt>
      <trkpt lat="46.51785" lon="6.52565">
        <ele>405.7</ele>
        <time>2022-09-28T11:47:42Z</time>
      </trkpt>
      <trkpt lat="46.51786" lon="6.52569">
        <ele>405.7</ele>
        <time>2022-09-28T11:47:43Z</time>
      </trkpt>
      <trkpt lat="46.51788" lon="6.52573">
        <ele>405.7</ele>
        <time>2022-09-28T11:47:44Z</time>
      </trkpt>
      <trkpt lat="46.51789" lon="6.52577">
        <ele>405.8</ele>
        <time>2022-09-28T11:47:45Z</time>
      </trkpt>
      <trkpt lat="46.51791" lon="6.52581">
        <ele>405.8</ele>
        <time>2022-09-28T11:47:46Z</time>
      </trkpt>
      <trkpt lat="46.51792" lon="6.52586">
        <ele>405.8</ele>
        <time>2022-09-28T11:47:47Z</time>
      </trkpt>
      <trkpt lat="46.51795" lon="6.52589">
        <ele>405.9</ele>
        <time>2022-09-28T11:47:48Z</time>
      </trkpt>
      <trkpt lat="46.51797" lon="6.52594">
        <ele>406</ele>
        <time>2022-09-28T11:47:49Z</time>
      </trkpt>
      <trkpt lat="46.51799" lon="6.52597">
        <ele>406</ele>
        <time>2022-09-28T11:47:50Z</time>
      </trkpt>
      <trkpt lat="46.51801" lon="6.52602">
        <ele>406.1</ele>
        <time>2022-09-28T11:47:51Z</time>
      </trkpt>
      <trkpt lat="46.51804" lon="6.52605">
        <ele>406.2</ele>
        <time>2022-09-28T11:47:52Z</time>
      </trkpt>
      <trkpt lat="46.51806" lon="6.52608">
        <ele>406.3</ele>
        <time>2022-09-28T11:47:53Z</time>
      </trkpt>
      <trkpt lat="46.51809" lon="6.52611">
        <ele>406.4</ele>
        <time>2022-09-28T11:47:54Z</time>
      </trkpt>
      <trkpt lat="46.51811" lon="6.52614">
        <ele>406.4</ele>
        <time>2022-09-28T11:47:55Z</time>
      </trkpt>
      <trkpt lat="46.51813" lon="6.52618">
        <ele>406.5</ele>
        <time>2022-09-28T11:47:56Z</time>
      </trkpt>
      <trkpt lat="46.51814" lon="6.52622">
        <ele>406.6</ele>
        <time>2022-09-28T11:47:57Z</time>
      </trkpt>
      <trkpt lat="46.51816" lon="6.52626">
        <ele>406.7</ele>
        <time>2022-09-28T11:47:58Z</time>
      </trkpt>
      <trkpt lat="46.51817" lon="6.52628">
        <ele>406.8</ele>
        <time>2022-09-28T11:47:59Z</time>
      </trkpt>
      <trkpt lat="46.51819" lon="6.52632">
        <ele>406.9</ele>
        <time>2022-09-28T11:48:00Z</time>
      </trkpt>
      <trkpt lat="46.51822" lon="6.52636">
        <ele>407.1</ele>
        <time>2022-09-28T11:48:01Z</time>
      </trkpt>
      <trkpt lat="46.51823" lon="6.52637">
        <ele>407.1</ele>
        <time>2022-09-28T11:48:02Z</time>
      </trkpt>
      <trkpt lat="46.51826" lon="6.52641">
        <ele>407.3</ele>
        <time>2022-09-28T11:48:03Z</time>
      </trkpt>
      <trkpt lat="46.51827" lon="6.52642">
        <ele>407.3</ele>
        <time>2022-09-28T11:48:04Z</time>
      </trkpt>
      <trkpt lat="46.51829" lon="6.52645">
        <ele>407.4</ele>
        <time>2022-09-28T11:48:05Z</time>
      </trkpt>
      <trkpt lat="46.51831" lon="6.52647">
        <ele>407.5</ele>
        <time>2022-09-28T11:48:06Z</time>
      </trkpt>
      <trkpt lat="46.51833" lon="6.52651">
        <ele>407.6</ele>
        <time>2022-09-28T11:48:07Z</time>
      </trkpt>
      <trkpt lat="46.51834" lon="6.52656">
        <ele>407.7</ele>
        <time>2022-09-28T11:48:08Z</time>
      </trkpt>
      <trkpt lat="46.51836" lon="6.52659">
        <ele>407.8</ele>
        <time>2022-09-28T11:48:09Z</time>
      </trkpt>
      <trkpt lat="46.51838" lon="6.52663">
        <ele>407.9</ele>
        <time>2022-09-28T11:48:10Z</time>
      </trkpt>
      <trkpt lat="46.51842" lon="6.52666">
        <ele>407.9</ele>
        <time>2022-09-28T11:48:11Z</time>
      </trkpt>
      <trkpt lat="46.51842" lon="6.52668">
        <ele>408</ele>
        <time>2022-09-28T11:48:12Z</time>
      </trkpt>
      <trkpt lat="46.51844" lon="6.52671">
        <ele>408</ele>
        <time>2022-09-28T11:48:13Z</time>
      </trkpt>
      <trkpt lat="46.51846" lon="6.52674">
        <ele>408</ele>
        <time>2022-09-28T11:48:14Z</time>
      </trkpt>
      <trkpt lat="46.51847" lon="6.52675">
        <ele>408.1</ele>
        <time>2022-09-28T11:48:15Z</time>
      </trkpt>
      <trkpt lat="46.51849" lon="6.52675">
        <ele>408.1</ele>
        <time>2022-09-28T11:48:16Z</time>
      </trkpt>
      <trkpt lat="46.51852" lon="6.52678">
        <ele>408.2</ele>
        <time>2022-09-28T11:48:17Z</time>
      </trkpt>
      <trkpt lat="46.51854" lon="6.52683">
        <ele>408.2</ele>
        <time>2022-09-28T11:48:18Z</time>
      </trkpt>
      <trkpt lat="46.51854" lon="6.52685">
        <ele>408.2</ele>
        <time>2022-09-28T11:48:19Z</time>
      </trkpt>
      <trkpt lat="46.51857" lon="6.52687">
        <ele>408.3</ele>
        <time>2022-09-28T11:48:20Z</time>
      </trkpt>
      <trkpt lat="46.51859" lon="6.52689">
        <ele>408.3</ele>
        <time>2022-09-28T11:48:21Z</time>
      </trkpt>
      <trkpt lat="46.51861" lon="6.52692">
        <ele>408.4</ele>
        <time>2022-09-28T11:48:22Z</time>
      </trkpt>
      <trkpt lat="46.51864" lon="6.52694">
        <ele>408.4</ele>
        <time>2022-09-28T11:48:23Z</time>
      </trkpt>
      <trkpt lat="46.51865" lon="6.52697">
        <ele>408.4</ele>
        <time>2022-09-28T11:48:24Z</time>
      </trkpt>
      <trkpt lat="46.51869" lon="6.52701">
        <ele>408.4</ele>
        <time>2022-09-28T11:48:25Z</time>
      </trkpt>
      <trkpt lat="46.51873" lon="6.52703">
        <ele>408.4</ele>
        <time>2022-09-28T11:48:26Z</time>
      </trkpt>
      <trkpt lat="46.51874" lon="6.52707">
        <ele>408.4</ele>
        <time>2022-09-28T11:48:27Z</time>
      </trkpt>
      <trkpt lat="46.51877" lon="6.5271">
        <ele>408.4</ele>
        <time>2022-09-28T11:48:28Z</time>
      </trkpt>
      <trkpt lat="46.5188" lon="6.52712">
        <ele>408.4</ele>
        <time>2022-09-28T11:48:29Z</time>
      </trkpt>
      <trkpt lat="46.51883" lon="6.52714">
        <ele>408.4</ele>
        <time>2022-09-28T11:48:30Z</time>
      </trkpt>
      <trkpt lat="46.51885" lon="6.52716">
        <ele>408.4</ele>
        <time>2022-09-28T11:48:31Z</time>
      </trkpt>
      <trkpt lat="46.51888" lon="6.5272">
        <ele>408.5</ele>
        <time>2022-09-28T11:48:32Z</time>
      </trkpt>
      <trkpt lat="46.51891" lon="6.52721">
        <ele>408.5</ele>
        <time>2022-09-28T11:48:33Z</time>
      </trkpt>
      <trkpt lat="46.51893" lon="6.52724">
        <ele>408.6</ele>
        <time>2022-09-28T11:48:34Z</time>
      </trkpt>
      <trkpt lat="46.51897" lon="6.52727">
        <ele>408.7</ele>
        <time>2022-09-28T11:48:35Z</time>
      </trkpt>
      <trkpt lat="46.519" lon="6.52729">
        <ele>408.7</ele>
        <time>2022-09-28T11:48:36Z</time>
      </trkpt>
      <trkpt lat="46.51903" lon="6.52732">
        <ele>408.8</ele>
        <time>2022-09-28T11:48:37Z</time>
      </trkpt>
      <trkpt lat="46.51906" lon="6.52734">
        <ele>408.8</ele>
        <time>2022-09-28T11:48:38Z</time>
      </trkpt>
      <trkpt lat="46.51909" lon="6.52737">
        <ele>408.9</ele>
        <time>2022-09-28T11:48:39Z</time>
      </trkpt>
      <trkpt lat="46.51912" lon="6.52739">
        <ele>409</ele>
        <time>2022-09-28T11:48:40Z</time>
      </trkpt>
      <trkpt lat="46.51916" lon="6.52741">
        <ele>409</ele>
        <time>2022-09-28T11:48:41Z</time>
      </trkpt>
      <trkpt lat="46.51919" lon="6.52744">
        <ele>409.1</ele>
        <time>2022-09-28T11:48:42Z</time>
      </trkpt>
      <trkpt lat="46.51922" lon="6.52746">
        <ele>409.2</ele>
        <time>2022-09-28T11:48:43Z</time>
      </trkpt>
      <trkpt lat="46.51926" lon="6.52748">
        <ele>409.2</ele>
        <time>2022-09-28T11:48:44Z</time>
      </trkpt>
      <trkpt lat="46.5193" lon="6.52751">
        <ele>409.3</ele>
        <time>2022-09-28T11:48:45Z</time>
      </trkpt>
      <trkpt lat="46.51933" lon="6.52753">
        <ele>409.3</ele>
        <time>2022-09-28T11:48:46Z</time>
      </trkpt>
      <trkpt lat="46.51936" lon="6.52756">
        <ele>409.4</ele>
        <time>2022-09-28T11:48:47Z</time>
      </trkpt>
      <trkpt lat="46.51939" lon="6.52759">
        <ele>409.4</ele>
        <time>2022-09-28T11:48:48Z</time>
      </trkpt>
      <trkpt lat="46.51943" lon="6.52761">
        <ele>409.5</ele>
        <time>2022-09-28T11:48:49Z</time>
      </trkpt>
      <trkpt lat="46.51947" lon="6.52764">
        <ele>409.6</ele>
        <time>2022-09-28T11:48:50Z</time>
      </trkpt>
      <trkpt lat="46.5195" lon="6.52764">
        <ele>409.6</ele>
        <time>2022-09-28T11:48:51Z</time>
      </trkpt>
      <trkpt lat="46.51953" lon="6.52767">
        <ele>409.7</ele>
        <time>2022-09-28T11:48:52Z</time>
      </trkpt>
      <trkpt lat="46.51956" lon="6.5277">
        <ele>409.7</ele>
        <time>2022-09-28T11:48:53Z</time>
      </trkpt>
      <trkpt lat="46.51958" lon="6.52774">
        <ele>409.8</ele>
        <time>2022-09-28T11:48:54Z</time>
      </trkpt>
      <trkpt lat="46.51961" lon="6.52777">
        <ele>409.8</ele>
        <time>2022-09-28T11:48:55Z</time>
      </trkpt>
      <trkpt lat="46.51965" lon="6.52779">
        <ele>409.9</ele>
        <time>2022-09-28T11:48:56Z</time>
      </trkpt>
      <trkpt lat="46.51968" lon="6.52782">
        <ele>409.9</ele>
        <time>2022-09-28T11:48:57Z</time>
      </trkpt>
      <trkpt lat="46.51971" lon="6.52786">
        <ele>410</ele>
        <time>2022-09-28T11:48:58Z</time>
      </trkpt>
      <trkpt lat="46.51973" lon="6.5279">
        <ele>410</ele>
        <time>2022-09-28T11:48:59Z</time>
      </trkpt>
      <trkpt lat="46.51977" lon="6.52793">
        <ele>410.1</ele>
        <time>2022-09-28T11:49:00Z</time>
      </trkpt>
      <trkpt lat="46.51979" lon="6.52798">
        <ele>410.1</ele>
        <time>2022-09-28T11:49:01Z</time>
      </trkpt>
      <trkpt lat="46.51981" lon="6.52801">
        <ele>410.1</ele>
        <time>2022-09-28T11:49:02Z</time>
      </trkpt>
      <trkpt lat="46.51984" lon="6.52804">
        <ele>410.2</ele>
        <time>2022-09-28T11:49:03Z</time>
      </trkpt>
      <trkpt lat="46.51987" lon="6.52808">
        <ele>410.2</ele>
        <time>2022-09-28T11:49:04Z</time>
      </trkpt>
      <trkpt lat="46.5199" lon="6.52811">
        <ele>410.2</ele>
        <time>2022-09-28T11:49:05Z</time>
      </trkpt>
      <trkpt lat="46.51992" lon="6.52814">
        <ele>410.2</ele>
        <time>2022-09-28T11:49:06Z</time>
      </trkpt>
      <trkpt lat="46.51995" lon="6.52817">
        <ele>410.2</ele>
        <time>2022-09-28T11:49:07Z</time>
      </trkpt>
      <trkpt lat="46.51998" lon="6.5282">
        <ele>410.3</ele>
        <time>2022-09-28T11:49:08Z</time>
      </trkpt>
      <trkpt lat="46.52" lon="6.52824">
        <ele>410.3</ele>
        <time>2022-09-28T11:49:09Z</time>
      </trkpt>
      <trkpt lat="46.52003" lon="6.52827">
        <ele>410.3</ele>
        <time>2022-09-28T11:49:10Z</time>
      </trkpt>
      <trkpt lat="46.52005" lon="6.5283">
        <ele>410.3</ele>
        <time>2022-09-28T11:49:11Z</time>
      </trkpt>
      <trkpt lat="46.52009" lon="6.52833">
        <ele>410.2</ele>
        <time>2022-09-28T11:49:12Z</time>
      </trkpt>
      <trkpt lat="46.52012" lon="6.52838">
        <ele>410.2</ele>
        <time>2022-09-28T11:49:13Z</time>
      </trkpt>
      <trkpt lat="46.52013" lon="6.5284">
        <ele>410.2</ele>
        <time>2022-09-28T11:49:14Z</time>
      </trkpt>
      <trkpt lat="46.52016" lon="6.52842">
        <ele>410.2</ele>
        <time>2022-09-28T11:49:15Z</time>
      </trkpt>
      <trkpt lat="46.52019" lon="6.52845">
        <ele>410.2</ele>
        <time>2022-09-28T11:49:16Z</time>
      </trkpt>
      <trkpt lat="46.52022" lon="6.52848">
        <ele>410.1</ele>
        <time>2022-09-28T11:49:17Z</time>
      </trkpt>
      <trkpt lat="46.52025" lon="6.52851">
        <ele>410.1</ele>
        <time>2022-09-28T11:49:18Z</time>
      </trkpt>
      <trkpt lat="46.52028" lon="6.52855">
        <ele>410</ele>
        <time>2022-09-28T11:49:19Z</time>
      </trkpt>
      <trkpt lat="46.52031" lon="6.52856">
        <ele>410</ele>
        <time>2022-09-28T11:49:20Z</time>
      </trkpt>
      <trkpt lat="46.52033" lon="6.52861">
        <ele>410</ele>
        <time>2022-09-28T11:49:21Z</time>
      </trkpt>
      <trkpt lat="46.52036" lon="6.52867">
        <ele>410</ele>
        <time>2022-09-28T11:49:22Z</time>
      </trkpt>
      <trkpt lat="46.52038" lon="6.52871">
        <ele>410</ele>
        <time>2022-09-28T11:49:23Z</time>
      </trkpt>
      <trkpt lat="46.52041" lon="6.52874">
        <ele>410.1</ele>
        <time>2022-09-28T11:49:24Z</time>
      </trkpt>
      <trkpt lat="46.52043" lon="6.52878">
        <ele>410.1</ele>
        <time>2022-09-28T11:49:25Z</time>
      </trkpt>
      <trkpt lat="46.52045" lon="6.5288">
        <ele>410.1</ele>
        <time>2022-09-28T11:49:26Z</time>
      </trkpt>
      <trkpt lat="46.52046" lon="6.52881">
        <ele>410.1</ele>
        <time>2022-09-28T11:49:27Z</time>
      </trkpt>
      <trkpt lat="46.52048" lon="6.52883">
        <ele>410.1</ele>
        <time>2022-09-28T11:49:28Z</time>
      </trkpt>
      <trkpt lat="46.52049" lon="6.52884">
        <ele>410.1</ele>
        <time>2022-09-28T11:49:29Z</time>
      </trkpt>
      <trkpt lat="46.52052" lon="6.52886">
        <ele>409.9</ele>
        <time>2022-09-28T11:49:30Z</time>
      </trkpt>
      <trkpt lat="46.52053" lon="6.52886">
        <ele>409.9</ele>
        <time>2022-09-28T11:49:31Z</time>
      </trkpt>
      <trkpt lat="46.52057" lon="6.52888">
        <ele>409.7</ele>
        <time>2022-09-28T11:49:32Z</time>
      </trkpt>
      <trkpt lat="46.52059" lon="6.5289">
        <ele>409.6</ele>
        <time>2022-09-28T11:49:33Z</time>
      </trkpt>
      <trkpt lat="46.52064" lon="6.52891">
        <ele>409.4</ele>
        <time>2022-09-28T11:49:34Z</time>
      </trkpt>
      <trkpt lat="46.52068" lon="6.52894">
        <ele>409.1</ele>
        <time>2022-09-28T11:49:35Z</time>
      </trkpt>
      <trkpt lat="46.52073" lon="6.52896">
        <ele>408.8</ele>
        <time>2022-09-28T11:49:36Z</time>
      </trkpt>
      <trkpt lat="46.52076" lon="6.52899">
        <ele>408.5</ele>
        <time>2022-09-28T11:49:37Z</time>
      </trkpt>
      <trkpt lat="46.52081" lon="6.52901">
        <ele>408.1</ele>
        <time>2022-09-28T11:49:38Z</time>
      </trkpt>
      <trkpt lat="46.52087" lon="6.52903">
        <ele>407.7</ele>
        <time>2022-09-28T11:49:40Z</time>
      </trkpt>
      <trkpt lat="46.52092" lon="6.52906">
        <ele>407.2</ele>
        <time>2022-09-28T11:49:41Z</time>
      </trkpt>
      <trkpt lat="46.52098" lon="6.52909">
        <ele>406.8</ele>
        <time>2022-09-28T11:49:42Z</time>
      </trkpt>
      <trkpt lat="46.52103" lon="6.52911">
        <ele>406.3</ele>
        <time>2022-09-28T11:49:43Z</time>
      </trkpt>
      <trkpt lat="46.52107" lon="6.52914">
        <ele>406</ele>
        <time>2022-09-28T11:49:44Z</time>
      </trkpt>
      <trkpt lat="46.52112" lon="6.52918">
        <ele>405.6</ele>
        <time>2022-09-28T11:49:45Z</time>
      </trkpt>
      <trkpt lat="46.52118" lon="6.52921">
        <ele>405.1</ele>
        <time>2022-09-28T11:49:46Z</time>
      </trkpt>
      <trkpt lat="46.52123" lon="6.52925">
        <ele>404.7</ele>
        <time>2022-09-28T11:49:47Z</time>
      </trkpt>
      <trkpt lat="46.52129" lon="6.52929">
        <ele>404.3</ele>
        <time>2022-09-28T11:49:48Z</time>
      </trkpt>
      <trkpt lat="46.52133" lon="6.52933">
        <ele>404</ele>
        <time>2022-09-28T11:49:49Z</time>
      </trkpt>
      <trkpt lat="46.52138" lon="6.52936">
        <ele>403.7</ele>
        <time>2022-09-28T11:49:50Z</time>
      </trkpt>
      <trkpt lat="46.52141" lon="6.52939">
        <ele>403.5</ele>
        <time>2022-09-28T11:49:51Z</time>
      </trkpt>
      <trkpt lat="46.52145" lon="6.52942">
        <ele>403.3</ele>
        <time>2022-09-28T11:49:52Z</time>
      </trkpt>
      <trkpt lat="46.5215" lon="6.52941">
        <ele>403.2</ele>
        <time>2022-09-28T11:49:54Z</time>
      </trkpt>
      <trkpt lat="46.52152" lon="6.52941">
        <ele>403.2</ele>
        <time>2022-09-28T11:49:55Z</time>
      </trkpt>
      <trkpt lat="46.52156" lon="6.52943">
        <ele>403.1</ele>
        <time>2022-09-28T11:49:56Z</time>
      </trkpt>
      <trkpt lat="46.5216" lon="6.52944">
        <ele>403</ele>
        <time>2022-09-28T11:49:57Z</time>
      </trkpt>
      <trkpt lat="46.52164" lon="6.52945">
        <ele>403</ele>
        <time>2022-09-28T11:49:58Z</time>
      </trkpt>
      <trkpt lat="46.52169" lon="6.52946">
        <ele>402.9</ele>
        <time>2022-09-28T11:49:59Z</time>
      </trkpt>
      <trkpt lat="46.52173" lon="6.52948">
        <ele>402.9</ele>
        <time>2022-09-28T11:50:00Z</time>
      </trkpt>
      <trkpt lat="46.52177" lon="6.5295">
        <ele>402.8</ele>
        <time>2022-09-28T11:50:01Z</time>
      </trkpt>
      <trkpt lat="46.52181" lon="6.52954">
        <ele>402.7</ele>
        <time>2022-09-28T11:50:02Z</time>
      </trkpt>
      <trkpt lat="46.52183" lon="6.52959">
        <ele>402.7</ele>
        <time>2022-09-28T11:50:03Z</time>
      </trkpt>
      <trkpt lat="46.52184" lon="6.52963">
        <ele>402.6</ele>
        <time>2022-09-28T11:50:04Z</time>
      </trkpt>
      <trkpt lat="46.52185" lon="6.52967">
        <ele>402.6</ele>
        <time>2022-09-28T11:50:05Z</time>
      </trkpt>
      <trkpt lat="46.52185" lon="6.52972">
        <ele>402.5</ele>
        <time>2022-09-28T11:50:06Z</time>
      </trkpt>
      <trkpt lat="46.52184" lon="6.52977">
        <ele>402.5</ele>
        <time>2022-09-28T11:50:07Z</time>
      </trkpt>
      <trkpt lat="46.52183" lon="6.52982">
        <ele>402.5</ele>
        <time>2022-09-28T11:50:08Z</time>
      </trkpt>
      <trkpt lat="46.52183" lon="6.52987">
        <ele>402.4</ele>
        <time>2022-09-28T11:50:09Z</time>
      </trkpt>
      <trkpt lat="46.52185" lon="6.52992">
        <ele>402.4</ele>
        <time>2022-09-28T11:50:10Z</time>
      </trkpt>
      <trkpt lat="46.52187" lon="6.52997">
        <ele>402.4</ele>
        <time>2022-09-28T11:50:11Z</time>
      </trkpt>
      <trkpt lat="46.52191" lon="6.53002">
        <ele>402.4</ele>
        <time>2022-09-28T11:50:12Z</time>
      </trkpt>
      <trkpt lat="46.52194" lon="6.53007">
        <ele>402.4</ele>
        <time>2022-09-28T11:50:13Z</time>
      </trkpt>
      <trkpt lat="46.52197" lon="6.53011">
        <ele>402.4</ele>
        <time>2022-09-28T11:50:14Z</time>
      </trkpt>
      <trkpt lat="46.522" lon="6.53017">
        <ele>402.4</ele>
        <time>2022-09-28T11:50:15Z</time>
      </trkpt>
      <trkpt lat="46.52203" lon="6.53023">
        <ele>402.4</ele>
        <time>2022-09-28T11:50:16Z</time>
      </trkpt>
      <trkpt lat="46.52206" lon="6.53028">
        <ele>402.4</ele>
        <time>2022-09-28T11:50:17Z</time>
      </trkpt>
      <trkpt lat="46.52209" lon="6.53034">
        <ele>402.4</ele>
        <time>2022-09-28T11:50:18Z</time>
      </trkpt>
      <trkpt lat="46.52212" lon="6.5304">
        <ele>402.4</ele>
        <time>2022-09-28T11:50:19Z</time>
      </trkpt>
      <trkpt lat="46.52215" lon="6.53046">
        <ele>402.5</ele>
        <time>2022-09-28T11:50:20Z</time>
      </trkpt>
      <trkpt lat="46.52218" lon="6.53051">
        <ele>402.5</ele>
        <time>2022-09-28T11:50:21Z</time>
      </trkpt>
      <trkpt lat="46.5222" lon="6.53058">
        <ele>402.5</ele>
        <time>2022-09-28T11:50:22Z</time>
      </trkpt>
      <trkpt lat="46.52223" lon="6.53065">
        <ele>402.5</ele>
        <time>2022-09-28T11:50:23Z</time>
      </trkpt>
      <trkpt lat="46.52226" lon="6.53069">
        <ele>402.5</ele>
        <time>2022-09-28T11:50:24Z</time>
      </trkpt>
      <trkpt lat="46.52229" lon="6.53075">
        <ele>402.5</ele>
        <time>2022-09-28T11:50:25Z</time>
      </trkpt>
      <trkpt lat="46.52233" lon="6.53081">
        <ele>402.5</ele>
        <time>2022-09-28T11:50:26Z</time>
      </trkpt>
      <trkpt lat="46.52235" lon="6.53088">
        <ele>402.6</ele>
        <time>2022-09-28T11:50:27Z</time>
      </trkpt>
      <trkpt lat="46.52238" lon="6.53093">
        <ele>402.6</ele>
        <time>2022-09-28T11:50:28Z</time>
      </trkpt>
      <trkpt lat="46.52241" lon="6.53099">
        <ele>402.6</ele>
        <time>2022-09-28T11:50:29Z</time>
      </trkpt>
      <trkpt lat="46.52244" lon="6.53105">
        <ele>402.6</ele>
        <time>2022-09-28T11:50:30Z</time>
      </trkpt>
      <trkpt lat="46.52247" lon="6.53111">
        <ele>402.6</ele>
        <time>2022-09-28T11:50:31Z</time>
      </trkpt>
      <trkpt lat="46.5225" lon="6.53117">
        <ele>402.7</ele>
        <time>2022-09-28T11:50:32Z</time>
      </trkpt>
      <trkpt lat="46.52253" lon="6.53124">
        <ele>402.7</ele>
        <time>2022-09-28T11:50:33Z</time>
      </trkpt>
      <trkpt lat="46.52256" lon="6.53131">
        <ele>402.7</ele>
        <time>2022-09-28T11:50:34Z</time>
      </trkpt>
      <trkpt lat="46.52259" lon="6.53136">
        <ele>402.7</ele>
        <time>2022-09-28T11:50:35Z</time>
      </trkpt>
      <trkpt lat="46.52262" lon="6.53141">
        <ele>402.8</ele>
        <time>2022-09-28T11:50:36Z</time>
      </trkpt>
      <trkpt lat="46.52265" lon="6.53148">
        <ele>402.8</ele>
        <time>2022-09-28T11:50:37Z</time>
      </trkpt>
      <trkpt lat="46.52268" lon="6.53154">
        <ele>402.8</ele>
        <time>2022-09-28T11:50:38Z</time>
      </trkpt>
      <trkpt lat="46.52271" lon="6.5316">
        <ele>402.9</ele>
        <time>2022-09-28T11:50:39Z</time>
      </trkpt>
      <trkpt lat="46.52275" lon="6.53166">
        <ele>402.9</ele>
        <time>2022-09-28T11:50:40Z</time>
      </trkpt>
      <trkpt lat="46.52277" lon="6.53172">
        <ele>402.9</ele>
        <time>2022-09-28T11:50:41Z</time>
      </trkpt>
      <trkpt lat="46.5228" lon="6.53178">
        <ele>402.9</ele>
        <time>2022-09-28T11:50:42Z</time>
      </trkpt>
      <trkpt lat="46.52284" lon="6.53184">
        <ele>402.9</ele>
        <time>2022-09-28T11:50:43Z</time>
      </trkpt>
      <trkpt lat="46.52286" lon="6.5319">
        <ele>402.9</ele>
        <time>2022-09-28T11:50:44Z</time>
      </trkpt>
      <trkpt lat="46.5229" lon="6.53196">
        <ele>402.9</ele>
        <time>2022-09-28T11:50:45Z</time>
      </trkpt>
      <trkpt lat="46.52292" lon="6.53203">
        <ele>402.9</ele>
        <time>2022-09-28T11:50:46Z</time>
      </trkpt>
      <trkpt lat="46.52296" lon="6.53208">
        <ele>403</ele>
        <time>2022-09-28T11:50:47Z</time>
      </trkpt>
      <trkpt lat="46.52299" lon="6.53214">
        <ele>403</ele>
        <time>2022-09-28T11:50:48Z</time>
      </trkpt>
      <trkpt lat="46.52302" lon="6.5322">
        <ele>403</ele>
        <time>2022-09-28T11:50:49Z</time>
      </trkpt>
      <trkpt lat="46.52305" lon="6.53227">
        <ele>403.1</ele>
        <time>2022-09-28T11:50:50Z</time>
      </trkpt>
      <trkpt lat="46.52308" lon="6.53232">
        <ele>403.1</ele>
        <time>2022-09-28T11:50:51Z</time>
      </trkpt>
      <trkpt lat="46.5231" lon="6.53239">
        <ele>403.1</ele>
        <time>2022-09-28T11:50:52Z</time>
      </trkpt>
      <trkpt lat="46.52313" lon="6.53244">
        <ele>403.1</ele>
        <time>2022-09-28T11:50:53Z</time>
      </trkpt>
      <trkpt lat="46.52316" lon="6.53249">
        <ele>403.1</ele>
        <time>2022-09-28T11:50:54Z</time>
      </trkpt>
      <trkpt lat="46.5232" lon="6.53255">
        <ele>403.1</ele>
        <time>2022-09-28T11:50:55Z</time>
      </trkpt>
      <trkpt lat="46.52322" lon="6.53261">
        <ele>403.1</ele>
        <time>2022-09-28T11:50:56Z</time>
      </trkpt>
      <trkpt lat="46.52325" lon="6.53268">
        <ele>403.1</ele>
        <time>2022-09-28T11:50:57Z</time>
      </trkpt>
      <trkpt lat="46.52328" lon="6.53273">
        <ele>403.1</ele>
        <time>2022-09-28T11:50:58Z</time>
      </trkpt>
      <trkpt lat="46.52332" lon="6.53279">
        <ele>403.1</ele>
        <time>2022-09-28T11:50:59Z</time>
      </trkpt>
      <trkpt lat="46.52334" lon="6.53285">
        <ele>403.1</ele>
        <time>2022-09-28T11:51:00Z</time>
      </trkpt>
      <trkpt lat="46.52337" lon="6.53291">
        <ele>403.2</ele>
        <time>2022-09-28T11:51:01Z</time>
      </trkpt>
      <trkpt lat="46.5234" lon="6.53298">
        <ele>403.2</ele>
        <time>2022-09-28T11:51:02Z</time>
      </trkpt>
      <trkpt lat="46.52343" lon="6.53304">
        <ele>403.2</ele>
        <time>2022-09-28T11:51:03Z</time>
      </trkpt>
      <trkpt lat="46.52347" lon="6.5331">
        <ele>403.2</ele>
        <time>2022-09-28T11:51:04Z</time>
      </trkpt>
      <trkpt lat="46.5235" lon="6.53317">
        <ele>403.2</ele>
        <time>2022-09-28T11:51:05Z</time>
      </trkpt>
      <trkpt lat="46.52353" lon="6.53323">
        <ele>403.3</ele>
        <time>2022-09-28T11:51:06Z</time>
      </trkpt>
      <trkpt lat="46.52357" lon="6.5333">
        <ele>403.3</ele>
        <time>2022-09-28T11:51:07Z</time>
      </trkpt>
      <trkpt lat="46.5236" lon="6.53337">
        <ele>403.3</ele>
        <time>2022-09-28T11:51:08Z</time>
      </trkpt>
      <trkpt lat="46.52363" lon="6.53343">
        <ele>403.3</ele>
        <time>2022-09-28T11:51:09Z</time>
      </trkpt>
      <trkpt lat="46.52366" lon="6.5335">
        <ele>403.3</ele>
        <time>2022-09-28T11:51:10Z</time>
      </trkpt>
      <trkpt lat="46.5237" lon="6.53356">
        <ele>403.3</ele>
        <time>2022-09-28T11:51:11Z</time>
      </trkpt>
      <trkpt lat="46.52373" lon="6.53363">
        <ele>403.3</ele>
        <time>2022-09-28T11:51:12Z</time>
      </trkpt>
      <trkpt lat="46.52376" lon="6.5337">
        <ele>403.3</ele>
        <time>2022-09-28T11:51:13Z</time>
      </trkpt>
      <trkpt lat="46.5238" lon="6.53377">
        <ele>403.3</ele>
        <time>2022-09-28T11:51:14Z</time>
      </trkpt>
      <trkpt lat="46.52383" lon="6.53383">
        <ele>403.2</ele>
        <time>2022-09-28T11:51:15Z</time>
      </trkpt>
      <trkpt lat="46.52386" lon="6.5339">
        <ele>403.2</ele>
        <time>2022-09-28T11:51:16Z</time>
      </trkpt>
      <trkpt lat="46.52389" lon="6.53396">
        <ele>403.2</ele>
        <time>2022-09-28T11:51:17Z</time>
      </trkpt>
      <trkpt lat="46.52392" lon="6.53402">
        <ele>403.2</ele>
        <time>2022-09-28T11:51:18Z</time>
      </trkpt>
      <trkpt lat="46.52396" lon="6.53408">
        <ele>403.2</ele>
        <time>2022-09-28T11:51:19Z</time>
      </trkpt>
      <trkpt lat="46.52399" lon="6.53415">
        <ele>403.1</ele>
        <time>2022-09-28T11:51:20Z</time>
      </trkpt>
      <trkpt lat="46.52402" lon="6.53421">
        <ele>403.1</ele>
        <time>2022-09-28T11:51:21Z</time>
      </trkpt>
      <trkpt lat="46.52405" lon="6.53427">
        <ele>403</ele>
        <time>2022-09-28T11:51:22Z</time>
      </trkpt>
      <trkpt lat="46.52408" lon="6.53433">
        <ele>403</ele>
        <time>2022-09-28T11:51:23Z</time>
      </trkpt>
      <trkpt lat="46.52411" lon="6.5344">
        <ele>402.9</ele>
        <time>2022-09-28T11:51:24Z</time>
      </trkpt>
      <trkpt lat="46.52414" lon="6.53446">
        <ele>402.9</ele>
        <time>2022-09-28T11:51:25Z</time>
      </trkpt>
      <trkpt lat="46.52418" lon="6.53453">
        <ele>402.8</ele>
        <time>2022-09-28T11:51:26Z</time>
      </trkpt>
      <trkpt lat="46.52421" lon="6.5346">
        <ele>402.8</ele>
        <time>2022-09-28T11:51:27Z</time>
      </trkpt>
      <trkpt lat="46.52424" lon="6.53466">
        <ele>402.7</ele>
        <time>2022-09-28T11:51:28Z</time>
      </trkpt>
      <trkpt lat="46.52427" lon="6.53473">
        <ele>402.6</ele>
        <time>2022-09-28T11:51:29Z</time>
      </trkpt>
      <trkpt lat="46.5243" lon="6.5348">
        <ele>402.6</ele>
        <time>2022-09-28T11:51:30Z</time>
      </trkpt>
      <trkpt lat="46.52434" lon="6.53486">
        <ele>402.5</ele>
        <time>2022-09-28T11:51:31Z</time>
      </trkpt>
      <trkpt lat="46.52437" lon="6.53493">
        <ele>402.4</ele>
        <time>2022-09-28T11:51:32Z</time>
      </trkpt>
      <trkpt lat="46.5244" lon="6.53499">
        <ele>402.4</ele>
        <time>2022-09-28T11:51:33Z</time>
      </trkpt>
      <trkpt lat="46.52443" lon="6.53506">
        <ele>402.3</ele>
        <time>2022-09-28T11:51:34Z</time>
      </trkpt>
      <trkpt lat="46.52446" lon="6.53514">
        <ele>402.2</ele>
        <time>2022-09-28T11:51:35Z</time>
      </trkpt>
      <trkpt lat="46.52449" lon="6.53521">
        <ele>402.1</ele>
        <time>2022-09-28T11:51:36Z</time>
      </trkpt>
      <trkpt lat="46.52452" lon="6.53528">
        <ele>402.1</ele>
        <time>2022-09-28T11:51:37Z</time>
      </trkpt>
      <trkpt lat="46.52455" lon="6.53535">
        <ele>402</ele>
        <time>2022-09-28T11:51:38Z</time>
      </trkpt>
      <trkpt lat="46.52458" lon="6.53541">
        <ele>402</ele>
        <time>2022-09-28T11:51:39Z</time>
      </trkpt>
      <trkpt lat="46.52461" lon="6.53548">
        <ele>401.9</ele>
        <time>2022-09-28T11:51:40Z</time>
      </trkpt>
      <trkpt lat="46.52463" lon="6.53556">
        <ele>401.9</ele>
        <time>2022-09-28T11:51:41Z</time>
      </trkpt>
      <trkpt lat="46.52466" lon="6.53562">
        <ele>401.8</ele>
        <time>2022-09-28T11:51:42Z</time>
      </trkpt>
      <trkpt lat="46.52468" lon="6.53569">
        <ele>401.8</ele>
        <time>2022-09-28T11:51:43Z</time>
      </trkpt>
      <trkpt lat="46.52471" lon="6.53576">
        <ele>401.7</ele>
        <time>2022-09-28T11:51:44Z</time>
      </trkpt>
      <trkpt lat="46.52474" lon="6.53583">
        <ele>401.6</ele>
        <time>2022-09-28T11:51:45Z</time>
      </trkpt>
      <trkpt lat="46.52476" lon="6.53592">
        <ele>401.5</ele>
        <time>2022-09-28T11:51:46Z</time>
      </trkpt>
      <trkpt lat="46.52478" lon="6.53599">
        <ele>401.4</ele>
        <time>2022-09-28T11:51:47Z</time>
      </trkpt>
      <trkpt lat="46.52481" lon="6.53606">
        <ele>401.4</ele>
        <time>2022-09-28T11:51:48Z</time>
      </trkpt>
      <trkpt lat="46.52483" lon="6.53613">
        <ele>401.3</ele>
        <time>2022-09-28T11:51:49Z</time>
      </trkpt>
      <trkpt lat="46.52485" lon="6.53621">
        <ele>401.2</ele>
        <time>2022-09-28T11:51:50Z</time>
      </trkpt>
      <trkpt lat="46.52487" lon="6.53628">
        <ele>401.2</ele>
        <time>2022-09-28T11:51:51Z</time>
      </trkpt>
      <trkpt lat="46.5249" lon="6.53636">
        <ele>401.1</ele>
        <time>2022-09-28T11:51:52Z</time>
      </trkpt>
      <trkpt lat="46.52491" lon="6.53642">
        <ele>401.1</ele>
        <time>2022-09-28T11:51:53Z</time>
      </trkpt>
      <trkpt lat="46.52493" lon="6.53648">
        <ele>401</ele>
        <time>2022-09-28T11:51:54Z</time>
      </trkpt>
      <trkpt lat="46.52493" lon="6.53653">
        <ele>401</ele>
        <time>2022-09-28T11:51:55Z</time>
      </trkpt>
      <trkpt lat="46.52492" lon="6.53658">
        <ele>401</ele>
        <time>2022-09-28T11:51:56Z</time>
      </trkpt>
      <trkpt lat="46.52491" lon="6.53664">
        <ele>400.9</ele>
        <time>2022-09-28T11:51:57Z</time>
      </trkpt>
      <trkpt lat="46.52489" lon="6.53668">
        <ele>400.9</ele>
        <time>2022-09-28T11:51:58Z</time>
      </trkpt>
      <trkpt lat="46.52489" lon="6.53673">
        <ele>400.8</ele>
        <time>2022-09-28T11:51:59Z</time>
      </trkpt>
      <trkpt lat="46.52491" lon="6.53677">
        <ele>400.8</ele>
        <time>2022-09-28T11:52:00Z</time>
      </trkpt>
      <trkpt lat="46.52493" lon="6.53681">
        <ele>400.8</ele>
        <time>2022-09-28T11:52:01Z</time>
      </trkpt>
      <trkpt lat="46.52496" lon="6.53684">
        <ele>400.8</ele>
        <time>2022-09-28T11:52:02Z</time>
      </trkpt>
      <trkpt lat="46.52499" lon="6.53686">
        <ele>400.7</ele>
        <time>2022-09-28T11:52:03Z</time>
      </trkpt>
      <trkpt lat="46.525" lon="6.53687">
        <ele>400.7</ele>
        <time>2022-09-28T11:52:04Z</time>
      </trkpt>
      <trkpt lat="46.52503" lon="6.53691">
        <ele>400.7</ele>
        <time>2022-09-28T11:52:05Z</time>
      </trkpt>
      <trkpt lat="46.52504" lon="6.53696">
        <ele>400.6</ele>
        <time>2022-09-28T11:52:06Z</time>
      </trkpt>
      <trkpt lat="46.52505" lon="6.53702">
        <ele>400.6</ele>
        <time>2022-09-28T11:52:07Z</time>
      </trkpt>
      <trkpt lat="46.52506" lon="6.53708">
        <ele>400.5</ele>
        <time>2022-09-28T11:52:08Z</time>
      </trkpt>
      <trkpt lat="46.52508" lon="6.53713">
        <ele>400.5</ele>
        <time>2022-09-28T11:52:09Z</time>
      </trkpt>
      <trkpt lat="46.52509" lon="6.5372">
        <ele>400.5</ele>
        <time>2022-09-28T11:52:10Z</time>
      </trkpt>
      <trkpt lat="46.5251" lon="6.53726">
        <ele>400.4</ele>
        <time>2022-09-28T11:52:11Z</time>
      </trkpt>
      <trkpt lat="46.52512" lon="6.53734">
        <ele>400.4</ele>
        <time>2022-09-28T11:52:12Z</time>
      </trkpt>
      <trkpt lat="46.52513" lon="6.53741">
        <ele>400.4</ele>
        <time>2022-09-28T11:52:13Z</time>
      </trkpt>
      <trkpt lat="46.52514" lon="6.53748">
        <ele>400.4</ele>
        <time>2022-09-28T11:52:14Z</time>
      </trkpt>
      <trkpt lat="46.52515" lon="6.53754">
        <ele>400.3</ele>
        <time>2022-09-28T11:52:15Z</time>
      </trkpt>
      <trkpt lat="46.52516" lon="6.53762">
        <ele>400.3</ele>
        <time>2022-09-28T11:52:16Z</time>
      </trkpt>
      <trkpt lat="46.52518" lon="6.53769">
        <ele>400.3</ele>
        <time>2022-09-28T11:52:17Z</time>
      </trkpt>
      <trkpt lat="46.52518" lon="6.53776">
        <ele>400.3</ele>
        <time>2022-09-28T11:52:18Z</time>
      </trkpt>
      <trkpt lat="46.52519" lon="6.53784">
        <ele>400.3</ele>
        <time>2022-09-28T11:52:19Z</time>
      </trkpt>
      <trkpt lat="46.5252" lon="6.53792">
        <ele>400.2</ele>
        <time>2022-09-28T11:52:20Z</time>
      </trkpt>
      <trkpt lat="46.52521" lon="6.53799">
        <ele>400.2</ele>
        <time>2022-09-28T11:52:21Z</time>
      </trkpt>
      <trkpt lat="46.52522" lon="6.53808">
        <ele>400.2</ele>
        <time>2022-09-28T11:52:22Z</time>
      </trkpt>
      <trkpt lat="46.52523" lon="6.53817">
        <ele>400.2</ele>
        <time>2022-09-28T11:52:23Z</time>
      </trkpt>
      <trkpt lat="46.52524" lon="6.53824">
        <ele>400.2</ele>
        <time>2022-09-28T11:52:24Z</time>
      </trkpt>
      <trkpt lat="46.52525" lon="6.53832">
        <ele>400.2</ele>
        <time>2022-09-28T11:52:25Z</time>
      </trkpt>
      <trkpt lat="46.52525" lon="6.53837">
        <ele>400.2</ele>
        <time>2022-09-28T11:52:26Z</time>
      </trkpt>
      <trkpt lat="46.52527" lon="6.53841">
        <ele>400.3</ele>
        <time>2022-09-28T11:52:27Z</time>
      </trkpt>
      <trkpt lat="46.52527" lon="6.53846">
        <ele>400.3</ele>
        <time>2022-09-28T11:52:28Z</time>
      </trkpt>
      <trkpt lat="46.52529" lon="6.53852">
        <ele>400.3</ele>
        <time>2022-09-28T11:52:29Z</time>
      </trkpt>
      <trkpt lat="46.52529" lon="6.53858">
        <ele>400.3</ele>
        <time>2022-09-28T11:52:30Z</time>
      </trkpt>
      <trkpt lat="46.52529" lon="6.53864">
        <ele>400.3</ele>
        <time>2022-09-28T11:52:31Z</time>
      </trkpt>
      <trkpt lat="46.52529" lon="6.5387">
        <ele>400.3</ele>
        <time>2022-09-28T11:52:32Z</time>
      </trkpt>
      <trkpt lat="46.52529" lon="6.53877">
        <ele>400.2</ele>
        <time>2022-09-28T11:52:33Z</time>
      </trkpt>
      <trkpt lat="46.5253" lon="6.53883">
        <ele>400.2</ele>
        <time>2022-09-28T11:52:34Z</time>
      </trkpt>
      <trkpt lat="46.5253" lon="6.5389">
        <ele>400.2</ele>
        <time>2022-09-28T11:52:35Z</time>
      </trkpt>
      <trkpt lat="46.52531" lon="6.53897">
        <ele>400.1</ele>
        <time>2022-09-28T11:52:36Z</time>
      </trkpt>
      <trkpt lat="46.5253" lon="6.53903">
        <ele>400.1</ele>
        <time>2022-09-28T11:52:37Z</time>
      </trkpt>
      <trkpt lat="46.52531" lon="6.5391">
        <ele>400</ele>
        <time>2022-09-28T11:52:38Z</time>
      </trkpt>
      <trkpt lat="46.5253" lon="6.53917">
        <ele>400</ele>
        <time>2022-09-28T11:52:39Z</time>
      </trkpt>
      <trkpt lat="46.5253" lon="6.53923">
        <ele>400</ele>
        <time>2022-09-28T11:52:40Z</time>
      </trkpt>
      <trkpt lat="46.52531" lon="6.5393">
        <ele>399.9</ele>
        <time>2022-09-28T11:52:41Z</time>
      </trkpt>
      <trkpt lat="46.5253" lon="6.53937">
        <ele>399.9</ele>
        <time>2022-09-28T11:52:42Z</time>
      </trkpt>
      <trkpt lat="46.52531" lon="6.53944">
        <ele>399.8</ele>
        <time>2022-09-28T11:52:43Z</time>
      </trkpt>
      <trkpt lat="46.52531" lon="6.5395">
        <ele>399.8</ele>
        <time>2022-09-28T11:52:44Z</time>
      </trkpt>
      <trkpt lat="46.52532" lon="6.53957">
        <ele>399.8</ele>
        <time>2022-09-28T11:52:45Z</time>
      </trkpt>
      <trkpt lat="46.52532" lon="6.53964">
        <ele>399.7</ele>
        <time>2022-09-28T11:52:46Z</time>
      </trkpt>
      <trkpt lat="46.52532" lon="6.53971">
        <ele>399.7</ele>
        <time>2022-09-28T11:52:47Z</time>
      </trkpt>
      <trkpt lat="46.52532" lon="6.53978">
        <ele>399.6</ele>
        <time>2022-09-28T11:52:48Z</time>
      </trkpt>
      <trkpt lat="46.52532" lon="6.53986">
        <ele>399.6</ele>
        <time>2022-09-28T11:52:49Z</time>
      </trkpt>
      <trkpt lat="46.52531" lon="6.53994">
        <ele>399.5</ele>
        <time>2022-09-28T11:52:50Z</time>
      </trkpt>
      <trkpt lat="46.52531" lon="6.54001">
        <ele>399.5</ele>
        <time>2022-09-28T11:52:51Z</time>
      </trkpt>
      <trkpt lat="46.5253" lon="6.54009">
        <ele>399.4</ele>
        <time>2022-09-28T11:52:52Z</time>
      </trkpt>
      <trkpt lat="46.5253" lon="6.54016">
        <ele>399.4</ele>
        <time>2022-09-28T11:52:53Z</time>
      </trkpt>
      <trkpt lat="46.52529" lon="6.54024">
        <ele>399.3</ele>
        <time>2022-09-28T11:52:54Z</time>
      </trkpt>
      <trkpt lat="46.52529" lon="6.54031">
        <ele>399.2</ele>
        <time>2022-09-28T11:52:55Z</time>
      </trkpt>
      <trkpt lat="46.52528" lon="6.54039">
        <ele>399.2</ele>
        <time>2022-09-28T11:52:56Z</time>
      </trkpt>
      <trkpt lat="46.52528" lon="6.54046">
        <ele>399.1</ele>
        <time>2022-09-28T11:52:57Z</time>
      </trkpt>
      <trkpt lat="46.52527" lon="6.54055">
        <ele>399</ele>
        <time>2022-09-28T11:52:58Z</time>
      </trkpt>
      <trkpt lat="46.52527" lon="6.54063">
        <ele>399</ele>
        <time>2022-09-28T11:52:59Z</time>
      </trkpt>
      <trkpt lat="46.52526" lon="6.54071">
        <ele>398.9</ele>
        <time>2022-09-28T11:53:00Z</time>
      </trkpt>
      <trkpt lat="46.52526" lon="6.54079">
        <ele>398.8</ele>
        <time>2022-09-28T11:53:01Z</time>
      </trkpt>
      <trkpt lat="46.52525" lon="6.54088">
        <ele>398.7</ele>
        <time>2022-09-28T11:53:02Z</time>
      </trkpt>
      <trkpt lat="46.52525" lon="6.54095">
        <ele>398.7</ele>
        <time>2022-09-28T11:53:03Z</time>
      </trkpt>
      <trkpt lat="46.52524" lon="6.54102">
        <ele>398.6</ele>
        <time>2022-09-28T11:53:04Z</time>
      </trkpt>
      <trkpt lat="46.52523" lon="6.54109">
        <ele>398.6</ele>
        <time>2022-09-28T11:53:05Z</time>
      </trkpt>
      <trkpt lat="46.52522" lon="6.54117">
        <ele>398.5</ele>
        <time>2022-09-28T11:53:06Z</time>
      </trkpt>
      <trkpt lat="46.52521" lon="6.54124">
        <ele>398.5</ele>
        <time>2022-09-28T11:53:07Z</time>
      </trkpt>
      <trkpt lat="46.5252" lon="6.54129">
        <ele>398.5</ele>
        <time>2022-09-28T11:53:08Z</time>
      </trkpt>
      <trkpt lat="46.52519" lon="6.54135">
        <ele>398.4</ele>
        <time>2022-09-28T11:53:09Z</time>
      </trkpt>
      <trkpt lat="46.52518" lon="6.5414">
        <ele>398.4</ele>
        <time>2022-09-28T11:53:10Z</time>
      </trkpt>
      <trkpt lat="46.52517" lon="6.54144">
        <ele>398.4</ele>
        <time>2022-09-28T11:53:11Z</time>
      </trkpt>
      <trkpt lat="46.52515" lon="6.54149">
        <ele>398.3</ele>
        <time>2022-09-28T11:53:12Z</time>
      </trkpt>
      <trkpt lat="46.52514" lon="6.54153">
        <ele>398.3</ele>
        <time>2022-09-28T11:53:13Z</time>
      </trkpt>
      <trkpt lat="46.52513" lon="6.54154">
        <ele>398.3</ele>
        <time>2022-09-28T11:53:14Z</time>
      </trkpt>
      <trkpt lat="46.52512" lon="6.54159">
        <ele>398.3</ele>
        <time>2022-09-28T11:53:15Z</time>
      </trkpt>
      <trkpt lat="46.52511" lon="6.54161">
        <ele>398.3</ele>
        <time>2022-09-28T11:53:16Z</time>
      </trkpt>
      <trkpt lat="46.52512" lon="6.54166">
        <ele>398.2</ele>
        <time>2022-09-28T11:53:17Z</time>
      </trkpt>
      <trkpt lat="46.52514" lon="6.54171">
        <ele>398.1</ele>
        <time>2022-09-28T11:53:18Z</time>
      </trkpt>
      <trkpt lat="46.52516" lon="6.54176">
        <ele>398.1</ele>
        <time>2022-09-28T11:53:19Z</time>
      </trkpt>
      <trkpt lat="46.5252" lon="6.5418">
        <ele>398</ele>
        <time>2022-09-28T11:53:20Z</time>
      </trkpt>
      <trkpt lat="46.52523" lon="6.54185">
        <ele>397.9</ele>
        <time>2022-09-28T11:53:21Z</time>
      </trkpt>
      <trkpt lat="46.52527" lon="6.54189">
        <ele>397.8</ele>
        <time>2022-09-28T11:53:22Z</time>
      </trkpt>
      <trkpt lat="46.52532" lon="6.54191">
        <ele>397.7</ele>
        <time>2022-09-28T11:53:23Z</time>
      </trkpt>
      <trkpt lat="46.52537" lon="6.54192">
        <ele>397.6</ele>
        <time>2022-09-28T11:53:24Z</time>
      </trkpt>
      <trkpt lat="46.52543" lon="6.54193">
        <ele>397.5</ele>
        <time>2022-09-28T11:53:25Z</time>
      </trkpt>
      <trkpt lat="46.52548" lon="6.54192">
        <ele>397.4</ele>
        <time>2022-09-28T11:53:26Z</time>
      </trkpt>
      <trkpt lat="46.52553" lon="6.54191">
        <ele>397.3</ele>
        <time>2022-09-28T11:53:27Z</time>
      </trkpt>
      <trkpt lat="46.52558" lon="6.54189">
        <ele>397.2</ele>
        <time>2022-09-28T11:53:28Z</time>
      </trkpt>
      <trkpt lat="46.52563" lon="6.54187">
        <ele>397.2</ele>
        <time>2022-09-28T11:53:29Z</time>
      </trkpt>
      <trkpt lat="46.52569" lon="6.54185">
        <ele>397.1</ele>
        <time>2022-09-28T11:53:30Z</time>
      </trkpt>
      <trkpt lat="46.52575" lon="6.54183">
        <ele>397.1</ele>
        <time>2022-09-28T11:53:31Z</time>
      </trkpt>
      <trkpt lat="46.5258" lon="6.54181">
        <ele>397.1</ele>
        <time>2022-09-28T11:53:32Z</time>
      </trkpt>
      <trkpt lat="46.52586" lon="6.54179">
        <ele>397.1</ele>
        <time>2022-09-28T11:53:33Z</time>
      </trkpt>
      <trkpt lat="46.52592" lon="6.54177">
        <ele>397.1</ele>
        <time>2022-09-28T11:53:34Z</time>
      </trkpt>
      <trkpt lat="46.52598" lon="6.54175">
        <ele>397.1</ele>
        <time>2022-09-28T11:53:35Z</time>
      </trkpt>
      <trkpt lat="46.52604" lon="6.54174">
        <ele>397.1</ele>
        <time>2022-09-28T11:53:36Z</time>
      </trkpt>
      <trkpt lat="46.52608" lon="6.54173">
        <ele>397.1</ele>
        <time>2022-09-28T11:53:37Z</time>
      </trkpt>
      <trkpt lat="46.52614" lon="6.54172">
        <ele>397.1</ele>
        <time>2022-09-28T11:53:38Z</time>
      </trkpt>
      <trkpt lat="46.5262" lon="6.54171">
        <ele>397.1</ele>
        <time>2022-09-28T11:53:39Z</time>
      </trkpt>
      <trkpt lat="46.52625" lon="6.5417">
        <ele>397.2</ele>
        <time>2022-09-28T11:53:40Z</time>
      </trkpt>
      <trkpt lat="46.52629" lon="6.5417">
        <ele>397.2</ele>
        <time>2022-09-28T11:53:41Z</time>
      </trkpt>
      <trkpt lat="46.52635" lon="6.5417">
        <ele>397.3</ele>
        <time>2022-09-28T11:53:42Z</time>
      </trkpt>
      <trkpt lat="46.5264" lon="6.5417">
        <ele>397.3</ele>
        <time>2022-09-28T11:53:43Z</time>
      </trkpt>
      <trkpt lat="46.52644" lon="6.54169">
        <ele>397.4</ele>
        <time>2022-09-28T11:53:44Z</time>
      </trkpt>
      <trkpt lat="46.52648" lon="6.54169">
        <ele>397.4</ele>
        <time>2022-09-28T11:53:45Z</time>
      </trkpt>
      <trkpt lat="46.52653" lon="6.54169">
        <ele>397.5</ele>
        <time>2022-09-28T11:53:46Z</time>
      </trkpt>
      <trkpt lat="46.52657" lon="6.54168">
        <ele>397.5</ele>
        <time>2022-09-28T11:53:47Z</time>
      </trkpt>
      <trkpt lat="46.52661" lon="6.54168">
        <ele>397.6</ele>
        <time>2022-09-28T11:53:48Z</time>
      </trkpt>
      <trkpt lat="46.52664" lon="6.54167">
        <ele>397.6</ele>
        <time>2022-09-28T11:53:49Z</time>
      </trkpt>
      <trkpt lat="46.52668" lon="6.54168">
        <ele>397.7</ele>
        <time>2022-09-28T11:53:50Z</time>
      </trkpt>
      <trkpt lat="46.52672" lon="6.54167">
        <ele>397.8</ele>
        <time>2022-09-28T11:53:51Z</time>
      </trkpt>
      <trkpt lat="46.52676" lon="6.54166">
        <ele>397.8</ele>
        <time>2022-09-28T11:53:52Z</time>
      </trkpt>
      <trkpt lat="46.52679" lon="6.54166">
        <ele>397.9</ele>
        <time>2022-09-28T11:53:53Z</time>
      </trkpt>
      <trkpt lat="46.52682" lon="6.54166">
        <ele>397.9</ele>
        <time>2022-09-28T11:53:54Z</time>
      </trkpt>
      <trkpt lat="46.52685" lon="6.54166">
        <ele>398</ele>
        <time>2022-09-28T11:53:55Z</time>
      </trkpt>
      <trkpt lat="46.52688" lon="6.54165">
        <ele>398.1</ele>
        <time>2022-09-28T11:53:56Z</time>
      </trkpt>
      <trkpt lat="46.52692" lon="6.54165">
        <ele>398.1</ele>
        <time>2022-09-28T11:53:57Z</time>
      </trkpt>
      <trkpt lat="46.52695" lon="6.54166">
        <ele>398.2</ele>
        <time>2022-09-28T11:53:58Z</time>
      </trkpt>
      <trkpt lat="46.52699" lon="6.54166">
        <ele>398.3</ele>
        <time>2022-09-28T11:53:59Z</time>
      </trkpt>
      <trkpt lat="46.52702" lon="6.54166">
        <ele>398.3</ele>
        <time>2022-09-28T11:54:00Z</time>
      </trkpt>
      <trkpt lat="46.52706" lon="6.54167">
        <ele>398.4</ele>
        <time>2022-09-28T11:54:01Z</time>
      </trkpt>
      <trkpt lat="46.5271" lon="6.54167">
        <ele>398.6</ele>
        <time>2022-09-28T11:54:02Z</time>
      </trkpt>
      <trkpt lat="46.52715" lon="6.54167">
        <ele>398.7</ele>
        <time>2022-09-28T11:54:03Z</time>
      </trkpt>
      <trkpt lat="46.52719" lon="6.54167">
        <ele>398.8</ele>
        <time>2022-09-28T11:54:04Z</time>
      </trkpt>
      <trkpt lat="46.52722" lon="6.54168">
        <ele>398.9</ele>
        <time>2022-09-28T11:54:05Z</time>
      </trkpt>
      <trkpt lat="46.52726" lon="6.54168">
        <ele>399</ele>
        <time>2022-09-28T11:54:06Z</time>
      </trkpt>
      <trkpt lat="46.52729" lon="6.54168">
        <ele>399.2</ele>
        <time>2022-09-28T11:54:07Z</time>
      </trkpt>
      <trkpt lat="46.52732" lon="6.54168">
        <ele>399.4</ele>
        <time>2022-09-28T11:54:08Z</time>
      </trkpt>
      <trkpt lat="46.52736" lon="6.54168">
        <ele>399.6</ele>
        <time>2022-09-28T11:54:09Z</time>
      </trkpt>
      <trkpt lat="46.52738" lon="6.54168">
        <ele>399.7</ele>
        <time>2022-09-28T11:54:10Z</time>
      </trkpt>
      <trkpt lat="46.5274" lon="6.54168">
        <ele>399.9</ele>
        <time>2022-09-28T11:54:11Z</time>
      </trkpt>
      <trkpt lat="46.52744" lon="6.54169">
        <ele>400.1</ele>
        <time>2022-09-28T11:54:12Z</time>
      </trkpt>
      <trkpt lat="46.52747" lon="6.54169">
        <ele>400.3</ele>
        <time>2022-09-28T11:54:13Z</time>
      </trkpt>
      <trkpt lat="46.52748" lon="6.54168">
        <ele>400.4</ele>
        <time>2022-09-28T11:54:14Z</time>
      </trkpt>
      <trkpt lat="46.52752" lon="6.54169">
        <ele>400.6</ele>
        <time>2022-09-28T11:54:15Z</time>
      </trkpt>
      <trkpt lat="46.52753" lon="6.54169">
        <ele>400.7</ele>
        <time>2022-09-28T11:54:16Z</time>
      </trkpt>
      <trkpt lat="46.52757" lon="6.54169">
        <ele>401</ele>
        <time>2022-09-28T11:54:17Z</time>
      </trkpt>
      <trkpt lat="46.52758" lon="6.54169">
        <ele>401</ele>
        <time>2022-09-28T11:54:18Z</time>
      </trkpt>
      <trkpt lat="46.52762" lon="6.5417">
        <ele>401.3</ele>
        <time>2022-09-28T11:54:19Z</time>
      </trkpt>
      <trkpt lat="46.52763" lon="6.5417">
        <ele>401.4</ele>
        <time>2022-09-28T11:54:20Z</time>
      </trkpt>
      <trkpt lat="46.52766" lon="6.5417">
        <ele>401.6</ele>
        <time>2022-09-28T11:54:21Z</time>
      </trkpt>
      <trkpt lat="46.52767" lon="6.5417">
        <ele>401.7</ele>
        <time>2022-09-28T11:54:22Z</time>
      </trkpt>
      <trkpt lat="46.52771" lon="6.5417">
        <ele>401.9</ele>
        <time>2022-09-28T11:54:23Z</time>
      </trkpt>
      <trkpt lat="46.52772" lon="6.5417">
        <ele>402</ele>
        <time>2022-09-28T11:54:24Z</time>
      </trkpt>
      <trkpt lat="46.52775" lon="6.5417">
        <ele>402.2</ele>
        <time>2022-09-28T11:54:25Z</time>
      </trkpt>
      <trkpt lat="46.52776" lon="6.5417">
        <ele>402.3</ele>
        <time>2022-09-28T11:54:26Z</time>
      </trkpt>
      <trkpt lat="46.52779" lon="6.5417">
        <ele>402.5</ele>
        <time>2022-09-28T11:54:27Z</time>
      </trkpt>
      <trkpt lat="46.5278" lon="6.5417">
        <ele>402.5</ele>
        <time>2022-09-28T11:54:28Z</time>
      </trkpt>
      <trkpt lat="46.52784" lon="6.5417">
        <ele>402.8</ele>
        <time>2022-09-28T11:54:29Z</time>
      </trkpt>
      <trkpt lat="46.52785" lon="6.54171">
        <ele>402.8</ele>
        <time>2022-09-28T11:54:30Z</time>
      </trkpt>
      <trkpt lat="46.52788" lon="6.54171">
        <ele>403</ele>
        <time>2022-09-28T11:54:31Z</time>
      </trkpt>
      <trkpt lat="46.52789" lon="6.54171">
        <ele>403.1</ele>
        <time>2022-09-28T11:54:32Z</time>
      </trkpt>
      <trkpt lat="46.52792" lon="6.54171">
        <ele>403.3</ele>
        <time>2022-09-28T11:54:33Z</time>
      </trkpt>
      <trkpt lat="46.52794" lon="6.54171">
        <ele>403.3</ele>
        <time>2022-09-28T11:54:34Z</time>
      </trkpt>
      <trkpt lat="46.52797" lon="6.54171">
        <ele>403.5</ele>
        <time>2022-09-28T11:54:35Z</time>
      </trkpt>
      <trkpt lat="46.52798" lon="6.54171">
        <ele>403.6</ele>
        <time>2022-09-28T11:54:36Z</time>
      </trkpt>
      <trkpt lat="46.52801" lon="6.54171">
        <ele>403.8</ele>
        <time>2022-09-28T11:54:37Z</time>
      </trkpt>
      <trkpt lat="46.52802" lon="6.54171">
        <ele>403.8</ele>
        <time>2022-09-28T11:54:38Z</time>
      </trkpt>
      <trkpt lat="46.52805" lon="6.54171">
        <ele>404</ele>
        <time>2022-09-28T11:54:39Z</time>
      </trkpt>
      <trkpt lat="46.52806" lon="6.54171">
        <ele>404.1</ele>
        <time>2022-09-28T11:54:40Z</time>
      </trkpt>
      <trkpt lat="46.5281" lon="6.54171">
        <ele>404.3</ele>
        <time>2022-09-28T11:54:41Z</time>
      </trkpt>
      <trkpt lat="46.52811" lon="6.54171">
        <ele>404.4</ele>
        <time>2022-09-28T11:54:42Z</time>
      </trkpt>
      <trkpt lat="46.52814" lon="6.54171">
        <ele>404.5</ele>
        <time>2022-09-28T11:54:43Z</time>
      </trkpt>
      <trkpt lat="46.52815" lon="6.54171">
        <ele>404.6</ele>
        <time>2022-09-28T11:54:44Z</time>
      </trkpt>
      <trkpt lat="46.52818" lon="6.54172">
        <ele>404.8</ele>
        <time>2022-09-28T11:54:45Z</time>
      </trkpt>
      <trkpt lat="46.5282" lon="6.54172">
        <ele>404.9</ele>
        <time>2022-09-28T11:54:46Z</time>
      </trkpt>
      <trkpt lat="46.52823" lon="6.54171">
        <ele>405.1</ele>
        <time>2022-09-28T11:54:47Z</time>
      </trkpt>
      <trkpt lat="46.52824" lon="6.54171">
        <ele>405.1</ele>
        <time>2022-09-28T11:54:48Z</time>
      </trkpt>
      <trkpt lat="46.52827" lon="6.54171">
        <ele>405.3</ele>
        <time>2022-09-28T11:54:49Z</time>
      </trkpt>
      <trkpt lat="46.52828" lon="6.54171">
        <ele>405.4</ele>
        <time>2022-09-28T11:54:50Z</time>
      </trkpt>
      <trkpt lat="46.52831" lon="6.54172">
        <ele>405.6</ele>
        <time>2022-09-28T11:54:51Z</time>
      </trkpt>
      <trkpt lat="46.52832" lon="6.54172">
        <ele>405.6</ele>
        <time>2022-09-28T11:54:52Z</time>
      </trkpt>
      <trkpt lat="46.52835" lon="6.54172">
        <ele>405.8</ele>
        <time>2022-09-28T11:54:53Z</time>
      </trkpt>
      <trkpt lat="46.52836" lon="6.54172">
        <ele>405.8</ele>
        <time>2022-09-28T11:54:54Z</time>
      </trkpt>
      <trkpt lat="46.52839" lon="6.54172">
        <ele>406</ele>
        <time>2022-09-28T11:54:55Z</time>
      </trkpt>
      <trkpt lat="46.5284" lon="6.54173">
        <ele>406</ele>
        <time>2022-09-28T11:54:56Z</time>
      </trkpt>
      <trkpt lat="46.52844" lon="6.54173">
        <ele>406.2</ele>
        <time>2022-09-28T11:54:57Z</time>
      </trkpt>
      <trkpt lat="46.52845" lon="6.54172">
        <ele>406.2</ele>
        <time>2022-09-28T11:54:58Z</time>
      </trkpt>
      <trkpt lat="46.52848" lon="6.54172">
        <ele>406.4</ele>
        <time>2022-09-28T11:54:59Z</time>
      </trkpt>
      <trkpt lat="46.52849" lon="6.54173">
        <ele>406.5</ele>
        <time>2022-09-28T11:55:00Z</time>
      </trkpt>
      <trkpt lat="46.52852" lon="6.54173">
        <ele>406.6</ele>
        <time>2022-09-28T11:55:01Z</time>
      </trkpt>
      <trkpt lat="46.52853" lon="6.54173">
        <ele>406.6</ele>
        <time>2022-09-28T11:55:02Z</time>
      </trkpt>
      <trkpt lat="46.52856" lon="6.54173">
        <ele>406.8</ele>
        <time>2022-09-28T11:55:03Z</time>
      </trkpt>
      <trkpt lat="46.52857" lon="6.54173">
        <ele>406.8</ele>
        <time>2022-09-28T11:55:04Z</time>
      </trkpt>
      <trkpt lat="46.52861" lon="6.54173">
        <ele>407</ele>
        <time>2022-09-28T11:55:05Z</time>
      </trkpt>
      <trkpt lat="46.52862" lon="6.54173">
        <ele>407</ele>
        <time>2022-09-28T11:55:06Z</time>
      </trkpt>
      <trkpt lat="46.52865" lon="6.54173">
        <ele>407.1</ele>
        <time>2022-09-28T11:55:07Z</time>
      </trkpt>
      <trkpt lat="46.52866" lon="6.54173">
        <ele>407.2</ele>
        <time>2022-09-28T11:55:08Z</time>
      </trkpt>
      <trkpt lat="46.52869" lon="6.54173">
        <ele>407.3</ele>
        <time>2022-09-28T11:55:09Z</time>
      </trkpt>
      <trkpt lat="46.5287" lon="6.54173">
        <ele>407.3</ele>
        <time>2022-09-28T11:55:10Z</time>
      </trkpt>
      <trkpt lat="46.52874" lon="6.54172">
        <ele>407.4</ele>
        <time>2022-09-28T11:55:11Z</time>
      </trkpt>
      <trkpt lat="46.52875" lon="6.54172">
        <ele>407.5</ele>
        <time>2022-09-28T11:55:12Z</time>
      </trkpt>
      <trkpt lat="46.52878" lon="6.54172">
        <ele>407.6</ele>
        <time>2022-09-28T11:55:13Z</time>
      </trkpt>
      <trkpt lat="46.5288" lon="6.54172">
        <ele>407.6</ele>
        <time>2022-09-28T11:55:14Z</time>
      </trkpt>
      <trkpt lat="46.52883" lon="6.54172">
        <ele>407.7</ele>
        <time>2022-09-28T11:55:15Z</time>
      </trkpt>
      <trkpt lat="46.52885" lon="6.54172">
        <ele>407.7</ele>
        <time>2022-09-28T11:55:16Z</time>
      </trkpt>
      <trkpt lat="46.52888" lon="6.54173">
        <ele>407.8</ele>
        <time>2022-09-28T11:55:17Z</time>
      </trkpt>
      <trkpt lat="46.5289" lon="6.54173">
        <ele>407.8</ele>
        <time>2022-09-28T11:55:18Z</time>
      </trkpt>
      <trkpt lat="46.52893" lon="6.54173">
        <ele>407.9</ele>
        <time>2022-09-28T11:55:19Z</time>
      </trkpt>
      <trkpt lat="46.52896" lon="6.54173">
        <ele>408</ele>
        <time>2022-09-28T11:55:20Z</time>
      </trkpt>
      <trkpt lat="46.52897" lon="6.54173">
        <ele>408</ele>
        <time>2022-09-28T11:55:21Z</time>
      </trkpt>
      <trkpt lat="46.529" lon="6.54174">
        <ele>408.1</ele>
        <time>2022-09-28T11:55:22Z</time>
      </trkpt>
      <trkpt lat="46.52903" lon="6.54174">
        <ele>408.1</ele>
        <time>2022-09-28T11:55:23Z</time>
      </trkpt>
      <trkpt lat="46.52906" lon="6.54174">
        <ele>408.2</ele>
        <time>2022-09-28T11:55:24Z</time>
      </trkpt>
      <trkpt lat="46.5291" lon="6.54174">
        <ele>408.2</ele>
        <time>2022-09-28T11:55:25Z</time>
      </trkpt>
      <trkpt lat="46.52911" lon="6.54174">
        <ele>408.3</ele>
        <time>2022-09-28T11:55:26Z</time>
      </trkpt>
      <trkpt lat="46.52915" lon="6.54174">
        <ele>408.3</ele>
        <time>2022-09-28T11:55:27Z</time>
      </trkpt>
      <trkpt lat="46.52917" lon="6.54175">
        <ele>408.4</ele>
        <time>2022-09-28T11:55:28Z</time>
      </trkpt>
      <trkpt lat="46.52919" lon="6.54175">
        <ele>408.4</ele>
        <time>2022-09-28T11:55:29Z</time>
      </trkpt>
      <trkpt lat="46.52923" lon="6.54175">
        <ele>408.5</ele>
        <time>2022-09-28T11:55:30Z</time>
      </trkpt>
      <trkpt lat="46.52926" lon="6.54175">
        <ele>408.5</ele>
        <time>2022-09-28T11:55:31Z</time>
      </trkpt>
      <trkpt lat="46.5293" lon="6.54175">
        <ele>408.5</ele>
        <time>2022-09-28T11:55:32Z</time>
      </trkpt>
      <trkpt lat="46.52932" lon="6.54176">
        <ele>408.6</ele>
        <time>2022-09-28T11:55:33Z</time>
      </trkpt>
      <trkpt lat="46.52935" lon="6.54176">
        <ele>408.6</ele>
        <time>2022-09-28T11:55:34Z</time>
      </trkpt>
      <trkpt lat="46.52938" lon="6.54176">
        <ele>408.7</ele>
        <time>2022-09-28T11:55:35Z</time>
      </trkpt>
      <trkpt lat="46.52942" lon="6.54176">
        <ele>408.7</ele>
        <time>2022-09-28T11:55:36Z</time>
      </trkpt>
      <trkpt lat="46.52945" lon="6.54176">
        <ele>408.7</ele>
        <time>2022-09-28T11:55:37Z</time>
      </trkpt>
      <trkpt lat="46.52949" lon="6.54176">
        <ele>408.7</ele>
        <time>2022-09-28T11:55:38Z</time>
      </trkpt>
      <trkpt lat="46.52953" lon="6.54176">
        <ele>408.7</ele>
        <time>2022-09-28T11:55:39Z</time>
      </trkpt>
      <trkpt lat="46.52956" lon="6.54176">
        <ele>408.7</ele>
        <time>2022-09-28T11:55:40Z</time>
      </trkpt>
      <trkpt lat="46.5296" lon="6.54176">
        <ele>408.8</ele>
        <time>2022-09-28T11:55:41Z</time>
      </trkpt>
      <trkpt lat="46.52964" lon="6.54176">
        <ele>408.8</ele>
        <time>2022-09-28T11:55:42Z</time>
      </trkpt>
      <trkpt lat="46.52968" lon="6.54177">
        <ele>408.8</ele>
        <time>2022-09-28T11:55:43Z</time>
      </trkpt>
      <trkpt lat="46.52972" lon="6.54177">
        <ele>408.8</ele>
        <time>2022-09-28T11:55:44Z</time>
      </trkpt>
      <trkpt lat="46.52976" lon="6.54177">
        <ele>408.8</ele>
        <time>2022-09-28T11:55:45Z</time>
      </trkpt>
      <trkpt lat="46.52979" lon="6.54177">
        <ele>408.8</ele>
        <time>2022-09-28T11:55:46Z</time>
      </trkpt>
      <trkpt lat="46.52983" lon="6.54177">
        <ele>408.8</ele>
        <time>2022-09-28T11:55:47Z</time>
      </trkpt>
      <trkpt lat="46.52987" lon="6.54178">
        <ele>408.8</ele>
        <time>2022-09-28T11:55:48Z</time>
      </trkpt>
      <trkpt lat="46.52991" lon="6.54177">
        <ele>408.8</ele>
        <time>2022-09-28T11:55:49Z</time>
      </trkpt>
      <trkpt lat="46.52995" lon="6.54178">
        <ele>408.9</ele>
        <time>2022-09-28T11:55:50Z</time>
      </trkpt>
      <trkpt lat="46.52999" lon="6.54177">
        <ele>408.9</ele>
        <time>2022-09-28T11:55:51Z</time>
      </trkpt>
      <trkpt lat="46.53003" lon="6.54178">
        <ele>408.9</ele>
        <time>2022-09-28T11:55:52Z</time>
      </trkpt>
      <trkpt lat="46.53006" lon="6.54179">
        <ele>408.9</ele>
        <time>2022-09-28T11:55:53Z</time>
      </trkpt>
      <trkpt lat="46.5301" lon="6.54178">
        <ele>408.9</ele>
        <time>2022-09-28T11:55:54Z</time>
      </trkpt>
      <trkpt lat="46.53013" lon="6.54178">
        <ele>409</ele>
        <time>2022-09-28T11:55:55Z</time>
      </trkpt>
      <trkpt lat="46.53016" lon="6.54178">
        <ele>409</ele>
        <time>2022-09-28T11:55:56Z</time>
      </trkpt>
      <trkpt lat="46.5302" lon="6.54178">
        <ele>409</ele>
        <time>2022-09-28T11:55:57Z</time>
      </trkpt>
      <trkpt lat="46.53023" lon="6.54179">
        <ele>409.1</ele>
        <time>2022-09-28T11:55:58Z</time>
      </trkpt>
      <trkpt lat="46.53026" lon="6.5418">
        <ele>409.1</ele>
        <time>2022-09-28T11:55:59Z</time>
      </trkpt>
      <trkpt lat="46.53028" lon="6.54184">
        <ele>409.2</ele>
        <time>2022-09-28T11:56:00Z</time>
      </trkpt>
      <trkpt lat="46.53031" lon="6.54187">
        <ele>409.2</ele>
        <time>2022-09-28T11:56:01Z</time>
      </trkpt>
      <trkpt lat="46.53034" lon="6.5419">
        <ele>409.2</ele>
        <time>2022-09-28T11:56:02Z</time>
      </trkpt>
      <trkpt lat="46.53037" lon="6.54192">
        <ele>409.2</ele>
        <time>2022-09-28T11:56:03Z</time>
      </trkpt>
      <trkpt lat="46.5304" lon="6.54194">
        <ele>409.2</ele>
        <time>2022-09-28T11:56:04Z</time>
      </trkpt>
      <trkpt lat="46.53043" lon="6.54195">
        <ele>409.3</ele>
        <time>2022-09-28T11:56:05Z</time>
      </trkpt>
      <trkpt lat="46.53046" lon="6.54195">
        <ele>409.4</ele>
        <time>2022-09-28T11:56:06Z</time>
      </trkpt>
      <trkpt lat="46.53048" lon="6.54192">
        <ele>409.4</ele>
        <time>2022-09-28T11:56:07Z</time>
      </trkpt>
      <trkpt lat="46.53051" lon="6.54188">
        <ele>409.5</ele>
        <time>2022-09-28T11:56:08Z</time>
      </trkpt>
      <trkpt lat="46.53052" lon="6.54187">
        <ele>409.6</ele>
        <time>2022-09-28T11:56:09Z</time>
      </trkpt>
      <trkpt lat="46.53056" lon="6.54184">
        <ele>409.8</ele>
        <time>2022-09-28T11:56:10Z</time>
      </trkpt>
      <trkpt lat="46.53059" lon="6.54183">
        <ele>409.8</ele>
        <time>2022-09-28T11:56:11Z</time>
      </trkpt>
      <trkpt lat="46.53063" lon="6.54182">
        <ele>409.9</ele>
        <time>2022-09-28T11:56:12Z</time>
      </trkpt>
      <trkpt lat="46.53065" lon="6.54184">
        <ele>410</ele>
        <time>2022-09-28T11:56:13Z</time>
      </trkpt>
      <trkpt lat="46.53066" lon="6.54184">
        <ele>410</ele>
        <time>2022-09-28T11:56:14Z</time>
      </trkpt>
      <trkpt lat="46.53067" lon="6.54183">
        <ele>410</ele>
        <time>2022-09-28T11:56:15Z</time>
      </trkpt>
      <trkpt lat="46.53067" lon="6.54183">
        <ele>410</ele>
        <time>2022-09-28T11:56:16Z</time>
      </trkpt>
      <trkpt lat="46.53068" lon="6.54182">
        <ele>410</ele>
        <time>2022-09-28T11:56:17Z</time>
      </trkpt>
      <trkpt lat="46.53068" lon="6.54182">
        <ele>410.1</ele>
        <time>2022-09-28T11:56:18Z</time>
      </trkpt>
      <trkpt lat="46.53068" lon="6.54182">
        <ele>410.1</ele>
        <time>2022-09-28T11:56:19Z</time>
      </trkpt>
      <trkpt lat="46.53069" lon="6.54181">
        <ele>410.1</ele>
        <time>2022-09-28T11:56:20Z</time>
      </trkpt>
      <trkpt lat="46.53069" lon="6.54181">
        <ele>410.1</ele>
        <time>2022-09-28T11:56:21Z</time>
      </trkpt>
      <trkpt lat="46.53069" lon="6.54181">
        <ele>410.1</ele>
        <time>2022-09-28T11:56:22Z</time>
      </trkpt>
      <trkpt lat="46.53069" lon="6.5418">
        <ele>410.1</ele>
        <time>2022-09-28T11:56:23Z</time>
      </trkpt>
      <trkpt lat="46.5307" lon="6.5418">
        <ele>410.1</ele>
        <time>2022-09-28T11:56:24Z</time>
      </trkpt>
      <trkpt lat="46.5307" lon="6.5418">
        <ele>410.1</ele>
        <time>2022-09-28T11:56:25Z</time>
      </trkpt>
      <trkpt lat="46.5307" lon="6.54179">
        <ele>410.1</ele>
        <time>2022-09-28T11:57:24Z</time>
      </trkpt>
      <trkpt lat="46.53071" lon="6.54179">
        <ele>410.1</ele>
        <time>2022-09-28T11:57:25Z</time>
      </trkpt>
      <trkpt lat="46.53074" lon="6.54178">
        <ele>410.2</ele>
        <time>2022-09-28T11:57:26Z</time>
      </trkpt>
      <trkpt lat="46.53076" lon="6.54178">
        <ele>410.3</ele>
        <time>2022-09-28T11:57:27Z</time>
      </trkpt>
      <trkpt lat="46.53079" lon="6.54177">
        <ele>410.3</ele>
        <time>2022-09-28T11:57:28Z</time>
      </trkpt>
      <trkpt lat="46.53082" lon="6.54176">
        <ele>410.4</ele>
        <time>2022-09-28T11:57:29Z</time>
      </trkpt>
      <trkpt lat="46.53083" lon="6.54175">
        <ele>410.4</ele>
        <time>2022-09-28T11:57:30Z</time>
      </trkpt>
      <trkpt lat="46.53086" lon="6.54175">
        <ele>410.5</ele>
        <time>2022-09-28T11:57:31Z</time>
      </trkpt>
      <trkpt lat="46.53087" lon="6.54175">
        <ele>410.6</ele>
        <time>2022-09-28T11:57:32Z</time>
      </trkpt>
      <trkpt lat="46.53091" lon="6.54175">
        <ele>410.9</ele>
        <time>2022-09-28T11:57:33Z</time>
      </trkpt>
      <trkpt lat="46.53092" lon="6.54175">
        <ele>411</ele>
        <time>2022-09-28T11:57:34Z</time>
      </trkpt>
      <trkpt lat="46.53095" lon="6.54174">
        <ele>411.2</ele>
        <time>2022-09-28T11:57:35Z</time>
      </trkpt>
      <trkpt lat="46.53096" lon="6.54174">
        <ele>411.3</ele>
        <time>2022-09-28T11:57:36Z</time>
      </trkpt>
      <trkpt lat="46.53099" lon="6.54173">
        <ele>411.5</ele>
        <time>2022-09-28T11:57:37Z</time>
      </trkpt>
      <trkpt lat="46.53099" lon="6.54173">
        <ele>411.6</ele>
        <time>2022-09-28T11:57:38Z</time>
      </trkpt>
      <trkpt lat="46.53102" lon="6.54172">
        <ele>411.9</ele>
        <time>2022-09-28T11:57:39Z</time>
      </trkpt>
      <trkpt lat="46.53103" lon="6.54171">
        <ele>411.9</ele>
        <time>2022-09-28T11:57:40Z</time>
      </trkpt>
      <trkpt lat="46.53106" lon="6.5417">
        <ele>412.2</ele>
        <time>2022-09-28T11:57:41Z</time>
      </trkpt>
      <trkpt lat="46.53107" lon="6.54169">
        <ele>412.4</ele>
        <time>2022-09-28T11:57:42Z</time>
      </trkpt>
      <trkpt lat="46.5311" lon="6.54168">
        <ele>412.6</ele>
        <time>2022-09-28T11:57:43Z</time>
      </trkpt>
      <trkpt lat="46.53111" lon="6.54167">
        <ele>412.7</ele>
        <time>2022-09-28T11:57:44Z</time>
      </trkpt>
      <trkpt lat="46.53113" lon="6.54167">
        <ele>412.9</ele>
        <time>2022-09-28T11:57:45Z</time>
      </trkpt>
      <trkpt lat="46.53115" lon="6.54166">
        <ele>413</ele>
        <time>2022-09-28T11:57:46Z</time>
      </trkpt>
      <trkpt lat="46.53116" lon="6.54166">
        <ele>413.2</ele>
        <time>2022-09-28T11:57:47Z</time>
      </trkpt>
      <trkpt lat="46.53118" lon="6.54166">
        <ele>413.3</ele>
        <time>2022-09-28T11:57:48Z</time>
      </trkpt>
      <trkpt lat="46.5312" lon="6.54165">
        <ele>413.4</ele>
        <time>2022-09-28T11:57:49Z</time>
      </trkpt>
      <trkpt lat="46.53121" lon="6.54165">
        <ele>413.4</ele>
        <time>2022-09-28T11:57:50Z</time>
      </trkpt>
      <trkpt lat="46.53124" lon="6.54164">
        <ele>413.4</ele>
        <time>2022-09-28T11:57:51Z</time>
      </trkpt>
      <trkpt lat="46.53125" lon="6.54163">
        <ele>413.5</ele>
        <time>2022-09-28T11:57:52Z</time>
      </trkpt>
      <trkpt lat="46.53126" lon="6.54163">
        <ele>413.6</ele>
        <time>2022-09-28T11:57:53Z</time>
      </trkpt>
      <trkpt lat="46.53128" lon="6.54162">
        <ele>413.8</ele>
        <time>2022-09-28T11:57:54Z</time>
      </trkpt>
      <trkpt lat="46.53131" lon="6.54161">
        <ele>414.2</ele>
        <time>2022-09-28T11:57:55Z</time>
      </trkpt>
      <trkpt lat="46.53132" lon="6.54161">
        <ele>414.2</ele>
        <time>2022-09-28T11:57:56Z</time>
      </trkpt>
      <trkpt lat="46.53134" lon="6.54159">
        <ele>414.5</ele>
        <time>2022-09-28T11:57:57Z</time>
      </trkpt>
      <trkpt lat="46.53135" lon="6.54159">
        <ele>414.6</ele>
        <time>2022-09-28T11:57:58Z</time>
      </trkpt>
      <trkpt lat="46.53138" lon="6.54158">
        <ele>414.9</ele>
        <time>2022-09-28T11:57:59Z</time>
      </trkpt>
      <trkpt lat="46.53139" lon="6.54157">
        <ele>415</ele>
        <time>2022-09-28T11:58:00Z</time>
      </trkpt>
      <trkpt lat="46.5314" lon="6.54157">
        <ele>415.2</ele>
        <time>2022-09-28T11:58:01Z</time>
      </trkpt>
      <trkpt lat="46.53142" lon="6.54156">
        <ele>415.3</ele>
        <time>2022-09-28T11:58:02Z</time>
      </trkpt>
      <trkpt lat="46.53143" lon="6.54156">
        <ele>415.5</ele>
        <time>2022-09-28T11:58:04Z</time>
      </trkpt>
      <trkpt lat="46.53145" lon="6.54155">
        <ele>415.7</ele>
        <time>2022-09-28T11:58:05Z</time>
      </trkpt>
      <trkpt lat="46.53146" lon="6.54155">
        <ele>415.8</ele>
        <time>2022-09-28T11:58:06Z</time>
      </trkpt>
      <trkpt lat="46.53148" lon="6.54154">
        <ele>416</ele>
        <time>2022-09-28T11:58:07Z</time>
      </trkpt>
      <trkpt lat="46.53149" lon="6.54153">
        <ele>416.2</ele>
        <time>2022-09-28T11:58:08Z</time>
      </trkpt>
      <trkpt lat="46.53152" lon="6.54152">
        <ele>416.5</ele>
        <time>2022-09-28T11:58:09Z</time>
      </trkpt>
      <trkpt lat="46.53154" lon="6.54151">
        <ele>416.7</ele>
        <time>2022-09-28T11:58:10Z</time>
      </trkpt>
      <trkpt lat="46.53156" lon="6.5415">
        <ele>416.9</ele>
        <time>2022-09-28T11:58:11Z</time>
      </trkpt>
      <trkpt lat="46.53157" lon="6.54149">
        <ele>417.1</ele>
        <time>2022-09-28T11:58:12Z</time>
      </trkpt>
      <trkpt lat="46.53161" lon="6.54147">
        <ele>417.4</ele>
        <time>2022-09-28T11:58:13Z</time>
      </trkpt>
      <trkpt lat="46.53162" lon="6.54146">
        <ele>417.6</ele>
        <time>2022-09-28T11:58:14Z</time>
      </trkpt>
      <trkpt lat="46.53164" lon="6.54145">
        <ele>417.9</ele>
        <time>2022-09-28T11:58:15Z</time>
      </trkpt>
      <trkpt lat="46.53165" lon="6.54144">
        <ele>417.9</ele>
        <time>2022-09-28T11:58:16Z</time>
      </trkpt>
      <trkpt lat="46.53166" lon="6.54144">
        <ele>418.1</ele>
        <time>2022-09-28T11:58:17Z</time>
      </trkpt>
      <trkpt lat="46.53168" lon="6.54143">
        <ele>418.2</ele>
        <time>2022-09-28T11:58:18Z</time>
      </trkpt>
      <trkpt lat="46.5317" lon="6.54142">
        <ele>418.4</ele>
        <time>2022-09-28T11:58:19Z</time>
      </trkpt>
      <trkpt lat="46.53171" lon="6.54141">
        <ele>418.5</ele>
        <time>2022-09-28T11:58:20Z</time>
      </trkpt>
      <trkpt lat="46.53172" lon="6.54139">
        <ele>418.7</ele>
        <time>2022-09-28T11:58:21Z</time>
      </trkpt>
      <trkpt lat="46.53174" lon="6.54138">
        <ele>418.8</ele>
        <time>2022-09-28T11:58:22Z</time>
      </trkpt>
      <trkpt lat="46.53175" lon="6.54138">
        <ele>418.9</ele>
        <time>2022-09-28T11:58:23Z</time>
      </trkpt>
      <trkpt lat="46.53177" lon="6.54136">
        <ele>419.1</ele>
        <time>2022-09-28T11:58:24Z</time>
      </trkpt>
      <trkpt lat="46.53178" lon="6.54136">
        <ele>419.2</ele>
        <time>2022-09-28T11:58:25Z</time>
      </trkpt>
      <trkpt lat="46.5318" lon="6.54135">
        <ele>419.4</ele>
        <time>2022-09-28T11:58:26Z</time>
      </trkpt>
      <trkpt lat="46.53183" lon="6.54134">
        <ele>419.7</ele>
        <time>2022-09-28T11:58:27Z</time>
      </trkpt>
      <trkpt lat="46.53184" lon="6.54133">
        <ele>419.8</ele>
        <time>2022-09-28T11:58:28Z</time>
      </trkpt>
      <trkpt lat="46.53185" lon="6.54132">
        <ele>420</ele>
        <time>2022-09-28T11:58:29Z</time>
      </trkpt>
      <trkpt lat="46.53187" lon="6.54131">
        <ele>420.1</ele>
        <time>2022-09-28T11:58:30Z</time>
      </trkpt>
      <trkpt lat="46.5319" lon="6.5413">
        <ele>420.4</ele>
        <time>2022-09-28T11:58:31Z</time>
      </trkpt>
      <trkpt lat="46.53191" lon="6.54129">
        <ele>420.5</ele>
        <time>2022-09-28T11:58:32Z</time>
      </trkpt>
      <trkpt lat="46.53194" lon="6.54127">
        <ele>420.7</ele>
        <time>2022-09-28T11:58:33Z</time>
      </trkpt>
      <trkpt lat="46.53194" lon="6.54127">
        <ele>420.8</ele>
        <time>2022-09-28T11:58:34Z</time>
      </trkpt>
      <trkpt lat="46.53198" lon="6.54125">
        <ele>421.1</ele>
        <time>2022-09-28T11:58:35Z</time>
      </trkpt>
      <trkpt lat="46.53198" lon="6.54125">
        <ele>421.2</ele>
        <time>2022-09-28T11:58:36Z</time>
      </trkpt>
      <trkpt lat="46.53201" lon="6.54123">
        <ele>421.4</ele>
        <time>2022-09-28T11:58:37Z</time>
      </trkpt>
      <trkpt lat="46.53202" lon="6.54123">
        <ele>421.5</ele>
        <time>2022-09-28T11:58:38Z</time>
      </trkpt>
      <trkpt lat="46.53205" lon="6.54121">
        <ele>421.8</ele>
        <time>2022-09-28T11:58:39Z</time>
      </trkpt>
      <trkpt lat="46.53206" lon="6.54121">
        <ele>421.9</ele>
        <time>2022-09-28T11:58:40Z</time>
      </trkpt>
      <trkpt lat="46.53209" lon="6.54119">
        <ele>422.1</ele>
        <time>2022-09-28T11:58:41Z</time>
      </trkpt>
      <trkpt lat="46.5321" lon="6.54118">
        <ele>422.2</ele>
        <time>2022-09-28T11:58:42Z</time>
      </trkpt>
      <trkpt lat="46.53213" lon="6.54116">
        <ele>422.4</ele>
        <time>2022-09-28T11:58:43Z</time>
      </trkpt>
      <trkpt lat="46.53214" lon="6.54116">
        <ele>422.5</ele>
        <time>2022-09-28T11:58:44Z</time>
      </trkpt>
      <trkpt lat="46.53216" lon="6.54115">
        <ele>422.7</ele>
        <time>2022-09-28T11:58:45Z</time>
      </trkpt>
      <trkpt lat="46.5322" lon="6.54113">
        <ele>423</ele>
        <time>2022-09-28T11:58:46Z</time>
      </trkpt>
      <trkpt lat="46.53222" lon="6.54112">
        <ele>423.1</ele>
        <time>2022-09-28T11:58:47Z</time>
      </trkpt>
      <trkpt lat="46.53225" lon="6.54112">
        <ele>423.2</ele>
        <time>2022-09-28T11:58:48Z</time>
      </trkpt>
      <trkpt lat="46.53225" lon="6.54112">
        <ele>423.3</ele>
        <time>2022-09-28T11:58:49Z</time>
      </trkpt>
      <trkpt lat="46.53227" lon="6.54112">
        <ele>423.3</ele>
        <time>2022-09-28T11:58:50Z</time>
      </trkpt>
      <trkpt lat="46.53229" lon="6.54111">
        <ele>423.3</ele>
        <time>2022-09-28T11:58:51Z</time>
      </trkpt>
      <trkpt lat="46.53232" lon="6.5411">
        <ele>423.4</ele>
        <time>2022-09-28T11:58:52Z</time>
      </trkpt>
      <trkpt lat="46.53233" lon="6.5411">
        <ele>423.5</ele>
        <time>2022-09-28T11:58:53Z</time>
      </trkpt>
      <trkpt lat="46.53236" lon="6.54109">
        <ele>423.6</ele>
        <time>2022-09-28T11:58:54Z</time>
      </trkpt>
      <trkpt lat="46.5324" lon="6.54108">
        <ele>423.7</ele>
        <time>2022-09-28T11:58:55Z</time>
      </trkpt>
      <trkpt lat="46.53241" lon="6.54107">
        <ele>423.7</ele>
        <time>2022-09-28T11:58:56Z</time>
      </trkpt>
      <trkpt lat="46.53244" lon="6.54105">
        <ele>423.9</ele>
        <time>2022-09-28T11:58:57Z</time>
      </trkpt>
      <trkpt lat="46.53245" lon="6.54105">
        <ele>423.9</ele>
        <time>2022-09-28T11:58:58Z</time>
      </trkpt>
      <trkpt lat="46.53249" lon="6.54103">
        <ele>424</ele>
        <time>2022-09-28T11:58:59Z</time>
      </trkpt>
      <trkpt lat="46.5325" lon="6.54102">
        <ele>424.1</ele>
        <time>2022-09-28T11:59:00Z</time>
      </trkpt>
      <trkpt lat="46.53253" lon="6.54101">
        <ele>424.2</ele>
        <time>2022-09-28T11:59:01Z</time>
      </trkpt>
      <trkpt lat="46.53254" lon="6.54101">
        <ele>424.3</ele>
        <time>2022-09-28T11:59:02Z</time>
      </trkpt>
      <trkpt lat="46.53258" lon="6.54101">
        <ele>424.4</ele>
        <time>2022-09-28T11:59:03Z</time>
      </trkpt>
      <trkpt lat="46.53259" lon="6.54101">
        <ele>424.4</ele>
        <time>2022-09-28T11:59:04Z</time>
      </trkpt>
      <trkpt lat="46.53262" lon="6.541">
        <ele>424.6</ele>
        <time>2022-09-28T11:59:05Z</time>
      </trkpt>
      <trkpt lat="46.53263" lon="6.541">
        <ele>424.6</ele>
        <time>2022-09-28T11:59:06Z</time>
      </trkpt>
      <trkpt lat="46.53267" lon="6.541">
        <ele>424.7</ele>
        <time>2022-09-28T11:59:07Z</time>
      </trkpt>
      <trkpt lat="46.53267" lon="6.541">
        <ele>424.8</ele>
        <time>2022-09-28T11:59:08Z</time>
      </trkpt>
      <trkpt lat="46.53271" lon="6.541">
        <ele>424.9</ele>
        <time>2022-09-28T11:59:09Z</time>
      </trkpt>
      <trkpt lat="46.53272" lon="6.541">
        <ele>424.9</ele>
        <time>2022-09-28T11:59:10Z</time>
      </trkpt>
      <trkpt lat="46.53276" lon="6.541">
        <ele>425.1</ele>
        <time>2022-09-28T11:59:11Z</time>
      </trkpt>
      <trkpt lat="46.53277" lon="6.541">
        <ele>425.1</ele>
        <time>2022-09-28T11:59:12Z</time>
      </trkpt>
      <trkpt lat="46.5328" lon="6.541">
        <ele>425.2</ele>
        <time>2022-09-28T11:59:13Z</time>
      </trkpt>
      <trkpt lat="46.53281" lon="6.541">
        <ele>425.2</ele>
        <time>2022-09-28T11:59:14Z</time>
      </trkpt>
      <trkpt lat="46.53285" lon="6.541">
        <ele>425.3</ele>
        <time>2022-09-28T11:59:15Z</time>
      </trkpt>
      <trkpt lat="46.53286" lon="6.541">
        <ele>425.4</ele>
        <time>2022-09-28T11:59:16Z</time>
      </trkpt>
      <trkpt lat="46.53289" lon="6.54101">
        <ele>425.5</ele>
        <time>2022-09-28T11:59:17Z</time>
      </trkpt>
      <trkpt lat="46.5329" lon="6.54101">
        <ele>425.5</ele>
        <time>2022-09-28T11:59:18Z</time>
      </trkpt>
      <trkpt lat="46.53294" lon="6.54101">
        <ele>425.6</ele>
        <time>2022-09-28T11:59:19Z</time>
      </trkpt>
      <trkpt lat="46.53295" lon="6.54102">
        <ele>425.6</ele>
        <time>2022-09-28T11:59:20Z</time>
      </trkpt>
      <trkpt lat="46.53298" lon="6.54102">
        <ele>425.7</ele>
        <time>2022-09-28T11:59:21Z</time>
      </trkpt>
      <trkpt lat="46.53299" lon="6.54103">
        <ele>425.8</ele>
        <time>2022-09-28T11:59:22Z</time>
      </trkpt>
      <trkpt lat="46.533" lon="6.54103">
        <ele>425.8</ele>
        <time>2022-09-28T11:59:23Z</time>
      </trkpt>
      <trkpt lat="46.53302" lon="6.54103">
        <ele>425.9</ele>
        <time>2022-09-28T11:59:24Z</time>
      </trkpt>
      <trkpt lat="46.53305" lon="6.54103">
        <ele>426.1</ele>
        <time>2022-09-28T11:59:25Z</time>
      </trkpt>
      <trkpt lat="46.53308" lon="6.54104">
        <ele>426.2</ele>
        <time>2022-09-28T11:59:26Z</time>
      </trkpt>
      <trkpt lat="46.53309" lon="6.54104">
        <ele>426.3</ele>
        <time>2022-09-28T11:59:27Z</time>
      </trkpt>
      <trkpt lat="46.53312" lon="6.54104">
        <ele>426.4</ele>
        <time>2022-09-28T11:59:28Z</time>
      </trkpt>
      <trkpt lat="46.53315" lon="6.54105">
        <ele>426.6</ele>
        <time>2022-09-28T11:59:29Z</time>
      </trkpt>
      <trkpt lat="46.53316" lon="6.54105">
        <ele>426.6</ele>
        <time>2022-09-28T11:59:30Z</time>
      </trkpt>
      <trkpt lat="46.53319" lon="6.54106">
        <ele>426.8</ele>
        <time>2022-09-28T11:59:31Z</time>
      </trkpt>
      <trkpt lat="46.53321" lon="6.54106">
        <ele>426.9</ele>
        <time>2022-09-28T11:59:32Z</time>
      </trkpt>
      <trkpt lat="46.53324" lon="6.54106">
        <ele>427</ele>
        <time>2022-09-28T11:59:33Z</time>
      </trkpt>
      <trkpt lat="46.53325" lon="6.54107">
        <ele>427.1</ele>
        <time>2022-09-28T11:59:34Z</time>
      </trkpt>
      <trkpt lat="46.53327" lon="6.54107">
        <ele>427.2</ele>
        <time>2022-09-28T11:59:35Z</time>
      </trkpt>
      <trkpt lat="46.53328" lon="6.54108">
        <ele>427.3</ele>
        <time>2022-09-28T11:59:36Z</time>
      </trkpt>
      <trkpt lat="46.5333" lon="6.54109">
        <ele>427.4</ele>
        <time>2022-09-28T11:59:37Z</time>
      </trkpt>
      <trkpt lat="46.53332" lon="6.54109">
        <ele>427.5</ele>
        <time>2022-09-28T11:59:38Z</time>
      </trkpt>
      <trkpt lat="46.53335" lon="6.5411">
        <ele>427.7</ele>
        <time>2022-09-28T11:59:39Z</time>
      </trkpt>
      <trkpt lat="46.53337" lon="6.5411">
        <ele>427.8</ele>
        <time>2022-09-28T11:59:40Z</time>
      </trkpt>
      <trkpt lat="46.5334" lon="6.5411">
        <ele>428</ele>
        <time>2022-09-28T11:59:41Z</time>
      </trkpt>
      <trkpt lat="46.53341" lon="6.5411">
        <ele>428</ele>
        <time>2022-09-28T11:59:42Z</time>
      </trkpt>
      <trkpt lat="46.53344" lon="6.54111">
        <ele>428.2</ele>
        <time>2022-09-28T11:59:43Z</time>
      </trkpt>
      <trkpt lat="46.53345" lon="6.54111">
        <ele>428.3</ele>
        <time>2022-09-28T11:59:44Z</time>
      </trkpt>
      <trkpt lat="46.53348" lon="6.54111">
        <ele>428.5</ele>
        <time>2022-09-28T11:59:45Z</time>
      </trkpt>
      <trkpt lat="46.53349" lon="6.54112">
        <ele>428.5</ele>
        <time>2022-09-28T11:59:46Z</time>
      </trkpt>
      <trkpt lat="46.53352" lon="6.54112">
        <ele>428.7</ele>
        <time>2022-09-28T11:59:47Z</time>
      </trkpt>
      <trkpt lat="46.53353" lon="6.54112">
        <ele>428.8</ele>
        <time>2022-09-28T11:59:48Z</time>
      </trkpt>
      <trkpt lat="46.53355" lon="6.54113">
        <ele>428.9</ele>
        <time>2022-09-28T11:59:49Z</time>
      </trkpt>
      <trkpt lat="46.53356" lon="6.54113">
        <ele>428.9</ele>
        <time>2022-09-28T11:59:50Z</time>
      </trkpt>
      <trkpt lat="46.53357" lon="6.54114">
        <ele>429</ele>
        <time>2022-09-28T11:59:51Z</time>
      </trkpt>
      <trkpt lat="46.53357" lon="6.54115">
        <ele>429</ele>
        <time>2022-09-28T11:59:52Z</time>
      </trkpt>
      <trkpt lat="46.53359" lon="6.54116">
        <ele>429.1</ele>
        <time>2022-09-28T11:59:53Z</time>
      </trkpt>
      <trkpt lat="46.53362" lon="6.54118">
        <ele>429.3</ele>
        <time>2022-09-28T11:59:54Z</time>
      </trkpt>
      <trkpt lat="46.53362" lon="6.54119">
        <ele>429.3</ele>
        <time>2022-09-28T11:59:55Z</time>
      </trkpt>
      <trkpt lat="46.53365" lon="6.5412">
        <ele>429.5</ele>
        <time>2022-09-28T11:59:56Z</time>
      </trkpt>
      <trkpt lat="46.53366" lon="6.5412">
        <ele>429.5</ele>
        <time>2022-09-28T11:59:57Z</time>
      </trkpt>
      <trkpt lat="46.53369" lon="6.54118">
        <ele>429.7</ele>
        <time>2022-09-28T11:59:58Z</time>
      </trkpt>
      <trkpt lat="46.53372" lon="6.54115">
        <ele>429.9</ele>
        <time>2022-09-28T11:59:59Z</time>
      </trkpt>
      <trkpt lat="46.53373" lon="6.54114">
        <ele>430</ele>
        <time>2022-09-28T12:00:00Z</time>
      </trkpt>
      <trkpt lat="46.53376" lon="6.54112">
        <ele>430.2</ele>
        <time>2022-09-28T12:00:01Z</time>
      </trkpt>
      <trkpt lat="46.53379" lon="6.54109">
        <ele>430.2</ele>
        <time>2022-09-28T12:00:02Z</time>
      </trkpt>
      <trkpt lat="46.5338" lon="6.54107">
        <ele>430.3</ele>
        <time>2022-09-28T12:00:03Z</time>
      </trkpt>
      <trkpt lat="46.53383" lon="6.54104">
        <ele>430.4</ele>
        <time>2022-09-28T12:00:04Z</time>
      </trkpt>
      <trkpt lat="46.53386" lon="6.54101">
        <ele>430.5</ele>
        <time>2022-09-28T12:00:05Z</time>
      </trkpt>
      <trkpt lat="46.53389" lon="6.54097">
        <ele>430.5</ele>
        <time>2022-09-28T12:00:06Z</time>
      </trkpt>
      <trkpt lat="46.53393" lon="6.54093">
        <ele>430.7</ele>
        <time>2022-09-28T12:00:07Z</time>
      </trkpt>
      <trkpt lat="46.53397" lon="6.54089">
        <ele>430.7</ele>
        <time>2022-09-28T12:00:08Z</time>
      </trkpt>
      <trkpt lat="46.53401" lon="6.54085">
        <ele>430.8</ele>
        <time>2022-09-28T12:00:09Z</time>
      </trkpt>
      <trkpt lat="46.53403" lon="6.54082">
        <ele>430.9</ele>
        <time>2022-09-28T12:00:10Z</time>
      </trkpt>
      <trkpt lat="46.53407" lon="6.54078">
        <ele>431</ele>
        <time>2022-09-28T12:00:11Z</time>
      </trkpt>
      <trkpt lat="46.53411" lon="6.54075">
        <ele>431</ele>
        <time>2022-09-28T12:00:12Z</time>
      </trkpt>
      <trkpt lat="46.53413" lon="6.54075">
        <ele>430.9</ele>
        <time>2022-09-28T12:00:13Z</time>
      </trkpt>
      <trkpt lat="46.53417" lon="6.54078">
        <ele>430.7</ele>
        <time>2022-09-28T12:00:14Z</time>
      </trkpt>
      <trkpt lat="46.53419" lon="6.54079">
        <ele>430.7</ele>
        <time>2022-09-28T12:00:15Z</time>
      </trkpt>
      <trkpt lat="46.53422" lon="6.54082">
        <ele>430.6</ele>
        <time>2022-09-28T12:00:16Z</time>
      </trkpt>
      <trkpt lat="46.53426" lon="6.54086">
        <ele>430.4</ele>
        <time>2022-09-28T12:00:17Z</time>
      </trkpt>
      <trkpt lat="46.5343" lon="6.54089">
        <ele>430.3</ele>
        <time>2022-09-28T12:00:18Z</time>
      </trkpt>
      <trkpt lat="46.53434" lon="6.54093">
        <ele>430.2</ele>
        <time>2022-09-28T12:00:19Z</time>
      </trkpt>
      <trkpt lat="46.53439" lon="6.54097">
        <ele>430</ele>
        <time>2022-09-28T12:00:20Z</time>
      </trkpt>
      <trkpt lat="46.53445" lon="6.54102">
        <ele>429.9</ele>
        <time>2022-09-28T12:00:21Z</time>
      </trkpt>
      <trkpt lat="46.5345" lon="6.54106">
        <ele>429.8</ele>
        <time>2022-09-28T12:00:22Z</time>
      </trkpt>
      <trkpt lat="46.53455" lon="6.5411">
        <ele>429.6</ele>
        <time>2022-09-28T12:00:23Z</time>
      </trkpt>
      <trkpt lat="46.53461" lon="6.54115">
        <ele>429.4</ele>
        <time>2022-09-28T12:00:24Z</time>
      </trkpt>
      <trkpt lat="46.53467" lon="6.5412">
        <ele>429.3</ele>
        <time>2022-09-28T12:00:25Z</time>
      </trkpt>
      <trkpt lat="46.53471" lon="6.54124">
        <ele>429.1</ele>
        <time>2022-09-28T12:00:26Z</time>
      </trkpt>
      <trkpt lat="46.53476" lon="6.54131">
        <ele>428.9</ele>
        <time>2022-09-28T12:00:27Z</time>
      </trkpt>
      <trkpt lat="46.5348" lon="6.54136">
        <ele>428.8</ele>
        <time>2022-09-28T12:00:28Z</time>
      </trkpt>
      <trkpt lat="46.53485" lon="6.54141">
        <ele>428.7</ele>
        <time>2022-09-28T12:00:29Z</time>
      </trkpt>
      <trkpt lat="46.5349" lon="6.54148">
        <ele>428.5</ele>
        <time>2022-09-28T12:00:30Z</time>
      </trkpt>
      <trkpt lat="46.53494" lon="6.54155">
        <ele>428.4</ele>
        <time>2022-09-28T12:00:31Z</time>
      </trkpt>
      <trkpt lat="46.53497" lon="6.54162">
        <ele>428.4</ele>
        <time>2022-09-28T12:00:32Z</time>
      </trkpt>
      <trkpt lat="46.53501" lon="6.54168">
        <ele>428.3</ele>
        <time>2022-09-28T12:00:33Z</time>
      </trkpt>
      <trkpt lat="46.53506" lon="6.54173">
        <ele>428.3</ele>
        <time>2022-09-28T12:00:34Z</time>
      </trkpt>
      <trkpt lat="46.53509" lon="6.5418">
        <ele>428.3</ele>
        <time>2022-09-28T12:00:35Z</time>
      </trkpt>
      <trkpt lat="46.53512" lon="6.54184">
        <ele>428.3</ele>
        <time>2022-09-28T12:00:36Z</time>
      </trkpt>
      <trkpt lat="46.53515" lon="6.54189">
        <ele>428.3</ele>
        <time>2022-09-28T12:00:37Z</time>
      </trkpt>
      <trkpt lat="46.53516" lon="6.54191">
        <ele>428.3</ele>
        <time>2022-09-28T12:00:38Z</time>
      </trkpt>
      <trkpt lat="46.53518" lon="6.54195">
        <ele>428.4</ele>
        <time>2022-09-28T12:00:39Z</time>
      </trkpt>
      <trkpt lat="46.53519" lon="6.54197">
        <ele>428.4</ele>
        <time>2022-09-28T12:00:40Z</time>
      </trkpt>
      <trkpt lat="46.53522" lon="6.54198">
        <ele>428.4</ele>
        <time>2022-09-28T12:00:41Z</time>
      </trkpt>
      <trkpt lat="46.53526" lon="6.54199">
        <ele>428.4</ele>
        <time>2022-09-28T12:00:42Z</time>
      </trkpt>
      <trkpt lat="46.53528" lon="6.542">
        <ele>428.4</ele>
        <time>2022-09-28T12:00:43Z</time>
      </trkpt>
      <trkpt lat="46.53532" lon="6.54201">
        <ele>428.5</ele>
        <time>2022-09-28T12:00:44Z</time>
      </trkpt>
      <trkpt lat="46.53534" lon="6.54202">
        <ele>428.6</ele>
        <time>2022-09-28T12:00:45Z</time>
      </trkpt>
      <trkpt lat="46.53536" lon="6.54203">
        <ele>428.6</ele>
        <time>2022-09-28T12:00:46Z</time>
      </trkpt>
      <trkpt lat="46.53538" lon="6.54204">
        <ele>428.7</ele>
        <time>2022-09-28T12:00:47Z</time>
      </trkpt>
      <trkpt lat="46.53541" lon="6.54204">
        <ele>428.8</ele>
        <time>2022-09-28T12:00:48Z</time>
      </trkpt>
      <trkpt lat="46.53542" lon="6.54205">
        <ele>428.8</ele>
        <time>2022-09-28T12:00:49Z</time>
      </trkpt>
      <trkpt lat="46.53545" lon="6.54206">
        <ele>428.9</ele>
        <time>2022-09-28T12:00:50Z</time>
      </trkpt>
      <trkpt lat="46.53549" lon="6.54205">
        <ele>429</ele>
        <time>2022-09-28T12:00:51Z</time>
      </trkpt>
      <trkpt lat="46.5355" lon="6.54204">
        <ele>429</ele>
        <time>2022-09-28T12:00:52Z</time>
      </trkpt>
      <trkpt lat="46.53553" lon="6.54205">
        <ele>429.1</ele>
        <time>2022-09-28T12:00:53Z</time>
      </trkpt>
      <trkpt lat="46.53556" lon="6.54205">
        <ele>429.3</ele>
        <time>2022-09-28T12:00:54Z</time>
      </trkpt>
      <trkpt lat="46.53557" lon="6.54206">
        <ele>429.3</ele>
        <time>2022-09-28T12:00:55Z</time>
      </trkpt>
      <trkpt lat="46.53561" lon="6.54206">
        <ele>429.4</ele>
        <time>2022-09-28T12:00:56Z</time>
      </trkpt>
      <trkpt lat="46.53562" lon="6.54206">
        <ele>429.5</ele>
        <time>2022-09-28T12:00:57Z</time>
      </trkpt>
      <trkpt lat="46.53566" lon="6.54206">
        <ele>429.6</ele>
        <time>2022-09-28T12:00:58Z</time>
      </trkpt>
      <trkpt lat="46.53567" lon="6.54206">
        <ele>429.6</ele>
        <time>2022-09-28T12:00:59Z</time>
      </trkpt>
      <trkpt lat="46.5357" lon="6.54207">
        <ele>429.7</ele>
        <time>2022-09-28T12:01:00Z</time>
      </trkpt>
      <trkpt lat="46.53573" lon="6.54207">
        <ele>429.9</ele>
        <time>2022-09-28T12:01:01Z</time>
      </trkpt>
      <trkpt lat="46.53576" lon="6.54206">
        <ele>430</ele>
        <time>2022-09-28T12:01:02Z</time>
      </trkpt>
      <trkpt lat="46.5358" lon="6.54208">
        <ele>430.1</ele>
        <time>2022-09-28T12:01:03Z</time>
      </trkpt>
      <trkpt lat="46.53582" lon="6.54209">
        <ele>430.2</ele>
        <time>2022-09-28T12:01:04Z</time>
      </trkpt>
      <trkpt lat="46.53585" lon="6.5421">
        <ele>430.3</ele>
        <time>2022-09-28T12:01:05Z</time>
      </trkpt>
      <trkpt lat="46.53586" lon="6.5421">
        <ele>430.3</ele>
        <time>2022-09-28T12:01:06Z</time>
      </trkpt>
      <trkpt lat="46.53589" lon="6.54208">
        <ele>430.4</ele>
        <time>2022-09-28T12:01:07Z</time>
      </trkpt>
      <trkpt lat="46.53592" lon="6.54207">
        <ele>430.5</ele>
        <time>2022-09-28T12:01:08Z</time>
      </trkpt>
      <trkpt lat="46.53593" lon="6.54208">
        <ele>430.6</ele>
        <time>2022-09-28T12:01:09Z</time>
      </trkpt>
      <trkpt lat="46.53598" lon="6.54208">
        <ele>430.7</ele>
        <time>2022-09-28T12:01:10Z</time>
      </trkpt>
      <trkpt lat="46.536" lon="6.54208">
        <ele>430.8</ele>
        <time>2022-09-28T12:01:11Z</time>
      </trkpt>
      <trkpt lat="46.53603" lon="6.54208">
        <ele>430.9</ele>
        <time>2022-09-28T12:01:12Z</time>
      </trkpt>
      <trkpt lat="46.53604" lon="6.54207">
        <ele>430.9</ele>
        <time>2022-09-28T12:01:13Z</time>
      </trkpt>
      <trkpt lat="46.53607" lon="6.54207">
        <ele>431</ele>
        <time>2022-09-28T12:01:14Z</time>
      </trkpt>
      <trkpt lat="46.5361" lon="6.54207">
        <ele>431.1</ele>
        <time>2022-09-28T12:01:15Z</time>
      </trkpt>
      <trkpt lat="46.53612" lon="6.54207">
        <ele>431.1</ele>
        <time>2022-09-28T12:01:16Z</time>
      </trkpt>
      <trkpt lat="46.53615" lon="6.54207">
        <ele>431.2</ele>
        <time>2022-09-28T12:01:17Z</time>
      </trkpt>
      <trkpt lat="46.53616" lon="6.54207">
        <ele>431.2</ele>
        <time>2022-09-28T12:01:18Z</time>
      </trkpt>
      <trkpt lat="46.5362" lon="6.54207">
        <ele>431.3</ele>
        <time>2022-09-28T12:01:19Z</time>
      </trkpt>
      <trkpt lat="46.53621" lon="6.54207">
        <ele>431.3</ele>
        <time>2022-09-28T12:01:20Z</time>
      </trkpt>
      <trkpt lat="46.53625" lon="6.54207">
        <ele>431.3</ele>
        <time>2022-09-28T12:01:21Z</time>
      </trkpt>
      <trkpt lat="46.53626" lon="6.54208">
        <ele>431.4</ele>
        <time>2022-09-28T12:01:22Z</time>
      </trkpt>
      <trkpt lat="46.53628" lon="6.54208">
        <ele>431.4</ele>
        <time>2022-09-28T12:01:23Z</time>
      </trkpt>
      <trkpt lat="46.53632" lon="6.54209">
        <ele>431.3</ele>
        <time>2022-09-28T12:01:24Z</time>
      </trkpt>
      <trkpt lat="46.53635" lon="6.54211">
        <ele>431.3</ele>
        <time>2022-09-28T12:01:25Z</time>
      </trkpt>
      <trkpt lat="46.5364" lon="6.54212">
        <ele>431.2</ele>
        <time>2022-09-28T12:01:26Z</time>
      </trkpt>
      <trkpt lat="46.53644" lon="6.54214">
        <ele>431.1</ele>
        <time>2022-09-28T12:01:27Z</time>
      </trkpt>
      <trkpt lat="46.53649" lon="6.54215">
        <ele>431</ele>
        <time>2022-09-28T12:01:28Z</time>
      </trkpt>
      <trkpt lat="46.53653" lon="6.54217">
        <ele>430.9</ele>
        <time>2022-09-28T12:01:29Z</time>
      </trkpt>
      <trkpt lat="46.53657" lon="6.54219">
        <ele>430.7</ele>
        <time>2022-09-28T12:01:30Z</time>
      </trkpt>
      <trkpt lat="46.53662" lon="6.54222">
        <ele>430.5</ele>
        <time>2022-09-28T12:01:31Z</time>
      </trkpt>
      <trkpt lat="46.53666" lon="6.54222">
        <ele>430.3</ele>
        <time>2022-09-28T12:01:32Z</time>
      </trkpt>
      <trkpt lat="46.53672" lon="6.54224">
        <ele>430.1</ele>
        <time>2022-09-28T12:01:33Z</time>
      </trkpt>
      <trkpt lat="46.53677" lon="6.54227">
        <ele>429.8</ele>
        <time>2022-09-28T12:01:34Z</time>
      </trkpt>
      <trkpt lat="46.53683" lon="6.5423">
        <ele>429.5</ele>
        <time>2022-09-28T12:01:35Z</time>
      </trkpt>
      <trkpt lat="46.53688" lon="6.54231">
        <ele>429.2</ele>
        <time>2022-09-28T12:01:36Z</time>
      </trkpt>
      <trkpt lat="46.53694" lon="6.54235">
        <ele>428.8</ele>
        <time>2022-09-28T12:01:37Z</time>
      </trkpt>
      <trkpt lat="46.53698" lon="6.54238">
        <ele>428.4</ele>
        <time>2022-09-28T12:01:38Z</time>
      </trkpt>
      <trkpt lat="46.53703" lon="6.54239">
        <ele>428.1</ele>
        <time>2022-09-28T12:01:39Z</time>
      </trkpt>
      <trkpt lat="46.53708" lon="6.54244">
        <ele>427.6</ele>
        <time>2022-09-28T12:01:40Z</time>
      </trkpt>
      <trkpt lat="46.53712" lon="6.54248">
        <ele>427.2</ele>
        <time>2022-09-28T12:01:41Z</time>
      </trkpt>
      <trkpt lat="46.53718" lon="6.54251">
        <ele>426.8</ele>
        <time>2022-09-28T12:01:42Z</time>
      </trkpt>
      <trkpt lat="46.53723" lon="6.54257">
        <ele>426.3</ele>
        <time>2022-09-28T12:01:43Z</time>
      </trkpt>
      <trkpt lat="46.53727" lon="6.54264">
        <ele>425.8</ele>
        <time>2022-09-28T12:01:44Z</time>
      </trkpt>
      <trkpt lat="46.53731" lon="6.5427">
        <ele>425.4</ele>
        <time>2022-09-28T12:01:45Z</time>
      </trkpt>
      <trkpt lat="46.53734" lon="6.54278">
        <ele>424.9</ele>
        <time>2022-09-28T12:01:46Z</time>
      </trkpt>
      <trkpt lat="46.53737" lon="6.54286">
        <ele>424.4</ele>
        <time>2022-09-28T12:01:47Z</time>
      </trkpt>
      <trkpt lat="46.53739" lon="6.54295">
        <ele>424</ele>
        <time>2022-09-28T12:01:48Z</time>
      </trkpt>
      <trkpt lat="46.5374" lon="6.54304">
        <ele>423.5</ele>
        <time>2022-09-28T12:01:49Z</time>
      </trkpt>
      <trkpt lat="46.53741" lon="6.54313">
        <ele>423</ele>
        <time>2022-09-28T12:01:50Z</time>
      </trkpt>
      <trkpt lat="46.5374" lon="6.54322">
        <ele>422.5</ele>
        <time>2022-09-28T12:01:51Z</time>
      </trkpt>
      <trkpt lat="46.53739" lon="6.5433">
        <ele>422.1</ele>
        <time>2022-09-28T12:01:52Z</time>
      </trkpt>
      <trkpt lat="46.53737" lon="6.54339">
        <ele>421.6</ele>
        <time>2022-09-28T12:01:53Z</time>
      </trkpt>
      <trkpt lat="46.53735" lon="6.54347">
        <ele>421.1</ele>
        <time>2022-09-28T12:01:54Z</time>
      </trkpt>
      <trkpt lat="46.53732" lon="6.54355">
        <ele>420.6</ele>
        <time>2022-09-28T12:01:55Z</time>
      </trkpt>
      <trkpt lat="46.53728" lon="6.54362">
        <ele>420.1</ele>
        <time>2022-09-28T12:01:56Z</time>
      </trkpt>
      <trkpt lat="46.53723" lon="6.5437">
        <ele>419.5</ele>
        <time>2022-09-28T12:01:57Z</time>
      </trkpt>
      <trkpt lat="46.53718" lon="6.54377">
        <ele>418.9</ele>
        <time>2022-09-28T12:01:58Z</time>
      </trkpt>
      <trkpt lat="46.53714" lon="6.54383">
        <ele>418.4</ele>
        <time>2022-09-28T12:01:59Z</time>
      </trkpt>
      <trkpt lat="46.53708" lon="6.54389">
        <ele>417.9</ele>
        <time>2022-09-28T12:02:00Z</time>
      </trkpt>
      <trkpt lat="46.53703" lon="6.54395">
        <ele>417.4</ele>
        <time>2022-09-28T12:02:01Z</time>
      </trkpt>
      <trkpt lat="46.53698" lon="6.54402">
        <ele>416.9</ele>
        <time>2022-09-28T12:02:02Z</time>
      </trkpt>
      <trkpt lat="46.53693" lon="6.54408">
        <ele>416.4</ele>
        <time>2022-09-28T12:02:03Z</time>
      </trkpt>
      <trkpt lat="46.53689" lon="6.54416">
        <ele>415.9</ele>
        <time>2022-09-28T12:02:04Z</time>
      </trkpt>
      <trkpt lat="46.53685" lon="6.54422">
        <ele>415.4</ele>
        <time>2022-09-28T12:02:05Z</time>
      </trkpt>
      <trkpt lat="46.53681" lon="6.54429">
        <ele>414.9</ele>
        <time>2022-09-28T12:02:06Z</time>
      </trkpt>
      <trkpt lat="46.53678" lon="6.54435">
        <ele>414.5</ele>
        <time>2022-09-28T12:02:07Z</time>
      </trkpt>
      <trkpt lat="46.53675" lon="6.54443">
        <ele>414</ele>
        <time>2022-09-28T12:02:08Z</time>
      </trkpt>
      <trkpt lat="46.53672" lon="6.54452">
        <ele>413.4</ele>
        <time>2022-09-28T12:02:09Z</time>
      </trkpt>
      <trkpt lat="46.53671" lon="6.5446">
        <ele>413</ele>
        <time>2022-09-28T12:02:10Z</time>
      </trkpt>
      <trkpt lat="46.53668" lon="6.54469">
        <ele>412.4</ele>
        <time>2022-09-28T12:02:11Z</time>
      </trkpt>
      <trkpt lat="46.53665" lon="6.54479">
        <ele>411.8</ele>
        <time>2022-09-28T12:02:12Z</time>
      </trkpt>
      <trkpt lat="46.53664" lon="6.54488">
        <ele>411.3</ele>
        <time>2022-09-28T12:02:13Z</time>
      </trkpt>
      <trkpt lat="46.53661" lon="6.54497">
        <ele>410.7</ele>
        <time>2022-09-28T12:02:14Z</time>
      </trkpt>
      <trkpt lat="46.53659" lon="6.54508">
        <ele>410.1</ele>
        <time>2022-09-28T12:02:16Z</time>
      </trkpt>
      <trkpt lat="46.53658" lon="6.54518">
        <ele>409.5</ele>
        <time>2022-09-28T12:02:17Z</time>
      </trkpt>
      <trkpt lat="46.53657" lon="6.54529">
        <ele>408.9</ele>
        <time>2022-09-28T12:02:18Z</time>
      </trkpt>
      <trkpt lat="46.53656" lon="6.54551">
        <ele>407.7</ele>
        <time>2022-09-28T12:02:19Z</time>
      </trkpt>
      <trkpt lat="46.53655" lon="6.54562">
        <ele>407</ele>
        <time>2022-09-28T12:02:20Z</time>
      </trkpt>
      <trkpt lat="46.53655" lon="6.54572">
        <ele>406.4</ele>
        <time>2022-09-28T12:02:21Z</time>
      </trkpt>
      <trkpt lat="46.53655" lon="6.54582">
        <ele>405.9</ele>
        <time>2022-09-28T12:02:22Z</time>
      </trkpt>
      <trkpt lat="46.53654" lon="6.54592">
        <ele>405.3</ele>
        <time>2022-09-28T12:02:24Z</time>
      </trkpt>
      <trkpt lat="46.53652" lon="6.54611">
        <ele>404.2</ele>
        <time>2022-09-28T12:02:25Z</time>
      </trkpt>
      <trkpt lat="46.53651" lon="6.5462">
        <ele>403.6</ele>
        <time>2022-09-28T12:02:26Z</time>
      </trkpt>
      <trkpt lat="46.53651" lon="6.54631">
        <ele>403.2</ele>
        <time>2022-09-28T12:02:27Z</time>
      </trkpt>
      <trkpt lat="46.5365" lon="6.54641">
        <ele>402.9</ele>
        <time>2022-09-28T12:02:28Z</time>
      </trkpt>
      <trkpt lat="46.53649" lon="6.54652">
        <ele>402.4</ele>
        <time>2022-09-28T12:02:29Z</time>
      </trkpt>
      <trkpt lat="46.53648" lon="6.54661">
        <ele>401.9</ele>
        <time>2022-09-28T12:02:30Z</time>
      </trkpt>
      <trkpt lat="46.53647" lon="6.5467">
        <ele>401.3</ele>
        <time>2022-09-28T12:02:31Z</time>
      </trkpt>
      <trkpt lat="46.53646" lon="6.54679">
        <ele>400.8</ele>
        <time>2022-09-28T12:02:32Z</time>
      </trkpt>
      <trkpt lat="46.53647" lon="6.54688">
        <ele>400.3</ele>
        <time>2022-09-28T12:02:34Z</time>
      </trkpt>
      <trkpt lat="46.53645" lon="6.54699">
        <ele>399.7</ele>
        <time>2022-09-28T12:02:35Z</time>
      </trkpt>
      <trkpt lat="46.53644" lon="6.54709">
        <ele>399.1</ele>
        <time>2022-09-28T12:02:36Z</time>
      </trkpt>
      <trkpt lat="46.53643" lon="6.5472">
        <ele>398.5</ele>
        <time>2022-09-28T12:02:37Z</time>
      </trkpt>
      <trkpt lat="46.53642" lon="6.5473">
        <ele>397.9</ele>
        <time>2022-09-28T12:02:38Z</time>
      </trkpt>
      <trkpt lat="46.53641" lon="6.5474">
        <ele>397.3</ele>
        <time>2022-09-28T12:02:39Z</time>
      </trkpt>
      <trkpt lat="46.5364" lon="6.5475">
        <ele>396.7</ele>
        <time>2022-09-28T12:02:40Z</time>
      </trkpt>
      <trkpt lat="46.53639" lon="6.5476">
        <ele>396</ele>
        <time>2022-09-28T12:02:41Z</time>
      </trkpt>
      <trkpt lat="46.53638" lon="6.54779">
        <ele>394.8</ele>
        <time>2022-09-28T12:02:42Z</time>
      </trkpt>
      <trkpt lat="46.53636" lon="6.54789">
        <ele>394.2</ele>
        <time>2022-09-28T12:02:43Z</time>
      </trkpt>
      <trkpt lat="46.53636" lon="6.54799">
        <ele>393.6</ele>
        <time>2022-09-28T12:02:44Z</time>
      </trkpt>
      <trkpt lat="46.53635" lon="6.5481">
        <ele>393</ele>
        <time>2022-09-28T12:02:45Z</time>
      </trkpt>
      <trkpt lat="46.53634" lon="6.5482">
        <ele>392.8</ele>
        <time>2022-09-28T12:02:46Z</time>
      </trkpt>
      <trkpt lat="46.53634" lon="6.54828">
        <ele>392.3</ele>
        <time>2022-09-28T12:02:47Z</time>
      </trkpt>
      <trkpt lat="46.53632" lon="6.54838">
        <ele>391.7</ele>
        <time>2022-09-28T12:02:48Z</time>
      </trkpt>
      <trkpt lat="46.53632" lon="6.54847">
        <ele>391.2</ele>
        <time>2022-09-28T12:02:49Z</time>
      </trkpt>
      <trkpt lat="46.53631" lon="6.54856">
        <ele>391</ele>
        <time>2022-09-28T12:02:50Z</time>
      </trkpt>
      <trkpt lat="46.53631" lon="6.54864">
        <ele>390.8</ele>
        <time>2022-09-28T12:02:51Z</time>
      </trkpt>
      <trkpt lat="46.5363" lon="6.54871">
        <ele>390.6</ele>
        <time>2022-09-28T12:02:52Z</time>
      </trkpt>
      <trkpt lat="46.5363" lon="6.54876">
        <ele>390.5</ele>
        <time>2022-09-28T12:02:53Z</time>
      </trkpt>
      <trkpt lat="46.53629" lon="6.54883">
        <ele>390.4</ele>
        <time>2022-09-28T12:02:54Z</time>
      </trkpt>
      <trkpt lat="46.53629" lon="6.54888">
        <ele>390.3</ele>
        <time>2022-09-28T12:02:55Z</time>
      </trkpt>
      <trkpt lat="46.53627" lon="6.54893">
        <ele>390.2</ele>
        <time>2022-09-28T12:02:56Z</time>
      </trkpt>
      <trkpt lat="46.53625" lon="6.54896">
        <ele>390.1</ele>
        <time>2022-09-28T12:02:57Z</time>
      </trkpt>
      <trkpt lat="46.53624" lon="6.54897">
        <ele>390.1</ele>
        <time>2022-09-28T12:02:58Z</time>
      </trkpt>
      <trkpt lat="46.53623" lon="6.54899">
        <ele>390.1</ele>
        <time>2022-09-28T12:02:59Z</time>
      </trkpt>
      <trkpt lat="46.53622" lon="6.54899">
        <ele>390</ele>
        <time>2022-09-28T12:03:00Z</time>
      </trkpt>
      <trkpt lat="46.53622" lon="6.54899">
        <ele>390</ele>
        <time>2022-09-28T12:03:01Z</time>
      </trkpt>
      <trkpt lat="46.53622" lon="6.54899">
        <ele>390</ele>
        <time>2022-09-28T12:03:02Z</time>
      </trkpt>
      <trkpt lat="46.53622" lon="6.54899">
        <ele>390</ele>
        <time>2022-09-28T12:03:03Z</time>
      </trkpt>
      <trkpt lat="46.53621" lon="6.549">
        <ele>390</ele>
        <time>2022-09-28T12:03:04Z</time>
      </trkpt>
      <trkpt lat="46.53619" lon="6.54902">
        <ele>389.9</ele>
        <time>2022-09-28T12:03:05Z</time>
      </trkpt>
      <trkpt lat="46.53618" lon="6.54903">
        <ele>389.9</ele>
        <time>2022-09-28T12:03:06Z</time>
      </trkpt>
      <trkpt lat="46.53615" lon="6.54905">
        <ele>389.8</ele>
        <time>2022-09-28T12:03:07Z</time>
      </trkpt>
      <trkpt lat="46.53612" lon="6.54909">
        <ele>389.8</ele>
        <time>2022-09-28T12:03:08Z</time>
      </trkpt>
      <trkpt lat="46.5361" lon="6.54913">
        <ele>389.7</ele>
        <time>2022-09-28T12:03:09Z</time>
      </trkpt>
      <trkpt lat="46.53609" lon="6.54918">
        <ele>389.6</ele>
        <time>2022-09-28T12:03:10Z</time>
      </trkpt>
      <trkpt lat="46.53609" lon="6.54925">
        <ele>389.6</ele>
        <time>2022-09-28T12:03:11Z</time>
      </trkpt>
      <trkpt lat="46.5361" lon="6.54928">
        <ele>389.6</ele>
        <time>2022-09-28T12:03:12Z</time>
      </trkpt>
      <trkpt lat="46.53612" lon="6.54931">
        <ele>389.6</ele>
        <time>2022-09-28T12:03:13Z</time>
      </trkpt>
      <trkpt lat="46.53614" lon="6.54933">
        <ele>389.6</ele>
        <time>2022-09-28T12:03:14Z</time>
      </trkpt>
      <trkpt lat="46.53618" lon="6.54935">
        <ele>389.6</ele>
        <time>2022-09-28T12:03:15Z</time>
      </trkpt>
      <trkpt lat="46.5362" lon="6.54938">
        <ele>389.6</ele>
        <time>2022-09-28T12:03:16Z</time>
      </trkpt>
      <trkpt lat="46.53622" lon="6.54942">
        <ele>389.6</ele>
        <time>2022-09-28T12:03:17Z</time>
      </trkpt>
      <trkpt lat="46.53623" lon="6.54946">
        <ele>389.6</ele>
        <time>2022-09-28T12:03:18Z</time>
      </trkpt>
      <trkpt lat="46.53623" lon="6.54951">
        <ele>389.6</ele>
        <time>2022-09-28T12:03:19Z</time>
      </trkpt>
      <trkpt lat="46.53623" lon="6.54954">
        <ele>389.7</ele>
        <time>2022-09-28T12:03:20Z</time>
      </trkpt>
      <trkpt lat="46.53622" lon="6.54958">
        <ele>389.7</ele>
        <time>2022-09-28T12:03:21Z</time>
      </trkpt>
      <trkpt lat="46.53622" lon="6.54963">
        <ele>389.7</ele>
        <time>2022-09-28T12:03:22Z</time>
      </trkpt>
      <trkpt lat="46.53622" lon="6.54965">
        <ele>389.7</ele>
        <time>2022-09-28T12:03:23Z</time>
      </trkpt>
      <trkpt lat="46.53621" lon="6.54967">
        <ele>389.7</ele>
        <time>2022-09-28T12:03:24Z</time>
      </trkpt>
      <trkpt lat="46.53622" lon="6.54968">
        <ele>389.7</ele>
        <time>2022-09-28T12:03:25Z</time>
      </trkpt>
      <trkpt lat="46.53621" lon="6.54968">
        <ele>389.7</ele>
        <time>2022-09-28T12:03:26Z</time>
      </trkpt>
      <trkpt lat="46.53621" lon="6.54968">
        <ele>389.7</ele>
        <time>2022-09-28T12:03:27Z</time>
      </trkpt>
      <trkpt lat="46.53621" lon="6.54968">
        <ele>389.7</ele>
        <time>2022-09-28T12:03:28Z</time>
      </trkpt>
      <trkpt lat="46.53621" lon="6.54968">
        <ele>389.7</ele>
        <time>2022-09-28T12:03:29Z</time>
      </trkpt>
      <trkpt lat="46.53621" lon="6.54968">
        <ele>389.7</ele>
        <time>2022-09-28T12:03:30Z</time>
      </trkpt>
      <trkpt lat="46.53621" lon="6.54969">
        <ele>389.7</ele>
        <time>2022-09-28T12:03:31Z</time>
      </trkpt>
      <trkpt lat="46.53621" lon="6.54969">
        <ele>389.7</ele>
        <time>2022-09-28T12:03:32Z</time>
      </trkpt>
      <trkpt lat="46.53621" lon="6.54967">
        <ele>389.7</ele>
        <time>2022-09-28T12:03:33Z</time>
      </trkpt>
      <trkpt lat="46.53621" lon="6.54967">
        <ele>389.7</ele>
        <time>2022-09-28T12:03:34Z</time>
      </trkpt>
      <trkpt lat="46.53621" lon="6.54966">
        <ele>389.7</ele>
        <time>2022-09-28T12:03:37Z</time>
      </trkpt>
      <trkpt lat="46.53622" lon="6.54965">
        <ele>389.7</ele>
        <time>2022-09-28T12:03:38Z</time>
      </trkpt>
      <trkpt lat="46.53622" lon="6.54964">
        <ele>389.7</ele>
        <time>2022-09-28T12:03:39Z</time>
      </trkpt>
      <trkpt lat="46.53622" lon="6.54964">
        <ele>389.7</ele>
        <time>2022-09-28T12:03:40Z</time>
      </trkpt>
      <trkpt lat="46.53622" lon="6.54963">
        <ele>389.7</ele>
        <time>2022-09-28T12:03:41Z</time>
      </trkpt>
      <trkpt lat="46.53622" lon="6.54962">
        <ele>389.7</ele>
        <time>2022-09-28T12:03:42Z</time>
      </trkpt>
      <trkpt lat="46.53622" lon="6.54961">
        <ele>389.7</ele>
        <time>2022-09-28T12:03:43Z</time>
      </trkpt>
      <trkpt lat="46.53622" lon="6.5496">
        <ele>389.7</ele>
        <time>2022-09-28T12:03:44Z</time>
      </trkpt>
      <trkpt lat="46.53623" lon="6.5496">
        <ele>389.7</ele>
        <time>2022-09-28T12:03:45Z</time>
      </trkpt>
      <trkpt lat="46.53623" lon="6.54959">
        <ele>389.7</ele>
        <time>2022-09-28T12:03:46Z</time>
      </trkpt>
      <trkpt lat="46.53623" lon="6.54958">
        <ele>389.7</ele>
        <time>2022-09-28T12:06:41Z</time>
      </trkpt>
      <trkpt lat="46.53623" lon="6.54957">
        <ele>389.7</ele>
        <time>2022-09-28T12:06:42Z</time>
      </trkpt>
      <trkpt lat="46.53623" lon="6.54957">
        <ele>389.7</ele>
        <time>2022-09-28T12:06:43Z</time>
      </trkpt>
      <trkpt lat="46.53623" lon="6.54954">
        <ele>389.7</ele>
        <time>2022-09-28T12:06:44Z</time>
      </trkpt>
      <trkpt lat="46.53623" lon="6.54953">
        <ele>389.7</ele>
        <time>2022-09-28T12:06:45Z</time>
      </trkpt>
      <trkpt lat="46.53623" lon="6.54951">
        <ele>389.7</ele>
        <time>2022-09-28T12:06:46Z</time>
      </trkpt>
      <trkpt lat="46.53624" lon="6.54948">
        <ele>389.7</ele>
        <time>2022-09-28T12:06:47Z</time>
      </trkpt>
      <trkpt lat="46.53625" lon="6.54947">
        <ele>389.7</ele>
        <time>2022-09-28T12:06:48Z</time>
      </trkpt>
      <trkpt lat="46.53627" lon="6.54948">
        <ele>389.7</ele>
        <time>2022-09-28T12:06:49Z</time>
      </trkpt>
      <trkpt lat="46.5363" lon="6.54953">
        <ele>389.7</ele>
        <time>2022-09-28T12:06:50Z</time>
      </trkpt>
      <trkpt lat="46.53631" lon="6.54955">
        <ele>389.7</ele>
        <time>2022-09-28T12:06:51Z</time>
      </trkpt>
      <trkpt lat="46.53632" lon="6.5496">
        <ele>389.7</ele>
        <time>2022-09-28T12:06:52Z</time>
      </trkpt>
      <trkpt lat="46.53635" lon="6.54965">
        <ele>389.7</ele>
        <time>2022-09-28T12:06:53Z</time>
      </trkpt>
      <trkpt lat="46.53637" lon="6.5497">
        <ele>389.8</ele>
        <time>2022-09-28T12:06:54Z</time>
      </trkpt>
      <trkpt lat="46.53639" lon="6.54975">
        <ele>389.8</ele>
        <time>2022-09-28T12:06:55Z</time>
      </trkpt>
      <trkpt lat="46.5364" lon="6.5498">
        <ele>389.8</ele>
        <time>2022-09-28T12:06:56Z</time>
      </trkpt>
      <trkpt lat="46.53642" lon="6.54984">
        <ele>389.8</ele>
        <time>2022-09-28T12:06:57Z</time>
      </trkpt>
      <trkpt lat="46.53644" lon="6.54989">
        <ele>389.8</ele>
        <time>2022-09-28T12:06:58Z</time>
      </trkpt>
      <trkpt lat="46.53646" lon="6.54994">
        <ele>389.8</ele>
        <time>2022-09-28T12:06:59Z</time>
      </trkpt>
      <trkpt lat="46.53648" lon="6.54999">
        <ele>389.7</ele>
        <time>2022-09-28T12:07:00Z</time>
      </trkpt>
      <trkpt lat="46.53648" lon="6.55004">
        <ele>389.7</ele>
        <time>2022-09-28T12:07:01Z</time>
      </trkpt>
      <trkpt lat="46.5365" lon="6.55009">
        <ele>389.7</ele>
        <time>2022-09-28T12:07:02Z</time>
      </trkpt>
      <trkpt lat="46.53653" lon="6.55014">
        <ele>389.7</ele>
        <time>2022-09-28T12:07:03Z</time>
      </trkpt>
      <trkpt lat="46.53654" lon="6.5502">
        <ele>389.7</ele>
        <time>2022-09-28T12:07:04Z</time>
      </trkpt>
      <trkpt lat="46.53656" lon="6.55025">
        <ele>389.7</ele>
        <time>2022-09-28T12:07:05Z</time>
      </trkpt>
      <trkpt lat="46.53657" lon="6.55031">
        <ele>389.7</ele>
        <time>2022-09-28T12:07:06Z</time>
      </trkpt>
      <trkpt lat="46.53659" lon="6.55036">
        <ele>389.6</ele>
        <time>2022-09-28T12:07:07Z</time>
      </trkpt>
      <trkpt lat="46.53661" lon="6.55041">
        <ele>389.6</ele>
        <time>2022-09-28T12:07:08Z</time>
      </trkpt>
      <trkpt lat="46.53662" lon="6.55046">
        <ele>389.6</ele>
        <time>2022-09-28T12:07:09Z</time>
      </trkpt>
      <trkpt lat="46.53663" lon="6.5505">
        <ele>389.6</ele>
        <time>2022-09-28T12:07:10Z</time>
      </trkpt>
      <trkpt lat="46.53664" lon="6.55056">
        <ele>389.6</ele>
        <time>2022-09-28T12:07:11Z</time>
      </trkpt>
      <trkpt lat="46.53665" lon="6.55061">
        <ele>389.5</ele>
        <time>2022-09-28T12:07:12Z</time>
      </trkpt>
      <trkpt lat="46.53666" lon="6.55065">
        <ele>389.4</ele>
        <time>2022-09-28T12:07:13Z</time>
      </trkpt>
      <trkpt lat="46.53667" lon="6.5507">
        <ele>389.4</ele>
        <time>2022-09-28T12:07:14Z</time>
      </trkpt>
      <trkpt lat="46.53669" lon="6.55075">
        <ele>389.3</ele>
        <time>2022-09-28T12:07:15Z</time>
      </trkpt>
      <trkpt lat="46.5367" lon="6.5508">
        <ele>389.2</ele>
        <time>2022-09-28T12:07:16Z</time>
      </trkpt>
      <trkpt lat="46.53671" lon="6.55086">
        <ele>389.2</ele>
        <time>2022-09-28T12:07:17Z</time>
      </trkpt>
      <trkpt lat="46.53672" lon="6.55092">
        <ele>389.1</ele>
        <time>2022-09-28T12:07:18Z</time>
      </trkpt>
      <trkpt lat="46.53673" lon="6.55097">
        <ele>389.1</ele>
        <time>2022-09-28T12:07:19Z</time>
      </trkpt>
      <trkpt lat="46.53673" lon="6.55102">
        <ele>389</ele>
        <time>2022-09-28T12:07:20Z</time>
      </trkpt>
      <trkpt lat="46.53673" lon="6.55107">
        <ele>388.9</ele>
        <time>2022-09-28T12:07:21Z</time>
      </trkpt>
      <trkpt lat="46.53674" lon="6.55112">
        <ele>388.9</ele>
        <time>2022-09-28T12:07:22Z</time>
      </trkpt>
      <trkpt lat="46.53674" lon="6.55118">
        <ele>388.9</ele>
        <time>2022-09-28T12:07:23Z</time>
      </trkpt>
      <trkpt lat="46.53676" lon="6.55124">
        <ele>388.8</ele>
        <time>2022-09-28T12:07:24Z</time>
      </trkpt>
      <trkpt lat="46.53678" lon="6.55129">
        <ele>388.8</ele>
        <time>2022-09-28T12:07:25Z</time>
      </trkpt>
      <trkpt lat="46.53681" lon="6.55132">
        <ele>388.8</ele>
        <time>2022-09-28T12:07:26Z</time>
      </trkpt>
      <trkpt lat="46.53685" lon="6.55135">
        <ele>388.8</ele>
        <time>2022-09-28T12:07:27Z</time>
      </trkpt>
      <trkpt lat="46.53689" lon="6.55137">
        <ele>388.7</ele>
        <time>2022-09-28T12:07:28Z</time>
      </trkpt>
      <trkpt lat="46.53693" lon="6.55139">
        <ele>388.7</ele>
        <time>2022-09-28T12:07:29Z</time>
      </trkpt>
      <trkpt lat="46.53697" lon="6.55142">
        <ele>388.6</ele>
        <time>2022-09-28T12:07:30Z</time>
      </trkpt>
      <trkpt lat="46.53701" lon="6.55147">
        <ele>388.6</ele>
        <time>2022-09-28T12:07:31Z</time>
      </trkpt>
      <trkpt lat="46.53706" lon="6.5515">
        <ele>388.5</ele>
        <time>2022-09-28T12:07:32Z</time>
      </trkpt>
      <trkpt lat="46.5371" lon="6.55154">
        <ele>388.4</ele>
        <time>2022-09-28T12:07:33Z</time>
      </trkpt>
      <trkpt lat="46.53715" lon="6.55158">
        <ele>388.4</ele>
        <time>2022-09-28T12:07:34Z</time>
      </trkpt>
      <trkpt lat="46.53719" lon="6.55162">
        <ele>388.3</ele>
        <time>2022-09-28T12:07:35Z</time>
      </trkpt>
      <trkpt lat="46.53725" lon="6.55166">
        <ele>388.2</ele>
        <time>2022-09-28T12:07:36Z</time>
      </trkpt>
      <trkpt lat="46.53729" lon="6.55168">
        <ele>388.1</ele>
        <time>2022-09-28T12:07:37Z</time>
      </trkpt>
      <trkpt lat="46.53735" lon="6.55171">
        <ele>388.1</ele>
        <time>2022-09-28T12:07:38Z</time>
      </trkpt>
      <trkpt lat="46.5374" lon="6.55174">
        <ele>388</ele>
        <time>2022-09-28T12:07:39Z</time>
      </trkpt>
      <trkpt lat="46.53745" lon="6.55177">
        <ele>387.9</ele>
        <time>2022-09-28T12:07:40Z</time>
      </trkpt>
      <trkpt lat="46.5375" lon="6.55179">
        <ele>387.9</ele>
        <time>2022-09-28T12:07:41Z</time>
      </trkpt>
      <trkpt lat="46.53756" lon="6.55182">
        <ele>387.9</ele>
        <time>2022-09-28T12:07:42Z</time>
      </trkpt>
      <trkpt lat="46.53761" lon="6.55185">
        <ele>387.8</ele>
        <time>2022-09-28T12:07:43Z</time>
      </trkpt>
      <trkpt lat="46.53766" lon="6.55187">
        <ele>387.8</ele>
        <time>2022-09-28T12:07:44Z</time>
      </trkpt>
      <trkpt lat="46.5377" lon="6.55189">
        <ele>387.8</ele>
        <time>2022-09-28T12:07:45Z</time>
      </trkpt>
      <trkpt lat="46.53775" lon="6.55191">
        <ele>387.8</ele>
        <time>2022-09-28T12:07:46Z</time>
      </trkpt>
      <trkpt lat="46.53779" lon="6.55193">
        <ele>387.8</ele>
        <time>2022-09-28T12:07:47Z</time>
      </trkpt>
      <trkpt lat="46.53784" lon="6.55196">
        <ele>387.8</ele>
        <time>2022-09-28T12:07:48Z</time>
      </trkpt>
      <trkpt lat="46.53789" lon="6.55198">
        <ele>387.9</ele>
        <time>2022-09-28T12:07:49Z</time>
      </trkpt>
      <trkpt lat="46.53793" lon="6.55205">
        <ele>387.9</ele>
        <time>2022-09-28T12:07:50Z</time>
      </trkpt>
      <trkpt lat="46.53798" lon="6.55203">
        <ele>387.9</ele>
        <time>2022-09-28T12:07:51Z</time>
      </trkpt>
      <trkpt lat="46.53803" lon="6.55205">
        <ele>388</ele>
        <time>2022-09-28T12:07:52Z</time>
      </trkpt>
      <trkpt lat="46.53807" lon="6.55208">
        <ele>388</ele>
        <time>2022-09-28T12:07:53Z</time>
      </trkpt>
      <trkpt lat="46.53812" lon="6.55209">
        <ele>388.1</ele>
        <time>2022-09-28T12:07:54Z</time>
      </trkpt>
      <trkpt lat="46.53817" lon="6.55212">
        <ele>388.1</ele>
        <time>2022-09-28T12:07:55Z</time>
      </trkpt>
      <trkpt lat="46.53822" lon="6.55214">
        <ele>388.2</ele>
        <time>2022-09-28T12:07:56Z</time>
      </trkpt>
      <trkpt lat="46.53826" lon="6.55215">
        <ele>388.2</ele>
        <time>2022-09-28T12:07:57Z</time>
      </trkpt>
      <trkpt lat="46.53831" lon="6.55217">
        <ele>388.3</ele>
        <time>2022-09-28T12:07:58Z</time>
      </trkpt>
      <trkpt lat="46.53835" lon="6.55219">
        <ele>388.3</ele>
        <time>2022-09-28T12:07:59Z</time>
      </trkpt>
      <trkpt lat="46.5384" lon="6.55222">
        <ele>388.4</ele>
        <time>2022-09-28T12:08:00Z</time>
      </trkpt>
      <trkpt lat="46.53844" lon="6.55224">
        <ele>388.4</ele>
        <time>2022-09-28T12:08:01Z</time>
      </trkpt>
      <trkpt lat="46.53849" lon="6.55227">
        <ele>388.5</ele>
        <time>2022-09-28T12:08:02Z</time>
      </trkpt>
      <trkpt lat="46.53853" lon="6.55229">
        <ele>388.5</ele>
        <time>2022-09-28T12:08:03Z</time>
      </trkpt>
      <trkpt lat="46.53858" lon="6.55231">
        <ele>388.6</ele>
        <time>2022-09-28T12:08:04Z</time>
      </trkpt>
      <trkpt lat="46.53862" lon="6.55234">
        <ele>388.7</ele>
        <time>2022-09-28T12:08:05Z</time>
      </trkpt>
      <trkpt lat="46.53866" lon="6.55236">
        <ele>388.7</ele>
        <time>2022-09-28T12:08:06Z</time>
      </trkpt>
      <trkpt lat="46.53871" lon="6.55239">
        <ele>388.8</ele>
        <time>2022-09-28T12:08:07Z</time>
      </trkpt>
      <trkpt lat="46.53875" lon="6.55242">
        <ele>388.9</ele>
        <time>2022-09-28T12:08:08Z</time>
      </trkpt>
      <trkpt lat="46.5388" lon="6.55245">
        <ele>389</ele>
        <time>2022-09-28T12:08:09Z</time>
      </trkpt>
      <trkpt lat="46.53884" lon="6.55247">
        <ele>389</ele>
        <time>2022-09-28T12:08:10Z</time>
      </trkpt>
      <trkpt lat="46.53888" lon="6.5525">
        <ele>389.1</ele>
        <time>2022-09-28T12:08:11Z</time>
      </trkpt>
      <trkpt lat="46.53892" lon="6.55253">
        <ele>389.2</ele>
        <time>2022-09-28T12:08:12Z</time>
      </trkpt>
      <trkpt lat="46.53896" lon="6.55255">
        <ele>389.3</ele>
        <time>2022-09-28T12:08:13Z</time>
      </trkpt>
      <trkpt lat="46.53899" lon="6.55258">
        <ele>389.3</ele>
        <time>2022-09-28T12:08:14Z</time>
      </trkpt>
      <trkpt lat="46.53904" lon="6.55261">
        <ele>389.4</ele>
        <time>2022-09-28T12:08:15Z</time>
      </trkpt>
      <trkpt lat="46.53908" lon="6.55264">
        <ele>389.4</ele>
        <time>2022-09-28T12:08:16Z</time>
      </trkpt>
      <trkpt lat="46.53913" lon="6.55266">
        <ele>389.5</ele>
        <time>2022-09-28T12:08:17Z</time>
      </trkpt>
      <trkpt lat="46.53916" lon="6.55269">
        <ele>389.6</ele>
        <time>2022-09-28T12:08:18Z</time>
      </trkpt>
      <trkpt lat="46.5392" lon="6.55271">
        <ele>389.6</ele>
        <time>2022-09-28T12:08:19Z</time>
      </trkpt>
      <trkpt lat="46.53924" lon="6.55274">
        <ele>389.7</ele>
        <time>2022-09-28T12:08:20Z</time>
      </trkpt>
      <trkpt lat="46.53928" lon="6.55276">
        <ele>389.8</ele>
        <time>2022-09-28T12:08:21Z</time>
      </trkpt>
      <trkpt lat="46.53932" lon="6.55278">
        <ele>389.8</ele>
        <time>2022-09-28T12:08:22Z</time>
      </trkpt>
      <trkpt lat="46.53936" lon="6.55281">
        <ele>389.9</ele>
        <time>2022-09-28T12:08:23Z</time>
      </trkpt>
      <trkpt lat="46.53939" lon="6.55283">
        <ele>390</ele>
        <time>2022-09-28T12:08:24Z</time>
      </trkpt>
      <trkpt lat="46.53943" lon="6.55286">
        <ele>390.1</ele>
        <time>2022-09-28T12:08:25Z</time>
      </trkpt>
      <trkpt lat="46.53947" lon="6.55289">
        <ele>390.1</ele>
        <time>2022-09-28T12:08:26Z</time>
      </trkpt>
      <trkpt lat="46.5395" lon="6.55291">
        <ele>390.2</ele>
        <time>2022-09-28T12:08:27Z</time>
      </trkpt>
      <trkpt lat="46.53954" lon="6.55294">
        <ele>390.3</ele>
        <time>2022-09-28T12:08:28Z</time>
      </trkpt>
      <trkpt lat="46.53958" lon="6.55296">
        <ele>390.4</ele>
        <time>2022-09-28T12:08:29Z</time>
      </trkpt>
      <trkpt lat="46.53962" lon="6.55298">
        <ele>390.5</ele>
        <time>2022-09-28T12:08:30Z</time>
      </trkpt>
      <trkpt lat="46.53966" lon="6.55301">
        <ele>390.6</ele>
        <time>2022-09-28T12:08:31Z</time>
      </trkpt>
      <trkpt lat="46.53969" lon="6.55303">
        <ele>390.6</ele>
        <time>2022-09-28T12:08:32Z</time>
      </trkpt>
      <trkpt lat="46.53977" lon="6.55307">
        <ele>390.8</ele>
        <time>2022-09-28T12:08:34Z</time>
      </trkpt>
      <trkpt lat="46.53981" lon="6.55309">
        <ele>390.9</ele>
        <time>2022-09-28T12:08:35Z</time>
      </trkpt>
      <trkpt lat="46.53985" lon="6.55311">
        <ele>391</ele>
        <time>2022-09-28T12:08:36Z</time>
      </trkpt>
      <trkpt lat="46.53989" lon="6.55313">
        <ele>391.1</ele>
        <time>2022-09-28T12:08:37Z</time>
      </trkpt>
      <trkpt lat="46.53992" lon="6.55314">
        <ele>391.1</ele>
        <time>2022-09-28T12:08:38Z</time>
      </trkpt>
      <trkpt lat="46.53996" lon="6.55316">
        <ele>391.2</ele>
        <time>2022-09-28T12:08:39Z</time>
      </trkpt>
      <trkpt lat="46.54" lon="6.55318">
        <ele>391.3</ele>
        <time>2022-09-28T12:08:40Z</time>
      </trkpt>
      <trkpt lat="46.54004" lon="6.5532">
        <ele>391.4</ele>
        <time>2022-09-28T12:08:41Z</time>
      </trkpt>
      <trkpt lat="46.54007" lon="6.55322">
        <ele>391.5</ele>
        <time>2022-09-28T12:08:42Z</time>
      </trkpt>
      <trkpt lat="46.54012" lon="6.55324">
        <ele>391.6</ele>
        <time>2022-09-28T12:08:43Z</time>
      </trkpt>
      <trkpt lat="46.54016" lon="6.55326">
        <ele>391.7</ele>
        <time>2022-09-28T12:08:44Z</time>
      </trkpt>
      <trkpt lat="46.54019" lon="6.55326">
        <ele>391.7</ele>
        <time>2022-09-28T12:08:45Z</time>
      </trkpt>
      <trkpt lat="46.54024" lon="6.55328">
        <ele>391.8</ele>
        <time>2022-09-28T12:08:46Z</time>
      </trkpt>
      <trkpt lat="46.54028" lon="6.5533">
        <ele>391.9</ele>
        <time>2022-09-28T12:08:47Z</time>
      </trkpt>
      <trkpt lat="46.54031" lon="6.55331">
        <ele>392</ele>
        <time>2022-09-28T12:08:48Z</time>
      </trkpt>
      <trkpt lat="46.54035" lon="6.55333">
        <ele>392.1</ele>
        <time>2022-09-28T12:08:49Z</time>
      </trkpt>
      <trkpt lat="46.5404" lon="6.55334">
        <ele>392.2</ele>
        <time>2022-09-28T12:08:50Z</time>
      </trkpt>
      <trkpt lat="46.54044" lon="6.55336">
        <ele>392.2</ele>
        <time>2022-09-28T12:08:51Z</time>
      </trkpt>
      <trkpt lat="46.54047" lon="6.55337">
        <ele>392.3</ele>
        <time>2022-09-28T12:08:52Z</time>
      </trkpt>
      <trkpt lat="46.54052" lon="6.55338">
        <ele>392.3</ele>
        <time>2022-09-28T12:08:53Z</time>
      </trkpt>
      <trkpt lat="46.54056" lon="6.5534">
        <ele>392.4</ele>
        <time>2022-09-28T12:08:54Z</time>
      </trkpt>
      <trkpt lat="46.5406" lon="6.55341">
        <ele>392.5</ele>
        <time>2022-09-28T12:08:55Z</time>
      </trkpt>
      <trkpt lat="46.54064" lon="6.55343">
        <ele>392.6</ele>
        <time>2022-09-28T12:08:56Z</time>
      </trkpt>
      <trkpt lat="46.54069" lon="6.55345">
        <ele>392.6</ele>
        <time>2022-09-28T12:08:57Z</time>
      </trkpt>
      <trkpt lat="46.54073" lon="6.55346">
        <ele>392.7</ele>
        <time>2022-09-28T12:08:58Z</time>
      </trkpt>
      <trkpt lat="46.54077" lon="6.55348">
        <ele>392.8</ele>
        <time>2022-09-28T12:08:59Z</time>
      </trkpt>
      <trkpt lat="46.54081" lon="6.5535">
        <ele>392.9</ele>
        <time>2022-09-28T12:09:00Z</time>
      </trkpt>
      <trkpt lat="46.54084" lon="6.55352">
        <ele>393</ele>
        <time>2022-09-28T12:09:01Z</time>
      </trkpt>
      <trkpt lat="46.54086" lon="6.55356">
        <ele>393</ele>
        <time>2022-09-28T12:09:02Z</time>
      </trkpt>
      <trkpt lat="46.5409" lon="6.55359">
        <ele>393.1</ele>
        <time>2022-09-28T12:09:03Z</time>
      </trkpt>
      <trkpt lat="46.54092" lon="6.55362">
        <ele>393.3</ele>
        <time>2022-09-28T12:09:04Z</time>
      </trkpt>
      <trkpt lat="46.54093" lon="6.55366">
        <ele>393.3</ele>
        <time>2022-09-28T12:09:05Z</time>
      </trkpt>
      <trkpt lat="46.54096" lon="6.5537">
        <ele>393.2</ele>
        <time>2022-09-28T12:09:06Z</time>
      </trkpt>
      <trkpt lat="46.54098" lon="6.55374">
        <ele>393.2</ele>
        <time>2022-09-28T12:09:07Z</time>
      </trkpt>
      <trkpt lat="46.541" lon="6.55379">
        <ele>393.2</ele>
        <time>2022-09-28T12:09:08Z</time>
      </trkpt>
      <trkpt lat="46.54101" lon="6.55383">
        <ele>393.3</ele>
        <time>2022-09-28T12:09:09Z</time>
      </trkpt>
      <trkpt lat="46.54103" lon="6.55388">
        <ele>393.3</ele>
        <time>2022-09-28T12:09:10Z</time>
      </trkpt>
      <trkpt lat="46.54104" lon="6.55393">
        <ele>393.3</ele>
        <time>2022-09-28T12:09:11Z</time>
      </trkpt>
      <trkpt lat="46.54105" lon="6.55398">
        <ele>393.4</ele>
        <time>2022-09-28T12:09:12Z</time>
      </trkpt>
      <trkpt lat="46.54105" lon="6.55402">
        <ele>393.4</ele>
        <time>2022-09-28T12:09:13Z</time>
      </trkpt>
      <trkpt lat="46.54106" lon="6.55407">
        <ele>393.5</ele>
        <time>2022-09-28T12:09:14Z</time>
      </trkpt>
      <trkpt lat="46.54106" lon="6.55411">
        <ele>393.5</ele>
        <time>2022-09-28T12:09:15Z</time>
      </trkpt>
      <trkpt lat="46.54107" lon="6.55415">
        <ele>393.6</ele>
        <time>2022-09-28T12:09:16Z</time>
      </trkpt>
      <trkpt lat="46.54108" lon="6.5542">
        <ele>393.7</ele>
        <time>2022-09-28T12:09:17Z</time>
      </trkpt>
      <trkpt lat="46.54108" lon="6.55422">
        <ele>393.7</ele>
        <time>2022-09-28T12:09:18Z</time>
      </trkpt>
      <trkpt lat="46.54108" lon="6.55426">
        <ele>393.8</ele>
        <time>2022-09-28T12:09:19Z</time>
      </trkpt>
      <trkpt lat="46.54108" lon="6.55428">
        <ele>393.8</ele>
        <time>2022-09-28T12:09:20Z</time>
      </trkpt>
      <trkpt lat="46.54109" lon="6.55432">
        <ele>393.9</ele>
        <time>2022-09-28T12:09:21Z</time>
      </trkpt>
      <trkpt lat="46.54109" lon="6.55433">
        <ele>393.9</ele>
        <time>2022-09-28T12:09:22Z</time>
      </trkpt>
      <trkpt lat="46.54111" lon="6.55437">
        <ele>394</ele>
        <time>2022-09-28T12:09:23Z</time>
      </trkpt>
      <trkpt lat="46.54111" lon="6.55437">
        <ele>394</ele>
        <time>2022-09-28T12:09:24Z</time>
      </trkpt>
      <trkpt lat="46.54115" lon="6.55438">
        <ele>394.5</ele>
        <time>2022-09-28T12:09:25Z</time>
      </trkpt>
      <trkpt lat="46.54116" lon="6.55438">
        <ele>394.5</ele>
        <time>2022-09-28T12:09:26Z</time>
      </trkpt>
      <trkpt lat="46.54119" lon="6.55437">
        <ele>394.6</ele>
        <time>2022-09-28T12:09:27Z</time>
      </trkpt>
      <trkpt lat="46.54123" lon="6.55436">
        <ele>394.6</ele>
        <time>2022-09-28T12:09:28Z</time>
      </trkpt>
      <trkpt lat="46.54124" lon="6.55436">
        <ele>394.6</ele>
        <time>2022-09-28T12:09:29Z</time>
      </trkpt>
      <trkpt lat="46.54127" lon="6.55435">
        <ele>394.8</ele>
        <time>2022-09-28T12:09:30Z</time>
      </trkpt>
      <trkpt lat="46.54129" lon="6.55435">
        <ele>394.8</ele>
        <time>2022-09-28T12:09:31Z</time>
      </trkpt>
      <trkpt lat="46.54133" lon="6.55437">
        <ele>394.8</ele>
        <time>2022-09-28T12:09:32Z</time>
      </trkpt>
      <trkpt lat="46.54134" lon="6.55438">
        <ele>394.8</ele>
        <time>2022-09-28T12:09:33Z</time>
      </trkpt>
      <trkpt lat="46.54137" lon="6.55442">
        <ele>394.9</ele>
        <time>2022-09-28T12:09:34Z</time>
      </trkpt>
      <trkpt lat="46.5414" lon="6.55445">
        <ele>394.8</ele>
        <time>2022-09-28T12:09:35Z</time>
      </trkpt>
      <trkpt lat="46.54143" lon="6.55447">
        <ele>394.8</ele>
        <time>2022-09-28T12:09:36Z</time>
      </trkpt>
      <trkpt lat="46.54145" lon="6.55448">
        <ele>394.8</ele>
        <time>2022-09-28T12:09:37Z</time>
      </trkpt>
      <trkpt lat="46.54148" lon="6.55449">
        <ele>394.7</ele>
        <time>2022-09-28T12:09:38Z</time>
      </trkpt>
      <trkpt lat="46.54149" lon="6.55449">
        <ele>394.7</ele>
        <time>2022-09-28T12:09:39Z</time>
      </trkpt>
      <trkpt lat="46.5415" lon="6.5545">
        <ele>394.7</ele>
        <time>2022-09-28T12:09:40Z</time>
      </trkpt>
      <trkpt lat="46.54152" lon="6.55452">
        <ele>394.7</ele>
        <time>2022-09-28T12:09:41Z</time>
      </trkpt>
      <trkpt lat="46.54152" lon="6.55453">
        <ele>394.6</ele>
        <time>2022-09-28T12:09:42Z</time>
      </trkpt>
      <trkpt lat="46.54153" lon="6.55456">
        <ele>394.6</ele>
        <time>2022-09-28T12:09:43Z</time>
      </trkpt>
      <trkpt lat="46.54152" lon="6.55459">
        <ele>394.6</ele>
        <time>2022-09-28T12:09:44Z</time>
      </trkpt>
      <trkpt lat="46.54153" lon="6.55461">
        <ele>394.6</ele>
        <time>2022-09-28T12:09:45Z</time>
      </trkpt>
      <trkpt lat="46.54156" lon="6.55462">
        <ele>394.5</ele>
        <time>2022-09-28T12:09:46Z</time>
      </trkpt>
      <trkpt lat="46.54157" lon="6.55462">
        <ele>394.5</ele>
        <time>2022-09-28T12:09:47Z</time>
      </trkpt>
      <trkpt lat="46.5416" lon="6.5546">
        <ele>394.5</ele>
        <time>2022-09-28T12:09:48Z</time>
      </trkpt>
      <trkpt lat="46.54164" lon="6.55458">
        <ele>394.4</ele>
        <time>2022-09-28T12:09:49Z</time>
      </trkpt>
      <trkpt lat="46.54167" lon="6.55456">
        <ele>394.4</ele>
        <time>2022-09-28T12:09:50Z</time>
      </trkpt>
      <trkpt lat="46.54171" lon="6.55455">
        <ele>394.4</ele>
        <time>2022-09-28T12:09:51Z</time>
      </trkpt>
      <trkpt lat="46.54175" lon="6.55454">
        <ele>394.4</ele>
        <time>2022-09-28T12:09:52Z</time>
      </trkpt>
      <trkpt lat="46.54178" lon="6.55453">
        <ele>394.4</ele>
        <time>2022-09-28T12:09:53Z</time>
      </trkpt>
      <trkpt lat="46.54182" lon="6.55452">
        <ele>394.3</ele>
        <time>2022-09-28T12:09:54Z</time>
      </trkpt>
      <trkpt lat="46.54186" lon="6.5545">
        <ele>394.3</ele>
        <time>2022-09-28T12:09:55Z</time>
      </trkpt>
      <trkpt lat="46.5419" lon="6.55449">
        <ele>394.4</ele>
        <time>2022-09-28T12:09:56Z</time>
      </trkpt>
      <trkpt lat="46.54193" lon="6.55448">
        <ele>394.4</ele>
        <time>2022-09-28T12:09:57Z</time>
      </trkpt>
      <trkpt lat="46.54197" lon="6.55447">
        <ele>394.4</ele>
        <time>2022-09-28T12:09:58Z</time>
      </trkpt>
      <trkpt lat="46.54201" lon="6.55445">
        <ele>394.4</ele>
        <time>2022-09-28T12:09:59Z</time>
      </trkpt>
      <trkpt lat="46.54205" lon="6.55445">
        <ele>394.4</ele>
        <time>2022-09-28T12:10:00Z</time>
      </trkpt>
      <trkpt lat="46.54208" lon="6.55443">
        <ele>394.4</ele>
        <time>2022-09-28T12:10:01Z</time>
      </trkpt>
      <trkpt lat="46.54211" lon="6.55442">
        <ele>394.4</ele>
        <time>2022-09-28T12:10:02Z</time>
      </trkpt>
      <trkpt lat="46.54215" lon="6.55441">
        <ele>394.5</ele>
        <time>2022-09-28T12:10:03Z</time>
      </trkpt>
      <trkpt lat="46.54218" lon="6.55441">
        <ele>394.5</ele>
        <time>2022-09-28T12:10:04Z</time>
      </trkpt>
      <trkpt lat="46.54222" lon="6.55439">
        <ele>394.5</ele>
        <time>2022-09-28T12:10:05Z</time>
      </trkpt>
      <trkpt lat="46.54226" lon="6.55438">
        <ele>394.5</ele>
        <time>2022-09-28T12:10:06Z</time>
      </trkpt>
      <trkpt lat="46.5423" lon="6.55436">
        <ele>394.6</ele>
        <time>2022-09-28T12:10:07Z</time>
      </trkpt>
      <trkpt lat="46.54233" lon="6.55435">
        <ele>394.6</ele>
        <time>2022-09-28T12:10:08Z</time>
      </trkpt>
      <trkpt lat="46.54238" lon="6.55434">
        <ele>394.7</ele>
        <time>2022-09-28T12:10:09Z</time>
      </trkpt>
      <trkpt lat="46.54242" lon="6.55433">
        <ele>394.7</ele>
        <time>2022-09-28T12:10:10Z</time>
      </trkpt>
      <trkpt lat="46.54245" lon="6.55432">
        <ele>394.8</ele>
        <time>2022-09-28T12:10:11Z</time>
      </trkpt>
      <trkpt lat="46.54249" lon="6.55431">
        <ele>394.8</ele>
        <time>2022-09-28T12:10:12Z</time>
      </trkpt>
      <trkpt lat="46.54254" lon="6.55429">
        <ele>394.9</ele>
        <time>2022-09-28T12:10:13Z</time>
      </trkpt>
      <trkpt lat="46.54258" lon="6.55427">
        <ele>395</ele>
        <time>2022-09-28T12:10:14Z</time>
      </trkpt>
      <trkpt lat="46.54263" lon="6.55426">
        <ele>395</ele>
        <time>2022-09-28T12:10:15Z</time>
      </trkpt>
      <trkpt lat="46.54267" lon="6.55425">
        <ele>395.1</ele>
        <time>2022-09-28T12:10:16Z</time>
      </trkpt>
      <trkpt lat="46.5427" lon="6.55424">
        <ele>395.1</ele>
        <time>2022-09-28T12:10:17Z</time>
      </trkpt>
      <trkpt lat="46.54275" lon="6.55423">
        <ele>395.2</ele>
        <time>2022-09-28T12:10:18Z</time>
      </trkpt>
      <trkpt lat="46.54278" lon="6.55421">
        <ele>395.3</ele>
        <time>2022-09-28T12:10:19Z</time>
      </trkpt>
      <trkpt lat="46.54282" lon="6.55419">
        <ele>395.3</ele>
        <time>2022-09-28T12:10:20Z</time>
      </trkpt>
      <trkpt lat="46.54285" lon="6.55418">
        <ele>395.4</ele>
        <time>2022-09-28T12:10:21Z</time>
      </trkpt>
      <trkpt lat="46.54289" lon="6.55417">
        <ele>395.5</ele>
        <time>2022-09-28T12:10:22Z</time>
      </trkpt>
      <trkpt lat="46.54293" lon="6.55416">
        <ele>395.6</ele>
        <time>2022-09-28T12:10:23Z</time>
      </trkpt>
      <trkpt lat="46.54297" lon="6.55413">
        <ele>395.7</ele>
        <time>2022-09-28T12:10:24Z</time>
      </trkpt>
      <trkpt lat="46.54301" lon="6.55411">
        <ele>395.8</ele>
        <time>2022-09-28T12:10:25Z</time>
      </trkpt>
      <trkpt lat="46.54304" lon="6.5541">
        <ele>395.9</ele>
        <time>2022-09-28T12:10:26Z</time>
      </trkpt>
      <trkpt lat="46.54308" lon="6.55408">
        <ele>396</ele>
        <time>2022-09-28T12:10:27Z</time>
      </trkpt>
      <trkpt lat="46.5431" lon="6.55406">
        <ele>396.1</ele>
        <time>2022-09-28T12:10:28Z</time>
      </trkpt>
      <trkpt lat="46.54314" lon="6.55404">
        <ele>396.2</ele>
        <time>2022-09-28T12:10:29Z</time>
      </trkpt>
      <trkpt lat="46.54318" lon="6.55401">
        <ele>396.3</ele>
        <time>2022-09-28T12:10:30Z</time>
      </trkpt>
      <trkpt lat="46.54321" lon="6.55398">
        <ele>396.4</ele>
        <time>2022-09-28T12:10:31Z</time>
      </trkpt>
      <trkpt lat="46.54324" lon="6.55396">
        <ele>396.5</ele>
        <time>2022-09-28T12:10:32Z</time>
      </trkpt>
      <trkpt lat="46.54328" lon="6.55394">
        <ele>396.6</ele>
        <time>2022-09-28T12:10:33Z</time>
      </trkpt>
      <trkpt lat="46.54331" lon="6.55391">
        <ele>396.7</ele>
        <time>2022-09-28T12:10:34Z</time>
      </trkpt>
      <trkpt lat="46.54334" lon="6.55388">
        <ele>396.8</ele>
        <time>2022-09-28T12:10:35Z</time>
      </trkpt>
      <trkpt lat="46.54337" lon="6.55385">
        <ele>396.9</ele>
        <time>2022-09-28T12:10:36Z</time>
      </trkpt>
      <trkpt lat="46.5434" lon="6.55382">
        <ele>397</ele>
        <time>2022-09-28T12:10:37Z</time>
      </trkpt>
      <trkpt lat="46.54344" lon="6.55379">
        <ele>397.1</ele>
        <time>2022-09-28T12:10:38Z</time>
      </trkpt>
      <trkpt lat="46.54346" lon="6.55376">
        <ele>397.2</ele>
        <time>2022-09-28T12:10:39Z</time>
      </trkpt>
      <trkpt lat="46.54349" lon="6.55372">
        <ele>397.3</ele>
        <time>2022-09-28T12:10:40Z</time>
      </trkpt>
      <trkpt lat="46.54352" lon="6.5537">
        <ele>397.4</ele>
        <time>2022-09-28T12:10:41Z</time>
      </trkpt>
      <trkpt lat="46.54354" lon="6.55366">
        <ele>397.5</ele>
        <time>2022-09-28T12:10:42Z</time>
      </trkpt>
      <trkpt lat="46.54358" lon="6.55363">
        <ele>397.6</ele>
        <time>2022-09-28T12:10:43Z</time>
      </trkpt>
      <trkpt lat="46.54361" lon="6.55359">
        <ele>397.7</ele>
        <time>2022-09-28T12:10:44Z</time>
      </trkpt>
      <trkpt lat="46.54363" lon="6.55356">
        <ele>397.8</ele>
        <time>2022-09-28T12:10:45Z</time>
      </trkpt>
      <trkpt lat="46.54368" lon="6.55352">
        <ele>397.9</ele>
        <time>2022-09-28T12:10:46Z</time>
      </trkpt>
      <trkpt lat="46.5437" lon="6.55349">
        <ele>397.9</ele>
        <time>2022-09-28T12:10:47Z</time>
      </trkpt>
      <trkpt lat="46.54373" lon="6.55345">
        <ele>398</ele>
        <time>2022-09-28T12:10:48Z</time>
      </trkpt>
      <trkpt lat="46.54376" lon="6.55341">
        <ele>398.1</ele>
        <time>2022-09-28T12:10:49Z</time>
      </trkpt>
      <trkpt lat="46.54378" lon="6.55337">
        <ele>398.1</ele>
        <time>2022-09-28T12:10:50Z</time>
      </trkpt>
      <trkpt lat="46.54381" lon="6.55333">
        <ele>398.2</ele>
        <time>2022-09-28T12:10:51Z</time>
      </trkpt>
      <trkpt lat="46.54383" lon="6.5533">
        <ele>398.2</ele>
        <time>2022-09-28T12:10:52Z</time>
      </trkpt>
      <trkpt lat="46.54386" lon="6.55326">
        <ele>398.2</ele>
        <time>2022-09-28T12:10:53Z</time>
      </trkpt>
      <trkpt lat="46.54389" lon="6.55322">
        <ele>398.3</ele>
        <time>2022-09-28T12:10:54Z</time>
      </trkpt>
      <trkpt lat="46.54391" lon="6.55319">
        <ele>398.3</ele>
        <time>2022-09-28T12:10:55Z</time>
      </trkpt>
      <trkpt lat="46.54393" lon="6.55315">
        <ele>398.4</ele>
        <time>2022-09-28T12:10:56Z</time>
      </trkpt>
      <trkpt lat="46.54396" lon="6.55312">
        <ele>398.4</ele>
        <time>2022-09-28T12:10:57Z</time>
      </trkpt>
      <trkpt lat="46.54397" lon="6.55308">
        <ele>398.4</ele>
        <time>2022-09-28T12:10:58Z</time>
      </trkpt>
      <trkpt lat="46.54402" lon="6.55304">
        <ele>398.5</ele>
        <time>2022-09-28T12:10:59Z</time>
      </trkpt>
      <trkpt lat="46.54405" lon="6.55301">
        <ele>398.6</ele>
        <time>2022-09-28T12:11:00Z</time>
      </trkpt>
      <trkpt lat="46.54407" lon="6.55296">
        <ele>398.6</ele>
        <time>2022-09-28T12:11:01Z</time>
      </trkpt>
      <trkpt lat="46.54409" lon="6.55293">
        <ele>398.6</ele>
        <time>2022-09-28T12:11:02Z</time>
      </trkpt>
      <trkpt lat="46.54412" lon="6.5529">
        <ele>398.7</ele>
        <time>2022-09-28T12:11:03Z</time>
      </trkpt>
      <trkpt lat="46.54415" lon="6.55286">
        <ele>398.7</ele>
        <time>2022-09-28T12:11:04Z</time>
      </trkpt>
      <trkpt lat="46.54418" lon="6.55283">
        <ele>398.8</ele>
        <time>2022-09-28T12:11:05Z</time>
      </trkpt>
      <trkpt lat="46.54421" lon="6.55278">
        <ele>398.8</ele>
        <time>2022-09-28T12:11:06Z</time>
      </trkpt>
      <trkpt lat="46.54424" lon="6.55275">
        <ele>398.9</ele>
        <time>2022-09-28T12:11:07Z</time>
      </trkpt>
      <trkpt lat="46.54426" lon="6.55271">
        <ele>398.9</ele>
        <time>2022-09-28T12:11:08Z</time>
      </trkpt>
      <trkpt lat="46.54428" lon="6.55267">
        <ele>398.9</ele>
        <time>2022-09-28T12:11:09Z</time>
      </trkpt>
      <trkpt lat="46.5443" lon="6.55264">
        <ele>399</ele>
        <time>2022-09-28T12:11:10Z</time>
      </trkpt>
      <trkpt lat="46.54435" lon="6.55259">
        <ele>399</ele>
        <time>2022-09-28T12:11:11Z</time>
      </trkpt>
      <trkpt lat="46.54438" lon="6.55256">
        <ele>399.1</ele>
        <time>2022-09-28T12:11:12Z</time>
      </trkpt>
      <trkpt lat="46.54441" lon="6.55253">
        <ele>399.1</ele>
        <time>2022-09-28T12:11:13Z</time>
      </trkpt>
      <trkpt lat="46.54444" lon="6.55249">
        <ele>399.2</ele>
        <time>2022-09-28T12:11:14Z</time>
      </trkpt>
      <trkpt lat="46.54447" lon="6.55246">
        <ele>399.2</ele>
        <time>2022-09-28T12:11:15Z</time>
      </trkpt>
      <trkpt lat="46.5445" lon="6.55243">
        <ele>399.3</ele>
        <time>2022-09-28T12:11:16Z</time>
      </trkpt>
      <trkpt lat="46.54453" lon="6.55239">
        <ele>399.3</ele>
        <time>2022-09-28T12:11:17Z</time>
      </trkpt>
      <trkpt lat="46.54455" lon="6.55236">
        <ele>399.4</ele>
        <time>2022-09-28T12:11:18Z</time>
      </trkpt>
      <trkpt lat="46.54458" lon="6.55232">
        <ele>399.4</ele>
        <time>2022-09-28T12:11:19Z</time>
      </trkpt>
      <trkpt lat="46.54461" lon="6.55228">
        <ele>399.5</ele>
        <time>2022-09-28T12:11:20Z</time>
      </trkpt>
      <trkpt lat="46.54464" lon="6.55225">
        <ele>399.5</ele>
        <time>2022-09-28T12:11:21Z</time>
      </trkpt>
      <trkpt lat="46.54468" lon="6.55221">
        <ele>399.6</ele>
        <time>2022-09-28T12:11:22Z</time>
      </trkpt>
      <trkpt lat="46.5447" lon="6.55217">
        <ele>399.6</ele>
        <time>2022-09-28T12:11:23Z</time>
      </trkpt>
      <trkpt lat="46.54473" lon="6.55212">
        <ele>399.7</ele>
        <time>2022-09-28T12:11:24Z</time>
      </trkpt>
      <trkpt lat="46.54474" lon="6.5521">
        <ele>399.7</ele>
        <time>2022-09-28T12:11:25Z</time>
      </trkpt>
      <trkpt lat="46.54478" lon="6.55206">
        <ele>399.8</ele>
        <time>2022-09-28T12:11:26Z</time>
      </trkpt>
      <trkpt lat="46.54481" lon="6.55203">
        <ele>399.8</ele>
        <time>2022-09-28T12:11:27Z</time>
      </trkpt>
      <trkpt lat="46.54484" lon="6.55198">
        <ele>399.9</ele>
        <time>2022-09-28T12:11:28Z</time>
      </trkpt>
      <trkpt lat="46.54488" lon="6.55195">
        <ele>399.9</ele>
        <time>2022-09-28T12:11:29Z</time>
      </trkpt>
      <trkpt lat="46.5449" lon="6.55191">
        <ele>400</ele>
        <time>2022-09-28T12:11:30Z</time>
      </trkpt>
      <trkpt lat="46.54493" lon="6.55187">
        <ele>400</ele>
        <time>2022-09-28T12:11:31Z</time>
      </trkpt>
      <trkpt lat="46.54496" lon="6.55184">
        <ele>400.1</ele>
        <time>2022-09-28T12:11:32Z</time>
      </trkpt>
      <trkpt lat="46.54499" lon="6.55179">
        <ele>400.1</ele>
        <time>2022-09-28T12:11:33Z</time>
      </trkpt>
      <trkpt lat="46.54502" lon="6.55176">
        <ele>400.2</ele>
        <time>2022-09-28T12:11:34Z</time>
      </trkpt>
      <trkpt lat="46.54505" lon="6.55172">
        <ele>400.3</ele>
        <time>2022-09-28T12:11:35Z</time>
      </trkpt>
      <trkpt lat="46.54508" lon="6.55168">
        <ele>400.3</ele>
        <time>2022-09-28T12:11:36Z</time>
      </trkpt>
      <trkpt lat="46.54511" lon="6.55163">
        <ele>400.3</ele>
        <time>2022-09-28T12:11:37Z</time>
      </trkpt>
      <trkpt lat="46.54514" lon="6.5516">
        <ele>400.4</ele>
        <time>2022-09-28T12:11:38Z</time>
      </trkpt>
      <trkpt lat="46.54518" lon="6.55154">
        <ele>400.4</ele>
        <time>2022-09-28T12:11:39Z</time>
      </trkpt>
      <trkpt lat="46.54521" lon="6.55151">
        <ele>400.5</ele>
        <time>2022-09-28T12:11:40Z</time>
      </trkpt>
      <trkpt lat="46.54522" lon="6.55149">
        <ele>400.5</ele>
        <time>2022-09-28T12:11:41Z</time>
      </trkpt>
      <trkpt lat="46.54526" lon="6.55145">
        <ele>400.5</ele>
        <time>2022-09-28T12:11:42Z</time>
      </trkpt>
      <trkpt lat="46.54529" lon="6.5514">
        <ele>400.6</ele>
        <time>2022-09-28T12:11:43Z</time>
      </trkpt>
      <trkpt lat="46.54531" lon="6.55137">
        <ele>400.6</ele>
        <time>2022-09-28T12:11:44Z</time>
      </trkpt>
      <trkpt lat="46.54534" lon="6.55132">
        <ele>400.6</ele>
        <time>2022-09-28T12:11:45Z</time>
      </trkpt>
      <trkpt lat="46.54536" lon="6.5513">
        <ele>400.7</ele>
        <time>2022-09-28T12:11:46Z</time>
      </trkpt>
      <trkpt lat="46.54539" lon="6.55126">
        <ele>400.7</ele>
        <time>2022-09-28T12:11:47Z</time>
      </trkpt>
      <trkpt lat="46.54542" lon="6.55121">
        <ele>400.8</ele>
        <time>2022-09-28T12:11:48Z</time>
      </trkpt>
      <trkpt lat="46.54545" lon="6.55118">
        <ele>400.8</ele>
        <time>2022-09-28T12:11:49Z</time>
      </trkpt>
      <trkpt lat="46.54548" lon="6.55114">
        <ele>400.9</ele>
        <time>2022-09-28T12:11:50Z</time>
      </trkpt>
      <trkpt lat="46.54549" lon="6.5511">
        <ele>400.9</ele>
        <time>2022-09-28T12:11:51Z</time>
      </trkpt>
      <trkpt lat="46.54552" lon="6.55106">
        <ele>401</ele>
        <time>2022-09-28T12:11:52Z</time>
      </trkpt>
      <trkpt lat="46.54556" lon="6.55104">
        <ele>401</ele>
        <time>2022-09-28T12:11:53Z</time>
      </trkpt>
      <trkpt lat="46.54558" lon="6.551">
        <ele>401.1</ele>
        <time>2022-09-28T12:11:54Z</time>
      </trkpt>
      <trkpt lat="46.54562" lon="6.55097">
        <ele>401.1</ele>
        <time>2022-09-28T12:11:55Z</time>
      </trkpt>
      <trkpt lat="46.54564" lon="6.55096">
        <ele>401.1</ele>
        <time>2022-09-28T12:11:56Z</time>
      </trkpt>
      <trkpt lat="46.54566" lon="6.55094">
        <ele>401.2</ele>
        <time>2022-09-28T12:11:57Z</time>
      </trkpt>
      <trkpt lat="46.54569" lon="6.55093">
        <ele>401.2</ele>
        <time>2022-09-28T12:11:58Z</time>
      </trkpt>
      <trkpt lat="46.54572" lon="6.55092">
        <ele>401.2</ele>
        <time>2022-09-28T12:11:59Z</time>
      </trkpt>
      <trkpt lat="46.54576" lon="6.55092">
        <ele>401.3</ele>
        <time>2022-09-28T12:12:00Z</time>
      </trkpt>
      <trkpt lat="46.54577" lon="6.55091">
        <ele>401.4</ele>
        <time>2022-09-28T12:12:01Z</time>
      </trkpt>
      <trkpt lat="46.54581" lon="6.55091">
        <ele>401.4</ele>
        <time>2022-09-28T12:12:02Z</time>
      </trkpt>
      <trkpt lat="46.54584" lon="6.55092">
        <ele>401.5</ele>
        <time>2022-09-28T12:12:03Z</time>
      </trkpt>
      <trkpt lat="46.54586" lon="6.55092">
        <ele>401.6</ele>
        <time>2022-09-28T12:12:04Z</time>
      </trkpt>
      <trkpt lat="46.54589" lon="6.55093">
        <ele>401.6</ele>
        <time>2022-09-28T12:12:05Z</time>
      </trkpt>
      <trkpt lat="46.5459" lon="6.55094">
        <ele>401.7</ele>
        <time>2022-09-28T12:12:06Z</time>
      </trkpt>
      <trkpt lat="46.54593" lon="6.55095">
        <ele>401.7</ele>
        <time>2022-09-28T12:12:07Z</time>
      </trkpt>
      <trkpt lat="46.54594" lon="6.55095">
        <ele>401.8</ele>
        <time>2022-09-28T12:12:08Z</time>
      </trkpt>
      <trkpt lat="46.54597" lon="6.55095">
        <ele>401.8</ele>
        <time>2022-09-28T12:12:09Z</time>
      </trkpt>
      <trkpt lat="46.54597" lon="6.55095">
        <ele>401.8</ele>
        <time>2022-09-28T12:12:10Z</time>
      </trkpt>
      <trkpt lat="46.54599" lon="6.55096">
        <ele>401.9</ele>
        <time>2022-09-28T12:12:11Z</time>
      </trkpt>
      <trkpt lat="46.546" lon="6.55096">
        <ele>401.9</ele>
        <time>2022-09-28T12:12:12Z</time>
      </trkpt>
      <trkpt lat="46.54601" lon="6.55096">
        <ele>401.9</ele>
        <time>2022-09-28T12:12:13Z</time>
      </trkpt>
      <trkpt lat="46.54602" lon="6.55096">
        <ele>401.9</ele>
        <time>2022-09-28T12:12:14Z</time>
      </trkpt>
      <trkpt lat="46.54603" lon="6.55096">
        <ele>401.9</ele>
        <time>2022-09-28T12:12:15Z</time>
      </trkpt>
      <trkpt lat="46.54604" lon="6.55096">
        <ele>402</ele>
        <time>2022-09-28T12:12:16Z</time>
      </trkpt>
      <trkpt lat="46.54605" lon="6.55096">
        <ele>402</ele>
        <time>2022-09-28T12:12:17Z</time>
      </trkpt>
      <trkpt lat="46.54606" lon="6.55096">
        <ele>402</ele>
        <time>2022-09-28T12:12:18Z</time>
      </trkpt>
      <trkpt lat="46.54607" lon="6.55096">
        <ele>402</ele>
        <time>2022-09-28T12:12:19Z</time>
      </trkpt>
      <trkpt lat="46.54608" lon="6.55096">
        <ele>402</ele>
        <time>2022-09-28T12:12:20Z</time>
      </trkpt>
      <trkpt lat="46.54608" lon="6.55096">
        <ele>402.1</ele>
        <time>2022-09-28T12:12:21Z</time>
      </trkpt>
      <trkpt lat="46.54609" lon="6.55096">
        <ele>402.1</ele>
        <time>2022-09-28T12:14:08Z</time>
      </trkpt>
      <trkpt lat="46.5461" lon="6.55096">
        <ele>402.1</ele>
        <time>2022-09-28T12:14:09Z</time>
      </trkpt>
      <trkpt lat="46.54611" lon="6.55096">
        <ele>402.1</ele>
        <time>2022-09-28T12:14:10Z</time>
      </trkpt>
      <trkpt lat="46.54615" lon="6.55096">
        <ele>402.2</ele>
        <time>2022-09-28T12:14:11Z</time>
      </trkpt>
      <trkpt lat="46.54617" lon="6.55097">
        <ele>402.2</ele>
        <time>2022-09-28T12:14:12Z</time>
      </trkpt>
      <trkpt lat="46.5462" lon="6.55098">
        <ele>402.3</ele>
        <time>2022-09-28T12:14:13Z</time>
      </trkpt>
      <trkpt lat="46.54622" lon="6.551">
        <ele>402.4</ele>
        <time>2022-09-28T12:14:14Z</time>
      </trkpt>
      <trkpt lat="46.54626" lon="6.55102">
        <ele>402.5</ele>
        <time>2022-09-28T12:14:15Z</time>
      </trkpt>
      <trkpt lat="46.54628" lon="6.55103">
        <ele>402.5</ele>
        <time>2022-09-28T12:14:16Z</time>
      </trkpt>
      <trkpt lat="46.54632" lon="6.55104">
        <ele>402.6</ele>
        <time>2022-09-28T12:14:17Z</time>
      </trkpt>
      <trkpt lat="46.54636" lon="6.55107">
        <ele>402.7</ele>
        <time>2022-09-28T12:14:18Z</time>
      </trkpt>
      <trkpt lat="46.5464" lon="6.55108">
        <ele>402.8</ele>
        <time>2022-09-28T12:14:19Z</time>
      </trkpt>
      <trkpt lat="46.54644" lon="6.5511">
        <ele>402.9</ele>
        <time>2022-09-28T12:14:20Z</time>
      </trkpt>
      <trkpt lat="46.54647" lon="6.55112">
        <ele>403.1</ele>
        <time>2022-09-28T12:14:21Z</time>
      </trkpt>
      <trkpt lat="46.5465" lon="6.55113">
        <ele>403.2</ele>
        <time>2022-09-28T12:14:22Z</time>
      </trkpt>
      <trkpt lat="46.54653" lon="6.55114">
        <ele>403.3</ele>
        <time>2022-09-28T12:14:23Z</time>
      </trkpt>
      <trkpt lat="46.54656" lon="6.55115">
        <ele>403.5</ele>
        <time>2022-09-28T12:14:24Z</time>
      </trkpt>
      <trkpt lat="46.54659" lon="6.55117">
        <ele>403.6</ele>
        <time>2022-09-28T12:14:25Z</time>
      </trkpt>
      <trkpt lat="46.5466" lon="6.55117">
        <ele>403.7</ele>
        <time>2022-09-28T12:14:26Z</time>
      </trkpt>
      <trkpt lat="46.54663" lon="6.55118">
        <ele>403.9</ele>
        <time>2022-09-28T12:14:27Z</time>
      </trkpt>
      <trkpt lat="46.54666" lon="6.55119">
        <ele>404</ele>
        <time>2022-09-28T12:14:28Z</time>
      </trkpt>
      <trkpt lat="46.54669" lon="6.55119">
        <ele>404.2</ele>
        <time>2022-09-28T12:14:29Z</time>
      </trkpt>
      <trkpt lat="46.54671" lon="6.5512">
        <ele>404.4</ele>
        <time>2022-09-28T12:14:30Z</time>
      </trkpt>
      <trkpt lat="46.54674" lon="6.55121">
        <ele>404.6</ele>
        <time>2022-09-28T12:14:31Z</time>
      </trkpt>
      <trkpt lat="46.54676" lon="6.55121">
        <ele>404.7</ele>
        <time>2022-09-28T12:14:32Z</time>
      </trkpt>
      <trkpt lat="46.54677" lon="6.55121">
        <ele>404.8</ele>
        <time>2022-09-28T12:14:33Z</time>
      </trkpt>
      <trkpt lat="46.54681" lon="6.55121">
        <ele>405.1</ele>
        <time>2022-09-28T12:14:34Z</time>
      </trkpt>
      <trkpt lat="46.54682" lon="6.55121">
        <ele>405.2</ele>
        <time>2022-09-28T12:14:35Z</time>
      </trkpt>
      <trkpt lat="46.54685" lon="6.55118">
        <ele>405.4</ele>
        <time>2022-09-28T12:14:36Z</time>
      </trkpt>
      <trkpt lat="46.54685" lon="6.55117">
        <ele>405.4</ele>
        <time>2022-09-28T12:14:37Z</time>
      </trkpt>
      <trkpt lat="46.54687" lon="6.55114">
        <ele>405.6</ele>
        <time>2022-09-28T12:14:38Z</time>
      </trkpt>
      <trkpt lat="46.54688" lon="6.55113">
        <ele>406.1</ele>
        <time>2022-09-28T12:14:39Z</time>
      </trkpt>
      <trkpt lat="46.5469" lon="6.55109">
        <ele>406.2</ele>
        <time>2022-09-28T12:14:40Z</time>
      </trkpt>
      <trkpt lat="46.5469" lon="6.55108">
        <ele>406.2</ele>
        <time>2022-09-28T12:14:41Z</time>
      </trkpt>
      <trkpt lat="46.54692" lon="6.55105">
        <ele>406.3</ele>
        <time>2022-09-28T12:14:42Z</time>
      </trkpt>
      <trkpt lat="46.54693" lon="6.55104">
        <ele>406.3</ele>
        <time>2022-09-28T12:14:43Z</time>
      </trkpt>
      <trkpt lat="46.54695" lon="6.551">
        <ele>406.4</ele>
        <time>2022-09-28T12:14:44Z</time>
      </trkpt>
      <trkpt lat="46.54697" lon="6.55097">
        <ele>406.5</ele>
        <time>2022-09-28T12:14:45Z</time>
      </trkpt>
      <trkpt lat="46.547" lon="6.55095">
        <ele>406.6</ele>
        <time>2022-09-28T12:14:46Z</time>
      </trkpt>
      <trkpt lat="46.54702" lon="6.55094">
        <ele>406.6</ele>
        <time>2022-09-28T12:14:47Z</time>
      </trkpt>
      <trkpt lat="46.54704" lon="6.55092">
        <ele>406.7</ele>
        <time>2022-09-28T12:14:48Z</time>
      </trkpt>
      <trkpt lat="46.54704" lon="6.55091">
        <ele>406.7</ele>
        <time>2022-09-28T12:14:49Z</time>
      </trkpt>
      <trkpt lat="46.54706" lon="6.55087">
        <ele>406.8</ele>
        <time>2022-09-28T12:14:50Z</time>
      </trkpt>
      <trkpt lat="46.54706" lon="6.55086">
        <ele>406.8</ele>
        <time>2022-09-28T12:14:51Z</time>
      </trkpt>
      <trkpt lat="46.54706" lon="6.55082">
        <ele>406.8</ele>
        <time>2022-09-28T12:14:52Z</time>
      </trkpt>
      <trkpt lat="46.54706" lon="6.55081">
        <ele>406.9</ele>
        <time>2022-09-28T12:14:54Z</time>
      </trkpt>
      <trkpt lat="46.54706" lon="6.55079">
        <ele>406.9</ele>
        <time>2022-09-28T12:14:55Z</time>
      </trkpt>
      <trkpt lat="46.54706" lon="6.55073">
        <ele>407</ele>
        <time>2022-09-28T12:14:56Z</time>
      </trkpt>
      <trkpt lat="46.54707" lon="6.55066">
        <ele>407.2</ele>
        <time>2022-09-28T12:14:57Z</time>
      </trkpt>
      <trkpt lat="46.54707" lon="6.55061">
        <ele>407.2</ele>
        <time>2022-09-28T12:14:58Z</time>
      </trkpt>
      <trkpt lat="46.54707" lon="6.55059">
        <ele>407.3</ele>
        <time>2022-09-28T12:14:59Z</time>
      </trkpt>
      <trkpt lat="46.54708" lon="6.55054">
        <ele>407.4</ele>
        <time>2022-09-28T12:15:00Z</time>
      </trkpt>
      <trkpt lat="46.54708" lon="6.55051">
        <ele>407.5</ele>
        <time>2022-09-28T12:15:01Z</time>
      </trkpt>
      <trkpt lat="46.54709" lon="6.55048">
        <ele>407.6</ele>
        <time>2022-09-28T12:15:02Z</time>
      </trkpt>
      <trkpt lat="46.5471" lon="6.55041">
        <ele>407.8</ele>
        <time>2022-09-28T12:15:04Z</time>
      </trkpt>
      <trkpt lat="46.5471" lon="6.5504">
        <ele>407.8</ele>
        <time>2022-09-28T12:15:05Z</time>
      </trkpt>
      <trkpt lat="46.54711" lon="6.55038">
        <ele>407.9</ele>
        <time>2022-09-28T12:15:06Z</time>
      </trkpt>
      <trkpt lat="46.54712" lon="6.55032">
        <ele>408</ele>
        <time>2022-09-28T12:15:07Z</time>
      </trkpt>
      <trkpt lat="46.54712" lon="6.55029">
        <ele>408.1</ele>
        <time>2022-09-28T12:15:08Z</time>
      </trkpt>
      <trkpt lat="46.54713" lon="6.55022">
        <ele>408.3</ele>
        <time>2022-09-28T12:15:09Z</time>
      </trkpt>
      <trkpt lat="46.54713" lon="6.55018">
        <ele>408.4</ele>
        <time>2022-09-28T12:15:10Z</time>
      </trkpt>
      <trkpt lat="46.54713" lon="6.55013">
        <ele>408.5</ele>
        <time>2022-09-28T12:15:11Z</time>
      </trkpt>
      <trkpt lat="46.54713" lon="6.55008">
        <ele>408.7</ele>
        <time>2022-09-28T12:15:12Z</time>
      </trkpt>
      <trkpt lat="46.54713" lon="6.55006">
        <ele>408.7</ele>
        <time>2022-09-28T12:15:13Z</time>
      </trkpt>
      <trkpt lat="46.54714" lon="6.55001">
        <ele>408.8</ele>
        <time>2022-09-28T12:15:14Z</time>
      </trkpt>
      <trkpt lat="46.54714" lon="6.54997">
        <ele>408.9</ele>
        <time>2022-09-28T12:15:15Z</time>
      </trkpt>
      <trkpt lat="46.54716" lon="6.54992">
        <ele>409</ele>
        <time>2022-09-28T12:15:16Z</time>
      </trkpt>
      <trkpt lat="46.54716" lon="6.54987">
        <ele>409.1</ele>
        <time>2022-09-28T12:15:17Z</time>
      </trkpt>
      <trkpt lat="46.54716" lon="6.54984">
        <ele>409.2</ele>
        <time>2022-09-28T12:15:18Z</time>
      </trkpt>
      <trkpt lat="46.54717" lon="6.5498">
        <ele>409.3</ele>
        <time>2022-09-28T12:15:19Z</time>
      </trkpt>
      <trkpt lat="46.54717" lon="6.54977">
        <ele>409.3</ele>
        <time>2022-09-28T12:15:20Z</time>
      </trkpt>
      <trkpt lat="46.54717" lon="6.54973">
        <ele>409.4</ele>
        <time>2022-09-28T12:15:21Z</time>
      </trkpt>
      <trkpt lat="46.54717" lon="6.54969">
        <ele>409.5</ele>
        <time>2022-09-28T12:15:22Z</time>
      </trkpt>
      <trkpt lat="46.54718" lon="6.54964">
        <ele>409.6</ele>
        <time>2022-09-28T12:15:23Z</time>
      </trkpt>
      <trkpt lat="46.54718" lon="6.54963">
        <ele>409.6</ele>
        <time>2022-09-28T12:15:24Z</time>
      </trkpt>
      <trkpt lat="46.54718" lon="6.54958">
        <ele>409.7</ele>
        <time>2022-09-28T12:15:25Z</time>
      </trkpt>
      <trkpt lat="46.54718" lon="6.54957">
        <ele>409.7</ele>
        <time>2022-09-28T12:15:26Z</time>
      </trkpt>
      <trkpt lat="46.54717" lon="6.54951">
        <ele>409.8</ele>
        <time>2022-09-28T12:15:27Z</time>
      </trkpt>
      <trkpt lat="46.54717" lon="6.54949">
        <ele>409.8</ele>
        <time>2022-09-28T12:15:28Z</time>
      </trkpt>
      <trkpt lat="46.54717" lon="6.54945">
        <ele>409.9</ele>
        <time>2022-09-28T12:15:29Z</time>
      </trkpt>
      <trkpt lat="46.54717" lon="6.5494">
        <ele>410</ele>
        <time>2022-09-28T12:15:30Z</time>
      </trkpt>
      <trkpt lat="46.54717" lon="6.54938">
        <ele>410</ele>
        <time>2022-09-28T12:15:31Z</time>
      </trkpt>
      <trkpt lat="46.54717" lon="6.54933">
        <ele>410.1</ele>
        <time>2022-09-28T12:15:32Z</time>
      </trkpt>
      <trkpt lat="46.54717" lon="6.54928">
        <ele>410.1</ele>
        <time>2022-09-28T12:15:33Z</time>
      </trkpt>
      <trkpt lat="46.54717" lon="6.54927">
        <ele>410.2</ele>
        <time>2022-09-28T12:15:34Z</time>
      </trkpt>
      <trkpt lat="46.54717" lon="6.54923">
        <ele>410.2</ele>
        <time>2022-09-28T12:15:35Z</time>
      </trkpt>
      <trkpt lat="46.54714" lon="6.54919">
        <ele>410.3</ele>
        <time>2022-09-28T12:15:36Z</time>
      </trkpt>
      <trkpt lat="46.54712" lon="6.54918">
        <ele>410.3</ele>
        <time>2022-09-28T12:15:37Z</time>
      </trkpt>
      <trkpt lat="46.54708" lon="6.54915">
        <ele>410.4</ele>
        <time>2022-09-28T12:15:38Z</time>
      </trkpt>
      <trkpt lat="46.54705" lon="6.54914">
        <ele>410.5</ele>
        <time>2022-09-28T12:15:39Z</time>
      </trkpt>
      <trkpt lat="46.547" lon="6.54913">
        <ele>410.5</ele>
        <time>2022-09-28T12:15:40Z</time>
      </trkpt>
      <trkpt lat="46.54695" lon="6.54909">
        <ele>410.3</ele>
        <time>2022-09-28T12:15:41Z</time>
      </trkpt>
      <trkpt lat="46.5469" lon="6.54907">
        <ele>409.9</ele>
        <time>2022-09-28T12:15:42Z</time>
      </trkpt>
      <trkpt lat="46.54685" lon="6.54904">
        <ele>409.6</ele>
        <time>2022-09-28T12:15:43Z</time>
      </trkpt>
      <trkpt lat="46.5468" lon="6.54903">
        <ele>409.2</ele>
        <time>2022-09-28T12:15:44Z</time>
      </trkpt>
      <trkpt lat="46.54675" lon="6.54903">
        <ele>408.8</ele>
        <time>2022-09-28T12:15:45Z</time>
      </trkpt>
      <trkpt lat="46.54669" lon="6.54902">
        <ele>408.4</ele>
        <time>2022-09-28T12:15:46Z</time>
      </trkpt>
      <trkpt lat="46.54663" lon="6.549">
        <ele>408</ele>
        <time>2022-09-28T12:15:47Z</time>
      </trkpt>
      <trkpt lat="46.54658" lon="6.54899">
        <ele>407.6</ele>
        <time>2022-09-28T12:15:48Z</time>
      </trkpt>
      <trkpt lat="46.54653" lon="6.54898">
        <ele>407.2</ele>
        <time>2022-09-28T12:15:49Z</time>
      </trkpt>
      <trkpt lat="46.54647" lon="6.54896">
        <ele>406.7</ele>
        <time>2022-09-28T12:15:50Z</time>
      </trkpt>
      <trkpt lat="46.54642" lon="6.54894">
        <ele>406.3</ele>
        <time>2022-09-28T12:15:51Z</time>
      </trkpt>
      <trkpt lat="46.54638" lon="6.54892">
        <ele>405.9</ele>
        <time>2022-09-28T12:15:52Z</time>
      </trkpt>
      <trkpt lat="46.54632" lon="6.54892">
        <ele>405.5</ele>
        <time>2022-09-28T12:15:53Z</time>
      </trkpt>
      <trkpt lat="46.54628" lon="6.54891">
        <ele>405.2</ele>
        <time>2022-09-28T12:15:54Z</time>
      </trkpt>
      <trkpt lat="46.54623" lon="6.54889">
        <ele>405</ele>
        <time>2022-09-28T12:15:55Z</time>
      </trkpt>
      <trkpt lat="46.54617" lon="6.54887">
        <ele>404.7</ele>
        <time>2022-09-28T12:15:56Z</time>
      </trkpt>
      <trkpt lat="46.54613" lon="6.54882">
        <ele>404.5</ele>
        <time>2022-09-28T12:15:57Z</time>
      </trkpt>
      <trkpt lat="46.5461" lon="6.54878">
        <ele>404.3</ele>
        <time>2022-09-28T12:15:58Z</time>
      </trkpt>
      <trkpt lat="46.54608" lon="6.54874">
        <ele>404.2</ele>
        <time>2022-09-28T12:15:59Z</time>
      </trkpt>
      <trkpt lat="46.54607" lon="6.54873">
        <ele>404</ele>
        <time>2022-09-28T12:16:00Z</time>
      </trkpt>
      <trkpt lat="46.54606" lon="6.54869">
        <ele>404</ele>
        <time>2022-09-28T12:16:01Z</time>
      </trkpt>
      <trkpt lat="46.54605" lon="6.54864">
        <ele>404.1</ele>
        <time>2022-09-28T12:16:02Z</time>
      </trkpt>
      <trkpt lat="46.54605" lon="6.54857">
        <ele>404.1</ele>
        <time>2022-09-28T12:16:03Z</time>
      </trkpt>
      <trkpt lat="46.54607" lon="6.54851">
        <ele>404</ele>
        <time>2022-09-28T12:16:04Z</time>
      </trkpt>
      <trkpt lat="46.5461" lon="6.54846">
        <ele>404</ele>
        <time>2022-09-28T12:16:05Z</time>
      </trkpt>
      <trkpt lat="46.54614" lon="6.54839">
        <ele>403.9</ele>
        <time>2022-09-28T12:16:06Z</time>
      </trkpt>
      <trkpt lat="46.54616" lon="6.54832">
        <ele>403.8</ele>
        <time>2022-09-28T12:16:07Z</time>
      </trkpt>
      <trkpt lat="46.54619" lon="6.54825">
        <ele>403.8</ele>
        <time>2022-09-28T12:16:08Z</time>
      </trkpt>
      <trkpt lat="46.54622" lon="6.54818">
        <ele>403.7</ele>
        <time>2022-09-28T12:16:09Z</time>
      </trkpt>
      <trkpt lat="46.54625" lon="6.5481">
        <ele>403.7</ele>
        <time>2022-09-28T12:16:10Z</time>
      </trkpt>
      <trkpt lat="46.54627" lon="6.54803">
        <ele>403.6</ele>
        <time>2022-09-28T12:16:11Z</time>
      </trkpt>
      <trkpt lat="46.5463" lon="6.54796">
        <ele>403.6</ele>
        <time>2022-09-28T12:16:12Z</time>
      </trkpt>
      <trkpt lat="46.54633" lon="6.54788">
        <ele>403.6</ele>
        <time>2022-09-28T12:16:13Z</time>
      </trkpt>
      <trkpt lat="46.54636" lon="6.54781">
        <ele>403.5</ele>
        <time>2022-09-28T12:16:14Z</time>
      </trkpt>
      <trkpt lat="46.54639" lon="6.54774">
        <ele>403.5</ele>
        <time>2022-09-28T12:16:15Z</time>
      </trkpt>
      <trkpt lat="46.54643" lon="6.54766">
        <ele>403.5</ele>
        <time>2022-09-28T12:16:16Z</time>
      </trkpt>
      <trkpt lat="46.54646" lon="6.5476">
        <ele>403.4</ele>
        <time>2022-09-28T12:16:17Z</time>
      </trkpt>
      <trkpt lat="46.54649" lon="6.54753">
        <ele>403.4</ele>
        <time>2022-09-28T12:16:18Z</time>
      </trkpt>
      <trkpt lat="46.54653" lon="6.54746">
        <ele>403.3</ele>
        <time>2022-09-28T12:16:19Z</time>
      </trkpt>
      <trkpt lat="46.54655" lon="6.5474">
        <ele>403.3</ele>
        <time>2022-09-28T12:16:20Z</time>
      </trkpt>
      <trkpt lat="46.54657" lon="6.54734">
        <ele>403.2</ele>
        <time>2022-09-28T12:16:21Z</time>
      </trkpt>
      <trkpt lat="46.5466" lon="6.54727">
        <ele>403.2</ele>
        <time>2022-09-28T12:16:22Z</time>
      </trkpt>
      <trkpt lat="46.54662" lon="6.54721">
        <ele>403.1</ele>
        <time>2022-09-28T12:16:23Z</time>
      </trkpt>
      <trkpt lat="46.54666" lon="6.54716">
        <ele>403.1</ele>
        <time>2022-09-28T12:16:24Z</time>
      </trkpt>
      <trkpt lat="46.5467" lon="6.54709">
        <ele>403</ele>
        <time>2022-09-28T12:16:25Z</time>
      </trkpt>
      <trkpt lat="46.54673" lon="6.54703">
        <ele>403</ele>
        <time>2022-09-28T12:16:26Z</time>
      </trkpt>
      <trkpt lat="46.54677" lon="6.54696">
        <ele>402.9</ele>
        <time>2022-09-28T12:16:27Z</time>
      </trkpt>
      <trkpt lat="46.54681" lon="6.5469">
        <ele>402.8</ele>
        <time>2022-09-28T12:16:28Z</time>
      </trkpt>
      <trkpt lat="46.54685" lon="6.54684">
        <ele>402.7</ele>
        <time>2022-09-28T12:16:29Z</time>
      </trkpt>
      <trkpt lat="46.54687" lon="6.54677">
        <ele>402.6</ele>
        <time>2022-09-28T12:16:30Z</time>
      </trkpt>
      <trkpt lat="46.54689" lon="6.54672">
        <ele>402.6</ele>
        <time>2022-09-28T12:16:31Z</time>
      </trkpt>
      <trkpt lat="46.54696" lon="6.54665">
        <ele>402.5</ele>
        <time>2022-09-28T12:16:32Z</time>
      </trkpt>
      <trkpt lat="46.547" lon="6.54659">
        <ele>402.3</ele>
        <time>2022-09-28T12:16:33Z</time>
      </trkpt>
      <trkpt lat="46.54704" lon="6.54653">
        <ele>402.2</ele>
        <time>2022-09-28T12:16:34Z</time>
      </trkpt>
      <trkpt lat="46.54708" lon="6.54646">
        <ele>402.1</ele>
        <time>2022-09-28T12:16:35Z</time>
      </trkpt>
      <trkpt lat="46.54712" lon="6.54639">
        <ele>402</ele>
        <time>2022-09-28T12:16:36Z</time>
      </trkpt>
      <trkpt lat="46.54716" lon="6.54631">
        <ele>401.8</ele>
        <time>2022-09-28T12:16:37Z</time>
      </trkpt>
      <trkpt lat="46.5472" lon="6.54623">
        <ele>401.7</ele>
        <time>2022-09-28T12:16:38Z</time>
      </trkpt>
      <trkpt lat="46.54725" lon="6.54617">
        <ele>401.5</ele>
        <time>2022-09-28T12:16:39Z</time>
      </trkpt>
      <trkpt lat="46.5473" lon="6.54609">
        <ele>401.3</ele>
        <time>2022-09-28T12:16:40Z</time>
      </trkpt>
      <trkpt lat="46.54735" lon="6.54602">
        <ele>401.1</ele>
        <time>2022-09-28T12:16:41Z</time>
      </trkpt>
      <trkpt lat="46.5474" lon="6.54594">
        <ele>400.9</ele>
        <time>2022-09-28T12:16:42Z</time>
      </trkpt>
      <trkpt lat="46.54746" lon="6.54587">
        <ele>400.6</ele>
        <time>2022-09-28T12:16:43Z</time>
      </trkpt>
      <trkpt lat="46.54751" lon="6.54579">
        <ele>400.4</ele>
        <time>2022-09-28T12:16:44Z</time>
      </trkpt>
      <trkpt lat="46.54757" lon="6.54572">
        <ele>400.2</ele>
        <time>2022-09-28T12:16:45Z</time>
      </trkpt>
      <trkpt lat="46.54762" lon="6.54565">
        <ele>400</ele>
        <time>2022-09-28T12:16:46Z</time>
      </trkpt>
      <trkpt lat="46.54768" lon="6.54559">
        <ele>399.8</ele>
        <time>2022-09-28T12:16:47Z</time>
      </trkpt>
      <trkpt lat="46.54774" lon="6.54551">
        <ele>399.6</ele>
        <time>2022-09-28T12:16:48Z</time>
      </trkpt>
      <trkpt lat="46.54778" lon="6.54544">
        <ele>399.4</ele>
        <time>2022-09-28T12:16:49Z</time>
      </trkpt>
      <trkpt lat="46.54784" lon="6.54536">
        <ele>399.1</ele>
        <time>2022-09-28T12:16:50Z</time>
      </trkpt>
      <trkpt lat="46.54791" lon="6.5453">
        <ele>398.9</ele>
        <time>2022-09-28T12:16:51Z</time>
      </trkpt>
      <trkpt lat="46.54797" lon="6.54523">
        <ele>398.7</ele>
        <time>2022-09-28T12:16:52Z</time>
      </trkpt>
      <trkpt lat="46.54802" lon="6.54516">
        <ele>398.5</ele>
        <time>2022-09-28T12:16:53Z</time>
      </trkpt>
      <trkpt lat="46.54809" lon="6.54509">
        <ele>398.3</ele>
        <time>2022-09-28T12:16:54Z</time>
      </trkpt>
      <trkpt lat="46.54815" lon="6.54501">
        <ele>398</ele>
        <time>2022-09-28T12:16:55Z</time>
      </trkpt>
      <trkpt lat="46.5482" lon="6.54496">
        <ele>397.8</ele>
        <time>2022-09-28T12:16:56Z</time>
      </trkpt>
      <trkpt lat="46.54827" lon="6.54489">
        <ele>397.6</ele>
        <time>2022-09-28T12:16:58Z</time>
      </trkpt>
      <trkpt lat="46.54833" lon="6.54483">
        <ele>397.4</ele>
        <time>2022-09-28T12:16:59Z</time>
      </trkpt>
      <trkpt lat="46.54838" lon="6.54476">
        <ele>397.2</ele>
        <time>2022-09-28T12:17:00Z</time>
      </trkpt>
      <trkpt lat="46.54843" lon="6.54469">
        <ele>397</ele>
        <time>2022-09-28T12:17:01Z</time>
      </trkpt>
      <trkpt lat="46.5485" lon="6.54463">
        <ele>396.9</ele>
        <time>2022-09-28T12:17:02Z</time>
      </trkpt>
      <trkpt lat="46.54857" lon="6.54457">
        <ele>396.7</ele>
        <time>2022-09-28T12:17:03Z</time>
      </trkpt>
      <trkpt lat="46.54864" lon="6.54451">
        <ele>396.5</ele>
        <time>2022-09-28T12:17:04Z</time>
      </trkpt>
      <trkpt lat="46.5487" lon="6.54446">
        <ele>396.3</ele>
        <time>2022-09-28T12:17:05Z</time>
      </trkpt>
      <trkpt lat="46.54877" lon="6.5444">
        <ele>396.2</ele>
        <time>2022-09-28T12:17:06Z</time>
      </trkpt>
      <trkpt lat="46.54884" lon="6.54435">
        <ele>396</ele>
        <time>2022-09-28T12:17:07Z</time>
      </trkpt>
      <trkpt lat="46.5489" lon="6.54429">
        <ele>395.9</ele>
        <time>2022-09-28T12:17:08Z</time>
      </trkpt>
      <trkpt lat="46.54897" lon="6.54424">
        <ele>395.7</ele>
        <time>2022-09-28T12:17:09Z</time>
      </trkpt>
      <trkpt lat="46.54903" lon="6.54418">
        <ele>395.6</ele>
        <time>2022-09-28T12:17:10Z</time>
      </trkpt>
      <trkpt lat="46.5491" lon="6.54413">
        <ele>395.5</ele>
        <time>2022-09-28T12:17:11Z</time>
      </trkpt>
      <trkpt lat="46.54916" lon="6.54408">
        <ele>395.4</ele>
        <time>2022-09-28T12:17:12Z</time>
      </trkpt>
      <trkpt lat="46.54922" lon="6.54403">
        <ele>395.3</ele>
        <time>2022-09-28T12:17:13Z</time>
      </trkpt>
      <trkpt lat="46.54928" lon="6.54398">
        <ele>395.1</ele>
        <time>2022-09-28T12:17:14Z</time>
      </trkpt>
      <trkpt lat="46.54934" lon="6.54393">
        <ele>395</ele>
        <time>2022-09-28T12:17:15Z</time>
      </trkpt>
      <trkpt lat="46.5494" lon="6.54388">
        <ele>395</ele>
        <time>2022-09-28T12:17:16Z</time>
      </trkpt>
      <trkpt lat="46.54946" lon="6.54383">
        <ele>394.9</ele>
        <time>2022-09-28T12:17:17Z</time>
      </trkpt>
      <trkpt lat="46.54952" lon="6.54378">
        <ele>394.9</ele>
        <time>2022-09-28T12:17:18Z</time>
      </trkpt>
      <trkpt lat="46.54958" lon="6.54374">
        <ele>394.8</ele>
        <time>2022-09-28T12:17:19Z</time>
      </trkpt>
      <trkpt lat="46.54963" lon="6.54369">
        <ele>394.8</ele>
        <time>2022-09-28T12:17:20Z</time>
      </trkpt>
      <trkpt lat="46.54968" lon="6.54365">
        <ele>394.7</ele>
        <time>2022-09-28T12:17:21Z</time>
      </trkpt>
      <trkpt lat="46.54974" lon="6.54361">
        <ele>394.7</ele>
        <time>2022-09-28T12:17:22Z</time>
      </trkpt>
      <trkpt lat="46.5498" lon="6.54357">
        <ele>394.6</ele>
        <time>2022-09-28T12:17:23Z</time>
      </trkpt>
      <trkpt lat="46.54986" lon="6.54353">
        <ele>394.6</ele>
        <time>2022-09-28T12:17:24Z</time>
      </trkpt>
      <trkpt lat="46.54991" lon="6.54349">
        <ele>394.6</ele>
        <time>2022-09-28T12:17:25Z</time>
      </trkpt>
      <trkpt lat="46.54997" lon="6.54345">
        <ele>394.6</ele>
        <time>2022-09-28T12:17:26Z</time>
      </trkpt>
      <trkpt lat="46.55008" lon="6.54338">
        <ele>394.6</ele>
        <time>2022-09-28T12:17:27Z</time>
      </trkpt>
      <trkpt lat="46.55013" lon="6.54334">
        <ele>394.6</ele>
        <time>2022-09-28T12:17:28Z</time>
      </trkpt>
      <trkpt lat="46.55018" lon="6.54331">
        <ele>394.6</ele>
        <time>2022-09-28T12:17:29Z</time>
      </trkpt>
      <trkpt lat="46.55023" lon="6.54327">
        <ele>394.6</ele>
        <time>2022-09-28T12:17:30Z</time>
      </trkpt>
      <trkpt lat="46.55027" lon="6.54324">
        <ele>394.6</ele>
        <time>2022-09-28T12:17:31Z</time>
      </trkpt>
      <trkpt lat="46.55032" lon="6.5432">
        <ele>394.6</ele>
        <time>2022-09-28T12:17:32Z</time>
      </trkpt>
      <trkpt lat="46.55037" lon="6.54316">
        <ele>394.7</ele>
        <time>2022-09-28T12:17:33Z</time>
      </trkpt>
      <trkpt lat="46.55043" lon="6.54313">
        <ele>394.7</ele>
        <time>2022-09-28T12:17:34Z</time>
      </trkpt>
      <trkpt lat="46.55048" lon="6.54309">
        <ele>394.8</ele>
        <time>2022-09-28T12:17:35Z</time>
      </trkpt>
      <trkpt lat="46.55053" lon="6.54306">
        <ele>394.8</ele>
        <time>2022-09-28T12:17:36Z</time>
      </trkpt>
      <trkpt lat="46.55057" lon="6.54304">
        <ele>394.9</ele>
        <time>2022-09-28T12:17:37Z</time>
      </trkpt>
      <trkpt lat="46.55062" lon="6.543">
        <ele>394.9</ele>
        <time>2022-09-28T12:17:38Z</time>
      </trkpt>
      <trkpt lat="46.55067" lon="6.54297">
        <ele>394.9</ele>
        <time>2022-09-28T12:17:39Z</time>
      </trkpt>
      <trkpt lat="46.55071" lon="6.54295">
        <ele>394.9</ele>
        <time>2022-09-28T12:17:40Z</time>
      </trkpt>
      <trkpt lat="46.55075" lon="6.54292">
        <ele>395</ele>
        <time>2022-09-28T12:17:41Z</time>
      </trkpt>
      <trkpt lat="46.5508" lon="6.54289">
        <ele>395</ele>
        <time>2022-09-28T12:17:42Z</time>
      </trkpt>
      <trkpt lat="46.55084" lon="6.54284">
        <ele>395</ele>
        <time>2022-09-28T12:17:43Z</time>
      </trkpt>
      <trkpt lat="46.55088" lon="6.54281">
        <ele>395</ele>
        <time>2022-09-28T12:17:44Z</time>
      </trkpt>
      <trkpt lat="46.55093" lon="6.54276">
        <ele>395</ele>
        <time>2022-09-28T12:17:45Z</time>
      </trkpt>
      <trkpt lat="46.55097" lon="6.54272">
        <ele>394.9</ele>
        <time>2022-09-28T12:17:46Z</time>
      </trkpt>
      <trkpt lat="46.55102" lon="6.54268">
        <ele>394.9</ele>
        <time>2022-09-28T12:17:47Z</time>
      </trkpt>
      <trkpt lat="46.55106" lon="6.54263">
        <ele>394.9</ele>
        <time>2022-09-28T12:17:48Z</time>
      </trkpt>
      <trkpt lat="46.5511" lon="6.54259">
        <ele>394.8</ele>
        <time>2022-09-28T12:17:49Z</time>
      </trkpt>
      <trkpt lat="46.55115" lon="6.54256">
        <ele>394.8</ele>
        <time>2022-09-28T12:17:50Z</time>
      </trkpt>
      <trkpt lat="46.55119" lon="6.54252">
        <ele>394.8</ele>
        <time>2022-09-28T12:17:51Z</time>
      </trkpt>
      <trkpt lat="46.55123" lon="6.54248">
        <ele>394.8</ele>
        <time>2022-09-28T12:17:52Z</time>
      </trkpt>
      <trkpt lat="46.55127" lon="6.54244">
        <ele>394.8</ele>
        <time>2022-09-28T12:17:53Z</time>
      </trkpt>
      <trkpt lat="46.5513" lon="6.5424">
        <ele>394.8</ele>
        <time>2022-09-28T12:17:54Z</time>
      </trkpt>
      <trkpt lat="46.55134" lon="6.54236">
        <ele>394.8</ele>
        <time>2022-09-28T12:17:55Z</time>
      </trkpt>
      <trkpt lat="46.55138" lon="6.54232">
        <ele>394.8</ele>
        <time>2022-09-28T12:17:56Z</time>
      </trkpt>
      <trkpt lat="46.55142" lon="6.54228">
        <ele>394.8</ele>
        <time>2022-09-28T12:17:57Z</time>
      </trkpt>
      <trkpt lat="46.55145" lon="6.54224">
        <ele>394.8</ele>
        <time>2022-09-28T12:17:58Z</time>
      </trkpt>
      <trkpt lat="46.55149" lon="6.54219">
        <ele>394.8</ele>
        <time>2022-09-28T12:17:59Z</time>
      </trkpt>
      <trkpt lat="46.55153" lon="6.54216">
        <ele>394.9</ele>
        <time>2022-09-28T12:18:00Z</time>
      </trkpt>
      <trkpt lat="46.55157" lon="6.54212">
        <ele>394.9</ele>
        <time>2022-09-28T12:18:01Z</time>
      </trkpt>
      <trkpt lat="46.55161" lon="6.54207">
        <ele>394.9</ele>
        <time>2022-09-28T12:18:02Z</time>
      </trkpt>
      <trkpt lat="46.55164" lon="6.54203">
        <ele>395</ele>
        <time>2022-09-28T12:18:03Z</time>
      </trkpt>
      <trkpt lat="46.55168" lon="6.54199">
        <ele>395</ele>
        <time>2022-09-28T12:18:04Z</time>
      </trkpt>
      <trkpt lat="46.55172" lon="6.54195">
        <ele>395</ele>
        <time>2022-09-28T12:18:05Z</time>
      </trkpt>
      <trkpt lat="46.55176" lon="6.54191">
        <ele>395.1</ele>
        <time>2022-09-28T12:18:06Z</time>
      </trkpt>
      <trkpt lat="46.55179" lon="6.54188">
        <ele>395.1</ele>
        <time>2022-09-28T12:18:07Z</time>
      </trkpt>
      <trkpt lat="46.55183" lon="6.54184">
        <ele>395.2</ele>
        <time>2022-09-28T12:18:08Z</time>
      </trkpt>
      <trkpt lat="46.55186" lon="6.54179">
        <ele>395.3</ele>
        <time>2022-09-28T12:18:09Z</time>
      </trkpt>
      <trkpt lat="46.55189" lon="6.54176">
        <ele>395.3</ele>
        <time>2022-09-28T12:18:10Z</time>
      </trkpt>
      <trkpt lat="46.55193" lon="6.54172">
        <ele>395.4</ele>
        <time>2022-09-28T12:18:11Z</time>
      </trkpt>
      <trkpt lat="46.55196" lon="6.54168">
        <ele>395.5</ele>
        <time>2022-09-28T12:18:12Z</time>
      </trkpt>
      <trkpt lat="46.55199" lon="6.54164">
        <ele>395.5</ele>
        <time>2022-09-28T12:18:13Z</time>
      </trkpt>
      <trkpt lat="46.55202" lon="6.54159">
        <ele>395.6</ele>
        <time>2022-09-28T12:18:14Z</time>
      </trkpt>
      <trkpt lat="46.55204" lon="6.54155">
        <ele>395.7</ele>
        <time>2022-09-28T12:18:15Z</time>
      </trkpt>
      <trkpt lat="46.55207" lon="6.54151">
        <ele>395.7</ele>
        <time>2022-09-28T12:18:16Z</time>
      </trkpt>
      <trkpt lat="46.5521" lon="6.54147">
        <ele>395.8</ele>
        <time>2022-09-28T12:18:17Z</time>
      </trkpt>
      <trkpt lat="46.55213" lon="6.54144">
        <ele>395.8</ele>
        <time>2022-09-28T12:18:18Z</time>
      </trkpt>
      <trkpt lat="46.55216" lon="6.54142">
        <ele>395.9</ele>
        <time>2022-09-28T12:18:19Z</time>
      </trkpt>
      <trkpt lat="46.55219" lon="6.54139">
        <ele>395.9</ele>
        <time>2022-09-28T12:18:20Z</time>
      </trkpt>
      <trkpt lat="46.5522" lon="6.54137">
        <ele>395.9</ele>
        <time>2022-09-28T12:18:21Z</time>
      </trkpt>
      <trkpt lat="46.55223" lon="6.54135">
        <ele>395.8</ele>
        <time>2022-09-28T12:18:22Z</time>
      </trkpt>
      <trkpt lat="46.55224" lon="6.54134">
        <ele>395.8</ele>
        <time>2022-09-28T12:18:23Z</time>
      </trkpt>
      <trkpt lat="46.55222" lon="6.54131">
        <ele>395.8</ele>
        <time>2022-09-28T12:18:24Z</time>
      </trkpt>
      <trkpt lat="46.55218" lon="6.54128">
        <ele>395.8</ele>
        <time>2022-09-28T12:18:25Z</time>
      </trkpt>
      <trkpt lat="46.55214" lon="6.54125">
        <ele>395.8</ele>
        <time>2022-09-28T12:18:26Z</time>
      </trkpt>
      <trkpt lat="46.55209" lon="6.54122">
        <ele>395.7</ele>
        <time>2022-09-28T12:18:27Z</time>
      </trkpt>
      <trkpt lat="46.55205" lon="6.54118">
        <ele>395.6</ele>
        <time>2022-09-28T12:18:28Z</time>
      </trkpt>
      <trkpt lat="46.55201" lon="6.54115">
        <ele>395.4</ele>
        <time>2022-09-28T12:18:29Z</time>
      </trkpt>
      <trkpt lat="46.55197" lon="6.54112">
        <ele>395.4</ele>
        <time>2022-09-28T12:18:30Z</time>
      </trkpt>
      <trkpt lat="46.55193" lon="6.54109">
        <ele>395.3</ele>
        <time>2022-09-28T12:18:31Z</time>
      </trkpt>
      <trkpt lat="46.55189" lon="6.54105">
        <ele>395.2</ele>
        <time>2022-09-28T12:18:32Z</time>
      </trkpt>
      <trkpt lat="46.55185" lon="6.54102">
        <ele>395.2</ele>
        <time>2022-09-28T12:18:33Z</time>
      </trkpt>
      <trkpt lat="46.55181" lon="6.54099">
        <ele>395.1</ele>
        <time>2022-09-28T12:18:34Z</time>
      </trkpt>
      <trkpt lat="46.55177" lon="6.54095">
        <ele>395.1</ele>
        <time>2022-09-28T12:18:35Z</time>
      </trkpt>
      <trkpt lat="46.55173" lon="6.54092">
        <ele>395</ele>
        <time>2022-09-28T12:20:43Z</time>
      </trkpt>
      <trkpt lat="46.55169" lon="6.54089">
        <ele>394.9</ele>
        <time>2022-09-28T12:20:44Z</time>
      </trkpt>
      <trkpt lat="46.55166" lon="6.54087">
        <ele>394.9</ele>
        <time>2022-09-28T12:20:45Z</time>
      </trkpt>
      <trkpt lat="46.55162" lon="6.54084">
        <ele>394.8</ele>
        <time>2022-09-28T12:20:46Z</time>
      </trkpt>
      <trkpt lat="46.55157" lon="6.54081">
        <ele>394.8</ele>
        <time>2022-09-28T12:20:47Z</time>
      </trkpt>
      <trkpt lat="46.55154" lon="6.54079">
        <ele>394.7</ele>
        <time>2022-09-28T12:20:48Z</time>
      </trkpt>
      <trkpt lat="46.5515" lon="6.54076">
        <ele>394.7</ele>
        <time>2022-09-28T12:20:49Z</time>
      </trkpt>
      <trkpt lat="46.55145" lon="6.54073">
        <ele>394.7</ele>
        <time>2022-09-28T12:20:50Z</time>
      </trkpt>
      <trkpt lat="46.55142" lon="6.5407">
        <ele>394.7</ele>
        <time>2022-09-28T12:20:51Z</time>
      </trkpt>
      <trkpt lat="46.55138" lon="6.54068">
        <ele>394.7</ele>
        <time>2022-09-28T12:20:52Z</time>
      </trkpt>
      <trkpt lat="46.55134" lon="6.54065">
        <ele>394.7</ele>
        <time>2022-09-28T12:20:53Z</time>
      </trkpt>
      <trkpt lat="46.5513" lon="6.54062">
        <ele>394.7</ele>
        <time>2022-09-28T12:20:54Z</time>
      </trkpt>
      <trkpt lat="46.55125" lon="6.54059">
        <ele>394.6</ele>
        <time>2022-09-28T12:20:55Z</time>
      </trkpt>
      <trkpt lat="46.5512" lon="6.54055">
        <ele>394.6</ele>
        <time>2022-09-28T12:20:56Z</time>
      </trkpt>
      <trkpt lat="46.55116" lon="6.54052">
        <ele>394.6</ele>
        <time>2022-09-28T12:20:57Z</time>
      </trkpt>
      <trkpt lat="46.55112" lon="6.54048">
        <ele>394.6</ele>
        <time>2022-09-28T12:20:58Z</time>
      </trkpt>
      <trkpt lat="46.55107" lon="6.54045">
        <ele>394.5</ele>
        <time>2022-09-28T12:20:59Z</time>
      </trkpt>
      <trkpt lat="46.55103" lon="6.54042">
        <ele>394.5</ele>
        <time>2022-09-28T12:21:00Z</time>
      </trkpt>
      <trkpt lat="46.55099" lon="6.54038">
        <ele>394.5</ele>
        <time>2022-09-28T12:21:01Z</time>
      </trkpt>
      <trkpt lat="46.55094" lon="6.54035">
        <ele>394.4</ele>
        <time>2022-09-28T12:21:02Z</time>
      </trkpt>
      <trkpt lat="46.55089" lon="6.54033">
        <ele>394.4</ele>
        <time>2022-09-28T12:21:03Z</time>
      </trkpt>
      <trkpt lat="46.55084" lon="6.54031">
        <ele>394.4</ele>
        <time>2022-09-28T12:21:04Z</time>
      </trkpt>
      <trkpt lat="46.55079" lon="6.54029">
        <ele>394.4</ele>
        <time>2022-09-28T12:21:05Z</time>
      </trkpt>
      <trkpt lat="46.55075" lon="6.54027">
        <ele>394.4</ele>
        <time>2022-09-28T12:21:06Z</time>
      </trkpt>
      <trkpt lat="46.5507" lon="6.54026">
        <ele>394.4</ele>
        <time>2022-09-28T12:21:07Z</time>
      </trkpt>
      <trkpt lat="46.55066" lon="6.54025">
        <ele>394.4</ele>
        <time>2022-09-28T12:21:08Z</time>
      </trkpt>
      <trkpt lat="46.55061" lon="6.54023">
        <ele>394.3</ele>
        <time>2022-09-28T12:21:09Z</time>
      </trkpt>
      <trkpt lat="46.55057" lon="6.54023">
        <ele>394.4</ele>
        <time>2022-09-28T12:21:10Z</time>
      </trkpt>
      <trkpt lat="46.55054" lon="6.54022">
        <ele>394.4</ele>
        <time>2022-09-28T12:21:11Z</time>
      </trkpt>
      <trkpt lat="46.55052" lon="6.54022">
        <ele>394.4</ele>
        <time>2022-09-28T12:21:12Z</time>
      </trkpt>
      <trkpt lat="46.55049" lon="6.54021">
        <ele>394.4</ele>
        <time>2022-09-28T12:21:13Z</time>
      </trkpt>
      <trkpt lat="46.55044" lon="6.5402">
        <ele>394.5</ele>
        <time>2022-09-28T12:21:14Z</time>
      </trkpt>
      <trkpt lat="46.5504" lon="6.54019">
        <ele>394.5</ele>
        <time>2022-09-28T12:21:15Z</time>
      </trkpt>
      <trkpt lat="46.55037" lon="6.54017">
        <ele>394.6</ele>
        <time>2022-09-28T12:21:16Z</time>
      </trkpt>
      <trkpt lat="46.55036" lon="6.54013">
        <ele>394.6</ele>
        <time>2022-09-28T12:21:17Z</time>
      </trkpt>
      <trkpt lat="46.55035" lon="6.54009">
        <ele>394.7</ele>
        <time>2022-09-28T12:21:18Z</time>
      </trkpt>
      <trkpt lat="46.55034" lon="6.54004">
        <ele>394.6</ele>
        <time>2022-09-28T12:21:19Z</time>
      </trkpt>
      <trkpt lat="46.55033" lon="6.53999">
        <ele>394.6</ele>
        <time>2022-09-28T12:21:20Z</time>
      </trkpt>
      <trkpt lat="46.55032" lon="6.53994">
        <ele>394.5</ele>
        <time>2022-09-28T12:21:21Z</time>
      </trkpt>
      <trkpt lat="46.55031" lon="6.53989">
        <ele>394.4</ele>
        <time>2022-09-28T12:21:22Z</time>
      </trkpt>
      <trkpt lat="46.5503" lon="6.53984">
        <ele>394.4</ele>
        <time>2022-09-28T12:21:23Z</time>
      </trkpt>
      <trkpt lat="46.5503" lon="6.53982">
        <ele>394.4</ele>
        <time>2022-09-28T12:21:24Z</time>
      </trkpt>
      <trkpt lat="46.55029" lon="6.53977">
        <ele>394.3</ele>
        <time>2022-09-28T12:21:25Z</time>
      </trkpt>
      <trkpt lat="46.55028" lon="6.53971">
        <ele>394.3</ele>
        <time>2022-09-28T12:21:26Z</time>
      </trkpt>
      <trkpt lat="46.55028" lon="6.53965">
        <ele>394.3</ele>
        <time>2022-09-28T12:21:27Z</time>
      </trkpt>
      <trkpt lat="46.55027" lon="6.53959">
        <ele>394.3</ele>
        <time>2022-09-28T12:21:28Z</time>
      </trkpt>
      <trkpt lat="46.55027" lon="6.53954">
        <ele>394.4</ele>
        <time>2022-09-28T12:21:29Z</time>
      </trkpt>
      <trkpt lat="46.55025" lon="6.53949">
        <ele>394.4</ele>
        <time>2022-09-28T12:21:30Z</time>
      </trkpt>
      <trkpt lat="46.55024" lon="6.53943">
        <ele>394.5</ele>
        <time>2022-09-28T12:21:31Z</time>
      </trkpt>
      <trkpt lat="46.55024" lon="6.53938">
        <ele>394.6</ele>
        <time>2022-09-28T12:21:32Z</time>
      </trkpt>
      <trkpt lat="46.55024" lon="6.53933">
        <ele>394.7</ele>
        <time>2022-09-28T12:21:33Z</time>
      </trkpt>
      <trkpt lat="46.55024" lon="6.53928">
        <ele>394.8</ele>
        <time>2022-09-28T12:21:34Z</time>
      </trkpt>
      <trkpt lat="46.55023" lon="6.53923">
        <ele>394.9</ele>
        <time>2022-09-28T12:21:35Z</time>
      </trkpt>
      <trkpt lat="46.55022" lon="6.53918">
        <ele>395</ele>
        <time>2022-09-28T12:21:36Z</time>
      </trkpt>
      <trkpt lat="46.55022" lon="6.53917">
        <ele>395.1</ele>
        <time>2022-09-28T12:21:37Z</time>
      </trkpt>
      <trkpt lat="46.5502" lon="6.53913">
        <ele>395.2</ele>
        <time>2022-09-28T12:21:38Z</time>
      </trkpt>
      <trkpt lat="46.5502" lon="6.53912">
        <ele>395.3</ele>
        <time>2022-09-28T12:21:39Z</time>
      </trkpt>
      <trkpt lat="46.55018" lon="6.53908">
        <ele>395.4</ele>
        <time>2022-09-28T12:21:40Z</time>
      </trkpt>
      <trkpt lat="46.55017" lon="6.53907">
        <ele>395.5</ele>
        <time>2022-09-28T12:21:41Z</time>
      </trkpt>
      <trkpt lat="46.55017" lon="6.53904">
        <ele>395.5</ele>
        <time>2022-09-28T12:21:42Z</time>
      </trkpt>
      <trkpt lat="46.55016" lon="6.53902">
        <ele>395.6</ele>
        <time>2022-09-28T12:21:43Z</time>
      </trkpt>
      <trkpt lat="46.55014" lon="6.53899">
        <ele>395.8</ele>
        <time>2022-09-28T12:21:44Z</time>
      </trkpt>
      <trkpt lat="46.55014" lon="6.53897">
        <ele>395.9</ele>
        <time>2022-09-28T12:21:45Z</time>
      </trkpt>
      <trkpt lat="46.55012" lon="6.53895">
        <ele>396</ele>
        <time>2022-09-28T12:21:46Z</time>
      </trkpt>
      <trkpt lat="46.55012" lon="6.53893">
        <ele>396.1</ele>
        <time>2022-09-28T12:21:47Z</time>
      </trkpt>
      <trkpt lat="46.55011" lon="6.53892">
        <ele>396.1</ele>
        <time>2022-09-28T12:21:48Z</time>
      </trkpt>
      <trkpt lat="46.5501" lon="6.53889">
        <ele>396.3</ele>
        <time>2022-09-28T12:21:49Z</time>
      </trkpt>
      <trkpt lat="46.55009" lon="6.53888">
        <ele>396.4</ele>
        <time>2022-09-28T12:21:50Z</time>
      </trkpt>
      <trkpt lat="46.55009" lon="6.53887">
        <ele>396.4</ele>
        <time>2022-09-28T12:21:51Z</time>
      </trkpt>
      <trkpt lat="46.55009" lon="6.53884">
        <ele>396.5</ele>
        <time>2022-09-28T12:21:52Z</time>
      </trkpt>
      <trkpt lat="46.55008" lon="6.53882">
        <ele>396.7</ele>
        <time>2022-09-28T12:21:53Z</time>
      </trkpt>
      <trkpt lat="46.55007" lon="6.53879">
        <ele>396.8</ele>
        <time>2022-09-28T12:21:54Z</time>
      </trkpt>
      <trkpt lat="46.55007" lon="6.53878">
        <ele>396.9</ele>
        <time>2022-09-28T12:21:55Z</time>
      </trkpt>
      <trkpt lat="46.55006" lon="6.53877">
        <ele>396.9</ele>
        <time>2022-09-28T12:21:56Z</time>
      </trkpt>
      <trkpt lat="46.55004" lon="6.53874">
        <ele>397.2</ele>
        <time>2022-09-28T12:21:57Z</time>
      </trkpt>
      <trkpt lat="46.55004" lon="6.53873">
        <ele>397.3</ele>
        <time>2022-09-28T12:21:58Z</time>
      </trkpt>
      <trkpt lat="46.55003" lon="6.53871">
        <ele>397.4</ele>
        <time>2022-09-28T12:21:59Z</time>
      </trkpt>
      <trkpt lat="46.54999" lon="6.53797">
        <ele>400.1</ele>
        <time>2022-09-28T12:22:23Z</time>
      </trkpt>
      <trkpt lat="46.54999" lon="6.53791">
        <ele>400.1</ele>
        <time>2022-09-28T12:22:24Z</time>
      </trkpt>
      <trkpt lat="46.55" lon="6.53789">
        <ele>400.1</ele>
        <time>2022-09-28T12:22:25Z</time>
      </trkpt>
      <trkpt lat="46.55" lon="6.53785">
        <ele>400.1</ele>
        <time>2022-09-28T12:22:26Z</time>
      </trkpt>
      <trkpt lat="46.55002" lon="6.5378">
        <ele>400</ele>
        <time>2022-09-28T12:22:27Z</time>
      </trkpt>
      <trkpt lat="46.55004" lon="6.53774">
        <ele>399.9</ele>
        <time>2022-09-28T12:22:28Z</time>
      </trkpt>
      <trkpt lat="46.55004" lon="6.5377">
        <ele>399.9</ele>
        <time>2022-09-28T12:22:29Z</time>
      </trkpt>
      <trkpt lat="46.55006" lon="6.53765">
        <ele>399.8</ele>
        <time>2022-09-28T12:22:30Z</time>
      </trkpt>
      <trkpt lat="46.55008" lon="6.53761">
        <ele>399.7</ele>
        <time>2022-09-28T12:22:31Z</time>
      </trkpt>
      <trkpt lat="46.5501" lon="6.53756">
        <ele>399.7</ele>
        <time>2022-09-28T12:22:32Z</time>
      </trkpt>
      <trkpt lat="46.55012" lon="6.53752">
        <ele>399.6</ele>
        <time>2022-09-28T12:22:33Z</time>
      </trkpt>
      <trkpt lat="46.55014" lon="6.53747">
        <ele>399.5</ele>
        <time>2022-09-28T12:22:34Z</time>
      </trkpt>
      <trkpt lat="46.55016" lon="6.53745">
        <ele>399.4</ele>
        <time>2022-09-28T12:22:35Z</time>
      </trkpt>
      <trkpt lat="46.55019" lon="6.53742">
        <ele>399.3</ele>
        <time>2022-09-28T12:22:36Z</time>
      </trkpt>
      <trkpt lat="46.55021" lon="6.53738">
        <ele>399.3</ele>
        <time>2022-09-28T12:22:37Z</time>
      </trkpt>
      <trkpt lat="46.55023" lon="6.53735">
        <ele>399.2</ele>
        <time>2022-09-28T12:22:38Z</time>
      </trkpt>
      <trkpt lat="46.55025" lon="6.53731">
        <ele>399.2</ele>
        <time>2022-09-28T12:22:39Z</time>
      </trkpt>
      <trkpt lat="46.55027" lon="6.53726">
        <ele>399.1</ele>
        <time>2022-09-28T12:22:40Z</time>
      </trkpt>
      <trkpt lat="46.55029" lon="6.53722">
        <ele>399</ele>
        <time>2022-09-28T12:22:41Z</time>
      </trkpt>
      <trkpt lat="46.55031" lon="6.53719">
        <ele>399</ele>
        <time>2022-09-28T12:22:42Z</time>
      </trkpt>
      <trkpt lat="46.55031" lon="6.53708">
        <ele>398.8</ele>
        <time>2022-09-28T12:22:43Z</time>
      </trkpt>
      <trkpt lat="46.55033" lon="6.53705">
        <ele>398.7</ele>
        <time>2022-09-28T12:22:44Z</time>
      </trkpt>
      <trkpt lat="46.55035" lon="6.537">
        <ele>398.6</ele>
        <time>2022-09-28T12:22:45Z</time>
      </trkpt>
      <trkpt lat="46.55036" lon="6.53699">
        <ele>398.6</ele>
        <time>2022-09-28T12:22:46Z</time>
      </trkpt>
      <trkpt lat="46.55038" lon="6.53696">
        <ele>398.5</ele>
        <time>2022-09-28T12:22:47Z</time>
      </trkpt>
      <trkpt lat="46.55038" lon="6.53694">
        <ele>398.4</ele>
        <time>2022-09-28T12:22:48Z</time>
      </trkpt>
      <trkpt lat="46.55041" lon="6.5369">
        <ele>398.3</ele>
        <time>2022-09-28T12:22:49Z</time>
      </trkpt>
      <trkpt lat="46.55043" lon="6.53687">
        <ele>398.2</ele>
        <time>2022-09-28T12:22:50Z</time>
      </trkpt>
      <trkpt lat="46.55044" lon="6.53686">
        <ele>398.1</ele>
        <time>2022-09-28T12:22:51Z</time>
      </trkpt>
      <trkpt lat="46.55044" lon="6.53684">
        <ele>398.1</ele>
        <time>2022-09-28T12:22:52Z</time>
      </trkpt>
      <trkpt lat="46.55045" lon="6.53682">
        <ele>398</ele>
        <time>2022-09-28T12:22:53Z</time>
      </trkpt>
      <trkpt lat="46.55046" lon="6.5368">
        <ele>397.9</ele>
        <time>2022-09-28T12:22:54Z</time>
      </trkpt>
      <trkpt lat="46.55048" lon="6.53678">
        <ele>397.8</ele>
        <time>2022-09-28T12:22:55Z</time>
      </trkpt>
      <trkpt lat="46.5505" lon="6.53675">
        <ele>397.7</ele>
        <time>2022-09-28T12:22:56Z</time>
      </trkpt>
      <trkpt lat="46.5505" lon="6.53674">
        <ele>397.6</ele>
        <time>2022-09-28T12:22:57Z</time>
      </trkpt>
      <trkpt lat="46.55053" lon="6.5367">
        <ele>397.4</ele>
        <time>2022-09-28T12:22:58Z</time>
      </trkpt>
      <trkpt lat="46.55054" lon="6.53669">
        <ele>397.4</ele>
        <time>2022-09-28T12:22:59Z</time>
      </trkpt>
      <trkpt lat="46.55057" lon="6.53665">
        <ele>397.1</ele>
        <time>2022-09-28T12:23:00Z</time>
      </trkpt>
      <trkpt lat="46.55058" lon="6.53663">
        <ele>397.1</ele>
        <time>2022-09-28T12:23:01Z</time>
      </trkpt>
      <trkpt lat="46.5506" lon="6.53659">
        <ele>396.9</ele>
        <time>2022-09-28T12:23:02Z</time>
      </trkpt>
      <trkpt lat="46.55061" lon="6.53658">
        <ele>396.8</ele>
        <time>2022-09-28T12:23:03Z</time>
      </trkpt>
      <trkpt lat="46.55063" lon="6.53654">
        <ele>396.7</ele>
        <time>2022-09-28T12:23:04Z</time>
      </trkpt>
      <trkpt lat="46.55064" lon="6.53652">
        <ele>396.5</ele>
        <time>2022-09-28T12:23:05Z</time>
      </trkpt>
      <trkpt lat="46.55065" lon="6.5365">
        <ele>396.5</ele>
        <time>2022-09-28T12:23:06Z</time>
      </trkpt>
      <trkpt lat="46.55068" lon="6.53645">
        <ele>396.3</ele>
        <time>2022-09-28T12:23:07Z</time>
      </trkpt>
      <trkpt lat="46.5507" lon="6.53639">
        <ele>396.1</ele>
        <time>2022-09-28T12:23:08Z</time>
      </trkpt>
      <trkpt lat="46.55072" lon="6.53633">
        <ele>395.9</ele>
        <time>2022-09-28T12:23:09Z</time>
      </trkpt>
      <trkpt lat="46.55075" lon="6.53629">
        <ele>395.8</ele>
        <time>2022-09-28T12:23:10Z</time>
      </trkpt>
      <trkpt lat="46.55078" lon="6.53624">
        <ele>395.6</ele>
        <time>2022-09-28T12:23:11Z</time>
      </trkpt>
      <trkpt lat="46.5508" lon="6.53619">
        <ele>395.5</ele>
        <time>2022-09-28T12:23:12Z</time>
      </trkpt>
      <trkpt lat="46.55083" lon="6.53614">
        <ele>395.5</ele>
        <time>2022-09-28T12:23:13Z</time>
      </trkpt>
      <trkpt lat="46.55085" lon="6.5361">
        <ele>395.5</ele>
        <time>2022-09-28T12:23:14Z</time>
      </trkpt>
      <trkpt lat="46.55087" lon="6.53606">
        <ele>395.5</ele>
        <time>2022-09-28T12:23:16Z</time>
      </trkpt>
      <trkpt lat="46.5509" lon="6.53602">
        <ele>395.6</ele>
        <time>2022-09-28T12:23:17Z</time>
      </trkpt>
      <trkpt lat="46.55093" lon="6.53598">
        <ele>395.6</ele>
        <time>2022-09-28T12:23:18Z</time>
      </trkpt>
      <trkpt lat="46.55095" lon="6.53594">
        <ele>395.7</ele>
        <time>2022-09-28T12:23:19Z</time>
      </trkpt>
      <trkpt lat="46.55098" lon="6.53591">
        <ele>395.8</ele>
        <time>2022-09-28T12:23:20Z</time>
      </trkpt>
      <trkpt lat="46.55101" lon="6.53586">
        <ele>395.9</ele>
        <time>2022-09-28T12:23:21Z</time>
      </trkpt>
      <trkpt lat="46.55105" lon="6.5358">
        <ele>396.1</ele>
        <time>2022-09-28T12:23:22Z</time>
      </trkpt>
      <trkpt lat="46.55109" lon="6.53571">
        <ele>396.3</ele>
        <time>2022-09-28T12:23:24Z</time>
      </trkpt>
      <trkpt lat="46.55111" lon="6.53566">
        <ele>396.5</ele>
        <time>2022-09-28T12:23:25Z</time>
      </trkpt>
      <trkpt lat="46.55112" lon="6.53564">
        <ele>396.5</ele>
        <time>2022-09-28T12:23:26Z</time>
      </trkpt>
      <trkpt lat="46.55114" lon="6.53561">
        <ele>396.6</ele>
        <time>2022-09-28T12:23:27Z</time>
      </trkpt>
      <trkpt lat="46.55115" lon="6.53556">
        <ele>396.8</ele>
        <time>2022-09-28T12:23:28Z</time>
      </trkpt>
      <trkpt lat="46.55117" lon="6.53551">
        <ele>396.9</ele>
        <time>2022-09-28T12:23:29Z</time>
      </trkpt>
      <trkpt lat="46.55118" lon="6.53549">
        <ele>397</ele>
        <time>2022-09-28T12:23:30Z</time>
      </trkpt>
      <trkpt lat="46.5512" lon="6.53541">
        <ele>397.2</ele>
        <time>2022-09-28T12:23:32Z</time>
      </trkpt>
      <trkpt lat="46.55121" lon="6.53538">
        <ele>397.3</ele>
        <time>2022-09-28T12:23:33Z</time>
      </trkpt>
      <trkpt lat="46.55122" lon="6.53534">
        <ele>397.4</ele>
        <time>2022-09-28T12:23:34Z</time>
      </trkpt>
      <trkpt lat="46.55123" lon="6.53529">
        <ele>397.5</ele>
        <time>2022-09-28T12:23:35Z</time>
      </trkpt>
      <trkpt lat="46.55124" lon="6.53525">
        <ele>397.7</ele>
        <time>2022-09-28T12:23:36Z</time>
      </trkpt>
      <trkpt lat="46.55126" lon="6.53521">
        <ele>397.8</ele>
        <time>2022-09-28T12:23:37Z</time>
      </trkpt>
      <trkpt lat="46.55126" lon="6.53516">
        <ele>397.9</ele>
        <time>2022-09-28T12:23:38Z</time>
      </trkpt>
      <trkpt lat="46.55126" lon="6.53514">
        <ele>398</ele>
        <time>2022-09-28T12:23:39Z</time>
      </trkpt>
      <trkpt lat="46.55126" lon="6.5351">
        <ele>398.1</ele>
        <time>2022-09-28T12:23:40Z</time>
      </trkpt>
      <trkpt lat="46.55126" lon="6.53509">
        <ele>398.2</ele>
        <time>2022-09-28T12:23:41Z</time>
      </trkpt>
      <trkpt lat="46.55127" lon="6.53504">
        <ele>398.3</ele>
        <time>2022-09-28T12:23:42Z</time>
      </trkpt>
      <trkpt lat="46.55127" lon="6.53503">
        <ele>398.4</ele>
        <time>2022-09-28T12:23:43Z</time>
      </trkpt>
      <trkpt lat="46.55128" lon="6.53499">
        <ele>398.5</ele>
        <time>2022-09-28T12:23:44Z</time>
      </trkpt>
      <trkpt lat="46.5513" lon="6.53495">
        <ele>398.6</ele>
        <time>2022-09-28T12:23:45Z</time>
      </trkpt>
      <trkpt lat="46.55132" lon="6.53491">
        <ele>398.7</ele>
        <time>2022-09-28T12:23:46Z</time>
      </trkpt>
      <trkpt lat="46.55132" lon="6.5349">
        <ele>398.8</ele>
        <time>2022-09-28T12:23:47Z</time>
      </trkpt>
      <trkpt lat="46.55134" lon="6.53486">
        <ele>398.9</ele>
        <time>2022-09-28T12:23:48Z</time>
      </trkpt>
      <trkpt lat="46.55135" lon="6.53484">
        <ele>399</ele>
        <time>2022-09-28T12:23:49Z</time>
      </trkpt>
      <trkpt lat="46.55136" lon="6.5348">
        <ele>399.1</ele>
        <time>2022-09-28T12:23:50Z</time>
      </trkpt>
      <trkpt lat="46.55137" lon="6.53478">
        <ele>399.1</ele>
        <time>2022-09-28T12:23:51Z</time>
      </trkpt>
      <trkpt lat="46.55138" lon="6.53473">
        <ele>399.3</ele>
        <time>2022-09-28T12:23:52Z</time>
      </trkpt>
      <trkpt lat="46.55138" lon="6.53472">
        <ele>399.3</ele>
        <time>2022-09-28T12:23:53Z</time>
      </trkpt>
      <trkpt lat="46.5514" lon="6.53468">
        <ele>399.4</ele>
        <time>2022-09-28T12:23:54Z</time>
      </trkpt>
      <trkpt lat="46.55142" lon="6.53464">
        <ele>399.5</ele>
        <time>2022-09-28T12:23:55Z</time>
      </trkpt>
      <trkpt lat="46.55142" lon="6.53462">
        <ele>399.6</ele>
        <time>2022-09-28T12:23:56Z</time>
      </trkpt>
      <trkpt lat="46.55143" lon="6.53457">
        <ele>399.7</ele>
        <time>2022-09-28T12:23:57Z</time>
      </trkpt>
      <trkpt lat="46.55144" lon="6.53456">
        <ele>399.7</ele>
        <time>2022-09-28T12:23:58Z</time>
      </trkpt>
      <trkpt lat="46.55145" lon="6.53452">
        <ele>399.8</ele>
        <time>2022-09-28T12:23:59Z</time>
      </trkpt>
      <trkpt lat="46.55145" lon="6.53451">
        <ele>399.9</ele>
        <time>2022-09-28T12:24:00Z</time>
      </trkpt>
      <trkpt lat="46.55147" lon="6.53448">
        <ele>399.9</ele>
        <time>2022-09-28T12:24:01Z</time>
      </trkpt>
      <trkpt lat="46.55148" lon="6.53446">
        <ele>400</ele>
        <time>2022-09-28T12:24:02Z</time>
      </trkpt>
      <trkpt lat="46.5515" lon="6.53444">
        <ele>400</ele>
        <time>2022-09-28T12:24:03Z</time>
      </trkpt>
      <trkpt lat="46.5515" lon="6.53443">
        <ele>400</ele>
        <time>2022-09-28T12:24:04Z</time>
      </trkpt>
      <trkpt lat="46.55152" lon="6.53439">
        <ele>400.1</ele>
        <time>2022-09-28T12:24:05Z</time>
      </trkpt>
      <trkpt lat="46.55153" lon="6.53436">
        <ele>400.1</ele>
        <time>2022-09-28T12:24:06Z</time>
      </trkpt>
      <trkpt lat="46.55153" lon="6.53434">
        <ele>400.2</ele>
        <time>2022-09-28T12:24:07Z</time>
      </trkpt>
      <trkpt lat="46.55153" lon="6.53433">
        <ele>400.2</ele>
        <time>2022-09-28T12:24:08Z</time>
      </trkpt>
      <trkpt lat="46.55154" lon="6.5343">
        <ele>400.2</ele>
        <time>2022-09-28T12:24:09Z</time>
      </trkpt>
      <trkpt lat="46.55154" lon="6.53428">
        <ele>400.2</ele>
        <time>2022-09-28T12:24:10Z</time>
      </trkpt>
      <trkpt lat="46.55155" lon="6.53427">
        <ele>400.2</ele>
        <time>2022-09-28T12:24:11Z</time>
      </trkpt>
      <trkpt lat="46.55156" lon="6.53424">
        <ele>400.2</ele>
        <time>2022-09-28T12:24:12Z</time>
      </trkpt>
      <trkpt lat="46.55156" lon="6.53422">
        <ele>400.1</ele>
        <time>2022-09-28T12:24:13Z</time>
      </trkpt>
      <trkpt lat="46.55157" lon="6.5342">
        <ele>400.1</ele>
        <time>2022-09-28T12:24:14Z</time>
      </trkpt>
      <trkpt lat="46.55159" lon="6.53419">
        <ele>400.1</ele>
        <time>2022-09-28T12:24:15Z</time>
      </trkpt>
      <trkpt lat="46.5516" lon="6.53418">
        <ele>400</ele>
        <time>2022-09-28T12:24:16Z</time>
      </trkpt>
      <trkpt lat="46.55163" lon="6.53414">
        <ele>399.9</ele>
        <time>2022-09-28T12:24:17Z</time>
      </trkpt>
      <trkpt lat="46.55164" lon="6.53413">
        <ele>399.9</ele>
        <time>2022-09-28T12:24:18Z</time>
      </trkpt>
      <trkpt lat="46.55167" lon="6.5341">
        <ele>399.7</ele>
        <time>2022-09-28T12:24:19Z</time>
      </trkpt>
      <trkpt lat="46.5517" lon="6.53408">
        <ele>399.5</ele>
        <time>2022-09-28T12:24:20Z</time>
      </trkpt>
      <trkpt lat="46.5517" lon="6.53407">
        <ele>399.4</ele>
        <time>2022-09-28T12:24:21Z</time>
      </trkpt>
      <trkpt lat="46.55172" lon="6.53405">
        <ele>399.2</ele>
        <time>2022-09-28T12:24:22Z</time>
      </trkpt>
      <trkpt lat="46.55173" lon="6.53405">
        <ele>399.1</ele>
        <time>2022-09-28T12:24:23Z</time>
      </trkpt>
      <trkpt lat="46.55175" lon="6.53404">
        <ele>398.9</ele>
        <time>2022-09-28T12:24:24Z</time>
      </trkpt>
      <trkpt lat="46.55176" lon="6.53403">
        <ele>398.8</ele>
        <time>2022-09-28T12:24:25Z</time>
      </trkpt>
      <trkpt lat="46.55179" lon="6.53401">
        <ele>398.5</ele>
        <time>2022-09-28T12:24:26Z</time>
      </trkpt>
      <trkpt lat="46.5518" lon="6.534">
        <ele>398.5</ele>
        <time>2022-09-28T12:24:27Z</time>
      </trkpt>
      <trkpt lat="46.55184" lon="6.53397">
        <ele>398.1</ele>
        <time>2022-09-28T12:24:28Z</time>
      </trkpt>
      <trkpt lat="46.55186" lon="6.53396">
        <ele>397.9</ele>
        <time>2022-09-28T12:24:29Z</time>
      </trkpt>
      <trkpt lat="46.5519" lon="6.53393">
        <ele>397.5</ele>
        <time>2022-09-28T12:24:30Z</time>
      </trkpt>
      <trkpt lat="46.55194" lon="6.53391">
        <ele>397.2</ele>
        <time>2022-09-28T12:24:31Z</time>
      </trkpt>
      <trkpt lat="46.55197" lon="6.53387">
        <ele>397</ele>
        <time>2022-09-28T12:24:32Z</time>
      </trkpt>
      <trkpt lat="46.55199" lon="6.53385">
        <ele>396.9</ele>
        <time>2022-09-28T12:24:33Z</time>
      </trkpt>
      <trkpt lat="46.552" lon="6.53381">
        <ele>396.8</ele>
        <time>2022-09-28T12:24:34Z</time>
      </trkpt>
      <trkpt lat="46.55203" lon="6.53378">
        <ele>396.7</ele>
        <time>2022-09-28T12:24:35Z</time>
      </trkpt>
      <trkpt lat="46.55205" lon="6.53374">
        <ele>396.7</ele>
        <time>2022-09-28T12:24:36Z</time>
      </trkpt>
      <trkpt lat="46.55206" lon="6.53373">
        <ele>396.7</ele>
        <time>2022-09-28T12:24:37Z</time>
      </trkpt>
      <trkpt lat="46.55208" lon="6.5337">
        <ele>396.7</ele>
        <time>2022-09-28T12:24:38Z</time>
      </trkpt>
      <trkpt lat="46.55209" lon="6.53369">
        <ele>396.7</ele>
        <time>2022-09-28T12:24:39Z</time>
      </trkpt>
      <trkpt lat="46.55212" lon="6.53367">
        <ele>396.8</ele>
        <time>2022-09-28T12:24:40Z</time>
      </trkpt>
      <trkpt lat="46.55215" lon="6.53365">
        <ele>396.8</ele>
        <time>2022-09-28T12:24:41Z</time>
      </trkpt>
      <trkpt lat="46.55218" lon="6.53362">
        <ele>396.9</ele>
        <time>2022-09-28T12:24:42Z</time>
      </trkpt>
      <trkpt lat="46.55221" lon="6.53359">
        <ele>397</ele>
        <time>2022-09-28T12:24:43Z</time>
      </trkpt>
      <trkpt lat="46.55223" lon="6.53356">
        <ele>397.1</ele>
        <time>2022-09-28T12:24:44Z</time>
      </trkpt>
      <trkpt lat="46.55226" lon="6.53353">
        <ele>397.3</ele>
        <time>2022-09-28T12:24:45Z</time>
      </trkpt>
      <trkpt lat="46.55229" lon="6.53351">
        <ele>397.4</ele>
        <time>2022-09-28T12:24:46Z</time>
      </trkpt>
      <trkpt lat="46.55232" lon="6.53348">
        <ele>397.6</ele>
        <time>2022-09-28T12:24:47Z</time>
      </trkpt>
      <trkpt lat="46.55236" lon="6.53347">
        <ele>397.7</ele>
        <time>2022-09-28T12:24:48Z</time>
      </trkpt>
      <trkpt lat="46.55239" lon="6.53346">
        <ele>397.9</ele>
        <time>2022-09-28T12:24:49Z</time>
      </trkpt>
      <trkpt lat="46.55242" lon="6.53345">
        <ele>398</ele>
        <time>2022-09-28T12:24:50Z</time>
      </trkpt>
      <trkpt lat="46.55243" lon="6.53344">
        <ele>398.1</ele>
        <time>2022-09-28T12:24:51Z</time>
      </trkpt>
      <trkpt lat="46.55247" lon="6.53344">
        <ele>398.2</ele>
        <time>2022-09-28T12:24:52Z</time>
      </trkpt>
      <trkpt lat="46.5525" lon="6.53343">
        <ele>398.3</ele>
        <time>2022-09-28T12:24:53Z</time>
      </trkpt>
      <trkpt lat="46.55253" lon="6.53342">
        <ele>398.4</ele>
        <time>2022-09-28T12:24:54Z</time>
      </trkpt>
      <trkpt lat="46.55255" lon="6.5334">
        <ele>398.5</ele>
        <time>2022-09-28T12:24:55Z</time>
      </trkpt>
      <trkpt lat="46.55258" lon="6.5334">
        <ele>398.6</ele>
        <time>2022-09-28T12:24:56Z</time>
      </trkpt>
      <trkpt lat="46.55262" lon="6.53338">
        <ele>398.6</ele>
        <time>2022-09-28T12:24:57Z</time>
      </trkpt>
      <trkpt lat="46.55265" lon="6.53337">
        <ele>398.7</ele>
        <time>2022-09-28T12:24:58Z</time>
      </trkpt>
      <trkpt lat="46.55269" lon="6.53336">
        <ele>398.7</ele>
        <time>2022-09-28T12:24:59Z</time>
      </trkpt>
      <trkpt lat="46.55272" lon="6.53334">
        <ele>398.7</ele>
        <time>2022-09-28T12:25:00Z</time>
      </trkpt>
      <trkpt lat="46.55273" lon="6.53333">
        <ele>398.7</ele>
        <time>2022-09-28T12:25:01Z</time>
      </trkpt>
      <trkpt lat="46.55275" lon="6.5333">
        <ele>398.6</ele>
        <time>2022-09-28T12:25:02Z</time>
      </trkpt>
      <trkpt lat="46.55279" lon="6.53327">
        <ele>398.6</ele>
        <time>2022-09-28T12:25:03Z</time>
      </trkpt>
      <trkpt lat="46.55281" lon="6.53324">
        <ele>398.5</ele>
        <time>2022-09-28T12:25:04Z</time>
      </trkpt>
      <trkpt lat="46.55284" lon="6.5332">
        <ele>398.5</ele>
        <time>2022-09-28T12:25:05Z</time>
      </trkpt>
      <trkpt lat="46.55285" lon="6.53316">
        <ele>398.4</ele>
        <time>2022-09-28T12:25:06Z</time>
      </trkpt>
      <trkpt lat="46.55287" lon="6.53313">
        <ele>398.4</ele>
        <time>2022-09-28T12:25:07Z</time>
      </trkpt>
      <trkpt lat="46.55288" lon="6.53311">
        <ele>398.4</ele>
        <time>2022-09-28T12:25:08Z</time>
      </trkpt>
      <trkpt lat="46.55291" lon="6.53308">
        <ele>398.3</ele>
        <time>2022-09-28T12:25:09Z</time>
      </trkpt>
      <trkpt lat="46.55294" lon="6.53305">
        <ele>398.2</ele>
        <time>2022-09-28T12:25:10Z</time>
      </trkpt>
      <trkpt lat="46.55295" lon="6.53301">
        <ele>398.2</ele>
        <time>2022-09-28T12:25:11Z</time>
      </trkpt>
      <trkpt lat="46.55296" lon="6.53299">
        <ele>398.2</ele>
        <time>2022-09-28T12:25:12Z</time>
      </trkpt>
      <trkpt lat="46.55299" lon="6.53294">
        <ele>398.1</ele>
        <time>2022-09-28T12:25:13Z</time>
      </trkpt>
      <trkpt lat="46.55301" lon="6.5329">
        <ele>398.1</ele>
        <time>2022-09-28T12:25:14Z</time>
      </trkpt>
      <trkpt lat="46.55301" lon="6.53287">
        <ele>398.1</ele>
        <time>2022-09-28T12:25:15Z</time>
      </trkpt>
      <trkpt lat="46.55301" lon="6.53282">
        <ele>398.1</ele>
        <time>2022-09-28T12:25:16Z</time>
      </trkpt>
      <trkpt lat="46.55301" lon="6.53281">
        <ele>398.1</ele>
        <time>2022-09-28T12:25:17Z</time>
      </trkpt>
      <trkpt lat="46.55301" lon="6.53276">
        <ele>398.1</ele>
        <time>2022-09-28T12:25:18Z</time>
      </trkpt>
      <trkpt lat="46.55301" lon="6.53275">
        <ele>398.1</ele>
        <time>2022-09-28T12:25:19Z</time>
      </trkpt>
      <trkpt lat="46.55303" lon="6.53269">
        <ele>398.1</ele>
        <time>2022-09-28T12:25:20Z</time>
      </trkpt>
      <trkpt lat="46.55303" lon="6.53264">
        <ele>398.1</ele>
        <time>2022-09-28T12:25:21Z</time>
      </trkpt>
      <trkpt lat="46.55304" lon="6.5326">
        <ele>398.2</ele>
        <time>2022-09-28T12:25:22Z</time>
      </trkpt>
      <trkpt lat="46.55303" lon="6.53256">
        <ele>398.2</ele>
        <time>2022-09-28T12:25:24Z</time>
      </trkpt>
      <trkpt lat="46.55303" lon="6.53252">
        <ele>398.3</ele>
        <time>2022-09-28T12:25:25Z</time>
      </trkpt>
      <trkpt lat="46.55303" lon="6.53247">
        <ele>398.4</ele>
        <time>2022-09-28T12:25:26Z</time>
      </trkpt>
      <trkpt lat="46.55305" lon="6.53239">
        <ele>398.5</ele>
        <time>2022-09-28T12:25:27Z</time>
      </trkpt>
      <trkpt lat="46.55306" lon="6.53235">
        <ele>398.6</ele>
        <time>2022-09-28T12:25:28Z</time>
      </trkpt>
      <trkpt lat="46.55306" lon="6.53231">
        <ele>398.7</ele>
        <time>2022-09-28T12:25:29Z</time>
      </trkpt>
      <trkpt lat="46.55306" lon="6.53225">
        <ele>398.8</ele>
        <time>2022-09-28T12:25:30Z</time>
      </trkpt>
      <trkpt lat="46.55307" lon="6.53222">
        <ele>398.9</ele>
        <time>2022-09-28T12:25:31Z</time>
      </trkpt>
      <trkpt lat="46.55307" lon="6.53218">
        <ele>399</ele>
        <time>2022-09-28T12:25:32Z</time>
      </trkpt>
      <trkpt lat="46.55308" lon="6.53213">
        <ele>399.1</ele>
        <time>2022-09-28T12:25:33Z</time>
      </trkpt>
      <trkpt lat="46.55308" lon="6.53212">
        <ele>399.2</ele>
        <time>2022-09-28T12:25:34Z</time>
      </trkpt>
      <trkpt lat="46.55309" lon="6.53206">
        <ele>399.4</ele>
        <time>2022-09-28T12:25:36Z</time>
      </trkpt>
      <trkpt lat="46.55309" lon="6.53203">
        <ele>399.5</ele>
        <time>2022-09-28T12:25:37Z</time>
      </trkpt>
      <trkpt lat="46.55309" lon="6.53202">
        <ele>399.6</ele>
        <time>2022-09-28T12:25:38Z</time>
      </trkpt>
      <trkpt lat="46.55311" lon="6.53197">
        <ele>399.8</ele>
        <time>2022-09-28T12:25:39Z</time>
      </trkpt>
      <trkpt lat="46.55311" lon="6.53195">
        <ele>399.8</ele>
        <time>2022-09-28T12:25:40Z</time>
      </trkpt>
      <trkpt lat="46.55313" lon="6.5319">
        <ele>400</ele>
        <time>2022-09-28T12:25:41Z</time>
      </trkpt>
      <trkpt lat="46.55313" lon="6.53188">
        <ele>400.1</ele>
        <time>2022-09-28T12:25:42Z</time>
      </trkpt>
      <trkpt lat="46.55315" lon="6.53185">
        <ele>400.3</ele>
        <time>2022-09-28T12:25:43Z</time>
      </trkpt>
      <trkpt lat="46.55316" lon="6.53183">
        <ele>400.4</ele>
        <time>2022-09-28T12:25:44Z</time>
      </trkpt>
      <trkpt lat="46.55317" lon="6.53178">
        <ele>400.6</ele>
        <time>2022-09-28T12:25:45Z</time>
      </trkpt>
      <trkpt lat="46.55317" lon="6.53176">
        <ele>400.7</ele>
        <time>2022-09-28T12:25:46Z</time>
      </trkpt>
      <trkpt lat="46.5532" lon="6.53173">
        <ele>400.9</ele>
        <time>2022-09-28T12:25:47Z</time>
      </trkpt>
      <trkpt lat="46.55321" lon="6.53172">
        <ele>400.9</ele>
        <time>2022-09-28T12:25:48Z</time>
      </trkpt>
      <trkpt lat="46.55322" lon="6.5317">
        <ele>401</ele>
        <time>2022-09-28T12:25:49Z</time>
      </trkpt>
      <trkpt lat="46.55323" lon="6.53169">
        <ele>401.1</ele>
        <time>2022-09-28T12:25:50Z</time>
      </trkpt>
      <trkpt lat="46.55325" lon="6.53168">
        <ele>401.2</ele>
        <time>2022-09-28T12:25:51Z</time>
      </trkpt>
      <trkpt lat="46.55326" lon="6.53167">
        <ele>401.3</ele>
        <time>2022-09-28T12:25:52Z</time>
      </trkpt>
      <trkpt lat="46.55327" lon="6.53166">
        <ele>401.4</ele>
        <time>2022-09-28T12:25:53Z</time>
      </trkpt>
      <trkpt lat="46.55328" lon="6.53165">
        <ele>401.5</ele>
        <time>2022-09-28T12:25:54Z</time>
      </trkpt>
      <trkpt lat="46.55329" lon="6.53164">
        <ele>401.6</ele>
        <time>2022-09-28T12:25:55Z</time>
      </trkpt>
      <trkpt lat="46.5533" lon="6.53162">
        <ele>401.7</ele>
        <time>2022-09-28T12:25:56Z</time>
      </trkpt>
      <trkpt lat="46.55332" lon="6.53161">
        <ele>401.8</ele>
        <time>2022-09-28T12:25:57Z</time>
      </trkpt>
      <trkpt lat="46.55334" lon="6.53159">
        <ele>401.9</ele>
        <time>2022-09-28T12:25:58Z</time>
      </trkpt>
      <trkpt lat="46.55335" lon="6.53158">
        <ele>402</ele>
        <time>2022-09-28T12:25:59Z</time>
      </trkpt>
      <trkpt lat="46.55338" lon="6.53156">
        <ele>402.2</ele>
        <time>2022-09-28T12:26:00Z</time>
      </trkpt>
      <trkpt lat="46.55338" lon="6.53156">
        <ele>402.2</ele>
        <time>2022-09-28T12:26:01Z</time>
      </trkpt>
      <trkpt lat="46.5534" lon="6.53155">
        <ele>402.3</ele>
        <time>2022-09-28T12:26:02Z</time>
      </trkpt>
      <trkpt lat="46.55342" lon="6.53154">
        <ele>402.5</ele>
        <time>2022-09-28T12:26:03Z</time>
      </trkpt>
      <trkpt lat="46.55344" lon="6.53152">
        <ele>402.6</ele>
        <time>2022-09-28T12:26:04Z</time>
      </trkpt>
      <trkpt lat="46.55345" lon="6.53152">
        <ele>402.7</ele>
        <time>2022-09-28T12:26:05Z</time>
      </trkpt>
      <trkpt lat="46.55347" lon="6.53149">
        <ele>402.9</ele>
        <time>2022-09-28T12:26:06Z</time>
      </trkpt>
      <trkpt lat="46.55348" lon="6.53148">
        <ele>403</ele>
        <time>2022-09-28T12:26:07Z</time>
      </trkpt>
      <trkpt lat="46.5535" lon="6.53146">
        <ele>403.1</ele>
        <time>2022-09-28T12:26:08Z</time>
      </trkpt>
      <trkpt lat="46.55351" lon="6.53145">
        <ele>403.2</ele>
        <time>2022-09-28T12:26:09Z</time>
      </trkpt>
      <trkpt lat="46.55353" lon="6.53143">
        <ele>403.3</ele>
        <time>2022-09-28T12:26:10Z</time>
      </trkpt>
      <trkpt lat="46.55354" lon="6.53142">
        <ele>403.4</ele>
        <time>2022-09-28T12:26:11Z</time>
      </trkpt>
      <trkpt lat="46.55355" lon="6.5314">
        <ele>403.5</ele>
        <time>2022-09-28T12:26:12Z</time>
      </trkpt>
      <trkpt lat="46.55357" lon="6.53138">
        <ele>403.6</ele>
        <time>2022-09-28T12:26:13Z</time>
      </trkpt>
      <trkpt lat="46.55359" lon="6.53136">
        <ele>403.7</ele>
        <time>2022-09-28T12:26:14Z</time>
      </trkpt>
      <trkpt lat="46.5536" lon="6.53135">
        <ele>403.8</ele>
        <time>2022-09-28T12:26:15Z</time>
      </trkpt>
      <trkpt lat="46.55362" lon="6.53132">
        <ele>403.9</ele>
        <time>2022-09-28T12:26:16Z</time>
      </trkpt>
      <trkpt lat="46.55363" lon="6.53131">
        <ele>404</ele>
        <time>2022-09-28T12:26:17Z</time>
      </trkpt>
      <trkpt lat="46.55363" lon="6.53129">
        <ele>404.1</ele>
        <time>2022-09-28T12:26:18Z</time>
      </trkpt>
      <trkpt lat="46.55366" lon="6.53126">
        <ele>404.3</ele>
        <time>2022-09-28T12:26:19Z</time>
      </trkpt>
      <trkpt lat="46.55367" lon="6.53124">
        <ele>404.4</ele>
        <time>2022-09-28T12:26:20Z</time>
      </trkpt>
      <trkpt lat="46.55368" lon="6.53122">
        <ele>404.4</ele>
        <time>2022-09-28T12:26:21Z</time>
      </trkpt>
      <trkpt lat="46.55369" lon="6.53121">
        <ele>404.5</ele>
        <time>2022-09-28T12:26:22Z</time>
      </trkpt>
      <trkpt lat="46.55369" lon="6.5312">
        <ele>404.5</ele>
        <time>2022-09-28T12:26:23Z</time>
      </trkpt>
      <trkpt lat="46.5537" lon="6.5312">
        <ele>404.6</ele>
        <time>2022-09-28T12:26:24Z</time>
      </trkpt>
      <trkpt lat="46.55371" lon="6.53119">
        <ele>404.6</ele>
        <time>2022-09-28T12:26:25Z</time>
      </trkpt>
      <trkpt lat="46.55371" lon="6.53118">
        <ele>404.7</ele>
        <time>2022-09-28T12:26:26Z</time>
      </trkpt>
      <trkpt lat="46.55372" lon="6.53117">
        <ele>404.7</ele>
        <time>2022-09-28T12:26:27Z</time>
      </trkpt>
      <trkpt lat="46.55372" lon="6.53116">
        <ele>404.7</ele>
        <time>2022-09-28T12:26:28Z</time>
      </trkpt>
      <trkpt lat="46.55372" lon="6.53115">
        <ele>404.8</ele>
        <time>2022-09-28T12:26:29Z</time>
      </trkpt>
      <trkpt lat="46.55373" lon="6.53115">
        <ele>404.8</ele>
        <time>2022-09-28T12:26:30Z</time>
      </trkpt>
      <trkpt lat="46.55373" lon="6.53114">
        <ele>404.8</ele>
        <time>2022-09-28T12:26:31Z</time>
      </trkpt>
      <trkpt lat="46.55374" lon="6.53113">
        <ele>404.9</ele>
        <time>2022-09-28T12:26:32Z</time>
      </trkpt>
      <trkpt lat="46.55374" lon="6.53112">
        <ele>404.9</ele>
        <time>2022-09-28T12:27:38Z</time>
      </trkpt>
      <trkpt lat="46.55374" lon="6.53111">
        <ele>404.9</ele>
        <time>2022-09-28T12:27:39Z</time>
      </trkpt>
      <trkpt lat="46.55375" lon="6.53111">
        <ele>404.9</ele>
        <time>2022-09-28T12:27:40Z</time>
      </trkpt>
      <trkpt lat="46.55375" lon="6.5311">
        <ele>405</ele>
        <time>2022-09-28T12:27:42Z</time>
      </trkpt>
      <trkpt lat="46.55375" lon="6.53109">
        <ele>405</ele>
        <time>2022-09-28T12:27:43Z</time>
      </trkpt>
      <trkpt lat="46.55376" lon="6.53108">
        <ele>405</ele>
        <time>2022-09-28T12:27:44Z</time>
      </trkpt>
      <trkpt lat="46.55376" lon="6.53107">
        <ele>405.1</ele>
        <time>2022-09-28T12:27:45Z</time>
      </trkpt>
      <trkpt lat="46.55377" lon="6.53107">
        <ele>405.1</ele>
        <time>2022-09-28T12:27:46Z</time>
      </trkpt>
      <trkpt lat="46.55378" lon="6.53103">
        <ele>405.2</ele>
        <time>2022-09-28T12:27:47Z</time>
      </trkpt>
      <trkpt lat="46.55379" lon="6.531">
        <ele>405.3</ele>
        <time>2022-09-28T12:27:48Z</time>
      </trkpt>
      <trkpt lat="46.5538" lon="6.53097">
        <ele>405.3</ele>
        <time>2022-09-28T12:27:49Z</time>
      </trkpt>
      <trkpt lat="46.55381" lon="6.53094">
        <ele>405.4</ele>
        <time>2022-09-28T12:27:50Z</time>
      </trkpt>
      <trkpt lat="46.55382" lon="6.53091">
        <ele>405.5</ele>
        <time>2022-09-28T12:27:51Z</time>
      </trkpt>
      <trkpt lat="46.55383" lon="6.53087">
        <ele>405.6</ele>
        <time>2022-09-28T12:27:52Z</time>
      </trkpt>
      <trkpt lat="46.55383" lon="6.53084">
        <ele>405.6</ele>
        <time>2022-09-28T12:27:53Z</time>
      </trkpt>
      <trkpt lat="46.55384" lon="6.53081">
        <ele>405.7</ele>
        <time>2022-09-28T12:27:54Z</time>
      </trkpt>
      <trkpt lat="46.55385" lon="6.53078">
        <ele>405.7</ele>
        <time>2022-09-28T12:27:55Z</time>
      </trkpt>
      <trkpt lat="46.55386" lon="6.53075">
        <ele>405.8</ele>
        <time>2022-09-28T12:27:56Z</time>
      </trkpt>
      <trkpt lat="46.55387" lon="6.53072">
        <ele>405.9</ele>
        <time>2022-09-28T12:28:40Z</time>
      </trkpt>
      <trkpt lat="46.55388" lon="6.53068">
        <ele>405.9</ele>
        <time>2022-09-28T12:28:41Z</time>
      </trkpt>
      <trkpt lat="46.5539" lon="6.53068">
        <ele>406</ele>
        <time>2022-09-28T12:28:42Z</time>
      </trkpt>
      <trkpt lat="46.55392" lon="6.53068">
        <ele>406</ele>
        <time>2022-09-28T12:28:43Z</time>
      </trkpt>
      <trkpt lat="46.55393" lon="6.53067">
        <ele>406.1</ele>
        <time>2022-09-28T12:28:44Z</time>
      </trkpt>
      <trkpt lat="46.55394" lon="6.53066">
        <ele>406.1</ele>
        <time>2022-09-28T12:28:45Z</time>
      </trkpt>
      <trkpt lat="46.55396" lon="6.53065">
        <ele>406.2</ele>
        <time>2022-09-28T12:28:46Z</time>
      </trkpt>
      <trkpt lat="46.55397" lon="6.53064">
        <ele>406.2</ele>
        <time>2022-09-28T12:28:47Z</time>
      </trkpt>
      <trkpt lat="46.55398" lon="6.53064">
        <ele>406.3</ele>
        <time>2022-09-28T12:28:48Z</time>
      </trkpt>
      <trkpt lat="46.554" lon="6.53062">
        <ele>406.4</ele>
        <time>2022-09-28T12:28:49Z</time>
      </trkpt>
      <trkpt lat="46.55402" lon="6.53062">
        <ele>406.4</ele>
        <time>2022-09-28T12:28:50Z</time>
      </trkpt>
      <trkpt lat="46.55406" lon="6.5306">
        <ele>406.6</ele>
        <time>2022-09-28T12:28:51Z</time>
      </trkpt>
      <trkpt lat="46.55408" lon="6.53056">
        <ele>406.9</ele>
        <time>2022-09-28T12:28:52Z</time>
      </trkpt>
      <trkpt lat="46.55409" lon="6.53053">
        <ele>407</ele>
        <time>2022-09-28T12:29:00Z</time>
      </trkpt>
      <trkpt lat="46.5541" lon="6.53051">
        <ele>407.1</ele>
        <time>2022-09-28T12:29:01Z</time>
      </trkpt>
      <trkpt lat="46.55413" lon="6.53049">
        <ele>407.3</ele>
        <time>2022-09-28T12:29:02Z</time>
      </trkpt>
      <trkpt lat="46.55413" lon="6.53049">
        <ele>407.4</ele>
        <time>2022-09-28T12:29:03Z</time>
      </trkpt>
      <trkpt lat="46.55417" lon="6.53048">
        <ele>407.6</ele>
        <time>2022-09-28T12:29:04Z</time>
      </trkpt>
      <trkpt lat="46.55422" lon="6.53046">
        <ele>408</ele>
        <time>2022-09-28T12:29:05Z</time>
      </trkpt>
      <trkpt lat="46.55425" lon="6.53046">
        <ele>408.2</ele>
        <time>2022-09-28T12:29:06Z</time>
      </trkpt>
      <trkpt lat="46.55427" lon="6.53045">
        <ele>408.4</ele>
        <time>2022-09-28T12:29:07Z</time>
      </trkpt>
      <trkpt lat="46.55429" lon="6.53044">
        <ele>408.4</ele>
        <time>2022-09-28T12:29:08Z</time>
      </trkpt>
      <trkpt lat="46.55431" lon="6.53044">
        <ele>408.6</ele>
        <time>2022-09-28T12:29:09Z</time>
      </trkpt>
      <trkpt lat="46.55434" lon="6.53043">
        <ele>408.8</ele>
        <time>2022-09-28T12:29:10Z</time>
      </trkpt>
      <trkpt lat="46.55435" lon="6.53043">
        <ele>408.8</ele>
        <time>2022-09-28T12:29:11Z</time>
      </trkpt>
      <trkpt lat="46.55438" lon="6.53042">
        <ele>409</ele>
        <time>2022-09-28T12:29:12Z</time>
      </trkpt>
      <trkpt lat="46.55439" lon="6.53042">
        <ele>409</ele>
        <time>2022-09-28T12:29:13Z</time>
      </trkpt>
      <trkpt lat="46.55441" lon="6.53041">
        <ele>409.1</ele>
        <time>2022-09-28T12:29:14Z</time>
      </trkpt>
      <trkpt lat="46.55443" lon="6.53041">
        <ele>409.2</ele>
        <time>2022-09-28T12:29:15Z</time>
      </trkpt>
      <trkpt lat="46.55508" lon="6.5299">
        <ele>410.9</ele>
        <time>2022-09-28T12:29:50Z</time>
      </trkpt>
      <trkpt lat="46.55511" lon="6.52987">
        <ele>411</ele>
        <time>2022-09-28T12:29:52Z</time>
      </trkpt>
      <trkpt lat="46.55512" lon="6.52986">
        <ele>411.1</ele>
        <time>2022-09-28T12:29:53Z</time>
      </trkpt>
      <trkpt lat="46.55515" lon="6.52982">
        <ele>411.2</ele>
        <time>2022-09-28T12:29:54Z</time>
      </trkpt>
      <trkpt lat="46.55516" lon="6.52981">
        <ele>411.3</ele>
        <time>2022-09-28T12:29:55Z</time>
      </trkpt>
      <trkpt lat="46.55518" lon="6.52978">
        <ele>411.4</ele>
        <time>2022-09-28T12:29:56Z</time>
      </trkpt>
      <trkpt lat="46.55519" lon="6.52977">
        <ele>411.4</ele>
        <time>2022-09-28T12:29:57Z</time>
      </trkpt>
      <trkpt lat="46.55519" lon="6.52976">
        <ele>411.5</ele>
        <time>2022-09-28T12:29:58Z</time>
      </trkpt>
      <trkpt lat="46.55519" lon="6.52975">
        <ele>411.5</ele>
        <time>2022-09-28T12:29:59Z</time>
      </trkpt>
      <trkpt lat="46.5552" lon="6.52973">
        <ele>411.6</ele>
        <time>2022-09-28T12:30:00Z</time>
      </trkpt>
      <trkpt lat="46.55522" lon="6.5297">
        <ele>411.7</ele>
        <time>2022-09-28T12:30:01Z</time>
      </trkpt>
      <trkpt lat="46.55522" lon="6.52969">
        <ele>411.7</ele>
        <time>2022-09-28T12:30:02Z</time>
      </trkpt>
      <trkpt lat="46.55523" lon="6.52967">
        <ele>411.8</ele>
        <time>2022-09-28T12:30:03Z</time>
      </trkpt>
      <trkpt lat="46.55524" lon="6.52966">
        <ele>411.9</ele>
        <time>2022-09-28T12:30:04Z</time>
      </trkpt>
      <trkpt lat="46.55524" lon="6.52957">
        <ele>412.3</ele>
        <time>2022-09-28T12:30:05Z</time>
      </trkpt>
      <trkpt lat="46.55523" lon="6.5295">
        <ele>412.7</ele>
        <time>2022-09-28T12:30:06Z</time>
      </trkpt>
      <trkpt lat="46.55523" lon="6.52944">
        <ele>413.1</ele>
        <time>2022-09-28T12:30:07Z</time>
      </trkpt>
      <trkpt lat="46.55523" lon="6.52937">
        <ele>413.5</ele>
        <time>2022-09-28T12:30:36Z</time>
      </trkpt>
      <trkpt lat="46.55522" lon="6.5293">
        <ele>413.9</ele>
        <time>2022-09-28T12:30:37Z</time>
      </trkpt>
      <trkpt lat="46.55522" lon="6.52923">
        <ele>414.4</ele>
        <time>2022-09-28T12:30:38Z</time>
      </trkpt>
      <trkpt lat="46.55522" lon="6.52924">
        <ele>414.4</ele>
        <time>2022-09-28T12:30:39Z</time>
      </trkpt>
      <trkpt lat="46.55522" lon="6.52923">
        <ele>414.5</ele>
        <time>2022-09-28T12:30:40Z</time>
      </trkpt>
      <trkpt lat="46.55521" lon="6.52922">
        <ele>414.5</ele>
        <time>2022-09-28T12:30:41Z</time>
      </trkpt>
      <trkpt lat="46.55521" lon="6.52921">
        <ele>414.6</ele>
        <time>2022-09-28T12:30:42Z</time>
      </trkpt>
      <trkpt lat="46.55521" lon="6.5292">
        <ele>414.6</ele>
        <time>2022-09-28T12:30:43Z</time>
      </trkpt>
      <trkpt lat="46.55521" lon="6.5292">
        <ele>414.7</ele>
        <time>2022-09-28T12:30:44Z</time>
      </trkpt>
      <trkpt lat="46.55521" lon="6.52919">
        <ele>414.7</ele>
        <time>2022-09-28T12:30:45Z</time>
      </trkpt>
      <trkpt lat="46.55523" lon="6.52915">
        <ele>415</ele>
        <time>2022-09-28T12:30:46Z</time>
      </trkpt>
      <trkpt lat="46.55525" lon="6.52912">
        <ele>415.3</ele>
        <time>2022-09-28T12:30:47Z</time>
      </trkpt>
      <trkpt lat="46.55527" lon="6.52908">
        <ele>415.3</ele>
        <time>2022-09-28T12:30:48Z</time>
      </trkpt>
      <trkpt lat="46.55529" lon="6.52905">
        <ele>415.4</ele>
        <time>2022-09-28T12:31:04Z</time>
      </trkpt>
      <trkpt lat="46.55531" lon="6.52901">
        <ele>415.5</ele>
        <time>2022-09-28T12:31:05Z</time>
      </trkpt>
      <trkpt lat="46.55533" lon="6.52898">
        <ele>415.5</ele>
        <time>2022-09-28T12:31:06Z</time>
      </trkpt>
      <trkpt lat="46.55536" lon="6.52897">
        <ele>415.5</ele>
        <time>2022-09-28T12:31:07Z</time>
      </trkpt>
      <trkpt lat="46.55537" lon="6.52897">
        <ele>415.6</ele>
        <time>2022-09-28T12:31:08Z</time>
      </trkpt>
      <trkpt lat="46.55537" lon="6.52896">
        <ele>415.6</ele>
        <time>2022-09-28T12:31:09Z</time>
      </trkpt>
      <trkpt lat="46.55537" lon="6.52894">
        <ele>415.6</ele>
        <time>2022-09-28T12:31:10Z</time>
      </trkpt>
      <trkpt lat="46.55538" lon="6.52893">
        <ele>415.6</ele>
        <time>2022-09-28T12:31:11Z</time>
      </trkpt>
      <trkpt lat="46.55538" lon="6.52892">
        <ele>415.6</ele>
        <time>2022-09-28T12:31:12Z</time>
      </trkpt>
      <trkpt lat="46.55539" lon="6.52891">
        <ele>415.6</ele>
        <time>2022-09-28T12:31:13Z</time>
      </trkpt>
      <trkpt lat="46.5554" lon="6.52891">
        <ele>415.6</ele>
        <time>2022-09-28T12:31:14Z</time>
      </trkpt>
      <trkpt lat="46.55541" lon="6.52891">
        <ele>415.6</ele>
        <time>2022-09-28T12:31:15Z</time>
      </trkpt>
      <trkpt lat="46.5555" lon="6.52883">
        <ele>415.7</ele>
        <time>2022-09-28T12:31:16Z</time>
      </trkpt>
      <trkpt lat="46.55559" lon="6.52876">
        <ele>415.7</ele>
        <time>2022-09-28T12:31:17Z</time>
      </trkpt>
      <trkpt lat="46.55568" lon="6.52869">
        <ele>415.4</ele>
        <time>2022-09-28T12:32:00Z</time>
      </trkpt>
      <trkpt lat="46.55576" lon="6.52862">
        <ele>415</ele>
        <time>2022-09-28T12:32:01Z</time>
      </trkpt>
      <trkpt lat="46.55579" lon="6.5286">
        <ele>414.9</ele>
        <time>2022-09-28T12:32:02Z</time>
      </trkpt>
      <trkpt lat="46.55583" lon="6.52857">
        <ele>414.7</ele>
        <time>2022-09-28T12:32:03Z</time>
      </trkpt>
      <trkpt lat="46.55586" lon="6.52853">
        <ele>414.5</ele>
        <time>2022-09-28T12:32:04Z</time>
      </trkpt>
      <trkpt lat="46.5559" lon="6.5285">
        <ele>414.3</ele>
        <time>2022-09-28T12:32:05Z</time>
      </trkpt>
      <trkpt lat="46.55593" lon="6.52847">
        <ele>414.1</ele>
        <time>2022-09-28T12:32:06Z</time>
      </trkpt>
      <trkpt lat="46.55596" lon="6.52842">
        <ele>413.9</ele>
        <time>2022-09-28T12:32:07Z</time>
      </trkpt>
      <trkpt lat="46.55599" lon="6.52838">
        <ele>413.7</ele>
        <time>2022-09-28T12:32:08Z</time>
      </trkpt>
      <trkpt lat="46.55603" lon="6.52834">
        <ele>413.5</ele>
        <time>2022-09-28T12:32:09Z</time>
      </trkpt>
      <trkpt lat="46.55606" lon="6.52829">
        <ele>413.4</ele>
        <time>2022-09-28T12:32:10Z</time>
      </trkpt>
      <trkpt lat="46.5561" lon="6.52826">
        <ele>413.2</ele>
        <time>2022-09-28T12:32:11Z</time>
      </trkpt>
      <trkpt lat="46.55613" lon="6.52822">
        <ele>413.1</ele>
        <time>2022-09-28T12:32:12Z</time>
      </trkpt>
      <trkpt lat="46.55616" lon="6.52819">
        <ele>413.1</ele>
        <time>2022-09-28T12:32:13Z</time>
      </trkpt>
      <trkpt lat="46.55618" lon="6.52817">
        <ele>413</ele>
        <time>2022-09-28T12:32:14Z</time>
      </trkpt>
      <trkpt lat="46.55621" lon="6.52816">
        <ele>413</ele>
        <time>2022-09-28T12:32:15Z</time>
      </trkpt>
      <trkpt lat="46.55627" lon="6.52812">
        <ele>412.9</ele>
        <time>2022-09-28T12:32:16Z</time>
      </trkpt>
      <trkpt lat="46.5563" lon="6.52808">
        <ele>412.8</ele>
        <time>2022-09-28T12:32:17Z</time>
      </trkpt>
      <trkpt lat="46.55631" lon="6.52804">
        <ele>412.8</ele>
        <time>2022-09-28T12:32:18Z</time>
      </trkpt>
      <trkpt lat="46.55634" lon="6.52802">
        <ele>412.8</ele>
        <time>2022-09-28T12:32:19Z</time>
      </trkpt>
      <trkpt lat="46.55636" lon="6.52799">
        <ele>412.8</ele>
        <time>2022-09-28T12:32:20Z</time>
      </trkpt>
      <trkpt lat="46.55639" lon="6.52797">
        <ele>412.9</ele>
        <time>2022-09-28T12:32:21Z</time>
      </trkpt>
      <trkpt lat="46.55642" lon="6.52794">
        <ele>412.9</ele>
        <time>2022-09-28T12:32:22Z</time>
      </trkpt>
      <trkpt lat="46.55645" lon="6.5279">
        <ele>413</ele>
        <time>2022-09-28T12:32:23Z</time>
      </trkpt>
      <trkpt lat="46.55646" lon="6.52788">
        <ele>413</ele>
        <time>2022-09-28T12:32:24Z</time>
      </trkpt>
      <trkpt lat="46.55648" lon="6.52786">
        <ele>413.1</ele>
        <time>2022-09-28T12:32:25Z</time>
      </trkpt>
      <trkpt lat="46.55651" lon="6.52783">
        <ele>413.2</ele>
        <time>2022-09-28T12:32:26Z</time>
      </trkpt>
      <trkpt lat="46.55653" lon="6.52782">
        <ele>413.2</ele>
        <time>2022-09-28T12:32:27Z</time>
      </trkpt>
      <trkpt lat="46.55656" lon="6.52779">
        <ele>413.4</ele>
        <time>2022-09-28T12:32:28Z</time>
      </trkpt>
      <trkpt lat="46.55657" lon="6.52778">
        <ele>413.4</ele>
        <time>2022-09-28T12:32:29Z</time>
      </trkpt>
      <trkpt lat="46.55659" lon="6.52778">
        <ele>413.5</ele>
        <time>2022-09-28T12:32:30Z</time>
      </trkpt>
      <trkpt lat="46.5566" lon="6.52777">
        <ele>413.5</ele>
        <time>2022-09-28T12:32:31Z</time>
      </trkpt>
      <trkpt lat="46.5566" lon="6.52777">
        <ele>413.6</ele>
        <time>2022-09-28T12:32:32Z</time>
      </trkpt>
      <trkpt lat="46.55661" lon="6.52776">
        <ele>413.6</ele>
        <time>2022-09-28T12:32:33Z</time>
      </trkpt>
      <trkpt lat="46.55661" lon="6.52776">
        <ele>413.6</ele>
        <time>2022-09-28T12:32:34Z</time>
      </trkpt>
      <trkpt lat="46.55661" lon="6.52775">
        <ele>413.6</ele>
        <time>2022-09-28T12:32:35Z</time>
      </trkpt>
      <trkpt lat="46.55662" lon="6.52775">
        <ele>413.6</ele>
        <time>2022-09-28T12:32:36Z</time>
      </trkpt>
      <trkpt lat="46.55662" lon="6.52775">
        <ele>413.7</ele>
        <time>2022-09-28T12:32:37Z</time>
      </trkpt>
      <trkpt lat="46.55662" lon="6.52774">
        <ele>413.7</ele>
        <time>2022-09-28T12:32:38Z</time>
      </trkpt>
      <trkpt lat="46.55663" lon="6.52774">
        <ele>413.7</ele>
        <time>2022-09-28T12:32:39Z</time>
      </trkpt>
      <trkpt lat="46.55663" lon="6.52774">
        <ele>413.7</ele>
        <time>2022-09-28T12:32:40Z</time>
      </trkpt>
      <trkpt lat="46.55664" lon="6.52773">
        <ele>413.8</ele>
        <time>2022-09-28T12:32:41Z</time>
      </trkpt>
      <trkpt lat="46.55665" lon="6.52772">
        <ele>413.8</ele>
        <time>2022-09-28T12:32:42Z</time>
      </trkpt>
      <trkpt lat="46.55666" lon="6.52772">
        <ele>413.9</ele>
        <time>2022-09-28T12:32:43Z</time>
      </trkpt>
      <trkpt lat="46.55666" lon="6.52771">
        <ele>413.9</ele>
        <time>2022-09-28T12:32:44Z</time>
      </trkpt>
      <trkpt lat="46.55667" lon="6.5277">
        <ele>414</ele>
        <time>2022-09-28T12:32:45Z</time>
      </trkpt>
      <trkpt lat="46.55667" lon="6.52769">
        <ele>414</ele>
        <time>2022-09-28T12:32:46Z</time>
      </trkpt>
      <trkpt lat="46.55668" lon="6.52769">
        <ele>414.1</ele>
        <time>2022-09-28T12:32:47Z</time>
      </trkpt>
      <trkpt lat="46.55669" lon="6.52768">
        <ele>414.1</ele>
        <time>2022-09-28T12:32:48Z</time>
      </trkpt>
      <trkpt lat="46.55671" lon="6.52767">
        <ele>414.2</ele>
        <time>2022-09-28T12:32:49Z</time>
      </trkpt>
      <trkpt lat="46.55671" lon="6.52766">
        <ele>414.3</ele>
        <time>2022-09-28T12:32:50Z</time>
      </trkpt>
      <trkpt lat="46.55672" lon="6.52765">
        <ele>414.3</ele>
        <time>2022-09-28T12:32:51Z</time>
      </trkpt>
      <trkpt lat="46.55672" lon="6.52764">
        <ele>414.4</ele>
        <time>2022-09-28T12:32:52Z</time>
      </trkpt>
      <trkpt lat="46.55673" lon="6.52763">
        <ele>414.4</ele>
        <time>2022-09-28T12:32:53Z</time>
      </trkpt>
      <trkpt lat="46.55673" lon="6.52763">
        <ele>414.4</ele>
        <time>2022-09-28T12:32:54Z</time>
      </trkpt>
      <trkpt lat="46.55674" lon="6.52763">
        <ele>414.5</ele>
        <time>2022-09-28T12:32:55Z</time>
      </trkpt>
      <trkpt lat="46.55675" lon="6.52763">
        <ele>414.6</ele>
        <time>2022-09-28T12:32:56Z</time>
      </trkpt>
      <trkpt lat="46.55676" lon="6.52762">
        <ele>414.6</ele>
        <time>2022-09-28T12:32:57Z</time>
      </trkpt>
      <trkpt lat="46.55677" lon="6.52761">
        <ele>414.7</ele>
        <time>2022-09-28T12:32:58Z</time>
      </trkpt>
      <trkpt lat="46.55678" lon="6.52761">
        <ele>414.7</ele>
        <time>2022-09-28T12:32:59Z</time>
      </trkpt>
      <trkpt lat="46.55678" lon="6.5276">
        <ele>414.8</ele>
        <time>2022-09-28T12:33:00Z</time>
      </trkpt>
      <trkpt lat="46.55679" lon="6.5276">
        <ele>414.8</ele>
        <time>2022-09-28T12:33:01Z</time>
      </trkpt>
      <trkpt lat="46.55679" lon="6.5276">
        <ele>414.8</ele>
        <time>2022-09-28T12:33:02Z</time>
      </trkpt>
      <trkpt lat="46.5568" lon="6.52759">
        <ele>414.9</ele>
        <time>2022-09-28T12:33:03Z</time>
      </trkpt>
      <trkpt lat="46.55682" lon="6.52758">
        <ele>415</ele>
        <time>2022-09-28T12:33:04Z</time>
      </trkpt>
      <trkpt lat="46.55683" lon="6.52758">
        <ele>415.1</ele>
        <time>2022-09-28T12:33:05Z</time>
      </trkpt>
      <trkpt lat="46.55684" lon="6.52757">
        <ele>415.1</ele>
        <time>2022-09-28T12:33:06Z</time>
      </trkpt>
      <trkpt lat="46.55685" lon="6.52756">
        <ele>415.2</ele>
        <time>2022-09-28T12:33:07Z</time>
      </trkpt>
      <trkpt lat="46.55686" lon="6.52755">
        <ele>415.3</ele>
        <time>2022-09-28T12:33:08Z</time>
      </trkpt>
      <trkpt lat="46.55687" lon="6.52754">
        <ele>415.3</ele>
        <time>2022-09-28T12:33:09Z</time>
      </trkpt>
      <trkpt lat="46.55688" lon="6.52753">
        <ele>415.4</ele>
        <time>2022-09-28T12:33:10Z</time>
      </trkpt>
      <trkpt lat="46.55689" lon="6.52753">
        <ele>415.4</ele>
        <time>2022-09-28T12:33:11Z</time>
      </trkpt>
      <trkpt lat="46.55689" lon="6.52752">
        <ele>415.5</ele>
        <time>2022-09-28T12:33:12Z</time>
      </trkpt>
      <trkpt lat="46.55691" lon="6.52752">
        <ele>415.5</ele>
        <time>2022-09-28T12:33:13Z</time>
      </trkpt>
      <trkpt lat="46.55692" lon="6.52751">
        <ele>415.6</ele>
        <time>2022-09-28T12:33:14Z</time>
      </trkpt>
      <trkpt lat="46.55693" lon="6.5275">
        <ele>415.6</ele>
        <time>2022-09-28T12:33:15Z</time>
      </trkpt>
      <trkpt lat="46.55694" lon="6.5275">
        <ele>415.7</ele>
        <time>2022-09-28T12:33:16Z</time>
      </trkpt>
      <trkpt lat="46.55695" lon="6.52749">
        <ele>415.7</ele>
        <time>2022-09-28T12:33:17Z</time>
      </trkpt>
      <trkpt lat="46.55696" lon="6.52748">
        <ele>415.7</ele>
        <time>2022-09-28T12:33:18Z</time>
      </trkpt>
      <trkpt lat="46.55696" lon="6.52747">
        <ele>415.8</ele>
        <time>2022-09-28T12:33:19Z</time>
      </trkpt>
      <trkpt lat="46.55698" lon="6.52745">
        <ele>415.8</ele>
        <time>2022-09-28T12:33:20Z</time>
      </trkpt>
      <trkpt lat="46.55699" lon="6.52744">
        <ele>415.8</ele>
        <time>2022-09-28T12:33:21Z</time>
      </trkpt>
      <trkpt lat="46.55699" lon="6.52744">
        <ele>415.9</ele>
        <time>2022-09-28T12:33:22Z</time>
      </trkpt>
      <trkpt lat="46.55701" lon="6.52742">
        <ele>415.9</ele>
        <time>2022-09-28T12:33:23Z</time>
      </trkpt>
      <trkpt lat="46.55702" lon="6.52741">
        <ele>415.9</ele>
        <time>2022-09-28T12:33:24Z</time>
      </trkpt>
      <trkpt lat="46.55703" lon="6.5274">
        <ele>415.9</ele>
        <time>2022-09-28T12:33:25Z</time>
      </trkpt>
      <trkpt lat="46.55704" lon="6.52739">
        <ele>415.9</ele>
        <time>2022-09-28T12:33:26Z</time>
      </trkpt>
      <trkpt lat="46.55704" lon="6.52736">
        <ele>415.9</ele>
        <time>2022-09-28T12:33:27Z</time>
      </trkpt>
      <trkpt lat="46.55705" lon="6.52735">
        <ele>415.9</ele>
        <time>2022-09-28T12:33:28Z</time>
      </trkpt>
      <trkpt lat="46.55707" lon="6.52734">
        <ele>416</ele>
        <time>2022-09-28T12:33:29Z</time>
      </trkpt>
      <trkpt lat="46.55708" lon="6.52733">
        <ele>416</ele>
        <time>2022-09-28T12:33:30Z</time>
      </trkpt>
      <trkpt lat="46.55709" lon="6.52731">
        <ele>416</ele>
        <time>2022-09-28T12:33:31Z</time>
      </trkpt>
      <trkpt lat="46.5571" lon="6.52731">
        <ele>415.9</ele>
        <time>2022-09-28T12:33:32Z</time>
      </trkpt>
      <trkpt lat="46.55712" lon="6.52729">
        <ele>415.9</ele>
        <time>2022-09-28T12:33:33Z</time>
      </trkpt>
      <trkpt lat="46.55713" lon="6.52728">
        <ele>415.9</ele>
        <time>2022-09-28T12:33:34Z</time>
      </trkpt>
      <trkpt lat="46.55714" lon="6.52727">
        <ele>415.9</ele>
        <time>2022-09-28T12:33:35Z</time>
      </trkpt>
      <trkpt lat="46.55716" lon="6.52726">
        <ele>415.9</ele>
        <time>2022-09-28T12:33:36Z</time>
      </trkpt>
      <trkpt lat="46.55717" lon="6.52724">
        <ele>415.9</ele>
        <time>2022-09-28T12:33:37Z</time>
      </trkpt>
      <trkpt lat="46.55717" lon="6.52724">
        <ele>415.9</ele>
        <time>2022-09-28T12:33:38Z</time>
      </trkpt>
      <trkpt lat="46.55719" lon="6.52723">
        <ele>415.9</ele>
        <time>2022-09-28T12:33:39Z</time>
      </trkpt>
      <trkpt lat="46.5572" lon="6.52722">
        <ele>415.9</ele>
        <time>2022-09-28T12:33:40Z</time>
      </trkpt>
      <trkpt lat="46.55721" lon="6.52721">
        <ele>415.9</ele>
        <time>2022-09-28T12:33:41Z</time>
      </trkpt>
      <trkpt lat="46.55722" lon="6.5272">
        <ele>415.9</ele>
        <time>2022-09-28T12:33:42Z</time>
      </trkpt>
      <trkpt lat="46.55723" lon="6.52719">
        <ele>415.9</ele>
        <time>2022-09-28T12:33:43Z</time>
      </trkpt>
      <trkpt lat="46.55724" lon="6.52718">
        <ele>415.9</ele>
        <time>2022-09-28T12:33:44Z</time>
      </trkpt>
      <trkpt lat="46.55725" lon="6.52717">
        <ele>415.9</ele>
        <time>2022-09-28T12:33:46Z</time>
      </trkpt>
      <trkpt lat="46.55726" lon="6.52716">
        <ele>415.9</ele>
        <time>2022-09-28T12:33:47Z</time>
      </trkpt>
      <trkpt lat="46.55728" lon="6.52715">
        <ele>415.9</ele>
        <time>2022-09-28T12:33:48Z</time>
      </trkpt>
      <trkpt lat="46.55729" lon="6.52714">
        <ele>415.9</ele>
        <time>2022-09-28T12:34:07Z</time>
      </trkpt>
      <trkpt lat="46.5573" lon="6.52713">
        <ele>415.9</ele>
        <time>2022-09-28T12:34:08Z</time>
      </trkpt>
      <trkpt lat="46.55731" lon="6.52712">
        <ele>416</ele>
        <time>2022-09-28T12:34:09Z</time>
      </trkpt>
      <trkpt lat="46.55732" lon="6.52711">
        <ele>416</ele>
        <time>2022-09-28T12:34:10Z</time>
      </trkpt>
      <trkpt lat="46.55733" lon="6.52711">
        <ele>416</ele>
        <time>2022-09-28T12:34:11Z</time>
      </trkpt>
      <trkpt lat="46.55733" lon="6.52711">
        <ele>416</ele>
        <time>2022-09-28T12:34:12Z</time>
      </trkpt>
      <trkpt lat="46.55733" lon="6.5271">
        <ele>416</ele>
        <time>2022-09-28T12:34:13Z</time>
      </trkpt>
      <trkpt lat="46.55735" lon="6.5271">
        <ele>416</ele>
        <time>2022-09-28T12:34:14Z</time>
      </trkpt>
      <trkpt lat="46.55736" lon="6.52709">
        <ele>416</ele>
        <time>2022-09-28T12:34:15Z</time>
      </trkpt>
      <trkpt lat="46.55736" lon="6.52709">
        <ele>416</ele>
        <time>2022-09-28T12:34:16Z</time>
      </trkpt>
      <trkpt lat="46.55736" lon="6.52708">
        <ele>416</ele>
        <time>2022-09-28T12:34:17Z</time>
      </trkpt>
      <trkpt lat="46.55736" lon="6.52707">
        <ele>416</ele>
        <time>2022-09-28T12:34:18Z</time>
      </trkpt>
      <trkpt lat="46.55737" lon="6.52707">
        <ele>416</ele>
        <time>2022-09-28T12:34:19Z</time>
      </trkpt>
      <trkpt lat="46.55739" lon="6.52705">
        <ele>416.1</ele>
        <time>2022-09-28T12:34:20Z</time>
      </trkpt>
      <trkpt lat="46.55739" lon="6.52704">
        <ele>416.1</ele>
        <time>2022-09-28T12:34:21Z</time>
      </trkpt>
      <trkpt lat="46.5574" lon="6.52704">
        <ele>416.1</ele>
        <time>2022-09-28T12:34:22Z</time>
      </trkpt>
      <trkpt lat="46.5574" lon="6.52703">
        <ele>416.1</ele>
        <time>2022-09-28T12:34:23Z</time>
      </trkpt>
      <trkpt lat="46.55741" lon="6.52702">
        <ele>416.1</ele>
        <time>2022-09-28T12:34:24Z</time>
      </trkpt>
      <trkpt lat="46.55742" lon="6.52701">
        <ele>416.1</ele>
        <time>2022-09-28T12:34:25Z</time>
      </trkpt>
      <trkpt lat="46.55743" lon="6.527">
        <ele>416.1</ele>
        <time>2022-09-28T12:34:26Z</time>
      </trkpt>
      <trkpt lat="46.55744" lon="6.52699">
        <ele>416.2</ele>
        <time>2022-09-28T12:34:27Z</time>
      </trkpt>
      <trkpt lat="46.55746" lon="6.52698">
        <ele>416.2</ele>
        <time>2022-09-28T12:34:28Z</time>
      </trkpt>
      <trkpt lat="46.55747" lon="6.52697">
        <ele>416.2</ele>
        <time>2022-09-28T12:34:29Z</time>
      </trkpt>
      <trkpt lat="46.55748" lon="6.52696">
        <ele>416.2</ele>
        <time>2022-09-28T12:34:30Z</time>
      </trkpt>
      <trkpt lat="46.55749" lon="6.52695">
        <ele>416.2</ele>
        <time>2022-09-28T12:34:31Z</time>
      </trkpt>
      <trkpt lat="46.5575" lon="6.52694">
        <ele>416.2</ele>
        <time>2022-09-28T12:34:32Z</time>
      </trkpt>
      <trkpt lat="46.55751" lon="6.52693">
        <ele>416.3</ele>
        <time>2022-09-28T12:34:33Z</time>
      </trkpt>
      <trkpt lat="46.55752" lon="6.52692">
        <ele>416.3</ele>
        <time>2022-09-28T12:34:34Z</time>
      </trkpt>
      <trkpt lat="46.55753" lon="6.52691">
        <ele>416.3</ele>
        <time>2022-09-28T12:34:35Z</time>
      </trkpt>
      <trkpt lat="46.55754" lon="6.5269">
        <ele>416.3</ele>
        <time>2022-09-28T12:34:36Z</time>
      </trkpt>
      <trkpt lat="46.55755" lon="6.52689">
        <ele>416.3</ele>
        <time>2022-09-28T12:34:37Z</time>
      </trkpt>
      <trkpt lat="46.55756" lon="6.52688">
        <ele>416.3</ele>
        <time>2022-09-28T12:34:38Z</time>
      </trkpt>
      <trkpt lat="46.55757" lon="6.52687">
        <ele>416.3</ele>
        <time>2022-09-28T12:34:39Z</time>
      </trkpt>
      <trkpt lat="46.55758" lon="6.52686">
        <ele>416.3</ele>
        <time>2022-09-28T12:34:40Z</time>
      </trkpt>
      <trkpt lat="46.55759" lon="6.52685">
        <ele>416.3</ele>
        <time>2022-09-28T12:34:41Z</time>
      </trkpt>
      <trkpt lat="46.5576" lon="6.52685">
        <ele>416.4</ele>
        <time>2022-09-28T12:34:42Z</time>
      </trkpt>
      <trkpt lat="46.55762" lon="6.52684">
        <ele>416.4</ele>
        <time>2022-09-28T12:34:43Z</time>
      </trkpt>
      <trkpt lat="46.55765" lon="6.52682">
        <ele>416.4</ele>
        <time>2022-09-28T12:34:44Z</time>
      </trkpt>
      <trkpt lat="46.55767" lon="6.52681">
        <ele>416.4</ele>
        <time>2022-09-28T12:34:45Z</time>
      </trkpt>
      <trkpt lat="46.55769" lon="6.5268">
        <ele>416.4</ele>
        <time>2022-09-28T12:34:46Z</time>
      </trkpt>
      <trkpt lat="46.5577" lon="6.52679">
        <ele>416.3</ele>
        <time>2022-09-28T12:34:47Z</time>
      </trkpt>
      <trkpt lat="46.55771" lon="6.52679">
        <ele>416.3</ele>
        <time>2022-09-28T12:34:48Z</time>
      </trkpt>
      <trkpt lat="46.55773" lon="6.52678">
        <ele>416.3</ele>
        <time>2022-09-28T12:34:49Z</time>
      </trkpt>
      <trkpt lat="46.55774" lon="6.52677">
        <ele>416.2</ele>
        <time>2022-09-28T12:34:50Z</time>
      </trkpt>
      <trkpt lat="46.55775" lon="6.52676">
        <ele>416.2</ele>
        <time>2022-09-28T12:34:51Z</time>
      </trkpt>
      <trkpt lat="46.55777" lon="6.52675">
        <ele>416.2</ele>
        <time>2022-09-28T12:34:52Z</time>
      </trkpt>
      <trkpt lat="46.55778" lon="6.52674">
        <ele>416.1</ele>
        <time>2022-09-28T12:34:53Z</time>
      </trkpt>
      <trkpt lat="46.55779" lon="6.52673">
        <ele>416.1</ele>
        <time>2022-09-28T12:34:54Z</time>
      </trkpt>
      <trkpt lat="46.55781" lon="6.52671">
        <ele>416</ele>
        <time>2022-09-28T12:34:55Z</time>
      </trkpt>
      <trkpt lat="46.55782" lon="6.52669">
        <ele>415.9</ele>
        <time>2022-09-28T12:34:56Z</time>
      </trkpt>
      <trkpt lat="46.55783" lon="6.52668">
        <ele>415.9</ele>
        <time>2022-09-28T12:34:57Z</time>
      </trkpt>
      <trkpt lat="46.55784" lon="6.52668">
        <ele>415.9</ele>
        <time>2022-09-28T12:34:58Z</time>
      </trkpt>
      <trkpt lat="46.55787" lon="6.52668">
        <ele>415.8</ele>
        <time>2022-09-28T12:34:59Z</time>
      </trkpt>
      <trkpt lat="46.55787" lon="6.52667">
        <ele>415.7</ele>
        <time>2022-09-28T12:35:00Z</time>
      </trkpt>
      <trkpt lat="46.55788" lon="6.52667">
        <ele>415.7</ele>
        <time>2022-09-28T12:35:01Z</time>
      </trkpt>
      <trkpt lat="46.5579" lon="6.52666">
        <ele>415.6</ele>
        <time>2022-09-28T12:35:02Z</time>
      </trkpt>
      <trkpt lat="46.55791" lon="6.52665">
        <ele>415.6</ele>
        <time>2022-09-28T12:35:03Z</time>
      </trkpt>
      <trkpt lat="46.55793" lon="6.52665">
        <ele>415.5</ele>
        <time>2022-09-28T12:35:04Z</time>
      </trkpt>
      <trkpt lat="46.55794" lon="6.52663">
        <ele>415.5</ele>
        <time>2022-09-28T12:35:05Z</time>
      </trkpt>
      <trkpt lat="46.55795" lon="6.52663">
        <ele>415.4</ele>
        <time>2022-09-28T12:35:06Z</time>
      </trkpt>
      <trkpt lat="46.55797" lon="6.52661">
        <ele>415.3</ele>
        <time>2022-09-28T12:35:07Z</time>
      </trkpt>
      <trkpt lat="46.55798" lon="6.5266">
        <ele>415.3</ele>
        <time>2022-09-28T12:35:08Z</time>
      </trkpt>
      <trkpt lat="46.55798" lon="6.5266">
        <ele>415.2</ele>
        <time>2022-09-28T12:35:09Z</time>
      </trkpt>
      <trkpt lat="46.55799" lon="6.52658">
        <ele>415.2</ele>
        <time>2022-09-28T12:35:10Z</time>
      </trkpt>
      <trkpt lat="46.55801" lon="6.52657">
        <ele>415.1</ele>
        <time>2022-09-28T12:35:11Z</time>
      </trkpt>
      <trkpt lat="46.55801" lon="6.52657">
        <ele>415.1</ele>
        <time>2022-09-28T12:35:12Z</time>
      </trkpt>
      <trkpt lat="46.55803" lon="6.52654">
        <ele>415</ele>
        <time>2022-09-28T12:35:13Z</time>
      </trkpt>
      <trkpt lat="46.55803" lon="6.52654">
        <ele>415</ele>
        <time>2022-09-28T12:35:14Z</time>
      </trkpt>
      <trkpt lat="46.55805" lon="6.52652">
        <ele>414.9</ele>
        <time>2022-09-28T12:35:15Z</time>
      </trkpt>
      <trkpt lat="46.55806" lon="6.52652">
        <ele>414.8</ele>
        <time>2022-09-28T12:35:16Z</time>
      </trkpt>
      <trkpt lat="46.55807" lon="6.52652">
        <ele>414.8</ele>
        <time>2022-09-28T12:35:17Z</time>
      </trkpt>
      <trkpt lat="46.55808" lon="6.52652">
        <ele>414.7</ele>
        <time>2022-09-28T12:35:18Z</time>
      </trkpt>
      <trkpt lat="46.55809" lon="6.5265">
        <ele>414.7</ele>
        <time>2022-09-28T12:35:19Z</time>
      </trkpt>
      <trkpt lat="46.5581" lon="6.52649">
        <ele>414.6</ele>
        <time>2022-09-28T12:35:20Z</time>
      </trkpt>
      <trkpt lat="46.55811" lon="6.52649">
        <ele>414.6</ele>
        <time>2022-09-28T12:35:21Z</time>
      </trkpt>
      <trkpt lat="46.55813" lon="6.52648">
        <ele>414.5</ele>
        <time>2022-09-28T12:35:22Z</time>
      </trkpt>
      <trkpt lat="46.55814" lon="6.52648">
        <ele>414.5</ele>
        <time>2022-09-28T12:35:23Z</time>
      </trkpt>
      <trkpt lat="46.55816" lon="6.52647">
        <ele>414.4</ele>
        <time>2022-09-28T12:35:24Z</time>
      </trkpt>
      <trkpt lat="46.55817" lon="6.52646">
        <ele>414.4</ele>
        <time>2022-09-28T12:35:25Z</time>
      </trkpt>
      <trkpt lat="46.55819" lon="6.52645">
        <ele>414.3</ele>
        <time>2022-09-28T12:35:26Z</time>
      </trkpt>
      <trkpt lat="46.5582" lon="6.52644">
        <ele>414.3</ele>
        <time>2022-09-28T12:35:27Z</time>
      </trkpt>
      <trkpt lat="46.55822" lon="6.52643">
        <ele>414.3</ele>
        <time>2022-09-28T12:35:28Z</time>
      </trkpt>
      <trkpt lat="46.55823" lon="6.52642">
        <ele>414.2</ele>
        <time>2022-09-28T12:35:29Z</time>
      </trkpt>
      <trkpt lat="46.55825" lon="6.5264">
        <ele>414.2</ele>
        <time>2022-09-28T12:35:30Z</time>
      </trkpt>
      <trkpt lat="46.55826" lon="6.52639">
        <ele>414.1</ele>
        <time>2022-09-28T12:35:31Z</time>
      </trkpt>
      <trkpt lat="46.55827" lon="6.52638">
        <ele>414.1</ele>
        <time>2022-09-28T12:35:32Z</time>
      </trkpt>
      <trkpt lat="46.55828" lon="6.52638">
        <ele>414.1</ele>
        <time>2022-09-28T12:35:33Z</time>
      </trkpt>
      <trkpt lat="46.55829" lon="6.52637">
        <ele>414.1</ele>
        <time>2022-09-28T12:35:34Z</time>
      </trkpt>
      <trkpt lat="46.55831" lon="6.52636">
        <ele>414</ele>
        <time>2022-09-28T12:35:35Z</time>
      </trkpt>
      <trkpt lat="46.55832" lon="6.52636">
        <ele>414</ele>
        <time>2022-09-28T12:35:36Z</time>
      </trkpt>
      <trkpt lat="46.55834" lon="6.52635">
        <ele>414</ele>
        <time>2022-09-28T12:35:37Z</time>
      </trkpt>
      <trkpt lat="46.55835" lon="6.52635">
        <ele>414</ele>
        <time>2022-09-28T12:35:38Z</time>
      </trkpt>
      <trkpt lat="46.55836" lon="6.52634">
        <ele>413.9</ele>
        <time>2022-09-28T12:35:39Z</time>
      </trkpt>
      <trkpt lat="46.55838" lon="6.52634">
        <ele>413.9</ele>
        <time>2022-09-28T12:35:40Z</time>
      </trkpt>
      <trkpt lat="46.55839" lon="6.52634">
        <ele>413.9</ele>
        <time>2022-09-28T12:35:41Z</time>
      </trkpt>
      <trkpt lat="46.5584" lon="6.52634">
        <ele>413.9</ele>
        <time>2022-09-28T12:35:42Z</time>
      </trkpt>
      <trkpt lat="46.55841" lon="6.52633">
        <ele>413.9</ele>
        <time>2022-09-28T12:35:43Z</time>
      </trkpt>
      <trkpt lat="46.55842" lon="6.52633">
        <ele>413.8</ele>
        <time>2022-09-28T12:35:44Z</time>
      </trkpt>
      <trkpt lat="46.55843" lon="6.52633">
        <ele>413.8</ele>
        <time>2022-09-28T12:35:45Z</time>
      </trkpt>
      <trkpt lat="46.55845" lon="6.52633">
        <ele>413.8</ele>
        <time>2022-09-28T12:35:46Z</time>
      </trkpt>
      <trkpt lat="46.55846" lon="6.52632">
        <ele>413.8</ele>
        <time>2022-09-28T12:35:47Z</time>
      </trkpt>
      <trkpt lat="46.55847" lon="6.52632">
        <ele>413.8</ele>
        <time>2022-09-28T12:35:48Z</time>
      </trkpt>
      <trkpt lat="46.55849" lon="6.52632">
        <ele>413.7</ele>
        <time>2022-09-28T12:35:49Z</time>
      </trkpt>
      <trkpt lat="46.55851" lon="6.52631">
        <ele>413.7</ele>
        <time>2022-09-28T12:35:50Z</time>
      </trkpt>
      <trkpt lat="46.55852" lon="6.52631">
        <ele>413.7</ele>
        <time>2022-09-28T12:35:51Z</time>
      </trkpt>
      <trkpt lat="46.55853" lon="6.5263">
        <ele>413.6</ele>
        <time>2022-09-28T12:35:52Z</time>
      </trkpt>
      <trkpt lat="46.55854" lon="6.5263">
        <ele>413.6</ele>
        <time>2022-09-28T12:35:54Z</time>
      </trkpt>
      <trkpt lat="46.55857" lon="6.52629">
        <ele>413.6</ele>
        <time>2022-09-28T12:35:55Z</time>
      </trkpt>
      <trkpt lat="46.55858" lon="6.52628">
        <ele>413.6</ele>
        <time>2022-09-28T12:35:56Z</time>
      </trkpt>
      <trkpt lat="46.55859" lon="6.52628">
        <ele>413.5</ele>
        <time>2022-09-28T12:35:58Z</time>
      </trkpt>
      <trkpt lat="46.5586" lon="6.52626">
        <ele>413.5</ele>
        <time>2022-09-28T12:35:59Z</time>
      </trkpt>
      <trkpt lat="46.55861" lon="6.52625">
        <ele>413.5</ele>
        <time>2022-09-28T12:36:00Z</time>
      </trkpt>
      <trkpt lat="46.55862" lon="6.52626">
        <ele>413.4</ele>
        <time>2022-09-28T12:36:02Z</time>
      </trkpt>
      <trkpt lat="46.55863" lon="6.52626">
        <ele>413.4</ele>
        <time>2022-09-28T12:36:03Z</time>
      </trkpt>
      <trkpt lat="46.55864" lon="6.52625">
        <ele>413.4</ele>
        <time>2022-09-28T12:36:04Z</time>
      </trkpt>
      <trkpt lat="46.55865" lon="6.52625">
        <ele>413.4</ele>
        <time>2022-09-28T12:36:05Z</time>
      </trkpt>
      <trkpt lat="46.55867" lon="6.52625">
        <ele>413.3</ele>
        <time>2022-09-28T12:36:06Z</time>
      </trkpt>
      <trkpt lat="46.55868" lon="6.52625">
        <ele>413.3</ele>
        <time>2022-09-28T12:36:08Z</time>
      </trkpt>
      <trkpt lat="46.55869" lon="6.52625">
        <ele>413.3</ele>
        <time>2022-09-28T12:36:09Z</time>
      </trkpt>
      <trkpt lat="46.5587" lon="6.52625">
        <ele>413.2</ele>
        <time>2022-09-28T12:36:10Z</time>
      </trkpt>
      <trkpt lat="46.55871" lon="6.52625">
        <ele>413.2</ele>
        <time>2022-09-28T12:36:11Z</time>
      </trkpt>
      <trkpt lat="46.55872" lon="6.52625">
        <ele>413.2</ele>
        <time>2022-09-28T12:36:12Z</time>
      </trkpt>
      <trkpt lat="46.55873" lon="6.52625">
        <ele>413.2</ele>
        <time>2022-09-28T12:36:13Z</time>
      </trkpt>
      <trkpt lat="46.55874" lon="6.52625">
        <ele>413.1</ele>
        <time>2022-09-28T12:36:32Z</time>
      </trkpt>
      <trkpt lat="46.55875" lon="6.52625">
        <ele>413.1</ele>
        <time>2022-09-28T12:36:33Z</time>
      </trkpt>
      <trkpt lat="46.55876" lon="6.52625">
        <ele>413.1</ele>
        <time>2022-09-28T12:36:34Z</time>
      </trkpt>
      <trkpt lat="46.55877" lon="6.52625">
        <ele>413</ele>
        <time>2022-09-28T12:36:35Z</time>
      </trkpt>
      <trkpt lat="46.55878" lon="6.52625">
        <ele>413</ele>
        <time>2022-09-28T12:36:36Z</time>
      </trkpt>
      <trkpt lat="46.55879" lon="6.52624">
        <ele>412.9</ele>
        <time>2022-09-28T12:36:37Z</time>
      </trkpt>
      <trkpt lat="46.5588" lon="6.52624">
        <ele>412.9</ele>
        <time>2022-09-28T12:36:38Z</time>
      </trkpt>
      <trkpt lat="46.55881" lon="6.52624">
        <ele>412.8</ele>
        <time>2022-09-28T12:36:39Z</time>
      </trkpt>
      <trkpt lat="46.55882" lon="6.52624">
        <ele>412.8</ele>
        <time>2022-09-28T12:36:40Z</time>
      </trkpt>
      <trkpt lat="46.55882" lon="6.52624">
        <ele>412.8</ele>
        <time>2022-09-28T12:36:41Z</time>
      </trkpt>
      <trkpt lat="46.55883" lon="6.52623">
        <ele>412.7</ele>
        <time>2022-09-28T12:36:42Z</time>
      </trkpt>
      <trkpt lat="46.55885" lon="6.52623">
        <ele>412.7</ele>
        <time>2022-09-28T12:36:43Z</time>
      </trkpt>
      <trkpt lat="46.55885" lon="6.52623">
        <ele>412.7</ele>
        <time>2022-09-28T12:36:44Z</time>
      </trkpt>
      <trkpt lat="46.55886" lon="6.52622">
        <ele>412.6</ele>
        <time>2022-09-28T12:36:45Z</time>
      </trkpt>
      <trkpt lat="46.55886" lon="6.52621">
        <ele>412.6</ele>
        <time>2022-09-28T12:36:46Z</time>
      </trkpt>
      <trkpt lat="46.55888" lon="6.52621">
        <ele>412.5</ele>
        <time>2022-09-28T12:36:47Z</time>
      </trkpt>
      <trkpt lat="46.55889" lon="6.52621">
        <ele>412.4</ele>
        <time>2022-09-28T12:36:48Z</time>
      </trkpt>
      <trkpt lat="46.5589" lon="6.5262">
        <ele>412.3</ele>
        <time>2022-09-28T12:36:49Z</time>
      </trkpt>
      <trkpt lat="46.55891" lon="6.5262">
        <ele>412.3</ele>
        <time>2022-09-28T12:36:50Z</time>
      </trkpt>
      <trkpt lat="46.55892" lon="6.52619">
        <ele>412.2</ele>
        <time>2022-09-28T12:36:51Z</time>
      </trkpt>
      <trkpt lat="46.55893" lon="6.52619">
        <ele>412.2</ele>
        <time>2022-09-28T12:36:52Z</time>
      </trkpt>
      <trkpt lat="46.55894" lon="6.52618">
        <ele>412.1</ele>
        <time>2022-09-28T12:36:53Z</time>
      </trkpt>
      <trkpt lat="46.55895" lon="6.52618">
        <ele>412</ele>
        <time>2022-09-28T12:36:54Z</time>
      </trkpt>
      <trkpt lat="46.55896" lon="6.52617">
        <ele>411.9</ele>
        <time>2022-09-28T12:36:55Z</time>
      </trkpt>
      <trkpt lat="46.55897" lon="6.52617">
        <ele>411.9</ele>
        <time>2022-09-28T12:36:56Z</time>
      </trkpt>
      <trkpt lat="46.55898" lon="6.52616">
        <ele>411.8</ele>
        <time>2022-09-28T12:36:57Z</time>
      </trkpt>
      <trkpt lat="46.55899" lon="6.52616">
        <ele>411.7</ele>
        <time>2022-09-28T12:39:23Z</time>
      </trkpt>
      <trkpt lat="46.559" lon="6.52615">
        <ele>411.6</ele>
        <time>2022-09-28T12:39:24Z</time>
      </trkpt>
      <trkpt lat="46.55901" lon="6.52615">
        <ele>411.6</ele>
        <time>2022-09-28T12:39:25Z</time>
      </trkpt>
      <trkpt lat="46.55903" lon="6.52614">
        <ele>411.5</ele>
        <time>2022-09-28T12:39:26Z</time>
      </trkpt>
      <trkpt lat="46.55904" lon="6.52614">
        <ele>411.4</ele>
        <time>2022-09-28T12:39:27Z</time>
      </trkpt>
      <trkpt lat="46.55906" lon="6.52613">
        <ele>411.2</ele>
        <time>2022-09-28T12:39:28Z</time>
      </trkpt>
      <trkpt lat="46.55907" lon="6.52613">
        <ele>411.2</ele>
        <time>2022-09-28T12:39:29Z</time>
      </trkpt>
      <trkpt lat="46.55908" lon="6.52612">
        <ele>411.1</ele>
        <time>2022-09-28T12:39:30Z</time>
      </trkpt>
      <trkpt lat="46.55909" lon="6.52611">
        <ele>411</ele>
        <time>2022-09-28T12:39:31Z</time>
      </trkpt>
      <trkpt lat="46.5591" lon="6.5261">
        <ele>410.9</ele>
        <time>2022-09-28T12:39:32Z</time>
      </trkpt>
      <trkpt lat="46.55912" lon="6.52609">
        <ele>410.8</ele>
        <time>2022-09-28T12:39:33Z</time>
      </trkpt>
      <trkpt lat="46.55913" lon="6.52609">
        <ele>410.7</ele>
        <time>2022-09-28T12:39:34Z</time>
      </trkpt>
      <trkpt lat="46.55914" lon="6.52608">
        <ele>410.6</ele>
        <time>2022-09-28T12:39:35Z</time>
      </trkpt>
      <trkpt lat="46.55917" lon="6.52607">
        <ele>410.4</ele>
        <time>2022-09-28T12:39:36Z</time>
      </trkpt>
      <trkpt lat="46.55918" lon="6.52607">
        <ele>410.3</ele>
        <time>2022-09-28T12:39:37Z</time>
      </trkpt>
      <trkpt lat="46.5592" lon="6.52608">
        <ele>410.2</ele>
        <time>2022-09-28T12:39:38Z</time>
      </trkpt>
      <trkpt lat="46.55921" lon="6.52607">
        <ele>410.1</ele>
        <time>2022-09-28T12:39:39Z</time>
      </trkpt>
      <trkpt lat="46.55921" lon="6.52607">
        <ele>410</ele>
        <time>2022-09-28T12:39:40Z</time>
      </trkpt>
      <trkpt lat="46.55922" lon="6.52607">
        <ele>410</ele>
        <time>2022-09-28T12:39:41Z</time>
      </trkpt>
      <trkpt lat="46.55924" lon="6.52607">
        <ele>409.8</ele>
        <time>2022-09-28T12:39:42Z</time>
      </trkpt>
      <trkpt lat="46.55928" lon="6.52606">
        <ele>409.6</ele>
        <time>2022-09-28T12:39:43Z</time>
      </trkpt>
      <trkpt lat="46.55929" lon="6.52606">
        <ele>409.5</ele>
        <time>2022-09-28T12:39:44Z</time>
      </trkpt>
      <trkpt lat="46.55932" lon="6.52605">
        <ele>409.3</ele>
        <time>2022-09-28T12:39:45Z</time>
      </trkpt>
      <trkpt lat="46.55933" lon="6.52604">
        <ele>409.3</ele>
        <time>2022-09-28T12:39:46Z</time>
      </trkpt>
      <trkpt lat="46.55935" lon="6.52603">
        <ele>409.1</ele>
        <time>2022-09-28T12:39:47Z</time>
      </trkpt>
      <trkpt lat="46.55936" lon="6.52603">
        <ele>409.1</ele>
        <time>2022-09-28T12:39:48Z</time>
      </trkpt>
      <trkpt lat="46.55937" lon="6.52602">
        <ele>409</ele>
        <time>2022-09-28T12:39:49Z</time>
      </trkpt>
      <trkpt lat="46.5594" lon="6.52603">
        <ele>408.9</ele>
        <time>2022-09-28T12:39:50Z</time>
      </trkpt>
      <trkpt lat="46.55941" lon="6.52603">
        <ele>408.8</ele>
        <time>2022-09-28T12:39:51Z</time>
      </trkpt>
      <trkpt lat="46.55945" lon="6.52603">
        <ele>408.6</ele>
        <time>2022-09-28T12:39:52Z</time>
      </trkpt>
      <trkpt lat="46.55946" lon="6.52603">
        <ele>408.5</ele>
        <time>2022-09-28T12:39:53Z</time>
      </trkpt>
      <trkpt lat="46.55949" lon="6.52603">
        <ele>408.4</ele>
        <time>2022-09-28T12:39:54Z</time>
      </trkpt>
      <trkpt lat="46.55951" lon="6.52602">
        <ele>408.3</ele>
        <time>2022-09-28T12:39:55Z</time>
      </trkpt>
      <trkpt lat="46.55955" lon="6.52602">
        <ele>408.1</ele>
        <time>2022-09-28T12:39:56Z</time>
      </trkpt>
      <trkpt lat="46.55956" lon="6.52602">
        <ele>408</ele>
        <time>2022-09-28T12:39:57Z</time>
      </trkpt>
      <trkpt lat="46.5596" lon="6.52603">
        <ele>407.9</ele>
        <time>2022-09-28T12:39:58Z</time>
      </trkpt>
      <trkpt lat="46.55961" lon="6.52603">
        <ele>407.8</ele>
        <time>2022-09-28T12:39:59Z</time>
      </trkpt>
      <trkpt lat="46.55966" lon="6.52604">
        <ele>407.6</ele>
        <time>2022-09-28T12:40:00Z</time>
      </trkpt>
      <trkpt lat="46.55969" lon="6.52603">
        <ele>407.5</ele>
        <time>2022-09-28T12:40:01Z</time>
      </trkpt>
      <trkpt lat="46.55972" lon="6.52603">
        <ele>407.4</ele>
        <time>2022-09-28T12:40:02Z</time>
      </trkpt>
      <trkpt lat="46.55976" lon="6.52603">
        <ele>407.2</ele>
        <time>2022-09-28T12:40:04Z</time>
      </trkpt>
      <trkpt lat="46.5598" lon="6.52603">
        <ele>407.1</ele>
        <time>2022-09-28T12:40:05Z</time>
      </trkpt>
      <trkpt lat="46.55983" lon="6.52603">
        <ele>407.1</ele>
        <time>2022-09-28T12:40:06Z</time>
      </trkpt>
      <trkpt lat="46.55986" lon="6.52602">
        <ele>407</ele>
        <time>2022-09-28T12:40:07Z</time>
      </trkpt>
      <trkpt lat="46.5599" lon="6.52602">
        <ele>406.9</ele>
        <time>2022-09-28T12:40:08Z</time>
      </trkpt>
      <trkpt lat="46.55996" lon="6.52601">
        <ele>406.8</ele>
        <time>2022-09-28T12:40:09Z</time>
      </trkpt>
      <trkpt lat="46.56" lon="6.52601">
        <ele>406.7</ele>
        <time>2022-09-28T12:40:10Z</time>
      </trkpt>
      <trkpt lat="46.56002" lon="6.52601">
        <ele>406.7</ele>
        <time>2022-09-28T12:40:11Z</time>
      </trkpt>
      <trkpt lat="46.56005" lon="6.526">
        <ele>406.6</ele>
        <time>2022-09-28T12:40:12Z</time>
      </trkpt>
      <trkpt lat="46.56011" lon="6.526">
        <ele>406.5</ele>
        <time>2022-09-28T12:40:14Z</time>
      </trkpt>
      <trkpt lat="46.56014" lon="6.526">
        <ele>406.4</ele>
        <time>2022-09-28T12:40:15Z</time>
      </trkpt>
      <trkpt lat="46.56017" lon="6.52601">
        <ele>406.3</ele>
        <time>2022-09-28T12:40:16Z</time>
      </trkpt>
      <trkpt lat="46.5602" lon="6.52602">
        <ele>406.2</ele>
        <time>2022-09-28T12:40:17Z</time>
      </trkpt>
      <trkpt lat="46.56021" lon="6.52602">
        <ele>406.1</ele>
        <time>2022-09-28T12:40:18Z</time>
      </trkpt>
      <trkpt lat="46.56023" lon="6.52605">
        <ele>405.9</ele>
        <time>2022-09-28T12:40:19Z</time>
      </trkpt>
      <trkpt lat="46.56024" lon="6.52605">
        <ele>405.8</ele>
        <time>2022-09-28T12:40:20Z</time>
      </trkpt>
      <trkpt lat="46.56027" lon="6.52607">
        <ele>405.6</ele>
        <time>2022-09-28T12:40:21Z</time>
      </trkpt>
      <trkpt lat="46.56028" lon="6.52608">
        <ele>405.5</ele>
        <time>2022-09-28T12:40:22Z</time>
      </trkpt>
      <trkpt lat="46.56032" lon="6.52611">
        <ele>405.2</ele>
        <time>2022-09-28T12:40:23Z</time>
      </trkpt>
      <trkpt lat="46.56034" lon="6.52614">
        <ele>404.9</ele>
        <time>2022-09-28T12:40:24Z</time>
      </trkpt>
      <trkpt lat="46.56037" lon="6.52618">
        <ele>404.6</ele>
        <time>2022-09-28T12:40:25Z</time>
      </trkpt>
      <trkpt lat="46.5604" lon="6.5262">
        <ele>404.4</ele>
        <time>2022-09-28T12:40:26Z</time>
      </trkpt>
      <trkpt lat="46.56045" lon="6.52621">
        <ele>404.1</ele>
        <time>2022-09-28T12:40:27Z</time>
      </trkpt>
      <trkpt lat="46.56048" lon="6.52624">
        <ele>403.9</ele>
        <time>2022-09-28T12:40:28Z</time>
      </trkpt>
      <trkpt lat="46.56052" lon="6.52629">
        <ele>403.6</ele>
        <time>2022-09-28T12:40:29Z</time>
      </trkpt>
      <trkpt lat="46.56056" lon="6.52634">
        <ele>403.3</ele>
        <time>2022-09-28T12:40:30Z</time>
      </trkpt>
      <trkpt lat="46.56059" lon="6.52638">
        <ele>403.1</ele>
        <time>2022-09-28T12:40:31Z</time>
      </trkpt>
      <trkpt lat="46.56062" lon="6.52641">
        <ele>402.9</ele>
        <time>2022-09-28T12:40:32Z</time>
      </trkpt>
      <trkpt lat="46.56066" lon="6.52644">
        <ele>402.7</ele>
        <time>2022-09-28T12:40:33Z</time>
      </trkpt>
      <trkpt lat="46.56069" lon="6.52645">
        <ele>402.6</ele>
        <time>2022-09-28T12:40:34Z</time>
      </trkpt>
      <trkpt lat="46.56072" lon="6.52647">
        <ele>402.4</ele>
        <time>2022-09-28T12:40:35Z</time>
      </trkpt>
      <trkpt lat="46.56074" lon="6.52651">
        <ele>402.3</ele>
        <time>2022-09-28T12:40:36Z</time>
      </trkpt>
      <trkpt lat="46.56078" lon="6.52653">
        <ele>402.1</ele>
        <time>2022-09-28T12:40:37Z</time>
      </trkpt>
      <trkpt lat="46.56081" lon="6.52655">
        <ele>402</ele>
        <time>2022-09-28T12:40:38Z</time>
      </trkpt>
      <trkpt lat="46.56084" lon="6.52656">
        <ele>401.8</ele>
        <time>2022-09-28T12:40:39Z</time>
      </trkpt>
      <trkpt lat="46.56088" lon="6.52658">
        <ele>401.7</ele>
        <time>2022-09-28T12:40:40Z</time>
      </trkpt>
      <trkpt lat="46.5609" lon="6.5266">
        <ele>401.5</ele>
        <time>2022-09-28T12:40:41Z</time>
      </trkpt>
      <trkpt lat="46.56094" lon="6.52661">
        <ele>401.4</ele>
        <time>2022-09-28T12:40:42Z</time>
      </trkpt>
      <trkpt lat="46.56098" lon="6.52662">
        <ele>401.3</ele>
        <time>2022-09-28T12:40:43Z</time>
      </trkpt>
      <trkpt lat="46.56101" lon="6.52661">
        <ele>401.2</ele>
        <time>2022-09-28T12:40:44Z</time>
      </trkpt>
      <trkpt lat="46.56104" lon="6.5266">
        <ele>401.1</ele>
        <time>2022-09-28T12:40:45Z</time>
      </trkpt>
      <trkpt lat="46.56105" lon="6.5266">
        <ele>401.1</ele>
        <time>2022-09-28T12:40:46Z</time>
      </trkpt>
      <trkpt lat="46.56109" lon="6.52658">
        <ele>401</ele>
        <time>2022-09-28T12:40:47Z</time>
      </trkpt>
      <trkpt lat="46.56112" lon="6.52655">
        <ele>401</ele>
        <time>2022-09-28T12:40:48Z</time>
      </trkpt>
      <trkpt lat="46.56113" lon="6.52653">
        <ele>400.9</ele>
        <time>2022-09-28T12:40:49Z</time>
      </trkpt>
      <trkpt lat="46.56116" lon="6.52652">
        <ele>400.9</ele>
        <time>2022-09-28T12:40:50Z</time>
      </trkpt>
      <trkpt lat="46.5612" lon="6.5265">
        <ele>400.9</ele>
        <time>2022-09-28T12:40:51Z</time>
      </trkpt>
      <trkpt lat="46.56121" lon="6.52649">
        <ele>400.9</ele>
        <time>2022-09-28T12:40:52Z</time>
      </trkpt>
      <trkpt lat="46.56124" lon="6.52648">
        <ele>400.9</ele>
        <time>2022-09-28T12:40:53Z</time>
      </trkpt>
      <trkpt lat="46.56128" lon="6.52646">
        <ele>400.9</ele>
        <time>2022-09-28T12:40:54Z</time>
      </trkpt>
      <trkpt lat="46.56132" lon="6.52643">
        <ele>401</ele>
        <time>2022-09-28T12:40:55Z</time>
      </trkpt>
      <trkpt lat="46.56135" lon="6.52642">
        <ele>401</ele>
        <time>2022-09-28T12:40:56Z</time>
      </trkpt>
      <trkpt lat="46.56138" lon="6.52643">
        <ele>401.1</ele>
        <time>2022-09-28T12:40:57Z</time>
      </trkpt>
      <trkpt lat="46.56142" lon="6.52641">
        <ele>401.2</ele>
        <time>2022-09-28T12:40:58Z</time>
      </trkpt>
      <trkpt lat="46.56143" lon="6.5264">
        <ele>401.2</ele>
        <time>2022-09-28T12:40:59Z</time>
      </trkpt>
      <trkpt lat="46.56147" lon="6.52639">
        <ele>401.3</ele>
        <time>2022-09-28T12:41:00Z</time>
      </trkpt>
      <trkpt lat="46.5615" lon="6.52637">
        <ele>401.4</ele>
        <time>2022-09-28T12:41:01Z</time>
      </trkpt>
      <trkpt lat="46.56154" lon="6.52635">
        <ele>401.6</ele>
        <time>2022-09-28T12:41:02Z</time>
      </trkpt>
      <trkpt lat="46.56156" lon="6.52634">
        <ele>401.7</ele>
        <time>2022-09-28T12:41:03Z</time>
      </trkpt>
      <trkpt lat="46.56159" lon="6.52632">
        <ele>401.8</ele>
        <time>2022-09-28T12:41:04Z</time>
      </trkpt>
      <trkpt lat="46.56163" lon="6.52632">
        <ele>402</ele>
        <time>2022-09-28T12:41:05Z</time>
      </trkpt>
      <trkpt lat="46.56166" lon="6.52631">
        <ele>402.2</ele>
        <time>2022-09-28T12:41:06Z</time>
      </trkpt>
      <trkpt lat="46.5617" lon="6.5263">
        <ele>402.3</ele>
        <time>2022-09-28T12:41:07Z</time>
      </trkpt>
      <trkpt lat="46.56173" lon="6.52629">
        <ele>402.5</ele>
        <time>2022-09-28T12:41:08Z</time>
      </trkpt>
      <trkpt lat="46.56177" lon="6.52629">
        <ele>402.7</ele>
        <time>2022-09-28T12:41:09Z</time>
      </trkpt>
      <trkpt lat="46.56179" lon="6.52629">
        <ele>402.8</ele>
        <time>2022-09-28T12:41:10Z</time>
      </trkpt>
      <trkpt lat="46.56182" lon="6.52629">
        <ele>402.9</ele>
        <time>2022-09-28T12:41:11Z</time>
      </trkpt>
      <trkpt lat="46.56185" lon="6.52629">
        <ele>403</ele>
        <time>2022-09-28T12:41:12Z</time>
      </trkpt>
      <trkpt lat="46.56188" lon="6.52627">
        <ele>403.1</ele>
        <time>2022-09-28T12:41:13Z</time>
      </trkpt>
      <trkpt lat="46.56189" lon="6.52626">
        <ele>403.1</ele>
        <time>2022-09-28T12:41:14Z</time>
      </trkpt>
      <trkpt lat="46.56192" lon="6.52625">
        <ele>403.2</ele>
        <time>2022-09-28T12:41:15Z</time>
      </trkpt>
      <trkpt lat="46.56193" lon="6.52624">
        <ele>403.2</ele>
        <time>2022-09-28T12:41:16Z</time>
      </trkpt>
      <trkpt lat="46.56196" lon="6.52624">
        <ele>403.2</ele>
        <time>2022-09-28T12:41:17Z</time>
      </trkpt>
      <trkpt lat="46.56197" lon="6.52623">
        <ele>403.3</ele>
        <time>2022-09-28T12:41:18Z</time>
      </trkpt>
      <trkpt lat="46.56199" lon="6.52623">
        <ele>403.3</ele>
        <time>2022-09-28T12:41:19Z</time>
      </trkpt>
      <trkpt lat="46.56201" lon="6.52624">
        <ele>403.4</ele>
        <time>2022-09-28T12:41:20Z</time>
      </trkpt>
      <trkpt lat="46.56202" lon="6.52625">
        <ele>403.4</ele>
        <time>2022-09-28T12:41:21Z</time>
      </trkpt>
      <trkpt lat="46.56204" lon="6.52625">
        <ele>403.4</ele>
        <time>2022-09-28T12:41:22Z</time>
      </trkpt>
      <trkpt lat="46.56204" lon="6.52625">
        <ele>403.4</ele>
        <time>2022-09-28T12:41:23Z</time>
      </trkpt>
      <trkpt lat="46.56204" lon="6.52625">
        <ele>403.4</ele>
        <time>2022-09-28T12:41:24Z</time>
      </trkpt>
      <trkpt lat="46.56205" lon="6.52625">
        <ele>403.4</ele>
        <time>2022-09-28T12:41:25Z</time>
      </trkpt>
      <trkpt lat="46.56205" lon="6.52625">
        <ele>403.4</ele>
        <time>2022-09-28T12:41:26Z</time>
      </trkpt>
      <trkpt lat="46.56206" lon="6.52625">
        <ele>403.4</ele>
        <time>2022-09-28T12:41:27Z</time>
      </trkpt>
      <trkpt lat="46.56206" lon="6.52625">
        <ele>403.4</ele>
        <time>2022-09-28T12:41:28Z</time>
      </trkpt>
      <trkpt lat="46.56207" lon="6.52625">
        <ele>403.5</ele>
        <time>2022-09-28T12:41:29Z</time>
      </trkpt>
      <trkpt lat="46.56207" lon="6.52624">
        <ele>403.5</ele>
        <time>2022-09-28T12:41:30Z</time>
      </trkpt>
      <trkpt lat="46.56208" lon="6.52624">
        <ele>403.5</ele>
        <time>2022-09-28T12:41:31Z</time>
      </trkpt>
      <trkpt lat="46.56209" lon="6.52625">
        <ele>403.5</ele>
        <time>2022-09-28T12:41:32Z</time>
      </trkpt>
      <trkpt lat="46.5621" lon="6.52625">
        <ele>403.5</ele>
        <time>2022-09-28T12:41:33Z</time>
      </trkpt>
      <trkpt lat="46.56211" lon="6.52625">
        <ele>403.5</ele>
        <time>2022-09-28T12:41:34Z</time>
      </trkpt>
      <trkpt lat="46.56213" lon="6.52625">
        <ele>403.6</ele>
        <time>2022-09-28T12:41:35Z</time>
      </trkpt>
      <trkpt lat="46.56214" lon="6.52626">
        <ele>403.6</ele>
        <time>2022-09-28T12:41:36Z</time>
      </trkpt>
      <trkpt lat="46.56215" lon="6.52626">
        <ele>403.6</ele>
        <time>2022-09-28T12:41:37Z</time>
      </trkpt>
      <trkpt lat="46.56216" lon="6.52626">
        <ele>403.6</ele>
        <time>2022-09-28T12:41:38Z</time>
      </trkpt>
      <trkpt lat="46.56217" lon="6.52626">
        <ele>403.6</ele>
        <time>2022-09-28T12:41:39Z</time>
      </trkpt>
      <trkpt lat="46.56218" lon="6.52626">
        <ele>403.6</ele>
        <time>2022-09-28T12:43:46Z</time>
      </trkpt>
      <trkpt lat="46.56219" lon="6.52627">
        <ele>403.5</ele>
        <time>2022-09-28T12:43:47Z</time>
      </trkpt>
      <trkpt lat="46.56222" lon="6.52624">
        <ele>403.5</ele>
        <time>2022-09-28T12:43:48Z</time>
      </trkpt>
      <trkpt lat="46.56223" lon="6.52623">
        <ele>403.5</ele>
        <time>2022-09-28T12:43:49Z</time>
      </trkpt>
      <trkpt lat="46.56225" lon="6.52621">
        <ele>403.5</ele>
        <time>2022-09-28T12:43:50Z</time>
      </trkpt>
      <trkpt lat="46.56226" lon="6.5262">
        <ele>403.5</ele>
        <time>2022-09-28T12:43:51Z</time>
      </trkpt>
      <trkpt lat="46.56228" lon="6.52622">
        <ele>403.5</ele>
        <time>2022-09-28T12:43:52Z</time>
      </trkpt>
      <trkpt lat="46.56228" lon="6.52623">
        <ele>403.5</ele>
        <time>2022-09-28T12:43:53Z</time>
      </trkpt>
      <trkpt lat="46.56228" lon="6.52623">
        <ele>403.5</ele>
        <time>2022-09-28T12:43:54Z</time>
      </trkpt>
      <trkpt lat="46.5623" lon="6.52624">
        <ele>403.4</ele>
        <time>2022-09-28T12:43:55Z</time>
      </trkpt>
      <trkpt lat="46.56231" lon="6.52624">
        <ele>403.4</ele>
        <time>2022-09-28T12:43:56Z</time>
      </trkpt>
      <trkpt lat="46.56234" lon="6.52624">
        <ele>403.4</ele>
        <time>2022-09-28T12:43:57Z</time>
      </trkpt>
      <trkpt lat="46.56235" lon="6.52624">
        <ele>403.4</ele>
        <time>2022-09-28T12:43:58Z</time>
      </trkpt>
      <trkpt lat="46.56238" lon="6.52625">
        <ele>403.4</ele>
        <time>2022-09-28T12:43:59Z</time>
      </trkpt>
      <trkpt lat="46.56239" lon="6.52624">
        <ele>403.4</ele>
        <time>2022-09-28T12:44:00Z</time>
      </trkpt>
      <trkpt lat="46.56243" lon="6.52625">
        <ele>403.3</ele>
        <time>2022-09-28T12:44:01Z</time>
      </trkpt>
      <trkpt lat="46.56244" lon="6.52625">
        <ele>403.3</ele>
        <time>2022-09-28T12:44:02Z</time>
      </trkpt>
      <trkpt lat="46.56247" lon="6.52625">
        <ele>403.3</ele>
        <time>2022-09-28T12:44:03Z</time>
      </trkpt>
      <trkpt lat="46.56251" lon="6.52626">
        <ele>403.3</ele>
        <time>2022-09-28T12:44:04Z</time>
      </trkpt>
      <trkpt lat="46.56253" lon="6.52627">
        <ele>403.3</ele>
        <time>2022-09-28T12:44:05Z</time>
      </trkpt>
      <trkpt lat="46.56256" lon="6.52627">
        <ele>403.3</ele>
        <time>2022-09-28T12:44:06Z</time>
      </trkpt>
      <trkpt lat="46.56259" lon="6.52627">
        <ele>403.3</ele>
        <time>2022-09-28T12:44:07Z</time>
      </trkpt>
      <trkpt lat="46.56262" lon="6.52627">
        <ele>403.3</ele>
        <time>2022-09-28T12:44:08Z</time>
      </trkpt>
      <trkpt lat="46.56263" lon="6.52627">
        <ele>403.3</ele>
        <time>2022-09-28T12:44:09Z</time>
      </trkpt>
      <trkpt lat="46.56266" lon="6.52628">
        <ele>403.3</ele>
        <time>2022-09-28T12:44:10Z</time>
      </trkpt>
      <trkpt lat="46.5627" lon="6.52629">
        <ele>403.4</ele>
        <time>2022-09-28T12:44:11Z</time>
      </trkpt>
      <trkpt lat="46.56273" lon="6.52628">
        <ele>403.4</ele>
        <time>2022-09-28T12:44:12Z</time>
      </trkpt>
      <trkpt lat="46.56275" lon="6.52629">
        <ele>403.4</ele>
        <time>2022-09-28T12:44:13Z</time>
      </trkpt>
      <trkpt lat="46.56278" lon="6.52629">
        <ele>403.4</ele>
        <time>2022-09-28T12:44:14Z</time>
      </trkpt>
      <trkpt lat="46.56282" lon="6.52629">
        <ele>403.4</ele>
        <time>2022-09-28T12:44:16Z</time>
      </trkpt>
      <trkpt lat="46.56284" lon="6.5263">
        <ele>403.4</ele>
        <time>2022-09-28T12:44:17Z</time>
      </trkpt>
      <trkpt lat="46.56287" lon="6.52631">
        <ele>403.4</ele>
        <time>2022-09-28T12:44:18Z</time>
      </trkpt>
      <trkpt lat="46.56288" lon="6.52632">
        <ele>403.4</ele>
        <time>2022-09-28T12:44:19Z</time>
      </trkpt>
      <trkpt lat="46.56295" lon="6.52632">
        <ele>403.4</ele>
        <time>2022-09-28T12:44:20Z</time>
      </trkpt>
      <trkpt lat="46.56299" lon="6.52632">
        <ele>403.4</ele>
        <time>2022-09-28T12:44:22Z</time>
      </trkpt>
      <trkpt lat="46.563" lon="6.52632">
        <ele>403.4</ele>
        <time>2022-09-28T12:44:23Z</time>
      </trkpt>
      <trkpt lat="46.56306" lon="6.52634">
        <ele>403.4</ele>
        <time>2022-09-28T12:44:24Z</time>
      </trkpt>
      <trkpt lat="46.5631" lon="6.52635">
        <ele>403.4</ele>
        <time>2022-09-28T12:44:25Z</time>
      </trkpt>
      <trkpt lat="46.56312" lon="6.52635">
        <ele>403.4</ele>
        <time>2022-09-28T12:44:26Z</time>
      </trkpt>
      <trkpt lat="46.56316" lon="6.52635">
        <ele>403.4</ele>
        <time>2022-09-28T12:44:27Z</time>
      </trkpt>
      <trkpt lat="46.56319" lon="6.52635">
        <ele>403.4</ele>
        <time>2022-09-28T12:44:28Z</time>
      </trkpt>
      <trkpt lat="46.56323" lon="6.52635">
        <ele>403.4</ele>
        <time>2022-09-28T12:44:29Z</time>
      </trkpt>
      <trkpt lat="46.56326" lon="6.52636">
        <ele>403.4</ele>
        <time>2022-09-28T12:44:30Z</time>
      </trkpt>
      <trkpt lat="46.5633" lon="6.52635">
        <ele>403.5</ele>
        <time>2022-09-28T12:44:32Z</time>
      </trkpt>
      <trkpt lat="46.56338" lon="6.52637">
        <ele>403.5</ele>
        <time>2022-09-28T12:44:33Z</time>
      </trkpt>
      <trkpt lat="46.56342" lon="6.52638">
        <ele>403.5</ele>
        <time>2022-09-28T12:44:34Z</time>
      </trkpt>
      <trkpt lat="46.56346" lon="6.52639">
        <ele>403.6</ele>
        <time>2022-09-28T12:44:35Z</time>
      </trkpt>
      <trkpt lat="46.5635" lon="6.52639">
        <ele>403.6</ele>
        <time>2022-09-28T12:44:36Z</time>
      </trkpt>
      <trkpt lat="46.56353" lon="6.5264">
        <ele>403.7</ele>
        <time>2022-09-28T12:44:37Z</time>
      </trkpt>
      <trkpt lat="46.56358" lon="6.5264">
        <ele>403.7</ele>
        <time>2022-09-28T12:44:38Z</time>
      </trkpt>
      <trkpt lat="46.56361" lon="6.5264">
        <ele>403.8</ele>
        <time>2022-09-28T12:44:39Z</time>
      </trkpt>
      <trkpt lat="46.56364" lon="6.5264">
        <ele>403.8</ele>
        <time>2022-09-28T12:44:40Z</time>
      </trkpt>
      <trkpt lat="46.56368" lon="6.5264">
        <ele>403.9</ele>
        <time>2022-09-28T12:44:41Z</time>
      </trkpt>
      <trkpt lat="46.56372" lon="6.52641">
        <ele>403.9</ele>
        <time>2022-09-28T12:44:42Z</time>
      </trkpt>
      <trkpt lat="46.56376" lon="6.52642">
        <ele>404</ele>
        <time>2022-09-28T12:44:43Z</time>
      </trkpt>
      <trkpt lat="46.56379" lon="6.52642">
        <ele>404</ele>
        <time>2022-09-28T12:44:44Z</time>
      </trkpt>
      <trkpt lat="46.56382" lon="6.52642">
        <ele>404.1</ele>
        <time>2022-09-28T12:44:45Z</time>
      </trkpt>
      <trkpt lat="46.56385" lon="6.52643">
        <ele>404.1</ele>
        <time>2022-09-28T12:44:46Z</time>
      </trkpt>
      <trkpt lat="46.56388" lon="6.52642">
        <ele>404.2</ele>
        <time>2022-09-28T12:44:47Z</time>
      </trkpt>
      <trkpt lat="46.56392" lon="6.52641">
        <ele>404.2</ele>
        <time>2022-09-28T12:44:48Z</time>
      </trkpt>
      <trkpt lat="46.56395" lon="6.52641">
        <ele>404.3</ele>
        <time>2022-09-28T12:44:49Z</time>
      </trkpt>
      <trkpt lat="46.56399" lon="6.52641">
        <ele>404.3</ele>
        <time>2022-09-28T12:44:50Z</time>
      </trkpt>
      <trkpt lat="46.564" lon="6.52641">
        <ele>404.4</ele>
        <time>2022-09-28T12:44:51Z</time>
      </trkpt>
      <trkpt lat="46.56403" lon="6.52643">
        <ele>404.4</ele>
        <time>2022-09-28T12:44:52Z</time>
      </trkpt>
      <trkpt lat="46.56407" lon="6.52642">
        <ele>404.5</ele>
        <time>2022-09-28T12:44:53Z</time>
      </trkpt>
      <trkpt lat="46.5641" lon="6.52641">
        <ele>404.5</ele>
        <time>2022-09-28T12:44:54Z</time>
      </trkpt>
      <trkpt lat="46.56414" lon="6.52643">
        <ele>404.6</ele>
        <time>2022-09-28T12:44:55Z</time>
      </trkpt>
      <trkpt lat="46.56418" lon="6.52645">
        <ele>404.7</ele>
        <time>2022-09-28T12:44:56Z</time>
      </trkpt>
      <trkpt lat="46.56421" lon="6.52645">
        <ele>404.8</ele>
        <time>2022-09-28T12:44:57Z</time>
      </trkpt>
      <trkpt lat="46.56423" lon="6.52646">
        <ele>404.8</ele>
        <time>2022-09-28T12:44:58Z</time>
      </trkpt>
      <trkpt lat="46.56427" lon="6.52649">
        <ele>404.9</ele>
        <time>2022-09-28T12:44:59Z</time>
      </trkpt>
      <trkpt lat="46.56428" lon="6.5265">
        <ele>405</ele>
        <time>2022-09-28T12:45:00Z</time>
      </trkpt>
      <trkpt lat="46.56431" lon="6.52651">
        <ele>405</ele>
        <time>2022-09-28T12:45:01Z</time>
      </trkpt>
      <trkpt lat="46.56434" lon="6.52652">
        <ele>405.1</ele>
        <time>2022-09-28T12:45:02Z</time>
      </trkpt>
      <trkpt lat="46.56437" lon="6.52653">
        <ele>405.2</ele>
        <time>2022-09-28T12:45:03Z</time>
      </trkpt>
      <trkpt lat="46.56441" lon="6.52654">
        <ele>405.3</ele>
        <time>2022-09-28T12:45:04Z</time>
      </trkpt>
      <trkpt lat="46.56444" lon="6.52654">
        <ele>405.3</ele>
        <time>2022-09-28T12:45:05Z</time>
      </trkpt>
      <trkpt lat="46.56448" lon="6.52656">
        <ele>405.4</ele>
        <time>2022-09-28T12:45:06Z</time>
      </trkpt>
      <trkpt lat="46.56449" lon="6.52656">
        <ele>405.4</ele>
        <time>2022-09-28T12:45:07Z</time>
      </trkpt>
      <trkpt lat="46.56451" lon="6.52659">
        <ele>405.5</ele>
        <time>2022-09-28T12:45:08Z</time>
      </trkpt>
      <trkpt lat="46.56455" lon="6.5266">
        <ele>405.5</ele>
        <time>2022-09-28T12:45:09Z</time>
      </trkpt>
      <trkpt lat="46.56458" lon="6.52662">
        <ele>405.6</ele>
        <time>2022-09-28T12:45:10Z</time>
      </trkpt>
      <trkpt lat="46.56462" lon="6.52663">
        <ele>405.7</ele>
        <time>2022-09-28T12:45:11Z</time>
      </trkpt>
      <trkpt lat="46.56463" lon="6.52664">
        <ele>405.7</ele>
        <time>2022-09-28T12:45:12Z</time>
      </trkpt>
      <trkpt lat="46.56467" lon="6.52665">
        <ele>405.7</ele>
        <time>2022-09-28T12:45:13Z</time>
      </trkpt>
      <trkpt lat="46.5647" lon="6.52665">
        <ele>405.8</ele>
        <time>2022-09-28T12:45:14Z</time>
      </trkpt>
      <trkpt lat="46.56473" lon="6.52664">
        <ele>405.8</ele>
        <time>2022-09-28T12:45:15Z</time>
      </trkpt>
      <trkpt lat="46.56476" lon="6.52664">
        <ele>405.8</ele>
        <time>2022-09-28T12:45:16Z</time>
      </trkpt>
      <trkpt lat="46.56477" lon="6.52663">
        <ele>405.8</ele>
        <time>2022-09-28T12:45:17Z</time>
      </trkpt>
      <trkpt lat="46.56481" lon="6.52662">
        <ele>405.8</ele>
        <time>2022-09-28T12:45:18Z</time>
      </trkpt>
      <trkpt lat="46.56482" lon="6.52662">
        <ele>405.8</ele>
        <time>2022-09-28T12:45:19Z</time>
      </trkpt>
      <trkpt lat="46.56486" lon="6.52661">
        <ele>405.9</ele>
        <time>2022-09-28T12:45:20Z</time>
      </trkpt>
      <trkpt lat="46.56489" lon="6.52662">
        <ele>405.9</ele>
        <time>2022-09-28T12:45:21Z</time>
      </trkpt>
      <trkpt lat="46.56491" lon="6.5266">
        <ele>405.9</ele>
        <time>2022-09-28T12:45:22Z</time>
      </trkpt>
      <trkpt lat="46.56495" lon="6.52658">
        <ele>405.9</ele>
        <time>2022-09-28T12:45:23Z</time>
      </trkpt>
      <trkpt lat="46.56496" lon="6.52658">
        <ele>405.9</ele>
        <time>2022-09-28T12:45:24Z</time>
      </trkpt>
      <trkpt lat="46.56499" lon="6.52657">
        <ele>405.9</ele>
        <time>2022-09-28T12:45:25Z</time>
      </trkpt>
      <trkpt lat="46.56503" lon="6.52656">
        <ele>405.8</ele>
        <time>2022-09-28T12:45:26Z</time>
      </trkpt>
      <trkpt lat="46.56506" lon="6.52656">
        <ele>405.8</ele>
        <time>2022-09-28T12:45:27Z</time>
      </trkpt>
      <trkpt lat="46.5651" lon="6.52654">
        <ele>405.8</ele>
        <time>2022-09-28T12:45:28Z</time>
      </trkpt>
      <trkpt lat="46.56513" lon="6.52653">
        <ele>405.7</ele>
        <time>2022-09-28T12:45:29Z</time>
      </trkpt>
      <trkpt lat="46.56516" lon="6.52652">
        <ele>405.7</ele>
        <time>2022-09-28T12:45:30Z</time>
      </trkpt>
      <trkpt lat="46.56519" lon="6.52651">
        <ele>405.6</ele>
        <time>2022-09-28T12:45:31Z</time>
      </trkpt>
      <trkpt lat="46.56522" lon="6.52649">
        <ele>405.6</ele>
        <time>2022-09-28T12:45:32Z</time>
      </trkpt>
      <trkpt lat="46.56525" lon="6.52649">
        <ele>405.6</ele>
        <time>2022-09-28T12:45:33Z</time>
      </trkpt>
      <trkpt lat="46.56528" lon="6.52649">
        <ele>405.5</ele>
        <time>2022-09-28T12:45:34Z</time>
      </trkpt>
      <trkpt lat="46.56529" lon="6.52649">
        <ele>405.5</ele>
        <time>2022-09-28T12:45:35Z</time>
      </trkpt>
      <trkpt lat="46.56532" lon="6.5265">
        <ele>405.4</ele>
        <time>2022-09-28T12:45:36Z</time>
      </trkpt>
      <trkpt lat="46.56534" lon="6.52655">
        <ele>405.3</ele>
        <time>2022-09-28T12:45:37Z</time>
      </trkpt>
      <trkpt lat="46.56535" lon="6.52656">
        <ele>405.2</ele>
        <time>2022-09-28T12:45:38Z</time>
      </trkpt>
      <trkpt lat="46.56536" lon="6.52659">
        <ele>405.1</ele>
        <time>2022-09-28T12:45:39Z</time>
      </trkpt>
      <trkpt lat="46.56536" lon="6.5266">
        <ele>405.1</ele>
        <time>2022-09-28T12:45:40Z</time>
      </trkpt>
      <trkpt lat="46.56537" lon="6.52665">
        <ele>404.9</ele>
        <time>2022-09-28T12:45:41Z</time>
      </trkpt>
      <trkpt lat="46.56538" lon="6.52667">
        <ele>404.8</ele>
        <time>2022-09-28T12:45:42Z</time>
      </trkpt>
      <trkpt lat="46.56538" lon="6.52669">
        <ele>404.8</ele>
        <time>2022-09-28T12:45:43Z</time>
      </trkpt>
      <trkpt lat="46.56539" lon="6.5267">
        <ele>404.7</ele>
        <time>2022-09-28T12:45:44Z</time>
      </trkpt>
      <trkpt lat="46.5654" lon="6.52671">
        <ele>404.6</ele>
        <time>2022-09-28T12:45:45Z</time>
      </trkpt>
      <trkpt lat="46.56541" lon="6.52672">
        <ele>404.6</ele>
        <time>2022-09-28T12:45:46Z</time>
      </trkpt>
      <trkpt lat="46.56542" lon="6.52672">
        <ele>404.5</ele>
        <time>2022-09-28T12:45:47Z</time>
      </trkpt>
      <trkpt lat="46.56543" lon="6.52671">
        <ele>404.5</ele>
        <time>2022-09-28T12:45:48Z</time>
      </trkpt>
      <trkpt lat="46.56547" lon="6.52671">
        <ele>404.3</ele>
        <time>2022-09-28T12:45:49Z</time>
      </trkpt>
      <trkpt lat="46.56548" lon="6.52671">
        <ele>404.2</ele>
        <time>2022-09-28T12:45:50Z</time>
      </trkpt>
      <trkpt lat="46.56551" lon="6.5267">
        <ele>404.1</ele>
        <time>2022-09-28T12:45:51Z</time>
      </trkpt>
      <trkpt lat="46.56554" lon="6.5267">
        <ele>404</ele>
        <time>2022-09-28T12:45:52Z</time>
      </trkpt>
      <trkpt lat="46.56555" lon="6.52669">
        <ele>404</ele>
        <time>2022-09-28T12:45:53Z</time>
      </trkpt>
      <trkpt lat="46.56559" lon="6.52669">
        <ele>403.9</ele>
        <time>2022-09-28T12:45:54Z</time>
      </trkpt>
      <trkpt lat="46.5656" lon="6.52669">
        <ele>403.8</ele>
        <time>2022-09-28T12:45:55Z</time>
      </trkpt>
      <trkpt lat="46.56565" lon="6.52668">
        <ele>403.8</ele>
        <time>2022-09-28T12:45:56Z</time>
      </trkpt>
      <trkpt lat="46.56566" lon="6.52668">
        <ele>403.7</ele>
        <time>2022-09-28T12:45:57Z</time>
      </trkpt>
      <trkpt lat="46.56571" lon="6.52668">
        <ele>403.7</ele>
        <time>2022-09-28T12:45:58Z</time>
      </trkpt>
      <trkpt lat="46.56573" lon="6.52668">
        <ele>403.7</ele>
        <time>2022-09-28T12:45:59Z</time>
      </trkpt>
      <trkpt lat="46.56577" lon="6.52667">
        <ele>403.6</ele>
        <time>2022-09-28T12:46:00Z</time>
      </trkpt>
      <trkpt lat="46.56578" lon="6.52667">
        <ele>403.6</ele>
        <time>2022-09-28T12:46:01Z</time>
      </trkpt>
      <trkpt lat="46.56582" lon="6.52666">
        <ele>403.6</ele>
        <time>2022-09-28T12:46:02Z</time>
      </trkpt>
      <trkpt lat="46.56583" lon="6.52666">
        <ele>403.6</ele>
        <time>2022-09-28T12:46:03Z</time>
      </trkpt>
      <trkpt lat="46.56586" lon="6.52667">
        <ele>403.6</ele>
        <time>2022-09-28T12:46:04Z</time>
      </trkpt>
      <trkpt lat="46.56589" lon="6.52667">
        <ele>403.5</ele>
        <time>2022-09-28T12:46:05Z</time>
      </trkpt>
      <trkpt lat="46.56592" lon="6.52668">
        <ele>403.5</ele>
        <time>2022-09-28T12:46:06Z</time>
      </trkpt>
      <trkpt lat="46.56595" lon="6.52668">
        <ele>403.5</ele>
        <time>2022-09-28T12:46:07Z</time>
      </trkpt>
      <trkpt lat="46.56599" lon="6.52667">
        <ele>403.5</ele>
        <time>2022-09-28T12:46:08Z</time>
      </trkpt>
      <trkpt lat="46.566" lon="6.52667">
        <ele>403.5</ele>
        <time>2022-09-28T12:46:09Z</time>
      </trkpt>
      <trkpt lat="46.56604" lon="6.52667">
        <ele>403.5</ele>
        <time>2022-09-28T12:46:10Z</time>
      </trkpt>
      <trkpt lat="46.56608" lon="6.52667">
        <ele>403.5</ele>
        <time>2022-09-28T12:46:11Z</time>
      </trkpt>
      <trkpt lat="46.56611" lon="6.52668">
        <ele>403.5</ele>
        <time>2022-09-28T12:46:12Z</time>
      </trkpt>
      <trkpt lat="46.56614" lon="6.52668">
        <ele>403.5</ele>
        <time>2022-09-28T12:46:13Z</time>
      </trkpt>
      <trkpt lat="46.56617" lon="6.5267">
        <ele>403.5</ele>
        <time>2022-09-28T12:46:14Z</time>
      </trkpt>
      <trkpt lat="46.56622" lon="6.5267">
        <ele>403.6</ele>
        <time>2022-09-28T12:46:15Z</time>
      </trkpt>
      <trkpt lat="46.56625" lon="6.52671">
        <ele>403.6</ele>
        <time>2022-09-28T12:46:16Z</time>
      </trkpt>
      <trkpt lat="46.56628" lon="6.52671">
        <ele>403.6</ele>
        <time>2022-09-28T12:46:17Z</time>
      </trkpt>
      <trkpt lat="46.56631" lon="6.52672">
        <ele>403.6</ele>
        <time>2022-09-28T12:46:18Z</time>
      </trkpt>
      <trkpt lat="46.56634" lon="6.52673">
        <ele>403.6</ele>
        <time>2022-09-28T12:46:19Z</time>
      </trkpt>
      <trkpt lat="46.56638" lon="6.52675">
        <ele>403.6</ele>
        <time>2022-09-28T12:46:20Z</time>
      </trkpt>
      <trkpt lat="46.56641" lon="6.52676">
        <ele>403.6</ele>
        <time>2022-09-28T12:46:22Z</time>
      </trkpt>
      <trkpt lat="46.56645" lon="6.52677">
        <ele>403.6</ele>
        <time>2022-09-28T12:46:23Z</time>
      </trkpt>
      <trkpt lat="46.56647" lon="6.52678">
        <ele>403.6</ele>
        <time>2022-09-28T12:46:24Z</time>
      </trkpt>
      <trkpt lat="46.56654" lon="6.5268">
        <ele>403.6</ele>
        <time>2022-09-28T12:46:25Z</time>
      </trkpt>
      <trkpt lat="46.56657" lon="6.52682">
        <ele>403.6</ele>
        <time>2022-09-28T12:46:26Z</time>
      </trkpt>
      <trkpt lat="46.5666" lon="6.52685">
        <ele>403.6</ele>
        <time>2022-09-28T12:46:27Z</time>
      </trkpt>
      <trkpt lat="46.56664" lon="6.52687">
        <ele>403.6</ele>
        <time>2022-09-28T12:46:28Z</time>
      </trkpt>
      <trkpt lat="46.56667" lon="6.5269">
        <ele>403.6</ele>
        <time>2022-09-28T12:46:30Z</time>
      </trkpt>
      <trkpt lat="46.56674" lon="6.52695">
        <ele>403.6</ele>
        <time>2022-09-28T12:46:31Z</time>
      </trkpt>
      <trkpt lat="46.56677" lon="6.52697">
        <ele>403.6</ele>
        <time>2022-09-28T12:46:32Z</time>
      </trkpt>
      <trkpt lat="46.56682" lon="6.52703">
        <ele>403.6</ele>
        <time>2022-09-28T12:46:34Z</time>
      </trkpt>
      <trkpt lat="46.56685" lon="6.52706">
        <ele>403.6</ele>
        <time>2022-09-28T12:46:35Z</time>
      </trkpt>
      <trkpt lat="46.56687" lon="6.52708">
        <ele>403.5</ele>
        <time>2022-09-28T12:46:36Z</time>
      </trkpt>
      <trkpt lat="46.5669" lon="6.52712">
        <ele>403.5</ele>
        <time>2022-09-28T12:46:37Z</time>
      </trkpt>
      <trkpt lat="46.56691" lon="6.52715">
        <ele>403.5</ele>
        <time>2022-09-28T12:46:38Z</time>
      </trkpt>
      <trkpt lat="46.56693" lon="6.52718">
        <ele>403.5</ele>
        <time>2022-09-28T12:46:40Z</time>
      </trkpt>
      <trkpt lat="46.56695" lon="6.52723">
        <ele>403.5</ele>
        <time>2022-09-28T12:46:41Z</time>
      </trkpt>
      <trkpt lat="46.56696" lon="6.52725">
        <ele>403.5</ele>
        <time>2022-09-28T12:46:42Z</time>
      </trkpt>
      <trkpt lat="46.56698" lon="6.52728">
        <ele>403.5</ele>
        <time>2022-09-28T12:46:43Z</time>
      </trkpt>
      <trkpt lat="46.56699" lon="6.52733">
        <ele>403.6</ele>
        <time>2022-09-28T12:46:44Z</time>
      </trkpt>
      <trkpt lat="46.56702" lon="6.52738">
        <ele>403.6</ele>
        <time>2022-09-28T12:46:45Z</time>
      </trkpt>
      <trkpt lat="46.56702" lon="6.5274">
        <ele>403.6</ele>
        <time>2022-09-28T12:46:46Z</time>
      </trkpt>
      <trkpt lat="46.56704" lon="6.52746">
        <ele>403.6</ele>
        <time>2022-09-28T12:46:47Z</time>
      </trkpt>
      <trkpt lat="46.56704" lon="6.52748">
        <ele>403.6</ele>
        <time>2022-09-28T12:46:48Z</time>
      </trkpt>
      <trkpt lat="46.56705" lon="6.52753">
        <ele>403.6</ele>
        <time>2022-09-28T12:46:49Z</time>
      </trkpt>
      <trkpt lat="46.56705" lon="6.52755">
        <ele>403.6</ele>
        <time>2022-09-28T12:46:50Z</time>
      </trkpt>
      <trkpt lat="46.56705" lon="6.52759">
        <ele>403.6</ele>
        <time>2022-09-28T12:46:51Z</time>
      </trkpt>
      <trkpt lat="46.56706" lon="6.52763">
        <ele>403.6</ele>
        <time>2022-09-28T12:46:52Z</time>
      </trkpt>
      <trkpt lat="46.56707" lon="6.52767">
        <ele>403.6</ele>
        <time>2022-09-28T12:46:53Z</time>
      </trkpt>
      <trkpt lat="46.56708" lon="6.52768">
        <ele>403.6</ele>
        <time>2022-09-28T12:46:54Z</time>
      </trkpt>
      <trkpt lat="46.56709" lon="6.52771">
        <ele>403.6</ele>
        <time>2022-09-28T12:46:55Z</time>
      </trkpt>
      <trkpt lat="46.5671" lon="6.52772">
        <ele>403.6</ele>
        <time>2022-09-28T12:46:56Z</time>
      </trkpt>
      <trkpt lat="46.56712" lon="6.52775">
        <ele>403.6</ele>
        <time>2022-09-28T12:46:57Z</time>
      </trkpt>
      <trkpt lat="46.56713" lon="6.52776">
        <ele>403.7</ele>
        <time>2022-09-28T12:46:58Z</time>
      </trkpt>
      <trkpt lat="46.56715" lon="6.52779">
        <ele>403.7</ele>
        <time>2022-09-28T12:46:59Z</time>
      </trkpt>
      <trkpt lat="46.56716" lon="6.5278">
        <ele>403.7</ele>
        <time>2022-09-28T12:47:00Z</time>
      </trkpt>
      <trkpt lat="46.56718" lon="6.52783">
        <ele>403.7</ele>
        <time>2022-09-28T12:47:01Z</time>
      </trkpt>
      <trkpt lat="46.56719" lon="6.52784">
        <ele>403.7</ele>
        <time>2022-09-28T12:47:02Z</time>
      </trkpt>
      <trkpt lat="46.56722" lon="6.52784">
        <ele>403.7</ele>
        <time>2022-09-28T12:47:03Z</time>
      </trkpt>
      <trkpt lat="46.56723" lon="6.52784">
        <ele>403.7</ele>
        <time>2022-09-28T12:47:04Z</time>
      </trkpt>
      <trkpt lat="46.56726" lon="6.52785">
        <ele>403.7</ele>
        <time>2022-09-28T12:47:05Z</time>
      </trkpt>
      <trkpt lat="46.56727" lon="6.52785">
        <ele>403.7</ele>
        <time>2022-09-28T12:47:06Z</time>
      </trkpt>
      <trkpt lat="46.5673" lon="6.52786">
        <ele>403.7</ele>
        <time>2022-09-28T12:47:07Z</time>
      </trkpt>
      <trkpt lat="46.56731" lon="6.52786">
        <ele>403.7</ele>
        <time>2022-09-28T12:47:08Z</time>
      </trkpt>
      <trkpt lat="46.56733" lon="6.52786">
        <ele>403.8</ele>
        <time>2022-09-28T12:47:09Z</time>
      </trkpt>
      <trkpt lat="46.56734" lon="6.52787">
        <ele>403.8</ele>
        <time>2022-09-28T12:47:10Z</time>
      </trkpt>
      <trkpt lat="46.56736" lon="6.52787">
        <ele>403.8</ele>
        <time>2022-09-28T12:47:11Z</time>
      </trkpt>
      <trkpt lat="46.56738" lon="6.52787">
        <ele>403.8</ele>
        <time>2022-09-28T12:47:12Z</time>
      </trkpt>
      <trkpt lat="46.56739" lon="6.52788">
        <ele>403.8</ele>
        <time>2022-09-28T12:47:13Z</time>
      </trkpt>
      <trkpt lat="46.56741" lon="6.52788">
        <ele>403.8</ele>
        <time>2022-09-28T12:47:14Z</time>
      </trkpt>
      <trkpt lat="46.56744" lon="6.52789">
        <ele>403.8</ele>
        <time>2022-09-28T12:47:15Z</time>
      </trkpt>
      <trkpt lat="46.56745" lon="6.5279">
        <ele>403.8</ele>
        <time>2022-09-28T12:47:16Z</time>
      </trkpt>
      <trkpt lat="46.56747" lon="6.52791">
        <ele>403.8</ele>
        <time>2022-09-28T12:47:17Z</time>
      </trkpt>
      <trkpt lat="46.56748" lon="6.52792">
        <ele>403.8</ele>
        <time>2022-09-28T12:47:18Z</time>
      </trkpt>
      <trkpt lat="46.56751" lon="6.52794">
        <ele>403.8</ele>
        <time>2022-09-28T12:47:19Z</time>
      </trkpt>
      <trkpt lat="46.56754" lon="6.52795">
        <ele>403.8</ele>
        <time>2022-09-28T12:47:20Z</time>
      </trkpt>
      <trkpt lat="46.56755" lon="6.52795">
        <ele>403.8</ele>
        <time>2022-09-28T12:47:21Z</time>
      </trkpt>
      <trkpt lat="46.56759" lon="6.52797">
        <ele>403.8</ele>
        <time>2022-09-28T12:47:22Z</time>
      </trkpt>
      <trkpt lat="46.56761" lon="6.52798">
        <ele>403.8</ele>
        <time>2022-09-28T12:47:23Z</time>
      </trkpt>
      <trkpt lat="46.56762" lon="6.52799">
        <ele>403.8</ele>
        <time>2022-09-28T12:47:24Z</time>
      </trkpt>
      <trkpt lat="46.56766" lon="6.528">
        <ele>403.8</ele>
        <time>2022-09-28T12:47:25Z</time>
      </trkpt>
      <trkpt lat="46.56768" lon="6.528">
        <ele>403.8</ele>
        <time>2022-09-28T12:47:26Z</time>
      </trkpt>
      <trkpt lat="46.5677" lon="6.52801">
        <ele>403.8</ele>
        <time>2022-09-28T12:47:27Z</time>
      </trkpt>
      <trkpt lat="46.56771" lon="6.52801">
        <ele>403.8</ele>
        <time>2022-09-28T12:47:28Z</time>
      </trkpt>
      <trkpt lat="46.56773" lon="6.52802">
        <ele>403.9</ele>
        <time>2022-09-28T12:47:29Z</time>
      </trkpt>
      <trkpt lat="46.56774" lon="6.52803">
        <ele>403.9</ele>
        <time>2022-09-28T12:47:30Z</time>
      </trkpt>
      <trkpt lat="46.56777" lon="6.52804">
        <ele>403.9</ele>
        <time>2022-09-28T12:47:31Z</time>
      </trkpt>
      <trkpt lat="46.56779" lon="6.52805">
        <ele>403.9</ele>
        <time>2022-09-28T12:47:32Z</time>
      </trkpt>
      <trkpt lat="46.56782" lon="6.52806">
        <ele>403.9</ele>
        <time>2022-09-28T12:47:33Z</time>
      </trkpt>
      <trkpt lat="46.56783" lon="6.52806">
        <ele>403.9</ele>
        <time>2022-09-28T12:47:34Z</time>
      </trkpt>
      <trkpt lat="46.56785" lon="6.52805">
        <ele>403.9</ele>
        <time>2022-09-28T12:47:35Z</time>
      </trkpt>
      <trkpt lat="46.56787" lon="6.52804">
        <ele>403.9</ele>
        <time>2022-09-28T12:47:36Z</time>
      </trkpt>
      <trkpt lat="46.5679" lon="6.52802">
        <ele>403.9</ele>
        <time>2022-09-28T12:47:37Z</time>
      </trkpt>
      <trkpt lat="46.56791" lon="6.52801">
        <ele>403.9</ele>
        <time>2022-09-28T12:47:38Z</time>
      </trkpt>
      <trkpt lat="46.56793" lon="6.52799">
        <ele>403.9</ele>
        <time>2022-09-28T12:47:39Z</time>
      </trkpt>
      <trkpt lat="46.56794" lon="6.52798">
        <ele>403.9</ele>
        <time>2022-09-28T12:47:40Z</time>
      </trkpt>
      <trkpt lat="46.56798" lon="6.52795">
        <ele>403.9</ele>
        <time>2022-09-28T12:47:41Z</time>
      </trkpt>
      <trkpt lat="46.56799" lon="6.52794">
        <ele>403.9</ele>
        <time>2022-09-28T12:47:42Z</time>
      </trkpt>
      <trkpt lat="46.56803" lon="6.52793">
        <ele>404</ele>
        <time>2022-09-28T12:47:43Z</time>
      </trkpt>
      <trkpt lat="46.56804" lon="6.52792">
        <ele>404</ele>
        <time>2022-09-28T12:47:44Z</time>
      </trkpt>
      <trkpt lat="46.56808" lon="6.52791">
        <ele>404</ele>
        <time>2022-09-28T12:47:45Z</time>
      </trkpt>
      <trkpt lat="46.56809" lon="6.52791">
        <ele>404</ele>
        <time>2022-09-28T12:47:46Z</time>
      </trkpt>
      <trkpt lat="46.56811" lon="6.5279">
        <ele>404</ele>
        <time>2022-09-28T12:47:47Z</time>
      </trkpt>
      <trkpt lat="46.56812" lon="6.5279">
        <ele>404</ele>
        <time>2022-09-28T12:47:48Z</time>
      </trkpt>
      <trkpt lat="46.56816" lon="6.52791">
        <ele>404</ele>
        <time>2022-09-28T12:47:49Z</time>
      </trkpt>
      <trkpt lat="46.56818" lon="6.52792">
        <ele>404</ele>
        <time>2022-09-28T12:47:50Z</time>
      </trkpt>
      <trkpt lat="46.56821" lon="6.52793">
        <ele>404</ele>
        <time>2022-09-28T12:47:51Z</time>
      </trkpt>
      <trkpt lat="46.56822" lon="6.52793">
        <ele>404</ele>
        <time>2022-09-28T12:47:52Z</time>
      </trkpt>
      <trkpt lat="46.56826" lon="6.52792">
        <ele>404</ele>
        <time>2022-09-28T12:47:53Z</time>
      </trkpt>
      <trkpt lat="46.56827" lon="6.52792">
        <ele>404</ele>
        <time>2022-09-28T12:47:54Z</time>
      </trkpt>
      <trkpt lat="46.5683" lon="6.5279">
        <ele>404</ele>
        <time>2022-09-28T12:47:55Z</time>
      </trkpt>
      <trkpt lat="46.56831" lon="6.5279">
        <ele>404</ele>
        <time>2022-09-28T12:47:56Z</time>
      </trkpt>
      <trkpt lat="46.56834" lon="6.52788">
        <ele>404</ele>
        <time>2022-09-28T12:47:57Z</time>
      </trkpt>
      <trkpt lat="46.56838" lon="6.52786">
        <ele>404</ele>
        <time>2022-09-28T12:47:58Z</time>
      </trkpt>
      <trkpt lat="46.56842" lon="6.52783">
        <ele>404</ele>
        <time>2022-09-28T12:47:59Z</time>
      </trkpt>
      <trkpt lat="46.56845" lon="6.52781">
        <ele>404</ele>
        <time>2022-09-28T12:48:00Z</time>
      </trkpt>
      <trkpt lat="46.56847" lon="6.52779">
        <ele>404</ele>
        <time>2022-09-28T12:48:01Z</time>
      </trkpt>
      <trkpt lat="46.5685" lon="6.52776">
        <ele>404</ele>
        <time>2022-09-28T12:48:02Z</time>
      </trkpt>
      <trkpt lat="46.56853" lon="6.52773">
        <ele>404</ele>
        <time>2022-09-28T12:48:03Z</time>
      </trkpt>
      <trkpt lat="46.56855" lon="6.52772">
        <ele>404</ele>
        <time>2022-09-28T12:48:04Z</time>
      </trkpt>
      <trkpt lat="46.56857" lon="6.52769">
        <ele>404.1</ele>
        <time>2022-09-28T12:48:05Z</time>
      </trkpt>
      <trkpt lat="46.5686" lon="6.52767">
        <ele>404.1</ele>
        <time>2022-09-28T12:48:06Z</time>
      </trkpt>
      <trkpt lat="46.56863" lon="6.52765">
        <ele>404.1</ele>
        <time>2022-09-28T12:48:07Z</time>
      </trkpt>
      <trkpt lat="46.56864" lon="6.52764">
        <ele>404.1</ele>
        <time>2022-09-28T12:48:08Z</time>
      </trkpt>
      <trkpt lat="46.56868" lon="6.52761">
        <ele>404.1</ele>
        <time>2022-09-28T12:48:09Z</time>
      </trkpt>
      <trkpt lat="46.56869" lon="6.52761">
        <ele>404.1</ele>
        <time>2022-09-28T12:48:10Z</time>
      </trkpt>
      <trkpt lat="46.56872" lon="6.5276">
        <ele>404.1</ele>
        <time>2022-09-28T12:48:11Z</time>
      </trkpt>
      <trkpt lat="46.56876" lon="6.52759">
        <ele>404.1</ele>
        <time>2022-09-28T12:48:12Z</time>
      </trkpt>
      <trkpt lat="46.56876" lon="6.52758">
        <ele>404.1</ele>
        <time>2022-09-28T12:48:13Z</time>
      </trkpt>
      <trkpt lat="46.5688" lon="6.52758">
        <ele>404.1</ele>
        <time>2022-09-28T12:48:14Z</time>
      </trkpt>
      <trkpt lat="46.56881" lon="6.52759">
        <ele>404.1</ele>
        <time>2022-09-28T12:48:15Z</time>
      </trkpt>
      <trkpt lat="46.56885" lon="6.52761">
        <ele>404.1</ele>
        <time>2022-09-28T12:48:16Z</time>
      </trkpt>
      <trkpt lat="46.56888" lon="6.52762">
        <ele>404.1</ele>
        <time>2022-09-28T12:48:17Z</time>
      </trkpt>
      <trkpt lat="46.56891" lon="6.52765">
        <ele>404.1</ele>
        <time>2022-09-28T12:48:18Z</time>
      </trkpt>
      <trkpt lat="46.56894" lon="6.52767">
        <ele>404.1</ele>
        <time>2022-09-28T12:48:19Z</time>
      </trkpt>
      <trkpt lat="46.56897" lon="6.52768">
        <ele>404.1</ele>
        <time>2022-09-28T12:48:20Z</time>
      </trkpt>
      <trkpt lat="46.56897" lon="6.52768">
        <ele>404.1</ele>
        <time>2022-09-28T12:48:21Z</time>
      </trkpt>
      <trkpt lat="46.56901" lon="6.52769">
        <ele>404.1</ele>
        <time>2022-09-28T12:48:22Z</time>
      </trkpt>
      <trkpt lat="46.56903" lon="6.52769">
        <ele>404.1</ele>
        <time>2022-09-28T12:48:23Z</time>
      </trkpt>
      <trkpt lat="46.56907" lon="6.5277">
        <ele>404.1</ele>
        <time>2022-09-28T12:48:24Z</time>
      </trkpt>
      <trkpt lat="46.56911" lon="6.52772">
        <ele>404.2</ele>
        <time>2022-09-28T12:48:25Z</time>
      </trkpt>
      <trkpt lat="46.56912" lon="6.52773">
        <ele>404.2</ele>
        <time>2022-09-28T12:48:26Z</time>
      </trkpt>
      <trkpt lat="46.56915" lon="6.52775">
        <ele>404.2</ele>
        <time>2022-09-28T12:48:28Z</time>
      </trkpt>
      <trkpt lat="46.56917" lon="6.52777">
        <ele>404.2</ele>
        <time>2022-09-28T12:48:29Z</time>
      </trkpt>
      <trkpt lat="46.5692" lon="6.5278">
        <ele>404.2</ele>
        <time>2022-09-28T12:48:30Z</time>
      </trkpt>
      <trkpt lat="46.56923" lon="6.52783">
        <ele>404.2</ele>
        <time>2022-09-28T12:48:31Z</time>
      </trkpt>
      <trkpt lat="46.56926" lon="6.52786">
        <ele>404.2</ele>
        <time>2022-09-28T12:48:32Z</time>
      </trkpt>
      <trkpt lat="46.5693" lon="6.52793">
        <ele>404.3</ele>
        <time>2022-09-28T12:48:33Z</time>
      </trkpt>
      <trkpt lat="46.56931" lon="6.52795">
        <ele>404.3</ele>
        <time>2022-09-28T12:48:34Z</time>
      </trkpt>
      <trkpt lat="46.56933" lon="6.52799">
        <ele>404.3</ele>
        <time>2022-09-28T12:48:36Z</time>
      </trkpt>
      <trkpt lat="46.56935" lon="6.52806">
        <ele>404.3</ele>
        <time>2022-09-28T12:48:37Z</time>
      </trkpt>
      <trkpt lat="46.56936" lon="6.5281">
        <ele>404.3</ele>
        <time>2022-09-28T12:48:38Z</time>
      </trkpt>
      <trkpt lat="46.56936" lon="6.52811">
        <ele>404.3</ele>
        <time>2022-09-28T12:48:39Z</time>
      </trkpt>
      <trkpt lat="46.56937" lon="6.52816">
        <ele>404.3</ele>
        <time>2022-09-28T12:48:40Z</time>
      </trkpt>
      <trkpt lat="46.56937" lon="6.52818">
        <ele>404.3</ele>
        <time>2022-09-28T12:48:41Z</time>
      </trkpt>
      <trkpt lat="46.56939" lon="6.52823">
        <ele>404.4</ele>
        <time>2022-09-28T12:48:42Z</time>
      </trkpt>
      <trkpt lat="46.5694" lon="6.52825">
        <ele>404.4</ele>
        <time>2022-09-28T12:48:43Z</time>
      </trkpt>
      <trkpt lat="46.56943" lon="6.52828">
        <ele>404.4</ele>
        <time>2022-09-28T12:48:44Z</time>
      </trkpt>
      <trkpt lat="46.56945" lon="6.52831">
        <ele>404.4</ele>
        <time>2022-09-28T12:48:45Z</time>
      </trkpt>
      <trkpt lat="46.56947" lon="6.52834">
        <ele>404.5</ele>
        <time>2022-09-28T12:48:46Z</time>
      </trkpt>
      <trkpt lat="46.56948" lon="6.52835">
        <ele>404.5</ele>
        <time>2022-09-28T12:48:47Z</time>
      </trkpt>
      <trkpt lat="46.56951" lon="6.52838">
        <ele>404.5</ele>
        <time>2022-09-28T12:48:48Z</time>
      </trkpt>
      <trkpt lat="46.56951" lon="6.52839">
        <ele>404.5</ele>
        <time>2022-09-28T12:48:49Z</time>
      </trkpt>
      <trkpt lat="46.56952" lon="6.5284">
        <ele>404.5</ele>
        <time>2022-09-28T12:48:50Z</time>
      </trkpt>
      <trkpt lat="46.56953" lon="6.52843">
        <ele>404.6</ele>
        <time>2022-09-28T12:48:51Z</time>
      </trkpt>
      <trkpt lat="46.56954" lon="6.52845">
        <ele>404.6</ele>
        <time>2022-09-28T12:48:52Z</time>
      </trkpt>
      <trkpt lat="46.56955" lon="6.52846">
        <ele>404.6</ele>
        <time>2022-09-28T12:48:53Z</time>
      </trkpt>
      <trkpt lat="46.56958" lon="6.5285">
        <ele>404.6</ele>
        <time>2022-09-28T12:48:54Z</time>
      </trkpt>
      <trkpt lat="46.56959" lon="6.52851">
        <ele>404.6</ele>
        <time>2022-09-28T12:48:55Z</time>
      </trkpt>
      <trkpt lat="46.56962" lon="6.52853">
        <ele>404.6</ele>
        <time>2022-09-28T12:48:56Z</time>
      </trkpt>
      <trkpt lat="46.56964" lon="6.52857">
        <ele>404.6</ele>
        <time>2022-09-28T12:48:57Z</time>
      </trkpt>
      <trkpt lat="46.56965" lon="6.52858">
        <ele>404.6</ele>
        <time>2022-09-28T12:48:58Z</time>
      </trkpt>
      <trkpt lat="46.56969" lon="6.52862">
        <ele>404.6</ele>
        <time>2022-09-28T12:48:59Z</time>
      </trkpt>
      <trkpt lat="46.5697" lon="6.52863">
        <ele>404.6</ele>
        <time>2022-09-28T12:49:00Z</time>
      </trkpt>
      <trkpt lat="46.56973" lon="6.52866">
        <ele>404.7</ele>
        <time>2022-09-28T12:49:01Z</time>
      </trkpt>
      <trkpt lat="46.56975" lon="6.52868">
        <ele>404.7</ele>
        <time>2022-09-28T12:49:02Z</time>
      </trkpt>
      <trkpt lat="46.56977" lon="6.5287">
        <ele>404.7</ele>
        <time>2022-09-28T12:49:03Z</time>
      </trkpt>
      <trkpt lat="46.5698" lon="6.52873">
        <ele>404.8</ele>
        <time>2022-09-28T12:49:04Z</time>
      </trkpt>
      <trkpt lat="46.56981" lon="6.52874">
        <ele>404.8</ele>
        <time>2022-09-28T12:49:05Z</time>
      </trkpt>
      <trkpt lat="46.56984" lon="6.52877">
        <ele>404.9</ele>
        <time>2022-09-28T12:49:06Z</time>
      </trkpt>
      <trkpt lat="46.56986" lon="6.52878">
        <ele>404.9</ele>
        <time>2022-09-28T12:49:07Z</time>
      </trkpt>
      <trkpt lat="46.56988" lon="6.5288">
        <ele>405</ele>
        <time>2022-09-28T12:49:08Z</time>
      </trkpt>
      <trkpt lat="46.56989" lon="6.5288">
        <ele>405</ele>
        <time>2022-09-28T12:49:09Z</time>
      </trkpt>
      <trkpt lat="46.56992" lon="6.52882">
        <ele>405</ele>
        <time>2022-09-28T12:49:10Z</time>
      </trkpt>
      <trkpt lat="46.56993" lon="6.52883">
        <ele>405.1</ele>
        <time>2022-09-28T12:49:11Z</time>
      </trkpt>
      <trkpt lat="46.56996" lon="6.52884">
        <ele>405.1</ele>
        <time>2022-09-28T12:49:12Z</time>
      </trkpt>
      <trkpt lat="46.56999" lon="6.52886">
        <ele>405.2</ele>
        <time>2022-09-28T12:49:13Z</time>
      </trkpt>
      <trkpt lat="46.57" lon="6.52887">
        <ele>405.2</ele>
        <time>2022-09-28T12:49:14Z</time>
      </trkpt>
      <trkpt lat="46.57003" lon="6.5289">
        <ele>405.3</ele>
        <time>2022-09-28T12:49:15Z</time>
      </trkpt>
      <trkpt lat="46.57004" lon="6.52891">
        <ele>405.3</ele>
        <time>2022-09-28T12:49:16Z</time>
      </trkpt>
      <trkpt lat="46.57007" lon="6.52893">
        <ele>405.4</ele>
        <time>2022-09-28T12:49:17Z</time>
      </trkpt>
      <trkpt lat="46.5701" lon="6.52895">
        <ele>405.4</ele>
        <time>2022-09-28T12:49:18Z</time>
      </trkpt>
      <trkpt lat="46.57012" lon="6.52896">
        <ele>405.5</ele>
        <time>2022-09-28T12:49:19Z</time>
      </trkpt>
      <trkpt lat="46.57014" lon="6.52898">
        <ele>405.5</ele>
        <time>2022-09-28T12:49:20Z</time>
      </trkpt>
      <trkpt lat="46.57017" lon="6.529">
        <ele>405.6</ele>
        <time>2022-09-28T12:49:21Z</time>
      </trkpt>
      <trkpt lat="46.5702" lon="6.52903">
        <ele>405.7</ele>
        <time>2022-09-28T12:49:22Z</time>
      </trkpt>
      <trkpt lat="46.57022" lon="6.52904">
        <ele>405.7</ele>
        <time>2022-09-28T12:49:23Z</time>
      </trkpt>
      <trkpt lat="46.57024" lon="6.52907">
        <ele>405.8</ele>
        <time>2022-09-28T12:49:24Z</time>
      </trkpt>
      <trkpt lat="46.57027" lon="6.52908">
        <ele>405.8</ele>
        <time>2022-09-28T12:49:25Z</time>
      </trkpt>
      <trkpt lat="46.57028" lon="6.52908">
        <ele>405.8</ele>
        <time>2022-09-28T12:49:26Z</time>
      </trkpt>
      <trkpt lat="46.57031" lon="6.52909">
        <ele>405.9</ele>
        <time>2022-09-28T12:49:27Z</time>
      </trkpt>
      <trkpt lat="46.57032" lon="6.5291">
        <ele>405.9</ele>
        <time>2022-09-28T12:49:28Z</time>
      </trkpt>
      <trkpt lat="46.57035" lon="6.5291">
        <ele>406</ele>
        <time>2022-09-28T12:49:29Z</time>
      </trkpt>
      <trkpt lat="46.57039" lon="6.52911">
        <ele>406</ele>
        <time>2022-09-28T12:49:30Z</time>
      </trkpt>
      <trkpt lat="46.5704" lon="6.52911">
        <ele>406</ele>
        <time>2022-09-28T12:49:31Z</time>
      </trkpt>
      <trkpt lat="46.57044" lon="6.52912">
        <ele>406</ele>
        <time>2022-09-28T12:49:32Z</time>
      </trkpt>
      <trkpt lat="46.57044" lon="6.52912">
        <ele>406</ele>
        <time>2022-09-28T12:49:33Z</time>
      </trkpt>
      <trkpt lat="46.57047" lon="6.52913">
        <ele>406.1</ele>
        <time>2022-09-28T12:49:34Z</time>
      </trkpt>
      <trkpt lat="46.5705" lon="6.52913">
        <ele>406.1</ele>
        <time>2022-09-28T12:49:35Z</time>
      </trkpt>
      <trkpt lat="46.57051" lon="6.52913">
        <ele>406.1</ele>
        <time>2022-09-28T12:49:36Z</time>
      </trkpt>
      <trkpt lat="46.57054" lon="6.52914">
        <ele>406.1</ele>
        <time>2022-09-28T12:49:37Z</time>
      </trkpt>
      <trkpt lat="46.57057" lon="6.52914">
        <ele>406.1</ele>
        <time>2022-09-28T12:49:38Z</time>
      </trkpt>
      <trkpt lat="46.57058" lon="6.52914">
        <ele>406.2</ele>
        <time>2022-09-28T12:49:39Z</time>
      </trkpt>
      <trkpt lat="46.57062" lon="6.52915">
        <ele>406.2</ele>
        <time>2022-09-28T12:49:40Z</time>
      </trkpt>
      <trkpt lat="46.57063" lon="6.52916">
        <ele>406.2</ele>
        <time>2022-09-28T12:49:41Z</time>
      </trkpt>
      <trkpt lat="46.57067" lon="6.52916">
        <ele>406.2</ele>
        <time>2022-09-28T12:49:42Z</time>
      </trkpt>
      <trkpt lat="46.57067" lon="6.52916">
        <ele>406.2</ele>
        <time>2022-09-28T12:49:43Z</time>
      </trkpt>
      <trkpt lat="46.5707" lon="6.52917">
        <ele>406.3</ele>
        <time>2022-09-28T12:49:44Z</time>
      </trkpt>
      <trkpt lat="46.57073" lon="6.52917">
        <ele>406.3</ele>
        <time>2022-09-28T12:49:45Z</time>
      </trkpt>
      <trkpt lat="46.57076" lon="6.52918">
        <ele>406.3</ele>
        <time>2022-09-28T12:49:46Z</time>
      </trkpt>
      <trkpt lat="46.57079" lon="6.52919">
        <ele>406.4</ele>
        <time>2022-09-28T12:49:47Z</time>
      </trkpt>
      <trkpt lat="46.57081" lon="6.52919">
        <ele>406.4</ele>
        <time>2022-09-28T12:49:48Z</time>
      </trkpt>
      <trkpt lat="46.57084" lon="6.52919">
        <ele>406.4</ele>
        <time>2022-09-28T12:49:49Z</time>
      </trkpt>
      <trkpt lat="46.57087" lon="6.5292">
        <ele>406.4</ele>
        <time>2022-09-28T12:49:50Z</time>
      </trkpt>
      <trkpt lat="46.57091" lon="6.52921">
        <ele>406.5</ele>
        <time>2022-09-28T12:49:51Z</time>
      </trkpt>
      <trkpt lat="46.57092" lon="6.52921">
        <ele>406.5</ele>
        <time>2022-09-28T12:49:52Z</time>
      </trkpt>
      <trkpt lat="46.57095" lon="6.52923">
        <ele>406.5</ele>
        <time>2022-09-28T12:49:53Z</time>
      </trkpt>
      <trkpt lat="46.57099" lon="6.52923">
        <ele>406.6</ele>
        <time>2022-09-28T12:49:54Z</time>
      </trkpt>
      <trkpt lat="46.57101" lon="6.52924">
        <ele>406.6</ele>
        <time>2022-09-28T12:49:55Z</time>
      </trkpt>
      <trkpt lat="46.57105" lon="6.52925">
        <ele>406.6</ele>
        <time>2022-09-28T12:49:56Z</time>
      </trkpt>
      <trkpt lat="46.57106" lon="6.52925">
        <ele>406.6</ele>
        <time>2022-09-28T12:49:57Z</time>
      </trkpt>
      <trkpt lat="46.5711" lon="6.52926">
        <ele>406.7</ele>
        <time>2022-09-28T12:49:58Z</time>
      </trkpt>
      <trkpt lat="46.57111" lon="6.52926">
        <ele>406.7</ele>
        <time>2022-09-28T12:49:59Z</time>
      </trkpt>
      <trkpt lat="46.57114" lon="6.52927">
        <ele>406.7</ele>
        <time>2022-09-28T12:50:00Z</time>
      </trkpt>
      <trkpt lat="46.57117" lon="6.52927">
        <ele>406.7</ele>
        <time>2022-09-28T12:50:01Z</time>
      </trkpt>
      <trkpt lat="46.5712" lon="6.52928">
        <ele>406.8</ele>
        <time>2022-09-28T12:50:02Z</time>
      </trkpt>
      <trkpt lat="46.57123" lon="6.52929">
        <ele>406.8</ele>
        <time>2022-09-28T12:50:03Z</time>
      </trkpt>
      <trkpt lat="46.57125" lon="6.5293">
        <ele>406.8</ele>
        <time>2022-09-28T12:50:04Z</time>
      </trkpt>
      <trkpt lat="46.57129" lon="6.52931">
        <ele>406.8</ele>
        <time>2022-09-28T12:50:05Z</time>
      </trkpt>
      <trkpt lat="46.57133" lon="6.52931">
        <ele>406.8</ele>
        <time>2022-09-28T12:50:06Z</time>
      </trkpt>
      <trkpt lat="46.57135" lon="6.52931">
        <ele>406.8</ele>
        <time>2022-09-28T12:50:07Z</time>
      </trkpt>
      <trkpt lat="46.57137" lon="6.52931">
        <ele>406.8</ele>
        <time>2022-09-28T12:50:08Z</time>
      </trkpt>
      <trkpt lat="46.5714" lon="6.52932">
        <ele>406.8</ele>
        <time>2022-09-28T12:50:09Z</time>
      </trkpt>
      <trkpt lat="46.57141" lon="6.52933">
        <ele>406.8</ele>
        <time>2022-09-28T12:50:10Z</time>
      </trkpt>
      <trkpt lat="46.57144" lon="6.52933">
        <ele>406.8</ele>
        <time>2022-09-28T12:50:11Z</time>
      </trkpt>
      <trkpt lat="46.57145" lon="6.52933">
        <ele>406.8</ele>
        <time>2022-09-28T12:50:12Z</time>
      </trkpt>
      <trkpt lat="46.57149" lon="6.52933">
        <ele>406.8</ele>
        <time>2022-09-28T12:50:13Z</time>
      </trkpt>
      <trkpt lat="46.57151" lon="6.52934">
        <ele>406.8</ele>
        <time>2022-09-28T12:50:14Z</time>
      </trkpt>
      <trkpt lat="46.57154" lon="6.52934">
        <ele>406.8</ele>
        <time>2022-09-28T12:50:15Z</time>
      </trkpt>
      <trkpt lat="46.57155" lon="6.52934">
        <ele>406.8</ele>
        <time>2022-09-28T12:50:16Z</time>
      </trkpt>
      <trkpt lat="46.57158" lon="6.52936">
        <ele>406.8</ele>
        <time>2022-09-28T12:50:17Z</time>
      </trkpt>
      <trkpt lat="46.57161" lon="6.52937">
        <ele>406.8</ele>
        <time>2022-09-28T12:50:18Z</time>
      </trkpt>
      <trkpt lat="46.57165" lon="6.52937">
        <ele>406.8</ele>
        <time>2022-09-28T12:50:19Z</time>
      </trkpt>
      <trkpt lat="46.57167" lon="6.52937">
        <ele>406.8</ele>
        <time>2022-09-28T12:50:20Z</time>
      </trkpt>
      <trkpt lat="46.5717" lon="6.52939">
        <ele>406.8</ele>
        <time>2022-09-28T12:50:21Z</time>
      </trkpt>
      <trkpt lat="46.57173" lon="6.52941">
        <ele>406.8</ele>
        <time>2022-09-28T12:50:22Z</time>
      </trkpt>
      <trkpt lat="46.57177" lon="6.5294">
        <ele>406.8</ele>
        <time>2022-09-28T12:50:23Z</time>
      </trkpt>
      <trkpt lat="46.57179" lon="6.5294">
        <ele>406.8</ele>
        <time>2022-09-28T12:50:24Z</time>
      </trkpt>
      <trkpt lat="46.57183" lon="6.52941">
        <ele>406.8</ele>
        <time>2022-09-28T12:50:25Z</time>
      </trkpt>
      <trkpt lat="46.57184" lon="6.52941">
        <ele>406.8</ele>
        <time>2022-09-28T12:50:26Z</time>
      </trkpt>
      <trkpt lat="46.57188" lon="6.52942">
        <ele>406.8</ele>
        <time>2022-09-28T12:50:27Z</time>
      </trkpt>
      <trkpt lat="46.57191" lon="6.52943">
        <ele>406.8</ele>
        <time>2022-09-28T12:50:28Z</time>
      </trkpt>
      <trkpt lat="46.57195" lon="6.52944">
        <ele>406.9</ele>
        <time>2022-09-28T12:50:29Z</time>
      </trkpt>
      <trkpt lat="46.57198" lon="6.52945">
        <ele>406.9</ele>
        <time>2022-09-28T12:50:30Z</time>
      </trkpt>
      <trkpt lat="46.572" lon="6.52946">
        <ele>406.9</ele>
        <time>2022-09-28T12:50:31Z</time>
      </trkpt>
      <trkpt lat="46.57203" lon="6.52948">
        <ele>406.9</ele>
        <time>2022-09-28T12:50:32Z</time>
      </trkpt>
      <trkpt lat="46.57206" lon="6.52948">
        <ele>406.9</ele>
        <time>2022-09-28T12:50:33Z</time>
      </trkpt>
      <trkpt lat="46.57209" lon="6.52948">
        <ele>406.9</ele>
        <time>2022-09-28T12:50:34Z</time>
      </trkpt>
      <trkpt lat="46.57213" lon="6.52949">
        <ele>406.9</ele>
        <time>2022-09-28T12:50:36Z</time>
      </trkpt>
      <trkpt lat="46.57217" lon="6.52951">
        <ele>407</ele>
        <time>2022-09-28T12:50:37Z</time>
      </trkpt>
      <trkpt lat="46.5722" lon="6.52952">
        <ele>407</ele>
        <time>2022-09-28T12:50:38Z</time>
      </trkpt>
      <trkpt lat="46.57226" lon="6.52953">
        <ele>407</ele>
        <time>2022-09-28T12:50:39Z</time>
      </trkpt>
      <trkpt lat="46.5723" lon="6.52954">
        <ele>407.1</ele>
        <time>2022-09-28T12:50:40Z</time>
      </trkpt>
      <trkpt lat="46.57238" lon="6.52955">
        <ele>407.1</ele>
        <time>2022-09-28T12:50:42Z</time>
      </trkpt>
      <trkpt lat="46.57243" lon="6.52955">
        <ele>407.2</ele>
        <time>2022-09-28T12:50:43Z</time>
      </trkpt>
      <trkpt lat="46.57246" lon="6.52956">
        <ele>407.2</ele>
        <time>2022-09-28T12:50:44Z</time>
      </trkpt>
      <trkpt lat="46.5725" lon="6.52958">
        <ele>407.3</ele>
        <time>2022-09-28T12:50:45Z</time>
      </trkpt>
      <trkpt lat="46.57251" lon="6.52958">
        <ele>407.3</ele>
        <time>2022-09-28T12:50:46Z</time>
      </trkpt>
      <trkpt lat="46.57256" lon="6.5296">
        <ele>407.4</ele>
        <time>2022-09-28T12:50:48Z</time>
      </trkpt>
      <trkpt lat="46.57258" lon="6.5296">
        <ele>407.4</ele>
        <time>2022-09-28T12:50:49Z</time>
      </trkpt>
      <trkpt lat="46.5726" lon="6.5296">
        <ele>407.4</ele>
        <time>2022-09-28T12:50:50Z</time>
      </trkpt>
      <trkpt lat="46.57263" lon="6.52961">
        <ele>407.5</ele>
        <time>2022-09-28T12:50:51Z</time>
      </trkpt>
      <trkpt lat="46.57267" lon="6.52962">
        <ele>407.5</ele>
        <time>2022-09-28T12:50:52Z</time>
      </trkpt>
      <trkpt lat="46.57268" lon="6.52963">
        <ele>407.5</ele>
        <time>2022-09-28T12:50:53Z</time>
      </trkpt>
      <trkpt lat="46.57271" lon="6.52963">
        <ele>407.6</ele>
        <time>2022-09-28T12:50:54Z</time>
      </trkpt>
      <trkpt lat="46.57275" lon="6.52964">
        <ele>407.6</ele>
        <time>2022-09-28T12:50:55Z</time>
      </trkpt>
      <trkpt lat="46.57278" lon="6.52965">
        <ele>407.7</ele>
        <time>2022-09-28T12:50:56Z</time>
      </trkpt>
      <trkpt lat="46.57281" lon="6.52965">
        <ele>407.7</ele>
        <time>2022-09-28T12:50:57Z</time>
      </trkpt>
      <trkpt lat="46.57284" lon="6.52967">
        <ele>407.7</ele>
        <time>2022-09-28T12:50:58Z</time>
      </trkpt>
      <trkpt lat="46.57287" lon="6.52968">
        <ele>407.8</ele>
        <time>2022-09-28T12:50:59Z</time>
      </trkpt>
      <trkpt lat="46.57289" lon="6.52969">
        <ele>407.8</ele>
        <time>2022-09-28T12:51:00Z</time>
      </trkpt>
      <trkpt lat="46.57293" lon="6.5297">
        <ele>407.8</ele>
        <time>2022-09-28T12:51:01Z</time>
      </trkpt>
      <trkpt lat="46.57294" lon="6.5297">
        <ele>407.8</ele>
        <time>2022-09-28T12:51:02Z</time>
      </trkpt>
      <trkpt lat="46.57297" lon="6.52972">
        <ele>407.9</ele>
        <time>2022-09-28T12:51:03Z</time>
      </trkpt>
      <trkpt lat="46.573" lon="6.52973">
        <ele>407.9</ele>
        <time>2022-09-28T12:51:04Z</time>
      </trkpt>
      <trkpt lat="46.57304" lon="6.52974">
        <ele>408</ele>
        <time>2022-09-28T12:51:05Z</time>
      </trkpt>
      <trkpt lat="46.57307" lon="6.52976">
        <ele>408</ele>
        <time>2022-09-28T12:51:06Z</time>
      </trkpt>
      <trkpt lat="46.5731" lon="6.52977">
        <ele>408</ele>
        <time>2022-09-28T12:51:07Z</time>
      </trkpt>
      <trkpt lat="46.57313" lon="6.52978">
        <ele>408.1</ele>
        <time>2022-09-28T12:51:08Z</time>
      </trkpt>
      <trkpt lat="46.57316" lon="6.5298">
        <ele>408.1</ele>
        <time>2022-09-28T12:51:09Z</time>
      </trkpt>
      <trkpt lat="46.57319" lon="6.52981">
        <ele>408.2</ele>
        <time>2022-09-28T12:51:10Z</time>
      </trkpt>
      <trkpt lat="46.5732" lon="6.52981">
        <ele>408.2</ele>
        <time>2022-09-28T12:51:11Z</time>
      </trkpt>
      <trkpt lat="46.57321" lon="6.52983">
        <ele>408.2</ele>
        <time>2022-09-28T12:51:12Z</time>
      </trkpt>
      <trkpt lat="46.57323" lon="6.52983">
        <ele>408.2</ele>
        <time>2022-09-28T12:51:13Z</time>
      </trkpt>
      <trkpt lat="46.57325" lon="6.52983">
        <ele>408.3</ele>
        <time>2022-09-28T12:51:14Z</time>
      </trkpt>
      <trkpt lat="46.57326" lon="6.52982">
        <ele>408.3</ele>
        <time>2022-09-28T12:51:15Z</time>
      </trkpt>
      <trkpt lat="46.57327" lon="6.52981">
        <ele>408.3</ele>
        <time>2022-09-28T12:51:16Z</time>
      </trkpt>
      <trkpt lat="46.57328" lon="6.52979">
        <ele>408.3</ele>
        <time>2022-09-28T12:51:17Z</time>
      </trkpt>
      <trkpt lat="46.5733" lon="6.52976">
        <ele>408.3</ele>
        <time>2022-09-28T12:51:18Z</time>
      </trkpt>
      <trkpt lat="46.5733" lon="6.52974">
        <ele>408.4</ele>
        <time>2022-09-28T12:51:19Z</time>
      </trkpt>
      <trkpt lat="46.57332" lon="6.52971">
        <ele>408.4</ele>
        <time>2022-09-28T12:51:20Z</time>
      </trkpt>
      <trkpt lat="46.57333" lon="6.5297">
        <ele>408.4</ele>
        <time>2022-09-28T12:51:21Z</time>
      </trkpt>
      <trkpt lat="46.57334" lon="6.52968">
        <ele>408.4</ele>
        <time>2022-09-28T12:51:22Z</time>
      </trkpt>
      <trkpt lat="46.57334" lon="6.52966">
        <ele>408.4</ele>
        <time>2022-09-28T12:51:23Z</time>
      </trkpt>
      <trkpt lat="46.57337" lon="6.52965">
        <ele>408.4</ele>
        <time>2022-09-28T12:51:24Z</time>
      </trkpt>
      <trkpt lat="46.57338" lon="6.52965">
        <ele>408.4</ele>
        <time>2022-09-28T12:51:25Z</time>
      </trkpt>
      <trkpt lat="46.57341" lon="6.52967">
        <ele>408.4</ele>
        <time>2022-09-28T12:51:26Z</time>
      </trkpt>
      <trkpt lat="46.57344" lon="6.52971">
        <ele>408.4</ele>
        <time>2022-09-28T12:51:27Z</time>
      </trkpt>
      <trkpt lat="46.57345" lon="6.52972">
        <ele>408.4</ele>
        <time>2022-09-28T12:51:28Z</time>
      </trkpt>
      <trkpt lat="46.57348" lon="6.52975">
        <ele>408.5</ele>
        <time>2022-09-28T12:51:29Z</time>
      </trkpt>
      <trkpt lat="46.57352" lon="6.52977">
        <ele>408.5</ele>
        <time>2022-09-28T12:51:30Z</time>
      </trkpt>
      <trkpt lat="46.57355" lon="6.52979">
        <ele>408.5</ele>
        <time>2022-09-28T12:51:31Z</time>
      </trkpt>
      <trkpt lat="46.57358" lon="6.52981">
        <ele>408.5</ele>
        <time>2022-09-28T12:51:32Z</time>
      </trkpt>
      <trkpt lat="46.57361" lon="6.52983">
        <ele>408.5</ele>
        <time>2022-09-28T12:51:33Z</time>
      </trkpt>
      <trkpt lat="46.57365" lon="6.52985">
        <ele>408.6</ele>
        <time>2022-09-28T12:51:34Z</time>
      </trkpt>
      <trkpt lat="46.57368" lon="6.52987">
        <ele>408.6</ele>
        <time>2022-09-28T12:51:35Z</time>
      </trkpt>
      <trkpt lat="46.57372" lon="6.52989">
        <ele>408.6</ele>
        <time>2022-09-28T12:51:36Z</time>
      </trkpt>
      <trkpt lat="46.57379" lon="6.52992">
        <ele>408.6</ele>
        <time>2022-09-28T12:51:37Z</time>
      </trkpt>
      <trkpt lat="46.57383" lon="6.52993">
        <ele>408.7</ele>
        <time>2022-09-28T12:51:38Z</time>
      </trkpt>
      <trkpt lat="46.57387" lon="6.52995">
        <ele>408.7</ele>
        <time>2022-09-28T12:51:39Z</time>
      </trkpt>
      <trkpt lat="46.5739" lon="6.52997">
        <ele>408.8</ele>
        <time>2022-09-28T12:51:40Z</time>
      </trkpt>
      <trkpt lat="46.57395" lon="6.52999">
        <ele>408.8</ele>
        <time>2022-09-28T12:51:41Z</time>
      </trkpt>
      <trkpt lat="46.57399" lon="6.53">
        <ele>408.9</ele>
        <time>2022-09-28T12:51:42Z</time>
      </trkpt>
      <trkpt lat="46.57404" lon="6.53001">
        <ele>409</ele>
        <time>2022-09-28T12:51:43Z</time>
      </trkpt>
      <trkpt lat="46.57408" lon="6.53003">
        <ele>409</ele>
        <time>2022-09-28T12:51:44Z</time>
      </trkpt>
      <trkpt lat="46.57413" lon="6.53004">
        <ele>409.1</ele>
        <time>2022-09-28T12:51:45Z</time>
      </trkpt>
      <trkpt lat="46.57417" lon="6.53005">
        <ele>409.2</ele>
        <time>2022-09-28T12:51:46Z</time>
      </trkpt>
      <trkpt lat="46.57422" lon="6.53005">
        <ele>409.3</ele>
        <time>2022-09-28T12:51:47Z</time>
      </trkpt>
      <trkpt lat="46.57426" lon="6.53006">
        <ele>409.4</ele>
        <time>2022-09-28T12:51:48Z</time>
      </trkpt>
      <trkpt lat="46.5743" lon="6.53007">
        <ele>409.5</ele>
        <time>2022-09-28T12:51:49Z</time>
      </trkpt>
      <trkpt lat="46.57434" lon="6.53008">
        <ele>409.6</ele>
        <time>2022-09-28T12:51:50Z</time>
      </trkpt>
      <trkpt lat="46.57439" lon="6.53009">
        <ele>409.7</ele>
        <time>2022-09-28T12:51:51Z</time>
      </trkpt>
      <trkpt lat="46.57443" lon="6.5301">
        <ele>409.8</ele>
        <time>2022-09-28T12:51:52Z</time>
      </trkpt>
      <trkpt lat="46.57447" lon="6.53011">
        <ele>410</ele>
        <time>2022-09-28T12:51:53Z</time>
      </trkpt>
      <trkpt lat="46.57451" lon="6.53012">
        <ele>410.1</ele>
        <time>2022-09-28T12:51:54Z</time>
      </trkpt>
      <trkpt lat="46.57455" lon="6.53012">
        <ele>410.2</ele>
        <time>2022-09-28T12:51:55Z</time>
      </trkpt>
      <trkpt lat="46.57459" lon="6.53013">
        <ele>410.3</ele>
        <time>2022-09-28T12:51:56Z</time>
      </trkpt>
      <trkpt lat="46.57463" lon="6.53014">
        <ele>410.4</ele>
        <time>2022-09-28T12:51:57Z</time>
      </trkpt>
      <trkpt lat="46.57467" lon="6.53015">
        <ele>410.5</ele>
        <time>2022-09-28T12:51:58Z</time>
      </trkpt>
      <trkpt lat="46.5747" lon="6.53015">
        <ele>410.6</ele>
        <time>2022-09-28T12:51:59Z</time>
      </trkpt>
      <trkpt lat="46.57475" lon="6.53016">
        <ele>410.8</ele>
        <time>2022-09-28T12:52:00Z</time>
      </trkpt>
      <trkpt lat="46.57479" lon="6.53017">
        <ele>410.9</ele>
        <time>2022-09-28T12:52:01Z</time>
      </trkpt>
      <trkpt lat="46.57482" lon="6.53018">
        <ele>410.9</ele>
        <time>2022-09-28T12:52:02Z</time>
      </trkpt>
      <trkpt lat="46.57486" lon="6.53018">
        <ele>411</ele>
        <time>2022-09-28T12:52:03Z</time>
      </trkpt>
      <trkpt lat="46.5749" lon="6.53019">
        <ele>411.1</ele>
        <time>2022-09-28T12:52:04Z</time>
      </trkpt>
      <trkpt lat="46.57493" lon="6.53019">
        <ele>411.1</ele>
        <time>2022-09-28T12:52:05Z</time>
      </trkpt>
      <trkpt lat="46.57497" lon="6.5302">
        <ele>411.2</ele>
        <time>2022-09-28T12:52:06Z</time>
      </trkpt>
      <trkpt lat="46.57498" lon="6.53021">
        <ele>411.2</ele>
        <time>2022-09-28T12:52:07Z</time>
      </trkpt>
      <trkpt lat="46.57502" lon="6.5302">
        <ele>411.2</ele>
        <time>2022-09-28T12:52:08Z</time>
      </trkpt>
      <trkpt lat="46.57505" lon="6.5302">
        <ele>411.2</ele>
        <time>2022-09-28T12:52:09Z</time>
      </trkpt>
      <trkpt lat="46.57509" lon="6.53021">
        <ele>411.3</ele>
        <time>2022-09-28T12:52:10Z</time>
      </trkpt>
      <trkpt lat="46.5751" lon="6.53021">
        <ele>411.3</ele>
        <time>2022-09-28T12:52:11Z</time>
      </trkpt>
      <trkpt lat="46.57512" lon="6.53021">
        <ele>411.3</ele>
        <time>2022-09-28T12:52:12Z</time>
      </trkpt>
      <trkpt lat="46.57513" lon="6.53021">
        <ele>411.3</ele>
        <time>2022-09-28T12:52:13Z</time>
      </trkpt>
      <trkpt lat="46.57516" lon="6.53022">
        <ele>411.3</ele>
        <time>2022-09-28T12:52:14Z</time>
      </trkpt>
      <trkpt lat="46.57517" lon="6.53022">
        <ele>411.4</ele>
        <time>2022-09-28T12:52:15Z</time>
      </trkpt>
      <trkpt lat="46.5752" lon="6.53023">
        <ele>411.4</ele>
        <time>2022-09-28T12:52:16Z</time>
      </trkpt>
      <trkpt lat="46.57523" lon="6.53024">
        <ele>411.4</ele>
        <time>2022-09-28T12:52:17Z</time>
      </trkpt>
      <trkpt lat="46.57527" lon="6.53025">
        <ele>411.5</ele>
        <time>2022-09-28T12:52:18Z</time>
      </trkpt>
      <trkpt lat="46.5753" lon="6.53025">
        <ele>411.5</ele>
        <time>2022-09-28T12:52:19Z</time>
      </trkpt>
      <trkpt lat="46.57534" lon="6.53026">
        <ele>411.6</ele>
        <time>2022-09-28T12:52:20Z</time>
      </trkpt>
      <trkpt lat="46.57537" lon="6.53025">
        <ele>411.6</ele>
        <time>2022-09-28T12:52:21Z</time>
      </trkpt>
      <trkpt lat="46.57541" lon="6.53026">
        <ele>411.7</ele>
        <time>2022-09-28T12:52:22Z</time>
      </trkpt>
      <trkpt lat="46.57544" lon="6.53026">
        <ele>411.7</ele>
        <time>2022-09-28T12:52:23Z</time>
      </trkpt>
      <trkpt lat="46.57548" lon="6.53026">
        <ele>411.8</ele>
        <time>2022-09-28T12:52:24Z</time>
      </trkpt>
      <trkpt lat="46.57551" lon="6.53026">
        <ele>411.8</ele>
        <time>2022-09-28T12:52:25Z</time>
      </trkpt>
      <trkpt lat="46.57556" lon="6.53027">
        <ele>411.9</ele>
        <time>2022-09-28T12:52:26Z</time>
      </trkpt>
      <trkpt lat="46.57559" lon="6.53028">
        <ele>412</ele>
        <time>2022-09-28T12:52:27Z</time>
      </trkpt>
      <trkpt lat="46.57563" lon="6.53028">
        <ele>412</ele>
        <time>2022-09-28T12:52:28Z</time>
      </trkpt>
      <trkpt lat="46.57567" lon="6.53029">
        <ele>412.1</ele>
        <time>2022-09-28T12:52:29Z</time>
      </trkpt>
      <trkpt lat="46.57571" lon="6.53029">
        <ele>412.2</ele>
        <time>2022-09-28T12:52:30Z</time>
      </trkpt>
      <trkpt lat="46.57575" lon="6.5303">
        <ele>412.3</ele>
        <time>2022-09-28T12:52:31Z</time>
      </trkpt>
      <trkpt lat="46.57578" lon="6.5303">
        <ele>412.3</ele>
        <time>2022-09-28T12:52:32Z</time>
      </trkpt>
      <trkpt lat="46.57582" lon="6.53031">
        <ele>412.4</ele>
        <time>2022-09-28T12:52:33Z</time>
      </trkpt>
      <trkpt lat="46.57586" lon="6.53032">
        <ele>412.5</ele>
        <time>2022-09-28T12:52:34Z</time>
      </trkpt>
      <trkpt lat="46.57589" lon="6.53033">
        <ele>412.6</ele>
        <time>2022-09-28T12:52:35Z</time>
      </trkpt>
      <trkpt lat="46.57593" lon="6.53033">
        <ele>412.7</ele>
        <time>2022-09-28T12:52:36Z</time>
      </trkpt>
      <trkpt lat="46.57597" lon="6.53033">
        <ele>412.8</ele>
        <time>2022-09-28T12:52:37Z</time>
      </trkpt>
      <trkpt lat="46.576" lon="6.53034">
        <ele>412.8</ele>
        <time>2022-09-28T12:52:38Z</time>
      </trkpt>
      <trkpt lat="46.57604" lon="6.53034">
        <ele>412.9</ele>
        <time>2022-09-28T12:52:40Z</time>
      </trkpt>
      <trkpt lat="46.57607" lon="6.53035">
        <ele>413</ele>
        <time>2022-09-28T12:52:41Z</time>
      </trkpt>
      <trkpt lat="46.5761" lon="6.53034">
        <ele>413.1</ele>
        <time>2022-09-28T12:52:42Z</time>
      </trkpt>
      <trkpt lat="46.57611" lon="6.53034">
        <ele>413.1</ele>
        <time>2022-09-28T12:52:43Z</time>
      </trkpt>
      <trkpt lat="46.57613" lon="6.53033">
        <ele>413.1</ele>
        <time>2022-09-28T12:52:44Z</time>
      </trkpt>
      <trkpt lat="46.57614" lon="6.53032">
        <ele>413.1</ele>
        <time>2022-09-28T12:52:45Z</time>
      </trkpt>
      <trkpt lat="46.57614" lon="6.53028">
        <ele>413.2</ele>
        <time>2022-09-28T12:52:46Z</time>
      </trkpt>
      <trkpt lat="46.57615" lon="6.53026">
        <ele>413.2</ele>
        <time>2022-09-28T12:52:47Z</time>
      </trkpt>
      <trkpt lat="46.57616" lon="6.53022">
        <ele>413.2</ele>
        <time>2022-09-28T12:52:48Z</time>
      </trkpt>
      <trkpt lat="46.57617" lon="6.5302">
        <ele>413.2</ele>
        <time>2022-09-28T12:52:49Z</time>
      </trkpt>
      <trkpt lat="46.57616" lon="6.53017">
        <ele>413.2</ele>
        <time>2022-09-28T12:52:50Z</time>
      </trkpt>
      <trkpt lat="46.57617" lon="6.53015">
        <ele>413.6</ele>
        <time>2022-09-28T12:52:51Z</time>
      </trkpt>
      <trkpt lat="46.57617" lon="6.53012">
        <ele>413.6</ele>
        <time>2022-09-28T12:52:52Z</time>
      </trkpt>
      <trkpt lat="46.57618" lon="6.5301">
        <ele>413.6</ele>
        <time>2022-09-28T12:52:53Z</time>
      </trkpt>
      <trkpt lat="46.57618" lon="6.53005">
        <ele>413.6</ele>
        <time>2022-09-28T12:52:54Z</time>
      </trkpt>
      <trkpt lat="46.57618" lon="6.53004">
        <ele>413.6</ele>
        <time>2022-09-28T12:52:55Z</time>
      </trkpt>
      <trkpt lat="46.57618" lon="6.53003">
        <ele>413.6</ele>
        <time>2022-09-28T12:52:56Z</time>
      </trkpt>
      <trkpt lat="46.57618" lon="6.52999">
        <ele>414.1</ele>
        <time>2022-09-28T12:52:57Z</time>
      </trkpt>
      <trkpt lat="46.57619" lon="6.52995">
        <ele>414.1</ele>
        <time>2022-09-28T12:52:58Z</time>
      </trkpt>
      <trkpt lat="46.57619" lon="6.52993">
        <ele>414.1</ele>
        <time>2022-09-28T12:52:59Z</time>
      </trkpt>
      <trkpt lat="46.57619" lon="6.52989">
        <ele>414.1</ele>
        <time>2022-09-28T12:53:00Z</time>
      </trkpt>
      <trkpt lat="46.5762" lon="6.52987">
        <ele>414.1</ele>
        <time>2022-09-28T12:53:01Z</time>
      </trkpt>
      <trkpt lat="46.5762" lon="6.52983">
        <ele>414.5</ele>
        <time>2022-09-28T12:53:02Z</time>
      </trkpt>
      <trkpt lat="46.5762" lon="6.52981">
        <ele>414.6</ele>
        <time>2022-09-28T12:53:03Z</time>
      </trkpt>
      <trkpt lat="46.57621" lon="6.52977">
        <ele>414.6</ele>
        <time>2022-09-28T12:53:04Z</time>
      </trkpt>
      <trkpt lat="46.57621" lon="6.52975">
        <ele>414.6</ele>
        <time>2022-09-28T12:53:05Z</time>
      </trkpt>
      <trkpt lat="46.57621" lon="6.52971">
        <ele>414.6</ele>
        <time>2022-09-28T12:53:06Z</time>
      </trkpt>
      <trkpt lat="46.57621" lon="6.52969">
        <ele>414.6</ele>
        <time>2022-09-28T12:53:07Z</time>
      </trkpt>
      <trkpt lat="46.57621" lon="6.52965">
        <ele>415.2</ele>
        <time>2022-09-28T12:53:08Z</time>
      </trkpt>
      <trkpt lat="46.57621" lon="6.52963">
        <ele>415.2</ele>
        <time>2022-09-28T12:53:09Z</time>
      </trkpt>
      <trkpt lat="46.57621" lon="6.52959">
        <ele>415.2</ele>
        <time>2022-09-28T12:53:10Z</time>
      </trkpt>
      <trkpt lat="46.57622" lon="6.52957">
        <ele>415.2</ele>
        <time>2022-09-28T12:53:11Z</time>
      </trkpt>
      <trkpt lat="46.57623" lon="6.52955">
        <ele>415.2</ele>
        <time>2022-09-28T12:53:12Z</time>
      </trkpt>
      <trkpt lat="46.57624" lon="6.52955">
        <ele>415.2</ele>
        <time>2022-09-28T12:53:13Z</time>
      </trkpt>
      <trkpt lat="46.57625" lon="6.52955">
        <ele>415.3</ele>
        <time>2022-09-28T12:53:14Z</time>
      </trkpt>
      <trkpt lat="46.57627" lon="6.52955">
        <ele>415.3</ele>
        <time>2022-09-28T12:53:15Z</time>
      </trkpt>
      <trkpt lat="46.57628" lon="6.52956">
        <ele>415.3</ele>
        <time>2022-09-28T12:53:16Z</time>
      </trkpt>
      <trkpt lat="46.5763" lon="6.52956">
        <ele>415.3</ele>
        <time>2022-09-28T12:53:17Z</time>
      </trkpt>
      <trkpt lat="46.57631" lon="6.52955">
        <ele>415.3</ele>
        <time>2022-09-28T12:53:18Z</time>
      </trkpt>
      <trkpt lat="46.57634" lon="6.52956">
        <ele>415.5</ele>
        <time>2022-09-28T12:53:19Z</time>
      </trkpt>
      <trkpt lat="46.57635" lon="6.52956">
        <ele>415.5</ele>
        <time>2022-09-28T12:53:20Z</time>
      </trkpt>
      <trkpt lat="46.57638" lon="6.52956">
        <ele>415.5</ele>
        <time>2022-09-28T12:53:21Z</time>
      </trkpt>
      <trkpt lat="46.57639" lon="6.52955">
        <ele>415.5</ele>
        <time>2022-09-28T12:53:22Z</time>
      </trkpt>
      <trkpt lat="46.57642" lon="6.52956">
        <ele>415.5</ele>
        <time>2022-09-28T12:53:23Z</time>
      </trkpt>
      <trkpt lat="46.57644" lon="6.52956">
        <ele>415.5</ele>
        <time>2022-09-28T12:53:24Z</time>
      </trkpt>
      <trkpt lat="46.57647" lon="6.52957">
        <ele>415.6</ele>
        <time>2022-09-28T12:53:25Z</time>
      </trkpt>
      <trkpt lat="46.57648" lon="6.52957">
        <ele>415.6</ele>
        <time>2022-09-28T12:53:26Z</time>
      </trkpt>
      <trkpt lat="46.57649" lon="6.52957">
        <ele>415.7</ele>
        <time>2022-09-28T12:53:27Z</time>
      </trkpt>
      <trkpt lat="46.57651" lon="6.52959">
        <ele>415.7</ele>
        <time>2022-09-28T12:53:28Z</time>
      </trkpt>
      <trkpt lat="46.57654" lon="6.52962">
        <ele>415.7</ele>
        <time>2022-09-28T12:53:29Z</time>
      </trkpt>
      <trkpt lat="46.57655" lon="6.52967">
        <ele>415.7</ele>
        <time>2022-09-28T12:53:30Z</time>
      </trkpt>
      <trkpt lat="46.57655" lon="6.52969">
        <ele>415.7</ele>
        <time>2022-09-28T12:53:31Z</time>
      </trkpt>
      <trkpt lat="46.57656" lon="6.52973">
        <ele>415.7</ele>
        <time>2022-09-28T12:53:32Z</time>
      </trkpt>
      <trkpt lat="46.57657" lon="6.52975">
        <ele>415.7</ele>
        <time>2022-09-28T12:53:33Z</time>
      </trkpt>
      <trkpt lat="46.57658" lon="6.52979">
        <ele>415.7</ele>
        <time>2022-09-28T12:53:34Z</time>
      </trkpt>
      <trkpt lat="46.57659" lon="6.52981">
        <ele>415.7</ele>
        <time>2022-09-28T12:53:35Z</time>
      </trkpt>
      <trkpt lat="46.57662" lon="6.52982">
        <ele>415.6</ele>
        <time>2022-09-28T12:53:36Z</time>
      </trkpt>
      <trkpt lat="46.57665" lon="6.52983">
        <ele>415.5</ele>
        <time>2022-09-28T12:53:37Z</time>
      </trkpt>
      <trkpt lat="46.57668" lon="6.52984">
        <ele>415.3</ele>
        <time>2022-09-28T12:53:38Z</time>
      </trkpt>
      <trkpt lat="46.57669" lon="6.52985">
        <ele>415.3</ele>
        <time>2022-09-28T12:53:39Z</time>
      </trkpt>
      <trkpt lat="46.57672" lon="6.52987">
        <ele>415.1</ele>
        <time>2022-09-28T12:53:40Z</time>
      </trkpt>
      <trkpt lat="46.57675" lon="6.52991">
        <ele>414.9</ele>
        <time>2022-09-28T12:53:41Z</time>
      </trkpt>
      <trkpt lat="46.57676" lon="6.52996">
        <ele>414.7</ele>
        <time>2022-09-28T12:53:42Z</time>
      </trkpt>
      <trkpt lat="46.57678" lon="6.53001">
        <ele>414.5</ele>
        <time>2022-09-28T12:53:43Z</time>
      </trkpt>
      <trkpt lat="46.5768" lon="6.53006">
        <ele>414.3</ele>
        <time>2022-09-28T12:53:44Z</time>
      </trkpt>
      <trkpt lat="46.57682" lon="6.53011">
        <ele>414.1</ele>
        <time>2022-09-28T12:53:45Z</time>
      </trkpt>
      <trkpt lat="46.57684" lon="6.53014">
        <ele>414</ele>
        <time>2022-09-28T12:53:46Z</time>
      </trkpt>
      <trkpt lat="46.57686" lon="6.53015">
        <ele>413.9</ele>
        <time>2022-09-28T12:53:47Z</time>
      </trkpt>
      <trkpt lat="46.57687" lon="6.53014">
        <ele>413.8</ele>
        <time>2022-09-28T12:53:48Z</time>
      </trkpt>
      <trkpt lat="46.5769" lon="6.53012">
        <ele>413.7</ele>
        <time>2022-09-28T12:53:49Z</time>
      </trkpt>
      <trkpt lat="46.57691" lon="6.53012">
        <ele>413.7</ele>
        <time>2022-09-28T12:53:50Z</time>
      </trkpt>
      <trkpt lat="46.57694" lon="6.53009">
        <ele>413.5</ele>
        <time>2022-09-28T12:53:51Z</time>
      </trkpt>
      <trkpt lat="46.57696" lon="6.53008">
        <ele>413.5</ele>
        <time>2022-09-28T12:53:52Z</time>
      </trkpt>
      <trkpt lat="46.577" lon="6.53005">
        <ele>413.3</ele>
        <time>2022-09-28T12:53:53Z</time>
      </trkpt>
      <trkpt lat="46.57702" lon="6.53">
        <ele>413.2</ele>
        <time>2022-09-28T12:53:54Z</time>
      </trkpt>
      <trkpt lat="46.57703" lon="6.52997">
        <ele>413.2</ele>
        <time>2022-09-28T12:53:55Z</time>
      </trkpt>
      <trkpt lat="46.57703" lon="6.52991">
        <ele>413.1</ele>
        <time>2022-09-28T12:53:56Z</time>
      </trkpt>
      <trkpt lat="46.57704" lon="6.5299">
        <ele>413.1</ele>
        <time>2022-09-28T12:53:57Z</time>
      </trkpt>
      <trkpt lat="46.57705" lon="6.52988">
        <ele>413.1</ele>
        <time>2022-09-28T12:53:58Z</time>
      </trkpt>
      <trkpt lat="46.57706" lon="6.52986">
        <ele>413.1</ele>
        <time>2022-09-28T12:53:59Z</time>
      </trkpt>
      <trkpt lat="46.57706" lon="6.52984">
        <ele>413.1</ele>
        <time>2022-09-28T12:54:00Z</time>
      </trkpt>
      <trkpt lat="46.57705" lon="6.52982">
        <ele>413.1</ele>
        <time>2022-09-28T12:54:01Z</time>
      </trkpt>
      <trkpt lat="46.57702" lon="6.52979">
        <ele>413.2</ele>
        <time>2022-09-28T12:54:02Z</time>
      </trkpt>
      <trkpt lat="46.57702" lon="6.52978">
        <ele>413.2</ele>
        <time>2022-09-28T12:54:03Z</time>
      </trkpt>
      <trkpt lat="46.57699" lon="6.52976">
        <ele>413.2</ele>
        <time>2022-09-28T12:54:04Z</time>
      </trkpt>
      <trkpt lat="46.57699" lon="6.52974">
        <ele>413.2</ele>
        <time>2022-09-28T12:54:05Z</time>
      </trkpt>
      <trkpt lat="46.57697" lon="6.52969">
        <ele>413.3</ele>
        <time>2022-09-28T12:54:06Z</time>
      </trkpt>
      <trkpt lat="46.57696" lon="6.52968">
        <ele>413.4</ele>
        <time>2022-09-28T12:54:07Z</time>
      </trkpt>
      <trkpt lat="46.57694" lon="6.52963">
        <ele>413.5</ele>
        <time>2022-09-28T12:54:08Z</time>
      </trkpt>
      <trkpt lat="46.57693" lon="6.52962">
        <ele>413.5</ele>
        <time>2022-09-28T12:54:09Z</time>
      </trkpt>
      <trkpt lat="46.57691" lon="6.52957">
        <ele>413.6</ele>
        <time>2022-09-28T12:54:10Z</time>
      </trkpt>
      <trkpt lat="46.5769" lon="6.52956">
        <ele>413.7</ele>
        <time>2022-09-28T12:54:11Z</time>
      </trkpt>
      <trkpt lat="46.57688" lon="6.52951">
        <ele>413.8</ele>
        <time>2022-09-28T12:54:12Z</time>
      </trkpt>
      <trkpt lat="46.57687" lon="6.52949">
        <ele>413.9</ele>
        <time>2022-09-28T12:54:13Z</time>
      </trkpt>
      <trkpt lat="46.57686" lon="6.52945">
        <ele>414</ele>
        <time>2022-09-28T12:54:14Z</time>
      </trkpt>
      <trkpt lat="46.57685" lon="6.52943">
        <ele>414</ele>
        <time>2022-09-28T12:54:15Z</time>
      </trkpt>
      <trkpt lat="46.57683" lon="6.52939">
        <ele>414.1</ele>
        <time>2022-09-28T12:54:16Z</time>
      </trkpt>
      <trkpt lat="46.57682" lon="6.52938">
        <ele>414.2</ele>
        <time>2022-09-28T12:54:17Z</time>
      </trkpt>
      <trkpt lat="46.57681" lon="6.52934">
        <ele>414.3</ele>
        <time>2022-09-28T12:54:18Z</time>
      </trkpt>
      <trkpt lat="46.5768" lon="6.52933">
        <ele>414.3</ele>
        <time>2022-09-28T12:54:19Z</time>
      </trkpt>
      <trkpt lat="46.57678" lon="6.52929">
        <ele>414.4</ele>
        <time>2022-09-28T12:54:20Z</time>
      </trkpt>
      <trkpt lat="46.57678" lon="6.52928">
        <ele>414.5</ele>
        <time>2022-09-28T12:54:21Z</time>
      </trkpt>
      <trkpt lat="46.57677" lon="6.52923">
        <ele>414.6</ele>
        <time>2022-09-28T12:54:22Z</time>
      </trkpt>
      <trkpt lat="46.57676" lon="6.52921">
        <ele>414.6</ele>
        <time>2022-09-28T12:54:23Z</time>
      </trkpt>
      <trkpt lat="46.57674" lon="6.52917">
        <ele>414.8</ele>
        <time>2022-09-28T12:54:24Z</time>
      </trkpt>
      <trkpt lat="46.57674" lon="6.52915">
        <ele>414.8</ele>
        <time>2022-09-28T12:54:25Z</time>
      </trkpt>
      <trkpt lat="46.57673" lon="6.5291">
        <ele>414.8</ele>
        <time>2022-09-28T12:54:26Z</time>
      </trkpt>
      <trkpt lat="46.57673" lon="6.52909">
        <ele>414.7</ele>
        <time>2022-09-28T12:54:27Z</time>
      </trkpt>
      <trkpt lat="46.57672" lon="6.52906">
        <ele>414.7</ele>
        <time>2022-09-28T12:54:28Z</time>
      </trkpt>
      <trkpt lat="46.57671" lon="6.52906">
        <ele>414.7</ele>
        <time>2022-09-28T12:54:29Z</time>
      </trkpt>
      <trkpt lat="46.57671" lon="6.52904">
        <ele>414.7</ele>
        <time>2022-09-28T12:54:30Z</time>
      </trkpt>
      <trkpt lat="46.5767" lon="6.52905">
        <ele>414.7</ele>
        <time>2022-09-28T12:54:31Z</time>
      </trkpt>
      <trkpt lat="46.57669" lon="6.52906">
        <ele>414.6</ele>
        <time>2022-09-28T12:54:32Z</time>
      </trkpt>
      <trkpt lat="46.57669" lon="6.52906">
        <ele>414.6</ele>
        <time>2022-09-28T12:54:33Z</time>
      </trkpt>
      <trkpt lat="46.57668" lon="6.52907">
        <ele>414.6</ele>
        <time>2022-09-28T12:54:34Z</time>
      </trkpt>
      <trkpt lat="46.57668" lon="6.52907">
        <ele>414.6</ele>
        <time>2022-09-28T12:54:35Z</time>
      </trkpt>
      <trkpt lat="46.57668" lon="6.52909">
        <ele>414.6</ele>
        <time>2022-09-28T12:54:36Z</time>
      </trkpt>
      <trkpt lat="46.57668" lon="6.52909">
        <ele>414.6</ele>
        <time>2022-09-28T12:54:37Z</time>
      </trkpt>
      <trkpt lat="46.57669" lon="6.5291">
        <ele>414.6</ele>
        <time>2022-09-28T12:54:38Z</time>
      </trkpt>
      <trkpt lat="46.57669" lon="6.52911">
        <ele>414.6</ele>
        <time>2022-09-28T12:54:39Z</time>
      </trkpt>
      <trkpt lat="46.57669" lon="6.52912">
        <ele>414.5</ele>
        <time>2022-09-28T12:54:40Z</time>
      </trkpt>
      <trkpt lat="46.57669" lon="6.52912">
        <ele>414.5</ele>
        <time>2022-09-28T12:54:41Z</time>
      </trkpt>
      <trkpt lat="46.5767" lon="6.52913">
        <ele>414.5</ele>
        <time>2022-09-28T12:54:42Z</time>
      </trkpt>
      <trkpt lat="46.57671" lon="6.52917">
        <ele>414.5</ele>
        <time>2022-09-28T12:54:43Z</time>
      </trkpt>
      <trkpt lat="46.57672" lon="6.52919">
        <ele>414.4</ele>
        <time>2022-09-28T12:54:44Z</time>
      </trkpt>
      <trkpt lat="46.57673" lon="6.52924">
        <ele>414.4</ele>
        <time>2022-09-28T12:54:46Z</time>
      </trkpt>
      <trkpt lat="46.57674" lon="6.52926">
        <ele>414.3</ele>
        <time>2022-09-28T12:54:47Z</time>
      </trkpt>
      <trkpt lat="46.57677" lon="6.52932">
        <ele>414.2</ele>
        <time>2022-09-28T12:54:48Z</time>
      </trkpt>
      <trkpt lat="46.57679" lon="6.52935">
        <ele>414.2</ele>
        <time>2022-09-28T12:54:49Z</time>
      </trkpt>
      <trkpt lat="46.57681" lon="6.52939">
        <ele>414.1</ele>
        <time>2022-09-28T12:54:50Z</time>
      </trkpt>
      <trkpt lat="46.57683" lon="6.52942">
        <ele>414</ele>
        <time>2022-09-28T12:54:51Z</time>
      </trkpt>
      <trkpt lat="46.57685" lon="6.52947">
        <ele>414</ele>
        <time>2022-09-28T12:54:52Z</time>
      </trkpt>
      <trkpt lat="46.57687" lon="6.52951">
        <ele>413.9</ele>
        <time>2022-09-28T12:54:53Z</time>
      </trkpt>
      <trkpt lat="46.57689" lon="6.52956">
        <ele>413.8</ele>
        <time>2022-09-28T12:54:54Z</time>
      </trkpt>
      <trkpt lat="46.57692" lon="6.5296">
        <ele>413.7</ele>
        <time>2022-09-28T12:54:55Z</time>
      </trkpt>
      <trkpt lat="46.57694" lon="6.52965">
        <ele>413.7</ele>
        <time>2022-09-28T12:54:56Z</time>
      </trkpt>
      <trkpt lat="46.57697" lon="6.52969">
        <ele>413.6</ele>
        <time>2022-09-28T12:54:57Z</time>
      </trkpt>
      <trkpt lat="46.577" lon="6.52974">
        <ele>413.5</ele>
        <time>2022-09-28T12:54:58Z</time>
      </trkpt>
      <trkpt lat="46.57702" lon="6.52978">
        <ele>413.5</ele>
        <time>2022-09-28T12:54:59Z</time>
      </trkpt>
      <trkpt lat="46.57705" lon="6.52981">
        <ele>413.4</ele>
        <time>2022-09-28T12:55:00Z</time>
      </trkpt>
      <trkpt lat="46.57707" lon="6.52985">
        <ele>413.4</ele>
        <time>2022-09-28T12:55:01Z</time>
      </trkpt>
      <trkpt lat="46.57707" lon="6.52989">
        <ele>413.3</ele>
        <time>2022-09-28T12:55:02Z</time>
      </trkpt>
      <trkpt lat="46.57707" lon="6.52991">
        <ele>413.3</ele>
        <time>2022-09-28T12:55:03Z</time>
      </trkpt>
      <trkpt lat="46.57706" lon="6.52997">
        <ele>413.2</ele>
        <time>2022-09-28T12:55:04Z</time>
      </trkpt>
      <trkpt lat="46.57705" lon="6.52999">
        <ele>413.2</ele>
        <time>2022-09-28T12:55:05Z</time>
      </trkpt>
      <trkpt lat="46.57703" lon="6.53002">
        <ele>413.2</ele>
        <time>2022-09-28T12:55:06Z</time>
      </trkpt>
      <trkpt lat="46.57702" lon="6.53003">
        <ele>413.2</ele>
        <time>2022-09-28T12:55:07Z</time>
      </trkpt>
      <trkpt lat="46.57699" lon="6.53005">
        <ele>413.2</ele>
        <time>2022-09-28T12:55:08Z</time>
      </trkpt>
      <trkpt lat="46.57697" lon="6.53005">
        <ele>413.2</ele>
        <time>2022-09-28T12:55:09Z</time>
      </trkpt>
      <trkpt lat="46.57695" lon="6.53007">
        <ele>413.1</ele>
        <time>2022-09-28T12:55:10Z</time>
      </trkpt>
      <trkpt lat="46.57695" lon="6.53007">
        <ele>413.1</ele>
        <time>2022-09-28T12:55:11Z</time>
      </trkpt>
      <trkpt lat="46.57694" lon="6.53007">
        <ele>413.1</ele>
        <time>2022-09-28T12:55:12Z</time>
      </trkpt>
      <trkpt lat="46.57693" lon="6.53008">
        <ele>413.1</ele>
        <time>2022-09-28T12:55:13Z</time>
      </trkpt>
      <trkpt lat="46.57692" lon="6.53008">
        <ele>413.1</ele>
        <time>2022-09-28T12:55:14Z</time>
      </trkpt>
      <trkpt lat="46.57691" lon="6.53009">
        <ele>413.1</ele>
        <time>2022-09-28T12:55:15Z</time>
      </trkpt>
      <trkpt lat="46.57691" lon="6.5301">
        <ele>413.1</ele>
        <time>2022-09-28T12:55:16Z</time>
      </trkpt>
      <trkpt lat="46.5769" lon="6.53011">
        <ele>413.1</ele>
        <time>2022-09-28T12:55:17Z</time>
      </trkpt>
      <trkpt lat="46.57689" lon="6.53012">
        <ele>413.1</ele>
        <time>2022-09-28T12:55:18Z</time>
      </trkpt>
      <trkpt lat="46.5769" lon="6.53012">
        <ele>413.1</ele>
        <time>2022-09-28T12:55:19Z</time>
      </trkpt>
      <trkpt lat="46.5769" lon="6.53011">
        <ele>413.1</ele>
        <time>2022-09-28T12:55:20Z</time>
      </trkpt>
      <trkpt lat="46.57691" lon="6.53011">
        <ele>413.1</ele>
        <time>2022-09-28T12:55:21Z</time>
      </trkpt>
      <trkpt lat="46.57691" lon="6.5301">
        <ele>413.1</ele>
        <time>2022-09-28T12:55:22Z</time>
      </trkpt>
      <trkpt lat="46.57692" lon="6.5301">
        <ele>413.1</ele>
        <time>2022-09-28T12:55:23Z</time>
      </trkpt>
      <trkpt lat="46.57692" lon="6.5301">
        <ele>413.1</ele>
        <time>2022-09-28T12:55:24Z</time>
      </trkpt>
      <trkpt lat="46.57693" lon="6.53009">
        <ele>413.1</ele>
        <time>2022-09-28T12:57:25Z</time>
      </trkpt>
      <trkpt lat="46.57693" lon="6.53009">
        <ele>413.1</ele>
        <time>2022-09-28T12:57:26Z</time>
      </trkpt>
      <trkpt lat="46.57694" lon="6.53008">
        <ele>413.1</ele>
        <time>2022-09-28T12:57:27Z</time>
      </trkpt>
      <trkpt lat="46.57694" lon="6.53008">
        <ele>413.1</ele>
        <time>2022-09-28T12:57:28Z</time>
      </trkpt>
      <trkpt lat="46.57697" lon="6.53006">
        <ele>413.1</ele>
        <time>2022-09-28T12:57:29Z</time>
      </trkpt>
      <trkpt lat="46.57699" lon="6.53003">
        <ele>413.2</ele>
        <time>2022-09-28T12:57:30Z</time>
      </trkpt>
      <trkpt lat="46.57702" lon="6.52999">
        <ele>413.2</ele>
        <time>2022-09-28T12:57:31Z</time>
      </trkpt>
      <trkpt lat="46.57702" lon="6.52996">
        <ele>413.1</ele>
        <time>2022-09-28T12:57:32Z</time>
      </trkpt>
      <trkpt lat="46.57703" lon="6.52992">
        <ele>413.1</ele>
        <time>2022-09-28T12:57:33Z</time>
      </trkpt>
      <trkpt lat="46.57705" lon="6.52988">
        <ele>413.1</ele>
        <time>2022-09-28T12:57:34Z</time>
      </trkpt>
      <trkpt lat="46.57704" lon="6.52983">
        <ele>413.1</ele>
        <time>2022-09-28T12:57:35Z</time>
      </trkpt>
      <trkpt lat="46.57704" lon="6.52982">
        <ele>413.2</ele>
        <time>2022-09-28T12:57:36Z</time>
      </trkpt>
      <trkpt lat="46.57703" lon="6.52978">
        <ele>413.2</ele>
        <time>2022-09-28T12:57:37Z</time>
      </trkpt>
      <trkpt lat="46.57703" lon="6.52977">
        <ele>413.2</ele>
        <time>2022-09-28T12:57:38Z</time>
      </trkpt>
      <trkpt lat="46.57701" lon="6.52974">
        <ele>413.2</ele>
        <time>2022-09-28T12:57:39Z</time>
      </trkpt>
      <trkpt lat="46.57698" lon="6.52971">
        <ele>413.3</ele>
        <time>2022-09-28T12:57:40Z</time>
      </trkpt>
      <trkpt lat="46.57697" lon="6.5297">
        <ele>413.4</ele>
        <time>2022-09-28T12:57:41Z</time>
      </trkpt>
      <trkpt lat="46.57696" lon="6.52967">
        <ele>413.4</ele>
        <time>2022-09-28T12:57:42Z</time>
      </trkpt>
      <trkpt lat="46.57696" lon="6.52965">
        <ele>413.5</ele>
        <time>2022-09-28T12:57:43Z</time>
      </trkpt>
      <trkpt lat="46.57694" lon="6.5296">
        <ele>413.6</ele>
        <time>2022-09-28T12:57:44Z</time>
      </trkpt>
      <trkpt lat="46.57693" lon="6.52959">
        <ele>413.6</ele>
        <time>2022-09-28T12:57:45Z</time>
      </trkpt>
      <trkpt lat="46.5769" lon="6.52955">
        <ele>413.7</ele>
        <time>2022-09-28T12:57:46Z</time>
      </trkpt>
      <trkpt lat="46.57689" lon="6.52953">
        <ele>413.8</ele>
        <time>2022-09-28T12:57:47Z</time>
      </trkpt>
      <trkpt lat="46.57687" lon="6.5295">
        <ele>413.9</ele>
        <time>2022-09-28T12:57:48Z</time>
      </trkpt>
      <trkpt lat="46.57686" lon="6.52948">
        <ele>413.9</ele>
        <time>2022-09-28T12:57:49Z</time>
      </trkpt>
      <trkpt lat="46.57684" lon="6.52944">
        <ele>414</ele>
        <time>2022-09-28T12:57:50Z</time>
      </trkpt>
      <trkpt lat="46.57683" lon="6.52942">
        <ele>414.1</ele>
        <time>2022-09-28T12:57:51Z</time>
      </trkpt>
      <trkpt lat="46.57682" lon="6.52939">
        <ele>414.2</ele>
        <time>2022-09-28T12:57:52Z</time>
      </trkpt>
      <trkpt lat="46.5768" lon="6.52934">
        <ele>414.3</ele>
        <time>2022-09-28T12:57:53Z</time>
      </trkpt>
      <trkpt lat="46.57679" lon="6.52933">
        <ele>414.3</ele>
        <time>2022-09-28T12:57:54Z</time>
      </trkpt>
      <trkpt lat="46.57677" lon="6.52929">
        <ele>414.4</ele>
        <time>2022-09-28T12:57:55Z</time>
      </trkpt>
      <trkpt lat="46.57676" lon="6.52927">
        <ele>414.5</ele>
        <time>2022-09-28T12:57:56Z</time>
      </trkpt>
      <trkpt lat="46.57675" lon="6.52922">
        <ele>414.6</ele>
        <time>2022-09-28T12:57:57Z</time>
      </trkpt>
      <trkpt lat="46.57674" lon="6.52921">
        <ele>414.6</ele>
        <time>2022-09-28T12:57:58Z</time>
      </trkpt>
      <trkpt lat="46.57673" lon="6.52917">
        <ele>414.7</ele>
        <time>2022-09-28T12:57:59Z</time>
      </trkpt>
      <trkpt lat="46.57673" lon="6.52913">
        <ele>414.8</ele>
        <time>2022-09-28T12:58:00Z</time>
      </trkpt>
      <trkpt lat="46.57672" lon="6.52909">
        <ele>414.9</ele>
        <time>2022-09-28T12:58:01Z</time>
      </trkpt>
      <trkpt lat="46.57669" lon="6.52901">
        <ele>415</ele>
        <time>2022-09-28T12:58:02Z</time>
      </trkpt>
      <trkpt lat="46.57668" lon="6.52897">
        <ele>415.1</ele>
        <time>2022-09-28T12:58:03Z</time>
      </trkpt>
      <trkpt lat="46.57667" lon="6.52893">
        <ele>415.2</ele>
        <time>2022-09-28T12:58:04Z</time>
      </trkpt>
      <trkpt lat="46.57666" lon="6.52888">
        <ele>415.3</ele>
        <time>2022-09-28T12:58:05Z</time>
      </trkpt>
      <trkpt lat="46.57666" lon="6.52887">
        <ele>415.3</ele>
        <time>2022-09-28T12:58:06Z</time>
      </trkpt>
      <trkpt lat="46.57665" lon="6.52883">
        <ele>415.3</ele>
        <time>2022-09-28T12:58:07Z</time>
      </trkpt>
      <trkpt lat="46.57664" lon="6.52879">
        <ele>415.4</ele>
        <time>2022-09-28T12:58:08Z</time>
      </trkpt>
      <trkpt lat="46.57663" lon="6.52875">
        <ele>415.4</ele>
        <time>2022-09-28T12:58:09Z</time>
      </trkpt>
      <trkpt lat="46.57662" lon="6.5287">
        <ele>415.4</ele>
        <time>2022-09-28T12:58:10Z</time>
      </trkpt>
      <trkpt lat="46.57662" lon="6.52865">
        <ele>415.5</ele>
        <time>2022-09-28T12:58:11Z</time>
      </trkpt>
      <trkpt lat="46.57662" lon="6.52863">
        <ele>415.5</ele>
        <time>2022-09-28T12:58:12Z</time>
      </trkpt>
      <trkpt lat="46.57664" lon="6.52857">
        <ele>415.5</ele>
        <time>2022-09-28T12:58:13Z</time>
      </trkpt>
      <trkpt lat="46.57664" lon="6.52855">
        <ele>415.5</ele>
        <time>2022-09-28T12:58:14Z</time>
      </trkpt>
      <trkpt lat="46.57664" lon="6.52851">
        <ele>415.5</ele>
        <time>2022-09-28T12:58:15Z</time>
      </trkpt>
      <trkpt lat="46.57665" lon="6.52845">
        <ele>415.5</ele>
        <time>2022-09-28T12:58:16Z</time>
      </trkpt>
      <trkpt lat="46.57665" lon="6.52843">
        <ele>415.5</ele>
        <time>2022-09-28T12:58:17Z</time>
      </trkpt>
      <trkpt lat="46.57665" lon="6.52839">
        <ele>415.5</ele>
        <time>2022-09-28T12:58:18Z</time>
      </trkpt>
      <trkpt lat="46.57666" lon="6.52835">
        <ele>415.5</ele>
        <time>2022-09-28T12:58:19Z</time>
      </trkpt>
      <trkpt lat="46.57668" lon="6.5283">
        <ele>415.5</ele>
        <time>2022-09-28T12:58:20Z</time>
      </trkpt>
      <trkpt lat="46.57668" lon="6.52829">
        <ele>415.5</ele>
        <time>2022-09-28T12:58:21Z</time>
      </trkpt>
      <trkpt lat="46.5767" lon="6.52824">
        <ele>415.5</ele>
        <time>2022-09-28T12:58:22Z</time>
      </trkpt>
      <trkpt lat="46.5767" lon="6.52823">
        <ele>415.5</ele>
        <time>2022-09-28T12:58:23Z</time>
      </trkpt>
      <trkpt lat="46.57671" lon="6.5282">
        <ele>415.5</ele>
        <time>2022-09-28T12:58:24Z</time>
      </trkpt>
      <trkpt lat="46.57671" lon="6.52819">
        <ele>415.5</ele>
        <time>2022-09-28T12:58:25Z</time>
      </trkpt>
      <trkpt lat="46.57671" lon="6.52818">
        <ele>415.5</ele>
        <time>2022-09-28T12:58:26Z</time>
      </trkpt>
      <trkpt lat="46.57672" lon="6.52817">
        <ele>415.5</ele>
        <time>2022-09-28T12:58:27Z</time>
      </trkpt>
      <trkpt lat="46.57673" lon="6.52814">
        <ele>415.4</ele>
        <time>2022-09-28T12:58:28Z</time>
      </trkpt>
      <trkpt lat="46.57674" lon="6.5281">
        <ele>415.4</ele>
        <time>2022-09-28T12:58:29Z</time>
      </trkpt>
      <trkpt lat="46.57676" lon="6.52806">
        <ele>415.4</ele>
        <time>2022-09-28T12:58:30Z</time>
      </trkpt>
      <trkpt lat="46.57677" lon="6.52802">
        <ele>415.4</ele>
        <time>2022-09-28T12:58:31Z</time>
      </trkpt>
      <trkpt lat="46.57678" lon="6.52799">
        <ele>415.3</ele>
        <time>2022-09-28T12:58:32Z</time>
      </trkpt>
      <trkpt lat="46.57679" lon="6.52795">
        <ele>415.3</ele>
        <time>2022-09-28T12:58:33Z</time>
      </trkpt>
      <trkpt lat="46.5768" lon="6.5279">
        <ele>415.3</ele>
        <time>2022-09-28T12:58:34Z</time>
      </trkpt>
      <trkpt lat="46.57679" lon="6.52786">
        <ele>415.3</ele>
        <time>2022-09-28T12:58:35Z</time>
      </trkpt>
      <trkpt lat="46.5768" lon="6.52781">
        <ele>415.2</ele>
        <time>2022-09-28T12:58:36Z</time>
      </trkpt>
      <trkpt lat="46.5768" lon="6.52779">
        <ele>415.2</ele>
        <time>2022-09-28T12:58:37Z</time>
      </trkpt>
      <trkpt lat="46.57681" lon="6.52774">
        <ele>415.2</ele>
        <time>2022-09-28T12:58:38Z</time>
      </trkpt>
      <trkpt lat="46.57681" lon="6.52769">
        <ele>415.2</ele>
        <time>2022-09-28T12:58:39Z</time>
      </trkpt>
      <trkpt lat="46.57681" lon="6.52764">
        <ele>415.2</ele>
        <time>2022-09-28T12:58:40Z</time>
      </trkpt>
      <trkpt lat="46.57681" lon="6.52759">
        <ele>415.2</ele>
        <time>2022-09-28T12:58:41Z</time>
      </trkpt>
      <trkpt lat="46.57681" lon="6.52755">
        <ele>415.2</ele>
        <time>2022-09-28T12:58:42Z</time>
      </trkpt>
      <trkpt lat="46.57681" lon="6.5275">
        <ele>415.2</ele>
        <time>2022-09-28T12:58:43Z</time>
      </trkpt>
      <trkpt lat="46.57682" lon="6.52746">
        <ele>415.2</ele>
        <time>2022-09-28T12:58:44Z</time>
      </trkpt>
      <trkpt lat="46.57682" lon="6.52742">
        <ele>415.2</ele>
        <time>2022-09-28T12:58:45Z</time>
      </trkpt>
      <trkpt lat="46.57682" lon="6.52737">
        <ele>415.2</ele>
        <time>2022-09-28T12:58:46Z</time>
      </trkpt>
      <trkpt lat="46.57682" lon="6.52732">
        <ele>415.2</ele>
        <time>2022-09-28T12:58:47Z</time>
      </trkpt>
      <trkpt lat="46.57682" lon="6.52728">
        <ele>415.3</ele>
        <time>2022-09-28T12:58:48Z</time>
      </trkpt>
      <trkpt lat="46.57682" lon="6.52724">
        <ele>415.3</ele>
        <time>2022-09-28T12:58:49Z</time>
      </trkpt>
      <trkpt lat="46.57683" lon="6.52719">
        <ele>415.3</ele>
        <time>2022-09-28T12:58:50Z</time>
      </trkpt>
      <trkpt lat="46.57683" lon="6.52714">
        <ele>415.4</ele>
        <time>2022-09-28T12:58:51Z</time>
      </trkpt>
      <trkpt lat="46.57683" lon="6.52709">
        <ele>415.5</ele>
        <time>2022-09-28T12:58:52Z</time>
      </trkpt>
      <trkpt lat="46.57684" lon="6.52703">
        <ele>415.6</ele>
        <time>2022-09-28T12:58:53Z</time>
      </trkpt>
      <trkpt lat="46.57684" lon="6.52702">
        <ele>415.6</ele>
        <time>2022-09-28T12:58:54Z</time>
      </trkpt>
      <trkpt lat="46.57685" lon="6.52698">
        <ele>415.7</ele>
        <time>2022-09-28T12:58:55Z</time>
      </trkpt>
      <trkpt lat="46.57685" lon="6.52696">
        <ele>415.7</ele>
        <time>2022-09-28T12:58:56Z</time>
      </trkpt>
      <trkpt lat="46.57686" lon="6.5269">
        <ele>415.8</ele>
        <time>2022-09-28T12:58:58Z</time>
      </trkpt>
      <trkpt lat="46.57687" lon="6.52688">
        <ele>415.9</ele>
        <time>2022-09-28T12:58:59Z</time>
      </trkpt>
      <trkpt lat="46.57687" lon="6.52684">
        <ele>416</ele>
        <time>2022-09-28T12:59:00Z</time>
      </trkpt>
      <trkpt lat="46.57688" lon="6.52678">
        <ele>416.1</ele>
        <time>2022-09-28T12:59:01Z</time>
      </trkpt>
      <trkpt lat="46.57688" lon="6.52675">
        <ele>416.1</ele>
        <time>2022-09-28T12:59:02Z</time>
      </trkpt>
      <trkpt lat="46.57689" lon="6.5267">
        <ele>416.2</ele>
        <time>2022-09-28T12:59:03Z</time>
      </trkpt>
      <trkpt lat="46.57689" lon="6.52668">
        <ele>416.3</ele>
        <time>2022-09-28T12:59:04Z</time>
      </trkpt>
      <trkpt lat="46.5769" lon="6.52663">
        <ele>416.3</ele>
        <time>2022-09-28T12:59:05Z</time>
      </trkpt>
      <trkpt lat="46.5769" lon="6.52659">
        <ele>416.4</ele>
        <time>2022-09-28T12:59:06Z</time>
      </trkpt>
      <trkpt lat="46.57691" lon="6.52654">
        <ele>416.5</ele>
        <time>2022-09-28T12:59:07Z</time>
      </trkpt>
      <trkpt lat="46.57691" lon="6.52653">
        <ele>416.5</ele>
        <time>2022-09-28T12:59:08Z</time>
      </trkpt>
      <trkpt lat="46.57692" lon="6.52649">
        <ele>416.6</ele>
        <time>2022-09-28T12:59:09Z</time>
      </trkpt>
      <trkpt lat="46.57693" lon="6.52648">
        <ele>416.6</ele>
        <time>2022-09-28T12:59:10Z</time>
      </trkpt>
      <trkpt lat="46.57695" lon="6.52644">
        <ele>416.7</ele>
        <time>2022-09-28T12:59:11Z</time>
      </trkpt>
      <trkpt lat="46.57698" lon="6.52641">
        <ele>416.7</ele>
        <time>2022-09-28T12:59:12Z</time>
      </trkpt>
      <trkpt lat="46.577" lon="6.52638">
        <ele>416.8</ele>
        <time>2022-09-28T12:59:13Z</time>
      </trkpt>
      <trkpt lat="46.57703" lon="6.52635">
        <ele>416.9</ele>
        <time>2022-09-28T12:59:14Z</time>
      </trkpt>
      <trkpt lat="46.57705" lon="6.52633">
        <ele>417</ele>
        <time>2022-09-28T12:59:15Z</time>
      </trkpt>
      <trkpt lat="46.57707" lon="6.5263">
        <ele>417</ele>
        <time>2022-09-28T12:59:16Z</time>
      </trkpt>
      <trkpt lat="46.5771" lon="6.52627">
        <ele>417.7</ele>
        <time>2022-09-28T12:59:17Z</time>
      </trkpt>
      <trkpt lat="46.5771" lon="6.52626">
        <ele>417.8</ele>
        <time>2022-09-28T12:59:18Z</time>
      </trkpt>
      <trkpt lat="46.57713" lon="6.52623">
        <ele>418.1</ele>
        <time>2022-09-28T12:59:19Z</time>
      </trkpt>
      <trkpt lat="46.57714" lon="6.52622">
        <ele>418.2</ele>
        <time>2022-09-28T12:59:20Z</time>
      </trkpt>
      <trkpt lat="46.57715" lon="6.52621">
        <ele>418.3</ele>
        <time>2022-09-28T12:59:21Z</time>
      </trkpt>
      <trkpt lat="46.57716" lon="6.52619">
        <ele>418.5</ele>
        <time>2022-09-28T12:59:22Z</time>
      </trkpt>
      <trkpt lat="46.57719" lon="6.52617">
        <ele>418.8</ele>
        <time>2022-09-28T12:59:23Z</time>
      </trkpt>
      <trkpt lat="46.57721" lon="6.52615">
        <ele>419.2</ele>
        <time>2022-09-28T12:59:24Z</time>
      </trkpt>
      <trkpt lat="46.57722" lon="6.52614">
        <ele>419.3</ele>
        <time>2022-09-28T12:59:25Z</time>
      </trkpt>
      <trkpt lat="46.57724" lon="6.52612">
        <ele>419.6</ele>
        <time>2022-09-28T12:59:26Z</time>
      </trkpt>
      <trkpt lat="46.57725" lon="6.52612">
        <ele>419.7</ele>
        <time>2022-09-28T12:59:27Z</time>
      </trkpt>
      <trkpt lat="46.57728" lon="6.52608">
        <ele>420.1</ele>
        <time>2022-09-28T12:59:28Z</time>
      </trkpt>
      <trkpt lat="46.57729" lon="6.52608">
        <ele>420.3</ele>
        <time>2022-09-28T12:59:29Z</time>
      </trkpt>
      <trkpt lat="46.57731" lon="6.52605">
        <ele>420.6</ele>
        <time>2022-09-28T12:59:30Z</time>
      </trkpt>
      <trkpt lat="46.57732" lon="6.52605">
        <ele>420.7</ele>
        <time>2022-09-28T12:59:31Z</time>
      </trkpt>
      <trkpt lat="46.57735" lon="6.52603">
        <ele>421</ele>
        <time>2022-09-28T12:59:32Z</time>
      </trkpt>
      <trkpt lat="46.57736" lon="6.52601">
        <ele>421.3</ele>
        <time>2022-09-28T12:59:33Z</time>
      </trkpt>
      <trkpt lat="46.57737" lon="6.526">
        <ele>421.4</ele>
        <time>2022-09-28T12:59:34Z</time>
      </trkpt>
      <trkpt lat="46.57739" lon="6.52598">
        <ele>421.7</ele>
        <time>2022-09-28T12:59:35Z</time>
      </trkpt>
      <trkpt lat="46.5774" lon="6.52597">
        <ele>421.8</ele>
        <time>2022-09-28T12:59:36Z</time>
      </trkpt>
      <trkpt lat="46.57743" lon="6.52595">
        <ele>422.2</ele>
        <time>2022-09-28T12:59:37Z</time>
      </trkpt>
      <trkpt lat="46.57744" lon="6.52594">
        <ele>422.3</ele>
        <time>2022-09-28T12:59:38Z</time>
      </trkpt>
      <trkpt lat="46.57746" lon="6.52592">
        <ele>422.6</ele>
        <time>2022-09-28T12:59:39Z</time>
      </trkpt>
      <trkpt lat="46.57747" lon="6.52592">
        <ele>422.7</ele>
        <time>2022-09-28T12:59:40Z</time>
      </trkpt>
      <trkpt lat="46.57748" lon="6.52591">
        <ele>422.8</ele>
        <time>2022-09-28T12:59:41Z</time>
      </trkpt>
      <trkpt lat="46.57749" lon="6.5259">
        <ele>423</ele>
        <time>2022-09-28T12:59:42Z</time>
      </trkpt>
      <trkpt lat="46.57751" lon="6.52589">
        <ele>423.2</ele>
        <time>2022-09-28T12:59:43Z</time>
      </trkpt>
      <trkpt lat="46.57752" lon="6.52588">
        <ele>423.3</ele>
        <time>2022-09-28T12:59:44Z</time>
      </trkpt>
      <trkpt lat="46.57754" lon="6.52587">
        <ele>423.5</ele>
        <time>2022-09-28T12:59:45Z</time>
      </trkpt>
      <trkpt lat="46.57756" lon="6.52585">
        <ele>423.8</ele>
        <time>2022-09-28T12:59:46Z</time>
      </trkpt>
      <trkpt lat="46.57757" lon="6.52584">
        <ele>423.9</ele>
        <time>2022-09-28T12:59:47Z</time>
      </trkpt>
      <trkpt lat="46.5776" lon="6.52582">
        <ele>424.3</ele>
        <time>2022-09-28T12:59:48Z</time>
      </trkpt>
      <trkpt lat="46.57761" lon="6.52581">
        <ele>424.4</ele>
        <time>2022-09-28T12:59:49Z</time>
      </trkpt>
      <trkpt lat="46.57762" lon="6.5258">
        <ele>424.6</ele>
        <time>2022-09-28T12:59:50Z</time>
      </trkpt>
      <trkpt lat="46.57764" lon="6.52579">
        <ele>424.8</ele>
        <time>2022-09-28T12:59:51Z</time>
      </trkpt>
      <trkpt lat="46.57767" lon="6.52577">
        <ele>425.1</ele>
        <time>2022-09-28T12:59:52Z</time>
      </trkpt>
      <trkpt lat="46.57768" lon="6.52576">
        <ele>425.2</ele>
        <time>2022-09-28T12:59:53Z</time>
      </trkpt>
      <trkpt lat="46.57769" lon="6.52575">
        <ele>425.4</ele>
        <time>2022-09-28T12:59:54Z</time>
      </trkpt>
      <trkpt lat="46.57771" lon="6.52573">
        <ele>425.6</ele>
        <time>2022-09-28T12:59:55Z</time>
      </trkpt>
      <trkpt lat="46.57773" lon="6.52572">
        <ele>425.9</ele>
        <time>2022-09-28T12:59:56Z</time>
      </trkpt>
      <trkpt lat="46.57774" lon="6.52571">
        <ele>426</ele>
        <time>2022-09-28T12:59:57Z</time>
      </trkpt>
      <trkpt lat="46.57777" lon="6.52568">
        <ele>426.4</ele>
        <time>2022-09-28T12:59:58Z</time>
      </trkpt>
      <trkpt lat="46.57778" lon="6.52567">
        <ele>426.5</ele>
        <time>2022-09-28T12:59:59Z</time>
      </trkpt>
      <trkpt lat="46.5778" lon="6.52567">
        <ele>426.7</ele>
        <time>2022-09-28T13:00:00Z</time>
      </trkpt>
      <trkpt lat="46.57781" lon="6.52566">
        <ele>426.8</ele>
        <time>2022-09-28T13:00:01Z</time>
      </trkpt>
      <trkpt lat="46.57783" lon="6.52565">
        <ele>427.1</ele>
        <time>2022-09-28T13:00:02Z</time>
      </trkpt>
      <trkpt lat="46.57784" lon="6.52564">
        <ele>427.2</ele>
        <time>2022-09-28T13:00:03Z</time>
      </trkpt>
      <trkpt lat="46.57786" lon="6.52563">
        <ele>427.4</ele>
        <time>2022-09-28T13:00:04Z</time>
      </trkpt>
      <trkpt lat="46.57787" lon="6.52562">
        <ele>427.5</ele>
        <time>2022-09-28T13:00:05Z</time>
      </trkpt>
      <trkpt lat="46.57789" lon="6.52561">
        <ele>427.6</ele>
        <time>2022-09-28T13:00:06Z</time>
      </trkpt>
      <trkpt lat="46.5779" lon="6.52559">
        <ele>427.7</ele>
        <time>2022-09-28T13:00:07Z</time>
      </trkpt>
      <trkpt lat="46.57791" lon="6.52558">
        <ele>427.8</ele>
        <time>2022-09-28T13:00:08Z</time>
      </trkpt>
      <trkpt lat="46.57793" lon="6.52557">
        <ele>427.9</ele>
        <time>2022-09-28T13:00:09Z</time>
      </trkpt>
      <trkpt lat="46.57795" lon="6.52555">
        <ele>428</ele>
        <time>2022-09-28T13:00:10Z</time>
      </trkpt>
      <trkpt lat="46.57796" lon="6.52555">
        <ele>428.1</ele>
        <time>2022-09-28T13:00:11Z</time>
      </trkpt>
      <trkpt lat="46.57797" lon="6.52554">
        <ele>428.2</ele>
        <time>2022-09-28T13:00:12Z</time>
      </trkpt>
      <trkpt lat="46.57798" lon="6.52553">
        <ele>428.3</ele>
        <time>2022-09-28T13:00:13Z</time>
      </trkpt>
      <trkpt lat="46.57799" lon="6.52552">
        <ele>428.4</ele>
        <time>2022-09-28T13:00:14Z</time>
      </trkpt>
      <trkpt lat="46.578" lon="6.52552">
        <ele>428.4</ele>
        <time>2022-09-28T13:00:15Z</time>
      </trkpt>
      <trkpt lat="46.57802" lon="6.5255">
        <ele>428.6</ele>
        <time>2022-09-28T13:00:16Z</time>
      </trkpt>
      <trkpt lat="46.57803" lon="6.52549">
        <ele>428.6</ele>
        <time>2022-09-28T13:00:17Z</time>
      </trkpt>
      <trkpt lat="46.57804" lon="6.52548">
        <ele>428.7</ele>
        <time>2022-09-28T13:00:18Z</time>
      </trkpt>
      <trkpt lat="46.57805" lon="6.52547">
        <ele>428.8</ele>
        <time>2022-09-28T13:00:19Z</time>
      </trkpt>
      <trkpt lat="46.57806" lon="6.52545">
        <ele>429</ele>
        <time>2022-09-28T13:00:20Z</time>
      </trkpt>
      <trkpt lat="46.57807" lon="6.52544">
        <ele>429.1</ele>
        <time>2022-09-28T13:00:21Z</time>
      </trkpt>
      <trkpt lat="46.57808" lon="6.52542">
        <ele>429.2</ele>
        <time>2022-09-28T13:00:22Z</time>
      </trkpt>
      <trkpt lat="46.57809" lon="6.5254">
        <ele>429.4</ele>
        <time>2022-09-28T13:00:23Z</time>
      </trkpt>
      <trkpt lat="46.5781" lon="6.52538">
        <ele>429.5</ele>
        <time>2022-09-28T13:00:24Z</time>
      </trkpt>
      <trkpt lat="46.57811" lon="6.52536">
        <ele>429.7</ele>
        <time>2022-09-28T13:00:25Z</time>
      </trkpt>
      <trkpt lat="46.57811" lon="6.52535">
        <ele>429.8</ele>
        <time>2022-09-28T13:00:26Z</time>
      </trkpt>
      <trkpt lat="46.57812" lon="6.52533">
        <ele>429.9</ele>
        <time>2022-09-28T13:00:27Z</time>
      </trkpt>
      <trkpt lat="46.57812" lon="6.52531">
        <ele>430.1</ele>
        <time>2022-09-28T13:00:28Z</time>
      </trkpt>
      <trkpt lat="46.57814" lon="6.52527">
        <ele>430.3</ele>
        <time>2022-09-28T13:00:29Z</time>
      </trkpt>
      <trkpt lat="46.57815" lon="6.52526">
        <ele>430.4</ele>
        <time>2022-09-28T13:00:30Z</time>
      </trkpt>
      <trkpt lat="46.57816" lon="6.52524">
        <ele>430.6</ele>
        <time>2022-09-28T13:00:31Z</time>
      </trkpt>
      <trkpt lat="46.57816" lon="6.52523">
        <ele>430.7</ele>
        <time>2022-09-28T13:00:32Z</time>
      </trkpt>
      <trkpt lat="46.57817" lon="6.52521">
        <ele>430.8</ele>
        <time>2022-09-28T13:00:33Z</time>
      </trkpt>
      <trkpt lat="46.57818" lon="6.52519">
        <ele>430.9</ele>
        <time>2022-09-28T13:00:34Z</time>
      </trkpt>
      <trkpt lat="46.57819" lon="6.52518">
        <ele>431.1</ele>
        <time>2022-09-28T13:00:35Z</time>
      </trkpt>
      <trkpt lat="46.5782" lon="6.52516">
        <ele>431.2</ele>
        <time>2022-09-28T13:00:36Z</time>
      </trkpt>
      <trkpt lat="46.5782" lon="6.52516">
        <ele>431.3</ele>
        <time>2022-09-28T13:00:37Z</time>
      </trkpt>
      <trkpt lat="46.57822" lon="6.52513">
        <ele>431.5</ele>
        <time>2022-09-28T13:00:38Z</time>
      </trkpt>
      <trkpt lat="46.57823" lon="6.52512">
        <ele>431.6</ele>
        <time>2022-09-28T13:00:39Z</time>
      </trkpt>
      <trkpt lat="46.57824" lon="6.52509">
        <ele>431.8</ele>
        <time>2022-09-28T13:00:40Z</time>
      </trkpt>
      <trkpt lat="46.57825" lon="6.52507">
        <ele>431.9</ele>
        <time>2022-09-28T13:00:41Z</time>
      </trkpt>
      <trkpt lat="46.57825" lon="6.52506">
        <ele>432</ele>
        <time>2022-09-28T13:00:42Z</time>
      </trkpt>
      <trkpt lat="46.57826" lon="6.52504">
        <ele>432.1</ele>
        <time>2022-09-28T13:00:43Z</time>
      </trkpt>
      <trkpt lat="46.57827" lon="6.52502">
        <ele>432.3</ele>
        <time>2022-09-28T13:00:44Z</time>
      </trkpt>
      <trkpt lat="46.57828" lon="6.52501">
        <ele>432.4</ele>
        <time>2022-09-28T13:00:45Z</time>
      </trkpt>
      <trkpt lat="46.5783" lon="6.52497">
        <ele>432.7</ele>
        <time>2022-09-28T13:00:46Z</time>
      </trkpt>
      <trkpt lat="46.57831" lon="6.52497">
        <ele>432.8</ele>
        <time>2022-09-28T13:00:47Z</time>
      </trkpt>
      <trkpt lat="46.57832" lon="6.52494">
        <ele>433</ele>
        <time>2022-09-28T13:00:48Z</time>
      </trkpt>
      <trkpt lat="46.57833" lon="6.52493">
        <ele>433.1</ele>
        <time>2022-09-28T13:00:49Z</time>
      </trkpt>
      <trkpt lat="46.57834" lon="6.5249">
        <ele>433.3</ele>
        <time>2022-09-28T13:00:50Z</time>
      </trkpt>
      <trkpt lat="46.57835" lon="6.52489">
        <ele>433.4</ele>
        <time>2022-09-28T13:00:51Z</time>
      </trkpt>
      <trkpt lat="46.57836" lon="6.52486">
        <ele>433.6</ele>
        <time>2022-09-28T13:00:52Z</time>
      </trkpt>
      <trkpt lat="46.57837" lon="6.52484">
        <ele>433.7</ele>
        <time>2022-09-28T13:00:53Z</time>
      </trkpt>
      <trkpt lat="46.57838" lon="6.52482">
        <ele>433.9</ele>
        <time>2022-09-28T13:00:54Z</time>
      </trkpt>
      <trkpt lat="46.57839" lon="6.5248">
        <ele>434</ele>
        <time>2022-09-28T13:00:55Z</time>
      </trkpt>
      <trkpt lat="46.5784" lon="6.52478">
        <ele>434.2</ele>
        <time>2022-09-28T13:00:56Z</time>
      </trkpt>
      <trkpt lat="46.57841" lon="6.52475">
        <ele>434.4</ele>
        <time>2022-09-28T13:00:57Z</time>
      </trkpt>
      <trkpt lat="46.57842" lon="6.52474">
        <ele>434.5</ele>
        <time>2022-09-28T13:00:58Z</time>
      </trkpt>
      <trkpt lat="46.57843" lon="6.52471">
        <ele>434.7</ele>
        <time>2022-09-28T13:00:59Z</time>
      </trkpt>
      <trkpt lat="46.57843" lon="6.5247">
        <ele>434.7</ele>
        <time>2022-09-28T13:01:00Z</time>
      </trkpt>
      <trkpt lat="46.57845" lon="6.52468">
        <ele>434.9</ele>
        <time>2022-09-28T13:01:01Z</time>
      </trkpt>
      <trkpt lat="46.57845" lon="6.52467">
        <ele>435</ele>
        <time>2022-09-28T13:01:02Z</time>
      </trkpt>
      <trkpt lat="46.57847" lon="6.52463">
        <ele>435.3</ele>
        <time>2022-09-28T13:01:04Z</time>
      </trkpt>
      <trkpt lat="46.57847" lon="6.52462">
        <ele>435.4</ele>
        <time>2022-09-28T13:01:05Z</time>
      </trkpt>
      <trkpt lat="46.57848" lon="6.5246">
        <ele>435.5</ele>
        <time>2022-09-28T13:01:06Z</time>
      </trkpt>
      <trkpt lat="46.57849" lon="6.52458">
        <ele>435.6</ele>
        <time>2022-09-28T13:01:07Z</time>
      </trkpt>
      <trkpt lat="46.57849" lon="6.52457">
        <ele>435.7</ele>
        <time>2022-09-28T13:01:08Z</time>
      </trkpt>
      <trkpt lat="46.57851" lon="6.52453">
        <ele>436</ele>
        <time>2022-09-28T13:01:09Z</time>
      </trkpt>
      <trkpt lat="46.57852" lon="6.52452">
        <ele>436.1</ele>
        <time>2022-09-28T13:01:10Z</time>
      </trkpt>
      <trkpt lat="46.57853" lon="6.52449">
        <ele>436.2</ele>
        <time>2022-09-28T13:01:11Z</time>
      </trkpt>
      <trkpt lat="46.57854" lon="6.52448">
        <ele>436.4</ele>
        <time>2022-09-28T13:01:12Z</time>
      </trkpt>
      <trkpt lat="46.57854" lon="6.52446">
        <ele>436.5</ele>
        <time>2022-09-28T13:01:13Z</time>
      </trkpt>
      <trkpt lat="46.57856" lon="6.52444">
        <ele>436.7</ele>
        <time>2022-09-28T13:01:14Z</time>
      </trkpt>
      <trkpt lat="46.57856" lon="6.52442">
        <ele>436.8</ele>
        <time>2022-09-28T13:01:15Z</time>
      </trkpt>
      <trkpt lat="46.57858" lon="6.5244">
        <ele>437.1</ele>
        <time>2022-09-28T13:01:16Z</time>
      </trkpt>
      <trkpt lat="46.57859" lon="6.52439">
        <ele>437.2</ele>
        <time>2022-09-28T13:01:17Z</time>
      </trkpt>
      <trkpt lat="46.57861" lon="6.52437">
        <ele>437.3</ele>
        <time>2022-09-28T13:01:18Z</time>
      </trkpt>
      <trkpt lat="46.57862" lon="6.52436">
        <ele>437.5</ele>
        <time>2022-09-28T13:01:19Z</time>
      </trkpt>
      <trkpt lat="46.57862" lon="6.52434">
        <ele>437.6</ele>
        <time>2022-09-28T13:01:20Z</time>
      </trkpt>
      <trkpt lat="46.57864" lon="6.52432">
        <ele>437.8</ele>
        <time>2022-09-28T13:01:21Z</time>
      </trkpt>
      <trkpt lat="46.57864" lon="6.52431">
        <ele>437.9</ele>
        <time>2022-09-28T13:01:22Z</time>
      </trkpt>
      <trkpt lat="46.57865" lon="6.5243">
        <ele>438</ele>
        <time>2022-09-28T13:01:23Z</time>
      </trkpt>
      <trkpt lat="46.57866" lon="6.52429">
        <ele>438.1</ele>
        <time>2022-09-28T13:01:24Z</time>
      </trkpt>
      <trkpt lat="46.57867" lon="6.52427">
        <ele>438.3</ele>
        <time>2022-09-28T13:01:25Z</time>
      </trkpt>
      <trkpt lat="46.57869" lon="6.52425">
        <ele>438.5</ele>
        <time>2022-09-28T13:01:26Z</time>
      </trkpt>
      <trkpt lat="46.5787" lon="6.52424">
        <ele>438.6</ele>
        <time>2022-09-28T13:01:27Z</time>
      </trkpt>
      <trkpt lat="46.57873" lon="6.52423">
        <ele>438.9</ele>
        <time>2022-09-28T13:01:28Z</time>
      </trkpt>
      <trkpt lat="46.57873" lon="6.52422">
        <ele>438.9</ele>
        <time>2022-09-28T13:01:29Z</time>
      </trkpt>
      <trkpt lat="46.57874" lon="6.5242">
        <ele>439.1</ele>
        <time>2022-09-28T13:01:30Z</time>
      </trkpt>
      <trkpt lat="46.57876" lon="6.52419">
        <ele>439.3</ele>
        <time>2022-09-28T13:01:31Z</time>
      </trkpt>
      <trkpt lat="46.57877" lon="6.52418">
        <ele>439.4</ele>
        <time>2022-09-28T13:01:32Z</time>
      </trkpt>
      <trkpt lat="46.57878" lon="6.52415">
        <ele>439.6</ele>
        <time>2022-09-28T13:01:33Z</time>
      </trkpt>
      <trkpt lat="46.57879" lon="6.52415">
        <ele>439.7</ele>
        <time>2022-09-28T13:01:34Z</time>
      </trkpt>
      <trkpt lat="46.57881" lon="6.52414">
        <ele>439.9</ele>
        <time>2022-09-28T13:01:35Z</time>
      </trkpt>
      <trkpt lat="46.57885" lon="6.52411">
        <ele>440.3</ele>
        <time>2022-09-28T13:01:36Z</time>
      </trkpt>
      <trkpt lat="46.57887" lon="6.5241">
        <ele>440.5</ele>
        <time>2022-09-28T13:01:37Z</time>
      </trkpt>
      <trkpt lat="46.57888" lon="6.52409">
        <ele>440.7</ele>
        <time>2022-09-28T13:01:38Z</time>
      </trkpt>
      <trkpt lat="46.57889" lon="6.52408">
        <ele>440.8</ele>
        <time>2022-09-28T13:01:39Z</time>
      </trkpt>
      <trkpt lat="46.57891" lon="6.52407">
        <ele>441</ele>
        <time>2022-09-28T13:01:40Z</time>
      </trkpt>
      <trkpt lat="46.57892" lon="6.52406">
        <ele>441.1</ele>
        <time>2022-09-28T13:01:41Z</time>
      </trkpt>
      <trkpt lat="46.57893" lon="6.52405">
        <ele>441.3</ele>
        <time>2022-09-28T13:01:42Z</time>
      </trkpt>
      <trkpt lat="46.57895" lon="6.52404">
        <ele>441.4</ele>
        <time>2022-09-28T13:01:43Z</time>
      </trkpt>
      <trkpt lat="46.57896" lon="6.52402">
        <ele>441.6</ele>
        <time>2022-09-28T13:01:44Z</time>
      </trkpt>
      <trkpt lat="46.57898" lon="6.524">
        <ele>441.8</ele>
        <time>2022-09-28T13:01:45Z</time>
      </trkpt>
      <trkpt lat="46.57899" lon="6.52399">
        <ele>441.9</ele>
        <time>2022-09-28T13:01:46Z</time>
      </trkpt>
      <trkpt lat="46.57899" lon="6.52398">
        <ele>442</ele>
        <time>2022-09-28T13:01:47Z</time>
      </trkpt>
      <trkpt lat="46.579" lon="6.52397">
        <ele>442.1</ele>
        <time>2022-09-28T13:01:48Z</time>
      </trkpt>
      <trkpt lat="46.57902" lon="6.52395">
        <ele>442.4</ele>
        <time>2022-09-28T13:01:49Z</time>
      </trkpt>
      <trkpt lat="46.57903" lon="6.52395">
        <ele>442.4</ele>
        <time>2022-09-28T13:01:50Z</time>
      </trkpt>
      <trkpt lat="46.57904" lon="6.52392">
        <ele>442.7</ele>
        <time>2022-09-28T13:01:51Z</time>
      </trkpt>
      <trkpt lat="46.57905" lon="6.52392">
        <ele>442.8</ele>
        <time>2022-09-28T13:01:52Z</time>
      </trkpt>
      <trkpt lat="46.57906" lon="6.5239">
        <ele>443</ele>
        <time>2022-09-28T13:01:53Z</time>
      </trkpt>
      <trkpt lat="46.57908" lon="6.52388">
        <ele>443.1</ele>
        <time>2022-09-28T13:01:54Z</time>
      </trkpt>
      <trkpt lat="46.57909" lon="6.52387">
        <ele>443.3</ele>
        <time>2022-09-28T13:01:55Z</time>
      </trkpt>
      <trkpt lat="46.57911" lon="6.52386">
        <ele>443.5</ele>
        <time>2022-09-28T13:01:56Z</time>
      </trkpt>
      <trkpt lat="46.57912" lon="6.52385">
        <ele>443.6</ele>
        <time>2022-09-28T13:01:57Z</time>
      </trkpt>
      <trkpt lat="46.57914" lon="6.52383">
        <ele>443.8</ele>
        <time>2022-09-28T13:01:58Z</time>
      </trkpt>
      <trkpt lat="46.57914" lon="6.52383">
        <ele>443.9</ele>
        <time>2022-09-28T13:01:59Z</time>
      </trkpt>
      <trkpt lat="46.57917" lon="6.52382">
        <ele>444.1</ele>
        <time>2022-09-28T13:02:00Z</time>
      </trkpt>
      <trkpt lat="46.57917" lon="6.5238">
        <ele>444.3</ele>
        <time>2022-09-28T13:02:01Z</time>
      </trkpt>
      <trkpt lat="46.57919" lon="6.52379">
        <ele>444.5</ele>
        <time>2022-09-28T13:02:02Z</time>
      </trkpt>
      <trkpt lat="46.5792" lon="6.52378">
        <ele>444.6</ele>
        <time>2022-09-28T13:02:03Z</time>
      </trkpt>
      <trkpt lat="46.57922" lon="6.52377">
        <ele>444.8</ele>
        <time>2022-09-28T13:02:04Z</time>
      </trkpt>
      <trkpt lat="46.57923" lon="6.52376">
        <ele>444.9</ele>
        <time>2022-09-28T13:02:05Z</time>
      </trkpt>
      <trkpt lat="46.57925" lon="6.52373">
        <ele>445.2</ele>
        <time>2022-09-28T13:02:06Z</time>
      </trkpt>
      <trkpt lat="46.57926" lon="6.52373">
        <ele>445.3</ele>
        <time>2022-09-28T13:02:07Z</time>
      </trkpt>
      <trkpt lat="46.57928" lon="6.5237">
        <ele>445.5</ele>
        <time>2022-09-28T13:02:08Z</time>
      </trkpt>
      <trkpt lat="46.57929" lon="6.52369">
        <ele>445.7</ele>
        <time>2022-09-28T13:02:09Z</time>
      </trkpt>
      <trkpt lat="46.5793" lon="6.52369">
        <ele>445.8</ele>
        <time>2022-09-28T13:02:10Z</time>
      </trkpt>
      <trkpt lat="46.57931" lon="6.52368">
        <ele>445.9</ele>
        <time>2022-09-28T13:02:11Z</time>
      </trkpt>
      <trkpt lat="46.57934" lon="6.52366">
        <ele>446.2</ele>
        <time>2022-09-28T13:02:12Z</time>
      </trkpt>
      <trkpt lat="46.57935" lon="6.52365">
        <ele>446.4</ele>
        <time>2022-09-28T13:02:13Z</time>
      </trkpt>
      <trkpt lat="46.57936" lon="6.52364">
        <ele>446.4</ele>
        <time>2022-09-28T13:02:14Z</time>
      </trkpt>
      <trkpt lat="46.57937" lon="6.52363">
        <ele>446.7</ele>
        <time>2022-09-28T13:02:15Z</time>
      </trkpt>
      <trkpt lat="46.57938" lon="6.52362">
        <ele>446.8</ele>
        <time>2022-09-28T13:02:16Z</time>
      </trkpt>
      <trkpt lat="46.5794" lon="6.5236">
        <ele>447</ele>
        <time>2022-09-28T13:02:17Z</time>
      </trkpt>
      <trkpt lat="46.57942" lon="6.52359">
        <ele>447.1</ele>
        <time>2022-09-28T13:02:18Z</time>
      </trkpt>
      <trkpt lat="46.57943" lon="6.52358">
        <ele>447.3</ele>
        <time>2022-09-28T13:02:19Z</time>
      </trkpt>
      <trkpt lat="46.57945" lon="6.52357">
        <ele>447.5</ele>
        <time>2022-09-28T13:02:20Z</time>
      </trkpt>
      <trkpt lat="46.57946" lon="6.52356">
        <ele>447.6</ele>
        <time>2022-09-28T13:02:21Z</time>
      </trkpt>
      <trkpt lat="46.57947" lon="6.52356">
        <ele>447.7</ele>
        <time>2022-09-28T13:02:22Z</time>
      </trkpt>
      <trkpt lat="46.57948" lon="6.52355">
        <ele>447.8</ele>
        <time>2022-09-28T13:02:23Z</time>
      </trkpt>
      <trkpt lat="46.5795" lon="6.52354">
        <ele>448</ele>
        <time>2022-09-28T13:02:24Z</time>
      </trkpt>
      <trkpt lat="46.57951" lon="6.52353">
        <ele>448.1</ele>
        <time>2022-09-28T13:02:25Z</time>
      </trkpt>
      <trkpt lat="46.57952" lon="6.5235">
        <ele>448.4</ele>
        <time>2022-09-28T13:02:26Z</time>
      </trkpt>
      <trkpt lat="46.57953" lon="6.5235">
        <ele>448.4</ele>
        <time>2022-09-28T13:02:27Z</time>
      </trkpt>
      <trkpt lat="46.57955" lon="6.52349">
        <ele>448.6</ele>
        <time>2022-09-28T13:02:28Z</time>
      </trkpt>
      <trkpt lat="46.57956" lon="6.52349">
        <ele>448.7</ele>
        <time>2022-09-28T13:02:29Z</time>
      </trkpt>
      <trkpt lat="46.57958" lon="6.52347">
        <ele>449</ele>
        <time>2022-09-28T13:02:30Z</time>
      </trkpt>
      <trkpt lat="46.57959" lon="6.52346">
        <ele>449.1</ele>
        <time>2022-09-28T13:02:31Z</time>
      </trkpt>
      <trkpt lat="46.57961" lon="6.52345">
        <ele>449.2</ele>
        <time>2022-09-28T13:02:32Z</time>
      </trkpt>
      <trkpt lat="46.57962" lon="6.52344">
        <ele>449.3</ele>
        <time>2022-09-28T13:02:33Z</time>
      </trkpt>
      <trkpt lat="46.57963" lon="6.52343">
        <ele>449.4</ele>
        <time>2022-09-28T13:02:34Z</time>
      </trkpt>
      <trkpt lat="46.57964" lon="6.52341">
        <ele>449.6</ele>
        <time>2022-09-28T13:02:35Z</time>
      </trkpt>
      <trkpt lat="46.57965" lon="6.5234">
        <ele>449.7</ele>
        <time>2022-09-28T13:02:36Z</time>
      </trkpt>
      <trkpt lat="46.57966" lon="6.52339">
        <ele>449.8</ele>
        <time>2022-09-28T13:02:37Z</time>
      </trkpt>
      <trkpt lat="46.57968" lon="6.52338">
        <ele>450</ele>
        <time>2022-09-28T13:02:38Z</time>
      </trkpt>
      <trkpt lat="46.57968" lon="6.52337">
        <ele>450.1</ele>
        <time>2022-09-28T13:02:39Z</time>
      </trkpt>
      <trkpt lat="46.57969" lon="6.52336">
        <ele>450.2</ele>
        <time>2022-09-28T13:02:40Z</time>
      </trkpt>
      <trkpt lat="46.57971" lon="6.52334">
        <ele>450.4</ele>
        <time>2022-09-28T13:02:41Z</time>
      </trkpt>
      <trkpt lat="46.57972" lon="6.52333">
        <ele>450.5</ele>
        <time>2022-09-28T13:02:42Z</time>
      </trkpt>
      <trkpt lat="46.57975" lon="6.52332">
        <ele>450.7</ele>
        <time>2022-09-28T13:02:43Z</time>
      </trkpt>
      <trkpt lat="46.57976" lon="6.52331">
        <ele>450.8</ele>
        <time>2022-09-28T13:02:44Z</time>
      </trkpt>
      <trkpt lat="46.57977" lon="6.5233">
        <ele>450.9</ele>
        <time>2022-09-28T13:02:45Z</time>
      </trkpt>
      <trkpt lat="46.57979" lon="6.52329">
        <ele>451</ele>
        <time>2022-09-28T13:02:46Z</time>
      </trkpt>
      <trkpt lat="46.5798" lon="6.52329">
        <ele>451.1</ele>
        <time>2022-09-28T13:02:47Z</time>
      </trkpt>
      <trkpt lat="46.57981" lon="6.52328">
        <ele>451.2</ele>
        <time>2022-09-28T13:02:48Z</time>
      </trkpt>
      <trkpt lat="46.57984" lon="6.52326">
        <ele>451.4</ele>
        <time>2022-09-28T13:02:49Z</time>
      </trkpt>
      <trkpt lat="46.57984" lon="6.52326">
        <ele>451.5</ele>
        <time>2022-09-28T13:02:50Z</time>
      </trkpt>
      <trkpt lat="46.57987" lon="6.52323">
        <ele>451.7</ele>
        <time>2022-09-28T13:02:51Z</time>
      </trkpt>
      <trkpt lat="46.57988" lon="6.52322">
        <ele>451.8</ele>
        <time>2022-09-28T13:02:52Z</time>
      </trkpt>
      <trkpt lat="46.5799" lon="6.52322">
        <ele>452</ele>
        <time>2022-09-28T13:02:53Z</time>
      </trkpt>
      <trkpt lat="46.57991" lon="6.5232">
        <ele>452.1</ele>
        <time>2022-09-28T13:02:54Z</time>
      </trkpt>
      <trkpt lat="46.57994" lon="6.52319">
        <ele>452.3</ele>
        <time>2022-09-28T13:02:55Z</time>
      </trkpt>
      <trkpt lat="46.57995" lon="6.52318">
        <ele>452.4</ele>
        <time>2022-09-28T13:02:56Z</time>
      </trkpt>
      <trkpt lat="46.57996" lon="6.52317">
        <ele>452.5</ele>
        <time>2022-09-28T13:02:57Z</time>
      </trkpt>
      <trkpt lat="46.57998" lon="6.52317">
        <ele>452.6</ele>
        <time>2022-09-28T13:02:58Z</time>
      </trkpt>
      <trkpt lat="46.58" lon="6.52315">
        <ele>452.8</ele>
        <time>2022-09-28T13:02:59Z</time>
      </trkpt>
      <trkpt lat="46.58001" lon="6.52315">
        <ele>452.8</ele>
        <time>2022-09-28T13:03:00Z</time>
      </trkpt>
      <trkpt lat="46.58003" lon="6.52314">
        <ele>452.9</ele>
        <time>2022-09-28T13:03:01Z</time>
      </trkpt>
      <trkpt lat="46.58004" lon="6.52313">
        <ele>453</ele>
        <time>2022-09-28T13:03:02Z</time>
      </trkpt>
      <trkpt lat="46.58006" lon="6.52312">
        <ele>453.2</ele>
        <time>2022-09-28T13:03:03Z</time>
      </trkpt>
      <trkpt lat="46.58006" lon="6.52311">
        <ele>453.3</ele>
        <time>2022-09-28T13:03:04Z</time>
      </trkpt>
      <trkpt lat="46.58009" lon="6.52309">
        <ele>453.4</ele>
        <time>2022-09-28T13:03:05Z</time>
      </trkpt>
      <trkpt lat="46.58009" lon="6.52309">
        <ele>453.5</ele>
        <time>2022-09-28T13:03:06Z</time>
      </trkpt>
      <trkpt lat="46.58011" lon="6.52307">
        <ele>453.7</ele>
        <time>2022-09-28T13:03:07Z</time>
      </trkpt>
      <trkpt lat="46.58012" lon="6.52306">
        <ele>453.7</ele>
        <time>2022-09-28T13:03:08Z</time>
      </trkpt>
      <trkpt lat="46.58015" lon="6.52304">
        <ele>454</ele>
        <time>2022-09-28T13:03:10Z</time>
      </trkpt>
      <trkpt lat="46.58016" lon="6.52304">
        <ele>454.1</ele>
        <time>2022-09-28T13:03:11Z</time>
      </trkpt>
      <trkpt lat="46.58018" lon="6.52303">
        <ele>454.2</ele>
        <time>2022-09-28T13:03:12Z</time>
      </trkpt>
      <trkpt lat="46.58019" lon="6.52302">
        <ele>454.4</ele>
        <time>2022-09-28T13:03:13Z</time>
      </trkpt>
      <trkpt lat="46.58022" lon="6.52301">
        <ele>454.6</ele>
        <time>2022-09-28T13:03:14Z</time>
      </trkpt>
      <trkpt lat="46.58023" lon="6.523">
        <ele>454.7</ele>
        <time>2022-09-28T13:03:15Z</time>
      </trkpt>
      <trkpt lat="46.58024" lon="6.52299">
        <ele>454.8</ele>
        <time>2022-09-28T13:03:16Z</time>
      </trkpt>
      <trkpt lat="46.58026" lon="6.52298">
        <ele>455</ele>
        <time>2022-09-28T13:03:17Z</time>
      </trkpt>
      <trkpt lat="46.58027" lon="6.52297">
        <ele>455.1</ele>
        <time>2022-09-28T13:03:18Z</time>
      </trkpt>
      <trkpt lat="46.58029" lon="6.52296">
        <ele>455.3</ele>
        <time>2022-09-28T13:03:19Z</time>
      </trkpt>
      <trkpt lat="46.5803" lon="6.52295">
        <ele>455.4</ele>
        <time>2022-09-28T13:03:20Z</time>
      </trkpt>
      <trkpt lat="46.58032" lon="6.52294">
        <ele>455.6</ele>
        <time>2022-09-28T13:03:21Z</time>
      </trkpt>
      <trkpt lat="46.58033" lon="6.52293">
        <ele>455.7</ele>
        <time>2022-09-28T13:03:22Z</time>
      </trkpt>
      <trkpt lat="46.58035" lon="6.52293">
        <ele>455.8</ele>
        <time>2022-09-28T13:03:23Z</time>
      </trkpt>
      <trkpt lat="46.58036" lon="6.52292">
        <ele>456</ele>
        <time>2022-09-28T13:03:24Z</time>
      </trkpt>
      <trkpt lat="46.58038" lon="6.5229">
        <ele>456.1</ele>
        <time>2022-09-28T13:03:25Z</time>
      </trkpt>
      <trkpt lat="46.58039" lon="6.52289">
        <ele>456.3</ele>
        <time>2022-09-28T13:03:26Z</time>
      </trkpt>
      <trkpt lat="46.58041" lon="6.52288">
        <ele>456.5</ele>
        <time>2022-09-28T13:03:27Z</time>
      </trkpt>
      <trkpt lat="46.58042" lon="6.52287">
        <ele>456.6</ele>
        <time>2022-09-28T13:03:28Z</time>
      </trkpt>
      <trkpt lat="46.58044" lon="6.52286">
        <ele>456.7</ele>
        <time>2022-09-28T13:03:29Z</time>
      </trkpt>
      <trkpt lat="46.58045" lon="6.52285">
        <ele>456.9</ele>
        <time>2022-09-28T13:03:30Z</time>
      </trkpt>
      <trkpt lat="46.58046" lon="6.52284">
        <ele>457</ele>
        <time>2022-09-28T13:03:31Z</time>
      </trkpt>
      <trkpt lat="46.58048" lon="6.52283">
        <ele>457.2</ele>
        <time>2022-09-28T13:03:32Z</time>
      </trkpt>
      <trkpt lat="46.5805" lon="6.52282">
        <ele>457.4</ele>
        <time>2022-09-28T13:03:33Z</time>
      </trkpt>
      <trkpt lat="46.58052" lon="6.5228">
        <ele>457.6</ele>
        <time>2022-09-28T13:03:34Z</time>
      </trkpt>
      <trkpt lat="46.58054" lon="6.52279">
        <ele>457.8</ele>
        <time>2022-09-28T13:03:35Z</time>
      </trkpt>
      <trkpt lat="46.58056" lon="6.52278">
        <ele>458</ele>
        <time>2022-09-28T13:03:36Z</time>
      </trkpt>
      <trkpt lat="46.58057" lon="6.52276">
        <ele>458.1</ele>
        <time>2022-09-28T13:03:37Z</time>
      </trkpt>
      <trkpt lat="46.58058" lon="6.52275">
        <ele>458.3</ele>
        <time>2022-09-28T13:03:38Z</time>
      </trkpt>
      <trkpt lat="46.5806" lon="6.52274">
        <ele>458.4</ele>
        <time>2022-09-28T13:03:39Z</time>
      </trkpt>
      <trkpt lat="46.58061" lon="6.52273">
        <ele>458.6</ele>
        <time>2022-09-28T13:03:40Z</time>
      </trkpt>
      <trkpt lat="46.58063" lon="6.52272">
        <ele>458.7</ele>
        <time>2022-09-28T13:03:41Z</time>
      </trkpt>
      <trkpt lat="46.58064" lon="6.52271">
        <ele>458.8</ele>
        <time>2022-09-28T13:03:42Z</time>
      </trkpt>
      <trkpt lat="46.58066" lon="6.5227">
        <ele>459</ele>
        <time>2022-09-28T13:03:43Z</time>
      </trkpt>
      <trkpt lat="46.58067" lon="6.52269">
        <ele>459.2</ele>
        <time>2022-09-28T13:03:44Z</time>
      </trkpt>
      <trkpt lat="46.58069" lon="6.52268">
        <ele>459.3</ele>
        <time>2022-09-28T13:03:45Z</time>
      </trkpt>
      <trkpt lat="46.5807" lon="6.52267">
        <ele>459.5</ele>
        <time>2022-09-28T13:03:46Z</time>
      </trkpt>
      <trkpt lat="46.58072" lon="6.52266">
        <ele>459.6</ele>
        <time>2022-09-28T13:03:47Z</time>
      </trkpt>
      <trkpt lat="46.58073" lon="6.52264">
        <ele>459.8</ele>
        <time>2022-09-28T13:03:48Z</time>
      </trkpt>
      <trkpt lat="46.58075" lon="6.52263">
        <ele>460</ele>
        <time>2022-09-28T13:03:49Z</time>
      </trkpt>
      <trkpt lat="46.58076" lon="6.52261">
        <ele>460.1</ele>
        <time>2022-09-28T13:03:50Z</time>
      </trkpt>
      <trkpt lat="46.58077" lon="6.5226">
        <ele>460.3</ele>
        <time>2022-09-28T13:03:51Z</time>
      </trkpt>
      <trkpt lat="46.58079" lon="6.52259">
        <ele>460.5</ele>
        <time>2022-09-28T13:03:52Z</time>
      </trkpt>
      <trkpt lat="46.5808" lon="6.52258">
        <ele>460.6</ele>
        <time>2022-09-28T13:03:53Z</time>
      </trkpt>
      <trkpt lat="46.58082" lon="6.52257">
        <ele>460.8</ele>
        <time>2022-09-28T13:03:54Z</time>
      </trkpt>
      <trkpt lat="46.58084" lon="6.52256">
        <ele>460.9</ele>
        <time>2022-09-28T13:03:55Z</time>
      </trkpt>
      <trkpt lat="46.58084" lon="6.52255">
        <ele>461</ele>
        <time>2022-09-28T13:03:56Z</time>
      </trkpt>
      <trkpt lat="46.58085" lon="6.52254">
        <ele>461.1</ele>
        <time>2022-09-28T13:03:57Z</time>
      </trkpt>
      <trkpt lat="46.58087" lon="6.52252">
        <ele>461.3</ele>
        <time>2022-09-28T13:03:58Z</time>
      </trkpt>
      <trkpt lat="46.58089" lon="6.52251">
        <ele>461.4</ele>
        <time>2022-09-28T13:03:59Z</time>
      </trkpt>
      <trkpt lat="46.58089" lon="6.52251">
        <ele>461.5</ele>
        <time>2022-09-28T13:04:00Z</time>
      </trkpt>
      <trkpt lat="46.58091" lon="6.52249">
        <ele>461.6</ele>
        <time>2022-09-28T13:04:01Z</time>
      </trkpt>
      <trkpt lat="46.58092" lon="6.52247">
        <ele>461.8</ele>
        <time>2022-09-28T13:04:02Z</time>
      </trkpt>
      <trkpt lat="46.58093" lon="6.52246">
        <ele>461.9</ele>
        <time>2022-09-28T13:04:03Z</time>
      </trkpt>
      <trkpt lat="46.58095" lon="6.52245">
        <ele>462.1</ele>
        <time>2022-09-28T13:04:04Z</time>
      </trkpt>
      <trkpt lat="46.58096" lon="6.52244">
        <ele>462.1</ele>
        <time>2022-09-28T13:04:05Z</time>
      </trkpt>
      <trkpt lat="46.58097" lon="6.52243">
        <ele>462.2</ele>
        <time>2022-09-28T13:04:06Z</time>
      </trkpt>
      <trkpt lat="46.58098" lon="6.52242">
        <ele>462.2</ele>
        <time>2022-09-28T13:04:07Z</time>
      </trkpt>
      <trkpt lat="46.58099" lon="6.52242">
        <ele>462.3</ele>
        <time>2022-09-28T13:04:08Z</time>
      </trkpt>
      <trkpt lat="46.58103" lon="6.52239">
        <ele>462.5</ele>
        <time>2022-09-28T13:04:09Z</time>
      </trkpt>
      <trkpt lat="46.58108" lon="6.52236">
        <ele>462.7</ele>
        <time>2022-09-28T13:04:10Z</time>
      </trkpt>
      <trkpt lat="46.58113" lon="6.52233">
        <ele>462.9</ele>
        <time>2022-09-28T13:04:11Z</time>
      </trkpt>
      <trkpt lat="46.58118" lon="6.5223">
        <ele>463</ele>
        <time>2022-09-28T13:04:12Z</time>
      </trkpt>
      <trkpt lat="46.58123" lon="6.52226">
        <ele>463.2</ele>
        <time>2022-09-28T13:04:13Z</time>
      </trkpt>
      <trkpt lat="46.58127" lon="6.52223">
        <ele>463.3</ele>
        <time>2022-09-28T13:04:14Z</time>
      </trkpt>
      <trkpt lat="46.58132" lon="6.5222">
        <ele>463.4</ele>
        <time>2022-09-28T13:04:15Z</time>
      </trkpt>
      <trkpt lat="46.58137" lon="6.52217">
        <ele>463.6</ele>
        <time>2022-09-28T13:04:16Z</time>
      </trkpt>
      <trkpt lat="46.58142" lon="6.52214">
        <ele>463.7</ele>
        <time>2022-09-28T13:04:17Z</time>
      </trkpt>
      <trkpt lat="46.58147" lon="6.5221">
        <ele>463.8</ele>
        <time>2022-09-28T13:04:18Z</time>
      </trkpt>
      <trkpt lat="46.58152" lon="6.52207">
        <ele>464</ele>
        <time>2022-09-28T13:07:57Z</time>
      </trkpt>
      <trkpt lat="46.58156" lon="6.52204">
        <ele>464.1</ele>
        <time>2022-09-28T13:07:58Z</time>
      </trkpt>
      <trkpt lat="46.58159" lon="6.52203">
        <ele>464.2</ele>
        <time>2022-09-28T13:07:59Z</time>
      </trkpt>
      <trkpt lat="46.58163" lon="6.52202">
        <ele>464.3</ele>
        <time>2022-09-28T13:08:00Z</time>
      </trkpt>
      <trkpt lat="46.58164" lon="6.52201">
        <ele>464.3</ele>
        <time>2022-09-28T13:08:01Z</time>
      </trkpt>
      <trkpt lat="46.58168" lon="6.522">
        <ele>464.5</ele>
        <time>2022-09-28T13:08:02Z</time>
      </trkpt>
      <trkpt lat="46.58169" lon="6.52199">
        <ele>464.5</ele>
        <time>2022-09-28T13:08:03Z</time>
      </trkpt>
      <trkpt lat="46.58171" lon="6.52198">
        <ele>464.6</ele>
        <time>2022-09-28T13:08:04Z</time>
      </trkpt>
      <trkpt lat="46.58174" lon="6.52196">
        <ele>464.7</ele>
        <time>2022-09-28T13:08:05Z</time>
      </trkpt>
      <trkpt lat="46.58176" lon="6.52194">
        <ele>464.8</ele>
        <time>2022-09-28T13:08:06Z</time>
      </trkpt>
      <trkpt lat="46.58179" lon="6.52193">
        <ele>464.9</ele>
        <time>2022-09-28T13:08:07Z</time>
      </trkpt>
      <trkpt lat="46.58183" lon="6.52191">
        <ele>465.1</ele>
        <time>2022-09-28T13:08:08Z</time>
      </trkpt>
      <trkpt lat="46.58184" lon="6.5219">
        <ele>465.2</ele>
        <time>2022-09-28T13:08:09Z</time>
      </trkpt>
      <trkpt lat="46.58188" lon="6.52189">
        <ele>465.4</ele>
        <time>2022-09-28T13:08:10Z</time>
      </trkpt>
      <trkpt lat="46.58189" lon="6.52188">
        <ele>465.4</ele>
        <time>2022-09-28T13:08:11Z</time>
      </trkpt>
      <trkpt lat="46.58192" lon="6.52187">
        <ele>465.6</ele>
        <time>2022-09-28T13:08:12Z</time>
      </trkpt>
      <trkpt lat="46.58195" lon="6.52185">
        <ele>465.8</ele>
        <time>2022-09-28T13:08:13Z</time>
      </trkpt>
      <trkpt lat="46.58196" lon="6.52184">
        <ele>465.8</ele>
        <time>2022-09-28T13:08:14Z</time>
      </trkpt>
      <trkpt lat="46.582" lon="6.52182">
        <ele>466</ele>
        <time>2022-09-28T13:08:15Z</time>
      </trkpt>
      <trkpt lat="46.58201" lon="6.52182">
        <ele>466.1</ele>
        <time>2022-09-28T13:08:16Z</time>
      </trkpt>
      <trkpt lat="46.58204" lon="6.5218">
        <ele>466.3</ele>
        <time>2022-09-28T13:08:17Z</time>
      </trkpt>
      <trkpt lat="46.58205" lon="6.52179">
        <ele>466.4</ele>
        <time>2022-09-28T13:08:18Z</time>
      </trkpt>
      <trkpt lat="46.58207" lon="6.52177">
        <ele>466.5</ele>
        <time>2022-09-28T13:08:19Z</time>
      </trkpt>
      <trkpt lat="46.58208" lon="6.52177">
        <ele>466.6</ele>
        <time>2022-09-28T13:08:20Z</time>
      </trkpt>
      <trkpt lat="46.58211" lon="6.52174">
        <ele>466.8</ele>
        <time>2022-09-28T13:08:21Z</time>
      </trkpt>
      <trkpt lat="46.58211" lon="6.52173">
        <ele>466.9</ele>
        <time>2022-09-28T13:08:22Z</time>
      </trkpt>
      <trkpt lat="46.58214" lon="6.5217">
        <ele>467</ele>
        <time>2022-09-28T13:08:23Z</time>
      </trkpt>
      <trkpt lat="46.58215" lon="6.52169">
        <ele>467.1</ele>
        <time>2022-09-28T13:08:24Z</time>
      </trkpt>
      <trkpt lat="46.58217" lon="6.52167">
        <ele>467.3</ele>
        <time>2022-09-28T13:08:25Z</time>
      </trkpt>
      <trkpt lat="46.58218" lon="6.52166">
        <ele>467.4</ele>
        <time>2022-09-28T13:08:26Z</time>
      </trkpt>
      <trkpt lat="46.5822" lon="6.52163">
        <ele>467.6</ele>
        <time>2022-09-28T13:08:27Z</time>
      </trkpt>
      <trkpt lat="46.58222" lon="6.52161">
        <ele>467.8</ele>
        <time>2022-09-28T13:08:28Z</time>
      </trkpt>
      <trkpt lat="46.58223" lon="6.52159">
        <ele>467.9</ele>
        <time>2022-09-28T13:08:29Z</time>
      </trkpt>
      <trkpt lat="46.58225" lon="6.52156">
        <ele>468.1</ele>
        <time>2022-09-28T13:08:30Z</time>
      </trkpt>
      <trkpt lat="46.58226" lon="6.52155">
        <ele>468.2</ele>
        <time>2022-09-28T13:08:31Z</time>
      </trkpt>
      <trkpt lat="46.58226" lon="6.52154">
        <ele>468.4</ele>
        <time>2022-09-28T13:08:32Z</time>
      </trkpt>
      <trkpt lat="46.58227" lon="6.52152">
        <ele>468.5</ele>
        <time>2022-09-28T13:08:33Z</time>
      </trkpt>
      <trkpt lat="46.58228" lon="6.5215">
        <ele>468.6</ele>
        <time>2022-09-28T13:08:34Z</time>
      </trkpt>
      <trkpt lat="46.58229" lon="6.52148">
        <ele>468.8</ele>
        <time>2022-09-28T13:08:35Z</time>
      </trkpt>
      <trkpt lat="46.5823" lon="6.52146">
        <ele>468.9</ele>
        <time>2022-09-28T13:08:36Z</time>
      </trkpt>
      <trkpt lat="46.5823" lon="6.52144">
        <ele>469.1</ele>
        <time>2022-09-28T13:08:37Z</time>
      </trkpt>
      <trkpt lat="46.58231" lon="6.52142">
        <ele>469.2</ele>
        <time>2022-09-28T13:08:38Z</time>
      </trkpt>
      <trkpt lat="46.58232" lon="6.5214">
        <ele>469.4</ele>
        <time>2022-09-28T13:08:39Z</time>
      </trkpt>
      <trkpt lat="46.58233" lon="6.52138">
        <ele>469.5</ele>
        <time>2022-09-28T13:08:40Z</time>
      </trkpt>
      <trkpt lat="46.58233" lon="6.52136">
        <ele>469.7</ele>
        <time>2022-09-28T13:08:41Z</time>
      </trkpt>
      <trkpt lat="46.58233" lon="6.52134">
        <ele>469.8</ele>
        <time>2022-09-28T13:08:42Z</time>
      </trkpt>
      <trkpt lat="46.58234" lon="6.52131">
        <ele>470</ele>
        <time>2022-09-28T13:08:43Z</time>
      </trkpt>
      <trkpt lat="46.58235" lon="6.52129">
        <ele>470.2</ele>
        <time>2022-09-28T13:08:44Z</time>
      </trkpt>
      <trkpt lat="46.58235" lon="6.52128">
        <ele>470.3</ele>
        <time>2022-09-28T13:08:45Z</time>
      </trkpt>
      <trkpt lat="46.58236" lon="6.52127">
        <ele>470.4</ele>
        <time>2022-09-28T13:08:46Z</time>
      </trkpt>
      <trkpt lat="46.58237" lon="6.52123">
        <ele>470.7</ele>
        <time>2022-09-28T13:08:47Z</time>
      </trkpt>
      <trkpt lat="46.58237" lon="6.52121">
        <ele>470.8</ele>
        <time>2022-09-28T13:08:48Z</time>
      </trkpt>
      <trkpt lat="46.58237" lon="6.5212">
        <ele>470.9</ele>
        <time>2022-09-28T13:08:49Z</time>
      </trkpt>
      <trkpt lat="46.58238" lon="6.52118">
        <ele>471.1</ele>
        <time>2022-09-28T13:08:50Z</time>
      </trkpt>
      <trkpt lat="46.58238" lon="6.52116">
        <ele>471.2</ele>
        <time>2022-09-28T13:08:51Z</time>
      </trkpt>
      <trkpt lat="46.58239" lon="6.52114">
        <ele>471.4</ele>
        <time>2022-09-28T13:08:52Z</time>
      </trkpt>
      <trkpt lat="46.5824" lon="6.52111">
        <ele>471.7</ele>
        <time>2022-09-28T13:08:53Z</time>
      </trkpt>
      <trkpt lat="46.5824" lon="6.5211">
        <ele>471.8</ele>
        <time>2022-09-28T13:08:54Z</time>
      </trkpt>
      <trkpt lat="46.5824" lon="6.52107">
        <ele>472</ele>
        <time>2022-09-28T13:08:55Z</time>
      </trkpt>
      <trkpt lat="46.58241" lon="6.52106">
        <ele>472.1</ele>
        <time>2022-09-28T13:08:56Z</time>
      </trkpt>
      <trkpt lat="46.58241" lon="6.52104">
        <ele>472.2</ele>
        <time>2022-09-28T13:08:57Z</time>
      </trkpt>
      <trkpt lat="46.58242" lon="6.52102">
        <ele>472.4</ele>
        <time>2022-09-28T13:08:58Z</time>
      </trkpt>
      <trkpt lat="46.58242" lon="6.52098">
        <ele>472.7</ele>
        <time>2022-09-28T13:08:59Z</time>
      </trkpt>
      <trkpt lat="46.58242" lon="6.52098">
        <ele>472.7</ele>
        <time>2022-09-28T13:09:00Z</time>
      </trkpt>
      <trkpt lat="46.58243" lon="6.52095">
        <ele>473</ele>
        <time>2022-09-28T13:09:01Z</time>
      </trkpt>
      <trkpt lat="46.58244" lon="6.52094">
        <ele>473.1</ele>
        <time>2022-09-28T13:09:02Z</time>
      </trkpt>
      <trkpt lat="46.58245" lon="6.52089">
        <ele>473.4</ele>
        <time>2022-09-28T13:09:03Z</time>
      </trkpt>
      <trkpt lat="46.58245" lon="6.52088">
        <ele>473.5</ele>
        <time>2022-09-28T13:09:04Z</time>
      </trkpt>
      <trkpt lat="46.58245" lon="6.52087">
        <ele>473.6</ele>
        <time>2022-09-28T13:09:05Z</time>
      </trkpt>
      <trkpt lat="46.58246" lon="6.52085">
        <ele>473.8</ele>
        <time>2022-09-28T13:09:06Z</time>
      </trkpt>
      <trkpt lat="46.58246" lon="6.52084">
        <ele>473.9</ele>
        <time>2022-09-28T13:09:07Z</time>
      </trkpt>
      <trkpt lat="46.58247" lon="6.52082">
        <ele>474.1</ele>
        <time>2022-09-28T13:09:08Z</time>
      </trkpt>
      <trkpt lat="46.58247" lon="6.5208">
        <ele>474.3</ele>
        <time>2022-09-28T13:09:09Z</time>
      </trkpt>
      <trkpt lat="46.58248" lon="6.52076">
        <ele>474.5</ele>
        <time>2022-09-28T13:09:10Z</time>
      </trkpt>
      <trkpt lat="46.58249" lon="6.52076">
        <ele>474.6</ele>
        <time>2022-09-28T13:09:11Z</time>
      </trkpt>
      <trkpt lat="46.58249" lon="6.52073">
        <ele>474.8</ele>
        <time>2022-09-28T13:09:12Z</time>
      </trkpt>
      <trkpt lat="46.58249" lon="6.52072">
        <ele>474.9</ele>
        <time>2022-09-28T13:09:13Z</time>
      </trkpt>
      <trkpt lat="46.5825" lon="6.52069">
        <ele>475.1</ele>
        <time>2022-09-28T13:09:14Z</time>
      </trkpt>
      <trkpt lat="46.58251" lon="6.52067">
        <ele>475.3</ele>
        <time>2022-09-28T13:09:15Z</time>
      </trkpt>
      <trkpt lat="46.58251" lon="6.52064">
        <ele>475.5</ele>
        <time>2022-09-28T13:09:16Z</time>
      </trkpt>
      <trkpt lat="46.58252" lon="6.52062">
        <ele>475.7</ele>
        <time>2022-09-28T13:09:17Z</time>
      </trkpt>
      <trkpt lat="46.58252" lon="6.52061">
        <ele>475.8</ele>
        <time>2022-09-28T13:09:18Z</time>
      </trkpt>
      <trkpt lat="46.58253" lon="6.52059">
        <ele>476</ele>
        <time>2022-09-28T13:09:19Z</time>
      </trkpt>
      <trkpt lat="46.58253" lon="6.52056">
        <ele>476.2</ele>
        <time>2022-09-28T13:09:20Z</time>
      </trkpt>
      <trkpt lat="46.58254" lon="6.52055">
        <ele>476.3</ele>
        <time>2022-09-28T13:09:21Z</time>
      </trkpt>
      <trkpt lat="46.58254" lon="6.52054">
        <ele>476.4</ele>
        <time>2022-09-28T13:09:22Z</time>
      </trkpt>
      <trkpt lat="46.58256" lon="6.52051">
        <ele>476.7</ele>
        <time>2022-09-28T13:09:23Z</time>
      </trkpt>
      <trkpt lat="46.58257" lon="6.5205">
        <ele>476.8</ele>
        <time>2022-09-28T13:09:24Z</time>
      </trkpt>
      <trkpt lat="46.58257" lon="6.52047">
        <ele>477</ele>
        <time>2022-09-28T13:09:25Z</time>
      </trkpt>
      <trkpt lat="46.58258" lon="6.52047">
        <ele>477.1</ele>
        <time>2022-09-28T13:09:26Z</time>
      </trkpt>
      <trkpt lat="46.58259" lon="6.52045">
        <ele>477.3</ele>
        <time>2022-09-28T13:09:28Z</time>
      </trkpt>
      <trkpt lat="46.5826" lon="6.52043">
        <ele>477.4</ele>
        <time>2022-09-28T13:09:29Z</time>
      </trkpt>
      <trkpt lat="46.58261" lon="6.5204">
        <ele>477.6</ele>
        <time>2022-09-28T13:09:30Z</time>
      </trkpt>
      <trkpt lat="46.58262" lon="6.52039">
        <ele>477.7</ele>
        <time>2022-09-28T13:09:31Z</time>
      </trkpt>
      <trkpt lat="46.58263" lon="6.52036">
        <ele>478</ele>
        <time>2022-09-28T13:09:32Z</time>
      </trkpt>
      <trkpt lat="46.58264" lon="6.52035">
        <ele>478.1</ele>
        <time>2022-09-28T13:09:33Z</time>
      </trkpt>
      <trkpt lat="46.58265" lon="6.52033">
        <ele>478.3</ele>
        <time>2022-09-28T13:09:34Z</time>
      </trkpt>
      <trkpt lat="46.58266" lon="6.52032">
        <ele>478.4</ele>
        <time>2022-09-28T13:09:35Z</time>
      </trkpt>
      <trkpt lat="46.58267" lon="6.52029">
        <ele>478.6</ele>
        <time>2022-09-28T13:09:36Z</time>
      </trkpt>
      <trkpt lat="46.58268" lon="6.52028">
        <ele>478.7</ele>
        <time>2022-09-28T13:09:37Z</time>
      </trkpt>
      <trkpt lat="46.58269" lon="6.52025">
        <ele>478.9</ele>
        <time>2022-09-28T13:09:38Z</time>
      </trkpt>
      <trkpt lat="46.58269" lon="6.52024">
        <ele>479</ele>
        <time>2022-09-28T13:09:39Z</time>
      </trkpt>
      <trkpt lat="46.58271" lon="6.52022">
        <ele>479.2</ele>
        <time>2022-09-28T13:09:40Z</time>
      </trkpt>
      <trkpt lat="46.58271" lon="6.52021">
        <ele>479.3</ele>
        <time>2022-09-28T13:09:41Z</time>
      </trkpt>
      <trkpt lat="46.58273" lon="6.52018">
        <ele>479.5</ele>
        <time>2022-09-28T13:09:42Z</time>
      </trkpt>
      <trkpt lat="46.58273" lon="6.52017">
        <ele>479.5</ele>
        <time>2022-09-28T13:09:43Z</time>
      </trkpt>
      <trkpt lat="46.58274" lon="6.52015">
        <ele>479.7</ele>
        <time>2022-09-28T13:09:44Z</time>
      </trkpt>
      <trkpt lat="46.58275" lon="6.52014">
        <ele>479.8</ele>
        <time>2022-09-28T13:09:45Z</time>
      </trkpt>
      <trkpt lat="46.58276" lon="6.52012">
        <ele>479.9</ele>
        <time>2022-09-28T13:09:46Z</time>
      </trkpt>
      <trkpt lat="46.58277" lon="6.52011">
        <ele>480</ele>
        <time>2022-09-28T13:09:47Z</time>
      </trkpt>
      <trkpt lat="46.58278" lon="6.52009">
        <ele>480.2</ele>
        <time>2022-09-28T13:09:48Z</time>
      </trkpt>
      <trkpt lat="46.58279" lon="6.52008">
        <ele>480.2</ele>
        <time>2022-09-28T13:09:49Z</time>
      </trkpt>
      <trkpt lat="46.5828" lon="6.52006">
        <ele>480.4</ele>
        <time>2022-09-28T13:09:50Z</time>
      </trkpt>
      <trkpt lat="46.58281" lon="6.52005">
        <ele>480.5</ele>
        <time>2022-09-28T13:09:51Z</time>
      </trkpt>
      <trkpt lat="46.58282" lon="6.52003">
        <ele>480.6</ele>
        <time>2022-09-28T13:09:52Z</time>
      </trkpt>
      <trkpt lat="46.58283" lon="6.52001">
        <ele>480.7</ele>
        <time>2022-09-28T13:09:53Z</time>
      </trkpt>
      <trkpt lat="46.58284" lon="6.51998">
        <ele>480.9</ele>
        <time>2022-09-28T13:09:54Z</time>
      </trkpt>
      <trkpt lat="46.58285" lon="6.51998">
        <ele>480.9</ele>
        <time>2022-09-28T13:09:55Z</time>
      </trkpt>
      <trkpt lat="46.58286" lon="6.51995">
        <ele>481.1</ele>
        <time>2022-09-28T13:09:56Z</time>
      </trkpt>
      <trkpt lat="46.58286" lon="6.51994">
        <ele>481.1</ele>
        <time>2022-09-28T13:09:57Z</time>
      </trkpt>
      <trkpt lat="46.58287" lon="6.51991">
        <ele>481.2</ele>
        <time>2022-09-28T13:09:58Z</time>
      </trkpt>
      <trkpt lat="46.58288" lon="6.51989">
        <ele>481.3</ele>
        <time>2022-09-28T13:09:59Z</time>
      </trkpt>
      <trkpt lat="46.58288" lon="6.51986">
        <ele>481.3</ele>
        <time>2022-09-28T13:10:00Z</time>
      </trkpt>
      <trkpt lat="46.58289" lon="6.51985">
        <ele>481.4</ele>
        <time>2022-09-28T13:10:01Z</time>
      </trkpt>
      <trkpt lat="46.58289" lon="6.51982">
        <ele>481.5</ele>
        <time>2022-09-28T13:10:02Z</time>
      </trkpt>
      <trkpt lat="46.58291" lon="6.51978">
        <ele>481.6</ele>
        <time>2022-09-28T13:10:03Z</time>
      </trkpt>
      <trkpt lat="46.58291" lon="6.51976">
        <ele>481.6</ele>
        <time>2022-09-28T13:10:04Z</time>
      </trkpt>
      <trkpt lat="46.58293" lon="6.51973">
        <ele>481.7</ele>
        <time>2022-09-28T13:10:05Z</time>
      </trkpt>
      <trkpt lat="46.58293" lon="6.51972">
        <ele>481.7</ele>
        <time>2022-09-28T13:10:06Z</time>
      </trkpt>
      <trkpt lat="46.58294" lon="6.51969">
        <ele>481.8</ele>
        <time>2022-09-28T13:10:07Z</time>
      </trkpt>
      <trkpt lat="46.58294" lon="6.51968">
        <ele>481.8</ele>
        <time>2022-09-28T13:10:08Z</time>
      </trkpt>
      <trkpt lat="46.58296" lon="6.51964">
        <ele>481.9</ele>
        <time>2022-09-28T13:10:09Z</time>
      </trkpt>
      <trkpt lat="46.58296" lon="6.51962">
        <ele>481.9</ele>
        <time>2022-09-28T13:10:10Z</time>
      </trkpt>
      <trkpt lat="46.58297" lon="6.5196">
        <ele>481.9</ele>
        <time>2022-09-28T13:10:11Z</time>
      </trkpt>
      <trkpt lat="46.58298" lon="6.51958">
        <ele>482</ele>
        <time>2022-09-28T13:10:12Z</time>
      </trkpt>
      <trkpt lat="46.58299" lon="6.51956">
        <ele>482</ele>
        <time>2022-09-28T13:10:13Z</time>
      </trkpt>
      <trkpt lat="46.583" lon="6.51954">
        <ele>482</ele>
        <time>2022-09-28T13:10:14Z</time>
      </trkpt>
      <trkpt lat="46.58301" lon="6.5195">
        <ele>482.1</ele>
        <time>2022-09-28T13:10:15Z</time>
      </trkpt>
      <trkpt lat="46.58301" lon="6.51948">
        <ele>482.1</ele>
        <time>2022-09-28T13:10:16Z</time>
      </trkpt>
      <trkpt lat="46.58302" lon="6.51946">
        <ele>482.1</ele>
        <time>2022-09-28T13:10:17Z</time>
      </trkpt>
      <trkpt lat="46.58303" lon="6.51944">
        <ele>482.2</ele>
        <time>2022-09-28T13:10:18Z</time>
      </trkpt>
      <trkpt lat="46.58305" lon="6.5194">
        <ele>482.2</ele>
        <time>2022-09-28T13:10:19Z</time>
      </trkpt>
      <trkpt lat="46.58305" lon="6.51939">
        <ele>482.2</ele>
        <time>2022-09-28T13:10:20Z</time>
      </trkpt>
      <trkpt lat="46.58306" lon="6.51936">
        <ele>482.3</ele>
        <time>2022-09-28T13:10:21Z</time>
      </trkpt>
      <trkpt lat="46.58307" lon="6.51934">
        <ele>482.3</ele>
        <time>2022-09-28T13:10:22Z</time>
      </trkpt>
      <trkpt lat="46.58308" lon="6.51932">
        <ele>482.3</ele>
        <time>2022-09-28T13:10:23Z</time>
      </trkpt>
      <trkpt lat="46.58308" lon="6.5193">
        <ele>482.4</ele>
        <time>2022-09-28T13:10:24Z</time>
      </trkpt>
      <trkpt lat="46.58309" lon="6.51928">
        <ele>482.4</ele>
        <time>2022-09-28T13:10:25Z</time>
      </trkpt>
      <trkpt lat="46.5831" lon="6.51926">
        <ele>482.4</ele>
        <time>2022-09-28T13:10:26Z</time>
      </trkpt>
      <trkpt lat="46.58311" lon="6.51924">
        <ele>482.4</ele>
        <time>2022-09-28T13:10:27Z</time>
      </trkpt>
      <trkpt lat="46.58311" lon="6.51922">
        <ele>482.5</ele>
        <time>2022-09-28T13:10:28Z</time>
      </trkpt>
      <trkpt lat="46.58313" lon="6.51918">
        <ele>482.6</ele>
        <time>2022-09-28T13:10:29Z</time>
      </trkpt>
      <trkpt lat="46.58314" lon="6.51917">
        <ele>482.6</ele>
        <time>2022-09-28T13:10:30Z</time>
      </trkpt>
      <trkpt lat="46.58315" lon="6.51914">
        <ele>482.7</ele>
        <time>2022-09-28T13:10:31Z</time>
      </trkpt>
      <trkpt lat="46.58316" lon="6.51913">
        <ele>482.7</ele>
        <time>2022-09-28T13:10:32Z</time>
      </trkpt>
      <trkpt lat="46.58317" lon="6.5191">
        <ele>482.7</ele>
        <time>2022-09-28T13:10:33Z</time>
      </trkpt>
      <trkpt lat="46.58317" lon="6.51908">
        <ele>482.8</ele>
        <time>2022-09-28T13:10:34Z</time>
      </trkpt>
      <trkpt lat="46.58318" lon="6.51906">
        <ele>482.8</ele>
        <time>2022-09-28T13:10:35Z</time>
      </trkpt>
      <trkpt lat="46.58319" lon="6.51904">
        <ele>482.9</ele>
        <time>2022-09-28T13:10:36Z</time>
      </trkpt>
      <trkpt lat="46.5832" lon="6.51902">
        <ele>482.9</ele>
        <time>2022-09-28T13:10:37Z</time>
      </trkpt>
      <trkpt lat="46.58321" lon="6.51901">
        <ele>483</ele>
        <time>2022-09-28T13:10:38Z</time>
      </trkpt>
      <trkpt lat="46.58322" lon="6.51898">
        <ele>483.1</ele>
        <time>2022-09-28T13:10:39Z</time>
      </trkpt>
      <trkpt lat="46.58323" lon="6.51896">
        <ele>483.1</ele>
        <time>2022-09-28T13:10:40Z</time>
      </trkpt>
      <trkpt lat="46.58324" lon="6.51894">
        <ele>483.2</ele>
        <time>2022-09-28T13:10:41Z</time>
      </trkpt>
      <trkpt lat="46.58325" lon="6.51892">
        <ele>483.3</ele>
        <time>2022-09-28T13:10:42Z</time>
      </trkpt>
      <trkpt lat="46.58326" lon="6.5189">
        <ele>483.3</ele>
        <time>2022-09-28T13:10:43Z</time>
      </trkpt>
      <trkpt lat="46.58327" lon="6.51888">
        <ele>483.4</ele>
        <time>2022-09-28T13:10:44Z</time>
      </trkpt>
      <trkpt lat="46.58327" lon="6.51886">
        <ele>483.5</ele>
        <time>2022-09-28T13:10:45Z</time>
      </trkpt>
      <trkpt lat="46.58328" lon="6.51884">
        <ele>483.5</ele>
        <time>2022-09-28T13:10:46Z</time>
      </trkpt>
      <trkpt lat="46.58329" lon="6.51882">
        <ele>483.6</ele>
        <time>2022-09-28T13:10:47Z</time>
      </trkpt>
      <trkpt lat="46.5833" lon="6.51879">
        <ele>483.7</ele>
        <time>2022-09-28T13:10:48Z</time>
      </trkpt>
      <trkpt lat="46.5833" lon="6.51878">
        <ele>483.8</ele>
        <time>2022-09-28T13:10:49Z</time>
      </trkpt>
      <trkpt lat="46.58331" lon="6.51875">
        <ele>483.9</ele>
        <time>2022-09-28T13:10:50Z</time>
      </trkpt>
      <trkpt lat="46.58333" lon="6.51874">
        <ele>483.9</ele>
        <time>2022-09-28T13:10:51Z</time>
      </trkpt>
      <trkpt lat="46.58334" lon="6.51872">
        <ele>484</ele>
        <time>2022-09-28T13:10:52Z</time>
      </trkpt>
      <trkpt lat="46.58335" lon="6.5187">
        <ele>484.1</ele>
        <time>2022-09-28T13:10:53Z</time>
      </trkpt>
      <trkpt lat="46.58336" lon="6.51869">
        <ele>484.2</ele>
        <time>2022-09-28T13:10:54Z</time>
      </trkpt>
      <trkpt lat="46.58337" lon="6.51867">
        <ele>484.3</ele>
        <time>2022-09-28T13:10:55Z</time>
      </trkpt>
      <trkpt lat="46.58338" lon="6.51865">
        <ele>484.3</ele>
        <time>2022-09-28T13:10:56Z</time>
      </trkpt>
      <trkpt lat="46.58339" lon="6.51863">
        <ele>484.4</ele>
        <time>2022-09-28T13:10:57Z</time>
      </trkpt>
      <trkpt lat="46.58339" lon="6.51861">
        <ele>484.5</ele>
        <time>2022-09-28T13:10:58Z</time>
      </trkpt>
      <trkpt lat="46.5834" lon="6.51859">
        <ele>484.6</ele>
        <time>2022-09-28T13:10:59Z</time>
      </trkpt>
      <trkpt lat="46.58341" lon="6.51858">
        <ele>484.7</ele>
        <time>2022-09-28T13:11:00Z</time>
      </trkpt>
      <trkpt lat="46.58342" lon="6.51856">
        <ele>484.8</ele>
        <time>2022-09-28T13:11:01Z</time>
      </trkpt>
      <trkpt lat="46.58343" lon="6.51854">
        <ele>484.9</ele>
        <time>2022-09-28T13:11:02Z</time>
      </trkpt>
      <trkpt lat="46.58345" lon="6.51852">
        <ele>485</ele>
        <time>2022-09-28T13:11:03Z</time>
      </trkpt>
      <trkpt lat="46.58346" lon="6.51851">
        <ele>485.1</ele>
        <time>2022-09-28T13:11:04Z</time>
      </trkpt>
      <trkpt lat="46.58346" lon="6.51848">
        <ele>485.2</ele>
        <time>2022-09-28T13:11:05Z</time>
      </trkpt>
      <trkpt lat="46.58347" lon="6.51846">
        <ele>485.3</ele>
        <time>2022-09-28T13:11:06Z</time>
      </trkpt>
      <trkpt lat="46.58348" lon="6.51844">
        <ele>485.4</ele>
        <time>2022-09-28T13:11:07Z</time>
      </trkpt>
      <trkpt lat="46.5835" lon="6.51843">
        <ele>485.6</ele>
        <time>2022-09-28T13:11:08Z</time>
      </trkpt>
      <trkpt lat="46.58351" lon="6.51841">
        <ele>485.7</ele>
        <time>2022-09-28T13:11:09Z</time>
      </trkpt>
      <trkpt lat="46.58352" lon="6.51839">
        <ele>485.8</ele>
        <time>2022-09-28T13:11:10Z</time>
      </trkpt>
      <trkpt lat="46.58353" lon="6.51837">
        <ele>485.9</ele>
        <time>2022-09-28T13:11:11Z</time>
      </trkpt>
      <trkpt lat="46.58354" lon="6.51836">
        <ele>486</ele>
        <time>2022-09-28T13:11:12Z</time>
      </trkpt>
      <trkpt lat="46.58354" lon="6.51833">
        <ele>486.1</ele>
        <time>2022-09-28T13:11:13Z</time>
      </trkpt>
      <trkpt lat="46.58355" lon="6.51831">
        <ele>486.3</ele>
        <time>2022-09-28T13:11:14Z</time>
      </trkpt>
      <trkpt lat="46.58357" lon="6.5183">
        <ele>486.4</ele>
        <time>2022-09-28T13:11:15Z</time>
      </trkpt>
      <trkpt lat="46.58358" lon="6.51828">
        <ele>486.5</ele>
        <time>2022-09-28T13:11:16Z</time>
      </trkpt>
      <trkpt lat="46.58359" lon="6.51827">
        <ele>486.6</ele>
        <time>2022-09-28T13:11:17Z</time>
      </trkpt>
      <trkpt lat="46.5836" lon="6.51825">
        <ele>486.7</ele>
        <time>2022-09-28T13:11:18Z</time>
      </trkpt>
      <trkpt lat="46.5836" lon="6.51823">
        <ele>486.9</ele>
        <time>2022-09-28T13:11:19Z</time>
      </trkpt>
      <trkpt lat="46.58361" lon="6.51821">
        <ele>487</ele>
        <time>2022-09-28T13:11:20Z</time>
      </trkpt>
      <trkpt lat="46.58362" lon="6.51818">
        <ele>487.1</ele>
        <time>2022-09-28T13:11:21Z</time>
      </trkpt>
      <trkpt lat="46.58363" lon="6.51817">
        <ele>487.3</ele>
        <time>2022-09-28T13:11:22Z</time>
      </trkpt>
      <trkpt lat="46.58364" lon="6.51815">
        <ele>487.4</ele>
        <time>2022-09-28T13:11:23Z</time>
      </trkpt>
      <trkpt lat="46.58365" lon="6.51813">
        <ele>487.5</ele>
        <time>2022-09-28T13:11:24Z</time>
      </trkpt>
      <trkpt lat="46.58366" lon="6.51811">
        <ele>487.7</ele>
        <time>2022-09-28T13:11:25Z</time>
      </trkpt>
      <trkpt lat="46.58366" lon="6.51809">
        <ele>487.8</ele>
        <time>2022-09-28T13:11:26Z</time>
      </trkpt>
      <trkpt lat="46.58366" lon="6.51805">
        <ele>488</ele>
        <time>2022-09-28T13:11:27Z</time>
      </trkpt>
      <trkpt lat="46.58366" lon="6.51804">
        <ele>488.1</ele>
        <time>2022-09-28T13:11:28Z</time>
      </trkpt>
      <trkpt lat="46.58367" lon="6.51801">
        <ele>488.2</ele>
        <time>2022-09-28T13:11:29Z</time>
      </trkpt>
      <trkpt lat="46.58367" lon="6.51799">
        <ele>488.3</ele>
        <time>2022-09-28T13:11:30Z</time>
      </trkpt>
      <trkpt lat="46.58367" lon="6.51797">
        <ele>488.5</ele>
        <time>2022-09-28T13:11:31Z</time>
      </trkpt>
      <trkpt lat="46.58368" lon="6.51795">
        <ele>488.6</ele>
        <time>2022-09-28T13:11:32Z</time>
      </trkpt>
      <trkpt lat="46.58369" lon="6.51793">
        <ele>488.8</ele>
        <time>2022-09-28T13:11:34Z</time>
      </trkpt>
      <trkpt lat="46.58369" lon="6.5179">
        <ele>488.9</ele>
        <time>2022-09-28T13:11:35Z</time>
      </trkpt>
      <trkpt lat="46.58368" lon="6.51788">
        <ele>489</ele>
        <time>2022-09-28T13:11:36Z</time>
      </trkpt>
      <trkpt lat="46.58368" lon="6.51786">
        <ele>489.2</ele>
        <time>2022-09-28T13:11:37Z</time>
      </trkpt>
      <trkpt lat="46.58368" lon="6.51784">
        <ele>489.3</ele>
        <time>2022-09-28T13:11:38Z</time>
      </trkpt>
      <trkpt lat="46.58368" lon="6.51781">
        <ele>489.5</ele>
        <time>2022-09-28T13:11:39Z</time>
      </trkpt>
      <trkpt lat="46.58368" lon="6.51779">
        <ele>489.6</ele>
        <time>2022-09-28T13:11:40Z</time>
      </trkpt>
      <trkpt lat="46.58367" lon="6.51776">
        <ele>489.8</ele>
        <time>2022-09-28T13:11:41Z</time>
      </trkpt>
      <trkpt lat="46.58367" lon="6.51774">
        <ele>490</ele>
        <time>2022-09-28T13:11:42Z</time>
      </trkpt>
      <trkpt lat="46.58367" lon="6.51771">
        <ele>490.2</ele>
        <time>2022-09-28T13:11:43Z</time>
      </trkpt>
      <trkpt lat="46.58366" lon="6.51767">
        <ele>490.4</ele>
        <time>2022-09-28T13:11:44Z</time>
      </trkpt>
      <trkpt lat="46.58366" lon="6.51766">
        <ele>490.5</ele>
        <time>2022-09-28T13:11:45Z</time>
      </trkpt>
      <trkpt lat="46.58365" lon="6.51762">
        <ele>490.8</ele>
        <time>2022-09-28T13:11:46Z</time>
      </trkpt>
      <trkpt lat="46.58364" lon="6.51761">
        <ele>491</ele>
        <time>2022-09-28T13:11:47Z</time>
      </trkpt>
      <trkpt lat="46.58364" lon="6.51757">
        <ele>491.3</ele>
        <time>2022-09-28T13:11:48Z</time>
      </trkpt>
      <trkpt lat="46.58363" lon="6.51756">
        <ele>491.4</ele>
        <time>2022-09-28T13:11:49Z</time>
      </trkpt>
      <trkpt lat="46.58363" lon="6.51753">
        <ele>491.5</ele>
        <time>2022-09-28T13:11:50Z</time>
      </trkpt>
      <trkpt lat="46.58362" lon="6.51751">
        <ele>491.7</ele>
        <time>2022-09-28T13:11:51Z</time>
      </trkpt>
      <trkpt lat="46.58361" lon="6.51747">
        <ele>492</ele>
        <time>2022-09-28T13:11:52Z</time>
      </trkpt>
      <trkpt lat="46.58361" lon="6.51745">
        <ele>492.1</ele>
        <time>2022-09-28T13:11:53Z</time>
      </trkpt>
      <trkpt lat="46.5836" lon="6.51741">
        <ele>492.4</ele>
        <time>2022-09-28T13:11:54Z</time>
      </trkpt>
      <trkpt lat="46.5836" lon="6.5174">
        <ele>492.5</ele>
        <time>2022-09-28T13:11:55Z</time>
      </trkpt>
      <trkpt lat="46.58359" lon="6.51738">
        <ele>492.7</ele>
        <time>2022-09-28T13:11:56Z</time>
      </trkpt>
      <trkpt lat="46.58358" lon="6.51736">
        <ele>492.8</ele>
        <time>2022-09-28T13:11:57Z</time>
      </trkpt>
      <trkpt lat="46.58358" lon="6.51734">
        <ele>493</ele>
        <time>2022-09-28T13:11:58Z</time>
      </trkpt>
      <trkpt lat="46.58358" lon="6.51731">
        <ele>493.2</ele>
        <time>2022-09-28T13:11:59Z</time>
      </trkpt>
      <trkpt lat="46.58357" lon="6.51729">
        <ele>493.4</ele>
        <time>2022-09-28T13:12:00Z</time>
      </trkpt>
      <trkpt lat="46.58356" lon="6.51727">
        <ele>493.5</ele>
        <time>2022-09-28T13:12:01Z</time>
      </trkpt>
      <trkpt lat="46.58356" lon="6.51725">
        <ele>493.7</ele>
        <time>2022-09-28T13:12:02Z</time>
      </trkpt>
      <trkpt lat="46.58356" lon="6.51723">
        <ele>493.8</ele>
        <time>2022-09-28T13:12:03Z</time>
      </trkpt>
      <trkpt lat="46.58355" lon="6.51721">
        <ele>494</ele>
        <time>2022-09-28T13:12:04Z</time>
      </trkpt>
      <trkpt lat="46.58355" lon="6.51718">
        <ele>494.2</ele>
        <time>2022-09-28T13:12:05Z</time>
      </trkpt>
      <trkpt lat="46.58355" lon="6.51716">
        <ele>494.3</ele>
        <time>2022-09-28T13:12:06Z</time>
      </trkpt>
      <trkpt lat="46.58355" lon="6.51713">
        <ele>494.5</ele>
        <time>2022-09-28T13:12:07Z</time>
      </trkpt>
      <trkpt lat="46.58355" lon="6.51711">
        <ele>494.6</ele>
        <time>2022-09-28T13:12:08Z</time>
      </trkpt>
      <trkpt lat="46.58355" lon="6.51709">
        <ele>494.8</ele>
        <time>2022-09-28T13:12:09Z</time>
      </trkpt>
      <trkpt lat="46.58355" lon="6.51706">
        <ele>494.9</ele>
        <time>2022-09-28T13:12:10Z</time>
      </trkpt>
      <trkpt lat="46.58355" lon="6.51704">
        <ele>495.1</ele>
        <time>2022-09-28T13:12:11Z</time>
      </trkpt>
      <trkpt lat="46.58355" lon="6.51702">
        <ele>495.2</ele>
        <time>2022-09-28T13:12:12Z</time>
      </trkpt>
      <trkpt lat="46.58355" lon="6.517">
        <ele>495.3</ele>
        <time>2022-09-28T13:12:13Z</time>
      </trkpt>
      <trkpt lat="46.58355" lon="6.51698">
        <ele>495.5</ele>
        <time>2022-09-28T13:12:14Z</time>
      </trkpt>
      <trkpt lat="46.58356" lon="6.51695">
        <ele>495.6</ele>
        <time>2022-09-28T13:12:15Z</time>
      </trkpt>
      <trkpt lat="46.58357" lon="6.51694">
        <ele>495.7</ele>
        <time>2022-09-28T13:12:16Z</time>
      </trkpt>
      <trkpt lat="46.58358" lon="6.51691">
        <ele>495.9</ele>
        <time>2022-09-28T13:12:17Z</time>
      </trkpt>
      <trkpt lat="46.58357" lon="6.51689">
        <ele>496</ele>
        <time>2022-09-28T13:12:18Z</time>
      </trkpt>
      <trkpt lat="46.58358" lon="6.51686">
        <ele>496.1</ele>
        <time>2022-09-28T13:12:19Z</time>
      </trkpt>
      <trkpt lat="46.58358" lon="6.51685">
        <ele>496.2</ele>
        <time>2022-09-28T13:12:20Z</time>
      </trkpt>
      <trkpt lat="46.5836" lon="6.51682">
        <ele>496.3</ele>
        <time>2022-09-28T13:12:21Z</time>
      </trkpt>
      <trkpt lat="46.5836" lon="6.51681">
        <ele>496.4</ele>
        <time>2022-09-28T13:12:22Z</time>
      </trkpt>
      <trkpt lat="46.58361" lon="6.51679">
        <ele>496.5</ele>
        <time>2022-09-28T13:12:23Z</time>
      </trkpt>
      <trkpt lat="46.58362" lon="6.51678">
        <ele>496.6</ele>
        <time>2022-09-28T13:12:24Z</time>
      </trkpt>
      <trkpt lat="46.58363" lon="6.51675">
        <ele>496.7</ele>
        <time>2022-09-28T13:12:25Z</time>
      </trkpt>
      <trkpt lat="46.58364" lon="6.51672">
        <ele>496.8</ele>
        <time>2022-09-28T13:12:26Z</time>
      </trkpt>
      <trkpt lat="46.58365" lon="6.5167">
        <ele>496.8</ele>
        <time>2022-09-28T13:12:27Z</time>
      </trkpt>
      <trkpt lat="46.58365" lon="6.51668">
        <ele>496.9</ele>
        <time>2022-09-28T13:12:28Z</time>
      </trkpt>
      <trkpt lat="46.58365" lon="6.51666">
        <ele>497</ele>
        <time>2022-09-28T13:12:29Z</time>
      </trkpt>
      <trkpt lat="46.58366" lon="6.51664">
        <ele>497</ele>
        <time>2022-09-28T13:12:30Z</time>
      </trkpt>
      <trkpt lat="46.58368" lon="6.51662">
        <ele>497.1</ele>
        <time>2022-09-28T13:12:31Z</time>
      </trkpt>
      <trkpt lat="46.58369" lon="6.5166">
        <ele>497.2</ele>
        <time>2022-09-28T13:12:32Z</time>
      </trkpt>
      <trkpt lat="46.5837" lon="6.51659">
        <ele>497.2</ele>
        <time>2022-09-28T13:12:33Z</time>
      </trkpt>
      <trkpt lat="46.58371" lon="6.51657">
        <ele>497.3</ele>
        <time>2022-09-28T13:12:34Z</time>
      </trkpt>
      <trkpt lat="46.58371" lon="6.51656">
        <ele>497.3</ele>
        <time>2022-09-28T13:12:35Z</time>
      </trkpt>
      <trkpt lat="46.58371" lon="6.51656">
        <ele>497.3</ele>
        <time>2022-09-28T13:12:36Z</time>
      </trkpt>
      <trkpt lat="46.58371" lon="6.51655">
        <ele>497.3</ele>
        <time>2022-09-28T13:12:37Z</time>
      </trkpt>
      <trkpt lat="46.58372" lon="6.51655">
        <ele>497.3</ele>
        <time>2022-09-28T13:12:38Z</time>
      </trkpt>
      <trkpt lat="46.58372" lon="6.51654">
        <ele>497.3</ele>
        <time>2022-09-28T13:12:39Z</time>
      </trkpt>
      <trkpt lat="46.58372" lon="6.51654">
        <ele>497.3</ele>
        <time>2022-09-28T13:12:40Z</time>
      </trkpt>
      <trkpt lat="46.58372" lon="6.51653">
        <ele>497.3</ele>
        <time>2022-09-28T13:12:41Z</time>
      </trkpt>
      <trkpt lat="46.58372" lon="6.51653">
        <ele>497.4</ele>
        <time>2022-09-28T13:12:42Z</time>
      </trkpt>
      <trkpt lat="46.58373" lon="6.51652">
        <ele>497.4</ele>
        <time>2022-09-28T13:12:43Z</time>
      </trkpt>
      <trkpt lat="46.58373" lon="6.51651">
        <ele>497.4</ele>
        <time>2022-09-28T13:12:44Z</time>
      </trkpt>
      <trkpt lat="46.58373" lon="6.51651">
        <ele>497.4</ele>
        <time>2022-09-28T13:13:24Z</time>
      </trkpt>
      <trkpt lat="46.58373" lon="6.5165">
        <ele>497.4</ele>
        <time>2022-09-28T13:13:25Z</time>
      </trkpt>
      <trkpt lat="46.58374" lon="6.51649">
        <ele>497.4</ele>
        <time>2022-09-28T13:13:26Z</time>
      </trkpt>
      <trkpt lat="46.58375" lon="6.51647">
        <ele>497.5</ele>
        <time>2022-09-28T13:13:27Z</time>
      </trkpt>
      <trkpt lat="46.58377" lon="6.51643">
        <ele>497.6</ele>
        <time>2022-09-28T13:13:28Z</time>
      </trkpt>
      <trkpt lat="46.58377" lon="6.51641">
        <ele>497.6</ele>
        <time>2022-09-28T13:13:29Z</time>
      </trkpt>
      <trkpt lat="46.58378" lon="6.51639">
        <ele>497.6</ele>
        <time>2022-09-28T13:13:30Z</time>
      </trkpt>
      <trkpt lat="46.58379" lon="6.51637">
        <ele>497.7</ele>
        <time>2022-09-28T13:13:31Z</time>
      </trkpt>
      <trkpt lat="46.58381" lon="6.51634">
        <ele>497.7</ele>
        <time>2022-09-28T13:13:32Z</time>
      </trkpt>
      <trkpt lat="46.58382" lon="6.51633">
        <ele>497.7</ele>
        <time>2022-09-28T13:13:33Z</time>
      </trkpt>
      <trkpt lat="46.58383" lon="6.51629">
        <ele>497.8</ele>
        <time>2022-09-28T13:13:34Z</time>
      </trkpt>
      <trkpt lat="46.58383" lon="6.51628">
        <ele>497.8</ele>
        <time>2022-09-28T13:13:35Z</time>
      </trkpt>
      <trkpt lat="46.58385" lon="6.51624">
        <ele>497.9</ele>
        <time>2022-09-28T13:13:36Z</time>
      </trkpt>
      <trkpt lat="46.58386" lon="6.51623">
        <ele>497.9</ele>
        <time>2022-09-28T13:13:37Z</time>
      </trkpt>
      <trkpt lat="46.58387" lon="6.5162">
        <ele>498</ele>
        <time>2022-09-28T13:13:38Z</time>
      </trkpt>
      <trkpt lat="46.58388" lon="6.51618">
        <ele>498</ele>
        <time>2022-09-28T13:13:40Z</time>
      </trkpt>
      <trkpt lat="46.5839" lon="6.51614">
        <ele>498.1</ele>
        <time>2022-09-28T13:13:41Z</time>
      </trkpt>
      <trkpt lat="46.5839" lon="6.51612">
        <ele>498.1</ele>
        <time>2022-09-28T13:13:42Z</time>
      </trkpt>
      <trkpt lat="46.58392" lon="6.51608">
        <ele>498.2</ele>
        <time>2022-09-28T13:13:43Z</time>
      </trkpt>
      <trkpt lat="46.58392" lon="6.51607">
        <ele>498.2</ele>
        <time>2022-09-28T13:13:44Z</time>
      </trkpt>
      <trkpt lat="46.58394" lon="6.51603">
        <ele>498.2</ele>
        <time>2022-09-28T13:13:45Z</time>
      </trkpt>
      <trkpt lat="46.58394" lon="6.51602">
        <ele>498.3</ele>
        <time>2022-09-28T13:13:46Z</time>
      </trkpt>
      <trkpt lat="46.58396" lon="6.51598">
        <ele>498.3</ele>
        <time>2022-09-28T13:13:47Z</time>
      </trkpt>
      <trkpt lat="46.58397" lon="6.51597">
        <ele>498.3</ele>
        <time>2022-09-28T13:13:48Z</time>
      </trkpt>
      <trkpt lat="46.58399" lon="6.51593">
        <ele>498.4</ele>
        <time>2022-09-28T13:13:49Z</time>
      </trkpt>
      <trkpt lat="46.58399" lon="6.51592">
        <ele>498.4</ele>
        <time>2022-09-28T13:13:50Z</time>
      </trkpt>
      <trkpt lat="46.58401" lon="6.51588">
        <ele>498.4</ele>
        <time>2022-09-28T13:13:51Z</time>
      </trkpt>
      <trkpt lat="46.58402" lon="6.51586">
        <ele>498.4</ele>
        <time>2022-09-28T13:13:52Z</time>
      </trkpt>
      <trkpt lat="46.58403" lon="6.51582">
        <ele>498.5</ele>
        <time>2022-09-28T13:13:53Z</time>
      </trkpt>
      <trkpt lat="46.58404" lon="6.51581">
        <ele>498.5</ele>
        <time>2022-09-28T13:13:54Z</time>
      </trkpt>
      <trkpt lat="46.58405" lon="6.51577">
        <ele>498.5</ele>
        <time>2022-09-28T13:13:55Z</time>
      </trkpt>
      <trkpt lat="46.58406" lon="6.51576">
        <ele>498.5</ele>
        <time>2022-09-28T13:13:56Z</time>
      </trkpt>
      <trkpt lat="46.58407" lon="6.51572">
        <ele>498.5</ele>
        <time>2022-09-28T13:13:57Z</time>
      </trkpt>
      <trkpt lat="46.58408" lon="6.51571">
        <ele>498.5</ele>
        <time>2022-09-28T13:13:58Z</time>
      </trkpt>
      <trkpt lat="46.58409" lon="6.51568">
        <ele>498.5</ele>
        <time>2022-09-28T13:13:59Z</time>
      </trkpt>
      <trkpt lat="46.5841" lon="6.51566">
        <ele>498.5</ele>
        <time>2022-09-28T13:14:00Z</time>
      </trkpt>
      <trkpt lat="46.58412" lon="6.51561">
        <ele>498.5</ele>
        <time>2022-09-28T13:14:01Z</time>
      </trkpt>
      <trkpt lat="46.58412" lon="6.5156">
        <ele>498.5</ele>
        <time>2022-09-28T13:14:02Z</time>
      </trkpt>
      <trkpt lat="46.58414" lon="6.51556">
        <ele>498.5</ele>
        <time>2022-09-28T13:14:03Z</time>
      </trkpt>
      <trkpt lat="46.58415" lon="6.51553">
        <ele>498.4</ele>
        <time>2022-09-28T13:14:04Z</time>
      </trkpt>
      <trkpt lat="46.58417" lon="6.51549">
        <ele>498.4</ele>
        <time>2022-09-28T13:14:05Z</time>
      </trkpt>
      <trkpt lat="46.58418" lon="6.51545">
        <ele>498.3</ele>
        <time>2022-09-28T13:14:06Z</time>
      </trkpt>
      <trkpt lat="46.5842" lon="6.51542">
        <ele>498.2</ele>
        <time>2022-09-28T13:14:07Z</time>
      </trkpt>
      <trkpt lat="46.58422" lon="6.51537">
        <ele>498.1</ele>
        <time>2022-09-28T13:14:08Z</time>
      </trkpt>
      <trkpt lat="46.58423" lon="6.51533">
        <ele>497.9</ele>
        <time>2022-09-28T13:14:09Z</time>
      </trkpt>
      <trkpt lat="46.58425" lon="6.51528">
        <ele>497.8</ele>
        <time>2022-09-28T13:14:10Z</time>
      </trkpt>
      <trkpt lat="46.5843" lon="6.51517">
        <ele>497.4</ele>
        <time>2022-09-28T13:14:11Z</time>
      </trkpt>
      <trkpt lat="46.58432" lon="6.51512">
        <ele>497.1</ele>
        <time>2022-09-28T13:14:12Z</time>
      </trkpt>
      <trkpt lat="46.58434" lon="6.51506">
        <ele>496.8</ele>
        <time>2022-09-28T13:14:13Z</time>
      </trkpt>
      <trkpt lat="46.58436" lon="6.51501">
        <ele>496.5</ele>
        <time>2022-09-28T13:14:14Z</time>
      </trkpt>
      <trkpt lat="46.58439" lon="6.51495">
        <ele>496.2</ele>
        <time>2022-09-28T13:14:15Z</time>
      </trkpt>
      <trkpt lat="46.58443" lon="6.5149">
        <ele>495.8</ele>
        <time>2022-09-28T13:14:16Z</time>
      </trkpt>
      <trkpt lat="46.58445" lon="6.51483">
        <ele>495.5</ele>
        <time>2022-09-28T13:14:17Z</time>
      </trkpt>
      <trkpt lat="46.58448" lon="6.51477">
        <ele>495.1</ele>
        <time>2022-09-28T13:14:18Z</time>
      </trkpt>
      <trkpt lat="46.58451" lon="6.5147">
        <ele>494.7</ele>
        <time>2022-09-28T13:14:19Z</time>
      </trkpt>
      <trkpt lat="46.58454" lon="6.51464">
        <ele>494.3</ele>
        <time>2022-09-28T13:14:20Z</time>
      </trkpt>
      <trkpt lat="46.58459" lon="6.51463">
        <ele>493.9</ele>
        <time>2022-09-28T13:14:21Z</time>
      </trkpt>
      <trkpt lat="46.58463" lon="6.51456">
        <ele>493.5</ele>
        <time>2022-09-28T13:14:22Z</time>
      </trkpt>
      <trkpt lat="46.58464" lon="6.51448">
        <ele>493</ele>
        <time>2022-09-28T13:14:23Z</time>
      </trkpt>
      <trkpt lat="46.58467" lon="6.51442">
        <ele>492.7</ele>
        <time>2022-09-28T13:14:24Z</time>
      </trkpt>
      <trkpt lat="46.5847" lon="6.51436">
        <ele>492.4</ele>
        <time>2022-09-28T13:14:25Z</time>
      </trkpt>
      <trkpt lat="46.58473" lon="6.51431">
        <ele>492.2</ele>
        <time>2022-09-28T13:14:26Z</time>
      </trkpt>
      <trkpt lat="46.58476" lon="6.51425">
        <ele>491.9</ele>
        <time>2022-09-28T13:14:27Z</time>
      </trkpt>
      <trkpt lat="46.58479" lon="6.51419">
        <ele>491.7</ele>
        <time>2022-09-28T13:14:28Z</time>
      </trkpt>
      <trkpt lat="46.58483" lon="6.51414">
        <ele>491.5</ele>
        <time>2022-09-28T13:14:29Z</time>
      </trkpt>
      <trkpt lat="46.58486" lon="6.51408">
        <ele>491.3</ele>
        <time>2022-09-28T13:14:30Z</time>
      </trkpt>
      <trkpt lat="46.5849" lon="6.51402">
        <ele>491.1</ele>
        <time>2022-09-28T13:14:31Z</time>
      </trkpt>
      <trkpt lat="46.58493" lon="6.51397">
        <ele>490.9</ele>
        <time>2022-09-28T13:14:32Z</time>
      </trkpt>
      <trkpt lat="46.58497" lon="6.51392">
        <ele>490.7</ele>
        <time>2022-09-28T13:14:33Z</time>
      </trkpt>
      <trkpt lat="46.58501" lon="6.51386">
        <ele>490.6</ele>
        <time>2022-09-28T13:14:34Z</time>
      </trkpt>
      <trkpt lat="46.58505" lon="6.51383">
        <ele>490.5</ele>
        <time>2022-09-28T13:14:35Z</time>
      </trkpt>
      <trkpt lat="46.58508" lon="6.51378">
        <ele>490.4</ele>
        <time>2022-09-28T13:14:36Z</time>
      </trkpt>
      <trkpt lat="46.58511" lon="6.51374">
        <ele>490.3</ele>
        <time>2022-09-28T13:14:37Z</time>
      </trkpt>
      <trkpt lat="46.58515" lon="6.51369">
        <ele>490.2</ele>
        <time>2022-09-28T13:14:38Z</time>
      </trkpt>
      <trkpt lat="46.58519" lon="6.51365">
        <ele>490.2</ele>
        <time>2022-09-28T13:14:39Z</time>
      </trkpt>
      <trkpt lat="46.58523" lon="6.51361">
        <ele>490.2</ele>
        <time>2022-09-28T13:14:40Z</time>
      </trkpt>
      <trkpt lat="46.58525" lon="6.51358">
        <ele>490.2</ele>
        <time>2022-09-28T13:14:41Z</time>
      </trkpt>
      <trkpt lat="46.58528" lon="6.51354">
        <ele>490.2</ele>
        <time>2022-09-28T13:14:42Z</time>
      </trkpt>
      <trkpt lat="46.58532" lon="6.51351">
        <ele>490.3</ele>
        <time>2022-09-28T13:14:43Z</time>
      </trkpt>
      <trkpt lat="46.58536" lon="6.51347">
        <ele>490.4</ele>
        <time>2022-09-28T13:14:44Z</time>
      </trkpt>
      <trkpt lat="46.58538" lon="6.51345">
        <ele>490.5</ele>
        <time>2022-09-28T13:14:45Z</time>
      </trkpt>
      <trkpt lat="46.58541" lon="6.51341">
        <ele>490.6</ele>
        <time>2022-09-28T13:14:46Z</time>
      </trkpt>
      <trkpt lat="46.58544" lon="6.51338">
        <ele>490.8</ele>
        <time>2022-09-28T13:14:47Z</time>
      </trkpt>
      <trkpt lat="46.58547" lon="6.51335">
        <ele>491</ele>
        <time>2022-09-28T13:14:48Z</time>
      </trkpt>
      <trkpt lat="46.5855" lon="6.51332">
        <ele>491.2</ele>
        <time>2022-09-28T13:14:49Z</time>
      </trkpt>
      <trkpt lat="46.58553" lon="6.51329">
        <ele>491.4</ele>
        <time>2022-09-28T13:14:50Z</time>
      </trkpt>
      <trkpt lat="46.58555" lon="6.51327">
        <ele>491.6</ele>
        <time>2022-09-28T13:14:51Z</time>
      </trkpt>
      <trkpt lat="46.58558" lon="6.51323">
        <ele>491.8</ele>
        <time>2022-09-28T13:14:52Z</time>
      </trkpt>
      <trkpt lat="46.58559" lon="6.51322">
        <ele>491.9</ele>
        <time>2022-09-28T13:14:53Z</time>
      </trkpt>
      <trkpt lat="46.58561" lon="6.51318">
        <ele>492.2</ele>
        <time>2022-09-28T13:14:54Z</time>
      </trkpt>
      <trkpt lat="46.58562" lon="6.51317">
        <ele>492.3</ele>
        <time>2022-09-28T13:14:55Z</time>
      </trkpt>
      <trkpt lat="46.58563" lon="6.51314">
        <ele>492.5</ele>
        <time>2022-09-28T13:14:56Z</time>
      </trkpt>
      <trkpt lat="46.58564" lon="6.51313">
        <ele>492.6</ele>
        <time>2022-09-28T13:14:57Z</time>
      </trkpt>
      <trkpt lat="46.58565" lon="6.51311">
        <ele>492.7</ele>
        <time>2022-09-28T13:14:58Z</time>
      </trkpt>
      <trkpt lat="46.58566" lon="6.51309">
        <ele>492.9</ele>
        <time>2022-09-28T13:14:59Z</time>
      </trkpt>
      <trkpt lat="46.58567" lon="6.51307">
        <ele>493.1</ele>
        <time>2022-09-28T13:15:00Z</time>
      </trkpt>
      <trkpt lat="46.58568" lon="6.51305">
        <ele>493.2</ele>
        <time>2022-09-28T13:15:01Z</time>
      </trkpt>
      <trkpt lat="46.58569" lon="6.51301">
        <ele>493.5</ele>
        <time>2022-09-28T13:15:02Z</time>
      </trkpt>
      <trkpt lat="46.5857" lon="6.513">
        <ele>493.6</ele>
        <time>2022-09-28T13:15:03Z</time>
      </trkpt>
      <trkpt lat="46.58571" lon="6.51296">
        <ele>493.9</ele>
        <time>2022-09-28T13:15:04Z</time>
      </trkpt>
      <trkpt lat="46.58572" lon="6.51295">
        <ele>494.1</ele>
        <time>2022-09-28T13:15:05Z</time>
      </trkpt>
      <trkpt lat="46.58573" lon="6.51291">
        <ele>494.4</ele>
        <time>2022-09-28T13:15:06Z</time>
      </trkpt>
      <trkpt lat="46.58573" lon="6.51289">
        <ele>494.5</ele>
        <time>2022-09-28T13:15:07Z</time>
      </trkpt>
      <trkpt lat="46.58573" lon="6.51287">
        <ele>494.7</ele>
        <time>2022-09-28T13:15:08Z</time>
      </trkpt>
      <trkpt lat="46.58574" lon="6.51284">
        <ele>494.9</ele>
        <time>2022-09-28T13:15:09Z</time>
      </trkpt>
      <trkpt lat="46.58575" lon="6.51282">
        <ele>495.1</ele>
        <time>2022-09-28T13:15:10Z</time>
      </trkpt>
      <trkpt lat="46.58575" lon="6.51281">
        <ele>495.3</ele>
        <time>2022-09-28T13:15:11Z</time>
      </trkpt>
      <trkpt lat="46.58576" lon="6.51277">
        <ele>495.6</ele>
        <time>2022-09-28T13:15:12Z</time>
      </trkpt>
      <trkpt lat="46.58576" lon="6.51275">
        <ele>495.7</ele>
        <time>2022-09-28T13:15:13Z</time>
      </trkpt>
      <trkpt lat="46.58577" lon="6.51273">
        <ele>495.9</ele>
        <time>2022-09-28T13:15:14Z</time>
      </trkpt>
      <trkpt lat="46.58577" lon="6.5127">
        <ele>496.2</ele>
        <time>2022-09-28T13:15:15Z</time>
      </trkpt>
      <trkpt lat="46.58577" lon="6.51266">
        <ele>496.6</ele>
        <time>2022-09-28T13:15:16Z</time>
      </trkpt>
      <trkpt lat="46.58577" lon="6.51265">
        <ele>496.7</ele>
        <time>2022-09-28T13:15:17Z</time>
      </trkpt>
      <trkpt lat="46.58577" lon="6.51261">
        <ele>497</ele>
        <time>2022-09-28T13:15:18Z</time>
      </trkpt>
      <trkpt lat="46.58577" lon="6.51259">
        <ele>497.2</ele>
        <time>2022-09-28T13:15:19Z</time>
      </trkpt>
      <trkpt lat="46.58577" lon="6.51257">
        <ele>497.4</ele>
        <time>2022-09-28T13:15:20Z</time>
      </trkpt>
      <trkpt lat="46.58578" lon="6.51254">
        <ele>497.7</ele>
        <time>2022-09-28T13:15:21Z</time>
      </trkpt>
      <trkpt lat="46.58578" lon="6.51252">
        <ele>497.9</ele>
        <time>2022-09-28T13:15:22Z</time>
      </trkpt>
      <trkpt lat="46.58579" lon="6.5125">
        <ele>498.1</ele>
        <time>2022-09-28T13:15:23Z</time>
      </trkpt>
      <trkpt lat="46.5858" lon="6.51247">
        <ele>498.4</ele>
        <time>2022-09-28T13:15:24Z</time>
      </trkpt>
      <trkpt lat="46.5858" lon="6.51244">
        <ele>498.6</ele>
        <time>2022-09-28T13:15:25Z</time>
      </trkpt>
      <trkpt lat="46.5858" lon="6.51244">
        <ele>498.7</ele>
        <time>2022-09-28T13:15:26Z</time>
      </trkpt>
      <trkpt lat="46.5858" lon="6.51242">
        <ele>498.9</ele>
        <time>2022-09-28T13:15:27Z</time>
      </trkpt>
      <trkpt lat="46.5858" lon="6.5124">
        <ele>499.1</ele>
        <time>2022-09-28T13:15:28Z</time>
      </trkpt>
      <trkpt lat="46.58581" lon="6.51235">
        <ele>499.6</ele>
        <time>2022-09-28T13:15:29Z</time>
      </trkpt>
      <trkpt lat="46.58582" lon="6.51235">
        <ele>499.6</ele>
        <time>2022-09-28T13:15:30Z</time>
      </trkpt>
      <trkpt lat="46.58582" lon="6.51234">
        <ele>499.7</ele>
        <time>2022-09-28T13:15:31Z</time>
      </trkpt>
      <trkpt lat="46.58582" lon="6.51232">
        <ele>499.9</ele>
        <time>2022-09-28T13:15:32Z</time>
      </trkpt>
      <trkpt lat="46.58583" lon="6.5123">
        <ele>500.2</ele>
        <time>2022-09-28T13:15:33Z</time>
      </trkpt>
      <trkpt lat="46.58583" lon="6.51228">
        <ele>500.3</ele>
        <time>2022-09-28T13:15:34Z</time>
      </trkpt>
      <trkpt lat="46.58584" lon="6.51226">
        <ele>500.6</ele>
        <time>2022-09-28T13:15:35Z</time>
      </trkpt>
      <trkpt lat="46.58584" lon="6.51224">
        <ele>500.7</ele>
        <time>2022-09-28T13:15:36Z</time>
      </trkpt>
      <trkpt lat="46.58585" lon="6.51222">
        <ele>501</ele>
        <time>2022-09-28T13:15:37Z</time>
      </trkpt>
      <trkpt lat="46.58586" lon="6.51219">
        <ele>501.3</ele>
        <time>2022-09-28T13:15:38Z</time>
      </trkpt>
      <trkpt lat="46.58586" lon="6.51218">
        <ele>501.4</ele>
        <time>2022-09-28T13:15:39Z</time>
      </trkpt>
      <trkpt lat="46.58587" lon="6.51217">
        <ele>501.5</ele>
        <time>2022-09-28T13:15:40Z</time>
      </trkpt>
      <trkpt lat="46.58588" lon="6.51216">
        <ele>501.7</ele>
        <time>2022-09-28T13:15:41Z</time>
      </trkpt>
      <trkpt lat="46.58588" lon="6.51215">
        <ele>501.8</ele>
        <time>2022-09-28T13:15:42Z</time>
      </trkpt>
      <trkpt lat="46.58589" lon="6.51213">
        <ele>502</ele>
        <time>2022-09-28T13:15:43Z</time>
      </trkpt>
      <trkpt lat="46.58589" lon="6.51212">
        <ele>502.1</ele>
        <time>2022-09-28T13:15:44Z</time>
      </trkpt>
      <trkpt lat="46.58589" lon="6.51211">
        <ele>502.3</ele>
        <time>2022-09-28T13:15:46Z</time>
      </trkpt>
      <trkpt lat="46.5859" lon="6.5121">
        <ele>502.4</ele>
        <time>2022-09-28T13:15:47Z</time>
      </trkpt>
      <trkpt lat="46.58591" lon="6.51211">
        <ele>502.5</ele>
        <time>2022-09-28T13:15:48Z</time>
      </trkpt>
      <trkpt lat="46.58593" lon="6.51211">
        <ele>502.8</ele>
        <time>2022-09-28T13:15:49Z</time>
      </trkpt>
      <trkpt lat="46.58595" lon="6.51212">
        <ele>503.8</ele>
        <time>2022-09-28T13:15:50Z</time>
      </trkpt>
      <trkpt lat="46.58596" lon="6.51213">
        <ele>503.7</ele>
        <time>2022-09-28T13:15:51Z</time>
      </trkpt>
      <trkpt lat="46.58599" lon="6.51216">
        <ele>503.6</ele>
        <time>2022-09-28T13:15:52Z</time>
      </trkpt>
      <trkpt lat="46.586" lon="6.51217">
        <ele>503.6</ele>
        <time>2022-09-28T13:15:53Z</time>
      </trkpt>
      <trkpt lat="46.58601" lon="6.51217">
        <ele>503.5</ele>
        <time>2022-09-28T13:15:54Z</time>
      </trkpt>
      <trkpt lat="46.58602" lon="6.51221">
        <ele>503.4</ele>
        <time>2022-09-28T13:15:55Z</time>
      </trkpt>
      <trkpt lat="46.58604" lon="6.51224">
        <ele>503.3</ele>
        <time>2022-09-28T13:15:56Z</time>
      </trkpt>
      <trkpt lat="46.58606" lon="6.51225">
        <ele>503.2</ele>
        <time>2022-09-28T13:15:57Z</time>
      </trkpt>
      <trkpt lat="46.5861" lon="6.51229">
        <ele>502.9</ele>
        <time>2022-09-28T13:15:58Z</time>
      </trkpt>
      <trkpt lat="46.58614" lon="6.51231">
        <ele>502.7</ele>
        <time>2022-09-28T13:15:59Z</time>
      </trkpt>
      <trkpt lat="46.58617" lon="6.51233">
        <ele>502.5</ele>
        <time>2022-09-28T13:16:00Z</time>
      </trkpt>
      <trkpt lat="46.58621" lon="6.51236">
        <ele>502.2</ele>
        <time>2022-09-28T13:16:01Z</time>
      </trkpt>
      <trkpt lat="46.58625" lon="6.51238">
        <ele>501.8</ele>
        <time>2022-09-28T13:16:02Z</time>
      </trkpt>
      <trkpt lat="46.58628" lon="6.51241">
        <ele>501.5</ele>
        <time>2022-09-28T13:16:03Z</time>
      </trkpt>
      <trkpt lat="46.58632" lon="6.51243">
        <ele>501.2</ele>
        <time>2022-09-28T13:16:04Z</time>
      </trkpt>
      <trkpt lat="46.58635" lon="6.51247">
        <ele>500.8</ele>
        <time>2022-09-28T13:16:05Z</time>
      </trkpt>
      <trkpt lat="46.58638" lon="6.51251">
        <ele>500.4</ele>
        <time>2022-09-28T13:16:06Z</time>
      </trkpt>
      <trkpt lat="46.58641" lon="6.51255">
        <ele>500.1</ele>
        <time>2022-09-28T13:16:07Z</time>
      </trkpt>
      <trkpt lat="46.58644" lon="6.51259">
        <ele>499.7</ele>
        <time>2022-09-28T13:16:08Z</time>
      </trkpt>
      <trkpt lat="46.58647" lon="6.51263">
        <ele>499.4</ele>
        <time>2022-09-28T13:16:09Z</time>
      </trkpt>
      <trkpt lat="46.58649" lon="6.51267">
        <ele>499.1</ele>
        <time>2022-09-28T13:16:10Z</time>
      </trkpt>
      <trkpt lat="46.5865" lon="6.51269">
        <ele>499</ele>
        <time>2022-09-28T13:16:11Z</time>
      </trkpt>
      <trkpt lat="46.58651" lon="6.5127">
        <ele>498.9</ele>
        <time>2022-09-28T13:16:12Z</time>
      </trkpt>
      <trkpt lat="46.58652" lon="6.5127">
        <ele>498.8</ele>
        <time>2022-09-28T13:16:13Z</time>
      </trkpt>
      <trkpt lat="46.58652" lon="6.5127">
        <ele>498.8</ele>
        <time>2022-09-28T13:16:14Z</time>
      </trkpt>
      <trkpt lat="46.58652" lon="6.5127">
        <ele>498.8</ele>
        <time>2022-09-28T13:16:15Z</time>
      </trkpt>
      <trkpt lat="46.58653" lon="6.51271">
        <ele>498.7</ele>
        <time>2022-09-28T13:16:16Z</time>
      </trkpt>
      <trkpt lat="46.58653" lon="6.51272">
        <ele>498.7</ele>
        <time>2022-09-28T13:16:17Z</time>
      </trkpt>
      <trkpt lat="46.58654" lon="6.51272">
        <ele>498.6</ele>
        <time>2022-09-28T13:16:18Z</time>
      </trkpt>
      <trkpt lat="46.58654" lon="6.51272">
        <ele>498.6</ele>
        <time>2022-09-28T13:16:19Z</time>
      </trkpt>
      <trkpt lat="46.58654" lon="6.51272">
        <ele>498.6</ele>
        <time>2022-09-28T13:16:20Z</time>
      </trkpt>
      <trkpt lat="46.58655" lon="6.51272">
        <ele>498.6</ele>
        <time>2022-09-28T13:16:21Z</time>
      </trkpt>
      <trkpt lat="46.58655" lon="6.51273">
        <ele>498.5</ele>
        <time>2022-09-28T13:16:22Z</time>
      </trkpt>
      <trkpt lat="46.58656" lon="6.51273">
        <ele>498.5</ele>
        <time>2022-09-28T13:16:23Z</time>
      </trkpt>
      <trkpt lat="46.58656" lon="6.51273">
        <ele>498.5</ele>
        <time>2022-09-28T13:16:24Z</time>
      </trkpt>
      <trkpt lat="46.58656" lon="6.51273">
        <ele>498.4</ele>
        <time>2022-09-28T13:16:25Z</time>
      </trkpt>
      <trkpt lat="46.58657" lon="6.51273">
        <ele>498.4</ele>
        <time>2022-09-28T13:16:26Z</time>
      </trkpt>
      <trkpt lat="46.5866" lon="6.51279">
        <ele>498.1</ele>
        <time>2022-09-28T13:16:28Z</time>
      </trkpt>
      <trkpt lat="46.58662" lon="6.51283">
        <ele>497.9</ele>
        <time>2022-09-28T13:16:29Z</time>
      </trkpt>
      <trkpt lat="46.58665" lon="6.51287">
        <ele>497.6</ele>
        <time>2022-09-28T13:16:30Z</time>
      </trkpt>
      <trkpt lat="46.58669" lon="6.51292">
        <ele>497.3</ele>
        <time>2022-09-28T13:16:31Z</time>
      </trkpt>
      <trkpt lat="46.58673" lon="6.51298">
        <ele>497</ele>
        <time>2022-09-28T13:16:32Z</time>
      </trkpt>
      <trkpt lat="46.58677" lon="6.51303">
        <ele>496.7</ele>
        <time>2022-09-28T13:16:33Z</time>
      </trkpt>
      <trkpt lat="46.58681" lon="6.51309">
        <ele>496.4</ele>
        <time>2022-09-28T13:16:34Z</time>
      </trkpt>
      <trkpt lat="46.58685" lon="6.51315">
        <ele>496.2</ele>
        <time>2022-09-28T13:16:35Z</time>
      </trkpt>
      <trkpt lat="46.58689" lon="6.51321">
        <ele>495.9</ele>
        <time>2022-09-28T13:16:36Z</time>
      </trkpt>
      <trkpt lat="46.58694" lon="6.51327">
        <ele>495.7</ele>
        <time>2022-09-28T13:16:37Z</time>
      </trkpt>
      <trkpt lat="46.58699" lon="6.51334">
        <ele>495.4</ele>
        <time>2022-09-28T13:16:38Z</time>
      </trkpt>
      <trkpt lat="46.58703" lon="6.5134">
        <ele>495.2</ele>
        <time>2022-09-28T13:16:39Z</time>
      </trkpt>
      <trkpt lat="46.58707" lon="6.51347">
        <ele>495</ele>
        <time>2022-09-28T13:16:40Z</time>
      </trkpt>
      <trkpt lat="46.58712" lon="6.51353">
        <ele>494.8</ele>
        <time>2022-09-28T13:16:41Z</time>
      </trkpt>
      <trkpt lat="46.58716" lon="6.5136">
        <ele>494.6</ele>
        <time>2022-09-28T13:16:42Z</time>
      </trkpt>
      <trkpt lat="46.58721" lon="6.51367">
        <ele>494.4</ele>
        <time>2022-09-28T13:16:43Z</time>
      </trkpt>
      <trkpt lat="46.58726" lon="6.51373">
        <ele>494.2</ele>
        <time>2022-09-28T13:16:44Z</time>
      </trkpt>
      <trkpt lat="46.58731" lon="6.5138">
        <ele>494</ele>
        <time>2022-09-28T13:16:45Z</time>
      </trkpt>
      <trkpt lat="46.58736" lon="6.51387">
        <ele>493.8</ele>
        <time>2022-09-28T13:16:46Z</time>
      </trkpt>
      <trkpt lat="46.58741" lon="6.51394">
        <ele>493.7</ele>
        <time>2022-09-28T13:16:47Z</time>
      </trkpt>
      <trkpt lat="46.58745" lon="6.51401">
        <ele>493.5</ele>
        <time>2022-09-28T13:16:48Z</time>
      </trkpt>
      <trkpt lat="46.5875" lon="6.51408">
        <ele>493.4</ele>
        <time>2022-09-28T13:16:49Z</time>
      </trkpt>
      <trkpt lat="46.58756" lon="6.51416">
        <ele>493.2</ele>
        <time>2022-09-28T13:16:50Z</time>
      </trkpt>
      <trkpt lat="46.58761" lon="6.51423">
        <ele>493.1</ele>
        <time>2022-09-28T13:16:51Z</time>
      </trkpt>
      <trkpt lat="46.58766" lon="6.5143">
        <ele>493</ele>
        <time>2022-09-28T13:16:52Z</time>
      </trkpt>
      <trkpt lat="46.58771" lon="6.51438">
        <ele>492.9</ele>
        <time>2022-09-28T13:16:53Z</time>
      </trkpt>
      <trkpt lat="46.58776" lon="6.51445">
        <ele>492.7</ele>
        <time>2022-09-28T13:16:54Z</time>
      </trkpt>
      <trkpt lat="46.58781" lon="6.51453">
        <ele>492.6</ele>
        <time>2022-09-28T13:16:55Z</time>
      </trkpt>
      <trkpt lat="46.58786" lon="6.5146">
        <ele>492.5</ele>
        <time>2022-09-28T13:16:56Z</time>
      </trkpt>
      <trkpt lat="46.58791" lon="6.51468">
        <ele>492.4</ele>
        <time>2022-09-28T13:16:57Z</time>
      </trkpt>
      <trkpt lat="46.58797" lon="6.51475">
        <ele>492.2</ele>
        <time>2022-09-28T13:16:58Z</time>
      </trkpt>
      <trkpt lat="46.58802" lon="6.51483">
        <ele>492.1</ele>
        <time>2022-09-28T13:16:59Z</time>
      </trkpt>
      <trkpt lat="46.58807" lon="6.51491">
        <ele>491.9</ele>
        <time>2022-09-28T13:17:00Z</time>
      </trkpt>
      <trkpt lat="46.58812" lon="6.51499">
        <ele>491.8</ele>
        <time>2022-09-28T13:17:01Z</time>
      </trkpt>
      <trkpt lat="46.58816" lon="6.51507">
        <ele>491.6</ele>
        <time>2022-09-28T13:17:02Z</time>
      </trkpt>
      <trkpt lat="46.58821" lon="6.51515">
        <ele>491.4</ele>
        <time>2022-09-28T13:17:03Z</time>
      </trkpt>
      <trkpt lat="46.58825" lon="6.51524">
        <ele>491.3</ele>
        <time>2022-09-28T13:17:04Z</time>
      </trkpt>
      <trkpt lat="46.58829" lon="6.51532">
        <ele>491.2</ele>
        <time>2022-09-28T13:17:05Z</time>
      </trkpt>
      <trkpt lat="46.58834" lon="6.5154">
        <ele>491</ele>
        <time>2022-09-28T13:17:06Z</time>
      </trkpt>
      <trkpt lat="46.58838" lon="6.51549">
        <ele>490.9</ele>
        <time>2022-09-28T13:17:07Z</time>
      </trkpt>
      <trkpt lat="46.58843" lon="6.51557">
        <ele>490.8</ele>
        <time>2022-09-28T13:17:08Z</time>
      </trkpt>
      <trkpt lat="46.58847" lon="6.51566">
        <ele>490.7</ele>
        <time>2022-09-28T13:17:09Z</time>
      </trkpt>
      <trkpt lat="46.58851" lon="6.51574">
        <ele>490.6</ele>
        <time>2022-09-28T13:17:10Z</time>
      </trkpt>
      <trkpt lat="46.58855" lon="6.51582">
        <ele>490.5</ele>
        <time>2022-09-28T13:17:11Z</time>
      </trkpt>
      <trkpt lat="46.58859" lon="6.51591">
        <ele>490.5</ele>
        <time>2022-09-28T13:17:12Z</time>
      </trkpt>
      <trkpt lat="46.58863" lon="6.51598">
        <ele>490.4</ele>
        <time>2022-09-28T13:17:13Z</time>
      </trkpt>
      <trkpt lat="46.58867" lon="6.51607">
        <ele>490.3</ele>
        <time>2022-09-28T13:17:14Z</time>
      </trkpt>
      <trkpt lat="46.58871" lon="6.51615">
        <ele>490.3</ele>
        <time>2022-09-28T13:17:15Z</time>
      </trkpt>
      <trkpt lat="46.58875" lon="6.51623">
        <ele>490.2</ele>
        <time>2022-09-28T13:17:16Z</time>
      </trkpt>
      <trkpt lat="46.58879" lon="6.51631">
        <ele>490.2</ele>
        <time>2022-09-28T13:17:17Z</time>
      </trkpt>
      <trkpt lat="46.58883" lon="6.51638">
        <ele>490.2</ele>
        <time>2022-09-28T13:17:18Z</time>
      </trkpt>
      <trkpt lat="46.58887" lon="6.51646">
        <ele>490.1</ele>
        <time>2022-09-28T13:17:19Z</time>
      </trkpt>
      <trkpt lat="46.5889" lon="6.51654">
        <ele>490.1</ele>
        <time>2022-09-28T13:17:20Z</time>
      </trkpt>
      <trkpt lat="46.58894" lon="6.51662">
        <ele>490.1</ele>
        <time>2022-09-28T13:17:21Z</time>
      </trkpt>
      <trkpt lat="46.58898" lon="6.5167">
        <ele>490.1</ele>
        <time>2022-09-28T13:17:22Z</time>
      </trkpt>
      <trkpt lat="46.58902" lon="6.51677">
        <ele>490.2</ele>
        <time>2022-09-28T13:17:23Z</time>
      </trkpt>
      <trkpt lat="46.58906" lon="6.51684">
        <ele>490.2</ele>
        <time>2022-09-28T13:17:24Z</time>
      </trkpt>
      <trkpt lat="46.5891" lon="6.51692">
        <ele>490.2</ele>
        <time>2022-09-28T13:17:25Z</time>
      </trkpt>
      <trkpt lat="46.58913" lon="6.51699">
        <ele>490.2</ele>
        <time>2022-09-28T13:17:26Z</time>
      </trkpt>
      <trkpt lat="46.58917" lon="6.51707">
        <ele>490.2</ele>
        <time>2022-09-28T13:17:27Z</time>
      </trkpt>
      <trkpt lat="46.5892" lon="6.51715">
        <ele>490.2</ele>
        <time>2022-09-28T13:17:28Z</time>
      </trkpt>
      <trkpt lat="46.58924" lon="6.51722">
        <ele>490.1</ele>
        <time>2022-09-28T13:17:29Z</time>
      </trkpt>
      <trkpt lat="46.58928" lon="6.5173">
        <ele>490.1</ele>
        <time>2022-09-28T13:17:30Z</time>
      </trkpt>
      <trkpt lat="46.58932" lon="6.51737">
        <ele>490</ele>
        <time>2022-09-28T13:17:31Z</time>
      </trkpt>
      <trkpt lat="46.58935" lon="6.51744">
        <ele>490</ele>
        <time>2022-09-28T13:17:32Z</time>
      </trkpt>
      <trkpt lat="46.58939" lon="6.51752">
        <ele>489.9</ele>
        <time>2022-09-28T13:17:33Z</time>
      </trkpt>
      <trkpt lat="46.58942" lon="6.51759">
        <ele>489.8</ele>
        <time>2022-09-28T13:17:34Z</time>
      </trkpt>
      <trkpt lat="46.58946" lon="6.51766">
        <ele>489.8</ele>
        <time>2022-09-28T13:17:35Z</time>
      </trkpt>
      <trkpt lat="46.5895" lon="6.51773">
        <ele>489.7</ele>
        <time>2022-09-28T13:17:36Z</time>
      </trkpt>
      <trkpt lat="46.58953" lon="6.5178">
        <ele>489.6</ele>
        <time>2022-09-28T13:17:37Z</time>
      </trkpt>
      <trkpt lat="46.58957" lon="6.51788">
        <ele>489.4</ele>
        <time>2022-09-28T13:17:38Z</time>
      </trkpt>
      <trkpt lat="46.58961" lon="6.51795">
        <ele>489.3</ele>
        <time>2022-09-28T13:17:39Z</time>
      </trkpt>
      <trkpt lat="46.58965" lon="6.51803">
        <ele>489.2</ele>
        <time>2022-09-28T13:17:40Z</time>
      </trkpt>
      <trkpt lat="46.58968" lon="6.5181">
        <ele>489.1</ele>
        <time>2022-09-28T13:17:41Z</time>
      </trkpt>
      <trkpt lat="46.58972" lon="6.51818">
        <ele>488.9</ele>
        <time>2022-09-28T13:17:42Z</time>
      </trkpt>
      <trkpt lat="46.58976" lon="6.51826">
        <ele>488.8</ele>
        <time>2022-09-28T13:17:43Z</time>
      </trkpt>
      <trkpt lat="46.5898" lon="6.51834">
        <ele>488.7</ele>
        <time>2022-09-28T13:17:44Z</time>
      </trkpt>
      <trkpt lat="46.58984" lon="6.51841">
        <ele>488.6</ele>
        <time>2022-09-28T13:17:45Z</time>
      </trkpt>
      <trkpt lat="46.58987" lon="6.51849">
        <ele>488.5</ele>
        <time>2022-09-28T13:17:46Z</time>
      </trkpt>
      <trkpt lat="46.58991" lon="6.51857">
        <ele>488.3</ele>
        <time>2022-09-28T13:17:47Z</time>
      </trkpt>
      <trkpt lat="46.58995" lon="6.51865">
        <ele>488.2</ele>
        <time>2022-09-28T13:17:48Z</time>
      </trkpt>
      <trkpt lat="46.58999" lon="6.51873">
        <ele>488.1</ele>
        <time>2022-09-28T13:17:49Z</time>
      </trkpt>
      <trkpt lat="46.59002" lon="6.51881">
        <ele>488</ele>
        <time>2022-09-28T13:17:50Z</time>
      </trkpt>
      <trkpt lat="46.59006" lon="6.51889">
        <ele>487.9</ele>
        <time>2022-09-28T13:17:52Z</time>
      </trkpt>
      <trkpt lat="46.59009" lon="6.51897">
        <ele>487.8</ele>
        <time>2022-09-28T13:17:53Z</time>
      </trkpt>
      <trkpt lat="46.59012" lon="6.51905">
        <ele>487.6</ele>
        <time>2022-09-28T13:17:54Z</time>
      </trkpt>
      <trkpt lat="46.59016" lon="6.51914">
        <ele>487.5</ele>
        <time>2022-09-28T13:17:55Z</time>
      </trkpt>
      <trkpt lat="46.59019" lon="6.51922">
        <ele>487.5</ele>
        <time>2022-09-28T13:17:56Z</time>
      </trkpt>
      <trkpt lat="46.59021" lon="6.51931">
        <ele>487.4</ele>
        <time>2022-09-28T13:17:57Z</time>
      </trkpt>
      <trkpt lat="46.59024" lon="6.51939">
        <ele>487.3</ele>
        <time>2022-09-28T13:17:58Z</time>
      </trkpt>
      <trkpt lat="46.59027" lon="6.51948">
        <ele>487.3</ele>
        <time>2022-09-28T13:17:59Z</time>
      </trkpt>
      <trkpt lat="46.5903" lon="6.51956">
        <ele>487.2</ele>
        <time>2022-09-28T13:18:00Z</time>
      </trkpt>
      <trkpt lat="46.59032" lon="6.51965">
        <ele>487.2</ele>
        <time>2022-09-28T13:18:01Z</time>
      </trkpt>
      <trkpt lat="46.59034" lon="6.51974">
        <ele>487.2</ele>
        <time>2022-09-28T13:18:02Z</time>
      </trkpt>
      <trkpt lat="46.59036" lon="6.51983">
        <ele>487.2</ele>
        <time>2022-09-28T13:18:03Z</time>
      </trkpt>
      <trkpt lat="46.59038" lon="6.51992">
        <ele>487.2</ele>
        <time>2022-09-28T13:18:04Z</time>
      </trkpt>
      <trkpt lat="46.59041" lon="6.52001">
        <ele>487.2</ele>
        <time>2022-09-28T13:18:05Z</time>
      </trkpt>
      <trkpt lat="46.59043" lon="6.5201">
        <ele>487.3</ele>
        <time>2022-09-28T13:18:06Z</time>
      </trkpt>
      <trkpt lat="46.59045" lon="6.52018">
        <ele>487.4</ele>
        <time>2022-09-28T13:18:07Z</time>
      </trkpt>
      <trkpt lat="46.59047" lon="6.52027">
        <ele>487.5</ele>
        <time>2022-09-28T13:18:08Z</time>
      </trkpt>
      <trkpt lat="46.59049" lon="6.52035">
        <ele>487.6</ele>
        <time>2022-09-28T13:18:09Z</time>
      </trkpt>
      <trkpt lat="46.59051" lon="6.52044">
        <ele>487.6</ele>
        <time>2022-09-28T13:18:10Z</time>
      </trkpt>
      <trkpt lat="46.59053" lon="6.52052">
        <ele>487.7</ele>
        <time>2022-09-28T13:18:11Z</time>
      </trkpt>
      <trkpt lat="46.59055" lon="6.52061">
        <ele>487.8</ele>
        <time>2022-09-28T13:18:12Z</time>
      </trkpt>
      <trkpt lat="46.59057" lon="6.52069">
        <ele>487.9</ele>
        <time>2022-09-28T13:18:13Z</time>
      </trkpt>
      <trkpt lat="46.59059" lon="6.52077">
        <ele>487.9</ele>
        <time>2022-09-28T13:18:14Z</time>
      </trkpt>
      <trkpt lat="46.59061" lon="6.52085">
        <ele>488</ele>
        <time>2022-09-28T13:18:15Z</time>
      </trkpt>
      <trkpt lat="46.59063" lon="6.52093">
        <ele>488.1</ele>
        <time>2022-09-28T13:18:16Z</time>
      </trkpt>
      <trkpt lat="46.59064" lon="6.52101">
        <ele>488.1</ele>
        <time>2022-09-28T13:18:17Z</time>
      </trkpt>
      <trkpt lat="46.59066" lon="6.52109">
        <ele>488.1</ele>
        <time>2022-09-28T13:18:18Z</time>
      </trkpt>
      <trkpt lat="46.59068" lon="6.52117">
        <ele>488.2</ele>
        <time>2022-09-28T13:18:19Z</time>
      </trkpt>
      <trkpt lat="46.5907" lon="6.52124">
        <ele>488.2</ele>
        <time>2022-09-28T13:18:20Z</time>
      </trkpt>
      <trkpt lat="46.59072" lon="6.52132">
        <ele>488.2</ele>
        <time>2022-09-28T13:18:21Z</time>
      </trkpt>
      <trkpt lat="46.59074" lon="6.52141">
        <ele>488.2</ele>
        <time>2022-09-28T13:18:22Z</time>
      </trkpt>
      <trkpt lat="46.59076" lon="6.52149">
        <ele>488.2</ele>
        <time>2022-09-28T13:18:23Z</time>
      </trkpt>
      <trkpt lat="46.59078" lon="6.52157">
        <ele>488.2</ele>
        <time>2022-09-28T13:18:24Z</time>
      </trkpt>
      <trkpt lat="46.5908" lon="6.52165">
        <ele>488.2</ele>
        <time>2022-09-28T13:18:25Z</time>
      </trkpt>
      <trkpt lat="46.59082" lon="6.52174">
        <ele>488.2</ele>
        <time>2022-09-28T13:18:26Z</time>
      </trkpt>
      <trkpt lat="46.59084" lon="6.52183">
        <ele>488.2</ele>
        <time>2022-09-28T13:18:27Z</time>
      </trkpt>
      <trkpt lat="46.59086" lon="6.52191">
        <ele>488.2</ele>
        <time>2022-09-28T13:18:28Z</time>
      </trkpt>
      <trkpt lat="46.59088" lon="6.522">
        <ele>488.1</ele>
        <time>2022-09-28T13:18:29Z</time>
      </trkpt>
      <trkpt lat="46.5909" lon="6.52208">
        <ele>488</ele>
        <time>2022-09-28T13:18:30Z</time>
      </trkpt>
      <trkpt lat="46.59092" lon="6.52216">
        <ele>488</ele>
        <time>2022-09-28T13:18:31Z</time>
      </trkpt>
      <trkpt lat="46.59093" lon="6.52224">
        <ele>487.9</ele>
        <time>2022-09-28T13:18:32Z</time>
      </trkpt>
      <trkpt lat="46.59095" lon="6.52232">
        <ele>487.7</ele>
        <time>2022-09-28T13:18:33Z</time>
      </trkpt>
      <trkpt lat="46.59097" lon="6.5224">
        <ele>487.6</ele>
        <time>2022-09-28T13:18:34Z</time>
      </trkpt>
      <trkpt lat="46.59099" lon="6.52248">
        <ele>487.4</ele>
        <time>2022-09-28T13:18:35Z</time>
      </trkpt>
      <trkpt lat="46.59101" lon="6.52257">
        <ele>487.2</ele>
        <time>2022-09-28T13:18:36Z</time>
      </trkpt>
      <trkpt lat="46.59103" lon="6.52265">
        <ele>487</ele>
        <time>2022-09-28T13:18:37Z</time>
      </trkpt>
      <trkpt lat="46.59105" lon="6.52274">
        <ele>486.7</ele>
        <time>2022-09-28T13:18:38Z</time>
      </trkpt>
      <trkpt lat="46.59108" lon="6.52283">
        <ele>486.4</ele>
        <time>2022-09-28T13:18:39Z</time>
      </trkpt>
      <trkpt lat="46.59109" lon="6.52291">
        <ele>486.1</ele>
        <time>2022-09-28T13:18:40Z</time>
      </trkpt>
      <trkpt lat="46.59112" lon="6.523">
        <ele>485.8</ele>
        <time>2022-09-28T13:18:41Z</time>
      </trkpt>
      <trkpt lat="46.59114" lon="6.52308">
        <ele>485.5</ele>
        <time>2022-09-28T13:18:42Z</time>
      </trkpt>
      <trkpt lat="46.59115" lon="6.52316">
        <ele>485.2</ele>
        <time>2022-09-28T13:18:43Z</time>
      </trkpt>
      <trkpt lat="46.59117" lon="6.52324">
        <ele>484.9</ele>
        <time>2022-09-28T13:18:44Z</time>
      </trkpt>
      <trkpt lat="46.5912" lon="6.52333">
        <ele>484.4</ele>
        <time>2022-09-28T13:18:45Z</time>
      </trkpt>
      <trkpt lat="46.59122" lon="6.52342">
        <ele>484</ele>
        <time>2022-09-28T13:18:46Z</time>
      </trkpt>
      <trkpt lat="46.59123" lon="6.5235">
        <ele>483.6</ele>
        <time>2022-09-28T13:18:47Z</time>
      </trkpt>
      <trkpt lat="46.59125" lon="6.52359">
        <ele>483.1</ele>
        <time>2022-09-28T13:18:48Z</time>
      </trkpt>
      <trkpt lat="46.59128" lon="6.52367">
        <ele>482.7</ele>
        <time>2022-09-28T13:18:49Z</time>
      </trkpt>
      <trkpt lat="46.59129" lon="6.52374">
        <ele>482.3</ele>
        <time>2022-09-28T13:18:50Z</time>
      </trkpt>
      <trkpt lat="46.59132" lon="6.52382">
        <ele>481.8</ele>
        <time>2022-09-28T13:18:51Z</time>
      </trkpt>
      <trkpt lat="46.59134" lon="6.52391">
        <ele>481.3</ele>
        <time>2022-09-28T13:18:52Z</time>
      </trkpt>
      <trkpt lat="46.59137" lon="6.52398">
        <ele>480.9</ele>
        <time>2022-09-28T13:18:53Z</time>
      </trkpt>
      <trkpt lat="46.59139" lon="6.52406">
        <ele>480.4</ele>
        <time>2022-09-28T13:18:54Z</time>
      </trkpt>
      <trkpt lat="46.59142" lon="6.52413">
        <ele>480</ele>
        <time>2022-09-28T13:18:55Z</time>
      </trkpt>
      <trkpt lat="46.59146" lon="6.52419">
        <ele>479.5</ele>
        <time>2022-09-28T13:18:56Z</time>
      </trkpt>
      <trkpt lat="46.59149" lon="6.52426">
        <ele>479.1</ele>
        <time>2022-09-28T13:18:57Z</time>
      </trkpt>
      <trkpt lat="46.59156" lon="6.52437">
        <ele>478.3</ele>
        <time>2022-09-28T13:18:58Z</time>
      </trkpt>
      <trkpt lat="46.5916" lon="6.52442">
        <ele>477.9</ele>
        <time>2022-09-28T13:18:59Z</time>
      </trkpt>
      <trkpt lat="46.59164" lon="6.52446">
        <ele>477.5</ele>
        <time>2022-09-28T13:19:00Z</time>
      </trkpt>
      <trkpt lat="46.59167" lon="6.5245">
        <ele>477.2</ele>
        <time>2022-09-28T13:19:01Z</time>
      </trkpt>
      <trkpt lat="46.59171" lon="6.52455">
        <ele>476.8</ele>
        <time>2022-09-28T13:19:02Z</time>
      </trkpt>
      <trkpt lat="46.59176" lon="6.52461">
        <ele>476.3</ele>
        <time>2022-09-28T13:19:03Z</time>
      </trkpt>
      <trkpt lat="46.59181" lon="6.52465">
        <ele>475.8</ele>
        <time>2022-09-28T13:19:04Z</time>
      </trkpt>
      <trkpt lat="46.59187" lon="6.5247">
        <ele>475.3</ele>
        <time>2022-09-28T13:19:05Z</time>
      </trkpt>
      <trkpt lat="46.59192" lon="6.52475">
        <ele>474.7</ele>
        <time>2022-09-28T13:19:06Z</time>
      </trkpt>
      <trkpt lat="46.59197" lon="6.52479">
        <ele>474.3</ele>
        <time>2022-09-28T13:19:07Z</time>
      </trkpt>
      <trkpt lat="46.59202" lon="6.52483">
        <ele>473.8</ele>
        <time>2022-09-28T13:19:08Z</time>
      </trkpt>
      <trkpt lat="46.59208" lon="6.52488">
        <ele>473.3</ele>
        <time>2022-09-28T13:19:09Z</time>
      </trkpt>
      <trkpt lat="46.59212" lon="6.52492">
        <ele>472.8</ele>
        <time>2022-09-28T13:19:10Z</time>
      </trkpt>
      <trkpt lat="46.59218" lon="6.52497">
        <ele>472.3</ele>
        <time>2022-09-28T13:19:11Z</time>
      </trkpt>
      <trkpt lat="46.59224" lon="6.52501">
        <ele>471.7</ele>
        <time>2022-09-28T13:19:12Z</time>
      </trkpt>
      <trkpt lat="46.59229" lon="6.52505">
        <ele>471.2</ele>
        <time>2022-09-28T13:19:13Z</time>
      </trkpt>
      <trkpt lat="46.59236" lon="6.52509">
        <ele>470.6</ele>
        <time>2022-09-28T13:19:14Z</time>
      </trkpt>
      <trkpt lat="46.59241" lon="6.52513">
        <ele>470.2</ele>
        <time>2022-09-28T13:19:15Z</time>
      </trkpt>
      <trkpt lat="46.59247" lon="6.52517">
        <ele>469.6</ele>
        <time>2022-09-28T13:19:16Z</time>
      </trkpt>
      <trkpt lat="46.59253" lon="6.52521">
        <ele>469.1</ele>
        <time>2022-09-28T13:19:17Z</time>
      </trkpt>
      <trkpt lat="46.5926" lon="6.52526">
        <ele>468.4</ele>
        <time>2022-09-28T13:19:18Z</time>
      </trkpt>
      <trkpt lat="46.59265" lon="6.5253">
        <ele>467.9</ele>
        <time>2022-09-28T13:19:19Z</time>
      </trkpt>
      <trkpt lat="46.59271" lon="6.52534">
        <ele>467.4</ele>
        <time>2022-09-28T13:19:20Z</time>
      </trkpt>
      <trkpt lat="46.59277" lon="6.52537">
        <ele>466.9</ele>
        <time>2022-09-28T13:19:21Z</time>
      </trkpt>
      <trkpt lat="46.59283" lon="6.5254">
        <ele>466.3</ele>
        <time>2022-09-28T13:19:22Z</time>
      </trkpt>
      <trkpt lat="46.59289" lon="6.52544">
        <ele>465.8</ele>
        <time>2022-09-28T13:19:23Z</time>
      </trkpt>
      <trkpt lat="46.59295" lon="6.52548">
        <ele>465.2</ele>
        <time>2022-09-28T13:19:24Z</time>
      </trkpt>
      <trkpt lat="46.59301" lon="6.5255">
        <ele>464.7</ele>
        <time>2022-09-28T13:19:25Z</time>
      </trkpt>
      <trkpt lat="46.59308" lon="6.52554">
        <ele>464.1</ele>
        <time>2022-09-28T13:19:26Z</time>
      </trkpt>
      <trkpt lat="46.59314" lon="6.52558">
        <ele>463.5</ele>
        <time>2022-09-28T13:19:27Z</time>
      </trkpt>
      <trkpt lat="46.59321" lon="6.52561">
        <ele>462.8</ele>
        <time>2022-09-28T13:19:28Z</time>
      </trkpt>
      <trkpt lat="46.59325" lon="6.52566">
        <ele>462.3</ele>
        <time>2022-09-28T13:19:29Z</time>
      </trkpt>
      <trkpt lat="46.59331" lon="6.5257">
        <ele>461.7</ele>
        <time>2022-09-28T13:19:30Z</time>
      </trkpt>
      <trkpt lat="46.59339" lon="6.52574">
        <ele>461.1</ele>
        <time>2022-09-28T13:19:31Z</time>
      </trkpt>
      <trkpt lat="46.59344" lon="6.52578">
        <ele>460.5</ele>
        <time>2022-09-28T13:19:32Z</time>
      </trkpt>
      <trkpt lat="46.59351" lon="6.52582">
        <ele>459.9</ele>
        <time>2022-09-28T13:19:33Z</time>
      </trkpt>
      <trkpt lat="46.59356" lon="6.52585">
        <ele>459.4</ele>
        <time>2022-09-28T13:19:34Z</time>
      </trkpt>
      <trkpt lat="46.59362" lon="6.5259">
        <ele>458.8</ele>
        <time>2022-09-28T13:19:35Z</time>
      </trkpt>
      <trkpt lat="46.59368" lon="6.52592">
        <ele>458.4</ele>
        <time>2022-09-28T13:19:36Z</time>
      </trkpt>
      <trkpt lat="46.59373" lon="6.52596">
        <ele>457.9</ele>
        <time>2022-09-28T13:19:37Z</time>
      </trkpt>
      <trkpt lat="46.59379" lon="6.52599">
        <ele>457.4</ele>
        <time>2022-09-28T13:19:38Z</time>
      </trkpt>
      <trkpt lat="46.59384" lon="6.52602">
        <ele>457</ele>
        <time>2022-09-28T13:19:39Z</time>
      </trkpt>
      <trkpt lat="46.59389" lon="6.52605">
        <ele>456.5</ele>
        <time>2022-09-28T13:19:40Z</time>
      </trkpt>
      <trkpt lat="46.59394" lon="6.52607">
        <ele>456.1</ele>
        <time>2022-09-28T13:19:41Z</time>
      </trkpt>
      <trkpt lat="46.59399" lon="6.5261">
        <ele>455.7</ele>
        <time>2022-09-28T13:19:42Z</time>
      </trkpt>
      <trkpt lat="46.59404" lon="6.52613">
        <ele>455.4</ele>
        <time>2022-09-28T13:19:43Z</time>
      </trkpt>
      <trkpt lat="46.59409" lon="6.52616">
        <ele>455</ele>
        <time>2022-09-28T13:19:44Z</time>
      </trkpt>
      <trkpt lat="46.59413" lon="6.52619">
        <ele>454.6</ele>
        <time>2022-09-28T13:19:45Z</time>
      </trkpt>
      <trkpt lat="46.59418" lon="6.52621">
        <ele>454.4</ele>
        <time>2022-09-28T13:19:46Z</time>
      </trkpt>
      <trkpt lat="46.59423" lon="6.52624">
        <ele>454.1</ele>
        <time>2022-09-28T13:19:47Z</time>
      </trkpt>
      <trkpt lat="46.59428" lon="6.52628">
        <ele>453.8</ele>
        <time>2022-09-28T13:19:48Z</time>
      </trkpt>
      <trkpt lat="46.59433" lon="6.52631">
        <ele>453.5</ele>
        <time>2022-09-28T13:19:49Z</time>
      </trkpt>
      <trkpt lat="46.59438" lon="6.52634">
        <ele>453.2</ele>
        <time>2022-09-28T13:19:50Z</time>
      </trkpt>
      <trkpt lat="46.59443" lon="6.52637">
        <ele>452.9</ele>
        <time>2022-09-28T13:19:51Z</time>
      </trkpt>
      <trkpt lat="46.59446" lon="6.5264">
        <ele>452.8</ele>
        <time>2022-09-28T13:19:52Z</time>
      </trkpt>
      <trkpt lat="46.59451" lon="6.52643">
        <ele>452.5</ele>
        <time>2022-09-28T13:19:53Z</time>
      </trkpt>
      <trkpt lat="46.59455" lon="6.52646">
        <ele>452.2</ele>
        <time>2022-09-28T13:19:54Z</time>
      </trkpt>
      <trkpt lat="46.5946" lon="6.52648">
        <ele>451.9</ele>
        <time>2022-09-28T13:19:55Z</time>
      </trkpt>
      <trkpt lat="46.59463" lon="6.5265">
        <ele>451.7</ele>
        <time>2022-09-28T13:19:56Z</time>
      </trkpt>
      <trkpt lat="46.59466" lon="6.52653">
        <ele>451.4</ele>
        <time>2022-09-28T13:19:58Z</time>
      </trkpt>
      <trkpt lat="46.59469" lon="6.52655">
        <ele>451.2</ele>
        <time>2022-09-28T13:19:59Z</time>
      </trkpt>
      <trkpt lat="46.59472" lon="6.52657">
        <ele>451</ele>
        <time>2022-09-28T13:20:00Z</time>
      </trkpt>
      <trkpt lat="46.59476" lon="6.52659">
        <ele>450.6</ele>
        <time>2022-09-28T13:20:01Z</time>
      </trkpt>
      <trkpt lat="46.59479" lon="6.52661">
        <ele>450.3</ele>
        <time>2022-09-28T13:20:02Z</time>
      </trkpt>
      <trkpt lat="46.59483" lon="6.52663">
        <ele>450</ele>
        <time>2022-09-28T13:20:03Z</time>
      </trkpt>
      <trkpt lat="46.59486" lon="6.52665">
        <ele>449.6</ele>
        <time>2022-09-28T13:20:04Z</time>
      </trkpt>
      <trkpt lat="46.5949" lon="6.52666">
        <ele>449.3</ele>
        <time>2022-09-28T13:20:05Z</time>
      </trkpt>
      <trkpt lat="46.59493" lon="6.52666">
        <ele>448.9</ele>
        <time>2022-09-28T13:20:06Z</time>
      </trkpt>
      <trkpt lat="46.59497" lon="6.52668">
        <ele>448.5</ele>
        <time>2022-09-28T13:20:07Z</time>
      </trkpt>
      <trkpt lat="46.59502" lon="6.5267">
        <ele>448</ele>
        <time>2022-09-28T13:20:08Z</time>
      </trkpt>
      <trkpt lat="46.59507" lon="6.52671">
        <ele>447.5</ele>
        <time>2022-09-28T13:20:09Z</time>
      </trkpt>
      <trkpt lat="46.5951" lon="6.52674">
        <ele>447.1</ele>
        <time>2022-09-28T13:20:10Z</time>
      </trkpt>
      <trkpt lat="46.59515" lon="6.52677">
        <ele>446.5</ele>
        <time>2022-09-28T13:20:11Z</time>
      </trkpt>
      <trkpt lat="46.5952" lon="6.52678">
        <ele>446</ele>
        <time>2022-09-28T13:20:12Z</time>
      </trkpt>
      <trkpt lat="46.59525" lon="6.5268">
        <ele>445.5</ele>
        <time>2022-09-28T13:20:13Z</time>
      </trkpt>
      <trkpt lat="46.59531" lon="6.52682">
        <ele>445</ele>
        <time>2022-09-28T13:20:14Z</time>
      </trkpt>
      <trkpt lat="46.59537" lon="6.52684">
        <ele>444.4</ele>
        <time>2022-09-28T13:20:15Z</time>
      </trkpt>
      <trkpt lat="46.59543" lon="6.52686">
        <ele>444</ele>
        <time>2022-09-28T13:20:16Z</time>
      </trkpt>
      <trkpt lat="46.59549" lon="6.52688">
        <ele>443.5</ele>
        <time>2022-09-28T13:20:17Z</time>
      </trkpt>
      <trkpt lat="46.59555" lon="6.52689">
        <ele>443</ele>
        <time>2022-09-28T13:20:18Z</time>
      </trkpt>
      <trkpt lat="46.59562" lon="6.5269">
        <ele>442.6</ele>
        <time>2022-09-28T13:20:19Z</time>
      </trkpt>
      <trkpt lat="46.59569" lon="6.52691">
        <ele>442.1</ele>
        <time>2022-09-28T13:20:20Z</time>
      </trkpt>
      <trkpt lat="46.59576" lon="6.52692">
        <ele>441.6</ele>
        <time>2022-09-28T13:20:21Z</time>
      </trkpt>
      <trkpt lat="46.59583" lon="6.52692">
        <ele>441.2</ele>
        <time>2022-09-28T13:20:22Z</time>
      </trkpt>
      <trkpt lat="46.5959" lon="6.52693">
        <ele>440.7</ele>
        <time>2022-09-28T13:20:23Z</time>
      </trkpt>
      <trkpt lat="46.59597" lon="6.52694">
        <ele>440.1</ele>
        <time>2022-09-28T13:20:24Z</time>
      </trkpt>
      <trkpt lat="46.59604" lon="6.52694">
        <ele>439.6</ele>
        <time>2022-09-28T13:20:25Z</time>
      </trkpt>
      <trkpt lat="46.5961" lon="6.52695">
        <ele>439.1</ele>
        <time>2022-09-28T13:20:26Z</time>
      </trkpt>
      <trkpt lat="46.59617" lon="6.52696">
        <ele>438.5</ele>
        <time>2022-09-28T13:20:27Z</time>
      </trkpt>
      <trkpt lat="46.59623" lon="6.52696">
        <ele>438</ele>
        <time>2022-09-28T13:20:28Z</time>
      </trkpt>
      <trkpt lat="46.5963" lon="6.52697">
        <ele>437.4</ele>
        <time>2022-09-28T13:20:29Z</time>
      </trkpt>
      <trkpt lat="46.59636" lon="6.52697">
        <ele>436.8</ele>
        <time>2022-09-28T13:20:30Z</time>
      </trkpt>
      <trkpt lat="46.59643" lon="6.52698">
        <ele>436.3</ele>
        <time>2022-09-28T13:20:31Z</time>
      </trkpt>
      <trkpt lat="46.59649" lon="6.52698">
        <ele>435.8</ele>
        <time>2022-09-28T13:20:32Z</time>
      </trkpt>
      <trkpt lat="46.59656" lon="6.52698">
        <ele>435.2</ele>
        <time>2022-09-28T13:20:33Z</time>
      </trkpt>
      <trkpt lat="46.59663" lon="6.52699">
        <ele>434.7</ele>
        <time>2022-09-28T13:20:34Z</time>
      </trkpt>
      <trkpt lat="46.59669" lon="6.52699">
        <ele>434.2</ele>
        <time>2022-09-28T13:20:35Z</time>
      </trkpt>
      <trkpt lat="46.59675" lon="6.52699">
        <ele>433.7</ele>
        <time>2022-09-28T13:20:36Z</time>
      </trkpt>
      <trkpt lat="46.59682" lon="6.52699">
        <ele>433.2</ele>
        <time>2022-09-28T13:20:37Z</time>
      </trkpt>
      <trkpt lat="46.59689" lon="6.52699">
        <ele>432.8</ele>
        <time>2022-09-28T13:20:38Z</time>
      </trkpt>
      <trkpt lat="46.59695" lon="6.52699">
        <ele>432.4</ele>
        <time>2022-09-28T13:20:39Z</time>
      </trkpt>
      <trkpt lat="46.59701" lon="6.52699">
        <ele>432.1</ele>
        <time>2022-09-28T13:20:40Z</time>
      </trkpt>
      <trkpt lat="46.59706" lon="6.52699">
        <ele>431.8</ele>
        <time>2022-09-28T13:20:41Z</time>
      </trkpt>
      <trkpt lat="46.59712" lon="6.52699">
        <ele>431.5</ele>
        <time>2022-09-28T13:20:42Z</time>
      </trkpt>
      <trkpt lat="46.59716" lon="6.52698">
        <ele>431.3</ele>
        <time>2022-09-28T13:20:43Z</time>
      </trkpt>
      <trkpt lat="46.59721" lon="6.52698">
        <ele>431.1</ele>
        <time>2022-09-28T13:20:44Z</time>
      </trkpt>
      <trkpt lat="46.59725" lon="6.52699">
        <ele>431</ele>
        <time>2022-09-28T13:20:45Z</time>
      </trkpt>
      <trkpt lat="46.59731" lon="6.52698">
        <ele>430.8</ele>
        <time>2022-09-28T13:20:46Z</time>
      </trkpt>
      <trkpt lat="46.59736" lon="6.52697">
        <ele>430.7</ele>
        <time>2022-09-28T13:20:47Z</time>
      </trkpt>
      <trkpt lat="46.59741" lon="6.52697">
        <ele>430.5</ele>
        <time>2022-09-28T13:20:48Z</time>
      </trkpt>
      <trkpt lat="46.59746" lon="6.52697">
        <ele>430.4</ele>
        <time>2022-09-28T13:20:49Z</time>
      </trkpt>
      <trkpt lat="46.59751" lon="6.52698">
        <ele>430.3</ele>
        <time>2022-09-28T13:20:50Z</time>
      </trkpt>
      <trkpt lat="46.59756" lon="6.52698">
        <ele>430.2</ele>
        <time>2022-09-28T13:20:51Z</time>
      </trkpt>
      <trkpt lat="46.59761" lon="6.52697">
        <ele>430.1</ele>
        <time>2022-09-28T13:20:52Z</time>
      </trkpt>
      <trkpt lat="46.59771" lon="6.52697">
        <ele>429.9</ele>
        <time>2022-09-28T13:20:53Z</time>
      </trkpt>
      <trkpt lat="46.59776" lon="6.52696">
        <ele>429.8</ele>
        <time>2022-09-28T13:20:54Z</time>
      </trkpt>
      <trkpt lat="46.59781" lon="6.52696">
        <ele>429.8</ele>
        <time>2022-09-28T13:20:55Z</time>
      </trkpt>
      <trkpt lat="46.59787" lon="6.52695">
        <ele>429.7</ele>
        <time>2022-09-28T13:20:56Z</time>
      </trkpt>
      <trkpt lat="46.59792" lon="6.52694">
        <ele>429.6</ele>
        <time>2022-09-28T13:20:57Z</time>
      </trkpt>
      <trkpt lat="46.59797" lon="6.52694">
        <ele>429.5</ele>
        <time>2022-09-28T13:20:58Z</time>
      </trkpt>
      <trkpt lat="46.59803" lon="6.52693">
        <ele>429.4</ele>
        <time>2022-09-28T13:20:59Z</time>
      </trkpt>
      <trkpt lat="46.59808" lon="6.52693">
        <ele>429.4</ele>
        <time>2022-09-28T13:21:00Z</time>
      </trkpt>
      <trkpt lat="46.59812" lon="6.52693">
        <ele>429.3</ele>
        <time>2022-09-28T13:21:01Z</time>
      </trkpt>
      <trkpt lat="46.59818" lon="6.52692">
        <ele>429.2</ele>
        <time>2022-09-28T13:21:02Z</time>
      </trkpt>
      <trkpt lat="46.59822" lon="6.52691">
        <ele>429.2</ele>
        <time>2022-09-28T13:21:03Z</time>
      </trkpt>
      <trkpt lat="46.59827" lon="6.5269">
        <ele>429.1</ele>
        <time>2022-09-28T13:21:04Z</time>
      </trkpt>
      <trkpt lat="46.59832" lon="6.52689">
        <ele>429</ele>
        <time>2022-09-28T13:21:05Z</time>
      </trkpt>
      <trkpt lat="46.59837" lon="6.52688">
        <ele>429</ele>
        <time>2022-09-28T13:21:06Z</time>
      </trkpt>
      <trkpt lat="46.59842" lon="6.52687">
        <ele>428.9</ele>
        <time>2022-09-28T13:21:07Z</time>
      </trkpt>
      <trkpt lat="46.59846" lon="6.52686">
        <ele>428.9</ele>
        <time>2022-09-28T13:21:08Z</time>
      </trkpt>
      <trkpt lat="46.59851" lon="6.52683">
        <ele>428.8</ele>
        <time>2022-09-28T13:21:09Z</time>
      </trkpt>
      <trkpt lat="46.59855" lon="6.52681">
        <ele>428.8</ele>
        <time>2022-09-28T13:21:10Z</time>
      </trkpt>
      <trkpt lat="46.59859" lon="6.52679">
        <ele>428.7</ele>
        <time>2022-09-28T13:21:11Z</time>
      </trkpt>
      <trkpt lat="46.59864" lon="6.52675">
        <ele>428.6</ele>
        <time>2022-09-28T13:21:12Z</time>
      </trkpt>
      <trkpt lat="46.59869" lon="6.52673">
        <ele>428.5</ele>
        <time>2022-09-28T13:21:13Z</time>
      </trkpt>
      <trkpt lat="46.59873" lon="6.52669">
        <ele>428.5</ele>
        <time>2022-09-28T13:21:14Z</time>
      </trkpt>
      <trkpt lat="46.59877" lon="6.52666">
        <ele>428.4</ele>
        <time>2022-09-28T13:21:15Z</time>
      </trkpt>
      <trkpt lat="46.59881" lon="6.52662">
        <ele>428.3</ele>
        <time>2022-09-28T13:21:16Z</time>
      </trkpt>
      <trkpt lat="46.59885" lon="6.52659">
        <ele>428.3</ele>
        <time>2022-09-28T13:21:17Z</time>
      </trkpt>
      <trkpt lat="46.59889" lon="6.52654">
        <ele>428.2</ele>
        <time>2022-09-28T13:21:18Z</time>
      </trkpt>
      <trkpt lat="46.59894" lon="6.5265">
        <ele>428.1</ele>
        <time>2022-09-28T13:21:19Z</time>
      </trkpt>
      <trkpt lat="46.59897" lon="6.52646">
        <ele>428.1</ele>
        <time>2022-09-28T13:21:20Z</time>
      </trkpt>
      <trkpt lat="46.59901" lon="6.52642">
        <ele>428</ele>
        <time>2022-09-28T13:21:21Z</time>
      </trkpt>
      <trkpt lat="46.59905" lon="6.52637">
        <ele>427.9</ele>
        <time>2022-09-28T13:21:22Z</time>
      </trkpt>
      <trkpt lat="46.59907" lon="6.52632">
        <ele>427.9</ele>
        <time>2022-09-28T13:21:23Z</time>
      </trkpt>
      <trkpt lat="46.5991" lon="6.52628">
        <ele>427.8</ele>
        <time>2022-09-28T13:21:24Z</time>
      </trkpt>
      <trkpt lat="46.59914" lon="6.52622">
        <ele>427.8</ele>
        <time>2022-09-28T13:21:25Z</time>
      </trkpt>
      <trkpt lat="46.59917" lon="6.52618">
        <ele>427.7</ele>
        <time>2022-09-28T13:21:26Z</time>
      </trkpt>
      <trkpt lat="46.5992" lon="6.52612">
        <ele>427.7</ele>
        <time>2022-09-28T13:21:27Z</time>
      </trkpt>
      <trkpt lat="46.59924" lon="6.52607">
        <ele>427.6</ele>
        <time>2022-09-28T13:21:28Z</time>
      </trkpt>
      <trkpt lat="46.59927" lon="6.52601">
        <ele>427.6</ele>
        <time>2022-09-28T13:21:29Z</time>
      </trkpt>
      <trkpt lat="46.59931" lon="6.52595">
        <ele>427.5</ele>
        <time>2022-09-28T13:21:30Z</time>
      </trkpt>
      <trkpt lat="46.59934" lon="6.5259">
        <ele>427.5</ele>
        <time>2022-09-28T13:21:31Z</time>
      </trkpt>
      <trkpt lat="46.59937" lon="6.52586">
        <ele>427.5</ele>
        <time>2022-09-28T13:21:32Z</time>
      </trkpt>
      <trkpt lat="46.59941" lon="6.52578">
        <ele>427.5</ele>
        <time>2022-09-28T13:21:33Z</time>
      </trkpt>
      <trkpt lat="46.59944" lon="6.52573">
        <ele>427.5</ele>
        <time>2022-09-28T13:21:34Z</time>
      </trkpt>
      <trkpt lat="46.59949" lon="6.52567">
        <ele>427.5</ele>
        <time>2022-09-28T13:21:35Z</time>
      </trkpt>
      <trkpt lat="46.59953" lon="6.52562">
        <ele>427.5</ele>
        <time>2022-09-28T13:21:36Z</time>
      </trkpt>
      <trkpt lat="46.59957" lon="6.52557">
        <ele>427.5</ele>
        <time>2022-09-28T13:21:37Z</time>
      </trkpt>
      <trkpt lat="46.59962" lon="6.52552">
        <ele>427.4</ele>
        <time>2022-09-28T13:21:38Z</time>
      </trkpt>
      <trkpt lat="46.59965" lon="6.52548">
        <ele>427.4</ele>
        <time>2022-09-28T13:21:39Z</time>
      </trkpt>
      <trkpt lat="46.5997" lon="6.52543">
        <ele>427.4</ele>
        <time>2022-09-28T13:21:40Z</time>
      </trkpt>
      <trkpt lat="46.59974" lon="6.52539">
        <ele>427.4</ele>
        <time>2022-09-28T13:21:41Z</time>
      </trkpt>
      <trkpt lat="46.59979" lon="6.52535">
        <ele>427.4</ele>
        <time>2022-09-28T13:21:42Z</time>
      </trkpt>
      <trkpt lat="46.59984" lon="6.52531">
        <ele>427.5</ele>
        <time>2022-09-28T13:21:43Z</time>
      </trkpt>
      <trkpt lat="46.59988" lon="6.52528">
        <ele>427.5</ele>
        <time>2022-09-28T13:21:44Z</time>
      </trkpt>
      <trkpt lat="46.59993" lon="6.52524">
        <ele>427.5</ele>
        <time>2022-09-28T13:21:45Z</time>
      </trkpt>
      <trkpt lat="46.59996" lon="6.5252">
        <ele>427.5</ele>
        <time>2022-09-28T13:21:46Z</time>
      </trkpt>
      <trkpt lat="46.6" lon="6.52519">
        <ele>427.5</ele>
        <time>2022-09-28T13:21:47Z</time>
      </trkpt>
      <trkpt lat="46.60004" lon="6.52515">
        <ele>427.5</ele>
        <time>2022-09-28T13:21:48Z</time>
      </trkpt>
      <trkpt lat="46.60009" lon="6.52512">
        <ele>427.5</ele>
        <time>2022-09-28T13:21:49Z</time>
      </trkpt>
      <trkpt lat="46.60014" lon="6.52509">
        <ele>427.4</ele>
        <time>2022-09-28T13:21:50Z</time>
      </trkpt>
      <trkpt lat="46.6002" lon="6.52507">
        <ele>427.4</ele>
        <time>2022-09-28T13:21:51Z</time>
      </trkpt>
      <trkpt lat="46.60025" lon="6.52505">
        <ele>427.4</ele>
        <time>2022-09-28T13:21:52Z</time>
      </trkpt>
      <trkpt lat="46.6003" lon="6.52502">
        <ele>427.4</ele>
        <time>2022-09-28T13:21:53Z</time>
      </trkpt>
      <trkpt lat="46.60037" lon="6.525">
        <ele>427.4</ele>
        <time>2022-09-28T13:21:54Z</time>
      </trkpt>
      <trkpt lat="46.60042" lon="6.525">
        <ele>427.4</ele>
        <time>2022-09-28T13:21:55Z</time>
      </trkpt>
      <trkpt lat="46.60047" lon="6.52499">
        <ele>427.3</ele>
        <time>2022-09-28T13:21:56Z</time>
      </trkpt>
      <trkpt lat="46.60052" lon="6.52497">
        <ele>427.3</ele>
        <time>2022-09-28T13:21:57Z</time>
      </trkpt>
      <trkpt lat="46.60057" lon="6.52495">
        <ele>427.3</ele>
        <time>2022-09-28T13:21:58Z</time>
      </trkpt>
      <trkpt lat="46.60064" lon="6.52495">
        <ele>427.3</ele>
        <time>2022-09-28T13:21:59Z</time>
      </trkpt>
      <trkpt lat="46.6007" lon="6.52495">
        <ele>427.3</ele>
        <time>2022-09-28T13:22:00Z</time>
      </trkpt>
      <trkpt lat="46.60075" lon="6.52494">
        <ele>427.3</ele>
        <time>2022-09-28T13:22:01Z</time>
      </trkpt>
      <trkpt lat="46.60081" lon="6.52494">
        <ele>427.3</ele>
        <time>2022-09-28T13:22:02Z</time>
      </trkpt>
      <trkpt lat="46.60087" lon="6.52493">
        <ele>427.3</ele>
        <time>2022-09-28T13:22:04Z</time>
      </trkpt>
      <trkpt lat="46.60091" lon="6.52492">
        <ele>427.3</ele>
        <time>2022-09-28T13:22:05Z</time>
      </trkpt>
      <trkpt lat="46.60096" lon="6.52492">
        <ele>427.3</ele>
        <time>2022-09-28T13:22:06Z</time>
      </trkpt>
      <trkpt lat="46.60102" lon="6.52491">
        <ele>427.4</ele>
        <time>2022-09-28T13:22:07Z</time>
      </trkpt>
      <trkpt lat="46.60108" lon="6.52491">
        <ele>427.4</ele>
        <time>2022-09-28T13:22:08Z</time>
      </trkpt>
      <trkpt lat="46.60113" lon="6.5249">
        <ele>427.4</ele>
        <time>2022-09-28T13:22:09Z</time>
      </trkpt>
      <trkpt lat="46.60119" lon="6.5249">
        <ele>427.5</ele>
        <time>2022-09-28T13:22:10Z</time>
      </trkpt>
      <trkpt lat="46.60124" lon="6.52489">
        <ele>427.5</ele>
        <time>2022-09-28T13:22:11Z</time>
      </trkpt>
      <trkpt lat="46.60129" lon="6.52489">
        <ele>427.5</ele>
        <time>2022-09-28T13:22:12Z</time>
      </trkpt>
      <trkpt lat="46.60135" lon="6.52488">
        <ele>427.6</ele>
        <time>2022-09-28T13:22:13Z</time>
      </trkpt>
      <trkpt lat="46.6014" lon="6.52487">
        <ele>427.6</ele>
        <time>2022-09-28T13:22:14Z</time>
      </trkpt>
      <trkpt lat="46.60146" lon="6.52486">
        <ele>427.7</ele>
        <time>2022-09-28T13:22:15Z</time>
      </trkpt>
      <trkpt lat="46.60151" lon="6.52485">
        <ele>427.7</ele>
        <time>2022-09-28T13:22:16Z</time>
      </trkpt>
      <trkpt lat="46.60157" lon="6.52484">
        <ele>427.8</ele>
        <time>2022-09-28T13:22:17Z</time>
      </trkpt>
      <trkpt lat="46.60162" lon="6.52483">
        <ele>427.8</ele>
        <time>2022-09-28T13:22:18Z</time>
      </trkpt>
      <trkpt lat="46.60167" lon="6.52482">
        <ele>427.9</ele>
        <time>2022-09-28T13:22:19Z</time>
      </trkpt>
      <trkpt lat="46.60173" lon="6.5248">
        <ele>427.9</ele>
        <time>2022-09-28T13:22:20Z</time>
      </trkpt>
      <trkpt lat="46.60178" lon="6.52479">
        <ele>428</ele>
        <time>2022-09-28T13:22:21Z</time>
      </trkpt>
      <trkpt lat="46.60183" lon="6.52478">
        <ele>428.1</ele>
        <time>2022-09-28T13:22:22Z</time>
      </trkpt>
      <trkpt lat="46.60188" lon="6.52477">
        <ele>428.1</ele>
        <time>2022-09-28T13:22:23Z</time>
      </trkpt>
      <trkpt lat="46.60194" lon="6.52475">
        <ele>428.2</ele>
        <time>2022-09-28T13:22:24Z</time>
      </trkpt>
      <trkpt lat="46.60199" lon="6.52474">
        <ele>428.2</ele>
        <time>2022-09-28T13:22:25Z</time>
      </trkpt>
      <trkpt lat="46.6021" lon="6.52472">
        <ele>428.3</ele>
        <time>2022-09-28T13:22:26Z</time>
      </trkpt>
      <trkpt lat="46.60214" lon="6.52471">
        <ele>428.3</ele>
        <time>2022-09-28T13:22:27Z</time>
      </trkpt>
      <trkpt lat="46.6022" lon="6.52469">
        <ele>428.4</ele>
        <time>2022-09-28T13:22:28Z</time>
      </trkpt>
      <trkpt lat="46.60225" lon="6.52468">
        <ele>428.5</ele>
        <time>2022-09-28T13:22:29Z</time>
      </trkpt>
      <trkpt lat="46.6023" lon="6.52466">
        <ele>428.5</ele>
        <time>2022-09-28T13:22:30Z</time>
      </trkpt>
      <trkpt lat="46.60235" lon="6.52464">
        <ele>428.6</ele>
        <time>2022-09-28T13:22:31Z</time>
      </trkpt>
      <trkpt lat="46.6024" lon="6.52463">
        <ele>428.7</ele>
        <time>2022-09-28T13:22:32Z</time>
      </trkpt>
      <trkpt lat="46.60244" lon="6.5246">
        <ele>428.7</ele>
        <time>2022-09-28T13:22:33Z</time>
      </trkpt>
      <trkpt lat="46.60247" lon="6.52458">
        <ele>428.8</ele>
        <time>2022-09-28T13:22:34Z</time>
      </trkpt>
      <trkpt lat="46.60253" lon="6.52456">
        <ele>428.8</ele>
        <time>2022-09-28T13:22:35Z</time>
      </trkpt>
      <trkpt lat="46.60257" lon="6.52454">
        <ele>428.9</ele>
        <time>2022-09-28T13:22:36Z</time>
      </trkpt>
      <trkpt lat="46.60262" lon="6.52453">
        <ele>429</ele>
        <time>2022-09-28T13:22:37Z</time>
      </trkpt>
      <trkpt lat="46.60265" lon="6.52451">
        <ele>429</ele>
        <time>2022-09-28T13:22:38Z</time>
      </trkpt>
      <trkpt lat="46.60269" lon="6.52449">
        <ele>429.1</ele>
        <time>2022-09-28T13:22:39Z</time>
      </trkpt>
      <trkpt lat="46.60275" lon="6.52447">
        <ele>429.1</ele>
        <time>2022-09-28T13:22:40Z</time>
      </trkpt>
      <trkpt lat="46.60279" lon="6.52446">
        <ele>429.2</ele>
        <time>2022-09-28T13:22:41Z</time>
      </trkpt>
      <trkpt lat="46.60283" lon="6.52445">
        <ele>429.2</ele>
        <time>2022-09-28T13:22:42Z</time>
      </trkpt>
      <trkpt lat="46.60287" lon="6.52443">
        <ele>429.3</ele>
        <time>2022-09-28T13:22:43Z</time>
      </trkpt>
      <trkpt lat="46.6029" lon="6.52443">
        <ele>429.3</ele>
        <time>2022-09-28T13:22:44Z</time>
      </trkpt>
      <trkpt lat="46.60296" lon="6.52441">
        <ele>429.3</ele>
        <time>2022-09-28T13:22:45Z</time>
      </trkpt>
      <trkpt lat="46.603" lon="6.5244">
        <ele>429.4</ele>
        <time>2022-09-28T13:22:46Z</time>
      </trkpt>
      <trkpt lat="46.60304" lon="6.52438">
        <ele>429.4</ele>
        <time>2022-09-28T13:22:47Z</time>
      </trkpt>
      <trkpt lat="46.60308" lon="6.52436">
        <ele>429.5</ele>
        <time>2022-09-28T13:22:48Z</time>
      </trkpt>
      <trkpt lat="46.60311" lon="6.52435">
        <ele>429.5</ele>
        <time>2022-09-28T13:22:49Z</time>
      </trkpt>
      <trkpt lat="46.60315" lon="6.52434">
        <ele>429.5</ele>
        <time>2022-09-28T13:22:50Z</time>
      </trkpt>
      <trkpt lat="46.60319" lon="6.52432">
        <ele>429.5</ele>
        <time>2022-09-28T13:22:51Z</time>
      </trkpt>
      <trkpt lat="46.60323" lon="6.5243">
        <ele>429.6</ele>
        <time>2022-09-28T13:22:52Z</time>
      </trkpt>
      <trkpt lat="46.60326" lon="6.52429">
        <ele>429.6</ele>
        <time>2022-09-28T13:22:53Z</time>
      </trkpt>
      <trkpt lat="46.6033" lon="6.52428">
        <ele>429.6</ele>
        <time>2022-09-28T13:22:54Z</time>
      </trkpt>
      <trkpt lat="46.60334" lon="6.52425">
        <ele>429.6</ele>
        <time>2022-09-28T13:22:55Z</time>
      </trkpt>
      <trkpt lat="46.60337" lon="6.52425">
        <ele>429.6</ele>
        <time>2022-09-28T13:22:56Z</time>
      </trkpt>
      <trkpt lat="46.60341" lon="6.52423">
        <ele>429.7</ele>
        <time>2022-09-28T13:22:57Z</time>
      </trkpt>
      <trkpt lat="46.60344" lon="6.52419">
        <ele>429.7</ele>
        <time>2022-09-28T13:22:58Z</time>
      </trkpt>
      <trkpt lat="46.60347" lon="6.52419">
        <ele>429.7</ele>
        <time>2022-09-28T13:22:59Z</time>
      </trkpt>
      <trkpt lat="46.60352" lon="6.52418">
        <ele>429.8</ele>
        <time>2022-09-28T13:23:00Z</time>
      </trkpt>
      <trkpt lat="46.60355" lon="6.52415">
        <ele>429.8</ele>
        <time>2022-09-28T13:23:01Z</time>
      </trkpt>
      <trkpt lat="46.60359" lon="6.52413">
        <ele>429.8</ele>
        <time>2022-09-28T13:23:02Z</time>
      </trkpt>
      <trkpt lat="46.60361" lon="6.52412">
        <ele>429.8</ele>
        <time>2022-09-28T13:23:03Z</time>
      </trkpt>
      <trkpt lat="46.60366" lon="6.5241">
        <ele>429.8</ele>
        <time>2022-09-28T13:23:04Z</time>
      </trkpt>
      <trkpt lat="46.60371" lon="6.52409">
        <ele>429.9</ele>
        <time>2022-09-28T13:23:05Z</time>
      </trkpt>
      <trkpt lat="46.60375" lon="6.52406">
        <ele>429.9</ele>
        <time>2022-09-28T13:23:06Z</time>
      </trkpt>
      <trkpt lat="46.60378" lon="6.52403">
        <ele>429.9</ele>
        <time>2022-09-28T13:23:07Z</time>
      </trkpt>
      <trkpt lat="46.60382" lon="6.524">
        <ele>429.9</ele>
        <time>2022-09-28T13:23:08Z</time>
      </trkpt>
      <trkpt lat="46.60385" lon="6.52397">
        <ele>429.9</ele>
        <time>2022-09-28T13:23:09Z</time>
      </trkpt>
      <trkpt lat="46.60388" lon="6.52394">
        <ele>429.9</ele>
        <time>2022-09-28T13:23:10Z</time>
      </trkpt>
      <trkpt lat="46.60392" lon="6.5239">
        <ele>429.9</ele>
        <time>2022-09-28T13:23:11Z</time>
      </trkpt>
      <trkpt lat="46.60395" lon="6.52385">
        <ele>429.9</ele>
        <time>2022-09-28T13:23:12Z</time>
      </trkpt>
      <trkpt lat="46.60399" lon="6.5238">
        <ele>429.9</ele>
        <time>2022-09-28T13:23:13Z</time>
      </trkpt>
      <trkpt lat="46.60402" lon="6.52376">
        <ele>429.9</ele>
        <time>2022-09-28T13:23:14Z</time>
      </trkpt>
      <trkpt lat="46.60406" lon="6.52372">
        <ele>429.9</ele>
        <time>2022-09-28T13:23:15Z</time>
      </trkpt>
      <trkpt lat="46.60409" lon="6.52367">
        <ele>429.9</ele>
        <time>2022-09-28T13:23:16Z</time>
      </trkpt>
      <trkpt lat="46.60413" lon="6.52363">
        <ele>429.9</ele>
        <time>2022-09-28T13:23:17Z</time>
      </trkpt>
      <trkpt lat="46.60417" lon="6.52358">
        <ele>429.9</ele>
        <time>2022-09-28T13:23:18Z</time>
      </trkpt>
      <trkpt lat="46.6042" lon="6.52353">
        <ele>429.9</ele>
        <time>2022-09-28T13:23:19Z</time>
      </trkpt>
      <trkpt lat="46.60423" lon="6.52349">
        <ele>429.9</ele>
        <time>2022-09-28T13:23:20Z</time>
      </trkpt>
      <trkpt lat="46.60426" lon="6.52344">
        <ele>429.9</ele>
        <time>2022-09-28T13:23:21Z</time>
      </trkpt>
      <trkpt lat="46.60429" lon="6.5234">
        <ele>429.8</ele>
        <time>2022-09-28T13:23:22Z</time>
      </trkpt>
      <trkpt lat="46.60433" lon="6.52337">
        <ele>429.8</ele>
        <time>2022-09-28T13:23:23Z</time>
      </trkpt>
      <trkpt lat="46.60437" lon="6.52334">
        <ele>429.8</ele>
        <time>2022-09-28T13:23:24Z</time>
      </trkpt>
      <trkpt lat="46.60441" lon="6.5233">
        <ele>429.8</ele>
        <time>2022-09-28T13:23:25Z</time>
      </trkpt>
      <trkpt lat="46.60444" lon="6.52327">
        <ele>429.8</ele>
        <time>2022-09-28T13:23:26Z</time>
      </trkpt>
      <trkpt lat="46.60447" lon="6.52325">
        <ele>429.8</ele>
        <time>2022-09-28T13:23:27Z</time>
      </trkpt>
      <trkpt lat="46.6045" lon="6.52322">
        <ele>429.8</ele>
        <time>2022-09-28T13:23:28Z</time>
      </trkpt>
      <trkpt lat="46.60454" lon="6.52321">
        <ele>429.8</ele>
        <time>2022-09-28T13:23:29Z</time>
      </trkpt>
      <trkpt lat="46.60456" lon="6.5232">
        <ele>429.8</ele>
        <time>2022-09-28T13:23:30Z</time>
      </trkpt>
      <trkpt lat="46.6046" lon="6.52315">
        <ele>429.8</ele>
        <time>2022-09-28T13:23:31Z</time>
      </trkpt>
      <trkpt lat="46.60462" lon="6.52312">
        <ele>429.8</ele>
        <time>2022-09-28T13:23:32Z</time>
      </trkpt>
      <trkpt lat="46.60466" lon="6.52313">
        <ele>429.7</ele>
        <time>2022-09-28T13:23:33Z</time>
      </trkpt>
      <trkpt lat="46.60469" lon="6.52309">
        <ele>429.7</ele>
        <time>2022-09-28T13:23:34Z</time>
      </trkpt>
      <trkpt lat="46.60472" lon="6.52307">
        <ele>429.7</ele>
        <time>2022-09-28T13:23:35Z</time>
      </trkpt>
      <trkpt lat="46.60475" lon="6.52306">
        <ele>429.7</ele>
        <time>2022-09-28T13:23:36Z</time>
      </trkpt>
      <trkpt lat="46.60479" lon="6.52306">
        <ele>429.6</ele>
        <time>2022-09-28T13:23:37Z</time>
      </trkpt>
      <trkpt lat="46.6048" lon="6.52306">
        <ele>429.6</ele>
        <time>2022-09-28T13:23:38Z</time>
      </trkpt>
      <trkpt lat="46.60483" lon="6.52307">
        <ele>429.6</ele>
        <time>2022-09-28T13:23:39Z</time>
      </trkpt>
      <trkpt lat="46.60488" lon="6.52307">
        <ele>429.6</ele>
        <time>2022-09-28T13:23:40Z</time>
      </trkpt>
      <trkpt lat="46.6049" lon="6.52308">
        <ele>429.6</ele>
        <time>2022-09-28T13:23:41Z</time>
      </trkpt>
      <trkpt lat="46.60491" lon="6.52306">
        <ele>429.6</ele>
        <time>2022-09-28T13:23:42Z</time>
      </trkpt>
      <trkpt lat="46.60491" lon="6.52301">
        <ele>429.6</ele>
        <time>2022-09-28T13:23:43Z</time>
      </trkpt>
      <trkpt lat="46.60492" lon="6.52298">
        <ele>429.6</ele>
        <time>2022-09-28T13:23:44Z</time>
      </trkpt>
      <trkpt lat="46.60493" lon="6.52302">
        <ele>429.6</ele>
        <time>2022-09-28T13:23:45Z</time>
      </trkpt>
      <trkpt lat="46.60498" lon="6.523">
        <ele>429.6</ele>
        <time>2022-09-28T13:23:46Z</time>
      </trkpt>
      <trkpt lat="46.60502" lon="6.523">
        <ele>429.6</ele>
        <time>2022-09-28T13:23:47Z</time>
      </trkpt>
      <trkpt lat="46.60506" lon="6.52298">
        <ele>429.6</ele>
        <time>2022-09-28T13:23:48Z</time>
      </trkpt>
      <trkpt lat="46.60509" lon="6.52298">
        <ele>429.6</ele>
        <time>2022-09-28T13:23:49Z</time>
      </trkpt>
      <trkpt lat="46.60511" lon="6.52299">
        <ele>429.6</ele>
        <time>2022-09-28T13:23:50Z</time>
      </trkpt>
      <trkpt lat="46.60514" lon="6.52298">
        <ele>429.6</ele>
        <time>2022-09-28T13:23:51Z</time>
      </trkpt>
      <trkpt lat="46.60523" lon="6.52295">
        <ele>429.6</ele>
        <time>2022-09-28T13:23:52Z</time>
      </trkpt>
      <trkpt lat="46.60529" lon="6.52294">
        <ele>429.7</ele>
        <time>2022-09-28T13:23:53Z</time>
      </trkpt>
      <trkpt lat="46.60536" lon="6.523">
        <ele>429.8</ele>
        <time>2022-09-28T13:23:54Z</time>
      </trkpt>
      <trkpt lat="46.60541" lon="6.52302">
        <ele>429.8</ele>
        <time>2022-09-28T13:23:55Z</time>
      </trkpt>
      <trkpt lat="46.60547" lon="6.52305">
        <ele>430</ele>
        <time>2022-09-28T13:23:56Z</time>
      </trkpt>
      <trkpt lat="46.60552" lon="6.52307">
        <ele>430.1</ele>
        <time>2022-09-28T13:23:57Z</time>
      </trkpt>
      <trkpt lat="46.60557" lon="6.52312">
        <ele>430.2</ele>
        <time>2022-09-28T13:23:58Z</time>
      </trkpt>
      <trkpt lat="46.60561" lon="6.52314">
        <ele>430.3</ele>
        <time>2022-09-28T13:23:59Z</time>
      </trkpt>
      <trkpt lat="46.60563" lon="6.52317">
        <ele>430.4</ele>
        <time>2022-09-28T13:24:00Z</time>
      </trkpt>
      <trkpt lat="46.60565" lon="6.52319">
        <ele>430.5</ele>
        <time>2022-09-28T13:24:01Z</time>
      </trkpt>
      <trkpt lat="46.60566" lon="6.5232">
        <ele>430.5</ele>
        <time>2022-09-28T13:24:02Z</time>
      </trkpt>
      <trkpt lat="46.60566" lon="6.5232">
        <ele>430.5</ele>
        <time>2022-09-28T13:24:03Z</time>
      </trkpt>
      <trkpt lat="46.60567" lon="6.52321">
        <ele>430.6</ele>
        <time>2022-09-28T13:24:04Z</time>
      </trkpt>
      <trkpt lat="46.60569" lon="6.52322">
        <ele>430.6</ele>
        <time>2022-09-28T13:24:05Z</time>
      </trkpt>
      <trkpt lat="46.6057" lon="6.52323">
        <ele>430.7</ele>
        <time>2022-09-28T13:24:06Z</time>
      </trkpt>
      <trkpt lat="46.6057" lon="6.52324">
        <ele>430.7</ele>
        <time>2022-09-28T13:24:07Z</time>
      </trkpt>
      <trkpt lat="46.60568" lon="6.52324">
        <ele>430.7</ele>
        <time>2022-09-28T13:24:08Z</time>
      </trkpt>
      <trkpt lat="46.60568" lon="6.52325">
        <ele>430.7</ele>
        <time>2022-09-28T13:24:10Z</time>
      </trkpt>
      <trkpt lat="46.60568" lon="6.52325">
        <ele>430.8</ele>
        <time>2022-09-28T13:24:11Z</time>
      </trkpt>
      <trkpt lat="46.60568" lon="6.52325">
        <ele>430.8</ele>
        <time>2022-09-28T13:24:12Z</time>
      </trkpt>
      <trkpt lat="46.60567" lon="6.52325">
        <ele>430.8</ele>
        <time>2022-09-28T13:24:13Z</time>
      </trkpt>
      <trkpt lat="46.60571" lon="6.52325">
        <ele>430.9</ele>
        <time>2022-09-28T13:24:14Z</time>
      </trkpt>
      <trkpt lat="46.60574" lon="6.52325">
        <ele>431</ele>
        <time>2022-09-28T13:24:15Z</time>
      </trkpt>
      <trkpt lat="46.60577" lon="6.52325">
        <ele>431</ele>
        <time>2022-09-28T13:24:16Z</time>
      </trkpt>
      <trkpt lat="46.6058" lon="6.52325">
        <ele>431</ele>
        <time>2022-09-28T13:24:17Z</time>
      </trkpt>
      <trkpt lat="46.60583" lon="6.52325">
        <ele>431.1</ele>
        <time>2022-09-28T13:24:18Z</time>
      </trkpt>
      <trkpt lat="46.60587" lon="6.52325">
        <ele>431.3</ele>
        <time>2022-09-28T13:24:19Z</time>
      </trkpt>
      <trkpt lat="46.6059" lon="6.52325">
        <ele>431.4</ele>
        <time>2022-09-28T13:25:31Z</time>
      </trkpt>
      <trkpt lat="46.60593" lon="6.52325">
        <ele>431.6</ele>
        <time>2022-09-28T13:25:32Z</time>
      </trkpt>
      <trkpt lat="46.60596" lon="6.52325">
        <ele>431.7</ele>
        <time>2022-09-28T13:25:33Z</time>
      </trkpt>
      <trkpt lat="46.606" lon="6.52324">
        <ele>431.9</ele>
        <time>2022-09-28T13:25:34Z</time>
      </trkpt>
      <trkpt lat="46.60601" lon="6.52324">
        <ele>431.9</ele>
        <time>2022-09-28T13:25:35Z</time>
      </trkpt>
      <trkpt lat="46.60604" lon="6.52323">
        <ele>432.1</ele>
        <time>2022-09-28T13:25:36Z</time>
      </trkpt>
      <trkpt lat="46.60605" lon="6.52322">
        <ele>432.1</ele>
        <time>2022-09-28T13:25:37Z</time>
      </trkpt>
      <trkpt lat="46.60609" lon="6.52321">
        <ele>432.3</ele>
        <time>2022-09-28T13:25:38Z</time>
      </trkpt>
      <trkpt lat="46.6061" lon="6.5232">
        <ele>432.4</ele>
        <time>2022-09-28T13:25:39Z</time>
      </trkpt>
      <trkpt lat="46.60614" lon="6.52319">
        <ele>432.5</ele>
        <time>2022-09-28T13:25:40Z</time>
      </trkpt>
      <trkpt lat="46.60615" lon="6.52319">
        <ele>432.6</ele>
        <time>2022-09-28T13:25:41Z</time>
      </trkpt>
      <trkpt lat="46.60618" lon="6.52317">
        <ele>432.8</ele>
        <time>2022-09-28T13:25:42Z</time>
      </trkpt>
      <trkpt lat="46.60619" lon="6.52316">
        <ele>432.8</ele>
        <time>2022-09-28T13:25:43Z</time>
      </trkpt>
      <trkpt lat="46.60622" lon="6.52315">
        <ele>433</ele>
        <time>2022-09-28T13:25:44Z</time>
      </trkpt>
      <trkpt lat="46.60623" lon="6.52315">
        <ele>433</ele>
        <time>2022-09-28T13:25:45Z</time>
      </trkpt>
      <trkpt lat="46.60626" lon="6.52313">
        <ele>433.2</ele>
        <time>2022-09-28T13:25:46Z</time>
      </trkpt>
      <trkpt lat="46.60627" lon="6.52313">
        <ele>433.2</ele>
        <time>2022-09-28T13:25:47Z</time>
      </trkpt>
      <trkpt lat="46.6063" lon="6.52311">
        <ele>433.4</ele>
        <time>2022-09-28T13:25:48Z</time>
      </trkpt>
      <trkpt lat="46.60631" lon="6.5231">
        <ele>433.5</ele>
        <time>2022-09-28T13:25:49Z</time>
      </trkpt>
      <trkpt lat="46.60633" lon="6.52309">
        <ele>433.6</ele>
        <time>2022-09-28T13:25:50Z</time>
      </trkpt>
      <trkpt lat="46.60635" lon="6.52308">
        <ele>433.7</ele>
        <time>2022-09-28T13:25:51Z</time>
      </trkpt>
      <trkpt lat="46.60636" lon="6.52307">
        <ele>433.8</ele>
        <time>2022-09-28T13:25:52Z</time>
      </trkpt>
      <trkpt lat="46.60637" lon="6.52305">
        <ele>433.9</ele>
        <time>2022-09-28T13:25:53Z</time>
      </trkpt>
      <trkpt lat="46.60639" lon="6.52305">
        <ele>434</ele>
        <time>2022-09-28T13:25:54Z</time>
      </trkpt>
      <trkpt lat="46.6064" lon="6.52305">
        <ele>434.1</ele>
        <time>2022-09-28T13:25:55Z</time>
      </trkpt>
      <trkpt lat="46.60641" lon="6.52305">
        <ele>434.1</ele>
        <time>2022-09-28T13:25:56Z</time>
      </trkpt>
      <trkpt lat="46.60642" lon="6.52304">
        <ele>434.2</ele>
        <time>2022-09-28T13:25:57Z</time>
      </trkpt>
      <trkpt lat="46.60644" lon="6.52304">
        <ele>434.3</ele>
        <time>2022-09-28T13:25:58Z</time>
      </trkpt>
      <trkpt lat="46.60647" lon="6.52303">
        <ele>434.5</ele>
        <time>2022-09-28T13:25:59Z</time>
      </trkpt>
      <trkpt lat="46.60648" lon="6.52303">
        <ele>434.6</ele>
        <time>2022-09-28T13:26:00Z</time>
      </trkpt>
      <trkpt lat="46.60649" lon="6.52302">
        <ele>434.7</ele>
        <time>2022-09-28T13:26:01Z</time>
      </trkpt>
      <trkpt lat="46.60651" lon="6.52301">
        <ele>434.8</ele>
        <time>2022-09-28T13:26:02Z</time>
      </trkpt>
      <trkpt lat="46.60655" lon="6.52301">
        <ele>435</ele>
        <time>2022-09-28T13:26:03Z</time>
      </trkpt>
      <trkpt lat="46.60656" lon="6.52302">
        <ele>435.1</ele>
        <time>2022-09-28T13:26:04Z</time>
      </trkpt>
      <trkpt lat="46.6066" lon="6.52303">
        <ele>435.5</ele>
        <time>2022-09-28T13:26:05Z</time>
      </trkpt>
      <trkpt lat="46.60661" lon="6.52303">
        <ele>435.5</ele>
        <time>2022-09-28T13:26:06Z</time>
      </trkpt>
      <trkpt lat="46.60663" lon="6.52307">
        <ele>435.6</ele>
        <time>2022-09-28T13:26:07Z</time>
      </trkpt>
      <trkpt lat="46.60663" lon="6.52309">
        <ele>435.6</ele>
        <time>2022-09-28T13:26:08Z</time>
      </trkpt>
      <trkpt lat="46.60664" lon="6.52313">
        <ele>435.6</ele>
        <time>2022-09-28T13:26:09Z</time>
      </trkpt>
      <trkpt lat="46.60664" lon="6.52315">
        <ele>435.6</ele>
        <time>2022-09-28T13:26:10Z</time>
      </trkpt>
      <trkpt lat="46.60666" lon="6.5232">
        <ele>435.7</ele>
        <time>2022-09-28T13:26:11Z</time>
      </trkpt>
      <trkpt lat="46.60666" lon="6.52321">
        <ele>435.7</ele>
        <time>2022-09-28T13:26:12Z</time>
      </trkpt>
      <trkpt lat="46.60666" lon="6.52324">
        <ele>435.7</ele>
        <time>2022-09-28T13:26:13Z</time>
      </trkpt>
      <trkpt lat="46.60666" lon="6.52326">
        <ele>435.7</ele>
        <time>2022-09-28T13:26:14Z</time>
      </trkpt>
      <trkpt lat="46.60666" lon="6.52326">
        <ele>435.7</ele>
        <time>2022-09-28T13:26:16Z</time>
      </trkpt>
      <trkpt lat="46.60667" lon="6.52327">
        <ele>435.7</ele>
        <time>2022-09-28T13:26:17Z</time>
      </trkpt>
      <trkpt lat="46.60668" lon="6.52327">
        <ele>435.7</ele>
        <time>2022-09-28T13:26:18Z</time>
      </trkpt>
      <trkpt lat="46.60667" lon="6.52327">
        <ele>435.7</ele>
        <time>2022-09-28T13:26:19Z</time>
      </trkpt>
      <trkpt lat="46.60668" lon="6.52327">
        <ele>435.7</ele>
        <time>2022-09-28T13:26:20Z</time>
      </trkpt>
      <trkpt lat="46.60668" lon="6.52328">
        <ele>435.7</ele>
        <time>2022-09-28T13:26:21Z</time>
      </trkpt>
      <trkpt lat="46.60668" lon="6.52328">
        <ele>435.7</ele>
        <time>2022-09-28T13:26:22Z</time>
      </trkpt>
      <trkpt lat="46.60669" lon="6.52331">
        <ele>435.8</ele>
        <time>2022-09-28T13:26:23Z</time>
      </trkpt>
      <trkpt lat="46.6067" lon="6.52333">
        <ele>435.8</ele>
        <time>2022-09-28T13:26:24Z</time>
      </trkpt>
      <trkpt lat="46.6067" lon="6.52335">
        <ele>435.8</ele>
        <time>2022-09-28T13:26:25Z</time>
      </trkpt>
      <trkpt lat="46.60671" lon="6.52337">
        <ele>435.8</ele>
        <time>2022-09-28T13:26:27Z</time>
      </trkpt>
      <trkpt lat="46.60671" lon="6.52339">
        <ele>435.8</ele>
        <time>2022-09-28T13:26:28Z</time>
      </trkpt>
      <trkpt lat="46.60672" lon="6.5234">
        <ele>435.8</ele>
        <time>2022-09-28T13:26:29Z</time>
      </trkpt>
      <trkpt lat="46.60673" lon="6.52345">
        <ele>435.9</ele>
        <time>2022-09-28T13:26:30Z</time>
      </trkpt>
      <trkpt lat="46.60674" lon="6.52347">
        <ele>435.9</ele>
        <time>2022-09-28T13:26:31Z</time>
      </trkpt>
      <trkpt lat="46.60677" lon="6.52352">
        <ele>435.9</ele>
        <time>2022-09-28T13:26:32Z</time>
      </trkpt>
      <trkpt lat="46.60678" lon="6.52354">
        <ele>435.9</ele>
        <time>2022-09-28T13:26:33Z</time>
      </trkpt>
      <trkpt lat="46.60678" lon="6.52359">
        <ele>435.9</ele>
        <time>2022-09-28T13:26:34Z</time>
      </trkpt>
      <trkpt lat="46.60679" lon="6.52362">
        <ele>435.9</ele>
        <time>2022-09-28T13:26:35Z</time>
      </trkpt>
      <trkpt lat="46.6068" lon="6.52367">
        <ele>435.9</ele>
        <time>2022-09-28T13:26:36Z</time>
      </trkpt>
      <trkpt lat="46.60681" lon="6.52368">
        <ele>435.9</ele>
        <time>2022-09-28T13:26:37Z</time>
      </trkpt>
      <trkpt lat="46.60682" lon="6.52373">
        <ele>435.9</ele>
        <time>2022-09-28T13:26:38Z</time>
      </trkpt>
      <trkpt lat="46.60682" lon="6.52377">
        <ele>435.9</ele>
        <time>2022-09-28T13:26:39Z</time>
      </trkpt>
      <trkpt lat="46.60683" lon="6.52381">
        <ele>435.9</ele>
        <time>2022-09-28T13:26:40Z</time>
      </trkpt>
      <trkpt lat="46.60684" lon="6.52385">
        <ele>436</ele>
        <time>2022-09-28T13:26:41Z</time>
      </trkpt>
      <trkpt lat="46.60685" lon="6.52389">
        <ele>436</ele>
        <time>2022-09-28T13:26:42Z</time>
      </trkpt>
      <trkpt lat="46.60685" lon="6.52394">
        <ele>436</ele>
        <time>2022-09-28T13:26:43Z</time>
      </trkpt>
      <trkpt lat="46.60687" lon="6.52399">
        <ele>436</ele>
        <time>2022-09-28T13:26:44Z</time>
      </trkpt>
      <trkpt lat="46.60688" lon="6.52405">
        <ele>436</ele>
        <time>2022-09-28T13:26:45Z</time>
      </trkpt>
      <trkpt lat="46.6069" lon="6.52411">
        <ele>436</ele>
        <time>2022-09-28T13:26:46Z</time>
      </trkpt>
      <trkpt lat="46.60691" lon="6.52416">
        <ele>436</ele>
        <time>2022-09-28T13:26:47Z</time>
      </trkpt>
      <trkpt lat="46.60692" lon="6.52423">
        <ele>436</ele>
        <time>2022-09-28T13:26:48Z</time>
      </trkpt>
      <trkpt lat="46.60694" lon="6.52429">
        <ele>436</ele>
        <time>2022-09-28T13:26:49Z</time>
      </trkpt>
      <trkpt lat="46.60695" lon="6.52435">
        <ele>436</ele>
        <time>2022-09-28T13:26:50Z</time>
      </trkpt>
      <trkpt lat="46.60696" lon="6.52441">
        <ele>436</ele>
        <time>2022-09-28T13:26:51Z</time>
      </trkpt>
      <trkpt lat="46.60697" lon="6.52448">
        <ele>435.9</ele>
        <time>2022-09-28T13:26:52Z</time>
      </trkpt>
      <trkpt lat="46.60699" lon="6.52454">
        <ele>435.9</ele>
        <time>2022-09-28T13:26:53Z</time>
      </trkpt>
      <trkpt lat="46.607" lon="6.5246">
        <ele>435.9</ele>
        <time>2022-09-28T13:26:54Z</time>
      </trkpt>
      <trkpt lat="46.60701" lon="6.52465">
        <ele>436</ele>
        <time>2022-09-28T13:26:55Z</time>
      </trkpt>
      <trkpt lat="46.60702" lon="6.52469">
        <ele>436</ele>
        <time>2022-09-28T13:26:56Z</time>
      </trkpt>
      <trkpt lat="46.60703" lon="6.52473">
        <ele>436</ele>
        <time>2022-09-28T13:26:57Z</time>
      </trkpt>
      <trkpt lat="46.60703" lon="6.52478">
        <ele>436</ele>
        <time>2022-09-28T13:26:58Z</time>
      </trkpt>
      <trkpt lat="46.60703" lon="6.52483">
        <ele>436.1</ele>
        <time>2022-09-28T13:26:59Z</time>
      </trkpt>
      <trkpt lat="46.60704" lon="6.52488">
        <ele>436.1</ele>
        <time>2022-09-28T13:27:00Z</time>
      </trkpt>
      <trkpt lat="46.60704" lon="6.52493">
        <ele>436.1</ele>
        <time>2022-09-28T13:27:01Z</time>
      </trkpt>
      <trkpt lat="46.60703" lon="6.52497">
        <ele>436.2</ele>
        <time>2022-09-28T13:27:02Z</time>
      </trkpt>
      <trkpt lat="46.60701" lon="6.52502">
        <ele>436.3</ele>
        <time>2022-09-28T13:27:03Z</time>
      </trkpt>
      <trkpt lat="46.607" lon="6.52507">
        <ele>436.4</ele>
        <time>2022-09-28T13:27:04Z</time>
      </trkpt>
      <trkpt lat="46.607" lon="6.5251">
        <ele>436.4</ele>
        <time>2022-09-28T13:27:05Z</time>
      </trkpt>
      <trkpt lat="46.60698" lon="6.52514">
        <ele>436.4</ele>
        <time>2022-09-28T13:27:06Z</time>
      </trkpt>
      <trkpt lat="46.60698" lon="6.52516">
        <ele>436.5</ele>
        <time>2022-09-28T13:27:07Z</time>
      </trkpt>
      <trkpt lat="46.60697" lon="6.5252">
        <ele>436.5</ele>
        <time>2022-09-28T13:27:08Z</time>
      </trkpt>
      <trkpt lat="46.60698" lon="6.52524">
        <ele>436.6</ele>
        <time>2022-09-28T13:27:09Z</time>
      </trkpt>
      <trkpt lat="46.607" lon="6.52528">
        <ele>436.6</ele>
        <time>2022-09-28T13:27:10Z</time>
      </trkpt>
      <trkpt lat="46.60703" lon="6.52532">
        <ele>436.6</ele>
        <time>2022-09-28T13:27:11Z</time>
      </trkpt>
      <trkpt lat="46.60704" lon="6.52533">
        <ele>436.5</ele>
        <time>2022-09-28T13:27:12Z</time>
      </trkpt>
      <trkpt lat="46.60708" lon="6.52535">
        <ele>436.5</ele>
        <time>2022-09-28T13:27:13Z</time>
      </trkpt>
      <trkpt lat="46.60711" lon="6.52535">
        <ele>436.5</ele>
        <time>2022-09-28T13:27:14Z</time>
      </trkpt>
      <trkpt lat="46.60714" lon="6.52536">
        <ele>436.5</ele>
        <time>2022-09-28T13:27:15Z</time>
      </trkpt>
      <trkpt lat="46.60719" lon="6.52537">
        <ele>436.6</ele>
        <time>2022-09-28T13:27:16Z</time>
      </trkpt>
      <trkpt lat="46.60722" lon="6.52538">
        <ele>436.6</ele>
        <time>2022-09-28T13:27:17Z</time>
      </trkpt>
      <trkpt lat="46.60726" lon="6.5254">
        <ele>436.6</ele>
        <time>2022-09-28T13:27:18Z</time>
      </trkpt>
      <trkpt lat="46.6073" lon="6.52541">
        <ele>436.7</ele>
        <time>2022-09-28T13:27:19Z</time>
      </trkpt>
      <trkpt lat="46.60734" lon="6.52542">
        <ele>436.7</ele>
        <time>2022-09-28T13:27:20Z</time>
      </trkpt>
      <trkpt lat="46.60737" lon="6.52544">
        <ele>436.7</ele>
        <time>2022-09-28T13:27:21Z</time>
      </trkpt>
      <trkpt lat="46.60741" lon="6.52546">
        <ele>436.8</ele>
        <time>2022-09-28T13:27:22Z</time>
      </trkpt>
      <trkpt lat="46.60744" lon="6.52548">
        <ele>437</ele>
        <time>2022-09-28T13:27:23Z</time>
      </trkpt>
      <trkpt lat="46.60747" lon="6.52549">
        <ele>437.1</ele>
        <time>2022-09-28T13:27:24Z</time>
      </trkpt>
      <trkpt lat="46.60751" lon="6.52551">
        <ele>437.2</ele>
        <time>2022-09-28T13:27:25Z</time>
      </trkpt>
      <trkpt lat="46.60754" lon="6.52553">
        <ele>437.3</ele>
        <time>2022-09-28T13:27:26Z</time>
      </trkpt>
      <trkpt lat="46.60757" lon="6.52553">
        <ele>437.5</ele>
        <time>2022-09-28T13:27:27Z</time>
      </trkpt>
      <trkpt lat="46.6076" lon="6.52554">
        <ele>437.6</ele>
        <time>2022-09-28T13:27:28Z</time>
      </trkpt>
      <trkpt lat="46.60762" lon="6.52554">
        <ele>437.7</ele>
        <time>2022-09-28T13:27:29Z</time>
      </trkpt>
      <trkpt lat="46.60765" lon="6.52554">
        <ele>437.8</ele>
        <time>2022-09-28T13:27:30Z</time>
      </trkpt>
      <trkpt lat="46.60768" lon="6.52555">
        <ele>438</ele>
        <time>2022-09-28T13:27:31Z</time>
      </trkpt>
      <trkpt lat="46.6077" lon="6.52555">
        <ele>438.1</ele>
        <time>2022-09-28T13:27:32Z</time>
      </trkpt>
      <trkpt lat="46.60773" lon="6.52555">
        <ele>438.3</ele>
        <time>2022-09-28T13:27:33Z</time>
      </trkpt>
      <trkpt lat="46.60774" lon="6.52556">
        <ele>438.4</ele>
        <time>2022-09-28T13:27:34Z</time>
      </trkpt>
      <trkpt lat="46.60778" lon="6.52555">
        <ele>438.6</ele>
        <time>2022-09-28T13:27:35Z</time>
      </trkpt>
      <trkpt lat="46.60779" lon="6.52555">
        <ele>438.7</ele>
        <time>2022-09-28T13:27:36Z</time>
      </trkpt>
      <trkpt lat="46.60782" lon="6.52554">
        <ele>438.8</ele>
        <time>2022-09-28T13:27:37Z</time>
      </trkpt>
      <trkpt lat="46.60783" lon="6.52554">
        <ele>438.9</ele>
        <time>2022-09-28T13:27:38Z</time>
      </trkpt>
      <trkpt lat="46.60788" lon="6.52554">
        <ele>439.2</ele>
        <time>2022-09-28T13:27:39Z</time>
      </trkpt>
      <trkpt lat="46.60791" lon="6.52553">
        <ele>439.5</ele>
        <time>2022-09-28T13:27:40Z</time>
      </trkpt>
      <trkpt lat="46.60793" lon="6.52553">
        <ele>439.5</ele>
        <time>2022-09-28T13:27:41Z</time>
      </trkpt>
      <trkpt lat="46.60796" lon="6.52553">
        <ele>439.8</ele>
        <time>2022-09-28T13:27:42Z</time>
      </trkpt>
      <trkpt lat="46.60797" lon="6.52553">
        <ele>439.9</ele>
        <time>2022-09-28T13:27:43Z</time>
      </trkpt>
      <trkpt lat="46.608" lon="6.52552">
        <ele>440.1</ele>
        <time>2022-09-28T13:27:44Z</time>
      </trkpt>
      <trkpt lat="46.60801" lon="6.52552">
        <ele>440.2</ele>
        <time>2022-09-28T13:27:45Z</time>
      </trkpt>
      <trkpt lat="46.60804" lon="6.52552">
        <ele>440.4</ele>
        <time>2022-09-28T13:27:46Z</time>
      </trkpt>
      <trkpt lat="46.60805" lon="6.52552">
        <ele>440.5</ele>
        <time>2022-09-28T13:27:47Z</time>
      </trkpt>
      <trkpt lat="46.60808" lon="6.52551">
        <ele>440.8</ele>
        <time>2022-09-28T13:27:48Z</time>
      </trkpt>
      <trkpt lat="46.60809" lon="6.5255">
        <ele>440.9</ele>
        <time>2022-09-28T13:27:49Z</time>
      </trkpt>
      <trkpt lat="46.60812" lon="6.52551">
        <ele>441.1</ele>
        <time>2022-09-28T13:27:50Z</time>
      </trkpt>
      <trkpt lat="46.60813" lon="6.52551">
        <ele>441.2</ele>
        <time>2022-09-28T13:27:51Z</time>
      </trkpt>
      <trkpt lat="46.60816" lon="6.5255">
        <ele>441.5</ele>
        <time>2022-09-28T13:27:52Z</time>
      </trkpt>
      <trkpt lat="46.60817" lon="6.52549">
        <ele>441.6</ele>
        <time>2022-09-28T13:27:53Z</time>
      </trkpt>
      <trkpt lat="46.6082" lon="6.52549">
        <ele>441.9</ele>
        <time>2022-09-28T13:27:54Z</time>
      </trkpt>
      <trkpt lat="46.60821" lon="6.52549">
        <ele>442</ele>
        <time>2022-09-28T13:27:55Z</time>
      </trkpt>
      <trkpt lat="46.60825" lon="6.52549">
        <ele>442.3</ele>
        <time>2022-09-28T13:27:56Z</time>
      </trkpt>
      <trkpt lat="46.60826" lon="6.52549">
        <ele>442.4</ele>
        <time>2022-09-28T13:27:57Z</time>
      </trkpt>
      <trkpt lat="46.60829" lon="6.52548">
        <ele>442.7</ele>
        <time>2022-09-28T13:27:58Z</time>
      </trkpt>
      <trkpt lat="46.6083" lon="6.52548">
        <ele>442.8</ele>
        <time>2022-09-28T13:27:59Z</time>
      </trkpt>
      <trkpt lat="46.60833" lon="6.52547">
        <ele>443.1</ele>
        <time>2022-09-28T13:28:00Z</time>
      </trkpt>
      <trkpt lat="46.60833" lon="6.52547">
        <ele>443.2</ele>
        <time>2022-09-28T13:28:01Z</time>
      </trkpt>
      <trkpt lat="46.60835" lon="6.52547">
        <ele>443.4</ele>
        <time>2022-09-28T13:28:02Z</time>
      </trkpt>
      <trkpt lat="46.60837" lon="6.52547">
        <ele>443.5</ele>
        <time>2022-09-28T13:28:03Z</time>
      </trkpt>
      <trkpt lat="46.6084" lon="6.52546">
        <ele>443.9</ele>
        <time>2022-09-28T13:28:04Z</time>
      </trkpt>
      <trkpt lat="46.60841" lon="6.52545">
        <ele>444</ele>
        <time>2022-09-28T13:28:05Z</time>
      </trkpt>
      <trkpt lat="46.60843" lon="6.52545">
        <ele>444.1</ele>
        <time>2022-09-28T13:28:06Z</time>
      </trkpt>
      <trkpt lat="46.60844" lon="6.52545">
        <ele>444.3</ele>
        <time>2022-09-28T13:28:07Z</time>
      </trkpt>
      <trkpt lat="46.60847" lon="6.52544">
        <ele>444.6</ele>
        <time>2022-09-28T13:28:08Z</time>
      </trkpt>
      <trkpt lat="46.60848" lon="6.52544">
        <ele>444.7</ele>
        <time>2022-09-28T13:28:09Z</time>
      </trkpt>
      <trkpt lat="46.6085" lon="6.52545">
        <ele>444.9</ele>
        <time>2022-09-28T13:28:10Z</time>
      </trkpt>
      <trkpt lat="46.60852" lon="6.52544">
        <ele>445</ele>
        <time>2022-09-28T13:28:11Z</time>
      </trkpt>
      <trkpt lat="46.60853" lon="6.52544">
        <ele>445.2</ele>
        <time>2022-09-28T13:28:12Z</time>
      </trkpt>
      <trkpt lat="46.60855" lon="6.52545">
        <ele>445.4</ele>
        <time>2022-09-28T13:28:13Z</time>
      </trkpt>
      <trkpt lat="46.60857" lon="6.52545">
        <ele>445.6</ele>
        <time>2022-09-28T13:28:14Z</time>
      </trkpt>
      <trkpt lat="46.60859" lon="6.52545">
        <ele>445.8</ele>
        <time>2022-09-28T13:28:15Z</time>
      </trkpt>
      <trkpt lat="46.6086" lon="6.52544">
        <ele>445.9</ele>
        <time>2022-09-28T13:28:16Z</time>
      </trkpt>
      <trkpt lat="46.60862" lon="6.52545">
        <ele>446.1</ele>
        <time>2022-09-28T13:28:17Z</time>
      </trkpt>
      <trkpt lat="46.60864" lon="6.52545">
        <ele>446.3</ele>
        <time>2022-09-28T13:28:18Z</time>
      </trkpt>
      <trkpt lat="46.60865" lon="6.52545">
        <ele>446.4</ele>
        <time>2022-09-28T13:28:19Z</time>
      </trkpt>
      <trkpt lat="46.60868" lon="6.52544">
        <ele>446.7</ele>
        <time>2022-09-28T13:28:20Z</time>
      </trkpt>
      <trkpt lat="46.6087" lon="6.52544">
        <ele>446.9</ele>
        <time>2022-09-28T13:28:22Z</time>
      </trkpt>
      <trkpt lat="46.60871" lon="6.52544">
        <ele>447</ele>
        <time>2022-09-28T13:28:23Z</time>
      </trkpt>
      <trkpt lat="46.60872" lon="6.52544">
        <ele>447.1</ele>
        <time>2022-09-28T13:28:24Z</time>
      </trkpt>
      <trkpt lat="46.60874" lon="6.52543">
        <ele>447.3</ele>
        <time>2022-09-28T13:28:25Z</time>
      </trkpt>
      <trkpt lat="46.60875" lon="6.52543">
        <ele>447.4</ele>
        <time>2022-09-28T13:28:26Z</time>
      </trkpt>
      <trkpt lat="46.60876" lon="6.52543">
        <ele>447.5</ele>
        <time>2022-09-28T13:28:27Z</time>
      </trkpt>
      <trkpt lat="46.60878" lon="6.52543">
        <ele>447.7</ele>
        <time>2022-09-28T13:28:28Z</time>
      </trkpt>
      <trkpt lat="46.60881" lon="6.52543">
        <ele>448</ele>
        <time>2022-09-28T13:28:29Z</time>
      </trkpt>
      <trkpt lat="46.60882" lon="6.52543">
        <ele>448.1</ele>
        <time>2022-09-28T13:28:30Z</time>
      </trkpt>
      <trkpt lat="46.60883" lon="6.52542">
        <ele>448.2</ele>
        <time>2022-09-28T13:28:31Z</time>
      </trkpt>
      <trkpt lat="46.60885" lon="6.52543">
        <ele>448.3</ele>
        <time>2022-09-28T13:28:32Z</time>
      </trkpt>
      <trkpt lat="46.60887" lon="6.52542">
        <ele>448.5</ele>
        <time>2022-09-28T13:28:33Z</time>
      </trkpt>
      <trkpt lat="46.60888" lon="6.52542">
        <ele>448.6</ele>
        <time>2022-09-28T13:28:34Z</time>
      </trkpt>
      <trkpt lat="46.6089" lon="6.52542">
        <ele>448.8</ele>
        <time>2022-09-28T13:28:35Z</time>
      </trkpt>
      <trkpt lat="46.60891" lon="6.52542">
        <ele>449</ele>
        <time>2022-09-28T13:28:36Z</time>
      </trkpt>
      <trkpt lat="46.60893" lon="6.52542">
        <ele>449.1</ele>
        <time>2022-09-28T13:28:37Z</time>
      </trkpt>
      <trkpt lat="46.60894" lon="6.52542">
        <ele>449.2</ele>
        <time>2022-09-28T13:28:38Z</time>
      </trkpt>
      <trkpt lat="46.60896" lon="6.52542">
        <ele>449.4</ele>
        <time>2022-09-28T13:28:39Z</time>
      </trkpt>
      <trkpt lat="46.60897" lon="6.52542">
        <ele>449.5</ele>
        <time>2022-09-28T13:28:40Z</time>
      </trkpt>
      <trkpt lat="46.60898" lon="6.52541">
        <ele>449.7</ele>
        <time>2022-09-28T13:28:41Z</time>
      </trkpt>
      <trkpt lat="46.609" lon="6.52541">
        <ele>449.8</ele>
        <time>2022-09-28T13:28:42Z</time>
      </trkpt>
      <trkpt lat="46.60901" lon="6.52541">
        <ele>450</ele>
        <time>2022-09-28T13:28:43Z</time>
      </trkpt>
      <trkpt lat="46.60904" lon="6.52541">
        <ele>450.3</ele>
        <time>2022-09-28T13:28:44Z</time>
      </trkpt>
      <trkpt lat="46.60905" lon="6.52541">
        <ele>450.4</ele>
        <time>2022-09-28T13:28:45Z</time>
      </trkpt>
      <trkpt lat="46.60907" lon="6.5254">
        <ele>450.5</ele>
        <time>2022-09-28T13:28:46Z</time>
      </trkpt>
      <trkpt lat="46.60909" lon="6.5254">
        <ele>450.7</ele>
        <time>2022-09-28T13:28:47Z</time>
      </trkpt>
      <trkpt lat="46.6091" lon="6.5254">
        <ele>450.8</ele>
        <time>2022-09-28T13:28:48Z</time>
      </trkpt>
      <trkpt lat="46.60912" lon="6.5254">
        <ele>451.1</ele>
        <time>2022-09-28T13:28:49Z</time>
      </trkpt>
      <trkpt lat="46.60914" lon="6.5254">
        <ele>451.2</ele>
        <time>2022-09-28T13:28:50Z</time>
      </trkpt>
      <trkpt lat="46.60916" lon="6.5254">
        <ele>451.3</ele>
        <time>2022-09-28T13:28:51Z</time>
      </trkpt>
      <trkpt lat="46.60917" lon="6.52541">
        <ele>451.3</ele>
        <time>2022-09-28T13:28:52Z</time>
      </trkpt>
      <trkpt lat="46.60919" lon="6.52542">
        <ele>451.3</ele>
        <time>2022-09-28T13:28:53Z</time>
      </trkpt>
      <trkpt lat="46.60922" lon="6.52543">
        <ele>451.4</ele>
        <time>2022-09-28T13:28:54Z</time>
      </trkpt>
      <trkpt lat="46.60923" lon="6.52543">
        <ele>451.4</ele>
        <time>2022-09-28T13:28:55Z</time>
      </trkpt>
      <trkpt lat="46.60925" lon="6.52545">
        <ele>451.5</ele>
        <time>2022-09-28T13:28:56Z</time>
      </trkpt>
      <trkpt lat="46.60926" lon="6.52545">
        <ele>451.5</ele>
        <time>2022-09-28T13:28:57Z</time>
      </trkpt>
      <trkpt lat="46.60928" lon="6.52546">
        <ele>451.5</ele>
        <time>2022-09-28T13:28:58Z</time>
      </trkpt>
      <trkpt lat="46.60929" lon="6.52547">
        <ele>451.6</ele>
        <time>2022-09-28T13:28:59Z</time>
      </trkpt>
      <trkpt lat="46.60932" lon="6.52549">
        <ele>451.6</ele>
        <time>2022-09-28T13:29:00Z</time>
      </trkpt>
      <trkpt lat="46.60933" lon="6.5255">
        <ele>451.7</ele>
        <time>2022-09-28T13:29:01Z</time>
      </trkpt>
      <trkpt lat="46.60935" lon="6.5255">
        <ele>451.7</ele>
        <time>2022-09-28T13:29:02Z</time>
      </trkpt>
      <trkpt lat="46.60936" lon="6.52551">
        <ele>451.8</ele>
        <time>2022-09-28T13:29:03Z</time>
      </trkpt>
      <trkpt lat="46.60937" lon="6.52551">
        <ele>451.8</ele>
        <time>2022-09-28T13:29:04Z</time>
      </trkpt>
      <trkpt lat="46.60937" lon="6.52552">
        <ele>451.9</ele>
        <time>2022-09-28T13:29:05Z</time>
      </trkpt>
      <trkpt lat="46.60938" lon="6.52552">
        <ele>451.9</ele>
        <time>2022-09-28T13:29:06Z</time>
      </trkpt>
      <trkpt lat="46.60938" lon="6.52554">
        <ele>451.9</ele>
        <time>2022-09-28T13:29:07Z</time>
      </trkpt>
      <trkpt lat="46.6094" lon="6.52554">
        <ele>452</ele>
        <time>2022-09-28T13:29:08Z</time>
      </trkpt>
      <trkpt lat="46.6094" lon="6.52554">
        <ele>452</ele>
        <time>2022-09-28T13:29:09Z</time>
      </trkpt>
      <trkpt lat="46.60941" lon="6.52555">
        <ele>452.1</ele>
        <time>2022-09-28T13:29:10Z</time>
      </trkpt>
      <trkpt lat="46.60942" lon="6.52555">
        <ele>452.1</ele>
        <time>2022-09-28T13:29:11Z</time>
      </trkpt>
      <trkpt lat="46.60943" lon="6.52555">
        <ele>452.2</ele>
        <time>2022-09-28T13:29:12Z</time>
      </trkpt>
      <trkpt lat="46.60944" lon="6.52555">
        <ele>452.2</ele>
        <time>2022-09-28T13:29:13Z</time>
      </trkpt>
      <trkpt lat="46.60945" lon="6.52555">
        <ele>452.2</ele>
        <time>2022-09-28T13:29:14Z</time>
      </trkpt>
      <trkpt lat="46.60946" lon="6.52556">
        <ele>452.3</ele>
        <time>2022-09-28T13:29:15Z</time>
      </trkpt>
      <trkpt lat="46.60947" lon="6.52556">
        <ele>452.3</ele>
        <time>2022-09-28T13:29:16Z</time>
      </trkpt>
      <trkpt lat="46.60948" lon="6.52556">
        <ele>452.3</ele>
        <time>2022-09-28T13:41:15Z</time>
      </trkpt>
      <trkpt lat="46.60949" lon="6.52556">
        <ele>452.4</ele>
        <time>2022-09-28T13:41:16Z</time>
      </trkpt>
      <trkpt lat="46.6095" lon="6.52556">
        <ele>452.4</ele>
        <time>2022-09-28T13:41:17Z</time>
      </trkpt>
      <trkpt lat="46.60951" lon="6.52557">
        <ele>452.4</ele>
        <time>2022-09-28T13:41:18Z</time>
      </trkpt>
      <trkpt lat="46.60954" lon="6.52556">
        <ele>452.5</ele>
        <time>2022-09-28T13:41:19Z</time>
      </trkpt>
      <trkpt lat="46.60955" lon="6.52556">
        <ele>452.5</ele>
        <time>2022-09-28T13:41:20Z</time>
      </trkpt>
      <trkpt lat="46.60958" lon="6.52555">
        <ele>452.6</ele>
        <time>2022-09-28T13:41:21Z</time>
      </trkpt>
      <trkpt lat="46.60959" lon="6.52554">
        <ele>452.7</ele>
        <time>2022-09-28T13:41:22Z</time>
      </trkpt>
      <trkpt lat="46.60962" lon="6.52554">
        <ele>452.7</ele>
        <time>2022-09-28T13:41:23Z</time>
      </trkpt>
      <trkpt lat="46.60963" lon="6.52554">
        <ele>452.8</ele>
        <time>2022-09-28T13:41:24Z</time>
      </trkpt>
      <trkpt lat="46.60966" lon="6.52554">
        <ele>452.8</ele>
        <time>2022-09-28T13:41:25Z</time>
      </trkpt>
      <trkpt lat="46.60967" lon="6.52554">
        <ele>452.8</ele>
        <time>2022-09-28T13:41:26Z</time>
      </trkpt>
      <trkpt lat="46.6097" lon="6.52555">
        <ele>453</ele>
        <time>2022-09-28T13:41:27Z</time>
      </trkpt>
      <trkpt lat="46.60972" lon="6.52555">
        <ele>453</ele>
        <time>2022-09-28T13:41:28Z</time>
      </trkpt>
      <trkpt lat="46.60975" lon="6.52555">
        <ele>453.1</ele>
        <time>2022-09-28T13:41:29Z</time>
      </trkpt>
      <trkpt lat="46.60975" lon="6.52555">
        <ele>453.1</ele>
        <time>2022-09-28T13:41:30Z</time>
      </trkpt>
      <trkpt lat="46.60978" lon="6.52553">
        <ele>453.1</ele>
        <time>2022-09-28T13:41:31Z</time>
      </trkpt>
      <trkpt lat="46.6098" lon="6.52552">
        <ele>453.2</ele>
        <time>2022-09-28T13:41:32Z</time>
      </trkpt>
      <trkpt lat="46.60982" lon="6.5255">
        <ele>453.2</ele>
        <time>2022-09-28T13:41:33Z</time>
      </trkpt>
      <trkpt lat="46.60983" lon="6.52548">
        <ele>453.2</ele>
        <time>2022-09-28T13:41:34Z</time>
      </trkpt>
      <trkpt lat="46.60984" lon="6.52545">
        <ele>453.3</ele>
        <time>2022-09-28T13:41:35Z</time>
      </trkpt>
      <trkpt lat="46.60985" lon="6.52544">
        <ele>453.3</ele>
        <time>2022-09-28T13:41:36Z</time>
      </trkpt>
      <trkpt lat="46.60986" lon="6.52538">
        <ele>453.5</ele>
        <time>2022-09-28T13:41:37Z</time>
      </trkpt>
      <trkpt lat="46.60987" lon="6.52536">
        <ele>453.5</ele>
        <time>2022-09-28T13:41:38Z</time>
      </trkpt>
      <trkpt lat="46.60987" lon="6.52531">
        <ele>453.6</ele>
        <time>2022-09-28T13:41:39Z</time>
      </trkpt>
      <trkpt lat="46.60987" lon="6.52529">
        <ele>453.6</ele>
        <time>2022-09-28T13:41:40Z</time>
      </trkpt>
      <trkpt lat="46.60988" lon="6.52524">
        <ele>453.7</ele>
        <time>2022-09-28T13:41:41Z</time>
      </trkpt>
      <trkpt lat="46.60989" lon="6.52522">
        <ele>453.7</ele>
        <time>2022-09-28T13:41:42Z</time>
      </trkpt>
      <trkpt lat="46.60991" lon="6.52518">
        <ele>453.7</ele>
        <time>2022-09-28T13:41:43Z</time>
      </trkpt>
      <trkpt lat="46.60993" lon="6.52514">
        <ele>453.7</ele>
        <time>2022-09-28T13:41:44Z</time>
      </trkpt>
      <trkpt lat="46.60993" lon="6.52513">
        <ele>453.7</ele>
        <time>2022-09-28T13:41:45Z</time>
      </trkpt>
      <trkpt lat="46.60996" lon="6.52509">
        <ele>453.8</ele>
        <time>2022-09-28T13:41:46Z</time>
      </trkpt>
      <trkpt lat="46.60996" lon="6.52507">
        <ele>453.8</ele>
        <time>2022-09-28T13:41:47Z</time>
      </trkpt>
      <trkpt lat="46.60998" lon="6.52504">
        <ele>453.8</ele>
        <time>2022-09-28T13:41:48Z</time>
      </trkpt>
      <trkpt lat="46.61" lon="6.52501">
        <ele>453.9</ele>
        <time>2022-09-28T13:41:49Z</time>
      </trkpt>
      <trkpt lat="46.61002" lon="6.52497">
        <ele>453.9</ele>
        <time>2022-09-28T13:41:50Z</time>
      </trkpt>
      <trkpt lat="46.61003" lon="6.52493">
        <ele>453.9</ele>
        <time>2022-09-28T13:41:51Z</time>
      </trkpt>
      <trkpt lat="46.61006" lon="6.52488">
        <ele>453.9</ele>
        <time>2022-09-28T13:41:52Z</time>
      </trkpt>
      <trkpt lat="46.61007" lon="6.52486">
        <ele>454</ele>
        <time>2022-09-28T13:41:53Z</time>
      </trkpt>
      <trkpt lat="46.61009" lon="6.52483">
        <ele>454</ele>
        <time>2022-09-28T13:41:54Z</time>
      </trkpt>
      <trkpt lat="46.61012" lon="6.52479">
        <ele>454</ele>
        <time>2022-09-28T13:41:55Z</time>
      </trkpt>
      <trkpt lat="46.61014" lon="6.52476">
        <ele>454</ele>
        <time>2022-09-28T13:41:56Z</time>
      </trkpt>
      <trkpt lat="46.61016" lon="6.52472">
        <ele>454</ele>
        <time>2022-09-28T13:41:57Z</time>
      </trkpt>
      <trkpt lat="46.61018" lon="6.52469">
        <ele>454</ele>
        <time>2022-09-28T13:41:58Z</time>
      </trkpt>
      <trkpt lat="46.6102" lon="6.52465">
        <ele>454</ele>
        <time>2022-09-28T13:41:59Z</time>
      </trkpt>
      <trkpt lat="46.61023" lon="6.52461">
        <ele>454</ele>
        <time>2022-09-28T13:42:00Z</time>
      </trkpt>
      <trkpt lat="46.61025" lon="6.52457">
        <ele>454</ele>
        <time>2022-09-28T13:42:01Z</time>
      </trkpt>
      <trkpt lat="46.61026" lon="6.52453">
        <ele>454</ele>
        <time>2022-09-28T13:42:02Z</time>
      </trkpt>
      <trkpt lat="46.61029" lon="6.52449">
        <ele>454</ele>
        <time>2022-09-28T13:42:03Z</time>
      </trkpt>
      <trkpt lat="46.61031" lon="6.52446">
        <ele>454</ele>
        <time>2022-09-28T13:42:04Z</time>
      </trkpt>
      <trkpt lat="46.61032" lon="6.52442">
        <ele>453.9</ele>
        <time>2022-09-28T13:42:05Z</time>
      </trkpt>
      <trkpt lat="46.61034" lon="6.52439">
        <ele>453.9</ele>
        <time>2022-09-28T13:42:06Z</time>
      </trkpt>
      <trkpt lat="46.61036" lon="6.52434">
        <ele>453.9</ele>
        <time>2022-09-28T13:42:07Z</time>
      </trkpt>
      <trkpt lat="46.61038" lon="6.52433">
        <ele>453.9</ele>
        <time>2022-09-28T13:42:08Z</time>
      </trkpt>
      <trkpt lat="46.6104" lon="6.52429">
        <ele>453.8</ele>
        <time>2022-09-28T13:42:09Z</time>
      </trkpt>
      <trkpt lat="46.61043" lon="6.52425">
        <ele>453.7</ele>
        <time>2022-09-28T13:42:10Z</time>
      </trkpt>
      <trkpt lat="46.61045" lon="6.5242">
        <ele>453.6</ele>
        <time>2022-09-28T13:42:11Z</time>
      </trkpt>
      <trkpt lat="46.61047" lon="6.52415">
        <ele>453.6</ele>
        <time>2022-09-28T13:42:12Z</time>
      </trkpt>
      <trkpt lat="46.6105" lon="6.52411">
        <ele>453.5</ele>
        <time>2022-09-28T13:42:13Z</time>
      </trkpt>
      <trkpt lat="46.61052" lon="6.52407">
        <ele>453.4</ele>
        <time>2022-09-28T13:42:14Z</time>
      </trkpt>
      <trkpt lat="46.61055" lon="6.52403">
        <ele>453.3</ele>
        <time>2022-09-28T13:42:15Z</time>
      </trkpt>
      <trkpt lat="46.61057" lon="6.52398">
        <ele>453.2</ele>
        <time>2022-09-28T13:42:16Z</time>
      </trkpt>
      <trkpt lat="46.6106" lon="6.52393">
        <ele>453.1</ele>
        <time>2022-09-28T13:42:17Z</time>
      </trkpt>
      <trkpt lat="46.61063" lon="6.52388">
        <ele>453.1</ele>
        <time>2022-09-28T13:42:18Z</time>
      </trkpt>
      <trkpt lat="46.61066" lon="6.52383">
        <ele>453</ele>
        <time>2022-09-28T13:42:19Z</time>
      </trkpt>
      <trkpt lat="46.61068" lon="6.52378">
        <ele>452.9</ele>
        <time>2022-09-28T13:42:20Z</time>
      </trkpt>
      <trkpt lat="46.61071" lon="6.52372">
        <ele>452.8</ele>
        <time>2022-09-28T13:42:21Z</time>
      </trkpt>
      <trkpt lat="46.61074" lon="6.52368">
        <ele>452.8</ele>
        <time>2022-09-28T13:42:22Z</time>
      </trkpt>
      <trkpt lat="46.61075" lon="6.52364">
        <ele>452.7</ele>
        <time>2022-09-28T13:42:23Z</time>
      </trkpt>
      <trkpt lat="46.61076" lon="6.52363">
        <ele>452.7</ele>
        <time>2022-09-28T13:42:24Z</time>
      </trkpt>
      <trkpt lat="46.61078" lon="6.52358">
        <ele>452.7</ele>
        <time>2022-09-28T13:42:25Z</time>
      </trkpt>
      <trkpt lat="46.61079" lon="6.52353">
        <ele>452.7</ele>
        <time>2022-09-28T13:42:26Z</time>
      </trkpt>
      <trkpt lat="46.61078" lon="6.52349">
        <ele>452.5</ele>
        <time>2022-09-28T13:42:27Z</time>
      </trkpt>
      <trkpt lat="46.61076" lon="6.52345">
        <ele>452.3</ele>
        <time>2022-09-28T13:42:28Z</time>
      </trkpt>
      <trkpt lat="46.61074" lon="6.52342">
        <ele>452.2</ele>
        <time>2022-09-28T13:42:29Z</time>
      </trkpt>
      <trkpt lat="46.61072" lon="6.52339">
        <ele>452</ele>
        <time>2022-09-28T13:42:30Z</time>
      </trkpt>
      <trkpt lat="46.61071" lon="6.52333">
        <ele>451.4</ele>
        <time>2022-09-28T13:42:31Z</time>
      </trkpt>
      <trkpt lat="46.6107" lon="6.52328">
        <ele>451.3</ele>
        <time>2022-09-28T13:42:32Z</time>
      </trkpt>
      <trkpt lat="46.6107" lon="6.52322">
        <ele>451.3</ele>
        <time>2022-09-28T13:42:33Z</time>
      </trkpt>
      <trkpt lat="46.61071" lon="6.52315">
        <ele>451.2</ele>
        <time>2022-09-28T13:42:34Z</time>
      </trkpt>
      <trkpt lat="46.61072" lon="6.52309">
        <ele>451.1</ele>
        <time>2022-09-28T13:42:35Z</time>
      </trkpt>
      <trkpt lat="46.61073" lon="6.52302">
        <ele>451</ele>
        <time>2022-09-28T13:42:36Z</time>
      </trkpt>
      <trkpt lat="46.61073" lon="6.52296">
        <ele>450.9</ele>
        <time>2022-09-28T13:42:37Z</time>
      </trkpt>
      <trkpt lat="46.61074" lon="6.5229">
        <ele>450.8</ele>
        <time>2022-09-28T13:42:38Z</time>
      </trkpt>
      <trkpt lat="46.61075" lon="6.52283">
        <ele>450.7</ele>
        <time>2022-09-28T13:42:39Z</time>
      </trkpt>
      <trkpt lat="46.61077" lon="6.52276">
        <ele>450.6</ele>
        <time>2022-09-28T13:42:40Z</time>
      </trkpt>
      <trkpt lat="46.61078" lon="6.5227">
        <ele>450.5</ele>
        <time>2022-09-28T13:42:41Z</time>
      </trkpt>
      <trkpt lat="46.61083" lon="6.52258">
        <ele>450.3</ele>
        <time>2022-09-28T13:42:42Z</time>
      </trkpt>
      <trkpt lat="46.61085" lon="6.52252">
        <ele>450.2</ele>
        <time>2022-09-28T13:42:43Z</time>
      </trkpt>
      <trkpt lat="46.61087" lon="6.52248">
        <ele>450.1</ele>
        <time>2022-09-28T13:42:44Z</time>
      </trkpt>
      <trkpt lat="46.61091" lon="6.52243">
        <ele>450</ele>
        <time>2022-09-28T13:42:45Z</time>
      </trkpt>
      <trkpt lat="46.61093" lon="6.52238">
        <ele>449.9</ele>
        <time>2022-09-28T13:42:46Z</time>
      </trkpt>
      <trkpt lat="46.61096" lon="6.52232">
        <ele>449.9</ele>
        <time>2022-09-28T13:42:47Z</time>
      </trkpt>
      <trkpt lat="46.61098" lon="6.52226">
        <ele>449.8</ele>
        <time>2022-09-28T13:42:48Z</time>
      </trkpt>
      <trkpt lat="46.611" lon="6.52221">
        <ele>449.8</ele>
        <time>2022-09-28T13:42:49Z</time>
      </trkpt>
      <trkpt lat="46.61103" lon="6.52215">
        <ele>449.7</ele>
        <time>2022-09-28T13:42:50Z</time>
      </trkpt>
      <trkpt lat="46.61106" lon="6.52211">
        <ele>449.7</ele>
        <time>2022-09-28T13:42:51Z</time>
      </trkpt>
      <trkpt lat="46.61108" lon="6.52205">
        <ele>449.6</ele>
        <time>2022-09-28T13:42:52Z</time>
      </trkpt>
      <trkpt lat="46.61111" lon="6.522">
        <ele>449.6</ele>
        <time>2022-09-28T13:42:53Z</time>
      </trkpt>
      <trkpt lat="46.61113" lon="6.52194">
        <ele>449.5</ele>
        <time>2022-09-28T13:42:54Z</time>
      </trkpt>
      <trkpt lat="46.61116" lon="6.52189">
        <ele>449.4</ele>
        <time>2022-09-28T13:42:55Z</time>
      </trkpt>
      <trkpt lat="46.61117" lon="6.52183">
        <ele>449.4</ele>
        <time>2022-09-28T13:42:56Z</time>
      </trkpt>
      <trkpt lat="46.61119" lon="6.52177">
        <ele>449.3</ele>
        <time>2022-09-28T13:42:57Z</time>
      </trkpt>
      <trkpt lat="46.61121" lon="6.5217">
        <ele>449.3</ele>
        <time>2022-09-28T13:42:58Z</time>
      </trkpt>
      <trkpt lat="46.61122" lon="6.52165">
        <ele>449.2</ele>
        <time>2022-09-28T13:42:59Z</time>
      </trkpt>
      <trkpt lat="46.61123" lon="6.52158">
        <ele>449.1</ele>
        <time>2022-09-28T13:43:00Z</time>
      </trkpt>
      <trkpt lat="46.61124" lon="6.52152">
        <ele>449</ele>
        <time>2022-09-28T13:43:01Z</time>
      </trkpt>
      <trkpt lat="46.61126" lon="6.52146">
        <ele>448.9</ele>
        <time>2022-09-28T13:43:02Z</time>
      </trkpt>
      <trkpt lat="46.61127" lon="6.52139">
        <ele>448.8</ele>
        <time>2022-09-28T13:43:04Z</time>
      </trkpt>
      <trkpt lat="46.6113" lon="6.52132">
        <ele>448.7</ele>
        <time>2022-09-28T13:43:05Z</time>
      </trkpt>
      <trkpt lat="46.61131" lon="6.52126">
        <ele>448.7</ele>
        <time>2022-09-28T13:43:06Z</time>
      </trkpt>
      <trkpt lat="46.61133" lon="6.5212">
        <ele>448.6</ele>
        <time>2022-09-28T13:43:07Z</time>
      </trkpt>
      <trkpt lat="46.61135" lon="6.52115">
        <ele>448.5</ele>
        <time>2022-09-28T13:43:08Z</time>
      </trkpt>
      <trkpt lat="46.61138" lon="6.52108">
        <ele>448.5</ele>
        <time>2022-09-28T13:43:09Z</time>
      </trkpt>
      <trkpt lat="46.6114" lon="6.52103">
        <ele>448.4</ele>
        <time>2022-09-28T13:43:10Z</time>
      </trkpt>
      <trkpt lat="46.61144" lon="6.52098">
        <ele>448.4</ele>
        <time>2022-09-28T13:43:11Z</time>
      </trkpt>
      <trkpt lat="46.61147" lon="6.52094">
        <ele>448.3</ele>
        <time>2022-09-28T13:43:12Z</time>
      </trkpt>
      <trkpt lat="46.6115" lon="6.52091">
        <ele>448.3</ele>
        <time>2022-09-28T13:43:13Z</time>
      </trkpt>
      <trkpt lat="46.61154" lon="6.52087">
        <ele>448.3</ele>
        <time>2022-09-28T13:43:14Z</time>
      </trkpt>
      <trkpt lat="46.61157" lon="6.52084">
        <ele>448.3</ele>
        <time>2022-09-28T13:43:15Z</time>
      </trkpt>
      <trkpt lat="46.61159" lon="6.52078">
        <ele>448.3</ele>
        <time>2022-09-28T13:43:16Z</time>
      </trkpt>
      <trkpt lat="46.61162" lon="6.52073">
        <ele>448.3</ele>
        <time>2022-09-28T13:43:17Z</time>
      </trkpt>
      <trkpt lat="46.61166" lon="6.5207">
        <ele>448.3</ele>
        <time>2022-09-28T13:43:18Z</time>
      </trkpt>
      <trkpt lat="46.6117" lon="6.52066">
        <ele>448.3</ele>
        <time>2022-09-28T13:43:19Z</time>
      </trkpt>
      <trkpt lat="46.61173" lon="6.52061">
        <ele>448.3</ele>
        <time>2022-09-28T13:43:20Z</time>
      </trkpt>
      <trkpt lat="46.61177" lon="6.52057">
        <ele>448.3</ele>
        <time>2022-09-28T13:43:21Z</time>
      </trkpt>
      <trkpt lat="46.6118" lon="6.52053">
        <ele>448.3</ele>
        <time>2022-09-28T13:43:22Z</time>
      </trkpt>
      <trkpt lat="46.61183" lon="6.52049">
        <ele>448.3</ele>
        <time>2022-09-28T13:43:23Z</time>
      </trkpt>
      <trkpt lat="46.61186" lon="6.52045">
        <ele>448.3</ele>
        <time>2022-09-28T13:43:24Z</time>
      </trkpt>
      <trkpt lat="46.61187" lon="6.52042">
        <ele>448.4</ele>
        <time>2022-09-28T13:43:25Z</time>
      </trkpt>
      <trkpt lat="46.6119" lon="6.52037">
        <ele>448.4</ele>
        <time>2022-09-28T13:43:26Z</time>
      </trkpt>
      <trkpt lat="46.61193" lon="6.52034">
        <ele>448.4</ele>
        <time>2022-09-28T13:43:27Z</time>
      </trkpt>
      <trkpt lat="46.61196" lon="6.5203">
        <ele>448.4</ele>
        <time>2022-09-28T13:43:28Z</time>
      </trkpt>
      <trkpt lat="46.61199" lon="6.52027">
        <ele>448.4</ele>
        <time>2022-09-28T13:43:29Z</time>
      </trkpt>
      <trkpt lat="46.61202" lon="6.52023">
        <ele>448.4</ele>
        <time>2022-09-28T13:43:30Z</time>
      </trkpt>
      <trkpt lat="46.61205" lon="6.5202">
        <ele>448.3</ele>
        <time>2022-09-28T13:43:31Z</time>
      </trkpt>
      <trkpt lat="46.61209" lon="6.52017">
        <ele>448.3</ele>
        <time>2022-09-28T13:43:32Z</time>
      </trkpt>
      <trkpt lat="46.61212" lon="6.52014">
        <ele>448.3</ele>
        <time>2022-09-28T13:43:33Z</time>
      </trkpt>
      <trkpt lat="46.61216" lon="6.52011">
        <ele>448.3</ele>
        <time>2022-09-28T13:43:34Z</time>
      </trkpt>
      <trkpt lat="46.61219" lon="6.52007">
        <ele>448.3</ele>
        <time>2022-09-28T13:43:35Z</time>
      </trkpt>
      <trkpt lat="46.61224" lon="6.52004">
        <ele>448.2</ele>
        <time>2022-09-28T13:43:36Z</time>
      </trkpt>
      <trkpt lat="46.61228" lon="6.52001">
        <ele>448.2</ele>
        <time>2022-09-28T13:43:37Z</time>
      </trkpt>
      <trkpt lat="46.61232" lon="6.51997">
        <ele>448.2</ele>
        <time>2022-09-28T13:43:38Z</time>
      </trkpt>
      <trkpt lat="46.61236" lon="6.51994">
        <ele>448.2</ele>
        <time>2022-09-28T13:43:39Z</time>
      </trkpt>
      <trkpt lat="46.61241" lon="6.5199">
        <ele>448.1</ele>
        <time>2022-09-28T13:43:40Z</time>
      </trkpt>
      <trkpt lat="46.61245" lon="6.51987">
        <ele>448.1</ele>
        <time>2022-09-28T13:43:41Z</time>
      </trkpt>
      <trkpt lat="46.6125" lon="6.51984">
        <ele>448.1</ele>
        <time>2022-09-28T13:43:42Z</time>
      </trkpt>
      <trkpt lat="46.61255" lon="6.5198">
        <ele>448.1</ele>
        <time>2022-09-28T13:43:43Z</time>
      </trkpt>
      <trkpt lat="46.61259" lon="6.51977">
        <ele>448.1</ele>
        <time>2022-09-28T13:43:44Z</time>
      </trkpt>
      <trkpt lat="46.61264" lon="6.51974">
        <ele>448.1</ele>
        <time>2022-09-28T13:43:45Z</time>
      </trkpt>
      <trkpt lat="46.61268" lon="6.5197">
        <ele>448</ele>
        <time>2022-09-28T13:43:46Z</time>
      </trkpt>
      <trkpt lat="46.61273" lon="6.51967">
        <ele>448</ele>
        <time>2022-09-28T13:43:47Z</time>
      </trkpt>
      <trkpt lat="46.61277" lon="6.51965">
        <ele>448</ele>
        <time>2022-09-28T13:43:48Z</time>
      </trkpt>
      <trkpt lat="46.61283" lon="6.51961">
        <ele>448</ele>
        <time>2022-09-28T13:43:49Z</time>
      </trkpt>
      <trkpt lat="46.61287" lon="6.51958">
        <ele>448</ele>
        <time>2022-09-28T13:43:50Z</time>
      </trkpt>
      <trkpt lat="46.61292" lon="6.51956">
        <ele>448</ele>
        <time>2022-09-28T13:43:51Z</time>
      </trkpt>
      <trkpt lat="46.61296" lon="6.51952">
        <ele>448</ele>
        <time>2022-09-28T13:43:52Z</time>
      </trkpt>
      <trkpt lat="46.61302" lon="6.51949">
        <ele>448.1</ele>
        <time>2022-09-28T13:43:53Z</time>
      </trkpt>
      <trkpt lat="46.61306" lon="6.51947">
        <ele>448.1</ele>
        <time>2022-09-28T13:43:54Z</time>
      </trkpt>
      <trkpt lat="46.61311" lon="6.51945">
        <ele>448.1</ele>
        <time>2022-09-28T13:43:55Z</time>
      </trkpt>
      <trkpt lat="46.61315" lon="6.51943">
        <ele>448.1</ele>
        <time>2022-09-28T13:43:56Z</time>
      </trkpt>
      <trkpt lat="46.61321" lon="6.51941">
        <ele>448.2</ele>
        <time>2022-09-28T13:43:57Z</time>
      </trkpt>
      <trkpt lat="46.61325" lon="6.51939">
        <ele>448.2</ele>
        <time>2022-09-28T13:43:58Z</time>
      </trkpt>
      <trkpt lat="46.6133" lon="6.51937">
        <ele>448.2</ele>
        <time>2022-09-28T13:43:59Z</time>
      </trkpt>
      <trkpt lat="46.61335" lon="6.51935">
        <ele>448.3</ele>
        <time>2022-09-28T13:44:00Z</time>
      </trkpt>
      <trkpt lat="46.6134" lon="6.51934">
        <ele>448.3</ele>
        <time>2022-09-28T13:44:01Z</time>
      </trkpt>
      <trkpt lat="46.61345" lon="6.51932">
        <ele>448.4</ele>
        <time>2022-09-28T13:44:02Z</time>
      </trkpt>
      <trkpt lat="46.6135" lon="6.51931">
        <ele>448.5</ele>
        <time>2022-09-28T13:44:03Z</time>
      </trkpt>
      <trkpt lat="46.61354" lon="6.51929">
        <ele>448.5</ele>
        <time>2022-09-28T13:44:04Z</time>
      </trkpt>
      <trkpt lat="46.61359" lon="6.51929">
        <ele>448.5</ele>
        <time>2022-09-28T13:44:05Z</time>
      </trkpt>
      <trkpt lat="46.61364" lon="6.51927">
        <ele>448.6</ele>
        <time>2022-09-28T13:44:06Z</time>
      </trkpt>
      <trkpt lat="46.61368" lon="6.51927">
        <ele>448.7</ele>
        <time>2022-09-28T13:44:07Z</time>
      </trkpt>
      <trkpt lat="46.61373" lon="6.51926">
        <ele>448.8</ele>
        <time>2022-09-28T13:44:08Z</time>
      </trkpt>
      <trkpt lat="46.61377" lon="6.51926">
        <ele>448.9</ele>
        <time>2022-09-28T13:44:09Z</time>
      </trkpt>
      <trkpt lat="46.61381" lon="6.51925">
        <ele>449</ele>
        <time>2022-09-28T13:44:10Z</time>
      </trkpt>
      <trkpt lat="46.61385" lon="6.51925">
        <ele>449.1</ele>
        <time>2022-09-28T13:44:11Z</time>
      </trkpt>
      <trkpt lat="46.61389" lon="6.51925">
        <ele>449.2</ele>
        <time>2022-09-28T13:44:12Z</time>
      </trkpt>
      <trkpt lat="46.61393" lon="6.51924">
        <ele>449.3</ele>
        <time>2022-09-28T13:44:13Z</time>
      </trkpt>
      <trkpt lat="46.61396" lon="6.51925">
        <ele>449.4</ele>
        <time>2022-09-28T13:44:14Z</time>
      </trkpt>
      <trkpt lat="46.614" lon="6.51925">
        <ele>449.5</ele>
        <time>2022-09-28T13:44:15Z</time>
      </trkpt>
      <trkpt lat="46.61404" lon="6.51925">
        <ele>449.6</ele>
        <time>2022-09-28T13:44:16Z</time>
      </trkpt>
      <trkpt lat="46.61407" lon="6.51925">
        <ele>449.7</ele>
        <time>2022-09-28T13:44:17Z</time>
      </trkpt>
      <trkpt lat="46.61411" lon="6.51925">
        <ele>449.8</ele>
        <time>2022-09-28T13:44:18Z</time>
      </trkpt>
      <trkpt lat="46.61414" lon="6.51924">
        <ele>449.9</ele>
        <time>2022-09-28T13:44:19Z</time>
      </trkpt>
      <trkpt lat="46.61417" lon="6.51924">
        <ele>450</ele>
        <time>2022-09-28T13:44:20Z</time>
      </trkpt>
      <trkpt lat="46.6142" lon="6.51925">
        <ele>450</ele>
        <time>2022-09-28T13:44:21Z</time>
      </trkpt>
      <trkpt lat="46.61424" lon="6.51924">
        <ele>450.1</ele>
        <time>2022-09-28T13:44:22Z</time>
      </trkpt>
      <trkpt lat="46.61427" lon="6.51924">
        <ele>450.2</ele>
        <time>2022-09-28T13:44:23Z</time>
      </trkpt>
      <trkpt lat="46.6143" lon="6.51924">
        <ele>450.3</ele>
        <time>2022-09-28T13:44:24Z</time>
      </trkpt>
      <trkpt lat="46.61433" lon="6.51924">
        <ele>450.4</ele>
        <time>2022-09-28T13:44:25Z</time>
      </trkpt>
      <trkpt lat="46.61436" lon="6.51924">
        <ele>450.5</ele>
        <time>2022-09-28T13:44:26Z</time>
      </trkpt>
      <trkpt lat="46.61439" lon="6.51924">
        <ele>450.5</ele>
        <time>2022-09-28T13:44:27Z</time>
      </trkpt>
      <trkpt lat="46.61442" lon="6.51924">
        <ele>450.6</ele>
        <time>2022-09-28T13:44:28Z</time>
      </trkpt>
      <trkpt lat="46.61445" lon="6.51924">
        <ele>450.7</ele>
        <time>2022-09-28T13:44:29Z</time>
      </trkpt>
      <trkpt lat="46.61448" lon="6.51924">
        <ele>450.7</ele>
        <time>2022-09-28T13:44:30Z</time>
      </trkpt>
      <trkpt lat="46.61451" lon="6.51924">
        <ele>450.8</ele>
        <time>2022-09-28T13:44:31Z</time>
      </trkpt>
      <trkpt lat="46.61455" lon="6.51924">
        <ele>450.8</ele>
        <time>2022-09-28T13:44:32Z</time>
      </trkpt>
      <trkpt lat="46.61456" lon="6.51924">
        <ele>450.9</ele>
        <time>2022-09-28T13:44:33Z</time>
      </trkpt>
      <trkpt lat="46.61459" lon="6.51924">
        <ele>450.9</ele>
        <time>2022-09-28T13:44:34Z</time>
      </trkpt>
      <trkpt lat="46.61462" lon="6.51924">
        <ele>451</ele>
        <time>2022-09-28T13:44:35Z</time>
      </trkpt>
      <trkpt lat="46.61465" lon="6.51924">
        <ele>451</ele>
        <time>2022-09-28T13:44:36Z</time>
      </trkpt>
      <trkpt lat="46.61468" lon="6.51924">
        <ele>451.1</ele>
        <time>2022-09-28T13:44:37Z</time>
      </trkpt>
      <trkpt lat="46.61471" lon="6.51925">
        <ele>451.1</ele>
        <time>2022-09-28T13:44:38Z</time>
      </trkpt>
      <trkpt lat="46.61475" lon="6.51924">
        <ele>451.2</ele>
        <time>2022-09-28T13:44:39Z</time>
      </trkpt>
      <trkpt lat="46.61481" lon="6.51924">
        <ele>451.3</ele>
        <time>2022-09-28T13:44:40Z</time>
      </trkpt>
      <trkpt lat="46.61484" lon="6.51924">
        <ele>451.3</ele>
        <time>2022-09-28T13:44:41Z</time>
      </trkpt>
      <trkpt lat="46.61487" lon="6.51923">
        <ele>451.4</ele>
        <time>2022-09-28T13:44:42Z</time>
      </trkpt>
      <trkpt lat="46.6149" lon="6.51923">
        <ele>451.4</ele>
        <time>2022-09-28T13:44:43Z</time>
      </trkpt>
      <trkpt lat="46.61494" lon="6.51924">
        <ele>451.5</ele>
        <time>2022-09-28T13:44:44Z</time>
      </trkpt>
      <trkpt lat="46.61497" lon="6.51924">
        <ele>451.5</ele>
        <time>2022-09-28T13:44:45Z</time>
      </trkpt>
      <trkpt lat="46.61501" lon="6.51924">
        <ele>451.6</ele>
        <time>2022-09-28T13:44:46Z</time>
      </trkpt>
      <trkpt lat="46.61504" lon="6.51924">
        <ele>451.6</ele>
        <time>2022-09-28T13:44:47Z</time>
      </trkpt>
      <trkpt lat="46.61508" lon="6.51924">
        <ele>451.6</ele>
        <time>2022-09-28T13:44:48Z</time>
      </trkpt>
      <trkpt lat="46.61511" lon="6.51924">
        <ele>451.7</ele>
        <time>2022-09-28T13:44:49Z</time>
      </trkpt>
      <trkpt lat="46.61514" lon="6.51926">
        <ele>451.7</ele>
        <time>2022-09-28T13:44:50Z</time>
      </trkpt>
      <trkpt lat="46.61518" lon="6.51926">
        <ele>451.8</ele>
        <time>2022-09-28T13:44:51Z</time>
      </trkpt>
      <trkpt lat="46.61521" lon="6.51928">
        <ele>451.8</ele>
        <time>2022-09-28T13:44:52Z</time>
      </trkpt>
      <trkpt lat="46.61525" lon="6.51929">
        <ele>451.8</ele>
        <time>2022-09-28T13:44:53Z</time>
      </trkpt>
      <trkpt lat="46.61527" lon="6.5193">
        <ele>451.8</ele>
        <time>2022-09-28T13:44:54Z</time>
      </trkpt>
      <trkpt lat="46.6153" lon="6.51931">
        <ele>451.9</ele>
        <time>2022-09-28T13:44:55Z</time>
      </trkpt>
      <trkpt lat="46.61533" lon="6.51933">
        <ele>451.9</ele>
        <time>2022-09-28T13:44:56Z</time>
      </trkpt>
      <trkpt lat="46.61536" lon="6.51935">
        <ele>451.9</ele>
        <time>2022-09-28T13:44:57Z</time>
      </trkpt>
      <trkpt lat="46.6154" lon="6.51938">
        <ele>451.9</ele>
        <time>2022-09-28T13:44:58Z</time>
      </trkpt>
      <trkpt lat="46.61542" lon="6.51939">
        <ele>452</ele>
        <time>2022-09-28T13:44:59Z</time>
      </trkpt>
      <trkpt lat="46.61544" lon="6.51941">
        <ele>452</ele>
        <time>2022-09-28T13:45:00Z</time>
      </trkpt>
      <trkpt lat="46.61547" lon="6.51942">
        <ele>452</ele>
        <time>2022-09-28T13:45:01Z</time>
      </trkpt>
      <trkpt lat="46.6155" lon="6.51944">
        <ele>451.9</ele>
        <time>2022-09-28T13:45:02Z</time>
      </trkpt>
      <trkpt lat="46.61551" lon="6.51944">
        <ele>451.9</ele>
        <time>2022-09-28T13:45:03Z</time>
      </trkpt>
      <trkpt lat="46.61554" lon="6.51945">
        <ele>451.9</ele>
        <time>2022-09-28T13:45:04Z</time>
      </trkpt>
      <trkpt lat="46.61555" lon="6.51946">
        <ele>451.9</ele>
        <time>2022-09-28T13:45:05Z</time>
      </trkpt>
      <trkpt lat="46.61555" lon="6.51947">
        <ele>451.9</ele>
        <time>2022-09-28T13:45:06Z</time>
      </trkpt>
      <trkpt lat="46.61556" lon="6.51947">
        <ele>451.9</ele>
        <time>2022-09-28T13:45:07Z</time>
      </trkpt>
      <trkpt lat="46.61556" lon="6.51947">
        <ele>451.9</ele>
        <time>2022-09-28T13:45:08Z</time>
      </trkpt>
      <trkpt lat="46.61556" lon="6.51947">
        <ele>451.9</ele>
        <time>2022-09-28T13:45:10Z</time>
      </trkpt>
      <trkpt lat="46.61557" lon="6.51947">
        <ele>451.9</ele>
        <time>2022-09-28T13:45:11Z</time>
      </trkpt>
      <trkpt lat="46.61557" lon="6.51947">
        <ele>451.9</ele>
        <time>2022-09-28T13:45:12Z</time>
      </trkpt>
      <trkpt lat="46.61557" lon="6.51948">
        <ele>451.9</ele>
        <time>2022-09-28T13:45:13Z</time>
      </trkpt>
      <trkpt lat="46.61558" lon="6.51948">
        <ele>451.9</ele>
        <time>2022-09-28T13:45:14Z</time>
      </trkpt>
      <trkpt lat="46.61558" lon="6.51948">
        <ele>451.9</ele>
        <time>2022-09-28T13:45:15Z</time>
      </trkpt>
      <trkpt lat="46.61559" lon="6.51948">
        <ele>451.9</ele>
        <time>2022-09-28T13:45:16Z</time>
      </trkpt>
      <trkpt lat="46.61562" lon="6.51949">
        <ele>451.8</ele>
        <time>2022-09-28T13:45:17Z</time>
      </trkpt>
      <trkpt lat="46.61563" lon="6.5195">
        <ele>451.8</ele>
        <time>2022-09-28T13:45:18Z</time>
      </trkpt>
      <trkpt lat="46.61566" lon="6.51952">
        <ele>451.8</ele>
        <time>2022-09-28T13:45:19Z</time>
      </trkpt>
      <trkpt lat="46.61569" lon="6.51954">
        <ele>451.8</ele>
        <time>2022-09-28T13:45:20Z</time>
      </trkpt>
      <trkpt lat="46.61572" lon="6.51956">
        <ele>451.7</ele>
        <time>2022-09-28T13:45:21Z</time>
      </trkpt>
      <trkpt lat="46.61576" lon="6.51958">
        <ele>451.7</ele>
        <time>2022-09-28T13:45:22Z</time>
      </trkpt>
      <trkpt lat="46.61579" lon="6.5196">
        <ele>451.7</ele>
        <time>2022-09-28T13:45:23Z</time>
      </trkpt>
      <trkpt lat="46.61582" lon="6.51962">
        <ele>451.7</ele>
        <time>2022-09-28T13:45:24Z</time>
      </trkpt>
      <trkpt lat="46.61586" lon="6.51964">
        <ele>451.7</ele>
        <time>2022-09-28T13:45:25Z</time>
      </trkpt>
      <trkpt lat="46.61589" lon="6.51966">
        <ele>451.7</ele>
        <time>2022-09-28T13:45:26Z</time>
      </trkpt>
      <trkpt lat="46.61592" lon="6.51968">
        <ele>451.7</ele>
        <time>2022-09-28T13:45:27Z</time>
      </trkpt>
      <trkpt lat="46.61595" lon="6.51971">
        <ele>451.6</ele>
        <time>2022-09-28T13:45:28Z</time>
      </trkpt>
      <trkpt lat="46.61599" lon="6.51973">
        <ele>451.6</ele>
        <time>2022-09-28T13:45:29Z</time>
      </trkpt>
      <trkpt lat="46.61603" lon="6.51975">
        <ele>451.6</ele>
        <time>2022-09-28T13:45:30Z</time>
      </trkpt>
      <trkpt lat="46.61607" lon="6.51977">
        <ele>451.6</ele>
        <time>2022-09-28T13:45:31Z</time>
      </trkpt>
      <trkpt lat="46.6161" lon="6.5198">
        <ele>451.6</ele>
        <time>2022-09-28T13:45:32Z</time>
      </trkpt>
      <trkpt lat="46.61614" lon="6.51982">
        <ele>451.6</ele>
        <time>2022-09-28T13:45:33Z</time>
      </trkpt>
      <trkpt lat="46.61618" lon="6.51984">
        <ele>451.6</ele>
        <time>2022-09-28T13:45:34Z</time>
      </trkpt>
      <trkpt lat="46.61622" lon="6.51987">
        <ele>451.6</ele>
        <time>2022-09-28T13:45:35Z</time>
      </trkpt>
      <trkpt lat="46.61626" lon="6.51989">
        <ele>451.6</ele>
        <time>2022-09-28T13:45:36Z</time>
      </trkpt>
      <trkpt lat="46.61631" lon="6.51991">
        <ele>451.6</ele>
        <time>2022-09-28T13:45:37Z</time>
      </trkpt>
      <trkpt lat="46.61635" lon="6.51993">
        <ele>451.6</ele>
        <time>2022-09-28T13:45:38Z</time>
      </trkpt>
      <trkpt lat="46.61639" lon="6.51995">
        <ele>451.6</ele>
        <time>2022-09-28T13:45:39Z</time>
      </trkpt>
      <trkpt lat="46.61644" lon="6.51998">
        <ele>451.6</ele>
        <time>2022-09-28T13:45:40Z</time>
      </trkpt>
      <trkpt lat="46.61649" lon="6.52">
        <ele>451.6</ele>
        <time>2022-09-28T13:45:41Z</time>
      </trkpt>
      <trkpt lat="46.61653" lon="6.52002">
        <ele>451.6</ele>
        <time>2022-09-28T13:45:42Z</time>
      </trkpt>
      <trkpt lat="46.61658" lon="6.52005">
        <ele>451.6</ele>
        <time>2022-09-28T13:45:43Z</time>
      </trkpt>
      <trkpt lat="46.61662" lon="6.52007">
        <ele>451.6</ele>
        <time>2022-09-28T13:45:44Z</time>
      </trkpt>
      <trkpt lat="46.61666" lon="6.5201">
        <ele>451.6</ele>
        <time>2022-09-28T13:45:45Z</time>
      </trkpt>
      <trkpt lat="46.6167" lon="6.52012">
        <ele>451.6</ele>
        <time>2022-09-28T13:45:46Z</time>
      </trkpt>
      <trkpt lat="46.61673" lon="6.52015">
        <ele>451.6</ele>
        <time>2022-09-28T13:45:47Z</time>
      </trkpt>
      <trkpt lat="46.61677" lon="6.52018">
        <ele>451.6</ele>
        <time>2022-09-28T13:45:48Z</time>
      </trkpt>
      <trkpt lat="46.61681" lon="6.5202">
        <ele>451.6</ele>
        <time>2022-09-28T13:45:49Z</time>
      </trkpt>
      <trkpt lat="46.61685" lon="6.52023">
        <ele>451.6</ele>
        <time>2022-09-28T13:45:50Z</time>
      </trkpt>
      <trkpt lat="46.61689" lon="6.52026">
        <ele>451.6</ele>
        <time>2022-09-28T13:45:51Z</time>
      </trkpt>
      <trkpt lat="46.61691" lon="6.52029">
        <ele>451.6</ele>
        <time>2022-09-28T13:45:52Z</time>
      </trkpt>
      <trkpt lat="46.61694" lon="6.52032">
        <ele>451.6</ele>
        <time>2022-09-28T13:45:53Z</time>
      </trkpt>
      <trkpt lat="46.61698" lon="6.52036">
        <ele>451.6</ele>
        <time>2022-09-28T13:45:54Z</time>
      </trkpt>
      <trkpt lat="46.617" lon="6.52039">
        <ele>451.6</ele>
        <time>2022-09-28T13:45:55Z</time>
      </trkpt>
      <trkpt lat="46.61703" lon="6.52043">
        <ele>451.6</ele>
        <time>2022-09-28T13:45:56Z</time>
      </trkpt>
      <trkpt lat="46.61706" lon="6.52048">
        <ele>451.6</ele>
        <time>2022-09-28T13:45:57Z</time>
      </trkpt>
      <trkpt lat="46.61708" lon="6.52052">
        <ele>451.6</ele>
        <time>2022-09-28T13:45:58Z</time>
      </trkpt>
      <trkpt lat="46.61711" lon="6.52056">
        <ele>451.6</ele>
        <time>2022-09-28T13:45:59Z</time>
      </trkpt>
      <trkpt lat="46.61715" lon="6.5206">
        <ele>451.6</ele>
        <time>2022-09-28T13:46:00Z</time>
      </trkpt>
      <trkpt lat="46.61717" lon="6.52065">
        <ele>451.6</ele>
        <time>2022-09-28T13:46:01Z</time>
      </trkpt>
      <trkpt lat="46.6172" lon="6.52068">
        <ele>451.6</ele>
        <time>2022-09-28T13:46:02Z</time>
      </trkpt>
      <trkpt lat="46.61723" lon="6.52072">
        <ele>451.5</ele>
        <time>2022-09-28T13:46:03Z</time>
      </trkpt>
      <trkpt lat="46.61726" lon="6.52077">
        <ele>451.5</ele>
        <time>2022-09-28T13:46:04Z</time>
      </trkpt>
      <trkpt lat="46.61729" lon="6.52083">
        <ele>451.5</ele>
        <time>2022-09-28T13:46:05Z</time>
      </trkpt>
      <trkpt lat="46.61732" lon="6.52087">
        <ele>451.5</ele>
        <time>2022-09-28T13:46:06Z</time>
      </trkpt>
      <trkpt lat="46.61735" lon="6.52092">
        <ele>451.4</ele>
        <time>2022-09-28T13:46:07Z</time>
      </trkpt>
      <trkpt lat="46.61738" lon="6.52097">
        <ele>451.4</ele>
        <time>2022-09-28T13:46:08Z</time>
      </trkpt>
      <trkpt lat="46.61741" lon="6.52101">
        <ele>451.4</ele>
        <time>2022-09-28T13:46:09Z</time>
      </trkpt>
      <trkpt lat="46.61744" lon="6.52104">
        <ele>451.3</ele>
        <time>2022-09-28T13:46:10Z</time>
      </trkpt>
      <trkpt lat="46.61747" lon="6.52109">
        <ele>451.3</ele>
        <time>2022-09-28T13:46:11Z</time>
      </trkpt>
      <trkpt lat="46.61749" lon="6.52114">
        <ele>451.3</ele>
        <time>2022-09-28T13:46:12Z</time>
      </trkpt>
      <trkpt lat="46.61752" lon="6.52118">
        <ele>451.3</ele>
        <time>2022-09-28T13:46:13Z</time>
      </trkpt>
      <trkpt lat="46.61755" lon="6.52123">
        <ele>451.3</ele>
        <time>2022-09-28T13:46:14Z</time>
      </trkpt>
      <trkpt lat="46.61758" lon="6.52129">
        <ele>451.3</ele>
        <time>2022-09-28T13:46:15Z</time>
      </trkpt>
      <trkpt lat="46.6176" lon="6.52134">
        <ele>451.3</ele>
        <time>2022-09-28T13:46:16Z</time>
      </trkpt>
      <trkpt lat="46.61767" lon="6.52144">
        <ele>451.2</ele>
        <time>2022-09-28T13:46:17Z</time>
      </trkpt>
      <trkpt lat="46.6177" lon="6.5215">
        <ele>451.2</ele>
        <time>2022-09-28T13:46:18Z</time>
      </trkpt>
      <trkpt lat="46.61774" lon="6.52156">
        <ele>451.2</ele>
        <time>2022-09-28T13:46:19Z</time>
      </trkpt>
      <trkpt lat="46.61777" lon="6.52161">
        <ele>451.1</ele>
        <time>2022-09-28T13:46:20Z</time>
      </trkpt>
      <trkpt lat="46.61781" lon="6.52167">
        <ele>451.1</ele>
        <time>2022-09-28T13:46:21Z</time>
      </trkpt>
      <trkpt lat="46.61783" lon="6.52172">
        <ele>451.1</ele>
        <time>2022-09-28T13:46:22Z</time>
      </trkpt>
      <trkpt lat="46.61785" lon="6.52177">
        <ele>451.1</ele>
        <time>2022-09-28T13:46:23Z</time>
      </trkpt>
      <trkpt lat="46.61789" lon="6.52184">
        <ele>451</ele>
        <time>2022-09-28T13:46:24Z</time>
      </trkpt>
      <trkpt lat="46.61792" lon="6.52189">
        <ele>451</ele>
        <time>2022-09-28T13:46:25Z</time>
      </trkpt>
      <trkpt lat="46.61795" lon="6.52196">
        <ele>451</ele>
        <time>2022-09-28T13:46:26Z</time>
      </trkpt>
      <trkpt lat="46.61797" lon="6.52201">
        <ele>450.9</ele>
        <time>2022-09-28T13:46:27Z</time>
      </trkpt>
      <trkpt lat="46.618" lon="6.52207">
        <ele>450.9</ele>
        <time>2022-09-28T13:46:28Z</time>
      </trkpt>
      <trkpt lat="46.61803" lon="6.52212">
        <ele>450.9</ele>
        <time>2022-09-28T13:46:29Z</time>
      </trkpt>
      <trkpt lat="46.61806" lon="6.52218">
        <ele>450.9</ele>
        <time>2022-09-28T13:46:30Z</time>
      </trkpt>
      <trkpt lat="46.61808" lon="6.52223">
        <ele>450.9</ele>
        <time>2022-09-28T13:46:31Z</time>
      </trkpt>
      <trkpt lat="46.6181" lon="6.52228">
        <ele>450.9</ele>
        <time>2022-09-28T13:46:32Z</time>
      </trkpt>
      <trkpt lat="46.61813" lon="6.52232">
        <ele>450.9</ele>
        <time>2022-09-28T13:46:33Z</time>
      </trkpt>
      <trkpt lat="46.61816" lon="6.52237">
        <ele>450.9</ele>
        <time>2022-09-28T13:46:34Z</time>
      </trkpt>
      <trkpt lat="46.61819" lon="6.52242">
        <ele>450.8</ele>
        <time>2022-09-28T13:46:35Z</time>
      </trkpt>
      <trkpt lat="46.6182" lon="6.52248">
        <ele>450.8</ele>
        <time>2022-09-28T13:46:36Z</time>
      </trkpt>
      <trkpt lat="46.61823" lon="6.52253">
        <ele>450.8</ele>
        <time>2022-09-28T13:46:37Z</time>
      </trkpt>
      <trkpt lat="46.61826" lon="6.52257">
        <ele>450.8</ele>
        <time>2022-09-28T13:46:38Z</time>
      </trkpt>
      <trkpt lat="46.61829" lon="6.52263">
        <ele>450.8</ele>
        <time>2022-09-28T13:46:39Z</time>
      </trkpt>
      <trkpt lat="46.6183" lon="6.52267">
        <ele>450.8</ele>
        <time>2022-09-28T13:46:40Z</time>
      </trkpt>
      <trkpt lat="46.61832" lon="6.52273">
        <ele>450.7</ele>
        <time>2022-09-28T13:46:41Z</time>
      </trkpt>
      <trkpt lat="46.61834" lon="6.5228">
        <ele>450.7</ele>
        <time>2022-09-28T13:46:42Z</time>
      </trkpt>
      <trkpt lat="46.61837" lon="6.52286">
        <ele>450.6</ele>
        <time>2022-09-28T13:46:43Z</time>
      </trkpt>
      <trkpt lat="46.61839" lon="6.52292">
        <ele>450.6</ele>
        <time>2022-09-28T13:46:44Z</time>
      </trkpt>
      <trkpt lat="46.61842" lon="6.52298">
        <ele>450.5</ele>
        <time>2022-09-28T13:46:45Z</time>
      </trkpt>
      <trkpt lat="46.61844" lon="6.52306">
        <ele>450.5</ele>
        <time>2022-09-28T13:46:46Z</time>
      </trkpt>
      <trkpt lat="46.61846" lon="6.52312">
        <ele>450.4</ele>
        <time>2022-09-28T13:46:47Z</time>
      </trkpt>
      <trkpt lat="46.61849" lon="6.52317">
        <ele>450.4</ele>
        <time>2022-09-28T13:46:48Z</time>
      </trkpt>
      <trkpt lat="46.61851" lon="6.52323">
        <ele>450.4</ele>
        <time>2022-09-28T13:46:49Z</time>
      </trkpt>
      <trkpt lat="46.61852" lon="6.52329">
        <ele>450.3</ele>
        <time>2022-09-28T13:46:50Z</time>
      </trkpt>
      <trkpt lat="46.61856" lon="6.52336">
        <ele>450.3</ele>
        <time>2022-09-28T13:46:51Z</time>
      </trkpt>
      <trkpt lat="46.61859" lon="6.52342">
        <ele>450.3</ele>
        <time>2022-09-28T13:46:52Z</time>
      </trkpt>
      <trkpt lat="46.61861" lon="6.52349">
        <ele>450.3</ele>
        <time>2022-09-28T13:46:53Z</time>
      </trkpt>
      <trkpt lat="46.61864" lon="6.52355">
        <ele>450.3</ele>
        <time>2022-09-28T13:46:54Z</time>
      </trkpt>
      <trkpt lat="46.61867" lon="6.5236">
        <ele>450.3</ele>
        <time>2022-09-28T13:46:55Z</time>
      </trkpt>
      <trkpt lat="46.6187" lon="6.52366">
        <ele>450.3</ele>
        <time>2022-09-28T13:46:56Z</time>
      </trkpt>
      <trkpt lat="46.61874" lon="6.52373">
        <ele>450.3</ele>
        <time>2022-09-28T13:46:57Z</time>
      </trkpt>
      <trkpt lat="46.61878" lon="6.52379">
        <ele>450.3</ele>
        <time>2022-09-28T13:46:58Z</time>
      </trkpt>
      <trkpt lat="46.61881" lon="6.52385">
        <ele>450.2</ele>
        <time>2022-09-28T13:46:59Z</time>
      </trkpt>
      <trkpt lat="46.61884" lon="6.52392">
        <ele>450.2</ele>
        <time>2022-09-28T13:47:00Z</time>
      </trkpt>
      <trkpt lat="46.61888" lon="6.52398">
        <ele>450.2</ele>
        <time>2022-09-28T13:47:01Z</time>
      </trkpt>
      <trkpt lat="46.6189" lon="6.52404">
        <ele>450.2</ele>
        <time>2022-09-28T13:47:02Z</time>
      </trkpt>
      <trkpt lat="46.61893" lon="6.5241">
        <ele>450.1</ele>
        <time>2022-09-28T13:47:03Z</time>
      </trkpt>
      <trkpt lat="46.61896" lon="6.52415">
        <ele>450.1</ele>
        <time>2022-09-28T13:47:04Z</time>
      </trkpt>
      <trkpt lat="46.61899" lon="6.52421">
        <ele>450.1</ele>
        <time>2022-09-28T13:47:05Z</time>
      </trkpt>
      <trkpt lat="46.61902" lon="6.52427">
        <ele>450.1</ele>
        <time>2022-09-28T13:47:06Z</time>
      </trkpt>
      <trkpt lat="46.61904" lon="6.52432">
        <ele>450.1</ele>
        <time>2022-09-28T13:47:07Z</time>
      </trkpt>
      <trkpt lat="46.61907" lon="6.52438">
        <ele>450</ele>
        <time>2022-09-28T13:47:08Z</time>
      </trkpt>
      <trkpt lat="46.6191" lon="6.52444">
        <ele>450</ele>
        <time>2022-09-28T13:47:09Z</time>
      </trkpt>
      <trkpt lat="46.61913" lon="6.5245">
        <ele>450</ele>
        <time>2022-09-28T13:47:10Z</time>
      </trkpt>
      <trkpt lat="46.61916" lon="6.52456">
        <ele>450</ele>
        <time>2022-09-28T13:47:11Z</time>
      </trkpt>
      <trkpt lat="46.6192" lon="6.52462">
        <ele>450</ele>
        <time>2022-09-28T13:47:12Z</time>
      </trkpt>
      <trkpt lat="46.61923" lon="6.52468">
        <ele>449.9</ele>
        <time>2022-09-28T13:47:13Z</time>
      </trkpt>
      <trkpt lat="46.61925" lon="6.52474">
        <ele>449.9</ele>
        <time>2022-09-28T13:47:14Z</time>
      </trkpt>
      <trkpt lat="46.61929" lon="6.5248">
        <ele>449.9</ele>
        <time>2022-09-28T13:47:15Z</time>
      </trkpt>
      <trkpt lat="46.61932" lon="6.52486">
        <ele>449.8</ele>
        <time>2022-09-28T13:47:16Z</time>
      </trkpt>
      <trkpt lat="46.61935" lon="6.52493">
        <ele>449.8</ele>
        <time>2022-09-28T13:47:17Z</time>
      </trkpt>
      <trkpt lat="46.61939" lon="6.52499">
        <ele>449.8</ele>
        <time>2022-09-28T13:47:18Z</time>
      </trkpt>
      <trkpt lat="46.61942" lon="6.52504">
        <ele>449.8</ele>
        <time>2022-09-28T13:47:19Z</time>
      </trkpt>
      <trkpt lat="46.61945" lon="6.52511">
        <ele>449.8</ele>
        <time>2022-09-28T13:47:20Z</time>
      </trkpt>
      <trkpt lat="46.61949" lon="6.52517">
        <ele>449.7</ele>
        <time>2022-09-28T13:47:21Z</time>
      </trkpt>
      <trkpt lat="46.61952" lon="6.52523">
        <ele>449.7</ele>
        <time>2022-09-28T13:47:22Z</time>
      </trkpt>
      <trkpt lat="46.61955" lon="6.5253">
        <ele>449.7</ele>
        <time>2022-09-28T13:47:23Z</time>
      </trkpt>
      <trkpt lat="46.61959" lon="6.52536">
        <ele>449.7</ele>
        <time>2022-09-28T13:47:24Z</time>
      </trkpt>
      <trkpt lat="46.61962" lon="6.52543">
        <ele>449.6</ele>
        <time>2022-09-28T13:47:25Z</time>
      </trkpt>
      <trkpt lat="46.61965" lon="6.52549">
        <ele>449.6</ele>
        <time>2022-09-28T13:47:26Z</time>
      </trkpt>
      <trkpt lat="46.61968" lon="6.52555">
        <ele>449.6</ele>
        <time>2022-09-28T13:47:27Z</time>
      </trkpt>
      <trkpt lat="46.61972" lon="6.52561">
        <ele>449.6</ele>
        <time>2022-09-28T13:47:28Z</time>
      </trkpt>
      <trkpt lat="46.61975" lon="6.52567">
        <ele>449.6</ele>
        <time>2022-09-28T13:47:29Z</time>
      </trkpt>
      <trkpt lat="46.61978" lon="6.52573">
        <ele>449.6</ele>
        <time>2022-09-28T13:47:30Z</time>
      </trkpt>
      <trkpt lat="46.61981" lon="6.52579">
        <ele>449.6</ele>
        <time>2022-09-28T13:47:31Z</time>
      </trkpt>
      <trkpt lat="46.61985" lon="6.52585">
        <ele>449.5</ele>
        <time>2022-09-28T13:47:32Z</time>
      </trkpt>
      <trkpt lat="46.61988" lon="6.52591">
        <ele>449.5</ele>
        <time>2022-09-28T13:47:33Z</time>
      </trkpt>
      <trkpt lat="46.61991" lon="6.52596">
        <ele>449.5</ele>
        <time>2022-09-28T13:47:34Z</time>
      </trkpt>
      <trkpt lat="46.61994" lon="6.52602">
        <ele>449.5</ele>
        <time>2022-09-28T13:47:35Z</time>
      </trkpt>
      <trkpt lat="46.61998" lon="6.52607">
        <ele>449.5</ele>
        <time>2022-09-28T13:47:36Z</time>
      </trkpt>
      <trkpt lat="46.62001" lon="6.52613">
        <ele>449.4</ele>
        <time>2022-09-28T13:47:37Z</time>
      </trkpt>
      <trkpt lat="46.62003" lon="6.52619">
        <ele>449.4</ele>
        <time>2022-09-28T13:47:38Z</time>
      </trkpt>
      <trkpt lat="46.62007" lon="6.52625">
        <ele>449.4</ele>
        <time>2022-09-28T13:47:39Z</time>
      </trkpt>
      <trkpt lat="46.6201" lon="6.52631">
        <ele>449.4</ele>
        <time>2022-09-28T13:47:40Z</time>
      </trkpt>
      <trkpt lat="46.62013" lon="6.52636">
        <ele>449.4</ele>
        <time>2022-09-28T13:47:41Z</time>
      </trkpt>
      <trkpt lat="46.62016" lon="6.52641">
        <ele>449.3</ele>
        <time>2022-09-28T13:47:42Z</time>
      </trkpt>
      <trkpt lat="46.62019" lon="6.52648">
        <ele>449.3</ele>
        <time>2022-09-28T13:47:43Z</time>
      </trkpt>
      <trkpt lat="46.62023" lon="6.52654">
        <ele>449.3</ele>
        <time>2022-09-28T13:47:44Z</time>
      </trkpt>
      <trkpt lat="46.62026" lon="6.52658">
        <ele>449.3</ele>
        <time>2022-09-28T13:47:45Z</time>
      </trkpt>
      <trkpt lat="46.62029" lon="6.52665">
        <ele>449.3</ele>
        <time>2022-09-28T13:47:46Z</time>
      </trkpt>
      <trkpt lat="46.62032" lon="6.5267">
        <ele>449.3</ele>
        <time>2022-09-28T13:47:47Z</time>
      </trkpt>
      <trkpt lat="46.62036" lon="6.52676">
        <ele>449.3</ele>
        <time>2022-09-28T13:47:48Z</time>
      </trkpt>
      <trkpt lat="46.62039" lon="6.52682">
        <ele>449.4</ele>
        <time>2022-09-28T13:47:49Z</time>
      </trkpt>
      <trkpt lat="46.62042" lon="6.52688">
        <ele>449.4</ele>
        <time>2022-09-28T13:47:50Z</time>
      </trkpt>
      <trkpt lat="46.62045" lon="6.52694">
        <ele>449.4</ele>
        <time>2022-09-28T13:47:51Z</time>
      </trkpt>
      <trkpt lat="46.62048" lon="6.52699">
        <ele>449.4</ele>
        <time>2022-09-28T13:47:52Z</time>
      </trkpt>
      <trkpt lat="46.62051" lon="6.52705">
        <ele>449.4</ele>
        <time>2022-09-28T13:47:53Z</time>
      </trkpt>
      <trkpt lat="46.62054" lon="6.52711">
        <ele>449.5</ele>
        <time>2022-09-28T13:47:54Z</time>
      </trkpt>
      <trkpt lat="46.62057" lon="6.52717">
        <ele>449.5</ele>
        <time>2022-09-28T13:47:55Z</time>
      </trkpt>
      <trkpt lat="46.6206" lon="6.52723">
        <ele>449.6</ele>
        <time>2022-09-28T13:47:56Z</time>
      </trkpt>
      <trkpt lat="46.62064" lon="6.52729">
        <ele>449.6</ele>
        <time>2022-09-28T13:47:57Z</time>
      </trkpt>
      <trkpt lat="46.62067" lon="6.52735">
        <ele>449.7</ele>
        <time>2022-09-28T13:47:58Z</time>
      </trkpt>
      <trkpt lat="46.6207" lon="6.5274">
        <ele>449.7</ele>
        <time>2022-09-28T13:47:59Z</time>
      </trkpt>
      <trkpt lat="46.62073" lon="6.52746">
        <ele>449.8</ele>
        <time>2022-09-28T13:48:00Z</time>
      </trkpt>
      <trkpt lat="46.62077" lon="6.52751">
        <ele>449.8</ele>
        <time>2022-09-28T13:48:01Z</time>
      </trkpt>
      <trkpt lat="46.6208" lon="6.52757">
        <ele>449.9</ele>
        <time>2022-09-28T13:48:02Z</time>
      </trkpt>
      <trkpt lat="46.62083" lon="6.52763">
        <ele>449.9</ele>
        <time>2022-09-28T13:48:03Z</time>
      </trkpt>
      <trkpt lat="46.62086" lon="6.52768">
        <ele>450</ele>
        <time>2022-09-28T13:48:04Z</time>
      </trkpt>
      <trkpt lat="46.62089" lon="6.52774">
        <ele>450</ele>
        <time>2022-09-28T13:48:05Z</time>
      </trkpt>
      <trkpt lat="46.62092" lon="6.5278">
        <ele>450.1</ele>
        <time>2022-09-28T13:48:06Z</time>
      </trkpt>
      <trkpt lat="46.62095" lon="6.52785">
        <ele>450.2</ele>
        <time>2022-09-28T13:48:07Z</time>
      </trkpt>
      <trkpt lat="46.62098" lon="6.52791">
        <ele>450.3</ele>
        <time>2022-09-28T13:48:08Z</time>
      </trkpt>
      <trkpt lat="46.62101" lon="6.52795">
        <ele>450.3</ele>
        <time>2022-09-28T13:48:09Z</time>
      </trkpt>
      <trkpt lat="46.62103" lon="6.52801">
        <ele>450.4</ele>
        <time>2022-09-28T13:48:10Z</time>
      </trkpt>
      <trkpt lat="46.62107" lon="6.52806">
        <ele>450.5</ele>
        <time>2022-09-28T13:48:11Z</time>
      </trkpt>
      <trkpt lat="46.62109" lon="6.52811">
        <ele>450.5</ele>
        <time>2022-09-28T13:48:12Z</time>
      </trkpt>
      <trkpt lat="46.62112" lon="6.52816">
        <ele>450.6</ele>
        <time>2022-09-28T13:48:13Z</time>
      </trkpt>
      <trkpt lat="46.62115" lon="6.52821">
        <ele>450.7</ele>
        <time>2022-09-28T13:48:14Z</time>
      </trkpt>
      <trkpt lat="46.62118" lon="6.52826">
        <ele>450.7</ele>
        <time>2022-09-28T13:48:15Z</time>
      </trkpt>
      <trkpt lat="46.6212" lon="6.52831">
        <ele>450.8</ele>
        <time>2022-09-28T13:48:16Z</time>
      </trkpt>
      <trkpt lat="46.62123" lon="6.52836">
        <ele>450.8</ele>
        <time>2022-09-28T13:48:17Z</time>
      </trkpt>
      <trkpt lat="46.62125" lon="6.5284">
        <ele>450.8</ele>
        <time>2022-09-28T13:48:18Z</time>
      </trkpt>
      <trkpt lat="46.62128" lon="6.52845">
        <ele>450.8</ele>
        <time>2022-09-28T13:48:19Z</time>
      </trkpt>
      <trkpt lat="46.6213" lon="6.5285">
        <ele>450.9</ele>
        <time>2022-09-28T13:48:20Z</time>
      </trkpt>
      <trkpt lat="46.62133" lon="6.52855">
        <ele>450.9</ele>
        <time>2022-09-28T13:48:21Z</time>
      </trkpt>
      <trkpt lat="46.62135" lon="6.5286">
        <ele>451</ele>
        <time>2022-09-28T13:48:22Z</time>
      </trkpt>
      <trkpt lat="46.62138" lon="6.52864">
        <ele>451.1</ele>
        <time>2022-09-28T13:48:23Z</time>
      </trkpt>
      <trkpt lat="46.6214" lon="6.52869">
        <ele>451.1</ele>
        <time>2022-09-28T13:48:24Z</time>
      </trkpt>
      <trkpt lat="46.62143" lon="6.52874">
        <ele>451.2</ele>
        <time>2022-09-28T13:48:25Z</time>
      </trkpt>
      <trkpt lat="46.62145" lon="6.52878">
        <ele>451.2</ele>
        <time>2022-09-28T13:48:26Z</time>
      </trkpt>
      <trkpt lat="46.62148" lon="6.52883">
        <ele>451.3</ele>
        <time>2022-09-28T13:48:27Z</time>
      </trkpt>
      <trkpt lat="46.6215" lon="6.52887">
        <ele>451.4</ele>
        <time>2022-09-28T13:48:28Z</time>
      </trkpt>
      <trkpt lat="46.62153" lon="6.52892">
        <ele>451.4</ele>
        <time>2022-09-28T13:48:29Z</time>
      </trkpt>
      <trkpt lat="46.62156" lon="6.52897">
        <ele>451.4</ele>
        <time>2022-09-28T13:48:30Z</time>
      </trkpt>
      <trkpt lat="46.62158" lon="6.52901">
        <ele>451.5</ele>
        <time>2022-09-28T13:48:31Z</time>
      </trkpt>
      <trkpt lat="46.62161" lon="6.52906">
        <ele>451.5</ele>
        <time>2022-09-28T13:48:32Z</time>
      </trkpt>
      <trkpt lat="46.62163" lon="6.52911">
        <ele>451.6</ele>
        <time>2022-09-28T13:48:33Z</time>
      </trkpt>
      <trkpt lat="46.62166" lon="6.52915">
        <ele>451.6</ele>
        <time>2022-09-28T13:48:34Z</time>
      </trkpt>
      <trkpt lat="46.62168" lon="6.5292">
        <ele>451.7</ele>
        <time>2022-09-28T13:48:35Z</time>
      </trkpt>
      <trkpt lat="46.62171" lon="6.52924">
        <ele>451.7</ele>
        <time>2022-09-28T13:48:36Z</time>
      </trkpt>
      <trkpt lat="46.62173" lon="6.52928">
        <ele>451.8</ele>
        <time>2022-09-28T13:48:37Z</time>
      </trkpt>
      <trkpt lat="46.62175" lon="6.52933">
        <ele>451.9</ele>
        <time>2022-09-28T13:48:38Z</time>
      </trkpt>
      <trkpt lat="46.62178" lon="6.52937">
        <ele>451.9</ele>
        <time>2022-09-28T13:48:39Z</time>
      </trkpt>
      <trkpt lat="46.6218" lon="6.52942">
        <ele>452</ele>
        <time>2022-09-28T13:48:40Z</time>
      </trkpt>
      <trkpt lat="46.62183" lon="6.52946">
        <ele>452</ele>
        <time>2022-09-28T13:48:41Z</time>
      </trkpt>
      <trkpt lat="46.62185" lon="6.5295">
        <ele>452.1</ele>
        <time>2022-09-28T13:48:42Z</time>
      </trkpt>
      <trkpt lat="46.62187" lon="6.52954">
        <ele>452.1</ele>
        <time>2022-09-28T13:48:43Z</time>
      </trkpt>
      <trkpt lat="46.6219" lon="6.52958">
        <ele>452.2</ele>
        <time>2022-09-28T13:48:44Z</time>
      </trkpt>
      <trkpt lat="46.62192" lon="6.52963">
        <ele>452.2</ele>
        <time>2022-09-28T13:48:45Z</time>
      </trkpt>
      <trkpt lat="46.62194" lon="6.52966">
        <ele>452.3</ele>
        <time>2022-09-28T13:48:46Z</time>
      </trkpt>
      <trkpt lat="46.62196" lon="6.5297">
        <ele>452.3</ele>
        <time>2022-09-28T13:48:47Z</time>
      </trkpt>
      <trkpt lat="46.62198" lon="6.52974">
        <ele>452.4</ele>
        <time>2022-09-28T13:48:48Z</time>
      </trkpt>
      <trkpt lat="46.622" lon="6.52978">
        <ele>452.5</ele>
        <time>2022-09-28T13:48:49Z</time>
      </trkpt>
      <trkpt lat="46.62202" lon="6.52982">
        <ele>452.5</ele>
        <time>2022-09-28T13:48:50Z</time>
      </trkpt>
      <trkpt lat="46.62204" lon="6.52986">
        <ele>452.6</ele>
        <time>2022-09-28T13:48:51Z</time>
      </trkpt>
      <trkpt lat="46.62206" lon="6.52989">
        <ele>452.6</ele>
        <time>2022-09-28T13:48:52Z</time>
      </trkpt>
      <trkpt lat="46.62208" lon="6.52993">
        <ele>452.7</ele>
        <time>2022-09-28T13:48:53Z</time>
      </trkpt>
      <trkpt lat="46.6221" lon="6.52996">
        <ele>452.7</ele>
        <time>2022-09-28T13:48:54Z</time>
      </trkpt>
      <trkpt lat="46.62211" lon="6.52999">
        <ele>452.7</ele>
        <time>2022-09-28T13:48:55Z</time>
      </trkpt>
      <trkpt lat="46.62213" lon="6.53003">
        <ele>452.8</ele>
        <time>2022-09-28T13:48:56Z</time>
      </trkpt>
      <trkpt lat="46.62215" lon="6.53006">
        <ele>452.8</ele>
        <time>2022-09-28T13:48:57Z</time>
      </trkpt>
      <trkpt lat="46.62217" lon="6.5301">
        <ele>452.9</ele>
        <time>2022-09-28T13:48:58Z</time>
      </trkpt>
      <trkpt lat="46.62219" lon="6.53014">
        <ele>453</ele>
        <time>2022-09-28T13:48:59Z</time>
      </trkpt>
      <trkpt lat="46.6222" lon="6.53016">
        <ele>453</ele>
        <time>2022-09-28T13:49:00Z</time>
      </trkpt>
      <trkpt lat="46.62223" lon="6.5302">
        <ele>453</ele>
        <time>2022-09-28T13:49:01Z</time>
      </trkpt>
      <trkpt lat="46.62224" lon="6.53022">
        <ele>453.1</ele>
        <time>2022-09-28T13:49:02Z</time>
      </trkpt>
      <trkpt lat="46.62225" lon="6.53026">
        <ele>453.1</ele>
        <time>2022-09-28T13:49:03Z</time>
      </trkpt>
      <trkpt lat="46.62226" lon="6.53027">
        <ele>453.1</ele>
        <time>2022-09-28T13:49:04Z</time>
      </trkpt>
      <trkpt lat="46.62229" lon="6.53029">
        <ele>453.2</ele>
        <time>2022-09-28T13:49:05Z</time>
      </trkpt>
      <trkpt lat="46.6223" lon="6.53029">
        <ele>453.2</ele>
        <time>2022-09-28T13:49:06Z</time>
      </trkpt>
      <trkpt lat="46.62233" lon="6.53028">
        <ele>452.9</ele>
        <time>2022-09-28T13:49:07Z</time>
      </trkpt>
      <trkpt lat="46.62234" lon="6.53027">
        <ele>452.8</ele>
        <time>2022-09-28T13:49:08Z</time>
      </trkpt>
      <trkpt lat="46.62238" lon="6.53024">
        <ele>452.6</ele>
        <time>2022-09-28T13:49:09Z</time>
      </trkpt>
      <trkpt lat="46.62239" lon="6.53023">
        <ele>452.6</ele>
        <time>2022-09-28T13:49:10Z</time>
      </trkpt>
      <trkpt lat="46.62242" lon="6.5302">
        <ele>452.4</ele>
        <time>2022-09-28T13:49:11Z</time>
      </trkpt>
      <trkpt lat="46.62245" lon="6.53017">
        <ele>452.2</ele>
        <time>2022-09-28T13:49:12Z</time>
      </trkpt>
      <trkpt lat="46.62248" lon="6.53013">
        <ele>452</ele>
        <time>2022-09-28T13:49:13Z</time>
      </trkpt>
      <trkpt lat="46.62251" lon="6.53009">
        <ele>451.8</ele>
        <time>2022-09-28T13:49:14Z</time>
      </trkpt>
      <trkpt lat="46.62255" lon="6.53005">
        <ele>451.5</ele>
        <time>2022-09-28T13:49:15Z</time>
      </trkpt>
      <trkpt lat="46.62258" lon="6.53001">
        <ele>451.3</ele>
        <time>2022-09-28T13:49:16Z</time>
      </trkpt>
      <trkpt lat="46.62262" lon="6.52997">
        <ele>451.1</ele>
        <time>2022-09-28T13:49:17Z</time>
      </trkpt>
      <trkpt lat="46.62266" lon="6.52992">
        <ele>450.9</ele>
        <time>2022-09-28T13:49:18Z</time>
      </trkpt>
      <trkpt lat="46.62271" lon="6.52987">
        <ele>450.6</ele>
        <time>2022-09-28T13:49:19Z</time>
      </trkpt>
      <trkpt lat="46.62275" lon="6.52982">
        <ele>450.4</ele>
        <time>2022-09-28T13:49:20Z</time>
      </trkpt>
      <trkpt lat="46.62279" lon="6.52977">
        <ele>450.2</ele>
        <time>2022-09-28T13:49:21Z</time>
      </trkpt>
      <trkpt lat="46.62283" lon="6.52972">
        <ele>449.9</ele>
        <time>2022-09-28T13:49:22Z</time>
      </trkpt>
      <trkpt lat="46.62288" lon="6.52967">
        <ele>449.7</ele>
        <time>2022-09-28T13:49:23Z</time>
      </trkpt>
      <trkpt lat="46.62292" lon="6.52962">
        <ele>449.5</ele>
        <time>2022-09-28T13:49:24Z</time>
      </trkpt>
      <trkpt lat="46.62297" lon="6.52956">
        <ele>449.2</ele>
        <time>2022-09-28T13:49:25Z</time>
      </trkpt>
      <trkpt lat="46.62302" lon="6.52951">
        <ele>449</ele>
        <time>2022-09-28T13:49:26Z</time>
      </trkpt>
      <trkpt lat="46.62307" lon="6.52945">
        <ele>448.8</ele>
        <time>2022-09-28T13:49:27Z</time>
      </trkpt>
      <trkpt lat="46.62312" lon="6.5294">
        <ele>448.7</ele>
        <time>2022-09-28T13:49:28Z</time>
      </trkpt>
      <trkpt lat="46.62317" lon="6.52934">
        <ele>448.5</ele>
        <time>2022-09-28T13:49:29Z</time>
      </trkpt>
      <trkpt lat="46.62322" lon="6.52929">
        <ele>448.4</ele>
        <time>2022-09-28T13:49:30Z</time>
      </trkpt>
      <trkpt lat="46.62327" lon="6.52923">
        <ele>448.3</ele>
        <time>2022-09-28T13:49:31Z</time>
      </trkpt>
      <trkpt lat="46.62332" lon="6.52917">
        <ele>448.2</ele>
        <time>2022-09-28T13:49:32Z</time>
      </trkpt>
      <trkpt lat="46.62337" lon="6.52912">
        <ele>448.1</ele>
        <time>2022-09-28T13:49:33Z</time>
      </trkpt>
      <trkpt lat="46.62342" lon="6.52906">
        <ele>448.1</ele>
        <time>2022-09-28T13:49:34Z</time>
      </trkpt>
      <trkpt lat="46.62347" lon="6.529">
        <ele>448.1</ele>
        <time>2022-09-28T13:49:35Z</time>
      </trkpt>
      <trkpt lat="46.62351" lon="6.52895">
        <ele>448.1</ele>
        <time>2022-09-28T13:49:36Z</time>
      </trkpt>
      <trkpt lat="46.62356" lon="6.5289">
        <ele>448.1</ele>
        <time>2022-09-28T13:49:37Z</time>
      </trkpt>
      <trkpt lat="46.62361" lon="6.52884">
        <ele>448.1</ele>
        <time>2022-09-28T13:49:38Z</time>
      </trkpt>
      <trkpt lat="46.62366" lon="6.52879">
        <ele>448.1</ele>
        <time>2022-09-28T13:49:39Z</time>
      </trkpt>
      <trkpt lat="46.6237" lon="6.52873">
        <ele>448.1</ele>
        <time>2022-09-28T13:49:40Z</time>
      </trkpt>
      <trkpt lat="46.62375" lon="6.52868">
        <ele>448.1</ele>
        <time>2022-09-28T13:49:41Z</time>
      </trkpt>
      <trkpt lat="46.6238" lon="6.52863">
        <ele>448.1</ele>
        <time>2022-09-28T13:49:42Z</time>
      </trkpt>
      <trkpt lat="46.62384" lon="6.52858">
        <ele>448.2</ele>
        <time>2022-09-28T13:49:43Z</time>
      </trkpt>
      <trkpt lat="46.62389" lon="6.52852">
        <ele>448.2</ele>
        <time>2022-09-28T13:49:44Z</time>
      </trkpt>
      <trkpt lat="46.62393" lon="6.52847">
        <ele>448.3</ele>
        <time>2022-09-28T13:49:45Z</time>
      </trkpt>
      <trkpt lat="46.62397" lon="6.52843">
        <ele>448.4</ele>
        <time>2022-09-28T13:49:46Z</time>
      </trkpt>
      <trkpt lat="46.62401" lon="6.52838">
        <ele>448.3</ele>
        <time>2022-09-28T13:49:47Z</time>
      </trkpt>
      <trkpt lat="46.62405" lon="6.52834">
        <ele>448.3</ele>
        <time>2022-09-28T13:49:48Z</time>
      </trkpt>
      <trkpt lat="46.62409" lon="6.52829">
        <ele>448.3</ele>
        <time>2022-09-28T13:49:49Z</time>
      </trkpt>
      <trkpt lat="46.62412" lon="6.52826">
        <ele>448.2</ele>
        <time>2022-09-28T13:49:50Z</time>
      </trkpt>
      <trkpt lat="46.62416" lon="6.52822">
        <ele>448.2</ele>
        <time>2022-09-28T13:49:51Z</time>
      </trkpt>
      <trkpt lat="46.62419" lon="6.52818">
        <ele>448.2</ele>
        <time>2022-09-28T13:49:52Z</time>
      </trkpt>
      <trkpt lat="46.62423" lon="6.52814">
        <ele>448.1</ele>
        <time>2022-09-28T13:49:53Z</time>
      </trkpt>
      <trkpt lat="46.62426" lon="6.52811">
        <ele>448.1</ele>
        <time>2022-09-28T13:49:54Z</time>
      </trkpt>
      <trkpt lat="46.62429" lon="6.52807">
        <ele>448</ele>
        <time>2022-09-28T13:49:55Z</time>
      </trkpt>
      <trkpt lat="46.62432" lon="6.52804">
        <ele>448</ele>
        <time>2022-09-28T13:49:56Z</time>
      </trkpt>
      <trkpt lat="46.62435" lon="6.528">
        <ele>447.9</ele>
        <time>2022-09-28T13:49:57Z</time>
      </trkpt>
      <trkpt lat="46.62438" lon="6.52797">
        <ele>447.8</ele>
        <time>2022-09-28T13:49:58Z</time>
      </trkpt>
      <trkpt lat="46.62442" lon="6.52793">
        <ele>447.6</ele>
        <time>2022-09-28T13:49:59Z</time>
      </trkpt>
      <trkpt lat="46.62445" lon="6.52788">
        <ele>447.4</ele>
        <time>2022-09-28T13:50:00Z</time>
      </trkpt>
      <trkpt lat="46.62449" lon="6.52784">
        <ele>447.2</ele>
        <time>2022-09-28T13:50:01Z</time>
      </trkpt>
      <trkpt lat="46.62453" lon="6.52779">
        <ele>447</ele>
        <time>2022-09-28T13:50:02Z</time>
      </trkpt>
      <trkpt lat="46.62457" lon="6.52774">
        <ele>446.7</ele>
        <time>2022-09-28T13:50:03Z</time>
      </trkpt>
      <trkpt lat="46.62462" lon="6.52769">
        <ele>446.4</ele>
        <time>2022-09-28T13:50:04Z</time>
      </trkpt>
      <trkpt lat="46.62467" lon="6.52764">
        <ele>446.1</ele>
        <time>2022-09-28T13:50:05Z</time>
      </trkpt>
      <trkpt lat="46.62472" lon="6.52758">
        <ele>445.7</ele>
        <time>2022-09-28T13:50:06Z</time>
      </trkpt>
      <trkpt lat="46.62477" lon="6.52752">
        <ele>445.3</ele>
        <time>2022-09-28T13:50:07Z</time>
      </trkpt>
      <trkpt lat="46.62483" lon="6.52746">
        <ele>444.8</ele>
        <time>2022-09-28T13:50:08Z</time>
      </trkpt>
      <trkpt lat="46.62488" lon="6.5274">
        <ele>444.4</ele>
        <time>2022-09-28T13:50:09Z</time>
      </trkpt>
      <trkpt lat="46.62494" lon="6.52734">
        <ele>444</ele>
        <time>2022-09-28T13:50:10Z</time>
      </trkpt>
      <trkpt lat="46.62499" lon="6.52727">
        <ele>443.5</ele>
        <time>2022-09-28T13:50:11Z</time>
      </trkpt>
      <trkpt lat="46.62505" lon="6.52721">
        <ele>443.1</ele>
        <time>2022-09-28T13:50:12Z</time>
      </trkpt>
      <trkpt lat="46.62511" lon="6.52714">
        <ele>442.6</ele>
        <time>2022-09-28T13:50:13Z</time>
      </trkpt>
      <trkpt lat="46.62516" lon="6.52708">
        <ele>442.2</ele>
        <time>2022-09-28T13:50:14Z</time>
      </trkpt>
      <trkpt lat="46.62522" lon="6.52701">
        <ele>441.8</ele>
        <time>2022-09-28T13:50:15Z</time>
      </trkpt>
      <trkpt lat="46.62527" lon="6.52695">
        <ele>441.4</ele>
        <time>2022-09-28T13:50:16Z</time>
      </trkpt>
      <trkpt lat="46.62533" lon="6.52689">
        <ele>441.1</ele>
        <time>2022-09-28T13:50:17Z</time>
      </trkpt>
      <trkpt lat="46.62538" lon="6.52683">
        <ele>440.8</ele>
        <time>2022-09-28T13:50:18Z</time>
      </trkpt>
      <trkpt lat="46.62543" lon="6.52677">
        <ele>440.5</ele>
        <time>2022-09-28T13:50:19Z</time>
      </trkpt>
      <trkpt lat="46.62549" lon="6.52671">
        <ele>440.3</ele>
        <time>2022-09-28T13:50:20Z</time>
      </trkpt>
      <trkpt lat="46.62554" lon="6.52665">
        <ele>440.2</ele>
        <time>2022-09-28T13:50:21Z</time>
      </trkpt>
      <trkpt lat="46.62558" lon="6.5266">
        <ele>440</ele>
        <time>2022-09-28T13:50:22Z</time>
      </trkpt>
      <trkpt lat="46.62563" lon="6.52655">
        <ele>439.9</ele>
        <time>2022-09-28T13:50:23Z</time>
      </trkpt>
      <trkpt lat="46.62568" lon="6.52649">
        <ele>439.8</ele>
        <time>2022-09-28T13:50:24Z</time>
      </trkpt>
      <trkpt lat="46.62572" lon="6.52644">
        <ele>439.8</ele>
        <time>2022-09-28T13:50:25Z</time>
      </trkpt>
      <trkpt lat="46.62576" lon="6.52639">
        <ele>439.8</ele>
        <time>2022-09-28T13:50:26Z</time>
      </trkpt>
      <trkpt lat="46.62581" lon="6.52634">
        <ele>439.8</ele>
        <time>2022-09-28T13:50:27Z</time>
      </trkpt>
      <trkpt lat="46.62585" lon="6.52629">
        <ele>439.8</ele>
        <time>2022-09-28T13:50:28Z</time>
      </trkpt>
      <trkpt lat="46.62589" lon="6.52624">
        <ele>439.8</ele>
        <time>2022-09-28T13:50:29Z</time>
      </trkpt>
      <trkpt lat="46.62594" lon="6.5262">
        <ele>439.9</ele>
        <time>2022-09-28T13:50:30Z</time>
      </trkpt>
      <trkpt lat="46.62598" lon="6.52615">
        <ele>439.9</ele>
        <time>2022-09-28T13:50:31Z</time>
      </trkpt>
      <trkpt lat="46.62602" lon="6.5261">
        <ele>439.9</ele>
        <time>2022-09-28T13:50:32Z</time>
      </trkpt>
      <trkpt lat="46.62606" lon="6.52606">
        <ele>440</ele>
        <time>2022-09-28T13:50:33Z</time>
      </trkpt>
      <trkpt lat="46.62609" lon="6.52601">
        <ele>440</ele>
        <time>2022-09-28T13:50:34Z</time>
      </trkpt>
      <trkpt lat="46.62612" lon="6.52597">
        <ele>440</ele>
        <time>2022-09-28T13:50:35Z</time>
      </trkpt>
      <trkpt lat="46.62615" lon="6.52593">
        <ele>440.1</ele>
        <time>2022-09-28T13:50:36Z</time>
      </trkpt>
      <trkpt lat="46.62619" lon="6.52589">
        <ele>440</ele>
        <time>2022-09-28T13:50:37Z</time>
      </trkpt>
      <trkpt lat="46.62622" lon="6.52586">
        <ele>440</ele>
        <time>2022-09-28T13:50:38Z</time>
      </trkpt>
      <trkpt lat="46.62624" lon="6.52583">
        <ele>440</ele>
        <time>2022-09-28T13:50:39Z</time>
      </trkpt>
      <trkpt lat="46.62627" lon="6.5258">
        <ele>440</ele>
        <time>2022-09-28T13:50:40Z</time>
      </trkpt>
      <trkpt lat="46.6263" lon="6.52577">
        <ele>440</ele>
        <time>2022-09-28T13:50:41Z</time>
      </trkpt>
      <trkpt lat="46.62631" lon="6.52576">
        <ele>440.1</ele>
        <time>2022-09-28T13:50:42Z</time>
      </trkpt>
      <trkpt lat="46.62632" lon="6.52575">
        <ele>440.1</ele>
        <time>2022-09-28T13:50:43Z</time>
      </trkpt>
      <trkpt lat="46.62634" lon="6.52576">
        <ele>440.1</ele>
        <time>2022-09-28T13:50:44Z</time>
      </trkpt>
      <trkpt lat="46.62636" lon="6.52577">
        <ele>440.2</ele>
        <time>2022-09-28T13:50:45Z</time>
      </trkpt>
      <trkpt lat="46.62637" lon="6.52577">
        <ele>440.2</ele>
        <time>2022-09-28T13:50:46Z</time>
      </trkpt>
      <trkpt lat="46.62639" lon="6.52581">
        <ele>440.3</ele>
        <time>2022-09-28T13:50:47Z</time>
      </trkpt>
      <trkpt lat="46.6264" lon="6.52582">
        <ele>440.4</ele>
        <time>2022-09-28T13:50:48Z</time>
      </trkpt>
      <trkpt lat="46.62642" lon="6.52586">
        <ele>440.5</ele>
        <time>2022-09-28T13:50:49Z</time>
      </trkpt>
      <trkpt lat="46.62642" lon="6.52588">
        <ele>440.5</ele>
        <time>2022-09-28T13:50:50Z</time>
      </trkpt>
      <trkpt lat="46.62645" lon="6.52593">
        <ele>440.6</ele>
        <time>2022-09-28T13:50:51Z</time>
      </trkpt>
      <trkpt lat="46.62645" lon="6.52594">
        <ele>440.6</ele>
        <time>2022-09-28T13:50:52Z</time>
      </trkpt>
      <trkpt lat="46.62649" lon="6.526">
        <ele>440.8</ele>
        <time>2022-09-28T13:50:53Z</time>
      </trkpt>
      <trkpt lat="46.6265" lon="6.52602">
        <ele>440.8</ele>
        <time>2022-09-28T13:50:54Z</time>
      </trkpt>
      <trkpt lat="46.62651" lon="6.52603">
        <ele>440.9</ele>
        <time>2022-09-28T13:50:55Z</time>
      </trkpt>
      <trkpt lat="46.62653" lon="6.52607">
        <ele>441</ele>
        <time>2022-09-28T13:50:56Z</time>
      </trkpt>
      <trkpt lat="46.62654" lon="6.52609">
        <ele>440.9</ele>
        <time>2022-09-28T13:50:57Z</time>
      </trkpt>
      <trkpt lat="46.62656" lon="6.52612">
        <ele>440.9</ele>
        <time>2022-09-28T13:50:58Z</time>
      </trkpt>
      <trkpt lat="46.62657" lon="6.52613">
        <ele>440.9</ele>
        <time>2022-09-28T13:50:59Z</time>
      </trkpt>
      <trkpt lat="46.62656" lon="6.5261">
        <ele>440.9</ele>
        <time>2022-09-28T13:51:00Z</time>
      </trkpt>
      <trkpt lat="46.62655" lon="6.52606">
        <ele>440.8</ele>
        <time>2022-09-28T13:51:01Z</time>
      </trkpt>
      <trkpt lat="46.62653" lon="6.52601">
        <ele>440.8</ele>
        <time>2022-09-28T13:51:02Z</time>
      </trkpt>
      <trkpt lat="46.62652" lon="6.52597">
        <ele>440.7</ele>
        <time>2022-09-28T13:51:03Z</time>
      </trkpt>
      <trkpt lat="46.6265" lon="6.52593">
        <ele>440.7</ele>
        <time>2022-09-28T13:51:04Z</time>
      </trkpt>
      <trkpt lat="46.62649" lon="6.52588">
        <ele>440.7</ele>
        <time>2022-09-28T13:51:05Z</time>
      </trkpt>
      <trkpt lat="46.62647" lon="6.52584">
        <ele>440.5</ele>
        <time>2022-09-28T13:51:06Z</time>
      </trkpt>
      <trkpt lat="46.62646" lon="6.5258">
        <ele>440.4</ele>
        <time>2022-09-28T13:51:07Z</time>
      </trkpt>
      <trkpt lat="46.62644" lon="6.52575">
        <ele>440.3</ele>
        <time>2022-09-28T13:51:08Z</time>
      </trkpt>
      <trkpt lat="46.62643" lon="6.52571">
        <ele>440.2</ele>
        <time>2022-09-28T13:51:09Z</time>
      </trkpt>
      <trkpt lat="46.62641" lon="6.52567">
        <ele>440.1</ele>
        <time>2022-09-28T13:51:10Z</time>
      </trkpt>
      <trkpt lat="46.6264" lon="6.52562">
        <ele>440</ele>
        <time>2022-09-28T14:00:31Z</time>
      </trkpt>
      <trkpt lat="46.62638" lon="6.52558">
        <ele>440</ele>
        <time>2022-09-28T14:00:32Z</time>
      </trkpt>
      <trkpt lat="46.6264" lon="6.52554">
        <ele>440</ele>
        <time>2022-09-28T14:00:33Z</time>
      </trkpt>
      <trkpt lat="46.6264" lon="6.52552">
        <ele>440</ele>
        <time>2022-09-28T14:00:34Z</time>
      </trkpt>
      <trkpt lat="46.62642" lon="6.52546">
        <ele>440</ele>
        <time>2022-09-28T14:00:35Z</time>
      </trkpt>
      <trkpt lat="46.62642" lon="6.52545">
        <ele>440</ele>
        <time>2022-09-28T14:00:36Z</time>
      </trkpt>
      <trkpt lat="46.62643" lon="6.52539">
        <ele>440</ele>
        <time>2022-09-28T14:00:37Z</time>
      </trkpt>
      <trkpt lat="46.62644" lon="6.52537">
        <ele>440.1</ele>
        <time>2022-09-28T14:00:38Z</time>
      </trkpt>
      <trkpt lat="46.62644" lon="6.52531">
        <ele>440.2</ele>
        <time>2022-09-28T14:00:39Z</time>
      </trkpt>
      <trkpt lat="46.62644" lon="6.52529">
        <ele>440.3</ele>
        <time>2022-09-28T14:00:40Z</time>
      </trkpt>
      <trkpt lat="46.62644" lon="6.52524">
        <ele>440.4</ele>
        <time>2022-09-28T14:00:41Z</time>
      </trkpt>
      <trkpt lat="46.62644" lon="6.5252">
        <ele>440.5</ele>
        <time>2022-09-28T14:00:42Z</time>
      </trkpt>
      <trkpt lat="46.62644" lon="6.52515">
        <ele>440.7</ele>
        <time>2022-09-28T14:00:43Z</time>
      </trkpt>
      <trkpt lat="46.62644" lon="6.52513">
        <ele>440.7</ele>
        <time>2022-09-28T14:00:44Z</time>
      </trkpt>
      <trkpt lat="46.62643" lon="6.52508">
        <ele>440.9</ele>
        <time>2022-09-28T14:00:45Z</time>
      </trkpt>
      <trkpt lat="46.62643" lon="6.52506">
        <ele>441</ele>
        <time>2022-09-28T14:00:46Z</time>
      </trkpt>
      <trkpt lat="46.62642" lon="6.52501">
        <ele>441.1</ele>
        <time>2022-09-28T14:00:47Z</time>
      </trkpt>
      <trkpt lat="46.62642" lon="6.52499">
        <ele>441.2</ele>
        <time>2022-09-28T14:00:48Z</time>
      </trkpt>
      <trkpt lat="46.6264" lon="6.52494">
        <ele>441.4</ele>
        <time>2022-09-28T14:00:49Z</time>
      </trkpt>
      <trkpt lat="46.6264" lon="6.52492">
        <ele>441.5</ele>
        <time>2022-09-28T14:00:50Z</time>
      </trkpt>
      <trkpt lat="46.62639" lon="6.52488">
        <ele>441.7</ele>
        <time>2022-09-28T14:00:51Z</time>
      </trkpt>
      <trkpt lat="46.62638" lon="6.52484">
        <ele>441.8</ele>
        <time>2022-09-28T14:00:52Z</time>
      </trkpt>
      <trkpt lat="46.62637" lon="6.52479">
        <ele>442</ele>
        <time>2022-09-28T14:00:53Z</time>
      </trkpt>
      <trkpt lat="46.62636" lon="6.52477">
        <ele>442.1</ele>
        <time>2022-09-28T14:00:54Z</time>
      </trkpt>
      <trkpt lat="46.62635" lon="6.52471">
        <ele>442.4</ele>
        <time>2022-09-28T14:00:55Z</time>
      </trkpt>
      <trkpt lat="46.62634" lon="6.5247">
        <ele>442.4</ele>
        <time>2022-09-28T14:00:56Z</time>
      </trkpt>
      <trkpt lat="46.62633" lon="6.52465">
        <ele>442.6</ele>
        <time>2022-09-28T14:00:57Z</time>
      </trkpt>
      <trkpt lat="46.62632" lon="6.5246">
        <ele>442.9</ele>
        <time>2022-09-28T14:00:58Z</time>
      </trkpt>
      <trkpt lat="46.62631" lon="6.52458">
        <ele>443</ele>
        <time>2022-09-28T14:00:59Z</time>
      </trkpt>
      <trkpt lat="46.62629" lon="6.52453">
        <ele>443.2</ele>
        <time>2022-09-28T14:01:00Z</time>
      </trkpt>
      <trkpt lat="46.62629" lon="6.52451">
        <ele>443.3</ele>
        <time>2022-09-28T14:01:01Z</time>
      </trkpt>
      <trkpt lat="46.62627" lon="6.52447">
        <ele>443.5</ele>
        <time>2022-09-28T14:01:02Z</time>
      </trkpt>
      <trkpt lat="46.62627" lon="6.52445">
        <ele>443.6</ele>
        <time>2022-09-28T14:01:03Z</time>
      </trkpt>
      <trkpt lat="46.62625" lon="6.52441">
        <ele>443.8</ele>
        <time>2022-09-28T14:01:04Z</time>
      </trkpt>
      <trkpt lat="46.62625" lon="6.5244">
        <ele>443.9</ele>
        <time>2022-09-28T14:01:05Z</time>
      </trkpt>
      <trkpt lat="46.62622" lon="6.52436">
        <ele>444.1</ele>
        <time>2022-09-28T14:01:06Z</time>
      </trkpt>
      <trkpt lat="46.62622" lon="6.52435">
        <ele>444.2</ele>
        <time>2022-09-28T14:01:07Z</time>
      </trkpt>
      <trkpt lat="46.6262" lon="6.5243">
        <ele>444.4</ele>
        <time>2022-09-28T14:01:08Z</time>
      </trkpt>
      <trkpt lat="46.62619" lon="6.52428">
        <ele>444.5</ele>
        <time>2022-09-28T14:01:09Z</time>
      </trkpt>
      <trkpt lat="46.62617" lon="6.52424">
        <ele>444.8</ele>
        <time>2022-09-28T14:01:10Z</time>
      </trkpt>
      <trkpt lat="46.62617" lon="6.52423">
        <ele>444.8</ele>
        <time>2022-09-28T14:01:11Z</time>
      </trkpt>
      <trkpt lat="46.62615" lon="6.52418">
        <ele>445.1</ele>
        <time>2022-09-28T14:01:12Z</time>
      </trkpt>
      <trkpt lat="46.62615" lon="6.52417">
        <ele>445.1</ele>
        <time>2022-09-28T14:01:13Z</time>
      </trkpt>
      <trkpt lat="46.62613" lon="6.52413">
        <ele>445.4</ele>
        <time>2022-09-28T14:01:14Z</time>
      </trkpt>
      <trkpt lat="46.62612" lon="6.52411">
        <ele>445.4</ele>
        <time>2022-09-28T14:01:15Z</time>
      </trkpt>
      <trkpt lat="46.6261" lon="6.52407">
        <ele>445.7</ele>
        <time>2022-09-28T14:01:16Z</time>
      </trkpt>
      <trkpt lat="46.62609" lon="6.52406">
        <ele>445.7</ele>
        <time>2022-09-28T14:01:17Z</time>
      </trkpt>
      <trkpt lat="46.62607" lon="6.52402">
        <ele>446</ele>
        <time>2022-09-28T14:01:18Z</time>
      </trkpt>
      <trkpt lat="46.62606" lon="6.52401">
        <ele>446.1</ele>
        <time>2022-09-28T14:01:19Z</time>
      </trkpt>
      <trkpt lat="46.62604" lon="6.52397">
        <ele>446.3</ele>
        <time>2022-09-28T14:01:20Z</time>
      </trkpt>
      <trkpt lat="46.62604" lon="6.52396">
        <ele>446.4</ele>
        <time>2022-09-28T14:01:21Z</time>
      </trkpt>
      <trkpt lat="46.62601" lon="6.52392">
        <ele>446.6</ele>
        <time>2022-09-28T14:01:22Z</time>
      </trkpt>
      <trkpt lat="46.62601" lon="6.52391">
        <ele>446.7</ele>
        <time>2022-09-28T14:01:23Z</time>
      </trkpt>
      <trkpt lat="46.62599" lon="6.52387">
        <ele>446.9</ele>
        <time>2022-09-28T14:01:24Z</time>
      </trkpt>
      <trkpt lat="46.62598" lon="6.52386">
        <ele>447</ele>
        <time>2022-09-28T14:01:25Z</time>
      </trkpt>
      <trkpt lat="46.62596" lon="6.52382">
        <ele>447.2</ele>
        <time>2022-09-28T14:01:26Z</time>
      </trkpt>
      <trkpt lat="46.62595" lon="6.52381">
        <ele>447.3</ele>
        <time>2022-09-28T14:01:27Z</time>
      </trkpt>
      <trkpt lat="46.62593" lon="6.52377">
        <ele>447.5</ele>
        <time>2022-09-28T14:01:28Z</time>
      </trkpt>
      <trkpt lat="46.62592" lon="6.52376">
        <ele>447.6</ele>
        <time>2022-09-28T14:01:29Z</time>
      </trkpt>
      <trkpt lat="46.6259" lon="6.52372">
        <ele>447.8</ele>
        <time>2022-09-28T14:01:30Z</time>
      </trkpt>
      <trkpt lat="46.62589" lon="6.52371">
        <ele>447.9</ele>
        <time>2022-09-28T14:01:31Z</time>
      </trkpt>
      <trkpt lat="46.62587" lon="6.52368">
        <ele>448.1</ele>
        <time>2022-09-28T14:01:32Z</time>
      </trkpt>
      <trkpt lat="46.62586" lon="6.52366">
        <ele>448.2</ele>
        <time>2022-09-28T14:01:33Z</time>
      </trkpt>
      <trkpt lat="46.62584" lon="6.52363">
        <ele>448.4</ele>
        <time>2022-09-28T14:01:34Z</time>
      </trkpt>
      <trkpt lat="46.62584" lon="6.52362">
        <ele>448.5</ele>
        <time>2022-09-28T14:01:35Z</time>
      </trkpt>
      <trkpt lat="46.62582" lon="6.52359">
        <ele>448.7</ele>
        <time>2022-09-28T14:01:36Z</time>
      </trkpt>
      <trkpt lat="46.62581" lon="6.52358">
        <ele>448.7</ele>
        <time>2022-09-28T14:01:37Z</time>
      </trkpt>
      <trkpt lat="46.62579" lon="6.52354">
        <ele>448.9</ele>
        <time>2022-09-28T14:01:38Z</time>
      </trkpt>
      <trkpt lat="46.62578" lon="6.52353">
        <ele>449</ele>
        <time>2022-09-28T14:01:39Z</time>
      </trkpt>
      <trkpt lat="46.62577" lon="6.52351">
        <ele>449.1</ele>
        <time>2022-09-28T14:01:40Z</time>
      </trkpt>
      <trkpt lat="46.62576" lon="6.5235">
        <ele>449.3</ele>
        <time>2022-09-28T14:01:41Z</time>
      </trkpt>
      <trkpt lat="46.62573" lon="6.52347">
        <ele>449.5</ele>
        <time>2022-09-28T14:01:42Z</time>
      </trkpt>
      <trkpt lat="46.62573" lon="6.52346">
        <ele>449.6</ele>
        <time>2022-09-28T14:01:43Z</time>
      </trkpt>
      <trkpt lat="46.62571" lon="6.52342">
        <ele>449.8</ele>
        <time>2022-09-28T14:01:44Z</time>
      </trkpt>
      <trkpt lat="46.62571" lon="6.52341">
        <ele>449.9</ele>
        <time>2022-09-28T14:01:45Z</time>
      </trkpt>
      <trkpt lat="46.62569" lon="6.52337">
        <ele>450.2</ele>
        <time>2022-09-28T14:01:46Z</time>
      </trkpt>
      <trkpt lat="46.62568" lon="6.52336">
        <ele>450.3</ele>
        <time>2022-09-28T14:01:47Z</time>
      </trkpt>
      <trkpt lat="46.62566" lon="6.52333">
        <ele>450.5</ele>
        <time>2022-09-28T14:01:48Z</time>
      </trkpt>
      <trkpt lat="46.62566" lon="6.52332">
        <ele>450.6</ele>
        <time>2022-09-28T14:01:49Z</time>
      </trkpt>
      <trkpt lat="46.62563" lon="6.52329">
        <ele>450.8</ele>
        <time>2022-09-28T14:01:50Z</time>
      </trkpt>
      <trkpt lat="46.62563" lon="6.52328">
        <ele>450.9</ele>
        <time>2022-09-28T14:01:51Z</time>
      </trkpt>
      <trkpt lat="46.62561" lon="6.52325">
        <ele>451.2</ele>
        <time>2022-09-28T14:01:52Z</time>
      </trkpt>
      <trkpt lat="46.6256" lon="6.52324">
        <ele>451.3</ele>
        <time>2022-09-28T14:01:53Z</time>
      </trkpt>
      <trkpt lat="46.62558" lon="6.52321">
        <ele>451.5</ele>
        <time>2022-09-28T14:01:54Z</time>
      </trkpt>
      <trkpt lat="46.62558" lon="6.5232">
        <ele>451.6</ele>
        <time>2022-09-28T14:01:55Z</time>
      </trkpt>
      <trkpt lat="46.62556" lon="6.52316">
        <ele>451.9</ele>
        <time>2022-09-28T14:01:56Z</time>
      </trkpt>
      <trkpt lat="46.62555" lon="6.52315">
        <ele>452</ele>
        <time>2022-09-28T14:01:57Z</time>
      </trkpt>
      <trkpt lat="46.62554" lon="6.52311">
        <ele>452.2</ele>
        <time>2022-09-28T14:01:58Z</time>
      </trkpt>
      <trkpt lat="46.62553" lon="6.5231">
        <ele>452.3</ele>
        <time>2022-09-28T14:01:59Z</time>
      </trkpt>
      <trkpt lat="46.62552" lon="6.52306">
        <ele>452.6</ele>
        <time>2022-09-28T14:02:00Z</time>
      </trkpt>
      <trkpt lat="46.62552" lon="6.52304">
        <ele>452.7</ele>
        <time>2022-09-28T14:02:01Z</time>
      </trkpt>
      <trkpt lat="46.62551" lon="6.523">
        <ele>453</ele>
        <time>2022-09-28T14:02:02Z</time>
      </trkpt>
      <trkpt lat="46.6255" lon="6.52299">
        <ele>453.1</ele>
        <time>2022-09-28T14:02:03Z</time>
      </trkpt>
      <trkpt lat="46.6255" lon="6.52296">
        <ele>453.3</ele>
        <time>2022-09-28T14:02:04Z</time>
      </trkpt>
      <trkpt lat="46.6255" lon="6.52294">
        <ele>453.4</ele>
        <time>2022-09-28T14:02:05Z</time>
      </trkpt>
      <trkpt lat="46.6255" lon="6.5229">
        <ele>453.7</ele>
        <time>2022-09-28T14:02:06Z</time>
      </trkpt>
      <trkpt lat="46.6255" lon="6.52288">
        <ele>453.8</ele>
        <time>2022-09-28T14:02:07Z</time>
      </trkpt>
      <trkpt lat="46.6255" lon="6.52287">
        <ele>453.9</ele>
        <time>2022-09-28T14:02:08Z</time>
      </trkpt>
      <trkpt lat="46.62551" lon="6.52285">
        <ele>454</ele>
        <time>2022-09-28T14:02:09Z</time>
      </trkpt>
      <trkpt lat="46.62551" lon="6.52282">
        <ele>454.2</ele>
        <time>2022-09-28T14:02:10Z</time>
      </trkpt>
      <trkpt lat="46.62552" lon="6.52279">
        <ele>454.4</ele>
        <time>2022-09-28T14:02:11Z</time>
      </trkpt>
      <trkpt lat="46.62553" lon="6.52277">
        <ele>454.5</ele>
        <time>2022-09-28T14:02:12Z</time>
      </trkpt>
      <trkpt lat="46.62554" lon="6.52274">
        <ele>454.8</ele>
        <time>2022-09-28T14:02:13Z</time>
      </trkpt>
      <trkpt lat="46.62555" lon="6.52273">
        <ele>454.9</ele>
        <time>2022-09-28T14:02:14Z</time>
      </trkpt>
      <trkpt lat="46.62556" lon="6.5227">
        <ele>455.1</ele>
        <time>2022-09-28T14:02:15Z</time>
      </trkpt>
      <trkpt lat="46.62558" lon="6.52267">
        <ele>455.3</ele>
        <time>2022-09-28T14:02:16Z</time>
      </trkpt>
      <trkpt lat="46.62559" lon="6.52266">
        <ele>455.5</ele>
        <time>2022-09-28T14:02:17Z</time>
      </trkpt>
      <trkpt lat="46.62562" lon="6.52264">
        <ele>455.7</ele>
        <time>2022-09-28T14:02:18Z</time>
      </trkpt>
      <trkpt lat="46.62565" lon="6.52262">
        <ele>455.9</ele>
        <time>2022-09-28T14:02:19Z</time>
      </trkpt>
      <trkpt lat="46.62566" lon="6.52262">
        <ele>456</ele>
        <time>2022-09-28T14:02:20Z</time>
      </trkpt>
      <trkpt lat="46.62568" lon="6.52261">
        <ele>456.1</ele>
        <time>2022-09-28T14:02:21Z</time>
      </trkpt>
      <trkpt lat="46.6257" lon="6.52261">
        <ele>456.3</ele>
        <time>2022-09-28T14:02:22Z</time>
      </trkpt>
      <trkpt lat="46.62571" lon="6.52261">
        <ele>456.4</ele>
        <time>2022-09-28T14:02:23Z</time>
      </trkpt>
      <trkpt lat="46.62573" lon="6.52261">
        <ele>456.5</ele>
        <time>2022-09-28T14:02:24Z</time>
      </trkpt>
      <trkpt lat="46.62574" lon="6.52262">
        <ele>456.6</ele>
        <time>2022-09-28T14:02:25Z</time>
      </trkpt>
      <trkpt lat="46.62576" lon="6.52262">
        <ele>456.7</ele>
        <time>2022-09-28T14:02:26Z</time>
      </trkpt>
      <trkpt lat="46.62578" lon="6.52263">
        <ele>456.8</ele>
        <time>2022-09-28T14:02:27Z</time>
      </trkpt>
      <trkpt lat="46.62579" lon="6.52264">
        <ele>456.9</ele>
        <time>2022-09-28T14:02:28Z</time>
      </trkpt>
      <trkpt lat="46.62581" lon="6.52265">
        <ele>457</ele>
        <time>2022-09-28T14:02:29Z</time>
      </trkpt>
      <trkpt lat="46.62581" lon="6.52265">
        <ele>457</ele>
        <time>2022-09-28T14:02:30Z</time>
      </trkpt>
      <trkpt lat="46.62583" lon="6.52267">
        <ele>457.1</ele>
        <time>2022-09-28T14:02:31Z</time>
      </trkpt>
      <trkpt lat="46.62584" lon="6.52268">
        <ele>457.2</ele>
        <time>2022-09-28T14:02:32Z</time>
      </trkpt>
      <trkpt lat="46.62586" lon="6.52269">
        <ele>457.3</ele>
        <time>2022-09-28T14:02:33Z</time>
      </trkpt>
      <trkpt lat="46.62587" lon="6.5227">
        <ele>457.4</ele>
        <time>2022-09-28T14:02:34Z</time>
      </trkpt>
      <trkpt lat="46.62589" lon="6.52271">
        <ele>457.5</ele>
        <time>2022-09-28T14:02:35Z</time>
      </trkpt>
      <trkpt lat="46.62592" lon="6.52273">
        <ele>457.7</ele>
        <time>2022-09-28T14:02:36Z</time>
      </trkpt>
      <trkpt lat="46.62593" lon="6.52273">
        <ele>457.7</ele>
        <time>2022-09-28T14:02:37Z</time>
      </trkpt>
      <trkpt lat="46.62594" lon="6.52275">
        <ele>457.8</ele>
        <time>2022-09-28T14:02:38Z</time>
      </trkpt>
      <trkpt lat="46.62595" lon="6.52276">
        <ele>457.9</ele>
        <time>2022-09-28T14:02:39Z</time>
      </trkpt>
      <trkpt lat="46.62597" lon="6.52277">
        <ele>458</ele>
        <time>2022-09-28T14:02:40Z</time>
      </trkpt>
      <trkpt lat="46.62599" lon="6.52278">
        <ele>458.1</ele>
        <time>2022-09-28T14:02:41Z</time>
      </trkpt>
      <trkpt lat="46.626" lon="6.52279">
        <ele>458.1</ele>
        <time>2022-09-28T14:02:42Z</time>
      </trkpt>
      <trkpt lat="46.62602" lon="6.5228">
        <ele>458.2</ele>
        <time>2022-09-28T14:02:43Z</time>
      </trkpt>
      <trkpt lat="46.62603" lon="6.52281">
        <ele>458.3</ele>
        <time>2022-09-28T14:02:44Z</time>
      </trkpt>
      <trkpt lat="46.62605" lon="6.52282">
        <ele>458.4</ele>
        <time>2022-09-28T14:02:45Z</time>
      </trkpt>
      <trkpt lat="46.62607" lon="6.52283">
        <ele>458.5</ele>
        <time>2022-09-28T14:02:46Z</time>
      </trkpt>
      <trkpt lat="46.62608" lon="6.52284">
        <ele>458.6</ele>
        <time>2022-09-28T14:02:47Z</time>
      </trkpt>
      <trkpt lat="46.62611" lon="6.52286">
        <ele>458.7</ele>
        <time>2022-09-28T14:02:48Z</time>
      </trkpt>
      <trkpt lat="46.62611" lon="6.52286">
        <ele>458.7</ele>
        <time>2022-09-28T14:02:49Z</time>
      </trkpt>
      <trkpt lat="46.62613" lon="6.52287">
        <ele>458.8</ele>
        <time>2022-09-28T14:02:50Z</time>
      </trkpt>
      <trkpt lat="46.62615" lon="6.52288">
        <ele>458.9</ele>
        <time>2022-09-28T14:02:51Z</time>
      </trkpt>
      <trkpt lat="46.62617" lon="6.5229">
        <ele>459</ele>
        <time>2022-09-28T14:02:52Z</time>
      </trkpt>
      <trkpt lat="46.62618" lon="6.5229">
        <ele>459.1</ele>
        <time>2022-09-28T14:02:53Z</time>
      </trkpt>
      <trkpt lat="46.62619" lon="6.52292">
        <ele>459.2</ele>
        <time>2022-09-28T14:02:54Z</time>
      </trkpt>
      <trkpt lat="46.62621" lon="6.52293">
        <ele>459.3</ele>
        <time>2022-09-28T14:02:55Z</time>
      </trkpt>
      <trkpt lat="46.62622" lon="6.52294">
        <ele>459.4</ele>
        <time>2022-09-28T14:02:56Z</time>
      </trkpt>
      <trkpt lat="46.62624" lon="6.52295">
        <ele>459.4</ele>
        <time>2022-09-28T14:02:57Z</time>
      </trkpt>
      <trkpt lat="46.62625" lon="6.52296">
        <ele>459.5</ele>
        <time>2022-09-28T14:02:58Z</time>
      </trkpt>
      <trkpt lat="46.62627" lon="6.52297">
        <ele>459.6</ele>
        <time>2022-09-28T14:02:59Z</time>
      </trkpt>
      <trkpt lat="46.62628" lon="6.52298">
        <ele>459.7</ele>
        <time>2022-09-28T14:03:00Z</time>
      </trkpt>
      <trkpt lat="46.6263" lon="6.52299">
        <ele>459.8</ele>
        <time>2022-09-28T14:03:01Z</time>
      </trkpt>
      <trkpt lat="46.62632" lon="6.523">
        <ele>460</ele>
        <time>2022-09-28T14:03:02Z</time>
      </trkpt>
      <trkpt lat="46.62633" lon="6.52301">
        <ele>460</ele>
        <time>2022-09-28T14:03:03Z</time>
      </trkpt>
      <trkpt lat="46.62634" lon="6.52301">
        <ele>460.1</ele>
        <time>2022-09-28T14:03:04Z</time>
      </trkpt>
      <trkpt lat="46.62635" lon="6.52302">
        <ele>460.1</ele>
        <time>2022-09-28T14:03:05Z</time>
      </trkpt>
      <trkpt lat="46.62637" lon="6.52303">
        <ele>460.2</ele>
        <time>2022-09-28T14:03:06Z</time>
      </trkpt>
      <trkpt lat="46.62638" lon="6.52304">
        <ele>460.3</ele>
        <time>2022-09-28T14:03:07Z</time>
      </trkpt>
      <trkpt lat="46.62639" lon="6.52305">
        <ele>460.4</ele>
        <time>2022-09-28T14:03:08Z</time>
      </trkpt>
      <trkpt lat="46.62642" lon="6.52307">
        <ele>460.6</ele>
        <time>2022-09-28T14:03:09Z</time>
      </trkpt>
      <trkpt lat="46.62643" lon="6.52307">
        <ele>460.7</ele>
        <time>2022-09-28T14:03:10Z</time>
      </trkpt>
      <trkpt lat="46.62645" lon="6.52308">
        <ele>460.8</ele>
        <time>2022-09-28T14:03:11Z</time>
      </trkpt>
      <trkpt lat="46.62646" lon="6.52309">
        <ele>460.9</ele>
        <time>2022-09-28T14:03:12Z</time>
      </trkpt>
      <trkpt lat="46.62648" lon="6.5231">
        <ele>461</ele>
        <time>2022-09-28T14:03:13Z</time>
      </trkpt>
      <trkpt lat="46.62649" lon="6.52311">
        <ele>461.1</ele>
        <time>2022-09-28T14:03:14Z</time>
      </trkpt>
      <trkpt lat="46.62651" lon="6.52312">
        <ele>461.2</ele>
        <time>2022-09-28T14:03:15Z</time>
      </trkpt>
      <trkpt lat="46.62652" lon="6.52313">
        <ele>461.3</ele>
        <time>2022-09-28T14:03:16Z</time>
      </trkpt>
      <trkpt lat="46.62654" lon="6.52314">
        <ele>461.4</ele>
        <time>2022-09-28T14:03:17Z</time>
      </trkpt>
      <trkpt lat="46.62655" lon="6.52315">
        <ele>461.5</ele>
        <time>2022-09-28T14:03:18Z</time>
      </trkpt>
      <trkpt lat="46.62656" lon="6.52316">
        <ele>461.6</ele>
        <time>2022-09-28T14:03:19Z</time>
      </trkpt>
      <trkpt lat="46.62658" lon="6.52317">
        <ele>461.7</ele>
        <time>2022-09-28T14:03:20Z</time>
      </trkpt>
      <trkpt lat="46.62659" lon="6.52318">
        <ele>461.8</ele>
        <time>2022-09-28T14:03:21Z</time>
      </trkpt>
      <trkpt lat="46.6266" lon="6.52319">
        <ele>461.9</ele>
        <time>2022-09-28T14:03:22Z</time>
      </trkpt>
      <trkpt lat="46.62662" lon="6.5232">
        <ele>462</ele>
        <time>2022-09-28T14:03:23Z</time>
      </trkpt>
      <trkpt lat="46.62663" lon="6.5232">
        <ele>462.1</ele>
        <time>2022-09-28T14:03:24Z</time>
      </trkpt>
      <trkpt lat="46.62664" lon="6.52321">
        <ele>462.2</ele>
        <time>2022-09-28T14:03:25Z</time>
      </trkpt>
      <trkpt lat="46.62666" lon="6.52322">
        <ele>462.3</ele>
        <time>2022-09-28T14:03:26Z</time>
      </trkpt>
      <trkpt lat="46.62667" lon="6.52323">
        <ele>462.4</ele>
        <time>2022-09-28T14:03:27Z</time>
      </trkpt>
      <trkpt lat="46.62668" lon="6.52324">
        <ele>462.5</ele>
        <time>2022-09-28T14:03:28Z</time>
      </trkpt>
      <trkpt lat="46.6267" lon="6.52325">
        <ele>462.6</ele>
        <time>2022-09-28T14:03:29Z</time>
      </trkpt>
      <trkpt lat="46.62671" lon="6.52326">
        <ele>462.7</ele>
        <time>2022-09-28T14:03:30Z</time>
      </trkpt>
      <trkpt lat="46.62673" lon="6.52327">
        <ele>462.8</ele>
        <time>2022-09-28T14:03:31Z</time>
      </trkpt>
      <trkpt lat="46.62674" lon="6.52328">
        <ele>462.9</ele>
        <time>2022-09-28T14:03:32Z</time>
      </trkpt>
      <trkpt lat="46.62676" lon="6.5233">
        <ele>463</ele>
        <time>2022-09-28T14:03:33Z</time>
      </trkpt>
      <trkpt lat="46.62677" lon="6.5233">
        <ele>463.1</ele>
        <time>2022-09-28T14:03:34Z</time>
      </trkpt>
      <trkpt lat="46.62678" lon="6.52332">
        <ele>463.2</ele>
        <time>2022-09-28T14:03:35Z</time>
      </trkpt>
      <trkpt lat="46.6268" lon="6.52332">
        <ele>463.3</ele>
        <time>2022-09-28T14:03:36Z</time>
      </trkpt>
      <trkpt lat="46.62681" lon="6.52333">
        <ele>463.4</ele>
        <time>2022-09-28T14:03:37Z</time>
      </trkpt>
      <trkpt lat="46.62683" lon="6.52334">
        <ele>463.5</ele>
        <time>2022-09-28T14:03:38Z</time>
      </trkpt>
      <trkpt lat="46.62684" lon="6.52335">
        <ele>463.6</ele>
        <time>2022-09-28T14:03:39Z</time>
      </trkpt>
      <trkpt lat="46.62686" lon="6.52336">
        <ele>463.7</ele>
        <time>2022-09-28T14:03:40Z</time>
      </trkpt>
      <trkpt lat="46.62687" lon="6.52337">
        <ele>463.8</ele>
        <time>2022-09-28T14:03:41Z</time>
      </trkpt>
      <trkpt lat="46.62689" lon="6.52338">
        <ele>464</ele>
        <time>2022-09-28T14:03:42Z</time>
      </trkpt>
      <trkpt lat="46.6269" lon="6.52339">
        <ele>464.1</ele>
        <time>2022-09-28T14:03:43Z</time>
      </trkpt>
      <trkpt lat="46.62692" lon="6.52341">
        <ele>464.2</ele>
        <time>2022-09-28T14:03:44Z</time>
      </trkpt>
      <trkpt lat="46.62693" lon="6.52341">
        <ele>464.3</ele>
        <time>2022-09-28T14:03:45Z</time>
      </trkpt>
      <trkpt lat="46.62695" lon="6.52342">
        <ele>464.4</ele>
        <time>2022-09-28T14:03:46Z</time>
      </trkpt>
      <trkpt lat="46.62696" lon="6.52344">
        <ele>464.5</ele>
        <time>2022-09-28T14:03:47Z</time>
      </trkpt>
      <trkpt lat="46.62698" lon="6.52344">
        <ele>464.6</ele>
        <time>2022-09-28T14:03:48Z</time>
      </trkpt>
      <trkpt lat="46.62699" lon="6.52345">
        <ele>464.7</ele>
        <time>2022-09-28T14:03:49Z</time>
      </trkpt>
      <trkpt lat="46.62701" lon="6.52346">
        <ele>464.8</ele>
        <time>2022-09-28T14:03:50Z</time>
      </trkpt>
      <trkpt lat="46.62702" lon="6.52347">
        <ele>464.9</ele>
        <time>2022-09-28T14:03:51Z</time>
      </trkpt>
      <trkpt lat="46.62703" lon="6.52348">
        <ele>465</ele>
        <time>2022-09-28T14:03:52Z</time>
      </trkpt>
      <trkpt lat="46.62705" lon="6.52349">
        <ele>465.1</ele>
        <time>2022-09-28T14:03:53Z</time>
      </trkpt>
      <trkpt lat="46.62706" lon="6.5235">
        <ele>465.2</ele>
        <time>2022-09-28T14:03:54Z</time>
      </trkpt>
      <trkpt lat="46.62708" lon="6.52351">
        <ele>465.4</ele>
        <time>2022-09-28T14:03:55Z</time>
      </trkpt>
      <trkpt lat="46.62709" lon="6.52352">
        <ele>465.5</ele>
        <time>2022-09-28T14:03:56Z</time>
      </trkpt>
      <trkpt lat="46.6271" lon="6.52352">
        <ele>465.6</ele>
        <time>2022-09-28T14:03:57Z</time>
      </trkpt>
      <trkpt lat="46.62712" lon="6.52353">
        <ele>465.7</ele>
        <time>2022-09-28T14:03:58Z</time>
      </trkpt>
      <trkpt lat="46.62713" lon="6.52354">
        <ele>465.8</ele>
        <time>2022-09-28T14:03:59Z</time>
      </trkpt>
      <trkpt lat="46.62715" lon="6.52355">
        <ele>465.9</ele>
        <time>2022-09-28T14:04:00Z</time>
      </trkpt>
      <trkpt lat="46.62717" lon="6.52356">
        <ele>466</ele>
        <time>2022-09-28T14:04:01Z</time>
      </trkpt>
      <trkpt lat="46.62718" lon="6.52357">
        <ele>466.2</ele>
        <time>2022-09-28T14:04:02Z</time>
      </trkpt>
      <trkpt lat="46.6272" lon="6.52357">
        <ele>466.3</ele>
        <time>2022-09-28T14:04:03Z</time>
      </trkpt>
      <trkpt lat="46.62721" lon="6.52357">
        <ele>466.4</ele>
        <time>2022-09-28T14:04:04Z</time>
      </trkpt>
      <trkpt lat="46.62723" lon="6.52358">
        <ele>466.5</ele>
        <time>2022-09-28T14:04:05Z</time>
      </trkpt>
      <trkpt lat="46.62724" lon="6.52359">
        <ele>466.6</ele>
        <time>2022-09-28T14:04:06Z</time>
      </trkpt>
      <trkpt lat="46.62726" lon="6.5236">
        <ele>466.7</ele>
        <time>2022-09-28T14:04:07Z</time>
      </trkpt>
      <trkpt lat="46.62727" lon="6.5236">
        <ele>466.8</ele>
        <time>2022-09-28T14:04:08Z</time>
      </trkpt>
      <trkpt lat="46.62728" lon="6.52361">
        <ele>466.9</ele>
        <time>2022-09-28T14:04:09Z</time>
      </trkpt>
      <trkpt lat="46.62729" lon="6.52361">
        <ele>467</ele>
        <time>2022-09-28T14:04:10Z</time>
      </trkpt>
      <trkpt lat="46.62731" lon="6.52362">
        <ele>467.1</ele>
        <time>2022-09-28T14:04:11Z</time>
      </trkpt>
      <trkpt lat="46.62733" lon="6.52362">
        <ele>467.2</ele>
        <time>2022-09-28T14:04:12Z</time>
      </trkpt>
      <trkpt lat="46.62734" lon="6.52363">
        <ele>467.4</ele>
        <time>2022-09-28T14:04:13Z</time>
      </trkpt>
      <trkpt lat="46.62736" lon="6.52364">
        <ele>467.5</ele>
        <time>2022-09-28T14:04:14Z</time>
      </trkpt>
      <trkpt lat="46.62738" lon="6.52364">
        <ele>467.6</ele>
        <time>2022-09-28T14:04:15Z</time>
      </trkpt>
      <trkpt lat="46.62739" lon="6.52365">
        <ele>467.7</ele>
        <time>2022-09-28T14:04:16Z</time>
      </trkpt>
      <trkpt lat="46.62741" lon="6.52365">
        <ele>467.8</ele>
        <time>2022-09-28T14:04:17Z</time>
      </trkpt>
      <trkpt lat="46.62742" lon="6.52366">
        <ele>467.9</ele>
        <time>2022-09-28T14:04:18Z</time>
      </trkpt>
      <trkpt lat="46.62744" lon="6.52366">
        <ele>468.1</ele>
        <time>2022-09-28T14:04:19Z</time>
      </trkpt>
      <trkpt lat="46.62746" lon="6.52367">
        <ele>468.2</ele>
        <time>2022-09-28T14:04:20Z</time>
      </trkpt>
      <trkpt lat="46.62747" lon="6.52367">
        <ele>468.3</ele>
        <time>2022-09-28T14:04:21Z</time>
      </trkpt>
      <trkpt lat="46.62749" lon="6.52367">
        <ele>468.4</ele>
        <time>2022-09-28T14:04:22Z</time>
      </trkpt>
      <trkpt lat="46.6275" lon="6.52367">
        <ele>468.5</ele>
        <time>2022-09-28T14:04:23Z</time>
      </trkpt>
      <trkpt lat="46.62752" lon="6.52368">
        <ele>468.6</ele>
        <time>2022-09-28T14:04:24Z</time>
      </trkpt>
      <trkpt lat="46.62753" lon="6.52368">
        <ele>468.7</ele>
        <time>2022-09-28T14:04:25Z</time>
      </trkpt>
      <trkpt lat="46.62755" lon="6.52369">
        <ele>468.8</ele>
        <time>2022-09-28T14:04:26Z</time>
      </trkpt>
      <trkpt lat="46.62757" lon="6.52369">
        <ele>468.9</ele>
        <time>2022-09-28T14:04:27Z</time>
      </trkpt>
      <trkpt lat="46.62758" lon="6.52369">
        <ele>469.1</ele>
        <time>2022-09-28T14:04:28Z</time>
      </trkpt>
      <trkpt lat="46.6276" lon="6.5237">
        <ele>469.2</ele>
        <time>2022-09-28T14:04:29Z</time>
      </trkpt>
      <trkpt lat="46.62761" lon="6.5237">
        <ele>469.3</ele>
        <time>2022-09-28T14:04:30Z</time>
      </trkpt>
      <trkpt lat="46.62763" lon="6.52371">
        <ele>469.4</ele>
        <time>2022-09-28T14:04:31Z</time>
      </trkpt>
      <trkpt lat="46.62765" lon="6.52371">
        <ele>469.5</ele>
        <time>2022-09-28T14:04:32Z</time>
      </trkpt>
      <trkpt lat="46.62766" lon="6.52372">
        <ele>469.6</ele>
        <time>2022-09-28T14:04:33Z</time>
      </trkpt>
      <trkpt lat="46.62768" lon="6.52372">
        <ele>469.7</ele>
        <time>2022-09-28T14:04:34Z</time>
      </trkpt>
      <trkpt lat="46.62769" lon="6.52372">
        <ele>469.8</ele>
        <time>2022-09-28T14:04:35Z</time>
      </trkpt>
      <trkpt lat="46.62771" lon="6.52373">
        <ele>469.9</ele>
        <time>2022-09-28T14:04:36Z</time>
      </trkpt>
      <trkpt lat="46.62772" lon="6.52374">
        <ele>470</ele>
        <time>2022-09-28T14:04:37Z</time>
      </trkpt>
      <trkpt lat="46.62773" lon="6.52374">
        <ele>470.1</ele>
        <time>2022-09-28T14:04:38Z</time>
      </trkpt>
      <trkpt lat="46.62775" lon="6.52375">
        <ele>470.2</ele>
        <time>2022-09-28T14:04:39Z</time>
      </trkpt>
      <trkpt lat="46.62776" lon="6.52375">
        <ele>470.3</ele>
        <time>2022-09-28T14:04:40Z</time>
      </trkpt>
      <trkpt lat="46.62777" lon="6.52376">
        <ele>470.4</ele>
        <time>2022-09-28T14:04:41Z</time>
      </trkpt>
      <trkpt lat="46.62779" lon="6.52377">
        <ele>470.5</ele>
        <time>2022-09-28T14:04:42Z</time>
      </trkpt>
      <trkpt lat="46.62781" lon="6.52378">
        <ele>470.7</ele>
        <time>2022-09-28T14:04:43Z</time>
      </trkpt>
      <trkpt lat="46.62782" lon="6.52379">
        <ele>470.8</ele>
        <time>2022-09-28T14:04:44Z</time>
      </trkpt>
      <trkpt lat="46.62784" lon="6.52379">
        <ele>470.9</ele>
        <time>2022-09-28T14:04:45Z</time>
      </trkpt>
      <trkpt lat="46.62786" lon="6.5238">
        <ele>471</ele>
        <time>2022-09-28T14:04:46Z</time>
      </trkpt>
      <trkpt lat="46.62788" lon="6.52382">
        <ele>471.2</ele>
        <time>2022-09-28T14:04:47Z</time>
      </trkpt>
      <trkpt lat="46.62788" lon="6.52382">
        <ele>471.2</ele>
        <time>2022-09-28T14:04:48Z</time>
      </trkpt>
      <trkpt lat="46.62789" lon="6.52383">
        <ele>471.3</ele>
        <time>2022-09-28T14:04:49Z</time>
      </trkpt>
      <trkpt lat="46.6279" lon="6.52384">
        <ele>471.4</ele>
        <time>2022-09-28T14:04:50Z</time>
      </trkpt>
      <trkpt lat="46.62792" lon="6.52385">
        <ele>471.5</ele>
        <time>2022-09-28T14:04:51Z</time>
      </trkpt>
      <trkpt lat="46.62794" lon="6.52386">
        <ele>471.7</ele>
        <time>2022-09-28T14:04:52Z</time>
      </trkpt>
      <trkpt lat="46.62795" lon="6.52387">
        <ele>471.8</ele>
        <time>2022-09-28T14:04:53Z</time>
      </trkpt>
      <trkpt lat="46.62796" lon="6.52388">
        <ele>471.9</ele>
        <time>2022-09-28T14:04:54Z</time>
      </trkpt>
      <trkpt lat="46.62797" lon="6.52389">
        <ele>471.9</ele>
        <time>2022-09-28T14:04:55Z</time>
      </trkpt>
      <trkpt lat="46.62798" lon="6.52391">
        <ele>472.1</ele>
        <time>2022-09-28T14:04:56Z</time>
      </trkpt>
      <trkpt lat="46.62799" lon="6.52391">
        <ele>472.1</ele>
        <time>2022-09-28T14:04:57Z</time>
      </trkpt>
      <trkpt lat="46.62801" lon="6.52392">
        <ele>472.3</ele>
        <time>2022-09-28T14:04:58Z</time>
      </trkpt>
      <trkpt lat="46.62802" lon="6.52393">
        <ele>472.4</ele>
        <time>2022-09-28T14:04:59Z</time>
      </trkpt>
      <trkpt lat="46.62803" lon="6.52395">
        <ele>472.5</ele>
        <time>2022-09-28T14:05:00Z</time>
      </trkpt>
      <trkpt lat="46.62804" lon="6.52396">
        <ele>472.6</ele>
        <time>2022-09-28T14:05:01Z</time>
      </trkpt>
      <trkpt lat="46.62805" lon="6.52398">
        <ele>472.7</ele>
        <time>2022-09-28T14:05:02Z</time>
      </trkpt>
      <trkpt lat="46.62806" lon="6.52399">
        <ele>472.8</ele>
        <time>2022-09-28T14:05:03Z</time>
      </trkpt>
      <trkpt lat="46.62807" lon="6.52401">
        <ele>472.9</ele>
        <time>2022-09-28T14:05:04Z</time>
      </trkpt>
      <trkpt lat="46.62808" lon="6.52402">
        <ele>473</ele>
        <time>2022-09-28T14:05:05Z</time>
      </trkpt>
      <trkpt lat="46.6281" lon="6.52404">
        <ele>473.2</ele>
        <time>2022-09-28T14:05:06Z</time>
      </trkpt>
      <trkpt lat="46.62812" lon="6.52407">
        <ele>473.5</ele>
        <time>2022-09-28T14:05:07Z</time>
      </trkpt>
      <trkpt lat="46.62813" lon="6.52408">
        <ele>473.5</ele>
        <time>2022-09-28T14:05:08Z</time>
      </trkpt>
      <trkpt lat="46.62815" lon="6.52411">
        <ele>473.7</ele>
        <time>2022-09-28T14:05:09Z</time>
      </trkpt>
      <trkpt lat="46.62816" lon="6.52412">
        <ele>473.8</ele>
        <time>2022-09-28T14:05:10Z</time>
      </trkpt>
      <trkpt lat="46.62818" lon="6.52415">
        <ele>474</ele>
        <time>2022-09-28T14:05:11Z</time>
      </trkpt>
      <trkpt lat="46.62819" lon="6.52415">
        <ele>474.1</ele>
        <time>2022-09-28T14:05:12Z</time>
      </trkpt>
      <trkpt lat="46.62821" lon="6.52418">
        <ele>474.3</ele>
        <time>2022-09-28T14:05:13Z</time>
      </trkpt>
      <trkpt lat="46.62822" lon="6.52419">
        <ele>474.4</ele>
        <time>2022-09-28T14:05:14Z</time>
      </trkpt>
      <trkpt lat="46.62825" lon="6.52422">
        <ele>474.8</ele>
        <time>2022-09-28T14:05:15Z</time>
      </trkpt>
      <trkpt lat="46.62826" lon="6.52423">
        <ele>474.9</ele>
        <time>2022-09-28T14:05:16Z</time>
      </trkpt>
      <trkpt lat="46.62828" lon="6.52425">
        <ele>475.2</ele>
        <time>2022-09-28T14:05:17Z</time>
      </trkpt>
      <trkpt lat="46.62829" lon="6.52426">
        <ele>475.2</ele>
        <time>2022-09-28T14:05:18Z</time>
      </trkpt>
      <trkpt lat="46.62831" lon="6.52429">
        <ele>475.5</ele>
        <time>2022-09-28T14:05:19Z</time>
      </trkpt>
      <trkpt lat="46.62832" lon="6.5243">
        <ele>475.6</ele>
        <time>2022-09-28T14:05:20Z</time>
      </trkpt>
      <trkpt lat="46.62833" lon="6.52431">
        <ele>475.8</ele>
        <time>2022-09-28T14:05:21Z</time>
      </trkpt>
      <trkpt lat="46.62834" lon="6.52433">
        <ele>476</ele>
        <time>2022-09-28T14:05:22Z</time>
      </trkpt>
      <trkpt lat="46.62836" lon="6.52434">
        <ele>476.1</ele>
        <time>2022-09-28T14:05:23Z</time>
      </trkpt>
      <trkpt lat="46.62837" lon="6.52436">
        <ele>476.4</ele>
        <time>2022-09-28T14:05:24Z</time>
      </trkpt>
      <trkpt lat="46.62838" lon="6.52438">
        <ele>476.5</ele>
        <time>2022-09-28T14:05:25Z</time>
      </trkpt>
      <trkpt lat="46.6284" lon="6.5244">
        <ele>476.7</ele>
        <time>2022-09-28T14:05:26Z</time>
      </trkpt>
      <trkpt lat="46.62842" lon="6.52443">
        <ele>477</ele>
        <time>2022-09-28T14:05:27Z</time>
      </trkpt>
      <trkpt lat="46.62842" lon="6.52444">
        <ele>477.2</ele>
        <time>2022-09-28T14:05:28Z</time>
      </trkpt>
      <trkpt lat="46.62845" lon="6.52447">
        <ele>477.4</ele>
        <time>2022-09-28T14:05:29Z</time>
      </trkpt>
      <trkpt lat="46.62845" lon="6.52448">
        <ele>477.5</ele>
        <time>2022-09-28T14:05:30Z</time>
      </trkpt>
      <trkpt lat="46.62847" lon="6.52449">
        <ele>477.7</ele>
        <time>2022-09-28T14:05:31Z</time>
      </trkpt>
      <trkpt lat="46.62848" lon="6.52451">
        <ele>477.9</ele>
        <time>2022-09-28T14:05:32Z</time>
      </trkpt>
      <trkpt lat="46.62849" lon="6.52453">
        <ele>478</ele>
        <time>2022-09-28T14:05:33Z</time>
      </trkpt>
      <trkpt lat="46.62851" lon="6.52454">
        <ele>478.2</ele>
        <time>2022-09-28T14:05:34Z</time>
      </trkpt>
      <trkpt lat="46.62853" lon="6.52457">
        <ele>478.4</ele>
        <time>2022-09-28T14:05:35Z</time>
      </trkpt>
      <trkpt lat="46.62853" lon="6.52458">
        <ele>478.4</ele>
        <time>2022-09-28T14:05:36Z</time>
      </trkpt>
      <trkpt lat="46.62854" lon="6.52459">
        <ele>478.5</ele>
        <time>2022-09-28T14:05:37Z</time>
      </trkpt>
      <trkpt lat="46.62856" lon="6.52461">
        <ele>478.5</ele>
        <time>2022-09-28T14:05:38Z</time>
      </trkpt>
      <trkpt lat="46.62857" lon="6.52463">
        <ele>478.6</ele>
        <time>2022-09-28T14:05:39Z</time>
      </trkpt>
      <trkpt lat="46.62859" lon="6.52464">
        <ele>478.6</ele>
        <time>2022-09-28T14:05:40Z</time>
      </trkpt>
      <trkpt lat="46.6286" lon="6.52465">
        <ele>478.7</ele>
        <time>2022-09-28T14:05:41Z</time>
      </trkpt>
      <trkpt lat="46.62861" lon="6.52467">
        <ele>478.7</ele>
        <time>2022-09-28T14:05:42Z</time>
      </trkpt>
      <trkpt lat="46.62863" lon="6.52469">
        <ele>478.7</ele>
        <time>2022-09-28T14:05:43Z</time>
      </trkpt>
      <trkpt lat="46.62864" lon="6.52471">
        <ele>478.8</ele>
        <time>2022-09-28T14:05:44Z</time>
      </trkpt>
      <trkpt lat="46.62865" lon="6.52472">
        <ele>478.8</ele>
        <time>2022-09-28T14:05:45Z</time>
      </trkpt>
      <trkpt lat="46.62866" lon="6.52474">
        <ele>478.8</ele>
        <time>2022-09-28T14:05:46Z</time>
      </trkpt>
      <trkpt lat="46.62867" lon="6.52475">
        <ele>478.9</ele>
        <time>2022-09-28T14:05:47Z</time>
      </trkpt>
      <trkpt lat="46.62869" lon="6.52477">
        <ele>478.9</ele>
        <time>2022-09-28T14:05:48Z</time>
      </trkpt>
      <trkpt lat="46.6287" lon="6.52479">
        <ele>478.9</ele>
        <time>2022-09-28T14:05:49Z</time>
      </trkpt>
      <trkpt lat="46.62871" lon="6.5248">
        <ele>479</ele>
        <time>2022-09-28T14:05:50Z</time>
      </trkpt>
      <trkpt lat="46.62872" lon="6.52482">
        <ele>479.1</ele>
        <time>2022-09-28T14:05:51Z</time>
      </trkpt>
      <trkpt lat="46.62874" lon="6.52483">
        <ele>479.2</ele>
        <time>2022-09-28T14:05:52Z</time>
      </trkpt>
      <trkpt lat="46.62875" lon="6.52485">
        <ele>479.3</ele>
        <time>2022-09-28T14:05:53Z</time>
      </trkpt>
      <trkpt lat="46.62876" lon="6.52487">
        <ele>479.5</ele>
        <time>2022-09-28T14:05:54Z</time>
      </trkpt>
      <trkpt lat="46.62877" lon="6.52488">
        <ele>479.6</ele>
        <time>2022-09-28T14:05:55Z</time>
      </trkpt>
      <trkpt lat="46.62878" lon="6.52489">
        <ele>479.7</ele>
        <time>2022-09-28T14:05:56Z</time>
      </trkpt>
      <trkpt lat="46.62881" lon="6.52491">
        <ele>479.9</ele>
        <time>2022-09-28T14:05:57Z</time>
      </trkpt>
      <trkpt lat="46.62881" lon="6.52492">
        <ele>480</ele>
        <time>2022-09-28T14:05:58Z</time>
      </trkpt>
      <trkpt lat="46.62883" lon="6.52494">
        <ele>480.1</ele>
        <time>2022-09-28T14:05:59Z</time>
      </trkpt>
      <trkpt lat="46.62884" lon="6.52494">
        <ele>480.3</ele>
        <time>2022-09-28T14:06:00Z</time>
      </trkpt>
      <trkpt lat="46.62887" lon="6.52497">
        <ele>480.5</ele>
        <time>2022-09-28T14:06:01Z</time>
      </trkpt>
      <trkpt lat="46.62887" lon="6.52498">
        <ele>480.6</ele>
        <time>2022-09-28T14:06:02Z</time>
      </trkpt>
      <trkpt lat="46.62889" lon="6.52499">
        <ele>480.7</ele>
        <time>2022-09-28T14:06:03Z</time>
      </trkpt>
      <trkpt lat="46.6289" lon="6.525">
        <ele>480.8</ele>
        <time>2022-09-28T14:06:04Z</time>
      </trkpt>
      <trkpt lat="46.62891" lon="6.52501">
        <ele>481</ele>
        <time>2022-09-28T14:06:05Z</time>
      </trkpt>
      <trkpt lat="46.62893" lon="6.52502">
        <ele>481.1</ele>
        <time>2022-09-28T14:06:06Z</time>
      </trkpt>
      <trkpt lat="46.62895" lon="6.52504">
        <ele>481.3</ele>
        <time>2022-09-28T14:06:07Z</time>
      </trkpt>
      <trkpt lat="46.62896" lon="6.52505">
        <ele>481.4</ele>
        <time>2022-09-28T14:06:08Z</time>
      </trkpt>
      <trkpt lat="46.62897" lon="6.52506">
        <ele>481.4</ele>
        <time>2022-09-28T14:06:09Z</time>
      </trkpt>
      <trkpt lat="46.62899" lon="6.52507">
        <ele>481.6</ele>
        <time>2022-09-28T14:06:10Z</time>
      </trkpt>
      <trkpt lat="46.62901" lon="6.5251">
        <ele>481.8</ele>
        <time>2022-09-28T14:06:11Z</time>
      </trkpt>
      <trkpt lat="46.62902" lon="6.5251">
        <ele>481.9</ele>
        <time>2022-09-28T14:06:12Z</time>
      </trkpt>
      <trkpt lat="46.62903" lon="6.52511">
        <ele>482</ele>
        <time>2022-09-28T14:06:13Z</time>
      </trkpt>
      <trkpt lat="46.62905" lon="6.52512">
        <ele>482.1</ele>
        <time>2022-09-28T14:06:14Z</time>
      </trkpt>
      <trkpt lat="46.62908" lon="6.52513">
        <ele>482.4</ele>
        <time>2022-09-28T14:06:15Z</time>
      </trkpt>
      <trkpt lat="46.62909" lon="6.52514">
        <ele>482.4</ele>
        <time>2022-09-28T14:06:16Z</time>
      </trkpt>
      <trkpt lat="46.6291" lon="6.52515">
        <ele>482.6</ele>
        <time>2022-09-28T14:06:17Z</time>
      </trkpt>
      <trkpt lat="46.62912" lon="6.52516">
        <ele>482.7</ele>
        <time>2022-09-28T14:06:18Z</time>
      </trkpt>
      <trkpt lat="46.62913" lon="6.52517">
        <ele>482.8</ele>
        <time>2022-09-28T14:06:19Z</time>
      </trkpt>
      <trkpt lat="46.62915" lon="6.52518">
        <ele>482.9</ele>
        <time>2022-09-28T14:06:20Z</time>
      </trkpt>
      <trkpt lat="46.62916" lon="6.52518">
        <ele>483.1</ele>
        <time>2022-09-28T14:06:21Z</time>
      </trkpt>
      <trkpt lat="46.62918" lon="6.52519">
        <ele>483.2</ele>
        <time>2022-09-28T14:06:22Z</time>
      </trkpt>
      <trkpt lat="46.6292" lon="6.5252">
        <ele>483.3</ele>
        <time>2022-09-28T14:06:23Z</time>
      </trkpt>
      <trkpt lat="46.62921" lon="6.52521">
        <ele>483.4</ele>
        <time>2022-09-28T14:06:24Z</time>
      </trkpt>
      <trkpt lat="46.62923" lon="6.52523">
        <ele>483.6</ele>
        <time>2022-09-28T14:06:25Z</time>
      </trkpt>
      <trkpt lat="46.62924" lon="6.52524">
        <ele>483.7</ele>
        <time>2022-09-28T14:06:26Z</time>
      </trkpt>
      <trkpt lat="46.62927" lon="6.52526">
        <ele>483.9</ele>
        <time>2022-09-28T14:06:27Z</time>
      </trkpt>
      <trkpt lat="46.62928" lon="6.52526">
        <ele>484</ele>
        <time>2022-09-28T14:06:28Z</time>
      </trkpt>
      <trkpt lat="46.6293" lon="6.52526">
        <ele>484.1</ele>
        <time>2022-09-28T14:06:29Z</time>
      </trkpt>
      <trkpt lat="46.62931" lon="6.52527">
        <ele>484.2</ele>
        <time>2022-09-28T14:06:30Z</time>
      </trkpt>
      <trkpt lat="46.62934" lon="6.52529">
        <ele>484.4</ele>
        <time>2022-09-28T14:06:31Z</time>
      </trkpt>
      <trkpt lat="46.62935" lon="6.52529">
        <ele>484.5</ele>
        <time>2022-09-28T14:06:32Z</time>
      </trkpt>
      <trkpt lat="46.62936" lon="6.5253">
        <ele>484.6</ele>
        <time>2022-09-28T14:06:33Z</time>
      </trkpt>
      <trkpt lat="46.62938" lon="6.5253">
        <ele>484.7</ele>
        <time>2022-09-28T14:06:34Z</time>
      </trkpt>
      <trkpt lat="46.6294" lon="6.52533">
        <ele>484.9</ele>
        <time>2022-09-28T14:06:35Z</time>
      </trkpt>
      <trkpt lat="46.62941" lon="6.52533">
        <ele>485</ele>
        <time>2022-09-28T14:06:36Z</time>
      </trkpt>
      <trkpt lat="46.62944" lon="6.52535">
        <ele>485.2</ele>
        <time>2022-09-28T14:06:37Z</time>
      </trkpt>
      <trkpt lat="46.62945" lon="6.52535">
        <ele>485.3</ele>
        <time>2022-09-28T14:06:38Z</time>
      </trkpt>
      <trkpt lat="46.62947" lon="6.52536">
        <ele>485.5</ele>
        <time>2022-09-28T14:06:39Z</time>
      </trkpt>
      <trkpt lat="46.62948" lon="6.52537">
        <ele>485.5</ele>
        <time>2022-09-28T14:06:40Z</time>
      </trkpt>
      <trkpt lat="46.6295" lon="6.52537">
        <ele>485.7</ele>
        <time>2022-09-28T14:06:41Z</time>
      </trkpt>
      <trkpt lat="46.62952" lon="6.52538">
        <ele>485.8</ele>
        <time>2022-09-28T14:06:42Z</time>
      </trkpt>
      <trkpt lat="46.62953" lon="6.52538">
        <ele>485.9</ele>
        <time>2022-09-28T14:06:43Z</time>
      </trkpt>
      <trkpt lat="46.62954" lon="6.52539">
        <ele>486</ele>
        <time>2022-09-28T14:06:44Z</time>
      </trkpt>
      <trkpt lat="46.62956" lon="6.5254">
        <ele>486.1</ele>
        <time>2022-09-28T14:06:45Z</time>
      </trkpt>
      <trkpt lat="46.62957" lon="6.52541">
        <ele>486.2</ele>
        <time>2022-09-28T14:06:46Z</time>
      </trkpt>
      <trkpt lat="46.62959" lon="6.52542">
        <ele>486.4</ele>
        <time>2022-09-28T14:06:47Z</time>
      </trkpt>
      <trkpt lat="46.6296" lon="6.52542">
        <ele>486.5</ele>
        <time>2022-09-28T14:06:48Z</time>
      </trkpt>
      <trkpt lat="46.62961" lon="6.52543">
        <ele>486.6</ele>
        <time>2022-09-28T14:06:49Z</time>
      </trkpt>
      <trkpt lat="46.62963" lon="6.52544">
        <ele>486.7</ele>
        <time>2022-09-28T14:06:50Z</time>
      </trkpt>
      <trkpt lat="46.62965" lon="6.52545">
        <ele>486.9</ele>
        <time>2022-09-28T14:06:51Z</time>
      </trkpt>
      <trkpt lat="46.62966" lon="6.52545">
        <ele>487</ele>
        <time>2022-09-28T14:06:52Z</time>
      </trkpt>
      <trkpt lat="46.62968" lon="6.52546">
        <ele>487.1</ele>
        <time>2022-09-28T14:06:53Z</time>
      </trkpt>
      <trkpt lat="46.62969" lon="6.52547">
        <ele>487.3</ele>
        <time>2022-09-28T14:06:54Z</time>
      </trkpt>
      <trkpt lat="46.62971" lon="6.52548">
        <ele>487.4</ele>
        <time>2022-09-28T14:06:55Z</time>
      </trkpt>
      <trkpt lat="46.62972" lon="6.52549">
        <ele>487.5</ele>
        <time>2022-09-28T14:06:56Z</time>
      </trkpt>
      <trkpt lat="46.62974" lon="6.52549">
        <ele>487.7</ele>
        <time>2022-09-28T14:06:57Z</time>
      </trkpt>
      <trkpt lat="46.62975" lon="6.5255">
        <ele>487.8</ele>
        <time>2022-09-28T14:06:58Z</time>
      </trkpt>
      <trkpt lat="46.62977" lon="6.5255">
        <ele>488</ele>
        <time>2022-09-28T14:06:59Z</time>
      </trkpt>
      <trkpt lat="46.62979" lon="6.52551">
        <ele>488.1</ele>
        <time>2022-09-28T14:07:00Z</time>
      </trkpt>
      <trkpt lat="46.6298" lon="6.52551">
        <ele>488.2</ele>
        <time>2022-09-28T14:07:01Z</time>
      </trkpt>
      <trkpt lat="46.62982" lon="6.52552">
        <ele>488.4</ele>
        <time>2022-09-28T14:07:02Z</time>
      </trkpt>
      <trkpt lat="46.62983" lon="6.52552">
        <ele>488.5</ele>
        <time>2022-09-28T14:07:03Z</time>
      </trkpt>
      <trkpt lat="46.62985" lon="6.52553">
        <ele>488.6</ele>
        <time>2022-09-28T14:07:04Z</time>
      </trkpt>
      <trkpt lat="46.62986" lon="6.52553">
        <ele>488.8</ele>
        <time>2022-09-28T14:07:05Z</time>
      </trkpt>
      <trkpt lat="46.62988" lon="6.52553">
        <ele>488.9</ele>
        <time>2022-09-28T14:07:06Z</time>
      </trkpt>
      <trkpt lat="46.62991" lon="6.52553">
        <ele>489.1</ele>
        <time>2022-09-28T14:07:07Z</time>
      </trkpt>
      <trkpt lat="46.62992" lon="6.52553">
        <ele>489.2</ele>
        <time>2022-09-28T14:07:08Z</time>
      </trkpt>
      <trkpt lat="46.62993" lon="6.52553">
        <ele>489.3</ele>
        <time>2022-09-28T14:07:09Z</time>
      </trkpt>
      <trkpt lat="46.62995" lon="6.52553">
        <ele>489.5</ele>
        <time>2022-09-28T14:07:10Z</time>
      </trkpt>
      <trkpt lat="46.62996" lon="6.52553">
        <ele>489.6</ele>
        <time>2022-09-28T14:07:11Z</time>
      </trkpt>
      <trkpt lat="46.62998" lon="6.52553">
        <ele>489.7</ele>
        <time>2022-09-28T14:07:12Z</time>
      </trkpt>
      <trkpt lat="46.62999" lon="6.52552">
        <ele>489.9</ele>
        <time>2022-09-28T14:07:13Z</time>
      </trkpt>
      <trkpt lat="46.63001" lon="6.52551">
        <ele>490</ele>
        <time>2022-09-28T14:07:14Z</time>
      </trkpt>
      <trkpt lat="46.63002" lon="6.52551">
        <ele>490.1</ele>
        <time>2022-09-28T14:07:15Z</time>
      </trkpt>
      <trkpt lat="46.63004" lon="6.52551">
        <ele>490.2</ele>
        <time>2022-09-28T14:07:16Z</time>
      </trkpt>
      <trkpt lat="46.63005" lon="6.52551">
        <ele>490.4</ele>
        <time>2022-09-28T14:07:17Z</time>
      </trkpt>
      <trkpt lat="46.63007" lon="6.5255">
        <ele>490.5</ele>
        <time>2022-09-28T14:07:18Z</time>
      </trkpt>
      <trkpt lat="46.63008" lon="6.5255">
        <ele>490.6</ele>
        <time>2022-09-28T14:07:19Z</time>
      </trkpt>
      <trkpt lat="46.6301" lon="6.52549">
        <ele>490.8</ele>
        <time>2022-09-28T14:07:20Z</time>
      </trkpt>
      <trkpt lat="46.63012" lon="6.52549">
        <ele>490.9</ele>
        <time>2022-09-28T14:07:21Z</time>
      </trkpt>
      <trkpt lat="46.63013" lon="6.52547">
        <ele>491.1</ele>
        <time>2022-09-28T14:07:22Z</time>
      </trkpt>
      <trkpt lat="46.63015" lon="6.52545">
        <ele>491.3</ele>
        <time>2022-09-28T14:07:23Z</time>
      </trkpt>
      <trkpt lat="46.63016" lon="6.52545">
        <ele>491.3</ele>
        <time>2022-09-28T14:07:24Z</time>
      </trkpt>
      <trkpt lat="46.63016" lon="6.52544">
        <ele>491.4</ele>
        <time>2022-09-28T14:07:25Z</time>
      </trkpt>
      <trkpt lat="46.63018" lon="6.52543">
        <ele>491.6</ele>
        <time>2022-09-28T14:07:26Z</time>
      </trkpt>
      <trkpt lat="46.6302" lon="6.52542">
        <ele>491.7</ele>
        <time>2022-09-28T14:07:27Z</time>
      </trkpt>
      <trkpt lat="46.63021" lon="6.5254">
        <ele>491.9</ele>
        <time>2022-09-28T14:07:28Z</time>
      </trkpt>
      <trkpt lat="46.63022" lon="6.52539">
        <ele>492</ele>
        <time>2022-09-28T14:07:29Z</time>
      </trkpt>
      <trkpt lat="46.63025" lon="6.52537">
        <ele>492.2</ele>
        <time>2022-09-28T14:07:30Z</time>
      </trkpt>
      <trkpt lat="46.63025" lon="6.52536">
        <ele>492.3</ele>
        <time>2022-09-28T14:07:31Z</time>
      </trkpt>
      <trkpt lat="46.63028" lon="6.52534">
        <ele>492.5</ele>
        <time>2022-09-28T14:07:32Z</time>
      </trkpt>
      <trkpt lat="46.63029" lon="6.52533">
        <ele>492.6</ele>
        <time>2022-09-28T14:07:33Z</time>
      </trkpt>
      <trkpt lat="46.6303" lon="6.52531">
        <ele>492.8</ele>
        <time>2022-09-28T14:07:34Z</time>
      </trkpt>
      <trkpt lat="46.63031" lon="6.5253">
        <ele>492.9</ele>
        <time>2022-09-28T14:07:35Z</time>
      </trkpt>
      <trkpt lat="46.63033" lon="6.52527">
        <ele>493.1</ele>
        <time>2022-09-28T14:07:36Z</time>
      </trkpt>
      <trkpt lat="46.63034" lon="6.52526">
        <ele>493.2</ele>
        <time>2022-09-28T14:07:37Z</time>
      </trkpt>
      <trkpt lat="46.63035" lon="6.52524">
        <ele>493.3</ele>
        <time>2022-09-28T14:07:38Z</time>
      </trkpt>
      <trkpt lat="46.63036" lon="6.52522">
        <ele>493.4</ele>
        <time>2022-09-28T14:07:39Z</time>
      </trkpt>
      <trkpt lat="46.63037" lon="6.5252">
        <ele>493.4</ele>
        <time>2022-09-28T14:07:40Z</time>
      </trkpt>
      <trkpt lat="46.63037" lon="6.52518">
        <ele>493.5</ele>
        <time>2022-09-28T14:07:41Z</time>
      </trkpt>
      <trkpt lat="46.63038" lon="6.52515">
        <ele>493.5</ele>
        <time>2022-09-28T14:07:42Z</time>
      </trkpt>
      <trkpt lat="46.63039" lon="6.52514">
        <ele>493.5</ele>
        <time>2022-09-28T14:07:43Z</time>
      </trkpt>
      <trkpt lat="46.6304" lon="6.52512">
        <ele>493.6</ele>
        <time>2022-09-28T14:07:44Z</time>
      </trkpt>
      <trkpt lat="46.63041" lon="6.5251">
        <ele>493.6</ele>
        <time>2022-09-28T14:07:45Z</time>
      </trkpt>
      <trkpt lat="46.63042" lon="6.52508">
        <ele>493.6</ele>
        <time>2022-09-28T14:07:46Z</time>
      </trkpt>
      <trkpt lat="46.63043" lon="6.52506">
        <ele>493.7</ele>
        <time>2022-09-28T14:07:47Z</time>
      </trkpt>
      <trkpt lat="46.63044" lon="6.52505">
        <ele>493.7</ele>
        <time>2022-09-28T14:07:48Z</time>
      </trkpt>
      <trkpt lat="46.63046" lon="6.52506">
        <ele>493.7</ele>
        <time>2022-09-28T14:07:49Z</time>
      </trkpt>
      <trkpt lat="46.63047" lon="6.52505">
        <ele>493.7</ele>
        <time>2022-09-28T14:07:50Z</time>
      </trkpt>
      <trkpt lat="46.63049" lon="6.52506">
        <ele>493.7</ele>
        <time>2022-09-28T14:07:51Z</time>
      </trkpt>
      <trkpt lat="46.6305" lon="6.52508">
        <ele>493.6</ele>
        <time>2022-09-28T14:07:52Z</time>
      </trkpt>
      <trkpt lat="46.63051" lon="6.52509">
        <ele>493.6</ele>
        <time>2022-09-28T14:07:53Z</time>
      </trkpt>
      <trkpt lat="46.63054" lon="6.52512">
        <ele>493.5</ele>
        <time>2022-09-28T14:07:54Z</time>
      </trkpt>
      <trkpt lat="46.63055" lon="6.52512">
        <ele>493.5</ele>
        <time>2022-09-28T14:07:55Z</time>
      </trkpt>
      <trkpt lat="46.63058" lon="6.52515">
        <ele>493.4</ele>
        <time>2022-09-28T14:07:56Z</time>
      </trkpt>
      <trkpt lat="46.63059" lon="6.52516">
        <ele>493.4</ele>
        <time>2022-09-28T14:07:57Z</time>
      </trkpt>
      <trkpt lat="46.63061" lon="6.52519">
        <ele>493.4</ele>
        <time>2022-09-28T14:07:58Z</time>
      </trkpt>
      <trkpt lat="46.63064" lon="6.52522">
        <ele>493.3</ele>
        <time>2022-09-28T14:07:59Z</time>
      </trkpt>
      <trkpt lat="46.63067" lon="6.52526">
        <ele>493.2</ele>
        <time>2022-09-28T14:08:00Z</time>
      </trkpt>
      <trkpt lat="46.6307" lon="6.52531">
        <ele>493.2</ele>
        <time>2022-09-28T14:08:01Z</time>
      </trkpt>
      <trkpt lat="46.63073" lon="6.52536">
        <ele>493.2</ele>
        <time>2022-09-28T14:08:02Z</time>
      </trkpt>
      <trkpt lat="46.63077" lon="6.52541">
        <ele>493.1</ele>
        <time>2022-09-28T14:08:03Z</time>
      </trkpt>
      <trkpt lat="46.63081" lon="6.52545">
        <ele>493.1</ele>
        <time>2022-09-28T14:08:04Z</time>
      </trkpt>
      <trkpt lat="46.63084" lon="6.5255">
        <ele>493.1</ele>
        <time>2022-09-28T14:08:05Z</time>
      </trkpt>
      <trkpt lat="46.63089" lon="6.52556">
        <ele>493.1</ele>
        <time>2022-09-28T14:08:06Z</time>
      </trkpt>
      <trkpt lat="46.63093" lon="6.52561">
        <ele>493.1</ele>
        <time>2022-09-28T14:08:07Z</time>
      </trkpt>
      <trkpt lat="46.63098" lon="6.52565">
        <ele>493.2</ele>
        <time>2022-09-28T14:08:08Z</time>
      </trkpt>
      <trkpt lat="46.63102" lon="6.52568">
        <ele>493.3</ele>
        <time>2022-09-28T14:08:09Z</time>
      </trkpt>
      <trkpt lat="46.63106" lon="6.52569">
        <ele>493.4</ele>
        <time>2022-09-28T14:08:10Z</time>
      </trkpt>
      <trkpt lat="46.63109" lon="6.52572">
        <ele>493.4</ele>
        <time>2022-09-28T14:08:11Z</time>
      </trkpt>
      <trkpt lat="46.63112" lon="6.52573">
        <ele>493.5</ele>
        <time>2022-09-28T14:08:12Z</time>
      </trkpt>
      <trkpt lat="46.63116" lon="6.52575">
        <ele>493.5</ele>
        <time>2022-09-28T14:08:13Z</time>
      </trkpt>
      <trkpt lat="46.63119" lon="6.52576">
        <ele>493.6</ele>
        <time>2022-09-28T14:08:14Z</time>
      </trkpt>
      <trkpt lat="46.63122" lon="6.52578">
        <ele>493.7</ele>
        <time>2022-09-28T14:08:15Z</time>
      </trkpt>
      <trkpt lat="46.63125" lon="6.52579">
        <ele>493.7</ele>
        <time>2022-09-28T14:08:16Z</time>
      </trkpt>
      <trkpt lat="46.63128" lon="6.5258">
        <ele>493.8</ele>
        <time>2022-09-28T14:08:17Z</time>
      </trkpt>
      <trkpt lat="46.6313" lon="6.52583">
        <ele>493.8</ele>
        <time>2022-09-28T14:08:18Z</time>
      </trkpt>
      <trkpt lat="46.63133" lon="6.52584">
        <ele>493.9</ele>
        <time>2022-09-28T14:08:19Z</time>
      </trkpt>
      <trkpt lat="46.63136" lon="6.52586">
        <ele>493.9</ele>
        <time>2022-09-28T14:08:20Z</time>
      </trkpt>
      <trkpt lat="46.63138" lon="6.52588">
        <ele>494</ele>
        <time>2022-09-28T14:08:21Z</time>
      </trkpt>
      <trkpt lat="46.63141" lon="6.52589">
        <ele>494</ele>
        <time>2022-09-28T14:08:22Z</time>
      </trkpt>
      <trkpt lat="46.63144" lon="6.52591">
        <ele>494.1</ele>
        <time>2022-09-28T14:08:23Z</time>
      </trkpt>
      <trkpt lat="46.63147" lon="6.52593">
        <ele>494.1</ele>
        <time>2022-09-28T14:08:24Z</time>
      </trkpt>
      <trkpt lat="46.6315" lon="6.52593">
        <ele>494.2</ele>
        <time>2022-09-28T14:08:25Z</time>
      </trkpt>
      <trkpt lat="46.63153" lon="6.52594">
        <ele>494.2</ele>
        <time>2022-09-28T14:08:26Z</time>
      </trkpt>
      <trkpt lat="46.63156" lon="6.52595">
        <ele>494.3</ele>
        <time>2022-09-28T14:08:27Z</time>
      </trkpt>
      <trkpt lat="46.63159" lon="6.52597">
        <ele>494.3</ele>
        <time>2022-09-28T14:08:28Z</time>
      </trkpt>
      <trkpt lat="46.63163" lon="6.52598">
        <ele>494.4</ele>
        <time>2022-09-28T14:08:29Z</time>
      </trkpt>
      <trkpt lat="46.63166" lon="6.52599">
        <ele>494.5</ele>
        <time>2022-09-28T14:08:30Z</time>
      </trkpt>
      <trkpt lat="46.63169" lon="6.526">
        <ele>494.5</ele>
        <time>2022-09-28T14:08:31Z</time>
      </trkpt>
      <trkpt lat="46.63172" lon="6.52602">
        <ele>494.6</ele>
        <time>2022-09-28T14:08:32Z</time>
      </trkpt>
      <trkpt lat="46.63176" lon="6.52603">
        <ele>494.6</ele>
        <time>2022-09-28T14:08:33Z</time>
      </trkpt>
      <trkpt lat="46.63179" lon="6.52604">
        <ele>494.7</ele>
        <time>2022-09-28T14:08:34Z</time>
      </trkpt>
      <trkpt lat="46.63182" lon="6.52606">
        <ele>494.7</ele>
        <time>2022-09-28T14:08:35Z</time>
      </trkpt>
      <trkpt lat="46.63185" lon="6.52608">
        <ele>494.8</ele>
        <time>2022-09-28T14:08:36Z</time>
      </trkpt>
      <trkpt lat="46.63188" lon="6.52609">
        <ele>494.8</ele>
        <time>2022-09-28T14:08:37Z</time>
      </trkpt>
      <trkpt lat="46.63191" lon="6.52611">
        <ele>494.9</ele>
        <time>2022-09-28T14:08:38Z</time>
      </trkpt>
      <trkpt lat="46.63194" lon="6.52613">
        <ele>494.9</ele>
        <time>2022-09-28T14:08:39Z</time>
      </trkpt>
      <trkpt lat="46.63197" lon="6.52615">
        <ele>495</ele>
        <time>2022-09-28T14:08:40Z</time>
      </trkpt>
      <trkpt lat="46.632" lon="6.52617">
        <ele>495</ele>
        <time>2022-09-28T14:08:41Z</time>
      </trkpt>
      <trkpt lat="46.63203" lon="6.52619">
        <ele>495.1</ele>
        <time>2022-09-28T14:08:42Z</time>
      </trkpt>
      <trkpt lat="46.63206" lon="6.52621">
        <ele>495.1</ele>
        <time>2022-09-28T14:08:43Z</time>
      </trkpt>
      <trkpt lat="46.63209" lon="6.52623">
        <ele>495.2</ele>
        <time>2022-09-28T14:08:44Z</time>
      </trkpt>
      <trkpt lat="46.63212" lon="6.52625">
        <ele>495.2</ele>
        <time>2022-09-28T14:08:45Z</time>
      </trkpt>
      <trkpt lat="46.63216" lon="6.52627">
        <ele>495.3</ele>
        <time>2022-09-28T14:08:46Z</time>
      </trkpt>
      <trkpt lat="46.63219" lon="6.52629">
        <ele>495.3</ele>
        <time>2022-09-28T14:08:47Z</time>
      </trkpt>
      <trkpt lat="46.63222" lon="6.52631">
        <ele>495.4</ele>
        <time>2022-09-28T14:08:48Z</time>
      </trkpt>
      <trkpt lat="46.63225" lon="6.52633">
        <ele>495.4</ele>
        <time>2022-09-28T14:08:49Z</time>
      </trkpt>
      <trkpt lat="46.63228" lon="6.52635">
        <ele>495.4</ele>
        <time>2022-09-28T14:08:50Z</time>
      </trkpt>
      <trkpt lat="46.63231" lon="6.52637">
        <ele>495.5</ele>
        <time>2022-09-28T14:08:51Z</time>
      </trkpt>
      <trkpt lat="46.63234" lon="6.52639">
        <ele>495.5</ele>
        <time>2022-09-28T14:08:52Z</time>
      </trkpt>
      <trkpt lat="46.63237" lon="6.5264">
        <ele>495.5</ele>
        <time>2022-09-28T14:08:53Z</time>
      </trkpt>
      <trkpt lat="46.6324" lon="6.52641">
        <ele>495.5</ele>
        <time>2022-09-28T14:08:54Z</time>
      </trkpt>
      <trkpt lat="46.63243" lon="6.52644">
        <ele>495.6</ele>
        <time>2022-09-28T14:08:55Z</time>
      </trkpt>
      <trkpt lat="46.63246" lon="6.52646">
        <ele>495.6</ele>
        <time>2022-09-28T14:08:56Z</time>
      </trkpt>
      <trkpt lat="46.63249" lon="6.52648">
        <ele>495.6</ele>
        <time>2022-09-28T14:08:57Z</time>
      </trkpt>
      <trkpt lat="46.63252" lon="6.5265">
        <ele>495.6</ele>
        <time>2022-09-28T14:08:58Z</time>
      </trkpt>
      <trkpt lat="46.63255" lon="6.52652">
        <ele>495.6</ele>
        <time>2022-09-28T14:08:59Z</time>
      </trkpt>
      <trkpt lat="46.63258" lon="6.52654">
        <ele>495.7</ele>
        <time>2022-09-28T14:09:00Z</time>
      </trkpt>
      <trkpt lat="46.63262" lon="6.52657">
        <ele>495.7</ele>
        <time>2022-09-28T14:09:01Z</time>
      </trkpt>
      <trkpt lat="46.63265" lon="6.52659">
        <ele>495.7</ele>
        <time>2022-09-28T14:09:02Z</time>
      </trkpt>
      <trkpt lat="46.63268" lon="6.52661">
        <ele>495.7</ele>
        <time>2022-09-28T14:09:03Z</time>
      </trkpt>
      <trkpt lat="46.63272" lon="6.52664">
        <ele>495.7</ele>
        <time>2022-09-28T14:09:04Z</time>
      </trkpt>
      <trkpt lat="46.63275" lon="6.52666">
        <ele>495.7</ele>
        <time>2022-09-28T14:09:05Z</time>
      </trkpt>
      <trkpt lat="46.63278" lon="6.52668">
        <ele>495.7</ele>
        <time>2022-09-28T14:09:06Z</time>
      </trkpt>
      <trkpt lat="46.63281" lon="6.52671">
        <ele>495.7</ele>
        <time>2022-09-28T14:09:07Z</time>
      </trkpt>
      <trkpt lat="46.63284" lon="6.52672">
        <ele>495.7</ele>
        <time>2022-09-28T14:09:08Z</time>
      </trkpt>
      <trkpt lat="46.63286" lon="6.52674">
        <ele>495.7</ele>
        <time>2022-09-28T14:09:09Z</time>
      </trkpt>
      <trkpt lat="46.63289" lon="6.52675">
        <ele>495.7</ele>
        <time>2022-09-28T14:09:10Z</time>
      </trkpt>
      <trkpt lat="46.63292" lon="6.52677">
        <ele>495.7</ele>
        <time>2022-09-28T14:09:11Z</time>
      </trkpt>
      <trkpt lat="46.63295" lon="6.5268">
        <ele>495.7</ele>
        <time>2022-09-28T14:09:12Z</time>
      </trkpt>
      <trkpt lat="46.63298" lon="6.52683">
        <ele>495.7</ele>
        <time>2022-09-28T14:09:13Z</time>
      </trkpt>
      <trkpt lat="46.63301" lon="6.52685">
        <ele>495.6</ele>
        <time>2022-09-28T14:09:14Z</time>
      </trkpt>
      <trkpt lat="46.63304" lon="6.52687">
        <ele>495.6</ele>
        <time>2022-09-28T14:09:15Z</time>
      </trkpt>
      <trkpt lat="46.63308" lon="6.5269">
        <ele>495.6</ele>
        <time>2022-09-28T14:09:16Z</time>
      </trkpt>
      <trkpt lat="46.63312" lon="6.52692">
        <ele>495.5</ele>
        <time>2022-09-28T14:09:17Z</time>
      </trkpt>
      <trkpt lat="46.63316" lon="6.52695">
        <ele>495.5</ele>
        <time>2022-09-28T14:09:18Z</time>
      </trkpt>
      <trkpt lat="46.63319" lon="6.52697">
        <ele>495.4</ele>
        <time>2022-09-28T14:09:19Z</time>
      </trkpt>
      <trkpt lat="46.63323" lon="6.52699">
        <ele>495.4</ele>
        <time>2022-09-28T14:09:20Z</time>
      </trkpt>
      <trkpt lat="46.63327" lon="6.52702">
        <ele>495.3</ele>
        <time>2022-09-28T14:09:21Z</time>
      </trkpt>
      <trkpt lat="46.63331" lon="6.52704">
        <ele>495.3</ele>
        <time>2022-09-28T14:09:22Z</time>
      </trkpt>
      <trkpt lat="46.63335" lon="6.52707">
        <ele>495.2</ele>
        <time>2022-09-28T14:09:23Z</time>
      </trkpt>
      <trkpt lat="46.63339" lon="6.5271">
        <ele>495.2</ele>
        <time>2022-09-28T14:09:24Z</time>
      </trkpt>
      <trkpt lat="46.63343" lon="6.52713">
        <ele>495.1</ele>
        <time>2022-09-28T14:09:25Z</time>
      </trkpt>
      <trkpt lat="46.63347" lon="6.52715">
        <ele>495</ele>
        <time>2022-09-28T14:09:26Z</time>
      </trkpt>
      <trkpt lat="46.63351" lon="6.52718">
        <ele>495</ele>
        <time>2022-09-28T14:09:27Z</time>
      </trkpt>
      <trkpt lat="46.63355" lon="6.52721">
        <ele>494.9</ele>
        <time>2022-09-28T14:09:28Z</time>
      </trkpt>
      <trkpt lat="46.63359" lon="6.52723">
        <ele>494.8</ele>
        <time>2022-09-28T14:09:29Z</time>
      </trkpt>
      <trkpt lat="46.63364" lon="6.52727">
        <ele>494.8</ele>
        <time>2022-09-28T14:09:30Z</time>
      </trkpt>
      <trkpt lat="46.63368" lon="6.5273">
        <ele>494.7</ele>
        <time>2022-09-28T14:09:31Z</time>
      </trkpt>
      <trkpt lat="46.63372" lon="6.52733">
        <ele>494.6</ele>
        <time>2022-09-28T14:09:32Z</time>
      </trkpt>
      <trkpt lat="46.63377" lon="6.52736">
        <ele>494.6</ele>
        <time>2022-09-28T14:09:33Z</time>
      </trkpt>
      <trkpt lat="46.63382" lon="6.52739">
        <ele>494.5</ele>
        <time>2022-09-28T14:09:34Z</time>
      </trkpt>
      <trkpt lat="46.63386" lon="6.52742">
        <ele>494.4</ele>
        <time>2022-09-28T14:09:35Z</time>
      </trkpt>
      <trkpt lat="46.63391" lon="6.52745">
        <ele>494.4</ele>
        <time>2022-09-28T14:09:36Z</time>
      </trkpt>
      <trkpt lat="46.63395" lon="6.52748">
        <ele>494.3</ele>
        <time>2022-09-28T14:09:37Z</time>
      </trkpt>
      <trkpt lat="46.634" lon="6.52751">
        <ele>494.2</ele>
        <time>2022-09-28T14:09:38Z</time>
      </trkpt>
      <trkpt lat="46.63404" lon="6.52754">
        <ele>494.1</ele>
        <time>2022-09-28T14:09:39Z</time>
      </trkpt>
      <trkpt lat="46.63409" lon="6.52758">
        <ele>494</ele>
        <time>2022-09-28T14:09:40Z</time>
      </trkpt>
      <trkpt lat="46.63414" lon="6.52761">
        <ele>493.9</ele>
        <time>2022-09-28T14:09:41Z</time>
      </trkpt>
      <trkpt lat="46.63418" lon="6.52764">
        <ele>493.8</ele>
        <time>2022-09-28T14:09:42Z</time>
      </trkpt>
      <trkpt lat="46.63423" lon="6.52768">
        <ele>493.7</ele>
        <time>2022-09-28T14:09:43Z</time>
      </trkpt>
      <trkpt lat="46.63428" lon="6.52771">
        <ele>493.6</ele>
        <time>2022-09-28T14:09:44Z</time>
      </trkpt>
      <trkpt lat="46.63432" lon="6.52774">
        <ele>493.5</ele>
        <time>2022-09-28T14:09:45Z</time>
      </trkpt>
      <trkpt lat="46.63437" lon="6.52777">
        <ele>493.5</ele>
        <time>2022-09-28T14:09:46Z</time>
      </trkpt>
      <trkpt lat="46.63441" lon="6.5278">
        <ele>493.4</ele>
        <time>2022-09-28T14:09:47Z</time>
      </trkpt>
      <trkpt lat="46.63446" lon="6.52783">
        <ele>493.3</ele>
        <time>2022-09-28T14:09:48Z</time>
      </trkpt>
      <trkpt lat="46.6345" lon="6.52787">
        <ele>493.3</ele>
        <time>2022-09-28T14:09:49Z</time>
      </trkpt>
      <trkpt lat="46.63455" lon="6.5279">
        <ele>493.2</ele>
        <time>2022-09-28T14:09:50Z</time>
      </trkpt>
      <trkpt lat="46.6346" lon="6.52793">
        <ele>493.1</ele>
        <time>2022-09-28T14:09:51Z</time>
      </trkpt>
      <trkpt lat="46.63465" lon="6.52796">
        <ele>493</ele>
        <time>2022-09-28T14:09:52Z</time>
      </trkpt>
      <trkpt lat="46.63469" lon="6.52799">
        <ele>493</ele>
        <time>2022-09-28T14:09:53Z</time>
      </trkpt>
      <trkpt lat="46.63474" lon="6.52803">
        <ele>492.9</ele>
        <time>2022-09-28T14:09:54Z</time>
      </trkpt>
      <trkpt lat="46.63479" lon="6.52806">
        <ele>492.8</ele>
        <time>2022-09-28T14:09:55Z</time>
      </trkpt>
      <trkpt lat="46.63484" lon="6.52809">
        <ele>492.7</ele>
        <time>2022-09-28T14:09:56Z</time>
      </trkpt>
      <trkpt lat="46.63489" lon="6.52813">
        <ele>492.7</ele>
        <time>2022-09-28T14:09:57Z</time>
      </trkpt>
      <trkpt lat="46.63493" lon="6.52817">
        <ele>492.6</ele>
        <time>2022-09-28T14:09:58Z</time>
      </trkpt>
      <trkpt lat="46.63499" lon="6.5282">
        <ele>492.5</ele>
        <time>2022-09-28T14:09:59Z</time>
      </trkpt>
      <trkpt lat="46.63503" lon="6.52823">
        <ele>492.4</ele>
        <time>2022-09-28T14:10:00Z</time>
      </trkpt>
      <trkpt lat="46.63508" lon="6.52827">
        <ele>492.4</ele>
        <time>2022-09-28T14:10:01Z</time>
      </trkpt>
      <trkpt lat="46.63514" lon="6.52831">
        <ele>492.3</ele>
        <time>2022-09-28T14:10:02Z</time>
      </trkpt>
      <trkpt lat="46.63519" lon="6.52834">
        <ele>492.2</ele>
        <time>2022-09-28T14:10:03Z</time>
      </trkpt>
      <trkpt lat="46.63524" lon="6.52838">
        <ele>492.2</ele>
        <time>2022-09-28T14:10:04Z</time>
      </trkpt>
      <trkpt lat="46.63529" lon="6.5284">
        <ele>492.1</ele>
        <time>2022-09-28T14:10:05Z</time>
      </trkpt>
      <trkpt lat="46.63534" lon="6.52845">
        <ele>492</ele>
        <time>2022-09-28T14:10:06Z</time>
      </trkpt>
      <trkpt lat="46.63539" lon="6.52848">
        <ele>492</ele>
        <time>2022-09-28T14:10:07Z</time>
      </trkpt>
      <trkpt lat="46.63543" lon="6.52852">
        <ele>491.9</ele>
        <time>2022-09-28T14:10:08Z</time>
      </trkpt>
      <trkpt lat="46.63549" lon="6.52855">
        <ele>491.8</ele>
        <time>2022-09-28T14:10:09Z</time>
      </trkpt>
      <trkpt lat="46.63554" lon="6.5286">
        <ele>491.7</ele>
        <time>2022-09-28T14:10:10Z</time>
      </trkpt>
      <trkpt lat="46.63559" lon="6.52863">
        <ele>491.7</ele>
        <time>2022-09-28T14:10:11Z</time>
      </trkpt>
      <trkpt lat="46.63564" lon="6.52867">
        <ele>491.6</ele>
        <time>2022-09-28T14:10:12Z</time>
      </trkpt>
      <trkpt lat="46.6357" lon="6.5287">
        <ele>491.6</ele>
        <time>2022-09-28T14:10:13Z</time>
      </trkpt>
      <trkpt lat="46.63575" lon="6.52874">
        <ele>491.5</ele>
        <time>2022-09-28T14:10:14Z</time>
      </trkpt>
      <trkpt lat="46.63581" lon="6.52879">
        <ele>491.5</ele>
        <time>2022-09-28T14:10:15Z</time>
      </trkpt>
      <trkpt lat="46.63586" lon="6.52882">
        <ele>491.5</ele>
        <time>2022-09-28T14:10:16Z</time>
      </trkpt>
      <trkpt lat="46.63591" lon="6.52886">
        <ele>491.5</ele>
        <time>2022-09-28T14:10:17Z</time>
      </trkpt>
      <trkpt lat="46.63595" lon="6.5289">
        <ele>491.4</ele>
        <time>2022-09-28T14:10:18Z</time>
      </trkpt>
      <trkpt lat="46.636" lon="6.52895">
        <ele>491.4</ele>
        <time>2022-09-28T14:10:19Z</time>
      </trkpt>
      <trkpt lat="46.63605" lon="6.529">
        <ele>491.3</ele>
        <time>2022-09-28T14:10:20Z</time>
      </trkpt>
      <trkpt lat="46.6361" lon="6.52905">
        <ele>491.3</ele>
        <time>2022-09-28T14:10:21Z</time>
      </trkpt>
      <trkpt lat="46.63615" lon="6.5291">
        <ele>491.3</ele>
        <time>2022-09-28T14:10:22Z</time>
      </trkpt>
      <trkpt lat="46.63619" lon="6.52915">
        <ele>491.2</ele>
        <time>2022-09-28T14:10:23Z</time>
      </trkpt>
      <trkpt lat="46.63623" lon="6.52919">
        <ele>491.2</ele>
        <time>2022-09-28T14:10:24Z</time>
      </trkpt>
      <trkpt lat="46.63627" lon="6.52925">
        <ele>491.2</ele>
        <time>2022-09-28T14:10:25Z</time>
      </trkpt>
      <trkpt lat="46.63631" lon="6.5293">
        <ele>491.2</ele>
        <time>2022-09-28T14:10:26Z</time>
      </trkpt>
      <trkpt lat="46.63635" lon="6.52935">
        <ele>491.2</ele>
        <time>2022-09-28T14:10:27Z</time>
      </trkpt>
      <trkpt lat="46.63639" lon="6.5294">
        <ele>491.2</ele>
        <time>2022-09-28T14:10:28Z</time>
      </trkpt>
      <trkpt lat="46.63643" lon="6.52944">
        <ele>491.2</ele>
        <time>2022-09-28T14:10:29Z</time>
      </trkpt>
      <trkpt lat="46.63646" lon="6.5295">
        <ele>491.2</ele>
        <time>2022-09-28T14:10:30Z</time>
      </trkpt>
      <trkpt lat="46.6365" lon="6.52955">
        <ele>491.2</ele>
        <time>2022-09-28T14:10:31Z</time>
      </trkpt>
      <trkpt lat="46.63653" lon="6.52959">
        <ele>491.2</ele>
        <time>2022-09-28T14:10:32Z</time>
      </trkpt>
      <trkpt lat="46.63657" lon="6.52964">
        <ele>491.3</ele>
        <time>2022-09-28T14:10:33Z</time>
      </trkpt>
      <trkpt lat="46.63661" lon="6.52968">
        <ele>491.3</ele>
        <time>2022-09-28T14:10:34Z</time>
      </trkpt>
      <trkpt lat="46.63664" lon="6.52973">
        <ele>491.3</ele>
        <time>2022-09-28T14:10:35Z</time>
      </trkpt>
      <trkpt lat="46.63668" lon="6.52977">
        <ele>491.3</ele>
        <time>2022-09-28T14:10:36Z</time>
      </trkpt>
      <trkpt lat="46.63672" lon="6.52981">
        <ele>491.3</ele>
        <time>2022-09-28T14:10:37Z</time>
      </trkpt>
      <trkpt lat="46.63676" lon="6.52985">
        <ele>491.4</ele>
        <time>2022-09-28T14:10:38Z</time>
      </trkpt>
      <trkpt lat="46.6368" lon="6.52988">
        <ele>491.4</ele>
        <time>2022-09-28T14:10:39Z</time>
      </trkpt>
      <trkpt lat="46.63683" lon="6.52993">
        <ele>491.4</ele>
        <time>2022-09-28T14:10:40Z</time>
      </trkpt>
      <trkpt lat="46.63687" lon="6.52997">
        <ele>491.4</ele>
        <time>2022-09-28T14:10:41Z</time>
      </trkpt>
      <trkpt lat="46.63691" lon="6.53">
        <ele>491.4</ele>
        <time>2022-09-28T14:10:42Z</time>
      </trkpt>
      <trkpt lat="46.63695" lon="6.53004">
        <ele>491.4</ele>
        <time>2022-09-28T14:10:43Z</time>
      </trkpt>
      <trkpt lat="46.63698" lon="6.53007">
        <ele>491.4</ele>
        <time>2022-09-28T14:10:44Z</time>
      </trkpt>
      <trkpt lat="46.63702" lon="6.53011">
        <ele>491.4</ele>
        <time>2022-09-28T14:10:45Z</time>
      </trkpt>
      <trkpt lat="46.63706" lon="6.53014">
        <ele>491.4</ele>
        <time>2022-09-28T14:10:46Z</time>
      </trkpt>
      <trkpt lat="46.63711" lon="6.53017">
        <ele>491.5</ele>
        <time>2022-09-28T14:10:47Z</time>
      </trkpt>
      <trkpt lat="46.63714" lon="6.5302">
        <ele>491.5</ele>
        <time>2022-09-28T14:10:48Z</time>
      </trkpt>
      <trkpt lat="46.63718" lon="6.53022">
        <ele>491.5</ele>
        <time>2022-09-28T14:10:49Z</time>
      </trkpt>
      <trkpt lat="46.63722" lon="6.53024">
        <ele>491.5</ele>
        <time>2022-09-28T14:10:50Z</time>
      </trkpt>
      <trkpt lat="46.63725" lon="6.53027">
        <ele>491.5</ele>
        <time>2022-09-28T14:10:51Z</time>
      </trkpt>
      <trkpt lat="46.6373" lon="6.53031">
        <ele>491.5</ele>
        <time>2022-09-28T14:10:52Z</time>
      </trkpt>
      <trkpt lat="46.63733" lon="6.53033">
        <ele>491.5</ele>
        <time>2022-09-28T14:10:53Z</time>
      </trkpt>
      <trkpt lat="46.63737" lon="6.53037">
        <ele>491.5</ele>
        <time>2022-09-28T14:10:54Z</time>
      </trkpt>
      <trkpt lat="46.63741" lon="6.5304">
        <ele>491.5</ele>
        <time>2022-09-28T14:10:55Z</time>
      </trkpt>
      <trkpt lat="46.63745" lon="6.53043">
        <ele>491.4</ele>
        <time>2022-09-28T14:10:56Z</time>
      </trkpt>
      <trkpt lat="46.63749" lon="6.53045">
        <ele>491.4</ele>
        <time>2022-09-28T14:10:57Z</time>
      </trkpt>
      <trkpt lat="46.63754" lon="6.53048">
        <ele>491.4</ele>
        <time>2022-09-28T14:10:58Z</time>
      </trkpt>
      <trkpt lat="46.63757" lon="6.53051">
        <ele>491.4</ele>
        <time>2022-09-28T14:10:59Z</time>
      </trkpt>
      <trkpt lat="46.63761" lon="6.53055">
        <ele>491.4</ele>
        <time>2022-09-28T14:11:00Z</time>
      </trkpt>
      <trkpt lat="46.63765" lon="6.53057">
        <ele>491.4</ele>
        <time>2022-09-28T14:11:01Z</time>
      </trkpt>
      <trkpt lat="46.63769" lon="6.5306">
        <ele>491.3</ele>
        <time>2022-09-28T14:11:02Z</time>
      </trkpt>
      <trkpt lat="46.63773" lon="6.53063">
        <ele>491.3</ele>
        <time>2022-09-28T14:11:03Z</time>
      </trkpt>
      <trkpt lat="46.63777" lon="6.53064">
        <ele>491.3</ele>
        <time>2022-09-28T14:11:04Z</time>
      </trkpt>
      <trkpt lat="46.63782" lon="6.53067">
        <ele>491.3</ele>
        <time>2022-09-28T14:11:05Z</time>
      </trkpt>
      <trkpt lat="46.63786" lon="6.5307">
        <ele>491.2</ele>
        <time>2022-09-28T14:11:06Z</time>
      </trkpt>
      <trkpt lat="46.63791" lon="6.53071">
        <ele>491.2</ele>
        <time>2022-09-28T14:11:07Z</time>
      </trkpt>
      <trkpt lat="46.63794" lon="6.53074">
        <ele>491.2</ele>
        <time>2022-09-28T14:11:08Z</time>
      </trkpt>
      <trkpt lat="46.63798" lon="6.53076">
        <ele>491.1</ele>
        <time>2022-09-28T14:11:09Z</time>
      </trkpt>
      <trkpt lat="46.63802" lon="6.53078">
        <ele>491.1</ele>
        <time>2022-09-28T14:11:10Z</time>
      </trkpt>
      <trkpt lat="46.63807" lon="6.53079">
        <ele>491.1</ele>
        <time>2022-09-28T14:11:11Z</time>
      </trkpt>
      <trkpt lat="46.63812" lon="6.53081">
        <ele>491.1</ele>
        <time>2022-09-28T14:11:12Z</time>
      </trkpt>
      <trkpt lat="46.63816" lon="6.53083">
        <ele>491.1</ele>
        <time>2022-09-28T14:11:13Z</time>
      </trkpt>
      <trkpt lat="46.63821" lon="6.53085">
        <ele>491</ele>
        <time>2022-09-28T14:11:14Z</time>
      </trkpt>
      <trkpt lat="46.63826" lon="6.53086">
        <ele>491</ele>
        <time>2022-09-28T14:11:15Z</time>
      </trkpt>
      <trkpt lat="46.63831" lon="6.53088">
        <ele>491</ele>
        <time>2022-09-28T14:11:16Z</time>
      </trkpt>
      <trkpt lat="46.63836" lon="6.5309">
        <ele>491</ele>
        <time>2022-09-28T14:11:17Z</time>
      </trkpt>
      <trkpt lat="46.63841" lon="6.53092">
        <ele>491</ele>
        <time>2022-09-28T14:11:18Z</time>
      </trkpt>
      <trkpt lat="46.63847" lon="6.53093">
        <ele>491.1</ele>
        <time>2022-09-28T14:11:19Z</time>
      </trkpt>
      <trkpt lat="46.63852" lon="6.53094">
        <ele>491.1</ele>
        <time>2022-09-28T14:11:20Z</time>
      </trkpt>
      <trkpt lat="46.63857" lon="6.53097">
        <ele>491.1</ele>
        <time>2022-09-28T14:11:21Z</time>
      </trkpt>
      <trkpt lat="46.63862" lon="6.53098">
        <ele>491.1</ele>
        <time>2022-09-28T14:11:22Z</time>
      </trkpt>
      <trkpt lat="46.63867" lon="6.531">
        <ele>491.2</ele>
        <time>2022-09-28T14:11:23Z</time>
      </trkpt>
      <trkpt lat="46.63872" lon="6.53101">
        <ele>491.2</ele>
        <time>2022-09-28T14:11:24Z</time>
      </trkpt>
      <trkpt lat="46.63877" lon="6.53103">
        <ele>491.2</ele>
        <time>2022-09-28T14:11:25Z</time>
      </trkpt>
      <trkpt lat="46.63881" lon="6.53106">
        <ele>491.2</ele>
        <time>2022-09-28T14:11:26Z</time>
      </trkpt>
      <trkpt lat="46.63886" lon="6.53107">
        <ele>491.3</ele>
        <time>2022-09-28T14:11:27Z</time>
      </trkpt>
      <trkpt lat="46.6389" lon="6.53109">
        <ele>491.3</ele>
        <time>2022-09-28T14:11:28Z</time>
      </trkpt>
      <trkpt lat="46.63895" lon="6.5311">
        <ele>491.3</ele>
        <time>2022-09-28T14:11:29Z</time>
      </trkpt>
      <trkpt lat="46.63898" lon="6.53111">
        <ele>491.4</ele>
        <time>2022-09-28T14:11:30Z</time>
      </trkpt>
      <trkpt lat="46.63903" lon="6.53113">
        <ele>491.5</ele>
        <time>2022-09-28T14:11:31Z</time>
      </trkpt>
      <trkpt lat="46.63907" lon="6.53114">
        <ele>491.5</ele>
        <time>2022-09-28T14:11:32Z</time>
      </trkpt>
      <trkpt lat="46.63911" lon="6.53116">
        <ele>491.6</ele>
        <time>2022-09-28T14:11:33Z</time>
      </trkpt>
      <trkpt lat="46.63915" lon="6.53118">
        <ele>491.7</ele>
        <time>2022-09-28T14:11:34Z</time>
      </trkpt>
      <trkpt lat="46.63919" lon="6.53119">
        <ele>491.8</ele>
        <time>2022-09-28T14:11:35Z</time>
      </trkpt>
      <trkpt lat="46.63923" lon="6.53121">
        <ele>491.9</ele>
        <time>2022-09-28T14:11:36Z</time>
      </trkpt>
      <trkpt lat="46.63927" lon="6.53123">
        <ele>492</ele>
        <time>2022-09-28T14:11:37Z</time>
      </trkpt>
      <trkpt lat="46.63931" lon="6.53124">
        <ele>492.1</ele>
        <time>2022-09-28T14:11:38Z</time>
      </trkpt>
      <trkpt lat="46.63935" lon="6.53125">
        <ele>492.2</ele>
        <time>2022-09-28T14:11:39Z</time>
      </trkpt>
      <trkpt lat="46.63939" lon="6.53127">
        <ele>492.3</ele>
        <time>2022-09-28T14:11:40Z</time>
      </trkpt>
      <trkpt lat="46.63943" lon="6.53128">
        <ele>492.4</ele>
        <time>2022-09-28T14:11:41Z</time>
      </trkpt>
      <trkpt lat="46.63946" lon="6.53129">
        <ele>492.5</ele>
        <time>2022-09-28T14:11:42Z</time>
      </trkpt>
      <trkpt lat="46.6395" lon="6.53131">
        <ele>492.6</ele>
        <time>2022-09-28T14:11:43Z</time>
      </trkpt>
      <trkpt lat="46.63954" lon="6.53133">
        <ele>492.7</ele>
        <time>2022-09-28T14:11:44Z</time>
      </trkpt>
      <trkpt lat="46.63957" lon="6.53134">
        <ele>492.9</ele>
        <time>2022-09-28T14:11:45Z</time>
      </trkpt>
      <trkpt lat="46.63961" lon="6.53135">
        <ele>493</ele>
        <time>2022-09-28T14:11:46Z</time>
      </trkpt>
      <trkpt lat="46.63964" lon="6.53136">
        <ele>493.1</ele>
        <time>2022-09-28T14:11:47Z</time>
      </trkpt>
      <trkpt lat="46.63968" lon="6.53137">
        <ele>493.2</ele>
        <time>2022-09-28T14:11:48Z</time>
      </trkpt>
      <trkpt lat="46.63971" lon="6.53139">
        <ele>493.3</ele>
        <time>2022-09-28T14:11:49Z</time>
      </trkpt>
      <trkpt lat="46.63974" lon="6.5314">
        <ele>493.4</ele>
        <time>2022-09-28T14:11:50Z</time>
      </trkpt>
      <trkpt lat="46.63978" lon="6.53141">
        <ele>493.5</ele>
        <time>2022-09-28T14:11:51Z</time>
      </trkpt>
      <trkpt lat="46.63981" lon="6.53142">
        <ele>493.6</ele>
        <time>2022-09-28T14:11:52Z</time>
      </trkpt>
      <trkpt lat="46.63984" lon="6.53143">
        <ele>493.7</ele>
        <time>2022-09-28T14:11:53Z</time>
      </trkpt>
      <trkpt lat="46.63987" lon="6.53144">
        <ele>493.8</ele>
        <time>2022-09-28T14:11:54Z</time>
      </trkpt>
      <trkpt lat="46.6399" lon="6.53145">
        <ele>493.9</ele>
        <time>2022-09-28T14:11:55Z</time>
      </trkpt>
      <trkpt lat="46.63993" lon="6.53146">
        <ele>494</ele>
        <time>2022-09-28T14:11:56Z</time>
      </trkpt>
      <trkpt lat="46.63996" lon="6.53148">
        <ele>494.1</ele>
        <time>2022-09-28T14:11:57Z</time>
      </trkpt>
      <trkpt lat="46.63999" lon="6.53149">
        <ele>494.2</ele>
        <time>2022-09-28T14:11:58Z</time>
      </trkpt>
      <trkpt lat="46.64003" lon="6.53149">
        <ele>494.3</ele>
        <time>2022-09-28T14:11:59Z</time>
      </trkpt>
      <trkpt lat="46.64006" lon="6.5315">
        <ele>494.4</ele>
        <time>2022-09-28T14:12:00Z</time>
      </trkpt>
      <trkpt lat="46.64009" lon="6.53151">
        <ele>494.5</ele>
        <time>2022-09-28T14:12:01Z</time>
      </trkpt>
      <trkpt lat="46.64012" lon="6.53153">
        <ele>494.6</ele>
        <time>2022-09-28T14:12:02Z</time>
      </trkpt>
      <trkpt lat="46.64015" lon="6.53154">
        <ele>494.7</ele>
        <time>2022-09-28T14:12:03Z</time>
      </trkpt>
      <trkpt lat="46.64018" lon="6.53155">
        <ele>494.8</ele>
        <time>2022-09-28T14:12:04Z</time>
      </trkpt>
      <trkpt lat="46.64021" lon="6.53156">
        <ele>494.8</ele>
        <time>2022-09-28T14:12:05Z</time>
      </trkpt>
      <trkpt lat="46.64024" lon="6.53157">
        <ele>494.9</ele>
        <time>2022-09-28T14:12:06Z</time>
      </trkpt>
      <trkpt lat="46.64027" lon="6.53158">
        <ele>495</ele>
        <time>2022-09-28T14:12:07Z</time>
      </trkpt>
      <trkpt lat="46.6403" lon="6.53159">
        <ele>495</ele>
        <time>2022-09-28T14:12:08Z</time>
      </trkpt>
      <trkpt lat="46.64034" lon="6.53161">
        <ele>495.1</ele>
        <time>2022-09-28T14:12:09Z</time>
      </trkpt>
      <trkpt lat="46.64035" lon="6.53161">
        <ele>495.2</ele>
        <time>2022-09-28T14:12:10Z</time>
      </trkpt>
      <trkpt lat="46.64038" lon="6.53163">
        <ele>495.3</ele>
        <time>2022-09-28T14:12:11Z</time>
      </trkpt>
      <trkpt lat="46.64041" lon="6.53164">
        <ele>495.3</ele>
        <time>2022-09-28T14:12:12Z</time>
      </trkpt>
      <trkpt lat="46.64043" lon="6.53164">
        <ele>495.4</ele>
        <time>2022-09-28T14:12:13Z</time>
      </trkpt>
      <trkpt lat="46.64047" lon="6.53165">
        <ele>495.5</ele>
        <time>2022-09-28T14:12:14Z</time>
      </trkpt>
      <trkpt lat="46.6405" lon="6.53167">
        <ele>495.6</ele>
        <time>2022-09-28T14:12:15Z</time>
      </trkpt>
      <trkpt lat="46.64052" lon="6.53167">
        <ele>495.7</ele>
        <time>2022-09-28T14:12:16Z</time>
      </trkpt>
      <trkpt lat="46.64054" lon="6.53169">
        <ele>495.7</ele>
        <time>2022-09-28T14:12:17Z</time>
      </trkpt>
      <trkpt lat="46.64057" lon="6.53169">
        <ele>495.8</ele>
        <time>2022-09-28T14:12:18Z</time>
      </trkpt>
      <trkpt lat="46.6406" lon="6.5317">
        <ele>495.9</ele>
        <time>2022-09-28T14:12:19Z</time>
      </trkpt>
      <trkpt lat="46.64063" lon="6.53171">
        <ele>496</ele>
        <time>2022-09-28T14:12:20Z</time>
      </trkpt>
      <trkpt lat="46.64065" lon="6.53173">
        <ele>496.1</ele>
        <time>2022-09-28T14:12:21Z</time>
      </trkpt>
      <trkpt lat="46.64068" lon="6.53174">
        <ele>496.1</ele>
        <time>2022-09-28T14:12:22Z</time>
      </trkpt>
      <trkpt lat="46.64071" lon="6.53175">
        <ele>496.2</ele>
        <time>2022-09-28T14:12:23Z</time>
      </trkpt>
      <trkpt lat="46.64075" lon="6.53176">
        <ele>496.3</ele>
        <time>2022-09-28T14:12:24Z</time>
      </trkpt>
      <trkpt lat="46.64076" lon="6.53176">
        <ele>496.3</ele>
        <time>2022-09-28T14:12:25Z</time>
      </trkpt>
      <trkpt lat="46.6408" lon="6.53178">
        <ele>496.4</ele>
        <time>2022-09-28T14:12:26Z</time>
      </trkpt>
      <trkpt lat="46.64081" lon="6.53178">
        <ele>496.5</ele>
        <time>2022-09-28T14:12:27Z</time>
      </trkpt>
      <trkpt lat="46.64085" lon="6.5318">
        <ele>496.6</ele>
        <time>2022-09-28T14:12:28Z</time>
      </trkpt>
      <trkpt lat="46.64086" lon="6.5318">
        <ele>496.6</ele>
        <time>2022-09-28T14:12:29Z</time>
      </trkpt>
      <trkpt lat="46.64089" lon="6.53182">
        <ele>496.7</ele>
        <time>2022-09-28T14:12:30Z</time>
      </trkpt>
      <trkpt lat="46.64091" lon="6.53182">
        <ele>496.7</ele>
        <time>2022-09-28T14:12:31Z</time>
      </trkpt>
      <trkpt lat="46.64094" lon="6.53184">
        <ele>496.8</ele>
        <time>2022-09-28T14:12:32Z</time>
      </trkpt>
      <trkpt lat="46.64095" lon="6.53185">
        <ele>496.8</ele>
        <time>2022-09-28T14:12:33Z</time>
      </trkpt>
      <trkpt lat="46.64098" lon="6.53185">
        <ele>496.8</ele>
        <time>2022-09-28T14:12:34Z</time>
      </trkpt>
      <trkpt lat="46.64102" lon="6.53187">
        <ele>496.9</ele>
        <time>2022-09-28T14:12:35Z</time>
      </trkpt>
      <trkpt lat="46.64103" lon="6.53188">
        <ele>496.9</ele>
        <time>2022-09-28T14:12:36Z</time>
      </trkpt>
      <trkpt lat="46.64107" lon="6.53189">
        <ele>497</ele>
        <time>2022-09-28T14:12:37Z</time>
      </trkpt>
      <trkpt lat="46.64108" lon="6.5319">
        <ele>497</ele>
        <time>2022-09-28T14:12:38Z</time>
      </trkpt>
      <trkpt lat="46.64112" lon="6.53191">
        <ele>497.1</ele>
        <time>2022-09-28T14:12:39Z</time>
      </trkpt>
      <trkpt lat="46.64113" lon="6.53192">
        <ele>497.1</ele>
        <time>2022-09-28T14:12:40Z</time>
      </trkpt>
      <trkpt lat="46.64116" lon="6.53194">
        <ele>497.1</ele>
        <time>2022-09-28T14:12:41Z</time>
      </trkpt>
      <trkpt lat="46.64118" lon="6.53195">
        <ele>497.1</ele>
        <time>2022-09-28T14:12:42Z</time>
      </trkpt>
      <trkpt lat="46.64121" lon="6.53196">
        <ele>497.2</ele>
        <time>2022-09-28T14:12:43Z</time>
      </trkpt>
      <trkpt lat="46.64123" lon="6.53197">
        <ele>497.2</ele>
        <time>2022-09-28T14:12:44Z</time>
      </trkpt>
      <trkpt lat="46.64126" lon="6.53198">
        <ele>497.2</ele>
        <time>2022-09-28T14:12:45Z</time>
      </trkpt>
      <trkpt lat="46.64128" lon="6.53199">
        <ele>497.2</ele>
        <time>2022-09-28T14:12:46Z</time>
      </trkpt>
      <trkpt lat="46.64131" lon="6.532">
        <ele>497.2</ele>
        <time>2022-09-28T14:12:47Z</time>
      </trkpt>
      <trkpt lat="46.64134" lon="6.53202">
        <ele>497.2</ele>
        <time>2022-09-28T14:12:48Z</time>
      </trkpt>
      <trkpt lat="46.64136" lon="6.53203">
        <ele>497.2</ele>
        <time>2022-09-28T14:12:49Z</time>
      </trkpt>
      <trkpt lat="46.6414" lon="6.53204">
        <ele>497.2</ele>
        <time>2022-09-28T14:12:50Z</time>
      </trkpt>
      <trkpt lat="46.64143" lon="6.53207">
        <ele>497.2</ele>
        <time>2022-09-28T14:12:51Z</time>
      </trkpt>
      <trkpt lat="46.64145" lon="6.53208">
        <ele>497.2</ele>
        <time>2022-09-28T14:12:52Z</time>
      </trkpt>
      <trkpt lat="46.64148" lon="6.53209">
        <ele>497.1</ele>
        <time>2022-09-28T14:12:53Z</time>
      </trkpt>
      <trkpt lat="46.64152" lon="6.53211">
        <ele>497.1</ele>
        <time>2022-09-28T14:12:54Z</time>
      </trkpt>
      <trkpt lat="46.64153" lon="6.53212">
        <ele>497.1</ele>
        <time>2022-09-28T14:12:55Z</time>
      </trkpt>
      <trkpt lat="46.64156" lon="6.53213">
        <ele>497</ele>
        <time>2022-09-28T14:12:56Z</time>
      </trkpt>
      <trkpt lat="46.64159" lon="6.53215">
        <ele>497</ele>
        <time>2022-09-28T14:12:57Z</time>
      </trkpt>
      <trkpt lat="46.64163" lon="6.53217">
        <ele>496.9</ele>
        <time>2022-09-28T14:12:58Z</time>
      </trkpt>
      <trkpt lat="46.64164" lon="6.53218">
        <ele>496.9</ele>
        <time>2022-09-28T14:12:59Z</time>
      </trkpt>
      <trkpt lat="46.64168" lon="6.53219">
        <ele>496.8</ele>
        <time>2022-09-28T14:13:00Z</time>
      </trkpt>
      <trkpt lat="46.64171" lon="6.5322">
        <ele>496.7</ele>
        <time>2022-09-28T14:13:01Z</time>
      </trkpt>
      <trkpt lat="46.64175" lon="6.53223">
        <ele>496.6</ele>
        <time>2022-09-28T14:13:02Z</time>
      </trkpt>
      <trkpt lat="46.64179" lon="6.53225">
        <ele>496.5</ele>
        <time>2022-09-28T14:13:03Z</time>
      </trkpt>
      <trkpt lat="46.64183" lon="6.53227">
        <ele>496.4</ele>
        <time>2022-09-28T14:13:04Z</time>
      </trkpt>
      <trkpt lat="46.64187" lon="6.53228">
        <ele>496.3</ele>
        <time>2022-09-28T14:13:05Z</time>
      </trkpt>
      <trkpt lat="46.64191" lon="6.53231">
        <ele>496.2</ele>
        <time>2022-09-28T14:13:06Z</time>
      </trkpt>
      <trkpt lat="46.64195" lon="6.53234">
        <ele>496</ele>
        <time>2022-09-28T14:13:07Z</time>
      </trkpt>
      <trkpt lat="46.642" lon="6.53236">
        <ele>495.9</ele>
        <time>2022-09-28T14:13:08Z</time>
      </trkpt>
      <trkpt lat="46.64204" lon="6.53238">
        <ele>495.7</ele>
        <time>2022-09-28T14:13:09Z</time>
      </trkpt>
      <trkpt lat="46.64209" lon="6.53241">
        <ele>495.5</ele>
        <time>2022-09-28T14:13:10Z</time>
      </trkpt>
      <trkpt lat="46.64213" lon="6.53243">
        <ele>495.4</ele>
        <time>2022-09-28T14:13:11Z</time>
      </trkpt>
      <trkpt lat="46.64218" lon="6.53246">
        <ele>495.2</ele>
        <time>2022-09-28T14:13:12Z</time>
      </trkpt>
      <trkpt lat="46.64223" lon="6.53249">
        <ele>495</ele>
        <time>2022-09-28T14:13:13Z</time>
      </trkpt>
      <trkpt lat="46.64228" lon="6.53251">
        <ele>494.8</ele>
        <time>2022-09-28T14:13:14Z</time>
      </trkpt>
      <trkpt lat="46.64233" lon="6.53254">
        <ele>494.6</ele>
        <time>2022-09-28T14:13:15Z</time>
      </trkpt>
      <trkpt lat="46.64237" lon="6.53257">
        <ele>494.5</ele>
        <time>2022-09-28T14:13:16Z</time>
      </trkpt>
      <trkpt lat="46.64243" lon="6.53259">
        <ele>494.3</ele>
        <time>2022-09-28T14:13:17Z</time>
      </trkpt>
      <trkpt lat="46.64248" lon="6.53263">
        <ele>494.1</ele>
        <time>2022-09-28T14:13:18Z</time>
      </trkpt>
      <trkpt lat="46.64254" lon="6.53266">
        <ele>493.9</ele>
        <time>2022-09-28T14:13:19Z</time>
      </trkpt>
      <trkpt lat="46.64259" lon="6.53269">
        <ele>493.7</ele>
        <time>2022-09-28T14:13:20Z</time>
      </trkpt>
      <trkpt lat="46.64265" lon="6.53272">
        <ele>493.4</ele>
        <time>2022-09-28T14:13:21Z</time>
      </trkpt>
      <trkpt lat="46.64271" lon="6.53274">
        <ele>493.2</ele>
        <time>2022-09-28T14:13:22Z</time>
      </trkpt>
      <trkpt lat="46.64276" lon="6.53277">
        <ele>493</ele>
        <time>2022-09-28T14:13:23Z</time>
      </trkpt>
      <trkpt lat="46.64282" lon="6.53281">
        <ele>492.7</ele>
        <time>2022-09-28T14:13:24Z</time>
      </trkpt>
      <trkpt lat="46.64288" lon="6.53284">
        <ele>492.5</ele>
        <time>2022-09-28T14:13:25Z</time>
      </trkpt>
      <trkpt lat="46.64293" lon="6.53287">
        <ele>492.3</ele>
        <time>2022-09-28T14:13:26Z</time>
      </trkpt>
      <trkpt lat="46.64299" lon="6.5329">
        <ele>492</ele>
        <time>2022-09-28T14:13:27Z</time>
      </trkpt>
      <trkpt lat="46.64306" lon="6.53294">
        <ele>491.8</ele>
        <time>2022-09-28T14:13:28Z</time>
      </trkpt>
      <trkpt lat="46.64312" lon="6.53297">
        <ele>491.5</ele>
        <time>2022-09-28T14:13:29Z</time>
      </trkpt>
      <trkpt lat="46.64318" lon="6.533">
        <ele>491.2</ele>
        <time>2022-09-28T14:13:30Z</time>
      </trkpt>
      <trkpt lat="46.64324" lon="6.53304">
        <ele>490.9</ele>
        <time>2022-09-28T14:13:31Z</time>
      </trkpt>
      <trkpt lat="46.6433" lon="6.53307">
        <ele>490.6</ele>
        <time>2022-09-28T14:13:32Z</time>
      </trkpt>
      <trkpt lat="46.64336" lon="6.5331">
        <ele>490.2</ele>
        <time>2022-09-28T14:13:33Z</time>
      </trkpt>
      <trkpt lat="46.64342" lon="6.53313">
        <ele>489.9</ele>
        <time>2022-09-28T14:13:34Z</time>
      </trkpt>
      <trkpt lat="46.64348" lon="6.53317">
        <ele>489.6</ele>
        <time>2022-09-28T14:13:35Z</time>
      </trkpt>
      <trkpt lat="46.64354" lon="6.53319">
        <ele>489.2</ele>
        <time>2022-09-28T14:13:36Z</time>
      </trkpt>
      <trkpt lat="46.6436" lon="6.53322">
        <ele>488.9</ele>
        <time>2022-09-28T14:13:37Z</time>
      </trkpt>
      <trkpt lat="46.64365" lon="6.53324">
        <ele>488.5</ele>
        <time>2022-09-28T14:13:38Z</time>
      </trkpt>
      <trkpt lat="46.64371" lon="6.53324">
        <ele>488.2</ele>
        <time>2022-09-28T14:13:39Z</time>
      </trkpt>
      <trkpt lat="46.64377" lon="6.53324">
        <ele>487.8</ele>
        <time>2022-09-28T14:13:40Z</time>
      </trkpt>
      <trkpt lat="46.64383" lon="6.53323">
        <ele>487.4</ele>
        <time>2022-09-28T14:13:41Z</time>
      </trkpt>
      <trkpt lat="46.64389" lon="6.53321">
        <ele>487</ele>
        <time>2022-09-28T14:13:42Z</time>
      </trkpt>
      <trkpt lat="46.64395" lon="6.53319">
        <ele>486.5</ele>
        <time>2022-09-28T14:13:43Z</time>
      </trkpt>
      <trkpt lat="46.64401" lon="6.53315">
        <ele>486.1</ele>
        <time>2022-09-28T14:13:44Z</time>
      </trkpt>
      <trkpt lat="46.64407" lon="6.53311">
        <ele>485.6</ele>
        <time>2022-09-28T14:13:45Z</time>
      </trkpt>
      <trkpt lat="46.64413" lon="6.53306">
        <ele>485.2</ele>
        <time>2022-09-28T14:13:46Z</time>
      </trkpt>
      <trkpt lat="46.64419" lon="6.533">
        <ele>484.7</ele>
        <time>2022-09-28T14:13:47Z</time>
      </trkpt>
      <trkpt lat="46.64425" lon="6.53294">
        <ele>484.2</ele>
        <time>2022-09-28T14:13:48Z</time>
      </trkpt>
      <trkpt lat="46.6443" lon="6.53287">
        <ele>483.7</ele>
        <time>2022-09-28T14:13:49Z</time>
      </trkpt>
      <trkpt lat="46.64436" lon="6.53281">
        <ele>483.3</ele>
        <time>2022-09-28T14:13:50Z</time>
      </trkpt>
      <trkpt lat="46.64441" lon="6.53274">
        <ele>482.8</ele>
        <time>2022-09-28T14:13:51Z</time>
      </trkpt>
      <trkpt lat="46.64447" lon="6.53267">
        <ele>482.3</ele>
        <time>2022-09-28T14:13:52Z</time>
      </trkpt>
      <trkpt lat="46.64452" lon="6.53261">
        <ele>481.8</ele>
        <time>2022-09-28T14:13:53Z</time>
      </trkpt>
      <trkpt lat="46.64458" lon="6.53254">
        <ele>481.3</ele>
        <time>2022-09-28T14:13:54Z</time>
      </trkpt>
      <trkpt lat="46.64463" lon="6.53248">
        <ele>480.9</ele>
        <time>2022-09-28T14:13:55Z</time>
      </trkpt>
      <trkpt lat="46.64468" lon="6.53242">
        <ele>480.4</ele>
        <time>2022-09-28T14:13:56Z</time>
      </trkpt>
      <trkpt lat="46.64474" lon="6.53236">
        <ele>479.9</ele>
        <time>2022-09-28T14:13:57Z</time>
      </trkpt>
      <trkpt lat="46.64479" lon="6.53229">
        <ele>479.4</ele>
        <time>2022-09-28T14:13:58Z</time>
      </trkpt>
      <trkpt lat="46.64485" lon="6.53223">
        <ele>478.9</ele>
        <time>2022-09-28T14:13:59Z</time>
      </trkpt>
      <trkpt lat="46.6449" lon="6.53217">
        <ele>478.4</ele>
        <time>2022-09-28T14:14:00Z</time>
      </trkpt>
      <trkpt lat="46.64496" lon="6.53211">
        <ele>477.9</ele>
        <time>2022-09-28T14:14:01Z</time>
      </trkpt>
      <trkpt lat="46.64502" lon="6.53204">
        <ele>477.4</ele>
        <time>2022-09-28T14:14:02Z</time>
      </trkpt>
      <trkpt lat="46.64508" lon="6.53199">
        <ele>476.9</ele>
        <time>2022-09-28T14:14:03Z</time>
      </trkpt>
      <trkpt lat="46.64514" lon="6.53193">
        <ele>476.4</ele>
        <time>2022-09-28T14:14:04Z</time>
      </trkpt>
      <trkpt lat="46.64519" lon="6.53188">
        <ele>475.9</ele>
        <time>2022-09-28T14:14:05Z</time>
      </trkpt>
      <trkpt lat="46.64525" lon="6.53182">
        <ele>475.5</ele>
        <time>2022-09-28T14:14:06Z</time>
      </trkpt>
      <trkpt lat="46.6453" lon="6.53177">
        <ele>475</ele>
        <time>2022-09-28T14:14:07Z</time>
      </trkpt>
      <trkpt lat="46.64536" lon="6.53172">
        <ele>474.6</ele>
        <time>2022-09-28T14:14:08Z</time>
      </trkpt>
      <trkpt lat="46.64541" lon="6.53167">
        <ele>474.1</ele>
        <time>2022-09-28T14:14:09Z</time>
      </trkpt>
      <trkpt lat="46.64547" lon="6.53162">
        <ele>473.7</ele>
        <time>2022-09-28T14:14:10Z</time>
      </trkpt>
      <trkpt lat="46.64552" lon="6.53157">
        <ele>473.2</ele>
        <time>2022-09-28T14:14:11Z</time>
      </trkpt>
      <trkpt lat="46.64558" lon="6.53153">
        <ele>472.8</ele>
        <time>2022-09-28T14:14:12Z</time>
      </trkpt>
      <trkpt lat="46.64563" lon="6.53148">
        <ele>472.4</ele>
        <time>2022-09-28T14:14:13Z</time>
      </trkpt>
      <trkpt lat="46.64568" lon="6.53143">
        <ele>471.9</ele>
        <time>2022-09-28T14:14:14Z</time>
      </trkpt>
      <trkpt lat="46.64574" lon="6.53138">
        <ele>471.4</ele>
        <time>2022-09-28T14:14:15Z</time>
      </trkpt>
      <trkpt lat="46.64579" lon="6.53134">
        <ele>471</ele>
        <time>2022-09-28T14:14:16Z</time>
      </trkpt>
      <trkpt lat="46.64585" lon="6.5313">
        <ele>470.5</ele>
        <time>2022-09-28T14:14:17Z</time>
      </trkpt>
      <trkpt lat="46.6459" lon="6.53126">
        <ele>470.1</ele>
        <time>2022-09-28T14:14:18Z</time>
      </trkpt>
      <trkpt lat="46.64596" lon="6.53121">
        <ele>469.6</ele>
        <time>2022-09-28T14:14:19Z</time>
      </trkpt>
      <trkpt lat="46.64602" lon="6.53117">
        <ele>469.1</ele>
        <time>2022-09-28T14:14:20Z</time>
      </trkpt>
      <trkpt lat="46.64607" lon="6.53113">
        <ele>468.7</ele>
        <time>2022-09-28T14:14:21Z</time>
      </trkpt>
      <trkpt lat="46.64613" lon="6.5311">
        <ele>468.3</ele>
        <time>2022-09-28T14:14:22Z</time>
      </trkpt>
      <trkpt lat="46.64618" lon="6.53106">
        <ele>467.8</ele>
        <time>2022-09-28T14:14:23Z</time>
      </trkpt>
      <trkpt lat="46.64624" lon="6.53104">
        <ele>467.4</ele>
        <time>2022-09-28T14:14:24Z</time>
      </trkpt>
      <trkpt lat="46.6463" lon="6.531">
        <ele>466.9</ele>
        <time>2022-09-28T14:14:25Z</time>
      </trkpt>
      <trkpt lat="46.64636" lon="6.53097">
        <ele>466.5</ele>
        <time>2022-09-28T14:14:26Z</time>
      </trkpt>
      <trkpt lat="46.64642" lon="6.53094">
        <ele>466</ele>
        <time>2022-09-28T14:14:27Z</time>
      </trkpt>
      <trkpt lat="46.64648" lon="6.53092">
        <ele>465.6</ele>
        <time>2022-09-28T14:14:28Z</time>
      </trkpt>
      <trkpt lat="46.64654" lon="6.5309">
        <ele>465.1</ele>
        <time>2022-09-28T14:14:29Z</time>
      </trkpt>
      <trkpt lat="46.6466" lon="6.53088">
        <ele>464.7</ele>
        <time>2022-09-28T14:14:30Z</time>
      </trkpt>
      <trkpt lat="46.64666" lon="6.53087">
        <ele>464.2</ele>
        <time>2022-09-28T14:14:31Z</time>
      </trkpt>
      <trkpt lat="46.64672" lon="6.53085">
        <ele>463.7</ele>
        <time>2022-09-28T14:14:32Z</time>
      </trkpt>
      <trkpt lat="46.64679" lon="6.53084">
        <ele>463.3</ele>
        <time>2022-09-28T14:14:33Z</time>
      </trkpt>
      <trkpt lat="46.64685" lon="6.53082">
        <ele>462.8</ele>
        <time>2022-09-28T14:14:34Z</time>
      </trkpt>
      <trkpt lat="46.64691" lon="6.5308">
        <ele>462.3</ele>
        <time>2022-09-28T14:14:35Z</time>
      </trkpt>
      <trkpt lat="46.64697" lon="6.53078">
        <ele>461.8</ele>
        <time>2022-09-28T14:14:36Z</time>
      </trkpt>
      <trkpt lat="46.64704" lon="6.53076">
        <ele>461.4</ele>
        <time>2022-09-28T14:14:37Z</time>
      </trkpt>
      <trkpt lat="46.64709" lon="6.53074">
        <ele>461</ele>
        <time>2022-09-28T14:14:38Z</time>
      </trkpt>
      <trkpt lat="46.64716" lon="6.53071">
        <ele>460.5</ele>
        <time>2022-09-28T14:14:39Z</time>
      </trkpt>
      <trkpt lat="46.64721" lon="6.53067">
        <ele>460.1</ele>
        <time>2022-09-28T14:14:40Z</time>
      </trkpt>
      <trkpt lat="46.64727" lon="6.53063">
        <ele>459.7</ele>
        <time>2022-09-28T14:14:41Z</time>
      </trkpt>
      <trkpt lat="46.64732" lon="6.53058">
        <ele>459.4</ele>
        <time>2022-09-28T14:14:42Z</time>
      </trkpt>
      <trkpt lat="46.64738" lon="6.53052">
        <ele>459.1</ele>
        <time>2022-09-28T14:14:43Z</time>
      </trkpt>
      <trkpt lat="46.64742" lon="6.53047">
        <ele>458.8</ele>
        <time>2022-09-28T14:14:44Z</time>
      </trkpt>
      <trkpt lat="46.64747" lon="6.5304">
        <ele>458.5</ele>
        <time>2022-09-28T14:14:45Z</time>
      </trkpt>
      <trkpt lat="46.64751" lon="6.53034">
        <ele>458.3</ele>
        <time>2022-09-28T14:14:46Z</time>
      </trkpt>
      <trkpt lat="46.64755" lon="6.53027">
        <ele>458</ele>
        <time>2022-09-28T14:14:47Z</time>
      </trkpt>
      <trkpt lat="46.64759" lon="6.5302">
        <ele>457.8</ele>
        <time>2022-09-28T14:14:48Z</time>
      </trkpt>
      <trkpt lat="46.64762" lon="6.53013">
        <ele>457.5</ele>
        <time>2022-09-28T14:14:49Z</time>
      </trkpt>
      <trkpt lat="46.64766" lon="6.53006">
        <ele>457.4</ele>
        <time>2022-09-28T14:14:50Z</time>
      </trkpt>
      <trkpt lat="46.6477" lon="6.53001">
        <ele>457.2</ele>
        <time>2022-09-28T14:14:51Z</time>
      </trkpt>
      <trkpt lat="46.64774" lon="6.52996">
        <ele>457</ele>
        <time>2022-09-28T14:14:52Z</time>
      </trkpt>
      <trkpt lat="46.64778" lon="6.5299">
        <ele>456.8</ele>
        <time>2022-09-28T14:14:53Z</time>
      </trkpt>
      <trkpt lat="46.64783" lon="6.52987">
        <ele>456.7</ele>
        <time>2022-09-28T14:14:54Z</time>
      </trkpt>
      <trkpt lat="46.64788" lon="6.52984">
        <ele>456.5</ele>
        <time>2022-09-28T14:14:55Z</time>
      </trkpt>
      <trkpt lat="46.64793" lon="6.52981">
        <ele>456.4</ele>
        <time>2022-09-28T14:14:56Z</time>
      </trkpt>
      <trkpt lat="46.64799" lon="6.52979">
        <ele>456.2</ele>
        <time>2022-09-28T14:14:57Z</time>
      </trkpt>
      <trkpt lat="46.64804" lon="6.52979">
        <ele>456</ele>
        <time>2022-09-28T14:14:58Z</time>
      </trkpt>
      <trkpt lat="46.6481" lon="6.52979">
        <ele>455.9</ele>
        <time>2022-09-28T14:14:59Z</time>
      </trkpt>
      <trkpt lat="46.64814" lon="6.5298">
        <ele>455.8</ele>
        <time>2022-09-28T14:15:00Z</time>
      </trkpt>
      <trkpt lat="46.6482" lon="6.52982">
        <ele>455.8</ele>
        <time>2022-09-28T14:15:01Z</time>
      </trkpt>
      <trkpt lat="46.64823" lon="6.52984">
        <ele>455.8</ele>
        <time>2022-09-28T14:15:02Z</time>
      </trkpt>
      <trkpt lat="46.64827" lon="6.52987">
        <ele>455.7</ele>
        <time>2022-09-28T14:15:03Z</time>
      </trkpt>
      <trkpt lat="46.64833" lon="6.52991">
        <ele>455.6</ele>
        <time>2022-09-28T14:15:04Z</time>
      </trkpt>
      <trkpt lat="46.64837" lon="6.52995">
        <ele>455.5</ele>
        <time>2022-09-28T14:15:05Z</time>
      </trkpt>
      <trkpt lat="46.64842" lon="6.53">
        <ele>455.3</ele>
        <time>2022-09-28T14:15:06Z</time>
      </trkpt>
      <trkpt lat="46.64847" lon="6.53004">
        <ele>455.1</ele>
        <time>2022-09-28T14:15:07Z</time>
      </trkpt>
      <trkpt lat="46.64851" lon="6.53009">
        <ele>454.9</ele>
        <time>2022-09-28T14:15:08Z</time>
      </trkpt>
      <trkpt lat="46.64855" lon="6.53014">
        <ele>454.8</ele>
        <time>2022-09-28T14:15:09Z</time>
      </trkpt>
      <trkpt lat="46.6486" lon="6.53019">
        <ele>454.6</ele>
        <time>2022-09-28T14:15:10Z</time>
      </trkpt>
      <trkpt lat="46.64864" lon="6.53025">
        <ele>454.5</ele>
        <time>2022-09-28T14:15:11Z</time>
      </trkpt>
      <trkpt lat="46.64869" lon="6.53029">
        <ele>454.4</ele>
        <time>2022-09-28T14:15:12Z</time>
      </trkpt>
      <trkpt lat="46.64874" lon="6.53034">
        <ele>454.4</ele>
        <time>2022-09-28T14:15:13Z</time>
      </trkpt>
      <trkpt lat="46.64878" lon="6.53039">
        <ele>454.4</ele>
        <time>2022-09-28T14:15:14Z</time>
      </trkpt>
      <trkpt lat="46.64883" lon="6.53044">
        <ele>454.4</ele>
        <time>2022-09-28T14:15:15Z</time>
      </trkpt>
      <trkpt lat="46.64887" lon="6.53048">
        <ele>454.4</ele>
        <time>2022-09-28T14:15:16Z</time>
      </trkpt>
      <trkpt lat="46.64891" lon="6.53052">
        <ele>454.4</ele>
        <time>2022-09-28T14:15:17Z</time>
      </trkpt>
      <trkpt lat="46.64895" lon="6.53056">
        <ele>454.4</ele>
        <time>2022-09-28T14:15:18Z</time>
      </trkpt>
      <trkpt lat="46.64898" lon="6.5306">
        <ele>454.4</ele>
        <time>2022-09-28T14:15:19Z</time>
      </trkpt>
      <trkpt lat="46.64903" lon="6.53065">
        <ele>454.4</ele>
        <time>2022-09-28T14:15:20Z</time>
      </trkpt>
      <trkpt lat="46.64907" lon="6.53069">
        <ele>454.4</ele>
        <time>2022-09-28T14:15:21Z</time>
      </trkpt>
      <trkpt lat="46.6491" lon="6.53071">
        <ele>454.3</ele>
        <time>2022-09-28T14:15:22Z</time>
      </trkpt>
      <trkpt lat="46.64913" lon="6.53074">
        <ele>454.3</ele>
        <time>2022-09-28T14:15:23Z</time>
      </trkpt>
      <trkpt lat="46.64916" lon="6.53077">
        <ele>454.3</ele>
        <time>2022-09-28T14:15:24Z</time>
      </trkpt>
      <trkpt lat="46.64919" lon="6.5308">
        <ele>454.3</ele>
        <time>2022-09-28T14:15:25Z</time>
      </trkpt>
      <trkpt lat="46.64922" lon="6.53085">
        <ele>454.3</ele>
        <time>2022-09-28T14:15:26Z</time>
      </trkpt>
      <trkpt lat="46.64925" lon="6.53087">
        <ele>454.3</ele>
        <time>2022-09-28T14:15:27Z</time>
      </trkpt>
      <trkpt lat="46.64928" lon="6.53089">
        <ele>454.3</ele>
        <time>2022-09-28T14:15:28Z</time>
      </trkpt>
      <trkpt lat="46.64931" lon="6.5309">
        <ele>454.2</ele>
        <time>2022-09-28T14:15:29Z</time>
      </trkpt>
      <trkpt lat="46.64934" lon="6.53091">
        <ele>454.2</ele>
        <time>2022-09-28T14:15:30Z</time>
      </trkpt>
      <trkpt lat="46.64938" lon="6.53093">
        <ele>454.2</ele>
        <time>2022-09-28T14:15:31Z</time>
      </trkpt>
      <trkpt lat="46.64941" lon="6.53095">
        <ele>454.2</ele>
        <time>2022-09-28T14:15:32Z</time>
      </trkpt>
      <trkpt lat="46.64944" lon="6.53097">
        <ele>454.2</ele>
        <time>2022-09-28T14:15:33Z</time>
      </trkpt>
      <trkpt lat="46.64946" lon="6.53098">
        <ele>454.2</ele>
        <time>2022-09-28T14:15:34Z</time>
      </trkpt>
      <trkpt lat="46.64949" lon="6.53101">
        <ele>454.1</ele>
        <time>2022-09-28T14:15:35Z</time>
      </trkpt>
      <trkpt lat="46.64952" lon="6.53104">
        <ele>453.9</ele>
        <time>2022-09-28T14:15:36Z</time>
      </trkpt>
      <trkpt lat="46.64955" lon="6.53107">
        <ele>453.7</ele>
        <time>2022-09-28T14:15:37Z</time>
      </trkpt>
      <trkpt lat="46.64958" lon="6.5311">
        <ele>453.5</ele>
        <time>2022-09-28T14:15:38Z</time>
      </trkpt>
      <trkpt lat="46.64962" lon="6.53111">
        <ele>453.4</ele>
        <time>2022-09-28T14:15:39Z</time>
      </trkpt>
      <trkpt lat="46.64965" lon="6.53112">
        <ele>453.3</ele>
        <time>2022-09-28T14:15:40Z</time>
      </trkpt>
      <trkpt lat="46.64968" lon="6.53112">
        <ele>453.3</ele>
        <time>2022-09-28T14:15:41Z</time>
      </trkpt>
      <trkpt lat="46.64971" lon="6.53111">
        <ele>453.3</ele>
        <time>2022-09-28T14:15:42Z</time>
      </trkpt>
      <trkpt lat="46.64974" lon="6.53109">
        <ele>453.3</ele>
        <time>2022-09-28T14:15:43Z</time>
      </trkpt>
      <trkpt lat="46.64977" lon="6.53107">
        <ele>453.4</ele>
        <time>2022-09-28T14:15:44Z</time>
      </trkpt>
      <trkpt lat="46.6498" lon="6.53105">
        <ele>453.8</ele>
        <time>2022-09-28T14:15:45Z</time>
      </trkpt>
      <trkpt lat="46.64982" lon="6.53104">
        <ele>454</ele>
        <time>2022-09-28T14:15:46Z</time>
      </trkpt>
      <trkpt lat="46.64985" lon="6.53101">
        <ele>454.2</ele>
        <time>2022-09-28T14:15:47Z</time>
      </trkpt>
      <trkpt lat="46.64986" lon="6.531">
        <ele>454.3</ele>
        <time>2022-09-28T14:15:48Z</time>
      </trkpt>
      <trkpt lat="46.64987" lon="6.53098">
        <ele>454.4</ele>
        <time>2022-09-28T14:15:49Z</time>
      </trkpt>
      <trkpt lat="46.64988" lon="6.53097">
        <ele>454.5</ele>
        <time>2022-09-28T14:15:50Z</time>
      </trkpt>
      <trkpt lat="46.6499" lon="6.53094">
        <ele>454.7</ele>
        <time>2022-09-28T14:15:51Z</time>
      </trkpt>
      <trkpt lat="46.64991" lon="6.53093">
        <ele>454.8</ele>
        <time>2022-09-28T14:15:52Z</time>
      </trkpt>
      <trkpt lat="46.64994" lon="6.5309">
        <ele>455</ele>
        <time>2022-09-28T14:15:53Z</time>
      </trkpt>
      <trkpt lat="46.64995" lon="6.5309">
        <ele>455</ele>
        <time>2022-09-28T14:15:54Z</time>
      </trkpt>
      <trkpt lat="46.64997" lon="6.53087">
        <ele>455</ele>
        <time>2022-09-28T14:15:55Z</time>
      </trkpt>
      <trkpt lat="46.64998" lon="6.53086">
        <ele>454.9</ele>
        <time>2022-09-28T14:15:56Z</time>
      </trkpt>
      <trkpt lat="46.65" lon="6.53085">
        <ele>454.9</ele>
        <time>2022-09-28T14:15:57Z</time>
      </trkpt>
      <trkpt lat="46.65" lon="6.53084">
        <ele>454.9</ele>
        <time>2022-09-28T14:15:58Z</time>
      </trkpt>
      <trkpt lat="46.65001" lon="6.53083">
        <ele>454.9</ele>
        <time>2022-09-28T14:15:59Z</time>
      </trkpt>
      <trkpt lat="46.65001" lon="6.53083">
        <ele>454.9</ele>
        <time>2022-09-28T14:16:00Z</time>
      </trkpt>
      <trkpt lat="46.65002" lon="6.53083">
        <ele>454.8</ele>
        <time>2022-09-28T14:16:01Z</time>
      </trkpt>
      <trkpt lat="46.65002" lon="6.53083">
        <ele>454.8</ele>
        <time>2022-09-28T14:16:02Z</time>
      </trkpt>
      <trkpt lat="46.65003" lon="6.53083">
        <ele>454.8</ele>
        <time>2022-09-28T14:16:03Z</time>
      </trkpt>
      <trkpt lat="46.65003" lon="6.53083">
        <ele>454.8</ele>
        <time>2022-09-28T14:16:04Z</time>
      </trkpt>
      <trkpt lat="46.65003" lon="6.53082">
        <ele>454.8</ele>
        <time>2022-09-28T14:16:05Z</time>
      </trkpt>
      <trkpt lat="46.65004" lon="6.53082">
        <ele>454.8</ele>
        <time>2022-09-28T14:16:06Z</time>
      </trkpt>
      <trkpt lat="46.65004" lon="6.53082">
        <ele>454.8</ele>
        <time>2022-09-28T14:16:07Z</time>
      </trkpt>
      <trkpt lat="46.65004" lon="6.53082">
        <ele>454.8</ele>
        <time>2022-09-28T14:16:08Z</time>
      </trkpt>
      <trkpt lat="46.65005" lon="6.53082">
        <ele>454.8</ele>
        <time>2022-09-28T14:19:46Z</time>
      </trkpt>
      <trkpt lat="46.65005" lon="6.53082">
        <ele>454.8</ele>
        <time>2022-09-28T14:19:47Z</time>
      </trkpt>
      <trkpt lat="46.65006" lon="6.53082">
        <ele>454.8</ele>
        <time>2022-09-28T14:19:48Z</time>
      </trkpt>
      <trkpt lat="46.65004" lon="6.53083">
        <ele>454.7</ele>
        <time>2022-09-28T14:19:49Z</time>
      </trkpt>
      <trkpt lat="46.65004" lon="6.53084">
        <ele>454.7</ele>
        <time>2022-09-28T14:19:50Z</time>
      </trkpt>
      <trkpt lat="46.65004" lon="6.53085">
        <ele>454.7</ele>
        <time>2022-09-28T14:19:51Z</time>
      </trkpt>
      <trkpt lat="46.65004" lon="6.53087">
        <ele>454.7</ele>
        <time>2022-09-28T14:19:52Z</time>
      </trkpt>
      <trkpt lat="46.65004" lon="6.53088">
        <ele>454.6</ele>
        <time>2022-09-28T14:19:53Z</time>
      </trkpt>
      <trkpt lat="46.65004" lon="6.5309">
        <ele>454.6</ele>
        <time>2022-09-28T14:19:54Z</time>
      </trkpt>
      <trkpt lat="46.65004" lon="6.53091">
        <ele>454.6</ele>
        <time>2022-09-28T14:19:55Z</time>
      </trkpt>
      <trkpt lat="46.65004" lon="6.53092">
        <ele>454.6</ele>
        <time>2022-09-28T14:32:17Z</time>
      </trkpt>
      <trkpt lat="46.65004" lon="6.53094">
        <ele>454.5</ele>
        <time>2022-09-28T14:32:18Z</time>
      </trkpt>
      <trkpt lat="46.65001" lon="6.53098">
        <ele>454.4</ele>
        <time>2022-09-28T14:32:19Z</time>
      </trkpt>
      <trkpt lat="46.65" lon="6.531">
        <ele>454.4</ele>
        <time>2022-09-28T14:32:20Z</time>
      </trkpt>
      <trkpt lat="46.64997" lon="6.53102">
        <ele>454.3</ele>
        <time>2022-09-28T14:32:21Z</time>
      </trkpt>
      <trkpt lat="46.64995" lon="6.53102">
        <ele>454.3</ele>
        <time>2022-09-28T14:32:22Z</time>
      </trkpt>
      <trkpt lat="46.64992" lon="6.53105">
        <ele>454.1</ele>
        <time>2022-09-28T14:32:23Z</time>
      </trkpt>
      <trkpt lat="46.6499" lon="6.53107">
        <ele>454.1</ele>
        <time>2022-09-28T14:32:24Z</time>
      </trkpt>
      <trkpt lat="46.64987" lon="6.53109">
        <ele>454</ele>
        <time>2022-09-28T14:32:25Z</time>
      </trkpt>
      <trkpt lat="46.64984" lon="6.53108">
        <ele>453.9</ele>
        <time>2022-09-28T14:32:26Z</time>
      </trkpt>
      <trkpt lat="46.64982" lon="6.53106">
        <ele>453.8</ele>
        <time>2022-09-28T14:32:27Z</time>
      </trkpt>
      <trkpt lat="46.64979" lon="6.53103">
        <ele>453.7</ele>
        <time>2022-09-28T14:32:28Z</time>
      </trkpt>
      <trkpt lat="46.64977" lon="6.53099">
        <ele>453.5</ele>
        <time>2022-09-28T14:32:29Z</time>
      </trkpt>
      <trkpt lat="46.64974" lon="6.53095">
        <ele>453.6</ele>
        <time>2022-09-28T14:32:30Z</time>
      </trkpt>
      <trkpt lat="46.64972" lon="6.53091">
        <ele>453.7</ele>
        <time>2022-09-28T14:32:31Z</time>
      </trkpt>
      <trkpt lat="46.64969" lon="6.53089">
        <ele>453.9</ele>
        <time>2022-09-28T14:32:32Z</time>
      </trkpt>
      <trkpt lat="46.64965" lon="6.53088">
        <ele>454.1</ele>
        <time>2022-09-28T14:32:33Z</time>
      </trkpt>
      <trkpt lat="46.64962" lon="6.53088">
        <ele>454.1</ele>
        <time>2022-09-28T14:32:34Z</time>
      </trkpt>
      <trkpt lat="46.64958" lon="6.53088">
        <ele>454.1</ele>
        <time>2022-09-28T14:32:35Z</time>
      </trkpt>
      <trkpt lat="46.64955" lon="6.53089">
        <ele>454.1</ele>
        <time>2022-09-28T14:32:36Z</time>
      </trkpt>
      <trkpt lat="46.64951" lon="6.53089">
        <ele>454.1</ele>
        <time>2022-09-28T14:32:37Z</time>
      </trkpt>
      <trkpt lat="46.64948" lon="6.5309">
        <ele>454.2</ele>
        <time>2022-09-28T14:32:38Z</time>
      </trkpt>
      <trkpt lat="46.64945" lon="6.5309">
        <ele>454.2</ele>
        <time>2022-09-28T14:32:39Z</time>
      </trkpt>
      <trkpt lat="46.64942" lon="6.53089">
        <ele>454.2</ele>
        <time>2022-09-28T14:32:40Z</time>
      </trkpt>
      <trkpt lat="46.64938" lon="6.53088">
        <ele>454.2</ele>
        <time>2022-09-28T14:32:41Z</time>
      </trkpt>
      <trkpt lat="46.64934" lon="6.53086">
        <ele>454.2</ele>
        <time>2022-09-28T14:32:42Z</time>
      </trkpt>
      <trkpt lat="46.64932" lon="6.53085">
        <ele>454.2</ele>
        <time>2022-09-28T14:32:43Z</time>
      </trkpt>
      <trkpt lat="46.64929" lon="6.53083">
        <ele>454.3</ele>
        <time>2022-09-28T14:32:44Z</time>
      </trkpt>
      <trkpt lat="46.64925" lon="6.5308">
        <ele>454.3</ele>
        <time>2022-09-28T14:32:45Z</time>
      </trkpt>
      <trkpt lat="46.64922" lon="6.53078">
        <ele>454.3</ele>
        <time>2022-09-28T14:32:46Z</time>
      </trkpt>
      <trkpt lat="46.6492" lon="6.53076">
        <ele>454.3</ele>
        <time>2022-09-28T14:32:47Z</time>
      </trkpt>
      <trkpt lat="46.64917" lon="6.53073">
        <ele>454.3</ele>
        <time>2022-09-28T14:32:48Z</time>
      </trkpt>
      <trkpt lat="46.64915" lon="6.53071">
        <ele>454.3</ele>
        <time>2022-09-28T14:32:49Z</time>
      </trkpt>
      <trkpt lat="46.64913" lon="6.53069">
        <ele>454.3</ele>
        <time>2022-09-28T14:32:50Z</time>
      </trkpt>
      <trkpt lat="46.6491" lon="6.53066">
        <ele>454.3</ele>
        <time>2022-09-28T14:32:51Z</time>
      </trkpt>
      <trkpt lat="46.64907" lon="6.53063">
        <ele>454.4</ele>
        <time>2022-09-28T14:32:52Z</time>
      </trkpt>
      <trkpt lat="46.64904" lon="6.53059">
        <ele>454.4</ele>
        <time>2022-09-28T14:32:53Z</time>
      </trkpt>
      <trkpt lat="46.64903" lon="6.53058">
        <ele>454.4</ele>
        <time>2022-09-28T14:32:54Z</time>
      </trkpt>
      <trkpt lat="46.64901" lon="6.53056">
        <ele>454.4</ele>
        <time>2022-09-28T14:32:55Z</time>
      </trkpt>
      <trkpt lat="46.64898" lon="6.53052">
        <ele>454.4</ele>
        <time>2022-09-28T14:32:56Z</time>
      </trkpt>
      <trkpt lat="46.64897" lon="6.53051">
        <ele>454.4</ele>
        <time>2022-09-28T14:32:57Z</time>
      </trkpt>
      <trkpt lat="46.64895" lon="6.53049">
        <ele>454.4</ele>
        <time>2022-09-28T14:32:58Z</time>
      </trkpt>
      <trkpt lat="46.64893" lon="6.53047">
        <ele>454.4</ele>
        <time>2022-09-28T14:32:59Z</time>
      </trkpt>
      <trkpt lat="46.64891" lon="6.53044">
        <ele>454.4</ele>
        <time>2022-09-28T14:33:00Z</time>
      </trkpt>
      <trkpt lat="46.64888" lon="6.53042">
        <ele>454.4</ele>
        <time>2022-09-28T14:33:01Z</time>
      </trkpt>
      <trkpt lat="46.64885" lon="6.5304">
        <ele>454.4</ele>
        <time>2022-09-28T14:33:02Z</time>
      </trkpt>
      <trkpt lat="46.64882" lon="6.5304">
        <ele>454.4</ele>
        <time>2022-09-28T14:33:03Z</time>
      </trkpt>
      <trkpt lat="46.64881" lon="6.5304">
        <ele>454.4</ele>
        <time>2022-09-28T14:33:04Z</time>
      </trkpt>
      <trkpt lat="46.64878" lon="6.5304">
        <ele>454.4</ele>
        <time>2022-09-28T14:33:05Z</time>
      </trkpt>
      <trkpt lat="46.64877" lon="6.5304">
        <ele>454.4</ele>
        <time>2022-09-28T14:33:06Z</time>
      </trkpt>
      <trkpt lat="46.64876" lon="6.53041">
        <ele>454.4</ele>
        <time>2022-09-28T14:33:07Z</time>
      </trkpt>
      <trkpt lat="46.64874" lon="6.53042">
        <ele>454.4</ele>
        <time>2022-09-28T14:33:08Z</time>
      </trkpt>
      <trkpt lat="46.64873" lon="6.53044">
        <ele>454.4</ele>
        <time>2022-09-28T14:33:09Z</time>
      </trkpt>
      <trkpt lat="46.64874" lon="6.53046">
        <ele>454.4</ele>
        <time>2022-09-28T14:33:10Z</time>
      </trkpt>
      <trkpt lat="46.64874" lon="6.53048">
        <ele>454.4</ele>
        <time>2022-09-28T14:33:11Z</time>
      </trkpt>
      <trkpt lat="46.64874" lon="6.53048">
        <ele>454.4</ele>
        <time>2022-09-28T14:33:12Z</time>
      </trkpt>
      <trkpt lat="46.64875" lon="6.53048">
        <ele>454.4</ele>
        <time>2022-09-28T14:33:13Z</time>
      </trkpt>
      <trkpt lat="46.64875" lon="6.53048">
        <ele>454.4</ele>
        <time>2022-09-28T14:33:14Z</time>
      </trkpt>
      <trkpt lat="46.64875" lon="6.53048">
        <ele>454.4</ele>
        <time>2022-09-28T14:33:15Z</time>
      </trkpt>
      <trkpt lat="46.64875" lon="6.53048">
        <ele>454.4</ele>
        <time>2022-09-28T14:33:16Z</time>
      </trkpt>
      <trkpt lat="46.64875" lon="6.53048">
        <ele>454.4</ele>
        <time>2022-09-28T14:33:17Z</time>
      </trkpt>
      <trkpt lat="46.64876" lon="6.53048">
        <ele>454.4</ele>
        <time>2022-09-28T14:33:18Z</time>
      </trkpt>
      <trkpt lat="46.64876" lon="6.53048">
        <ele>454.4</ele>
        <time>2022-09-28T14:33:19Z</time>
      </trkpt>
      <trkpt lat="46.64876" lon="6.53048">
        <ele>454.4</ele>
        <time>2022-09-28T14:33:20Z</time>
      </trkpt>
      <trkpt lat="46.64876" lon="6.53048">
        <ele>454.4</ele>
        <time>2022-09-28T14:33:21Z</time>
      </trkpt>
      <trkpt lat="46.64876" lon="6.53048">
        <ele>454.4</ele>
        <time>2022-09-28T14:33:22Z</time>
      </trkpt>
      <trkpt lat="46.64877" lon="6.53048">
        <ele>454.4</ele>
        <time>2022-09-28T14:33:43Z</time>
      </trkpt>
      <trkpt lat="46.64877" lon="6.53048">
        <ele>454.4</ele>
        <time>2022-09-28T14:33:44Z</time>
      </trkpt>
      <trkpt lat="46.64877" lon="6.53049">
        <ele>454.4</ele>
        <time>2022-09-28T14:33:45Z</time>
      </trkpt>
      <trkpt lat="46.64877" lon="6.53049">
        <ele>454.4</ele>
        <time>2022-09-28T14:33:46Z</time>
      </trkpt>
      <trkpt lat="46.64877" lon="6.53049">
        <ele>454.4</ele>
        <time>2022-09-28T14:33:47Z</time>
      </trkpt>
      <trkpt lat="46.64878" lon="6.53049">
        <ele>454.4</ele>
        <time>2022-09-28T14:33:48Z</time>
      </trkpt>
      <trkpt lat="46.64878" lon="6.53049">
        <ele>454.4</ele>
        <time>2022-09-28T14:33:49Z</time>
      </trkpt>
      <trkpt lat="46.64878" lon="6.53045">
        <ele>454.4</ele>
        <time>2022-09-28T14:33:50Z</time>
      </trkpt>
      <trkpt lat="46.64878" lon="6.53042">
        <ele>454.4</ele>
        <time>2022-09-28T14:33:51Z</time>
      </trkpt>
      <trkpt lat="46.64878" lon="6.53039">
        <ele>454.4</ele>
        <time>2022-09-28T14:33:52Z</time>
      </trkpt>
      <trkpt lat="46.64878" lon="6.53036">
        <ele>454.4</ele>
        <time>2022-09-28T14:34:12Z</time>
      </trkpt>
      <trkpt lat="46.64878" lon="6.53033">
        <ele>454.4</ele>
        <time>2022-09-28T14:34:13Z</time>
      </trkpt>
      <trkpt lat="46.64875" lon="6.5303">
        <ele>454.4</ele>
        <time>2022-09-28T14:34:14Z</time>
      </trkpt>
      <trkpt lat="46.64874" lon="6.53028">
        <ele>454.4</ele>
        <time>2022-09-28T14:34:15Z</time>
      </trkpt>
      <trkpt lat="46.64873" lon="6.53025">
        <ele>454.4</ele>
        <time>2022-09-28T14:34:16Z</time>
      </trkpt>
      <trkpt lat="46.6487" lon="6.53021">
        <ele>454.5</ele>
        <time>2022-09-28T14:34:17Z</time>
      </trkpt>
      <trkpt lat="46.64868" lon="6.53018">
        <ele>454.5</ele>
        <time>2022-09-28T14:34:18Z</time>
      </trkpt>
      <trkpt lat="46.64865" lon="6.53015">
        <ele>454.5</ele>
        <time>2022-09-28T14:34:19Z</time>
      </trkpt>
      <trkpt lat="46.64862" lon="6.53011">
        <ele>454.6</ele>
        <time>2022-09-28T14:34:20Z</time>
      </trkpt>
      <trkpt lat="46.64861" lon="6.5301">
        <ele>454.7</ele>
        <time>2022-09-28T14:34:21Z</time>
      </trkpt>
      <trkpt lat="46.64858" lon="6.53008">
        <ele>454.8</ele>
        <time>2022-09-28T14:34:22Z</time>
      </trkpt>
      <trkpt lat="46.64855" lon="6.53004">
        <ele>454.9</ele>
        <time>2022-09-28T14:34:23Z</time>
      </trkpt>
      <trkpt lat="46.64854" lon="6.53003">
        <ele>454.9</ele>
        <time>2022-09-28T14:34:24Z</time>
      </trkpt>
      <trkpt lat="46.64852" lon="6.53001">
        <ele>455</ele>
        <time>2022-09-28T14:34:25Z</time>
      </trkpt>
      <trkpt lat="46.64849" lon="6.52998">
        <ele>455.1</ele>
        <time>2022-09-28T14:34:26Z</time>
      </trkpt>
      <trkpt lat="46.64847" lon="6.52996">
        <ele>455.3</ele>
        <time>2022-09-28T14:34:27Z</time>
      </trkpt>
      <trkpt lat="46.64844" lon="6.52993">
        <ele>455.4</ele>
        <time>2022-09-28T14:34:28Z</time>
      </trkpt>
      <trkpt lat="46.64841" lon="6.5299">
        <ele>455.5</ele>
        <time>2022-09-28T14:34:29Z</time>
      </trkpt>
      <trkpt lat="46.6484" lon="6.52989">
        <ele>455.5</ele>
        <time>2022-09-28T14:34:30Z</time>
      </trkpt>
      <trkpt lat="46.64838" lon="6.52987">
        <ele>455.6</ele>
        <time>2022-09-28T14:34:31Z</time>
      </trkpt>
      <trkpt lat="46.64835" lon="6.52985">
        <ele>455.6</ele>
        <time>2022-09-28T14:34:32Z</time>
      </trkpt>
      <trkpt lat="46.64832" lon="6.52983">
        <ele>455.7</ele>
        <time>2022-09-28T14:34:33Z</time>
      </trkpt>
      <trkpt lat="46.6483" lon="6.52981">
        <ele>455.7</ele>
        <time>2022-09-28T14:34:34Z</time>
      </trkpt>
      <trkpt lat="46.64827" lon="6.52979">
        <ele>455.7</ele>
        <time>2022-09-28T14:34:36Z</time>
      </trkpt>
      <trkpt lat="46.64825" lon="6.52977">
        <ele>455.8</ele>
        <time>2022-09-28T14:34:37Z</time>
      </trkpt>
      <trkpt lat="46.64822" lon="6.52975">
        <ele>455.9</ele>
        <time>2022-09-28T14:34:38Z</time>
      </trkpt>
      <trkpt lat="46.64819" lon="6.52972">
        <ele>455.8</ele>
        <time>2022-09-28T14:34:39Z</time>
      </trkpt>
      <trkpt lat="46.64818" lon="6.5297">
        <ele>455.8</ele>
        <time>2022-09-28T14:34:40Z</time>
      </trkpt>
      <trkpt lat="46.64816" lon="6.52965">
        <ele>455.6</ele>
        <time>2022-09-28T14:34:41Z</time>
      </trkpt>
      <trkpt lat="46.64815" lon="6.52963">
        <ele>455.6</ele>
        <time>2022-09-28T14:34:42Z</time>
      </trkpt>
      <trkpt lat="46.64814" lon="6.52957">
        <ele>455.4</ele>
        <time>2022-09-28T14:34:43Z</time>
      </trkpt>
      <trkpt lat="46.64814" lon="6.5295">
        <ele>455.3</ele>
        <time>2022-09-28T14:34:44Z</time>
      </trkpt>
      <trkpt lat="46.64813" lon="6.52943">
        <ele>455.3</ele>
        <time>2022-09-28T14:34:45Z</time>
      </trkpt>
      <trkpt lat="46.64813" lon="6.52937">
        <ele>455.2</ele>
        <time>2022-09-28T14:34:46Z</time>
      </trkpt>
      <trkpt lat="46.64812" lon="6.5293">
        <ele>455.1</ele>
        <time>2022-09-28T14:34:47Z</time>
      </trkpt>
      <trkpt lat="46.64811" lon="6.52922">
        <ele>455.1</ele>
        <time>2022-09-28T14:34:48Z</time>
      </trkpt>
      <trkpt lat="46.6481" lon="6.52914">
        <ele>455.1</ele>
        <time>2022-09-28T14:34:49Z</time>
      </trkpt>
      <trkpt lat="46.64809" lon="6.52907">
        <ele>455.1</ele>
        <time>2022-09-28T14:34:50Z</time>
      </trkpt>
      <trkpt lat="46.64808" lon="6.52901">
        <ele>455.2</ele>
        <time>2022-09-28T14:34:51Z</time>
      </trkpt>
      <trkpt lat="46.64808" lon="6.52895">
        <ele>455.2</ele>
        <time>2022-09-28T14:34:52Z</time>
      </trkpt>
      <trkpt lat="46.64808" lon="6.52889">
        <ele>455.1</ele>
        <time>2022-09-28T14:34:53Z</time>
      </trkpt>
      <trkpt lat="46.6481" lon="6.52885">
        <ele>455.1</ele>
        <time>2022-09-28T14:34:54Z</time>
      </trkpt>
      <trkpt lat="46.64812" lon="6.52882">
        <ele>455.1</ele>
        <time>2022-09-28T14:34:55Z</time>
      </trkpt>
      <trkpt lat="46.64815" lon="6.5288">
        <ele>455.1</ele>
        <time>2022-09-28T14:34:56Z</time>
      </trkpt>
      <trkpt lat="46.64819" lon="6.52878">
        <ele>455</ele>
        <time>2022-09-28T14:34:57Z</time>
      </trkpt>
      <trkpt lat="46.64823" lon="6.52878">
        <ele>454.9</ele>
        <time>2022-09-28T14:34:58Z</time>
      </trkpt>
      <trkpt lat="46.64827" lon="6.52879">
        <ele>454.9</ele>
        <time>2022-09-28T14:34:59Z</time>
      </trkpt>
      <trkpt lat="46.64831" lon="6.52881">
        <ele>454.8</ele>
        <time>2022-09-28T14:35:00Z</time>
      </trkpt>
      <trkpt lat="46.64835" lon="6.52882">
        <ele>454.8</ele>
        <time>2022-09-28T14:35:01Z</time>
      </trkpt>
      <trkpt lat="46.64839" lon="6.52883">
        <ele>454.8</ele>
        <time>2022-09-28T14:35:02Z</time>
      </trkpt>
      <trkpt lat="46.64844" lon="6.52883">
        <ele>454.7</ele>
        <time>2022-09-28T14:35:03Z</time>
      </trkpt>
      <trkpt lat="46.64847" lon="6.52883">
        <ele>454.7</ele>
        <time>2022-09-28T14:35:04Z</time>
      </trkpt>
      <trkpt lat="46.64851" lon="6.52881">
        <ele>454.7</ele>
        <time>2022-09-28T14:35:05Z</time>
      </trkpt>
      <trkpt lat="46.64853" lon="6.52879">
        <ele>454.7</ele>
        <time>2022-09-28T14:35:06Z</time>
      </trkpt>
      <trkpt lat="46.64856" lon="6.52876">
        <ele>454.7</ele>
        <time>2022-09-28T14:35:07Z</time>
      </trkpt>
      <trkpt lat="46.64858" lon="6.52871">
        <ele>454.6</ele>
        <time>2022-09-28T14:35:08Z</time>
      </trkpt>
      <trkpt lat="46.64859" lon="6.52869">
        <ele>454.6</ele>
        <time>2022-09-28T14:35:09Z</time>
      </trkpt>
      <trkpt lat="46.64861" lon="6.52864">
        <ele>454.6</ele>
        <time>2022-09-28T14:35:10Z</time>
      </trkpt>
      <trkpt lat="46.64863" lon="6.5286">
        <ele>454.6</ele>
        <time>2022-09-28T14:35:11Z</time>
      </trkpt>
      <trkpt lat="46.64865" lon="6.52854">
        <ele>454.7</ele>
        <time>2022-09-28T14:35:12Z</time>
      </trkpt>
      <trkpt lat="46.64867" lon="6.5285">
        <ele>454.7</ele>
        <time>2022-09-28T14:35:13Z</time>
      </trkpt>
      <trkpt lat="46.64868" lon="6.52844">
        <ele>454.7</ele>
        <time>2022-09-28T14:35:14Z</time>
      </trkpt>
      <trkpt lat="46.6487" lon="6.52839">
        <ele>454.7</ele>
        <time>2022-09-28T14:35:15Z</time>
      </trkpt>
      <trkpt lat="46.64872" lon="6.52834">
        <ele>454.7</ele>
        <time>2022-09-28T14:35:16Z</time>
      </trkpt>
      <trkpt lat="46.64874" lon="6.52829">
        <ele>454.7</ele>
        <time>2022-09-28T14:35:17Z</time>
      </trkpt>
      <trkpt lat="46.64876" lon="6.52824">
        <ele>454.7</ele>
        <time>2022-09-28T14:35:18Z</time>
      </trkpt>
      <trkpt lat="46.64878" lon="6.52819">
        <ele>454.7</ele>
        <time>2022-09-28T14:35:19Z</time>
      </trkpt>
      <trkpt lat="46.64881" lon="6.52814">
        <ele>454.7</ele>
        <time>2022-09-28T14:35:20Z</time>
      </trkpt>
      <trkpt lat="46.64884" lon="6.52803">
        <ele>454.7</ele>
        <time>2022-09-28T14:35:21Z</time>
      </trkpt>
      <trkpt lat="46.64887" lon="6.52798">
        <ele>454.7</ele>
        <time>2022-09-28T14:35:22Z</time>
      </trkpt>
      <trkpt lat="46.6489" lon="6.52794">
        <ele>454.7</ele>
        <time>2022-09-28T14:35:23Z</time>
      </trkpt>
      <trkpt lat="46.64892" lon="6.52787">
        <ele>454.7</ele>
        <time>2022-09-28T14:35:24Z</time>
      </trkpt>
      <trkpt lat="46.64893" lon="6.52782">
        <ele>454.7</ele>
        <time>2022-09-28T14:35:25Z</time>
      </trkpt>
      <trkpt lat="46.64896" lon="6.52776">
        <ele>454.7</ele>
        <time>2022-09-28T14:35:26Z</time>
      </trkpt>
      <trkpt lat="46.64898" lon="6.52771">
        <ele>454.7</ele>
        <time>2022-09-28T14:35:27Z</time>
      </trkpt>
      <trkpt lat="46.64901" lon="6.52766">
        <ele>454.7</ele>
        <time>2022-09-28T14:35:28Z</time>
      </trkpt>
      <trkpt lat="46.64903" lon="6.5276">
        <ele>454.7</ele>
        <time>2022-09-28T14:35:29Z</time>
      </trkpt>
      <trkpt lat="46.64905" lon="6.52755">
        <ele>454.8</ele>
        <time>2022-09-28T14:35:30Z</time>
      </trkpt>
      <trkpt lat="46.64907" lon="6.5275">
        <ele>454.8</ele>
        <time>2022-09-28T14:35:31Z</time>
      </trkpt>
      <trkpt lat="46.64909" lon="6.52745">
        <ele>454.8</ele>
        <time>2022-09-28T14:35:32Z</time>
      </trkpt>
      <trkpt lat="46.64909" lon="6.5274">
        <ele>454.8</ele>
        <time>2022-09-28T14:35:34Z</time>
      </trkpt>
      <trkpt lat="46.6491" lon="6.52735">
        <ele>454.8</ele>
        <time>2022-09-28T14:35:35Z</time>
      </trkpt>
      <trkpt lat="46.6491" lon="6.5273">
        <ele>454.8</ele>
        <time>2022-09-28T14:35:36Z</time>
      </trkpt>
      <trkpt lat="46.64911" lon="6.52723">
        <ele>454.8</ele>
        <time>2022-09-28T14:35:37Z</time>
      </trkpt>
      <trkpt lat="46.64912" lon="6.52716">
        <ele>454.8</ele>
        <time>2022-09-28T14:35:38Z</time>
      </trkpt>
      <trkpt lat="46.64912" lon="6.52709">
        <ele>454.8</ele>
        <time>2022-09-28T14:35:39Z</time>
      </trkpt>
      <trkpt lat="46.64913" lon="6.52704">
        <ele>454.8</ele>
        <time>2022-09-28T14:35:40Z</time>
      </trkpt>
      <trkpt lat="46.64913" lon="6.52696">
        <ele>454.7</ele>
        <time>2022-09-28T14:35:41Z</time>
      </trkpt>
      <trkpt lat="46.64915" lon="6.52687">
        <ele>454.7</ele>
        <time>2022-09-28T14:35:42Z</time>
      </trkpt>
      <trkpt lat="46.64916" lon="6.52681">
        <ele>454.8</ele>
        <time>2022-09-28T14:35:43Z</time>
      </trkpt>
      <trkpt lat="46.64917" lon="6.52674">
        <ele>454.8</ele>
        <time>2022-09-28T14:35:44Z</time>
      </trkpt>
      <trkpt lat="46.64918" lon="6.52667">
        <ele>454.8</ele>
        <time>2022-09-28T14:35:45Z</time>
      </trkpt>
      <trkpt lat="46.64918" lon="6.5266">
        <ele>454.8</ele>
        <time>2022-09-28T14:35:46Z</time>
      </trkpt>
      <trkpt lat="46.64919" lon="6.52653">
        <ele>454.8</ele>
        <time>2022-09-28T14:35:47Z</time>
      </trkpt>
      <trkpt lat="46.64921" lon="6.52646">
        <ele>454.9</ele>
        <time>2022-09-28T14:35:48Z</time>
      </trkpt>
      <trkpt lat="46.64923" lon="6.5264">
        <ele>454.9</ele>
        <time>2022-09-28T14:35:49Z</time>
      </trkpt>
      <trkpt lat="46.64925" lon="6.52633">
        <ele>455</ele>
        <time>2022-09-28T14:35:50Z</time>
      </trkpt>
      <trkpt lat="46.64925" lon="6.52626">
        <ele>455.1</ele>
        <time>2022-09-28T14:35:51Z</time>
      </trkpt>
      <trkpt lat="46.64926" lon="6.52621">
        <ele>455.1</ele>
        <time>2022-09-28T14:35:52Z</time>
      </trkpt>
      <trkpt lat="46.64928" lon="6.52613">
        <ele>455.2</ele>
        <time>2022-09-28T14:35:53Z</time>
      </trkpt>
      <trkpt lat="46.6493" lon="6.52609">
        <ele>455.3</ele>
        <time>2022-09-28T14:35:54Z</time>
      </trkpt>
      <trkpt lat="46.64931" lon="6.52604">
        <ele>455.4</ele>
        <time>2022-09-28T14:35:55Z</time>
      </trkpt>
      <trkpt lat="46.64933" lon="6.52599">
        <ele>455.4</ele>
        <time>2022-09-28T14:35:56Z</time>
      </trkpt>
      <trkpt lat="46.64934" lon="6.52594">
        <ele>455.4</ele>
        <time>2022-09-28T14:35:57Z</time>
      </trkpt>
      <trkpt lat="46.64936" lon="6.52588">
        <ele>455.4</ele>
        <time>2022-09-28T14:35:58Z</time>
      </trkpt>
      <trkpt lat="46.64938" lon="6.52582">
        <ele>455.4</ele>
        <time>2022-09-28T14:35:59Z</time>
      </trkpt>
      <trkpt lat="46.64941" lon="6.52578">
        <ele>455.4</ele>
        <time>2022-09-28T14:36:00Z</time>
      </trkpt>
      <trkpt lat="46.64944" lon="6.52574">
        <ele>455.4</ele>
        <time>2022-09-28T14:36:01Z</time>
      </trkpt>
      <trkpt lat="46.64947" lon="6.52572">
        <ele>455.4</ele>
        <time>2022-09-28T14:36:02Z</time>
      </trkpt>
      <trkpt lat="46.6495" lon="6.52571">
        <ele>455.4</ele>
        <time>2022-09-28T14:36:03Z</time>
      </trkpt>
      <trkpt lat="46.64954" lon="6.52568">
        <ele>455.4</ele>
        <time>2022-09-28T14:36:04Z</time>
      </trkpt>
      <trkpt lat="46.64956" lon="6.52566">
        <ele>455.5</ele>
        <time>2022-09-28T14:36:05Z</time>
      </trkpt>
      <trkpt lat="46.64959" lon="6.52562">
        <ele>455.5</ele>
        <time>2022-09-28T14:36:06Z</time>
      </trkpt>
      <trkpt lat="46.64961" lon="6.52558">
        <ele>455.5</ele>
        <time>2022-09-28T14:36:07Z</time>
      </trkpt>
      <trkpt lat="46.64963" lon="6.52552">
        <ele>455.5</ele>
        <time>2022-09-28T14:36:08Z</time>
      </trkpt>
      <trkpt lat="46.64963" lon="6.52549">
        <ele>455.6</ele>
        <time>2022-09-28T14:36:09Z</time>
      </trkpt>
      <trkpt lat="46.64964" lon="6.52544">
        <ele>455.6</ele>
        <time>2022-09-28T14:36:10Z</time>
      </trkpt>
      <trkpt lat="46.64964" lon="6.52538">
        <ele>455.6</ele>
        <time>2022-09-28T14:36:11Z</time>
      </trkpt>
      <trkpt lat="46.64964" lon="6.52533">
        <ele>455.6</ele>
        <time>2022-09-28T14:36:12Z</time>
      </trkpt>
      <trkpt lat="46.64964" lon="6.52528">
        <ele>455.7</ele>
        <time>2022-09-28T14:36:13Z</time>
      </trkpt>
      <trkpt lat="46.64964" lon="6.52521">
        <ele>455.7</ele>
        <time>2022-09-28T14:36:14Z</time>
      </trkpt>
      <trkpt lat="46.64964" lon="6.52515">
        <ele>455.7</ele>
        <time>2022-09-28T14:36:15Z</time>
      </trkpt>
      <trkpt lat="46.64965" lon="6.52509">
        <ele>455.7</ele>
        <time>2022-09-28T14:36:16Z</time>
      </trkpt>
      <trkpt lat="46.64964" lon="6.52502">
        <ele>455.8</ele>
        <time>2022-09-28T14:36:17Z</time>
      </trkpt>
      <trkpt lat="46.64965" lon="6.52496">
        <ele>455.8</ele>
        <time>2022-09-28T14:36:18Z</time>
      </trkpt>
      <trkpt lat="46.64965" lon="6.52489">
        <ele>455.8</ele>
        <time>2022-09-28T14:36:19Z</time>
      </trkpt>
      <trkpt lat="46.64965" lon="6.52483">
        <ele>455.9</ele>
        <time>2022-09-28T14:36:20Z</time>
      </trkpt>
      <trkpt lat="46.64965" lon="6.52476">
        <ele>455.9</ele>
        <time>2022-09-28T14:36:21Z</time>
      </trkpt>
      <trkpt lat="46.64965" lon="6.52469">
        <ele>455.9</ele>
        <time>2022-09-28T14:36:22Z</time>
      </trkpt>
      <trkpt lat="46.64966" lon="6.52462">
        <ele>455.9</ele>
        <time>2022-09-28T14:36:23Z</time>
      </trkpt>
      <trkpt lat="46.64966" lon="6.52456">
        <ele>456</ele>
        <time>2022-09-28T14:36:24Z</time>
      </trkpt>
      <trkpt lat="46.64966" lon="6.5245">
        <ele>456</ele>
        <time>2022-09-28T14:36:25Z</time>
      </trkpt>
      <trkpt lat="46.64966" lon="6.52443">
        <ele>456</ele>
        <time>2022-09-28T14:36:26Z</time>
      </trkpt>
      <trkpt lat="46.64966" lon="6.52438">
        <ele>456</ele>
        <time>2022-09-28T14:36:27Z</time>
      </trkpt>
      <trkpt lat="46.64966" lon="6.52431">
        <ele>456</ele>
        <time>2022-09-28T14:36:28Z</time>
      </trkpt>
      <trkpt lat="46.64966" lon="6.52425">
        <ele>456.1</ele>
        <time>2022-09-28T14:36:29Z</time>
      </trkpt>
      <trkpt lat="46.64967" lon="6.52419">
        <ele>456.1</ele>
        <time>2022-09-28T14:36:30Z</time>
      </trkpt>
      <trkpt lat="46.64966" lon="6.52413">
        <ele>456.1</ele>
        <time>2022-09-28T14:36:31Z</time>
      </trkpt>
      <trkpt lat="46.64967" lon="6.52407">
        <ele>456.1</ele>
        <time>2022-09-28T14:36:32Z</time>
      </trkpt>
      <trkpt lat="46.64966" lon="6.524">
        <ele>456.1</ele>
        <time>2022-09-28T14:36:33Z</time>
      </trkpt>
      <trkpt lat="46.64967" lon="6.52393">
        <ele>456.2</ele>
        <time>2022-09-28T14:36:34Z</time>
      </trkpt>
      <trkpt lat="46.64967" lon="6.52387">
        <ele>456.2</ele>
        <time>2022-09-28T14:36:35Z</time>
      </trkpt>
      <trkpt lat="46.64967" lon="6.5238">
        <ele>456.2</ele>
        <time>2022-09-28T14:36:36Z</time>
      </trkpt>
      <trkpt lat="46.64966" lon="6.52372">
        <ele>456.2</ele>
        <time>2022-09-28T14:36:37Z</time>
      </trkpt>
      <trkpt lat="46.64967" lon="6.52366">
        <ele>456.3</ele>
        <time>2022-09-28T14:36:38Z</time>
      </trkpt>
      <trkpt lat="46.64968" lon="6.52359">
        <ele>456.3</ele>
        <time>2022-09-28T14:36:39Z</time>
      </trkpt>
      <trkpt lat="46.64967" lon="6.52353">
        <ele>456.3</ele>
        <time>2022-09-28T14:36:40Z</time>
      </trkpt>
      <trkpt lat="46.64967" lon="6.52347">
        <ele>456.3</ele>
        <time>2022-09-28T14:36:41Z</time>
      </trkpt>
      <trkpt lat="46.64967" lon="6.52342">
        <ele>456.4</ele>
        <time>2022-09-28T14:36:42Z</time>
      </trkpt>
      <trkpt lat="46.64965" lon="6.52336">
        <ele>456.4</ele>
        <time>2022-09-28T14:36:43Z</time>
      </trkpt>
      <trkpt lat="46.64964" lon="6.5233">
        <ele>456.4</ele>
        <time>2022-09-28T14:36:44Z</time>
      </trkpt>
      <trkpt lat="46.64962" lon="6.52324">
        <ele>456.4</ele>
        <time>2022-09-28T14:36:45Z</time>
      </trkpt>
      <trkpt lat="46.64961" lon="6.52318">
        <ele>456.4</ele>
        <time>2022-09-28T14:36:46Z</time>
      </trkpt>
      <trkpt lat="46.64959" lon="6.52312">
        <ele>456.4</ele>
        <time>2022-09-28T14:36:47Z</time>
      </trkpt>
      <trkpt lat="46.64956" lon="6.52307">
        <ele>456.4</ele>
        <time>2022-09-28T14:36:48Z</time>
      </trkpt>
      <trkpt lat="46.64954" lon="6.52302">
        <ele>456.4</ele>
        <time>2022-09-28T14:36:49Z</time>
      </trkpt>
      <trkpt lat="46.64953" lon="6.52296">
        <ele>456.4</ele>
        <time>2022-09-28T14:36:50Z</time>
      </trkpt>
      <trkpt lat="46.64952" lon="6.5229">
        <ele>456.4</ele>
        <time>2022-09-28T14:36:51Z</time>
      </trkpt>
      <trkpt lat="46.64951" lon="6.52285">
        <ele>456.4</ele>
        <time>2022-09-28T14:36:52Z</time>
      </trkpt>
      <trkpt lat="46.6495" lon="6.52279">
        <ele>456.4</ele>
        <time>2022-09-28T14:36:53Z</time>
      </trkpt>
      <trkpt lat="46.64949" lon="6.52274">
        <ele>456.4</ele>
        <time>2022-09-28T14:36:54Z</time>
      </trkpt>
      <trkpt lat="46.64948" lon="6.52268">
        <ele>456.4</ele>
        <time>2022-09-28T14:36:55Z</time>
      </trkpt>
      <trkpt lat="46.64947" lon="6.52262">
        <ele>456.4</ele>
        <time>2022-09-28T14:36:56Z</time>
      </trkpt>
      <trkpt lat="46.64946" lon="6.52256">
        <ele>456.4</ele>
        <time>2022-09-28T14:36:57Z</time>
      </trkpt>
      <trkpt lat="46.64946" lon="6.5225">
        <ele>456.4</ele>
        <time>2022-09-28T14:36:58Z</time>
      </trkpt>
      <trkpt lat="46.64945" lon="6.52244">
        <ele>456.4</ele>
        <time>2022-09-28T14:36:59Z</time>
      </trkpt>
      <trkpt lat="46.64945" lon="6.52237">
        <ele>456.4</ele>
        <time>2022-09-28T14:37:00Z</time>
      </trkpt>
      <trkpt lat="46.64944" lon="6.5223">
        <ele>456.4</ele>
        <time>2022-09-28T14:37:01Z</time>
      </trkpt>
      <trkpt lat="46.64943" lon="6.52223">
        <ele>456.4</ele>
        <time>2022-09-28T14:37:02Z</time>
      </trkpt>
      <trkpt lat="46.64943" lon="6.52217">
        <ele>456.4</ele>
        <time>2022-09-28T14:37:03Z</time>
      </trkpt>
      <trkpt lat="46.64943" lon="6.5221">
        <ele>456.4</ele>
        <time>2022-09-28T14:37:04Z</time>
      </trkpt>
      <trkpt lat="46.64943" lon="6.52203">
        <ele>456.5</ele>
        <time>2022-09-28T14:37:05Z</time>
      </trkpt>
      <trkpt lat="46.64942" lon="6.52197">
        <ele>456.5</ele>
        <time>2022-09-28T14:37:06Z</time>
      </trkpt>
      <trkpt lat="46.64942" lon="6.5219">
        <ele>456.6</ele>
        <time>2022-09-28T14:37:07Z</time>
      </trkpt>
      <trkpt lat="46.64941" lon="6.52184">
        <ele>456.7</ele>
        <time>2022-09-28T14:37:08Z</time>
      </trkpt>
      <trkpt lat="46.6494" lon="6.52177">
        <ele>456.7</ele>
        <time>2022-09-28T14:37:09Z</time>
      </trkpt>
      <trkpt lat="46.6494" lon="6.52171">
        <ele>456.8</ele>
        <time>2022-09-28T14:37:10Z</time>
      </trkpt>
      <trkpt lat="46.64939" lon="6.52165">
        <ele>456.9</ele>
        <time>2022-09-28T14:37:11Z</time>
      </trkpt>
      <trkpt lat="46.64939" lon="6.52161">
        <ele>456.9</ele>
        <time>2022-09-28T14:37:12Z</time>
      </trkpt>
      <trkpt lat="46.64939" lon="6.52154">
        <ele>457</ele>
        <time>2022-09-28T14:37:13Z</time>
      </trkpt>
      <trkpt lat="46.64938" lon="6.52148">
        <ele>457.1</ele>
        <time>2022-09-28T14:37:14Z</time>
      </trkpt>
      <trkpt lat="46.64937" lon="6.52142">
        <ele>457.1</ele>
        <time>2022-09-28T14:37:15Z</time>
      </trkpt>
      <trkpt lat="46.64936" lon="6.52137">
        <ele>457.2</ele>
        <time>2022-09-28T14:37:16Z</time>
      </trkpt>
      <trkpt lat="46.64936" lon="6.52132">
        <ele>457.2</ele>
        <time>2022-09-28T14:37:17Z</time>
      </trkpt>
      <trkpt lat="46.64935" lon="6.52127">
        <ele>457.2</ele>
        <time>2022-09-28T14:37:18Z</time>
      </trkpt>
      <trkpt lat="46.64934" lon="6.52123">
        <ele>457.3</ele>
        <time>2022-09-28T14:37:19Z</time>
      </trkpt>
      <trkpt lat="46.64933" lon="6.52119">
        <ele>457.3</ele>
        <time>2022-09-28T14:37:20Z</time>
      </trkpt>
      <trkpt lat="46.64931" lon="6.52115">
        <ele>457.3</ele>
        <time>2022-09-28T14:37:21Z</time>
      </trkpt>
      <trkpt lat="46.6493" lon="6.5211">
        <ele>457.3</ele>
        <time>2022-09-28T14:37:22Z</time>
      </trkpt>
      <trkpt lat="46.64928" lon="6.52106">
        <ele>457.4</ele>
        <time>2022-09-28T14:37:23Z</time>
      </trkpt>
      <trkpt lat="46.64927" lon="6.52101">
        <ele>457.4</ele>
        <time>2022-09-28T14:37:24Z</time>
      </trkpt>
      <trkpt lat="46.64925" lon="6.52096">
        <ele>457.5</ele>
        <time>2022-09-28T14:37:25Z</time>
      </trkpt>
      <trkpt lat="46.64923" lon="6.52091">
        <ele>457.5</ele>
        <time>2022-09-28T14:37:26Z</time>
      </trkpt>
      <trkpt lat="46.64922" lon="6.52085">
        <ele>457.6</ele>
        <time>2022-09-28T14:37:27Z</time>
      </trkpt>
      <trkpt lat="46.6492" lon="6.5208">
        <ele>457.6</ele>
        <time>2022-09-28T14:37:28Z</time>
      </trkpt>
      <trkpt lat="46.64919" lon="6.52075">
        <ele>457.7</ele>
        <time>2022-09-28T14:37:29Z</time>
      </trkpt>
      <trkpt lat="46.64918" lon="6.52071">
        <ele>457.7</ele>
        <time>2022-09-28T14:37:30Z</time>
      </trkpt>
      <trkpt lat="46.64916" lon="6.52065">
        <ele>457.8</ele>
        <time>2022-09-28T14:37:31Z</time>
      </trkpt>
      <trkpt lat="46.64916" lon="6.5206">
        <ele>457.9</ele>
        <time>2022-09-28T14:37:32Z</time>
      </trkpt>
      <trkpt lat="46.64916" lon="6.52055">
        <ele>457.9</ele>
        <time>2022-09-28T14:37:33Z</time>
      </trkpt>
      <trkpt lat="46.64916" lon="6.5205">
        <ele>458</ele>
        <time>2022-09-28T14:37:34Z</time>
      </trkpt>
      <trkpt lat="46.64916" lon="6.52045">
        <ele>458</ele>
        <time>2022-09-28T14:37:35Z</time>
      </trkpt>
      <trkpt lat="46.64916" lon="6.5204">
        <ele>458.1</ele>
        <time>2022-09-28T14:37:36Z</time>
      </trkpt>
      <trkpt lat="46.64917" lon="6.52036">
        <ele>458.1</ele>
        <time>2022-09-28T14:37:37Z</time>
      </trkpt>
      <trkpt lat="46.64917" lon="6.5203">
        <ele>458.1</ele>
        <time>2022-09-28T14:37:38Z</time>
      </trkpt>
      <trkpt lat="46.64917" lon="6.52025">
        <ele>458.2</ele>
        <time>2022-09-28T14:37:39Z</time>
      </trkpt>
      <trkpt lat="46.64917" lon="6.52019">
        <ele>458.2</ele>
        <time>2022-09-28T14:37:40Z</time>
      </trkpt>
      <trkpt lat="46.64918" lon="6.52014">
        <ele>458.2</ele>
        <time>2022-09-28T14:37:41Z</time>
      </trkpt>
      <trkpt lat="46.64918" lon="6.52008">
        <ele>458.2</ele>
        <time>2022-09-28T14:37:42Z</time>
      </trkpt>
      <trkpt lat="46.64919" lon="6.52002">
        <ele>458.2</ele>
        <time>2022-09-28T14:37:43Z</time>
      </trkpt>
      <trkpt lat="46.64919" lon="6.51995">
        <ele>458.2</ele>
        <time>2022-09-28T14:37:44Z</time>
      </trkpt>
      <trkpt lat="46.64919" lon="6.5199">
        <ele>458.2</ele>
        <time>2022-09-28T14:37:45Z</time>
      </trkpt>
      <trkpt lat="46.6492" lon="6.51985">
        <ele>458.2</ele>
        <time>2022-09-28T14:37:46Z</time>
      </trkpt>
      <trkpt lat="46.6492" lon="6.5198">
        <ele>458.2</ele>
        <time>2022-09-28T14:37:47Z</time>
      </trkpt>
      <trkpt lat="46.64921" lon="6.51973">
        <ele>458.3</ele>
        <time>2022-09-28T14:37:48Z</time>
      </trkpt>
      <trkpt lat="46.64922" lon="6.51966">
        <ele>458.3</ele>
        <time>2022-09-28T14:37:49Z</time>
      </trkpt>
      <trkpt lat="46.64922" lon="6.51959">
        <ele>458.3</ele>
        <time>2022-09-28T14:37:50Z</time>
      </trkpt>
      <trkpt lat="46.64923" lon="6.51953">
        <ele>458.3</ele>
        <time>2022-09-28T14:37:51Z</time>
      </trkpt>
      <trkpt lat="46.64923" lon="6.51947">
        <ele>458.4</ele>
        <time>2022-09-28T14:37:52Z</time>
      </trkpt>
      <trkpt lat="46.64924" lon="6.51941">
        <ele>458.4</ele>
        <time>2022-09-28T14:37:53Z</time>
      </trkpt>
      <trkpt lat="46.64925" lon="6.51934">
        <ele>458.4</ele>
        <time>2022-09-28T14:37:54Z</time>
      </trkpt>
      <trkpt lat="46.64926" lon="6.51928">
        <ele>458.5</ele>
        <time>2022-09-28T14:37:55Z</time>
      </trkpt>
      <trkpt lat="46.64926" lon="6.51922">
        <ele>458.5</ele>
        <time>2022-09-28T14:37:56Z</time>
      </trkpt>
      <trkpt lat="46.64927" lon="6.51915">
        <ele>458.5</ele>
        <time>2022-09-28T14:37:57Z</time>
      </trkpt>
      <trkpt lat="46.64927" lon="6.51908">
        <ele>458.6</ele>
        <time>2022-09-28T14:37:58Z</time>
      </trkpt>
      <trkpt lat="46.64928" lon="6.51901">
        <ele>458.6</ele>
        <time>2022-09-28T14:37:59Z</time>
      </trkpt>
      <trkpt lat="46.64929" lon="6.51894">
        <ele>458.7</ele>
        <time>2022-09-28T14:38:00Z</time>
      </trkpt>
      <trkpt lat="46.6493" lon="6.51888">
        <ele>458.7</ele>
        <time>2022-09-28T14:38:01Z</time>
      </trkpt>
      <trkpt lat="46.6493" lon="6.51881">
        <ele>458.8</ele>
        <time>2022-09-28T14:38:02Z</time>
      </trkpt>
      <trkpt lat="46.6493" lon="6.51875">
        <ele>458.8</ele>
        <time>2022-09-28T14:38:03Z</time>
      </trkpt>
      <trkpt lat="46.6493" lon="6.5187">
        <ele>458.9</ele>
        <time>2022-09-28T14:38:04Z</time>
      </trkpt>
      <trkpt lat="46.64931" lon="6.51863">
        <ele>459</ele>
        <time>2022-09-28T14:38:05Z</time>
      </trkpt>
      <trkpt lat="46.64932" lon="6.51857">
        <ele>459</ele>
        <time>2022-09-28T14:38:06Z</time>
      </trkpt>
      <trkpt lat="46.64932" lon="6.51851">
        <ele>459.1</ele>
        <time>2022-09-28T14:38:07Z</time>
      </trkpt>
      <trkpt lat="46.64933" lon="6.51846">
        <ele>459.2</ele>
        <time>2022-09-28T14:38:08Z</time>
      </trkpt>
      <trkpt lat="46.64933" lon="6.51839">
        <ele>459.3</ele>
        <time>2022-09-28T14:38:09Z</time>
      </trkpt>
      <trkpt lat="46.64934" lon="6.51834">
        <ele>459.3</ele>
        <time>2022-09-28T14:38:10Z</time>
      </trkpt>
      <trkpt lat="46.64934" lon="6.51828">
        <ele>459.4</ele>
        <time>2022-09-28T14:38:11Z</time>
      </trkpt>
      <trkpt lat="46.64935" lon="6.51822">
        <ele>459.4</ele>
        <time>2022-09-28T14:38:12Z</time>
      </trkpt>
      <trkpt lat="46.64935" lon="6.51817">
        <ele>459.5</ele>
        <time>2022-09-28T14:38:13Z</time>
      </trkpt>
      <trkpt lat="46.64935" lon="6.51811">
        <ele>459.5</ele>
        <time>2022-09-28T14:38:14Z</time>
      </trkpt>
      <trkpt lat="46.64936" lon="6.51805">
        <ele>459.6</ele>
        <time>2022-09-28T14:38:15Z</time>
      </trkpt>
      <trkpt lat="46.64936" lon="6.518">
        <ele>459.7</ele>
        <time>2022-09-28T14:38:16Z</time>
      </trkpt>
      <trkpt lat="46.64937" lon="6.51794">
        <ele>459.7</ele>
        <time>2022-09-28T14:38:17Z</time>
      </trkpt>
      <trkpt lat="46.64937" lon="6.51789">
        <ele>459.8</ele>
        <time>2022-09-28T14:38:18Z</time>
      </trkpt>
      <trkpt lat="46.64938" lon="6.51783">
        <ele>459.9</ele>
        <time>2022-09-28T14:38:19Z</time>
      </trkpt>
      <trkpt lat="46.64938" lon="6.51778">
        <ele>459.9</ele>
        <time>2022-09-28T14:38:20Z</time>
      </trkpt>
      <trkpt lat="46.64938" lon="6.51773">
        <ele>460</ele>
        <time>2022-09-28T14:38:21Z</time>
      </trkpt>
      <trkpt lat="46.64939" lon="6.51767">
        <ele>460.1</ele>
        <time>2022-09-28T14:38:22Z</time>
      </trkpt>
      <trkpt lat="46.64939" lon="6.51762">
        <ele>460.1</ele>
        <time>2022-09-28T14:38:23Z</time>
      </trkpt>
      <trkpt lat="46.6494" lon="6.51758">
        <ele>460.2</ele>
        <time>2022-09-28T14:38:24Z</time>
      </trkpt>
      <trkpt lat="46.6494" lon="6.51753">
        <ele>460.2</ele>
        <time>2022-09-28T14:38:25Z</time>
      </trkpt>
      <trkpt lat="46.6494" lon="6.51749">
        <ele>460.3</ele>
        <time>2022-09-28T14:38:26Z</time>
      </trkpt>
      <trkpt lat="46.64941" lon="6.51745">
        <ele>460.3</ele>
        <time>2022-09-28T14:38:27Z</time>
      </trkpt>
      <trkpt lat="46.64942" lon="6.5174">
        <ele>460.4</ele>
        <time>2022-09-28T14:38:28Z</time>
      </trkpt>
      <trkpt lat="46.64943" lon="6.51735">
        <ele>460.4</ele>
        <time>2022-09-28T14:38:29Z</time>
      </trkpt>
      <trkpt lat="46.64944" lon="6.51729">
        <ele>460.4</ele>
        <time>2022-09-28T14:38:30Z</time>
      </trkpt>
      <trkpt lat="46.64945" lon="6.51725">
        <ele>460.4</ele>
        <time>2022-09-28T14:38:31Z</time>
      </trkpt>
      <trkpt lat="46.64946" lon="6.5172">
        <ele>460.4</ele>
        <time>2022-09-28T14:38:32Z</time>
      </trkpt>
      <trkpt lat="46.64947" lon="6.51715">
        <ele>460.4</ele>
        <time>2022-09-28T14:38:33Z</time>
      </trkpt>
      <trkpt lat="46.64949" lon="6.51711">
        <ele>460.4</ele>
        <time>2022-09-28T14:38:34Z</time>
      </trkpt>
      <trkpt lat="46.6495" lon="6.51705">
        <ele>460.4</ele>
        <time>2022-09-28T14:38:35Z</time>
      </trkpt>
      <trkpt lat="46.64952" lon="6.51701">
        <ele>460.4</ele>
        <time>2022-09-28T14:38:36Z</time>
      </trkpt>
      <trkpt lat="46.64954" lon="6.51696">
        <ele>460.4</ele>
        <time>2022-09-28T14:38:37Z</time>
      </trkpt>
      <trkpt lat="46.64955" lon="6.51691">
        <ele>460.4</ele>
        <time>2022-09-28T14:38:38Z</time>
      </trkpt>
      <trkpt lat="46.64956" lon="6.51686">
        <ele>460.4</ele>
        <time>2022-09-28T14:38:39Z</time>
      </trkpt>
      <trkpt lat="46.64957" lon="6.51681">
        <ele>460.4</ele>
        <time>2022-09-28T14:38:40Z</time>
      </trkpt>
      <trkpt lat="46.64958" lon="6.51677">
        <ele>460.4</ele>
        <time>2022-09-28T14:38:41Z</time>
      </trkpt>
      <trkpt lat="46.6496" lon="6.51671">
        <ele>460.4</ele>
        <time>2022-09-28T14:38:42Z</time>
      </trkpt>
      <trkpt lat="46.6496" lon="6.51665">
        <ele>460.4</ele>
        <time>2022-09-28T14:38:43Z</time>
      </trkpt>
      <trkpt lat="46.64961" lon="6.51659">
        <ele>460.4</ele>
        <time>2022-09-28T14:38:44Z</time>
      </trkpt>
      <trkpt lat="46.64962" lon="6.51653">
        <ele>460.4</ele>
        <time>2022-09-28T14:38:45Z</time>
      </trkpt>
      <trkpt lat="46.64962" lon="6.51647">
        <ele>460.4</ele>
        <time>2022-09-28T14:38:46Z</time>
      </trkpt>
      <trkpt lat="46.64962" lon="6.51642">
        <ele>460.4</ele>
        <time>2022-09-28T14:38:47Z</time>
      </trkpt>
      <trkpt lat="46.64962" lon="6.51636">
        <ele>460.4</ele>
        <time>2022-09-28T14:38:48Z</time>
      </trkpt>
      <trkpt lat="46.64962" lon="6.5163">
        <ele>460.4</ele>
        <time>2022-09-28T14:38:49Z</time>
      </trkpt>
      <trkpt lat="46.64962" lon="6.51624">
        <ele>460.4</ele>
        <time>2022-09-28T14:38:50Z</time>
      </trkpt>
      <trkpt lat="46.64961" lon="6.51619">
        <ele>460.4</ele>
        <time>2022-09-28T14:38:51Z</time>
      </trkpt>
      <trkpt lat="46.6496" lon="6.51612">
        <ele>460.4</ele>
        <time>2022-09-28T14:38:52Z</time>
      </trkpt>
      <trkpt lat="46.64958" lon="6.51606">
        <ele>460.4</ele>
        <time>2022-09-28T14:38:53Z</time>
      </trkpt>
      <trkpt lat="46.64957" lon="6.51599">
        <ele>460.4</ele>
        <time>2022-09-28T14:38:54Z</time>
      </trkpt>
      <trkpt lat="46.64956" lon="6.51593">
        <ele>460.3</ele>
        <time>2022-09-28T14:38:55Z</time>
      </trkpt>
      <trkpt lat="46.64954" lon="6.51587">
        <ele>460.3</ele>
        <time>2022-09-28T14:38:56Z</time>
      </trkpt>
      <trkpt lat="46.64953" lon="6.51581">
        <ele>460.3</ele>
        <time>2022-09-28T14:38:57Z</time>
      </trkpt>
      <trkpt lat="46.64951" lon="6.51575">
        <ele>460.3</ele>
        <time>2022-09-28T14:38:58Z</time>
      </trkpt>
      <trkpt lat="46.6495" lon="6.51568">
        <ele>460.3</ele>
        <time>2022-09-28T14:38:59Z</time>
      </trkpt>
      <trkpt lat="46.64949" lon="6.51562">
        <ele>460.4</ele>
        <time>2022-09-28T14:39:00Z</time>
      </trkpt>
      <trkpt lat="46.64948" lon="6.51555">
        <ele>460.4</ele>
        <time>2022-09-28T14:39:01Z</time>
      </trkpt>
      <trkpt lat="46.64948" lon="6.51549">
        <ele>460.4</ele>
        <time>2022-09-28T14:39:02Z</time>
      </trkpt>
      <trkpt lat="46.64949" lon="6.51543">
        <ele>460.5</ele>
        <time>2022-09-28T14:39:03Z</time>
      </trkpt>
      <trkpt lat="46.64949" lon="6.51536">
        <ele>460.6</ele>
        <time>2022-09-28T14:39:04Z</time>
      </trkpt>
      <trkpt lat="46.6495" lon="6.51529">
        <ele>460.7</ele>
        <time>2022-09-28T14:39:05Z</time>
      </trkpt>
      <trkpt lat="46.64951" lon="6.51523">
        <ele>460.8</ele>
        <time>2022-09-28T14:39:06Z</time>
      </trkpt>
      <trkpt lat="46.64952" lon="6.51517">
        <ele>460.9</ele>
        <time>2022-09-28T14:39:07Z</time>
      </trkpt>
      <trkpt lat="46.64953" lon="6.51511">
        <ele>461</ele>
        <time>2022-09-28T14:39:08Z</time>
      </trkpt>
      <trkpt lat="46.64954" lon="6.51506">
        <ele>461.2</ele>
        <time>2022-09-28T14:39:09Z</time>
      </trkpt>
      <trkpt lat="46.64955" lon="6.51501">
        <ele>461.3</ele>
        <time>2022-09-28T14:39:10Z</time>
      </trkpt>
      <trkpt lat="46.64956" lon="6.51497">
        <ele>461.4</ele>
        <time>2022-09-28T14:39:11Z</time>
      </trkpt>
      <trkpt lat="46.64957" lon="6.51492">
        <ele>461.5</ele>
        <time>2022-09-28T14:39:12Z</time>
      </trkpt>
      <trkpt lat="46.64958" lon="6.51488">
        <ele>461.6</ele>
        <time>2022-09-28T14:39:13Z</time>
      </trkpt>
      <trkpt lat="46.64958" lon="6.51484">
        <ele>461.6</ele>
        <time>2022-09-28T14:39:14Z</time>
      </trkpt>
      <trkpt lat="46.64959" lon="6.51479">
        <ele>461.7</ele>
        <time>2022-09-28T14:39:15Z</time>
      </trkpt>
      <trkpt lat="46.64959" lon="6.51474">
        <ele>461.8</ele>
        <time>2022-09-28T14:39:16Z</time>
      </trkpt>
      <trkpt lat="46.6496" lon="6.5147">
        <ele>461.8</ele>
        <time>2022-09-28T14:39:17Z</time>
      </trkpt>
      <trkpt lat="46.64961" lon="6.51464">
        <ele>461.9</ele>
        <time>2022-09-28T14:39:18Z</time>
      </trkpt>
      <trkpt lat="46.64962" lon="6.51459">
        <ele>461.9</ele>
        <time>2022-09-28T14:39:19Z</time>
      </trkpt>
      <trkpt lat="46.64963" lon="6.51454">
        <ele>462</ele>
        <time>2022-09-28T14:39:20Z</time>
      </trkpt>
      <trkpt lat="46.64964" lon="6.51449">
        <ele>462</ele>
        <time>2022-09-28T14:39:21Z</time>
      </trkpt>
      <trkpt lat="46.64964" lon="6.51444">
        <ele>462.1</ele>
        <time>2022-09-28T14:39:22Z</time>
      </trkpt>
      <trkpt lat="46.64966" lon="6.51439">
        <ele>462.1</ele>
        <time>2022-09-28T14:39:23Z</time>
      </trkpt>
      <trkpt lat="46.64967" lon="6.51434">
        <ele>462.1</ele>
        <time>2022-09-28T14:39:24Z</time>
      </trkpt>
      <trkpt lat="46.64968" lon="6.51429">
        <ele>462.2</ele>
        <time>2022-09-28T14:39:25Z</time>
      </trkpt>
      <trkpt lat="46.6497" lon="6.51424">
        <ele>462.2</ele>
        <time>2022-09-28T14:39:26Z</time>
      </trkpt>
      <trkpt lat="46.64971" lon="6.51418">
        <ele>462.2</ele>
        <time>2022-09-28T14:39:27Z</time>
      </trkpt>
      <trkpt lat="46.64973" lon="6.51413">
        <ele>462.2</ele>
        <time>2022-09-28T14:39:28Z</time>
      </trkpt>
      <trkpt lat="46.64976" lon="6.51407">
        <ele>462.2</ele>
        <time>2022-09-28T14:39:29Z</time>
      </trkpt>
      <trkpt lat="46.64978" lon="6.51403">
        <ele>462.3</ele>
        <time>2022-09-28T14:39:30Z</time>
      </trkpt>
      <trkpt lat="46.64981" lon="6.51398">
        <ele>462.3</ele>
        <time>2022-09-28T14:39:31Z</time>
      </trkpt>
      <trkpt lat="46.64983" lon="6.51393">
        <ele>462.3</ele>
        <time>2022-09-28T14:39:32Z</time>
      </trkpt>
      <trkpt lat="46.64986" lon="6.51389">
        <ele>462.3</ele>
        <time>2022-09-28T14:39:33Z</time>
      </trkpt>
      <trkpt lat="46.64989" lon="6.51384">
        <ele>462.4</ele>
        <time>2022-09-28T14:39:34Z</time>
      </trkpt>
      <trkpt lat="46.64992" lon="6.5138">
        <ele>462.4</ele>
        <time>2022-09-28T14:39:35Z</time>
      </trkpt>
      <trkpt lat="46.64994" lon="6.51374">
        <ele>462.5</ele>
        <time>2022-09-28T14:39:36Z</time>
      </trkpt>
      <trkpt lat="46.64997" lon="6.51371">
        <ele>462.5</ele>
        <time>2022-09-28T14:39:37Z</time>
      </trkpt>
      <trkpt lat="46.65" lon="6.51367">
        <ele>462.5</ele>
        <time>2022-09-28T14:39:38Z</time>
      </trkpt>
      <trkpt lat="46.65002" lon="6.51362">
        <ele>462.6</ele>
        <time>2022-09-28T14:39:39Z</time>
      </trkpt>
      <trkpt lat="46.65003" lon="6.51358">
        <ele>462.6</ele>
        <time>2022-09-28T14:39:40Z</time>
      </trkpt>
      <trkpt lat="46.65006" lon="6.51351">
        <ele>462.6</ele>
        <time>2022-09-28T14:39:41Z</time>
      </trkpt>
      <trkpt lat="46.65008" lon="6.51348">
        <ele>462.6</ele>
        <time>2022-09-28T14:39:42Z</time>
      </trkpt>
      <trkpt lat="46.6501" lon="6.51344">
        <ele>462.6</ele>
        <time>2022-09-28T14:39:43Z</time>
      </trkpt>
      <trkpt lat="46.65013" lon="6.5134">
        <ele>462.6</ele>
        <time>2022-09-28T14:39:44Z</time>
      </trkpt>
      <trkpt lat="46.65015" lon="6.51336">
        <ele>462.6</ele>
        <time>2022-09-28T14:39:45Z</time>
      </trkpt>
      <trkpt lat="46.65017" lon="6.51331">
        <ele>462.6</ele>
        <time>2022-09-28T14:39:46Z</time>
      </trkpt>
      <trkpt lat="46.65019" lon="6.51326">
        <ele>462.5</ele>
        <time>2022-09-28T14:39:47Z</time>
      </trkpt>
      <trkpt lat="46.6502" lon="6.51321">
        <ele>462.5</ele>
        <time>2022-09-28T14:39:48Z</time>
      </trkpt>
      <trkpt lat="46.65021" lon="6.51315">
        <ele>462.5</ele>
        <time>2022-09-28T14:39:49Z</time>
      </trkpt>
      <trkpt lat="46.65022" lon="6.5131">
        <ele>462.5</ele>
        <time>2022-09-28T14:39:50Z</time>
      </trkpt>
      <trkpt lat="46.65023" lon="6.51305">
        <ele>462.5</ele>
        <time>2022-09-28T14:39:51Z</time>
      </trkpt>
      <trkpt lat="46.65023" lon="6.513">
        <ele>462.5</ele>
        <time>2022-09-28T14:39:52Z</time>
      </trkpt>
      <trkpt lat="46.65024" lon="6.51295">
        <ele>462.5</ele>
        <time>2022-09-28T14:39:53Z</time>
      </trkpt>
      <trkpt lat="46.65024" lon="6.5129">
        <ele>462.5</ele>
        <time>2022-09-28T14:39:54Z</time>
      </trkpt>
      <trkpt lat="46.65026" lon="6.51285">
        <ele>462.5</ele>
        <time>2022-09-28T14:39:55Z</time>
      </trkpt>
      <trkpt lat="46.65027" lon="6.51279">
        <ele>462.5</ele>
        <time>2022-09-28T14:39:56Z</time>
      </trkpt>
      <trkpt lat="46.65028" lon="6.51274">
        <ele>462.5</ele>
        <time>2022-09-28T14:39:57Z</time>
      </trkpt>
      <trkpt lat="46.65029" lon="6.51269">
        <ele>462.5</ele>
        <time>2022-09-28T14:39:58Z</time>
      </trkpt>
      <trkpt lat="46.6503" lon="6.51263">
        <ele>462.5</ele>
        <time>2022-09-28T14:39:59Z</time>
      </trkpt>
      <trkpt lat="46.6503" lon="6.51256">
        <ele>462.5</ele>
        <time>2022-09-28T14:40:00Z</time>
      </trkpt>
      <trkpt lat="46.65032" lon="6.51251">
        <ele>462.5</ele>
        <time>2022-09-28T14:40:01Z</time>
      </trkpt>
      <trkpt lat="46.65034" lon="6.51245">
        <ele>462.6</ele>
        <time>2022-09-28T14:40:02Z</time>
      </trkpt>
      <trkpt lat="46.65036" lon="6.51239">
        <ele>462.6</ele>
        <time>2022-09-28T14:40:03Z</time>
      </trkpt>
      <trkpt lat="46.65037" lon="6.51232">
        <ele>462.7</ele>
        <time>2022-09-28T14:40:04Z</time>
      </trkpt>
      <trkpt lat="46.65038" lon="6.51226">
        <ele>462.8</ele>
        <time>2022-09-28T14:40:05Z</time>
      </trkpt>
      <trkpt lat="46.65039" lon="6.5122">
        <ele>462.8</ele>
        <time>2022-09-28T14:40:06Z</time>
      </trkpt>
      <trkpt lat="46.65041" lon="6.51214">
        <ele>462.9</ele>
        <time>2022-09-28T14:40:07Z</time>
      </trkpt>
      <trkpt lat="46.65042" lon="6.51208">
        <ele>463.1</ele>
        <time>2022-09-28T14:40:08Z</time>
      </trkpt>
      <trkpt lat="46.65043" lon="6.51203">
        <ele>463.3</ele>
        <time>2022-09-28T14:40:09Z</time>
      </trkpt>
      <trkpt lat="46.65044" lon="6.51198">
        <ele>463.4</ele>
        <time>2022-09-28T14:40:10Z</time>
      </trkpt>
      <trkpt lat="46.65045" lon="6.51193">
        <ele>463.6</ele>
        <time>2022-09-28T14:40:11Z</time>
      </trkpt>
      <trkpt lat="46.65046" lon="6.51188">
        <ele>463.8</ele>
        <time>2022-09-28T14:40:12Z</time>
      </trkpt>
      <trkpt lat="46.65047" lon="6.51184">
        <ele>463.9</ele>
        <time>2022-09-28T14:40:13Z</time>
      </trkpt>
      <trkpt lat="46.65047" lon="6.51182">
        <ele>464</ele>
        <time>2022-09-28T14:40:14Z</time>
      </trkpt>
      <trkpt lat="46.65047" lon="6.51177">
        <ele>464.2</ele>
        <time>2022-09-28T14:40:15Z</time>
      </trkpt>
      <trkpt lat="46.65048" lon="6.51176">
        <ele>464.2</ele>
        <time>2022-09-28T14:40:16Z</time>
      </trkpt>
      <trkpt lat="46.65047" lon="6.5117">
        <ele>464.4</ele>
        <time>2022-09-28T14:40:17Z</time>
      </trkpt>
      <trkpt lat="46.65047" lon="6.51168">
        <ele>464.5</ele>
        <time>2022-09-28T14:40:18Z</time>
      </trkpt>
      <trkpt lat="46.65047" lon="6.51163">
        <ele>464.7</ele>
        <time>2022-09-28T14:40:19Z</time>
      </trkpt>
      <trkpt lat="46.65047" lon="6.51161">
        <ele>464.7</ele>
        <time>2022-09-28T14:40:20Z</time>
      </trkpt>
      <trkpt lat="46.65046" lon="6.51156">
        <ele>464.9</ele>
        <time>2022-09-28T14:40:21Z</time>
      </trkpt>
      <trkpt lat="46.65045" lon="6.51155">
        <ele>464.9</ele>
        <time>2022-09-28T14:40:22Z</time>
      </trkpt>
      <trkpt lat="46.65043" lon="6.5115">
        <ele>465.1</ele>
        <time>2022-09-28T14:40:23Z</time>
      </trkpt>
      <trkpt lat="46.65043" lon="6.51149">
        <ele>465.1</ele>
        <time>2022-09-28T14:40:24Z</time>
      </trkpt>
      <trkpt lat="46.65041" lon="6.51144">
        <ele>465.3</ele>
        <time>2022-09-28T14:40:25Z</time>
      </trkpt>
      <trkpt lat="46.65041" lon="6.51143">
        <ele>465.3</ele>
        <time>2022-09-28T14:40:26Z</time>
      </trkpt>
      <trkpt lat="46.65039" lon="6.51139">
        <ele>465.5</ele>
        <time>2022-09-28T14:40:27Z</time>
      </trkpt>
      <trkpt lat="46.65038" lon="6.51137">
        <ele>465.5</ele>
        <time>2022-09-28T14:40:28Z</time>
      </trkpt>
      <trkpt lat="46.65037" lon="6.51133">
        <ele>465.6</ele>
        <time>2022-09-28T14:40:29Z</time>
      </trkpt>
      <trkpt lat="46.65036" lon="6.51131">
        <ele>465.7</ele>
        <time>2022-09-28T14:40:30Z</time>
      </trkpt>
      <trkpt lat="46.65034" lon="6.51127">
        <ele>465.8</ele>
        <time>2022-09-28T14:40:31Z</time>
      </trkpt>
      <trkpt lat="46.65033" lon="6.51125">
        <ele>465.8</ele>
        <time>2022-09-28T14:40:32Z</time>
      </trkpt>
      <trkpt lat="46.65031" lon="6.51122">
        <ele>466</ele>
        <time>2022-09-28T14:40:33Z</time>
      </trkpt>
      <trkpt lat="46.6503" lon="6.5112">
        <ele>466</ele>
        <time>2022-09-28T14:40:34Z</time>
      </trkpt>
      <trkpt lat="46.65028" lon="6.51116">
        <ele>466.1</ele>
        <time>2022-09-28T14:40:35Z</time>
      </trkpt>
      <trkpt lat="46.65027" lon="6.51114">
        <ele>466.2</ele>
        <time>2022-09-28T14:40:36Z</time>
      </trkpt>
      <trkpt lat="46.65025" lon="6.5111">
        <ele>466.3</ele>
        <time>2022-09-28T14:40:37Z</time>
      </trkpt>
      <trkpt lat="46.65024" lon="6.51108">
        <ele>466.3</ele>
        <time>2022-09-28T14:40:38Z</time>
      </trkpt>
      <trkpt lat="46.65023" lon="6.51104">
        <ele>466.4</ele>
        <time>2022-09-28T14:40:39Z</time>
      </trkpt>
      <trkpt lat="46.65022" lon="6.51103">
        <ele>466.5</ele>
        <time>2022-09-28T14:40:40Z</time>
      </trkpt>
      <trkpt lat="46.65021" lon="6.51099">
        <ele>466.6</ele>
        <time>2022-09-28T14:40:41Z</time>
      </trkpt>
      <trkpt lat="46.6502" lon="6.51097">
        <ele>466.6</ele>
        <time>2022-09-28T14:40:42Z</time>
      </trkpt>
      <trkpt lat="46.65018" lon="6.51093">
        <ele>466.7</ele>
        <time>2022-09-28T14:40:43Z</time>
      </trkpt>
      <trkpt lat="46.65018" lon="6.51092">
        <ele>466.7</ele>
        <time>2022-09-28T14:40:44Z</time>
      </trkpt>
      <trkpt lat="46.65016" lon="6.51087">
        <ele>466.8</ele>
        <time>2022-09-28T14:40:45Z</time>
      </trkpt>
      <trkpt lat="46.65015" lon="6.51086">
        <ele>466.8</ele>
        <time>2022-09-28T14:40:46Z</time>
      </trkpt>
      <trkpt lat="46.65014" lon="6.51082">
        <ele>466.9</ele>
        <time>2022-09-28T14:40:47Z</time>
      </trkpt>
      <trkpt lat="46.65013" lon="6.5108">
        <ele>466.9</ele>
        <time>2022-09-28T14:40:48Z</time>
      </trkpt>
      <trkpt lat="46.65013" lon="6.51076">
        <ele>467</ele>
        <time>2022-09-28T14:40:49Z</time>
      </trkpt>
      <trkpt lat="46.65012" lon="6.51075">
        <ele>467</ele>
        <time>2022-09-28T14:40:50Z</time>
      </trkpt>
      <trkpt lat="46.65012" lon="6.51073">
        <ele>467</ele>
        <time>2022-09-28T14:40:51Z</time>
      </trkpt>
      <trkpt lat="46.65012" lon="6.5107">
        <ele>467</ele>
        <time>2022-09-28T14:40:52Z</time>
      </trkpt>
      <trkpt lat="46.65012" lon="6.51066">
        <ele>467</ele>
        <time>2022-09-28T14:40:53Z</time>
      </trkpt>
      <trkpt lat="46.65012" lon="6.51064">
        <ele>467</ele>
        <time>2022-09-28T14:40:54Z</time>
      </trkpt>
      <trkpt lat="46.65013" lon="6.51062">
        <ele>467</ele>
        <time>2022-09-28T14:40:55Z</time>
      </trkpt>
      <trkpt lat="46.65014" lon="6.5106">
        <ele>467</ele>
        <time>2022-09-28T14:40:56Z</time>
      </trkpt>
      <trkpt lat="46.65015" lon="6.51059">
        <ele>467</ele>
        <time>2022-09-28T14:40:57Z</time>
      </trkpt>
      <trkpt lat="46.65016" lon="6.51057">
        <ele>467</ele>
        <time>2022-09-28T14:40:58Z</time>
      </trkpt>
      <trkpt lat="46.65016" lon="6.51054">
        <ele>466.9</ele>
        <time>2022-09-28T14:40:59Z</time>
      </trkpt>
      <trkpt lat="46.65017" lon="6.51052">
        <ele>466.9</ele>
        <time>2022-09-28T14:41:00Z</time>
      </trkpt>
      <trkpt lat="46.65018" lon="6.51049">
        <ele>466.9</ele>
        <time>2022-09-28T14:41:01Z</time>
      </trkpt>
      <trkpt lat="46.65019" lon="6.51047">
        <ele>466.8</ele>
        <time>2022-09-28T14:41:02Z</time>
      </trkpt>
      <trkpt lat="46.65021" lon="6.51044">
        <ele>466.8</ele>
        <time>2022-09-28T14:41:03Z</time>
      </trkpt>
      <trkpt lat="46.65021" lon="6.51043">
        <ele>466.7</ele>
        <time>2022-09-28T14:41:04Z</time>
      </trkpt>
      <trkpt lat="46.65024" lon="6.5104">
        <ele>466.7</ele>
        <time>2022-09-28T14:41:05Z</time>
      </trkpt>
      <trkpt lat="46.65026" lon="6.51038">
        <ele>466.7</ele>
        <time>2022-09-28T14:41:06Z</time>
      </trkpt>
      <trkpt lat="46.65029" lon="6.51036">
        <ele>466.7</ele>
        <time>2022-09-28T14:41:07Z</time>
      </trkpt>
      <trkpt lat="46.65033" lon="6.51035">
        <ele>466.6</ele>
        <time>2022-09-28T14:41:08Z</time>
      </trkpt>
      <trkpt lat="46.65036" lon="6.51033">
        <ele>466.6</ele>
        <time>2022-09-28T14:41:09Z</time>
      </trkpt>
      <trkpt lat="46.6504" lon="6.51031">
        <ele>466.6</ele>
        <time>2022-09-28T14:41:10Z</time>
      </trkpt>
      <trkpt lat="46.65044" lon="6.51029">
        <ele>466.5</ele>
        <time>2022-09-28T14:41:11Z</time>
      </trkpt>
      <trkpt lat="46.65048" lon="6.51028">
        <ele>466.5</ele>
        <time>2022-09-28T14:41:12Z</time>
      </trkpt>
      <trkpt lat="46.65057" lon="6.51024">
        <ele>466.4</ele>
        <time>2022-09-28T14:41:13Z</time>
      </trkpt>
      <trkpt lat="46.65061" lon="6.51021">
        <ele>466.2</ele>
        <time>2022-09-28T14:41:14Z</time>
      </trkpt>
      <trkpt lat="46.65066" lon="6.51019">
        <ele>466</ele>
        <time>2022-09-28T14:41:15Z</time>
      </trkpt>
      <trkpt lat="46.6507" lon="6.51016">
        <ele>465.9</ele>
        <time>2022-09-28T14:41:16Z</time>
      </trkpt>
      <trkpt lat="46.65075" lon="6.51013">
        <ele>465.8</ele>
        <time>2022-09-28T14:41:17Z</time>
      </trkpt>
      <trkpt lat="46.65079" lon="6.5101">
        <ele>465.7</ele>
        <time>2022-09-28T14:41:18Z</time>
      </trkpt>
      <trkpt lat="46.65084" lon="6.51007">
        <ele>465.6</ele>
        <time>2022-09-28T14:41:19Z</time>
      </trkpt>
      <trkpt lat="46.65089" lon="6.51004">
        <ele>465.5</ele>
        <time>2022-09-28T14:41:20Z</time>
      </trkpt>
      <trkpt lat="46.65094" lon="6.51">
        <ele>465.5</ele>
        <time>2022-09-28T14:41:21Z</time>
      </trkpt>
      <trkpt lat="46.65098" lon="6.50997">
        <ele>465.4</ele>
        <time>2022-09-28T14:41:22Z</time>
      </trkpt>
      <trkpt lat="46.65103" lon="6.50994">
        <ele>465.4</ele>
        <time>2022-09-28T14:41:23Z</time>
      </trkpt>
      <trkpt lat="46.65108" lon="6.5099">
        <ele>465.4</ele>
        <time>2022-09-28T14:41:24Z</time>
      </trkpt>
      <trkpt lat="46.65112" lon="6.50986">
        <ele>465.4</ele>
        <time>2022-09-28T14:41:25Z</time>
      </trkpt>
      <trkpt lat="46.65117" lon="6.50982">
        <ele>465.3</ele>
        <time>2022-09-28T14:41:26Z</time>
      </trkpt>
      <trkpt lat="46.65121" lon="6.50978">
        <ele>465.3</ele>
        <time>2022-09-28T14:41:27Z</time>
      </trkpt>
      <trkpt lat="46.65125" lon="6.50974">
        <ele>465.3</ele>
        <time>2022-09-28T14:41:28Z</time>
      </trkpt>
      <trkpt lat="46.6513" lon="6.5097">
        <ele>465.3</ele>
        <time>2022-09-28T14:41:29Z</time>
      </trkpt>
      <trkpt lat="46.65134" lon="6.50965">
        <ele>465.2</ele>
        <time>2022-09-28T14:41:30Z</time>
      </trkpt>
      <trkpt lat="46.65139" lon="6.50961">
        <ele>465.2</ele>
        <time>2022-09-28T14:41:31Z</time>
      </trkpt>
      <trkpt lat="46.65143" lon="6.50957">
        <ele>465.2</ele>
        <time>2022-09-28T14:41:32Z</time>
      </trkpt>
      <trkpt lat="46.65147" lon="6.50952">
        <ele>465.2</ele>
        <time>2022-09-28T14:41:33Z</time>
      </trkpt>
      <trkpt lat="46.65151" lon="6.50948">
        <ele>465.1</ele>
        <time>2022-09-28T14:41:34Z</time>
      </trkpt>
      <trkpt lat="46.65156" lon="6.50943">
        <ele>465.1</ele>
        <time>2022-09-28T14:41:35Z</time>
      </trkpt>
      <trkpt lat="46.65161" lon="6.50938">
        <ele>465.1</ele>
        <time>2022-09-28T14:41:36Z</time>
      </trkpt>
      <trkpt lat="46.65165" lon="6.50934">
        <ele>465.1</ele>
        <time>2022-09-28T14:41:37Z</time>
      </trkpt>
      <trkpt lat="46.6517" lon="6.50929">
        <ele>465.1</ele>
        <time>2022-09-28T14:41:38Z</time>
      </trkpt>
      <trkpt lat="46.65175" lon="6.50924">
        <ele>465.1</ele>
        <time>2022-09-28T14:41:39Z</time>
      </trkpt>
      <trkpt lat="46.6518" lon="6.50919">
        <ele>465.1</ele>
        <time>2022-09-28T14:41:40Z</time>
      </trkpt>
      <trkpt lat="46.65184" lon="6.50914">
        <ele>465.1</ele>
        <time>2022-09-28T14:41:41Z</time>
      </trkpt>
      <trkpt lat="46.65189" lon="6.50909">
        <ele>465.1</ele>
        <time>2022-09-28T14:41:42Z</time>
      </trkpt>
      <trkpt lat="46.65194" lon="6.50905">
        <ele>465.1</ele>
        <time>2022-09-28T14:41:43Z</time>
      </trkpt>
      <trkpt lat="46.65199" lon="6.509">
        <ele>465.1</ele>
        <time>2022-09-28T14:41:44Z</time>
      </trkpt>
      <trkpt lat="46.65204" lon="6.50895">
        <ele>465.1</ele>
        <time>2022-09-28T14:41:45Z</time>
      </trkpt>
      <trkpt lat="46.65209" lon="6.5089">
        <ele>465.1</ele>
        <time>2022-09-28T14:41:46Z</time>
      </trkpt>
      <trkpt lat="46.65213" lon="6.50885">
        <ele>465.2</ele>
        <time>2022-09-28T14:41:47Z</time>
      </trkpt>
      <trkpt lat="46.65218" lon="6.50881">
        <ele>465.2</ele>
        <time>2022-09-28T14:41:48Z</time>
      </trkpt>
      <trkpt lat="46.65223" lon="6.50877">
        <ele>465.3</ele>
        <time>2022-09-28T14:41:49Z</time>
      </trkpt>
      <trkpt lat="46.65228" lon="6.50873">
        <ele>465.4</ele>
        <time>2022-09-28T14:41:50Z</time>
      </trkpt>
      <trkpt lat="46.65233" lon="6.50869">
        <ele>465.4</ele>
        <time>2022-09-28T14:41:52Z</time>
      </trkpt>
      <trkpt lat="46.65238" lon="6.50865">
        <ele>465.5</ele>
        <time>2022-09-28T14:41:53Z</time>
      </trkpt>
      <trkpt lat="46.65243" lon="6.50862">
        <ele>465.5</ele>
        <time>2022-09-28T14:41:54Z</time>
      </trkpt>
      <trkpt lat="46.65248" lon="6.50859">
        <ele>465.5</ele>
        <time>2022-09-28T14:41:55Z</time>
      </trkpt>
      <trkpt lat="46.65254" lon="6.50856">
        <ele>465.6</ele>
        <time>2022-09-28T14:41:56Z</time>
      </trkpt>
      <trkpt lat="46.65259" lon="6.50853">
        <ele>465.7</ele>
        <time>2022-09-28T14:41:57Z</time>
      </trkpt>
      <trkpt lat="46.65264" lon="6.50851">
        <ele>465.8</ele>
        <time>2022-09-28T14:41:58Z</time>
      </trkpt>
      <trkpt lat="46.65269" lon="6.50849">
        <ele>465.9</ele>
        <time>2022-09-28T14:41:59Z</time>
      </trkpt>
      <trkpt lat="46.65274" lon="6.50847">
        <ele>466</ele>
        <time>2022-09-28T14:42:00Z</time>
      </trkpt>
      <trkpt lat="46.65279" lon="6.50845">
        <ele>466.1</ele>
        <time>2022-09-28T14:42:01Z</time>
      </trkpt>
      <trkpt lat="46.65283" lon="6.50843">
        <ele>466.2</ele>
        <time>2022-09-28T14:42:02Z</time>
      </trkpt>
      <trkpt lat="46.65288" lon="6.50841">
        <ele>466.3</ele>
        <time>2022-09-28T14:42:03Z</time>
      </trkpt>
      <trkpt lat="46.65293" lon="6.5084">
        <ele>466.4</ele>
        <time>2022-09-28T14:42:04Z</time>
      </trkpt>
      <trkpt lat="46.65297" lon="6.50839">
        <ele>466.5</ele>
        <time>2022-09-28T14:42:05Z</time>
      </trkpt>
      <trkpt lat="46.65301" lon="6.50838">
        <ele>466.6</ele>
        <time>2022-09-28T14:42:06Z</time>
      </trkpt>
      <trkpt lat="46.65305" lon="6.50837">
        <ele>466.6</ele>
        <time>2022-09-28T14:42:07Z</time>
      </trkpt>
      <trkpt lat="46.65309" lon="6.50837">
        <ele>466.7</ele>
        <time>2022-09-28T14:42:08Z</time>
      </trkpt>
      <trkpt lat="46.65313" lon="6.50837">
        <ele>466.7</ele>
        <time>2022-09-28T14:42:09Z</time>
      </trkpt>
      <trkpt lat="46.65317" lon="6.50837">
        <ele>466.8</ele>
        <time>2022-09-28T14:42:10Z</time>
      </trkpt>
      <trkpt lat="46.65322" lon="6.50836">
        <ele>466.9</ele>
        <time>2022-09-28T14:42:11Z</time>
      </trkpt>
      <trkpt lat="46.65326" lon="6.50836">
        <ele>467</ele>
        <time>2022-09-28T14:42:12Z</time>
      </trkpt>
      <trkpt lat="46.6533" lon="6.50836">
        <ele>467</ele>
        <time>2022-09-28T14:42:13Z</time>
      </trkpt>
      <trkpt lat="46.65334" lon="6.50837">
        <ele>467.1</ele>
        <time>2022-09-28T14:42:14Z</time>
      </trkpt>
      <trkpt lat="46.65339" lon="6.50838">
        <ele>467.2</ele>
        <time>2022-09-28T14:42:15Z</time>
      </trkpt>
      <trkpt lat="46.65343" lon="6.50838">
        <ele>467.2</ele>
        <time>2022-09-28T14:42:16Z</time>
      </trkpt>
      <trkpt lat="46.65347" lon="6.50839">
        <ele>467.2</ele>
        <time>2022-09-28T14:42:17Z</time>
      </trkpt>
      <trkpt lat="46.65351" lon="6.50839">
        <ele>467.3</ele>
        <time>2022-09-28T14:42:18Z</time>
      </trkpt>
      <trkpt lat="46.65356" lon="6.50839">
        <ele>467.3</ele>
        <time>2022-09-28T14:42:19Z</time>
      </trkpt>
      <trkpt lat="46.6536" lon="6.50839">
        <ele>467.4</ele>
        <time>2022-09-28T14:42:20Z</time>
      </trkpt>
      <trkpt lat="46.65364" lon="6.5084">
        <ele>467.4</ele>
        <time>2022-09-28T14:42:21Z</time>
      </trkpt>
      <trkpt lat="46.65368" lon="6.5084">
        <ele>467.5</ele>
        <time>2022-09-28T14:42:22Z</time>
      </trkpt>
      <trkpt lat="46.65373" lon="6.5084">
        <ele>467.5</ele>
        <time>2022-09-28T14:42:23Z</time>
      </trkpt>
      <trkpt lat="46.65377" lon="6.50841">
        <ele>467.6</ele>
        <time>2022-09-28T14:42:24Z</time>
      </trkpt>
      <trkpt lat="46.65381" lon="6.50841">
        <ele>467.7</ele>
        <time>2022-09-28T14:42:25Z</time>
      </trkpt>
      <trkpt lat="46.65386" lon="6.50841">
        <ele>467.8</ele>
        <time>2022-09-28T14:42:26Z</time>
      </trkpt>
      <trkpt lat="46.6539" lon="6.50841">
        <ele>467.9</ele>
        <time>2022-09-28T14:42:27Z</time>
      </trkpt>
      <trkpt lat="46.65395" lon="6.50842">
        <ele>467.9</ele>
        <time>2022-09-28T14:42:28Z</time>
      </trkpt>
      <trkpt lat="46.65399" lon="6.50842">
        <ele>468</ele>
        <time>2022-09-28T14:42:29Z</time>
      </trkpt>
      <trkpt lat="46.65403" lon="6.50842">
        <ele>468.1</ele>
        <time>2022-09-28T14:42:30Z</time>
      </trkpt>
      <trkpt lat="46.65407" lon="6.50843">
        <ele>468.1</ele>
        <time>2022-09-28T14:42:31Z</time>
      </trkpt>
      <trkpt lat="46.65411" lon="6.50843">
        <ele>468.2</ele>
        <time>2022-09-28T14:42:32Z</time>
      </trkpt>
      <trkpt lat="46.65415" lon="6.50844">
        <ele>468.3</ele>
        <time>2022-09-28T14:42:33Z</time>
      </trkpt>
      <trkpt lat="46.65418" lon="6.50845">
        <ele>468.4</ele>
        <time>2022-09-28T14:42:34Z</time>
      </trkpt>
      <trkpt lat="46.65422" lon="6.50845">
        <ele>468.4</ele>
        <time>2022-09-28T14:42:35Z</time>
      </trkpt>
      <trkpt lat="46.65426" lon="6.50846">
        <ele>468.5</ele>
        <time>2022-09-28T14:42:36Z</time>
      </trkpt>
      <trkpt lat="46.6543" lon="6.50847">
        <ele>468.6</ele>
        <time>2022-09-28T14:42:37Z</time>
      </trkpt>
      <trkpt lat="46.65434" lon="6.50848">
        <ele>468.8</ele>
        <time>2022-09-28T14:42:38Z</time>
      </trkpt>
      <trkpt lat="46.65437" lon="6.50849">
        <ele>468.9</ele>
        <time>2022-09-28T14:42:39Z</time>
      </trkpt>
      <trkpt lat="46.65441" lon="6.5085">
        <ele>469</ele>
        <time>2022-09-28T14:42:40Z</time>
      </trkpt>
      <trkpt lat="46.65444" lon="6.50851">
        <ele>469.1</ele>
        <time>2022-09-28T14:42:41Z</time>
      </trkpt>
      <trkpt lat="46.65447" lon="6.50852">
        <ele>469.3</ele>
        <time>2022-09-28T14:42:42Z</time>
      </trkpt>
      <trkpt lat="46.65451" lon="6.50854">
        <ele>469.5</ele>
        <time>2022-09-28T14:42:43Z</time>
      </trkpt>
      <trkpt lat="46.65452" lon="6.50855">
        <ele>469.5</ele>
        <time>2022-09-28T14:42:44Z</time>
      </trkpt>
      <trkpt lat="46.65455" lon="6.50856">
        <ele>469.7</ele>
        <time>2022-09-28T14:42:45Z</time>
      </trkpt>
      <trkpt lat="46.65456" lon="6.50856">
        <ele>469.7</ele>
        <time>2022-09-28T14:42:46Z</time>
      </trkpt>
      <trkpt lat="46.65459" lon="6.50858">
        <ele>469.9</ele>
        <time>2022-09-28T14:42:47Z</time>
      </trkpt>
      <trkpt lat="46.65462" lon="6.50859">
        <ele>470</ele>
        <time>2022-09-28T14:42:48Z</time>
      </trkpt>
      <trkpt lat="46.65466" lon="6.50861">
        <ele>470.1</ele>
        <time>2022-09-28T14:42:49Z</time>
      </trkpt>
      <trkpt lat="46.65467" lon="6.50862">
        <ele>470.1</ele>
        <time>2022-09-28T14:42:50Z</time>
      </trkpt>
      <trkpt lat="46.6547" lon="6.50864">
        <ele>470.3</ele>
        <time>2022-09-28T14:42:51Z</time>
      </trkpt>
      <trkpt lat="46.65471" lon="6.50865">
        <ele>470.3</ele>
        <time>2022-09-28T14:42:52Z</time>
      </trkpt>
      <trkpt lat="46.65474" lon="6.50868">
        <ele>470.4</ele>
        <time>2022-09-28T14:42:53Z</time>
      </trkpt>
      <trkpt lat="46.65475" lon="6.50868">
        <ele>470.5</ele>
        <time>2022-09-28T14:42:54Z</time>
      </trkpt>
      <trkpt lat="46.65478" lon="6.5087">
        <ele>470.6</ele>
        <time>2022-09-28T14:42:55Z</time>
      </trkpt>
      <trkpt lat="46.65481" lon="6.50872">
        <ele>470.8</ele>
        <time>2022-09-28T14:42:56Z</time>
      </trkpt>
      <trkpt lat="46.65482" lon="6.50873">
        <ele>470.9</ele>
        <time>2022-09-28T14:42:57Z</time>
      </trkpt>
      <trkpt lat="46.65486" lon="6.50875">
        <ele>471.1</ele>
        <time>2022-09-28T14:42:58Z</time>
      </trkpt>
      <trkpt lat="46.65487" lon="6.50875">
        <ele>471.1</ele>
        <time>2022-09-28T14:42:59Z</time>
      </trkpt>
      <trkpt lat="46.6549" lon="6.50878">
        <ele>471.3</ele>
        <time>2022-09-28T14:43:00Z</time>
      </trkpt>
      <trkpt lat="46.65491" lon="6.50879">
        <ele>471.4</ele>
        <time>2022-09-28T14:43:01Z</time>
      </trkpt>
      <trkpt lat="46.65494" lon="6.50881">
        <ele>471.6</ele>
        <time>2022-09-28T14:43:02Z</time>
      </trkpt>
      <trkpt lat="46.65495" lon="6.50882">
        <ele>471.6</ele>
        <time>2022-09-28T14:43:03Z</time>
      </trkpt>
      <trkpt lat="46.65498" lon="6.50885">
        <ele>471.8</ele>
        <time>2022-09-28T14:43:04Z</time>
      </trkpt>
      <trkpt lat="46.65499" lon="6.50886">
        <ele>471.9</ele>
        <time>2022-09-28T14:43:05Z</time>
      </trkpt>
      <trkpt lat="46.65502" lon="6.50889">
        <ele>472.1</ele>
        <time>2022-09-28T14:43:06Z</time>
      </trkpt>
      <trkpt lat="46.65503" lon="6.50889">
        <ele>472.1</ele>
        <time>2022-09-28T14:43:07Z</time>
      </trkpt>
      <trkpt lat="46.65506" lon="6.50892">
        <ele>472.3</ele>
        <time>2022-09-28T14:43:08Z</time>
      </trkpt>
      <trkpt lat="46.65507" lon="6.50893">
        <ele>472.3</ele>
        <time>2022-09-28T14:43:09Z</time>
      </trkpt>
      <trkpt lat="46.65509" lon="6.50896">
        <ele>472.5</ele>
        <time>2022-09-28T14:43:10Z</time>
      </trkpt>
      <trkpt lat="46.6551" lon="6.50897">
        <ele>472.5</ele>
        <time>2022-09-28T14:43:11Z</time>
      </trkpt>
      <trkpt lat="46.65512" lon="6.509">
        <ele>472.7</ele>
        <time>2022-09-28T14:43:12Z</time>
      </trkpt>
      <trkpt lat="46.65513" lon="6.50901">
        <ele>472.7</ele>
        <time>2022-09-28T14:43:13Z</time>
      </trkpt>
      <trkpt lat="46.65516" lon="6.50904">
        <ele>472.9</ele>
        <time>2022-09-28T14:43:14Z</time>
      </trkpt>
      <trkpt lat="46.65516" lon="6.50904">
        <ele>472.9</ele>
        <time>2022-09-28T14:43:15Z</time>
      </trkpt>
      <trkpt lat="46.65519" lon="6.50907">
        <ele>473.1</ele>
        <time>2022-09-28T14:43:16Z</time>
      </trkpt>
      <trkpt lat="46.6552" lon="6.50908">
        <ele>473.1</ele>
        <time>2022-09-28T14:43:17Z</time>
      </trkpt>
      <trkpt lat="46.65522" lon="6.50912">
        <ele>473.3</ele>
        <time>2022-09-28T14:43:18Z</time>
      </trkpt>
      <trkpt lat="46.65523" lon="6.50912">
        <ele>473.3</ele>
        <time>2022-09-28T14:43:19Z</time>
      </trkpt>
      <trkpt lat="46.65524" lon="6.50914">
        <ele>473.4</ele>
        <time>2022-09-28T14:43:20Z</time>
      </trkpt>
      <trkpt lat="46.65524" lon="6.50914">
        <ele>473.4</ele>
        <time>2022-09-28T14:43:21Z</time>
      </trkpt>
      <trkpt lat="46.65524" lon="6.50913">
        <ele>473.4</ele>
        <time>2022-09-28T14:43:22Z</time>
      </trkpt>
      <trkpt lat="46.65524" lon="6.50913">
        <ele>473.5</ele>
        <time>2022-09-28T14:43:23Z</time>
      </trkpt>
      <trkpt lat="46.65524" lon="6.50913">
        <ele>473.5</ele>
        <time>2022-09-28T14:43:24Z</time>
      </trkpt>
      <trkpt lat="46.65524" lon="6.50913">
        <ele>473.5</ele>
        <time>2022-09-28T14:43:25Z</time>
      </trkpt>
      <trkpt lat="46.65524" lon="6.50912">
        <ele>473.5</ele>
        <time>2022-09-28T14:43:26Z</time>
      </trkpt>
      <trkpt lat="46.65525" lon="6.50913">
        <ele>473.5</ele>
        <time>2022-09-28T14:43:27Z</time>
      </trkpt>
      <trkpt lat="46.65525" lon="6.50913">
        <ele>473.5</ele>
        <time>2022-09-28T14:43:28Z</time>
      </trkpt>
      <trkpt lat="46.65525" lon="6.50913">
        <ele>473.6</ele>
        <time>2022-09-28T14:43:29Z</time>
      </trkpt>
      <trkpt lat="46.65526" lon="6.50913">
        <ele>473.6</ele>
        <time>2022-09-28T14:43:30Z</time>
      </trkpt>
      <trkpt lat="46.65531" lon="6.50919">
        <ele>473.9</ele>
        <time>2022-09-28T14:44:33Z</time>
      </trkpt>
      <trkpt lat="46.65532" lon="6.5092">
        <ele>474</ele>
        <time>2022-09-28T14:44:34Z</time>
      </trkpt>
      <trkpt lat="46.65532" lon="6.50921">
        <ele>474</ele>
        <time>2022-09-28T14:44:35Z</time>
      </trkpt>
      <trkpt lat="46.65533" lon="6.50923">
        <ele>474.1</ele>
        <time>2022-09-28T14:44:36Z</time>
      </trkpt>
      <trkpt lat="46.65535" lon="6.50925">
        <ele>474.2</ele>
        <time>2022-09-28T14:44:37Z</time>
      </trkpt>
      <trkpt lat="46.65537" lon="6.50929">
        <ele>474.3</ele>
        <time>2022-09-28T14:44:38Z</time>
      </trkpt>
      <trkpt lat="46.65538" lon="6.5093">
        <ele>474.4</ele>
        <time>2022-09-28T14:44:39Z</time>
      </trkpt>
      <trkpt lat="46.65541" lon="6.50933">
        <ele>474.5</ele>
        <time>2022-09-28T14:44:40Z</time>
      </trkpt>
      <trkpt lat="46.65541" lon="6.50935">
        <ele>474.6</ele>
        <time>2022-09-28T14:44:41Z</time>
      </trkpt>
      <trkpt lat="46.65544" lon="6.50938">
        <ele>474.7</ele>
        <time>2022-09-28T14:44:42Z</time>
      </trkpt>
      <trkpt lat="46.65545" lon="6.50939">
        <ele>474.8</ele>
        <time>2022-09-28T14:44:43Z</time>
      </trkpt>
      <trkpt lat="46.65547" lon="6.50942">
        <ele>474.9</ele>
        <time>2022-09-28T14:44:44Z</time>
      </trkpt>
      <trkpt lat="46.65548" lon="6.50943">
        <ele>475</ele>
        <time>2022-09-28T14:44:45Z</time>
      </trkpt>
      <trkpt lat="46.6555" lon="6.50946">
        <ele>475.1</ele>
        <time>2022-09-28T14:44:46Z</time>
      </trkpt>
      <trkpt lat="46.65552" lon="6.5095">
        <ele>475.2</ele>
        <time>2022-09-28T14:44:47Z</time>
      </trkpt>
      <trkpt lat="46.65555" lon="6.50953">
        <ele>475.4</ele>
        <time>2022-09-28T14:44:48Z</time>
      </trkpt>
      <trkpt lat="46.65555" lon="6.50955">
        <ele>475.4</ele>
        <time>2022-09-28T14:44:49Z</time>
      </trkpt>
      <trkpt lat="46.65558" lon="6.50958">
        <ele>475.6</ele>
        <time>2022-09-28T14:44:50Z</time>
      </trkpt>
      <trkpt lat="46.65559" lon="6.50959">
        <ele>475.6</ele>
        <time>2022-09-28T14:44:51Z</time>
      </trkpt>
      <trkpt lat="46.65562" lon="6.50963">
        <ele>475.7</ele>
        <time>2022-09-28T14:44:52Z</time>
      </trkpt>
      <trkpt lat="46.65562" lon="6.50964">
        <ele>475.7</ele>
        <time>2022-09-28T14:44:53Z</time>
      </trkpt>
      <trkpt lat="46.65565" lon="6.50968">
        <ele>475.8</ele>
        <time>2022-09-28T14:44:54Z</time>
      </trkpt>
      <trkpt lat="46.65566" lon="6.50969">
        <ele>475.9</ele>
        <time>2022-09-28T14:44:55Z</time>
      </trkpt>
      <trkpt lat="46.65569" lon="6.50973">
        <ele>476</ele>
        <time>2022-09-28T14:44:56Z</time>
      </trkpt>
      <trkpt lat="46.6557" lon="6.50974">
        <ele>476</ele>
        <time>2022-09-28T14:44:57Z</time>
      </trkpt>
      <trkpt lat="46.65572" lon="6.50977">
        <ele>476.1</ele>
        <time>2022-09-28T14:44:58Z</time>
      </trkpt>
      <trkpt lat="46.65573" lon="6.50978">
        <ele>476.1</ele>
        <time>2022-09-28T14:44:59Z</time>
      </trkpt>
      <trkpt lat="46.65576" lon="6.50982">
        <ele>476.3</ele>
        <time>2022-09-28T14:45:00Z</time>
      </trkpt>
      <trkpt lat="46.65577" lon="6.50983">
        <ele>476.3</ele>
        <time>2022-09-28T14:45:01Z</time>
      </trkpt>
      <trkpt lat="46.6558" lon="6.50987">
        <ele>476.5</ele>
        <time>2022-09-28T14:45:02Z</time>
      </trkpt>
      <trkpt lat="46.6558" lon="6.50989">
        <ele>476.5</ele>
        <time>2022-09-28T14:45:03Z</time>
      </trkpt>
      <trkpt lat="46.65583" lon="6.50991">
        <ele>476.6</ele>
        <time>2022-09-28T14:45:04Z</time>
      </trkpt>
      <trkpt lat="46.65585" lon="6.50994">
        <ele>476.8</ele>
        <time>2022-09-28T14:45:05Z</time>
      </trkpt>
      <trkpt lat="46.65587" lon="6.50997">
        <ele>476.9</ele>
        <time>2022-09-28T14:45:06Z</time>
      </trkpt>
      <trkpt lat="46.65588" lon="6.50999">
        <ele>476.9</ele>
        <time>2022-09-28T14:45:07Z</time>
      </trkpt>
      <trkpt lat="46.65591" lon="6.51002">
        <ele>477.1</ele>
        <time>2022-09-28T14:45:08Z</time>
      </trkpt>
      <trkpt lat="46.65593" lon="6.51006">
        <ele>477.2</ele>
        <time>2022-09-28T14:45:09Z</time>
      </trkpt>
      <trkpt lat="46.65593" lon="6.51007">
        <ele>477.3</ele>
        <time>2022-09-28T14:45:10Z</time>
      </trkpt>
      <trkpt lat="46.65595" lon="6.5101">
        <ele>477.3</ele>
        <time>2022-09-28T14:45:11Z</time>
      </trkpt>
      <trkpt lat="46.65598" lon="6.51013">
        <ele>477.5</ele>
        <time>2022-09-28T14:45:12Z</time>
      </trkpt>
      <trkpt lat="46.65598" lon="6.51014">
        <ele>477.5</ele>
        <time>2022-09-28T14:45:13Z</time>
      </trkpt>
      <trkpt lat="46.656" lon="6.51017">
        <ele>477.6</ele>
        <time>2022-09-28T14:45:14Z</time>
      </trkpt>
      <trkpt lat="46.65603" lon="6.51021">
        <ele>477.7</ele>
        <time>2022-09-28T14:45:15Z</time>
      </trkpt>
      <trkpt lat="46.65604" lon="6.51022">
        <ele>477.7</ele>
        <time>2022-09-28T14:45:16Z</time>
      </trkpt>
      <trkpt lat="46.65606" lon="6.51026">
        <ele>477.9</ele>
        <time>2022-09-28T14:45:17Z</time>
      </trkpt>
      <trkpt lat="46.65607" lon="6.51027">
        <ele>477.9</ele>
        <time>2022-09-28T14:45:18Z</time>
      </trkpt>
      <trkpt lat="46.65609" lon="6.51031">
        <ele>478</ele>
        <time>2022-09-28T14:45:19Z</time>
      </trkpt>
      <trkpt lat="46.65611" lon="6.51035">
        <ele>478</ele>
        <time>2022-09-28T14:45:20Z</time>
      </trkpt>
      <trkpt lat="46.65612" lon="6.51036">
        <ele>478</ele>
        <time>2022-09-28T14:45:21Z</time>
      </trkpt>
      <trkpt lat="46.65615" lon="6.5104">
        <ele>478.1</ele>
        <time>2022-09-28T14:45:22Z</time>
      </trkpt>
      <trkpt lat="46.65616" lon="6.51042">
        <ele>478.1</ele>
        <time>2022-09-28T14:45:23Z</time>
      </trkpt>
      <trkpt lat="46.65618" lon="6.51046">
        <ele>478.2</ele>
        <time>2022-09-28T14:45:24Z</time>
      </trkpt>
      <trkpt lat="46.65619" lon="6.51047">
        <ele>478.2</ele>
        <time>2022-09-28T14:45:25Z</time>
      </trkpt>
      <trkpt lat="46.65621" lon="6.5105">
        <ele>478.3</ele>
        <time>2022-09-28T14:45:26Z</time>
      </trkpt>
      <trkpt lat="46.65622" lon="6.51051">
        <ele>478.4</ele>
        <time>2022-09-28T14:45:27Z</time>
      </trkpt>
      <trkpt lat="46.65625" lon="6.51053">
        <ele>478.5</ele>
        <time>2022-09-28T14:45:28Z</time>
      </trkpt>
      <trkpt lat="46.65626" lon="6.51054">
        <ele>478.6</ele>
        <time>2022-09-28T14:45:29Z</time>
      </trkpt>
      <trkpt lat="46.65629" lon="6.51057">
        <ele>478.8</ele>
        <time>2022-09-28T14:45:30Z</time>
      </trkpt>
      <trkpt lat="46.65629" lon="6.51058">
        <ele>478.8</ele>
        <time>2022-09-28T14:45:31Z</time>
      </trkpt>
      <trkpt lat="46.65632" lon="6.51061">
        <ele>479</ele>
        <time>2022-09-28T14:45:32Z</time>
      </trkpt>
      <trkpt lat="46.65633" lon="6.51062">
        <ele>479</ele>
        <time>2022-09-28T14:45:33Z</time>
      </trkpt>
      <trkpt lat="46.65635" lon="6.51066">
        <ele>479.2</ele>
        <time>2022-09-28T14:45:34Z</time>
      </trkpt>
      <trkpt lat="46.65635" lon="6.51067">
        <ele>479.2</ele>
        <time>2022-09-28T14:45:35Z</time>
      </trkpt>
      <trkpt lat="46.65638" lon="6.51071">
        <ele>479.4</ele>
        <time>2022-09-28T14:45:36Z</time>
      </trkpt>
      <trkpt lat="46.65638" lon="6.51072">
        <ele>479.5</ele>
        <time>2022-09-28T14:45:37Z</time>
      </trkpt>
      <trkpt lat="46.6564" lon="6.51076">
        <ele>479.6</ele>
        <time>2022-09-28T14:45:38Z</time>
      </trkpt>
      <trkpt lat="46.65643" lon="6.5108">
        <ele>479.8</ele>
        <time>2022-09-28T14:45:39Z</time>
      </trkpt>
      <trkpt lat="46.65644" lon="6.51081">
        <ele>479.9</ele>
        <time>2022-09-28T14:45:40Z</time>
      </trkpt>
      <trkpt lat="46.65646" lon="6.51084">
        <ele>480</ele>
        <time>2022-09-28T14:45:41Z</time>
      </trkpt>
      <trkpt lat="46.65647" lon="6.51086">
        <ele>480.1</ele>
        <time>2022-09-28T14:45:42Z</time>
      </trkpt>
      <trkpt lat="46.65649" lon="6.51089">
        <ele>480.3</ele>
        <time>2022-09-28T14:45:43Z</time>
      </trkpt>
      <trkpt lat="46.6565" lon="6.5109">
        <ele>480.3</ele>
        <time>2022-09-28T14:45:44Z</time>
      </trkpt>
      <trkpt lat="46.65652" lon="6.51094">
        <ele>480.5</ele>
        <time>2022-09-28T14:45:45Z</time>
      </trkpt>
      <trkpt lat="46.65653" lon="6.51095">
        <ele>480.5</ele>
        <time>2022-09-28T14:45:46Z</time>
      </trkpt>
      <trkpt lat="46.65655" lon="6.51097">
        <ele>480.7</ele>
        <time>2022-09-28T14:45:47Z</time>
      </trkpt>
      <trkpt lat="46.65657" lon="6.51101">
        <ele>480.9</ele>
        <time>2022-09-28T14:45:48Z</time>
      </trkpt>
      <trkpt lat="46.65658" lon="6.51103">
        <ele>480.9</ele>
        <time>2022-09-28T14:45:49Z</time>
      </trkpt>
      <trkpt lat="46.65661" lon="6.51107">
        <ele>481.1</ele>
        <time>2022-09-28T14:45:50Z</time>
      </trkpt>
      <trkpt lat="46.65662" lon="6.51108">
        <ele>481.2</ele>
        <time>2022-09-28T14:45:51Z</time>
      </trkpt>
      <trkpt lat="46.65664" lon="6.51112">
        <ele>481.4</ele>
        <time>2022-09-28T14:45:52Z</time>
      </trkpt>
      <trkpt lat="46.65665" lon="6.51114">
        <ele>481.4</ele>
        <time>2022-09-28T14:45:53Z</time>
      </trkpt>
      <trkpt lat="46.65669" lon="6.51119">
        <ele>481.7</ele>
        <time>2022-09-28T14:45:54Z</time>
      </trkpt>
      <trkpt lat="46.65671" lon="6.51122">
        <ele>481.9</ele>
        <time>2022-09-28T14:45:55Z</time>
      </trkpt>
      <trkpt lat="46.65673" lon="6.51125">
        <ele>482.2</ele>
        <time>2022-09-28T14:45:56Z</time>
      </trkpt>
      <trkpt lat="46.65674" lon="6.51125">
        <ele>482.2</ele>
        <time>2022-09-28T14:45:57Z</time>
      </trkpt>
      <trkpt lat="46.65677" lon="6.51128">
        <ele>482.6</ele>
        <time>2022-09-28T14:45:58Z</time>
      </trkpt>
      <trkpt lat="46.65678" lon="6.51129">
        <ele>482.6</ele>
        <time>2022-09-28T14:45:59Z</time>
      </trkpt>
      <trkpt lat="46.6568" lon="6.51131">
        <ele>483</ele>
        <time>2022-09-28T14:46:00Z</time>
      </trkpt>
      <trkpt lat="46.65681" lon="6.51133">
        <ele>483.1</ele>
        <time>2022-09-28T14:46:01Z</time>
      </trkpt>
      <trkpt lat="46.65684" lon="6.51135">
        <ele>483.4</ele>
        <time>2022-09-28T14:46:02Z</time>
      </trkpt>
      <trkpt lat="46.65685" lon="6.51135">
        <ele>483.5</ele>
        <time>2022-09-28T14:46:04Z</time>
      </trkpt>
      <trkpt lat="46.65686" lon="6.51135">
        <ele>483.6</ele>
        <time>2022-09-28T14:46:05Z</time>
      </trkpt>
      <trkpt lat="46.65687" lon="6.51137">
        <ele>483.7</ele>
        <time>2022-09-28T14:46:06Z</time>
      </trkpt>
      <trkpt lat="46.65688" lon="6.51138">
        <ele>483.9</ele>
        <time>2022-09-28T14:46:07Z</time>
      </trkpt>
      <trkpt lat="46.6569" lon="6.5114">
        <ele>484.1</ele>
        <time>2022-09-28T14:46:08Z</time>
      </trkpt>
      <trkpt lat="46.65691" lon="6.51141">
        <ele>484.3</ele>
        <time>2022-09-28T14:46:09Z</time>
      </trkpt>
      <trkpt lat="46.65693" lon="6.51142">
        <ele>484.5</ele>
        <time>2022-09-28T14:46:10Z</time>
      </trkpt>
      <trkpt lat="46.65694" lon="6.51143">
        <ele>484.7</ele>
        <time>2022-09-28T14:46:11Z</time>
      </trkpt>
      <trkpt lat="46.65697" lon="6.51146">
        <ele>485</ele>
        <time>2022-09-28T14:46:12Z</time>
      </trkpt>
      <trkpt lat="46.65699" lon="6.51149">
        <ele>485.3</ele>
        <time>2022-09-28T14:46:13Z</time>
      </trkpt>
      <trkpt lat="46.657" lon="6.51149">
        <ele>485.4</ele>
        <time>2022-09-28T14:46:14Z</time>
      </trkpt>
      <trkpt lat="46.65702" lon="6.5115">
        <ele>485.6</ele>
        <time>2022-09-28T14:46:15Z</time>
      </trkpt>
      <trkpt lat="46.65703" lon="6.5115">
        <ele>485.5</ele>
        <time>2022-09-28T14:46:16Z</time>
      </trkpt>
      <trkpt lat="46.65704" lon="6.51152">
        <ele>485.5</ele>
        <time>2022-09-28T14:46:17Z</time>
      </trkpt>
      <trkpt lat="46.65706" lon="6.51152">
        <ele>485.5</ele>
        <time>2022-09-28T14:46:18Z</time>
      </trkpt>
      <trkpt lat="46.65706" lon="6.51154">
        <ele>485.5</ele>
        <time>2022-09-28T14:46:19Z</time>
      </trkpt>
      <trkpt lat="46.65707" lon="6.51155">
        <ele>485.5</ele>
        <time>2022-09-28T14:46:20Z</time>
      </trkpt>
      <trkpt lat="46.65708" lon="6.51156">
        <ele>485.6</ele>
        <time>2022-09-28T14:46:21Z</time>
      </trkpt>
      <trkpt lat="46.6571" lon="6.51157">
        <ele>485.8</ele>
        <time>2022-09-28T14:46:22Z</time>
      </trkpt>
      <trkpt lat="46.65712" lon="6.51158">
        <ele>485.9</ele>
        <time>2022-09-28T14:46:23Z</time>
      </trkpt>
      <trkpt lat="46.65713" lon="6.51158">
        <ele>486</ele>
        <time>2022-09-28T14:46:24Z</time>
      </trkpt>
      <trkpt lat="46.65716" lon="6.5116">
        <ele>486.2</ele>
        <time>2022-09-28T14:46:25Z</time>
      </trkpt>
      <trkpt lat="46.65717" lon="6.51161">
        <ele>486.3</ele>
        <time>2022-09-28T14:46:26Z</time>
      </trkpt>
      <trkpt lat="46.65719" lon="6.51163">
        <ele>486.6</ele>
        <time>2022-09-28T14:46:27Z</time>
      </trkpt>
      <trkpt lat="46.6572" lon="6.51164">
        <ele>486.7</ele>
        <time>2022-09-28T14:46:28Z</time>
      </trkpt>
      <trkpt lat="46.65722" lon="6.51167">
        <ele>486.9</ele>
        <time>2022-09-28T14:46:29Z</time>
      </trkpt>
      <trkpt lat="46.65724" lon="6.5117">
        <ele>487.2</ele>
        <time>2022-09-28T14:46:30Z</time>
      </trkpt>
      <trkpt lat="46.65725" lon="6.51171">
        <ele>487.3</ele>
        <time>2022-09-28T14:46:31Z</time>
      </trkpt>
      <trkpt lat="46.65728" lon="6.51174">
        <ele>487.6</ele>
        <time>2022-09-28T14:46:32Z</time>
      </trkpt>
      <trkpt lat="46.65729" lon="6.51175">
        <ele>487.7</ele>
        <time>2022-09-28T14:46:33Z</time>
      </trkpt>
      <trkpt lat="46.6573" lon="6.51177">
        <ele>487.8</ele>
        <time>2022-09-28T14:46:34Z</time>
      </trkpt>
      <trkpt lat="46.65732" lon="6.51178">
        <ele>488</ele>
        <time>2022-09-28T14:46:35Z</time>
      </trkpt>
      <trkpt lat="46.65734" lon="6.5118">
        <ele>488.2</ele>
        <time>2022-09-28T14:46:36Z</time>
      </trkpt>
      <trkpt lat="46.65735" lon="6.51181">
        <ele>488.3</ele>
        <time>2022-09-28T14:46:37Z</time>
      </trkpt>
      <trkpt lat="46.65736" lon="6.51182">
        <ele>488.4</ele>
        <time>2022-09-28T14:46:38Z</time>
      </trkpt>
      <trkpt lat="46.65738" lon="6.51184">
        <ele>488.5</ele>
        <time>2022-09-28T14:46:39Z</time>
      </trkpt>
      <trkpt lat="46.6574" lon="6.51185">
        <ele>488.8</ele>
        <time>2022-09-28T14:46:40Z</time>
      </trkpt>
      <trkpt lat="46.65741" lon="6.51186">
        <ele>488.9</ele>
        <time>2022-09-28T14:46:41Z</time>
      </trkpt>
      <trkpt lat="46.65742" lon="6.51188">
        <ele>489</ele>
        <time>2022-09-28T14:46:42Z</time>
      </trkpt>
      <trkpt lat="46.65743" lon="6.51189">
        <ele>489.2</ele>
        <time>2022-09-28T14:46:43Z</time>
      </trkpt>
      <trkpt lat="46.65745" lon="6.5119">
        <ele>489.3</ele>
        <time>2022-09-28T14:46:44Z</time>
      </trkpt>
      <trkpt lat="46.65747" lon="6.51191">
        <ele>489.5</ele>
        <time>2022-09-28T14:46:45Z</time>
      </trkpt>
      <trkpt lat="46.65748" lon="6.51192">
        <ele>489.6</ele>
        <time>2022-09-28T14:46:46Z</time>
      </trkpt>
      <trkpt lat="46.65749" lon="6.51193">
        <ele>489.8</ele>
        <time>2022-09-28T14:46:47Z</time>
      </trkpt>
      <trkpt lat="46.65751" lon="6.51195">
        <ele>489.9</ele>
        <time>2022-09-28T14:46:48Z</time>
      </trkpt>
      <trkpt lat="46.65752" lon="6.51196">
        <ele>490</ele>
        <time>2022-09-28T14:46:49Z</time>
      </trkpt>
      <trkpt lat="46.65753" lon="6.51198">
        <ele>490.1</ele>
        <time>2022-09-28T14:46:50Z</time>
      </trkpt>
      <trkpt lat="46.65755" lon="6.512">
        <ele>490.3</ele>
        <time>2022-09-28T14:46:51Z</time>
      </trkpt>
      <trkpt lat="46.65756" lon="6.51201">
        <ele>490.5</ele>
        <time>2022-09-28T14:46:52Z</time>
      </trkpt>
      <trkpt lat="46.65758" lon="6.51202">
        <ele>490.6</ele>
        <time>2022-09-28T14:46:53Z</time>
      </trkpt>
      <trkpt lat="46.65759" lon="6.51204">
        <ele>490.8</ele>
        <time>2022-09-28T14:46:54Z</time>
      </trkpt>
      <trkpt lat="46.6576" lon="6.51205">
        <ele>490.9</ele>
        <time>2022-09-28T14:46:55Z</time>
      </trkpt>
      <trkpt lat="46.65761" lon="6.51207">
        <ele>491</ele>
        <time>2022-09-28T14:46:56Z</time>
      </trkpt>
      <trkpt lat="46.65763" lon="6.51208">
        <ele>491.2</ele>
        <time>2022-09-28T14:46:57Z</time>
      </trkpt>
      <trkpt lat="46.65765" lon="6.5121">
        <ele>491.4</ele>
        <time>2022-09-28T14:46:58Z</time>
      </trkpt>
      <trkpt lat="46.65765" lon="6.51211">
        <ele>491.4</ele>
        <time>2022-09-28T14:46:59Z</time>
      </trkpt>
      <trkpt lat="46.65766" lon="6.51211">
        <ele>491.5</ele>
        <time>2022-09-28T14:47:00Z</time>
      </trkpt>
      <trkpt lat="46.65767" lon="6.51213">
        <ele>491.6</ele>
        <time>2022-09-28T14:47:01Z</time>
      </trkpt>
      <trkpt lat="46.65768" lon="6.51214">
        <ele>491.8</ele>
        <time>2022-09-28T14:47:02Z</time>
      </trkpt>
      <trkpt lat="46.6577" lon="6.51216">
        <ele>492</ele>
        <time>2022-09-28T14:47:03Z</time>
      </trkpt>
      <trkpt lat="46.65771" lon="6.51217">
        <ele>492</ele>
        <time>2022-09-28T14:47:04Z</time>
      </trkpt>
      <trkpt lat="46.65771" lon="6.51217">
        <ele>492.1</ele>
        <time>2022-09-28T14:47:05Z</time>
      </trkpt>
      <trkpt lat="46.65774" lon="6.51218">
        <ele>492.3</ele>
        <time>2022-09-28T14:47:06Z</time>
      </trkpt>
      <trkpt lat="46.65775" lon="6.51219">
        <ele>492.4</ele>
        <time>2022-09-28T14:47:07Z</time>
      </trkpt>
      <trkpt lat="46.65777" lon="6.51221">
        <ele>492.6</ele>
        <time>2022-09-28T14:47:08Z</time>
      </trkpt>
      <trkpt lat="46.65778" lon="6.51221">
        <ele>492.7</ele>
        <time>2022-09-28T14:47:09Z</time>
      </trkpt>
      <trkpt lat="46.65779" lon="6.51222">
        <ele>492.8</ele>
        <time>2022-09-28T14:47:10Z</time>
      </trkpt>
      <trkpt lat="46.65781" lon="6.51225">
        <ele>493</ele>
        <time>2022-09-28T14:47:11Z</time>
      </trkpt>
      <trkpt lat="46.65782" lon="6.51226">
        <ele>493.1</ele>
        <time>2022-09-28T14:47:12Z</time>
      </trkpt>
      <trkpt lat="46.65785" lon="6.51228">
        <ele>493.4</ele>
        <time>2022-09-28T14:47:13Z</time>
      </trkpt>
      <trkpt lat="46.65786" lon="6.51229">
        <ele>493.5</ele>
        <time>2022-09-28T14:47:14Z</time>
      </trkpt>
      <trkpt lat="46.65787" lon="6.51231">
        <ele>493.6</ele>
        <time>2022-09-28T14:47:15Z</time>
      </trkpt>
      <trkpt lat="46.65788" lon="6.51232">
        <ele>493.8</ele>
        <time>2022-09-28T14:47:16Z</time>
      </trkpt>
      <trkpt lat="46.6579" lon="6.51233">
        <ele>493.9</ele>
        <time>2022-09-28T14:47:17Z</time>
      </trkpt>
      <trkpt lat="46.65791" lon="6.51235">
        <ele>494.1</ele>
        <time>2022-09-28T14:47:18Z</time>
      </trkpt>
      <trkpt lat="46.65792" lon="6.51236">
        <ele>494.2</ele>
        <time>2022-09-28T14:47:19Z</time>
      </trkpt>
      <trkpt lat="46.65794" lon="6.51239">
        <ele>494.4</ele>
        <time>2022-09-28T14:47:20Z</time>
      </trkpt>
      <trkpt lat="46.65795" lon="6.51241">
        <ele>494.5</ele>
        <time>2022-09-28T14:47:21Z</time>
      </trkpt>
      <trkpt lat="46.65796" lon="6.51244">
        <ele>494.8</ele>
        <time>2022-09-28T14:47:22Z</time>
      </trkpt>
      <trkpt lat="46.65797" lon="6.51245">
        <ele>494.8</ele>
        <time>2022-09-28T14:47:23Z</time>
      </trkpt>
      <trkpt lat="46.65799" lon="6.51247">
        <ele>495</ele>
        <time>2022-09-28T14:47:24Z</time>
      </trkpt>
      <trkpt lat="46.658" lon="6.51248">
        <ele>495.2</ele>
        <time>2022-09-28T14:47:25Z</time>
      </trkpt>
      <trkpt lat="46.65802" lon="6.5125">
        <ele>495.4</ele>
        <time>2022-09-28T14:47:26Z</time>
      </trkpt>
      <trkpt lat="46.65803" lon="6.51251">
        <ele>495.5</ele>
        <time>2022-09-28T14:47:27Z</time>
      </trkpt>
      <trkpt lat="46.65804" lon="6.51253">
        <ele>495.7</ele>
        <time>2022-09-28T14:47:28Z</time>
      </trkpt>
      <trkpt lat="46.65805" lon="6.51255">
        <ele>495.8</ele>
        <time>2022-09-28T14:47:29Z</time>
      </trkpt>
      <trkpt lat="46.65806" lon="6.51257">
        <ele>495.9</ele>
        <time>2022-09-28T14:47:30Z</time>
      </trkpt>
      <trkpt lat="46.65807" lon="6.51258">
        <ele>496.1</ele>
        <time>2022-09-28T14:47:31Z</time>
      </trkpt>
      <trkpt lat="46.65809" lon="6.5126">
        <ele>496.3</ele>
        <time>2022-09-28T14:47:32Z</time>
      </trkpt>
      <trkpt lat="46.6581" lon="6.51261">
        <ele>496.4</ele>
        <time>2022-09-28T14:47:33Z</time>
      </trkpt>
      <trkpt lat="46.65811" lon="6.51262">
        <ele>496.5</ele>
        <time>2022-09-28T14:47:34Z</time>
      </trkpt>
      <trkpt lat="46.65812" lon="6.51263">
        <ele>496.7</ele>
        <time>2022-09-28T14:47:35Z</time>
      </trkpt>
      <trkpt lat="46.65814" lon="6.51265">
        <ele>497</ele>
        <time>2022-09-28T14:47:36Z</time>
      </trkpt>
      <trkpt lat="46.65815" lon="6.51265">
        <ele>497.1</ele>
        <time>2022-09-28T14:47:37Z</time>
      </trkpt>
      <trkpt lat="46.65816" lon="6.51266">
        <ele>497.2</ele>
        <time>2022-09-28T14:47:38Z</time>
      </trkpt>
      <trkpt lat="46.65818" lon="6.51267">
        <ele>497.5</ele>
        <time>2022-09-28T14:47:39Z</time>
      </trkpt>
      <trkpt lat="46.65819" lon="6.51268">
        <ele>497.6</ele>
        <time>2022-09-28T14:47:40Z</time>
      </trkpt>
      <trkpt lat="46.65819" lon="6.51268">
        <ele>497.7</ele>
        <time>2022-09-28T14:47:41Z</time>
      </trkpt>
      <trkpt lat="46.6582" lon="6.51269">
        <ele>497.8</ele>
        <time>2022-09-28T14:47:42Z</time>
      </trkpt>
      <trkpt lat="46.65822" lon="6.51271">
        <ele>498</ele>
        <time>2022-09-28T14:47:43Z</time>
      </trkpt>
      <trkpt lat="46.65823" lon="6.51273">
        <ele>498.1</ele>
        <time>2022-09-28T14:47:44Z</time>
      </trkpt>
      <trkpt lat="46.65823" lon="6.51272">
        <ele>498.1</ele>
        <time>2022-09-28T14:47:45Z</time>
      </trkpt>
      <trkpt lat="46.65825" lon="6.51274">
        <ele>498.1</ele>
        <time>2022-09-28T14:47:46Z</time>
      </trkpt>
      <trkpt lat="46.65826" lon="6.51276">
        <ele>498.2</ele>
        <time>2022-09-28T14:47:47Z</time>
      </trkpt>
      <trkpt lat="46.65827" lon="6.51277">
        <ele>498.2</ele>
        <time>2022-09-28T14:47:48Z</time>
      </trkpt>
      <trkpt lat="46.65828" lon="6.51279">
        <ele>498.3</ele>
        <time>2022-09-28T14:47:49Z</time>
      </trkpt>
      <trkpt lat="46.65829" lon="6.5128">
        <ele>498.3</ele>
        <time>2022-09-28T14:47:50Z</time>
      </trkpt>
      <trkpt lat="46.65829" lon="6.51281">
        <ele>498.3</ele>
        <time>2022-09-28T14:47:51Z</time>
      </trkpt>
      <trkpt lat="46.6583" lon="6.51283">
        <ele>498.4</ele>
        <time>2022-09-28T14:47:52Z</time>
      </trkpt>
      <trkpt lat="46.65831" lon="6.51283">
        <ele>498.4</ele>
        <time>2022-09-28T14:47:53Z</time>
      </trkpt>
      <trkpt lat="46.65834" lon="6.51286">
        <ele>498.4</ele>
        <time>2022-09-28T14:47:54Z</time>
      </trkpt>
      <trkpt lat="46.65834" lon="6.51287">
        <ele>498.5</ele>
        <time>2022-09-28T14:47:55Z</time>
      </trkpt>
      <trkpt lat="46.65836" lon="6.51288">
        <ele>498.5</ele>
        <time>2022-09-28T14:47:56Z</time>
      </trkpt>
      <trkpt lat="46.65837" lon="6.5129">
        <ele>498.5</ele>
        <time>2022-09-28T14:47:57Z</time>
      </trkpt>
      <trkpt lat="46.65838" lon="6.51292">
        <ele>498.5</ele>
        <time>2022-09-28T14:47:58Z</time>
      </trkpt>
      <trkpt lat="46.65839" lon="6.51295">
        <ele>498.6</ele>
        <time>2022-09-28T14:47:59Z</time>
      </trkpt>
      <trkpt lat="46.6584" lon="6.51298">
        <ele>498.6</ele>
        <time>2022-09-28T14:48:00Z</time>
      </trkpt>
      <trkpt lat="46.65841" lon="6.51299">
        <ele>498.6</ele>
        <time>2022-09-28T14:48:01Z</time>
      </trkpt>
      <trkpt lat="46.65841" lon="6.51301">
        <ele>498.6</ele>
        <time>2022-09-28T14:48:02Z</time>
      </trkpt>
      <trkpt lat="46.65843" lon="6.51304">
        <ele>498.6</ele>
        <time>2022-09-28T14:48:03Z</time>
      </trkpt>
      <trkpt lat="46.65844" lon="6.51305">
        <ele>498.6</ele>
        <time>2022-09-28T14:48:04Z</time>
      </trkpt>
      <trkpt lat="46.65845" lon="6.51306">
        <ele>498.6</ele>
        <time>2022-09-28T14:48:05Z</time>
      </trkpt>
      <trkpt lat="46.65846" lon="6.51306">
        <ele>498.6</ele>
        <time>2022-09-28T14:48:06Z</time>
      </trkpt>
      <trkpt lat="46.65849" lon="6.51308">
        <ele>498.7</ele>
        <time>2022-09-28T14:48:07Z</time>
      </trkpt>
      <trkpt lat="46.6585" lon="6.51308">
        <ele>498.7</ele>
        <time>2022-09-28T14:48:08Z</time>
      </trkpt>
      <trkpt lat="46.65853" lon="6.51309">
        <ele>498.7</ele>
        <time>2022-09-28T14:48:09Z</time>
      </trkpt>
      <trkpt lat="46.65854" lon="6.51309">
        <ele>498.7</ele>
        <time>2022-09-28T14:48:10Z</time>
      </trkpt>
      <trkpt lat="46.65857" lon="6.51311">
        <ele>498.6</ele>
        <time>2022-09-28T14:48:11Z</time>
      </trkpt>
      <trkpt lat="46.65858" lon="6.51312">
        <ele>498.6</ele>
        <time>2022-09-28T14:48:12Z</time>
      </trkpt>
      <trkpt lat="46.65861" lon="6.51313">
        <ele>498.6</ele>
        <time>2022-09-28T14:48:13Z</time>
      </trkpt>
      <trkpt lat="46.65862" lon="6.51314">
        <ele>498.6</ele>
        <time>2022-09-28T14:48:14Z</time>
      </trkpt>
      <trkpt lat="46.65863" lon="6.51314">
        <ele>498.6</ele>
        <time>2022-09-28T14:48:15Z</time>
      </trkpt>
      <trkpt lat="46.65863" lon="6.51315">
        <ele>498.6</ele>
        <time>2022-09-28T14:48:16Z</time>
      </trkpt>
      <trkpt lat="46.65864" lon="6.51316">
        <ele>498.6</ele>
        <time>2022-09-28T14:48:17Z</time>
      </trkpt>
      <trkpt lat="46.65865" lon="6.51317">
        <ele>498.6</ele>
        <time>2022-09-28T14:48:18Z</time>
      </trkpt>
      <trkpt lat="46.65866" lon="6.51318">
        <ele>498.6</ele>
        <time>2022-09-28T14:48:19Z</time>
      </trkpt>
      <trkpt lat="46.65866" lon="6.5132">
        <ele>498.6</ele>
        <time>2022-09-28T14:48:20Z</time>
      </trkpt>
      <trkpt lat="46.65866" lon="6.51321">
        <ele>498.6</ele>
        <time>2022-09-28T14:48:21Z</time>
      </trkpt>
      <trkpt lat="46.65867" lon="6.51323">
        <ele>498.6</ele>
        <time>2022-09-28T14:48:22Z</time>
      </trkpt>
      <trkpt lat="46.65867" lon="6.51324">
        <ele>498.6</ele>
        <time>2022-09-28T14:48:23Z</time>
      </trkpt>
      <trkpt lat="46.65867" lon="6.51326">
        <ele>498.6</ele>
        <time>2022-09-28T14:48:24Z</time>
      </trkpt>
      <trkpt lat="46.65868" lon="6.51328">
        <ele>498.6</ele>
        <time>2022-09-28T14:48:25Z</time>
      </trkpt>
      <trkpt lat="46.65868" lon="6.51329">
        <ele>498.6</ele>
        <time>2022-09-28T14:48:26Z</time>
      </trkpt>
      <trkpt lat="46.65868" lon="6.51331">
        <ele>498.6</ele>
        <time>2022-09-28T14:50:36Z</time>
      </trkpt>
      <trkpt lat="46.65869" lon="6.51332">
        <ele>498.6</ele>
        <time>2022-09-28T14:50:37Z</time>
      </trkpt>
      <trkpt lat="46.65869" lon="6.51331">
        <ele>498.6</ele>
        <time>2022-09-28T14:50:38Z</time>
      </trkpt>
      <trkpt lat="46.65869" lon="6.5133">
        <ele>498.6</ele>
        <time>2022-09-28T14:50:39Z</time>
      </trkpt>
      <trkpt lat="46.65869" lon="6.5133">
        <ele>498.6</ele>
        <time>2022-09-28T14:50:40Z</time>
      </trkpt>
      <trkpt lat="46.6587" lon="6.5133">
        <ele>498.6</ele>
        <time>2022-09-28T14:50:41Z</time>
      </trkpt>
      <trkpt lat="46.6587" lon="6.5133">
        <ele>498.6</ele>
        <time>2022-09-28T14:50:42Z</time>
      </trkpt>
      <trkpt lat="46.65869" lon="6.51328">
        <ele>498.6</ele>
        <time>2022-09-28T14:50:43Z</time>
      </trkpt>
      <trkpt lat="46.65867" lon="6.51327">
        <ele>498.6</ele>
        <time>2022-09-28T14:50:44Z</time>
      </trkpt>
      <trkpt lat="46.65866" lon="6.51325">
        <ele>498.6</ele>
        <time>2022-09-28T14:50:45Z</time>
      </trkpt>
      <trkpt lat="46.65866" lon="6.51323">
        <ele>498.6</ele>
        <time>2022-09-28T14:50:46Z</time>
      </trkpt>
      <trkpt lat="46.65865" lon="6.51322">
        <ele>498.6</ele>
        <time>2022-09-28T14:50:47Z</time>
      </trkpt>
      <trkpt lat="46.65865" lon="6.51322">
        <ele>498.6</ele>
        <time>2022-09-28T14:50:48Z</time>
      </trkpt>
      <trkpt lat="46.65865" lon="6.51321">
        <ele>498.6</ele>
        <time>2022-09-28T14:51:53Z</time>
      </trkpt>
      <trkpt lat="46.65865" lon="6.5132">
        <ele>498.6</ele>
        <time>2022-09-28T14:51:54Z</time>
      </trkpt>
      <trkpt lat="46.65865" lon="6.51319">
        <ele>498.6</ele>
        <time>2022-09-28T14:51:55Z</time>
      </trkpt>
      <trkpt lat="46.65865" lon="6.51318">
        <ele>498.6</ele>
        <time>2022-09-28T14:51:56Z</time>
      </trkpt>
      <trkpt lat="46.65865" lon="6.51317">
        <ele>498.6</ele>
        <time>2022-09-28T14:51:57Z</time>
      </trkpt>
      <trkpt lat="46.65865" lon="6.51316">
        <ele>498.7</ele>
        <time>2022-09-28T14:51:58Z</time>
      </trkpt>
      <trkpt lat="46.65865" lon="6.51315">
        <ele>498.7</ele>
        <time>2022-09-28T14:51:59Z</time>
      </trkpt>
      <trkpt lat="46.65865" lon="6.51314">
        <ele>498.7</ele>
        <time>2022-09-28T14:52:00Z</time>
      </trkpt>
      <trkpt lat="46.65865" lon="6.51313">
        <ele>498.7</ele>
        <time>2022-09-28T14:52:01Z</time>
      </trkpt>
      <trkpt lat="46.65865" lon="6.51312">
        <ele>498.7</ele>
        <time>2022-09-28T14:52:02Z</time>
      </trkpt>
      <trkpt lat="46.65865" lon="6.51311">
        <ele>498.7</ele>
        <time>2022-09-28T14:52:08Z</time>
      </trkpt>
      <trkpt lat="46.65865" lon="6.5131">
        <ele>498.7</ele>
        <time>2022-09-28T14:52:09Z</time>
      </trkpt>
      <trkpt lat="46.65863" lon="6.51309">
        <ele>498.7</ele>
        <time>2022-09-28T14:52:10Z</time>
      </trkpt>
      <trkpt lat="46.65862" lon="6.51308">
        <ele>498.7</ele>
        <time>2022-09-28T14:52:11Z</time>
      </trkpt>
      <trkpt lat="46.65861" lon="6.51307">
        <ele>498.7</ele>
        <time>2022-09-28T14:52:12Z</time>
      </trkpt>
      <trkpt lat="46.6586" lon="6.51306">
        <ele>498.7</ele>
        <time>2022-09-28T14:52:13Z</time>
      </trkpt>
      <trkpt lat="46.65859" lon="6.51305">
        <ele>498.7</ele>
        <time>2022-09-28T14:52:14Z</time>
      </trkpt>
      <trkpt lat="46.65858" lon="6.51304">
        <ele>498.7</ele>
        <time>2022-09-28T14:52:15Z</time>
      </trkpt>
      <trkpt lat="46.65858" lon="6.51304">
        <ele>498.7</ele>
        <time>2022-09-28T14:52:16Z</time>
      </trkpt>
      <trkpt lat="46.65857" lon="6.51303">
        <ele>498.7</ele>
        <time>2022-09-28T14:52:17Z</time>
      </trkpt>
      <trkpt lat="46.65856" lon="6.51303">
        <ele>498.7</ele>
        <time>2022-09-28T14:52:18Z</time>
      </trkpt>
      <trkpt lat="46.65856" lon="6.51303">
        <ele>498.7</ele>
        <time>2022-09-28T14:52:19Z</time>
      </trkpt>
      <trkpt lat="46.65856" lon="6.51302">
        <ele>498.7</ele>
        <time>2022-09-28T14:52:20Z</time>
      </trkpt>
      <trkpt lat="46.65855" lon="6.51302">
        <ele>498.7</ele>
        <time>2022-09-28T14:52:22Z</time>
      </trkpt>
      <trkpt lat="46.65855" lon="6.51301">
        <ele>498.7</ele>
        <time>2022-09-28T14:52:25Z</time>
      </trkpt>
      <trkpt lat="46.65854" lon="6.51301">
        <ele>498.7</ele>
        <time>2022-09-28T14:52:26Z</time>
      </trkpt>
      <trkpt lat="46.65854" lon="6.513">
        <ele>498.7</ele>
        <time>2022-09-28T14:52:27Z</time>
      </trkpt>
      <trkpt lat="46.65854" lon="6.513">
        <ele>498.7</ele>
        <time>2022-09-28T14:52:28Z</time>
      </trkpt>
      <trkpt lat="46.65853" lon="6.51299">
        <ele>498.6</ele>
        <time>2022-09-28T14:52:29Z</time>
      </trkpt>
      <trkpt lat="46.65853" lon="6.51299">
        <ele>498.6</ele>
        <time>2022-09-28T14:52:30Z</time>
      </trkpt>
      <trkpt lat="46.65852" lon="6.51298">
        <ele>498.6</ele>
        <time>2022-09-28T14:52:31Z</time>
      </trkpt>
      <trkpt lat="46.65852" lon="6.51298">
        <ele>498.6</ele>
        <time>2022-09-28T14:52:32Z</time>
      </trkpt>
      <trkpt lat="46.65851" lon="6.51297">
        <ele>498.6</ele>
        <time>2022-09-28T14:52:33Z</time>
      </trkpt>
      <trkpt lat="46.65851" lon="6.51297">
        <ele>498.6</ele>
        <time>2022-09-28T14:52:34Z</time>
      </trkpt>
      <trkpt lat="46.6585" lon="6.51296">
        <ele>498.6</ele>
        <time>2022-09-28T14:52:35Z</time>
      </trkpt>
      <trkpt lat="46.65849" lon="6.51294">
        <ele>498.6</ele>
        <time>2022-09-28T14:52:36Z</time>
      </trkpt>
      <trkpt lat="46.65848" lon="6.51293">
        <ele>498.6</ele>
        <time>2022-09-28T14:52:37Z</time>
      </trkpt>
      <trkpt lat="46.65847" lon="6.51292">
        <ele>498.6</ele>
        <time>2022-09-28T14:52:38Z</time>
      </trkpt>
      <trkpt lat="46.65847" lon="6.51291">
        <ele>498.6</ele>
        <time>2022-09-28T14:52:40Z</time>
      </trkpt>
      <trkpt lat="46.65846" lon="6.5129">
        <ele>498.6</ele>
        <time>2022-09-28T14:52:41Z</time>
      </trkpt>
      <trkpt lat="46.65845" lon="6.51289">
        <ele>498.6</ele>
        <time>2022-09-28T14:52:42Z</time>
      </trkpt>
      <trkpt lat="46.65844" lon="6.51288">
        <ele>498.6</ele>
        <time>2022-09-28T14:52:43Z</time>
      </trkpt>
      <trkpt lat="46.65841" lon="6.51286">
        <ele>498.5</ele>
        <time>2022-09-28T14:52:44Z</time>
      </trkpt>
      <trkpt lat="46.6584" lon="6.51285">
        <ele>498.5</ele>
        <time>2022-09-28T14:52:45Z</time>
      </trkpt>
      <trkpt lat="46.65839" lon="6.51284">
        <ele>498.5</ele>
        <time>2022-09-28T14:52:46Z</time>
      </trkpt>
      <trkpt lat="46.65839" lon="6.51283">
        <ele>498.5</ele>
        <time>2022-09-28T14:52:47Z</time>
      </trkpt>
      <trkpt lat="46.65839" lon="6.51282">
        <ele>498.5</ele>
        <time>2022-09-28T14:52:48Z</time>
      </trkpt>
      <trkpt lat="46.65838" lon="6.51279">
        <ele>498.4</ele>
        <time>2022-09-28T14:52:49Z</time>
      </trkpt>
      <trkpt lat="46.65837" lon="6.51278">
        <ele>498.4</ele>
        <time>2022-09-28T14:52:50Z</time>
      </trkpt>
      <trkpt lat="46.65837" lon="6.51277">
        <ele>498.4</ele>
        <time>2022-09-28T14:52:51Z</time>
      </trkpt>
      <trkpt lat="46.65836" lon="6.51275">
        <ele>498.4</ele>
        <time>2022-09-28T14:52:52Z</time>
      </trkpt>
      <trkpt lat="46.65835" lon="6.51274">
        <ele>498.4</ele>
        <time>2022-09-28T14:52:53Z</time>
      </trkpt>
      <trkpt lat="46.65835" lon="6.51273">
        <ele>498.3</ele>
        <time>2022-09-28T14:52:54Z</time>
      </trkpt>
      <trkpt lat="46.65833" lon="6.51271">
        <ele>498.3</ele>
        <time>2022-09-28T14:52:55Z</time>
      </trkpt>
      <trkpt lat="46.65832" lon="6.51271">
        <ele>498.3</ele>
        <time>2022-09-28T14:52:56Z</time>
      </trkpt>
      <trkpt lat="46.65832" lon="6.51271">
        <ele>498.2</ele>
        <time>2022-09-28T14:52:57Z</time>
      </trkpt>
      <trkpt lat="46.65831" lon="6.51271">
        <ele>498.2</ele>
        <time>2022-09-28T14:52:58Z</time>
      </trkpt>
      <trkpt lat="46.65829" lon="6.5127">
        <ele>498.2</ele>
        <time>2022-09-28T14:52:59Z</time>
      </trkpt>
      <trkpt lat="46.65828" lon="6.5127">
        <ele>498.1</ele>
        <time>2022-09-28T14:53:00Z</time>
      </trkpt>
      <trkpt lat="46.65825" lon="6.51268">
        <ele>498</ele>
        <time>2022-09-28T14:53:01Z</time>
      </trkpt>
      <trkpt lat="46.65825" lon="6.51268">
        <ele>497.9</ele>
        <time>2022-09-28T14:53:02Z</time>
      </trkpt>
      <trkpt lat="46.65824" lon="6.51266">
        <ele>497.8</ele>
        <time>2022-09-28T14:53:03Z</time>
      </trkpt>
      <trkpt lat="46.65822" lon="6.51264">
        <ele>497.6</ele>
        <time>2022-09-28T14:53:04Z</time>
      </trkpt>
      <trkpt lat="46.65821" lon="6.51263">
        <ele>497.5</ele>
        <time>2022-09-28T14:53:05Z</time>
      </trkpt>
      <trkpt lat="46.6582" lon="6.51262">
        <ele>497.4</ele>
        <time>2022-09-28T14:53:06Z</time>
      </trkpt>
      <trkpt lat="46.65819" lon="6.51261">
        <ele>497.3</ele>
        <time>2022-09-28T14:53:07Z</time>
      </trkpt>
      <trkpt lat="46.65818" lon="6.5126">
        <ele>497.2</ele>
        <time>2022-09-28T14:53:08Z</time>
      </trkpt>
      <trkpt lat="46.65818" lon="6.5126">
        <ele>496.4</ele>
        <time>2022-09-28T14:53:09Z</time>
      </trkpt>
      <trkpt lat="46.65817" lon="6.5126">
        <ele>496.4</ele>
        <time>2022-09-28T14:53:10Z</time>
      </trkpt>
      <trkpt lat="46.65816" lon="6.51261">
        <ele>496.4</ele>
        <time>2022-09-28T14:53:11Z</time>
      </trkpt>
      <trkpt lat="46.65816" lon="6.51263">
        <ele>496.5</ele>
        <time>2022-09-28T14:53:12Z</time>
      </trkpt>
      <trkpt lat="46.65814" lon="6.51265">
        <ele>496.5</ele>
        <time>2022-09-28T14:53:13Z</time>
      </trkpt>
      <trkpt lat="46.65814" lon="6.51267">
        <ele>496.6</ele>
        <time>2022-09-28T14:53:14Z</time>
      </trkpt>
      <trkpt lat="46.65814" lon="6.51268">
        <ele>496.6</ele>
        <time>2022-09-28T14:53:15Z</time>
      </trkpt>
      <trkpt lat="46.65813" lon="6.5127">
        <ele>496.6</ele>
        <time>2022-09-28T14:53:16Z</time>
      </trkpt>
      <trkpt lat="46.65813" lon="6.51271">
        <ele>496.7</ele>
        <time>2022-09-28T14:53:17Z</time>
      </trkpt>
      <trkpt lat="46.65812" lon="6.51274">
        <ele>496.7</ele>
        <time>2022-09-28T14:53:18Z</time>
      </trkpt>
      <trkpt lat="46.65811" lon="6.51277">
        <ele>496.8</ele>
        <time>2022-09-28T14:53:19Z</time>
      </trkpt>
      <trkpt lat="46.65811" lon="6.51278">
        <ele>496.8</ele>
        <time>2022-09-28T14:53:20Z</time>
      </trkpt>
      <trkpt lat="46.6581" lon="6.51278">
        <ele>496.9</ele>
        <time>2022-09-28T14:53:21Z</time>
      </trkpt>
      <trkpt lat="46.6581" lon="6.51281">
        <ele>496.8</ele>
        <time>2022-09-28T14:53:22Z</time>
      </trkpt>
      <trkpt lat="46.65809" lon="6.51282">
        <ele>496.8</ele>
        <time>2022-09-28T14:53:23Z</time>
      </trkpt>
      <trkpt lat="46.6581" lon="6.51286">
        <ele>496.7</ele>
        <time>2022-09-28T14:53:24Z</time>
      </trkpt>
      <trkpt lat="46.6581" lon="6.51287">
        <ele>496.7</ele>
        <time>2022-09-28T14:53:25Z</time>
      </trkpt>
      <trkpt lat="46.6581" lon="6.51289">
        <ele>496.6</ele>
        <time>2022-09-28T14:53:26Z</time>
      </trkpt>
      <trkpt lat="46.65811" lon="6.5129">
        <ele>496.6</ele>
        <time>2022-09-28T14:53:27Z</time>
      </trkpt>
      <trkpt lat="46.65812" lon="6.51292">
        <ele>496.6</ele>
        <time>2022-09-28T14:53:28Z</time>
      </trkpt>
      <trkpt lat="46.65812" lon="6.51294">
        <ele>496.6</ele>
        <time>2022-09-28T14:53:29Z</time>
      </trkpt>
      <trkpt lat="46.65813" lon="6.51295">
        <ele>496.5</ele>
        <time>2022-09-28T14:53:30Z</time>
      </trkpt>
      <trkpt lat="46.65813" lon="6.51296">
        <ele>496.5</ele>
        <time>2022-09-28T14:53:31Z</time>
      </trkpt>
      <trkpt lat="46.65815" lon="6.513">
        <ele>496.5</ele>
        <time>2022-09-28T14:53:32Z</time>
      </trkpt>
      <trkpt lat="46.65815" lon="6.513">
        <ele>496.5</ele>
        <time>2022-09-28T14:53:33Z</time>
      </trkpt>
      <trkpt lat="46.65816" lon="6.51303">
        <ele>496.5</ele>
        <time>2022-09-28T14:53:34Z</time>
      </trkpt>
      <trkpt lat="46.65816" lon="6.51305">
        <ele>496.5</ele>
        <time>2022-09-28T14:53:35Z</time>
      </trkpt>
      <trkpt lat="46.65816" lon="6.51306">
        <ele>496.5</ele>
        <time>2022-09-28T14:53:36Z</time>
      </trkpt>
      <trkpt lat="46.65816" lon="6.51309">
        <ele>496.5</ele>
        <time>2022-09-28T14:53:37Z</time>
      </trkpt>
      <trkpt lat="46.65817" lon="6.51311">
        <ele>496.6</ele>
        <time>2022-09-28T14:53:38Z</time>
      </trkpt>
      <trkpt lat="46.65817" lon="6.51314">
        <ele>496.6</ele>
        <time>2022-09-28T14:53:39Z</time>
      </trkpt>
      <trkpt lat="46.65818" lon="6.51316">
        <ele>496.6</ele>
        <time>2022-09-28T14:53:40Z</time>
      </trkpt>
      <trkpt lat="46.65818" lon="6.51318">
        <ele>496.7</ele>
        <time>2022-09-28T14:53:41Z</time>
      </trkpt>
      <trkpt lat="46.65819" lon="6.5132">
        <ele>496.7</ele>
        <time>2022-09-28T14:53:42Z</time>
      </trkpt>
      <trkpt lat="46.65819" lon="6.51322">
        <ele>496.7</ele>
        <time>2022-09-28T14:53:43Z</time>
      </trkpt>
      <trkpt lat="46.6582" lon="6.51324">
        <ele>496.7</ele>
        <time>2022-09-28T14:53:44Z</time>
      </trkpt>
      <trkpt lat="46.65822" lon="6.51326">
        <ele>496.8</ele>
        <time>2022-09-28T14:53:45Z</time>
      </trkpt>
      <trkpt lat="46.65822" lon="6.51327">
        <ele>496.8</ele>
        <time>2022-09-28T14:53:46Z</time>
      </trkpt>
      <trkpt lat="46.65823" lon="6.51328">
        <ele>496.8</ele>
        <time>2022-09-28T14:53:47Z</time>
      </trkpt>
      <trkpt lat="46.65823" lon="6.5133">
        <ele>496.8</ele>
        <time>2022-09-28T14:53:48Z</time>
      </trkpt>
      <trkpt lat="46.65823" lon="6.51331">
        <ele>496.8</ele>
        <time>2022-09-28T14:53:49Z</time>
      </trkpt>
      <trkpt lat="46.65823" lon="6.51333">
        <ele>496.8</ele>
        <time>2022-09-28T14:53:50Z</time>
      </trkpt>
      <trkpt lat="46.65823" lon="6.51334">
        <ele>496.7</ele>
        <time>2022-09-28T14:53:51Z</time>
      </trkpt>
      <trkpt lat="46.65824" lon="6.51336">
        <ele>496.7</ele>
        <time>2022-09-28T14:53:52Z</time>
      </trkpt>
      <trkpt lat="46.65824" lon="6.51338">
        <ele>496.7</ele>
        <time>2022-09-28T14:53:53Z</time>
      </trkpt>
      <trkpt lat="46.65826" lon="6.5134">
        <ele>496.7</ele>
        <time>2022-09-28T14:53:54Z</time>
      </trkpt>
      <trkpt lat="46.65826" lon="6.51341">
        <ele>496.7</ele>
        <time>2022-09-28T14:53:55Z</time>
      </trkpt>
      <trkpt lat="46.65826" lon="6.51343">
        <ele>496.7</ele>
        <time>2022-09-28T14:53:56Z</time>
      </trkpt>
      <trkpt lat="46.65827" lon="6.51344">
        <ele>496.7</ele>
        <time>2022-09-28T14:53:57Z</time>
      </trkpt>
      <trkpt lat="46.65827" lon="6.51344">
        <ele>496.7</ele>
        <time>2022-09-28T14:53:58Z</time>
      </trkpt>
      <trkpt lat="46.65827" lon="6.51346">
        <ele>496.7</ele>
        <time>2022-09-28T14:53:59Z</time>
      </trkpt>
      <trkpt lat="46.65828" lon="6.51348">
        <ele>496.7</ele>
        <time>2022-09-28T14:54:00Z</time>
      </trkpt>
      <trkpt lat="46.65828" lon="6.51349">
        <ele>496.6</ele>
        <time>2022-09-28T14:54:01Z</time>
      </trkpt>
      <trkpt lat="46.65828" lon="6.51349">
        <ele>496.6</ele>
        <time>2022-09-28T14:54:02Z</time>
      </trkpt>
      <trkpt lat="46.65827" lon="6.51349">
        <ele>496.6</ele>
        <time>2022-09-28T14:54:03Z</time>
      </trkpt>
      <trkpt lat="46.65827" lon="6.5135">
        <ele>496.6</ele>
        <time>2022-09-28T14:54:04Z</time>
      </trkpt>
      <trkpt lat="46.65826" lon="6.5135">
        <ele>496.6</ele>
        <time>2022-09-28T14:54:05Z</time>
      </trkpt>
      <trkpt lat="46.65826" lon="6.5135">
        <ele>496.6</ele>
        <time>2022-09-28T14:54:06Z</time>
      </trkpt>
      <trkpt lat="46.65827" lon="6.5135">
        <ele>496.6</ele>
        <time>2022-09-28T14:54:07Z</time>
      </trkpt>
      <trkpt lat="46.65827" lon="6.51349">
        <ele>496.6</ele>
        <time>2022-09-28T14:54:08Z</time>
      </trkpt>
      <trkpt lat="46.65827" lon="6.51348">
        <ele>496.6</ele>
        <time>2022-09-28T14:54:09Z</time>
      </trkpt>
      <trkpt lat="46.65828" lon="6.51347">
        <ele>496.6</ele>
        <time>2022-09-28T14:54:10Z</time>
      </trkpt>
      <trkpt lat="46.65828" lon="6.51346">
        <ele>496.6</ele>
        <time>2022-09-28T14:56:50Z</time>
      </trkpt>
      <trkpt lat="46.65828" lon="6.51345">
        <ele>496.6</ele>
        <time>2022-09-28T14:56:51Z</time>
      </trkpt>
      <trkpt lat="46.65829" lon="6.51344">
        <ele>496.6</ele>
        <time>2022-09-28T14:56:52Z</time>
      </trkpt>
      <trkpt lat="46.65829" lon="6.51343">
        <ele>496.6</ele>
        <time>2022-09-28T14:56:53Z</time>
      </trkpt>
      <trkpt lat="46.65829" lon="6.51342">
        <ele>496.6</ele>
        <time>2022-09-28T14:56:54Z</time>
      </trkpt>
      <trkpt lat="46.65829" lon="6.51341">
        <ele>496.6</ele>
        <time>2022-09-28T14:56:55Z</time>
      </trkpt>
      <trkpt lat="46.65829" lon="6.51341">
        <ele>496.6</ele>
        <time>2022-09-28T14:56:56Z</time>
      </trkpt>
      <trkpt lat="46.65828" lon="6.5134">
        <ele>496.6</ele>
        <time>2022-09-28T14:56:57Z</time>
      </trkpt>
      <trkpt lat="46.65827" lon="6.5134">
        <ele>496.6</ele>
        <time>2022-09-28T14:56:58Z</time>
      </trkpt>
      <trkpt lat="46.65826" lon="6.51338">
        <ele>496.5</ele>
        <time>2022-09-28T14:56:59Z</time>
      </trkpt>
      <trkpt lat="46.65825" lon="6.51338">
        <ele>496.5</ele>
        <time>2022-09-28T14:57:00Z</time>
      </trkpt>
      <trkpt lat="46.65825" lon="6.51337">
        <ele>496.5</ele>
        <time>2022-09-28T14:57:01Z</time>
      </trkpt>
      <trkpt lat="46.65824" lon="6.51337">
        <ele>496.5</ele>
        <time>2022-09-28T14:57:02Z</time>
      </trkpt>
      <trkpt lat="46.65823" lon="6.51336">
        <ele>496.5</ele>
        <time>2022-09-28T14:57:03Z</time>
      </trkpt>
      <trkpt lat="46.65822" lon="6.51335">
        <ele>496.5</ele>
        <time>2022-09-28T14:57:04Z</time>
      </trkpt>
      <trkpt lat="46.65821" lon="6.51334">
        <ele>496.5</ele>
        <time>2022-09-28T14:57:05Z</time>
      </trkpt>
      <trkpt lat="46.65821" lon="6.51333">
        <ele>496.5</ele>
        <time>2022-09-28T14:57:06Z</time>
      </trkpt>
      <trkpt lat="46.65821" lon="6.5133">
        <ele>496.5</ele>
        <time>2022-09-28T14:57:07Z</time>
      </trkpt>
      <trkpt lat="46.6582" lon="6.51326">
        <ele>496.5</ele>
        <time>2022-09-28T14:57:08Z</time>
      </trkpt>
      <trkpt lat="46.6582" lon="6.51325">
        <ele>496.5</ele>
        <time>2022-09-28T14:57:09Z</time>
      </trkpt>
      <trkpt lat="46.65819" lon="6.51323">
        <ele>496.5</ele>
        <time>2022-09-28T14:57:10Z</time>
      </trkpt>
      <trkpt lat="46.65819" lon="6.51321">
        <ele>496.5</ele>
        <time>2022-09-28T14:57:11Z</time>
      </trkpt>
      <trkpt lat="46.65819" lon="6.5132">
        <ele>496.5</ele>
        <time>2022-09-28T14:57:12Z</time>
      </trkpt>
      <trkpt lat="46.65818" lon="6.51319">
        <ele>496.5</ele>
        <time>2022-09-28T14:57:13Z</time>
      </trkpt>
      <trkpt lat="46.65817" lon="6.51315">
        <ele>496.5</ele>
        <time>2022-09-28T14:57:14Z</time>
      </trkpt>
      <trkpt lat="46.65817" lon="6.51314">
        <ele>496.5</ele>
        <time>2022-09-28T14:57:15Z</time>
      </trkpt>
      <trkpt lat="46.65816" lon="6.51313">
        <ele>496.5</ele>
        <time>2022-09-28T14:57:16Z</time>
      </trkpt>
      <trkpt lat="46.65815" lon="6.5131">
        <ele>496.5</ele>
        <time>2022-09-28T14:57:17Z</time>
      </trkpt>
      <trkpt lat="46.65814" lon="6.51309">
        <ele>496.6</ele>
        <time>2022-09-28T14:57:18Z</time>
      </trkpt>
      <trkpt lat="46.65813" lon="6.51308">
        <ele>496.6</ele>
        <time>2022-09-28T14:57:19Z</time>
      </trkpt>
      <trkpt lat="46.65812" lon="6.51307">
        <ele>496.6</ele>
        <time>2022-09-28T14:57:20Z</time>
      </trkpt>
      <trkpt lat="46.65812" lon="6.51305">
        <ele>496.6</ele>
        <time>2022-09-28T14:57:21Z</time>
      </trkpt>
      <trkpt lat="46.65811" lon="6.51303">
        <ele>496.6</ele>
        <time>2022-09-28T14:57:22Z</time>
      </trkpt>
      <trkpt lat="46.65809" lon="6.51301">
        <ele>496.6</ele>
        <time>2022-09-28T14:57:23Z</time>
      </trkpt>
      <trkpt lat="46.65809" lon="6.51296">
        <ele>496.7</ele>
        <time>2022-09-28T14:57:24Z</time>
      </trkpt>
      <trkpt lat="46.65809" lon="6.51295">
        <ele>496.7</ele>
        <time>2022-09-28T14:57:25Z</time>
      </trkpt>
      <trkpt lat="46.6581" lon="6.5129">
        <ele>496.7</ele>
        <time>2022-09-28T14:57:26Z</time>
      </trkpt>
      <trkpt lat="46.6581" lon="6.51289">
        <ele>496.7</ele>
        <time>2022-09-28T14:57:27Z</time>
      </trkpt>
      <trkpt lat="46.65811" lon="6.51285">
        <ele>496.8</ele>
        <time>2022-09-28T14:57:28Z</time>
      </trkpt>
      <trkpt lat="46.65811" lon="6.51284">
        <ele>496.8</ele>
        <time>2022-09-28T14:57:29Z</time>
      </trkpt>
      <trkpt lat="46.65811" lon="6.51281">
        <ele>496.8</ele>
        <time>2022-09-28T14:57:30Z</time>
      </trkpt>
      <trkpt lat="46.65811" lon="6.51279">
        <ele>496.8</ele>
        <time>2022-09-28T14:57:31Z</time>
      </trkpt>
      <trkpt lat="46.65811" lon="6.51278">
        <ele>496.8</ele>
        <time>2022-09-28T14:57:32Z</time>
      </trkpt>
      <trkpt lat="46.65811" lon="6.51277">
        <ele>496.8</ele>
        <time>2022-09-28T14:57:33Z</time>
      </trkpt>
      <trkpt lat="46.65811" lon="6.51275">
        <ele>496.8</ele>
        <time>2022-09-28T14:57:34Z</time>
      </trkpt>
      <trkpt lat="46.65812" lon="6.51272">
        <ele>496.7</ele>
        <time>2022-09-28T14:57:35Z</time>
      </trkpt>
      <trkpt lat="46.65812" lon="6.5127">
        <ele>496.7</ele>
        <time>2022-09-28T14:57:36Z</time>
      </trkpt>
      <trkpt lat="46.65812" lon="6.51269">
        <ele>496.6</ele>
        <time>2022-09-28T14:57:37Z</time>
      </trkpt>
      <trkpt lat="46.65812" lon="6.51268">
        <ele>496.6</ele>
        <time>2022-09-28T14:57:38Z</time>
      </trkpt>
      <trkpt lat="46.65812" lon="6.51268">
        <ele>496.6</ele>
        <time>2022-09-28T14:57:39Z</time>
      </trkpt>
      <trkpt lat="46.65813" lon="6.51267">
        <ele>496.6</ele>
        <time>2022-09-28T14:57:40Z</time>
      </trkpt>
      <trkpt lat="46.65815" lon="6.51267">
        <ele>497.2</ele>
        <time>2022-09-28T14:57:41Z</time>
      </trkpt>
      <trkpt lat="46.65817" lon="6.51268">
        <ele>497.4</ele>
        <time>2022-09-28T14:57:42Z</time>
      </trkpt>
      <trkpt lat="46.65818" lon="6.51268">
        <ele>497.5</ele>
        <time>2022-09-28T14:57:43Z</time>
      </trkpt>
      <trkpt lat="46.65819" lon="6.51268">
        <ele>497.5</ele>
        <time>2022-09-28T14:57:44Z</time>
      </trkpt>
      <trkpt lat="46.6582" lon="6.51269">
        <ele>497.7</ele>
        <time>2022-09-28T14:57:45Z</time>
      </trkpt>
      <trkpt lat="46.65821" lon="6.51268">
        <ele>497.8</ele>
        <time>2022-09-28T14:57:46Z</time>
      </trkpt>
      <trkpt lat="46.65821" lon="6.51267">
        <ele>497.8</ele>
        <time>2022-09-28T14:57:47Z</time>
      </trkpt>
      <trkpt lat="46.65823" lon="6.51268">
        <ele>498</ele>
        <time>2022-09-28T14:57:48Z</time>
      </trkpt>
      <trkpt lat="46.65824" lon="6.51269">
        <ele>498.1</ele>
        <time>2022-09-28T14:57:49Z</time>
      </trkpt>
      <trkpt lat="46.65826" lon="6.5127">
        <ele>498.1</ele>
        <time>2022-09-28T14:57:50Z</time>
      </trkpt>
      <trkpt lat="46.65827" lon="6.51271">
        <ele>498.1</ele>
        <time>2022-09-28T14:57:51Z</time>
      </trkpt>
      <trkpt lat="46.65827" lon="6.51272">
        <ele>498.2</ele>
        <time>2022-09-28T14:57:52Z</time>
      </trkpt>
      <trkpt lat="46.65828" lon="6.51271">
        <ele>498.2</ele>
        <time>2022-09-28T14:57:53Z</time>
      </trkpt>
      <trkpt lat="46.65829" lon="6.51273">
        <ele>498.2</ele>
        <time>2022-09-28T14:57:54Z</time>
      </trkpt>
      <trkpt lat="46.6583" lon="6.51274">
        <ele>498.2</ele>
        <time>2022-09-28T14:57:55Z</time>
      </trkpt>
      <trkpt lat="46.65831" lon="6.51275">
        <ele>498.3</ele>
        <time>2022-09-28T14:57:56Z</time>
      </trkpt>
      <trkpt lat="46.65832" lon="6.51277">
        <ele>498.3</ele>
        <time>2022-09-28T14:57:57Z</time>
      </trkpt>
      <trkpt lat="46.65833" lon="6.51278">
        <ele>498.3</ele>
        <time>2022-09-28T14:57:58Z</time>
      </trkpt>
      <trkpt lat="46.65834" lon="6.51279">
        <ele>498.4</ele>
        <time>2022-09-28T14:57:59Z</time>
      </trkpt>
      <trkpt lat="46.65835" lon="6.51279">
        <ele>498.4</ele>
        <time>2022-09-28T14:58:00Z</time>
      </trkpt>
      <trkpt lat="46.65836" lon="6.51281">
        <ele>498.4</ele>
        <time>2022-09-28T14:58:01Z</time>
      </trkpt>
      <trkpt lat="46.65837" lon="6.51282">
        <ele>498.4</ele>
        <time>2022-09-28T14:58:02Z</time>
      </trkpt>
      <trkpt lat="46.65837" lon="6.51283">
        <ele>498.5</ele>
        <time>2022-09-28T14:58:03Z</time>
      </trkpt>
      <trkpt lat="46.65838" lon="6.51284">
        <ele>498.5</ele>
        <time>2022-09-28T14:58:04Z</time>
      </trkpt>
      <trkpt lat="46.65839" lon="6.51285">
        <ele>498.5</ele>
        <time>2022-09-28T14:58:05Z</time>
      </trkpt>
      <trkpt lat="46.6584" lon="6.51286">
        <ele>498.5</ele>
        <time>2022-09-28T14:58:06Z</time>
      </trkpt>
      <trkpt lat="46.65841" lon="6.51288">
        <ele>498.5</ele>
        <time>2022-09-28T14:58:07Z</time>
      </trkpt>
      <trkpt lat="46.65842" lon="6.51289">
        <ele>498.6</ele>
        <time>2022-09-28T14:58:08Z</time>
      </trkpt>
      <trkpt lat="46.65842" lon="6.5129">
        <ele>498.6</ele>
        <time>2022-09-28T14:58:09Z</time>
      </trkpt>
      <trkpt lat="46.65844" lon="6.51292">
        <ele>498.6</ele>
        <time>2022-09-28T14:58:10Z</time>
      </trkpt>
      <trkpt lat="46.65845" lon="6.51293">
        <ele>498.6</ele>
        <time>2022-09-28T14:58:11Z</time>
      </trkpt>
      <trkpt lat="46.65845" lon="6.51294">
        <ele>498.6</ele>
        <time>2022-09-28T14:58:12Z</time>
      </trkpt>
      <trkpt lat="46.65846" lon="6.51295">
        <ele>498.6</ele>
        <time>2022-09-28T14:58:13Z</time>
      </trkpt>
      <trkpt lat="46.65847" lon="6.51296">
        <ele>498.6</ele>
        <time>2022-09-28T14:58:14Z</time>
      </trkpt>
      <trkpt lat="46.65847" lon="6.51297">
        <ele>498.6</ele>
        <time>2022-09-28T14:58:15Z</time>
      </trkpt>
      <trkpt lat="46.65848" lon="6.51299">
        <ele>498.6</ele>
        <time>2022-09-28T14:58:16Z</time>
      </trkpt>
      <trkpt lat="46.65848" lon="6.513">
        <ele>498.6</ele>
        <time>2022-09-28T14:58:17Z</time>
      </trkpt>
      <trkpt lat="46.65849" lon="6.51301">
        <ele>498.6</ele>
        <time>2022-09-28T14:58:18Z</time>
      </trkpt>
      <trkpt lat="46.6585" lon="6.51303">
        <ele>498.6</ele>
        <time>2022-09-28T14:58:19Z</time>
      </trkpt>
      <trkpt lat="46.65851" lon="6.51305">
        <ele>498.7</ele>
        <time>2022-09-28T14:58:20Z</time>
      </trkpt>
      <trkpt lat="46.65852" lon="6.51305">
        <ele>498.7</ele>
        <time>2022-09-28T14:58:21Z</time>
      </trkpt>
      <trkpt lat="46.65853" lon="6.51307">
        <ele>498.7</ele>
        <time>2022-09-28T14:58:22Z</time>
      </trkpt>
      <trkpt lat="46.65854" lon="6.51307">
        <ele>498.8</ele>
        <time>2022-09-28T14:58:23Z</time>
      </trkpt>
      <trkpt lat="46.65856" lon="6.51308">
        <ele>498.8</ele>
        <time>2022-09-28T14:58:24Z</time>
      </trkpt>
      <trkpt lat="46.65857" lon="6.51308">
        <ele>498.8</ele>
        <time>2022-09-28T14:58:25Z</time>
      </trkpt>
      <trkpt lat="46.65858" lon="6.51309">
        <ele>498.8</ele>
        <time>2022-09-28T14:58:26Z</time>
      </trkpt>
      <trkpt lat="46.65859" lon="6.5131">
        <ele>498.9</ele>
        <time>2022-09-28T14:58:27Z</time>
      </trkpt>
      <trkpt lat="46.6586" lon="6.51311">
        <ele>498.9</ele>
        <time>2022-09-28T14:58:28Z</time>
      </trkpt>
      <trkpt lat="46.65861" lon="6.51311">
        <ele>498.9</ele>
        <time>2022-09-28T14:58:29Z</time>
      </trkpt>
      <trkpt lat="46.65862" lon="6.51312">
        <ele>498.9</ele>
        <time>2022-09-28T14:58:30Z</time>
      </trkpt>
      <trkpt lat="46.65862" lon="6.51312">
        <ele>498.9</ele>
        <time>2022-09-28T14:58:31Z</time>
      </trkpt>
      <trkpt lat="46.65863" lon="6.51313">
        <ele>499</ele>
        <time>2022-09-28T14:58:32Z</time>
      </trkpt>
      <trkpt lat="46.65864" lon="6.51312">
        <ele>499</ele>
        <time>2022-09-28T14:58:33Z</time>
      </trkpt>
      <trkpt lat="46.65864" lon="6.51312">
        <ele>499</ele>
        <time>2022-09-28T14:58:34Z</time>
      </trkpt>
      <trkpt lat="46.65865" lon="6.51311">
        <ele>499</ele>
        <time>2022-09-28T14:58:35Z</time>
      </trkpt>
      <trkpt lat="46.65865" lon="6.51311">
        <ele>499</ele>
        <time>2022-09-28T14:58:36Z</time>
      </trkpt>
      <trkpt lat="46.65865" lon="6.51311">
        <ele>499</ele>
        <time>2022-09-28T14:58:37Z</time>
      </trkpt>
      <trkpt lat="46.65865" lon="6.51311">
        <ele>499</ele>
        <time>2022-09-28T14:58:38Z</time>
      </trkpt>
      <trkpt lat="46.65865" lon="6.51312">
        <ele>499</ele>
        <time>2022-09-28T14:58:39Z</time>
      </trkpt>
      <trkpt lat="46.65865" lon="6.51313">
        <ele>499</ele>
        <time>2022-09-28T14:58:40Z</time>
      </trkpt>
      <trkpt lat="46.65865" lon="6.51313">
        <ele>499</ele>
        <time>2022-09-28T14:58:41Z</time>
      </trkpt>
      <trkpt lat="46.65866" lon="6.51313">
        <ele>499</ele>
        <time>2022-09-28T14:58:42Z</time>
      </trkpt>
      <trkpt lat="46.65866" lon="6.51313">
        <ele>499</ele>
        <time>2022-09-28T14:58:43Z</time>
      </trkpt>
      <trkpt lat="46.65865" lon="6.51313">
        <ele>499.1</ele>
        <time>2022-09-28T14:58:44Z</time>
      </trkpt>
      <trkpt lat="46.65866" lon="6.51313">
        <ele>499.1</ele>
        <time>2022-09-28T14:58:46Z</time>
      </trkpt>
      <trkpt lat="46.65836" lon="6.51296">
        <ele>498.6</ele>
        <time>2022-09-29T06:27:03Z</time>
      </trkpt>
      <trkpt lat="46.65837" lon="6.51296">
        <ele>498.6</ele>
        <time>2022-09-29T06:27:04Z</time>
      </trkpt>
      <trkpt lat="46.65836" lon="6.51295">
        <ele>498.6</ele>
        <time>2022-09-29T06:27:05Z</time>
      </trkpt>
      <trkpt lat="46.65836" lon="6.51295">
        <ele>498.6</ele>
        <time>2022-09-29T06:27:06Z</time>
      </trkpt>
      <trkpt lat="46.65835" lon="6.51293">
        <ele>498.6</ele>
        <time>2022-09-29T06:27:07Z</time>
      </trkpt>
      <trkpt lat="46.65835" lon="6.51293">
        <ele>498.6</ele>
        <time>2022-09-29T06:27:08Z</time>
      </trkpt>
      <trkpt lat="46.65832" lon="6.51291">
        <ele>498.6</ele>
        <time>2022-09-29T06:27:09Z</time>
      </trkpt>
      <trkpt lat="46.65831" lon="6.51289">
        <ele>498.6</ele>
        <time>2022-09-29T06:27:10Z</time>
      </trkpt>
      <trkpt lat="46.65831" lon="6.51288">
        <ele>498.6</ele>
        <time>2022-09-29T06:27:11Z</time>
      </trkpt>
      <trkpt lat="46.6583" lon="6.51287">
        <ele>498.6</ele>
        <time>2022-09-29T06:27:12Z</time>
      </trkpt>
      <trkpt lat="46.6583" lon="6.51288">
        <ele>498.6</ele>
        <time>2022-09-29T06:27:13Z</time>
      </trkpt>
      <trkpt lat="46.6583" lon="6.51289">
        <ele>498.6</ele>
        <time>2022-09-29T06:27:35Z</time>
      </trkpt>
      <trkpt lat="46.65831" lon="6.5129">
        <ele>498.6</ele>
        <time>2022-09-29T06:27:36Z</time>
      </trkpt>
      <trkpt lat="46.65831" lon="6.51291">
        <ele>498.6</ele>
        <time>2022-09-29T06:27:37Z</time>
      </trkpt>
      <trkpt lat="46.65832" lon="6.51292">
        <ele>498.6</ele>
        <time>2022-09-29T06:27:38Z</time>
      </trkpt>
      <trkpt lat="46.65832" lon="6.51293">
        <ele>498.6</ele>
        <time>2022-09-29T06:27:39Z</time>
      </trkpt>
      <trkpt lat="46.65833" lon="6.51294">
        <ele>498.6</ele>
        <time>2022-09-29T06:27:40Z</time>
      </trkpt>
      <trkpt lat="46.65833" lon="6.51295">
        <ele>498.6</ele>
        <time>2022-09-29T06:27:41Z</time>
      </trkpt>
      <trkpt lat="46.65834" lon="6.51296">
        <ele>498.6</ele>
        <time>2022-09-29T06:27:42Z</time>
      </trkpt>
      <trkpt lat="46.65834" lon="6.51297">
        <ele>498.6</ele>
        <time>2022-09-29T06:27:43Z</time>
      </trkpt>
      <trkpt lat="46.65835" lon="6.51298">
        <ele>498.6</ele>
        <time>2022-09-29T06:27:44Z</time>
      </trkpt>
      <trkpt lat="46.65835" lon="6.51299">
        <ele>498.6</ele>
        <time>2022-09-29T06:29:52Z</time>
      </trkpt>
      <trkpt lat="46.65836" lon="6.513">
        <ele>498.6</ele>
        <time>2022-09-29T06:29:53Z</time>
      </trkpt>
      <trkpt lat="46.65836" lon="6.51301">
        <ele>498.6</ele>
        <time>2022-09-29T06:29:54Z</time>
      </trkpt>
      <trkpt lat="46.65837" lon="6.51302">
        <ele>498.6</ele>
        <time>2022-09-29T06:29:55Z</time>
      </trkpt>
      <trkpt lat="46.65837" lon="6.51303">
        <ele>498.6</ele>
        <time>2022-09-29T06:29:56Z</time>
      </trkpt>
      <trkpt lat="46.65839" lon="6.51302">
        <ele>498.6</ele>
        <time>2022-09-29T06:29:57Z</time>
      </trkpt>
      <trkpt lat="46.65839" lon="6.51304">
        <ele>498.6</ele>
        <time>2022-09-29T06:29:58Z</time>
      </trkpt>
      <trkpt lat="46.6584" lon="6.51304">
        <ele>498.6</ele>
        <time>2022-09-29T06:29:59Z</time>
      </trkpt>
      <trkpt lat="46.65842" lon="6.51304">
        <ele>498.6</ele>
        <time>2022-09-29T06:30:00Z</time>
      </trkpt>
      <trkpt lat="46.65843" lon="6.51305">
        <ele>498.7</ele>
        <time>2022-09-29T06:30:01Z</time>
      </trkpt>
      <trkpt lat="46.65846" lon="6.51306">
        <ele>498.7</ele>
        <time>2022-09-29T06:30:02Z</time>
      </trkpt>
      <trkpt lat="46.65847" lon="6.51306">
        <ele>498.7</ele>
        <time>2022-09-29T06:30:03Z</time>
      </trkpt>
      <trkpt lat="46.65849" lon="6.51308">
        <ele>498.7</ele>
        <time>2022-09-29T06:30:04Z</time>
      </trkpt>
      <trkpt lat="46.65849" lon="6.51308">
        <ele>498.7</ele>
        <time>2022-09-29T06:30:05Z</time>
      </trkpt>
      <trkpt lat="46.65851" lon="6.51309">
        <ele>498.7</ele>
        <time>2022-09-29T06:30:06Z</time>
      </trkpt>
      <trkpt lat="46.65853" lon="6.5131">
        <ele>498.7</ele>
        <time>2022-09-29T06:30:07Z</time>
      </trkpt>
      <trkpt lat="46.65854" lon="6.5131">
        <ele>498.7</ele>
        <time>2022-09-29T06:30:08Z</time>
      </trkpt>
      <trkpt lat="46.65856" lon="6.5131">
        <ele>498.7</ele>
        <time>2022-09-29T06:30:09Z</time>
      </trkpt>
      <trkpt lat="46.65857" lon="6.51311">
        <ele>498.6</ele>
        <time>2022-09-29T06:30:10Z</time>
      </trkpt>
      <trkpt lat="46.65857" lon="6.51311">
        <ele>498.6</ele>
        <time>2022-09-29T06:30:11Z</time>
      </trkpt>
      <trkpt lat="46.65857" lon="6.51311">
        <ele>498.6</ele>
        <time>2022-09-29T06:30:12Z</time>
      </trkpt>
      <trkpt lat="46.65858" lon="6.51311">
        <ele>498.6</ele>
        <time>2022-09-29T06:30:13Z</time>
      </trkpt>
      <trkpt lat="46.65859" lon="6.51313">
        <ele>498.6</ele>
        <time>2022-09-29T06:30:14Z</time>
      </trkpt>
      <trkpt lat="46.6586" lon="6.51314">
        <ele>498.6</ele>
        <time>2022-09-29T06:30:15Z</time>
      </trkpt>
      <trkpt lat="46.65862" lon="6.51314">
        <ele>498.6</ele>
        <time>2022-09-29T06:30:16Z</time>
      </trkpt>
      <trkpt lat="46.65864" lon="6.51315">
        <ele>498.6</ele>
        <time>2022-09-29T06:30:17Z</time>
      </trkpt>
      <trkpt lat="46.65865" lon="6.51315">
        <ele>498.6</ele>
        <time>2022-09-29T06:30:18Z</time>
      </trkpt>
      <trkpt lat="46.65867" lon="6.51316">
        <ele>498.6</ele>
        <time>2022-09-29T06:30:19Z</time>
      </trkpt>
      <trkpt lat="46.65868" lon="6.51316">
        <ele>498.5</ele>
        <time>2022-09-29T06:30:20Z</time>
      </trkpt>
      <trkpt lat="46.6587" lon="6.51317">
        <ele>498.5</ele>
        <time>2022-09-29T06:30:21Z</time>
      </trkpt>
      <trkpt lat="46.65872" lon="6.51317">
        <ele>498.5</ele>
        <time>2022-09-29T06:30:22Z</time>
      </trkpt>
      <trkpt lat="46.65873" lon="6.51318">
        <ele>498.5</ele>
        <time>2022-09-29T06:30:23Z</time>
      </trkpt>
      <trkpt lat="46.65875" lon="6.51318">
        <ele>498.5</ele>
        <time>2022-09-29T06:31:17Z</time>
      </trkpt>
      <trkpt lat="46.65876" lon="6.51319">
        <ele>498.5</ele>
        <time>2022-09-29T06:31:18Z</time>
      </trkpt>
      <trkpt lat="46.6588" lon="6.51318">
        <ele>498.4</ele>
        <time>2022-09-29T06:31:19Z</time>
      </trkpt>
      <trkpt lat="46.65881" lon="6.51318">
        <ele>498.4</ele>
        <time>2022-09-29T06:31:20Z</time>
      </trkpt>
      <trkpt lat="46.65882" lon="6.5132">
        <ele>498.4</ele>
        <time>2022-09-29T06:31:21Z</time>
      </trkpt>
      <trkpt lat="46.65881" lon="6.51322">
        <ele>498.4</ele>
        <time>2022-09-29T06:31:22Z</time>
      </trkpt>
      <trkpt lat="46.65882" lon="6.5133">
        <ele>498.4</ele>
        <time>2022-09-29T06:31:23Z</time>
      </trkpt>
      <trkpt lat="46.65884" lon="6.51336">
        <ele>498.3</ele>
        <time>2022-09-29T06:31:24Z</time>
      </trkpt>
      <trkpt lat="46.65887" lon="6.5134">
        <ele>498.3</ele>
        <time>2022-09-29T06:31:25Z</time>
      </trkpt>
      <trkpt lat="46.6589" lon="6.51343">
        <ele>498.3</ele>
        <time>2022-09-29T06:31:26Z</time>
      </trkpt>
      <trkpt lat="46.65893" lon="6.51345">
        <ele>498.2</ele>
        <time>2022-09-29T06:31:27Z</time>
      </trkpt>
      <trkpt lat="46.65895" lon="6.5135">
        <ele>498.2</ele>
        <time>2022-09-29T06:31:28Z</time>
      </trkpt>
      <trkpt lat="46.65898" lon="6.51354">
        <ele>498.2</ele>
        <time>2022-09-29T06:31:29Z</time>
      </trkpt>
      <trkpt lat="46.65901" lon="6.51358">
        <ele>498.2</ele>
        <time>2022-09-29T06:31:30Z</time>
      </trkpt>
      <trkpt lat="46.65904" lon="6.51362">
        <ele>498.1</ele>
        <time>2022-09-29T06:31:31Z</time>
      </trkpt>
      <trkpt lat="46.65906" lon="6.51368">
        <ele>498.1</ele>
        <time>2022-09-29T06:31:32Z</time>
      </trkpt>
      <trkpt lat="46.65907" lon="6.51373">
        <ele>498</ele>
        <time>2022-09-29T06:31:33Z</time>
      </trkpt>
      <trkpt lat="46.65908" lon="6.51377">
        <ele>498</ele>
        <time>2022-09-29T06:31:34Z</time>
      </trkpt>
      <trkpt lat="46.65911" lon="6.51384">
        <ele>497.9</ele>
        <time>2022-09-29T06:31:35Z</time>
      </trkpt>
      <trkpt lat="46.65914" lon="6.51389">
        <ele>497.8</ele>
        <time>2022-09-29T06:31:36Z</time>
      </trkpt>
      <trkpt lat="46.65915" lon="6.51393">
        <ele>497.8</ele>
        <time>2022-09-29T06:31:37Z</time>
      </trkpt>
      <trkpt lat="46.65917" lon="6.51398">
        <ele>497.7</ele>
        <time>2022-09-29T06:31:38Z</time>
      </trkpt>
      <trkpt lat="46.6592" lon="6.51403">
        <ele>497.6</ele>
        <time>2022-09-29T06:31:39Z</time>
      </trkpt>
      <trkpt lat="46.65924" lon="6.51404">
        <ele>497.6</ele>
        <time>2022-09-29T06:31:40Z</time>
      </trkpt>
      <trkpt lat="46.65925" lon="6.51406">
        <ele>497.6</ele>
        <time>2022-09-29T06:31:41Z</time>
      </trkpt>
      <trkpt lat="46.65929" lon="6.51409">
        <ele>497.5</ele>
        <time>2022-09-29T06:31:42Z</time>
      </trkpt>
      <trkpt lat="46.65933" lon="6.51413">
        <ele>497.4</ele>
        <time>2022-09-29T06:31:43Z</time>
      </trkpt>
      <trkpt lat="46.65933" lon="6.51417">
        <ele>497.4</ele>
        <time>2022-09-29T06:31:44Z</time>
      </trkpt>
      <trkpt lat="46.65934" lon="6.51421">
        <ele>497.4</ele>
        <time>2022-09-29T06:31:45Z</time>
      </trkpt>
      <trkpt lat="46.65936" lon="6.51427">
        <ele>497.3</ele>
        <time>2022-09-29T06:31:46Z</time>
      </trkpt>
      <trkpt lat="46.65937" lon="6.5143">
        <ele>497.3</ele>
        <time>2022-09-29T06:31:47Z</time>
      </trkpt>
      <trkpt lat="46.65939" lon="6.51434">
        <ele>497.2</ele>
        <time>2022-09-29T06:31:48Z</time>
      </trkpt>
      <trkpt lat="46.65942" lon="6.51441">
        <ele>497.1</ele>
        <time>2022-09-29T06:31:49Z</time>
      </trkpt>
      <trkpt lat="46.65946" lon="6.51449">
        <ele>497</ele>
        <time>2022-09-29T06:31:50Z</time>
      </trkpt>
      <trkpt lat="46.65949" lon="6.51451">
        <ele>496.9</ele>
        <time>2022-09-29T06:31:51Z</time>
      </trkpt>
      <trkpt lat="46.65951" lon="6.51453">
        <ele>496.9</ele>
        <time>2022-09-29T06:31:52Z</time>
      </trkpt>
      <trkpt lat="46.65955" lon="6.51458">
        <ele>496.8</ele>
        <time>2022-09-29T06:31:53Z</time>
      </trkpt>
      <trkpt lat="46.65957" lon="6.51461">
        <ele>496.8</ele>
        <time>2022-09-29T06:31:54Z</time>
      </trkpt>
      <trkpt lat="46.65957" lon="6.51468">
        <ele>496.7</ele>
        <time>2022-09-29T06:31:55Z</time>
      </trkpt>
      <trkpt lat="46.65957" lon="6.51471">
        <ele>496.7</ele>
        <time>2022-09-29T06:31:56Z</time>
      </trkpt>
      <trkpt lat="46.6596" lon="6.51481">
        <ele>496.6</ele>
        <time>2022-09-29T06:31:57Z</time>
      </trkpt>
      <trkpt lat="46.65962" lon="6.51486">
        <ele>496.5</ele>
        <time>2022-09-29T06:31:58Z</time>
      </trkpt>
      <trkpt lat="46.65967" lon="6.51493">
        <ele>496.4</ele>
        <time>2022-09-29T06:31:59Z</time>
      </trkpt>
      <trkpt lat="46.65971" lon="6.515">
        <ele>496.3</ele>
        <time>2022-09-29T06:32:00Z</time>
      </trkpt>
      <trkpt lat="46.65972" lon="6.51501">
        <ele>496.3</ele>
        <time>2022-09-29T06:32:01Z</time>
      </trkpt>
      <trkpt lat="46.65974" lon="6.51503">
        <ele>496.3</ele>
        <time>2022-09-29T06:32:02Z</time>
      </trkpt>
      <trkpt lat="46.65977" lon="6.51509">
        <ele>496.3</ele>
        <time>2022-09-29T06:32:03Z</time>
      </trkpt>
      <trkpt lat="46.65979" lon="6.51514">
        <ele>496.2</ele>
        <time>2022-09-29T06:32:04Z</time>
      </trkpt>
      <trkpt lat="46.65983" lon="6.51519">
        <ele>496.1</ele>
        <time>2022-09-29T06:32:05Z</time>
      </trkpt>
      <trkpt lat="46.65987" lon="6.51524">
        <ele>496.1</ele>
        <time>2022-09-29T06:32:06Z</time>
      </trkpt>
      <trkpt lat="46.65989" lon="6.51527">
        <ele>496</ele>
        <time>2022-09-29T06:32:07Z</time>
      </trkpt>
      <trkpt lat="46.65991" lon="6.5153">
        <ele>496</ele>
        <time>2022-09-29T06:32:08Z</time>
      </trkpt>
      <trkpt lat="46.65992" lon="6.51535">
        <ele>496</ele>
        <time>2022-09-29T06:32:09Z</time>
      </trkpt>
      <trkpt lat="46.65993" lon="6.51539">
        <ele>495.9</ele>
        <time>2022-09-29T06:32:10Z</time>
      </trkpt>
      <trkpt lat="46.65996" lon="6.51544">
        <ele>495.9</ele>
        <time>2022-09-29T06:32:11Z</time>
      </trkpt>
      <trkpt lat="46.65999" lon="6.51548">
        <ele>495.8</ele>
        <time>2022-09-29T06:32:12Z</time>
      </trkpt>
      <trkpt lat="46.66001" lon="6.51549">
        <ele>496</ele>
        <time>2022-09-29T06:32:13Z</time>
      </trkpt>
      <trkpt lat="46.66004" lon="6.5155">
        <ele>496</ele>
        <time>2022-09-29T06:32:14Z</time>
      </trkpt>
      <trkpt lat="46.66007" lon="6.51551">
        <ele>496</ele>
        <time>2022-09-29T06:32:15Z</time>
      </trkpt>
      <trkpt lat="46.6601" lon="6.51551">
        <ele>496.1</ele>
        <time>2022-09-29T06:32:16Z</time>
      </trkpt>
      <trkpt lat="46.66011" lon="6.51551">
        <ele>496.1</ele>
        <time>2022-09-29T06:32:17Z</time>
      </trkpt>
      <trkpt lat="46.66014" lon="6.51551">
        <ele>496.1</ele>
        <time>2022-09-29T06:32:18Z</time>
      </trkpt>
      <trkpt lat="46.66017" lon="6.51549">
        <ele>496.1</ele>
        <time>2022-09-29T06:32:19Z</time>
      </trkpt>
      <trkpt lat="46.6602" lon="6.51549">
        <ele>496.2</ele>
        <time>2022-09-29T06:32:20Z</time>
      </trkpt>
      <trkpt lat="46.66021" lon="6.5155">
        <ele>496.2</ele>
        <time>2022-09-29T06:32:21Z</time>
      </trkpt>
      <trkpt lat="46.66024" lon="6.5155">
        <ele>496.2</ele>
        <time>2022-09-29T06:32:22Z</time>
      </trkpt>
      <trkpt lat="46.6603" lon="6.51546">
        <ele>496.2</ele>
        <time>2022-09-29T06:32:23Z</time>
      </trkpt>
      <trkpt lat="46.66032" lon="6.51544">
        <ele>496.2</ele>
        <time>2022-09-29T06:32:24Z</time>
      </trkpt>
      <trkpt lat="46.66034" lon="6.51543">
        <ele>496.2</ele>
        <time>2022-09-29T06:32:25Z</time>
      </trkpt>
      <trkpt lat="46.66035" lon="6.51541">
        <ele>496.2</ele>
        <time>2022-09-29T06:32:26Z</time>
      </trkpt>
      <trkpt lat="46.66035" lon="6.51541">
        <ele>496.2</ele>
        <time>2022-09-29T06:32:27Z</time>
      </trkpt>
      <trkpt lat="46.66036" lon="6.51541">
        <ele>496.2</ele>
        <time>2022-09-29T06:32:28Z</time>
      </trkpt>
      <trkpt lat="46.66036" lon="6.5154">
        <ele>496.2</ele>
        <time>2022-09-29T06:32:29Z</time>
      </trkpt>
      <trkpt lat="46.66036" lon="6.51539">
        <ele>496.2</ele>
        <time>2022-09-29T06:32:30Z</time>
      </trkpt>
      <trkpt lat="46.66037" lon="6.51539">
        <ele>496.2</ele>
        <time>2022-09-29T06:32:31Z</time>
      </trkpt>
      <trkpt lat="46.66037" lon="6.51538">
        <ele>496.2</ele>
        <time>2022-09-29T06:32:32Z</time>
      </trkpt>
      <trkpt lat="46.66038" lon="6.51537">
        <ele>496.1</ele>
        <time>2022-09-29T06:32:33Z</time>
      </trkpt>
      <trkpt lat="46.66038" lon="6.51537">
        <ele>496.1</ele>
        <time>2022-09-29T06:32:34Z</time>
      </trkpt>
      <trkpt lat="46.66038" lon="6.51536">
        <ele>496.1</ele>
        <time>2022-09-29T06:32:35Z</time>
      </trkpt>
      <trkpt lat="46.66039" lon="6.51535">
        <ele>496.1</ele>
        <time>2022-09-29T06:32:36Z</time>
      </trkpt>
      <trkpt lat="46.66039" lon="6.51535">
        <ele>496.1</ele>
        <time>2022-09-29T06:32:37Z</time>
      </trkpt>
      <trkpt lat="46.6604" lon="6.51534">
        <ele>496.1</ele>
        <time>2022-09-29T06:32:38Z</time>
      </trkpt>
      <trkpt lat="46.6604" lon="6.51533">
        <ele>496.1</ele>
        <time>2022-09-29T06:32:39Z</time>
      </trkpt>
      <trkpt lat="46.6604" lon="6.51533">
        <ele>496.1</ele>
        <time>2022-09-29T06:33:09Z</time>
      </trkpt>
      <trkpt lat="46.66041" lon="6.51532">
        <ele>496.1</ele>
        <time>2022-09-29T06:33:10Z</time>
      </trkpt>
      <trkpt lat="46.66043" lon="6.51528">
        <ele>496.1</ele>
        <time>2022-09-29T06:33:11Z</time>
      </trkpt>
      <trkpt lat="46.66043" lon="6.51526">
        <ele>496.1</ele>
        <time>2022-09-29T06:33:12Z</time>
      </trkpt>
      <trkpt lat="46.66045" lon="6.51524">
        <ele>496.1</ele>
        <time>2022-09-29T06:33:13Z</time>
      </trkpt>
      <trkpt lat="46.66047" lon="6.5152">
        <ele>496</ele>
        <time>2022-09-29T06:33:14Z</time>
      </trkpt>
      <trkpt lat="46.6605" lon="6.51516">
        <ele>495.8</ele>
        <time>2022-09-29T06:33:15Z</time>
      </trkpt>
      <trkpt lat="46.66053" lon="6.51514">
        <ele>495.7</ele>
        <time>2022-09-29T06:33:16Z</time>
      </trkpt>
      <trkpt lat="46.66056" lon="6.5151">
        <ele>495.6</ele>
        <time>2022-09-29T06:33:17Z</time>
      </trkpt>
      <trkpt lat="46.66059" lon="6.51506">
        <ele>495.4</ele>
        <time>2022-09-29T06:33:19Z</time>
      </trkpt>
      <trkpt lat="46.66061" lon="6.51502">
        <ele>495.3</ele>
        <time>2022-09-29T06:33:20Z</time>
      </trkpt>
      <trkpt lat="46.66063" lon="6.51497">
        <ele>495.2</ele>
        <time>2022-09-29T06:33:21Z</time>
      </trkpt>
      <trkpt lat="46.66066" lon="6.51494">
        <ele>495</ele>
        <time>2022-09-29T06:33:22Z</time>
      </trkpt>
      <trkpt lat="46.6607" lon="6.51489">
        <ele>494.9</ele>
        <time>2022-09-29T06:33:23Z</time>
      </trkpt>
      <trkpt lat="46.66073" lon="6.51484">
        <ele>494.7</ele>
        <time>2022-09-29T06:33:24Z</time>
      </trkpt>
      <trkpt lat="46.66076" lon="6.51479">
        <ele>494.6</ele>
        <time>2022-09-29T06:33:25Z</time>
      </trkpt>
      <trkpt lat="46.66079" lon="6.51473">
        <ele>494.4</ele>
        <time>2022-09-29T06:33:26Z</time>
      </trkpt>
      <trkpt lat="46.66082" lon="6.51468">
        <ele>494.2</ele>
        <time>2022-09-29T06:33:27Z</time>
      </trkpt>
      <trkpt lat="46.66084" lon="6.51463">
        <ele>494</ele>
        <time>2022-09-29T06:33:28Z</time>
      </trkpt>
      <trkpt lat="46.66087" lon="6.51457">
        <ele>493.8</ele>
        <time>2022-09-29T06:33:29Z</time>
      </trkpt>
      <trkpt lat="46.66092" lon="6.51454">
        <ele>493.6</ele>
        <time>2022-09-29T06:33:30Z</time>
      </trkpt>
      <trkpt lat="46.66096" lon="6.51449">
        <ele>493.4</ele>
        <time>2022-09-29T06:33:31Z</time>
      </trkpt>
      <trkpt lat="46.66101" lon="6.51444">
        <ele>493.2</ele>
        <time>2022-09-29T06:33:32Z</time>
      </trkpt>
      <trkpt lat="46.66105" lon="6.5144">
        <ele>493</ele>
        <time>2022-09-29T06:33:33Z</time>
      </trkpt>
      <trkpt lat="46.6611" lon="6.51437">
        <ele>492.8</ele>
        <time>2022-09-29T06:33:34Z</time>
      </trkpt>
      <trkpt lat="46.66115" lon="6.51433">
        <ele>492.5</ele>
        <time>2022-09-29T06:33:35Z</time>
      </trkpt>
      <trkpt lat="46.66121" lon="6.51429">
        <ele>492.3</ele>
        <time>2022-09-29T06:33:36Z</time>
      </trkpt>
      <trkpt lat="46.66126" lon="6.51427">
        <ele>492</ele>
        <time>2022-09-29T06:33:37Z</time>
      </trkpt>
      <trkpt lat="46.66131" lon="6.51426">
        <ele>491.8</ele>
        <time>2022-09-29T06:33:38Z</time>
      </trkpt>
      <trkpt lat="46.66137" lon="6.51424">
        <ele>491.5</ele>
        <time>2022-09-29T06:33:39Z</time>
      </trkpt>
      <trkpt lat="46.66143" lon="6.51426">
        <ele>491.3</ele>
        <time>2022-09-29T06:33:40Z</time>
      </trkpt>
      <trkpt lat="46.66148" lon="6.51427">
        <ele>491</ele>
        <time>2022-09-29T06:33:41Z</time>
      </trkpt>
      <trkpt lat="46.66152" lon="6.51428">
        <ele>490.8</ele>
        <time>2022-09-29T06:33:42Z</time>
      </trkpt>
      <trkpt lat="46.66157" lon="6.5143">
        <ele>490.5</ele>
        <time>2022-09-29T06:33:43Z</time>
      </trkpt>
      <trkpt lat="46.66162" lon="6.51432">
        <ele>490.2</ele>
        <time>2022-09-29T06:33:44Z</time>
      </trkpt>
      <trkpt lat="46.66172" lon="6.51438">
        <ele>489.5</ele>
        <time>2022-09-29T06:33:45Z</time>
      </trkpt>
      <trkpt lat="46.66177" lon="6.51444">
        <ele>489.1</ele>
        <time>2022-09-29T06:33:46Z</time>
      </trkpt>
      <trkpt lat="46.66182" lon="6.5145">
        <ele>488.8</ele>
        <time>2022-09-29T06:33:47Z</time>
      </trkpt>
      <trkpt lat="46.66188" lon="6.51455">
        <ele>488.4</ele>
        <time>2022-09-29T06:33:48Z</time>
      </trkpt>
      <trkpt lat="46.66192" lon="6.5146">
        <ele>488.1</ele>
        <time>2022-09-29T06:33:49Z</time>
      </trkpt>
      <trkpt lat="46.66197" lon="6.51467">
        <ele>487.8</ele>
        <time>2022-09-29T06:33:50Z</time>
      </trkpt>
      <trkpt lat="46.66203" lon="6.51473">
        <ele>487.5</ele>
        <time>2022-09-29T06:33:51Z</time>
      </trkpt>
      <trkpt lat="46.66207" lon="6.51481">
        <ele>487.3</ele>
        <time>2022-09-29T06:33:52Z</time>
      </trkpt>
      <trkpt lat="46.66213" lon="6.51485">
        <ele>487</ele>
        <time>2022-09-29T06:33:53Z</time>
      </trkpt>
      <trkpt lat="46.66218" lon="6.51491">
        <ele>486.7</ele>
        <time>2022-09-29T06:33:54Z</time>
      </trkpt>
      <trkpt lat="46.66223" lon="6.51496">
        <ele>486.5</ele>
        <time>2022-09-29T06:33:55Z</time>
      </trkpt>
      <trkpt lat="46.66228" lon="6.51503">
        <ele>486.2</ele>
        <time>2022-09-29T06:33:56Z</time>
      </trkpt>
      <trkpt lat="46.66233" lon="6.51508">
        <ele>486</ele>
        <time>2022-09-29T06:33:57Z</time>
      </trkpt>
      <trkpt lat="46.66239" lon="6.51515">
        <ele>485.7</ele>
        <time>2022-09-29T06:33:58Z</time>
      </trkpt>
      <trkpt lat="46.66244" lon="6.5152">
        <ele>485.5</ele>
        <time>2022-09-29T06:33:59Z</time>
      </trkpt>
      <trkpt lat="46.66249" lon="6.51525">
        <ele>485.3</ele>
        <time>2022-09-29T06:34:00Z</time>
      </trkpt>
      <trkpt lat="46.66255" lon="6.5153">
        <ele>485.2</ele>
        <time>2022-09-29T06:34:01Z</time>
      </trkpt>
      <trkpt lat="46.66261" lon="6.51534">
        <ele>485</ele>
        <time>2022-09-29T06:34:02Z</time>
      </trkpt>
      <trkpt lat="46.66267" lon="6.51536">
        <ele>484.9</ele>
        <time>2022-09-29T06:34:03Z</time>
      </trkpt>
      <trkpt lat="46.66273" lon="6.51539">
        <ele>484.8</ele>
        <time>2022-09-29T06:34:04Z</time>
      </trkpt>
      <trkpt lat="46.66279" lon="6.5154">
        <ele>484.7</ele>
        <time>2022-09-29T06:34:05Z</time>
      </trkpt>
      <trkpt lat="46.66284" lon="6.51541">
        <ele>484.6</ele>
        <time>2022-09-29T06:34:06Z</time>
      </trkpt>
      <trkpt lat="46.6629" lon="6.51542">
        <ele>484.6</ele>
        <time>2022-09-29T06:34:07Z</time>
      </trkpt>
      <trkpt lat="46.66296" lon="6.51543">
        <ele>484.5</ele>
        <time>2022-09-29T06:34:08Z</time>
      </trkpt>
      <trkpt lat="46.66302" lon="6.51544">
        <ele>484.5</ele>
        <time>2022-09-29T06:34:09Z</time>
      </trkpt>
      <trkpt lat="46.66307" lon="6.51543">
        <ele>484.5</ele>
        <time>2022-09-29T06:34:10Z</time>
      </trkpt>
      <trkpt lat="46.66313" lon="6.51544">
        <ele>484.5</ele>
        <time>2022-09-29T06:34:11Z</time>
      </trkpt>
      <trkpt lat="46.66318" lon="6.51545">
        <ele>484.5</ele>
        <time>2022-09-29T06:34:12Z</time>
      </trkpt>
      <trkpt lat="46.66323" lon="6.51544">
        <ele>484.5</ele>
        <time>2022-09-29T06:34:13Z</time>
      </trkpt>
      <trkpt lat="46.66327" lon="6.51543">
        <ele>484.5</ele>
        <time>2022-09-29T06:34:14Z</time>
      </trkpt>
      <trkpt lat="46.66331" lon="6.51543">
        <ele>484.5</ele>
        <time>2022-09-29T06:34:15Z</time>
      </trkpt>
      <trkpt lat="46.66335" lon="6.51544">
        <ele>484.5</ele>
        <time>2022-09-29T06:34:16Z</time>
      </trkpt>
      <trkpt lat="46.66338" lon="6.51547">
        <ele>484.4</ele>
        <time>2022-09-29T06:34:17Z</time>
      </trkpt>
      <trkpt lat="46.66342" lon="6.5155">
        <ele>484.4</ele>
        <time>2022-09-29T06:34:18Z</time>
      </trkpt>
      <trkpt lat="46.66346" lon="6.51553">
        <ele>484.3</ele>
        <time>2022-09-29T06:34:19Z</time>
      </trkpt>
      <trkpt lat="46.66349" lon="6.51558">
        <ele>484.2</ele>
        <time>2022-09-29T06:34:20Z</time>
      </trkpt>
      <trkpt lat="46.66352" lon="6.51564">
        <ele>484.1</ele>
        <time>2022-09-29T06:34:21Z</time>
      </trkpt>
      <trkpt lat="46.66355" lon="6.5157">
        <ele>483.9</ele>
        <time>2022-09-29T06:34:22Z</time>
      </trkpt>
      <trkpt lat="46.66359" lon="6.51577">
        <ele>483.8</ele>
        <time>2022-09-29T06:34:23Z</time>
      </trkpt>
      <trkpt lat="46.66361" lon="6.51584">
        <ele>483.6</ele>
        <time>2022-09-29T06:34:24Z</time>
      </trkpt>
      <trkpt lat="46.66363" lon="6.5159">
        <ele>483.5</ele>
        <time>2022-09-29T06:34:25Z</time>
      </trkpt>
      <trkpt lat="46.66365" lon="6.51598">
        <ele>483.3</ele>
        <time>2022-09-29T06:34:26Z</time>
      </trkpt>
      <trkpt lat="46.66367" lon="6.51605">
        <ele>483.2</ele>
        <time>2022-09-29T06:34:27Z</time>
      </trkpt>
      <trkpt lat="46.6637" lon="6.51612">
        <ele>483.1</ele>
        <time>2022-09-29T06:34:28Z</time>
      </trkpt>
      <trkpt lat="46.66371" lon="6.51619">
        <ele>483</ele>
        <time>2022-09-29T06:34:29Z</time>
      </trkpt>
      <trkpt lat="46.66374" lon="6.51626">
        <ele>482.9</ele>
        <time>2022-09-29T06:34:30Z</time>
      </trkpt>
      <trkpt lat="46.66376" lon="6.51635">
        <ele>482.8</ele>
        <time>2022-09-29T06:34:31Z</time>
      </trkpt>
      <trkpt lat="46.66378" lon="6.51644">
        <ele>482.6</ele>
        <time>2022-09-29T06:34:32Z</time>
      </trkpt>
      <trkpt lat="46.66381" lon="6.51652">
        <ele>482.4</ele>
        <time>2022-09-29T06:34:33Z</time>
      </trkpt>
      <trkpt lat="46.66383" lon="6.5166">
        <ele>482.3</ele>
        <time>2022-09-29T06:34:34Z</time>
      </trkpt>
      <trkpt lat="46.66385" lon="6.51668">
        <ele>482.1</ele>
        <time>2022-09-29T06:34:35Z</time>
      </trkpt>
      <trkpt lat="46.66386" lon="6.51676">
        <ele>482</ele>
        <time>2022-09-29T06:34:36Z</time>
      </trkpt>
      <trkpt lat="46.66388" lon="6.51684">
        <ele>481.8</ele>
        <time>2022-09-29T06:34:37Z</time>
      </trkpt>
      <trkpt lat="46.6639" lon="6.51692">
        <ele>481.6</ele>
        <time>2022-09-29T06:34:38Z</time>
      </trkpt>
      <trkpt lat="46.66393" lon="6.517">
        <ele>481.5</ele>
        <time>2022-09-29T06:34:39Z</time>
      </trkpt>
      <trkpt lat="46.66394" lon="6.51708">
        <ele>481.3</ele>
        <time>2022-09-29T06:34:40Z</time>
      </trkpt>
      <trkpt lat="46.66396" lon="6.51717">
        <ele>481.2</ele>
        <time>2022-09-29T06:34:41Z</time>
      </trkpt>
      <trkpt lat="46.66398" lon="6.51725">
        <ele>481</ele>
        <time>2022-09-29T06:34:42Z</time>
      </trkpt>
      <trkpt lat="46.664" lon="6.51733">
        <ele>480.9</ele>
        <time>2022-09-29T06:34:43Z</time>
      </trkpt>
      <trkpt lat="46.66401" lon="6.51741">
        <ele>480.8</ele>
        <time>2022-09-29T06:34:44Z</time>
      </trkpt>
      <trkpt lat="46.66403" lon="6.51749">
        <ele>480.7</ele>
        <time>2022-09-29T06:34:45Z</time>
      </trkpt>
      <trkpt lat="46.66405" lon="6.51757">
        <ele>480.5</ele>
        <time>2022-09-29T06:34:46Z</time>
      </trkpt>
      <trkpt lat="46.66407" lon="6.51766">
        <ele>480.4</ele>
        <time>2022-09-29T06:34:47Z</time>
      </trkpt>
      <trkpt lat="46.66409" lon="6.51774">
        <ele>480.3</ele>
        <time>2022-09-29T06:34:48Z</time>
      </trkpt>
      <trkpt lat="46.66411" lon="6.51783">
        <ele>480.2</ele>
        <time>2022-09-29T06:34:49Z</time>
      </trkpt>
      <trkpt lat="46.66412" lon="6.51791">
        <ele>480.1</ele>
        <time>2022-09-29T06:34:50Z</time>
      </trkpt>
      <trkpt lat="46.66414" lon="6.51799">
        <ele>480</ele>
        <time>2022-09-29T06:34:51Z</time>
      </trkpt>
      <trkpt lat="46.66415" lon="6.51807">
        <ele>479.8</ele>
        <time>2022-09-29T06:34:52Z</time>
      </trkpt>
      <trkpt lat="46.66417" lon="6.51816">
        <ele>479.7</ele>
        <time>2022-09-29T06:34:53Z</time>
      </trkpt>
      <trkpt lat="46.66419" lon="6.51824">
        <ele>479.6</ele>
        <time>2022-09-29T06:34:54Z</time>
      </trkpt>
      <trkpt lat="46.6642" lon="6.51832">
        <ele>479.5</ele>
        <time>2022-09-29T06:34:55Z</time>
      </trkpt>
      <trkpt lat="46.66422" lon="6.5184">
        <ele>479.3</ele>
        <time>2022-09-29T06:34:56Z</time>
      </trkpt>
      <trkpt lat="46.66424" lon="6.51847">
        <ele>479.3</ele>
        <time>2022-09-29T06:34:57Z</time>
      </trkpt>
      <trkpt lat="46.66425" lon="6.51855">
        <ele>479.2</ele>
        <time>2022-09-29T06:34:58Z</time>
      </trkpt>
      <trkpt lat="46.66427" lon="6.51863">
        <ele>479.1</ele>
        <time>2022-09-29T06:34:59Z</time>
      </trkpt>
      <trkpt lat="46.66427" lon="6.51871">
        <ele>479</ele>
        <time>2022-09-29T06:35:00Z</time>
      </trkpt>
      <trkpt lat="46.66429" lon="6.5188">
        <ele>478.9</ele>
        <time>2022-09-29T06:35:01Z</time>
      </trkpt>
      <trkpt lat="46.66431" lon="6.51888">
        <ele>478.8</ele>
        <time>2022-09-29T06:35:02Z</time>
      </trkpt>
      <trkpt lat="46.66433" lon="6.51896">
        <ele>478.7</ele>
        <time>2022-09-29T06:35:03Z</time>
      </trkpt>
      <trkpt lat="46.66434" lon="6.51904">
        <ele>478.7</ele>
        <time>2022-09-29T06:35:04Z</time>
      </trkpt>
      <trkpt lat="46.66435" lon="6.51911">
        <ele>478.6</ele>
        <time>2022-09-29T06:35:05Z</time>
      </trkpt>
      <trkpt lat="46.66437" lon="6.51919">
        <ele>478.5</ele>
        <time>2022-09-29T06:35:06Z</time>
      </trkpt>
      <trkpt lat="46.66439" lon="6.51927">
        <ele>478.4</ele>
        <time>2022-09-29T06:35:07Z</time>
      </trkpt>
      <trkpt lat="46.6644" lon="6.51935">
        <ele>478.3</ele>
        <time>2022-09-29T06:35:08Z</time>
      </trkpt>
      <trkpt lat="46.66442" lon="6.51942">
        <ele>478.2</ele>
        <time>2022-09-29T06:35:09Z</time>
      </trkpt>
      <trkpt lat="46.66443" lon="6.5195">
        <ele>478.1</ele>
        <time>2022-09-29T06:35:10Z</time>
      </trkpt>
      <trkpt lat="46.66445" lon="6.51957">
        <ele>478</ele>
        <time>2022-09-29T06:35:11Z</time>
      </trkpt>
      <trkpt lat="46.66446" lon="6.51965">
        <ele>477.9</ele>
        <time>2022-09-29T06:35:12Z</time>
      </trkpt>
      <trkpt lat="46.66448" lon="6.51973">
        <ele>477.8</ele>
        <time>2022-09-29T06:35:13Z</time>
      </trkpt>
      <trkpt lat="46.66449" lon="6.5198">
        <ele>477.7</ele>
        <time>2022-09-29T06:35:14Z</time>
      </trkpt>
      <trkpt lat="46.66451" lon="6.51988">
        <ele>477.6</ele>
        <time>2022-09-29T06:35:15Z</time>
      </trkpt>
      <trkpt lat="46.66452" lon="6.51996">
        <ele>477.5</ele>
        <time>2022-09-29T06:35:16Z</time>
      </trkpt>
      <trkpt lat="46.66454" lon="6.52004">
        <ele>477.4</ele>
        <time>2022-09-29T06:35:17Z</time>
      </trkpt>
      <trkpt lat="46.66456" lon="6.52012">
        <ele>477.3</ele>
        <time>2022-09-29T06:35:18Z</time>
      </trkpt>
      <trkpt lat="46.66457" lon="6.5202">
        <ele>477.2</ele>
        <time>2022-09-29T06:35:19Z</time>
      </trkpt>
      <trkpt lat="46.66459" lon="6.52028">
        <ele>477.1</ele>
        <time>2022-09-29T06:35:20Z</time>
      </trkpt>
      <trkpt lat="46.6646" lon="6.52036">
        <ele>477</ele>
        <time>2022-09-29T06:35:21Z</time>
      </trkpt>
      <trkpt lat="46.66462" lon="6.52045">
        <ele>476.9</ele>
        <time>2022-09-29T06:35:22Z</time>
      </trkpt>
      <trkpt lat="46.66463" lon="6.52053">
        <ele>476.8</ele>
        <time>2022-09-29T06:35:23Z</time>
      </trkpt>
      <trkpt lat="46.66465" lon="6.52061">
        <ele>476.8</ele>
        <time>2022-09-29T06:35:25Z</time>
      </trkpt>
      <trkpt lat="46.66466" lon="6.52069">
        <ele>476.7</ele>
        <time>2022-09-29T06:35:26Z</time>
      </trkpt>
      <trkpt lat="46.66468" lon="6.52078">
        <ele>476.6</ele>
        <time>2022-09-29T06:35:27Z</time>
      </trkpt>
      <trkpt lat="46.6647" lon="6.52086">
        <ele>476.5</ele>
        <time>2022-09-29T06:35:28Z</time>
      </trkpt>
      <trkpt lat="46.66471" lon="6.52094">
        <ele>476.4</ele>
        <time>2022-09-29T06:35:29Z</time>
      </trkpt>
      <trkpt lat="46.66473" lon="6.52102">
        <ele>476.3</ele>
        <time>2022-09-29T06:35:30Z</time>
      </trkpt>
      <trkpt lat="46.66475" lon="6.52111">
        <ele>476.2</ele>
        <time>2022-09-29T06:35:31Z</time>
      </trkpt>
      <trkpt lat="46.66477" lon="6.52119">
        <ele>476.1</ele>
        <time>2022-09-29T06:35:32Z</time>
      </trkpt>
      <trkpt lat="46.66479" lon="6.52127">
        <ele>476</ele>
        <time>2022-09-29T06:35:33Z</time>
      </trkpt>
      <trkpt lat="46.6648" lon="6.52136">
        <ele>475.9</ele>
        <time>2022-09-29T06:35:34Z</time>
      </trkpt>
      <trkpt lat="46.66482" lon="6.52145">
        <ele>475.8</ele>
        <time>2022-09-29T06:35:35Z</time>
      </trkpt>
      <trkpt lat="46.66483" lon="6.52154">
        <ele>475.7</ele>
        <time>2022-09-29T06:35:36Z</time>
      </trkpt>
      <trkpt lat="46.66486" lon="6.52162">
        <ele>475.7</ele>
        <time>2022-09-29T06:35:37Z</time>
      </trkpt>
      <trkpt lat="46.66488" lon="6.5217">
        <ele>475.6</ele>
        <time>2022-09-29T06:35:38Z</time>
      </trkpt>
      <trkpt lat="46.6649" lon="6.52178">
        <ele>475.4</ele>
        <time>2022-09-29T06:35:39Z</time>
      </trkpt>
      <trkpt lat="46.6649" lon="6.52183">
        <ele>475.4</ele>
        <time>2022-09-29T06:35:40Z</time>
      </trkpt>
      <trkpt lat="46.66489" lon="6.52187">
        <ele>475.3</ele>
        <time>2022-09-29T06:35:41Z</time>
      </trkpt>
      <trkpt lat="46.66488" lon="6.52191">
        <ele>475.2</ele>
        <time>2022-09-29T06:35:42Z</time>
      </trkpt>
      <trkpt lat="46.66486" lon="6.52195">
        <ele>475.2</ele>
        <time>2022-09-29T06:35:43Z</time>
      </trkpt>
      <trkpt lat="46.66483" lon="6.52198">
        <ele>475.1</ele>
        <time>2022-09-29T06:35:44Z</time>
      </trkpt>
      <trkpt lat="46.66481" lon="6.52203">
        <ele>475</ele>
        <time>2022-09-29T06:35:45Z</time>
      </trkpt>
      <trkpt lat="46.66478" lon="6.52207">
        <ele>475</ele>
        <time>2022-09-29T06:35:46Z</time>
      </trkpt>
      <trkpt lat="46.66476" lon="6.52212">
        <ele>474.9</ele>
        <time>2022-09-29T06:35:47Z</time>
      </trkpt>
      <trkpt lat="46.66472" lon="6.52216">
        <ele>474.8</ele>
        <time>2022-09-29T06:35:48Z</time>
      </trkpt>
      <trkpt lat="46.66469" lon="6.52221">
        <ele>474.8</ele>
        <time>2022-09-29T06:35:49Z</time>
      </trkpt>
      <trkpt lat="46.66466" lon="6.52226">
        <ele>474.7</ele>
        <time>2022-09-29T06:35:50Z</time>
      </trkpt>
      <trkpt lat="46.66461" lon="6.52231">
        <ele>474.7</ele>
        <time>2022-09-29T06:35:51Z</time>
      </trkpt>
      <trkpt lat="46.66458" lon="6.52236">
        <ele>474.6</ele>
        <time>2022-09-29T06:35:52Z</time>
      </trkpt>
      <trkpt lat="46.66454" lon="6.52242">
        <ele>474.6</ele>
        <time>2022-09-29T06:35:53Z</time>
      </trkpt>
      <trkpt lat="46.66451" lon="6.52247">
        <ele>474.5</ele>
        <time>2022-09-29T06:35:54Z</time>
      </trkpt>
      <trkpt lat="46.66448" lon="6.52253">
        <ele>474.5</ele>
        <time>2022-09-29T06:35:55Z</time>
      </trkpt>
      <trkpt lat="46.66444" lon="6.52259">
        <ele>474.4</ele>
        <time>2022-09-29T06:35:56Z</time>
      </trkpt>
      <trkpt lat="46.66441" lon="6.52264">
        <ele>474.3</ele>
        <time>2022-09-29T06:35:57Z</time>
      </trkpt>
      <trkpt lat="46.66437" lon="6.5227">
        <ele>474.3</ele>
        <time>2022-09-29T06:35:58Z</time>
      </trkpt>
      <trkpt lat="46.66434" lon="6.52276">
        <ele>474.2</ele>
        <time>2022-09-29T06:35:59Z</time>
      </trkpt>
      <trkpt lat="46.6643" lon="6.52282">
        <ele>474.1</ele>
        <time>2022-09-29T06:36:00Z</time>
      </trkpt>
      <trkpt lat="46.66422" lon="6.52293">
        <ele>474</ele>
        <time>2022-09-29T06:36:01Z</time>
      </trkpt>
      <trkpt lat="46.66418" lon="6.52299">
        <ele>473.9</ele>
        <time>2022-09-29T06:36:02Z</time>
      </trkpt>
      <trkpt lat="46.66415" lon="6.52306">
        <ele>473.8</ele>
        <time>2022-09-29T06:36:03Z</time>
      </trkpt>
      <trkpt lat="46.66411" lon="6.52312">
        <ele>473.7</ele>
        <time>2022-09-29T06:36:04Z</time>
      </trkpt>
      <trkpt lat="46.66407" lon="6.52318">
        <ele>473.6</ele>
        <time>2022-09-29T06:36:05Z</time>
      </trkpt>
      <trkpt lat="46.66403" lon="6.52325">
        <ele>473.5</ele>
        <time>2022-09-29T06:36:06Z</time>
      </trkpt>
      <trkpt lat="46.66399" lon="6.52331">
        <ele>473.4</ele>
        <time>2022-09-29T06:36:07Z</time>
      </trkpt>
      <trkpt lat="46.66395" lon="6.52338">
        <ele>473.2</ele>
        <time>2022-09-29T06:36:08Z</time>
      </trkpt>
      <trkpt lat="46.66391" lon="6.52345">
        <ele>473.1</ele>
        <time>2022-09-29T06:36:09Z</time>
      </trkpt>
      <trkpt lat="46.66387" lon="6.52352">
        <ele>473</ele>
        <time>2022-09-29T06:36:10Z</time>
      </trkpt>
      <trkpt lat="46.66383" lon="6.52358">
        <ele>472.9</ele>
        <time>2022-09-29T06:36:11Z</time>
      </trkpt>
      <trkpt lat="46.6638" lon="6.52365">
        <ele>472.8</ele>
        <time>2022-09-29T06:36:12Z</time>
      </trkpt>
      <trkpt lat="46.66376" lon="6.52371">
        <ele>472.7</ele>
        <time>2022-09-29T06:36:13Z</time>
      </trkpt>
      <trkpt lat="46.66372" lon="6.52377">
        <ele>472.6</ele>
        <time>2022-09-29T06:36:14Z</time>
      </trkpt>
      <trkpt lat="46.66369" lon="6.52383">
        <ele>472.5</ele>
        <time>2022-09-29T06:36:15Z</time>
      </trkpt>
      <trkpt lat="46.66365" lon="6.52389">
        <ele>472.4</ele>
        <time>2022-09-29T06:36:16Z</time>
      </trkpt>
      <trkpt lat="46.66361" lon="6.52395">
        <ele>472.3</ele>
        <time>2022-09-29T06:36:17Z</time>
      </trkpt>
      <trkpt lat="46.66358" lon="6.52401">
        <ele>472.3</ele>
        <time>2022-09-29T06:36:18Z</time>
      </trkpt>
      <trkpt lat="46.66354" lon="6.52408">
        <ele>472.2</ele>
        <time>2022-09-29T06:36:19Z</time>
      </trkpt>
      <trkpt lat="46.6635" lon="6.52414">
        <ele>472.1</ele>
        <time>2022-09-29T06:36:20Z</time>
      </trkpt>
      <trkpt lat="46.66346" lon="6.52421">
        <ele>472</ele>
        <time>2022-09-29T06:36:21Z</time>
      </trkpt>
      <trkpt lat="46.66343" lon="6.52427">
        <ele>471.9</ele>
        <time>2022-09-29T06:36:22Z</time>
      </trkpt>
      <trkpt lat="46.66339" lon="6.52434">
        <ele>471.8</ele>
        <time>2022-09-29T06:36:23Z</time>
      </trkpt>
      <trkpt lat="46.66335" lon="6.52441">
        <ele>471.8</ele>
        <time>2022-09-29T06:36:24Z</time>
      </trkpt>
      <trkpt lat="46.66332" lon="6.52448">
        <ele>471.7</ele>
        <time>2022-09-29T06:36:25Z</time>
      </trkpt>
      <trkpt lat="46.66329" lon="6.52455">
        <ele>471.6</ele>
        <time>2022-09-29T06:36:26Z</time>
      </trkpt>
      <trkpt lat="46.66325" lon="6.52461">
        <ele>471.6</ele>
        <time>2022-09-29T06:36:27Z</time>
      </trkpt>
      <trkpt lat="46.66322" lon="6.52468">
        <ele>471.5</ele>
        <time>2022-09-29T06:36:28Z</time>
      </trkpt>
      <trkpt lat="46.66318" lon="6.52474">
        <ele>471.4</ele>
        <time>2022-09-29T06:36:29Z</time>
      </trkpt>
      <trkpt lat="46.66315" lon="6.52481">
        <ele>471.3</ele>
        <time>2022-09-29T06:36:30Z</time>
      </trkpt>
      <trkpt lat="46.66312" lon="6.52488">
        <ele>471.2</ele>
        <time>2022-09-29T06:36:31Z</time>
      </trkpt>
      <trkpt lat="46.66309" lon="6.52495">
        <ele>471.2</ele>
        <time>2022-09-29T06:36:32Z</time>
      </trkpt>
      <trkpt lat="46.66306" lon="6.52502">
        <ele>471.1</ele>
        <time>2022-09-29T06:36:33Z</time>
      </trkpt>
      <trkpt lat="46.66302" lon="6.52509">
        <ele>470.9</ele>
        <time>2022-09-29T06:36:34Z</time>
      </trkpt>
      <trkpt lat="46.66298" lon="6.52516">
        <ele>470.8</ele>
        <time>2022-09-29T06:36:35Z</time>
      </trkpt>
      <trkpt lat="46.66295" lon="6.52522">
        <ele>470.7</ele>
        <time>2022-09-29T06:36:36Z</time>
      </trkpt>
      <trkpt lat="46.66292" lon="6.52529">
        <ele>470.6</ele>
        <time>2022-09-29T06:36:37Z</time>
      </trkpt>
      <trkpt lat="46.66289" lon="6.52536">
        <ele>470.5</ele>
        <time>2022-09-29T06:36:38Z</time>
      </trkpt>
      <trkpt lat="46.66286" lon="6.52543">
        <ele>470.4</ele>
        <time>2022-09-29T06:36:39Z</time>
      </trkpt>
      <trkpt lat="46.66282" lon="6.5255">
        <ele>470.3</ele>
        <time>2022-09-29T06:36:40Z</time>
      </trkpt>
      <trkpt lat="46.66279" lon="6.52556">
        <ele>470.2</ele>
        <time>2022-09-29T06:36:41Z</time>
      </trkpt>
      <trkpt lat="46.66276" lon="6.52563">
        <ele>470.1</ele>
        <time>2022-09-29T06:36:42Z</time>
      </trkpt>
      <trkpt lat="46.66273" lon="6.5257">
        <ele>470</ele>
        <time>2022-09-29T06:36:43Z</time>
      </trkpt>
      <trkpt lat="46.6627" lon="6.52577">
        <ele>469.8</ele>
        <time>2022-09-29T06:36:44Z</time>
      </trkpt>
      <trkpt lat="46.66266" lon="6.52583">
        <ele>469.7</ele>
        <time>2022-09-29T06:36:45Z</time>
      </trkpt>
      <trkpt lat="46.66263" lon="6.52589">
        <ele>469.6</ele>
        <time>2022-09-29T06:36:46Z</time>
      </trkpt>
      <trkpt lat="46.6626" lon="6.52596">
        <ele>469.5</ele>
        <time>2022-09-29T06:36:47Z</time>
      </trkpt>
      <trkpt lat="46.66256" lon="6.52601">
        <ele>469.4</ele>
        <time>2022-09-29T06:36:48Z</time>
      </trkpt>
      <trkpt lat="46.66253" lon="6.52607">
        <ele>469.3</ele>
        <time>2022-09-29T06:36:49Z</time>
      </trkpt>
      <trkpt lat="46.66249" lon="6.52614">
        <ele>469.1</ele>
        <time>2022-09-29T06:36:50Z</time>
      </trkpt>
      <trkpt lat="46.66246" lon="6.5262">
        <ele>469</ele>
        <time>2022-09-29T06:36:51Z</time>
      </trkpt>
      <trkpt lat="46.66242" lon="6.52626">
        <ele>468.9</ele>
        <time>2022-09-29T06:36:52Z</time>
      </trkpt>
      <trkpt lat="46.66239" lon="6.52633">
        <ele>468.8</ele>
        <time>2022-09-29T06:36:53Z</time>
      </trkpt>
      <trkpt lat="46.66234" lon="6.5264">
        <ele>468.7</ele>
        <time>2022-09-29T06:36:54Z</time>
      </trkpt>
      <trkpt lat="46.66231" lon="6.52647">
        <ele>468.7</ele>
        <time>2022-09-29T06:36:55Z</time>
      </trkpt>
      <trkpt lat="46.66227" lon="6.52654">
        <ele>468.6</ele>
        <time>2022-09-29T06:36:56Z</time>
      </trkpt>
      <trkpt lat="46.66224" lon="6.5266">
        <ele>468.5</ele>
        <time>2022-09-29T06:36:57Z</time>
      </trkpt>
      <trkpt lat="46.66221" lon="6.52666">
        <ele>468.4</ele>
        <time>2022-09-29T06:36:58Z</time>
      </trkpt>
      <trkpt lat="46.66218" lon="6.52672">
        <ele>468.4</ele>
        <time>2022-09-29T06:36:59Z</time>
      </trkpt>
      <trkpt lat="46.66215" lon="6.52679">
        <ele>468.3</ele>
        <time>2022-09-29T06:37:00Z</time>
      </trkpt>
      <trkpt lat="46.66211" lon="6.52685">
        <ele>468.3</ele>
        <time>2022-09-29T06:37:01Z</time>
      </trkpt>
      <trkpt lat="46.66208" lon="6.52691">
        <ele>468.2</ele>
        <time>2022-09-29T06:37:02Z</time>
      </trkpt>
      <trkpt lat="46.66205" lon="6.52697">
        <ele>468.1</ele>
        <time>2022-09-29T06:37:03Z</time>
      </trkpt>
      <trkpt lat="46.66202" lon="6.52703">
        <ele>468</ele>
        <time>2022-09-29T06:37:04Z</time>
      </trkpt>
      <trkpt lat="46.66199" lon="6.52708">
        <ele>468</ele>
        <time>2022-09-29T06:37:05Z</time>
      </trkpt>
      <trkpt lat="46.66197" lon="6.52714">
        <ele>467.9</ele>
        <time>2022-09-29T06:37:06Z</time>
      </trkpt>
      <trkpt lat="46.66194" lon="6.5272">
        <ele>467.8</ele>
        <time>2022-09-29T06:37:07Z</time>
      </trkpt>
      <trkpt lat="46.6619" lon="6.52726">
        <ele>467.7</ele>
        <time>2022-09-29T06:37:08Z</time>
      </trkpt>
      <trkpt lat="46.66187" lon="6.5273">
        <ele>467.6</ele>
        <time>2022-09-29T06:37:09Z</time>
      </trkpt>
      <trkpt lat="46.66184" lon="6.52736">
        <ele>467.5</ele>
        <time>2022-09-29T06:37:10Z</time>
      </trkpt>
      <trkpt lat="46.66181" lon="6.52742">
        <ele>467.4</ele>
        <time>2022-09-29T06:37:11Z</time>
      </trkpt>
      <trkpt lat="46.66178" lon="6.52748">
        <ele>467.3</ele>
        <time>2022-09-29T06:37:12Z</time>
      </trkpt>
      <trkpt lat="46.66174" lon="6.52755">
        <ele>467.2</ele>
        <time>2022-09-29T06:37:13Z</time>
      </trkpt>
      <trkpt lat="46.66171" lon="6.52762">
        <ele>467.1</ele>
        <time>2022-09-29T06:37:14Z</time>
      </trkpt>
      <trkpt lat="46.66168" lon="6.52768">
        <ele>467</ele>
        <time>2022-09-29T06:37:15Z</time>
      </trkpt>
      <trkpt lat="46.66164" lon="6.52775">
        <ele>466.9</ele>
        <time>2022-09-29T06:37:16Z</time>
      </trkpt>
      <trkpt lat="46.6616" lon="6.52781">
        <ele>466.8</ele>
        <time>2022-09-29T06:37:17Z</time>
      </trkpt>
      <trkpt lat="46.66157" lon="6.52788">
        <ele>466.7</ele>
        <time>2022-09-29T06:37:18Z</time>
      </trkpt>
      <trkpt lat="46.66153" lon="6.52794">
        <ele>466.7</ele>
        <time>2022-09-29T06:37:19Z</time>
      </trkpt>
      <trkpt lat="46.6615" lon="6.52801">
        <ele>466.6</ele>
        <time>2022-09-29T06:37:20Z</time>
      </trkpt>
      <trkpt lat="46.66146" lon="6.52807">
        <ele>466.5</ele>
        <time>2022-09-29T06:37:21Z</time>
      </trkpt>
      <trkpt lat="46.66143" lon="6.52814">
        <ele>466.5</ele>
        <time>2022-09-29T06:37:22Z</time>
      </trkpt>
      <trkpt lat="46.66139" lon="6.52821">
        <ele>466.4</ele>
        <time>2022-09-29T06:37:23Z</time>
      </trkpt>
      <trkpt lat="46.66136" lon="6.52828">
        <ele>466.3</ele>
        <time>2022-09-29T06:37:24Z</time>
      </trkpt>
      <trkpt lat="46.66133" lon="6.52834">
        <ele>466.2</ele>
        <time>2022-09-29T06:37:25Z</time>
      </trkpt>
      <trkpt lat="46.66129" lon="6.52841">
        <ele>466.1</ele>
        <time>2022-09-29T06:37:26Z</time>
      </trkpt>
      <trkpt lat="46.66126" lon="6.52848">
        <ele>466.1</ele>
        <time>2022-09-29T06:37:27Z</time>
      </trkpt>
      <trkpt lat="46.66122" lon="6.52854">
        <ele>465.9</ele>
        <time>2022-09-29T06:37:28Z</time>
      </trkpt>
      <trkpt lat="46.66118" lon="6.52861">
        <ele>465.8</ele>
        <time>2022-09-29T06:37:29Z</time>
      </trkpt>
      <trkpt lat="46.66115" lon="6.52868">
        <ele>465.7</ele>
        <time>2022-09-29T06:37:31Z</time>
      </trkpt>
      <trkpt lat="46.66111" lon="6.52875">
        <ele>465.5</ele>
        <time>2022-09-29T06:37:32Z</time>
      </trkpt>
      <trkpt lat="46.66108" lon="6.52882">
        <ele>465.4</ele>
        <time>2022-09-29T06:37:33Z</time>
      </trkpt>
      <trkpt lat="46.66104" lon="6.52889">
        <ele>465.3</ele>
        <time>2022-09-29T06:37:34Z</time>
      </trkpt>
      <trkpt lat="46.66101" lon="6.52897">
        <ele>465.2</ele>
        <time>2022-09-29T06:37:35Z</time>
      </trkpt>
      <trkpt lat="46.66097" lon="6.52904">
        <ele>465.1</ele>
        <time>2022-09-29T06:37:36Z</time>
      </trkpt>
      <trkpt lat="46.66094" lon="6.52911">
        <ele>465</ele>
        <time>2022-09-29T06:37:37Z</time>
      </trkpt>
      <trkpt lat="46.6609" lon="6.52918">
        <ele>464.9</ele>
        <time>2022-09-29T06:37:38Z</time>
      </trkpt>
      <trkpt lat="46.66085" lon="6.52925">
        <ele>464.8</ele>
        <time>2022-09-29T06:37:39Z</time>
      </trkpt>
      <trkpt lat="46.66082" lon="6.52932">
        <ele>464.7</ele>
        <time>2022-09-29T06:37:40Z</time>
      </trkpt>
      <trkpt lat="46.66079" lon="6.5294">
        <ele>464.6</ele>
        <time>2022-09-29T06:37:41Z</time>
      </trkpt>
      <trkpt lat="46.66075" lon="6.52947">
        <ele>464.5</ele>
        <time>2022-09-29T06:37:42Z</time>
      </trkpt>
      <trkpt lat="46.66072" lon="6.52955">
        <ele>464.4</ele>
        <time>2022-09-29T06:37:43Z</time>
      </trkpt>
      <trkpt lat="46.66069" lon="6.52962">
        <ele>464.3</ele>
        <time>2022-09-29T06:37:44Z</time>
      </trkpt>
      <trkpt lat="46.66066" lon="6.5297">
        <ele>464.3</ele>
        <time>2022-09-29T06:37:45Z</time>
      </trkpt>
      <trkpt lat="46.66062" lon="6.52977">
        <ele>464.2</ele>
        <time>2022-09-29T06:37:46Z</time>
      </trkpt>
      <trkpt lat="46.66059" lon="6.52985">
        <ele>464.1</ele>
        <time>2022-09-29T06:37:47Z</time>
      </trkpt>
      <trkpt lat="46.66056" lon="6.52992">
        <ele>464</ele>
        <time>2022-09-29T06:37:48Z</time>
      </trkpt>
      <trkpt lat="46.66053" lon="6.53">
        <ele>464</ele>
        <time>2022-09-29T06:37:49Z</time>
      </trkpt>
      <trkpt lat="46.6605" lon="6.53007">
        <ele>463.9</ele>
        <time>2022-09-29T06:37:50Z</time>
      </trkpt>
      <trkpt lat="46.66047" lon="6.53014">
        <ele>463.8</ele>
        <time>2022-09-29T06:37:51Z</time>
      </trkpt>
      <trkpt lat="46.66044" lon="6.5302">
        <ele>463.7</ele>
        <time>2022-09-29T06:37:52Z</time>
      </trkpt>
      <trkpt lat="46.6604" lon="6.53026">
        <ele>463.6</ele>
        <time>2022-09-29T06:37:53Z</time>
      </trkpt>
      <trkpt lat="46.66037" lon="6.53033">
        <ele>463.5</ele>
        <time>2022-09-29T06:37:54Z</time>
      </trkpt>
      <trkpt lat="46.66034" lon="6.5304">
        <ele>463.4</ele>
        <time>2022-09-29T06:37:55Z</time>
      </trkpt>
      <trkpt lat="46.66031" lon="6.53046">
        <ele>463.3</ele>
        <time>2022-09-29T06:37:56Z</time>
      </trkpt>
      <trkpt lat="46.66029" lon="6.53052">
        <ele>463.2</ele>
        <time>2022-09-29T06:37:57Z</time>
      </trkpt>
      <trkpt lat="46.66027" lon="6.53057">
        <ele>463.2</ele>
        <time>2022-09-29T06:37:58Z</time>
      </trkpt>
      <trkpt lat="46.66026" lon="6.53064">
        <ele>463.1</ele>
        <time>2022-09-29T06:37:59Z</time>
      </trkpt>
      <trkpt lat="46.66025" lon="6.5307">
        <ele>463</ele>
        <time>2022-09-29T06:38:00Z</time>
      </trkpt>
      <trkpt lat="46.66024" lon="6.53076">
        <ele>462.9</ele>
        <time>2022-09-29T06:38:01Z</time>
      </trkpt>
      <trkpt lat="46.66024" lon="6.53083">
        <ele>462.8</ele>
        <time>2022-09-29T06:38:02Z</time>
      </trkpt>
      <trkpt lat="46.66025" lon="6.5309">
        <ele>462.6</ele>
        <time>2022-09-29T06:38:03Z</time>
      </trkpt>
      <trkpt lat="46.66026" lon="6.53097">
        <ele>462.5</ele>
        <time>2022-09-29T06:38:04Z</time>
      </trkpt>
      <trkpt lat="46.66027" lon="6.53105">
        <ele>462.3</ele>
        <time>2022-09-29T06:38:05Z</time>
      </trkpt>
      <trkpt lat="46.66029" lon="6.53113">
        <ele>462.2</ele>
        <time>2022-09-29T06:38:06Z</time>
      </trkpt>
      <trkpt lat="46.66031" lon="6.53121">
        <ele>462</ele>
        <time>2022-09-29T06:38:07Z</time>
      </trkpt>
      <trkpt lat="46.66032" lon="6.5313">
        <ele>461.8</ele>
        <time>2022-09-29T06:38:08Z</time>
      </trkpt>
      <trkpt lat="46.66033" lon="6.53138">
        <ele>461.7</ele>
        <time>2022-09-29T06:38:09Z</time>
      </trkpt>
      <trkpt lat="46.66035" lon="6.53146">
        <ele>461.5</ele>
        <time>2022-09-29T06:38:10Z</time>
      </trkpt>
      <trkpt lat="46.66037" lon="6.53155">
        <ele>461.4</ele>
        <time>2022-09-29T06:38:11Z</time>
      </trkpt>
      <trkpt lat="46.66038" lon="6.53163">
        <ele>461.3</ele>
        <time>2022-09-29T06:38:12Z</time>
      </trkpt>
      <trkpt lat="46.6604" lon="6.53171">
        <ele>461.1</ele>
        <time>2022-09-29T06:38:13Z</time>
      </trkpt>
      <trkpt lat="46.66041" lon="6.53179">
        <ele>461</ele>
        <time>2022-09-29T06:38:14Z</time>
      </trkpt>
      <trkpt lat="46.66043" lon="6.53186">
        <ele>460.9</ele>
        <time>2022-09-29T06:38:15Z</time>
      </trkpt>
      <trkpt lat="46.66044" lon="6.53194">
        <ele>460.8</ele>
        <time>2022-09-29T06:38:16Z</time>
      </trkpt>
      <trkpt lat="46.66047" lon="6.53201">
        <ele>460.7</ele>
        <time>2022-09-29T06:38:17Z</time>
      </trkpt>
      <trkpt lat="46.6605" lon="6.53208">
        <ele>460.6</ele>
        <time>2022-09-29T06:38:18Z</time>
      </trkpt>
      <trkpt lat="46.66054" lon="6.53214">
        <ele>460.5</ele>
        <time>2022-09-29T06:38:19Z</time>
      </trkpt>
      <trkpt lat="46.66058" lon="6.5322">
        <ele>460.4</ele>
        <time>2022-09-29T06:38:20Z</time>
      </trkpt>
      <trkpt lat="46.66062" lon="6.53227">
        <ele>460.4</ele>
        <time>2022-09-29T06:38:21Z</time>
      </trkpt>
      <trkpt lat="46.66066" lon="6.53233">
        <ele>460.3</ele>
        <time>2022-09-29T06:38:22Z</time>
      </trkpt>
      <trkpt lat="46.6607" lon="6.53238">
        <ele>460.2</ele>
        <time>2022-09-29T06:38:23Z</time>
      </trkpt>
      <trkpt lat="46.66074" lon="6.53244">
        <ele>460.2</ele>
        <time>2022-09-29T06:38:24Z</time>
      </trkpt>
      <trkpt lat="46.66078" lon="6.53251">
        <ele>460.1</ele>
        <time>2022-09-29T06:38:25Z</time>
      </trkpt>
      <trkpt lat="46.66082" lon="6.53256">
        <ele>460.1</ele>
        <time>2022-09-29T06:38:26Z</time>
      </trkpt>
      <trkpt lat="46.66086" lon="6.53263">
        <ele>460.1</ele>
        <time>2022-09-29T06:38:27Z</time>
      </trkpt>
      <trkpt lat="46.6609" lon="6.53268">
        <ele>460.1</ele>
        <time>2022-09-29T06:38:28Z</time>
      </trkpt>
      <trkpt lat="46.66093" lon="6.53274">
        <ele>460.1</ele>
        <time>2022-09-29T06:38:29Z</time>
      </trkpt>
      <trkpt lat="46.66097" lon="6.53279">
        <ele>460</ele>
        <time>2022-09-29T06:38:30Z</time>
      </trkpt>
      <trkpt lat="46.661" lon="6.53283">
        <ele>460</ele>
        <time>2022-09-29T06:38:31Z</time>
      </trkpt>
      <trkpt lat="46.66103" lon="6.53286">
        <ele>460</ele>
        <time>2022-09-29T06:38:32Z</time>
      </trkpt>
      <trkpt lat="46.66106" lon="6.53289">
        <ele>460</ele>
        <time>2022-09-29T06:38:33Z</time>
      </trkpt>
      <trkpt lat="46.66109" lon="6.5329">
        <ele>459.9</ele>
        <time>2022-09-29T06:38:34Z</time>
      </trkpt>
      <trkpt lat="46.66113" lon="6.5329">
        <ele>459.9</ele>
        <time>2022-09-29T06:38:35Z</time>
      </trkpt>
      <trkpt lat="46.66117" lon="6.5329">
        <ele>459.9</ele>
        <time>2022-09-29T06:38:36Z</time>
      </trkpt>
      <trkpt lat="46.66121" lon="6.5329">
        <ele>459.9</ele>
        <time>2022-09-29T06:38:37Z</time>
      </trkpt>
      <trkpt lat="46.66127" lon="6.53285">
        <ele>459.8</ele>
        <time>2022-09-29T06:38:38Z</time>
      </trkpt>
      <trkpt lat="46.66131" lon="6.53282">
        <ele>459.8</ele>
        <time>2022-09-29T06:38:39Z</time>
      </trkpt>
      <trkpt lat="46.66133" lon="6.53277">
        <ele>459.8</ele>
        <time>2022-09-29T06:38:40Z</time>
      </trkpt>
      <trkpt lat="46.66136" lon="6.53272">
        <ele>459.8</ele>
        <time>2022-09-29T06:38:41Z</time>
      </trkpt>
      <trkpt lat="46.66138" lon="6.53267">
        <ele>459.8</ele>
        <time>2022-09-29T06:38:42Z</time>
      </trkpt>
      <trkpt lat="46.66141" lon="6.53262">
        <ele>459.8</ele>
        <time>2022-09-29T06:38:43Z</time>
      </trkpt>
      <trkpt lat="46.66144" lon="6.53256">
        <ele>459.8</ele>
        <time>2022-09-29T06:38:44Z</time>
      </trkpt>
      <trkpt lat="46.66147" lon="6.53251">
        <ele>459.8</ele>
        <time>2022-09-29T06:38:45Z</time>
      </trkpt>
      <trkpt lat="46.6615" lon="6.53247">
        <ele>459.8</ele>
        <time>2022-09-29T06:38:46Z</time>
      </trkpt>
      <trkpt lat="46.66153" lon="6.53244">
        <ele>459.8</ele>
        <time>2022-09-29T06:38:47Z</time>
      </trkpt>
      <trkpt lat="46.66156" lon="6.53242">
        <ele>459.7</ele>
        <time>2022-09-29T06:38:48Z</time>
      </trkpt>
      <trkpt lat="46.66159" lon="6.53241">
        <ele>459.6</ele>
        <time>2022-09-29T06:38:49Z</time>
      </trkpt>
      <trkpt lat="46.66163" lon="6.53241">
        <ele>459.6</ele>
        <time>2022-09-29T06:38:50Z</time>
      </trkpt>
      <trkpt lat="46.66167" lon="6.53244">
        <ele>459.5</ele>
        <time>2022-09-29T06:38:51Z</time>
      </trkpt>
      <trkpt lat="46.66171" lon="6.53247">
        <ele>459.4</ele>
        <time>2022-09-29T06:38:52Z</time>
      </trkpt>
      <trkpt lat="46.66174" lon="6.53251">
        <ele>459.2</ele>
        <time>2022-09-29T06:38:53Z</time>
      </trkpt>
      <trkpt lat="46.66178" lon="6.53256">
        <ele>459.1</ele>
        <time>2022-09-29T06:38:54Z</time>
      </trkpt>
      <trkpt lat="46.6618" lon="6.53262">
        <ele>459</ele>
        <time>2022-09-29T06:38:55Z</time>
      </trkpt>
      <trkpt lat="46.66184" lon="6.53267">
        <ele>458.9</ele>
        <time>2022-09-29T06:38:56Z</time>
      </trkpt>
      <trkpt lat="46.66188" lon="6.53273">
        <ele>458.8</ele>
        <time>2022-09-29T06:38:57Z</time>
      </trkpt>
      <trkpt lat="46.66192" lon="6.53278">
        <ele>458.6</ele>
        <time>2022-09-29T06:38:58Z</time>
      </trkpt>
      <trkpt lat="46.66196" lon="6.53284">
        <ele>458.5</ele>
        <time>2022-09-29T06:38:59Z</time>
      </trkpt>
      <trkpt lat="46.66201" lon="6.53289">
        <ele>458.4</ele>
        <time>2022-09-29T06:39:00Z</time>
      </trkpt>
      <trkpt lat="46.66205" lon="6.53295">
        <ele>458.3</ele>
        <time>2022-09-29T06:39:01Z</time>
      </trkpt>
      <trkpt lat="46.6621" lon="6.53301">
        <ele>458.3</ele>
        <time>2022-09-29T06:39:02Z</time>
      </trkpt>
      <trkpt lat="46.66214" lon="6.53306">
        <ele>458.2</ele>
        <time>2022-09-29T06:39:03Z</time>
      </trkpt>
      <trkpt lat="46.66218" lon="6.53312">
        <ele>458.1</ele>
        <time>2022-09-29T06:39:04Z</time>
      </trkpt>
      <trkpt lat="46.66223" lon="6.53318">
        <ele>458</ele>
        <time>2022-09-29T06:39:05Z</time>
      </trkpt>
      <trkpt lat="46.66227" lon="6.53323">
        <ele>457.9</ele>
        <time>2022-09-29T06:39:06Z</time>
      </trkpt>
      <trkpt lat="46.66232" lon="6.53329">
        <ele>457.8</ele>
        <time>2022-09-29T06:39:07Z</time>
      </trkpt>
      <trkpt lat="46.66236" lon="6.53335">
        <ele>457.7</ele>
        <time>2022-09-29T06:39:08Z</time>
      </trkpt>
      <trkpt lat="46.6624" lon="6.53341">
        <ele>457.7</ele>
        <time>2022-09-29T06:39:09Z</time>
      </trkpt>
      <trkpt lat="46.66245" lon="6.53347">
        <ele>457.6</ele>
        <time>2022-09-29T06:39:10Z</time>
      </trkpt>
      <trkpt lat="46.66249" lon="6.53353">
        <ele>457.6</ele>
        <time>2022-09-29T06:39:11Z</time>
      </trkpt>
      <trkpt lat="46.66254" lon="6.53358">
        <ele>457.5</ele>
        <time>2022-09-29T06:39:12Z</time>
      </trkpt>
      <trkpt lat="46.66259" lon="6.53364">
        <ele>457.4</ele>
        <time>2022-09-29T06:39:13Z</time>
      </trkpt>
      <trkpt lat="46.66263" lon="6.53369">
        <ele>457.3</ele>
        <time>2022-09-29T06:39:14Z</time>
      </trkpt>
      <trkpt lat="46.66267" lon="6.53375">
        <ele>457.2</ele>
        <time>2022-09-29T06:39:15Z</time>
      </trkpt>
      <trkpt lat="46.66272" lon="6.5338">
        <ele>457.1</ele>
        <time>2022-09-29T06:39:16Z</time>
      </trkpt>
      <trkpt lat="46.66276" lon="6.53386">
        <ele>457</ele>
        <time>2022-09-29T06:39:17Z</time>
      </trkpt>
      <trkpt lat="46.6628" lon="6.53391">
        <ele>456.8</ele>
        <time>2022-09-29T06:39:18Z</time>
      </trkpt>
      <trkpt lat="46.66285" lon="6.53396">
        <ele>456.7</ele>
        <time>2022-09-29T06:39:19Z</time>
      </trkpt>
      <trkpt lat="46.66289" lon="6.53402">
        <ele>456.5</ele>
        <time>2022-09-29T06:39:20Z</time>
      </trkpt>
      <trkpt lat="46.66293" lon="6.53408">
        <ele>456.3</ele>
        <time>2022-09-29T06:39:21Z</time>
      </trkpt>
      <trkpt lat="46.66298" lon="6.53414">
        <ele>456.2</ele>
        <time>2022-09-29T06:39:22Z</time>
      </trkpt>
      <trkpt lat="46.66303" lon="6.53419">
        <ele>456</ele>
        <time>2022-09-29T06:39:23Z</time>
      </trkpt>
      <trkpt lat="46.66308" lon="6.53425">
        <ele>455.9</ele>
        <time>2022-09-29T06:39:24Z</time>
      </trkpt>
      <trkpt lat="46.66312" lon="6.53432">
        <ele>455.8</ele>
        <time>2022-09-29T06:39:25Z</time>
      </trkpt>
      <trkpt lat="46.66318" lon="6.53437">
        <ele>455.6</ele>
        <time>2022-09-29T06:39:26Z</time>
      </trkpt>
      <trkpt lat="46.66322" lon="6.53443">
        <ele>455.5</ele>
        <time>2022-09-29T06:39:27Z</time>
      </trkpt>
      <trkpt lat="46.66327" lon="6.53448">
        <ele>455.4</ele>
        <time>2022-09-29T06:39:28Z</time>
      </trkpt>
      <trkpt lat="46.66332" lon="6.53454">
        <ele>455.3</ele>
        <time>2022-09-29T06:39:29Z</time>
      </trkpt>
      <trkpt lat="46.66337" lon="6.5346">
        <ele>455.2</ele>
        <time>2022-09-29T06:39:30Z</time>
      </trkpt>
      <trkpt lat="46.66341" lon="6.53465">
        <ele>455.1</ele>
        <time>2022-09-29T06:39:31Z</time>
      </trkpt>
      <trkpt lat="46.66346" lon="6.53471">
        <ele>455</ele>
        <time>2022-09-29T06:39:32Z</time>
      </trkpt>
      <trkpt lat="46.6635" lon="6.53476">
        <ele>454.9</ele>
        <time>2022-09-29T06:39:33Z</time>
      </trkpt>
      <trkpt lat="46.66355" lon="6.53482">
        <ele>454.8</ele>
        <time>2022-09-29T06:39:34Z</time>
      </trkpt>
      <trkpt lat="46.66361" lon="6.53488">
        <ele>454.7</ele>
        <time>2022-09-29T06:39:35Z</time>
      </trkpt>
      <trkpt lat="46.66365" lon="6.53493">
        <ele>454.6</ele>
        <time>2022-09-29T06:39:37Z</time>
      </trkpt>
      <trkpt lat="46.6637" lon="6.53498">
        <ele>454.5</ele>
        <time>2022-09-29T06:39:38Z</time>
      </trkpt>
      <trkpt lat="46.66375" lon="6.53505">
        <ele>454.4</ele>
        <time>2022-09-29T06:39:39Z</time>
      </trkpt>
      <trkpt lat="46.6638" lon="6.53511">
        <ele>454.3</ele>
        <time>2022-09-29T06:39:40Z</time>
      </trkpt>
      <trkpt lat="46.66385" lon="6.53516">
        <ele>454.2</ele>
        <time>2022-09-29T06:39:41Z</time>
      </trkpt>
      <trkpt lat="46.66391" lon="6.53522">
        <ele>454.1</ele>
        <time>2022-09-29T06:39:42Z</time>
      </trkpt>
      <trkpt lat="46.66395" lon="6.53528">
        <ele>454</ele>
        <time>2022-09-29T06:39:43Z</time>
      </trkpt>
      <trkpt lat="46.664" lon="6.53533">
        <ele>453.9</ele>
        <time>2022-09-29T06:39:44Z</time>
      </trkpt>
      <trkpt lat="46.66405" lon="6.53538">
        <ele>453.8</ele>
        <time>2022-09-29T06:39:45Z</time>
      </trkpt>
      <trkpt lat="46.6641" lon="6.53543">
        <ele>453.7</ele>
        <time>2022-09-29T06:39:46Z</time>
      </trkpt>
      <trkpt lat="46.66415" lon="6.53548">
        <ele>453.6</ele>
        <time>2022-09-29T06:39:47Z</time>
      </trkpt>
      <trkpt lat="46.6642" lon="6.53553">
        <ele>453.5</ele>
        <time>2022-09-29T06:39:48Z</time>
      </trkpt>
      <trkpt lat="46.66425" lon="6.53557">
        <ele>453.4</ele>
        <time>2022-09-29T06:39:49Z</time>
      </trkpt>
      <trkpt lat="46.66429" lon="6.53562">
        <ele>453.3</ele>
        <time>2022-09-29T06:39:50Z</time>
      </trkpt>
      <trkpt lat="46.66434" lon="6.53566">
        <ele>453.3</ele>
        <time>2022-09-29T06:39:51Z</time>
      </trkpt>
      <trkpt lat="46.66439" lon="6.5357">
        <ele>453.2</ele>
        <time>2022-09-29T06:39:52Z</time>
      </trkpt>
      <trkpt lat="46.66443" lon="6.53575">
        <ele>453.1</ele>
        <time>2022-09-29T06:39:53Z</time>
      </trkpt>
      <trkpt lat="46.66448" lon="6.5358">
        <ele>453</ele>
        <time>2022-09-29T06:39:54Z</time>
      </trkpt>
      <trkpt lat="46.66453" lon="6.53584">
        <ele>452.9</ele>
        <time>2022-09-29T06:39:55Z</time>
      </trkpt>
      <trkpt lat="46.66459" lon="6.53589">
        <ele>452.7</ele>
        <time>2022-09-29T06:39:56Z</time>
      </trkpt>
      <trkpt lat="46.66465" lon="6.53593">
        <ele>452.6</ele>
        <time>2022-09-29T06:39:57Z</time>
      </trkpt>
      <trkpt lat="46.6647" lon="6.53598">
        <ele>452.5</ele>
        <time>2022-09-29T06:39:58Z</time>
      </trkpt>
      <trkpt lat="46.66476" lon="6.53603">
        <ele>452.3</ele>
        <time>2022-09-29T06:39:59Z</time>
      </trkpt>
      <trkpt lat="46.66482" lon="6.53607">
        <ele>452.2</ele>
        <time>2022-09-29T06:40:00Z</time>
      </trkpt>
      <trkpt lat="46.66488" lon="6.53612">
        <ele>452</ele>
        <time>2022-09-29T06:40:01Z</time>
      </trkpt>
      <trkpt lat="46.66493" lon="6.53617">
        <ele>451.9</ele>
        <time>2022-09-29T06:40:02Z</time>
      </trkpt>
      <trkpt lat="46.66499" lon="6.53621">
        <ele>451.8</ele>
        <time>2022-09-29T06:40:03Z</time>
      </trkpt>
      <trkpt lat="46.66504" lon="6.53626">
        <ele>451.6</ele>
        <time>2022-09-29T06:40:04Z</time>
      </trkpt>
      <trkpt lat="46.6651" lon="6.53631">
        <ele>451.5</ele>
        <time>2022-09-29T06:40:05Z</time>
      </trkpt>
      <trkpt lat="46.66516" lon="6.53635">
        <ele>451.4</ele>
        <time>2022-09-29T06:40:06Z</time>
      </trkpt>
      <trkpt lat="46.66522" lon="6.53639">
        <ele>451.3</ele>
        <time>2022-09-29T06:40:07Z</time>
      </trkpt>
      <trkpt lat="46.66527" lon="6.53644">
        <ele>451.2</ele>
        <time>2022-09-29T06:40:08Z</time>
      </trkpt>
      <trkpt lat="46.66533" lon="6.53648">
        <ele>451</ele>
        <time>2022-09-29T06:40:09Z</time>
      </trkpt>
      <trkpt lat="46.66538" lon="6.53652">
        <ele>450.9</ele>
        <time>2022-09-29T06:40:10Z</time>
      </trkpt>
      <trkpt lat="46.66544" lon="6.53656">
        <ele>450.8</ele>
        <time>2022-09-29T06:40:11Z</time>
      </trkpt>
      <trkpt lat="46.66549" lon="6.53659">
        <ele>450.7</ele>
        <time>2022-09-29T06:40:12Z</time>
      </trkpt>
      <trkpt lat="46.66555" lon="6.53662">
        <ele>450.6</ele>
        <time>2022-09-29T06:40:13Z</time>
      </trkpt>
      <trkpt lat="46.6656" lon="6.53664">
        <ele>450.5</ele>
        <time>2022-09-29T06:40:14Z</time>
      </trkpt>
      <trkpt lat="46.66566" lon="6.53666">
        <ele>450.4</ele>
        <time>2022-09-29T06:40:15Z</time>
      </trkpt>
      <trkpt lat="46.66571" lon="6.53668">
        <ele>450.2</ele>
        <time>2022-09-29T06:40:16Z</time>
      </trkpt>
      <trkpt lat="46.66577" lon="6.53671">
        <ele>450.1</ele>
        <time>2022-09-29T06:40:17Z</time>
      </trkpt>
      <trkpt lat="46.66582" lon="6.53673">
        <ele>450</ele>
        <time>2022-09-29T06:40:18Z</time>
      </trkpt>
      <trkpt lat="46.66588" lon="6.53675">
        <ele>449.9</ele>
        <time>2022-09-29T06:40:19Z</time>
      </trkpt>
      <trkpt lat="46.66594" lon="6.53676">
        <ele>449.8</ele>
        <time>2022-09-29T06:40:20Z</time>
      </trkpt>
      <trkpt lat="46.666" lon="6.53678">
        <ele>449.7</ele>
        <time>2022-09-29T06:40:21Z</time>
      </trkpt>
      <trkpt lat="46.66605" lon="6.5368">
        <ele>449.6</ele>
        <time>2022-09-29T06:40:22Z</time>
      </trkpt>
      <trkpt lat="46.66611" lon="6.53681">
        <ele>449.5</ele>
        <time>2022-09-29T06:40:23Z</time>
      </trkpt>
      <trkpt lat="46.66616" lon="6.53683">
        <ele>449.4</ele>
        <time>2022-09-29T06:40:24Z</time>
      </trkpt>
      <trkpt lat="46.6662" lon="6.53685">
        <ele>449.3</ele>
        <time>2022-09-29T06:40:25Z</time>
      </trkpt>
      <trkpt lat="46.66625" lon="6.53689">
        <ele>449.2</ele>
        <time>2022-09-29T06:40:26Z</time>
      </trkpt>
      <trkpt lat="46.66629" lon="6.53691">
        <ele>449.1</ele>
        <time>2022-09-29T06:40:27Z</time>
      </trkpt>
      <trkpt lat="46.66635" lon="6.53694">
        <ele>449</ele>
        <time>2022-09-29T06:40:28Z</time>
      </trkpt>
      <trkpt lat="46.6664" lon="6.53697">
        <ele>448.9</ele>
        <time>2022-09-29T06:40:29Z</time>
      </trkpt>
      <trkpt lat="46.66646" lon="6.537">
        <ele>448.8</ele>
        <time>2022-09-29T06:40:30Z</time>
      </trkpt>
      <trkpt lat="46.66651" lon="6.53702">
        <ele>448.6</ele>
        <time>2022-09-29T06:40:31Z</time>
      </trkpt>
      <trkpt lat="46.66656" lon="6.53705">
        <ele>448.5</ele>
        <time>2022-09-29T06:40:32Z</time>
      </trkpt>
      <trkpt lat="46.66661" lon="6.53708">
        <ele>448.4</ele>
        <time>2022-09-29T06:40:33Z</time>
      </trkpt>
      <trkpt lat="46.66667" lon="6.53711">
        <ele>448.3</ele>
        <time>2022-09-29T06:40:34Z</time>
      </trkpt>
      <trkpt lat="46.66672" lon="6.53714">
        <ele>448.2</ele>
        <time>2022-09-29T06:40:35Z</time>
      </trkpt>
      <trkpt lat="46.66678" lon="6.53717">
        <ele>448</ele>
        <time>2022-09-29T06:40:36Z</time>
      </trkpt>
      <trkpt lat="46.66683" lon="6.5372">
        <ele>447.9</ele>
        <time>2022-09-29T06:40:37Z</time>
      </trkpt>
      <trkpt lat="46.66689" lon="6.53723">
        <ele>447.8</ele>
        <time>2022-09-29T06:40:38Z</time>
      </trkpt>
      <trkpt lat="46.66695" lon="6.53727">
        <ele>447.7</ele>
        <time>2022-09-29T06:40:39Z</time>
      </trkpt>
      <trkpt lat="46.66701" lon="6.5373">
        <ele>447.6</ele>
        <time>2022-09-29T06:40:40Z</time>
      </trkpt>
      <trkpt lat="46.66707" lon="6.53733">
        <ele>447.5</ele>
        <time>2022-09-29T06:40:41Z</time>
      </trkpt>
      <trkpt lat="46.66713" lon="6.53736">
        <ele>447.3</ele>
        <time>2022-09-29T06:40:42Z</time>
      </trkpt>
      <trkpt lat="46.66719" lon="6.53738">
        <ele>447.2</ele>
        <time>2022-09-29T06:40:43Z</time>
      </trkpt>
      <trkpt lat="46.66725" lon="6.53741">
        <ele>447.1</ele>
        <time>2022-09-29T06:40:44Z</time>
      </trkpt>
      <trkpt lat="46.66731" lon="6.53744">
        <ele>447</ele>
        <time>2022-09-29T06:40:45Z</time>
      </trkpt>
      <trkpt lat="46.66737" lon="6.53747">
        <ele>446.9</ele>
        <time>2022-09-29T06:40:46Z</time>
      </trkpt>
      <trkpt lat="46.66743" lon="6.53749">
        <ele>446.8</ele>
        <time>2022-09-29T06:40:47Z</time>
      </trkpt>
      <trkpt lat="46.66749" lon="6.53752">
        <ele>446.7</ele>
        <time>2022-09-29T06:40:48Z</time>
      </trkpt>
      <trkpt lat="46.66756" lon="6.53755">
        <ele>446.6</ele>
        <time>2022-09-29T06:40:49Z</time>
      </trkpt>
      <trkpt lat="46.66761" lon="6.53757">
        <ele>446.5</ele>
        <time>2022-09-29T06:40:50Z</time>
      </trkpt>
      <trkpt lat="46.66767" lon="6.53759">
        <ele>446.5</ele>
        <time>2022-09-29T06:40:51Z</time>
      </trkpt>
      <trkpt lat="46.66777" lon="6.53764">
        <ele>446.4</ele>
        <time>2022-09-29T06:40:52Z</time>
      </trkpt>
      <trkpt lat="46.66782" lon="6.53767">
        <ele>446.4</ele>
        <time>2022-09-29T06:40:53Z</time>
      </trkpt>
      <trkpt lat="46.66786" lon="6.53769">
        <ele>446.4</ele>
        <time>2022-09-29T06:40:54Z</time>
      </trkpt>
      <trkpt lat="46.66791" lon="6.53771">
        <ele>446.4</ele>
        <time>2022-09-29T06:40:55Z</time>
      </trkpt>
      <trkpt lat="46.66795" lon="6.53773">
        <ele>446.4</ele>
        <time>2022-09-29T06:40:56Z</time>
      </trkpt>
      <trkpt lat="46.66799" lon="6.53775">
        <ele>446.5</ele>
        <time>2022-09-29T06:40:57Z</time>
      </trkpt>
      <trkpt lat="46.66803" lon="6.53777">
        <ele>446.5</ele>
        <time>2022-09-29T06:40:58Z</time>
      </trkpt>
      <trkpt lat="46.66807" lon="6.53779">
        <ele>446.6</ele>
        <time>2022-09-29T06:40:59Z</time>
      </trkpt>
      <trkpt lat="46.66811" lon="6.5378">
        <ele>446.6</ele>
        <time>2022-09-29T06:41:00Z</time>
      </trkpt>
      <trkpt lat="46.66815" lon="6.53782">
        <ele>446.7</ele>
        <time>2022-09-29T06:41:01Z</time>
      </trkpt>
      <trkpt lat="46.66818" lon="6.53782">
        <ele>446.7</ele>
        <time>2022-09-29T06:41:02Z</time>
      </trkpt>
      <trkpt lat="46.66821" lon="6.53784">
        <ele>446.8</ele>
        <time>2022-09-29T06:41:03Z</time>
      </trkpt>
      <trkpt lat="46.66823" lon="6.53787">
        <ele>446.8</ele>
        <time>2022-09-29T06:41:04Z</time>
      </trkpt>
      <trkpt lat="46.66824" lon="6.53788">
        <ele>446.8</ele>
        <time>2022-09-29T06:41:05Z</time>
      </trkpt>
      <trkpt lat="46.66824" lon="6.5379">
        <ele>446.7</ele>
        <time>2022-09-29T06:41:06Z</time>
      </trkpt>
      <trkpt lat="46.66824" lon="6.53793">
        <ele>446.7</ele>
        <time>2022-09-29T06:41:07Z</time>
      </trkpt>
      <trkpt lat="46.66824" lon="6.53799">
        <ele>446.6</ele>
        <time>2022-09-29T06:41:08Z</time>
      </trkpt>
      <trkpt lat="46.66823" lon="6.53804">
        <ele>446.5</ele>
        <time>2022-09-29T06:41:09Z</time>
      </trkpt>
      <trkpt lat="46.66822" lon="6.5381">
        <ele>446.4</ele>
        <time>2022-09-29T06:41:10Z</time>
      </trkpt>
      <trkpt lat="46.66822" lon="6.53817">
        <ele>446.2</ele>
        <time>2022-09-29T06:41:11Z</time>
      </trkpt>
      <trkpt lat="46.66821" lon="6.53824">
        <ele>446.1</ele>
        <time>2022-09-29T06:41:12Z</time>
      </trkpt>
      <trkpt lat="46.6682" lon="6.53832">
        <ele>446</ele>
        <time>2022-09-29T06:41:13Z</time>
      </trkpt>
      <trkpt lat="46.66819" lon="6.53839">
        <ele>445.9</ele>
        <time>2022-09-29T06:41:14Z</time>
      </trkpt>
      <trkpt lat="46.66818" lon="6.53846">
        <ele>445.9</ele>
        <time>2022-09-29T06:41:15Z</time>
      </trkpt>
      <trkpt lat="46.66817" lon="6.53854">
        <ele>445.8</ele>
        <time>2022-09-29T06:41:16Z</time>
      </trkpt>
      <trkpt lat="46.66816" lon="6.53862">
        <ele>445.7</ele>
        <time>2022-09-29T06:41:17Z</time>
      </trkpt>
      <trkpt lat="46.66815" lon="6.53869">
        <ele>445.7</ele>
        <time>2022-09-29T06:41:18Z</time>
      </trkpt>
      <trkpt lat="46.66814" lon="6.53877">
        <ele>445.7</ele>
        <time>2022-09-29T06:41:19Z</time>
      </trkpt>
      <trkpt lat="46.66813" lon="6.53884">
        <ele>445.6</ele>
        <time>2022-09-29T06:41:20Z</time>
      </trkpt>
      <trkpt lat="46.66812" lon="6.53892">
        <ele>445.6</ele>
        <time>2022-09-29T06:41:21Z</time>
      </trkpt>
      <trkpt lat="46.66811" lon="6.539">
        <ele>445.6</ele>
        <time>2022-09-29T06:41:22Z</time>
      </trkpt>
      <trkpt lat="46.6681" lon="6.53907">
        <ele>445.6</ele>
        <time>2022-09-29T06:41:23Z</time>
      </trkpt>
      <trkpt lat="46.66809" lon="6.53915">
        <ele>445.6</ele>
        <time>2022-09-29T06:41:24Z</time>
      </trkpt>
      <trkpt lat="46.66808" lon="6.53922">
        <ele>445.6</ele>
        <time>2022-09-29T06:41:25Z</time>
      </trkpt>
      <trkpt lat="46.66808" lon="6.5393">
        <ele>445.6</ele>
        <time>2022-09-29T06:41:26Z</time>
      </trkpt>
      <trkpt lat="46.66806" lon="6.53938">
        <ele>445.5</ele>
        <time>2022-09-29T06:41:27Z</time>
      </trkpt>
      <trkpt lat="46.66805" lon="6.53946">
        <ele>445.5</ele>
        <time>2022-09-29T06:41:28Z</time>
      </trkpt>
      <trkpt lat="46.66804" lon="6.53953">
        <ele>445.5</ele>
        <time>2022-09-29T06:41:29Z</time>
      </trkpt>
      <trkpt lat="46.66804" lon="6.53961">
        <ele>445.5</ele>
        <time>2022-09-29T06:41:30Z</time>
      </trkpt>
      <trkpt lat="46.66803" lon="6.53969">
        <ele>445.5</ele>
        <time>2022-09-29T06:41:31Z</time>
      </trkpt>
      <trkpt lat="46.66802" lon="6.53977">
        <ele>445.5</ele>
        <time>2022-09-29T06:41:32Z</time>
      </trkpt>
      <trkpt lat="46.668" lon="6.53985">
        <ele>445.5</ele>
        <time>2022-09-29T06:41:33Z</time>
      </trkpt>
      <trkpt lat="46.668" lon="6.53993">
        <ele>445.5</ele>
        <time>2022-09-29T06:41:34Z</time>
      </trkpt>
      <trkpt lat="46.66799" lon="6.54">
        <ele>445.6</ele>
        <time>2022-09-29T06:41:35Z</time>
      </trkpt>
      <trkpt lat="46.66798" lon="6.54008">
        <ele>445.6</ele>
        <time>2022-09-29T06:41:36Z</time>
      </trkpt>
      <trkpt lat="46.66797" lon="6.54016">
        <ele>445.6</ele>
        <time>2022-09-29T06:41:37Z</time>
      </trkpt>
      <trkpt lat="46.66795" lon="6.54024">
        <ele>445.6</ele>
        <time>2022-09-29T06:41:38Z</time>
      </trkpt>
      <trkpt lat="46.66795" lon="6.54032">
        <ele>445.6</ele>
        <time>2022-09-29T06:41:39Z</time>
      </trkpt>
      <trkpt lat="46.66794" lon="6.5404">
        <ele>445.6</ele>
        <time>2022-09-29T06:41:40Z</time>
      </trkpt>
      <trkpt lat="46.66792" lon="6.54047">
        <ele>445.6</ele>
        <time>2022-09-29T06:41:41Z</time>
      </trkpt>
      <trkpt lat="46.66792" lon="6.54055">
        <ele>445.6</ele>
        <time>2022-09-29T06:41:43Z</time>
      </trkpt>
      <trkpt lat="46.66791" lon="6.54063">
        <ele>445.6</ele>
        <time>2022-09-29T06:41:44Z</time>
      </trkpt>
      <trkpt lat="46.6679" lon="6.5407">
        <ele>445.7</ele>
        <time>2022-09-29T06:41:45Z</time>
      </trkpt>
      <trkpt lat="46.66789" lon="6.54077">
        <ele>445.7</ele>
        <time>2022-09-29T06:41:46Z</time>
      </trkpt>
      <trkpt lat="46.66788" lon="6.54085">
        <ele>445.7</ele>
        <time>2022-09-29T06:41:47Z</time>
      </trkpt>
      <trkpt lat="46.66787" lon="6.54092">
        <ele>445.7</ele>
        <time>2022-09-29T06:41:48Z</time>
      </trkpt>
      <trkpt lat="46.66785" lon="6.541">
        <ele>445.7</ele>
        <time>2022-09-29T06:41:49Z</time>
      </trkpt>
      <trkpt lat="46.66783" lon="6.54106">
        <ele>445.7</ele>
        <time>2022-09-29T06:41:50Z</time>
      </trkpt>
      <trkpt lat="46.66781" lon="6.54113">
        <ele>445.8</ele>
        <time>2022-09-29T06:41:51Z</time>
      </trkpt>
      <trkpt lat="46.66778" lon="6.54119">
        <ele>445.8</ele>
        <time>2022-09-29T06:41:52Z</time>
      </trkpt>
      <trkpt lat="46.66774" lon="6.54125">
        <ele>445.8</ele>
        <time>2022-09-29T06:41:53Z</time>
      </trkpt>
      <trkpt lat="46.6677" lon="6.5413">
        <ele>445.9</ele>
        <time>2022-09-29T06:41:54Z</time>
      </trkpt>
      <trkpt lat="46.66767" lon="6.54135">
        <ele>445.9</ele>
        <time>2022-09-29T06:41:55Z</time>
      </trkpt>
      <trkpt lat="46.66762" lon="6.54139">
        <ele>445.9</ele>
        <time>2022-09-29T06:41:56Z</time>
      </trkpt>
      <trkpt lat="46.66758" lon="6.54144">
        <ele>445.9</ele>
        <time>2022-09-29T06:41:57Z</time>
      </trkpt>
      <trkpt lat="46.66754" lon="6.54148">
        <ele>445.9</ele>
        <time>2022-09-29T06:41:58Z</time>
      </trkpt>
      <trkpt lat="46.6675" lon="6.54153">
        <ele>445.9</ele>
        <time>2022-09-29T06:41:59Z</time>
      </trkpt>
      <trkpt lat="46.66745" lon="6.54157">
        <ele>445.9</ele>
        <time>2022-09-29T06:42:00Z</time>
      </trkpt>
      <trkpt lat="46.66741" lon="6.54161">
        <ele>445.9</ele>
        <time>2022-09-29T06:42:01Z</time>
      </trkpt>
      <trkpt lat="46.66737" lon="6.54166">
        <ele>445.9</ele>
        <time>2022-09-29T06:42:02Z</time>
      </trkpt>
      <trkpt lat="46.66732" lon="6.54171">
        <ele>446</ele>
        <time>2022-09-29T06:42:03Z</time>
      </trkpt>
      <trkpt lat="46.66728" lon="6.54175">
        <ele>446</ele>
        <time>2022-09-29T06:42:04Z</time>
      </trkpt>
      <trkpt lat="46.66724" lon="6.5418">
        <ele>446</ele>
        <time>2022-09-29T06:42:05Z</time>
      </trkpt>
      <trkpt lat="46.66719" lon="6.54185">
        <ele>446</ele>
        <time>2022-09-29T06:42:06Z</time>
      </trkpt>
      <trkpt lat="46.66715" lon="6.5419">
        <ele>446</ele>
        <time>2022-09-29T06:42:07Z</time>
      </trkpt>
      <trkpt lat="46.66711" lon="6.54194">
        <ele>446.1</ele>
        <time>2022-09-29T06:42:08Z</time>
      </trkpt>
      <trkpt lat="46.66707" lon="6.54198">
        <ele>446.1</ele>
        <time>2022-09-29T06:42:09Z</time>
      </trkpt>
      <trkpt lat="46.66703" lon="6.54203">
        <ele>446.1</ele>
        <time>2022-09-29T06:42:10Z</time>
      </trkpt>
      <trkpt lat="46.66699" lon="6.54207">
        <ele>446.2</ele>
        <time>2022-09-29T06:42:11Z</time>
      </trkpt>
      <trkpt lat="46.66695" lon="6.54212">
        <ele>446.2</ele>
        <time>2022-09-29T06:42:12Z</time>
      </trkpt>
      <trkpt lat="46.6669" lon="6.54216">
        <ele>446.2</ele>
        <time>2022-09-29T06:42:13Z</time>
      </trkpt>
      <trkpt lat="46.66686" lon="6.54221">
        <ele>446.2</ele>
        <time>2022-09-29T06:42:14Z</time>
      </trkpt>
      <trkpt lat="46.66682" lon="6.54226">
        <ele>446.3</ele>
        <time>2022-09-29T06:42:15Z</time>
      </trkpt>
      <trkpt lat="46.66677" lon="6.5423">
        <ele>446.3</ele>
        <time>2022-09-29T06:42:16Z</time>
      </trkpt>
      <trkpt lat="46.66673" lon="6.54235">
        <ele>446.3</ele>
        <time>2022-09-29T06:42:17Z</time>
      </trkpt>
      <trkpt lat="46.66669" lon="6.5424">
        <ele>446.3</ele>
        <time>2022-09-29T06:42:18Z</time>
      </trkpt>
      <trkpt lat="46.66665" lon="6.54244">
        <ele>446.3</ele>
        <time>2022-09-29T06:42:19Z</time>
      </trkpt>
      <trkpt lat="46.66661" lon="6.54249">
        <ele>446.3</ele>
        <time>2022-09-29T06:42:20Z</time>
      </trkpt>
      <trkpt lat="46.66657" lon="6.54254">
        <ele>446.3</ele>
        <time>2022-09-29T06:42:21Z</time>
      </trkpt>
      <trkpt lat="46.66652" lon="6.54259">
        <ele>446.3</ele>
        <time>2022-09-29T06:42:22Z</time>
      </trkpt>
      <trkpt lat="46.66648" lon="6.54263">
        <ele>446.3</ele>
        <time>2022-09-29T06:42:23Z</time>
      </trkpt>
      <trkpt lat="46.66644" lon="6.54267">
        <ele>446.3</ele>
        <time>2022-09-29T06:42:24Z</time>
      </trkpt>
      <trkpt lat="46.6664" lon="6.54272">
        <ele>446.3</ele>
        <time>2022-09-29T06:42:25Z</time>
      </trkpt>
      <trkpt lat="46.66636" lon="6.54276">
        <ele>446.3</ele>
        <time>2022-09-29T06:42:26Z</time>
      </trkpt>
      <trkpt lat="46.66631" lon="6.54281">
        <ele>446.3</ele>
        <time>2022-09-29T06:42:27Z</time>
      </trkpt>
      <trkpt lat="46.66627" lon="6.54285">
        <ele>446.3</ele>
        <time>2022-09-29T06:42:28Z</time>
      </trkpt>
      <trkpt lat="46.66623" lon="6.5429">
        <ele>446.4</ele>
        <time>2022-09-29T06:42:29Z</time>
      </trkpt>
      <trkpt lat="46.66618" lon="6.54294">
        <ele>446.4</ele>
        <time>2022-09-29T06:42:30Z</time>
      </trkpt>
      <trkpt lat="46.66614" lon="6.54299">
        <ele>446.4</ele>
        <time>2022-09-29T06:42:31Z</time>
      </trkpt>
      <trkpt lat="46.66609" lon="6.54304">
        <ele>446.4</ele>
        <time>2022-09-29T06:42:32Z</time>
      </trkpt>
      <trkpt lat="46.66605" lon="6.54308">
        <ele>446.4</ele>
        <time>2022-09-29T06:42:33Z</time>
      </trkpt>
      <trkpt lat="46.66601" lon="6.54313">
        <ele>446.4</ele>
        <time>2022-09-29T06:42:34Z</time>
      </trkpt>
      <trkpt lat="46.66597" lon="6.54318">
        <ele>446.4</ele>
        <time>2022-09-29T06:42:35Z</time>
      </trkpt>
      <trkpt lat="46.66593" lon="6.54323">
        <ele>446.4</ele>
        <time>2022-09-29T06:42:36Z</time>
      </trkpt>
      <trkpt lat="46.66588" lon="6.54327">
        <ele>446.4</ele>
        <time>2022-09-29T06:42:37Z</time>
      </trkpt>
      <trkpt lat="46.66584" lon="6.54332">
        <ele>446.4</ele>
        <time>2022-09-29T06:42:38Z</time>
      </trkpt>
      <trkpt lat="46.66579" lon="6.54336">
        <ele>446.4</ele>
        <time>2022-09-29T06:42:39Z</time>
      </trkpt>
      <trkpt lat="46.66575" lon="6.54341">
        <ele>446.4</ele>
        <time>2022-09-29T06:42:40Z</time>
      </trkpt>
      <trkpt lat="46.6657" lon="6.54346">
        <ele>446.4</ele>
        <time>2022-09-29T06:42:41Z</time>
      </trkpt>
      <trkpt lat="46.66566" lon="6.5435">
        <ele>446.3</ele>
        <time>2022-09-29T06:42:42Z</time>
      </trkpt>
      <trkpt lat="46.66561" lon="6.54355">
        <ele>446.3</ele>
        <time>2022-09-29T06:42:43Z</time>
      </trkpt>
      <trkpt lat="46.66557" lon="6.5436">
        <ele>446.3</ele>
        <time>2022-09-29T06:42:44Z</time>
      </trkpt>
      <trkpt lat="46.66547" lon="6.5437">
        <ele>446.2</ele>
        <time>2022-09-29T06:42:45Z</time>
      </trkpt>
      <trkpt lat="46.66543" lon="6.54374">
        <ele>446.1</ele>
        <time>2022-09-29T06:42:46Z</time>
      </trkpt>
      <trkpt lat="46.66539" lon="6.54379">
        <ele>446.1</ele>
        <time>2022-09-29T06:42:47Z</time>
      </trkpt>
      <trkpt lat="46.66534" lon="6.54384">
        <ele>446</ele>
        <time>2022-09-29T06:42:48Z</time>
      </trkpt>
      <trkpt lat="46.6653" lon="6.54389">
        <ele>445.9</ele>
        <time>2022-09-29T06:42:49Z</time>
      </trkpt>
      <trkpt lat="46.66525" lon="6.54394">
        <ele>445.9</ele>
        <time>2022-09-29T06:42:50Z</time>
      </trkpt>
      <trkpt lat="46.66521" lon="6.54399">
        <ele>445.8</ele>
        <time>2022-09-29T06:42:51Z</time>
      </trkpt>
      <trkpt lat="46.66516" lon="6.54403">
        <ele>445.7</ele>
        <time>2022-09-29T06:42:52Z</time>
      </trkpt>
      <trkpt lat="46.66511" lon="6.54408">
        <ele>445.7</ele>
        <time>2022-09-29T06:42:53Z</time>
      </trkpt>
      <trkpt lat="46.66506" lon="6.54413">
        <ele>445.6</ele>
        <time>2022-09-29T06:42:54Z</time>
      </trkpt>
      <trkpt lat="46.66502" lon="6.54418">
        <ele>445.5</ele>
        <time>2022-09-29T06:42:55Z</time>
      </trkpt>
      <trkpt lat="46.66497" lon="6.54423">
        <ele>445.5</ele>
        <time>2022-09-29T06:42:56Z</time>
      </trkpt>
      <trkpt lat="46.66492" lon="6.54428">
        <ele>445.4</ele>
        <time>2022-09-29T06:42:57Z</time>
      </trkpt>
      <trkpt lat="46.66488" lon="6.54433">
        <ele>445.4</ele>
        <time>2022-09-29T06:42:58Z</time>
      </trkpt>
      <trkpt lat="46.66484" lon="6.54438">
        <ele>445.3</ele>
        <time>2022-09-29T06:42:59Z</time>
      </trkpt>
      <trkpt lat="46.66479" lon="6.54442">
        <ele>445.3</ele>
        <time>2022-09-29T06:43:00Z</time>
      </trkpt>
      <trkpt lat="46.66475" lon="6.54447">
        <ele>445.2</ele>
        <time>2022-09-29T06:43:01Z</time>
      </trkpt>
      <trkpt lat="46.66471" lon="6.54452">
        <ele>445.2</ele>
        <time>2022-09-29T06:43:02Z</time>
      </trkpt>
      <trkpt lat="46.66466" lon="6.54457">
        <ele>445.2</ele>
        <time>2022-09-29T06:43:03Z</time>
      </trkpt>
      <trkpt lat="46.66462" lon="6.54461">
        <ele>445.1</ele>
        <time>2022-09-29T06:43:04Z</time>
      </trkpt>
      <trkpt lat="46.66457" lon="6.54466">
        <ele>445.1</ele>
        <time>2022-09-29T06:43:05Z</time>
      </trkpt>
      <trkpt lat="46.66452" lon="6.54471">
        <ele>445.1</ele>
        <time>2022-09-29T06:43:06Z</time>
      </trkpt>
      <trkpt lat="46.66448" lon="6.54476">
        <ele>445</ele>
        <time>2022-09-29T06:43:07Z</time>
      </trkpt>
      <trkpt lat="46.66443" lon="6.54481">
        <ele>445</ele>
        <time>2022-09-29T06:43:08Z</time>
      </trkpt>
      <trkpt lat="46.66438" lon="6.54486">
        <ele>445</ele>
        <time>2022-09-29T06:43:09Z</time>
      </trkpt>
      <trkpt lat="46.66433" lon="6.54491">
        <ele>444.9</ele>
        <time>2022-09-29T06:43:10Z</time>
      </trkpt>
      <trkpt lat="46.66428" lon="6.54496">
        <ele>444.9</ele>
        <time>2022-09-29T06:43:11Z</time>
      </trkpt>
      <trkpt lat="46.66423" lon="6.54501">
        <ele>444.9</ele>
        <time>2022-09-29T06:43:12Z</time>
      </trkpt>
      <trkpt lat="46.66418" lon="6.54506">
        <ele>444.8</ele>
        <time>2022-09-29T06:43:13Z</time>
      </trkpt>
      <trkpt lat="46.66413" lon="6.54511">
        <ele>444.8</ele>
        <time>2022-09-29T06:43:14Z</time>
      </trkpt>
      <trkpt lat="46.66408" lon="6.54517">
        <ele>444.8</ele>
        <time>2022-09-29T06:43:15Z</time>
      </trkpt>
      <trkpt lat="46.66403" lon="6.54522">
        <ele>444.8</ele>
        <time>2022-09-29T06:43:16Z</time>
      </trkpt>
      <trkpt lat="46.66398" lon="6.54527">
        <ele>444.7</ele>
        <time>2022-09-29T06:43:17Z</time>
      </trkpt>
      <trkpt lat="46.66394" lon="6.54532">
        <ele>444.7</ele>
        <time>2022-09-29T06:43:18Z</time>
      </trkpt>
      <trkpt lat="46.66389" lon="6.54536">
        <ele>444.7</ele>
        <time>2022-09-29T06:43:19Z</time>
      </trkpt>
      <trkpt lat="46.66384" lon="6.54541">
        <ele>444.7</ele>
        <time>2022-09-29T06:43:20Z</time>
      </trkpt>
      <trkpt lat="46.66379" lon="6.54546">
        <ele>444.7</ele>
        <time>2022-09-29T06:43:21Z</time>
      </trkpt>
      <trkpt lat="46.66374" lon="6.54551">
        <ele>444.7</ele>
        <time>2022-09-29T06:43:22Z</time>
      </trkpt>
      <trkpt lat="46.6637" lon="6.54555">
        <ele>444.7</ele>
        <time>2022-09-29T06:43:23Z</time>
      </trkpt>
      <trkpt lat="46.66365" lon="6.54559">
        <ele>444.7</ele>
        <time>2022-09-29T06:43:24Z</time>
      </trkpt>
      <trkpt lat="46.66361" lon="6.54564">
        <ele>444.7</ele>
        <time>2022-09-29T06:43:25Z</time>
      </trkpt>
      <trkpt lat="46.66356" lon="6.54568">
        <ele>444.7</ele>
        <time>2022-09-29T06:43:26Z</time>
      </trkpt>
      <trkpt lat="46.66353" lon="6.54573">
        <ele>444.7</ele>
        <time>2022-09-29T06:43:27Z</time>
      </trkpt>
      <trkpt lat="46.6635" lon="6.54578">
        <ele>444.7</ele>
        <time>2022-09-29T06:43:28Z</time>
      </trkpt>
      <trkpt lat="46.66347" lon="6.54584">
        <ele>444.7</ele>
        <time>2022-09-29T06:43:29Z</time>
      </trkpt>
      <trkpt lat="46.66345" lon="6.5459">
        <ele>444.7</ele>
        <time>2022-09-29T06:43:30Z</time>
      </trkpt>
      <trkpt lat="46.66344" lon="6.54595">
        <ele>444.6</ele>
        <time>2022-09-29T06:43:31Z</time>
      </trkpt>
      <trkpt lat="46.66344" lon="6.54601">
        <ele>444.6</ele>
        <time>2022-09-29T06:43:32Z</time>
      </trkpt>
      <trkpt lat="46.66342" lon="6.54606">
        <ele>444.6</ele>
        <time>2022-09-29T06:43:33Z</time>
      </trkpt>
      <trkpt lat="46.66342" lon="6.54612">
        <ele>444.6</ele>
        <time>2022-09-29T06:43:34Z</time>
      </trkpt>
      <trkpt lat="46.66342" lon="6.54619">
        <ele>444.6</ele>
        <time>2022-09-29T06:43:35Z</time>
      </trkpt>
      <trkpt lat="46.66341" lon="6.54626">
        <ele>444.5</ele>
        <time>2022-09-29T06:43:36Z</time>
      </trkpt>
      <trkpt lat="46.66341" lon="6.54633">
        <ele>444.5</ele>
        <time>2022-09-29T06:43:37Z</time>
      </trkpt>
      <trkpt lat="46.66342" lon="6.54639">
        <ele>444.5</ele>
        <time>2022-09-29T06:43:38Z</time>
      </trkpt>
      <trkpt lat="46.66342" lon="6.54646">
        <ele>444.5</ele>
        <time>2022-09-29T06:43:39Z</time>
      </trkpt>
      <trkpt lat="46.66344" lon="6.54652">
        <ele>444.5</ele>
        <time>2022-09-29T06:43:40Z</time>
      </trkpt>
      <trkpt lat="46.66346" lon="6.54659">
        <ele>444.5</ele>
        <time>2022-09-29T06:43:41Z</time>
      </trkpt>
      <trkpt lat="46.66349" lon="6.54665">
        <ele>444.5</ele>
        <time>2022-09-29T06:43:42Z</time>
      </trkpt>
      <trkpt lat="46.66351" lon="6.5467">
        <ele>444.5</ele>
        <time>2022-09-29T06:43:43Z</time>
      </trkpt>
      <trkpt lat="46.66355" lon="6.54676">
        <ele>444.5</ele>
        <time>2022-09-29T06:43:44Z</time>
      </trkpt>
      <trkpt lat="46.66358" lon="6.54681">
        <ele>444.5</ele>
        <time>2022-09-29T06:43:45Z</time>
      </trkpt>
      <trkpt lat="46.66361" lon="6.54687">
        <ele>444.5</ele>
        <time>2022-09-29T06:43:46Z</time>
      </trkpt>
      <trkpt lat="46.66364" lon="6.54694">
        <ele>444.5</ele>
        <time>2022-09-29T06:43:47Z</time>
      </trkpt>
      <trkpt lat="46.66367" lon="6.54699">
        <ele>444.5</ele>
        <time>2022-09-29T06:43:48Z</time>
      </trkpt>
      <trkpt lat="46.66371" lon="6.54705">
        <ele>444.5</ele>
        <time>2022-09-29T06:43:49Z</time>
      </trkpt>
      <trkpt lat="46.66374" lon="6.5471">
        <ele>444.5</ele>
        <time>2022-09-29T06:43:50Z</time>
      </trkpt>
      <trkpt lat="46.66378" lon="6.54715">
        <ele>444.5</ele>
        <time>2022-09-29T06:43:51Z</time>
      </trkpt>
      <trkpt lat="46.66381" lon="6.54721">
        <ele>444.5</ele>
        <time>2022-09-29T06:43:52Z</time>
      </trkpt>
      <trkpt lat="46.66384" lon="6.54727">
        <ele>444.5</ele>
        <time>2022-09-29T06:43:53Z</time>
      </trkpt>
      <trkpt lat="46.66387" lon="6.54733">
        <ele>444.5</ele>
        <time>2022-09-29T06:43:54Z</time>
      </trkpt>
      <trkpt lat="46.66391" lon="6.54738">
        <ele>444.5</ele>
        <time>2022-09-29T06:43:55Z</time>
      </trkpt>
      <trkpt lat="46.66394" lon="6.54744">
        <ele>444.5</ele>
        <time>2022-09-29T06:43:56Z</time>
      </trkpt>
      <trkpt lat="46.66397" lon="6.54751">
        <ele>444.5</ele>
        <time>2022-09-29T06:43:57Z</time>
      </trkpt>
      <trkpt lat="46.664" lon="6.54757">
        <ele>444.5</ele>
        <time>2022-09-29T06:43:58Z</time>
      </trkpt>
      <trkpt lat="46.66403" lon="6.54764">
        <ele>444.5</ele>
        <time>2022-09-29T06:43:59Z</time>
      </trkpt>
      <trkpt lat="46.66407" lon="6.5477">
        <ele>444.5</ele>
        <time>2022-09-29T06:44:00Z</time>
      </trkpt>
      <trkpt lat="46.6641" lon="6.54777">
        <ele>444.5</ele>
        <time>2022-09-29T06:44:01Z</time>
      </trkpt>
      <trkpt lat="46.66413" lon="6.54784">
        <ele>444.5</ele>
        <time>2022-09-29T06:44:02Z</time>
      </trkpt>
      <trkpt lat="46.66416" lon="6.5479">
        <ele>444.6</ele>
        <time>2022-09-29T06:44:03Z</time>
      </trkpt>
      <trkpt lat="46.66419" lon="6.54796">
        <ele>444.6</ele>
        <time>2022-09-29T06:44:04Z</time>
      </trkpt>
      <trkpt lat="46.66422" lon="6.54802">
        <ele>444.6</ele>
        <time>2022-09-29T06:44:05Z</time>
      </trkpt>
      <trkpt lat="46.66425" lon="6.54807">
        <ele>444.6</ele>
        <time>2022-09-29T06:44:06Z</time>
      </trkpt>
      <trkpt lat="46.66429" lon="6.54813">
        <ele>444.6</ele>
        <time>2022-09-29T06:44:07Z</time>
      </trkpt>
      <trkpt lat="46.66432" lon="6.54819">
        <ele>444.6</ele>
        <time>2022-09-29T06:44:08Z</time>
      </trkpt>
      <trkpt lat="46.66435" lon="6.54825">
        <ele>444.6</ele>
        <time>2022-09-29T06:44:09Z</time>
      </trkpt>
      <trkpt lat="46.66438" lon="6.5483">
        <ele>444.6</ele>
        <time>2022-09-29T06:44:10Z</time>
      </trkpt>
      <trkpt lat="46.66442" lon="6.54835">
        <ele>444.6</ele>
        <time>2022-09-29T06:44:11Z</time>
      </trkpt>
      <trkpt lat="46.66445" lon="6.54841">
        <ele>444.7</ele>
        <time>2022-09-29T06:44:12Z</time>
      </trkpt>
      <trkpt lat="46.66449" lon="6.54846">
        <ele>444.7</ele>
        <time>2022-09-29T06:44:13Z</time>
      </trkpt>
      <trkpt lat="46.66453" lon="6.54851">
        <ele>444.7</ele>
        <time>2022-09-29T06:44:14Z</time>
      </trkpt>
      <trkpt lat="46.66456" lon="6.54856">
        <ele>444.7</ele>
        <time>2022-09-29T06:44:15Z</time>
      </trkpt>
      <trkpt lat="46.6646" lon="6.54861">
        <ele>444.7</ele>
        <time>2022-09-29T06:44:16Z</time>
      </trkpt>
      <trkpt lat="46.66464" lon="6.54866">
        <ele>444.8</ele>
        <time>2022-09-29T06:44:17Z</time>
      </trkpt>
      <trkpt lat="46.66467" lon="6.54871">
        <ele>444.8</ele>
        <time>2022-09-29T06:44:18Z</time>
      </trkpt>
      <trkpt lat="46.66471" lon="6.54875">
        <ele>444.8</ele>
        <time>2022-09-29T06:44:19Z</time>
      </trkpt>
      <trkpt lat="46.66473" lon="6.54881">
        <ele>444.8</ele>
        <time>2022-09-29T06:44:20Z</time>
      </trkpt>
      <trkpt lat="46.66477" lon="6.54886">
        <ele>444.8</ele>
        <time>2022-09-29T06:44:21Z</time>
      </trkpt>
      <trkpt lat="46.66481" lon="6.54891">
        <ele>444.9</ele>
        <time>2022-09-29T06:44:22Z</time>
      </trkpt>
      <trkpt lat="46.66483" lon="6.54896">
        <ele>444.9</ele>
        <time>2022-09-29T06:44:23Z</time>
      </trkpt>
      <trkpt lat="46.66487" lon="6.54901">
        <ele>444.9</ele>
        <time>2022-09-29T06:44:24Z</time>
      </trkpt>
      <trkpt lat="46.6649" lon="6.54906">
        <ele>444.9</ele>
        <time>2022-09-29T06:44:25Z</time>
      </trkpt>
      <trkpt lat="46.66493" lon="6.54912">
        <ele>444.9</ele>
        <time>2022-09-29T06:44:26Z</time>
      </trkpt>
      <trkpt lat="46.66496" lon="6.54916">
        <ele>445</ele>
        <time>2022-09-29T06:44:27Z</time>
      </trkpt>
      <trkpt lat="46.66499" lon="6.54922">
        <ele>445</ele>
        <time>2022-09-29T06:44:28Z</time>
      </trkpt>
      <trkpt lat="46.66502" lon="6.54927">
        <ele>445</ele>
        <time>2022-09-29T06:44:29Z</time>
      </trkpt>
      <trkpt lat="46.66505" lon="6.54932">
        <ele>445</ele>
        <time>2022-09-29T06:44:30Z</time>
      </trkpt>
      <trkpt lat="46.66509" lon="6.54938">
        <ele>445</ele>
        <time>2022-09-29T06:44:31Z</time>
      </trkpt>
      <trkpt lat="46.66512" lon="6.54943">
        <ele>445</ele>
        <time>2022-09-29T06:44:32Z</time>
      </trkpt>
      <trkpt lat="46.66516" lon="6.54948">
        <ele>445</ele>
        <time>2022-09-29T06:44:33Z</time>
      </trkpt>
      <trkpt lat="46.66519" lon="6.54954">
        <ele>445</ele>
        <time>2022-09-29T06:44:34Z</time>
      </trkpt>
      <trkpt lat="46.66522" lon="6.5496">
        <ele>445</ele>
        <time>2022-09-29T06:44:35Z</time>
      </trkpt>
      <trkpt lat="46.66525" lon="6.54965">
        <ele>445</ele>
        <time>2022-09-29T06:44:36Z</time>
      </trkpt>
      <trkpt lat="46.66529" lon="6.54971">
        <ele>445</ele>
        <time>2022-09-29T06:44:37Z</time>
      </trkpt>
      <trkpt lat="46.66532" lon="6.54977">
        <ele>445</ele>
        <time>2022-09-29T06:44:38Z</time>
      </trkpt>
      <trkpt lat="46.66536" lon="6.54982">
        <ele>444.9</ele>
        <time>2022-09-29T06:44:39Z</time>
      </trkpt>
      <trkpt lat="46.6654" lon="6.54987">
        <ele>444.9</ele>
        <time>2022-09-29T06:44:40Z</time>
      </trkpt>
      <trkpt lat="46.66544" lon="6.54992">
        <ele>444.9</ele>
        <time>2022-09-29T06:44:41Z</time>
      </trkpt>
      <trkpt lat="46.66548" lon="6.54996">
        <ele>444.9</ele>
        <time>2022-09-29T06:44:42Z</time>
      </trkpt>
      <trkpt lat="46.66551" lon="6.55001">
        <ele>444.9</ele>
        <time>2022-09-29T06:44:43Z</time>
      </trkpt>
      <trkpt lat="46.66556" lon="6.55005">
        <ele>444.9</ele>
        <time>2022-09-29T06:44:44Z</time>
      </trkpt>
      <trkpt lat="46.66559" lon="6.55011">
        <ele>444.9</ele>
        <time>2022-09-29T06:44:45Z</time>
      </trkpt>
      <trkpt lat="46.66563" lon="6.55016">
        <ele>444.9</ele>
        <time>2022-09-29T06:44:46Z</time>
      </trkpt>
      <trkpt lat="46.66566" lon="6.55022">
        <ele>444.8</ele>
        <time>2022-09-29T06:44:47Z</time>
      </trkpt>
      <trkpt lat="46.66568" lon="6.55028">
        <ele>444.8</ele>
        <time>2022-09-29T06:44:48Z</time>
      </trkpt>
      <trkpt lat="46.66571" lon="6.55034">
        <ele>444.8</ele>
        <time>2022-09-29T06:44:49Z</time>
      </trkpt>
      <trkpt lat="46.66574" lon="6.5504">
        <ele>444.8</ele>
        <time>2022-09-29T06:44:50Z</time>
      </trkpt>
      <trkpt lat="46.66577" lon="6.55045">
        <ele>444.8</ele>
        <time>2022-09-29T06:44:51Z</time>
      </trkpt>
      <trkpt lat="46.66579" lon="6.5505">
        <ele>444.8</ele>
        <time>2022-09-29T06:44:52Z</time>
      </trkpt>
      <trkpt lat="46.66582" lon="6.55056">
        <ele>444.8</ele>
        <time>2022-09-29T06:44:53Z</time>
      </trkpt>
      <trkpt lat="46.66584" lon="6.55062">
        <ele>444.8</ele>
        <time>2022-09-29T06:44:54Z</time>
      </trkpt>
      <trkpt lat="46.66586" lon="6.55068">
        <ele>444.8</ele>
        <time>2022-09-29T06:44:55Z</time>
      </trkpt>
      <trkpt lat="46.66587" lon="6.55075">
        <ele>444.8</ele>
        <time>2022-09-29T06:44:56Z</time>
      </trkpt>
      <trkpt lat="46.66588" lon="6.55081">
        <ele>444.8</ele>
        <time>2022-09-29T06:44:57Z</time>
      </trkpt>
      <trkpt lat="46.6659" lon="6.55086">
        <ele>444.8</ele>
        <time>2022-09-29T06:44:58Z</time>
      </trkpt>
      <trkpt lat="46.66591" lon="6.55092">
        <ele>444.8</ele>
        <time>2022-09-29T06:44:59Z</time>
      </trkpt>
      <trkpt lat="46.66592" lon="6.55098">
        <ele>444.8</ele>
        <time>2022-09-29T06:45:00Z</time>
      </trkpt>
      <trkpt lat="46.66595" lon="6.55104">
        <ele>444.8</ele>
        <time>2022-09-29T06:45:01Z</time>
      </trkpt>
      <trkpt lat="46.66598" lon="6.55112">
        <ele>444.8</ele>
        <time>2022-09-29T06:45:02Z</time>
      </trkpt>
      <trkpt lat="46.666" lon="6.5512">
        <ele>444.8</ele>
        <time>2022-09-29T06:45:03Z</time>
      </trkpt>
      <trkpt lat="46.66603" lon="6.55128">
        <ele>444.7</ele>
        <time>2022-09-29T06:45:04Z</time>
      </trkpt>
      <trkpt lat="46.66605" lon="6.55135">
        <ele>444.7</ele>
        <time>2022-09-29T06:45:05Z</time>
      </trkpt>
      <trkpt lat="46.66606" lon="6.55142">
        <ele>444.7</ele>
        <time>2022-09-29T06:45:06Z</time>
      </trkpt>
      <trkpt lat="46.66609" lon="6.55149">
        <ele>444.6</ele>
        <time>2022-09-29T06:45:07Z</time>
      </trkpt>
      <trkpt lat="46.66611" lon="6.55156">
        <ele>444.6</ele>
        <time>2022-09-29T06:45:08Z</time>
      </trkpt>
      <trkpt lat="46.66614" lon="6.55163">
        <ele>444.6</ele>
        <time>2022-09-29T06:45:09Z</time>
      </trkpt>
      <trkpt lat="46.66616" lon="6.55171">
        <ele>444.5</ele>
        <time>2022-09-29T06:45:10Z</time>
      </trkpt>
      <trkpt lat="46.66619" lon="6.55179">
        <ele>444.5</ele>
        <time>2022-09-29T06:45:11Z</time>
      </trkpt>
      <trkpt lat="46.66622" lon="6.55186">
        <ele>444.5</ele>
        <time>2022-09-29T06:45:12Z</time>
      </trkpt>
      <trkpt lat="46.66624" lon="6.55195">
        <ele>444.4</ele>
        <time>2022-09-29T06:45:13Z</time>
      </trkpt>
      <trkpt lat="46.66626" lon="6.55202">
        <ele>444.4</ele>
        <time>2022-09-29T06:45:14Z</time>
      </trkpt>
      <trkpt lat="46.66629" lon="6.5521">
        <ele>444.4</ele>
        <time>2022-09-29T06:45:15Z</time>
      </trkpt>
      <trkpt lat="46.66632" lon="6.55218">
        <ele>444.5</ele>
        <time>2022-09-29T06:45:16Z</time>
      </trkpt>
      <trkpt lat="46.66634" lon="6.55225">
        <ele>444.5</ele>
        <time>2022-09-29T06:45:17Z</time>
      </trkpt>
      <trkpt lat="46.66637" lon="6.55232">
        <ele>444.5</ele>
        <time>2022-09-29T06:45:18Z</time>
      </trkpt>
      <trkpt lat="46.66639" lon="6.5524">
        <ele>444.6</ele>
        <time>2022-09-29T06:45:19Z</time>
      </trkpt>
      <trkpt lat="46.66641" lon="6.55247">
        <ele>444.6</ele>
        <time>2022-09-29T06:45:20Z</time>
      </trkpt>
      <trkpt lat="46.66643" lon="6.55254">
        <ele>444.6</ele>
        <time>2022-09-29T06:45:21Z</time>
      </trkpt>
      <trkpt lat="46.66645" lon="6.55261">
        <ele>444.7</ele>
        <time>2022-09-29T06:45:22Z</time>
      </trkpt>
      <trkpt lat="46.66647" lon="6.55267">
        <ele>444.7</ele>
        <time>2022-09-29T06:45:23Z</time>
      </trkpt>
      <trkpt lat="46.66649" lon="6.55274">
        <ele>444.7</ele>
        <time>2022-09-29T06:45:24Z</time>
      </trkpt>
      <trkpt lat="46.66651" lon="6.55281">
        <ele>444.8</ele>
        <time>2022-09-29T06:45:25Z</time>
      </trkpt>
      <trkpt lat="46.66653" lon="6.55287">
        <ele>444.8</ele>
        <time>2022-09-29T06:45:26Z</time>
      </trkpt>
      <trkpt lat="46.66655" lon="6.55294">
        <ele>444.8</ele>
        <time>2022-09-29T06:45:27Z</time>
      </trkpt>
      <trkpt lat="46.66657" lon="6.55301">
        <ele>444.9</ele>
        <time>2022-09-29T06:45:28Z</time>
      </trkpt>
      <trkpt lat="46.66659" lon="6.55308">
        <ele>444.9</ele>
        <time>2022-09-29T06:45:29Z</time>
      </trkpt>
      <trkpt lat="46.66661" lon="6.55315">
        <ele>445</ele>
        <time>2022-09-29T06:45:30Z</time>
      </trkpt>
      <trkpt lat="46.66663" lon="6.55322">
        <ele>445</ele>
        <time>2022-09-29T06:45:31Z</time>
      </trkpt>
      <trkpt lat="46.66664" lon="6.55328">
        <ele>445</ele>
        <time>2022-09-29T06:45:32Z</time>
      </trkpt>
      <trkpt lat="46.66665" lon="6.55333">
        <ele>445.1</ele>
        <time>2022-09-29T06:45:33Z</time>
      </trkpt>
      <trkpt lat="46.66667" lon="6.55339">
        <ele>445.1</ele>
        <time>2022-09-29T06:45:34Z</time>
      </trkpt>
      <trkpt lat="46.66669" lon="6.55346">
        <ele>445.1</ele>
        <time>2022-09-29T06:45:35Z</time>
      </trkpt>
      <trkpt lat="46.6667" lon="6.55352">
        <ele>445.1</ele>
        <time>2022-09-29T06:45:36Z</time>
      </trkpt>
      <trkpt lat="46.66671" lon="6.55359">
        <ele>445.1</ele>
        <time>2022-09-29T06:45:37Z</time>
      </trkpt>
      <trkpt lat="46.66672" lon="6.55365">
        <ele>445.1</ele>
        <time>2022-09-29T06:45:38Z</time>
      </trkpt>
      <trkpt lat="46.66674" lon="6.55373">
        <ele>445.1</ele>
        <time>2022-09-29T06:45:39Z</time>
      </trkpt>
      <trkpt lat="46.66675" lon="6.5538">
        <ele>445.1</ele>
        <time>2022-09-29T06:45:40Z</time>
      </trkpt>
      <trkpt lat="46.66677" lon="6.55386">
        <ele>445.1</ele>
        <time>2022-09-29T06:45:41Z</time>
      </trkpt>
      <trkpt lat="46.66679" lon="6.55393">
        <ele>445.1</ele>
        <time>2022-09-29T06:45:42Z</time>
      </trkpt>
      <trkpt lat="46.66681" lon="6.554">
        <ele>445.1</ele>
        <time>2022-09-29T06:45:43Z</time>
      </trkpt>
      <trkpt lat="46.66682" lon="6.55407">
        <ele>445.1</ele>
        <time>2022-09-29T06:45:44Z</time>
      </trkpt>
      <trkpt lat="46.66684" lon="6.55414">
        <ele>445.1</ele>
        <time>2022-09-29T06:45:45Z</time>
      </trkpt>
      <trkpt lat="46.66686" lon="6.5542">
        <ele>445.1</ele>
        <time>2022-09-29T06:45:46Z</time>
      </trkpt>
      <trkpt lat="46.66688" lon="6.55427">
        <ele>445.1</ele>
        <time>2022-09-29T06:45:47Z</time>
      </trkpt>
      <trkpt lat="46.6669" lon="6.55433">
        <ele>445.1</ele>
        <time>2022-09-29T06:45:48Z</time>
      </trkpt>
      <trkpt lat="46.66692" lon="6.5544">
        <ele>445.1</ele>
        <time>2022-09-29T06:45:49Z</time>
      </trkpt>
      <trkpt lat="46.66694" lon="6.55446">
        <ele>445</ele>
        <time>2022-09-29T06:45:50Z</time>
      </trkpt>
      <trkpt lat="46.66697" lon="6.55453">
        <ele>445</ele>
        <time>2022-09-29T06:45:51Z</time>
      </trkpt>
      <trkpt lat="46.66699" lon="6.55459">
        <ele>445</ele>
        <time>2022-09-29T06:45:52Z</time>
      </trkpt>
      <trkpt lat="46.667" lon="6.55466">
        <ele>445</ele>
        <time>2022-09-29T06:45:53Z</time>
      </trkpt>
      <trkpt lat="46.66703" lon="6.55473">
        <ele>445</ele>
        <time>2022-09-29T06:45:54Z</time>
      </trkpt>
      <trkpt lat="46.66706" lon="6.5548">
        <ele>445</ele>
        <time>2022-09-29T06:45:55Z</time>
      </trkpt>
      <trkpt lat="46.6671" lon="6.55487">
        <ele>445</ele>
        <time>2022-09-29T06:45:56Z</time>
      </trkpt>
      <trkpt lat="46.66712" lon="6.55494">
        <ele>445</ele>
        <time>2022-09-29T06:45:57Z</time>
      </trkpt>
      <trkpt lat="46.66715" lon="6.55501">
        <ele>444.9</ele>
        <time>2022-09-29T06:45:58Z</time>
      </trkpt>
      <trkpt lat="46.66718" lon="6.55508">
        <ele>444.9</ele>
        <time>2022-09-29T06:45:59Z</time>
      </trkpt>
      <trkpt lat="46.66721" lon="6.55515">
        <ele>445</ele>
        <time>2022-09-29T06:46:00Z</time>
      </trkpt>
      <trkpt lat="46.66725" lon="6.55521">
        <ele>445</ele>
        <time>2022-09-29T06:46:01Z</time>
      </trkpt>
      <trkpt lat="46.66728" lon="6.55527">
        <ele>445</ele>
        <time>2022-09-29T06:46:02Z</time>
      </trkpt>
      <trkpt lat="46.66732" lon="6.55532">
        <ele>445</ele>
        <time>2022-09-29T06:46:03Z</time>
      </trkpt>
      <trkpt lat="46.66735" lon="6.55536">
        <ele>445</ele>
        <time>2022-09-29T06:46:04Z</time>
      </trkpt>
      <trkpt lat="46.6674" lon="6.5554">
        <ele>445</ele>
        <time>2022-09-29T06:46:05Z</time>
      </trkpt>
      <trkpt lat="46.66744" lon="6.55542">
        <ele>445</ele>
        <time>2022-09-29T06:46:06Z</time>
      </trkpt>
      <trkpt lat="46.66749" lon="6.55543">
        <ele>445</ele>
        <time>2022-09-29T06:46:07Z</time>
      </trkpt>
      <trkpt lat="46.66754" lon="6.55545">
        <ele>445</ele>
        <time>2022-09-29T06:46:08Z</time>
      </trkpt>
      <trkpt lat="46.6676" lon="6.55546">
        <ele>445</ele>
        <time>2022-09-29T06:46:09Z</time>
      </trkpt>
      <trkpt lat="46.66765" lon="6.55547">
        <ele>445</ele>
        <time>2022-09-29T06:46:10Z</time>
      </trkpt>
      <trkpt lat="46.6677" lon="6.55547">
        <ele>445</ele>
        <time>2022-09-29T06:46:11Z</time>
      </trkpt>
      <trkpt lat="46.66776" lon="6.55548">
        <ele>445.1</ele>
        <time>2022-09-29T06:46:12Z</time>
      </trkpt>
      <trkpt lat="46.66781" lon="6.55549">
        <ele>445.1</ele>
        <time>2022-09-29T06:46:13Z</time>
      </trkpt>
      <trkpt lat="46.66786" lon="6.55549">
        <ele>445.1</ele>
        <time>2022-09-29T06:46:14Z</time>
      </trkpt>
      <trkpt lat="46.66792" lon="6.5555">
        <ele>445.1</ele>
        <time>2022-09-29T06:46:15Z</time>
      </trkpt>
      <trkpt lat="46.66797" lon="6.55551">
        <ele>445.1</ele>
        <time>2022-09-29T06:46:16Z</time>
      </trkpt>
      <trkpt lat="46.66803" lon="6.55551">
        <ele>445.1</ele>
        <time>2022-09-29T06:46:17Z</time>
      </trkpt>
      <trkpt lat="46.66808" lon="6.55552">
        <ele>445.2</ele>
        <time>2022-09-29T06:46:18Z</time>
      </trkpt>
      <trkpt lat="46.66813" lon="6.55553">
        <ele>445.2</ele>
        <time>2022-09-29T06:46:19Z</time>
      </trkpt>
      <trkpt lat="46.66818" lon="6.55554">
        <ele>445.2</ele>
        <time>2022-09-29T06:46:20Z</time>
      </trkpt>
      <trkpt lat="46.66824" lon="6.55555">
        <ele>445.2</ele>
        <time>2022-09-29T06:46:21Z</time>
      </trkpt>
      <trkpt lat="46.66829" lon="6.55556">
        <ele>445.2</ele>
        <time>2022-09-29T06:46:22Z</time>
      </trkpt>
      <trkpt lat="46.66834" lon="6.55557">
        <ele>445.3</ele>
        <time>2022-09-29T06:46:23Z</time>
      </trkpt>
      <trkpt lat="46.66839" lon="6.55558">
        <ele>445.3</ele>
        <time>2022-09-29T06:46:24Z</time>
      </trkpt>
      <trkpt lat="46.66844" lon="6.5556">
        <ele>445.3</ele>
        <time>2022-09-29T06:46:25Z</time>
      </trkpt>
      <trkpt lat="46.6685" lon="6.55561">
        <ele>445.4</ele>
        <time>2022-09-29T06:46:26Z</time>
      </trkpt>
      <trkpt lat="46.66855" lon="6.55563">
        <ele>445.4</ele>
        <time>2022-09-29T06:46:27Z</time>
      </trkpt>
      <trkpt lat="46.66859" lon="6.55564">
        <ele>445.4</ele>
        <time>2022-09-29T06:46:28Z</time>
      </trkpt>
      <trkpt lat="46.66864" lon="6.55566">
        <ele>445.4</ele>
        <time>2022-09-29T06:46:29Z</time>
      </trkpt>
      <trkpt lat="46.66869" lon="6.55569">
        <ele>445.4</ele>
        <time>2022-09-29T06:46:30Z</time>
      </trkpt>
      <trkpt lat="46.66874" lon="6.55572">
        <ele>445.4</ele>
        <time>2022-09-29T06:46:31Z</time>
      </trkpt>
      <trkpt lat="46.66879" lon="6.55574">
        <ele>445.5</ele>
        <time>2022-09-29T06:46:32Z</time>
      </trkpt>
      <trkpt lat="46.66884" lon="6.55577">
        <ele>445.5</ele>
        <time>2022-09-29T06:46:33Z</time>
      </trkpt>
      <trkpt lat="46.66889" lon="6.55581">
        <ele>445.5</ele>
        <time>2022-09-29T06:46:34Z</time>
      </trkpt>
      <trkpt lat="46.66894" lon="6.55584">
        <ele>445.5</ele>
        <time>2022-09-29T06:46:35Z</time>
      </trkpt>
      <trkpt lat="46.66899" lon="6.55588">
        <ele>445.4</ele>
        <time>2022-09-29T06:46:36Z</time>
      </trkpt>
      <trkpt lat="46.66905" lon="6.55591">
        <ele>445.4</ele>
        <time>2022-09-29T06:46:37Z</time>
      </trkpt>
      <trkpt lat="46.6691" lon="6.55595">
        <ele>445.4</ele>
        <time>2022-09-29T06:46:38Z</time>
      </trkpt>
      <trkpt lat="46.66915" lon="6.55598">
        <ele>445.4</ele>
        <time>2022-09-29T06:46:39Z</time>
      </trkpt>
      <trkpt lat="46.66921" lon="6.55601">
        <ele>445.4</ele>
        <time>2022-09-29T06:46:40Z</time>
      </trkpt>
      <trkpt lat="46.66926" lon="6.55605">
        <ele>445.3</ele>
        <time>2022-09-29T06:46:41Z</time>
      </trkpt>
      <trkpt lat="46.66931" lon="6.55608">
        <ele>445.3</ele>
        <time>2022-09-29T06:46:42Z</time>
      </trkpt>
      <trkpt lat="46.66937" lon="6.55612">
        <ele>445.3</ele>
        <time>2022-09-29T06:46:43Z</time>
      </trkpt>
      <trkpt lat="46.66942" lon="6.55615">
        <ele>445.3</ele>
        <time>2022-09-29T06:46:44Z</time>
      </trkpt>
      <trkpt lat="46.66947" lon="6.55619">
        <ele>445.3</ele>
        <time>2022-09-29T06:46:45Z</time>
      </trkpt>
      <trkpt lat="46.66952" lon="6.55622">
        <ele>445.2</ele>
        <time>2022-09-29T06:46:46Z</time>
      </trkpt>
      <trkpt lat="46.66957" lon="6.55626">
        <ele>445.2</ele>
        <time>2022-09-29T06:46:47Z</time>
      </trkpt>
      <trkpt lat="46.66962" lon="6.55629">
        <ele>445.2</ele>
        <time>2022-09-29T06:46:48Z</time>
      </trkpt>
      <trkpt lat="46.66967" lon="6.55633">
        <ele>445.2</ele>
        <time>2022-09-29T06:46:49Z</time>
      </trkpt>
      <trkpt lat="46.66972" lon="6.55636">
        <ele>445.2</ele>
        <time>2022-09-29T06:46:50Z</time>
      </trkpt>
      <trkpt lat="46.66977" lon="6.5564">
        <ele>445.2</ele>
        <time>2022-09-29T06:46:51Z</time>
      </trkpt>
      <trkpt lat="46.66982" lon="6.55643">
        <ele>445.1</ele>
        <time>2022-09-29T06:46:52Z</time>
      </trkpt>
      <trkpt lat="46.66987" lon="6.55647">
        <ele>445.1</ele>
        <time>2022-09-29T06:46:53Z</time>
      </trkpt>
      <trkpt lat="46.66992" lon="6.5565">
        <ele>445.1</ele>
        <time>2022-09-29T06:46:54Z</time>
      </trkpt>
      <trkpt lat="46.66997" lon="6.55654">
        <ele>445.1</ele>
        <time>2022-09-29T06:46:55Z</time>
      </trkpt>
      <trkpt lat="46.67003" lon="6.55657">
        <ele>445.1</ele>
        <time>2022-09-29T06:46:56Z</time>
      </trkpt>
      <trkpt lat="46.67008" lon="6.55661">
        <ele>445</ele>
        <time>2022-09-29T06:46:57Z</time>
      </trkpt>
      <trkpt lat="46.67013" lon="6.55665">
        <ele>445</ele>
        <time>2022-09-29T06:46:58Z</time>
      </trkpt>
      <trkpt lat="46.67018" lon="6.55668">
        <ele>444.9</ele>
        <time>2022-09-29T06:46:59Z</time>
      </trkpt>
      <trkpt lat="46.67023" lon="6.55672">
        <ele>444.9</ele>
        <time>2022-09-29T06:47:00Z</time>
      </trkpt>
      <trkpt lat="46.67028" lon="6.55676">
        <ele>444.9</ele>
        <time>2022-09-29T06:47:01Z</time>
      </trkpt>
      <trkpt lat="46.67034" lon="6.55679">
        <ele>444.9</ele>
        <time>2022-09-29T06:47:02Z</time>
      </trkpt>
      <trkpt lat="46.67039" lon="6.55683">
        <ele>444.8</ele>
        <time>2022-09-29T06:47:03Z</time>
      </trkpt>
      <trkpt lat="46.67044" lon="6.55687">
        <ele>444.8</ele>
        <time>2022-09-29T06:47:04Z</time>
      </trkpt>
      <trkpt lat="46.67049" lon="6.55691">
        <ele>444.8</ele>
        <time>2022-09-29T06:47:05Z</time>
      </trkpt>
      <trkpt lat="46.67054" lon="6.55695">
        <ele>444.8</ele>
        <time>2022-09-29T06:47:06Z</time>
      </trkpt>
      <trkpt lat="46.67059" lon="6.55699">
        <ele>444.8</ele>
        <time>2022-09-29T06:47:07Z</time>
      </trkpt>
      <trkpt lat="46.67064" lon="6.55703">
        <ele>444.8</ele>
        <time>2022-09-29T06:47:08Z</time>
      </trkpt>
      <trkpt lat="46.67069" lon="6.55707">
        <ele>444.8</ele>
        <time>2022-09-29T06:47:09Z</time>
      </trkpt>
      <trkpt lat="46.67074" lon="6.55711">
        <ele>444.8</ele>
        <time>2022-09-29T06:47:10Z</time>
      </trkpt>
      <trkpt lat="46.67079" lon="6.55715">
        <ele>444.8</ele>
        <time>2022-09-29T06:47:11Z</time>
      </trkpt>
      <trkpt lat="46.67084" lon="6.55719">
        <ele>444.8</ele>
        <time>2022-09-29T06:47:12Z</time>
      </trkpt>
      <trkpt lat="46.67089" lon="6.55723">
        <ele>444.9</ele>
        <time>2022-09-29T06:47:13Z</time>
      </trkpt>
      <trkpt lat="46.67093" lon="6.55726">
        <ele>444.9</ele>
        <time>2022-09-29T06:47:14Z</time>
      </trkpt>
      <trkpt lat="46.67098" lon="6.5573">
        <ele>444.9</ele>
        <time>2022-09-29T06:47:15Z</time>
      </trkpt>
      <trkpt lat="46.67102" lon="6.55734">
        <ele>444.8</ele>
        <time>2022-09-29T06:47:16Z</time>
      </trkpt>
      <trkpt lat="46.67107" lon="6.55737">
        <ele>444.8</ele>
        <time>2022-09-29T06:47:17Z</time>
      </trkpt>
      <trkpt lat="46.67111" lon="6.55742">
        <ele>444.8</ele>
        <time>2022-09-29T06:47:18Z</time>
      </trkpt>
      <trkpt lat="46.67116" lon="6.55746">
        <ele>444.8</ele>
        <time>2022-09-29T06:47:19Z</time>
      </trkpt>
      <trkpt lat="46.67121" lon="6.55751">
        <ele>444.8</ele>
        <time>2022-09-29T06:47:20Z</time>
      </trkpt>
      <trkpt lat="46.67125" lon="6.55756">
        <ele>444.8</ele>
        <time>2022-09-29T06:47:21Z</time>
      </trkpt>
      <trkpt lat="46.67129" lon="6.55762">
        <ele>444.7</ele>
        <time>2022-09-29T06:47:22Z</time>
      </trkpt>
      <trkpt lat="46.67133" lon="6.55767">
        <ele>444.7</ele>
        <time>2022-09-29T06:47:23Z</time>
      </trkpt>
      <trkpt lat="46.67137" lon="6.55773">
        <ele>444.7</ele>
        <time>2022-09-29T06:47:24Z</time>
      </trkpt>
      <trkpt lat="46.67141" lon="6.55779">
        <ele>444.7</ele>
        <time>2022-09-29T06:47:25Z</time>
      </trkpt>
      <trkpt lat="46.67145" lon="6.55785">
        <ele>444.7</ele>
        <time>2022-09-29T06:47:26Z</time>
      </trkpt>
      <trkpt lat="46.67148" lon="6.55791">
        <ele>444.6</ele>
        <time>2022-09-29T06:47:27Z</time>
      </trkpt>
      <trkpt lat="46.67152" lon="6.55798">
        <ele>444.6</ele>
        <time>2022-09-29T06:47:28Z</time>
      </trkpt>
      <trkpt lat="46.67155" lon="6.55804">
        <ele>444.6</ele>
        <time>2022-09-29T06:47:29Z</time>
      </trkpt>
      <trkpt lat="46.67159" lon="6.5581">
        <ele>444.6</ele>
        <time>2022-09-29T06:47:30Z</time>
      </trkpt>
      <trkpt lat="46.67163" lon="6.55816">
        <ele>444.6</ele>
        <time>2022-09-29T06:47:31Z</time>
      </trkpt>
      <trkpt lat="46.67167" lon="6.55821">
        <ele>444.6</ele>
        <time>2022-09-29T06:47:32Z</time>
      </trkpt>
      <trkpt lat="46.67171" lon="6.55827">
        <ele>444.6</ele>
        <time>2022-09-29T06:47:33Z</time>
      </trkpt>
      <trkpt lat="46.67175" lon="6.55832">
        <ele>444.6</ele>
        <time>2022-09-29T06:47:34Z</time>
      </trkpt>
      <trkpt lat="46.67179" lon="6.55837">
        <ele>444.6</ele>
        <time>2022-09-29T06:47:35Z</time>
      </trkpt>
      <trkpt lat="46.67184" lon="6.55842">
        <ele>444.6</ele>
        <time>2022-09-29T06:47:36Z</time>
      </trkpt>
      <trkpt lat="46.67189" lon="6.55847">
        <ele>444.6</ele>
        <time>2022-09-29T06:47:37Z</time>
      </trkpt>
      <trkpt lat="46.67193" lon="6.5585">
        <ele>444.6</ele>
        <time>2022-09-29T06:47:38Z</time>
      </trkpt>
      <trkpt lat="46.67198" lon="6.55855">
        <ele>444.6</ele>
        <time>2022-09-29T06:47:39Z</time>
      </trkpt>
      <trkpt lat="46.67203" lon="6.55859">
        <ele>444.6</ele>
        <time>2022-09-29T06:47:40Z</time>
      </trkpt>
      <trkpt lat="46.67208" lon="6.55863">
        <ele>444.6</ele>
        <time>2022-09-29T06:47:41Z</time>
      </trkpt>
      <trkpt lat="46.67213" lon="6.55868">
        <ele>444.6</ele>
        <time>2022-09-29T06:47:42Z</time>
      </trkpt>
      <trkpt lat="46.67218" lon="6.55872">
        <ele>444.6</ele>
        <time>2022-09-29T06:47:43Z</time>
      </trkpt>
      <trkpt lat="46.67223" lon="6.55876">
        <ele>444.6</ele>
        <time>2022-09-29T06:47:44Z</time>
      </trkpt>
      <trkpt lat="46.67228" lon="6.5588">
        <ele>444.7</ele>
        <time>2022-09-29T06:47:45Z</time>
      </trkpt>
      <trkpt lat="46.67233" lon="6.55884">
        <ele>444.7</ele>
        <time>2022-09-29T06:47:46Z</time>
      </trkpt>
      <trkpt lat="46.67237" lon="6.55888">
        <ele>444.7</ele>
        <time>2022-09-29T06:47:47Z</time>
      </trkpt>
      <trkpt lat="46.67242" lon="6.55892">
        <ele>444.7</ele>
        <time>2022-09-29T06:47:48Z</time>
      </trkpt>
      <trkpt lat="46.67247" lon="6.55896">
        <ele>444.7</ele>
        <time>2022-09-29T06:47:49Z</time>
      </trkpt>
      <trkpt lat="46.67251" lon="6.559">
        <ele>444.7</ele>
        <time>2022-09-29T06:47:50Z</time>
      </trkpt>
      <trkpt lat="46.67256" lon="6.55904">
        <ele>444.8</ele>
        <time>2022-09-29T06:47:51Z</time>
      </trkpt>
      <trkpt lat="46.67261" lon="6.55908">
        <ele>444.8</ele>
        <time>2022-09-29T06:47:52Z</time>
      </trkpt>
      <trkpt lat="46.67265" lon="6.55912">
        <ele>444.8</ele>
        <time>2022-09-29T06:47:53Z</time>
      </trkpt>
      <trkpt lat="46.6727" lon="6.55915">
        <ele>444.8</ele>
        <time>2022-09-29T06:47:54Z</time>
      </trkpt>
      <trkpt lat="46.67275" lon="6.55919">
        <ele>444.8</ele>
        <time>2022-09-29T06:47:55Z</time>
      </trkpt>
      <trkpt lat="46.67279" lon="6.55922">
        <ele>444.9</ele>
        <time>2022-09-29T06:47:56Z</time>
      </trkpt>
      <trkpt lat="46.67283" lon="6.55926">
        <ele>444.9</ele>
        <time>2022-09-29T06:47:57Z</time>
      </trkpt>
      <trkpt lat="46.67288" lon="6.55929">
        <ele>444.9</ele>
        <time>2022-09-29T06:47:58Z</time>
      </trkpt>
      <trkpt lat="46.67292" lon="6.55933">
        <ele>444.9</ele>
        <time>2022-09-29T06:47:59Z</time>
      </trkpt>
      <trkpt lat="46.67296" lon="6.55937">
        <ele>445</ele>
        <time>2022-09-29T06:48:00Z</time>
      </trkpt>
      <trkpt lat="46.67301" lon="6.5594">
        <ele>445</ele>
        <time>2022-09-29T06:48:01Z</time>
      </trkpt>
      <trkpt lat="46.67305" lon="6.55944">
        <ele>445</ele>
        <time>2022-09-29T06:48:02Z</time>
      </trkpt>
      <trkpt lat="46.6731" lon="6.55947">
        <ele>445.1</ele>
        <time>2022-09-29T06:48:03Z</time>
      </trkpt>
      <trkpt lat="46.67314" lon="6.55951">
        <ele>445.1</ele>
        <time>2022-09-29T06:48:04Z</time>
      </trkpt>
      <trkpt lat="46.67318" lon="6.55955">
        <ele>445.1</ele>
        <time>2022-09-29T06:48:05Z</time>
      </trkpt>
      <trkpt lat="46.67323" lon="6.55958">
        <ele>445.1</ele>
        <time>2022-09-29T06:48:06Z</time>
      </trkpt>
      <trkpt lat="46.67327" lon="6.55962">
        <ele>445.1</ele>
        <time>2022-09-29T06:48:07Z</time>
      </trkpt>
      <trkpt lat="46.67331" lon="6.55965">
        <ele>445.1</ele>
        <time>2022-09-29T06:48:08Z</time>
      </trkpt>
      <trkpt lat="46.67335" lon="6.55969">
        <ele>445.1</ele>
        <time>2022-09-29T06:48:09Z</time>
      </trkpt>
      <trkpt lat="46.67339" lon="6.55972">
        <ele>445.1</ele>
        <time>2022-09-29T06:48:10Z</time>
      </trkpt>
      <trkpt lat="46.67343" lon="6.55976">
        <ele>445.1</ele>
        <time>2022-09-29T06:48:11Z</time>
      </trkpt>
      <trkpt lat="46.67347" lon="6.5598">
        <ele>445.1</ele>
        <time>2022-09-29T06:48:12Z</time>
      </trkpt>
      <trkpt lat="46.67351" lon="6.55983">
        <ele>445.1</ele>
        <time>2022-09-29T06:48:13Z</time>
      </trkpt>
      <trkpt lat="46.67355" lon="6.55987">
        <ele>445.1</ele>
        <time>2022-09-29T06:48:14Z</time>
      </trkpt>
      <trkpt lat="46.6736" lon="6.5599">
        <ele>445.1</ele>
        <time>2022-09-29T06:48:15Z</time>
      </trkpt>
      <trkpt lat="46.67364" lon="6.55993">
        <ele>445.2</ele>
        <time>2022-09-29T06:48:16Z</time>
      </trkpt>
      <trkpt lat="46.67368" lon="6.55997">
        <ele>445.2</ele>
        <time>2022-09-29T06:48:17Z</time>
      </trkpt>
      <trkpt lat="46.67372" lon="6.56">
        <ele>445.2</ele>
        <time>2022-09-29T06:48:18Z</time>
      </trkpt>
      <trkpt lat="46.67377" lon="6.56003">
        <ele>445.3</ele>
        <time>2022-09-29T06:48:19Z</time>
      </trkpt>
      <trkpt lat="46.67381" lon="6.56006">
        <ele>445.3</ele>
        <time>2022-09-29T06:48:20Z</time>
      </trkpt>
      <trkpt lat="46.67385" lon="6.56009">
        <ele>445.3</ele>
        <time>2022-09-29T06:48:21Z</time>
      </trkpt>
      <trkpt lat="46.6739" lon="6.56012">
        <ele>445.4</ele>
        <time>2022-09-29T06:48:22Z</time>
      </trkpt>
      <trkpt lat="46.67394" lon="6.56015">
        <ele>445.4</ele>
        <time>2022-09-29T06:48:23Z</time>
      </trkpt>
      <trkpt lat="46.67399" lon="6.56017">
        <ele>445.4</ele>
        <time>2022-09-29T06:48:24Z</time>
      </trkpt>
      <trkpt lat="46.67403" lon="6.56019">
        <ele>445.5</ele>
        <time>2022-09-29T06:48:25Z</time>
      </trkpt>
      <trkpt lat="46.67408" lon="6.56021">
        <ele>445.5</ele>
        <time>2022-09-29T06:48:26Z</time>
      </trkpt>
      <trkpt lat="46.67412" lon="6.56024">
        <ele>445.5</ele>
        <time>2022-09-29T06:48:27Z</time>
      </trkpt>
      <trkpt lat="46.67416" lon="6.56025">
        <ele>445.6</ele>
        <time>2022-09-29T06:48:28Z</time>
      </trkpt>
      <trkpt lat="46.67421" lon="6.56027">
        <ele>445.6</ele>
        <time>2022-09-29T06:48:29Z</time>
      </trkpt>
      <trkpt lat="46.67425" lon="6.56029">
        <ele>445.6</ele>
        <time>2022-09-29T06:48:30Z</time>
      </trkpt>
      <trkpt lat="46.6743" lon="6.5603">
        <ele>445.7</ele>
        <time>2022-09-29T06:48:31Z</time>
      </trkpt>
      <trkpt lat="46.67434" lon="6.56032">
        <ele>445.7</ele>
        <time>2022-09-29T06:48:32Z</time>
      </trkpt>
      <trkpt lat="46.67438" lon="6.56034">
        <ele>445.7</ele>
        <time>2022-09-29T06:48:33Z</time>
      </trkpt>
      <trkpt lat="46.67443" lon="6.56035">
        <ele>445.8</ele>
        <time>2022-09-29T06:48:34Z</time>
      </trkpt>
      <trkpt lat="46.67447" lon="6.56036">
        <ele>445.8</ele>
        <time>2022-09-29T06:48:35Z</time>
      </trkpt>
      <trkpt lat="46.67451" lon="6.56038">
        <ele>445.8</ele>
        <time>2022-09-29T06:48:36Z</time>
      </trkpt>
      <trkpt lat="46.67455" lon="6.56039">
        <ele>445.9</ele>
        <time>2022-09-29T06:48:37Z</time>
      </trkpt>
      <trkpt lat="46.67459" lon="6.56041">
        <ele>445.9</ele>
        <time>2022-09-29T06:48:38Z</time>
      </trkpt>
      <trkpt lat="46.67463" lon="6.56042">
        <ele>445.9</ele>
        <time>2022-09-29T06:48:39Z</time>
      </trkpt>
      <trkpt lat="46.67467" lon="6.56044">
        <ele>446</ele>
        <time>2022-09-29T06:48:40Z</time>
      </trkpt>
      <trkpt lat="46.67472" lon="6.56045">
        <ele>446</ele>
        <time>2022-09-29T06:48:41Z</time>
      </trkpt>
      <trkpt lat="46.67476" lon="6.56046">
        <ele>446</ele>
        <time>2022-09-29T06:48:42Z</time>
      </trkpt>
      <trkpt lat="46.6748" lon="6.56047">
        <ele>446.1</ele>
        <time>2022-09-29T06:48:43Z</time>
      </trkpt>
      <trkpt lat="46.67484" lon="6.56049">
        <ele>446.1</ele>
        <time>2022-09-29T06:48:44Z</time>
      </trkpt>
      <trkpt lat="46.67488" lon="6.5605">
        <ele>446.2</ele>
        <time>2022-09-29T06:48:45Z</time>
      </trkpt>
      <trkpt lat="46.67493" lon="6.56052">
        <ele>446.2</ele>
        <time>2022-09-29T06:48:46Z</time>
      </trkpt>
      <trkpt lat="46.67497" lon="6.56054">
        <ele>446.2</ele>
        <time>2022-09-29T06:48:47Z</time>
      </trkpt>
      <trkpt lat="46.67501" lon="6.56055">
        <ele>446.3</ele>
        <time>2022-09-29T06:48:48Z</time>
      </trkpt>
      <trkpt lat="46.67505" lon="6.56057">
        <ele>446.3</ele>
        <time>2022-09-29T06:48:49Z</time>
      </trkpt>
      <trkpt lat="46.67509" lon="6.56059">
        <ele>446.4</ele>
        <time>2022-09-29T06:48:50Z</time>
      </trkpt>
      <trkpt lat="46.67513" lon="6.5606">
        <ele>446.4</ele>
        <time>2022-09-29T06:48:51Z</time>
      </trkpt>
      <trkpt lat="46.67518" lon="6.56062">
        <ele>446.4</ele>
        <time>2022-09-29T06:48:52Z</time>
      </trkpt>
      <trkpt lat="46.67522" lon="6.56064">
        <ele>446.5</ele>
        <time>2022-09-29T06:48:53Z</time>
      </trkpt>
      <trkpt lat="46.67526" lon="6.56066">
        <ele>446.5</ele>
        <time>2022-09-29T06:48:54Z</time>
      </trkpt>
      <trkpt lat="46.6753" lon="6.56067">
        <ele>446.6</ele>
        <time>2022-09-29T06:48:55Z</time>
      </trkpt>
      <trkpt lat="46.67535" lon="6.56069">
        <ele>446.6</ele>
        <time>2022-09-29T06:48:56Z</time>
      </trkpt>
      <trkpt lat="46.67539" lon="6.56071">
        <ele>446.6</ele>
        <time>2022-09-29T06:48:57Z</time>
      </trkpt>
      <trkpt lat="46.67543" lon="6.56072">
        <ele>446.7</ele>
        <time>2022-09-29T06:48:58Z</time>
      </trkpt>
      <trkpt lat="46.67547" lon="6.56074">
        <ele>446.7</ele>
        <time>2022-09-29T06:48:59Z</time>
      </trkpt>
      <trkpt lat="46.67552" lon="6.56075">
        <ele>446.8</ele>
        <time>2022-09-29T06:49:00Z</time>
      </trkpt>
      <trkpt lat="46.67556" lon="6.56077">
        <ele>446.8</ele>
        <time>2022-09-29T06:49:01Z</time>
      </trkpt>
      <trkpt lat="46.6756" lon="6.56079">
        <ele>446.9</ele>
        <time>2022-09-29T06:49:02Z</time>
      </trkpt>
      <trkpt lat="46.67565" lon="6.5608">
        <ele>446.9</ele>
        <time>2022-09-29T06:49:03Z</time>
      </trkpt>
      <trkpt lat="46.67568" lon="6.56082">
        <ele>447</ele>
        <time>2022-09-29T06:49:04Z</time>
      </trkpt>
      <trkpt lat="46.67573" lon="6.56083">
        <ele>447</ele>
        <time>2022-09-29T06:49:05Z</time>
      </trkpt>
      <trkpt lat="46.67577" lon="6.56084">
        <ele>447.1</ele>
        <time>2022-09-29T06:49:06Z</time>
      </trkpt>
      <trkpt lat="46.67582" lon="6.56086">
        <ele>447.1</ele>
        <time>2022-09-29T06:49:07Z</time>
      </trkpt>
      <trkpt lat="46.67586" lon="6.56088">
        <ele>447.2</ele>
        <time>2022-09-29T06:49:08Z</time>
      </trkpt>
      <trkpt lat="46.6759" lon="6.5609">
        <ele>447.2</ele>
        <time>2022-09-29T06:49:09Z</time>
      </trkpt>
      <trkpt lat="46.67594" lon="6.56092">
        <ele>447.2</ele>
        <time>2022-09-29T06:49:10Z</time>
      </trkpt>
      <trkpt lat="46.67598" lon="6.56093">
        <ele>447.3</ele>
        <time>2022-09-29T06:49:11Z</time>
      </trkpt>
      <trkpt lat="46.67602" lon="6.56095">
        <ele>447.4</ele>
        <time>2022-09-29T06:49:12Z</time>
      </trkpt>
      <trkpt lat="46.67606" lon="6.56096">
        <ele>447.4</ele>
        <time>2022-09-29T06:49:13Z</time>
      </trkpt>
      <trkpt lat="46.6761" lon="6.56098">
        <ele>447.5</ele>
        <time>2022-09-29T06:49:14Z</time>
      </trkpt>
      <trkpt lat="46.67614" lon="6.561">
        <ele>447.5</ele>
        <time>2022-09-29T06:49:15Z</time>
      </trkpt>
      <trkpt lat="46.67618" lon="6.56101">
        <ele>447.6</ele>
        <time>2022-09-29T06:49:16Z</time>
      </trkpt>
      <trkpt lat="46.67622" lon="6.56103">
        <ele>447.6</ele>
        <time>2022-09-29T06:49:17Z</time>
      </trkpt>
      <trkpt lat="46.67626" lon="6.56105">
        <ele>447.7</ele>
        <time>2022-09-29T06:49:18Z</time>
      </trkpt>
      <trkpt lat="46.6763" lon="6.56107">
        <ele>447.7</ele>
        <time>2022-09-29T06:49:19Z</time>
      </trkpt>
      <trkpt lat="46.67634" lon="6.56108">
        <ele>447.8</ele>
        <time>2022-09-29T06:49:20Z</time>
      </trkpt>
      <trkpt lat="46.67638" lon="6.5611">
        <ele>447.8</ele>
        <time>2022-09-29T06:49:21Z</time>
      </trkpt>
      <trkpt lat="46.67641" lon="6.56111">
        <ele>447.9</ele>
        <time>2022-09-29T06:49:22Z</time>
      </trkpt>
      <trkpt lat="46.67645" lon="6.56112">
        <ele>448</ele>
        <time>2022-09-29T06:49:23Z</time>
      </trkpt>
      <trkpt lat="46.67649" lon="6.56113">
        <ele>448</ele>
        <time>2022-09-29T06:49:24Z</time>
      </trkpt>
      <trkpt lat="46.67653" lon="6.56115">
        <ele>448.1</ele>
        <time>2022-09-29T06:49:25Z</time>
      </trkpt>
      <trkpt lat="46.67657" lon="6.56116">
        <ele>448.2</ele>
        <time>2022-09-29T06:49:26Z</time>
      </trkpt>
      <trkpt lat="46.6766" lon="6.56117">
        <ele>448.2</ele>
        <time>2022-09-29T06:49:27Z</time>
      </trkpt>
      <trkpt lat="46.67664" lon="6.56118">
        <ele>448.3</ele>
        <time>2022-09-29T06:49:28Z</time>
      </trkpt>
      <trkpt lat="46.67668" lon="6.5612">
        <ele>448.4</ele>
        <time>2022-09-29T06:49:29Z</time>
      </trkpt>
      <trkpt lat="46.67671" lon="6.56121">
        <ele>448.4</ele>
        <time>2022-09-29T06:49:30Z</time>
      </trkpt>
      <trkpt lat="46.67675" lon="6.56123">
        <ele>448.5</ele>
        <time>2022-09-29T06:49:31Z</time>
      </trkpt>
      <trkpt lat="46.67679" lon="6.56124">
        <ele>448.6</ele>
        <time>2022-09-29T06:49:32Z</time>
      </trkpt>
      <trkpt lat="46.67682" lon="6.56125">
        <ele>448.6</ele>
        <time>2022-09-29T06:49:33Z</time>
      </trkpt>
      <trkpt lat="46.67686" lon="6.56126">
        <ele>448.6</ele>
        <time>2022-09-29T06:49:34Z</time>
      </trkpt>
      <trkpt lat="46.67689" lon="6.56127">
        <ele>448.7</ele>
        <time>2022-09-29T06:49:35Z</time>
      </trkpt>
      <trkpt lat="46.67692" lon="6.56128">
        <ele>448.7</ele>
        <time>2022-09-29T06:49:36Z</time>
      </trkpt>
      <trkpt lat="46.67695" lon="6.56129">
        <ele>448.7</ele>
        <time>2022-09-29T06:49:37Z</time>
      </trkpt>
      <trkpt lat="46.67699" lon="6.5613">
        <ele>448.7</ele>
        <time>2022-09-29T06:49:38Z</time>
      </trkpt>
      <trkpt lat="46.67702" lon="6.56131">
        <ele>448.7</ele>
        <time>2022-09-29T06:49:39Z</time>
      </trkpt>
      <trkpt lat="46.67706" lon="6.56131">
        <ele>448.7</ele>
        <time>2022-09-29T06:49:40Z</time>
      </trkpt>
      <trkpt lat="46.6771" lon="6.56132">
        <ele>448.7</ele>
        <time>2022-09-29T06:49:41Z</time>
      </trkpt>
      <trkpt lat="46.67714" lon="6.56133">
        <ele>448.7</ele>
        <time>2022-09-29T06:49:42Z</time>
      </trkpt>
      <trkpt lat="46.67717" lon="6.56134">
        <ele>448.7</ele>
        <time>2022-09-29T06:49:43Z</time>
      </trkpt>
      <trkpt lat="46.67721" lon="6.56136">
        <ele>448.7</ele>
        <time>2022-09-29T06:49:44Z</time>
      </trkpt>
      <trkpt lat="46.67726" lon="6.56137">
        <ele>448.7</ele>
        <time>2022-09-29T06:49:45Z</time>
      </trkpt>
      <trkpt lat="46.6773" lon="6.56139">
        <ele>448.7</ele>
        <time>2022-09-29T06:49:46Z</time>
      </trkpt>
      <trkpt lat="46.67735" lon="6.5614">
        <ele>448.6</ele>
        <time>2022-09-29T06:49:47Z</time>
      </trkpt>
      <trkpt lat="46.6774" lon="6.56142">
        <ele>448.6</ele>
        <time>2022-09-29T06:49:48Z</time>
      </trkpt>
      <trkpt lat="46.67744" lon="6.56143">
        <ele>448.6</ele>
        <time>2022-09-29T06:49:49Z</time>
      </trkpt>
      <trkpt lat="46.67749" lon="6.56145">
        <ele>448.6</ele>
        <time>2022-09-29T06:49:50Z</time>
      </trkpt>
      <trkpt lat="46.67754" lon="6.56146">
        <ele>448.5</ele>
        <time>2022-09-29T06:49:51Z</time>
      </trkpt>
      <trkpt lat="46.67759" lon="6.56147">
        <ele>448.5</ele>
        <time>2022-09-29T06:49:52Z</time>
      </trkpt>
      <trkpt lat="46.67764" lon="6.56149">
        <ele>448.5</ele>
        <time>2022-09-29T06:49:53Z</time>
      </trkpt>
      <trkpt lat="46.67769" lon="6.5615">
        <ele>448.6</ele>
        <time>2022-09-29T06:49:54Z</time>
      </trkpt>
      <trkpt lat="46.67774" lon="6.56152">
        <ele>448.6</ele>
        <time>2022-09-29T06:49:55Z</time>
      </trkpt>
      <trkpt lat="46.67779" lon="6.56153">
        <ele>448.6</ele>
        <time>2022-09-29T06:49:56Z</time>
      </trkpt>
      <trkpt lat="46.67784" lon="6.56155">
        <ele>448.6</ele>
        <time>2022-09-29T06:49:57Z</time>
      </trkpt>
      <trkpt lat="46.67789" lon="6.56156">
        <ele>448.5</ele>
        <time>2022-09-29T06:49:58Z</time>
      </trkpt>
      <trkpt lat="46.67794" lon="6.56158">
        <ele>448.5</ele>
        <time>2022-09-29T06:49:59Z</time>
      </trkpt>
      <trkpt lat="46.67799" lon="6.5616">
        <ele>448.5</ele>
        <time>2022-09-29T06:50:00Z</time>
      </trkpt>
      <trkpt lat="46.67804" lon="6.56162">
        <ele>448.5</ele>
        <time>2022-09-29T06:50:01Z</time>
      </trkpt>
      <trkpt lat="46.67809" lon="6.56164">
        <ele>448.5</ele>
        <time>2022-09-29T06:50:02Z</time>
      </trkpt>
      <trkpt lat="46.67814" lon="6.56165">
        <ele>448.5</ele>
        <time>2022-09-29T06:50:03Z</time>
      </trkpt>
      <trkpt lat="46.67819" lon="6.56168">
        <ele>448.4</ele>
        <time>2022-09-29T06:50:04Z</time>
      </trkpt>
      <trkpt lat="46.67823" lon="6.56171">
        <ele>448.4</ele>
        <time>2022-09-29T06:50:05Z</time>
      </trkpt>
      <trkpt lat="46.67828" lon="6.56174">
        <ele>448.4</ele>
        <time>2022-09-29T06:50:06Z</time>
      </trkpt>
      <trkpt lat="46.67833" lon="6.56176">
        <ele>448.5</ele>
        <time>2022-09-29T06:50:07Z</time>
      </trkpt>
      <trkpt lat="46.67837" lon="6.56179">
        <ele>448.5</ele>
        <time>2022-09-29T06:50:08Z</time>
      </trkpt>
      <trkpt lat="46.67842" lon="6.56182">
        <ele>448.5</ele>
        <time>2022-09-29T06:50:09Z</time>
      </trkpt>
      <trkpt lat="46.67847" lon="6.56184">
        <ele>448.5</ele>
        <time>2022-09-29T06:50:10Z</time>
      </trkpt>
      <trkpt lat="46.67851" lon="6.56187">
        <ele>448.6</ele>
        <time>2022-09-29T06:50:11Z</time>
      </trkpt>
      <trkpt lat="46.67856" lon="6.56189">
        <ele>448.6</ele>
        <time>2022-09-29T06:50:12Z</time>
      </trkpt>
      <trkpt lat="46.67861" lon="6.56191">
        <ele>448.6</ele>
        <time>2022-09-29T06:50:13Z</time>
      </trkpt>
      <trkpt lat="46.67866" lon="6.56193">
        <ele>448.6</ele>
        <time>2022-09-29T06:50:14Z</time>
      </trkpt>
      <trkpt lat="46.67871" lon="6.56196">
        <ele>448.7</ele>
        <time>2022-09-29T06:50:15Z</time>
      </trkpt>
      <trkpt lat="46.67876" lon="6.56198">
        <ele>448.7</ele>
        <time>2022-09-29T06:50:16Z</time>
      </trkpt>
      <trkpt lat="46.6788" lon="6.562">
        <ele>448.7</ele>
        <time>2022-09-29T06:50:17Z</time>
      </trkpt>
      <trkpt lat="46.67885" lon="6.56203">
        <ele>448.8</ele>
        <time>2022-09-29T06:50:18Z</time>
      </trkpt>
      <trkpt lat="46.6789" lon="6.56205">
        <ele>448.8</ele>
        <time>2022-09-29T06:50:19Z</time>
      </trkpt>
      <trkpt lat="46.67894" lon="6.56207">
        <ele>448.8</ele>
        <time>2022-09-29T06:50:20Z</time>
      </trkpt>
      <trkpt lat="46.67899" lon="6.5621">
        <ele>448.9</ele>
        <time>2022-09-29T06:50:21Z</time>
      </trkpt>
      <trkpt lat="46.67903" lon="6.56212">
        <ele>448.9</ele>
        <time>2022-09-29T06:50:22Z</time>
      </trkpt>
      <trkpt lat="46.67908" lon="6.56215">
        <ele>448.9</ele>
        <time>2022-09-29T06:50:23Z</time>
      </trkpt>
      <trkpt lat="46.67912" lon="6.56218">
        <ele>449</ele>
        <time>2022-09-29T06:50:24Z</time>
      </trkpt>
      <trkpt lat="46.67917" lon="6.5622">
        <ele>449.1</ele>
        <time>2022-09-29T06:50:25Z</time>
      </trkpt>
      <trkpt lat="46.67921" lon="6.56223">
        <ele>449.1</ele>
        <time>2022-09-29T06:50:26Z</time>
      </trkpt>
      <trkpt lat="46.67926" lon="6.56225">
        <ele>449.2</ele>
        <time>2022-09-29T06:50:27Z</time>
      </trkpt>
      <trkpt lat="46.6793" lon="6.56228">
        <ele>449.2</ele>
        <time>2022-09-29T06:50:28Z</time>
      </trkpt>
      <trkpt lat="46.67934" lon="6.56231">
        <ele>449.3</ele>
        <time>2022-09-29T06:50:29Z</time>
      </trkpt>
      <trkpt lat="46.67938" lon="6.56233">
        <ele>449.4</ele>
        <time>2022-09-29T06:50:30Z</time>
      </trkpt>
      <trkpt lat="46.67942" lon="6.56236">
        <ele>449.5</ele>
        <time>2022-09-29T06:50:31Z</time>
      </trkpt>
      <trkpt lat="46.67946" lon="6.56238">
        <ele>449.6</ele>
        <time>2022-09-29T06:50:32Z</time>
      </trkpt>
      <trkpt lat="46.6795" lon="6.56241">
        <ele>449.7</ele>
        <time>2022-09-29T06:50:33Z</time>
      </trkpt>
      <trkpt lat="46.67954" lon="6.56244">
        <ele>449.8</ele>
        <time>2022-09-29T06:50:34Z</time>
      </trkpt>
      <trkpt lat="46.67958" lon="6.56247">
        <ele>449.8</ele>
        <time>2022-09-29T06:50:35Z</time>
      </trkpt>
      <trkpt lat="46.67962" lon="6.56249">
        <ele>450</ele>
        <time>2022-09-29T06:50:36Z</time>
      </trkpt>
      <trkpt lat="46.67965" lon="6.56252">
        <ele>450</ele>
        <time>2022-09-29T06:50:37Z</time>
      </trkpt>
      <trkpt lat="46.67968" lon="6.56254">
        <ele>450.1</ele>
        <time>2022-09-29T06:50:38Z</time>
      </trkpt>
      <trkpt lat="46.67972" lon="6.56257">
        <ele>450.2</ele>
        <time>2022-09-29T06:50:39Z</time>
      </trkpt>
      <trkpt lat="46.67975" lon="6.56259">
        <ele>450.3</ele>
        <time>2022-09-29T06:50:40Z</time>
      </trkpt>
      <trkpt lat="46.67978" lon="6.56261">
        <ele>450.4</ele>
        <time>2022-09-29T06:50:41Z</time>
      </trkpt>
      <trkpt lat="46.67981" lon="6.56263">
        <ele>450.5</ele>
        <time>2022-09-29T06:50:42Z</time>
      </trkpt>
      <trkpt lat="46.67984" lon="6.56265">
        <ele>450.5</ele>
        <time>2022-09-29T06:50:43Z</time>
      </trkpt>
      <trkpt lat="46.67988" lon="6.56267">
        <ele>450.6</ele>
        <time>2022-09-29T06:50:44Z</time>
      </trkpt>
      <trkpt lat="46.67991" lon="6.56269">
        <ele>450.6</ele>
        <time>2022-09-29T06:50:45Z</time>
      </trkpt>
      <trkpt lat="46.67994" lon="6.56272">
        <ele>450.6</ele>
        <time>2022-09-29T06:50:46Z</time>
      </trkpt>
      <trkpt lat="46.67997" lon="6.56275">
        <ele>450.6</ele>
        <time>2022-09-29T06:50:47Z</time>
      </trkpt>
      <trkpt lat="46.68001" lon="6.56277">
        <ele>450.6</ele>
        <time>2022-09-29T06:50:48Z</time>
      </trkpt>
      <trkpt lat="46.68004" lon="6.56279">
        <ele>450.6</ele>
        <time>2022-09-29T06:50:49Z</time>
      </trkpt>
      <trkpt lat="46.68006" lon="6.56281">
        <ele>450.7</ele>
        <time>2022-09-29T06:50:50Z</time>
      </trkpt>
      <trkpt lat="46.68009" lon="6.56283">
        <ele>450.7</ele>
        <time>2022-09-29T06:50:51Z</time>
      </trkpt>
      <trkpt lat="46.68012" lon="6.56285">
        <ele>450.7</ele>
        <time>2022-09-29T06:50:52Z</time>
      </trkpt>
      <trkpt lat="46.68015" lon="6.56287">
        <ele>450.7</ele>
        <time>2022-09-29T06:50:53Z</time>
      </trkpt>
      <trkpt lat="46.68018" lon="6.56289">
        <ele>450.7</ele>
        <time>2022-09-29T06:50:54Z</time>
      </trkpt>
      <trkpt lat="46.68021" lon="6.56291">
        <ele>450.8</ele>
        <time>2022-09-29T06:50:55Z</time>
      </trkpt>
      <trkpt lat="46.68025" lon="6.56293">
        <ele>450.8</ele>
        <time>2022-09-29T06:50:56Z</time>
      </trkpt>
      <trkpt lat="46.68028" lon="6.56295">
        <ele>450.8</ele>
        <time>2022-09-29T06:50:57Z</time>
      </trkpt>
      <trkpt lat="46.68032" lon="6.56297">
        <ele>450.8</ele>
        <time>2022-09-29T06:50:58Z</time>
      </trkpt>
      <trkpt lat="46.68035" lon="6.563">
        <ele>450.9</ele>
        <time>2022-09-29T06:50:59Z</time>
      </trkpt>
      <trkpt lat="46.68039" lon="6.56302">
        <ele>450.9</ele>
        <time>2022-09-29T06:51:00Z</time>
      </trkpt>
      <trkpt lat="46.68043" lon="6.56304">
        <ele>451</ele>
        <time>2022-09-29T06:51:01Z</time>
      </trkpt>
      <trkpt lat="46.68047" lon="6.56306">
        <ele>451</ele>
        <time>2022-09-29T06:51:02Z</time>
      </trkpt>
      <trkpt lat="46.68051" lon="6.56308">
        <ele>451.1</ele>
        <time>2022-09-29T06:51:03Z</time>
      </trkpt>
      <trkpt lat="46.68055" lon="6.56309">
        <ele>451.1</ele>
        <time>2022-09-29T06:51:04Z</time>
      </trkpt>
      <trkpt lat="46.68059" lon="6.5631">
        <ele>451.2</ele>
        <time>2022-09-29T06:51:05Z</time>
      </trkpt>
      <trkpt lat="46.68063" lon="6.56311">
        <ele>451.3</ele>
        <time>2022-09-29T06:51:06Z</time>
      </trkpt>
      <trkpt lat="46.68067" lon="6.56312">
        <ele>451.4</ele>
        <time>2022-09-29T06:51:07Z</time>
      </trkpt>
      <trkpt lat="46.68071" lon="6.56312">
        <ele>451.5</ele>
        <time>2022-09-29T06:51:08Z</time>
      </trkpt>
      <trkpt lat="46.68074" lon="6.56313">
        <ele>451.7</ele>
        <time>2022-09-29T06:51:09Z</time>
      </trkpt>
      <trkpt lat="46.68078" lon="6.56314">
        <ele>451.8</ele>
        <time>2022-09-29T06:51:10Z</time>
      </trkpt>
      <trkpt lat="46.68081" lon="6.56314">
        <ele>451.9</ele>
        <time>2022-09-29T06:51:11Z</time>
      </trkpt>
      <trkpt lat="46.68085" lon="6.56315">
        <ele>452</ele>
        <time>2022-09-29T06:51:12Z</time>
      </trkpt>
      <trkpt lat="46.68088" lon="6.56316">
        <ele>452.1</ele>
        <time>2022-09-29T06:51:13Z</time>
      </trkpt>
      <trkpt lat="46.68091" lon="6.56317">
        <ele>452.3</ele>
        <time>2022-09-29T06:51:14Z</time>
      </trkpt>
      <trkpt lat="46.68094" lon="6.56317">
        <ele>452.4</ele>
        <time>2022-09-29T06:51:15Z</time>
      </trkpt>
      <trkpt lat="46.68097" lon="6.56318">
        <ele>452.5</ele>
        <time>2022-09-29T06:51:16Z</time>
      </trkpt>
      <trkpt lat="46.681" lon="6.56319">
        <ele>452.6</ele>
        <time>2022-09-29T06:51:17Z</time>
      </trkpt>
      <trkpt lat="46.68103" lon="6.56319">
        <ele>452.8</ele>
        <time>2022-09-29T06:51:18Z</time>
      </trkpt>
      <trkpt lat="46.68106" lon="6.56321">
        <ele>452.9</ele>
        <time>2022-09-29T06:51:19Z</time>
      </trkpt>
      <trkpt lat="46.68109" lon="6.56322">
        <ele>453.1</ele>
        <time>2022-09-29T06:51:20Z</time>
      </trkpt>
      <trkpt lat="46.68113" lon="6.56324">
        <ele>453.2</ele>
        <time>2022-09-29T06:51:21Z</time>
      </trkpt>
      <trkpt lat="46.68114" lon="6.56325">
        <ele>453.3</ele>
        <time>2022-09-29T06:51:22Z</time>
      </trkpt>
      <trkpt lat="46.68117" lon="6.56328">
        <ele>453.5</ele>
        <time>2022-09-29T06:51:23Z</time>
      </trkpt>
      <trkpt lat="46.68119" lon="6.56329">
        <ele>453.6</ele>
        <time>2022-09-29T06:51:24Z</time>
      </trkpt>
      <trkpt lat="46.68121" lon="6.56331">
        <ele>453.7</ele>
        <time>2022-09-29T06:51:25Z</time>
      </trkpt>
      <trkpt lat="46.68125" lon="6.56334">
        <ele>453.9</ele>
        <time>2022-09-29T06:51:26Z</time>
      </trkpt>
      <trkpt lat="46.68126" lon="6.56335">
        <ele>454</ele>
        <time>2022-09-29T06:51:27Z</time>
      </trkpt>
      <trkpt lat="46.68128" lon="6.56337">
        <ele>454.1</ele>
        <time>2022-09-29T06:51:28Z</time>
      </trkpt>
      <trkpt lat="46.6813" lon="6.56339">
        <ele>454.2</ele>
        <time>2022-09-29T06:51:29Z</time>
      </trkpt>
      <trkpt lat="46.68133" lon="6.56341">
        <ele>454.4</ele>
        <time>2022-09-29T06:51:30Z</time>
      </trkpt>
      <trkpt lat="46.68135" lon="6.56344">
        <ele>454.5</ele>
        <time>2022-09-29T06:51:31Z</time>
      </trkpt>
      <trkpt lat="46.68137" lon="6.56346">
        <ele>454.7</ele>
        <time>2022-09-29T06:51:32Z</time>
      </trkpt>
      <trkpt lat="46.6814" lon="6.56349">
        <ele>454.8</ele>
        <time>2022-09-29T06:51:33Z</time>
      </trkpt>
      <trkpt lat="46.68142" lon="6.56352">
        <ele>455</ele>
        <time>2022-09-29T06:51:34Z</time>
      </trkpt>
      <trkpt lat="46.68144" lon="6.56354">
        <ele>455.1</ele>
        <time>2022-09-29T06:51:35Z</time>
      </trkpt>
      <trkpt lat="46.68147" lon="6.56358">
        <ele>455.3</ele>
        <time>2022-09-29T06:51:36Z</time>
      </trkpt>
      <trkpt lat="46.68147" lon="6.5636">
        <ele>455.4</ele>
        <time>2022-09-29T06:51:37Z</time>
      </trkpt>
      <trkpt lat="46.6815" lon="6.56363">
        <ele>455.6</ele>
        <time>2022-09-29T06:51:38Z</time>
      </trkpt>
      <trkpt lat="46.68151" lon="6.56364">
        <ele>455.7</ele>
        <time>2022-09-29T06:51:39Z</time>
      </trkpt>
      <trkpt lat="46.68154" lon="6.56368">
        <ele>455.9</ele>
        <time>2022-09-29T06:51:40Z</time>
      </trkpt>
      <trkpt lat="46.68155" lon="6.56369">
        <ele>456</ele>
        <time>2022-09-29T06:51:41Z</time>
      </trkpt>
      <trkpt lat="46.68157" lon="6.56372">
        <ele>456.1</ele>
        <time>2022-09-29T06:51:42Z</time>
      </trkpt>
      <trkpt lat="46.68159" lon="6.56377">
        <ele>456.4</ele>
        <time>2022-09-29T06:51:43Z</time>
      </trkpt>
      <trkpt lat="46.6816" lon="6.56378">
        <ele>456.4</ele>
        <time>2022-09-29T06:51:44Z</time>
      </trkpt>
      <trkpt lat="46.68162" lon="6.56382">
        <ele>456.6</ele>
        <time>2022-09-29T06:51:45Z</time>
      </trkpt>
      <trkpt lat="46.68162" lon="6.56384">
        <ele>456.7</ele>
        <time>2022-09-29T06:51:46Z</time>
      </trkpt>
      <trkpt lat="46.68164" lon="6.56388">
        <ele>456.9</ele>
        <time>2022-09-29T06:51:47Z</time>
      </trkpt>
      <trkpt lat="46.68164" lon="6.56389">
        <ele>456.9</ele>
        <time>2022-09-29T06:51:48Z</time>
      </trkpt>
      <trkpt lat="46.68166" lon="6.56393">
        <ele>457.1</ele>
        <time>2022-09-29T06:51:49Z</time>
      </trkpt>
      <trkpt lat="46.68166" lon="6.56394">
        <ele>457.2</ele>
        <time>2022-09-29T06:51:50Z</time>
      </trkpt>
      <trkpt lat="46.68168" lon="6.56397">
        <ele>457.3</ele>
        <time>2022-09-29T06:51:51Z</time>
      </trkpt>
      <trkpt lat="46.68168" lon="6.56399">
        <ele>457.4</ele>
        <time>2022-09-29T06:51:52Z</time>
      </trkpt>
      <trkpt lat="46.6817" lon="6.56402">
        <ele>457.5</ele>
        <time>2022-09-29T06:51:53Z</time>
      </trkpt>
      <trkpt lat="46.6817" lon="6.56403">
        <ele>457.6</ele>
        <time>2022-09-29T06:51:54Z</time>
      </trkpt>
      <trkpt lat="46.68171" lon="6.56406">
        <ele>457.7</ele>
        <time>2022-09-29T06:51:55Z</time>
      </trkpt>
      <trkpt lat="46.68171" lon="6.56408">
        <ele>457.8</ele>
        <time>2022-09-29T06:51:56Z</time>
      </trkpt>
      <trkpt lat="46.68172" lon="6.56412">
        <ele>457.9</ele>
        <time>2022-09-29T06:51:57Z</time>
      </trkpt>
      <trkpt lat="46.68173" lon="6.56413">
        <ele>457.9</ele>
        <time>2022-09-29T06:51:58Z</time>
      </trkpt>
      <trkpt lat="46.68174" lon="6.56417">
        <ele>457.9</ele>
        <time>2022-09-29T06:51:59Z</time>
      </trkpt>
      <trkpt lat="46.68174" lon="6.56418">
        <ele>458</ele>
        <time>2022-09-29T06:52:00Z</time>
      </trkpt>
      <trkpt lat="46.68177" lon="6.56422">
        <ele>458.1</ele>
        <time>2022-09-29T06:52:01Z</time>
      </trkpt>
      <trkpt lat="46.68177" lon="6.56423">
        <ele>458.1</ele>
        <time>2022-09-29T06:52:02Z</time>
      </trkpt>
      <trkpt lat="46.6818" lon="6.56426">
        <ele>458.3</ele>
        <time>2022-09-29T06:52:03Z</time>
      </trkpt>
      <trkpt lat="46.6818" lon="6.56427">
        <ele>458.3</ele>
        <time>2022-09-29T06:52:04Z</time>
      </trkpt>
      <trkpt lat="46.68182" lon="6.56431">
        <ele>458.4</ele>
        <time>2022-09-29T06:52:05Z</time>
      </trkpt>
      <trkpt lat="46.68182" lon="6.56433">
        <ele>458.5</ele>
        <time>2022-09-29T06:52:06Z</time>
      </trkpt>
      <trkpt lat="46.68183" lon="6.56436">
        <ele>458.6</ele>
        <time>2022-09-29T06:52:07Z</time>
      </trkpt>
      <trkpt lat="46.68184" lon="6.56438">
        <ele>458.6</ele>
        <time>2022-09-29T06:52:08Z</time>
      </trkpt>
      <trkpt lat="46.68186" lon="6.56442">
        <ele>458.8</ele>
        <time>2022-09-29T06:52:09Z</time>
      </trkpt>
      <trkpt lat="46.68187" lon="6.56443">
        <ele>458.8</ele>
        <time>2022-09-29T06:52:10Z</time>
      </trkpt>
      <trkpt lat="46.68189" lon="6.56446">
        <ele>458.9</ele>
        <time>2022-09-29T06:52:11Z</time>
      </trkpt>
      <trkpt lat="46.6819" lon="6.56447">
        <ele>459</ele>
        <time>2022-09-29T06:52:12Z</time>
      </trkpt>
      <trkpt lat="46.68191" lon="6.56449">
        <ele>459</ele>
        <time>2022-09-29T06:52:13Z</time>
      </trkpt>
      <trkpt lat="46.68192" lon="6.56451">
        <ele>459.1</ele>
        <time>2022-09-29T06:52:14Z</time>
      </trkpt>
      <trkpt lat="46.68193" lon="6.56453">
        <ele>459.1</ele>
        <time>2022-09-29T06:52:15Z</time>
      </trkpt>
      <trkpt lat="46.68194" lon="6.56454">
        <ele>459.2</ele>
        <time>2022-09-29T06:52:16Z</time>
      </trkpt>
      <trkpt lat="46.68196" lon="6.56457">
        <ele>459.3</ele>
        <time>2022-09-29T06:52:17Z</time>
      </trkpt>
      <trkpt lat="46.68197" lon="6.56458">
        <ele>459.3</ele>
        <time>2022-09-29T06:52:18Z</time>
      </trkpt>
      <trkpt lat="46.68198" lon="6.56459">
        <ele>459.3</ele>
        <time>2022-09-29T06:52:19Z</time>
      </trkpt>
      <trkpt lat="46.682" lon="6.56461">
        <ele>459.4</ele>
        <time>2022-09-29T06:52:20Z</time>
      </trkpt>
      <trkpt lat="46.68202" lon="6.56463">
        <ele>459.4</ele>
        <time>2022-09-29T06:52:21Z</time>
      </trkpt>
      <trkpt lat="46.68203" lon="6.56464">
        <ele>459.4</ele>
        <time>2022-09-29T06:52:22Z</time>
      </trkpt>
      <trkpt lat="46.68204" lon="6.56466">
        <ele>459.5</ele>
        <time>2022-09-29T06:52:23Z</time>
      </trkpt>
      <trkpt lat="46.68205" lon="6.56467">
        <ele>459.5</ele>
        <time>2022-09-29T06:52:24Z</time>
      </trkpt>
      <trkpt lat="46.68207" lon="6.56468">
        <ele>459.5</ele>
        <time>2022-09-29T06:52:25Z</time>
      </trkpt>
      <trkpt lat="46.68208" lon="6.56469">
        <ele>459.6</ele>
        <time>2022-09-29T06:52:26Z</time>
      </trkpt>
      <trkpt lat="46.6821" lon="6.56472">
        <ele>459.6</ele>
        <time>2022-09-29T06:52:27Z</time>
      </trkpt>
      <trkpt lat="46.68211" lon="6.56473">
        <ele>459.6</ele>
        <time>2022-09-29T06:52:28Z</time>
      </trkpt>
      <trkpt lat="46.68213" lon="6.56476">
        <ele>459.7</ele>
        <time>2022-09-29T06:52:29Z</time>
      </trkpt>
      <trkpt lat="46.68214" lon="6.56476">
        <ele>459.7</ele>
        <time>2022-09-29T06:52:30Z</time>
      </trkpt>
      <trkpt lat="46.68216" lon="6.56479">
        <ele>459.8</ele>
        <time>2022-09-29T06:52:31Z</time>
      </trkpt>
      <trkpt lat="46.68217" lon="6.56479">
        <ele>459.8</ele>
        <time>2022-09-29T06:52:32Z</time>
      </trkpt>
      <trkpt lat="46.68218" lon="6.5648">
        <ele>459.8</ele>
        <time>2022-09-29T06:52:33Z</time>
      </trkpt>
      <trkpt lat="46.6822" lon="6.56482">
        <ele>459.8</ele>
        <time>2022-09-29T06:52:34Z</time>
      </trkpt>
      <trkpt lat="46.68221" lon="6.56483">
        <ele>459.8</ele>
        <time>2022-09-29T06:52:35Z</time>
      </trkpt>
      <trkpt lat="46.68222" lon="6.56483">
        <ele>459.9</ele>
        <time>2022-09-29T06:52:36Z</time>
      </trkpt>
      <trkpt lat="46.68223" lon="6.56485">
        <ele>459.9</ele>
        <time>2022-09-29T06:52:37Z</time>
      </trkpt>
      <trkpt lat="46.68225" lon="6.56486">
        <ele>459.9</ele>
        <time>2022-09-29T06:52:38Z</time>
      </trkpt>
      <trkpt lat="46.68227" lon="6.56489">
        <ele>459.9</ele>
        <time>2022-09-29T06:52:39Z</time>
      </trkpt>
      <trkpt lat="46.68227" lon="6.5649">
        <ele>459.9</ele>
        <time>2022-09-29T06:52:40Z</time>
      </trkpt>
      <trkpt lat="46.68227" lon="6.56491">
        <ele>459.9</ele>
        <time>2022-09-29T06:52:41Z</time>
      </trkpt>
      <trkpt lat="46.68228" lon="6.56492">
        <ele>460</ele>
        <time>2022-09-29T06:52:42Z</time>
      </trkpt>
      <trkpt lat="46.68228" lon="6.56493">
        <ele>460</ele>
        <time>2022-09-29T06:52:43Z</time>
      </trkpt>
      <trkpt lat="46.68227" lon="6.56493">
        <ele>460</ele>
        <time>2022-09-29T06:52:44Z</time>
      </trkpt>
      <trkpt lat="46.68228" lon="6.56493">
        <ele>460</ele>
        <time>2022-09-29T06:52:45Z</time>
      </trkpt>
      <trkpt lat="46.68227" lon="6.56494">
        <ele>460</ele>
        <time>2022-09-29T06:52:46Z</time>
      </trkpt>
      <trkpt lat="46.68227" lon="6.56494">
        <ele>460</ele>
        <time>2022-09-29T06:52:47Z</time>
      </trkpt>
      <trkpt lat="46.68227" lon="6.56494">
        <ele>460</ele>
        <time>2022-09-29T06:52:48Z</time>
      </trkpt>
      <trkpt lat="46.68227" lon="6.56495">
        <ele>460</ele>
        <time>2022-09-29T06:52:49Z</time>
      </trkpt>
      <trkpt lat="46.68227" lon="6.56496">
        <ele>460</ele>
        <time>2022-09-29T06:52:50Z</time>
      </trkpt>
      <trkpt lat="46.68234" lon="6.56507">
        <ele>460</ele>
        <time>2022-09-29T06:52:58Z</time>
      </trkpt>
      <trkpt lat="46.68237" lon="6.56508">
        <ele>460</ele>
        <time>2022-09-29T06:52:59Z</time>
      </trkpt>
      <trkpt lat="46.6824" lon="6.56509">
        <ele>459.9</ele>
        <time>2022-09-29T06:53:00Z</time>
      </trkpt>
      <trkpt lat="46.68244" lon="6.56508">
        <ele>459.9</ele>
        <time>2022-09-29T06:53:01Z</time>
      </trkpt>
      <trkpt lat="46.68248" lon="6.56507">
        <ele>459.7</ele>
        <time>2022-09-29T06:53:02Z</time>
      </trkpt>
      <trkpt lat="46.68251" lon="6.56507">
        <ele>459.6</ele>
        <time>2022-09-29T06:53:03Z</time>
      </trkpt>
      <trkpt lat="46.68255" lon="6.56506">
        <ele>459.4</ele>
        <time>2022-09-29T06:53:04Z</time>
      </trkpt>
      <trkpt lat="46.68258" lon="6.56506">
        <ele>459.3</ele>
        <time>2022-09-29T06:53:05Z</time>
      </trkpt>
      <trkpt lat="46.68263" lon="6.56505">
        <ele>459.1</ele>
        <time>2022-09-29T06:53:06Z</time>
      </trkpt>
      <trkpt lat="46.68266" lon="6.56504">
        <ele>459</ele>
        <time>2022-09-29T06:53:07Z</time>
      </trkpt>
      <trkpt lat="46.68271" lon="6.56503">
        <ele>458.8</ele>
        <time>2022-09-29T06:53:08Z</time>
      </trkpt>
      <trkpt lat="46.68276" lon="6.56503">
        <ele>458.6</ele>
        <time>2022-09-29T06:53:09Z</time>
      </trkpt>
      <trkpt lat="46.68281" lon="6.56502">
        <ele>458.4</ele>
        <time>2022-09-29T06:53:10Z</time>
      </trkpt>
      <trkpt lat="46.68286" lon="6.56501">
        <ele>458.2</ele>
        <time>2022-09-29T06:53:11Z</time>
      </trkpt>
      <trkpt lat="46.68291" lon="6.56501">
        <ele>458</ele>
        <time>2022-09-29T06:53:12Z</time>
      </trkpt>
      <trkpt lat="46.68296" lon="6.565">
        <ele>457.7</ele>
        <time>2022-09-29T06:53:13Z</time>
      </trkpt>
      <trkpt lat="46.68301" lon="6.56499">
        <ele>457.5</ele>
        <time>2022-09-29T06:53:14Z</time>
      </trkpt>
      <trkpt lat="46.68306" lon="6.56498">
        <ele>457.3</ele>
        <time>2022-09-29T06:53:15Z</time>
      </trkpt>
      <trkpt lat="46.68312" lon="6.56497">
        <ele>457</ele>
        <time>2022-09-29T06:53:16Z</time>
      </trkpt>
      <trkpt lat="46.68319" lon="6.56497">
        <ele>456.7</ele>
        <time>2022-09-29T06:53:17Z</time>
      </trkpt>
      <trkpt lat="46.68325" lon="6.56495">
        <ele>456.4</ele>
        <time>2022-09-29T06:53:18Z</time>
      </trkpt>
      <trkpt lat="46.68331" lon="6.56495">
        <ele>456.1</ele>
        <time>2022-09-29T06:53:19Z</time>
      </trkpt>
      <trkpt lat="46.68338" lon="6.56495">
        <ele>455.9</ele>
        <time>2022-09-29T06:53:20Z</time>
      </trkpt>
      <trkpt lat="46.68345" lon="6.56495">
        <ele>455.6</ele>
        <time>2022-09-29T06:53:21Z</time>
      </trkpt>
      <trkpt lat="46.68351" lon="6.56494">
        <ele>455.3</ele>
        <time>2022-09-29T06:53:22Z</time>
      </trkpt>
      <trkpt lat="46.68357" lon="6.56493">
        <ele>455.1</ele>
        <time>2022-09-29T06:53:23Z</time>
      </trkpt>
      <trkpt lat="46.68364" lon="6.56492">
        <ele>454.8</ele>
        <time>2022-09-29T06:53:24Z</time>
      </trkpt>
      <trkpt lat="46.6837" lon="6.56491">
        <ele>454.6</ele>
        <time>2022-09-29T06:53:25Z</time>
      </trkpt>
      <trkpt lat="46.68376" lon="6.5649">
        <ele>454.4</ele>
        <time>2022-09-29T06:53:26Z</time>
      </trkpt>
      <trkpt lat="46.68383" lon="6.5649">
        <ele>454.2</ele>
        <time>2022-09-29T06:53:27Z</time>
      </trkpt>
      <trkpt lat="46.68389" lon="6.56489">
        <ele>454</ele>
        <time>2022-09-29T06:53:28Z</time>
      </trkpt>
      <trkpt lat="46.68396" lon="6.56488">
        <ele>453.8</ele>
        <time>2022-09-29T06:53:29Z</time>
      </trkpt>
      <trkpt lat="46.68402" lon="6.56487">
        <ele>453.6</ele>
        <time>2022-09-29T06:53:30Z</time>
      </trkpt>
      <trkpt lat="46.68408" lon="6.56486">
        <ele>453.5</ele>
        <time>2022-09-29T06:53:31Z</time>
      </trkpt>
      <trkpt lat="46.68413" lon="6.56486">
        <ele>453.3</ele>
        <time>2022-09-29T06:53:32Z</time>
      </trkpt>
      <trkpt lat="46.68419" lon="6.56485">
        <ele>453.2</ele>
        <time>2022-09-29T06:53:33Z</time>
      </trkpt>
      <trkpt lat="46.68424" lon="6.56485">
        <ele>453</ele>
        <time>2022-09-29T06:53:34Z</time>
      </trkpt>
      <trkpt lat="46.68429" lon="6.56484">
        <ele>452.9</ele>
        <time>2022-09-29T06:53:35Z</time>
      </trkpt>
      <trkpt lat="46.68434" lon="6.56484">
        <ele>452.7</ele>
        <time>2022-09-29T06:53:36Z</time>
      </trkpt>
      <trkpt lat="46.68438" lon="6.56484">
        <ele>452.6</ele>
        <time>2022-09-29T06:53:37Z</time>
      </trkpt>
      <trkpt lat="46.68442" lon="6.56483">
        <ele>452.5</ele>
        <time>2022-09-29T06:53:38Z</time>
      </trkpt>
      <trkpt lat="46.68445" lon="6.56483">
        <ele>452.4</ele>
        <time>2022-09-29T06:53:39Z</time>
      </trkpt>
      <trkpt lat="46.68449" lon="6.56482">
        <ele>452.3</ele>
        <time>2022-09-29T06:53:40Z</time>
      </trkpt>
      <trkpt lat="46.68453" lon="6.56483">
        <ele>452.1</ele>
        <time>2022-09-29T06:53:41Z</time>
      </trkpt>
      <trkpt lat="46.68457" lon="6.56483">
        <ele>452</ele>
        <time>2022-09-29T06:53:42Z</time>
      </trkpt>
      <trkpt lat="46.68461" lon="6.56483">
        <ele>451.8</ele>
        <time>2022-09-29T06:53:43Z</time>
      </trkpt>
      <trkpt lat="46.68465" lon="6.56483">
        <ele>451.7</ele>
        <time>2022-09-29T06:53:44Z</time>
      </trkpt>
      <trkpt lat="46.68469" lon="6.56483">
        <ele>451.5</ele>
        <time>2022-09-29T06:53:45Z</time>
      </trkpt>
      <trkpt lat="46.68474" lon="6.56484">
        <ele>451.3</ele>
        <time>2022-09-29T06:53:46Z</time>
      </trkpt>
      <trkpt lat="46.68478" lon="6.56485">
        <ele>451.1</ele>
        <time>2022-09-29T06:53:47Z</time>
      </trkpt>
      <trkpt lat="46.68483" lon="6.56486">
        <ele>450.9</ele>
        <time>2022-09-29T06:53:48Z</time>
      </trkpt>
      <trkpt lat="46.68487" lon="6.56488">
        <ele>450.7</ele>
        <time>2022-09-29T06:53:49Z</time>
      </trkpt>
      <trkpt lat="46.68491" lon="6.5649">
        <ele>450.5</ele>
        <time>2022-09-29T06:53:50Z</time>
      </trkpt>
      <trkpt lat="46.68495" lon="6.56491">
        <ele>450.3</ele>
        <time>2022-09-29T06:53:51Z</time>
      </trkpt>
      <trkpt lat="46.68499" lon="6.56493">
        <ele>450.1</ele>
        <time>2022-09-29T06:53:52Z</time>
      </trkpt>
      <trkpt lat="46.68503" lon="6.56495">
        <ele>450</ele>
        <time>2022-09-29T06:53:53Z</time>
      </trkpt>
      <trkpt lat="46.68506" lon="6.56496">
        <ele>449.8</ele>
        <time>2022-09-29T06:53:54Z</time>
      </trkpt>
      <trkpt lat="46.6851" lon="6.56498">
        <ele>449.7</ele>
        <time>2022-09-29T06:53:55Z</time>
      </trkpt>
      <trkpt lat="46.68514" lon="6.565">
        <ele>449.6</ele>
        <time>2022-09-29T06:53:56Z</time>
      </trkpt>
      <trkpt lat="46.68518" lon="6.56502">
        <ele>449.5</ele>
        <time>2022-09-29T06:53:57Z</time>
      </trkpt>
      <trkpt lat="46.68521" lon="6.56504">
        <ele>449.4</ele>
        <time>2022-09-29T06:53:58Z</time>
      </trkpt>
      <trkpt lat="46.68524" lon="6.56507">
        <ele>449.3</ele>
        <time>2022-09-29T06:53:59Z</time>
      </trkpt>
      <trkpt lat="46.68527" lon="6.56508">
        <ele>449.2</ele>
        <time>2022-09-29T06:54:00Z</time>
      </trkpt>
      <trkpt lat="46.68531" lon="6.56511">
        <ele>449.1</ele>
        <time>2022-09-29T06:54:01Z</time>
      </trkpt>
      <trkpt lat="46.68536" lon="6.56513">
        <ele>449</ele>
        <time>2022-09-29T06:54:02Z</time>
      </trkpt>
      <trkpt lat="46.6854" lon="6.56515">
        <ele>448.9</ele>
        <time>2022-09-29T06:54:03Z</time>
      </trkpt>
      <trkpt lat="46.68544" lon="6.56517">
        <ele>448.8</ele>
        <time>2022-09-29T06:54:04Z</time>
      </trkpt>
      <trkpt lat="46.68549" lon="6.56519">
        <ele>448.8</ele>
        <time>2022-09-29T06:54:05Z</time>
      </trkpt>
      <trkpt lat="46.68554" lon="6.56521">
        <ele>448.7</ele>
        <time>2022-09-29T06:54:06Z</time>
      </trkpt>
      <trkpt lat="46.6856" lon="6.56522">
        <ele>448.6</ele>
        <time>2022-09-29T06:54:07Z</time>
      </trkpt>
      <trkpt lat="46.68565" lon="6.56524">
        <ele>448.6</ele>
        <time>2022-09-29T06:54:08Z</time>
      </trkpt>
      <trkpt lat="46.6857" lon="6.56527">
        <ele>448.5</ele>
        <time>2022-09-29T06:54:09Z</time>
      </trkpt>
      <trkpt lat="46.68574" lon="6.56529">
        <ele>448.5</ele>
        <time>2022-09-29T06:54:10Z</time>
      </trkpt>
      <trkpt lat="46.68579" lon="6.5653">
        <ele>448.4</ele>
        <time>2022-09-29T06:54:11Z</time>
      </trkpt>
      <trkpt lat="46.68583" lon="6.56532">
        <ele>448.4</ele>
        <time>2022-09-29T06:54:12Z</time>
      </trkpt>
      <trkpt lat="46.68587" lon="6.56533">
        <ele>448.4</ele>
        <time>2022-09-29T06:54:13Z</time>
      </trkpt>
      <trkpt lat="46.68591" lon="6.56535">
        <ele>448.3</ele>
        <time>2022-09-29T06:54:14Z</time>
      </trkpt>
      <trkpt lat="46.68595" lon="6.56537">
        <ele>448.3</ele>
        <time>2022-09-29T06:54:15Z</time>
      </trkpt>
      <trkpt lat="46.68599" lon="6.56539">
        <ele>448.3</ele>
        <time>2022-09-29T06:54:16Z</time>
      </trkpt>
      <trkpt lat="46.68603" lon="6.5654">
        <ele>448.3</ele>
        <time>2022-09-29T06:54:17Z</time>
      </trkpt>
      <trkpt lat="46.68607" lon="6.56541">
        <ele>448.3</ele>
        <time>2022-09-29T06:54:18Z</time>
      </trkpt>
      <trkpt lat="46.68611" lon="6.56543">
        <ele>448.4</ele>
        <time>2022-09-29T06:54:19Z</time>
      </trkpt>
      <trkpt lat="46.68615" lon="6.56545">
        <ele>448.4</ele>
        <time>2022-09-29T06:54:20Z</time>
      </trkpt>
      <trkpt lat="46.68619" lon="6.56548">
        <ele>448.5</ele>
        <time>2022-09-29T06:54:21Z</time>
      </trkpt>
      <trkpt lat="46.68623" lon="6.5655">
        <ele>448.6</ele>
        <time>2022-09-29T06:54:22Z</time>
      </trkpt>
      <trkpt lat="46.68627" lon="6.56552">
        <ele>448.6</ele>
        <time>2022-09-29T06:54:23Z</time>
      </trkpt>
      <trkpt lat="46.6863" lon="6.56554">
        <ele>448.6</ele>
        <time>2022-09-29T06:54:24Z</time>
      </trkpt>
      <trkpt lat="46.68634" lon="6.56555">
        <ele>448.7</ele>
        <time>2022-09-29T06:54:25Z</time>
      </trkpt>
      <trkpt lat="46.68638" lon="6.56557">
        <ele>448.7</ele>
        <time>2022-09-29T06:54:26Z</time>
      </trkpt>
      <trkpt lat="46.68642" lon="6.56559">
        <ele>448.8</ele>
        <time>2022-09-29T06:54:27Z</time>
      </trkpt>
      <trkpt lat="46.68646" lon="6.5656">
        <ele>448.8</ele>
        <time>2022-09-29T06:54:28Z</time>
      </trkpt>
      <trkpt lat="46.6865" lon="6.56562">
        <ele>448.9</ele>
        <time>2022-09-29T06:54:29Z</time>
      </trkpt>
      <trkpt lat="46.68654" lon="6.56564">
        <ele>448.9</ele>
        <time>2022-09-29T06:54:30Z</time>
      </trkpt>
      <trkpt lat="46.68658" lon="6.56566">
        <ele>449</ele>
        <time>2022-09-29T06:54:31Z</time>
      </trkpt>
      <trkpt lat="46.68662" lon="6.56568">
        <ele>449</ele>
        <time>2022-09-29T06:54:32Z</time>
      </trkpt>
      <trkpt lat="46.68666" lon="6.56571">
        <ele>449.1</ele>
        <time>2022-09-29T06:54:33Z</time>
      </trkpt>
      <trkpt lat="46.6867" lon="6.56573">
        <ele>449.1</ele>
        <time>2022-09-29T06:54:34Z</time>
      </trkpt>
      <trkpt lat="46.68673" lon="6.56575">
        <ele>449.2</ele>
        <time>2022-09-29T06:54:35Z</time>
      </trkpt>
      <trkpt lat="46.68677" lon="6.56577">
        <ele>449.2</ele>
        <time>2022-09-29T06:54:36Z</time>
      </trkpt>
      <trkpt lat="46.68681" lon="6.56578">
        <ele>449.2</ele>
        <time>2022-09-29T06:54:37Z</time>
      </trkpt>
      <trkpt lat="46.68684" lon="6.5658">
        <ele>449.3</ele>
        <time>2022-09-29T06:54:38Z</time>
      </trkpt>
      <trkpt lat="46.68688" lon="6.56582">
        <ele>449.3</ele>
        <time>2022-09-29T06:54:39Z</time>
      </trkpt>
      <trkpt lat="46.68691" lon="6.56584">
        <ele>449.3</ele>
        <time>2022-09-29T06:54:40Z</time>
      </trkpt>
      <trkpt lat="46.68695" lon="6.56585">
        <ele>449.3</ele>
        <time>2022-09-29T06:54:41Z</time>
      </trkpt>
      <trkpt lat="46.68699" lon="6.56587">
        <ele>449.4</ele>
        <time>2022-09-29T06:54:42Z</time>
      </trkpt>
      <trkpt lat="46.68703" lon="6.56589">
        <ele>449.4</ele>
        <time>2022-09-29T06:54:43Z</time>
      </trkpt>
      <trkpt lat="46.68707" lon="6.56591">
        <ele>449.4</ele>
        <time>2022-09-29T06:54:44Z</time>
      </trkpt>
      <trkpt lat="46.6871" lon="6.56592">
        <ele>449.4</ele>
        <time>2022-09-29T06:54:45Z</time>
      </trkpt>
      <trkpt lat="46.68714" lon="6.56594">
        <ele>449.4</ele>
        <time>2022-09-29T06:54:46Z</time>
      </trkpt>
      <trkpt lat="46.68718" lon="6.56595">
        <ele>449.4</ele>
        <time>2022-09-29T06:54:47Z</time>
      </trkpt>
      <trkpt lat="46.68722" lon="6.56597">
        <ele>449.5</ele>
        <time>2022-09-29T06:54:48Z</time>
      </trkpt>
      <trkpt lat="46.68726" lon="6.56599">
        <ele>449.5</ele>
        <time>2022-09-29T06:54:49Z</time>
      </trkpt>
      <trkpt lat="46.68729" lon="6.566">
        <ele>449.5</ele>
        <time>2022-09-29T06:54:50Z</time>
      </trkpt>
      <trkpt lat="46.68733" lon="6.56602">
        <ele>449.6</ele>
        <time>2022-09-29T06:54:51Z</time>
      </trkpt>
      <trkpt lat="46.68737" lon="6.56603">
        <ele>449.6</ele>
        <time>2022-09-29T06:54:52Z</time>
      </trkpt>
      <trkpt lat="46.6874" lon="6.56605">
        <ele>449.6</ele>
        <time>2022-09-29T06:54:53Z</time>
      </trkpt>
      <trkpt lat="46.68744" lon="6.56606">
        <ele>449.6</ele>
        <time>2022-09-29T06:54:54Z</time>
      </trkpt>
      <trkpt lat="46.68747" lon="6.56608">
        <ele>449.6</ele>
        <time>2022-09-29T06:54:55Z</time>
      </trkpt>
      <trkpt lat="46.68749" lon="6.56609">
        <ele>449.7</ele>
        <time>2022-09-29T06:54:56Z</time>
      </trkpt>
      <trkpt lat="46.68753" lon="6.56611">
        <ele>449.7</ele>
        <time>2022-09-29T06:54:57Z</time>
      </trkpt>
      <trkpt lat="46.68754" lon="6.56612">
        <ele>449.7</ele>
        <time>2022-09-29T06:54:58Z</time>
      </trkpt>
      <trkpt lat="46.68755" lon="6.56612">
        <ele>449.7</ele>
        <time>2022-09-29T06:54:59Z</time>
      </trkpt>
      <trkpt lat="46.68755" lon="6.56612">
        <ele>449.7</ele>
        <time>2022-09-29T06:55:00Z</time>
      </trkpt>
      <trkpt lat="46.68755" lon="6.56612">
        <ele>449.7</ele>
        <time>2022-09-29T06:55:01Z</time>
      </trkpt>
      <trkpt lat="46.68755" lon="6.56612">
        <ele>449.7</ele>
        <time>2022-09-29T06:55:02Z</time>
      </trkpt>
      <trkpt lat="46.68755" lon="6.56612">
        <ele>449.7</ele>
        <time>2022-09-29T06:55:03Z</time>
      </trkpt>
      <trkpt lat="46.68755" lon="6.56612">
        <ele>449.7</ele>
        <time>2022-09-29T06:55:04Z</time>
      </trkpt>
      <trkpt lat="46.68755" lon="6.56612">
        <ele>449.7</ele>
        <time>2022-09-29T06:55:05Z</time>
      </trkpt>
      <trkpt lat="46.68755" lon="6.56612">
        <ele>449.7</ele>
        <time>2022-09-29T06:55:06Z</time>
      </trkpt>
      <trkpt lat="46.68755" lon="6.56612">
        <ele>449.7</ele>
        <time>2022-09-29T06:55:07Z</time>
      </trkpt>
      <trkpt lat="46.68754" lon="6.56612">
        <ele>449.7</ele>
        <time>2022-09-29T06:55:08Z</time>
      </trkpt>
      <trkpt lat="46.68754" lon="6.56612">
        <ele>449.7</ele>
        <time>2022-09-29T06:55:09Z</time>
      </trkpt>
      <trkpt lat="46.68763" lon="6.56614">
        <ele>449.8</ele>
        <time>2022-09-29T06:59:10Z</time>
      </trkpt>
      <trkpt lat="46.68766" lon="6.56616">
        <ele>449.8</ele>
        <time>2022-09-29T06:59:11Z</time>
      </trkpt>
      <trkpt lat="46.68769" lon="6.56616">
        <ele>449.8</ele>
        <time>2022-09-29T06:59:12Z</time>
      </trkpt>
      <trkpt lat="46.68773" lon="6.56617">
        <ele>449.8</ele>
        <time>2022-09-29T06:59:13Z</time>
      </trkpt>
      <trkpt lat="46.68776" lon="6.5662">
        <ele>449.8</ele>
        <time>2022-09-29T06:59:14Z</time>
      </trkpt>
      <trkpt lat="46.6878" lon="6.56621">
        <ele>449.9</ele>
        <time>2022-09-29T06:59:15Z</time>
      </trkpt>
      <trkpt lat="46.68783" lon="6.56621">
        <ele>449.9</ele>
        <time>2022-09-29T06:59:16Z</time>
      </trkpt>
      <trkpt lat="46.68786" lon="6.56622">
        <ele>449.9</ele>
        <time>2022-09-29T06:59:17Z</time>
      </trkpt>
      <trkpt lat="46.6879" lon="6.56623">
        <ele>449.9</ele>
        <time>2022-09-29T06:59:18Z</time>
      </trkpt>
      <trkpt lat="46.68793" lon="6.56624">
        <ele>449.9</ele>
        <time>2022-09-29T06:59:19Z</time>
      </trkpt>
      <trkpt lat="46.68798" lon="6.56626">
        <ele>450</ele>
        <time>2022-09-29T06:59:20Z</time>
      </trkpt>
      <trkpt lat="46.68801" lon="6.56628">
        <ele>450</ele>
        <time>2022-09-29T06:59:21Z</time>
      </trkpt>
      <trkpt lat="46.68805" lon="6.5663">
        <ele>450</ele>
        <time>2022-09-29T06:59:22Z</time>
      </trkpt>
      <trkpt lat="46.6881" lon="6.56631">
        <ele>450</ele>
        <time>2022-09-29T06:59:23Z</time>
      </trkpt>
      <trkpt lat="46.68814" lon="6.56632">
        <ele>450.1</ele>
        <time>2022-09-29T06:59:24Z</time>
      </trkpt>
      <trkpt lat="46.68818" lon="6.56634">
        <ele>450.1</ele>
        <time>2022-09-29T06:59:25Z</time>
      </trkpt>
      <trkpt lat="46.68822" lon="6.56635">
        <ele>450.1</ele>
        <time>2022-09-29T06:59:26Z</time>
      </trkpt>
      <trkpt lat="46.68825" lon="6.56636">
        <ele>450.2</ele>
        <time>2022-09-29T06:59:27Z</time>
      </trkpt>
      <trkpt lat="46.68828" lon="6.56637">
        <ele>450.2</ele>
        <time>2022-09-29T06:59:28Z</time>
      </trkpt>
      <trkpt lat="46.68832" lon="6.56639">
        <ele>450.3</ele>
        <time>2022-09-29T06:59:29Z</time>
      </trkpt>
      <trkpt lat="46.68836" lon="6.5664">
        <ele>450.3</ele>
        <time>2022-09-29T06:59:30Z</time>
      </trkpt>
      <trkpt lat="46.68839" lon="6.56641">
        <ele>450.3</ele>
        <time>2022-09-29T06:59:31Z</time>
      </trkpt>
      <trkpt lat="46.68843" lon="6.56643">
        <ele>450.4</ele>
        <time>2022-09-29T06:59:32Z</time>
      </trkpt>
      <trkpt lat="46.68847" lon="6.56644">
        <ele>450.4</ele>
        <time>2022-09-29T06:59:33Z</time>
      </trkpt>
      <trkpt lat="46.6885" lon="6.56645">
        <ele>450.4</ele>
        <time>2022-09-29T06:59:34Z</time>
      </trkpt>
      <trkpt lat="46.68854" lon="6.56646">
        <ele>450.4</ele>
        <time>2022-09-29T06:59:35Z</time>
      </trkpt>
      <trkpt lat="46.68857" lon="6.56647">
        <ele>450.5</ele>
        <time>2022-09-29T06:59:36Z</time>
      </trkpt>
      <trkpt lat="46.6886" lon="6.56648">
        <ele>450.5</ele>
        <time>2022-09-29T06:59:37Z</time>
      </trkpt>
      <trkpt lat="46.68863" lon="6.56649">
        <ele>450.5</ele>
        <time>2022-09-29T06:59:38Z</time>
      </trkpt>
      <trkpt lat="46.68867" lon="6.56651">
        <ele>450.5</ele>
        <time>2022-09-29T06:59:39Z</time>
      </trkpt>
      <trkpt lat="46.68868" lon="6.56652">
        <ele>450.5</ele>
        <time>2022-09-29T06:59:40Z</time>
      </trkpt>
      <trkpt lat="46.68868" lon="6.56653">
        <ele>450.5</ele>
        <time>2022-09-29T06:59:41Z</time>
      </trkpt>
      <trkpt lat="46.68869" lon="6.56653">
        <ele>450.5</ele>
        <time>2022-09-29T06:59:42Z</time>
      </trkpt>
      <trkpt lat="46.6887" lon="6.56653">
        <ele>450.5</ele>
        <time>2022-09-29T06:59:43Z</time>
      </trkpt>
      <trkpt lat="46.6887" lon="6.56653">
        <ele>450.6</ele>
        <time>2022-09-29T06:59:44Z</time>
      </trkpt>
      <trkpt lat="46.68871" lon="6.56654">
        <ele>450.6</ele>
        <time>2022-09-29T06:59:45Z</time>
      </trkpt>
      <trkpt lat="46.68872" lon="6.56654">
        <ele>450.6</ele>
        <time>2022-09-29T06:59:46Z</time>
      </trkpt>
      <trkpt lat="46.68872" lon="6.56654">
        <ele>450.6</ele>
        <time>2022-09-29T06:59:47Z</time>
      </trkpt>
      <trkpt lat="46.68873" lon="6.56654">
        <ele>450.6</ele>
        <time>2022-09-29T06:59:48Z</time>
      </trkpt>
      <trkpt lat="46.68874" lon="6.56654">
        <ele>450.6</ele>
        <time>2022-09-29T06:59:49Z</time>
      </trkpt>
      <trkpt lat="46.68874" lon="6.56654">
        <ele>450.6</ele>
        <time>2022-09-29T06:59:50Z</time>
      </trkpt>
      <trkpt lat="46.68875" lon="6.56654">
        <ele>450.6</ele>
        <time>2022-09-29T07:00:25Z</time>
      </trkpt>
      <trkpt lat="46.68876" lon="6.56654">
        <ele>450.6</ele>
        <time>2022-09-29T07:00:26Z</time>
      </trkpt>
      <trkpt lat="46.68877" lon="6.56654">
        <ele>450.6</ele>
        <time>2022-09-29T07:00:27Z</time>
      </trkpt>
      <trkpt lat="46.68877" lon="6.56654">
        <ele>450.6</ele>
        <time>2022-09-29T07:00:28Z</time>
      </trkpt>
      <trkpt lat="46.68878" lon="6.56654">
        <ele>450.6</ele>
        <time>2022-09-29T07:00:29Z</time>
      </trkpt>
      <trkpt lat="46.68879" lon="6.56654">
        <ele>450.6</ele>
        <time>2022-09-29T07:00:30Z</time>
      </trkpt>
      <trkpt lat="46.68881" lon="6.56652">
        <ele>450.6</ele>
        <time>2022-09-29T07:00:31Z</time>
      </trkpt>
      <trkpt lat="46.68882" lon="6.56652">
        <ele>450.6</ele>
        <time>2022-09-29T07:00:32Z</time>
      </trkpt>
      <trkpt lat="46.68886" lon="6.56651">
        <ele>450.7</ele>
        <time>2022-09-29T07:00:33Z</time>
      </trkpt>
      <trkpt lat="46.68888" lon="6.56652">
        <ele>450.7</ele>
        <time>2022-09-29T07:00:34Z</time>
      </trkpt>
      <trkpt lat="46.68892" lon="6.56653">
        <ele>450.7</ele>
        <time>2022-09-29T07:00:35Z</time>
      </trkpt>
      <trkpt lat="46.68893" lon="6.56654">
        <ele>450.7</ele>
        <time>2022-09-29T07:00:36Z</time>
      </trkpt>
      <trkpt lat="46.68897" lon="6.56655">
        <ele>450.7</ele>
        <time>2022-09-29T07:00:37Z</time>
      </trkpt>
      <trkpt lat="46.689" lon="6.56656">
        <ele>450.8</ele>
        <time>2022-09-29T07:00:38Z</time>
      </trkpt>
      <trkpt lat="46.68905" lon="6.56658">
        <ele>450.8</ele>
        <time>2022-09-29T07:00:39Z</time>
      </trkpt>
      <trkpt lat="46.68908" lon="6.56658">
        <ele>450.8</ele>
        <time>2022-09-29T07:00:40Z</time>
      </trkpt>
      <trkpt lat="46.68912" lon="6.5666">
        <ele>450.9</ele>
        <time>2022-09-29T07:00:41Z</time>
      </trkpt>
      <trkpt lat="46.68916" lon="6.56661">
        <ele>450.9</ele>
        <time>2022-09-29T07:00:42Z</time>
      </trkpt>
      <trkpt lat="46.68919" lon="6.56662">
        <ele>450.9</ele>
        <time>2022-09-29T07:00:43Z</time>
      </trkpt>
      <trkpt lat="46.68924" lon="6.56663">
        <ele>451</ele>
        <time>2022-09-29T07:00:44Z</time>
      </trkpt>
      <trkpt lat="46.68928" lon="6.56664">
        <ele>451</ele>
        <time>2022-09-29T07:00:45Z</time>
      </trkpt>
      <trkpt lat="46.68932" lon="6.56665">
        <ele>451</ele>
        <time>2022-09-29T07:00:46Z</time>
      </trkpt>
      <trkpt lat="46.68936" lon="6.56666">
        <ele>451.1</ele>
        <time>2022-09-29T07:00:47Z</time>
      </trkpt>
      <trkpt lat="46.68941" lon="6.56667">
        <ele>451.1</ele>
        <time>2022-09-29T07:00:48Z</time>
      </trkpt>
      <trkpt lat="46.68945" lon="6.56667">
        <ele>451.2</ele>
        <time>2022-09-29T07:00:49Z</time>
      </trkpt>
      <trkpt lat="46.6895" lon="6.56668">
        <ele>451.2</ele>
        <time>2022-09-29T07:00:50Z</time>
      </trkpt>
      <trkpt lat="46.68954" lon="6.56669">
        <ele>451.2</ele>
        <time>2022-09-29T07:00:51Z</time>
      </trkpt>
      <trkpt lat="46.68959" lon="6.5667">
        <ele>451.2</ele>
        <time>2022-09-29T07:00:52Z</time>
      </trkpt>
      <trkpt lat="46.68963" lon="6.56671">
        <ele>451.3</ele>
        <time>2022-09-29T07:00:53Z</time>
      </trkpt>
      <trkpt lat="46.68968" lon="6.56672">
        <ele>451.3</ele>
        <time>2022-09-29T07:00:54Z</time>
      </trkpt>
      <trkpt lat="46.68972" lon="6.56672">
        <ele>451.3</ele>
        <time>2022-09-29T07:00:55Z</time>
      </trkpt>
      <trkpt lat="46.68977" lon="6.56673">
        <ele>451.4</ele>
        <time>2022-09-29T07:00:56Z</time>
      </trkpt>
      <trkpt lat="46.68981" lon="6.56674">
        <ele>451.4</ele>
        <time>2022-09-29T07:00:57Z</time>
      </trkpt>
      <trkpt lat="46.68986" lon="6.56675">
        <ele>451.4</ele>
        <time>2022-09-29T07:00:58Z</time>
      </trkpt>
      <trkpt lat="46.6899" lon="6.56675">
        <ele>451.4</ele>
        <time>2022-09-29T07:00:59Z</time>
      </trkpt>
      <trkpt lat="46.68995" lon="6.56676">
        <ele>451.5</ele>
        <time>2022-09-29T07:01:00Z</time>
      </trkpt>
      <trkpt lat="46.69" lon="6.56677">
        <ele>451.5</ele>
        <time>2022-09-29T07:01:01Z</time>
      </trkpt>
      <trkpt lat="46.69005" lon="6.56677">
        <ele>451.5</ele>
        <time>2022-09-29T07:01:02Z</time>
      </trkpt>
      <trkpt lat="46.6901" lon="6.56677">
        <ele>451.5</ele>
        <time>2022-09-29T07:01:03Z</time>
      </trkpt>
      <trkpt lat="46.69015" lon="6.56677">
        <ele>451.5</ele>
        <time>2022-09-29T07:01:04Z</time>
      </trkpt>
      <trkpt lat="46.6902" lon="6.56677">
        <ele>451.6</ele>
        <time>2022-09-29T07:01:05Z</time>
      </trkpt>
      <trkpt lat="46.69024" lon="6.56677">
        <ele>451.6</ele>
        <time>2022-09-29T07:01:06Z</time>
      </trkpt>
      <trkpt lat="46.69029" lon="6.56677">
        <ele>451.6</ele>
        <time>2022-09-29T07:01:07Z</time>
      </trkpt>
      <trkpt lat="46.69033" lon="6.56676">
        <ele>451.6</ele>
        <time>2022-09-29T07:01:08Z</time>
      </trkpt>
      <trkpt lat="46.69038" lon="6.56676">
        <ele>451.6</ele>
        <time>2022-09-29T07:01:09Z</time>
      </trkpt>
      <trkpt lat="46.69043" lon="6.56676">
        <ele>451.6</ele>
        <time>2022-09-29T07:01:10Z</time>
      </trkpt>
      <trkpt lat="46.69048" lon="6.56676">
        <ele>451.7</ele>
        <time>2022-09-29T07:01:11Z</time>
      </trkpt>
      <trkpt lat="46.69052" lon="6.56675">
        <ele>451.7</ele>
        <time>2022-09-29T07:01:12Z</time>
      </trkpt>
      <trkpt lat="46.69057" lon="6.56675">
        <ele>451.7</ele>
        <time>2022-09-29T07:01:13Z</time>
      </trkpt>
      <trkpt lat="46.69062" lon="6.56675">
        <ele>451.7</ele>
        <time>2022-09-29T07:01:14Z</time>
      </trkpt>
      <trkpt lat="46.69067" lon="6.56674">
        <ele>451.7</ele>
        <time>2022-09-29T07:01:15Z</time>
      </trkpt>
      <trkpt lat="46.69072" lon="6.56674">
        <ele>451.7</ele>
        <time>2022-09-29T07:01:16Z</time>
      </trkpt>
      <trkpt lat="46.69076" lon="6.56673">
        <ele>451.8</ele>
        <time>2022-09-29T07:01:17Z</time>
      </trkpt>
      <trkpt lat="46.69081" lon="6.56673">
        <ele>451.8</ele>
        <time>2022-09-29T07:01:18Z</time>
      </trkpt>
      <trkpt lat="46.69086" lon="6.56672">
        <ele>451.8</ele>
        <time>2022-09-29T07:01:19Z</time>
      </trkpt>
      <trkpt lat="46.6909" lon="6.56672">
        <ele>451.8</ele>
        <time>2022-09-29T07:01:20Z</time>
      </trkpt>
      <trkpt lat="46.69095" lon="6.56671">
        <ele>451.8</ele>
        <time>2022-09-29T07:01:21Z</time>
      </trkpt>
      <trkpt lat="46.691" lon="6.5667">
        <ele>451.8</ele>
        <time>2022-09-29T07:01:22Z</time>
      </trkpt>
      <trkpt lat="46.69104" lon="6.5667">
        <ele>451.8</ele>
        <time>2022-09-29T07:01:23Z</time>
      </trkpt>
      <trkpt lat="46.69109" lon="6.56669">
        <ele>451.8</ele>
        <time>2022-09-29T07:01:24Z</time>
      </trkpt>
      <trkpt lat="46.69114" lon="6.56669">
        <ele>451.8</ele>
        <time>2022-09-29T07:01:25Z</time>
      </trkpt>
      <trkpt lat="46.69118" lon="6.56669">
        <ele>451.8</ele>
        <time>2022-09-29T07:01:26Z</time>
      </trkpt>
      <trkpt lat="46.69123" lon="6.56668">
        <ele>451.8</ele>
        <time>2022-09-29T07:01:27Z</time>
      </trkpt>
      <trkpt lat="46.69128" lon="6.56668">
        <ele>451.9</ele>
        <time>2022-09-29T07:01:28Z</time>
      </trkpt>
      <trkpt lat="46.69132" lon="6.56667">
        <ele>451.9</ele>
        <time>2022-09-29T07:01:29Z</time>
      </trkpt>
      <trkpt lat="46.69138" lon="6.56666">
        <ele>451.9</ele>
        <time>2022-09-29T07:01:30Z</time>
      </trkpt>
      <trkpt lat="46.69142" lon="6.56665">
        <ele>451.8</ele>
        <time>2022-09-29T07:01:31Z</time>
      </trkpt>
      <trkpt lat="46.69147" lon="6.56664">
        <ele>451.8</ele>
        <time>2022-09-29T07:01:32Z</time>
      </trkpt>
      <trkpt lat="46.69152" lon="6.56664">
        <ele>451.8</ele>
        <time>2022-09-29T07:01:33Z</time>
      </trkpt>
      <trkpt lat="46.69156" lon="6.56663">
        <ele>451.8</ele>
        <time>2022-09-29T07:01:34Z</time>
      </trkpt>
      <trkpt lat="46.69161" lon="6.56662">
        <ele>451.8</ele>
        <time>2022-09-29T07:01:35Z</time>
      </trkpt>
      <trkpt lat="46.69166" lon="6.56662">
        <ele>451.8</ele>
        <time>2022-09-29T07:01:36Z</time>
      </trkpt>
      <trkpt lat="46.69171" lon="6.56661">
        <ele>451.8</ele>
        <time>2022-09-29T07:01:37Z</time>
      </trkpt>
      <trkpt lat="46.69176" lon="6.56661">
        <ele>451.8</ele>
        <time>2022-09-29T07:01:38Z</time>
      </trkpt>
      <trkpt lat="46.69181" lon="6.5666">
        <ele>451.8</ele>
        <time>2022-09-29T07:01:39Z</time>
      </trkpt>
      <trkpt lat="46.69186" lon="6.56659">
        <ele>451.8</ele>
        <time>2022-09-29T07:01:40Z</time>
      </trkpt>
      <trkpt lat="46.69191" lon="6.56658">
        <ele>451.7</ele>
        <time>2022-09-29T07:01:41Z</time>
      </trkpt>
      <trkpt lat="46.69196" lon="6.56659">
        <ele>451.7</ele>
        <time>2022-09-29T07:01:42Z</time>
      </trkpt>
      <trkpt lat="46.692" lon="6.56658">
        <ele>451.7</ele>
        <time>2022-09-29T07:01:43Z</time>
      </trkpt>
      <trkpt lat="46.69205" lon="6.56657">
        <ele>451.7</ele>
        <time>2022-09-29T07:01:44Z</time>
      </trkpt>
      <trkpt lat="46.6921" lon="6.56657">
        <ele>451.7</ele>
        <time>2022-09-29T07:01:45Z</time>
      </trkpt>
      <trkpt lat="46.69215" lon="6.56656">
        <ele>451.7</ele>
        <time>2022-09-29T07:01:46Z</time>
      </trkpt>
      <trkpt lat="46.6922" lon="6.56655">
        <ele>451.6</ele>
        <time>2022-09-29T07:01:47Z</time>
      </trkpt>
      <trkpt lat="46.69225" lon="6.56654">
        <ele>451.6</ele>
        <time>2022-09-29T07:01:48Z</time>
      </trkpt>
      <trkpt lat="46.6923" lon="6.56654">
        <ele>451.6</ele>
        <time>2022-09-29T07:01:49Z</time>
      </trkpt>
      <trkpt lat="46.69236" lon="6.56653">
        <ele>451.5</ele>
        <time>2022-09-29T07:01:50Z</time>
      </trkpt>
      <trkpt lat="46.6924" lon="6.56653">
        <ele>451.5</ele>
        <time>2022-09-29T07:01:51Z</time>
      </trkpt>
      <trkpt lat="46.69246" lon="6.56652">
        <ele>451.5</ele>
        <time>2022-09-29T07:01:52Z</time>
      </trkpt>
      <trkpt lat="46.69251" lon="6.56651">
        <ele>451.4</ele>
        <time>2022-09-29T07:01:53Z</time>
      </trkpt>
      <trkpt lat="46.69256" lon="6.5665">
        <ele>451.4</ele>
        <time>2022-09-29T07:01:54Z</time>
      </trkpt>
      <trkpt lat="46.69261" lon="6.5665">
        <ele>451.3</ele>
        <time>2022-09-29T07:01:55Z</time>
      </trkpt>
      <trkpt lat="46.69266" lon="6.56649">
        <ele>451.3</ele>
        <time>2022-09-29T07:01:56Z</time>
      </trkpt>
      <trkpt lat="46.69271" lon="6.56648">
        <ele>451.3</ele>
        <time>2022-09-29T07:01:57Z</time>
      </trkpt>
      <trkpt lat="46.69276" lon="6.56648">
        <ele>451.3</ele>
        <time>2022-09-29T07:01:58Z</time>
      </trkpt>
      <trkpt lat="46.69281" lon="6.56647">
        <ele>451.2</ele>
        <time>2022-09-29T07:01:59Z</time>
      </trkpt>
      <trkpt lat="46.69286" lon="6.56646">
        <ele>451.2</ele>
        <time>2022-09-29T07:02:01Z</time>
      </trkpt>
      <trkpt lat="46.69291" lon="6.56646">
        <ele>451.2</ele>
        <time>2022-09-29T07:02:02Z</time>
      </trkpt>
      <trkpt lat="46.69296" lon="6.56645">
        <ele>451.1</ele>
        <time>2022-09-29T07:02:03Z</time>
      </trkpt>
      <trkpt lat="46.69302" lon="6.56644">
        <ele>451.1</ele>
        <time>2022-09-29T07:02:04Z</time>
      </trkpt>
      <trkpt lat="46.69307" lon="6.56643">
        <ele>451.1</ele>
        <time>2022-09-29T07:02:05Z</time>
      </trkpt>
      <trkpt lat="46.69312" lon="6.56643">
        <ele>451</ele>
        <time>2022-09-29T07:02:06Z</time>
      </trkpt>
      <trkpt lat="46.69318" lon="6.56642">
        <ele>451</ele>
        <time>2022-09-29T07:02:07Z</time>
      </trkpt>
      <trkpt lat="46.69323" lon="6.56641">
        <ele>451</ele>
        <time>2022-09-29T07:02:08Z</time>
      </trkpt>
      <trkpt lat="46.69328" lon="6.56641">
        <ele>450.9</ele>
        <time>2022-09-29T07:02:09Z</time>
      </trkpt>
      <trkpt lat="46.69333" lon="6.5664">
        <ele>450.9</ele>
        <time>2022-09-29T07:02:10Z</time>
      </trkpt>
      <trkpt lat="46.69338" lon="6.56639">
        <ele>450.8</ele>
        <time>2022-09-29T07:02:11Z</time>
      </trkpt>
      <trkpt lat="46.69343" lon="6.56638">
        <ele>450.8</ele>
        <time>2022-09-29T07:02:12Z</time>
      </trkpt>
      <trkpt lat="46.69349" lon="6.56638">
        <ele>450.8</ele>
        <time>2022-09-29T07:02:13Z</time>
      </trkpt>
      <trkpt lat="46.69354" lon="6.56637">
        <ele>450.7</ele>
        <time>2022-09-29T07:02:14Z</time>
      </trkpt>
      <trkpt lat="46.6936" lon="6.56637">
        <ele>450.7</ele>
        <time>2022-09-29T07:02:15Z</time>
      </trkpt>
      <trkpt lat="46.69365" lon="6.56636">
        <ele>450.6</ele>
        <time>2022-09-29T07:02:16Z</time>
      </trkpt>
      <trkpt lat="46.69371" lon="6.56635">
        <ele>450.6</ele>
        <time>2022-09-29T07:02:17Z</time>
      </trkpt>
      <trkpt lat="46.69376" lon="6.56635">
        <ele>450.6</ele>
        <time>2022-09-29T07:02:18Z</time>
      </trkpt>
      <trkpt lat="46.69381" lon="6.56634">
        <ele>450.5</ele>
        <time>2022-09-29T07:02:19Z</time>
      </trkpt>
      <trkpt lat="46.69387" lon="6.56634">
        <ele>450.5</ele>
        <time>2022-09-29T07:02:20Z</time>
      </trkpt>
      <trkpt lat="46.69392" lon="6.56633">
        <ele>450.5</ele>
        <time>2022-09-29T07:02:21Z</time>
      </trkpt>
      <trkpt lat="46.69398" lon="6.56633">
        <ele>450.5</ele>
        <time>2022-09-29T07:02:22Z</time>
      </trkpt>
      <trkpt lat="46.69403" lon="6.56632">
        <ele>450.4</ele>
        <time>2022-09-29T07:02:23Z</time>
      </trkpt>
      <trkpt lat="46.69409" lon="6.56631">
        <ele>450.4</ele>
        <time>2022-09-29T07:02:24Z</time>
      </trkpt>
      <trkpt lat="46.69414" lon="6.56631">
        <ele>450.3</ele>
        <time>2022-09-29T07:02:25Z</time>
      </trkpt>
      <trkpt lat="46.6942" lon="6.5663">
        <ele>450.3</ele>
        <time>2022-09-29T07:02:26Z</time>
      </trkpt>
      <trkpt lat="46.69425" lon="6.5663">
        <ele>450.2</ele>
        <time>2022-09-29T07:02:27Z</time>
      </trkpt>
      <trkpt lat="46.6943" lon="6.5663">
        <ele>450.2</ele>
        <time>2022-09-29T07:02:28Z</time>
      </trkpt>
      <trkpt lat="46.69435" lon="6.56629">
        <ele>450.1</ele>
        <time>2022-09-29T07:02:29Z</time>
      </trkpt>
      <trkpt lat="46.69441" lon="6.56629">
        <ele>450.1</ele>
        <time>2022-09-29T07:02:30Z</time>
      </trkpt>
      <trkpt lat="46.69447" lon="6.56628">
        <ele>450</ele>
        <time>2022-09-29T07:02:31Z</time>
      </trkpt>
      <trkpt lat="46.69452" lon="6.56628">
        <ele>450</ele>
        <time>2022-09-29T07:02:32Z</time>
      </trkpt>
      <trkpt lat="46.69458" lon="6.56628">
        <ele>449.9</ele>
        <time>2022-09-29T07:02:33Z</time>
      </trkpt>
      <trkpt lat="46.69463" lon="6.56627">
        <ele>449.9</ele>
        <time>2022-09-29T07:02:34Z</time>
      </trkpt>
      <trkpt lat="46.69469" lon="6.56627">
        <ele>449.8</ele>
        <time>2022-09-29T07:02:35Z</time>
      </trkpt>
      <trkpt lat="46.69474" lon="6.56627">
        <ele>449.8</ele>
        <time>2022-09-29T07:02:36Z</time>
      </trkpt>
      <trkpt lat="46.69479" lon="6.56627">
        <ele>449.7</ele>
        <time>2022-09-29T07:02:37Z</time>
      </trkpt>
      <trkpt lat="46.69485" lon="6.56627">
        <ele>449.6</ele>
        <time>2022-09-29T07:02:38Z</time>
      </trkpt>
      <trkpt lat="46.6949" lon="6.56627">
        <ele>449.6</ele>
        <time>2022-09-29T07:02:39Z</time>
      </trkpt>
      <trkpt lat="46.69495" lon="6.56627">
        <ele>449.5</ele>
        <time>2022-09-29T07:02:40Z</time>
      </trkpt>
      <trkpt lat="46.69501" lon="6.56627">
        <ele>449.5</ele>
        <time>2022-09-29T07:02:41Z</time>
      </trkpt>
      <trkpt lat="46.69506" lon="6.56627">
        <ele>449.4</ele>
        <time>2022-09-29T07:02:42Z</time>
      </trkpt>
      <trkpt lat="46.69512" lon="6.56627">
        <ele>449.4</ele>
        <time>2022-09-29T07:02:43Z</time>
      </trkpt>
      <trkpt lat="46.69518" lon="6.56627">
        <ele>449.3</ele>
        <time>2022-09-29T07:02:44Z</time>
      </trkpt>
      <trkpt lat="46.69523" lon="6.56627">
        <ele>449.3</ele>
        <time>2022-09-29T07:02:45Z</time>
      </trkpt>
      <trkpt lat="46.69529" lon="6.56628">
        <ele>449.2</ele>
        <time>2022-09-29T07:02:46Z</time>
      </trkpt>
      <trkpt lat="46.69534" lon="6.56628">
        <ele>449.2</ele>
        <time>2022-09-29T07:02:47Z</time>
      </trkpt>
      <trkpt lat="46.6954" lon="6.56628">
        <ele>449.1</ele>
        <time>2022-09-29T07:02:48Z</time>
      </trkpt>
      <trkpt lat="46.69546" lon="6.56629">
        <ele>449.1</ele>
        <time>2022-09-29T07:02:49Z</time>
      </trkpt>
      <trkpt lat="46.69551" lon="6.5663">
        <ele>449</ele>
        <time>2022-09-29T07:02:50Z</time>
      </trkpt>
      <trkpt lat="46.69557" lon="6.5663">
        <ele>449</ele>
        <time>2022-09-29T07:02:51Z</time>
      </trkpt>
      <trkpt lat="46.69563" lon="6.56631">
        <ele>448.9</ele>
        <time>2022-09-29T07:02:52Z</time>
      </trkpt>
      <trkpt lat="46.69568" lon="6.56632">
        <ele>448.8</ele>
        <time>2022-09-29T07:02:53Z</time>
      </trkpt>
      <trkpt lat="46.69574" lon="6.56633">
        <ele>448.8</ele>
        <time>2022-09-29T07:02:54Z</time>
      </trkpt>
      <trkpt lat="46.6958" lon="6.56633">
        <ele>448.7</ele>
        <time>2022-09-29T07:02:55Z</time>
      </trkpt>
      <trkpt lat="46.69585" lon="6.56634">
        <ele>448.6</ele>
        <time>2022-09-29T07:02:56Z</time>
      </trkpt>
      <trkpt lat="46.69591" lon="6.56635">
        <ele>448.6</ele>
        <time>2022-09-29T07:02:57Z</time>
      </trkpt>
      <trkpt lat="46.69596" lon="6.56636">
        <ele>448.5</ele>
        <time>2022-09-29T07:02:58Z</time>
      </trkpt>
      <trkpt lat="46.69601" lon="6.56637">
        <ele>448.5</ele>
        <time>2022-09-29T07:02:59Z</time>
      </trkpt>
      <trkpt lat="46.69606" lon="6.56638">
        <ele>448.4</ele>
        <time>2022-09-29T07:03:00Z</time>
      </trkpt>
      <trkpt lat="46.69612" lon="6.56639">
        <ele>448.4</ele>
        <time>2022-09-29T07:03:01Z</time>
      </trkpt>
      <trkpt lat="46.69617" lon="6.5664">
        <ele>448.3</ele>
        <time>2022-09-29T07:03:02Z</time>
      </trkpt>
      <trkpt lat="46.69623" lon="6.56642">
        <ele>448.3</ele>
        <time>2022-09-29T07:03:03Z</time>
      </trkpt>
      <trkpt lat="46.69628" lon="6.56643">
        <ele>448.2</ele>
        <time>2022-09-29T07:03:04Z</time>
      </trkpt>
      <trkpt lat="46.69634" lon="6.56644">
        <ele>448.1</ele>
        <time>2022-09-29T07:03:05Z</time>
      </trkpt>
      <trkpt lat="46.6964" lon="6.56646">
        <ele>448.1</ele>
        <time>2022-09-29T07:03:06Z</time>
      </trkpt>
      <trkpt lat="46.69646" lon="6.56647">
        <ele>448</ele>
        <time>2022-09-29T07:03:07Z</time>
      </trkpt>
      <trkpt lat="46.69652" lon="6.56649">
        <ele>448</ele>
        <time>2022-09-29T07:03:08Z</time>
      </trkpt>
      <trkpt lat="46.69658" lon="6.56651">
        <ele>448</ele>
        <time>2022-09-29T07:03:09Z</time>
      </trkpt>
      <trkpt lat="46.69663" lon="6.56652">
        <ele>448</ele>
        <time>2022-09-29T07:03:10Z</time>
      </trkpt>
      <trkpt lat="46.69669" lon="6.56654">
        <ele>448</ele>
        <time>2022-09-29T07:03:11Z</time>
      </trkpt>
      <trkpt lat="46.69675" lon="6.56655">
        <ele>447.9</ele>
        <time>2022-09-29T07:03:12Z</time>
      </trkpt>
      <trkpt lat="46.69681" lon="6.56657">
        <ele>447.8</ele>
        <time>2022-09-29T07:03:13Z</time>
      </trkpt>
      <trkpt lat="46.69687" lon="6.56659">
        <ele>447.8</ele>
        <time>2022-09-29T07:03:14Z</time>
      </trkpt>
      <trkpt lat="46.69692" lon="6.56661">
        <ele>447.7</ele>
        <time>2022-09-29T07:03:15Z</time>
      </trkpt>
      <trkpt lat="46.69698" lon="6.56663">
        <ele>447.7</ele>
        <time>2022-09-29T07:03:16Z</time>
      </trkpt>
      <trkpt lat="46.69703" lon="6.56665">
        <ele>447.6</ele>
        <time>2022-09-29T07:03:17Z</time>
      </trkpt>
      <trkpt lat="46.69709" lon="6.56667">
        <ele>447.6</ele>
        <time>2022-09-29T07:03:18Z</time>
      </trkpt>
      <trkpt lat="46.69715" lon="6.56669">
        <ele>447.5</ele>
        <time>2022-09-29T07:03:19Z</time>
      </trkpt>
      <trkpt lat="46.69721" lon="6.56672">
        <ele>447.5</ele>
        <time>2022-09-29T07:03:20Z</time>
      </trkpt>
      <trkpt lat="46.69726" lon="6.56674">
        <ele>447.4</ele>
        <time>2022-09-29T07:03:21Z</time>
      </trkpt>
      <trkpt lat="46.69732" lon="6.56677">
        <ele>447.4</ele>
        <time>2022-09-29T07:03:22Z</time>
      </trkpt>
      <trkpt lat="46.69738" lon="6.56679">
        <ele>447.3</ele>
        <time>2022-09-29T07:03:23Z</time>
      </trkpt>
      <trkpt lat="46.69743" lon="6.56682">
        <ele>447.3</ele>
        <time>2022-09-29T07:03:24Z</time>
      </trkpt>
      <trkpt lat="46.69749" lon="6.56684">
        <ele>447.3</ele>
        <time>2022-09-29T07:03:25Z</time>
      </trkpt>
      <trkpt lat="46.69754" lon="6.56687">
        <ele>447.2</ele>
        <time>2022-09-29T07:03:26Z</time>
      </trkpt>
      <trkpt lat="46.69759" lon="6.56689">
        <ele>447.2</ele>
        <time>2022-09-29T07:03:27Z</time>
      </trkpt>
      <trkpt lat="46.69765" lon="6.56692">
        <ele>447.2</ele>
        <time>2022-09-29T07:03:28Z</time>
      </trkpt>
      <trkpt lat="46.6977" lon="6.56695">
        <ele>447.2</ele>
        <time>2022-09-29T07:03:29Z</time>
      </trkpt>
      <trkpt lat="46.69775" lon="6.56697">
        <ele>447.1</ele>
        <time>2022-09-29T07:03:30Z</time>
      </trkpt>
      <trkpt lat="46.6978" lon="6.567">
        <ele>447.1</ele>
        <time>2022-09-29T07:03:31Z</time>
      </trkpt>
      <trkpt lat="46.69785" lon="6.56703">
        <ele>447.1</ele>
        <time>2022-09-29T07:03:32Z</time>
      </trkpt>
      <trkpt lat="46.6979" lon="6.56706">
        <ele>447</ele>
        <time>2022-09-29T07:03:33Z</time>
      </trkpt>
      <trkpt lat="46.69796" lon="6.56709">
        <ele>447</ele>
        <time>2022-09-29T07:03:34Z</time>
      </trkpt>
      <trkpt lat="46.69801" lon="6.56712">
        <ele>447</ele>
        <time>2022-09-29T07:03:35Z</time>
      </trkpt>
      <trkpt lat="46.69807" lon="6.56715">
        <ele>447</ele>
        <time>2022-09-29T07:03:36Z</time>
      </trkpt>
      <trkpt lat="46.69813" lon="6.56718">
        <ele>447</ele>
        <time>2022-09-29T07:03:37Z</time>
      </trkpt>
      <trkpt lat="46.69818" lon="6.56721">
        <ele>446.9</ele>
        <time>2022-09-29T07:03:38Z</time>
      </trkpt>
      <trkpt lat="46.69823" lon="6.56724">
        <ele>446.9</ele>
        <time>2022-09-29T07:03:39Z</time>
      </trkpt>
      <trkpt lat="46.69829" lon="6.56727">
        <ele>446.9</ele>
        <time>2022-09-29T07:03:40Z</time>
      </trkpt>
      <trkpt lat="46.69834" lon="6.5673">
        <ele>446.9</ele>
        <time>2022-09-29T07:03:41Z</time>
      </trkpt>
      <trkpt lat="46.69839" lon="6.56732">
        <ele>446.9</ele>
        <time>2022-09-29T07:03:42Z</time>
      </trkpt>
      <trkpt lat="46.69844" lon="6.56735">
        <ele>446.9</ele>
        <time>2022-09-29T07:03:43Z</time>
      </trkpt>
      <trkpt lat="46.69849" lon="6.56738">
        <ele>446.9</ele>
        <time>2022-09-29T07:03:44Z</time>
      </trkpt>
      <trkpt lat="46.69853" lon="6.56741">
        <ele>446.9</ele>
        <time>2022-09-29T07:03:45Z</time>
      </trkpt>
      <trkpt lat="46.69858" lon="6.56744">
        <ele>446.9</ele>
        <time>2022-09-29T07:03:46Z</time>
      </trkpt>
      <trkpt lat="46.69863" lon="6.56746">
        <ele>446.9</ele>
        <time>2022-09-29T07:03:47Z</time>
      </trkpt>
      <trkpt lat="46.69868" lon="6.56749">
        <ele>447</ele>
        <time>2022-09-29T07:03:48Z</time>
      </trkpt>
      <trkpt lat="46.69873" lon="6.56752">
        <ele>447</ele>
        <time>2022-09-29T07:03:49Z</time>
      </trkpt>
      <trkpt lat="46.69878" lon="6.56755">
        <ele>447</ele>
        <time>2022-09-29T07:03:50Z</time>
      </trkpt>
      <trkpt lat="46.69883" lon="6.56758">
        <ele>447</ele>
        <time>2022-09-29T07:03:51Z</time>
      </trkpt>
      <trkpt lat="46.69888" lon="6.56761">
        <ele>447</ele>
        <time>2022-09-29T07:03:52Z</time>
      </trkpt>
      <trkpt lat="46.69893" lon="6.56764">
        <ele>447</ele>
        <time>2022-09-29T07:03:53Z</time>
      </trkpt>
      <trkpt lat="46.69898" lon="6.56767">
        <ele>447</ele>
        <time>2022-09-29T07:03:54Z</time>
      </trkpt>
      <trkpt lat="46.69903" lon="6.56769">
        <ele>447</ele>
        <time>2022-09-29T07:03:55Z</time>
      </trkpt>
      <trkpt lat="46.69907" lon="6.56772">
        <ele>447</ele>
        <time>2022-09-29T07:03:56Z</time>
      </trkpt>
      <trkpt lat="46.69912" lon="6.56775">
        <ele>447.1</ele>
        <time>2022-09-29T07:03:57Z</time>
      </trkpt>
      <trkpt lat="46.69916" lon="6.56778">
        <ele>447.1</ele>
        <time>2022-09-29T07:03:58Z</time>
      </trkpt>
      <trkpt lat="46.69921" lon="6.5678">
        <ele>447.1</ele>
        <time>2022-09-29T07:03:59Z</time>
      </trkpt>
      <trkpt lat="46.69925" lon="6.56782">
        <ele>447.1</ele>
        <time>2022-09-29T07:04:00Z</time>
      </trkpt>
      <trkpt lat="46.69929" lon="6.56785">
        <ele>447.1</ele>
        <time>2022-09-29T07:04:01Z</time>
      </trkpt>
      <trkpt lat="46.69933" lon="6.56787">
        <ele>447.1</ele>
        <time>2022-09-29T07:04:02Z</time>
      </trkpt>
      <trkpt lat="46.69937" lon="6.56789">
        <ele>447.1</ele>
        <time>2022-09-29T07:04:03Z</time>
      </trkpt>
      <trkpt lat="46.69941" lon="6.56792">
        <ele>447.1</ele>
        <time>2022-09-29T07:04:04Z</time>
      </trkpt>
      <trkpt lat="46.69946" lon="6.56794">
        <ele>447.1</ele>
        <time>2022-09-29T07:04:05Z</time>
      </trkpt>
      <trkpt lat="46.6995" lon="6.56797">
        <ele>447.1</ele>
        <time>2022-09-29T07:04:06Z</time>
      </trkpt>
      <trkpt lat="46.69954" lon="6.56799">
        <ele>447.1</ele>
        <time>2022-09-29T07:04:07Z</time>
      </trkpt>
      <trkpt lat="46.69959" lon="6.56802">
        <ele>447.1</ele>
        <time>2022-09-29T07:04:08Z</time>
      </trkpt>
      <trkpt lat="46.69963" lon="6.56804">
        <ele>447.1</ele>
        <time>2022-09-29T07:04:09Z</time>
      </trkpt>
      <trkpt lat="46.69972" lon="6.56809">
        <ele>447.1</ele>
        <time>2022-09-29T07:04:10Z</time>
      </trkpt>
      <trkpt lat="46.69976" lon="6.56812">
        <ele>447.1</ele>
        <time>2022-09-29T07:04:11Z</time>
      </trkpt>
      <trkpt lat="46.6998" lon="6.56814">
        <ele>447.1</ele>
        <time>2022-09-29T07:04:12Z</time>
      </trkpt>
      <trkpt lat="46.69984" lon="6.56816">
        <ele>447.1</ele>
        <time>2022-09-29T07:04:13Z</time>
      </trkpt>
      <trkpt lat="46.69988" lon="6.56819">
        <ele>447.1</ele>
        <time>2022-09-29T07:04:14Z</time>
      </trkpt>
      <trkpt lat="46.69991" lon="6.56822">
        <ele>447.1</ele>
        <time>2022-09-29T07:04:15Z</time>
      </trkpt>
      <trkpt lat="46.69995" lon="6.56824">
        <ele>447.1</ele>
        <time>2022-09-29T07:04:16Z</time>
      </trkpt>
      <trkpt lat="46.69999" lon="6.56826">
        <ele>447.1</ele>
        <time>2022-09-29T07:04:17Z</time>
      </trkpt>
      <trkpt lat="46.70003" lon="6.56828">
        <ele>447.1</ele>
        <time>2022-09-29T07:04:18Z</time>
      </trkpt>
      <trkpt lat="46.70006" lon="6.5683">
        <ele>447.1</ele>
        <time>2022-09-29T07:04:19Z</time>
      </trkpt>
      <trkpt lat="46.7001" lon="6.56832">
        <ele>447</ele>
        <time>2022-09-29T07:04:20Z</time>
      </trkpt>
      <trkpt lat="46.70014" lon="6.56835">
        <ele>447</ele>
        <time>2022-09-29T07:04:21Z</time>
      </trkpt>
      <trkpt lat="46.70018" lon="6.56837">
        <ele>447</ele>
        <time>2022-09-29T07:04:22Z</time>
      </trkpt>
      <trkpt lat="46.70022" lon="6.5684">
        <ele>447</ele>
        <time>2022-09-29T07:04:23Z</time>
      </trkpt>
      <trkpt lat="46.70026" lon="6.56843">
        <ele>447</ele>
        <time>2022-09-29T07:04:24Z</time>
      </trkpt>
      <trkpt lat="46.70029" lon="6.56844">
        <ele>447</ele>
        <time>2022-09-29T07:04:25Z</time>
      </trkpt>
      <trkpt lat="46.70034" lon="6.56848">
        <ele>447</ele>
        <time>2022-09-29T07:04:26Z</time>
      </trkpt>
      <trkpt lat="46.70038" lon="6.5685">
        <ele>447</ele>
        <time>2022-09-29T07:04:27Z</time>
      </trkpt>
      <trkpt lat="46.70042" lon="6.56852">
        <ele>447.1</ele>
        <time>2022-09-29T07:04:28Z</time>
      </trkpt>
      <trkpt lat="46.70046" lon="6.56855">
        <ele>447.1</ele>
        <time>2022-09-29T07:04:29Z</time>
      </trkpt>
      <trkpt lat="46.7005" lon="6.56857">
        <ele>447.2</ele>
        <time>2022-09-29T07:04:30Z</time>
      </trkpt>
      <trkpt lat="46.70054" lon="6.56859">
        <ele>447.2</ele>
        <time>2022-09-29T07:04:31Z</time>
      </trkpt>
      <trkpt lat="46.70058" lon="6.56862">
        <ele>447.2</ele>
        <time>2022-09-29T07:04:32Z</time>
      </trkpt>
      <trkpt lat="46.70062" lon="6.56864">
        <ele>447.3</ele>
        <time>2022-09-29T07:04:33Z</time>
      </trkpt>
      <trkpt lat="46.70066" lon="6.56867">
        <ele>447.3</ele>
        <time>2022-09-29T07:04:34Z</time>
      </trkpt>
      <trkpt lat="46.7007" lon="6.56869">
        <ele>447.4</ele>
        <time>2022-09-29T07:04:35Z</time>
      </trkpt>
      <trkpt lat="46.70074" lon="6.56872">
        <ele>447.5</ele>
        <time>2022-09-29T07:04:36Z</time>
      </trkpt>
      <trkpt lat="46.70078" lon="6.56874">
        <ele>447.6</ele>
        <time>2022-09-29T07:04:37Z</time>
      </trkpt>
      <trkpt lat="46.70082" lon="6.56876">
        <ele>447.7</ele>
        <time>2022-09-29T07:04:38Z</time>
      </trkpt>
      <trkpt lat="46.70086" lon="6.56878">
        <ele>447.8</ele>
        <time>2022-09-29T07:04:39Z</time>
      </trkpt>
      <trkpt lat="46.7009" lon="6.5688">
        <ele>447.9</ele>
        <time>2022-09-29T07:04:40Z</time>
      </trkpt>
      <trkpt lat="46.70094" lon="6.56883">
        <ele>448</ele>
        <time>2022-09-29T07:04:41Z</time>
      </trkpt>
      <trkpt lat="46.70098" lon="6.56885">
        <ele>448.1</ele>
        <time>2022-09-29T07:04:42Z</time>
      </trkpt>
      <trkpt lat="46.70101" lon="6.56887">
        <ele>448.3</ele>
        <time>2022-09-29T07:04:43Z</time>
      </trkpt>
      <trkpt lat="46.70104" lon="6.56889">
        <ele>448.4</ele>
        <time>2022-09-29T07:04:44Z</time>
      </trkpt>
      <trkpt lat="46.70107" lon="6.5689">
        <ele>448.5</ele>
        <time>2022-09-29T07:04:45Z</time>
      </trkpt>
      <trkpt lat="46.7011" lon="6.56892">
        <ele>448.7</ele>
        <time>2022-09-29T07:04:46Z</time>
      </trkpt>
      <trkpt lat="46.70112" lon="6.56892">
        <ele>448.7</ele>
        <time>2022-09-29T07:04:47Z</time>
      </trkpt>
      <trkpt lat="46.70115" lon="6.56894">
        <ele>448.9</ele>
        <time>2022-09-29T07:04:49Z</time>
      </trkpt>
      <trkpt lat="46.70116" lon="6.56895">
        <ele>449</ele>
        <time>2022-09-29T07:04:50Z</time>
      </trkpt>
      <trkpt lat="46.70119" lon="6.56897">
        <ele>449.2</ele>
        <time>2022-09-29T07:04:51Z</time>
      </trkpt>
      <trkpt lat="46.7012" lon="6.56898">
        <ele>449.2</ele>
        <time>2022-09-29T07:04:52Z</time>
      </trkpt>
      <trkpt lat="46.70124" lon="6.569">
        <ele>449.4</ele>
        <time>2022-09-29T07:04:53Z</time>
      </trkpt>
      <trkpt lat="46.70124" lon="6.56901">
        <ele>449.5</ele>
        <time>2022-09-29T07:04:54Z</time>
      </trkpt>
      <trkpt lat="46.70126" lon="6.56902">
        <ele>449.6</ele>
        <time>2022-09-29T07:04:55Z</time>
      </trkpt>
      <trkpt lat="46.70128" lon="6.56903">
        <ele>449.6</ele>
        <time>2022-09-29T07:04:56Z</time>
      </trkpt>
      <trkpt lat="46.7013" lon="6.56904">
        <ele>449.7</ele>
        <time>2022-09-29T07:04:57Z</time>
      </trkpt>
      <trkpt lat="46.70131" lon="6.56904">
        <ele>449.7</ele>
        <time>2022-09-29T07:04:58Z</time>
      </trkpt>
      <trkpt lat="46.70132" lon="6.56905">
        <ele>449.7</ele>
        <time>2022-09-29T07:04:59Z</time>
      </trkpt>
      <trkpt lat="46.70135" lon="6.56906">
        <ele>449.8</ele>
        <time>2022-09-29T07:05:00Z</time>
      </trkpt>
      <trkpt lat="46.70136" lon="6.56906">
        <ele>449.8</ele>
        <time>2022-09-29T07:05:01Z</time>
      </trkpt>
      <trkpt lat="46.70137" lon="6.56907">
        <ele>449.8</ele>
        <time>2022-09-29T07:05:02Z</time>
      </trkpt>
      <trkpt lat="46.70139" lon="6.56907">
        <ele>449.9</ele>
        <time>2022-09-29T07:05:03Z</time>
      </trkpt>
      <trkpt lat="46.7014" lon="6.56907">
        <ele>449.9</ele>
        <time>2022-09-29T07:05:04Z</time>
      </trkpt>
      <trkpt lat="46.70142" lon="6.56908">
        <ele>449.9</ele>
        <time>2022-09-29T07:05:05Z</time>
      </trkpt>
      <trkpt lat="46.70151" lon="6.56911">
        <ele>450.1</ele>
        <time>2022-09-29T07:05:06Z</time>
      </trkpt>
      <trkpt lat="46.70156" lon="6.56913">
        <ele>450.2</ele>
        <time>2022-09-29T07:05:13Z</time>
      </trkpt>
      <trkpt lat="46.70161" lon="6.56916">
        <ele>450.3</ele>
        <time>2022-09-29T07:05:14Z</time>
      </trkpt>
      <trkpt lat="46.70164" lon="6.56916">
        <ele>450.4</ele>
        <time>2022-09-29T07:05:15Z</time>
      </trkpt>
      <trkpt lat="46.70165" lon="6.56917">
        <ele>450.4</ele>
        <time>2022-09-29T07:05:16Z</time>
      </trkpt>
      <trkpt lat="46.70168" lon="6.56917">
        <ele>450.4</ele>
        <time>2022-09-29T07:05:17Z</time>
      </trkpt>
      <trkpt lat="46.70169" lon="6.56917">
        <ele>450.5</ele>
        <time>2022-09-29T07:05:18Z</time>
      </trkpt>
      <trkpt lat="46.70171" lon="6.56917">
        <ele>450.5</ele>
        <time>2022-09-29T07:05:19Z</time>
      </trkpt>
      <trkpt lat="46.70172" lon="6.56917">
        <ele>450.5</ele>
        <time>2022-09-29T07:05:20Z</time>
      </trkpt>
      <trkpt lat="46.70174" lon="6.56918">
        <ele>450.6</ele>
        <time>2022-09-29T07:05:21Z</time>
      </trkpt>
      <trkpt lat="46.70175" lon="6.56918">
        <ele>450.6</ele>
        <time>2022-09-29T07:05:22Z</time>
      </trkpt>
      <trkpt lat="46.70178" lon="6.5692">
        <ele>450.7</ele>
        <time>2022-09-29T07:05:23Z</time>
      </trkpt>
      <trkpt lat="46.7018" lon="6.5692">
        <ele>450.7</ele>
        <time>2022-09-29T07:05:24Z</time>
      </trkpt>
      <trkpt lat="46.70183" lon="6.56921">
        <ele>450.8</ele>
        <time>2022-09-29T07:05:25Z</time>
      </trkpt>
      <trkpt lat="46.70184" lon="6.56922">
        <ele>450.8</ele>
        <time>2022-09-29T07:05:26Z</time>
      </trkpt>
      <trkpt lat="46.70188" lon="6.56923">
        <ele>450.9</ele>
        <time>2022-09-29T07:05:27Z</time>
      </trkpt>
      <trkpt lat="46.70189" lon="6.56923">
        <ele>450.9</ele>
        <time>2022-09-29T07:05:28Z</time>
      </trkpt>
      <trkpt lat="46.70192" lon="6.56924">
        <ele>451</ele>
        <time>2022-09-29T07:05:29Z</time>
      </trkpt>
      <trkpt lat="46.70193" lon="6.56924">
        <ele>451</ele>
        <time>2022-09-29T07:05:30Z</time>
      </trkpt>
      <trkpt lat="46.70196" lon="6.56925">
        <ele>451</ele>
        <time>2022-09-29T07:05:31Z</time>
      </trkpt>
      <trkpt lat="46.70198" lon="6.56925">
        <ele>451.1</ele>
        <time>2022-09-29T07:05:32Z</time>
      </trkpt>
      <trkpt lat="46.70201" lon="6.56926">
        <ele>451.1</ele>
        <time>2022-09-29T07:05:33Z</time>
      </trkpt>
      <trkpt lat="46.70202" lon="6.56926">
        <ele>451.2</ele>
        <time>2022-09-29T07:05:34Z</time>
      </trkpt>
      <trkpt lat="46.70206" lon="6.56927">
        <ele>451.2</ele>
        <time>2022-09-29T07:05:35Z</time>
      </trkpt>
      <trkpt lat="46.70207" lon="6.56927">
        <ele>451.3</ele>
        <time>2022-09-29T07:05:36Z</time>
      </trkpt>
      <trkpt lat="46.70211" lon="6.56927">
        <ele>451.4</ele>
        <time>2022-09-29T07:05:37Z</time>
      </trkpt>
      <trkpt lat="46.70212" lon="6.56927">
        <ele>451.4</ele>
        <time>2022-09-29T07:05:38Z</time>
      </trkpt>
      <trkpt lat="46.70215" lon="6.56928">
        <ele>451.4</ele>
        <time>2022-09-29T07:05:39Z</time>
      </trkpt>
      <trkpt lat="46.70218" lon="6.56928">
        <ele>451.5</ele>
        <time>2022-09-29T07:05:40Z</time>
      </trkpt>
      <trkpt lat="46.70222" lon="6.56929">
        <ele>451.6</ele>
        <time>2022-09-29T07:05:41Z</time>
      </trkpt>
      <trkpt lat="46.70223" lon="6.56929">
        <ele>451.6</ele>
        <time>2022-09-29T07:05:42Z</time>
      </trkpt>
      <trkpt lat="46.70227" lon="6.56929">
        <ele>451.7</ele>
        <time>2022-09-29T07:05:43Z</time>
      </trkpt>
      <trkpt lat="46.70229" lon="6.5693">
        <ele>451.7</ele>
        <time>2022-09-29T07:05:44Z</time>
      </trkpt>
      <trkpt lat="46.70232" lon="6.56929">
        <ele>451.8</ele>
        <time>2022-09-29T07:05:45Z</time>
      </trkpt>
      <trkpt lat="46.70233" lon="6.5693">
        <ele>451.8</ele>
        <time>2022-09-29T07:05:46Z</time>
      </trkpt>
      <trkpt lat="46.70237" lon="6.5693">
        <ele>451.9</ele>
        <time>2022-09-29T07:05:47Z</time>
      </trkpt>
      <trkpt lat="46.70238" lon="6.5693">
        <ele>451.9</ele>
        <time>2022-09-29T07:05:48Z</time>
      </trkpt>
      <trkpt lat="46.70241" lon="6.56931">
        <ele>451.9</ele>
        <time>2022-09-29T07:05:49Z</time>
      </trkpt>
      <trkpt lat="46.70242" lon="6.56931">
        <ele>452</ele>
        <time>2022-09-29T07:05:50Z</time>
      </trkpt>
      <trkpt lat="46.70243" lon="6.56931">
        <ele>452</ele>
        <time>2022-09-29T07:05:51Z</time>
      </trkpt>
      <trkpt lat="46.70245" lon="6.56931">
        <ele>452</ele>
        <time>2022-09-29T07:05:52Z</time>
      </trkpt>
      <trkpt lat="46.70247" lon="6.56932">
        <ele>452</ele>
        <time>2022-09-29T07:05:53Z</time>
      </trkpt>
      <trkpt lat="46.70248" lon="6.56932">
        <ele>452.1</ele>
        <time>2022-09-29T07:05:54Z</time>
      </trkpt>
      <trkpt lat="46.70248" lon="6.56932">
        <ele>452.1</ele>
        <time>2022-09-29T07:05:55Z</time>
      </trkpt>
      <trkpt lat="46.70248" lon="6.56931">
        <ele>452.1</ele>
        <time>2022-09-29T07:05:56Z</time>
      </trkpt>
      <trkpt lat="46.70249" lon="6.56931">
        <ele>452.1</ele>
        <time>2022-09-29T07:05:57Z</time>
      </trkpt>
      <trkpt lat="46.70248" lon="6.56931">
        <ele>452.1</ele>
        <time>2022-09-29T07:05:58Z</time>
      </trkpt>
      <trkpt lat="46.70248" lon="6.5693">
        <ele>452.1</ele>
        <time>2022-09-29T07:05:59Z</time>
      </trkpt>
      <trkpt lat="46.70248" lon="6.5693">
        <ele>452.1</ele>
        <time>2022-09-29T07:06:00Z</time>
      </trkpt>
      <trkpt lat="46.70249" lon="6.56929">
        <ele>452.1</ele>
        <time>2022-09-29T07:06:01Z</time>
      </trkpt>
      <trkpt lat="46.7025" lon="6.56929">
        <ele>452.1</ele>
        <time>2022-09-29T07:06:02Z</time>
      </trkpt>
      <trkpt lat="46.7025" lon="6.56929">
        <ele>452.1</ele>
        <time>2022-09-29T07:06:03Z</time>
      </trkpt>
      <trkpt lat="46.70245" lon="6.5693">
        <ele>452.2</ele>
        <time>2022-09-29T07:06:04Z</time>
      </trkpt>
      <trkpt lat="46.70239" lon="6.56931">
        <ele>452.3</ele>
        <time>2022-09-29T07:06:05Z</time>
      </trkpt>
      <trkpt lat="46.70233" lon="6.56932">
        <ele>452.4</ele>
        <time>2022-09-29T07:10:55Z</time>
      </trkpt>
      <trkpt lat="46.70227" lon="6.56933">
        <ele>452.5</ele>
        <time>2022-09-29T07:10:56Z</time>
      </trkpt>
      <trkpt lat="46.70221" lon="6.56935">
        <ele>452.6</ele>
        <time>2022-09-29T07:10:57Z</time>
      </trkpt>
      <trkpt lat="46.70215" lon="6.56936">
        <ele>452.6</ele>
        <time>2022-09-29T07:10:58Z</time>
      </trkpt>
      <trkpt lat="46.70209" lon="6.56937">
        <ele>452.7</ele>
        <time>2022-09-29T07:10:59Z</time>
      </trkpt>
      <trkpt lat="46.70209" lon="6.56936">
        <ele>452.7</ele>
        <time>2022-09-29T07:11:00Z</time>
      </trkpt>
      <trkpt lat="46.70209" lon="6.56936">
        <ele>452.7</ele>
        <time>2022-09-29T07:11:01Z</time>
      </trkpt>
      <trkpt lat="46.7021" lon="6.56936">
        <ele>452.7</ele>
        <time>2022-09-29T07:11:02Z</time>
      </trkpt>
      <trkpt lat="46.7021" lon="6.56936">
        <ele>452.7</ele>
        <time>2022-09-29T07:11:03Z</time>
      </trkpt>
      <trkpt lat="46.7021" lon="6.56935">
        <ele>452.7</ele>
        <time>2022-09-29T07:11:04Z</time>
      </trkpt>
      <trkpt lat="46.7021" lon="6.56935">
        <ele>452.7</ele>
        <time>2022-09-29T07:11:33Z</time>
      </trkpt>
      <trkpt lat="46.70211" lon="6.56935">
        <ele>452.7</ele>
        <time>2022-09-29T07:11:34Z</time>
      </trkpt>
      <trkpt lat="46.70211" lon="6.56935">
        <ele>452.7</ele>
        <time>2022-09-29T07:11:35Z</time>
      </trkpt>
      <trkpt lat="46.70211" lon="6.56935">
        <ele>452.8</ele>
        <time>2022-09-29T07:11:36Z</time>
      </trkpt>
      <trkpt lat="46.70212" lon="6.56935">
        <ele>452.8</ele>
        <time>2022-09-29T07:11:37Z</time>
      </trkpt>
      <trkpt lat="46.70212" lon="6.56935">
        <ele>452.8</ele>
        <time>2022-09-29T07:11:38Z</time>
      </trkpt>
      <trkpt lat="46.70212" lon="6.56934">
        <ele>452.8</ele>
        <time>2022-09-29T07:11:39Z</time>
      </trkpt>
      <trkpt lat="46.70212" lon="6.56934">
        <ele>452.8</ele>
        <time>2022-09-29T07:11:40Z</time>
      </trkpt>
      <trkpt lat="46.70213" lon="6.56934">
        <ele>452.8</ele>
        <time>2022-09-29T07:11:41Z</time>
      </trkpt>
      <trkpt lat="46.70213" lon="6.56934">
        <ele>452.8</ele>
        <time>2022-09-29T07:11:42Z</time>
      </trkpt>
      <trkpt lat="46.70213" lon="6.56934">
        <ele>452.8</ele>
        <time>2022-09-29T07:12:29Z</time>
      </trkpt>
      <trkpt lat="46.70214" lon="6.56934">
        <ele>452.8</ele>
        <time>2022-09-29T07:12:30Z</time>
      </trkpt>
      <trkpt lat="46.70214" lon="6.56934">
        <ele>452.8</ele>
        <time>2022-09-29T07:12:31Z</time>
      </trkpt>
      <trkpt lat="46.70214" lon="6.56933">
        <ele>452.8</ele>
        <time>2022-09-29T07:12:32Z</time>
      </trkpt>
      <trkpt lat="46.70214" lon="6.56933">
        <ele>452.8</ele>
        <time>2022-09-29T07:12:33Z</time>
      </trkpt>
      <trkpt lat="46.70215" lon="6.56933">
        <ele>452.8</ele>
        <time>2022-09-29T07:12:34Z</time>
      </trkpt>
      <trkpt lat="46.70215" lon="6.56933">
        <ele>452.8</ele>
        <time>2022-09-29T07:12:35Z</time>
      </trkpt>
      <trkpt lat="46.70215" lon="6.56933">
        <ele>452.8</ele>
        <time>2022-09-29T07:12:36Z</time>
      </trkpt>
      <trkpt lat="46.70215" lon="6.56933">
        <ele>452.8</ele>
        <time>2022-09-29T07:12:37Z</time>
      </trkpt>
      <trkpt lat="46.70216" lon="6.56933">
        <ele>452.8</ele>
        <time>2022-09-29T07:12:38Z</time>
      </trkpt>
      <trkpt lat="46.70216" lon="6.56933">
        <ele>452.8</ele>
        <time>2022-09-29T07:17:36Z</time>
      </trkpt>
      <trkpt lat="46.70216" lon="6.56932">
        <ele>452.8</ele>
        <time>2022-09-29T07:17:37Z</time>
      </trkpt>
      <trkpt lat="46.70217" lon="6.56932">
        <ele>452.8</ele>
        <time>2022-09-29T07:17:38Z</time>
      </trkpt>
      <trkpt lat="46.70217" lon="6.56932">
        <ele>452.8</ele>
        <time>2022-09-29T07:17:39Z</time>
      </trkpt>
      <trkpt lat="46.70217" lon="6.56932">
        <ele>452.8</ele>
        <time>2022-09-29T07:17:40Z</time>
      </trkpt>
      <trkpt lat="46.70217" lon="6.56932">
        <ele>452.8</ele>
        <time>2022-09-29T07:17:41Z</time>
      </trkpt>
      <trkpt lat="46.70218" lon="6.56932">
        <ele>452.8</ele>
        <time>2022-09-29T07:17:42Z</time>
      </trkpt>
      <trkpt lat="46.70218" lon="6.56932">
        <ele>452.8</ele>
        <time>2022-09-29T07:17:43Z</time>
      </trkpt>
      <trkpt lat="46.70218" lon="6.56931">
        <ele>452.8</ele>
        <time>2022-09-29T07:17:44Z</time>
      </trkpt>
      <trkpt lat="46.70219" lon="6.56931">
        <ele>452.8</ele>
        <time>2022-09-29T07:17:45Z</time>
      </trkpt>
      <trkpt lat="46.70219" lon="6.56931">
        <ele>452.8</ele>
        <time>2022-09-29T07:19:03Z</time>
      </trkpt>
      <trkpt lat="46.70219" lon="6.56931">
        <ele>452.8</ele>
        <time>2022-09-29T07:19:04Z</time>
      </trkpt>
      <trkpt lat="46.70219" lon="6.56931">
        <ele>452.8</ele>
        <time>2022-09-29T07:19:05Z</time>
      </trkpt>
      <trkpt lat="46.7022" lon="6.56931">
        <ele>452.8</ele>
        <time>2022-09-29T07:19:06Z</time>
      </trkpt>
      <trkpt lat="46.7022" lon="6.56929">
        <ele>452.9</ele>
        <time>2022-09-29T07:19:07Z</time>
      </trkpt>
      <trkpt lat="46.7022" lon="6.5693">
        <ele>452.9</ele>
        <time>2022-09-29T07:19:08Z</time>
      </trkpt>
      <trkpt lat="46.7022" lon="6.5693">
        <ele>452.9</ele>
        <time>2022-09-29T07:19:09Z</time>
      </trkpt>
      <trkpt lat="46.7022" lon="6.56929">
        <ele>452.9</ele>
        <time>2022-09-29T07:19:10Z</time>
      </trkpt>
      <trkpt lat="46.7022" lon="6.56929">
        <ele>452.9</ele>
        <time>2022-09-29T07:19:11Z</time>
      </trkpt>
      <trkpt lat="46.7022" lon="6.56929">
        <ele>452.9</ele>
        <time>2022-09-29T07:19:12Z</time>
      </trkpt>
      <trkpt lat="46.70217" lon="6.56929">
        <ele>452.9</ele>
        <time>2022-09-29T07:20:53Z</time>
      </trkpt>
      <trkpt lat="46.70215" lon="6.56928">
        <ele>452.9</ele>
        <time>2022-09-29T07:20:54Z</time>
      </trkpt>
      <trkpt lat="46.70216" lon="6.56929">
        <ele>452.9</ele>
        <time>2022-09-29T07:20:55Z</time>
      </trkpt>
      <trkpt lat="46.70216" lon="6.5693">
        <ele>452.9</ele>
        <time>2022-09-29T07:20:56Z</time>
      </trkpt>
      <trkpt lat="46.70217" lon="6.5693">
        <ele>452.9</ele>
        <time>2022-09-29T07:20:57Z</time>
      </trkpt>
      <trkpt lat="46.70219" lon="6.56929">
        <ele>453</ele>
        <time>2022-09-29T07:20:58Z</time>
      </trkpt>
      <trkpt lat="46.70218" lon="6.56931">
        <ele>453</ele>
        <time>2022-09-29T07:20:59Z</time>
      </trkpt>
      <trkpt lat="46.70218" lon="6.56931">
        <ele>453</ele>
        <time>2022-09-29T07:21:00Z</time>
      </trkpt>
      <trkpt lat="46.70218" lon="6.56931">
        <ele>453</ele>
        <time>2022-09-29T07:21:01Z</time>
      </trkpt>
      <trkpt lat="46.70218" lon="6.56929">
        <ele>453</ele>
        <time>2022-09-29T07:21:02Z</time>
      </trkpt>
      <trkpt lat="46.70218" lon="6.56929">
        <ele>453</ele>
        <time>2022-09-29T07:21:03Z</time>
      </trkpt>
      <trkpt lat="46.70219" lon="6.56929">
        <ele>453</ele>
        <time>2022-09-29T07:21:04Z</time>
      </trkpt>
      <trkpt lat="46.70219" lon="6.56929">
        <ele>453</ele>
        <time>2022-09-29T07:21:05Z</time>
      </trkpt>
      <trkpt lat="46.70219" lon="6.56929">
        <ele>453</ele>
        <time>2022-09-29T07:21:06Z</time>
      </trkpt>
      <trkpt lat="46.70219" lon="6.56929">
        <ele>453</ele>
        <time>2022-09-29T07:21:07Z</time>
      </trkpt>
      <trkpt lat="46.70224" lon="6.56928">
        <ele>453</ele>
        <time>2022-09-29T07:28:28Z</time>
      </trkpt>
      <trkpt lat="46.70223" lon="6.56932">
        <ele>453</ele>
        <time>2022-09-29T07:28:29Z</time>
      </trkpt>
      <trkpt lat="46.70224" lon="6.56933">
        <ele>453.1</ele>
        <time>2022-09-29T07:28:30Z</time>
      </trkpt>
      <trkpt lat="46.70223" lon="6.56935">
        <ele>453.1</ele>
        <time>2022-09-29T07:28:31Z</time>
      </trkpt>
      <trkpt lat="46.70223" lon="6.56936">
        <ele>453.1</ele>
        <time>2022-09-29T07:28:32Z</time>
      </trkpt>
      <trkpt lat="46.70223" lon="6.56937">
        <ele>453.1</ele>
        <time>2022-09-29T07:28:33Z</time>
      </trkpt>
      <trkpt lat="46.70223" lon="6.56937">
        <ele>453.1</ele>
        <time>2022-09-29T07:28:34Z</time>
      </trkpt>
      <trkpt lat="46.70223" lon="6.56937">
        <ele>453.1</ele>
        <time>2022-09-29T07:28:35Z</time>
      </trkpt>
      <trkpt lat="46.70223" lon="6.56937">
        <ele>453.1</ele>
        <time>2022-09-29T07:28:36Z</time>
      </trkpt>
      <trkpt lat="46.70223" lon="6.56937">
        <ele>453.1</ele>
        <time>2022-09-29T07:28:37Z</time>
      </trkpt>
      <trkpt lat="46.70223" lon="6.56937">
        <ele>453.1</ele>
        <time>2022-09-29T07:28:38Z</time>
      </trkpt>
      <trkpt lat="46.70224" lon="6.56936">
        <ele>453.1</ele>
        <time>2022-09-29T07:28:39Z</time>
      </trkpt>
      <trkpt lat="46.70224" lon="6.56936">
        <ele>453.1</ele>
        <time>2022-09-29T07:28:40Z</time>
      </trkpt>
      <trkpt lat="46.70224" lon="6.56936">
        <ele>453.1</ele>
        <time>2022-09-29T07:28:41Z</time>
      </trkpt>
      <trkpt lat="46.70224" lon="6.56936">
        <ele>453.1</ele>
        <time>2022-09-29T07:28:42Z</time>
      </trkpt>
      <trkpt lat="46.70224" lon="6.56936">
        <ele>453.1</ele>
        <time>2022-09-29T07:28:43Z</time>
      </trkpt>
      <trkpt lat="46.70224" lon="6.56936">
        <ele>453.1</ele>
        <time>2022-09-29T07:28:44Z</time>
      </trkpt>
      <trkpt lat="46.70224" lon="6.56936">
        <ele>453.1</ele>
        <time>2022-09-29T07:28:45Z</time>
      </trkpt>
      <trkpt lat="46.70224" lon="6.56936">
        <ele>453.1</ele>
        <time>2022-09-29T07:28:46Z</time>
      </trkpt>
      <trkpt lat="46.70225" lon="6.56936">
        <ele>453.1</ele>
        <time>2022-09-29T07:28:47Z</time>
      </trkpt>
      <trkpt lat="46.70225" lon="6.56936">
        <ele>453.1</ele>
        <time>2022-09-29T07:28:48Z</time>
      </trkpt>
      <trkpt lat="46.70225" lon="6.56935">
        <ele>453.1</ele>
        <time>2022-09-29T07:28:49Z</time>
      </trkpt>
      <trkpt lat="46.70225" lon="6.56935">
        <ele>453.1</ele>
        <time>2022-09-29T07:28:50Z</time>
      </trkpt>
      <trkpt lat="46.70225" lon="6.56935">
        <ele>453.1</ele>
        <time>2022-09-29T07:28:51Z</time>
      </trkpt>
      <trkpt lat="46.70225" lon="6.56935">
        <ele>453.1</ele>
        <time>2022-09-29T07:28:52Z</time>
      </trkpt>
      <trkpt lat="46.70225" lon="6.56935">
        <ele>453.1</ele>
        <time>2022-09-29T07:28:53Z</time>
      </trkpt>
      <trkpt lat="46.70225" lon="6.56935">
        <ele>453.1</ele>
        <time>2022-09-29T07:32:38Z</time>
      </trkpt>
      <trkpt lat="46.70226" lon="6.56935">
        <ele>453.1</ele>
        <time>2022-09-29T07:32:39Z</time>
      </trkpt>
      <trkpt lat="46.70226" lon="6.56935">
        <ele>453.1</ele>
        <time>2022-09-29T07:32:40Z</time>
      </trkpt>
      <trkpt lat="46.70226" lon="6.56935">
        <ele>453.1</ele>
        <time>2022-09-29T07:32:41Z</time>
      </trkpt>
      <trkpt lat="46.70226" lon="6.56935">
        <ele>453.1</ele>
        <time>2022-09-29T07:32:42Z</time>
      </trkpt>
      <trkpt lat="46.70226" lon="6.56934">
        <ele>453.1</ele>
        <time>2022-09-29T07:32:43Z</time>
      </trkpt>
      <trkpt lat="46.70226" lon="6.56934">
        <ele>453.1</ele>
        <time>2022-09-29T07:32:44Z</time>
      </trkpt>
      <trkpt lat="46.70226" lon="6.56934">
        <ele>453.1</ele>
        <time>2022-09-29T07:32:45Z</time>
      </trkpt>
      <trkpt lat="46.70227" lon="6.56934">
        <ele>453.1</ele>
        <time>2022-09-29T07:32:46Z</time>
      </trkpt>
      <trkpt lat="46.70227" lon="6.56934">
        <ele>453.1</ele>
        <time>2022-09-29T07:32:47Z</time>
      </trkpt>
      <trkpt lat="46.70227" lon="6.56934">
        <ele>453.1</ele>
        <time>2022-09-29T07:37:21Z</time>
      </trkpt>
      <trkpt lat="46.70227" lon="6.56934">
        <ele>453.1</ele>
        <time>2022-09-29T07:37:22Z</time>
      </trkpt>
      <trkpt lat="46.70227" lon="6.56934">
        <ele>453.1</ele>
        <time>2022-09-29T07:37:23Z</time>
      </trkpt>
      <trkpt lat="46.70227" lon="6.56934">
        <ele>453.1</ele>
        <time>2022-09-29T07:37:24Z</time>
      </trkpt>
      <trkpt lat="46.70227" lon="6.56934">
        <ele>453.1</ele>
        <time>2022-09-29T07:37:25Z</time>
      </trkpt>
      <trkpt lat="46.70227" lon="6.56934">
        <ele>453.1</ele>
        <time>2022-09-29T07:37:26Z</time>
      </trkpt>
      <trkpt lat="46.70227" lon="6.56932">
        <ele>453.1</ele>
        <time>2022-09-29T07:37:27Z</time>
      </trkpt>
      <trkpt lat="46.70228" lon="6.56933">
        <ele>453.1</ele>
        <time>2022-09-29T07:37:28Z</time>
      </trkpt>
      <trkpt lat="46.7023" lon="6.56929">
        <ele>453.1</ele>
        <time>2022-09-29T07:37:29Z</time>
      </trkpt>
      <trkpt lat="46.70229" lon="6.56931">
        <ele>453.1</ele>
        <time>2022-09-29T07:37:30Z</time>
      </trkpt>
      <trkpt lat="46.70228" lon="6.56931">
        <ele>453.2</ele>
        <time>2022-09-29T07:37:31Z</time>
      </trkpt>
      <trkpt lat="46.70228" lon="6.56932">
        <ele>453.2</ele>
        <time>2022-09-29T07:37:32Z</time>
      </trkpt>
      <trkpt lat="46.70227" lon="6.56932">
        <ele>453.2</ele>
        <time>2022-09-29T07:37:33Z</time>
      </trkpt>
      <trkpt lat="46.70227" lon="6.56932">
        <ele>453.2</ele>
        <time>2022-09-29T07:37:34Z</time>
      </trkpt>
      <trkpt lat="46.70226" lon="6.56932">
        <ele>453.2</ele>
        <time>2022-09-29T07:37:35Z</time>
      </trkpt>
      <trkpt lat="46.70226" lon="6.56932">
        <ele>453.2</ele>
        <time>2022-09-29T07:37:36Z</time>
      </trkpt>
      <trkpt lat="46.70226" lon="6.56932">
        <ele>453.2</ele>
        <time>2022-09-29T07:37:37Z</time>
      </trkpt>
      <trkpt lat="46.70226" lon="6.56932">
        <ele>453.2</ele>
        <time>2022-09-29T07:37:38Z</time>
      </trkpt>
      <trkpt lat="46.70226" lon="6.56932">
        <ele>453.2</ele>
        <time>2022-09-29T07:37:39Z</time>
      </trkpt>
      <trkpt lat="46.70226" lon="6.56932">
        <ele>453.2</ele>
        <time>2022-09-29T07:37:40Z</time>
      </trkpt>
      <trkpt lat="46.70227" lon="6.56934">
        <ele>453.2</ele>
        <time>2022-09-29T07:37:41Z</time>
      </trkpt>
      <trkpt lat="46.70226" lon="6.56934">
        <ele>453.2</ele>
        <time>2022-09-29T07:37:42Z</time>
      </trkpt>
      <trkpt lat="46.70226" lon="6.56928">
        <ele>453.2</ele>
        <time>2022-09-29T07:37:43Z</time>
      </trkpt>
      <trkpt lat="46.70226" lon="6.56927">
        <ele>453.2</ele>
        <time>2022-09-29T07:37:44Z</time>
      </trkpt>
      <trkpt lat="46.70226" lon="6.56929">
        <ele>453.2</ele>
        <time>2022-09-29T07:37:45Z</time>
      </trkpt>
      <trkpt lat="46.70226" lon="6.56931">
        <ele>453.2</ele>
        <time>2022-09-29T07:37:46Z</time>
      </trkpt>
      <trkpt lat="46.70225" lon="6.56932">
        <ele>453.2</ele>
        <time>2022-09-29T07:37:47Z</time>
      </trkpt>
      <trkpt lat="46.70225" lon="6.56934">
        <ele>453.2</ele>
        <time>2022-09-29T07:37:48Z</time>
      </trkpt>
      <trkpt lat="46.70224" lon="6.56936">
        <ele>453.2</ele>
        <time>2022-09-29T07:37:49Z</time>
      </trkpt>
      <trkpt lat="46.70224" lon="6.56938">
        <ele>453.2</ele>
        <time>2022-09-29T07:37:50Z</time>
      </trkpt>
      <trkpt lat="46.70226" lon="6.56939">
        <ele>453.3</ele>
        <time>2022-09-29T07:37:51Z</time>
      </trkpt>
      <trkpt lat="46.70226" lon="6.56939">
        <ele>453.3</ele>
        <time>2022-09-29T07:37:52Z</time>
      </trkpt>
      <trkpt lat="46.70227" lon="6.56939">
        <ele>453.3</ele>
        <time>2022-09-29T07:37:53Z</time>
      </trkpt>
      <trkpt lat="46.70227" lon="6.56938">
        <ele>453.3</ele>
        <time>2022-09-29T07:37:54Z</time>
      </trkpt>
      <trkpt lat="46.70228" lon="6.56938">
        <ele>453.3</ele>
        <time>2022-09-29T07:37:55Z</time>
      </trkpt>
      <trkpt lat="46.70228" lon="6.56938">
        <ele>453.3</ele>
        <time>2022-09-29T07:37:56Z</time>
      </trkpt>
      <trkpt lat="46.70229" lon="6.56937">
        <ele>453.3</ele>
        <time>2022-09-29T07:37:57Z</time>
      </trkpt>
      <trkpt lat="46.70229" lon="6.56937">
        <ele>453.3</ele>
        <time>2022-09-29T07:37:58Z</time>
      </trkpt>
      <trkpt lat="46.7023" lon="6.56937">
        <ele>453.3</ele>
        <time>2022-09-29T07:37:59Z</time>
      </trkpt>
      <trkpt lat="46.7023" lon="6.56936">
        <ele>453.3</ele>
        <time>2022-09-29T07:38:00Z</time>
      </trkpt>
      <trkpt lat="46.70231" lon="6.56936">
        <ele>453.3</ele>
        <time>2022-09-29T07:38:33Z</time>
      </trkpt>
      <trkpt lat="46.70231" lon="6.56936">
        <ele>453.3</ele>
        <time>2022-09-29T07:38:34Z</time>
      </trkpt>
      <trkpt lat="46.70232" lon="6.56935">
        <ele>453.3</ele>
        <time>2022-09-29T07:38:35Z</time>
      </trkpt>
      <trkpt lat="46.70232" lon="6.56935">
        <ele>453.3</ele>
        <time>2022-09-29T07:38:36Z</time>
      </trkpt>
      <trkpt lat="46.70233" lon="6.56935">
        <ele>453.3</ele>
        <time>2022-09-29T07:38:37Z</time>
      </trkpt>
      <trkpt lat="46.70234" lon="6.56934">
        <ele>453.3</ele>
        <time>2022-09-29T07:38:38Z</time>
      </trkpt>
      <trkpt lat="46.70233" lon="6.56935">
        <ele>453.3</ele>
        <time>2022-09-29T07:38:39Z</time>
      </trkpt>
      <trkpt lat="46.70233" lon="6.56935">
        <ele>453.3</ele>
        <time>2022-09-29T07:38:40Z</time>
      </trkpt>
      <trkpt lat="46.70233" lon="6.56935">
        <ele>453.3</ele>
        <time>2022-09-29T07:38:41Z</time>
      </trkpt>
      <trkpt lat="46.70233" lon="6.56935">
        <ele>453.3</ele>
        <time>2022-09-29T07:38:42Z</time>
      </trkpt>
      <trkpt lat="46.70232" lon="6.56935">
        <ele>453.3</ele>
        <time>2022-09-29T07:38:43Z</time>
      </trkpt>
      <trkpt lat="46.70232" lon="6.56935">
        <ele>453.3</ele>
        <time>2022-09-29T07:38:44Z</time>
      </trkpt>
      <trkpt lat="46.70232" lon="6.56935">
        <ele>453.3</ele>
        <time>2022-09-29T07:38:45Z</time>
      </trkpt>
      <trkpt lat="46.70232" lon="6.56935">
        <ele>453.3</ele>
        <time>2022-09-29T07:38:46Z</time>
      </trkpt>
      <trkpt lat="46.70231" lon="6.56934">
        <ele>453.3</ele>
        <time>2022-09-29T07:38:47Z</time>
      </trkpt>
      <trkpt lat="46.70231" lon="6.56934">
        <ele>453.3</ele>
        <time>2022-09-29T07:39:01Z</time>
      </trkpt>
      <trkpt lat="46.70231" lon="6.56934">
        <ele>453.3</ele>
        <time>2022-09-29T07:39:03Z</time>
      </trkpt>
      <trkpt lat="46.70231" lon="6.56934">
        <ele>453.3</ele>
        <time>2022-09-29T07:39:04Z</time>
      </trkpt>
      <trkpt lat="46.7023" lon="6.56934">
        <ele>453.3</ele>
        <time>2022-09-29T07:39:05Z</time>
      </trkpt>
      <trkpt lat="46.7023" lon="6.56934">
        <ele>453.3</ele>
        <time>2022-09-29T07:39:06Z</time>
      </trkpt>
      <trkpt lat="46.7023" lon="6.56934">
        <ele>453.3</ele>
        <time>2022-09-29T07:39:07Z</time>
      </trkpt>
      <trkpt lat="46.7023" lon="6.56934">
        <ele>453.3</ele>
        <time>2022-09-29T07:39:08Z</time>
      </trkpt>
      <trkpt lat="46.7023" lon="6.56934">
        <ele>453.3</ele>
        <time>2022-09-29T07:39:09Z</time>
      </trkpt>
      <trkpt lat="46.70229" lon="6.56934">
        <ele>453.3</ele>
        <time>2022-09-29T07:39:10Z</time>
      </trkpt>
      <trkpt lat="46.70229" lon="6.56934">
        <ele>453.3</ele>
        <time>2022-09-29T07:39:11Z</time>
      </trkpt>
      <trkpt lat="46.70229" lon="6.56934">
        <ele>453.3</ele>
        <time>2022-09-29T07:39:12Z</time>
      </trkpt>
      <trkpt lat="46.70229" lon="6.56934">
        <ele>453.3</ele>
        <time>2022-09-29T07:49:46Z</time>
      </trkpt>
      <trkpt lat="46.70228" lon="6.56934">
        <ele>453.3</ele>
        <time>2022-09-29T07:49:47Z</time>
      </trkpt>
      <trkpt lat="46.70228" lon="6.56934">
        <ele>453.3</ele>
        <time>2022-09-29T07:49:48Z</time>
      </trkpt>
      <trkpt lat="46.70228" lon="6.56934">
        <ele>453.3</ele>
        <time>2022-09-29T07:49:49Z</time>
      </trkpt>
      <trkpt lat="46.70228" lon="6.56934">
        <ele>453.3</ele>
        <time>2022-09-29T07:49:50Z</time>
      </trkpt>
      <trkpt lat="46.70227" lon="6.56934">
        <ele>453.3</ele>
        <time>2022-09-29T07:49:51Z</time>
      </trkpt>
      <trkpt lat="46.70227" lon="6.56934">
        <ele>453.3</ele>
        <time>2022-09-29T07:49:52Z</time>
      </trkpt>
      <trkpt lat="46.70227" lon="6.56934">
        <ele>453.3</ele>
        <time>2022-09-29T07:49:53Z</time>
      </trkpt>
      <trkpt lat="46.70227" lon="6.56934">
        <ele>453.3</ele>
        <time>2022-09-29T07:49:54Z</time>
      </trkpt>
      <trkpt lat="46.70226" lon="6.56934">
        <ele>453.3</ele>
        <time>2022-09-29T07:49:55Z</time>
      </trkpt>
      <trkpt lat="46.70226" lon="6.56934">
        <ele>453.3</ele>
        <time>2022-09-29T07:49:56Z</time>
      </trkpt>
      <trkpt lat="46.70226" lon="6.56934">
        <ele>453.3</ele>
        <time>2022-09-29T07:58:11Z</time>
      </trkpt>
      <trkpt lat="46.70226" lon="6.56934">
        <ele>453.3</ele>
        <time>2022-09-29T07:58:12Z</time>
      </trkpt>
      <trkpt lat="46.70226" lon="6.56934">
        <ele>453.3</ele>
        <time>2022-09-29T07:58:13Z</time>
      </trkpt>
      <trkpt lat="46.70225" lon="6.56934">
        <ele>453.3</ele>
        <time>2022-09-29T07:58:14Z</time>
      </trkpt>
      <trkpt lat="46.70225" lon="6.56934">
        <ele>453.3</ele>
        <time>2022-09-29T07:58:15Z</time>
      </trkpt>
      <trkpt lat="46.70225" lon="6.56934">
        <ele>453.3</ele>
        <time>2022-09-29T07:58:16Z</time>
      </trkpt>
      <trkpt lat="46.70225" lon="6.56934">
        <ele>453.3</ele>
        <time>2022-09-29T07:58:17Z</time>
      </trkpt>
      <trkpt lat="46.70224" lon="6.56933">
        <ele>453.3</ele>
        <time>2022-09-29T07:58:18Z</time>
      </trkpt>
      <trkpt lat="46.70224" lon="6.56933">
        <ele>453.3</ele>
        <time>2022-09-29T07:58:19Z</time>
      </trkpt>
      <trkpt lat="46.70224" lon="6.56933">
        <ele>453.3</ele>
        <time>2022-09-29T07:58:20Z</time>
      </trkpt>
      <trkpt lat="46.70224" lon="6.56933">
        <ele>453.3</ele>
        <time>2022-09-29T07:59:13Z</time>
      </trkpt>
      <trkpt lat="46.70223" lon="6.56933">
        <ele>453.3</ele>
        <time>2022-09-29T07:59:14Z</time>
      </trkpt>
      <trkpt lat="46.70223" lon="6.56933">
        <ele>453.3</ele>
        <time>2022-09-29T07:59:15Z</time>
      </trkpt>
      <trkpt lat="46.70223" lon="6.56933">
        <ele>453.3</ele>
        <time>2022-09-29T07:59:16Z</time>
      </trkpt>
      <trkpt lat="46.70223" lon="6.56933">
        <ele>453.3</ele>
        <time>2022-09-29T07:59:17Z</time>
      </trkpt>
      <trkpt lat="46.70222" lon="6.56933">
        <ele>453.3</ele>
        <time>2022-09-29T07:59:18Z</time>
      </trkpt>
      <trkpt lat="46.70222" lon="6.56933">
        <ele>453.3</ele>
        <time>2022-09-29T07:59:19Z</time>
      </trkpt>
      <trkpt lat="46.70222" lon="6.56933">
        <ele>453.4</ele>
        <time>2022-09-29T07:59:20Z</time>
      </trkpt>
      <trkpt lat="46.70222" lon="6.56933">
        <ele>453.4</ele>
        <time>2022-09-29T07:59:21Z</time>
      </trkpt>
      <trkpt lat="46.70222" lon="6.56933">
        <ele>453.4</ele>
        <time>2022-09-29T07:59:22Z</time>
      </trkpt>
      <trkpt lat="46.70221" lon="6.56933">
        <ele>453.4</ele>
        <time>2022-09-29T07:59:23Z</time>
      </trkpt>
      <trkpt lat="46.70221" lon="6.56933">
        <ele>453.4</ele>
        <time>2022-09-29T08:12:53Z</time>
      </trkpt>
      <trkpt lat="46.70221" lon="6.56933">
        <ele>453.4</ele>
        <time>2022-09-29T08:12:54Z</time>
      </trkpt>
      <trkpt lat="46.70221" lon="6.56933">
        <ele>453.4</ele>
        <time>2022-09-29T08:12:55Z</time>
      </trkpt>
      <trkpt lat="46.7022" lon="6.56933">
        <ele>453.4</ele>
        <time>2022-09-29T08:12:56Z</time>
      </trkpt>
      <trkpt lat="46.7022" lon="6.56933">
        <ele>453.4</ele>
        <time>2022-09-29T08:12:57Z</time>
      </trkpt>
      <trkpt lat="46.7022" lon="6.56933">
        <ele>453.4</ele>
        <time>2022-09-29T08:12:58Z</time>
      </trkpt>
      <trkpt lat="46.7022" lon="6.56933">
        <ele>453.4</ele>
        <time>2022-09-29T08:12:59Z</time>
      </trkpt>
      <trkpt lat="46.70219" lon="6.56933">
        <ele>453.4</ele>
        <time>2022-09-29T08:13:00Z</time>
      </trkpt>
      <trkpt lat="46.70219" lon="6.56931">
        <ele>453.4</ele>
        <time>2022-09-29T08:13:01Z</time>
      </trkpt>
      <trkpt lat="46.7022" lon="6.56931">
        <ele>453.4</ele>
        <time>2022-09-29T08:13:02Z</time>
      </trkpt>
      <trkpt lat="46.7022" lon="6.5693">
        <ele>453.4</ele>
        <time>2022-09-29T08:13:03Z</time>
      </trkpt>
      <trkpt lat="46.70221" lon="6.5693">
        <ele>453.4</ele>
        <time>2022-09-29T08:13:04Z</time>
      </trkpt>
      <trkpt lat="46.70221" lon="6.5693">
        <ele>453.4</ele>
        <time>2022-09-29T08:13:05Z</time>
      </trkpt>
      <trkpt lat="46.70221" lon="6.5693">
        <ele>453.4</ele>
        <time>2022-09-29T08:13:06Z</time>
      </trkpt>
      <trkpt lat="46.70221" lon="6.5693">
        <ele>453.4</ele>
        <time>2022-09-29T08:13:07Z</time>
      </trkpt>
      <trkpt lat="46.70221" lon="6.5693">
        <ele>453.4</ele>
        <time>2022-09-29T08:13:08Z</time>
      </trkpt>
      <trkpt lat="46.70221" lon="6.5693">
        <ele>453.4</ele>
        <time>2022-09-29T08:13:09Z</time>
      </trkpt>
      <trkpt lat="46.70221" lon="6.5693">
        <ele>453.4</ele>
        <time>2022-09-29T08:13:10Z</time>
      </trkpt>
      <trkpt lat="46.70221" lon="6.5693">
        <ele>453.4</ele>
        <time>2022-09-29T08:13:11Z</time>
      </trkpt>
      <trkpt lat="46.70221" lon="6.5693">
        <ele>453.4</ele>
        <time>2022-09-29T08:17:06Z</time>
      </trkpt>
      <trkpt lat="46.70224" lon="6.5693">
        <ele>453.4</ele>
        <time>2022-09-29T08:17:07Z</time>
      </trkpt>
      <trkpt lat="46.70223" lon="6.56931">
        <ele>453.4</ele>
        <time>2022-09-29T08:17:08Z</time>
      </trkpt>
      <trkpt lat="46.70223" lon="6.56932">
        <ele>453.4</ele>
        <time>2022-09-29T08:17:09Z</time>
      </trkpt>
      <trkpt lat="46.70223" lon="6.56933">
        <ele>453.4</ele>
        <time>2022-09-29T08:17:10Z</time>
      </trkpt>
      <trkpt lat="46.70223" lon="6.56933">
        <ele>453.4</ele>
        <time>2022-09-29T08:17:11Z</time>
      </trkpt>
      <trkpt lat="46.70223" lon="6.56934">
        <ele>453.4</ele>
        <time>2022-09-29T08:17:12Z</time>
      </trkpt>
      <trkpt lat="46.70223" lon="6.56935">
        <ele>453.4</ele>
        <time>2022-09-29T08:17:13Z</time>
      </trkpt>
      <trkpt lat="46.70223" lon="6.56935">
        <ele>453.4</ele>
        <time>2022-09-29T08:17:14Z</time>
      </trkpt>
      <trkpt lat="46.70223" lon="6.56936">
        <ele>453.4</ele>
        <time>2022-09-29T08:17:15Z</time>
      </trkpt>
      <trkpt lat="46.70223" lon="6.56937">
        <ele>453.4</ele>
        <time>2022-09-29T08:17:16Z</time>
      </trkpt>
      <trkpt lat="46.70222" lon="6.56937">
        <ele>453.4</ele>
        <time>2022-09-29T08:17:54Z</time>
      </trkpt>
      <trkpt lat="46.70222" lon="6.56938">
        <ele>453.4</ele>
        <time>2022-09-29T08:17:55Z</time>
      </trkpt>
      <trkpt lat="46.70222" lon="6.56939">
        <ele>453.4</ele>
        <time>2022-09-29T08:17:56Z</time>
      </trkpt>
      <trkpt lat="46.70222" lon="6.56939">
        <ele>453.4</ele>
        <time>2022-09-29T08:17:57Z</time>
      </trkpt>
      <trkpt lat="46.70222" lon="6.56939">
        <ele>453.4</ele>
        <time>2022-09-29T08:17:58Z</time>
      </trkpt>
      <trkpt lat="46.70222" lon="6.56939">
        <ele>453.4</ele>
        <time>2022-09-29T08:17:59Z</time>
      </trkpt>
      <trkpt lat="46.70222" lon="6.56939">
        <ele>453.4</ele>
        <time>2022-09-29T08:18:00Z</time>
      </trkpt>
      <trkpt lat="46.70222" lon="6.56939">
        <ele>453.4</ele>
        <time>2022-09-29T08:18:01Z</time>
      </trkpt>
      <trkpt lat="46.70222" lon="6.56938">
        <ele>453.4</ele>
        <time>2022-09-29T08:18:02Z</time>
      </trkpt>
      <trkpt lat="46.70222" lon="6.56938">
        <ele>453.4</ele>
        <time>2022-09-29T08:18:03Z</time>
      </trkpt>
      <trkpt lat="46.70222" lon="6.56938">
        <ele>453.4</ele>
        <time>2022-09-29T08:18:04Z</time>
      </trkpt>
      <trkpt lat="46.70222" lon="6.56937">
        <ele>453.4</ele>
        <time>2022-09-29T08:18:05Z</time>
      </trkpt>
      <trkpt lat="46.70223" lon="6.56937">
        <ele>453.4</ele>
        <time>2022-09-29T08:18:06Z</time>
      </trkpt>
      <trkpt lat="46.70223" lon="6.56937">
        <ele>453.4</ele>
        <time>2022-09-29T08:19:18Z</time>
      </trkpt>
      <trkpt lat="46.70223" lon="6.56937">
        <ele>453.4</ele>
        <time>2022-09-29T08:19:19Z</time>
      </trkpt>
      <trkpt lat="46.70223" lon="6.56936">
        <ele>453.4</ele>
        <time>2022-09-29T08:19:20Z</time>
      </trkpt>
      <trkpt lat="46.70223" lon="6.56936">
        <ele>453.4</ele>
        <time>2022-09-29T08:19:21Z</time>
      </trkpt>
      <trkpt lat="46.70223" lon="6.56936">
        <ele>453.4</ele>
        <time>2022-09-29T08:19:22Z</time>
      </trkpt>
      <trkpt lat="46.70223" lon="6.56936">
        <ele>453.4</ele>
        <time>2022-09-29T08:19:23Z</time>
      </trkpt>
      <trkpt lat="46.70223" lon="6.56935">
        <ele>453.4</ele>
        <time>2022-09-29T08:19:24Z</time>
      </trkpt>
      <trkpt lat="46.70223" lon="6.56935">
        <ele>453.4</ele>
        <time>2022-09-29T08:19:25Z</time>
      </trkpt>
      <trkpt lat="46.70223" lon="6.56935">
        <ele>453.4</ele>
        <time>2022-09-29T08:19:26Z</time>
      </trkpt>
      <trkpt lat="46.70223" lon="6.56935">
        <ele>453.4</ele>
        <time>2022-09-29T08:19:27Z</time>
      </trkpt>
      <trkpt lat="46.70223" lon="6.56934">
        <ele>453.4</ele>
        <time>2022-09-29T08:19:28Z</time>
      </trkpt>
      <trkpt lat="46.70224" lon="6.56934">
        <ele>453.4</ele>
        <time>2022-09-29T08:19:31Z</time>
      </trkpt>
      <trkpt lat="46.70224" lon="6.56934">
        <ele>453.4</ele>
        <time>2022-09-29T08:19:32Z</time>
      </trkpt>
      <trkpt lat="46.70224" lon="6.56934">
        <ele>453.4</ele>
        <time>2022-09-29T08:19:33Z</time>
      </trkpt>
      <trkpt lat="46.70224" lon="6.56933">
        <ele>453.4</ele>
        <time>2022-09-29T08:19:34Z</time>
      </trkpt>
      <trkpt lat="46.70224" lon="6.56933">
        <ele>453.4</ele>
        <time>2022-09-29T08:19:35Z</time>
      </trkpt>
      <trkpt lat="46.70224" lon="6.56933">
        <ele>453.4</ele>
        <time>2022-09-29T08:19:36Z</time>
      </trkpt>
      <trkpt lat="46.70224" lon="6.56932">
        <ele>453.4</ele>
        <time>2022-09-29T08:19:37Z</time>
      </trkpt>
      <trkpt lat="46.70224" lon="6.56931">
        <ele>453.4</ele>
        <time>2022-09-29T08:19:38Z</time>
      </trkpt>
      <trkpt lat="46.70224" lon="6.5693">
        <ele>453.4</ele>
        <time>2022-09-29T08:19:39Z</time>
      </trkpt>
      <trkpt lat="46.70225" lon="6.5693">
        <ele>453.4</ele>
        <time>2022-09-29T08:19:40Z</time>
      </trkpt>
      <trkpt lat="46.70234" lon="6.5693">
        <ele>453.5</ele>
        <time>2022-09-29T08:19:43Z</time>
      </trkpt>
      <trkpt lat="46.70238" lon="6.5693">
        <ele>453.5</ele>
        <time>2022-09-29T08:19:44Z</time>
      </trkpt>
      <trkpt lat="46.70239" lon="6.5693">
        <ele>453.5</ele>
        <time>2022-09-29T08:19:45Z</time>
      </trkpt>
      <trkpt lat="46.70242" lon="6.56932">
        <ele>453.5</ele>
        <time>2022-09-29T08:19:46Z</time>
      </trkpt>
      <trkpt lat="46.70246" lon="6.56931">
        <ele>453.5</ele>
        <time>2022-09-29T08:19:47Z</time>
      </trkpt>
      <trkpt lat="46.70247" lon="6.56931">
        <ele>453.5</ele>
        <time>2022-09-29T08:19:48Z</time>
      </trkpt>
      <trkpt lat="46.7025" lon="6.56932">
        <ele>453.5</ele>
        <time>2022-09-29T08:19:50Z</time>
      </trkpt>
      <trkpt lat="46.70252" lon="6.56932">
        <ele>453.5</ele>
        <time>2022-09-29T08:19:51Z</time>
      </trkpt>
      <trkpt lat="46.70255" lon="6.56931">
        <ele>453.5</ele>
        <time>2022-09-29T08:19:52Z</time>
      </trkpt>
      <trkpt lat="46.70259" lon="6.56932">
        <ele>453.5</ele>
        <time>2022-09-29T08:19:53Z</time>
      </trkpt>
      <trkpt lat="46.70263" lon="6.56931">
        <ele>453.5</ele>
        <time>2022-09-29T08:19:54Z</time>
      </trkpt>
      <trkpt lat="46.70266" lon="6.5693">
        <ele>453.5</ele>
        <time>2022-09-29T08:19:55Z</time>
      </trkpt>
      <trkpt lat="46.70269" lon="6.56929">
        <ele>453.4</ele>
        <time>2022-09-29T08:19:56Z</time>
      </trkpt>
      <trkpt lat="46.70273" lon="6.56928">
        <ele>453.4</ele>
        <time>2022-09-29T08:19:57Z</time>
      </trkpt>
      <trkpt lat="46.70277" lon="6.56926">
        <ele>453.4</ele>
        <time>2022-09-29T08:19:58Z</time>
      </trkpt>
      <trkpt lat="46.70282" lon="6.56924">
        <ele>453.3</ele>
        <time>2022-09-29T08:19:59Z</time>
      </trkpt>
      <trkpt lat="46.70286" lon="6.56922">
        <ele>453.3</ele>
        <time>2022-09-29T08:20:00Z</time>
      </trkpt>
      <trkpt lat="46.7029" lon="6.5692">
        <ele>453.2</ele>
        <time>2022-09-29T08:20:01Z</time>
      </trkpt>
      <trkpt lat="46.70293" lon="6.56917">
        <ele>453.2</ele>
        <time>2022-09-29T08:20:02Z</time>
      </trkpt>
      <trkpt lat="46.70296" lon="6.56914">
        <ele>452.9</ele>
        <time>2022-09-29T08:20:03Z</time>
      </trkpt>
      <trkpt lat="46.70298" lon="6.5691">
        <ele>452.6</ele>
        <time>2022-09-29T08:20:04Z</time>
      </trkpt>
      <trkpt lat="46.70298" lon="6.56908">
        <ele>452.6</ele>
        <time>2022-09-29T08:20:05Z</time>
      </trkpt>
      <trkpt lat="46.70298" lon="6.56906">
        <ele>452.5</ele>
        <time>2022-09-29T08:20:06Z</time>
      </trkpt>
      <trkpt lat="46.70297" lon="6.56904">
        <ele>452.3</ele>
        <time>2022-09-29T08:20:07Z</time>
      </trkpt>
      <trkpt lat="46.70296" lon="6.56898">
        <ele>452.1</ele>
        <time>2022-09-29T08:20:08Z</time>
      </trkpt>
      <trkpt lat="46.70295" lon="6.56894">
        <ele>451.8</ele>
        <time>2022-09-29T08:20:09Z</time>
      </trkpt>
      <trkpt lat="46.70295" lon="6.56889">
        <ele>451.6</ele>
        <time>2022-09-29T08:20:10Z</time>
      </trkpt>
      <trkpt lat="46.70294" lon="6.56884">
        <ele>451.4</ele>
        <time>2022-09-29T08:20:11Z</time>
      </trkpt>
      <trkpt lat="46.70293" lon="6.56878">
        <ele>451.2</ele>
        <time>2022-09-29T08:20:12Z</time>
      </trkpt>
      <trkpt lat="46.70291" lon="6.56871">
        <ele>450.9</ele>
        <time>2022-09-29T08:20:13Z</time>
      </trkpt>
      <trkpt lat="46.70288" lon="6.56864">
        <ele>450.6</ele>
        <time>2022-09-29T08:20:14Z</time>
      </trkpt>
      <trkpt lat="46.70286" lon="6.56857">
        <ele>450.3</ele>
        <time>2022-09-29T08:20:15Z</time>
      </trkpt>
      <trkpt lat="46.70286" lon="6.56851">
        <ele>450.1</ele>
        <time>2022-09-29T08:20:16Z</time>
      </trkpt>
      <trkpt lat="46.70285" lon="6.56841">
        <ele>449.8</ele>
        <time>2022-09-29T08:20:17Z</time>
      </trkpt>
      <trkpt lat="46.70284" lon="6.56832">
        <ele>449.5</ele>
        <time>2022-09-29T08:20:18Z</time>
      </trkpt>
      <trkpt lat="46.70282" lon="6.56824">
        <ele>449.2</ele>
        <time>2022-09-29T08:20:19Z</time>
      </trkpt>
      <trkpt lat="46.70281" lon="6.56815">
        <ele>448.9</ele>
        <time>2022-09-29T08:20:20Z</time>
      </trkpt>
      <trkpt lat="46.70281" lon="6.56808">
        <ele>448.7</ele>
        <time>2022-09-29T08:20:21Z</time>
      </trkpt>
      <trkpt lat="46.70281" lon="6.56801">
        <ele>448.5</ele>
        <time>2022-09-29T08:20:22Z</time>
      </trkpt>
      <trkpt lat="46.70282" lon="6.56794">
        <ele>448.4</ele>
        <time>2022-09-29T08:20:23Z</time>
      </trkpt>
      <trkpt lat="46.70283" lon="6.56789">
        <ele>448.3</ele>
        <time>2022-09-29T08:20:24Z</time>
      </trkpt>
      <trkpt lat="46.70284" lon="6.56783">
        <ele>448.2</ele>
        <time>2022-09-29T08:20:25Z</time>
      </trkpt>
      <trkpt lat="46.70285" lon="6.56777">
        <ele>448.1</ele>
        <time>2022-09-29T08:20:26Z</time>
      </trkpt>
      <trkpt lat="46.70287" lon="6.56769">
        <ele>447.9</ele>
        <time>2022-09-29T08:20:27Z</time>
      </trkpt>
      <trkpt lat="46.70289" lon="6.56763">
        <ele>447.8</ele>
        <time>2022-09-29T08:20:28Z</time>
      </trkpt>
      <trkpt lat="46.70291" lon="6.56757">
        <ele>447.6</ele>
        <time>2022-09-29T08:20:29Z</time>
      </trkpt>
      <trkpt lat="46.70294" lon="6.56749">
        <ele>447.5</ele>
        <time>2022-09-29T08:20:30Z</time>
      </trkpt>
      <trkpt lat="46.70297" lon="6.56743">
        <ele>447.4</ele>
        <time>2022-09-29T08:20:31Z</time>
      </trkpt>
      <trkpt lat="46.70299" lon="6.56737">
        <ele>447.3</ele>
        <time>2022-09-29T08:20:32Z</time>
      </trkpt>
      <trkpt lat="46.70302" lon="6.56731">
        <ele>447.2</ele>
        <time>2022-09-29T08:20:33Z</time>
      </trkpt>
      <trkpt lat="46.70304" lon="6.56726">
        <ele>447</ele>
        <time>2022-09-29T08:20:34Z</time>
      </trkpt>
      <trkpt lat="46.70306" lon="6.56721">
        <ele>446.9</ele>
        <time>2022-09-29T08:20:35Z</time>
      </trkpt>
      <trkpt lat="46.70307" lon="6.56716">
        <ele>446.8</ele>
        <time>2022-09-29T08:20:36Z</time>
      </trkpt>
      <trkpt lat="46.7031" lon="6.56711">
        <ele>446.7</ele>
        <time>2022-09-29T08:20:37Z</time>
      </trkpt>
      <trkpt lat="46.70313" lon="6.56706">
        <ele>446.6</ele>
        <time>2022-09-29T08:20:38Z</time>
      </trkpt>
      <trkpt lat="46.70316" lon="6.56701">
        <ele>446.5</ele>
        <time>2022-09-29T08:20:39Z</time>
      </trkpt>
      <trkpt lat="46.70319" lon="6.56694">
        <ele>446.3</ele>
        <time>2022-09-29T08:20:40Z</time>
      </trkpt>
      <trkpt lat="46.70322" lon="6.56688">
        <ele>446.2</ele>
        <time>2022-09-29T08:20:41Z</time>
      </trkpt>
      <trkpt lat="46.70326" lon="6.56681">
        <ele>446</ele>
        <time>2022-09-29T08:20:42Z</time>
      </trkpt>
      <trkpt lat="46.70329" lon="6.56674">
        <ele>445.9</ele>
        <time>2022-09-29T08:20:43Z</time>
      </trkpt>
      <trkpt lat="46.70332" lon="6.56667">
        <ele>445.8</ele>
        <time>2022-09-29T08:20:44Z</time>
      </trkpt>
      <trkpt lat="46.70335" lon="6.56661">
        <ele>445.7</ele>
        <time>2022-09-29T08:20:45Z</time>
      </trkpt>
      <trkpt lat="46.70339" lon="6.56654">
        <ele>445.6</ele>
        <time>2022-09-29T08:20:46Z</time>
      </trkpt>
      <trkpt lat="46.70342" lon="6.56647">
        <ele>445.5</ele>
        <time>2022-09-29T08:20:47Z</time>
      </trkpt>
      <trkpt lat="46.70346" lon="6.56639">
        <ele>445.4</ele>
        <time>2022-09-29T08:20:48Z</time>
      </trkpt>
      <trkpt lat="46.70349" lon="6.56632">
        <ele>445.3</ele>
        <time>2022-09-29T08:20:49Z</time>
      </trkpt>
      <trkpt lat="46.70351" lon="6.56625">
        <ele>445.2</ele>
        <time>2022-09-29T08:20:50Z</time>
      </trkpt>
      <trkpt lat="46.70354" lon="6.56617">
        <ele>445.1</ele>
        <time>2022-09-29T08:20:51Z</time>
      </trkpt>
      <trkpt lat="46.70356" lon="6.5661">
        <ele>445</ele>
        <time>2022-09-29T08:20:52Z</time>
      </trkpt>
      <trkpt lat="46.70359" lon="6.56603">
        <ele>445</ele>
        <time>2022-09-29T08:20:53Z</time>
      </trkpt>
      <trkpt lat="46.70361" lon="6.56595">
        <ele>444.9</ele>
        <time>2022-09-29T08:20:54Z</time>
      </trkpt>
      <trkpt lat="46.70363" lon="6.56589">
        <ele>444.9</ele>
        <time>2022-09-29T08:20:55Z</time>
      </trkpt>
      <trkpt lat="46.70364" lon="6.56584">
        <ele>444.9</ele>
        <time>2022-09-29T08:20:56Z</time>
      </trkpt>
      <trkpt lat="46.70365" lon="6.56579">
        <ele>444.8</ele>
        <time>2022-09-29T08:20:57Z</time>
      </trkpt>
      <trkpt lat="46.70366" lon="6.56574">
        <ele>444.8</ele>
        <time>2022-09-29T08:20:58Z</time>
      </trkpt>
      <trkpt lat="46.70368" lon="6.56569">
        <ele>444.7</ele>
        <time>2022-09-29T08:20:59Z</time>
      </trkpt>
      <trkpt lat="46.70369" lon="6.56564">
        <ele>444.6</ele>
        <time>2022-09-29T08:21:00Z</time>
      </trkpt>
      <trkpt lat="46.70372" lon="6.56559">
        <ele>444.6</ele>
        <time>2022-09-29T08:21:01Z</time>
      </trkpt>
      <trkpt lat="46.70373" lon="6.56555">
        <ele>444.5</ele>
        <time>2022-09-29T08:21:02Z</time>
      </trkpt>
      <trkpt lat="46.70375" lon="6.56552">
        <ele>444.5</ele>
        <time>2022-09-29T08:21:03Z</time>
      </trkpt>
      <trkpt lat="46.70377" lon="6.56549">
        <ele>444.4</ele>
        <time>2022-09-29T08:21:04Z</time>
      </trkpt>
      <trkpt lat="46.70379" lon="6.56546">
        <ele>444.2</ele>
        <time>2022-09-29T08:21:05Z</time>
      </trkpt>
      <trkpt lat="46.70382" lon="6.56544">
        <ele>444.2</ele>
        <time>2022-09-29T08:21:06Z</time>
      </trkpt>
      <trkpt lat="46.70385" lon="6.56543">
        <ele>444.1</ele>
        <time>2022-09-29T08:21:07Z</time>
      </trkpt>
      <trkpt lat="46.70389" lon="6.56543">
        <ele>444.1</ele>
        <time>2022-09-29T08:21:08Z</time>
      </trkpt>
      <trkpt lat="46.70397" lon="6.56547">
        <ele>444</ele>
        <time>2022-09-29T08:21:09Z</time>
      </trkpt>
      <trkpt lat="46.70402" lon="6.56549">
        <ele>443.9</ele>
        <time>2022-09-29T08:21:10Z</time>
      </trkpt>
      <trkpt lat="46.70407" lon="6.5655">
        <ele>443.9</ele>
        <time>2022-09-29T08:21:11Z</time>
      </trkpt>
      <trkpt lat="46.70412" lon="6.56552">
        <ele>443.8</ele>
        <time>2022-09-29T08:21:12Z</time>
      </trkpt>
      <trkpt lat="46.70417" lon="6.56554">
        <ele>443.8</ele>
        <time>2022-09-29T08:21:13Z</time>
      </trkpt>
      <trkpt lat="46.70421" lon="6.56556">
        <ele>443.7</ele>
        <time>2022-09-29T08:21:14Z</time>
      </trkpt>
      <trkpt lat="46.70426" lon="6.56557">
        <ele>443.7</ele>
        <time>2022-09-29T08:21:15Z</time>
      </trkpt>
      <trkpt lat="46.7043" lon="6.56558">
        <ele>443.7</ele>
        <time>2022-09-29T08:21:16Z</time>
      </trkpt>
      <trkpt lat="46.70436" lon="6.5656">
        <ele>443.7</ele>
        <time>2022-09-29T08:21:17Z</time>
      </trkpt>
      <trkpt lat="46.70441" lon="6.56562">
        <ele>443.7</ele>
        <time>2022-09-29T08:21:18Z</time>
      </trkpt>
      <trkpt lat="46.70446" lon="6.56564">
        <ele>443.6</ele>
        <time>2022-09-29T08:21:19Z</time>
      </trkpt>
      <trkpt lat="46.70451" lon="6.56567">
        <ele>443.6</ele>
        <time>2022-09-29T08:21:20Z</time>
      </trkpt>
      <trkpt lat="46.70457" lon="6.5657">
        <ele>443.6</ele>
        <time>2022-09-29T08:21:21Z</time>
      </trkpt>
      <trkpt lat="46.70462" lon="6.56572">
        <ele>443.6</ele>
        <time>2022-09-29T08:21:22Z</time>
      </trkpt>
      <trkpt lat="46.70468" lon="6.56575">
        <ele>443.5</ele>
        <time>2022-09-29T08:21:23Z</time>
      </trkpt>
      <trkpt lat="46.70473" lon="6.56577">
        <ele>443.5</ele>
        <time>2022-09-29T08:21:24Z</time>
      </trkpt>
      <trkpt lat="46.70479" lon="6.56579">
        <ele>443.5</ele>
        <time>2022-09-29T08:21:25Z</time>
      </trkpt>
      <trkpt lat="46.70484" lon="6.5658">
        <ele>443.5</ele>
        <time>2022-09-29T08:21:26Z</time>
      </trkpt>
      <trkpt lat="46.7049" lon="6.56583">
        <ele>443.5</ele>
        <time>2022-09-29T08:21:27Z</time>
      </trkpt>
      <trkpt lat="46.70496" lon="6.56585">
        <ele>443.5</ele>
        <time>2022-09-29T08:21:28Z</time>
      </trkpt>
      <trkpt lat="46.70501" lon="6.56587">
        <ele>443.5</ele>
        <time>2022-09-29T08:21:29Z</time>
      </trkpt>
      <trkpt lat="46.70506" lon="6.56589">
        <ele>443.5</ele>
        <time>2022-09-29T08:21:30Z</time>
      </trkpt>
      <trkpt lat="46.70511" lon="6.56591">
        <ele>443.5</ele>
        <time>2022-09-29T08:21:31Z</time>
      </trkpt>
      <trkpt lat="46.70516" lon="6.56593">
        <ele>443.5</ele>
        <time>2022-09-29T08:21:32Z</time>
      </trkpt>
      <trkpt lat="46.70521" lon="6.56595">
        <ele>443.5</ele>
        <time>2022-09-29T08:21:33Z</time>
      </trkpt>
      <trkpt lat="46.70527" lon="6.56598">
        <ele>443.5</ele>
        <time>2022-09-29T08:21:34Z</time>
      </trkpt>
      <trkpt lat="46.70533" lon="6.56599">
        <ele>443.5</ele>
        <time>2022-09-29T08:21:35Z</time>
      </trkpt>
      <trkpt lat="46.70538" lon="6.56602">
        <ele>443.5</ele>
        <time>2022-09-29T08:21:36Z</time>
      </trkpt>
      <trkpt lat="46.70543" lon="6.56604">
        <ele>443.5</ele>
        <time>2022-09-29T08:21:37Z</time>
      </trkpt>
      <trkpt lat="46.70549" lon="6.56607">
        <ele>443.5</ele>
        <time>2022-09-29T08:21:38Z</time>
      </trkpt>
      <trkpt lat="46.70554" lon="6.56609">
        <ele>443.5</ele>
        <time>2022-09-29T08:21:39Z</time>
      </trkpt>
      <trkpt lat="46.7056" lon="6.56611">
        <ele>443.5</ele>
        <time>2022-09-29T08:21:40Z</time>
      </trkpt>
      <trkpt lat="46.70565" lon="6.56613">
        <ele>443.6</ele>
        <time>2022-09-29T08:21:41Z</time>
      </trkpt>
      <trkpt lat="46.70571" lon="6.56615">
        <ele>443.6</ele>
        <time>2022-09-29T08:21:42Z</time>
      </trkpt>
      <trkpt lat="46.70577" lon="6.56617">
        <ele>443.7</ele>
        <time>2022-09-29T08:21:43Z</time>
      </trkpt>
      <trkpt lat="46.70582" lon="6.56619">
        <ele>443.7</ele>
        <time>2022-09-29T08:21:44Z</time>
      </trkpt>
      <trkpt lat="46.70588" lon="6.56621">
        <ele>443.8</ele>
        <time>2022-09-29T08:21:45Z</time>
      </trkpt>
      <trkpt lat="46.70594" lon="6.56623">
        <ele>443.9</ele>
        <time>2022-09-29T08:21:46Z</time>
      </trkpt>
      <trkpt lat="46.70599" lon="6.56625">
        <ele>444</ele>
        <time>2022-09-29T08:21:47Z</time>
      </trkpt>
      <trkpt lat="46.70605" lon="6.56626">
        <ele>444</ele>
        <time>2022-09-29T08:21:48Z</time>
      </trkpt>
      <trkpt lat="46.7061" lon="6.56627">
        <ele>444</ele>
        <time>2022-09-29T08:21:49Z</time>
      </trkpt>
      <trkpt lat="46.70615" lon="6.56628">
        <ele>444.1</ele>
        <time>2022-09-29T08:21:50Z</time>
      </trkpt>
      <trkpt lat="46.70621" lon="6.56629">
        <ele>444.2</ele>
        <time>2022-09-29T08:21:51Z</time>
      </trkpt>
      <trkpt lat="46.70625" lon="6.5663">
        <ele>444.3</ele>
        <time>2022-09-29T08:21:52Z</time>
      </trkpt>
      <trkpt lat="46.7063" lon="6.5663">
        <ele>444.4</ele>
        <time>2022-09-29T08:21:53Z</time>
      </trkpt>
      <trkpt lat="46.70634" lon="6.56632">
        <ele>444.5</ele>
        <time>2022-09-29T08:21:54Z</time>
      </trkpt>
      <trkpt lat="46.70638" lon="6.56633">
        <ele>444.5</ele>
        <time>2022-09-29T08:21:56Z</time>
      </trkpt>
      <trkpt lat="46.70643" lon="6.56635">
        <ele>444.6</ele>
        <time>2022-09-29T08:21:57Z</time>
      </trkpt>
      <trkpt lat="46.70647" lon="6.56636">
        <ele>444.7</ele>
        <time>2022-09-29T08:21:58Z</time>
      </trkpt>
      <trkpt lat="46.70651" lon="6.56639">
        <ele>444.9</ele>
        <time>2022-09-29T08:21:59Z</time>
      </trkpt>
      <trkpt lat="46.70655" lon="6.56641">
        <ele>445</ele>
        <time>2022-09-29T08:22:00Z</time>
      </trkpt>
      <trkpt lat="46.7066" lon="6.56643">
        <ele>445.1</ele>
        <time>2022-09-29T08:22:01Z</time>
      </trkpt>
      <trkpt lat="46.70664" lon="6.56645">
        <ele>445.2</ele>
        <time>2022-09-29T08:22:02Z</time>
      </trkpt>
      <trkpt lat="46.70668" lon="6.56647">
        <ele>445.3</ele>
        <time>2022-09-29T08:22:03Z</time>
      </trkpt>
      <trkpt lat="46.70673" lon="6.56649">
        <ele>445.4</ele>
        <time>2022-09-29T08:22:04Z</time>
      </trkpt>
      <trkpt lat="46.70677" lon="6.5665">
        <ele>445.5</ele>
        <time>2022-09-29T08:22:05Z</time>
      </trkpt>
      <trkpt lat="46.70681" lon="6.56653">
        <ele>445.6</ele>
        <time>2022-09-29T08:22:06Z</time>
      </trkpt>
      <trkpt lat="46.70685" lon="6.56655">
        <ele>445.7</ele>
        <time>2022-09-29T08:22:07Z</time>
      </trkpt>
      <trkpt lat="46.70689" lon="6.56656">
        <ele>445.8</ele>
        <time>2022-09-29T08:22:08Z</time>
      </trkpt>
      <trkpt lat="46.70694" lon="6.56658">
        <ele>445.8</ele>
        <time>2022-09-29T08:22:09Z</time>
      </trkpt>
      <trkpt lat="46.70698" lon="6.56659">
        <ele>445.9</ele>
        <time>2022-09-29T08:22:10Z</time>
      </trkpt>
      <trkpt lat="46.70702" lon="6.56661">
        <ele>446</ele>
        <time>2022-09-29T08:22:11Z</time>
      </trkpt>
      <trkpt lat="46.70706" lon="6.56662">
        <ele>446</ele>
        <time>2022-09-29T08:22:12Z</time>
      </trkpt>
      <trkpt lat="46.7071" lon="6.56663">
        <ele>446.1</ele>
        <time>2022-09-29T08:22:13Z</time>
      </trkpt>
      <trkpt lat="46.70714" lon="6.56665">
        <ele>446.1</ele>
        <time>2022-09-29T08:22:14Z</time>
      </trkpt>
      <trkpt lat="46.70718" lon="6.56666">
        <ele>446.2</ele>
        <time>2022-09-29T08:22:15Z</time>
      </trkpt>
      <trkpt lat="46.70723" lon="6.56669">
        <ele>446.2</ele>
        <time>2022-09-29T08:22:16Z</time>
      </trkpt>
      <trkpt lat="46.70727" lon="6.5667">
        <ele>446.3</ele>
        <time>2022-09-29T08:22:17Z</time>
      </trkpt>
      <trkpt lat="46.70731" lon="6.56672">
        <ele>446.4</ele>
        <time>2022-09-29T08:22:18Z</time>
      </trkpt>
      <trkpt lat="46.70735" lon="6.56673">
        <ele>446.4</ele>
        <time>2022-09-29T08:22:19Z</time>
      </trkpt>
      <trkpt lat="46.7074" lon="6.56675">
        <ele>446.5</ele>
        <time>2022-09-29T08:22:20Z</time>
      </trkpt>
      <trkpt lat="46.70744" lon="6.56676">
        <ele>446.5</ele>
        <time>2022-09-29T08:22:21Z</time>
      </trkpt>
      <trkpt lat="46.70748" lon="6.56677">
        <ele>446.6</ele>
        <time>2022-09-29T08:22:22Z</time>
      </trkpt>
      <trkpt lat="46.70752" lon="6.56679">
        <ele>446.6</ele>
        <time>2022-09-29T08:22:23Z</time>
      </trkpt>
      <trkpt lat="46.70756" lon="6.56681">
        <ele>446.7</ele>
        <time>2022-09-29T08:22:24Z</time>
      </trkpt>
      <trkpt lat="46.7076" lon="6.56683">
        <ele>446.7</ele>
        <time>2022-09-29T08:22:25Z</time>
      </trkpt>
      <trkpt lat="46.70764" lon="6.56685">
        <ele>446.8</ele>
        <time>2022-09-29T08:22:26Z</time>
      </trkpt>
      <trkpt lat="46.70768" lon="6.56686">
        <ele>446.8</ele>
        <time>2022-09-29T08:22:27Z</time>
      </trkpt>
      <trkpt lat="46.70772" lon="6.56687">
        <ele>446.9</ele>
        <time>2022-09-29T08:22:28Z</time>
      </trkpt>
      <trkpt lat="46.70776" lon="6.56689">
        <ele>446.9</ele>
        <time>2022-09-29T08:22:29Z</time>
      </trkpt>
      <trkpt lat="46.70779" lon="6.5669">
        <ele>447</ele>
        <time>2022-09-29T08:22:30Z</time>
      </trkpt>
      <trkpt lat="46.70784" lon="6.56691">
        <ele>447</ele>
        <time>2022-09-29T08:22:31Z</time>
      </trkpt>
      <trkpt lat="46.70788" lon="6.56693">
        <ele>447.1</ele>
        <time>2022-09-29T08:22:32Z</time>
      </trkpt>
      <trkpt lat="46.70792" lon="6.56695">
        <ele>447.1</ele>
        <time>2022-09-29T08:22:33Z</time>
      </trkpt>
      <trkpt lat="46.70797" lon="6.56697">
        <ele>447.1</ele>
        <time>2022-09-29T08:22:34Z</time>
      </trkpt>
      <trkpt lat="46.70801" lon="6.56699">
        <ele>447.2</ele>
        <time>2022-09-29T08:22:35Z</time>
      </trkpt>
      <trkpt lat="46.70806" lon="6.56702">
        <ele>447.2</ele>
        <time>2022-09-29T08:22:36Z</time>
      </trkpt>
      <trkpt lat="46.70811" lon="6.56704">
        <ele>447.3</ele>
        <time>2022-09-29T08:22:37Z</time>
      </trkpt>
      <trkpt lat="46.70815" lon="6.56706">
        <ele>447.3</ele>
        <time>2022-09-29T08:22:38Z</time>
      </trkpt>
      <trkpt lat="46.7082" lon="6.56707">
        <ele>447.4</ele>
        <time>2022-09-29T08:22:39Z</time>
      </trkpt>
      <trkpt lat="46.70824" lon="6.5671">
        <ele>447.4</ele>
        <time>2022-09-29T08:22:40Z</time>
      </trkpt>
      <trkpt lat="46.70829" lon="6.56711">
        <ele>447.5</ele>
        <time>2022-09-29T08:22:41Z</time>
      </trkpt>
      <trkpt lat="46.70834" lon="6.56713">
        <ele>447.5</ele>
        <time>2022-09-29T08:22:42Z</time>
      </trkpt>
      <trkpt lat="46.70838" lon="6.56715">
        <ele>447.5</ele>
        <time>2022-09-29T08:22:43Z</time>
      </trkpt>
      <trkpt lat="46.70842" lon="6.56715">
        <ele>447.6</ele>
        <time>2022-09-29T08:22:44Z</time>
      </trkpt>
      <trkpt lat="46.70847" lon="6.56718">
        <ele>447.6</ele>
        <time>2022-09-29T08:22:45Z</time>
      </trkpt>
      <trkpt lat="46.70852" lon="6.5672">
        <ele>447.6</ele>
        <time>2022-09-29T08:22:46Z</time>
      </trkpt>
      <trkpt lat="46.70857" lon="6.56721">
        <ele>447.7</ele>
        <time>2022-09-29T08:22:47Z</time>
      </trkpt>
      <trkpt lat="46.70862" lon="6.56723">
        <ele>447.7</ele>
        <time>2022-09-29T08:22:48Z</time>
      </trkpt>
      <trkpt lat="46.70866" lon="6.56724">
        <ele>447.7</ele>
        <time>2022-09-29T08:22:49Z</time>
      </trkpt>
      <trkpt lat="46.70871" lon="6.56726">
        <ele>447.8</ele>
        <time>2022-09-29T08:22:50Z</time>
      </trkpt>
      <trkpt lat="46.70876" lon="6.56728">
        <ele>447.8</ele>
        <time>2022-09-29T08:22:51Z</time>
      </trkpt>
      <trkpt lat="46.7088" lon="6.5673">
        <ele>447.8</ele>
        <time>2022-09-29T08:22:52Z</time>
      </trkpt>
      <trkpt lat="46.70885" lon="6.56732">
        <ele>447.8</ele>
        <time>2022-09-29T08:22:53Z</time>
      </trkpt>
      <trkpt lat="46.7089" lon="6.56733">
        <ele>447.8</ele>
        <time>2022-09-29T08:22:54Z</time>
      </trkpt>
      <trkpt lat="46.70895" lon="6.56735">
        <ele>447.9</ele>
        <time>2022-09-29T08:22:55Z</time>
      </trkpt>
      <trkpt lat="46.70899" lon="6.56737">
        <ele>447.9</ele>
        <time>2022-09-29T08:22:56Z</time>
      </trkpt>
      <trkpt lat="46.70904" lon="6.56738">
        <ele>448</ele>
        <time>2022-09-29T08:22:57Z</time>
      </trkpt>
      <trkpt lat="46.70909" lon="6.5674">
        <ele>448</ele>
        <time>2022-09-29T08:22:58Z</time>
      </trkpt>
      <trkpt lat="46.70913" lon="6.56742">
        <ele>448</ele>
        <time>2022-09-29T08:22:59Z</time>
      </trkpt>
      <trkpt lat="46.70918" lon="6.56743">
        <ele>448</ele>
        <time>2022-09-29T08:23:00Z</time>
      </trkpt>
      <trkpt lat="46.70922" lon="6.56746">
        <ele>448.1</ele>
        <time>2022-09-29T08:23:01Z</time>
      </trkpt>
      <trkpt lat="46.70926" lon="6.56749">
        <ele>448.1</ele>
        <time>2022-09-29T08:23:02Z</time>
      </trkpt>
      <trkpt lat="46.70931" lon="6.56752">
        <ele>448.1</ele>
        <time>2022-09-29T08:23:03Z</time>
      </trkpt>
      <trkpt lat="46.70935" lon="6.56754">
        <ele>448.2</ele>
        <time>2022-09-29T08:23:04Z</time>
      </trkpt>
      <trkpt lat="46.70939" lon="6.56755">
        <ele>448.2</ele>
        <time>2022-09-29T08:23:05Z</time>
      </trkpt>
      <trkpt lat="46.70943" lon="6.56757">
        <ele>448.2</ele>
        <time>2022-09-29T08:23:06Z</time>
      </trkpt>
      <trkpt lat="46.70947" lon="6.56758">
        <ele>448.2</ele>
        <time>2022-09-29T08:23:07Z</time>
      </trkpt>
      <trkpt lat="46.70955" lon="6.56761">
        <ele>448.3</ele>
        <time>2022-09-29T08:23:08Z</time>
      </trkpt>
      <trkpt lat="46.70959" lon="6.56763">
        <ele>448.3</ele>
        <time>2022-09-29T08:23:09Z</time>
      </trkpt>
      <trkpt lat="46.70963" lon="6.56764">
        <ele>448.3</ele>
        <time>2022-09-29T08:23:10Z</time>
      </trkpt>
      <trkpt lat="46.70967" lon="6.56766">
        <ele>448.4</ele>
        <time>2022-09-29T08:23:11Z</time>
      </trkpt>
      <trkpt lat="46.70972" lon="6.56768">
        <ele>448.4</ele>
        <time>2022-09-29T08:23:12Z</time>
      </trkpt>
      <trkpt lat="46.70976" lon="6.56769">
        <ele>448.4</ele>
        <time>2022-09-29T08:23:13Z</time>
      </trkpt>
      <trkpt lat="46.7098" lon="6.56771">
        <ele>448.4</ele>
        <time>2022-09-29T08:23:14Z</time>
      </trkpt>
      <trkpt lat="46.70983" lon="6.56772">
        <ele>448.4</ele>
        <time>2022-09-29T08:23:15Z</time>
      </trkpt>
      <trkpt lat="46.70984" lon="6.56772">
        <ele>448.4</ele>
        <time>2022-09-29T08:23:16Z</time>
      </trkpt>
      <trkpt lat="46.70985" lon="6.56774">
        <ele>448.4</ele>
        <time>2022-09-29T08:23:17Z</time>
      </trkpt>
      <trkpt lat="46.70986" lon="6.56774">
        <ele>448.4</ele>
        <time>2022-09-29T08:23:18Z</time>
      </trkpt>
      <trkpt lat="46.70987" lon="6.56775">
        <ele>448.5</ele>
        <time>2022-09-29T08:23:19Z</time>
      </trkpt>
      <trkpt lat="46.70988" lon="6.56776">
        <ele>448.5</ele>
        <time>2022-09-29T08:23:20Z</time>
      </trkpt>
      <trkpt lat="46.7099" lon="6.56777">
        <ele>448.5</ele>
        <time>2022-09-29T08:23:21Z</time>
      </trkpt>
      <trkpt lat="46.70992" lon="6.56777">
        <ele>448.5</ele>
        <time>2022-09-29T08:23:22Z</time>
      </trkpt>
      <trkpt lat="46.70994" lon="6.56778">
        <ele>448.5</ele>
        <time>2022-09-29T08:23:23Z</time>
      </trkpt>
      <trkpt lat="46.70996" lon="6.56778">
        <ele>448.5</ele>
        <time>2022-09-29T08:23:24Z</time>
      </trkpt>
      <trkpt lat="46.70997" lon="6.56779">
        <ele>448.6</ele>
        <time>2022-09-29T08:23:25Z</time>
      </trkpt>
      <trkpt lat="46.70999" lon="6.56779">
        <ele>448.6</ele>
        <time>2022-09-29T08:23:26Z</time>
      </trkpt>
      <trkpt lat="46.71001" lon="6.5678">
        <ele>448.6</ele>
        <time>2022-09-29T08:23:27Z</time>
      </trkpt>
      <trkpt lat="46.71003" lon="6.5678">
        <ele>448.6</ele>
        <time>2022-09-29T08:24:39Z</time>
      </trkpt>
      <trkpt lat="46.71005" lon="6.56781">
        <ele>448.6</ele>
        <time>2022-09-29T08:24:40Z</time>
      </trkpt>
      <trkpt lat="46.71008" lon="6.56782">
        <ele>448.6</ele>
        <time>2022-09-29T08:24:41Z</time>
      </trkpt>
      <trkpt lat="46.71009" lon="6.56783">
        <ele>448.6</ele>
        <time>2022-09-29T08:24:42Z</time>
      </trkpt>
      <trkpt lat="46.71013" lon="6.56784">
        <ele>448.7</ele>
        <time>2022-09-29T08:24:43Z</time>
      </trkpt>
      <trkpt lat="46.71015" lon="6.56784">
        <ele>448.7</ele>
        <time>2022-09-29T08:24:44Z</time>
      </trkpt>
      <trkpt lat="46.71018" lon="6.56785">
        <ele>448.7</ele>
        <time>2022-09-29T08:24:45Z</time>
      </trkpt>
      <trkpt lat="46.71021" lon="6.56787">
        <ele>448.8</ele>
        <time>2022-09-29T08:24:46Z</time>
      </trkpt>
      <trkpt lat="46.71024" lon="6.56788">
        <ele>448.9</ele>
        <time>2022-09-29T08:24:47Z</time>
      </trkpt>
      <trkpt lat="46.71028" lon="6.56789">
        <ele>448.9</ele>
        <time>2022-09-29T08:24:48Z</time>
      </trkpt>
      <trkpt lat="46.71031" lon="6.56789">
        <ele>449</ele>
        <time>2022-09-29T08:24:49Z</time>
      </trkpt>
      <trkpt lat="46.71035" lon="6.56789">
        <ele>449</ele>
        <time>2022-09-29T08:24:50Z</time>
      </trkpt>
      <trkpt lat="46.71038" lon="6.56789">
        <ele>449.1</ele>
        <time>2022-09-29T08:24:51Z</time>
      </trkpt>
      <trkpt lat="46.71041" lon="6.56788">
        <ele>449.2</ele>
        <time>2022-09-29T08:24:52Z</time>
      </trkpt>
      <trkpt lat="46.71045" lon="6.56788">
        <ele>449.2</ele>
        <time>2022-09-29T08:24:53Z</time>
      </trkpt>
      <trkpt lat="46.71048" lon="6.56786">
        <ele>449.3</ele>
        <time>2022-09-29T08:24:54Z</time>
      </trkpt>
      <trkpt lat="46.71052" lon="6.56784">
        <ele>449.4</ele>
        <time>2022-09-29T08:24:55Z</time>
      </trkpt>
      <trkpt lat="46.71055" lon="6.56782">
        <ele>449.5</ele>
        <time>2022-09-29T08:24:56Z</time>
      </trkpt>
      <trkpt lat="46.71058" lon="6.5678">
        <ele>449.5</ele>
        <time>2022-09-29T08:24:57Z</time>
      </trkpt>
      <trkpt lat="46.71062" lon="6.56778">
        <ele>449.7</ele>
        <time>2022-09-29T08:24:58Z</time>
      </trkpt>
      <trkpt lat="46.71065" lon="6.56776">
        <ele>449.8</ele>
        <time>2022-09-29T08:24:59Z</time>
      </trkpt>
      <trkpt lat="46.71069" lon="6.56774">
        <ele>449.9</ele>
        <time>2022-09-29T08:25:00Z</time>
      </trkpt>
      <trkpt lat="46.71071" lon="6.56772">
        <ele>450.1</ele>
        <time>2022-09-29T08:25:01Z</time>
      </trkpt>
      <trkpt lat="46.71074" lon="6.5677">
        <ele>450.3</ele>
        <time>2022-09-29T08:25:02Z</time>
      </trkpt>
      <trkpt lat="46.71076" lon="6.56768">
        <ele>450.4</ele>
        <time>2022-09-29T08:25:03Z</time>
      </trkpt>
      <trkpt lat="46.71078" lon="6.56767">
        <ele>450.5</ele>
        <time>2022-09-29T08:25:04Z</time>
      </trkpt>
      <trkpt lat="46.71079" lon="6.56766">
        <ele>450.6</ele>
        <time>2022-09-29T08:25:05Z</time>
      </trkpt>
      <trkpt lat="46.7108" lon="6.56765">
        <ele>450.6</ele>
        <time>2022-09-29T08:25:06Z</time>
      </trkpt>
      <trkpt lat="46.71082" lon="6.56764">
        <ele>450.7</ele>
        <time>2022-09-29T08:25:07Z</time>
      </trkpt>
      <trkpt lat="46.71085" lon="6.56762">
        <ele>450.9</ele>
        <time>2022-09-29T08:25:08Z</time>
      </trkpt>
      <trkpt lat="46.71086" lon="6.56761">
        <ele>451</ele>
        <time>2022-09-29T08:25:09Z</time>
      </trkpt>
      <trkpt lat="46.7109" lon="6.56759">
        <ele>451.1</ele>
        <time>2022-09-29T08:25:10Z</time>
      </trkpt>
      <trkpt lat="46.71091" lon="6.56759">
        <ele>451.2</ele>
        <time>2022-09-29T08:25:11Z</time>
      </trkpt>
      <trkpt lat="46.71093" lon="6.56757">
        <ele>451.3</ele>
        <time>2022-09-29T08:25:12Z</time>
      </trkpt>
      <trkpt lat="46.71093" lon="6.56756">
        <ele>451.3</ele>
        <time>2022-09-29T08:25:13Z</time>
      </trkpt>
      <trkpt lat="46.71094" lon="6.56755">
        <ele>451.3</ele>
        <time>2022-09-29T08:25:14Z</time>
      </trkpt>
      <trkpt lat="46.71096" lon="6.56753">
        <ele>451.4</ele>
        <time>2022-09-29T08:25:15Z</time>
      </trkpt>
      <trkpt lat="46.71099" lon="6.5675">
        <ele>451.5</ele>
        <time>2022-09-29T08:25:16Z</time>
      </trkpt>
      <trkpt lat="46.711" lon="6.56748">
        <ele>451.5</ele>
        <time>2022-09-29T08:25:17Z</time>
      </trkpt>
      <trkpt lat="46.71103" lon="6.56744">
        <ele>451.6</ele>
        <time>2022-09-29T08:25:18Z</time>
      </trkpt>
      <trkpt lat="46.71106" lon="6.56739">
        <ele>451.4</ele>
        <time>2022-09-29T08:25:19Z</time>
      </trkpt>
      <trkpt lat="46.71109" lon="6.56735">
        <ele>451.3</ele>
        <time>2022-09-29T08:25:20Z</time>
      </trkpt>
      <trkpt lat="46.71113" lon="6.56731">
        <ele>451.2</ele>
        <time>2022-09-29T08:25:21Z</time>
      </trkpt>
      <trkpt lat="46.71116" lon="6.56728">
        <ele>451</ele>
        <time>2022-09-29T08:25:22Z</time>
      </trkpt>
      <trkpt lat="46.7112" lon="6.56727">
        <ele>450.8</ele>
        <time>2022-09-29T08:25:23Z</time>
      </trkpt>
      <trkpt lat="46.71123" lon="6.56727">
        <ele>450.7</ele>
        <time>2022-09-29T08:25:24Z</time>
      </trkpt>
      <trkpt lat="46.71127" lon="6.56728">
        <ele>450.5</ele>
        <time>2022-09-29T08:25:25Z</time>
      </trkpt>
      <trkpt lat="46.7113" lon="6.56731">
        <ele>450.4</ele>
        <time>2022-09-29T08:25:26Z</time>
      </trkpt>
      <trkpt lat="46.71134" lon="6.56733">
        <ele>450.2</ele>
        <time>2022-09-29T08:25:27Z</time>
      </trkpt>
      <trkpt lat="46.71138" lon="6.56737">
        <ele>450</ele>
        <time>2022-09-29T08:25:28Z</time>
      </trkpt>
      <trkpt lat="46.71142" lon="6.5674">
        <ele>449.8</ele>
        <time>2022-09-29T08:25:29Z</time>
      </trkpt>
      <trkpt lat="46.71147" lon="6.56743">
        <ele>449.6</ele>
        <time>2022-09-29T08:25:30Z</time>
      </trkpt>
      <trkpt lat="46.71152" lon="6.56746">
        <ele>449.4</ele>
        <time>2022-09-29T08:25:31Z</time>
      </trkpt>
      <trkpt lat="46.71157" lon="6.56748">
        <ele>449.2</ele>
        <time>2022-09-29T08:25:32Z</time>
      </trkpt>
      <trkpt lat="46.71162" lon="6.56751">
        <ele>449.1</ele>
        <time>2022-09-29T08:25:33Z</time>
      </trkpt>
      <trkpt lat="46.71167" lon="6.56755">
        <ele>448.9</ele>
        <time>2022-09-29T08:25:34Z</time>
      </trkpt>
      <trkpt lat="46.71172" lon="6.56758">
        <ele>448.7</ele>
        <time>2022-09-29T08:25:35Z</time>
      </trkpt>
      <trkpt lat="46.71176" lon="6.56761">
        <ele>448.5</ele>
        <time>2022-09-29T08:25:36Z</time>
      </trkpt>
      <trkpt lat="46.71182" lon="6.56765">
        <ele>448.3</ele>
        <time>2022-09-29T08:25:37Z</time>
      </trkpt>
      <trkpt lat="46.71187" lon="6.56768">
        <ele>448.1</ele>
        <time>2022-09-29T08:25:38Z</time>
      </trkpt>
      <trkpt lat="46.71193" lon="6.56772">
        <ele>447.8</ele>
        <time>2022-09-29T08:25:39Z</time>
      </trkpt>
      <trkpt lat="46.71199" lon="6.56775">
        <ele>447.6</ele>
        <time>2022-09-29T08:25:40Z</time>
      </trkpt>
      <trkpt lat="46.71203" lon="6.56778">
        <ele>447.3</ele>
        <time>2022-09-29T08:25:41Z</time>
      </trkpt>
      <trkpt lat="46.71208" lon="6.56781">
        <ele>447.1</ele>
        <time>2022-09-29T08:25:42Z</time>
      </trkpt>
      <trkpt lat="46.71211" lon="6.56784">
        <ele>447</ele>
        <time>2022-09-29T08:25:43Z</time>
      </trkpt>
      <trkpt lat="46.71214" lon="6.56785">
        <ele>446.8</ele>
        <time>2022-09-29T08:25:44Z</time>
      </trkpt>
      <trkpt lat="46.71217" lon="6.56786">
        <ele>446.7</ele>
        <time>2022-09-29T08:25:45Z</time>
      </trkpt>
      <trkpt lat="46.71218" lon="6.56787">
        <ele>446.7</ele>
        <time>2022-09-29T08:25:46Z</time>
      </trkpt>
      <trkpt lat="46.71221" lon="6.5679">
        <ele>446.5</ele>
        <time>2022-09-29T08:25:47Z</time>
      </trkpt>
      <trkpt lat="46.71223" lon="6.56791">
        <ele>446.5</ele>
        <time>2022-09-29T08:25:48Z</time>
      </trkpt>
      <trkpt lat="46.71226" lon="6.56794">
        <ele>446.2</ele>
        <time>2022-09-29T08:25:49Z</time>
      </trkpt>
      <trkpt lat="46.71229" lon="6.56796">
        <ele>446</ele>
        <time>2022-09-29T08:25:50Z</time>
      </trkpt>
      <trkpt lat="46.71233" lon="6.56799">
        <ele>445.7</ele>
        <time>2022-09-29T08:25:51Z</time>
      </trkpt>
      <trkpt lat="46.71238" lon="6.56801">
        <ele>445.5</ele>
        <time>2022-09-29T08:25:52Z</time>
      </trkpt>
      <trkpt lat="46.71244" lon="6.56803">
        <ele>445.2</ele>
        <time>2022-09-29T08:25:53Z</time>
      </trkpt>
      <trkpt lat="46.7125" lon="6.56805">
        <ele>444.8</ele>
        <time>2022-09-29T08:25:54Z</time>
      </trkpt>
      <trkpt lat="46.71256" lon="6.56807">
        <ele>444.6</ele>
        <time>2022-09-29T08:25:55Z</time>
      </trkpt>
      <trkpt lat="46.71262" lon="6.56809">
        <ele>444.3</ele>
        <time>2022-09-29T08:25:56Z</time>
      </trkpt>
      <trkpt lat="46.71268" lon="6.56812">
        <ele>444.1</ele>
        <time>2022-09-29T08:25:57Z</time>
      </trkpt>
      <trkpt lat="46.71274" lon="6.56815">
        <ele>443.8</ele>
        <time>2022-09-29T08:25:58Z</time>
      </trkpt>
      <trkpt lat="46.71281" lon="6.56817">
        <ele>443.6</ele>
        <time>2022-09-29T08:25:59Z</time>
      </trkpt>
      <trkpt lat="46.71288" lon="6.56819">
        <ele>443.4</ele>
        <time>2022-09-29T08:26:00Z</time>
      </trkpt>
      <trkpt lat="46.71294" lon="6.56822">
        <ele>443.2</ele>
        <time>2022-09-29T08:26:01Z</time>
      </trkpt>
      <trkpt lat="46.71301" lon="6.56825">
        <ele>443.1</ele>
        <time>2022-09-29T08:26:02Z</time>
      </trkpt>
      <trkpt lat="46.71308" lon="6.56827">
        <ele>442.9</ele>
        <time>2022-09-29T08:26:03Z</time>
      </trkpt>
      <trkpt lat="46.71315" lon="6.5683">
        <ele>442.7</ele>
        <time>2022-09-29T08:26:04Z</time>
      </trkpt>
      <trkpt lat="46.71322" lon="6.56833">
        <ele>442.6</ele>
        <time>2022-09-29T08:26:05Z</time>
      </trkpt>
      <trkpt lat="46.71329" lon="6.56836">
        <ele>442.5</ele>
        <time>2022-09-29T08:26:06Z</time>
      </trkpt>
      <trkpt lat="46.71336" lon="6.56839">
        <ele>442.3</ele>
        <time>2022-09-29T08:26:08Z</time>
      </trkpt>
      <trkpt lat="46.71343" lon="6.56842">
        <ele>442.2</ele>
        <time>2022-09-29T08:26:09Z</time>
      </trkpt>
      <trkpt lat="46.7135" lon="6.56844">
        <ele>442.1</ele>
        <time>2022-09-29T08:26:10Z</time>
      </trkpt>
      <trkpt lat="46.71356" lon="6.56848">
        <ele>442</ele>
        <time>2022-09-29T08:26:11Z</time>
      </trkpt>
      <trkpt lat="46.71363" lon="6.56851">
        <ele>441.9</ele>
        <time>2022-09-29T08:26:12Z</time>
      </trkpt>
      <trkpt lat="46.7137" lon="6.56853">
        <ele>441.9</ele>
        <time>2022-09-29T08:26:13Z</time>
      </trkpt>
      <trkpt lat="46.71377" lon="6.56856">
        <ele>441.8</ele>
        <time>2022-09-29T08:26:14Z</time>
      </trkpt>
      <trkpt lat="46.71384" lon="6.56858">
        <ele>441.8</ele>
        <time>2022-09-29T08:26:15Z</time>
      </trkpt>
      <trkpt lat="46.7139" lon="6.56861">
        <ele>441.7</ele>
        <time>2022-09-29T08:26:16Z</time>
      </trkpt>
      <trkpt lat="46.71397" lon="6.56863">
        <ele>441.7</ele>
        <time>2022-09-29T08:26:17Z</time>
      </trkpt>
      <trkpt lat="46.71403" lon="6.56866">
        <ele>441.7</ele>
        <time>2022-09-29T08:26:18Z</time>
      </trkpt>
      <trkpt lat="46.71409" lon="6.56868">
        <ele>441.8</ele>
        <time>2022-09-29T08:26:19Z</time>
      </trkpt>
      <trkpt lat="46.71413" lon="6.56871">
        <ele>441.8</ele>
        <time>2022-09-29T08:26:20Z</time>
      </trkpt>
      <trkpt lat="46.71416" lon="6.56873">
        <ele>441.9</ele>
        <time>2022-09-29T08:26:21Z</time>
      </trkpt>
      <trkpt lat="46.71419" lon="6.56875">
        <ele>441.9</ele>
        <time>2022-09-29T08:26:22Z</time>
      </trkpt>
      <trkpt lat="46.71421" lon="6.56879">
        <ele>441.9</ele>
        <time>2022-09-29T08:26:23Z</time>
      </trkpt>
      <trkpt lat="46.71422" lon="6.56881">
        <ele>441.9</ele>
        <time>2022-09-29T08:26:24Z</time>
      </trkpt>
      <trkpt lat="46.71423" lon="6.56885">
        <ele>441.9</ele>
        <time>2022-09-29T08:26:25Z</time>
      </trkpt>
      <trkpt lat="46.71423" lon="6.56889">
        <ele>442</ele>
        <time>2022-09-29T08:26:26Z</time>
      </trkpt>
      <trkpt lat="46.71422" lon="6.56894">
        <ele>442</ele>
        <time>2022-09-29T08:26:27Z</time>
      </trkpt>
      <trkpt lat="46.71421" lon="6.56899">
        <ele>442</ele>
        <time>2022-09-29T08:26:28Z</time>
      </trkpt>
      <trkpt lat="46.71419" lon="6.56903">
        <ele>442</ele>
        <time>2022-09-29T08:26:29Z</time>
      </trkpt>
      <trkpt lat="46.71418" lon="6.56908">
        <ele>442</ele>
        <time>2022-09-29T08:26:30Z</time>
      </trkpt>
      <trkpt lat="46.71417" lon="6.56913">
        <ele>442</ele>
        <time>2022-09-29T08:26:31Z</time>
      </trkpt>
      <trkpt lat="46.71415" lon="6.56918">
        <ele>442</ele>
        <time>2022-09-29T08:26:32Z</time>
      </trkpt>
      <trkpt lat="46.71413" lon="6.56922">
        <ele>442</ele>
        <time>2022-09-29T08:26:33Z</time>
      </trkpt>
      <trkpt lat="46.71411" lon="6.56927">
        <ele>442</ele>
        <time>2022-09-29T08:26:34Z</time>
      </trkpt>
      <trkpt lat="46.71409" lon="6.56933">
        <ele>442</ele>
        <time>2022-09-29T08:26:35Z</time>
      </trkpt>
      <trkpt lat="46.71409" lon="6.56939">
        <ele>442</ele>
        <time>2022-09-29T08:26:36Z</time>
      </trkpt>
      <trkpt lat="46.7141" lon="6.56945">
        <ele>442</ele>
        <time>2022-09-29T08:26:37Z</time>
      </trkpt>
      <trkpt lat="46.71411" lon="6.56951">
        <ele>442.1</ele>
        <time>2022-09-29T08:26:38Z</time>
      </trkpt>
      <trkpt lat="46.71413" lon="6.56956">
        <ele>441.9</ele>
        <time>2022-09-29T08:26:39Z</time>
      </trkpt>
      <trkpt lat="46.71417" lon="6.56961">
        <ele>441.9</ele>
        <time>2022-09-29T08:26:40Z</time>
      </trkpt>
      <trkpt lat="46.7142" lon="6.56964">
        <ele>441.8</ele>
        <time>2022-09-29T08:26:41Z</time>
      </trkpt>
      <trkpt lat="46.71425" lon="6.56966">
        <ele>441.8</ele>
        <time>2022-09-29T08:26:42Z</time>
      </trkpt>
      <trkpt lat="46.71429" lon="6.56966">
        <ele>441.7</ele>
        <time>2022-09-29T08:26:43Z</time>
      </trkpt>
      <trkpt lat="46.71434" lon="6.56968">
        <ele>441.6</ele>
        <time>2022-09-29T08:26:44Z</time>
      </trkpt>
      <trkpt lat="46.71443" lon="6.56972">
        <ele>441.6</ele>
        <time>2022-09-29T08:26:45Z</time>
      </trkpt>
      <trkpt lat="46.71449" lon="6.56974">
        <ele>441.5</ele>
        <time>2022-09-29T08:26:46Z</time>
      </trkpt>
      <trkpt lat="46.71454" lon="6.56975">
        <ele>441.5</ele>
        <time>2022-09-29T08:26:47Z</time>
      </trkpt>
      <trkpt lat="46.7146" lon="6.56977">
        <ele>441.5</ele>
        <time>2022-09-29T08:26:48Z</time>
      </trkpt>
      <trkpt lat="46.71466" lon="6.56979">
        <ele>441.5</ele>
        <time>2022-09-29T08:26:49Z</time>
      </trkpt>
      <trkpt lat="46.71471" lon="6.56981">
        <ele>441.5</ele>
        <time>2022-09-29T08:26:50Z</time>
      </trkpt>
      <trkpt lat="46.71477" lon="6.56983">
        <ele>441.5</ele>
        <time>2022-09-29T08:26:51Z</time>
      </trkpt>
      <trkpt lat="46.71483" lon="6.56985">
        <ele>441.5</ele>
        <time>2022-09-29T08:26:52Z</time>
      </trkpt>
      <trkpt lat="46.71488" lon="6.56987">
        <ele>441.6</ele>
        <time>2022-09-29T08:26:53Z</time>
      </trkpt>
      <trkpt lat="46.71494" lon="6.56989">
        <ele>441.6</ele>
        <time>2022-09-29T08:26:54Z</time>
      </trkpt>
      <trkpt lat="46.715" lon="6.56991">
        <ele>441.7</ele>
        <time>2022-09-29T08:26:55Z</time>
      </trkpt>
      <trkpt lat="46.71505" lon="6.56993">
        <ele>441.8</ele>
        <time>2022-09-29T08:26:56Z</time>
      </trkpt>
      <trkpt lat="46.71511" lon="6.56996">
        <ele>441.9</ele>
        <time>2022-09-29T08:26:57Z</time>
      </trkpt>
      <trkpt lat="46.71514" lon="6.57001">
        <ele>442</ele>
        <time>2022-09-29T08:26:58Z</time>
      </trkpt>
      <trkpt lat="46.71518" lon="6.57002">
        <ele>442.1</ele>
        <time>2022-09-29T08:26:59Z</time>
      </trkpt>
      <trkpt lat="46.71521" lon="6.57009">
        <ele>442.2</ele>
        <time>2022-09-29T08:27:00Z</time>
      </trkpt>
      <trkpt lat="46.71524" lon="6.57014">
        <ele>442.3</ele>
        <time>2022-09-29T08:27:01Z</time>
      </trkpt>
      <trkpt lat="46.71527" lon="6.57018">
        <ele>442.4</ele>
        <time>2022-09-29T08:27:02Z</time>
      </trkpt>
      <trkpt lat="46.7153" lon="6.57021">
        <ele>442.4</ele>
        <time>2022-09-29T08:27:03Z</time>
      </trkpt>
      <trkpt lat="46.71535" lon="6.57023">
        <ele>442.5</ele>
        <time>2022-09-29T08:27:04Z</time>
      </trkpt>
      <trkpt lat="46.7154" lon="6.57026">
        <ele>442.5</ele>
        <time>2022-09-29T08:27:05Z</time>
      </trkpt>
      <trkpt lat="46.71543" lon="6.57026">
        <ele>442.5</ele>
        <time>2022-09-29T08:27:06Z</time>
      </trkpt>
      <trkpt lat="46.71547" lon="6.57027">
        <ele>442.5</ele>
        <time>2022-09-29T08:27:07Z</time>
      </trkpt>
      <trkpt lat="46.7155" lon="6.57028">
        <ele>442.5</ele>
        <time>2022-09-29T08:27:08Z</time>
      </trkpt>
      <trkpt lat="46.71554" lon="6.5703">
        <ele>442.5</ele>
        <time>2022-09-29T08:27:09Z</time>
      </trkpt>
      <trkpt lat="46.71557" lon="6.57031">
        <ele>442.5</ele>
        <time>2022-09-29T08:27:10Z</time>
      </trkpt>
      <trkpt lat="46.71561" lon="6.57032">
        <ele>442.4</ele>
        <time>2022-09-29T08:27:11Z</time>
      </trkpt>
      <trkpt lat="46.71564" lon="6.57034">
        <ele>442.4</ele>
        <time>2022-09-29T08:27:12Z</time>
      </trkpt>
      <trkpt lat="46.71568" lon="6.57035">
        <ele>442.3</ele>
        <time>2022-09-29T08:27:13Z</time>
      </trkpt>
      <trkpt lat="46.71572" lon="6.57038">
        <ele>442.2</ele>
        <time>2022-09-29T08:27:14Z</time>
      </trkpt>
      <trkpt lat="46.71577" lon="6.5704">
        <ele>442.1</ele>
        <time>2022-09-29T08:27:15Z</time>
      </trkpt>
      <trkpt lat="46.71581" lon="6.57041">
        <ele>442</ele>
        <time>2022-09-29T08:27:16Z</time>
      </trkpt>
      <trkpt lat="46.71586" lon="6.57043">
        <ele>441.8</ele>
        <time>2022-09-29T08:27:17Z</time>
      </trkpt>
      <trkpt lat="46.71591" lon="6.57045">
        <ele>441.7</ele>
        <time>2022-09-29T08:27:18Z</time>
      </trkpt>
      <trkpt lat="46.71598" lon="6.57048">
        <ele>441.5</ele>
        <time>2022-09-29T08:27:19Z</time>
      </trkpt>
      <trkpt lat="46.71603" lon="6.5705">
        <ele>441.4</ele>
        <time>2022-09-29T08:27:20Z</time>
      </trkpt>
      <trkpt lat="46.71608" lon="6.57052">
        <ele>441.3</ele>
        <time>2022-09-29T08:27:21Z</time>
      </trkpt>
      <trkpt lat="46.71615" lon="6.57055">
        <ele>441.2</ele>
        <time>2022-09-29T08:27:22Z</time>
      </trkpt>
      <trkpt lat="46.71621" lon="6.57057">
        <ele>441</ele>
        <time>2022-09-29T08:27:23Z</time>
      </trkpt>
      <trkpt lat="46.71626" lon="6.57059">
        <ele>440.9</ele>
        <time>2022-09-29T08:27:24Z</time>
      </trkpt>
      <trkpt lat="46.71632" lon="6.57062">
        <ele>440.7</ele>
        <time>2022-09-29T08:27:25Z</time>
      </trkpt>
      <trkpt lat="46.71638" lon="6.57063">
        <ele>440.6</ele>
        <time>2022-09-29T08:27:26Z</time>
      </trkpt>
      <trkpt lat="46.71644" lon="6.57066">
        <ele>440.5</ele>
        <time>2022-09-29T08:27:27Z</time>
      </trkpt>
      <trkpt lat="46.7165" lon="6.57068">
        <ele>440.4</ele>
        <time>2022-09-29T08:27:28Z</time>
      </trkpt>
      <trkpt lat="46.71657" lon="6.57071">
        <ele>440.2</ele>
        <time>2022-09-29T08:27:29Z</time>
      </trkpt>
      <trkpt lat="46.71663" lon="6.57074">
        <ele>440.2</ele>
        <time>2022-09-29T08:27:30Z</time>
      </trkpt>
      <trkpt lat="46.71669" lon="6.57076">
        <ele>440</ele>
        <time>2022-09-29T08:27:31Z</time>
      </trkpt>
      <trkpt lat="46.71675" lon="6.57078">
        <ele>439.9</ele>
        <time>2022-09-29T08:27:32Z</time>
      </trkpt>
      <trkpt lat="46.71681" lon="6.5708">
        <ele>439.9</ele>
        <time>2022-09-29T08:27:33Z</time>
      </trkpt>
      <trkpt lat="46.71687" lon="6.57083">
        <ele>439.8</ele>
        <time>2022-09-29T08:27:34Z</time>
      </trkpt>
      <trkpt lat="46.71694" lon="6.57086">
        <ele>439.6</ele>
        <time>2022-09-29T08:27:35Z</time>
      </trkpt>
      <trkpt lat="46.717" lon="6.57088">
        <ele>439.5</ele>
        <time>2022-09-29T08:27:36Z</time>
      </trkpt>
      <trkpt lat="46.71707" lon="6.5709">
        <ele>439.4</ele>
        <time>2022-09-29T08:27:37Z</time>
      </trkpt>
      <trkpt lat="46.71713" lon="6.57093">
        <ele>439.3</ele>
        <time>2022-09-29T08:27:38Z</time>
      </trkpt>
      <trkpt lat="46.71719" lon="6.57095">
        <ele>439.2</ele>
        <time>2022-09-29T08:27:39Z</time>
      </trkpt>
      <trkpt lat="46.71725" lon="6.57098">
        <ele>439.2</ele>
        <time>2022-09-29T08:27:40Z</time>
      </trkpt>
      <trkpt lat="46.71732" lon="6.57101">
        <ele>439.1</ele>
        <time>2022-09-29T08:27:41Z</time>
      </trkpt>
      <trkpt lat="46.71738" lon="6.57103">
        <ele>439</ele>
        <time>2022-09-29T08:27:42Z</time>
      </trkpt>
      <trkpt lat="46.71745" lon="6.57105">
        <ele>439</ele>
        <time>2022-09-29T08:27:43Z</time>
      </trkpt>
      <trkpt lat="46.71751" lon="6.57107">
        <ele>438.9</ele>
        <time>2022-09-29T08:27:44Z</time>
      </trkpt>
      <trkpt lat="46.71757" lon="6.5711">
        <ele>438.8</ele>
        <time>2022-09-29T08:27:45Z</time>
      </trkpt>
      <trkpt lat="46.71762" lon="6.57112">
        <ele>438.8</ele>
        <time>2022-09-29T08:27:46Z</time>
      </trkpt>
      <trkpt lat="46.71769" lon="6.57114">
        <ele>438.7</ele>
        <time>2022-09-29T08:27:47Z</time>
      </trkpt>
      <trkpt lat="46.71776" lon="6.57117">
        <ele>438.7</ele>
        <time>2022-09-29T08:27:48Z</time>
      </trkpt>
      <trkpt lat="46.71781" lon="6.5712">
        <ele>438.6</ele>
        <time>2022-09-29T08:27:49Z</time>
      </trkpt>
      <trkpt lat="46.71788" lon="6.57122">
        <ele>438.5</ele>
        <time>2022-09-29T08:27:50Z</time>
      </trkpt>
      <trkpt lat="46.71794" lon="6.57124">
        <ele>438.5</ele>
        <time>2022-09-29T08:27:51Z</time>
      </trkpt>
      <trkpt lat="46.71801" lon="6.57127">
        <ele>438.4</ele>
        <time>2022-09-29T08:27:52Z</time>
      </trkpt>
      <trkpt lat="46.71807" lon="6.57129">
        <ele>438.4</ele>
        <time>2022-09-29T08:27:53Z</time>
      </trkpt>
      <trkpt lat="46.71813" lon="6.57132">
        <ele>438.3</ele>
        <time>2022-09-29T08:27:54Z</time>
      </trkpt>
      <trkpt lat="46.7182" lon="6.57134">
        <ele>438.3</ele>
        <time>2022-09-29T08:27:55Z</time>
      </trkpt>
      <trkpt lat="46.71826" lon="6.57137">
        <ele>438.3</ele>
        <time>2022-09-29T08:27:56Z</time>
      </trkpt>
      <trkpt lat="46.71833" lon="6.5714">
        <ele>438.3</ele>
        <time>2022-09-29T08:27:57Z</time>
      </trkpt>
      <trkpt lat="46.71838" lon="6.57143">
        <ele>438.3</ele>
        <time>2022-09-29T08:27:58Z</time>
      </trkpt>
      <trkpt lat="46.71845" lon="6.57146">
        <ele>438.3</ele>
        <time>2022-09-29T08:27:59Z</time>
      </trkpt>
      <trkpt lat="46.71851" lon="6.5715">
        <ele>438.3</ele>
        <time>2022-09-29T08:28:00Z</time>
      </trkpt>
      <trkpt lat="46.71857" lon="6.57153">
        <ele>438.3</ele>
        <time>2022-09-29T08:28:01Z</time>
      </trkpt>
      <trkpt lat="46.71864" lon="6.57155">
        <ele>438.3</ele>
        <time>2022-09-29T08:28:02Z</time>
      </trkpt>
      <trkpt lat="46.71869" lon="6.57159">
        <ele>438.4</ele>
        <time>2022-09-29T08:28:03Z</time>
      </trkpt>
      <trkpt lat="46.71875" lon="6.57161">
        <ele>438.4</ele>
        <time>2022-09-29T08:28:04Z</time>
      </trkpt>
      <trkpt lat="46.71881" lon="6.57164">
        <ele>438.4</ele>
        <time>2022-09-29T08:28:05Z</time>
      </trkpt>
      <trkpt lat="46.71887" lon="6.57167">
        <ele>438.4</ele>
        <time>2022-09-29T08:28:06Z</time>
      </trkpt>
      <trkpt lat="46.71893" lon="6.5717">
        <ele>438.4</ele>
        <time>2022-09-29T08:28:07Z</time>
      </trkpt>
      <trkpt lat="46.71899" lon="6.57173">
        <ele>438.4</ele>
        <time>2022-09-29T08:28:08Z</time>
      </trkpt>
      <trkpt lat="46.71904" lon="6.57175">
        <ele>438.4</ele>
        <time>2022-09-29T08:28:09Z</time>
      </trkpt>
      <trkpt lat="46.7191" lon="6.57178">
        <ele>438.4</ele>
        <time>2022-09-29T08:28:10Z</time>
      </trkpt>
      <trkpt lat="46.71916" lon="6.57182">
        <ele>438.5</ele>
        <time>2022-09-29T08:28:11Z</time>
      </trkpt>
      <trkpt lat="46.71922" lon="6.57186">
        <ele>438.5</ele>
        <time>2022-09-29T08:28:12Z</time>
      </trkpt>
      <trkpt lat="46.71927" lon="6.57188">
        <ele>438.6</ele>
        <time>2022-09-29T08:28:14Z</time>
      </trkpt>
      <trkpt lat="46.71932" lon="6.57191">
        <ele>438.6</ele>
        <time>2022-09-29T08:28:15Z</time>
      </trkpt>
      <trkpt lat="46.71938" lon="6.57195">
        <ele>438.7</ele>
        <time>2022-09-29T08:28:16Z</time>
      </trkpt>
      <trkpt lat="46.71944" lon="6.57198">
        <ele>438.8</ele>
        <time>2022-09-29T08:28:17Z</time>
      </trkpt>
      <trkpt lat="46.71949" lon="6.57202">
        <ele>439</ele>
        <time>2022-09-29T08:28:18Z</time>
      </trkpt>
      <trkpt lat="46.71954" lon="6.57205">
        <ele>439.1</ele>
        <time>2022-09-29T08:28:19Z</time>
      </trkpt>
      <trkpt lat="46.7196" lon="6.57208">
        <ele>439.2</ele>
        <time>2022-09-29T08:28:20Z</time>
      </trkpt>
      <trkpt lat="46.71964" lon="6.57212">
        <ele>439.4</ele>
        <time>2022-09-29T08:28:21Z</time>
      </trkpt>
      <trkpt lat="46.7197" lon="6.57214">
        <ele>439.5</ele>
        <time>2022-09-29T08:28:22Z</time>
      </trkpt>
      <trkpt lat="46.71974" lon="6.57217">
        <ele>439.7</ele>
        <time>2022-09-29T08:28:23Z</time>
      </trkpt>
      <trkpt lat="46.7198" lon="6.57221">
        <ele>439.8</ele>
        <time>2022-09-29T08:28:24Z</time>
      </trkpt>
      <trkpt lat="46.71985" lon="6.57223">
        <ele>440</ele>
        <time>2022-09-29T08:28:25Z</time>
      </trkpt>
      <trkpt lat="46.71989" lon="6.57226">
        <ele>440.2</ele>
        <time>2022-09-29T08:28:26Z</time>
      </trkpt>
      <trkpt lat="46.71994" lon="6.57229">
        <ele>440.4</ele>
        <time>2022-09-29T08:28:27Z</time>
      </trkpt>
      <trkpt lat="46.71998" lon="6.57231">
        <ele>440.5</ele>
        <time>2022-09-29T08:28:28Z</time>
      </trkpt>
      <trkpt lat="46.72002" lon="6.57233">
        <ele>440.7</ele>
        <time>2022-09-29T08:28:29Z</time>
      </trkpt>
      <trkpt lat="46.72007" lon="6.57235">
        <ele>440.8</ele>
        <time>2022-09-29T08:28:30Z</time>
      </trkpt>
      <trkpt lat="46.72011" lon="6.57237">
        <ele>441</ele>
        <time>2022-09-29T08:28:31Z</time>
      </trkpt>
      <trkpt lat="46.72015" lon="6.57237">
        <ele>441.2</ele>
        <time>2022-09-29T08:28:32Z</time>
      </trkpt>
      <trkpt lat="46.72019" lon="6.57239">
        <ele>441.3</ele>
        <time>2022-09-29T08:28:33Z</time>
      </trkpt>
      <trkpt lat="46.72023" lon="6.5724">
        <ele>441.5</ele>
        <time>2022-09-29T08:28:34Z</time>
      </trkpt>
      <trkpt lat="46.72027" lon="6.5724">
        <ele>441.6</ele>
        <time>2022-09-29T08:28:35Z</time>
      </trkpt>
      <trkpt lat="46.7203" lon="6.57241">
        <ele>441.6</ele>
        <time>2022-09-29T08:28:36Z</time>
      </trkpt>
      <trkpt lat="46.72033" lon="6.57243">
        <ele>441.7</ele>
        <time>2022-09-29T08:28:37Z</time>
      </trkpt>
      <trkpt lat="46.72034" lon="6.57245">
        <ele>441.7</ele>
        <time>2022-09-29T08:28:38Z</time>
      </trkpt>
      <trkpt lat="46.72035" lon="6.57247">
        <ele>441.7</ele>
        <time>2022-09-29T08:28:39Z</time>
      </trkpt>
      <trkpt lat="46.7204" lon="6.57248">
        <ele>441.8</ele>
        <time>2022-09-29T08:28:40Z</time>
      </trkpt>
      <trkpt lat="46.72042" lon="6.57249">
        <ele>441.8</ele>
        <time>2022-09-29T08:28:41Z</time>
      </trkpt>
      <trkpt lat="46.72046" lon="6.57253">
        <ele>441.9</ele>
        <time>2022-09-29T08:28:42Z</time>
      </trkpt>
      <trkpt lat="46.72048" lon="6.57255">
        <ele>441.9</ele>
        <time>2022-09-29T08:28:43Z</time>
      </trkpt>
      <trkpt lat="46.72051" lon="6.57259">
        <ele>441.9</ele>
        <time>2022-09-29T08:28:44Z</time>
      </trkpt>
      <trkpt lat="46.72055" lon="6.5726">
        <ele>441.9</ele>
        <time>2022-09-29T08:28:45Z</time>
      </trkpt>
      <trkpt lat="46.72059" lon="6.57265">
        <ele>442</ele>
        <time>2022-09-29T08:28:46Z</time>
      </trkpt>
      <trkpt lat="46.72062" lon="6.57267">
        <ele>442</ele>
        <time>2022-09-29T08:28:47Z</time>
      </trkpt>
      <trkpt lat="46.72066" lon="6.57268">
        <ele>442</ele>
        <time>2022-09-29T08:28:48Z</time>
      </trkpt>
      <trkpt lat="46.72073" lon="6.57267">
        <ele>442</ele>
        <time>2022-09-29T08:28:49Z</time>
      </trkpt>
      <trkpt lat="46.72076" lon="6.57265">
        <ele>442</ele>
        <time>2022-09-29T08:28:50Z</time>
      </trkpt>
      <trkpt lat="46.72079" lon="6.57262">
        <ele>441.9</ele>
        <time>2022-09-29T08:28:51Z</time>
      </trkpt>
      <trkpt lat="46.72083" lon="6.57259">
        <ele>441.9</ele>
        <time>2022-09-29T08:28:52Z</time>
      </trkpt>
      <trkpt lat="46.72087" lon="6.57256">
        <ele>441.9</ele>
        <time>2022-09-29T08:28:53Z</time>
      </trkpt>
      <trkpt lat="46.7209" lon="6.57252">
        <ele>441.9</ele>
        <time>2022-09-29T08:28:54Z</time>
      </trkpt>
      <trkpt lat="46.72094" lon="6.57248">
        <ele>441.9</ele>
        <time>2022-09-29T08:28:55Z</time>
      </trkpt>
      <trkpt lat="46.72097" lon="6.57244">
        <ele>441.9</ele>
        <time>2022-09-29T08:28:56Z</time>
      </trkpt>
      <trkpt lat="46.72101" lon="6.5724">
        <ele>441.8</ele>
        <time>2022-09-29T08:28:57Z</time>
      </trkpt>
      <trkpt lat="46.72104" lon="6.57235">
        <ele>441.8</ele>
        <time>2022-09-29T08:28:58Z</time>
      </trkpt>
      <trkpt lat="46.72108" lon="6.57231">
        <ele>441.8</ele>
        <time>2022-09-29T08:28:59Z</time>
      </trkpt>
      <trkpt lat="46.72112" lon="6.57227">
        <ele>441.7</ele>
        <time>2022-09-29T08:29:00Z</time>
      </trkpt>
      <trkpt lat="46.72116" lon="6.57223">
        <ele>441.7</ele>
        <time>2022-09-29T08:29:01Z</time>
      </trkpt>
      <trkpt lat="46.72119" lon="6.57219">
        <ele>441.7</ele>
        <time>2022-09-29T08:29:02Z</time>
      </trkpt>
      <trkpt lat="46.72123" lon="6.57214">
        <ele>441.7</ele>
        <time>2022-09-29T08:29:03Z</time>
      </trkpt>
      <trkpt lat="46.72127" lon="6.5721">
        <ele>441.6</ele>
        <time>2022-09-29T08:29:04Z</time>
      </trkpt>
      <trkpt lat="46.72131" lon="6.57207">
        <ele>441.6</ele>
        <time>2022-09-29T08:29:05Z</time>
      </trkpt>
      <trkpt lat="46.72134" lon="6.57203">
        <ele>441.7</ele>
        <time>2022-09-29T08:29:06Z</time>
      </trkpt>
      <trkpt lat="46.72138" lon="6.572">
        <ele>441.7</ele>
        <time>2022-09-29T08:29:07Z</time>
      </trkpt>
      <trkpt lat="46.72143" lon="6.57196">
        <ele>441.7</ele>
        <time>2022-09-29T08:29:08Z</time>
      </trkpt>
      <trkpt lat="46.72146" lon="6.57193">
        <ele>441.8</ele>
        <time>2022-09-29T08:29:09Z</time>
      </trkpt>
      <trkpt lat="46.7215" lon="6.57193">
        <ele>441.9</ele>
        <time>2022-09-29T08:29:10Z</time>
      </trkpt>
      <trkpt lat="46.72154" lon="6.57193">
        <ele>441.9</ele>
        <time>2022-09-29T08:29:11Z</time>
      </trkpt>
      <trkpt lat="46.72156" lon="6.57194">
        <ele>442</ele>
        <time>2022-09-29T08:29:12Z</time>
      </trkpt>
      <trkpt lat="46.72159" lon="6.57195">
        <ele>442.1</ele>
        <time>2022-09-29T08:29:13Z</time>
      </trkpt>
      <trkpt lat="46.72162" lon="6.57197">
        <ele>442.1</ele>
        <time>2022-09-29T08:29:14Z</time>
      </trkpt>
      <trkpt lat="46.72165" lon="6.572">
        <ele>442.2</ele>
        <time>2022-09-29T08:29:15Z</time>
      </trkpt>
      <trkpt lat="46.72168" lon="6.57201">
        <ele>442.3</ele>
        <time>2022-09-29T08:29:16Z</time>
      </trkpt>
      <trkpt lat="46.72171" lon="6.57202">
        <ele>442.3</ele>
        <time>2022-09-29T08:29:17Z</time>
      </trkpt>
      <trkpt lat="46.72172" lon="6.57203">
        <ele>442.2</ele>
        <time>2022-09-29T08:29:18Z</time>
      </trkpt>
      <trkpt lat="46.72176" lon="6.57203">
        <ele>442.1</ele>
        <time>2022-09-29T08:29:19Z</time>
      </trkpt>
      <trkpt lat="46.72178" lon="6.57201">
        <ele>442</ele>
        <time>2022-09-29T08:29:20Z</time>
      </trkpt>
      <trkpt lat="46.7218" lon="6.57198">
        <ele>441.9</ele>
        <time>2022-09-29T08:29:21Z</time>
      </trkpt>
      <trkpt lat="46.72183" lon="6.57196">
        <ele>441.8</ele>
        <time>2022-09-29T08:29:22Z</time>
      </trkpt>
      <trkpt lat="46.72186" lon="6.57191">
        <ele>441.7</ele>
        <time>2022-09-29T08:29:23Z</time>
      </trkpt>
      <trkpt lat="46.72189" lon="6.57187">
        <ele>441.6</ele>
        <time>2022-09-29T08:29:24Z</time>
      </trkpt>
      <trkpt lat="46.72193" lon="6.57182">
        <ele>441.4</ele>
        <time>2022-09-29T08:29:25Z</time>
      </trkpt>
      <trkpt lat="46.72197" lon="6.57178">
        <ele>441.3</ele>
        <time>2022-09-29T08:29:26Z</time>
      </trkpt>
      <trkpt lat="46.72201" lon="6.57174">
        <ele>441.2</ele>
        <time>2022-09-29T08:29:27Z</time>
      </trkpt>
      <trkpt lat="46.72205" lon="6.57169">
        <ele>441.1</ele>
        <time>2022-09-29T08:29:28Z</time>
      </trkpt>
      <trkpt lat="46.72209" lon="6.57164">
        <ele>441</ele>
        <time>2022-09-29T08:29:29Z</time>
      </trkpt>
      <trkpt lat="46.72213" lon="6.57161">
        <ele>440.9</ele>
        <time>2022-09-29T08:29:30Z</time>
      </trkpt>
      <trkpt lat="46.72216" lon="6.57159">
        <ele>440.9</ele>
        <time>2022-09-29T08:29:31Z</time>
      </trkpt>
      <trkpt lat="46.7222" lon="6.57158">
        <ele>440.8</ele>
        <time>2022-09-29T08:29:32Z</time>
      </trkpt>
      <trkpt lat="46.72222" lon="6.57159">
        <ele>440.8</ele>
        <time>2022-09-29T08:29:33Z</time>
      </trkpt>
      <trkpt lat="46.72225" lon="6.5716">
        <ele>440.8</ele>
        <time>2022-09-29T08:29:34Z</time>
      </trkpt>
      <trkpt lat="46.72229" lon="6.57162">
        <ele>440.7</ele>
        <time>2022-09-29T08:29:35Z</time>
      </trkpt>
      <trkpt lat="46.72233" lon="6.57164">
        <ele>440.6</ele>
        <time>2022-09-29T08:29:36Z</time>
      </trkpt>
      <trkpt lat="46.72236" lon="6.57168">
        <ele>440.6</ele>
        <time>2022-09-29T08:29:37Z</time>
      </trkpt>
      <trkpt lat="46.72239" lon="6.57171">
        <ele>440.5</ele>
        <time>2022-09-29T08:29:38Z</time>
      </trkpt>
      <trkpt lat="46.72242" lon="6.57175">
        <ele>440.4</ele>
        <time>2022-09-29T08:29:39Z</time>
      </trkpt>
      <trkpt lat="46.72246" lon="6.57179">
        <ele>440.3</ele>
        <time>2022-09-29T08:29:40Z</time>
      </trkpt>
      <trkpt lat="46.7225" lon="6.57183">
        <ele>440.2</ele>
        <time>2022-09-29T08:29:41Z</time>
      </trkpt>
      <trkpt lat="46.72253" lon="6.57188">
        <ele>440.2</ele>
        <time>2022-09-29T08:29:42Z</time>
      </trkpt>
      <trkpt lat="46.72257" lon="6.57192">
        <ele>440.1</ele>
        <time>2022-09-29T08:29:43Z</time>
      </trkpt>
      <trkpt lat="46.72261" lon="6.57197">
        <ele>440</ele>
        <time>2022-09-29T08:29:44Z</time>
      </trkpt>
      <trkpt lat="46.72265" lon="6.57201">
        <ele>439.9</ele>
        <time>2022-09-29T08:29:45Z</time>
      </trkpt>
      <trkpt lat="46.72269" lon="6.57206">
        <ele>439.8</ele>
        <time>2022-09-29T08:29:46Z</time>
      </trkpt>
      <trkpt lat="46.72273" lon="6.57211">
        <ele>439.8</ele>
        <time>2022-09-29T08:29:47Z</time>
      </trkpt>
      <trkpt lat="46.72277" lon="6.57216">
        <ele>439.7</ele>
        <time>2022-09-29T08:29:48Z</time>
      </trkpt>
      <trkpt lat="46.72281" lon="6.57219">
        <ele>439.6</ele>
        <time>2022-09-29T08:29:49Z</time>
      </trkpt>
      <trkpt lat="46.72284" lon="6.57224">
        <ele>439.6</ele>
        <time>2022-09-29T08:29:50Z</time>
      </trkpt>
      <trkpt lat="46.72287" lon="6.57226">
        <ele>439.6</ele>
        <time>2022-09-29T08:29:51Z</time>
      </trkpt>
      <trkpt lat="46.72288" lon="6.57229">
        <ele>439.5</ele>
        <time>2022-09-29T08:29:52Z</time>
      </trkpt>
      <trkpt lat="46.72289" lon="6.57229">
        <ele>439.5</ele>
        <time>2022-09-29T08:29:53Z</time>
      </trkpt>
      <trkpt lat="46.72289" lon="6.5723">
        <ele>439.5</ele>
        <time>2022-09-29T08:29:54Z</time>
      </trkpt>
      <trkpt lat="46.7229" lon="6.5723">
        <ele>439.5</ele>
        <time>2022-09-29T08:29:55Z</time>
      </trkpt>
      <trkpt lat="46.7229" lon="6.57231">
        <ele>439.5</ele>
        <time>2022-09-29T08:29:56Z</time>
      </trkpt>
      <trkpt lat="46.72291" lon="6.57232">
        <ele>439.5</ele>
        <time>2022-09-29T08:29:57Z</time>
      </trkpt>
      <trkpt lat="46.72291" lon="6.57232">
        <ele>439.5</ele>
        <time>2022-09-29T08:29:58Z</time>
      </trkpt>
      <trkpt lat="46.72292" lon="6.57233">
        <ele>439.5</ele>
        <time>2022-09-29T08:29:59Z</time>
      </trkpt>
      <trkpt lat="46.72292" lon="6.57234">
        <ele>439.5</ele>
        <time>2022-09-29T08:30:00Z</time>
      </trkpt>
      <trkpt lat="46.72293" lon="6.57234">
        <ele>439.5</ele>
        <time>2022-09-29T08:30:01Z</time>
      </trkpt>
      <trkpt lat="46.72294" lon="6.57235">
        <ele>439.5</ele>
        <time>2022-09-29T08:30:02Z</time>
      </trkpt>
      <trkpt lat="46.72294" lon="6.57236">
        <ele>439.5</ele>
        <time>2022-09-29T08:30:03Z</time>
      </trkpt>
      <trkpt lat="46.72295" lon="6.57236">
        <ele>439.5</ele>
        <time>2022-09-29T08:30:04Z</time>
      </trkpt>
      <trkpt lat="46.72295" lon="6.57237">
        <ele>439.4</ele>
        <time>2022-09-29T08:30:05Z</time>
      </trkpt>
      <trkpt lat="46.72296" lon="6.57238">
        <ele>439.4</ele>
        <time>2022-09-29T08:30:06Z</time>
      </trkpt>
      <trkpt lat="46.72296" lon="6.57238">
        <ele>439.4</ele>
        <time>2022-09-29T08:30:07Z</time>
      </trkpt>
      <trkpt lat="46.72297" lon="6.57239">
        <ele>439.4</ele>
        <time>2022-09-29T08:30:08Z</time>
      </trkpt>
      <trkpt lat="46.72297" lon="6.5724">
        <ele>439.4</ele>
        <time>2022-09-29T08:30:09Z</time>
      </trkpt>
      <trkpt lat="46.72298" lon="6.5724">
        <ele>439.4</ele>
        <time>2022-09-29T08:30:23Z</time>
      </trkpt>
      <trkpt lat="46.72299" lon="6.57241">
        <ele>439.4</ele>
        <time>2022-09-29T08:30:24Z</time>
      </trkpt>
      <trkpt lat="46.72301" lon="6.57244">
        <ele>439.4</ele>
        <time>2022-09-29T08:30:25Z</time>
      </trkpt>
      <trkpt lat="46.72304" lon="6.57248">
        <ele>439.3</ele>
        <time>2022-09-29T08:30:26Z</time>
      </trkpt>
      <trkpt lat="46.72307" lon="6.57251">
        <ele>439.3</ele>
        <time>2022-09-29T08:30:27Z</time>
      </trkpt>
      <trkpt lat="46.7231" lon="6.57254">
        <ele>439.2</ele>
        <time>2022-09-29T08:30:28Z</time>
      </trkpt>
      <trkpt lat="46.72313" lon="6.57257">
        <ele>439.2</ele>
        <time>2022-09-29T08:30:29Z</time>
      </trkpt>
      <trkpt lat="46.72317" lon="6.57261">
        <ele>439.1</ele>
        <time>2022-09-29T08:30:30Z</time>
      </trkpt>
      <trkpt lat="46.72321" lon="6.57266">
        <ele>439.1</ele>
        <time>2022-09-29T08:30:31Z</time>
      </trkpt>
      <trkpt lat="46.72324" lon="6.5727">
        <ele>439</ele>
        <time>2022-09-29T08:30:32Z</time>
      </trkpt>
      <trkpt lat="46.72328" lon="6.57274">
        <ele>439</ele>
        <time>2022-09-29T08:30:33Z</time>
      </trkpt>
      <trkpt lat="46.72332" lon="6.57279">
        <ele>438.9</ele>
        <time>2022-09-29T08:30:34Z</time>
      </trkpt>
      <trkpt lat="46.72336" lon="6.57283">
        <ele>438.9</ele>
        <time>2022-09-29T08:30:35Z</time>
      </trkpt>
      <trkpt lat="46.7234" lon="6.57288">
        <ele>438.8</ele>
        <time>2022-09-29T08:30:36Z</time>
      </trkpt>
      <trkpt lat="46.72344" lon="6.57292">
        <ele>438.7</ele>
        <time>2022-09-29T08:30:37Z</time>
      </trkpt>
      <trkpt lat="46.72348" lon="6.57297">
        <ele>438.6</ele>
        <time>2022-09-29T08:30:38Z</time>
      </trkpt>
      <trkpt lat="46.72352" lon="6.57301">
        <ele>438.6</ele>
        <time>2022-09-29T08:30:39Z</time>
      </trkpt>
      <trkpt lat="46.72356" lon="6.57305">
        <ele>438.5</ele>
        <time>2022-09-29T08:30:40Z</time>
      </trkpt>
      <trkpt lat="46.7236" lon="6.5731">
        <ele>438.4</ele>
        <time>2022-09-29T08:30:41Z</time>
      </trkpt>
      <trkpt lat="46.72365" lon="6.57315">
        <ele>438.3</ele>
        <time>2022-09-29T08:30:42Z</time>
      </trkpt>
      <trkpt lat="46.72369" lon="6.5732">
        <ele>438.3</ele>
        <time>2022-09-29T08:30:43Z</time>
      </trkpt>
      <trkpt lat="46.72373" lon="6.57325">
        <ele>438.2</ele>
        <time>2022-09-29T08:30:44Z</time>
      </trkpt>
      <trkpt lat="46.72378" lon="6.57331">
        <ele>438.1</ele>
        <time>2022-09-29T08:30:45Z</time>
      </trkpt>
      <trkpt lat="46.72382" lon="6.57335">
        <ele>438.1</ele>
        <time>2022-09-29T08:30:46Z</time>
      </trkpt>
      <trkpt lat="46.72387" lon="6.5734">
        <ele>438</ele>
        <time>2022-09-29T08:30:47Z</time>
      </trkpt>
      <trkpt lat="46.72392" lon="6.57346">
        <ele>437.9</ele>
        <time>2022-09-29T08:30:48Z</time>
      </trkpt>
      <trkpt lat="46.72396" lon="6.57351">
        <ele>437.8</ele>
        <time>2022-09-29T08:30:49Z</time>
      </trkpt>
      <trkpt lat="46.72402" lon="6.57357">
        <ele>437.7</ele>
        <time>2022-09-29T08:30:50Z</time>
      </trkpt>
      <trkpt lat="46.72406" lon="6.57362">
        <ele>437.6</ele>
        <time>2022-09-29T08:30:51Z</time>
      </trkpt>
      <trkpt lat="46.72411" lon="6.57368">
        <ele>437.5</ele>
        <time>2022-09-29T08:30:52Z</time>
      </trkpt>
      <trkpt lat="46.72416" lon="6.57373">
        <ele>437.4</ele>
        <time>2022-09-29T08:30:53Z</time>
      </trkpt>
      <trkpt lat="46.72421" lon="6.57378">
        <ele>437.4</ele>
        <time>2022-09-29T08:30:54Z</time>
      </trkpt>
      <trkpt lat="46.72426" lon="6.57384">
        <ele>437.3</ele>
        <time>2022-09-29T08:30:55Z</time>
      </trkpt>
      <trkpt lat="46.7243" lon="6.57389">
        <ele>437.2</ele>
        <time>2022-09-29T08:30:56Z</time>
      </trkpt>
      <trkpt lat="46.72435" lon="6.57395">
        <ele>437.1</ele>
        <time>2022-09-29T08:30:57Z</time>
      </trkpt>
      <trkpt lat="46.7244" lon="6.574">
        <ele>437</ele>
        <time>2022-09-29T08:30:58Z</time>
      </trkpt>
      <trkpt lat="46.72445" lon="6.57406">
        <ele>436.9</ele>
        <time>2022-09-29T08:30:59Z</time>
      </trkpt>
      <trkpt lat="46.7245" lon="6.57413">
        <ele>436.8</ele>
        <time>2022-09-29T08:31:00Z</time>
      </trkpt>
      <trkpt lat="46.72456" lon="6.57418">
        <ele>436.7</ele>
        <time>2022-09-29T08:31:01Z</time>
      </trkpt>
      <trkpt lat="46.72461" lon="6.57424">
        <ele>436.7</ele>
        <time>2022-09-29T08:31:02Z</time>
      </trkpt>
      <trkpt lat="46.72465" lon="6.57429">
        <ele>436.6</ele>
        <time>2022-09-29T08:31:03Z</time>
      </trkpt>
      <trkpt lat="46.72471" lon="6.57435">
        <ele>436.6</ele>
        <time>2022-09-29T08:31:04Z</time>
      </trkpt>
      <trkpt lat="46.72476" lon="6.57441">
        <ele>436.6</ele>
        <time>2022-09-29T08:31:05Z</time>
      </trkpt>
      <trkpt lat="46.72481" lon="6.57447">
        <ele>436.5</ele>
        <time>2022-09-29T08:31:06Z</time>
      </trkpt>
      <trkpt lat="46.72486" lon="6.57452">
        <ele>436.5</ele>
        <time>2022-09-29T08:31:07Z</time>
      </trkpt>
      <trkpt lat="46.7249" lon="6.57458">
        <ele>436.5</ele>
        <time>2022-09-29T08:31:08Z</time>
      </trkpt>
      <trkpt lat="46.72495" lon="6.57463">
        <ele>436.5</ele>
        <time>2022-09-29T08:31:09Z</time>
      </trkpt>
      <trkpt lat="46.725" lon="6.57468">
        <ele>436.5</ele>
        <time>2022-09-29T08:31:10Z</time>
      </trkpt>
      <trkpt lat="46.72505" lon="6.57474">
        <ele>436.5</ele>
        <time>2022-09-29T08:31:11Z</time>
      </trkpt>
      <trkpt lat="46.72509" lon="6.57479">
        <ele>436.4</ele>
        <time>2022-09-29T08:31:12Z</time>
      </trkpt>
      <trkpt lat="46.72515" lon="6.57485">
        <ele>436.4</ele>
        <time>2022-09-29T08:31:13Z</time>
      </trkpt>
      <trkpt lat="46.72519" lon="6.5749">
        <ele>436.4</ele>
        <time>2022-09-29T08:31:14Z</time>
      </trkpt>
      <trkpt lat="46.72524" lon="6.57495">
        <ele>436.3</ele>
        <time>2022-09-29T08:31:15Z</time>
      </trkpt>
      <trkpt lat="46.72528" lon="6.575">
        <ele>436.3</ele>
        <time>2022-09-29T08:31:16Z</time>
      </trkpt>
      <trkpt lat="46.72533" lon="6.57506">
        <ele>436.3</ele>
        <time>2022-09-29T08:31:17Z</time>
      </trkpt>
      <trkpt lat="46.72537" lon="6.57511">
        <ele>436.2</ele>
        <time>2022-09-29T08:31:18Z</time>
      </trkpt>
      <trkpt lat="46.72542" lon="6.57516">
        <ele>436.2</ele>
        <time>2022-09-29T08:31:19Z</time>
      </trkpt>
      <trkpt lat="46.72546" lon="6.57521">
        <ele>436.2</ele>
        <time>2022-09-29T08:31:20Z</time>
      </trkpt>
      <trkpt lat="46.72556" lon="6.57532">
        <ele>436.1</ele>
        <time>2022-09-29T08:31:21Z</time>
      </trkpt>
      <trkpt lat="46.7256" lon="6.57537">
        <ele>436.1</ele>
        <time>2022-09-29T08:31:22Z</time>
      </trkpt>
      <trkpt lat="46.72565" lon="6.57542">
        <ele>436.1</ele>
        <time>2022-09-29T08:31:23Z</time>
      </trkpt>
      <trkpt lat="46.72569" lon="6.57547">
        <ele>436.1</ele>
        <time>2022-09-29T08:31:24Z</time>
      </trkpt>
      <trkpt lat="46.72574" lon="6.57553">
        <ele>436.1</ele>
        <time>2022-09-29T08:31:25Z</time>
      </trkpt>
      <trkpt lat="46.72578" lon="6.57557">
        <ele>436</ele>
        <time>2022-09-29T08:31:26Z</time>
      </trkpt>
      <trkpt lat="46.72582" lon="6.57562">
        <ele>436</ele>
        <time>2022-09-29T08:31:27Z</time>
      </trkpt>
      <trkpt lat="46.72587" lon="6.57567">
        <ele>436</ele>
        <time>2022-09-29T08:31:28Z</time>
      </trkpt>
      <trkpt lat="46.72592" lon="6.57572">
        <ele>435.9</ele>
        <time>2022-09-29T08:31:29Z</time>
      </trkpt>
      <trkpt lat="46.72596" lon="6.57578">
        <ele>435.9</ele>
        <time>2022-09-29T08:31:30Z</time>
      </trkpt>
      <trkpt lat="46.726" lon="6.57582">
        <ele>435.9</ele>
        <time>2022-09-29T08:31:31Z</time>
      </trkpt>
      <trkpt lat="46.72606" lon="6.57587">
        <ele>435.8</ele>
        <time>2022-09-29T08:31:32Z</time>
      </trkpt>
      <trkpt lat="46.72609" lon="6.57591">
        <ele>435.8</ele>
        <time>2022-09-29T08:31:33Z</time>
      </trkpt>
      <trkpt lat="46.72613" lon="6.57596">
        <ele>435.8</ele>
        <time>2022-09-29T08:31:34Z</time>
      </trkpt>
      <trkpt lat="46.72617" lon="6.57599">
        <ele>435.8</ele>
        <time>2022-09-29T08:31:35Z</time>
      </trkpt>
      <trkpt lat="46.72621" lon="6.57604">
        <ele>435.7</ele>
        <time>2022-09-29T08:31:36Z</time>
      </trkpt>
      <trkpt lat="46.72625" lon="6.57608">
        <ele>435.7</ele>
        <time>2022-09-29T08:31:37Z</time>
      </trkpt>
      <trkpt lat="46.72628" lon="6.57612">
        <ele>435.7</ele>
        <time>2022-09-29T08:31:38Z</time>
      </trkpt>
      <trkpt lat="46.72632" lon="6.57616">
        <ele>435.7</ele>
        <time>2022-09-29T08:31:39Z</time>
      </trkpt>
      <trkpt lat="46.72636" lon="6.5762">
        <ele>435.6</ele>
        <time>2022-09-29T08:31:40Z</time>
      </trkpt>
      <trkpt lat="46.7264" lon="6.57624">
        <ele>435.6</ele>
        <time>2022-09-29T08:31:41Z</time>
      </trkpt>
      <trkpt lat="46.72643" lon="6.57628">
        <ele>435.6</ele>
        <time>2022-09-29T08:31:42Z</time>
      </trkpt>
      <trkpt lat="46.72646" lon="6.57633">
        <ele>435.6</ele>
        <time>2022-09-29T08:31:43Z</time>
      </trkpt>
      <trkpt lat="46.72651" lon="6.57638">
        <ele>435.6</ele>
        <time>2022-09-29T08:31:44Z</time>
      </trkpt>
      <trkpt lat="46.72655" lon="6.57642">
        <ele>435.6</ele>
        <time>2022-09-29T08:31:45Z</time>
      </trkpt>
      <trkpt lat="46.72659" lon="6.57647">
        <ele>435.6</ele>
        <time>2022-09-29T08:31:46Z</time>
      </trkpt>
      <trkpt lat="46.72663" lon="6.57652">
        <ele>435.6</ele>
        <time>2022-09-29T08:31:47Z</time>
      </trkpt>
      <trkpt lat="46.72666" lon="6.57656">
        <ele>435.6</ele>
        <time>2022-09-29T08:31:48Z</time>
      </trkpt>
      <trkpt lat="46.72671" lon="6.57661">
        <ele>435.6</ele>
        <time>2022-09-29T08:31:49Z</time>
      </trkpt>
      <trkpt lat="46.72675" lon="6.57665">
        <ele>435.6</ele>
        <time>2022-09-29T08:31:50Z</time>
      </trkpt>
      <trkpt lat="46.7268" lon="6.5767">
        <ele>435.6</ele>
        <time>2022-09-29T08:31:51Z</time>
      </trkpt>
      <trkpt lat="46.72684" lon="6.57675">
        <ele>435.6</ele>
        <time>2022-09-29T08:31:52Z</time>
      </trkpt>
      <trkpt lat="46.72689" lon="6.5768">
        <ele>435.6</ele>
        <time>2022-09-29T08:31:53Z</time>
      </trkpt>
      <trkpt lat="46.72693" lon="6.57685">
        <ele>435.6</ele>
        <time>2022-09-29T08:31:54Z</time>
      </trkpt>
      <trkpt lat="46.72697" lon="6.57689">
        <ele>435.6</ele>
        <time>2022-09-29T08:31:55Z</time>
      </trkpt>
      <trkpt lat="46.72701" lon="6.57694">
        <ele>435.6</ele>
        <time>2022-09-29T08:31:56Z</time>
      </trkpt>
      <trkpt lat="46.72706" lon="6.57699">
        <ele>435.6</ele>
        <time>2022-09-29T08:31:57Z</time>
      </trkpt>
      <trkpt lat="46.7271" lon="6.57704">
        <ele>435.6</ele>
        <time>2022-09-29T08:31:58Z</time>
      </trkpt>
      <trkpt lat="46.72714" lon="6.57709">
        <ele>435.6</ele>
        <time>2022-09-29T08:31:59Z</time>
      </trkpt>
      <trkpt lat="46.72719" lon="6.57715">
        <ele>435.6</ele>
        <time>2022-09-29T08:32:00Z</time>
      </trkpt>
      <trkpt lat="46.72723" lon="6.5772">
        <ele>435.6</ele>
        <time>2022-09-29T08:32:01Z</time>
      </trkpt>
      <trkpt lat="46.72727" lon="6.57725">
        <ele>435.6</ele>
        <time>2022-09-29T08:32:02Z</time>
      </trkpt>
      <trkpt lat="46.72732" lon="6.5773">
        <ele>435.6</ele>
        <time>2022-09-29T08:32:03Z</time>
      </trkpt>
      <trkpt lat="46.72736" lon="6.57735">
        <ele>435.6</ele>
        <time>2022-09-29T08:32:04Z</time>
      </trkpt>
      <trkpt lat="46.72741" lon="6.5774">
        <ele>435.5</ele>
        <time>2022-09-29T08:32:05Z</time>
      </trkpt>
      <trkpt lat="46.72745" lon="6.57745">
        <ele>435.5</ele>
        <time>2022-09-29T08:32:06Z</time>
      </trkpt>
      <trkpt lat="46.7275" lon="6.5775">
        <ele>435.5</ele>
        <time>2022-09-29T08:32:07Z</time>
      </trkpt>
      <trkpt lat="46.72754" lon="6.57755">
        <ele>435.5</ele>
        <time>2022-09-29T08:32:08Z</time>
      </trkpt>
      <trkpt lat="46.72758" lon="6.5776">
        <ele>435.5</ele>
        <time>2022-09-29T08:32:09Z</time>
      </trkpt>
      <trkpt lat="46.72763" lon="6.57764">
        <ele>435.5</ele>
        <time>2022-09-29T08:32:10Z</time>
      </trkpt>
      <trkpt lat="46.72767" lon="6.57769">
        <ele>435.5</ele>
        <time>2022-09-29T08:32:11Z</time>
      </trkpt>
      <trkpt lat="46.72772" lon="6.57774">
        <ele>435.5</ele>
        <time>2022-09-29T08:32:12Z</time>
      </trkpt>
      <trkpt lat="46.72777" lon="6.5778">
        <ele>435.5</ele>
        <time>2022-09-29T08:32:13Z</time>
      </trkpt>
      <trkpt lat="46.72781" lon="6.57785">
        <ele>435.5</ele>
        <time>2022-09-29T08:32:14Z</time>
      </trkpt>
      <trkpt lat="46.72785" lon="6.5779">
        <ele>435.5</ele>
        <time>2022-09-29T08:32:15Z</time>
      </trkpt>
      <trkpt lat="46.7279" lon="6.57795">
        <ele>435.5</ele>
        <time>2022-09-29T08:32:16Z</time>
      </trkpt>
      <trkpt lat="46.72794" lon="6.578">
        <ele>435.5</ele>
        <time>2022-09-29T08:32:17Z</time>
      </trkpt>
      <trkpt lat="46.72799" lon="6.57805">
        <ele>435.5</ele>
        <time>2022-09-29T08:32:18Z</time>
      </trkpt>
      <trkpt lat="46.72804" lon="6.5781">
        <ele>435.5</ele>
        <time>2022-09-29T08:32:19Z</time>
      </trkpt>
      <trkpt lat="46.72808" lon="6.57815">
        <ele>435.5</ele>
        <time>2022-09-29T08:32:20Z</time>
      </trkpt>
      <trkpt lat="46.72813" lon="6.5782">
        <ele>435.4</ele>
        <time>2022-09-29T08:32:21Z</time>
      </trkpt>
      <trkpt lat="46.72817" lon="6.57825">
        <ele>435.4</ele>
        <time>2022-09-29T08:32:22Z</time>
      </trkpt>
      <trkpt lat="46.72822" lon="6.5783">
        <ele>435.4</ele>
        <time>2022-09-29T08:32:23Z</time>
      </trkpt>
      <trkpt lat="46.72826" lon="6.57835">
        <ele>435.4</ele>
        <time>2022-09-29T08:32:24Z</time>
      </trkpt>
      <trkpt lat="46.7283" lon="6.5784">
        <ele>435.5</ele>
        <time>2022-09-29T08:32:26Z</time>
      </trkpt>
      <trkpt lat="46.72834" lon="6.57845">
        <ele>435.5</ele>
        <time>2022-09-29T08:32:27Z</time>
      </trkpt>
      <trkpt lat="46.72838" lon="6.5785">
        <ele>435.5</ele>
        <time>2022-09-29T08:32:28Z</time>
      </trkpt>
      <trkpt lat="46.72843" lon="6.57854">
        <ele>435.5</ele>
        <time>2022-09-29T08:32:29Z</time>
      </trkpt>
      <trkpt lat="46.72847" lon="6.57859">
        <ele>435.5</ele>
        <time>2022-09-29T08:32:30Z</time>
      </trkpt>
      <trkpt lat="46.72851" lon="6.57864">
        <ele>435.5</ele>
        <time>2022-09-29T08:32:31Z</time>
      </trkpt>
      <trkpt lat="46.72855" lon="6.57869">
        <ele>435.5</ele>
        <time>2022-09-29T08:32:32Z</time>
      </trkpt>
      <trkpt lat="46.72859" lon="6.57873">
        <ele>435.5</ele>
        <time>2022-09-29T08:32:33Z</time>
      </trkpt>
      <trkpt lat="46.72862" lon="6.57877">
        <ele>435.4</ele>
        <time>2022-09-29T08:32:34Z</time>
      </trkpt>
      <trkpt lat="46.72866" lon="6.57882">
        <ele>435.4</ele>
        <time>2022-09-29T08:32:35Z</time>
      </trkpt>
      <trkpt lat="46.7287" lon="6.57885">
        <ele>435.4</ele>
        <time>2022-09-29T08:32:36Z</time>
      </trkpt>
      <trkpt lat="46.72874" lon="6.5789">
        <ele>435.4</ele>
        <time>2022-09-29T08:32:37Z</time>
      </trkpt>
      <trkpt lat="46.72877" lon="6.57894">
        <ele>435.5</ele>
        <time>2022-09-29T08:32:38Z</time>
      </trkpt>
      <trkpt lat="46.72881" lon="6.57898">
        <ele>435.5</ele>
        <time>2022-09-29T08:32:39Z</time>
      </trkpt>
      <trkpt lat="46.72884" lon="6.57903">
        <ele>435.5</ele>
        <time>2022-09-29T08:32:40Z</time>
      </trkpt>
      <trkpt lat="46.72888" lon="6.57905">
        <ele>435.5</ele>
        <time>2022-09-29T08:32:41Z</time>
      </trkpt>
      <trkpt lat="46.72892" lon="6.57909">
        <ele>435.5</ele>
        <time>2022-09-29T08:32:42Z</time>
      </trkpt>
      <trkpt lat="46.72895" lon="6.57913">
        <ele>435.5</ele>
        <time>2022-09-29T08:32:43Z</time>
      </trkpt>
      <trkpt lat="46.72899" lon="6.57917">
        <ele>435.5</ele>
        <time>2022-09-29T08:32:44Z</time>
      </trkpt>
      <trkpt lat="46.72903" lon="6.57921">
        <ele>435.5</ele>
        <time>2022-09-29T08:32:45Z</time>
      </trkpt>
      <trkpt lat="46.72906" lon="6.57925">
        <ele>435.5</ele>
        <time>2022-09-29T08:32:46Z</time>
      </trkpt>
      <trkpt lat="46.72911" lon="6.5793">
        <ele>435.5</ele>
        <time>2022-09-29T08:32:47Z</time>
      </trkpt>
      <trkpt lat="46.72914" lon="6.57933">
        <ele>435.5</ele>
        <time>2022-09-29T08:32:48Z</time>
      </trkpt>
      <trkpt lat="46.72918" lon="6.57938">
        <ele>435.5</ele>
        <time>2022-09-29T08:32:49Z</time>
      </trkpt>
      <trkpt lat="46.72923" lon="6.57942">
        <ele>435.5</ele>
        <time>2022-09-29T08:32:50Z</time>
      </trkpt>
      <trkpt lat="46.72928" lon="6.57946">
        <ele>435.5</ele>
        <time>2022-09-29T08:32:51Z</time>
      </trkpt>
      <trkpt lat="46.72932" lon="6.5795">
        <ele>435.4</ele>
        <time>2022-09-29T08:32:52Z</time>
      </trkpt>
      <trkpt lat="46.72937" lon="6.57955">
        <ele>435.4</ele>
        <time>2022-09-29T08:32:53Z</time>
      </trkpt>
      <trkpt lat="46.72942" lon="6.5796">
        <ele>435.4</ele>
        <time>2022-09-29T08:32:54Z</time>
      </trkpt>
      <trkpt lat="46.72947" lon="6.57965">
        <ele>435.4</ele>
        <time>2022-09-29T08:32:55Z</time>
      </trkpt>
      <trkpt lat="46.72952" lon="6.57969">
        <ele>435.4</ele>
        <time>2022-09-29T08:32:56Z</time>
      </trkpt>
      <trkpt lat="46.72957" lon="6.57974">
        <ele>435.4</ele>
        <time>2022-09-29T08:32:57Z</time>
      </trkpt>
      <trkpt lat="46.72963" lon="6.57979">
        <ele>435.4</ele>
        <time>2022-09-29T08:32:58Z</time>
      </trkpt>
      <trkpt lat="46.72968" lon="6.57984">
        <ele>435.3</ele>
        <time>2022-09-29T08:32:59Z</time>
      </trkpt>
      <trkpt lat="46.72973" lon="6.57989">
        <ele>435.3</ele>
        <time>2022-09-29T08:33:00Z</time>
      </trkpt>
      <trkpt lat="46.72978" lon="6.57993">
        <ele>435.3</ele>
        <time>2022-09-29T08:33:01Z</time>
      </trkpt>
      <trkpt lat="46.72988" lon="6.58003">
        <ele>435.3</ele>
        <time>2022-09-29T08:33:02Z</time>
      </trkpt>
      <trkpt lat="46.72994" lon="6.58008">
        <ele>435.3</ele>
        <time>2022-09-29T08:33:03Z</time>
      </trkpt>
      <trkpt lat="46.72999" lon="6.58013">
        <ele>435.2</ele>
        <time>2022-09-29T08:33:04Z</time>
      </trkpt>
      <trkpt lat="46.73004" lon="6.58017">
        <ele>435.2</ele>
        <time>2022-09-29T08:33:05Z</time>
      </trkpt>
      <trkpt lat="46.73009" lon="6.58022">
        <ele>435.2</ele>
        <time>2022-09-29T08:33:06Z</time>
      </trkpt>
      <trkpt lat="46.73014" lon="6.58027">
        <ele>435.2</ele>
        <time>2022-09-29T08:33:07Z</time>
      </trkpt>
      <trkpt lat="46.73019" lon="6.58032">
        <ele>435.2</ele>
        <time>2022-09-29T08:33:08Z</time>
      </trkpt>
      <trkpt lat="46.73025" lon="6.58037">
        <ele>435.2</ele>
        <time>2022-09-29T08:33:09Z</time>
      </trkpt>
      <trkpt lat="46.7303" lon="6.58041">
        <ele>435.2</ele>
        <time>2022-09-29T08:33:10Z</time>
      </trkpt>
      <trkpt lat="46.73035" lon="6.58047">
        <ele>435.2</ele>
        <time>2022-09-29T08:33:11Z</time>
      </trkpt>
      <trkpt lat="46.7304" lon="6.58051">
        <ele>435.1</ele>
        <time>2022-09-29T08:33:12Z</time>
      </trkpt>
      <trkpt lat="46.73045" lon="6.58056">
        <ele>435.1</ele>
        <time>2022-09-29T08:33:13Z</time>
      </trkpt>
      <trkpt lat="46.73051" lon="6.58061">
        <ele>435.1</ele>
        <time>2022-09-29T08:33:14Z</time>
      </trkpt>
      <trkpt lat="46.73056" lon="6.58065">
        <ele>435.1</ele>
        <time>2022-09-29T08:33:15Z</time>
      </trkpt>
      <trkpt lat="46.73061" lon="6.5807">
        <ele>435.1</ele>
        <time>2022-09-29T08:33:16Z</time>
      </trkpt>
      <trkpt lat="46.73066" lon="6.58075">
        <ele>435.1</ele>
        <time>2022-09-29T08:33:17Z</time>
      </trkpt>
      <trkpt lat="46.73071" lon="6.5808">
        <ele>435.1</ele>
        <time>2022-09-29T08:33:18Z</time>
      </trkpt>
      <trkpt lat="46.73075" lon="6.58083">
        <ele>435.2</ele>
        <time>2022-09-29T08:33:19Z</time>
      </trkpt>
      <trkpt lat="46.7308" lon="6.58088">
        <ele>435.2</ele>
        <time>2022-09-29T08:33:20Z</time>
      </trkpt>
      <trkpt lat="46.73085" lon="6.58093">
        <ele>435.2</ele>
        <time>2022-09-29T08:33:21Z</time>
      </trkpt>
      <trkpt lat="46.73089" lon="6.58097">
        <ele>435.2</ele>
        <time>2022-09-29T08:33:22Z</time>
      </trkpt>
      <trkpt lat="46.73094" lon="6.58102">
        <ele>435.2</ele>
        <time>2022-09-29T08:33:23Z</time>
      </trkpt>
      <trkpt lat="46.73099" lon="6.58107">
        <ele>435.2</ele>
        <time>2022-09-29T08:33:24Z</time>
      </trkpt>
      <trkpt lat="46.73104" lon="6.58112">
        <ele>435.2</ele>
        <time>2022-09-29T08:33:25Z</time>
      </trkpt>
      <trkpt lat="46.73108" lon="6.58115">
        <ele>435.2</ele>
        <time>2022-09-29T08:33:26Z</time>
      </trkpt>
      <trkpt lat="46.73113" lon="6.5812">
        <ele>435.2</ele>
        <time>2022-09-29T08:33:27Z</time>
      </trkpt>
      <trkpt lat="46.73118" lon="6.58125">
        <ele>435.2</ele>
        <time>2022-09-29T08:33:28Z</time>
      </trkpt>
      <trkpt lat="46.73123" lon="6.58129">
        <ele>435.2</ele>
        <time>2022-09-29T08:33:29Z</time>
      </trkpt>
      <trkpt lat="46.73128" lon="6.58133">
        <ele>435.2</ele>
        <time>2022-09-29T08:33:30Z</time>
      </trkpt>
      <trkpt lat="46.73133" lon="6.58137">
        <ele>435.2</ele>
        <time>2022-09-29T08:33:31Z</time>
      </trkpt>
      <trkpt lat="46.73137" lon="6.58142">
        <ele>435.2</ele>
        <time>2022-09-29T08:33:32Z</time>
      </trkpt>
      <trkpt lat="46.73143" lon="6.58148">
        <ele>435.2</ele>
        <time>2022-09-29T08:33:33Z</time>
      </trkpt>
      <trkpt lat="46.73148" lon="6.58152">
        <ele>435.2</ele>
        <time>2022-09-29T08:33:34Z</time>
      </trkpt>
      <trkpt lat="46.73153" lon="6.58157">
        <ele>435.2</ele>
        <time>2022-09-29T08:33:35Z</time>
      </trkpt>
      <trkpt lat="46.73158" lon="6.58162">
        <ele>435.1</ele>
        <time>2022-09-29T08:33:36Z</time>
      </trkpt>
      <trkpt lat="46.73164" lon="6.58167">
        <ele>435.1</ele>
        <time>2022-09-29T08:33:37Z</time>
      </trkpt>
      <trkpt lat="46.73168" lon="6.58172">
        <ele>435.1</ele>
        <time>2022-09-29T08:33:38Z</time>
      </trkpt>
      <trkpt lat="46.73174" lon="6.58176">
        <ele>435.1</ele>
        <time>2022-09-29T08:33:39Z</time>
      </trkpt>
      <trkpt lat="46.73179" lon="6.5818">
        <ele>435</ele>
        <time>2022-09-29T08:33:40Z</time>
      </trkpt>
      <trkpt lat="46.73184" lon="6.58185">
        <ele>435</ele>
        <time>2022-09-29T08:33:41Z</time>
      </trkpt>
      <trkpt lat="46.73189" lon="6.5819">
        <ele>435</ele>
        <time>2022-09-29T08:33:42Z</time>
      </trkpt>
      <trkpt lat="46.73194" lon="6.58194">
        <ele>434.9</ele>
        <time>2022-09-29T08:33:43Z</time>
      </trkpt>
      <trkpt lat="46.73199" lon="6.58198">
        <ele>434.9</ele>
        <time>2022-09-29T08:33:44Z</time>
      </trkpt>
      <trkpt lat="46.73203" lon="6.58202">
        <ele>434.9</ele>
        <time>2022-09-29T08:33:45Z</time>
      </trkpt>
      <trkpt lat="46.73208" lon="6.58207">
        <ele>434.9</ele>
        <time>2022-09-29T08:33:46Z</time>
      </trkpt>
      <trkpt lat="46.73213" lon="6.58212">
        <ele>434.8</ele>
        <time>2022-09-29T08:33:47Z</time>
      </trkpt>
      <trkpt lat="46.73218" lon="6.58216">
        <ele>434.8</ele>
        <time>2022-09-29T08:33:48Z</time>
      </trkpt>
      <trkpt lat="46.73223" lon="6.58221">
        <ele>434.8</ele>
        <time>2022-09-29T08:33:49Z</time>
      </trkpt>
      <trkpt lat="46.73228" lon="6.58225">
        <ele>434.8</ele>
        <time>2022-09-29T08:33:50Z</time>
      </trkpt>
      <trkpt lat="46.73232" lon="6.5823">
        <ele>434.8</ele>
        <time>2022-09-29T08:33:51Z</time>
      </trkpt>
      <trkpt lat="46.73237" lon="6.58235">
        <ele>434.8</ele>
        <time>2022-09-29T08:33:52Z</time>
      </trkpt>
      <trkpt lat="46.73243" lon="6.5824">
        <ele>434.7</ele>
        <time>2022-09-29T08:33:53Z</time>
      </trkpt>
      <trkpt lat="46.73248" lon="6.58244">
        <ele>434.7</ele>
        <time>2022-09-29T08:33:54Z</time>
      </trkpt>
      <trkpt lat="46.73252" lon="6.58249">
        <ele>434.7</ele>
        <time>2022-09-29T08:33:55Z</time>
      </trkpt>
      <trkpt lat="46.73257" lon="6.58253">
        <ele>434.7</ele>
        <time>2022-09-29T08:33:56Z</time>
      </trkpt>
      <trkpt lat="46.73261" lon="6.58258">
        <ele>434.7</ele>
        <time>2022-09-29T08:33:57Z</time>
      </trkpt>
      <trkpt lat="46.73267" lon="6.58263">
        <ele>434.7</ele>
        <time>2022-09-29T08:33:58Z</time>
      </trkpt>
      <trkpt lat="46.73272" lon="6.58267">
        <ele>434.7</ele>
        <time>2022-09-29T08:33:59Z</time>
      </trkpt>
      <trkpt lat="46.73276" lon="6.58272">
        <ele>434.7</ele>
        <time>2022-09-29T08:34:00Z</time>
      </trkpt>
      <trkpt lat="46.73281" lon="6.58277">
        <ele>434.7</ele>
        <time>2022-09-29T08:34:01Z</time>
      </trkpt>
      <trkpt lat="46.73286" lon="6.58281">
        <ele>434.7</ele>
        <time>2022-09-29T08:34:02Z</time>
      </trkpt>
      <trkpt lat="46.7329" lon="6.58285">
        <ele>434.8</ele>
        <time>2022-09-29T08:34:03Z</time>
      </trkpt>
      <trkpt lat="46.73295" lon="6.5829">
        <ele>434.8</ele>
        <time>2022-09-29T08:34:04Z</time>
      </trkpt>
      <trkpt lat="46.733" lon="6.58294">
        <ele>434.8</ele>
        <time>2022-09-29T08:34:05Z</time>
      </trkpt>
      <trkpt lat="46.73305" lon="6.58298">
        <ele>434.9</ele>
        <time>2022-09-29T08:34:06Z</time>
      </trkpt>
      <trkpt lat="46.73309" lon="6.58303">
        <ele>434.9</ele>
        <time>2022-09-29T08:34:07Z</time>
      </trkpt>
      <trkpt lat="46.73313" lon="6.58307">
        <ele>434.8</ele>
        <time>2022-09-29T08:34:08Z</time>
      </trkpt>
      <trkpt lat="46.73318" lon="6.58311">
        <ele>434.8</ele>
        <time>2022-09-29T08:34:09Z</time>
      </trkpt>
      <trkpt lat="46.73323" lon="6.58316">
        <ele>434.8</ele>
        <time>2022-09-29T08:34:10Z</time>
      </trkpt>
      <trkpt lat="46.73328" lon="6.5832">
        <ele>434.8</ele>
        <time>2022-09-29T08:34:11Z</time>
      </trkpt>
      <trkpt lat="46.73332" lon="6.58325">
        <ele>434.8</ele>
        <time>2022-09-29T08:34:12Z</time>
      </trkpt>
      <trkpt lat="46.73337" lon="6.58329">
        <ele>434.8</ele>
        <time>2022-09-29T08:34:13Z</time>
      </trkpt>
      <trkpt lat="46.73342" lon="6.58334">
        <ele>434.8</ele>
        <time>2022-09-29T08:34:14Z</time>
      </trkpt>
      <trkpt lat="46.73346" lon="6.58338">
        <ele>434.8</ele>
        <time>2022-09-29T08:34:15Z</time>
      </trkpt>
      <trkpt lat="46.73352" lon="6.58343">
        <ele>434.7</ele>
        <time>2022-09-29T08:34:16Z</time>
      </trkpt>
      <trkpt lat="46.73356" lon="6.58347">
        <ele>434.7</ele>
        <time>2022-09-29T08:34:17Z</time>
      </trkpt>
      <trkpt lat="46.73361" lon="6.58351">
        <ele>434.7</ele>
        <time>2022-09-29T08:34:18Z</time>
      </trkpt>
      <trkpt lat="46.73366" lon="6.58355">
        <ele>434.7</ele>
        <time>2022-09-29T08:34:19Z</time>
      </trkpt>
      <trkpt lat="46.7337" lon="6.5836">
        <ele>434.6</ele>
        <time>2022-09-29T08:34:20Z</time>
      </trkpt>
      <trkpt lat="46.73375" lon="6.58363">
        <ele>434.6</ele>
        <time>2022-09-29T08:34:21Z</time>
      </trkpt>
      <trkpt lat="46.73378" lon="6.58367">
        <ele>434.6</ele>
        <time>2022-09-29T08:34:22Z</time>
      </trkpt>
      <trkpt lat="46.73383" lon="6.58371">
        <ele>434.6</ele>
        <time>2022-09-29T08:34:23Z</time>
      </trkpt>
      <trkpt lat="46.73387" lon="6.58375">
        <ele>434.6</ele>
        <time>2022-09-29T08:34:24Z</time>
      </trkpt>
      <trkpt lat="46.73391" lon="6.5838">
        <ele>434.6</ele>
        <time>2022-09-29T08:34:25Z</time>
      </trkpt>
      <trkpt lat="46.73396" lon="6.58384">
        <ele>434.6</ele>
        <time>2022-09-29T08:34:26Z</time>
      </trkpt>
      <trkpt lat="46.734" lon="6.58388">
        <ele>434.6</ele>
        <time>2022-09-29T08:34:27Z</time>
      </trkpt>
      <trkpt lat="46.73406" lon="6.58393">
        <ele>434.6</ele>
        <time>2022-09-29T08:34:28Z</time>
      </trkpt>
      <trkpt lat="46.7341" lon="6.58397">
        <ele>434.6</ele>
        <time>2022-09-29T08:34:29Z</time>
      </trkpt>
      <trkpt lat="46.73414" lon="6.584">
        <ele>434.6</ele>
        <time>2022-09-29T08:34:30Z</time>
      </trkpt>
      <trkpt lat="46.73419" lon="6.58404">
        <ele>434.7</ele>
        <time>2022-09-29T08:34:32Z</time>
      </trkpt>
      <trkpt lat="46.73423" lon="6.58408">
        <ele>434.7</ele>
        <time>2022-09-29T08:34:33Z</time>
      </trkpt>
      <trkpt lat="46.73428" lon="6.58414">
        <ele>434.7</ele>
        <time>2022-09-29T08:34:34Z</time>
      </trkpt>
      <trkpt lat="46.73433" lon="6.58418">
        <ele>434.8</ele>
        <time>2022-09-29T08:34:35Z</time>
      </trkpt>
      <trkpt lat="46.73437" lon="6.58423">
        <ele>434.8</ele>
        <time>2022-09-29T08:34:36Z</time>
      </trkpt>
      <trkpt lat="46.73441" lon="6.58427">
        <ele>434.9</ele>
        <time>2022-09-29T08:34:37Z</time>
      </trkpt>
      <trkpt lat="46.73446" lon="6.58431">
        <ele>434.9</ele>
        <time>2022-09-29T08:34:38Z</time>
      </trkpt>
      <trkpt lat="46.7345" lon="6.58435">
        <ele>434.9</ele>
        <time>2022-09-29T08:34:39Z</time>
      </trkpt>
      <trkpt lat="46.73455" lon="6.58439">
        <ele>435</ele>
        <time>2022-09-29T08:34:40Z</time>
      </trkpt>
      <trkpt lat="46.73459" lon="6.58443">
        <ele>435</ele>
        <time>2022-09-29T08:34:41Z</time>
      </trkpt>
      <trkpt lat="46.73463" lon="6.58448">
        <ele>435</ele>
        <time>2022-09-29T08:34:42Z</time>
      </trkpt>
      <trkpt lat="46.73468" lon="6.58452">
        <ele>435</ele>
        <time>2022-09-29T08:34:43Z</time>
      </trkpt>
      <trkpt lat="46.73472" lon="6.58456">
        <ele>435</ele>
        <time>2022-09-29T08:34:44Z</time>
      </trkpt>
      <trkpt lat="46.73476" lon="6.5846">
        <ele>435</ele>
        <time>2022-09-29T08:34:45Z</time>
      </trkpt>
      <trkpt lat="46.73481" lon="6.58464">
        <ele>435</ele>
        <time>2022-09-29T08:34:46Z</time>
      </trkpt>
      <trkpt lat="46.73485" lon="6.58468">
        <ele>435</ele>
        <time>2022-09-29T08:34:47Z</time>
      </trkpt>
      <trkpt lat="46.73489" lon="6.58472">
        <ele>435</ele>
        <time>2022-09-29T08:34:48Z</time>
      </trkpt>
      <trkpt lat="46.73493" lon="6.58476">
        <ele>435.1</ele>
        <time>2022-09-29T08:34:49Z</time>
      </trkpt>
      <trkpt lat="46.73497" lon="6.5848">
        <ele>435.1</ele>
        <time>2022-09-29T08:34:50Z</time>
      </trkpt>
      <trkpt lat="46.73502" lon="6.58484">
        <ele>435.1</ele>
        <time>2022-09-29T08:34:51Z</time>
      </trkpt>
      <trkpt lat="46.73507" lon="6.58488">
        <ele>435.1</ele>
        <time>2022-09-29T08:34:52Z</time>
      </trkpt>
      <trkpt lat="46.73511" lon="6.58492">
        <ele>435.1</ele>
        <time>2022-09-29T08:34:53Z</time>
      </trkpt>
      <trkpt lat="46.73515" lon="6.58496">
        <ele>435.1</ele>
        <time>2022-09-29T08:34:54Z</time>
      </trkpt>
      <trkpt lat="46.7352" lon="6.585">
        <ele>435.1</ele>
        <time>2022-09-29T08:34:55Z</time>
      </trkpt>
      <trkpt lat="46.73524" lon="6.58504">
        <ele>435.1</ele>
        <time>2022-09-29T08:34:56Z</time>
      </trkpt>
      <trkpt lat="46.73529" lon="6.58509">
        <ele>435.1</ele>
        <time>2022-09-29T08:34:57Z</time>
      </trkpt>
      <trkpt lat="46.73533" lon="6.58513">
        <ele>435.1</ele>
        <time>2022-09-29T08:34:58Z</time>
      </trkpt>
      <trkpt lat="46.73537" lon="6.58517">
        <ele>435.1</ele>
        <time>2022-09-29T08:34:59Z</time>
      </trkpt>
      <trkpt lat="46.73541" lon="6.58521">
        <ele>435.1</ele>
        <time>2022-09-29T08:35:00Z</time>
      </trkpt>
      <trkpt lat="46.73546" lon="6.58524">
        <ele>435.1</ele>
        <time>2022-09-29T08:35:01Z</time>
      </trkpt>
      <trkpt lat="46.7355" lon="6.58528">
        <ele>435.1</ele>
        <time>2022-09-29T08:35:02Z</time>
      </trkpt>
      <trkpt lat="46.73554" lon="6.58532">
        <ele>435.1</ele>
        <time>2022-09-29T08:35:03Z</time>
      </trkpt>
      <trkpt lat="46.73558" lon="6.58536">
        <ele>435.1</ele>
        <time>2022-09-29T08:35:04Z</time>
      </trkpt>
      <trkpt lat="46.73563" lon="6.5854">
        <ele>435.1</ele>
        <time>2022-09-29T08:35:05Z</time>
      </trkpt>
      <trkpt lat="46.73566" lon="6.58544">
        <ele>435.1</ele>
        <time>2022-09-29T08:35:06Z</time>
      </trkpt>
      <trkpt lat="46.73571" lon="6.58548">
        <ele>435.1</ele>
        <time>2022-09-29T08:35:07Z</time>
      </trkpt>
      <trkpt lat="46.73575" lon="6.58552">
        <ele>435.1</ele>
        <time>2022-09-29T08:35:08Z</time>
      </trkpt>
      <trkpt lat="46.73579" lon="6.58556">
        <ele>435.1</ele>
        <time>2022-09-29T08:35:09Z</time>
      </trkpt>
      <trkpt lat="46.73583" lon="6.5856">
        <ele>435</ele>
        <time>2022-09-29T08:35:10Z</time>
      </trkpt>
      <trkpt lat="46.73587" lon="6.58563">
        <ele>435</ele>
        <time>2022-09-29T08:35:11Z</time>
      </trkpt>
      <trkpt lat="46.73592" lon="6.58568">
        <ele>435</ele>
        <time>2022-09-29T08:35:12Z</time>
      </trkpt>
      <trkpt lat="46.73596" lon="6.58571">
        <ele>435</ele>
        <time>2022-09-29T08:35:13Z</time>
      </trkpt>
      <trkpt lat="46.736" lon="6.58575">
        <ele>435</ele>
        <time>2022-09-29T08:35:14Z</time>
      </trkpt>
      <trkpt lat="46.73604" lon="6.58579">
        <ele>434.9</ele>
        <time>2022-09-29T08:35:15Z</time>
      </trkpt>
      <trkpt lat="46.73608" lon="6.58583">
        <ele>434.9</ele>
        <time>2022-09-29T08:35:16Z</time>
      </trkpt>
      <trkpt lat="46.73613" lon="6.58587">
        <ele>434.9</ele>
        <time>2022-09-29T08:35:17Z</time>
      </trkpt>
      <trkpt lat="46.73621" lon="6.58595">
        <ele>434.9</ele>
        <time>2022-09-29T08:35:18Z</time>
      </trkpt>
      <trkpt lat="46.73624" lon="6.58599">
        <ele>434.8</ele>
        <time>2022-09-29T08:35:19Z</time>
      </trkpt>
      <trkpt lat="46.73629" lon="6.58603">
        <ele>434.8</ele>
        <time>2022-09-29T08:35:20Z</time>
      </trkpt>
      <trkpt lat="46.73633" lon="6.58606">
        <ele>434.8</ele>
        <time>2022-09-29T08:35:21Z</time>
      </trkpt>
      <trkpt lat="46.73636" lon="6.5861">
        <ele>434.7</ele>
        <time>2022-09-29T08:35:22Z</time>
      </trkpt>
      <trkpt lat="46.73641" lon="6.58614">
        <ele>434.7</ele>
        <time>2022-09-29T08:35:23Z</time>
      </trkpt>
      <trkpt lat="46.73645" lon="6.58618">
        <ele>434.7</ele>
        <time>2022-09-29T08:35:24Z</time>
      </trkpt>
      <trkpt lat="46.7365" lon="6.58622">
        <ele>434.7</ele>
        <time>2022-09-29T08:35:25Z</time>
      </trkpt>
      <trkpt lat="46.73654" lon="6.58626">
        <ele>434.7</ele>
        <time>2022-09-29T08:35:26Z</time>
      </trkpt>
      <trkpt lat="46.73658" lon="6.5863">
        <ele>434.7</ele>
        <time>2022-09-29T08:35:27Z</time>
      </trkpt>
      <trkpt lat="46.73662" lon="6.58633">
        <ele>434.7</ele>
        <time>2022-09-29T08:35:28Z</time>
      </trkpt>
      <trkpt lat="46.73666" lon="6.58637">
        <ele>434.7</ele>
        <time>2022-09-29T08:35:29Z</time>
      </trkpt>
      <trkpt lat="46.7367" lon="6.58641">
        <ele>434.7</ele>
        <time>2022-09-29T08:35:30Z</time>
      </trkpt>
      <trkpt lat="46.73674" lon="6.58645">
        <ele>434.7</ele>
        <time>2022-09-29T08:35:31Z</time>
      </trkpt>
      <trkpt lat="46.73678" lon="6.58649">
        <ele>434.8</ele>
        <time>2022-09-29T08:35:32Z</time>
      </trkpt>
      <trkpt lat="46.73682" lon="6.58653">
        <ele>434.8</ele>
        <time>2022-09-29T08:35:33Z</time>
      </trkpt>
      <trkpt lat="46.73687" lon="6.58657">
        <ele>434.8</ele>
        <time>2022-09-29T08:35:34Z</time>
      </trkpt>
      <trkpt lat="46.73691" lon="6.58661">
        <ele>434.8</ele>
        <time>2022-09-29T08:35:35Z</time>
      </trkpt>
      <trkpt lat="46.73696" lon="6.58665">
        <ele>434.8</ele>
        <time>2022-09-29T08:35:36Z</time>
      </trkpt>
      <trkpt lat="46.737" lon="6.58668">
        <ele>434.8</ele>
        <time>2022-09-29T08:35:37Z</time>
      </trkpt>
      <trkpt lat="46.73704" lon="6.58673">
        <ele>434.8</ele>
        <time>2022-09-29T08:35:38Z</time>
      </trkpt>
      <trkpt lat="46.73708" lon="6.58677">
        <ele>434.8</ele>
        <time>2022-09-29T08:35:39Z</time>
      </trkpt>
      <trkpt lat="46.73712" lon="6.58681">
        <ele>434.8</ele>
        <time>2022-09-29T08:35:40Z</time>
      </trkpt>
      <trkpt lat="46.73717" lon="6.58685">
        <ele>434.8</ele>
        <time>2022-09-29T08:35:41Z</time>
      </trkpt>
      <trkpt lat="46.73721" lon="6.58689">
        <ele>434.8</ele>
        <time>2022-09-29T08:35:42Z</time>
      </trkpt>
      <trkpt lat="46.73725" lon="6.58693">
        <ele>434.7</ele>
        <time>2022-09-29T08:35:43Z</time>
      </trkpt>
      <trkpt lat="46.7373" lon="6.58697">
        <ele>434.7</ele>
        <time>2022-09-29T08:35:44Z</time>
      </trkpt>
      <trkpt lat="46.73734" lon="6.58701">
        <ele>434.7</ele>
        <time>2022-09-29T08:35:45Z</time>
      </trkpt>
      <trkpt lat="46.73739" lon="6.58706">
        <ele>434.7</ele>
        <time>2022-09-29T08:35:46Z</time>
      </trkpt>
      <trkpt lat="46.73743" lon="6.5871">
        <ele>434.7</ele>
        <time>2022-09-29T08:35:47Z</time>
      </trkpt>
      <trkpt lat="46.73748" lon="6.58715">
        <ele>434.7</ele>
        <time>2022-09-29T08:35:48Z</time>
      </trkpt>
      <trkpt lat="46.73752" lon="6.5872">
        <ele>434.7</ele>
        <time>2022-09-29T08:35:49Z</time>
      </trkpt>
      <trkpt lat="46.73757" lon="6.58724">
        <ele>434.7</ele>
        <time>2022-09-29T08:35:50Z</time>
      </trkpt>
      <trkpt lat="46.73762" lon="6.58728">
        <ele>434.7</ele>
        <time>2022-09-29T08:35:51Z</time>
      </trkpt>
      <trkpt lat="46.73766" lon="6.58733">
        <ele>434.7</ele>
        <time>2022-09-29T08:35:52Z</time>
      </trkpt>
      <trkpt lat="46.73771" lon="6.58737">
        <ele>434.7</ele>
        <time>2022-09-29T08:35:53Z</time>
      </trkpt>
      <trkpt lat="46.73775" lon="6.58741">
        <ele>434.7</ele>
        <time>2022-09-29T08:35:54Z</time>
      </trkpt>
      <trkpt lat="46.73779" lon="6.58745">
        <ele>434.7</ele>
        <time>2022-09-29T08:35:55Z</time>
      </trkpt>
      <trkpt lat="46.73782" lon="6.58748">
        <ele>434.7</ele>
        <time>2022-09-29T08:35:56Z</time>
      </trkpt>
      <trkpt lat="46.73784" lon="6.5875">
        <ele>434.7</ele>
        <time>2022-09-29T08:35:57Z</time>
      </trkpt>
      <trkpt lat="46.73787" lon="6.58752">
        <ele>434.7</ele>
        <time>2022-09-29T08:35:58Z</time>
      </trkpt>
      <trkpt lat="46.73787" lon="6.58753">
        <ele>434.7</ele>
        <time>2022-09-29T08:35:59Z</time>
      </trkpt>
      <trkpt lat="46.73788" lon="6.58754">
        <ele>434.7</ele>
        <time>2022-09-29T08:36:00Z</time>
      </trkpt>
      <trkpt lat="46.73789" lon="6.58755">
        <ele>434.7</ele>
        <time>2022-09-29T08:36:01Z</time>
      </trkpt>
      <trkpt lat="46.7379" lon="6.58755">
        <ele>434.7</ele>
        <time>2022-09-29T08:36:02Z</time>
      </trkpt>
      <trkpt lat="46.73791" lon="6.58756">
        <ele>434.7</ele>
        <time>2022-09-29T08:36:03Z</time>
      </trkpt>
      <trkpt lat="46.73791" lon="6.58757">
        <ele>434.7</ele>
        <time>2022-09-29T08:36:04Z</time>
      </trkpt>
      <trkpt lat="46.73792" lon="6.58758">
        <ele>434.7</ele>
        <time>2022-09-29T08:36:05Z</time>
      </trkpt>
      <trkpt lat="46.73793" lon="6.58758">
        <ele>434.7</ele>
        <time>2022-09-29T08:36:06Z</time>
      </trkpt>
      <trkpt lat="46.73794" lon="6.58759">
        <ele>434.7</ele>
        <time>2022-09-29T08:36:07Z</time>
      </trkpt>
      <trkpt lat="46.73794" lon="6.5876">
        <ele>434.7</ele>
        <time>2022-09-29T08:36:08Z</time>
      </trkpt>
      <trkpt lat="46.73795" lon="6.58761">
        <ele>434.7</ele>
        <time>2022-09-29T08:36:09Z</time>
      </trkpt>
      <trkpt lat="46.73796" lon="6.58761">
        <ele>434.7</ele>
        <time>2022-09-29T08:43:29Z</time>
      </trkpt>
      <trkpt lat="46.73797" lon="6.58762">
        <ele>434.7</ele>
        <time>2022-09-29T08:43:30Z</time>
      </trkpt>
      <trkpt lat="46.73798" lon="6.58763">
        <ele>434.7</ele>
        <time>2022-09-29T08:43:31Z</time>
      </trkpt>
      <trkpt lat="46.738" lon="6.58766">
        <ele>434.7</ele>
        <time>2022-09-29T08:43:32Z</time>
      </trkpt>
      <trkpt lat="46.73803" lon="6.58769">
        <ele>434.7</ele>
        <time>2022-09-29T08:43:33Z</time>
      </trkpt>
      <trkpt lat="46.73804" lon="6.5877">
        <ele>434.7</ele>
        <time>2022-09-29T08:43:34Z</time>
      </trkpt>
      <trkpt lat="46.73807" lon="6.58772">
        <ele>434.7</ele>
        <time>2022-09-29T08:43:35Z</time>
      </trkpt>
      <trkpt lat="46.73811" lon="6.58775">
        <ele>434.7</ele>
        <time>2022-09-29T08:43:36Z</time>
      </trkpt>
      <trkpt lat="46.73812" lon="6.58777">
        <ele>434.7</ele>
        <time>2022-09-29T08:43:37Z</time>
      </trkpt>
      <trkpt lat="46.73815" lon="6.5878">
        <ele>434.7</ele>
        <time>2022-09-29T08:43:38Z</time>
      </trkpt>
      <trkpt lat="46.73818" lon="6.58782">
        <ele>434.7</ele>
        <time>2022-09-29T08:43:39Z</time>
      </trkpt>
      <trkpt lat="46.73821" lon="6.58786">
        <ele>434.7</ele>
        <time>2022-09-29T08:43:40Z</time>
      </trkpt>
      <trkpt lat="46.73824" lon="6.58789">
        <ele>434.7</ele>
        <time>2022-09-29T08:43:41Z</time>
      </trkpt>
      <trkpt lat="46.73828" lon="6.58793">
        <ele>434.6</ele>
        <time>2022-09-29T08:43:42Z</time>
      </trkpt>
      <trkpt lat="46.73831" lon="6.58796">
        <ele>434.6</ele>
        <time>2022-09-29T08:43:43Z</time>
      </trkpt>
      <trkpt lat="46.73834" lon="6.58799">
        <ele>434.6</ele>
        <time>2022-09-29T08:43:44Z</time>
      </trkpt>
      <trkpt lat="46.73838" lon="6.58802">
        <ele>434.6</ele>
        <time>2022-09-29T08:43:45Z</time>
      </trkpt>
      <trkpt lat="46.73841" lon="6.58805">
        <ele>434.6</ele>
        <time>2022-09-29T08:43:46Z</time>
      </trkpt>
      <trkpt lat="46.73846" lon="6.58809">
        <ele>434.6</ele>
        <time>2022-09-29T08:43:47Z</time>
      </trkpt>
      <trkpt lat="46.73849" lon="6.58812">
        <ele>434.6</ele>
        <time>2022-09-29T08:43:48Z</time>
      </trkpt>
      <trkpt lat="46.73853" lon="6.58817">
        <ele>434.6</ele>
        <time>2022-09-29T08:43:49Z</time>
      </trkpt>
      <trkpt lat="46.73857" lon="6.5882">
        <ele>434.6</ele>
        <time>2022-09-29T08:43:50Z</time>
      </trkpt>
      <trkpt lat="46.7386" lon="6.58823">
        <ele>434.6</ele>
        <time>2022-09-29T08:43:51Z</time>
      </trkpt>
      <trkpt lat="46.73864" lon="6.58827">
        <ele>434.6</ele>
        <time>2022-09-29T08:43:52Z</time>
      </trkpt>
      <trkpt lat="46.73868" lon="6.5883">
        <ele>434.6</ele>
        <time>2022-09-29T08:43:53Z</time>
      </trkpt>
      <trkpt lat="46.73871" lon="6.58833">
        <ele>434.6</ele>
        <time>2022-09-29T08:43:54Z</time>
      </trkpt>
      <trkpt lat="46.73875" lon="6.58837">
        <ele>434.6</ele>
        <time>2022-09-29T08:43:55Z</time>
      </trkpt>
      <trkpt lat="46.73879" lon="6.58841">
        <ele>434.7</ele>
        <time>2022-09-29T08:43:56Z</time>
      </trkpt>
      <trkpt lat="46.73884" lon="6.58845">
        <ele>434.7</ele>
        <time>2022-09-29T08:43:57Z</time>
      </trkpt>
      <trkpt lat="46.73888" lon="6.58848">
        <ele>434.7</ele>
        <time>2022-09-29T08:43:58Z</time>
      </trkpt>
      <trkpt lat="46.73892" lon="6.58853">
        <ele>434.7</ele>
        <time>2022-09-29T08:43:59Z</time>
      </trkpt>
      <trkpt lat="46.73896" lon="6.58857">
        <ele>434.7</ele>
        <time>2022-09-29T08:44:00Z</time>
      </trkpt>
      <trkpt lat="46.73901" lon="6.5886">
        <ele>434.7</ele>
        <time>2022-09-29T08:44:01Z</time>
      </trkpt>
      <trkpt lat="46.73905" lon="6.58865">
        <ele>434.7</ele>
        <time>2022-09-29T08:44:02Z</time>
      </trkpt>
      <trkpt lat="46.7391" lon="6.58869">
        <ele>434.7</ele>
        <time>2022-09-29T08:44:03Z</time>
      </trkpt>
      <trkpt lat="46.73914" lon="6.58873">
        <ele>434.7</ele>
        <time>2022-09-29T08:44:04Z</time>
      </trkpt>
      <trkpt lat="46.73918" lon="6.58877">
        <ele>434.7</ele>
        <time>2022-09-29T08:44:05Z</time>
      </trkpt>
      <trkpt lat="46.73923" lon="6.5888">
        <ele>434.7</ele>
        <time>2022-09-29T08:44:06Z</time>
      </trkpt>
      <trkpt lat="46.73927" lon="6.58885">
        <ele>434.7</ele>
        <time>2022-09-29T08:44:07Z</time>
      </trkpt>
      <trkpt lat="46.73931" lon="6.58889">
        <ele>434.7</ele>
        <time>2022-09-29T08:44:08Z</time>
      </trkpt>
      <trkpt lat="46.73935" lon="6.58892">
        <ele>434.7</ele>
        <time>2022-09-29T08:44:09Z</time>
      </trkpt>
      <trkpt lat="46.7394" lon="6.58897">
        <ele>434.6</ele>
        <time>2022-09-29T08:44:10Z</time>
      </trkpt>
      <trkpt lat="46.73943" lon="6.58901">
        <ele>434.6</ele>
        <time>2022-09-29T08:44:11Z</time>
      </trkpt>
      <trkpt lat="46.73948" lon="6.58905">
        <ele>434.6</ele>
        <time>2022-09-29T08:44:12Z</time>
      </trkpt>
      <trkpt lat="46.73951" lon="6.58909">
        <ele>434.6</ele>
        <time>2022-09-29T08:44:13Z</time>
      </trkpt>
      <trkpt lat="46.73953" lon="6.58913">
        <ele>434.6</ele>
        <time>2022-09-29T08:44:14Z</time>
      </trkpt>
      <trkpt lat="46.73955" lon="6.58919">
        <ele>434.6</ele>
        <time>2022-09-29T08:44:15Z</time>
      </trkpt>
      <trkpt lat="46.73958" lon="6.58924">
        <ele>434.6</ele>
        <time>2022-09-29T08:44:16Z</time>
      </trkpt>
      <trkpt lat="46.73959" lon="6.58931">
        <ele>434.6</ele>
        <time>2022-09-29T08:44:17Z</time>
      </trkpt>
      <trkpt lat="46.73962" lon="6.58937">
        <ele>434.6</ele>
        <time>2022-09-29T08:44:18Z</time>
      </trkpt>
      <trkpt lat="46.73965" lon="6.58943">
        <ele>434.6</ele>
        <time>2022-09-29T08:44:19Z</time>
      </trkpt>
      <trkpt lat="46.73967" lon="6.58948">
        <ele>434.6</ele>
        <time>2022-09-29T08:44:20Z</time>
      </trkpt>
      <trkpt lat="46.73969" lon="6.58954">
        <ele>434.6</ele>
        <time>2022-09-29T08:44:21Z</time>
      </trkpt>
      <trkpt lat="46.73972" lon="6.5896">
        <ele>434.6</ele>
        <time>2022-09-29T08:44:22Z</time>
      </trkpt>
      <trkpt lat="46.73974" lon="6.58967">
        <ele>434.6</ele>
        <time>2022-09-29T08:44:23Z</time>
      </trkpt>
      <trkpt lat="46.73975" lon="6.58973">
        <ele>434.7</ele>
        <time>2022-09-29T08:44:24Z</time>
      </trkpt>
      <trkpt lat="46.73978" lon="6.5898">
        <ele>434.7</ele>
        <time>2022-09-29T08:44:25Z</time>
      </trkpt>
      <trkpt lat="46.73981" lon="6.58984">
        <ele>434.7</ele>
        <time>2022-09-29T08:44:26Z</time>
      </trkpt>
      <trkpt lat="46.73984" lon="6.58989">
        <ele>434.7</ele>
        <time>2022-09-29T08:44:27Z</time>
      </trkpt>
      <trkpt lat="46.73986" lon="6.58998">
        <ele>434.7</ele>
        <time>2022-09-29T08:44:28Z</time>
      </trkpt>
      <trkpt lat="46.73989" lon="6.59004">
        <ele>434.7</ele>
        <time>2022-09-29T08:44:29Z</time>
      </trkpt>
      <trkpt lat="46.7399" lon="6.59012">
        <ele>434.7</ele>
        <time>2022-09-29T08:44:30Z</time>
      </trkpt>
      <trkpt lat="46.73994" lon="6.59017">
        <ele>434.8</ele>
        <time>2022-09-29T08:44:31Z</time>
      </trkpt>
      <trkpt lat="46.73997" lon="6.59024">
        <ele>434.8</ele>
        <time>2022-09-29T08:44:32Z</time>
      </trkpt>
      <trkpt lat="46.73999" lon="6.59031">
        <ele>434.8</ele>
        <time>2022-09-29T08:44:33Z</time>
      </trkpt>
      <trkpt lat="46.74" lon="6.59036">
        <ele>434.8</ele>
        <time>2022-09-29T08:44:34Z</time>
      </trkpt>
      <trkpt lat="46.74002" lon="6.59043">
        <ele>434.9</ele>
        <time>2022-09-29T08:44:35Z</time>
      </trkpt>
      <trkpt lat="46.74005" lon="6.59052">
        <ele>434.9</ele>
        <time>2022-09-29T08:44:36Z</time>
      </trkpt>
      <trkpt lat="46.74008" lon="6.59058">
        <ele>434.9</ele>
        <time>2022-09-29T08:44:37Z</time>
      </trkpt>
      <trkpt lat="46.7401" lon="6.59064">
        <ele>434.9</ele>
        <time>2022-09-29T08:44:38Z</time>
      </trkpt>
      <trkpt lat="46.74012" lon="6.59071">
        <ele>434.9</ele>
        <time>2022-09-29T08:44:39Z</time>
      </trkpt>
      <trkpt lat="46.74015" lon="6.59076">
        <ele>435</ele>
        <time>2022-09-29T08:44:40Z</time>
      </trkpt>
      <trkpt lat="46.74018" lon="6.59083">
        <ele>434.9</ele>
        <time>2022-09-29T08:44:41Z</time>
      </trkpt>
      <trkpt lat="46.7402" lon="6.5909">
        <ele>434.9</ele>
        <time>2022-09-29T08:44:42Z</time>
      </trkpt>
      <trkpt lat="46.74023" lon="6.59096">
        <ele>434.9</ele>
        <time>2022-09-29T08:44:43Z</time>
      </trkpt>
      <trkpt lat="46.74025" lon="6.59103">
        <ele>434.9</ele>
        <time>2022-09-29T08:44:44Z</time>
      </trkpt>
      <trkpt lat="46.74028" lon="6.5911">
        <ele>434.9</ele>
        <time>2022-09-29T08:44:45Z</time>
      </trkpt>
      <trkpt lat="46.74031" lon="6.59116">
        <ele>434.9</ele>
        <time>2022-09-29T08:44:46Z</time>
      </trkpt>
      <trkpt lat="46.74032" lon="6.59123">
        <ele>434.9</ele>
        <time>2022-09-29T08:44:47Z</time>
      </trkpt>
      <trkpt lat="46.74033" lon="6.59129">
        <ele>434.9</ele>
        <time>2022-09-29T08:44:48Z</time>
      </trkpt>
      <trkpt lat="46.74035" lon="6.59136">
        <ele>434.9</ele>
        <time>2022-09-29T08:44:49Z</time>
      </trkpt>
      <trkpt lat="46.74035" lon="6.59144">
        <ele>434.9</ele>
        <time>2022-09-29T08:44:50Z</time>
      </trkpt>
      <trkpt lat="46.74036" lon="6.59151">
        <ele>434.9</ele>
        <time>2022-09-29T08:44:51Z</time>
      </trkpt>
      <trkpt lat="46.74036" lon="6.59159">
        <ele>434.9</ele>
        <time>2022-09-29T08:44:52Z</time>
      </trkpt>
      <trkpt lat="46.74036" lon="6.59167">
        <ele>434.9</ele>
        <time>2022-09-29T08:44:53Z</time>
      </trkpt>
      <trkpt lat="46.74037" lon="6.59175">
        <ele>434.9</ele>
        <time>2022-09-29T08:44:54Z</time>
      </trkpt>
      <trkpt lat="46.74036" lon="6.59182">
        <ele>434.9</ele>
        <time>2022-09-29T08:44:55Z</time>
      </trkpt>
      <trkpt lat="46.74037" lon="6.5919">
        <ele>434.9</ele>
        <time>2022-09-29T08:44:56Z</time>
      </trkpt>
      <trkpt lat="46.74038" lon="6.59196">
        <ele>434.9</ele>
        <time>2022-09-29T08:44:57Z</time>
      </trkpt>
      <trkpt lat="46.74037" lon="6.59203">
        <ele>434.9</ele>
        <time>2022-09-29T08:44:58Z</time>
      </trkpt>
      <trkpt lat="46.74038" lon="6.59209">
        <ele>434.9</ele>
        <time>2022-09-29T08:44:59Z</time>
      </trkpt>
      <trkpt lat="46.74037" lon="6.59213">
        <ele>434.9</ele>
        <time>2022-09-29T08:45:00Z</time>
      </trkpt>
      <trkpt lat="46.74039" lon="6.59221">
        <ele>435</ele>
        <time>2022-09-29T08:45:02Z</time>
      </trkpt>
      <trkpt lat="46.74039" lon="6.59228">
        <ele>435</ele>
        <time>2022-09-29T08:45:03Z</time>
      </trkpt>
      <trkpt lat="46.74041" lon="6.59236">
        <ele>435</ele>
        <time>2022-09-29T08:45:04Z</time>
      </trkpt>
      <trkpt lat="46.74043" lon="6.59241">
        <ele>435</ele>
        <time>2022-09-29T08:45:05Z</time>
      </trkpt>
      <trkpt lat="46.74045" lon="6.59247">
        <ele>435</ele>
        <time>2022-09-29T08:45:06Z</time>
      </trkpt>
      <trkpt lat="46.74048" lon="6.59252">
        <ele>435</ele>
        <time>2022-09-29T08:45:07Z</time>
      </trkpt>
      <trkpt lat="46.74051" lon="6.59258">
        <ele>435</ele>
        <time>2022-09-29T08:45:08Z</time>
      </trkpt>
      <trkpt lat="46.74053" lon="6.59263">
        <ele>434.9</ele>
        <time>2022-09-29T08:45:09Z</time>
      </trkpt>
      <trkpt lat="46.74056" lon="6.5927">
        <ele>434.9</ele>
        <time>2022-09-29T08:45:10Z</time>
      </trkpt>
      <trkpt lat="46.74059" lon="6.59276">
        <ele>434.9</ele>
        <time>2022-09-29T08:45:11Z</time>
      </trkpt>
      <trkpt lat="46.74062" lon="6.59283">
        <ele>434.9</ele>
        <time>2022-09-29T08:45:12Z</time>
      </trkpt>
      <trkpt lat="46.74065" lon="6.59289">
        <ele>434.9</ele>
        <time>2022-09-29T08:45:13Z</time>
      </trkpt>
      <trkpt lat="46.74068" lon="6.59295">
        <ele>434.9</ele>
        <time>2022-09-29T08:45:14Z</time>
      </trkpt>
      <trkpt lat="46.74071" lon="6.59302">
        <ele>434.9</ele>
        <time>2022-09-29T08:45:15Z</time>
      </trkpt>
      <trkpt lat="46.74073" lon="6.59308">
        <ele>434.9</ele>
        <time>2022-09-29T08:45:16Z</time>
      </trkpt>
      <trkpt lat="46.74076" lon="6.59315">
        <ele>435</ele>
        <time>2022-09-29T08:45:17Z</time>
      </trkpt>
      <trkpt lat="46.74079" lon="6.59321">
        <ele>435</ele>
        <time>2022-09-29T08:45:18Z</time>
      </trkpt>
      <trkpt lat="46.74082" lon="6.59328">
        <ele>435</ele>
        <time>2022-09-29T08:45:19Z</time>
      </trkpt>
      <trkpt lat="46.74085" lon="6.59335">
        <ele>435</ele>
        <time>2022-09-29T08:45:20Z</time>
      </trkpt>
      <trkpt lat="46.74088" lon="6.59341">
        <ele>435.1</ele>
        <time>2022-09-29T08:45:21Z</time>
      </trkpt>
      <trkpt lat="46.7409" lon="6.59347">
        <ele>435.1</ele>
        <time>2022-09-29T08:45:22Z</time>
      </trkpt>
      <trkpt lat="46.74093" lon="6.59354">
        <ele>435.1</ele>
        <time>2022-09-29T08:45:23Z</time>
      </trkpt>
      <trkpt lat="46.74096" lon="6.59361">
        <ele>435.2</ele>
        <time>2022-09-29T08:45:24Z</time>
      </trkpt>
      <trkpt lat="46.74098" lon="6.59368">
        <ele>435.2</ele>
        <time>2022-09-29T08:45:25Z</time>
      </trkpt>
      <trkpt lat="46.74101" lon="6.59374">
        <ele>435.2</ele>
        <time>2022-09-29T08:45:26Z</time>
      </trkpt>
      <trkpt lat="46.74104" lon="6.59381">
        <ele>435.3</ele>
        <time>2022-09-29T08:45:27Z</time>
      </trkpt>
      <trkpt lat="46.74107" lon="6.59387">
        <ele>435.3</ele>
        <time>2022-09-29T08:45:28Z</time>
      </trkpt>
      <trkpt lat="46.74109" lon="6.59393">
        <ele>435.3</ele>
        <time>2022-09-29T08:45:29Z</time>
      </trkpt>
      <trkpt lat="46.74112" lon="6.594">
        <ele>435.4</ele>
        <time>2022-09-29T08:45:30Z</time>
      </trkpt>
      <trkpt lat="46.74115" lon="6.59407">
        <ele>435.4</ele>
        <time>2022-09-29T08:45:31Z</time>
      </trkpt>
      <trkpt lat="46.74117" lon="6.59412">
        <ele>435.4</ele>
        <time>2022-09-29T08:45:32Z</time>
      </trkpt>
      <trkpt lat="46.7412" lon="6.59419">
        <ele>435.5</ele>
        <time>2022-09-29T08:45:33Z</time>
      </trkpt>
      <trkpt lat="46.74123" lon="6.59426">
        <ele>435.5</ele>
        <time>2022-09-29T08:45:34Z</time>
      </trkpt>
      <trkpt lat="46.74126" lon="6.59433">
        <ele>435.6</ele>
        <time>2022-09-29T08:45:35Z</time>
      </trkpt>
      <trkpt lat="46.74129" lon="6.5944">
        <ele>435.7</ele>
        <time>2022-09-29T08:45:36Z</time>
      </trkpt>
      <trkpt lat="46.74132" lon="6.59447">
        <ele>435.8</ele>
        <time>2022-09-29T08:45:37Z</time>
      </trkpt>
      <trkpt lat="46.74135" lon="6.59452">
        <ele>435.8</ele>
        <time>2022-09-29T08:45:38Z</time>
      </trkpt>
      <trkpt lat="46.74138" lon="6.5946">
        <ele>435.9</ele>
        <time>2022-09-29T08:45:39Z</time>
      </trkpt>
      <trkpt lat="46.74144" lon="6.59473">
        <ele>436.1</ele>
        <time>2022-09-29T08:45:40Z</time>
      </trkpt>
      <trkpt lat="46.74147" lon="6.5948">
        <ele>436.2</ele>
        <time>2022-09-29T08:45:41Z</time>
      </trkpt>
      <trkpt lat="46.74149" lon="6.59486">
        <ele>436.3</ele>
        <time>2022-09-29T08:45:42Z</time>
      </trkpt>
      <trkpt lat="46.74152" lon="6.59493">
        <ele>436.4</ele>
        <time>2022-09-29T08:45:43Z</time>
      </trkpt>
      <trkpt lat="46.74154" lon="6.59499">
        <ele>436.4</ele>
        <time>2022-09-29T08:45:44Z</time>
      </trkpt>
      <trkpt lat="46.74157" lon="6.59504">
        <ele>436.5</ele>
        <time>2022-09-29T08:45:45Z</time>
      </trkpt>
      <trkpt lat="46.74159" lon="6.5951">
        <ele>436.6</ele>
        <time>2022-09-29T08:45:46Z</time>
      </trkpt>
      <trkpt lat="46.74162" lon="6.59517">
        <ele>436.7</ele>
        <time>2022-09-29T08:45:47Z</time>
      </trkpt>
      <trkpt lat="46.74164" lon="6.59523">
        <ele>436.7</ele>
        <time>2022-09-29T08:45:48Z</time>
      </trkpt>
      <trkpt lat="46.74166" lon="6.59528">
        <ele>436.8</ele>
        <time>2022-09-29T08:45:49Z</time>
      </trkpt>
      <trkpt lat="46.74169" lon="6.59534">
        <ele>436.9</ele>
        <time>2022-09-29T08:45:50Z</time>
      </trkpt>
      <trkpt lat="46.74172" lon="6.5954">
        <ele>437</ele>
        <time>2022-09-29T08:45:51Z</time>
      </trkpt>
      <trkpt lat="46.74174" lon="6.59546">
        <ele>437</ele>
        <time>2022-09-29T08:45:52Z</time>
      </trkpt>
      <trkpt lat="46.74176" lon="6.59551">
        <ele>437.1</ele>
        <time>2022-09-29T08:45:53Z</time>
      </trkpt>
      <trkpt lat="46.7418" lon="6.59555">
        <ele>437.1</ele>
        <time>2022-09-29T08:45:54Z</time>
      </trkpt>
      <trkpt lat="46.74181" lon="6.59565">
        <ele>437.2</ele>
        <time>2022-09-29T08:45:55Z</time>
      </trkpt>
      <trkpt lat="46.74185" lon="6.5957">
        <ele>437.2</ele>
        <time>2022-09-29T08:45:56Z</time>
      </trkpt>
      <trkpt lat="46.74189" lon="6.59576">
        <ele>437.2</ele>
        <time>2022-09-29T08:45:57Z</time>
      </trkpt>
      <trkpt lat="46.74194" lon="6.5958">
        <ele>437.2</ele>
        <time>2022-09-29T08:45:58Z</time>
      </trkpt>
      <trkpt lat="46.74198" lon="6.59586">
        <ele>437.1</ele>
        <time>2022-09-29T08:45:59Z</time>
      </trkpt>
      <trkpt lat="46.74201" lon="6.59592">
        <ele>437.1</ele>
        <time>2022-09-29T08:46:00Z</time>
      </trkpt>
      <trkpt lat="46.74206" lon="6.59599">
        <ele>437</ele>
        <time>2022-09-29T08:46:01Z</time>
      </trkpt>
      <trkpt lat="46.7421" lon="6.59604">
        <ele>436.9</ele>
        <time>2022-09-29T08:46:02Z</time>
      </trkpt>
      <trkpt lat="46.74213" lon="6.59611">
        <ele>436.8</ele>
        <time>2022-09-29T08:46:03Z</time>
      </trkpt>
      <trkpt lat="46.74217" lon="6.59618">
        <ele>436.8</ele>
        <time>2022-09-29T08:46:04Z</time>
      </trkpt>
      <trkpt lat="46.7422" lon="6.59625">
        <ele>436.7</ele>
        <time>2022-09-29T08:46:05Z</time>
      </trkpt>
      <trkpt lat="46.74223" lon="6.59631">
        <ele>436.7</ele>
        <time>2022-09-29T08:46:06Z</time>
      </trkpt>
      <trkpt lat="46.74226" lon="6.59639">
        <ele>436.6</ele>
        <time>2022-09-29T08:46:07Z</time>
      </trkpt>
      <trkpt lat="46.74229" lon="6.59645">
        <ele>436.5</ele>
        <time>2022-09-29T08:46:08Z</time>
      </trkpt>
      <trkpt lat="46.74232" lon="6.59652">
        <ele>436.5</ele>
        <time>2022-09-29T08:46:09Z</time>
      </trkpt>
      <trkpt lat="46.74235" lon="6.59659">
        <ele>436.4</ele>
        <time>2022-09-29T08:46:10Z</time>
      </trkpt>
      <trkpt lat="46.74237" lon="6.59666">
        <ele>436.4</ele>
        <time>2022-09-29T08:46:11Z</time>
      </trkpt>
      <trkpt lat="46.74239" lon="6.59673">
        <ele>436.4</ele>
        <time>2022-09-29T08:46:12Z</time>
      </trkpt>
      <trkpt lat="46.74242" lon="6.5968">
        <ele>436.3</ele>
        <time>2022-09-29T08:46:13Z</time>
      </trkpt>
      <trkpt lat="46.74245" lon="6.59686">
        <ele>436.3</ele>
        <time>2022-09-29T08:46:14Z</time>
      </trkpt>
      <trkpt lat="46.74248" lon="6.59694">
        <ele>436.2</ele>
        <time>2022-09-29T08:46:15Z</time>
      </trkpt>
      <trkpt lat="46.7425" lon="6.59701">
        <ele>436.2</ele>
        <time>2022-09-29T08:46:16Z</time>
      </trkpt>
      <trkpt lat="46.74252" lon="6.59708">
        <ele>436.2</ele>
        <time>2022-09-29T08:46:17Z</time>
      </trkpt>
      <trkpt lat="46.74254" lon="6.59715">
        <ele>436.1</ele>
        <time>2022-09-29T08:46:18Z</time>
      </trkpt>
      <trkpt lat="46.74257" lon="6.59723">
        <ele>436.1</ele>
        <time>2022-09-29T08:46:19Z</time>
      </trkpt>
      <trkpt lat="46.74258" lon="6.5973">
        <ele>436.1</ele>
        <time>2022-09-29T08:46:20Z</time>
      </trkpt>
      <trkpt lat="46.7426" lon="6.59738">
        <ele>436</ele>
        <time>2022-09-29T08:46:21Z</time>
      </trkpt>
      <trkpt lat="46.74262" lon="6.59746">
        <ele>436</ele>
        <time>2022-09-29T08:46:22Z</time>
      </trkpt>
      <trkpt lat="46.74264" lon="6.59754">
        <ele>436</ele>
        <time>2022-09-29T08:46:23Z</time>
      </trkpt>
      <trkpt lat="46.74267" lon="6.59761">
        <ele>436</ele>
        <time>2022-09-29T08:46:24Z</time>
      </trkpt>
      <trkpt lat="46.74268" lon="6.59769">
        <ele>436</ele>
        <time>2022-09-29T08:46:25Z</time>
      </trkpt>
      <trkpt lat="46.74269" lon="6.59777">
        <ele>435.9</ele>
        <time>2022-09-29T08:46:26Z</time>
      </trkpt>
      <trkpt lat="46.7427" lon="6.59783">
        <ele>435.9</ele>
        <time>2022-09-29T08:46:27Z</time>
      </trkpt>
      <trkpt lat="46.74272" lon="6.59792">
        <ele>435.8</ele>
        <time>2022-09-29T08:46:28Z</time>
      </trkpt>
      <trkpt lat="46.74272" lon="6.598">
        <ele>435.8</ele>
        <time>2022-09-29T08:46:29Z</time>
      </trkpt>
      <trkpt lat="46.74273" lon="6.59806">
        <ele>435.7</ele>
        <time>2022-09-29T08:46:30Z</time>
      </trkpt>
      <trkpt lat="46.74273" lon="6.59813">
        <ele>435.7</ele>
        <time>2022-09-29T08:46:31Z</time>
      </trkpt>
      <trkpt lat="46.74273" lon="6.59821">
        <ele>435.6</ele>
        <time>2022-09-29T08:46:32Z</time>
      </trkpt>
      <trkpt lat="46.74273" lon="6.59828">
        <ele>435.6</ele>
        <time>2022-09-29T08:46:33Z</time>
      </trkpt>
      <trkpt lat="46.74274" lon="6.59834">
        <ele>435.5</ele>
        <time>2022-09-29T08:46:34Z</time>
      </trkpt>
      <trkpt lat="46.74275" lon="6.59841">
        <ele>435.4</ele>
        <time>2022-09-29T08:46:35Z</time>
      </trkpt>
      <trkpt lat="46.74276" lon="6.59847">
        <ele>435.4</ele>
        <time>2022-09-29T08:46:36Z</time>
      </trkpt>
      <trkpt lat="46.74277" lon="6.59853">
        <ele>435.3</ele>
        <time>2022-09-29T08:46:37Z</time>
      </trkpt>
      <trkpt lat="46.74278" lon="6.59859">
        <ele>435.3</ele>
        <time>2022-09-29T08:46:38Z</time>
      </trkpt>
      <trkpt lat="46.74279" lon="6.59862">
        <ele>435.2</ele>
        <time>2022-09-29T08:46:39Z</time>
      </trkpt>
      <trkpt lat="46.74281" lon="6.59866">
        <ele>435.2</ele>
        <time>2022-09-29T08:46:40Z</time>
      </trkpt>
      <trkpt lat="46.74282" lon="6.59871">
        <ele>435.2</ele>
        <time>2022-09-29T08:46:41Z</time>
      </trkpt>
      <trkpt lat="46.74284" lon="6.59875">
        <ele>435.1</ele>
        <time>2022-09-29T08:46:42Z</time>
      </trkpt>
      <trkpt lat="46.74286" lon="6.5988">
        <ele>435.1</ele>
        <time>2022-09-29T08:46:43Z</time>
      </trkpt>
      <trkpt lat="46.74288" lon="6.59886">
        <ele>435</ele>
        <time>2022-09-29T08:46:44Z</time>
      </trkpt>
      <trkpt lat="46.74289" lon="6.59892">
        <ele>435</ele>
        <time>2022-09-29T08:46:45Z</time>
      </trkpt>
      <trkpt lat="46.74291" lon="6.59898">
        <ele>434.9</ele>
        <time>2022-09-29T08:46:46Z</time>
      </trkpt>
      <trkpt lat="46.74293" lon="6.59905">
        <ele>434.8</ele>
        <time>2022-09-29T08:46:47Z</time>
      </trkpt>
      <trkpt lat="46.74295" lon="6.59911">
        <ele>434.8</ele>
        <time>2022-09-29T08:46:48Z</time>
      </trkpt>
      <trkpt lat="46.74297" lon="6.59918">
        <ele>434.7</ele>
        <time>2022-09-29T08:46:49Z</time>
      </trkpt>
      <trkpt lat="46.743" lon="6.59925">
        <ele>434.7</ele>
        <time>2022-09-29T08:46:50Z</time>
      </trkpt>
      <trkpt lat="46.74302" lon="6.59931">
        <ele>434.6</ele>
        <time>2022-09-29T08:46:51Z</time>
      </trkpt>
      <trkpt lat="46.74304" lon="6.59938">
        <ele>434.5</ele>
        <time>2022-09-29T08:46:52Z</time>
      </trkpt>
      <trkpt lat="46.74307" lon="6.59946">
        <ele>434.4</ele>
        <time>2022-09-29T08:46:53Z</time>
      </trkpt>
      <trkpt lat="46.74309" lon="6.59954">
        <ele>434.3</ele>
        <time>2022-09-29T08:46:54Z</time>
      </trkpt>
      <trkpt lat="46.74311" lon="6.5996">
        <ele>434.3</ele>
        <time>2022-09-29T08:46:55Z</time>
      </trkpt>
      <trkpt lat="46.74313" lon="6.59968">
        <ele>434.2</ele>
        <time>2022-09-29T08:46:56Z</time>
      </trkpt>
      <trkpt lat="46.74316" lon="6.59975">
        <ele>434.1</ele>
        <time>2022-09-29T08:46:57Z</time>
      </trkpt>
      <trkpt lat="46.74318" lon="6.59982">
        <ele>434.1</ele>
        <time>2022-09-29T08:46:58Z</time>
      </trkpt>
      <trkpt lat="46.7432" lon="6.59989">
        <ele>434.1</ele>
        <time>2022-09-29T08:46:59Z</time>
      </trkpt>
      <trkpt lat="46.74323" lon="6.59997">
        <ele>434</ele>
        <time>2022-09-29T08:47:00Z</time>
      </trkpt>
      <trkpt lat="46.74325" lon="6.60005">
        <ele>434</ele>
        <time>2022-09-29T08:47:01Z</time>
      </trkpt>
      <trkpt lat="46.74328" lon="6.60012">
        <ele>433.9</ele>
        <time>2022-09-29T08:47:02Z</time>
      </trkpt>
      <trkpt lat="46.7433" lon="6.6002">
        <ele>433.9</ele>
        <time>2022-09-29T08:47:03Z</time>
      </trkpt>
      <trkpt lat="46.74333" lon="6.60028">
        <ele>433.9</ele>
        <time>2022-09-29T08:47:04Z</time>
      </trkpt>
      <trkpt lat="46.74335" lon="6.60036">
        <ele>433.9</ele>
        <time>2022-09-29T08:47:05Z</time>
      </trkpt>
      <trkpt lat="46.74338" lon="6.60044">
        <ele>433.9</ele>
        <time>2022-09-29T08:47:06Z</time>
      </trkpt>
      <trkpt lat="46.7434" lon="6.60052">
        <ele>433.9</ele>
        <time>2022-09-29T08:47:08Z</time>
      </trkpt>
      <trkpt lat="46.74343" lon="6.60059">
        <ele>433.9</ele>
        <time>2022-09-29T08:47:09Z</time>
      </trkpt>
      <trkpt lat="46.74345" lon="6.60067">
        <ele>433.9</ele>
        <time>2022-09-29T08:47:10Z</time>
      </trkpt>
      <trkpt lat="46.74348" lon="6.60074">
        <ele>433.8</ele>
        <time>2022-09-29T08:47:11Z</time>
      </trkpt>
      <trkpt lat="46.7435" lon="6.60083">
        <ele>433.8</ele>
        <time>2022-09-29T08:47:12Z</time>
      </trkpt>
      <trkpt lat="46.74353" lon="6.6009">
        <ele>433.8</ele>
        <time>2022-09-29T08:47:13Z</time>
      </trkpt>
      <trkpt lat="46.74355" lon="6.60098">
        <ele>433.8</ele>
        <time>2022-09-29T08:47:14Z</time>
      </trkpt>
      <trkpt lat="46.74357" lon="6.60105">
        <ele>433.8</ele>
        <time>2022-09-29T08:47:15Z</time>
      </trkpt>
      <trkpt lat="46.7436" lon="6.60112">
        <ele>433.7</ele>
        <time>2022-09-29T08:47:16Z</time>
      </trkpt>
      <trkpt lat="46.74363" lon="6.6012">
        <ele>433.7</ele>
        <time>2022-09-29T08:47:17Z</time>
      </trkpt>
      <trkpt lat="46.74365" lon="6.60127">
        <ele>433.7</ele>
        <time>2022-09-29T08:47:18Z</time>
      </trkpt>
      <trkpt lat="46.74367" lon="6.60133">
        <ele>433.7</ele>
        <time>2022-09-29T08:47:19Z</time>
      </trkpt>
      <trkpt lat="46.7437" lon="6.60141">
        <ele>433.7</ele>
        <time>2022-09-29T08:47:20Z</time>
      </trkpt>
      <trkpt lat="46.74372" lon="6.60148">
        <ele>433.7</ele>
        <time>2022-09-29T08:47:21Z</time>
      </trkpt>
      <trkpt lat="46.74374" lon="6.60156">
        <ele>433.7</ele>
        <time>2022-09-29T08:47:22Z</time>
      </trkpt>
      <trkpt lat="46.74377" lon="6.60163">
        <ele>433.7</ele>
        <time>2022-09-29T08:47:23Z</time>
      </trkpt>
      <trkpt lat="46.74379" lon="6.60171">
        <ele>433.7</ele>
        <time>2022-09-29T08:47:24Z</time>
      </trkpt>
      <trkpt lat="46.74382" lon="6.60178">
        <ele>433.7</ele>
        <time>2022-09-29T08:47:25Z</time>
      </trkpt>
      <trkpt lat="46.74384" lon="6.60185">
        <ele>433.7</ele>
        <time>2022-09-29T08:47:26Z</time>
      </trkpt>
      <trkpt lat="46.74387" lon="6.60192">
        <ele>433.7</ele>
        <time>2022-09-29T08:47:27Z</time>
      </trkpt>
      <trkpt lat="46.7439" lon="6.60198">
        <ele>433.7</ele>
        <time>2022-09-29T08:47:28Z</time>
      </trkpt>
      <trkpt lat="46.74392" lon="6.60205">
        <ele>433.8</ele>
        <time>2022-09-29T08:47:29Z</time>
      </trkpt>
      <trkpt lat="46.74395" lon="6.60212">
        <ele>433.8</ele>
        <time>2022-09-29T08:47:30Z</time>
      </trkpt>
      <trkpt lat="46.74397" lon="6.6022">
        <ele>433.8</ele>
        <time>2022-09-29T08:47:31Z</time>
      </trkpt>
      <trkpt lat="46.744" lon="6.60226">
        <ele>433.8</ele>
        <time>2022-09-29T08:47:32Z</time>
      </trkpt>
      <trkpt lat="46.74402" lon="6.60233">
        <ele>433.8</ele>
        <time>2022-09-29T08:47:33Z</time>
      </trkpt>
      <trkpt lat="46.74405" lon="6.6024">
        <ele>433.8</ele>
        <time>2022-09-29T08:47:34Z</time>
      </trkpt>
      <trkpt lat="46.74408" lon="6.60247">
        <ele>433.8</ele>
        <time>2022-09-29T08:47:35Z</time>
      </trkpt>
      <trkpt lat="46.7441" lon="6.60254">
        <ele>433.9</ele>
        <time>2022-09-29T08:47:36Z</time>
      </trkpt>
      <trkpt lat="46.74413" lon="6.60261">
        <ele>433.9</ele>
        <time>2022-09-29T08:47:37Z</time>
      </trkpt>
      <trkpt lat="46.74415" lon="6.60268">
        <ele>433.9</ele>
        <time>2022-09-29T08:47:38Z</time>
      </trkpt>
      <trkpt lat="46.74421" lon="6.60281">
        <ele>434</ele>
        <time>2022-09-29T08:47:39Z</time>
      </trkpt>
      <trkpt lat="46.74423" lon="6.60288">
        <ele>434</ele>
        <time>2022-09-29T08:47:40Z</time>
      </trkpt>
      <trkpt lat="46.74426" lon="6.60295">
        <ele>434.1</ele>
        <time>2022-09-29T08:47:41Z</time>
      </trkpt>
      <trkpt lat="46.74429" lon="6.60301">
        <ele>434.1</ele>
        <time>2022-09-29T08:47:42Z</time>
      </trkpt>
      <trkpt lat="46.74431" lon="6.60307">
        <ele>434.2</ele>
        <time>2022-09-29T08:47:43Z</time>
      </trkpt>
      <trkpt lat="46.74434" lon="6.60313">
        <ele>434.3</ele>
        <time>2022-09-29T08:47:44Z</time>
      </trkpt>
      <trkpt lat="46.74436" lon="6.60319">
        <ele>434.3</ele>
        <time>2022-09-29T08:47:45Z</time>
      </trkpt>
      <trkpt lat="46.7444" lon="6.60325">
        <ele>434.4</ele>
        <time>2022-09-29T08:47:46Z</time>
      </trkpt>
      <trkpt lat="46.74442" lon="6.60332">
        <ele>434.5</ele>
        <time>2022-09-29T08:47:47Z</time>
      </trkpt>
      <trkpt lat="46.74444" lon="6.60338">
        <ele>434.6</ele>
        <time>2022-09-29T08:47:48Z</time>
      </trkpt>
      <trkpt lat="46.74447" lon="6.60344">
        <ele>434.6</ele>
        <time>2022-09-29T08:47:49Z</time>
      </trkpt>
      <trkpt lat="46.7445" lon="6.6035">
        <ele>434.7</ele>
        <time>2022-09-29T08:47:50Z</time>
      </trkpt>
      <trkpt lat="46.74452" lon="6.60356">
        <ele>434.7</ele>
        <time>2022-09-29T08:47:51Z</time>
      </trkpt>
      <trkpt lat="46.74454" lon="6.60362">
        <ele>434.8</ele>
        <time>2022-09-29T08:47:52Z</time>
      </trkpt>
      <trkpt lat="46.74457" lon="6.60368">
        <ele>434.8</ele>
        <time>2022-09-29T08:47:53Z</time>
      </trkpt>
      <trkpt lat="46.7446" lon="6.60373">
        <ele>434.9</ele>
        <time>2022-09-29T08:47:54Z</time>
      </trkpt>
      <trkpt lat="46.74462" lon="6.6038">
        <ele>434.9</ele>
        <time>2022-09-29T08:47:55Z</time>
      </trkpt>
      <trkpt lat="46.74465" lon="6.60385">
        <ele>435</ele>
        <time>2022-09-29T08:47:56Z</time>
      </trkpt>
      <trkpt lat="46.74467" lon="6.60391">
        <ele>435</ele>
        <time>2022-09-29T08:47:57Z</time>
      </trkpt>
      <trkpt lat="46.7447" lon="6.60396">
        <ele>435.1</ele>
        <time>2022-09-29T08:47:58Z</time>
      </trkpt>
      <trkpt lat="46.74473" lon="6.60402">
        <ele>435.1</ele>
        <time>2022-09-29T08:47:59Z</time>
      </trkpt>
      <trkpt lat="46.74475" lon="6.60406">
        <ele>435.1</ele>
        <time>2022-09-29T08:48:00Z</time>
      </trkpt>
      <trkpt lat="46.74477" lon="6.60412">
        <ele>435.2</ele>
        <time>2022-09-29T08:48:01Z</time>
      </trkpt>
      <trkpt lat="46.7448" lon="6.60418">
        <ele>435.2</ele>
        <time>2022-09-29T08:48:02Z</time>
      </trkpt>
      <trkpt lat="46.74482" lon="6.60423">
        <ele>435.3</ele>
        <time>2022-09-29T08:48:03Z</time>
      </trkpt>
      <trkpt lat="46.74485" lon="6.60429">
        <ele>435.3</ele>
        <time>2022-09-29T08:48:04Z</time>
      </trkpt>
      <trkpt lat="46.74487" lon="6.60434">
        <ele>435.4</ele>
        <time>2022-09-29T08:48:05Z</time>
      </trkpt>
      <trkpt lat="46.7449" lon="6.60439">
        <ele>435.5</ele>
        <time>2022-09-29T08:48:06Z</time>
      </trkpt>
      <trkpt lat="46.74492" lon="6.60445">
        <ele>435.5</ele>
        <time>2022-09-29T08:48:07Z</time>
      </trkpt>
      <trkpt lat="46.74495" lon="6.6045">
        <ele>435.6</ele>
        <time>2022-09-29T08:48:08Z</time>
      </trkpt>
      <trkpt lat="46.74498" lon="6.60456">
        <ele>435.7</ele>
        <time>2022-09-29T08:48:09Z</time>
      </trkpt>
      <trkpt lat="46.745" lon="6.60461">
        <ele>435.7</ele>
        <time>2022-09-29T08:48:10Z</time>
      </trkpt>
      <trkpt lat="46.74504" lon="6.60468">
        <ele>435.8</ele>
        <time>2022-09-29T08:48:11Z</time>
      </trkpt>
      <trkpt lat="46.74506" lon="6.60472">
        <ele>435.8</ele>
        <time>2022-09-29T08:48:12Z</time>
      </trkpt>
      <trkpt lat="46.74509" lon="6.60478">
        <ele>435.9</ele>
        <time>2022-09-29T08:48:13Z</time>
      </trkpt>
      <trkpt lat="46.74512" lon="6.60483">
        <ele>436</ele>
        <time>2022-09-29T08:48:14Z</time>
      </trkpt>
      <trkpt lat="46.74514" lon="6.60488">
        <ele>436</ele>
        <time>2022-09-29T08:48:15Z</time>
      </trkpt>
      <trkpt lat="46.74516" lon="6.60492">
        <ele>436.1</ele>
        <time>2022-09-29T08:48:16Z</time>
      </trkpt>
      <trkpt lat="46.74519" lon="6.60497">
        <ele>436.1</ele>
        <time>2022-09-29T08:48:17Z</time>
      </trkpt>
      <trkpt lat="46.74522" lon="6.60502">
        <ele>436.2</ele>
        <time>2022-09-29T08:48:18Z</time>
      </trkpt>
      <trkpt lat="46.74525" lon="6.60507">
        <ele>436.2</ele>
        <time>2022-09-29T08:48:19Z</time>
      </trkpt>
      <trkpt lat="46.74527" lon="6.60512">
        <ele>436.3</ele>
        <time>2022-09-29T08:48:20Z</time>
      </trkpt>
      <trkpt lat="46.7453" lon="6.60517">
        <ele>436.4</ele>
        <time>2022-09-29T08:48:21Z</time>
      </trkpt>
      <trkpt lat="46.74532" lon="6.60522">
        <ele>436.4</ele>
        <time>2022-09-29T08:48:22Z</time>
      </trkpt>
      <trkpt lat="46.74535" lon="6.60526">
        <ele>436.5</ele>
        <time>2022-09-29T08:48:23Z</time>
      </trkpt>
      <trkpt lat="46.74538" lon="6.60531">
        <ele>436.6</ele>
        <time>2022-09-29T08:48:24Z</time>
      </trkpt>
      <trkpt lat="46.7454" lon="6.60537">
        <ele>436.6</ele>
        <time>2022-09-29T08:48:25Z</time>
      </trkpt>
      <trkpt lat="46.74543" lon="6.60541">
        <ele>436.7</ele>
        <time>2022-09-29T08:48:26Z</time>
      </trkpt>
      <trkpt lat="46.74545" lon="6.60546">
        <ele>436.7</ele>
        <time>2022-09-29T08:48:27Z</time>
      </trkpt>
      <trkpt lat="46.74548" lon="6.6055">
        <ele>436.8</ele>
        <time>2022-09-29T08:48:28Z</time>
      </trkpt>
      <trkpt lat="46.74551" lon="6.60554">
        <ele>436.8</ele>
        <time>2022-09-29T08:48:29Z</time>
      </trkpt>
      <trkpt lat="46.74553" lon="6.60558">
        <ele>436.8</ele>
        <time>2022-09-29T08:48:30Z</time>
      </trkpt>
      <trkpt lat="46.74556" lon="6.60563">
        <ele>436.8</ele>
        <time>2022-09-29T08:48:31Z</time>
      </trkpt>
      <trkpt lat="46.74558" lon="6.60568">
        <ele>436.8</ele>
        <time>2022-09-29T08:48:32Z</time>
      </trkpt>
      <trkpt lat="46.74561" lon="6.60572">
        <ele>436.8</ele>
        <time>2022-09-29T08:48:33Z</time>
      </trkpt>
      <trkpt lat="46.74564" lon="6.60576">
        <ele>436.8</ele>
        <time>2022-09-29T08:48:34Z</time>
      </trkpt>
      <trkpt lat="46.74567" lon="6.60579">
        <ele>436.8</ele>
        <time>2022-09-29T08:48:35Z</time>
      </trkpt>
      <trkpt lat="46.7457" lon="6.60582">
        <ele>436.7</ele>
        <time>2022-09-29T08:48:36Z</time>
      </trkpt>
      <trkpt lat="46.74573" lon="6.60584">
        <ele>436.6</ele>
        <time>2022-09-29T08:48:37Z</time>
      </trkpt>
      <trkpt lat="46.74576" lon="6.60588">
        <ele>436.5</ele>
        <time>2022-09-29T08:48:38Z</time>
      </trkpt>
      <trkpt lat="46.74579" lon="6.60591">
        <ele>436.4</ele>
        <time>2022-09-29T08:48:39Z</time>
      </trkpt>
      <trkpt lat="46.74582" lon="6.60595">
        <ele>436.3</ele>
        <time>2022-09-29T08:48:40Z</time>
      </trkpt>
      <trkpt lat="46.74584" lon="6.60597">
        <ele>436.2</ele>
        <time>2022-09-29T08:48:41Z</time>
      </trkpt>
      <trkpt lat="46.74587" lon="6.60599">
        <ele>436.1</ele>
        <time>2022-09-29T08:48:42Z</time>
      </trkpt>
      <trkpt lat="46.7459" lon="6.60602">
        <ele>436</ele>
        <time>2022-09-29T08:48:43Z</time>
      </trkpt>
      <trkpt lat="46.74592" lon="6.60604">
        <ele>436</ele>
        <time>2022-09-29T08:48:44Z</time>
      </trkpt>
      <trkpt lat="46.74594" lon="6.60607">
        <ele>435.9</ele>
        <time>2022-09-29T08:48:45Z</time>
      </trkpt>
      <trkpt lat="46.74596" lon="6.60608">
        <ele>435.9</ele>
        <time>2022-09-29T08:48:46Z</time>
      </trkpt>
      <trkpt lat="46.74598" lon="6.6061">
        <ele>435.8</ele>
        <time>2022-09-29T08:48:47Z</time>
      </trkpt>
      <trkpt lat="46.746" lon="6.60613">
        <ele>435.8</ele>
        <time>2022-09-29T08:48:48Z</time>
      </trkpt>
      <trkpt lat="46.74603" lon="6.60617">
        <ele>435.8</ele>
        <time>2022-09-29T08:48:49Z</time>
      </trkpt>
      <trkpt lat="46.74604" lon="6.60618">
        <ele>435.8</ele>
        <time>2022-09-29T08:48:50Z</time>
      </trkpt>
      <trkpt lat="46.74606" lon="6.60621">
        <ele>435.8</ele>
        <time>2022-09-29T08:48:51Z</time>
      </trkpt>
      <trkpt lat="46.74606" lon="6.60622">
        <ele>435.8</ele>
        <time>2022-09-29T08:48:52Z</time>
      </trkpt>
      <trkpt lat="46.74607" lon="6.60625">
        <ele>435.7</ele>
        <time>2022-09-29T08:48:53Z</time>
      </trkpt>
      <trkpt lat="46.74608" lon="6.60626">
        <ele>435.7</ele>
        <time>2022-09-29T08:48:54Z</time>
      </trkpt>
      <trkpt lat="46.7461" lon="6.60628">
        <ele>435.7</ele>
        <time>2022-09-29T08:48:55Z</time>
      </trkpt>
      <trkpt lat="46.74611" lon="6.6063">
        <ele>435.7</ele>
        <time>2022-09-29T08:48:56Z</time>
      </trkpt>
      <trkpt lat="46.74613" lon="6.60633">
        <ele>435.7</ele>
        <time>2022-09-29T08:48:57Z</time>
      </trkpt>
      <trkpt lat="46.74614" lon="6.60634">
        <ele>435.7</ele>
        <time>2022-09-29T08:48:58Z</time>
      </trkpt>
      <trkpt lat="46.74616" lon="6.60637">
        <ele>435.8</ele>
        <time>2022-09-29T08:48:59Z</time>
      </trkpt>
      <trkpt lat="46.74618" lon="6.60641">
        <ele>435.8</ele>
        <time>2022-09-29T08:49:00Z</time>
      </trkpt>
      <trkpt lat="46.7462" lon="6.60645">
        <ele>435.8</ele>
        <time>2022-09-29T08:49:01Z</time>
      </trkpt>
      <trkpt lat="46.74621" lon="6.60649">
        <ele>435.9</ele>
        <time>2022-09-29T08:49:02Z</time>
      </trkpt>
      <trkpt lat="46.74623" lon="6.60652">
        <ele>435.9</ele>
        <time>2022-09-29T08:49:03Z</time>
      </trkpt>
      <trkpt lat="46.74625" lon="6.60655">
        <ele>436</ele>
        <time>2022-09-29T08:49:04Z</time>
      </trkpt>
      <trkpt lat="46.74627" lon="6.6066">
        <ele>436</ele>
        <time>2022-09-29T08:49:05Z</time>
      </trkpt>
      <trkpt lat="46.74628" lon="6.60661">
        <ele>436.1</ele>
        <time>2022-09-29T08:49:06Z</time>
      </trkpt>
      <trkpt lat="46.7463" lon="6.60666">
        <ele>436.2</ele>
        <time>2022-09-29T08:49:07Z</time>
      </trkpt>
      <trkpt lat="46.7463" lon="6.60668">
        <ele>436.2</ele>
        <time>2022-09-29T08:49:08Z</time>
      </trkpt>
      <trkpt lat="46.74633" lon="6.60672">
        <ele>436.3</ele>
        <time>2022-09-29T08:49:09Z</time>
      </trkpt>
      <trkpt lat="46.74634" lon="6.60674">
        <ele>436.3</ele>
        <time>2022-09-29T08:49:10Z</time>
      </trkpt>
      <trkpt lat="46.74636" lon="6.60678">
        <ele>436.4</ele>
        <time>2022-09-29T08:49:11Z</time>
      </trkpt>
      <trkpt lat="46.74636" lon="6.6068">
        <ele>436.5</ele>
        <time>2022-09-29T08:49:12Z</time>
      </trkpt>
      <trkpt lat="46.74639" lon="6.60684">
        <ele>436.6</ele>
        <time>2022-09-29T08:49:14Z</time>
      </trkpt>
      <trkpt lat="46.74639" lon="6.60686">
        <ele>436.7</ele>
        <time>2022-09-29T08:49:15Z</time>
      </trkpt>
      <trkpt lat="46.74642" lon="6.6069">
        <ele>436.8</ele>
        <time>2022-09-29T08:49:16Z</time>
      </trkpt>
      <trkpt lat="46.74643" lon="6.60691">
        <ele>436.9</ele>
        <time>2022-09-29T08:49:17Z</time>
      </trkpt>
      <trkpt lat="46.74645" lon="6.60696">
        <ele>437</ele>
        <time>2022-09-29T08:49:18Z</time>
      </trkpt>
      <trkpt lat="46.74647" lon="6.60697">
        <ele>437.1</ele>
        <time>2022-09-29T08:49:19Z</time>
      </trkpt>
      <trkpt lat="46.74649" lon="6.60701">
        <ele>437.3</ele>
        <time>2022-09-29T08:49:20Z</time>
      </trkpt>
      <trkpt lat="46.74649" lon="6.60703">
        <ele>437.3</ele>
        <time>2022-09-29T08:49:21Z</time>
      </trkpt>
      <trkpt lat="46.74651" lon="6.60706">
        <ele>437.5</ele>
        <time>2022-09-29T08:49:22Z</time>
      </trkpt>
      <trkpt lat="46.74653" lon="6.60709">
        <ele>437.6</ele>
        <time>2022-09-29T08:49:23Z</time>
      </trkpt>
      <trkpt lat="46.74655" lon="6.60713">
        <ele>437.8</ele>
        <time>2022-09-29T08:49:24Z</time>
      </trkpt>
      <trkpt lat="46.74656" lon="6.60715">
        <ele>437.8</ele>
        <time>2022-09-29T08:49:25Z</time>
      </trkpt>
      <trkpt lat="46.74658" lon="6.60719">
        <ele>438</ele>
        <time>2022-09-29T08:49:26Z</time>
      </trkpt>
      <trkpt lat="46.7466" lon="6.60721">
        <ele>438.1</ele>
        <time>2022-09-29T08:49:27Z</time>
      </trkpt>
      <trkpt lat="46.74662" lon="6.60725">
        <ele>438.3</ele>
        <time>2022-09-29T08:49:28Z</time>
      </trkpt>
      <trkpt lat="46.74663" lon="6.60726">
        <ele>438.3</ele>
        <time>2022-09-29T08:49:29Z</time>
      </trkpt>
      <trkpt lat="46.74665" lon="6.6073">
        <ele>438.5</ele>
        <time>2022-09-29T08:49:30Z</time>
      </trkpt>
      <trkpt lat="46.74666" lon="6.60731">
        <ele>438.5</ele>
        <time>2022-09-29T08:49:31Z</time>
      </trkpt>
      <trkpt lat="46.74669" lon="6.60736">
        <ele>438.6</ele>
        <time>2022-09-29T08:49:32Z</time>
      </trkpt>
      <trkpt lat="46.74669" lon="6.60738">
        <ele>438.7</ele>
        <time>2022-09-29T08:49:33Z</time>
      </trkpt>
      <trkpt lat="46.74672" lon="6.60741">
        <ele>438.8</ele>
        <time>2022-09-29T08:49:34Z</time>
      </trkpt>
      <trkpt lat="46.74673" lon="6.60743">
        <ele>438.9</ele>
        <time>2022-09-29T08:49:35Z</time>
      </trkpt>
      <trkpt lat="46.74675" lon="6.60746">
        <ele>438.9</ele>
        <time>2022-09-29T08:49:36Z</time>
      </trkpt>
      <trkpt lat="46.74676" lon="6.60748">
        <ele>438.9</ele>
        <time>2022-09-29T08:49:37Z</time>
      </trkpt>
      <trkpt lat="46.74677" lon="6.60752">
        <ele>439</ele>
        <time>2022-09-29T08:49:38Z</time>
      </trkpt>
      <trkpt lat="46.74679" lon="6.60755">
        <ele>439</ele>
        <time>2022-09-29T08:49:39Z</time>
      </trkpt>
      <trkpt lat="46.74682" lon="6.60759">
        <ele>439.1</ele>
        <time>2022-09-29T08:49:40Z</time>
      </trkpt>
      <trkpt lat="46.74683" lon="6.6076">
        <ele>439.1</ele>
        <time>2022-09-29T08:49:41Z</time>
      </trkpt>
      <trkpt lat="46.74685" lon="6.60764">
        <ele>439.1</ele>
        <time>2022-09-29T08:49:42Z</time>
      </trkpt>
      <trkpt lat="46.74685" lon="6.60766">
        <ele>439.2</ele>
        <time>2022-09-29T08:49:43Z</time>
      </trkpt>
      <trkpt lat="46.74689" lon="6.60772">
        <ele>439.2</ele>
        <time>2022-09-29T08:49:44Z</time>
      </trkpt>
      <trkpt lat="46.74692" lon="6.60776">
        <ele>439.2</ele>
        <time>2022-09-29T08:49:45Z</time>
      </trkpt>
      <trkpt lat="46.74693" lon="6.60778">
        <ele>439.2</ele>
        <time>2022-09-29T08:49:46Z</time>
      </trkpt>
      <trkpt lat="46.74696" lon="6.60781">
        <ele>439.2</ele>
        <time>2022-09-29T08:49:47Z</time>
      </trkpt>
      <trkpt lat="46.74697" lon="6.60783">
        <ele>439.2</ele>
        <time>2022-09-29T08:49:48Z</time>
      </trkpt>
      <trkpt lat="46.74699" lon="6.60786">
        <ele>439.2</ele>
        <time>2022-09-29T08:49:49Z</time>
      </trkpt>
      <trkpt lat="46.747" lon="6.60787">
        <ele>439.2</ele>
        <time>2022-09-29T08:49:50Z</time>
      </trkpt>
      <trkpt lat="46.74703" lon="6.60789">
        <ele>439.2</ele>
        <time>2022-09-29T08:49:51Z</time>
      </trkpt>
      <trkpt lat="46.74704" lon="6.6079">
        <ele>439.2</ele>
        <time>2022-09-29T08:49:52Z</time>
      </trkpt>
      <trkpt lat="46.74707" lon="6.60792">
        <ele>439.2</ele>
        <time>2022-09-29T08:49:53Z</time>
      </trkpt>
      <trkpt lat="46.74708" lon="6.60793">
        <ele>439.2</ele>
        <time>2022-09-29T08:49:54Z</time>
      </trkpt>
      <trkpt lat="46.74712" lon="6.60797">
        <ele>439.2</ele>
        <time>2022-09-29T08:49:55Z</time>
      </trkpt>
      <trkpt lat="46.74713" lon="6.60799">
        <ele>439.2</ele>
        <time>2022-09-29T08:49:56Z</time>
      </trkpt>
      <trkpt lat="46.74715" lon="6.60803">
        <ele>439.2</ele>
        <time>2022-09-29T08:49:57Z</time>
      </trkpt>
      <trkpt lat="46.74718" lon="6.60807">
        <ele>439.1</ele>
        <time>2022-09-29T08:49:58Z</time>
      </trkpt>
      <trkpt lat="46.7472" lon="6.60812">
        <ele>439.1</ele>
        <time>2022-09-29T08:49:59Z</time>
      </trkpt>
      <trkpt lat="46.74723" lon="6.60816">
        <ele>439</ele>
        <time>2022-09-29T08:50:00Z</time>
      </trkpt>
      <trkpt lat="46.74725" lon="6.60821">
        <ele>439</ele>
        <time>2022-09-29T08:50:01Z</time>
      </trkpt>
      <trkpt lat="46.74727" lon="6.60826">
        <ele>438.9</ele>
        <time>2022-09-29T08:50:02Z</time>
      </trkpt>
      <trkpt lat="46.7473" lon="6.6083">
        <ele>438.9</ele>
        <time>2022-09-29T08:50:03Z</time>
      </trkpt>
      <trkpt lat="46.74733" lon="6.60835">
        <ele>438.8</ele>
        <time>2022-09-29T08:50:04Z</time>
      </trkpt>
      <trkpt lat="46.74737" lon="6.60839">
        <ele>438.8</ele>
        <time>2022-09-29T08:50:05Z</time>
      </trkpt>
      <trkpt lat="46.7474" lon="6.60846">
        <ele>438.7</ele>
        <time>2022-09-29T08:50:06Z</time>
      </trkpt>
      <trkpt lat="46.74743" lon="6.60851">
        <ele>438.7</ele>
        <time>2022-09-29T08:50:07Z</time>
      </trkpt>
      <trkpt lat="46.74746" lon="6.60857">
        <ele>438.6</ele>
        <time>2022-09-29T08:50:08Z</time>
      </trkpt>
      <trkpt lat="46.7475" lon="6.60864">
        <ele>438.5</ele>
        <time>2022-09-29T08:50:09Z</time>
      </trkpt>
      <trkpt lat="46.74753" lon="6.6087">
        <ele>438.3</ele>
        <time>2022-09-29T08:50:10Z</time>
      </trkpt>
      <trkpt lat="46.74756" lon="6.60876">
        <ele>438.2</ele>
        <time>2022-09-29T08:50:11Z</time>
      </trkpt>
      <trkpt lat="46.7476" lon="6.60883">
        <ele>438.1</ele>
        <time>2022-09-29T08:50:12Z</time>
      </trkpt>
      <trkpt lat="46.74763" lon="6.60888">
        <ele>438</ele>
        <time>2022-09-29T08:50:13Z</time>
      </trkpt>
      <trkpt lat="46.74766" lon="6.60893">
        <ele>437.9</ele>
        <time>2022-09-29T08:50:14Z</time>
      </trkpt>
      <trkpt lat="46.7477" lon="6.60898">
        <ele>437.8</ele>
        <time>2022-09-29T08:50:15Z</time>
      </trkpt>
      <trkpt lat="46.74774" lon="6.60904">
        <ele>437.7</ele>
        <time>2022-09-29T08:50:16Z</time>
      </trkpt>
      <trkpt lat="46.74777" lon="6.60909">
        <ele>437.7</ele>
        <time>2022-09-29T08:50:17Z</time>
      </trkpt>
      <trkpt lat="46.7478" lon="6.60914">
        <ele>437.6</ele>
        <time>2022-09-29T08:50:18Z</time>
      </trkpt>
      <trkpt lat="46.74782" lon="6.60918">
        <ele>437.6</ele>
        <time>2022-09-29T08:50:19Z</time>
      </trkpt>
      <trkpt lat="46.74785" lon="6.60923">
        <ele>437.5</ele>
        <time>2022-09-29T08:50:20Z</time>
      </trkpt>
      <trkpt lat="46.74787" lon="6.60929">
        <ele>437.5</ele>
        <time>2022-09-29T08:50:21Z</time>
      </trkpt>
      <trkpt lat="46.7479" lon="6.60932">
        <ele>437.4</ele>
        <time>2022-09-29T08:50:22Z</time>
      </trkpt>
      <trkpt lat="46.74792" lon="6.60939">
        <ele>437.4</ele>
        <time>2022-09-29T08:50:23Z</time>
      </trkpt>
      <trkpt lat="46.74796" lon="6.60946">
        <ele>437.3</ele>
        <time>2022-09-29T08:50:24Z</time>
      </trkpt>
      <trkpt lat="46.74798" lon="6.60953">
        <ele>437.3</ele>
        <time>2022-09-29T08:50:25Z</time>
      </trkpt>
      <trkpt lat="46.748" lon="6.60959">
        <ele>437.2</ele>
        <time>2022-09-29T08:50:26Z</time>
      </trkpt>
      <trkpt lat="46.74802" lon="6.60965">
        <ele>437.2</ele>
        <time>2022-09-29T08:50:27Z</time>
      </trkpt>
      <trkpt lat="46.74804" lon="6.60973">
        <ele>437.1</ele>
        <time>2022-09-29T08:50:28Z</time>
      </trkpt>
      <trkpt lat="46.74806" lon="6.6098">
        <ele>437</ele>
        <time>2022-09-29T08:50:29Z</time>
      </trkpt>
      <trkpt lat="46.74808" lon="6.60987">
        <ele>436.9</ele>
        <time>2022-09-29T08:50:30Z</time>
      </trkpt>
      <trkpt lat="46.74811" lon="6.60994">
        <ele>436.9</ele>
        <time>2022-09-29T08:50:31Z</time>
      </trkpt>
      <trkpt lat="46.74814" lon="6.61001">
        <ele>436.8</ele>
        <time>2022-09-29T08:50:32Z</time>
      </trkpt>
      <trkpt lat="46.74816" lon="6.61008">
        <ele>436.7</ele>
        <time>2022-09-29T08:50:33Z</time>
      </trkpt>
      <trkpt lat="46.74819" lon="6.61014">
        <ele>436.6</ele>
        <time>2022-09-29T08:50:34Z</time>
      </trkpt>
      <trkpt lat="46.74822" lon="6.61021">
        <ele>436.5</ele>
        <time>2022-09-29T08:50:35Z</time>
      </trkpt>
      <trkpt lat="46.74825" lon="6.61027">
        <ele>436.4</ele>
        <time>2022-09-29T08:50:36Z</time>
      </trkpt>
      <trkpt lat="46.74828" lon="6.61034">
        <ele>436.3</ele>
        <time>2022-09-29T08:50:37Z</time>
      </trkpt>
      <trkpt lat="46.74832" lon="6.61041">
        <ele>436.2</ele>
        <time>2022-09-29T08:50:38Z</time>
      </trkpt>
      <trkpt lat="46.74835" lon="6.61046">
        <ele>436.1</ele>
        <time>2022-09-29T08:50:39Z</time>
      </trkpt>
      <trkpt lat="46.74839" lon="6.61053">
        <ele>436</ele>
        <time>2022-09-29T08:50:40Z</time>
      </trkpt>
      <trkpt lat="46.74843" lon="6.6106">
        <ele>435.9</ele>
        <time>2022-09-29T08:50:41Z</time>
      </trkpt>
      <trkpt lat="46.74847" lon="6.61066">
        <ele>435.8</ele>
        <time>2022-09-29T08:50:42Z</time>
      </trkpt>
      <trkpt lat="46.7485" lon="6.61072">
        <ele>435.7</ele>
        <time>2022-09-29T08:50:43Z</time>
      </trkpt>
      <trkpt lat="46.74854" lon="6.61079">
        <ele>435.7</ele>
        <time>2022-09-29T08:50:44Z</time>
      </trkpt>
      <trkpt lat="46.74858" lon="6.61086">
        <ele>435.6</ele>
        <time>2022-09-29T08:50:45Z</time>
      </trkpt>
      <trkpt lat="46.74861" lon="6.61092">
        <ele>435.6</ele>
        <time>2022-09-29T08:50:46Z</time>
      </trkpt>
      <trkpt lat="46.74865" lon="6.61099">
        <ele>435.5</ele>
        <time>2022-09-29T08:50:47Z</time>
      </trkpt>
      <trkpt lat="46.74868" lon="6.61104">
        <ele>435.5</ele>
        <time>2022-09-29T08:50:48Z</time>
      </trkpt>
      <trkpt lat="46.74871" lon="6.61112">
        <ele>435.5</ele>
        <time>2022-09-29T08:50:49Z</time>
      </trkpt>
      <trkpt lat="46.74875" lon="6.61117">
        <ele>435.5</ele>
        <time>2022-09-29T08:50:50Z</time>
      </trkpt>
      <trkpt lat="46.74878" lon="6.61124">
        <ele>435.4</ele>
        <time>2022-09-29T08:50:51Z</time>
      </trkpt>
      <trkpt lat="46.74882" lon="6.6113">
        <ele>435.4</ele>
        <time>2022-09-29T08:50:52Z</time>
      </trkpt>
      <trkpt lat="46.74886" lon="6.61136">
        <ele>435.4</ele>
        <time>2022-09-29T08:50:53Z</time>
      </trkpt>
      <trkpt lat="46.74889" lon="6.61142">
        <ele>435.4</ele>
        <time>2022-09-29T08:50:54Z</time>
      </trkpt>
      <trkpt lat="46.74893" lon="6.61149">
        <ele>435.4</ele>
        <time>2022-09-29T08:50:55Z</time>
      </trkpt>
      <trkpt lat="46.74897" lon="6.61155">
        <ele>435.4</ele>
        <time>2022-09-29T08:50:56Z</time>
      </trkpt>
      <trkpt lat="46.749" lon="6.61161">
        <ele>435.4</ele>
        <time>2022-09-29T08:50:57Z</time>
      </trkpt>
      <trkpt lat="46.74904" lon="6.61166">
        <ele>435.4</ele>
        <time>2022-09-29T08:50:58Z</time>
      </trkpt>
      <trkpt lat="46.74907" lon="6.61172">
        <ele>435.4</ele>
        <time>2022-09-29T08:50:59Z</time>
      </trkpt>
      <trkpt lat="46.74911" lon="6.61179">
        <ele>435.4</ele>
        <time>2022-09-29T08:51:00Z</time>
      </trkpt>
      <trkpt lat="46.74914" lon="6.61184">
        <ele>435.3</ele>
        <time>2022-09-29T08:51:01Z</time>
      </trkpt>
      <trkpt lat="46.74918" lon="6.61191">
        <ele>435.3</ele>
        <time>2022-09-29T08:51:02Z</time>
      </trkpt>
      <trkpt lat="46.74921" lon="6.61198">
        <ele>435.3</ele>
        <time>2022-09-29T08:51:03Z</time>
      </trkpt>
      <trkpt lat="46.74925" lon="6.61203">
        <ele>435.2</ele>
        <time>2022-09-29T08:51:04Z</time>
      </trkpt>
      <trkpt lat="46.74929" lon="6.61209">
        <ele>435.2</ele>
        <time>2022-09-29T08:51:05Z</time>
      </trkpt>
      <trkpt lat="46.74932" lon="6.61216">
        <ele>435.2</ele>
        <time>2022-09-29T08:51:06Z</time>
      </trkpt>
      <trkpt lat="46.74936" lon="6.61222">
        <ele>435.1</ele>
        <time>2022-09-29T08:51:07Z</time>
      </trkpt>
      <trkpt lat="46.7494" lon="6.61228">
        <ele>435.1</ele>
        <time>2022-09-29T08:51:08Z</time>
      </trkpt>
      <trkpt lat="46.74943" lon="6.61234">
        <ele>435.1</ele>
        <time>2022-09-29T08:51:09Z</time>
      </trkpt>
      <trkpt lat="46.74947" lon="6.6124">
        <ele>435.1</ele>
        <time>2022-09-29T08:51:10Z</time>
      </trkpt>
      <trkpt lat="46.74951" lon="6.61246">
        <ele>435.1</ele>
        <time>2022-09-29T08:51:11Z</time>
      </trkpt>
      <trkpt lat="46.74954" lon="6.61253">
        <ele>435</ele>
        <time>2022-09-29T08:51:12Z</time>
      </trkpt>
      <trkpt lat="46.74957" lon="6.61259">
        <ele>434.9</ele>
        <time>2022-09-29T08:51:13Z</time>
      </trkpt>
      <trkpt lat="46.74961" lon="6.61266">
        <ele>434.9</ele>
        <time>2022-09-29T08:51:14Z</time>
      </trkpt>
      <trkpt lat="46.74964" lon="6.61271">
        <ele>434.8</ele>
        <time>2022-09-29T08:51:15Z</time>
      </trkpt>
      <trkpt lat="46.74968" lon="6.61277">
        <ele>434.8</ele>
        <time>2022-09-29T08:51:16Z</time>
      </trkpt>
      <trkpt lat="46.7497" lon="6.61282">
        <ele>434.8</ele>
        <time>2022-09-29T08:51:17Z</time>
      </trkpt>
      <trkpt lat="46.74974" lon="6.61289">
        <ele>434.7</ele>
        <time>2022-09-29T08:51:18Z</time>
      </trkpt>
      <trkpt lat="46.74977" lon="6.61295">
        <ele>434.7</ele>
        <time>2022-09-29T08:51:20Z</time>
      </trkpt>
      <trkpt lat="46.74981" lon="6.613">
        <ele>434.7</ele>
        <time>2022-09-29T08:51:21Z</time>
      </trkpt>
      <trkpt lat="46.74985" lon="6.61307">
        <ele>434.6</ele>
        <time>2022-09-29T08:51:22Z</time>
      </trkpt>
      <trkpt lat="46.74989" lon="6.6131">
        <ele>434.6</ele>
        <time>2022-09-29T08:51:23Z</time>
      </trkpt>
      <trkpt lat="46.74993" lon="6.61316">
        <ele>434.5</ele>
        <time>2022-09-29T08:51:24Z</time>
      </trkpt>
      <trkpt lat="46.74997" lon="6.61321">
        <ele>434.5</ele>
        <time>2022-09-29T08:51:25Z</time>
      </trkpt>
      <trkpt lat="46.75001" lon="6.61327">
        <ele>434.5</ele>
        <time>2022-09-29T08:51:26Z</time>
      </trkpt>
      <trkpt lat="46.75004" lon="6.61333">
        <ele>434.4</ele>
        <time>2022-09-29T08:51:27Z</time>
      </trkpt>
      <trkpt lat="46.75008" lon="6.6134">
        <ele>434.4</ele>
        <time>2022-09-29T08:51:28Z</time>
      </trkpt>
      <trkpt lat="46.75011" lon="6.61345">
        <ele>434.4</ele>
        <time>2022-09-29T08:51:29Z</time>
      </trkpt>
      <trkpt lat="46.75014" lon="6.61352">
        <ele>434.3</ele>
        <time>2022-09-29T08:51:30Z</time>
      </trkpt>
      <trkpt lat="46.75018" lon="6.61357">
        <ele>434.2</ele>
        <time>2022-09-29T08:51:31Z</time>
      </trkpt>
      <trkpt lat="46.75021" lon="6.61365">
        <ele>434.1</ele>
        <time>2022-09-29T08:51:32Z</time>
      </trkpt>
      <trkpt lat="46.75024" lon="6.61372">
        <ele>434.1</ele>
        <time>2022-09-29T08:51:33Z</time>
      </trkpt>
      <trkpt lat="46.75027" lon="6.61379">
        <ele>434</ele>
        <time>2022-09-29T08:51:34Z</time>
      </trkpt>
      <trkpt lat="46.7503" lon="6.61386">
        <ele>434</ele>
        <time>2022-09-29T08:51:35Z</time>
      </trkpt>
      <trkpt lat="46.75033" lon="6.61391">
        <ele>434</ele>
        <time>2022-09-29T08:51:36Z</time>
      </trkpt>
      <trkpt lat="46.75036" lon="6.61397">
        <ele>433.9</ele>
        <time>2022-09-29T08:51:37Z</time>
      </trkpt>
      <trkpt lat="46.7504" lon="6.61404">
        <ele>433.9</ele>
        <time>2022-09-29T08:51:38Z</time>
      </trkpt>
      <trkpt lat="46.75044" lon="6.6141">
        <ele>433.9</ele>
        <time>2022-09-29T08:51:39Z</time>
      </trkpt>
      <trkpt lat="46.75047" lon="6.61416">
        <ele>433.9</ele>
        <time>2022-09-29T08:51:40Z</time>
      </trkpt>
      <trkpt lat="46.7505" lon="6.61422">
        <ele>433.8</ele>
        <time>2022-09-29T08:51:41Z</time>
      </trkpt>
      <trkpt lat="46.75055" lon="6.61429">
        <ele>433.8</ele>
        <time>2022-09-29T08:51:42Z</time>
      </trkpt>
      <trkpt lat="46.75058" lon="6.61435">
        <ele>433.8</ele>
        <time>2022-09-29T08:51:43Z</time>
      </trkpt>
      <trkpt lat="46.75062" lon="6.61441">
        <ele>433.8</ele>
        <time>2022-09-29T08:51:44Z</time>
      </trkpt>
      <trkpt lat="46.75066" lon="6.61447">
        <ele>433.7</ele>
        <time>2022-09-29T08:51:45Z</time>
      </trkpt>
      <trkpt lat="46.7507" lon="6.61453">
        <ele>433.7</ele>
        <time>2022-09-29T08:51:46Z</time>
      </trkpt>
      <trkpt lat="46.75073" lon="6.6146">
        <ele>433.7</ele>
        <time>2022-09-29T08:51:47Z</time>
      </trkpt>
      <trkpt lat="46.75076" lon="6.61466">
        <ele>433.7</ele>
        <time>2022-09-29T08:51:48Z</time>
      </trkpt>
      <trkpt lat="46.75079" lon="6.61472">
        <ele>433.7</ele>
        <time>2022-09-29T08:51:49Z</time>
      </trkpt>
      <trkpt lat="46.75083" lon="6.61478">
        <ele>433.7</ele>
        <time>2022-09-29T08:51:50Z</time>
      </trkpt>
      <trkpt lat="46.75087" lon="6.61485">
        <ele>433.6</ele>
        <time>2022-09-29T08:51:51Z</time>
      </trkpt>
      <trkpt lat="46.7509" lon="6.61491">
        <ele>433.6</ele>
        <time>2022-09-29T08:51:52Z</time>
      </trkpt>
      <trkpt lat="46.75094" lon="6.61497">
        <ele>433.6</ele>
        <time>2022-09-29T08:51:53Z</time>
      </trkpt>
      <trkpt lat="46.75097" lon="6.61504">
        <ele>433.6</ele>
        <time>2022-09-29T08:51:54Z</time>
      </trkpt>
      <trkpt lat="46.751" lon="6.6151">
        <ele>433.6</ele>
        <time>2022-09-29T08:51:55Z</time>
      </trkpt>
      <trkpt lat="46.75107" lon="6.61522">
        <ele>433.6</ele>
        <time>2022-09-29T08:51:56Z</time>
      </trkpt>
      <trkpt lat="46.7511" lon="6.61528">
        <ele>433.6</ele>
        <time>2022-09-29T08:51:57Z</time>
      </trkpt>
      <trkpt lat="46.75114" lon="6.61534">
        <ele>433.6</ele>
        <time>2022-09-29T08:51:58Z</time>
      </trkpt>
      <trkpt lat="46.75117" lon="6.6154">
        <ele>433.6</ele>
        <time>2022-09-29T08:51:59Z</time>
      </trkpt>
      <trkpt lat="46.75121" lon="6.61546">
        <ele>433.6</ele>
        <time>2022-09-29T08:52:00Z</time>
      </trkpt>
      <trkpt lat="46.75124" lon="6.61552">
        <ele>433.6</ele>
        <time>2022-09-29T08:52:01Z</time>
      </trkpt>
      <trkpt lat="46.75127" lon="6.61558">
        <ele>433.6</ele>
        <time>2022-09-29T08:52:02Z</time>
      </trkpt>
      <trkpt lat="46.7513" lon="6.61564">
        <ele>433.6</ele>
        <time>2022-09-29T08:52:03Z</time>
      </trkpt>
      <trkpt lat="46.75134" lon="6.6157">
        <ele>433.5</ele>
        <time>2022-09-29T08:52:04Z</time>
      </trkpt>
      <trkpt lat="46.75137" lon="6.61576">
        <ele>433.5</ele>
        <time>2022-09-29T08:52:05Z</time>
      </trkpt>
      <trkpt lat="46.75141" lon="6.61582">
        <ele>433.5</ele>
        <time>2022-09-29T08:52:06Z</time>
      </trkpt>
      <trkpt lat="46.75144" lon="6.61589">
        <ele>433.5</ele>
        <time>2022-09-29T08:52:07Z</time>
      </trkpt>
      <trkpt lat="46.75148" lon="6.61595">
        <ele>433.5</ele>
        <time>2022-09-29T08:52:08Z</time>
      </trkpt>
      <trkpt lat="46.75151" lon="6.61601">
        <ele>433.6</ele>
        <time>2022-09-29T08:52:09Z</time>
      </trkpt>
      <trkpt lat="46.75155" lon="6.61607">
        <ele>433.6</ele>
        <time>2022-09-29T08:52:10Z</time>
      </trkpt>
      <trkpt lat="46.75158" lon="6.61612">
        <ele>433.6</ele>
        <time>2022-09-29T08:52:11Z</time>
      </trkpt>
      <trkpt lat="46.75162" lon="6.61618">
        <ele>433.6</ele>
        <time>2022-09-29T08:52:12Z</time>
      </trkpt>
      <trkpt lat="46.75165" lon="6.61624">
        <ele>433.6</ele>
        <time>2022-09-29T08:52:13Z</time>
      </trkpt>
      <trkpt lat="46.75168" lon="6.6163">
        <ele>433.7</ele>
        <time>2022-09-29T08:52:14Z</time>
      </trkpt>
      <trkpt lat="46.75171" lon="6.61636">
        <ele>433.7</ele>
        <time>2022-09-29T08:52:15Z</time>
      </trkpt>
      <trkpt lat="46.75175" lon="6.61641">
        <ele>433.7</ele>
        <time>2022-09-29T08:52:16Z</time>
      </trkpt>
      <trkpt lat="46.75178" lon="6.61647">
        <ele>433.7</ele>
        <time>2022-09-29T08:52:17Z</time>
      </trkpt>
      <trkpt lat="46.75181" lon="6.61653">
        <ele>433.7</ele>
        <time>2022-09-29T08:52:18Z</time>
      </trkpt>
      <trkpt lat="46.75185" lon="6.61658">
        <ele>433.7</ele>
        <time>2022-09-29T08:52:19Z</time>
      </trkpt>
      <trkpt lat="46.75188" lon="6.61664">
        <ele>433.8</ele>
        <time>2022-09-29T08:52:20Z</time>
      </trkpt>
      <trkpt lat="46.7519" lon="6.61669">
        <ele>433.8</ele>
        <time>2022-09-29T08:52:21Z</time>
      </trkpt>
      <trkpt lat="46.75194" lon="6.61674">
        <ele>433.8</ele>
        <time>2022-09-29T08:52:22Z</time>
      </trkpt>
      <trkpt lat="46.75197" lon="6.6168">
        <ele>433.8</ele>
        <time>2022-09-29T08:52:23Z</time>
      </trkpt>
      <trkpt lat="46.752" lon="6.61685">
        <ele>433.8</ele>
        <time>2022-09-29T08:52:24Z</time>
      </trkpt>
      <trkpt lat="46.75203" lon="6.6169">
        <ele>433.8</ele>
        <time>2022-09-29T08:52:25Z</time>
      </trkpt>
      <trkpt lat="46.75205" lon="6.61695">
        <ele>433.8</ele>
        <time>2022-09-29T08:52:26Z</time>
      </trkpt>
      <trkpt lat="46.75208" lon="6.61699">
        <ele>433.8</ele>
        <time>2022-09-29T08:52:27Z</time>
      </trkpt>
      <trkpt lat="46.7521" lon="6.61703">
        <ele>433.8</ele>
        <time>2022-09-29T08:52:28Z</time>
      </trkpt>
      <trkpt lat="46.75212" lon="6.61707">
        <ele>433.9</ele>
        <time>2022-09-29T08:52:29Z</time>
      </trkpt>
      <trkpt lat="46.75213" lon="6.61708">
        <ele>433.9</ele>
        <time>2022-09-29T08:52:30Z</time>
      </trkpt>
      <trkpt lat="46.75215" lon="6.61712">
        <ele>433.9</ele>
        <time>2022-09-29T08:52:31Z</time>
      </trkpt>
      <trkpt lat="46.75215" lon="6.61714">
        <ele>433.9</ele>
        <time>2022-09-29T08:52:32Z</time>
      </trkpt>
      <trkpt lat="46.75218" lon="6.61718">
        <ele>433.9</ele>
        <time>2022-09-29T08:52:33Z</time>
      </trkpt>
      <trkpt lat="46.75219" lon="6.61719">
        <ele>433.9</ele>
        <time>2022-09-29T08:52:34Z</time>
      </trkpt>
      <trkpt lat="46.75221" lon="6.61723">
        <ele>433.9</ele>
        <time>2022-09-29T08:52:35Z</time>
      </trkpt>
      <trkpt lat="46.75223" lon="6.61726">
        <ele>433.9</ele>
        <time>2022-09-29T08:52:36Z</time>
      </trkpt>
      <trkpt lat="46.75225" lon="6.61729">
        <ele>433.9</ele>
        <time>2022-09-29T08:52:37Z</time>
      </trkpt>
      <trkpt lat="46.75227" lon="6.61733">
        <ele>433.9</ele>
        <time>2022-09-29T08:52:38Z</time>
      </trkpt>
      <trkpt lat="46.75229" lon="6.61737">
        <ele>433.9</ele>
        <time>2022-09-29T08:52:39Z</time>
      </trkpt>
      <trkpt lat="46.75232" lon="6.61741">
        <ele>433.9</ele>
        <time>2022-09-29T08:52:40Z</time>
      </trkpt>
      <trkpt lat="46.75234" lon="6.61745">
        <ele>434</ele>
        <time>2022-09-29T08:52:41Z</time>
      </trkpt>
      <trkpt lat="46.75236" lon="6.61748">
        <ele>434</ele>
        <time>2022-09-29T08:52:42Z</time>
      </trkpt>
      <trkpt lat="46.75239" lon="6.61753">
        <ele>434</ele>
        <time>2022-09-29T08:52:43Z</time>
      </trkpt>
      <trkpt lat="46.75241" lon="6.61757">
        <ele>434</ele>
        <time>2022-09-29T08:52:44Z</time>
      </trkpt>
      <trkpt lat="46.75244" lon="6.61761">
        <ele>434.1</ele>
        <time>2022-09-29T08:52:45Z</time>
      </trkpt>
      <trkpt lat="46.75246" lon="6.61766">
        <ele>434.1</ele>
        <time>2022-09-29T08:52:46Z</time>
      </trkpt>
      <trkpt lat="46.75249" lon="6.6177">
        <ele>434.1</ele>
        <time>2022-09-29T08:52:47Z</time>
      </trkpt>
      <trkpt lat="46.75251" lon="6.61775">
        <ele>434.1</ele>
        <time>2022-09-29T08:52:48Z</time>
      </trkpt>
      <trkpt lat="46.75254" lon="6.6178">
        <ele>434.1</ele>
        <time>2022-09-29T08:52:49Z</time>
      </trkpt>
      <trkpt lat="46.75256" lon="6.61785">
        <ele>434.1</ele>
        <time>2022-09-29T08:52:50Z</time>
      </trkpt>
      <trkpt lat="46.75258" lon="6.61789">
        <ele>434.1</ele>
        <time>2022-09-29T08:52:51Z</time>
      </trkpt>
      <trkpt lat="46.75261" lon="6.61793">
        <ele>434.2</ele>
        <time>2022-09-29T08:52:52Z</time>
      </trkpt>
      <trkpt lat="46.75263" lon="6.61798">
        <ele>434.2</ele>
        <time>2022-09-29T08:52:53Z</time>
      </trkpt>
      <trkpt lat="46.75266" lon="6.61802">
        <ele>434.2</ele>
        <time>2022-09-29T08:52:54Z</time>
      </trkpt>
      <trkpt lat="46.75268" lon="6.61807">
        <ele>434.2</ele>
        <time>2022-09-29T08:52:55Z</time>
      </trkpt>
      <trkpt lat="46.75271" lon="6.61811">
        <ele>434.2</ele>
        <time>2022-09-29T08:52:56Z</time>
      </trkpt>
      <trkpt lat="46.75273" lon="6.61815">
        <ele>434.2</ele>
        <time>2022-09-29T08:52:57Z</time>
      </trkpt>
      <trkpt lat="46.75276" lon="6.61819">
        <ele>434.2</ele>
        <time>2022-09-29T08:52:58Z</time>
      </trkpt>
      <trkpt lat="46.75279" lon="6.61824">
        <ele>434.2</ele>
        <time>2022-09-29T08:52:59Z</time>
      </trkpt>
      <trkpt lat="46.75282" lon="6.61828">
        <ele>434.3</ele>
        <time>2022-09-29T08:53:00Z</time>
      </trkpt>
      <trkpt lat="46.75284" lon="6.61833">
        <ele>434.3</ele>
        <time>2022-09-29T08:53:01Z</time>
      </trkpt>
      <trkpt lat="46.75286" lon="6.61837">
        <ele>434.3</ele>
        <time>2022-09-29T08:53:02Z</time>
      </trkpt>
      <trkpt lat="46.75289" lon="6.61842">
        <ele>434.3</ele>
        <time>2022-09-29T08:53:03Z</time>
      </trkpt>
      <trkpt lat="46.75292" lon="6.61846">
        <ele>434.3</ele>
        <time>2022-09-29T08:53:04Z</time>
      </trkpt>
      <trkpt lat="46.75294" lon="6.61851">
        <ele>434.4</ele>
        <time>2022-09-29T08:53:05Z</time>
      </trkpt>
      <trkpt lat="46.75297" lon="6.61855">
        <ele>434.4</ele>
        <time>2022-09-29T08:53:06Z</time>
      </trkpt>
      <trkpt lat="46.753" lon="6.6186">
        <ele>434.4</ele>
        <time>2022-09-29T08:53:07Z</time>
      </trkpt>
      <trkpt lat="46.75303" lon="6.61866">
        <ele>434.4</ele>
        <time>2022-09-29T08:53:08Z</time>
      </trkpt>
      <trkpt lat="46.75305" lon="6.6187">
        <ele>434.4</ele>
        <time>2022-09-29T08:53:09Z</time>
      </trkpt>
      <trkpt lat="46.75308" lon="6.61875">
        <ele>434.4</ele>
        <time>2022-09-29T08:53:10Z</time>
      </trkpt>
      <trkpt lat="46.7531" lon="6.61879">
        <ele>434.4</ele>
        <time>2022-09-29T08:53:11Z</time>
      </trkpt>
      <trkpt lat="46.75313" lon="6.61884">
        <ele>434.4</ele>
        <time>2022-09-29T08:53:12Z</time>
      </trkpt>
      <trkpt lat="46.75315" lon="6.61888">
        <ele>434.5</ele>
        <time>2022-09-29T08:53:13Z</time>
      </trkpt>
      <trkpt lat="46.75317" lon="6.61892">
        <ele>434.5</ele>
        <time>2022-09-29T08:53:14Z</time>
      </trkpt>
      <trkpt lat="46.7532" lon="6.61896">
        <ele>434.5</ele>
        <time>2022-09-29T08:53:15Z</time>
      </trkpt>
      <trkpt lat="46.75322" lon="6.619">
        <ele>434.5</ele>
        <time>2022-09-29T08:53:16Z</time>
      </trkpt>
      <trkpt lat="46.75324" lon="6.61904">
        <ele>434.6</ele>
        <time>2022-09-29T08:53:17Z</time>
      </trkpt>
      <trkpt lat="46.75326" lon="6.61907">
        <ele>434.6</ele>
        <time>2022-09-29T08:53:18Z</time>
      </trkpt>
      <trkpt lat="46.75328" lon="6.6191">
        <ele>434.6</ele>
        <time>2022-09-29T08:53:19Z</time>
      </trkpt>
      <trkpt lat="46.7533" lon="6.61913">
        <ele>434.6</ele>
        <time>2022-09-29T08:53:20Z</time>
      </trkpt>
      <trkpt lat="46.75332" lon="6.61917">
        <ele>434.6</ele>
        <time>2022-09-29T08:53:21Z</time>
      </trkpt>
      <trkpt lat="46.75332" lon="6.61918">
        <ele>434.6</ele>
        <time>2022-09-29T08:53:22Z</time>
      </trkpt>
      <trkpt lat="46.75334" lon="6.6192">
        <ele>434.6</ele>
        <time>2022-09-29T08:53:23Z</time>
      </trkpt>
      <trkpt lat="46.75334" lon="6.61921">
        <ele>434.6</ele>
        <time>2022-09-29T08:53:24Z</time>
      </trkpt>
      <trkpt lat="46.75334" lon="6.6192">
        <ele>434.6</ele>
        <time>2022-09-29T08:53:26Z</time>
      </trkpt>
      <trkpt lat="46.75334" lon="6.6192">
        <ele>434.6</ele>
        <time>2022-09-29T08:53:27Z</time>
      </trkpt>
      <trkpt lat="46.75334" lon="6.6192">
        <ele>434.6</ele>
        <time>2022-09-29T08:53:28Z</time>
      </trkpt>
      <trkpt lat="46.75334" lon="6.6192">
        <ele>434.6</ele>
        <time>2022-09-29T08:53:29Z</time>
      </trkpt>
      <trkpt lat="46.75334" lon="6.6192">
        <ele>434.6</ele>
        <time>2022-09-29T08:53:30Z</time>
      </trkpt>
      <trkpt lat="46.75333" lon="6.61921">
        <ele>434.6</ele>
        <time>2022-09-29T08:53:31Z</time>
      </trkpt>
      <trkpt lat="46.75333" lon="6.61921">
        <ele>434.6</ele>
        <time>2022-09-29T08:53:32Z</time>
      </trkpt>
      <trkpt lat="46.75333" lon="6.61921">
        <ele>434.6</ele>
        <time>2022-09-29T08:53:33Z</time>
      </trkpt>
      <trkpt lat="46.7533" lon="6.6192">
        <ele>434.6</ele>
        <time>2022-09-29T08:54:18Z</time>
      </trkpt>
      <trkpt lat="46.7533" lon="6.6192">
        <ele>434.6</ele>
        <time>2022-09-29T08:54:19Z</time>
      </trkpt>
      <trkpt lat="46.7533" lon="6.6192">
        <ele>434.6</ele>
        <time>2022-09-29T08:54:20Z</time>
      </trkpt>
      <trkpt lat="46.7533" lon="6.6192">
        <ele>434.6</ele>
        <time>2022-09-29T08:54:21Z</time>
      </trkpt>
      <trkpt lat="46.75334" lon="6.61921">
        <ele>434.6</ele>
        <time>2022-09-29T08:54:22Z</time>
      </trkpt>
      <trkpt lat="46.75334" lon="6.6192">
        <ele>434.6</ele>
        <time>2022-09-29T08:54:23Z</time>
      </trkpt>
      <trkpt lat="46.75334" lon="6.61921">
        <ele>434.6</ele>
        <time>2022-09-29T08:54:24Z</time>
      </trkpt>
      <trkpt lat="46.75333" lon="6.61921">
        <ele>434.6</ele>
        <time>2022-09-29T08:54:25Z</time>
      </trkpt>
      <trkpt lat="46.78237" lon="6.63506">
        <ele>436.1</ele>
        <time>2022-09-29T09:17:53Z</time>
      </trkpt>
      <trkpt lat="46.78237" lon="6.63505">
        <ele>436.1</ele>
        <time>2022-09-29T09:17:54Z</time>
      </trkpt>
      <trkpt lat="46.78237" lon="6.63506">
        <ele>436.1</ele>
        <time>2022-09-29T09:17:55Z</time>
      </trkpt>
      <trkpt lat="46.78237" lon="6.63508">
        <ele>436.1</ele>
        <time>2022-09-29T09:17:56Z</time>
      </trkpt>
      <trkpt lat="46.78236" lon="6.6351">
        <ele>436.1</ele>
        <time>2022-09-29T09:17:57Z</time>
      </trkpt>
      <trkpt lat="46.78236" lon="6.63511">
        <ele>436.1</ele>
        <time>2022-09-29T09:17:58Z</time>
      </trkpt>
      <trkpt lat="46.78236" lon="6.63511">
        <ele>436.1</ele>
        <time>2022-09-29T09:17:59Z</time>
      </trkpt>
      <trkpt lat="46.78235" lon="6.63511">
        <ele>436.1</ele>
        <time>2022-09-29T09:18:00Z</time>
      </trkpt>
      <trkpt lat="46.78235" lon="6.63512">
        <ele>436.1</ele>
        <time>2022-09-29T09:18:01Z</time>
      </trkpt>
      <trkpt lat="46.78234" lon="6.63512">
        <ele>436.1</ele>
        <time>2022-09-29T09:18:02Z</time>
      </trkpt>
      <trkpt lat="46.78234" lon="6.63512">
        <ele>436.1</ele>
        <time>2022-09-29T09:18:47Z</time>
      </trkpt>
      <trkpt lat="46.78234" lon="6.63513">
        <ele>436.1</ele>
        <time>2022-09-29T09:18:48Z</time>
      </trkpt>
      <trkpt lat="46.78233" lon="6.63513">
        <ele>436.1</ele>
        <time>2022-09-29T09:18:49Z</time>
      </trkpt>
      <trkpt lat="46.78233" lon="6.63513">
        <ele>436.1</ele>
        <time>2022-09-29T09:18:50Z</time>
      </trkpt>
      <trkpt lat="46.78233" lon="6.63513">
        <ele>436.1</ele>
        <time>2022-09-29T09:18:51Z</time>
      </trkpt>
      <trkpt lat="46.78232" lon="6.63514">
        <ele>436.1</ele>
        <time>2022-09-29T09:18:52Z</time>
      </trkpt>
      <trkpt lat="46.78232" lon="6.63514">
        <ele>436.1</ele>
        <time>2022-09-29T09:18:53Z</time>
      </trkpt>
      <trkpt lat="46.78231" lon="6.63514">
        <ele>436.1</ele>
        <time>2022-09-29T09:18:54Z</time>
      </trkpt>
      <trkpt lat="46.78231" lon="6.63515">
        <ele>436.1</ele>
        <time>2022-09-29T09:18:55Z</time>
      </trkpt>
      <trkpt lat="46.78231" lon="6.63516">
        <ele>436.1</ele>
        <time>2022-09-29T09:18:56Z</time>
      </trkpt>
      <trkpt lat="46.78231" lon="6.63518">
        <ele>436.1</ele>
        <time>2022-09-29T09:19:48Z</time>
      </trkpt>
      <trkpt lat="46.78232" lon="6.63519">
        <ele>436.1</ele>
        <time>2022-09-29T09:19:49Z</time>
      </trkpt>
      <trkpt lat="46.78232" lon="6.6352">
        <ele>436.1</ele>
        <time>2022-09-29T09:19:50Z</time>
      </trkpt>
      <trkpt lat="46.78232" lon="6.63521">
        <ele>436.1</ele>
        <time>2022-09-29T09:19:51Z</time>
      </trkpt>
      <trkpt lat="46.78233" lon="6.63522">
        <ele>436.1</ele>
        <time>2022-09-29T09:19:52Z</time>
      </trkpt>
      <trkpt lat="46.78233" lon="6.63523">
        <ele>436.1</ele>
        <time>2022-09-29T09:19:53Z</time>
      </trkpt>
      <trkpt lat="46.78232" lon="6.63526">
        <ele>436.1</ele>
        <time>2022-09-29T09:19:54Z</time>
      </trkpt>
      <trkpt lat="46.78233" lon="6.63527">
        <ele>436.1</ele>
        <time>2022-09-29T09:19:55Z</time>
      </trkpt>
      <trkpt lat="46.78233" lon="6.63529">
        <ele>436.1</ele>
        <time>2022-09-29T09:19:56Z</time>
      </trkpt>
      <trkpt lat="46.78233" lon="6.6353">
        <ele>436.1</ele>
        <time>2022-09-29T09:19:57Z</time>
      </trkpt>
      <trkpt lat="46.78232" lon="6.63532">
        <ele>436.1</ele>
        <time>2022-09-29T09:19:58Z</time>
      </trkpt>
      <trkpt lat="46.78231" lon="6.63534">
        <ele>436.1</ele>
        <time>2022-09-29T09:20:00Z</time>
      </trkpt>
      <trkpt lat="46.78231" lon="6.63536">
        <ele>436</ele>
        <time>2022-09-29T09:22:32Z</time>
      </trkpt>
      <trkpt lat="46.7823" lon="6.63537">
        <ele>436</ele>
        <time>2022-09-29T09:22:33Z</time>
      </trkpt>
      <trkpt lat="46.78227" lon="6.63541">
        <ele>436</ele>
        <time>2022-09-29T09:22:34Z</time>
      </trkpt>
      <trkpt lat="46.78226" lon="6.63543">
        <ele>436</ele>
        <time>2022-09-29T09:22:35Z</time>
      </trkpt>
      <trkpt lat="46.78224" lon="6.63546">
        <ele>436</ele>
        <time>2022-09-29T09:22:36Z</time>
      </trkpt>
      <trkpt lat="46.7822" lon="6.63549">
        <ele>436</ele>
        <time>2022-09-29T09:22:37Z</time>
      </trkpt>
      <trkpt lat="46.78218" lon="6.63551">
        <ele>436</ele>
        <time>2022-09-29T09:22:38Z</time>
      </trkpt>
      <trkpt lat="46.78216" lon="6.63554">
        <ele>436</ele>
        <time>2022-09-29T09:22:39Z</time>
      </trkpt>
      <trkpt lat="46.78213" lon="6.63556">
        <ele>436</ele>
        <time>2022-09-29T09:22:40Z</time>
      </trkpt>
      <trkpt lat="46.78212" lon="6.6356">
        <ele>436</ele>
        <time>2022-09-29T09:22:41Z</time>
      </trkpt>
      <trkpt lat="46.78209" lon="6.63563">
        <ele>436</ele>
        <time>2022-09-29T09:22:42Z</time>
      </trkpt>
      <trkpt lat="46.78205" lon="6.63565">
        <ele>436</ele>
        <time>2022-09-29T09:22:43Z</time>
      </trkpt>
      <trkpt lat="46.78203" lon="6.63569">
        <ele>436</ele>
        <time>2022-09-29T09:22:44Z</time>
      </trkpt>
      <trkpt lat="46.782" lon="6.63573">
        <ele>436</ele>
        <time>2022-09-29T09:22:45Z</time>
      </trkpt>
      <trkpt lat="46.78197" lon="6.63578">
        <ele>435.9</ele>
        <time>2022-09-29T09:22:46Z</time>
      </trkpt>
      <trkpt lat="46.78193" lon="6.63581">
        <ele>435.8</ele>
        <time>2022-09-29T09:22:47Z</time>
      </trkpt>
      <trkpt lat="46.78189" lon="6.63585">
        <ele>435.7</ele>
        <time>2022-09-29T09:22:48Z</time>
      </trkpt>
      <trkpt lat="46.78186" lon="6.63587">
        <ele>435.6</ele>
        <time>2022-09-29T09:22:49Z</time>
      </trkpt>
      <trkpt lat="46.78182" lon="6.6359">
        <ele>435.5</ele>
        <time>2022-09-29T09:22:50Z</time>
      </trkpt>
      <trkpt lat="46.78179" lon="6.63593">
        <ele>435.5</ele>
        <time>2022-09-29T09:22:51Z</time>
      </trkpt>
      <trkpt lat="46.78176" lon="6.63596">
        <ele>435.5</ele>
        <time>2022-09-29T09:22:52Z</time>
      </trkpt>
      <trkpt lat="46.78171" lon="6.63602">
        <ele>435.5</ele>
        <time>2022-09-29T09:22:53Z</time>
      </trkpt>
      <trkpt lat="46.78166" lon="6.63605">
        <ele>435.4</ele>
        <time>2022-09-29T09:22:54Z</time>
      </trkpt>
      <trkpt lat="46.78163" lon="6.63608">
        <ele>435.4</ele>
        <time>2022-09-29T09:22:55Z</time>
      </trkpt>
      <trkpt lat="46.78159" lon="6.6361">
        <ele>435.5</ele>
        <time>2022-09-29T09:22:56Z</time>
      </trkpt>
      <trkpt lat="46.78156" lon="6.63614">
        <ele>435.5</ele>
        <time>2022-09-29T09:22:57Z</time>
      </trkpt>
      <trkpt lat="46.78151" lon="6.63618">
        <ele>435.4</ele>
        <time>2022-09-29T09:22:58Z</time>
      </trkpt>
      <trkpt lat="46.78148" lon="6.63621">
        <ele>435.4</ele>
        <time>2022-09-29T09:22:59Z</time>
      </trkpt>
      <trkpt lat="46.78144" lon="6.63624">
        <ele>435.4</ele>
        <time>2022-09-29T09:23:00Z</time>
      </trkpt>
      <trkpt lat="46.78141" lon="6.63627">
        <ele>435.4</ele>
        <time>2022-09-29T09:23:01Z</time>
      </trkpt>
      <trkpt lat="46.78138" lon="6.63627">
        <ele>435.4</ele>
        <time>2022-09-29T09:23:02Z</time>
      </trkpt>
      <trkpt lat="46.78134" lon="6.63632">
        <ele>435.4</ele>
        <time>2022-09-29T09:23:03Z</time>
      </trkpt>
      <trkpt lat="46.7813" lon="6.63635">
        <ele>435.4</ele>
        <time>2022-09-29T09:23:04Z</time>
      </trkpt>
      <trkpt lat="46.78126" lon="6.63638">
        <ele>435.4</ele>
        <time>2022-09-29T09:23:05Z</time>
      </trkpt>
      <trkpt lat="46.78122" lon="6.6364">
        <ele>435.4</ele>
        <time>2022-09-29T09:23:06Z</time>
      </trkpt>
      <trkpt lat="46.7812" lon="6.6364">
        <ele>435.4</ele>
        <time>2022-09-29T09:23:07Z</time>
      </trkpt>
      <trkpt lat="46.78117" lon="6.63643">
        <ele>435.4</ele>
        <time>2022-09-29T09:23:08Z</time>
      </trkpt>
      <trkpt lat="46.78113" lon="6.63646">
        <ele>435.3</ele>
        <time>2022-09-29T09:23:09Z</time>
      </trkpt>
      <trkpt lat="46.78109" lon="6.63649">
        <ele>435.3</ele>
        <time>2022-09-29T09:23:10Z</time>
      </trkpt>
      <trkpt lat="46.78105" lon="6.63651">
        <ele>435.3</ele>
        <time>2022-09-29T09:23:11Z</time>
      </trkpt>
      <trkpt lat="46.78101" lon="6.63654">
        <ele>435.3</ele>
        <time>2022-09-29T09:23:12Z</time>
      </trkpt>
      <trkpt lat="46.78098" lon="6.63658">
        <ele>435.3</ele>
        <time>2022-09-29T09:23:13Z</time>
      </trkpt>
      <trkpt lat="46.78095" lon="6.6366">
        <ele>435.3</ele>
        <time>2022-09-29T09:23:14Z</time>
      </trkpt>
      <trkpt lat="46.78091" lon="6.63662">
        <ele>435.4</ele>
        <time>2022-09-29T09:23:15Z</time>
      </trkpt>
      <trkpt lat="46.78088" lon="6.63664">
        <ele>435.4</ele>
        <time>2022-09-29T09:23:16Z</time>
      </trkpt>
      <trkpt lat="46.78084" lon="6.63666">
        <ele>435.4</ele>
        <time>2022-09-29T09:23:17Z</time>
      </trkpt>
      <trkpt lat="46.78081" lon="6.63669">
        <ele>435.4</ele>
        <time>2022-09-29T09:23:18Z</time>
      </trkpt>
      <trkpt lat="46.78079" lon="6.6367">
        <ele>435.4</ele>
        <time>2022-09-29T09:23:19Z</time>
      </trkpt>
      <trkpt lat="46.78075" lon="6.6367">
        <ele>435.4</ele>
        <time>2022-09-29T09:23:20Z</time>
      </trkpt>
      <trkpt lat="46.78074" lon="6.6367">
        <ele>435.4</ele>
        <time>2022-09-29T09:23:21Z</time>
      </trkpt>
      <trkpt lat="46.78073" lon="6.6367">
        <ele>435.4</ele>
        <time>2022-09-29T09:23:22Z</time>
      </trkpt>
      <trkpt lat="46.78071" lon="6.63671">
        <ele>435.4</ele>
        <time>2022-09-29T09:23:23Z</time>
      </trkpt>
      <trkpt lat="46.7807" lon="6.63674">
        <ele>435.4</ele>
        <time>2022-09-29T09:23:24Z</time>
      </trkpt>
      <trkpt lat="46.78069" lon="6.63676">
        <ele>435.4</ele>
        <time>2022-09-29T09:23:25Z</time>
      </trkpt>
      <trkpt lat="46.78066" lon="6.6368">
        <ele>435.4</ele>
        <time>2022-09-29T09:23:26Z</time>
      </trkpt>
      <trkpt lat="46.78064" lon="6.63682">
        <ele>435.4</ele>
        <time>2022-09-29T09:23:27Z</time>
      </trkpt>
      <trkpt lat="46.78063" lon="6.63684">
        <ele>435.4</ele>
        <time>2022-09-29T09:23:28Z</time>
      </trkpt>
      <trkpt lat="46.78062" lon="6.63688">
        <ele>435.4</ele>
        <time>2022-09-29T09:23:29Z</time>
      </trkpt>
      <trkpt lat="46.78062" lon="6.63692">
        <ele>435.4</ele>
        <time>2022-09-29T09:23:30Z</time>
      </trkpt>
      <trkpt lat="46.78062" lon="6.63695">
        <ele>435.4</ele>
        <time>2022-09-29T09:23:31Z</time>
      </trkpt>
      <trkpt lat="46.78061" lon="6.63701">
        <ele>435.4</ele>
        <time>2022-09-29T09:23:32Z</time>
      </trkpt>
      <trkpt lat="46.78061" lon="6.63706">
        <ele>435.4</ele>
        <time>2022-09-29T09:23:33Z</time>
      </trkpt>
      <trkpt lat="46.7806" lon="6.63711">
        <ele>435.3</ele>
        <time>2022-09-29T09:23:34Z</time>
      </trkpt>
      <trkpt lat="46.78059" lon="6.63718">
        <ele>435.3</ele>
        <time>2022-09-29T09:23:35Z</time>
      </trkpt>
      <trkpt lat="46.78059" lon="6.6372">
        <ele>435.3</ele>
        <time>2022-09-29T09:23:36Z</time>
      </trkpt>
      <trkpt lat="46.78059" lon="6.63727">
        <ele>435.3</ele>
        <time>2022-09-29T09:23:37Z</time>
      </trkpt>
      <trkpt lat="46.78059" lon="6.63733">
        <ele>435.3</ele>
        <time>2022-09-29T09:23:38Z</time>
      </trkpt>
      <trkpt lat="46.78058" lon="6.63737">
        <ele>435.3</ele>
        <time>2022-09-29T09:23:39Z</time>
      </trkpt>
      <trkpt lat="46.78057" lon="6.63744">
        <ele>435.3</ele>
        <time>2022-09-29T09:23:40Z</time>
      </trkpt>
      <trkpt lat="46.78056" lon="6.63749">
        <ele>435.3</ele>
        <time>2022-09-29T09:23:41Z</time>
      </trkpt>
      <trkpt lat="46.78053" lon="6.63755">
        <ele>435.3</ele>
        <time>2022-09-29T09:23:42Z</time>
      </trkpt>
      <trkpt lat="46.78051" lon="6.63761">
        <ele>435.3</ele>
        <time>2022-09-29T09:23:43Z</time>
      </trkpt>
      <trkpt lat="46.78049" lon="6.63766">
        <ele>435.3</ele>
        <time>2022-09-29T09:23:44Z</time>
      </trkpt>
      <trkpt lat="46.78048" lon="6.6377">
        <ele>435.3</ele>
        <time>2022-09-29T09:23:45Z</time>
      </trkpt>
      <trkpt lat="46.78047" lon="6.63774">
        <ele>435.3</ele>
        <time>2022-09-29T09:23:46Z</time>
      </trkpt>
      <trkpt lat="46.78045" lon="6.63779">
        <ele>435.3</ele>
        <time>2022-09-29T09:23:47Z</time>
      </trkpt>
      <trkpt lat="46.78043" lon="6.63784">
        <ele>435.3</ele>
        <time>2022-09-29T09:23:48Z</time>
      </trkpt>
      <trkpt lat="46.78042" lon="6.63789">
        <ele>435.4</ele>
        <time>2022-09-29T09:23:49Z</time>
      </trkpt>
      <trkpt lat="46.78042" lon="6.63793">
        <ele>435.4</ele>
        <time>2022-09-29T09:23:50Z</time>
      </trkpt>
      <trkpt lat="46.78041" lon="6.63798">
        <ele>435.5</ele>
        <time>2022-09-29T09:23:51Z</time>
      </trkpt>
      <trkpt lat="46.78042" lon="6.63803">
        <ele>435.5</ele>
        <time>2022-09-29T09:23:52Z</time>
      </trkpt>
      <trkpt lat="46.78043" lon="6.63807">
        <ele>435.5</ele>
        <time>2022-09-29T09:23:53Z</time>
      </trkpt>
      <trkpt lat="46.78046" lon="6.63812">
        <ele>435.5</ele>
        <time>2022-09-29T09:23:54Z</time>
      </trkpt>
      <trkpt lat="46.78048" lon="6.63817">
        <ele>435.5</ele>
        <time>2022-09-29T09:23:55Z</time>
      </trkpt>
      <trkpt lat="46.78051" lon="6.63821">
        <ele>435.5</ele>
        <time>2022-09-29T09:23:56Z</time>
      </trkpt>
      <trkpt lat="46.78053" lon="6.63826">
        <ele>435.5</ele>
        <time>2022-09-29T09:23:57Z</time>
      </trkpt>
      <trkpt lat="46.78054" lon="6.63832">
        <ele>435.5</ele>
        <time>2022-09-29T09:23:58Z</time>
      </trkpt>
      <trkpt lat="46.78056" lon="6.63837">
        <ele>435.5</ele>
        <time>2022-09-29T09:23:59Z</time>
      </trkpt>
      <trkpt lat="46.78057" lon="6.63843">
        <ele>435.5</ele>
        <time>2022-09-29T09:24:00Z</time>
      </trkpt>
      <trkpt lat="46.78059" lon="6.63849">
        <ele>435.4</ele>
        <time>2022-09-29T09:24:01Z</time>
      </trkpt>
      <trkpt lat="46.7806" lon="6.63854">
        <ele>435.4</ele>
        <time>2022-09-29T09:24:02Z</time>
      </trkpt>
      <trkpt lat="46.7806" lon="6.6386">
        <ele>435.4</ele>
        <time>2022-09-29T09:24:03Z</time>
      </trkpt>
      <trkpt lat="46.78059" lon="6.63866">
        <ele>435.4</ele>
        <time>2022-09-29T09:24:04Z</time>
      </trkpt>
      <trkpt lat="46.78059" lon="6.63871">
        <ele>435.4</ele>
        <time>2022-09-29T09:24:05Z</time>
      </trkpt>
      <trkpt lat="46.78057" lon="6.63878">
        <ele>435.4</ele>
        <time>2022-09-29T09:24:06Z</time>
      </trkpt>
      <trkpt lat="46.78056" lon="6.63885">
        <ele>435.4</ele>
        <time>2022-09-29T09:24:07Z</time>
      </trkpt>
      <trkpt lat="46.78054" lon="6.63891">
        <ele>435.4</ele>
        <time>2022-09-29T09:24:08Z</time>
      </trkpt>
      <trkpt lat="46.78053" lon="6.63897">
        <ele>435.4</ele>
        <time>2022-09-29T09:24:10Z</time>
      </trkpt>
      <trkpt lat="46.78051" lon="6.639">
        <ele>435.4</ele>
        <time>2022-09-29T09:24:11Z</time>
      </trkpt>
      <trkpt lat="46.78049" lon="6.63905">
        <ele>435.3</ele>
        <time>2022-09-29T09:24:12Z</time>
      </trkpt>
      <trkpt lat="46.78046" lon="6.63909">
        <ele>435.3</ele>
        <time>2022-09-29T09:24:13Z</time>
      </trkpt>
      <trkpt lat="46.78044" lon="6.63915">
        <ele>435.3</ele>
        <time>2022-09-29T09:24:14Z</time>
      </trkpt>
      <trkpt lat="46.78041" lon="6.6392">
        <ele>435.3</ele>
        <time>2022-09-29T09:24:15Z</time>
      </trkpt>
      <trkpt lat="46.78039" lon="6.63924">
        <ele>435.3</ele>
        <time>2022-09-29T09:24:16Z</time>
      </trkpt>
      <trkpt lat="46.78036" lon="6.63934">
        <ele>435.3</ele>
        <time>2022-09-29T09:24:17Z</time>
      </trkpt>
      <trkpt lat="46.78034" lon="6.63938">
        <ele>435.3</ele>
        <time>2022-09-29T09:24:18Z</time>
      </trkpt>
      <trkpt lat="46.78032" lon="6.63943">
        <ele>435.3</ele>
        <time>2022-09-29T09:24:20Z</time>
      </trkpt>
      <trkpt lat="46.78029" lon="6.63954">
        <ele>435.3</ele>
        <time>2022-09-29T09:24:21Z</time>
      </trkpt>
      <trkpt lat="46.78027" lon="6.63959">
        <ele>435.3</ele>
        <time>2022-09-29T09:24:22Z</time>
      </trkpt>
      <trkpt lat="46.78025" lon="6.63964">
        <ele>435.3</ele>
        <time>2022-09-29T09:24:23Z</time>
      </trkpt>
      <trkpt lat="46.78023" lon="6.6397">
        <ele>435.3</ele>
        <time>2022-09-29T09:24:24Z</time>
      </trkpt>
      <trkpt lat="46.78019" lon="6.63975">
        <ele>435.3</ele>
        <time>2022-09-29T09:24:25Z</time>
      </trkpt>
      <trkpt lat="46.78015" lon="6.6398">
        <ele>435.3</ele>
        <time>2022-09-29T09:24:26Z</time>
      </trkpt>
      <trkpt lat="46.78013" lon="6.63986">
        <ele>435.3</ele>
        <time>2022-09-29T09:24:27Z</time>
      </trkpt>
      <trkpt lat="46.7801" lon="6.6399">
        <ele>435.3</ele>
        <time>2022-09-29T09:24:28Z</time>
      </trkpt>
      <trkpt lat="46.78008" lon="6.63996">
        <ele>435.3</ele>
        <time>2022-09-29T09:24:29Z</time>
      </trkpt>
      <trkpt lat="46.78006" lon="6.64">
        <ele>435.4</ele>
        <time>2022-09-29T09:24:30Z</time>
      </trkpt>
      <trkpt lat="46.78004" lon="6.64004">
        <ele>435.4</ele>
        <time>2022-09-29T09:24:31Z</time>
      </trkpt>
      <trkpt lat="46.78002" lon="6.64008">
        <ele>435.4</ele>
        <time>2022-09-29T09:24:32Z</time>
      </trkpt>
      <trkpt lat="46.78002" lon="6.6401">
        <ele>435.4</ele>
        <time>2022-09-29T09:24:33Z</time>
      </trkpt>
      <trkpt lat="46.77999" lon="6.64013">
        <ele>435.4</ele>
        <time>2022-09-29T09:24:34Z</time>
      </trkpt>
      <trkpt lat="46.77997" lon="6.64017">
        <ele>435.4</ele>
        <time>2022-09-29T09:24:35Z</time>
      </trkpt>
      <trkpt lat="46.77995" lon="6.64021">
        <ele>435.4</ele>
        <time>2022-09-29T09:24:36Z</time>
      </trkpt>
      <trkpt lat="46.77993" lon="6.64025">
        <ele>435.4</ele>
        <time>2022-09-29T09:24:37Z</time>
      </trkpt>
      <trkpt lat="46.77992" lon="6.64029">
        <ele>435.4</ele>
        <time>2022-09-29T09:24:38Z</time>
      </trkpt>
      <trkpt lat="46.7799" lon="6.64033">
        <ele>435.4</ele>
        <time>2022-09-29T09:24:39Z</time>
      </trkpt>
      <trkpt lat="46.7799" lon="6.64034">
        <ele>435.4</ele>
        <time>2022-09-29T09:24:40Z</time>
      </trkpt>
      <trkpt lat="46.77989" lon="6.64038">
        <ele>435.4</ele>
        <time>2022-09-29T09:24:41Z</time>
      </trkpt>
      <trkpt lat="46.77987" lon="6.64042">
        <ele>435.4</ele>
        <time>2022-09-29T09:24:42Z</time>
      </trkpt>
      <trkpt lat="46.77984" lon="6.64046">
        <ele>435.4</ele>
        <time>2022-09-29T09:24:43Z</time>
      </trkpt>
      <trkpt lat="46.77983" lon="6.6405">
        <ele>435.3</ele>
        <time>2022-09-29T09:24:44Z</time>
      </trkpt>
      <trkpt lat="46.77982" lon="6.64052">
        <ele>435.3</ele>
        <time>2022-09-29T09:24:45Z</time>
      </trkpt>
      <trkpt lat="46.7798" lon="6.64055">
        <ele>435.3</ele>
        <time>2022-09-29T09:24:46Z</time>
      </trkpt>
      <trkpt lat="46.77977" lon="6.64062">
        <ele>435.3</ele>
        <time>2022-09-29T09:24:47Z</time>
      </trkpt>
      <trkpt lat="46.77976" lon="6.64068">
        <ele>435.3</ele>
        <time>2022-09-29T09:24:48Z</time>
      </trkpt>
      <trkpt lat="46.77973" lon="6.64073">
        <ele>435.3</ele>
        <time>2022-09-29T09:24:49Z</time>
      </trkpt>
      <trkpt lat="46.77971" lon="6.64078">
        <ele>435.3</ele>
        <time>2022-09-29T09:24:50Z</time>
      </trkpt>
      <trkpt lat="46.77969" lon="6.64083">
        <ele>435.3</ele>
        <time>2022-09-29T09:24:51Z</time>
      </trkpt>
      <trkpt lat="46.77967" lon="6.64088">
        <ele>435.3</ele>
        <time>2022-09-29T09:24:52Z</time>
      </trkpt>
      <trkpt lat="46.77965" lon="6.64093">
        <ele>435.3</ele>
        <time>2022-09-29T09:24:53Z</time>
      </trkpt>
      <trkpt lat="46.77963" lon="6.64099">
        <ele>435.3</ele>
        <time>2022-09-29T09:24:54Z</time>
      </trkpt>
      <trkpt lat="46.77961" lon="6.64104">
        <ele>435.3</ele>
        <time>2022-09-29T09:24:55Z</time>
      </trkpt>
      <trkpt lat="46.77958" lon="6.6411">
        <ele>435.3</ele>
        <time>2022-09-29T09:24:56Z</time>
      </trkpt>
      <trkpt lat="46.77957" lon="6.64115">
        <ele>435.3</ele>
        <time>2022-09-29T09:24:57Z</time>
      </trkpt>
      <trkpt lat="46.77954" lon="6.6412">
        <ele>435.3</ele>
        <time>2022-09-29T09:24:58Z</time>
      </trkpt>
      <trkpt lat="46.77953" lon="6.64126">
        <ele>435.3</ele>
        <time>2022-09-29T09:24:59Z</time>
      </trkpt>
      <trkpt lat="46.77951" lon="6.6413">
        <ele>435.3</ele>
        <time>2022-09-29T09:25:00Z</time>
      </trkpt>
      <trkpt lat="46.77949" lon="6.64135">
        <ele>435.3</ele>
        <time>2022-09-29T09:25:01Z</time>
      </trkpt>
      <trkpt lat="46.77947" lon="6.6414">
        <ele>435.3</ele>
        <time>2022-09-29T09:25:02Z</time>
      </trkpt>
      <trkpt lat="46.77945" lon="6.64144">
        <ele>435.3</ele>
        <time>2022-09-29T09:25:03Z</time>
      </trkpt>
      <trkpt lat="46.77943" lon="6.64148">
        <ele>435.3</ele>
        <time>2022-09-29T09:25:04Z</time>
      </trkpt>
      <trkpt lat="46.77941" lon="6.64152">
        <ele>435.3</ele>
        <time>2022-09-29T09:25:05Z</time>
      </trkpt>
      <trkpt lat="46.7794" lon="6.64156">
        <ele>435.3</ele>
        <time>2022-09-29T09:25:06Z</time>
      </trkpt>
      <trkpt lat="46.77938" lon="6.6416">
        <ele>435.3</ele>
        <time>2022-09-29T09:25:07Z</time>
      </trkpt>
      <trkpt lat="46.77936" lon="6.64163">
        <ele>435.3</ele>
        <time>2022-09-29T09:25:08Z</time>
      </trkpt>
      <trkpt lat="46.77934" lon="6.64168">
        <ele>435.3</ele>
        <time>2022-09-29T09:25:09Z</time>
      </trkpt>
      <trkpt lat="46.77933" lon="6.6417">
        <ele>435.3</ele>
        <time>2022-09-29T09:25:10Z</time>
      </trkpt>
      <trkpt lat="46.77929" lon="6.64171">
        <ele>435.4</ele>
        <time>2022-09-29T09:25:11Z</time>
      </trkpt>
      <trkpt lat="46.77926" lon="6.64173">
        <ele>435.4</ele>
        <time>2022-09-29T09:25:12Z</time>
      </trkpt>
      <trkpt lat="46.77923" lon="6.64176">
        <ele>435.4</ele>
        <time>2022-09-29T09:25:13Z</time>
      </trkpt>
      <trkpt lat="46.7792" lon="6.6418">
        <ele>435.4</ele>
        <time>2022-09-29T09:25:14Z</time>
      </trkpt>
      <trkpt lat="46.77917" lon="6.64183">
        <ele>435.4</ele>
        <time>2022-09-29T09:25:15Z</time>
      </trkpt>
      <trkpt lat="46.77915" lon="6.64185">
        <ele>435.4</ele>
        <time>2022-09-29T09:25:16Z</time>
      </trkpt>
      <trkpt lat="46.77911" lon="6.64189">
        <ele>435.5</ele>
        <time>2022-09-29T09:25:17Z</time>
      </trkpt>
      <trkpt lat="46.7791" lon="6.6419">
        <ele>435.5</ele>
        <time>2022-09-29T09:25:18Z</time>
      </trkpt>
      <trkpt lat="46.77907" lon="6.64192">
        <ele>435.5</ele>
        <time>2022-09-29T09:25:19Z</time>
      </trkpt>
      <trkpt lat="46.77904" lon="6.64195">
        <ele>435.6</ele>
        <time>2022-09-29T09:25:20Z</time>
      </trkpt>
      <trkpt lat="46.779" lon="6.64197">
        <ele>435.6</ele>
        <time>2022-09-29T09:25:21Z</time>
      </trkpt>
      <trkpt lat="46.77898" lon="6.64198">
        <ele>435.6</ele>
        <time>2022-09-29T09:25:22Z</time>
      </trkpt>
      <trkpt lat="46.77895" lon="6.64198">
        <ele>435.7</ele>
        <time>2022-09-29T09:25:23Z</time>
      </trkpt>
      <trkpt lat="46.77893" lon="6.64198">
        <ele>435.7</ele>
        <time>2022-09-29T09:25:24Z</time>
      </trkpt>
      <trkpt lat="46.7789" lon="6.64198">
        <ele>435.8</ele>
        <time>2022-09-29T09:25:25Z</time>
      </trkpt>
      <trkpt lat="46.77887" lon="6.64196">
        <ele>435.8</ele>
        <time>2022-09-29T09:25:26Z</time>
      </trkpt>
      <trkpt lat="46.77884" lon="6.64194">
        <ele>435.8</ele>
        <time>2022-09-29T09:25:27Z</time>
      </trkpt>
      <trkpt lat="46.77881" lon="6.64192">
        <ele>435.9</ele>
        <time>2022-09-29T09:25:28Z</time>
      </trkpt>
      <trkpt lat="46.77881" lon="6.64192">
        <ele>435.9</ele>
        <time>2022-09-29T09:25:29Z</time>
      </trkpt>
      <trkpt lat="46.77877" lon="6.64191">
        <ele>436</ele>
        <time>2022-09-29T09:25:30Z</time>
      </trkpt>
      <trkpt lat="46.77874" lon="6.64188">
        <ele>436</ele>
        <time>2022-09-29T09:25:31Z</time>
      </trkpt>
      <trkpt lat="46.77872" lon="6.64187">
        <ele>436.1</ele>
        <time>2022-09-29T09:25:32Z</time>
      </trkpt>
      <trkpt lat="46.77869" lon="6.64185">
        <ele>436.1</ele>
        <time>2022-09-29T09:25:33Z</time>
      </trkpt>
      <trkpt lat="46.77868" lon="6.64183">
        <ele>436.1</ele>
        <time>2022-09-29T09:25:34Z</time>
      </trkpt>
      <trkpt lat="46.77865" lon="6.64181">
        <ele>436.2</ele>
        <time>2022-09-29T09:25:35Z</time>
      </trkpt>
      <trkpt lat="46.77863" lon="6.6418">
        <ele>436.2</ele>
        <time>2022-09-29T09:25:36Z</time>
      </trkpt>
      <trkpt lat="46.77862" lon="6.64179">
        <ele>436.3</ele>
        <time>2022-09-29T09:25:37Z</time>
      </trkpt>
      <trkpt lat="46.77859" lon="6.64176">
        <ele>436.5</ele>
        <time>2022-09-29T09:25:38Z</time>
      </trkpt>
      <trkpt lat="46.77857" lon="6.64176">
        <ele>436.5</ele>
        <time>2022-09-29T09:25:39Z</time>
      </trkpt>
      <trkpt lat="46.77857" lon="6.64175">
        <ele>436.5</ele>
        <time>2022-09-29T09:25:40Z</time>
      </trkpt>
      <trkpt lat="46.77857" lon="6.64175">
        <ele>436.5</ele>
        <time>2022-09-29T09:25:41Z</time>
      </trkpt>
      <trkpt lat="46.77858" lon="6.64174">
        <ele>436.5</ele>
        <time>2022-09-29T09:25:42Z</time>
      </trkpt>
      <trkpt lat="46.77857" lon="6.64172">
        <ele>436.5</ele>
        <time>2022-09-29T09:25:43Z</time>
      </trkpt>
      <trkpt lat="46.77857" lon="6.6417">
        <ele>436.5</ele>
        <time>2022-09-29T09:25:44Z</time>
      </trkpt>
      <trkpt lat="46.77857" lon="6.64169">
        <ele>436.5</ele>
        <time>2022-09-29T09:25:45Z</time>
      </trkpt>
      <trkpt lat="46.77857" lon="6.64169">
        <ele>436.5</ele>
        <time>2022-09-29T09:25:46Z</time>
      </trkpt>
      <trkpt lat="46.77857" lon="6.64168">
        <ele>436.5</ele>
        <time>2022-09-29T09:25:47Z</time>
      </trkpt>
      <trkpt lat="46.77857" lon="6.64167">
        <ele>436.5</ele>
        <time>2022-09-29T09:25:48Z</time>
      </trkpt>
      <trkpt lat="46.77857" lon="6.64166">
        <ele>436.5</ele>
        <time>2022-09-29T09:25:49Z</time>
      </trkpt>
      <trkpt lat="46.77857" lon="6.64165">
        <ele>436.5</ele>
        <time>2022-09-29T09:25:50Z</time>
      </trkpt>
      <trkpt lat="46.77857" lon="6.64164">
        <ele>436.5</ele>
        <time>2022-09-29T09:25:54Z</time>
      </trkpt>
      <trkpt lat="46.77857" lon="6.64164">
        <ele>436.5</ele>
        <time>2022-09-29T09:25:55Z</time>
      </trkpt>
      <trkpt lat="46.77857" lon="6.64163">
        <ele>436.5</ele>
        <time>2022-09-29T09:25:56Z</time>
      </trkpt>
      <trkpt lat="46.77857" lon="6.64162">
        <ele>436.5</ele>
        <time>2022-09-29T09:25:57Z</time>
      </trkpt>
      <trkpt lat="46.77858" lon="6.64161">
        <ele>436.5</ele>
        <time>2022-09-29T09:25:58Z</time>
      </trkpt>
      <trkpt lat="46.77858" lon="6.64162">
        <ele>436.4</ele>
        <time>2022-09-29T09:25:59Z</time>
      </trkpt>
      <trkpt lat="46.77859" lon="6.6416">
        <ele>436.4</ele>
        <time>2022-09-29T09:26:00Z</time>
      </trkpt>
      <trkpt lat="46.7786" lon="6.64159">
        <ele>436.4</ele>
        <time>2022-09-29T09:26:01Z</time>
      </trkpt>
      <trkpt lat="46.7786" lon="6.6416">
        <ele>436.4</ele>
        <time>2022-09-29T09:26:02Z</time>
      </trkpt>
      <trkpt lat="46.7786" lon="6.6416">
        <ele>436.4</ele>
        <time>2022-09-29T09:26:03Z</time>
      </trkpt>
      <trkpt lat="46.7786" lon="6.6416">
        <ele>436.4</ele>
        <time>2022-09-29T09:26:04Z</time>
      </trkpt>
      <trkpt lat="46.7786" lon="6.6416">
        <ele>436.4</ele>
        <time>2022-09-29T09:26:05Z</time>
      </trkpt>
      <trkpt lat="46.7786" lon="6.6416">
        <ele>436.4</ele>
        <time>2022-09-29T09:26:06Z</time>
      </trkpt>
      <trkpt lat="46.77861" lon="6.64161">
        <ele>436.4</ele>
        <time>2022-09-29T09:26:07Z</time>
      </trkpt>
      <trkpt lat="46.77861" lon="6.64162">
        <ele>436.4</ele>
        <time>2022-09-29T09:26:08Z</time>
      </trkpt>
      <trkpt lat="46.77862" lon="6.64163">
        <ele>436.4</ele>
        <time>2022-09-29T09:26:09Z</time>
      </trkpt>
      <trkpt lat="46.77862" lon="6.64163">
        <ele>436.4</ele>
        <time>2022-09-29T09:26:10Z</time>
      </trkpt>
      <trkpt lat="46.77862" lon="6.64164">
        <ele>436.4</ele>
        <time>2022-09-29T09:26:16Z</time>
      </trkpt>
      <trkpt lat="46.77862" lon="6.64164">
        <ele>436.4</ele>
        <time>2022-09-29T09:26:17Z</time>
      </trkpt>
      <trkpt lat="46.77863" lon="6.64165">
        <ele>436.4</ele>
        <time>2022-09-29T09:51:21Z</time>
      </trkpt>
      <trkpt lat="46.77863" lon="6.64166">
        <ele>436.3</ele>
        <time>2022-09-29T09:51:22Z</time>
      </trkpt>
      <trkpt lat="46.77863" lon="6.64166">
        <ele>436.3</ele>
        <time>2022-09-29T09:51:23Z</time>
      </trkpt>
      <trkpt lat="46.77863" lon="6.64167">
        <ele>436.3</ele>
        <time>2022-09-29T09:51:24Z</time>
      </trkpt>
      <trkpt lat="46.77863" lon="6.64167">
        <ele>436.3</ele>
        <time>2022-09-29T09:51:25Z</time>
      </trkpt>
      <trkpt lat="46.77863" lon="6.64168">
        <ele>436.3</ele>
        <time>2022-09-29T09:51:26Z</time>
      </trkpt>
      <trkpt lat="46.77863" lon="6.64168">
        <ele>436.3</ele>
        <time>2022-09-29T09:51:27Z</time>
      </trkpt>
      <trkpt lat="46.77864" lon="6.64169">
        <ele>436.3</ele>
        <time>2022-09-29T09:51:28Z</time>
      </trkpt>
      <trkpt lat="46.77864" lon="6.6417">
        <ele>436.3</ele>
        <time>2022-09-29T09:51:29Z</time>
      </trkpt>
      <trkpt lat="46.77864" lon="6.6417">
        <ele>436.3</ele>
        <time>2022-09-29T09:51:30Z</time>
      </trkpt>
      <trkpt lat="46.77864" lon="6.64171">
        <ele>436.3</ele>
        <time>2022-09-29T09:51:39Z</time>
      </trkpt>
      <trkpt lat="46.77864" lon="6.64171">
        <ele>436.3</ele>
        <time>2022-09-29T09:51:40Z</time>
      </trkpt>
      <trkpt lat="46.77864" lon="6.64172">
        <ele>436.3</ele>
        <time>2022-09-29T09:51:41Z</time>
      </trkpt>
      <trkpt lat="46.77865" lon="6.64173">
        <ele>436.3</ele>
        <time>2022-09-29T09:51:42Z</time>
      </trkpt>
      <trkpt lat="46.77865" lon="6.64173">
        <ele>436.2</ele>
        <time>2022-09-29T09:51:43Z</time>
      </trkpt>
      <trkpt lat="46.77865" lon="6.64174">
        <ele>436.2</ele>
        <time>2022-09-29T09:51:44Z</time>
      </trkpt>
      <trkpt lat="46.77865" lon="6.64174">
        <ele>436.2</ele>
        <time>2022-09-29T09:51:45Z</time>
      </trkpt>
      <trkpt lat="46.77865" lon="6.64175">
        <ele>436.2</ele>
        <time>2022-09-29T09:51:46Z</time>
      </trkpt>
      <trkpt lat="46.77865" lon="6.64175">
        <ele>436.2</ele>
        <time>2022-09-29T09:51:47Z</time>
      </trkpt>
      <trkpt lat="46.77866" lon="6.64176">
        <ele>436.2</ele>
        <time>2022-09-29T09:51:48Z</time>
      </trkpt>
      <trkpt lat="46.77866" lon="6.64177">
        <ele>436.2</ele>
        <time>2022-09-29T09:51:49Z</time>
      </trkpt>
      <trkpt lat="46.77866" lon="6.64177">
        <ele>436.2</ele>
        <time>2022-09-29T09:51:52Z</time>
      </trkpt>
      <trkpt lat="46.77866" lon="6.64178">
        <ele>436.2</ele>
        <time>2022-09-29T09:51:53Z</time>
      </trkpt>
      <trkpt lat="46.77866" lon="6.64178">
        <ele>436.2</ele>
        <time>2022-09-29T09:51:54Z</time>
      </trkpt>
      <trkpt lat="46.77866" lon="6.64179">
        <ele>436.2</ele>
        <time>2022-09-29T09:51:55Z</time>
      </trkpt>
      <trkpt lat="46.77867" lon="6.64179">
        <ele>436.2</ele>
        <time>2022-09-29T09:51:56Z</time>
      </trkpt>
      <trkpt lat="46.77867" lon="6.6418">
        <ele>436.2</ele>
        <time>2022-09-29T09:51:57Z</time>
      </trkpt>
      <trkpt lat="46.77867" lon="6.64181">
        <ele>436.1</ele>
        <time>2022-09-29T09:51:58Z</time>
      </trkpt>
      <trkpt lat="46.77867" lon="6.64181">
        <ele>436.1</ele>
        <time>2022-09-29T09:51:59Z</time>
      </trkpt>
      <trkpt lat="46.77867" lon="6.64182">
        <ele>436.1</ele>
        <time>2022-09-29T09:52:00Z</time>
      </trkpt>
      <trkpt lat="46.77867" lon="6.64182">
        <ele>436.1</ele>
        <time>2022-09-29T09:52:01Z</time>
      </trkpt>
      <trkpt lat="46.77868" lon="6.64183">
        <ele>436.1</ele>
        <time>2022-09-29T09:53:09Z</time>
      </trkpt>
      <trkpt lat="46.77868" lon="6.64184">
        <ele>436.1</ele>
        <time>2022-09-29T09:53:10Z</time>
      </trkpt>
      <trkpt lat="46.77868" lon="6.64184">
        <ele>436.1</ele>
        <time>2022-09-29T09:53:11Z</time>
      </trkpt>
      <trkpt lat="46.77868" lon="6.64185">
        <ele>436.1</ele>
        <time>2022-09-29T09:53:12Z</time>
      </trkpt>
      <trkpt lat="46.77871" lon="6.64187">
        <ele>436</ele>
        <time>2022-09-29T09:53:13Z</time>
      </trkpt>
      <trkpt lat="46.77874" lon="6.6419">
        <ele>436</ele>
        <time>2022-09-29T09:53:14Z</time>
      </trkpt>
      <trkpt lat="46.77877" lon="6.64193">
        <ele>435.9</ele>
        <time>2022-09-29T09:53:15Z</time>
      </trkpt>
      <trkpt lat="46.77878" lon="6.64194">
        <ele>435.9</ele>
        <time>2022-09-29T09:53:16Z</time>
      </trkpt>
      <trkpt lat="46.7788" lon="6.64197">
        <ele>435.8</ele>
        <time>2022-09-29T09:53:17Z</time>
      </trkpt>
      <trkpt lat="46.77881" lon="6.64198">
        <ele>435.8</ele>
        <time>2022-09-29T09:53:18Z</time>
      </trkpt>
      <trkpt lat="46.77885" lon="6.642">
        <ele>435.8</ele>
        <time>2022-09-29T09:53:19Z</time>
      </trkpt>
      <trkpt lat="46.77888" lon="6.64203">
        <ele>435.8</ele>
        <time>2022-09-29T09:53:20Z</time>
      </trkpt>
      <trkpt lat="46.77891" lon="6.64203">
        <ele>435.8</ele>
        <time>2022-09-29T09:53:21Z</time>
      </trkpt>
      <trkpt lat="46.77895" lon="6.64205">
        <ele>435.7</ele>
        <time>2022-09-29T09:53:22Z</time>
      </trkpt>
      <trkpt lat="46.77899" lon="6.64207">
        <ele>435.6</ele>
        <time>2022-09-29T09:53:23Z</time>
      </trkpt>
      <trkpt lat="46.77903" lon="6.64209">
        <ele>435.6</ele>
        <time>2022-09-29T09:53:24Z</time>
      </trkpt>
      <trkpt lat="46.77907" lon="6.64211">
        <ele>435.5</ele>
        <time>2022-09-29T09:53:25Z</time>
      </trkpt>
      <trkpt lat="46.77911" lon="6.64213">
        <ele>435.5</ele>
        <time>2022-09-29T09:53:26Z</time>
      </trkpt>
      <trkpt lat="46.77915" lon="6.64214">
        <ele>435.4</ele>
        <time>2022-09-29T09:53:27Z</time>
      </trkpt>
      <trkpt lat="46.77919" lon="6.64216">
        <ele>435.3</ele>
        <time>2022-09-29T09:53:28Z</time>
      </trkpt>
      <trkpt lat="46.77922" lon="6.64217">
        <ele>435.3</ele>
        <time>2022-09-29T09:53:29Z</time>
      </trkpt>
      <trkpt lat="46.77925" lon="6.64219">
        <ele>435.3</ele>
        <time>2022-09-29T09:53:30Z</time>
      </trkpt>
      <trkpt lat="46.77927" lon="6.6422">
        <ele>435.3</ele>
        <time>2022-09-29T09:53:31Z</time>
      </trkpt>
      <trkpt lat="46.77929" lon="6.64224">
        <ele>435.2</ele>
        <time>2022-09-29T09:53:32Z</time>
      </trkpt>
      <trkpt lat="46.77931" lon="6.64225">
        <ele>435.2</ele>
        <time>2022-09-29T09:53:33Z</time>
      </trkpt>
      <trkpt lat="46.77932" lon="6.64226">
        <ele>435.2</ele>
        <time>2022-09-29T09:53:34Z</time>
      </trkpt>
      <trkpt lat="46.77935" lon="6.64227">
        <ele>435.2</ele>
        <time>2022-09-29T09:53:35Z</time>
      </trkpt>
      <trkpt lat="46.77938" lon="6.64229">
        <ele>435.2</ele>
        <time>2022-09-29T09:53:36Z</time>
      </trkpt>
      <trkpt lat="46.77941" lon="6.64231">
        <ele>435.1</ele>
        <time>2022-09-29T09:53:37Z</time>
      </trkpt>
      <trkpt lat="46.77944" lon="6.64234">
        <ele>435.1</ele>
        <time>2022-09-29T09:53:38Z</time>
      </trkpt>
      <trkpt lat="46.77946" lon="6.64236">
        <ele>435.1</ele>
        <time>2022-09-29T09:53:39Z</time>
      </trkpt>
      <trkpt lat="46.7795" lon="6.64239">
        <ele>435.1</ele>
        <time>2022-09-29T09:53:40Z</time>
      </trkpt>
      <trkpt lat="46.77951" lon="6.6424">
        <ele>435.1</ele>
        <time>2022-09-29T09:53:41Z</time>
      </trkpt>
      <trkpt lat="46.77955" lon="6.64243">
        <ele>435</ele>
        <time>2022-09-29T09:53:42Z</time>
      </trkpt>
      <trkpt lat="46.7796" lon="6.64247">
        <ele>435</ele>
        <time>2022-09-29T09:53:43Z</time>
      </trkpt>
      <trkpt lat="46.77964" lon="6.64251">
        <ele>435.1</ele>
        <time>2022-09-29T09:53:44Z</time>
      </trkpt>
      <trkpt lat="46.77968" lon="6.64255">
        <ele>435.1</ele>
        <time>2022-09-29T09:53:45Z</time>
      </trkpt>
      <trkpt lat="46.77971" lon="6.64259">
        <ele>435.1</ele>
        <time>2022-09-29T09:53:46Z</time>
      </trkpt>
      <trkpt lat="46.77973" lon="6.64263">
        <ele>435.1</ele>
        <time>2022-09-29T09:53:47Z</time>
      </trkpt>
      <trkpt lat="46.77976" lon="6.64267">
        <ele>435.1</ele>
        <time>2022-09-29T09:53:48Z</time>
      </trkpt>
      <trkpt lat="46.77977" lon="6.64273">
        <ele>435.1</ele>
        <time>2022-09-29T09:53:49Z</time>
      </trkpt>
      <trkpt lat="46.77978" lon="6.64278">
        <ele>435.1</ele>
        <time>2022-09-29T09:53:50Z</time>
      </trkpt>
      <trkpt lat="46.77979" lon="6.64282">
        <ele>435.1</ele>
        <time>2022-09-29T09:53:51Z</time>
      </trkpt>
      <trkpt lat="46.77982" lon="6.64285">
        <ele>435.1</ele>
        <time>2022-09-29T09:53:52Z</time>
      </trkpt>
      <trkpt lat="46.77984" lon="6.64287">
        <ele>435</ele>
        <time>2022-09-29T09:53:53Z</time>
      </trkpt>
      <trkpt lat="46.77988" lon="6.64288">
        <ele>435</ele>
        <time>2022-09-29T09:53:54Z</time>
      </trkpt>
      <trkpt lat="46.77992" lon="6.64289">
        <ele>434.8</ele>
        <time>2022-09-29T09:53:55Z</time>
      </trkpt>
      <trkpt lat="46.77995" lon="6.6429">
        <ele>434.7</ele>
        <time>2022-09-29T09:53:56Z</time>
      </trkpt>
      <trkpt lat="46.77999" lon="6.64292">
        <ele>434.6</ele>
        <time>2022-09-29T09:53:57Z</time>
      </trkpt>
      <trkpt lat="46.78002" lon="6.64294">
        <ele>434.4</ele>
        <time>2022-09-29T09:53:58Z</time>
      </trkpt>
      <trkpt lat="46.78006" lon="6.64297">
        <ele>434.3</ele>
        <time>2022-09-29T09:53:59Z</time>
      </trkpt>
      <trkpt lat="46.7801" lon="6.643">
        <ele>434.1</ele>
        <time>2022-09-29T09:54:00Z</time>
      </trkpt>
      <trkpt lat="46.78014" lon="6.64304">
        <ele>433.9</ele>
        <time>2022-09-29T09:54:01Z</time>
      </trkpt>
      <trkpt lat="46.78017" lon="6.64308">
        <ele>433.7</ele>
        <time>2022-09-29T09:54:02Z</time>
      </trkpt>
      <trkpt lat="46.78022" lon="6.64312">
        <ele>433.6</ele>
        <time>2022-09-29T09:54:03Z</time>
      </trkpt>
      <trkpt lat="46.78027" lon="6.64316">
        <ele>433.4</ele>
        <time>2022-09-29T09:54:04Z</time>
      </trkpt>
      <trkpt lat="46.78032" lon="6.6432">
        <ele>433.2</ele>
        <time>2022-09-29T09:54:05Z</time>
      </trkpt>
      <trkpt lat="46.78037" lon="6.64324">
        <ele>433.1</ele>
        <time>2022-09-29T09:54:06Z</time>
      </trkpt>
      <trkpt lat="46.78041" lon="6.64328">
        <ele>432.9</ele>
        <time>2022-09-29T09:54:07Z</time>
      </trkpt>
      <trkpt lat="46.78045" lon="6.64332">
        <ele>432.8</ele>
        <time>2022-09-29T09:54:08Z</time>
      </trkpt>
      <trkpt lat="46.7805" lon="6.64336">
        <ele>432.6</ele>
        <time>2022-09-29T09:54:09Z</time>
      </trkpt>
      <trkpt lat="46.78055" lon="6.6434">
        <ele>432.4</ele>
        <time>2022-09-29T09:54:10Z</time>
      </trkpt>
      <trkpt lat="46.7806" lon="6.64344">
        <ele>432.3</ele>
        <time>2022-09-29T09:54:11Z</time>
      </trkpt>
      <trkpt lat="46.78064" lon="6.64348">
        <ele>432.2</ele>
        <time>2022-09-29T09:54:12Z</time>
      </trkpt>
      <trkpt lat="46.7807" lon="6.64353">
        <ele>432</ele>
        <time>2022-09-29T09:54:13Z</time>
      </trkpt>
      <trkpt lat="46.78075" lon="6.64357">
        <ele>431.9</ele>
        <time>2022-09-29T09:54:14Z</time>
      </trkpt>
      <trkpt lat="46.7808" lon="6.64361">
        <ele>431.9</ele>
        <time>2022-09-29T09:54:15Z</time>
      </trkpt>
      <trkpt lat="46.78086" lon="6.64365">
        <ele>431.8</ele>
        <time>2022-09-29T09:54:16Z</time>
      </trkpt>
      <trkpt lat="46.78091" lon="6.6437">
        <ele>431.8</ele>
        <time>2022-09-29T09:54:17Z</time>
      </trkpt>
      <trkpt lat="46.78096" lon="6.64374">
        <ele>431.8</ele>
        <time>2022-09-29T09:54:18Z</time>
      </trkpt>
      <trkpt lat="46.78101" lon="6.64378">
        <ele>431.8</ele>
        <time>2022-09-29T09:54:19Z</time>
      </trkpt>
      <trkpt lat="46.78106" lon="6.64382">
        <ele>431.8</ele>
        <time>2022-09-29T09:54:20Z</time>
      </trkpt>
      <trkpt lat="46.7811" lon="6.64387">
        <ele>431.8</ele>
        <time>2022-09-29T09:54:21Z</time>
      </trkpt>
      <trkpt lat="46.78114" lon="6.6439">
        <ele>431.8</ele>
        <time>2022-09-29T09:54:22Z</time>
      </trkpt>
      <trkpt lat="46.7812" lon="6.64394">
        <ele>431.8</ele>
        <time>2022-09-29T09:54:23Z</time>
      </trkpt>
      <trkpt lat="46.78125" lon="6.64398">
        <ele>431.8</ele>
        <time>2022-09-29T09:54:24Z</time>
      </trkpt>
      <trkpt lat="46.78128" lon="6.64401">
        <ele>431.9</ele>
        <time>2022-09-29T09:54:25Z</time>
      </trkpt>
      <trkpt lat="46.78134" lon="6.64405">
        <ele>432</ele>
        <time>2022-09-29T09:54:26Z</time>
      </trkpt>
      <trkpt lat="46.78138" lon="6.64408">
        <ele>432.1</ele>
        <time>2022-09-29T09:54:27Z</time>
      </trkpt>
      <trkpt lat="46.78143" lon="6.6441">
        <ele>432.2</ele>
        <time>2022-09-29T09:54:28Z</time>
      </trkpt>
      <trkpt lat="46.78147" lon="6.64413">
        <ele>432.3</ele>
        <time>2022-09-29T09:54:29Z</time>
      </trkpt>
      <trkpt lat="46.78151" lon="6.64415">
        <ele>432.4</ele>
        <time>2022-09-29T09:54:30Z</time>
      </trkpt>
      <trkpt lat="46.78154" lon="6.64419">
        <ele>432.5</ele>
        <time>2022-09-29T09:54:31Z</time>
      </trkpt>
      <trkpt lat="46.78159" lon="6.64422">
        <ele>432.6</ele>
        <time>2022-09-29T09:54:32Z</time>
      </trkpt>
      <trkpt lat="46.78163" lon="6.64425">
        <ele>432.7</ele>
        <time>2022-09-29T09:54:33Z</time>
      </trkpt>
      <trkpt lat="46.78166" lon="6.64427">
        <ele>432.8</ele>
        <time>2022-09-29T09:54:34Z</time>
      </trkpt>
      <trkpt lat="46.7817" lon="6.64429">
        <ele>432.9</ele>
        <time>2022-09-29T09:54:35Z</time>
      </trkpt>
      <trkpt lat="46.78174" lon="6.64431">
        <ele>433</ele>
        <time>2022-09-29T09:54:36Z</time>
      </trkpt>
      <trkpt lat="46.78177" lon="6.64434">
        <ele>433.1</ele>
        <time>2022-09-29T09:54:37Z</time>
      </trkpt>
      <trkpt lat="46.78181" lon="6.64436">
        <ele>433.1</ele>
        <time>2022-09-29T09:54:38Z</time>
      </trkpt>
      <trkpt lat="46.78184" lon="6.64438">
        <ele>433.2</ele>
        <time>2022-09-29T09:54:39Z</time>
      </trkpt>
      <trkpt lat="46.78188" lon="6.6444">
        <ele>433.3</ele>
        <time>2022-09-29T09:54:40Z</time>
      </trkpt>
      <trkpt lat="46.78191" lon="6.64443">
        <ele>433.3</ele>
        <time>2022-09-29T09:54:41Z</time>
      </trkpt>
      <trkpt lat="46.78194" lon="6.64444">
        <ele>433.4</ele>
        <time>2022-09-29T09:54:42Z</time>
      </trkpt>
      <trkpt lat="46.78198" lon="6.64447">
        <ele>433.4</ele>
        <time>2022-09-29T09:54:43Z</time>
      </trkpt>
      <trkpt lat="46.78202" lon="6.64449">
        <ele>433.5</ele>
        <time>2022-09-29T09:54:44Z</time>
      </trkpt>
      <trkpt lat="46.78206" lon="6.64453">
        <ele>433.5</ele>
        <time>2022-09-29T09:54:45Z</time>
      </trkpt>
      <trkpt lat="46.7821" lon="6.64456">
        <ele>433.5</ele>
        <time>2022-09-29T09:54:46Z</time>
      </trkpt>
      <trkpt lat="46.78214" lon="6.64459">
        <ele>433.6</ele>
        <time>2022-09-29T09:54:47Z</time>
      </trkpt>
      <trkpt lat="46.78218" lon="6.64462">
        <ele>433.6</ele>
        <time>2022-09-29T09:54:48Z</time>
      </trkpt>
      <trkpt lat="46.78222" lon="6.64465">
        <ele>433.6</ele>
        <time>2022-09-29T09:54:49Z</time>
      </trkpt>
      <trkpt lat="46.78226" lon="6.64468">
        <ele>433.6</ele>
        <time>2022-09-29T09:54:50Z</time>
      </trkpt>
      <trkpt lat="46.7823" lon="6.6447">
        <ele>433.6</ele>
        <time>2022-09-29T09:54:51Z</time>
      </trkpt>
      <trkpt lat="46.78234" lon="6.64474">
        <ele>433.7</ele>
        <time>2022-09-29T09:54:52Z</time>
      </trkpt>
      <trkpt lat="46.78237" lon="6.64477">
        <ele>433.7</ele>
        <time>2022-09-29T09:54:53Z</time>
      </trkpt>
      <trkpt lat="46.78241" lon="6.6448">
        <ele>433.7</ele>
        <time>2022-09-29T09:54:54Z</time>
      </trkpt>
      <trkpt lat="46.78246" lon="6.64483">
        <ele>433.7</ele>
        <time>2022-09-29T09:54:55Z</time>
      </trkpt>
      <trkpt lat="46.7825" lon="6.64486">
        <ele>433.7</ele>
        <time>2022-09-29T09:54:56Z</time>
      </trkpt>
      <trkpt lat="46.78254" lon="6.64489">
        <ele>433.7</ele>
        <time>2022-09-29T09:54:57Z</time>
      </trkpt>
      <trkpt lat="46.78258" lon="6.64492">
        <ele>433.7</ele>
        <time>2022-09-29T09:54:58Z</time>
      </trkpt>
      <trkpt lat="46.78262" lon="6.64495">
        <ele>433.7</ele>
        <time>2022-09-29T09:54:59Z</time>
      </trkpt>
      <trkpt lat="46.78266" lon="6.64498">
        <ele>433.7</ele>
        <time>2022-09-29T09:55:00Z</time>
      </trkpt>
      <trkpt lat="46.7827" lon="6.64502">
        <ele>433.7</ele>
        <time>2022-09-29T09:55:01Z</time>
      </trkpt>
      <trkpt lat="46.78274" lon="6.64505">
        <ele>433.7</ele>
        <time>2022-09-29T09:55:02Z</time>
      </trkpt>
      <trkpt lat="46.78278" lon="6.64507">
        <ele>433.6</ele>
        <time>2022-09-29T09:55:03Z</time>
      </trkpt>
      <trkpt lat="46.78282" lon="6.64511">
        <ele>433.6</ele>
        <time>2022-09-29T09:55:04Z</time>
      </trkpt>
      <trkpt lat="46.78286" lon="6.64514">
        <ele>433.6</ele>
        <time>2022-09-29T09:55:05Z</time>
      </trkpt>
      <trkpt lat="46.78288" lon="6.64516">
        <ele>433.6</ele>
        <time>2022-09-29T09:55:06Z</time>
      </trkpt>
      <trkpt lat="46.78291" lon="6.64518">
        <ele>433.6</ele>
        <time>2022-09-29T09:55:07Z</time>
      </trkpt>
      <trkpt lat="46.78292" lon="6.64519">
        <ele>433.6</ele>
        <time>2022-09-29T09:55:08Z</time>
      </trkpt>
      <trkpt lat="46.78292" lon="6.64519">
        <ele>433.6</ele>
        <time>2022-09-29T09:55:09Z</time>
      </trkpt>
      <trkpt lat="46.78293" lon="6.6452">
        <ele>433.6</ele>
        <time>2022-09-29T09:55:10Z</time>
      </trkpt>
      <trkpt lat="46.78294" lon="6.6452">
        <ele>433.6</ele>
        <time>2022-09-29T09:55:11Z</time>
      </trkpt>
      <trkpt lat="46.78294" lon="6.6452">
        <ele>433.6</ele>
        <time>2022-09-29T09:55:12Z</time>
      </trkpt>
      <trkpt lat="46.78294" lon="6.6452">
        <ele>433.6</ele>
        <time>2022-09-29T09:55:13Z</time>
      </trkpt>
      <trkpt lat="46.78294" lon="6.6452">
        <ele>433.6</ele>
        <time>2022-09-29T09:55:14Z</time>
      </trkpt>
      <trkpt lat="46.78294" lon="6.6452">
        <ele>433.6</ele>
        <time>2022-09-29T09:55:15Z</time>
      </trkpt>
      <trkpt lat="46.78297" lon="6.64522">
        <ele>433.6</ele>
        <time>2022-09-29T09:55:16Z</time>
      </trkpt>
      <trkpt lat="46.78299" lon="6.64523">
        <ele>433.6</ele>
        <time>2022-09-29T09:55:17Z</time>
      </trkpt>
      <trkpt lat="46.78301" lon="6.64525">
        <ele>433.5</ele>
        <time>2022-09-29T09:55:54Z</time>
      </trkpt>
      <trkpt lat="46.78303" lon="6.64526">
        <ele>433.5</ele>
        <time>2022-09-29T09:55:55Z</time>
      </trkpt>
      <trkpt lat="46.78306" lon="6.64528">
        <ele>433.4</ele>
        <time>2022-09-29T09:55:56Z</time>
      </trkpt>
      <trkpt lat="46.78308" lon="6.64531">
        <ele>433.3</ele>
        <time>2022-09-29T09:55:57Z</time>
      </trkpt>
      <trkpt lat="46.78311" lon="6.64534">
        <ele>433.3</ele>
        <time>2022-09-29T09:55:58Z</time>
      </trkpt>
      <trkpt lat="46.78314" lon="6.64536">
        <ele>433.2</ele>
        <time>2022-09-29T09:55:59Z</time>
      </trkpt>
      <trkpt lat="46.78318" lon="6.64538">
        <ele>433.2</ele>
        <time>2022-09-29T09:56:00Z</time>
      </trkpt>
      <trkpt lat="46.78321" lon="6.6454">
        <ele>433.2</ele>
        <time>2022-09-29T09:56:01Z</time>
      </trkpt>
      <trkpt lat="46.78324" lon="6.64543">
        <ele>433.1</ele>
        <time>2022-09-29T09:56:02Z</time>
      </trkpt>
      <trkpt lat="46.78328" lon="6.64546">
        <ele>433.1</ele>
        <time>2022-09-29T09:56:03Z</time>
      </trkpt>
      <trkpt lat="46.78332" lon="6.64548">
        <ele>433.1</ele>
        <time>2022-09-29T09:56:04Z</time>
      </trkpt>
      <trkpt lat="46.78335" lon="6.64551">
        <ele>433</ele>
        <time>2022-09-29T09:56:05Z</time>
      </trkpt>
      <trkpt lat="46.78339" lon="6.64554">
        <ele>433</ele>
        <time>2022-09-29T09:56:06Z</time>
      </trkpt>
      <trkpt lat="46.78342" lon="6.64557">
        <ele>432.9</ele>
        <time>2022-09-29T09:56:07Z</time>
      </trkpt>
      <trkpt lat="46.78346" lon="6.6456">
        <ele>432.9</ele>
        <time>2022-09-29T09:56:08Z</time>
      </trkpt>
      <trkpt lat="46.7835" lon="6.64562">
        <ele>432.8</ele>
        <time>2022-09-29T09:56:09Z</time>
      </trkpt>
      <trkpt lat="46.78355" lon="6.64566">
        <ele>432.7</ele>
        <time>2022-09-29T09:56:10Z</time>
      </trkpt>
      <trkpt lat="46.78359" lon="6.64569">
        <ele>432.7</ele>
        <time>2022-09-29T09:56:11Z</time>
      </trkpt>
      <trkpt lat="46.78364" lon="6.64573">
        <ele>432.6</ele>
        <time>2022-09-29T09:56:12Z</time>
      </trkpt>
      <trkpt lat="46.78368" lon="6.64576">
        <ele>432.6</ele>
        <time>2022-09-29T09:56:13Z</time>
      </trkpt>
      <trkpt lat="46.78372" lon="6.64578">
        <ele>432.5</ele>
        <time>2022-09-29T09:56:14Z</time>
      </trkpt>
      <trkpt lat="46.78376" lon="6.6458">
        <ele>432.5</ele>
        <time>2022-09-29T09:56:15Z</time>
      </trkpt>
      <trkpt lat="46.7838" lon="6.64583">
        <ele>432.4</ele>
        <time>2022-09-29T09:56:16Z</time>
      </trkpt>
      <trkpt lat="46.78384" lon="6.64586">
        <ele>432.4</ele>
        <time>2022-09-29T09:56:17Z</time>
      </trkpt>
      <trkpt lat="46.78388" lon="6.64589">
        <ele>432.3</ele>
        <time>2022-09-29T09:56:18Z</time>
      </trkpt>
      <trkpt lat="46.78392" lon="6.64591">
        <ele>432.3</ele>
        <time>2022-09-29T09:56:19Z</time>
      </trkpt>
      <trkpt lat="46.78396" lon="6.64594">
        <ele>432.3</ele>
        <time>2022-09-29T09:56:20Z</time>
      </trkpt>
      <trkpt lat="46.784" lon="6.64597">
        <ele>432.3</ele>
        <time>2022-09-29T09:56:21Z</time>
      </trkpt>
      <trkpt lat="46.78404" lon="6.64601">
        <ele>432.3</ele>
        <time>2022-09-29T09:56:22Z</time>
      </trkpt>
      <trkpt lat="46.78409" lon="6.64605">
        <ele>432.3</ele>
        <time>2022-09-29T09:56:23Z</time>
      </trkpt>
      <trkpt lat="46.78414" lon="6.64609">
        <ele>432.2</ele>
        <time>2022-09-29T09:56:24Z</time>
      </trkpt>
      <trkpt lat="46.78418" lon="6.64612">
        <ele>432.2</ele>
        <time>2022-09-29T09:56:25Z</time>
      </trkpt>
      <trkpt lat="46.78423" lon="6.64616">
        <ele>432.2</ele>
        <time>2022-09-29T09:56:26Z</time>
      </trkpt>
      <trkpt lat="46.78428" lon="6.6462">
        <ele>432.2</ele>
        <time>2022-09-29T09:56:27Z</time>
      </trkpt>
      <trkpt lat="46.78432" lon="6.64624">
        <ele>432.2</ele>
        <time>2022-09-29T09:56:28Z</time>
      </trkpt>
      <trkpt lat="46.78437" lon="6.64628">
        <ele>432.1</ele>
        <time>2022-09-29T09:56:29Z</time>
      </trkpt>
      <trkpt lat="46.78442" lon="6.64631">
        <ele>432.1</ele>
        <time>2022-09-29T09:56:30Z</time>
      </trkpt>
      <trkpt lat="46.78447" lon="6.64635">
        <ele>432.1</ele>
        <time>2022-09-29T09:56:31Z</time>
      </trkpt>
      <trkpt lat="46.78451" lon="6.64639">
        <ele>432.1</ele>
        <time>2022-09-29T09:56:32Z</time>
      </trkpt>
      <trkpt lat="46.78455" lon="6.64642">
        <ele>432.1</ele>
        <time>2022-09-29T09:56:33Z</time>
      </trkpt>
      <trkpt lat="46.78459" lon="6.64646">
        <ele>432.1</ele>
        <time>2022-09-29T09:56:34Z</time>
      </trkpt>
      <trkpt lat="46.78463" lon="6.6465">
        <ele>432.1</ele>
        <time>2022-09-29T09:56:35Z</time>
      </trkpt>
      <trkpt lat="46.78467" lon="6.64654">
        <ele>432.1</ele>
        <time>2022-09-29T09:56:36Z</time>
      </trkpt>
      <trkpt lat="46.78471" lon="6.64656">
        <ele>432.1</ele>
        <time>2022-09-29T09:56:37Z</time>
      </trkpt>
      <trkpt lat="46.78476" lon="6.6466">
        <ele>432.1</ele>
        <time>2022-09-29T09:56:38Z</time>
      </trkpt>
      <trkpt lat="46.7848" lon="6.64663">
        <ele>432.1</ele>
        <time>2022-09-29T09:56:39Z</time>
      </trkpt>
      <trkpt lat="46.78484" lon="6.64667">
        <ele>432</ele>
        <time>2022-09-29T09:56:40Z</time>
      </trkpt>
      <trkpt lat="46.78489" lon="6.64671">
        <ele>432</ele>
        <time>2022-09-29T09:56:41Z</time>
      </trkpt>
      <trkpt lat="46.78493" lon="6.64674">
        <ele>432</ele>
        <time>2022-09-29T09:56:42Z</time>
      </trkpt>
      <trkpt lat="46.78496" lon="6.64677">
        <ele>432</ele>
        <time>2022-09-29T09:56:43Z</time>
      </trkpt>
      <trkpt lat="46.785" lon="6.6468">
        <ele>432</ele>
        <time>2022-09-29T09:56:44Z</time>
      </trkpt>
      <trkpt lat="46.78504" lon="6.64684">
        <ele>432</ele>
        <time>2022-09-29T09:56:45Z</time>
      </trkpt>
      <trkpt lat="46.78508" lon="6.64688">
        <ele>432</ele>
        <time>2022-09-29T09:56:46Z</time>
      </trkpt>
      <trkpt lat="46.78511" lon="6.64692">
        <ele>432</ele>
        <time>2022-09-29T09:56:47Z</time>
      </trkpt>
      <trkpt lat="46.78514" lon="6.64695">
        <ele>431.9</ele>
        <time>2022-09-29T09:56:48Z</time>
      </trkpt>
      <trkpt lat="46.78516" lon="6.64699">
        <ele>431.9</ele>
        <time>2022-09-29T09:56:49Z</time>
      </trkpt>
      <trkpt lat="46.78518" lon="6.64703">
        <ele>432</ele>
        <time>2022-09-29T09:56:50Z</time>
      </trkpt>
      <trkpt lat="46.78519" lon="6.64707">
        <ele>432</ele>
        <time>2022-09-29T09:56:51Z</time>
      </trkpt>
      <trkpt lat="46.78518" lon="6.64712">
        <ele>432</ele>
        <time>2022-09-29T09:56:52Z</time>
      </trkpt>
      <trkpt lat="46.78517" lon="6.64714">
        <ele>432</ele>
        <time>2022-09-29T09:56:53Z</time>
      </trkpt>
      <trkpt lat="46.78515" lon="6.64717">
        <ele>432</ele>
        <time>2022-09-29T09:56:54Z</time>
      </trkpt>
      <trkpt lat="46.78515" lon="6.64718">
        <ele>432</ele>
        <time>2022-09-29T09:56:55Z</time>
      </trkpt>
      <trkpt lat="46.78513" lon="6.64722">
        <ele>432.1</ele>
        <time>2022-09-29T09:56:56Z</time>
      </trkpt>
      <trkpt lat="46.78512" lon="6.64724">
        <ele>432.1</ele>
        <time>2022-09-29T09:56:57Z</time>
      </trkpt>
      <trkpt lat="46.7851" lon="6.64727">
        <ele>432</ele>
        <time>2022-09-29T09:56:58Z</time>
      </trkpt>
      <trkpt lat="46.78508" lon="6.64731">
        <ele>432</ele>
        <time>2022-09-29T09:56:59Z</time>
      </trkpt>
      <trkpt lat="46.78506" lon="6.64735">
        <ele>432</ele>
        <time>2022-09-29T09:57:00Z</time>
      </trkpt>
      <trkpt lat="46.78504" lon="6.6474">
        <ele>432</ele>
        <time>2022-09-29T09:57:01Z</time>
      </trkpt>
      <trkpt lat="46.78502" lon="6.64745">
        <ele>432</ele>
        <time>2022-09-29T09:57:02Z</time>
      </trkpt>
      <trkpt lat="46.78499" lon="6.6475">
        <ele>432</ele>
        <time>2022-09-29T09:57:03Z</time>
      </trkpt>
      <trkpt lat="46.78497" lon="6.64755">
        <ele>432</ele>
        <time>2022-09-29T09:57:04Z</time>
      </trkpt>
      <trkpt lat="46.78495" lon="6.64759">
        <ele>432</ele>
        <time>2022-09-29T09:57:05Z</time>
      </trkpt>
      <trkpt lat="46.78493" lon="6.64764">
        <ele>431.9</ele>
        <time>2022-09-29T09:57:06Z</time>
      </trkpt>
      <trkpt lat="46.7849" lon="6.64769">
        <ele>431.9</ele>
        <time>2022-09-29T09:57:07Z</time>
      </trkpt>
      <trkpt lat="46.78488" lon="6.64774">
        <ele>431.9</ele>
        <time>2022-09-29T09:57:08Z</time>
      </trkpt>
      <trkpt lat="46.78487" lon="6.64778">
        <ele>431.9</ele>
        <time>2022-09-29T09:57:09Z</time>
      </trkpt>
      <trkpt lat="46.78486" lon="6.64784">
        <ele>431.9</ele>
        <time>2022-09-29T09:57:10Z</time>
      </trkpt>
      <trkpt lat="46.78485" lon="6.6479">
        <ele>431.9</ele>
        <time>2022-09-29T09:57:11Z</time>
      </trkpt>
      <trkpt lat="46.78483" lon="6.64796">
        <ele>431.9</ele>
        <time>2022-09-29T09:57:12Z</time>
      </trkpt>
      <trkpt lat="46.78481" lon="6.64802">
        <ele>431.9</ele>
        <time>2022-09-29T09:57:13Z</time>
      </trkpt>
      <trkpt lat="46.78478" lon="6.64807">
        <ele>431.9</ele>
        <time>2022-09-29T09:57:14Z</time>
      </trkpt>
      <trkpt lat="46.78475" lon="6.64811">
        <ele>431.9</ele>
        <time>2022-09-29T09:57:15Z</time>
      </trkpt>
      <trkpt lat="46.78472" lon="6.64816">
        <ele>431.9</ele>
        <time>2022-09-29T09:57:16Z</time>
      </trkpt>
      <trkpt lat="46.7847" lon="6.64821">
        <ele>432</ele>
        <time>2022-09-29T09:57:17Z</time>
      </trkpt>
      <trkpt lat="46.78467" lon="6.64827">
        <ele>432</ele>
        <time>2022-09-29T09:57:18Z</time>
      </trkpt>
      <trkpt lat="46.78465" lon="6.64832">
        <ele>432</ele>
        <time>2022-09-29T09:57:19Z</time>
      </trkpt>
      <trkpt lat="46.78463" lon="6.64837">
        <ele>432</ele>
        <time>2022-09-29T09:57:20Z</time>
      </trkpt>
      <trkpt lat="46.78461" lon="6.64841">
        <ele>432</ele>
        <time>2022-09-29T09:57:21Z</time>
      </trkpt>
      <trkpt lat="46.7846" lon="6.64846">
        <ele>432</ele>
        <time>2022-09-29T09:57:22Z</time>
      </trkpt>
      <trkpt lat="46.78458" lon="6.6485">
        <ele>432</ele>
        <time>2022-09-29T09:57:23Z</time>
      </trkpt>
      <trkpt lat="46.78456" lon="6.64855">
        <ele>432.1</ele>
        <time>2022-09-29T09:57:24Z</time>
      </trkpt>
      <trkpt lat="46.78454" lon="6.64859">
        <ele>432.1</ele>
        <time>2022-09-29T09:57:25Z</time>
      </trkpt>
      <trkpt lat="46.78451" lon="6.64864">
        <ele>432.1</ele>
        <time>2022-09-29T09:57:26Z</time>
      </trkpt>
      <trkpt lat="46.78449" lon="6.64869">
        <ele>432.1</ele>
        <time>2022-09-29T09:57:27Z</time>
      </trkpt>
      <trkpt lat="46.78447" lon="6.64875">
        <ele>432.1</ele>
        <time>2022-09-29T09:57:28Z</time>
      </trkpt>
      <trkpt lat="46.78444" lon="6.6488">
        <ele>432.1</ele>
        <time>2022-09-29T09:57:29Z</time>
      </trkpt>
      <trkpt lat="46.78442" lon="6.64886">
        <ele>432.1</ele>
        <time>2022-09-29T09:57:30Z</time>
      </trkpt>
      <trkpt lat="46.78439" lon="6.64892">
        <ele>432.1</ele>
        <time>2022-09-29T09:57:31Z</time>
      </trkpt>
      <trkpt lat="46.78436" lon="6.64897">
        <ele>432.1</ele>
        <time>2022-09-29T09:57:32Z</time>
      </trkpt>
      <trkpt lat="46.78432" lon="6.64902">
        <ele>432.2</ele>
        <time>2022-09-29T09:57:33Z</time>
      </trkpt>
      <trkpt lat="46.7843" lon="6.64907">
        <ele>432.2</ele>
        <time>2022-09-29T09:57:34Z</time>
      </trkpt>
      <trkpt lat="46.78427" lon="6.64914">
        <ele>432.2</ele>
        <time>2022-09-29T09:57:35Z</time>
      </trkpt>
      <trkpt lat="46.78424" lon="6.6492">
        <ele>432.2</ele>
        <time>2022-09-29T09:57:36Z</time>
      </trkpt>
      <trkpt lat="46.78422" lon="6.64926">
        <ele>432.3</ele>
        <time>2022-09-29T09:57:37Z</time>
      </trkpt>
      <trkpt lat="46.78419" lon="6.64932">
        <ele>432.3</ele>
        <time>2022-09-29T09:57:38Z</time>
      </trkpt>
      <trkpt lat="46.78416" lon="6.64937">
        <ele>432.3</ele>
        <time>2022-09-29T09:57:39Z</time>
      </trkpt>
      <trkpt lat="46.78414" lon="6.64943">
        <ele>432.3</ele>
        <time>2022-09-29T09:57:40Z</time>
      </trkpt>
      <trkpt lat="46.78411" lon="6.64948">
        <ele>432.4</ele>
        <time>2022-09-29T09:57:41Z</time>
      </trkpt>
      <trkpt lat="46.78409" lon="6.64953">
        <ele>432.4</ele>
        <time>2022-09-29T09:57:42Z</time>
      </trkpt>
      <trkpt lat="46.78407" lon="6.64959">
        <ele>432.4</ele>
        <time>2022-09-29T09:57:43Z</time>
      </trkpt>
      <trkpt lat="46.78404" lon="6.64964">
        <ele>432.4</ele>
        <time>2022-09-29T09:57:44Z</time>
      </trkpt>
      <trkpt lat="46.78402" lon="6.64969">
        <ele>432.4</ele>
        <time>2022-09-29T09:57:45Z</time>
      </trkpt>
      <trkpt lat="46.784" lon="6.64973">
        <ele>432.4</ele>
        <time>2022-09-29T09:57:46Z</time>
      </trkpt>
      <trkpt lat="46.78398" lon="6.64978">
        <ele>432.3</ele>
        <time>2022-09-29T09:57:47Z</time>
      </trkpt>
      <trkpt lat="46.78398" lon="6.64979">
        <ele>432.3</ele>
        <time>2022-09-29T09:57:48Z</time>
      </trkpt>
      <trkpt lat="46.78397" lon="6.64982">
        <ele>432.3</ele>
        <time>2022-09-29T09:57:49Z</time>
      </trkpt>
      <trkpt lat="46.78397" lon="6.64982">
        <ele>432.3</ele>
        <time>2022-09-29T09:57:50Z</time>
      </trkpt>
      <trkpt lat="46.78397" lon="6.64983">
        <ele>432.3</ele>
        <time>2022-09-29T09:57:51Z</time>
      </trkpt>
      <trkpt lat="46.78397" lon="6.64984">
        <ele>432.3</ele>
        <time>2022-09-29T09:57:52Z</time>
      </trkpt>
      <trkpt lat="46.78397" lon="6.64984">
        <ele>432.3</ele>
        <time>2022-09-29T09:57:53Z</time>
      </trkpt>
      <trkpt lat="46.78396" lon="6.64985">
        <ele>432.3</ele>
        <time>2022-09-29T09:57:54Z</time>
      </trkpt>
      <trkpt lat="46.78396" lon="6.64989">
        <ele>432.3</ele>
        <time>2022-09-29T09:57:55Z</time>
      </trkpt>
      <trkpt lat="46.78396" lon="6.6499">
        <ele>432.3</ele>
        <time>2022-09-29T09:57:56Z</time>
      </trkpt>
      <trkpt lat="46.78393" lon="6.64995">
        <ele>432.3</ele>
        <time>2022-09-29T09:57:57Z</time>
      </trkpt>
      <trkpt lat="46.78392" lon="6.64996">
        <ele>432.3</ele>
        <time>2022-09-29T09:57:58Z</time>
      </trkpt>
      <trkpt lat="46.78389" lon="6.64997">
        <ele>432.3</ele>
        <time>2022-09-29T09:57:59Z</time>
      </trkpt>
      <trkpt lat="46.78388" lon="6.64997">
        <ele>432.3</ele>
        <time>2022-09-29T09:58:00Z</time>
      </trkpt>
      <trkpt lat="46.78387" lon="6.64999">
        <ele>432.3</ele>
        <time>2022-09-29T09:58:01Z</time>
      </trkpt>
      <trkpt lat="46.78386" lon="6.65001">
        <ele>432.3</ele>
        <time>2022-09-29T09:58:02Z</time>
      </trkpt>
      <trkpt lat="46.78384" lon="6.65005">
        <ele>432.2</ele>
        <time>2022-09-29T09:58:03Z</time>
      </trkpt>
      <trkpt lat="46.78383" lon="6.65009">
        <ele>432.2</ele>
        <time>2022-09-29T09:58:04Z</time>
      </trkpt>
      <trkpt lat="46.78382" lon="6.65014">
        <ele>432.2</ele>
        <time>2022-09-29T09:58:05Z</time>
      </trkpt>
      <trkpt lat="46.7838" lon="6.65019">
        <ele>432.2</ele>
        <time>2022-09-29T09:58:06Z</time>
      </trkpt>
      <trkpt lat="46.78376" lon="6.65023">
        <ele>432.2</ele>
        <time>2022-09-29T09:58:07Z</time>
      </trkpt>
      <trkpt lat="46.78374" lon="6.65028">
        <ele>432.1</ele>
        <time>2022-09-29T09:58:08Z</time>
      </trkpt>
      <trkpt lat="46.78371" lon="6.65034">
        <ele>432.1</ele>
        <time>2022-09-29T09:58:09Z</time>
      </trkpt>
      <trkpt lat="46.78369" lon="6.65039">
        <ele>432.1</ele>
        <time>2022-09-29T09:58:10Z</time>
      </trkpt>
      <trkpt lat="46.78367" lon="6.65044">
        <ele>432.1</ele>
        <time>2022-09-29T09:58:11Z</time>
      </trkpt>
      <trkpt lat="46.78364" lon="6.6505">
        <ele>432.1</ele>
        <time>2022-09-29T09:58:12Z</time>
      </trkpt>
      <trkpt lat="46.78362" lon="6.65055">
        <ele>432.1</ele>
        <time>2022-09-29T09:58:13Z</time>
      </trkpt>
      <trkpt lat="46.78359" lon="6.6506">
        <ele>432.1</ele>
        <time>2022-09-29T09:58:14Z</time>
      </trkpt>
      <trkpt lat="46.78357" lon="6.65066">
        <ele>432.1</ele>
        <time>2022-09-29T09:58:15Z</time>
      </trkpt>
      <trkpt lat="46.78354" lon="6.65072">
        <ele>432.1</ele>
        <time>2022-09-29T09:58:16Z</time>
      </trkpt>
      <trkpt lat="46.78352" lon="6.65077">
        <ele>432.1</ele>
        <time>2022-09-29T09:58:17Z</time>
      </trkpt>
      <trkpt lat="46.7835" lon="6.65082">
        <ele>432.1</ele>
        <time>2022-09-29T09:58:18Z</time>
      </trkpt>
      <trkpt lat="46.78348" lon="6.65087">
        <ele>432.1</ele>
        <time>2022-09-29T09:58:19Z</time>
      </trkpt>
      <trkpt lat="46.78345" lon="6.65092">
        <ele>432.1</ele>
        <time>2022-09-29T09:58:20Z</time>
      </trkpt>
      <trkpt lat="46.78343" lon="6.65097">
        <ele>432.1</ele>
        <time>2022-09-29T09:58:21Z</time>
      </trkpt>
      <trkpt lat="46.78341" lon="6.65103">
        <ele>432.1</ele>
        <time>2022-09-29T09:58:22Z</time>
      </trkpt>
      <trkpt lat="46.78337" lon="6.65107">
        <ele>432.1</ele>
        <time>2022-09-29T09:58:23Z</time>
      </trkpt>
      <trkpt lat="46.78335" lon="6.65112">
        <ele>432.1</ele>
        <time>2022-09-29T09:58:24Z</time>
      </trkpt>
      <trkpt lat="46.78334" lon="6.65117">
        <ele>432.1</ele>
        <time>2022-09-29T09:58:25Z</time>
      </trkpt>
      <trkpt lat="46.78332" lon="6.65122">
        <ele>432.2</ele>
        <time>2022-09-29T09:58:26Z</time>
      </trkpt>
      <trkpt lat="46.78331" lon="6.65127">
        <ele>432.2</ele>
        <time>2022-09-29T09:58:27Z</time>
      </trkpt>
      <trkpt lat="46.78329" lon="6.65132">
        <ele>432.2</ele>
        <time>2022-09-29T09:58:28Z</time>
      </trkpt>
      <trkpt lat="46.78327" lon="6.65137">
        <ele>432.2</ele>
        <time>2022-09-29T09:58:29Z</time>
      </trkpt>
      <trkpt lat="46.78325" lon="6.65141">
        <ele>432.2</ele>
        <time>2022-09-29T09:58:30Z</time>
      </trkpt>
      <trkpt lat="46.78323" lon="6.65145">
        <ele>432.2</ele>
        <time>2022-09-29T09:58:31Z</time>
      </trkpt>
      <trkpt lat="46.78321" lon="6.65148">
        <ele>432.2</ele>
        <time>2022-09-29T09:58:32Z</time>
      </trkpt>
      <trkpt lat="46.78319" lon="6.65151">
        <ele>432.2</ele>
        <time>2022-09-29T09:58:33Z</time>
      </trkpt>
      <trkpt lat="46.78317" lon="6.65156">
        <ele>432.3</ele>
        <time>2022-09-29T09:58:34Z</time>
      </trkpt>
      <trkpt lat="46.78315" lon="6.6516">
        <ele>432.3</ele>
        <time>2022-09-29T09:58:35Z</time>
      </trkpt>
      <trkpt lat="46.78313" lon="6.65165">
        <ele>432.3</ele>
        <time>2022-09-29T09:58:36Z</time>
      </trkpt>
      <trkpt lat="46.78311" lon="6.65171">
        <ele>432.3</ele>
        <time>2022-09-29T09:58:37Z</time>
      </trkpt>
      <trkpt lat="46.78309" lon="6.65176">
        <ele>432.3</ele>
        <time>2022-09-29T09:58:38Z</time>
      </trkpt>
      <trkpt lat="46.78307" lon="6.65182">
        <ele>432.3</ele>
        <time>2022-09-29T09:58:39Z</time>
      </trkpt>
      <trkpt lat="46.78304" lon="6.65186">
        <ele>432.3</ele>
        <time>2022-09-29T09:58:40Z</time>
      </trkpt>
      <trkpt lat="46.78301" lon="6.65191">
        <ele>432.3</ele>
        <time>2022-09-29T09:58:41Z</time>
      </trkpt>
      <trkpt lat="46.783" lon="6.65196">
        <ele>432.3</ele>
        <time>2022-09-29T09:58:42Z</time>
      </trkpt>
      <trkpt lat="46.78297" lon="6.65202">
        <ele>432.3</ele>
        <time>2022-09-29T09:58:43Z</time>
      </trkpt>
      <trkpt lat="46.78295" lon="6.65208">
        <ele>432.3</ele>
        <time>2022-09-29T09:58:44Z</time>
      </trkpt>
      <trkpt lat="46.78293" lon="6.65214">
        <ele>432.3</ele>
        <time>2022-09-29T09:58:45Z</time>
      </trkpt>
      <trkpt lat="46.78292" lon="6.6522">
        <ele>432.3</ele>
        <time>2022-09-29T09:58:46Z</time>
      </trkpt>
      <trkpt lat="46.7829" lon="6.65227">
        <ele>432.3</ele>
        <time>2022-09-29T09:58:47Z</time>
      </trkpt>
      <trkpt lat="46.78288" lon="6.65233">
        <ele>432.3</ele>
        <time>2022-09-29T09:58:48Z</time>
      </trkpt>
      <trkpt lat="46.78287" lon="6.65239">
        <ele>432.3</ele>
        <time>2022-09-29T09:58:49Z</time>
      </trkpt>
      <trkpt lat="46.78286" lon="6.65245">
        <ele>432.3</ele>
        <time>2022-09-29T09:58:50Z</time>
      </trkpt>
      <trkpt lat="46.78285" lon="6.65251">
        <ele>432.3</ele>
        <time>2022-09-29T09:58:51Z</time>
      </trkpt>
      <trkpt lat="46.78284" lon="6.65257">
        <ele>432.3</ele>
        <time>2022-09-29T09:58:52Z</time>
      </trkpt>
      <trkpt lat="46.78283" lon="6.65263">
        <ele>432.3</ele>
        <time>2022-09-29T09:58:53Z</time>
      </trkpt>
      <trkpt lat="46.78282" lon="6.65269">
        <ele>432.3</ele>
        <time>2022-09-29T09:58:54Z</time>
      </trkpt>
      <trkpt lat="46.78282" lon="6.65276">
        <ele>432.4</ele>
        <time>2022-09-29T09:58:55Z</time>
      </trkpt>
      <trkpt lat="46.78282" lon="6.65281">
        <ele>432.4</ele>
        <time>2022-09-29T09:58:56Z</time>
      </trkpt>
      <trkpt lat="46.78283" lon="6.65287">
        <ele>432.4</ele>
        <time>2022-09-29T09:58:57Z</time>
      </trkpt>
      <trkpt lat="46.78283" lon="6.65292">
        <ele>432.4</ele>
        <time>2022-09-29T09:58:58Z</time>
      </trkpt>
      <trkpt lat="46.78283" lon="6.65297">
        <ele>432.4</ele>
        <time>2022-09-29T09:58:59Z</time>
      </trkpt>
      <trkpt lat="46.78283" lon="6.65302">
        <ele>432.4</ele>
        <time>2022-09-29T09:59:00Z</time>
      </trkpt>
      <trkpt lat="46.78283" lon="6.65304">
        <ele>432.4</ele>
        <time>2022-09-29T09:59:01Z</time>
      </trkpt>
      <trkpt lat="46.78282" lon="6.65309">
        <ele>432.5</ele>
        <time>2022-09-29T09:59:02Z</time>
      </trkpt>
      <trkpt lat="46.78281" lon="6.65311">
        <ele>432.4</ele>
        <time>2022-09-29T09:59:03Z</time>
      </trkpt>
      <trkpt lat="46.7828" lon="6.65314">
        <ele>432.4</ele>
        <time>2022-09-29T09:59:04Z</time>
      </trkpt>
      <trkpt lat="46.78277" lon="6.65316">
        <ele>432.4</ele>
        <time>2022-09-29T09:59:05Z</time>
      </trkpt>
      <trkpt lat="46.78274" lon="6.65318">
        <ele>432.4</ele>
        <time>2022-09-29T09:59:06Z</time>
      </trkpt>
      <trkpt lat="46.78271" lon="6.6532">
        <ele>432.4</ele>
        <time>2022-09-29T09:59:07Z</time>
      </trkpt>
      <trkpt lat="46.78267" lon="6.65322">
        <ele>432.4</ele>
        <time>2022-09-29T09:59:08Z</time>
      </trkpt>
      <trkpt lat="46.78264" lon="6.65324">
        <ele>432.4</ele>
        <time>2022-09-29T09:59:09Z</time>
      </trkpt>
      <trkpt lat="46.7826" lon="6.65326">
        <ele>432.4</ele>
        <time>2022-09-29T09:59:10Z</time>
      </trkpt>
      <trkpt lat="46.78256" lon="6.65328">
        <ele>432.4</ele>
        <time>2022-09-29T09:59:11Z</time>
      </trkpt>
      <trkpt lat="46.78251" lon="6.6533">
        <ele>432.4</ele>
        <time>2022-09-29T09:59:12Z</time>
      </trkpt>
      <trkpt lat="46.78247" lon="6.65333">
        <ele>432.4</ele>
        <time>2022-09-29T09:59:13Z</time>
      </trkpt>
      <trkpt lat="46.78243" lon="6.65335">
        <ele>432.4</ele>
        <time>2022-09-29T09:59:14Z</time>
      </trkpt>
      <trkpt lat="46.78239" lon="6.65338">
        <ele>432.4</ele>
        <time>2022-09-29T09:59:15Z</time>
      </trkpt>
      <trkpt lat="46.78235" lon="6.6534">
        <ele>432.4</ele>
        <time>2022-09-29T09:59:16Z</time>
      </trkpt>
      <trkpt lat="46.78231" lon="6.65343">
        <ele>432.4</ele>
        <time>2022-09-29T09:59:17Z</time>
      </trkpt>
      <trkpt lat="46.78227" lon="6.65346">
        <ele>432.4</ele>
        <time>2022-09-29T09:59:18Z</time>
      </trkpt>
      <trkpt lat="46.78223" lon="6.65348">
        <ele>432.4</ele>
        <time>2022-09-29T09:59:19Z</time>
      </trkpt>
      <trkpt lat="46.78219" lon="6.65351">
        <ele>432.4</ele>
        <time>2022-09-29T09:59:20Z</time>
      </trkpt>
      <trkpt lat="46.78215" lon="6.65354">
        <ele>432.4</ele>
        <time>2022-09-29T09:59:21Z</time>
      </trkpt>
      <trkpt lat="46.78211" lon="6.65356">
        <ele>432.4</ele>
        <time>2022-09-29T09:59:22Z</time>
      </trkpt>
      <trkpt lat="46.78207" lon="6.65359">
        <ele>432.3</ele>
        <time>2022-09-29T09:59:23Z</time>
      </trkpt>
      <trkpt lat="46.78203" lon="6.65362">
        <ele>432.3</ele>
        <time>2022-09-29T09:59:24Z</time>
      </trkpt>
      <trkpt lat="46.78199" lon="6.65364">
        <ele>432.3</ele>
        <time>2022-09-29T09:59:25Z</time>
      </trkpt>
      <trkpt lat="46.78194" lon="6.65366">
        <ele>432.4</ele>
        <time>2022-09-29T09:59:26Z</time>
      </trkpt>
      <trkpt lat="46.7819" lon="6.65369">
        <ele>432.4</ele>
        <time>2022-09-29T09:59:27Z</time>
      </trkpt>
      <trkpt lat="46.78186" lon="6.65372">
        <ele>432.4</ele>
        <time>2022-09-29T09:59:28Z</time>
      </trkpt>
      <trkpt lat="46.78182" lon="6.65374">
        <ele>432.4</ele>
        <time>2022-09-29T09:59:29Z</time>
      </trkpt>
      <trkpt lat="46.78178" lon="6.65377">
        <ele>432.4</ele>
        <time>2022-09-29T09:59:30Z</time>
      </trkpt>
      <trkpt lat="46.78174" lon="6.65379">
        <ele>432.4</ele>
        <time>2022-09-29T09:59:31Z</time>
      </trkpt>
      <trkpt lat="46.78171" lon="6.65382">
        <ele>432.4</ele>
        <time>2022-09-29T09:59:32Z</time>
      </trkpt>
      <trkpt lat="46.78167" lon="6.65385">
        <ele>432.4</ele>
        <time>2022-09-29T09:59:33Z</time>
      </trkpt>
      <trkpt lat="46.78162" lon="6.65388">
        <ele>432.4</ele>
        <time>2022-09-29T09:59:34Z</time>
      </trkpt>
      <trkpt lat="46.78158" lon="6.6539">
        <ele>432.4</ele>
        <time>2022-09-29T09:59:35Z</time>
      </trkpt>
      <trkpt lat="46.78154" lon="6.65393">
        <ele>432.4</ele>
        <time>2022-09-29T09:59:36Z</time>
      </trkpt>
      <trkpt lat="46.7815" lon="6.65395">
        <ele>432.4</ele>
        <time>2022-09-29T09:59:37Z</time>
      </trkpt>
      <trkpt lat="46.78145" lon="6.65397">
        <ele>432.5</ele>
        <time>2022-09-29T09:59:38Z</time>
      </trkpt>
      <trkpt lat="46.78141" lon="6.654">
        <ele>432.5</ele>
        <time>2022-09-29T09:59:39Z</time>
      </trkpt>
      <trkpt lat="46.78136" lon="6.65402">
        <ele>432.5</ele>
        <time>2022-09-29T09:59:40Z</time>
      </trkpt>
      <trkpt lat="46.78132" lon="6.65403">
        <ele>432.5</ele>
        <time>2022-09-29T09:59:41Z</time>
      </trkpt>
      <trkpt lat="46.78127" lon="6.65406">
        <ele>432.5</ele>
        <time>2022-09-29T09:59:42Z</time>
      </trkpt>
      <trkpt lat="46.78123" lon="6.65409">
        <ele>432.6</ele>
        <time>2022-09-29T09:59:43Z</time>
      </trkpt>
      <trkpt lat="46.78119" lon="6.65411">
        <ele>432.6</ele>
        <time>2022-09-29T09:59:44Z</time>
      </trkpt>
      <trkpt lat="46.78115" lon="6.65414">
        <ele>432.6</ele>
        <time>2022-09-29T09:59:45Z</time>
      </trkpt>
      <trkpt lat="46.7811" lon="6.65416">
        <ele>432.6</ele>
        <time>2022-09-29T09:59:46Z</time>
      </trkpt>
      <trkpt lat="46.78106" lon="6.65417">
        <ele>432.6</ele>
        <time>2022-09-29T09:59:47Z</time>
      </trkpt>
      <trkpt lat="46.78102" lon="6.6542">
        <ele>432.7</ele>
        <time>2022-09-29T09:59:48Z</time>
      </trkpt>
      <trkpt lat="46.78098" lon="6.65422">
        <ele>432.7</ele>
        <time>2022-09-29T09:59:49Z</time>
      </trkpt>
      <trkpt lat="46.78094" lon="6.65425">
        <ele>432.7</ele>
        <time>2022-09-29T09:59:50Z</time>
      </trkpt>
      <trkpt lat="46.7809" lon="6.65427">
        <ele>432.7</ele>
        <time>2022-09-29T09:59:51Z</time>
      </trkpt>
      <trkpt lat="46.78087" lon="6.6543">
        <ele>432.7</ele>
        <time>2022-09-29T09:59:52Z</time>
      </trkpt>
      <trkpt lat="46.78083" lon="6.65433">
        <ele>432.7</ele>
        <time>2022-09-29T09:59:53Z</time>
      </trkpt>
      <trkpt lat="46.78079" lon="6.65436">
        <ele>432.7</ele>
        <time>2022-09-29T09:59:54Z</time>
      </trkpt>
      <trkpt lat="46.78076" lon="6.65439">
        <ele>432.7</ele>
        <time>2022-09-29T09:59:55Z</time>
      </trkpt>
      <trkpt lat="46.78072" lon="6.65442">
        <ele>432.7</ele>
        <time>2022-09-29T09:59:56Z</time>
      </trkpt>
      <trkpt lat="46.78069" lon="6.65445">
        <ele>432.8</ele>
        <time>2022-09-29T09:59:57Z</time>
      </trkpt>
      <trkpt lat="46.78064" lon="6.65447">
        <ele>432.8</ele>
        <time>2022-09-29T09:59:58Z</time>
      </trkpt>
      <trkpt lat="46.7806" lon="6.65448">
        <ele>432.8</ele>
        <time>2022-09-29T09:59:59Z</time>
      </trkpt>
      <trkpt lat="46.78056" lon="6.6545">
        <ele>432.8</ele>
        <time>2022-09-29T10:00:00Z</time>
      </trkpt>
      <trkpt lat="46.78052" lon="6.65452">
        <ele>432.8</ele>
        <time>2022-09-29T10:00:01Z</time>
      </trkpt>
      <trkpt lat="46.78048" lon="6.65454">
        <ele>432.8</ele>
        <time>2022-09-29T10:00:02Z</time>
      </trkpt>
      <trkpt lat="46.78044" lon="6.65457">
        <ele>432.8</ele>
        <time>2022-09-29T10:00:03Z</time>
      </trkpt>
      <trkpt lat="46.7804" lon="6.65459">
        <ele>432.8</ele>
        <time>2022-09-29T10:00:04Z</time>
      </trkpt>
      <trkpt lat="46.78036" lon="6.6546">
        <ele>432.8</ele>
        <time>2022-09-29T10:00:05Z</time>
      </trkpt>
      <trkpt lat="46.78032" lon="6.65462">
        <ele>432.8</ele>
        <time>2022-09-29T10:00:06Z</time>
      </trkpt>
      <trkpt lat="46.78029" lon="6.65463">
        <ele>432.8</ele>
        <time>2022-09-29T10:00:07Z</time>
      </trkpt>
      <trkpt lat="46.78029" lon="6.65463">
        <ele>432.8</ele>
        <time>2022-09-29T10:00:08Z</time>
      </trkpt>
      <trkpt lat="46.78028" lon="6.65463">
        <ele>432.8</ele>
        <time>2022-09-29T10:00:09Z</time>
      </trkpt>
      <trkpt lat="46.78027" lon="6.65463">
        <ele>432.8</ele>
        <time>2022-09-29T10:00:10Z</time>
      </trkpt>
      <trkpt lat="46.78027" lon="6.65462">
        <ele>432.8</ele>
        <time>2022-09-29T10:00:11Z</time>
      </trkpt>
      <trkpt lat="46.78027" lon="6.65462">
        <ele>432.8</ele>
        <time>2022-09-29T10:00:12Z</time>
      </trkpt>
      <trkpt lat="46.78026" lon="6.65462">
        <ele>432.8</ele>
        <time>2022-09-29T10:00:13Z</time>
      </trkpt>
      <trkpt lat="46.78024" lon="6.65461">
        <ele>432.8</ele>
        <time>2022-09-29T10:00:14Z</time>
      </trkpt>
      <trkpt lat="46.78023" lon="6.65463">
        <ele>432.8</ele>
        <time>2022-09-29T10:00:15Z</time>
      </trkpt>
      <trkpt lat="46.78021" lon="6.65464">
        <ele>432.8</ele>
        <time>2022-09-29T10:00:16Z</time>
      </trkpt>
      <trkpt lat="46.7802" lon="6.65465">
        <ele>432.8</ele>
        <time>2022-09-29T10:00:17Z</time>
      </trkpt>
      <trkpt lat="46.78018" lon="6.65466">
        <ele>432.8</ele>
        <time>2022-09-29T10:00:35Z</time>
      </trkpt>
      <trkpt lat="46.78017" lon="6.65467">
        <ele>432.8</ele>
        <time>2022-09-29T10:00:36Z</time>
      </trkpt>
      <trkpt lat="46.78014" lon="6.65469">
        <ele>432.9</ele>
        <time>2022-09-29T10:00:37Z</time>
      </trkpt>
      <trkpt lat="46.78013" lon="6.6547">
        <ele>432.9</ele>
        <time>2022-09-29T10:00:38Z</time>
      </trkpt>
      <trkpt lat="46.7801" lon="6.65473">
        <ele>432.9</ele>
        <time>2022-09-29T10:00:39Z</time>
      </trkpt>
      <trkpt lat="46.78006" lon="6.65475">
        <ele>432.9</ele>
        <time>2022-09-29T10:00:40Z</time>
      </trkpt>
      <trkpt lat="46.78004" lon="6.65477">
        <ele>432.9</ele>
        <time>2022-09-29T10:00:41Z</time>
      </trkpt>
      <trkpt lat="46.78001" lon="6.65479">
        <ele>432.8</ele>
        <time>2022-09-29T10:00:42Z</time>
      </trkpt>
      <trkpt lat="46.77999" lon="6.65484">
        <ele>432.8</ele>
        <time>2022-09-29T10:00:43Z</time>
      </trkpt>
      <trkpt lat="46.77998" lon="6.65485">
        <ele>432.8</ele>
        <time>2022-09-29T10:00:44Z</time>
      </trkpt>
      <trkpt lat="46.77997" lon="6.65489">
        <ele>432.7</ele>
        <time>2022-09-29T10:00:45Z</time>
      </trkpt>
      <trkpt lat="46.77996" lon="6.6549">
        <ele>432.7</ele>
        <time>2022-09-29T10:00:46Z</time>
      </trkpt>
      <trkpt lat="46.77995" lon="6.65495">
        <ele>432.6</ele>
        <time>2022-09-29T10:00:47Z</time>
      </trkpt>
      <trkpt lat="46.77996" lon="6.65497">
        <ele>432.6</ele>
        <time>2022-09-29T10:00:48Z</time>
      </trkpt>
      <trkpt lat="46.77997" lon="6.65502">
        <ele>432.6</ele>
        <time>2022-09-29T10:00:49Z</time>
      </trkpt>
      <trkpt lat="46.77999" lon="6.65506">
        <ele>432.5</ele>
        <time>2022-09-29T10:00:50Z</time>
      </trkpt>
      <trkpt lat="46.78001" lon="6.65511">
        <ele>432.5</ele>
        <time>2022-09-29T10:00:51Z</time>
      </trkpt>
      <trkpt lat="46.78003" lon="6.65516">
        <ele>432.5</ele>
        <time>2022-09-29T10:00:52Z</time>
      </trkpt>
      <trkpt lat="46.78005" lon="6.65521">
        <ele>432.4</ele>
        <time>2022-09-29T10:00:53Z</time>
      </trkpt>
      <trkpt lat="46.78006" lon="6.65527">
        <ele>432.4</ele>
        <time>2022-09-29T10:00:54Z</time>
      </trkpt>
      <trkpt lat="46.78007" lon="6.65532">
        <ele>432.4</ele>
        <time>2022-09-29T10:00:55Z</time>
      </trkpt>
      <trkpt lat="46.78007" lon="6.65536">
        <ele>432.4</ele>
        <time>2022-09-29T10:00:56Z</time>
      </trkpt>
      <trkpt lat="46.78006" lon="6.65541">
        <ele>432.4</ele>
        <time>2022-09-29T10:00:57Z</time>
      </trkpt>
      <trkpt lat="46.78004" lon="6.65545">
        <ele>432.5</ele>
        <time>2022-09-29T10:00:58Z</time>
      </trkpt>
      <trkpt lat="46.78003" lon="6.6555">
        <ele>432.5</ele>
        <time>2022-09-29T10:00:59Z</time>
      </trkpt>
      <trkpt lat="46.78001" lon="6.65555">
        <ele>432.5</ele>
        <time>2022-09-29T10:01:00Z</time>
      </trkpt>
      <trkpt lat="46.78" lon="6.6556">
        <ele>432.5</ele>
        <time>2022-09-29T10:01:01Z</time>
      </trkpt>
      <trkpt lat="46.77998" lon="6.65564">
        <ele>432.5</ele>
        <time>2022-09-29T10:01:02Z</time>
      </trkpt>
      <trkpt lat="46.77997" lon="6.65569">
        <ele>432.6</ele>
        <time>2022-09-29T10:01:03Z</time>
      </trkpt>
      <trkpt lat="46.77996" lon="6.65574">
        <ele>432.6</ele>
        <time>2022-09-29T10:01:04Z</time>
      </trkpt>
      <trkpt lat="46.77995" lon="6.65578">
        <ele>432.6</ele>
        <time>2022-09-29T10:01:05Z</time>
      </trkpt>
      <trkpt lat="46.77994" lon="6.65582">
        <ele>432.6</ele>
        <time>2022-09-29T10:01:06Z</time>
      </trkpt>
      <trkpt lat="46.77994" lon="6.65587">
        <ele>432.6</ele>
        <time>2022-09-29T10:01:07Z</time>
      </trkpt>
      <trkpt lat="46.77995" lon="6.65589">
        <ele>432.6</ele>
        <time>2022-09-29T10:01:08Z</time>
      </trkpt>
      <trkpt lat="46.77996" lon="6.65592">
        <ele>432.5</ele>
        <time>2022-09-29T10:01:09Z</time>
      </trkpt>
      <trkpt lat="46.77998" lon="6.65596">
        <ele>432.5</ele>
        <time>2022-09-29T10:01:10Z</time>
      </trkpt>
      <trkpt lat="46.78" lon="6.656">
        <ele>432.5</ele>
        <time>2022-09-29T10:01:11Z</time>
      </trkpt>
      <trkpt lat="46.78002" lon="6.65605">
        <ele>432.4</ele>
        <time>2022-09-29T10:01:12Z</time>
      </trkpt>
      <trkpt lat="46.78002" lon="6.65612">
        <ele>432.4</ele>
        <time>2022-09-29T10:01:13Z</time>
      </trkpt>
      <trkpt lat="46.78004" lon="6.65618">
        <ele>432.3</ele>
        <time>2022-09-29T10:01:14Z</time>
      </trkpt>
      <trkpt lat="46.78006" lon="6.65624">
        <ele>432.3</ele>
        <time>2022-09-29T10:01:15Z</time>
      </trkpt>
      <trkpt lat="46.78008" lon="6.6563">
        <ele>432.3</ele>
        <time>2022-09-29T10:01:16Z</time>
      </trkpt>
      <trkpt lat="46.7801" lon="6.65636">
        <ele>432.3</ele>
        <time>2022-09-29T10:01:17Z</time>
      </trkpt>
      <trkpt lat="46.78013" lon="6.65642">
        <ele>432.2</ele>
        <time>2022-09-29T10:01:18Z</time>
      </trkpt>
      <trkpt lat="46.78016" lon="6.65648">
        <ele>432.2</ele>
        <time>2022-09-29T10:01:19Z</time>
      </trkpt>
      <trkpt lat="46.78019" lon="6.65654">
        <ele>432.2</ele>
        <time>2022-09-29T10:01:20Z</time>
      </trkpt>
      <trkpt lat="46.78022" lon="6.6566">
        <ele>432.2</ele>
        <time>2022-09-29T10:01:21Z</time>
      </trkpt>
      <trkpt lat="46.78025" lon="6.65666">
        <ele>432.2</ele>
        <time>2022-09-29T10:01:22Z</time>
      </trkpt>
      <trkpt lat="46.78027" lon="6.65671">
        <ele>432.3</ele>
        <time>2022-09-29T10:01:23Z</time>
      </trkpt>
      <trkpt lat="46.7803" lon="6.65676">
        <ele>432.3</ele>
        <time>2022-09-29T10:01:24Z</time>
      </trkpt>
      <trkpt lat="46.78032" lon="6.65681">
        <ele>432.3</ele>
        <time>2022-09-29T10:01:25Z</time>
      </trkpt>
      <trkpt lat="46.78035" lon="6.65686">
        <ele>432.3</ele>
        <time>2022-09-29T10:01:26Z</time>
      </trkpt>
      <trkpt lat="46.78038" lon="6.65692">
        <ele>432.3</ele>
        <time>2022-09-29T10:01:27Z</time>
      </trkpt>
      <trkpt lat="46.78041" lon="6.65697">
        <ele>432.3</ele>
        <time>2022-09-29T10:01:28Z</time>
      </trkpt>
      <trkpt lat="46.78043" lon="6.65702">
        <ele>432.3</ele>
        <time>2022-09-29T10:01:29Z</time>
      </trkpt>
      <trkpt lat="46.78045" lon="6.65706">
        <ele>432.3</ele>
        <time>2022-09-29T10:01:30Z</time>
      </trkpt>
      <trkpt lat="46.78048" lon="6.65711">
        <ele>432.3</ele>
        <time>2022-09-29T10:01:31Z</time>
      </trkpt>
      <trkpt lat="46.7805" lon="6.65716">
        <ele>432.2</ele>
        <time>2022-09-29T10:01:32Z</time>
      </trkpt>
      <trkpt lat="46.78053" lon="6.65722">
        <ele>432.2</ele>
        <time>2022-09-29T10:01:33Z</time>
      </trkpt>
      <trkpt lat="46.78057" lon="6.65728">
        <ele>432.2</ele>
        <time>2022-09-29T10:01:34Z</time>
      </trkpt>
      <trkpt lat="46.78059" lon="6.65733">
        <ele>432.2</ele>
        <time>2022-09-29T10:01:35Z</time>
      </trkpt>
      <trkpt lat="46.78063" lon="6.65738">
        <ele>432.2</ele>
        <time>2022-09-29T10:01:36Z</time>
      </trkpt>
      <trkpt lat="46.78066" lon="6.65744">
        <ele>432.2</ele>
        <time>2022-09-29T10:01:37Z</time>
      </trkpt>
      <trkpt lat="46.78069" lon="6.6575">
        <ele>432.2</ele>
        <time>2022-09-29T10:01:38Z</time>
      </trkpt>
      <trkpt lat="46.78072" lon="6.65755">
        <ele>432.2</ele>
        <time>2022-09-29T10:01:39Z</time>
      </trkpt>
      <trkpt lat="46.78075" lon="6.65761">
        <ele>432.2</ele>
        <time>2022-09-29T10:01:40Z</time>
      </trkpt>
      <trkpt lat="46.78078" lon="6.65767">
        <ele>432.2</ele>
        <time>2022-09-29T10:01:41Z</time>
      </trkpt>
      <trkpt lat="46.78081" lon="6.65773">
        <ele>432.2</ele>
        <time>2022-09-29T10:01:42Z</time>
      </trkpt>
      <trkpt lat="46.78084" lon="6.65779">
        <ele>432.2</ele>
        <time>2022-09-29T10:01:43Z</time>
      </trkpt>
      <trkpt lat="46.78087" lon="6.65785">
        <ele>432.2</ele>
        <time>2022-09-29T10:01:44Z</time>
      </trkpt>
      <trkpt lat="46.7809" lon="6.65791">
        <ele>432.2</ele>
        <time>2022-09-29T10:01:45Z</time>
      </trkpt>
      <trkpt lat="46.78092" lon="6.65798">
        <ele>432.2</ele>
        <time>2022-09-29T10:01:46Z</time>
      </trkpt>
      <trkpt lat="46.78095" lon="6.65804">
        <ele>432.2</ele>
        <time>2022-09-29T10:01:47Z</time>
      </trkpt>
      <trkpt lat="46.78098" lon="6.6581">
        <ele>432.1</ele>
        <time>2022-09-29T10:01:48Z</time>
      </trkpt>
      <trkpt lat="46.78101" lon="6.65816">
        <ele>432.1</ele>
        <time>2022-09-29T10:01:49Z</time>
      </trkpt>
      <trkpt lat="46.78104" lon="6.65821">
        <ele>432.1</ele>
        <time>2022-09-29T10:01:50Z</time>
      </trkpt>
      <trkpt lat="46.78107" lon="6.65827">
        <ele>432.1</ele>
        <time>2022-09-29T10:01:51Z</time>
      </trkpt>
      <trkpt lat="46.7811" lon="6.65833">
        <ele>432.1</ele>
        <time>2022-09-29T10:01:52Z</time>
      </trkpt>
      <trkpt lat="46.78114" lon="6.65838">
        <ele>432.1</ele>
        <time>2022-09-29T10:01:53Z</time>
      </trkpt>
      <trkpt lat="46.78117" lon="6.65844">
        <ele>432.1</ele>
        <time>2022-09-29T10:01:54Z</time>
      </trkpt>
      <trkpt lat="46.7812" lon="6.6585">
        <ele>432.1</ele>
        <time>2022-09-29T10:01:55Z</time>
      </trkpt>
      <trkpt lat="46.78122" lon="6.65858">
        <ele>432</ele>
        <time>2022-09-29T10:01:56Z</time>
      </trkpt>
      <trkpt lat="46.78125" lon="6.65863">
        <ele>432</ele>
        <time>2022-09-29T10:01:57Z</time>
      </trkpt>
      <trkpt lat="46.78128" lon="6.65868">
        <ele>432</ele>
        <time>2022-09-29T10:01:58Z</time>
      </trkpt>
      <trkpt lat="46.78132" lon="6.65874">
        <ele>432</ele>
        <time>2022-09-29T10:01:59Z</time>
      </trkpt>
      <trkpt lat="46.78135" lon="6.65879">
        <ele>432</ele>
        <time>2022-09-29T10:02:00Z</time>
      </trkpt>
      <trkpt lat="46.78138" lon="6.65885">
        <ele>432</ele>
        <time>2022-09-29T10:02:01Z</time>
      </trkpt>
      <trkpt lat="46.78141" lon="6.6589">
        <ele>432</ele>
        <time>2022-09-29T10:02:02Z</time>
      </trkpt>
      <trkpt lat="46.78144" lon="6.65896">
        <ele>432</ele>
        <time>2022-09-29T10:02:03Z</time>
      </trkpt>
      <trkpt lat="46.78147" lon="6.65902">
        <ele>432</ele>
        <time>2022-09-29T10:02:04Z</time>
      </trkpt>
      <trkpt lat="46.7815" lon="6.65907">
        <ele>432</ele>
        <time>2022-09-29T10:02:05Z</time>
      </trkpt>
      <trkpt lat="46.78152" lon="6.65915">
        <ele>432</ele>
        <time>2022-09-29T10:02:06Z</time>
      </trkpt>
      <trkpt lat="46.78155" lon="6.6592">
        <ele>432</ele>
        <time>2022-09-29T10:02:07Z</time>
      </trkpt>
      <trkpt lat="46.78158" lon="6.65925">
        <ele>432</ele>
        <time>2022-09-29T10:02:08Z</time>
      </trkpt>
      <trkpt lat="46.78161" lon="6.65931">
        <ele>432</ele>
        <time>2022-09-29T10:02:09Z</time>
      </trkpt>
      <trkpt lat="46.78165" lon="6.65937">
        <ele>432</ele>
        <time>2022-09-29T10:02:10Z</time>
      </trkpt>
      <trkpt lat="46.78168" lon="6.65942">
        <ele>432</ele>
        <time>2022-09-29T10:02:11Z</time>
      </trkpt>
      <trkpt lat="46.78171" lon="6.65947">
        <ele>432</ele>
        <time>2022-09-29T10:02:12Z</time>
      </trkpt>
      <trkpt lat="46.78174" lon="6.65953">
        <ele>432</ele>
        <time>2022-09-29T10:02:13Z</time>
      </trkpt>
      <trkpt lat="46.78177" lon="6.65959">
        <ele>432</ele>
        <time>2022-09-29T10:02:14Z</time>
      </trkpt>
      <trkpt lat="46.78179" lon="6.65966">
        <ele>432</ele>
        <time>2022-09-29T10:02:15Z</time>
      </trkpt>
      <trkpt lat="46.78182" lon="6.65972">
        <ele>432</ele>
        <time>2022-09-29T10:02:16Z</time>
      </trkpt>
      <trkpt lat="46.78185" lon="6.65977">
        <ele>432</ele>
        <time>2022-09-29T10:02:17Z</time>
      </trkpt>
      <trkpt lat="46.78189" lon="6.65983">
        <ele>431.9</ele>
        <time>2022-09-29T10:02:18Z</time>
      </trkpt>
      <trkpt lat="46.78192" lon="6.65989">
        <ele>431.9</ele>
        <time>2022-09-29T10:02:19Z</time>
      </trkpt>
      <trkpt lat="46.78195" lon="6.65994">
        <ele>431.9</ele>
        <time>2022-09-29T10:02:20Z</time>
      </trkpt>
      <trkpt lat="46.78198" lon="6.65999">
        <ele>431.9</ele>
        <time>2022-09-29T10:02:21Z</time>
      </trkpt>
      <trkpt lat="46.78201" lon="6.66004">
        <ele>431.9</ele>
        <time>2022-09-29T10:02:22Z</time>
      </trkpt>
      <trkpt lat="46.78204" lon="6.6601">
        <ele>431.9</ele>
        <time>2022-09-29T10:02:23Z</time>
      </trkpt>
      <trkpt lat="46.78207" lon="6.66015">
        <ele>431.9</ele>
        <time>2022-09-29T10:02:24Z</time>
      </trkpt>
      <trkpt lat="46.7821" lon="6.6602">
        <ele>431.9</ele>
        <time>2022-09-29T10:02:25Z</time>
      </trkpt>
      <trkpt lat="46.78212" lon="6.66026">
        <ele>431.9</ele>
        <time>2022-09-29T10:02:26Z</time>
      </trkpt>
      <trkpt lat="46.78215" lon="6.66031">
        <ele>431.9</ele>
        <time>2022-09-29T10:02:27Z</time>
      </trkpt>
      <trkpt lat="46.78218" lon="6.66036">
        <ele>431.9</ele>
        <time>2022-09-29T10:02:28Z</time>
      </trkpt>
      <trkpt lat="46.78221" lon="6.66042">
        <ele>431.9</ele>
        <time>2022-09-29T10:02:29Z</time>
      </trkpt>
      <trkpt lat="46.78224" lon="6.66048">
        <ele>431.9</ele>
        <time>2022-09-29T10:02:30Z</time>
      </trkpt>
      <trkpt lat="46.78227" lon="6.66053">
        <ele>431.9</ele>
        <time>2022-09-29T10:02:31Z</time>
      </trkpt>
      <trkpt lat="46.78229" lon="6.66058">
        <ele>431.9</ele>
        <time>2022-09-29T10:02:32Z</time>
      </trkpt>
      <trkpt lat="46.78232" lon="6.66063">
        <ele>431.9</ele>
        <time>2022-09-29T10:02:33Z</time>
      </trkpt>
      <trkpt lat="46.78234" lon="6.66068">
        <ele>431.9</ele>
        <time>2022-09-29T10:02:34Z</time>
      </trkpt>
      <trkpt lat="46.78237" lon="6.66073">
        <ele>432</ele>
        <time>2022-09-29T10:02:35Z</time>
      </trkpt>
      <trkpt lat="46.7824" lon="6.66078">
        <ele>432</ele>
        <time>2022-09-29T10:02:36Z</time>
      </trkpt>
      <trkpt lat="46.78243" lon="6.66084">
        <ele>432</ele>
        <time>2022-09-29T10:02:37Z</time>
      </trkpt>
      <trkpt lat="46.78246" lon="6.6609">
        <ele>432</ele>
        <time>2022-09-29T10:02:38Z</time>
      </trkpt>
      <trkpt lat="46.78249" lon="6.66095">
        <ele>432</ele>
        <time>2022-09-29T10:02:39Z</time>
      </trkpt>
      <trkpt lat="46.78252" lon="6.66102">
        <ele>432</ele>
        <time>2022-09-29T10:02:40Z</time>
      </trkpt>
      <trkpt lat="46.78255" lon="6.66108">
        <ele>432.1</ele>
        <time>2022-09-29T10:02:41Z</time>
      </trkpt>
      <trkpt lat="46.78258" lon="6.66114">
        <ele>432.1</ele>
        <time>2022-09-29T10:02:42Z</time>
      </trkpt>
      <trkpt lat="46.78261" lon="6.6612">
        <ele>432.1</ele>
        <time>2022-09-29T10:02:43Z</time>
      </trkpt>
      <trkpt lat="46.78263" lon="6.66125">
        <ele>432.1</ele>
        <time>2022-09-29T10:02:44Z</time>
      </trkpt>
      <trkpt lat="46.78266" lon="6.66131">
        <ele>432.1</ele>
        <time>2022-09-29T10:02:45Z</time>
      </trkpt>
      <trkpt lat="46.78269" lon="6.66136">
        <ele>432.1</ele>
        <time>2022-09-29T10:02:46Z</time>
      </trkpt>
      <trkpt lat="46.78271" lon="6.66142">
        <ele>432.1</ele>
        <time>2022-09-29T10:02:47Z</time>
      </trkpt>
      <trkpt lat="46.78274" lon="6.66148">
        <ele>432</ele>
        <time>2022-09-29T10:02:48Z</time>
      </trkpt>
      <trkpt lat="46.78276" lon="6.66153">
        <ele>432</ele>
        <time>2022-09-29T10:02:49Z</time>
      </trkpt>
      <trkpt lat="46.78279" lon="6.66159">
        <ele>432</ele>
        <time>2022-09-29T10:02:50Z</time>
      </trkpt>
      <trkpt lat="46.78282" lon="6.66165">
        <ele>432</ele>
        <time>2022-09-29T10:02:51Z</time>
      </trkpt>
      <trkpt lat="46.78285" lon="6.6617">
        <ele>432</ele>
        <time>2022-09-29T10:02:52Z</time>
      </trkpt>
      <trkpt lat="46.78288" lon="6.66176">
        <ele>431.9</ele>
        <time>2022-09-29T10:02:53Z</time>
      </trkpt>
      <trkpt lat="46.78291" lon="6.66182">
        <ele>431.9</ele>
        <time>2022-09-29T10:02:54Z</time>
      </trkpt>
      <trkpt lat="46.78294" lon="6.66187">
        <ele>431.9</ele>
        <time>2022-09-29T10:02:55Z</time>
      </trkpt>
      <trkpt lat="46.78298" lon="6.66193">
        <ele>431.9</ele>
        <time>2022-09-29T10:02:56Z</time>
      </trkpt>
      <trkpt lat="46.78301" lon="6.66199">
        <ele>431.9</ele>
        <time>2022-09-29T10:02:57Z</time>
      </trkpt>
      <trkpt lat="46.78304" lon="6.66204">
        <ele>431.9</ele>
        <time>2022-09-29T10:02:58Z</time>
      </trkpt>
      <trkpt lat="46.78307" lon="6.66211">
        <ele>431.9</ele>
        <time>2022-09-29T10:02:59Z</time>
      </trkpt>
      <trkpt lat="46.78311" lon="6.66217">
        <ele>431.9</ele>
        <time>2022-09-29T10:03:00Z</time>
      </trkpt>
      <trkpt lat="46.78314" lon="6.66222">
        <ele>431.9</ele>
        <time>2022-09-29T10:03:01Z</time>
      </trkpt>
      <trkpt lat="46.78317" lon="6.66227">
        <ele>431.9</ele>
        <time>2022-09-29T10:03:02Z</time>
      </trkpt>
      <trkpt lat="46.7832" lon="6.66233">
        <ele>431.9</ele>
        <time>2022-09-29T10:03:03Z</time>
      </trkpt>
      <trkpt lat="46.78324" lon="6.6624">
        <ele>431.9</ele>
        <time>2022-09-29T10:03:04Z</time>
      </trkpt>
      <trkpt lat="46.78327" lon="6.66246">
        <ele>431.9</ele>
        <time>2022-09-29T10:03:05Z</time>
      </trkpt>
      <trkpt lat="46.7833" lon="6.66252">
        <ele>431.9</ele>
        <time>2022-09-29T10:03:06Z</time>
      </trkpt>
      <trkpt lat="46.78333" lon="6.66258">
        <ele>431.9</ele>
        <time>2022-09-29T10:03:07Z</time>
      </trkpt>
      <trkpt lat="46.78336" lon="6.66263">
        <ele>431.9</ele>
        <time>2022-09-29T10:03:08Z</time>
      </trkpt>
      <trkpt lat="46.78339" lon="6.66269">
        <ele>431.9</ele>
        <time>2022-09-29T10:03:09Z</time>
      </trkpt>
      <trkpt lat="46.78343" lon="6.66274">
        <ele>431.9</ele>
        <time>2022-09-29T10:03:10Z</time>
      </trkpt>
      <trkpt lat="46.78346" lon="6.66279">
        <ele>431.9</ele>
        <time>2022-09-29T10:03:11Z</time>
      </trkpt>
      <trkpt lat="46.78349" lon="6.66284">
        <ele>431.9</ele>
        <time>2022-09-29T10:03:12Z</time>
      </trkpt>
      <trkpt lat="46.78352" lon="6.6629">
        <ele>431.9</ele>
        <time>2022-09-29T10:03:13Z</time>
      </trkpt>
      <trkpt lat="46.78355" lon="6.66295">
        <ele>431.9</ele>
        <time>2022-09-29T10:03:14Z</time>
      </trkpt>
      <trkpt lat="46.78359" lon="6.66301">
        <ele>431.9</ele>
        <time>2022-09-29T10:03:15Z</time>
      </trkpt>
      <trkpt lat="46.78362" lon="6.66306">
        <ele>431.9</ele>
        <time>2022-09-29T10:03:16Z</time>
      </trkpt>
      <trkpt lat="46.78363" lon="6.66313">
        <ele>431.9</ele>
        <time>2022-09-29T10:03:17Z</time>
      </trkpt>
      <trkpt lat="46.78365" lon="6.66319">
        <ele>431.9</ele>
        <time>2022-09-29T10:03:18Z</time>
      </trkpt>
      <trkpt lat="46.78368" lon="6.66325">
        <ele>431.9</ele>
        <time>2022-09-29T10:03:19Z</time>
      </trkpt>
      <trkpt lat="46.78371" lon="6.66331">
        <ele>431.9</ele>
        <time>2022-09-29T10:03:20Z</time>
      </trkpt>
      <trkpt lat="46.78374" lon="6.66337">
        <ele>431.9</ele>
        <time>2022-09-29T10:03:21Z</time>
      </trkpt>
      <trkpt lat="46.78377" lon="6.66343">
        <ele>431.9</ele>
        <time>2022-09-29T10:03:22Z</time>
      </trkpt>
      <trkpt lat="46.7838" lon="6.66349">
        <ele>431.9</ele>
        <time>2022-09-29T10:03:23Z</time>
      </trkpt>
      <trkpt lat="46.78384" lon="6.66355">
        <ele>431.9</ele>
        <time>2022-09-29T10:03:24Z</time>
      </trkpt>
      <trkpt lat="46.78387" lon="6.66361">
        <ele>431.9</ele>
        <time>2022-09-29T10:03:25Z</time>
      </trkpt>
      <trkpt lat="46.7839" lon="6.66367">
        <ele>431.9</ele>
        <time>2022-09-29T10:03:26Z</time>
      </trkpt>
      <trkpt lat="46.78393" lon="6.66373">
        <ele>431.9</ele>
        <time>2022-09-29T10:03:27Z</time>
      </trkpt>
      <trkpt lat="46.78396" lon="6.66379">
        <ele>431.9</ele>
        <time>2022-09-29T10:03:28Z</time>
      </trkpt>
      <trkpt lat="46.78399" lon="6.66385">
        <ele>431.9</ele>
        <time>2022-09-29T10:03:29Z</time>
      </trkpt>
      <trkpt lat="46.78401" lon="6.66391">
        <ele>431.9</ele>
        <time>2022-09-29T10:03:30Z</time>
      </trkpt>
      <trkpt lat="46.78405" lon="6.66397">
        <ele>431.9</ele>
        <time>2022-09-29T10:03:31Z</time>
      </trkpt>
      <trkpt lat="46.78408" lon="6.66403">
        <ele>431.9</ele>
        <time>2022-09-29T10:03:32Z</time>
      </trkpt>
      <trkpt lat="46.78411" lon="6.66409">
        <ele>431.9</ele>
        <time>2022-09-29T10:03:33Z</time>
      </trkpt>
      <trkpt lat="46.78414" lon="6.66415">
        <ele>431.9</ele>
        <time>2022-09-29T10:03:34Z</time>
      </trkpt>
      <trkpt lat="46.78417" lon="6.66421">
        <ele>431.9</ele>
        <time>2022-09-29T10:03:35Z</time>
      </trkpt>
      <trkpt lat="46.7842" lon="6.66427">
        <ele>431.8</ele>
        <time>2022-09-29T10:03:36Z</time>
      </trkpt>
      <trkpt lat="46.78423" lon="6.66432">
        <ele>431.8</ele>
        <time>2022-09-29T10:03:37Z</time>
      </trkpt>
      <trkpt lat="46.78426" lon="6.66438">
        <ele>431.8</ele>
        <time>2022-09-29T10:03:38Z</time>
      </trkpt>
      <trkpt lat="46.78429" lon="6.66444">
        <ele>431.9</ele>
        <time>2022-09-29T10:03:39Z</time>
      </trkpt>
      <trkpt lat="46.78431" lon="6.66449">
        <ele>431.9</ele>
        <time>2022-09-29T10:03:40Z</time>
      </trkpt>
      <trkpt lat="46.78434" lon="6.66454">
        <ele>431.9</ele>
        <time>2022-09-29T10:03:41Z</time>
      </trkpt>
      <trkpt lat="46.78437" lon="6.66459">
        <ele>431.9</ele>
        <time>2022-09-29T10:03:42Z</time>
      </trkpt>
      <trkpt lat="46.7844" lon="6.66465">
        <ele>431.9</ele>
        <time>2022-09-29T10:03:43Z</time>
      </trkpt>
      <trkpt lat="46.78443" lon="6.6647">
        <ele>431.9</ele>
        <time>2022-09-29T10:03:44Z</time>
      </trkpt>
      <trkpt lat="46.78445" lon="6.66476">
        <ele>431.9</ele>
        <time>2022-09-29T10:03:45Z</time>
      </trkpt>
      <trkpt lat="46.78448" lon="6.66481">
        <ele>431.9</ele>
        <time>2022-09-29T10:03:46Z</time>
      </trkpt>
      <trkpt lat="46.78451" lon="6.66487">
        <ele>431.9</ele>
        <time>2022-09-29T10:03:47Z</time>
      </trkpt>
      <trkpt lat="46.78454" lon="6.66493">
        <ele>432</ele>
        <time>2022-09-29T10:03:48Z</time>
      </trkpt>
      <trkpt lat="46.78457" lon="6.66498">
        <ele>432</ele>
        <time>2022-09-29T10:03:49Z</time>
      </trkpt>
      <trkpt lat="46.7846" lon="6.66504">
        <ele>432</ele>
        <time>2022-09-29T10:03:50Z</time>
      </trkpt>
      <trkpt lat="46.78463" lon="6.6651">
        <ele>432</ele>
        <time>2022-09-29T10:03:51Z</time>
      </trkpt>
      <trkpt lat="46.78465" lon="6.66515">
        <ele>432</ele>
        <time>2022-09-29T10:03:52Z</time>
      </trkpt>
      <trkpt lat="46.78468" lon="6.66521">
        <ele>432</ele>
        <time>2022-09-29T10:03:53Z</time>
      </trkpt>
      <trkpt lat="46.78471" lon="6.66527">
        <ele>432</ele>
        <time>2022-09-29T10:03:54Z</time>
      </trkpt>
      <trkpt lat="46.78474" lon="6.66532">
        <ele>432.1</ele>
        <time>2022-09-29T10:03:55Z</time>
      </trkpt>
      <trkpt lat="46.78477" lon="6.66538">
        <ele>432.1</ele>
        <time>2022-09-29T10:03:56Z</time>
      </trkpt>
      <trkpt lat="46.7848" lon="6.66544">
        <ele>432.1</ele>
        <time>2022-09-29T10:03:57Z</time>
      </trkpt>
      <trkpt lat="46.78483" lon="6.66549">
        <ele>432.1</ele>
        <time>2022-09-29T10:03:58Z</time>
      </trkpt>
      <trkpt lat="46.78486" lon="6.66554">
        <ele>432.1</ele>
        <time>2022-09-29T10:03:59Z</time>
      </trkpt>
      <trkpt lat="46.78489" lon="6.6656">
        <ele>432.2</ele>
        <time>2022-09-29T10:04:00Z</time>
      </trkpt>
      <trkpt lat="46.78491" lon="6.66564">
        <ele>432.2</ele>
        <time>2022-09-29T10:04:01Z</time>
      </trkpt>
      <trkpt lat="46.78494" lon="6.6657">
        <ele>432.2</ele>
        <time>2022-09-29T10:04:02Z</time>
      </trkpt>
      <trkpt lat="46.78496" lon="6.66575">
        <ele>432.2</ele>
        <time>2022-09-29T10:04:03Z</time>
      </trkpt>
      <trkpt lat="46.78499" lon="6.66581">
        <ele>432.3</ele>
        <time>2022-09-29T10:04:04Z</time>
      </trkpt>
      <trkpt lat="46.78501" lon="6.66586">
        <ele>432.3</ele>
        <time>2022-09-29T10:04:05Z</time>
      </trkpt>
      <trkpt lat="46.78504" lon="6.66591">
        <ele>432.3</ele>
        <time>2022-09-29T10:04:06Z</time>
      </trkpt>
      <trkpt lat="46.78506" lon="6.66596">
        <ele>432.3</ele>
        <time>2022-09-29T10:04:07Z</time>
      </trkpt>
      <trkpt lat="46.78508" lon="6.66601">
        <ele>432.3</ele>
        <time>2022-09-29T10:04:08Z</time>
      </trkpt>
      <trkpt lat="46.78511" lon="6.66605">
        <ele>432.3</ele>
        <time>2022-09-29T10:04:09Z</time>
      </trkpt>
      <trkpt lat="46.78513" lon="6.6661">
        <ele>432.3</ele>
        <time>2022-09-29T10:04:10Z</time>
      </trkpt>
      <trkpt lat="46.78515" lon="6.66614">
        <ele>432.3</ele>
        <time>2022-09-29T10:04:11Z</time>
      </trkpt>
      <trkpt lat="46.78516" lon="6.66618">
        <ele>432.3</ele>
        <time>2022-09-29T10:04:12Z</time>
      </trkpt>
      <trkpt lat="46.78518" lon="6.66622">
        <ele>432.4</ele>
        <time>2022-09-29T10:04:13Z</time>
      </trkpt>
      <trkpt lat="46.78519" lon="6.66623">
        <ele>432.4</ele>
        <time>2022-09-29T10:04:14Z</time>
      </trkpt>
      <trkpt lat="46.78521" lon="6.66627">
        <ele>432.4</ele>
        <time>2022-09-29T10:04:15Z</time>
      </trkpt>
      <trkpt lat="46.78522" lon="6.66628">
        <ele>432.4</ele>
        <time>2022-09-29T10:04:16Z</time>
      </trkpt>
      <trkpt lat="46.78524" lon="6.66632">
        <ele>432.4</ele>
        <time>2022-09-29T10:04:17Z</time>
      </trkpt>
      <trkpt lat="46.78525" lon="6.66634">
        <ele>432.4</ele>
        <time>2022-09-29T10:04:18Z</time>
      </trkpt>
      <trkpt lat="46.78527" lon="6.66638">
        <ele>432.4</ele>
        <time>2022-09-29T10:04:19Z</time>
      </trkpt>
      <trkpt lat="46.78528" lon="6.66643">
        <ele>432.4</ele>
        <time>2022-09-29T10:04:20Z</time>
      </trkpt>
      <trkpt lat="46.78529" lon="6.66647">
        <ele>432.3</ele>
        <time>2022-09-29T10:04:21Z</time>
      </trkpt>
      <trkpt lat="46.78531" lon="6.66651">
        <ele>432.3</ele>
        <time>2022-09-29T10:04:22Z</time>
      </trkpt>
      <trkpt lat="46.78533" lon="6.66656">
        <ele>432.3</ele>
        <time>2022-09-29T10:04:23Z</time>
      </trkpt>
      <trkpt lat="46.78535" lon="6.66661">
        <ele>432.3</ele>
        <time>2022-09-29T10:04:24Z</time>
      </trkpt>
      <trkpt lat="46.78536" lon="6.66666">
        <ele>432.3</ele>
        <time>2022-09-29T10:04:25Z</time>
      </trkpt>
      <trkpt lat="46.78538" lon="6.66672">
        <ele>432.3</ele>
        <time>2022-09-29T10:04:26Z</time>
      </trkpt>
      <trkpt lat="46.7854" lon="6.66677">
        <ele>432.3</ele>
        <time>2022-09-29T10:04:27Z</time>
      </trkpt>
      <trkpt lat="46.78542" lon="6.66682">
        <ele>432.3</ele>
        <time>2022-09-29T10:04:28Z</time>
      </trkpt>
      <trkpt lat="46.78544" lon="6.66687">
        <ele>432.3</ele>
        <time>2022-09-29T10:04:29Z</time>
      </trkpt>
      <trkpt lat="46.78546" lon="6.66692">
        <ele>432.3</ele>
        <time>2022-09-29T10:04:30Z</time>
      </trkpt>
      <trkpt lat="46.78548" lon="6.66696">
        <ele>432.3</ele>
        <time>2022-09-29T10:04:31Z</time>
      </trkpt>
      <trkpt lat="46.78549" lon="6.667">
        <ele>432.3</ele>
        <time>2022-09-29T10:04:32Z</time>
      </trkpt>
      <trkpt lat="46.78551" lon="6.66704">
        <ele>432.3</ele>
        <time>2022-09-29T10:04:33Z</time>
      </trkpt>
      <trkpt lat="46.78553" lon="6.66709">
        <ele>432.3</ele>
        <time>2022-09-29T10:04:34Z</time>
      </trkpt>
      <trkpt lat="46.78555" lon="6.66714">
        <ele>432.3</ele>
        <time>2022-09-29T10:04:35Z</time>
      </trkpt>
      <trkpt lat="46.78557" lon="6.66719">
        <ele>432.2</ele>
        <time>2022-09-29T10:04:36Z</time>
      </trkpt>
      <trkpt lat="46.7856" lon="6.66725">
        <ele>432.2</ele>
        <time>2022-09-29T10:04:37Z</time>
      </trkpt>
      <trkpt lat="46.78562" lon="6.66731">
        <ele>432.2</ele>
        <time>2022-09-29T10:04:38Z</time>
      </trkpt>
      <trkpt lat="46.78564" lon="6.66736">
        <ele>432.1</ele>
        <time>2022-09-29T10:04:39Z</time>
      </trkpt>
      <trkpt lat="46.78566" lon="6.66742">
        <ele>432.1</ele>
        <time>2022-09-29T10:04:40Z</time>
      </trkpt>
      <trkpt lat="46.78569" lon="6.66748">
        <ele>432</ele>
        <time>2022-09-29T10:04:41Z</time>
      </trkpt>
      <trkpt lat="46.78571" lon="6.66753">
        <ele>432</ele>
        <time>2022-09-29T10:04:42Z</time>
      </trkpt>
      <trkpt lat="46.78574" lon="6.6676">
        <ele>432</ele>
        <time>2022-09-29T10:04:43Z</time>
      </trkpt>
      <trkpt lat="46.78576" lon="6.66766">
        <ele>432</ele>
        <time>2022-09-29T10:04:44Z</time>
      </trkpt>
      <trkpt lat="46.78578" lon="6.66773">
        <ele>432</ele>
        <time>2022-09-29T10:04:45Z</time>
      </trkpt>
      <trkpt lat="46.78581" lon="6.66779">
        <ele>432</ele>
        <time>2022-09-29T10:04:46Z</time>
      </trkpt>
      <trkpt lat="46.78583" lon="6.66786">
        <ele>432</ele>
        <time>2022-09-29T10:04:47Z</time>
      </trkpt>
      <trkpt lat="46.78585" lon="6.66791">
        <ele>432</ele>
        <time>2022-09-29T10:04:48Z</time>
      </trkpt>
      <trkpt lat="46.78588" lon="6.66797">
        <ele>431.9</ele>
        <time>2022-09-29T10:04:49Z</time>
      </trkpt>
      <trkpt lat="46.7859" lon="6.66803">
        <ele>431.9</ele>
        <time>2022-09-29T10:04:50Z</time>
      </trkpt>
      <trkpt lat="46.78592" lon="6.66808">
        <ele>431.9</ele>
        <time>2022-09-29T10:04:51Z</time>
      </trkpt>
      <trkpt lat="46.78594" lon="6.66815">
        <ele>431.9</ele>
        <time>2022-09-29T10:04:52Z</time>
      </trkpt>
      <trkpt lat="46.78597" lon="6.6682">
        <ele>431.9</ele>
        <time>2022-09-29T10:04:53Z</time>
      </trkpt>
      <trkpt lat="46.78599" lon="6.66825">
        <ele>431.9</ele>
        <time>2022-09-29T10:04:54Z</time>
      </trkpt>
      <trkpt lat="46.78601" lon="6.6683">
        <ele>431.9</ele>
        <time>2022-09-29T10:04:55Z</time>
      </trkpt>
      <trkpt lat="46.78603" lon="6.66836">
        <ele>431.9</ele>
        <time>2022-09-29T10:04:56Z</time>
      </trkpt>
      <trkpt lat="46.78605" lon="6.66839">
        <ele>431.9</ele>
        <time>2022-09-29T10:04:57Z</time>
      </trkpt>
      <trkpt lat="46.78607" lon="6.66844">
        <ele>431.9</ele>
        <time>2022-09-29T10:04:58Z</time>
      </trkpt>
      <trkpt lat="46.78608" lon="6.66847">
        <ele>431.9</ele>
        <time>2022-09-29T10:04:59Z</time>
      </trkpt>
      <trkpt lat="46.7861" lon="6.66851">
        <ele>431.9</ele>
        <time>2022-09-29T10:05:00Z</time>
      </trkpt>
      <trkpt lat="46.78612" lon="6.66857">
        <ele>431.9</ele>
        <time>2022-09-29T10:05:01Z</time>
      </trkpt>
      <trkpt lat="46.78613" lon="6.66862">
        <ele>431.9</ele>
        <time>2022-09-29T10:05:02Z</time>
      </trkpt>
      <trkpt lat="46.78615" lon="6.66867">
        <ele>431.9</ele>
        <time>2022-09-29T10:05:03Z</time>
      </trkpt>
      <trkpt lat="46.78617" lon="6.66873">
        <ele>431.9</ele>
        <time>2022-09-29T10:05:04Z</time>
      </trkpt>
      <trkpt lat="46.7862" lon="6.66879">
        <ele>431.9</ele>
        <time>2022-09-29T10:05:05Z</time>
      </trkpt>
      <trkpt lat="46.78621" lon="6.66883">
        <ele>431.9</ele>
        <time>2022-09-29T10:05:06Z</time>
      </trkpt>
      <trkpt lat="46.78623" lon="6.66889">
        <ele>431.9</ele>
        <time>2022-09-29T10:05:07Z</time>
      </trkpt>
      <trkpt lat="46.78625" lon="6.66894">
        <ele>431.9</ele>
        <time>2022-09-29T10:05:08Z</time>
      </trkpt>
      <trkpt lat="46.78627" lon="6.66899">
        <ele>431.9</ele>
        <time>2022-09-29T10:05:09Z</time>
      </trkpt>
      <trkpt lat="46.78629" lon="6.66905">
        <ele>431.9</ele>
        <time>2022-09-29T10:05:10Z</time>
      </trkpt>
      <trkpt lat="46.78632" lon="6.66911">
        <ele>431.9</ele>
        <time>2022-09-29T10:05:11Z</time>
      </trkpt>
      <trkpt lat="46.78634" lon="6.66918">
        <ele>431.9</ele>
        <time>2022-09-29T10:05:12Z</time>
      </trkpt>
      <trkpt lat="46.78637" lon="6.66925">
        <ele>431.9</ele>
        <time>2022-09-29T10:05:13Z</time>
      </trkpt>
      <trkpt lat="46.78639" lon="6.6693">
        <ele>431.9</ele>
        <time>2022-09-29T10:05:14Z</time>
      </trkpt>
      <trkpt lat="46.78642" lon="6.66937">
        <ele>431.9</ele>
        <time>2022-09-29T10:05:15Z</time>
      </trkpt>
      <trkpt lat="46.78644" lon="6.66942">
        <ele>431.9</ele>
        <time>2022-09-29T10:05:16Z</time>
      </trkpt>
      <trkpt lat="46.78647" lon="6.66948">
        <ele>431.9</ele>
        <time>2022-09-29T10:05:17Z</time>
      </trkpt>
      <trkpt lat="46.78648" lon="6.66953">
        <ele>431.9</ele>
        <time>2022-09-29T10:05:18Z</time>
      </trkpt>
      <trkpt lat="46.7865" lon="6.66958">
        <ele>431.9</ele>
        <time>2022-09-29T10:05:19Z</time>
      </trkpt>
      <trkpt lat="46.78652" lon="6.66962">
        <ele>431.9</ele>
        <time>2022-09-29T10:05:20Z</time>
      </trkpt>
      <trkpt lat="46.78654" lon="6.66969">
        <ele>431.9</ele>
        <time>2022-09-29T10:05:21Z</time>
      </trkpt>
      <trkpt lat="46.78656" lon="6.66973">
        <ele>431.9</ele>
        <time>2022-09-29T10:05:22Z</time>
      </trkpt>
      <trkpt lat="46.78658" lon="6.66979">
        <ele>431.9</ele>
        <time>2022-09-29T10:05:23Z</time>
      </trkpt>
      <trkpt lat="46.78661" lon="6.66984">
        <ele>431.9</ele>
        <time>2022-09-29T10:05:24Z</time>
      </trkpt>
      <trkpt lat="46.78664" lon="6.66992">
        <ele>431.9</ele>
        <time>2022-09-29T10:05:25Z</time>
      </trkpt>
      <trkpt lat="46.78666" lon="6.66999">
        <ele>432</ele>
        <time>2022-09-29T10:05:26Z</time>
      </trkpt>
      <trkpt lat="46.78668" lon="6.67005">
        <ele>432</ele>
        <time>2022-09-29T10:05:27Z</time>
      </trkpt>
      <trkpt lat="46.78669" lon="6.67009">
        <ele>432</ele>
        <time>2022-09-29T10:05:28Z</time>
      </trkpt>
      <trkpt lat="46.78671" lon="6.67015">
        <ele>432</ele>
        <time>2022-09-29T10:05:29Z</time>
      </trkpt>
      <trkpt lat="46.78672" lon="6.67021">
        <ele>432</ele>
        <time>2022-09-29T10:05:30Z</time>
      </trkpt>
      <trkpt lat="46.78675" lon="6.67026">
        <ele>432.1</ele>
        <time>2022-09-29T10:05:31Z</time>
      </trkpt>
      <trkpt lat="46.78677" lon="6.67031">
        <ele>432.1</ele>
        <time>2022-09-29T10:05:32Z</time>
      </trkpt>
      <trkpt lat="46.7868" lon="6.67039">
        <ele>432.2</ele>
        <time>2022-09-29T10:05:33Z</time>
      </trkpt>
      <trkpt lat="46.78682" lon="6.67044">
        <ele>432.2</ele>
        <time>2022-09-29T10:05:34Z</time>
      </trkpt>
      <trkpt lat="46.78685" lon="6.6705">
        <ele>432.2</ele>
        <time>2022-09-29T10:05:35Z</time>
      </trkpt>
      <trkpt lat="46.78687" lon="6.67056">
        <ele>432.2</ele>
        <time>2022-09-29T10:05:36Z</time>
      </trkpt>
      <trkpt lat="46.7869" lon="6.67062">
        <ele>432.2</ele>
        <time>2022-09-29T10:05:37Z</time>
      </trkpt>
      <trkpt lat="46.78692" lon="6.67066">
        <ele>432.2</ele>
        <time>2022-09-29T10:05:38Z</time>
      </trkpt>
      <trkpt lat="46.78693" lon="6.67075">
        <ele>432.1</ele>
        <time>2022-09-29T10:05:39Z</time>
      </trkpt>
      <trkpt lat="46.78696" lon="6.67082">
        <ele>432.1</ele>
        <time>2022-09-29T10:05:40Z</time>
      </trkpt>
      <trkpt lat="46.78698" lon="6.67087">
        <ele>432.1</ele>
        <time>2022-09-29T10:05:41Z</time>
      </trkpt>
      <trkpt lat="46.787" lon="6.67092">
        <ele>432.1</ele>
        <time>2022-09-29T10:05:42Z</time>
      </trkpt>
      <trkpt lat="46.78704" lon="6.671">
        <ele>432.1</ele>
        <time>2022-09-29T10:05:43Z</time>
      </trkpt>
      <trkpt lat="46.78706" lon="6.67105">
        <ele>432.1</ele>
        <time>2022-09-29T10:05:44Z</time>
      </trkpt>
      <trkpt lat="46.78709" lon="6.67111">
        <ele>432.1</ele>
        <time>2022-09-29T10:05:45Z</time>
      </trkpt>
      <trkpt lat="46.78711" lon="6.67116">
        <ele>432.1</ele>
        <time>2022-09-29T10:05:46Z</time>
      </trkpt>
      <trkpt lat="46.78714" lon="6.67124">
        <ele>432</ele>
        <time>2022-09-29T10:05:47Z</time>
      </trkpt>
      <trkpt lat="46.78718" lon="6.67132">
        <ele>432</ele>
        <time>2022-09-29T10:05:48Z</time>
      </trkpt>
      <trkpt lat="46.78721" lon="6.67141">
        <ele>432.1</ele>
        <time>2022-09-29T10:05:49Z</time>
      </trkpt>
      <trkpt lat="46.78724" lon="6.67147">
        <ele>432.1</ele>
        <time>2022-09-29T10:05:50Z</time>
      </trkpt>
      <trkpt lat="46.78727" lon="6.67155">
        <ele>432.2</ele>
        <time>2022-09-29T10:05:51Z</time>
      </trkpt>
      <trkpt lat="46.78729" lon="6.67161">
        <ele>432.3</ele>
        <time>2022-09-29T10:05:52Z</time>
      </trkpt>
      <trkpt lat="46.78731" lon="6.67167">
        <ele>432.3</ele>
        <time>2022-09-29T10:05:53Z</time>
      </trkpt>
      <trkpt lat="46.78733" lon="6.67173">
        <ele>432.4</ele>
        <time>2022-09-29T10:05:54Z</time>
      </trkpt>
      <trkpt lat="46.78736" lon="6.67179">
        <ele>432.5</ele>
        <time>2022-09-29T10:05:55Z</time>
      </trkpt>
      <trkpt lat="46.78738" lon="6.67184">
        <ele>432.5</ele>
        <time>2022-09-29T10:05:56Z</time>
      </trkpt>
      <trkpt lat="46.7874" lon="6.6719">
        <ele>432.6</ele>
        <time>2022-09-29T10:05:57Z</time>
      </trkpt>
      <trkpt lat="46.78741" lon="6.67196">
        <ele>432.6</ele>
        <time>2022-09-29T10:05:58Z</time>
      </trkpt>
      <trkpt lat="46.78743" lon="6.67201">
        <ele>432.7</ele>
        <time>2022-09-29T10:05:59Z</time>
      </trkpt>
      <trkpt lat="46.78746" lon="6.67206">
        <ele>432.7</ele>
        <time>2022-09-29T10:06:00Z</time>
      </trkpt>
      <trkpt lat="46.78748" lon="6.67212">
        <ele>432.8</ele>
        <time>2022-09-29T10:06:01Z</time>
      </trkpt>
      <trkpt lat="46.7875" lon="6.67217">
        <ele>432.8</ele>
        <time>2022-09-29T10:06:02Z</time>
      </trkpt>
      <trkpt lat="46.78752" lon="6.67222">
        <ele>432.8</ele>
        <time>2022-09-29T10:06:03Z</time>
      </trkpt>
      <trkpt lat="46.78755" lon="6.67226">
        <ele>432.8</ele>
        <time>2022-09-29T10:06:04Z</time>
      </trkpt>
      <trkpt lat="46.78757" lon="6.67232">
        <ele>432.8</ele>
        <time>2022-09-29T10:06:05Z</time>
      </trkpt>
      <trkpt lat="46.78759" lon="6.67238">
        <ele>432.9</ele>
        <time>2022-09-29T10:06:06Z</time>
      </trkpt>
      <trkpt lat="46.78762" lon="6.67244">
        <ele>432.9</ele>
        <time>2022-09-29T10:06:07Z</time>
      </trkpt>
      <trkpt lat="46.78764" lon="6.6725">
        <ele>432.9</ele>
        <time>2022-09-29T10:06:08Z</time>
      </trkpt>
      <trkpt lat="46.78767" lon="6.67256">
        <ele>432.9</ele>
        <time>2022-09-29T10:06:09Z</time>
      </trkpt>
      <trkpt lat="46.78769" lon="6.67262">
        <ele>432.9</ele>
        <time>2022-09-29T10:06:10Z</time>
      </trkpt>
      <trkpt lat="46.78772" lon="6.67269">
        <ele>432.9</ele>
        <time>2022-09-29T10:06:11Z</time>
      </trkpt>
      <trkpt lat="46.78774" lon="6.67275">
        <ele>433</ele>
        <time>2022-09-29T10:06:12Z</time>
      </trkpt>
      <trkpt lat="46.78776" lon="6.67281">
        <ele>433</ele>
        <time>2022-09-29T10:06:13Z</time>
      </trkpt>
      <trkpt lat="46.78778" lon="6.67286">
        <ele>433</ele>
        <time>2022-09-29T10:06:14Z</time>
      </trkpt>
      <trkpt lat="46.78781" lon="6.67291">
        <ele>433</ele>
        <time>2022-09-29T10:06:15Z</time>
      </trkpt>
      <trkpt lat="46.78783" lon="6.67297">
        <ele>433</ele>
        <time>2022-09-29T10:06:16Z</time>
      </trkpt>
      <trkpt lat="46.78786" lon="6.67304">
        <ele>433.1</ele>
        <time>2022-09-29T10:06:17Z</time>
      </trkpt>
      <trkpt lat="46.78788" lon="6.6731">
        <ele>433.1</ele>
        <time>2022-09-29T10:06:18Z</time>
      </trkpt>
      <trkpt lat="46.7879" lon="6.67315">
        <ele>433.1</ele>
        <time>2022-09-29T10:06:19Z</time>
      </trkpt>
      <trkpt lat="46.78792" lon="6.67321">
        <ele>433.1</ele>
        <time>2022-09-29T10:06:20Z</time>
      </trkpt>
      <trkpt lat="46.78795" lon="6.67326">
        <ele>433.1</ele>
        <time>2022-09-29T10:06:21Z</time>
      </trkpt>
      <trkpt lat="46.78796" lon="6.67332">
        <ele>433.1</ele>
        <time>2022-09-29T10:06:22Z</time>
      </trkpt>
      <trkpt lat="46.78799" lon="6.67338">
        <ele>433.1</ele>
        <time>2022-09-29T10:06:23Z</time>
      </trkpt>
      <trkpt lat="46.78801" lon="6.67344">
        <ele>433.1</ele>
        <time>2022-09-29T10:06:24Z</time>
      </trkpt>
      <trkpt lat="46.78804" lon="6.67351">
        <ele>433.1</ele>
        <time>2022-09-29T10:06:25Z</time>
      </trkpt>
      <trkpt lat="46.78807" lon="6.67357">
        <ele>433.1</ele>
        <time>2022-09-29T10:06:26Z</time>
      </trkpt>
      <trkpt lat="46.78809" lon="6.67364">
        <ele>433.1</ele>
        <time>2022-09-29T10:06:27Z</time>
      </trkpt>
      <trkpt lat="46.78812" lon="6.67369">
        <ele>433.1</ele>
        <time>2022-09-29T10:06:28Z</time>
      </trkpt>
      <trkpt lat="46.78815" lon="6.67375">
        <ele>433.1</ele>
        <time>2022-09-29T10:06:29Z</time>
      </trkpt>
      <trkpt lat="46.78818" lon="6.6738">
        <ele>433.1</ele>
        <time>2022-09-29T10:06:30Z</time>
      </trkpt>
      <trkpt lat="46.78821" lon="6.67386">
        <ele>433.1</ele>
        <time>2022-09-29T10:06:31Z</time>
      </trkpt>
      <trkpt lat="46.78824" lon="6.67392">
        <ele>433.1</ele>
        <time>2022-09-29T10:06:32Z</time>
      </trkpt>
      <trkpt lat="46.78826" lon="6.67398">
        <ele>433.1</ele>
        <time>2022-09-29T10:06:33Z</time>
      </trkpt>
      <trkpt lat="46.78828" lon="6.67404">
        <ele>433.1</ele>
        <time>2022-09-29T10:06:34Z</time>
      </trkpt>
      <trkpt lat="46.78829" lon="6.67409">
        <ele>433.1</ele>
        <time>2022-09-29T10:06:35Z</time>
      </trkpt>
      <trkpt lat="46.78832" lon="6.67415">
        <ele>433.1</ele>
        <time>2022-09-29T10:06:36Z</time>
      </trkpt>
      <trkpt lat="46.78832" lon="6.67423">
        <ele>433.1</ele>
        <time>2022-09-29T10:06:37Z</time>
      </trkpt>
      <trkpt lat="46.78833" lon="6.6743">
        <ele>433.1</ele>
        <time>2022-09-29T10:06:38Z</time>
      </trkpt>
      <trkpt lat="46.78835" lon="6.67435">
        <ele>433.2</ele>
        <time>2022-09-29T10:06:39Z</time>
      </trkpt>
      <trkpt lat="46.78837" lon="6.6744">
        <ele>433.2</ele>
        <time>2022-09-29T10:06:40Z</time>
      </trkpt>
      <trkpt lat="46.78839" lon="6.67445">
        <ele>433.2</ele>
        <time>2022-09-29T10:06:41Z</time>
      </trkpt>
      <trkpt lat="46.78841" lon="6.67451">
        <ele>433.2</ele>
        <time>2022-09-29T10:06:42Z</time>
      </trkpt>
      <trkpt lat="46.78843" lon="6.67457">
        <ele>433.1</ele>
        <time>2022-09-29T10:06:43Z</time>
      </trkpt>
      <trkpt lat="46.78845" lon="6.67463">
        <ele>433.1</ele>
        <time>2022-09-29T10:06:44Z</time>
      </trkpt>
      <trkpt lat="46.78847" lon="6.67469">
        <ele>433.1</ele>
        <time>2022-09-29T10:06:45Z</time>
      </trkpt>
      <trkpt lat="46.7885" lon="6.67475">
        <ele>433.1</ele>
        <time>2022-09-29T10:06:46Z</time>
      </trkpt>
      <trkpt lat="46.78852" lon="6.67482">
        <ele>433</ele>
        <time>2022-09-29T10:06:47Z</time>
      </trkpt>
      <trkpt lat="46.78854" lon="6.67489">
        <ele>433</ele>
        <time>2022-09-29T10:06:48Z</time>
      </trkpt>
      <trkpt lat="46.78856" lon="6.67496">
        <ele>433</ele>
        <time>2022-09-29T10:06:49Z</time>
      </trkpt>
      <trkpt lat="46.78858" lon="6.67503">
        <ele>432.9</ele>
        <time>2022-09-29T10:06:50Z</time>
      </trkpt>
      <trkpt lat="46.78861" lon="6.67509">
        <ele>432.9</ele>
        <time>2022-09-29T10:06:51Z</time>
      </trkpt>
      <trkpt lat="46.78862" lon="6.67517">
        <ele>432.9</ele>
        <time>2022-09-29T10:06:52Z</time>
      </trkpt>
      <trkpt lat="46.78865" lon="6.67522">
        <ele>432.9</ele>
        <time>2022-09-29T10:06:53Z</time>
      </trkpt>
      <trkpt lat="46.78867" lon="6.67527">
        <ele>432.9</ele>
        <time>2022-09-29T10:06:54Z</time>
      </trkpt>
      <trkpt lat="46.78869" lon="6.67533">
        <ele>432.9</ele>
        <time>2022-09-29T10:06:55Z</time>
      </trkpt>
      <trkpt lat="46.78872" lon="6.67539">
        <ele>433</ele>
        <time>2022-09-29T10:06:56Z</time>
      </trkpt>
      <trkpt lat="46.78874" lon="6.67544">
        <ele>433</ele>
        <time>2022-09-29T10:06:57Z</time>
      </trkpt>
      <trkpt lat="46.78876" lon="6.67551">
        <ele>433</ele>
        <time>2022-09-29T10:06:58Z</time>
      </trkpt>
      <trkpt lat="46.78879" lon="6.67557">
        <ele>433</ele>
        <time>2022-09-29T10:06:59Z</time>
      </trkpt>
      <trkpt lat="46.78881" lon="6.67564">
        <ele>433.1</ele>
        <time>2022-09-29T10:07:00Z</time>
      </trkpt>
      <trkpt lat="46.78884" lon="6.67571">
        <ele>433.1</ele>
        <time>2022-09-29T10:07:01Z</time>
      </trkpt>
      <trkpt lat="46.78886" lon="6.67578">
        <ele>433.1</ele>
        <time>2022-09-29T10:07:02Z</time>
      </trkpt>
      <trkpt lat="46.78887" lon="6.67584">
        <ele>433.1</ele>
        <time>2022-09-29T10:07:03Z</time>
      </trkpt>
      <trkpt lat="46.78889" lon="6.6759">
        <ele>433.1</ele>
        <time>2022-09-29T10:07:04Z</time>
      </trkpt>
      <trkpt lat="46.7889" lon="6.67597">
        <ele>433.1</ele>
        <time>2022-09-29T10:07:05Z</time>
      </trkpt>
      <trkpt lat="46.78892" lon="6.67603">
        <ele>433</ele>
        <time>2022-09-29T10:07:06Z</time>
      </trkpt>
      <trkpt lat="46.78895" lon="6.67608">
        <ele>433</ele>
        <time>2022-09-29T10:07:07Z</time>
      </trkpt>
      <trkpt lat="46.78897" lon="6.67615">
        <ele>432.9</ele>
        <time>2022-09-29T10:07:08Z</time>
      </trkpt>
      <trkpt lat="46.78899" lon="6.67621">
        <ele>432.9</ele>
        <time>2022-09-29T10:07:09Z</time>
      </trkpt>
      <trkpt lat="46.78901" lon="6.67626">
        <ele>432.8</ele>
        <time>2022-09-29T10:07:10Z</time>
      </trkpt>
      <trkpt lat="46.78902" lon="6.67633">
        <ele>432.8</ele>
        <time>2022-09-29T10:07:11Z</time>
      </trkpt>
      <trkpt lat="46.78904" lon="6.67639">
        <ele>432.7</ele>
        <time>2022-09-29T10:07:12Z</time>
      </trkpt>
      <trkpt lat="46.78906" lon="6.67645">
        <ele>432.7</ele>
        <time>2022-09-29T10:07:13Z</time>
      </trkpt>
      <trkpt lat="46.78908" lon="6.67651">
        <ele>432.6</ele>
        <time>2022-09-29T10:07:14Z</time>
      </trkpt>
      <trkpt lat="46.7891" lon="6.67657">
        <ele>432.6</ele>
        <time>2022-09-29T10:07:15Z</time>
      </trkpt>
      <trkpt lat="46.78912" lon="6.67663">
        <ele>432.5</ele>
        <time>2022-09-29T10:07:16Z</time>
      </trkpt>
      <trkpt lat="46.78913" lon="6.6767">
        <ele>432.5</ele>
        <time>2022-09-29T10:07:17Z</time>
      </trkpt>
      <trkpt lat="46.78915" lon="6.67676">
        <ele>432.4</ele>
        <time>2022-09-29T10:07:18Z</time>
      </trkpt>
      <trkpt lat="46.78918" lon="6.67682">
        <ele>432.4</ele>
        <time>2022-09-29T10:07:19Z</time>
      </trkpt>
      <trkpt lat="46.7892" lon="6.67689">
        <ele>432.3</ele>
        <time>2022-09-29T10:07:20Z</time>
      </trkpt>
      <trkpt lat="46.78922" lon="6.67695">
        <ele>432.3</ele>
        <time>2022-09-29T10:07:21Z</time>
      </trkpt>
      <trkpt lat="46.78924" lon="6.67703">
        <ele>432.3</ele>
        <time>2022-09-29T10:07:22Z</time>
      </trkpt>
      <trkpt lat="46.78926" lon="6.67709">
        <ele>432.3</ele>
        <time>2022-09-29T10:07:23Z</time>
      </trkpt>
      <trkpt lat="46.78928" lon="6.67715">
        <ele>432.2</ele>
        <time>2022-09-29T10:07:24Z</time>
      </trkpt>
      <trkpt lat="46.7893" lon="6.6772">
        <ele>432.2</ele>
        <time>2022-09-29T10:07:25Z</time>
      </trkpt>
      <trkpt lat="46.78933" lon="6.67727">
        <ele>432.2</ele>
        <time>2022-09-29T10:07:26Z</time>
      </trkpt>
      <trkpt lat="46.78935" lon="6.67733">
        <ele>432.2</ele>
        <time>2022-09-29T10:07:27Z</time>
      </trkpt>
      <trkpt lat="46.78938" lon="6.67739">
        <ele>432.1</ele>
        <time>2022-09-29T10:07:28Z</time>
      </trkpt>
      <trkpt lat="46.7894" lon="6.67746">
        <ele>432.1</ele>
        <time>2022-09-29T10:07:29Z</time>
      </trkpt>
      <trkpt lat="46.78942" lon="6.67753">
        <ele>432.1</ele>
        <time>2022-09-29T10:07:30Z</time>
      </trkpt>
      <trkpt lat="46.78945" lon="6.67758">
        <ele>432.1</ele>
        <time>2022-09-29T10:07:31Z</time>
      </trkpt>
      <trkpt lat="46.78947" lon="6.67766">
        <ele>432.1</ele>
        <time>2022-09-29T10:07:32Z</time>
      </trkpt>
      <trkpt lat="46.78949" lon="6.67772">
        <ele>432.1</ele>
        <time>2022-09-29T10:07:33Z</time>
      </trkpt>
      <trkpt lat="46.78951" lon="6.67778">
        <ele>432.1</ele>
        <time>2022-09-29T10:07:34Z</time>
      </trkpt>
      <trkpt lat="46.78953" lon="6.67785">
        <ele>432.1</ele>
        <time>2022-09-29T10:07:35Z</time>
      </trkpt>
      <trkpt lat="46.78955" lon="6.67791">
        <ele>432.1</ele>
        <time>2022-09-29T10:07:36Z</time>
      </trkpt>
      <trkpt lat="46.78958" lon="6.67799">
        <ele>432.1</ele>
        <time>2022-09-29T10:07:37Z</time>
      </trkpt>
      <trkpt lat="46.78958" lon="6.67807">
        <ele>432.1</ele>
        <time>2022-09-29T10:07:38Z</time>
      </trkpt>
      <trkpt lat="46.78959" lon="6.67815">
        <ele>432.1</ele>
        <time>2022-09-29T10:07:39Z</time>
      </trkpt>
      <trkpt lat="46.7896" lon="6.67821">
        <ele>432</ele>
        <time>2022-09-29T10:07:40Z</time>
      </trkpt>
      <trkpt lat="46.78962" lon="6.67827">
        <ele>432</ele>
        <time>2022-09-29T10:07:41Z</time>
      </trkpt>
      <trkpt lat="46.78964" lon="6.67834">
        <ele>432.1</ele>
        <time>2022-09-29T10:07:42Z</time>
      </trkpt>
      <trkpt lat="46.78965" lon="6.6784">
        <ele>432.1</ele>
        <time>2022-09-29T10:07:43Z</time>
      </trkpt>
      <trkpt lat="46.78967" lon="6.67847">
        <ele>432</ele>
        <time>2022-09-29T10:07:44Z</time>
      </trkpt>
      <trkpt lat="46.78969" lon="6.67854">
        <ele>432</ele>
        <time>2022-09-29T10:07:45Z</time>
      </trkpt>
      <trkpt lat="46.7897" lon="6.67861">
        <ele>432</ele>
        <time>2022-09-29T10:07:46Z</time>
      </trkpt>
      <trkpt lat="46.78972" lon="6.67867">
        <ele>432</ele>
        <time>2022-09-29T10:07:47Z</time>
      </trkpt>
      <trkpt lat="46.78974" lon="6.67874">
        <ele>431.9</ele>
        <time>2022-09-29T10:07:48Z</time>
      </trkpt>
      <trkpt lat="46.78975" lon="6.6788">
        <ele>431.9</ele>
        <time>2022-09-29T10:07:49Z</time>
      </trkpt>
      <trkpt lat="46.78977" lon="6.67886">
        <ele>431.9</ele>
        <time>2022-09-29T10:07:50Z</time>
      </trkpt>
      <trkpt lat="46.78979" lon="6.67892">
        <ele>431.9</ele>
        <time>2022-09-29T10:07:51Z</time>
      </trkpt>
      <trkpt lat="46.7898" lon="6.67897">
        <ele>431.9</ele>
        <time>2022-09-29T10:07:52Z</time>
      </trkpt>
      <trkpt lat="46.78982" lon="6.67903">
        <ele>431.9</ele>
        <time>2022-09-29T10:07:53Z</time>
      </trkpt>
      <trkpt lat="46.78984" lon="6.67911">
        <ele>431.9</ele>
        <time>2022-09-29T10:07:54Z</time>
      </trkpt>
      <trkpt lat="46.78985" lon="6.67918">
        <ele>431.9</ele>
        <time>2022-09-29T10:07:55Z</time>
      </trkpt>
      <trkpt lat="46.78987" lon="6.67924">
        <ele>431.9</ele>
        <time>2022-09-29T10:07:56Z</time>
      </trkpt>
      <trkpt lat="46.78988" lon="6.6793">
        <ele>431.9</ele>
        <time>2022-09-29T10:07:57Z</time>
      </trkpt>
      <trkpt lat="46.7899" lon="6.67935">
        <ele>431.9</ele>
        <time>2022-09-29T10:07:58Z</time>
      </trkpt>
      <trkpt lat="46.78992" lon="6.67941">
        <ele>431.9</ele>
        <time>2022-09-29T10:07:59Z</time>
      </trkpt>
      <trkpt lat="46.78994" lon="6.67947">
        <ele>431.9</ele>
        <time>2022-09-29T10:08:00Z</time>
      </trkpt>
      <trkpt lat="46.78996" lon="6.67954">
        <ele>431.9</ele>
        <time>2022-09-29T10:08:01Z</time>
      </trkpt>
      <trkpt lat="46.78997" lon="6.67961">
        <ele>431.9</ele>
        <time>2022-09-29T10:08:02Z</time>
      </trkpt>
      <trkpt lat="46.78999" lon="6.67968">
        <ele>431.9</ele>
        <time>2022-09-29T10:08:03Z</time>
      </trkpt>
      <trkpt lat="46.79001" lon="6.67973">
        <ele>431.9</ele>
        <time>2022-09-29T10:08:04Z</time>
      </trkpt>
      <trkpt lat="46.79003" lon="6.6798">
        <ele>431.9</ele>
        <time>2022-09-29T10:08:05Z</time>
      </trkpt>
      <trkpt lat="46.79004" lon="6.67985">
        <ele>431.9</ele>
        <time>2022-09-29T10:08:06Z</time>
      </trkpt>
      <trkpt lat="46.79006" lon="6.67991">
        <ele>431.9</ele>
        <time>2022-09-29T10:08:07Z</time>
      </trkpt>
      <trkpt lat="46.79008" lon="6.67997">
        <ele>431.9</ele>
        <time>2022-09-29T10:08:08Z</time>
      </trkpt>
      <trkpt lat="46.79009" lon="6.68003">
        <ele>431.9</ele>
        <time>2022-09-29T10:08:09Z</time>
      </trkpt>
      <trkpt lat="46.79011" lon="6.68009">
        <ele>431.9</ele>
        <time>2022-09-29T10:08:10Z</time>
      </trkpt>
      <trkpt lat="46.79013" lon="6.68016">
        <ele>431.9</ele>
        <time>2022-09-29T10:08:11Z</time>
      </trkpt>
      <trkpt lat="46.79014" lon="6.68023">
        <ele>431.9</ele>
        <time>2022-09-29T10:08:12Z</time>
      </trkpt>
      <trkpt lat="46.79016" lon="6.6803">
        <ele>431.9</ele>
        <time>2022-09-29T10:08:13Z</time>
      </trkpt>
      <trkpt lat="46.79018" lon="6.68037">
        <ele>431.9</ele>
        <time>2022-09-29T10:08:14Z</time>
      </trkpt>
      <trkpt lat="46.7902" lon="6.68043">
        <ele>431.9</ele>
        <time>2022-09-29T10:08:15Z</time>
      </trkpt>
      <trkpt lat="46.79022" lon="6.6805">
        <ele>431.8</ele>
        <time>2022-09-29T10:08:16Z</time>
      </trkpt>
      <trkpt lat="46.79024" lon="6.68057">
        <ele>431.8</ele>
        <time>2022-09-29T10:08:17Z</time>
      </trkpt>
      <trkpt lat="46.79026" lon="6.68063">
        <ele>431.8</ele>
        <time>2022-09-29T10:08:18Z</time>
      </trkpt>
      <trkpt lat="46.79027" lon="6.6807">
        <ele>431.8</ele>
        <time>2022-09-29T10:08:19Z</time>
      </trkpt>
      <trkpt lat="46.79029" lon="6.68076">
        <ele>431.8</ele>
        <time>2022-09-29T10:08:20Z</time>
      </trkpt>
      <trkpt lat="46.79031" lon="6.68083">
        <ele>431.8</ele>
        <time>2022-09-29T10:08:21Z</time>
      </trkpt>
      <trkpt lat="46.79033" lon="6.6809">
        <ele>431.8</ele>
        <time>2022-09-29T10:08:22Z</time>
      </trkpt>
      <trkpt lat="46.79034" lon="6.68097">
        <ele>431.8</ele>
        <time>2022-09-29T10:08:23Z</time>
      </trkpt>
      <trkpt lat="46.79036" lon="6.68103">
        <ele>431.9</ele>
        <time>2022-09-29T10:08:24Z</time>
      </trkpt>
      <trkpt lat="46.79037" lon="6.6811">
        <ele>431.9</ele>
        <time>2022-09-29T10:08:25Z</time>
      </trkpt>
      <trkpt lat="46.79039" lon="6.68116">
        <ele>431.9</ele>
        <time>2022-09-29T10:08:26Z</time>
      </trkpt>
      <trkpt lat="46.79041" lon="6.68121">
        <ele>431.9</ele>
        <time>2022-09-29T10:08:27Z</time>
      </trkpt>
      <trkpt lat="46.79042" lon="6.68128">
        <ele>431.8</ele>
        <time>2022-09-29T10:08:28Z</time>
      </trkpt>
      <trkpt lat="46.79044" lon="6.68135">
        <ele>431.8</ele>
        <time>2022-09-29T10:08:29Z</time>
      </trkpt>
      <trkpt lat="46.79046" lon="6.68142">
        <ele>431.8</ele>
        <time>2022-09-29T10:08:30Z</time>
      </trkpt>
      <trkpt lat="46.79048" lon="6.6815">
        <ele>431.8</ele>
        <time>2022-09-29T10:08:31Z</time>
      </trkpt>
      <trkpt lat="46.79049" lon="6.68157">
        <ele>431.8</ele>
        <time>2022-09-29T10:08:32Z</time>
      </trkpt>
      <trkpt lat="46.79051" lon="6.68164">
        <ele>431.8</ele>
        <time>2022-09-29T10:08:33Z</time>
      </trkpt>
      <trkpt lat="46.79053" lon="6.68171">
        <ele>431.8</ele>
        <time>2022-09-29T10:08:34Z</time>
      </trkpt>
      <trkpt lat="46.79054" lon="6.68177">
        <ele>431.8</ele>
        <time>2022-09-29T10:08:35Z</time>
      </trkpt>
      <trkpt lat="46.79056" lon="6.68184">
        <ele>431.8</ele>
        <time>2022-09-29T10:08:36Z</time>
      </trkpt>
      <trkpt lat="46.79058" lon="6.6819">
        <ele>431.8</ele>
        <time>2022-09-29T10:08:37Z</time>
      </trkpt>
      <trkpt lat="46.79059" lon="6.68196">
        <ele>431.8</ele>
        <time>2022-09-29T10:08:38Z</time>
      </trkpt>
      <trkpt lat="46.79061" lon="6.68203">
        <ele>431.8</ele>
        <time>2022-09-29T10:08:39Z</time>
      </trkpt>
      <trkpt lat="46.79063" lon="6.6821">
        <ele>431.8</ele>
        <time>2022-09-29T10:08:40Z</time>
      </trkpt>
      <trkpt lat="46.79065" lon="6.68216">
        <ele>431.8</ele>
        <time>2022-09-29T10:08:41Z</time>
      </trkpt>
      <trkpt lat="46.79067" lon="6.68223">
        <ele>431.8</ele>
        <time>2022-09-29T10:08:42Z</time>
      </trkpt>
      <trkpt lat="46.79069" lon="6.6823">
        <ele>431.8</ele>
        <time>2022-09-29T10:08:43Z</time>
      </trkpt>
      <trkpt lat="46.7907" lon="6.68236">
        <ele>431.8</ele>
        <time>2022-09-29T10:08:44Z</time>
      </trkpt>
      <trkpt lat="46.79072" lon="6.68243">
        <ele>431.8</ele>
        <time>2022-09-29T10:08:45Z</time>
      </trkpt>
      <trkpt lat="46.79074" lon="6.68251">
        <ele>431.8</ele>
        <time>2022-09-29T10:08:46Z</time>
      </trkpt>
      <trkpt lat="46.79076" lon="6.68258">
        <ele>431.8</ele>
        <time>2022-09-29T10:08:47Z</time>
      </trkpt>
      <trkpt lat="46.79078" lon="6.68266">
        <ele>431.8</ele>
        <time>2022-09-29T10:08:48Z</time>
      </trkpt>
      <trkpt lat="46.79079" lon="6.68272">
        <ele>431.8</ele>
        <time>2022-09-29T10:08:49Z</time>
      </trkpt>
      <trkpt lat="46.79081" lon="6.68279">
        <ele>431.8</ele>
        <time>2022-09-29T10:08:50Z</time>
      </trkpt>
      <trkpt lat="46.79083" lon="6.68286">
        <ele>431.8</ele>
        <time>2022-09-29T10:08:51Z</time>
      </trkpt>
      <trkpt lat="46.79085" lon="6.68292">
        <ele>431.8</ele>
        <time>2022-09-29T10:08:52Z</time>
      </trkpt>
      <trkpt lat="46.79086" lon="6.68299">
        <ele>431.8</ele>
        <time>2022-09-29T10:08:53Z</time>
      </trkpt>
      <trkpt lat="46.79088" lon="6.68306">
        <ele>431.8</ele>
        <time>2022-09-29T10:08:54Z</time>
      </trkpt>
      <trkpt lat="46.7909" lon="6.68313">
        <ele>431.8</ele>
        <time>2022-09-29T10:08:55Z</time>
      </trkpt>
      <trkpt lat="46.79092" lon="6.68321">
        <ele>431.8</ele>
        <time>2022-09-29T10:08:56Z</time>
      </trkpt>
      <trkpt lat="46.79094" lon="6.68329">
        <ele>431.8</ele>
        <time>2022-09-29T10:08:57Z</time>
      </trkpt>
      <trkpt lat="46.79095" lon="6.68335">
        <ele>431.8</ele>
        <time>2022-09-29T10:08:58Z</time>
      </trkpt>
      <trkpt lat="46.79097" lon="6.68343">
        <ele>431.8</ele>
        <time>2022-09-29T10:08:59Z</time>
      </trkpt>
      <trkpt lat="46.79099" lon="6.68351">
        <ele>431.8</ele>
        <time>2022-09-29T10:09:00Z</time>
      </trkpt>
      <trkpt lat="46.79101" lon="6.68359">
        <ele>431.8</ele>
        <time>2022-09-29T10:09:01Z</time>
      </trkpt>
      <trkpt lat="46.79103" lon="6.68366">
        <ele>431.8</ele>
        <time>2022-09-29T10:09:02Z</time>
      </trkpt>
      <trkpt lat="46.79105" lon="6.68373">
        <ele>431.8</ele>
        <time>2022-09-29T10:09:03Z</time>
      </trkpt>
      <trkpt lat="46.79107" lon="6.6838">
        <ele>431.9</ele>
        <time>2022-09-29T10:09:04Z</time>
      </trkpt>
      <trkpt lat="46.79109" lon="6.68387">
        <ele>431.9</ele>
        <time>2022-09-29T10:09:05Z</time>
      </trkpt>
      <trkpt lat="46.79112" lon="6.68395">
        <ele>431.9</ele>
        <time>2022-09-29T10:09:06Z</time>
      </trkpt>
      <trkpt lat="46.79113" lon="6.68403">
        <ele>431.9</ele>
        <time>2022-09-29T10:09:07Z</time>
      </trkpt>
      <trkpt lat="46.79116" lon="6.68412">
        <ele>432</ele>
        <time>2022-09-29T10:09:08Z</time>
      </trkpt>
      <trkpt lat="46.79118" lon="6.6842">
        <ele>431.9</ele>
        <time>2022-09-29T10:09:09Z</time>
      </trkpt>
      <trkpt lat="46.7912" lon="6.68427">
        <ele>431.9</ele>
        <time>2022-09-29T10:09:10Z</time>
      </trkpt>
      <trkpt lat="46.79122" lon="6.68434">
        <ele>431.9</ele>
        <time>2022-09-29T10:09:11Z</time>
      </trkpt>
      <trkpt lat="46.79124" lon="6.68441">
        <ele>431.9</ele>
        <time>2022-09-29T10:09:12Z</time>
      </trkpt>
      <trkpt lat="46.79126" lon="6.68448">
        <ele>431.9</ele>
        <time>2022-09-29T10:09:13Z</time>
      </trkpt>
      <trkpt lat="46.79128" lon="6.68455">
        <ele>431.9</ele>
        <time>2022-09-29T10:09:14Z</time>
      </trkpt>
      <trkpt lat="46.7913" lon="6.68463">
        <ele>431.9</ele>
        <time>2022-09-29T10:09:15Z</time>
      </trkpt>
      <trkpt lat="46.79133" lon="6.6847">
        <ele>431.9</ele>
        <time>2022-09-29T10:09:16Z</time>
      </trkpt>
      <trkpt lat="46.79135" lon="6.68478">
        <ele>431.9</ele>
        <time>2022-09-29T10:09:17Z</time>
      </trkpt>
      <trkpt lat="46.79137" lon="6.68486">
        <ele>431.9</ele>
        <time>2022-09-29T10:09:18Z</time>
      </trkpt>
      <trkpt lat="46.79139" lon="6.68494">
        <ele>431.9</ele>
        <time>2022-09-29T10:09:19Z</time>
      </trkpt>
      <trkpt lat="46.79142" lon="6.685">
        <ele>431.9</ele>
        <time>2022-09-29T10:09:20Z</time>
      </trkpt>
      <trkpt lat="46.79144" lon="6.68508">
        <ele>431.9</ele>
        <time>2022-09-29T10:09:21Z</time>
      </trkpt>
      <trkpt lat="46.79147" lon="6.68515">
        <ele>431.9</ele>
        <time>2022-09-29T10:09:22Z</time>
      </trkpt>
      <trkpt lat="46.79149" lon="6.68523">
        <ele>431.9</ele>
        <time>2022-09-29T10:09:23Z</time>
      </trkpt>
      <trkpt lat="46.79151" lon="6.68531">
        <ele>431.9</ele>
        <time>2022-09-29T10:09:24Z</time>
      </trkpt>
      <trkpt lat="46.79154" lon="6.68538">
        <ele>432</ele>
        <time>2022-09-29T10:09:25Z</time>
      </trkpt>
      <trkpt lat="46.79156" lon="6.68545">
        <ele>432</ele>
        <time>2022-09-29T10:09:26Z</time>
      </trkpt>
      <trkpt lat="46.79158" lon="6.68553">
        <ele>432.1</ele>
        <time>2022-09-29T10:09:27Z</time>
      </trkpt>
      <trkpt lat="46.79161" lon="6.68561">
        <ele>432.1</ele>
        <time>2022-09-29T10:09:28Z</time>
      </trkpt>
      <trkpt lat="46.79164" lon="6.68568">
        <ele>432.1</ele>
        <time>2022-09-29T10:09:29Z</time>
      </trkpt>
      <trkpt lat="46.79166" lon="6.68576">
        <ele>432.1</ele>
        <time>2022-09-29T10:09:30Z</time>
      </trkpt>
      <trkpt lat="46.79168" lon="6.68583">
        <ele>432.1</ele>
        <time>2022-09-29T10:09:31Z</time>
      </trkpt>
      <trkpt lat="46.79171" lon="6.6859">
        <ele>432.1</ele>
        <time>2022-09-29T10:09:32Z</time>
      </trkpt>
      <trkpt lat="46.79173" lon="6.68598">
        <ele>432.2</ele>
        <time>2022-09-29T10:09:33Z</time>
      </trkpt>
      <trkpt lat="46.79175" lon="6.68604">
        <ele>432.2</ele>
        <time>2022-09-29T10:09:34Z</time>
      </trkpt>
      <trkpt lat="46.79178" lon="6.68611">
        <ele>432.2</ele>
        <time>2022-09-29T10:09:35Z</time>
      </trkpt>
      <trkpt lat="46.79181" lon="6.68617">
        <ele>432.2</ele>
        <time>2022-09-29T10:09:36Z</time>
      </trkpt>
      <trkpt lat="46.79183" lon="6.68623">
        <ele>432.2</ele>
        <time>2022-09-29T10:09:37Z</time>
      </trkpt>
      <trkpt lat="46.79186" lon="6.68629">
        <ele>432.2</ele>
        <time>2022-09-29T10:09:38Z</time>
      </trkpt>
      <trkpt lat="46.79188" lon="6.68634">
        <ele>432.1</ele>
        <time>2022-09-29T10:09:39Z</time>
      </trkpt>
      <trkpt lat="46.79191" lon="6.68639">
        <ele>432.1</ele>
        <time>2022-09-29T10:09:40Z</time>
      </trkpt>
      <trkpt lat="46.79194" lon="6.68645">
        <ele>432.1</ele>
        <time>2022-09-29T10:09:41Z</time>
      </trkpt>
      <trkpt lat="46.79197" lon="6.68651">
        <ele>432.1</ele>
        <time>2022-09-29T10:09:42Z</time>
      </trkpt>
      <trkpt lat="46.79199" lon="6.68657">
        <ele>432</ele>
        <time>2022-09-29T10:09:43Z</time>
      </trkpt>
      <trkpt lat="46.79202" lon="6.68664">
        <ele>432</ele>
        <time>2022-09-29T10:09:44Z</time>
      </trkpt>
      <trkpt lat="46.79204" lon="6.68671">
        <ele>432</ele>
        <time>2022-09-29T10:09:45Z</time>
      </trkpt>
      <trkpt lat="46.79207" lon="6.68678">
        <ele>431.9</ele>
        <time>2022-09-29T10:09:46Z</time>
      </trkpt>
      <trkpt lat="46.79211" lon="6.68686">
        <ele>431.9</ele>
        <time>2022-09-29T10:09:47Z</time>
      </trkpt>
      <trkpt lat="46.79214" lon="6.68692">
        <ele>431.9</ele>
        <time>2022-09-29T10:09:48Z</time>
      </trkpt>
      <trkpt lat="46.79217" lon="6.68699">
        <ele>431.9</ele>
        <time>2022-09-29T10:09:49Z</time>
      </trkpt>
      <trkpt lat="46.7922" lon="6.68706">
        <ele>431.9</ele>
        <time>2022-09-29T10:09:50Z</time>
      </trkpt>
      <trkpt lat="46.79223" lon="6.68712">
        <ele>431.9</ele>
        <time>2022-09-29T10:09:51Z</time>
      </trkpt>
      <trkpt lat="46.79226" lon="6.68719">
        <ele>431.9</ele>
        <time>2022-09-29T10:09:52Z</time>
      </trkpt>
      <trkpt lat="46.79228" lon="6.68725">
        <ele>431.9</ele>
        <time>2022-09-29T10:09:53Z</time>
      </trkpt>
      <trkpt lat="46.79231" lon="6.68731">
        <ele>431.9</ele>
        <time>2022-09-29T10:09:54Z</time>
      </trkpt>
      <trkpt lat="46.79234" lon="6.68738">
        <ele>432</ele>
        <time>2022-09-29T10:09:55Z</time>
      </trkpt>
      <trkpt lat="46.79238" lon="6.68745">
        <ele>432</ele>
        <time>2022-09-29T10:09:56Z</time>
      </trkpt>
      <trkpt lat="46.79241" lon="6.68751">
        <ele>432</ele>
        <time>2022-09-29T10:09:57Z</time>
      </trkpt>
      <trkpt lat="46.79244" lon="6.68757">
        <ele>432</ele>
        <time>2022-09-29T10:09:58Z</time>
      </trkpt>
      <trkpt lat="46.79246" lon="6.68765">
        <ele>432</ele>
        <time>2022-09-29T10:09:59Z</time>
      </trkpt>
      <trkpt lat="46.7925" lon="6.68771">
        <ele>432</ele>
        <time>2022-09-29T10:10:00Z</time>
      </trkpt>
      <trkpt lat="46.79253" lon="6.68777">
        <ele>432</ele>
        <time>2022-09-29T10:10:01Z</time>
      </trkpt>
      <trkpt lat="46.79256" lon="6.68784">
        <ele>432</ele>
        <time>2022-09-29T10:10:02Z</time>
      </trkpt>
      <trkpt lat="46.79259" lon="6.6879">
        <ele>432</ele>
        <time>2022-09-29T10:10:03Z</time>
      </trkpt>
      <trkpt lat="46.79262" lon="6.68797">
        <ele>432</ele>
        <time>2022-09-29T10:10:04Z</time>
      </trkpt>
      <trkpt lat="46.79265" lon="6.68802">
        <ele>432</ele>
        <time>2022-09-29T10:10:05Z</time>
      </trkpt>
      <trkpt lat="46.79268" lon="6.68807">
        <ele>432</ele>
        <time>2022-09-29T10:10:06Z</time>
      </trkpt>
      <trkpt lat="46.79271" lon="6.68815">
        <ele>431.9</ele>
        <time>2022-09-29T10:10:07Z</time>
      </trkpt>
      <trkpt lat="46.79274" lon="6.68821">
        <ele>431.9</ele>
        <time>2022-09-29T10:10:08Z</time>
      </trkpt>
      <trkpt lat="46.79277" lon="6.68828">
        <ele>431.9</ele>
        <time>2022-09-29T10:10:09Z</time>
      </trkpt>
      <trkpt lat="46.79281" lon="6.68834">
        <ele>431.9</ele>
        <time>2022-09-29T10:10:10Z</time>
      </trkpt>
      <trkpt lat="46.79284" lon="6.6884">
        <ele>431.9</ele>
        <time>2022-09-29T10:10:11Z</time>
      </trkpt>
      <trkpt lat="46.79288" lon="6.68846">
        <ele>431.9</ele>
        <time>2022-09-29T10:10:12Z</time>
      </trkpt>
      <trkpt lat="46.79291" lon="6.68852">
        <ele>431.9</ele>
        <time>2022-09-29T10:10:13Z</time>
      </trkpt>
      <trkpt lat="46.79294" lon="6.6886">
        <ele>431.9</ele>
        <time>2022-09-29T10:10:14Z</time>
      </trkpt>
      <trkpt lat="46.79298" lon="6.68866">
        <ele>431.9</ele>
        <time>2022-09-29T10:10:15Z</time>
      </trkpt>
      <trkpt lat="46.79301" lon="6.68872">
        <ele>431.9</ele>
        <time>2022-09-29T10:10:16Z</time>
      </trkpt>
      <trkpt lat="46.79304" lon="6.68877">
        <ele>431.9</ele>
        <time>2022-09-29T10:10:17Z</time>
      </trkpt>
      <trkpt lat="46.79307" lon="6.68883">
        <ele>431.9</ele>
        <time>2022-09-29T10:10:18Z</time>
      </trkpt>
      <trkpt lat="46.79311" lon="6.68889">
        <ele>431.9</ele>
        <time>2022-09-29T10:10:19Z</time>
      </trkpt>
      <trkpt lat="46.79314" lon="6.68895">
        <ele>431.8</ele>
        <time>2022-09-29T10:10:20Z</time>
      </trkpt>
      <trkpt lat="46.79316" lon="6.68903">
        <ele>431.8</ele>
        <time>2022-09-29T10:10:21Z</time>
      </trkpt>
      <trkpt lat="46.79319" lon="6.68908">
        <ele>431.8</ele>
        <time>2022-09-29T10:10:22Z</time>
      </trkpt>
      <trkpt lat="46.79323" lon="6.68915">
        <ele>431.8</ele>
        <time>2022-09-29T10:10:23Z</time>
      </trkpt>
      <trkpt lat="46.79326" lon="6.6892">
        <ele>431.8</ele>
        <time>2022-09-29T10:10:24Z</time>
      </trkpt>
      <trkpt lat="46.79329" lon="6.68924">
        <ele>431.8</ele>
        <time>2022-09-29T10:10:25Z</time>
      </trkpt>
      <trkpt lat="46.79332" lon="6.6893">
        <ele>431.9</ele>
        <time>2022-09-29T10:10:26Z</time>
      </trkpt>
      <trkpt lat="46.79334" lon="6.68936">
        <ele>431.9</ele>
        <time>2022-09-29T10:10:27Z</time>
      </trkpt>
      <trkpt lat="46.79337" lon="6.68941">
        <ele>431.9</ele>
        <time>2022-09-29T10:10:28Z</time>
      </trkpt>
      <trkpt lat="46.7934" lon="6.68946">
        <ele>431.9</ele>
        <time>2022-09-29T10:10:29Z</time>
      </trkpt>
      <trkpt lat="46.79343" lon="6.68951">
        <ele>431.9</ele>
        <time>2022-09-29T10:10:30Z</time>
      </trkpt>
      <trkpt lat="46.79346" lon="6.68956">
        <ele>431.9</ele>
        <time>2022-09-29T10:10:31Z</time>
      </trkpt>
      <trkpt lat="46.7935" lon="6.68962">
        <ele>431.9</ele>
        <time>2022-09-29T10:10:32Z</time>
      </trkpt>
      <trkpt lat="46.79353" lon="6.68968">
        <ele>431.9</ele>
        <time>2022-09-29T10:10:33Z</time>
      </trkpt>
      <trkpt lat="46.79355" lon="6.68975">
        <ele>431.9</ele>
        <time>2022-09-29T10:10:34Z</time>
      </trkpt>
      <trkpt lat="46.79358" lon="6.6898">
        <ele>431.9</ele>
        <time>2022-09-29T10:10:35Z</time>
      </trkpt>
      <trkpt lat="46.79362" lon="6.68986">
        <ele>431.9</ele>
        <time>2022-09-29T10:10:36Z</time>
      </trkpt>
      <trkpt lat="46.79365" lon="6.68992">
        <ele>431.9</ele>
        <time>2022-09-29T10:10:37Z</time>
      </trkpt>
      <trkpt lat="46.79368" lon="6.68997">
        <ele>431.9</ele>
        <time>2022-09-29T10:10:38Z</time>
      </trkpt>
      <trkpt lat="46.79371" lon="6.69002">
        <ele>431.9</ele>
        <time>2022-09-29T10:10:39Z</time>
      </trkpt>
      <trkpt lat="46.79374" lon="6.69007">
        <ele>431.9</ele>
        <time>2022-09-29T10:10:40Z</time>
      </trkpt>
      <trkpt lat="46.79378" lon="6.69013">
        <ele>431.9</ele>
        <time>2022-09-29T10:10:41Z</time>
      </trkpt>
      <trkpt lat="46.79381" lon="6.69019">
        <ele>431.9</ele>
        <time>2022-09-29T10:10:42Z</time>
      </trkpt>
      <trkpt lat="46.79384" lon="6.69025">
        <ele>431.9</ele>
        <time>2022-09-29T10:10:43Z</time>
      </trkpt>
      <trkpt lat="46.79387" lon="6.69031">
        <ele>431.9</ele>
        <time>2022-09-29T10:10:44Z</time>
      </trkpt>
      <trkpt lat="46.7939" lon="6.69037">
        <ele>431.9</ele>
        <time>2022-09-29T10:10:45Z</time>
      </trkpt>
      <trkpt lat="46.79393" lon="6.69043">
        <ele>431.9</ele>
        <time>2022-09-29T10:10:46Z</time>
      </trkpt>
      <trkpt lat="46.79396" lon="6.69049">
        <ele>431.9</ele>
        <time>2022-09-29T10:10:47Z</time>
      </trkpt>
      <trkpt lat="46.79399" lon="6.69055">
        <ele>431.9</ele>
        <time>2022-09-29T10:10:48Z</time>
      </trkpt>
      <trkpt lat="46.79402" lon="6.6906">
        <ele>431.9</ele>
        <time>2022-09-29T10:10:49Z</time>
      </trkpt>
      <trkpt lat="46.79405" lon="6.69067">
        <ele>431.9</ele>
        <time>2022-09-29T10:10:50Z</time>
      </trkpt>
      <trkpt lat="46.79408" lon="6.69072">
        <ele>431.9</ele>
        <time>2022-09-29T10:10:51Z</time>
      </trkpt>
      <trkpt lat="46.79411" lon="6.69077">
        <ele>431.9</ele>
        <time>2022-09-29T10:10:52Z</time>
      </trkpt>
      <trkpt lat="46.79414" lon="6.69082">
        <ele>431.9</ele>
        <time>2022-09-29T10:10:53Z</time>
      </trkpt>
      <trkpt lat="46.79417" lon="6.69088">
        <ele>431.9</ele>
        <time>2022-09-29T10:10:54Z</time>
      </trkpt>
      <trkpt lat="46.79419" lon="6.69093">
        <ele>432</ele>
        <time>2022-09-29T10:10:55Z</time>
      </trkpt>
      <trkpt lat="46.79422" lon="6.69099">
        <ele>432</ele>
        <time>2022-09-29T10:10:56Z</time>
      </trkpt>
      <trkpt lat="46.79425" lon="6.69104">
        <ele>432</ele>
        <time>2022-09-29T10:10:57Z</time>
      </trkpt>
      <trkpt lat="46.79428" lon="6.6911">
        <ele>432</ele>
        <time>2022-09-29T10:10:58Z</time>
      </trkpt>
      <trkpt lat="46.7943" lon="6.69114">
        <ele>432</ele>
        <time>2022-09-29T10:10:59Z</time>
      </trkpt>
      <trkpt lat="46.79433" lon="6.69119">
        <ele>432</ele>
        <time>2022-09-29T10:11:00Z</time>
      </trkpt>
      <trkpt lat="46.79436" lon="6.69124">
        <ele>432.1</ele>
        <time>2022-09-29T10:11:01Z</time>
      </trkpt>
      <trkpt lat="46.79439" lon="6.69129">
        <ele>432</ele>
        <time>2022-09-29T10:11:02Z</time>
      </trkpt>
      <trkpt lat="46.79442" lon="6.69134">
        <ele>432</ele>
        <time>2022-09-29T10:11:03Z</time>
      </trkpt>
      <trkpt lat="46.79445" lon="6.69141">
        <ele>432</ele>
        <time>2022-09-29T10:11:04Z</time>
      </trkpt>
      <trkpt lat="46.79448" lon="6.69147">
        <ele>432</ele>
        <time>2022-09-29T10:11:05Z</time>
      </trkpt>
      <trkpt lat="46.79451" lon="6.69153">
        <ele>432</ele>
        <time>2022-09-29T10:11:06Z</time>
      </trkpt>
      <trkpt lat="46.79454" lon="6.69159">
        <ele>432</ele>
        <time>2022-09-29T10:11:07Z</time>
      </trkpt>
      <trkpt lat="46.79457" lon="6.69165">
        <ele>432</ele>
        <time>2022-09-29T10:11:08Z</time>
      </trkpt>
      <trkpt lat="46.79461" lon="6.69171">
        <ele>432</ele>
        <time>2022-09-29T10:11:09Z</time>
      </trkpt>
      <trkpt lat="46.79464" lon="6.69177">
        <ele>432</ele>
        <time>2022-09-29T10:11:10Z</time>
      </trkpt>
      <trkpt lat="46.79467" lon="6.69182">
        <ele>432</ele>
        <time>2022-09-29T10:11:11Z</time>
      </trkpt>
      <trkpt lat="46.7947" lon="6.69189">
        <ele>432</ele>
        <time>2022-09-29T10:11:12Z</time>
      </trkpt>
      <trkpt lat="46.79473" lon="6.69195">
        <ele>432</ele>
        <time>2022-09-29T10:11:13Z</time>
      </trkpt>
      <trkpt lat="46.79476" lon="6.69202">
        <ele>432</ele>
        <time>2022-09-29T10:11:14Z</time>
      </trkpt>
      <trkpt lat="46.7948" lon="6.69209">
        <ele>432</ele>
        <time>2022-09-29T10:11:15Z</time>
      </trkpt>
      <trkpt lat="46.79483" lon="6.69214">
        <ele>432</ele>
        <time>2022-09-29T10:11:16Z</time>
      </trkpt>
      <trkpt lat="46.79486" lon="6.6922">
        <ele>432</ele>
        <time>2022-09-29T10:11:17Z</time>
      </trkpt>
      <trkpt lat="46.79488" lon="6.69226">
        <ele>432</ele>
        <time>2022-09-29T10:11:18Z</time>
      </trkpt>
      <trkpt lat="46.79491" lon="6.69231">
        <ele>432</ele>
        <time>2022-09-29T10:11:19Z</time>
      </trkpt>
      <trkpt lat="46.79494" lon="6.69237">
        <ele>432</ele>
        <time>2022-09-29T10:11:20Z</time>
      </trkpt>
      <trkpt lat="46.79497" lon="6.69243">
        <ele>432</ele>
        <time>2022-09-29T10:11:21Z</time>
      </trkpt>
      <trkpt lat="46.795" lon="6.69249">
        <ele>432</ele>
        <time>2022-09-29T10:11:22Z</time>
      </trkpt>
      <trkpt lat="46.79503" lon="6.69254">
        <ele>432</ele>
        <time>2022-09-29T10:11:23Z</time>
      </trkpt>
      <trkpt lat="46.79506" lon="6.69261">
        <ele>432</ele>
        <time>2022-09-29T10:11:24Z</time>
      </trkpt>
      <trkpt lat="46.79509" lon="6.69266">
        <ele>432</ele>
        <time>2022-09-29T10:11:25Z</time>
      </trkpt>
      <trkpt lat="46.79512" lon="6.69272">
        <ele>432</ele>
        <time>2022-09-29T10:11:26Z</time>
      </trkpt>
      <trkpt lat="46.79515" lon="6.69278">
        <ele>432</ele>
        <time>2022-09-29T10:11:27Z</time>
      </trkpt>
      <trkpt lat="46.79517" lon="6.69285">
        <ele>432</ele>
        <time>2022-09-29T10:11:28Z</time>
      </trkpt>
      <trkpt lat="46.7952" lon="6.69291">
        <ele>432.1</ele>
        <time>2022-09-29T10:11:29Z</time>
      </trkpt>
      <trkpt lat="46.79523" lon="6.69297">
        <ele>432.1</ele>
        <time>2022-09-29T10:11:30Z</time>
      </trkpt>
      <trkpt lat="46.79524" lon="6.69303">
        <ele>432.1</ele>
        <time>2022-09-29T10:11:31Z</time>
      </trkpt>
      <trkpt lat="46.79527" lon="6.69307">
        <ele>432.1</ele>
        <time>2022-09-29T10:11:32Z</time>
      </trkpt>
      <trkpt lat="46.79531" lon="6.69313">
        <ele>432.1</ele>
        <time>2022-09-29T10:11:33Z</time>
      </trkpt>
      <trkpt lat="46.79534" lon="6.69319">
        <ele>432.2</ele>
        <time>2022-09-29T10:11:34Z</time>
      </trkpt>
      <trkpt lat="46.79537" lon="6.69324">
        <ele>432.2</ele>
        <time>2022-09-29T10:11:35Z</time>
      </trkpt>
      <trkpt lat="46.79539" lon="6.6933">
        <ele>432.3</ele>
        <time>2022-09-29T10:11:36Z</time>
      </trkpt>
      <trkpt lat="46.79542" lon="6.69336">
        <ele>432.3</ele>
        <time>2022-09-29T10:11:37Z</time>
      </trkpt>
      <trkpt lat="46.79544" lon="6.69341">
        <ele>432.3</ele>
        <time>2022-09-29T10:11:38Z</time>
      </trkpt>
      <trkpt lat="46.79547" lon="6.69346">
        <ele>432.4</ele>
        <time>2022-09-29T10:11:39Z</time>
      </trkpt>
      <trkpt lat="46.79549" lon="6.69353">
        <ele>432.4</ele>
        <time>2022-09-29T10:11:40Z</time>
      </trkpt>
      <trkpt lat="46.79551" lon="6.69358">
        <ele>432.4</ele>
        <time>2022-09-29T10:11:41Z</time>
      </trkpt>
      <trkpt lat="46.79554" lon="6.69363">
        <ele>432.4</ele>
        <time>2022-09-29T10:11:42Z</time>
      </trkpt>
      <trkpt lat="46.79557" lon="6.69367">
        <ele>432.5</ele>
        <time>2022-09-29T10:11:43Z</time>
      </trkpt>
      <trkpt lat="46.79559" lon="6.69371">
        <ele>432.5</ele>
        <time>2022-09-29T10:11:44Z</time>
      </trkpt>
      <trkpt lat="46.7956" lon="6.69377">
        <ele>432.5</ele>
        <time>2022-09-29T10:11:45Z</time>
      </trkpt>
      <trkpt lat="46.79562" lon="6.69381">
        <ele>432.5</ele>
        <time>2022-09-29T10:11:46Z</time>
      </trkpt>
      <trkpt lat="46.79565" lon="6.69386">
        <ele>432.6</ele>
        <time>2022-09-29T10:11:47Z</time>
      </trkpt>
      <trkpt lat="46.79568" lon="6.6939">
        <ele>432.6</ele>
        <time>2022-09-29T10:11:48Z</time>
      </trkpt>
      <trkpt lat="46.7957" lon="6.69393">
        <ele>432.6</ele>
        <time>2022-09-29T10:11:49Z</time>
      </trkpt>
      <trkpt lat="46.79574" lon="6.69398">
        <ele>432.6</ele>
        <time>2022-09-29T10:11:50Z</time>
      </trkpt>
      <trkpt lat="46.79577" lon="6.69404">
        <ele>432.6</ele>
        <time>2022-09-29T10:11:51Z</time>
      </trkpt>
      <trkpt lat="46.79581" lon="6.6941">
        <ele>432.6</ele>
        <time>2022-09-29T10:11:52Z</time>
      </trkpt>
      <trkpt lat="46.79584" lon="6.69416">
        <ele>432.6</ele>
        <time>2022-09-29T10:11:53Z</time>
      </trkpt>
      <trkpt lat="46.79587" lon="6.69421">
        <ele>432.6</ele>
        <time>2022-09-29T10:11:54Z</time>
      </trkpt>
      <trkpt lat="46.79589" lon="6.69427">
        <ele>432.5</ele>
        <time>2022-09-29T10:11:55Z</time>
      </trkpt>
      <trkpt lat="46.79591" lon="6.69432">
        <ele>432.5</ele>
        <time>2022-09-29T10:11:56Z</time>
      </trkpt>
      <trkpt lat="46.79593" lon="6.69437">
        <ele>432.5</ele>
        <time>2022-09-29T10:11:57Z</time>
      </trkpt>
      <trkpt lat="46.79595" lon="6.69442">
        <ele>432.5</ele>
        <time>2022-09-29T10:11:58Z</time>
      </trkpt>
      <trkpt lat="46.79596" lon="6.69444">
        <ele>432.4</ele>
        <time>2022-09-29T10:11:59Z</time>
      </trkpt>
      <trkpt lat="46.79598" lon="6.69447">
        <ele>432.4</ele>
        <time>2022-09-29T10:12:00Z</time>
      </trkpt>
      <trkpt lat="46.79598" lon="6.69454">
        <ele>432.4</ele>
        <time>2022-09-29T10:12:01Z</time>
      </trkpt>
      <trkpt lat="46.796" lon="6.6946">
        <ele>432.3</ele>
        <time>2022-09-29T10:12:02Z</time>
      </trkpt>
      <trkpt lat="46.79602" lon="6.69466">
        <ele>432.3</ele>
        <time>2022-09-29T10:12:03Z</time>
      </trkpt>
      <trkpt lat="46.79604" lon="6.69472">
        <ele>432.3</ele>
        <time>2022-09-29T10:12:04Z</time>
      </trkpt>
      <trkpt lat="46.79606" lon="6.69478">
        <ele>432.2</ele>
        <time>2022-09-29T10:12:05Z</time>
      </trkpt>
      <trkpt lat="46.79608" lon="6.69483">
        <ele>432.2</ele>
        <time>2022-09-29T10:12:06Z</time>
      </trkpt>
      <trkpt lat="46.7961" lon="6.6949">
        <ele>432.2</ele>
        <time>2022-09-29T10:12:07Z</time>
      </trkpt>
      <trkpt lat="46.79612" lon="6.69495">
        <ele>432.1</ele>
        <time>2022-09-29T10:12:08Z</time>
      </trkpt>
      <trkpt lat="46.79614" lon="6.695">
        <ele>432.1</ele>
        <time>2022-09-29T10:12:09Z</time>
      </trkpt>
      <trkpt lat="46.79616" lon="6.69505">
        <ele>432.1</ele>
        <time>2022-09-29T10:12:10Z</time>
      </trkpt>
      <trkpt lat="46.79618" lon="6.6951">
        <ele>432.1</ele>
        <time>2022-09-29T10:12:11Z</time>
      </trkpt>
      <trkpt lat="46.7962" lon="6.69515">
        <ele>432.1</ele>
        <time>2022-09-29T10:12:12Z</time>
      </trkpt>
      <trkpt lat="46.79622" lon="6.6952">
        <ele>432.1</ele>
        <time>2022-09-29T10:12:13Z</time>
      </trkpt>
      <trkpt lat="46.79625" lon="6.69525">
        <ele>432.1</ele>
        <time>2022-09-29T10:12:14Z</time>
      </trkpt>
      <trkpt lat="46.79627" lon="6.69531">
        <ele>432.1</ele>
        <time>2022-09-29T10:12:15Z</time>
      </trkpt>
      <trkpt lat="46.79629" lon="6.69537">
        <ele>432.1</ele>
        <time>2022-09-29T10:12:16Z</time>
      </trkpt>
      <trkpt lat="46.79631" lon="6.69541">
        <ele>432.1</ele>
        <time>2022-09-29T10:12:17Z</time>
      </trkpt>
      <trkpt lat="46.79632" lon="6.69549">
        <ele>432.1</ele>
        <time>2022-09-29T10:12:18Z</time>
      </trkpt>
      <trkpt lat="46.79634" lon="6.69555">
        <ele>432</ele>
        <time>2022-09-29T10:12:19Z</time>
      </trkpt>
      <trkpt lat="46.79637" lon="6.69561">
        <ele>432</ele>
        <time>2022-09-29T10:12:20Z</time>
      </trkpt>
      <trkpt lat="46.79641" lon="6.69569">
        <ele>432</ele>
        <time>2022-09-29T10:12:21Z</time>
      </trkpt>
      <trkpt lat="46.79644" lon="6.69576">
        <ele>431.9</ele>
        <time>2022-09-29T10:12:22Z</time>
      </trkpt>
      <trkpt lat="46.79646" lon="6.69583">
        <ele>431.9</ele>
        <time>2022-09-29T10:12:23Z</time>
      </trkpt>
      <trkpt lat="46.79649" lon="6.6959">
        <ele>431.9</ele>
        <time>2022-09-29T10:12:24Z</time>
      </trkpt>
      <trkpt lat="46.79651" lon="6.69596">
        <ele>431.9</ele>
        <time>2022-09-29T10:12:25Z</time>
      </trkpt>
      <trkpt lat="46.79654" lon="6.69603">
        <ele>431.9</ele>
        <time>2022-09-29T10:12:26Z</time>
      </trkpt>
      <trkpt lat="46.79657" lon="6.69609">
        <ele>431.9</ele>
        <time>2022-09-29T10:12:27Z</time>
      </trkpt>
      <trkpt lat="46.79659" lon="6.69616">
        <ele>431.9</ele>
        <time>2022-09-29T10:12:28Z</time>
      </trkpt>
      <trkpt lat="46.79662" lon="6.69623">
        <ele>431.9</ele>
        <time>2022-09-29T10:12:29Z</time>
      </trkpt>
      <trkpt lat="46.79665" lon="6.6963">
        <ele>431.9</ele>
        <time>2022-09-29T10:12:30Z</time>
      </trkpt>
      <trkpt lat="46.79667" lon="6.69637">
        <ele>431.9</ele>
        <time>2022-09-29T10:12:31Z</time>
      </trkpt>
      <trkpt lat="46.79669" lon="6.69644">
        <ele>431.9</ele>
        <time>2022-09-29T10:12:32Z</time>
      </trkpt>
      <trkpt lat="46.79672" lon="6.69651">
        <ele>431.8</ele>
        <time>2022-09-29T10:12:33Z</time>
      </trkpt>
      <trkpt lat="46.79674" lon="6.69658">
        <ele>431.8</ele>
        <time>2022-09-29T10:12:34Z</time>
      </trkpt>
      <trkpt lat="46.79677" lon="6.69665">
        <ele>431.8</ele>
        <time>2022-09-29T10:12:35Z</time>
      </trkpt>
      <trkpt lat="46.79679" lon="6.69671">
        <ele>431.8</ele>
        <time>2022-09-29T10:12:36Z</time>
      </trkpt>
      <trkpt lat="46.79682" lon="6.69679">
        <ele>431.8</ele>
        <time>2022-09-29T10:12:37Z</time>
      </trkpt>
      <trkpt lat="46.79684" lon="6.69686">
        <ele>431.8</ele>
        <time>2022-09-29T10:12:38Z</time>
      </trkpt>
      <trkpt lat="46.79687" lon="6.69693">
        <ele>431.8</ele>
        <time>2022-09-29T10:12:39Z</time>
      </trkpt>
      <trkpt lat="46.79689" lon="6.697">
        <ele>431.8</ele>
        <time>2022-09-29T10:12:40Z</time>
      </trkpt>
      <trkpt lat="46.79692" lon="6.69706">
        <ele>431.8</ele>
        <time>2022-09-29T10:12:41Z</time>
      </trkpt>
      <trkpt lat="46.79694" lon="6.69712">
        <ele>431.8</ele>
        <time>2022-09-29T10:12:42Z</time>
      </trkpt>
      <trkpt lat="46.79696" lon="6.69719">
        <ele>431.8</ele>
        <time>2022-09-29T10:12:43Z</time>
      </trkpt>
      <trkpt lat="46.79698" lon="6.69725">
        <ele>431.8</ele>
        <time>2022-09-29T10:12:44Z</time>
      </trkpt>
      <trkpt lat="46.797" lon="6.69731">
        <ele>431.8</ele>
        <time>2022-09-29T10:12:45Z</time>
      </trkpt>
      <trkpt lat="46.79702" lon="6.69737">
        <ele>431.8</ele>
        <time>2022-09-29T10:12:46Z</time>
      </trkpt>
      <trkpt lat="46.79705" lon="6.69744">
        <ele>431.7</ele>
        <time>2022-09-29T10:12:47Z</time>
      </trkpt>
      <trkpt lat="46.79706" lon="6.69752">
        <ele>431.7</ele>
        <time>2022-09-29T10:12:48Z</time>
      </trkpt>
      <trkpt lat="46.79709" lon="6.69759">
        <ele>431.7</ele>
        <time>2022-09-29T10:12:49Z</time>
      </trkpt>
      <trkpt lat="46.79711" lon="6.69764">
        <ele>431.7</ele>
        <time>2022-09-29T10:12:50Z</time>
      </trkpt>
      <trkpt lat="46.79714" lon="6.69771">
        <ele>431.7</ele>
        <time>2022-09-29T10:12:51Z</time>
      </trkpt>
      <trkpt lat="46.79715" lon="6.69779">
        <ele>431.7</ele>
        <time>2022-09-29T10:12:52Z</time>
      </trkpt>
      <trkpt lat="46.79718" lon="6.69785">
        <ele>431.7</ele>
        <time>2022-09-29T10:12:53Z</time>
      </trkpt>
      <trkpt lat="46.7972" lon="6.69791">
        <ele>431.7</ele>
        <time>2022-09-29T10:12:54Z</time>
      </trkpt>
      <trkpt lat="46.79723" lon="6.69797">
        <ele>431.7</ele>
        <time>2022-09-29T10:12:55Z</time>
      </trkpt>
      <trkpt lat="46.79725" lon="6.69804">
        <ele>431.7</ele>
        <time>2022-09-29T10:12:56Z</time>
      </trkpt>
      <trkpt lat="46.79727" lon="6.6981">
        <ele>431.7</ele>
        <time>2022-09-29T10:12:57Z</time>
      </trkpt>
      <trkpt lat="46.79729" lon="6.69816">
        <ele>431.7</ele>
        <time>2022-09-29T10:12:58Z</time>
      </trkpt>
      <trkpt lat="46.79732" lon="6.69822">
        <ele>431.7</ele>
        <time>2022-09-29T10:12:59Z</time>
      </trkpt>
      <trkpt lat="46.79733" lon="6.6983">
        <ele>431.7</ele>
        <time>2022-09-29T10:13:00Z</time>
      </trkpt>
      <trkpt lat="46.79736" lon="6.69836">
        <ele>431.7</ele>
        <time>2022-09-29T10:13:01Z</time>
      </trkpt>
      <trkpt lat="46.79738" lon="6.69842">
        <ele>431.7</ele>
        <time>2022-09-29T10:13:02Z</time>
      </trkpt>
      <trkpt lat="46.7974" lon="6.69848">
        <ele>431.8</ele>
        <time>2022-09-29T10:13:03Z</time>
      </trkpt>
      <trkpt lat="46.79743" lon="6.69855">
        <ele>431.8</ele>
        <time>2022-09-29T10:13:04Z</time>
      </trkpt>
      <trkpt lat="46.79745" lon="6.6986">
        <ele>431.8</ele>
        <time>2022-09-29T10:13:05Z</time>
      </trkpt>
      <trkpt lat="46.79747" lon="6.69866">
        <ele>431.8</ele>
        <time>2022-09-29T10:13:06Z</time>
      </trkpt>
      <trkpt lat="46.79748" lon="6.69873">
        <ele>431.8</ele>
        <time>2022-09-29T10:13:07Z</time>
      </trkpt>
      <trkpt lat="46.79751" lon="6.69878">
        <ele>431.8</ele>
        <time>2022-09-29T10:13:08Z</time>
      </trkpt>
      <trkpt lat="46.79754" lon="6.69884">
        <ele>431.8</ele>
        <time>2022-09-29T10:13:09Z</time>
      </trkpt>
      <trkpt lat="46.79756" lon="6.6989">
        <ele>431.8</ele>
        <time>2022-09-29T10:13:10Z</time>
      </trkpt>
      <trkpt lat="46.79758" lon="6.69896">
        <ele>431.8</ele>
        <time>2022-09-29T10:13:11Z</time>
      </trkpt>
      <trkpt lat="46.79759" lon="6.69903">
        <ele>431.8</ele>
        <time>2022-09-29T10:13:12Z</time>
      </trkpt>
      <trkpt lat="46.79762" lon="6.6991">
        <ele>431.7</ele>
        <time>2022-09-29T10:13:13Z</time>
      </trkpt>
      <trkpt lat="46.79765" lon="6.69917">
        <ele>431.7</ele>
        <time>2022-09-29T10:13:14Z</time>
      </trkpt>
      <trkpt lat="46.79767" lon="6.69924">
        <ele>431.7</ele>
        <time>2022-09-29T10:13:15Z</time>
      </trkpt>
      <trkpt lat="46.7977" lon="6.6993">
        <ele>431.7</ele>
        <time>2022-09-29T10:13:16Z</time>
      </trkpt>
      <trkpt lat="46.79772" lon="6.69938">
        <ele>431.7</ele>
        <time>2022-09-29T10:13:17Z</time>
      </trkpt>
      <trkpt lat="46.79775" lon="6.69945">
        <ele>431.7</ele>
        <time>2022-09-29T10:13:18Z</time>
      </trkpt>
      <trkpt lat="46.79777" lon="6.69952">
        <ele>431.7</ele>
        <time>2022-09-29T10:13:19Z</time>
      </trkpt>
      <trkpt lat="46.7978" lon="6.6996">
        <ele>431.7</ele>
        <time>2022-09-29T10:13:20Z</time>
      </trkpt>
      <trkpt lat="46.79783" lon="6.69966">
        <ele>431.7</ele>
        <time>2022-09-29T10:13:21Z</time>
      </trkpt>
      <trkpt lat="46.79784" lon="6.69974">
        <ele>431.7</ele>
        <time>2022-09-29T10:13:22Z</time>
      </trkpt>
      <trkpt lat="46.79786" lon="6.69979">
        <ele>431.8</ele>
        <time>2022-09-29T10:13:23Z</time>
      </trkpt>
      <trkpt lat="46.79788" lon="6.69985">
        <ele>431.8</ele>
        <time>2022-09-29T10:13:24Z</time>
      </trkpt>
      <trkpt lat="46.79791" lon="6.6999">
        <ele>431.8</ele>
        <time>2022-09-29T10:13:25Z</time>
      </trkpt>
      <trkpt lat="46.79792" lon="6.69997">
        <ele>431.8</ele>
        <time>2022-09-29T10:13:26Z</time>
      </trkpt>
      <trkpt lat="46.79794" lon="6.70002">
        <ele>431.8</ele>
        <time>2022-09-29T10:13:27Z</time>
      </trkpt>
      <trkpt lat="46.79796" lon="6.70008">
        <ele>431.8</ele>
        <time>2022-09-29T10:13:28Z</time>
      </trkpt>
      <trkpt lat="46.79798" lon="6.70013">
        <ele>431.8</ele>
        <time>2022-09-29T10:13:29Z</time>
      </trkpt>
      <trkpt lat="46.79801" lon="6.70019">
        <ele>431.8</ele>
        <time>2022-09-29T10:13:30Z</time>
      </trkpt>
      <trkpt lat="46.79802" lon="6.70027">
        <ele>431.9</ele>
        <time>2022-09-29T10:13:31Z</time>
      </trkpt>
      <trkpt lat="46.79805" lon="6.70033">
        <ele>431.9</ele>
        <time>2022-09-29T10:13:32Z</time>
      </trkpt>
      <trkpt lat="46.79807" lon="6.7004">
        <ele>431.9</ele>
        <time>2022-09-29T10:13:33Z</time>
      </trkpt>
      <trkpt lat="46.79809" lon="6.70046">
        <ele>432</ele>
        <time>2022-09-29T10:13:34Z</time>
      </trkpt>
      <trkpt lat="46.79811" lon="6.70053">
        <ele>432</ele>
        <time>2022-09-29T10:13:35Z</time>
      </trkpt>
      <trkpt lat="46.79813" lon="6.70059">
        <ele>432</ele>
        <time>2022-09-29T10:13:36Z</time>
      </trkpt>
      <trkpt lat="46.79815" lon="6.70067">
        <ele>432</ele>
        <time>2022-09-29T10:13:37Z</time>
      </trkpt>
      <trkpt lat="46.79817" lon="6.70074">
        <ele>432</ele>
        <time>2022-09-29T10:13:38Z</time>
      </trkpt>
      <trkpt lat="46.79819" lon="6.7008">
        <ele>432</ele>
        <time>2022-09-29T10:13:39Z</time>
      </trkpt>
      <trkpt lat="46.79821" lon="6.70086">
        <ele>432.1</ele>
        <time>2022-09-29T10:13:40Z</time>
      </trkpt>
      <trkpt lat="46.79823" lon="6.70092">
        <ele>432.1</ele>
        <time>2022-09-29T10:13:41Z</time>
      </trkpt>
      <trkpt lat="46.79825" lon="6.70098">
        <ele>432.2</ele>
        <time>2022-09-29T10:13:42Z</time>
      </trkpt>
      <trkpt lat="46.79827" lon="6.70104">
        <ele>432.2</ele>
        <time>2022-09-29T10:13:43Z</time>
      </trkpt>
      <trkpt lat="46.79829" lon="6.70109">
        <ele>432.2</ele>
        <time>2022-09-29T10:13:44Z</time>
      </trkpt>
      <trkpt lat="46.79831" lon="6.70114">
        <ele>432.3</ele>
        <time>2022-09-29T10:13:45Z</time>
      </trkpt>
      <trkpt lat="46.79832" lon="6.7012">
        <ele>432.3</ele>
        <time>2022-09-29T10:13:46Z</time>
      </trkpt>
      <trkpt lat="46.79834" lon="6.70125">
        <ele>432.3</ele>
        <time>2022-09-29T10:13:47Z</time>
      </trkpt>
      <trkpt lat="46.79835" lon="6.70131">
        <ele>432.4</ele>
        <time>2022-09-29T10:13:48Z</time>
      </trkpt>
      <trkpt lat="46.79837" lon="6.70136">
        <ele>432.4</ele>
        <time>2022-09-29T10:13:49Z</time>
      </trkpt>
      <trkpt lat="46.79837" lon="6.7014">
        <ele>432.4</ele>
        <time>2022-09-29T10:13:50Z</time>
      </trkpt>
      <trkpt lat="46.79839" lon="6.70144">
        <ele>432.4</ele>
        <time>2022-09-29T10:13:51Z</time>
      </trkpt>
      <trkpt lat="46.79839" lon="6.70145">
        <ele>432.5</ele>
        <time>2022-09-29T10:13:52Z</time>
      </trkpt>
      <trkpt lat="46.7984" lon="6.70149">
        <ele>432.5</ele>
        <time>2022-09-29T10:13:53Z</time>
      </trkpt>
      <trkpt lat="46.7984" lon="6.7015">
        <ele>432.5</ele>
        <time>2022-09-29T10:13:54Z</time>
      </trkpt>
      <trkpt lat="46.79841" lon="6.70153">
        <ele>432.5</ele>
        <time>2022-09-29T10:13:55Z</time>
      </trkpt>
      <trkpt lat="46.79841" lon="6.70153">
        <ele>432.5</ele>
        <time>2022-09-29T10:13:56Z</time>
      </trkpt>
      <trkpt lat="46.79842" lon="6.70153">
        <ele>432.5</ele>
        <time>2022-09-29T10:13:57Z</time>
      </trkpt>
      <trkpt lat="46.79842" lon="6.70155">
        <ele>432.5</ele>
        <time>2022-09-29T10:13:58Z</time>
      </trkpt>
      <trkpt lat="46.79843" lon="6.70156">
        <ele>432.5</ele>
        <time>2022-09-29T10:13:59Z</time>
      </trkpt>
      <trkpt lat="46.79844" lon="6.70158">
        <ele>432.5</ele>
        <time>2022-09-29T10:14:00Z</time>
      </trkpt>
      <trkpt lat="46.79846" lon="6.7016">
        <ele>432.5</ele>
        <time>2022-09-29T10:14:01Z</time>
      </trkpt>
      <trkpt lat="46.79847" lon="6.70161">
        <ele>432.5</ele>
        <time>2022-09-29T10:14:02Z</time>
      </trkpt>
      <trkpt lat="46.79848" lon="6.70163">
        <ele>432.6</ele>
        <time>2022-09-29T10:14:03Z</time>
      </trkpt>
      <trkpt lat="46.79849" lon="6.70165">
        <ele>432.6</ele>
        <time>2022-09-29T10:14:04Z</time>
      </trkpt>
      <trkpt lat="46.7985" lon="6.70167">
        <ele>432.6</ele>
        <time>2022-09-29T10:14:05Z</time>
      </trkpt>
      <trkpt lat="46.79851" lon="6.70169">
        <ele>432.6</ele>
        <time>2022-09-29T10:15:15Z</time>
      </trkpt>
      <trkpt lat="46.79852" lon="6.7017">
        <ele>432.6</ele>
        <time>2022-09-29T10:15:16Z</time>
      </trkpt>
      <trkpt lat="46.79853" lon="6.70175">
        <ele>432.6</ele>
        <time>2022-09-29T10:15:17Z</time>
      </trkpt>
      <trkpt lat="46.79853" lon="6.70177">
        <ele>432.6</ele>
        <time>2022-09-29T10:15:18Z</time>
      </trkpt>
      <trkpt lat="46.79851" lon="6.70182">
        <ele>432.6</ele>
        <time>2022-09-29T10:15:19Z</time>
      </trkpt>
      <trkpt lat="46.79852" lon="6.70186">
        <ele>432.6</ele>
        <time>2022-09-29T10:15:20Z</time>
      </trkpt>
      <trkpt lat="46.79852" lon="6.7019">
        <ele>432.6</ele>
        <time>2022-09-29T10:15:21Z</time>
      </trkpt>
      <trkpt lat="46.79854" lon="6.70195">
        <ele>432.6</ele>
        <time>2022-09-29T10:15:22Z</time>
      </trkpt>
      <trkpt lat="46.79854" lon="6.70199">
        <ele>432.6</ele>
        <time>2022-09-29T10:15:23Z</time>
      </trkpt>
      <trkpt lat="46.79855" lon="6.70204">
        <ele>432.6</ele>
        <time>2022-09-29T10:15:24Z</time>
      </trkpt>
      <trkpt lat="46.79856" lon="6.7021">
        <ele>432.6</ele>
        <time>2022-09-29T10:15:25Z</time>
      </trkpt>
      <trkpt lat="46.79858" lon="6.70215">
        <ele>432.6</ele>
        <time>2022-09-29T10:15:26Z</time>
      </trkpt>
      <trkpt lat="46.79859" lon="6.70221">
        <ele>432.6</ele>
        <time>2022-09-29T10:15:27Z</time>
      </trkpt>
      <trkpt lat="46.79861" lon="6.70226">
        <ele>432.6</ele>
        <time>2022-09-29T10:15:28Z</time>
      </trkpt>
      <trkpt lat="46.79862" lon="6.70232">
        <ele>432.6</ele>
        <time>2022-09-29T10:15:29Z</time>
      </trkpt>
      <trkpt lat="46.79863" lon="6.70236">
        <ele>432.6</ele>
        <time>2022-09-29T10:15:30Z</time>
      </trkpt>
      <trkpt lat="46.79864" lon="6.70242">
        <ele>432.6</ele>
        <time>2022-09-29T10:15:31Z</time>
      </trkpt>
      <trkpt lat="46.79865" lon="6.70248">
        <ele>432.6</ele>
        <time>2022-09-29T10:15:32Z</time>
      </trkpt>
      <trkpt lat="46.79867" lon="6.70254">
        <ele>432.6</ele>
        <time>2022-09-29T10:15:33Z</time>
      </trkpt>
      <trkpt lat="46.79868" lon="6.7026">
        <ele>432.6</ele>
        <time>2022-09-29T10:15:34Z</time>
      </trkpt>
      <trkpt lat="46.79869" lon="6.70266">
        <ele>432.6</ele>
        <time>2022-09-29T10:15:35Z</time>
      </trkpt>
      <trkpt lat="46.79871" lon="6.70273">
        <ele>432.5</ele>
        <time>2022-09-29T10:15:36Z</time>
      </trkpt>
      <trkpt lat="46.79872" lon="6.70279">
        <ele>432.5</ele>
        <time>2022-09-29T10:15:37Z</time>
      </trkpt>
      <trkpt lat="46.79872" lon="6.70286">
        <ele>432.5</ele>
        <time>2022-09-29T10:15:38Z</time>
      </trkpt>
      <trkpt lat="46.79873" lon="6.70292">
        <ele>432.5</ele>
        <time>2022-09-29T10:15:39Z</time>
      </trkpt>
      <trkpt lat="46.79875" lon="6.70299">
        <ele>432.5</ele>
        <time>2022-09-29T10:15:40Z</time>
      </trkpt>
      <trkpt lat="46.79877" lon="6.70306">
        <ele>432.5</ele>
        <time>2022-09-29T10:15:41Z</time>
      </trkpt>
      <trkpt lat="46.79878" lon="6.70313">
        <ele>432.4</ele>
        <time>2022-09-29T10:15:42Z</time>
      </trkpt>
      <trkpt lat="46.79879" lon="6.70319">
        <ele>432.4</ele>
        <time>2022-09-29T10:15:43Z</time>
      </trkpt>
      <trkpt lat="46.79881" lon="6.70325">
        <ele>432.4</ele>
        <time>2022-09-29T10:15:44Z</time>
      </trkpt>
      <trkpt lat="46.79882" lon="6.70332">
        <ele>432.3</ele>
        <time>2022-09-29T10:15:45Z</time>
      </trkpt>
      <trkpt lat="46.79883" lon="6.7034">
        <ele>432.3</ele>
        <time>2022-09-29T10:15:46Z</time>
      </trkpt>
      <trkpt lat="46.79885" lon="6.70347">
        <ele>432.2</ele>
        <time>2022-09-29T10:15:47Z</time>
      </trkpt>
      <trkpt lat="46.79886" lon="6.70354">
        <ele>432.2</ele>
        <time>2022-09-29T10:15:48Z</time>
      </trkpt>
      <trkpt lat="46.79888" lon="6.70362">
        <ele>432.2</ele>
        <time>2022-09-29T10:15:49Z</time>
      </trkpt>
      <trkpt lat="46.79889" lon="6.70369">
        <ele>432.2</ele>
        <time>2022-09-29T10:15:50Z</time>
      </trkpt>
      <trkpt lat="46.79891" lon="6.70377">
        <ele>432.2</ele>
        <time>2022-09-29T10:15:51Z</time>
      </trkpt>
      <trkpt lat="46.79892" lon="6.70384">
        <ele>432.2</ele>
        <time>2022-09-29T10:15:52Z</time>
      </trkpt>
      <trkpt lat="46.79894" lon="6.70392">
        <ele>432.2</ele>
        <time>2022-09-29T10:15:53Z</time>
      </trkpt>
      <trkpt lat="46.79895" lon="6.70399">
        <ele>432.2</ele>
        <time>2022-09-29T10:15:54Z</time>
      </trkpt>
      <trkpt lat="46.79896" lon="6.70407">
        <ele>432.2</ele>
        <time>2022-09-29T10:15:55Z</time>
      </trkpt>
      <trkpt lat="46.79897" lon="6.70414">
        <ele>432.3</ele>
        <time>2022-09-29T10:15:56Z</time>
      </trkpt>
      <trkpt lat="46.79898" lon="6.7042">
        <ele>432.3</ele>
        <time>2022-09-29T10:15:57Z</time>
      </trkpt>
      <trkpt lat="46.799" lon="6.70427">
        <ele>432.3</ele>
        <time>2022-09-29T10:15:58Z</time>
      </trkpt>
      <trkpt lat="46.79901" lon="6.70432">
        <ele>432.3</ele>
        <time>2022-09-29T10:15:59Z</time>
      </trkpt>
      <trkpt lat="46.799" lon="6.70439">
        <ele>432.3</ele>
        <time>2022-09-29T10:16:00Z</time>
      </trkpt>
      <trkpt lat="46.79901" lon="6.70444">
        <ele>432.3</ele>
        <time>2022-09-29T10:16:01Z</time>
      </trkpt>
      <trkpt lat="46.79902" lon="6.70449">
        <ele>432.3</ele>
        <time>2022-09-29T10:16:02Z</time>
      </trkpt>
      <trkpt lat="46.79903" lon="6.70453">
        <ele>432.3</ele>
        <time>2022-09-29T10:16:03Z</time>
      </trkpt>
      <trkpt lat="46.79904" lon="6.70457">
        <ele>432.3</ele>
        <time>2022-09-29T10:16:04Z</time>
      </trkpt>
      <trkpt lat="46.79905" lon="6.70462">
        <ele>432.2</ele>
        <time>2022-09-29T10:16:05Z</time>
      </trkpt>
      <trkpt lat="46.79906" lon="6.70467">
        <ele>432.2</ele>
        <time>2022-09-29T10:16:06Z</time>
      </trkpt>
      <trkpt lat="46.79907" lon="6.70472">
        <ele>432.2</ele>
        <time>2022-09-29T10:16:07Z</time>
      </trkpt>
      <trkpt lat="46.79908" lon="6.70476">
        <ele>432.2</ele>
        <time>2022-09-29T10:16:08Z</time>
      </trkpt>
      <trkpt lat="46.79909" lon="6.7048">
        <ele>432.2</ele>
        <time>2022-09-29T10:16:09Z</time>
      </trkpt>
      <trkpt lat="46.79909" lon="6.70481">
        <ele>432.2</ele>
        <time>2022-09-29T10:16:10Z</time>
      </trkpt>
      <trkpt lat="46.7991" lon="6.70482">
        <ele>432.2</ele>
        <time>2022-09-29T10:16:11Z</time>
      </trkpt>
      <trkpt lat="46.7991" lon="6.70485">
        <ele>432.2</ele>
        <time>2022-09-29T10:16:12Z</time>
      </trkpt>
      <trkpt lat="46.7991" lon="6.70489">
        <ele>432.2</ele>
        <time>2022-09-29T10:16:13Z</time>
      </trkpt>
      <trkpt lat="46.7991" lon="6.7049">
        <ele>432.2</ele>
        <time>2022-09-29T10:16:14Z</time>
      </trkpt>
      <trkpt lat="46.79911" lon="6.70495">
        <ele>432.2</ele>
        <time>2022-09-29T10:16:15Z</time>
      </trkpt>
      <trkpt lat="46.79912" lon="6.70499">
        <ele>432.2</ele>
        <time>2022-09-29T10:16:16Z</time>
      </trkpt>
      <trkpt lat="46.79912" lon="6.70504">
        <ele>432.2</ele>
        <time>2022-09-29T10:16:17Z</time>
      </trkpt>
      <trkpt lat="46.79913" lon="6.7051">
        <ele>432.2</ele>
        <time>2022-09-29T10:16:18Z</time>
      </trkpt>
      <trkpt lat="46.79914" lon="6.70515">
        <ele>432.2</ele>
        <time>2022-09-29T10:16:19Z</time>
      </trkpt>
      <trkpt lat="46.79914" lon="6.70519">
        <ele>432.2</ele>
        <time>2022-09-29T10:16:20Z</time>
      </trkpt>
      <trkpt lat="46.79915" lon="6.70524">
        <ele>432.2</ele>
        <time>2022-09-29T10:16:21Z</time>
      </trkpt>
      <trkpt lat="46.79916" lon="6.70531">
        <ele>432.2</ele>
        <time>2022-09-29T10:16:22Z</time>
      </trkpt>
      <trkpt lat="46.79917" lon="6.70538">
        <ele>432.2</ele>
        <time>2022-09-29T10:16:23Z</time>
      </trkpt>
      <trkpt lat="46.79918" lon="6.70544">
        <ele>432.2</ele>
        <time>2022-09-29T10:16:24Z</time>
      </trkpt>
      <trkpt lat="46.79919" lon="6.7055">
        <ele>432.2</ele>
        <time>2022-09-29T10:16:25Z</time>
      </trkpt>
      <trkpt lat="46.7992" lon="6.70557">
        <ele>432.2</ele>
        <time>2022-09-29T10:16:26Z</time>
      </trkpt>
      <trkpt lat="46.79923" lon="6.70564">
        <ele>432.1</ele>
        <time>2022-09-29T10:16:27Z</time>
      </trkpt>
      <trkpt lat="46.79925" lon="6.7057">
        <ele>432.1</ele>
        <time>2022-09-29T10:16:28Z</time>
      </trkpt>
      <trkpt lat="46.79926" lon="6.70577">
        <ele>432.1</ele>
        <time>2022-09-29T10:16:29Z</time>
      </trkpt>
      <trkpt lat="46.79927" lon="6.70583">
        <ele>432.1</ele>
        <time>2022-09-29T10:16:30Z</time>
      </trkpt>
      <trkpt lat="46.79928" lon="6.70589">
        <ele>432.1</ele>
        <time>2022-09-29T10:16:31Z</time>
      </trkpt>
      <trkpt lat="46.79928" lon="6.70595">
        <ele>432</ele>
        <time>2022-09-29T10:16:32Z</time>
      </trkpt>
      <trkpt lat="46.79929" lon="6.70602">
        <ele>432</ele>
        <time>2022-09-29T10:16:33Z</time>
      </trkpt>
      <trkpt lat="46.7993" lon="6.70608">
        <ele>432</ele>
        <time>2022-09-29T10:16:34Z</time>
      </trkpt>
      <trkpt lat="46.79931" lon="6.70615">
        <ele>432</ele>
        <time>2022-09-29T10:16:35Z</time>
      </trkpt>
      <trkpt lat="46.79933" lon="6.70621">
        <ele>432</ele>
        <time>2022-09-29T10:16:36Z</time>
      </trkpt>
      <trkpt lat="46.79933" lon="6.70627">
        <ele>431.9</ele>
        <time>2022-09-29T10:16:37Z</time>
      </trkpt>
      <trkpt lat="46.79934" lon="6.70634">
        <ele>431.9</ele>
        <time>2022-09-29T10:16:38Z</time>
      </trkpt>
      <trkpt lat="46.79935" lon="6.70641">
        <ele>431.9</ele>
        <time>2022-09-29T10:16:39Z</time>
      </trkpt>
      <trkpt lat="46.79936" lon="6.70648">
        <ele>431.9</ele>
        <time>2022-09-29T10:16:40Z</time>
      </trkpt>
      <trkpt lat="46.79937" lon="6.70655">
        <ele>431.9</ele>
        <time>2022-09-29T10:16:41Z</time>
      </trkpt>
      <trkpt lat="46.79938" lon="6.70661">
        <ele>431.9</ele>
        <time>2022-09-29T10:16:42Z</time>
      </trkpt>
      <trkpt lat="46.7994" lon="6.70668">
        <ele>431.9</ele>
        <time>2022-09-29T10:16:43Z</time>
      </trkpt>
      <trkpt lat="46.79941" lon="6.70675">
        <ele>431.9</ele>
        <time>2022-09-29T10:16:44Z</time>
      </trkpt>
      <trkpt lat="46.79942" lon="6.70682">
        <ele>431.9</ele>
        <time>2022-09-29T10:16:45Z</time>
      </trkpt>
      <trkpt lat="46.79943" lon="6.70688">
        <ele>431.9</ele>
        <time>2022-09-29T10:16:46Z</time>
      </trkpt>
      <trkpt lat="46.79944" lon="6.70695">
        <ele>431.9</ele>
        <time>2022-09-29T10:16:47Z</time>
      </trkpt>
      <trkpt lat="46.79946" lon="6.70702">
        <ele>431.9</ele>
        <time>2022-09-29T10:16:48Z</time>
      </trkpt>
      <trkpt lat="46.79947" lon="6.70709">
        <ele>431.9</ele>
        <time>2022-09-29T10:16:49Z</time>
      </trkpt>
      <trkpt lat="46.79949" lon="6.70716">
        <ele>431.9</ele>
        <time>2022-09-29T10:16:50Z</time>
      </trkpt>
      <trkpt lat="46.79951" lon="6.70724">
        <ele>431.9</ele>
        <time>2022-09-29T10:16:51Z</time>
      </trkpt>
      <trkpt lat="46.79953" lon="6.70732">
        <ele>431.8</ele>
        <time>2022-09-29T10:16:52Z</time>
      </trkpt>
      <trkpt lat="46.79954" lon="6.7074">
        <ele>431.8</ele>
        <time>2022-09-29T10:16:53Z</time>
      </trkpt>
      <trkpt lat="46.79956" lon="6.70747">
        <ele>431.8</ele>
        <time>2022-09-29T10:16:54Z</time>
      </trkpt>
      <trkpt lat="46.79959" lon="6.70753">
        <ele>431.8</ele>
        <time>2022-09-29T10:16:55Z</time>
      </trkpt>
      <trkpt lat="46.79961" lon="6.70757">
        <ele>431.8</ele>
        <time>2022-09-29T10:16:56Z</time>
      </trkpt>
      <trkpt lat="46.79962" lon="6.70761">
        <ele>431.8</ele>
        <time>2022-09-29T10:16:57Z</time>
      </trkpt>
      <trkpt lat="46.79963" lon="6.70766">
        <ele>431.8</ele>
        <time>2022-09-29T10:16:58Z</time>
      </trkpt>
      <trkpt lat="46.79963" lon="6.70768">
        <ele>431.8</ele>
        <time>2022-09-29T10:16:59Z</time>
      </trkpt>
      <trkpt lat="46.79963" lon="6.70774">
        <ele>431.8</ele>
        <time>2022-09-29T10:17:00Z</time>
      </trkpt>
      <trkpt lat="46.79963" lon="6.7078">
        <ele>431.7</ele>
        <time>2022-09-29T10:17:01Z</time>
      </trkpt>
      <trkpt lat="46.79964" lon="6.70787">
        <ele>431.7</ele>
        <time>2022-09-29T10:17:02Z</time>
      </trkpt>
      <trkpt lat="46.79965" lon="6.70794">
        <ele>431.7</ele>
        <time>2022-09-29T10:17:03Z</time>
      </trkpt>
      <trkpt lat="46.79967" lon="6.708">
        <ele>431.7</ele>
        <time>2022-09-29T10:17:04Z</time>
      </trkpt>
      <trkpt lat="46.79968" lon="6.70806">
        <ele>431.6</ele>
        <time>2022-09-29T10:17:05Z</time>
      </trkpt>
      <trkpt lat="46.79969" lon="6.70812">
        <ele>431.6</ele>
        <time>2022-09-29T10:17:06Z</time>
      </trkpt>
      <trkpt lat="46.7997" lon="6.70819">
        <ele>431.6</ele>
        <time>2022-09-29T10:17:07Z</time>
      </trkpt>
      <trkpt lat="46.79971" lon="6.70826">
        <ele>431.6</ele>
        <time>2022-09-29T10:17:08Z</time>
      </trkpt>
      <trkpt lat="46.7997" lon="6.70834">
        <ele>431.5</ele>
        <time>2022-09-29T10:17:09Z</time>
      </trkpt>
      <trkpt lat="46.79971" lon="6.70842">
        <ele>431.5</ele>
        <time>2022-09-29T10:17:10Z</time>
      </trkpt>
      <trkpt lat="46.79972" lon="6.70851">
        <ele>431.5</ele>
        <time>2022-09-29T10:17:11Z</time>
      </trkpt>
      <trkpt lat="46.79973" lon="6.70859">
        <ele>431.5</ele>
        <time>2022-09-29T10:17:12Z</time>
      </trkpt>
      <trkpt lat="46.79974" lon="6.70867">
        <ele>431.4</ele>
        <time>2022-09-29T10:17:13Z</time>
      </trkpt>
      <trkpt lat="46.79976" lon="6.70875">
        <ele>431.4</ele>
        <time>2022-09-29T10:17:14Z</time>
      </trkpt>
      <trkpt lat="46.79978" lon="6.70883">
        <ele>431.4</ele>
        <time>2022-09-29T10:17:15Z</time>
      </trkpt>
      <trkpt lat="46.79979" lon="6.70891">
        <ele>431.4</ele>
        <time>2022-09-29T10:17:16Z</time>
      </trkpt>
      <trkpt lat="46.7998" lon="6.709">
        <ele>431.4</ele>
        <time>2022-09-29T10:17:17Z</time>
      </trkpt>
      <trkpt lat="46.79981" lon="6.70908">
        <ele>431.4</ele>
        <time>2022-09-29T10:17:18Z</time>
      </trkpt>
      <trkpt lat="46.79983" lon="6.70916">
        <ele>431.5</ele>
        <time>2022-09-29T10:17:19Z</time>
      </trkpt>
      <trkpt lat="46.79984" lon="6.70924">
        <ele>431.5</ele>
        <time>2022-09-29T10:17:20Z</time>
      </trkpt>
      <trkpt lat="46.79985" lon="6.70932">
        <ele>431.5</ele>
        <time>2022-09-29T10:17:21Z</time>
      </trkpt>
      <trkpt lat="46.79986" lon="6.7094">
        <ele>431.5</ele>
        <time>2022-09-29T10:17:22Z</time>
      </trkpt>
      <trkpt lat="46.79988" lon="6.70948">
        <ele>431.5</ele>
        <time>2022-09-29T10:17:23Z</time>
      </trkpt>
      <trkpt lat="46.79989" lon="6.70955">
        <ele>431.5</ele>
        <time>2022-09-29T10:17:24Z</time>
      </trkpt>
      <trkpt lat="46.7999" lon="6.70963">
        <ele>431.5</ele>
        <time>2022-09-29T10:17:25Z</time>
      </trkpt>
      <trkpt lat="46.79991" lon="6.7097">
        <ele>431.5</ele>
        <time>2022-09-29T10:17:26Z</time>
      </trkpt>
      <trkpt lat="46.79992" lon="6.70978">
        <ele>431.5</ele>
        <time>2022-09-29T10:17:27Z</time>
      </trkpt>
      <trkpt lat="46.79993" lon="6.70986">
        <ele>431.5</ele>
        <time>2022-09-29T10:17:28Z</time>
      </trkpt>
      <trkpt lat="46.79995" lon="6.70994">
        <ele>431.5</ele>
        <time>2022-09-29T10:17:29Z</time>
      </trkpt>
      <trkpt lat="46.79996" lon="6.71001">
        <ele>431.5</ele>
        <time>2022-09-29T10:17:30Z</time>
      </trkpt>
      <trkpt lat="46.79997" lon="6.71009">
        <ele>431.5</ele>
        <time>2022-09-29T10:17:31Z</time>
      </trkpt>
      <trkpt lat="46.79998" lon="6.71016">
        <ele>431.5</ele>
        <time>2022-09-29T10:17:32Z</time>
      </trkpt>
      <trkpt lat="46.79999" lon="6.71024">
        <ele>431.5</ele>
        <time>2022-09-29T10:17:33Z</time>
      </trkpt>
      <trkpt lat="46.79999" lon="6.71032">
        <ele>431.5</ele>
        <time>2022-09-29T10:17:34Z</time>
      </trkpt>
      <trkpt lat="46.8" lon="6.71039">
        <ele>431.5</ele>
        <time>2022-09-29T10:17:35Z</time>
      </trkpt>
      <trkpt lat="46.80002" lon="6.71046">
        <ele>431.5</ele>
        <time>2022-09-29T10:17:36Z</time>
      </trkpt>
      <trkpt lat="46.80003" lon="6.71053">
        <ele>431.5</ele>
        <time>2022-09-29T10:17:37Z</time>
      </trkpt>
      <trkpt lat="46.80005" lon="6.7106">
        <ele>431.5</ele>
        <time>2022-09-29T10:17:38Z</time>
      </trkpt>
      <trkpt lat="46.80005" lon="6.71068">
        <ele>431.5</ele>
        <time>2022-09-29T10:17:39Z</time>
      </trkpt>
      <trkpt lat="46.80006" lon="6.71075">
        <ele>431.5</ele>
        <time>2022-09-29T10:17:40Z</time>
      </trkpt>
      <trkpt lat="46.80007" lon="6.71082">
        <ele>431.5</ele>
        <time>2022-09-29T10:17:41Z</time>
      </trkpt>
      <trkpt lat="46.80009" lon="6.7109">
        <ele>431.5</ele>
        <time>2022-09-29T10:17:42Z</time>
      </trkpt>
      <trkpt lat="46.8001" lon="6.71098">
        <ele>431.4</ele>
        <time>2022-09-29T10:17:43Z</time>
      </trkpt>
      <trkpt lat="46.80012" lon="6.71106">
        <ele>431.4</ele>
        <time>2022-09-29T10:17:44Z</time>
      </trkpt>
      <trkpt lat="46.80013" lon="6.71113">
        <ele>431.4</ele>
        <time>2022-09-29T10:17:45Z</time>
      </trkpt>
      <trkpt lat="46.80015" lon="6.71121">
        <ele>431.4</ele>
        <time>2022-09-29T10:17:46Z</time>
      </trkpt>
      <trkpt lat="46.80016" lon="6.71128">
        <ele>431.4</ele>
        <time>2022-09-29T10:17:47Z</time>
      </trkpt>
      <trkpt lat="46.80017" lon="6.71135">
        <ele>431.4</ele>
        <time>2022-09-29T10:17:48Z</time>
      </trkpt>
      <trkpt lat="46.80018" lon="6.71143">
        <ele>431.4</ele>
        <time>2022-09-29T10:17:49Z</time>
      </trkpt>
      <trkpt lat="46.8002" lon="6.7115">
        <ele>431.4</ele>
        <time>2022-09-29T10:17:50Z</time>
      </trkpt>
      <trkpt lat="46.80021" lon="6.71158">
        <ele>431.4</ele>
        <time>2022-09-29T10:17:51Z</time>
      </trkpt>
      <trkpt lat="46.80023" lon="6.71166">
        <ele>431.4</ele>
        <time>2022-09-29T10:17:52Z</time>
      </trkpt>
      <trkpt lat="46.80024" lon="6.71174">
        <ele>431.4</ele>
        <time>2022-09-29T10:17:53Z</time>
      </trkpt>
      <trkpt lat="46.80026" lon="6.71181">
        <ele>431.4</ele>
        <time>2022-09-29T10:17:54Z</time>
      </trkpt>
      <trkpt lat="46.80028" lon="6.71188">
        <ele>431.4</ele>
        <time>2022-09-29T10:17:55Z</time>
      </trkpt>
      <trkpt lat="46.80029" lon="6.71196">
        <ele>431.4</ele>
        <time>2022-09-29T10:17:56Z</time>
      </trkpt>
      <trkpt lat="46.8003" lon="6.71204">
        <ele>431.4</ele>
        <time>2022-09-29T10:17:57Z</time>
      </trkpt>
      <trkpt lat="46.80031" lon="6.71213">
        <ele>431.4</ele>
        <time>2022-09-29T10:17:58Z</time>
      </trkpt>
      <trkpt lat="46.80033" lon="6.71221">
        <ele>431.5</ele>
        <time>2022-09-29T10:17:59Z</time>
      </trkpt>
      <trkpt lat="46.80034" lon="6.71228">
        <ele>431.5</ele>
        <time>2022-09-29T10:18:00Z</time>
      </trkpt>
      <trkpt lat="46.80035" lon="6.71235">
        <ele>431.5</ele>
        <time>2022-09-29T10:18:01Z</time>
      </trkpt>
      <trkpt lat="46.80037" lon="6.71243">
        <ele>431.5</ele>
        <time>2022-09-29T10:18:02Z</time>
      </trkpt>
      <trkpt lat="46.80038" lon="6.71251">
        <ele>431.5</ele>
        <time>2022-09-29T10:18:03Z</time>
      </trkpt>
      <trkpt lat="46.80039" lon="6.71259">
        <ele>431.5</ele>
        <time>2022-09-29T10:18:04Z</time>
      </trkpt>
      <trkpt lat="46.80041" lon="6.71266">
        <ele>431.5</ele>
        <time>2022-09-29T10:18:05Z</time>
      </trkpt>
      <trkpt lat="46.80042" lon="6.71273">
        <ele>431.5</ele>
        <time>2022-09-29T10:18:06Z</time>
      </trkpt>
      <trkpt lat="46.80044" lon="6.7128">
        <ele>431.6</ele>
        <time>2022-09-29T10:18:07Z</time>
      </trkpt>
      <trkpt lat="46.80044" lon="6.71287">
        <ele>431.6</ele>
        <time>2022-09-29T10:18:08Z</time>
      </trkpt>
      <trkpt lat="46.80046" lon="6.71294">
        <ele>431.6</ele>
        <time>2022-09-29T10:18:09Z</time>
      </trkpt>
      <trkpt lat="46.80047" lon="6.71301">
        <ele>431.6</ele>
        <time>2022-09-29T10:18:10Z</time>
      </trkpt>
      <trkpt lat="46.80047" lon="6.71308">
        <ele>431.6</ele>
        <time>2022-09-29T10:18:11Z</time>
      </trkpt>
      <trkpt lat="46.80049" lon="6.71316">
        <ele>431.6</ele>
        <time>2022-09-29T10:18:12Z</time>
      </trkpt>
      <trkpt lat="46.8005" lon="6.71323">
        <ele>431.6</ele>
        <time>2022-09-29T10:18:13Z</time>
      </trkpt>
      <trkpt lat="46.80052" lon="6.71331">
        <ele>431.6</ele>
        <time>2022-09-29T10:18:14Z</time>
      </trkpt>
      <trkpt lat="46.80053" lon="6.71339">
        <ele>431.6</ele>
        <time>2022-09-29T10:18:15Z</time>
      </trkpt>
      <trkpt lat="46.80054" lon="6.71346">
        <ele>431.6</ele>
        <time>2022-09-29T10:18:16Z</time>
      </trkpt>
      <trkpt lat="46.80056" lon="6.71353">
        <ele>431.6</ele>
        <time>2022-09-29T10:18:17Z</time>
      </trkpt>
      <trkpt lat="46.80057" lon="6.7136">
        <ele>431.6</ele>
        <time>2022-09-29T10:18:18Z</time>
      </trkpt>
      <trkpt lat="46.80058" lon="6.71367">
        <ele>431.6</ele>
        <time>2022-09-29T10:18:19Z</time>
      </trkpt>
      <trkpt lat="46.80059" lon="6.71374">
        <ele>431.6</ele>
        <time>2022-09-29T10:18:20Z</time>
      </trkpt>
      <trkpt lat="46.8006" lon="6.7138">
        <ele>431.6</ele>
        <time>2022-09-29T10:18:21Z</time>
      </trkpt>
      <trkpt lat="46.80061" lon="6.71387">
        <ele>431.6</ele>
        <time>2022-09-29T10:18:22Z</time>
      </trkpt>
      <trkpt lat="46.80062" lon="6.71394">
        <ele>431.6</ele>
        <time>2022-09-29T10:18:23Z</time>
      </trkpt>
      <trkpt lat="46.80063" lon="6.71403">
        <ele>431.6</ele>
        <time>2022-09-29T10:18:24Z</time>
      </trkpt>
      <trkpt lat="46.80064" lon="6.71409">
        <ele>431.6</ele>
        <time>2022-09-29T10:18:25Z</time>
      </trkpt>
      <trkpt lat="46.80065" lon="6.71416">
        <ele>431.6</ele>
        <time>2022-09-29T10:18:26Z</time>
      </trkpt>
      <trkpt lat="46.80066" lon="6.71423">
        <ele>431.6</ele>
        <time>2022-09-29T10:18:27Z</time>
      </trkpt>
      <trkpt lat="46.80067" lon="6.7143">
        <ele>431.6</ele>
        <time>2022-09-29T10:18:28Z</time>
      </trkpt>
      <trkpt lat="46.80068" lon="6.71437">
        <ele>431.6</ele>
        <time>2022-09-29T10:18:29Z</time>
      </trkpt>
      <trkpt lat="46.80068" lon="6.71444">
        <ele>431.6</ele>
        <time>2022-09-29T10:18:30Z</time>
      </trkpt>
      <trkpt lat="46.80069" lon="6.7145">
        <ele>431.7</ele>
        <time>2022-09-29T10:18:31Z</time>
      </trkpt>
      <trkpt lat="46.8007" lon="6.71456">
        <ele>431.7</ele>
        <time>2022-09-29T10:18:32Z</time>
      </trkpt>
      <trkpt lat="46.80071" lon="6.71461">
        <ele>431.7</ele>
        <time>2022-09-29T10:18:33Z</time>
      </trkpt>
      <trkpt lat="46.80072" lon="6.71467">
        <ele>431.7</ele>
        <time>2022-09-29T10:18:34Z</time>
      </trkpt>
      <trkpt lat="46.80072" lon="6.71472">
        <ele>431.7</ele>
        <time>2022-09-29T10:18:35Z</time>
      </trkpt>
      <trkpt lat="46.80074" lon="6.71478">
        <ele>431.7</ele>
        <time>2022-09-29T10:18:36Z</time>
      </trkpt>
      <trkpt lat="46.80074" lon="6.7148">
        <ele>431.7</ele>
        <time>2022-09-29T10:18:37Z</time>
      </trkpt>
      <trkpt lat="46.80075" lon="6.71484">
        <ele>431.7</ele>
        <time>2022-09-29T10:18:38Z</time>
      </trkpt>
      <trkpt lat="46.80076" lon="6.7149">
        <ele>431.7</ele>
        <time>2022-09-29T10:18:39Z</time>
      </trkpt>
      <trkpt lat="46.80077" lon="6.71495">
        <ele>431.7</ele>
        <time>2022-09-29T10:18:40Z</time>
      </trkpt>
      <trkpt lat="46.80078" lon="6.715">
        <ele>431.7</ele>
        <time>2022-09-29T10:18:41Z</time>
      </trkpt>
      <trkpt lat="46.80079" lon="6.71509">
        <ele>431.7</ele>
        <time>2022-09-29T10:18:42Z</time>
      </trkpt>
      <trkpt lat="46.8008" lon="6.71515">
        <ele>431.7</ele>
        <time>2022-09-29T10:18:43Z</time>
      </trkpt>
      <trkpt lat="46.80082" lon="6.71526">
        <ele>431.6</ele>
        <time>2022-09-29T10:18:44Z</time>
      </trkpt>
      <trkpt lat="46.80084" lon="6.71537">
        <ele>431.6</ele>
        <time>2022-09-29T10:18:45Z</time>
      </trkpt>
      <trkpt lat="46.80087" lon="6.71547">
        <ele>431.6</ele>
        <time>2022-09-29T10:18:46Z</time>
      </trkpt>
      <trkpt lat="46.80089" lon="6.71555">
        <ele>431.6</ele>
        <time>2022-09-29T10:18:47Z</time>
      </trkpt>
      <trkpt lat="46.80091" lon="6.71563">
        <ele>431.6</ele>
        <time>2022-09-29T10:18:48Z</time>
      </trkpt>
      <trkpt lat="46.80093" lon="6.7157">
        <ele>431.6</ele>
        <time>2022-09-29T10:18:49Z</time>
      </trkpt>
      <trkpt lat="46.80095" lon="6.71578">
        <ele>431.6</ele>
        <time>2022-09-29T10:18:50Z</time>
      </trkpt>
      <trkpt lat="46.80097" lon="6.71586">
        <ele>431.6</ele>
        <time>2022-09-29T10:18:51Z</time>
      </trkpt>
      <trkpt lat="46.80098" lon="6.71594">
        <ele>431.6</ele>
        <time>2022-09-29T10:18:52Z</time>
      </trkpt>
      <trkpt lat="46.80097" lon="6.71603">
        <ele>431.6</ele>
        <time>2022-09-29T10:18:53Z</time>
      </trkpt>
      <trkpt lat="46.80097" lon="6.7161">
        <ele>431.6</ele>
        <time>2022-09-29T10:18:54Z</time>
      </trkpt>
      <trkpt lat="46.80098" lon="6.71617">
        <ele>431.6</ele>
        <time>2022-09-29T10:18:55Z</time>
      </trkpt>
      <trkpt lat="46.80099" lon="6.71625">
        <ele>431.6</ele>
        <time>2022-09-29T10:18:56Z</time>
      </trkpt>
      <trkpt lat="46.801" lon="6.71632">
        <ele>431.6</ele>
        <time>2022-09-29T10:18:57Z</time>
      </trkpt>
      <trkpt lat="46.80102" lon="6.7164">
        <ele>431.6</ele>
        <time>2022-09-29T10:18:58Z</time>
      </trkpt>
      <trkpt lat="46.80103" lon="6.71647">
        <ele>431.6</ele>
        <time>2022-09-29T10:18:59Z</time>
      </trkpt>
      <trkpt lat="46.80103" lon="6.71654">
        <ele>431.7</ele>
        <time>2022-09-29T10:19:00Z</time>
      </trkpt>
      <trkpt lat="46.80104" lon="6.71663">
        <ele>431.7</ele>
        <time>2022-09-29T10:19:01Z</time>
      </trkpt>
      <trkpt lat="46.80106" lon="6.71671">
        <ele>431.7</ele>
        <time>2022-09-29T10:19:02Z</time>
      </trkpt>
      <trkpt lat="46.80108" lon="6.71679">
        <ele>431.7</ele>
        <time>2022-09-29T10:19:03Z</time>
      </trkpt>
      <trkpt lat="46.8011" lon="6.71686">
        <ele>431.7</ele>
        <time>2022-09-29T10:19:04Z</time>
      </trkpt>
      <trkpt lat="46.80111" lon="6.71694">
        <ele>431.7</ele>
        <time>2022-09-29T10:19:05Z</time>
      </trkpt>
      <trkpt lat="46.80112" lon="6.71702">
        <ele>431.7</ele>
        <time>2022-09-29T10:19:06Z</time>
      </trkpt>
      <trkpt lat="46.80113" lon="6.71709">
        <ele>431.7</ele>
        <time>2022-09-29T10:19:07Z</time>
      </trkpt>
      <trkpt lat="46.80114" lon="6.71715">
        <ele>431.7</ele>
        <time>2022-09-29T10:19:08Z</time>
      </trkpt>
      <trkpt lat="46.80115" lon="6.71721">
        <ele>431.7</ele>
        <time>2022-09-29T10:19:09Z</time>
      </trkpt>
      <trkpt lat="46.80116" lon="6.71728">
        <ele>431.6</ele>
        <time>2022-09-29T10:19:10Z</time>
      </trkpt>
      <trkpt lat="46.80118" lon="6.71735">
        <ele>431.6</ele>
        <time>2022-09-29T10:19:11Z</time>
      </trkpt>
      <trkpt lat="46.80119" lon="6.71741">
        <ele>431.6</ele>
        <time>2022-09-29T10:19:12Z</time>
      </trkpt>
      <trkpt lat="46.80121" lon="6.71748">
        <ele>431.6</ele>
        <time>2022-09-29T10:19:13Z</time>
      </trkpt>
      <trkpt lat="46.80122" lon="6.71755">
        <ele>431.6</ele>
        <time>2022-09-29T10:19:14Z</time>
      </trkpt>
      <trkpt lat="46.80124" lon="6.71762">
        <ele>431.6</ele>
        <time>2022-09-29T10:19:15Z</time>
      </trkpt>
      <trkpt lat="46.80124" lon="6.71769">
        <ele>431.6</ele>
        <time>2022-09-29T10:19:16Z</time>
      </trkpt>
      <trkpt lat="46.80126" lon="6.71775">
        <ele>431.6</ele>
        <time>2022-09-29T10:19:17Z</time>
      </trkpt>
      <trkpt lat="46.80126" lon="6.71781">
        <ele>431.5</ele>
        <time>2022-09-29T10:19:18Z</time>
      </trkpt>
      <trkpt lat="46.80127" lon="6.71787">
        <ele>431.5</ele>
        <time>2022-09-29T10:19:19Z</time>
      </trkpt>
      <trkpt lat="46.80128" lon="6.71794">
        <ele>431.5</ele>
        <time>2022-09-29T10:19:20Z</time>
      </trkpt>
      <trkpt lat="46.80129" lon="6.71799">
        <ele>431.5</ele>
        <time>2022-09-29T10:19:21Z</time>
      </trkpt>
      <trkpt lat="46.8013" lon="6.71805">
        <ele>431.6</ele>
        <time>2022-09-29T10:19:22Z</time>
      </trkpt>
      <trkpt lat="46.80132" lon="6.7181">
        <ele>431.6</ele>
        <time>2022-09-29T10:19:23Z</time>
      </trkpt>
      <trkpt lat="46.80133" lon="6.71815">
        <ele>431.6</ele>
        <time>2022-09-29T10:19:24Z</time>
      </trkpt>
      <trkpt lat="46.80135" lon="6.71818">
        <ele>431.6</ele>
        <time>2022-09-29T10:19:25Z</time>
      </trkpt>
      <trkpt lat="46.80137" lon="6.71823">
        <ele>431.6</ele>
        <time>2022-09-29T10:19:26Z</time>
      </trkpt>
      <trkpt lat="46.80137" lon="6.71825">
        <ele>431.6</ele>
        <time>2022-09-29T10:19:27Z</time>
      </trkpt>
      <trkpt lat="46.80138" lon="6.71829">
        <ele>431.6</ele>
        <time>2022-09-29T10:19:28Z</time>
      </trkpt>
      <trkpt lat="46.80138" lon="6.71835">
        <ele>431.5</ele>
        <time>2022-09-29T10:19:29Z</time>
      </trkpt>
      <trkpt lat="46.80139" lon="6.71837">
        <ele>431.5</ele>
        <time>2022-09-29T10:19:30Z</time>
      </trkpt>
      <trkpt lat="46.80139" lon="6.71842">
        <ele>431.5</ele>
        <time>2022-09-29T10:19:31Z</time>
      </trkpt>
      <trkpt lat="46.80141" lon="6.71847">
        <ele>431.5</ele>
        <time>2022-09-29T10:19:32Z</time>
      </trkpt>
      <trkpt lat="46.80142" lon="6.71853">
        <ele>431.4</ele>
        <time>2022-09-29T10:19:33Z</time>
      </trkpt>
      <trkpt lat="46.80143" lon="6.71858">
        <ele>431.4</ele>
        <time>2022-09-29T10:19:34Z</time>
      </trkpt>
      <trkpt lat="46.80144" lon="6.71865">
        <ele>431.4</ele>
        <time>2022-09-29T10:19:35Z</time>
      </trkpt>
      <trkpt lat="46.80145" lon="6.71871">
        <ele>431.4</ele>
        <time>2022-09-29T10:19:36Z</time>
      </trkpt>
      <trkpt lat="46.80143" lon="6.71879">
        <ele>431.3</ele>
        <time>2022-09-29T10:19:37Z</time>
      </trkpt>
      <trkpt lat="46.80144" lon="6.71886">
        <ele>431.3</ele>
        <time>2022-09-29T10:19:38Z</time>
      </trkpt>
      <trkpt lat="46.80145" lon="6.71893">
        <ele>431.3</ele>
        <time>2022-09-29T10:19:39Z</time>
      </trkpt>
      <trkpt lat="46.80146" lon="6.71899">
        <ele>431.3</ele>
        <time>2022-09-29T10:19:40Z</time>
      </trkpt>
      <trkpt lat="46.80147" lon="6.71907">
        <ele>431.3</ele>
        <time>2022-09-29T10:19:41Z</time>
      </trkpt>
      <trkpt lat="46.80148" lon="6.71915">
        <ele>431.3</ele>
        <time>2022-09-29T10:19:42Z</time>
      </trkpt>
      <trkpt lat="46.8015" lon="6.71922">
        <ele>431.3</ele>
        <time>2022-09-29T10:19:43Z</time>
      </trkpt>
      <trkpt lat="46.8015" lon="6.71929">
        <ele>431.3</ele>
        <time>2022-09-29T10:19:44Z</time>
      </trkpt>
      <trkpt lat="46.80151" lon="6.71936">
        <ele>431.3</ele>
        <time>2022-09-29T10:19:45Z</time>
      </trkpt>
      <trkpt lat="46.80152" lon="6.71942">
        <ele>431.3</ele>
        <time>2022-09-29T10:19:46Z</time>
      </trkpt>
      <trkpt lat="46.80153" lon="6.71948">
        <ele>431.3</ele>
        <time>2022-09-29T10:19:47Z</time>
      </trkpt>
      <trkpt lat="46.80155" lon="6.71955">
        <ele>431.3</ele>
        <time>2022-09-29T10:19:48Z</time>
      </trkpt>
      <trkpt lat="46.80156" lon="6.7196">
        <ele>431.3</ele>
        <time>2022-09-29T10:19:49Z</time>
      </trkpt>
      <trkpt lat="46.80157" lon="6.71967">
        <ele>431.3</ele>
        <time>2022-09-29T10:19:50Z</time>
      </trkpt>
      <trkpt lat="46.80159" lon="6.71977">
        <ele>431.3</ele>
        <time>2022-09-29T10:19:51Z</time>
      </trkpt>
      <trkpt lat="46.80161" lon="6.71986">
        <ele>431.3</ele>
        <time>2022-09-29T10:19:52Z</time>
      </trkpt>
      <trkpt lat="46.80163" lon="6.71995">
        <ele>431.3</ele>
        <time>2022-09-29T10:19:53Z</time>
      </trkpt>
      <trkpt lat="46.80164" lon="6.72005">
        <ele>431.3</ele>
        <time>2022-09-29T10:19:54Z</time>
      </trkpt>
      <trkpt lat="46.80165" lon="6.72013">
        <ele>431.3</ele>
        <time>2022-09-29T10:19:55Z</time>
      </trkpt>
      <trkpt lat="46.80167" lon="6.72021">
        <ele>431.3</ele>
        <time>2022-09-29T10:19:56Z</time>
      </trkpt>
      <trkpt lat="46.80168" lon="6.72029">
        <ele>431.3</ele>
        <time>2022-09-29T10:19:57Z</time>
      </trkpt>
      <trkpt lat="46.80169" lon="6.72036">
        <ele>431.3</ele>
        <time>2022-09-29T10:19:58Z</time>
      </trkpt>
      <trkpt lat="46.8017" lon="6.72044">
        <ele>431.3</ele>
        <time>2022-09-29T10:19:59Z</time>
      </trkpt>
      <trkpt lat="46.80171" lon="6.72051">
        <ele>431.3</ele>
        <time>2022-09-29T10:20:00Z</time>
      </trkpt>
      <trkpt lat="46.80172" lon="6.72058">
        <ele>431.3</ele>
        <time>2022-09-29T10:20:01Z</time>
      </trkpt>
      <trkpt lat="46.80174" lon="6.72065">
        <ele>431.3</ele>
        <time>2022-09-29T10:20:02Z</time>
      </trkpt>
      <trkpt lat="46.80175" lon="6.72072">
        <ele>431.3</ele>
        <time>2022-09-29T10:20:03Z</time>
      </trkpt>
      <trkpt lat="46.80175" lon="6.7208">
        <ele>431.3</ele>
        <time>2022-09-29T10:20:04Z</time>
      </trkpt>
      <trkpt lat="46.80177" lon="6.72087">
        <ele>431.3</ele>
        <time>2022-09-29T10:20:05Z</time>
      </trkpt>
      <trkpt lat="46.80178" lon="6.72095">
        <ele>431.3</ele>
        <time>2022-09-29T10:20:06Z</time>
      </trkpt>
      <trkpt lat="46.80179" lon="6.72102">
        <ele>431.3</ele>
        <time>2022-09-29T10:20:07Z</time>
      </trkpt>
      <trkpt lat="46.8018" lon="6.72108">
        <ele>431.3</ele>
        <time>2022-09-29T10:20:08Z</time>
      </trkpt>
      <trkpt lat="46.80181" lon="6.72115">
        <ele>431.3</ele>
        <time>2022-09-29T10:20:09Z</time>
      </trkpt>
      <trkpt lat="46.80182" lon="6.72122">
        <ele>431.3</ele>
        <time>2022-09-29T10:20:10Z</time>
      </trkpt>
      <trkpt lat="46.80184" lon="6.72129">
        <ele>431.4</ele>
        <time>2022-09-29T10:20:11Z</time>
      </trkpt>
      <trkpt lat="46.80185" lon="6.72137">
        <ele>431.4</ele>
        <time>2022-09-29T10:20:12Z</time>
      </trkpt>
      <trkpt lat="46.80187" lon="6.72144">
        <ele>431.5</ele>
        <time>2022-09-29T10:20:13Z</time>
      </trkpt>
      <trkpt lat="46.80188" lon="6.7215">
        <ele>431.5</ele>
        <time>2022-09-29T10:20:14Z</time>
      </trkpt>
      <trkpt lat="46.8019" lon="6.72156">
        <ele>431.6</ele>
        <time>2022-09-29T10:20:15Z</time>
      </trkpt>
      <trkpt lat="46.80191" lon="6.72162">
        <ele>431.6</ele>
        <time>2022-09-29T10:20:16Z</time>
      </trkpt>
      <trkpt lat="46.80192" lon="6.72167">
        <ele>431.7</ele>
        <time>2022-09-29T10:20:17Z</time>
      </trkpt>
      <trkpt lat="46.80193" lon="6.72173">
        <ele>431.7</ele>
        <time>2022-09-29T10:20:18Z</time>
      </trkpt>
      <trkpt lat="46.80192" lon="6.7218">
        <ele>431.7</ele>
        <time>2022-09-29T10:20:19Z</time>
      </trkpt>
      <trkpt lat="46.80193" lon="6.72187">
        <ele>431.8</ele>
        <time>2022-09-29T10:20:20Z</time>
      </trkpt>
      <trkpt lat="46.80193" lon="6.72194">
        <ele>431.8</ele>
        <time>2022-09-29T10:20:21Z</time>
      </trkpt>
      <trkpt lat="46.80194" lon="6.722">
        <ele>431.8</ele>
        <time>2022-09-29T10:20:22Z</time>
      </trkpt>
      <trkpt lat="46.80195" lon="6.72206">
        <ele>431.9</ele>
        <time>2022-09-29T10:20:23Z</time>
      </trkpt>
      <trkpt lat="46.80197" lon="6.72211">
        <ele>431.9</ele>
        <time>2022-09-29T10:20:24Z</time>
      </trkpt>
      <trkpt lat="46.80198" lon="6.72217">
        <ele>431.9</ele>
        <time>2022-09-29T10:20:25Z</time>
      </trkpt>
      <trkpt lat="46.80199" lon="6.72223">
        <ele>432</ele>
        <time>2022-09-29T10:20:26Z</time>
      </trkpt>
      <trkpt lat="46.80201" lon="6.72228">
        <ele>432</ele>
        <time>2022-09-29T10:20:27Z</time>
      </trkpt>
      <trkpt lat="46.80202" lon="6.72234">
        <ele>432</ele>
        <time>2022-09-29T10:20:28Z</time>
      </trkpt>
      <trkpt lat="46.80203" lon="6.7224">
        <ele>432.1</ele>
        <time>2022-09-29T10:20:29Z</time>
      </trkpt>
      <trkpt lat="46.80204" lon="6.72246">
        <ele>432.1</ele>
        <time>2022-09-29T10:20:30Z</time>
      </trkpt>
      <trkpt lat="46.80205" lon="6.72251">
        <ele>432.2</ele>
        <time>2022-09-29T10:20:31Z</time>
      </trkpt>
      <trkpt lat="46.80206" lon="6.72257">
        <ele>432.2</ele>
        <time>2022-09-29T10:20:32Z</time>
      </trkpt>
      <trkpt lat="46.80208" lon="6.72263">
        <ele>432.3</ele>
        <time>2022-09-29T10:20:33Z</time>
      </trkpt>
      <trkpt lat="46.80209" lon="6.72269">
        <ele>432.3</ele>
        <time>2022-09-29T10:20:34Z</time>
      </trkpt>
      <trkpt lat="46.8021" lon="6.72275">
        <ele>432.4</ele>
        <time>2022-09-29T10:20:35Z</time>
      </trkpt>
      <trkpt lat="46.80209" lon="6.72281">
        <ele>432.4</ele>
        <time>2022-09-29T10:20:36Z</time>
      </trkpt>
      <trkpt lat="46.8021" lon="6.72287">
        <ele>432.5</ele>
        <time>2022-09-29T10:20:37Z</time>
      </trkpt>
      <trkpt lat="46.80211" lon="6.72293">
        <ele>432.5</ele>
        <time>2022-09-29T10:20:38Z</time>
      </trkpt>
      <trkpt lat="46.80212" lon="6.72299">
        <ele>432.5</ele>
        <time>2022-09-29T10:20:39Z</time>
      </trkpt>
      <trkpt lat="46.80213" lon="6.72306">
        <ele>432.6</ele>
        <time>2022-09-29T10:20:40Z</time>
      </trkpt>
      <trkpt lat="46.80214" lon="6.72311">
        <ele>432.6</ele>
        <time>2022-09-29T10:20:41Z</time>
      </trkpt>
      <trkpt lat="46.80216" lon="6.72318">
        <ele>432.6</ele>
        <time>2022-09-29T10:20:42Z</time>
      </trkpt>
      <trkpt lat="46.80216" lon="6.72324">
        <ele>432.7</ele>
        <time>2022-09-29T10:20:43Z</time>
      </trkpt>
      <trkpt lat="46.80217" lon="6.72329">
        <ele>432.7</ele>
        <time>2022-09-29T10:20:44Z</time>
      </trkpt>
      <trkpt lat="46.80218" lon="6.72336">
        <ele>432.7</ele>
        <time>2022-09-29T10:20:45Z</time>
      </trkpt>
      <trkpt lat="46.80219" lon="6.72341">
        <ele>432.7</ele>
        <time>2022-09-29T10:20:46Z</time>
      </trkpt>
      <trkpt lat="46.80221" lon="6.72346">
        <ele>432.7</ele>
        <time>2022-09-29T10:20:47Z</time>
      </trkpt>
      <trkpt lat="46.80222" lon="6.72352">
        <ele>432.8</ele>
        <time>2022-09-29T10:20:48Z</time>
      </trkpt>
      <trkpt lat="46.80224" lon="6.72359">
        <ele>432.8</ele>
        <time>2022-09-29T10:20:49Z</time>
      </trkpt>
      <trkpt lat="46.80226" lon="6.72365">
        <ele>432.8</ele>
        <time>2022-09-29T10:20:50Z</time>
      </trkpt>
      <trkpt lat="46.80226" lon="6.7237">
        <ele>432.9</ele>
        <time>2022-09-29T10:20:51Z</time>
      </trkpt>
      <trkpt lat="46.80227" lon="6.72376">
        <ele>432.9</ele>
        <time>2022-09-29T10:20:52Z</time>
      </trkpt>
      <trkpt lat="46.80228" lon="6.72382">
        <ele>432.9</ele>
        <time>2022-09-29T10:20:53Z</time>
      </trkpt>
      <trkpt lat="46.8023" lon="6.72388">
        <ele>433</ele>
        <time>2022-09-29T10:20:54Z</time>
      </trkpt>
      <trkpt lat="46.80231" lon="6.72395">
        <ele>433</ele>
        <time>2022-09-29T10:20:55Z</time>
      </trkpt>
      <trkpt lat="46.80232" lon="6.72402">
        <ele>433</ele>
        <time>2022-09-29T10:20:56Z</time>
      </trkpt>
      <trkpt lat="46.80233" lon="6.72409">
        <ele>433.1</ele>
        <time>2022-09-29T10:20:57Z</time>
      </trkpt>
      <trkpt lat="46.80235" lon="6.72417">
        <ele>433.1</ele>
        <time>2022-09-29T10:20:58Z</time>
      </trkpt>
      <trkpt lat="46.80236" lon="6.72424">
        <ele>433.2</ele>
        <time>2022-09-29T10:20:59Z</time>
      </trkpt>
      <trkpt lat="46.80237" lon="6.72431">
        <ele>433.2</ele>
        <time>2022-09-29T10:21:00Z</time>
      </trkpt>
      <trkpt lat="46.80238" lon="6.72438">
        <ele>433.2</ele>
        <time>2022-09-29T10:21:01Z</time>
      </trkpt>
      <trkpt lat="46.80239" lon="6.72444">
        <ele>433.2</ele>
        <time>2022-09-29T10:21:02Z</time>
      </trkpt>
      <trkpt lat="46.8024" lon="6.72451">
        <ele>433.3</ele>
        <time>2022-09-29T10:21:03Z</time>
      </trkpt>
      <trkpt lat="46.80241" lon="6.72457">
        <ele>433.3</ele>
        <time>2022-09-29T10:21:04Z</time>
      </trkpt>
      <trkpt lat="46.80242" lon="6.72463">
        <ele>433.3</ele>
        <time>2022-09-29T10:21:05Z</time>
      </trkpt>
      <trkpt lat="46.80243" lon="6.7247">
        <ele>433.3</ele>
        <time>2022-09-29T10:21:06Z</time>
      </trkpt>
      <trkpt lat="46.80243" lon="6.72476">
        <ele>433.4</ele>
        <time>2022-09-29T10:21:07Z</time>
      </trkpt>
      <trkpt lat="46.80244" lon="6.72482">
        <ele>433.4</ele>
        <time>2022-09-29T10:21:08Z</time>
      </trkpt>
      <trkpt lat="46.80245" lon="6.72488">
        <ele>433.4</ele>
        <time>2022-09-29T10:21:09Z</time>
      </trkpt>
      <trkpt lat="46.80248" lon="6.7249">
        <ele>433.4</ele>
        <time>2022-09-29T10:21:10Z</time>
      </trkpt>
      <trkpt lat="46.80251" lon="6.72493">
        <ele>433.5</ele>
        <time>2022-09-29T10:21:11Z</time>
      </trkpt>
      <trkpt lat="46.80252" lon="6.72494">
        <ele>433.5</ele>
        <time>2022-09-29T10:21:12Z</time>
      </trkpt>
      <trkpt lat="46.80254" lon="6.72497">
        <ele>433.4</ele>
        <time>2022-09-29T10:21:13Z</time>
      </trkpt>
      <trkpt lat="46.80257" lon="6.725">
        <ele>433.4</ele>
        <time>2022-09-29T10:21:14Z</time>
      </trkpt>
      <trkpt lat="46.8026" lon="6.72502">
        <ele>433.4</ele>
        <time>2022-09-29T10:21:15Z</time>
      </trkpt>
      <trkpt lat="46.80263" lon="6.72504">
        <ele>433.4</ele>
        <time>2022-09-29T10:21:16Z</time>
      </trkpt>
      <trkpt lat="46.80266" lon="6.72506">
        <ele>433.4</ele>
        <time>2022-09-29T10:21:17Z</time>
      </trkpt>
      <trkpt lat="46.80268" lon="6.72507">
        <ele>433.4</ele>
        <time>2022-09-29T10:21:18Z</time>
      </trkpt>
      <trkpt lat="46.80272" lon="6.7251">
        <ele>433.4</ele>
        <time>2022-09-29T10:21:19Z</time>
      </trkpt>
      <trkpt lat="46.80273" lon="6.72511">
        <ele>433.4</ele>
        <time>2022-09-29T10:21:20Z</time>
      </trkpt>
      <trkpt lat="46.80276" lon="6.72513">
        <ele>433.4</ele>
        <time>2022-09-29T10:21:21Z</time>
      </trkpt>
      <trkpt lat="46.80281" lon="6.72512">
        <ele>433.4</ele>
        <time>2022-09-29T10:21:22Z</time>
      </trkpt>
      <trkpt lat="46.80284" lon="6.72512">
        <ele>433.4</ele>
        <time>2022-09-29T10:21:23Z</time>
      </trkpt>
      <trkpt lat="46.80288" lon="6.72511">
        <ele>433.4</ele>
        <time>2022-09-29T10:21:24Z</time>
      </trkpt>
      <trkpt lat="46.80291" lon="6.7251">
        <ele>433.4</ele>
        <time>2022-09-29T10:21:25Z</time>
      </trkpt>
      <trkpt lat="46.80294" lon="6.7251">
        <ele>433.4</ele>
        <time>2022-09-29T10:21:26Z</time>
      </trkpt>
      <trkpt lat="46.80297" lon="6.72509">
        <ele>433.4</ele>
        <time>2022-09-29T10:21:27Z</time>
      </trkpt>
      <trkpt lat="46.80301" lon="6.72508">
        <ele>433.3</ele>
        <time>2022-09-29T10:21:28Z</time>
      </trkpt>
      <trkpt lat="46.80304" lon="6.7251">
        <ele>433.3</ele>
        <time>2022-09-29T10:21:29Z</time>
      </trkpt>
      <trkpt lat="46.80308" lon="6.72511">
        <ele>433.3</ele>
        <time>2022-09-29T10:21:30Z</time>
      </trkpt>
      <trkpt lat="46.80313" lon="6.72513">
        <ele>433.3</ele>
        <time>2022-09-29T10:21:31Z</time>
      </trkpt>
      <trkpt lat="46.80319" lon="6.72514">
        <ele>433.3</ele>
        <time>2022-09-29T10:21:32Z</time>
      </trkpt>
      <trkpt lat="46.80322" lon="6.72516">
        <ele>433.2</ele>
        <time>2022-09-29T10:21:33Z</time>
      </trkpt>
      <trkpt lat="46.80326" lon="6.7252">
        <ele>433.2</ele>
        <time>2022-09-29T10:21:34Z</time>
      </trkpt>
      <trkpt lat="46.8033" lon="6.72524">
        <ele>433.2</ele>
        <time>2022-09-29T10:21:35Z</time>
      </trkpt>
      <trkpt lat="46.80333" lon="6.72527">
        <ele>433.2</ele>
        <time>2022-09-29T10:21:36Z</time>
      </trkpt>
      <trkpt lat="46.80337" lon="6.7253">
        <ele>433.1</ele>
        <time>2022-09-29T10:21:37Z</time>
      </trkpt>
      <trkpt lat="46.8034" lon="6.72535">
        <ele>433.1</ele>
        <time>2022-09-29T10:21:38Z</time>
      </trkpt>
      <trkpt lat="46.80344" lon="6.72539">
        <ele>433.1</ele>
        <time>2022-09-29T10:21:39Z</time>
      </trkpt>
      <trkpt lat="46.80347" lon="6.72543">
        <ele>433.1</ele>
        <time>2022-09-29T10:21:40Z</time>
      </trkpt>
      <trkpt lat="46.80351" lon="6.72547">
        <ele>433</ele>
        <time>2022-09-29T10:21:41Z</time>
      </trkpt>
      <trkpt lat="46.80355" lon="6.72552">
        <ele>433</ele>
        <time>2022-09-29T10:21:42Z</time>
      </trkpt>
      <trkpt lat="46.80358" lon="6.72556">
        <ele>433</ele>
        <time>2022-09-29T10:21:43Z</time>
      </trkpt>
      <trkpt lat="46.80361" lon="6.7256">
        <ele>433</ele>
        <time>2022-09-29T10:21:44Z</time>
      </trkpt>
      <trkpt lat="46.80363" lon="6.72563">
        <ele>433</ele>
        <time>2022-09-29T10:21:45Z</time>
      </trkpt>
      <trkpt lat="46.80366" lon="6.72567">
        <ele>433</ele>
        <time>2022-09-29T10:21:46Z</time>
      </trkpt>
      <trkpt lat="46.80371" lon="6.72571">
        <ele>433</ele>
        <time>2022-09-29T10:21:47Z</time>
      </trkpt>
      <trkpt lat="46.80376" lon="6.72576">
        <ele>433</ele>
        <time>2022-09-29T10:21:48Z</time>
      </trkpt>
      <trkpt lat="46.8038" lon="6.72579">
        <ele>433</ele>
        <time>2022-09-29T10:21:49Z</time>
      </trkpt>
      <trkpt lat="46.80385" lon="6.72583">
        <ele>433</ele>
        <time>2022-09-29T10:21:50Z</time>
      </trkpt>
      <trkpt lat="46.80391" lon="6.72585">
        <ele>433</ele>
        <time>2022-09-29T10:21:51Z</time>
      </trkpt>
      <trkpt lat="46.80397" lon="6.72586">
        <ele>433</ele>
        <time>2022-09-29T10:21:52Z</time>
      </trkpt>
      <trkpt lat="46.80401" lon="6.72587">
        <ele>433</ele>
        <time>2022-09-29T10:21:53Z</time>
      </trkpt>
      <trkpt lat="46.80405" lon="6.72589">
        <ele>433</ele>
        <time>2022-09-29T10:21:54Z</time>
      </trkpt>
      <trkpt lat="46.80409" lon="6.7259">
        <ele>433</ele>
        <time>2022-09-29T10:21:55Z</time>
      </trkpt>
      <trkpt lat="46.80414" lon="6.72591">
        <ele>433</ele>
        <time>2022-09-29T10:21:56Z</time>
      </trkpt>
      <trkpt lat="46.80419" lon="6.72593">
        <ele>433</ele>
        <time>2022-09-29T10:21:57Z</time>
      </trkpt>
      <trkpt lat="46.80425" lon="6.72593">
        <ele>433</ele>
        <time>2022-09-29T10:21:58Z</time>
      </trkpt>
      <trkpt lat="46.8043" lon="6.72594">
        <ele>433</ele>
        <time>2022-09-29T10:21:59Z</time>
      </trkpt>
      <trkpt lat="46.80434" lon="6.72596">
        <ele>433</ele>
        <time>2022-09-29T10:22:00Z</time>
      </trkpt>
      <trkpt lat="46.80438" lon="6.72598">
        <ele>433</ele>
        <time>2022-09-29T10:22:01Z</time>
      </trkpt>
      <trkpt lat="46.80441" lon="6.72599">
        <ele>432.9</ele>
        <time>2022-09-29T10:22:02Z</time>
      </trkpt>
      <trkpt lat="46.80444" lon="6.726">
        <ele>432.9</ele>
        <time>2022-09-29T10:22:03Z</time>
      </trkpt>
      <trkpt lat="46.80447" lon="6.72605">
        <ele>432.8</ele>
        <time>2022-09-29T10:22:04Z</time>
      </trkpt>
      <trkpt lat="46.80451" lon="6.72607">
        <ele>432.7</ele>
        <time>2022-09-29T10:22:05Z</time>
      </trkpt>
      <trkpt lat="46.80454" lon="6.72609">
        <ele>432.7</ele>
        <time>2022-09-29T10:22:06Z</time>
      </trkpt>
      <trkpt lat="46.80459" lon="6.72612">
        <ele>432.6</ele>
        <time>2022-09-29T10:22:07Z</time>
      </trkpt>
      <trkpt lat="46.80464" lon="6.72614">
        <ele>432.5</ele>
        <time>2022-09-29T10:22:08Z</time>
      </trkpt>
      <trkpt lat="46.80466" lon="6.72615">
        <ele>432.4</ele>
        <time>2022-09-29T10:22:09Z</time>
      </trkpt>
      <trkpt lat="46.80471" lon="6.72617">
        <ele>432.4</ele>
        <time>2022-09-29T10:22:10Z</time>
      </trkpt>
      <trkpt lat="46.80474" lon="6.72619">
        <ele>432.3</ele>
        <time>2022-09-29T10:22:11Z</time>
      </trkpt>
      <trkpt lat="46.80477" lon="6.72621">
        <ele>432.3</ele>
        <time>2022-09-29T10:22:12Z</time>
      </trkpt>
      <trkpt lat="46.80481" lon="6.72624">
        <ele>432.3</ele>
        <time>2022-09-29T10:22:13Z</time>
      </trkpt>
      <trkpt lat="46.80484" lon="6.72627">
        <ele>432.2</ele>
        <time>2022-09-29T10:22:14Z</time>
      </trkpt>
      <trkpt lat="46.80486" lon="6.7263">
        <ele>432.2</ele>
        <time>2022-09-29T10:22:15Z</time>
      </trkpt>
      <trkpt lat="46.80488" lon="6.72635">
        <ele>432.2</ele>
        <time>2022-09-29T10:22:16Z</time>
      </trkpt>
      <trkpt lat="46.80493" lon="6.72642">
        <ele>432.2</ele>
        <time>2022-09-29T10:22:17Z</time>
      </trkpt>
      <trkpt lat="46.80496" lon="6.72647">
        <ele>432.2</ele>
        <time>2022-09-29T10:22:18Z</time>
      </trkpt>
      <trkpt lat="46.80498" lon="6.72652">
        <ele>432.2</ele>
        <time>2022-09-29T10:22:19Z</time>
      </trkpt>
      <trkpt lat="46.805" lon="6.72656">
        <ele>432.2</ele>
        <time>2022-09-29T10:22:20Z</time>
      </trkpt>
      <trkpt lat="46.80502" lon="6.72661">
        <ele>432.2</ele>
        <time>2022-09-29T10:22:21Z</time>
      </trkpt>
      <trkpt lat="46.80505" lon="6.72665">
        <ele>432.2</ele>
        <time>2022-09-29T10:22:22Z</time>
      </trkpt>
      <trkpt lat="46.80508" lon="6.72669">
        <ele>432.2</ele>
        <time>2022-09-29T10:22:23Z</time>
      </trkpt>
      <trkpt lat="46.80511" lon="6.72673">
        <ele>432.2</ele>
        <time>2022-09-29T10:22:24Z</time>
      </trkpt>
      <trkpt lat="46.80514" lon="6.72679">
        <ele>432.2</ele>
        <time>2022-09-29T10:22:25Z</time>
      </trkpt>
      <trkpt lat="46.80517" lon="6.72684">
        <ele>432.2</ele>
        <time>2022-09-29T10:22:26Z</time>
      </trkpt>
      <trkpt lat="46.80522" lon="6.72689">
        <ele>432.2</ele>
        <time>2022-09-29T10:22:27Z</time>
      </trkpt>
      <trkpt lat="46.80527" lon="6.72693">
        <ele>432.2</ele>
        <time>2022-09-29T10:22:28Z</time>
      </trkpt>
      <trkpt lat="46.80533" lon="6.72698">
        <ele>432.2</ele>
        <time>2022-09-29T10:22:29Z</time>
      </trkpt>
      <trkpt lat="46.80537" lon="6.72703">
        <ele>432.1</ele>
        <time>2022-09-29T10:22:30Z</time>
      </trkpt>
      <trkpt lat="46.80539" lon="6.72708">
        <ele>432.1</ele>
        <time>2022-09-29T10:22:31Z</time>
      </trkpt>
      <trkpt lat="46.80543" lon="6.72712">
        <ele>432.1</ele>
        <time>2022-09-29T10:22:32Z</time>
      </trkpt>
      <trkpt lat="46.80548" lon="6.72716">
        <ele>432</ele>
        <time>2022-09-29T10:22:33Z</time>
      </trkpt>
      <trkpt lat="46.80552" lon="6.72719">
        <ele>432</ele>
        <time>2022-09-29T10:22:34Z</time>
      </trkpt>
      <trkpt lat="46.80555" lon="6.72723">
        <ele>432</ele>
        <time>2022-09-29T10:22:35Z</time>
      </trkpt>
      <trkpt lat="46.80559" lon="6.72727">
        <ele>432</ele>
        <time>2022-09-29T10:22:36Z</time>
      </trkpt>
      <trkpt lat="46.80562" lon="6.72733">
        <ele>432</ele>
        <time>2022-09-29T10:22:37Z</time>
      </trkpt>
      <trkpt lat="46.80566" lon="6.72737">
        <ele>432</ele>
        <time>2022-09-29T10:22:38Z</time>
      </trkpt>
      <trkpt lat="46.80569" lon="6.72742">
        <ele>432</ele>
        <time>2022-09-29T10:22:39Z</time>
      </trkpt>
      <trkpt lat="46.80573" lon="6.72747">
        <ele>432</ele>
        <time>2022-09-29T10:22:40Z</time>
      </trkpt>
      <trkpt lat="46.80578" lon="6.72751">
        <ele>432</ele>
        <time>2022-09-29T10:22:41Z</time>
      </trkpt>
      <trkpt lat="46.80582" lon="6.72754">
        <ele>432</ele>
        <time>2022-09-29T10:22:42Z</time>
      </trkpt>
      <trkpt lat="46.80585" lon="6.72757">
        <ele>432</ele>
        <time>2022-09-29T10:22:43Z</time>
      </trkpt>
      <trkpt lat="46.80587" lon="6.72759">
        <ele>432</ele>
        <time>2022-09-29T10:22:44Z</time>
      </trkpt>
      <trkpt lat="46.8059" lon="6.72763">
        <ele>432</ele>
        <time>2022-09-29T10:22:45Z</time>
      </trkpt>
      <trkpt lat="46.80591" lon="6.72765">
        <ele>432</ele>
        <time>2022-09-29T10:22:46Z</time>
      </trkpt>
      <trkpt lat="46.80594" lon="6.72769">
        <ele>432</ele>
        <time>2022-09-29T10:22:47Z</time>
      </trkpt>
      <trkpt lat="46.80595" lon="6.7277">
        <ele>432</ele>
        <time>2022-09-29T10:22:48Z</time>
      </trkpt>
      <trkpt lat="46.80597" lon="6.72774">
        <ele>432</ele>
        <time>2022-09-29T10:22:49Z</time>
      </trkpt>
      <trkpt lat="46.80598" lon="6.72775">
        <ele>432</ele>
        <time>2022-09-29T10:22:50Z</time>
      </trkpt>
      <trkpt lat="46.80599" lon="6.72779">
        <ele>432.1</ele>
        <time>2022-09-29T10:22:51Z</time>
      </trkpt>
      <trkpt lat="46.80601" lon="6.72783">
        <ele>432.1</ele>
        <time>2022-09-29T10:22:52Z</time>
      </trkpt>
      <trkpt lat="46.80601" lon="6.72785">
        <ele>432.1</ele>
        <time>2022-09-29T10:22:53Z</time>
      </trkpt>
      <trkpt lat="46.806" lon="6.7279">
        <ele>432.1</ele>
        <time>2022-09-29T10:22:54Z</time>
      </trkpt>
      <trkpt lat="46.806" lon="6.72792">
        <ele>432.1</ele>
        <time>2022-09-29T10:22:55Z</time>
      </trkpt>
      <trkpt lat="46.80601" lon="6.72797">
        <ele>432.2</ele>
        <time>2022-09-29T10:22:56Z</time>
      </trkpt>
      <trkpt lat="46.80601" lon="6.72801">
        <ele>432.2</ele>
        <time>2022-09-29T10:22:57Z</time>
      </trkpt>
      <trkpt lat="46.80602" lon="6.72807">
        <ele>432.3</ele>
        <time>2022-09-29T10:22:58Z</time>
      </trkpt>
      <trkpt lat="46.80602" lon="6.72809">
        <ele>432.3</ele>
        <time>2022-09-29T10:22:59Z</time>
      </trkpt>
      <trkpt lat="46.80602" lon="6.72814">
        <ele>432.3</ele>
        <time>2022-09-29T10:23:00Z</time>
      </trkpt>
      <trkpt lat="46.80602" lon="6.72816">
        <ele>432.3</ele>
        <time>2022-09-29T10:23:01Z</time>
      </trkpt>
      <trkpt lat="46.80602" lon="6.72821">
        <ele>432.4</ele>
        <time>2022-09-29T10:23:02Z</time>
      </trkpt>
      <trkpt lat="46.80602" lon="6.72823">
        <ele>432.4</ele>
        <time>2022-09-29T10:23:03Z</time>
      </trkpt>
      <trkpt lat="46.80603" lon="6.72827">
        <ele>432.4</ele>
        <time>2022-09-29T10:23:04Z</time>
      </trkpt>
      <trkpt lat="46.80604" lon="6.72831">
        <ele>432.5</ele>
        <time>2022-09-29T10:23:05Z</time>
      </trkpt>
      <trkpt lat="46.80606" lon="6.72835">
        <ele>432.5</ele>
        <time>2022-09-29T10:23:06Z</time>
      </trkpt>
      <trkpt lat="46.80606" lon="6.72836">
        <ele>432.5</ele>
        <time>2022-09-29T10:23:07Z</time>
      </trkpt>
      <trkpt lat="46.80608" lon="6.72841">
        <ele>432.5</ele>
        <time>2022-09-29T10:23:08Z</time>
      </trkpt>
      <trkpt lat="46.80608" lon="6.72843">
        <ele>432.5</ele>
        <time>2022-09-29T10:23:09Z</time>
      </trkpt>
      <trkpt lat="46.80609" lon="6.7285">
        <ele>432.6</ele>
        <time>2022-09-29T10:23:10Z</time>
      </trkpt>
      <trkpt lat="46.80611" lon="6.72855">
        <ele>432.6</ele>
        <time>2022-09-29T10:23:11Z</time>
      </trkpt>
      <trkpt lat="46.80612" lon="6.72859">
        <ele>432.7</ele>
        <time>2022-09-29T10:23:12Z</time>
      </trkpt>
      <trkpt lat="46.80613" lon="6.72865">
        <ele>432.7</ele>
        <time>2022-09-29T10:23:13Z</time>
      </trkpt>
      <trkpt lat="46.80615" lon="6.7287">
        <ele>432.7</ele>
        <time>2022-09-29T10:23:14Z</time>
      </trkpt>
      <trkpt lat="46.80615" lon="6.72875">
        <ele>432.8</ele>
        <time>2022-09-29T10:23:15Z</time>
      </trkpt>
      <trkpt lat="46.80617" lon="6.72879">
        <ele>432.8</ele>
        <time>2022-09-29T10:23:16Z</time>
      </trkpt>
      <trkpt lat="46.80618" lon="6.72884">
        <ele>432.8</ele>
        <time>2022-09-29T10:23:17Z</time>
      </trkpt>
      <trkpt lat="46.8062" lon="6.72888">
        <ele>432.8</ele>
        <time>2022-09-29T10:23:18Z</time>
      </trkpt>
      <trkpt lat="46.80621" lon="6.72895">
        <ele>432.9</ele>
        <time>2022-09-29T10:23:19Z</time>
      </trkpt>
      <trkpt lat="46.80622" lon="6.72901">
        <ele>432.9</ele>
        <time>2022-09-29T10:23:20Z</time>
      </trkpt>
      <trkpt lat="46.80623" lon="6.72904">
        <ele>432.9</ele>
        <time>2022-09-29T10:23:21Z</time>
      </trkpt>
      <trkpt lat="46.80625" lon="6.72908">
        <ele>432.9</ele>
        <time>2022-09-29T10:23:22Z</time>
      </trkpt>
      <trkpt lat="46.80627" lon="6.72912">
        <ele>433</ele>
        <time>2022-09-29T10:23:23Z</time>
      </trkpt>
      <trkpt lat="46.8063" lon="6.72917">
        <ele>433</ele>
        <time>2022-09-29T10:23:24Z</time>
      </trkpt>
      <trkpt lat="46.8063" lon="6.72919">
        <ele>433</ele>
        <time>2022-09-29T10:23:25Z</time>
      </trkpt>
      <trkpt lat="46.80631" lon="6.72925">
        <ele>433</ele>
        <time>2022-09-29T10:23:26Z</time>
      </trkpt>
      <trkpt lat="46.80632" lon="6.72931">
        <ele>433</ele>
        <time>2022-09-29T10:23:27Z</time>
      </trkpt>
      <trkpt lat="46.80633" lon="6.72936">
        <ele>433</ele>
        <time>2022-09-29T10:23:28Z</time>
      </trkpt>
      <trkpt lat="46.80633" lon="6.72941">
        <ele>433.1</ele>
        <time>2022-09-29T10:23:29Z</time>
      </trkpt>
      <trkpt lat="46.80634" lon="6.72946">
        <ele>433.1</ele>
        <time>2022-09-29T10:23:30Z</time>
      </trkpt>
      <trkpt lat="46.80634" lon="6.72952">
        <ele>433.1</ele>
        <time>2022-09-29T10:23:31Z</time>
      </trkpt>
      <trkpt lat="46.80634" lon="6.72954">
        <ele>433.1</ele>
        <time>2022-09-29T10:23:32Z</time>
      </trkpt>
      <trkpt lat="46.80635" lon="6.72958">
        <ele>433.1</ele>
        <time>2022-09-29T10:23:33Z</time>
      </trkpt>
      <trkpt lat="46.80636" lon="6.72961">
        <ele>433.1</ele>
        <time>2022-09-29T10:23:34Z</time>
      </trkpt>
      <trkpt lat="46.80639" lon="6.72964">
        <ele>433.1</ele>
        <time>2022-09-29T10:23:35Z</time>
      </trkpt>
      <trkpt lat="46.8064" lon="6.72965">
        <ele>433.1</ele>
        <time>2022-09-29T10:23:36Z</time>
      </trkpt>
      <trkpt lat="46.80641" lon="6.72966">
        <ele>433.1</ele>
        <time>2022-09-29T10:23:37Z</time>
      </trkpt>
      <trkpt lat="46.80641" lon="6.72965">
        <ele>433.1</ele>
        <time>2022-09-29T10:23:38Z</time>
      </trkpt>
      <trkpt lat="46.80642" lon="6.72963">
        <ele>433</ele>
        <time>2022-09-29T10:23:39Z</time>
      </trkpt>
      <trkpt lat="46.80642" lon="6.72963">
        <ele>433</ele>
        <time>2022-09-29T10:23:40Z</time>
      </trkpt>
      <trkpt lat="46.80641" lon="6.72962">
        <ele>433</ele>
        <time>2022-09-29T10:23:41Z</time>
      </trkpt>
      <trkpt lat="46.80641" lon="6.72962">
        <ele>433</ele>
        <time>2022-09-29T10:23:42Z</time>
      </trkpt>
      <trkpt lat="46.80641" lon="6.72961">
        <ele>433</ele>
        <time>2022-09-29T10:23:43Z</time>
      </trkpt>
      <trkpt lat="46.80641" lon="6.7296">
        <ele>433</ele>
        <time>2022-09-29T10:23:44Z</time>
      </trkpt>
      <trkpt lat="46.80641" lon="6.7296">
        <ele>433</ele>
        <time>2022-09-29T10:23:45Z</time>
      </trkpt>
      <trkpt lat="46.80641" lon="6.72959">
        <ele>433</ele>
        <time>2022-09-29T10:23:46Z</time>
      </trkpt>
      <trkpt lat="46.80641" lon="6.72959">
        <ele>433</ele>
        <time>2022-09-29T10:23:47Z</time>
      </trkpt>
      <trkpt lat="46.80641" lon="6.72958">
        <ele>433</ele>
        <time>2022-09-29T10:23:48Z</time>
      </trkpt>
      <trkpt lat="46.80641" lon="6.72956">
        <ele>433</ele>
        <time>2022-09-29T10:23:49Z</time>
      </trkpt>
      <trkpt lat="46.80641" lon="6.72956">
        <ele>433</ele>
        <time>2022-09-29T10:23:50Z</time>
      </trkpt>
      <trkpt lat="46.80641" lon="6.72955">
        <ele>433</ele>
        <time>2022-09-29T10:23:51Z</time>
      </trkpt>
      <trkpt lat="46.80641" lon="6.72955">
        <ele>433</ele>
        <time>2022-09-29T10:23:52Z</time>
      </trkpt>
      <trkpt lat="46.8064" lon="6.72953">
        <ele>433</ele>
        <time>2022-09-29T10:23:53Z</time>
      </trkpt>
      <trkpt lat="46.8064" lon="6.72952">
        <ele>433</ele>
        <time>2022-09-29T10:23:54Z</time>
      </trkpt>
      <trkpt lat="46.8064" lon="6.72951">
        <ele>433</ele>
        <time>2022-09-29T10:23:55Z</time>
      </trkpt>
      <trkpt lat="46.8064" lon="6.72951">
        <ele>433</ele>
        <time>2022-09-29T10:23:56Z</time>
      </trkpt>
      <trkpt lat="46.8064" lon="6.72951">
        <ele>433</ele>
        <time>2022-09-29T10:23:57Z</time>
      </trkpt>
      <trkpt lat="46.8064" lon="6.7295">
        <ele>433</ele>
        <time>2022-09-29T10:23:58Z</time>
      </trkpt>
      <trkpt lat="46.8064" lon="6.72949">
        <ele>433</ele>
        <time>2022-09-29T10:23:59Z</time>
      </trkpt>
      <trkpt lat="46.8064" lon="6.72938">
        <ele>433</ele>
        <time>2022-09-29T10:24:02Z</time>
      </trkpt>
      <trkpt lat="46.8064" lon="6.72934">
        <ele>433</ele>
        <time>2022-09-29T10:24:03Z</time>
      </trkpt>
      <trkpt lat="46.80639" lon="6.72929">
        <ele>432.9</ele>
        <time>2022-09-29T10:24:04Z</time>
      </trkpt>
      <trkpt lat="46.80639" lon="6.72927">
        <ele>432.9</ele>
        <time>2022-09-29T10:24:05Z</time>
      </trkpt>
      <trkpt lat="46.80639" lon="6.72922">
        <ele>432.9</ele>
        <time>2022-09-29T10:24:06Z</time>
      </trkpt>
      <trkpt lat="46.80638" lon="6.72918">
        <ele>432.9</ele>
        <time>2022-09-29T10:24:07Z</time>
      </trkpt>
      <trkpt lat="46.80638" lon="6.72914">
        <ele>432.9</ele>
        <time>2022-09-29T10:24:08Z</time>
      </trkpt>
      <trkpt lat="46.80636" lon="6.72909">
        <ele>432.9</ele>
        <time>2022-09-29T10:24:09Z</time>
      </trkpt>
      <trkpt lat="46.80636" lon="6.72907">
        <ele>432.9</ele>
        <time>2022-09-29T10:24:10Z</time>
      </trkpt>
      <trkpt lat="46.80634" lon="6.72903">
        <ele>432.8</ele>
        <time>2022-09-29T10:24:11Z</time>
      </trkpt>
      <trkpt lat="46.80633" lon="6.72899">
        <ele>432.8</ele>
        <time>2022-09-29T10:24:12Z</time>
      </trkpt>
      <trkpt lat="46.80631" lon="6.72894">
        <ele>432.8</ele>
        <time>2022-09-29T10:24:13Z</time>
      </trkpt>
      <trkpt lat="46.80632" lon="6.72888">
        <ele>432.8</ele>
        <time>2022-09-29T10:24:14Z</time>
      </trkpt>
      <trkpt lat="46.8063" lon="6.72885">
        <ele>432.8</ele>
        <time>2022-09-29T10:24:15Z</time>
      </trkpt>
      <trkpt lat="46.80628" lon="6.72881">
        <ele>432.7</ele>
        <time>2022-09-29T10:24:16Z</time>
      </trkpt>
      <trkpt lat="46.80627" lon="6.72877">
        <ele>432.7</ele>
        <time>2022-09-29T10:24:17Z</time>
      </trkpt>
      <trkpt lat="46.80626" lon="6.72872">
        <ele>432.7</ele>
        <time>2022-09-29T10:24:18Z</time>
      </trkpt>
      <trkpt lat="46.80625" lon="6.7287">
        <ele>432.7</ele>
        <time>2022-09-29T10:24:19Z</time>
      </trkpt>
      <trkpt lat="46.80623" lon="6.72865">
        <ele>432.6</ele>
        <time>2022-09-29T10:24:20Z</time>
      </trkpt>
      <trkpt lat="46.80623" lon="6.72864">
        <ele>432.6</ele>
        <time>2022-09-29T10:24:21Z</time>
      </trkpt>
      <trkpt lat="46.80622" lon="6.72858">
        <ele>432.6</ele>
        <time>2022-09-29T10:24:22Z</time>
      </trkpt>
      <trkpt lat="46.80621" lon="6.72856">
        <ele>432.6</ele>
        <time>2022-09-29T10:24:23Z</time>
      </trkpt>
      <trkpt lat="46.8062" lon="6.7285">
        <ele>432.5</ele>
        <time>2022-09-29T10:24:24Z</time>
      </trkpt>
      <trkpt lat="46.8062" lon="6.72847">
        <ele>432.5</ele>
        <time>2022-09-29T10:24:25Z</time>
      </trkpt>
      <trkpt lat="46.80619" lon="6.72843">
        <ele>432.5</ele>
        <time>2022-09-29T10:24:26Z</time>
      </trkpt>
      <trkpt lat="46.80619" lon="6.72838">
        <ele>432.5</ele>
        <time>2022-09-29T10:24:27Z</time>
      </trkpt>
      <trkpt lat="46.80618" lon="6.72834">
        <ele>432.4</ele>
        <time>2022-09-29T10:24:28Z</time>
      </trkpt>
      <trkpt lat="46.80617" lon="6.72829">
        <ele>432.4</ele>
        <time>2022-09-29T10:24:29Z</time>
      </trkpt>
      <trkpt lat="46.80617" lon="6.72823">
        <ele>432.4</ele>
        <time>2022-09-29T10:24:30Z</time>
      </trkpt>
      <trkpt lat="46.80617" lon="6.72818">
        <ele>432.3</ele>
        <time>2022-09-29T10:24:31Z</time>
      </trkpt>
      <trkpt lat="46.80616" lon="6.72813">
        <ele>432.3</ele>
        <time>2022-09-29T10:24:32Z</time>
      </trkpt>
      <trkpt lat="46.80615" lon="6.72809">
        <ele>432.3</ele>
        <time>2022-09-29T10:24:33Z</time>
      </trkpt>
      <trkpt lat="46.80614" lon="6.72804">
        <ele>432.2</ele>
        <time>2022-09-29T10:24:34Z</time>
      </trkpt>
      <trkpt lat="46.80612" lon="6.728">
        <ele>432.2</ele>
        <time>2022-09-29T10:24:35Z</time>
      </trkpt>
      <trkpt lat="46.80611" lon="6.72796">
        <ele>432.2</ele>
        <time>2022-09-29T10:24:36Z</time>
      </trkpt>
      <trkpt lat="46.8061" lon="6.72792">
        <ele>432.1</ele>
        <time>2022-09-29T10:24:37Z</time>
      </trkpt>
      <trkpt lat="46.8061" lon="6.7279">
        <ele>432.1</ele>
        <time>2022-09-29T10:24:38Z</time>
      </trkpt>
      <trkpt lat="46.8061" lon="6.72788">
        <ele>432.1</ele>
        <time>2022-09-29T10:24:39Z</time>
      </trkpt>
      <trkpt lat="46.80609" lon="6.72788">
        <ele>432.1</ele>
        <time>2022-09-29T10:24:40Z</time>
      </trkpt>
      <trkpt lat="46.80609" lon="6.72788">
        <ele>432.1</ele>
        <time>2022-09-29T10:24:41Z</time>
      </trkpt>
      <trkpt lat="46.80609" lon="6.72788">
        <ele>432.1</ele>
        <time>2022-09-29T10:24:42Z</time>
      </trkpt>
      <trkpt lat="46.80609" lon="6.72788">
        <ele>432.1</ele>
        <time>2022-09-29T10:24:43Z</time>
      </trkpt>
      <trkpt lat="46.80609" lon="6.72787">
        <ele>432.1</ele>
        <time>2022-09-29T10:24:44Z</time>
      </trkpt>
      <trkpt lat="46.80608" lon="6.72786">
        <ele>432.1</ele>
        <time>2022-09-29T10:24:45Z</time>
      </trkpt>
      <trkpt lat="46.80608" lon="6.72785">
        <ele>432.1</ele>
        <time>2022-09-29T10:24:46Z</time>
      </trkpt>
      <trkpt lat="46.80608" lon="6.72784">
        <ele>432.1</ele>
        <time>2022-09-29T10:24:47Z</time>
      </trkpt>
      <trkpt lat="46.80608" lon="6.72783">
        <ele>432.1</ele>
        <time>2022-09-29T10:24:48Z</time>
      </trkpt>
      <trkpt lat="46.80608" lon="6.72782">
        <ele>432.1</ele>
        <time>2022-09-29T10:24:49Z</time>
      </trkpt>
      <trkpt lat="46.80608" lon="6.72782">
        <ele>432.1</ele>
        <time>2022-09-29T10:24:50Z</time>
      </trkpt>
      <trkpt lat="46.80608" lon="6.72781">
        <ele>432.1</ele>
        <time>2022-09-29T10:24:51Z</time>
      </trkpt>
      <trkpt lat="46.80608" lon="6.72779">
        <ele>432.1</ele>
        <time>2022-09-29T10:24:52Z</time>
      </trkpt>
      <trkpt lat="46.80608" lon="6.7278">
        <ele>432.1</ele>
        <time>2022-09-29T10:24:53Z</time>
      </trkpt>
      <trkpt lat="46.80609" lon="6.7278">
        <ele>432.1</ele>
        <time>2022-09-29T10:24:54Z</time>
      </trkpt>
      <trkpt lat="46.80611" lon="6.72781">
        <ele>432.1</ele>
        <time>2022-09-29T10:24:55Z</time>
      </trkpt>
      <trkpt lat="46.80612" lon="6.7278">
        <ele>432.1</ele>
        <time>2022-09-29T10:24:56Z</time>
      </trkpt>
      <trkpt lat="46.80613" lon="6.7278">
        <ele>432.1</ele>
        <time>2022-09-29T10:24:57Z</time>
      </trkpt>
      <trkpt lat="46.80614" lon="6.7278">
        <ele>432.1</ele>
        <time>2022-09-29T10:24:58Z</time>
      </trkpt>
      <trkpt lat="46.80617" lon="6.7278">
        <ele>432.1</ele>
        <time>2022-09-29T10:24:59Z</time>
      </trkpt>
      <trkpt lat="46.80617" lon="6.7278">
        <ele>432</ele>
        <time>2022-09-29T10:25:00Z</time>
      </trkpt>
      <trkpt lat="46.80618" lon="6.7278">
        <ele>432</ele>
        <time>2022-09-29T10:25:01Z</time>
      </trkpt>
      <trkpt lat="46.80619" lon="6.7278">
        <ele>432</ele>
        <time>2022-09-29T10:25:02Z</time>
      </trkpt>
      <trkpt lat="46.80621" lon="6.7278">
        <ele>432</ele>
        <time>2022-09-29T10:25:03Z</time>
      </trkpt>
      <trkpt lat="46.80621" lon="6.7278">
        <ele>432</ele>
        <time>2022-09-29T10:25:04Z</time>
      </trkpt>
      <trkpt lat="46.80623" lon="6.7278">
        <ele>432</ele>
        <time>2022-09-29T10:25:05Z</time>
      </trkpt>
      <trkpt lat="46.80624" lon="6.72781">
        <ele>432</ele>
        <time>2022-09-29T10:25:06Z</time>
      </trkpt>
      <trkpt lat="46.80625" lon="6.7278">
        <ele>431.9</ele>
        <time>2022-09-29T10:25:07Z</time>
      </trkpt>
      <trkpt lat="46.80626" lon="6.7278">
        <ele>431.7</ele>
        <time>2022-09-29T10:25:08Z</time>
      </trkpt>
      <trkpt lat="46.80626" lon="6.72781">
        <ele>431.6</ele>
        <time>2022-09-29T10:25:09Z</time>
      </trkpt>
      <trkpt lat="46.80628" lon="6.72781">
        <ele>431.5</ele>
        <time>2022-09-29T10:25:10Z</time>
      </trkpt>
      <trkpt lat="46.80629" lon="6.72782">
        <ele>431.4</ele>
        <time>2022-09-29T10:25:11Z</time>
      </trkpt>
      <trkpt lat="46.80629" lon="6.72781">
        <ele>431.3</ele>
        <time>2022-09-29T10:25:12Z</time>
      </trkpt>
      <trkpt lat="46.80629" lon="6.7278">
        <ele>431.3</ele>
        <time>2022-09-29T10:25:13Z</time>
      </trkpt>
      <trkpt lat="46.8063" lon="6.72778">
        <ele>431</ele>
        <time>2022-09-29T10:25:14Z</time>
      </trkpt>
      <trkpt lat="46.8063" lon="6.72776">
        <ele>430.9</ele>
        <time>2022-09-29T10:25:15Z</time>
      </trkpt>
      <trkpt lat="46.8063" lon="6.72774">
        <ele>430.7</ele>
        <time>2022-09-29T10:25:16Z</time>
      </trkpt>
      <trkpt lat="46.8063" lon="6.72771">
        <ele>430.5</ele>
        <time>2022-09-29T10:25:17Z</time>
      </trkpt>
      <trkpt lat="46.8063" lon="6.7277">
        <ele>430.4</ele>
        <time>2022-09-29T10:25:18Z</time>
      </trkpt>
      <trkpt lat="46.8063" lon="6.72768">
        <ele>430.2</ele>
        <time>2022-09-29T10:25:19Z</time>
      </trkpt>
      <trkpt lat="46.80631" lon="6.72765">
        <ele>430</ele>
        <time>2022-09-29T10:25:20Z</time>
      </trkpt>
      <trkpt lat="46.80631" lon="6.72762">
        <ele>429.7</ele>
        <time>2022-09-29T10:25:21Z</time>
      </trkpt>
      <trkpt lat="46.80631" lon="6.72761">
        <ele>429.6</ele>
        <time>2022-09-29T10:25:22Z</time>
      </trkpt>
      <trkpt lat="46.80632" lon="6.7276">
        <ele>429.5</ele>
        <time>2022-09-29T10:25:23Z</time>
      </trkpt>
      <trkpt lat="46.80631" lon="6.72758">
        <ele>429.4</ele>
        <time>2022-09-29T10:25:24Z</time>
      </trkpt>
      <trkpt lat="46.80632" lon="6.72756">
        <ele>429.2</ele>
        <time>2022-09-29T10:25:25Z</time>
      </trkpt>
      <trkpt lat="46.80632" lon="6.72755">
        <ele>429.1</ele>
        <time>2022-09-29T10:25:26Z</time>
      </trkpt>
      <trkpt lat="46.80632" lon="6.72754">
        <ele>429</ele>
        <time>2022-09-29T10:25:27Z</time>
      </trkpt>
      <trkpt lat="46.80633" lon="6.72752">
        <ele>428.9</ele>
        <time>2022-09-29T10:25:28Z</time>
      </trkpt>
      <trkpt lat="46.80633" lon="6.7275">
        <ele>428.7</ele>
        <time>2022-09-29T10:25:29Z</time>
      </trkpt>
      <trkpt lat="46.80633" lon="6.72748">
        <ele>428.6</ele>
        <time>2022-09-29T10:25:30Z</time>
      </trkpt>
      <trkpt lat="46.80634" lon="6.72748">
        <ele>428.5</ele>
        <time>2022-09-29T10:25:31Z</time>
      </trkpt>
      <trkpt lat="46.80635" lon="6.72746">
        <ele>428.4</ele>
        <time>2022-09-29T10:25:32Z</time>
      </trkpt>
      <trkpt lat="46.80636" lon="6.72744">
        <ele>428.2</ele>
        <time>2022-09-29T10:25:33Z</time>
      </trkpt>
      <trkpt lat="46.80636" lon="6.72742">
        <ele>428</ele>
        <time>2022-09-29T10:25:34Z</time>
      </trkpt>
      <trkpt lat="46.80637" lon="6.7274">
        <ele>427.7</ele>
        <time>2022-09-29T10:25:35Z</time>
      </trkpt>
      <trkpt lat="46.80637" lon="6.72739">
        <ele>427.8</ele>
        <time>2022-09-29T10:25:36Z</time>
      </trkpt>
      <trkpt lat="46.80637" lon="6.72738">
        <ele>427.8</ele>
        <time>2022-09-29T10:25:37Z</time>
      </trkpt>
      <trkpt lat="46.80637" lon="6.72737">
        <ele>427.9</ele>
        <time>2022-09-29T10:25:38Z</time>
      </trkpt>
      <trkpt lat="46.80638" lon="6.72735">
        <ele>428</ele>
        <time>2022-09-29T10:25:39Z</time>
      </trkpt>
      <trkpt lat="46.80638" lon="6.72734">
        <ele>428.1</ele>
        <time>2022-09-29T10:25:40Z</time>
      </trkpt>
      <trkpt lat="46.80639" lon="6.72733">
        <ele>428.1</ele>
        <time>2022-09-29T10:25:41Z</time>
      </trkpt>
      <trkpt lat="46.80639" lon="6.72732">
        <ele>428.2</ele>
        <time>2022-09-29T10:25:42Z</time>
      </trkpt>
      <trkpt lat="46.80639" lon="6.72731">
        <ele>428.2</ele>
        <time>2022-09-29T10:25:43Z</time>
      </trkpt>
      <trkpt lat="46.80639" lon="6.72729">
        <ele>428.3</ele>
        <time>2022-09-29T10:25:44Z</time>
      </trkpt>
      <trkpt lat="46.80639" lon="6.72728">
        <ele>428.4</ele>
        <time>2022-09-29T10:25:45Z</time>
      </trkpt>
      <trkpt lat="46.80639" lon="6.72727">
        <ele>428.4</ele>
        <time>2022-09-29T10:25:46Z</time>
      </trkpt>
      <trkpt lat="46.8064" lon="6.72726">
        <ele>428.5</ele>
        <time>2022-09-29T10:25:47Z</time>
      </trkpt>
      <trkpt lat="46.8064" lon="6.72725">
        <ele>428.6</ele>
        <time>2022-09-29T10:25:48Z</time>
      </trkpt>
      <trkpt lat="46.8064" lon="6.72724">
        <ele>428.6</ele>
        <time>2022-09-29T10:25:49Z</time>
      </trkpt>
      <trkpt lat="46.8064" lon="6.72724">
        <ele>428.6</ele>
        <time>2022-09-29T10:25:50Z</time>
      </trkpt>
      <trkpt lat="46.8064" lon="6.72725">
        <ele>428.7</ele>
        <time>2022-09-29T10:25:51Z</time>
      </trkpt>
      <trkpt lat="46.8064" lon="6.72726">
        <ele>428.7</ele>
        <time>2022-09-29T10:25:52Z</time>
      </trkpt>
      <trkpt lat="46.8064" lon="6.72727">
        <ele>428.8</ele>
        <time>2022-09-29T10:25:53Z</time>
      </trkpt>
      <trkpt lat="46.80639" lon="6.72727">
        <ele>428.8</ele>
        <time>2022-09-29T10:25:54Z</time>
      </trkpt>
      <trkpt lat="46.80639" lon="6.72728">
        <ele>428.8</ele>
        <time>2022-09-29T10:25:55Z</time>
      </trkpt>
      <trkpt lat="46.80639" lon="6.72729">
        <ele>428.9</ele>
        <time>2022-09-29T10:25:56Z</time>
      </trkpt>
      <trkpt lat="46.80639" lon="6.7273">
        <ele>428.9</ele>
        <time>2022-09-29T10:25:57Z</time>
      </trkpt>
      <trkpt lat="46.80639" lon="6.72731">
        <ele>429</ele>
        <time>2022-09-29T10:25:58Z</time>
      </trkpt>
      <trkpt lat="46.80639" lon="6.72731">
        <ele>429</ele>
        <time>2022-09-29T10:26:21Z</time>
      </trkpt>
      <trkpt lat="46.80639" lon="6.72732">
        <ele>429.1</ele>
        <time>2022-09-29T10:26:22Z</time>
      </trkpt>
      <trkpt lat="46.80639" lon="6.72733">
        <ele>429.1</ele>
        <time>2022-09-29T10:26:23Z</time>
      </trkpt>
      <trkpt lat="46.80639" lon="6.72735">
        <ele>429.2</ele>
        <time>2022-09-29T10:26:24Z</time>
      </trkpt>
      <trkpt lat="46.80638" lon="6.72736">
        <ele>429.3</ele>
        <time>2022-09-29T10:26:25Z</time>
      </trkpt>
      <trkpt lat="46.80638" lon="6.72737">
        <ele>429.3</ele>
        <time>2022-09-29T10:26:26Z</time>
      </trkpt>
      <trkpt lat="46.80638" lon="6.72738">
        <ele>429.4</ele>
        <time>2022-09-29T10:26:27Z</time>
      </trkpt>
      <trkpt lat="46.80638" lon="6.72739">
        <ele>429.5</ele>
        <time>2022-09-29T10:26:28Z</time>
      </trkpt>
      <trkpt lat="46.80638" lon="6.72741">
        <ele>429.6</ele>
        <time>2022-09-29T10:26:29Z</time>
      </trkpt>
      <trkpt lat="46.80636" lon="6.72743">
        <ele>429.7</ele>
        <time>2022-09-29T10:26:30Z</time>
      </trkpt>
      <trkpt lat="46.80636" lon="6.72744">
        <ele>429.8</ele>
        <time>2022-09-29T10:26:31Z</time>
      </trkpt>
      <trkpt lat="46.80636" lon="6.72745">
        <ele>429.8</ele>
        <time>2022-09-29T10:26:32Z</time>
      </trkpt>
      <trkpt lat="46.80635" lon="6.72746">
        <ele>429.9</ele>
        <time>2022-09-29T10:26:33Z</time>
      </trkpt>
      <trkpt lat="46.80635" lon="6.72748">
        <ele>430</ele>
        <time>2022-09-29T10:26:34Z</time>
      </trkpt>
      <trkpt lat="46.80635" lon="6.7275">
        <ele>430.1</ele>
        <time>2022-09-29T10:26:35Z</time>
      </trkpt>
      <trkpt lat="46.80634" lon="6.7275">
        <ele>430.1</ele>
        <time>2022-09-29T10:26:36Z</time>
      </trkpt>
      <trkpt lat="46.80634" lon="6.72752">
        <ele>430.3</ele>
        <time>2022-09-29T10:26:37Z</time>
      </trkpt>
      <trkpt lat="46.80634" lon="6.72754">
        <ele>430.3</ele>
        <time>2022-09-29T10:26:38Z</time>
      </trkpt>
      <trkpt lat="46.80633" lon="6.72755">
        <ele>430.4</ele>
        <time>2022-09-29T10:26:39Z</time>
      </trkpt>
      <trkpt lat="46.80633" lon="6.72757">
        <ele>430.5</ele>
        <time>2022-09-29T10:26:40Z</time>
      </trkpt>
      <trkpt lat="46.80633" lon="6.72758">
        <ele>430.6</ele>
        <time>2022-09-29T10:26:41Z</time>
      </trkpt>
      <trkpt lat="46.80633" lon="6.7276">
        <ele>430.7</ele>
        <time>2022-09-29T10:26:42Z</time>
      </trkpt>
      <trkpt lat="46.80632" lon="6.72762">
        <ele>430.8</ele>
        <time>2022-09-29T10:26:43Z</time>
      </trkpt>
      <trkpt lat="46.80632" lon="6.72762">
        <ele>430.8</ele>
        <time>2022-09-29T10:26:44Z</time>
      </trkpt>
      <trkpt lat="46.80631" lon="6.72764">
        <ele>430.9</ele>
        <time>2022-09-29T10:26:45Z</time>
      </trkpt>
      <trkpt lat="46.80631" lon="6.72766">
        <ele>431</ele>
        <time>2022-09-29T10:26:46Z</time>
      </trkpt>
      <trkpt lat="46.80631" lon="6.72767">
        <ele>431.1</ele>
        <time>2022-09-29T10:26:47Z</time>
      </trkpt>
      <trkpt lat="46.80631" lon="6.72769">
        <ele>431.2</ele>
        <time>2022-09-29T10:26:48Z</time>
      </trkpt>
      <trkpt lat="46.80631" lon="6.7277">
        <ele>431.3</ele>
        <time>2022-09-29T10:26:49Z</time>
      </trkpt>
      <trkpt lat="46.80631" lon="6.72772">
        <ele>431.3</ele>
        <time>2022-09-29T10:26:50Z</time>
      </trkpt>
      <trkpt lat="46.80631" lon="6.72773">
        <ele>431.3</ele>
        <time>2022-09-29T10:26:51Z</time>
      </trkpt>
      <trkpt lat="46.80631" lon="6.72775">
        <ele>431.3</ele>
        <time>2022-09-29T10:26:52Z</time>
      </trkpt>
      <trkpt lat="46.80631" lon="6.72777">
        <ele>431.3</ele>
        <time>2022-09-29T10:26:53Z</time>
      </trkpt>
      <trkpt lat="46.80632" lon="6.72778">
        <ele>431.3</ele>
        <time>2022-09-29T10:26:54Z</time>
      </trkpt>
      <trkpt lat="46.80632" lon="6.72779">
        <ele>431.3</ele>
        <time>2022-09-29T10:26:55Z</time>
      </trkpt>
      <trkpt lat="46.80632" lon="6.72781">
        <ele>431.3</ele>
        <time>2022-09-29T10:26:56Z</time>
      </trkpt>
      <trkpt lat="46.80632" lon="6.72783">
        <ele>431.3</ele>
        <time>2022-09-29T10:26:57Z</time>
      </trkpt>
      <trkpt lat="46.80632" lon="6.72784">
        <ele>431.3</ele>
        <time>2022-09-29T10:26:58Z</time>
      </trkpt>
      <trkpt lat="46.80632" lon="6.72786">
        <ele>431.3</ele>
        <time>2022-09-29T10:26:59Z</time>
      </trkpt>
      <trkpt lat="46.80633" lon="6.72787">
        <ele>431.3</ele>
        <time>2022-09-29T10:27:00Z</time>
      </trkpt>
      <trkpt lat="46.80633" lon="6.72788">
        <ele>431.3</ele>
        <time>2022-09-29T10:27:01Z</time>
      </trkpt>
      <trkpt lat="46.80633" lon="6.7279">
        <ele>431.3</ele>
        <time>2022-09-29T10:27:02Z</time>
      </trkpt>
      <trkpt lat="46.80634" lon="6.72792">
        <ele>431.3</ele>
        <time>2022-09-29T10:27:03Z</time>
      </trkpt>
      <trkpt lat="46.80634" lon="6.72794">
        <ele>431</ele>
        <time>2022-09-29T10:27:04Z</time>
      </trkpt>
      <trkpt lat="46.80634" lon="6.72795">
        <ele>431</ele>
        <time>2022-09-29T10:27:05Z</time>
      </trkpt>
      <trkpt lat="46.80634" lon="6.72797">
        <ele>431</ele>
        <time>2022-09-29T10:27:06Z</time>
      </trkpt>
      <trkpt lat="46.80634" lon="6.72798">
        <ele>431</ele>
        <time>2022-09-29T10:27:07Z</time>
      </trkpt>
      <trkpt lat="46.80634" lon="6.728">
        <ele>431</ele>
        <time>2022-09-29T10:27:08Z</time>
      </trkpt>
      <trkpt lat="46.80634" lon="6.72801">
        <ele>431</ele>
        <time>2022-09-29T10:27:09Z</time>
      </trkpt>
      <trkpt lat="46.80632" lon="6.72803">
        <ele>431</ele>
        <time>2022-09-29T10:27:10Z</time>
      </trkpt>
      <trkpt lat="46.80632" lon="6.72804">
        <ele>431</ele>
        <time>2022-09-29T10:27:11Z</time>
      </trkpt>
      <trkpt lat="46.80631" lon="6.72807">
        <ele>431</ele>
        <time>2022-09-29T10:27:12Z</time>
      </trkpt>
      <trkpt lat="46.80631" lon="6.72809">
        <ele>431</ele>
        <time>2022-09-29T10:27:13Z</time>
      </trkpt>
      <trkpt lat="46.80631" lon="6.7281">
        <ele>430.9</ele>
        <time>2022-09-29T10:27:14Z</time>
      </trkpt>
      <trkpt lat="46.80632" lon="6.72811">
        <ele>430.9</ele>
        <time>2022-09-29T10:27:15Z</time>
      </trkpt>
      <trkpt lat="46.80632" lon="6.72812">
        <ele>430.9</ele>
        <time>2022-09-29T10:27:16Z</time>
      </trkpt>
      <trkpt lat="46.80632" lon="6.72814">
        <ele>430.9</ele>
        <time>2022-09-29T10:27:17Z</time>
      </trkpt>
      <trkpt lat="46.80633" lon="6.72814">
        <ele>430.9</ele>
        <time>2022-09-29T10:27:18Z</time>
      </trkpt>
      <trkpt lat="46.80633" lon="6.72815">
        <ele>430.9</ele>
        <time>2022-09-29T10:27:19Z</time>
      </trkpt>
      <trkpt lat="46.80633" lon="6.72816">
        <ele>430.9</ele>
        <time>2022-09-29T10:27:20Z</time>
      </trkpt>
      <trkpt lat="46.80633" lon="6.72818">
        <ele>430.9</ele>
        <time>2022-09-29T10:27:21Z</time>
      </trkpt>
      <trkpt lat="46.80633" lon="6.72819">
        <ele>430.9</ele>
        <time>2022-09-29T10:27:22Z</time>
      </trkpt>
      <trkpt lat="46.80632" lon="6.7282">
        <ele>430.9</ele>
        <time>2022-09-29T10:27:23Z</time>
      </trkpt>
      <trkpt lat="46.80633" lon="6.72821">
        <ele>430.9</ele>
        <time>2022-09-29T10:27:24Z</time>
      </trkpt>
      <trkpt lat="46.80634" lon="6.72823">
        <ele>430.9</ele>
        <time>2022-09-29T10:27:25Z</time>
      </trkpt>
      <trkpt lat="46.80634" lon="6.72825">
        <ele>430.9</ele>
        <time>2022-09-29T10:27:26Z</time>
      </trkpt>
      <trkpt lat="46.80634" lon="6.72826">
        <ele>430.9</ele>
        <time>2022-09-29T10:27:27Z</time>
      </trkpt>
      <trkpt lat="46.80635" lon="6.72828">
        <ele>430.8</ele>
        <time>2022-09-29T10:27:28Z</time>
      </trkpt>
      <trkpt lat="46.80635" lon="6.72829">
        <ele>430.8</ele>
        <time>2022-09-29T10:27:29Z</time>
      </trkpt>
      <trkpt lat="46.80636" lon="6.72829">
        <ele>430.8</ele>
        <time>2022-09-29T10:27:30Z</time>
      </trkpt>
      <trkpt lat="46.80637" lon="6.72831">
        <ele>430.8</ele>
        <time>2022-09-29T10:27:31Z</time>
      </trkpt>
      <trkpt lat="46.80637" lon="6.72832">
        <ele>430.8</ele>
        <time>2022-09-29T10:27:32Z</time>
      </trkpt>
      <trkpt lat="46.80637" lon="6.72832">
        <ele>430.8</ele>
        <time>2022-09-29T10:27:33Z</time>
      </trkpt>
      <trkpt lat="46.80638" lon="6.72835">
        <ele>430.8</ele>
        <time>2022-09-29T10:27:34Z</time>
      </trkpt>
      <trkpt lat="46.80638" lon="6.72836">
        <ele>430.8</ele>
        <time>2022-09-29T10:27:35Z</time>
      </trkpt>
      <trkpt lat="46.80639" lon="6.72837">
        <ele>430.8</ele>
        <time>2022-09-29T10:27:36Z</time>
      </trkpt>
      <trkpt lat="46.8064" lon="6.72837">
        <ele>430.8</ele>
        <time>2022-09-29T10:27:37Z</time>
      </trkpt>
      <trkpt lat="46.8064" lon="6.72838">
        <ele>430.8</ele>
        <time>2022-09-29T10:27:38Z</time>
      </trkpt>
      <trkpt lat="46.80641" lon="6.72838">
        <ele>430</ele>
        <time>2022-09-29T10:27:39Z</time>
      </trkpt>
      <trkpt lat="46.80641" lon="6.72837">
        <ele>430</ele>
        <time>2022-09-29T10:27:40Z</time>
      </trkpt>
      <trkpt lat="46.80641" lon="6.72836">
        <ele>430</ele>
        <time>2022-09-29T10:27:41Z</time>
      </trkpt>
      <trkpt lat="46.80642" lon="6.72836">
        <ele>430</ele>
        <time>2022-09-29T10:27:42Z</time>
      </trkpt>
      <trkpt lat="46.80642" lon="6.72835">
        <ele>430</ele>
        <time>2022-09-29T10:27:43Z</time>
      </trkpt>
      <trkpt lat="46.80642" lon="6.72834">
        <ele>430</ele>
        <time>2022-09-29T10:27:44Z</time>
      </trkpt>
      <trkpt lat="46.80641" lon="6.72834">
        <ele>430</ele>
        <time>2022-09-29T10:27:45Z</time>
      </trkpt>
      <trkpt lat="46.80641" lon="6.72834">
        <ele>430</ele>
        <time>2022-09-29T10:27:46Z</time>
      </trkpt>
      <trkpt lat="46.80641" lon="6.72833">
        <ele>430.1</ele>
        <time>2022-09-29T10:27:47Z</time>
      </trkpt>
      <trkpt lat="46.80641" lon="6.72833">
        <ele>430.1</ele>
        <time>2022-09-29T10:27:48Z</time>
      </trkpt>
      <trkpt lat="46.80642" lon="6.72833">
        <ele>430.1</ele>
        <time>2022-09-29T10:27:49Z</time>
      </trkpt>
      <trkpt lat="46.80642" lon="6.72833">
        <ele>430.2</ele>
        <time>2022-09-29T10:27:50Z</time>
      </trkpt>
      <trkpt lat="46.80642" lon="6.72832">
        <ele>430.2</ele>
        <time>2022-09-29T10:27:51Z</time>
      </trkpt>
      <trkpt lat="46.80642" lon="6.72832">
        <ele>430.2</ele>
        <time>2022-09-29T10:27:52Z</time>
      </trkpt>
      <trkpt lat="46.80642" lon="6.72832">
        <ele>430.2</ele>
        <time>2022-09-29T10:27:58Z</time>
      </trkpt>
      <trkpt lat="46.80642" lon="6.72832">
        <ele>430.3</ele>
        <time>2022-09-29T10:27:59Z</time>
      </trkpt>
      <trkpt lat="46.80642" lon="6.72831">
        <ele>430.3</ele>
        <time>2022-09-29T10:28:00Z</time>
      </trkpt>
      <trkpt lat="46.80642" lon="6.72831">
        <ele>430.3</ele>
        <time>2022-09-29T10:28:01Z</time>
      </trkpt>
      <trkpt lat="46.80642" lon="6.72831">
        <ele>430.3</ele>
        <time>2022-09-29T10:28:02Z</time>
      </trkpt>
      <trkpt lat="46.80642" lon="6.72831">
        <ele>430.4</ele>
        <time>2022-09-29T10:28:03Z</time>
      </trkpt>
      <trkpt lat="46.80642" lon="6.7283">
        <ele>430.4</ele>
        <time>2022-09-29T10:28:04Z</time>
      </trkpt>
      <trkpt lat="46.80642" lon="6.7283">
        <ele>430.4</ele>
        <time>2022-09-29T10:28:05Z</time>
      </trkpt>
      <trkpt lat="46.80642" lon="6.7283">
        <ele>430.4</ele>
        <time>2022-09-29T10:28:06Z</time>
      </trkpt>
      <trkpt lat="46.80643" lon="6.72829">
        <ele>430.5</ele>
        <time>2022-09-29T10:28:07Z</time>
      </trkpt>
      <trkpt lat="46.80643" lon="6.72829">
        <ele>430.5</ele>
        <time>2022-09-29T10:28:08Z</time>
      </trkpt>
      <trkpt lat="46.80643" lon="6.72829">
        <ele>430.5</ele>
        <time>2022-09-29T10:28:09Z</time>
      </trkpt>
      <trkpt lat="46.80643" lon="6.72829">
        <ele>430.5</ele>
        <time>2022-09-29T10:28:10Z</time>
      </trkpt>
      <trkpt lat="46.80643" lon="6.72828">
        <ele>430.6</ele>
        <time>2022-09-29T10:28:11Z</time>
      </trkpt>
      <trkpt lat="46.80643" lon="6.72828">
        <ele>430.6</ele>
        <time>2022-09-29T10:28:12Z</time>
      </trkpt>
      <trkpt lat="46.80643" lon="6.72828">
        <ele>430.6</ele>
        <time>2022-09-29T10:28:13Z</time>
      </trkpt>
      <trkpt lat="46.80643" lon="6.72828">
        <ele>430.6</ele>
        <time>2022-09-29T10:28:14Z</time>
      </trkpt>
      <trkpt lat="46.80643" lon="6.72827">
        <ele>430.7</ele>
        <time>2022-09-29T10:28:15Z</time>
      </trkpt>
      <trkpt lat="46.80643" lon="6.72827">
        <ele>430.7</ele>
        <time>2022-09-29T10:28:16Z</time>
      </trkpt>
      <trkpt lat="46.80643" lon="6.72827">
        <ele>430.7</ele>
        <time>2022-09-29T10:28:17Z</time>
      </trkpt>
      <trkpt lat="46.80643" lon="6.72827">
        <ele>430.7</ele>
        <time>2022-09-29T10:28:47Z</time>
      </trkpt>
      <trkpt lat="46.80643" lon="6.72826">
        <ele>430.8</ele>
        <time>2022-09-29T10:28:48Z</time>
      </trkpt>
      <trkpt lat="46.80643" lon="6.72826">
        <ele>430.8</ele>
        <time>2022-09-29T10:28:49Z</time>
      </trkpt>
      <trkpt lat="46.80644" lon="6.72826">
        <ele>430.8</ele>
        <time>2022-09-29T10:28:50Z</time>
      </trkpt>
      <trkpt lat="46.80644" lon="6.72826">
        <ele>430.8</ele>
        <time>2022-09-29T10:28:51Z</time>
      </trkpt>
      <trkpt lat="46.80644" lon="6.72825">
        <ele>430.9</ele>
        <time>2022-09-29T10:28:52Z</time>
      </trkpt>
      <trkpt lat="46.80644" lon="6.72825">
        <ele>430.9</ele>
        <time>2022-09-29T10:28:53Z</time>
      </trkpt>
      <trkpt lat="46.80644" lon="6.72825">
        <ele>430.9</ele>
        <time>2022-09-29T10:28:54Z</time>
      </trkpt>
      <trkpt lat="46.80644" lon="6.72824">
        <ele>430.9</ele>
        <time>2022-09-29T10:28:55Z</time>
      </trkpt>
      <trkpt lat="46.80644" lon="6.72824">
        <ele>431</ele>
        <time>2022-09-29T10:28:56Z</time>
      </trkpt>
      <trkpt lat="46.80644" lon="6.72824">
        <ele>431</ele>
        <time>2022-09-29T10:35:24Z</time>
      </trkpt>
      <trkpt lat="46.80644" lon="6.72824">
        <ele>431</ele>
        <time>2022-09-29T10:35:25Z</time>
      </trkpt>
      <trkpt lat="46.80644" lon="6.72823">
        <ele>431</ele>
        <time>2022-09-29T10:35:26Z</time>
      </trkpt>
      <trkpt lat="46.80644" lon="6.72823">
        <ele>431.1</ele>
        <time>2022-09-29T10:35:27Z</time>
      </trkpt>
      <trkpt lat="46.80644" lon="6.72823">
        <ele>431.1</ele>
        <time>2022-09-29T10:35:28Z</time>
      </trkpt>
      <trkpt lat="46.80645" lon="6.72824">
        <ele>431.1</ele>
        <time>2022-09-29T10:35:29Z</time>
      </trkpt>
      <trkpt lat="46.80644" lon="6.72823">
        <ele>431.1</ele>
        <time>2022-09-29T10:35:30Z</time>
      </trkpt>
      <trkpt lat="46.80644" lon="6.72823">
        <ele>431.2</ele>
        <time>2022-09-29T10:35:31Z</time>
      </trkpt>
      <trkpt lat="46.80644" lon="6.72822">
        <ele>431.2</ele>
        <time>2022-09-29T10:35:32Z</time>
      </trkpt>
      <trkpt lat="46.80644" lon="6.72821">
        <ele>431.2</ele>
        <time>2022-09-29T10:35:33Z</time>
      </trkpt>
      <trkpt lat="46.80644" lon="6.72821">
        <ele>431.2</ele>
        <time>2022-09-29T10:35:34Z</time>
      </trkpt>
      <trkpt lat="46.80643" lon="6.7282">
        <ele>431.3</ele>
        <time>2022-09-29T10:35:35Z</time>
      </trkpt>
      <trkpt lat="46.80643" lon="6.7282">
        <ele>431.3</ele>
        <time>2022-09-29T10:35:36Z</time>
      </trkpt>
      <trkpt lat="46.80643" lon="6.72819">
        <ele>431.3</ele>
        <time>2022-09-29T10:35:37Z</time>
      </trkpt>
      <trkpt lat="46.80643" lon="6.72818">
        <ele>431.3</ele>
        <time>2022-09-29T10:35:38Z</time>
      </trkpt>
      <trkpt lat="46.80643" lon="6.72818">
        <ele>431.4</ele>
        <time>2022-09-29T10:35:46Z</time>
      </trkpt>
      <trkpt lat="46.80643" lon="6.72817">
        <ele>431.4</ele>
        <time>2022-09-29T10:35:47Z</time>
      </trkpt>
      <trkpt lat="46.80642" lon="6.72816">
        <ele>431.5</ele>
        <time>2022-09-29T10:35:48Z</time>
      </trkpt>
      <trkpt lat="46.80642" lon="6.72816">
        <ele>431.5</ele>
        <time>2022-09-29T10:35:49Z</time>
      </trkpt>
      <trkpt lat="46.80642" lon="6.72815">
        <ele>431.5</ele>
        <time>2022-09-29T10:35:50Z</time>
      </trkpt>
      <trkpt lat="46.80642" lon="6.72815">
        <ele>431.5</ele>
        <time>2022-09-29T10:35:51Z</time>
      </trkpt>
      <trkpt lat="46.80643" lon="6.72815">
        <ele>431.6</ele>
        <time>2022-09-29T10:35:52Z</time>
      </trkpt>
      <trkpt lat="46.80643" lon="6.72815">
        <ele>431.6</ele>
        <time>2022-09-29T10:35:53Z</time>
      </trkpt>
      <trkpt lat="46.80643" lon="6.72816">
        <ele>431.6</ele>
        <time>2022-09-29T10:35:54Z</time>
      </trkpt>
      <trkpt lat="46.80643" lon="6.72816">
        <ele>431.6</ele>
        <time>2022-09-29T10:35:55Z</time>
      </trkpt>
      <trkpt lat="46.80643" lon="6.72816">
        <ele>431.7</ele>
        <time>2022-09-29T10:58:19Z</time>
      </trkpt>
      <trkpt lat="46.80643" lon="6.72816">
        <ele>431.7</ele>
        <time>2022-09-29T10:58:20Z</time>
      </trkpt>
      <trkpt lat="46.80643" lon="6.72816">
        <ele>431.7</ele>
        <time>2022-09-29T10:58:21Z</time>
      </trkpt>
      <trkpt lat="46.80643" lon="6.72816">
        <ele>431.7</ele>
        <time>2022-09-29T10:58:22Z</time>
      </trkpt>
      <trkpt lat="46.80643" lon="6.72817">
        <ele>431.8</ele>
        <time>2022-09-29T10:58:23Z</time>
      </trkpt>
      <trkpt lat="46.80643" lon="6.72817">
        <ele>431.8</ele>
        <time>2022-09-29T10:58:24Z</time>
      </trkpt>
      <trkpt lat="46.80643" lon="6.72817">
        <ele>431.8</ele>
        <time>2022-09-29T10:58:25Z</time>
      </trkpt>
      <trkpt lat="46.80643" lon="6.72817">
        <ele>431.8</ele>
        <time>2022-09-29T10:58:26Z</time>
      </trkpt>
      <trkpt lat="46.80643" lon="6.72817">
        <ele>431.9</ele>
        <time>2022-09-29T10:58:27Z</time>
      </trkpt>
      <trkpt lat="46.80644" lon="6.72818">
        <ele>431.9</ele>
        <time>2022-09-29T10:58:28Z</time>
      </trkpt>
      <trkpt lat="46.80644" lon="6.72818">
        <ele>431.9</ele>
        <time>2022-09-29T11:15:34Z</time>
      </trkpt>
      <trkpt lat="46.80644" lon="6.72818">
        <ele>432</ele>
        <time>2022-09-29T11:15:35Z</time>
      </trkpt>
      <trkpt lat="46.80644" lon="6.72818">
        <ele>432</ele>
        <time>2022-09-29T11:15:36Z</time>
      </trkpt>
      <trkpt lat="46.80644" lon="6.72818">
        <ele>432</ele>
        <time>2022-09-29T11:15:37Z</time>
      </trkpt>
      <trkpt lat="46.80644" lon="6.72819">
        <ele>432</ele>
        <time>2022-09-29T11:15:38Z</time>
      </trkpt>
      <trkpt lat="46.80644" lon="6.72819">
        <ele>432.1</ele>
        <time>2022-09-29T11:15:39Z</time>
      </trkpt>
      <trkpt lat="46.80644" lon="6.72819">
        <ele>432.1</ele>
        <time>2022-09-29T11:15:40Z</time>
      </trkpt>
      <trkpt lat="46.80644" lon="6.72819">
        <ele>432.1</ele>
        <time>2022-09-29T11:15:41Z</time>
      </trkpt>
      <trkpt lat="46.80644" lon="6.72819">
        <ele>432.1</ele>
        <time>2022-09-29T11:15:42Z</time>
      </trkpt>
      <trkpt lat="46.80644" lon="6.72819">
        <ele>432.2</ele>
        <time>2022-09-29T11:15:43Z</time>
      </trkpt>
      <trkpt lat="46.80644" lon="6.7282">
        <ele>432.2</ele>
        <time>2022-09-29T11:16:50Z</time>
      </trkpt>
      <trkpt lat="46.80644" lon="6.7282">
        <ele>432.2</ele>
        <time>2022-09-29T11:16:51Z</time>
      </trkpt>
      <trkpt lat="46.80645" lon="6.7282">
        <ele>432.2</ele>
        <time>2022-09-29T11:16:52Z</time>
      </trkpt>
      <trkpt lat="46.80645" lon="6.7282">
        <ele>432.3</ele>
        <time>2022-09-29T11:16:53Z</time>
      </trkpt>
      <trkpt lat="46.80645" lon="6.7282">
        <ele>432.3</ele>
        <time>2022-09-29T11:16:54Z</time>
      </trkpt>
      <trkpt lat="46.80645" lon="6.72821">
        <ele>432.3</ele>
        <time>2022-09-29T11:16:55Z</time>
      </trkpt>
      <trkpt lat="46.80645" lon="6.72821">
        <ele>432.3</ele>
        <time>2022-09-29T11:16:56Z</time>
      </trkpt>
      <trkpt lat="46.80645" lon="6.72821">
        <ele>432.4</ele>
        <time>2022-09-29T11:16:57Z</time>
      </trkpt>
      <trkpt lat="46.80645" lon="6.72821">
        <ele>432.4</ele>
        <time>2022-09-29T11:16:58Z</time>
      </trkpt>
      <trkpt lat="46.80645" lon="6.72821">
        <ele>432.4</ele>
        <time>2022-09-29T11:16:59Z</time>
      </trkpt>
      <trkpt lat="46.80645" lon="6.72821">
        <ele>432.4</ele>
        <time>2022-09-29T11:17:00Z</time>
      </trkpt>
      <trkpt lat="46.80645" lon="6.72822">
        <ele>432.5</ele>
        <time>2022-09-29T11:17:01Z</time>
      </trkpt>
      <trkpt lat="46.80645" lon="6.72822">
        <ele>432.5</ele>
        <time>2022-09-29T11:17:02Z</time>
      </trkpt>
      <trkpt lat="46.80645" lon="6.72822">
        <ele>432.5</ele>
        <time>2022-09-29T11:17:03Z</time>
      </trkpt>
      <trkpt lat="46.80645" lon="6.72822">
        <ele>432.5</ele>
        <time>2022-09-29T11:17:04Z</time>
      </trkpt>
      <trkpt lat="46.80645" lon="6.72822">
        <ele>432.6</ele>
        <time>2022-09-29T11:17:05Z</time>
      </trkpt>
      <trkpt lat="46.80646" lon="6.72823">
        <ele>432.6</ele>
        <time>2022-09-29T11:24:31Z</time>
      </trkpt>
      <trkpt lat="46.80646" lon="6.72823">
        <ele>432.6</ele>
        <time>2022-09-29T11:24:32Z</time>
      </trkpt>
      <trkpt lat="46.80646" lon="6.72823">
        <ele>432.6</ele>
        <time>2022-09-29T11:24:33Z</time>
      </trkpt>
      <trkpt lat="46.80646" lon="6.72823">
        <ele>432.6</ele>
        <time>2022-09-29T11:24:34Z</time>
      </trkpt>
      <trkpt lat="46.80646" lon="6.72823">
        <ele>432.6</ele>
        <time>2022-09-29T11:24:35Z</time>
      </trkpt>
      <trkpt lat="46.80646" lon="6.72824">
        <ele>432.6</ele>
        <time>2022-09-29T11:24:36Z</time>
      </trkpt>
      <trkpt lat="46.80646" lon="6.72824">
        <ele>432.6</ele>
        <time>2022-09-29T11:24:37Z</time>
      </trkpt>
      <trkpt lat="46.80646" lon="6.72824">
        <ele>432.6</ele>
        <time>2022-09-29T11:24:38Z</time>
      </trkpt>
      <trkpt lat="46.80646" lon="6.72822">
        <ele>432.6</ele>
        <time>2022-09-29T11:24:39Z</time>
      </trkpt>
      <trkpt lat="46.80646" lon="6.72824">
        <ele>432.6</ele>
        <time>2022-09-29T11:24:40Z</time>
      </trkpt>
      <trkpt lat="46.80646" lon="6.72825">
        <ele>432.6</ele>
        <time>2022-09-29T11:24:41Z</time>
      </trkpt>
      <trkpt lat="46.80645" lon="6.72826">
        <ele>432.6</ele>
        <time>2022-09-29T11:24:42Z</time>
      </trkpt>
      <trkpt lat="46.80645" lon="6.72827">
        <ele>432.7</ele>
        <time>2022-09-29T11:24:43Z</time>
      </trkpt>
      <trkpt lat="46.80645" lon="6.72826">
        <ele>432.7</ele>
        <time>2022-09-29T11:24:44Z</time>
      </trkpt>
      <trkpt lat="46.80645" lon="6.72825">
        <ele>432.7</ele>
        <time>2022-09-29T11:24:45Z</time>
      </trkpt>
      <trkpt lat="46.80644" lon="6.72827">
        <ele>432.7</ele>
        <time>2022-09-29T11:24:46Z</time>
      </trkpt>
      <trkpt lat="46.80644" lon="6.72826">
        <ele>432.7</ele>
        <time>2022-09-29T11:24:47Z</time>
      </trkpt>
      <trkpt lat="46.80644" lon="6.72826">
        <ele>432.7</ele>
        <time>2022-09-29T11:24:48Z</time>
      </trkpt>
      <trkpt lat="46.80644" lon="6.72827">
        <ele>432.7</ele>
        <time>2022-09-29T11:24:49Z</time>
      </trkpt>
      <trkpt lat="46.80643" lon="6.72826">
        <ele>432.7</ele>
        <time>2022-09-29T11:24:50Z</time>
      </trkpt>
      <trkpt lat="46.80643" lon="6.72826">
        <ele>432.7</ele>
        <time>2022-09-29T11:24:51Z</time>
      </trkpt>
      <trkpt lat="46.80643" lon="6.72826">
        <ele>432.7</ele>
        <time>2022-09-29T11:24:52Z</time>
      </trkpt>
      <trkpt lat="46.80643" lon="6.72826">
        <ele>432.7</ele>
        <time>2022-09-29T11:24:53Z</time>
      </trkpt>
      <trkpt lat="46.80643" lon="6.72826">
        <ele>432.7</ele>
        <time>2022-09-29T11:24:54Z</time>
      </trkpt>
      <trkpt lat="46.80643" lon="6.72826">
        <ele>432.7</ele>
        <time>2022-09-29T11:24:55Z</time>
      </trkpt>
      <trkpt lat="46.80643" lon="6.72826">
        <ele>432.7</ele>
        <time>2022-09-29T11:24:56Z</time>
      </trkpt>
      <trkpt lat="46.80643" lon="6.72826">
        <ele>432.7</ele>
        <time>2022-09-29T11:25:25Z</time>
      </trkpt>
      <trkpt lat="46.80643" lon="6.72826">
        <ele>432.7</ele>
        <time>2022-09-29T11:25:26Z</time>
      </trkpt>
      <trkpt lat="46.80643" lon="6.72826">
        <ele>432.7</ele>
        <time>2022-09-29T11:25:27Z</time>
      </trkpt>
      <trkpt lat="46.80643" lon="6.72826">
        <ele>432.7</ele>
        <time>2022-09-29T11:25:28Z</time>
      </trkpt>
      <trkpt lat="46.80643" lon="6.72826">
        <ele>432.7</ele>
        <time>2022-09-29T11:25:29Z</time>
      </trkpt>
      <trkpt lat="46.80643" lon="6.72826">
        <ele>432.7</ele>
        <time>2022-09-29T11:25:30Z</time>
      </trkpt>
      <trkpt lat="46.80643" lon="6.72827">
        <ele>432.7</ele>
        <time>2022-09-29T11:25:31Z</time>
      </trkpt>
      <trkpt lat="46.80643" lon="6.72827">
        <ele>432.7</ele>
        <time>2022-09-29T11:25:32Z</time>
      </trkpt>
      <trkpt lat="46.80643" lon="6.72827">
        <ele>432.7</ele>
        <time>2022-09-29T11:25:33Z</time>
      </trkpt>
      <trkpt lat="46.80643" lon="6.72827">
        <ele>432.7</ele>
        <time>2022-09-29T11:25:34Z</time>
      </trkpt>
      <trkpt lat="46.80642" lon="6.72827">
        <ele>432.7</ele>
        <time>2022-09-29T11:26:00Z</time>
      </trkpt>
      <trkpt lat="46.80642" lon="6.72827">
        <ele>432.7</ele>
        <time>2022-09-29T11:26:01Z</time>
      </trkpt>
      <trkpt lat="46.80642" lon="6.72827">
        <ele>432.7</ele>
        <time>2022-09-29T11:26:02Z</time>
      </trkpt>
      <trkpt lat="46.80642" lon="6.72827">
        <ele>432.7</ele>
        <time>2022-09-29T11:26:03Z</time>
      </trkpt>
      <trkpt lat="46.80642" lon="6.72827">
        <ele>432.7</ele>
        <time>2022-09-29T11:26:04Z</time>
      </trkpt>
      <trkpt lat="46.80642" lon="6.72827">
        <ele>432.7</ele>
        <time>2022-09-29T11:26:05Z</time>
      </trkpt>
      <trkpt lat="46.80642" lon="6.72827">
        <ele>432.7</ele>
        <time>2022-09-29T11:26:06Z</time>
      </trkpt>
      <trkpt lat="46.80642" lon="6.72827">
        <ele>432.7</ele>
        <time>2022-09-29T11:26:07Z</time>
      </trkpt>
      <trkpt lat="46.80642" lon="6.72827">
        <ele>432.7</ele>
        <time>2022-09-29T11:26:08Z</time>
      </trkpt>
      <trkpt lat="46.80642" lon="6.72827">
        <ele>432.7</ele>
        <time>2022-09-29T11:26:09Z</time>
      </trkpt>
      <trkpt lat="46.80642" lon="6.72827">
        <ele>432.7</ele>
        <time>2022-09-29T11:46:50Z</time>
      </trkpt>
      <trkpt lat="46.80642" lon="6.72827">
        <ele>432.7</ele>
        <time>2022-09-29T11:46:51Z</time>
      </trkpt>
      <trkpt lat="46.80642" lon="6.72827">
        <ele>432.7</ele>
        <time>2022-09-29T11:46:52Z</time>
      </trkpt>
      <trkpt lat="46.80642" lon="6.72827">
        <ele>432.7</ele>
        <time>2022-09-29T11:46:53Z</time>
      </trkpt>
      <trkpt lat="46.80642" lon="6.72827">
        <ele>432.7</ele>
        <time>2022-09-29T11:46:54Z</time>
      </trkpt>
      <trkpt lat="46.80642" lon="6.72828">
        <ele>432.7</ele>
        <time>2022-09-29T11:46:55Z</time>
      </trkpt>
      <trkpt lat="46.80642" lon="6.72828">
        <ele>432.7</ele>
        <time>2022-09-29T11:46:56Z</time>
      </trkpt>
      <trkpt lat="46.80642" lon="6.72828">
        <ele>432.7</ele>
        <time>2022-09-29T11:46:57Z</time>
      </trkpt>
      <trkpt lat="46.80642" lon="6.72828">
        <ele>432.7</ele>
        <time>2022-09-29T11:46:58Z</time>
      </trkpt>
      <trkpt lat="46.80642" lon="6.72828">
        <ele>432.7</ele>
        <time>2022-09-29T11:46:59Z</time>
      </trkpt>
      <trkpt lat="46.80641" lon="6.72828">
        <ele>432.7</ele>
        <time>2022-09-29T11:47:00Z</time>
      </trkpt>
      <trkpt lat="46.80641" lon="6.72828">
        <ele>432.7</ele>
        <time>2022-09-29T11:47:01Z</time>
      </trkpt>
      <trkpt lat="46.80641" lon="6.72828">
        <ele>432.7</ele>
        <time>2022-09-29T11:50:28Z</time>
      </trkpt>
      <trkpt lat="46.80641" lon="6.72828">
        <ele>432.7</ele>
        <time>2022-09-29T11:50:29Z</time>
      </trkpt>
      <trkpt lat="46.80641" lon="6.72828">
        <ele>432.7</ele>
        <time>2022-09-29T11:50:30Z</time>
      </trkpt>
      <trkpt lat="46.80641" lon="6.72828">
        <ele>432.7</ele>
        <time>2022-09-29T11:50:31Z</time>
      </trkpt>
      <trkpt lat="46.80641" lon="6.72828">
        <ele>432.7</ele>
        <time>2022-09-29T11:50:32Z</time>
      </trkpt>
      <trkpt lat="46.80641" lon="6.72828">
        <ele>432.7</ele>
        <time>2022-09-29T11:50:33Z</time>
      </trkpt>
      <trkpt lat="46.80641" lon="6.72828">
        <ele>432.7</ele>
        <time>2022-09-29T11:50:34Z</time>
      </trkpt>
      <trkpt lat="46.80641" lon="6.72828">
        <ele>432.7</ele>
        <time>2022-09-29T11:50:35Z</time>
      </trkpt>
      <trkpt lat="46.80641" lon="6.72828">
        <ele>432.7</ele>
        <time>2022-09-29T11:50:36Z</time>
      </trkpt>
      <trkpt lat="46.80641" lon="6.72828">
        <ele>432.7</ele>
        <time>2022-09-29T11:50:37Z</time>
      </trkpt>
      <trkpt lat="46.80641" lon="6.72828">
        <ele>432.7</ele>
        <time>2022-09-29T11:58:19Z</time>
      </trkpt>
      <trkpt lat="46.80641" lon="6.72828">
        <ele>432.7</ele>
        <time>2022-09-29T11:58:20Z</time>
      </trkpt>
      <trkpt lat="46.80641" lon="6.72829">
        <ele>432.7</ele>
        <time>2022-09-29T11:58:21Z</time>
      </trkpt>
      <trkpt lat="46.80641" lon="6.72829">
        <ele>432.7</ele>
        <time>2022-09-29T11:58:22Z</time>
      </trkpt>
      <trkpt lat="46.80641" lon="6.72829">
        <ele>432.7</ele>
        <time>2022-09-29T11:58:23Z</time>
      </trkpt>
      <trkpt lat="46.80641" lon="6.72829">
        <ele>432.7</ele>
        <time>2022-09-29T11:58:24Z</time>
      </trkpt>
      <trkpt lat="46.80641" lon="6.72829">
        <ele>432.7</ele>
        <time>2022-09-29T11:58:25Z</time>
      </trkpt>
      <trkpt lat="46.80641" lon="6.72829">
        <ele>432.7</ele>
        <time>2022-09-29T11:58:26Z</time>
      </trkpt>
      <trkpt lat="46.8064" lon="6.72829">
        <ele>432.7</ele>
        <time>2022-09-29T11:58:27Z</time>
      </trkpt>
      <trkpt lat="46.8064" lon="6.72829">
        <ele>432.7</ele>
        <time>2022-09-29T11:58:28Z</time>
      </trkpt>
      <trkpt lat="46.8064" lon="6.72829">
        <ele>432.7</ele>
        <time>2022-09-29T12:05:45Z</time>
      </trkpt>
      <trkpt lat="46.8064" lon="6.72829">
        <ele>432.7</ele>
        <time>2022-09-29T12:05:46Z</time>
      </trkpt>
      <trkpt lat="46.80638" lon="6.72833">
        <ele>432.7</ele>
        <time>2022-09-29T12:05:47Z</time>
      </trkpt>
      <trkpt lat="46.80636" lon="6.72836">
        <ele>432.8</ele>
        <time>2022-09-29T12:05:48Z</time>
      </trkpt>
      <trkpt lat="46.80635" lon="6.72838">
        <ele>432.8</ele>
        <time>2022-09-29T12:05:49Z</time>
      </trkpt>
      <trkpt lat="46.80633" lon="6.72839">
        <ele>432.8</ele>
        <time>2022-09-29T12:05:50Z</time>
      </trkpt>
      <trkpt lat="46.8063" lon="6.72842">
        <ele>432.8</ele>
        <time>2022-09-29T12:05:51Z</time>
      </trkpt>
      <trkpt lat="46.80628" lon="6.72847">
        <ele>432.8</ele>
        <time>2022-09-29T12:05:52Z</time>
      </trkpt>
      <trkpt lat="46.80628" lon="6.72849">
        <ele>432.8</ele>
        <time>2022-09-29T12:05:53Z</time>
      </trkpt>
      <trkpt lat="46.80627" lon="6.72854">
        <ele>432.8</ele>
        <time>2022-09-29T12:05:54Z</time>
      </trkpt>
      <trkpt lat="46.80629" lon="6.72859">
        <ele>432.9</ele>
        <time>2022-09-29T12:05:55Z</time>
      </trkpt>
      <trkpt lat="46.8063" lon="6.72863">
        <ele>432.9</ele>
        <time>2022-09-29T12:05:56Z</time>
      </trkpt>
      <trkpt lat="46.8063" lon="6.7287">
        <ele>432.9</ele>
        <time>2022-09-29T12:05:57Z</time>
      </trkpt>
      <trkpt lat="46.80631" lon="6.72876">
        <ele>432.9</ele>
        <time>2022-09-29T12:05:58Z</time>
      </trkpt>
      <trkpt lat="46.80631" lon="6.72882">
        <ele>432.9</ele>
        <time>2022-09-29T12:05:59Z</time>
      </trkpt>
      <trkpt lat="46.80632" lon="6.72888">
        <ele>432.9</ele>
        <time>2022-09-29T12:06:00Z</time>
      </trkpt>
      <trkpt lat="46.80634" lon="6.72895">
        <ele>433</ele>
        <time>2022-09-29T12:06:01Z</time>
      </trkpt>
      <trkpt lat="46.80634" lon="6.729">
        <ele>433</ele>
        <time>2022-09-29T12:06:02Z</time>
      </trkpt>
      <trkpt lat="46.80636" lon="6.72905">
        <ele>433</ele>
        <time>2022-09-29T12:06:03Z</time>
      </trkpt>
      <trkpt lat="46.80636" lon="6.7291">
        <ele>433</ele>
        <time>2022-09-29T12:06:04Z</time>
      </trkpt>
      <trkpt lat="46.80637" lon="6.72915">
        <ele>433</ele>
        <time>2022-09-29T12:06:05Z</time>
      </trkpt>
      <trkpt lat="46.80638" lon="6.72921">
        <ele>433</ele>
        <time>2022-09-29T12:06:06Z</time>
      </trkpt>
      <trkpt lat="46.80638" lon="6.72925">
        <ele>433</ele>
        <time>2022-09-29T12:06:07Z</time>
      </trkpt>
      <trkpt lat="46.80639" lon="6.7293">
        <ele>433.1</ele>
        <time>2022-09-29T12:06:08Z</time>
      </trkpt>
      <trkpt lat="46.8064" lon="6.72936">
        <ele>433.1</ele>
        <time>2022-09-29T12:06:09Z</time>
      </trkpt>
      <trkpt lat="46.8064" lon="6.7294">
        <ele>433.1</ele>
        <time>2022-09-29T12:06:10Z</time>
      </trkpt>
      <trkpt lat="46.80641" lon="6.72944">
        <ele>433.1</ele>
        <time>2022-09-29T12:06:11Z</time>
      </trkpt>
      <trkpt lat="46.80641" lon="6.72948">
        <ele>433.1</ele>
        <time>2022-09-29T12:06:12Z</time>
      </trkpt>
      <trkpt lat="46.80641" lon="6.72952">
        <ele>433.1</ele>
        <time>2022-09-29T12:06:13Z</time>
      </trkpt>
      <trkpt lat="46.80642" lon="6.72953">
        <ele>433.1</ele>
        <time>2022-09-29T12:06:14Z</time>
      </trkpt>
      <trkpt lat="46.80641" lon="6.72954">
        <ele>433.1</ele>
        <time>2022-09-29T12:06:15Z</time>
      </trkpt>
      <trkpt lat="46.80642" lon="6.72955">
        <ele>433.1</ele>
        <time>2022-09-29T12:06:16Z</time>
      </trkpt>
      <trkpt lat="46.80643" lon="6.72956">
        <ele>433.1</ele>
        <time>2022-09-29T12:06:17Z</time>
      </trkpt>
      <trkpt lat="46.80643" lon="6.72956">
        <ele>433.1</ele>
        <time>2022-09-29T12:06:18Z</time>
      </trkpt>
      <trkpt lat="46.80642" lon="6.72958">
        <ele>433.1</ele>
        <time>2022-09-29T12:06:19Z</time>
      </trkpt>
      <trkpt lat="46.80642" lon="6.72958">
        <ele>433.1</ele>
        <time>2022-09-29T12:06:20Z</time>
      </trkpt>
      <trkpt lat="46.80642" lon="6.72959">
        <ele>433.1</ele>
        <time>2022-09-29T12:06:21Z</time>
      </trkpt>
      <trkpt lat="46.80642" lon="6.7296">
        <ele>433.1</ele>
        <time>2022-09-29T12:06:22Z</time>
      </trkpt>
      <trkpt lat="46.80642" lon="6.72961">
        <ele>433.1</ele>
        <time>2022-09-29T12:06:23Z</time>
      </trkpt>
      <trkpt lat="46.80641" lon="6.72962">
        <ele>433.1</ele>
        <time>2022-09-29T12:06:24Z</time>
      </trkpt>
      <trkpt lat="46.80642" lon="6.72962">
        <ele>433.1</ele>
        <time>2022-09-29T12:06:25Z</time>
      </trkpt>
      <trkpt lat="46.80641" lon="6.72963">
        <ele>433.1</ele>
        <time>2022-09-29T12:06:26Z</time>
      </trkpt>
      <trkpt lat="46.80641" lon="6.72963">
        <ele>433.1</ele>
        <time>2022-09-29T12:06:27Z</time>
      </trkpt>
      <trkpt lat="46.80641" lon="6.72966">
        <ele>433.1</ele>
        <time>2022-09-29T12:06:28Z</time>
      </trkpt>
      <trkpt lat="46.8064" lon="6.7297">
        <ele>433.1</ele>
        <time>2022-09-29T12:06:29Z</time>
      </trkpt>
      <trkpt lat="46.8064" lon="6.72971">
        <ele>433.1</ele>
        <time>2022-09-29T12:06:30Z</time>
      </trkpt>
      <trkpt lat="46.80639" lon="6.72975">
        <ele>433.1</ele>
        <time>2022-09-29T12:06:31Z</time>
      </trkpt>
      <trkpt lat="46.80639" lon="6.72977">
        <ele>433.1</ele>
        <time>2022-09-29T12:06:32Z</time>
      </trkpt>
      <trkpt lat="46.80639" lon="6.72982">
        <ele>433.1</ele>
        <time>2022-09-29T12:06:33Z</time>
      </trkpt>
      <trkpt lat="46.80639" lon="6.72987">
        <ele>433.1</ele>
        <time>2022-09-29T12:06:34Z</time>
      </trkpt>
      <trkpt lat="46.80639" lon="6.72993">
        <ele>433.1</ele>
        <time>2022-09-29T12:06:35Z</time>
      </trkpt>
      <trkpt lat="46.80638" lon="6.72998">
        <ele>433.1</ele>
        <time>2022-09-29T12:06:36Z</time>
      </trkpt>
      <trkpt lat="46.80637" lon="6.73002">
        <ele>433.1</ele>
        <time>2022-09-29T12:06:37Z</time>
      </trkpt>
      <trkpt lat="46.80637" lon="6.73008">
        <ele>433</ele>
        <time>2022-09-29T12:06:38Z</time>
      </trkpt>
      <trkpt lat="46.80637" lon="6.73013">
        <ele>433</ele>
        <time>2022-09-29T12:06:39Z</time>
      </trkpt>
      <trkpt lat="46.80636" lon="6.73018">
        <ele>433</ele>
        <time>2022-09-29T12:06:40Z</time>
      </trkpt>
      <trkpt lat="46.80635" lon="6.73023">
        <ele>433</ele>
        <time>2022-09-29T12:06:41Z</time>
      </trkpt>
      <trkpt lat="46.80634" lon="6.73029">
        <ele>433</ele>
        <time>2022-09-29T12:06:42Z</time>
      </trkpt>
      <trkpt lat="46.80632" lon="6.73036">
        <ele>433</ele>
        <time>2022-09-29T12:06:44Z</time>
      </trkpt>
      <trkpt lat="46.80631" lon="6.7304">
        <ele>433</ele>
        <time>2022-09-29T12:06:45Z</time>
      </trkpt>
      <trkpt lat="46.80629" lon="6.73046">
        <ele>433</ele>
        <time>2022-09-29T12:06:46Z</time>
      </trkpt>
      <trkpt lat="46.80628" lon="6.73052">
        <ele>433</ele>
        <time>2022-09-29T12:06:47Z</time>
      </trkpt>
      <trkpt lat="46.80627" lon="6.73057">
        <ele>433</ele>
        <time>2022-09-29T12:06:48Z</time>
      </trkpt>
      <trkpt lat="46.80625" lon="6.73062">
        <ele>433</ele>
        <time>2022-09-29T12:06:49Z</time>
      </trkpt>
      <trkpt lat="46.80622" lon="6.73069">
        <ele>432.9</ele>
        <time>2022-09-29T12:06:50Z</time>
      </trkpt>
      <trkpt lat="46.8062" lon="6.73075">
        <ele>432.9</ele>
        <time>2022-09-29T12:06:51Z</time>
      </trkpt>
      <trkpt lat="46.80617" lon="6.73087">
        <ele>432.9</ele>
        <time>2022-09-29T12:06:52Z</time>
      </trkpt>
      <trkpt lat="46.80613" lon="6.73098">
        <ele>432.9</ele>
        <time>2022-09-29T12:06:54Z</time>
      </trkpt>
      <trkpt lat="46.80612" lon="6.73105">
        <ele>432.9</ele>
        <time>2022-09-29T12:06:55Z</time>
      </trkpt>
      <trkpt lat="46.80611" lon="6.73109">
        <ele>432.9</ele>
        <time>2022-09-29T12:06:56Z</time>
      </trkpt>
      <trkpt lat="46.80609" lon="6.73114">
        <ele>432.9</ele>
        <time>2022-09-29T12:06:57Z</time>
      </trkpt>
      <trkpt lat="46.80607" lon="6.73119">
        <ele>433</ele>
        <time>2022-09-29T12:06:58Z</time>
      </trkpt>
      <trkpt lat="46.80605" lon="6.73126">
        <ele>433</ele>
        <time>2022-09-29T12:06:59Z</time>
      </trkpt>
      <trkpt lat="46.80603" lon="6.73133">
        <ele>433</ele>
        <time>2022-09-29T12:07:00Z</time>
      </trkpt>
      <trkpt lat="46.80603" lon="6.73136">
        <ele>433</ele>
        <time>2022-09-29T12:07:01Z</time>
      </trkpt>
      <trkpt lat="46.80602" lon="6.73142">
        <ele>433</ele>
        <time>2022-09-29T12:07:02Z</time>
      </trkpt>
      <trkpt lat="46.80599" lon="6.73148">
        <ele>433</ele>
        <time>2022-09-29T12:07:03Z</time>
      </trkpt>
      <trkpt lat="46.80598" lon="6.73151">
        <ele>433</ele>
        <time>2022-09-29T12:07:04Z</time>
      </trkpt>
      <trkpt lat="46.80596" lon="6.73156">
        <ele>433</ele>
        <time>2022-09-29T12:07:05Z</time>
      </trkpt>
      <trkpt lat="46.80593" lon="6.73164">
        <ele>433</ele>
        <time>2022-09-29T12:07:06Z</time>
      </trkpt>
      <trkpt lat="46.8059" lon="6.73169">
        <ele>433</ele>
        <time>2022-09-29T12:07:07Z</time>
      </trkpt>
      <trkpt lat="46.80588" lon="6.73175">
        <ele>433</ele>
        <time>2022-09-29T12:07:08Z</time>
      </trkpt>
      <trkpt lat="46.80586" lon="6.73182">
        <ele>433</ele>
        <time>2022-09-29T12:07:09Z</time>
      </trkpt>
      <trkpt lat="46.80582" lon="6.7319">
        <ele>433</ele>
        <time>2022-09-29T12:07:10Z</time>
      </trkpt>
      <trkpt lat="46.80579" lon="6.73197">
        <ele>433</ele>
        <time>2022-09-29T12:07:11Z</time>
      </trkpt>
      <trkpt lat="46.80576" lon="6.73204">
        <ele>433</ele>
        <time>2022-09-29T12:07:12Z</time>
      </trkpt>
      <trkpt lat="46.80573" lon="6.73211">
        <ele>433</ele>
        <time>2022-09-29T12:07:13Z</time>
      </trkpt>
      <trkpt lat="46.80571" lon="6.73218">
        <ele>433</ele>
        <time>2022-09-29T12:07:14Z</time>
      </trkpt>
      <trkpt lat="46.80568" lon="6.73224">
        <ele>432.9</ele>
        <time>2022-09-29T12:07:15Z</time>
      </trkpt>
      <trkpt lat="46.80565" lon="6.73231">
        <ele>432.9</ele>
        <time>2022-09-29T12:07:16Z</time>
      </trkpt>
      <trkpt lat="46.80563" lon="6.73237">
        <ele>432.9</ele>
        <time>2022-09-29T12:07:17Z</time>
      </trkpt>
      <trkpt lat="46.80561" lon="6.73243">
        <ele>432.9</ele>
        <time>2022-09-29T12:07:18Z</time>
      </trkpt>
      <trkpt lat="46.80558" lon="6.73249">
        <ele>432.8</ele>
        <time>2022-09-29T12:07:19Z</time>
      </trkpt>
      <trkpt lat="46.80556" lon="6.73255">
        <ele>432.8</ele>
        <time>2022-09-29T12:07:20Z</time>
      </trkpt>
      <trkpt lat="46.80552" lon="6.73261">
        <ele>432.8</ele>
        <time>2022-09-29T12:07:21Z</time>
      </trkpt>
      <trkpt lat="46.80549" lon="6.73267">
        <ele>432.8</ele>
        <time>2022-09-29T12:07:22Z</time>
      </trkpt>
      <trkpt lat="46.80547" lon="6.73273">
        <ele>432.8</ele>
        <time>2022-09-29T12:07:23Z</time>
      </trkpt>
      <trkpt lat="46.80544" lon="6.7328">
        <ele>432.7</ele>
        <time>2022-09-29T12:07:24Z</time>
      </trkpt>
      <trkpt lat="46.80542" lon="6.73286">
        <ele>432.7</ele>
        <time>2022-09-29T12:07:25Z</time>
      </trkpt>
      <trkpt lat="46.8054" lon="6.73292">
        <ele>432.7</ele>
        <time>2022-09-29T12:07:26Z</time>
      </trkpt>
      <trkpt lat="46.80536" lon="6.73299">
        <ele>432.7</ele>
        <time>2022-09-29T12:07:27Z</time>
      </trkpt>
      <trkpt lat="46.80534" lon="6.73305">
        <ele>432.7</ele>
        <time>2022-09-29T12:07:28Z</time>
      </trkpt>
      <trkpt lat="46.80531" lon="6.7331">
        <ele>432.7</ele>
        <time>2022-09-29T12:07:29Z</time>
      </trkpt>
      <trkpt lat="46.80529" lon="6.73315">
        <ele>432.7</ele>
        <time>2022-09-29T12:07:30Z</time>
      </trkpt>
      <trkpt lat="46.80526" lon="6.7332">
        <ele>432.7</ele>
        <time>2022-09-29T12:07:31Z</time>
      </trkpt>
      <trkpt lat="46.80524" lon="6.73326">
        <ele>432.7</ele>
        <time>2022-09-29T12:07:32Z</time>
      </trkpt>
      <trkpt lat="46.80522" lon="6.73333">
        <ele>432.7</ele>
        <time>2022-09-29T12:07:33Z</time>
      </trkpt>
      <trkpt lat="46.80519" lon="6.73338">
        <ele>432.8</ele>
        <time>2022-09-29T12:07:34Z</time>
      </trkpt>
      <trkpt lat="46.80516" lon="6.73344">
        <ele>432.8</ele>
        <time>2022-09-29T12:07:35Z</time>
      </trkpt>
      <trkpt lat="46.80515" lon="6.73348">
        <ele>432.8</ele>
        <time>2022-09-29T12:07:36Z</time>
      </trkpt>
      <trkpt lat="46.80513" lon="6.73353">
        <ele>432.8</ele>
        <time>2022-09-29T12:07:37Z</time>
      </trkpt>
      <trkpt lat="46.80511" lon="6.73357">
        <ele>432.8</ele>
        <time>2022-09-29T12:07:38Z</time>
      </trkpt>
      <trkpt lat="46.80509" lon="6.73364">
        <ele>432.8</ele>
        <time>2022-09-29T12:07:39Z</time>
      </trkpt>
      <trkpt lat="46.80506" lon="6.73369">
        <ele>432.9</ele>
        <time>2022-09-29T12:07:40Z</time>
      </trkpt>
      <trkpt lat="46.80503" lon="6.73375">
        <ele>432.9</ele>
        <time>2022-09-29T12:07:41Z</time>
      </trkpt>
      <trkpt lat="46.80502" lon="6.73379">
        <ele>432.9</ele>
        <time>2022-09-29T12:07:42Z</time>
      </trkpt>
      <trkpt lat="46.805" lon="6.73384">
        <ele>432.9</ele>
        <time>2022-09-29T12:07:43Z</time>
      </trkpt>
      <trkpt lat="46.80495" lon="6.73392">
        <ele>432.9</ele>
        <time>2022-09-29T12:07:44Z</time>
      </trkpt>
      <trkpt lat="46.80492" lon="6.73399">
        <ele>432.9</ele>
        <time>2022-09-29T12:07:45Z</time>
      </trkpt>
      <trkpt lat="46.80488" lon="6.73406">
        <ele>432.9</ele>
        <time>2022-09-29T12:07:46Z</time>
      </trkpt>
      <trkpt lat="46.80484" lon="6.73412">
        <ele>432.9</ele>
        <time>2022-09-29T12:07:47Z</time>
      </trkpt>
      <trkpt lat="46.80481" lon="6.73417">
        <ele>432.9</ele>
        <time>2022-09-29T12:07:48Z</time>
      </trkpt>
      <trkpt lat="46.80476" lon="6.73422">
        <ele>432.9</ele>
        <time>2022-09-29T12:07:49Z</time>
      </trkpt>
      <trkpt lat="46.80469" lon="6.73428">
        <ele>432.9</ele>
        <time>2022-09-29T12:07:50Z</time>
      </trkpt>
      <trkpt lat="46.80464" lon="6.73434">
        <ele>432.9</ele>
        <time>2022-09-29T12:07:51Z</time>
      </trkpt>
      <trkpt lat="46.80458" lon="6.7344">
        <ele>432.9</ele>
        <time>2022-09-29T12:07:52Z</time>
      </trkpt>
      <trkpt lat="46.80454" lon="6.73445">
        <ele>432.9</ele>
        <time>2022-09-29T12:07:53Z</time>
      </trkpt>
      <trkpt lat="46.80449" lon="6.73448">
        <ele>432.9</ele>
        <time>2022-09-29T12:07:54Z</time>
      </trkpt>
      <trkpt lat="46.80445" lon="6.73453">
        <ele>432.9</ele>
        <time>2022-09-29T12:07:55Z</time>
      </trkpt>
      <trkpt lat="46.80441" lon="6.73458">
        <ele>432.9</ele>
        <time>2022-09-29T12:07:56Z</time>
      </trkpt>
      <trkpt lat="46.80436" lon="6.73463">
        <ele>432.9</ele>
        <time>2022-09-29T12:07:57Z</time>
      </trkpt>
      <trkpt lat="46.80433" lon="6.73468">
        <ele>432.9</ele>
        <time>2022-09-29T12:07:58Z</time>
      </trkpt>
      <trkpt lat="46.8043" lon="6.73471">
        <ele>432.9</ele>
        <time>2022-09-29T12:07:59Z</time>
      </trkpt>
      <trkpt lat="46.80426" lon="6.73479">
        <ele>432.9</ele>
        <time>2022-09-29T12:08:00Z</time>
      </trkpt>
      <trkpt lat="46.80423" lon="6.73484">
        <ele>432.9</ele>
        <time>2022-09-29T12:08:01Z</time>
      </trkpt>
      <trkpt lat="46.80419" lon="6.73491">
        <ele>432.9</ele>
        <time>2022-09-29T12:08:02Z</time>
      </trkpt>
      <trkpt lat="46.80416" lon="6.73497">
        <ele>432.9</ele>
        <time>2022-09-29T12:08:03Z</time>
      </trkpt>
      <trkpt lat="46.80413" lon="6.73504">
        <ele>432.9</ele>
        <time>2022-09-29T12:08:04Z</time>
      </trkpt>
      <trkpt lat="46.80411" lon="6.73511">
        <ele>432.9</ele>
        <time>2022-09-29T12:08:05Z</time>
      </trkpt>
      <trkpt lat="46.80408" lon="6.73516">
        <ele>432.9</ele>
        <time>2022-09-29T12:08:06Z</time>
      </trkpt>
      <trkpt lat="46.80404" lon="6.7352">
        <ele>432.9</ele>
        <time>2022-09-29T12:08:07Z</time>
      </trkpt>
      <trkpt lat="46.80402" lon="6.73528">
        <ele>432.9</ele>
        <time>2022-09-29T12:08:08Z</time>
      </trkpt>
      <trkpt lat="46.80399" lon="6.73534">
        <ele>432.9</ele>
        <time>2022-09-29T12:08:09Z</time>
      </trkpt>
      <trkpt lat="46.80395" lon="6.7354">
        <ele>432.9</ele>
        <time>2022-09-29T12:08:10Z</time>
      </trkpt>
      <trkpt lat="46.80393" lon="6.73546">
        <ele>432.9</ele>
        <time>2022-09-29T12:08:11Z</time>
      </trkpt>
      <trkpt lat="46.80389" lon="6.73552">
        <ele>432.9</ele>
        <time>2022-09-29T12:08:12Z</time>
      </trkpt>
      <trkpt lat="46.80385" lon="6.73559">
        <ele>432.9</ele>
        <time>2022-09-29T12:08:13Z</time>
      </trkpt>
      <trkpt lat="46.80382" lon="6.73565">
        <ele>432.9</ele>
        <time>2022-09-29T12:08:14Z</time>
      </trkpt>
      <trkpt lat="46.80379" lon="6.73571">
        <ele>432.9</ele>
        <time>2022-09-29T12:08:15Z</time>
      </trkpt>
      <trkpt lat="46.80376" lon="6.73578">
        <ele>432.9</ele>
        <time>2022-09-29T12:08:16Z</time>
      </trkpt>
      <trkpt lat="46.80373" lon="6.73583">
        <ele>432.9</ele>
        <time>2022-09-29T12:08:17Z</time>
      </trkpt>
      <trkpt lat="46.80371" lon="6.7359">
        <ele>432.9</ele>
        <time>2022-09-29T12:08:18Z</time>
      </trkpt>
      <trkpt lat="46.80367" lon="6.73595">
        <ele>432.9</ele>
        <time>2022-09-29T12:08:19Z</time>
      </trkpt>
      <trkpt lat="46.80364" lon="6.736">
        <ele>432.9</ele>
        <time>2022-09-29T12:08:20Z</time>
      </trkpt>
      <trkpt lat="46.80361" lon="6.73607">
        <ele>432.9</ele>
        <time>2022-09-29T12:08:21Z</time>
      </trkpt>
      <trkpt lat="46.80359" lon="6.73613">
        <ele>432.9</ele>
        <time>2022-09-29T12:08:22Z</time>
      </trkpt>
      <trkpt lat="46.80356" lon="6.7362">
        <ele>432.9</ele>
        <time>2022-09-29T12:08:23Z</time>
      </trkpt>
      <trkpt lat="46.80354" lon="6.73625">
        <ele>432.9</ele>
        <time>2022-09-29T12:08:24Z</time>
      </trkpt>
      <trkpt lat="46.80351" lon="6.7363">
        <ele>432.9</ele>
        <time>2022-09-29T12:08:25Z</time>
      </trkpt>
      <trkpt lat="46.80347" lon="6.73636">
        <ele>433</ele>
        <time>2022-09-29T12:08:26Z</time>
      </trkpt>
      <trkpt lat="46.80346" lon="6.73643">
        <ele>433</ele>
        <time>2022-09-29T12:08:27Z</time>
      </trkpt>
      <trkpt lat="46.80343" lon="6.73648">
        <ele>433</ele>
        <time>2022-09-29T12:08:28Z</time>
      </trkpt>
      <trkpt lat="46.80342" lon="6.73651">
        <ele>433</ele>
        <time>2022-09-29T12:08:29Z</time>
      </trkpt>
      <trkpt lat="46.80341" lon="6.73658">
        <ele>433</ele>
        <time>2022-09-29T12:08:30Z</time>
      </trkpt>
      <trkpt lat="46.8034" lon="6.73662">
        <ele>433</ele>
        <time>2022-09-29T12:08:31Z</time>
      </trkpt>
      <trkpt lat="46.80338" lon="6.73666">
        <ele>433</ele>
        <time>2022-09-29T12:08:32Z</time>
      </trkpt>
      <trkpt lat="46.80336" lon="6.73672">
        <ele>433</ele>
        <time>2022-09-29T12:08:33Z</time>
      </trkpt>
      <trkpt lat="46.80334" lon="6.73677">
        <ele>433</ele>
        <time>2022-09-29T12:08:34Z</time>
      </trkpt>
      <trkpt lat="46.80333" lon="6.73681">
        <ele>433</ele>
        <time>2022-09-29T12:08:35Z</time>
      </trkpt>
      <trkpt lat="46.80329" lon="6.73686">
        <ele>433.1</ele>
        <time>2022-09-29T12:08:36Z</time>
      </trkpt>
      <trkpt lat="46.80328" lon="6.7369">
        <ele>433.1</ele>
        <time>2022-09-29T12:08:37Z</time>
      </trkpt>
      <trkpt lat="46.80326" lon="6.73696">
        <ele>433.1</ele>
        <time>2022-09-29T12:08:38Z</time>
      </trkpt>
      <trkpt lat="46.80323" lon="6.73701">
        <ele>433.1</ele>
        <time>2022-09-29T12:08:39Z</time>
      </trkpt>
      <trkpt lat="46.8032" lon="6.73707">
        <ele>433.1</ele>
        <time>2022-09-29T12:08:40Z</time>
      </trkpt>
      <trkpt lat="46.80318" lon="6.73711">
        <ele>433.2</ele>
        <time>2022-09-29T12:08:41Z</time>
      </trkpt>
      <trkpt lat="46.80313" lon="6.7372">
        <ele>433.2</ele>
        <time>2022-09-29T12:08:42Z</time>
      </trkpt>
      <trkpt lat="46.80309" lon="6.73727">
        <ele>433.3</ele>
        <time>2022-09-29T12:08:43Z</time>
      </trkpt>
      <trkpt lat="46.80305" lon="6.73733">
        <ele>433.3</ele>
        <time>2022-09-29T12:08:44Z</time>
      </trkpt>
      <trkpt lat="46.80303" lon="6.73738">
        <ele>433.3</ele>
        <time>2022-09-29T12:08:45Z</time>
      </trkpt>
      <trkpt lat="46.80302" lon="6.73741">
        <ele>433.4</ele>
        <time>2022-09-29T12:08:46Z</time>
      </trkpt>
      <trkpt lat="46.803" lon="6.73747">
        <ele>433.4</ele>
        <time>2022-09-29T12:08:47Z</time>
      </trkpt>
      <trkpt lat="46.80298" lon="6.73752">
        <ele>433.5</ele>
        <time>2022-09-29T12:08:48Z</time>
      </trkpt>
      <trkpt lat="46.80296" lon="6.73756">
        <ele>433.5</ele>
        <time>2022-09-29T12:08:49Z</time>
      </trkpt>
      <trkpt lat="46.80294" lon="6.7376">
        <ele>433.5</ele>
        <time>2022-09-29T12:08:50Z</time>
      </trkpt>
      <trkpt lat="46.80292" lon="6.73765">
        <ele>433.6</ele>
        <time>2022-09-29T12:08:51Z</time>
      </trkpt>
      <trkpt lat="46.8029" lon="6.73771">
        <ele>433.6</ele>
        <time>2022-09-29T12:08:52Z</time>
      </trkpt>
      <trkpt lat="46.80288" lon="6.73776">
        <ele>433.7</ele>
        <time>2022-09-29T12:08:53Z</time>
      </trkpt>
      <trkpt lat="46.80285" lon="6.7378">
        <ele>433.7</ele>
        <time>2022-09-29T12:08:54Z</time>
      </trkpt>
      <trkpt lat="46.80283" lon="6.73785">
        <ele>433.8</ele>
        <time>2022-09-29T12:08:55Z</time>
      </trkpt>
      <trkpt lat="46.80281" lon="6.73789">
        <ele>433.8</ele>
        <time>2022-09-29T12:08:56Z</time>
      </trkpt>
      <trkpt lat="46.80279" lon="6.73793">
        <ele>433.9</ele>
        <time>2022-09-29T12:08:57Z</time>
      </trkpt>
      <trkpt lat="46.80277" lon="6.73798">
        <ele>434</ele>
        <time>2022-09-29T12:08:58Z</time>
      </trkpt>
      <trkpt lat="46.80276" lon="6.73802">
        <ele>434</ele>
        <time>2022-09-29T12:08:59Z</time>
      </trkpt>
      <trkpt lat="46.80275" lon="6.73808">
        <ele>434</ele>
        <time>2022-09-29T12:09:00Z</time>
      </trkpt>
      <trkpt lat="46.80274" lon="6.73814">
        <ele>434.1</ele>
        <time>2022-09-29T12:09:01Z</time>
      </trkpt>
      <trkpt lat="46.80275" lon="6.7382">
        <ele>434.1</ele>
        <time>2022-09-29T12:09:02Z</time>
      </trkpt>
      <trkpt lat="46.80274" lon="6.73825">
        <ele>434.3</ele>
        <time>2022-09-29T12:09:03Z</time>
      </trkpt>
      <trkpt lat="46.80273" lon="6.73828">
        <ele>434.3</ele>
        <time>2022-09-29T12:09:04Z</time>
      </trkpt>
      <trkpt lat="46.80274" lon="6.7383">
        <ele>434.3</ele>
        <time>2022-09-29T12:09:05Z</time>
      </trkpt>
      <trkpt lat="46.80273" lon="6.7383">
        <ele>434.3</ele>
        <time>2022-09-29T12:09:06Z</time>
      </trkpt>
      <trkpt lat="46.80274" lon="6.7383">
        <ele>434.3</ele>
        <time>2022-09-29T12:09:07Z</time>
      </trkpt>
      <trkpt lat="46.80274" lon="6.7383">
        <ele>434.3</ele>
        <time>2022-09-29T12:09:08Z</time>
      </trkpt>
      <trkpt lat="46.80275" lon="6.73829">
        <ele>434.3</ele>
        <time>2022-09-29T12:09:09Z</time>
      </trkpt>
      <trkpt lat="46.80275" lon="6.73831">
        <ele>434.3</ele>
        <time>2022-09-29T12:09:10Z</time>
      </trkpt>
      <trkpt lat="46.80276" lon="6.73831">
        <ele>434.3</ele>
        <time>2022-09-29T12:09:11Z</time>
      </trkpt>
      <trkpt lat="46.80276" lon="6.73832">
        <ele>434.3</ele>
        <time>2022-09-29T12:09:12Z</time>
      </trkpt>
      <trkpt lat="46.80276" lon="6.73833">
        <ele>434.3</ele>
        <time>2022-09-29T12:09:13Z</time>
      </trkpt>
      <trkpt lat="46.80275" lon="6.73834">
        <ele>434.3</ele>
        <time>2022-09-29T12:09:14Z</time>
      </trkpt>
      <trkpt lat="46.80275" lon="6.73834">
        <ele>434.3</ele>
        <time>2022-09-29T12:09:15Z</time>
      </trkpt>
      <trkpt lat="46.80275" lon="6.73835">
        <ele>434.3</ele>
        <time>2022-09-29T12:09:16Z</time>
      </trkpt>
      <trkpt lat="46.80275" lon="6.73836">
        <ele>434.3</ele>
        <time>2022-09-29T12:09:17Z</time>
      </trkpt>
      <trkpt lat="46.80275" lon="6.73837">
        <ele>434.3</ele>
        <time>2022-09-29T12:09:18Z</time>
      </trkpt>
      <trkpt lat="46.80274" lon="6.73838">
        <ele>434.3</ele>
        <time>2022-09-29T12:09:19Z</time>
      </trkpt>
      <trkpt lat="46.80274" lon="6.73839">
        <ele>434.3</ele>
        <time>2022-09-29T12:09:20Z</time>
      </trkpt>
      <trkpt lat="46.80274" lon="6.73839">
        <ele>434.3</ele>
        <time>2022-09-29T12:09:21Z</time>
      </trkpt>
      <trkpt lat="46.80274" lon="6.7384">
        <ele>434.3</ele>
        <time>2022-09-29T12:09:22Z</time>
      </trkpt>
      <trkpt lat="46.80274" lon="6.73841">
        <ele>434.3</ele>
        <time>2022-09-29T12:09:23Z</time>
      </trkpt>
      <trkpt lat="46.80274" lon="6.73842">
        <ele>434.3</ele>
        <time>2022-09-29T12:09:26Z</time>
      </trkpt>
      <trkpt lat="46.80273" lon="6.73843">
        <ele>434.3</ele>
        <time>2022-09-29T12:09:27Z</time>
      </trkpt>
      <trkpt lat="46.80273" lon="6.73848">
        <ele>434.3</ele>
        <time>2022-09-29T12:09:28Z</time>
      </trkpt>
      <trkpt lat="46.80273" lon="6.73853">
        <ele>434.3</ele>
        <time>2022-09-29T12:09:29Z</time>
      </trkpt>
      <trkpt lat="46.80274" lon="6.73858">
        <ele>434.3</ele>
        <time>2022-09-29T12:09:30Z</time>
      </trkpt>
      <trkpt lat="46.80273" lon="6.73864">
        <ele>434.3</ele>
        <time>2022-09-29T12:09:31Z</time>
      </trkpt>
      <trkpt lat="46.80272" lon="6.73869">
        <ele>434.3</ele>
        <time>2022-09-29T12:09:32Z</time>
      </trkpt>
      <trkpt lat="46.80273" lon="6.73874">
        <ele>434.3</ele>
        <time>2022-09-29T12:09:33Z</time>
      </trkpt>
      <trkpt lat="46.80273" lon="6.7388">
        <ele>434.3</ele>
        <time>2022-09-29T12:09:34Z</time>
      </trkpt>
      <trkpt lat="46.80273" lon="6.73886">
        <ele>434.3</ele>
        <time>2022-09-29T12:09:35Z</time>
      </trkpt>
      <trkpt lat="46.80272" lon="6.73893">
        <ele>434.3</ele>
        <time>2022-09-29T12:09:36Z</time>
      </trkpt>
      <trkpt lat="46.80273" lon="6.73899">
        <ele>434.4</ele>
        <time>2022-09-29T12:09:37Z</time>
      </trkpt>
      <trkpt lat="46.80273" lon="6.73905">
        <ele>434.4</ele>
        <time>2022-09-29T12:09:38Z</time>
      </trkpt>
      <trkpt lat="46.80272" lon="6.73911">
        <ele>434.4</ele>
        <time>2022-09-29T12:09:39Z</time>
      </trkpt>
      <trkpt lat="46.80272" lon="6.73916">
        <ele>434.4</ele>
        <time>2022-09-29T12:09:40Z</time>
      </trkpt>
      <trkpt lat="46.80272" lon="6.73922">
        <ele>434.4</ele>
        <time>2022-09-29T12:09:41Z</time>
      </trkpt>
      <trkpt lat="46.80271" lon="6.73928">
        <ele>434.5</ele>
        <time>2022-09-29T12:09:42Z</time>
      </trkpt>
      <trkpt lat="46.80271" lon="6.73934">
        <ele>434.5</ele>
        <time>2022-09-29T12:09:43Z</time>
      </trkpt>
      <trkpt lat="46.8027" lon="6.73939">
        <ele>434.5</ele>
        <time>2022-09-29T12:09:44Z</time>
      </trkpt>
      <trkpt lat="46.8027" lon="6.73945">
        <ele>434.5</ele>
        <time>2022-09-29T12:09:45Z</time>
      </trkpt>
      <trkpt lat="46.80271" lon="6.73951">
        <ele>434.5</ele>
        <time>2022-09-29T12:09:46Z</time>
      </trkpt>
      <trkpt lat="46.80271" lon="6.73955">
        <ele>434.5</ele>
        <time>2022-09-29T12:09:47Z</time>
      </trkpt>
      <trkpt lat="46.80273" lon="6.73961">
        <ele>434.5</ele>
        <time>2022-09-29T12:09:48Z</time>
      </trkpt>
      <trkpt lat="46.80274" lon="6.73962">
        <ele>434.5</ele>
        <time>2022-09-29T12:09:49Z</time>
      </trkpt>
      <trkpt lat="46.80276" lon="6.73964">
        <ele>434.5</ele>
        <time>2022-09-29T12:09:50Z</time>
      </trkpt>
      <trkpt lat="46.80279" lon="6.73967">
        <ele>434.4</ele>
        <time>2022-09-29T12:09:51Z</time>
      </trkpt>
      <trkpt lat="46.80282" lon="6.73968">
        <ele>434.4</ele>
        <time>2022-09-29T12:09:52Z</time>
      </trkpt>
      <trkpt lat="46.80285" lon="6.73969">
        <ele>434.4</ele>
        <time>2022-09-29T12:09:53Z</time>
      </trkpt>
      <trkpt lat="46.80289" lon="6.7397">
        <ele>434.3</ele>
        <time>2022-09-29T12:09:54Z</time>
      </trkpt>
      <trkpt lat="46.80293" lon="6.7397">
        <ele>434.3</ele>
        <time>2022-09-29T12:09:55Z</time>
      </trkpt>
      <trkpt lat="46.80297" lon="6.7397">
        <ele>434.2</ele>
        <time>2022-09-29T12:09:56Z</time>
      </trkpt>
      <trkpt lat="46.80301" lon="6.7397">
        <ele>434.2</ele>
        <time>2022-09-29T12:09:57Z</time>
      </trkpt>
      <trkpt lat="46.80305" lon="6.73971">
        <ele>434.1</ele>
        <time>2022-09-29T12:09:58Z</time>
      </trkpt>
      <trkpt lat="46.80308" lon="6.73972">
        <ele>434.1</ele>
        <time>2022-09-29T12:09:59Z</time>
      </trkpt>
      <trkpt lat="46.80312" lon="6.73972">
        <ele>434</ele>
        <time>2022-09-29T12:10:00Z</time>
      </trkpt>
      <trkpt lat="46.80315" lon="6.73973">
        <ele>434</ele>
        <time>2022-09-29T12:10:01Z</time>
      </trkpt>
      <trkpt lat="46.80317" lon="6.73974">
        <ele>433.9</ele>
        <time>2022-09-29T12:10:02Z</time>
      </trkpt>
      <trkpt lat="46.8032" lon="6.73977">
        <ele>433.9</ele>
        <time>2022-09-29T12:10:03Z</time>
      </trkpt>
      <trkpt lat="46.8032" lon="6.73978">
        <ele>433.9</ele>
        <time>2022-09-29T12:10:04Z</time>
      </trkpt>
      <trkpt lat="46.80321" lon="6.73983">
        <ele>433.8</ele>
        <time>2022-09-29T12:10:05Z</time>
      </trkpt>
      <trkpt lat="46.8032" lon="6.73987">
        <ele>433.8</ele>
        <time>2022-09-29T12:10:06Z</time>
      </trkpt>
      <trkpt lat="46.80319" lon="6.73992">
        <ele>433.8</ele>
        <time>2022-09-29T12:10:07Z</time>
      </trkpt>
      <trkpt lat="46.80318" lon="6.73996">
        <ele>433.8</ele>
        <time>2022-09-29T12:10:08Z</time>
      </trkpt>
      <trkpt lat="46.80318" lon="6.74001">
        <ele>433.8</ele>
        <time>2022-09-29T12:10:09Z</time>
      </trkpt>
      <trkpt lat="46.80317" lon="6.74006">
        <ele>433.8</ele>
        <time>2022-09-29T12:10:10Z</time>
      </trkpt>
      <trkpt lat="46.80316" lon="6.74009">
        <ele>433.8</ele>
        <time>2022-09-29T12:10:11Z</time>
      </trkpt>
      <trkpt lat="46.80314" lon="6.74015">
        <ele>433.8</ele>
        <time>2022-09-29T12:10:12Z</time>
      </trkpt>
      <trkpt lat="46.80314" lon="6.74018">
        <ele>433.8</ele>
        <time>2022-09-29T12:10:13Z</time>
      </trkpt>
      <trkpt lat="46.80313" lon="6.74023">
        <ele>433.8</ele>
        <time>2022-09-29T12:10:14Z</time>
      </trkpt>
      <trkpt lat="46.80313" lon="6.74024">
        <ele>433.8</ele>
        <time>2022-09-29T12:10:15Z</time>
      </trkpt>
      <trkpt lat="46.80313" lon="6.74027">
        <ele>433.8</ele>
        <time>2022-09-29T12:10:16Z</time>
      </trkpt>
      <trkpt lat="46.80312" lon="6.74028">
        <ele>433.8</ele>
        <time>2022-09-29T12:10:17Z</time>
      </trkpt>
      <trkpt lat="46.80312" lon="6.7403">
        <ele>433.8</ele>
        <time>2022-09-29T12:10:18Z</time>
      </trkpt>
      <trkpt lat="46.80311" lon="6.74032">
        <ele>433.8</ele>
        <time>2022-09-29T12:10:19Z</time>
      </trkpt>
      <trkpt lat="46.80312" lon="6.74034">
        <ele>433.8</ele>
        <time>2022-09-29T12:10:20Z</time>
      </trkpt>
      <trkpt lat="46.8031" lon="6.74038">
        <ele>433.8</ele>
        <time>2022-09-29T12:10:21Z</time>
      </trkpt>
      <trkpt lat="46.80309" lon="6.74043">
        <ele>433.8</ele>
        <time>2022-09-29T12:10:22Z</time>
      </trkpt>
      <trkpt lat="46.80308" lon="6.74045">
        <ele>433.8</ele>
        <time>2022-09-29T12:10:23Z</time>
      </trkpt>
      <trkpt lat="46.80307" lon="6.7405">
        <ele>433.8</ele>
        <time>2022-09-29T12:10:24Z</time>
      </trkpt>
      <trkpt lat="46.80306" lon="6.74051">
        <ele>433.8</ele>
        <time>2022-09-29T12:10:25Z</time>
      </trkpt>
      <trkpt lat="46.80305" lon="6.74056">
        <ele>433.8</ele>
        <time>2022-09-29T12:10:26Z</time>
      </trkpt>
      <trkpt lat="46.80305" lon="6.74057">
        <ele>433.8</ele>
        <time>2022-09-29T12:10:27Z</time>
      </trkpt>
      <trkpt lat="46.80304" lon="6.74063">
        <ele>433.8</ele>
        <time>2022-09-29T12:10:28Z</time>
      </trkpt>
      <trkpt lat="46.80303" lon="6.74067">
        <ele>433.8</ele>
        <time>2022-09-29T12:10:29Z</time>
      </trkpt>
      <trkpt lat="46.80303" lon="6.74069">
        <ele>433.8</ele>
        <time>2022-09-29T12:10:30Z</time>
      </trkpt>
      <trkpt lat="46.80301" lon="6.74071">
        <ele>433.8</ele>
        <time>2022-09-29T12:10:31Z</time>
      </trkpt>
      <trkpt lat="46.80301" lon="6.74071">
        <ele>433.8</ele>
        <time>2022-09-29T12:10:32Z</time>
      </trkpt>
      <trkpt lat="46.803" lon="6.74071">
        <ele>433.8</ele>
        <time>2022-09-29T12:10:33Z</time>
      </trkpt>
      <trkpt lat="46.80298" lon="6.74074">
        <ele>433.8</ele>
        <time>2022-09-29T12:10:34Z</time>
      </trkpt>
      <trkpt lat="46.80297" lon="6.74076">
        <ele>433.8</ele>
        <time>2022-09-29T12:10:35Z</time>
      </trkpt>
      <trkpt lat="46.80296" lon="6.7408">
        <ele>433.8</ele>
        <time>2022-09-29T12:10:36Z</time>
      </trkpt>
      <trkpt lat="46.80296" lon="6.74082">
        <ele>433.8</ele>
        <time>2022-09-29T12:10:37Z</time>
      </trkpt>
      <trkpt lat="46.80295" lon="6.74088">
        <ele>433.8</ele>
        <time>2022-09-29T12:10:38Z</time>
      </trkpt>
      <trkpt lat="46.80294" lon="6.7409">
        <ele>433.7</ele>
        <time>2022-09-29T12:10:39Z</time>
      </trkpt>
      <trkpt lat="46.80292" lon="6.74095">
        <ele>433.7</ele>
        <time>2022-09-29T12:10:40Z</time>
      </trkpt>
      <trkpt lat="46.80291" lon="6.741">
        <ele>433.7</ele>
        <time>2022-09-29T12:10:41Z</time>
      </trkpt>
      <trkpt lat="46.80289" lon="6.74105">
        <ele>433.6</ele>
        <time>2022-09-29T12:10:42Z</time>
      </trkpt>
      <trkpt lat="46.80287" lon="6.7411">
        <ele>433.6</ele>
        <time>2022-09-29T12:10:43Z</time>
      </trkpt>
      <trkpt lat="46.80285" lon="6.74117">
        <ele>433.5</ele>
        <time>2022-09-29T12:10:44Z</time>
      </trkpt>
      <trkpt lat="46.80283" lon="6.74122">
        <ele>433.5</ele>
        <time>2022-09-29T12:10:45Z</time>
      </trkpt>
      <trkpt lat="46.80281" lon="6.74127">
        <ele>433.5</ele>
        <time>2022-09-29T12:10:46Z</time>
      </trkpt>
      <trkpt lat="46.8028" lon="6.74135">
        <ele>433.6</ele>
        <time>2022-09-29T12:10:47Z</time>
      </trkpt>
      <trkpt lat="46.80277" lon="6.7414">
        <ele>433.6</ele>
        <time>2022-09-29T12:10:48Z</time>
      </trkpt>
      <trkpt lat="46.80276" lon="6.74146">
        <ele>433.6</ele>
        <time>2022-09-29T12:10:49Z</time>
      </trkpt>
      <trkpt lat="46.80274" lon="6.74152">
        <ele>433.6</ele>
        <time>2022-09-29T12:10:50Z</time>
      </trkpt>
      <trkpt lat="46.80273" lon="6.74158">
        <ele>433.6</ele>
        <time>2022-09-29T12:10:51Z</time>
      </trkpt>
      <trkpt lat="46.80271" lon="6.74165">
        <ele>433.6</ele>
        <time>2022-09-29T12:10:52Z</time>
      </trkpt>
      <trkpt lat="46.80271" lon="6.74173">
        <ele>433.6</ele>
        <time>2022-09-29T12:10:53Z</time>
      </trkpt>
      <trkpt lat="46.80268" lon="6.74177">
        <ele>433.6</ele>
        <time>2022-09-29T12:10:54Z</time>
      </trkpt>
      <trkpt lat="46.80266" lon="6.74184">
        <ele>433.6</ele>
        <time>2022-09-29T12:10:55Z</time>
      </trkpt>
      <trkpt lat="46.80264" lon="6.7419">
        <ele>433.6</ele>
        <time>2022-09-29T12:10:56Z</time>
      </trkpt>
      <trkpt lat="46.80262" lon="6.74196">
        <ele>433.6</ele>
        <time>2022-09-29T12:10:57Z</time>
      </trkpt>
      <trkpt lat="46.8026" lon="6.74203">
        <ele>433.6</ele>
        <time>2022-09-29T12:10:58Z</time>
      </trkpt>
      <trkpt lat="46.80258" lon="6.74209">
        <ele>433.6</ele>
        <time>2022-09-29T12:10:59Z</time>
      </trkpt>
      <trkpt lat="46.80256" lon="6.74216">
        <ele>433.6</ele>
        <time>2022-09-29T12:11:00Z</time>
      </trkpt>
      <trkpt lat="46.80255" lon="6.74223">
        <ele>433.6</ele>
        <time>2022-09-29T12:11:01Z</time>
      </trkpt>
      <trkpt lat="46.80253" lon="6.74229">
        <ele>433.6</ele>
        <time>2022-09-29T12:11:02Z</time>
      </trkpt>
      <trkpt lat="46.80251" lon="6.74237">
        <ele>433.6</ele>
        <time>2022-09-29T12:11:03Z</time>
      </trkpt>
      <trkpt lat="46.80249" lon="6.74244">
        <ele>433.6</ele>
        <time>2022-09-29T12:11:04Z</time>
      </trkpt>
      <trkpt lat="46.80246" lon="6.7425">
        <ele>433.6</ele>
        <time>2022-09-29T12:11:05Z</time>
      </trkpt>
      <trkpt lat="46.80244" lon="6.74257">
        <ele>433.6</ele>
        <time>2022-09-29T12:11:06Z</time>
      </trkpt>
      <trkpt lat="46.80243" lon="6.74263">
        <ele>433.6</ele>
        <time>2022-09-29T12:11:07Z</time>
      </trkpt>
      <trkpt lat="46.8024" lon="6.7427">
        <ele>433.6</ele>
        <time>2022-09-29T12:11:08Z</time>
      </trkpt>
      <trkpt lat="46.80239" lon="6.74276">
        <ele>433.6</ele>
        <time>2022-09-29T12:11:09Z</time>
      </trkpt>
      <trkpt lat="46.80236" lon="6.74282">
        <ele>433.5</ele>
        <time>2022-09-29T12:11:10Z</time>
      </trkpt>
      <trkpt lat="46.80234" lon="6.74288">
        <ele>433.5</ele>
        <time>2022-09-29T12:11:11Z</time>
      </trkpt>
      <trkpt lat="46.80233" lon="6.74295">
        <ele>433.5</ele>
        <time>2022-09-29T12:11:12Z</time>
      </trkpt>
      <trkpt lat="46.80231" lon="6.74302">
        <ele>433.4</ele>
        <time>2022-09-29T12:11:13Z</time>
      </trkpt>
      <trkpt lat="46.80229" lon="6.74309">
        <ele>433.4</ele>
        <time>2022-09-29T12:11:14Z</time>
      </trkpt>
      <trkpt lat="46.80227" lon="6.74315">
        <ele>433.4</ele>
        <time>2022-09-29T12:11:15Z</time>
      </trkpt>
      <trkpt lat="46.80225" lon="6.74321">
        <ele>433.4</ele>
        <time>2022-09-29T12:11:16Z</time>
      </trkpt>
      <trkpt lat="46.80223" lon="6.74327">
        <ele>433.3</ele>
        <time>2022-09-29T12:11:17Z</time>
      </trkpt>
      <trkpt lat="46.80222" lon="6.74333">
        <ele>433.3</ele>
        <time>2022-09-29T12:11:18Z</time>
      </trkpt>
      <trkpt lat="46.8022" lon="6.7434">
        <ele>433.3</ele>
        <time>2022-09-29T12:11:19Z</time>
      </trkpt>
      <trkpt lat="46.80217" lon="6.74346">
        <ele>433.2</ele>
        <time>2022-09-29T12:11:20Z</time>
      </trkpt>
      <trkpt lat="46.80216" lon="6.7435">
        <ele>433.2</ele>
        <time>2022-09-29T12:11:21Z</time>
      </trkpt>
      <trkpt lat="46.80214" lon="6.74357">
        <ele>433.2</ele>
        <time>2022-09-29T12:11:22Z</time>
      </trkpt>
      <trkpt lat="46.80213" lon="6.74362">
        <ele>433.1</ele>
        <time>2022-09-29T12:11:23Z</time>
      </trkpt>
      <trkpt lat="46.8021" lon="6.74369">
        <ele>433.1</ele>
        <time>2022-09-29T12:11:24Z</time>
      </trkpt>
      <trkpt lat="46.8021" lon="6.74373">
        <ele>433</ele>
        <time>2022-09-29T12:11:25Z</time>
      </trkpt>
      <trkpt lat="46.80207" lon="6.74381">
        <ele>433</ele>
        <time>2022-09-29T12:11:26Z</time>
      </trkpt>
      <trkpt lat="46.80205" lon="6.74386">
        <ele>432.9</ele>
        <time>2022-09-29T12:11:27Z</time>
      </trkpt>
      <trkpt lat="46.80203" lon="6.74392">
        <ele>432.9</ele>
        <time>2022-09-29T12:11:28Z</time>
      </trkpt>
      <trkpt lat="46.80201" lon="6.744">
        <ele>432.8</ele>
        <time>2022-09-29T12:11:29Z</time>
      </trkpt>
      <trkpt lat="46.802" lon="6.74406">
        <ele>432.8</ele>
        <time>2022-09-29T12:11:30Z</time>
      </trkpt>
      <trkpt lat="46.80197" lon="6.74412">
        <ele>432.7</ele>
        <time>2022-09-29T12:11:31Z</time>
      </trkpt>
      <trkpt lat="46.80196" lon="6.7442">
        <ele>432.7</ele>
        <time>2022-09-29T12:11:32Z</time>
      </trkpt>
      <trkpt lat="46.80194" lon="6.74427">
        <ele>432.7</ele>
        <time>2022-09-29T12:11:33Z</time>
      </trkpt>
      <trkpt lat="46.80192" lon="6.74433">
        <ele>432.7</ele>
        <time>2022-09-29T12:11:34Z</time>
      </trkpt>
      <trkpt lat="46.8019" lon="6.74439">
        <ele>432.7</ele>
        <time>2022-09-29T12:11:35Z</time>
      </trkpt>
      <trkpt lat="46.80189" lon="6.74444">
        <ele>432.7</ele>
        <time>2022-09-29T12:11:36Z</time>
      </trkpt>
      <trkpt lat="46.80187" lon="6.74449">
        <ele>432.7</ele>
        <time>2022-09-29T12:11:37Z</time>
      </trkpt>
      <trkpt lat="46.80184" lon="6.74455">
        <ele>432.7</ele>
        <time>2022-09-29T12:11:38Z</time>
      </trkpt>
      <trkpt lat="46.80182" lon="6.7446">
        <ele>432.7</ele>
        <time>2022-09-29T12:11:39Z</time>
      </trkpt>
      <trkpt lat="46.8018" lon="6.74465">
        <ele>432.7</ele>
        <time>2022-09-29T12:11:40Z</time>
      </trkpt>
      <trkpt lat="46.80178" lon="6.7447">
        <ele>432.8</ele>
        <time>2022-09-29T12:11:41Z</time>
      </trkpt>
      <trkpt lat="46.80176" lon="6.74477">
        <ele>432.8</ele>
        <time>2022-09-29T12:11:42Z</time>
      </trkpt>
      <trkpt lat="46.80174" lon="6.74482">
        <ele>432.8</ele>
        <time>2022-09-29T12:11:43Z</time>
      </trkpt>
      <trkpt lat="46.80173" lon="6.74488">
        <ele>432.9</ele>
        <time>2022-09-29T12:11:44Z</time>
      </trkpt>
      <trkpt lat="46.8017" lon="6.74493">
        <ele>432.9</ele>
        <time>2022-09-29T12:11:45Z</time>
      </trkpt>
      <trkpt lat="46.80169" lon="6.74497">
        <ele>433</ele>
        <time>2022-09-29T12:11:46Z</time>
      </trkpt>
      <trkpt lat="46.80167" lon="6.74501">
        <ele>433</ele>
        <time>2022-09-29T12:11:47Z</time>
      </trkpt>
      <trkpt lat="46.80166" lon="6.74503">
        <ele>433.1</ele>
        <time>2022-09-29T12:11:48Z</time>
      </trkpt>
      <trkpt lat="46.80166" lon="6.74505">
        <ele>433.1</ele>
        <time>2022-09-29T12:11:49Z</time>
      </trkpt>
      <trkpt lat="46.80167" lon="6.74508">
        <ele>433.1</ele>
        <time>2022-09-29T12:11:50Z</time>
      </trkpt>
      <trkpt lat="46.80169" lon="6.74509">
        <ele>433.1</ele>
        <time>2022-09-29T12:11:51Z</time>
      </trkpt>
      <trkpt lat="46.80172" lon="6.74514">
        <ele>433</ele>
        <time>2022-09-29T12:11:52Z</time>
      </trkpt>
      <trkpt lat="46.80177" lon="6.74512">
        <ele>432.9</ele>
        <time>2022-09-29T12:11:53Z</time>
      </trkpt>
      <trkpt lat="46.80182" lon="6.74515">
        <ele>432.9</ele>
        <time>2022-09-29T12:11:54Z</time>
      </trkpt>
      <trkpt lat="46.80184" lon="6.74518">
        <ele>432.8</ele>
        <time>2022-09-29T12:11:55Z</time>
      </trkpt>
      <trkpt lat="46.80187" lon="6.74522">
        <ele>432.8</ele>
        <time>2022-09-29T12:11:56Z</time>
      </trkpt>
      <trkpt lat="46.80191" lon="6.74523">
        <ele>432.7</ele>
        <time>2022-09-29T12:11:57Z</time>
      </trkpt>
      <trkpt lat="46.80193" lon="6.74527">
        <ele>432.7</ele>
        <time>2022-09-29T12:11:58Z</time>
      </trkpt>
      <trkpt lat="46.80193" lon="6.74531">
        <ele>432.6</ele>
        <time>2022-09-29T12:11:59Z</time>
      </trkpt>
      <trkpt lat="46.80194" lon="6.74536">
        <ele>432.6</ele>
        <time>2022-09-29T12:12:00Z</time>
      </trkpt>
      <trkpt lat="46.80194" lon="6.74542">
        <ele>432.5</ele>
        <time>2022-09-29T12:12:01Z</time>
      </trkpt>
      <trkpt lat="46.80193" lon="6.74547">
        <ele>432.4</ele>
        <time>2022-09-29T12:12:02Z</time>
      </trkpt>
      <trkpt lat="46.80192" lon="6.74551">
        <ele>432.4</ele>
        <time>2022-09-29T12:12:03Z</time>
      </trkpt>
      <trkpt lat="46.80191" lon="6.74553">
        <ele>432.3</ele>
        <time>2022-09-29T12:12:04Z</time>
      </trkpt>
      <trkpt lat="46.8019" lon="6.74557">
        <ele>432.3</ele>
        <time>2022-09-29T12:12:05Z</time>
      </trkpt>
      <trkpt lat="46.80191" lon="6.7456">
        <ele>432.3</ele>
        <time>2022-09-29T12:12:06Z</time>
      </trkpt>
      <trkpt lat="46.80188" lon="6.74567">
        <ele>432.2</ele>
        <time>2022-09-29T12:12:07Z</time>
      </trkpt>
      <trkpt lat="46.80186" lon="6.7457">
        <ele>432.2</ele>
        <time>2022-09-29T12:12:08Z</time>
      </trkpt>
      <trkpt lat="46.80185" lon="6.74574">
        <ele>432.2</ele>
        <time>2022-09-29T12:12:09Z</time>
      </trkpt>
      <trkpt lat="46.80183" lon="6.74577">
        <ele>432.2</ele>
        <time>2022-09-29T12:12:10Z</time>
      </trkpt>
      <trkpt lat="46.80181" lon="6.74586">
        <ele>432.1</ele>
        <time>2022-09-29T12:12:11Z</time>
      </trkpt>
      <trkpt lat="46.8018" lon="6.74593">
        <ele>432.1</ele>
        <time>2022-09-29T12:12:12Z</time>
      </trkpt>
      <trkpt lat="46.80178" lon="6.746">
        <ele>432.1</ele>
        <time>2022-09-29T12:12:13Z</time>
      </trkpt>
      <trkpt lat="46.80176" lon="6.74605">
        <ele>432.1</ele>
        <time>2022-09-29T12:12:14Z</time>
      </trkpt>
      <trkpt lat="46.80176" lon="6.7461">
        <ele>432.1</ele>
        <time>2022-09-29T12:12:15Z</time>
      </trkpt>
      <trkpt lat="46.80173" lon="6.74617">
        <ele>432.1</ele>
        <time>2022-09-29T12:12:16Z</time>
      </trkpt>
      <trkpt lat="46.80171" lon="6.74622">
        <ele>432.1</ele>
        <time>2022-09-29T12:12:17Z</time>
      </trkpt>
      <trkpt lat="46.8017" lon="6.74626">
        <ele>432.2</ele>
        <time>2022-09-29T12:12:18Z</time>
      </trkpt>
      <trkpt lat="46.80169" lon="6.74632">
        <ele>432.2</ele>
        <time>2022-09-29T12:12:19Z</time>
      </trkpt>
      <trkpt lat="46.80166" lon="6.74639">
        <ele>432.2</ele>
        <time>2022-09-29T12:12:20Z</time>
      </trkpt>
      <trkpt lat="46.80164" lon="6.74646">
        <ele>432.2</ele>
        <time>2022-09-29T12:12:21Z</time>
      </trkpt>
      <trkpt lat="46.80161" lon="6.74653">
        <ele>432.2</ele>
        <time>2022-09-29T12:12:22Z</time>
      </trkpt>
      <trkpt lat="46.80158" lon="6.74661">
        <ele>432.2</ele>
        <time>2022-09-29T12:12:23Z</time>
      </trkpt>
      <trkpt lat="46.80156" lon="6.74668">
        <ele>432.2</ele>
        <time>2022-09-29T12:12:24Z</time>
      </trkpt>
      <trkpt lat="46.80154" lon="6.74675">
        <ele>432.2</ele>
        <time>2022-09-29T12:12:25Z</time>
      </trkpt>
      <trkpt lat="46.80151" lon="6.74683">
        <ele>432.2</ele>
        <time>2022-09-29T12:12:26Z</time>
      </trkpt>
      <trkpt lat="46.80149" lon="6.7469">
        <ele>432.2</ele>
        <time>2022-09-29T12:12:27Z</time>
      </trkpt>
      <trkpt lat="46.80147" lon="6.74696">
        <ele>432.2</ele>
        <time>2022-09-29T12:12:28Z</time>
      </trkpt>
      <trkpt lat="46.80145" lon="6.74703">
        <ele>432.2</ele>
        <time>2022-09-29T12:12:29Z</time>
      </trkpt>
      <trkpt lat="46.80144" lon="6.74711">
        <ele>432.2</ele>
        <time>2022-09-29T12:12:30Z</time>
      </trkpt>
      <trkpt lat="46.80142" lon="6.74717">
        <ele>432.1</ele>
        <time>2022-09-29T12:12:31Z</time>
      </trkpt>
      <trkpt lat="46.8014" lon="6.74723">
        <ele>432.1</ele>
        <time>2022-09-29T12:12:32Z</time>
      </trkpt>
      <trkpt lat="46.80138" lon="6.7473">
        <ele>432.1</ele>
        <time>2022-09-29T12:12:33Z</time>
      </trkpt>
      <trkpt lat="46.80136" lon="6.74737">
        <ele>432.1</ele>
        <time>2022-09-29T12:12:34Z</time>
      </trkpt>
      <trkpt lat="46.80136" lon="6.74733">
        <ele>432.1</ele>
        <time>2022-09-29T12:12:35Z</time>
      </trkpt>
      <trkpt lat="46.80134" lon="6.74741">
        <ele>432</ele>
        <time>2022-09-29T12:12:36Z</time>
      </trkpt>
      <trkpt lat="46.80132" lon="6.74748">
        <ele>432</ele>
        <time>2022-09-29T12:12:37Z</time>
      </trkpt>
      <trkpt lat="46.80129" lon="6.74756">
        <ele>432</ele>
        <time>2022-09-29T12:12:38Z</time>
      </trkpt>
      <trkpt lat="46.80127" lon="6.74763">
        <ele>432</ele>
        <time>2022-09-29T12:12:39Z</time>
      </trkpt>
      <trkpt lat="46.80125" lon="6.74771">
        <ele>432</ele>
        <time>2022-09-29T12:12:40Z</time>
      </trkpt>
      <trkpt lat="46.80124" lon="6.74777">
        <ele>432</ele>
        <time>2022-09-29T12:12:41Z</time>
      </trkpt>
      <trkpt lat="46.80123" lon="6.74783">
        <ele>432</ele>
        <time>2022-09-29T12:12:42Z</time>
      </trkpt>
      <trkpt lat="46.80122" lon="6.74792">
        <ele>432</ele>
        <time>2022-09-29T12:12:43Z</time>
      </trkpt>
      <trkpt lat="46.8012" lon="6.74799">
        <ele>432</ele>
        <time>2022-09-29T12:12:44Z</time>
      </trkpt>
      <trkpt lat="46.80118" lon="6.74803">
        <ele>432</ele>
        <time>2022-09-29T12:12:45Z</time>
      </trkpt>
      <trkpt lat="46.80117" lon="6.74809">
        <ele>432</ele>
        <time>2022-09-29T12:12:46Z</time>
      </trkpt>
      <trkpt lat="46.80115" lon="6.74814">
        <ele>432</ele>
        <time>2022-09-29T12:12:47Z</time>
      </trkpt>
      <trkpt lat="46.80113" lon="6.7482">
        <ele>432</ele>
        <time>2022-09-29T12:12:48Z</time>
      </trkpt>
      <trkpt lat="46.80112" lon="6.74827">
        <ele>432</ele>
        <time>2022-09-29T12:12:49Z</time>
      </trkpt>
      <trkpt lat="46.80111" lon="6.74832">
        <ele>432</ele>
        <time>2022-09-29T12:12:50Z</time>
      </trkpt>
      <trkpt lat="46.8011" lon="6.74837">
        <ele>432</ele>
        <time>2022-09-29T12:12:51Z</time>
      </trkpt>
      <trkpt lat="46.80109" lon="6.74844">
        <ele>432</ele>
        <time>2022-09-29T12:12:52Z</time>
      </trkpt>
      <trkpt lat="46.80109" lon="6.74849">
        <ele>432</ele>
        <time>2022-09-29T12:12:53Z</time>
      </trkpt>
      <trkpt lat="46.80108" lon="6.74851">
        <ele>432</ele>
        <time>2022-09-29T12:12:54Z</time>
      </trkpt>
      <trkpt lat="46.80105" lon="6.74858">
        <ele>432</ele>
        <time>2022-09-29T12:12:55Z</time>
      </trkpt>
      <trkpt lat="46.80103" lon="6.74863">
        <ele>432</ele>
        <time>2022-09-29T12:12:56Z</time>
      </trkpt>
      <trkpt lat="46.80101" lon="6.74868">
        <ele>432</ele>
        <time>2022-09-29T12:12:57Z</time>
      </trkpt>
      <trkpt lat="46.80099" lon="6.74875">
        <ele>432</ele>
        <time>2022-09-29T12:12:58Z</time>
      </trkpt>
      <trkpt lat="46.80096" lon="6.7488">
        <ele>432</ele>
        <time>2022-09-29T12:12:59Z</time>
      </trkpt>
      <trkpt lat="46.80093" lon="6.74886">
        <ele>432</ele>
        <time>2022-09-29T12:13:00Z</time>
      </trkpt>
      <trkpt lat="46.80092" lon="6.74891">
        <ele>432</ele>
        <time>2022-09-29T12:13:01Z</time>
      </trkpt>
      <trkpt lat="46.8009" lon="6.74896">
        <ele>432.1</ele>
        <time>2022-09-29T12:13:02Z</time>
      </trkpt>
      <trkpt lat="46.80088" lon="6.74903">
        <ele>432.1</ele>
        <time>2022-09-29T12:13:03Z</time>
      </trkpt>
      <trkpt lat="46.80086" lon="6.74909">
        <ele>432.1</ele>
        <time>2022-09-29T12:13:04Z</time>
      </trkpt>
      <trkpt lat="46.80084" lon="6.74914">
        <ele>432.1</ele>
        <time>2022-09-29T12:13:05Z</time>
      </trkpt>
      <trkpt lat="46.80083" lon="6.7492">
        <ele>432.1</ele>
        <time>2022-09-29T12:13:06Z</time>
      </trkpt>
      <trkpt lat="46.80081" lon="6.74927">
        <ele>432.1</ele>
        <time>2022-09-29T12:13:07Z</time>
      </trkpt>
      <trkpt lat="46.80079" lon="6.74935">
        <ele>432.1</ele>
        <time>2022-09-29T12:13:08Z</time>
      </trkpt>
      <trkpt lat="46.80077" lon="6.7494">
        <ele>432.1</ele>
        <time>2022-09-29T12:13:09Z</time>
      </trkpt>
      <trkpt lat="46.80075" lon="6.74946">
        <ele>432.1</ele>
        <time>2022-09-29T12:13:10Z</time>
      </trkpt>
      <trkpt lat="46.80073" lon="6.74954">
        <ele>432.1</ele>
        <time>2022-09-29T12:13:11Z</time>
      </trkpt>
      <trkpt lat="46.80072" lon="6.7496">
        <ele>432.1</ele>
        <time>2022-09-29T12:13:12Z</time>
      </trkpt>
      <trkpt lat="46.8007" lon="6.74964">
        <ele>432.1</ele>
        <time>2022-09-29T12:13:13Z</time>
      </trkpt>
      <trkpt lat="46.80068" lon="6.74971">
        <ele>432.1</ele>
        <time>2022-09-29T12:13:14Z</time>
      </trkpt>
      <trkpt lat="46.80067" lon="6.74977">
        <ele>432.1</ele>
        <time>2022-09-29T12:13:15Z</time>
      </trkpt>
      <trkpt lat="46.80065" lon="6.74981">
        <ele>432.1</ele>
        <time>2022-09-29T12:13:16Z</time>
      </trkpt>
      <trkpt lat="46.80063" lon="6.74986">
        <ele>432.1</ele>
        <time>2022-09-29T12:13:17Z</time>
      </trkpt>
      <trkpt lat="46.80062" lon="6.7499">
        <ele>432.1</ele>
        <time>2022-09-29T12:13:18Z</time>
      </trkpt>
      <trkpt lat="46.80059" lon="6.74999">
        <ele>432</ele>
        <time>2022-09-29T12:13:19Z</time>
      </trkpt>
      <trkpt lat="46.80057" lon="6.75004">
        <ele>432</ele>
        <time>2022-09-29T12:13:20Z</time>
      </trkpt>
      <trkpt lat="46.80056" lon="6.75008">
        <ele>432</ele>
        <time>2022-09-29T12:13:21Z</time>
      </trkpt>
      <trkpt lat="46.80054" lon="6.75013">
        <ele>432</ele>
        <time>2022-09-29T12:13:22Z</time>
      </trkpt>
      <trkpt lat="46.80052" lon="6.75021">
        <ele>432</ele>
        <time>2022-09-29T12:13:23Z</time>
      </trkpt>
      <trkpt lat="46.8005" lon="6.75027">
        <ele>432</ele>
        <time>2022-09-29T12:13:24Z</time>
      </trkpt>
      <trkpt lat="46.80047" lon="6.75034">
        <ele>432</ele>
        <time>2022-09-29T12:13:25Z</time>
      </trkpt>
      <trkpt lat="46.80047" lon="6.75041">
        <ele>432</ele>
        <time>2022-09-29T12:13:26Z</time>
      </trkpt>
      <trkpt lat="46.80045" lon="6.75045">
        <ele>432</ele>
        <time>2022-09-29T12:13:27Z</time>
      </trkpt>
      <trkpt lat="46.80043" lon="6.75051">
        <ele>432</ele>
        <time>2022-09-29T12:13:28Z</time>
      </trkpt>
      <trkpt lat="46.8004" lon="6.75058">
        <ele>432</ele>
        <time>2022-09-29T12:13:29Z</time>
      </trkpt>
      <trkpt lat="46.80038" lon="6.75064">
        <ele>432</ele>
        <time>2022-09-29T12:13:30Z</time>
      </trkpt>
      <trkpt lat="46.80035" lon="6.7507">
        <ele>432.1</ele>
        <time>2022-09-29T12:13:31Z</time>
      </trkpt>
      <trkpt lat="46.80034" lon="6.75077">
        <ele>432.1</ele>
        <time>2022-09-29T12:13:32Z</time>
      </trkpt>
      <trkpt lat="46.80031" lon="6.75083">
        <ele>432.1</ele>
        <time>2022-09-29T12:13:33Z</time>
      </trkpt>
      <trkpt lat="46.8003" lon="6.75089">
        <ele>432.1</ele>
        <time>2022-09-29T12:13:34Z</time>
      </trkpt>
      <trkpt lat="46.80028" lon="6.75096">
        <ele>432.1</ele>
        <time>2022-09-29T12:13:35Z</time>
      </trkpt>
      <trkpt lat="46.80027" lon="6.75101">
        <ele>432.1</ele>
        <time>2022-09-29T12:13:36Z</time>
      </trkpt>
      <trkpt lat="46.80026" lon="6.75107">
        <ele>432.1</ele>
        <time>2022-09-29T12:13:37Z</time>
      </trkpt>
      <trkpt lat="46.80025" lon="6.75113">
        <ele>432.1</ele>
        <time>2022-09-29T12:13:38Z</time>
      </trkpt>
      <trkpt lat="46.80023" lon="6.75119">
        <ele>432.1</ele>
        <time>2022-09-29T12:13:39Z</time>
      </trkpt>
      <trkpt lat="46.80021" lon="6.75126">
        <ele>432.1</ele>
        <time>2022-09-29T12:13:40Z</time>
      </trkpt>
      <trkpt lat="46.80019" lon="6.75134">
        <ele>432.1</ele>
        <time>2022-09-29T12:13:41Z</time>
      </trkpt>
      <trkpt lat="46.80017" lon="6.75139">
        <ele>432.1</ele>
        <time>2022-09-29T12:13:42Z</time>
      </trkpt>
      <trkpt lat="46.80015" lon="6.75145">
        <ele>432.1</ele>
        <time>2022-09-29T12:13:43Z</time>
      </trkpt>
      <trkpt lat="46.80014" lon="6.75153">
        <ele>432.2</ele>
        <time>2022-09-29T12:13:44Z</time>
      </trkpt>
      <trkpt lat="46.80011" lon="6.75161">
        <ele>432.2</ele>
        <time>2022-09-29T12:13:45Z</time>
      </trkpt>
      <trkpt lat="46.8001" lon="6.75168">
        <ele>432.2</ele>
        <time>2022-09-29T12:13:46Z</time>
      </trkpt>
      <trkpt lat="46.80008" lon="6.75175">
        <ele>432.2</ele>
        <time>2022-09-29T12:13:47Z</time>
      </trkpt>
      <trkpt lat="46.80007" lon="6.75182">
        <ele>432.2</ele>
        <time>2022-09-29T12:13:48Z</time>
      </trkpt>
      <trkpt lat="46.80005" lon="6.75188">
        <ele>432.2</ele>
        <time>2022-09-29T12:13:49Z</time>
      </trkpt>
      <trkpt lat="46.80003" lon="6.75195">
        <ele>432.2</ele>
        <time>2022-09-29T12:13:50Z</time>
      </trkpt>
      <trkpt lat="46.80002" lon="6.752">
        <ele>432.2</ele>
        <time>2022-09-29T12:13:51Z</time>
      </trkpt>
      <trkpt lat="46.8" lon="6.75207">
        <ele>432.2</ele>
        <time>2022-09-29T12:13:52Z</time>
      </trkpt>
      <trkpt lat="46.79998" lon="6.75214">
        <ele>432.2</ele>
        <time>2022-09-29T12:13:53Z</time>
      </trkpt>
      <trkpt lat="46.79999" lon="6.7522">
        <ele>432.2</ele>
        <time>2022-09-29T12:13:54Z</time>
      </trkpt>
      <trkpt lat="46.79997" lon="6.75225">
        <ele>432.2</ele>
        <time>2022-09-29T12:13:55Z</time>
      </trkpt>
      <trkpt lat="46.79995" lon="6.75229">
        <ele>432.2</ele>
        <time>2022-09-29T12:13:56Z</time>
      </trkpt>
      <trkpt lat="46.79993" lon="6.75236">
        <ele>432.2</ele>
        <time>2022-09-29T12:13:57Z</time>
      </trkpt>
      <trkpt lat="46.79992" lon="6.75243">
        <ele>432.2</ele>
        <time>2022-09-29T12:13:58Z</time>
      </trkpt>
      <trkpt lat="46.7999" lon="6.75249">
        <ele>432.2</ele>
        <time>2022-09-29T12:13:59Z</time>
      </trkpt>
      <trkpt lat="46.7999" lon="6.75256">
        <ele>432.2</ele>
        <time>2022-09-29T12:14:00Z</time>
      </trkpt>
      <trkpt lat="46.79987" lon="6.75261">
        <ele>432.2</ele>
        <time>2022-09-29T12:14:01Z</time>
      </trkpt>
      <trkpt lat="46.79986" lon="6.75268">
        <ele>432.2</ele>
        <time>2022-09-29T12:14:02Z</time>
      </trkpt>
      <trkpt lat="46.79984" lon="6.75274">
        <ele>432.2</ele>
        <time>2022-09-29T12:14:03Z</time>
      </trkpt>
      <trkpt lat="46.79984" lon="6.75281">
        <ele>432.2</ele>
        <time>2022-09-29T12:14:04Z</time>
      </trkpt>
      <trkpt lat="46.79983" lon="6.75287">
        <ele>432.2</ele>
        <time>2022-09-29T12:14:05Z</time>
      </trkpt>
      <trkpt lat="46.79982" lon="6.75295">
        <ele>432.2</ele>
        <time>2022-09-29T12:14:06Z</time>
      </trkpt>
      <trkpt lat="46.79981" lon="6.75301">
        <ele>432.2</ele>
        <time>2022-09-29T12:14:07Z</time>
      </trkpt>
      <trkpt lat="46.79979" lon="6.75307">
        <ele>432.2</ele>
        <time>2022-09-29T12:14:08Z</time>
      </trkpt>
      <trkpt lat="46.79979" lon="6.75316">
        <ele>432.2</ele>
        <time>2022-09-29T12:14:09Z</time>
      </trkpt>
      <trkpt lat="46.79978" lon="6.7532">
        <ele>432.2</ele>
        <time>2022-09-29T12:14:10Z</time>
      </trkpt>
      <trkpt lat="46.79978" lon="6.75326">
        <ele>432.3</ele>
        <time>2022-09-29T12:14:11Z</time>
      </trkpt>
      <trkpt lat="46.79976" lon="6.75331">
        <ele>432.3</ele>
        <time>2022-09-29T12:14:12Z</time>
      </trkpt>
      <trkpt lat="46.79976" lon="6.75337">
        <ele>432.3</ele>
        <time>2022-09-29T12:14:13Z</time>
      </trkpt>
      <trkpt lat="46.79975" lon="6.75345">
        <ele>432.3</ele>
        <time>2022-09-29T12:14:14Z</time>
      </trkpt>
      <trkpt lat="46.79974" lon="6.75351">
        <ele>432.3</ele>
        <time>2022-09-29T12:14:15Z</time>
      </trkpt>
      <trkpt lat="46.79973" lon="6.75358">
        <ele>432.3</ele>
        <time>2022-09-29T12:14:16Z</time>
      </trkpt>
      <trkpt lat="46.79972" lon="6.75365">
        <ele>432.3</ele>
        <time>2022-09-29T12:14:17Z</time>
      </trkpt>
      <trkpt lat="46.79972" lon="6.75372">
        <ele>432.3</ele>
        <time>2022-09-29T12:14:18Z</time>
      </trkpt>
      <trkpt lat="46.79972" lon="6.75379">
        <ele>432.4</ele>
        <time>2022-09-29T12:14:19Z</time>
      </trkpt>
      <trkpt lat="46.79971" lon="6.75387">
        <ele>432.4</ele>
        <time>2022-09-29T12:14:20Z</time>
      </trkpt>
      <trkpt lat="46.79971" lon="6.75394">
        <ele>432.4</ele>
        <time>2022-09-29T12:14:21Z</time>
      </trkpt>
      <trkpt lat="46.7997" lon="6.75402">
        <ele>432.4</ele>
        <time>2022-09-29T12:14:22Z</time>
      </trkpt>
      <trkpt lat="46.7997" lon="6.75408">
        <ele>432.4</ele>
        <time>2022-09-29T12:14:23Z</time>
      </trkpt>
      <trkpt lat="46.79969" lon="6.75415">
        <ele>432.4</ele>
        <time>2022-09-29T12:14:24Z</time>
      </trkpt>
      <trkpt lat="46.79969" lon="6.7542">
        <ele>432.4</ele>
        <time>2022-09-29T12:14:25Z</time>
      </trkpt>
      <trkpt lat="46.79968" lon="6.75427">
        <ele>432.4</ele>
        <time>2022-09-29T12:14:26Z</time>
      </trkpt>
      <trkpt lat="46.79969" lon="6.75434">
        <ele>432.4</ele>
        <time>2022-09-29T12:14:27Z</time>
      </trkpt>
      <trkpt lat="46.79967" lon="6.75441">
        <ele>432.5</ele>
        <time>2022-09-29T12:14:28Z</time>
      </trkpt>
      <trkpt lat="46.79967" lon="6.75448">
        <ele>432.5</ele>
        <time>2022-09-29T12:14:29Z</time>
      </trkpt>
      <trkpt lat="46.79967" lon="6.75453">
        <ele>432.5</ele>
        <time>2022-09-29T12:14:30Z</time>
      </trkpt>
      <trkpt lat="46.79965" lon="6.75459">
        <ele>432.5</ele>
        <time>2022-09-29T12:14:31Z</time>
      </trkpt>
      <trkpt lat="46.79965" lon="6.75464">
        <ele>432.5</ele>
        <time>2022-09-29T12:14:32Z</time>
      </trkpt>
      <trkpt lat="46.79965" lon="6.75472">
        <ele>432.5</ele>
        <time>2022-09-29T12:14:33Z</time>
      </trkpt>
      <trkpt lat="46.79964" lon="6.75477">
        <ele>432.6</ele>
        <time>2022-09-29T12:14:34Z</time>
      </trkpt>
      <trkpt lat="46.79963" lon="6.75484">
        <ele>432.6</ele>
        <time>2022-09-29T12:14:35Z</time>
      </trkpt>
      <trkpt lat="46.79963" lon="6.7549">
        <ele>432.6</ele>
        <time>2022-09-29T12:14:36Z</time>
      </trkpt>
      <trkpt lat="46.79962" lon="6.75495">
        <ele>432.6</ele>
        <time>2022-09-29T12:14:37Z</time>
      </trkpt>
      <trkpt lat="46.79961" lon="6.75501">
        <ele>432.7</ele>
        <time>2022-09-29T12:14:38Z</time>
      </trkpt>
      <trkpt lat="46.7996" lon="6.75507">
        <ele>432.7</ele>
        <time>2022-09-29T12:14:39Z</time>
      </trkpt>
      <trkpt lat="46.7996" lon="6.75514">
        <ele>432.7</ele>
        <time>2022-09-29T12:14:40Z</time>
      </trkpt>
      <trkpt lat="46.79959" lon="6.7552">
        <ele>432.7</ele>
        <time>2022-09-29T12:14:41Z</time>
      </trkpt>
      <trkpt lat="46.79959" lon="6.75526">
        <ele>432.7</ele>
        <time>2022-09-29T12:14:42Z</time>
      </trkpt>
      <trkpt lat="46.79959" lon="6.75531">
        <ele>432.8</ele>
        <time>2022-09-29T12:14:43Z</time>
      </trkpt>
      <trkpt lat="46.79959" lon="6.75536">
        <ele>432.8</ele>
        <time>2022-09-29T12:14:44Z</time>
      </trkpt>
      <trkpt lat="46.79958" lon="6.75542">
        <ele>432.8</ele>
        <time>2022-09-29T12:14:45Z</time>
      </trkpt>
      <trkpt lat="46.79958" lon="6.75549">
        <ele>432.8</ele>
        <time>2022-09-29T12:14:46Z</time>
      </trkpt>
      <trkpt lat="46.79957" lon="6.75551">
        <ele>432.8</ele>
        <time>2022-09-29T12:14:47Z</time>
      </trkpt>
      <trkpt lat="46.79957" lon="6.75557">
        <ele>432.8</ele>
        <time>2022-09-29T12:14:48Z</time>
      </trkpt>
      <trkpt lat="46.79957" lon="6.75562">
        <ele>432.8</ele>
        <time>2022-09-29T12:14:49Z</time>
      </trkpt>
      <trkpt lat="46.79957" lon="6.7557">
        <ele>432.8</ele>
        <time>2022-09-29T12:14:50Z</time>
      </trkpt>
      <trkpt lat="46.79957" lon="6.75577">
        <ele>432.8</ele>
        <time>2022-09-29T12:14:51Z</time>
      </trkpt>
      <trkpt lat="46.79957" lon="6.75583">
        <ele>432.8</ele>
        <time>2022-09-29T12:14:52Z</time>
      </trkpt>
      <trkpt lat="46.79957" lon="6.7559">
        <ele>432.8</ele>
        <time>2022-09-29T12:14:53Z</time>
      </trkpt>
      <trkpt lat="46.79956" lon="6.75597">
        <ele>432.8</ele>
        <time>2022-09-29T12:14:54Z</time>
      </trkpt>
      <trkpt lat="46.79956" lon="6.75605">
        <ele>432.8</ele>
        <time>2022-09-29T12:14:55Z</time>
      </trkpt>
      <trkpt lat="46.79957" lon="6.75611">
        <ele>432.8</ele>
        <time>2022-09-29T12:14:56Z</time>
      </trkpt>
      <trkpt lat="46.79958" lon="6.75618">
        <ele>432.8</ele>
        <time>2022-09-29T12:14:57Z</time>
      </trkpt>
      <trkpt lat="46.79957" lon="6.75626">
        <ele>432.8</ele>
        <time>2022-09-29T12:14:58Z</time>
      </trkpt>
      <trkpt lat="46.79956" lon="6.75631">
        <ele>432.9</ele>
        <time>2022-09-29T12:14:59Z</time>
      </trkpt>
      <trkpt lat="46.79955" lon="6.75635">
        <ele>432.9</ele>
        <time>2022-09-29T12:15:00Z</time>
      </trkpt>
      <trkpt lat="46.79955" lon="6.75642">
        <ele>432.9</ele>
        <time>2022-09-29T12:15:01Z</time>
      </trkpt>
      <trkpt lat="46.79955" lon="6.75649">
        <ele>432.9</ele>
        <time>2022-09-29T12:15:02Z</time>
      </trkpt>
      <trkpt lat="46.79956" lon="6.75656">
        <ele>432.9</ele>
        <time>2022-09-29T12:15:03Z</time>
      </trkpt>
      <trkpt lat="46.79955" lon="6.75661">
        <ele>432.9</ele>
        <time>2022-09-29T12:15:04Z</time>
      </trkpt>
      <trkpt lat="46.79955" lon="6.75663">
        <ele>432.9</ele>
        <time>2022-09-29T12:15:05Z</time>
      </trkpt>
      <trkpt lat="46.79955" lon="6.75669">
        <ele>432.9</ele>
        <time>2022-09-29T12:15:06Z</time>
      </trkpt>
      <trkpt lat="46.79954" lon="6.75671">
        <ele>432.9</ele>
        <time>2022-09-29T12:15:07Z</time>
      </trkpt>
      <trkpt lat="46.79956" lon="6.75674">
        <ele>432.9</ele>
        <time>2022-09-29T12:15:08Z</time>
      </trkpt>
      <trkpt lat="46.79956" lon="6.75679">
        <ele>432.9</ele>
        <time>2022-09-29T12:15:09Z</time>
      </trkpt>
      <trkpt lat="46.79955" lon="6.75685">
        <ele>433</ele>
        <time>2022-09-29T12:15:10Z</time>
      </trkpt>
      <trkpt lat="46.79955" lon="6.75691">
        <ele>433</ele>
        <time>2022-09-29T12:15:11Z</time>
      </trkpt>
      <trkpt lat="46.79955" lon="6.75696">
        <ele>433</ele>
        <time>2022-09-29T12:15:12Z</time>
      </trkpt>
      <trkpt lat="46.79955" lon="6.75702">
        <ele>433</ele>
        <time>2022-09-29T12:15:13Z</time>
      </trkpt>
      <trkpt lat="46.79956" lon="6.75709">
        <ele>433</ele>
        <time>2022-09-29T12:15:14Z</time>
      </trkpt>
      <trkpt lat="46.79957" lon="6.75716">
        <ele>433</ele>
        <time>2022-09-29T12:15:15Z</time>
      </trkpt>
      <trkpt lat="46.79957" lon="6.75723">
        <ele>433</ele>
        <time>2022-09-29T12:15:16Z</time>
      </trkpt>
      <trkpt lat="46.79957" lon="6.75728">
        <ele>433</ele>
        <time>2022-09-29T12:15:17Z</time>
      </trkpt>
      <trkpt lat="46.79957" lon="6.75732">
        <ele>433</ele>
        <time>2022-09-29T12:15:18Z</time>
      </trkpt>
      <trkpt lat="46.79956" lon="6.75739">
        <ele>433</ele>
        <time>2022-09-29T12:15:19Z</time>
      </trkpt>
      <trkpt lat="46.79956" lon="6.75742">
        <ele>433</ele>
        <time>2022-09-29T12:15:20Z</time>
      </trkpt>
      <trkpt lat="46.79957" lon="6.75747">
        <ele>433</ele>
        <time>2022-09-29T12:15:21Z</time>
      </trkpt>
      <trkpt lat="46.79958" lon="6.75753">
        <ele>433</ele>
        <time>2022-09-29T12:15:22Z</time>
      </trkpt>
      <trkpt lat="46.79959" lon="6.75759">
        <ele>433</ele>
        <time>2022-09-29T12:15:23Z</time>
      </trkpt>
      <trkpt lat="46.7996" lon="6.75765">
        <ele>433</ele>
        <time>2022-09-29T12:15:24Z</time>
      </trkpt>
      <trkpt lat="46.79961" lon="6.75769">
        <ele>432.9</ele>
        <time>2022-09-29T12:15:25Z</time>
      </trkpt>
      <trkpt lat="46.79964" lon="6.75776">
        <ele>432.9</ele>
        <time>2022-09-29T12:15:26Z</time>
      </trkpt>
      <trkpt lat="46.79964" lon="6.75782">
        <ele>432.9</ele>
        <time>2022-09-29T12:15:27Z</time>
      </trkpt>
      <trkpt lat="46.79966" lon="6.75786">
        <ele>432.9</ele>
        <time>2022-09-29T12:15:28Z</time>
      </trkpt>
      <trkpt lat="46.79967" lon="6.75792">
        <ele>432.9</ele>
        <time>2022-09-29T12:15:29Z</time>
      </trkpt>
      <trkpt lat="46.79969" lon="6.75796">
        <ele>432.8</ele>
        <time>2022-09-29T12:15:30Z</time>
      </trkpt>
      <trkpt lat="46.79971" lon="6.75802">
        <ele>432.8</ele>
        <time>2022-09-29T12:15:31Z</time>
      </trkpt>
      <trkpt lat="46.79972" lon="6.75808">
        <ele>432.8</ele>
        <time>2022-09-29T12:15:32Z</time>
      </trkpt>
      <trkpt lat="46.79975" lon="6.75814">
        <ele>432.8</ele>
        <time>2022-09-29T12:15:33Z</time>
      </trkpt>
      <trkpt lat="46.79976" lon="6.7582">
        <ele>432.8</ele>
        <time>2022-09-29T12:15:34Z</time>
      </trkpt>
      <trkpt lat="46.79978" lon="6.75827">
        <ele>432.7</ele>
        <time>2022-09-29T12:15:35Z</time>
      </trkpt>
      <trkpt lat="46.7998" lon="6.75832">
        <ele>432.7</ele>
        <time>2022-09-29T12:15:36Z</time>
      </trkpt>
      <trkpt lat="46.79982" lon="6.75836">
        <ele>432.7</ele>
        <time>2022-09-29T12:15:37Z</time>
      </trkpt>
      <trkpt lat="46.79984" lon="6.75841">
        <ele>432.7</ele>
        <time>2022-09-29T12:15:38Z</time>
      </trkpt>
      <trkpt lat="46.79987" lon="6.75847">
        <ele>432.7</ele>
        <time>2022-09-29T12:15:39Z</time>
      </trkpt>
      <trkpt lat="46.79989" lon="6.75851">
        <ele>432.7</ele>
        <time>2022-09-29T12:15:40Z</time>
      </trkpt>
      <trkpt lat="46.7999" lon="6.75855">
        <ele>432.7</ele>
        <time>2022-09-29T12:15:41Z</time>
      </trkpt>
      <trkpt lat="46.79992" lon="6.75861">
        <ele>432.7</ele>
        <time>2022-09-29T12:15:42Z</time>
      </trkpt>
      <trkpt lat="46.79994" lon="6.75866">
        <ele>432.7</ele>
        <time>2022-09-29T12:15:43Z</time>
      </trkpt>
      <trkpt lat="46.79997" lon="6.75871">
        <ele>432.7</ele>
        <time>2022-09-29T12:15:44Z</time>
      </trkpt>
      <trkpt lat="46.79999" lon="6.75875">
        <ele>432.7</ele>
        <time>2022-09-29T12:15:45Z</time>
      </trkpt>
      <trkpt lat="46.80001" lon="6.75879">
        <ele>432.7</ele>
        <time>2022-09-29T12:15:46Z</time>
      </trkpt>
      <trkpt lat="46.80003" lon="6.75883">
        <ele>432.7</ele>
        <time>2022-09-29T12:15:47Z</time>
      </trkpt>
      <trkpt lat="46.80005" lon="6.75888">
        <ele>432.7</ele>
        <time>2022-09-29T12:15:48Z</time>
      </trkpt>
      <trkpt lat="46.80008" lon="6.75894">
        <ele>432.7</ele>
        <time>2022-09-29T12:15:49Z</time>
      </trkpt>
      <trkpt lat="46.8001" lon="6.75897">
        <ele>432.7</ele>
        <time>2022-09-29T12:15:50Z</time>
      </trkpt>
      <trkpt lat="46.80012" lon="6.75902">
        <ele>432.7</ele>
        <time>2022-09-29T12:15:51Z</time>
      </trkpt>
      <trkpt lat="46.80013" lon="6.75907">
        <ele>432.7</ele>
        <time>2022-09-29T12:15:52Z</time>
      </trkpt>
      <trkpt lat="46.80016" lon="6.75911">
        <ele>432.8</ele>
        <time>2022-09-29T12:15:53Z</time>
      </trkpt>
      <trkpt lat="46.80018" lon="6.75916">
        <ele>432.8</ele>
        <time>2022-09-29T12:15:54Z</time>
      </trkpt>
      <trkpt lat="46.8002" lon="6.75921">
        <ele>432.8</ele>
        <time>2022-09-29T12:15:55Z</time>
      </trkpt>
      <trkpt lat="46.80021" lon="6.75925">
        <ele>432.8</ele>
        <time>2022-09-29T12:15:56Z</time>
      </trkpt>
      <trkpt lat="46.80024" lon="6.75931">
        <ele>432.8</ele>
        <time>2022-09-29T12:15:57Z</time>
      </trkpt>
      <trkpt lat="46.80027" lon="6.75936">
        <ele>432.8</ele>
        <time>2022-09-29T12:15:58Z</time>
      </trkpt>
      <trkpt lat="46.80028" lon="6.7594">
        <ele>432.8</ele>
        <time>2022-09-29T12:15:59Z</time>
      </trkpt>
      <trkpt lat="46.8003" lon="6.75943">
        <ele>432.8</ele>
        <time>2022-09-29T12:16:00Z</time>
      </trkpt>
      <trkpt lat="46.80032" lon="6.75948">
        <ele>432.8</ele>
        <time>2022-09-29T12:16:01Z</time>
      </trkpt>
      <trkpt lat="46.80035" lon="6.75952">
        <ele>432.8</ele>
        <time>2022-09-29T12:16:02Z</time>
      </trkpt>
      <trkpt lat="46.80038" lon="6.75958">
        <ele>432.9</ele>
        <time>2022-09-29T12:16:03Z</time>
      </trkpt>
      <trkpt lat="46.80039" lon="6.75964">
        <ele>432.9</ele>
        <time>2022-09-29T12:16:04Z</time>
      </trkpt>
      <trkpt lat="46.80042" lon="6.75968">
        <ele>432.9</ele>
        <time>2022-09-29T12:16:05Z</time>
      </trkpt>
      <trkpt lat="46.80044" lon="6.75973">
        <ele>432.9</ele>
        <time>2022-09-29T12:16:06Z</time>
      </trkpt>
      <trkpt lat="46.80048" lon="6.75978">
        <ele>432.9</ele>
        <time>2022-09-29T12:16:07Z</time>
      </trkpt>
      <trkpt lat="46.80049" lon="6.75981">
        <ele>432.9</ele>
        <time>2022-09-29T12:16:08Z</time>
      </trkpt>
      <trkpt lat="46.80053" lon="6.75987">
        <ele>432.9</ele>
        <time>2022-09-29T12:16:09Z</time>
      </trkpt>
      <trkpt lat="46.80055" lon="6.75992">
        <ele>432.9</ele>
        <time>2022-09-29T12:16:10Z</time>
      </trkpt>
      <trkpt lat="46.80058" lon="6.75997">
        <ele>432.9</ele>
        <time>2022-09-29T12:16:11Z</time>
      </trkpt>
      <trkpt lat="46.8006" lon="6.76001">
        <ele>432.9</ele>
        <time>2022-09-29T12:16:12Z</time>
      </trkpt>
      <trkpt lat="46.80062" lon="6.76004">
        <ele>432.9</ele>
        <time>2022-09-29T12:16:13Z</time>
      </trkpt>
      <trkpt lat="46.80066" lon="6.76009">
        <ele>432.9</ele>
        <time>2022-09-29T12:16:14Z</time>
      </trkpt>
      <trkpt lat="46.80069" lon="6.76015">
        <ele>432.9</ele>
        <time>2022-09-29T12:16:15Z</time>
      </trkpt>
      <trkpt lat="46.80071" lon="6.76021">
        <ele>432.9</ele>
        <time>2022-09-29T12:16:16Z</time>
      </trkpt>
      <trkpt lat="46.80074" lon="6.76026">
        <ele>432.9</ele>
        <time>2022-09-29T12:16:17Z</time>
      </trkpt>
      <trkpt lat="46.80077" lon="6.76031">
        <ele>432.9</ele>
        <time>2022-09-29T12:16:18Z</time>
      </trkpt>
      <trkpt lat="46.80079" lon="6.76036">
        <ele>432.9</ele>
        <time>2022-09-29T12:16:19Z</time>
      </trkpt>
      <trkpt lat="46.80082" lon="6.7604">
        <ele>432.9</ele>
        <time>2022-09-29T12:16:20Z</time>
      </trkpt>
      <trkpt lat="46.80085" lon="6.76043">
        <ele>433</ele>
        <time>2022-09-29T12:16:21Z</time>
      </trkpt>
      <trkpt lat="46.80087" lon="6.76047">
        <ele>433</ele>
        <time>2022-09-29T12:16:22Z</time>
      </trkpt>
      <trkpt lat="46.80089" lon="6.76051">
        <ele>433</ele>
        <time>2022-09-29T12:16:23Z</time>
      </trkpt>
      <trkpt lat="46.80092" lon="6.76056">
        <ele>433</ele>
        <time>2022-09-29T12:16:24Z</time>
      </trkpt>
      <trkpt lat="46.80095" lon="6.76061">
        <ele>432.9</ele>
        <time>2022-09-29T12:16:25Z</time>
      </trkpt>
      <trkpt lat="46.80097" lon="6.76067">
        <ele>432.9</ele>
        <time>2022-09-29T12:16:26Z</time>
      </trkpt>
      <trkpt lat="46.801" lon="6.76072">
        <ele>432.9</ele>
        <time>2022-09-29T12:16:27Z</time>
      </trkpt>
      <trkpt lat="46.80102" lon="6.76075">
        <ele>432.9</ele>
        <time>2022-09-29T12:16:28Z</time>
      </trkpt>
      <trkpt lat="46.80105" lon="6.76081">
        <ele>432.9</ele>
        <time>2022-09-29T12:16:29Z</time>
      </trkpt>
      <trkpt lat="46.80109" lon="6.76086">
        <ele>432.9</ele>
        <time>2022-09-29T12:16:30Z</time>
      </trkpt>
      <trkpt lat="46.80112" lon="6.76091">
        <ele>432.9</ele>
        <time>2022-09-29T12:16:31Z</time>
      </trkpt>
      <trkpt lat="46.80115" lon="6.76096">
        <ele>432.9</ele>
        <time>2022-09-29T12:16:32Z</time>
      </trkpt>
      <trkpt lat="46.80119" lon="6.76102">
        <ele>432.8</ele>
        <time>2022-09-29T12:16:33Z</time>
      </trkpt>
      <trkpt lat="46.80121" lon="6.76108">
        <ele>432.8</ele>
        <time>2022-09-29T12:16:34Z</time>
      </trkpt>
      <trkpt lat="46.80125" lon="6.76111">
        <ele>432.8</ele>
        <time>2022-09-29T12:16:35Z</time>
      </trkpt>
      <trkpt lat="46.80127" lon="6.76116">
        <ele>432.8</ele>
        <time>2022-09-29T12:16:36Z</time>
      </trkpt>
      <trkpt lat="46.8013" lon="6.76122">
        <ele>432.8</ele>
        <time>2022-09-29T12:16:37Z</time>
      </trkpt>
      <trkpt lat="46.80133" lon="6.76127">
        <ele>432.7</ele>
        <time>2022-09-29T12:16:38Z</time>
      </trkpt>
      <trkpt lat="46.80135" lon="6.76132">
        <ele>432.7</ele>
        <time>2022-09-29T12:16:39Z</time>
      </trkpt>
      <trkpt lat="46.80137" lon="6.76138">
        <ele>432.7</ele>
        <time>2022-09-29T12:16:40Z</time>
      </trkpt>
      <trkpt lat="46.80141" lon="6.76144">
        <ele>432.7</ele>
        <time>2022-09-29T12:16:41Z</time>
      </trkpt>
      <trkpt lat="46.80144" lon="6.76148">
        <ele>432.7</ele>
        <time>2022-09-29T12:16:42Z</time>
      </trkpt>
      <trkpt lat="46.80147" lon="6.76153">
        <ele>432.7</ele>
        <time>2022-09-29T12:16:43Z</time>
      </trkpt>
      <trkpt lat="46.80151" lon="6.76159">
        <ele>432.7</ele>
        <time>2022-09-29T12:16:44Z</time>
      </trkpt>
      <trkpt lat="46.80153" lon="6.76164">
        <ele>432.7</ele>
        <time>2022-09-29T12:16:45Z</time>
      </trkpt>
      <trkpt lat="46.80157" lon="6.76168">
        <ele>432.7</ele>
        <time>2022-09-29T12:16:46Z</time>
      </trkpt>
      <trkpt lat="46.80159" lon="6.76173">
        <ele>432.7</ele>
        <time>2022-09-29T12:16:47Z</time>
      </trkpt>
      <trkpt lat="46.80163" lon="6.76178">
        <ele>432.7</ele>
        <time>2022-09-29T12:16:48Z</time>
      </trkpt>
      <trkpt lat="46.80166" lon="6.76182">
        <ele>432.7</ele>
        <time>2022-09-29T12:16:49Z</time>
      </trkpt>
      <trkpt lat="46.80168" lon="6.76187">
        <ele>432.7</ele>
        <time>2022-09-29T12:16:50Z</time>
      </trkpt>
      <trkpt lat="46.8017" lon="6.7619">
        <ele>432.7</ele>
        <time>2022-09-29T12:16:51Z</time>
      </trkpt>
      <trkpt lat="46.80172" lon="6.76194">
        <ele>432.6</ele>
        <time>2022-09-29T12:16:52Z</time>
      </trkpt>
      <trkpt lat="46.80175" lon="6.76198">
        <ele>432.6</ele>
        <time>2022-09-29T12:16:53Z</time>
      </trkpt>
      <trkpt lat="46.80178" lon="6.762">
        <ele>432.6</ele>
        <time>2022-09-29T12:16:54Z</time>
      </trkpt>
      <trkpt lat="46.80181" lon="6.76205">
        <ele>432.6</ele>
        <time>2022-09-29T12:16:55Z</time>
      </trkpt>
      <trkpt lat="46.80183" lon="6.76209">
        <ele>432.6</ele>
        <time>2022-09-29T12:16:56Z</time>
      </trkpt>
      <trkpt lat="46.80184" lon="6.76211">
        <ele>432.6</ele>
        <time>2022-09-29T12:16:57Z</time>
      </trkpt>
      <trkpt lat="46.80186" lon="6.76217">
        <ele>432.6</ele>
        <time>2022-09-29T12:16:58Z</time>
      </trkpt>
      <trkpt lat="46.80189" lon="6.76221">
        <ele>432.6</ele>
        <time>2022-09-29T12:16:59Z</time>
      </trkpt>
      <trkpt lat="46.80191" lon="6.76223">
        <ele>432.6</ele>
        <time>2022-09-29T12:17:00Z</time>
      </trkpt>
      <trkpt lat="46.80193" lon="6.76227">
        <ele>432.6</ele>
        <time>2022-09-29T12:17:01Z</time>
      </trkpt>
      <trkpt lat="46.80197" lon="6.7623">
        <ele>432.6</ele>
        <time>2022-09-29T12:17:02Z</time>
      </trkpt>
      <trkpt lat="46.802" lon="6.76235">
        <ele>432.6</ele>
        <time>2022-09-29T12:17:03Z</time>
      </trkpt>
      <trkpt lat="46.80203" lon="6.76238">
        <ele>432.6</ele>
        <time>2022-09-29T12:17:04Z</time>
      </trkpt>
      <trkpt lat="46.80206" lon="6.76243">
        <ele>432.6</ele>
        <time>2022-09-29T12:17:05Z</time>
      </trkpt>
      <trkpt lat="46.80208" lon="6.76248">
        <ele>432.6</ele>
        <time>2022-09-29T12:17:06Z</time>
      </trkpt>
      <trkpt lat="46.80211" lon="6.76253">
        <ele>432.6</ele>
        <time>2022-09-29T12:17:07Z</time>
      </trkpt>
      <trkpt lat="46.80213" lon="6.76257">
        <ele>432.6</ele>
        <time>2022-09-29T12:17:08Z</time>
      </trkpt>
      <trkpt lat="46.80216" lon="6.76264">
        <ele>432.6</ele>
        <time>2022-09-29T12:17:09Z</time>
      </trkpt>
      <trkpt lat="46.80218" lon="6.76268">
        <ele>432.6</ele>
        <time>2022-09-29T12:17:10Z</time>
      </trkpt>
      <trkpt lat="46.80221" lon="6.76271">
        <ele>432.6</ele>
        <time>2022-09-29T12:17:11Z</time>
      </trkpt>
      <trkpt lat="46.80225" lon="6.76276">
        <ele>432.6</ele>
        <time>2022-09-29T12:17:12Z</time>
      </trkpt>
      <trkpt lat="46.80228" lon="6.76282">
        <ele>432.6</ele>
        <time>2022-09-29T12:17:13Z</time>
      </trkpt>
      <trkpt lat="46.80231" lon="6.76285">
        <ele>432.6</ele>
        <time>2022-09-29T12:17:14Z</time>
      </trkpt>
      <trkpt lat="46.80235" lon="6.7629">
        <ele>432.6</ele>
        <time>2022-09-29T12:17:15Z</time>
      </trkpt>
      <trkpt lat="46.80237" lon="6.76295">
        <ele>432.6</ele>
        <time>2022-09-29T12:17:16Z</time>
      </trkpt>
      <trkpt lat="46.8024" lon="6.76299">
        <ele>432.6</ele>
        <time>2022-09-29T12:17:17Z</time>
      </trkpt>
      <trkpt lat="46.80242" lon="6.76302">
        <ele>432.7</ele>
        <time>2022-09-29T12:17:18Z</time>
      </trkpt>
      <trkpt lat="46.80244" lon="6.76306">
        <ele>432.7</ele>
        <time>2022-09-29T12:17:19Z</time>
      </trkpt>
      <trkpt lat="46.80247" lon="6.76312">
        <ele>432.7</ele>
        <time>2022-09-29T12:17:20Z</time>
      </trkpt>
      <trkpt lat="46.80249" lon="6.76315">
        <ele>432.7</ele>
        <time>2022-09-29T12:17:21Z</time>
      </trkpt>
      <trkpt lat="46.80252" lon="6.76319">
        <ele>432.7</ele>
        <time>2022-09-29T12:17:22Z</time>
      </trkpt>
      <trkpt lat="46.80254" lon="6.76322">
        <ele>432.8</ele>
        <time>2022-09-29T12:17:23Z</time>
      </trkpt>
      <trkpt lat="46.80257" lon="6.76328">
        <ele>432.8</ele>
        <time>2022-09-29T12:17:24Z</time>
      </trkpt>
      <trkpt lat="46.80259" lon="6.76332">
        <ele>432.8</ele>
        <time>2022-09-29T12:17:25Z</time>
      </trkpt>
      <trkpt lat="46.80262" lon="6.76335">
        <ele>432.8</ele>
        <time>2022-09-29T12:17:26Z</time>
      </trkpt>
      <trkpt lat="46.80265" lon="6.76339">
        <ele>432.9</ele>
        <time>2022-09-29T12:17:27Z</time>
      </trkpt>
      <trkpt lat="46.80266" lon="6.7634">
        <ele>432.9</ele>
        <time>2022-09-29T12:17:28Z</time>
      </trkpt>
      <trkpt lat="46.80268" lon="6.76345">
        <ele>432.9</ele>
        <time>2022-09-29T12:17:29Z</time>
      </trkpt>
      <trkpt lat="46.80271" lon="6.7635">
        <ele>433</ele>
        <time>2022-09-29T12:17:30Z</time>
      </trkpt>
      <trkpt lat="46.80274" lon="6.76356">
        <ele>433.1</ele>
        <time>2022-09-29T12:17:31Z</time>
      </trkpt>
      <trkpt lat="46.80276" lon="6.7636">
        <ele>433.1</ele>
        <time>2022-09-29T12:17:32Z</time>
      </trkpt>
      <trkpt lat="46.80279" lon="6.76364">
        <ele>433.3</ele>
        <time>2022-09-29T12:17:33Z</time>
      </trkpt>
      <trkpt lat="46.80282" lon="6.76367">
        <ele>433.3</ele>
        <time>2022-09-29T12:17:34Z</time>
      </trkpt>
      <trkpt lat="46.80284" lon="6.7637">
        <ele>433.4</ele>
        <time>2022-09-29T12:17:35Z</time>
      </trkpt>
      <trkpt lat="46.80286" lon="6.76373">
        <ele>433.5</ele>
        <time>2022-09-29T12:17:36Z</time>
      </trkpt>
      <trkpt lat="46.80288" lon="6.76377">
        <ele>433.6</ele>
        <time>2022-09-29T12:17:37Z</time>
      </trkpt>
      <trkpt lat="46.8029" lon="6.7638">
        <ele>433.7</ele>
        <time>2022-09-29T12:17:38Z</time>
      </trkpt>
      <trkpt lat="46.80292" lon="6.76384">
        <ele>433.8</ele>
        <time>2022-09-29T12:17:39Z</time>
      </trkpt>
      <trkpt lat="46.80294" lon="6.76386">
        <ele>433.9</ele>
        <time>2022-09-29T12:17:40Z</time>
      </trkpt>
      <trkpt lat="46.80298" lon="6.7639">
        <ele>434</ele>
        <time>2022-09-29T12:17:41Z</time>
      </trkpt>
      <trkpt lat="46.803" lon="6.76392">
        <ele>434.1</ele>
        <time>2022-09-29T12:17:42Z</time>
      </trkpt>
      <trkpt lat="46.80302" lon="6.76397">
        <ele>434.1</ele>
        <time>2022-09-29T12:17:43Z</time>
      </trkpt>
      <trkpt lat="46.80304" lon="6.76401">
        <ele>434.2</ele>
        <time>2022-09-29T12:17:44Z</time>
      </trkpt>
      <trkpt lat="46.80307" lon="6.76405">
        <ele>434.2</ele>
        <time>2022-09-29T12:17:45Z</time>
      </trkpt>
      <trkpt lat="46.8031" lon="6.7641">
        <ele>434.1</ele>
        <time>2022-09-29T12:17:46Z</time>
      </trkpt>
      <trkpt lat="46.80313" lon="6.76414">
        <ele>434</ele>
        <time>2022-09-29T12:17:47Z</time>
      </trkpt>
      <trkpt lat="46.80316" lon="6.76418">
        <ele>433.9</ele>
        <time>2022-09-29T12:17:48Z</time>
      </trkpt>
      <trkpt lat="46.80319" lon="6.76424">
        <ele>433.8</ele>
        <time>2022-09-29T12:17:49Z</time>
      </trkpt>
      <trkpt lat="46.80321" lon="6.76429">
        <ele>433.6</ele>
        <time>2022-09-29T12:17:50Z</time>
      </trkpt>
      <trkpt lat="46.80324" lon="6.76433">
        <ele>433.5</ele>
        <time>2022-09-29T12:17:51Z</time>
      </trkpt>
      <trkpt lat="46.80327" lon="6.76439">
        <ele>433.3</ele>
        <time>2022-09-29T12:17:52Z</time>
      </trkpt>
      <trkpt lat="46.8033" lon="6.76443">
        <ele>433.2</ele>
        <time>2022-09-29T12:17:53Z</time>
      </trkpt>
      <trkpt lat="46.80333" lon="6.76447">
        <ele>433.1</ele>
        <time>2022-09-29T12:17:54Z</time>
      </trkpt>
      <trkpt lat="46.80336" lon="6.76452">
        <ele>432.9</ele>
        <time>2022-09-29T12:17:55Z</time>
      </trkpt>
      <trkpt lat="46.8034" lon="6.76458">
        <ele>432.8</ele>
        <time>2022-09-29T12:17:56Z</time>
      </trkpt>
      <trkpt lat="46.80343" lon="6.76464">
        <ele>432.7</ele>
        <time>2022-09-29T12:17:57Z</time>
      </trkpt>
      <trkpt lat="46.80346" lon="6.7647">
        <ele>432.6</ele>
        <time>2022-09-29T12:17:58Z</time>
      </trkpt>
      <trkpt lat="46.80348" lon="6.76474">
        <ele>432.5</ele>
        <time>2022-09-29T12:17:59Z</time>
      </trkpt>
      <trkpt lat="46.80351" lon="6.76479">
        <ele>432.5</ele>
        <time>2022-09-29T12:18:00Z</time>
      </trkpt>
      <trkpt lat="46.80354" lon="6.76484">
        <ele>432.5</ele>
        <time>2022-09-29T12:18:01Z</time>
      </trkpt>
      <trkpt lat="46.80357" lon="6.76489">
        <ele>432.4</ele>
        <time>2022-09-29T12:18:02Z</time>
      </trkpt>
      <trkpt lat="46.8036" lon="6.76493">
        <ele>432.4</ele>
        <time>2022-09-29T12:18:03Z</time>
      </trkpt>
      <trkpt lat="46.80362" lon="6.76496">
        <ele>432.4</ele>
        <time>2022-09-29T12:18:04Z</time>
      </trkpt>
      <trkpt lat="46.80365" lon="6.76501">
        <ele>432.3</ele>
        <time>2022-09-29T12:18:05Z</time>
      </trkpt>
      <trkpt lat="46.80368" lon="6.76505">
        <ele>432.3</ele>
        <time>2022-09-29T12:18:06Z</time>
      </trkpt>
      <trkpt lat="46.80371" lon="6.76509">
        <ele>432.3</ele>
        <time>2022-09-29T12:18:07Z</time>
      </trkpt>
      <trkpt lat="46.80373" lon="6.76514">
        <ele>432.3</ele>
        <time>2022-09-29T12:18:08Z</time>
      </trkpt>
      <trkpt lat="46.80377" lon="6.76518">
        <ele>432.3</ele>
        <time>2022-09-29T12:18:09Z</time>
      </trkpt>
      <trkpt lat="46.80379" lon="6.76522">
        <ele>432.3</ele>
        <time>2022-09-29T12:18:10Z</time>
      </trkpt>
      <trkpt lat="46.80382" lon="6.76526">
        <ele>432.2</ele>
        <time>2022-09-29T12:18:11Z</time>
      </trkpt>
      <trkpt lat="46.80385" lon="6.7653">
        <ele>432.2</ele>
        <time>2022-09-29T12:18:12Z</time>
      </trkpt>
      <trkpt lat="46.80387" lon="6.76534">
        <ele>432.3</ele>
        <time>2022-09-29T12:18:13Z</time>
      </trkpt>
      <trkpt lat="46.80389" lon="6.76537">
        <ele>432.3</ele>
        <time>2022-09-29T12:18:14Z</time>
      </trkpt>
      <trkpt lat="46.80392" lon="6.76541">
        <ele>432.3</ele>
        <time>2022-09-29T12:18:15Z</time>
      </trkpt>
      <trkpt lat="46.80395" lon="6.76546">
        <ele>432.3</ele>
        <time>2022-09-29T12:18:16Z</time>
      </trkpt>
      <trkpt lat="46.80397" lon="6.7655">
        <ele>432.3</ele>
        <time>2022-09-29T12:18:17Z</time>
      </trkpt>
      <trkpt lat="46.804" lon="6.76554">
        <ele>432.3</ele>
        <time>2022-09-29T12:18:18Z</time>
      </trkpt>
      <trkpt lat="46.80402" lon="6.76559">
        <ele>432.3</ele>
        <time>2022-09-29T12:18:19Z</time>
      </trkpt>
      <trkpt lat="46.80405" lon="6.76563">
        <ele>432.3</ele>
        <time>2022-09-29T12:18:20Z</time>
      </trkpt>
      <trkpt lat="46.80408" lon="6.76568">
        <ele>432.3</ele>
        <time>2022-09-29T12:18:21Z</time>
      </trkpt>
      <trkpt lat="46.8041" lon="6.76571">
        <ele>432.3</ele>
        <time>2022-09-29T12:18:22Z</time>
      </trkpt>
      <trkpt lat="46.80414" lon="6.76576">
        <ele>432.2</ele>
        <time>2022-09-29T12:18:23Z</time>
      </trkpt>
      <trkpt lat="46.80417" lon="6.7658">
        <ele>432.2</ele>
        <time>2022-09-29T12:18:24Z</time>
      </trkpt>
      <trkpt lat="46.80419" lon="6.76585">
        <ele>432.2</ele>
        <time>2022-09-29T12:18:25Z</time>
      </trkpt>
      <trkpt lat="46.80422" lon="6.7659">
        <ele>432.2</ele>
        <time>2022-09-29T12:18:26Z</time>
      </trkpt>
      <trkpt lat="46.80425" lon="6.76595">
        <ele>432.2</ele>
        <time>2022-09-29T12:18:27Z</time>
      </trkpt>
      <trkpt lat="46.80427" lon="6.766">
        <ele>432.2</ele>
        <time>2022-09-29T12:18:28Z</time>
      </trkpt>
      <trkpt lat="46.8043" lon="6.76604">
        <ele>432.3</ele>
        <time>2022-09-29T12:18:29Z</time>
      </trkpt>
      <trkpt lat="46.80434" lon="6.76609">
        <ele>432.3</ele>
        <time>2022-09-29T12:18:30Z</time>
      </trkpt>
      <trkpt lat="46.80436" lon="6.76613">
        <ele>432.3</ele>
        <time>2022-09-29T12:18:31Z</time>
      </trkpt>
      <trkpt lat="46.80439" lon="6.76617">
        <ele>432.3</ele>
        <time>2022-09-29T12:18:32Z</time>
      </trkpt>
      <trkpt lat="46.80442" lon="6.76621">
        <ele>432.3</ele>
        <time>2022-09-29T12:18:33Z</time>
      </trkpt>
      <trkpt lat="46.80444" lon="6.76624">
        <ele>432.3</ele>
        <time>2022-09-29T12:18:34Z</time>
      </trkpt>
      <trkpt lat="46.80447" lon="6.76628">
        <ele>432.3</ele>
        <time>2022-09-29T12:18:35Z</time>
      </trkpt>
      <trkpt lat="46.80449" lon="6.76631">
        <ele>432.3</ele>
        <time>2022-09-29T12:18:36Z</time>
      </trkpt>
      <trkpt lat="46.80452" lon="6.76635">
        <ele>432.3</ele>
        <time>2022-09-29T12:18:37Z</time>
      </trkpt>
      <trkpt lat="46.80454" lon="6.7664">
        <ele>432.3</ele>
        <time>2022-09-29T12:18:38Z</time>
      </trkpt>
      <trkpt lat="46.80456" lon="6.76643">
        <ele>432.3</ele>
        <time>2022-09-29T12:18:39Z</time>
      </trkpt>
      <trkpt lat="46.80457" lon="6.76644">
        <ele>432.3</ele>
        <time>2022-09-29T12:18:40Z</time>
      </trkpt>
      <trkpt lat="46.80458" lon="6.76647">
        <ele>432.3</ele>
        <time>2022-09-29T12:18:41Z</time>
      </trkpt>
      <trkpt lat="46.80459" lon="6.76648">
        <ele>432.3</ele>
        <time>2022-09-29T12:18:42Z</time>
      </trkpt>
      <trkpt lat="46.80462" lon="6.76651">
        <ele>432.3</ele>
        <time>2022-09-29T12:18:43Z</time>
      </trkpt>
      <trkpt lat="46.80462" lon="6.76652">
        <ele>432.3</ele>
        <time>2022-09-29T12:18:44Z</time>
      </trkpt>
      <trkpt lat="46.80464" lon="6.76656">
        <ele>432.3</ele>
        <time>2022-09-29T12:18:45Z</time>
      </trkpt>
      <trkpt lat="46.80465" lon="6.76658">
        <ele>432.3</ele>
        <time>2022-09-29T12:18:46Z</time>
      </trkpt>
      <trkpt lat="46.80468" lon="6.76662">
        <ele>432.3</ele>
        <time>2022-09-29T12:18:47Z</time>
      </trkpt>
      <trkpt lat="46.80469" lon="6.76664">
        <ele>432.3</ele>
        <time>2022-09-29T12:18:48Z</time>
      </trkpt>
      <trkpt lat="46.80471" lon="6.76668">
        <ele>432.3</ele>
        <time>2022-09-29T12:18:49Z</time>
      </trkpt>
      <trkpt lat="46.80474" lon="6.76672">
        <ele>432.3</ele>
        <time>2022-09-29T12:18:50Z</time>
      </trkpt>
      <trkpt lat="46.80477" lon="6.76676">
        <ele>432.3</ele>
        <time>2022-09-29T12:18:51Z</time>
      </trkpt>
      <trkpt lat="46.80479" lon="6.7668">
        <ele>432.3</ele>
        <time>2022-09-29T12:18:52Z</time>
      </trkpt>
      <trkpt lat="46.80481" lon="6.76684">
        <ele>432.3</ele>
        <time>2022-09-29T12:18:53Z</time>
      </trkpt>
      <trkpt lat="46.80483" lon="6.76688">
        <ele>432.3</ele>
        <time>2022-09-29T12:18:54Z</time>
      </trkpt>
      <trkpt lat="46.80486" lon="6.76691">
        <ele>432.3</ele>
        <time>2022-09-29T12:18:55Z</time>
      </trkpt>
      <trkpt lat="46.80489" lon="6.76695">
        <ele>432.3</ele>
        <time>2022-09-29T12:18:56Z</time>
      </trkpt>
      <trkpt lat="46.80491" lon="6.76699">
        <ele>432.3</ele>
        <time>2022-09-29T12:18:57Z</time>
      </trkpt>
      <trkpt lat="46.80494" lon="6.76702">
        <ele>432.3</ele>
        <time>2022-09-29T12:18:58Z</time>
      </trkpt>
      <trkpt lat="46.80496" lon="6.76707">
        <ele>432.3</ele>
        <time>2022-09-29T12:18:59Z</time>
      </trkpt>
      <trkpt lat="46.80499" lon="6.7671">
        <ele>432.3</ele>
        <time>2022-09-29T12:19:00Z</time>
      </trkpt>
      <trkpt lat="46.80502" lon="6.76715">
        <ele>432.3</ele>
        <time>2022-09-29T12:19:01Z</time>
      </trkpt>
      <trkpt lat="46.80505" lon="6.76719">
        <ele>432.3</ele>
        <time>2022-09-29T12:19:02Z</time>
      </trkpt>
      <trkpt lat="46.80508" lon="6.76724">
        <ele>432.3</ele>
        <time>2022-09-29T12:19:03Z</time>
      </trkpt>
      <trkpt lat="46.8051" lon="6.76727">
        <ele>432.3</ele>
        <time>2022-09-29T12:19:04Z</time>
      </trkpt>
      <trkpt lat="46.80513" lon="6.76732">
        <ele>432.2</ele>
        <time>2022-09-29T12:19:05Z</time>
      </trkpt>
      <trkpt lat="46.80516" lon="6.76737">
        <ele>432.2</ele>
        <time>2022-09-29T12:19:06Z</time>
      </trkpt>
      <trkpt lat="46.80519" lon="6.76741">
        <ele>432.2</ele>
        <time>2022-09-29T12:19:07Z</time>
      </trkpt>
      <trkpt lat="46.80521" lon="6.76744">
        <ele>432.2</ele>
        <time>2022-09-29T12:19:08Z</time>
      </trkpt>
      <trkpt lat="46.80524" lon="6.76748">
        <ele>432.2</ele>
        <time>2022-09-29T12:19:09Z</time>
      </trkpt>
      <trkpt lat="46.80526" lon="6.76753">
        <ele>432.2</ele>
        <time>2022-09-29T12:19:10Z</time>
      </trkpt>
      <trkpt lat="46.80528" lon="6.76756">
        <ele>432.2</ele>
        <time>2022-09-29T12:19:11Z</time>
      </trkpt>
      <trkpt lat="46.8053" lon="6.7676">
        <ele>432.2</ele>
        <time>2022-09-29T12:19:12Z</time>
      </trkpt>
      <trkpt lat="46.80534" lon="6.76764">
        <ele>432.2</ele>
        <time>2022-09-29T12:19:13Z</time>
      </trkpt>
      <trkpt lat="46.80536" lon="6.76769">
        <ele>432.2</ele>
        <time>2022-09-29T12:19:14Z</time>
      </trkpt>
      <trkpt lat="46.80539" lon="6.76773">
        <ele>432.2</ele>
        <time>2022-09-29T12:19:15Z</time>
      </trkpt>
      <trkpt lat="46.80541" lon="6.76776">
        <ele>432.3</ele>
        <time>2022-09-29T12:19:16Z</time>
      </trkpt>
      <trkpt lat="46.80544" lon="6.76779">
        <ele>432.3</ele>
        <time>2022-09-29T12:19:17Z</time>
      </trkpt>
      <trkpt lat="46.80547" lon="6.76784">
        <ele>432.3</ele>
        <time>2022-09-29T12:19:18Z</time>
      </trkpt>
      <trkpt lat="46.8055" lon="6.76788">
        <ele>432.3</ele>
        <time>2022-09-29T12:19:19Z</time>
      </trkpt>
      <trkpt lat="46.80553" lon="6.76793">
        <ele>432.3</ele>
        <time>2022-09-29T12:19:20Z</time>
      </trkpt>
      <trkpt lat="46.80555" lon="6.76796">
        <ele>432.3</ele>
        <time>2022-09-29T12:19:21Z</time>
      </trkpt>
      <trkpt lat="46.80558" lon="6.76799">
        <ele>432.3</ele>
        <time>2022-09-29T12:19:22Z</time>
      </trkpt>
      <trkpt lat="46.80561" lon="6.76803">
        <ele>432.3</ele>
        <time>2022-09-29T12:19:23Z</time>
      </trkpt>
      <trkpt lat="46.80563" lon="6.76807">
        <ele>432.3</ele>
        <time>2022-09-29T12:19:24Z</time>
      </trkpt>
      <trkpt lat="46.80565" lon="6.76812">
        <ele>432.4</ele>
        <time>2022-09-29T12:19:25Z</time>
      </trkpt>
      <trkpt lat="46.80568" lon="6.76816">
        <ele>432.4</ele>
        <time>2022-09-29T12:19:26Z</time>
      </trkpt>
      <trkpt lat="46.80571" lon="6.7682">
        <ele>432.4</ele>
        <time>2022-09-29T12:19:27Z</time>
      </trkpt>
      <trkpt lat="46.80573" lon="6.76825">
        <ele>432.4</ele>
        <time>2022-09-29T12:19:28Z</time>
      </trkpt>
      <trkpt lat="46.80577" lon="6.76829">
        <ele>432.4</ele>
        <time>2022-09-29T12:19:29Z</time>
      </trkpt>
      <trkpt lat="46.8058" lon="6.76834">
        <ele>432.4</ele>
        <time>2022-09-29T12:19:30Z</time>
      </trkpt>
      <trkpt lat="46.80582" lon="6.76838">
        <ele>432.4</ele>
        <time>2022-09-29T12:19:31Z</time>
      </trkpt>
      <trkpt lat="46.80585" lon="6.76843">
        <ele>432.4</ele>
        <time>2022-09-29T12:19:32Z</time>
      </trkpt>
      <trkpt lat="46.80588" lon="6.76848">
        <ele>432.4</ele>
        <time>2022-09-29T12:19:33Z</time>
      </trkpt>
      <trkpt lat="46.80591" lon="6.76853">
        <ele>432.4</ele>
        <time>2022-09-29T12:19:34Z</time>
      </trkpt>
      <trkpt lat="46.80594" lon="6.76857">
        <ele>432.3</ele>
        <time>2022-09-29T12:19:35Z</time>
      </trkpt>
      <trkpt lat="46.80597" lon="6.76861">
        <ele>432.3</ele>
        <time>2022-09-29T12:19:36Z</time>
      </trkpt>
      <trkpt lat="46.80599" lon="6.76865">
        <ele>432.3</ele>
        <time>2022-09-29T12:19:37Z</time>
      </trkpt>
      <trkpt lat="46.80602" lon="6.76869">
        <ele>432.3</ele>
        <time>2022-09-29T12:19:38Z</time>
      </trkpt>
      <trkpt lat="46.80605" lon="6.76873">
        <ele>432.3</ele>
        <time>2022-09-29T12:19:39Z</time>
      </trkpt>
      <trkpt lat="46.80608" lon="6.76877">
        <ele>432.3</ele>
        <time>2022-09-29T12:19:40Z</time>
      </trkpt>
      <trkpt lat="46.80611" lon="6.76882">
        <ele>432.3</ele>
        <time>2022-09-29T12:19:41Z</time>
      </trkpt>
      <trkpt lat="46.80614" lon="6.76887">
        <ele>432.2</ele>
        <time>2022-09-29T12:19:42Z</time>
      </trkpt>
      <trkpt lat="46.80617" lon="6.76891">
        <ele>432.2</ele>
        <time>2022-09-29T12:19:43Z</time>
      </trkpt>
      <trkpt lat="46.8062" lon="6.76896">
        <ele>432.2</ele>
        <time>2022-09-29T12:19:44Z</time>
      </trkpt>
      <trkpt lat="46.80623" lon="6.76901">
        <ele>432.2</ele>
        <time>2022-09-29T12:19:45Z</time>
      </trkpt>
      <trkpt lat="46.80625" lon="6.76904">
        <ele>432.2</ele>
        <time>2022-09-29T12:19:46Z</time>
      </trkpt>
      <trkpt lat="46.80628" lon="6.76907">
        <ele>432.2</ele>
        <time>2022-09-29T12:19:47Z</time>
      </trkpt>
      <trkpt lat="46.80631" lon="6.76912">
        <ele>432.2</ele>
        <time>2022-09-29T12:19:48Z</time>
      </trkpt>
      <trkpt lat="46.80633" lon="6.76917">
        <ele>432.2</ele>
        <time>2022-09-29T12:19:49Z</time>
      </trkpt>
      <trkpt lat="46.80636" lon="6.76922">
        <ele>432.2</ele>
        <time>2022-09-29T12:19:50Z</time>
      </trkpt>
      <trkpt lat="46.80639" lon="6.76926">
        <ele>432.2</ele>
        <time>2022-09-29T12:19:51Z</time>
      </trkpt>
      <trkpt lat="46.80642" lon="6.7693">
        <ele>432.2</ele>
        <time>2022-09-29T12:19:52Z</time>
      </trkpt>
      <trkpt lat="46.80645" lon="6.76933">
        <ele>432.2</ele>
        <time>2022-09-29T12:19:53Z</time>
      </trkpt>
      <trkpt lat="46.80648" lon="6.76937">
        <ele>432.2</ele>
        <time>2022-09-29T12:19:54Z</time>
      </trkpt>
      <trkpt lat="46.8065" lon="6.76939">
        <ele>432.2</ele>
        <time>2022-09-29T12:19:55Z</time>
      </trkpt>
      <trkpt lat="46.80653" lon="6.76944">
        <ele>432.2</ele>
        <time>2022-09-29T12:19:56Z</time>
      </trkpt>
      <trkpt lat="46.80655" lon="6.76949">
        <ele>432.2</ele>
        <time>2022-09-29T12:19:57Z</time>
      </trkpt>
      <trkpt lat="46.80657" lon="6.76955">
        <ele>432.2</ele>
        <time>2022-09-29T12:19:58Z</time>
      </trkpt>
      <trkpt lat="46.80659" lon="6.76959">
        <ele>432.2</ele>
        <time>2022-09-29T12:19:59Z</time>
      </trkpt>
      <trkpt lat="46.80661" lon="6.76964">
        <ele>432.3</ele>
        <time>2022-09-29T12:20:00Z</time>
      </trkpt>
      <trkpt lat="46.80664" lon="6.76969">
        <ele>432.3</ele>
        <time>2022-09-29T12:20:01Z</time>
      </trkpt>
      <trkpt lat="46.80665" lon="6.76974">
        <ele>432.3</ele>
        <time>2022-09-29T12:20:02Z</time>
      </trkpt>
      <trkpt lat="46.80667" lon="6.76979">
        <ele>432.3</ele>
        <time>2022-09-29T12:20:03Z</time>
      </trkpt>
      <trkpt lat="46.80668" lon="6.76984">
        <ele>432.3</ele>
        <time>2022-09-29T12:20:04Z</time>
      </trkpt>
      <trkpt lat="46.80669" lon="6.76989">
        <ele>432.4</ele>
        <time>2022-09-29T12:20:05Z</time>
      </trkpt>
      <trkpt lat="46.80671" lon="6.76994">
        <ele>432.4</ele>
        <time>2022-09-29T12:20:06Z</time>
      </trkpt>
      <trkpt lat="46.80672" lon="6.76998">
        <ele>432.4</ele>
        <time>2022-09-29T12:20:07Z</time>
      </trkpt>
      <trkpt lat="46.80672" lon="6.77002">
        <ele>432.4</ele>
        <time>2022-09-29T12:20:08Z</time>
      </trkpt>
      <trkpt lat="46.80673" lon="6.77006">
        <ele>432.4</ele>
        <time>2022-09-29T12:20:09Z</time>
      </trkpt>
      <trkpt lat="46.80674" lon="6.77008">
        <ele>432.4</ele>
        <time>2022-09-29T12:20:10Z</time>
      </trkpt>
      <trkpt lat="46.80676" lon="6.77013">
        <ele>432.5</ele>
        <time>2022-09-29T12:20:11Z</time>
      </trkpt>
      <trkpt lat="46.80676" lon="6.77015">
        <ele>432.5</ele>
        <time>2022-09-29T12:20:12Z</time>
      </trkpt>
      <trkpt lat="46.80678" lon="6.7702">
        <ele>432.5</ele>
        <time>2022-09-29T12:20:13Z</time>
      </trkpt>
      <trkpt lat="46.80679" lon="6.77024">
        <ele>432.6</ele>
        <time>2022-09-29T12:20:14Z</time>
      </trkpt>
      <trkpt lat="46.80681" lon="6.77028">
        <ele>432.6</ele>
        <time>2022-09-29T12:20:15Z</time>
      </trkpt>
      <trkpt lat="46.80684" lon="6.77032">
        <ele>432.6</ele>
        <time>2022-09-29T12:20:16Z</time>
      </trkpt>
      <trkpt lat="46.80687" lon="6.77036">
        <ele>432.6</ele>
        <time>2022-09-29T12:20:17Z</time>
      </trkpt>
      <trkpt lat="46.8069" lon="6.7704">
        <ele>432.6</ele>
        <time>2022-09-29T12:20:18Z</time>
      </trkpt>
      <trkpt lat="46.80693" lon="6.77045">
        <ele>432.7</ele>
        <time>2022-09-29T12:20:19Z</time>
      </trkpt>
      <trkpt lat="46.80696" lon="6.7705">
        <ele>432.7</ele>
        <time>2022-09-29T12:20:20Z</time>
      </trkpt>
      <trkpt lat="46.80698" lon="6.77055">
        <ele>432.8</ele>
        <time>2022-09-29T12:20:21Z</time>
      </trkpt>
      <trkpt lat="46.80701" lon="6.7706">
        <ele>432.8</ele>
        <time>2022-09-29T12:20:22Z</time>
      </trkpt>
      <trkpt lat="46.80704" lon="6.77064">
        <ele>432.8</ele>
        <time>2022-09-29T12:20:23Z</time>
      </trkpt>
      <trkpt lat="46.80707" lon="6.77069">
        <ele>432.8</ele>
        <time>2022-09-29T12:20:24Z</time>
      </trkpt>
      <trkpt lat="46.8071" lon="6.77073">
        <ele>432.8</ele>
        <time>2022-09-29T12:20:25Z</time>
      </trkpt>
      <trkpt lat="46.80713" lon="6.77077">
        <ele>432.9</ele>
        <time>2022-09-29T12:20:26Z</time>
      </trkpt>
      <trkpt lat="46.80716" lon="6.77082">
        <ele>432.9</ele>
        <time>2022-09-29T12:20:27Z</time>
      </trkpt>
      <trkpt lat="46.80719" lon="6.77087">
        <ele>432.9</ele>
        <time>2022-09-29T12:20:28Z</time>
      </trkpt>
      <trkpt lat="46.80721" lon="6.77091">
        <ele>432.9</ele>
        <time>2022-09-29T12:20:29Z</time>
      </trkpt>
      <trkpt lat="46.80724" lon="6.77096">
        <ele>432.9</ele>
        <time>2022-09-29T12:20:30Z</time>
      </trkpt>
      <trkpt lat="46.80727" lon="6.771">
        <ele>432.9</ele>
        <time>2022-09-29T12:20:31Z</time>
      </trkpt>
      <trkpt lat="46.8073" lon="6.77104">
        <ele>432.9</ele>
        <time>2022-09-29T12:20:32Z</time>
      </trkpt>
      <trkpt lat="46.80733" lon="6.77109">
        <ele>432.9</ele>
        <time>2022-09-29T12:20:33Z</time>
      </trkpt>
      <trkpt lat="46.80736" lon="6.77113">
        <ele>432.9</ele>
        <time>2022-09-29T12:20:34Z</time>
      </trkpt>
      <trkpt lat="46.80739" lon="6.77118">
        <ele>432.9</ele>
        <time>2022-09-29T12:20:35Z</time>
      </trkpt>
      <trkpt lat="46.80742" lon="6.77123">
        <ele>432.9</ele>
        <time>2022-09-29T12:20:36Z</time>
      </trkpt>
      <trkpt lat="46.80745" lon="6.77127">
        <ele>432.9</ele>
        <time>2022-09-29T12:20:37Z</time>
      </trkpt>
      <trkpt lat="46.80748" lon="6.77132">
        <ele>432.8</ele>
        <time>2022-09-29T12:20:38Z</time>
      </trkpt>
      <trkpt lat="46.80751" lon="6.77136">
        <ele>432.8</ele>
        <time>2022-09-29T12:20:39Z</time>
      </trkpt>
      <trkpt lat="46.80754" lon="6.77141">
        <ele>432.8</ele>
        <time>2022-09-29T12:20:40Z</time>
      </trkpt>
      <trkpt lat="46.80757" lon="6.77145">
        <ele>432.8</ele>
        <time>2022-09-29T12:20:41Z</time>
      </trkpt>
      <trkpt lat="46.8076" lon="6.7715">
        <ele>432.8</ele>
        <time>2022-09-29T12:20:42Z</time>
      </trkpt>
      <trkpt lat="46.80763" lon="6.77154">
        <ele>432.8</ele>
        <time>2022-09-29T12:20:43Z</time>
      </trkpt>
      <trkpt lat="46.80766" lon="6.77158">
        <ele>432.8</ele>
        <time>2022-09-29T12:20:44Z</time>
      </trkpt>
      <trkpt lat="46.80769" lon="6.77163">
        <ele>432.8</ele>
        <time>2022-09-29T12:20:45Z</time>
      </trkpt>
      <trkpt lat="46.80772" lon="6.77168">
        <ele>432.8</ele>
        <time>2022-09-29T12:20:46Z</time>
      </trkpt>
      <trkpt lat="46.80775" lon="6.77172">
        <ele>432.8</ele>
        <time>2022-09-29T12:20:47Z</time>
      </trkpt>
      <trkpt lat="46.80778" lon="6.77177">
        <ele>432.7</ele>
        <time>2022-09-29T12:20:48Z</time>
      </trkpt>
      <trkpt lat="46.80781" lon="6.77181">
        <ele>432.7</ele>
        <time>2022-09-29T12:20:49Z</time>
      </trkpt>
      <trkpt lat="46.80784" lon="6.77186">
        <ele>432.7</ele>
        <time>2022-09-29T12:20:50Z</time>
      </trkpt>
      <trkpt lat="46.80787" lon="6.7719">
        <ele>432.7</ele>
        <time>2022-09-29T12:20:51Z</time>
      </trkpt>
      <trkpt lat="46.80791" lon="6.77195">
        <ele>432.7</ele>
        <time>2022-09-29T12:20:52Z</time>
      </trkpt>
      <trkpt lat="46.80795" lon="6.772">
        <ele>432.7</ele>
        <time>2022-09-29T12:20:53Z</time>
      </trkpt>
      <trkpt lat="46.80798" lon="6.77206">
        <ele>432.7</ele>
        <time>2022-09-29T12:20:54Z</time>
      </trkpt>
      <trkpt lat="46.80801" lon="6.77211">
        <ele>432.7</ele>
        <time>2022-09-29T12:20:55Z</time>
      </trkpt>
      <trkpt lat="46.80804" lon="6.77217">
        <ele>432.6</ele>
        <time>2022-09-29T12:20:56Z</time>
      </trkpt>
      <trkpt lat="46.80808" lon="6.77222">
        <ele>432.6</ele>
        <time>2022-09-29T12:20:57Z</time>
      </trkpt>
      <trkpt lat="46.80812" lon="6.77228">
        <ele>432.6</ele>
        <time>2022-09-29T12:20:58Z</time>
      </trkpt>
      <trkpt lat="46.80815" lon="6.77233">
        <ele>432.6</ele>
        <time>2022-09-29T12:20:59Z</time>
      </trkpt>
      <trkpt lat="46.80819" lon="6.77238">
        <ele>432.6</ele>
        <time>2022-09-29T12:21:00Z</time>
      </trkpt>
      <trkpt lat="46.80823" lon="6.77244">
        <ele>432.5</ele>
        <time>2022-09-29T12:21:01Z</time>
      </trkpt>
      <trkpt lat="46.80826" lon="6.77249">
        <ele>432.5</ele>
        <time>2022-09-29T12:21:02Z</time>
      </trkpt>
      <trkpt lat="46.80829" lon="6.77255">
        <ele>432.6</ele>
        <time>2022-09-29T12:21:03Z</time>
      </trkpt>
      <trkpt lat="46.80833" lon="6.7726">
        <ele>432.6</ele>
        <time>2022-09-29T12:21:04Z</time>
      </trkpt>
      <trkpt lat="46.80837" lon="6.77266">
        <ele>432.6</ele>
        <time>2022-09-29T12:21:05Z</time>
      </trkpt>
      <trkpt lat="46.80841" lon="6.77271">
        <ele>432.6</ele>
        <time>2022-09-29T12:21:06Z</time>
      </trkpt>
      <trkpt lat="46.80844" lon="6.77277">
        <ele>432.6</ele>
        <time>2022-09-29T12:21:07Z</time>
      </trkpt>
      <trkpt lat="46.80848" lon="6.77282">
        <ele>432.7</ele>
        <time>2022-09-29T12:21:08Z</time>
      </trkpt>
      <trkpt lat="46.80851" lon="6.77287">
        <ele>432.7</ele>
        <time>2022-09-29T12:21:09Z</time>
      </trkpt>
      <trkpt lat="46.80854" lon="6.77292">
        <ele>432.7</ele>
        <time>2022-09-29T12:21:10Z</time>
      </trkpt>
      <trkpt lat="46.80858" lon="6.77297">
        <ele>432.7</ele>
        <time>2022-09-29T12:21:11Z</time>
      </trkpt>
      <trkpt lat="46.80861" lon="6.77302">
        <ele>432.8</ele>
        <time>2022-09-29T12:21:12Z</time>
      </trkpt>
      <trkpt lat="46.80864" lon="6.77307">
        <ele>432.8</ele>
        <time>2022-09-29T12:21:13Z</time>
      </trkpt>
      <trkpt lat="46.80868" lon="6.77312">
        <ele>432.8</ele>
        <time>2022-09-29T12:21:14Z</time>
      </trkpt>
      <trkpt lat="46.80871" lon="6.77317">
        <ele>432.8</ele>
        <time>2022-09-29T12:21:15Z</time>
      </trkpt>
      <trkpt lat="46.80874" lon="6.77321">
        <ele>432.8</ele>
        <time>2022-09-29T12:21:16Z</time>
      </trkpt>
      <trkpt lat="46.80877" lon="6.77326">
        <ele>432.8</ele>
        <time>2022-09-29T12:21:17Z</time>
      </trkpt>
      <trkpt lat="46.80881" lon="6.77332">
        <ele>432.9</ele>
        <time>2022-09-29T12:21:18Z</time>
      </trkpt>
      <trkpt lat="46.80884" lon="6.77337">
        <ele>432.9</ele>
        <time>2022-09-29T12:21:19Z</time>
      </trkpt>
      <trkpt lat="46.80887" lon="6.77342">
        <ele>432.9</ele>
        <time>2022-09-29T12:21:20Z</time>
      </trkpt>
      <trkpt lat="46.8089" lon="6.77346">
        <ele>432.9</ele>
        <time>2022-09-29T12:21:21Z</time>
      </trkpt>
      <trkpt lat="46.80893" lon="6.77351">
        <ele>433</ele>
        <time>2022-09-29T12:21:22Z</time>
      </trkpt>
      <trkpt lat="46.80896" lon="6.77356">
        <ele>433</ele>
        <time>2022-09-29T12:21:23Z</time>
      </trkpt>
      <trkpt lat="46.80899" lon="6.77361">
        <ele>433</ele>
        <time>2022-09-29T12:21:24Z</time>
      </trkpt>
      <trkpt lat="46.80903" lon="6.77366">
        <ele>433</ele>
        <time>2022-09-29T12:21:25Z</time>
      </trkpt>
      <trkpt lat="46.80906" lon="6.77371">
        <ele>433</ele>
        <time>2022-09-29T12:21:26Z</time>
      </trkpt>
      <trkpt lat="46.80909" lon="6.77376">
        <ele>433.1</ele>
        <time>2022-09-29T12:21:27Z</time>
      </trkpt>
      <trkpt lat="46.80913" lon="6.7738">
        <ele>433.1</ele>
        <time>2022-09-29T12:21:28Z</time>
      </trkpt>
      <trkpt lat="46.80916" lon="6.77384">
        <ele>433.1</ele>
        <time>2022-09-29T12:21:29Z</time>
      </trkpt>
      <trkpt lat="46.8092" lon="6.77388">
        <ele>433.1</ele>
        <time>2022-09-29T12:21:30Z</time>
      </trkpt>
      <trkpt lat="46.80923" lon="6.77391">
        <ele>433.1</ele>
        <time>2022-09-29T12:21:31Z</time>
      </trkpt>
      <trkpt lat="46.80927" lon="6.77395">
        <ele>433.2</ele>
        <time>2022-09-29T12:21:32Z</time>
      </trkpt>
      <trkpt lat="46.8093" lon="6.77397">
        <ele>433.2</ele>
        <time>2022-09-29T12:21:33Z</time>
      </trkpt>
      <trkpt lat="46.80934" lon="6.77401">
        <ele>433.2</ele>
        <time>2022-09-29T12:21:34Z</time>
      </trkpt>
      <trkpt lat="46.80938" lon="6.77403">
        <ele>433.2</ele>
        <time>2022-09-29T12:21:35Z</time>
      </trkpt>
      <trkpt lat="46.80942" lon="6.77405">
        <ele>433.2</ele>
        <time>2022-09-29T12:21:36Z</time>
      </trkpt>
      <trkpt lat="46.80946" lon="6.77407">
        <ele>433.2</ele>
        <time>2022-09-29T12:21:37Z</time>
      </trkpt>
      <trkpt lat="46.8095" lon="6.7741">
        <ele>433.2</ele>
        <time>2022-09-29T12:21:38Z</time>
      </trkpt>
      <trkpt lat="46.80954" lon="6.77412">
        <ele>433.2</ele>
        <time>2022-09-29T12:21:39Z</time>
      </trkpt>
      <trkpt lat="46.80958" lon="6.77415">
        <ele>433.2</ele>
        <time>2022-09-29T12:21:40Z</time>
      </trkpt>
      <trkpt lat="46.80961" lon="6.77418">
        <ele>433.2</ele>
        <time>2022-09-29T12:21:41Z</time>
      </trkpt>
      <trkpt lat="46.80965" lon="6.77421">
        <ele>433.2</ele>
        <time>2022-09-29T12:21:42Z</time>
      </trkpt>
      <trkpt lat="46.80969" lon="6.77424">
        <ele>433.2</ele>
        <time>2022-09-29T12:21:43Z</time>
      </trkpt>
      <trkpt lat="46.80973" lon="6.77427">
        <ele>433.2</ele>
        <time>2022-09-29T12:21:44Z</time>
      </trkpt>
      <trkpt lat="46.80976" lon="6.77431">
        <ele>433.2</ele>
        <time>2022-09-29T12:21:45Z</time>
      </trkpt>
      <trkpt lat="46.8098" lon="6.77434">
        <ele>433.2</ele>
        <time>2022-09-29T12:21:46Z</time>
      </trkpt>
      <trkpt lat="46.80984" lon="6.77439">
        <ele>433.2</ele>
        <time>2022-09-29T12:21:47Z</time>
      </trkpt>
      <trkpt lat="46.80987" lon="6.77443">
        <ele>433.2</ele>
        <time>2022-09-29T12:21:48Z</time>
      </trkpt>
      <trkpt lat="46.80991" lon="6.77447">
        <ele>433.2</ele>
        <time>2022-09-29T12:21:49Z</time>
      </trkpt>
      <trkpt lat="46.80994" lon="6.77451">
        <ele>433.2</ele>
        <time>2022-09-29T12:21:50Z</time>
      </trkpt>
      <trkpt lat="46.80998" lon="6.77456">
        <ele>433.2</ele>
        <time>2022-09-29T12:21:51Z</time>
      </trkpt>
      <trkpt lat="46.81001" lon="6.7746">
        <ele>433.1</ele>
        <time>2022-09-29T12:21:52Z</time>
      </trkpt>
      <trkpt lat="46.81005" lon="6.77464">
        <ele>433.1</ele>
        <time>2022-09-29T12:21:53Z</time>
      </trkpt>
      <trkpt lat="46.81009" lon="6.77469">
        <ele>433.1</ele>
        <time>2022-09-29T12:21:54Z</time>
      </trkpt>
      <trkpt lat="46.81012" lon="6.77472">
        <ele>433.1</ele>
        <time>2022-09-29T12:21:55Z</time>
      </trkpt>
      <trkpt lat="46.81016" lon="6.77477">
        <ele>433.1</ele>
        <time>2022-09-29T12:21:56Z</time>
      </trkpt>
      <trkpt lat="46.8102" lon="6.77481">
        <ele>433.1</ele>
        <time>2022-09-29T12:21:57Z</time>
      </trkpt>
      <trkpt lat="46.81023" lon="6.77485">
        <ele>433.1</ele>
        <time>2022-09-29T12:21:58Z</time>
      </trkpt>
      <trkpt lat="46.81027" lon="6.77489">
        <ele>433.1</ele>
        <time>2022-09-29T12:21:59Z</time>
      </trkpt>
      <trkpt lat="46.81031" lon="6.77494">
        <ele>433.1</ele>
        <time>2022-09-29T12:22:00Z</time>
      </trkpt>
      <trkpt lat="46.81035" lon="6.77498">
        <ele>433.1</ele>
        <time>2022-09-29T12:22:01Z</time>
      </trkpt>
      <trkpt lat="46.81038" lon="6.77503">
        <ele>433.1</ele>
        <time>2022-09-29T12:22:02Z</time>
      </trkpt>
      <trkpt lat="46.81043" lon="6.77506">
        <ele>433.1</ele>
        <time>2022-09-29T12:22:03Z</time>
      </trkpt>
      <trkpt lat="46.81046" lon="6.7751">
        <ele>433.1</ele>
        <time>2022-09-29T12:22:04Z</time>
      </trkpt>
      <trkpt lat="46.8105" lon="6.77514">
        <ele>433.1</ele>
        <time>2022-09-29T12:22:05Z</time>
      </trkpt>
      <trkpt lat="46.81054" lon="6.77517">
        <ele>433.1</ele>
        <time>2022-09-29T12:22:06Z</time>
      </trkpt>
      <trkpt lat="46.81057" lon="6.77521">
        <ele>433.1</ele>
        <time>2022-09-29T12:22:07Z</time>
      </trkpt>
      <trkpt lat="46.81062" lon="6.77523">
        <ele>433.1</ele>
        <time>2022-09-29T12:22:08Z</time>
      </trkpt>
      <trkpt lat="46.81066" lon="6.77526">
        <ele>433.1</ele>
        <time>2022-09-29T12:22:09Z</time>
      </trkpt>
      <trkpt lat="46.8107" lon="6.77528">
        <ele>433.1</ele>
        <time>2022-09-29T12:22:10Z</time>
      </trkpt>
      <trkpt lat="46.81074" lon="6.77532">
        <ele>433.1</ele>
        <time>2022-09-29T12:22:11Z</time>
      </trkpt>
      <trkpt lat="46.81078" lon="6.77534">
        <ele>433.1</ele>
        <time>2022-09-29T12:22:12Z</time>
      </trkpt>
      <trkpt lat="46.81083" lon="6.77536">
        <ele>433</ele>
        <time>2022-09-29T12:22:13Z</time>
      </trkpt>
      <trkpt lat="46.81087" lon="6.77537">
        <ele>433</ele>
        <time>2022-09-29T12:22:14Z</time>
      </trkpt>
      <trkpt lat="46.81091" lon="6.77538">
        <ele>433</ele>
        <time>2022-09-29T12:22:15Z</time>
      </trkpt>
      <trkpt lat="46.81096" lon="6.7754">
        <ele>433</ele>
        <time>2022-09-29T12:22:16Z</time>
      </trkpt>
      <trkpt lat="46.811" lon="6.77541">
        <ele>433</ele>
        <time>2022-09-29T12:22:17Z</time>
      </trkpt>
      <trkpt lat="46.81104" lon="6.77543">
        <ele>433</ele>
        <time>2022-09-29T12:22:18Z</time>
      </trkpt>
      <trkpt lat="46.81108" lon="6.77543">
        <ele>433</ele>
        <time>2022-09-29T12:22:19Z</time>
      </trkpt>
      <trkpt lat="46.8111" lon="6.77545">
        <ele>433.1</ele>
        <time>2022-09-29T12:22:20Z</time>
      </trkpt>
      <trkpt lat="46.81113" lon="6.77545">
        <ele>433.1</ele>
        <time>2022-09-29T12:22:21Z</time>
      </trkpt>
      <trkpt lat="46.81116" lon="6.77546">
        <ele>433.1</ele>
        <time>2022-09-29T12:22:22Z</time>
      </trkpt>
      <trkpt lat="46.81119" lon="6.77547">
        <ele>433.1</ele>
        <time>2022-09-29T12:22:23Z</time>
      </trkpt>
      <trkpt lat="46.81123" lon="6.77549">
        <ele>433.1</ele>
        <time>2022-09-29T12:22:24Z</time>
      </trkpt>
      <trkpt lat="46.81127" lon="6.7755">
        <ele>433.1</ele>
        <time>2022-09-29T12:22:25Z</time>
      </trkpt>
      <trkpt lat="46.81131" lon="6.77552">
        <ele>433.1</ele>
        <time>2022-09-29T12:22:26Z</time>
      </trkpt>
      <trkpt lat="46.81135" lon="6.77554">
        <ele>433.1</ele>
        <time>2022-09-29T12:22:27Z</time>
      </trkpt>
      <trkpt lat="46.81139" lon="6.77556">
        <ele>433.2</ele>
        <time>2022-09-29T12:22:28Z</time>
      </trkpt>
      <trkpt lat="46.81143" lon="6.77559">
        <ele>433.2</ele>
        <time>2022-09-29T12:22:29Z</time>
      </trkpt>
      <trkpt lat="46.81147" lon="6.77562">
        <ele>433.2</ele>
        <time>2022-09-29T12:22:30Z</time>
      </trkpt>
      <trkpt lat="46.81151" lon="6.77564">
        <ele>433.3</ele>
        <time>2022-09-29T12:22:31Z</time>
      </trkpt>
      <trkpt lat="46.81155" lon="6.77567">
        <ele>433.3</ele>
        <time>2022-09-29T12:22:32Z</time>
      </trkpt>
      <trkpt lat="46.8116" lon="6.7757">
        <ele>433.3</ele>
        <time>2022-09-29T12:22:33Z</time>
      </trkpt>
      <trkpt lat="46.81164" lon="6.77574">
        <ele>433.3</ele>
        <time>2022-09-29T12:22:34Z</time>
      </trkpt>
      <trkpt lat="46.81167" lon="6.77578">
        <ele>433.3</ele>
        <time>2022-09-29T12:22:35Z</time>
      </trkpt>
      <trkpt lat="46.81171" lon="6.77582">
        <ele>433.4</ele>
        <time>2022-09-29T12:22:36Z</time>
      </trkpt>
      <trkpt lat="46.81175" lon="6.77586">
        <ele>433.4</ele>
        <time>2022-09-29T12:22:37Z</time>
      </trkpt>
      <trkpt lat="46.81178" lon="6.7759">
        <ele>433.4</ele>
        <time>2022-09-29T12:22:38Z</time>
      </trkpt>
      <trkpt lat="46.81182" lon="6.77595">
        <ele>433.4</ele>
        <time>2022-09-29T12:22:39Z</time>
      </trkpt>
      <trkpt lat="46.81185" lon="6.77599">
        <ele>433.4</ele>
        <time>2022-09-29T12:22:40Z</time>
      </trkpt>
      <trkpt lat="46.81188" lon="6.77604">
        <ele>433.5</ele>
        <time>2022-09-29T12:22:41Z</time>
      </trkpt>
      <trkpt lat="46.81192" lon="6.77608">
        <ele>433.5</ele>
        <time>2022-09-29T12:22:42Z</time>
      </trkpt>
      <trkpt lat="46.81195" lon="6.77612">
        <ele>433.5</ele>
        <time>2022-09-29T12:22:43Z</time>
      </trkpt>
      <trkpt lat="46.81197" lon="6.77617">
        <ele>433.5</ele>
        <time>2022-09-29T12:22:44Z</time>
      </trkpt>
      <trkpt lat="46.812" lon="6.77624">
        <ele>433.5</ele>
        <time>2022-09-29T12:22:45Z</time>
      </trkpt>
      <trkpt lat="46.81202" lon="6.77629">
        <ele>433.4</ele>
        <time>2022-09-29T12:22:46Z</time>
      </trkpt>
      <trkpt lat="46.81204" lon="6.77635">
        <ele>433.4</ele>
        <time>2022-09-29T12:22:47Z</time>
      </trkpt>
      <trkpt lat="46.81205" lon="6.77642">
        <ele>433.3</ele>
        <time>2022-09-29T12:22:48Z</time>
      </trkpt>
      <trkpt lat="46.81206" lon="6.77648">
        <ele>433.3</ele>
        <time>2022-09-29T12:22:49Z</time>
      </trkpt>
      <trkpt lat="46.81206" lon="6.77654">
        <ele>433.2</ele>
        <time>2022-09-29T12:22:50Z</time>
      </trkpt>
      <trkpt lat="46.81207" lon="6.77661">
        <ele>433.2</ele>
        <time>2022-09-29T12:22:51Z</time>
      </trkpt>
      <trkpt lat="46.81206" lon="6.77668">
        <ele>433.1</ele>
        <time>2022-09-29T12:22:52Z</time>
      </trkpt>
      <trkpt lat="46.81207" lon="6.77675">
        <ele>433</ele>
        <time>2022-09-29T12:22:53Z</time>
      </trkpt>
      <trkpt lat="46.81207" lon="6.77683">
        <ele>433</ele>
        <time>2022-09-29T12:22:54Z</time>
      </trkpt>
      <trkpt lat="46.81207" lon="6.7769">
        <ele>432.9</ele>
        <time>2022-09-29T12:22:55Z</time>
      </trkpt>
      <trkpt lat="46.81208" lon="6.77698">
        <ele>432.9</ele>
        <time>2022-09-29T12:22:56Z</time>
      </trkpt>
      <trkpt lat="46.81209" lon="6.77705">
        <ele>432.8</ele>
        <time>2022-09-29T12:22:57Z</time>
      </trkpt>
      <trkpt lat="46.81211" lon="6.77712">
        <ele>432.8</ele>
        <time>2022-09-29T12:22:58Z</time>
      </trkpt>
      <trkpt lat="46.81212" lon="6.77719">
        <ele>432.8</ele>
        <time>2022-09-29T12:22:59Z</time>
      </trkpt>
      <trkpt lat="46.81216" lon="6.77725">
        <ele>432.8</ele>
        <time>2022-09-29T12:23:00Z</time>
      </trkpt>
      <trkpt lat="46.81219" lon="6.77731">
        <ele>432.8</ele>
        <time>2022-09-29T12:23:01Z</time>
      </trkpt>
      <trkpt lat="46.81222" lon="6.77737">
        <ele>432.8</ele>
        <time>2022-09-29T12:23:02Z</time>
      </trkpt>
      <trkpt lat="46.81226" lon="6.77742">
        <ele>432.8</ele>
        <time>2022-09-29T12:23:03Z</time>
      </trkpt>
      <trkpt lat="46.81229" lon="6.77747">
        <ele>432.8</ele>
        <time>2022-09-29T12:23:04Z</time>
      </trkpt>
      <trkpt lat="46.81232" lon="6.77753">
        <ele>432.8</ele>
        <time>2022-09-29T12:23:05Z</time>
      </trkpt>
      <trkpt lat="46.81236" lon="6.77758">
        <ele>432.8</ele>
        <time>2022-09-29T12:23:06Z</time>
      </trkpt>
      <trkpt lat="46.8124" lon="6.77764">
        <ele>432.8</ele>
        <time>2022-09-29T12:23:07Z</time>
      </trkpt>
      <trkpt lat="46.81244" lon="6.77769">
        <ele>432.9</ele>
        <time>2022-09-29T12:23:08Z</time>
      </trkpt>
      <trkpt lat="46.81247" lon="6.77775">
        <ele>432.9</ele>
        <time>2022-09-29T12:23:09Z</time>
      </trkpt>
      <trkpt lat="46.81251" lon="6.7778">
        <ele>432.9</ele>
        <time>2022-09-29T12:23:10Z</time>
      </trkpt>
      <trkpt lat="46.81255" lon="6.77785">
        <ele>433</ele>
        <time>2022-09-29T12:23:11Z</time>
      </trkpt>
      <trkpt lat="46.81259" lon="6.7779">
        <ele>433</ele>
        <time>2022-09-29T12:23:12Z</time>
      </trkpt>
      <trkpt lat="46.81262" lon="6.77794">
        <ele>433</ele>
        <time>2022-09-29T12:23:13Z</time>
      </trkpt>
      <trkpt lat="46.81267" lon="6.77799">
        <ele>433</ele>
        <time>2022-09-29T12:23:14Z</time>
      </trkpt>
      <trkpt lat="46.8127" lon="6.77806">
        <ele>433</ele>
        <time>2022-09-29T12:23:15Z</time>
      </trkpt>
      <trkpt lat="46.81274" lon="6.77811">
        <ele>433</ele>
        <time>2022-09-29T12:23:16Z</time>
      </trkpt>
      <trkpt lat="46.81278" lon="6.77817">
        <ele>433</ele>
        <time>2022-09-29T12:23:17Z</time>
      </trkpt>
      <trkpt lat="46.81281" lon="6.77821">
        <ele>433</ele>
        <time>2022-09-29T12:23:18Z</time>
      </trkpt>
      <trkpt lat="46.81285" lon="6.77826">
        <ele>433</ele>
        <time>2022-09-29T12:23:19Z</time>
      </trkpt>
      <trkpt lat="46.81289" lon="6.77831">
        <ele>433</ele>
        <time>2022-09-29T12:23:20Z</time>
      </trkpt>
      <trkpt lat="46.81293" lon="6.77836">
        <ele>433</ele>
        <time>2022-09-29T12:23:21Z</time>
      </trkpt>
      <trkpt lat="46.81296" lon="6.77842">
        <ele>433</ele>
        <time>2022-09-29T12:23:22Z</time>
      </trkpt>
      <trkpt lat="46.81298" lon="6.77848">
        <ele>433</ele>
        <time>2022-09-29T12:23:23Z</time>
      </trkpt>
      <trkpt lat="46.81302" lon="6.77855">
        <ele>433</ele>
        <time>2022-09-29T12:23:24Z</time>
      </trkpt>
      <trkpt lat="46.81305" lon="6.7786">
        <ele>433</ele>
        <time>2022-09-29T12:23:25Z</time>
      </trkpt>
      <trkpt lat="46.81308" lon="6.77865">
        <ele>433</ele>
        <time>2022-09-29T12:23:26Z</time>
      </trkpt>
      <trkpt lat="46.81311" lon="6.77871">
        <ele>433</ele>
        <time>2022-09-29T12:23:27Z</time>
      </trkpt>
      <trkpt lat="46.81312" lon="6.77877">
        <ele>433</ele>
        <time>2022-09-29T12:23:28Z</time>
      </trkpt>
      <trkpt lat="46.81313" lon="6.77883">
        <ele>432.9</ele>
        <time>2022-09-29T12:23:29Z</time>
      </trkpt>
      <trkpt lat="46.81313" lon="6.7789">
        <ele>432.9</ele>
        <time>2022-09-29T12:23:30Z</time>
      </trkpt>
      <trkpt lat="46.81313" lon="6.77897">
        <ele>432.9</ele>
        <time>2022-09-29T12:23:31Z</time>
      </trkpt>
      <trkpt lat="46.81314" lon="6.77904">
        <ele>433</ele>
        <time>2022-09-29T12:23:32Z</time>
      </trkpt>
      <trkpt lat="46.81315" lon="6.7791">
        <ele>433</ele>
        <time>2022-09-29T12:23:33Z</time>
      </trkpt>
      <trkpt lat="46.81315" lon="6.77917">
        <ele>433</ele>
        <time>2022-09-29T12:23:34Z</time>
      </trkpt>
      <trkpt lat="46.81315" lon="6.77924">
        <ele>433</ele>
        <time>2022-09-29T12:23:35Z</time>
      </trkpt>
      <trkpt lat="46.81316" lon="6.77932">
        <ele>433</ele>
        <time>2022-09-29T12:23:36Z</time>
      </trkpt>
      <trkpt lat="46.81316" lon="6.77939">
        <ele>433</ele>
        <time>2022-09-29T12:23:37Z</time>
      </trkpt>
      <trkpt lat="46.81316" lon="6.77946">
        <ele>433</ele>
        <time>2022-09-29T12:23:38Z</time>
      </trkpt>
      <trkpt lat="46.81317" lon="6.77952">
        <ele>433.1</ele>
        <time>2022-09-29T12:23:39Z</time>
      </trkpt>
      <trkpt lat="46.81318" lon="6.77959">
        <ele>433.1</ele>
        <time>2022-09-29T12:23:40Z</time>
      </trkpt>
      <trkpt lat="46.81319" lon="6.77966">
        <ele>433.1</ele>
        <time>2022-09-29T12:23:41Z</time>
      </trkpt>
      <trkpt lat="46.8132" lon="6.77973">
        <ele>433.1</ele>
        <time>2022-09-29T12:23:42Z</time>
      </trkpt>
      <trkpt lat="46.81321" lon="6.7798">
        <ele>433.1</ele>
        <time>2022-09-29T12:23:43Z</time>
      </trkpt>
      <trkpt lat="46.81322" lon="6.77986">
        <ele>433.1</ele>
        <time>2022-09-29T12:23:44Z</time>
      </trkpt>
      <trkpt lat="46.81324" lon="6.77993">
        <ele>433.1</ele>
        <time>2022-09-29T12:23:45Z</time>
      </trkpt>
      <trkpt lat="46.81326" lon="6.77999">
        <ele>433.1</ele>
        <time>2022-09-29T12:23:46Z</time>
      </trkpt>
      <trkpt lat="46.81329" lon="6.78005">
        <ele>433</ele>
        <time>2022-09-29T12:23:47Z</time>
      </trkpt>
      <trkpt lat="46.81332" lon="6.78011">
        <ele>433</ele>
        <time>2022-09-29T12:23:48Z</time>
      </trkpt>
      <trkpt lat="46.81335" lon="6.78016">
        <ele>433</ele>
        <time>2022-09-29T12:23:49Z</time>
      </trkpt>
      <trkpt lat="46.81339" lon="6.78021">
        <ele>433</ele>
        <time>2022-09-29T12:23:50Z</time>
      </trkpt>
      <trkpt lat="46.81343" lon="6.78027">
        <ele>432.9</ele>
        <time>2022-09-29T12:23:51Z</time>
      </trkpt>
      <trkpt lat="46.81346" lon="6.78032">
        <ele>432.9</ele>
        <time>2022-09-29T12:23:52Z</time>
      </trkpt>
      <trkpt lat="46.8135" lon="6.78038">
        <ele>432.9</ele>
        <time>2022-09-29T12:23:53Z</time>
      </trkpt>
      <trkpt lat="46.81354" lon="6.78044">
        <ele>432.8</ele>
        <time>2022-09-29T12:23:54Z</time>
      </trkpt>
      <trkpt lat="46.81357" lon="6.78049">
        <ele>432.8</ele>
        <time>2022-09-29T12:23:55Z</time>
      </trkpt>
      <trkpt lat="46.81361" lon="6.78055">
        <ele>432.8</ele>
        <time>2022-09-29T12:23:56Z</time>
      </trkpt>
      <trkpt lat="46.81364" lon="6.78061">
        <ele>432.7</ele>
        <time>2022-09-29T12:23:57Z</time>
      </trkpt>
      <trkpt lat="46.81367" lon="6.78066">
        <ele>432.7</ele>
        <time>2022-09-29T12:23:58Z</time>
      </trkpt>
      <trkpt lat="46.81371" lon="6.78072">
        <ele>432.7</ele>
        <time>2022-09-29T12:23:59Z</time>
      </trkpt>
      <trkpt lat="46.81374" lon="6.78078">
        <ele>432.6</ele>
        <time>2022-09-29T12:24:00Z</time>
      </trkpt>
      <trkpt lat="46.81377" lon="6.78082">
        <ele>432.6</ele>
        <time>2022-09-29T12:24:01Z</time>
      </trkpt>
      <trkpt lat="46.81381" lon="6.78087">
        <ele>432.6</ele>
        <time>2022-09-29T12:24:02Z</time>
      </trkpt>
      <trkpt lat="46.81384" lon="6.78094">
        <ele>432.5</ele>
        <time>2022-09-29T12:24:03Z</time>
      </trkpt>
      <trkpt lat="46.81388" lon="6.781">
        <ele>432.5</ele>
        <time>2022-09-29T12:24:04Z</time>
      </trkpt>
      <trkpt lat="46.81392" lon="6.78106">
        <ele>432.5</ele>
        <time>2022-09-29T12:24:05Z</time>
      </trkpt>
      <trkpt lat="46.81396" lon="6.78112">
        <ele>432.5</ele>
        <time>2022-09-29T12:24:06Z</time>
      </trkpt>
      <trkpt lat="46.81399" lon="6.78118">
        <ele>432.5</ele>
        <time>2022-09-29T12:24:07Z</time>
      </trkpt>
      <trkpt lat="46.81403" lon="6.78124">
        <ele>432.5</ele>
        <time>2022-09-29T12:24:08Z</time>
      </trkpt>
      <trkpt lat="46.81407" lon="6.7813">
        <ele>432.5</ele>
        <time>2022-09-29T12:24:09Z</time>
      </trkpt>
      <trkpt lat="46.8141" lon="6.78135">
        <ele>432.4</ele>
        <time>2022-09-29T12:24:10Z</time>
      </trkpt>
      <trkpt lat="46.81414" lon="6.78141">
        <ele>432.4</ele>
        <time>2022-09-29T12:24:11Z</time>
      </trkpt>
      <trkpt lat="46.81418" lon="6.78148">
        <ele>432.4</ele>
        <time>2022-09-29T12:24:12Z</time>
      </trkpt>
      <trkpt lat="46.81422" lon="6.78154">
        <ele>432.4</ele>
        <time>2022-09-29T12:24:13Z</time>
      </trkpt>
      <trkpt lat="46.81425" lon="6.7816">
        <ele>432.4</ele>
        <time>2022-09-29T12:24:14Z</time>
      </trkpt>
      <trkpt lat="46.81429" lon="6.78167">
        <ele>432.4</ele>
        <time>2022-09-29T12:24:15Z</time>
      </trkpt>
      <trkpt lat="46.81433" lon="6.78172">
        <ele>432.4</ele>
        <time>2022-09-29T12:24:16Z</time>
      </trkpt>
      <trkpt lat="46.81437" lon="6.78178">
        <ele>432.4</ele>
        <time>2022-09-29T12:24:17Z</time>
      </trkpt>
      <trkpt lat="46.81441" lon="6.78185">
        <ele>432.4</ele>
        <time>2022-09-29T12:24:18Z</time>
      </trkpt>
      <trkpt lat="46.81445" lon="6.7819">
        <ele>432.4</ele>
        <time>2022-09-29T12:24:19Z</time>
      </trkpt>
      <trkpt lat="46.81448" lon="6.78196">
        <ele>432.4</ele>
        <time>2022-09-29T12:24:20Z</time>
      </trkpt>
      <trkpt lat="46.81452" lon="6.78202">
        <ele>432.4</ele>
        <time>2022-09-29T12:24:21Z</time>
      </trkpt>
      <trkpt lat="46.81455" lon="6.78207">
        <ele>432.4</ele>
        <time>2022-09-29T12:24:22Z</time>
      </trkpt>
      <trkpt lat="46.81459" lon="6.78214">
        <ele>432.4</ele>
        <time>2022-09-29T12:24:23Z</time>
      </trkpt>
      <trkpt lat="46.81463" lon="6.7822">
        <ele>432.4</ele>
        <time>2022-09-29T12:24:24Z</time>
      </trkpt>
      <trkpt lat="46.81466" lon="6.78226">
        <ele>432.4</ele>
        <time>2022-09-29T12:24:25Z</time>
      </trkpt>
      <trkpt lat="46.8147" lon="6.78231">
        <ele>432.5</ele>
        <time>2022-09-29T12:24:26Z</time>
      </trkpt>
      <trkpt lat="46.81473" lon="6.78236">
        <ele>432.5</ele>
        <time>2022-09-29T12:24:27Z</time>
      </trkpt>
      <trkpt lat="46.81477" lon="6.78242">
        <ele>432.5</ele>
        <time>2022-09-29T12:24:28Z</time>
      </trkpt>
      <trkpt lat="46.8148" lon="6.78247">
        <ele>432.5</ele>
        <time>2022-09-29T12:24:29Z</time>
      </trkpt>
      <trkpt lat="46.81483" lon="6.78253">
        <ele>432.6</ele>
        <time>2022-09-29T12:24:30Z</time>
      </trkpt>
      <trkpt lat="46.81486" lon="6.78258">
        <ele>432.6</ele>
        <time>2022-09-29T12:24:31Z</time>
      </trkpt>
      <trkpt lat="46.8149" lon="6.78263">
        <ele>432.6</ele>
        <time>2022-09-29T12:24:32Z</time>
      </trkpt>
      <trkpt lat="46.81493" lon="6.78269">
        <ele>432.7</ele>
        <time>2022-09-29T12:24:33Z</time>
      </trkpt>
      <trkpt lat="46.81496" lon="6.78274">
        <ele>432.7</ele>
        <time>2022-09-29T12:24:34Z</time>
      </trkpt>
      <trkpt lat="46.815" lon="6.78279">
        <ele>432.8</ele>
        <time>2022-09-29T12:24:35Z</time>
      </trkpt>
      <trkpt lat="46.81504" lon="6.78282">
        <ele>432.8</ele>
        <time>2022-09-29T12:24:36Z</time>
      </trkpt>
      <trkpt lat="46.81508" lon="6.78286">
        <ele>432.8</ele>
        <time>2022-09-29T12:24:37Z</time>
      </trkpt>
      <trkpt lat="46.81512" lon="6.78288">
        <ele>432.8</ele>
        <time>2022-09-29T12:24:38Z</time>
      </trkpt>
      <trkpt lat="46.81516" lon="6.78289">
        <ele>432.8</ele>
        <time>2022-09-29T12:24:39Z</time>
      </trkpt>
      <trkpt lat="46.81522" lon="6.78292">
        <ele>432.8</ele>
        <time>2022-09-29T12:24:40Z</time>
      </trkpt>
      <trkpt lat="46.81527" lon="6.78293">
        <ele>432.8</ele>
        <time>2022-09-29T12:24:41Z</time>
      </trkpt>
      <trkpt lat="46.81532" lon="6.78296">
        <ele>432.7</ele>
        <time>2022-09-29T12:24:42Z</time>
      </trkpt>
      <trkpt lat="46.81538" lon="6.78298">
        <ele>432.7</ele>
        <time>2022-09-29T12:24:43Z</time>
      </trkpt>
      <trkpt lat="46.81542" lon="6.78297">
        <ele>432.7</ele>
        <time>2022-09-29T12:24:44Z</time>
      </trkpt>
      <trkpt lat="46.81546" lon="6.78299">
        <ele>432.6</ele>
        <time>2022-09-29T12:24:45Z</time>
      </trkpt>
      <trkpt lat="46.81551" lon="6.78298">
        <ele>432.6</ele>
        <time>2022-09-29T12:24:46Z</time>
      </trkpt>
      <trkpt lat="46.81556" lon="6.78298">
        <ele>432.6</ele>
        <time>2022-09-29T12:24:47Z</time>
      </trkpt>
      <trkpt lat="46.81561" lon="6.78296">
        <ele>432.6</ele>
        <time>2022-09-29T12:24:48Z</time>
      </trkpt>
      <trkpt lat="46.81566" lon="6.78295">
        <ele>432.6</ele>
        <time>2022-09-29T12:24:49Z</time>
      </trkpt>
      <trkpt lat="46.81571" lon="6.78293">
        <ele>432.6</ele>
        <time>2022-09-29T12:24:50Z</time>
      </trkpt>
      <trkpt lat="46.81577" lon="6.78294">
        <ele>432.6</ele>
        <time>2022-09-29T12:24:51Z</time>
      </trkpt>
      <trkpt lat="46.81582" lon="6.78292">
        <ele>432.6</ele>
        <time>2022-09-29T12:24:52Z</time>
      </trkpt>
      <trkpt lat="46.81587" lon="6.78292">
        <ele>432.6</ele>
        <time>2022-09-29T12:24:53Z</time>
      </trkpt>
      <trkpt lat="46.81593" lon="6.78293">
        <ele>432.6</ele>
        <time>2022-09-29T12:24:54Z</time>
      </trkpt>
      <trkpt lat="46.81599" lon="6.78293">
        <ele>432.6</ele>
        <time>2022-09-29T12:24:55Z</time>
      </trkpt>
      <trkpt lat="46.81604" lon="6.78292">
        <ele>432.6</ele>
        <time>2022-09-29T12:24:56Z</time>
      </trkpt>
      <trkpt lat="46.81609" lon="6.78293">
        <ele>432.6</ele>
        <time>2022-09-29T12:24:57Z</time>
      </trkpt>
      <trkpt lat="46.81614" lon="6.78293">
        <ele>432.7</ele>
        <time>2022-09-29T12:24:58Z</time>
      </trkpt>
      <trkpt lat="46.81619" lon="6.78295">
        <ele>432.7</ele>
        <time>2022-09-29T12:24:59Z</time>
      </trkpt>
      <trkpt lat="46.81624" lon="6.78297">
        <ele>432.7</ele>
        <time>2022-09-29T12:25:00Z</time>
      </trkpt>
      <trkpt lat="46.81629" lon="6.78299">
        <ele>432.7</ele>
        <time>2022-09-29T12:25:01Z</time>
      </trkpt>
      <trkpt lat="46.81633" lon="6.78303">
        <ele>432.7</ele>
        <time>2022-09-29T12:25:02Z</time>
      </trkpt>
      <trkpt lat="46.81637" lon="6.78306">
        <ele>432.8</ele>
        <time>2022-09-29T12:25:03Z</time>
      </trkpt>
      <trkpt lat="46.81641" lon="6.78311">
        <ele>432.8</ele>
        <time>2022-09-29T12:25:04Z</time>
      </trkpt>
      <trkpt lat="46.81645" lon="6.78316">
        <ele>432.8</ele>
        <time>2022-09-29T12:25:05Z</time>
      </trkpt>
      <trkpt lat="46.81649" lon="6.78321">
        <ele>432.8</ele>
        <time>2022-09-29T12:25:06Z</time>
      </trkpt>
      <trkpt lat="46.81653" lon="6.78327">
        <ele>432.8</ele>
        <time>2022-09-29T12:25:07Z</time>
      </trkpt>
      <trkpt lat="46.81656" lon="6.78334">
        <ele>432.7</ele>
        <time>2022-09-29T12:25:08Z</time>
      </trkpt>
      <trkpt lat="46.81658" lon="6.78342">
        <ele>432.7</ele>
        <time>2022-09-29T12:25:09Z</time>
      </trkpt>
      <trkpt lat="46.81661" lon="6.7835">
        <ele>432.7</ele>
        <time>2022-09-29T12:25:10Z</time>
      </trkpt>
      <trkpt lat="46.81662" lon="6.78357">
        <ele>432.7</ele>
        <time>2022-09-29T12:25:11Z</time>
      </trkpt>
      <trkpt lat="46.81663" lon="6.78365">
        <ele>432.7</ele>
        <time>2022-09-29T12:25:12Z</time>
      </trkpt>
      <trkpt lat="46.81663" lon="6.78373">
        <ele>432.6</ele>
        <time>2022-09-29T12:25:13Z</time>
      </trkpt>
      <trkpt lat="46.81664" lon="6.78382">
        <ele>432.6</ele>
        <time>2022-09-29T12:25:14Z</time>
      </trkpt>
      <trkpt lat="46.81664" lon="6.7839">
        <ele>432.6</ele>
        <time>2022-09-29T12:25:15Z</time>
      </trkpt>
      <trkpt lat="46.81665" lon="6.78398">
        <ele>432.6</ele>
        <time>2022-09-29T12:25:16Z</time>
      </trkpt>
      <trkpt lat="46.81665" lon="6.78406">
        <ele>432.7</ele>
        <time>2022-09-29T12:25:17Z</time>
      </trkpt>
      <trkpt lat="46.81665" lon="6.78414">
        <ele>432.7</ele>
        <time>2022-09-29T12:25:18Z</time>
      </trkpt>
      <trkpt lat="46.81666" lon="6.78422">
        <ele>432.7</ele>
        <time>2022-09-29T12:25:19Z</time>
      </trkpt>
      <trkpt lat="46.81666" lon="6.7843">
        <ele>432.8</ele>
        <time>2022-09-29T12:25:20Z</time>
      </trkpt>
      <trkpt lat="46.81666" lon="6.78437">
        <ele>432.8</ele>
        <time>2022-09-29T12:25:21Z</time>
      </trkpt>
      <trkpt lat="46.81665" lon="6.78444">
        <ele>432.8</ele>
        <time>2022-09-29T12:25:22Z</time>
      </trkpt>
      <trkpt lat="46.81664" lon="6.78452">
        <ele>432.9</ele>
        <time>2022-09-29T12:25:23Z</time>
      </trkpt>
      <trkpt lat="46.81664" lon="6.78459">
        <ele>432.9</ele>
        <time>2022-09-29T12:25:24Z</time>
      </trkpt>
      <trkpt lat="46.81663" lon="6.78467">
        <ele>433</ele>
        <time>2022-09-29T12:25:25Z</time>
      </trkpt>
      <trkpt lat="46.81661" lon="6.78474">
        <ele>433</ele>
        <time>2022-09-29T12:25:26Z</time>
      </trkpt>
      <trkpt lat="46.8166" lon="6.78481">
        <ele>433</ele>
        <time>2022-09-29T12:25:27Z</time>
      </trkpt>
      <trkpt lat="46.81659" lon="6.78487">
        <ele>433.1</ele>
        <time>2022-09-29T12:25:28Z</time>
      </trkpt>
      <trkpt lat="46.81658" lon="6.78494">
        <ele>433.1</ele>
        <time>2022-09-29T12:25:29Z</time>
      </trkpt>
      <trkpt lat="46.81657" lon="6.78501">
        <ele>433.2</ele>
        <time>2022-09-29T12:25:30Z</time>
      </trkpt>
      <trkpt lat="46.81657" lon="6.78506">
        <ele>433.3</ele>
        <time>2022-09-29T12:25:31Z</time>
      </trkpt>
      <trkpt lat="46.81658" lon="6.78513">
        <ele>433.5</ele>
        <time>2022-09-29T12:25:32Z</time>
      </trkpt>
      <trkpt lat="46.8166" lon="6.78518">
        <ele>433.6</ele>
        <time>2022-09-29T12:25:33Z</time>
      </trkpt>
      <trkpt lat="46.81661" lon="6.78523">
        <ele>433.7</ele>
        <time>2022-09-29T12:25:34Z</time>
      </trkpt>
      <trkpt lat="46.81662" lon="6.78527">
        <ele>433.8</ele>
        <time>2022-09-29T12:25:35Z</time>
      </trkpt>
      <trkpt lat="46.81663" lon="6.78531">
        <ele>434</ele>
        <time>2022-09-29T12:25:36Z</time>
      </trkpt>
      <trkpt lat="46.81664" lon="6.78537">
        <ele>434.1</ele>
        <time>2022-09-29T12:25:37Z</time>
      </trkpt>
      <trkpt lat="46.81664" lon="6.78539">
        <ele>434.2</ele>
        <time>2022-09-29T12:25:38Z</time>
      </trkpt>
      <trkpt lat="46.81665" lon="6.78544">
        <ele>434.4</ele>
        <time>2022-09-29T12:25:39Z</time>
      </trkpt>
      <trkpt lat="46.81666" lon="6.78545">
        <ele>434.4</ele>
        <time>2022-09-29T12:25:40Z</time>
      </trkpt>
      <trkpt lat="46.81667" lon="6.78549">
        <ele>434.6</ele>
        <time>2022-09-29T12:25:41Z</time>
      </trkpt>
      <trkpt lat="46.81667" lon="6.78551">
        <ele>434.6</ele>
        <time>2022-09-29T12:25:42Z</time>
      </trkpt>
      <trkpt lat="46.81667" lon="6.78555">
        <ele>434.8</ele>
        <time>2022-09-29T12:25:43Z</time>
      </trkpt>
      <trkpt lat="46.81668" lon="6.78557">
        <ele>434.8</ele>
        <time>2022-09-29T12:25:44Z</time>
      </trkpt>
      <trkpt lat="46.81668" lon="6.78561">
        <ele>435</ele>
        <time>2022-09-29T12:25:45Z</time>
      </trkpt>
      <trkpt lat="46.81668" lon="6.78562">
        <ele>435</ele>
        <time>2022-09-29T12:25:46Z</time>
      </trkpt>
      <trkpt lat="46.81668" lon="6.78566">
        <ele>435</ele>
        <time>2022-09-29T12:25:47Z</time>
      </trkpt>
      <trkpt lat="46.81668" lon="6.78567">
        <ele>435</ele>
        <time>2022-09-29T12:25:48Z</time>
      </trkpt>
      <trkpt lat="46.81669" lon="6.78569">
        <ele>435</ele>
        <time>2022-09-29T12:25:49Z</time>
      </trkpt>
      <trkpt lat="46.81671" lon="6.7857">
        <ele>434.9</ele>
        <time>2022-09-29T12:25:50Z</time>
      </trkpt>
      <trkpt lat="46.81673" lon="6.78571">
        <ele>434.9</ele>
        <time>2022-09-29T12:25:51Z</time>
      </trkpt>
      <trkpt lat="46.81674" lon="6.78571">
        <ele>434.9</ele>
        <time>2022-09-29T12:25:52Z</time>
      </trkpt>
      <trkpt lat="46.81678" lon="6.78573">
        <ele>434.8</ele>
        <time>2022-09-29T12:25:53Z</time>
      </trkpt>
      <trkpt lat="46.81679" lon="6.78574">
        <ele>434.7</ele>
        <time>2022-09-29T12:25:54Z</time>
      </trkpt>
      <trkpt lat="46.81682" lon="6.78577">
        <ele>434.6</ele>
        <time>2022-09-29T12:25:55Z</time>
      </trkpt>
      <trkpt lat="46.81684" lon="6.78581">
        <ele>434.5</ele>
        <time>2022-09-29T12:25:56Z</time>
      </trkpt>
      <trkpt lat="46.81687" lon="6.78584">
        <ele>434.3</ele>
        <time>2022-09-29T12:25:57Z</time>
      </trkpt>
      <trkpt lat="46.8169" lon="6.78588">
        <ele>434.1</ele>
        <time>2022-09-29T12:25:58Z</time>
      </trkpt>
      <trkpt lat="46.81693" lon="6.78593">
        <ele>433.9</ele>
        <time>2022-09-29T12:25:59Z</time>
      </trkpt>
      <trkpt lat="46.81697" lon="6.78598">
        <ele>433.7</ele>
        <time>2022-09-29T12:26:00Z</time>
      </trkpt>
      <trkpt lat="46.81702" lon="6.78604">
        <ele>433.5</ele>
        <time>2022-09-29T12:26:01Z</time>
      </trkpt>
      <trkpt lat="46.81706" lon="6.78609">
        <ele>433.4</ele>
        <time>2022-09-29T12:26:02Z</time>
      </trkpt>
      <trkpt lat="46.81711" lon="6.78615">
        <ele>433.2</ele>
        <time>2022-09-29T12:26:03Z</time>
      </trkpt>
      <trkpt lat="46.81716" lon="6.78622">
        <ele>433.1</ele>
        <time>2022-09-29T12:26:04Z</time>
      </trkpt>
      <trkpt lat="46.81721" lon="6.78628">
        <ele>433</ele>
        <time>2022-09-29T12:26:05Z</time>
      </trkpt>
      <trkpt lat="46.81725" lon="6.78634">
        <ele>432.9</ele>
        <time>2022-09-29T12:26:06Z</time>
      </trkpt>
      <trkpt lat="46.81729" lon="6.7864">
        <ele>432.8</ele>
        <time>2022-09-29T12:26:07Z</time>
      </trkpt>
      <trkpt lat="46.81733" lon="6.78646">
        <ele>432.8</ele>
        <time>2022-09-29T12:26:08Z</time>
      </trkpt>
      <trkpt lat="46.81735" lon="6.78653">
        <ele>432.7</ele>
        <time>2022-09-29T12:26:09Z</time>
      </trkpt>
      <trkpt lat="46.81739" lon="6.7866">
        <ele>432.7</ele>
        <time>2022-09-29T12:26:10Z</time>
      </trkpt>
      <trkpt lat="46.81742" lon="6.78666">
        <ele>432.6</ele>
        <time>2022-09-29T12:26:11Z</time>
      </trkpt>
      <trkpt lat="46.81745" lon="6.78672">
        <ele>432.6</ele>
        <time>2022-09-29T12:26:12Z</time>
      </trkpt>
      <trkpt lat="46.81748" lon="6.78678">
        <ele>432.5</ele>
        <time>2022-09-29T12:26:13Z</time>
      </trkpt>
      <trkpt lat="46.81751" lon="6.78683">
        <ele>432.5</ele>
        <time>2022-09-29T12:26:14Z</time>
      </trkpt>
      <trkpt lat="46.81755" lon="6.78691">
        <ele>432.5</ele>
        <time>2022-09-29T12:26:15Z</time>
      </trkpt>
      <trkpt lat="46.81758" lon="6.78695">
        <ele>432.5</ele>
        <time>2022-09-29T12:26:16Z</time>
      </trkpt>
      <trkpt lat="46.81762" lon="6.78701">
        <ele>432.5</ele>
        <time>2022-09-29T12:26:17Z</time>
      </trkpt>
      <trkpt lat="46.81765" lon="6.78707">
        <ele>432.5</ele>
        <time>2022-09-29T12:26:18Z</time>
      </trkpt>
      <trkpt lat="46.81769" lon="6.78713">
        <ele>432.5</ele>
        <time>2022-09-29T12:26:19Z</time>
      </trkpt>
      <trkpt lat="46.81771" lon="6.7872">
        <ele>432.5</ele>
        <time>2022-09-29T12:26:20Z</time>
      </trkpt>
      <trkpt lat="46.81775" lon="6.78724">
        <ele>432.5</ele>
        <time>2022-09-29T12:26:21Z</time>
      </trkpt>
      <trkpt lat="46.81779" lon="6.7873">
        <ele>432.5</ele>
        <time>2022-09-29T12:26:22Z</time>
      </trkpt>
      <trkpt lat="46.81782" lon="6.78737">
        <ele>432.5</ele>
        <time>2022-09-29T12:26:23Z</time>
      </trkpt>
      <trkpt lat="46.81784" lon="6.78741">
        <ele>432.6</ele>
        <time>2022-09-29T12:26:24Z</time>
      </trkpt>
      <trkpt lat="46.81789" lon="6.78748">
        <ele>432.6</ele>
        <time>2022-09-29T12:26:25Z</time>
      </trkpt>
      <trkpt lat="46.81792" lon="6.78752">
        <ele>432.6</ele>
        <time>2022-09-29T12:26:26Z</time>
      </trkpt>
      <trkpt lat="46.81794" lon="6.78758">
        <ele>432.6</ele>
        <time>2022-09-29T12:26:27Z</time>
      </trkpt>
      <trkpt lat="46.81798" lon="6.78764">
        <ele>432.6</ele>
        <time>2022-09-29T12:26:28Z</time>
      </trkpt>
      <trkpt lat="46.81801" lon="6.78768">
        <ele>432.6</ele>
        <time>2022-09-29T12:26:29Z</time>
      </trkpt>
      <trkpt lat="46.81805" lon="6.78774">
        <ele>432.6</ele>
        <time>2022-09-29T12:26:30Z</time>
      </trkpt>
      <trkpt lat="46.81808" lon="6.78779">
        <ele>432.6</ele>
        <time>2022-09-29T12:26:31Z</time>
      </trkpt>
      <trkpt lat="46.81811" lon="6.78784">
        <ele>432.6</ele>
        <time>2022-09-29T12:26:32Z</time>
      </trkpt>
      <trkpt lat="46.81815" lon="6.7879">
        <ele>432.6</ele>
        <time>2022-09-29T12:26:33Z</time>
      </trkpt>
      <trkpt lat="46.81818" lon="6.78795">
        <ele>432.6</ele>
        <time>2022-09-29T12:26:34Z</time>
      </trkpt>
      <trkpt lat="46.81821" lon="6.78801">
        <ele>432.7</ele>
        <time>2022-09-29T12:26:35Z</time>
      </trkpt>
      <trkpt lat="46.81825" lon="6.78806">
        <ele>432.7</ele>
        <time>2022-09-29T12:26:36Z</time>
      </trkpt>
      <trkpt lat="46.81828" lon="6.78811">
        <ele>432.7</ele>
        <time>2022-09-29T12:26:37Z</time>
      </trkpt>
      <trkpt lat="46.81831" lon="6.78816">
        <ele>432.7</ele>
        <time>2022-09-29T12:26:38Z</time>
      </trkpt>
      <trkpt lat="46.81835" lon="6.78821">
        <ele>432.7</ele>
        <time>2022-09-29T12:26:39Z</time>
      </trkpt>
      <trkpt lat="46.81838" lon="6.78827">
        <ele>432.7</ele>
        <time>2022-09-29T12:26:40Z</time>
      </trkpt>
      <trkpt lat="46.8184" lon="6.78833">
        <ele>432.7</ele>
        <time>2022-09-29T12:26:41Z</time>
      </trkpt>
      <trkpt lat="46.81843" lon="6.78838">
        <ele>432.7</ele>
        <time>2022-09-29T12:26:42Z</time>
      </trkpt>
      <trkpt lat="46.81847" lon="6.78843">
        <ele>432.7</ele>
        <time>2022-09-29T12:26:43Z</time>
      </trkpt>
      <trkpt lat="46.81849" lon="6.78849">
        <ele>432.7</ele>
        <time>2022-09-29T12:26:44Z</time>
      </trkpt>
      <trkpt lat="46.81852" lon="6.78854">
        <ele>432.7</ele>
        <time>2022-09-29T12:26:45Z</time>
      </trkpt>
      <trkpt lat="46.81855" lon="6.7886">
        <ele>432.6</ele>
        <time>2022-09-29T12:26:46Z</time>
      </trkpt>
      <trkpt lat="46.81857" lon="6.78865">
        <ele>432.6</ele>
        <time>2022-09-29T12:26:47Z</time>
      </trkpt>
      <trkpt lat="46.8186" lon="6.78871">
        <ele>432.6</ele>
        <time>2022-09-29T12:26:48Z</time>
      </trkpt>
      <trkpt lat="46.81863" lon="6.78876">
        <ele>432.6</ele>
        <time>2022-09-29T12:26:49Z</time>
      </trkpt>
      <trkpt lat="46.81866" lon="6.78882">
        <ele>432.6</ele>
        <time>2022-09-29T12:26:50Z</time>
      </trkpt>
      <trkpt lat="46.8187" lon="6.78886">
        <ele>432.6</ele>
        <time>2022-09-29T12:26:51Z</time>
      </trkpt>
      <trkpt lat="46.81873" lon="6.78889">
        <ele>432.6</ele>
        <time>2022-09-29T12:26:52Z</time>
      </trkpt>
      <trkpt lat="46.81877" lon="6.78891">
        <ele>432.5</ele>
        <time>2022-09-29T12:26:53Z</time>
      </trkpt>
      <trkpt lat="46.8188" lon="6.78892">
        <ele>432.5</ele>
        <time>2022-09-29T12:26:54Z</time>
      </trkpt>
      <trkpt lat="46.81884" lon="6.78891">
        <ele>432.5</ele>
        <time>2022-09-29T12:26:55Z</time>
      </trkpt>
      <trkpt lat="46.81888" lon="6.7889">
        <ele>432.5</ele>
        <time>2022-09-29T12:26:56Z</time>
      </trkpt>
      <trkpt lat="46.81892" lon="6.7889">
        <ele>432.4</ele>
        <time>2022-09-29T12:26:57Z</time>
      </trkpt>
      <trkpt lat="46.81897" lon="6.78891">
        <ele>432.4</ele>
        <time>2022-09-29T12:26:58Z</time>
      </trkpt>
      <trkpt lat="46.81901" lon="6.78894">
        <ele>432.4</ele>
        <time>2022-09-29T12:26:59Z</time>
      </trkpt>
      <trkpt lat="46.81905" lon="6.78898">
        <ele>432.3</ele>
        <time>2022-09-29T12:27:00Z</time>
      </trkpt>
      <trkpt lat="46.81909" lon="6.78903">
        <ele>432.3</ele>
        <time>2022-09-29T12:27:01Z</time>
      </trkpt>
      <trkpt lat="46.81912" lon="6.78909">
        <ele>432.3</ele>
        <time>2022-09-29T12:27:02Z</time>
      </trkpt>
      <trkpt lat="46.81916" lon="6.78915">
        <ele>432.3</ele>
        <time>2022-09-29T12:27:03Z</time>
      </trkpt>
      <trkpt lat="46.81919" lon="6.78921">
        <ele>432.4</ele>
        <time>2022-09-29T12:27:04Z</time>
      </trkpt>
      <trkpt lat="46.81922" lon="6.78926">
        <ele>432.4</ele>
        <time>2022-09-29T12:27:05Z</time>
      </trkpt>
      <trkpt lat="46.81925" lon="6.78931">
        <ele>432.5</ele>
        <time>2022-09-29T12:27:06Z</time>
      </trkpt>
      <trkpt lat="46.81929" lon="6.78934">
        <ele>432.5</ele>
        <time>2022-09-29T12:27:07Z</time>
      </trkpt>
      <trkpt lat="46.81931" lon="6.78942">
        <ele>432.5</ele>
        <time>2022-09-29T12:27:08Z</time>
      </trkpt>
      <trkpt lat="46.81934" lon="6.78945">
        <ele>432.5</ele>
        <time>2022-09-29T12:27:09Z</time>
      </trkpt>
      <trkpt lat="46.81938" lon="6.78951">
        <ele>432.5</ele>
        <time>2022-09-29T12:27:10Z</time>
      </trkpt>
      <trkpt lat="46.81941" lon="6.78956">
        <ele>432.5</ele>
        <time>2022-09-29T12:27:11Z</time>
      </trkpt>
      <trkpt lat="46.81943" lon="6.78961">
        <ele>432.5</ele>
        <time>2022-09-29T12:27:12Z</time>
      </trkpt>
      <trkpt lat="46.81946" lon="6.78966">
        <ele>432.5</ele>
        <time>2022-09-29T12:27:13Z</time>
      </trkpt>
      <trkpt lat="46.81949" lon="6.78971">
        <ele>432.5</ele>
        <time>2022-09-29T12:27:14Z</time>
      </trkpt>
      <trkpt lat="46.81952" lon="6.78975">
        <ele>432.6</ele>
        <time>2022-09-29T12:27:15Z</time>
      </trkpt>
      <trkpt lat="46.81955" lon="6.78981">
        <ele>432.6</ele>
        <time>2022-09-29T12:27:16Z</time>
      </trkpt>
      <trkpt lat="46.81958" lon="6.78986">
        <ele>432.6</ele>
        <time>2022-09-29T12:27:17Z</time>
      </trkpt>
      <trkpt lat="46.8196" lon="6.7899">
        <ele>432.6</ele>
        <time>2022-09-29T12:27:18Z</time>
      </trkpt>
      <trkpt lat="46.81964" lon="6.78995">
        <ele>432.6</ele>
        <time>2022-09-29T12:27:19Z</time>
      </trkpt>
      <trkpt lat="46.81967" lon="6.78999">
        <ele>432.7</ele>
        <time>2022-09-29T12:27:20Z</time>
      </trkpt>
      <trkpt lat="46.8197" lon="6.79004">
        <ele>432.7</ele>
        <time>2022-09-29T12:27:21Z</time>
      </trkpt>
      <trkpt lat="46.81972" lon="6.79009">
        <ele>432.7</ele>
        <time>2022-09-29T12:27:22Z</time>
      </trkpt>
      <trkpt lat="46.81975" lon="6.79014">
        <ele>432.7</ele>
        <time>2022-09-29T12:27:23Z</time>
      </trkpt>
      <trkpt lat="46.81977" lon="6.79018">
        <ele>432.8</ele>
        <time>2022-09-29T12:27:24Z</time>
      </trkpt>
      <trkpt lat="46.8198" lon="6.79023">
        <ele>432.8</ele>
        <time>2022-09-29T12:27:25Z</time>
      </trkpt>
      <trkpt lat="46.81982" lon="6.79027">
        <ele>432.8</ele>
        <time>2022-09-29T12:27:26Z</time>
      </trkpt>
      <trkpt lat="46.81985" lon="6.79032">
        <ele>432.8</ele>
        <time>2022-09-29T12:27:27Z</time>
      </trkpt>
      <trkpt lat="46.81987" lon="6.79036">
        <ele>432.8</ele>
        <time>2022-09-29T12:27:28Z</time>
      </trkpt>
      <trkpt lat="46.8199" lon="6.79041">
        <ele>432.8</ele>
        <time>2022-09-29T12:27:29Z</time>
      </trkpt>
      <trkpt lat="46.81994" lon="6.79045">
        <ele>432.8</ele>
        <time>2022-09-29T12:27:30Z</time>
      </trkpt>
      <trkpt lat="46.81997" lon="6.79051">
        <ele>432.8</ele>
        <time>2022-09-29T12:27:31Z</time>
      </trkpt>
      <trkpt lat="46.82" lon="6.79056">
        <ele>432.8</ele>
        <time>2022-09-29T12:27:32Z</time>
      </trkpt>
      <trkpt lat="46.82003" lon="6.79061">
        <ele>432.8</ele>
        <time>2022-09-29T12:27:33Z</time>
      </trkpt>
      <trkpt lat="46.82006" lon="6.79066">
        <ele>432.8</ele>
        <time>2022-09-29T12:27:34Z</time>
      </trkpt>
      <trkpt lat="46.82009" lon="6.79071">
        <ele>432.8</ele>
        <time>2022-09-29T12:27:35Z</time>
      </trkpt>
      <trkpt lat="46.82012" lon="6.79076">
        <ele>432.8</ele>
        <time>2022-09-29T12:27:36Z</time>
      </trkpt>
      <trkpt lat="46.82016" lon="6.79081">
        <ele>432.8</ele>
        <time>2022-09-29T12:27:37Z</time>
      </trkpt>
      <trkpt lat="46.82019" lon="6.79086">
        <ele>432.8</ele>
        <time>2022-09-29T12:27:38Z</time>
      </trkpt>
      <trkpt lat="46.82022" lon="6.79091">
        <ele>432.8</ele>
        <time>2022-09-29T12:27:39Z</time>
      </trkpt>
      <trkpt lat="46.82025" lon="6.79097">
        <ele>432.9</ele>
        <time>2022-09-29T12:27:40Z</time>
      </trkpt>
      <trkpt lat="46.82028" lon="6.79101">
        <ele>432.9</ele>
        <time>2022-09-29T12:27:41Z</time>
      </trkpt>
      <trkpt lat="46.82031" lon="6.79107">
        <ele>432.9</ele>
        <time>2022-09-29T12:27:42Z</time>
      </trkpt>
      <trkpt lat="46.82035" lon="6.79112">
        <ele>432.9</ele>
        <time>2022-09-29T12:27:44Z</time>
      </trkpt>
      <trkpt lat="46.82037" lon="6.79117">
        <ele>432.9</ele>
        <time>2022-09-29T12:27:45Z</time>
      </trkpt>
      <trkpt lat="46.8204" lon="6.79122">
        <ele>432.9</ele>
        <time>2022-09-29T12:27:46Z</time>
      </trkpt>
      <trkpt lat="46.82042" lon="6.79128">
        <ele>432.9</ele>
        <time>2022-09-29T12:27:47Z</time>
      </trkpt>
      <trkpt lat="46.82045" lon="6.79133">
        <ele>432.9</ele>
        <time>2022-09-29T12:27:48Z</time>
      </trkpt>
      <trkpt lat="46.82047" lon="6.79138">
        <ele>432.9</ele>
        <time>2022-09-29T12:27:49Z</time>
      </trkpt>
      <trkpt lat="46.8205" lon="6.79143">
        <ele>432.9</ele>
        <time>2022-09-29T12:27:50Z</time>
      </trkpt>
      <trkpt lat="46.82055" lon="6.79152">
        <ele>432.9</ele>
        <time>2022-09-29T12:27:51Z</time>
      </trkpt>
      <trkpt lat="46.82058" lon="6.79157">
        <ele>432.9</ele>
        <time>2022-09-29T12:27:52Z</time>
      </trkpt>
      <trkpt lat="46.82062" lon="6.79162">
        <ele>432.9</ele>
        <time>2022-09-29T12:27:53Z</time>
      </trkpt>
      <trkpt lat="46.82065" lon="6.79167">
        <ele>432.9</ele>
        <time>2022-09-29T12:27:54Z</time>
      </trkpt>
      <trkpt lat="46.82068" lon="6.79172">
        <ele>432.9</ele>
        <time>2022-09-29T12:27:55Z</time>
      </trkpt>
      <trkpt lat="46.82071" lon="6.79177">
        <ele>432.9</ele>
        <time>2022-09-29T12:27:56Z</time>
      </trkpt>
      <trkpt lat="46.82074" lon="6.79183">
        <ele>432.9</ele>
        <time>2022-09-29T12:27:57Z</time>
      </trkpt>
      <trkpt lat="46.82077" lon="6.79187">
        <ele>432.8</ele>
        <time>2022-09-29T12:27:58Z</time>
      </trkpt>
      <trkpt lat="46.8208" lon="6.79192">
        <ele>432.8</ele>
        <time>2022-09-29T12:27:59Z</time>
      </trkpt>
      <trkpt lat="46.82084" lon="6.79197">
        <ele>432.8</ele>
        <time>2022-09-29T12:28:00Z</time>
      </trkpt>
      <trkpt lat="46.82087" lon="6.79202">
        <ele>432.8</ele>
        <time>2022-09-29T12:28:01Z</time>
      </trkpt>
      <trkpt lat="46.8209" lon="6.79207">
        <ele>432.8</ele>
        <time>2022-09-29T12:28:02Z</time>
      </trkpt>
      <trkpt lat="46.82094" lon="6.79212">
        <ele>432.8</ele>
        <time>2022-09-29T12:28:03Z</time>
      </trkpt>
      <trkpt lat="46.82097" lon="6.79217">
        <ele>432.8</ele>
        <time>2022-09-29T12:28:04Z</time>
      </trkpt>
      <trkpt lat="46.821" lon="6.79222">
        <ele>432.8</ele>
        <time>2022-09-29T12:28:05Z</time>
      </trkpt>
      <trkpt lat="46.82103" lon="6.79227">
        <ele>432.8</ele>
        <time>2022-09-29T12:28:06Z</time>
      </trkpt>
      <trkpt lat="46.82106" lon="6.79232">
        <ele>432.8</ele>
        <time>2022-09-29T12:28:07Z</time>
      </trkpt>
      <trkpt lat="46.82109" lon="6.79238">
        <ele>432.8</ele>
        <time>2022-09-29T12:28:08Z</time>
      </trkpt>
      <trkpt lat="46.82112" lon="6.79242">
        <ele>432.8</ele>
        <time>2022-09-29T12:28:09Z</time>
      </trkpt>
      <trkpt lat="46.82115" lon="6.79247">
        <ele>432.9</ele>
        <time>2022-09-29T12:28:10Z</time>
      </trkpt>
      <trkpt lat="46.82118" lon="6.79251">
        <ele>432.9</ele>
        <time>2022-09-29T12:28:11Z</time>
      </trkpt>
      <trkpt lat="46.82122" lon="6.79256">
        <ele>432.9</ele>
        <time>2022-09-29T12:28:12Z</time>
      </trkpt>
      <trkpt lat="46.82125" lon="6.7926">
        <ele>432.9</ele>
        <time>2022-09-29T12:28:13Z</time>
      </trkpt>
      <trkpt lat="46.82129" lon="6.79265">
        <ele>432.9</ele>
        <time>2022-09-29T12:28:14Z</time>
      </trkpt>
      <trkpt lat="46.82132" lon="6.79269">
        <ele>432.9</ele>
        <time>2022-09-29T12:28:15Z</time>
      </trkpt>
      <trkpt lat="46.82135" lon="6.79274">
        <ele>432.9</ele>
        <time>2022-09-29T12:28:16Z</time>
      </trkpt>
      <trkpt lat="46.82138" lon="6.79278">
        <ele>432.9</ele>
        <time>2022-09-29T12:28:17Z</time>
      </trkpt>
      <trkpt lat="46.82141" lon="6.79283">
        <ele>432.9</ele>
        <time>2022-09-29T12:28:18Z</time>
      </trkpt>
      <trkpt lat="46.82144" lon="6.79288">
        <ele>432.9</ele>
        <time>2022-09-29T12:28:19Z</time>
      </trkpt>
      <trkpt lat="46.82148" lon="6.79293">
        <ele>432.9</ele>
        <time>2022-09-29T12:28:20Z</time>
      </trkpt>
      <trkpt lat="46.82151" lon="6.79298">
        <ele>433</ele>
        <time>2022-09-29T12:28:21Z</time>
      </trkpt>
      <trkpt lat="46.82155" lon="6.79303">
        <ele>433</ele>
        <time>2022-09-29T12:28:22Z</time>
      </trkpt>
      <trkpt lat="46.82158" lon="6.79308">
        <ele>433</ele>
        <time>2022-09-29T12:28:23Z</time>
      </trkpt>
      <trkpt lat="46.82161" lon="6.79312">
        <ele>433</ele>
        <time>2022-09-29T12:28:24Z</time>
      </trkpt>
      <trkpt lat="46.82164" lon="6.79316">
        <ele>433.1</ele>
        <time>2022-09-29T12:28:25Z</time>
      </trkpt>
      <trkpt lat="46.82167" lon="6.79322">
        <ele>433.1</ele>
        <time>2022-09-29T12:28:26Z</time>
      </trkpt>
      <trkpt lat="46.8217" lon="6.79326">
        <ele>433.2</ele>
        <time>2022-09-29T12:28:27Z</time>
      </trkpt>
      <trkpt lat="46.82172" lon="6.79331">
        <ele>433.2</ele>
        <time>2022-09-29T12:28:28Z</time>
      </trkpt>
      <trkpt lat="46.82174" lon="6.79336">
        <ele>433.3</ele>
        <time>2022-09-29T12:28:29Z</time>
      </trkpt>
      <trkpt lat="46.82175" lon="6.79341">
        <ele>433.4</ele>
        <time>2022-09-29T12:28:30Z</time>
      </trkpt>
      <trkpt lat="46.82177" lon="6.79346">
        <ele>433.4</ele>
        <time>2022-09-29T12:28:31Z</time>
      </trkpt>
      <trkpt lat="46.82179" lon="6.79351">
        <ele>433.5</ele>
        <time>2022-09-29T12:28:32Z</time>
      </trkpt>
      <trkpt lat="46.8218" lon="6.79357">
        <ele>433.5</ele>
        <time>2022-09-29T12:28:33Z</time>
      </trkpt>
      <trkpt lat="46.8218" lon="6.79362">
        <ele>433.6</ele>
        <time>2022-09-29T12:28:34Z</time>
      </trkpt>
      <trkpt lat="46.82179" lon="6.79367">
        <ele>433.7</ele>
        <time>2022-09-29T12:28:35Z</time>
      </trkpt>
      <trkpt lat="46.82177" lon="6.79371">
        <ele>433.8</ele>
        <time>2022-09-29T12:28:36Z</time>
      </trkpt>
      <trkpt lat="46.82176" lon="6.79374">
        <ele>433.9</ele>
        <time>2022-09-29T12:28:37Z</time>
      </trkpt>
      <trkpt lat="46.82174" lon="6.79378">
        <ele>434.1</ele>
        <time>2022-09-29T12:28:38Z</time>
      </trkpt>
      <trkpt lat="46.82172" lon="6.79382">
        <ele>434.2</ele>
        <time>2022-09-29T12:28:39Z</time>
      </trkpt>
      <trkpt lat="46.82171" lon="6.79383">
        <ele>434.2</ele>
        <time>2022-09-29T12:28:40Z</time>
      </trkpt>
      <trkpt lat="46.82168" lon="6.79386">
        <ele>434.4</ele>
        <time>2022-09-29T12:28:41Z</time>
      </trkpt>
      <trkpt lat="46.82168" lon="6.79388">
        <ele>434.4</ele>
        <time>2022-09-29T12:28:42Z</time>
      </trkpt>
      <trkpt lat="46.82166" lon="6.79389">
        <ele>434.5</ele>
        <time>2022-09-29T12:28:43Z</time>
      </trkpt>
      <trkpt lat="46.82165" lon="6.79391">
        <ele>434.5</ele>
        <time>2022-09-29T12:28:44Z</time>
      </trkpt>
      <trkpt lat="46.82164" lon="6.79395">
        <ele>434.6</ele>
        <time>2022-09-29T12:28:45Z</time>
      </trkpt>
      <trkpt lat="46.82163" lon="6.79396">
        <ele>434.6</ele>
        <time>2022-09-29T12:28:46Z</time>
      </trkpt>
      <trkpt lat="46.82163" lon="6.79399">
        <ele>434.7</ele>
        <time>2022-09-29T12:28:47Z</time>
      </trkpt>
      <trkpt lat="46.82163" lon="6.79401">
        <ele>434.7</ele>
        <time>2022-09-29T12:28:48Z</time>
      </trkpt>
      <trkpt lat="46.82164" lon="6.79405">
        <ele>434.6</ele>
        <time>2022-09-29T12:28:49Z</time>
      </trkpt>
      <trkpt lat="46.82165" lon="6.79406">
        <ele>434.5</ele>
        <time>2022-09-29T12:28:50Z</time>
      </trkpt>
      <trkpt lat="46.82167" lon="6.79409">
        <ele>434.5</ele>
        <time>2022-09-29T12:28:51Z</time>
      </trkpt>
      <trkpt lat="46.82168" lon="6.7941">
        <ele>434.4</ele>
        <time>2022-09-29T12:28:52Z</time>
      </trkpt>
      <trkpt lat="46.82172" lon="6.79414">
        <ele>434.3</ele>
        <time>2022-09-29T12:28:53Z</time>
      </trkpt>
      <trkpt lat="46.82173" lon="6.79415">
        <ele>434.2</ele>
        <time>2022-09-29T12:28:54Z</time>
      </trkpt>
      <trkpt lat="46.82176" lon="6.79419">
        <ele>434.1</ele>
        <time>2022-09-29T12:28:55Z</time>
      </trkpt>
      <trkpt lat="46.82177" lon="6.79421">
        <ele>434</ele>
        <time>2022-09-29T12:28:56Z</time>
      </trkpt>
      <trkpt lat="46.82179" lon="6.79424">
        <ele>433.9</ele>
        <time>2022-09-29T12:28:57Z</time>
      </trkpt>
      <trkpt lat="46.82182" lon="6.79428">
        <ele>433.8</ele>
        <time>2022-09-29T12:28:58Z</time>
      </trkpt>
      <trkpt lat="46.82184" lon="6.79431">
        <ele>433.6</ele>
        <time>2022-09-29T12:28:59Z</time>
      </trkpt>
      <trkpt lat="46.82186" lon="6.79435">
        <ele>433.5</ele>
        <time>2022-09-29T12:29:00Z</time>
      </trkpt>
      <trkpt lat="46.82189" lon="6.79439">
        <ele>433.3</ele>
        <time>2022-09-29T12:29:01Z</time>
      </trkpt>
      <trkpt lat="46.82192" lon="6.79443">
        <ele>433.2</ele>
        <time>2022-09-29T12:29:02Z</time>
      </trkpt>
      <trkpt lat="46.82194" lon="6.79447">
        <ele>433.1</ele>
        <time>2022-09-29T12:29:03Z</time>
      </trkpt>
      <trkpt lat="46.82197" lon="6.79452">
        <ele>432.9</ele>
        <time>2022-09-29T12:29:04Z</time>
      </trkpt>
      <trkpt lat="46.822" lon="6.79457">
        <ele>432.8</ele>
        <time>2022-09-29T12:29:05Z</time>
      </trkpt>
      <trkpt lat="46.82203" lon="6.79461">
        <ele>432.7</ele>
        <time>2022-09-29T12:29:06Z</time>
      </trkpt>
      <trkpt lat="46.82206" lon="6.79466">
        <ele>432.6</ele>
        <time>2022-09-29T12:29:07Z</time>
      </trkpt>
      <trkpt lat="46.82209" lon="6.79471">
        <ele>432.5</ele>
        <time>2022-09-29T12:29:08Z</time>
      </trkpt>
      <trkpt lat="46.82213" lon="6.79476">
        <ele>432.4</ele>
        <time>2022-09-29T12:29:09Z</time>
      </trkpt>
      <trkpt lat="46.82216" lon="6.7948">
        <ele>432.3</ele>
        <time>2022-09-29T12:29:10Z</time>
      </trkpt>
      <trkpt lat="46.8222" lon="6.79486">
        <ele>432.3</ele>
        <time>2022-09-29T12:29:11Z</time>
      </trkpt>
      <trkpt lat="46.82223" lon="6.79491">
        <ele>432.2</ele>
        <time>2022-09-29T12:29:12Z</time>
      </trkpt>
      <trkpt lat="46.82226" lon="6.79496">
        <ele>432.2</ele>
        <time>2022-09-29T12:29:13Z</time>
      </trkpt>
      <trkpt lat="46.8223" lon="6.79501">
        <ele>432.1</ele>
        <time>2022-09-29T12:29:14Z</time>
      </trkpt>
      <trkpt lat="46.82233" lon="6.79506">
        <ele>432.1</ele>
        <time>2022-09-29T12:29:15Z</time>
      </trkpt>
      <trkpt lat="46.82236" lon="6.79511">
        <ele>432</ele>
        <time>2022-09-29T12:29:16Z</time>
      </trkpt>
      <trkpt lat="46.8224" lon="6.79515">
        <ele>432</ele>
        <time>2022-09-29T12:29:17Z</time>
      </trkpt>
      <trkpt lat="46.82243" lon="6.7952">
        <ele>432</ele>
        <time>2022-09-29T12:29:18Z</time>
      </trkpt>
      <trkpt lat="46.82246" lon="6.79525">
        <ele>432</ele>
        <time>2022-09-29T12:29:19Z</time>
      </trkpt>
      <trkpt lat="46.8225" lon="6.7953">
        <ele>431.9</ele>
        <time>2022-09-29T12:29:20Z</time>
      </trkpt>
      <trkpt lat="46.82253" lon="6.79535">
        <ele>431.9</ele>
        <time>2022-09-29T12:29:21Z</time>
      </trkpt>
      <trkpt lat="46.82256" lon="6.7954">
        <ele>431.9</ele>
        <time>2022-09-29T12:29:22Z</time>
      </trkpt>
      <trkpt lat="46.82259" lon="6.79544">
        <ele>431.9</ele>
        <time>2022-09-29T12:29:23Z</time>
      </trkpt>
      <trkpt lat="46.82263" lon="6.79549">
        <ele>431.9</ele>
        <time>2022-09-29T12:29:24Z</time>
      </trkpt>
      <trkpt lat="46.82266" lon="6.79553">
        <ele>431.9</ele>
        <time>2022-09-29T12:29:25Z</time>
      </trkpt>
      <trkpt lat="46.82269" lon="6.79557">
        <ele>431.9</ele>
        <time>2022-09-29T12:29:26Z</time>
      </trkpt>
      <trkpt lat="46.82272" lon="6.79561">
        <ele>431.9</ele>
        <time>2022-09-29T12:29:27Z</time>
      </trkpt>
      <trkpt lat="46.82275" lon="6.79566">
        <ele>431.9</ele>
        <time>2022-09-29T12:29:28Z</time>
      </trkpt>
      <trkpt lat="46.82278" lon="6.7957">
        <ele>432</ele>
        <time>2022-09-29T12:29:29Z</time>
      </trkpt>
      <trkpt lat="46.82281" lon="6.79574">
        <ele>432</ele>
        <time>2022-09-29T12:29:30Z</time>
      </trkpt>
      <trkpt lat="46.82284" lon="6.79579">
        <ele>432</ele>
        <time>2022-09-29T12:29:31Z</time>
      </trkpt>
      <trkpt lat="46.82287" lon="6.79583">
        <ele>432.1</ele>
        <time>2022-09-29T12:29:32Z</time>
      </trkpt>
      <trkpt lat="46.82291" lon="6.79587">
        <ele>432.1</ele>
        <time>2022-09-29T12:29:33Z</time>
      </trkpt>
      <trkpt lat="46.82294" lon="6.79591">
        <ele>432.2</ele>
        <time>2022-09-29T12:29:34Z</time>
      </trkpt>
      <trkpt lat="46.82297" lon="6.79596">
        <ele>432.2</ele>
        <time>2022-09-29T12:29:35Z</time>
      </trkpt>
      <trkpt lat="46.823" lon="6.796">
        <ele>432.3</ele>
        <time>2022-09-29T12:29:36Z</time>
      </trkpt>
      <trkpt lat="46.82303" lon="6.79605">
        <ele>432.3</ele>
        <time>2022-09-29T12:29:37Z</time>
      </trkpt>
      <trkpt lat="46.82306" lon="6.79608">
        <ele>432.4</ele>
        <time>2022-09-29T12:29:38Z</time>
      </trkpt>
      <trkpt lat="46.82309" lon="6.79611">
        <ele>432.4</ele>
        <time>2022-09-29T12:29:39Z</time>
      </trkpt>
      <trkpt lat="46.82312" lon="6.79615">
        <ele>432.5</ele>
        <time>2022-09-29T12:29:40Z</time>
      </trkpt>
      <trkpt lat="46.82316" lon="6.79618">
        <ele>432.6</ele>
        <time>2022-09-29T12:29:41Z</time>
      </trkpt>
      <trkpt lat="46.82319" lon="6.79621">
        <ele>432.7</ele>
        <time>2022-09-29T12:29:42Z</time>
      </trkpt>
      <trkpt lat="46.82322" lon="6.79625">
        <ele>432.7</ele>
        <time>2022-09-29T12:29:43Z</time>
      </trkpt>
      <trkpt lat="46.82324" lon="6.79628">
        <ele>432.8</ele>
        <time>2022-09-29T12:29:44Z</time>
      </trkpt>
      <trkpt lat="46.82326" lon="6.7963">
        <ele>432.8</ele>
        <time>2022-09-29T12:29:45Z</time>
      </trkpt>
      <trkpt lat="46.82328" lon="6.79632">
        <ele>432.9</ele>
        <time>2022-09-29T12:29:46Z</time>
      </trkpt>
      <trkpt lat="46.82331" lon="6.79636">
        <ele>432.9</ele>
        <time>2022-09-29T12:29:47Z</time>
      </trkpt>
      <trkpt lat="46.82333" lon="6.79639">
        <ele>433</ele>
        <time>2022-09-29T12:29:48Z</time>
      </trkpt>
      <trkpt lat="46.82335" lon="6.79643">
        <ele>433</ele>
        <time>2022-09-29T12:29:49Z</time>
      </trkpt>
      <trkpt lat="46.82338" lon="6.79647">
        <ele>433</ele>
        <time>2022-09-29T12:29:50Z</time>
      </trkpt>
      <trkpt lat="46.8234" lon="6.7965">
        <ele>433.1</ele>
        <time>2022-09-29T12:29:51Z</time>
      </trkpt>
      <trkpt lat="46.82342" lon="6.79653">
        <ele>433.1</ele>
        <time>2022-09-29T12:29:52Z</time>
      </trkpt>
      <trkpt lat="46.82345" lon="6.79657">
        <ele>433.1</ele>
        <time>2022-09-29T12:29:53Z</time>
      </trkpt>
      <trkpt lat="46.82347" lon="6.79658">
        <ele>433.2</ele>
        <time>2022-09-29T12:29:54Z</time>
      </trkpt>
      <trkpt lat="46.82349" lon="6.79663">
        <ele>433.2</ele>
        <time>2022-09-29T12:29:55Z</time>
      </trkpt>
      <trkpt lat="46.8235" lon="6.79665">
        <ele>433.2</ele>
        <time>2022-09-29T12:29:56Z</time>
      </trkpt>
      <trkpt lat="46.82353" lon="6.79669">
        <ele>433.3</ele>
        <time>2022-09-29T12:29:57Z</time>
      </trkpt>
      <trkpt lat="46.82354" lon="6.7967">
        <ele>433.3</ele>
        <time>2022-09-29T12:29:58Z</time>
      </trkpt>
      <trkpt lat="46.82357" lon="6.79673">
        <ele>433.3</ele>
        <time>2022-09-29T12:29:59Z</time>
      </trkpt>
      <trkpt lat="46.82358" lon="6.79675">
        <ele>433.4</ele>
        <time>2022-09-29T12:30:00Z</time>
      </trkpt>
      <trkpt lat="46.8236" lon="6.79678">
        <ele>433.4</ele>
        <time>2022-09-29T12:30:01Z</time>
      </trkpt>
      <trkpt lat="46.82362" lon="6.79681">
        <ele>433.4</ele>
        <time>2022-09-29T12:30:02Z</time>
      </trkpt>
      <trkpt lat="46.82364" lon="6.79684">
        <ele>433.5</ele>
        <time>2022-09-29T12:30:03Z</time>
      </trkpt>
      <trkpt lat="46.82367" lon="6.79688">
        <ele>433.5</ele>
        <time>2022-09-29T12:30:04Z</time>
      </trkpt>
      <trkpt lat="46.82369" lon="6.79691">
        <ele>433.6</ele>
        <time>2022-09-29T12:30:05Z</time>
      </trkpt>
      <trkpt lat="46.82371" lon="6.79694">
        <ele>433.6</ele>
        <time>2022-09-29T12:30:06Z</time>
      </trkpt>
      <trkpt lat="46.82374" lon="6.79697">
        <ele>433.7</ele>
        <time>2022-09-29T12:30:07Z</time>
      </trkpt>
      <trkpt lat="46.82376" lon="6.797">
        <ele>433.7</ele>
        <time>2022-09-29T12:30:08Z</time>
      </trkpt>
      <trkpt lat="46.82379" lon="6.79704">
        <ele>433.7</ele>
        <time>2022-09-29T12:30:09Z</time>
      </trkpt>
      <trkpt lat="46.82381" lon="6.79707">
        <ele>433.8</ele>
        <time>2022-09-29T12:30:10Z</time>
      </trkpt>
      <trkpt lat="46.82383" lon="6.79709">
        <ele>433.8</ele>
        <time>2022-09-29T12:30:11Z</time>
      </trkpt>
      <trkpt lat="46.82385" lon="6.79712">
        <ele>433.9</ele>
        <time>2022-09-29T12:30:12Z</time>
      </trkpt>
      <trkpt lat="46.82388" lon="6.79715">
        <ele>433.9</ele>
        <time>2022-09-29T12:30:13Z</time>
      </trkpt>
      <trkpt lat="46.8239" lon="6.79719">
        <ele>433.9</ele>
        <time>2022-09-29T12:30:14Z</time>
      </trkpt>
      <trkpt lat="46.82393" lon="6.79722">
        <ele>434</ele>
        <time>2022-09-29T12:30:15Z</time>
      </trkpt>
      <trkpt lat="46.82395" lon="6.79725">
        <ele>434</ele>
        <time>2022-09-29T12:30:16Z</time>
      </trkpt>
      <trkpt lat="46.82397" lon="6.79728">
        <ele>434.1</ele>
        <time>2022-09-29T12:30:17Z</time>
      </trkpt>
      <trkpt lat="46.824" lon="6.79731">
        <ele>434.1</ele>
        <time>2022-09-29T12:30:18Z</time>
      </trkpt>
      <trkpt lat="46.82402" lon="6.79734">
        <ele>434.1</ele>
        <time>2022-09-29T12:30:19Z</time>
      </trkpt>
      <trkpt lat="46.82405" lon="6.79737">
        <ele>434.2</ele>
        <time>2022-09-29T12:30:20Z</time>
      </trkpt>
      <trkpt lat="46.82407" lon="6.7974">
        <ele>434.2</ele>
        <time>2022-09-29T12:30:21Z</time>
      </trkpt>
      <trkpt lat="46.8241" lon="6.79742">
        <ele>434.2</ele>
        <time>2022-09-29T12:30:22Z</time>
      </trkpt>
      <trkpt lat="46.82412" lon="6.79746">
        <ele>434.2</ele>
        <time>2022-09-29T12:30:23Z</time>
      </trkpt>
      <trkpt lat="46.82415" lon="6.7975">
        <ele>434.3</ele>
        <time>2022-09-29T12:30:24Z</time>
      </trkpt>
      <trkpt lat="46.82417" lon="6.79752">
        <ele>434.3</ele>
        <time>2022-09-29T12:30:25Z</time>
      </trkpt>
      <trkpt lat="46.8242" lon="6.79756">
        <ele>434.2</ele>
        <time>2022-09-29T12:30:26Z</time>
      </trkpt>
      <trkpt lat="46.82422" lon="6.79758">
        <ele>434.2</ele>
        <time>2022-09-29T12:30:27Z</time>
      </trkpt>
      <trkpt lat="46.82425" lon="6.79762">
        <ele>434.2</ele>
        <time>2022-09-29T12:30:28Z</time>
      </trkpt>
      <trkpt lat="46.82428" lon="6.79764">
        <ele>434.2</ele>
        <time>2022-09-29T12:30:29Z</time>
      </trkpt>
      <trkpt lat="46.82431" lon="6.79768">
        <ele>434.1</ele>
        <time>2022-09-29T12:30:30Z</time>
      </trkpt>
      <trkpt lat="46.82434" lon="6.7977">
        <ele>434.1</ele>
        <time>2022-09-29T12:30:31Z</time>
      </trkpt>
      <trkpt lat="46.82436" lon="6.79772">
        <ele>434</ele>
        <time>2022-09-29T12:30:32Z</time>
      </trkpt>
      <trkpt lat="46.82439" lon="6.79774">
        <ele>434</ele>
        <time>2022-09-29T12:30:33Z</time>
      </trkpt>
      <trkpt lat="46.82442" lon="6.79777">
        <ele>434</ele>
        <time>2022-09-29T12:30:34Z</time>
      </trkpt>
      <trkpt lat="46.82445" lon="6.7978">
        <ele>433.9</ele>
        <time>2022-09-29T12:30:35Z</time>
      </trkpt>
      <trkpt lat="46.82448" lon="6.79783">
        <ele>433.9</ele>
        <time>2022-09-29T12:30:36Z</time>
      </trkpt>
      <trkpt lat="46.82452" lon="6.79785">
        <ele>433.9</ele>
        <time>2022-09-29T12:30:37Z</time>
      </trkpt>
      <trkpt lat="46.82454" lon="6.79789">
        <ele>433.9</ele>
        <time>2022-09-29T12:30:38Z</time>
      </trkpt>
      <trkpt lat="46.82457" lon="6.79793">
        <ele>433.9</ele>
        <time>2022-09-29T12:30:39Z</time>
      </trkpt>
      <trkpt lat="46.8246" lon="6.79796">
        <ele>433.9</ele>
        <time>2022-09-29T12:30:40Z</time>
      </trkpt>
      <trkpt lat="46.82461" lon="6.798">
        <ele>433.9</ele>
        <time>2022-09-29T12:30:41Z</time>
      </trkpt>
      <trkpt lat="46.82463" lon="6.79804">
        <ele>434</ele>
        <time>2022-09-29T12:30:42Z</time>
      </trkpt>
      <trkpt lat="46.82464" lon="6.79807">
        <ele>434</ele>
        <time>2022-09-29T12:30:43Z</time>
      </trkpt>
      <trkpt lat="46.82465" lon="6.79812">
        <ele>434</ele>
        <time>2022-09-29T12:30:44Z</time>
      </trkpt>
      <trkpt lat="46.82466" lon="6.79816">
        <ele>434</ele>
        <time>2022-09-29T12:30:45Z</time>
      </trkpt>
      <trkpt lat="46.82468" lon="6.79821">
        <ele>434.1</ele>
        <time>2022-09-29T12:30:46Z</time>
      </trkpt>
      <trkpt lat="46.82469" lon="6.79822">
        <ele>434.1</ele>
        <time>2022-09-29T12:30:47Z</time>
      </trkpt>
      <trkpt lat="46.82471" lon="6.79824">
        <ele>434.1</ele>
        <time>2022-09-29T12:30:48Z</time>
      </trkpt>
      <trkpt lat="46.82473" lon="6.79828">
        <ele>434.1</ele>
        <time>2022-09-29T12:30:49Z</time>
      </trkpt>
      <trkpt lat="46.82474" lon="6.79831">
        <ele>434.2</ele>
        <time>2022-09-29T12:30:50Z</time>
      </trkpt>
      <trkpt lat="46.82477" lon="6.79834">
        <ele>434.2</ele>
        <time>2022-09-29T12:30:51Z</time>
      </trkpt>
      <trkpt lat="46.82478" lon="6.79838">
        <ele>434.2</ele>
        <time>2022-09-29T12:30:52Z</time>
      </trkpt>
      <trkpt lat="46.8248" lon="6.79842">
        <ele>434.2</ele>
        <time>2022-09-29T12:30:53Z</time>
      </trkpt>
      <trkpt lat="46.82483" lon="6.79844">
        <ele>434.2</ele>
        <time>2022-09-29T12:30:54Z</time>
      </trkpt>
      <trkpt lat="46.82485" lon="6.79847">
        <ele>434.2</ele>
        <time>2022-09-29T12:30:55Z</time>
      </trkpt>
      <trkpt lat="46.82487" lon="6.79852">
        <ele>434.2</ele>
        <time>2022-09-29T12:30:56Z</time>
      </trkpt>
      <trkpt lat="46.8249" lon="6.79856">
        <ele>434.3</ele>
        <time>2022-09-29T12:30:57Z</time>
      </trkpt>
      <trkpt lat="46.82492" lon="6.79859">
        <ele>434.3</ele>
        <time>2022-09-29T12:30:58Z</time>
      </trkpt>
      <trkpt lat="46.82495" lon="6.79863">
        <ele>434.3</ele>
        <time>2022-09-29T12:30:59Z</time>
      </trkpt>
      <trkpt lat="46.82496" lon="6.79864">
        <ele>434.3</ele>
        <time>2022-09-29T12:31:00Z</time>
      </trkpt>
      <trkpt lat="46.82499" lon="6.79868">
        <ele>434.3</ele>
        <time>2022-09-29T12:31:01Z</time>
      </trkpt>
      <trkpt lat="46.82501" lon="6.79872">
        <ele>434.4</ele>
        <time>2022-09-29T12:31:02Z</time>
      </trkpt>
      <trkpt lat="46.82503" lon="6.79875">
        <ele>434.4</ele>
        <time>2022-09-29T12:31:03Z</time>
      </trkpt>
      <trkpt lat="46.82505" lon="6.7988">
        <ele>434.4</ele>
        <time>2022-09-29T12:31:04Z</time>
      </trkpt>
      <trkpt lat="46.82508" lon="6.79884">
        <ele>434.5</ele>
        <time>2022-09-29T12:31:05Z</time>
      </trkpt>
      <trkpt lat="46.8251" lon="6.79886">
        <ele>434.5</ele>
        <time>2022-09-29T12:31:06Z</time>
      </trkpt>
      <trkpt lat="46.82512" lon="6.79889">
        <ele>434.6</ele>
        <time>2022-09-29T12:31:07Z</time>
      </trkpt>
      <trkpt lat="46.82515" lon="6.79892">
        <ele>434.6</ele>
        <time>2022-09-29T12:31:08Z</time>
      </trkpt>
      <trkpt lat="46.82515" lon="6.79894">
        <ele>434.7</ele>
        <time>2022-09-29T12:31:09Z</time>
      </trkpt>
      <trkpt lat="46.82518" lon="6.79897">
        <ele>434.8</ele>
        <time>2022-09-29T12:31:10Z</time>
      </trkpt>
      <trkpt lat="46.8252" lon="6.79899">
        <ele>434.8</ele>
        <time>2022-09-29T12:31:11Z</time>
      </trkpt>
      <trkpt lat="46.82522" lon="6.79904">
        <ele>434.9</ele>
        <time>2022-09-29T12:31:12Z</time>
      </trkpt>
      <trkpt lat="46.82524" lon="6.79906">
        <ele>435</ele>
        <time>2022-09-29T12:31:13Z</time>
      </trkpt>
      <trkpt lat="46.82527" lon="6.7991">
        <ele>435.1</ele>
        <time>2022-09-29T12:31:14Z</time>
      </trkpt>
      <trkpt lat="46.82528" lon="6.79912">
        <ele>435.1</ele>
        <time>2022-09-29T12:31:15Z</time>
      </trkpt>
      <trkpt lat="46.8253" lon="6.79915">
        <ele>435.2</ele>
        <time>2022-09-29T12:31:16Z</time>
      </trkpt>
      <trkpt lat="46.82532" lon="6.79918">
        <ele>435.3</ele>
        <time>2022-09-29T12:31:17Z</time>
      </trkpt>
      <trkpt lat="46.82533" lon="6.79919">
        <ele>435.3</ele>
        <time>2022-09-29T12:31:18Z</time>
      </trkpt>
      <trkpt lat="46.82534" lon="6.79919">
        <ele>435.3</ele>
        <time>2022-09-29T12:31:19Z</time>
      </trkpt>
      <trkpt lat="46.82535" lon="6.79922">
        <ele>435.4</ele>
        <time>2022-09-29T12:31:20Z</time>
      </trkpt>
      <trkpt lat="46.82537" lon="6.79925">
        <ele>435.4</ele>
        <time>2022-09-29T12:31:21Z</time>
      </trkpt>
      <trkpt lat="46.82537" lon="6.79926">
        <ele>435.4</ele>
        <time>2022-09-29T12:31:22Z</time>
      </trkpt>
      <trkpt lat="46.82538" lon="6.79926">
        <ele>435.4</ele>
        <time>2022-09-29T12:31:23Z</time>
      </trkpt>
      <trkpt lat="46.8254" lon="6.79929">
        <ele>435.4</ele>
        <time>2022-09-29T12:31:24Z</time>
      </trkpt>
      <trkpt lat="46.82542" lon="6.79932">
        <ele>435.4</ele>
        <time>2022-09-29T12:31:25Z</time>
      </trkpt>
      <trkpt lat="46.82545" lon="6.79936">
        <ele>435.3</ele>
        <time>2022-09-29T12:31:26Z</time>
      </trkpt>
      <trkpt lat="46.82548" lon="6.79939">
        <ele>435.3</ele>
        <time>2022-09-29T12:31:27Z</time>
      </trkpt>
      <trkpt lat="46.82551" lon="6.79943">
        <ele>435.2</ele>
        <time>2022-09-29T12:31:28Z</time>
      </trkpt>
      <trkpt lat="46.82555" lon="6.79946">
        <ele>435.2</ele>
        <time>2022-09-29T12:31:29Z</time>
      </trkpt>
      <trkpt lat="46.82558" lon="6.79949">
        <ele>435.1</ele>
        <time>2022-09-29T12:31:30Z</time>
      </trkpt>
      <trkpt lat="46.82561" lon="6.79951">
        <ele>435.1</ele>
        <time>2022-09-29T12:31:31Z</time>
      </trkpt>
      <trkpt lat="46.82563" lon="6.79955">
        <ele>435</ele>
        <time>2022-09-29T12:31:32Z</time>
      </trkpt>
      <trkpt lat="46.82566" lon="6.79958">
        <ele>435</ele>
        <time>2022-09-29T12:31:33Z</time>
      </trkpt>
      <trkpt lat="46.82568" lon="6.79962">
        <ele>435</ele>
        <time>2022-09-29T12:31:34Z</time>
      </trkpt>
      <trkpt lat="46.82571" lon="6.79964">
        <ele>434.9</ele>
        <time>2022-09-29T12:31:35Z</time>
      </trkpt>
      <trkpt lat="46.82574" lon="6.79967">
        <ele>434.9</ele>
        <time>2022-09-29T12:31:36Z</time>
      </trkpt>
      <trkpt lat="46.82576" lon="6.79973">
        <ele>434.9</ele>
        <time>2022-09-29T12:31:37Z</time>
      </trkpt>
      <trkpt lat="46.82579" lon="6.79976">
        <ele>434.8</ele>
        <time>2022-09-29T12:31:38Z</time>
      </trkpt>
      <trkpt lat="46.82582" lon="6.79981">
        <ele>434.8</ele>
        <time>2022-09-29T12:31:39Z</time>
      </trkpt>
      <trkpt lat="46.82585" lon="6.79986">
        <ele>434.8</ele>
        <time>2022-09-29T12:31:40Z</time>
      </trkpt>
      <trkpt lat="46.82588" lon="6.7999">
        <ele>434.8</ele>
        <time>2022-09-29T12:31:41Z</time>
      </trkpt>
      <trkpt lat="46.82592" lon="6.79992">
        <ele>434.8</ele>
        <time>2022-09-29T12:31:42Z</time>
      </trkpt>
      <trkpt lat="46.82595" lon="6.79998">
        <ele>434.8</ele>
        <time>2022-09-29T12:31:43Z</time>
      </trkpt>
      <trkpt lat="46.82598" lon="6.80002">
        <ele>434.8</ele>
        <time>2022-09-29T12:31:44Z</time>
      </trkpt>
      <trkpt lat="46.826" lon="6.80006">
        <ele>434.8</ele>
        <time>2022-09-29T12:31:45Z</time>
      </trkpt>
      <trkpt lat="46.82603" lon="6.80011">
        <ele>434.8</ele>
        <time>2022-09-29T12:31:46Z</time>
      </trkpt>
      <trkpt lat="46.82606" lon="6.80015">
        <ele>434.8</ele>
        <time>2022-09-29T12:31:47Z</time>
      </trkpt>
      <trkpt lat="46.82609" lon="6.80018">
        <ele>434.8</ele>
        <time>2022-09-29T12:31:48Z</time>
      </trkpt>
      <trkpt lat="46.82612" lon="6.80021">
        <ele>434.8</ele>
        <time>2022-09-29T12:31:49Z</time>
      </trkpt>
      <trkpt lat="46.82612" lon="6.80027">
        <ele>434.8</ele>
        <time>2022-09-29T12:31:50Z</time>
      </trkpt>
      <trkpt lat="46.82615" lon="6.8003">
        <ele>434.8</ele>
        <time>2022-09-29T12:31:51Z</time>
      </trkpt>
      <trkpt lat="46.82616" lon="6.80034">
        <ele>434.8</ele>
        <time>2022-09-29T12:31:52Z</time>
      </trkpt>
      <trkpt lat="46.82619" lon="6.80036">
        <ele>434.8</ele>
        <time>2022-09-29T12:31:53Z</time>
      </trkpt>
      <trkpt lat="46.82622" lon="6.80039">
        <ele>434.8</ele>
        <time>2022-09-29T12:31:54Z</time>
      </trkpt>
      <trkpt lat="46.82625" lon="6.80043">
        <ele>434.8</ele>
        <time>2022-09-29T12:31:55Z</time>
      </trkpt>
      <trkpt lat="46.82626" lon="6.80047">
        <ele>434.8</ele>
        <time>2022-09-29T12:31:56Z</time>
      </trkpt>
      <trkpt lat="46.82627" lon="6.80048">
        <ele>434.8</ele>
        <time>2022-09-29T12:31:57Z</time>
      </trkpt>
      <trkpt lat="46.8263" lon="6.80051">
        <ele>434.8</ele>
        <time>2022-09-29T12:31:58Z</time>
      </trkpt>
      <trkpt lat="46.82632" lon="6.80053">
        <ele>434.8</ele>
        <time>2022-09-29T12:31:59Z</time>
      </trkpt>
      <trkpt lat="46.82634" lon="6.80056">
        <ele>434.8</ele>
        <time>2022-09-29T12:32:00Z</time>
      </trkpt>
      <trkpt lat="46.82638" lon="6.8006">
        <ele>434.8</ele>
        <time>2022-09-29T12:32:01Z</time>
      </trkpt>
      <trkpt lat="46.82639" lon="6.80062">
        <ele>434.8</ele>
        <time>2022-09-29T12:32:02Z</time>
      </trkpt>
      <trkpt lat="46.82641" lon="6.80066">
        <ele>434.8</ele>
        <time>2022-09-29T12:32:03Z</time>
      </trkpt>
      <trkpt lat="46.82643" lon="6.8007">
        <ele>434.8</ele>
        <time>2022-09-29T12:32:04Z</time>
      </trkpt>
      <trkpt lat="46.82645" lon="6.80074">
        <ele>434.8</ele>
        <time>2022-09-29T12:32:05Z</time>
      </trkpt>
      <trkpt lat="46.82648" lon="6.80077">
        <ele>434.8</ele>
        <time>2022-09-29T12:32:06Z</time>
      </trkpt>
      <trkpt lat="46.82649" lon="6.80082">
        <ele>434.7</ele>
        <time>2022-09-29T12:32:07Z</time>
      </trkpt>
      <trkpt lat="46.82652" lon="6.80086">
        <ele>434.7</ele>
        <time>2022-09-29T12:32:08Z</time>
      </trkpt>
      <trkpt lat="46.82655" lon="6.80088">
        <ele>434.7</ele>
        <time>2022-09-29T12:32:09Z</time>
      </trkpt>
      <trkpt lat="46.82657" lon="6.80091">
        <ele>434.7</ele>
        <time>2022-09-29T12:32:10Z</time>
      </trkpt>
      <trkpt lat="46.82658" lon="6.80095">
        <ele>434.7</ele>
        <time>2022-09-29T12:32:11Z</time>
      </trkpt>
      <trkpt lat="46.82661" lon="6.80097">
        <ele>434.7</ele>
        <time>2022-09-29T12:32:12Z</time>
      </trkpt>
      <trkpt lat="46.82664" lon="6.801">
        <ele>434.8</ele>
        <time>2022-09-29T12:32:13Z</time>
      </trkpt>
      <trkpt lat="46.82666" lon="6.80104">
        <ele>434.8</ele>
        <time>2022-09-29T12:32:14Z</time>
      </trkpt>
      <trkpt lat="46.82668" lon="6.80109">
        <ele>434.8</ele>
        <time>2022-09-29T12:32:15Z</time>
      </trkpt>
      <trkpt lat="46.82669" lon="6.8011">
        <ele>434.8</ele>
        <time>2022-09-29T12:32:16Z</time>
      </trkpt>
      <trkpt lat="46.82672" lon="6.80115">
        <ele>434.8</ele>
        <time>2022-09-29T12:32:17Z</time>
      </trkpt>
      <trkpt lat="46.82674" lon="6.80117">
        <ele>434.8</ele>
        <time>2022-09-29T12:32:18Z</time>
      </trkpt>
      <trkpt lat="46.82676" lon="6.80121">
        <ele>434.8</ele>
        <time>2022-09-29T12:32:19Z</time>
      </trkpt>
      <trkpt lat="46.82679" lon="6.80124">
        <ele>434.8</ele>
        <time>2022-09-29T12:32:20Z</time>
      </trkpt>
      <trkpt lat="46.82682" lon="6.80126">
        <ele>434.8</ele>
        <time>2022-09-29T12:32:21Z</time>
      </trkpt>
      <trkpt lat="46.82684" lon="6.8013">
        <ele>434.8</ele>
        <time>2022-09-29T12:32:22Z</time>
      </trkpt>
      <trkpt lat="46.82686" lon="6.80133">
        <ele>434.8</ele>
        <time>2022-09-29T12:32:23Z</time>
      </trkpt>
      <trkpt lat="46.82688" lon="6.80136">
        <ele>434.8</ele>
        <time>2022-09-29T12:32:24Z</time>
      </trkpt>
      <trkpt lat="46.8269" lon="6.8014">
        <ele>434.9</ele>
        <time>2022-09-29T12:32:25Z</time>
      </trkpt>
      <trkpt lat="46.82693" lon="6.8014">
        <ele>434.9</ele>
        <time>2022-09-29T12:32:26Z</time>
      </trkpt>
      <trkpt lat="46.82696" lon="6.80144">
        <ele>434.9</ele>
        <time>2022-09-29T12:32:27Z</time>
      </trkpt>
      <trkpt lat="46.82696" lon="6.80145">
        <ele>434.9</ele>
        <time>2022-09-29T12:32:28Z</time>
      </trkpt>
      <trkpt lat="46.82699" lon="6.80149">
        <ele>434.9</ele>
        <time>2022-09-29T12:32:29Z</time>
      </trkpt>
      <trkpt lat="46.827" lon="6.80151">
        <ele>434.9</ele>
        <time>2022-09-29T12:32:30Z</time>
      </trkpt>
      <trkpt lat="46.82702" lon="6.80155">
        <ele>434.9</ele>
        <time>2022-09-29T12:32:31Z</time>
      </trkpt>
      <trkpt lat="46.82705" lon="6.80158">
        <ele>435</ele>
        <time>2022-09-29T12:32:32Z</time>
      </trkpt>
      <trkpt lat="46.82706" lon="6.8016">
        <ele>435</ele>
        <time>2022-09-29T12:32:33Z</time>
      </trkpt>
      <trkpt lat="46.82707" lon="6.80161">
        <ele>435</ele>
        <time>2022-09-29T12:32:34Z</time>
      </trkpt>
      <trkpt lat="46.82708" lon="6.80161">
        <ele>435</ele>
        <time>2022-09-29T12:32:35Z</time>
      </trkpt>
      <trkpt lat="46.82709" lon="6.80164">
        <ele>435</ele>
        <time>2022-09-29T12:32:36Z</time>
      </trkpt>
      <trkpt lat="46.82712" lon="6.80166">
        <ele>435.1</ele>
        <time>2022-09-29T12:32:37Z</time>
      </trkpt>
      <trkpt lat="46.82712" lon="6.80167">
        <ele>435.1</ele>
        <time>2022-09-29T12:32:38Z</time>
      </trkpt>
      <trkpt lat="46.82715" lon="6.80171">
        <ele>435.1</ele>
        <time>2022-09-29T12:32:39Z</time>
      </trkpt>
      <trkpt lat="46.82716" lon="6.80172">
        <ele>435.1</ele>
        <time>2022-09-29T12:32:40Z</time>
      </trkpt>
      <trkpt lat="46.82718" lon="6.80175">
        <ele>435.2</ele>
        <time>2022-09-29T12:32:41Z</time>
      </trkpt>
      <trkpt lat="46.8272" lon="6.80176">
        <ele>435.2</ele>
        <time>2022-09-29T12:32:42Z</time>
      </trkpt>
      <trkpt lat="46.82722" lon="6.8018">
        <ele>435.2</ele>
        <time>2022-09-29T12:32:43Z</time>
      </trkpt>
      <trkpt lat="46.82723" lon="6.80181">
        <ele>435.2</ele>
        <time>2022-09-29T12:32:44Z</time>
      </trkpt>
      <trkpt lat="46.82725" lon="6.80185">
        <ele>435.2</ele>
        <time>2022-09-29T12:32:45Z</time>
      </trkpt>
      <trkpt lat="46.82728" lon="6.80189">
        <ele>435.2</ele>
        <time>2022-09-29T12:32:46Z</time>
      </trkpt>
      <trkpt lat="46.8273" lon="6.80192">
        <ele>435.2</ele>
        <time>2022-09-29T12:32:47Z</time>
      </trkpt>
      <trkpt lat="46.82732" lon="6.80195">
        <ele>435.3</ele>
        <time>2022-09-29T12:32:48Z</time>
      </trkpt>
      <trkpt lat="46.82734" lon="6.80198">
        <ele>435.3</ele>
        <time>2022-09-29T12:32:49Z</time>
      </trkpt>
      <trkpt lat="46.82737" lon="6.802">
        <ele>435.3</ele>
        <time>2022-09-29T12:32:50Z</time>
      </trkpt>
      <trkpt lat="46.8274" lon="6.80205">
        <ele>435.3</ele>
        <time>2022-09-29T12:32:51Z</time>
      </trkpt>
      <trkpt lat="46.82741" lon="6.80207">
        <ele>435.3</ele>
        <time>2022-09-29T12:32:52Z</time>
      </trkpt>
      <trkpt lat="46.82743" lon="6.80212">
        <ele>435.3</ele>
        <time>2022-09-29T12:32:53Z</time>
      </trkpt>
      <trkpt lat="46.82745" lon="6.80217">
        <ele>435.3</ele>
        <time>2022-09-29T12:32:54Z</time>
      </trkpt>
      <trkpt lat="46.82746" lon="6.80217">
        <ele>435.3</ele>
        <time>2022-09-29T12:32:55Z</time>
      </trkpt>
      <trkpt lat="46.82749" lon="6.8022">
        <ele>435.3</ele>
        <time>2022-09-29T12:32:56Z</time>
      </trkpt>
      <trkpt lat="46.8275" lon="6.80224">
        <ele>435.3</ele>
        <time>2022-09-29T12:32:57Z</time>
      </trkpt>
      <trkpt lat="46.82753" lon="6.8023">
        <ele>435.4</ele>
        <time>2022-09-29T12:32:58Z</time>
      </trkpt>
      <trkpt lat="46.82755" lon="6.80233">
        <ele>435.4</ele>
        <time>2022-09-29T12:32:59Z</time>
      </trkpt>
      <trkpt lat="46.82757" lon="6.80236">
        <ele>435.4</ele>
        <time>2022-09-29T12:33:00Z</time>
      </trkpt>
      <trkpt lat="46.82759" lon="6.8024">
        <ele>435.5</ele>
        <time>2022-09-29T12:33:01Z</time>
      </trkpt>
      <trkpt lat="46.82762" lon="6.80244">
        <ele>435.5</ele>
        <time>2022-09-29T12:33:02Z</time>
      </trkpt>
      <trkpt lat="46.82765" lon="6.80247">
        <ele>435.6</ele>
        <time>2022-09-29T12:33:03Z</time>
      </trkpt>
      <trkpt lat="46.82768" lon="6.80251">
        <ele>435.6</ele>
        <time>2022-09-29T12:33:04Z</time>
      </trkpt>
      <trkpt lat="46.82768" lon="6.80253">
        <ele>435.7</ele>
        <time>2022-09-29T12:33:05Z</time>
      </trkpt>
      <trkpt lat="46.8277" lon="6.80256">
        <ele>435.7</ele>
        <time>2022-09-29T12:33:06Z</time>
      </trkpt>
      <trkpt lat="46.82772" lon="6.80261">
        <ele>435.7</ele>
        <time>2022-09-29T12:33:07Z</time>
      </trkpt>
      <trkpt lat="46.82772" lon="6.80262">
        <ele>435.7</ele>
        <time>2022-09-29T12:33:08Z</time>
      </trkpt>
      <trkpt lat="46.82776" lon="6.80265">
        <ele>435.8</ele>
        <time>2022-09-29T12:33:09Z</time>
      </trkpt>
      <trkpt lat="46.82777" lon="6.80267">
        <ele>435.8</ele>
        <time>2022-09-29T12:33:10Z</time>
      </trkpt>
      <trkpt lat="46.8278" lon="6.80269">
        <ele>435.8</ele>
        <time>2022-09-29T12:33:11Z</time>
      </trkpt>
      <trkpt lat="46.82782" lon="6.80272">
        <ele>435.7</ele>
        <time>2022-09-29T12:33:12Z</time>
      </trkpt>
      <trkpt lat="46.82783" lon="6.80276">
        <ele>435.7</ele>
        <time>2022-09-29T12:33:13Z</time>
      </trkpt>
      <trkpt lat="46.82785" lon="6.8028">
        <ele>435.7</ele>
        <time>2022-09-29T12:33:14Z</time>
      </trkpt>
      <trkpt lat="46.82787" lon="6.80285">
        <ele>435.6</ele>
        <time>2022-09-29T12:33:15Z</time>
      </trkpt>
      <trkpt lat="46.82789" lon="6.8029">
        <ele>435.6</ele>
        <time>2022-09-29T12:33:16Z</time>
      </trkpt>
      <trkpt lat="46.82791" lon="6.80295">
        <ele>435.6</ele>
        <time>2022-09-29T12:33:17Z</time>
      </trkpt>
      <trkpt lat="46.82792" lon="6.80299">
        <ele>435.5</ele>
        <time>2022-09-29T12:33:18Z</time>
      </trkpt>
      <trkpt lat="46.82795" lon="6.80303">
        <ele>435.4</ele>
        <time>2022-09-29T12:33:19Z</time>
      </trkpt>
      <trkpt lat="46.82797" lon="6.80306">
        <ele>435.4</ele>
        <time>2022-09-29T12:33:20Z</time>
      </trkpt>
      <trkpt lat="46.82799" lon="6.8031">
        <ele>435.3</ele>
        <time>2022-09-29T12:33:21Z</time>
      </trkpt>
      <trkpt lat="46.82802" lon="6.80315">
        <ele>435.3</ele>
        <time>2022-09-29T12:33:22Z</time>
      </trkpt>
      <trkpt lat="46.82804" lon="6.80319">
        <ele>435.2</ele>
        <time>2022-09-29T12:33:23Z</time>
      </trkpt>
      <trkpt lat="46.82807" lon="6.80323">
        <ele>435.1</ele>
        <time>2022-09-29T12:33:24Z</time>
      </trkpt>
      <trkpt lat="46.8281" lon="6.80327">
        <ele>435.1</ele>
        <time>2022-09-29T12:33:25Z</time>
      </trkpt>
      <trkpt lat="46.82811" lon="6.80331">
        <ele>435</ele>
        <time>2022-09-29T12:33:26Z</time>
      </trkpt>
      <trkpt lat="46.82813" lon="6.80333">
        <ele>434.9</ele>
        <time>2022-09-29T12:33:27Z</time>
      </trkpt>
      <trkpt lat="46.82813" lon="6.80334">
        <ele>434.9</ele>
        <time>2022-09-29T12:33:28Z</time>
      </trkpt>
      <trkpt lat="46.82814" lon="6.80334">
        <ele>434.9</ele>
        <time>2022-09-29T12:33:29Z</time>
      </trkpt>
      <trkpt lat="46.82814" lon="6.80334">
        <ele>434.9</ele>
        <time>2022-09-29T12:33:30Z</time>
      </trkpt>
      <trkpt lat="46.82814" lon="6.80335">
        <ele>434.9</ele>
        <time>2022-09-29T12:33:31Z</time>
      </trkpt>
      <trkpt lat="46.82815" lon="6.80336">
        <ele>434.9</ele>
        <time>2022-09-29T12:33:32Z</time>
      </trkpt>
      <trkpt lat="46.82815" lon="6.80337">
        <ele>434.9</ele>
        <time>2022-09-29T12:33:33Z</time>
      </trkpt>
      <trkpt lat="46.82815" lon="6.80338">
        <ele>434.9</ele>
        <time>2022-09-29T12:33:34Z</time>
      </trkpt>
      <trkpt lat="46.82815" lon="6.80338">
        <ele>434.9</ele>
        <time>2022-09-29T12:33:35Z</time>
      </trkpt>
      <trkpt lat="46.82816" lon="6.80339">
        <ele>434.8</ele>
        <time>2022-09-29T12:33:36Z</time>
      </trkpt>
      <trkpt lat="46.82816" lon="6.8034">
        <ele>434.8</ele>
        <time>2022-09-29T12:33:37Z</time>
      </trkpt>
      <trkpt lat="46.82816" lon="6.80341">
        <ele>434.8</ele>
        <time>2022-09-29T12:33:38Z</time>
      </trkpt>
      <trkpt lat="46.82817" lon="6.80341">
        <ele>434.8</ele>
        <time>2022-09-29T12:36:14Z</time>
      </trkpt>
      <trkpt lat="46.82817" lon="6.80342">
        <ele>434.8</ele>
        <time>2022-09-29T12:36:15Z</time>
      </trkpt>
      <trkpt lat="46.82817" lon="6.80343">
        <ele>434.8</ele>
        <time>2022-09-29T12:36:16Z</time>
      </trkpt>
      <trkpt lat="46.82818" lon="6.80344">
        <ele>434.8</ele>
        <time>2022-09-29T12:36:17Z</time>
      </trkpt>
      <trkpt lat="46.82818" lon="6.80344">
        <ele>434.8</ele>
        <time>2022-09-29T12:36:18Z</time>
      </trkpt>
      <trkpt lat="46.82818" lon="6.80345">
        <ele>434.8</ele>
        <time>2022-09-29T12:36:19Z</time>
      </trkpt>
      <trkpt lat="46.82819" lon="6.80346">
        <ele>434.8</ele>
        <time>2022-09-29T12:36:20Z</time>
      </trkpt>
      <trkpt lat="46.82819" lon="6.80347">
        <ele>434.8</ele>
        <time>2022-09-29T12:36:21Z</time>
      </trkpt>
      <trkpt lat="46.82819" lon="6.80347">
        <ele>434.7</ele>
        <time>2022-09-29T12:36:22Z</time>
      </trkpt>
      <trkpt lat="46.8282" lon="6.80348">
        <ele>434.7</ele>
        <time>2022-09-29T12:36:23Z</time>
      </trkpt>
      <trkpt lat="46.8282" lon="6.80349">
        <ele>434.7</ele>
        <time>2022-09-29T12:37:28Z</time>
      </trkpt>
      <trkpt lat="46.8282" lon="6.8035">
        <ele>434.7</ele>
        <time>2022-09-29T12:37:29Z</time>
      </trkpt>
      <trkpt lat="46.82821" lon="6.80351">
        <ele>434.7</ele>
        <time>2022-09-29T12:37:30Z</time>
      </trkpt>
      <trkpt lat="46.82823" lon="6.80353">
        <ele>434.7</ele>
        <time>2022-09-29T12:37:31Z</time>
      </trkpt>
      <trkpt lat="46.82825" lon="6.80357">
        <ele>434.7</ele>
        <time>2022-09-29T12:37:32Z</time>
      </trkpt>
      <trkpt lat="46.82825" lon="6.80358">
        <ele>434.6</ele>
        <time>2022-09-29T12:37:33Z</time>
      </trkpt>
      <trkpt lat="46.82826" lon="6.80359">
        <ele>434.6</ele>
        <time>2022-09-29T12:37:34Z</time>
      </trkpt>
      <trkpt lat="46.82828" lon="6.80363">
        <ele>434.6</ele>
        <time>2022-09-29T12:37:35Z</time>
      </trkpt>
      <trkpt lat="46.82829" lon="6.80364">
        <ele>434.6</ele>
        <time>2022-09-29T12:37:36Z</time>
      </trkpt>
      <trkpt lat="46.8283" lon="6.80367">
        <ele>434.6</ele>
        <time>2022-09-29T12:37:37Z</time>
      </trkpt>
      <trkpt lat="46.8283" lon="6.80368">
        <ele>434.6</ele>
        <time>2022-09-29T12:37:38Z</time>
      </trkpt>
      <trkpt lat="46.82831" lon="6.80369">
        <ele>434.6</ele>
        <time>2022-09-29T12:37:39Z</time>
      </trkpt>
      <trkpt lat="46.82832" lon="6.80373">
        <ele>434.5</ele>
        <time>2022-09-29T12:37:40Z</time>
      </trkpt>
      <trkpt lat="46.82833" lon="6.80374">
        <ele>434.5</ele>
        <time>2022-09-29T12:37:41Z</time>
      </trkpt>
      <trkpt lat="46.82834" lon="6.80377">
        <ele>434.5</ele>
        <time>2022-09-29T12:37:42Z</time>
      </trkpt>
      <trkpt lat="46.82835" lon="6.80379">
        <ele>434.5</ele>
        <time>2022-09-29T12:37:43Z</time>
      </trkpt>
      <trkpt lat="46.82836" lon="6.80382">
        <ele>434.5</ele>
        <time>2022-09-29T12:37:44Z</time>
      </trkpt>
      <trkpt lat="46.82837" lon="6.80383">
        <ele>434.5</ele>
        <time>2022-09-29T12:37:45Z</time>
      </trkpt>
      <trkpt lat="46.8284" lon="6.80387">
        <ele>434.5</ele>
        <time>2022-09-29T12:37:46Z</time>
      </trkpt>
      <trkpt lat="46.82841" lon="6.80388">
        <ele>434.5</ele>
        <time>2022-09-29T12:37:47Z</time>
      </trkpt>
      <trkpt lat="46.82843" lon="6.80392">
        <ele>434.5</ele>
        <time>2022-09-29T12:37:48Z</time>
      </trkpt>
      <trkpt lat="46.82844" lon="6.80393">
        <ele>434.4</ele>
        <time>2022-09-29T12:37:49Z</time>
      </trkpt>
      <trkpt lat="46.82846" lon="6.80398">
        <ele>434.4</ele>
        <time>2022-09-29T12:37:50Z</time>
      </trkpt>
      <trkpt lat="46.82847" lon="6.80399">
        <ele>434.4</ele>
        <time>2022-09-29T12:37:51Z</time>
      </trkpt>
      <trkpt lat="46.82849" lon="6.80402">
        <ele>434.4</ele>
        <time>2022-09-29T12:37:52Z</time>
      </trkpt>
      <trkpt lat="46.82851" lon="6.80407">
        <ele>434.4</ele>
        <time>2022-09-29T12:37:53Z</time>
      </trkpt>
      <trkpt lat="46.82851" lon="6.80408">
        <ele>434.4</ele>
        <time>2022-09-29T12:37:54Z</time>
      </trkpt>
      <trkpt lat="46.82854" lon="6.80412">
        <ele>434.4</ele>
        <time>2022-09-29T12:37:55Z</time>
      </trkpt>
      <trkpt lat="46.82857" lon="6.80416">
        <ele>434.3</ele>
        <time>2022-09-29T12:37:56Z</time>
      </trkpt>
      <trkpt lat="46.82858" lon="6.8042">
        <ele>434.3</ele>
        <time>2022-09-29T12:37:57Z</time>
      </trkpt>
      <trkpt lat="46.8286" lon="6.80423">
        <ele>434.3</ele>
        <time>2022-09-29T12:37:58Z</time>
      </trkpt>
      <trkpt lat="46.82861" lon="6.80426">
        <ele>434.3</ele>
        <time>2022-09-29T12:37:59Z</time>
      </trkpt>
      <trkpt lat="46.82864" lon="6.8043">
        <ele>434.3</ele>
        <time>2022-09-29T12:38:00Z</time>
      </trkpt>
      <trkpt lat="46.82866" lon="6.80434">
        <ele>434.3</ele>
        <time>2022-09-29T12:38:01Z</time>
      </trkpt>
      <trkpt lat="46.82869" lon="6.80439">
        <ele>434.3</ele>
        <time>2022-09-29T12:38:02Z</time>
      </trkpt>
      <trkpt lat="46.82871" lon="6.80443">
        <ele>434.4</ele>
        <time>2022-09-29T12:38:03Z</time>
      </trkpt>
      <trkpt lat="46.82873" lon="6.80446">
        <ele>434.4</ele>
        <time>2022-09-29T12:38:04Z</time>
      </trkpt>
      <trkpt lat="46.82875" lon="6.8045">
        <ele>434.4</ele>
        <time>2022-09-29T12:38:05Z</time>
      </trkpt>
      <trkpt lat="46.82877" lon="6.80455">
        <ele>434.4</ele>
        <time>2022-09-29T12:38:06Z</time>
      </trkpt>
      <trkpt lat="46.82878" lon="6.80457">
        <ele>434.4</ele>
        <time>2022-09-29T12:38:07Z</time>
      </trkpt>
      <trkpt lat="46.82879" lon="6.80462">
        <ele>434.4</ele>
        <time>2022-09-29T12:38:08Z</time>
      </trkpt>
      <trkpt lat="46.8288" lon="6.80464">
        <ele>434.4</ele>
        <time>2022-09-29T12:38:09Z</time>
      </trkpt>
      <trkpt lat="46.82881" lon="6.80468">
        <ele>434.4</ele>
        <time>2022-09-29T12:38:10Z</time>
      </trkpt>
      <trkpt lat="46.82882" lon="6.80469">
        <ele>434.4</ele>
        <time>2022-09-29T12:38:11Z</time>
      </trkpt>
      <trkpt lat="46.82883" lon="6.8047">
        <ele>434.4</ele>
        <time>2022-09-29T12:38:12Z</time>
      </trkpt>
      <trkpt lat="46.82883" lon="6.80471">
        <ele>434.4</ele>
        <time>2022-09-29T12:38:13Z</time>
      </trkpt>
      <trkpt lat="46.82884" lon="6.80472">
        <ele>434.4</ele>
        <time>2022-09-29T12:38:14Z</time>
      </trkpt>
      <trkpt lat="46.82884" lon="6.80473">
        <ele>434.4</ele>
        <time>2022-09-29T12:38:15Z</time>
      </trkpt>
      <trkpt lat="46.82885" lon="6.80474">
        <ele>434.4</ele>
        <time>2022-09-29T12:38:16Z</time>
      </trkpt>
      <trkpt lat="46.82885" lon="6.80474">
        <ele>434.4</ele>
        <time>2022-09-29T12:38:17Z</time>
      </trkpt>
      <trkpt lat="46.82886" lon="6.80474">
        <ele>434.4</ele>
        <time>2022-09-29T12:38:18Z</time>
      </trkpt>
      <trkpt lat="46.82886" lon="6.80474">
        <ele>434.4</ele>
        <time>2022-09-29T12:38:19Z</time>
      </trkpt>
      <trkpt lat="46.82886" lon="6.80475">
        <ele>434.4</ele>
        <time>2022-09-29T12:38:20Z</time>
      </trkpt>
      <trkpt lat="46.82887" lon="6.80477">
        <ele>434.4</ele>
        <time>2022-09-29T12:38:21Z</time>
      </trkpt>
      <trkpt lat="46.82889" lon="6.80482">
        <ele>434.4</ele>
        <time>2022-09-29T12:38:22Z</time>
      </trkpt>
      <trkpt lat="46.82891" lon="6.80487">
        <ele>434.3</ele>
        <time>2022-09-29T12:39:43Z</time>
      </trkpt>
      <trkpt lat="46.82893" lon="6.80492">
        <ele>434.3</ele>
        <time>2022-09-29T12:39:44Z</time>
      </trkpt>
      <trkpt lat="46.82894" lon="6.80496">
        <ele>434.3</ele>
        <time>2022-09-29T12:39:45Z</time>
      </trkpt>
      <trkpt lat="46.82896" lon="6.80498">
        <ele>434.3</ele>
        <time>2022-09-29T12:39:46Z</time>
      </trkpt>
      <trkpt lat="46.82897" lon="6.805">
        <ele>434.3</ele>
        <time>2022-09-29T12:39:47Z</time>
      </trkpt>
      <trkpt lat="46.82898" lon="6.80501">
        <ele>434.3</ele>
        <time>2022-09-29T12:39:48Z</time>
      </trkpt>
      <trkpt lat="46.829" lon="6.80502">
        <ele>434.3</ele>
        <time>2022-09-29T12:39:49Z</time>
      </trkpt>
      <trkpt lat="46.82901" lon="6.80505">
        <ele>434.3</ele>
        <time>2022-09-29T12:39:50Z</time>
      </trkpt>
      <trkpt lat="46.82902" lon="6.80507">
        <ele>434.3</ele>
        <time>2022-09-29T12:39:51Z</time>
      </trkpt>
      <trkpt lat="46.82904" lon="6.80511">
        <ele>434.3</ele>
        <time>2022-09-29T12:39:52Z</time>
      </trkpt>
      <trkpt lat="46.82904" lon="6.80512">
        <ele>434.3</ele>
        <time>2022-09-29T12:39:53Z</time>
      </trkpt>
      <trkpt lat="46.82906" lon="6.80516">
        <ele>434.3</ele>
        <time>2022-09-29T12:39:54Z</time>
      </trkpt>
      <trkpt lat="46.82907" lon="6.80517">
        <ele>434.3</ele>
        <time>2022-09-29T12:39:55Z</time>
      </trkpt>
      <trkpt lat="46.8291" lon="6.8052">
        <ele>434.3</ele>
        <time>2022-09-29T12:39:56Z</time>
      </trkpt>
      <trkpt lat="46.8291" lon="6.80521">
        <ele>434.3</ele>
        <time>2022-09-29T12:39:57Z</time>
      </trkpt>
      <trkpt lat="46.82912" lon="6.80525">
        <ele>434.4</ele>
        <time>2022-09-29T12:39:58Z</time>
      </trkpt>
      <trkpt lat="46.82913" lon="6.80526">
        <ele>434.4</ele>
        <time>2022-09-29T12:39:59Z</time>
      </trkpt>
      <trkpt lat="46.82915" lon="6.80529">
        <ele>434.4</ele>
        <time>2022-09-29T12:40:00Z</time>
      </trkpt>
      <trkpt lat="46.82915" lon="6.80531">
        <ele>434.4</ele>
        <time>2022-09-29T12:40:01Z</time>
      </trkpt>
      <trkpt lat="46.82917" lon="6.80534">
        <ele>434.4</ele>
        <time>2022-09-29T12:40:02Z</time>
      </trkpt>
      <trkpt lat="46.82918" lon="6.80536">
        <ele>434.4</ele>
        <time>2022-09-29T12:40:03Z</time>
      </trkpt>
      <trkpt lat="46.82919" lon="6.80539">
        <ele>434.4</ele>
        <time>2022-09-29T12:40:04Z</time>
      </trkpt>
      <trkpt lat="46.82922" lon="6.80544">
        <ele>434.4</ele>
        <time>2022-09-29T12:40:05Z</time>
      </trkpt>
      <trkpt lat="46.82923" lon="6.80545">
        <ele>434.4</ele>
        <time>2022-09-29T12:40:06Z</time>
      </trkpt>
      <trkpt lat="46.82925" lon="6.80549">
        <ele>434.4</ele>
        <time>2022-09-29T12:40:07Z</time>
      </trkpt>
      <trkpt lat="46.82926" lon="6.8055">
        <ele>434.4</ele>
        <time>2022-09-29T12:40:08Z</time>
      </trkpt>
      <trkpt lat="46.82928" lon="6.80554">
        <ele>434.4</ele>
        <time>2022-09-29T12:40:09Z</time>
      </trkpt>
      <trkpt lat="46.82931" lon="6.80558">
        <ele>434.4</ele>
        <time>2022-09-29T12:40:10Z</time>
      </trkpt>
      <trkpt lat="46.82932" lon="6.8056">
        <ele>434.4</ele>
        <time>2022-09-29T12:40:11Z</time>
      </trkpt>
      <trkpt lat="46.82934" lon="6.80564">
        <ele>434.4</ele>
        <time>2022-09-29T12:40:12Z</time>
      </trkpt>
      <trkpt lat="46.82936" lon="6.80568">
        <ele>434.4</ele>
        <time>2022-09-29T12:40:13Z</time>
      </trkpt>
      <trkpt lat="46.82937" lon="6.80569">
        <ele>434.4</ele>
        <time>2022-09-29T12:40:14Z</time>
      </trkpt>
      <trkpt lat="46.82939" lon="6.80574">
        <ele>434.4</ele>
        <time>2022-09-29T12:40:15Z</time>
      </trkpt>
      <trkpt lat="46.8294" lon="6.80576">
        <ele>434.4</ele>
        <time>2022-09-29T12:40:16Z</time>
      </trkpt>
      <trkpt lat="46.82943" lon="6.8058">
        <ele>434.4</ele>
        <time>2022-09-29T12:40:17Z</time>
      </trkpt>
      <trkpt lat="46.82943" lon="6.80582">
        <ele>434.4</ele>
        <time>2022-09-29T12:40:18Z</time>
      </trkpt>
      <trkpt lat="46.82944" lon="6.80584">
        <ele>434.4</ele>
        <time>2022-09-29T12:40:20Z</time>
      </trkpt>
      <trkpt lat="46.82945" lon="6.80585">
        <ele>434.4</ele>
        <time>2022-09-29T12:40:21Z</time>
      </trkpt>
      <trkpt lat="46.82946" lon="6.80588">
        <ele>434.4</ele>
        <time>2022-09-29T12:40:22Z</time>
      </trkpt>
      <trkpt lat="46.82947" lon="6.80589">
        <ele>434.4</ele>
        <time>2022-09-29T12:40:23Z</time>
      </trkpt>
      <trkpt lat="46.82949" lon="6.80592">
        <ele>434.4</ele>
        <time>2022-09-29T12:40:24Z</time>
      </trkpt>
      <trkpt lat="46.82953" lon="6.80598">
        <ele>434.4</ele>
        <time>2022-09-29T12:40:25Z</time>
      </trkpt>
      <trkpt lat="46.82956" lon="6.80601">
        <ele>434.4</ele>
        <time>2022-09-29T12:40:26Z</time>
      </trkpt>
      <trkpt lat="46.8296" lon="6.80607">
        <ele>434.4</ele>
        <time>2022-09-29T12:40:28Z</time>
      </trkpt>
      <trkpt lat="46.82962" lon="6.8061">
        <ele>434.4</ele>
        <time>2022-09-29T12:40:29Z</time>
      </trkpt>
      <trkpt lat="46.82964" lon="6.80614">
        <ele>434.4</ele>
        <time>2022-09-29T12:40:30Z</time>
      </trkpt>
      <trkpt lat="46.82967" lon="6.80619">
        <ele>434.4</ele>
        <time>2022-09-29T12:40:32Z</time>
      </trkpt>
      <trkpt lat="46.82968" lon="6.80621">
        <ele>434.4</ele>
        <time>2022-09-29T12:40:33Z</time>
      </trkpt>
      <trkpt lat="46.82969" lon="6.80622">
        <ele>434.4</ele>
        <time>2022-09-29T12:40:34Z</time>
      </trkpt>
      <trkpt lat="46.8297" lon="6.80626">
        <ele>434.4</ele>
        <time>2022-09-29T12:40:35Z</time>
      </trkpt>
      <trkpt lat="46.82972" lon="6.8063">
        <ele>434.4</ele>
        <time>2022-09-29T12:40:36Z</time>
      </trkpt>
      <trkpt lat="46.82974" lon="6.80636">
        <ele>434.4</ele>
        <time>2022-09-29T12:40:37Z</time>
      </trkpt>
      <trkpt lat="46.82976" lon="6.80639">
        <ele>434.4</ele>
        <time>2022-09-29T12:40:38Z</time>
      </trkpt>
      <trkpt lat="46.82978" lon="6.80643">
        <ele>434.4</ele>
        <time>2022-09-29T12:40:39Z</time>
      </trkpt>
      <trkpt lat="46.8298" lon="6.80647">
        <ele>434.4</ele>
        <time>2022-09-29T12:40:40Z</time>
      </trkpt>
      <trkpt lat="46.82982" lon="6.8065">
        <ele>434.4</ele>
        <time>2022-09-29T12:40:41Z</time>
      </trkpt>
      <trkpt lat="46.82985" lon="6.80653">
        <ele>434.4</ele>
        <time>2022-09-29T12:40:42Z</time>
      </trkpt>
      <trkpt lat="46.82986" lon="6.80657">
        <ele>434.4</ele>
        <time>2022-09-29T12:40:43Z</time>
      </trkpt>
      <trkpt lat="46.82989" lon="6.80662">
        <ele>434.4</ele>
        <time>2022-09-29T12:40:44Z</time>
      </trkpt>
      <trkpt lat="46.82989" lon="6.80664">
        <ele>434.4</ele>
        <time>2022-09-29T12:40:45Z</time>
      </trkpt>
      <trkpt lat="46.82992" lon="6.80667">
        <ele>434.4</ele>
        <time>2022-09-29T12:40:46Z</time>
      </trkpt>
      <trkpt lat="46.82993" lon="6.8067">
        <ele>434.4</ele>
        <time>2022-09-29T12:40:47Z</time>
      </trkpt>
      <trkpt lat="46.82996" lon="6.80675">
        <ele>434.4</ele>
        <time>2022-09-29T12:40:48Z</time>
      </trkpt>
      <trkpt lat="46.82997" lon="6.8068">
        <ele>434.4</ele>
        <time>2022-09-29T12:40:49Z</time>
      </trkpt>
      <trkpt lat="46.82999" lon="6.80687">
        <ele>434.4</ele>
        <time>2022-09-29T12:40:50Z</time>
      </trkpt>
      <trkpt lat="46.83003" lon="6.80693">
        <ele>434.4</ele>
        <time>2022-09-29T12:40:51Z</time>
      </trkpt>
      <trkpt lat="46.83005" lon="6.80698">
        <ele>434.4</ele>
        <time>2022-09-29T12:40:52Z</time>
      </trkpt>
      <trkpt lat="46.83007" lon="6.80703">
        <ele>434.4</ele>
        <time>2022-09-29T12:40:53Z</time>
      </trkpt>
      <trkpt lat="46.8301" lon="6.80707">
        <ele>434.4</ele>
        <time>2022-09-29T12:40:54Z</time>
      </trkpt>
      <trkpt lat="46.83013" lon="6.8071">
        <ele>434.4</ele>
        <time>2022-09-29T12:40:55Z</time>
      </trkpt>
      <trkpt lat="46.83016" lon="6.80714">
        <ele>434.4</ele>
        <time>2022-09-29T12:40:56Z</time>
      </trkpt>
      <trkpt lat="46.83018" lon="6.80719">
        <ele>434.4</ele>
        <time>2022-09-29T12:40:57Z</time>
      </trkpt>
      <trkpt lat="46.8302" lon="6.80722">
        <ele>434.4</ele>
        <time>2022-09-29T12:40:58Z</time>
      </trkpt>
      <trkpt lat="46.83023" lon="6.80725">
        <ele>434.4</ele>
        <time>2022-09-29T12:40:59Z</time>
      </trkpt>
      <trkpt lat="46.83025" lon="6.80728">
        <ele>434.4</ele>
        <time>2022-09-29T12:41:00Z</time>
      </trkpt>
      <trkpt lat="46.83027" lon="6.80734">
        <ele>434.4</ele>
        <time>2022-09-29T12:41:01Z</time>
      </trkpt>
      <trkpt lat="46.83029" lon="6.80738">
        <ele>434.4</ele>
        <time>2022-09-29T12:41:02Z</time>
      </trkpt>
      <trkpt lat="46.83031" lon="6.80743">
        <ele>434.4</ele>
        <time>2022-09-29T12:41:03Z</time>
      </trkpt>
      <trkpt lat="46.83034" lon="6.80748">
        <ele>434.4</ele>
        <time>2022-09-29T12:41:04Z</time>
      </trkpt>
      <trkpt lat="46.83036" lon="6.80752">
        <ele>434.4</ele>
        <time>2022-09-29T12:41:05Z</time>
      </trkpt>
      <trkpt lat="46.83038" lon="6.80756">
        <ele>434.4</ele>
        <time>2022-09-29T12:41:06Z</time>
      </trkpt>
      <trkpt lat="46.83041" lon="6.8076">
        <ele>434.4</ele>
        <time>2022-09-29T12:41:07Z</time>
      </trkpt>
      <trkpt lat="46.83042" lon="6.80761">
        <ele>434.3</ele>
        <time>2022-09-29T12:41:08Z</time>
      </trkpt>
      <trkpt lat="46.83043" lon="6.80765">
        <ele>434.3</ele>
        <time>2022-09-29T12:41:09Z</time>
      </trkpt>
      <trkpt lat="46.83045" lon="6.80768">
        <ele>434.3</ele>
        <time>2022-09-29T12:41:10Z</time>
      </trkpt>
      <trkpt lat="46.83048" lon="6.80772">
        <ele>434.3</ele>
        <time>2022-09-29T12:41:11Z</time>
      </trkpt>
      <trkpt lat="46.8305" lon="6.80775">
        <ele>434.3</ele>
        <time>2022-09-29T12:41:12Z</time>
      </trkpt>
      <trkpt lat="46.83052" lon="6.8078">
        <ele>434.3</ele>
        <time>2022-09-29T12:41:13Z</time>
      </trkpt>
      <trkpt lat="46.83054" lon="6.80784">
        <ele>434.3</ele>
        <time>2022-09-29T12:41:14Z</time>
      </trkpt>
      <trkpt lat="46.83057" lon="6.80788">
        <ele>434.3</ele>
        <time>2022-09-29T12:41:15Z</time>
      </trkpt>
      <trkpt lat="46.83058" lon="6.80792">
        <ele>434.4</ele>
        <time>2022-09-29T12:41:16Z</time>
      </trkpt>
      <trkpt lat="46.83061" lon="6.80795">
        <ele>434.4</ele>
        <time>2022-09-29T12:41:17Z</time>
      </trkpt>
      <trkpt lat="46.83063" lon="6.80798">
        <ele>434.4</ele>
        <time>2022-09-29T12:41:18Z</time>
      </trkpt>
      <trkpt lat="46.83065" lon="6.80802">
        <ele>434.4</ele>
        <time>2022-09-29T12:41:19Z</time>
      </trkpt>
      <trkpt lat="46.83067" lon="6.80806">
        <ele>434.4</ele>
        <time>2022-09-29T12:41:20Z</time>
      </trkpt>
      <trkpt lat="46.83068" lon="6.80808">
        <ele>434.4</ele>
        <time>2022-09-29T12:41:21Z</time>
      </trkpt>
      <trkpt lat="46.8307" lon="6.80812">
        <ele>434.4</ele>
        <time>2022-09-29T12:41:22Z</time>
      </trkpt>
      <trkpt lat="46.83072" lon="6.80816">
        <ele>434.5</ele>
        <time>2022-09-29T12:41:23Z</time>
      </trkpt>
      <trkpt lat="46.83074" lon="6.80821">
        <ele>434.5</ele>
        <time>2022-09-29T12:41:24Z</time>
      </trkpt>
      <trkpt lat="46.83075" lon="6.80827">
        <ele>434.5</ele>
        <time>2022-09-29T12:41:25Z</time>
      </trkpt>
      <trkpt lat="46.83077" lon="6.8083">
        <ele>434.5</ele>
        <time>2022-09-29T12:41:26Z</time>
      </trkpt>
      <trkpt lat="46.8308" lon="6.80834">
        <ele>434.5</ele>
        <time>2022-09-29T12:41:27Z</time>
      </trkpt>
      <trkpt lat="46.83082" lon="6.80838">
        <ele>434.6</ele>
        <time>2022-09-29T12:41:28Z</time>
      </trkpt>
      <trkpt lat="46.83084" lon="6.80841">
        <ele>434.6</ele>
        <time>2022-09-29T12:41:29Z</time>
      </trkpt>
      <trkpt lat="46.83087" lon="6.80846">
        <ele>434.6</ele>
        <time>2022-09-29T12:41:30Z</time>
      </trkpt>
      <trkpt lat="46.8309" lon="6.80849">
        <ele>434.6</ele>
        <time>2022-09-29T12:41:31Z</time>
      </trkpt>
      <trkpt lat="46.83093" lon="6.80853">
        <ele>434.7</ele>
        <time>2022-09-29T12:41:32Z</time>
      </trkpt>
      <trkpt lat="46.83095" lon="6.80857">
        <ele>434.7</ele>
        <time>2022-09-29T12:41:33Z</time>
      </trkpt>
      <trkpt lat="46.83098" lon="6.80862">
        <ele>434.7</ele>
        <time>2022-09-29T12:41:34Z</time>
      </trkpt>
      <trkpt lat="46.831" lon="6.80863">
        <ele>434.7</ele>
        <time>2022-09-29T12:41:35Z</time>
      </trkpt>
      <trkpt lat="46.83102" lon="6.80866">
        <ele>434.7</ele>
        <time>2022-09-29T12:41:36Z</time>
      </trkpt>
      <trkpt lat="46.83105" lon="6.80868">
        <ele>434.8</ele>
        <time>2022-09-29T12:41:37Z</time>
      </trkpt>
      <trkpt lat="46.83106" lon="6.80873">
        <ele>434.8</ele>
        <time>2022-09-29T12:41:38Z</time>
      </trkpt>
      <trkpt lat="46.83108" lon="6.80877">
        <ele>434.8</ele>
        <time>2022-09-29T12:41:39Z</time>
      </trkpt>
      <trkpt lat="46.83109" lon="6.80881">
        <ele>434.8</ele>
        <time>2022-09-29T12:41:40Z</time>
      </trkpt>
      <trkpt lat="46.83112" lon="6.80883">
        <ele>434.9</ele>
        <time>2022-09-29T12:41:41Z</time>
      </trkpt>
      <trkpt lat="46.83114" lon="6.80887">
        <ele>434.9</ele>
        <time>2022-09-29T12:41:42Z</time>
      </trkpt>
      <trkpt lat="46.83115" lon="6.80889">
        <ele>434.9</ele>
        <time>2022-09-29T12:41:43Z</time>
      </trkpt>
      <trkpt lat="46.83117" lon="6.80892">
        <ele>434.9</ele>
        <time>2022-09-29T12:41:44Z</time>
      </trkpt>
      <trkpt lat="46.83119" lon="6.80896">
        <ele>434.9</ele>
        <time>2022-09-29T12:41:45Z</time>
      </trkpt>
      <trkpt lat="46.83121" lon="6.80898">
        <ele>434.9</ele>
        <time>2022-09-29T12:41:46Z</time>
      </trkpt>
      <trkpt lat="46.83124" lon="6.80902">
        <ele>434.9</ele>
        <time>2022-09-29T12:41:47Z</time>
      </trkpt>
      <trkpt lat="46.83126" lon="6.80904">
        <ele>435</ele>
        <time>2022-09-29T12:41:48Z</time>
      </trkpt>
      <trkpt lat="46.83129" lon="6.80908">
        <ele>435</ele>
        <time>2022-09-29T12:41:49Z</time>
      </trkpt>
      <trkpt lat="46.83131" lon="6.8091">
        <ele>435</ele>
        <time>2022-09-29T12:41:50Z</time>
      </trkpt>
      <trkpt lat="46.83133" lon="6.80913">
        <ele>435</ele>
        <time>2022-09-29T12:41:51Z</time>
      </trkpt>
      <trkpt lat="46.83135" lon="6.80914">
        <ele>435</ele>
        <time>2022-09-29T12:41:52Z</time>
      </trkpt>
      <trkpt lat="46.83138" lon="6.80917">
        <ele>435</ele>
        <time>2022-09-29T12:41:53Z</time>
      </trkpt>
      <trkpt lat="46.8314" lon="6.80921">
        <ele>435.1</ele>
        <time>2022-09-29T12:41:54Z</time>
      </trkpt>
      <trkpt lat="46.83143" lon="6.80925">
        <ele>435.1</ele>
        <time>2022-09-29T12:41:55Z</time>
      </trkpt>
      <trkpt lat="46.83145" lon="6.80927">
        <ele>435.1</ele>
        <time>2022-09-29T12:41:56Z</time>
      </trkpt>
      <trkpt lat="46.83148" lon="6.80929">
        <ele>435.2</ele>
        <time>2022-09-29T12:41:57Z</time>
      </trkpt>
      <trkpt lat="46.83151" lon="6.80932">
        <ele>435.2</ele>
        <time>2022-09-29T12:41:58Z</time>
      </trkpt>
      <trkpt lat="46.83154" lon="6.80936">
        <ele>435.2</ele>
        <time>2022-09-29T12:41:59Z</time>
      </trkpt>
      <trkpt lat="46.83157" lon="6.80939">
        <ele>435.3</ele>
        <time>2022-09-29T12:42:00Z</time>
      </trkpt>
      <trkpt lat="46.8316" lon="6.80942">
        <ele>435.3</ele>
        <time>2022-09-29T12:42:01Z</time>
      </trkpt>
      <trkpt lat="46.83161" lon="6.80944">
        <ele>435.4</ele>
        <time>2022-09-29T12:42:02Z</time>
      </trkpt>
      <trkpt lat="46.83164" lon="6.80946">
        <ele>435.4</ele>
        <time>2022-09-29T12:42:03Z</time>
      </trkpt>
      <trkpt lat="46.83167" lon="6.8095">
        <ele>435.5</ele>
        <time>2022-09-29T12:42:04Z</time>
      </trkpt>
      <trkpt lat="46.83171" lon="6.80953">
        <ele>435.6</ele>
        <time>2022-09-29T12:42:05Z</time>
      </trkpt>
      <trkpt lat="46.83173" lon="6.80955">
        <ele>435.6</ele>
        <time>2022-09-29T12:42:06Z</time>
      </trkpt>
      <trkpt lat="46.83175" lon="6.80958">
        <ele>435.7</ele>
        <time>2022-09-29T12:42:07Z</time>
      </trkpt>
      <trkpt lat="46.83175" lon="6.80958">
        <ele>435.7</ele>
        <time>2022-09-29T12:42:08Z</time>
      </trkpt>
      <trkpt lat="46.83176" lon="6.80963">
        <ele>435.7</ele>
        <time>2022-09-29T12:42:09Z</time>
      </trkpt>
      <trkpt lat="46.83177" lon="6.80964">
        <ele>435.7</ele>
        <time>2022-09-29T12:42:10Z</time>
      </trkpt>
      <trkpt lat="46.8318" lon="6.80968">
        <ele>435.8</ele>
        <time>2022-09-29T12:42:11Z</time>
      </trkpt>
      <trkpt lat="46.83181" lon="6.80969">
        <ele>435.8</ele>
        <time>2022-09-29T12:42:12Z</time>
      </trkpt>
      <trkpt lat="46.83183" lon="6.80972">
        <ele>435.9</ele>
        <time>2022-09-29T12:42:13Z</time>
      </trkpt>
      <trkpt lat="46.83186" lon="6.80974">
        <ele>435.9</ele>
        <time>2022-09-29T12:42:14Z</time>
      </trkpt>
      <trkpt lat="46.8319" lon="6.80977">
        <ele>436</ele>
        <time>2022-09-29T12:42:15Z</time>
      </trkpt>
      <trkpt lat="46.83191" lon="6.80978">
        <ele>436</ele>
        <time>2022-09-29T12:42:16Z</time>
      </trkpt>
      <trkpt lat="46.83193" lon="6.8098">
        <ele>436</ele>
        <time>2022-09-29T12:42:17Z</time>
      </trkpt>
      <trkpt lat="46.83195" lon="6.80984">
        <ele>436</ele>
        <time>2022-09-29T12:42:18Z</time>
      </trkpt>
      <trkpt lat="46.83198" lon="6.80987">
        <ele>436</ele>
        <time>2022-09-29T12:42:19Z</time>
      </trkpt>
      <trkpt lat="46.83202" lon="6.80988">
        <ele>436</ele>
        <time>2022-09-29T12:42:20Z</time>
      </trkpt>
      <trkpt lat="46.83204" lon="6.80989">
        <ele>436.1</ele>
        <time>2022-09-29T12:42:21Z</time>
      </trkpt>
      <trkpt lat="46.83208" lon="6.80992">
        <ele>436.1</ele>
        <time>2022-09-29T12:42:22Z</time>
      </trkpt>
      <trkpt lat="46.83209" lon="6.80993">
        <ele>436.1</ele>
        <time>2022-09-29T12:42:23Z</time>
      </trkpt>
      <trkpt lat="46.83211" lon="6.80996">
        <ele>436.1</ele>
        <time>2022-09-29T12:42:24Z</time>
      </trkpt>
      <trkpt lat="46.83214" lon="6.80999">
        <ele>436.1</ele>
        <time>2022-09-29T12:42:26Z</time>
      </trkpt>
      <trkpt lat="46.83218" lon="6.81001">
        <ele>436.1</ele>
        <time>2022-09-29T12:42:27Z</time>
      </trkpt>
      <trkpt lat="46.83219" lon="6.81005">
        <ele>436.2</ele>
        <time>2022-09-29T12:42:28Z</time>
      </trkpt>
      <trkpt lat="46.83223" lon="6.81005">
        <ele>436.2</ele>
        <time>2022-09-29T12:42:29Z</time>
      </trkpt>
      <trkpt lat="46.83227" lon="6.81008">
        <ele>436.2</ele>
        <time>2022-09-29T12:42:30Z</time>
      </trkpt>
      <trkpt lat="46.83231" lon="6.81012">
        <ele>436.2</ele>
        <time>2022-09-29T12:42:31Z</time>
      </trkpt>
      <trkpt lat="46.83233" lon="6.81014">
        <ele>436.2</ele>
        <time>2022-09-29T12:42:32Z</time>
      </trkpt>
      <trkpt lat="46.83236" lon="6.81015">
        <ele>436.3</ele>
        <time>2022-09-29T12:42:33Z</time>
      </trkpt>
      <trkpt lat="46.83238" lon="6.81018">
        <ele>436.3</ele>
        <time>2022-09-29T12:42:34Z</time>
      </trkpt>
      <trkpt lat="46.83241" lon="6.81021">
        <ele>436.3</ele>
        <time>2022-09-29T12:42:35Z</time>
      </trkpt>
      <trkpt lat="46.83243" lon="6.81022">
        <ele>436.3</ele>
        <time>2022-09-29T12:42:36Z</time>
      </trkpt>
      <trkpt lat="46.83245" lon="6.81023">
        <ele>436.3</ele>
        <time>2022-09-29T12:42:37Z</time>
      </trkpt>
      <trkpt lat="46.8325" lon="6.81024">
        <ele>436.3</ele>
        <time>2022-09-29T12:42:38Z</time>
      </trkpt>
      <trkpt lat="46.83253" lon="6.81025">
        <ele>436.4</ele>
        <time>2022-09-29T12:42:39Z</time>
      </trkpt>
      <trkpt lat="46.83256" lon="6.81028">
        <ele>436.4</ele>
        <time>2022-09-29T12:42:40Z</time>
      </trkpt>
      <trkpt lat="46.8326" lon="6.81032">
        <ele>436.4</ele>
        <time>2022-09-29T12:42:41Z</time>
      </trkpt>
      <trkpt lat="46.83263" lon="6.81035">
        <ele>436.5</ele>
        <time>2022-09-29T12:42:42Z</time>
      </trkpt>
      <trkpt lat="46.83266" lon="6.81037">
        <ele>436.5</ele>
        <time>2022-09-29T12:42:43Z</time>
      </trkpt>
      <trkpt lat="46.83268" lon="6.81039">
        <ele>436.5</ele>
        <time>2022-09-29T12:42:44Z</time>
      </trkpt>
      <trkpt lat="46.8327" lon="6.8104">
        <ele>436.5</ele>
        <time>2022-09-29T12:42:45Z</time>
      </trkpt>
      <trkpt lat="46.83271" lon="6.81042">
        <ele>436.5</ele>
        <time>2022-09-29T12:42:46Z</time>
      </trkpt>
      <trkpt lat="46.83274" lon="6.81043">
        <ele>436.5</ele>
        <time>2022-09-29T12:42:47Z</time>
      </trkpt>
      <trkpt lat="46.83275" lon="6.81044">
        <ele>436.6</ele>
        <time>2022-09-29T12:42:48Z</time>
      </trkpt>
      <trkpt lat="46.83277" lon="6.81044">
        <ele>436.6</ele>
        <time>2022-09-29T12:42:49Z</time>
      </trkpt>
      <trkpt lat="46.83279" lon="6.81046">
        <ele>436.6</ele>
        <time>2022-09-29T12:42:50Z</time>
      </trkpt>
      <trkpt lat="46.83283" lon="6.81048">
        <ele>436.6</ele>
        <time>2022-09-29T12:42:51Z</time>
      </trkpt>
      <trkpt lat="46.83284" lon="6.81049">
        <ele>436.6</ele>
        <time>2022-09-29T12:42:52Z</time>
      </trkpt>
      <trkpt lat="46.83287" lon="6.81053">
        <ele>436.7</ele>
        <time>2022-09-29T12:42:53Z</time>
      </trkpt>
      <trkpt lat="46.83288" lon="6.81054">
        <ele>436.7</ele>
        <time>2022-09-29T12:42:54Z</time>
      </trkpt>
      <trkpt lat="46.83292" lon="6.81054">
        <ele>436.7</ele>
        <time>2022-09-29T12:42:55Z</time>
      </trkpt>
      <trkpt lat="46.83296" lon="6.81056">
        <ele>436.7</ele>
        <time>2022-09-29T12:42:56Z</time>
      </trkpt>
      <trkpt lat="46.83298" lon="6.81056">
        <ele>436.7</ele>
        <time>2022-09-29T12:42:57Z</time>
      </trkpt>
      <trkpt lat="46.83301" lon="6.81057">
        <ele>436.8</ele>
        <time>2022-09-29T12:42:58Z</time>
      </trkpt>
      <trkpt lat="46.83305" lon="6.8106">
        <ele>436.8</ele>
        <time>2022-09-29T12:42:59Z</time>
      </trkpt>
      <trkpt lat="46.83306" lon="6.81061">
        <ele>436.8</ele>
        <time>2022-09-29T12:43:00Z</time>
      </trkpt>
      <trkpt lat="46.83309" lon="6.81061">
        <ele>436.8</ele>
        <time>2022-09-29T12:43:01Z</time>
      </trkpt>
      <trkpt lat="46.83313" lon="6.81063">
        <ele>436.9</ele>
        <time>2022-09-29T12:43:02Z</time>
      </trkpt>
      <trkpt lat="46.83314" lon="6.81064">
        <ele>436.9</ele>
        <time>2022-09-29T12:43:03Z</time>
      </trkpt>
      <trkpt lat="46.83319" lon="6.81066">
        <ele>436.9</ele>
        <time>2022-09-29T12:43:04Z</time>
      </trkpt>
      <trkpt lat="46.83322" lon="6.81066">
        <ele>437</ele>
        <time>2022-09-29T12:43:05Z</time>
      </trkpt>
      <trkpt lat="46.83325" lon="6.81067">
        <ele>437</ele>
        <time>2022-09-29T12:43:06Z</time>
      </trkpt>
      <trkpt lat="46.83329" lon="6.81067">
        <ele>437</ele>
        <time>2022-09-29T12:43:07Z</time>
      </trkpt>
      <trkpt lat="46.83332" lon="6.81067">
        <ele>437.1</ele>
        <time>2022-09-29T12:43:08Z</time>
      </trkpt>
      <trkpt lat="46.83334" lon="6.81068">
        <ele>437.1</ele>
        <time>2022-09-29T12:43:09Z</time>
      </trkpt>
      <trkpt lat="46.83337" lon="6.81069">
        <ele>437.1</ele>
        <time>2022-09-29T12:43:10Z</time>
      </trkpt>
      <trkpt lat="46.83341" lon="6.8107">
        <ele>437.2</ele>
        <time>2022-09-29T12:43:11Z</time>
      </trkpt>
      <trkpt lat="46.83342" lon="6.81071">
        <ele>437.2</ele>
        <time>2022-09-29T12:43:12Z</time>
      </trkpt>
      <trkpt lat="46.83346" lon="6.81072">
        <ele>437.2</ele>
        <time>2022-09-29T12:43:13Z</time>
      </trkpt>
      <trkpt lat="46.83349" lon="6.81073">
        <ele>437.2</ele>
        <time>2022-09-29T12:43:14Z</time>
      </trkpt>
      <trkpt lat="46.83352" lon="6.81075">
        <ele>437.2</ele>
        <time>2022-09-29T12:43:15Z</time>
      </trkpt>
      <trkpt lat="46.83355" lon="6.81077">
        <ele>437.3</ele>
        <time>2022-09-29T12:43:16Z</time>
      </trkpt>
      <trkpt lat="46.83358" lon="6.81079">
        <ele>437.3</ele>
        <time>2022-09-29T12:43:17Z</time>
      </trkpt>
      <trkpt lat="46.83361" lon="6.8108">
        <ele>437.3</ele>
        <time>2022-09-29T12:43:18Z</time>
      </trkpt>
      <trkpt lat="46.83365" lon="6.8108">
        <ele>437.3</ele>
        <time>2022-09-29T12:43:19Z</time>
      </trkpt>
      <trkpt lat="46.83368" lon="6.81081">
        <ele>437.3</ele>
        <time>2022-09-29T12:43:20Z</time>
      </trkpt>
      <trkpt lat="46.83371" lon="6.81082">
        <ele>437.4</ele>
        <time>2022-09-29T12:43:21Z</time>
      </trkpt>
      <trkpt lat="46.83376" lon="6.81085">
        <ele>437.4</ele>
        <time>2022-09-29T12:43:22Z</time>
      </trkpt>
      <trkpt lat="46.83378" lon="6.81086">
        <ele>437.4</ele>
        <time>2022-09-29T12:43:23Z</time>
      </trkpt>
      <trkpt lat="46.8338" lon="6.81087">
        <ele>437.4</ele>
        <time>2022-09-29T12:43:24Z</time>
      </trkpt>
      <trkpt lat="46.83383" lon="6.81089">
        <ele>437.4</ele>
        <time>2022-09-29T12:43:25Z</time>
      </trkpt>
      <trkpt lat="46.83386" lon="6.8109">
        <ele>437.4</ele>
        <time>2022-09-29T12:43:26Z</time>
      </trkpt>
      <trkpt lat="46.8339" lon="6.81091">
        <ele>437.5</ele>
        <time>2022-09-29T12:43:27Z</time>
      </trkpt>
      <trkpt lat="46.83393" lon="6.81093">
        <ele>437.5</ele>
        <time>2022-09-29T12:43:28Z</time>
      </trkpt>
      <trkpt lat="46.83396" lon="6.81093">
        <ele>437.5</ele>
        <time>2022-09-29T12:43:29Z</time>
      </trkpt>
      <trkpt lat="46.83398" lon="6.81094">
        <ele>437.5</ele>
        <time>2022-09-29T12:43:30Z</time>
      </trkpt>
      <trkpt lat="46.83401" lon="6.81096">
        <ele>437.6</ele>
        <time>2022-09-29T12:43:31Z</time>
      </trkpt>
      <trkpt lat="46.83404" lon="6.81097">
        <ele>437.6</ele>
        <time>2022-09-29T12:43:32Z</time>
      </trkpt>
      <trkpt lat="46.83408" lon="6.811">
        <ele>437.7</ele>
        <time>2022-09-29T12:43:33Z</time>
      </trkpt>
      <trkpt lat="46.83412" lon="6.81101">
        <ele>437.7</ele>
        <time>2022-09-29T12:43:34Z</time>
      </trkpt>
      <trkpt lat="46.83413" lon="6.81101">
        <ele>437.7</ele>
        <time>2022-09-29T12:43:35Z</time>
      </trkpt>
      <trkpt lat="46.83416" lon="6.81104">
        <ele>437.8</ele>
        <time>2022-09-29T12:43:36Z</time>
      </trkpt>
      <trkpt lat="46.83418" lon="6.81104">
        <ele>437.8</ele>
        <time>2022-09-29T12:43:37Z</time>
      </trkpt>
      <trkpt lat="46.83421" lon="6.81105">
        <ele>437.9</ele>
        <time>2022-09-29T12:43:38Z</time>
      </trkpt>
      <trkpt lat="46.83425" lon="6.81107">
        <ele>437.9</ele>
        <time>2022-09-29T12:43:39Z</time>
      </trkpt>
      <trkpt lat="46.83426" lon="6.81108">
        <ele>437.9</ele>
        <time>2022-09-29T12:43:40Z</time>
      </trkpt>
      <trkpt lat="46.8343" lon="6.81109">
        <ele>437.9</ele>
        <time>2022-09-29T12:43:41Z</time>
      </trkpt>
      <trkpt lat="46.83434" lon="6.81111">
        <ele>438</ele>
        <time>2022-09-29T12:43:42Z</time>
      </trkpt>
      <trkpt lat="46.83438" lon="6.81112">
        <ele>438</ele>
        <time>2022-09-29T12:43:43Z</time>
      </trkpt>
      <trkpt lat="46.83441" lon="6.81113">
        <ele>438.1</ele>
        <time>2022-09-29T12:43:44Z</time>
      </trkpt>
      <trkpt lat="46.83444" lon="6.81115">
        <ele>438.1</ele>
        <time>2022-09-29T12:43:45Z</time>
      </trkpt>
      <trkpt lat="46.83446" lon="6.81117">
        <ele>438.1</ele>
        <time>2022-09-29T12:43:46Z</time>
      </trkpt>
      <trkpt lat="46.8345" lon="6.81117">
        <ele>438.1</ele>
        <time>2022-09-29T12:43:47Z</time>
      </trkpt>
      <trkpt lat="46.83454" lon="6.8112">
        <ele>438.2</ele>
        <time>2022-09-29T12:43:48Z</time>
      </trkpt>
      <trkpt lat="46.83455" lon="6.81121">
        <ele>438.2</ele>
        <time>2022-09-29T12:43:49Z</time>
      </trkpt>
      <trkpt lat="46.83459" lon="6.81123">
        <ele>438.2</ele>
        <time>2022-09-29T12:43:50Z</time>
      </trkpt>
      <trkpt lat="46.83461" lon="6.81124">
        <ele>438.2</ele>
        <time>2022-09-29T12:43:51Z</time>
      </trkpt>
      <trkpt lat="46.83465" lon="6.81125">
        <ele>438.3</ele>
        <time>2022-09-29T12:43:52Z</time>
      </trkpt>
      <trkpt lat="46.83468" lon="6.81127">
        <ele>438.3</ele>
        <time>2022-09-29T12:43:53Z</time>
      </trkpt>
      <trkpt lat="46.83471" lon="6.81128">
        <ele>438.3</ele>
        <time>2022-09-29T12:43:54Z</time>
      </trkpt>
      <trkpt lat="46.83475" lon="6.81131">
        <ele>438.3</ele>
        <time>2022-09-29T12:43:55Z</time>
      </trkpt>
      <trkpt lat="46.83478" lon="6.81133">
        <ele>438.3</ele>
        <time>2022-09-29T12:43:56Z</time>
      </trkpt>
      <trkpt lat="46.83482" lon="6.81134">
        <ele>438.3</ele>
        <time>2022-09-29T12:43:57Z</time>
      </trkpt>
      <trkpt lat="46.83485" lon="6.81136">
        <ele>438.3</ele>
        <time>2022-09-29T12:43:58Z</time>
      </trkpt>
      <trkpt lat="46.83488" lon="6.81137">
        <ele>438.3</ele>
        <time>2022-09-29T12:43:59Z</time>
      </trkpt>
      <trkpt lat="46.83492" lon="6.8114">
        <ele>438.4</ele>
        <time>2022-09-29T12:44:00Z</time>
      </trkpt>
      <trkpt lat="46.83494" lon="6.81141">
        <ele>438.4</ele>
        <time>2022-09-29T12:44:01Z</time>
      </trkpt>
      <trkpt lat="46.83497" lon="6.81144">
        <ele>438.4</ele>
        <time>2022-09-29T12:44:02Z</time>
      </trkpt>
      <trkpt lat="46.83498" lon="6.81145">
        <ele>438.4</ele>
        <time>2022-09-29T12:44:03Z</time>
      </trkpt>
      <trkpt lat="46.83502" lon="6.81147">
        <ele>438.5</ele>
        <time>2022-09-29T12:44:04Z</time>
      </trkpt>
      <trkpt lat="46.83506" lon="6.81148">
        <ele>438.5</ele>
        <time>2022-09-29T12:44:05Z</time>
      </trkpt>
      <trkpt lat="46.8351" lon="6.81149">
        <ele>438.6</ele>
        <time>2022-09-29T12:44:06Z</time>
      </trkpt>
      <trkpt lat="46.83513" lon="6.8115">
        <ele>438.6</ele>
        <time>2022-09-29T12:44:07Z</time>
      </trkpt>
      <trkpt lat="46.83516" lon="6.81152">
        <ele>438.7</ele>
        <time>2022-09-29T12:44:08Z</time>
      </trkpt>
      <trkpt lat="46.83519" lon="6.81155">
        <ele>438.8</ele>
        <time>2022-09-29T12:44:09Z</time>
      </trkpt>
      <trkpt lat="46.83521" lon="6.81157">
        <ele>438.8</ele>
        <time>2022-09-29T12:44:10Z</time>
      </trkpt>
      <trkpt lat="46.83524" lon="6.8116">
        <ele>438.9</ele>
        <time>2022-09-29T12:44:11Z</time>
      </trkpt>
      <trkpt lat="46.83526" lon="6.81162">
        <ele>438.9</ele>
        <time>2022-09-29T12:44:12Z</time>
      </trkpt>
      <trkpt lat="46.8353" lon="6.81165">
        <ele>438.9</ele>
        <time>2022-09-29T12:44:13Z</time>
      </trkpt>
      <trkpt lat="46.83531" lon="6.81167">
        <ele>438.9</ele>
        <time>2022-09-29T12:44:14Z</time>
      </trkpt>
      <trkpt lat="46.83533" lon="6.8117">
        <ele>439</ele>
        <time>2022-09-29T12:44:15Z</time>
      </trkpt>
      <trkpt lat="46.83536" lon="6.81173">
        <ele>439</ele>
        <time>2022-09-29T12:44:16Z</time>
      </trkpt>
      <trkpt lat="46.83537" lon="6.81174">
        <ele>438.9</ele>
        <time>2022-09-29T12:44:17Z</time>
      </trkpt>
      <trkpt lat="46.8354" lon="6.81178">
        <ele>438.9</ele>
        <time>2022-09-29T12:44:18Z</time>
      </trkpt>
      <trkpt lat="46.8354" lon="6.8118">
        <ele>438.8</ele>
        <time>2022-09-29T12:44:19Z</time>
      </trkpt>
      <trkpt lat="46.83543" lon="6.81183">
        <ele>438.7</ele>
        <time>2022-09-29T12:44:20Z</time>
      </trkpt>
      <trkpt lat="46.83544" lon="6.81184">
        <ele>438.7</ele>
        <time>2022-09-29T12:44:21Z</time>
      </trkpt>
      <trkpt lat="46.83546" lon="6.81188">
        <ele>438.6</ele>
        <time>2022-09-29T12:44:22Z</time>
      </trkpt>
      <trkpt lat="46.83547" lon="6.81189">
        <ele>438.5</ele>
        <time>2022-09-29T12:44:23Z</time>
      </trkpt>
      <trkpt lat="46.83549" lon="6.81191">
        <ele>438.4</ele>
        <time>2022-09-29T12:44:24Z</time>
      </trkpt>
      <trkpt lat="46.83552" lon="6.81195">
        <ele>438.3</ele>
        <time>2022-09-29T12:44:25Z</time>
      </trkpt>
      <trkpt lat="46.83552" lon="6.81196">
        <ele>438.1</ele>
        <time>2022-09-29T12:44:26Z</time>
      </trkpt>
      <trkpt lat="46.83555" lon="6.81199">
        <ele>437.9</ele>
        <time>2022-09-29T12:44:27Z</time>
      </trkpt>
      <trkpt lat="46.83556" lon="6.812">
        <ele>437.9</ele>
        <time>2022-09-29T12:44:28Z</time>
      </trkpt>
      <trkpt lat="46.83557" lon="6.81201">
        <ele>437.8</ele>
        <time>2022-09-29T12:44:29Z</time>
      </trkpt>
      <trkpt lat="46.83559" lon="6.81202">
        <ele>437.7</ele>
        <time>2022-09-29T12:44:30Z</time>
      </trkpt>
      <trkpt lat="46.8356" lon="6.81204">
        <ele>437.6</ele>
        <time>2022-09-29T12:44:32Z</time>
      </trkpt>
      <trkpt lat="46.8356" lon="6.81205">
        <ele>437.6</ele>
        <time>2022-09-29T12:44:33Z</time>
      </trkpt>
      <trkpt lat="46.83562" lon="6.81205">
        <ele>437.5</ele>
        <time>2022-09-29T12:44:34Z</time>
      </trkpt>
      <trkpt lat="46.83565" lon="6.81204">
        <ele>437.4</ele>
        <time>2022-09-29T12:44:35Z</time>
      </trkpt>
      <trkpt lat="46.83568" lon="6.81203">
        <ele>437.2</ele>
        <time>2022-09-29T12:44:36Z</time>
      </trkpt>
      <trkpt lat="46.8357" lon="6.81203">
        <ele>437.2</ele>
        <time>2022-09-29T12:44:37Z</time>
      </trkpt>
      <trkpt lat="46.83571" lon="6.81204">
        <ele>437.1</ele>
        <time>2022-09-29T12:44:38Z</time>
      </trkpt>
      <trkpt lat="46.83573" lon="6.81203">
        <ele>437.1</ele>
        <time>2022-09-29T12:44:39Z</time>
      </trkpt>
      <trkpt lat="46.83575" lon="6.81202">
        <ele>437</ele>
        <time>2022-09-29T12:44:40Z</time>
      </trkpt>
      <trkpt lat="46.83576" lon="6.81201">
        <ele>436.9</ele>
        <time>2022-09-29T12:44:41Z</time>
      </trkpt>
      <trkpt lat="46.83578" lon="6.812">
        <ele>436.7</ele>
        <time>2022-09-29T12:44:42Z</time>
      </trkpt>
      <trkpt lat="46.8358" lon="6.812">
        <ele>436.5</ele>
        <time>2022-09-29T12:44:44Z</time>
      </trkpt>
      <trkpt lat="46.83584" lon="6.81195">
        <ele>436.1</ele>
        <time>2022-09-29T12:44:45Z</time>
      </trkpt>
      <trkpt lat="46.83586" lon="6.81194">
        <ele>435.8</ele>
        <time>2022-09-29T12:44:46Z</time>
      </trkpt>
      <trkpt lat="46.83587" lon="6.81192">
        <ele>435.7</ele>
        <time>2022-09-29T12:44:48Z</time>
      </trkpt>
      <trkpt lat="46.83589" lon="6.8119">
        <ele>435.5</ele>
        <time>2022-09-29T12:44:49Z</time>
      </trkpt>
      <trkpt lat="46.83591" lon="6.81186">
        <ele>435.1</ele>
        <time>2022-09-29T12:44:50Z</time>
      </trkpt>
      <trkpt lat="46.83591" lon="6.81185">
        <ele>435</ele>
        <time>2022-09-29T12:44:51Z</time>
      </trkpt>
      <trkpt lat="46.83593" lon="6.81182">
        <ele>434.7</ele>
        <time>2022-09-29T12:44:52Z</time>
      </trkpt>
      <trkpt lat="46.83594" lon="6.8118">
        <ele>434.6</ele>
        <time>2022-09-29T12:44:53Z</time>
      </trkpt>
      <trkpt lat="46.83596" lon="6.81176">
        <ele>434.3</ele>
        <time>2022-09-29T12:44:54Z</time>
      </trkpt>
      <trkpt lat="46.83597" lon="6.81171">
        <ele>434</ele>
        <time>2022-09-29T12:44:55Z</time>
      </trkpt>
      <trkpt lat="46.83599" lon="6.81167">
        <ele>433.7</ele>
        <time>2022-09-29T12:44:56Z</time>
      </trkpt>
      <trkpt lat="46.836" lon="6.81165">
        <ele>433.6</ele>
        <time>2022-09-29T12:44:57Z</time>
      </trkpt>
      <trkpt lat="46.836" lon="6.81161">
        <ele>433.4</ele>
        <time>2022-09-29T12:44:58Z</time>
      </trkpt>
      <trkpt lat="46.83601" lon="6.81159">
        <ele>433.3</ele>
        <time>2022-09-29T12:44:59Z</time>
      </trkpt>
      <trkpt lat="46.83603" lon="6.81157">
        <ele>433.1</ele>
        <time>2022-09-29T12:45:00Z</time>
      </trkpt>
      <trkpt lat="46.83604" lon="6.81156">
        <ele>433.1</ele>
        <time>2022-09-29T12:45:01Z</time>
      </trkpt>
      <trkpt lat="46.83608" lon="6.81152">
        <ele>432.9</ele>
        <time>2022-09-29T12:45:02Z</time>
      </trkpt>
      <trkpt lat="46.83611" lon="6.8115">
        <ele>432.8</ele>
        <time>2022-09-29T12:45:03Z</time>
      </trkpt>
      <trkpt lat="46.83614" lon="6.8115">
        <ele>432.7</ele>
        <time>2022-09-29T12:45:04Z</time>
      </trkpt>
      <trkpt lat="46.83615" lon="6.81149">
        <ele>432.7</ele>
        <time>2022-09-29T12:45:05Z</time>
      </trkpt>
      <trkpt lat="46.83618" lon="6.81149">
        <ele>432.6</ele>
        <time>2022-09-29T12:45:06Z</time>
      </trkpt>
      <trkpt lat="46.83622" lon="6.8115">
        <ele>432.6</ele>
        <time>2022-09-29T12:45:07Z</time>
      </trkpt>
      <trkpt lat="46.83623" lon="6.81151">
        <ele>432.6</ele>
        <time>2022-09-29T12:45:08Z</time>
      </trkpt>
      <trkpt lat="46.83626" lon="6.81153">
        <ele>432.5</ele>
        <time>2022-09-29T12:45:09Z</time>
      </trkpt>
      <trkpt lat="46.83628" lon="6.81154">
        <ele>432.5</ele>
        <time>2022-09-29T12:45:10Z</time>
      </trkpt>
      <trkpt lat="46.83631" lon="6.81157">
        <ele>432.5</ele>
        <time>2022-09-29T12:45:11Z</time>
      </trkpt>
      <trkpt lat="46.83633" lon="6.81158">
        <ele>432.5</ele>
        <time>2022-09-29T12:45:12Z</time>
      </trkpt>
      <trkpt lat="46.83636" lon="6.8116">
        <ele>432.5</ele>
        <time>2022-09-29T12:45:13Z</time>
      </trkpt>
      <trkpt lat="46.83639" lon="6.81161">
        <ele>432.5</ele>
        <time>2022-09-29T12:45:14Z</time>
      </trkpt>
      <trkpt lat="46.83642" lon="6.81165">
        <ele>432.5</ele>
        <time>2022-09-29T12:45:15Z</time>
      </trkpt>
      <trkpt lat="46.83643" lon="6.81166">
        <ele>432.5</ele>
        <time>2022-09-29T12:45:16Z</time>
      </trkpt>
      <trkpt lat="46.83645" lon="6.81169">
        <ele>432.5</ele>
        <time>2022-09-29T12:45:17Z</time>
      </trkpt>
      <trkpt lat="46.83647" lon="6.81173">
        <ele>432.4</ele>
        <time>2022-09-29T12:45:18Z</time>
      </trkpt>
      <trkpt lat="46.83648" lon="6.81175">
        <ele>432.4</ele>
        <time>2022-09-29T12:45:19Z</time>
      </trkpt>
      <trkpt lat="46.83651" lon="6.81177">
        <ele>432.4</ele>
        <time>2022-09-29T12:45:20Z</time>
      </trkpt>
      <trkpt lat="46.83655" lon="6.81181">
        <ele>432.4</ele>
        <time>2022-09-29T12:45:21Z</time>
      </trkpt>
      <trkpt lat="46.83658" lon="6.81185">
        <ele>432.4</ele>
        <time>2022-09-29T12:45:22Z</time>
      </trkpt>
      <trkpt lat="46.8366" lon="6.81189">
        <ele>432.4</ele>
        <time>2022-09-29T12:45:23Z</time>
      </trkpt>
      <trkpt lat="46.83662" lon="6.81194">
        <ele>432.4</ele>
        <time>2022-09-29T12:45:24Z</time>
      </trkpt>
      <trkpt lat="46.83664" lon="6.81198">
        <ele>432.4</ele>
        <time>2022-09-29T12:45:25Z</time>
      </trkpt>
      <trkpt lat="46.83665" lon="6.81203">
        <ele>432.4</ele>
        <time>2022-09-29T12:45:26Z</time>
      </trkpt>
      <trkpt lat="46.83667" lon="6.81208">
        <ele>432.4</ele>
        <time>2022-09-29T12:45:27Z</time>
      </trkpt>
      <trkpt lat="46.83669" lon="6.81213">
        <ele>432.4</ele>
        <time>2022-09-29T12:45:28Z</time>
      </trkpt>
      <trkpt lat="46.83671" lon="6.81218">
        <ele>432.4</ele>
        <time>2022-09-29T12:45:29Z</time>
      </trkpt>
      <trkpt lat="46.83672" lon="6.81223">
        <ele>432.4</ele>
        <time>2022-09-29T12:45:30Z</time>
      </trkpt>
      <trkpt lat="46.83674" lon="6.81228">
        <ele>432.4</ele>
        <time>2022-09-29T12:45:31Z</time>
      </trkpt>
      <trkpt lat="46.83675" lon="6.81233">
        <ele>432.4</ele>
        <time>2022-09-29T12:45:32Z</time>
      </trkpt>
      <trkpt lat="46.83676" lon="6.81237">
        <ele>432.4</ele>
        <time>2022-09-29T12:45:33Z</time>
      </trkpt>
      <trkpt lat="46.83678" lon="6.81242">
        <ele>432.4</ele>
        <time>2022-09-29T12:45:34Z</time>
      </trkpt>
      <trkpt lat="46.8368" lon="6.81247">
        <ele>432.4</ele>
        <time>2022-09-29T12:45:35Z</time>
      </trkpt>
      <trkpt lat="46.83683" lon="6.81253">
        <ele>432.4</ele>
        <time>2022-09-29T12:45:36Z</time>
      </trkpt>
      <trkpt lat="46.83684" lon="6.81258">
        <ele>432.4</ele>
        <time>2022-09-29T12:45:37Z</time>
      </trkpt>
      <trkpt lat="46.83686" lon="6.81263">
        <ele>432.4</ele>
        <time>2022-09-29T12:45:38Z</time>
      </trkpt>
      <trkpt lat="46.83687" lon="6.81268">
        <ele>432.4</ele>
        <time>2022-09-29T12:45:39Z</time>
      </trkpt>
      <trkpt lat="46.83689" lon="6.81273">
        <ele>432.3</ele>
        <time>2022-09-29T12:45:40Z</time>
      </trkpt>
      <trkpt lat="46.83691" lon="6.81278">
        <ele>432.3</ele>
        <time>2022-09-29T12:45:41Z</time>
      </trkpt>
      <trkpt lat="46.83692" lon="6.81284">
        <ele>432.3</ele>
        <time>2022-09-29T12:45:42Z</time>
      </trkpt>
      <trkpt lat="46.83693" lon="6.81288">
        <ele>432.3</ele>
        <time>2022-09-29T12:45:43Z</time>
      </trkpt>
      <trkpt lat="46.83694" lon="6.81292">
        <ele>432.3</ele>
        <time>2022-09-29T12:45:44Z</time>
      </trkpt>
      <trkpt lat="46.83696" lon="6.81298">
        <ele>432.3</ele>
        <time>2022-09-29T12:45:45Z</time>
      </trkpt>
      <trkpt lat="46.83699" lon="6.81303">
        <ele>432.2</ele>
        <time>2022-09-29T12:45:46Z</time>
      </trkpt>
      <trkpt lat="46.83701" lon="6.81307">
        <ele>432.2</ele>
        <time>2022-09-29T12:45:47Z</time>
      </trkpt>
      <trkpt lat="46.83702" lon="6.81312">
        <ele>432.2</ele>
        <time>2022-09-29T12:45:48Z</time>
      </trkpt>
      <trkpt lat="46.83703" lon="6.81318">
        <ele>432.2</ele>
        <time>2022-09-29T12:45:49Z</time>
      </trkpt>
      <trkpt lat="46.83704" lon="6.81323">
        <ele>432.2</ele>
        <time>2022-09-29T12:45:50Z</time>
      </trkpt>
      <trkpt lat="46.83705" lon="6.81329">
        <ele>432.1</ele>
        <time>2022-09-29T12:45:51Z</time>
      </trkpt>
      <trkpt lat="46.83708" lon="6.81334">
        <ele>432.1</ele>
        <time>2022-09-29T12:45:52Z</time>
      </trkpt>
      <trkpt lat="46.83709" lon="6.81338">
        <ele>432</ele>
        <time>2022-09-29T12:45:53Z</time>
      </trkpt>
      <trkpt lat="46.8371" lon="6.81343">
        <ele>432</ele>
        <time>2022-09-29T12:45:54Z</time>
      </trkpt>
      <trkpt lat="46.83711" lon="6.81348">
        <ele>432</ele>
        <time>2022-09-29T12:45:55Z</time>
      </trkpt>
      <trkpt lat="46.83713" lon="6.81352">
        <ele>431.9</ele>
        <time>2022-09-29T12:45:56Z</time>
      </trkpt>
      <trkpt lat="46.83714" lon="6.81358">
        <ele>431.9</ele>
        <time>2022-09-29T12:45:57Z</time>
      </trkpt>
      <trkpt lat="46.83715" lon="6.81363">
        <ele>431.9</ele>
        <time>2022-09-29T12:45:58Z</time>
      </trkpt>
      <trkpt lat="46.83717" lon="6.81369">
        <ele>431.9</ele>
        <time>2022-09-29T12:45:59Z</time>
      </trkpt>
      <trkpt lat="46.83719" lon="6.81373">
        <ele>431.8</ele>
        <time>2022-09-29T12:46:00Z</time>
      </trkpt>
      <trkpt lat="46.83719" lon="6.81378">
        <ele>431.8</ele>
        <time>2022-09-29T12:46:01Z</time>
      </trkpt>
      <trkpt lat="46.83721" lon="6.81384">
        <ele>431.8</ele>
        <time>2022-09-29T12:46:02Z</time>
      </trkpt>
      <trkpt lat="46.83723" lon="6.81387">
        <ele>431.8</ele>
        <time>2022-09-29T12:46:03Z</time>
      </trkpt>
      <trkpt lat="46.83725" lon="6.81393">
        <ele>431.7</ele>
        <time>2022-09-29T12:46:04Z</time>
      </trkpt>
      <trkpt lat="46.83727" lon="6.81398">
        <ele>431.7</ele>
        <time>2022-09-29T12:46:05Z</time>
      </trkpt>
      <trkpt lat="46.83727" lon="6.81403">
        <ele>431.7</ele>
        <time>2022-09-29T12:46:06Z</time>
      </trkpt>
      <trkpt lat="46.83729" lon="6.81407">
        <ele>431.7</ele>
        <time>2022-09-29T12:46:07Z</time>
      </trkpt>
      <trkpt lat="46.83731" lon="6.81414">
        <ele>431.6</ele>
        <time>2022-09-29T12:46:08Z</time>
      </trkpt>
      <trkpt lat="46.83733" lon="6.8142">
        <ele>431.6</ele>
        <time>2022-09-29T12:46:09Z</time>
      </trkpt>
      <trkpt lat="46.83735" lon="6.81426">
        <ele>431.5</ele>
        <time>2022-09-29T12:46:10Z</time>
      </trkpt>
      <trkpt lat="46.83735" lon="6.81431">
        <ele>431.5</ele>
        <time>2022-09-29T12:46:11Z</time>
      </trkpt>
      <trkpt lat="46.83738" lon="6.81435">
        <ele>431.5</ele>
        <time>2022-09-29T12:46:12Z</time>
      </trkpt>
      <trkpt lat="46.83739" lon="6.8144">
        <ele>431.5</ele>
        <time>2022-09-29T12:46:13Z</time>
      </trkpt>
      <trkpt lat="46.83739" lon="6.81442">
        <ele>431.4</ele>
        <time>2022-09-29T12:46:14Z</time>
      </trkpt>
      <trkpt lat="46.8374" lon="6.81446">
        <ele>431.4</ele>
        <time>2022-09-29T12:46:15Z</time>
      </trkpt>
      <trkpt lat="46.83742" lon="6.81451">
        <ele>431.4</ele>
        <time>2022-09-29T12:46:16Z</time>
      </trkpt>
      <trkpt lat="46.83743" lon="6.81455">
        <ele>431.4</ele>
        <time>2022-09-29T12:46:17Z</time>
      </trkpt>
      <trkpt lat="46.83744" lon="6.8146">
        <ele>431.4</ele>
        <time>2022-09-29T12:46:18Z</time>
      </trkpt>
      <trkpt lat="46.83745" lon="6.81464">
        <ele>431.4</ele>
        <time>2022-09-29T12:46:19Z</time>
      </trkpt>
      <trkpt lat="46.83747" lon="6.81467">
        <ele>431.4</ele>
        <time>2022-09-29T12:46:20Z</time>
      </trkpt>
      <trkpt lat="46.83748" lon="6.81473">
        <ele>431.4</ele>
        <time>2022-09-29T12:46:21Z</time>
      </trkpt>
      <trkpt lat="46.8375" lon="6.81477">
        <ele>431.4</ele>
        <time>2022-09-29T12:46:22Z</time>
      </trkpt>
      <trkpt lat="46.83751" lon="6.81481">
        <ele>431.4</ele>
        <time>2022-09-29T12:46:23Z</time>
      </trkpt>
      <trkpt lat="46.83753" lon="6.81485">
        <ele>431.4</ele>
        <time>2022-09-29T12:46:24Z</time>
      </trkpt>
      <trkpt lat="46.83753" lon="6.81491">
        <ele>431.4</ele>
        <time>2022-09-29T12:46:25Z</time>
      </trkpt>
      <trkpt lat="46.83755" lon="6.81495">
        <ele>431.4</ele>
        <time>2022-09-29T12:46:26Z</time>
      </trkpt>
      <trkpt lat="46.83757" lon="6.81501">
        <ele>431.4</ele>
        <time>2022-09-29T12:46:27Z</time>
      </trkpt>
      <trkpt lat="46.83758" lon="6.81506">
        <ele>431.5</ele>
        <time>2022-09-29T12:46:28Z</time>
      </trkpt>
      <trkpt lat="46.83761" lon="6.81511">
        <ele>431.5</ele>
        <time>2022-09-29T12:46:29Z</time>
      </trkpt>
      <trkpt lat="46.83762" lon="6.81517">
        <ele>431.5</ele>
        <time>2022-09-29T12:46:30Z</time>
      </trkpt>
      <trkpt lat="46.83762" lon="6.81522">
        <ele>431.5</ele>
        <time>2022-09-29T12:46:31Z</time>
      </trkpt>
      <trkpt lat="46.83763" lon="6.81526">
        <ele>431.5</ele>
        <time>2022-09-29T12:46:32Z</time>
      </trkpt>
      <trkpt lat="46.83764" lon="6.81528">
        <ele>431.5</ele>
        <time>2022-09-29T12:46:33Z</time>
      </trkpt>
      <trkpt lat="46.83765" lon="6.81533">
        <ele>431.5</ele>
        <time>2022-09-29T12:46:34Z</time>
      </trkpt>
      <trkpt lat="46.83765" lon="6.81534">
        <ele>431.5</ele>
        <time>2022-09-29T12:46:35Z</time>
      </trkpt>
      <trkpt lat="46.83766" lon="6.81536">
        <ele>431.5</ele>
        <time>2022-09-29T12:46:36Z</time>
      </trkpt>
      <trkpt lat="46.83767" lon="6.81537">
        <ele>431.5</ele>
        <time>2022-09-29T12:46:38Z</time>
      </trkpt>
      <trkpt lat="46.83768" lon="6.81537">
        <ele>431.6</ele>
        <time>2022-09-29T12:46:39Z</time>
      </trkpt>
      <trkpt lat="46.83768" lon="6.81539">
        <ele>431.6</ele>
        <time>2022-09-29T12:46:40Z</time>
      </trkpt>
      <trkpt lat="46.83768" lon="6.81539">
        <ele>431.6</ele>
        <time>2022-09-29T12:46:41Z</time>
      </trkpt>
      <trkpt lat="46.83768" lon="6.8154">
        <ele>431.6</ele>
        <time>2022-09-29T12:46:42Z</time>
      </trkpt>
      <trkpt lat="46.83768" lon="6.8154">
        <ele>431.6</ele>
        <time>2022-09-29T12:46:43Z</time>
      </trkpt>
      <trkpt lat="46.83768" lon="6.8154">
        <ele>431.6</ele>
        <time>2022-09-29T12:46:44Z</time>
      </trkpt>
      <trkpt lat="46.83768" lon="6.8154">
        <ele>431.6</ele>
        <time>2022-09-29T12:46:45Z</time>
      </trkpt>
      <trkpt lat="46.83768" lon="6.81541">
        <ele>431.6</ele>
        <time>2022-09-29T12:46:46Z</time>
      </trkpt>
      <trkpt lat="46.83768" lon="6.81541">
        <ele>431.6</ele>
        <time>2022-09-29T12:46:49Z</time>
      </trkpt>
      <trkpt lat="46.83768" lon="6.81541">
        <ele>431.6</ele>
        <time>2022-09-29T12:46:50Z</time>
      </trkpt>
      <trkpt lat="46.83768" lon="6.81541">
        <ele>431.6</ele>
        <time>2022-09-29T12:46:51Z</time>
      </trkpt>
      <trkpt lat="46.83768" lon="6.81541">
        <ele>431.6</ele>
        <time>2022-09-29T12:46:52Z</time>
      </trkpt>
      <trkpt lat="46.83768" lon="6.81542">
        <ele>431.6</ele>
        <time>2022-09-29T12:46:54Z</time>
      </trkpt>
      <trkpt lat="46.83768" lon="6.81542">
        <ele>431.6</ele>
        <time>2022-09-29T12:46:55Z</time>
      </trkpt>
      <trkpt lat="46.83768" lon="6.81542">
        <ele>431.6</ele>
        <time>2022-09-29T12:46:56Z</time>
      </trkpt>
      <trkpt lat="46.83768" lon="6.81542">
        <ele>431.6</ele>
        <time>2022-09-29T12:46:57Z</time>
      </trkpt>
      <trkpt lat="46.83769" lon="6.81543">
        <ele>431.6</ele>
        <time>2022-09-29T12:46:58Z</time>
      </trkpt>
      <trkpt lat="46.83769" lon="6.81543">
        <ele>431.6</ele>
        <time>2022-09-29T12:46:59Z</time>
      </trkpt>
      <trkpt lat="46.83769" lon="6.81543">
        <ele>431.6</ele>
        <time>2022-09-29T12:47:00Z</time>
      </trkpt>
      <trkpt lat="46.83769" lon="6.81543">
        <ele>431.6</ele>
        <time>2022-09-29T12:47:01Z</time>
      </trkpt>
      <trkpt lat="46.83769" lon="6.81543">
        <ele>431.6</ele>
        <time>2022-09-29T12:47:02Z</time>
      </trkpt>
      <trkpt lat="46.83769" lon="6.81544">
        <ele>431.6</ele>
        <time>2022-09-29T12:47:03Z</time>
      </trkpt>
      <trkpt lat="46.83769" lon="6.81544">
        <ele>431.6</ele>
        <time>2022-09-29T12:47:04Z</time>
      </trkpt>
      <trkpt lat="46.83769" lon="6.81544">
        <ele>431.6</ele>
        <time>2022-09-29T12:47:05Z</time>
      </trkpt>
      <trkpt lat="46.83769" lon="6.81544">
        <ele>431.6</ele>
        <time>2022-09-29T12:47:06Z</time>
      </trkpt>
      <trkpt lat="46.83769" lon="6.81545">
        <ele>431.6</ele>
        <time>2022-09-29T12:47:20Z</time>
      </trkpt>
      <trkpt lat="46.83769" lon="6.81545">
        <ele>431.6</ele>
        <time>2022-09-29T12:47:21Z</time>
      </trkpt>
      <trkpt lat="46.83769" lon="6.81545">
        <ele>431.6</ele>
        <time>2022-09-29T12:47:22Z</time>
      </trkpt>
      <trkpt lat="46.83769" lon="6.81545">
        <ele>431.6</ele>
        <time>2022-09-29T12:47:23Z</time>
      </trkpt>
      <trkpt lat="46.83769" lon="6.81546">
        <ele>431.6</ele>
        <time>2022-09-29T12:47:24Z</time>
      </trkpt>
      <trkpt lat="46.83769" lon="6.81546">
        <ele>431.6</ele>
        <time>2022-09-29T12:47:25Z</time>
      </trkpt>
      <trkpt lat="46.83769" lon="6.81546">
        <ele>431.6</ele>
        <time>2022-09-29T12:47:26Z</time>
      </trkpt>
      <trkpt lat="46.83769" lon="6.81546">
        <ele>431.6</ele>
        <time>2022-09-29T12:47:27Z</time>
      </trkpt>
      <trkpt lat="46.8377" lon="6.81546">
        <ele>431.6</ele>
        <time>2022-09-29T12:47:28Z</time>
      </trkpt>
      <trkpt lat="46.8377" lon="6.81547">
        <ele>431.6</ele>
        <time>2022-09-29T12:47:29Z</time>
      </trkpt>
      <trkpt lat="46.8377" lon="6.81547">
        <ele>431.6</ele>
        <time>2022-09-29T12:47:30Z</time>
      </trkpt>
      <trkpt lat="46.8377" lon="6.81547">
        <ele>431.6</ele>
        <time>2022-09-29T12:47:31Z</time>
      </trkpt>
      <trkpt lat="46.8377" lon="6.81547">
        <ele>431.6</ele>
        <time>2022-09-29T12:47:32Z</time>
      </trkpt>
      <trkpt lat="46.8377" lon="6.81548">
        <ele>431.6</ele>
        <time>2022-09-29T12:47:38Z</time>
      </trkpt>
      <trkpt lat="46.8377" lon="6.81548">
        <ele>431.6</ele>
        <time>2022-09-29T12:47:39Z</time>
      </trkpt>
      <trkpt lat="46.8377" lon="6.81548">
        <ele>431.6</ele>
        <time>2022-09-29T12:47:40Z</time>
      </trkpt>
      <trkpt lat="46.8377" lon="6.81548">
        <ele>431.6</ele>
        <time>2022-09-29T12:47:41Z</time>
      </trkpt>
      <trkpt lat="46.83771" lon="6.8155">
        <ele>431.6</ele>
        <time>2022-09-29T12:47:42Z</time>
      </trkpt>
      <trkpt lat="46.83772" lon="6.81551">
        <ele>431.6</ele>
        <time>2022-09-29T12:47:43Z</time>
      </trkpt>
      <trkpt lat="46.83773" lon="6.81552">
        <ele>431.6</ele>
        <time>2022-09-29T12:47:44Z</time>
      </trkpt>
      <trkpt lat="46.83773" lon="6.81554">
        <ele>431.6</ele>
        <time>2022-09-29T12:47:45Z</time>
      </trkpt>
      <trkpt lat="46.83773" lon="6.81555">
        <ele>431.6</ele>
        <time>2022-09-29T12:47:46Z</time>
      </trkpt>
      <trkpt lat="46.83774" lon="6.81556">
        <ele>431.6</ele>
        <time>2022-09-29T12:47:47Z</time>
      </trkpt>
      <trkpt lat="46.83774" lon="6.81557">
        <ele>431.6</ele>
        <time>2022-09-29T12:47:48Z</time>
      </trkpt>
      <trkpt lat="46.83775" lon="6.81557">
        <ele>431.6</ele>
        <time>2022-09-29T12:47:49Z</time>
      </trkpt>
      <trkpt lat="46.83775" lon="6.81558">
        <ele>431.6</ele>
        <time>2022-09-29T12:47:50Z</time>
      </trkpt>
      <trkpt lat="46.83776" lon="6.8156">
        <ele>431.6</ele>
        <time>2022-09-29T12:47:51Z</time>
      </trkpt>
      <trkpt lat="46.83776" lon="6.81562">
        <ele>431.6</ele>
        <time>2022-09-29T12:47:52Z</time>
      </trkpt>
      <trkpt lat="46.83777" lon="6.81563">
        <ele>431.6</ele>
        <time>2022-09-29T12:47:53Z</time>
      </trkpt>
      <trkpt lat="46.83777" lon="6.81563">
        <ele>431.6</ele>
        <time>2022-09-29T12:47:54Z</time>
      </trkpt>
      <trkpt lat="46.83778" lon="6.81564">
        <ele>431.6</ele>
        <time>2022-09-29T12:47:55Z</time>
      </trkpt>
      <trkpt lat="46.83778" lon="6.81565">
        <ele>431.6</ele>
        <time>2022-09-29T12:47:56Z</time>
      </trkpt>
      <trkpt lat="46.83779" lon="6.81566">
        <ele>431.7</ele>
        <time>2022-09-29T12:47:57Z</time>
      </trkpt>
      <trkpt lat="46.83779" lon="6.81566">
        <ele>431.7</ele>
        <time>2022-09-29T12:47:58Z</time>
      </trkpt>
      <trkpt lat="46.83779" lon="6.81567">
        <ele>431.7</ele>
        <time>2022-09-29T12:47:59Z</time>
      </trkpt>
      <trkpt lat="46.8378" lon="6.81568">
        <ele>431.7</ele>
        <time>2022-09-29T12:48:00Z</time>
      </trkpt>
      <trkpt lat="46.8378" lon="6.81569">
        <ele>431.7</ele>
        <time>2022-09-29T12:48:01Z</time>
      </trkpt>
      <trkpt lat="46.83781" lon="6.81569">
        <ele>431.7</ele>
        <time>2022-09-29T12:48:02Z</time>
      </trkpt>
      <trkpt lat="46.83781" lon="6.8157">
        <ele>431.7</ele>
        <time>2022-09-29T12:48:19Z</time>
      </trkpt>
      <trkpt lat="46.83781" lon="6.81571">
        <ele>431.7</ele>
        <time>2022-09-29T12:48:20Z</time>
      </trkpt>
      <trkpt lat="46.83782" lon="6.81572">
        <ele>431.7</ele>
        <time>2022-09-29T12:48:21Z</time>
      </trkpt>
      <trkpt lat="46.83783" lon="6.81576">
        <ele>431.7</ele>
        <time>2022-09-29T12:48:22Z</time>
      </trkpt>
      <trkpt lat="46.83784" lon="6.81577">
        <ele>431.7</ele>
        <time>2022-09-29T12:48:23Z</time>
      </trkpt>
      <trkpt lat="46.83785" lon="6.81582">
        <ele>431.7</ele>
        <time>2022-09-29T12:48:24Z</time>
      </trkpt>
      <trkpt lat="46.83785" lon="6.81584">
        <ele>431.7</ele>
        <time>2022-09-29T12:48:25Z</time>
      </trkpt>
      <trkpt lat="46.83786" lon="6.81589">
        <ele>431.7</ele>
        <time>2022-09-29T12:48:26Z</time>
      </trkpt>
      <trkpt lat="46.83787" lon="6.81591">
        <ele>431.7</ele>
        <time>2022-09-29T12:48:27Z</time>
      </trkpt>
      <trkpt lat="46.83788" lon="6.81596">
        <ele>431.7</ele>
        <time>2022-09-29T12:48:28Z</time>
      </trkpt>
      <trkpt lat="46.83789" lon="6.81598">
        <ele>431.7</ele>
        <time>2022-09-29T12:48:29Z</time>
      </trkpt>
      <trkpt lat="46.83791" lon="6.81602">
        <ele>431.7</ele>
        <time>2022-09-29T12:48:30Z</time>
      </trkpt>
      <trkpt lat="46.83792" lon="6.81606">
        <ele>431.7</ele>
        <time>2022-09-29T12:48:31Z</time>
      </trkpt>
      <trkpt lat="46.83793" lon="6.81608">
        <ele>431.7</ele>
        <time>2022-09-29T12:48:32Z</time>
      </trkpt>
      <trkpt lat="46.83795" lon="6.81612">
        <ele>431.7</ele>
        <time>2022-09-29T12:48:33Z</time>
      </trkpt>
      <trkpt lat="46.83795" lon="6.81616">
        <ele>431.7</ele>
        <time>2022-09-29T12:48:34Z</time>
      </trkpt>
      <trkpt lat="46.83796" lon="6.81621">
        <ele>431.7</ele>
        <time>2022-09-29T12:48:35Z</time>
      </trkpt>
      <trkpt lat="46.83797" lon="6.81623">
        <ele>431.8</ele>
        <time>2022-09-29T12:48:36Z</time>
      </trkpt>
      <trkpt lat="46.83799" lon="6.81628">
        <ele>431.8</ele>
        <time>2022-09-29T12:48:37Z</time>
      </trkpt>
      <trkpt lat="46.838" lon="6.8163">
        <ele>431.8</ele>
        <time>2022-09-29T12:48:38Z</time>
      </trkpt>
      <trkpt lat="46.83801" lon="6.81636">
        <ele>431.8</ele>
        <time>2022-09-29T12:48:39Z</time>
      </trkpt>
      <trkpt lat="46.83802" lon="6.81639">
        <ele>431.8</ele>
        <time>2022-09-29T12:48:40Z</time>
      </trkpt>
      <trkpt lat="46.83803" lon="6.81644">
        <ele>431.8</ele>
        <time>2022-09-29T12:48:41Z</time>
      </trkpt>
      <trkpt lat="46.83804" lon="6.81646">
        <ele>431.8</ele>
        <time>2022-09-29T12:48:42Z</time>
      </trkpt>
      <trkpt lat="46.83805" lon="6.8165">
        <ele>431.9</ele>
        <time>2022-09-29T12:48:44Z</time>
      </trkpt>
      <trkpt lat="46.83808" lon="6.81655">
        <ele>431.9</ele>
        <time>2022-09-29T12:48:45Z</time>
      </trkpt>
      <trkpt lat="46.8381" lon="6.8166">
        <ele>431.9</ele>
        <time>2022-09-29T12:48:46Z</time>
      </trkpt>
      <trkpt lat="46.83811" lon="6.81665">
        <ele>431.9</ele>
        <time>2022-09-29T12:48:47Z</time>
      </trkpt>
      <trkpt lat="46.83812" lon="6.8167">
        <ele>431.9</ele>
        <time>2022-09-29T12:48:48Z</time>
      </trkpt>
      <trkpt lat="46.83815" lon="6.81677">
        <ele>432</ele>
        <time>2022-09-29T12:48:49Z</time>
      </trkpt>
      <trkpt lat="46.83817" lon="6.81682">
        <ele>432</ele>
        <time>2022-09-29T12:48:50Z</time>
      </trkpt>
      <trkpt lat="46.83819" lon="6.8169">
        <ele>432.1</ele>
        <time>2022-09-29T12:48:52Z</time>
      </trkpt>
      <trkpt lat="46.8382" lon="6.81694">
        <ele>432.1</ele>
        <time>2022-09-29T12:48:53Z</time>
      </trkpt>
      <trkpt lat="46.83821" lon="6.81698">
        <ele>432.1</ele>
        <time>2022-09-29T12:48:54Z</time>
      </trkpt>
      <trkpt lat="46.83823" lon="6.81703">
        <ele>432.2</ele>
        <time>2022-09-29T12:48:56Z</time>
      </trkpt>
      <trkpt lat="46.83825" lon="6.81708">
        <ele>432.3</ele>
        <time>2022-09-29T12:48:57Z</time>
      </trkpt>
      <trkpt lat="46.83827" lon="6.81715">
        <ele>432.3</ele>
        <time>2022-09-29T12:48:58Z</time>
      </trkpt>
      <trkpt lat="46.83831" lon="6.81725">
        <ele>432.5</ele>
        <time>2022-09-29T12:48:59Z</time>
      </trkpt>
      <trkpt lat="46.83833" lon="6.8173">
        <ele>432.5</ele>
        <time>2022-09-29T12:49:00Z</time>
      </trkpt>
      <trkpt lat="46.83834" lon="6.81734">
        <ele>432.6</ele>
        <time>2022-09-29T12:49:02Z</time>
      </trkpt>
      <trkpt lat="46.83837" lon="6.81738">
        <ele>432.6</ele>
        <time>2022-09-29T12:49:03Z</time>
      </trkpt>
      <trkpt lat="46.83838" lon="6.81747">
        <ele>432.7</ele>
        <time>2022-09-29T12:49:04Z</time>
      </trkpt>
      <trkpt lat="46.83839" lon="6.81751">
        <ele>432.8</ele>
        <time>2022-09-29T12:49:05Z</time>
      </trkpt>
      <trkpt lat="46.8384" lon="6.81757">
        <ele>432.9</ele>
        <time>2022-09-29T12:49:06Z</time>
      </trkpt>
      <trkpt lat="46.83841" lon="6.81759">
        <ele>432.9</ele>
        <time>2022-09-29T12:49:07Z</time>
      </trkpt>
      <trkpt lat="46.83842" lon="6.81764">
        <ele>432.9</ele>
        <time>2022-09-29T12:49:08Z</time>
      </trkpt>
      <trkpt lat="46.83845" lon="6.81768">
        <ele>433</ele>
        <time>2022-09-29T12:49:09Z</time>
      </trkpt>
      <trkpt lat="46.83846" lon="6.81772">
        <ele>433</ele>
        <time>2022-09-29T12:49:10Z</time>
      </trkpt>
      <trkpt lat="46.83848" lon="6.81777">
        <ele>433.1</ele>
        <time>2022-09-29T12:49:11Z</time>
      </trkpt>
      <trkpt lat="46.8385" lon="6.81782">
        <ele>433.1</ele>
        <time>2022-09-29T12:49:12Z</time>
      </trkpt>
      <trkpt lat="46.83851" lon="6.81784">
        <ele>433.1</ele>
        <time>2022-09-29T12:49:13Z</time>
      </trkpt>
      <trkpt lat="46.83852" lon="6.81787">
        <ele>433.1</ele>
        <time>2022-09-29T12:49:14Z</time>
      </trkpt>
      <trkpt lat="46.83853" lon="6.81792">
        <ele>433.1</ele>
        <time>2022-09-29T12:49:15Z</time>
      </trkpt>
      <trkpt lat="46.83855" lon="6.81796">
        <ele>433.1</ele>
        <time>2022-09-29T12:49:16Z</time>
      </trkpt>
      <trkpt lat="46.83856" lon="6.81798">
        <ele>433.1</ele>
        <time>2022-09-29T12:49:17Z</time>
      </trkpt>
      <trkpt lat="46.83857" lon="6.81801">
        <ele>433.1</ele>
        <time>2022-09-29T12:49:18Z</time>
      </trkpt>
      <trkpt lat="46.83857" lon="6.81803">
        <ele>433.1</ele>
        <time>2022-09-29T12:49:19Z</time>
      </trkpt>
      <trkpt lat="46.83857" lon="6.81805">
        <ele>433.1</ele>
        <time>2022-09-29T12:49:20Z</time>
      </trkpt>
      <trkpt lat="46.83857" lon="6.81808">
        <ele>433.1</ele>
        <time>2022-09-29T12:49:21Z</time>
      </trkpt>
      <trkpt lat="46.8386" lon="6.81814">
        <ele>433.1</ele>
        <time>2022-09-29T12:49:22Z</time>
      </trkpt>
      <trkpt lat="46.83861" lon="6.81816">
        <ele>433</ele>
        <time>2022-09-29T12:49:23Z</time>
      </trkpt>
      <trkpt lat="46.83863" lon="6.81822">
        <ele>433</ele>
        <time>2022-09-29T12:49:24Z</time>
      </trkpt>
      <trkpt lat="46.83866" lon="6.81827">
        <ele>432.9</ele>
        <time>2022-09-29T12:49:25Z</time>
      </trkpt>
      <trkpt lat="46.83869" lon="6.81832">
        <ele>432.8</ele>
        <time>2022-09-29T12:49:26Z</time>
      </trkpt>
      <trkpt lat="46.83871" lon="6.81836">
        <ele>432.8</ele>
        <time>2022-09-29T12:49:27Z</time>
      </trkpt>
      <trkpt lat="46.83874" lon="6.81842">
        <ele>432.7</ele>
        <time>2022-09-29T12:49:28Z</time>
      </trkpt>
      <trkpt lat="46.83875" lon="6.81848">
        <ele>432.7</ele>
        <time>2022-09-29T12:49:29Z</time>
      </trkpt>
      <trkpt lat="46.83877" lon="6.81854">
        <ele>432.6</ele>
        <time>2022-09-29T12:49:30Z</time>
      </trkpt>
      <trkpt lat="46.83879" lon="6.81859">
        <ele>432.6</ele>
        <time>2022-09-29T12:49:31Z</time>
      </trkpt>
      <trkpt lat="46.83882" lon="6.81865">
        <ele>432.6</ele>
        <time>2022-09-29T12:49:32Z</time>
      </trkpt>
      <trkpt lat="46.83885" lon="6.81871">
        <ele>432.6</ele>
        <time>2022-09-29T12:49:33Z</time>
      </trkpt>
      <trkpt lat="46.83887" lon="6.81877">
        <ele>432.6</ele>
        <time>2022-09-29T12:49:34Z</time>
      </trkpt>
      <trkpt lat="46.83889" lon="6.81884">
        <ele>432.6</ele>
        <time>2022-09-29T12:49:35Z</time>
      </trkpt>
      <trkpt lat="46.83892" lon="6.81889">
        <ele>432.6</ele>
        <time>2022-09-29T12:49:36Z</time>
      </trkpt>
      <trkpt lat="46.83895" lon="6.81896">
        <ele>432.6</ele>
        <time>2022-09-29T12:49:37Z</time>
      </trkpt>
      <trkpt lat="46.83898" lon="6.81901">
        <ele>432.6</ele>
        <time>2022-09-29T12:49:38Z</time>
      </trkpt>
      <trkpt lat="46.83901" lon="6.81907">
        <ele>432.6</ele>
        <time>2022-09-29T12:49:39Z</time>
      </trkpt>
      <trkpt lat="46.83903" lon="6.81912">
        <ele>432.6</ele>
        <time>2022-09-29T12:49:40Z</time>
      </trkpt>
      <trkpt lat="46.83905" lon="6.81918">
        <ele>432.6</ele>
        <time>2022-09-29T12:49:41Z</time>
      </trkpt>
      <trkpt lat="46.83907" lon="6.81922">
        <ele>432.6</ele>
        <time>2022-09-29T12:49:42Z</time>
      </trkpt>
      <trkpt lat="46.8391" lon="6.81928">
        <ele>432.5</ele>
        <time>2022-09-29T12:49:43Z</time>
      </trkpt>
      <trkpt lat="46.83911" lon="6.81933">
        <ele>432.5</ele>
        <time>2022-09-29T12:49:44Z</time>
      </trkpt>
      <trkpt lat="46.83915" lon="6.8194">
        <ele>432.5</ele>
        <time>2022-09-29T12:49:45Z</time>
      </trkpt>
      <trkpt lat="46.83917" lon="6.81946">
        <ele>432.5</ele>
        <time>2022-09-29T12:49:46Z</time>
      </trkpt>
      <trkpt lat="46.83919" lon="6.8195">
        <ele>432.5</ele>
        <time>2022-09-29T12:49:47Z</time>
      </trkpt>
      <trkpt lat="46.83921" lon="6.81957">
        <ele>432.5</ele>
        <time>2022-09-29T12:49:48Z</time>
      </trkpt>
      <trkpt lat="46.83922" lon="6.81962">
        <ele>432.5</ele>
        <time>2022-09-29T12:49:49Z</time>
      </trkpt>
      <trkpt lat="46.83924" lon="6.81967">
        <ele>432.5</ele>
        <time>2022-09-29T12:49:50Z</time>
      </trkpt>
      <trkpt lat="46.83927" lon="6.81972">
        <ele>432.4</ele>
        <time>2022-09-29T12:49:51Z</time>
      </trkpt>
      <trkpt lat="46.8393" lon="6.81978">
        <ele>432.4</ele>
        <time>2022-09-29T12:49:52Z</time>
      </trkpt>
      <trkpt lat="46.83934" lon="6.81984">
        <ele>432.4</ele>
        <time>2022-09-29T12:49:53Z</time>
      </trkpt>
      <trkpt lat="46.83936" lon="6.8199">
        <ele>432.4</ele>
        <time>2022-09-29T12:49:54Z</time>
      </trkpt>
      <trkpt lat="46.83939" lon="6.81996">
        <ele>432.4</ele>
        <time>2022-09-29T12:49:55Z</time>
      </trkpt>
      <trkpt lat="46.83941" lon="6.82001">
        <ele>432.3</ele>
        <time>2022-09-29T12:49:56Z</time>
      </trkpt>
      <trkpt lat="46.83944" lon="6.82007">
        <ele>432.3</ele>
        <time>2022-09-29T12:49:57Z</time>
      </trkpt>
      <trkpt lat="46.83946" lon="6.82013">
        <ele>432.3</ele>
        <time>2022-09-29T12:49:58Z</time>
      </trkpt>
      <trkpt lat="46.83948" lon="6.82018">
        <ele>432.3</ele>
        <time>2022-09-29T12:49:59Z</time>
      </trkpt>
      <trkpt lat="46.83952" lon="6.82024">
        <ele>432.3</ele>
        <time>2022-09-29T12:50:00Z</time>
      </trkpt>
      <trkpt lat="46.83954" lon="6.8203">
        <ele>432.3</ele>
        <time>2022-09-29T12:50:01Z</time>
      </trkpt>
      <trkpt lat="46.83957" lon="6.82036">
        <ele>432.3</ele>
        <time>2022-09-29T12:50:02Z</time>
      </trkpt>
      <trkpt lat="46.8396" lon="6.82042">
        <ele>432.2</ele>
        <time>2022-09-29T12:50:03Z</time>
      </trkpt>
      <trkpt lat="46.83962" lon="6.82048">
        <ele>432.2</ele>
        <time>2022-09-29T12:50:04Z</time>
      </trkpt>
      <trkpt lat="46.83965" lon="6.82054">
        <ele>432.2</ele>
        <time>2022-09-29T12:50:05Z</time>
      </trkpt>
      <trkpt lat="46.83968" lon="6.82061">
        <ele>432.2</ele>
        <time>2022-09-29T12:50:06Z</time>
      </trkpt>
      <trkpt lat="46.83971" lon="6.82067">
        <ele>432.2</ele>
        <time>2022-09-29T12:50:07Z</time>
      </trkpt>
      <trkpt lat="46.83973" lon="6.82071">
        <ele>432.1</ele>
        <time>2022-09-29T12:50:08Z</time>
      </trkpt>
      <trkpt lat="46.83977" lon="6.82077">
        <ele>432.1</ele>
        <time>2022-09-29T12:50:09Z</time>
      </trkpt>
      <trkpt lat="46.8398" lon="6.82083">
        <ele>432.1</ele>
        <time>2022-09-29T12:50:10Z</time>
      </trkpt>
      <trkpt lat="46.83981" lon="6.82089">
        <ele>432.1</ele>
        <time>2022-09-29T12:50:11Z</time>
      </trkpt>
      <trkpt lat="46.83985" lon="6.82095">
        <ele>432.1</ele>
        <time>2022-09-29T12:50:12Z</time>
      </trkpt>
      <trkpt lat="46.83987" lon="6.821">
        <ele>432.1</ele>
        <time>2022-09-29T12:50:13Z</time>
      </trkpt>
      <trkpt lat="46.8399" lon="6.82106">
        <ele>432.1</ele>
        <time>2022-09-29T12:50:14Z</time>
      </trkpt>
      <trkpt lat="46.83992" lon="6.82111">
        <ele>432.1</ele>
        <time>2022-09-29T12:50:15Z</time>
      </trkpt>
      <trkpt lat="46.83995" lon="6.82117">
        <ele>432.1</ele>
        <time>2022-09-29T12:50:16Z</time>
      </trkpt>
      <trkpt lat="46.83998" lon="6.82121">
        <ele>432.1</ele>
        <time>2022-09-29T12:50:17Z</time>
      </trkpt>
      <trkpt lat="46.84" lon="6.82126">
        <ele>432.1</ele>
        <time>2022-09-29T12:50:18Z</time>
      </trkpt>
      <trkpt lat="46.84002" lon="6.82132">
        <ele>432.1</ele>
        <time>2022-09-29T12:50:19Z</time>
      </trkpt>
      <trkpt lat="46.84004" lon="6.82138">
        <ele>432.1</ele>
        <time>2022-09-29T12:50:20Z</time>
      </trkpt>
      <trkpt lat="46.84006" lon="6.82143">
        <ele>432.1</ele>
        <time>2022-09-29T12:50:21Z</time>
      </trkpt>
      <trkpt lat="46.84008" lon="6.82147">
        <ele>432.1</ele>
        <time>2022-09-29T12:50:22Z</time>
      </trkpt>
      <trkpt lat="46.84011" lon="6.82153">
        <ele>432.1</ele>
        <time>2022-09-29T12:50:23Z</time>
      </trkpt>
      <trkpt lat="46.84013" lon="6.82157">
        <ele>432.1</ele>
        <time>2022-09-29T12:50:24Z</time>
      </trkpt>
      <trkpt lat="46.84015" lon="6.82163">
        <ele>432.1</ele>
        <time>2022-09-29T12:50:25Z</time>
      </trkpt>
      <trkpt lat="46.84018" lon="6.82168">
        <ele>432.2</ele>
        <time>2022-09-29T12:50:26Z</time>
      </trkpt>
      <trkpt lat="46.8402" lon="6.82174">
        <ele>432.2</ele>
        <time>2022-09-29T12:50:27Z</time>
      </trkpt>
      <trkpt lat="46.84022" lon="6.82179">
        <ele>432.1</ele>
        <time>2022-09-29T12:50:28Z</time>
      </trkpt>
      <trkpt lat="46.84025" lon="6.82185">
        <ele>432.1</ele>
        <time>2022-09-29T12:50:29Z</time>
      </trkpt>
      <trkpt lat="46.84027" lon="6.8219">
        <ele>432.1</ele>
        <time>2022-09-29T12:50:30Z</time>
      </trkpt>
      <trkpt lat="46.8403" lon="6.82196">
        <ele>432.1</ele>
        <time>2022-09-29T12:50:31Z</time>
      </trkpt>
      <trkpt lat="46.84032" lon="6.82201">
        <ele>432.1</ele>
        <time>2022-09-29T12:50:32Z</time>
      </trkpt>
      <trkpt lat="46.84034" lon="6.82206">
        <ele>432</ele>
        <time>2022-09-29T12:50:33Z</time>
      </trkpt>
      <trkpt lat="46.84035" lon="6.82211">
        <ele>432</ele>
        <time>2022-09-29T12:50:34Z</time>
      </trkpt>
      <trkpt lat="46.84037" lon="6.82218">
        <ele>432</ele>
        <time>2022-09-29T12:50:35Z</time>
      </trkpt>
      <trkpt lat="46.8404" lon="6.82224">
        <ele>432</ele>
        <time>2022-09-29T12:50:36Z</time>
      </trkpt>
      <trkpt lat="46.84043" lon="6.82228">
        <ele>431.9</ele>
        <time>2022-09-29T12:50:37Z</time>
      </trkpt>
      <trkpt lat="46.84045" lon="6.82233">
        <ele>431.9</ele>
        <time>2022-09-29T12:50:38Z</time>
      </trkpt>
      <trkpt lat="46.84047" lon="6.82239">
        <ele>431.9</ele>
        <time>2022-09-29T12:50:39Z</time>
      </trkpt>
      <trkpt lat="46.84049" lon="6.82244">
        <ele>431.9</ele>
        <time>2022-09-29T12:50:40Z</time>
      </trkpt>
      <trkpt lat="46.84049" lon="6.82248">
        <ele>431.9</ele>
        <time>2022-09-29T12:50:41Z</time>
      </trkpt>
      <trkpt lat="46.84051" lon="6.82252">
        <ele>431.8</ele>
        <time>2022-09-29T12:50:42Z</time>
      </trkpt>
      <trkpt lat="46.84052" lon="6.82258">
        <ele>431.8</ele>
        <time>2022-09-29T12:50:43Z</time>
      </trkpt>
      <trkpt lat="46.84053" lon="6.82264">
        <ele>431.8</ele>
        <time>2022-09-29T12:50:44Z</time>
      </trkpt>
      <trkpt lat="46.84053" lon="6.8227">
        <ele>431.8</ele>
        <time>2022-09-29T12:50:45Z</time>
      </trkpt>
      <trkpt lat="46.84056" lon="6.82275">
        <ele>431.8</ele>
        <time>2022-09-29T12:50:46Z</time>
      </trkpt>
      <trkpt lat="46.84058" lon="6.82281">
        <ele>431.7</ele>
        <time>2022-09-29T12:50:47Z</time>
      </trkpt>
      <trkpt lat="46.84061" lon="6.82286">
        <ele>431.7</ele>
        <time>2022-09-29T12:50:48Z</time>
      </trkpt>
      <trkpt lat="46.84064" lon="6.82293">
        <ele>431.7</ele>
        <time>2022-09-29T12:50:50Z</time>
      </trkpt>
      <trkpt lat="46.84067" lon="6.82299">
        <ele>431.6</ele>
        <time>2022-09-29T12:50:51Z</time>
      </trkpt>
      <trkpt lat="46.84069" lon="6.82304">
        <ele>431.6</ele>
        <time>2022-09-29T12:50:52Z</time>
      </trkpt>
      <trkpt lat="46.84072" lon="6.82311">
        <ele>431.6</ele>
        <time>2022-09-29T12:50:53Z</time>
      </trkpt>
      <trkpt lat="46.84074" lon="6.82317">
        <ele>431.6</ele>
        <time>2022-09-29T12:50:54Z</time>
      </trkpt>
      <trkpt lat="46.84075" lon="6.82322">
        <ele>431.6</ele>
        <time>2022-09-29T12:50:55Z</time>
      </trkpt>
      <trkpt lat="46.84078" lon="6.82328">
        <ele>431.6</ele>
        <time>2022-09-29T12:50:56Z</time>
      </trkpt>
      <trkpt lat="46.8408" lon="6.82334">
        <ele>431.6</ele>
        <time>2022-09-29T12:50:57Z</time>
      </trkpt>
      <trkpt lat="46.84082" lon="6.8234">
        <ele>431.6</ele>
        <time>2022-09-29T12:50:58Z</time>
      </trkpt>
      <trkpt lat="46.84088" lon="6.82352">
        <ele>431.6</ele>
        <time>2022-09-29T12:50:59Z</time>
      </trkpt>
      <trkpt lat="46.8409" lon="6.82358">
        <ele>431.6</ele>
        <time>2022-09-29T12:51:00Z</time>
      </trkpt>
      <trkpt lat="46.84092" lon="6.82364">
        <ele>431.6</ele>
        <time>2022-09-29T12:51:02Z</time>
      </trkpt>
      <trkpt lat="46.84094" lon="6.82369">
        <ele>431.6</ele>
        <time>2022-09-29T12:51:03Z</time>
      </trkpt>
      <trkpt lat="46.84095" lon="6.82375">
        <ele>431.6</ele>
        <time>2022-09-29T12:51:04Z</time>
      </trkpt>
      <trkpt lat="46.84098" lon="6.82383">
        <ele>431.7</ele>
        <time>2022-09-29T12:51:05Z</time>
      </trkpt>
      <trkpt lat="46.841" lon="6.82387">
        <ele>431.7</ele>
        <time>2022-09-29T12:51:06Z</time>
      </trkpt>
      <trkpt lat="46.84102" lon="6.82393">
        <ele>431.8</ele>
        <time>2022-09-29T12:51:07Z</time>
      </trkpt>
      <trkpt lat="46.84105" lon="6.82396">
        <ele>431.8</ele>
        <time>2022-09-29T12:51:08Z</time>
      </trkpt>
      <trkpt lat="46.84105" lon="6.82401">
        <ele>431.8</ele>
        <time>2022-09-29T12:51:09Z</time>
      </trkpt>
      <trkpt lat="46.84107" lon="6.82404">
        <ele>431.9</ele>
        <time>2022-09-29T12:51:10Z</time>
      </trkpt>
      <trkpt lat="46.84108" lon="6.82409">
        <ele>431.9</ele>
        <time>2022-09-29T12:51:11Z</time>
      </trkpt>
      <trkpt lat="46.8411" lon="6.82412">
        <ele>431.9</ele>
        <time>2022-09-29T12:51:12Z</time>
      </trkpt>
      <trkpt lat="46.84111" lon="6.82416">
        <ele>431.9</ele>
        <time>2022-09-29T12:51:13Z</time>
      </trkpt>
      <trkpt lat="46.84112" lon="6.8242">
        <ele>431.9</ele>
        <time>2022-09-29T12:51:14Z</time>
      </trkpt>
      <trkpt lat="46.84114" lon="6.82425">
        <ele>431.9</ele>
        <time>2022-09-29T12:51:15Z</time>
      </trkpt>
      <trkpt lat="46.84114" lon="6.82426">
        <ele>431.9</ele>
        <time>2022-09-29T12:51:16Z</time>
      </trkpt>
      <trkpt lat="46.84114" lon="6.82431">
        <ele>432</ele>
        <time>2022-09-29T12:51:17Z</time>
      </trkpt>
      <trkpt lat="46.84114" lon="6.82432">
        <ele>432</ele>
        <time>2022-09-29T12:51:18Z</time>
      </trkpt>
      <trkpt lat="46.84114" lon="6.82434">
        <ele>432</ele>
        <time>2022-09-29T12:51:19Z</time>
      </trkpt>
      <trkpt lat="46.84114" lon="6.82435">
        <ele>432</ele>
        <time>2022-09-29T12:51:20Z</time>
      </trkpt>
      <trkpt lat="46.84113" lon="6.82437">
        <ele>432</ele>
        <time>2022-09-29T12:51:21Z</time>
      </trkpt>
      <trkpt lat="46.84112" lon="6.82436">
        <ele>432</ele>
        <time>2022-09-29T12:51:22Z</time>
      </trkpt>
      <trkpt lat="46.84111" lon="6.82436">
        <ele>432</ele>
        <time>2022-09-29T12:51:23Z</time>
      </trkpt>
      <trkpt lat="46.84109" lon="6.82436">
        <ele>432</ele>
        <time>2022-09-29T12:51:24Z</time>
      </trkpt>
      <trkpt lat="46.84107" lon="6.82438">
        <ele>432</ele>
        <time>2022-09-29T12:51:25Z</time>
      </trkpt>
      <trkpt lat="46.84106" lon="6.82439">
        <ele>432</ele>
        <time>2022-09-29T12:51:26Z</time>
      </trkpt>
      <trkpt lat="46.84105" lon="6.82441">
        <ele>432</ele>
        <time>2022-09-29T12:51:27Z</time>
      </trkpt>
      <trkpt lat="46.84106" lon="6.82443">
        <ele>432</ele>
        <time>2022-09-29T12:51:28Z</time>
      </trkpt>
      <trkpt lat="46.84107" lon="6.82447">
        <ele>432</ele>
        <time>2022-09-29T12:51:29Z</time>
      </trkpt>
      <trkpt lat="46.84109" lon="6.8245">
        <ele>432.1</ele>
        <time>2022-09-29T12:51:30Z</time>
      </trkpt>
      <trkpt lat="46.84111" lon="6.82454">
        <ele>432.1</ele>
        <time>2022-09-29T12:51:31Z</time>
      </trkpt>
      <trkpt lat="46.84112" lon="6.82455">
        <ele>432.1</ele>
        <time>2022-09-29T12:51:32Z</time>
      </trkpt>
      <trkpt lat="46.84115" lon="6.8246">
        <ele>432.1</ele>
        <time>2022-09-29T12:51:33Z</time>
      </trkpt>
      <trkpt lat="46.84116" lon="6.82462">
        <ele>432.1</ele>
        <time>2022-09-29T12:51:34Z</time>
      </trkpt>
      <trkpt lat="46.84119" lon="6.82467">
        <ele>432.2</ele>
        <time>2022-09-29T12:51:35Z</time>
      </trkpt>
      <trkpt lat="46.84122" lon="6.8247">
        <ele>432.2</ele>
        <time>2022-09-29T12:51:36Z</time>
      </trkpt>
      <trkpt lat="46.84124" lon="6.82474">
        <ele>432.2</ele>
        <time>2022-09-29T12:51:37Z</time>
      </trkpt>
      <trkpt lat="46.84126" lon="6.82479">
        <ele>432.2</ele>
        <time>2022-09-29T12:51:38Z</time>
      </trkpt>
      <trkpt lat="46.84129" lon="6.82483">
        <ele>432.2</ele>
        <time>2022-09-29T12:51:39Z</time>
      </trkpt>
      <trkpt lat="46.84131" lon="6.82488">
        <ele>432.2</ele>
        <time>2022-09-29T12:51:40Z</time>
      </trkpt>
      <trkpt lat="46.84133" lon="6.82493">
        <ele>432.2</ele>
        <time>2022-09-29T12:51:41Z</time>
      </trkpt>
      <trkpt lat="46.84136" lon="6.82499">
        <ele>432.2</ele>
        <time>2022-09-29T12:51:42Z</time>
      </trkpt>
      <trkpt lat="46.84138" lon="6.82504">
        <ele>432.2</ele>
        <time>2022-09-29T12:51:43Z</time>
      </trkpt>
      <trkpt lat="46.84141" lon="6.8251">
        <ele>432.2</ele>
        <time>2022-09-29T12:51:44Z</time>
      </trkpt>
      <trkpt lat="46.84143" lon="6.82514">
        <ele>432.2</ele>
        <time>2022-09-29T12:51:45Z</time>
      </trkpt>
      <trkpt lat="46.84144" lon="6.82519">
        <ele>432.2</ele>
        <time>2022-09-29T12:51:46Z</time>
      </trkpt>
      <trkpt lat="46.84146" lon="6.82525">
        <ele>432.2</ele>
        <time>2022-09-29T12:51:47Z</time>
      </trkpt>
      <trkpt lat="46.84147" lon="6.8253">
        <ele>432.2</ele>
        <time>2022-09-29T12:51:48Z</time>
      </trkpt>
      <trkpt lat="46.84149" lon="6.82536">
        <ele>432.2</ele>
        <time>2022-09-29T12:51:49Z</time>
      </trkpt>
      <trkpt lat="46.84151" lon="6.82542">
        <ele>432.2</ele>
        <time>2022-09-29T12:51:50Z</time>
      </trkpt>
      <trkpt lat="46.84153" lon="6.82548">
        <ele>432.2</ele>
        <time>2022-09-29T12:51:51Z</time>
      </trkpt>
      <trkpt lat="46.84155" lon="6.82552">
        <ele>432.1</ele>
        <time>2022-09-29T12:51:52Z</time>
      </trkpt>
      <trkpt lat="46.84157" lon="6.82558">
        <ele>432.1</ele>
        <time>2022-09-29T12:51:53Z</time>
      </trkpt>
      <trkpt lat="46.84159" lon="6.82562">
        <ele>432.1</ele>
        <time>2022-09-29T12:51:54Z</time>
      </trkpt>
      <trkpt lat="46.84161" lon="6.82566">
        <ele>432.1</ele>
        <time>2022-09-29T12:51:55Z</time>
      </trkpt>
      <trkpt lat="46.84164" lon="6.8257">
        <ele>432.1</ele>
        <time>2022-09-29T12:51:56Z</time>
      </trkpt>
      <trkpt lat="46.84165" lon="6.8257">
        <ele>432.1</ele>
        <time>2022-09-29T12:51:57Z</time>
      </trkpt>
      <trkpt lat="46.84167" lon="6.82571">
        <ele>432.1</ele>
        <time>2022-09-29T12:51:58Z</time>
      </trkpt>
      <trkpt lat="46.84171" lon="6.82571">
        <ele>432</ele>
        <time>2022-09-29T12:51:59Z</time>
      </trkpt>
      <trkpt lat="46.84172" lon="6.82572">
        <ele>432</ele>
        <time>2022-09-29T12:52:00Z</time>
      </trkpt>
      <trkpt lat="46.84174" lon="6.82575">
        <ele>432</ele>
        <time>2022-09-29T12:52:01Z</time>
      </trkpt>
      <trkpt lat="46.84178" lon="6.8258">
        <ele>432</ele>
        <time>2022-09-29T12:52:02Z</time>
      </trkpt>
      <trkpt lat="46.8418" lon="6.82582">
        <ele>432</ele>
        <time>2022-09-29T12:52:03Z</time>
      </trkpt>
      <trkpt lat="46.84182" lon="6.82586">
        <ele>432</ele>
        <time>2022-09-29T12:52:04Z</time>
      </trkpt>
      <trkpt lat="46.84184" lon="6.82591">
        <ele>432</ele>
        <time>2022-09-29T12:52:05Z</time>
      </trkpt>
      <trkpt lat="46.84187" lon="6.82596">
        <ele>432</ele>
        <time>2022-09-29T12:52:06Z</time>
      </trkpt>
      <trkpt lat="46.8419" lon="6.82601">
        <ele>431.9</ele>
        <time>2022-09-29T12:52:07Z</time>
      </trkpt>
      <trkpt lat="46.84192" lon="6.82606">
        <ele>431.9</ele>
        <time>2022-09-29T12:52:08Z</time>
      </trkpt>
      <trkpt lat="46.84194" lon="6.82611">
        <ele>431.9</ele>
        <time>2022-09-29T12:52:09Z</time>
      </trkpt>
      <trkpt lat="46.84197" lon="6.82616">
        <ele>431.9</ele>
        <time>2022-09-29T12:52:10Z</time>
      </trkpt>
      <trkpt lat="46.84199" lon="6.82622">
        <ele>431.9</ele>
        <time>2022-09-29T12:52:11Z</time>
      </trkpt>
      <trkpt lat="46.84201" lon="6.82628">
        <ele>431.9</ele>
        <time>2022-09-29T12:52:12Z</time>
      </trkpt>
      <trkpt lat="46.84203" lon="6.82632">
        <ele>431.9</ele>
        <time>2022-09-29T12:52:13Z</time>
      </trkpt>
      <trkpt lat="46.84205" lon="6.82638">
        <ele>431.9</ele>
        <time>2022-09-29T12:52:14Z</time>
      </trkpt>
      <trkpt lat="46.84207" lon="6.82643">
        <ele>432</ele>
        <time>2022-09-29T12:52:15Z</time>
      </trkpt>
      <trkpt lat="46.8421" lon="6.82647">
        <ele>432</ele>
        <time>2022-09-29T12:52:16Z</time>
      </trkpt>
      <trkpt lat="46.84212" lon="6.82651">
        <ele>432</ele>
        <time>2022-09-29T12:52:17Z</time>
      </trkpt>
      <trkpt lat="46.84214" lon="6.82655">
        <ele>432</ele>
        <time>2022-09-29T12:52:18Z</time>
      </trkpt>
      <trkpt lat="46.84216" lon="6.8266">
        <ele>432</ele>
        <time>2022-09-29T12:52:19Z</time>
      </trkpt>
      <trkpt lat="46.84217" lon="6.82662">
        <ele>432</ele>
        <time>2022-09-29T12:52:20Z</time>
      </trkpt>
      <trkpt lat="46.84218" lon="6.82666">
        <ele>432</ele>
        <time>2022-09-29T12:52:21Z</time>
      </trkpt>
      <trkpt lat="46.84219" lon="6.82669">
        <ele>432.1</ele>
        <time>2022-09-29T12:52:22Z</time>
      </trkpt>
      <trkpt lat="46.84221" lon="6.82673">
        <ele>432.1</ele>
        <time>2022-09-29T12:52:23Z</time>
      </trkpt>
      <trkpt lat="46.84223" lon="6.82676">
        <ele>432.1</ele>
        <time>2022-09-29T12:52:24Z</time>
      </trkpt>
      <trkpt lat="46.84225" lon="6.82681">
        <ele>432.1</ele>
        <time>2022-09-29T12:52:25Z</time>
      </trkpt>
      <trkpt lat="46.84227" lon="6.82685">
        <ele>432.1</ele>
        <time>2022-09-29T12:52:26Z</time>
      </trkpt>
      <trkpt lat="46.84229" lon="6.8269">
        <ele>432.1</ele>
        <time>2022-09-29T12:52:27Z</time>
      </trkpt>
      <trkpt lat="46.84231" lon="6.82695">
        <ele>432.1</ele>
        <time>2022-09-29T12:52:28Z</time>
      </trkpt>
      <trkpt lat="46.84233" lon="6.827">
        <ele>432.2</ele>
        <time>2022-09-29T12:52:29Z</time>
      </trkpt>
      <trkpt lat="46.84235" lon="6.82705">
        <ele>432.2</ele>
        <time>2022-09-29T12:52:30Z</time>
      </trkpt>
      <trkpt lat="46.84236" lon="6.8271">
        <ele>432.2</ele>
        <time>2022-09-29T12:52:31Z</time>
      </trkpt>
      <trkpt lat="46.84239" lon="6.82714">
        <ele>432.2</ele>
        <time>2022-09-29T12:52:32Z</time>
      </trkpt>
      <trkpt lat="46.8424" lon="6.8272">
        <ele>432.2</ele>
        <time>2022-09-29T12:52:33Z</time>
      </trkpt>
      <trkpt lat="46.84241" lon="6.82725">
        <ele>432.2</ele>
        <time>2022-09-29T12:52:34Z</time>
      </trkpt>
      <trkpt lat="46.84244" lon="6.82731">
        <ele>432.2</ele>
        <time>2022-09-29T12:52:35Z</time>
      </trkpt>
      <trkpt lat="46.84245" lon="6.82736">
        <ele>432.2</ele>
        <time>2022-09-29T12:52:36Z</time>
      </trkpt>
      <trkpt lat="46.84248" lon="6.8274">
        <ele>432.2</ele>
        <time>2022-09-29T12:52:37Z</time>
      </trkpt>
      <trkpt lat="46.8425" lon="6.82745">
        <ele>432.2</ele>
        <time>2022-09-29T12:52:38Z</time>
      </trkpt>
      <trkpt lat="46.84252" lon="6.82752">
        <ele>432.2</ele>
        <time>2022-09-29T12:52:39Z</time>
      </trkpt>
      <trkpt lat="46.84254" lon="6.82758">
        <ele>432.2</ele>
        <time>2022-09-29T12:52:40Z</time>
      </trkpt>
      <trkpt lat="46.84255" lon="6.82763">
        <ele>432.2</ele>
        <time>2022-09-29T12:52:41Z</time>
      </trkpt>
      <trkpt lat="46.84258" lon="6.8277">
        <ele>432.2</ele>
        <time>2022-09-29T12:52:42Z</time>
      </trkpt>
      <trkpt lat="46.84261" lon="6.82774">
        <ele>432.2</ele>
        <time>2022-09-29T12:52:43Z</time>
      </trkpt>
      <trkpt lat="46.84263" lon="6.82779">
        <ele>432.2</ele>
        <time>2022-09-29T12:52:44Z</time>
      </trkpt>
      <trkpt lat="46.84265" lon="6.82783">
        <ele>432.2</ele>
        <time>2022-09-29T12:52:45Z</time>
      </trkpt>
      <trkpt lat="46.84268" lon="6.82787">
        <ele>432.2</ele>
        <time>2022-09-29T12:52:46Z</time>
      </trkpt>
      <trkpt lat="46.84269" lon="6.82793">
        <ele>432.2</ele>
        <time>2022-09-29T12:52:47Z</time>
      </trkpt>
      <trkpt lat="46.8427" lon="6.82799">
        <ele>432.2</ele>
        <time>2022-09-29T12:52:48Z</time>
      </trkpt>
      <trkpt lat="46.84272" lon="6.82804">
        <ele>432.2</ele>
        <time>2022-09-29T12:52:49Z</time>
      </trkpt>
      <trkpt lat="46.84274" lon="6.82809">
        <ele>432.2</ele>
        <time>2022-09-29T12:52:50Z</time>
      </trkpt>
      <trkpt lat="46.84277" lon="6.82814">
        <ele>432.2</ele>
        <time>2022-09-29T12:52:51Z</time>
      </trkpt>
      <trkpt lat="46.84279" lon="6.82821">
        <ele>432.2</ele>
        <time>2022-09-29T12:52:52Z</time>
      </trkpt>
      <trkpt lat="46.84281" lon="6.82825">
        <ele>432.2</ele>
        <time>2022-09-29T12:52:53Z</time>
      </trkpt>
      <trkpt lat="46.84283" lon="6.8283">
        <ele>432.2</ele>
        <time>2022-09-29T12:52:54Z</time>
      </trkpt>
      <trkpt lat="46.84286" lon="6.82836">
        <ele>432.2</ele>
        <time>2022-09-29T12:52:55Z</time>
      </trkpt>
      <trkpt lat="46.84287" lon="6.82841">
        <ele>432.2</ele>
        <time>2022-09-29T12:52:56Z</time>
      </trkpt>
      <trkpt lat="46.84289" lon="6.82847">
        <ele>432.2</ele>
        <time>2022-09-29T12:52:57Z</time>
      </trkpt>
      <trkpt lat="46.84292" lon="6.82852">
        <ele>432.1</ele>
        <time>2022-09-29T12:52:58Z</time>
      </trkpt>
      <trkpt lat="46.84293" lon="6.82858">
        <ele>432.1</ele>
        <time>2022-09-29T12:52:59Z</time>
      </trkpt>
      <trkpt lat="46.84295" lon="6.82865">
        <ele>432.1</ele>
        <time>2022-09-29T12:53:00Z</time>
      </trkpt>
      <trkpt lat="46.84298" lon="6.8287">
        <ele>432.1</ele>
        <time>2022-09-29T12:53:01Z</time>
      </trkpt>
      <trkpt lat="46.84299" lon="6.82876">
        <ele>432</ele>
        <time>2022-09-29T12:53:02Z</time>
      </trkpt>
      <trkpt lat="46.84305" lon="6.82888">
        <ele>432</ele>
        <time>2022-09-29T12:53:04Z</time>
      </trkpt>
      <trkpt lat="46.84308" lon="6.82901">
        <ele>432</ele>
        <time>2022-09-29T12:53:06Z</time>
      </trkpt>
      <trkpt lat="46.84311" lon="6.82907">
        <ele>432</ele>
        <time>2022-09-29T12:53:07Z</time>
      </trkpt>
      <trkpt lat="46.84313" lon="6.82913">
        <ele>432</ele>
        <time>2022-09-29T12:53:08Z</time>
      </trkpt>
      <trkpt lat="46.84315" lon="6.82919">
        <ele>432</ele>
        <time>2022-09-29T12:53:10Z</time>
      </trkpt>
      <trkpt lat="46.84319" lon="6.82932">
        <ele>432</ele>
        <time>2022-09-29T12:53:11Z</time>
      </trkpt>
      <trkpt lat="46.84321" lon="6.82938">
        <ele>431.9</ele>
        <time>2022-09-29T12:53:12Z</time>
      </trkpt>
      <trkpt lat="46.84323" lon="6.82944">
        <ele>431.9</ele>
        <time>2022-09-29T12:53:13Z</time>
      </trkpt>
      <trkpt lat="46.84327" lon="6.8295">
        <ele>431.9</ele>
        <time>2022-09-29T12:53:14Z</time>
      </trkpt>
      <trkpt lat="46.84328" lon="6.82957">
        <ele>431.9</ele>
        <time>2022-09-29T12:53:15Z</time>
      </trkpt>
      <trkpt lat="46.84331" lon="6.82963">
        <ele>431.9</ele>
        <time>2022-09-29T12:53:16Z</time>
      </trkpt>
      <trkpt lat="46.84333" lon="6.82968">
        <ele>431.9</ele>
        <time>2022-09-29T12:53:17Z</time>
      </trkpt>
      <trkpt lat="46.84336" lon="6.82974">
        <ele>431.9</ele>
        <time>2022-09-29T12:53:18Z</time>
      </trkpt>
      <trkpt lat="46.84338" lon="6.82981">
        <ele>431.8</ele>
        <time>2022-09-29T12:53:19Z</time>
      </trkpt>
      <trkpt lat="46.8434" lon="6.82987">
        <ele>431.8</ele>
        <time>2022-09-29T12:53:20Z</time>
      </trkpt>
      <trkpt lat="46.84342" lon="6.82994">
        <ele>431.8</ele>
        <time>2022-09-29T12:53:21Z</time>
      </trkpt>
      <trkpt lat="46.84345" lon="6.83">
        <ele>431.7</ele>
        <time>2022-09-29T12:53:22Z</time>
      </trkpt>
      <trkpt lat="46.84347" lon="6.83006">
        <ele>431.7</ele>
        <time>2022-09-29T12:53:23Z</time>
      </trkpt>
      <trkpt lat="46.84349" lon="6.83012">
        <ele>431.7</ele>
        <time>2022-09-29T12:53:24Z</time>
      </trkpt>
      <trkpt lat="46.84352" lon="6.83019">
        <ele>431.7</ele>
        <time>2022-09-29T12:53:25Z</time>
      </trkpt>
      <trkpt lat="46.84352" lon="6.83024">
        <ele>431.7</ele>
        <time>2022-09-29T12:53:26Z</time>
      </trkpt>
      <trkpt lat="46.84355" lon="6.83029">
        <ele>431.7</ele>
        <time>2022-09-29T12:53:27Z</time>
      </trkpt>
      <trkpt lat="46.84357" lon="6.83035">
        <ele>431.7</ele>
        <time>2022-09-29T12:53:28Z</time>
      </trkpt>
      <trkpt lat="46.8436" lon="6.83041">
        <ele>431.7</ele>
        <time>2022-09-29T12:53:29Z</time>
      </trkpt>
      <trkpt lat="46.84362" lon="6.83047">
        <ele>431.7</ele>
        <time>2022-09-29T12:53:30Z</time>
      </trkpt>
      <trkpt lat="46.84364" lon="6.83053">
        <ele>431.7</ele>
        <time>2022-09-29T12:53:31Z</time>
      </trkpt>
      <trkpt lat="46.84366" lon="6.83059">
        <ele>431.7</ele>
        <time>2022-09-29T12:53:32Z</time>
      </trkpt>
      <trkpt lat="46.84368" lon="6.83065">
        <ele>431.6</ele>
        <time>2022-09-29T12:53:33Z</time>
      </trkpt>
      <trkpt lat="46.8437" lon="6.8307">
        <ele>431.6</ele>
        <time>2022-09-29T12:53:34Z</time>
      </trkpt>
      <trkpt lat="46.84372" lon="6.83076">
        <ele>431.6</ele>
        <time>2022-09-29T12:53:35Z</time>
      </trkpt>
      <trkpt lat="46.84374" lon="6.83082">
        <ele>431.6</ele>
        <time>2022-09-29T12:53:36Z</time>
      </trkpt>
      <trkpt lat="46.84378" lon="6.83087">
        <ele>431.6</ele>
        <time>2022-09-29T12:53:37Z</time>
      </trkpt>
      <trkpt lat="46.8438" lon="6.83095">
        <ele>431.6</ele>
        <time>2022-09-29T12:53:38Z</time>
      </trkpt>
      <trkpt lat="46.84382" lon="6.831">
        <ele>431.6</ele>
        <time>2022-09-29T12:53:39Z</time>
      </trkpt>
      <trkpt lat="46.84385" lon="6.83106">
        <ele>431.6</ele>
        <time>2022-09-29T12:53:40Z</time>
      </trkpt>
      <trkpt lat="46.84386" lon="6.83112">
        <ele>431.6</ele>
        <time>2022-09-29T12:53:41Z</time>
      </trkpt>
      <trkpt lat="46.84389" lon="6.83117">
        <ele>431.6</ele>
        <time>2022-09-29T12:53:42Z</time>
      </trkpt>
      <trkpt lat="46.84391" lon="6.83123">
        <ele>431.6</ele>
        <time>2022-09-29T12:53:43Z</time>
      </trkpt>
      <trkpt lat="46.84393" lon="6.83129">
        <ele>431.6</ele>
        <time>2022-09-29T12:53:44Z</time>
      </trkpt>
      <trkpt lat="46.84396" lon="6.83135">
        <ele>431.6</ele>
        <time>2022-09-29T12:53:45Z</time>
      </trkpt>
      <trkpt lat="46.84398" lon="6.8314">
        <ele>431.7</ele>
        <time>2022-09-29T12:53:46Z</time>
      </trkpt>
      <trkpt lat="46.844" lon="6.83146">
        <ele>431.7</ele>
        <time>2022-09-29T12:53:47Z</time>
      </trkpt>
      <trkpt lat="46.84402" lon="6.83151">
        <ele>431.7</ele>
        <time>2022-09-29T12:53:48Z</time>
      </trkpt>
      <trkpt lat="46.84405" lon="6.83158">
        <ele>431.7</ele>
        <time>2022-09-29T12:53:49Z</time>
      </trkpt>
      <trkpt lat="46.84406" lon="6.83164">
        <ele>431.7</ele>
        <time>2022-09-29T12:53:50Z</time>
      </trkpt>
      <trkpt lat="46.84409" lon="6.83171">
        <ele>431.7</ele>
        <time>2022-09-29T12:53:51Z</time>
      </trkpt>
      <trkpt lat="46.84411" lon="6.83178">
        <ele>431.7</ele>
        <time>2022-09-29T12:53:52Z</time>
      </trkpt>
      <trkpt lat="46.84415" lon="6.83183">
        <ele>431.7</ele>
        <time>2022-09-29T12:53:53Z</time>
      </trkpt>
      <trkpt lat="46.84417" lon="6.8319">
        <ele>431.7</ele>
        <time>2022-09-29T12:53:54Z</time>
      </trkpt>
      <trkpt lat="46.84419" lon="6.83195">
        <ele>431.7</ele>
        <time>2022-09-29T12:53:55Z</time>
      </trkpt>
      <trkpt lat="46.84422" lon="6.832">
        <ele>431.7</ele>
        <time>2022-09-29T12:53:56Z</time>
      </trkpt>
      <trkpt lat="46.84424" lon="6.83206">
        <ele>431.7</ele>
        <time>2022-09-29T12:53:57Z</time>
      </trkpt>
      <trkpt lat="46.84426" lon="6.83212">
        <ele>431.7</ele>
        <time>2022-09-29T12:53:58Z</time>
      </trkpt>
      <trkpt lat="46.84427" lon="6.83219">
        <ele>431.6</ele>
        <time>2022-09-29T12:53:59Z</time>
      </trkpt>
      <trkpt lat="46.8443" lon="6.83225">
        <ele>431.6</ele>
        <time>2022-09-29T12:54:00Z</time>
      </trkpt>
      <trkpt lat="46.84433" lon="6.83232">
        <ele>431.6</ele>
        <time>2022-09-29T12:54:01Z</time>
      </trkpt>
      <trkpt lat="46.84435" lon="6.83239">
        <ele>431.6</ele>
        <time>2022-09-29T12:54:02Z</time>
      </trkpt>
      <trkpt lat="46.84438" lon="6.83245">
        <ele>431.6</ele>
        <time>2022-09-29T12:54:03Z</time>
      </trkpt>
      <trkpt lat="46.8444" lon="6.83251">
        <ele>431.6</ele>
        <time>2022-09-29T12:54:04Z</time>
      </trkpt>
      <trkpt lat="46.84443" lon="6.83258">
        <ele>431.5</ele>
        <time>2022-09-29T12:54:05Z</time>
      </trkpt>
      <trkpt lat="46.84446" lon="6.83265">
        <ele>431.5</ele>
        <time>2022-09-29T12:54:06Z</time>
      </trkpt>
      <trkpt lat="46.84448" lon="6.83272">
        <ele>431.5</ele>
        <time>2022-09-29T12:54:07Z</time>
      </trkpt>
      <trkpt lat="46.8445" lon="6.83279">
        <ele>431.5</ele>
        <time>2022-09-29T12:54:08Z</time>
      </trkpt>
      <trkpt lat="46.84452" lon="6.83285">
        <ele>431.5</ele>
        <time>2022-09-29T12:54:09Z</time>
      </trkpt>
      <trkpt lat="46.84455" lon="6.83292">
        <ele>431.5</ele>
        <time>2022-09-29T12:54:10Z</time>
      </trkpt>
      <trkpt lat="46.84457" lon="6.83298">
        <ele>431.5</ele>
        <time>2022-09-29T12:54:11Z</time>
      </trkpt>
      <trkpt lat="46.84459" lon="6.83305">
        <ele>431.5</ele>
        <time>2022-09-29T12:54:12Z</time>
      </trkpt>
      <trkpt lat="46.84462" lon="6.83312">
        <ele>431.5</ele>
        <time>2022-09-29T12:54:13Z</time>
      </trkpt>
      <trkpt lat="46.84463" lon="6.83318">
        <ele>431.5</ele>
        <time>2022-09-29T12:54:14Z</time>
      </trkpt>
      <trkpt lat="46.84467" lon="6.83325">
        <ele>431.5</ele>
        <time>2022-09-29T12:54:15Z</time>
      </trkpt>
      <trkpt lat="46.84469" lon="6.83332">
        <ele>431.5</ele>
        <time>2022-09-29T12:54:16Z</time>
      </trkpt>
      <trkpt lat="46.84471" lon="6.83338">
        <ele>431.5</ele>
        <time>2022-09-29T12:54:17Z</time>
      </trkpt>
      <trkpt lat="46.84473" lon="6.83344">
        <ele>431.6</ele>
        <time>2022-09-29T12:54:18Z</time>
      </trkpt>
      <trkpt lat="46.84476" lon="6.8335">
        <ele>431.6</ele>
        <time>2022-09-29T12:54:19Z</time>
      </trkpt>
      <trkpt lat="46.84478" lon="6.83355">
        <ele>431.6</ele>
        <time>2022-09-29T12:54:20Z</time>
      </trkpt>
      <trkpt lat="46.8448" lon="6.83361">
        <ele>431.6</ele>
        <time>2022-09-29T12:54:21Z</time>
      </trkpt>
      <trkpt lat="46.84482" lon="6.83367">
        <ele>431.6</ele>
        <time>2022-09-29T12:54:22Z</time>
      </trkpt>
      <trkpt lat="46.84484" lon="6.83373">
        <ele>431.7</ele>
        <time>2022-09-29T12:54:23Z</time>
      </trkpt>
      <trkpt lat="46.84487" lon="6.83377">
        <ele>431.7</ele>
        <time>2022-09-29T12:54:24Z</time>
      </trkpt>
      <trkpt lat="46.84489" lon="6.83385">
        <ele>431.7</ele>
        <time>2022-09-29T12:54:25Z</time>
      </trkpt>
      <trkpt lat="46.84491" lon="6.83391">
        <ele>431.8</ele>
        <time>2022-09-29T12:54:26Z</time>
      </trkpt>
      <trkpt lat="46.84493" lon="6.83397">
        <ele>431.8</ele>
        <time>2022-09-29T12:54:27Z</time>
      </trkpt>
      <trkpt lat="46.84496" lon="6.83403">
        <ele>431.8</ele>
        <time>2022-09-29T12:54:28Z</time>
      </trkpt>
      <trkpt lat="46.84499" lon="6.83409">
        <ele>431.8</ele>
        <time>2022-09-29T12:54:29Z</time>
      </trkpt>
      <trkpt lat="46.84501" lon="6.83414">
        <ele>431.9</ele>
        <time>2022-09-29T12:54:30Z</time>
      </trkpt>
      <trkpt lat="46.84504" lon="6.83421">
        <ele>431.9</ele>
        <time>2022-09-29T12:54:31Z</time>
      </trkpt>
      <trkpt lat="46.84506" lon="6.83425">
        <ele>431.9</ele>
        <time>2022-09-29T12:54:32Z</time>
      </trkpt>
      <trkpt lat="46.84508" lon="6.83432">
        <ele>431.9</ele>
        <time>2022-09-29T12:54:33Z</time>
      </trkpt>
      <trkpt lat="46.84511" lon="6.83438">
        <ele>431.9</ele>
        <time>2022-09-29T12:54:34Z</time>
      </trkpt>
      <trkpt lat="46.84513" lon="6.83443">
        <ele>431.9</ele>
        <time>2022-09-29T12:54:35Z</time>
      </trkpt>
      <trkpt lat="46.84515" lon="6.83449">
        <ele>431.9</ele>
        <time>2022-09-29T12:54:36Z</time>
      </trkpt>
      <trkpt lat="46.84518" lon="6.83455">
        <ele>431.9</ele>
        <time>2022-09-29T12:54:37Z</time>
      </trkpt>
      <trkpt lat="46.84521" lon="6.83462">
        <ele>431.9</ele>
        <time>2022-09-29T12:54:38Z</time>
      </trkpt>
      <trkpt lat="46.84523" lon="6.83467">
        <ele>431.9</ele>
        <time>2022-09-29T12:54:39Z</time>
      </trkpt>
      <trkpt lat="46.84526" lon="6.83473">
        <ele>431.9</ele>
        <time>2022-09-29T12:54:40Z</time>
      </trkpt>
      <trkpt lat="46.84529" lon="6.83478">
        <ele>431.8</ele>
        <time>2022-09-29T12:54:41Z</time>
      </trkpt>
      <trkpt lat="46.8453" lon="6.83484">
        <ele>431.8</ele>
        <time>2022-09-29T12:54:42Z</time>
      </trkpt>
      <trkpt lat="46.84532" lon="6.8349">
        <ele>431.8</ele>
        <time>2022-09-29T12:54:43Z</time>
      </trkpt>
      <trkpt lat="46.84535" lon="6.83497">
        <ele>431.7</ele>
        <time>2022-09-29T12:54:44Z</time>
      </trkpt>
      <trkpt lat="46.84536" lon="6.83503">
        <ele>431.7</ele>
        <time>2022-09-29T12:54:45Z</time>
      </trkpt>
      <trkpt lat="46.84539" lon="6.8351">
        <ele>431.7</ele>
        <time>2022-09-29T12:54:46Z</time>
      </trkpt>
      <trkpt lat="46.84542" lon="6.83515">
        <ele>431.6</ele>
        <time>2022-09-29T12:54:47Z</time>
      </trkpt>
      <trkpt lat="46.84545" lon="6.83521">
        <ele>431.6</ele>
        <time>2022-09-29T12:54:48Z</time>
      </trkpt>
      <trkpt lat="46.84547" lon="6.83528">
        <ele>431.6</ele>
        <time>2022-09-29T12:54:49Z</time>
      </trkpt>
      <trkpt lat="46.8455" lon="6.83534">
        <ele>431.6</ele>
        <time>2022-09-29T12:54:50Z</time>
      </trkpt>
      <trkpt lat="46.84552" lon="6.8354">
        <ele>431.6</ele>
        <time>2022-09-29T12:54:51Z</time>
      </trkpt>
      <trkpt lat="46.84554" lon="6.83546">
        <ele>431.6</ele>
        <time>2022-09-29T12:54:52Z</time>
      </trkpt>
      <trkpt lat="46.84557" lon="6.83553">
        <ele>431.6</ele>
        <time>2022-09-29T12:54:53Z</time>
      </trkpt>
      <trkpt lat="46.84559" lon="6.83559">
        <ele>431.6</ele>
        <time>2022-09-29T12:54:54Z</time>
      </trkpt>
      <trkpt lat="46.84561" lon="6.83566">
        <ele>431.6</ele>
        <time>2022-09-29T12:54:55Z</time>
      </trkpt>
      <trkpt lat="46.84563" lon="6.83572">
        <ele>431.6</ele>
        <time>2022-09-29T12:54:56Z</time>
      </trkpt>
      <trkpt lat="46.84565" lon="6.83578">
        <ele>431.6</ele>
        <time>2022-09-29T12:54:57Z</time>
      </trkpt>
      <trkpt lat="46.84567" lon="6.83585">
        <ele>431.5</ele>
        <time>2022-09-29T12:54:58Z</time>
      </trkpt>
      <trkpt lat="46.84568" lon="6.83592">
        <ele>431.5</ele>
        <time>2022-09-29T12:54:59Z</time>
      </trkpt>
      <trkpt lat="46.84569" lon="6.83598">
        <ele>431.5</ele>
        <time>2022-09-29T12:55:00Z</time>
      </trkpt>
      <trkpt lat="46.8457" lon="6.83604">
        <ele>431.5</ele>
        <time>2022-09-29T12:55:02Z</time>
      </trkpt>
      <trkpt lat="46.84572" lon="6.8361">
        <ele>431.5</ele>
        <time>2022-09-29T12:55:03Z</time>
      </trkpt>
      <trkpt lat="46.84574" lon="6.83616">
        <ele>431.5</ele>
        <time>2022-09-29T12:55:04Z</time>
      </trkpt>
      <trkpt lat="46.84577" lon="6.83626">
        <ele>431.5</ele>
        <time>2022-09-29T12:55:05Z</time>
      </trkpt>
      <trkpt lat="46.84579" lon="6.8363">
        <ele>431.4</ele>
        <time>2022-09-29T12:55:06Z</time>
      </trkpt>
      <trkpt lat="46.8458" lon="6.83636">
        <ele>431.4</ele>
        <time>2022-09-29T12:55:07Z</time>
      </trkpt>
      <trkpt lat="46.84581" lon="6.83641">
        <ele>431.4</ele>
        <time>2022-09-29T12:55:08Z</time>
      </trkpt>
      <trkpt lat="46.84582" lon="6.83646">
        <ele>431.4</ele>
        <time>2022-09-29T12:55:09Z</time>
      </trkpt>
      <trkpt lat="46.84584" lon="6.83652">
        <ele>431.4</ele>
        <time>2022-09-29T12:55:10Z</time>
      </trkpt>
      <trkpt lat="46.84586" lon="6.83657">
        <ele>431.4</ele>
        <time>2022-09-29T12:55:11Z</time>
      </trkpt>
      <trkpt lat="46.84587" lon="6.83663">
        <ele>431.4</ele>
        <time>2022-09-29T12:55:12Z</time>
      </trkpt>
      <trkpt lat="46.84589" lon="6.83669">
        <ele>431.4</ele>
        <time>2022-09-29T12:55:14Z</time>
      </trkpt>
      <trkpt lat="46.84592" lon="6.83681">
        <ele>431.4</ele>
        <time>2022-09-29T12:55:15Z</time>
      </trkpt>
      <trkpt lat="46.84594" lon="6.83687">
        <ele>431.4</ele>
        <time>2022-09-29T12:55:16Z</time>
      </trkpt>
      <trkpt lat="46.84595" lon="6.83693">
        <ele>431.4</ele>
        <time>2022-09-29T12:55:17Z</time>
      </trkpt>
      <trkpt lat="46.84597" lon="6.83699">
        <ele>431.4</ele>
        <time>2022-09-29T12:55:18Z</time>
      </trkpt>
      <trkpt lat="46.84599" lon="6.83705">
        <ele>431.5</ele>
        <time>2022-09-29T12:55:20Z</time>
      </trkpt>
      <trkpt lat="46.84601" lon="6.83712">
        <ele>431.5</ele>
        <time>2022-09-29T12:55:21Z</time>
      </trkpt>
      <trkpt lat="46.84603" lon="6.83718">
        <ele>431.5</ele>
        <time>2022-09-29T12:55:22Z</time>
      </trkpt>
      <trkpt lat="46.84604" lon="6.83724">
        <ele>431.5</ele>
        <time>2022-09-29T12:55:23Z</time>
      </trkpt>
      <trkpt lat="46.84608" lon="6.83736">
        <ele>431.5</ele>
        <time>2022-09-29T12:55:24Z</time>
      </trkpt>
      <trkpt lat="46.8461" lon="6.83742">
        <ele>431.6</ele>
        <time>2022-09-29T12:55:25Z</time>
      </trkpt>
      <trkpt lat="46.84612" lon="6.83748">
        <ele>431.6</ele>
        <time>2022-09-29T12:55:26Z</time>
      </trkpt>
      <trkpt lat="46.84614" lon="6.83754">
        <ele>431.6</ele>
        <time>2022-09-29T12:55:27Z</time>
      </trkpt>
      <trkpt lat="46.84616" lon="6.8376">
        <ele>431.6</ele>
        <time>2022-09-29T12:55:28Z</time>
      </trkpt>
      <trkpt lat="46.84618" lon="6.83766">
        <ele>431.6</ele>
        <time>2022-09-29T12:55:29Z</time>
      </trkpt>
      <trkpt lat="46.84619" lon="6.83771">
        <ele>431.7</ele>
        <time>2022-09-29T12:55:30Z</time>
      </trkpt>
      <trkpt lat="46.84621" lon="6.83777">
        <ele>431.7</ele>
        <time>2022-09-29T12:55:31Z</time>
      </trkpt>
      <trkpt lat="46.84623" lon="6.83783">
        <ele>431.7</ele>
        <time>2022-09-29T12:55:32Z</time>
      </trkpt>
      <trkpt lat="46.84625" lon="6.83788">
        <ele>431.7</ele>
        <time>2022-09-29T12:55:33Z</time>
      </trkpt>
      <trkpt lat="46.84627" lon="6.83794">
        <ele>431.7</ele>
        <time>2022-09-29T12:55:34Z</time>
      </trkpt>
      <trkpt lat="46.84629" lon="6.838">
        <ele>431.7</ele>
        <time>2022-09-29T12:55:35Z</time>
      </trkpt>
      <trkpt lat="46.84631" lon="6.83806">
        <ele>431.7</ele>
        <time>2022-09-29T12:55:36Z</time>
      </trkpt>
      <trkpt lat="46.84633" lon="6.83812">
        <ele>431.7</ele>
        <time>2022-09-29T12:55:37Z</time>
      </trkpt>
      <trkpt lat="46.84635" lon="6.83818">
        <ele>431.7</ele>
        <time>2022-09-29T12:55:38Z</time>
      </trkpt>
      <trkpt lat="46.84636" lon="6.83824">
        <ele>431.7</ele>
        <time>2022-09-29T12:55:39Z</time>
      </trkpt>
      <trkpt lat="46.84638" lon="6.83829">
        <ele>431.7</ele>
        <time>2022-09-29T12:55:40Z</time>
      </trkpt>
      <trkpt lat="46.8464" lon="6.83835">
        <ele>431.6</ele>
        <time>2022-09-29T12:55:41Z</time>
      </trkpt>
      <trkpt lat="46.84641" lon="6.8384">
        <ele>431.6</ele>
        <time>2022-09-29T12:55:42Z</time>
      </trkpt>
      <trkpt lat="46.84644" lon="6.83845">
        <ele>431.6</ele>
        <time>2022-09-29T12:55:43Z</time>
      </trkpt>
      <trkpt lat="46.84646" lon="6.8385">
        <ele>431.6</ele>
        <time>2022-09-29T12:55:44Z</time>
      </trkpt>
      <trkpt lat="46.84648" lon="6.83855">
        <ele>431.6</ele>
        <time>2022-09-29T12:55:45Z</time>
      </trkpt>
      <trkpt lat="46.84649" lon="6.8386">
        <ele>431.6</ele>
        <time>2022-09-29T12:55:46Z</time>
      </trkpt>
      <trkpt lat="46.84652" lon="6.83865">
        <ele>431.6</ele>
        <time>2022-09-29T12:55:47Z</time>
      </trkpt>
      <trkpt lat="46.84654" lon="6.83869">
        <ele>431.5</ele>
        <time>2022-09-29T12:55:48Z</time>
      </trkpt>
      <trkpt lat="46.84657" lon="6.83873">
        <ele>431.5</ele>
        <time>2022-09-29T12:55:49Z</time>
      </trkpt>
      <trkpt lat="46.8466" lon="6.83876">
        <ele>431.5</ele>
        <time>2022-09-29T12:55:50Z</time>
      </trkpt>
      <trkpt lat="46.84663" lon="6.83878">
        <ele>431.5</ele>
        <time>2022-09-29T12:55:51Z</time>
      </trkpt>
      <trkpt lat="46.84666" lon="6.8388">
        <ele>431.5</ele>
        <time>2022-09-29T12:55:52Z</time>
      </trkpt>
      <trkpt lat="46.8467" lon="6.83879">
        <ele>431.5</ele>
        <time>2022-09-29T12:55:53Z</time>
      </trkpt>
      <trkpt lat="46.84672" lon="6.83879">
        <ele>431.5</ele>
        <time>2022-09-29T12:55:54Z</time>
      </trkpt>
      <trkpt lat="46.84674" lon="6.83876">
        <ele>431.5</ele>
        <time>2022-09-29T12:55:55Z</time>
      </trkpt>
      <trkpt lat="46.84676" lon="6.83873">
        <ele>431.5</ele>
        <time>2022-09-29T12:55:56Z</time>
      </trkpt>
      <trkpt lat="46.84678" lon="6.83869">
        <ele>431.5</ele>
        <time>2022-09-29T12:55:57Z</time>
      </trkpt>
      <trkpt lat="46.84681" lon="6.83865">
        <ele>431.4</ele>
        <time>2022-09-29T12:55:58Z</time>
      </trkpt>
      <trkpt lat="46.84683" lon="6.83861">
        <ele>431.4</ele>
        <time>2022-09-29T12:55:59Z</time>
      </trkpt>
      <trkpt lat="46.84686" lon="6.83857">
        <ele>431.4</ele>
        <time>2022-09-29T12:56:00Z</time>
      </trkpt>
      <trkpt lat="46.84689" lon="6.83853">
        <ele>431.4</ele>
        <time>2022-09-29T12:56:01Z</time>
      </trkpt>
      <trkpt lat="46.84691" lon="6.8385">
        <ele>431.3</ele>
        <time>2022-09-29T12:56:02Z</time>
      </trkpt>
      <trkpt lat="46.84694" lon="6.83844">
        <ele>431.3</ele>
        <time>2022-09-29T12:56:03Z</time>
      </trkpt>
      <trkpt lat="46.84698" lon="6.83841">
        <ele>431.3</ele>
        <time>2022-09-29T12:56:04Z</time>
      </trkpt>
      <trkpt lat="46.847" lon="6.83837">
        <ele>431.2</ele>
        <time>2022-09-29T12:56:05Z</time>
      </trkpt>
      <trkpt lat="46.84703" lon="6.83831">
        <ele>431.2</ele>
        <time>2022-09-29T12:56:06Z</time>
      </trkpt>
      <trkpt lat="46.84707" lon="6.83826">
        <ele>431.2</ele>
        <time>2022-09-29T12:56:07Z</time>
      </trkpt>
      <trkpt lat="46.84711" lon="6.83822">
        <ele>431.2</ele>
        <time>2022-09-29T12:56:08Z</time>
      </trkpt>
      <trkpt lat="46.84714" lon="6.83819">
        <ele>431.1</ele>
        <time>2022-09-29T12:56:09Z</time>
      </trkpt>
      <trkpt lat="46.84718" lon="6.83814">
        <ele>431.1</ele>
        <time>2022-09-29T12:56:10Z</time>
      </trkpt>
      <trkpt lat="46.84722" lon="6.8381">
        <ele>431.1</ele>
        <time>2022-09-29T12:56:11Z</time>
      </trkpt>
      <trkpt lat="46.84725" lon="6.83806">
        <ele>431</ele>
        <time>2022-09-29T12:56:12Z</time>
      </trkpt>
      <trkpt lat="46.84729" lon="6.83804">
        <ele>431</ele>
        <time>2022-09-29T12:56:13Z</time>
      </trkpt>
      <trkpt lat="46.84734" lon="6.83802">
        <ele>431</ele>
        <time>2022-09-29T12:56:14Z</time>
      </trkpt>
      <trkpt lat="46.84738" lon="6.838">
        <ele>431</ele>
        <time>2022-09-29T12:56:15Z</time>
      </trkpt>
      <trkpt lat="46.84743" lon="6.83799">
        <ele>430.9</ele>
        <time>2022-09-29T12:56:16Z</time>
      </trkpt>
      <trkpt lat="46.84748" lon="6.838">
        <ele>430.9</ele>
        <time>2022-09-29T12:56:17Z</time>
      </trkpt>
      <trkpt lat="46.84752" lon="6.83801">
        <ele>430.9</ele>
        <time>2022-09-29T12:56:18Z</time>
      </trkpt>
      <trkpt lat="46.84757" lon="6.83804">
        <ele>430.9</ele>
        <time>2022-09-29T12:56:19Z</time>
      </trkpt>
      <trkpt lat="46.84762" lon="6.83806">
        <ele>430.9</ele>
        <time>2022-09-29T12:56:20Z</time>
      </trkpt>
      <trkpt lat="46.84766" lon="6.8381">
        <ele>430.9</ele>
        <time>2022-09-29T12:56:21Z</time>
      </trkpt>
      <trkpt lat="46.8477" lon="6.83813">
        <ele>430.9</ele>
        <time>2022-09-29T12:56:22Z</time>
      </trkpt>
      <trkpt lat="46.84774" lon="6.83817">
        <ele>430.9</ele>
        <time>2022-09-29T12:56:23Z</time>
      </trkpt>
      <trkpt lat="46.84778" lon="6.83821">
        <ele>431</ele>
        <time>2022-09-29T12:56:24Z</time>
      </trkpt>
      <trkpt lat="46.84782" lon="6.83826">
        <ele>431</ele>
        <time>2022-09-29T12:56:25Z</time>
      </trkpt>
      <trkpt lat="46.84786" lon="6.83829">
        <ele>431</ele>
        <time>2022-09-29T12:56:26Z</time>
      </trkpt>
      <trkpt lat="46.8479" lon="6.83833">
        <ele>431</ele>
        <time>2022-09-29T12:56:27Z</time>
      </trkpt>
      <trkpt lat="46.84794" lon="6.83836">
        <ele>431</ele>
        <time>2022-09-29T12:56:28Z</time>
      </trkpt>
      <trkpt lat="46.84798" lon="6.83841">
        <ele>431</ele>
        <time>2022-09-29T12:56:29Z</time>
      </trkpt>
      <trkpt lat="46.84802" lon="6.83845">
        <ele>431.1</ele>
        <time>2022-09-29T12:56:30Z</time>
      </trkpt>
      <trkpt lat="46.84806" lon="6.83849">
        <ele>431.1</ele>
        <time>2022-09-29T12:56:31Z</time>
      </trkpt>
      <trkpt lat="46.8481" lon="6.83853">
        <ele>431.1</ele>
        <time>2022-09-29T12:56:32Z</time>
      </trkpt>
      <trkpt lat="46.84814" lon="6.83857">
        <ele>431.1</ele>
        <time>2022-09-29T12:56:33Z</time>
      </trkpt>
      <trkpt lat="46.84818" lon="6.83861">
        <ele>431.1</ele>
        <time>2022-09-29T12:56:34Z</time>
      </trkpt>
      <trkpt lat="46.84821" lon="6.83865">
        <ele>431.2</ele>
        <time>2022-09-29T12:56:35Z</time>
      </trkpt>
      <trkpt lat="46.84825" lon="6.83869">
        <ele>431.2</ele>
        <time>2022-09-29T12:56:36Z</time>
      </trkpt>
      <trkpt lat="46.84829" lon="6.83874">
        <ele>431.2</ele>
        <time>2022-09-29T12:56:37Z</time>
      </trkpt>
      <trkpt lat="46.84832" lon="6.83877">
        <ele>431.2</ele>
        <time>2022-09-29T12:56:38Z</time>
      </trkpt>
      <trkpt lat="46.84836" lon="6.83881">
        <ele>431.2</ele>
        <time>2022-09-29T12:56:39Z</time>
      </trkpt>
      <trkpt lat="46.8484" lon="6.83885">
        <ele>431.2</ele>
        <time>2022-09-29T12:56:40Z</time>
      </trkpt>
      <trkpt lat="46.84843" lon="6.83889">
        <ele>431.2</ele>
        <time>2022-09-29T12:56:41Z</time>
      </trkpt>
      <trkpt lat="46.84847" lon="6.83894">
        <ele>431.2</ele>
        <time>2022-09-29T12:56:42Z</time>
      </trkpt>
      <trkpt lat="46.84851" lon="6.83898">
        <ele>431.2</ele>
        <time>2022-09-29T12:56:43Z</time>
      </trkpt>
      <trkpt lat="46.84854" lon="6.83902">
        <ele>431.2</ele>
        <time>2022-09-29T12:56:44Z</time>
      </trkpt>
      <trkpt lat="46.84858" lon="6.83906">
        <ele>431.2</ele>
        <time>2022-09-29T12:56:45Z</time>
      </trkpt>
      <trkpt lat="46.84862" lon="6.83911">
        <ele>431.2</ele>
        <time>2022-09-29T12:56:46Z</time>
      </trkpt>
      <trkpt lat="46.84866" lon="6.83915">
        <ele>431.1</ele>
        <time>2022-09-29T12:56:47Z</time>
      </trkpt>
      <trkpt lat="46.84869" lon="6.8392">
        <ele>431.1</ele>
        <time>2022-09-29T12:56:48Z</time>
      </trkpt>
      <trkpt lat="46.84873" lon="6.83924">
        <ele>431.1</ele>
        <time>2022-09-29T12:56:49Z</time>
      </trkpt>
      <trkpt lat="46.84877" lon="6.83929">
        <ele>431.1</ele>
        <time>2022-09-29T12:56:50Z</time>
      </trkpt>
      <trkpt lat="46.84881" lon="6.83933">
        <ele>431.1</ele>
        <time>2022-09-29T12:56:51Z</time>
      </trkpt>
      <trkpt lat="46.84885" lon="6.83938">
        <ele>431.1</ele>
        <time>2022-09-29T12:56:52Z</time>
      </trkpt>
      <trkpt lat="46.84889" lon="6.83943">
        <ele>431</ele>
        <time>2022-09-29T12:56:53Z</time>
      </trkpt>
      <trkpt lat="46.84894" lon="6.83947">
        <ele>431</ele>
        <time>2022-09-29T12:56:54Z</time>
      </trkpt>
      <trkpt lat="46.84898" lon="6.83952">
        <ele>431</ele>
        <time>2022-09-29T12:56:55Z</time>
      </trkpt>
      <trkpt lat="46.84902" lon="6.83956">
        <ele>431</ele>
        <time>2022-09-29T12:56:56Z</time>
      </trkpt>
      <trkpt lat="46.84906" lon="6.83961">
        <ele>431</ele>
        <time>2022-09-29T12:56:57Z</time>
      </trkpt>
      <trkpt lat="46.8491" lon="6.83966">
        <ele>431</ele>
        <time>2022-09-29T12:56:58Z</time>
      </trkpt>
      <trkpt lat="46.84914" lon="6.8397">
        <ele>430.9</ele>
        <time>2022-09-29T12:56:59Z</time>
      </trkpt>
      <trkpt lat="46.84918" lon="6.83974">
        <ele>430.9</ele>
        <time>2022-09-29T12:57:00Z</time>
      </trkpt>
      <trkpt lat="46.84922" lon="6.83979">
        <ele>430.9</ele>
        <time>2022-09-29T12:57:01Z</time>
      </trkpt>
      <trkpt lat="46.84927" lon="6.83983">
        <ele>430.9</ele>
        <time>2022-09-29T12:57:02Z</time>
      </trkpt>
      <trkpt lat="46.84931" lon="6.83987">
        <ele>430.9</ele>
        <time>2022-09-29T12:57:03Z</time>
      </trkpt>
      <trkpt lat="46.84936" lon="6.83991">
        <ele>430.8</ele>
        <time>2022-09-29T12:57:04Z</time>
      </trkpt>
      <trkpt lat="46.8494" lon="6.83994">
        <ele>430.8</ele>
        <time>2022-09-29T12:57:05Z</time>
      </trkpt>
      <trkpt lat="46.84945" lon="6.83998">
        <ele>430.8</ele>
        <time>2022-09-29T12:57:06Z</time>
      </trkpt>
      <trkpt lat="46.84949" lon="6.84002">
        <ele>430.8</ele>
        <time>2022-09-29T12:57:07Z</time>
      </trkpt>
      <trkpt lat="46.84954" lon="6.84006">
        <ele>430.7</ele>
        <time>2022-09-29T12:57:08Z</time>
      </trkpt>
      <trkpt lat="46.84959" lon="6.84009">
        <ele>430.7</ele>
        <time>2022-09-29T12:57:09Z</time>
      </trkpt>
      <trkpt lat="46.84963" lon="6.84011">
        <ele>430.7</ele>
        <time>2022-09-29T12:57:10Z</time>
      </trkpt>
      <trkpt lat="46.84968" lon="6.84014">
        <ele>430.7</ele>
        <time>2022-09-29T12:57:11Z</time>
      </trkpt>
      <trkpt lat="46.84972" lon="6.84017">
        <ele>430.7</ele>
        <time>2022-09-29T12:57:12Z</time>
      </trkpt>
      <trkpt lat="46.84977" lon="6.8402">
        <ele>430.8</ele>
        <time>2022-09-29T12:57:13Z</time>
      </trkpt>
      <trkpt lat="46.84981" lon="6.84023">
        <ele>430.8</ele>
        <time>2022-09-29T12:57:14Z</time>
      </trkpt>
      <trkpt lat="46.84986" lon="6.84026">
        <ele>430.8</ele>
        <time>2022-09-29T12:57:15Z</time>
      </trkpt>
      <trkpt lat="46.84991" lon="6.84029">
        <ele>430.8</ele>
        <time>2022-09-29T12:57:16Z</time>
      </trkpt>
      <trkpt lat="46.84994" lon="6.84035">
        <ele>430.9</ele>
        <time>2022-09-29T12:57:17Z</time>
      </trkpt>
      <trkpt lat="46.84998" lon="6.84038">
        <ele>430.9</ele>
        <time>2022-09-29T12:57:18Z</time>
      </trkpt>
      <trkpt lat="46.85003" lon="6.84042">
        <ele>430.9</ele>
        <time>2022-09-29T12:57:19Z</time>
      </trkpt>
      <trkpt lat="46.85007" lon="6.84045">
        <ele>431</ele>
        <time>2022-09-29T12:57:20Z</time>
      </trkpt>
      <trkpt lat="46.85011" lon="6.8405">
        <ele>431</ele>
        <time>2022-09-29T12:57:21Z</time>
      </trkpt>
      <trkpt lat="46.85015" lon="6.84053">
        <ele>431.1</ele>
        <time>2022-09-29T12:57:22Z</time>
      </trkpt>
      <trkpt lat="46.85019" lon="6.84056">
        <ele>431.1</ele>
        <time>2022-09-29T12:57:23Z</time>
      </trkpt>
      <trkpt lat="46.85023" lon="6.8406">
        <ele>431.2</ele>
        <time>2022-09-29T12:57:24Z</time>
      </trkpt>
      <trkpt lat="46.85027" lon="6.84064">
        <ele>431.2</ele>
        <time>2022-09-29T12:57:25Z</time>
      </trkpt>
      <trkpt lat="46.8503" lon="6.84067">
        <ele>431.2</ele>
        <time>2022-09-29T12:57:26Z</time>
      </trkpt>
      <trkpt lat="46.85033" lon="6.84071">
        <ele>431.3</ele>
        <time>2022-09-29T12:57:27Z</time>
      </trkpt>
      <trkpt lat="46.85036" lon="6.84074">
        <ele>431.3</ele>
        <time>2022-09-29T12:57:28Z</time>
      </trkpt>
      <trkpt lat="46.85039" lon="6.84077">
        <ele>431.3</ele>
        <time>2022-09-29T12:57:29Z</time>
      </trkpt>
      <trkpt lat="46.85042" lon="6.84081">
        <ele>431.3</ele>
        <time>2022-09-29T12:57:30Z</time>
      </trkpt>
      <trkpt lat="46.85045" lon="6.84084">
        <ele>431.3</ele>
        <time>2022-09-29T12:57:31Z</time>
      </trkpt>
      <trkpt lat="46.85048" lon="6.84087">
        <ele>431.3</ele>
        <time>2022-09-29T12:57:32Z</time>
      </trkpt>
      <trkpt lat="46.85051" lon="6.84091">
        <ele>431.2</ele>
        <time>2022-09-29T12:57:33Z</time>
      </trkpt>
      <trkpt lat="46.85055" lon="6.84094">
        <ele>431.2</ele>
        <time>2022-09-29T12:57:34Z</time>
      </trkpt>
      <trkpt lat="46.85058" lon="6.84097">
        <ele>431.2</ele>
        <time>2022-09-29T12:57:35Z</time>
      </trkpt>
      <trkpt lat="46.85061" lon="6.841">
        <ele>431.2</ele>
        <time>2022-09-29T12:57:36Z</time>
      </trkpt>
      <trkpt lat="46.85066" lon="6.84103">
        <ele>431.1</ele>
        <time>2022-09-29T12:57:37Z</time>
      </trkpt>
      <trkpt lat="46.85069" lon="6.84106">
        <ele>431.1</ele>
        <time>2022-09-29T12:57:38Z</time>
      </trkpt>
      <trkpt lat="46.85072" lon="6.84109">
        <ele>431.2</ele>
        <time>2022-09-29T12:57:39Z</time>
      </trkpt>
      <trkpt lat="46.85075" lon="6.84113">
        <ele>431.1</ele>
        <time>2022-09-29T12:57:40Z</time>
      </trkpt>
      <trkpt lat="46.85078" lon="6.84116">
        <ele>431.1</ele>
        <time>2022-09-29T12:57:41Z</time>
      </trkpt>
      <trkpt lat="46.8508" lon="6.8412">
        <ele>431.1</ele>
        <time>2022-09-29T12:57:42Z</time>
      </trkpt>
      <trkpt lat="46.85083" lon="6.84123">
        <ele>431.1</ele>
        <time>2022-09-29T12:57:43Z</time>
      </trkpt>
      <trkpt lat="46.85086" lon="6.84126">
        <ele>431.1</ele>
        <time>2022-09-29T12:57:44Z</time>
      </trkpt>
      <trkpt lat="46.85087" lon="6.84127">
        <ele>431.1</ele>
        <time>2022-09-29T12:57:45Z</time>
      </trkpt>
      <trkpt lat="46.85089" lon="6.84131">
        <ele>431.1</ele>
        <time>2022-09-29T12:57:46Z</time>
      </trkpt>
      <trkpt lat="46.85091" lon="6.84134">
        <ele>430.9</ele>
        <time>2022-09-29T12:57:47Z</time>
      </trkpt>
      <trkpt lat="46.85092" lon="6.84135">
        <ele>430.9</ele>
        <time>2022-09-29T12:57:48Z</time>
      </trkpt>
      <trkpt lat="46.85093" lon="6.8414">
        <ele>430.9</ele>
        <time>2022-09-29T12:57:49Z</time>
      </trkpt>
      <trkpt lat="46.85094" lon="6.84142">
        <ele>430.8</ele>
        <time>2022-09-29T12:57:50Z</time>
      </trkpt>
      <trkpt lat="46.85095" lon="6.84147">
        <ele>430.8</ele>
        <time>2022-09-29T12:57:51Z</time>
      </trkpt>
      <trkpt lat="46.85096" lon="6.84149">
        <ele>430.8</ele>
        <time>2022-09-29T12:57:52Z</time>
      </trkpt>
      <trkpt lat="46.85097" lon="6.84152">
        <ele>430.8</ele>
        <time>2022-09-29T12:57:53Z</time>
      </trkpt>
      <trkpt lat="46.85099" lon="6.84157">
        <ele>430.8</ele>
        <time>2022-09-29T12:57:54Z</time>
      </trkpt>
      <trkpt lat="46.851" lon="6.84158">
        <ele>430.8</ele>
        <time>2022-09-29T12:57:55Z</time>
      </trkpt>
      <trkpt lat="46.851" lon="6.84163">
        <ele>430.7</ele>
        <time>2022-09-29T12:57:56Z</time>
      </trkpt>
      <trkpt lat="46.851" lon="6.84164">
        <ele>430.7</ele>
        <time>2022-09-29T12:57:57Z</time>
      </trkpt>
      <trkpt lat="46.85099" lon="6.84165">
        <ele>430.7</ele>
        <time>2022-09-29T12:57:58Z</time>
      </trkpt>
      <trkpt lat="46.851" lon="6.84165">
        <ele>430.7</ele>
        <time>2022-09-29T12:57:59Z</time>
      </trkpt>
      <trkpt lat="46.851" lon="6.84166">
        <ele>430.7</ele>
        <time>2022-09-29T12:58:00Z</time>
      </trkpt>
      <trkpt lat="46.851" lon="6.84166">
        <ele>430.7</ele>
        <time>2022-09-29T12:58:01Z</time>
      </trkpt>
      <trkpt lat="46.85101" lon="6.84167">
        <ele>430.7</ele>
        <time>2022-09-29T12:58:02Z</time>
      </trkpt>
      <trkpt lat="46.85101" lon="6.84167">
        <ele>430.7</ele>
        <time>2022-09-29T12:58:03Z</time>
      </trkpt>
      <trkpt lat="46.85101" lon="6.84168">
        <ele>430.7</ele>
        <time>2022-09-29T12:58:04Z</time>
      </trkpt>
      <trkpt lat="46.85102" lon="6.84168">
        <ele>430.7</ele>
        <time>2022-09-29T12:58:05Z</time>
      </trkpt>
      <trkpt lat="46.85102" lon="6.84168">
        <ele>430.7</ele>
        <time>2022-09-29T12:58:06Z</time>
      </trkpt>
      <trkpt lat="46.85103" lon="6.84169">
        <ele>430.7</ele>
        <time>2022-09-29T12:58:07Z</time>
      </trkpt>
      <trkpt lat="46.85103" lon="6.84169">
        <ele>430.7</ele>
        <time>2022-09-29T12:58:08Z</time>
      </trkpt>
      <trkpt lat="46.85103" lon="6.8417">
        <ele>430.7</ele>
        <time>2022-09-29T12:58:11Z</time>
      </trkpt>
      <trkpt lat="46.85104" lon="6.8417">
        <ele>430.7</ele>
        <time>2022-09-29T12:58:12Z</time>
      </trkpt>
      <trkpt lat="46.85104" lon="6.84171">
        <ele>430.7</ele>
        <time>2022-09-29T12:58:13Z</time>
      </trkpt>
      <trkpt lat="46.85104" lon="6.84171">
        <ele>430.7</ele>
        <time>2022-09-29T12:58:14Z</time>
      </trkpt>
      <trkpt lat="46.85105" lon="6.84171">
        <ele>430.7</ele>
        <time>2022-09-29T12:58:15Z</time>
      </trkpt>
      <trkpt lat="46.85105" lon="6.84172">
        <ele>430.7</ele>
        <time>2022-09-29T12:58:16Z</time>
      </trkpt>
      <trkpt lat="46.85105" lon="6.84172">
        <ele>430.7</ele>
        <time>2022-09-29T12:58:17Z</time>
      </trkpt>
      <trkpt lat="46.85106" lon="6.84173">
        <ele>430.7</ele>
        <time>2022-09-29T12:58:18Z</time>
      </trkpt>
      <trkpt lat="46.85106" lon="6.84173">
        <ele>430.6</ele>
        <time>2022-09-29T12:58:19Z</time>
      </trkpt>
      <trkpt lat="46.85106" lon="6.84173">
        <ele>430.6</ele>
        <time>2022-09-29T12:58:20Z</time>
      </trkpt>
      <trkpt lat="46.85107" lon="6.84174">
        <ele>430.6</ele>
        <time>2022-09-29T12:59:26Z</time>
      </trkpt>
      <trkpt lat="46.85107" lon="6.84174">
        <ele>430.6</ele>
        <time>2022-09-29T12:59:27Z</time>
      </trkpt>
      <trkpt lat="46.85107" lon="6.84175">
        <ele>430.6</ele>
        <time>2022-09-29T12:59:28Z</time>
      </trkpt>
      <trkpt lat="46.85108" lon="6.8418">
        <ele>430.6</ele>
        <time>2022-09-29T12:59:29Z</time>
      </trkpt>
      <trkpt lat="46.85108" lon="6.84182">
        <ele>430.6</ele>
        <time>2022-09-29T12:59:30Z</time>
      </trkpt>
      <trkpt lat="46.85109" lon="6.84185">
        <ele>430.6</ele>
        <time>2022-09-29T12:59:31Z</time>
      </trkpt>
      <trkpt lat="46.8511" lon="6.8419">
        <ele>430.6</ele>
        <time>2022-09-29T12:59:32Z</time>
      </trkpt>
      <trkpt lat="46.85111" lon="6.84196">
        <ele>430.5</ele>
        <time>2022-09-29T12:59:33Z</time>
      </trkpt>
      <trkpt lat="46.85112" lon="6.84198">
        <ele>430.5</ele>
        <time>2022-09-29T12:59:34Z</time>
      </trkpt>
      <trkpt lat="46.85113" lon="6.84203">
        <ele>430.5</ele>
        <time>2022-09-29T12:59:35Z</time>
      </trkpt>
      <trkpt lat="46.85114" lon="6.84208">
        <ele>430.5</ele>
        <time>2022-09-29T12:59:36Z</time>
      </trkpt>
      <trkpt lat="46.85114" lon="6.8421">
        <ele>430.5</ele>
        <time>2022-09-29T12:59:37Z</time>
      </trkpt>
      <trkpt lat="46.85116" lon="6.84214">
        <ele>430.5</ele>
        <time>2022-09-29T12:59:38Z</time>
      </trkpt>
      <trkpt lat="46.85116" lon="6.84219">
        <ele>430.5</ele>
        <time>2022-09-29T12:59:39Z</time>
      </trkpt>
      <trkpt lat="46.85117" lon="6.84223">
        <ele>430.5</ele>
        <time>2022-09-29T12:59:40Z</time>
      </trkpt>
      <trkpt lat="46.85119" lon="6.84228">
        <ele>430.5</ele>
        <time>2022-09-29T12:59:41Z</time>
      </trkpt>
      <trkpt lat="46.8512" lon="6.84232">
        <ele>430.5</ele>
        <time>2022-09-29T12:59:42Z</time>
      </trkpt>
      <trkpt lat="46.85122" lon="6.84237">
        <ele>430.5</ele>
        <time>2022-09-29T12:59:43Z</time>
      </trkpt>
      <trkpt lat="46.85124" lon="6.84242">
        <ele>430.5</ele>
        <time>2022-09-29T12:59:44Z</time>
      </trkpt>
      <trkpt lat="46.85125" lon="6.84247">
        <ele>430.5</ele>
        <time>2022-09-29T12:59:45Z</time>
      </trkpt>
      <trkpt lat="46.85127" lon="6.84252">
        <ele>430.5</ele>
        <time>2022-09-29T12:59:46Z</time>
      </trkpt>
      <trkpt lat="46.85128" lon="6.84256">
        <ele>430.5</ele>
        <time>2022-09-29T12:59:47Z</time>
      </trkpt>
      <trkpt lat="46.8513" lon="6.8426">
        <ele>430.4</ele>
        <time>2022-09-29T12:59:48Z</time>
      </trkpt>
      <trkpt lat="46.85133" lon="6.84266">
        <ele>430.4</ele>
        <time>2022-09-29T12:59:49Z</time>
      </trkpt>
      <trkpt lat="46.85134" lon="6.84271">
        <ele>430.4</ele>
        <time>2022-09-29T12:59:50Z</time>
      </trkpt>
      <trkpt lat="46.85137" lon="6.84276">
        <ele>430.4</ele>
        <time>2022-09-29T12:59:51Z</time>
      </trkpt>
      <trkpt lat="46.8514" lon="6.8428">
        <ele>430.4</ele>
        <time>2022-09-29T12:59:52Z</time>
      </trkpt>
      <trkpt lat="46.85142" lon="6.84285">
        <ele>430.4</ele>
        <time>2022-09-29T12:59:53Z</time>
      </trkpt>
      <trkpt lat="46.85145" lon="6.84287">
        <ele>430.4</ele>
        <time>2022-09-29T12:59:54Z</time>
      </trkpt>
      <trkpt lat="46.85148" lon="6.84292">
        <ele>430.4</ele>
        <time>2022-09-29T12:59:55Z</time>
      </trkpt>
      <trkpt lat="46.85151" lon="6.84297">
        <ele>430.4</ele>
        <time>2022-09-29T12:59:56Z</time>
      </trkpt>
      <trkpt lat="46.85154" lon="6.84301">
        <ele>430.4</ele>
        <time>2022-09-29T12:59:57Z</time>
      </trkpt>
      <trkpt lat="46.85156" lon="6.84305">
        <ele>430.4</ele>
        <time>2022-09-29T12:59:58Z</time>
      </trkpt>
      <trkpt lat="46.85159" lon="6.8431">
        <ele>430.4</ele>
        <time>2022-09-29T12:59:59Z</time>
      </trkpt>
      <trkpt lat="46.85162" lon="6.84314">
        <ele>430.4</ele>
        <time>2022-09-29T13:00:00Z</time>
      </trkpt>
      <trkpt lat="46.85165" lon="6.84319">
        <ele>430.4</ele>
        <time>2022-09-29T13:00:01Z</time>
      </trkpt>
      <trkpt lat="46.85168" lon="6.84323">
        <ele>430.4</ele>
        <time>2022-09-29T13:00:02Z</time>
      </trkpt>
      <trkpt lat="46.8517" lon="6.84328">
        <ele>430.4</ele>
        <time>2022-09-29T13:00:03Z</time>
      </trkpt>
      <trkpt lat="46.85174" lon="6.84334">
        <ele>430.4</ele>
        <time>2022-09-29T13:00:04Z</time>
      </trkpt>
      <trkpt lat="46.85176" lon="6.84339">
        <ele>430.4</ele>
        <time>2022-09-29T13:00:05Z</time>
      </trkpt>
      <trkpt lat="46.85179" lon="6.84343">
        <ele>430.4</ele>
        <time>2022-09-29T13:00:06Z</time>
      </trkpt>
      <trkpt lat="46.85182" lon="6.84348">
        <ele>430.4</ele>
        <time>2022-09-29T13:00:07Z</time>
      </trkpt>
      <trkpt lat="46.85184" lon="6.84353">
        <ele>430.4</ele>
        <time>2022-09-29T13:00:08Z</time>
      </trkpt>
      <trkpt lat="46.85187" lon="6.84359">
        <ele>430.4</ele>
        <time>2022-09-29T13:00:09Z</time>
      </trkpt>
      <trkpt lat="46.85189" lon="6.84365">
        <ele>430.4</ele>
        <time>2022-09-29T13:00:10Z</time>
      </trkpt>
      <trkpt lat="46.85192" lon="6.8437">
        <ele>430.3</ele>
        <time>2022-09-29T13:00:11Z</time>
      </trkpt>
      <trkpt lat="46.85194" lon="6.84375">
        <ele>430.3</ele>
        <time>2022-09-29T13:00:12Z</time>
      </trkpt>
      <trkpt lat="46.85197" lon="6.8438">
        <ele>430.3</ele>
        <time>2022-09-29T13:00:13Z</time>
      </trkpt>
      <trkpt lat="46.852" lon="6.84385">
        <ele>430.3</ele>
        <time>2022-09-29T13:00:14Z</time>
      </trkpt>
      <trkpt lat="46.85202" lon="6.8439">
        <ele>430.3</ele>
        <time>2022-09-29T13:00:15Z</time>
      </trkpt>
      <trkpt lat="46.85206" lon="6.84395">
        <ele>430.3</ele>
        <time>2022-09-29T13:00:16Z</time>
      </trkpt>
      <trkpt lat="46.85208" lon="6.844">
        <ele>430.3</ele>
        <time>2022-09-29T13:00:17Z</time>
      </trkpt>
      <trkpt lat="46.85211" lon="6.84405">
        <ele>430.2</ele>
        <time>2022-09-29T13:00:18Z</time>
      </trkpt>
      <trkpt lat="46.85214" lon="6.8441">
        <ele>430.2</ele>
        <time>2022-09-29T13:00:19Z</time>
      </trkpt>
      <trkpt lat="46.85217" lon="6.84416">
        <ele>430.2</ele>
        <time>2022-09-29T13:00:20Z</time>
      </trkpt>
      <trkpt lat="46.85219" lon="6.84419">
        <ele>430.2</ele>
        <time>2022-09-29T13:00:21Z</time>
      </trkpt>
      <trkpt lat="46.85221" lon="6.84422">
        <ele>430.2</ele>
        <time>2022-09-29T13:00:22Z</time>
      </trkpt>
      <trkpt lat="46.85223" lon="6.84429">
        <ele>430.2</ele>
        <time>2022-09-29T13:00:23Z</time>
      </trkpt>
      <trkpt lat="46.85226" lon="6.84433">
        <ele>430.2</ele>
        <time>2022-09-29T13:00:24Z</time>
      </trkpt>
      <trkpt lat="46.85229" lon="6.84438">
        <ele>430.2</ele>
        <time>2022-09-29T13:00:25Z</time>
      </trkpt>
      <trkpt lat="46.85232" lon="6.84442">
        <ele>430.3</ele>
        <time>2022-09-29T13:00:26Z</time>
      </trkpt>
      <trkpt lat="46.85233" lon="6.84447">
        <ele>430.3</ele>
        <time>2022-09-29T13:00:27Z</time>
      </trkpt>
      <trkpt lat="46.85236" lon="6.84451">
        <ele>430.3</ele>
        <time>2022-09-29T13:00:28Z</time>
      </trkpt>
      <trkpt lat="46.85238" lon="6.84457">
        <ele>430.4</ele>
        <time>2022-09-29T13:00:29Z</time>
      </trkpt>
      <trkpt lat="46.8524" lon="6.84461">
        <ele>430.4</ele>
        <time>2022-09-29T13:00:30Z</time>
      </trkpt>
      <trkpt lat="46.85243" lon="6.84467">
        <ele>430.4</ele>
        <time>2022-09-29T13:00:31Z</time>
      </trkpt>
      <trkpt lat="46.85246" lon="6.84473">
        <ele>430.5</ele>
        <time>2022-09-29T13:00:32Z</time>
      </trkpt>
      <trkpt lat="46.85248" lon="6.84476">
        <ele>430.5</ele>
        <time>2022-09-29T13:00:33Z</time>
      </trkpt>
      <trkpt lat="46.85251" lon="6.84481">
        <ele>430.6</ele>
        <time>2022-09-29T13:00:34Z</time>
      </trkpt>
      <trkpt lat="46.85253" lon="6.84487">
        <ele>430.6</ele>
        <time>2022-09-29T13:00:35Z</time>
      </trkpt>
      <trkpt lat="46.85256" lon="6.84491">
        <ele>430.6</ele>
        <time>2022-09-29T13:00:36Z</time>
      </trkpt>
      <trkpt lat="46.85258" lon="6.84497">
        <ele>430.7</ele>
        <time>2022-09-29T13:00:37Z</time>
      </trkpt>
      <trkpt lat="46.85261" lon="6.84501">
        <ele>430.7</ele>
        <time>2022-09-29T13:00:38Z</time>
      </trkpt>
      <trkpt lat="46.85264" lon="6.84507">
        <ele>430.7</ele>
        <time>2022-09-29T13:00:39Z</time>
      </trkpt>
      <trkpt lat="46.85266" lon="6.84512">
        <ele>430.8</ele>
        <time>2022-09-29T13:00:40Z</time>
      </trkpt>
      <trkpt lat="46.85269" lon="6.84517">
        <ele>430.8</ele>
        <time>2022-09-29T13:00:41Z</time>
      </trkpt>
      <trkpt lat="46.85272" lon="6.84522">
        <ele>430.9</ele>
        <time>2022-09-29T13:00:42Z</time>
      </trkpt>
      <trkpt lat="46.85274" lon="6.84528">
        <ele>430.9</ele>
        <time>2022-09-29T13:00:43Z</time>
      </trkpt>
      <trkpt lat="46.85276" lon="6.84533">
        <ele>431</ele>
        <time>2022-09-29T13:00:44Z</time>
      </trkpt>
      <trkpt lat="46.85279" lon="6.84539">
        <ele>431</ele>
        <time>2022-09-29T13:00:45Z</time>
      </trkpt>
      <trkpt lat="46.85282" lon="6.84544">
        <ele>431</ele>
        <time>2022-09-29T13:00:46Z</time>
      </trkpt>
      <trkpt lat="46.85285" lon="6.84549">
        <ele>431</ele>
        <time>2022-09-29T13:00:47Z</time>
      </trkpt>
      <trkpt lat="46.85287" lon="6.84554">
        <ele>431</ele>
        <time>2022-09-29T13:00:48Z</time>
      </trkpt>
      <trkpt lat="46.8529" lon="6.84558">
        <ele>431</ele>
        <time>2022-09-29T13:00:49Z</time>
      </trkpt>
      <trkpt lat="46.85293" lon="6.84564">
        <ele>431.1</ele>
        <time>2022-09-29T13:00:50Z</time>
      </trkpt>
      <trkpt lat="46.85295" lon="6.84569">
        <ele>431.1</ele>
        <time>2022-09-29T13:00:51Z</time>
      </trkpt>
      <trkpt lat="46.85298" lon="6.84574">
        <ele>431.1</ele>
        <time>2022-09-29T13:00:52Z</time>
      </trkpt>
      <trkpt lat="46.85301" lon="6.84579">
        <ele>431.2</ele>
        <time>2022-09-29T13:00:53Z</time>
      </trkpt>
      <trkpt lat="46.85303" lon="6.84584">
        <ele>431.2</ele>
        <time>2022-09-29T13:00:54Z</time>
      </trkpt>
      <trkpt lat="46.85306" lon="6.84589">
        <ele>431.2</ele>
        <time>2022-09-29T13:00:55Z</time>
      </trkpt>
      <trkpt lat="46.85308" lon="6.84594">
        <ele>431.3</ele>
        <time>2022-09-29T13:00:56Z</time>
      </trkpt>
      <trkpt lat="46.85311" lon="6.846">
        <ele>431.3</ele>
        <time>2022-09-29T13:00:57Z</time>
      </trkpt>
      <trkpt lat="46.85313" lon="6.84605">
        <ele>431.4</ele>
        <time>2022-09-29T13:00:58Z</time>
      </trkpt>
      <trkpt lat="46.85315" lon="6.84609">
        <ele>431.4</ele>
        <time>2022-09-29T13:00:59Z</time>
      </trkpt>
      <trkpt lat="46.85319" lon="6.84614">
        <ele>431.4</ele>
        <time>2022-09-29T13:01:00Z</time>
      </trkpt>
      <trkpt lat="46.85321" lon="6.84619">
        <ele>431.4</ele>
        <time>2022-09-29T13:01:01Z</time>
      </trkpt>
      <trkpt lat="46.85323" lon="6.84624">
        <ele>431.4</ele>
        <time>2022-09-29T13:01:02Z</time>
      </trkpt>
      <trkpt lat="46.85326" lon="6.84627">
        <ele>431.4</ele>
        <time>2022-09-29T13:01:03Z</time>
      </trkpt>
      <trkpt lat="46.85328" lon="6.84632">
        <ele>431.4</ele>
        <time>2022-09-29T13:01:04Z</time>
      </trkpt>
      <trkpt lat="46.8533" lon="6.84636">
        <ele>431.4</ele>
        <time>2022-09-29T13:01:05Z</time>
      </trkpt>
      <trkpt lat="46.85332" lon="6.8464">
        <ele>431.4</ele>
        <time>2022-09-29T13:01:06Z</time>
      </trkpt>
      <trkpt lat="46.85335" lon="6.84645">
        <ele>431.4</ele>
        <time>2022-09-29T13:01:07Z</time>
      </trkpt>
      <trkpt lat="46.85338" lon="6.8465">
        <ele>431.4</ele>
        <time>2022-09-29T13:01:08Z</time>
      </trkpt>
      <trkpt lat="46.8534" lon="6.84655">
        <ele>431.4</ele>
        <time>2022-09-29T13:01:09Z</time>
      </trkpt>
      <trkpt lat="46.85343" lon="6.8466">
        <ele>431.4</ele>
        <time>2022-09-29T13:01:10Z</time>
      </trkpt>
      <trkpt lat="46.85346" lon="6.84666">
        <ele>431.4</ele>
        <time>2022-09-29T13:01:11Z</time>
      </trkpt>
      <trkpt lat="46.85349" lon="6.84671">
        <ele>431.3</ele>
        <time>2022-09-29T13:01:12Z</time>
      </trkpt>
      <trkpt lat="46.85352" lon="6.84677">
        <ele>431.3</ele>
        <time>2022-09-29T13:01:13Z</time>
      </trkpt>
      <trkpt lat="46.85355" lon="6.84682">
        <ele>431.3</ele>
        <time>2022-09-29T13:01:14Z</time>
      </trkpt>
      <trkpt lat="46.85357" lon="6.84688">
        <ele>431.3</ele>
        <time>2022-09-29T13:01:15Z</time>
      </trkpt>
      <trkpt lat="46.85361" lon="6.84693">
        <ele>431.2</ele>
        <time>2022-09-29T13:01:16Z</time>
      </trkpt>
      <trkpt lat="46.85363" lon="6.84699">
        <ele>431.2</ele>
        <time>2022-09-29T13:01:17Z</time>
      </trkpt>
      <trkpt lat="46.85366" lon="6.84705">
        <ele>431.2</ele>
        <time>2022-09-29T13:01:18Z</time>
      </trkpt>
      <trkpt lat="46.8537" lon="6.84711">
        <ele>431.1</ele>
        <time>2022-09-29T13:01:19Z</time>
      </trkpt>
      <trkpt lat="46.85373" lon="6.84716">
        <ele>431.1</ele>
        <time>2022-09-29T13:01:20Z</time>
      </trkpt>
      <trkpt lat="46.85375" lon="6.84722">
        <ele>431.1</ele>
        <time>2022-09-29T13:01:21Z</time>
      </trkpt>
      <trkpt lat="46.85378" lon="6.84729">
        <ele>431.1</ele>
        <time>2022-09-29T13:01:22Z</time>
      </trkpt>
      <trkpt lat="46.85381" lon="6.84734">
        <ele>431.1</ele>
        <time>2022-09-29T13:01:23Z</time>
      </trkpt>
      <trkpt lat="46.85384" lon="6.84739">
        <ele>431</ele>
        <time>2022-09-29T13:01:24Z</time>
      </trkpt>
      <trkpt lat="46.85387" lon="6.84745">
        <ele>431</ele>
        <time>2022-09-29T13:01:25Z</time>
      </trkpt>
      <trkpt lat="46.85389" lon="6.84751">
        <ele>431</ele>
        <time>2022-09-29T13:01:26Z</time>
      </trkpt>
      <trkpt lat="46.85392" lon="6.84757">
        <ele>431</ele>
        <time>2022-09-29T13:01:27Z</time>
      </trkpt>
      <trkpt lat="46.85395" lon="6.84761">
        <ele>431</ele>
        <time>2022-09-29T13:01:28Z</time>
      </trkpt>
      <trkpt lat="46.85399" lon="6.84767">
        <ele>431</ele>
        <time>2022-09-29T13:01:29Z</time>
      </trkpt>
      <trkpt lat="46.85401" lon="6.84769">
        <ele>431</ele>
        <time>2022-09-29T13:01:30Z</time>
      </trkpt>
      <trkpt lat="46.85403" lon="6.84776">
        <ele>431</ele>
        <time>2022-09-29T13:01:31Z</time>
      </trkpt>
      <trkpt lat="46.85406" lon="6.8478">
        <ele>430.9</ele>
        <time>2022-09-29T13:01:32Z</time>
      </trkpt>
      <trkpt lat="46.85408" lon="6.84784">
        <ele>430.9</ele>
        <time>2022-09-29T13:01:33Z</time>
      </trkpt>
      <trkpt lat="46.8541" lon="6.8479">
        <ele>430.8</ele>
        <time>2022-09-29T13:01:34Z</time>
      </trkpt>
      <trkpt lat="46.85413" lon="6.84796">
        <ele>430.8</ele>
        <time>2022-09-29T13:01:35Z</time>
      </trkpt>
      <trkpt lat="46.85416" lon="6.84801">
        <ele>430.7</ele>
        <time>2022-09-29T13:01:36Z</time>
      </trkpt>
      <trkpt lat="46.85419" lon="6.84806">
        <ele>430.7</ele>
        <time>2022-09-29T13:01:37Z</time>
      </trkpt>
      <trkpt lat="46.85421" lon="6.84812">
        <ele>430.7</ele>
        <time>2022-09-29T13:01:38Z</time>
      </trkpt>
      <trkpt lat="46.85425" lon="6.84818">
        <ele>430.6</ele>
        <time>2022-09-29T13:01:39Z</time>
      </trkpt>
      <trkpt lat="46.85427" lon="6.84824">
        <ele>430.6</ele>
        <time>2022-09-29T13:01:40Z</time>
      </trkpt>
      <trkpt lat="46.85429" lon="6.84831">
        <ele>430.6</ele>
        <time>2022-09-29T13:01:41Z</time>
      </trkpt>
      <trkpt lat="46.85433" lon="6.84837">
        <ele>430.5</ele>
        <time>2022-09-29T13:01:42Z</time>
      </trkpt>
      <trkpt lat="46.85436" lon="6.84842">
        <ele>430.5</ele>
        <time>2022-09-29T13:01:43Z</time>
      </trkpt>
      <trkpt lat="46.85439" lon="6.84848">
        <ele>430.5</ele>
        <time>2022-09-29T13:01:44Z</time>
      </trkpt>
      <trkpt lat="46.85442" lon="6.84854">
        <ele>430.5</ele>
        <time>2022-09-29T13:01:45Z</time>
      </trkpt>
      <trkpt lat="46.85445" lon="6.84861">
        <ele>430.4</ele>
        <time>2022-09-29T13:01:46Z</time>
      </trkpt>
      <trkpt lat="46.85448" lon="6.84867">
        <ele>430.4</ele>
        <time>2022-09-29T13:01:47Z</time>
      </trkpt>
      <trkpt lat="46.8545" lon="6.84873">
        <ele>430.4</ele>
        <time>2022-09-29T13:01:48Z</time>
      </trkpt>
      <trkpt lat="46.85453" lon="6.84878">
        <ele>430.4</ele>
        <time>2022-09-29T13:01:49Z</time>
      </trkpt>
      <trkpt lat="46.85456" lon="6.84883">
        <ele>430.3</ele>
        <time>2022-09-29T13:01:50Z</time>
      </trkpt>
      <trkpt lat="46.8546" lon="6.8489">
        <ele>430.3</ele>
        <time>2022-09-29T13:01:51Z</time>
      </trkpt>
      <trkpt lat="46.85463" lon="6.84895">
        <ele>430.3</ele>
        <time>2022-09-29T13:01:52Z</time>
      </trkpt>
      <trkpt lat="46.85466" lon="6.849">
        <ele>430.3</ele>
        <time>2022-09-29T13:01:53Z</time>
      </trkpt>
      <trkpt lat="46.85469" lon="6.84906">
        <ele>430.2</ele>
        <time>2022-09-29T13:01:54Z</time>
      </trkpt>
      <trkpt lat="46.85472" lon="6.8491">
        <ele>430.2</ele>
        <time>2022-09-29T13:01:55Z</time>
      </trkpt>
      <trkpt lat="46.85473" lon="6.84915">
        <ele>430.2</ele>
        <time>2022-09-29T13:01:56Z</time>
      </trkpt>
      <trkpt lat="46.85475" lon="6.84919">
        <ele>430.2</ele>
        <time>2022-09-29T13:01:57Z</time>
      </trkpt>
      <trkpt lat="46.85477" lon="6.84924">
        <ele>430.1</ele>
        <time>2022-09-29T13:01:58Z</time>
      </trkpt>
      <trkpt lat="46.85479" lon="6.84928">
        <ele>430.1</ele>
        <time>2022-09-29T13:01:59Z</time>
      </trkpt>
      <trkpt lat="46.85481" lon="6.84932">
        <ele>430.1</ele>
        <time>2022-09-29T13:02:00Z</time>
      </trkpt>
      <trkpt lat="46.85483" lon="6.84936">
        <ele>430.1</ele>
        <time>2022-09-29T13:02:01Z</time>
      </trkpt>
      <trkpt lat="46.85486" lon="6.84938">
        <ele>430</ele>
        <time>2022-09-29T13:02:02Z</time>
      </trkpt>
      <trkpt lat="46.8549" lon="6.84939">
        <ele>430</ele>
        <time>2022-09-29T13:02:03Z</time>
      </trkpt>
      <trkpt lat="46.85493" lon="6.84938">
        <ele>429.9</ele>
        <time>2022-09-29T13:02:04Z</time>
      </trkpt>
      <trkpt lat="46.85497" lon="6.84937">
        <ele>429.9</ele>
        <time>2022-09-29T13:02:05Z</time>
      </trkpt>
      <trkpt lat="46.855" lon="6.84935">
        <ele>429.9</ele>
        <time>2022-09-29T13:02:06Z</time>
      </trkpt>
      <trkpt lat="46.85504" lon="6.84933">
        <ele>429.8</ele>
        <time>2022-09-29T13:02:07Z</time>
      </trkpt>
      <trkpt lat="46.85508" lon="6.84931">
        <ele>429.8</ele>
        <time>2022-09-29T13:02:08Z</time>
      </trkpt>
      <trkpt lat="46.85511" lon="6.84929">
        <ele>429.7</ele>
        <time>2022-09-29T13:02:09Z</time>
      </trkpt>
      <trkpt lat="46.85516" lon="6.84927">
        <ele>429.7</ele>
        <time>2022-09-29T13:02:10Z</time>
      </trkpt>
      <trkpt lat="46.85521" lon="6.84924">
        <ele>429.7</ele>
        <time>2022-09-29T13:02:11Z</time>
      </trkpt>
      <trkpt lat="46.85524" lon="6.84922">
        <ele>429.6</ele>
        <time>2022-09-29T13:02:12Z</time>
      </trkpt>
      <trkpt lat="46.85529" lon="6.8492">
        <ele>429.6</ele>
        <time>2022-09-29T13:02:13Z</time>
      </trkpt>
      <trkpt lat="46.85533" lon="6.84917">
        <ele>429.5</ele>
        <time>2022-09-29T13:02:14Z</time>
      </trkpt>
      <trkpt lat="46.85536" lon="6.84915">
        <ele>429.5</ele>
        <time>2022-09-29T13:02:15Z</time>
      </trkpt>
      <trkpt lat="46.85539" lon="6.84912">
        <ele>429.5</ele>
        <time>2022-09-29T13:02:16Z</time>
      </trkpt>
      <trkpt lat="46.85543" lon="6.8491">
        <ele>429.4</ele>
        <time>2022-09-29T13:02:17Z</time>
      </trkpt>
      <trkpt lat="46.85544" lon="6.8491">
        <ele>429.4</ele>
        <time>2022-09-29T13:02:18Z</time>
      </trkpt>
      <trkpt lat="46.85547" lon="6.84908">
        <ele>429.4</ele>
        <time>2022-09-29T13:02:19Z</time>
      </trkpt>
      <trkpt lat="46.8555" lon="6.84908">
        <ele>429.4</ele>
        <time>2022-09-29T13:02:20Z</time>
      </trkpt>
      <trkpt lat="46.85553" lon="6.84907">
        <ele>429.3</ele>
        <time>2022-09-29T13:02:21Z</time>
      </trkpt>
      <trkpt lat="46.85555" lon="6.84905">
        <ele>429.3</ele>
        <time>2022-09-29T13:02:22Z</time>
      </trkpt>
      <trkpt lat="46.85559" lon="6.84903">
        <ele>429.3</ele>
        <time>2022-09-29T13:02:23Z</time>
      </trkpt>
      <trkpt lat="46.85561" lon="6.84899">
        <ele>429.3</ele>
        <time>2022-09-29T13:02:24Z</time>
      </trkpt>
      <trkpt lat="46.85564" lon="6.84895">
        <ele>429.3</ele>
        <time>2022-09-29T13:02:25Z</time>
      </trkpt>
      <trkpt lat="46.85566" lon="6.84891">
        <ele>429.3</ele>
        <time>2022-09-29T13:02:26Z</time>
      </trkpt>
      <trkpt lat="46.85569" lon="6.84889">
        <ele>429.2</ele>
        <time>2022-09-29T13:02:27Z</time>
      </trkpt>
      <trkpt lat="46.85572" lon="6.84886">
        <ele>429.2</ele>
        <time>2022-09-29T13:02:28Z</time>
      </trkpt>
      <trkpt lat="46.85575" lon="6.84882">
        <ele>429.2</ele>
        <time>2022-09-29T13:02:29Z</time>
      </trkpt>
      <trkpt lat="46.85577" lon="6.84879">
        <ele>429.2</ele>
        <time>2022-09-29T13:02:30Z</time>
      </trkpt>
      <trkpt lat="46.8558" lon="6.84877">
        <ele>429.2</ele>
        <time>2022-09-29T13:02:31Z</time>
      </trkpt>
      <trkpt lat="46.85582" lon="6.84874">
        <ele>429.2</ele>
        <time>2022-09-29T13:02:32Z</time>
      </trkpt>
      <trkpt lat="46.85584" lon="6.84871">
        <ele>429.2</ele>
        <time>2022-09-29T13:02:33Z</time>
      </trkpt>
      <trkpt lat="46.85585" lon="6.84869">
        <ele>429.2</ele>
        <time>2022-09-29T13:02:34Z</time>
      </trkpt>
      <trkpt lat="46.85589" lon="6.84867">
        <ele>429.2</ele>
        <time>2022-09-29T13:02:35Z</time>
      </trkpt>
      <trkpt lat="46.8559" lon="6.84865">
        <ele>429.2</ele>
        <time>2022-09-29T13:02:36Z</time>
      </trkpt>
      <trkpt lat="46.85593" lon="6.84861">
        <ele>429.2</ele>
        <time>2022-09-29T13:02:37Z</time>
      </trkpt>
      <trkpt lat="46.85595" lon="6.84857">
        <ele>429.2</ele>
        <time>2022-09-29T13:02:38Z</time>
      </trkpt>
      <trkpt lat="46.85596" lon="6.84856">
        <ele>429.2</ele>
        <time>2022-09-29T13:02:39Z</time>
      </trkpt>
      <trkpt lat="46.85598" lon="6.84852">
        <ele>429.2</ele>
        <time>2022-09-29T13:02:40Z</time>
      </trkpt>
      <trkpt lat="46.85599" lon="6.84851">
        <ele>429.2</ele>
        <time>2022-09-29T13:02:41Z</time>
      </trkpt>
      <trkpt lat="46.85599" lon="6.84849">
        <ele>429.3</ele>
        <time>2022-09-29T13:02:42Z</time>
      </trkpt>
      <trkpt lat="46.856" lon="6.84849">
        <ele>429.3</ele>
        <time>2022-09-29T13:02:43Z</time>
      </trkpt>
      <trkpt lat="46.856" lon="6.84849">
        <ele>429.3</ele>
        <time>2022-09-29T13:02:44Z</time>
      </trkpt>
      <trkpt lat="46.856" lon="6.84848">
        <ele>429.3</ele>
        <time>2022-09-29T13:02:45Z</time>
      </trkpt>
      <trkpt lat="46.856" lon="6.84849">
        <ele>429.3</ele>
        <time>2022-09-29T13:02:46Z</time>
      </trkpt>
      <trkpt lat="46.85601" lon="6.84847">
        <ele>429.3</ele>
        <time>2022-09-29T13:02:47Z</time>
      </trkpt>
      <trkpt lat="46.85602" lon="6.84846">
        <ele>429.3</ele>
        <time>2022-09-29T13:02:48Z</time>
      </trkpt>
      <trkpt lat="46.85602" lon="6.84845">
        <ele>429.3</ele>
        <time>2022-09-29T13:02:49Z</time>
      </trkpt>
      <trkpt lat="46.85602" lon="6.84843">
        <ele>429.3</ele>
        <time>2022-09-29T13:02:50Z</time>
      </trkpt>
      <trkpt lat="46.85602" lon="6.84841">
        <ele>429.3</ele>
        <time>2022-09-29T13:02:51Z</time>
      </trkpt>
      <trkpt lat="46.85602" lon="6.84841">
        <ele>429.3</ele>
        <time>2022-09-29T13:02:52Z</time>
      </trkpt>
      <trkpt lat="46.85602" lon="6.84841">
        <ele>429.3</ele>
        <time>2022-09-29T13:02:53Z</time>
      </trkpt>
      <trkpt lat="46.85602" lon="6.84841">
        <ele>429.3</ele>
        <time>2022-09-29T13:02:54Z</time>
      </trkpt>
      <trkpt lat="46.85604" lon="6.84841">
        <ele>429.3</ele>
        <time>2022-09-29T13:02:55Z</time>
      </trkpt>
      <trkpt lat="46.85604" lon="6.8484">
        <ele>429.3</ele>
        <time>2022-09-29T13:02:56Z</time>
      </trkpt>
      <trkpt lat="46.85605" lon="6.84838">
        <ele>429.3</ele>
        <time>2022-09-29T13:02:57Z</time>
      </trkpt>
      <trkpt lat="46.85606" lon="6.84838">
        <ele>429.3</ele>
        <time>2022-09-29T13:02:58Z</time>
      </trkpt>
      <trkpt lat="46.85606" lon="6.84838">
        <ele>429.3</ele>
        <time>2022-09-29T13:02:59Z</time>
      </trkpt>
      <trkpt lat="46.85607" lon="6.84838">
        <ele>429.3</ele>
        <time>2022-09-29T13:03:00Z</time>
      </trkpt>
      <trkpt lat="46.85608" lon="6.8484">
        <ele>429.3</ele>
        <time>2022-09-29T13:03:01Z</time>
      </trkpt>
      <trkpt lat="46.85608" lon="6.84841">
        <ele>429.3</ele>
        <time>2022-09-29T13:03:02Z</time>
      </trkpt>
      <trkpt lat="46.85609" lon="6.84842">
        <ele>429.3</ele>
        <time>2022-09-29T13:03:03Z</time>
      </trkpt>
      <trkpt lat="46.85609" lon="6.84843">
        <ele>429.3</ele>
        <time>2022-09-29T13:03:04Z</time>
      </trkpt>
      <trkpt lat="46.85608" lon="6.84844">
        <ele>429.3</ele>
        <time>2022-09-29T13:03:05Z</time>
      </trkpt>
      <trkpt lat="46.85608" lon="6.84844">
        <ele>429.3</ele>
        <time>2022-09-29T13:03:06Z</time>
      </trkpt>
      <trkpt lat="46.85608" lon="6.84845">
        <ele>429.3</ele>
        <time>2022-09-29T13:03:07Z</time>
      </trkpt>
      <trkpt lat="46.85608" lon="6.84845">
        <ele>429.3</ele>
        <time>2022-09-29T13:03:08Z</time>
      </trkpt>
      <trkpt lat="46.85608" lon="6.84845">
        <ele>429.3</ele>
        <time>2022-09-29T13:03:09Z</time>
      </trkpt>
      <trkpt lat="46.85608" lon="6.84845">
        <ele>429.3</ele>
        <time>2022-09-29T13:03:10Z</time>
      </trkpt>
      <trkpt lat="46.85608" lon="6.84845">
        <ele>429.3</ele>
        <time>2022-09-29T13:03:11Z</time>
      </trkpt>
      <trkpt lat="46.85608" lon="6.84844">
        <ele>429.3</ele>
        <time>2022-09-29T13:03:12Z</time>
      </trkpt>
      <trkpt lat="46.85608" lon="6.84843">
        <ele>429.3</ele>
        <time>2022-09-29T13:03:13Z</time>
      </trkpt>
      <trkpt lat="46.8561" lon="6.84842">
        <ele>429.3</ele>
        <time>2022-09-29T13:03:14Z</time>
      </trkpt>
      <trkpt lat="46.8561" lon="6.84841">
        <ele>429.3</ele>
        <time>2022-09-29T13:03:15Z</time>
      </trkpt>
      <trkpt lat="46.85611" lon="6.8484">
        <ele>429.4</ele>
        <time>2022-09-29T13:03:16Z</time>
      </trkpt>
      <trkpt lat="46.85611" lon="6.84839">
        <ele>429.4</ele>
        <time>2022-09-29T13:03:17Z</time>
      </trkpt>
      <trkpt lat="46.85612" lon="6.84837">
        <ele>429.4</ele>
        <time>2022-09-29T13:03:18Z</time>
      </trkpt>
      <trkpt lat="46.85612" lon="6.84835">
        <ele>429.4</ele>
        <time>2022-09-29T13:03:19Z</time>
      </trkpt>
      <trkpt lat="46.85612" lon="6.84833">
        <ele>429.4</ele>
        <time>2022-09-29T13:03:20Z</time>
      </trkpt>
      <trkpt lat="46.85612" lon="6.84831">
        <ele>429.4</ele>
        <time>2022-09-29T13:03:21Z</time>
      </trkpt>
      <trkpt lat="46.85612" lon="6.84828">
        <ele>429.4</ele>
        <time>2022-09-29T13:03:22Z</time>
      </trkpt>
      <trkpt lat="46.85612" lon="6.84826">
        <ele>429.4</ele>
        <time>2022-09-29T13:03:23Z</time>
      </trkpt>
      <trkpt lat="46.85611" lon="6.84825">
        <ele>429.4</ele>
        <time>2022-09-29T13:03:24Z</time>
      </trkpt>
      <trkpt lat="46.85611" lon="6.84822">
        <ele>429.4</ele>
        <time>2022-09-29T13:03:25Z</time>
      </trkpt>
      <trkpt lat="46.8561" lon="6.8482">
        <ele>429.4</ele>
        <time>2022-09-29T13:03:26Z</time>
      </trkpt>
      <trkpt lat="46.8561" lon="6.84819">
        <ele>429.3</ele>
        <time>2022-09-29T13:03:27Z</time>
      </trkpt>
      <trkpt lat="46.8561" lon="6.84818">
        <ele>429.3</ele>
        <time>2022-09-29T13:03:28Z</time>
      </trkpt>
      <trkpt lat="46.8561" lon="6.84816">
        <ele>429.3</ele>
        <time>2022-09-29T13:03:29Z</time>
      </trkpt>
      <trkpt lat="46.8561" lon="6.84814">
        <ele>429.3</ele>
        <time>2022-09-29T13:03:30Z</time>
      </trkpt>
      <trkpt lat="46.85609" lon="6.84812">
        <ele>429.3</ele>
        <time>2022-09-29T13:03:31Z</time>
      </trkpt>
      <trkpt lat="46.85609" lon="6.84811">
        <ele>429.3</ele>
        <time>2022-09-29T13:03:32Z</time>
      </trkpt>
      <trkpt lat="46.85608" lon="6.8481">
        <ele>429.3</ele>
        <time>2022-09-29T13:03:33Z</time>
      </trkpt>
      <trkpt lat="46.85607" lon="6.84809">
        <ele>429.3</ele>
        <time>2022-09-29T13:03:34Z</time>
      </trkpt>
      <trkpt lat="46.85607" lon="6.84808">
        <ele>429.3</ele>
        <time>2022-09-29T13:03:35Z</time>
      </trkpt>
      <trkpt lat="46.85606" lon="6.84806">
        <ele>429.3</ele>
        <time>2022-09-29T13:03:36Z</time>
      </trkpt>
      <trkpt lat="46.85606" lon="6.84805">
        <ele>429.3</ele>
        <time>2022-09-29T13:03:37Z</time>
      </trkpt>
      <trkpt lat="46.85605" lon="6.84804">
        <ele>429.3</ele>
        <time>2022-09-29T13:03:38Z</time>
      </trkpt>
      <trkpt lat="46.85605" lon="6.84802">
        <ele>429.3</ele>
        <time>2022-09-29T13:03:39Z</time>
      </trkpt>
      <trkpt lat="46.85604" lon="6.84799">
        <ele>429.3</ele>
        <time>2022-09-29T13:03:40Z</time>
      </trkpt>
      <trkpt lat="46.85604" lon="6.84797">
        <ele>429.3</ele>
        <time>2022-09-29T13:03:41Z</time>
      </trkpt>
      <trkpt lat="46.85603" lon="6.84796">
        <ele>429.3</ele>
        <time>2022-09-29T13:03:42Z</time>
      </trkpt>
      <trkpt lat="46.85603" lon="6.84795">
        <ele>429.3</ele>
        <time>2022-09-29T13:03:43Z</time>
      </trkpt>
      <trkpt lat="46.85602" lon="6.84794">
        <ele>429.3</ele>
        <time>2022-09-29T13:03:44Z</time>
      </trkpt>
      <trkpt lat="46.85602" lon="6.84792">
        <ele>429.3</ele>
        <time>2022-09-29T13:03:45Z</time>
      </trkpt>
      <trkpt lat="46.85602" lon="6.84788">
        <ele>429.3</ele>
        <time>2022-09-29T13:03:46Z</time>
      </trkpt>
      <trkpt lat="46.85602" lon="6.84787">
        <ele>429.3</ele>
        <time>2022-09-29T13:03:47Z</time>
      </trkpt>
      <trkpt lat="46.85601" lon="6.84785">
        <ele>429.3</ele>
        <time>2022-09-29T13:03:48Z</time>
      </trkpt>
      <trkpt lat="46.85602" lon="6.84783">
        <ele>429.3</ele>
        <time>2022-09-29T13:03:49Z</time>
      </trkpt>
      <trkpt lat="46.85601" lon="6.84781">
        <ele>429.3</ele>
        <time>2022-09-29T13:03:50Z</time>
      </trkpt>
      <trkpt lat="46.85602" lon="6.84779">
        <ele>429.3</ele>
        <time>2022-09-29T13:03:51Z</time>
      </trkpt>
      <trkpt lat="46.85602" lon="6.84777">
        <ele>429.3</ele>
        <time>2022-09-29T13:03:52Z</time>
      </trkpt>
      <trkpt lat="46.85603" lon="6.84775">
        <ele>429.2</ele>
        <time>2022-09-29T13:03:53Z</time>
      </trkpt>
      <trkpt lat="46.85604" lon="6.84773">
        <ele>429.2</ele>
        <time>2022-09-29T13:03:54Z</time>
      </trkpt>
      <trkpt lat="46.85605" lon="6.84772">
        <ele>429.2</ele>
        <time>2022-09-29T13:03:55Z</time>
      </trkpt>
      <trkpt lat="46.85606" lon="6.84771">
        <ele>429.2</ele>
        <time>2022-09-29T13:03:56Z</time>
      </trkpt>
      <trkpt lat="46.85606" lon="6.8477">
        <ele>429.2</ele>
        <time>2022-09-29T13:03:57Z</time>
      </trkpt>
      <trkpt lat="46.85608" lon="6.84768">
        <ele>429.2</ele>
        <time>2022-09-29T13:03:58Z</time>
      </trkpt>
      <trkpt lat="46.85608" lon="6.84766">
        <ele>429.2</ele>
        <time>2022-09-29T13:03:59Z</time>
      </trkpt>
      <trkpt lat="46.85609" lon="6.84765">
        <ele>429.2</ele>
        <time>2022-09-29T13:04:00Z</time>
      </trkpt>
      <trkpt lat="46.8561" lon="6.84764">
        <ele>429.2</ele>
        <time>2022-09-29T13:04:01Z</time>
      </trkpt>
      <trkpt lat="46.85611" lon="6.84763">
        <ele>429.2</ele>
        <time>2022-09-29T13:04:02Z</time>
      </trkpt>
      <trkpt lat="46.85612" lon="6.84762">
        <ele>429.2</ele>
        <time>2022-09-29T13:04:03Z</time>
      </trkpt>
      <trkpt lat="46.85613" lon="6.84761">
        <ele>429.2</ele>
        <time>2022-09-29T13:04:04Z</time>
      </trkpt>
      <trkpt lat="46.85614" lon="6.84758">
        <ele>429.2</ele>
        <time>2022-09-29T13:04:05Z</time>
      </trkpt>
      <trkpt lat="46.85616" lon="6.84757">
        <ele>429.2</ele>
        <time>2022-09-29T13:04:06Z</time>
      </trkpt>
      <trkpt lat="46.85617" lon="6.84756">
        <ele>429.1</ele>
        <time>2022-09-29T13:04:07Z</time>
      </trkpt>
      <trkpt lat="46.85617" lon="6.84754">
        <ele>429.1</ele>
        <time>2022-09-29T13:04:08Z</time>
      </trkpt>
      <trkpt lat="46.85619" lon="6.84752">
        <ele>429.1</ele>
        <time>2022-09-29T13:04:09Z</time>
      </trkpt>
      <trkpt lat="46.85619" lon="6.84751">
        <ele>429.1</ele>
        <time>2022-09-29T13:04:10Z</time>
      </trkpt>
      <trkpt lat="46.8562" lon="6.84751">
        <ele>429.1</ele>
        <time>2022-09-29T13:04:11Z</time>
      </trkpt>
      <trkpt lat="46.85621" lon="6.84749">
        <ele>429.1</ele>
        <time>2022-09-29T13:04:12Z</time>
      </trkpt>
      <trkpt lat="46.85623" lon="6.84748">
        <ele>429.1</ele>
        <time>2022-09-29T13:04:13Z</time>
      </trkpt>
      <trkpt lat="46.85625" lon="6.84746">
        <ele>429.1</ele>
        <time>2022-09-29T13:04:14Z</time>
      </trkpt>
      <trkpt lat="46.85625" lon="6.84745">
        <ele>429.1</ele>
        <time>2022-09-29T13:04:15Z</time>
      </trkpt>
      <trkpt lat="46.85625" lon="6.84744">
        <ele>429.1</ele>
        <time>2022-09-29T13:04:16Z</time>
      </trkpt>
      <trkpt lat="46.85626" lon="6.84743">
        <ele>429.1</ele>
        <time>2022-09-29T13:04:17Z</time>
      </trkpt>
      <trkpt lat="46.85627" lon="6.84741">
        <ele>429.1</ele>
        <time>2022-09-29T13:04:18Z</time>
      </trkpt>
      <trkpt lat="46.85628" lon="6.8474">
        <ele>429.1</ele>
        <time>2022-09-29T13:04:19Z</time>
      </trkpt>
      <trkpt lat="46.85628" lon="6.84739">
        <ele>429.1</ele>
        <time>2022-09-29T13:04:20Z</time>
      </trkpt>
      <trkpt lat="46.85629" lon="6.84738">
        <ele>429.1</ele>
        <time>2022-09-29T13:04:21Z</time>
      </trkpt>
      <trkpt lat="46.8563" lon="6.84737">
        <ele>429.1</ele>
        <time>2022-09-29T13:04:22Z</time>
      </trkpt>
      <trkpt lat="46.8563" lon="6.84736">
        <ele>429.1</ele>
        <time>2022-09-29T13:04:23Z</time>
      </trkpt>
      <trkpt lat="46.85629" lon="6.84736">
        <ele>429.1</ele>
        <time>2022-09-29T13:04:24Z</time>
      </trkpt>
      <trkpt lat="46.85629" lon="6.84736">
        <ele>429.1</ele>
        <time>2022-09-29T13:04:25Z</time>
      </trkpt>
      <trkpt lat="46.85629" lon="6.84736">
        <ele>429.1</ele>
        <time>2022-09-29T13:04:26Z</time>
      </trkpt>
      <trkpt lat="46.85629" lon="6.84737">
        <ele>429.1</ele>
        <time>2022-09-29T13:04:27Z</time>
      </trkpt>
      <trkpt lat="46.85629" lon="6.84737">
        <ele>429.1</ele>
        <time>2022-09-29T13:04:28Z</time>
      </trkpt>
      <trkpt lat="46.85629" lon="6.84737">
        <ele>429.1</ele>
        <time>2022-09-29T13:04:29Z</time>
      </trkpt>
      <trkpt lat="46.85628" lon="6.84737">
        <ele>429.1</ele>
        <time>2022-09-29T13:04:30Z</time>
      </trkpt>
      <trkpt lat="46.85628" lon="6.84737">
        <ele>429.1</ele>
        <time>2022-09-29T13:04:31Z</time>
      </trkpt>
      <trkpt lat="46.85628" lon="6.84737">
        <ele>429.1</ele>
        <time>2022-09-29T13:04:32Z</time>
      </trkpt>
      <trkpt lat="46.85628" lon="6.84737">
        <ele>429.1</ele>
        <time>2022-09-29T13:04:33Z</time>
      </trkpt>
      <trkpt lat="46.85628" lon="6.84737">
        <ele>429.1</ele>
        <time>2022-09-29T13:09:14Z</time>
      </trkpt>
      <trkpt lat="46.85628" lon="6.84737">
        <ele>429.1</ele>
        <time>2022-09-29T13:09:15Z</time>
      </trkpt>
      <trkpt lat="46.85627" lon="6.84738">
        <ele>429.1</ele>
        <time>2022-09-29T13:09:16Z</time>
      </trkpt>
      <trkpt lat="46.85627" lon="6.84738">
        <ele>429.1</ele>
        <time>2022-09-29T13:09:17Z</time>
      </trkpt>
      <trkpt lat="46.85627" lon="6.84738">
        <ele>429.1</ele>
        <time>2022-09-29T13:09:18Z</time>
      </trkpt>
      <trkpt lat="46.85627" lon="6.84738">
        <ele>429.1</ele>
        <time>2022-09-29T13:09:19Z</time>
      </trkpt>
      <trkpt lat="46.85627" lon="6.84738">
        <ele>429.1</ele>
        <time>2022-09-29T13:09:20Z</time>
      </trkpt>
      <trkpt lat="46.85627" lon="6.84738">
        <ele>429.1</ele>
        <time>2022-09-29T13:09:21Z</time>
      </trkpt>
      <trkpt lat="46.85626" lon="6.84738">
        <ele>429.1</ele>
        <time>2022-09-29T13:09:22Z</time>
      </trkpt>
      <trkpt lat="46.85626" lon="6.84738">
        <ele>429.1</ele>
        <time>2022-09-29T13:09:23Z</time>
      </trkpt>
      <trkpt lat="46.85626" lon="6.84738">
        <ele>429.1</ele>
        <time>2022-09-29T13:09:48Z</time>
      </trkpt>
      <trkpt lat="46.85626" lon="6.84739">
        <ele>429.1</ele>
        <time>2022-09-29T13:09:49Z</time>
      </trkpt>
      <trkpt lat="46.85626" lon="6.84739">
        <ele>429.1</ele>
        <time>2022-09-29T13:09:50Z</time>
      </trkpt>
      <trkpt lat="46.85626" lon="6.84739">
        <ele>429.1</ele>
        <time>2022-09-29T13:09:51Z</time>
      </trkpt>
      <trkpt lat="46.85625" lon="6.84739">
        <ele>429.1</ele>
        <time>2022-09-29T13:09:52Z</time>
      </trkpt>
      <trkpt lat="46.85625" lon="6.84739">
        <ele>429.1</ele>
        <time>2022-09-29T13:09:53Z</time>
      </trkpt>
      <trkpt lat="46.85625" lon="6.84739">
        <ele>429.1</ele>
        <time>2022-09-29T13:09:54Z</time>
      </trkpt>
      <trkpt lat="46.85625" lon="6.84739">
        <ele>429.1</ele>
        <time>2022-09-29T13:09:55Z</time>
      </trkpt>
      <trkpt lat="46.85625" lon="6.84739">
        <ele>429.1</ele>
        <time>2022-09-29T13:09:56Z</time>
      </trkpt>
      <trkpt lat="46.85623" lon="6.8474">
        <ele>429.1</ele>
        <time>2022-09-29T13:09:57Z</time>
      </trkpt>
      <trkpt lat="46.85622" lon="6.84739">
        <ele>429.1</ele>
        <time>2022-09-29T13:09:58Z</time>
      </trkpt>
      <trkpt lat="46.85623" lon="6.84739">
        <ele>429.1</ele>
        <time>2022-09-29T13:09:59Z</time>
      </trkpt>
      <trkpt lat="46.85623" lon="6.84739">
        <ele>429.1</ele>
        <time>2022-09-29T13:10:00Z</time>
      </trkpt>
      <trkpt lat="46.85623" lon="6.84739">
        <ele>429.1</ele>
        <time>2022-09-29T13:10:01Z</time>
      </trkpt>
      <trkpt lat="46.85625" lon="6.84738">
        <ele>429.1</ele>
        <time>2022-09-29T13:10:02Z</time>
      </trkpt>
      <trkpt lat="46.85626" lon="6.84737">
        <ele>429.1</ele>
        <time>2022-09-29T13:10:03Z</time>
      </trkpt>
      <trkpt lat="46.85627" lon="6.84736">
        <ele>429.1</ele>
        <time>2022-09-29T13:10:04Z</time>
      </trkpt>
      <trkpt lat="46.85628" lon="6.84736">
        <ele>429.1</ele>
        <time>2022-09-29T13:10:05Z</time>
      </trkpt>
      <trkpt lat="46.85628" lon="6.84736">
        <ele>429.1</ele>
        <time>2022-09-29T13:10:06Z</time>
      </trkpt>
      <trkpt lat="46.85629" lon="6.84736">
        <ele>429.1</ele>
        <time>2022-09-29T13:10:07Z</time>
      </trkpt>
      <trkpt lat="46.85629" lon="6.84736">
        <ele>429.1</ele>
        <time>2022-09-29T13:10:08Z</time>
      </trkpt>
      <trkpt lat="46.85629" lon="6.84736">
        <ele>429.1</ele>
        <time>2022-09-29T13:10:49Z</time>
      </trkpt>
      <trkpt lat="46.85629" lon="6.84736">
        <ele>429.1</ele>
        <time>2022-09-29T13:10:50Z</time>
      </trkpt>
      <trkpt lat="46.85629" lon="6.84736">
        <ele>429.1</ele>
        <time>2022-09-29T13:10:51Z</time>
      </trkpt>
      <trkpt lat="46.8563" lon="6.84736">
        <ele>429.1</ele>
        <time>2022-09-29T13:10:52Z</time>
      </trkpt>
      <trkpt lat="46.8563" lon="6.84736">
        <ele>429.1</ele>
        <time>2022-09-29T13:10:53Z</time>
      </trkpt>
      <trkpt lat="46.8563" lon="6.84736">
        <ele>429.1</ele>
        <time>2022-09-29T13:10:54Z</time>
      </trkpt>
      <trkpt lat="46.8563" lon="6.84736">
        <ele>429.1</ele>
        <time>2022-09-29T13:10:55Z</time>
      </trkpt>
      <trkpt lat="46.8563" lon="6.84736">
        <ele>429.1</ele>
        <time>2022-09-29T13:10:56Z</time>
      </trkpt>
      <trkpt lat="46.85631" lon="6.84736">
        <ele>429.1</ele>
        <time>2022-09-29T13:10:57Z</time>
      </trkpt>
      <trkpt lat="46.85631" lon="6.84736">
        <ele>429.1</ele>
        <time>2022-09-29T13:10:58Z</time>
      </trkpt>
      <trkpt lat="46.85631" lon="6.84736">
        <ele>429.1</ele>
        <time>2022-09-29T13:11:59Z</time>
      </trkpt>
      <trkpt lat="46.85631" lon="6.84736">
        <ele>429.1</ele>
        <time>2022-09-29T13:12:00Z</time>
      </trkpt>
      <trkpt lat="46.85631" lon="6.84736">
        <ele>429.1</ele>
        <time>2022-09-29T13:12:01Z</time>
      </trkpt>
      <trkpt lat="46.85632" lon="6.84736">
        <ele>429.1</ele>
        <time>2022-09-29T13:12:02Z</time>
      </trkpt>
      <trkpt lat="46.85632" lon="6.84736">
        <ele>429.1</ele>
        <time>2022-09-29T13:12:03Z</time>
      </trkpt>
      <trkpt lat="46.85632" lon="6.84736">
        <ele>429.1</ele>
        <time>2022-09-29T13:12:04Z</time>
      </trkpt>
      <trkpt lat="46.85632" lon="6.84736">
        <ele>429.1</ele>
        <time>2022-09-29T13:12:05Z</time>
      </trkpt>
      <trkpt lat="46.85632" lon="6.84736">
        <ele>429.1</ele>
        <time>2022-09-29T13:12:06Z</time>
      </trkpt>
      <trkpt lat="46.85633" lon="6.84736">
        <ele>429.1</ele>
        <time>2022-09-29T13:12:07Z</time>
      </trkpt>
      <trkpt lat="46.85632" lon="6.84736">
        <ele>429.1</ele>
        <time>2022-09-29T13:12:08Z</time>
      </trkpt>
      <trkpt lat="46.85631" lon="6.84736">
        <ele>429.1</ele>
        <time>2022-09-29T13:12:09Z</time>
      </trkpt>
      <trkpt lat="46.85631" lon="6.84736">
        <ele>429.1</ele>
        <time>2022-09-29T13:15:40Z</time>
      </trkpt>
      <trkpt lat="46.8563" lon="6.84735">
        <ele>429.1</ele>
        <time>2022-09-29T13:15:41Z</time>
      </trkpt>
      <trkpt lat="46.8563" lon="6.84735">
        <ele>429.1</ele>
        <time>2022-09-29T13:15:42Z</time>
      </trkpt>
      <trkpt lat="46.85629" lon="6.84735">
        <ele>429.1</ele>
        <time>2022-09-29T13:15:43Z</time>
      </trkpt>
      <trkpt lat="46.85628" lon="6.84735">
        <ele>429.1</ele>
        <time>2022-09-29T13:15:44Z</time>
      </trkpt>
      <trkpt lat="46.85628" lon="6.84735">
        <ele>429.1</ele>
        <time>2022-09-29T13:15:45Z</time>
      </trkpt>
      <trkpt lat="46.85627" lon="6.84735">
        <ele>429.1</ele>
        <time>2022-09-29T13:15:46Z</time>
      </trkpt>
      <trkpt lat="46.85627" lon="6.84734">
        <ele>429.1</ele>
        <time>2022-09-29T13:15:47Z</time>
      </trkpt>
      <trkpt lat="46.85626" lon="6.84734">
        <ele>429.1</ele>
        <time>2022-09-29T13:15:48Z</time>
      </trkpt>
      <trkpt lat="46.85626" lon="6.84734">
        <ele>429.1</ele>
        <time>2022-09-29T13:15:49Z</time>
      </trkpt>
      <trkpt lat="46.85625" lon="6.84734">
        <ele>429.1</ele>
        <time>2022-09-29T13:15:50Z</time>
      </trkpt>
      <trkpt lat="46.85626" lon="6.84736">
        <ele>429.1</ele>
        <time>2022-09-29T13:15:51Z</time>
      </trkpt>
      <trkpt lat="46.85626" lon="6.84736">
        <ele>429.1</ele>
        <time>2022-09-29T13:15:52Z</time>
      </trkpt>
      <trkpt lat="46.85626" lon="6.84736">
        <ele>429.1</ele>
        <time>2022-09-29T13:15:53Z</time>
      </trkpt>
      <trkpt lat="46.85626" lon="6.84736">
        <ele>429.1</ele>
        <time>2022-09-29T13:15:54Z</time>
      </trkpt>
      <trkpt lat="46.85627" lon="6.84734">
        <ele>429.1</ele>
        <time>2022-09-29T13:15:55Z</time>
      </trkpt>
      <trkpt lat="46.85628" lon="6.84735">
        <ele>429.1</ele>
        <time>2022-09-29T13:15:56Z</time>
      </trkpt>
      <trkpt lat="46.85628" lon="6.84734">
        <ele>429.1</ele>
        <time>2022-09-29T13:15:57Z</time>
      </trkpt>
      <trkpt lat="46.85628" lon="6.84735">
        <ele>429.1</ele>
        <time>2022-09-29T13:15:58Z</time>
      </trkpt>
      <trkpt lat="46.85629" lon="6.84736">
        <ele>429.1</ele>
        <time>2022-09-29T13:15:59Z</time>
      </trkpt>
      <trkpt lat="46.85629" lon="6.84737">
        <ele>429.1</ele>
        <time>2022-09-29T13:16:23Z</time>
      </trkpt>
      <trkpt lat="46.8563" lon="6.84738">
        <ele>429.1</ele>
        <time>2022-09-29T13:16:24Z</time>
      </trkpt>
      <trkpt lat="46.8563" lon="6.84739">
        <ele>429.1</ele>
        <time>2022-09-29T13:16:25Z</time>
      </trkpt>
      <trkpt lat="46.85631" lon="6.8474">
        <ele>429.1</ele>
        <time>2022-09-29T13:16:26Z</time>
      </trkpt>
      <trkpt lat="46.8563" lon="6.84741">
        <ele>429.1</ele>
        <time>2022-09-29T13:16:27Z</time>
      </trkpt>
      <trkpt lat="46.85628" lon="6.8474">
        <ele>429.1</ele>
        <time>2022-09-29T13:16:28Z</time>
      </trkpt>
      <trkpt lat="46.85626" lon="6.84742">
        <ele>429.1</ele>
        <time>2022-09-29T13:16:29Z</time>
      </trkpt>
      <trkpt lat="46.85626" lon="6.84743">
        <ele>429.1</ele>
        <time>2022-09-29T13:16:30Z</time>
      </trkpt>
      <trkpt lat="46.85625" lon="6.84743">
        <ele>429.1</ele>
        <time>2022-09-29T13:16:31Z</time>
      </trkpt>
      <trkpt lat="46.85624" lon="6.84744">
        <ele>429.1</ele>
        <time>2022-09-29T13:16:32Z</time>
      </trkpt>
      <trkpt lat="46.85623" lon="6.84745">
        <ele>429.1</ele>
        <time>2022-09-29T13:16:33Z</time>
      </trkpt>
      <trkpt lat="46.85623" lon="6.84746">
        <ele>429.1</ele>
        <time>2022-09-29T13:16:34Z</time>
      </trkpt>
      <trkpt lat="46.85621" lon="6.84748">
        <ele>429.1</ele>
        <time>2022-09-29T13:16:35Z</time>
      </trkpt>
      <trkpt lat="46.8562" lon="6.8475">
        <ele>429.1</ele>
        <time>2022-09-29T13:16:36Z</time>
      </trkpt>
      <trkpt lat="46.85619" lon="6.84751">
        <ele>429.1</ele>
        <time>2022-09-29T13:16:37Z</time>
      </trkpt>
      <trkpt lat="46.85619" lon="6.84751">
        <ele>429.1</ele>
        <time>2022-09-29T13:16:38Z</time>
      </trkpt>
      <trkpt lat="46.85617" lon="6.84753">
        <ele>429.1</ele>
        <time>2022-09-29T13:16:39Z</time>
      </trkpt>
      <trkpt lat="46.85616" lon="6.84753">
        <ele>429.1</ele>
        <time>2022-09-29T13:16:40Z</time>
      </trkpt>
      <trkpt lat="46.85616" lon="6.84754">
        <ele>429.1</ele>
        <time>2022-09-29T13:16:41Z</time>
      </trkpt>
      <trkpt lat="46.85615" lon="6.84755">
        <ele>429.2</ele>
        <time>2022-09-29T13:16:42Z</time>
      </trkpt>
      <trkpt lat="46.85614" lon="6.84756">
        <ele>429.2</ele>
        <time>2022-09-29T13:16:43Z</time>
      </trkpt>
      <trkpt lat="46.85614" lon="6.84758">
        <ele>429.2</ele>
        <time>2022-09-29T13:16:44Z</time>
      </trkpt>
      <trkpt lat="46.85613" lon="6.84759">
        <ele>429.2</ele>
        <time>2022-09-29T13:16:45Z</time>
      </trkpt>
      <trkpt lat="46.85612" lon="6.8476">
        <ele>429.2</ele>
        <time>2022-09-29T13:16:46Z</time>
      </trkpt>
      <trkpt lat="46.85611" lon="6.84762">
        <ele>429.2</ele>
        <time>2022-09-29T13:16:47Z</time>
      </trkpt>
      <trkpt lat="46.8561" lon="6.84763">
        <ele>429.2</ele>
        <time>2022-09-29T13:16:48Z</time>
      </trkpt>
      <trkpt lat="46.85609" lon="6.84764">
        <ele>429.2</ele>
        <time>2022-09-29T13:16:49Z</time>
      </trkpt>
      <trkpt lat="46.85608" lon="6.84765">
        <ele>429.2</ele>
        <time>2022-09-29T13:16:50Z</time>
      </trkpt>
      <trkpt lat="46.85608" lon="6.84766">
        <ele>429.2</ele>
        <time>2022-09-29T13:16:51Z</time>
      </trkpt>
      <trkpt lat="46.85606" lon="6.84768">
        <ele>429.2</ele>
        <time>2022-09-29T13:16:52Z</time>
      </trkpt>
      <trkpt lat="46.85606" lon="6.84769">
        <ele>429.2</ele>
        <time>2022-09-29T13:16:53Z</time>
      </trkpt>
      <trkpt lat="46.85605" lon="6.8477">
        <ele>429.2</ele>
        <time>2022-09-29T13:16:54Z</time>
      </trkpt>
      <trkpt lat="46.85604" lon="6.84771">
        <ele>429.2</ele>
        <time>2022-09-29T13:16:55Z</time>
      </trkpt>
      <trkpt lat="46.85604" lon="6.84773">
        <ele>429.2</ele>
        <time>2022-09-29T13:16:56Z</time>
      </trkpt>
      <trkpt lat="46.85603" lon="6.84774">
        <ele>429.2</ele>
        <time>2022-09-29T13:16:57Z</time>
      </trkpt>
      <trkpt lat="46.85603" lon="6.84776">
        <ele>429.3</ele>
        <time>2022-09-29T13:16:58Z</time>
      </trkpt>
      <trkpt lat="46.85603" lon="6.84778">
        <ele>429.3</ele>
        <time>2022-09-29T13:16:59Z</time>
      </trkpt>
      <trkpt lat="46.85603" lon="6.84781">
        <ele>429.3</ele>
        <time>2022-09-29T13:17:00Z</time>
      </trkpt>
      <trkpt lat="46.85603" lon="6.84782">
        <ele>429.3</ele>
        <time>2022-09-29T13:17:01Z</time>
      </trkpt>
      <trkpt lat="46.85604" lon="6.84783">
        <ele>429.3</ele>
        <time>2022-09-29T13:17:02Z</time>
      </trkpt>
      <trkpt lat="46.85604" lon="6.84786">
        <ele>429.3</ele>
        <time>2022-09-29T13:17:03Z</time>
      </trkpt>
      <trkpt lat="46.85605" lon="6.84787">
        <ele>429.3</ele>
        <time>2022-09-29T13:17:04Z</time>
      </trkpt>
      <trkpt lat="46.85605" lon="6.8479">
        <ele>429.3</ele>
        <time>2022-09-29T13:17:05Z</time>
      </trkpt>
      <trkpt lat="46.85605" lon="6.84792">
        <ele>429.3</ele>
        <time>2022-09-29T13:17:06Z</time>
      </trkpt>
      <trkpt lat="46.85606" lon="6.84794">
        <ele>429.3</ele>
        <time>2022-09-29T13:17:07Z</time>
      </trkpt>
      <trkpt lat="46.85606" lon="6.84796">
        <ele>429.3</ele>
        <time>2022-09-29T13:17:08Z</time>
      </trkpt>
      <trkpt lat="46.85607" lon="6.84797">
        <ele>429.3</ele>
        <time>2022-09-29T13:17:09Z</time>
      </trkpt>
      <trkpt lat="46.85608" lon="6.84799">
        <ele>429.3</ele>
        <time>2022-09-29T13:17:10Z</time>
      </trkpt>
      <trkpt lat="46.85608" lon="6.84801">
        <ele>429.3</ele>
        <time>2022-09-29T13:17:11Z</time>
      </trkpt>
      <trkpt lat="46.85608" lon="6.84803">
        <ele>429.3</ele>
        <time>2022-09-29T13:17:12Z</time>
      </trkpt>
      <trkpt lat="46.85609" lon="6.84805">
        <ele>429.3</ele>
        <time>2022-09-29T13:17:13Z</time>
      </trkpt>
      <trkpt lat="46.85609" lon="6.84806">
        <ele>429.3</ele>
        <time>2022-09-29T13:17:14Z</time>
      </trkpt>
      <trkpt lat="46.8561" lon="6.84807">
        <ele>429.3</ele>
        <time>2022-09-29T13:17:15Z</time>
      </trkpt>
      <trkpt lat="46.8561" lon="6.84809">
        <ele>429.3</ele>
        <time>2022-09-29T13:17:16Z</time>
      </trkpt>
      <trkpt lat="46.85611" lon="6.8481">
        <ele>429.3</ele>
        <time>2022-09-29T13:17:17Z</time>
      </trkpt>
      <trkpt lat="46.85612" lon="6.84813">
        <ele>429.3</ele>
        <time>2022-09-29T13:17:18Z</time>
      </trkpt>
      <trkpt lat="46.85612" lon="6.84814">
        <ele>429.3</ele>
        <time>2022-09-29T13:17:19Z</time>
      </trkpt>
      <trkpt lat="46.85613" lon="6.84815">
        <ele>429.3</ele>
        <time>2022-09-29T13:17:20Z</time>
      </trkpt>
      <trkpt lat="46.85613" lon="6.84818">
        <ele>429.4</ele>
        <time>2022-09-29T13:17:21Z</time>
      </trkpt>
      <trkpt lat="46.85614" lon="6.84819">
        <ele>429.4</ele>
        <time>2022-09-29T13:17:22Z</time>
      </trkpt>
      <trkpt lat="46.85614" lon="6.8482">
        <ele>429.4</ele>
        <time>2022-09-29T13:17:23Z</time>
      </trkpt>
      <trkpt lat="46.85615" lon="6.84823">
        <ele>429.4</ele>
        <time>2022-09-29T13:17:24Z</time>
      </trkpt>
      <trkpt lat="46.85616" lon="6.84824">
        <ele>429.4</ele>
        <time>2022-09-29T13:17:25Z</time>
      </trkpt>
      <trkpt lat="46.85616" lon="6.84825">
        <ele>429.4</ele>
        <time>2022-09-29T13:17:26Z</time>
      </trkpt>
      <trkpt lat="46.85617" lon="6.84828">
        <ele>429.4</ele>
        <time>2022-09-29T13:17:27Z</time>
      </trkpt>
      <trkpt lat="46.85618" lon="6.84829">
        <ele>429.4</ele>
        <time>2022-09-29T13:17:28Z</time>
      </trkpt>
      <trkpt lat="46.85618" lon="6.8483">
        <ele>429.3</ele>
        <time>2022-09-29T13:17:29Z</time>
      </trkpt>
      <trkpt lat="46.85619" lon="6.84832">
        <ele>429.3</ele>
        <time>2022-09-29T13:17:30Z</time>
      </trkpt>
      <trkpt lat="46.85619" lon="6.84834">
        <ele>429.2</ele>
        <time>2022-09-29T13:17:31Z</time>
      </trkpt>
      <trkpt lat="46.8562" lon="6.84836">
        <ele>429.2</ele>
        <time>2022-09-29T13:17:32Z</time>
      </trkpt>
      <trkpt lat="46.85621" lon="6.84838">
        <ele>429.1</ele>
        <time>2022-09-29T13:17:33Z</time>
      </trkpt>
      <trkpt lat="46.85621" lon="6.84841">
        <ele>429.1</ele>
        <time>2022-09-29T13:17:34Z</time>
      </trkpt>
      <trkpt lat="46.85621" lon="6.84842">
        <ele>429</ele>
        <time>2022-09-29T13:17:35Z</time>
      </trkpt>
      <trkpt lat="46.85622" lon="6.84844">
        <ele>429</ele>
        <time>2022-09-29T13:17:36Z</time>
      </trkpt>
      <trkpt lat="46.85622" lon="6.84846">
        <ele>428.9</ele>
        <time>2022-09-29T13:17:37Z</time>
      </trkpt>
      <trkpt lat="46.85623" lon="6.84848">
        <ele>428.9</ele>
        <time>2022-09-29T13:17:38Z</time>
      </trkpt>
      <trkpt lat="46.85622" lon="6.8485">
        <ele>428.8</ele>
        <time>2022-09-29T13:17:39Z</time>
      </trkpt>
      <trkpt lat="46.85623" lon="6.84851">
        <ele>428.8</ele>
        <time>2022-09-29T13:17:40Z</time>
      </trkpt>
      <trkpt lat="46.85623" lon="6.84853">
        <ele>428.8</ele>
        <time>2022-09-29T13:17:41Z</time>
      </trkpt>
      <trkpt lat="46.85624" lon="6.84855">
        <ele>428.7</ele>
        <time>2022-09-29T13:17:42Z</time>
      </trkpt>
      <trkpt lat="46.85625" lon="6.84855">
        <ele>428.7</ele>
        <time>2022-09-29T13:17:43Z</time>
      </trkpt>
      <trkpt lat="46.85625" lon="6.84856">
        <ele>428.7</ele>
        <time>2022-09-29T13:17:44Z</time>
      </trkpt>
      <trkpt lat="46.85625" lon="6.84858">
        <ele>428.6</ele>
        <time>2022-09-29T13:17:45Z</time>
      </trkpt>
      <trkpt lat="46.85625" lon="6.84858">
        <ele>428.6</ele>
        <time>2022-09-29T13:17:46Z</time>
      </trkpt>
      <trkpt lat="46.85625" lon="6.84859">
        <ele>428.6</ele>
        <time>2022-09-29T13:17:47Z</time>
      </trkpt>
      <trkpt lat="46.85625" lon="6.84859">
        <ele>428.6</ele>
        <time>2022-09-29T13:17:48Z</time>
      </trkpt>
      <trkpt lat="46.85626" lon="6.8486">
        <ele>428.6</ele>
        <time>2022-09-29T13:17:49Z</time>
      </trkpt>
      <trkpt lat="46.85626" lon="6.8486">
        <ele>428.6</ele>
        <time>2022-09-29T13:17:50Z</time>
      </trkpt>
      <trkpt lat="46.85626" lon="6.84861">
        <ele>428.5</ele>
        <time>2022-09-29T13:17:51Z</time>
      </trkpt>
      <trkpt lat="46.85626" lon="6.84861">
        <ele>428.5</ele>
        <time>2022-09-29T13:17:52Z</time>
      </trkpt>
      <trkpt lat="46.85626" lon="6.84862">
        <ele>428.5</ele>
        <time>2022-09-29T13:17:53Z</time>
      </trkpt>
      <trkpt lat="46.85626" lon="6.84862">
        <ele>428.5</ele>
        <time>2022-09-29T13:17:54Z</time>
      </trkpt>
      <trkpt lat="46.85626" lon="6.84863">
        <ele>428.5</ele>
        <time>2022-09-29T13:17:58Z</time>
      </trkpt>
      <trkpt lat="46.85626" lon="6.84863">
        <ele>428.5</ele>
        <time>2022-09-29T13:17:59Z</time>
      </trkpt>
      <trkpt lat="46.85626" lon="6.84863">
        <ele>428.5</ele>
        <time>2022-09-29T13:18:00Z</time>
      </trkpt>
      <trkpt lat="46.85627" lon="6.84864">
        <ele>428.4</ele>
        <time>2022-09-29T13:18:01Z</time>
      </trkpt>
      <trkpt lat="46.85627" lon="6.84865">
        <ele>428.4</ele>
        <time>2022-09-29T13:18:02Z</time>
      </trkpt>
      <trkpt lat="46.85628" lon="6.84867">
        <ele>428.4</ele>
        <time>2022-09-29T13:18:03Z</time>
      </trkpt>
      <trkpt lat="46.8563" lon="6.8487">
        <ele>428.2</ele>
        <time>2022-09-29T13:18:04Z</time>
      </trkpt>
      <trkpt lat="46.85631" lon="6.84871">
        <ele>428.2</ele>
        <time>2022-09-29T13:18:05Z</time>
      </trkpt>
      <trkpt lat="46.85631" lon="6.84872">
        <ele>428.2</ele>
        <time>2022-09-29T13:18:06Z</time>
      </trkpt>
      <trkpt lat="46.85632" lon="6.84874">
        <ele>428.1</ele>
        <time>2022-09-29T13:18:08Z</time>
      </trkpt>
      <trkpt lat="46.85632" lon="6.84875">
        <ele>428.1</ele>
        <time>2022-09-29T13:18:09Z</time>
      </trkpt>
      <trkpt lat="46.85631" lon="6.84874">
        <ele>428.1</ele>
        <time>2022-09-29T13:18:10Z</time>
      </trkpt>
      <trkpt lat="46.85631" lon="6.84875">
        <ele>428</ele>
        <time>2022-09-29T13:18:11Z</time>
      </trkpt>
      <trkpt lat="46.85631" lon="6.84876">
        <ele>428</ele>
        <time>2022-09-29T13:18:12Z</time>
      </trkpt>
      <trkpt lat="46.85631" lon="6.84877">
        <ele>428</ele>
        <time>2022-09-29T13:18:13Z</time>
      </trkpt>
      <trkpt lat="46.85631" lon="6.84879">
        <ele>427.9</ele>
        <time>2022-09-29T13:18:14Z</time>
      </trkpt>
      <trkpt lat="46.85632" lon="6.8488">
        <ele>427.9</ele>
        <time>2022-09-29T13:18:15Z</time>
      </trkpt>
      <trkpt lat="46.85632" lon="6.84882">
        <ele>427.8</ele>
        <time>2022-09-29T13:18:16Z</time>
      </trkpt>
      <trkpt lat="46.85632" lon="6.84883">
        <ele>427.8</ele>
        <time>2022-09-29T13:18:17Z</time>
      </trkpt>
      <trkpt lat="46.85633" lon="6.84885">
        <ele>427.7</ele>
        <time>2022-09-29T13:18:18Z</time>
      </trkpt>
      <trkpt lat="46.85634" lon="6.84886">
        <ele>427.7</ele>
        <time>2022-09-29T13:18:19Z</time>
      </trkpt>
      <trkpt lat="46.85634" lon="6.84887">
        <ele>427.6</ele>
        <time>2022-09-29T13:18:20Z</time>
      </trkpt>
      <trkpt lat="46.85634" lon="6.84887">
        <ele>427.6</ele>
        <time>2022-09-29T13:18:21Z</time>
      </trkpt>
      <trkpt lat="46.85634" lon="6.84888">
        <ele>427.6</ele>
        <time>2022-09-29T13:18:22Z</time>
      </trkpt>
      <trkpt lat="46.85633" lon="6.84889">
        <ele>427.6</ele>
        <time>2022-09-29T13:18:23Z</time>
      </trkpt>
      <trkpt lat="46.85632" lon="6.84889">
        <ele>427.5</ele>
        <time>2022-09-29T13:18:24Z</time>
      </trkpt>
      <trkpt lat="46.85633" lon="6.84888">
        <ele>427.5</ele>
        <time>2022-09-29T13:18:25Z</time>
      </trkpt>
      <trkpt lat="46.85633" lon="6.84888">
        <ele>427.5</ele>
        <time>2022-09-29T13:18:26Z</time>
      </trkpt>
      <trkpt lat="46.85633" lon="6.84889">
        <ele>427.5</ele>
        <time>2022-09-29T13:18:27Z</time>
      </trkpt>
      <trkpt lat="46.85633" lon="6.84888">
        <ele>427.5</ele>
        <time>2022-09-29T13:18:28Z</time>
      </trkpt>
      <trkpt lat="46.85634" lon="6.84888">
        <ele>427.5</ele>
        <time>2022-09-29T13:18:29Z</time>
      </trkpt>
      <trkpt lat="46.85633" lon="6.84888">
        <ele>427.5</ele>
        <time>2022-09-29T13:18:30Z</time>
      </trkpt>
      <trkpt lat="46.85633" lon="6.84889">
        <ele>427.4</ele>
        <time>2022-09-29T13:18:31Z</time>
      </trkpt>
      <trkpt lat="46.85633" lon="6.84889">
        <ele>427.4</ele>
        <time>2022-09-29T13:18:32Z</time>
      </trkpt>
      <trkpt lat="46.85617" lon="6.8482">
        <ele>429.5</ele>
        <time>2022-09-30T08:56:10Z</time>
      </trkpt>
      <trkpt lat="46.85615" lon="6.84822">
        <ele>429.4</ele>
        <time>2022-09-30T08:56:11Z</time>
      </trkpt>
      <trkpt lat="46.85614" lon="6.84824">
        <ele>429.4</ele>
        <time>2022-09-30T08:56:12Z</time>
      </trkpt>
      <trkpt lat="46.85612" lon="6.84826">
        <ele>429.4</ele>
        <time>2022-09-30T08:56:13Z</time>
      </trkpt>
      <trkpt lat="46.85611" lon="6.84828">
        <ele>429.4</ele>
        <time>2022-09-30T08:56:14Z</time>
      </trkpt>
      <trkpt lat="46.8561" lon="6.8483">
        <ele>429.4</ele>
        <time>2022-09-30T08:56:15Z</time>
      </trkpt>
      <trkpt lat="46.85608" lon="6.84832">
        <ele>429.3</ele>
        <time>2022-09-30T08:56:16Z</time>
      </trkpt>
      <trkpt lat="46.85607" lon="6.84834">
        <ele>429.3</ele>
        <time>2022-09-30T08:56:17Z</time>
      </trkpt>
      <trkpt lat="46.85605" lon="6.84836">
        <ele>429.3</ele>
        <time>2022-09-30T08:56:18Z</time>
      </trkpt>
      <trkpt lat="46.85601" lon="6.84839">
        <ele>429.3</ele>
        <time>2022-09-30T08:56:19Z</time>
      </trkpt>
      <trkpt lat="46.85599" lon="6.84841">
        <ele>429.3</ele>
        <time>2022-09-30T08:56:23Z</time>
      </trkpt>
      <trkpt lat="46.85598" lon="6.84842">
        <ele>429.3</ele>
        <time>2022-09-30T08:56:24Z</time>
      </trkpt>
      <trkpt lat="46.85596" lon="6.84844">
        <ele>429.2</ele>
        <time>2022-09-30T08:56:25Z</time>
      </trkpt>
      <trkpt lat="46.85594" lon="6.84853">
        <ele>429.2</ele>
        <time>2022-09-30T08:56:26Z</time>
      </trkpt>
      <trkpt lat="46.85591" lon="6.84856">
        <ele>429.2</ele>
        <time>2022-09-30T08:56:27Z</time>
      </trkpt>
      <trkpt lat="46.85588" lon="6.84859">
        <ele>429.2</ele>
        <time>2022-09-30T08:56:28Z</time>
      </trkpt>
      <trkpt lat="46.85585" lon="6.84863">
        <ele>429.2</ele>
        <time>2022-09-30T08:56:29Z</time>
      </trkpt>
      <trkpt lat="46.85581" lon="6.84869">
        <ele>429.2</ele>
        <time>2022-09-30T08:56:30Z</time>
      </trkpt>
      <trkpt lat="46.85578" lon="6.84871">
        <ele>429.2</ele>
        <time>2022-09-30T08:56:31Z</time>
      </trkpt>
      <trkpt lat="46.85574" lon="6.84876">
        <ele>429.2</ele>
        <time>2022-09-30T08:56:32Z</time>
      </trkpt>
      <trkpt lat="46.8557" lon="6.8488">
        <ele>429.2</ele>
        <time>2022-09-30T08:56:33Z</time>
      </trkpt>
      <trkpt lat="46.85568" lon="6.84884">
        <ele>429.2</ele>
        <time>2022-09-30T08:56:34Z</time>
      </trkpt>
      <trkpt lat="46.85564" lon="6.84887">
        <ele>429.3</ele>
        <time>2022-09-30T08:56:35Z</time>
      </trkpt>
      <trkpt lat="46.85561" lon="6.8489">
        <ele>429.3</ele>
        <time>2022-09-30T08:56:36Z</time>
      </trkpt>
      <trkpt lat="46.85558" lon="6.84893">
        <ele>429.3</ele>
        <time>2022-09-30T08:56:37Z</time>
      </trkpt>
      <trkpt lat="46.85556" lon="6.84896">
        <ele>429.3</ele>
        <time>2022-09-30T08:56:38Z</time>
      </trkpt>
      <trkpt lat="46.85553" lon="6.84899">
        <ele>429.3</ele>
        <time>2022-09-30T08:56:39Z</time>
      </trkpt>
      <trkpt lat="46.8555" lon="6.84901">
        <ele>429.3</ele>
        <time>2022-09-30T08:56:40Z</time>
      </trkpt>
      <trkpt lat="46.85547" lon="6.84905">
        <ele>429.4</ele>
        <time>2022-09-30T08:56:41Z</time>
      </trkpt>
      <trkpt lat="46.85545" lon="6.84907">
        <ele>429.4</ele>
        <time>2022-09-30T08:56:42Z</time>
      </trkpt>
      <trkpt lat="46.85541" lon="6.84909">
        <ele>429.4</ele>
        <time>2022-09-30T08:56:43Z</time>
      </trkpt>
      <trkpt lat="46.85538" lon="6.84911">
        <ele>429.5</ele>
        <time>2022-09-30T08:56:44Z</time>
      </trkpt>
      <trkpt lat="46.85534" lon="6.84913">
        <ele>429.5</ele>
        <time>2022-09-30T08:56:45Z</time>
      </trkpt>
      <trkpt lat="46.8553" lon="6.84915">
        <ele>429.6</ele>
        <time>2022-09-30T08:56:46Z</time>
      </trkpt>
      <trkpt lat="46.85526" lon="6.84917">
        <ele>429.6</ele>
        <time>2022-09-30T08:56:47Z</time>
      </trkpt>
      <trkpt lat="46.85522" lon="6.8492">
        <ele>429.6</ele>
        <time>2022-09-30T08:56:48Z</time>
      </trkpt>
      <trkpt lat="46.85518" lon="6.84923">
        <ele>429.7</ele>
        <time>2022-09-30T08:56:49Z</time>
      </trkpt>
      <trkpt lat="46.85515" lon="6.84925">
        <ele>429.7</ele>
        <time>2022-09-30T08:56:50Z</time>
      </trkpt>
      <trkpt lat="46.8551" lon="6.84925">
        <ele>429.8</ele>
        <time>2022-09-30T08:56:51Z</time>
      </trkpt>
      <trkpt lat="46.85507" lon="6.84928">
        <ele>429.8</ele>
        <time>2022-09-30T08:56:52Z</time>
      </trkpt>
      <trkpt lat="46.85503" lon="6.8493">
        <ele>429.8</ele>
        <time>2022-09-30T08:56:53Z</time>
      </trkpt>
      <trkpt lat="46.85499" lon="6.84932">
        <ele>429.9</ele>
        <time>2022-09-30T08:56:54Z</time>
      </trkpt>
      <trkpt lat="46.85495" lon="6.84932">
        <ele>429.9</ele>
        <time>2022-09-30T08:56:55Z</time>
      </trkpt>
      <trkpt lat="46.85491" lon="6.84932">
        <ele>430</ele>
        <time>2022-09-30T08:56:56Z</time>
      </trkpt>
      <trkpt lat="46.8549" lon="6.84932">
        <ele>430.1</ele>
        <time>2022-09-30T08:56:57Z</time>
      </trkpt>
      <trkpt lat="46.85487" lon="6.84928">
        <ele>430.1</ele>
        <time>2022-09-30T08:56:58Z</time>
      </trkpt>
      <trkpt lat="46.85486" lon="6.84925">
        <ele>430.1</ele>
        <time>2022-09-30T08:56:59Z</time>
      </trkpt>
      <trkpt lat="46.85484" lon="6.8492">
        <ele>430.1</ele>
        <time>2022-09-30T08:57:00Z</time>
      </trkpt>
      <trkpt lat="46.85484" lon="6.84919">
        <ele>430.1</ele>
        <time>2022-09-30T08:57:01Z</time>
      </trkpt>
      <trkpt lat="46.85481" lon="6.84915">
        <ele>430.2</ele>
        <time>2022-09-30T08:57:02Z</time>
      </trkpt>
      <trkpt lat="46.8548" lon="6.84914">
        <ele>430.2</ele>
        <time>2022-09-30T08:57:03Z</time>
      </trkpt>
      <trkpt lat="46.85478" lon="6.84909">
        <ele>430.2</ele>
        <time>2022-09-30T08:57:04Z</time>
      </trkpt>
      <trkpt lat="46.85477" lon="6.84904">
        <ele>430.2</ele>
        <time>2022-09-30T08:57:05Z</time>
      </trkpt>
      <trkpt lat="46.85476" lon="6.849">
        <ele>430.2</ele>
        <time>2022-09-30T08:57:06Z</time>
      </trkpt>
      <trkpt lat="46.85473" lon="6.84896">
        <ele>430.3</ele>
        <time>2022-09-30T08:57:07Z</time>
      </trkpt>
      <trkpt lat="46.8547" lon="6.84891">
        <ele>430.3</ele>
        <time>2022-09-30T08:57:08Z</time>
      </trkpt>
      <trkpt lat="46.85467" lon="6.84885">
        <ele>430.3</ele>
        <time>2022-09-30T08:57:09Z</time>
      </trkpt>
      <trkpt lat="46.85465" lon="6.8488">
        <ele>430.3</ele>
        <time>2022-09-30T08:57:10Z</time>
      </trkpt>
      <trkpt lat="46.85462" lon="6.84876">
        <ele>430.3</ele>
        <time>2022-09-30T08:57:11Z</time>
      </trkpt>
      <trkpt lat="46.8546" lon="6.84871">
        <ele>430.3</ele>
        <time>2022-09-30T08:57:12Z</time>
      </trkpt>
      <trkpt lat="46.85458" lon="6.84866">
        <ele>430.4</ele>
        <time>2022-09-30T08:57:13Z</time>
      </trkpt>
      <trkpt lat="46.85456" lon="6.84861">
        <ele>430.4</ele>
        <time>2022-09-30T08:57:14Z</time>
      </trkpt>
      <trkpt lat="46.85453" lon="6.84856">
        <ele>430.4</ele>
        <time>2022-09-30T08:57:15Z</time>
      </trkpt>
      <trkpt lat="46.8545" lon="6.84851">
        <ele>430.4</ele>
        <time>2022-09-30T08:57:16Z</time>
      </trkpt>
      <trkpt lat="46.85447" lon="6.84845">
        <ele>430.5</ele>
        <time>2022-09-30T08:57:17Z</time>
      </trkpt>
      <trkpt lat="46.85445" lon="6.8484">
        <ele>430.5</ele>
        <time>2022-09-30T08:57:18Z</time>
      </trkpt>
      <trkpt lat="46.85442" lon="6.84835">
        <ele>430.5</ele>
        <time>2022-09-30T08:57:19Z</time>
      </trkpt>
      <trkpt lat="46.85439" lon="6.8483">
        <ele>430.5</ele>
        <time>2022-09-30T08:57:20Z</time>
      </trkpt>
      <trkpt lat="46.85437" lon="6.84824">
        <ele>430.6</ele>
        <time>2022-09-30T08:57:21Z</time>
      </trkpt>
      <trkpt lat="46.85434" lon="6.84819">
        <ele>430.6</ele>
        <time>2022-09-30T08:57:22Z</time>
      </trkpt>
      <trkpt lat="46.85431" lon="6.84813">
        <ele>430.6</ele>
        <time>2022-09-30T08:57:23Z</time>
      </trkpt>
      <trkpt lat="46.85428" lon="6.84809">
        <ele>430.6</ele>
        <time>2022-09-30T08:57:24Z</time>
      </trkpt>
      <trkpt lat="46.85426" lon="6.84804">
        <ele>430.7</ele>
        <time>2022-09-30T08:57:25Z</time>
      </trkpt>
      <trkpt lat="46.85424" lon="6.84798">
        <ele>430.7</ele>
        <time>2022-09-30T08:57:26Z</time>
      </trkpt>
      <trkpt lat="46.8542" lon="6.84793">
        <ele>430.8</ele>
        <time>2022-09-30T08:57:27Z</time>
      </trkpt>
      <trkpt lat="46.85417" lon="6.84788">
        <ele>430.8</ele>
        <time>2022-09-30T08:57:28Z</time>
      </trkpt>
      <trkpt lat="46.85415" lon="6.84782">
        <ele>430.9</ele>
        <time>2022-09-30T08:57:29Z</time>
      </trkpt>
      <trkpt lat="46.85413" lon="6.84777">
        <ele>430.9</ele>
        <time>2022-09-30T08:57:30Z</time>
      </trkpt>
      <trkpt lat="46.85409" lon="6.84773">
        <ele>430.9</ele>
        <time>2022-09-30T08:57:31Z</time>
      </trkpt>
      <trkpt lat="46.85407" lon="6.84769">
        <ele>431</ele>
        <time>2022-09-30T08:57:32Z</time>
      </trkpt>
      <trkpt lat="46.85406" lon="6.84763">
        <ele>431</ele>
        <time>2022-09-30T08:57:33Z</time>
      </trkpt>
      <trkpt lat="46.85403" lon="6.84757">
        <ele>431</ele>
        <time>2022-09-30T08:57:34Z</time>
      </trkpt>
      <trkpt lat="46.85401" lon="6.84754">
        <ele>431</ele>
        <time>2022-09-30T08:57:35Z</time>
      </trkpt>
      <trkpt lat="46.85399" lon="6.8475">
        <ele>431</ele>
        <time>2022-09-30T08:57:36Z</time>
      </trkpt>
      <trkpt lat="46.85395" lon="6.84746">
        <ele>431</ele>
        <time>2022-09-30T08:57:37Z</time>
      </trkpt>
      <trkpt lat="46.85393" lon="6.84741">
        <ele>431</ele>
        <time>2022-09-30T08:57:38Z</time>
      </trkpt>
      <trkpt lat="46.85391" lon="6.84735">
        <ele>431</ele>
        <time>2022-09-30T08:57:39Z</time>
      </trkpt>
      <trkpt lat="46.85387" lon="6.84731">
        <ele>431.1</ele>
        <time>2022-09-30T08:57:40Z</time>
      </trkpt>
      <trkpt lat="46.85385" lon="6.84727">
        <ele>431.1</ele>
        <time>2022-09-30T08:57:41Z</time>
      </trkpt>
      <trkpt lat="46.85382" lon="6.84722">
        <ele>431.1</ele>
        <time>2022-09-30T08:57:42Z</time>
      </trkpt>
      <trkpt lat="46.85379" lon="6.84716">
        <ele>431.1</ele>
        <time>2022-09-30T08:57:43Z</time>
      </trkpt>
      <trkpt lat="46.85377" lon="6.8471">
        <ele>431.1</ele>
        <time>2022-09-30T08:57:44Z</time>
      </trkpt>
      <trkpt lat="46.85374" lon="6.84705">
        <ele>431.1</ele>
        <time>2022-09-30T08:57:45Z</time>
      </trkpt>
      <trkpt lat="46.85371" lon="6.84699">
        <ele>431.2</ele>
        <time>2022-09-30T08:57:46Z</time>
      </trkpt>
      <trkpt lat="46.85368" lon="6.84695">
        <ele>431.2</ele>
        <time>2022-09-30T08:57:47Z</time>
      </trkpt>
      <trkpt lat="46.85364" lon="6.8469">
        <ele>431.2</ele>
        <time>2022-09-30T08:57:48Z</time>
      </trkpt>
      <trkpt lat="46.85361" lon="6.84684">
        <ele>431.3</ele>
        <time>2022-09-30T08:57:49Z</time>
      </trkpt>
      <trkpt lat="46.85359" lon="6.84678">
        <ele>431.3</ele>
        <time>2022-09-30T08:57:50Z</time>
      </trkpt>
      <trkpt lat="46.85356" lon="6.84672">
        <ele>431.3</ele>
        <time>2022-09-30T08:57:51Z</time>
      </trkpt>
      <trkpt lat="46.85353" lon="6.84666">
        <ele>431.3</ele>
        <time>2022-09-30T08:57:52Z</time>
      </trkpt>
      <trkpt lat="46.8535" lon="6.8466">
        <ele>431.4</ele>
        <time>2022-09-30T08:57:53Z</time>
      </trkpt>
      <trkpt lat="46.85347" lon="6.84654">
        <ele>431.4</ele>
        <time>2022-09-30T08:57:54Z</time>
      </trkpt>
      <trkpt lat="46.85344" lon="6.84648">
        <ele>431.4</ele>
        <time>2022-09-30T08:57:55Z</time>
      </trkpt>
      <trkpt lat="46.85341" lon="6.84643">
        <ele>431.4</ele>
        <time>2022-09-30T08:57:56Z</time>
      </trkpt>
      <trkpt lat="46.85338" lon="6.84638">
        <ele>431.4</ele>
        <time>2022-09-30T08:57:57Z</time>
      </trkpt>
      <trkpt lat="46.85336" lon="6.84633">
        <ele>431.4</ele>
        <time>2022-09-30T08:57:58Z</time>
      </trkpt>
      <trkpt lat="46.85333" lon="6.84626">
        <ele>431.4</ele>
        <time>2022-09-30T08:57:59Z</time>
      </trkpt>
      <trkpt lat="46.85331" lon="6.84623">
        <ele>431.4</ele>
        <time>2022-09-30T08:58:00Z</time>
      </trkpt>
      <trkpt lat="46.85329" lon="6.8462">
        <ele>431.4</ele>
        <time>2022-09-30T08:58:01Z</time>
      </trkpt>
      <trkpt lat="46.85327" lon="6.84617">
        <ele>431.4</ele>
        <time>2022-09-30T08:58:02Z</time>
      </trkpt>
      <trkpt lat="46.85325" lon="6.84613">
        <ele>431.4</ele>
        <time>2022-09-30T08:58:03Z</time>
      </trkpt>
      <trkpt lat="46.85323" lon="6.84607">
        <ele>431.4</ele>
        <time>2022-09-30T08:58:04Z</time>
      </trkpt>
      <trkpt lat="46.85321" lon="6.84604">
        <ele>431.4</ele>
        <time>2022-09-30T08:58:05Z</time>
      </trkpt>
      <trkpt lat="46.85319" lon="6.846">
        <ele>431.4</ele>
        <time>2022-09-30T08:58:06Z</time>
      </trkpt>
      <trkpt lat="46.85317" lon="6.84596">
        <ele>431.3</ele>
        <time>2022-09-30T08:58:07Z</time>
      </trkpt>
      <trkpt lat="46.85314" lon="6.84592">
        <ele>431.3</ele>
        <time>2022-09-30T08:58:08Z</time>
      </trkpt>
      <trkpt lat="46.85311" lon="6.84586">
        <ele>431.3</ele>
        <time>2022-09-30T08:58:09Z</time>
      </trkpt>
      <trkpt lat="46.85309" lon="6.84581">
        <ele>431.2</ele>
        <time>2022-09-30T08:58:10Z</time>
      </trkpt>
      <trkpt lat="46.85307" lon="6.84576">
        <ele>431.2</ele>
        <time>2022-09-30T08:58:11Z</time>
      </trkpt>
      <trkpt lat="46.85303" lon="6.84569">
        <ele>431.1</ele>
        <time>2022-09-30T08:58:12Z</time>
      </trkpt>
      <trkpt lat="46.853" lon="6.84563">
        <ele>431.1</ele>
        <time>2022-09-30T08:58:13Z</time>
      </trkpt>
      <trkpt lat="46.85297" lon="6.84559">
        <ele>431.1</ele>
        <time>2022-09-30T08:58:14Z</time>
      </trkpt>
      <trkpt lat="46.85295" lon="6.84553">
        <ele>431</ele>
        <time>2022-09-30T08:58:15Z</time>
      </trkpt>
      <trkpt lat="46.85291" lon="6.84547">
        <ele>431</ele>
        <time>2022-09-30T08:58:16Z</time>
      </trkpt>
      <trkpt lat="46.85288" lon="6.84541">
        <ele>431</ele>
        <time>2022-09-30T08:58:17Z</time>
      </trkpt>
      <trkpt lat="46.85285" lon="6.84535">
        <ele>431</ele>
        <time>2022-09-30T08:58:18Z</time>
      </trkpt>
      <trkpt lat="46.85282" lon="6.84529">
        <ele>431</ele>
        <time>2022-09-30T08:58:19Z</time>
      </trkpt>
      <trkpt lat="46.8528" lon="6.84523">
        <ele>431</ele>
        <time>2022-09-30T08:58:20Z</time>
      </trkpt>
      <trkpt lat="46.85277" lon="6.84517">
        <ele>430.9</ele>
        <time>2022-09-30T08:58:21Z</time>
      </trkpt>
      <trkpt lat="46.85274" lon="6.84512">
        <ele>430.9</ele>
        <time>2022-09-30T08:58:22Z</time>
      </trkpt>
      <trkpt lat="46.85271" lon="6.84506">
        <ele>430.8</ele>
        <time>2022-09-30T08:58:23Z</time>
      </trkpt>
      <trkpt lat="46.85268" lon="6.84499">
        <ele>430.7</ele>
        <time>2022-09-30T08:58:24Z</time>
      </trkpt>
      <trkpt lat="46.85265" lon="6.84493">
        <ele>430.7</ele>
        <time>2022-09-30T08:58:25Z</time>
      </trkpt>
      <trkpt lat="46.85262" lon="6.84487">
        <ele>430.6</ele>
        <time>2022-09-30T08:58:26Z</time>
      </trkpt>
      <trkpt lat="46.85258" lon="6.84481">
        <ele>430.6</ele>
        <time>2022-09-30T08:58:27Z</time>
      </trkpt>
      <trkpt lat="46.85255" lon="6.84475">
        <ele>430.6</ele>
        <time>2022-09-30T08:58:28Z</time>
      </trkpt>
      <trkpt lat="46.85253" lon="6.84469">
        <ele>430.5</ele>
        <time>2022-09-30T08:58:29Z</time>
      </trkpt>
      <trkpt lat="46.85249" lon="6.84463">
        <ele>430.5</ele>
        <time>2022-09-30T08:58:30Z</time>
      </trkpt>
      <trkpt lat="46.85246" lon="6.84458">
        <ele>430.4</ele>
        <time>2022-09-30T08:58:31Z</time>
      </trkpt>
      <trkpt lat="46.85244" lon="6.84452">
        <ele>430.4</ele>
        <time>2022-09-30T08:58:32Z</time>
      </trkpt>
      <trkpt lat="46.85241" lon="6.84445">
        <ele>430.3</ele>
        <time>2022-09-30T08:58:33Z</time>
      </trkpt>
      <trkpt lat="46.85237" lon="6.84438">
        <ele>430.3</ele>
        <time>2022-09-30T08:58:34Z</time>
      </trkpt>
      <trkpt lat="46.85234" lon="6.84433">
        <ele>430.3</ele>
        <time>2022-09-30T08:58:35Z</time>
      </trkpt>
      <trkpt lat="46.85232" lon="6.84429">
        <ele>430.2</ele>
        <time>2022-09-30T08:58:36Z</time>
      </trkpt>
      <trkpt lat="46.85228" lon="6.84425">
        <ele>430.2</ele>
        <time>2022-09-30T08:58:37Z</time>
      </trkpt>
      <trkpt lat="46.85226" lon="6.8442">
        <ele>430.2</ele>
        <time>2022-09-30T08:58:38Z</time>
      </trkpt>
      <trkpt lat="46.85223" lon="6.84415">
        <ele>430.2</ele>
        <time>2022-09-30T08:58:39Z</time>
      </trkpt>
      <trkpt lat="46.8522" lon="6.8441">
        <ele>430.2</ele>
        <time>2022-09-30T08:58:40Z</time>
      </trkpt>
      <trkpt lat="46.85218" lon="6.84404">
        <ele>430.2</ele>
        <time>2022-09-30T08:58:41Z</time>
      </trkpt>
      <trkpt lat="46.85216" lon="6.84398">
        <ele>430.2</ele>
        <time>2022-09-30T08:58:42Z</time>
      </trkpt>
      <trkpt lat="46.85213" lon="6.84394">
        <ele>430.3</ele>
        <time>2022-09-30T08:58:43Z</time>
      </trkpt>
      <trkpt lat="46.85211" lon="6.8439">
        <ele>430.3</ele>
        <time>2022-09-30T08:58:44Z</time>
      </trkpt>
      <trkpt lat="46.85208" lon="6.84385">
        <ele>430.3</ele>
        <time>2022-09-30T08:58:45Z</time>
      </trkpt>
      <trkpt lat="46.85205" lon="6.8438">
        <ele>430.3</ele>
        <time>2022-09-30T08:58:46Z</time>
      </trkpt>
      <trkpt lat="46.85202" lon="6.84375">
        <ele>430.3</ele>
        <time>2022-09-30T08:58:47Z</time>
      </trkpt>
      <trkpt lat="46.85199" lon="6.8437">
        <ele>430.3</ele>
        <time>2022-09-30T08:58:48Z</time>
      </trkpt>
      <trkpt lat="46.85196" lon="6.84364">
        <ele>430.3</ele>
        <time>2022-09-30T08:58:49Z</time>
      </trkpt>
      <trkpt lat="46.85193" lon="6.84359">
        <ele>430.4</ele>
        <time>2022-09-30T08:58:50Z</time>
      </trkpt>
      <trkpt lat="46.8519" lon="6.84353">
        <ele>430.4</ele>
        <time>2022-09-30T08:58:51Z</time>
      </trkpt>
      <trkpt lat="46.85187" lon="6.84348">
        <ele>430.4</ele>
        <time>2022-09-30T08:58:52Z</time>
      </trkpt>
      <trkpt lat="46.85184" lon="6.84342">
        <ele>430.4</ele>
        <time>2022-09-30T08:58:53Z</time>
      </trkpt>
      <trkpt lat="46.85182" lon="6.84336">
        <ele>430.4</ele>
        <time>2022-09-30T08:58:54Z</time>
      </trkpt>
      <trkpt lat="46.85179" lon="6.8433">
        <ele>430.4</ele>
        <time>2022-09-30T08:58:55Z</time>
      </trkpt>
      <trkpt lat="46.85176" lon="6.84324">
        <ele>430.4</ele>
        <time>2022-09-30T08:58:56Z</time>
      </trkpt>
      <trkpt lat="46.85172" lon="6.84318">
        <ele>430.4</ele>
        <time>2022-09-30T08:58:57Z</time>
      </trkpt>
      <trkpt lat="46.85168" lon="6.84313">
        <ele>430.4</ele>
        <time>2022-09-30T08:58:58Z</time>
      </trkpt>
      <trkpt lat="46.85165" lon="6.84307">
        <ele>430.4</ele>
        <time>2022-09-30T08:58:59Z</time>
      </trkpt>
      <trkpt lat="46.85161" lon="6.84301">
        <ele>430.4</ele>
        <time>2022-09-30T08:59:00Z</time>
      </trkpt>
      <trkpt lat="46.85158" lon="6.84296">
        <ele>430.4</ele>
        <time>2022-09-30T08:59:01Z</time>
      </trkpt>
      <trkpt lat="46.85155" lon="6.84291">
        <ele>430.4</ele>
        <time>2022-09-30T08:59:02Z</time>
      </trkpt>
      <trkpt lat="46.85151" lon="6.84285">
        <ele>430.4</ele>
        <time>2022-09-30T08:59:03Z</time>
      </trkpt>
      <trkpt lat="46.85148" lon="6.84279">
        <ele>430.4</ele>
        <time>2022-09-30T08:59:04Z</time>
      </trkpt>
      <trkpt lat="46.85145" lon="6.84274">
        <ele>430.4</ele>
        <time>2022-09-30T08:59:05Z</time>
      </trkpt>
      <trkpt lat="46.85141" lon="6.84269">
        <ele>430.4</ele>
        <time>2022-09-30T08:59:06Z</time>
      </trkpt>
      <trkpt lat="46.85139" lon="6.84263">
        <ele>430.4</ele>
        <time>2022-09-30T08:59:07Z</time>
      </trkpt>
      <trkpt lat="46.85136" lon="6.84257">
        <ele>430.4</ele>
        <time>2022-09-30T08:59:08Z</time>
      </trkpt>
      <trkpt lat="46.85134" lon="6.8425">
        <ele>430.5</ele>
        <time>2022-09-30T08:59:09Z</time>
      </trkpt>
      <trkpt lat="46.85131" lon="6.84244">
        <ele>430.5</ele>
        <time>2022-09-30T08:59:10Z</time>
      </trkpt>
      <trkpt lat="46.85129" lon="6.84236">
        <ele>430.5</ele>
        <time>2022-09-30T08:59:11Z</time>
      </trkpt>
      <trkpt lat="46.85127" lon="6.84228">
        <ele>430.5</ele>
        <time>2022-09-30T08:59:12Z</time>
      </trkpt>
      <trkpt lat="46.85124" lon="6.84222">
        <ele>430.5</ele>
        <time>2022-09-30T08:59:13Z</time>
      </trkpt>
      <trkpt lat="46.85123" lon="6.84215">
        <ele>430.5</ele>
        <time>2022-09-30T08:59:14Z</time>
      </trkpt>
      <trkpt lat="46.85122" lon="6.84208">
        <ele>430.5</ele>
        <time>2022-09-30T08:59:15Z</time>
      </trkpt>
      <trkpt lat="46.8512" lon="6.84201">
        <ele>430.5</ele>
        <time>2022-09-30T08:59:16Z</time>
      </trkpt>
      <trkpt lat="46.85119" lon="6.84194">
        <ele>430.5</ele>
        <time>2022-09-30T08:59:17Z</time>
      </trkpt>
      <trkpt lat="46.85117" lon="6.84186">
        <ele>430.6</ele>
        <time>2022-09-30T08:59:18Z</time>
      </trkpt>
      <trkpt lat="46.85115" lon="6.84179">
        <ele>430.6</ele>
        <time>2022-09-30T08:59:19Z</time>
      </trkpt>
      <trkpt lat="46.85113" lon="6.84173">
        <ele>430.6</ele>
        <time>2022-09-30T08:59:20Z</time>
      </trkpt>
      <trkpt lat="46.85111" lon="6.84166">
        <ele>430.7</ele>
        <time>2022-09-30T08:59:21Z</time>
      </trkpt>
      <trkpt lat="46.8511" lon="6.8416">
        <ele>430.7</ele>
        <time>2022-09-30T08:59:22Z</time>
      </trkpt>
      <trkpt lat="46.85109" lon="6.84155">
        <ele>430.7</ele>
        <time>2022-09-30T08:59:23Z</time>
      </trkpt>
      <trkpt lat="46.85108" lon="6.8415">
        <ele>430.8</ele>
        <time>2022-09-30T08:59:24Z</time>
      </trkpt>
      <trkpt lat="46.85105" lon="6.84145">
        <ele>430.8</ele>
        <time>2022-09-30T08:59:25Z</time>
      </trkpt>
      <trkpt lat="46.85102" lon="6.84142">
        <ele>430.8</ele>
        <time>2022-09-30T08:59:26Z</time>
      </trkpt>
      <trkpt lat="46.85098" lon="6.84141">
        <ele>430.8</ele>
        <time>2022-09-30T08:59:27Z</time>
      </trkpt>
      <trkpt lat="46.85095" lon="6.84142">
        <ele>431.2</ele>
        <time>2022-09-30T08:59:28Z</time>
      </trkpt>
      <trkpt lat="46.85092" lon="6.84146">
        <ele>431.2</ele>
        <time>2022-09-30T08:59:29Z</time>
      </trkpt>
      <trkpt lat="46.8509" lon="6.84151">
        <ele>431.2</ele>
        <time>2022-09-30T08:59:30Z</time>
      </trkpt>
      <trkpt lat="46.85088" lon="6.84155">
        <ele>431.2</ele>
        <time>2022-09-30T08:59:31Z</time>
      </trkpt>
      <trkpt lat="46.85086" lon="6.84159">
        <ele>431.3</ele>
        <time>2022-09-30T08:59:32Z</time>
      </trkpt>
      <trkpt lat="46.85085" lon="6.84165">
        <ele>431.3</ele>
        <time>2022-09-30T08:59:33Z</time>
      </trkpt>
      <trkpt lat="46.85083" lon="6.8417">
        <ele>431.3</ele>
        <time>2022-09-30T08:59:34Z</time>
      </trkpt>
      <trkpt lat="46.85081" lon="6.84176">
        <ele>431.3</ele>
        <time>2022-09-30T08:59:35Z</time>
      </trkpt>
      <trkpt lat="46.85079" lon="6.84182">
        <ele>431.3</ele>
        <time>2022-09-30T08:59:36Z</time>
      </trkpt>
      <trkpt lat="46.85078" lon="6.84188">
        <ele>431.3</ele>
        <time>2022-09-30T08:59:37Z</time>
      </trkpt>
      <trkpt lat="46.85076" lon="6.84194">
        <ele>431.3</ele>
        <time>2022-09-30T08:59:38Z</time>
      </trkpt>
      <trkpt lat="46.85074" lon="6.84199">
        <ele>431.4</ele>
        <time>2022-09-30T08:59:39Z</time>
      </trkpt>
      <trkpt lat="46.85072" lon="6.84206">
        <ele>431.4</ele>
        <time>2022-09-30T08:59:40Z</time>
      </trkpt>
      <trkpt lat="46.8507" lon="6.84213">
        <ele>431.4</ele>
        <time>2022-09-30T08:59:41Z</time>
      </trkpt>
      <trkpt lat="46.85068" lon="6.84218">
        <ele>431.4</ele>
        <time>2022-09-30T08:59:42Z</time>
      </trkpt>
      <trkpt lat="46.85065" lon="6.84224">
        <ele>431.4</ele>
        <time>2022-09-30T08:59:43Z</time>
      </trkpt>
      <trkpt lat="46.85063" lon="6.8423">
        <ele>431.5</ele>
        <time>2022-09-30T08:59:44Z</time>
      </trkpt>
      <trkpt lat="46.85061" lon="6.84237">
        <ele>431.5</ele>
        <time>2022-09-30T08:59:45Z</time>
      </trkpt>
      <trkpt lat="46.85058" lon="6.84241">
        <ele>431.5</ele>
        <time>2022-09-30T08:59:46Z</time>
      </trkpt>
      <trkpt lat="46.85056" lon="6.84246">
        <ele>431.5</ele>
        <time>2022-09-30T08:59:47Z</time>
      </trkpt>
      <trkpt lat="46.85055" lon="6.84255">
        <ele>431.6</ele>
        <time>2022-09-30T08:59:48Z</time>
      </trkpt>
      <trkpt lat="46.85053" lon="6.84259">
        <ele>431.6</ele>
        <time>2022-09-30T08:59:49Z</time>
      </trkpt>
      <trkpt lat="46.85051" lon="6.84269">
        <ele>431.7</ele>
        <time>2022-09-30T08:59:50Z</time>
      </trkpt>
      <trkpt lat="46.85048" lon="6.84272">
        <ele>431.7</ele>
        <time>2022-09-30T08:59:51Z</time>
      </trkpt>
      <trkpt lat="46.85046" lon="6.84279">
        <ele>431.7</ele>
        <time>2022-09-30T08:59:52Z</time>
      </trkpt>
      <trkpt lat="46.85044" lon="6.84285">
        <ele>431.8</ele>
        <time>2022-09-30T08:59:53Z</time>
      </trkpt>
      <trkpt lat="46.85042" lon="6.84291">
        <ele>431.8</ele>
        <time>2022-09-30T08:59:54Z</time>
      </trkpt>
      <trkpt lat="46.8504" lon="6.84298">
        <ele>431.9</ele>
        <time>2022-09-30T08:59:55Z</time>
      </trkpt>
      <trkpt lat="46.85038" lon="6.84303">
        <ele>432</ele>
        <time>2022-09-30T08:59:56Z</time>
      </trkpt>
      <trkpt lat="46.85036" lon="6.8431">
        <ele>432</ele>
        <time>2022-09-30T08:59:57Z</time>
      </trkpt>
      <trkpt lat="46.85034" lon="6.84315">
        <ele>432.1</ele>
        <time>2022-09-30T08:59:58Z</time>
      </trkpt>
      <trkpt lat="46.8503" lon="6.84321">
        <ele>432.2</ele>
        <time>2022-09-30T08:59:59Z</time>
      </trkpt>
      <trkpt lat="46.85029" lon="6.84325">
        <ele>432.3</ele>
        <time>2022-09-30T09:00:00Z</time>
      </trkpt>
      <trkpt lat="46.85027" lon="6.84331">
        <ele>432.3</ele>
        <time>2022-09-30T09:00:01Z</time>
      </trkpt>
      <trkpt lat="46.85025" lon="6.84337">
        <ele>432.4</ele>
        <time>2022-09-30T09:00:02Z</time>
      </trkpt>
      <trkpt lat="46.85023" lon="6.84342">
        <ele>432.5</ele>
        <time>2022-09-30T09:00:03Z</time>
      </trkpt>
      <trkpt lat="46.85021" lon="6.84348">
        <ele>432.5</ele>
        <time>2022-09-30T09:00:04Z</time>
      </trkpt>
      <trkpt lat="46.85019" lon="6.84354">
        <ele>432.5</ele>
        <time>2022-09-30T09:00:05Z</time>
      </trkpt>
      <trkpt lat="46.85017" lon="6.8436">
        <ele>432.6</ele>
        <time>2022-09-30T09:00:06Z</time>
      </trkpt>
      <trkpt lat="46.85015" lon="6.84366">
        <ele>432.6</ele>
        <time>2022-09-30T09:00:07Z</time>
      </trkpt>
      <trkpt lat="46.85013" lon="6.84371">
        <ele>432.6</ele>
        <time>2022-09-30T09:00:08Z</time>
      </trkpt>
      <trkpt lat="46.85011" lon="6.84377">
        <ele>432.7</ele>
        <time>2022-09-30T09:00:09Z</time>
      </trkpt>
      <trkpt lat="46.85009" lon="6.84382">
        <ele>432.8</ele>
        <time>2022-09-30T09:00:10Z</time>
      </trkpt>
      <trkpt lat="46.85007" lon="6.84388">
        <ele>432.8</ele>
        <time>2022-09-30T09:00:11Z</time>
      </trkpt>
      <trkpt lat="46.85006" lon="6.84394">
        <ele>432.9</ele>
        <time>2022-09-30T09:00:12Z</time>
      </trkpt>
      <trkpt lat="46.85005" lon="6.844">
        <ele>433</ele>
        <time>2022-09-30T09:00:13Z</time>
      </trkpt>
      <trkpt lat="46.85002" lon="6.84404">
        <ele>433</ele>
        <time>2022-09-30T09:00:14Z</time>
      </trkpt>
      <trkpt lat="46.85001" lon="6.8441">
        <ele>433.1</ele>
        <time>2022-09-30T09:00:15Z</time>
      </trkpt>
      <trkpt lat="46.85" lon="6.84416">
        <ele>433.3</ele>
        <time>2022-09-30T09:00:16Z</time>
      </trkpt>
      <trkpt lat="46.84998" lon="6.84421">
        <ele>433.4</ele>
        <time>2022-09-30T09:00:17Z</time>
      </trkpt>
      <trkpt lat="46.84997" lon="6.84426">
        <ele>433.5</ele>
        <time>2022-09-30T09:00:18Z</time>
      </trkpt>
      <trkpt lat="46.84994" lon="6.84432">
        <ele>433.6</ele>
        <time>2022-09-30T09:00:19Z</time>
      </trkpt>
      <trkpt lat="46.84992" lon="6.84438">
        <ele>433.8</ele>
        <time>2022-09-30T09:00:20Z</time>
      </trkpt>
      <trkpt lat="46.8499" lon="6.84443">
        <ele>433.9</ele>
        <time>2022-09-30T09:00:21Z</time>
      </trkpt>
      <trkpt lat="46.84989" lon="6.84448">
        <ele>434</ele>
        <time>2022-09-30T09:00:22Z</time>
      </trkpt>
      <trkpt lat="46.84987" lon="6.84454">
        <ele>434.1</ele>
        <time>2022-09-30T09:00:23Z</time>
      </trkpt>
      <trkpt lat="46.84985" lon="6.84458">
        <ele>434.2</ele>
        <time>2022-09-30T09:00:24Z</time>
      </trkpt>
      <trkpt lat="46.84983" lon="6.84463">
        <ele>434.4</ele>
        <time>2022-09-30T09:00:25Z</time>
      </trkpt>
      <trkpt lat="46.84982" lon="6.84469">
        <ele>434.5</ele>
        <time>2022-09-30T09:00:26Z</time>
      </trkpt>
      <trkpt lat="46.84981" lon="6.84474">
        <ele>434.6</ele>
        <time>2022-09-30T09:00:27Z</time>
      </trkpt>
      <trkpt lat="46.84979" lon="6.84479">
        <ele>434.8</ele>
        <time>2022-09-30T09:00:28Z</time>
      </trkpt>
      <trkpt lat="46.84977" lon="6.84484">
        <ele>435</ele>
        <time>2022-09-30T09:00:29Z</time>
      </trkpt>
      <trkpt lat="46.84976" lon="6.84487">
        <ele>435.1</ele>
        <time>2022-09-30T09:00:30Z</time>
      </trkpt>
      <trkpt lat="46.84975" lon="6.84491">
        <ele>435.2</ele>
        <time>2022-09-30T09:00:31Z</time>
      </trkpt>
      <trkpt lat="46.84973" lon="6.84496">
        <ele>435.4</ele>
        <time>2022-09-30T09:00:32Z</time>
      </trkpt>
      <trkpt lat="46.84971" lon="6.84501">
        <ele>435.6</ele>
        <time>2022-09-30T09:00:33Z</time>
      </trkpt>
      <trkpt lat="46.84968" lon="6.84503">
        <ele>435.7</ele>
        <time>2022-09-30T09:00:34Z</time>
      </trkpt>
      <trkpt lat="46.84966" lon="6.84508">
        <ele>435.9</ele>
        <time>2022-09-30T09:00:35Z</time>
      </trkpt>
      <trkpt lat="46.84963" lon="6.84511">
        <ele>436.1</ele>
        <time>2022-09-30T09:00:36Z</time>
      </trkpt>
      <trkpt lat="46.84962" lon="6.84515">
        <ele>436.1</ele>
        <time>2022-09-30T09:00:37Z</time>
      </trkpt>
      <trkpt lat="46.8496" lon="6.84519">
        <ele>436.2</ele>
        <time>2022-09-30T09:00:38Z</time>
      </trkpt>
      <trkpt lat="46.84959" lon="6.84523">
        <ele>436.3</ele>
        <time>2022-09-30T09:00:39Z</time>
      </trkpt>
      <trkpt lat="46.84956" lon="6.84527">
        <ele>436.6</ele>
        <time>2022-09-30T09:00:40Z</time>
      </trkpt>
      <trkpt lat="46.84955" lon="6.84528">
        <ele>436.7</ele>
        <time>2022-09-30T09:00:41Z</time>
      </trkpt>
      <trkpt lat="46.84953" lon="6.84531">
        <ele>437</ele>
        <time>2022-09-30T09:00:42Z</time>
      </trkpt>
      <trkpt lat="46.84952" lon="6.84533">
        <ele>437.1</ele>
        <time>2022-09-30T09:00:43Z</time>
      </trkpt>
      <trkpt lat="46.84949" lon="6.84536">
        <ele>437.4</ele>
        <time>2022-09-30T09:00:44Z</time>
      </trkpt>
      <trkpt lat="46.84948" lon="6.84537">
        <ele>437.6</ele>
        <time>2022-09-30T09:00:45Z</time>
      </trkpt>
      <trkpt lat="46.84946" lon="6.8454">
        <ele>437.8</ele>
        <time>2022-09-30T09:00:46Z</time>
      </trkpt>
      <trkpt lat="46.84946" lon="6.84541">
        <ele>437.9</ele>
        <time>2022-09-30T09:00:47Z</time>
      </trkpt>
      <trkpt lat="46.84944" lon="6.84544">
        <ele>438.2</ele>
        <time>2022-09-30T09:00:48Z</time>
      </trkpt>
      <trkpt lat="46.84943" lon="6.84545">
        <ele>438.3</ele>
        <time>2022-09-30T09:00:49Z</time>
      </trkpt>
      <trkpt lat="46.84942" lon="6.84549">
        <ele>438.6</ele>
        <time>2022-09-30T09:00:50Z</time>
      </trkpt>
      <trkpt lat="46.84941" lon="6.8455">
        <ele>438.7</ele>
        <time>2022-09-30T09:00:51Z</time>
      </trkpt>
      <trkpt lat="46.84939" lon="6.84554">
        <ele>438.9</ele>
        <time>2022-09-30T09:00:52Z</time>
      </trkpt>
      <trkpt lat="46.84939" lon="6.84555">
        <ele>439</ele>
        <time>2022-09-30T09:00:53Z</time>
      </trkpt>
      <trkpt lat="46.84937" lon="6.84558">
        <ele>439.3</ele>
        <time>2022-09-30T09:00:54Z</time>
      </trkpt>
      <trkpt lat="46.84937" lon="6.84559">
        <ele>439.4</ele>
        <time>2022-09-30T09:00:55Z</time>
      </trkpt>
      <trkpt lat="46.84936" lon="6.8456">
        <ele>439.5</ele>
        <time>2022-09-30T09:00:56Z</time>
      </trkpt>
      <trkpt lat="46.84934" lon="6.84562">
        <ele>439.7</ele>
        <time>2022-09-30T09:00:57Z</time>
      </trkpt>
      <trkpt lat="46.84932" lon="6.84564">
        <ele>440</ele>
        <time>2022-09-30T09:00:58Z</time>
      </trkpt>
      <trkpt lat="46.84931" lon="6.84565">
        <ele>440.1</ele>
        <time>2022-09-30T09:00:59Z</time>
      </trkpt>
      <trkpt lat="46.8493" lon="6.84568">
        <ele>440.2</ele>
        <time>2022-09-30T09:01:00Z</time>
      </trkpt>
      <trkpt lat="46.84928" lon="6.84569">
        <ele>440.4</ele>
        <time>2022-09-30T09:01:01Z</time>
      </trkpt>
      <trkpt lat="46.84926" lon="6.84571">
        <ele>440.7</ele>
        <time>2022-09-30T09:01:02Z</time>
      </trkpt>
      <trkpt lat="46.84925" lon="6.84571">
        <ele>440.7</ele>
        <time>2022-09-30T09:01:03Z</time>
      </trkpt>
      <trkpt lat="46.84924" lon="6.84573">
        <ele>440.9</ele>
        <time>2022-09-30T09:01:04Z</time>
      </trkpt>
      <trkpt lat="46.84923" lon="6.84574">
        <ele>441</ele>
        <time>2022-09-30T09:01:05Z</time>
      </trkpt>
      <trkpt lat="46.84923" lon="6.84576">
        <ele>441.1</ele>
        <time>2022-09-30T09:01:06Z</time>
      </trkpt>
      <trkpt lat="46.84921" lon="6.84578">
        <ele>441.3</ele>
        <time>2022-09-30T09:01:07Z</time>
      </trkpt>
      <trkpt lat="46.84921" lon="6.84578">
        <ele>441.4</ele>
        <time>2022-09-30T09:01:08Z</time>
      </trkpt>
      <trkpt lat="46.84919" lon="6.8458">
        <ele>441.6</ele>
        <time>2022-09-30T09:01:09Z</time>
      </trkpt>
      <trkpt lat="46.84919" lon="6.84582">
        <ele>441.7</ele>
        <time>2022-09-30T09:01:10Z</time>
      </trkpt>
      <trkpt lat="46.84917" lon="6.84583">
        <ele>441.9</ele>
        <time>2022-09-30T09:01:11Z</time>
      </trkpt>
      <trkpt lat="46.84916" lon="6.84586">
        <ele>442.1</ele>
        <time>2022-09-30T09:01:12Z</time>
      </trkpt>
      <trkpt lat="46.84915" lon="6.84586">
        <ele>442.2</ele>
        <time>2022-09-30T09:01:13Z</time>
      </trkpt>
      <trkpt lat="46.84914" lon="6.8459">
        <ele>442.4</ele>
        <time>2022-09-30T09:01:14Z</time>
      </trkpt>
      <trkpt lat="46.84913" lon="6.8459">
        <ele>442.5</ele>
        <time>2022-09-30T09:01:15Z</time>
      </trkpt>
      <trkpt lat="46.84912" lon="6.84593">
        <ele>442.8</ele>
        <time>2022-09-30T09:01:16Z</time>
      </trkpt>
      <trkpt lat="46.84911" lon="6.84594">
        <ele>442.9</ele>
        <time>2022-09-30T09:01:17Z</time>
      </trkpt>
      <trkpt lat="46.8491" lon="6.84598">
        <ele>443.2</ele>
        <time>2022-09-30T09:01:18Z</time>
      </trkpt>
      <trkpt lat="46.84909" lon="6.84599">
        <ele>443.2</ele>
        <time>2022-09-30T09:01:19Z</time>
      </trkpt>
      <trkpt lat="46.84908" lon="6.84603">
        <ele>443.5</ele>
        <time>2022-09-30T09:01:20Z</time>
      </trkpt>
      <trkpt lat="46.84907" lon="6.84604">
        <ele>443.6</ele>
        <time>2022-09-30T09:01:21Z</time>
      </trkpt>
      <trkpt lat="46.84907" lon="6.84605">
        <ele>443.7</ele>
        <time>2022-09-30T09:01:22Z</time>
      </trkpt>
      <trkpt lat="46.84906" lon="6.84607">
        <ele>443.9</ele>
        <time>2022-09-30T09:01:23Z</time>
      </trkpt>
      <trkpt lat="46.84904" lon="6.8461">
        <ele>444.1</ele>
        <time>2022-09-30T09:01:24Z</time>
      </trkpt>
      <trkpt lat="46.84903" lon="6.84612">
        <ele>444.3</ele>
        <time>2022-09-30T09:01:25Z</time>
      </trkpt>
      <trkpt lat="46.84903" lon="6.84613">
        <ele>444.4</ele>
        <time>2022-09-30T09:01:26Z</time>
      </trkpt>
      <trkpt lat="46.84902" lon="6.84616">
        <ele>444.6</ele>
        <time>2022-09-30T09:01:27Z</time>
      </trkpt>
      <trkpt lat="46.849" lon="6.84618">
        <ele>444.8</ele>
        <time>2022-09-30T09:01:28Z</time>
      </trkpt>
      <trkpt lat="46.84899" lon="6.84619">
        <ele>444.9</ele>
        <time>2022-09-30T09:01:29Z</time>
      </trkpt>
      <trkpt lat="46.84899" lon="6.8462">
        <ele>445</ele>
        <time>2022-09-30T09:01:30Z</time>
      </trkpt>
      <trkpt lat="46.84897" lon="6.84622">
        <ele>445.2</ele>
        <time>2022-09-30T09:01:31Z</time>
      </trkpt>
      <trkpt lat="46.84897" lon="6.84623">
        <ele>445.3</ele>
        <time>2022-09-30T09:01:32Z</time>
      </trkpt>
      <trkpt lat="46.84895" lon="6.84626">
        <ele>445.5</ele>
        <time>2022-09-30T09:01:33Z</time>
      </trkpt>
      <trkpt lat="46.84895" lon="6.84627">
        <ele>445.6</ele>
        <time>2022-09-30T09:01:34Z</time>
      </trkpt>
      <trkpt lat="46.84894" lon="6.8463">
        <ele>445.8</ele>
        <time>2022-09-30T09:01:35Z</time>
      </trkpt>
      <trkpt lat="46.84893" lon="6.84631">
        <ele>445.9</ele>
        <time>2022-09-30T09:01:36Z</time>
      </trkpt>
      <trkpt lat="46.84891" lon="6.84634">
        <ele>446.2</ele>
        <time>2022-09-30T09:01:37Z</time>
      </trkpt>
      <trkpt lat="46.8489" lon="6.84636">
        <ele>446.3</ele>
        <time>2022-09-30T09:01:38Z</time>
      </trkpt>
      <trkpt lat="46.8489" lon="6.84636">
        <ele>446.4</ele>
        <time>2022-09-30T09:01:39Z</time>
      </trkpt>
      <trkpt lat="46.84888" lon="6.84638">
        <ele>446.6</ele>
        <time>2022-09-30T09:01:40Z</time>
      </trkpt>
      <trkpt lat="46.84884" lon="6.84639">
        <ele>446.9</ele>
        <time>2022-09-30T09:01:41Z</time>
      </trkpt>
      <trkpt lat="46.84882" lon="6.84639">
        <ele>447.1</ele>
        <time>2022-09-30T09:01:42Z</time>
      </trkpt>
      <trkpt lat="46.84879" lon="6.84642">
        <ele>447.4</ele>
        <time>2022-09-30T09:01:43Z</time>
      </trkpt>
      <trkpt lat="46.84878" lon="6.84643">
        <ele>447.5</ele>
        <time>2022-09-30T09:01:44Z</time>
      </trkpt>
      <trkpt lat="46.84878" lon="6.84645">
        <ele>447.7</ele>
        <time>2022-09-30T09:01:45Z</time>
      </trkpt>
      <trkpt lat="46.84878" lon="6.84648">
        <ele>447.8</ele>
        <time>2022-09-30T09:01:46Z</time>
      </trkpt>
      <trkpt lat="46.84879" lon="6.84652">
        <ele>448.1</ele>
        <time>2022-09-30T09:01:47Z</time>
      </trkpt>
      <trkpt lat="46.84879" lon="6.84653">
        <ele>448.2</ele>
        <time>2022-09-30T09:01:48Z</time>
      </trkpt>
      <trkpt lat="46.84882" lon="6.84655">
        <ele>448.3</ele>
        <time>2022-09-30T09:01:49Z</time>
      </trkpt>
      <trkpt lat="46.84883" lon="6.84656">
        <ele>448.4</ele>
        <time>2022-09-30T09:01:50Z</time>
      </trkpt>
      <trkpt lat="46.84884" lon="6.84655">
        <ele>448.4</ele>
        <time>2022-09-30T09:01:51Z</time>
      </trkpt>
      <trkpt lat="46.84885" lon="6.84655">
        <ele>448.4</ele>
        <time>2022-09-30T09:01:52Z</time>
      </trkpt>
      <trkpt lat="46.84885" lon="6.84655">
        <ele>448.5</ele>
        <time>2022-09-30T09:01:53Z</time>
      </trkpt>
      <trkpt lat="46.84886" lon="6.84655">
        <ele>448.5</ele>
        <time>2022-09-30T09:01:54Z</time>
      </trkpt>
      <trkpt lat="46.84888" lon="6.84655">
        <ele>448.5</ele>
        <time>2022-09-30T09:01:55Z</time>
      </trkpt>
      <trkpt lat="46.84889" lon="6.84655">
        <ele>448.6</ele>
        <time>2022-09-30T09:01:56Z</time>
      </trkpt>
      <trkpt lat="46.84891" lon="6.84656">
        <ele>448.7</ele>
        <time>2022-09-30T09:01:57Z</time>
      </trkpt>
      <trkpt lat="46.84892" lon="6.84658">
        <ele>448.8</ele>
        <time>2022-09-30T09:01:58Z</time>
      </trkpt>
      <trkpt lat="46.84895" lon="6.8466">
        <ele>448.9</ele>
        <time>2022-09-30T09:01:59Z</time>
      </trkpt>
      <trkpt lat="46.84896" lon="6.84661">
        <ele>449</ele>
        <time>2022-09-30T09:02:00Z</time>
      </trkpt>
      <trkpt lat="46.84898" lon="6.84661">
        <ele>449.1</ele>
        <time>2022-09-30T09:02:01Z</time>
      </trkpt>
      <trkpt lat="46.84899" lon="6.84662">
        <ele>449.1</ele>
        <time>2022-09-30T09:02:02Z</time>
      </trkpt>
      <trkpt lat="46.84901" lon="6.84664">
        <ele>449.2</ele>
        <time>2022-09-30T09:02:03Z</time>
      </trkpt>
      <trkpt lat="46.84903" lon="6.84664">
        <ele>449.3</ele>
        <time>2022-09-30T09:02:04Z</time>
      </trkpt>
      <trkpt lat="46.84904" lon="6.84664">
        <ele>449.4</ele>
        <time>2022-09-30T09:02:05Z</time>
      </trkpt>
      <trkpt lat="46.84906" lon="6.84665">
        <ele>449.5</ele>
        <time>2022-09-30T09:02:06Z</time>
      </trkpt>
      <trkpt lat="46.84907" lon="6.84666">
        <ele>449.5</ele>
        <time>2022-09-30T09:02:07Z</time>
      </trkpt>
      <trkpt lat="46.84909" lon="6.84667">
        <ele>449.6</ele>
        <time>2022-09-30T09:02:08Z</time>
      </trkpt>
      <trkpt lat="46.8491" lon="6.84668">
        <ele>449.7</ele>
        <time>2022-09-30T09:02:09Z</time>
      </trkpt>
      <trkpt lat="46.84913" lon="6.84671">
        <ele>449.8</ele>
        <time>2022-09-30T09:02:10Z</time>
      </trkpt>
      <trkpt lat="46.84914" lon="6.84672">
        <ele>449.8</ele>
        <time>2022-09-30T09:02:11Z</time>
      </trkpt>
      <trkpt lat="46.84915" lon="6.84674">
        <ele>449.9</ele>
        <time>2022-09-30T09:02:12Z</time>
      </trkpt>
      <trkpt lat="46.84916" lon="6.84675">
        <ele>449.9</ele>
        <time>2022-09-30T09:02:13Z</time>
      </trkpt>
      <trkpt lat="46.84917" lon="6.84677">
        <ele>450</ele>
        <time>2022-09-30T09:02:14Z</time>
      </trkpt>
      <trkpt lat="46.84919" lon="6.84678">
        <ele>450.1</ele>
        <time>2022-09-30T09:02:15Z</time>
      </trkpt>
      <trkpt lat="46.84922" lon="6.84681">
        <ele>450.4</ele>
        <time>2022-09-30T09:02:16Z</time>
      </trkpt>
      <trkpt lat="46.84923" lon="6.84682">
        <ele>450.5</ele>
        <time>2022-09-30T09:02:17Z</time>
      </trkpt>
      <trkpt lat="46.84923" lon="6.84684">
        <ele>450.5</ele>
        <time>2022-09-30T09:02:18Z</time>
      </trkpt>
      <trkpt lat="46.84924" lon="6.84685">
        <ele>450.6</ele>
        <time>2022-09-30T09:02:19Z</time>
      </trkpt>
      <trkpt lat="46.84925" lon="6.84687">
        <ele>450.7</ele>
        <time>2022-09-30T09:02:20Z</time>
      </trkpt>
      <trkpt lat="46.84927" lon="6.84689">
        <ele>450.9</ele>
        <time>2022-09-30T09:02:21Z</time>
      </trkpt>
      <trkpt lat="46.84927" lon="6.84691">
        <ele>451</ele>
        <time>2022-09-30T09:02:22Z</time>
      </trkpt>
      <trkpt lat="46.84929" lon="6.84692">
        <ele>451.1</ele>
        <time>2022-09-30T09:02:23Z</time>
      </trkpt>
      <trkpt lat="46.84931" lon="6.84696">
        <ele>451.3</ele>
        <time>2022-09-30T09:02:24Z</time>
      </trkpt>
      <trkpt lat="46.84932" lon="6.84697">
        <ele>451.4</ele>
        <time>2022-09-30T09:02:25Z</time>
      </trkpt>
      <trkpt lat="46.84934" lon="6.84699">
        <ele>451.5</ele>
        <time>2022-09-30T09:02:26Z</time>
      </trkpt>
      <trkpt lat="46.84934" lon="6.84699">
        <ele>451.6</ele>
        <time>2022-09-30T09:02:27Z</time>
      </trkpt>
      <trkpt lat="46.84937" lon="6.84701">
        <ele>451.8</ele>
        <time>2022-09-30T09:02:28Z</time>
      </trkpt>
      <trkpt lat="46.8494" lon="6.84703">
        <ele>452</ele>
        <time>2022-09-30T09:02:29Z</time>
      </trkpt>
      <trkpt lat="46.84941" lon="6.84703">
        <ele>452.1</ele>
        <time>2022-09-30T09:02:30Z</time>
      </trkpt>
      <trkpt lat="46.84944" lon="6.84706">
        <ele>452.3</ele>
        <time>2022-09-30T09:02:31Z</time>
      </trkpt>
      <trkpt lat="46.84945" lon="6.84707">
        <ele>452.4</ele>
        <time>2022-09-30T09:02:32Z</time>
      </trkpt>
      <trkpt lat="46.84947" lon="6.84708">
        <ele>452.5</ele>
        <time>2022-09-30T09:02:33Z</time>
      </trkpt>
      <trkpt lat="46.84948" lon="6.84708">
        <ele>452.6</ele>
        <time>2022-09-30T09:02:34Z</time>
      </trkpt>
      <trkpt lat="46.8495" lon="6.84711">
        <ele>452.8</ele>
        <time>2022-09-30T09:02:35Z</time>
      </trkpt>
      <trkpt lat="46.84951" lon="6.84711">
        <ele>452.8</ele>
        <time>2022-09-30T09:02:36Z</time>
      </trkpt>
      <trkpt lat="46.84952" lon="6.84712">
        <ele>452.9</ele>
        <time>2022-09-30T09:02:37Z</time>
      </trkpt>
      <trkpt lat="46.84954" lon="6.84712">
        <ele>453</ele>
        <time>2022-09-30T09:02:38Z</time>
      </trkpt>
      <trkpt lat="46.84955" lon="6.84717">
        <ele>453.3</ele>
        <time>2022-09-30T09:02:39Z</time>
      </trkpt>
      <trkpt lat="46.84955" lon="6.84721">
        <ele>453.7</ele>
        <time>2022-09-30T09:02:40Z</time>
      </trkpt>
      <trkpt lat="46.84955" lon="6.84723">
        <ele>453.7</ele>
        <time>2022-09-30T09:02:41Z</time>
      </trkpt>
      <trkpt lat="46.84953" lon="6.84726">
        <ele>453.9</ele>
        <time>2022-09-30T09:02:42Z</time>
      </trkpt>
      <trkpt lat="46.84952" lon="6.84727">
        <ele>454</ele>
        <time>2022-09-30T09:02:43Z</time>
      </trkpt>
      <trkpt lat="46.84951" lon="6.84731">
        <ele>454.1</ele>
        <time>2022-09-30T09:02:44Z</time>
      </trkpt>
      <trkpt lat="46.84951" lon="6.84732">
        <ele>454.2</ele>
        <time>2022-09-30T09:02:45Z</time>
      </trkpt>
      <trkpt lat="46.84951" lon="6.84737">
        <ele>454.4</ele>
        <time>2022-09-30T09:02:46Z</time>
      </trkpt>
      <trkpt lat="46.8495" lon="6.84739">
        <ele>454.4</ele>
        <time>2022-09-30T09:02:47Z</time>
      </trkpt>
      <trkpt lat="46.84948" lon="6.84742">
        <ele>454.6</ele>
        <time>2022-09-30T09:02:48Z</time>
      </trkpt>
      <trkpt lat="46.84948" lon="6.84743">
        <ele>454.7</ele>
        <time>2022-09-30T09:02:49Z</time>
      </trkpt>
      <trkpt lat="46.84946" lon="6.84746">
        <ele>454.8</ele>
        <time>2022-09-30T09:02:50Z</time>
      </trkpt>
      <trkpt lat="46.84945" lon="6.84747">
        <ele>454.9</ele>
        <time>2022-09-30T09:02:51Z</time>
      </trkpt>
      <trkpt lat="46.84944" lon="6.8475">
        <ele>455</ele>
        <time>2022-09-30T09:02:52Z</time>
      </trkpt>
      <trkpt lat="46.84943" lon="6.84751">
        <ele>455.1</ele>
        <time>2022-09-30T09:02:53Z</time>
      </trkpt>
      <trkpt lat="46.84942" lon="6.84756">
        <ele>455.2</ele>
        <time>2022-09-30T09:02:54Z</time>
      </trkpt>
      <trkpt lat="46.84942" lon="6.84757">
        <ele>455.3</ele>
        <time>2022-09-30T09:02:55Z</time>
      </trkpt>
      <trkpt lat="46.84939" lon="6.84759">
        <ele>455.5</ele>
        <time>2022-09-30T09:02:56Z</time>
      </trkpt>
      <trkpt lat="46.84938" lon="6.84759">
        <ele>455.5</ele>
        <time>2022-09-30T09:02:57Z</time>
      </trkpt>
      <trkpt lat="46.84937" lon="6.84762">
        <ele>455.6</ele>
        <time>2022-09-30T09:02:58Z</time>
      </trkpt>
      <trkpt lat="46.84936" lon="6.84764">
        <ele>455.7</ele>
        <time>2022-09-30T09:02:59Z</time>
      </trkpt>
      <trkpt lat="46.84934" lon="6.84766">
        <ele>455.8</ele>
        <time>2022-09-30T09:03:00Z</time>
      </trkpt>
      <trkpt lat="46.84933" lon="6.84767">
        <ele>455.9</ele>
        <time>2022-09-30T09:03:01Z</time>
      </trkpt>
      <trkpt lat="46.84931" lon="6.84771">
        <ele>456</ele>
        <time>2022-09-30T09:03:02Z</time>
      </trkpt>
      <trkpt lat="46.84931" lon="6.84772">
        <ele>456.1</ele>
        <time>2022-09-30T09:03:03Z</time>
      </trkpt>
      <trkpt lat="46.8493" lon="6.84773">
        <ele>456.1</ele>
        <time>2022-09-30T09:03:04Z</time>
      </trkpt>
      <trkpt lat="46.84929" lon="6.84775">
        <ele>456.2</ele>
        <time>2022-09-30T09:03:05Z</time>
      </trkpt>
      <trkpt lat="46.84925" lon="6.84777">
        <ele>456.4</ele>
        <time>2022-09-30T09:03:06Z</time>
      </trkpt>
      <trkpt lat="46.84924" lon="6.84778">
        <ele>456.4</ele>
        <time>2022-09-30T09:03:07Z</time>
      </trkpt>
      <trkpt lat="46.84923" lon="6.84779">
        <ele>456.5</ele>
        <time>2022-09-30T09:03:08Z</time>
      </trkpt>
      <trkpt lat="46.84922" lon="6.84781">
        <ele>456.6</ele>
        <time>2022-09-30T09:03:09Z</time>
      </trkpt>
      <trkpt lat="46.8492" lon="6.84785">
        <ele>456.7</ele>
        <time>2022-09-30T09:03:10Z</time>
      </trkpt>
      <trkpt lat="46.84919" lon="6.84786">
        <ele>456.8</ele>
        <time>2022-09-30T09:03:11Z</time>
      </trkpt>
      <trkpt lat="46.84917" lon="6.84788">
        <ele>456.9</ele>
        <time>2022-09-30T09:03:12Z</time>
      </trkpt>
      <trkpt lat="46.84916" lon="6.84788">
        <ele>456.9</ele>
        <time>2022-09-30T09:03:13Z</time>
      </trkpt>
      <trkpt lat="46.84914" lon="6.84793">
        <ele>457.1</ele>
        <time>2022-09-30T09:03:14Z</time>
      </trkpt>
      <trkpt lat="46.84913" lon="6.84794">
        <ele>457.1</ele>
        <time>2022-09-30T09:03:15Z</time>
      </trkpt>
      <trkpt lat="46.84911" lon="6.84797">
        <ele>457.2</ele>
        <time>2022-09-30T09:03:16Z</time>
      </trkpt>
      <trkpt lat="46.84911" lon="6.84798">
        <ele>457.2</ele>
        <time>2022-09-30T09:03:17Z</time>
      </trkpt>
      <trkpt lat="46.84908" lon="6.84802">
        <ele>457.4</ele>
        <time>2022-09-30T09:03:18Z</time>
      </trkpt>
      <trkpt lat="46.84907" lon="6.84803">
        <ele>457.4</ele>
        <time>2022-09-30T09:03:19Z</time>
      </trkpt>
      <trkpt lat="46.84905" lon="6.84806">
        <ele>457.5</ele>
        <time>2022-09-30T09:03:20Z</time>
      </trkpt>
      <trkpt lat="46.84905" lon="6.84807">
        <ele>457.5</ele>
        <time>2022-09-30T09:03:21Z</time>
      </trkpt>
      <trkpt lat="46.84903" lon="6.84811">
        <ele>457.7</ele>
        <time>2022-09-30T09:03:22Z</time>
      </trkpt>
      <trkpt lat="46.84903" lon="6.84813">
        <ele>457.7</ele>
        <time>2022-09-30T09:03:23Z</time>
      </trkpt>
      <trkpt lat="46.84903" lon="6.84817">
        <ele>457.8</ele>
        <time>2022-09-30T09:03:24Z</time>
      </trkpt>
      <trkpt lat="46.84903" lon="6.84819">
        <ele>458.4</ele>
        <time>2022-09-30T09:03:25Z</time>
      </trkpt>
      <trkpt lat="46.84904" lon="6.84822">
        <ele>458.5</ele>
        <time>2022-09-30T09:03:26Z</time>
      </trkpt>
      <trkpt lat="46.84905" lon="6.84823">
        <ele>458.5</ele>
        <time>2022-09-30T09:03:27Z</time>
      </trkpt>
      <trkpt lat="46.84908" lon="6.84826">
        <ele>458.7</ele>
        <time>2022-09-30T09:03:28Z</time>
      </trkpt>
      <trkpt lat="46.8491" lon="6.84829">
        <ele>458.8</ele>
        <time>2022-09-30T09:03:29Z</time>
      </trkpt>
      <trkpt lat="46.84911" lon="6.8483">
        <ele>458.9</ele>
        <time>2022-09-30T09:03:30Z</time>
      </trkpt>
      <trkpt lat="46.84913" lon="6.84834">
        <ele>459</ele>
        <time>2022-09-30T09:03:31Z</time>
      </trkpt>
      <trkpt lat="46.84913" lon="6.84835">
        <ele>459.1</ele>
        <time>2022-09-30T09:03:32Z</time>
      </trkpt>
      <trkpt lat="46.84916" lon="6.84837">
        <ele>459.2</ele>
        <time>2022-09-30T09:03:33Z</time>
      </trkpt>
      <trkpt lat="46.84916" lon="6.84838">
        <ele>459.3</ele>
        <time>2022-09-30T09:03:34Z</time>
      </trkpt>
      <trkpt lat="46.84919" lon="6.84841">
        <ele>459.4</ele>
        <time>2022-09-30T09:03:35Z</time>
      </trkpt>
      <trkpt lat="46.84919" lon="6.84842">
        <ele>459.5</ele>
        <time>2022-09-30T09:03:36Z</time>
      </trkpt>
      <trkpt lat="46.84922" lon="6.84845">
        <ele>459.6</ele>
        <time>2022-09-30T09:03:37Z</time>
      </trkpt>
      <trkpt lat="46.84922" lon="6.84847">
        <ele>459.7</ele>
        <time>2022-09-30T09:03:38Z</time>
      </trkpt>
      <trkpt lat="46.84924" lon="6.84847">
        <ele>459.8</ele>
        <time>2022-09-30T09:03:39Z</time>
      </trkpt>
      <trkpt lat="46.84924" lon="6.8485">
        <ele>459.8</ele>
        <time>2022-09-30T09:03:40Z</time>
      </trkpt>
      <trkpt lat="46.84927" lon="6.84852">
        <ele>460</ele>
        <time>2022-09-30T09:03:41Z</time>
      </trkpt>
      <trkpt lat="46.84928" lon="6.84852">
        <ele>460.1</ele>
        <time>2022-09-30T09:03:42Z</time>
      </trkpt>
      <trkpt lat="46.84931" lon="6.84853">
        <ele>460.2</ele>
        <time>2022-09-30T09:03:43Z</time>
      </trkpt>
      <trkpt lat="46.84932" lon="6.84854">
        <ele>460.3</ele>
        <time>2022-09-30T09:03:44Z</time>
      </trkpt>
      <trkpt lat="46.84934" lon="6.84858">
        <ele>460.4</ele>
        <time>2022-09-30T09:03:45Z</time>
      </trkpt>
      <trkpt lat="46.84935" lon="6.8486">
        <ele>460.4</ele>
        <time>2022-09-30T09:03:46Z</time>
      </trkpt>
      <trkpt lat="46.84937" lon="6.84863">
        <ele>460.5</ele>
        <time>2022-09-30T09:03:47Z</time>
      </trkpt>
      <trkpt lat="46.84938" lon="6.84864">
        <ele>460.5</ele>
        <time>2022-09-30T09:03:48Z</time>
      </trkpt>
      <trkpt lat="46.84941" lon="6.84867">
        <ele>460.6</ele>
        <time>2022-09-30T09:03:49Z</time>
      </trkpt>
      <trkpt lat="46.84942" lon="6.84869">
        <ele>460.7</ele>
        <time>2022-09-30T09:03:50Z</time>
      </trkpt>
      <trkpt lat="46.84943" lon="6.84873">
        <ele>460.8</ele>
        <time>2022-09-30T09:03:51Z</time>
      </trkpt>
      <trkpt lat="46.84944" lon="6.84874">
        <ele>460.8</ele>
        <time>2022-09-30T09:03:52Z</time>
      </trkpt>
      <trkpt lat="46.84947" lon="6.84877">
        <ele>460.9</ele>
        <time>2022-09-30T09:03:53Z</time>
      </trkpt>
      <trkpt lat="46.84948" lon="6.84878">
        <ele>460.9</ele>
        <time>2022-09-30T09:03:54Z</time>
      </trkpt>
      <trkpt lat="46.84949" lon="6.84882">
        <ele>461</ele>
        <time>2022-09-30T09:03:55Z</time>
      </trkpt>
      <trkpt lat="46.8495" lon="6.84882">
        <ele>461</ele>
        <time>2022-09-30T09:03:56Z</time>
      </trkpt>
      <trkpt lat="46.84951" lon="6.84887">
        <ele>461.1</ele>
        <time>2022-09-30T09:03:57Z</time>
      </trkpt>
      <trkpt lat="46.84951" lon="6.84889">
        <ele>461.1</ele>
        <time>2022-09-30T09:03:58Z</time>
      </trkpt>
      <trkpt lat="46.84953" lon="6.84892">
        <ele>461.2</ele>
        <time>2022-09-30T09:03:59Z</time>
      </trkpt>
      <trkpt lat="46.84953" lon="6.84894">
        <ele>461.2</ele>
        <time>2022-09-30T09:04:00Z</time>
      </trkpt>
      <trkpt lat="46.84952" lon="6.84896">
        <ele>461.3</ele>
        <time>2022-09-30T09:04:01Z</time>
      </trkpt>
      <trkpt lat="46.84953" lon="6.84899">
        <ele>461.3</ele>
        <time>2022-09-30T09:04:02Z</time>
      </trkpt>
      <trkpt lat="46.84954" lon="6.84903">
        <ele>461.4</ele>
        <time>2022-09-30T09:04:03Z</time>
      </trkpt>
      <trkpt lat="46.84954" lon="6.84905">
        <ele>461.4</ele>
        <time>2022-09-30T09:04:04Z</time>
      </trkpt>
      <trkpt lat="46.84956" lon="6.84908">
        <ele>461.5</ele>
        <time>2022-09-30T09:04:05Z</time>
      </trkpt>
      <trkpt lat="46.84957" lon="6.84908">
        <ele>461.5</ele>
        <time>2022-09-30T09:04:06Z</time>
      </trkpt>
      <trkpt lat="46.84958" lon="6.8491">
        <ele>461.5</ele>
        <time>2022-09-30T09:04:07Z</time>
      </trkpt>
      <trkpt lat="46.84959" lon="6.84911">
        <ele>461.6</ele>
        <time>2022-09-30T09:04:08Z</time>
      </trkpt>
      <trkpt lat="46.8496" lon="6.84913">
        <ele>461.6</ele>
        <time>2022-09-30T09:04:09Z</time>
      </trkpt>
      <trkpt lat="46.84961" lon="6.84916">
        <ele>461.6</ele>
        <time>2022-09-30T09:04:10Z</time>
      </trkpt>
      <trkpt lat="46.84963" lon="6.84919">
        <ele>461.7</ele>
        <time>2022-09-30T09:04:11Z</time>
      </trkpt>
      <trkpt lat="46.84964" lon="6.8492">
        <ele>461.8</ele>
        <time>2022-09-30T09:04:12Z</time>
      </trkpt>
      <trkpt lat="46.84964" lon="6.8492">
        <ele>461.8</ele>
        <time>2022-09-30T09:04:13Z</time>
      </trkpt>
      <trkpt lat="46.84964" lon="6.84921">
        <ele>461.8</ele>
        <time>2022-09-30T09:04:14Z</time>
      </trkpt>
      <trkpt lat="46.84963" lon="6.84923">
        <ele>461.8</ele>
        <time>2022-09-30T09:04:15Z</time>
      </trkpt>
      <trkpt lat="46.84963" lon="6.84924">
        <ele>461.8</ele>
        <time>2022-09-30T09:04:16Z</time>
      </trkpt>
      <trkpt lat="46.84962" lon="6.84923">
        <ele>461.8</ele>
        <time>2022-09-30T09:04:17Z</time>
      </trkpt>
      <trkpt lat="46.84963" lon="6.84923">
        <ele>461.8</ele>
        <time>2022-09-30T09:04:18Z</time>
      </trkpt>
      <trkpt lat="46.84963" lon="6.84923">
        <ele>461.8</ele>
        <time>2022-09-30T09:04:19Z</time>
      </trkpt>
      <trkpt lat="46.84964" lon="6.84923">
        <ele>461.8</ele>
        <time>2022-09-30T09:04:20Z</time>
      </trkpt>
      <trkpt lat="46.84964" lon="6.84923">
        <ele>461.8</ele>
        <time>2022-09-30T09:04:21Z</time>
      </trkpt>
      <trkpt lat="46.84965" lon="6.84923">
        <ele>461.8</ele>
        <time>2022-09-30T09:04:22Z</time>
      </trkpt>
      <trkpt lat="46.84965" lon="6.84923">
        <ele>461.8</ele>
        <time>2022-09-30T09:04:23Z</time>
      </trkpt>
      <trkpt lat="46.84966" lon="6.84923">
        <ele>461.8</ele>
        <time>2022-09-30T09:04:24Z</time>
      </trkpt>
      <trkpt lat="46.84966" lon="6.84923">
        <ele>461.8</ele>
        <time>2022-09-30T09:04:25Z</time>
      </trkpt>
      <trkpt lat="46.84969" lon="6.8492">
        <ele>461.8</ele>
        <time>2022-09-30T09:04:26Z</time>
      </trkpt>
      <trkpt lat="46.8497" lon="6.84919">
        <ele>461.8</ele>
        <time>2022-09-30T09:04:27Z</time>
      </trkpt>
      <trkpt lat="46.84971" lon="6.84915">
        <ele>461.8</ele>
        <time>2022-09-30T09:04:28Z</time>
      </trkpt>
      <trkpt lat="46.84974" lon="6.84917">
        <ele>461.8</ele>
        <time>2022-09-30T09:04:29Z</time>
      </trkpt>
      <trkpt lat="46.84974" lon="6.84912">
        <ele>461.8</ele>
        <time>2022-09-30T09:04:30Z</time>
      </trkpt>
      <trkpt lat="46.84977" lon="6.84911">
        <ele>461.9</ele>
        <time>2022-09-30T09:04:31Z</time>
      </trkpt>
      <trkpt lat="46.84978" lon="6.84911">
        <ele>461.9</ele>
        <time>2022-09-30T09:04:32Z</time>
      </trkpt>
      <trkpt lat="46.8498" lon="6.84912">
        <ele>461.9</ele>
        <time>2022-09-30T09:04:33Z</time>
      </trkpt>
      <trkpt lat="46.8498" lon="6.84914">
        <ele>461.9</ele>
        <time>2022-09-30T09:04:34Z</time>
      </trkpt>
      <trkpt lat="46.84983" lon="6.84915">
        <ele>461.9</ele>
        <time>2022-09-30T09:04:35Z</time>
      </trkpt>
      <trkpt lat="46.84986" lon="6.84917">
        <ele>462</ele>
        <time>2022-09-30T09:04:36Z</time>
      </trkpt>
      <trkpt lat="46.84987" lon="6.84921">
        <ele>462</ele>
        <time>2022-09-30T09:04:37Z</time>
      </trkpt>
      <trkpt lat="46.84988" lon="6.84922">
        <ele>462</ele>
        <time>2022-09-30T09:04:38Z</time>
      </trkpt>
      <trkpt lat="46.84988" lon="6.84924">
        <ele>462</ele>
        <time>2022-09-30T09:04:39Z</time>
      </trkpt>
      <trkpt lat="46.84988" lon="6.84925">
        <ele>462</ele>
        <time>2022-09-30T09:04:40Z</time>
      </trkpt>
      <trkpt lat="46.8499" lon="6.84925">
        <ele>462</ele>
        <time>2022-09-30T09:04:41Z</time>
      </trkpt>
      <trkpt lat="46.8499" lon="6.84928">
        <ele>462</ele>
        <time>2022-09-30T09:04:42Z</time>
      </trkpt>
      <trkpt lat="46.84991" lon="6.8493">
        <ele>462.1</ele>
        <time>2022-09-30T09:04:43Z</time>
      </trkpt>
      <trkpt lat="46.84992" lon="6.84931">
        <ele>462.1</ele>
        <time>2022-09-30T09:04:44Z</time>
      </trkpt>
      <trkpt lat="46.84992" lon="6.84933">
        <ele>462.1</ele>
        <time>2022-09-30T09:04:45Z</time>
      </trkpt>
      <trkpt lat="46.84993" lon="6.84934">
        <ele>462.1</ele>
        <time>2022-09-30T09:04:46Z</time>
      </trkpt>
      <trkpt lat="46.84993" lon="6.84936">
        <ele>462.1</ele>
        <time>2022-09-30T09:04:47Z</time>
      </trkpt>
      <trkpt lat="46.84994" lon="6.84937">
        <ele>462.2</ele>
        <time>2022-09-30T09:04:48Z</time>
      </trkpt>
      <trkpt lat="46.84995" lon="6.84939">
        <ele>462.2</ele>
        <time>2022-09-30T09:04:49Z</time>
      </trkpt>
      <trkpt lat="46.84996" lon="6.84941">
        <ele>462.2</ele>
        <time>2022-09-30T09:04:50Z</time>
      </trkpt>
      <trkpt lat="46.84999" lon="6.84944">
        <ele>462.3</ele>
        <time>2022-09-30T09:04:51Z</time>
      </trkpt>
      <trkpt lat="46.85" lon="6.84944">
        <ele>462.3</ele>
        <time>2022-09-30T09:04:52Z</time>
      </trkpt>
      <trkpt lat="46.85002" lon="6.84948">
        <ele>462.3</ele>
        <time>2022-09-30T09:04:53Z</time>
      </trkpt>
      <trkpt lat="46.85003" lon="6.84949">
        <ele>462.4</ele>
        <time>2022-09-30T09:04:54Z</time>
      </trkpt>
      <trkpt lat="46.85006" lon="6.84952">
        <ele>462.4</ele>
        <time>2022-09-30T09:04:55Z</time>
      </trkpt>
      <trkpt lat="46.85007" lon="6.84953">
        <ele>462.4</ele>
        <time>2022-09-30T09:04:56Z</time>
      </trkpt>
      <trkpt lat="46.85008" lon="6.84954">
        <ele>462.5</ele>
        <time>2022-09-30T09:04:57Z</time>
      </trkpt>
      <trkpt lat="46.85009" lon="6.84957">
        <ele>462.5</ele>
        <time>2022-09-30T09:04:58Z</time>
      </trkpt>
      <trkpt lat="46.85011" lon="6.8496">
        <ele>462.6</ele>
        <time>2022-09-30T09:04:59Z</time>
      </trkpt>
      <trkpt lat="46.85012" lon="6.84961">
        <ele>462.6</ele>
        <time>2022-09-30T09:05:00Z</time>
      </trkpt>
      <trkpt lat="46.85014" lon="6.84965">
        <ele>462.6</ele>
        <time>2022-09-30T09:05:01Z</time>
      </trkpt>
      <trkpt lat="46.85015" lon="6.84969">
        <ele>462.7</ele>
        <time>2022-09-30T09:05:02Z</time>
      </trkpt>
      <trkpt lat="46.85018" lon="6.84973">
        <ele>462.8</ele>
        <time>2022-09-30T09:05:03Z</time>
      </trkpt>
      <trkpt lat="46.85018" lon="6.84974">
        <ele>462.8</ele>
        <time>2022-09-30T09:05:04Z</time>
      </trkpt>
      <trkpt lat="46.85019" lon="6.84977">
        <ele>462.9</ele>
        <time>2022-09-30T09:05:05Z</time>
      </trkpt>
      <trkpt lat="46.85019" lon="6.84978">
        <ele>462.9</ele>
        <time>2022-09-30T09:05:06Z</time>
      </trkpt>
      <trkpt lat="46.8502" lon="6.84979">
        <ele>462.9</ele>
        <time>2022-09-30T09:05:07Z</time>
      </trkpt>
      <trkpt lat="46.85023" lon="6.84982">
        <ele>463</ele>
        <time>2022-09-30T09:05:08Z</time>
      </trkpt>
      <trkpt lat="46.85025" lon="6.84985">
        <ele>463</ele>
        <time>2022-09-30T09:05:09Z</time>
      </trkpt>
      <trkpt lat="46.85027" lon="6.84987">
        <ele>463.1</ele>
        <time>2022-09-30T09:05:10Z</time>
      </trkpt>
      <trkpt lat="46.85028" lon="6.84991">
        <ele>463.1</ele>
        <time>2022-09-30T09:05:11Z</time>
      </trkpt>
      <trkpt lat="46.8503" lon="6.84995">
        <ele>463.2</ele>
        <time>2022-09-30T09:05:12Z</time>
      </trkpt>
      <trkpt lat="46.85031" lon="6.84999">
        <ele>463.2</ele>
        <time>2022-09-30T09:05:13Z</time>
      </trkpt>
      <trkpt lat="46.85033" lon="6.85003">
        <ele>463.2</ele>
        <time>2022-09-30T09:05:14Z</time>
      </trkpt>
      <trkpt lat="46.85036" lon="6.85007">
        <ele>463.3</ele>
        <time>2022-09-30T09:05:15Z</time>
      </trkpt>
      <trkpt lat="46.85037" lon="6.8501">
        <ele>463.3</ele>
        <time>2022-09-30T09:05:16Z</time>
      </trkpt>
      <trkpt lat="46.85039" lon="6.85013">
        <ele>463.4</ele>
        <time>2022-09-30T09:05:17Z</time>
      </trkpt>
      <trkpt lat="46.85042" lon="6.85018">
        <ele>463.4</ele>
        <time>2022-09-30T09:05:18Z</time>
      </trkpt>
      <trkpt lat="46.85044" lon="6.85022">
        <ele>463.4</ele>
        <time>2022-09-30T09:05:19Z</time>
      </trkpt>
      <trkpt lat="46.85046" lon="6.85026">
        <ele>463.5</ele>
        <time>2022-09-30T09:05:20Z</time>
      </trkpt>
      <trkpt lat="46.85048" lon="6.85031">
        <ele>463.5</ele>
        <time>2022-09-30T09:05:21Z</time>
      </trkpt>
      <trkpt lat="46.85049" lon="6.85035">
        <ele>463.6</ele>
        <time>2022-09-30T09:05:22Z</time>
      </trkpt>
      <trkpt lat="46.85051" lon="6.8504">
        <ele>463.6</ele>
        <time>2022-09-30T09:05:23Z</time>
      </trkpt>
      <trkpt lat="46.85053" lon="6.85045">
        <ele>463.7</ele>
        <time>2022-09-30T09:05:24Z</time>
      </trkpt>
      <trkpt lat="46.85055" lon="6.8505">
        <ele>463.7</ele>
        <time>2022-09-30T09:05:25Z</time>
      </trkpt>
      <trkpt lat="46.85057" lon="6.85054">
        <ele>463.7</ele>
        <time>2022-09-30T09:05:26Z</time>
      </trkpt>
      <trkpt lat="46.85059" lon="6.85058">
        <ele>463.8</ele>
        <time>2022-09-30T09:05:27Z</time>
      </trkpt>
      <trkpt lat="46.8506" lon="6.85063">
        <ele>463.8</ele>
        <time>2022-09-30T09:05:28Z</time>
      </trkpt>
      <trkpt lat="46.85063" lon="6.85068">
        <ele>463.9</ele>
        <time>2022-09-30T09:05:29Z</time>
      </trkpt>
      <trkpt lat="46.85064" lon="6.85072">
        <ele>463.9</ele>
        <time>2022-09-30T09:05:30Z</time>
      </trkpt>
      <trkpt lat="46.85067" lon="6.85076">
        <ele>463.9</ele>
        <time>2022-09-30T09:05:31Z</time>
      </trkpt>
      <trkpt lat="46.85069" lon="6.8508">
        <ele>464</ele>
        <time>2022-09-30T09:05:32Z</time>
      </trkpt>
      <trkpt lat="46.85071" lon="6.85084">
        <ele>464</ele>
        <time>2022-09-30T09:05:33Z</time>
      </trkpt>
      <trkpt lat="46.85073" lon="6.85089">
        <ele>464.1</ele>
        <time>2022-09-30T09:05:34Z</time>
      </trkpt>
      <trkpt lat="46.85074" lon="6.85094">
        <ele>464.1</ele>
        <time>2022-09-30T09:05:35Z</time>
      </trkpt>
      <trkpt lat="46.85076" lon="6.85098">
        <ele>464.2</ele>
        <time>2022-09-30T09:05:36Z</time>
      </trkpt>
      <trkpt lat="46.85078" lon="6.85103">
        <ele>464.3</ele>
        <time>2022-09-30T09:05:37Z</time>
      </trkpt>
      <trkpt lat="46.8508" lon="6.85107">
        <ele>464.3</ele>
        <time>2022-09-30T09:05:38Z</time>
      </trkpt>
      <trkpt lat="46.85081" lon="6.85111">
        <ele>464.4</ele>
        <time>2022-09-30T09:05:39Z</time>
      </trkpt>
      <trkpt lat="46.85082" lon="6.85116">
        <ele>464.4</ele>
        <time>2022-09-30T09:05:40Z</time>
      </trkpt>
      <trkpt lat="46.85084" lon="6.8512">
        <ele>464.5</ele>
        <time>2022-09-30T09:05:41Z</time>
      </trkpt>
      <trkpt lat="46.85085" lon="6.85125">
        <ele>464.5</ele>
        <time>2022-09-30T09:05:42Z</time>
      </trkpt>
      <trkpt lat="46.85087" lon="6.85128">
        <ele>464.5</ele>
        <time>2022-09-30T09:05:43Z</time>
      </trkpt>
      <trkpt lat="46.85089" lon="6.85132">
        <ele>464.6</ele>
        <time>2022-09-30T09:05:44Z</time>
      </trkpt>
      <trkpt lat="46.8509" lon="6.85136">
        <ele>464.6</ele>
        <time>2022-09-30T09:05:45Z</time>
      </trkpt>
      <trkpt lat="46.85092" lon="6.85141">
        <ele>464.7</ele>
        <time>2022-09-30T09:05:46Z</time>
      </trkpt>
      <trkpt lat="46.85094" lon="6.85147">
        <ele>464.7</ele>
        <time>2022-09-30T09:05:47Z</time>
      </trkpt>
      <trkpt lat="46.85096" lon="6.85151">
        <ele>464.8</ele>
        <time>2022-09-30T09:05:48Z</time>
      </trkpt>
      <trkpt lat="46.85098" lon="6.85155">
        <ele>464.8</ele>
        <time>2022-09-30T09:05:49Z</time>
      </trkpt>
      <trkpt lat="46.851" lon="6.85159">
        <ele>464.9</ele>
        <time>2022-09-30T09:05:50Z</time>
      </trkpt>
      <trkpt lat="46.85102" lon="6.85164">
        <ele>464.9</ele>
        <time>2022-09-30T09:05:51Z</time>
      </trkpt>
      <trkpt lat="46.85104" lon="6.85168">
        <ele>465</ele>
        <time>2022-09-30T09:05:52Z</time>
      </trkpt>
      <trkpt lat="46.85106" lon="6.85173">
        <ele>465</ele>
        <time>2022-09-30T09:05:53Z</time>
      </trkpt>
      <trkpt lat="46.85108" lon="6.85177">
        <ele>465.1</ele>
        <time>2022-09-30T09:05:54Z</time>
      </trkpt>
      <trkpt lat="46.8511" lon="6.85182">
        <ele>465.1</ele>
        <time>2022-09-30T09:05:55Z</time>
      </trkpt>
      <trkpt lat="46.85111" lon="6.85187">
        <ele>465.2</ele>
        <time>2022-09-30T09:05:56Z</time>
      </trkpt>
      <trkpt lat="46.85114" lon="6.85192">
        <ele>465.2</ele>
        <time>2022-09-30T09:05:57Z</time>
      </trkpt>
      <trkpt lat="46.85116" lon="6.85197">
        <ele>465.3</ele>
        <time>2022-09-30T09:05:58Z</time>
      </trkpt>
      <trkpt lat="46.85118" lon="6.85203">
        <ele>465.3</ele>
        <time>2022-09-30T09:05:59Z</time>
      </trkpt>
      <trkpt lat="46.8512" lon="6.85208">
        <ele>465.4</ele>
        <time>2022-09-30T09:06:00Z</time>
      </trkpt>
      <trkpt lat="46.85123" lon="6.85215">
        <ele>465.5</ele>
        <time>2022-09-30T09:06:01Z</time>
      </trkpt>
      <trkpt lat="46.85125" lon="6.8522">
        <ele>465.5</ele>
        <time>2022-09-30T09:06:02Z</time>
      </trkpt>
      <trkpt lat="46.85128" lon="6.85226">
        <ele>465.6</ele>
        <time>2022-09-30T09:06:03Z</time>
      </trkpt>
      <trkpt lat="46.8513" lon="6.85231">
        <ele>465.7</ele>
        <time>2022-09-30T09:06:04Z</time>
      </trkpt>
      <trkpt lat="46.85132" lon="6.85237">
        <ele>465.7</ele>
        <time>2022-09-30T09:06:05Z</time>
      </trkpt>
      <trkpt lat="46.85134" lon="6.85243">
        <ele>465.8</ele>
        <time>2022-09-30T09:06:06Z</time>
      </trkpt>
      <trkpt lat="46.85136" lon="6.85248">
        <ele>465.9</ele>
        <time>2022-09-30T09:06:07Z</time>
      </trkpt>
      <trkpt lat="46.85139" lon="6.85254">
        <ele>465.9</ele>
        <time>2022-09-30T09:06:08Z</time>
      </trkpt>
      <trkpt lat="46.85141" lon="6.85259">
        <ele>466</ele>
        <time>2022-09-30T09:06:09Z</time>
      </trkpt>
      <trkpt lat="46.85142" lon="6.85265">
        <ele>466</ele>
        <time>2022-09-30T09:06:10Z</time>
      </trkpt>
      <trkpt lat="46.85144" lon="6.8527">
        <ele>466.1</ele>
        <time>2022-09-30T09:06:11Z</time>
      </trkpt>
      <trkpt lat="46.85145" lon="6.85275">
        <ele>466.1</ele>
        <time>2022-09-30T09:06:12Z</time>
      </trkpt>
      <trkpt lat="46.85148" lon="6.85281">
        <ele>466.2</ele>
        <time>2022-09-30T09:06:13Z</time>
      </trkpt>
      <trkpt lat="46.8515" lon="6.85285">
        <ele>466.2</ele>
        <time>2022-09-30T09:06:14Z</time>
      </trkpt>
      <trkpt lat="46.85151" lon="6.85291">
        <ele>466.3</ele>
        <time>2022-09-30T09:06:15Z</time>
      </trkpt>
      <trkpt lat="46.85153" lon="6.85297">
        <ele>466.3</ele>
        <time>2022-09-30T09:06:16Z</time>
      </trkpt>
      <trkpt lat="46.85154" lon="6.85303">
        <ele>466.4</ele>
        <time>2022-09-30T09:06:17Z</time>
      </trkpt>
      <trkpt lat="46.85155" lon="6.85307">
        <ele>466.4</ele>
        <time>2022-09-30T09:06:18Z</time>
      </trkpt>
      <trkpt lat="46.85158" lon="6.85313">
        <ele>466.5</ele>
        <time>2022-09-30T09:06:19Z</time>
      </trkpt>
      <trkpt lat="46.8516" lon="6.85318">
        <ele>466.5</ele>
        <time>2022-09-30T09:06:20Z</time>
      </trkpt>
      <trkpt lat="46.85161" lon="6.85323">
        <ele>466.6</ele>
        <time>2022-09-30T09:06:21Z</time>
      </trkpt>
      <trkpt lat="46.85163" lon="6.85327">
        <ele>466.6</ele>
        <time>2022-09-30T09:06:22Z</time>
      </trkpt>
      <trkpt lat="46.85165" lon="6.85333">
        <ele>466.7</ele>
        <time>2022-09-30T09:06:23Z</time>
      </trkpt>
      <trkpt lat="46.85166" lon="6.85338">
        <ele>466.8</ele>
        <time>2022-09-30T09:06:24Z</time>
      </trkpt>
      <trkpt lat="46.85167" lon="6.85342">
        <ele>466.8</ele>
        <time>2022-09-30T09:06:25Z</time>
      </trkpt>
      <trkpt lat="46.85168" lon="6.85347">
        <ele>466.8</ele>
        <time>2022-09-30T09:06:26Z</time>
      </trkpt>
      <trkpt lat="46.8517" lon="6.85352">
        <ele>466.9</ele>
        <time>2022-09-30T09:06:27Z</time>
      </trkpt>
      <trkpt lat="46.85171" lon="6.85358">
        <ele>466.9</ele>
        <time>2022-09-30T09:06:28Z</time>
      </trkpt>
      <trkpt lat="46.85173" lon="6.85363">
        <ele>467</ele>
        <time>2022-09-30T09:06:29Z</time>
      </trkpt>
      <trkpt lat="46.85175" lon="6.85368">
        <ele>467</ele>
        <time>2022-09-30T09:06:30Z</time>
      </trkpt>
      <trkpt lat="46.85176" lon="6.85373">
        <ele>467.1</ele>
        <time>2022-09-30T09:06:31Z</time>
      </trkpt>
      <trkpt lat="46.85177" lon="6.85377">
        <ele>467.1</ele>
        <time>2022-09-30T09:06:32Z</time>
      </trkpt>
      <trkpt lat="46.85179" lon="6.85383">
        <ele>467.2</ele>
        <time>2022-09-30T09:06:33Z</time>
      </trkpt>
      <trkpt lat="46.85181" lon="6.85387">
        <ele>467.3</ele>
        <time>2022-09-30T09:06:34Z</time>
      </trkpt>
      <trkpt lat="46.85182" lon="6.85392">
        <ele>467.3</ele>
        <time>2022-09-30T09:06:35Z</time>
      </trkpt>
      <trkpt lat="46.85183" lon="6.85397">
        <ele>467.4</ele>
        <time>2022-09-30T09:06:36Z</time>
      </trkpt>
      <trkpt lat="46.85184" lon="6.85401">
        <ele>467.5</ele>
        <time>2022-09-30T09:06:37Z</time>
      </trkpt>
      <trkpt lat="46.85185" lon="6.85406">
        <ele>467.5</ele>
        <time>2022-09-30T09:06:38Z</time>
      </trkpt>
      <trkpt lat="46.85186" lon="6.85411">
        <ele>467.6</ele>
        <time>2022-09-30T09:06:39Z</time>
      </trkpt>
      <trkpt lat="46.85188" lon="6.85415">
        <ele>467.7</ele>
        <time>2022-09-30T09:06:40Z</time>
      </trkpt>
      <trkpt lat="46.85189" lon="6.8542">
        <ele>467.7</ele>
        <time>2022-09-30T09:06:41Z</time>
      </trkpt>
      <trkpt lat="46.85191" lon="6.85425">
        <ele>467.8</ele>
        <time>2022-09-30T09:06:42Z</time>
      </trkpt>
      <trkpt lat="46.85192" lon="6.8543">
        <ele>467.9</ele>
        <time>2022-09-30T09:06:43Z</time>
      </trkpt>
      <trkpt lat="46.85193" lon="6.85434">
        <ele>467.9</ele>
        <time>2022-09-30T09:06:44Z</time>
      </trkpt>
      <trkpt lat="46.85195" lon="6.85439">
        <ele>468</ele>
        <time>2022-09-30T09:06:45Z</time>
      </trkpt>
      <trkpt lat="46.85196" lon="6.85444">
        <ele>468.1</ele>
        <time>2022-09-30T09:06:46Z</time>
      </trkpt>
      <trkpt lat="46.85198" lon="6.85449">
        <ele>468.1</ele>
        <time>2022-09-30T09:06:47Z</time>
      </trkpt>
      <trkpt lat="46.85199" lon="6.85454">
        <ele>468.2</ele>
        <time>2022-09-30T09:06:48Z</time>
      </trkpt>
      <trkpt lat="46.85201" lon="6.85459">
        <ele>468.2</ele>
        <time>2022-09-30T09:06:49Z</time>
      </trkpt>
      <trkpt lat="46.85202" lon="6.85464">
        <ele>468.3</ele>
        <time>2022-09-30T09:06:50Z</time>
      </trkpt>
      <trkpt lat="46.85204" lon="6.85469">
        <ele>468.3</ele>
        <time>2022-09-30T09:06:51Z</time>
      </trkpt>
      <trkpt lat="46.85205" lon="6.85473">
        <ele>468.4</ele>
        <time>2022-09-30T09:06:52Z</time>
      </trkpt>
      <trkpt lat="46.85206" lon="6.85478">
        <ele>468.4</ele>
        <time>2022-09-30T09:06:53Z</time>
      </trkpt>
      <trkpt lat="46.85208" lon="6.85483">
        <ele>468.5</ele>
        <time>2022-09-30T09:06:54Z</time>
      </trkpt>
      <trkpt lat="46.85209" lon="6.85488">
        <ele>468.6</ele>
        <time>2022-09-30T09:06:55Z</time>
      </trkpt>
      <trkpt lat="46.85211" lon="6.85492">
        <ele>468.6</ele>
        <time>2022-09-30T09:06:56Z</time>
      </trkpt>
      <trkpt lat="46.85212" lon="6.85497">
        <ele>468.7</ele>
        <time>2022-09-30T09:06:57Z</time>
      </trkpt>
      <trkpt lat="46.85213" lon="6.85502">
        <ele>468.7</ele>
        <time>2022-09-30T09:06:58Z</time>
      </trkpt>
      <trkpt lat="46.85215" lon="6.85506">
        <ele>468.8</ele>
        <time>2022-09-30T09:06:59Z</time>
      </trkpt>
      <trkpt lat="46.85216" lon="6.85512">
        <ele>468.9</ele>
        <time>2022-09-30T09:07:00Z</time>
      </trkpt>
      <trkpt lat="46.85217" lon="6.85516">
        <ele>468.9</ele>
        <time>2022-09-30T09:07:01Z</time>
      </trkpt>
      <trkpt lat="46.85218" lon="6.85521">
        <ele>469</ele>
        <time>2022-09-30T09:07:02Z</time>
      </trkpt>
      <trkpt lat="46.8522" lon="6.85524">
        <ele>469</ele>
        <time>2022-09-30T09:07:03Z</time>
      </trkpt>
      <trkpt lat="46.85221" lon="6.8553">
        <ele>469.1</ele>
        <time>2022-09-30T09:07:04Z</time>
      </trkpt>
      <trkpt lat="46.85222" lon="6.85535">
        <ele>469.1</ele>
        <time>2022-09-30T09:07:05Z</time>
      </trkpt>
      <trkpt lat="46.85223" lon="6.8554">
        <ele>469.2</ele>
        <time>2022-09-30T09:07:06Z</time>
      </trkpt>
      <trkpt lat="46.85225" lon="6.85544">
        <ele>469.3</ele>
        <time>2022-09-30T09:07:07Z</time>
      </trkpt>
      <trkpt lat="46.85226" lon="6.85548">
        <ele>469.3</ele>
        <time>2022-09-30T09:07:08Z</time>
      </trkpt>
      <trkpt lat="46.85228" lon="6.85553">
        <ele>469.4</ele>
        <time>2022-09-30T09:07:09Z</time>
      </trkpt>
      <trkpt lat="46.85229" lon="6.85558">
        <ele>469.4</ele>
        <time>2022-09-30T09:07:10Z</time>
      </trkpt>
      <trkpt lat="46.8523" lon="6.85563">
        <ele>469.5</ele>
        <time>2022-09-30T09:07:11Z</time>
      </trkpt>
      <trkpt lat="46.85232" lon="6.85567">
        <ele>469.6</ele>
        <time>2022-09-30T09:07:12Z</time>
      </trkpt>
      <trkpt lat="46.85233" lon="6.85572">
        <ele>469.7</ele>
        <time>2022-09-30T09:07:13Z</time>
      </trkpt>
      <trkpt lat="46.85235" lon="6.85577">
        <ele>469.7</ele>
        <time>2022-09-30T09:07:14Z</time>
      </trkpt>
      <trkpt lat="46.85236" lon="6.85582">
        <ele>469.8</ele>
        <time>2022-09-30T09:07:15Z</time>
      </trkpt>
      <trkpt lat="46.85237" lon="6.85587">
        <ele>469.9</ele>
        <time>2022-09-30T09:07:16Z</time>
      </trkpt>
      <trkpt lat="46.85239" lon="6.85591">
        <ele>469.9</ele>
        <time>2022-09-30T09:07:17Z</time>
      </trkpt>
      <trkpt lat="46.8524" lon="6.85596">
        <ele>470</ele>
        <time>2022-09-30T09:07:18Z</time>
      </trkpt>
      <trkpt lat="46.85242" lon="6.85601">
        <ele>470.1</ele>
        <time>2022-09-30T09:07:19Z</time>
      </trkpt>
      <trkpt lat="46.85243" lon="6.85605">
        <ele>470.2</ele>
        <time>2022-09-30T09:07:20Z</time>
      </trkpt>
      <trkpt lat="46.85244" lon="6.8561">
        <ele>470.2</ele>
        <time>2022-09-30T09:07:21Z</time>
      </trkpt>
      <trkpt lat="46.85246" lon="6.85615">
        <ele>470.3</ele>
        <time>2022-09-30T09:07:22Z</time>
      </trkpt>
      <trkpt lat="46.85247" lon="6.8562">
        <ele>470.4</ele>
        <time>2022-09-30T09:07:23Z</time>
      </trkpt>
      <trkpt lat="46.85248" lon="6.85625">
        <ele>470.5</ele>
        <time>2022-09-30T09:07:24Z</time>
      </trkpt>
      <trkpt lat="46.8525" lon="6.85629">
        <ele>470.6</ele>
        <time>2022-09-30T09:07:25Z</time>
      </trkpt>
      <trkpt lat="46.85251" lon="6.85635">
        <ele>470.6</ele>
        <time>2022-09-30T09:07:26Z</time>
      </trkpt>
      <trkpt lat="46.85253" lon="6.85639">
        <ele>470.7</ele>
        <time>2022-09-30T09:07:27Z</time>
      </trkpt>
      <trkpt lat="46.85255" lon="6.85644">
        <ele>470.8</ele>
        <time>2022-09-30T09:07:28Z</time>
      </trkpt>
      <trkpt lat="46.85256" lon="6.85649">
        <ele>470.8</ele>
        <time>2022-09-30T09:07:29Z</time>
      </trkpt>
      <trkpt lat="46.85257" lon="6.85654">
        <ele>470.9</ele>
        <time>2022-09-30T09:07:30Z</time>
      </trkpt>
      <trkpt lat="46.85258" lon="6.85659">
        <ele>471</ele>
        <time>2022-09-30T09:07:31Z</time>
      </trkpt>
      <trkpt lat="46.8526" lon="6.85664">
        <ele>471.1</ele>
        <time>2022-09-30T09:07:32Z</time>
      </trkpt>
      <trkpt lat="46.85261" lon="6.85669">
        <ele>471.2</ele>
        <time>2022-09-30T09:07:33Z</time>
      </trkpt>
      <trkpt lat="46.85263" lon="6.85674">
        <ele>471.2</ele>
        <time>2022-09-30T09:07:34Z</time>
      </trkpt>
      <trkpt lat="46.85264" lon="6.85678">
        <ele>471.3</ele>
        <time>2022-09-30T09:07:35Z</time>
      </trkpt>
      <trkpt lat="46.85266" lon="6.85683">
        <ele>471.4</ele>
        <time>2022-09-30T09:07:36Z</time>
      </trkpt>
      <trkpt lat="46.85267" lon="6.85688">
        <ele>471.5</ele>
        <time>2022-09-30T09:07:37Z</time>
      </trkpt>
      <trkpt lat="46.85268" lon="6.85692">
        <ele>471.6</ele>
        <time>2022-09-30T09:07:38Z</time>
      </trkpt>
      <trkpt lat="46.85269" lon="6.85696">
        <ele>471.7</ele>
        <time>2022-09-30T09:07:39Z</time>
      </trkpt>
      <trkpt lat="46.85271" lon="6.85701">
        <ele>471.8</ele>
        <time>2022-09-30T09:07:40Z</time>
      </trkpt>
      <trkpt lat="46.85272" lon="6.85705">
        <ele>471.8</ele>
        <time>2022-09-30T09:07:41Z</time>
      </trkpt>
      <trkpt lat="46.85273" lon="6.85709">
        <ele>471.9</ele>
        <time>2022-09-30T09:07:42Z</time>
      </trkpt>
      <trkpt lat="46.85274" lon="6.85714">
        <ele>472</ele>
        <time>2022-09-30T09:07:43Z</time>
      </trkpt>
      <trkpt lat="46.85276" lon="6.85718">
        <ele>472.1</ele>
        <time>2022-09-30T09:07:44Z</time>
      </trkpt>
      <trkpt lat="46.85277" lon="6.85722">
        <ele>472.2</ele>
        <time>2022-09-30T09:07:45Z</time>
      </trkpt>
      <trkpt lat="46.85278" lon="6.85727">
        <ele>472.2</ele>
        <time>2022-09-30T09:07:46Z</time>
      </trkpt>
      <trkpt lat="46.85279" lon="6.85731">
        <ele>472.3</ele>
        <time>2022-09-30T09:07:47Z</time>
      </trkpt>
      <trkpt lat="46.8528" lon="6.85736">
        <ele>472.4</ele>
        <time>2022-09-30T09:07:48Z</time>
      </trkpt>
      <trkpt lat="46.85281" lon="6.8574">
        <ele>472.5</ele>
        <time>2022-09-30T09:07:49Z</time>
      </trkpt>
      <trkpt lat="46.85282" lon="6.85744">
        <ele>472.6</ele>
        <time>2022-09-30T09:07:50Z</time>
      </trkpt>
      <trkpt lat="46.85283" lon="6.85749">
        <ele>472.6</ele>
        <time>2022-09-30T09:07:51Z</time>
      </trkpt>
      <trkpt lat="46.85285" lon="6.85753">
        <ele>472.7</ele>
        <time>2022-09-30T09:07:52Z</time>
      </trkpt>
      <trkpt lat="46.85285" lon="6.85757">
        <ele>472.8</ele>
        <time>2022-09-30T09:07:53Z</time>
      </trkpt>
      <trkpt lat="46.85287" lon="6.85761">
        <ele>472.9</ele>
        <time>2022-09-30T09:07:54Z</time>
      </trkpt>
      <trkpt lat="46.85288" lon="6.85766">
        <ele>473</ele>
        <time>2022-09-30T09:07:55Z</time>
      </trkpt>
      <trkpt lat="46.85289" lon="6.8577">
        <ele>473.1</ele>
        <time>2022-09-30T09:07:56Z</time>
      </trkpt>
      <trkpt lat="46.8529" lon="6.85774">
        <ele>473.1</ele>
        <time>2022-09-30T09:07:57Z</time>
      </trkpt>
      <trkpt lat="46.85291" lon="6.85778">
        <ele>473.2</ele>
        <time>2022-09-30T09:07:58Z</time>
      </trkpt>
      <trkpt lat="46.85292" lon="6.85782">
        <ele>473.3</ele>
        <time>2022-09-30T09:07:59Z</time>
      </trkpt>
      <trkpt lat="46.85293" lon="6.85786">
        <ele>473.4</ele>
        <time>2022-09-30T09:08:00Z</time>
      </trkpt>
      <trkpt lat="46.85293" lon="6.85791">
        <ele>473.5</ele>
        <time>2022-09-30T09:08:01Z</time>
      </trkpt>
      <trkpt lat="46.85295" lon="6.85796">
        <ele>473.6</ele>
        <time>2022-09-30T09:08:02Z</time>
      </trkpt>
      <trkpt lat="46.85296" lon="6.85799">
        <ele>473.6</ele>
        <time>2022-09-30T09:08:03Z</time>
      </trkpt>
      <trkpt lat="46.85297" lon="6.85804">
        <ele>473.7</ele>
        <time>2022-09-30T09:08:04Z</time>
      </trkpt>
      <trkpt lat="46.85298" lon="6.85808">
        <ele>473.8</ele>
        <time>2022-09-30T09:08:05Z</time>
      </trkpt>
      <trkpt lat="46.85299" lon="6.85813">
        <ele>473.9</ele>
        <time>2022-09-30T09:08:06Z</time>
      </trkpt>
      <trkpt lat="46.853" lon="6.85817">
        <ele>474</ele>
        <time>2022-09-30T09:08:07Z</time>
      </trkpt>
      <trkpt lat="46.85301" lon="6.85822">
        <ele>474.1</ele>
        <time>2022-09-30T09:08:08Z</time>
      </trkpt>
      <trkpt lat="46.85302" lon="6.85826">
        <ele>474.2</ele>
        <time>2022-09-30T09:08:09Z</time>
      </trkpt>
      <trkpt lat="46.85303" lon="6.8583">
        <ele>474.3</ele>
        <time>2022-09-30T09:08:10Z</time>
      </trkpt>
      <trkpt lat="46.85304" lon="6.85834">
        <ele>474.4</ele>
        <time>2022-09-30T09:08:11Z</time>
      </trkpt>
      <trkpt lat="46.85305" lon="6.85838">
        <ele>474.4</ele>
        <time>2022-09-30T09:08:12Z</time>
      </trkpt>
      <trkpt lat="46.85306" lon="6.85843">
        <ele>474.5</ele>
        <time>2022-09-30T09:08:13Z</time>
      </trkpt>
      <trkpt lat="46.85307" lon="6.85847">
        <ele>474.6</ele>
        <time>2022-09-30T09:08:14Z</time>
      </trkpt>
      <trkpt lat="46.85308" lon="6.85851">
        <ele>474.7</ele>
        <time>2022-09-30T09:08:15Z</time>
      </trkpt>
      <trkpt lat="46.85309" lon="6.85855">
        <ele>474.8</ele>
        <time>2022-09-30T09:08:16Z</time>
      </trkpt>
      <trkpt lat="46.85309" lon="6.85859">
        <ele>474.9</ele>
        <time>2022-09-30T09:08:17Z</time>
      </trkpt>
      <trkpt lat="46.8531" lon="6.85863">
        <ele>475</ele>
        <time>2022-09-30T09:08:18Z</time>
      </trkpt>
      <trkpt lat="46.85311" lon="6.85868">
        <ele>475</ele>
        <time>2022-09-30T09:08:19Z</time>
      </trkpt>
      <trkpt lat="46.85312" lon="6.85872">
        <ele>475.1</ele>
        <time>2022-09-30T09:08:20Z</time>
      </trkpt>
      <trkpt lat="46.85313" lon="6.85876">
        <ele>475.2</ele>
        <time>2022-09-30T09:08:21Z</time>
      </trkpt>
      <trkpt lat="46.85314" lon="6.85881">
        <ele>475.3</ele>
        <time>2022-09-30T09:08:22Z</time>
      </trkpt>
      <trkpt lat="46.85315" lon="6.85885">
        <ele>475.4</ele>
        <time>2022-09-30T09:08:23Z</time>
      </trkpt>
      <trkpt lat="46.85316" lon="6.85888">
        <ele>475.4</ele>
        <time>2022-09-30T09:08:24Z</time>
      </trkpt>
      <trkpt lat="46.85317" lon="6.85893">
        <ele>475.5</ele>
        <time>2022-09-30T09:08:25Z</time>
      </trkpt>
      <trkpt lat="46.85318" lon="6.85896">
        <ele>475.5</ele>
        <time>2022-09-30T09:08:26Z</time>
      </trkpt>
      <trkpt lat="46.85318" lon="6.859">
        <ele>475.6</ele>
        <time>2022-09-30T09:08:27Z</time>
      </trkpt>
      <trkpt lat="46.8532" lon="6.85905">
        <ele>475.7</ele>
        <time>2022-09-30T09:08:28Z</time>
      </trkpt>
      <trkpt lat="46.8532" lon="6.8591">
        <ele>475.8</ele>
        <time>2022-09-30T09:08:29Z</time>
      </trkpt>
      <trkpt lat="46.85322" lon="6.85913">
        <ele>475.9</ele>
        <time>2022-09-30T09:08:30Z</time>
      </trkpt>
      <trkpt lat="46.85322" lon="6.85919">
        <ele>475.9</ele>
        <time>2022-09-30T09:08:31Z</time>
      </trkpt>
      <trkpt lat="46.85323" lon="6.85922">
        <ele>476</ele>
        <time>2022-09-30T09:08:32Z</time>
      </trkpt>
      <trkpt lat="46.85324" lon="6.85926">
        <ele>476.1</ele>
        <time>2022-09-30T09:08:33Z</time>
      </trkpt>
      <trkpt lat="46.85325" lon="6.8593">
        <ele>476.1</ele>
        <time>2022-09-30T09:08:34Z</time>
      </trkpt>
      <trkpt lat="46.85326" lon="6.85934">
        <ele>476.2</ele>
        <time>2022-09-30T09:08:35Z</time>
      </trkpt>
      <trkpt lat="46.85327" lon="6.85938">
        <ele>476.3</ele>
        <time>2022-09-30T09:08:36Z</time>
      </trkpt>
      <trkpt lat="46.85327" lon="6.85942">
        <ele>476.3</ele>
        <time>2022-09-30T09:08:37Z</time>
      </trkpt>
      <trkpt lat="46.85328" lon="6.85947">
        <ele>476.4</ele>
        <time>2022-09-30T09:08:38Z</time>
      </trkpt>
      <trkpt lat="46.85328" lon="6.85949">
        <ele>476.5</ele>
        <time>2022-09-30T09:08:39Z</time>
      </trkpt>
      <trkpt lat="46.85329" lon="6.85953">
        <ele>476.5</ele>
        <time>2022-09-30T09:08:40Z</time>
      </trkpt>
      <trkpt lat="46.8533" lon="6.85957">
        <ele>476.6</ele>
        <time>2022-09-30T09:08:41Z</time>
      </trkpt>
      <trkpt lat="46.85331" lon="6.85962">
        <ele>476.7</ele>
        <time>2022-09-30T09:08:42Z</time>
      </trkpt>
      <trkpt lat="46.85332" lon="6.85963">
        <ele>476.7</ele>
        <time>2022-09-30T09:08:43Z</time>
      </trkpt>
      <trkpt lat="46.85333" lon="6.85969">
        <ele>476.8</ele>
        <time>2022-09-30T09:08:44Z</time>
      </trkpt>
      <trkpt lat="46.85333" lon="6.85971">
        <ele>476.9</ele>
        <time>2022-09-30T09:08:45Z</time>
      </trkpt>
      <trkpt lat="46.85334" lon="6.85976">
        <ele>477</ele>
        <time>2022-09-30T09:08:46Z</time>
      </trkpt>
      <trkpt lat="46.85335" lon="6.85978">
        <ele>477</ele>
        <time>2022-09-30T09:08:47Z</time>
      </trkpt>
      <trkpt lat="46.85336" lon="6.85982">
        <ele>477.1</ele>
        <time>2022-09-30T09:08:48Z</time>
      </trkpt>
      <trkpt lat="46.85337" lon="6.85988">
        <ele>477.2</ele>
        <time>2022-09-30T09:08:49Z</time>
      </trkpt>
      <trkpt lat="46.85337" lon="6.85989">
        <ele>477.2</ele>
        <time>2022-09-30T09:08:50Z</time>
      </trkpt>
      <trkpt lat="46.85338" lon="6.85993">
        <ele>477.3</ele>
        <time>2022-09-30T09:08:51Z</time>
      </trkpt>
      <trkpt lat="46.85339" lon="6.85999">
        <ele>477.4</ele>
        <time>2022-09-30T09:08:52Z</time>
      </trkpt>
      <trkpt lat="46.8534" lon="6.86001">
        <ele>477.5</ele>
        <time>2022-09-30T09:08:53Z</time>
      </trkpt>
      <trkpt lat="46.85341" lon="6.86005">
        <ele>477.5</ele>
        <time>2022-09-30T09:08:54Z</time>
      </trkpt>
      <trkpt lat="46.85342" lon="6.8601">
        <ele>477.6</ele>
        <time>2022-09-30T09:08:55Z</time>
      </trkpt>
      <trkpt lat="46.85342" lon="6.86012">
        <ele>477.7</ele>
        <time>2022-09-30T09:08:56Z</time>
      </trkpt>
      <trkpt lat="46.85343" lon="6.86017">
        <ele>477.7</ele>
        <time>2022-09-30T09:08:57Z</time>
      </trkpt>
      <trkpt lat="46.85343" lon="6.86019">
        <ele>477.8</ele>
        <time>2022-09-30T09:08:58Z</time>
      </trkpt>
      <trkpt lat="46.85345" lon="6.86025">
        <ele>477.9</ele>
        <time>2022-09-30T09:08:59Z</time>
      </trkpt>
      <trkpt lat="46.85345" lon="6.86026">
        <ele>477.9</ele>
        <time>2022-09-30T09:09:00Z</time>
      </trkpt>
      <trkpt lat="46.85346" lon="6.86031">
        <ele>478</ele>
        <time>2022-09-30T09:09:01Z</time>
      </trkpt>
      <trkpt lat="46.85346" lon="6.86034">
        <ele>478</ele>
        <time>2022-09-30T09:09:02Z</time>
      </trkpt>
      <trkpt lat="46.85347" lon="6.86037">
        <ele>478</ele>
        <time>2022-09-30T09:09:03Z</time>
      </trkpt>
      <trkpt lat="46.85349" lon="6.86043">
        <ele>478.1</ele>
        <time>2022-09-30T09:09:04Z</time>
      </trkpt>
      <trkpt lat="46.85349" lon="6.86045">
        <ele>478.1</ele>
        <time>2022-09-30T09:09:05Z</time>
      </trkpt>
      <trkpt lat="46.8535" lon="6.86049">
        <ele>478.2</ele>
        <time>2022-09-30T09:09:06Z</time>
      </trkpt>
      <trkpt lat="46.85351" lon="6.86053">
        <ele>478.2</ele>
        <time>2022-09-30T09:09:07Z</time>
      </trkpt>
      <trkpt lat="46.85352" lon="6.86058">
        <ele>478.3</ele>
        <time>2022-09-30T09:09:08Z</time>
      </trkpt>
      <trkpt lat="46.85352" lon="6.8606">
        <ele>478.3</ele>
        <time>2022-09-30T09:09:09Z</time>
      </trkpt>
      <trkpt lat="46.85353" lon="6.86064">
        <ele>478.4</ele>
        <time>2022-09-30T09:09:10Z</time>
      </trkpt>
      <trkpt lat="46.85354" lon="6.86069">
        <ele>478.4</ele>
        <time>2022-09-30T09:09:11Z</time>
      </trkpt>
      <trkpt lat="46.85355" lon="6.86074">
        <ele>478.5</ele>
        <time>2022-09-30T09:09:12Z</time>
      </trkpt>
      <trkpt lat="46.85356" lon="6.86077">
        <ele>478.5</ele>
        <time>2022-09-30T09:09:13Z</time>
      </trkpt>
      <trkpt lat="46.85356" lon="6.8608">
        <ele>478.6</ele>
        <time>2022-09-30T09:09:14Z</time>
      </trkpt>
      <trkpt lat="46.85357" lon="6.86085">
        <ele>478.6</ele>
        <time>2022-09-30T09:09:15Z</time>
      </trkpt>
      <trkpt lat="46.85358" lon="6.86088">
        <ele>478.7</ele>
        <time>2022-09-30T09:09:16Z</time>
      </trkpt>
      <trkpt lat="46.85359" lon="6.86093">
        <ele>478.7</ele>
        <time>2022-09-30T09:09:17Z</time>
      </trkpt>
      <trkpt lat="46.8536" lon="6.86097">
        <ele>478.8</ele>
        <time>2022-09-30T09:09:18Z</time>
      </trkpt>
      <trkpt lat="46.85361" lon="6.86102">
        <ele>478.8</ele>
        <time>2022-09-30T09:09:19Z</time>
      </trkpt>
      <trkpt lat="46.85362" lon="6.86106">
        <ele>478.9</ele>
        <time>2022-09-30T09:09:20Z</time>
      </trkpt>
      <trkpt lat="46.85363" lon="6.86111">
        <ele>478.9</ele>
        <time>2022-09-30T09:09:21Z</time>
      </trkpt>
      <trkpt lat="46.85365" lon="6.86115">
        <ele>479</ele>
        <time>2022-09-30T09:09:22Z</time>
      </trkpt>
      <trkpt lat="46.85366" lon="6.8612">
        <ele>479</ele>
        <time>2022-09-30T09:09:23Z</time>
      </trkpt>
      <trkpt lat="46.85366" lon="6.86124">
        <ele>479.1</ele>
        <time>2022-09-30T09:09:24Z</time>
      </trkpt>
      <trkpt lat="46.85367" lon="6.86128">
        <ele>479.1</ele>
        <time>2022-09-30T09:09:25Z</time>
      </trkpt>
      <trkpt lat="46.85368" lon="6.86132">
        <ele>479.1</ele>
        <time>2022-09-30T09:09:26Z</time>
      </trkpt>
      <trkpt lat="46.85369" lon="6.86138">
        <ele>479.2</ele>
        <time>2022-09-30T09:09:27Z</time>
      </trkpt>
      <trkpt lat="46.8537" lon="6.8614">
        <ele>479.2</ele>
        <time>2022-09-30T09:09:28Z</time>
      </trkpt>
      <trkpt lat="46.85371" lon="6.86143">
        <ele>479.3</ele>
        <time>2022-09-30T09:09:29Z</time>
      </trkpt>
      <trkpt lat="46.85372" lon="6.86149">
        <ele>479.3</ele>
        <time>2022-09-30T09:09:30Z</time>
      </trkpt>
      <trkpt lat="46.85373" lon="6.8615">
        <ele>479.4</ele>
        <time>2022-09-30T09:09:31Z</time>
      </trkpt>
      <trkpt lat="46.85375" lon="6.86155">
        <ele>479.4</ele>
        <time>2022-09-30T09:09:32Z</time>
      </trkpt>
      <trkpt lat="46.85375" lon="6.86157">
        <ele>479.5</ele>
        <time>2022-09-30T09:09:33Z</time>
      </trkpt>
      <trkpt lat="46.85376" lon="6.86162">
        <ele>479.5</ele>
        <time>2022-09-30T09:09:34Z</time>
      </trkpt>
      <trkpt lat="46.85377" lon="6.86164">
        <ele>479.6</ele>
        <time>2022-09-30T09:09:35Z</time>
      </trkpt>
      <trkpt lat="46.85377" lon="6.86169">
        <ele>479.6</ele>
        <time>2022-09-30T09:09:36Z</time>
      </trkpt>
      <trkpt lat="46.85377" lon="6.86174">
        <ele>479.7</ele>
        <time>2022-09-30T09:09:37Z</time>
      </trkpt>
      <trkpt lat="46.85376" lon="6.86178">
        <ele>479.7</ele>
        <time>2022-09-30T09:09:38Z</time>
      </trkpt>
      <trkpt lat="46.85375" lon="6.86182">
        <ele>479.8</ele>
        <time>2022-09-30T09:09:39Z</time>
      </trkpt>
      <trkpt lat="46.85373" lon="6.86186">
        <ele>479.8</ele>
        <time>2022-09-30T09:09:40Z</time>
      </trkpt>
      <trkpt lat="46.85371" lon="6.86189">
        <ele>479.9</ele>
        <time>2022-09-30T09:09:41Z</time>
      </trkpt>
      <trkpt lat="46.85368" lon="6.86193">
        <ele>480</ele>
        <time>2022-09-30T09:09:42Z</time>
      </trkpt>
      <trkpt lat="46.85367" lon="6.86195">
        <ele>480</ele>
        <time>2022-09-30T09:09:43Z</time>
      </trkpt>
      <trkpt lat="46.85365" lon="6.86198">
        <ele>480.1</ele>
        <time>2022-09-30T09:09:44Z</time>
      </trkpt>
      <trkpt lat="46.85364" lon="6.86199">
        <ele>480.1</ele>
        <time>2022-09-30T09:09:45Z</time>
      </trkpt>
      <trkpt lat="46.85362" lon="6.86202">
        <ele>480.2</ele>
        <time>2022-09-30T09:09:46Z</time>
      </trkpt>
      <trkpt lat="46.85361" lon="6.86202">
        <ele>480.2</ele>
        <time>2022-09-30T09:09:47Z</time>
      </trkpt>
      <trkpt lat="46.85358" lon="6.86205">
        <ele>480.3</ele>
        <time>2022-09-30T09:09:48Z</time>
      </trkpt>
      <trkpt lat="46.85357" lon="6.86205">
        <ele>480.3</ele>
        <time>2022-09-30T09:09:49Z</time>
      </trkpt>
      <trkpt lat="46.85356" lon="6.86207">
        <ele>480.3</ele>
        <time>2022-09-30T09:09:50Z</time>
      </trkpt>
      <trkpt lat="46.85355" lon="6.86208">
        <ele>480.4</ele>
        <time>2022-09-30T09:09:51Z</time>
      </trkpt>
      <trkpt lat="46.85354" lon="6.86209">
        <ele>480.4</ele>
        <time>2022-09-30T09:09:52Z</time>
      </trkpt>
      <trkpt lat="46.85354" lon="6.8621">
        <ele>480.4</ele>
        <time>2022-09-30T09:09:53Z</time>
      </trkpt>
      <trkpt lat="46.85353" lon="6.86211">
        <ele>480.4</ele>
        <time>2022-09-30T09:09:54Z</time>
      </trkpt>
      <trkpt lat="46.85353" lon="6.86211">
        <ele>480.5</ele>
        <time>2022-09-30T09:09:55Z</time>
      </trkpt>
      <trkpt lat="46.85352" lon="6.86212">
        <ele>480.5</ele>
        <time>2022-09-30T09:09:56Z</time>
      </trkpt>
      <trkpt lat="46.85351" lon="6.86212">
        <ele>480.5</ele>
        <time>2022-09-30T09:09:57Z</time>
      </trkpt>
      <trkpt lat="46.8535" lon="6.86212">
        <ele>480.5</ele>
        <time>2022-09-30T09:09:58Z</time>
      </trkpt>
      <trkpt lat="46.85349" lon="6.86211">
        <ele>480.6</ele>
        <time>2022-09-30T09:09:59Z</time>
      </trkpt>
      <trkpt lat="46.85345" lon="6.86212">
        <ele>480.7</ele>
        <time>2022-09-30T09:10:00Z</time>
      </trkpt>
      <trkpt lat="46.85344" lon="6.86212">
        <ele>480.8</ele>
        <time>2022-09-30T09:10:01Z</time>
      </trkpt>
      <trkpt lat="46.85342" lon="6.86216">
        <ele>480.8</ele>
        <time>2022-09-30T09:10:02Z</time>
      </trkpt>
      <trkpt lat="46.85341" lon="6.8622">
        <ele>480.8</ele>
        <time>2022-09-30T09:10:03Z</time>
      </trkpt>
      <trkpt lat="46.85339" lon="6.86224">
        <ele>480.9</ele>
        <time>2022-09-30T09:10:04Z</time>
      </trkpt>
      <trkpt lat="46.85337" lon="6.86227">
        <ele>481</ele>
        <time>2022-09-30T09:10:05Z</time>
      </trkpt>
      <trkpt lat="46.85336" lon="6.86228">
        <ele>481</ele>
        <time>2022-09-30T09:10:06Z</time>
      </trkpt>
      <trkpt lat="46.85334" lon="6.8623">
        <ele>481</ele>
        <time>2022-09-30T09:10:07Z</time>
      </trkpt>
      <trkpt lat="46.85332" lon="6.86231">
        <ele>481.1</ele>
        <time>2022-09-30T09:10:08Z</time>
      </trkpt>
      <trkpt lat="46.85329" lon="6.86232">
        <ele>481.2</ele>
        <time>2022-09-30T09:10:09Z</time>
      </trkpt>
      <trkpt lat="46.85326" lon="6.86234">
        <ele>481.3</ele>
        <time>2022-09-30T09:10:10Z</time>
      </trkpt>
      <trkpt lat="46.85324" lon="6.86234">
        <ele>481.3</ele>
        <time>2022-09-30T09:10:11Z</time>
      </trkpt>
      <trkpt lat="46.85321" lon="6.86235">
        <ele>481.4</ele>
        <time>2022-09-30T09:10:12Z</time>
      </trkpt>
      <trkpt lat="46.85319" lon="6.86236">
        <ele>481.5</ele>
        <time>2022-09-30T09:10:13Z</time>
      </trkpt>
      <trkpt lat="46.85316" lon="6.86237">
        <ele>481.6</ele>
        <time>2022-09-30T09:10:14Z</time>
      </trkpt>
      <trkpt lat="46.85313" lon="6.86238">
        <ele>481.7</ele>
        <time>2022-09-30T09:10:15Z</time>
      </trkpt>
      <trkpt lat="46.85311" lon="6.86238">
        <ele>481.8</ele>
        <time>2022-09-30T09:10:16Z</time>
      </trkpt>
      <trkpt lat="46.85308" lon="6.86239">
        <ele>481.9</ele>
        <time>2022-09-30T09:10:17Z</time>
      </trkpt>
      <trkpt lat="46.85307" lon="6.8624">
        <ele>481.9</ele>
        <time>2022-09-30T09:10:18Z</time>
      </trkpt>
      <trkpt lat="46.85304" lon="6.86241">
        <ele>482</ele>
        <time>2022-09-30T09:10:19Z</time>
      </trkpt>
      <trkpt lat="46.85302" lon="6.86242">
        <ele>482</ele>
        <time>2022-09-30T09:10:20Z</time>
      </trkpt>
      <trkpt lat="46.85298" lon="6.86244">
        <ele>482.1</ele>
        <time>2022-09-30T09:10:21Z</time>
      </trkpt>
      <trkpt lat="46.85297" lon="6.86244">
        <ele>482.2</ele>
        <time>2022-09-30T09:10:22Z</time>
      </trkpt>
      <trkpt lat="46.85295" lon="6.86245">
        <ele>482.2</ele>
        <time>2022-09-30T09:10:23Z</time>
      </trkpt>
      <trkpt lat="46.85291" lon="6.86247">
        <ele>482.3</ele>
        <time>2022-09-30T09:10:24Z</time>
      </trkpt>
      <trkpt lat="46.8529" lon="6.86248">
        <ele>482.3</ele>
        <time>2022-09-30T09:10:25Z</time>
      </trkpt>
      <trkpt lat="46.85286" lon="6.86249">
        <ele>482.4</ele>
        <time>2022-09-30T09:10:26Z</time>
      </trkpt>
      <trkpt lat="46.85284" lon="6.8625">
        <ele>482.4</ele>
        <time>2022-09-30T09:10:27Z</time>
      </trkpt>
      <trkpt lat="46.8528" lon="6.86251">
        <ele>482.4</ele>
        <time>2022-09-30T09:10:28Z</time>
      </trkpt>
      <trkpt lat="46.85279" lon="6.86252">
        <ele>482.4</ele>
        <time>2022-09-30T09:10:29Z</time>
      </trkpt>
      <trkpt lat="46.85277" lon="6.86255">
        <ele>482.4</ele>
        <time>2022-09-30T09:10:30Z</time>
      </trkpt>
      <trkpt lat="46.85276" lon="6.86259">
        <ele>482.4</ele>
        <time>2022-09-30T09:10:31Z</time>
      </trkpt>
      <trkpt lat="46.85276" lon="6.86263">
        <ele>482.4</ele>
        <time>2022-09-30T09:10:32Z</time>
      </trkpt>
      <trkpt lat="46.85276" lon="6.8627">
        <ele>482.4</ele>
        <time>2022-09-30T09:10:33Z</time>
      </trkpt>
      <trkpt lat="46.85276" lon="6.86272">
        <ele>482.4</ele>
        <time>2022-09-30T09:10:34Z</time>
      </trkpt>
      <trkpt lat="46.85277" lon="6.86276">
        <ele>482.4</ele>
        <time>2022-09-30T09:10:35Z</time>
      </trkpt>
      <trkpt lat="46.85278" lon="6.86281">
        <ele>482.3</ele>
        <time>2022-09-30T09:10:36Z</time>
      </trkpt>
      <trkpt lat="46.85279" lon="6.86285">
        <ele>482.3</ele>
        <time>2022-09-30T09:10:37Z</time>
      </trkpt>
      <trkpt lat="46.85281" lon="6.8629">
        <ele>482.2</ele>
        <time>2022-09-30T09:10:38Z</time>
      </trkpt>
      <trkpt lat="46.85281" lon="6.86296">
        <ele>482.1</ele>
        <time>2022-09-30T09:10:39Z</time>
      </trkpt>
      <trkpt lat="46.85282" lon="6.86301">
        <ele>482.1</ele>
        <time>2022-09-30T09:10:40Z</time>
      </trkpt>
      <trkpt lat="46.85283" lon="6.86307">
        <ele>482</ele>
        <time>2022-09-30T09:10:41Z</time>
      </trkpt>
      <trkpt lat="46.85283" lon="6.86313">
        <ele>481.9</ele>
        <time>2022-09-30T09:10:42Z</time>
      </trkpt>
      <trkpt lat="46.85284" lon="6.86319">
        <ele>481.8</ele>
        <time>2022-09-30T09:10:43Z</time>
      </trkpt>
      <trkpt lat="46.85285" lon="6.86326">
        <ele>481.7</ele>
        <time>2022-09-30T09:10:44Z</time>
      </trkpt>
      <trkpt lat="46.85287" lon="6.86333">
        <ele>481.6</ele>
        <time>2022-09-30T09:10:45Z</time>
      </trkpt>
      <trkpt lat="46.85288" lon="6.8634">
        <ele>481.5</ele>
        <time>2022-09-30T09:10:46Z</time>
      </trkpt>
      <trkpt lat="46.8529" lon="6.86347">
        <ele>481.4</ele>
        <time>2022-09-30T09:10:47Z</time>
      </trkpt>
      <trkpt lat="46.85291" lon="6.86353">
        <ele>481.3</ele>
        <time>2022-09-30T09:10:48Z</time>
      </trkpt>
      <trkpt lat="46.85292" lon="6.86361">
        <ele>481.2</ele>
        <time>2022-09-30T09:10:49Z</time>
      </trkpt>
      <trkpt lat="46.85293" lon="6.86368">
        <ele>481.1</ele>
        <time>2022-09-30T09:10:50Z</time>
      </trkpt>
      <trkpt lat="46.85294" lon="6.86375">
        <ele>481</ele>
        <time>2022-09-30T09:10:51Z</time>
      </trkpt>
      <trkpt lat="46.85295" lon="6.86382">
        <ele>480.9</ele>
        <time>2022-09-30T09:10:52Z</time>
      </trkpt>
      <trkpt lat="46.85296" lon="6.8639">
        <ele>480.8</ele>
        <time>2022-09-30T09:10:53Z</time>
      </trkpt>
      <trkpt lat="46.85298" lon="6.86397">
        <ele>480.8</ele>
        <time>2022-09-30T09:10:54Z</time>
      </trkpt>
      <trkpt lat="46.85299" lon="6.86405">
        <ele>480.7</ele>
        <time>2022-09-30T09:10:55Z</time>
      </trkpt>
      <trkpt lat="46.853" lon="6.86413">
        <ele>480.7</ele>
        <time>2022-09-30T09:10:56Z</time>
      </trkpt>
      <trkpt lat="46.85302" lon="6.8642">
        <ele>480.6</ele>
        <time>2022-09-30T09:10:57Z</time>
      </trkpt>
      <trkpt lat="46.85303" lon="6.86428">
        <ele>480.6</ele>
        <time>2022-09-30T09:10:58Z</time>
      </trkpt>
      <trkpt lat="46.85304" lon="6.86435">
        <ele>480.5</ele>
        <time>2022-09-30T09:10:59Z</time>
      </trkpt>
      <trkpt lat="46.85305" lon="6.86442">
        <ele>480.5</ele>
        <time>2022-09-30T09:11:00Z</time>
      </trkpt>
      <trkpt lat="46.85306" lon="6.86449">
        <ele>480.5</ele>
        <time>2022-09-30T09:11:01Z</time>
      </trkpt>
      <trkpt lat="46.85307" lon="6.86457">
        <ele>480.4</ele>
        <time>2022-09-30T09:11:02Z</time>
      </trkpt>
      <trkpt lat="46.85309" lon="6.86465">
        <ele>480.4</ele>
        <time>2022-09-30T09:11:03Z</time>
      </trkpt>
      <trkpt lat="46.8531" lon="6.86472">
        <ele>480.4</ele>
        <time>2022-09-30T09:11:04Z</time>
      </trkpt>
      <trkpt lat="46.85312" lon="6.86479">
        <ele>480.4</ele>
        <time>2022-09-30T09:11:05Z</time>
      </trkpt>
      <trkpt lat="46.85312" lon="6.86486">
        <ele>480.4</ele>
        <time>2022-09-30T09:11:06Z</time>
      </trkpt>
      <trkpt lat="46.85314" lon="6.86494">
        <ele>480.4</ele>
        <time>2022-09-30T09:11:07Z</time>
      </trkpt>
      <trkpt lat="46.85315" lon="6.86502">
        <ele>480.4</ele>
        <time>2022-09-30T09:11:08Z</time>
      </trkpt>
      <trkpt lat="46.85317" lon="6.86509">
        <ele>480.4</ele>
        <time>2022-09-30T09:11:09Z</time>
      </trkpt>
      <trkpt lat="46.85318" lon="6.86516">
        <ele>480.4</ele>
        <time>2022-09-30T09:11:10Z</time>
      </trkpt>
      <trkpt lat="46.8532" lon="6.86524">
        <ele>480.4</ele>
        <time>2022-09-30T09:11:11Z</time>
      </trkpt>
      <trkpt lat="46.85321" lon="6.86531">
        <ele>480.4</ele>
        <time>2022-09-30T09:11:12Z</time>
      </trkpt>
      <trkpt lat="46.85322" lon="6.86538">
        <ele>480.5</ele>
        <time>2022-09-30T09:11:13Z</time>
      </trkpt>
      <trkpt lat="46.85323" lon="6.86545">
        <ele>480.5</ele>
        <time>2022-09-30T09:11:14Z</time>
      </trkpt>
      <trkpt lat="46.85324" lon="6.86552">
        <ele>480.5</ele>
        <time>2022-09-30T09:11:15Z</time>
      </trkpt>
      <trkpt lat="46.85325" lon="6.86559">
        <ele>480.6</ele>
        <time>2022-09-30T09:11:16Z</time>
      </trkpt>
      <trkpt lat="46.85326" lon="6.86565">
        <ele>480.6</ele>
        <time>2022-09-30T09:11:17Z</time>
      </trkpt>
      <trkpt lat="46.85327" lon="6.86572">
        <ele>480.6</ele>
        <time>2022-09-30T09:11:18Z</time>
      </trkpt>
      <trkpt lat="46.85328" lon="6.86578">
        <ele>480.6</ele>
        <time>2022-09-30T09:11:19Z</time>
      </trkpt>
      <trkpt lat="46.85329" lon="6.86584">
        <ele>480.6</ele>
        <time>2022-09-30T09:11:20Z</time>
      </trkpt>
      <trkpt lat="46.85331" lon="6.86591">
        <ele>480.6</ele>
        <time>2022-09-30T09:11:21Z</time>
      </trkpt>
      <trkpt lat="46.85331" lon="6.86597">
        <ele>480.7</ele>
        <time>2022-09-30T09:11:22Z</time>
      </trkpt>
      <trkpt lat="46.85332" lon="6.86602">
        <ele>480.7</ele>
        <time>2022-09-30T09:11:23Z</time>
      </trkpt>
      <trkpt lat="46.85333" lon="6.86608">
        <ele>480.7</ele>
        <time>2022-09-30T09:11:24Z</time>
      </trkpt>
      <trkpt lat="46.85334" lon="6.86613">
        <ele>480.7</ele>
        <time>2022-09-30T09:11:25Z</time>
      </trkpt>
      <trkpt lat="46.85335" lon="6.86617">
        <ele>480.7</ele>
        <time>2022-09-30T09:11:26Z</time>
      </trkpt>
      <trkpt lat="46.85336" lon="6.86621">
        <ele>480.7</ele>
        <time>2022-09-30T09:11:27Z</time>
      </trkpt>
      <trkpt lat="46.85335" lon="6.86627">
        <ele>480.8</ele>
        <time>2022-09-30T09:11:28Z</time>
      </trkpt>
      <trkpt lat="46.85335" lon="6.86629">
        <ele>480.8</ele>
        <time>2022-09-30T09:11:29Z</time>
      </trkpt>
      <trkpt lat="46.85332" lon="6.86632">
        <ele>480.8</ele>
        <time>2022-09-30T09:11:30Z</time>
      </trkpt>
      <trkpt lat="46.85331" lon="6.86633">
        <ele>480.8</ele>
        <time>2022-09-30T09:11:31Z</time>
      </trkpt>
      <trkpt lat="46.85328" lon="6.86634">
        <ele>480.8</ele>
        <time>2022-09-30T09:11:32Z</time>
      </trkpt>
      <trkpt lat="46.85325" lon="6.86635">
        <ele>480.8</ele>
        <time>2022-09-30T09:11:33Z</time>
      </trkpt>
      <trkpt lat="46.85322" lon="6.86636">
        <ele>480.9</ele>
        <time>2022-09-30T09:11:34Z</time>
      </trkpt>
      <trkpt lat="46.85318" lon="6.86636">
        <ele>480.9</ele>
        <time>2022-09-30T09:11:35Z</time>
      </trkpt>
      <trkpt lat="46.85315" lon="6.86638">
        <ele>480.9</ele>
        <time>2022-09-30T09:11:36Z</time>
      </trkpt>
      <trkpt lat="46.85311" lon="6.86639">
        <ele>480.9</ele>
        <time>2022-09-30T09:11:37Z</time>
      </trkpt>
      <trkpt lat="46.85307" lon="6.86641">
        <ele>480.9</ele>
        <time>2022-09-30T09:11:38Z</time>
      </trkpt>
      <trkpt lat="46.85303" lon="6.86642">
        <ele>480.9</ele>
        <time>2022-09-30T09:11:39Z</time>
      </trkpt>
      <trkpt lat="46.85299" lon="6.86643">
        <ele>480.9</ele>
        <time>2022-09-30T09:11:40Z</time>
      </trkpt>
      <trkpt lat="46.85295" lon="6.86645">
        <ele>480.9</ele>
        <time>2022-09-30T09:11:41Z</time>
      </trkpt>
      <trkpt lat="46.85291" lon="6.86646">
        <ele>480.9</ele>
        <time>2022-09-30T09:11:42Z</time>
      </trkpt>
      <trkpt lat="46.85287" lon="6.86648">
        <ele>480.9</ele>
        <time>2022-09-30T09:11:43Z</time>
      </trkpt>
      <trkpt lat="46.85283" lon="6.8665">
        <ele>480.9</ele>
        <time>2022-09-30T09:11:44Z</time>
      </trkpt>
      <trkpt lat="46.85278" lon="6.86652">
        <ele>480.9</ele>
        <time>2022-09-30T09:11:45Z</time>
      </trkpt>
      <trkpt lat="46.85274" lon="6.86653">
        <ele>480.9</ele>
        <time>2022-09-30T09:11:46Z</time>
      </trkpt>
      <trkpt lat="46.85269" lon="6.86655">
        <ele>480.9</ele>
        <time>2022-09-30T09:11:47Z</time>
      </trkpt>
      <trkpt lat="46.85265" lon="6.86657">
        <ele>480.9</ele>
        <time>2022-09-30T09:11:48Z</time>
      </trkpt>
      <trkpt lat="46.8526" lon="6.8666">
        <ele>480.9</ele>
        <time>2022-09-30T09:11:49Z</time>
      </trkpt>
      <trkpt lat="46.85256" lon="6.86661">
        <ele>480.9</ele>
        <time>2022-09-30T09:11:50Z</time>
      </trkpt>
      <trkpt lat="46.85251" lon="6.86662">
        <ele>480.9</ele>
        <time>2022-09-30T09:11:51Z</time>
      </trkpt>
      <trkpt lat="46.85247" lon="6.86664">
        <ele>480.9</ele>
        <time>2022-09-30T09:11:52Z</time>
      </trkpt>
      <trkpt lat="46.85242" lon="6.86666">
        <ele>480.9</ele>
        <time>2022-09-30T09:11:53Z</time>
      </trkpt>
      <trkpt lat="46.85238" lon="6.86667">
        <ele>480.9</ele>
        <time>2022-09-30T09:11:54Z</time>
      </trkpt>
      <trkpt lat="46.85233" lon="6.86669">
        <ele>480.9</ele>
        <time>2022-09-30T09:11:55Z</time>
      </trkpt>
      <trkpt lat="46.85229" lon="6.86671">
        <ele>480.9</ele>
        <time>2022-09-30T09:11:56Z</time>
      </trkpt>
      <trkpt lat="46.85224" lon="6.86673">
        <ele>480.9</ele>
        <time>2022-09-30T09:11:57Z</time>
      </trkpt>
      <trkpt lat="46.8522" lon="6.86675">
        <ele>480.9</ele>
        <time>2022-09-30T09:11:58Z</time>
      </trkpt>
      <trkpt lat="46.85216" lon="6.86677">
        <ele>480.9</ele>
        <time>2022-09-30T09:11:59Z</time>
      </trkpt>
      <trkpt lat="46.85211" lon="6.86678">
        <ele>481</ele>
        <time>2022-09-30T09:12:00Z</time>
      </trkpt>
      <trkpt lat="46.85207" lon="6.86679">
        <ele>481</ele>
        <time>2022-09-30T09:12:01Z</time>
      </trkpt>
      <trkpt lat="46.85203" lon="6.86681">
        <ele>481</ele>
        <time>2022-09-30T09:12:02Z</time>
      </trkpt>
      <trkpt lat="46.85199" lon="6.86683">
        <ele>481.1</ele>
        <time>2022-09-30T09:12:03Z</time>
      </trkpt>
      <trkpt lat="46.85195" lon="6.86685">
        <ele>481.1</ele>
        <time>2022-09-30T09:12:04Z</time>
      </trkpt>
      <trkpt lat="46.85191" lon="6.86686">
        <ele>481.2</ele>
        <time>2022-09-30T09:12:05Z</time>
      </trkpt>
      <trkpt lat="46.85187" lon="6.86687">
        <ele>481.2</ele>
        <time>2022-09-30T09:12:06Z</time>
      </trkpt>
      <trkpt lat="46.85183" lon="6.86689">
        <ele>481.3</ele>
        <time>2022-09-30T09:12:07Z</time>
      </trkpt>
      <trkpt lat="46.8518" lon="6.8669">
        <ele>481.4</ele>
        <time>2022-09-30T09:12:08Z</time>
      </trkpt>
      <trkpt lat="46.85176" lon="6.86692">
        <ele>481.4</ele>
        <time>2022-09-30T09:12:09Z</time>
      </trkpt>
      <trkpt lat="46.85173" lon="6.86693">
        <ele>481.5</ele>
        <time>2022-09-30T09:12:10Z</time>
      </trkpt>
      <trkpt lat="46.8517" lon="6.86694">
        <ele>481.5</ele>
        <time>2022-09-30T09:12:11Z</time>
      </trkpt>
      <trkpt lat="46.85167" lon="6.86695">
        <ele>481.6</ele>
        <time>2022-09-30T09:12:12Z</time>
      </trkpt>
      <trkpt lat="46.85164" lon="6.86696">
        <ele>481.7</ele>
        <time>2022-09-30T09:12:13Z</time>
      </trkpt>
      <trkpt lat="46.85161" lon="6.86697">
        <ele>481.7</ele>
        <time>2022-09-30T09:12:14Z</time>
      </trkpt>
      <trkpt lat="46.85158" lon="6.86698">
        <ele>481.8</ele>
        <time>2022-09-30T09:12:15Z</time>
      </trkpt>
      <trkpt lat="46.85157" lon="6.86698">
        <ele>481.9</ele>
        <time>2022-09-30T09:12:16Z</time>
      </trkpt>
      <trkpt lat="46.85155" lon="6.86699">
        <ele>481.9</ele>
        <time>2022-09-30T09:12:17Z</time>
      </trkpt>
      <trkpt lat="46.85153" lon="6.867">
        <ele>482</ele>
        <time>2022-09-30T09:12:18Z</time>
      </trkpt>
      <trkpt lat="46.85152" lon="6.86702">
        <ele>482</ele>
        <time>2022-09-30T09:12:19Z</time>
      </trkpt>
      <trkpt lat="46.85153" lon="6.86702">
        <ele>482</ele>
        <time>2022-09-30T09:12:20Z</time>
      </trkpt>
      <trkpt lat="46.85153" lon="6.86702">
        <ele>482</ele>
        <time>2022-09-30T09:12:21Z</time>
      </trkpt>
      <trkpt lat="46.85153" lon="6.86701">
        <ele>482</ele>
        <time>2022-09-30T09:12:22Z</time>
      </trkpt>
      <trkpt lat="46.85153" lon="6.86701">
        <ele>482</ele>
        <time>2022-09-30T09:12:23Z</time>
      </trkpt>
      <trkpt lat="46.85154" lon="6.86701">
        <ele>482</ele>
        <time>2022-09-30T09:12:24Z</time>
      </trkpt>
      <trkpt lat="46.85154" lon="6.86701">
        <ele>482</ele>
        <time>2022-09-30T09:12:25Z</time>
      </trkpt>
      <trkpt lat="46.85154" lon="6.86701">
        <ele>482</ele>
        <time>2022-09-30T09:12:26Z</time>
      </trkpt>
      <trkpt lat="46.85154" lon="6.86701">
        <ele>482</ele>
        <time>2022-09-30T09:12:27Z</time>
      </trkpt>
      <trkpt lat="46.85155" lon="6.86701">
        <ele>482.1</ele>
        <time>2022-09-30T09:12:28Z</time>
      </trkpt>
      <trkpt lat="46.85155" lon="6.86701">
        <ele>482.1</ele>
        <time>2022-09-30T09:12:29Z</time>
      </trkpt>
      <trkpt lat="46.85155" lon="6.86701">
        <ele>482.1</ele>
        <time>2022-09-30T09:12:30Z</time>
      </trkpt>
      <trkpt lat="46.85156" lon="6.86701">
        <ele>482.1</ele>
        <time>2022-09-30T09:13:33Z</time>
      </trkpt>
      <trkpt lat="46.85156" lon="6.86701">
        <ele>482.1</ele>
        <time>2022-09-30T09:13:34Z</time>
      </trkpt>
      <trkpt lat="46.85156" lon="6.86701">
        <ele>482.1</ele>
        <time>2022-09-30T09:13:35Z</time>
      </trkpt>
      <trkpt lat="46.85156" lon="6.86701">
        <ele>482.1</ele>
        <time>2022-09-30T09:13:36Z</time>
      </trkpt>
      <trkpt lat="46.85157" lon="6.86701">
        <ele>482.1</ele>
        <time>2022-09-30T09:13:37Z</time>
      </trkpt>
      <trkpt lat="46.85157" lon="6.867">
        <ele>482.1</ele>
        <time>2022-09-30T09:13:38Z</time>
      </trkpt>
      <trkpt lat="46.85157" lon="6.867">
        <ele>482.1</ele>
        <time>2022-09-30T09:13:39Z</time>
      </trkpt>
      <trkpt lat="46.85157" lon="6.867">
        <ele>482.1</ele>
        <time>2022-09-30T09:13:40Z</time>
      </trkpt>
      <trkpt lat="46.85158" lon="6.867">
        <ele>482.1</ele>
        <time>2022-09-30T09:13:41Z</time>
      </trkpt>
      <trkpt lat="46.85158" lon="6.867">
        <ele>482.1</ele>
        <time>2022-09-30T09:13:42Z</time>
      </trkpt>
      <trkpt lat="46.85158" lon="6.867">
        <ele>482.1</ele>
        <time>2022-09-30T09:13:43Z</time>
      </trkpt>
      <trkpt lat="46.85158" lon="6.867">
        <ele>482.2</ele>
        <time>2022-09-30T09:13:44Z</time>
      </trkpt>
      <trkpt lat="46.85159" lon="6.867">
        <ele>482.2</ele>
        <time>2022-09-30T09:13:45Z</time>
      </trkpt>
      <trkpt lat="46.85159" lon="6.867">
        <ele>482.2</ele>
        <time>2022-09-30T09:13:46Z</time>
      </trkpt>
      <trkpt lat="46.85159" lon="6.867">
        <ele>482.2</ele>
        <time>2022-09-30T09:13:47Z</time>
      </trkpt>
      <trkpt lat="46.85159" lon="6.867">
        <ele>482.2</ele>
        <time>2022-09-30T09:13:48Z</time>
      </trkpt>
      <trkpt lat="46.85163" lon="6.86697">
        <ele>482.3</ele>
        <time>2022-09-30T09:13:49Z</time>
      </trkpt>
      <trkpt lat="46.85164" lon="6.86697">
        <ele>482.3</ele>
        <time>2022-09-30T09:13:50Z</time>
      </trkpt>
      <trkpt lat="46.85168" lon="6.86696">
        <ele>482.2</ele>
        <time>2022-09-30T09:13:51Z</time>
      </trkpt>
      <trkpt lat="46.85171" lon="6.86695">
        <ele>482.1</ele>
        <time>2022-09-30T09:13:52Z</time>
      </trkpt>
      <trkpt lat="46.85175" lon="6.86695">
        <ele>482</ele>
        <time>2022-09-30T09:13:53Z</time>
      </trkpt>
      <trkpt lat="46.85178" lon="6.86693">
        <ele>481.9</ele>
        <time>2022-09-30T09:13:54Z</time>
      </trkpt>
      <trkpt lat="46.85183" lon="6.86691">
        <ele>481.8</ele>
        <time>2022-09-30T09:13:55Z</time>
      </trkpt>
      <trkpt lat="46.85188" lon="6.86689">
        <ele>481.6</ele>
        <time>2022-09-30T09:13:56Z</time>
      </trkpt>
      <trkpt lat="46.85193" lon="6.86687">
        <ele>481.5</ele>
        <time>2022-09-30T09:13:57Z</time>
      </trkpt>
      <trkpt lat="46.85198" lon="6.86686">
        <ele>481.4</ele>
        <time>2022-09-30T09:13:58Z</time>
      </trkpt>
      <trkpt lat="46.85203" lon="6.86684">
        <ele>481.3</ele>
        <time>2022-09-30T09:13:59Z</time>
      </trkpt>
      <trkpt lat="46.85209" lon="6.86682">
        <ele>481.2</ele>
        <time>2022-09-30T09:14:00Z</time>
      </trkpt>
      <trkpt lat="46.85215" lon="6.8668">
        <ele>481.1</ele>
        <time>2022-09-30T09:14:01Z</time>
      </trkpt>
      <trkpt lat="46.85221" lon="6.86678">
        <ele>481</ele>
        <time>2022-09-30T09:14:02Z</time>
      </trkpt>
      <trkpt lat="46.85226" lon="6.86675">
        <ele>481</ele>
        <time>2022-09-30T09:14:03Z</time>
      </trkpt>
      <trkpt lat="46.85233" lon="6.86673">
        <ele>480.9</ele>
        <time>2022-09-30T09:14:04Z</time>
      </trkpt>
      <trkpt lat="46.85238" lon="6.86671">
        <ele>480.9</ele>
        <time>2022-09-30T09:14:05Z</time>
      </trkpt>
      <trkpt lat="46.85244" lon="6.86668">
        <ele>480.9</ele>
        <time>2022-09-30T09:14:06Z</time>
      </trkpt>
      <trkpt lat="46.8525" lon="6.86666">
        <ele>480.9</ele>
        <time>2022-09-30T09:14:07Z</time>
      </trkpt>
      <trkpt lat="46.85256" lon="6.86664">
        <ele>480.9</ele>
        <time>2022-09-30T09:14:08Z</time>
      </trkpt>
      <trkpt lat="46.85262" lon="6.86661">
        <ele>480.9</ele>
        <time>2022-09-30T09:14:09Z</time>
      </trkpt>
      <trkpt lat="46.85267" lon="6.8666">
        <ele>480.9</ele>
        <time>2022-09-30T09:14:10Z</time>
      </trkpt>
      <trkpt lat="46.85274" lon="6.86656">
        <ele>480.9</ele>
        <time>2022-09-30T09:14:11Z</time>
      </trkpt>
      <trkpt lat="46.85279" lon="6.86655">
        <ele>480.9</ele>
        <time>2022-09-30T09:14:12Z</time>
      </trkpt>
      <trkpt lat="46.85285" lon="6.86652">
        <ele>480.9</ele>
        <time>2022-09-30T09:14:13Z</time>
      </trkpt>
      <trkpt lat="46.85291" lon="6.8665">
        <ele>480.9</ele>
        <time>2022-09-30T09:14:14Z</time>
      </trkpt>
      <trkpt lat="46.85296" lon="6.86648">
        <ele>480.9</ele>
        <time>2022-09-30T09:14:15Z</time>
      </trkpt>
      <trkpt lat="46.85302" lon="6.86646">
        <ele>480.9</ele>
        <time>2022-09-30T09:14:16Z</time>
      </trkpt>
      <trkpt lat="46.85308" lon="6.86643">
        <ele>480.9</ele>
        <time>2022-09-30T09:14:17Z</time>
      </trkpt>
      <trkpt lat="46.85313" lon="6.86641">
        <ele>480.9</ele>
        <time>2022-09-30T09:14:18Z</time>
      </trkpt>
      <trkpt lat="46.85319" lon="6.86639">
        <ele>480.9</ele>
        <time>2022-09-30T09:14:19Z</time>
      </trkpt>
      <trkpt lat="46.85324" lon="6.86637">
        <ele>480.9</ele>
        <time>2022-09-30T09:14:20Z</time>
      </trkpt>
      <trkpt lat="46.85329" lon="6.86635">
        <ele>480.8</ele>
        <time>2022-09-30T09:14:21Z</time>
      </trkpt>
      <trkpt lat="46.85333" lon="6.86633">
        <ele>480.8</ele>
        <time>2022-09-30T09:14:22Z</time>
      </trkpt>
      <trkpt lat="46.85336" lon="6.86631">
        <ele>480.8</ele>
        <time>2022-09-30T09:14:23Z</time>
      </trkpt>
      <trkpt lat="46.85338" lon="6.86625">
        <ele>480.8</ele>
        <time>2022-09-30T09:14:24Z</time>
      </trkpt>
      <trkpt lat="46.85338" lon="6.86623">
        <ele>480.7</ele>
        <time>2022-09-30T09:14:25Z</time>
      </trkpt>
      <trkpt lat="46.85338" lon="6.86619">
        <ele>480.7</ele>
        <time>2022-09-30T09:14:26Z</time>
      </trkpt>
      <trkpt lat="46.85337" lon="6.86614">
        <ele>480.7</ele>
        <time>2022-09-30T09:14:27Z</time>
      </trkpt>
      <trkpt lat="46.85336" lon="6.86608">
        <ele>480.7</ele>
        <time>2022-09-30T09:14:28Z</time>
      </trkpt>
      <trkpt lat="46.85334" lon="6.86602">
        <ele>480.7</ele>
        <time>2022-09-30T09:14:29Z</time>
      </trkpt>
      <trkpt lat="46.85333" lon="6.86595">
        <ele>480.6</ele>
        <time>2022-09-30T09:14:30Z</time>
      </trkpt>
      <trkpt lat="46.85332" lon="6.86588">
        <ele>480.6</ele>
        <time>2022-09-30T09:14:31Z</time>
      </trkpt>
      <trkpt lat="46.85331" lon="6.86581">
        <ele>480.6</ele>
        <time>2022-09-30T09:14:32Z</time>
      </trkpt>
      <trkpt lat="46.8533" lon="6.86573">
        <ele>480.6</ele>
        <time>2022-09-30T09:14:33Z</time>
      </trkpt>
      <trkpt lat="46.85328" lon="6.86565">
        <ele>480.6</ele>
        <time>2022-09-30T09:14:34Z</time>
      </trkpt>
      <trkpt lat="46.85326" lon="6.86557">
        <ele>480.5</ele>
        <time>2022-09-30T09:14:35Z</time>
      </trkpt>
      <trkpt lat="46.85325" lon="6.8655">
        <ele>480.5</ele>
        <time>2022-09-30T09:14:36Z</time>
      </trkpt>
      <trkpt lat="46.85324" lon="6.86541">
        <ele>480.5</ele>
        <time>2022-09-30T09:14:37Z</time>
      </trkpt>
      <trkpt lat="46.85322" lon="6.86532">
        <ele>480.4</ele>
        <time>2022-09-30T09:14:38Z</time>
      </trkpt>
      <trkpt lat="46.85321" lon="6.86524">
        <ele>480.4</ele>
        <time>2022-09-30T09:14:39Z</time>
      </trkpt>
      <trkpt lat="46.85319" lon="6.86515">
        <ele>480.4</ele>
        <time>2022-09-30T09:14:40Z</time>
      </trkpt>
      <trkpt lat="46.85317" lon="6.86506">
        <ele>480.4</ele>
        <time>2022-09-30T09:14:41Z</time>
      </trkpt>
      <trkpt lat="46.85316" lon="6.86497">
        <ele>480.4</ele>
        <time>2022-09-30T09:14:42Z</time>
      </trkpt>
      <trkpt lat="46.85314" lon="6.86488">
        <ele>480.4</ele>
        <time>2022-09-30T09:14:43Z</time>
      </trkpt>
      <trkpt lat="46.85313" lon="6.86479">
        <ele>480.4</ele>
        <time>2022-09-30T09:14:44Z</time>
      </trkpt>
      <trkpt lat="46.85311" lon="6.8647">
        <ele>480.4</ele>
        <time>2022-09-30T09:14:45Z</time>
      </trkpt>
      <trkpt lat="46.85309" lon="6.86461">
        <ele>480.4</ele>
        <time>2022-09-30T09:14:46Z</time>
      </trkpt>
      <trkpt lat="46.85308" lon="6.86452">
        <ele>480.5</ele>
        <time>2022-09-30T09:14:47Z</time>
      </trkpt>
      <trkpt lat="46.85306" lon="6.86444">
        <ele>480.5</ele>
        <time>2022-09-30T09:14:48Z</time>
      </trkpt>
      <trkpt lat="46.85305" lon="6.86436">
        <ele>480.6</ele>
        <time>2022-09-30T09:14:49Z</time>
      </trkpt>
      <trkpt lat="46.85304" lon="6.8643">
        <ele>480.6</ele>
        <time>2022-09-30T09:14:50Z</time>
      </trkpt>
      <trkpt lat="46.85303" lon="6.86425">
        <ele>480.6</ele>
        <time>2022-09-30T09:14:51Z</time>
      </trkpt>
      <trkpt lat="46.85302" lon="6.86418">
        <ele>480.7</ele>
        <time>2022-09-30T09:14:52Z</time>
      </trkpt>
      <trkpt lat="46.85302" lon="6.86416">
        <ele>480.7</ele>
        <time>2022-09-30T09:14:53Z</time>
      </trkpt>
      <trkpt lat="46.85301" lon="6.86411">
        <ele>480.7</ele>
        <time>2022-09-30T09:14:54Z</time>
      </trkpt>
      <trkpt lat="46.853" lon="6.86405">
        <ele>480.8</ele>
        <time>2022-09-30T09:14:55Z</time>
      </trkpt>
      <trkpt lat="46.85299" lon="6.86399">
        <ele>480.8</ele>
        <time>2022-09-30T09:14:56Z</time>
      </trkpt>
      <trkpt lat="46.85298" lon="6.86393">
        <ele>480.9</ele>
        <time>2022-09-30T09:14:57Z</time>
      </trkpt>
      <trkpt lat="46.85296" lon="6.86386">
        <ele>480.9</ele>
        <time>2022-09-30T09:14:58Z</time>
      </trkpt>
      <trkpt lat="46.85296" lon="6.86381">
        <ele>481</ele>
        <time>2022-09-30T09:14:59Z</time>
      </trkpt>
      <trkpt lat="46.85295" lon="6.86374">
        <ele>481.1</ele>
        <time>2022-09-30T09:15:00Z</time>
      </trkpt>
      <trkpt lat="46.85294" lon="6.86367">
        <ele>481.2</ele>
        <time>2022-09-30T09:15:01Z</time>
      </trkpt>
      <trkpt lat="46.85293" lon="6.86361">
        <ele>481.3</ele>
        <time>2022-09-30T09:15:02Z</time>
      </trkpt>
      <trkpt lat="46.85292" lon="6.86354">
        <ele>481.4</ele>
        <time>2022-09-30T09:15:03Z</time>
      </trkpt>
      <trkpt lat="46.85291" lon="6.86348">
        <ele>481.5</ele>
        <time>2022-09-30T09:15:04Z</time>
      </trkpt>
      <trkpt lat="46.8529" lon="6.86341">
        <ele>481.6</ele>
        <time>2022-09-30T09:15:05Z</time>
      </trkpt>
      <trkpt lat="46.85289" lon="6.86334">
        <ele>481.7</ele>
        <time>2022-09-30T09:15:06Z</time>
      </trkpt>
      <trkpt lat="46.85288" lon="6.86328">
        <ele>481.8</ele>
        <time>2022-09-30T09:15:07Z</time>
      </trkpt>
      <trkpt lat="46.85287" lon="6.86322">
        <ele>481.9</ele>
        <time>2022-09-30T09:15:08Z</time>
      </trkpt>
      <trkpt lat="46.85285" lon="6.86314">
        <ele>482</ele>
        <time>2022-09-30T09:15:09Z</time>
      </trkpt>
      <trkpt lat="46.85284" lon="6.86308">
        <ele>482.1</ele>
        <time>2022-09-30T09:15:10Z</time>
      </trkpt>
      <trkpt lat="46.85283" lon="6.86302">
        <ele>482.2</ele>
        <time>2022-09-30T09:15:11Z</time>
      </trkpt>
      <trkpt lat="46.85282" lon="6.86296">
        <ele>482.2</ele>
        <time>2022-09-30T09:15:12Z</time>
      </trkpt>
      <trkpt lat="46.85281" lon="6.8629">
        <ele>482.3</ele>
        <time>2022-09-30T09:15:13Z</time>
      </trkpt>
      <trkpt lat="46.8528" lon="6.86285">
        <ele>482.3</ele>
        <time>2022-09-30T09:15:14Z</time>
      </trkpt>
      <trkpt lat="46.85279" lon="6.8628">
        <ele>482.4</ele>
        <time>2022-09-30T09:15:15Z</time>
      </trkpt>
      <trkpt lat="46.85277" lon="6.86275">
        <ele>482.4</ele>
        <time>2022-09-30T09:15:16Z</time>
      </trkpt>
      <trkpt lat="46.85277" lon="6.8627">
        <ele>482.4</ele>
        <time>2022-09-30T09:15:17Z</time>
      </trkpt>
      <trkpt lat="46.85277" lon="6.86265">
        <ele>482.4</ele>
        <time>2022-09-30T09:15:18Z</time>
      </trkpt>
      <trkpt lat="46.85278" lon="6.8626">
        <ele>482.4</ele>
        <time>2022-09-30T09:15:19Z</time>
      </trkpt>
      <trkpt lat="46.85279" lon="6.86255">
        <ele>482.4</ele>
        <time>2022-09-30T09:15:20Z</time>
      </trkpt>
      <trkpt lat="46.85282" lon="6.86253">
        <ele>482.4</ele>
        <time>2022-09-30T09:15:21Z</time>
      </trkpt>
      <trkpt lat="46.85284" lon="6.8625">
        <ele>482.3</ele>
        <time>2022-09-30T09:15:22Z</time>
      </trkpt>
      <trkpt lat="46.85288" lon="6.8625">
        <ele>482.3</ele>
        <time>2022-09-30T09:15:23Z</time>
      </trkpt>
      <trkpt lat="46.85291" lon="6.86248">
        <ele>482.2</ele>
        <time>2022-09-30T09:15:24Z</time>
      </trkpt>
      <trkpt lat="46.85296" lon="6.86247">
        <ele>482.1</ele>
        <time>2022-09-30T09:15:25Z</time>
      </trkpt>
      <trkpt lat="46.853" lon="6.86246">
        <ele>482</ele>
        <time>2022-09-30T09:15:26Z</time>
      </trkpt>
      <trkpt lat="46.85304" lon="6.86245">
        <ele>481.9</ele>
        <time>2022-09-30T09:15:27Z</time>
      </trkpt>
      <trkpt lat="46.85308" lon="6.86244">
        <ele>481.7</ele>
        <time>2022-09-30T09:15:28Z</time>
      </trkpt>
      <trkpt lat="46.85314" lon="6.86242">
        <ele>481.5</ele>
        <time>2022-09-30T09:15:29Z</time>
      </trkpt>
      <trkpt lat="46.85319" lon="6.86241">
        <ele>481.4</ele>
        <time>2022-09-30T09:15:30Z</time>
      </trkpt>
      <trkpt lat="46.85322" lon="6.8624">
        <ele>481.3</ele>
        <time>2022-09-30T09:15:31Z</time>
      </trkpt>
      <trkpt lat="46.85326" lon="6.86238">
        <ele>481.2</ele>
        <time>2022-09-30T09:15:32Z</time>
      </trkpt>
      <trkpt lat="46.8533" lon="6.86236">
        <ele>481</ele>
        <time>2022-09-30T09:15:33Z</time>
      </trkpt>
      <trkpt lat="46.85334" lon="6.86235">
        <ele>481</ele>
        <time>2022-09-30T09:15:34Z</time>
      </trkpt>
      <trkpt lat="46.85338" lon="6.86233">
        <ele>480.9</ele>
        <time>2022-09-30T09:15:35Z</time>
      </trkpt>
      <trkpt lat="46.85341" lon="6.86232">
        <ele>480.8</ele>
        <time>2022-09-30T09:15:36Z</time>
      </trkpt>
      <trkpt lat="46.85344" lon="6.86231">
        <ele>480.8</ele>
        <time>2022-09-30T09:15:37Z</time>
      </trkpt>
      <trkpt lat="46.85344" lon="6.86231">
        <ele>480.8</ele>
        <time>2022-09-30T09:15:38Z</time>
      </trkpt>
      <trkpt lat="46.85346" lon="6.8623">
        <ele>480.7</ele>
        <time>2022-09-30T09:15:39Z</time>
      </trkpt>
      <trkpt lat="46.85347" lon="6.8623">
        <ele>480.7</ele>
        <time>2022-09-30T09:15:40Z</time>
      </trkpt>
      <trkpt lat="46.85347" lon="6.8623">
        <ele>480.7</ele>
        <time>2022-09-30T09:15:41Z</time>
      </trkpt>
      <trkpt lat="46.85348" lon="6.86229">
        <ele>480.7</ele>
        <time>2022-09-30T09:15:42Z</time>
      </trkpt>
      <trkpt lat="46.85348" lon="6.86229">
        <ele>480.7</ele>
        <time>2022-09-30T09:15:43Z</time>
      </trkpt>
      <trkpt lat="46.85349" lon="6.86229">
        <ele>480.7</ele>
        <time>2022-09-30T09:15:44Z</time>
      </trkpt>
      <trkpt lat="46.85349" lon="6.86229">
        <ele>480.7</ele>
        <time>2022-09-30T09:15:45Z</time>
      </trkpt>
      <trkpt lat="46.8535" lon="6.86229">
        <ele>480.7</ele>
        <time>2022-09-30T09:15:46Z</time>
      </trkpt>
      <trkpt lat="46.8535" lon="6.86229">
        <ele>480.7</ele>
        <time>2022-09-30T09:15:47Z</time>
      </trkpt>
      <trkpt lat="46.85351" lon="6.86228">
        <ele>480.7</ele>
        <time>2022-09-30T09:15:48Z</time>
      </trkpt>
      <trkpt lat="46.85351" lon="6.86228">
        <ele>480.6</ele>
        <time>2022-09-30T09:15:49Z</time>
      </trkpt>
      <trkpt lat="46.85352" lon="6.86228">
        <ele>480.6</ele>
        <time>2022-09-30T09:15:50Z</time>
      </trkpt>
      <trkpt lat="46.85352" lon="6.86228">
        <ele>480.6</ele>
        <time>2022-09-30T09:16:21Z</time>
      </trkpt>
      <trkpt lat="46.85353" lon="6.86228">
        <ele>480.6</ele>
        <time>2022-09-30T09:16:22Z</time>
      </trkpt>
      <trkpt lat="46.85355" lon="6.86226">
        <ele>480.5</ele>
        <time>2022-09-30T09:16:23Z</time>
      </trkpt>
      <trkpt lat="46.85356" lon="6.86225">
        <ele>480.5</ele>
        <time>2022-09-30T09:16:24Z</time>
      </trkpt>
      <trkpt lat="46.8536" lon="6.86222">
        <ele>480.4</ele>
        <time>2022-09-30T09:16:25Z</time>
      </trkpt>
      <trkpt lat="46.85361" lon="6.8622">
        <ele>480.4</ele>
        <time>2022-09-30T09:16:26Z</time>
      </trkpt>
      <trkpt lat="46.85362" lon="6.86217">
        <ele>480.3</ele>
        <time>2022-09-30T09:16:27Z</time>
      </trkpt>
      <trkpt lat="46.85364" lon="6.86213">
        <ele>480.3</ele>
        <time>2022-09-30T09:16:28Z</time>
      </trkpt>
      <trkpt lat="46.85364" lon="6.86212">
        <ele>480.2</ele>
        <time>2022-09-30T09:16:29Z</time>
      </trkpt>
      <trkpt lat="46.85366" lon="6.86208">
        <ele>480.2</ele>
        <time>2022-09-30T09:16:30Z</time>
      </trkpt>
      <trkpt lat="46.85369" lon="6.86206">
        <ele>480.1</ele>
        <time>2022-09-30T09:16:31Z</time>
      </trkpt>
      <trkpt lat="46.85371" lon="6.86202">
        <ele>480</ele>
        <time>2022-09-30T09:16:32Z</time>
      </trkpt>
      <trkpt lat="46.85374" lon="6.86198">
        <ele>479.9</ele>
        <time>2022-09-30T09:16:33Z</time>
      </trkpt>
      <trkpt lat="46.85378" lon="6.86196">
        <ele>479.9</ele>
        <time>2022-09-30T09:16:34Z</time>
      </trkpt>
      <trkpt lat="46.8538" lon="6.86195">
        <ele>479.8</ele>
        <time>2022-09-30T09:16:35Z</time>
      </trkpt>
      <trkpt lat="46.85383" lon="6.86195">
        <ele>479.8</ele>
        <time>2022-09-30T09:16:36Z</time>
      </trkpt>
      <trkpt lat="46.85386" lon="6.86198">
        <ele>479.8</ele>
        <time>2022-09-30T09:16:37Z</time>
      </trkpt>
      <trkpt lat="46.85388" lon="6.86202">
        <ele>479.8</ele>
        <time>2022-09-30T09:16:38Z</time>
      </trkpt>
      <trkpt lat="46.85388" lon="6.86208">
        <ele>479.8</ele>
        <time>2022-09-30T09:16:39Z</time>
      </trkpt>
      <trkpt lat="46.85389" lon="6.86212">
        <ele>479.9</ele>
        <time>2022-09-30T09:16:40Z</time>
      </trkpt>
      <trkpt lat="46.8539" lon="6.86217">
        <ele>479.9</ele>
        <time>2022-09-30T09:16:41Z</time>
      </trkpt>
      <trkpt lat="46.85391" lon="6.86222">
        <ele>479.9</ele>
        <time>2022-09-30T09:16:42Z</time>
      </trkpt>
      <trkpt lat="46.85392" lon="6.86228">
        <ele>479.9</ele>
        <time>2022-09-30T09:16:43Z</time>
      </trkpt>
      <trkpt lat="46.85392" lon="6.86234">
        <ele>480</ele>
        <time>2022-09-30T09:16:44Z</time>
      </trkpt>
      <trkpt lat="46.85394" lon="6.8624">
        <ele>480</ele>
        <time>2022-09-30T09:16:45Z</time>
      </trkpt>
      <trkpt lat="46.85395" lon="6.86245">
        <ele>480</ele>
        <time>2022-09-30T09:16:46Z</time>
      </trkpt>
      <trkpt lat="46.85397" lon="6.86251">
        <ele>480.1</ele>
        <time>2022-09-30T09:16:47Z</time>
      </trkpt>
      <trkpt lat="46.85399" lon="6.86258">
        <ele>480.1</ele>
        <time>2022-09-30T09:16:48Z</time>
      </trkpt>
      <trkpt lat="46.854" lon="6.86263">
        <ele>480.1</ele>
        <time>2022-09-30T09:16:49Z</time>
      </trkpt>
      <trkpt lat="46.85402" lon="6.86269">
        <ele>480.1</ele>
        <time>2022-09-30T09:16:50Z</time>
      </trkpt>
      <trkpt lat="46.85405" lon="6.86275">
        <ele>480.2</ele>
        <time>2022-09-30T09:16:51Z</time>
      </trkpt>
      <trkpt lat="46.85407" lon="6.8628">
        <ele>480.2</ele>
        <time>2022-09-30T09:16:52Z</time>
      </trkpt>
      <trkpt lat="46.8541" lon="6.86286">
        <ele>480.2</ele>
        <time>2022-09-30T09:16:53Z</time>
      </trkpt>
      <trkpt lat="46.85414" lon="6.86291">
        <ele>480.2</ele>
        <time>2022-09-30T09:16:54Z</time>
      </trkpt>
      <trkpt lat="46.85417" lon="6.86296">
        <ele>480.2</ele>
        <time>2022-09-30T09:16:55Z</time>
      </trkpt>
      <trkpt lat="46.85419" lon="6.86301">
        <ele>480.2</ele>
        <time>2022-09-30T09:16:56Z</time>
      </trkpt>
      <trkpt lat="46.85423" lon="6.86307">
        <ele>480.2</ele>
        <time>2022-09-30T09:16:57Z</time>
      </trkpt>
      <trkpt lat="46.85426" lon="6.86312">
        <ele>480.2</ele>
        <time>2022-09-30T09:16:58Z</time>
      </trkpt>
      <trkpt lat="46.85428" lon="6.86317">
        <ele>480.2</ele>
        <time>2022-09-30T09:16:59Z</time>
      </trkpt>
      <trkpt lat="46.85432" lon="6.86323">
        <ele>480.2</ele>
        <time>2022-09-30T09:17:00Z</time>
      </trkpt>
      <trkpt lat="46.85436" lon="6.86329">
        <ele>480.2</ele>
        <time>2022-09-30T09:17:01Z</time>
      </trkpt>
      <trkpt lat="46.85438" lon="6.86335">
        <ele>480.2</ele>
        <time>2022-09-30T09:17:02Z</time>
      </trkpt>
      <trkpt lat="46.85441" lon="6.8634">
        <ele>480.2</ele>
        <time>2022-09-30T09:17:03Z</time>
      </trkpt>
      <trkpt lat="46.85444" lon="6.86346">
        <ele>480.2</ele>
        <time>2022-09-30T09:17:04Z</time>
      </trkpt>
      <trkpt lat="46.85447" lon="6.8635">
        <ele>480.2</ele>
        <time>2022-09-30T09:17:05Z</time>
      </trkpt>
      <trkpt lat="46.8545" lon="6.86355">
        <ele>480.2</ele>
        <time>2022-09-30T09:17:06Z</time>
      </trkpt>
      <trkpt lat="46.85452" lon="6.86359">
        <ele>480.2</ele>
        <time>2022-09-30T09:17:07Z</time>
      </trkpt>
      <trkpt lat="46.85455" lon="6.86363">
        <ele>480.2</ele>
        <time>2022-09-30T09:17:08Z</time>
      </trkpt>
      <trkpt lat="46.85458" lon="6.86368">
        <ele>480.2</ele>
        <time>2022-09-30T09:17:09Z</time>
      </trkpt>
      <trkpt lat="46.8546" lon="6.86372">
        <ele>480.1</ele>
        <time>2022-09-30T09:17:10Z</time>
      </trkpt>
      <trkpt lat="46.85462" lon="6.86376">
        <ele>480.1</ele>
        <time>2022-09-30T09:17:11Z</time>
      </trkpt>
      <trkpt lat="46.85465" lon="6.86381">
        <ele>480.1</ele>
        <time>2022-09-30T09:17:12Z</time>
      </trkpt>
      <trkpt lat="46.85467" lon="6.86384">
        <ele>480.1</ele>
        <time>2022-09-30T09:17:13Z</time>
      </trkpt>
      <trkpt lat="46.85469" lon="6.86388">
        <ele>480</ele>
        <time>2022-09-30T09:17:14Z</time>
      </trkpt>
      <trkpt lat="46.85471" lon="6.86391">
        <ele>480</ele>
        <time>2022-09-30T09:17:15Z</time>
      </trkpt>
      <trkpt lat="46.85471" lon="6.86392">
        <ele>480</ele>
        <time>2022-09-30T09:17:16Z</time>
      </trkpt>
      <trkpt lat="46.85471" lon="6.86391">
        <ele>480</ele>
        <time>2022-09-30T09:17:17Z</time>
      </trkpt>
      <trkpt lat="46.85471" lon="6.86392">
        <ele>480</ele>
        <time>2022-09-30T09:17:18Z</time>
      </trkpt>
      <trkpt lat="46.85471" lon="6.86392">
        <ele>480</ele>
        <time>2022-09-30T09:17:19Z</time>
      </trkpt>
      <trkpt lat="46.85472" lon="6.86392">
        <ele>480</ele>
        <time>2022-09-30T09:17:20Z</time>
      </trkpt>
      <trkpt lat="46.85472" lon="6.86393">
        <ele>480</ele>
        <time>2022-09-30T09:17:21Z</time>
      </trkpt>
      <trkpt lat="46.85472" lon="6.86393">
        <ele>480</ele>
        <time>2022-09-30T09:17:22Z</time>
      </trkpt>
      <trkpt lat="46.85473" lon="6.86393">
        <ele>480</ele>
        <time>2022-09-30T09:17:23Z</time>
      </trkpt>
      <trkpt lat="46.85473" lon="6.86394">
        <ele>480</ele>
        <time>2022-09-30T09:17:24Z</time>
      </trkpt>
      <trkpt lat="46.85473" lon="6.86394">
        <ele>480</ele>
        <time>2022-09-30T09:17:25Z</time>
      </trkpt>
      <trkpt lat="46.85473" lon="6.86394">
        <ele>480</ele>
        <time>2022-09-30T09:17:26Z</time>
      </trkpt>
      <trkpt lat="46.85474" lon="6.86395">
        <ele>480</ele>
        <time>2022-09-30T09:17:27Z</time>
      </trkpt>
      <trkpt lat="46.85474" lon="6.86395">
        <ele>480</ele>
        <time>2022-09-30T09:17:28Z</time>
      </trkpt>
      <trkpt lat="46.85474" lon="6.86395">
        <ele>480</ele>
        <time>2022-09-30T09:17:29Z</time>
      </trkpt>
      <trkpt lat="46.85475" lon="6.86396">
        <ele>480</ele>
        <time>2022-09-30T09:17:30Z</time>
      </trkpt>
      <trkpt lat="46.85475" lon="6.86396">
        <ele>480</ele>
        <time>2022-09-30T09:17:31Z</time>
      </trkpt>
      <trkpt lat="46.85475" lon="6.86396">
        <ele>480</ele>
        <time>2022-09-30T09:17:32Z</time>
      </trkpt>
      <trkpt lat="46.85475" lon="6.86397">
        <ele>479.9</ele>
        <time>2022-09-30T09:17:33Z</time>
      </trkpt>
      <trkpt lat="46.85476" lon="6.86397">
        <ele>479.9</ele>
        <time>2022-09-30T09:17:34Z</time>
      </trkpt>
      <trkpt lat="46.85476" lon="6.86397">
        <ele>479.9</ele>
        <time>2022-09-30T09:18:10Z</time>
      </trkpt>
      <trkpt lat="46.85476" lon="6.86398">
        <ele>479.9</ele>
        <time>2022-09-30T09:18:11Z</time>
      </trkpt>
      <trkpt lat="46.85479" lon="6.86402">
        <ele>479.9</ele>
        <time>2022-09-30T09:18:12Z</time>
      </trkpt>
      <trkpt lat="46.8548" lon="6.86404">
        <ele>479.9</ele>
        <time>2022-09-30T09:18:13Z</time>
      </trkpt>
      <trkpt lat="46.85482" lon="6.86407">
        <ele>479.8</ele>
        <time>2022-09-30T09:18:14Z</time>
      </trkpt>
      <trkpt lat="46.85483" lon="6.86411">
        <ele>479.8</ele>
        <time>2022-09-30T09:18:15Z</time>
      </trkpt>
      <trkpt lat="46.85487" lon="6.86414">
        <ele>479.8</ele>
        <time>2022-09-30T09:18:16Z</time>
      </trkpt>
      <trkpt lat="46.85489" lon="6.86417">
        <ele>479.7</ele>
        <time>2022-09-30T09:18:17Z</time>
      </trkpt>
      <trkpt lat="46.85492" lon="6.86422">
        <ele>479.7</ele>
        <time>2022-09-30T09:18:18Z</time>
      </trkpt>
      <trkpt lat="46.85495" lon="6.86426">
        <ele>479.6</ele>
        <time>2022-09-30T09:18:19Z</time>
      </trkpt>
      <trkpt lat="46.85498" lon="6.86431">
        <ele>479.5</ele>
        <time>2022-09-30T09:18:20Z</time>
      </trkpt>
      <trkpt lat="46.85501" lon="6.86436">
        <ele>479.5</ele>
        <time>2022-09-30T09:18:21Z</time>
      </trkpt>
      <trkpt lat="46.85504" lon="6.86441">
        <ele>479.5</ele>
        <time>2022-09-30T09:18:22Z</time>
      </trkpt>
      <trkpt lat="46.85508" lon="6.86446">
        <ele>479.4</ele>
        <time>2022-09-30T09:18:23Z</time>
      </trkpt>
      <trkpt lat="46.85511" lon="6.86451">
        <ele>479.4</ele>
        <time>2022-09-30T09:18:24Z</time>
      </trkpt>
      <trkpt lat="46.85515" lon="6.86456">
        <ele>479.4</ele>
        <time>2022-09-30T09:18:25Z</time>
      </trkpt>
      <trkpt lat="46.85519" lon="6.86461">
        <ele>479.3</ele>
        <time>2022-09-30T09:18:26Z</time>
      </trkpt>
      <trkpt lat="46.85522" lon="6.86466">
        <ele>479.3</ele>
        <time>2022-09-30T09:18:27Z</time>
      </trkpt>
      <trkpt lat="46.85525" lon="6.86472">
        <ele>479.3</ele>
        <time>2022-09-30T09:18:28Z</time>
      </trkpt>
      <trkpt lat="46.85529" lon="6.86478">
        <ele>479.3</ele>
        <time>2022-09-30T09:18:29Z</time>
      </trkpt>
      <trkpt lat="46.85532" lon="6.86484">
        <ele>479.3</ele>
        <time>2022-09-30T09:18:30Z</time>
      </trkpt>
      <trkpt lat="46.85535" lon="6.86489">
        <ele>479.2</ele>
        <time>2022-09-30T09:18:31Z</time>
      </trkpt>
      <trkpt lat="46.85539" lon="6.86495">
        <ele>479.2</ele>
        <time>2022-09-30T09:18:32Z</time>
      </trkpt>
      <trkpt lat="46.85543" lon="6.865">
        <ele>479.2</ele>
        <time>2022-09-30T09:18:33Z</time>
      </trkpt>
      <trkpt lat="46.85546" lon="6.86505">
        <ele>479.2</ele>
        <time>2022-09-30T09:18:34Z</time>
      </trkpt>
      <trkpt lat="46.8555" lon="6.86511">
        <ele>479.2</ele>
        <time>2022-09-30T09:18:35Z</time>
      </trkpt>
      <trkpt lat="46.85554" lon="6.86516">
        <ele>479.2</ele>
        <time>2022-09-30T09:18:36Z</time>
      </trkpt>
      <trkpt lat="46.85557" lon="6.86521">
        <ele>479.2</ele>
        <time>2022-09-30T09:18:37Z</time>
      </trkpt>
      <trkpt lat="46.8556" lon="6.86527">
        <ele>479.2</ele>
        <time>2022-09-30T09:18:38Z</time>
      </trkpt>
      <trkpt lat="46.85562" lon="6.86531">
        <ele>479.1</ele>
        <time>2022-09-30T09:18:39Z</time>
      </trkpt>
      <trkpt lat="46.85565" lon="6.86535">
        <ele>479.1</ele>
        <time>2022-09-30T09:18:40Z</time>
      </trkpt>
      <trkpt lat="46.85567" lon="6.86538">
        <ele>479.1</ele>
        <time>2022-09-30T09:18:41Z</time>
      </trkpt>
      <trkpt lat="46.8557" lon="6.86542">
        <ele>479</ele>
        <time>2022-09-30T09:18:42Z</time>
      </trkpt>
      <trkpt lat="46.85572" lon="6.86545">
        <ele>479</ele>
        <time>2022-09-30T09:18:43Z</time>
      </trkpt>
      <trkpt lat="46.85574" lon="6.86548">
        <ele>478.9</ele>
        <time>2022-09-30T09:18:44Z</time>
      </trkpt>
      <trkpt lat="46.85576" lon="6.86552">
        <ele>478.9</ele>
        <time>2022-09-30T09:18:45Z</time>
      </trkpt>
      <trkpt lat="46.8558" lon="6.86556">
        <ele>478.9</ele>
        <time>2022-09-30T09:18:46Z</time>
      </trkpt>
      <trkpt lat="46.85583" lon="6.86561">
        <ele>478.8</ele>
        <time>2022-09-30T09:18:47Z</time>
      </trkpt>
      <trkpt lat="46.85586" lon="6.86566">
        <ele>478.8</ele>
        <time>2022-09-30T09:18:48Z</time>
      </trkpt>
      <trkpt lat="46.85589" lon="6.86571">
        <ele>478.7</ele>
        <time>2022-09-30T09:18:49Z</time>
      </trkpt>
      <trkpt lat="46.85593" lon="6.86576">
        <ele>478.7</ele>
        <time>2022-09-30T09:18:50Z</time>
      </trkpt>
      <trkpt lat="46.85597" lon="6.86582">
        <ele>478.6</ele>
        <time>2022-09-30T09:18:51Z</time>
      </trkpt>
      <trkpt lat="46.85602" lon="6.86587">
        <ele>478.6</ele>
        <time>2022-09-30T09:18:52Z</time>
      </trkpt>
      <trkpt lat="46.85606" lon="6.86592">
        <ele>478.5</ele>
        <time>2022-09-30T09:18:53Z</time>
      </trkpt>
      <trkpt lat="46.85609" lon="6.86595">
        <ele>478.4</ele>
        <time>2022-09-30T09:18:54Z</time>
      </trkpt>
      <trkpt lat="46.85613" lon="6.86599">
        <ele>478.4</ele>
        <time>2022-09-30T09:18:55Z</time>
      </trkpt>
      <trkpt lat="46.85617" lon="6.86604">
        <ele>478.3</ele>
        <time>2022-09-30T09:18:56Z</time>
      </trkpt>
      <trkpt lat="46.85623" lon="6.86608">
        <ele>478.2</ele>
        <time>2022-09-30T09:18:57Z</time>
      </trkpt>
      <trkpt lat="46.85626" lon="6.86613">
        <ele>478.1</ele>
        <time>2022-09-30T09:18:58Z</time>
      </trkpt>
      <trkpt lat="46.85631" lon="6.86618">
        <ele>478</ele>
        <time>2022-09-30T09:18:59Z</time>
      </trkpt>
      <trkpt lat="46.85636" lon="6.86622">
        <ele>477.8</ele>
        <time>2022-09-30T09:19:00Z</time>
      </trkpt>
      <trkpt lat="46.8564" lon="6.86625">
        <ele>477.7</ele>
        <time>2022-09-30T09:19:01Z</time>
      </trkpt>
      <trkpt lat="46.85644" lon="6.86626">
        <ele>477.6</ele>
        <time>2022-09-30T09:19:02Z</time>
      </trkpt>
      <trkpt lat="46.85648" lon="6.86629">
        <ele>477.5</ele>
        <time>2022-09-30T09:19:03Z</time>
      </trkpt>
      <trkpt lat="46.85654" lon="6.86633">
        <ele>477.3</ele>
        <time>2022-09-30T09:19:04Z</time>
      </trkpt>
      <trkpt lat="46.85659" lon="6.86634">
        <ele>477.2</ele>
        <time>2022-09-30T09:19:05Z</time>
      </trkpt>
      <trkpt lat="46.85664" lon="6.86636">
        <ele>477</ele>
        <time>2022-09-30T09:19:06Z</time>
      </trkpt>
      <trkpt lat="46.8567" lon="6.86637">
        <ele>476.9</ele>
        <time>2022-09-30T09:19:07Z</time>
      </trkpt>
      <trkpt lat="46.85675" lon="6.86639">
        <ele>476.8</ele>
        <time>2022-09-30T09:19:08Z</time>
      </trkpt>
      <trkpt lat="46.8568" lon="6.86642">
        <ele>476.7</ele>
        <time>2022-09-30T09:19:09Z</time>
      </trkpt>
      <trkpt lat="46.85686" lon="6.86645">
        <ele>476.6</ele>
        <time>2022-09-30T09:19:10Z</time>
      </trkpt>
      <trkpt lat="46.85692" lon="6.86649">
        <ele>476.6</ele>
        <time>2022-09-30T09:19:11Z</time>
      </trkpt>
      <trkpt lat="46.85697" lon="6.86653">
        <ele>476.5</ele>
        <time>2022-09-30T09:19:12Z</time>
      </trkpt>
      <trkpt lat="46.85703" lon="6.86655">
        <ele>476.4</ele>
        <time>2022-09-30T09:19:13Z</time>
      </trkpt>
      <trkpt lat="46.85709" lon="6.86659">
        <ele>476.4</ele>
        <time>2022-09-30T09:19:14Z</time>
      </trkpt>
      <trkpt lat="46.85714" lon="6.8666">
        <ele>476.3</ele>
        <time>2022-09-30T09:19:15Z</time>
      </trkpt>
      <trkpt lat="46.8572" lon="6.86665">
        <ele>476.3</ele>
        <time>2022-09-30T09:19:16Z</time>
      </trkpt>
      <trkpt lat="46.85727" lon="6.8667">
        <ele>476.2</ele>
        <time>2022-09-30T09:19:17Z</time>
      </trkpt>
      <trkpt lat="46.85732" lon="6.86673">
        <ele>476.2</ele>
        <time>2022-09-30T09:19:18Z</time>
      </trkpt>
      <trkpt lat="46.85736" lon="6.86677">
        <ele>476.1</ele>
        <time>2022-09-30T09:19:19Z</time>
      </trkpt>
      <trkpt lat="46.85741" lon="6.86679">
        <ele>476.1</ele>
        <time>2022-09-30T09:19:20Z</time>
      </trkpt>
      <trkpt lat="46.85744" lon="6.86681">
        <ele>476.1</ele>
        <time>2022-09-30T09:19:21Z</time>
      </trkpt>
      <trkpt lat="46.85747" lon="6.86683">
        <ele>476</ele>
        <time>2022-09-30T09:19:22Z</time>
      </trkpt>
      <trkpt lat="46.8575" lon="6.86686">
        <ele>476</ele>
        <time>2022-09-30T09:19:23Z</time>
      </trkpt>
      <trkpt lat="46.8575" lon="6.86686">
        <ele>476</ele>
        <time>2022-09-30T09:19:24Z</time>
      </trkpt>
      <trkpt lat="46.85751" lon="6.86687">
        <ele>476</ele>
        <time>2022-09-30T09:19:25Z</time>
      </trkpt>
      <trkpt lat="46.85751" lon="6.86687">
        <ele>476</ele>
        <time>2022-09-30T09:19:26Z</time>
      </trkpt>
      <trkpt lat="46.85752" lon="6.86687">
        <ele>476</ele>
        <time>2022-09-30T09:19:27Z</time>
      </trkpt>
      <trkpt lat="46.85752" lon="6.86688">
        <ele>476</ele>
        <time>2022-09-30T09:19:28Z</time>
      </trkpt>
      <trkpt lat="46.85752" lon="6.86688">
        <ele>476</ele>
        <time>2022-09-30T09:19:29Z</time>
      </trkpt>
      <trkpt lat="46.85753" lon="6.86688">
        <ele>476</ele>
        <time>2022-09-30T09:19:30Z</time>
      </trkpt>
      <trkpt lat="46.85753" lon="6.86688">
        <ele>476</ele>
        <time>2022-09-30T09:19:31Z</time>
      </trkpt>
      <trkpt lat="46.85753" lon="6.86689">
        <ele>476</ele>
        <time>2022-09-30T09:19:32Z</time>
      </trkpt>
      <trkpt lat="46.85754" lon="6.86689">
        <ele>476</ele>
        <time>2022-09-30T09:19:33Z</time>
      </trkpt>
      <trkpt lat="46.85754" lon="6.86689">
        <ele>476</ele>
        <time>2022-09-30T09:19:34Z</time>
      </trkpt>
      <trkpt lat="46.85755" lon="6.86689">
        <ele>476</ele>
        <time>2022-09-30T09:20:13Z</time>
      </trkpt>
      <trkpt lat="46.85755" lon="6.8669">
        <ele>476</ele>
        <time>2022-09-30T09:20:14Z</time>
      </trkpt>
      <trkpt lat="46.85759" lon="6.8669">
        <ele>475.9</ele>
        <time>2022-09-30T09:20:15Z</time>
      </trkpt>
      <trkpt lat="46.85761" lon="6.86691">
        <ele>475.9</ele>
        <time>2022-09-30T09:20:16Z</time>
      </trkpt>
      <trkpt lat="46.85764" lon="6.86692">
        <ele>475.9</ele>
        <time>2022-09-30T09:20:17Z</time>
      </trkpt>
      <trkpt lat="46.85765" lon="6.86696">
        <ele>475.9</ele>
        <time>2022-09-30T09:20:18Z</time>
      </trkpt>
      <trkpt lat="46.85769" lon="6.86698">
        <ele>475.9</ele>
        <time>2022-09-30T09:20:19Z</time>
      </trkpt>
      <trkpt lat="46.85772" lon="6.86701">
        <ele>475.9</ele>
        <time>2022-09-30T09:20:20Z</time>
      </trkpt>
      <trkpt lat="46.85776" lon="6.86703">
        <ele>475.8</ele>
        <time>2022-09-30T09:20:21Z</time>
      </trkpt>
      <trkpt lat="46.8578" lon="6.86705">
        <ele>475.8</ele>
        <time>2022-09-30T09:20:22Z</time>
      </trkpt>
      <trkpt lat="46.85784" lon="6.86708">
        <ele>475.8</ele>
        <time>2022-09-30T09:20:23Z</time>
      </trkpt>
      <trkpt lat="46.85787" lon="6.86712">
        <ele>475.8</ele>
        <time>2022-09-30T09:20:24Z</time>
      </trkpt>
      <trkpt lat="46.8579" lon="6.86714">
        <ele>475.8</ele>
        <time>2022-09-30T09:20:25Z</time>
      </trkpt>
      <trkpt lat="46.85794" lon="6.86717">
        <ele>475.8</ele>
        <time>2022-09-30T09:20:26Z</time>
      </trkpt>
      <trkpt lat="46.85797" lon="6.8672">
        <ele>475.8</ele>
        <time>2022-09-30T09:20:27Z</time>
      </trkpt>
      <trkpt lat="46.858" lon="6.86724">
        <ele>475.8</ele>
        <time>2022-09-30T09:20:28Z</time>
      </trkpt>
      <trkpt lat="46.85803" lon="6.86725">
        <ele>475.8</ele>
        <time>2022-09-30T09:20:29Z</time>
      </trkpt>
      <trkpt lat="46.85807" lon="6.86727">
        <ele>475.8</ele>
        <time>2022-09-30T09:20:30Z</time>
      </trkpt>
      <trkpt lat="46.8581" lon="6.8673">
        <ele>475.9</ele>
        <time>2022-09-30T09:20:31Z</time>
      </trkpt>
      <trkpt lat="46.85812" lon="6.86733">
        <ele>475.9</ele>
        <time>2022-09-30T09:20:32Z</time>
      </trkpt>
      <trkpt lat="46.85816" lon="6.86734">
        <ele>475.9</ele>
        <time>2022-09-30T09:20:33Z</time>
      </trkpt>
      <trkpt lat="46.85819" lon="6.86738">
        <ele>475.9</ele>
        <time>2022-09-30T09:20:34Z</time>
      </trkpt>
      <trkpt lat="46.85823" lon="6.86741">
        <ele>476</ele>
        <time>2022-09-30T09:20:35Z</time>
      </trkpt>
      <trkpt lat="46.85826" lon="6.86745">
        <ele>476</ele>
        <time>2022-09-30T09:20:36Z</time>
      </trkpt>
      <trkpt lat="46.8583" lon="6.86749">
        <ele>476</ele>
        <time>2022-09-30T09:20:37Z</time>
      </trkpt>
      <trkpt lat="46.85832" lon="6.86753">
        <ele>476.1</ele>
        <time>2022-09-30T09:20:38Z</time>
      </trkpt>
      <trkpt lat="46.85835" lon="6.86759">
        <ele>476.1</ele>
        <time>2022-09-30T09:20:39Z</time>
      </trkpt>
      <trkpt lat="46.85837" lon="6.86764">
        <ele>476.1</ele>
        <time>2022-09-30T09:20:40Z</time>
      </trkpt>
      <trkpt lat="46.8584" lon="6.86769">
        <ele>476.2</ele>
        <time>2022-09-30T09:20:41Z</time>
      </trkpt>
      <trkpt lat="46.85842" lon="6.86773">
        <ele>476.3</ele>
        <time>2022-09-30T09:20:42Z</time>
      </trkpt>
      <trkpt lat="46.85844" lon="6.86778">
        <ele>476.3</ele>
        <time>2022-09-30T09:20:43Z</time>
      </trkpt>
      <trkpt lat="46.85846" lon="6.86783">
        <ele>476.4</ele>
        <time>2022-09-30T09:20:44Z</time>
      </trkpt>
      <trkpt lat="46.85848" lon="6.86788">
        <ele>476.5</ele>
        <time>2022-09-30T09:20:45Z</time>
      </trkpt>
      <trkpt lat="46.85849" lon="6.86792">
        <ele>476.6</ele>
        <time>2022-09-30T09:20:46Z</time>
      </trkpt>
      <trkpt lat="46.85851" lon="6.86796">
        <ele>476.7</ele>
        <time>2022-09-30T09:20:47Z</time>
      </trkpt>
      <trkpt lat="46.85851" lon="6.86802">
        <ele>476.8</ele>
        <time>2022-09-30T09:20:48Z</time>
      </trkpt>
      <trkpt lat="46.85853" lon="6.86806">
        <ele>476.9</ele>
        <time>2022-09-30T09:20:49Z</time>
      </trkpt>
      <trkpt lat="46.85854" lon="6.8681">
        <ele>477</ele>
        <time>2022-09-30T09:20:50Z</time>
      </trkpt>
      <trkpt lat="46.85855" lon="6.86815">
        <ele>477</ele>
        <time>2022-09-30T09:20:51Z</time>
      </trkpt>
      <trkpt lat="46.85856" lon="6.86817">
        <ele>477.1</ele>
        <time>2022-09-30T09:20:52Z</time>
      </trkpt>
      <trkpt lat="46.85857" lon="6.86822">
        <ele>477.2</ele>
        <time>2022-09-30T09:20:53Z</time>
      </trkpt>
      <trkpt lat="46.85858" lon="6.86824">
        <ele>477.2</ele>
        <time>2022-09-30T09:20:54Z</time>
      </trkpt>
      <trkpt lat="46.8586" lon="6.86829">
        <ele>477.3</ele>
        <time>2022-09-30T09:20:55Z</time>
      </trkpt>
      <trkpt lat="46.85861" lon="6.86834">
        <ele>477.4</ele>
        <time>2022-09-30T09:20:56Z</time>
      </trkpt>
      <trkpt lat="46.85863" lon="6.86838">
        <ele>477.5</ele>
        <time>2022-09-30T09:20:57Z</time>
      </trkpt>
      <trkpt lat="46.85864" lon="6.86843">
        <ele>477.6</ele>
        <time>2022-09-30T09:20:58Z</time>
      </trkpt>
      <trkpt lat="46.85866" lon="6.86847">
        <ele>477.6</ele>
        <time>2022-09-30T09:20:59Z</time>
      </trkpt>
      <trkpt lat="46.85867" lon="6.86852">
        <ele>477.7</ele>
        <time>2022-09-30T09:21:00Z</time>
      </trkpt>
      <trkpt lat="46.85868" lon="6.86856">
        <ele>477.8</ele>
        <time>2022-09-30T09:21:01Z</time>
      </trkpt>
      <trkpt lat="46.8587" lon="6.86861">
        <ele>477.8</ele>
        <time>2022-09-30T09:21:02Z</time>
      </trkpt>
      <trkpt lat="46.85871" lon="6.86866">
        <ele>477.9</ele>
        <time>2022-09-30T09:21:03Z</time>
      </trkpt>
      <trkpt lat="46.85872" lon="6.86871">
        <ele>478</ele>
        <time>2022-09-30T09:21:04Z</time>
      </trkpt>
      <trkpt lat="46.85874" lon="6.86876">
        <ele>478</ele>
        <time>2022-09-30T09:21:05Z</time>
      </trkpt>
      <trkpt lat="46.85876" lon="6.8688">
        <ele>478.1</ele>
        <time>2022-09-30T09:21:06Z</time>
      </trkpt>
      <trkpt lat="46.85878" lon="6.86885">
        <ele>478.2</ele>
        <time>2022-09-30T09:21:07Z</time>
      </trkpt>
      <trkpt lat="46.85879" lon="6.8689">
        <ele>478.2</ele>
        <time>2022-09-30T09:21:08Z</time>
      </trkpt>
      <trkpt lat="46.8588" lon="6.86895">
        <ele>478.3</ele>
        <time>2022-09-30T09:21:09Z</time>
      </trkpt>
      <trkpt lat="46.85882" lon="6.86899">
        <ele>478.4</ele>
        <time>2022-09-30T09:21:10Z</time>
      </trkpt>
      <trkpt lat="46.85883" lon="6.86905">
        <ele>478.4</ele>
        <time>2022-09-30T09:21:11Z</time>
      </trkpt>
      <trkpt lat="46.85885" lon="6.86909">
        <ele>478.5</ele>
        <time>2022-09-30T09:21:12Z</time>
      </trkpt>
      <trkpt lat="46.85887" lon="6.86915">
        <ele>478.6</ele>
        <time>2022-09-30T09:21:13Z</time>
      </trkpt>
      <trkpt lat="46.85889" lon="6.86921">
        <ele>478.7</ele>
        <time>2022-09-30T09:21:14Z</time>
      </trkpt>
      <trkpt lat="46.85889" lon="6.86923">
        <ele>478.7</ele>
        <time>2022-09-30T09:21:15Z</time>
      </trkpt>
      <trkpt lat="46.85891" lon="6.86928">
        <ele>478.7</ele>
        <time>2022-09-30T09:21:16Z</time>
      </trkpt>
      <trkpt lat="46.85893" lon="6.86934">
        <ele>478.8</ele>
        <time>2022-09-30T09:21:17Z</time>
      </trkpt>
      <trkpt lat="46.85895" lon="6.86938">
        <ele>478.8</ele>
        <time>2022-09-30T09:21:18Z</time>
      </trkpt>
      <trkpt lat="46.85896" lon="6.86945">
        <ele>478.9</ele>
        <time>2022-09-30T09:21:19Z</time>
      </trkpt>
      <trkpt lat="46.85897" lon="6.86949">
        <ele>478.9</ele>
        <time>2022-09-30T09:21:20Z</time>
      </trkpt>
      <trkpt lat="46.85899" lon="6.86954">
        <ele>479</ele>
        <time>2022-09-30T09:21:21Z</time>
      </trkpt>
      <trkpt lat="46.85901" lon="6.8696">
        <ele>479</ele>
        <time>2022-09-30T09:21:22Z</time>
      </trkpt>
      <trkpt lat="46.85903" lon="6.86966">
        <ele>479</ele>
        <time>2022-09-30T09:21:23Z</time>
      </trkpt>
      <trkpt lat="46.85904" lon="6.86969">
        <ele>479</ele>
        <time>2022-09-30T09:21:24Z</time>
      </trkpt>
      <trkpt lat="46.85906" lon="6.86973">
        <ele>479.1</ele>
        <time>2022-09-30T09:21:25Z</time>
      </trkpt>
      <trkpt lat="46.85908" lon="6.86977">
        <ele>479.1</ele>
        <time>2022-09-30T09:21:26Z</time>
      </trkpt>
      <trkpt lat="46.85909" lon="6.86983">
        <ele>479.1</ele>
        <time>2022-09-30T09:21:27Z</time>
      </trkpt>
      <trkpt lat="46.85911" lon="6.86988">
        <ele>479.2</ele>
        <time>2022-09-30T09:21:28Z</time>
      </trkpt>
      <trkpt lat="46.85912" lon="6.86993">
        <ele>479.2</ele>
        <time>2022-09-30T09:21:29Z</time>
      </trkpt>
      <trkpt lat="46.85914" lon="6.86998">
        <ele>479.2</ele>
        <time>2022-09-30T09:21:30Z</time>
      </trkpt>
      <trkpt lat="46.85916" lon="6.87004">
        <ele>479.3</ele>
        <time>2022-09-30T09:21:31Z</time>
      </trkpt>
      <trkpt lat="46.85918" lon="6.87008">
        <ele>479.3</ele>
        <time>2022-09-30T09:21:32Z</time>
      </trkpt>
      <trkpt lat="46.85919" lon="6.87013">
        <ele>479.3</ele>
        <time>2022-09-30T09:21:33Z</time>
      </trkpt>
      <trkpt lat="46.85921" lon="6.87019">
        <ele>479.4</ele>
        <time>2022-09-30T09:21:34Z</time>
      </trkpt>
      <trkpt lat="46.85922" lon="6.87024">
        <ele>479.5</ele>
        <time>2022-09-30T09:21:35Z</time>
      </trkpt>
      <trkpt lat="46.85924" lon="6.87029">
        <ele>479.5</ele>
        <time>2022-09-30T09:21:36Z</time>
      </trkpt>
      <trkpt lat="46.85926" lon="6.87034">
        <ele>479.6</ele>
        <time>2022-09-30T09:21:37Z</time>
      </trkpt>
      <trkpt lat="46.85928" lon="6.87038">
        <ele>479.6</ele>
        <time>2022-09-30T09:21:38Z</time>
      </trkpt>
      <trkpt lat="46.85929" lon="6.87043">
        <ele>479.7</ele>
        <time>2022-09-30T09:21:39Z</time>
      </trkpt>
      <trkpt lat="46.8593" lon="6.87048">
        <ele>479.8</ele>
        <time>2022-09-30T09:21:40Z</time>
      </trkpt>
      <trkpt lat="46.85932" lon="6.87053">
        <ele>479.8</ele>
        <time>2022-09-30T09:21:41Z</time>
      </trkpt>
      <trkpt lat="46.85933" lon="6.87057">
        <ele>479.9</ele>
        <time>2022-09-30T09:21:42Z</time>
      </trkpt>
      <trkpt lat="46.85935" lon="6.87062">
        <ele>479.9</ele>
        <time>2022-09-30T09:21:43Z</time>
      </trkpt>
      <trkpt lat="46.85936" lon="6.87067">
        <ele>480</ele>
        <time>2022-09-30T09:21:44Z</time>
      </trkpt>
      <trkpt lat="46.85938" lon="6.87071">
        <ele>480.1</ele>
        <time>2022-09-30T09:21:45Z</time>
      </trkpt>
      <trkpt lat="46.85939" lon="6.87076">
        <ele>480.1</ele>
        <time>2022-09-30T09:21:46Z</time>
      </trkpt>
      <trkpt lat="46.85941" lon="6.87081">
        <ele>480.1</ele>
        <time>2022-09-30T09:21:47Z</time>
      </trkpt>
      <trkpt lat="46.85942" lon="6.87086">
        <ele>480.2</ele>
        <time>2022-09-30T09:21:48Z</time>
      </trkpt>
      <trkpt lat="46.85944" lon="6.8709">
        <ele>480.2</ele>
        <time>2022-09-30T09:21:49Z</time>
      </trkpt>
      <trkpt lat="46.85946" lon="6.87094">
        <ele>480.3</ele>
        <time>2022-09-30T09:21:50Z</time>
      </trkpt>
      <trkpt lat="46.85947" lon="6.87099">
        <ele>480.3</ele>
        <time>2022-09-30T09:21:51Z</time>
      </trkpt>
      <trkpt lat="46.85948" lon="6.87104">
        <ele>480.4</ele>
        <time>2022-09-30T09:21:52Z</time>
      </trkpt>
      <trkpt lat="46.8595" lon="6.87108">
        <ele>480.4</ele>
        <time>2022-09-30T09:21:53Z</time>
      </trkpt>
      <trkpt lat="46.85951" lon="6.87113">
        <ele>480.5</ele>
        <time>2022-09-30T09:21:54Z</time>
      </trkpt>
      <trkpt lat="46.85953" lon="6.87118">
        <ele>480.5</ele>
        <time>2022-09-30T09:21:55Z</time>
      </trkpt>
      <trkpt lat="46.85955" lon="6.87122">
        <ele>480.5</ele>
        <time>2022-09-30T09:21:56Z</time>
      </trkpt>
      <trkpt lat="46.85956" lon="6.87126">
        <ele>480.6</ele>
        <time>2022-09-30T09:21:57Z</time>
      </trkpt>
      <trkpt lat="46.85958" lon="6.87132">
        <ele>480.6</ele>
        <time>2022-09-30T09:21:58Z</time>
      </trkpt>
      <trkpt lat="46.85959" lon="6.87136">
        <ele>480.7</ele>
        <time>2022-09-30T09:21:59Z</time>
      </trkpt>
      <trkpt lat="46.85961" lon="6.87141">
        <ele>480.7</ele>
        <time>2022-09-30T09:22:00Z</time>
      </trkpt>
      <trkpt lat="46.85962" lon="6.87145">
        <ele>480.8</ele>
        <time>2022-09-30T09:22:01Z</time>
      </trkpt>
      <trkpt lat="46.85965" lon="6.8715">
        <ele>480.8</ele>
        <time>2022-09-30T09:22:02Z</time>
      </trkpt>
      <trkpt lat="46.85966" lon="6.87155">
        <ele>480.9</ele>
        <time>2022-09-30T09:22:03Z</time>
      </trkpt>
      <trkpt lat="46.85967" lon="6.8716">
        <ele>481</ele>
        <time>2022-09-30T09:22:04Z</time>
      </trkpt>
      <trkpt lat="46.85969" lon="6.87165">
        <ele>481</ele>
        <time>2022-09-30T09:22:05Z</time>
      </trkpt>
      <trkpt lat="46.8597" lon="6.8717">
        <ele>481</ele>
        <time>2022-09-30T09:22:06Z</time>
      </trkpt>
      <trkpt lat="46.85971" lon="6.87175">
        <ele>481.1</ele>
        <time>2022-09-30T09:22:07Z</time>
      </trkpt>
      <trkpt lat="46.85973" lon="6.87179">
        <ele>481.1</ele>
        <time>2022-09-30T09:22:08Z</time>
      </trkpt>
      <trkpt lat="46.85974" lon="6.87184">
        <ele>481.1</ele>
        <time>2022-09-30T09:22:09Z</time>
      </trkpt>
      <trkpt lat="46.85976" lon="6.87189">
        <ele>481.2</ele>
        <time>2022-09-30T09:22:10Z</time>
      </trkpt>
      <trkpt lat="46.85977" lon="6.87193">
        <ele>481.2</ele>
        <time>2022-09-30T09:22:11Z</time>
      </trkpt>
      <trkpt lat="46.85979" lon="6.87197">
        <ele>481.2</ele>
        <time>2022-09-30T09:22:12Z</time>
      </trkpt>
      <trkpt lat="46.8598" lon="6.87202">
        <ele>481.2</ele>
        <time>2022-09-30T09:22:13Z</time>
      </trkpt>
      <trkpt lat="46.85981" lon="6.87207">
        <ele>481.2</ele>
        <time>2022-09-30T09:22:14Z</time>
      </trkpt>
      <trkpt lat="46.85983" lon="6.87212">
        <ele>481.2</ele>
        <time>2022-09-30T09:22:15Z</time>
      </trkpt>
      <trkpt lat="46.85984" lon="6.87216">
        <ele>481.2</ele>
        <time>2022-09-30T09:22:16Z</time>
      </trkpt>
      <trkpt lat="46.85986" lon="6.87221">
        <ele>481.2</ele>
        <time>2022-09-30T09:22:17Z</time>
      </trkpt>
      <trkpt lat="46.85988" lon="6.87226">
        <ele>481.2</ele>
        <time>2022-09-30T09:22:18Z</time>
      </trkpt>
      <trkpt lat="46.8599" lon="6.8723">
        <ele>481.2</ele>
        <time>2022-09-30T09:22:19Z</time>
      </trkpt>
      <trkpt lat="46.85991" lon="6.87236">
        <ele>481.2</ele>
        <time>2022-09-30T09:22:20Z</time>
      </trkpt>
      <trkpt lat="46.85993" lon="6.8724">
        <ele>481.2</ele>
        <time>2022-09-30T09:22:21Z</time>
      </trkpt>
      <trkpt lat="46.85994" lon="6.87245">
        <ele>481.1</ele>
        <time>2022-09-30T09:22:22Z</time>
      </trkpt>
      <trkpt lat="46.85996" lon="6.8725">
        <ele>481.1</ele>
        <time>2022-09-30T09:22:23Z</time>
      </trkpt>
      <trkpt lat="46.85997" lon="6.87256">
        <ele>481</ele>
        <time>2022-09-30T09:22:24Z</time>
      </trkpt>
      <trkpt lat="46.85999" lon="6.87261">
        <ele>480.9</ele>
        <time>2022-09-30T09:22:25Z</time>
      </trkpt>
      <trkpt lat="46.86001" lon="6.87266">
        <ele>480.8</ele>
        <time>2022-09-30T09:22:26Z</time>
      </trkpt>
      <trkpt lat="46.86002" lon="6.87272">
        <ele>480.7</ele>
        <time>2022-09-30T09:22:27Z</time>
      </trkpt>
      <trkpt lat="46.86004" lon="6.87277">
        <ele>480.6</ele>
        <time>2022-09-30T09:22:28Z</time>
      </trkpt>
      <trkpt lat="46.86006" lon="6.87283">
        <ele>480.4</ele>
        <time>2022-09-30T09:22:29Z</time>
      </trkpt>
      <trkpt lat="46.86008" lon="6.87289">
        <ele>480.3</ele>
        <time>2022-09-30T09:22:30Z</time>
      </trkpt>
      <trkpt lat="46.8601" lon="6.87295">
        <ele>480.1</ele>
        <time>2022-09-30T09:22:31Z</time>
      </trkpt>
      <trkpt lat="46.86013" lon="6.87302">
        <ele>480</ele>
        <time>2022-09-30T09:22:32Z</time>
      </trkpt>
      <trkpt lat="46.86015" lon="6.87308">
        <ele>479.8</ele>
        <time>2022-09-30T09:22:33Z</time>
      </trkpt>
      <trkpt lat="46.86017" lon="6.87315">
        <ele>479.6</ele>
        <time>2022-09-30T09:22:34Z</time>
      </trkpt>
      <trkpt lat="46.86019" lon="6.87322">
        <ele>479.5</ele>
        <time>2022-09-30T09:22:35Z</time>
      </trkpt>
      <trkpt lat="46.86022" lon="6.87328">
        <ele>479.3</ele>
        <time>2022-09-30T09:22:36Z</time>
      </trkpt>
      <trkpt lat="46.86024" lon="6.87337">
        <ele>479.1</ele>
        <time>2022-09-30T09:22:37Z</time>
      </trkpt>
      <trkpt lat="46.86027" lon="6.87345">
        <ele>479</ele>
        <time>2022-09-30T09:22:38Z</time>
      </trkpt>
      <trkpt lat="46.86029" lon="6.87352">
        <ele>478.8</ele>
        <time>2022-09-30T09:22:39Z</time>
      </trkpt>
      <trkpt lat="46.86031" lon="6.87359">
        <ele>478.6</ele>
        <time>2022-09-30T09:22:40Z</time>
      </trkpt>
      <trkpt lat="46.86033" lon="6.87368">
        <ele>478.5</ele>
        <time>2022-09-30T09:22:41Z</time>
      </trkpt>
      <trkpt lat="46.86036" lon="6.87374">
        <ele>478.3</ele>
        <time>2022-09-30T09:22:42Z</time>
      </trkpt>
      <trkpt lat="46.86039" lon="6.87381">
        <ele>478.1</ele>
        <time>2022-09-30T09:22:43Z</time>
      </trkpt>
      <trkpt lat="46.86041" lon="6.87389">
        <ele>478</ele>
        <time>2022-09-30T09:22:44Z</time>
      </trkpt>
      <trkpt lat="46.86043" lon="6.87397">
        <ele>477.8</ele>
        <time>2022-09-30T09:22:45Z</time>
      </trkpt>
      <trkpt lat="46.86046" lon="6.87405">
        <ele>477.6</ele>
        <time>2022-09-30T09:22:46Z</time>
      </trkpt>
      <trkpt lat="46.86048" lon="6.87412">
        <ele>477.5</ele>
        <time>2022-09-30T09:22:47Z</time>
      </trkpt>
      <trkpt lat="46.86051" lon="6.8742">
        <ele>477.3</ele>
        <time>2022-09-30T09:22:48Z</time>
      </trkpt>
      <trkpt lat="46.86054" lon="6.87428">
        <ele>477.2</ele>
        <time>2022-09-30T09:22:49Z</time>
      </trkpt>
      <trkpt lat="46.86056" lon="6.87436">
        <ele>477.1</ele>
        <time>2022-09-30T09:22:50Z</time>
      </trkpt>
      <trkpt lat="46.86059" lon="6.87443">
        <ele>477.1</ele>
        <time>2022-09-30T09:22:51Z</time>
      </trkpt>
      <trkpt lat="46.86061" lon="6.87451">
        <ele>477</ele>
        <time>2022-09-30T09:22:52Z</time>
      </trkpt>
      <trkpt lat="46.86063" lon="6.87459">
        <ele>477</ele>
        <time>2022-09-30T09:22:53Z</time>
      </trkpt>
      <trkpt lat="46.86066" lon="6.87467">
        <ele>477</ele>
        <time>2022-09-30T09:22:54Z</time>
      </trkpt>
      <trkpt lat="46.86068" lon="6.87473">
        <ele>477.1</ele>
        <time>2022-09-30T09:22:55Z</time>
      </trkpt>
      <trkpt lat="46.8607" lon="6.87481">
        <ele>477.1</ele>
        <time>2022-09-30T09:22:56Z</time>
      </trkpt>
      <trkpt lat="46.86073" lon="6.87488">
        <ele>477.1</ele>
        <time>2022-09-30T09:22:57Z</time>
      </trkpt>
      <trkpt lat="46.86075" lon="6.87496">
        <ele>477.2</ele>
        <time>2022-09-30T09:22:58Z</time>
      </trkpt>
      <trkpt lat="46.86077" lon="6.87502">
        <ele>477.2</ele>
        <time>2022-09-30T09:22:59Z</time>
      </trkpt>
      <trkpt lat="46.8608" lon="6.87507">
        <ele>477.3</ele>
        <time>2022-09-30T09:23:00Z</time>
      </trkpt>
      <trkpt lat="46.86082" lon="6.87515">
        <ele>477.4</ele>
        <time>2022-09-30T09:23:01Z</time>
      </trkpt>
      <trkpt lat="46.86084" lon="6.87522">
        <ele>477.6</ele>
        <time>2022-09-30T09:23:02Z</time>
      </trkpt>
      <trkpt lat="46.86086" lon="6.87528">
        <ele>477.7</ele>
        <time>2022-09-30T09:23:03Z</time>
      </trkpt>
      <trkpt lat="46.86088" lon="6.87534">
        <ele>477.9</ele>
        <time>2022-09-30T09:23:04Z</time>
      </trkpt>
      <trkpt lat="46.8609" lon="6.87541">
        <ele>478.1</ele>
        <time>2022-09-30T09:23:05Z</time>
      </trkpt>
      <trkpt lat="46.86091" lon="6.87547">
        <ele>478.2</ele>
        <time>2022-09-30T09:23:06Z</time>
      </trkpt>
      <trkpt lat="46.86093" lon="6.87553">
        <ele>478.4</ele>
        <time>2022-09-30T09:23:07Z</time>
      </trkpt>
      <trkpt lat="46.86095" lon="6.87556">
        <ele>478.5</ele>
        <time>2022-09-30T09:23:08Z</time>
      </trkpt>
      <trkpt lat="46.86097" lon="6.87561">
        <ele>478.7</ele>
        <time>2022-09-30T09:23:09Z</time>
      </trkpt>
      <trkpt lat="46.86098" lon="6.87566">
        <ele>478.8</ele>
        <time>2022-09-30T09:23:10Z</time>
      </trkpt>
      <trkpt lat="46.861" lon="6.87571">
        <ele>479</ele>
        <time>2022-09-30T09:23:11Z</time>
      </trkpt>
      <trkpt lat="46.86101" lon="6.87575">
        <ele>479.1</ele>
        <time>2022-09-30T09:23:12Z</time>
      </trkpt>
      <trkpt lat="46.86102" lon="6.8758">
        <ele>479.2</ele>
        <time>2022-09-30T09:23:13Z</time>
      </trkpt>
      <trkpt lat="46.86104" lon="6.87584">
        <ele>479.3</ele>
        <time>2022-09-30T09:23:14Z</time>
      </trkpt>
      <trkpt lat="46.86105" lon="6.87589">
        <ele>479.5</ele>
        <time>2022-09-30T09:23:15Z</time>
      </trkpt>
      <trkpt lat="46.86107" lon="6.87592">
        <ele>479.6</ele>
        <time>2022-09-30T09:23:16Z</time>
      </trkpt>
      <trkpt lat="46.86108" lon="6.87596">
        <ele>479.7</ele>
        <time>2022-09-30T09:23:17Z</time>
      </trkpt>
      <trkpt lat="46.86109" lon="6.876">
        <ele>479.8</ele>
        <time>2022-09-30T09:23:18Z</time>
      </trkpt>
      <trkpt lat="46.8611" lon="6.87604">
        <ele>479.9</ele>
        <time>2022-09-30T09:23:19Z</time>
      </trkpt>
      <trkpt lat="46.86111" lon="6.87608">
        <ele>480</ele>
        <time>2022-09-30T09:23:20Z</time>
      </trkpt>
      <trkpt lat="46.86113" lon="6.87611">
        <ele>480.2</ele>
        <time>2022-09-30T09:23:21Z</time>
      </trkpt>
      <trkpt lat="46.86115" lon="6.87616">
        <ele>480.3</ele>
        <time>2022-09-30T09:23:22Z</time>
      </trkpt>
      <trkpt lat="46.86115" lon="6.87618">
        <ele>480.4</ele>
        <time>2022-09-30T09:23:23Z</time>
      </trkpt>
      <trkpt lat="46.86116" lon="6.87622">
        <ele>480.5</ele>
        <time>2022-09-30T09:23:24Z</time>
      </trkpt>
      <trkpt lat="46.86118" lon="6.87627">
        <ele>480.7</ele>
        <time>2022-09-30T09:23:25Z</time>
      </trkpt>
      <trkpt lat="46.86119" lon="6.87629">
        <ele>480.7</ele>
        <time>2022-09-30T09:23:26Z</time>
      </trkpt>
      <trkpt lat="46.8612" lon="6.87633">
        <ele>480.9</ele>
        <time>2022-09-30T09:23:27Z</time>
      </trkpt>
      <trkpt lat="46.86121" lon="6.87637">
        <ele>481</ele>
        <time>2022-09-30T09:23:28Z</time>
      </trkpt>
      <trkpt lat="46.86123" lon="6.87642">
        <ele>481.1</ele>
        <time>2022-09-30T09:23:29Z</time>
      </trkpt>
      <trkpt lat="46.86124" lon="6.87643">
        <ele>481.2</ele>
        <time>2022-09-30T09:23:30Z</time>
      </trkpt>
      <trkpt lat="46.86125" lon="6.87647">
        <ele>481.3</ele>
        <time>2022-09-30T09:23:31Z</time>
      </trkpt>
      <trkpt lat="46.86126" lon="6.87652">
        <ele>481.4</ele>
        <time>2022-09-30T09:23:32Z</time>
      </trkpt>
      <trkpt lat="46.86127" lon="6.87654">
        <ele>481.5</ele>
        <time>2022-09-30T09:23:33Z</time>
      </trkpt>
      <trkpt lat="46.86128" lon="6.87659">
        <ele>481.6</ele>
        <time>2022-09-30T09:23:35Z</time>
      </trkpt>
      <trkpt lat="46.86129" lon="6.87661">
        <ele>481.6</ele>
        <time>2022-09-30T09:23:36Z</time>
      </trkpt>
      <trkpt lat="46.86131" lon="6.87664">
        <ele>481.7</ele>
        <time>2022-09-30T09:23:37Z</time>
      </trkpt>
      <trkpt lat="46.86132" lon="6.87668">
        <ele>481.8</ele>
        <time>2022-09-30T09:23:38Z</time>
      </trkpt>
      <trkpt lat="46.86133" lon="6.87672">
        <ele>481.9</ele>
        <time>2022-09-30T09:23:39Z</time>
      </trkpt>
      <trkpt lat="46.86134" lon="6.87676">
        <ele>481.9</ele>
        <time>2022-09-30T09:23:40Z</time>
      </trkpt>
      <trkpt lat="46.86135" lon="6.8768">
        <ele>482</ele>
        <time>2022-09-30T09:23:41Z</time>
      </trkpt>
      <trkpt lat="46.86137" lon="6.87684">
        <ele>482.1</ele>
        <time>2022-09-30T09:23:42Z</time>
      </trkpt>
      <trkpt lat="46.86138" lon="6.87687">
        <ele>482.1</ele>
        <time>2022-09-30T09:23:43Z</time>
      </trkpt>
      <trkpt lat="46.8614" lon="6.87693">
        <ele>482.2</ele>
        <time>2022-09-30T09:23:44Z</time>
      </trkpt>
      <trkpt lat="46.8614" lon="6.87695">
        <ele>482.3</ele>
        <time>2022-09-30T09:23:45Z</time>
      </trkpt>
      <trkpt lat="46.86142" lon="6.87699">
        <ele>482.4</ele>
        <time>2022-09-30T09:23:46Z</time>
      </trkpt>
      <trkpt lat="46.86143" lon="6.87705">
        <ele>482.5</ele>
        <time>2022-09-30T09:23:47Z</time>
      </trkpt>
      <trkpt lat="46.86144" lon="6.87707">
        <ele>482.5</ele>
        <time>2022-09-30T09:23:48Z</time>
      </trkpt>
      <trkpt lat="46.86147" lon="6.87715">
        <ele>482.6</ele>
        <time>2022-09-30T09:23:49Z</time>
      </trkpt>
      <trkpt lat="46.86149" lon="6.87723">
        <ele>482.8</ele>
        <time>2022-09-30T09:23:51Z</time>
      </trkpt>
      <trkpt lat="46.86151" lon="6.87727">
        <ele>482.8</ele>
        <time>2022-09-30T09:23:52Z</time>
      </trkpt>
      <trkpt lat="46.86152" lon="6.87732">
        <ele>482.9</ele>
        <time>2022-09-30T09:23:53Z</time>
      </trkpt>
      <trkpt lat="46.86154" lon="6.87736">
        <ele>482.9</ele>
        <time>2022-09-30T09:23:54Z</time>
      </trkpt>
      <trkpt lat="46.86155" lon="6.87739">
        <ele>483</ele>
        <time>2022-09-30T09:23:55Z</time>
      </trkpt>
      <trkpt lat="46.86156" lon="6.87744">
        <ele>483</ele>
        <time>2022-09-30T09:23:56Z</time>
      </trkpt>
      <trkpt lat="46.86157" lon="6.87748">
        <ele>483.1</ele>
        <time>2022-09-30T09:23:57Z</time>
      </trkpt>
      <trkpt lat="46.86158" lon="6.87752">
        <ele>483.1</ele>
        <time>2022-09-30T09:23:58Z</time>
      </trkpt>
      <trkpt lat="46.8616" lon="6.87756">
        <ele>483.1</ele>
        <time>2022-09-30T09:23:59Z</time>
      </trkpt>
      <trkpt lat="46.86162" lon="6.8776">
        <ele>483.2</ele>
        <time>2022-09-30T09:24:00Z</time>
      </trkpt>
      <trkpt lat="46.86163" lon="6.87764">
        <ele>483.2</ele>
        <time>2022-09-30T09:24:01Z</time>
      </trkpt>
      <trkpt lat="46.86164" lon="6.87769">
        <ele>483.2</ele>
        <time>2022-09-30T09:24:02Z</time>
      </trkpt>
      <trkpt lat="46.86165" lon="6.87773">
        <ele>483.2</ele>
        <time>2022-09-30T09:24:03Z</time>
      </trkpt>
      <trkpt lat="46.86167" lon="6.87778">
        <ele>483.3</ele>
        <time>2022-09-30T09:24:04Z</time>
      </trkpt>
      <trkpt lat="46.86168" lon="6.87781">
        <ele>483.3</ele>
        <time>2022-09-30T09:24:05Z</time>
      </trkpt>
      <trkpt lat="46.86169" lon="6.87785">
        <ele>483.3</ele>
        <time>2022-09-30T09:24:06Z</time>
      </trkpt>
      <trkpt lat="46.86171" lon="6.8779">
        <ele>483.4</ele>
        <time>2022-09-30T09:24:07Z</time>
      </trkpt>
      <trkpt lat="46.86172" lon="6.87794">
        <ele>483.4</ele>
        <time>2022-09-30T09:24:08Z</time>
      </trkpt>
      <trkpt lat="46.86174" lon="6.87798">
        <ele>483.4</ele>
        <time>2022-09-30T09:24:09Z</time>
      </trkpt>
      <trkpt lat="46.86176" lon="6.87803">
        <ele>483.5</ele>
        <time>2022-09-30T09:24:10Z</time>
      </trkpt>
      <trkpt lat="46.86177" lon="6.87807">
        <ele>483.5</ele>
        <time>2022-09-30T09:24:11Z</time>
      </trkpt>
      <trkpt lat="46.86178" lon="6.87812">
        <ele>483.6</ele>
        <time>2022-09-30T09:24:12Z</time>
      </trkpt>
      <trkpt lat="46.86179" lon="6.87816">
        <ele>483.7</ele>
        <time>2022-09-30T09:24:13Z</time>
      </trkpt>
      <trkpt lat="46.86181" lon="6.8782">
        <ele>483.7</ele>
        <time>2022-09-30T09:24:14Z</time>
      </trkpt>
      <trkpt lat="46.86182" lon="6.87824">
        <ele>483.8</ele>
        <time>2022-09-30T09:24:15Z</time>
      </trkpt>
      <trkpt lat="46.86183" lon="6.87828">
        <ele>483.8</ele>
        <time>2022-09-30T09:24:16Z</time>
      </trkpt>
      <trkpt lat="46.86184" lon="6.87832">
        <ele>483.9</ele>
        <time>2022-09-30T09:24:17Z</time>
      </trkpt>
      <trkpt lat="46.86186" lon="6.87836">
        <ele>483.9</ele>
        <time>2022-09-30T09:24:18Z</time>
      </trkpt>
      <trkpt lat="46.86187" lon="6.8784">
        <ele>484</ele>
        <time>2022-09-30T09:24:19Z</time>
      </trkpt>
      <trkpt lat="46.86188" lon="6.87845">
        <ele>484.1</ele>
        <time>2022-09-30T09:24:20Z</time>
      </trkpt>
      <trkpt lat="46.86189" lon="6.87848">
        <ele>484.1</ele>
        <time>2022-09-30T09:24:21Z</time>
      </trkpt>
      <trkpt lat="46.86191" lon="6.87852">
        <ele>484.2</ele>
        <time>2022-09-30T09:24:22Z</time>
      </trkpt>
      <trkpt lat="46.86193" lon="6.87856">
        <ele>484.2</ele>
        <time>2022-09-30T09:24:23Z</time>
      </trkpt>
      <trkpt lat="46.86194" lon="6.8786">
        <ele>484.3</ele>
        <time>2022-09-30T09:24:24Z</time>
      </trkpt>
      <trkpt lat="46.86195" lon="6.87864">
        <ele>484.4</ele>
        <time>2022-09-30T09:24:25Z</time>
      </trkpt>
      <trkpt lat="46.86197" lon="6.8787">
        <ele>484.5</ele>
        <time>2022-09-30T09:24:26Z</time>
      </trkpt>
      <trkpt lat="46.86197" lon="6.87872">
        <ele>484.5</ele>
        <time>2022-09-30T09:24:27Z</time>
      </trkpt>
      <trkpt lat="46.86199" lon="6.87876">
        <ele>484.6</ele>
        <time>2022-09-30T09:24:28Z</time>
      </trkpt>
      <trkpt lat="46.862" lon="6.8788">
        <ele>484.6</ele>
        <time>2022-09-30T09:24:29Z</time>
      </trkpt>
      <trkpt lat="46.86201" lon="6.87884">
        <ele>484.7</ele>
        <time>2022-09-30T09:24:30Z</time>
      </trkpt>
      <trkpt lat="46.86202" lon="6.87889">
        <ele>484.8</ele>
        <time>2022-09-30T09:24:31Z</time>
      </trkpt>
      <trkpt lat="46.86203" lon="6.87891">
        <ele>484.9</ele>
        <time>2022-09-30T09:24:32Z</time>
      </trkpt>
      <trkpt lat="46.86204" lon="6.87894">
        <ele>484.9</ele>
        <time>2022-09-30T09:24:33Z</time>
      </trkpt>
      <trkpt lat="46.86206" lon="6.87899">
        <ele>485</ele>
        <time>2022-09-30T09:24:34Z</time>
      </trkpt>
      <trkpt lat="46.86207" lon="6.87904">
        <ele>485.1</ele>
        <time>2022-09-30T09:24:35Z</time>
      </trkpt>
      <trkpt lat="46.86207" lon="6.87906">
        <ele>485.2</ele>
        <time>2022-09-30T09:24:36Z</time>
      </trkpt>
      <trkpt lat="46.86209" lon="6.87911">
        <ele>485.2</ele>
        <time>2022-09-30T09:24:37Z</time>
      </trkpt>
      <trkpt lat="46.8621" lon="6.87913">
        <ele>485.3</ele>
        <time>2022-09-30T09:24:38Z</time>
      </trkpt>
      <trkpt lat="46.86211" lon="6.87917">
        <ele>485.3</ele>
        <time>2022-09-30T09:24:39Z</time>
      </trkpt>
      <trkpt lat="46.86213" lon="6.87922">
        <ele>485.4</ele>
        <time>2022-09-30T09:24:40Z</time>
      </trkpt>
      <trkpt lat="46.86213" lon="6.87924">
        <ele>485.4</ele>
        <time>2022-09-30T09:24:41Z</time>
      </trkpt>
      <trkpt lat="46.86214" lon="6.87928">
        <ele>485.4</ele>
        <time>2022-09-30T09:24:42Z</time>
      </trkpt>
      <trkpt lat="46.86215" lon="6.87932">
        <ele>485.4</ele>
        <time>2022-09-30T09:24:43Z</time>
      </trkpt>
      <trkpt lat="46.86216" lon="6.87936">
        <ele>485.4</ele>
        <time>2022-09-30T09:24:44Z</time>
      </trkpt>
      <trkpt lat="46.86218" lon="6.8794">
        <ele>485.4</ele>
        <time>2022-09-30T09:24:45Z</time>
      </trkpt>
      <trkpt lat="46.86219" lon="6.87945">
        <ele>485.3</ele>
        <time>2022-09-30T09:24:46Z</time>
      </trkpt>
      <trkpt lat="46.86221" lon="6.8795">
        <ele>485.3</ele>
        <time>2022-09-30T09:24:47Z</time>
      </trkpt>
      <trkpt lat="46.86221" lon="6.87952">
        <ele>485.2</ele>
        <time>2022-09-30T09:24:48Z</time>
      </trkpt>
      <trkpt lat="46.86223" lon="6.87957">
        <ele>485.1</ele>
        <time>2022-09-30T09:24:49Z</time>
      </trkpt>
      <trkpt lat="46.86223" lon="6.87959">
        <ele>485.1</ele>
        <time>2022-09-30T09:24:50Z</time>
      </trkpt>
      <trkpt lat="46.86224" lon="6.87963">
        <ele>485</ele>
        <time>2022-09-30T09:24:51Z</time>
      </trkpt>
      <trkpt lat="46.86225" lon="6.87969">
        <ele>484.8</ele>
        <time>2022-09-30T09:24:52Z</time>
      </trkpt>
      <trkpt lat="46.86227" lon="6.87974">
        <ele>484.7</ele>
        <time>2022-09-30T09:24:53Z</time>
      </trkpt>
      <trkpt lat="46.86229" lon="6.87978">
        <ele>484.5</ele>
        <time>2022-09-30T09:24:54Z</time>
      </trkpt>
      <trkpt lat="46.86232" lon="6.87983">
        <ele>484.4</ele>
        <time>2022-09-30T09:24:55Z</time>
      </trkpt>
      <trkpt lat="46.86233" lon="6.87989">
        <ele>484.2</ele>
        <time>2022-09-30T09:24:56Z</time>
      </trkpt>
      <trkpt lat="46.86236" lon="6.87996">
        <ele>484</ele>
        <time>2022-09-30T09:24:57Z</time>
      </trkpt>
      <trkpt lat="46.86239" lon="6.88001">
        <ele>483.8</ele>
        <time>2022-09-30T09:24:58Z</time>
      </trkpt>
      <trkpt lat="46.86242" lon="6.88006">
        <ele>483.7</ele>
        <time>2022-09-30T09:24:59Z</time>
      </trkpt>
      <trkpt lat="46.86245" lon="6.88011">
        <ele>483.5</ele>
        <time>2022-09-30T09:25:00Z</time>
      </trkpt>
      <trkpt lat="46.86249" lon="6.88016">
        <ele>483.3</ele>
        <time>2022-09-30T09:25:01Z</time>
      </trkpt>
      <trkpt lat="46.86253" lon="6.88022">
        <ele>483.2</ele>
        <time>2022-09-30T09:25:02Z</time>
      </trkpt>
      <trkpt lat="46.86256" lon="6.88027">
        <ele>483</ele>
        <time>2022-09-30T09:25:03Z</time>
      </trkpt>
      <trkpt lat="46.86259" lon="6.88031">
        <ele>482.9</ele>
        <time>2022-09-30T09:25:04Z</time>
      </trkpt>
      <trkpt lat="46.86263" lon="6.88036">
        <ele>482.7</ele>
        <time>2022-09-30T09:25:05Z</time>
      </trkpt>
      <trkpt lat="46.86266" lon="6.88043">
        <ele>482.5</ele>
        <time>2022-09-30T09:25:06Z</time>
      </trkpt>
      <trkpt lat="46.86269" lon="6.88048">
        <ele>482.4</ele>
        <time>2022-09-30T09:25:07Z</time>
      </trkpt>
      <trkpt lat="46.86272" lon="6.88052">
        <ele>482.2</ele>
        <time>2022-09-30T09:25:08Z</time>
      </trkpt>
      <trkpt lat="46.86276" lon="6.88058">
        <ele>482.1</ele>
        <time>2022-09-30T09:25:09Z</time>
      </trkpt>
      <trkpt lat="46.86279" lon="6.88065">
        <ele>481.9</ele>
        <time>2022-09-30T09:25:10Z</time>
      </trkpt>
      <trkpt lat="46.86282" lon="6.88072">
        <ele>481.7</ele>
        <time>2022-09-30T09:25:11Z</time>
      </trkpt>
      <trkpt lat="46.86286" lon="6.88077">
        <ele>481.5</ele>
        <time>2022-09-30T09:25:12Z</time>
      </trkpt>
      <trkpt lat="46.8629" lon="6.88083">
        <ele>481.3</ele>
        <time>2022-09-30T09:25:13Z</time>
      </trkpt>
      <trkpt lat="46.86293" lon="6.88089">
        <ele>481.2</ele>
        <time>2022-09-30T09:25:14Z</time>
      </trkpt>
      <trkpt lat="46.86297" lon="6.88095">
        <ele>481</ele>
        <time>2022-09-30T09:25:15Z</time>
      </trkpt>
      <trkpt lat="46.86301" lon="6.881">
        <ele>480.9</ele>
        <time>2022-09-30T09:25:16Z</time>
      </trkpt>
      <trkpt lat="46.86304" lon="6.88106">
        <ele>480.8</ele>
        <time>2022-09-30T09:25:17Z</time>
      </trkpt>
      <trkpt lat="46.86307" lon="6.8811">
        <ele>480.7</ele>
        <time>2022-09-30T09:25:18Z</time>
      </trkpt>
      <trkpt lat="46.86311" lon="6.88115">
        <ele>480.6</ele>
        <time>2022-09-30T09:25:19Z</time>
      </trkpt>
      <trkpt lat="46.86314" lon="6.88116">
        <ele>480.5</ele>
        <time>2022-09-30T09:25:20Z</time>
      </trkpt>
      <trkpt lat="46.86318" lon="6.88119">
        <ele>480.4</ele>
        <time>2022-09-30T09:25:21Z</time>
      </trkpt>
      <trkpt lat="46.86321" lon="6.8812">
        <ele>480.3</ele>
        <time>2022-09-30T09:25:22Z</time>
      </trkpt>
      <trkpt lat="46.86325" lon="6.8812">
        <ele>480.2</ele>
        <time>2022-09-30T09:25:23Z</time>
      </trkpt>
      <trkpt lat="46.86328" lon="6.88118">
        <ele>480.1</ele>
        <time>2022-09-30T09:25:24Z</time>
      </trkpt>
      <trkpt lat="46.86332" lon="6.88117">
        <ele>480.1</ele>
        <time>2022-09-30T09:25:25Z</time>
      </trkpt>
      <trkpt lat="46.86335" lon="6.88116">
        <ele>480</ele>
        <time>2022-09-30T09:25:26Z</time>
      </trkpt>
      <trkpt lat="46.86338" lon="6.88115">
        <ele>479.9</ele>
        <time>2022-09-30T09:25:27Z</time>
      </trkpt>
      <trkpt lat="46.86341" lon="6.88116">
        <ele>479.9</ele>
        <time>2022-09-30T09:25:28Z</time>
      </trkpt>
      <trkpt lat="46.86345" lon="6.88116">
        <ele>479.8</ele>
        <time>2022-09-30T09:25:29Z</time>
      </trkpt>
      <trkpt lat="46.86348" lon="6.88117">
        <ele>479.8</ele>
        <time>2022-09-30T09:25:30Z</time>
      </trkpt>
      <trkpt lat="46.86349" lon="6.88118">
        <ele>479.7</ele>
        <time>2022-09-30T09:25:31Z</time>
      </trkpt>
      <trkpt lat="46.8635" lon="6.88121">
        <ele>479.7</ele>
        <time>2022-09-30T09:25:32Z</time>
      </trkpt>
      <trkpt lat="46.8635" lon="6.88123">
        <ele>479.4</ele>
        <time>2022-09-30T09:25:33Z</time>
      </trkpt>
      <trkpt lat="46.8635" lon="6.88127">
        <ele>479.3</ele>
        <time>2022-09-30T09:25:34Z</time>
      </trkpt>
      <trkpt lat="46.86348" lon="6.88131">
        <ele>479.1</ele>
        <time>2022-09-30T09:25:35Z</time>
      </trkpt>
      <trkpt lat="46.86346" lon="6.88137">
        <ele>479</ele>
        <time>2022-09-30T09:25:36Z</time>
      </trkpt>
      <trkpt lat="46.86344" lon="6.88143">
        <ele>478.8</ele>
        <time>2022-09-30T09:25:37Z</time>
      </trkpt>
      <trkpt lat="46.86342" lon="6.88148">
        <ele>478.7</ele>
        <time>2022-09-30T09:25:38Z</time>
      </trkpt>
      <trkpt lat="46.86341" lon="6.88154">
        <ele>478.6</ele>
        <time>2022-09-30T09:25:39Z</time>
      </trkpt>
      <trkpt lat="46.86338" lon="6.8816">
        <ele>478.5</ele>
        <time>2022-09-30T09:25:40Z</time>
      </trkpt>
      <trkpt lat="46.86336" lon="6.88166">
        <ele>478.5</ele>
        <time>2022-09-30T09:25:41Z</time>
      </trkpt>
      <trkpt lat="46.86334" lon="6.88168">
        <ele>478.4</ele>
        <time>2022-09-30T09:25:42Z</time>
      </trkpt>
      <trkpt lat="46.86332" lon="6.88172">
        <ele>478.4</ele>
        <time>2022-09-30T09:25:43Z</time>
      </trkpt>
      <trkpt lat="46.86331" lon="6.88174">
        <ele>478.4</ele>
        <time>2022-09-30T09:25:44Z</time>
      </trkpt>
      <trkpt lat="46.8633" lon="6.88178">
        <ele>478.3</ele>
        <time>2022-09-30T09:25:45Z</time>
      </trkpt>
      <trkpt lat="46.8633" lon="6.88184">
        <ele>478.2</ele>
        <time>2022-09-30T09:25:46Z</time>
      </trkpt>
      <trkpt lat="46.8633" lon="6.88189">
        <ele>478.2</ele>
        <time>2022-09-30T09:25:47Z</time>
      </trkpt>
      <trkpt lat="46.86331" lon="6.88196">
        <ele>478.1</ele>
        <time>2022-09-30T09:25:48Z</time>
      </trkpt>
      <trkpt lat="46.8633" lon="6.88202">
        <ele>478.1</ele>
        <time>2022-09-30T09:25:49Z</time>
      </trkpt>
      <trkpt lat="46.8633" lon="6.88209">
        <ele>478</ele>
        <time>2022-09-30T09:25:50Z</time>
      </trkpt>
      <trkpt lat="46.8633" lon="6.88217">
        <ele>478</ele>
        <time>2022-09-30T09:25:51Z</time>
      </trkpt>
      <trkpt lat="46.8633" lon="6.88222">
        <ele>478</ele>
        <time>2022-09-30T09:25:52Z</time>
      </trkpt>
      <trkpt lat="46.86331" lon="6.88228">
        <ele>478</ele>
        <time>2022-09-30T09:25:53Z</time>
      </trkpt>
      <trkpt lat="46.86331" lon="6.88234">
        <ele>478</ele>
        <time>2022-09-30T09:25:54Z</time>
      </trkpt>
      <trkpt lat="46.86333" lon="6.88239">
        <ele>478.1</ele>
        <time>2022-09-30T09:25:55Z</time>
      </trkpt>
      <trkpt lat="46.86336" lon="6.88244">
        <ele>478.1</ele>
        <time>2022-09-30T09:25:56Z</time>
      </trkpt>
      <trkpt lat="46.86338" lon="6.88247">
        <ele>478.2</ele>
        <time>2022-09-30T09:25:57Z</time>
      </trkpt>
      <trkpt lat="46.86341" lon="6.88251">
        <ele>478.3</ele>
        <time>2022-09-30T09:25:58Z</time>
      </trkpt>
      <trkpt lat="46.86345" lon="6.88254">
        <ele>478.4</ele>
        <time>2022-09-30T09:25:59Z</time>
      </trkpt>
      <trkpt lat="46.86348" lon="6.88254">
        <ele>478.5</ele>
        <time>2022-09-30T09:26:00Z</time>
      </trkpt>
      <trkpt lat="46.86352" lon="6.88255">
        <ele>478.6</ele>
        <time>2022-09-30T09:26:01Z</time>
      </trkpt>
      <trkpt lat="46.86353" lon="6.88256">
        <ele>478.7</ele>
        <time>2022-09-30T09:26:02Z</time>
      </trkpt>
      <trkpt lat="46.86356" lon="6.88259">
        <ele>478.8</ele>
        <time>2022-09-30T09:26:03Z</time>
      </trkpt>
      <trkpt lat="46.86357" lon="6.88261">
        <ele>478.8</ele>
        <time>2022-09-30T09:26:04Z</time>
      </trkpt>
      <trkpt lat="46.8636" lon="6.88262">
        <ele>479</ele>
        <time>2022-09-30T09:26:05Z</time>
      </trkpt>
      <trkpt lat="46.86364" lon="6.88263">
        <ele>479.1</ele>
        <time>2022-09-30T09:26:06Z</time>
      </trkpt>
      <trkpt lat="46.86365" lon="6.88264">
        <ele>479.1</ele>
        <time>2022-09-30T09:26:07Z</time>
      </trkpt>
      <trkpt lat="46.86368" lon="6.88264">
        <ele>479.3</ele>
        <time>2022-09-30T09:26:08Z</time>
      </trkpt>
      <trkpt lat="46.8637" lon="6.88268">
        <ele>479.4</ele>
        <time>2022-09-30T09:26:09Z</time>
      </trkpt>
      <trkpt lat="46.86371" lon="6.88268">
        <ele>479.4</ele>
        <time>2022-09-30T09:26:10Z</time>
      </trkpt>
      <trkpt lat="46.86372" lon="6.8827">
        <ele>479.5</ele>
        <time>2022-09-30T09:26:11Z</time>
      </trkpt>
      <trkpt lat="46.86374" lon="6.88271">
        <ele>479.5</ele>
        <time>2022-09-30T09:26:12Z</time>
      </trkpt>
      <trkpt lat="46.86374" lon="6.88272">
        <ele>479.5</ele>
        <time>2022-09-30T09:26:13Z</time>
      </trkpt>
      <trkpt lat="46.86374" lon="6.88272">
        <ele>479.6</ele>
        <time>2022-09-30T09:26:14Z</time>
      </trkpt>
      <trkpt lat="46.86375" lon="6.88273">
        <ele>479.6</ele>
        <time>2022-09-30T09:26:15Z</time>
      </trkpt>
      <trkpt lat="46.86375" lon="6.88273">
        <ele>479.6</ele>
        <time>2022-09-30T09:26:16Z</time>
      </trkpt>
      <trkpt lat="46.86376" lon="6.88274">
        <ele>479.7</ele>
        <time>2022-09-30T09:26:17Z</time>
      </trkpt>
      <trkpt lat="46.86377" lon="6.88274">
        <ele>479.7</ele>
        <time>2022-09-30T09:26:18Z</time>
      </trkpt>
      <trkpt lat="46.86377" lon="6.88275">
        <ele>479.7</ele>
        <time>2022-09-30T09:26:19Z</time>
      </trkpt>
      <trkpt lat="46.86378" lon="6.88275">
        <ele>479.7</ele>
        <time>2022-09-30T09:26:20Z</time>
      </trkpt>
      <trkpt lat="46.86379" lon="6.88276">
        <ele>479.8</ele>
        <time>2022-09-30T09:26:21Z</time>
      </trkpt>
      <trkpt lat="46.86379" lon="6.88276">
        <ele>479.8</ele>
        <time>2022-09-30T09:26:22Z</time>
      </trkpt>
      <trkpt lat="46.8638" lon="6.88276">
        <ele>479.8</ele>
        <time>2022-09-30T09:26:50Z</time>
      </trkpt>
      <trkpt lat="46.86381" lon="6.88277">
        <ele>479.9</ele>
        <time>2022-09-30T09:26:51Z</time>
      </trkpt>
      <trkpt lat="46.86381" lon="6.88277">
        <ele>479.9</ele>
        <time>2022-09-30T09:26:52Z</time>
      </trkpt>
      <trkpt lat="46.86382" lon="6.88278">
        <ele>479.9</ele>
        <time>2022-09-30T09:26:53Z</time>
      </trkpt>
      <trkpt lat="46.86382" lon="6.88278">
        <ele>479.9</ele>
        <time>2022-09-30T09:26:54Z</time>
      </trkpt>
      <trkpt lat="46.86383" lon="6.88279">
        <ele>480</ele>
        <time>2022-09-30T09:26:55Z</time>
      </trkpt>
      <trkpt lat="46.86384" lon="6.88279">
        <ele>480</ele>
        <time>2022-09-30T09:26:56Z</time>
      </trkpt>
      <trkpt lat="46.86384" lon="6.8828">
        <ele>480</ele>
        <time>2022-09-30T09:26:57Z</time>
      </trkpt>
      <trkpt lat="46.86385" lon="6.8828">
        <ele>480.1</ele>
        <time>2022-09-30T09:26:58Z</time>
      </trkpt>
      <trkpt lat="46.86386" lon="6.88281">
        <ele>480.1</ele>
        <time>2022-09-30T09:26:59Z</time>
      </trkpt>
      <trkpt lat="46.86386" lon="6.88281">
        <ele>480.1</ele>
        <time>2022-09-30T09:27:00Z</time>
      </trkpt>
      <trkpt lat="46.86387" lon="6.88282">
        <ele>480.1</ele>
        <time>2022-09-30T09:27:26Z</time>
      </trkpt>
      <trkpt lat="46.86387" lon="6.88282">
        <ele>480.2</ele>
        <time>2022-09-30T09:27:27Z</time>
      </trkpt>
      <trkpt lat="46.8639" lon="6.88285">
        <ele>480.3</ele>
        <time>2022-09-30T09:27:28Z</time>
      </trkpt>
      <trkpt lat="46.8639" lon="6.88286">
        <ele>480.3</ele>
        <time>2022-09-30T09:27:29Z</time>
      </trkpt>
      <trkpt lat="46.86393" lon="6.88289">
        <ele>480.5</ele>
        <time>2022-09-30T09:27:30Z</time>
      </trkpt>
      <trkpt lat="46.86394" lon="6.8829">
        <ele>480.5</ele>
        <time>2022-09-30T09:27:31Z</time>
      </trkpt>
      <trkpt lat="46.86398" lon="6.88292">
        <ele>480.7</ele>
        <time>2022-09-30T09:27:32Z</time>
      </trkpt>
      <trkpt lat="46.86399" lon="6.88295">
        <ele>480.8</ele>
        <time>2022-09-30T09:27:33Z</time>
      </trkpt>
      <trkpt lat="46.864" lon="6.88296">
        <ele>480.8</ele>
        <time>2022-09-30T09:27:34Z</time>
      </trkpt>
      <trkpt lat="46.86404" lon="6.88299">
        <ele>481</ele>
        <time>2022-09-30T09:27:35Z</time>
      </trkpt>
      <trkpt lat="46.86405" lon="6.883">
        <ele>481</ele>
        <time>2022-09-30T09:27:36Z</time>
      </trkpt>
      <trkpt lat="46.86408" lon="6.88303">
        <ele>481.2</ele>
        <time>2022-09-30T09:27:37Z</time>
      </trkpt>
      <trkpt lat="46.86409" lon="6.88304">
        <ele>481.2</ele>
        <time>2022-09-30T09:27:38Z</time>
      </trkpt>
      <trkpt lat="46.86412" lon="6.88306">
        <ele>481.3</ele>
        <time>2022-09-30T09:27:39Z</time>
      </trkpt>
      <trkpt lat="46.86415" lon="6.88309">
        <ele>481.5</ele>
        <time>2022-09-30T09:27:40Z</time>
      </trkpt>
      <trkpt lat="46.86416" lon="6.8831">
        <ele>481.5</ele>
        <time>2022-09-30T09:27:41Z</time>
      </trkpt>
      <trkpt lat="46.86419" lon="6.88314">
        <ele>481.6</ele>
        <time>2022-09-30T09:27:42Z</time>
      </trkpt>
      <trkpt lat="46.8642" lon="6.88315">
        <ele>481.7</ele>
        <time>2022-09-30T09:27:43Z</time>
      </trkpt>
      <trkpt lat="46.86423" lon="6.88318">
        <ele>481.8</ele>
        <time>2022-09-30T09:27:44Z</time>
      </trkpt>
      <trkpt lat="46.86424" lon="6.88319">
        <ele>481.8</ele>
        <time>2022-09-30T09:27:45Z</time>
      </trkpt>
      <trkpt lat="46.86428" lon="6.88322">
        <ele>481.9</ele>
        <time>2022-09-30T09:27:46Z</time>
      </trkpt>
      <trkpt lat="46.86429" lon="6.88322">
        <ele>481.9</ele>
        <time>2022-09-30T09:27:47Z</time>
      </trkpt>
      <trkpt lat="46.86432" lon="6.88326">
        <ele>482</ele>
        <time>2022-09-30T09:27:48Z</time>
      </trkpt>
      <trkpt lat="46.86433" lon="6.88328">
        <ele>482.1</ele>
        <time>2022-09-30T09:27:49Z</time>
      </trkpt>
      <trkpt lat="46.86436" lon="6.8833">
        <ele>482.1</ele>
        <time>2022-09-30T09:27:50Z</time>
      </trkpt>
      <trkpt lat="46.86438" lon="6.88333">
        <ele>482.1</ele>
        <time>2022-09-30T09:27:51Z</time>
      </trkpt>
      <trkpt lat="46.86439" lon="6.88335">
        <ele>482.1</ele>
        <time>2022-09-30T09:27:52Z</time>
      </trkpt>
      <trkpt lat="46.86441" lon="6.88336">
        <ele>482.2</ele>
        <time>2022-09-30T09:27:53Z</time>
      </trkpt>
      <trkpt lat="46.86445" lon="6.88338">
        <ele>482.2</ele>
        <time>2022-09-30T09:27:55Z</time>
      </trkpt>
      <trkpt lat="46.86446" lon="6.8834">
        <ele>482.3</ele>
        <time>2022-09-30T09:27:56Z</time>
      </trkpt>
      <trkpt lat="46.86449" lon="6.88343">
        <ele>482.3</ele>
        <time>2022-09-30T09:27:57Z</time>
      </trkpt>
      <trkpt lat="46.86452" lon="6.88346">
        <ele>482.4</ele>
        <time>2022-09-30T09:27:58Z</time>
      </trkpt>
      <trkpt lat="46.86454" lon="6.88347">
        <ele>482.4</ele>
        <time>2022-09-30T09:27:59Z</time>
      </trkpt>
      <trkpt lat="46.86455" lon="6.8835">
        <ele>482.5</ele>
        <time>2022-09-30T09:28:00Z</time>
      </trkpt>
      <trkpt lat="46.86458" lon="6.88353">
        <ele>482.5</ele>
        <time>2022-09-30T09:28:01Z</time>
      </trkpt>
      <trkpt lat="46.86459" lon="6.88354">
        <ele>482.5</ele>
        <time>2022-09-30T09:28:02Z</time>
      </trkpt>
      <trkpt lat="46.86461" lon="6.88356">
        <ele>482.6</ele>
        <time>2022-09-30T09:28:03Z</time>
      </trkpt>
      <trkpt lat="46.86462" lon="6.88357">
        <ele>482.6</ele>
        <time>2022-09-30T09:28:04Z</time>
      </trkpt>
      <trkpt lat="46.86464" lon="6.88359">
        <ele>482.6</ele>
        <time>2022-09-30T09:28:05Z</time>
      </trkpt>
      <trkpt lat="46.86467" lon="6.88361">
        <ele>482.7</ele>
        <time>2022-09-30T09:28:06Z</time>
      </trkpt>
      <trkpt lat="46.86469" lon="6.88364">
        <ele>482.7</ele>
        <time>2022-09-30T09:28:07Z</time>
      </trkpt>
      <trkpt lat="46.86472" lon="6.88366">
        <ele>482.8</ele>
        <time>2022-09-30T09:28:08Z</time>
      </trkpt>
      <trkpt lat="46.86475" lon="6.8837">
        <ele>482.8</ele>
        <time>2022-09-30T09:28:09Z</time>
      </trkpt>
      <trkpt lat="46.86476" lon="6.88371">
        <ele>482.8</ele>
        <time>2022-09-30T09:28:10Z</time>
      </trkpt>
      <trkpt lat="46.86479" lon="6.88374">
        <ele>482.9</ele>
        <time>2022-09-30T09:28:11Z</time>
      </trkpt>
      <trkpt lat="46.86482" lon="6.88376">
        <ele>482.9</ele>
        <time>2022-09-30T09:28:12Z</time>
      </trkpt>
      <trkpt lat="46.86485" lon="6.88379">
        <ele>482.9</ele>
        <time>2022-09-30T09:28:13Z</time>
      </trkpt>
      <trkpt lat="46.86488" lon="6.88382">
        <ele>483</ele>
        <time>2022-09-30T09:28:14Z</time>
      </trkpt>
      <trkpt lat="46.86491" lon="6.88384">
        <ele>483</ele>
        <time>2022-09-30T09:28:15Z</time>
      </trkpt>
      <trkpt lat="46.86494" lon="6.88387">
        <ele>483.1</ele>
        <time>2022-09-30T09:28:16Z</time>
      </trkpt>
      <trkpt lat="46.86497" lon="6.88389">
        <ele>483.1</ele>
        <time>2022-09-30T09:28:17Z</time>
      </trkpt>
      <trkpt lat="46.865" lon="6.88391">
        <ele>483.1</ele>
        <time>2022-09-30T09:28:18Z</time>
      </trkpt>
      <trkpt lat="46.86503" lon="6.88395">
        <ele>483.1</ele>
        <time>2022-09-30T09:28:19Z</time>
      </trkpt>
      <trkpt lat="46.86506" lon="6.88397">
        <ele>483.2</ele>
        <time>2022-09-30T09:28:20Z</time>
      </trkpt>
      <trkpt lat="46.8651" lon="6.88401">
        <ele>483.2</ele>
        <time>2022-09-30T09:28:21Z</time>
      </trkpt>
      <trkpt lat="46.86513" lon="6.88404">
        <ele>483.2</ele>
        <time>2022-09-30T09:28:22Z</time>
      </trkpt>
      <trkpt lat="46.86517" lon="6.88407">
        <ele>483.1</ele>
        <time>2022-09-30T09:28:23Z</time>
      </trkpt>
      <trkpt lat="46.86521" lon="6.88411">
        <ele>483.1</ele>
        <time>2022-09-30T09:28:24Z</time>
      </trkpt>
      <trkpt lat="46.86524" lon="6.88413">
        <ele>483.1</ele>
        <time>2022-09-30T09:28:25Z</time>
      </trkpt>
      <trkpt lat="46.86527" lon="6.88416">
        <ele>483.1</ele>
        <time>2022-09-30T09:28:26Z</time>
      </trkpt>
      <trkpt lat="46.86531" lon="6.88419">
        <ele>483</ele>
        <time>2022-09-30T09:28:27Z</time>
      </trkpt>
      <trkpt lat="46.86534" lon="6.88423">
        <ele>483</ele>
        <time>2022-09-30T09:28:28Z</time>
      </trkpt>
      <trkpt lat="46.86538" lon="6.88426">
        <ele>482.9</ele>
        <time>2022-09-30T09:28:29Z</time>
      </trkpt>
      <trkpt lat="46.86543" lon="6.8843">
        <ele>482.8</ele>
        <time>2022-09-30T09:28:30Z</time>
      </trkpt>
      <trkpt lat="46.86547" lon="6.88434">
        <ele>482.7</ele>
        <time>2022-09-30T09:28:31Z</time>
      </trkpt>
      <trkpt lat="46.86551" lon="6.88437">
        <ele>482.6</ele>
        <time>2022-09-30T09:28:32Z</time>
      </trkpt>
      <trkpt lat="46.86556" lon="6.88439">
        <ele>482.5</ele>
        <time>2022-09-30T09:28:33Z</time>
      </trkpt>
      <trkpt lat="46.86561" lon="6.88442">
        <ele>482.4</ele>
        <time>2022-09-30T09:28:34Z</time>
      </trkpt>
      <trkpt lat="46.86565" lon="6.88444">
        <ele>482.4</ele>
        <time>2022-09-30T09:28:35Z</time>
      </trkpt>
      <trkpt lat="46.86569" lon="6.88446">
        <ele>482.3</ele>
        <time>2022-09-30T09:28:36Z</time>
      </trkpt>
      <trkpt lat="46.86574" lon="6.88448">
        <ele>482.2</ele>
        <time>2022-09-30T09:28:37Z</time>
      </trkpt>
      <trkpt lat="46.8658" lon="6.88449">
        <ele>482.1</ele>
        <time>2022-09-30T09:28:38Z</time>
      </trkpt>
      <trkpt lat="46.86586" lon="6.88451">
        <ele>482</ele>
        <time>2022-09-30T09:28:39Z</time>
      </trkpt>
      <trkpt lat="46.86591" lon="6.88451">
        <ele>481.9</ele>
        <time>2022-09-30T09:28:40Z</time>
      </trkpt>
      <trkpt lat="46.86596" lon="6.88451">
        <ele>481.8</ele>
        <time>2022-09-30T09:28:41Z</time>
      </trkpt>
      <trkpt lat="46.86602" lon="6.8845">
        <ele>481.7</ele>
        <time>2022-09-30T09:28:42Z</time>
      </trkpt>
      <trkpt lat="46.86607" lon="6.88451">
        <ele>481.6</ele>
        <time>2022-09-30T09:28:43Z</time>
      </trkpt>
      <trkpt lat="46.86613" lon="6.88449">
        <ele>481.5</ele>
        <time>2022-09-30T09:28:44Z</time>
      </trkpt>
      <trkpt lat="46.86619" lon="6.88447">
        <ele>481.4</ele>
        <time>2022-09-30T09:28:45Z</time>
      </trkpt>
      <trkpt lat="46.86624" lon="6.88445">
        <ele>481.3</ele>
        <time>2022-09-30T09:28:46Z</time>
      </trkpt>
      <trkpt lat="46.8663" lon="6.88443">
        <ele>481.2</ele>
        <time>2022-09-30T09:28:47Z</time>
      </trkpt>
      <trkpt lat="46.86636" lon="6.8844">
        <ele>481.2</ele>
        <time>2022-09-30T09:28:48Z</time>
      </trkpt>
      <trkpt lat="46.86641" lon="6.88436">
        <ele>481.1</ele>
        <time>2022-09-30T09:28:49Z</time>
      </trkpt>
      <trkpt lat="46.86646" lon="6.88432">
        <ele>481</ele>
        <time>2022-09-30T09:28:50Z</time>
      </trkpt>
      <trkpt lat="46.86651" lon="6.88427">
        <ele>480.9</ele>
        <time>2022-09-30T09:28:51Z</time>
      </trkpt>
      <trkpt lat="46.86657" lon="6.88423">
        <ele>480.9</ele>
        <time>2022-09-30T09:28:52Z</time>
      </trkpt>
      <trkpt lat="46.86662" lon="6.88418">
        <ele>480.9</ele>
        <time>2022-09-30T09:28:53Z</time>
      </trkpt>
      <trkpt lat="46.86666" lon="6.88413">
        <ele>480.9</ele>
        <time>2022-09-30T09:28:54Z</time>
      </trkpt>
      <trkpt lat="46.86671" lon="6.88409">
        <ele>480.9</ele>
        <time>2022-09-30T09:28:55Z</time>
      </trkpt>
      <trkpt lat="46.86677" lon="6.88404">
        <ele>480.9</ele>
        <time>2022-09-30T09:28:56Z</time>
      </trkpt>
      <trkpt lat="46.86682" lon="6.884">
        <ele>480.9</ele>
        <time>2022-09-30T09:28:57Z</time>
      </trkpt>
      <trkpt lat="46.86687" lon="6.88395">
        <ele>480.9</ele>
        <time>2022-09-30T09:28:58Z</time>
      </trkpt>
      <trkpt lat="46.86692" lon="6.8839">
        <ele>480.9</ele>
        <time>2022-09-30T09:28:59Z</time>
      </trkpt>
      <trkpt lat="46.86696" lon="6.88386">
        <ele>480.9</ele>
        <time>2022-09-30T09:29:00Z</time>
      </trkpt>
      <trkpt lat="46.86701" lon="6.88382">
        <ele>481</ele>
        <time>2022-09-30T09:29:01Z</time>
      </trkpt>
      <trkpt lat="46.86706" lon="6.88378">
        <ele>481</ele>
        <time>2022-09-30T09:29:02Z</time>
      </trkpt>
      <trkpt lat="46.8671" lon="6.88373">
        <ele>481</ele>
        <time>2022-09-30T09:29:03Z</time>
      </trkpt>
      <trkpt lat="46.86715" lon="6.88369">
        <ele>481.1</ele>
        <time>2022-09-30T09:29:04Z</time>
      </trkpt>
      <trkpt lat="46.86719" lon="6.88365">
        <ele>481.1</ele>
        <time>2022-09-30T09:29:05Z</time>
      </trkpt>
      <trkpt lat="46.86724" lon="6.88361">
        <ele>481.2</ele>
        <time>2022-09-30T09:29:06Z</time>
      </trkpt>
      <trkpt lat="46.86728" lon="6.88357">
        <ele>481.2</ele>
        <time>2022-09-30T09:29:07Z</time>
      </trkpt>
      <trkpt lat="46.86733" lon="6.88353">
        <ele>481.3</ele>
        <time>2022-09-30T09:29:08Z</time>
      </trkpt>
      <trkpt lat="46.86737" lon="6.88349">
        <ele>481.3</ele>
        <time>2022-09-30T09:29:09Z</time>
      </trkpt>
      <trkpt lat="46.86742" lon="6.88344">
        <ele>481.4</ele>
        <time>2022-09-30T09:29:10Z</time>
      </trkpt>
      <trkpt lat="46.86746" lon="6.8834">
        <ele>481.4</ele>
        <time>2022-09-30T09:29:11Z</time>
      </trkpt>
      <trkpt lat="46.86751" lon="6.88336">
        <ele>481.5</ele>
        <time>2022-09-30T09:29:12Z</time>
      </trkpt>
      <trkpt lat="46.86755" lon="6.88332">
        <ele>481.6</ele>
        <time>2022-09-30T09:29:13Z</time>
      </trkpt>
      <trkpt lat="46.86759" lon="6.88328">
        <ele>481.6</ele>
        <time>2022-09-30T09:29:14Z</time>
      </trkpt>
      <trkpt lat="46.86764" lon="6.88324">
        <ele>481.7</ele>
        <time>2022-09-30T09:29:15Z</time>
      </trkpt>
      <trkpt lat="46.86768" lon="6.8832">
        <ele>481.7</ele>
        <time>2022-09-30T09:29:16Z</time>
      </trkpt>
      <trkpt lat="46.86772" lon="6.88316">
        <ele>481.7</ele>
        <time>2022-09-30T09:29:17Z</time>
      </trkpt>
      <trkpt lat="46.86776" lon="6.88312">
        <ele>481.7</ele>
        <time>2022-09-30T09:29:18Z</time>
      </trkpt>
      <trkpt lat="46.8678" lon="6.88309">
        <ele>481.8</ele>
        <time>2022-09-30T09:29:19Z</time>
      </trkpt>
      <trkpt lat="46.86784" lon="6.88306">
        <ele>481.7</ele>
        <time>2022-09-30T09:29:20Z</time>
      </trkpt>
      <trkpt lat="46.86787" lon="6.88304">
        <ele>481.7</ele>
        <time>2022-09-30T09:29:21Z</time>
      </trkpt>
      <trkpt lat="46.86791" lon="6.88301">
        <ele>481.7</ele>
        <time>2022-09-30T09:29:22Z</time>
      </trkpt>
      <trkpt lat="46.86794" lon="6.883">
        <ele>481.7</ele>
        <time>2022-09-30T09:29:23Z</time>
      </trkpt>
      <trkpt lat="46.86797" lon="6.88297">
        <ele>481.6</ele>
        <time>2022-09-30T09:29:24Z</time>
      </trkpt>
      <trkpt lat="46.868" lon="6.88294">
        <ele>481.5</ele>
        <time>2022-09-30T09:29:25Z</time>
      </trkpt>
      <trkpt lat="46.86803" lon="6.88289">
        <ele>481.4</ele>
        <time>2022-09-30T09:29:26Z</time>
      </trkpt>
      <trkpt lat="46.86806" lon="6.88285">
        <ele>481.2</ele>
        <time>2022-09-30T09:29:27Z</time>
      </trkpt>
      <trkpt lat="46.8681" lon="6.8828">
        <ele>481</ele>
        <time>2022-09-30T09:29:28Z</time>
      </trkpt>
      <trkpt lat="46.86815" lon="6.88276">
        <ele>480.8</ele>
        <time>2022-09-30T09:29:29Z</time>
      </trkpt>
      <trkpt lat="46.86819" lon="6.88272">
        <ele>480.5</ele>
        <time>2022-09-30T09:29:30Z</time>
      </trkpt>
      <trkpt lat="46.86823" lon="6.88268">
        <ele>480.2</ele>
        <time>2022-09-30T09:29:31Z</time>
      </trkpt>
      <trkpt lat="46.86828" lon="6.88264">
        <ele>479.9</ele>
        <time>2022-09-30T09:29:32Z</time>
      </trkpt>
      <trkpt lat="46.86833" lon="6.88259">
        <ele>479.6</ele>
        <time>2022-09-30T09:29:33Z</time>
      </trkpt>
      <trkpt lat="46.86839" lon="6.88253">
        <ele>479.1</ele>
        <time>2022-09-30T09:29:34Z</time>
      </trkpt>
      <trkpt lat="46.86845" lon="6.88247">
        <ele>478.7</ele>
        <time>2022-09-30T09:29:35Z</time>
      </trkpt>
      <trkpt lat="46.86851" lon="6.88239">
        <ele>478.2</ele>
        <time>2022-09-30T09:29:36Z</time>
      </trkpt>
      <trkpt lat="46.86856" lon="6.88234">
        <ele>477.9</ele>
        <time>2022-09-30T09:29:37Z</time>
      </trkpt>
      <trkpt lat="46.86861" lon="6.88226">
        <ele>477.4</ele>
        <time>2022-09-30T09:29:38Z</time>
      </trkpt>
      <trkpt lat="46.86867" lon="6.88218">
        <ele>477</ele>
        <time>2022-09-30T09:29:39Z</time>
      </trkpt>
      <trkpt lat="46.86873" lon="6.88211">
        <ele>476.6</ele>
        <time>2022-09-30T09:29:40Z</time>
      </trkpt>
      <trkpt lat="46.86878" lon="6.88203">
        <ele>476.3</ele>
        <time>2022-09-30T09:29:41Z</time>
      </trkpt>
      <trkpt lat="46.86884" lon="6.88196">
        <ele>475.9</ele>
        <time>2022-09-30T09:29:42Z</time>
      </trkpt>
      <trkpt lat="46.8689" lon="6.88188">
        <ele>475.6</ele>
        <time>2022-09-30T09:29:43Z</time>
      </trkpt>
      <trkpt lat="46.86896" lon="6.8818">
        <ele>475.3</ele>
        <time>2022-09-30T09:29:44Z</time>
      </trkpt>
      <trkpt lat="46.86901" lon="6.88174">
        <ele>475.1</ele>
        <time>2022-09-30T09:29:45Z</time>
      </trkpt>
      <trkpt lat="46.86907" lon="6.88166">
        <ele>474.9</ele>
        <time>2022-09-30T09:29:46Z</time>
      </trkpt>
      <trkpt lat="46.86913" lon="6.88158">
        <ele>474.7</ele>
        <time>2022-09-30T09:29:47Z</time>
      </trkpt>
      <trkpt lat="46.86919" lon="6.88152">
        <ele>474.5</ele>
        <time>2022-09-30T09:29:48Z</time>
      </trkpt>
      <trkpt lat="46.86925" lon="6.88144">
        <ele>474.4</ele>
        <time>2022-09-30T09:29:49Z</time>
      </trkpt>
      <trkpt lat="46.86931" lon="6.88136">
        <ele>474.3</ele>
        <time>2022-09-30T09:29:50Z</time>
      </trkpt>
      <trkpt lat="46.86937" lon="6.88129">
        <ele>474.2</ele>
        <time>2022-09-30T09:29:51Z</time>
      </trkpt>
      <trkpt lat="46.86943" lon="6.88121">
        <ele>474.1</ele>
        <time>2022-09-30T09:29:52Z</time>
      </trkpt>
      <trkpt lat="46.86949" lon="6.88115">
        <ele>474.1</ele>
        <time>2022-09-30T09:29:53Z</time>
      </trkpt>
      <trkpt lat="46.86955" lon="6.8811">
        <ele>474.1</ele>
        <time>2022-09-30T09:29:54Z</time>
      </trkpt>
      <trkpt lat="46.86961" lon="6.88106">
        <ele>474.1</ele>
        <time>2022-09-30T09:29:55Z</time>
      </trkpt>
      <trkpt lat="46.86968" lon="6.88101">
        <ele>474.2</ele>
        <time>2022-09-30T09:29:56Z</time>
      </trkpt>
      <trkpt lat="46.86974" lon="6.88097">
        <ele>474.2</ele>
        <time>2022-09-30T09:29:57Z</time>
      </trkpt>
      <trkpt lat="46.86981" lon="6.88095">
        <ele>474.2</ele>
        <time>2022-09-30T09:29:58Z</time>
      </trkpt>
      <trkpt lat="46.86988" lon="6.88093">
        <ele>474.2</ele>
        <time>2022-09-30T09:29:59Z</time>
      </trkpt>
      <trkpt lat="46.86994" lon="6.88092">
        <ele>474.3</ele>
        <time>2022-09-30T09:30:00Z</time>
      </trkpt>
      <trkpt lat="46.87001" lon="6.88091">
        <ele>474.3</ele>
        <time>2022-09-30T09:30:01Z</time>
      </trkpt>
      <trkpt lat="46.87008" lon="6.88091">
        <ele>474.3</ele>
        <time>2022-09-30T09:30:02Z</time>
      </trkpt>
      <trkpt lat="46.87013" lon="6.88091">
        <ele>474.4</ele>
        <time>2022-09-30T09:30:03Z</time>
      </trkpt>
      <trkpt lat="46.87019" lon="6.88093">
        <ele>474.4</ele>
        <time>2022-09-30T09:30:04Z</time>
      </trkpt>
      <trkpt lat="46.87024" lon="6.88094">
        <ele>474.4</ele>
        <time>2022-09-30T09:30:05Z</time>
      </trkpt>
      <trkpt lat="46.87029" lon="6.88095">
        <ele>474.4</ele>
        <time>2022-09-30T09:30:06Z</time>
      </trkpt>
      <trkpt lat="46.87034" lon="6.88097">
        <ele>474.4</ele>
        <time>2022-09-30T09:30:07Z</time>
      </trkpt>
      <trkpt lat="46.87039" lon="6.88099">
        <ele>474.3</ele>
        <time>2022-09-30T09:30:08Z</time>
      </trkpt>
      <trkpt lat="46.87044" lon="6.88103">
        <ele>474.3</ele>
        <time>2022-09-30T09:30:09Z</time>
      </trkpt>
      <trkpt lat="46.87049" lon="6.88107">
        <ele>474.3</ele>
        <time>2022-09-30T09:30:10Z</time>
      </trkpt>
      <trkpt lat="46.87053" lon="6.88111">
        <ele>474.3</ele>
        <time>2022-09-30T09:30:11Z</time>
      </trkpt>
      <trkpt lat="46.87059" lon="6.88115">
        <ele>474.3</ele>
        <time>2022-09-30T09:30:12Z</time>
      </trkpt>
      <trkpt lat="46.87064" lon="6.8812">
        <ele>474.3</ele>
        <time>2022-09-30T09:30:13Z</time>
      </trkpt>
      <trkpt lat="46.87068" lon="6.88125">
        <ele>474.3</ele>
        <time>2022-09-30T09:30:14Z</time>
      </trkpt>
      <trkpt lat="46.8707" lon="6.88132">
        <ele>474.2</ele>
        <time>2022-09-30T09:30:15Z</time>
      </trkpt>
      <trkpt lat="46.87075" lon="6.88138">
        <ele>474.2</ele>
        <time>2022-09-30T09:30:16Z</time>
      </trkpt>
      <trkpt lat="46.87079" lon="6.88144">
        <ele>474.2</ele>
        <time>2022-09-30T09:30:17Z</time>
      </trkpt>
      <trkpt lat="46.87084" lon="6.8815">
        <ele>474.2</ele>
        <time>2022-09-30T09:30:18Z</time>
      </trkpt>
      <trkpt lat="46.87088" lon="6.88157">
        <ele>474.1</ele>
        <time>2022-09-30T09:30:19Z</time>
      </trkpt>
      <trkpt lat="46.87093" lon="6.88163">
        <ele>474.1</ele>
        <time>2022-09-30T09:30:20Z</time>
      </trkpt>
      <trkpt lat="46.87098" lon="6.88169">
        <ele>474.1</ele>
        <time>2022-09-30T09:30:21Z</time>
      </trkpt>
      <trkpt lat="46.87103" lon="6.88175">
        <ele>474.1</ele>
        <time>2022-09-30T09:30:22Z</time>
      </trkpt>
      <trkpt lat="46.87107" lon="6.88182">
        <ele>474.1</ele>
        <time>2022-09-30T09:30:23Z</time>
      </trkpt>
      <trkpt lat="46.87112" lon="6.88188">
        <ele>474</ele>
        <time>2022-09-30T09:30:24Z</time>
      </trkpt>
      <trkpt lat="46.87117" lon="6.88194">
        <ele>474</ele>
        <time>2022-09-30T09:30:25Z</time>
      </trkpt>
      <trkpt lat="46.87122" lon="6.882">
        <ele>474</ele>
        <time>2022-09-30T09:30:26Z</time>
      </trkpt>
      <trkpt lat="46.87126" lon="6.88208">
        <ele>474</ele>
        <time>2022-09-30T09:30:27Z</time>
      </trkpt>
      <trkpt lat="46.87131" lon="6.88213">
        <ele>474</ele>
        <time>2022-09-30T09:30:28Z</time>
      </trkpt>
      <trkpt lat="46.87135" lon="6.88219">
        <ele>474</ele>
        <time>2022-09-30T09:30:29Z</time>
      </trkpt>
      <trkpt lat="46.87139" lon="6.88225">
        <ele>474</ele>
        <time>2022-09-30T09:30:30Z</time>
      </trkpt>
      <trkpt lat="46.87145" lon="6.88231">
        <ele>473.9</ele>
        <time>2022-09-30T09:30:31Z</time>
      </trkpt>
      <trkpt lat="46.8715" lon="6.88238">
        <ele>473.9</ele>
        <time>2022-09-30T09:30:32Z</time>
      </trkpt>
      <trkpt lat="46.87153" lon="6.88243">
        <ele>473.9</ele>
        <time>2022-09-30T09:30:33Z</time>
      </trkpt>
      <trkpt lat="46.87158" lon="6.8825">
        <ele>473.9</ele>
        <time>2022-09-30T09:30:34Z</time>
      </trkpt>
      <trkpt lat="46.87163" lon="6.88256">
        <ele>473.8</ele>
        <time>2022-09-30T09:30:35Z</time>
      </trkpt>
      <trkpt lat="46.87167" lon="6.88264">
        <ele>473.8</ele>
        <time>2022-09-30T09:30:36Z</time>
      </trkpt>
      <trkpt lat="46.87171" lon="6.8827">
        <ele>473.8</ele>
        <time>2022-09-30T09:30:37Z</time>
      </trkpt>
      <trkpt lat="46.87176" lon="6.88277">
        <ele>473.8</ele>
        <time>2022-09-30T09:30:38Z</time>
      </trkpt>
      <trkpt lat="46.87181" lon="6.88284">
        <ele>473.8</ele>
        <time>2022-09-30T09:30:39Z</time>
      </trkpt>
      <trkpt lat="46.87185" lon="6.8829">
        <ele>473.8</ele>
        <time>2022-09-30T09:30:40Z</time>
      </trkpt>
      <trkpt lat="46.8719" lon="6.88297">
        <ele>473.8</ele>
        <time>2022-09-30T09:30:41Z</time>
      </trkpt>
      <trkpt lat="46.87194" lon="6.88303">
        <ele>473.9</ele>
        <time>2022-09-30T09:30:42Z</time>
      </trkpt>
      <trkpt lat="46.87199" lon="6.8831">
        <ele>473.9</ele>
        <time>2022-09-30T09:30:43Z</time>
      </trkpt>
      <trkpt lat="46.87202" lon="6.88315">
        <ele>474</ele>
        <time>2022-09-30T09:30:44Z</time>
      </trkpt>
      <trkpt lat="46.87206" lon="6.88321">
        <ele>474</ele>
        <time>2022-09-30T09:30:45Z</time>
      </trkpt>
      <trkpt lat="46.8721" lon="6.88327">
        <ele>474</ele>
        <time>2022-09-30T09:30:46Z</time>
      </trkpt>
      <trkpt lat="46.87214" lon="6.88333">
        <ele>474.1</ele>
        <time>2022-09-30T09:30:47Z</time>
      </trkpt>
      <trkpt lat="46.87218" lon="6.88339">
        <ele>474.1</ele>
        <time>2022-09-30T09:30:48Z</time>
      </trkpt>
      <trkpt lat="46.87222" lon="6.88344">
        <ele>474.1</ele>
        <time>2022-09-30T09:30:49Z</time>
      </trkpt>
      <trkpt lat="46.87226" lon="6.8835">
        <ele>474.1</ele>
        <time>2022-09-30T09:30:50Z</time>
      </trkpt>
      <trkpt lat="46.87229" lon="6.88356">
        <ele>474.1</ele>
        <time>2022-09-30T09:30:51Z</time>
      </trkpt>
      <trkpt lat="46.87233" lon="6.88362">
        <ele>474</ele>
        <time>2022-09-30T09:30:52Z</time>
      </trkpt>
      <trkpt lat="46.87238" lon="6.88368">
        <ele>474</ele>
        <time>2022-09-30T09:30:53Z</time>
      </trkpt>
      <trkpt lat="46.87241" lon="6.88374">
        <ele>473.9</ele>
        <time>2022-09-30T09:30:54Z</time>
      </trkpt>
      <trkpt lat="46.87244" lon="6.88381">
        <ele>473.8</ele>
        <time>2022-09-30T09:30:55Z</time>
      </trkpt>
      <trkpt lat="46.87248" lon="6.88388">
        <ele>473.8</ele>
        <time>2022-09-30T09:30:56Z</time>
      </trkpt>
      <trkpt lat="46.87251" lon="6.88395">
        <ele>473.7</ele>
        <time>2022-09-30T09:30:57Z</time>
      </trkpt>
      <trkpt lat="46.87255" lon="6.88401">
        <ele>473.6</ele>
        <time>2022-09-30T09:30:58Z</time>
      </trkpt>
      <trkpt lat="46.87256" lon="6.88409">
        <ele>473.5</ele>
        <time>2022-09-30T09:30:59Z</time>
      </trkpt>
      <trkpt lat="46.87259" lon="6.88416">
        <ele>473.4</ele>
        <time>2022-09-30T09:31:00Z</time>
      </trkpt>
      <trkpt lat="46.87262" lon="6.88423">
        <ele>473.2</ele>
        <time>2022-09-30T09:31:01Z</time>
      </trkpt>
      <trkpt lat="46.87265" lon="6.88429">
        <ele>473.1</ele>
        <time>2022-09-30T09:31:02Z</time>
      </trkpt>
      <trkpt lat="46.87268" lon="6.88435">
        <ele>473</ele>
        <time>2022-09-30T09:31:03Z</time>
      </trkpt>
      <trkpt lat="46.87271" lon="6.88442">
        <ele>472.9</ele>
        <time>2022-09-30T09:31:04Z</time>
      </trkpt>
      <trkpt lat="46.87275" lon="6.88448">
        <ele>472.9</ele>
        <time>2022-09-30T09:31:05Z</time>
      </trkpt>
      <trkpt lat="46.87278" lon="6.88455">
        <ele>472.8</ele>
        <time>2022-09-30T09:31:06Z</time>
      </trkpt>
      <trkpt lat="46.87281" lon="6.88462">
        <ele>472.7</ele>
        <time>2022-09-30T09:31:07Z</time>
      </trkpt>
      <trkpt lat="46.87284" lon="6.88469">
        <ele>472.6</ele>
        <time>2022-09-30T09:31:08Z</time>
      </trkpt>
      <trkpt lat="46.87287" lon="6.88475">
        <ele>472.5</ele>
        <time>2022-09-30T09:31:09Z</time>
      </trkpt>
      <trkpt lat="46.8729" lon="6.88482">
        <ele>472.4</ele>
        <time>2022-09-30T09:31:10Z</time>
      </trkpt>
      <trkpt lat="46.87294" lon="6.88488">
        <ele>472.2</ele>
        <time>2022-09-30T09:31:11Z</time>
      </trkpt>
      <trkpt lat="46.87297" lon="6.88494">
        <ele>472.1</ele>
        <time>2022-09-30T09:31:12Z</time>
      </trkpt>
      <trkpt lat="46.87301" lon="6.885">
        <ele>471.8</ele>
        <time>2022-09-30T09:31:13Z</time>
      </trkpt>
      <trkpt lat="46.87305" lon="6.88506">
        <ele>471.6</ele>
        <time>2022-09-30T09:31:14Z</time>
      </trkpt>
      <trkpt lat="46.8731" lon="6.88511">
        <ele>471.4</ele>
        <time>2022-09-30T09:31:15Z</time>
      </trkpt>
      <trkpt lat="46.87314" lon="6.88518">
        <ele>471.1</ele>
        <time>2022-09-30T09:31:16Z</time>
      </trkpt>
      <trkpt lat="46.87319" lon="6.88525">
        <ele>470.9</ele>
        <time>2022-09-30T09:31:17Z</time>
      </trkpt>
      <trkpt lat="46.87324" lon="6.88531">
        <ele>470.7</ele>
        <time>2022-09-30T09:31:18Z</time>
      </trkpt>
      <trkpt lat="46.87329" lon="6.88536">
        <ele>470.4</ele>
        <time>2022-09-30T09:31:19Z</time>
      </trkpt>
      <trkpt lat="46.87334" lon="6.88542">
        <ele>470.2</ele>
        <time>2022-09-30T09:31:20Z</time>
      </trkpt>
      <trkpt lat="46.87339" lon="6.88548">
        <ele>470</ele>
        <time>2022-09-30T09:31:21Z</time>
      </trkpt>
      <trkpt lat="46.87344" lon="6.88554">
        <ele>469.7</ele>
        <time>2022-09-30T09:31:22Z</time>
      </trkpt>
      <trkpt lat="46.87349" lon="6.88561">
        <ele>469.5</ele>
        <time>2022-09-30T09:31:23Z</time>
      </trkpt>
      <trkpt lat="46.87354" lon="6.88567">
        <ele>469.2</ele>
        <time>2022-09-30T09:31:24Z</time>
      </trkpt>
      <trkpt lat="46.87359" lon="6.88574">
        <ele>468.9</ele>
        <time>2022-09-30T09:31:25Z</time>
      </trkpt>
      <trkpt lat="46.87365" lon="6.8858">
        <ele>468.7</ele>
        <time>2022-09-30T09:31:26Z</time>
      </trkpt>
      <trkpt lat="46.8737" lon="6.88586">
        <ele>468.4</ele>
        <time>2022-09-30T09:31:27Z</time>
      </trkpt>
      <trkpt lat="46.87376" lon="6.88592">
        <ele>468.3</ele>
        <time>2022-09-30T09:31:28Z</time>
      </trkpt>
      <trkpt lat="46.87381" lon="6.88598">
        <ele>468.1</ele>
        <time>2022-09-30T09:31:29Z</time>
      </trkpt>
      <trkpt lat="46.87387" lon="6.88604">
        <ele>468</ele>
        <time>2022-09-30T09:31:30Z</time>
      </trkpt>
      <trkpt lat="46.87392" lon="6.8861">
        <ele>467.9</ele>
        <time>2022-09-30T09:31:31Z</time>
      </trkpt>
      <trkpt lat="46.87397" lon="6.88616">
        <ele>467.7</ele>
        <time>2022-09-30T09:31:32Z</time>
      </trkpt>
      <trkpt lat="46.87402" lon="6.88624">
        <ele>467.5</ele>
        <time>2022-09-30T09:31:33Z</time>
      </trkpt>
      <trkpt lat="46.87407" lon="6.8863">
        <ele>467.4</ele>
        <time>2022-09-30T09:31:34Z</time>
      </trkpt>
      <trkpt lat="46.87413" lon="6.88636">
        <ele>467.2</ele>
        <time>2022-09-30T09:31:35Z</time>
      </trkpt>
      <trkpt lat="46.87418" lon="6.88642">
        <ele>467</ele>
        <time>2022-09-30T09:31:36Z</time>
      </trkpt>
      <trkpt lat="46.87423" lon="6.88648">
        <ele>466.9</ele>
        <time>2022-09-30T09:31:37Z</time>
      </trkpt>
      <trkpt lat="46.87428" lon="6.88656">
        <ele>466.7</ele>
        <time>2022-09-30T09:31:38Z</time>
      </trkpt>
      <trkpt lat="46.87433" lon="6.88663">
        <ele>466.6</ele>
        <time>2022-09-30T09:31:39Z</time>
      </trkpt>
      <trkpt lat="46.87438" lon="6.88668">
        <ele>466.5</ele>
        <time>2022-09-30T09:31:40Z</time>
      </trkpt>
      <trkpt lat="46.87443" lon="6.88673">
        <ele>466.4</ele>
        <time>2022-09-30T09:31:41Z</time>
      </trkpt>
      <trkpt lat="46.87447" lon="6.88678">
        <ele>466.3</ele>
        <time>2022-09-30T09:31:42Z</time>
      </trkpt>
      <trkpt lat="46.87452" lon="6.88683">
        <ele>466.2</ele>
        <time>2022-09-30T09:31:43Z</time>
      </trkpt>
      <trkpt lat="46.87457" lon="6.88691">
        <ele>466.1</ele>
        <time>2022-09-30T09:31:44Z</time>
      </trkpt>
      <trkpt lat="46.87463" lon="6.88696">
        <ele>466</ele>
        <time>2022-09-30T09:31:45Z</time>
      </trkpt>
      <trkpt lat="46.87467" lon="6.88701">
        <ele>466</ele>
        <time>2022-09-30T09:31:46Z</time>
      </trkpt>
      <trkpt lat="46.87473" lon="6.88704">
        <ele>465.9</ele>
        <time>2022-09-30T09:31:47Z</time>
      </trkpt>
      <trkpt lat="46.87479" lon="6.88708">
        <ele>465.8</ele>
        <time>2022-09-30T09:31:48Z</time>
      </trkpt>
      <trkpt lat="46.87485" lon="6.8871">
        <ele>465.8</ele>
        <time>2022-09-30T09:31:49Z</time>
      </trkpt>
      <trkpt lat="46.87492" lon="6.88712">
        <ele>465.7</ele>
        <time>2022-09-30T09:31:50Z</time>
      </trkpt>
      <trkpt lat="46.87498" lon="6.88712">
        <ele>465.7</ele>
        <time>2022-09-30T09:31:51Z</time>
      </trkpt>
      <trkpt lat="46.87504" lon="6.88712">
        <ele>465.6</ele>
        <time>2022-09-30T09:31:52Z</time>
      </trkpt>
      <trkpt lat="46.8751" lon="6.88712">
        <ele>465.6</ele>
        <time>2022-09-30T09:31:53Z</time>
      </trkpt>
      <trkpt lat="46.87516" lon="6.88712">
        <ele>465.5</ele>
        <time>2022-09-30T09:31:54Z</time>
      </trkpt>
      <trkpt lat="46.87522" lon="6.88713">
        <ele>465.5</ele>
        <time>2022-09-30T09:31:55Z</time>
      </trkpt>
      <trkpt lat="46.87528" lon="6.88714">
        <ele>465.5</ele>
        <time>2022-09-30T09:31:56Z</time>
      </trkpt>
      <trkpt lat="46.87533" lon="6.88717">
        <ele>465.4</ele>
        <time>2022-09-30T09:31:57Z</time>
      </trkpt>
      <trkpt lat="46.87539" lon="6.8872">
        <ele>465.4</ele>
        <time>2022-09-30T09:31:58Z</time>
      </trkpt>
      <trkpt lat="46.87545" lon="6.88724">
        <ele>465.3</ele>
        <time>2022-09-30T09:31:59Z</time>
      </trkpt>
      <trkpt lat="46.8755" lon="6.88729">
        <ele>465.3</ele>
        <time>2022-09-30T09:32:00Z</time>
      </trkpt>
      <trkpt lat="46.87555" lon="6.88735">
        <ele>465.3</ele>
        <time>2022-09-30T09:32:01Z</time>
      </trkpt>
      <trkpt lat="46.8756" lon="6.88742">
        <ele>465.3</ele>
        <time>2022-09-30T09:32:02Z</time>
      </trkpt>
      <trkpt lat="46.87565" lon="6.88748">
        <ele>465.3</ele>
        <time>2022-09-30T09:32:03Z</time>
      </trkpt>
      <trkpt lat="46.87569" lon="6.88752">
        <ele>465.3</ele>
        <time>2022-09-30T09:32:04Z</time>
      </trkpt>
      <trkpt lat="46.87573" lon="6.88759">
        <ele>465.4</ele>
        <time>2022-09-30T09:32:05Z</time>
      </trkpt>
      <trkpt lat="46.87576" lon="6.88766">
        <ele>465.4</ele>
        <time>2022-09-30T09:32:06Z</time>
      </trkpt>
      <trkpt lat="46.87579" lon="6.88772">
        <ele>465.4</ele>
        <time>2022-09-30T09:32:07Z</time>
      </trkpt>
      <trkpt lat="46.87581" lon="6.88779">
        <ele>465.3</ele>
        <time>2022-09-30T09:32:08Z</time>
      </trkpt>
      <trkpt lat="46.87584" lon="6.88785">
        <ele>465.2</ele>
        <time>2022-09-30T09:32:09Z</time>
      </trkpt>
      <trkpt lat="46.87587" lon="6.8879">
        <ele>465.1</ele>
        <time>2022-09-30T09:32:10Z</time>
      </trkpt>
      <trkpt lat="46.8759" lon="6.88795">
        <ele>465</ele>
        <time>2022-09-30T09:32:11Z</time>
      </trkpt>
      <trkpt lat="46.87592" lon="6.88801">
        <ele>464.9</ele>
        <time>2022-09-30T09:32:12Z</time>
      </trkpt>
      <trkpt lat="46.87594" lon="6.88808">
        <ele>464.7</ele>
        <time>2022-09-30T09:32:13Z</time>
      </trkpt>
      <trkpt lat="46.87598" lon="6.88814">
        <ele>464.5</ele>
        <time>2022-09-30T09:32:14Z</time>
      </trkpt>
      <trkpt lat="46.87599" lon="6.88819">
        <ele>464.3</ele>
        <time>2022-09-30T09:32:15Z</time>
      </trkpt>
      <trkpt lat="46.87601" lon="6.88825">
        <ele>464.1</ele>
        <time>2022-09-30T09:32:16Z</time>
      </trkpt>
      <trkpt lat="46.87602" lon="6.88829">
        <ele>464</ele>
        <time>2022-09-30T09:32:17Z</time>
      </trkpt>
      <trkpt lat="46.87604" lon="6.88831">
        <ele>463.9</ele>
        <time>2022-09-30T09:32:18Z</time>
      </trkpt>
      <trkpt lat="46.87606" lon="6.88834">
        <ele>463.8</ele>
        <time>2022-09-30T09:32:19Z</time>
      </trkpt>
      <trkpt lat="46.8761" lon="6.88838">
        <ele>463.7</ele>
        <time>2022-09-30T09:32:20Z</time>
      </trkpt>
      <trkpt lat="46.87613" lon="6.8884">
        <ele>463.5</ele>
        <time>2022-09-30T09:32:21Z</time>
      </trkpt>
      <trkpt lat="46.87616" lon="6.88843">
        <ele>463.4</ele>
        <time>2022-09-30T09:32:22Z</time>
      </trkpt>
      <trkpt lat="46.87619" lon="6.88848">
        <ele>463.2</ele>
        <time>2022-09-30T09:32:23Z</time>
      </trkpt>
      <trkpt lat="46.87624" lon="6.88854">
        <ele>462.9</ele>
        <time>2022-09-30T09:32:24Z</time>
      </trkpt>
      <trkpt lat="46.87628" lon="6.8886">
        <ele>462.6</ele>
        <time>2022-09-30T09:32:25Z</time>
      </trkpt>
      <trkpt lat="46.87632" lon="6.88865">
        <ele>462.2</ele>
        <time>2022-09-30T09:32:26Z</time>
      </trkpt>
      <trkpt lat="46.87637" lon="6.88871">
        <ele>461.9</ele>
        <time>2022-09-30T09:32:27Z</time>
      </trkpt>
      <trkpt lat="46.8764" lon="6.88876">
        <ele>461.6</ele>
        <time>2022-09-30T09:32:28Z</time>
      </trkpt>
      <trkpt lat="46.87644" lon="6.88883">
        <ele>461.2</ele>
        <time>2022-09-30T09:32:29Z</time>
      </trkpt>
      <trkpt lat="46.87648" lon="6.8889">
        <ele>460.8</ele>
        <time>2022-09-30T09:32:30Z</time>
      </trkpt>
      <trkpt lat="46.87653" lon="6.88897">
        <ele>460.3</ele>
        <time>2022-09-30T09:32:31Z</time>
      </trkpt>
      <trkpt lat="46.87656" lon="6.88903">
        <ele>459.9</ele>
        <time>2022-09-30T09:32:32Z</time>
      </trkpt>
      <trkpt lat="46.8766" lon="6.8891">
        <ele>459.5</ele>
        <time>2022-09-30T09:32:33Z</time>
      </trkpt>
      <trkpt lat="46.87664" lon="6.88916">
        <ele>459</ele>
        <time>2022-09-30T09:32:34Z</time>
      </trkpt>
      <trkpt lat="46.87667" lon="6.88923">
        <ele>458.4</ele>
        <time>2022-09-30T09:32:35Z</time>
      </trkpt>
      <trkpt lat="46.87671" lon="6.88931">
        <ele>457.9</ele>
        <time>2022-09-30T09:32:36Z</time>
      </trkpt>
      <trkpt lat="46.87674" lon="6.88937">
        <ele>457.4</ele>
        <time>2022-09-30T09:32:37Z</time>
      </trkpt>
      <trkpt lat="46.87677" lon="6.88941">
        <ele>456.9</ele>
        <time>2022-09-30T09:32:38Z</time>
      </trkpt>
      <trkpt lat="46.8768" lon="6.88947">
        <ele>456.4</ele>
        <time>2022-09-30T09:32:39Z</time>
      </trkpt>
      <trkpt lat="46.87681" lon="6.88951">
        <ele>456</ele>
        <time>2022-09-30T09:32:40Z</time>
      </trkpt>
      <trkpt lat="46.87682" lon="6.88957">
        <ele>455.6</ele>
        <time>2022-09-30T09:32:41Z</time>
      </trkpt>
      <trkpt lat="46.87683" lon="6.88964">
        <ele>455.1</ele>
        <time>2022-09-30T09:32:42Z</time>
      </trkpt>
      <trkpt lat="46.87683" lon="6.88972">
        <ele>454.6</ele>
        <time>2022-09-30T09:32:43Z</time>
      </trkpt>
      <trkpt lat="46.87681" lon="6.8898">
        <ele>454.1</ele>
        <time>2022-09-30T09:32:44Z</time>
      </trkpt>
      <trkpt lat="46.8768" lon="6.88987">
        <ele>453.7</ele>
        <time>2022-09-30T09:32:45Z</time>
      </trkpt>
      <trkpt lat="46.87678" lon="6.88995">
        <ele>453.3</ele>
        <time>2022-09-30T09:32:46Z</time>
      </trkpt>
      <trkpt lat="46.87676" lon="6.89004">
        <ele>453</ele>
        <time>2022-09-30T09:32:47Z</time>
      </trkpt>
      <trkpt lat="46.87674" lon="6.89013">
        <ele>452.7</ele>
        <time>2022-09-30T09:32:48Z</time>
      </trkpt>
      <trkpt lat="46.87675" lon="6.89023">
        <ele>452.6</ele>
        <time>2022-09-30T09:32:49Z</time>
      </trkpt>
      <trkpt lat="46.87675" lon="6.89031">
        <ele>452.5</ele>
        <time>2022-09-30T09:32:50Z</time>
      </trkpt>
      <trkpt lat="46.87675" lon="6.89039">
        <ele>452.5</ele>
        <time>2022-09-30T09:32:51Z</time>
      </trkpt>
      <trkpt lat="46.87678" lon="6.89045">
        <ele>452.6</ele>
        <time>2022-09-30T09:32:52Z</time>
      </trkpt>
      <trkpt lat="46.8768" lon="6.8905">
        <ele>452.6</ele>
        <time>2022-09-30T09:32:53Z</time>
      </trkpt>
      <trkpt lat="46.87682" lon="6.89055">
        <ele>452.7</ele>
        <time>2022-09-30T09:32:54Z</time>
      </trkpt>
      <trkpt lat="46.87684" lon="6.89059">
        <ele>452.7</ele>
        <time>2022-09-30T09:32:55Z</time>
      </trkpt>
      <trkpt lat="46.87688" lon="6.89062">
        <ele>452.8</ele>
        <time>2022-09-30T09:32:56Z</time>
      </trkpt>
      <trkpt lat="46.87691" lon="6.89061">
        <ele>452.9</ele>
        <time>2022-09-30T09:32:57Z</time>
      </trkpt>
      <trkpt lat="46.87694" lon="6.89061">
        <ele>452.9</ele>
        <time>2022-09-30T09:32:58Z</time>
      </trkpt>
      <trkpt lat="46.87697" lon="6.8906">
        <ele>452.9</ele>
        <time>2022-09-30T09:32:59Z</time>
      </trkpt>
      <trkpt lat="46.87701" lon="6.8906">
        <ele>452.9</ele>
        <time>2022-09-30T09:33:00Z</time>
      </trkpt>
      <trkpt lat="46.87704" lon="6.89059">
        <ele>452.9</ele>
        <time>2022-09-30T09:33:01Z</time>
      </trkpt>
      <trkpt lat="46.87709" lon="6.89056">
        <ele>452.9</ele>
        <time>2022-09-30T09:33:02Z</time>
      </trkpt>
      <trkpt lat="46.87713" lon="6.89053">
        <ele>453</ele>
        <time>2022-09-30T09:33:03Z</time>
      </trkpt>
      <trkpt lat="46.87717" lon="6.89051">
        <ele>453</ele>
        <time>2022-09-30T09:33:04Z</time>
      </trkpt>
      <trkpt lat="46.8772" lon="6.8905">
        <ele>453.1</ele>
        <time>2022-09-30T09:33:05Z</time>
      </trkpt>
      <trkpt lat="46.87723" lon="6.89049">
        <ele>453.1</ele>
        <time>2022-09-30T09:33:06Z</time>
      </trkpt>
      <trkpt lat="46.87727" lon="6.89047">
        <ele>453.2</ele>
        <time>2022-09-30T09:33:07Z</time>
      </trkpt>
      <trkpt lat="46.87728" lon="6.89046">
        <ele>453.2</ele>
        <time>2022-09-30T09:33:08Z</time>
      </trkpt>
      <trkpt lat="46.87731" lon="6.89044">
        <ele>453.3</ele>
        <time>2022-09-30T09:33:09Z</time>
      </trkpt>
      <trkpt lat="46.87735" lon="6.89042">
        <ele>453.4</ele>
        <time>2022-09-30T09:33:10Z</time>
      </trkpt>
      <trkpt lat="46.87739" lon="6.89039">
        <ele>453.6</ele>
        <time>2022-09-30T09:33:11Z</time>
      </trkpt>
      <trkpt lat="46.87744" lon="6.89036">
        <ele>453.8</ele>
        <time>2022-09-30T09:33:12Z</time>
      </trkpt>
      <trkpt lat="46.87749" lon="6.89032">
        <ele>454.1</ele>
        <time>2022-09-30T09:33:13Z</time>
      </trkpt>
      <trkpt lat="46.87752" lon="6.89029">
        <ele>454.3</ele>
        <time>2022-09-30T09:33:14Z</time>
      </trkpt>
      <trkpt lat="46.87756" lon="6.89027">
        <ele>454.5</ele>
        <time>2022-09-30T09:33:15Z</time>
      </trkpt>
      <trkpt lat="46.87758" lon="6.89025">
        <ele>454.7</ele>
        <time>2022-09-30T09:33:16Z</time>
      </trkpt>
      <trkpt lat="46.87761" lon="6.89023">
        <ele>454.9</ele>
        <time>2022-09-30T09:33:17Z</time>
      </trkpt>
      <trkpt lat="46.87764" lon="6.89021">
        <ele>455.1</ele>
        <time>2022-09-30T09:33:18Z</time>
      </trkpt>
      <trkpt lat="46.87765" lon="6.8902">
        <ele>455.2</ele>
        <time>2022-09-30T09:33:19Z</time>
      </trkpt>
      <trkpt lat="46.87768" lon="6.89018">
        <ele>455.4</ele>
        <time>2022-09-30T09:33:20Z</time>
      </trkpt>
      <trkpt lat="46.87771" lon="6.89017">
        <ele>455.6</ele>
        <time>2022-09-30T09:33:21Z</time>
      </trkpt>
      <trkpt lat="46.87775" lon="6.89015">
        <ele>455.9</ele>
        <time>2022-09-30T09:33:22Z</time>
      </trkpt>
      <trkpt lat="46.87777" lon="6.89014">
        <ele>456</ele>
        <time>2022-09-30T09:33:23Z</time>
      </trkpt>
      <trkpt lat="46.8778" lon="6.89011">
        <ele>456.3</ele>
        <time>2022-09-30T09:33:24Z</time>
      </trkpt>
      <trkpt lat="46.87783" lon="6.8901">
        <ele>456.5</ele>
        <time>2022-09-30T09:33:25Z</time>
      </trkpt>
      <trkpt lat="46.87786" lon="6.89007">
        <ele>456.7</ele>
        <time>2022-09-30T09:33:26Z</time>
      </trkpt>
      <trkpt lat="46.87789" lon="6.89006">
        <ele>456.9</ele>
        <time>2022-09-30T09:33:27Z</time>
      </trkpt>
      <trkpt lat="46.87793" lon="6.89004">
        <ele>457.2</ele>
        <time>2022-09-30T09:33:28Z</time>
      </trkpt>
      <trkpt lat="46.87794" lon="6.89004">
        <ele>457.2</ele>
        <time>2022-09-30T09:33:29Z</time>
      </trkpt>
      <trkpt lat="46.87796" lon="6.89003">
        <ele>457.4</ele>
        <time>2022-09-30T09:33:30Z</time>
      </trkpt>
      <trkpt lat="46.87799" lon="6.89001">
        <ele>457.5</ele>
        <time>2022-09-30T09:33:31Z</time>
      </trkpt>
      <trkpt lat="46.878" lon="6.89">
        <ele>457.6</ele>
        <time>2022-09-30T09:33:32Z</time>
      </trkpt>
      <trkpt lat="46.87803" lon="6.89001">
        <ele>457.7</ele>
        <time>2022-09-30T09:33:33Z</time>
      </trkpt>
      <trkpt lat="46.87808" lon="6.89002">
        <ele>457.9</ele>
        <time>2022-09-30T09:33:34Z</time>
      </trkpt>
      <trkpt lat="46.87811" lon="6.89002">
        <ele>458</ele>
        <time>2022-09-30T09:33:35Z</time>
      </trkpt>
      <trkpt lat="46.87814" lon="6.89003">
        <ele>458.1</ele>
        <time>2022-09-30T09:33:36Z</time>
      </trkpt>
      <trkpt lat="46.87816" lon="6.89004">
        <ele>458.1</ele>
        <time>2022-09-30T09:33:37Z</time>
      </trkpt>
      <trkpt lat="46.87819" lon="6.89005">
        <ele>458.2</ele>
        <time>2022-09-30T09:33:38Z</time>
      </trkpt>
      <trkpt lat="46.87822" lon="6.89006">
        <ele>458.3</ele>
        <time>2022-09-30T09:33:39Z</time>
      </trkpt>
      <trkpt lat="46.87824" lon="6.89008">
        <ele>458.4</ele>
        <time>2022-09-30T09:33:40Z</time>
      </trkpt>
      <trkpt lat="46.87828" lon="6.8901">
        <ele>458.4</ele>
        <time>2022-09-30T09:33:41Z</time>
      </trkpt>
      <trkpt lat="46.87829" lon="6.89011">
        <ele>458.5</ele>
        <time>2022-09-30T09:33:42Z</time>
      </trkpt>
      <trkpt lat="46.87832" lon="6.89012">
        <ele>458.5</ele>
        <time>2022-09-30T09:33:43Z</time>
      </trkpt>
      <trkpt lat="46.87834" lon="6.89014">
        <ele>458.5</ele>
        <time>2022-09-30T09:33:44Z</time>
      </trkpt>
      <trkpt lat="46.87837" lon="6.89016">
        <ele>458.6</ele>
        <time>2022-09-30T09:33:45Z</time>
      </trkpt>
      <trkpt lat="46.8784" lon="6.89017">
        <ele>458.6</ele>
        <time>2022-09-30T09:33:46Z</time>
      </trkpt>
      <trkpt lat="46.87842" lon="6.89019">
        <ele>458.6</ele>
        <time>2022-09-30T09:33:47Z</time>
      </trkpt>
      <trkpt lat="46.87845" lon="6.89022">
        <ele>458.7</ele>
        <time>2022-09-30T09:33:48Z</time>
      </trkpt>
      <trkpt lat="46.87847" lon="6.89023">
        <ele>458.7</ele>
        <time>2022-09-30T09:33:49Z</time>
      </trkpt>
      <trkpt lat="46.8785" lon="6.89025">
        <ele>458.7</ele>
        <time>2022-09-30T09:33:50Z</time>
      </trkpt>
      <trkpt lat="46.87853" lon="6.89027">
        <ele>458.7</ele>
        <time>2022-09-30T09:33:51Z</time>
      </trkpt>
      <trkpt lat="46.87856" lon="6.89029">
        <ele>458.8</ele>
        <time>2022-09-30T09:33:52Z</time>
      </trkpt>
      <trkpt lat="46.87859" lon="6.89032">
        <ele>458.8</ele>
        <time>2022-09-30T09:33:53Z</time>
      </trkpt>
      <trkpt lat="46.8786" lon="6.89032">
        <ele>458.8</ele>
        <time>2022-09-30T09:33:54Z</time>
      </trkpt>
      <trkpt lat="46.87863" lon="6.89034">
        <ele>458.8</ele>
        <time>2022-09-30T09:33:55Z</time>
      </trkpt>
      <trkpt lat="46.87866" lon="6.89037">
        <ele>458.8</ele>
        <time>2022-09-30T09:33:56Z</time>
      </trkpt>
      <trkpt lat="46.8787" lon="6.89039">
        <ele>458.8</ele>
        <time>2022-09-30T09:33:57Z</time>
      </trkpt>
      <trkpt lat="46.87873" lon="6.89041">
        <ele>458.8</ele>
        <time>2022-09-30T09:33:58Z</time>
      </trkpt>
      <trkpt lat="46.87877" lon="6.89044">
        <ele>458.8</ele>
        <time>2022-09-30T09:33:59Z</time>
      </trkpt>
      <trkpt lat="46.8788" lon="6.89046">
        <ele>458.7</ele>
        <time>2022-09-30T09:34:00Z</time>
      </trkpt>
      <trkpt lat="46.87884" lon="6.89049">
        <ele>458.7</ele>
        <time>2022-09-30T09:34:01Z</time>
      </trkpt>
      <trkpt lat="46.87887" lon="6.89051">
        <ele>458.7</ele>
        <time>2022-09-30T09:34:02Z</time>
      </trkpt>
      <trkpt lat="46.87891" lon="6.89053">
        <ele>458.7</ele>
        <time>2022-09-30T09:34:03Z</time>
      </trkpt>
      <trkpt lat="46.87894" lon="6.89057">
        <ele>458.6</ele>
        <time>2022-09-30T09:34:04Z</time>
      </trkpt>
      <trkpt lat="46.87898" lon="6.8906">
        <ele>458.6</ele>
        <time>2022-09-30T09:34:05Z</time>
      </trkpt>
      <trkpt lat="46.87902" lon="6.89063">
        <ele>458.6</ele>
        <time>2022-09-30T09:34:06Z</time>
      </trkpt>
      <trkpt lat="46.87906" lon="6.89065">
        <ele>458.6</ele>
        <time>2022-09-30T09:34:07Z</time>
      </trkpt>
      <trkpt lat="46.8791" lon="6.89068">
        <ele>458.6</ele>
        <time>2022-09-30T09:34:08Z</time>
      </trkpt>
      <trkpt lat="46.87913" lon="6.89071">
        <ele>458.6</ele>
        <time>2022-09-30T09:34:09Z</time>
      </trkpt>
      <trkpt lat="46.87917" lon="6.89074">
        <ele>458.5</ele>
        <time>2022-09-30T09:34:10Z</time>
      </trkpt>
      <trkpt lat="46.8792" lon="6.89076">
        <ele>458.5</ele>
        <time>2022-09-30T09:34:11Z</time>
      </trkpt>
      <trkpt lat="46.87924" lon="6.89079">
        <ele>458.5</ele>
        <time>2022-09-30T09:34:12Z</time>
      </trkpt>
      <trkpt lat="46.87928" lon="6.89083">
        <ele>458.5</ele>
        <time>2022-09-30T09:34:13Z</time>
      </trkpt>
      <trkpt lat="46.87932" lon="6.89087">
        <ele>458.4</ele>
        <time>2022-09-30T09:34:14Z</time>
      </trkpt>
      <trkpt lat="46.87936" lon="6.89089">
        <ele>458.4</ele>
        <time>2022-09-30T09:34:15Z</time>
      </trkpt>
      <trkpt lat="46.87939" lon="6.89091">
        <ele>458.4</ele>
        <time>2022-09-30T09:34:16Z</time>
      </trkpt>
      <trkpt lat="46.87943" lon="6.89094">
        <ele>458.4</ele>
        <time>2022-09-30T09:34:17Z</time>
      </trkpt>
      <trkpt lat="46.87947" lon="6.89097">
        <ele>458.5</ele>
        <time>2022-09-30T09:34:18Z</time>
      </trkpt>
      <trkpt lat="46.87951" lon="6.891">
        <ele>458.5</ele>
        <time>2022-09-30T09:34:19Z</time>
      </trkpt>
      <trkpt lat="46.87955" lon="6.89102">
        <ele>458.5</ele>
        <time>2022-09-30T09:34:20Z</time>
      </trkpt>
      <trkpt lat="46.87958" lon="6.89105">
        <ele>458.5</ele>
        <time>2022-09-30T09:34:21Z</time>
      </trkpt>
      <trkpt lat="46.87962" lon="6.89108">
        <ele>458.5</ele>
        <time>2022-09-30T09:34:22Z</time>
      </trkpt>
      <trkpt lat="46.87965" lon="6.89113">
        <ele>458.5</ele>
        <time>2022-09-30T09:34:23Z</time>
      </trkpt>
      <trkpt lat="46.87968" lon="6.89119">
        <ele>458.5</ele>
        <time>2022-09-30T09:34:24Z</time>
      </trkpt>
      <trkpt lat="46.87971" lon="6.89122">
        <ele>458.6</ele>
        <time>2022-09-30T09:34:25Z</time>
      </trkpt>
      <trkpt lat="46.87975" lon="6.89125">
        <ele>458.6</ele>
        <time>2022-09-30T09:34:26Z</time>
      </trkpt>
      <trkpt lat="46.87978" lon="6.89129">
        <ele>458.6</ele>
        <time>2022-09-30T09:34:27Z</time>
      </trkpt>
      <trkpt lat="46.87981" lon="6.89133">
        <ele>458.6</ele>
        <time>2022-09-30T09:34:28Z</time>
      </trkpt>
      <trkpt lat="46.87985" lon="6.89137">
        <ele>458.7</ele>
        <time>2022-09-30T09:34:29Z</time>
      </trkpt>
      <trkpt lat="46.87988" lon="6.89141">
        <ele>458.7</ele>
        <time>2022-09-30T09:34:30Z</time>
      </trkpt>
      <trkpt lat="46.87992" lon="6.89145">
        <ele>458.7</ele>
        <time>2022-09-30T09:34:31Z</time>
      </trkpt>
      <trkpt lat="46.87995" lon="6.89148">
        <ele>458.7</ele>
        <time>2022-09-30T09:34:32Z</time>
      </trkpt>
      <trkpt lat="46.87998" lon="6.89152">
        <ele>458.7</ele>
        <time>2022-09-30T09:34:33Z</time>
      </trkpt>
      <trkpt lat="46.88001" lon="6.89156">
        <ele>458.7</ele>
        <time>2022-09-30T09:34:34Z</time>
      </trkpt>
      <trkpt lat="46.88004" lon="6.8916">
        <ele>458.7</ele>
        <time>2022-09-30T09:34:35Z</time>
      </trkpt>
      <trkpt lat="46.88007" lon="6.89164">
        <ele>458.7</ele>
        <time>2022-09-30T09:34:36Z</time>
      </trkpt>
      <trkpt lat="46.88011" lon="6.89169">
        <ele>458.7</ele>
        <time>2022-09-30T09:34:37Z</time>
      </trkpt>
      <trkpt lat="46.88013" lon="6.89171">
        <ele>458.7</ele>
        <time>2022-09-30T09:34:38Z</time>
      </trkpt>
      <trkpt lat="46.88016" lon="6.89175">
        <ele>458.6</ele>
        <time>2022-09-30T09:34:39Z</time>
      </trkpt>
      <trkpt lat="46.88019" lon="6.89179">
        <ele>458.6</ele>
        <time>2022-09-30T09:34:40Z</time>
      </trkpt>
      <trkpt lat="46.88022" lon="6.89183">
        <ele>458.6</ele>
        <time>2022-09-30T09:34:41Z</time>
      </trkpt>
      <trkpt lat="46.88025" lon="6.89187">
        <ele>458.6</ele>
        <time>2022-09-30T09:34:42Z</time>
      </trkpt>
      <trkpt lat="46.88028" lon="6.89191">
        <ele>458.5</ele>
        <time>2022-09-30T09:34:43Z</time>
      </trkpt>
      <trkpt lat="46.88032" lon="6.89195">
        <ele>458.5</ele>
        <time>2022-09-30T09:34:44Z</time>
      </trkpt>
      <trkpt lat="46.88035" lon="6.89202">
        <ele>458.4</ele>
        <time>2022-09-30T09:34:45Z</time>
      </trkpt>
      <trkpt lat="46.88038" lon="6.89206">
        <ele>458.3</ele>
        <time>2022-09-30T09:34:46Z</time>
      </trkpt>
      <trkpt lat="46.88042" lon="6.89212">
        <ele>458.2</ele>
        <time>2022-09-30T09:34:47Z</time>
      </trkpt>
      <trkpt lat="46.88046" lon="6.89216">
        <ele>458.2</ele>
        <time>2022-09-30T09:34:48Z</time>
      </trkpt>
      <trkpt lat="46.8805" lon="6.89221">
        <ele>458.1</ele>
        <time>2022-09-30T09:34:49Z</time>
      </trkpt>
      <trkpt lat="46.88055" lon="6.89226">
        <ele>458</ele>
        <time>2022-09-30T09:34:50Z</time>
      </trkpt>
      <trkpt lat="46.8806" lon="6.89231">
        <ele>458</ele>
        <time>2022-09-30T09:34:51Z</time>
      </trkpt>
      <trkpt lat="46.88064" lon="6.89237">
        <ele>457.9</ele>
        <time>2022-09-30T09:34:52Z</time>
      </trkpt>
      <trkpt lat="46.88068" lon="6.89243">
        <ele>457.8</ele>
        <time>2022-09-30T09:34:53Z</time>
      </trkpt>
      <trkpt lat="46.88072" lon="6.89248">
        <ele>457.7</ele>
        <time>2022-09-30T09:34:54Z</time>
      </trkpt>
      <trkpt lat="46.88077" lon="6.89254">
        <ele>457.7</ele>
        <time>2022-09-30T09:34:55Z</time>
      </trkpt>
      <trkpt lat="46.88081" lon="6.89259">
        <ele>457.6</ele>
        <time>2022-09-30T09:34:56Z</time>
      </trkpt>
      <trkpt lat="46.88085" lon="6.89265">
        <ele>457.5</ele>
        <time>2022-09-30T09:34:57Z</time>
      </trkpt>
      <trkpt lat="46.8809" lon="6.8927">
        <ele>457.5</ele>
        <time>2022-09-30T09:34:58Z</time>
      </trkpt>
      <trkpt lat="46.88094" lon="6.89276">
        <ele>457.4</ele>
        <time>2022-09-30T09:34:59Z</time>
      </trkpt>
      <trkpt lat="46.88098" lon="6.89282">
        <ele>457.3</ele>
        <time>2022-09-30T09:35:00Z</time>
      </trkpt>
      <trkpt lat="46.88103" lon="6.89288">
        <ele>457.2</ele>
        <time>2022-09-30T09:35:01Z</time>
      </trkpt>
      <trkpt lat="46.88107" lon="6.89294">
        <ele>457.2</ele>
        <time>2022-09-30T09:35:02Z</time>
      </trkpt>
      <trkpt lat="46.88111" lon="6.893">
        <ele>457.1</ele>
        <time>2022-09-30T09:35:03Z</time>
      </trkpt>
      <trkpt lat="46.88115" lon="6.89307">
        <ele>457</ele>
        <time>2022-09-30T09:35:04Z</time>
      </trkpt>
      <trkpt lat="46.88119" lon="6.89313">
        <ele>457</ele>
        <time>2022-09-30T09:35:05Z</time>
      </trkpt>
      <trkpt lat="46.88123" lon="6.8932">
        <ele>456.9</ele>
        <time>2022-09-30T09:35:06Z</time>
      </trkpt>
      <trkpt lat="46.88127" lon="6.89327">
        <ele>456.9</ele>
        <time>2022-09-30T09:35:07Z</time>
      </trkpt>
      <trkpt lat="46.88131" lon="6.89334">
        <ele>456.9</ele>
        <time>2022-09-30T09:35:08Z</time>
      </trkpt>
      <trkpt lat="46.88135" lon="6.89342">
        <ele>456.9</ele>
        <time>2022-09-30T09:35:09Z</time>
      </trkpt>
      <trkpt lat="46.88138" lon="6.89349">
        <ele>456.9</ele>
        <time>2022-09-30T09:35:10Z</time>
      </trkpt>
      <trkpt lat="46.88142" lon="6.89356">
        <ele>456.9</ele>
        <time>2022-09-30T09:35:11Z</time>
      </trkpt>
      <trkpt lat="46.88146" lon="6.89363">
        <ele>457</ele>
        <time>2022-09-30T09:35:12Z</time>
      </trkpt>
      <trkpt lat="46.8815" lon="6.8937">
        <ele>457.1</ele>
        <time>2022-09-30T09:35:13Z</time>
      </trkpt>
      <trkpt lat="46.88153" lon="6.89377">
        <ele>457.1</ele>
        <time>2022-09-30T09:35:14Z</time>
      </trkpt>
      <trkpt lat="46.88157" lon="6.89383">
        <ele>457.2</ele>
        <time>2022-09-30T09:35:15Z</time>
      </trkpt>
      <trkpt lat="46.8816" lon="6.89389">
        <ele>457.3</ele>
        <time>2022-09-30T09:35:16Z</time>
      </trkpt>
      <trkpt lat="46.88162" lon="6.89398">
        <ele>457.4</ele>
        <time>2022-09-30T09:35:17Z</time>
      </trkpt>
      <trkpt lat="46.88166" lon="6.89404">
        <ele>457.5</ele>
        <time>2022-09-30T09:35:18Z</time>
      </trkpt>
      <trkpt lat="46.88169" lon="6.8941">
        <ele>457.6</ele>
        <time>2022-09-30T09:35:19Z</time>
      </trkpt>
      <trkpt lat="46.88172" lon="6.89415">
        <ele>457.6</ele>
        <time>2022-09-30T09:35:20Z</time>
      </trkpt>
      <trkpt lat="46.88175" lon="6.89421">
        <ele>457.7</ele>
        <time>2022-09-30T09:35:21Z</time>
      </trkpt>
      <trkpt lat="46.88178" lon="6.89427">
        <ele>457.8</ele>
        <time>2022-09-30T09:35:22Z</time>
      </trkpt>
      <trkpt lat="46.88181" lon="6.89432">
        <ele>457.9</ele>
        <time>2022-09-30T09:35:23Z</time>
      </trkpt>
      <trkpt lat="46.88183" lon="6.89437">
        <ele>458</ele>
        <time>2022-09-30T09:35:24Z</time>
      </trkpt>
      <trkpt lat="46.88187" lon="6.89442">
        <ele>458</ele>
        <time>2022-09-30T09:35:25Z</time>
      </trkpt>
      <trkpt lat="46.88189" lon="6.89447">
        <ele>458.1</ele>
        <time>2022-09-30T09:35:26Z</time>
      </trkpt>
      <trkpt lat="46.88192" lon="6.89453">
        <ele>458.2</ele>
        <time>2022-09-30T09:35:27Z</time>
      </trkpt>
      <trkpt lat="46.88195" lon="6.89457">
        <ele>458.3</ele>
        <time>2022-09-30T09:35:28Z</time>
      </trkpt>
      <trkpt lat="46.88197" lon="6.89462">
        <ele>458.4</ele>
        <time>2022-09-30T09:35:29Z</time>
      </trkpt>
      <trkpt lat="46.882" lon="6.89467">
        <ele>458.4</ele>
        <time>2022-09-30T09:35:30Z</time>
      </trkpt>
      <trkpt lat="46.88203" lon="6.89472">
        <ele>458.5</ele>
        <time>2022-09-30T09:35:31Z</time>
      </trkpt>
      <trkpt lat="46.88205" lon="6.89476">
        <ele>458.6</ele>
        <time>2022-09-30T09:35:32Z</time>
      </trkpt>
      <trkpt lat="46.88207" lon="6.8948">
        <ele>458.6</ele>
        <time>2022-09-30T09:35:33Z</time>
      </trkpt>
      <trkpt lat="46.88209" lon="6.89484">
        <ele>458.7</ele>
        <time>2022-09-30T09:35:34Z</time>
      </trkpt>
      <trkpt lat="46.88212" lon="6.89489">
        <ele>458.7</ele>
        <time>2022-09-30T09:35:35Z</time>
      </trkpt>
      <trkpt lat="46.88214" lon="6.89493">
        <ele>458.8</ele>
        <time>2022-09-30T09:35:36Z</time>
      </trkpt>
      <trkpt lat="46.88216" lon="6.89497">
        <ele>458.8</ele>
        <time>2022-09-30T09:35:37Z</time>
      </trkpt>
      <trkpt lat="46.88219" lon="6.89502">
        <ele>458.8</ele>
        <time>2022-09-30T09:35:38Z</time>
      </trkpt>
      <trkpt lat="46.8822" lon="6.89509">
        <ele>458.8</ele>
        <time>2022-09-30T09:35:39Z</time>
      </trkpt>
      <trkpt lat="46.88223" lon="6.89513">
        <ele>458.8</ele>
        <time>2022-09-30T09:35:40Z</time>
      </trkpt>
      <trkpt lat="46.88225" lon="6.89518">
        <ele>458.7</ele>
        <time>2022-09-30T09:35:41Z</time>
      </trkpt>
      <trkpt lat="46.88227" lon="6.89522">
        <ele>458.7</ele>
        <time>2022-09-30T09:35:42Z</time>
      </trkpt>
      <trkpt lat="46.8823" lon="6.89526">
        <ele>458.6</ele>
        <time>2022-09-30T09:35:43Z</time>
      </trkpt>
      <trkpt lat="46.88232" lon="6.89531">
        <ele>458.5</ele>
        <time>2022-09-30T09:35:44Z</time>
      </trkpt>
      <trkpt lat="46.88235" lon="6.89537">
        <ele>458.4</ele>
        <time>2022-09-30T09:35:45Z</time>
      </trkpt>
      <trkpt lat="46.88238" lon="6.89542">
        <ele>458.3</ele>
        <time>2022-09-30T09:35:46Z</time>
      </trkpt>
      <trkpt lat="46.8824" lon="6.89546">
        <ele>458.2</ele>
        <time>2022-09-30T09:35:47Z</time>
      </trkpt>
      <trkpt lat="46.88243" lon="6.89551">
        <ele>458.1</ele>
        <time>2022-09-30T09:35:48Z</time>
      </trkpt>
      <trkpt lat="46.88246" lon="6.89557">
        <ele>458</ele>
        <time>2022-09-30T09:35:49Z</time>
      </trkpt>
      <trkpt lat="46.88249" lon="6.89562">
        <ele>457.9</ele>
        <time>2022-09-30T09:35:50Z</time>
      </trkpt>
      <trkpt lat="46.88252" lon="6.89567">
        <ele>457.7</ele>
        <time>2022-09-30T09:35:51Z</time>
      </trkpt>
      <trkpt lat="46.88255" lon="6.89573">
        <ele>457.6</ele>
        <time>2022-09-30T09:35:52Z</time>
      </trkpt>
      <trkpt lat="46.88259" lon="6.8958">
        <ele>457.5</ele>
        <time>2022-09-30T09:35:53Z</time>
      </trkpt>
      <trkpt lat="46.88261" lon="6.89585">
        <ele>457.4</ele>
        <time>2022-09-30T09:35:54Z</time>
      </trkpt>
      <trkpt lat="46.88265" lon="6.8959">
        <ele>457.3</ele>
        <time>2022-09-30T09:35:55Z</time>
      </trkpt>
      <trkpt lat="46.88268" lon="6.89596">
        <ele>457.2</ele>
        <time>2022-09-30T09:35:56Z</time>
      </trkpt>
      <trkpt lat="46.88271" lon="6.89602">
        <ele>457.1</ele>
        <time>2022-09-30T09:35:57Z</time>
      </trkpt>
      <trkpt lat="46.88275" lon="6.89609">
        <ele>457</ele>
        <time>2022-09-30T09:35:58Z</time>
      </trkpt>
      <trkpt lat="46.88278" lon="6.89618">
        <ele>456.8</ele>
        <time>2022-09-30T09:35:59Z</time>
      </trkpt>
      <trkpt lat="46.88282" lon="6.89624">
        <ele>456.7</ele>
        <time>2022-09-30T09:36:00Z</time>
      </trkpt>
      <trkpt lat="46.88286" lon="6.8963">
        <ele>456.6</ele>
        <time>2022-09-30T09:36:01Z</time>
      </trkpt>
      <trkpt lat="46.8829" lon="6.89636">
        <ele>456.5</ele>
        <time>2022-09-30T09:36:02Z</time>
      </trkpt>
      <trkpt lat="46.88295" lon="6.89641">
        <ele>456.3</ele>
        <time>2022-09-30T09:36:03Z</time>
      </trkpt>
      <trkpt lat="46.883" lon="6.89646">
        <ele>456.2</ele>
        <time>2022-09-30T09:36:04Z</time>
      </trkpt>
      <trkpt lat="46.88305" lon="6.89651">
        <ele>456.1</ele>
        <time>2022-09-30T09:36:05Z</time>
      </trkpt>
      <trkpt lat="46.88309" lon="6.89655">
        <ele>456</ele>
        <time>2022-09-30T09:36:06Z</time>
      </trkpt>
      <trkpt lat="46.88314" lon="6.8966">
        <ele>455.9</ele>
        <time>2022-09-30T09:36:07Z</time>
      </trkpt>
      <trkpt lat="46.88319" lon="6.89664">
        <ele>455.8</ele>
        <time>2022-09-30T09:36:08Z</time>
      </trkpt>
      <trkpt lat="46.88324" lon="6.89669">
        <ele>455.6</ele>
        <time>2022-09-30T09:36:09Z</time>
      </trkpt>
      <trkpt lat="46.88329" lon="6.89674">
        <ele>455.5</ele>
        <time>2022-09-30T09:36:10Z</time>
      </trkpt>
      <trkpt lat="46.88334" lon="6.89678">
        <ele>455.3</ele>
        <time>2022-09-30T09:36:11Z</time>
      </trkpt>
      <trkpt lat="46.88339" lon="6.89683">
        <ele>455.1</ele>
        <time>2022-09-30T09:36:12Z</time>
      </trkpt>
      <trkpt lat="46.88344" lon="6.89688">
        <ele>454.9</ele>
        <time>2022-09-30T09:36:13Z</time>
      </trkpt>
      <trkpt lat="46.8835" lon="6.89693">
        <ele>454.7</ele>
        <time>2022-09-30T09:36:14Z</time>
      </trkpt>
      <trkpt lat="46.88355" lon="6.89698">
        <ele>454.5</ele>
        <time>2022-09-30T09:36:15Z</time>
      </trkpt>
      <trkpt lat="46.8836" lon="6.89704">
        <ele>454.3</ele>
        <time>2022-09-30T09:36:16Z</time>
      </trkpt>
      <trkpt lat="46.88366" lon="6.89709">
        <ele>454.1</ele>
        <time>2022-09-30T09:36:17Z</time>
      </trkpt>
      <trkpt lat="46.88371" lon="6.89714">
        <ele>453.8</ele>
        <time>2022-09-30T09:36:18Z</time>
      </trkpt>
      <trkpt lat="46.88377" lon="6.89719">
        <ele>453.5</ele>
        <time>2022-09-30T09:36:19Z</time>
      </trkpt>
      <trkpt lat="46.88382" lon="6.89724">
        <ele>453.3</ele>
        <time>2022-09-30T09:36:20Z</time>
      </trkpt>
      <trkpt lat="46.88387" lon="6.8973">
        <ele>453</ele>
        <time>2022-09-30T09:36:21Z</time>
      </trkpt>
      <trkpt lat="46.88392" lon="6.89734">
        <ele>452.8</ele>
        <time>2022-09-30T09:36:22Z</time>
      </trkpt>
      <trkpt lat="46.88397" lon="6.89738">
        <ele>452.5</ele>
        <time>2022-09-30T09:36:23Z</time>
      </trkpt>
      <trkpt lat="46.88401" lon="6.89742">
        <ele>452.3</ele>
        <time>2022-09-30T09:36:24Z</time>
      </trkpt>
      <trkpt lat="46.88406" lon="6.89746">
        <ele>452.1</ele>
        <time>2022-09-30T09:36:25Z</time>
      </trkpt>
      <trkpt lat="46.88411" lon="6.8975">
        <ele>451.8</ele>
        <time>2022-09-30T09:36:26Z</time>
      </trkpt>
      <trkpt lat="46.88416" lon="6.89755">
        <ele>451.6</ele>
        <time>2022-09-30T09:36:27Z</time>
      </trkpt>
      <trkpt lat="46.88421" lon="6.89759">
        <ele>451.3</ele>
        <time>2022-09-30T09:36:28Z</time>
      </trkpt>
      <trkpt lat="46.88426" lon="6.89764">
        <ele>451</ele>
        <time>2022-09-30T09:36:29Z</time>
      </trkpt>
      <trkpt lat="46.88432" lon="6.89769">
        <ele>450.7</ele>
        <time>2022-09-30T09:36:30Z</time>
      </trkpt>
      <trkpt lat="46.88438" lon="6.89774">
        <ele>450.4</ele>
        <time>2022-09-30T09:36:31Z</time>
      </trkpt>
      <trkpt lat="46.88443" lon="6.8978">
        <ele>450.1</ele>
        <time>2022-09-30T09:36:32Z</time>
      </trkpt>
      <trkpt lat="46.88449" lon="6.89785">
        <ele>449.8</ele>
        <time>2022-09-30T09:36:33Z</time>
      </trkpt>
      <trkpt lat="46.88455" lon="6.8979">
        <ele>449.5</ele>
        <time>2022-09-30T09:36:34Z</time>
      </trkpt>
      <trkpt lat="46.88461" lon="6.89796">
        <ele>449.2</ele>
        <time>2022-09-30T09:36:35Z</time>
      </trkpt>
      <trkpt lat="46.88467" lon="6.89801">
        <ele>449</ele>
        <time>2022-09-30T09:36:36Z</time>
      </trkpt>
      <trkpt lat="46.88473" lon="6.89807">
        <ele>448.7</ele>
        <time>2022-09-30T09:36:37Z</time>
      </trkpt>
      <trkpt lat="46.88479" lon="6.89813">
        <ele>448.5</ele>
        <time>2022-09-30T09:36:38Z</time>
      </trkpt>
      <trkpt lat="46.88484" lon="6.89819">
        <ele>448.3</ele>
        <time>2022-09-30T09:36:39Z</time>
      </trkpt>
      <trkpt lat="46.88489" lon="6.89826">
        <ele>448.1</ele>
        <time>2022-09-30T09:36:40Z</time>
      </trkpt>
      <trkpt lat="46.88494" lon="6.89832">
        <ele>448</ele>
        <time>2022-09-30T09:36:41Z</time>
      </trkpt>
      <trkpt lat="46.885" lon="6.89839">
        <ele>447.8</ele>
        <time>2022-09-30T09:36:42Z</time>
      </trkpt>
      <trkpt lat="46.88504" lon="6.89845">
        <ele>447.7</ele>
        <time>2022-09-30T09:36:43Z</time>
      </trkpt>
      <trkpt lat="46.8851" lon="6.89852">
        <ele>447.6</ele>
        <time>2022-09-30T09:36:44Z</time>
      </trkpt>
      <trkpt lat="46.88515" lon="6.89859">
        <ele>447.5</ele>
        <time>2022-09-30T09:36:45Z</time>
      </trkpt>
      <trkpt lat="46.88519" lon="6.89865">
        <ele>447.4</ele>
        <time>2022-09-30T09:36:46Z</time>
      </trkpt>
      <trkpt lat="46.88524" lon="6.89871">
        <ele>447.3</ele>
        <time>2022-09-30T09:36:47Z</time>
      </trkpt>
      <trkpt lat="46.88529" lon="6.89877">
        <ele>447.2</ele>
        <time>2022-09-30T09:36:48Z</time>
      </trkpt>
      <trkpt lat="46.88534" lon="6.89883">
        <ele>447.2</ele>
        <time>2022-09-30T09:36:49Z</time>
      </trkpt>
      <trkpt lat="46.88539" lon="6.8989">
        <ele>447.1</ele>
        <time>2022-09-30T09:36:50Z</time>
      </trkpt>
      <trkpt lat="46.88544" lon="6.89896">
        <ele>447.1</ele>
        <time>2022-09-30T09:36:51Z</time>
      </trkpt>
      <trkpt lat="46.88549" lon="6.89902">
        <ele>447</ele>
        <time>2022-09-30T09:36:52Z</time>
      </trkpt>
      <trkpt lat="46.88553" lon="6.89907">
        <ele>447</ele>
        <time>2022-09-30T09:36:53Z</time>
      </trkpt>
      <trkpt lat="46.88558" lon="6.89913">
        <ele>446.9</ele>
        <time>2022-09-30T09:36:54Z</time>
      </trkpt>
      <trkpt lat="46.88562" lon="6.89919">
        <ele>446.9</ele>
        <time>2022-09-30T09:36:55Z</time>
      </trkpt>
      <trkpt lat="46.88567" lon="6.89924">
        <ele>446.9</ele>
        <time>2022-09-30T09:36:56Z</time>
      </trkpt>
      <trkpt lat="46.88571" lon="6.8993">
        <ele>446.8</ele>
        <time>2022-09-30T09:36:57Z</time>
      </trkpt>
      <trkpt lat="46.88576" lon="6.89936">
        <ele>446.8</ele>
        <time>2022-09-30T09:36:58Z</time>
      </trkpt>
      <trkpt lat="46.8858" lon="6.89942">
        <ele>446.7</ele>
        <time>2022-09-30T09:36:59Z</time>
      </trkpt>
      <trkpt lat="46.88584" lon="6.89947">
        <ele>446.6</ele>
        <time>2022-09-30T09:37:00Z</time>
      </trkpt>
      <trkpt lat="46.88589" lon="6.89953">
        <ele>446.5</ele>
        <time>2022-09-30T09:37:01Z</time>
      </trkpt>
      <trkpt lat="46.88593" lon="6.89959">
        <ele>446.5</ele>
        <time>2022-09-30T09:37:02Z</time>
      </trkpt>
      <trkpt lat="46.88597" lon="6.89966">
        <ele>446.4</ele>
        <time>2022-09-30T09:37:03Z</time>
      </trkpt>
      <trkpt lat="46.88601" lon="6.89972">
        <ele>446.3</ele>
        <time>2022-09-30T09:37:04Z</time>
      </trkpt>
      <trkpt lat="46.88605" lon="6.89978">
        <ele>446.3</ele>
        <time>2022-09-30T09:37:05Z</time>
      </trkpt>
      <trkpt lat="46.88609" lon="6.89984">
        <ele>446.2</ele>
        <time>2022-09-30T09:37:06Z</time>
      </trkpt>
      <trkpt lat="46.88613" lon="6.8999">
        <ele>446.1</ele>
        <time>2022-09-30T09:37:07Z</time>
      </trkpt>
      <trkpt lat="46.88617" lon="6.89996">
        <ele>446</ele>
        <time>2022-09-30T09:37:08Z</time>
      </trkpt>
      <trkpt lat="46.88621" lon="6.90002">
        <ele>445.9</ele>
        <time>2022-09-30T09:37:09Z</time>
      </trkpt>
      <trkpt lat="46.88625" lon="6.90009">
        <ele>445.8</ele>
        <time>2022-09-30T09:37:10Z</time>
      </trkpt>
      <trkpt lat="46.88629" lon="6.90015">
        <ele>445.7</ele>
        <time>2022-09-30T09:37:11Z</time>
      </trkpt>
      <trkpt lat="46.88633" lon="6.90021">
        <ele>445.6</ele>
        <time>2022-09-30T09:37:12Z</time>
      </trkpt>
      <trkpt lat="46.88637" lon="6.90028">
        <ele>445.6</ele>
        <time>2022-09-30T09:37:13Z</time>
      </trkpt>
      <trkpt lat="46.8864" lon="6.90033">
        <ele>445.5</ele>
        <time>2022-09-30T09:37:14Z</time>
      </trkpt>
      <trkpt lat="46.88644" lon="6.9004">
        <ele>445.4</ele>
        <time>2022-09-30T09:37:15Z</time>
      </trkpt>
      <trkpt lat="46.88648" lon="6.90047">
        <ele>445.3</ele>
        <time>2022-09-30T09:37:16Z</time>
      </trkpt>
      <trkpt lat="46.88652" lon="6.90053">
        <ele>445.2</ele>
        <time>2022-09-30T09:37:17Z</time>
      </trkpt>
      <trkpt lat="46.88656" lon="6.90059">
        <ele>445.1</ele>
        <time>2022-09-30T09:37:18Z</time>
      </trkpt>
      <trkpt lat="46.88659" lon="6.90065">
        <ele>445</ele>
        <time>2022-09-30T09:37:19Z</time>
      </trkpt>
      <trkpt lat="46.88663" lon="6.90071">
        <ele>444.9</ele>
        <time>2022-09-30T09:37:20Z</time>
      </trkpt>
      <trkpt lat="46.88667" lon="6.90077">
        <ele>444.8</ele>
        <time>2022-09-30T09:37:21Z</time>
      </trkpt>
      <trkpt lat="46.88669" lon="6.90086">
        <ele>444.6</ele>
        <time>2022-09-30T09:37:22Z</time>
      </trkpt>
      <trkpt lat="46.88673" lon="6.90092">
        <ele>444.5</ele>
        <time>2022-09-30T09:37:23Z</time>
      </trkpt>
      <trkpt lat="46.88677" lon="6.90098">
        <ele>444.4</ele>
        <time>2022-09-30T09:37:24Z</time>
      </trkpt>
      <trkpt lat="46.88682" lon="6.90105">
        <ele>444.2</ele>
        <time>2022-09-30T09:37:25Z</time>
      </trkpt>
      <trkpt lat="46.88685" lon="6.90111">
        <ele>444.1</ele>
        <time>2022-09-30T09:37:26Z</time>
      </trkpt>
      <trkpt lat="46.8869" lon="6.90117">
        <ele>444</ele>
        <time>2022-09-30T09:37:27Z</time>
      </trkpt>
      <trkpt lat="46.88694" lon="6.90124">
        <ele>443.8</ele>
        <time>2022-09-30T09:37:28Z</time>
      </trkpt>
      <trkpt lat="46.88698" lon="6.9013">
        <ele>443.7</ele>
        <time>2022-09-30T09:37:29Z</time>
      </trkpt>
      <trkpt lat="46.88703" lon="6.90137">
        <ele>443.5</ele>
        <time>2022-09-30T09:37:30Z</time>
      </trkpt>
      <trkpt lat="46.88707" lon="6.90144">
        <ele>443.4</ele>
        <time>2022-09-30T09:37:31Z</time>
      </trkpt>
      <trkpt lat="46.88712" lon="6.9015">
        <ele>443.3</ele>
        <time>2022-09-30T09:37:32Z</time>
      </trkpt>
      <trkpt lat="46.88716" lon="6.90157">
        <ele>443.2</ele>
        <time>2022-09-30T09:37:33Z</time>
      </trkpt>
      <trkpt lat="46.8872" lon="6.90163">
        <ele>443.1</ele>
        <time>2022-09-30T09:37:34Z</time>
      </trkpt>
      <trkpt lat="46.88725" lon="6.90169">
        <ele>443</ele>
        <time>2022-09-30T09:37:35Z</time>
      </trkpt>
      <trkpt lat="46.88729" lon="6.90174">
        <ele>443</ele>
        <time>2022-09-30T09:37:36Z</time>
      </trkpt>
      <trkpt lat="46.88733" lon="6.9018">
        <ele>443</ele>
        <time>2022-09-30T09:37:37Z</time>
      </trkpt>
      <trkpt lat="46.88738" lon="6.90186">
        <ele>442.9</ele>
        <time>2022-09-30T09:37:38Z</time>
      </trkpt>
      <trkpt lat="46.88742" lon="6.9019">
        <ele>442.9</ele>
        <time>2022-09-30T09:37:39Z</time>
      </trkpt>
      <trkpt lat="46.88746" lon="6.90195">
        <ele>442.9</ele>
        <time>2022-09-30T09:37:40Z</time>
      </trkpt>
      <trkpt lat="46.8875" lon="6.90201">
        <ele>442.9</ele>
        <time>2022-09-30T09:37:41Z</time>
      </trkpt>
      <trkpt lat="46.88753" lon="6.90207">
        <ele>442.8</ele>
        <time>2022-09-30T09:37:42Z</time>
      </trkpt>
      <trkpt lat="46.88756" lon="6.90214">
        <ele>442.9</ele>
        <time>2022-09-30T09:37:43Z</time>
      </trkpt>
      <trkpt lat="46.88759" lon="6.90221">
        <ele>442.9</ele>
        <time>2022-09-30T09:37:44Z</time>
      </trkpt>
      <trkpt lat="46.88762" lon="6.90227">
        <ele>442.9</ele>
        <time>2022-09-30T09:37:45Z</time>
      </trkpt>
      <trkpt lat="46.88765" lon="6.90234">
        <ele>443</ele>
        <time>2022-09-30T09:37:46Z</time>
      </trkpt>
      <trkpt lat="46.88768" lon="6.9024">
        <ele>443</ele>
        <time>2022-09-30T09:37:47Z</time>
      </trkpt>
      <trkpt lat="46.88771" lon="6.90245">
        <ele>443.1</ele>
        <time>2022-09-30T09:37:48Z</time>
      </trkpt>
      <trkpt lat="46.88773" lon="6.90251">
        <ele>443.2</ele>
        <time>2022-09-30T09:37:49Z</time>
      </trkpt>
      <trkpt lat="46.88775" lon="6.90258">
        <ele>443.2</ele>
        <time>2022-09-30T09:37:50Z</time>
      </trkpt>
      <trkpt lat="46.88778" lon="6.90263">
        <ele>443.3</ele>
        <time>2022-09-30T09:37:51Z</time>
      </trkpt>
      <trkpt lat="46.8878" lon="6.90267">
        <ele>443.3</ele>
        <time>2022-09-30T09:37:52Z</time>
      </trkpt>
      <trkpt lat="46.88782" lon="6.90272">
        <ele>443.4</ele>
        <time>2022-09-30T09:37:53Z</time>
      </trkpt>
      <trkpt lat="46.88785" lon="6.90278">
        <ele>443.5</ele>
        <time>2022-09-30T09:37:54Z</time>
      </trkpt>
      <trkpt lat="46.88787" lon="6.90283">
        <ele>443.6</ele>
        <time>2022-09-30T09:37:55Z</time>
      </trkpt>
      <trkpt lat="46.88789" lon="6.90287">
        <ele>443.6</ele>
        <time>2022-09-30T09:37:56Z</time>
      </trkpt>
      <trkpt lat="46.88792" lon="6.90292">
        <ele>443.7</ele>
        <time>2022-09-30T09:37:57Z</time>
      </trkpt>
      <trkpt lat="46.88794" lon="6.90296">
        <ele>443.8</ele>
        <time>2022-09-30T09:37:58Z</time>
      </trkpt>
      <trkpt lat="46.88796" lon="6.90301">
        <ele>443.9</ele>
        <time>2022-09-30T09:37:59Z</time>
      </trkpt>
      <trkpt lat="46.88798" lon="6.90305">
        <ele>443.9</ele>
        <time>2022-09-30T09:38:00Z</time>
      </trkpt>
      <trkpt lat="46.888" lon="6.90309">
        <ele>444</ele>
        <time>2022-09-30T09:38:01Z</time>
      </trkpt>
      <trkpt lat="46.88802" lon="6.90313">
        <ele>444.1</ele>
        <time>2022-09-30T09:38:02Z</time>
      </trkpt>
      <trkpt lat="46.88804" lon="6.90317">
        <ele>444.2</ele>
        <time>2022-09-30T09:38:03Z</time>
      </trkpt>
      <trkpt lat="46.88806" lon="6.90321">
        <ele>444.3</ele>
        <time>2022-09-30T09:38:04Z</time>
      </trkpt>
      <trkpt lat="46.88807" lon="6.90325">
        <ele>444.4</ele>
        <time>2022-09-30T09:38:05Z</time>
      </trkpt>
      <trkpt lat="46.88809" lon="6.90329">
        <ele>444.5</ele>
        <time>2022-09-30T09:38:06Z</time>
      </trkpt>
      <trkpt lat="46.8881" lon="6.90334">
        <ele>444.6</ele>
        <time>2022-09-30T09:38:07Z</time>
      </trkpt>
      <trkpt lat="46.88811" lon="6.90338">
        <ele>444.7</ele>
        <time>2022-09-30T09:38:08Z</time>
      </trkpt>
      <trkpt lat="46.88812" lon="6.90342">
        <ele>444.8</ele>
        <time>2022-09-30T09:38:09Z</time>
      </trkpt>
      <trkpt lat="46.88813" lon="6.90346">
        <ele>444.9</ele>
        <time>2022-09-30T09:38:10Z</time>
      </trkpt>
      <trkpt lat="46.88814" lon="6.90352">
        <ele>445</ele>
        <time>2022-09-30T09:38:11Z</time>
      </trkpt>
      <trkpt lat="46.88815" lon="6.90353">
        <ele>445.1</ele>
        <time>2022-09-30T09:38:12Z</time>
      </trkpt>
      <trkpt lat="46.88816" lon="6.90358">
        <ele>445.2</ele>
        <time>2022-09-30T09:38:13Z</time>
      </trkpt>
      <trkpt lat="46.88817" lon="6.90359">
        <ele>445.2</ele>
        <time>2022-09-30T09:38:14Z</time>
      </trkpt>
      <trkpt lat="46.88818" lon="6.90365">
        <ele>445.3</ele>
        <time>2022-09-30T09:38:15Z</time>
      </trkpt>
      <trkpt lat="46.88818" lon="6.90367">
        <ele>445.4</ele>
        <time>2022-09-30T09:38:16Z</time>
      </trkpt>
      <trkpt lat="46.88818" lon="6.90371">
        <ele>445.5</ele>
        <time>2022-09-30T09:38:17Z</time>
      </trkpt>
      <trkpt lat="46.88818" lon="6.90375">
        <ele>445.6</ele>
        <time>2022-09-30T09:38:18Z</time>
      </trkpt>
      <trkpt lat="46.88818" lon="6.9038">
        <ele>445.7</ele>
        <time>2022-09-30T09:38:19Z</time>
      </trkpt>
      <trkpt lat="46.88819" lon="6.90385">
        <ele>445.8</ele>
        <time>2022-09-30T09:38:20Z</time>
      </trkpt>
      <trkpt lat="46.8882" lon="6.90387">
        <ele>445.9</ele>
        <time>2022-09-30T09:38:21Z</time>
      </trkpt>
      <trkpt lat="46.8882" lon="6.90392">
        <ele>446</ele>
        <time>2022-09-30T09:38:22Z</time>
      </trkpt>
      <trkpt lat="46.88821" lon="6.90394">
        <ele>446.1</ele>
        <time>2022-09-30T09:38:23Z</time>
      </trkpt>
      <trkpt lat="46.88821" lon="6.90398">
        <ele>446.2</ele>
        <time>2022-09-30T09:38:24Z</time>
      </trkpt>
      <trkpt lat="46.88821" lon="6.90404">
        <ele>446.4</ele>
        <time>2022-09-30T09:38:25Z</time>
      </trkpt>
      <trkpt lat="46.88821" lon="6.90406">
        <ele>446.4</ele>
        <time>2022-09-30T09:38:26Z</time>
      </trkpt>
      <trkpt lat="46.88821" lon="6.90412">
        <ele>446.6</ele>
        <time>2022-09-30T09:38:27Z</time>
      </trkpt>
      <trkpt lat="46.88821" lon="6.90414">
        <ele>446.7</ele>
        <time>2022-09-30T09:38:28Z</time>
      </trkpt>
      <trkpt lat="46.8882" lon="6.90418">
        <ele>446.8</ele>
        <time>2022-09-30T09:38:29Z</time>
      </trkpt>
      <trkpt lat="46.8882" lon="6.9042">
        <ele>446.9</ele>
        <time>2022-09-30T09:38:30Z</time>
      </trkpt>
      <trkpt lat="46.8882" lon="6.90424">
        <ele>447</ele>
        <time>2022-09-30T09:38:31Z</time>
      </trkpt>
      <trkpt lat="46.8882" lon="6.90425">
        <ele>447.1</ele>
        <time>2022-09-30T09:38:32Z</time>
      </trkpt>
      <trkpt lat="46.8882" lon="6.90428">
        <ele>447.1</ele>
        <time>2022-09-30T09:38:33Z</time>
      </trkpt>
      <trkpt lat="46.8882" lon="6.9043">
        <ele>447.2</ele>
        <time>2022-09-30T09:38:34Z</time>
      </trkpt>
      <trkpt lat="46.8882" lon="6.90432">
        <ele>447.3</ele>
        <time>2022-09-30T09:38:35Z</time>
      </trkpt>
      <trkpt lat="46.88819" lon="6.90435">
        <ele>447.4</ele>
        <time>2022-09-30T09:38:36Z</time>
      </trkpt>
      <trkpt lat="46.88819" lon="6.90439">
        <ele>447.5</ele>
        <time>2022-09-30T09:38:37Z</time>
      </trkpt>
      <trkpt lat="46.88817" lon="6.90443">
        <ele>447.7</ele>
        <time>2022-09-30T09:38:38Z</time>
      </trkpt>
      <trkpt lat="46.88817" lon="6.90444">
        <ele>447.7</ele>
        <time>2022-09-30T09:38:39Z</time>
      </trkpt>
      <trkpt lat="46.88815" lon="6.90449">
        <ele>447.9</ele>
        <time>2022-09-30T09:38:40Z</time>
      </trkpt>
      <trkpt lat="46.88815" lon="6.90451">
        <ele>447.9</ele>
        <time>2022-09-30T09:38:41Z</time>
      </trkpt>
      <trkpt lat="46.88814" lon="6.90456">
        <ele>448.1</ele>
        <time>2022-09-30T09:38:42Z</time>
      </trkpt>
      <trkpt lat="46.88814" lon="6.90457">
        <ele>448.2</ele>
        <time>2022-09-30T09:38:43Z</time>
      </trkpt>
      <trkpt lat="46.88813" lon="6.90462">
        <ele>448.3</ele>
        <time>2022-09-30T09:38:44Z</time>
      </trkpt>
      <trkpt lat="46.88813" lon="6.90464">
        <ele>448.4</ele>
        <time>2022-09-30T09:38:45Z</time>
      </trkpt>
      <trkpt lat="46.88814" lon="6.90469">
        <ele>448.5</ele>
        <time>2022-09-30T09:38:46Z</time>
      </trkpt>
      <trkpt lat="46.88814" lon="6.9047">
        <ele>448.6</ele>
        <time>2022-09-30T09:38:47Z</time>
      </trkpt>
      <trkpt lat="46.88814" lon="6.90474">
        <ele>448.7</ele>
        <time>2022-09-30T09:38:48Z</time>
      </trkpt>
      <trkpt lat="46.88813" lon="6.90475">
        <ele>448.8</ele>
        <time>2022-09-30T09:38:49Z</time>
      </trkpt>
      <trkpt lat="46.88812" lon="6.90477">
        <ele>448.9</ele>
        <time>2022-09-30T09:38:50Z</time>
      </trkpt>
      <trkpt lat="46.88812" lon="6.90479">
        <ele>449</ele>
        <time>2022-09-30T09:38:51Z</time>
      </trkpt>
      <trkpt lat="46.88811" lon="6.90481">
        <ele>449</ele>
        <time>2022-09-30T09:38:52Z</time>
      </trkpt>
      <trkpt lat="46.88811" lon="6.90486">
        <ele>449.2</ele>
        <time>2022-09-30T09:38:53Z</time>
      </trkpt>
      <trkpt lat="46.88811" lon="6.90491">
        <ele>449.4</ele>
        <time>2022-09-30T09:38:54Z</time>
      </trkpt>
      <trkpt lat="46.88811" lon="6.90493">
        <ele>449.5</ele>
        <time>2022-09-30T09:38:55Z</time>
      </trkpt>
      <trkpt lat="46.88811" lon="6.90499">
        <ele>449.7</ele>
        <time>2022-09-30T09:38:56Z</time>
      </trkpt>
      <trkpt lat="46.88811" lon="6.90501">
        <ele>449.8</ele>
        <time>2022-09-30T09:38:57Z</time>
      </trkpt>
      <trkpt lat="46.8881" lon="6.90505">
        <ele>449.9</ele>
        <time>2022-09-30T09:38:58Z</time>
      </trkpt>
      <trkpt lat="46.8881" lon="6.90506">
        <ele>449.9</ele>
        <time>2022-09-30T09:38:59Z</time>
      </trkpt>
      <trkpt lat="46.8881" lon="6.90509">
        <ele>450</ele>
        <time>2022-09-30T09:39:00Z</time>
      </trkpt>
      <trkpt lat="46.8881" lon="6.90511">
        <ele>450.1</ele>
        <time>2022-09-30T09:39:01Z</time>
      </trkpt>
      <trkpt lat="46.88811" lon="6.90515">
        <ele>450.2</ele>
        <time>2022-09-30T09:39:02Z</time>
      </trkpt>
      <trkpt lat="46.88812" lon="6.90516">
        <ele>450.3</ele>
        <time>2022-09-30T09:39:03Z</time>
      </trkpt>
      <trkpt lat="46.88812" lon="6.9052">
        <ele>450.4</ele>
        <time>2022-09-30T09:39:04Z</time>
      </trkpt>
      <trkpt lat="46.88813" lon="6.90522">
        <ele>450.5</ele>
        <time>2022-09-30T09:39:05Z</time>
      </trkpt>
      <trkpt lat="46.88814" lon="6.90526">
        <ele>450.6</ele>
        <time>2022-09-30T09:39:06Z</time>
      </trkpt>
      <trkpt lat="46.88814" lon="6.90527">
        <ele>450.7</ele>
        <time>2022-09-30T09:39:07Z</time>
      </trkpt>
      <trkpt lat="46.88814" lon="6.90529">
        <ele>450.7</ele>
        <time>2022-09-30T09:39:08Z</time>
      </trkpt>
      <trkpt lat="46.88814" lon="6.90532">
        <ele>450.8</ele>
        <time>2022-09-30T09:39:09Z</time>
      </trkpt>
      <trkpt lat="46.88814" lon="6.90537">
        <ele>451</ele>
        <time>2022-09-30T09:39:10Z</time>
      </trkpt>
      <trkpt lat="46.88814" lon="6.90538">
        <ele>451</ele>
        <time>2022-09-30T09:39:11Z</time>
      </trkpt>
      <trkpt lat="46.88815" lon="6.90543">
        <ele>451.2</ele>
        <time>2022-09-30T09:39:12Z</time>
      </trkpt>
      <trkpt lat="46.88815" lon="6.90545">
        <ele>451.2</ele>
        <time>2022-09-30T09:39:13Z</time>
      </trkpt>
      <trkpt lat="46.88816" lon="6.90549">
        <ele>451.4</ele>
        <time>2022-09-30T09:39:14Z</time>
      </trkpt>
      <trkpt lat="46.88816" lon="6.9055">
        <ele>451.4</ele>
        <time>2022-09-30T09:39:15Z</time>
      </trkpt>
      <trkpt lat="46.88817" lon="6.90555">
        <ele>451.6</ele>
        <time>2022-09-30T09:39:16Z</time>
      </trkpt>
      <trkpt lat="46.88818" lon="6.90556">
        <ele>451.6</ele>
        <time>2022-09-30T09:39:17Z</time>
      </trkpt>
      <trkpt lat="46.88819" lon="6.90561">
        <ele>451.8</ele>
        <time>2022-09-30T09:39:18Z</time>
      </trkpt>
      <trkpt lat="46.88819" lon="6.90562">
        <ele>451.8</ele>
        <time>2022-09-30T09:39:19Z</time>
      </trkpt>
      <trkpt lat="46.8882" lon="6.90567">
        <ele>452</ele>
        <time>2022-09-30T09:39:20Z</time>
      </trkpt>
      <trkpt lat="46.8882" lon="6.90569">
        <ele>452</ele>
        <time>2022-09-30T09:39:21Z</time>
      </trkpt>
      <trkpt lat="46.8882" lon="6.90573">
        <ele>452.1</ele>
        <time>2022-09-30T09:39:22Z</time>
      </trkpt>
      <trkpt lat="46.88821" lon="6.90574">
        <ele>452.2</ele>
        <time>2022-09-30T09:39:23Z</time>
      </trkpt>
      <trkpt lat="46.88821" lon="6.90578">
        <ele>452.3</ele>
        <time>2022-09-30T09:39:24Z</time>
      </trkpt>
      <trkpt lat="46.88821" lon="6.90579">
        <ele>452.3</ele>
        <time>2022-09-30T09:39:25Z</time>
      </trkpt>
      <trkpt lat="46.88822" lon="6.90584">
        <ele>452.4</ele>
        <time>2022-09-30T09:39:26Z</time>
      </trkpt>
      <trkpt lat="46.88823" lon="6.90585">
        <ele>452.5</ele>
        <time>2022-09-30T09:39:27Z</time>
      </trkpt>
      <trkpt lat="46.88823" lon="6.90589">
        <ele>452.5</ele>
        <time>2022-09-30T09:39:28Z</time>
      </trkpt>
      <trkpt lat="46.88823" lon="6.9059">
        <ele>452.6</ele>
        <time>2022-09-30T09:39:29Z</time>
      </trkpt>
      <trkpt lat="46.88823" lon="6.90595">
        <ele>452.7</ele>
        <time>2022-09-30T09:39:30Z</time>
      </trkpt>
      <trkpt lat="46.88824" lon="6.90597">
        <ele>452.7</ele>
        <time>2022-09-30T09:39:31Z</time>
      </trkpt>
      <trkpt lat="46.88824" lon="6.90602">
        <ele>452.8</ele>
        <time>2022-09-30T09:39:32Z</time>
      </trkpt>
      <trkpt lat="46.88825" lon="6.90604">
        <ele>452.8</ele>
        <time>2022-09-30T09:39:33Z</time>
      </trkpt>
      <trkpt lat="46.88825" lon="6.90606">
        <ele>452.9</ele>
        <time>2022-09-30T09:39:34Z</time>
      </trkpt>
      <trkpt lat="46.88825" lon="6.90608">
        <ele>452.9</ele>
        <time>2022-09-30T09:39:35Z</time>
      </trkpt>
      <trkpt lat="46.88825" lon="6.9061">
        <ele>453</ele>
        <time>2022-09-30T09:39:36Z</time>
      </trkpt>
      <trkpt lat="46.88826" lon="6.90615">
        <ele>453</ele>
        <time>2022-09-30T09:39:37Z</time>
      </trkpt>
      <trkpt lat="46.88827" lon="6.90616">
        <ele>453.1</ele>
        <time>2022-09-30T09:39:38Z</time>
      </trkpt>
      <trkpt lat="46.88827" lon="6.90618">
        <ele>453.1</ele>
        <time>2022-09-30T09:39:39Z</time>
      </trkpt>
      <trkpt lat="46.88827" lon="6.90621">
        <ele>453.1</ele>
        <time>2022-09-30T09:39:40Z</time>
      </trkpt>
      <trkpt lat="46.88828" lon="6.90626">
        <ele>453.2</ele>
        <time>2022-09-30T09:39:41Z</time>
      </trkpt>
      <trkpt lat="46.88829" lon="6.90628">
        <ele>453.2</ele>
        <time>2022-09-30T09:39:42Z</time>
      </trkpt>
      <trkpt lat="46.8883" lon="6.90633">
        <ele>453.3</ele>
        <time>2022-09-30T09:39:43Z</time>
      </trkpt>
      <trkpt lat="46.8883" lon="6.90634">
        <ele>453.3</ele>
        <time>2022-09-30T09:39:44Z</time>
      </trkpt>
      <trkpt lat="46.88831" lon="6.9064">
        <ele>453.4</ele>
        <time>2022-09-30T09:39:45Z</time>
      </trkpt>
      <trkpt lat="46.88831" lon="6.90642">
        <ele>453.5</ele>
        <time>2022-09-30T09:39:46Z</time>
      </trkpt>
      <trkpt lat="46.88832" lon="6.90645">
        <ele>453.5</ele>
        <time>2022-09-30T09:39:47Z</time>
      </trkpt>
      <trkpt lat="46.88833" lon="6.90651">
        <ele>453.6</ele>
        <time>2022-09-30T09:39:48Z</time>
      </trkpt>
      <trkpt lat="46.88833" lon="6.90653">
        <ele>453.6</ele>
        <time>2022-09-30T09:39:49Z</time>
      </trkpt>
      <trkpt lat="46.88834" lon="6.90657">
        <ele>453.7</ele>
        <time>2022-09-30T09:39:50Z</time>
      </trkpt>
      <trkpt lat="46.88835" lon="6.90661">
        <ele>453.8</ele>
        <time>2022-09-30T09:39:51Z</time>
      </trkpt>
      <trkpt lat="46.88836" lon="6.90666">
        <ele>453.8</ele>
        <time>2022-09-30T09:39:52Z</time>
      </trkpt>
      <trkpt lat="46.88836" lon="6.90668">
        <ele>453.8</ele>
        <time>2022-09-30T09:39:53Z</time>
      </trkpt>
      <trkpt lat="46.88836" lon="6.90674">
        <ele>453.9</ele>
        <time>2022-09-30T09:39:54Z</time>
      </trkpt>
      <trkpt lat="46.88837" lon="6.90676">
        <ele>453.9</ele>
        <time>2022-09-30T09:39:55Z</time>
      </trkpt>
      <trkpt lat="46.88836" lon="6.90681">
        <ele>454</ele>
        <time>2022-09-30T09:39:56Z</time>
      </trkpt>
      <trkpt lat="46.88835" lon="6.90685">
        <ele>454.1</ele>
        <time>2022-09-30T09:39:57Z</time>
      </trkpt>
      <trkpt lat="46.88835" lon="6.9069">
        <ele>454.1</ele>
        <time>2022-09-30T09:39:58Z</time>
      </trkpt>
      <trkpt lat="46.88835" lon="6.90693">
        <ele>454.2</ele>
        <time>2022-09-30T09:39:59Z</time>
      </trkpt>
      <trkpt lat="46.88835" lon="6.90697">
        <ele>454.2</ele>
        <time>2022-09-30T09:40:00Z</time>
      </trkpt>
      <trkpt lat="46.88835" lon="6.90702">
        <ele>454.3</ele>
        <time>2022-09-30T09:40:01Z</time>
      </trkpt>
      <trkpt lat="46.88836" lon="6.90704">
        <ele>454.3</ele>
        <time>2022-09-30T09:40:02Z</time>
      </trkpt>
      <trkpt lat="46.88838" lon="6.90708">
        <ele>454.3</ele>
        <time>2022-09-30T09:40:03Z</time>
      </trkpt>
      <trkpt lat="46.88839" lon="6.90709">
        <ele>454.4</ele>
        <time>2022-09-30T09:40:04Z</time>
      </trkpt>
      <trkpt lat="46.88841" lon="6.90714">
        <ele>454.4</ele>
        <time>2022-09-30T09:40:05Z</time>
      </trkpt>
      <trkpt lat="46.88843" lon="6.90717">
        <ele>454.5</ele>
        <time>2022-09-30T09:40:06Z</time>
      </trkpt>
      <trkpt lat="46.88845" lon="6.90721">
        <ele>454.5</ele>
        <time>2022-09-30T09:40:07Z</time>
      </trkpt>
      <trkpt lat="46.88848" lon="6.90724">
        <ele>454.6</ele>
        <time>2022-09-30T09:40:08Z</time>
      </trkpt>
      <trkpt lat="46.8885" lon="6.90727">
        <ele>454.6</ele>
        <time>2022-09-30T09:40:09Z</time>
      </trkpt>
      <trkpt lat="46.88852" lon="6.90732">
        <ele>454.7</ele>
        <time>2022-09-30T09:40:10Z</time>
      </trkpt>
      <trkpt lat="46.88853" lon="6.90733">
        <ele>454.7</ele>
        <time>2022-09-30T09:40:11Z</time>
      </trkpt>
      <trkpt lat="46.88854" lon="6.90738">
        <ele>454.8</ele>
        <time>2022-09-30T09:40:12Z</time>
      </trkpt>
      <trkpt lat="46.88855" lon="6.90741">
        <ele>454.8</ele>
        <time>2022-09-30T09:40:13Z</time>
      </trkpt>
      <trkpt lat="46.88857" lon="6.90745">
        <ele>454.9</ele>
        <time>2022-09-30T09:40:14Z</time>
      </trkpt>
      <trkpt lat="46.88859" lon="6.90749">
        <ele>454.9</ele>
        <time>2022-09-30T09:40:15Z</time>
      </trkpt>
      <trkpt lat="46.88861" lon="6.90753">
        <ele>454.9</ele>
        <time>2022-09-30T09:40:16Z</time>
      </trkpt>
      <trkpt lat="46.88862" lon="6.90754">
        <ele>454.9</ele>
        <time>2022-09-30T09:40:17Z</time>
      </trkpt>
      <trkpt lat="46.88863" lon="6.90758">
        <ele>454.9</ele>
        <time>2022-09-30T09:40:18Z</time>
      </trkpt>
      <trkpt lat="46.88865" lon="6.90763">
        <ele>455</ele>
        <time>2022-09-30T09:40:19Z</time>
      </trkpt>
      <trkpt lat="46.88867" lon="6.90767">
        <ele>455</ele>
        <time>2022-09-30T09:40:20Z</time>
      </trkpt>
      <trkpt lat="46.88868" lon="6.90771">
        <ele>455</ele>
        <time>2022-09-30T09:40:21Z</time>
      </trkpt>
      <trkpt lat="46.8887" lon="6.90775">
        <ele>455</ele>
        <time>2022-09-30T09:40:22Z</time>
      </trkpt>
      <trkpt lat="46.88872" lon="6.90779">
        <ele>455</ele>
        <time>2022-09-30T09:40:23Z</time>
      </trkpt>
      <trkpt lat="46.88874" lon="6.90783">
        <ele>455.1</ele>
        <time>2022-09-30T09:40:24Z</time>
      </trkpt>
      <trkpt lat="46.88877" lon="6.90787">
        <ele>455.1</ele>
        <time>2022-09-30T09:40:25Z</time>
      </trkpt>
      <trkpt lat="46.88878" lon="6.90789">
        <ele>455.1</ele>
        <time>2022-09-30T09:40:26Z</time>
      </trkpt>
      <trkpt lat="46.8888" lon="6.90794">
        <ele>455.1</ele>
        <time>2022-09-30T09:40:27Z</time>
      </trkpt>
      <trkpt lat="46.88882" lon="6.90798">
        <ele>455.2</ele>
        <time>2022-09-30T09:40:28Z</time>
      </trkpt>
      <trkpt lat="46.88884" lon="6.90803">
        <ele>455.2</ele>
        <time>2022-09-30T09:40:29Z</time>
      </trkpt>
      <trkpt lat="46.88886" lon="6.90806">
        <ele>455.2</ele>
        <time>2022-09-30T09:40:30Z</time>
      </trkpt>
      <trkpt lat="46.88888" lon="6.90809">
        <ele>455.3</ele>
        <time>2022-09-30T09:40:31Z</time>
      </trkpt>
      <trkpt lat="46.8889" lon="6.90812">
        <ele>455.3</ele>
        <time>2022-09-30T09:40:32Z</time>
      </trkpt>
      <trkpt lat="46.88892" lon="6.90816">
        <ele>455.3</ele>
        <time>2022-09-30T09:40:33Z</time>
      </trkpt>
      <trkpt lat="46.88893" lon="6.9082">
        <ele>455.4</ele>
        <time>2022-09-30T09:40:34Z</time>
      </trkpt>
      <trkpt lat="46.88895" lon="6.90823">
        <ele>455.4</ele>
        <time>2022-09-30T09:40:35Z</time>
      </trkpt>
      <trkpt lat="46.88898" lon="6.90826">
        <ele>455.4</ele>
        <time>2022-09-30T09:40:36Z</time>
      </trkpt>
      <trkpt lat="46.889" lon="6.90829">
        <ele>455.5</ele>
        <time>2022-09-30T09:40:37Z</time>
      </trkpt>
      <trkpt lat="46.88903" lon="6.90833">
        <ele>455.5</ele>
        <time>2022-09-30T09:40:38Z</time>
      </trkpt>
      <trkpt lat="46.88904" lon="6.90834">
        <ele>455.5</ele>
        <time>2022-09-30T09:40:39Z</time>
      </trkpt>
      <trkpt lat="46.88906" lon="6.90837">
        <ele>455.6</ele>
        <time>2022-09-30T09:40:40Z</time>
      </trkpt>
      <trkpt lat="46.88908" lon="6.90839">
        <ele>455.6</ele>
        <time>2022-09-30T09:40:41Z</time>
      </trkpt>
      <trkpt lat="46.88909" lon="6.9084">
        <ele>455.6</ele>
        <time>2022-09-30T09:40:42Z</time>
      </trkpt>
      <trkpt lat="46.88912" lon="6.90843">
        <ele>455.6</ele>
        <time>2022-09-30T09:40:43Z</time>
      </trkpt>
      <trkpt lat="46.88913" lon="6.90843">
        <ele>455.6</ele>
        <time>2022-09-30T09:40:44Z</time>
      </trkpt>
      <trkpt lat="46.88916" lon="6.90842">
        <ele>455.5</ele>
        <time>2022-09-30T09:40:45Z</time>
      </trkpt>
      <trkpt lat="46.88919" lon="6.90839">
        <ele>455.5</ele>
        <time>2022-09-30T09:40:46Z</time>
      </trkpt>
      <trkpt lat="46.8892" lon="6.90834">
        <ele>455.5</ele>
        <time>2022-09-30T09:40:47Z</time>
      </trkpt>
      <trkpt lat="46.88921" lon="6.90829">
        <ele>455.4</ele>
        <time>2022-09-30T09:40:48Z</time>
      </trkpt>
      <trkpt lat="46.88922" lon="6.90825">
        <ele>455.4</ele>
        <time>2022-09-30T09:40:49Z</time>
      </trkpt>
      <trkpt lat="46.88922" lon="6.90823">
        <ele>455.4</ele>
        <time>2022-09-30T09:40:50Z</time>
      </trkpt>
      <trkpt lat="46.88923" lon="6.90818">
        <ele>455.3</ele>
        <time>2022-09-30T09:40:51Z</time>
      </trkpt>
      <trkpt lat="46.88924" lon="6.90817">
        <ele>455.3</ele>
        <time>2022-09-30T09:40:52Z</time>
      </trkpt>
      <trkpt lat="46.88926" lon="6.90813">
        <ele>455.3</ele>
        <time>2022-09-30T09:40:53Z</time>
      </trkpt>
      <trkpt lat="46.88929" lon="6.90811">
        <ele>455.3</ele>
        <time>2022-09-30T09:40:54Z</time>
      </trkpt>
      <trkpt lat="46.88932" lon="6.9081">
        <ele>455.2</ele>
        <time>2022-09-30T09:40:55Z</time>
      </trkpt>
      <trkpt lat="46.88935" lon="6.90808">
        <ele>454.8</ele>
        <time>2022-09-30T09:40:56Z</time>
      </trkpt>
      <trkpt lat="46.88938" lon="6.90807">
        <ele>454.6</ele>
        <time>2022-09-30T09:40:57Z</time>
      </trkpt>
      <trkpt lat="46.88942" lon="6.90807">
        <ele>454.5</ele>
        <time>2022-09-30T09:40:58Z</time>
      </trkpt>
      <trkpt lat="46.88945" lon="6.90809">
        <ele>454.3</ele>
        <time>2022-09-30T09:40:59Z</time>
      </trkpt>
      <trkpt lat="46.88948" lon="6.90811">
        <ele>454.1</ele>
        <time>2022-09-30T09:41:00Z</time>
      </trkpt>
      <trkpt lat="46.88951" lon="6.90815">
        <ele>454</ele>
        <time>2022-09-30T09:41:01Z</time>
      </trkpt>
      <trkpt lat="46.88956" lon="6.9082">
        <ele>453.7</ele>
        <time>2022-09-30T09:41:02Z</time>
      </trkpt>
      <trkpt lat="46.8896" lon="6.90823">
        <ele>453.6</ele>
        <time>2022-09-30T09:41:03Z</time>
      </trkpt>
      <trkpt lat="46.88964" lon="6.90826">
        <ele>453.4</ele>
        <time>2022-09-30T09:41:04Z</time>
      </trkpt>
      <trkpt lat="46.88967" lon="6.9083">
        <ele>453.3</ele>
        <time>2022-09-30T09:41:05Z</time>
      </trkpt>
      <trkpt lat="46.88971" lon="6.90835">
        <ele>453.2</ele>
        <time>2022-09-30T09:41:06Z</time>
      </trkpt>
      <trkpt lat="46.88974" lon="6.9084">
        <ele>453</ele>
        <time>2022-09-30T09:41:07Z</time>
      </trkpt>
      <trkpt lat="46.88977" lon="6.90846">
        <ele>452.9</ele>
        <time>2022-09-30T09:41:08Z</time>
      </trkpt>
      <trkpt lat="46.8898" lon="6.90852">
        <ele>452.7</ele>
        <time>2022-09-30T09:41:09Z</time>
      </trkpt>
      <trkpt lat="46.88984" lon="6.90857">
        <ele>452.6</ele>
        <time>2022-09-30T09:41:10Z</time>
      </trkpt>
      <trkpt lat="46.88987" lon="6.90862">
        <ele>452.4</ele>
        <time>2022-09-30T09:41:11Z</time>
      </trkpt>
      <trkpt lat="46.88991" lon="6.90867">
        <ele>452.3</ele>
        <time>2022-09-30T09:41:12Z</time>
      </trkpt>
      <trkpt lat="46.88995" lon="6.90873">
        <ele>452.2</ele>
        <time>2022-09-30T09:41:13Z</time>
      </trkpt>
      <trkpt lat="46.88999" lon="6.90879">
        <ele>452</ele>
        <time>2022-09-30T09:41:14Z</time>
      </trkpt>
      <trkpt lat="46.89002" lon="6.90884">
        <ele>451.9</ele>
        <time>2022-09-30T09:41:15Z</time>
      </trkpt>
      <trkpt lat="46.89005" lon="6.90889">
        <ele>451.7</ele>
        <time>2022-09-30T09:41:16Z</time>
      </trkpt>
      <trkpt lat="46.89009" lon="6.90895">
        <ele>451.6</ele>
        <time>2022-09-30T09:41:17Z</time>
      </trkpt>
      <trkpt lat="46.89013" lon="6.909">
        <ele>451.5</ele>
        <time>2022-09-30T09:41:18Z</time>
      </trkpt>
      <trkpt lat="46.89017" lon="6.90906">
        <ele>451.4</ele>
        <time>2022-09-30T09:41:19Z</time>
      </trkpt>
      <trkpt lat="46.89021" lon="6.90911">
        <ele>451.3</ele>
        <time>2022-09-30T09:41:20Z</time>
      </trkpt>
      <trkpt lat="46.89025" lon="6.90917">
        <ele>451.1</ele>
        <time>2022-09-30T09:41:21Z</time>
      </trkpt>
      <trkpt lat="46.89028" lon="6.90922">
        <ele>451</ele>
        <time>2022-09-30T09:41:22Z</time>
      </trkpt>
      <trkpt lat="46.89031" lon="6.90927">
        <ele>451</ele>
        <time>2022-09-30T09:41:23Z</time>
      </trkpt>
      <trkpt lat="46.89035" lon="6.90932">
        <ele>450.9</ele>
        <time>2022-09-30T09:41:24Z</time>
      </trkpt>
      <trkpt lat="46.89038" lon="6.90937">
        <ele>450.8</ele>
        <time>2022-09-30T09:41:25Z</time>
      </trkpt>
      <trkpt lat="46.8904" lon="6.90942">
        <ele>450.7</ele>
        <time>2022-09-30T09:41:26Z</time>
      </trkpt>
      <trkpt lat="46.89042" lon="6.90946">
        <ele>450.7</ele>
        <time>2022-09-30T09:41:27Z</time>
      </trkpt>
      <trkpt lat="46.89045" lon="6.90948">
        <ele>450.6</ele>
        <time>2022-09-30T09:41:28Z</time>
      </trkpt>
      <trkpt lat="46.89045" lon="6.90949">
        <ele>450.6</ele>
        <time>2022-09-30T09:41:29Z</time>
      </trkpt>
      <trkpt lat="46.89045" lon="6.90949">
        <ele>450.6</ele>
        <time>2022-09-30T09:41:30Z</time>
      </trkpt>
      <trkpt lat="46.89046" lon="6.90949">
        <ele>450.6</ele>
        <time>2022-09-30T09:41:31Z</time>
      </trkpt>
      <trkpt lat="46.89046" lon="6.9095">
        <ele>450.6</ele>
        <time>2022-09-30T09:41:32Z</time>
      </trkpt>
      <trkpt lat="46.89046" lon="6.9095">
        <ele>450.5</ele>
        <time>2022-09-30T09:41:33Z</time>
      </trkpt>
      <trkpt lat="46.89047" lon="6.9095">
        <ele>450.5</ele>
        <time>2022-09-30T09:41:34Z</time>
      </trkpt>
      <trkpt lat="46.89047" lon="6.90951">
        <ele>450.5</ele>
        <time>2022-09-30T09:41:35Z</time>
      </trkpt>
      <trkpt lat="46.89047" lon="6.90951">
        <ele>450.5</ele>
        <time>2022-09-30T09:41:36Z</time>
      </trkpt>
      <trkpt lat="46.89048" lon="6.90951">
        <ele>450.5</ele>
        <time>2022-09-30T09:41:37Z</time>
      </trkpt>
      <trkpt lat="46.89048" lon="6.90952">
        <ele>450.5</ele>
        <time>2022-09-30T09:41:38Z</time>
      </trkpt>
      <trkpt lat="46.89048" lon="6.90952">
        <ele>450.5</ele>
        <time>2022-09-30T09:41:39Z</time>
      </trkpt>
      <trkpt lat="46.89049" lon="6.90952">
        <ele>450.5</ele>
        <time>2022-09-30T09:43:38Z</time>
      </trkpt>
      <trkpt lat="46.89049" lon="6.90953">
        <ele>450.5</ele>
        <time>2022-09-30T09:43:39Z</time>
      </trkpt>
      <trkpt lat="46.89051" lon="6.90955">
        <ele>450.4</ele>
        <time>2022-09-30T09:43:40Z</time>
      </trkpt>
      <trkpt lat="46.89053" lon="6.90959">
        <ele>450.4</ele>
        <time>2022-09-30T09:43:41Z</time>
      </trkpt>
      <trkpt lat="46.89055" lon="6.90962">
        <ele>450.3</ele>
        <time>2022-09-30T09:43:42Z</time>
      </trkpt>
      <trkpt lat="46.89057" lon="6.90965">
        <ele>450.2</ele>
        <time>2022-09-30T09:43:43Z</time>
      </trkpt>
      <trkpt lat="46.8906" lon="6.90969">
        <ele>450.2</ele>
        <time>2022-09-30T09:43:44Z</time>
      </trkpt>
      <trkpt lat="46.89063" lon="6.90973">
        <ele>450.1</ele>
        <time>2022-09-30T09:43:45Z</time>
      </trkpt>
      <trkpt lat="46.89067" lon="6.90978">
        <ele>450</ele>
        <time>2022-09-30T09:43:46Z</time>
      </trkpt>
      <trkpt lat="46.8907" lon="6.90983">
        <ele>449.9</ele>
        <time>2022-09-30T09:43:47Z</time>
      </trkpt>
      <trkpt lat="46.89073" lon="6.9099">
        <ele>449.8</ele>
        <time>2022-09-30T09:43:48Z</time>
      </trkpt>
      <trkpt lat="46.89076" lon="6.90995">
        <ele>449.7</ele>
        <time>2022-09-30T09:43:49Z</time>
      </trkpt>
      <trkpt lat="46.8908" lon="6.91">
        <ele>449.6</ele>
        <time>2022-09-30T09:43:50Z</time>
      </trkpt>
      <trkpt lat="46.89084" lon="6.91006">
        <ele>449.5</ele>
        <time>2022-09-30T09:43:51Z</time>
      </trkpt>
      <trkpt lat="46.89087" lon="6.91011">
        <ele>449.4</ele>
        <time>2022-09-30T09:43:52Z</time>
      </trkpt>
      <trkpt lat="46.89091" lon="6.91017">
        <ele>449.3</ele>
        <time>2022-09-30T09:43:53Z</time>
      </trkpt>
      <trkpt lat="46.89095" lon="6.91022">
        <ele>449.2</ele>
        <time>2022-09-30T09:43:54Z</time>
      </trkpt>
      <trkpt lat="46.89099" lon="6.91028">
        <ele>449.1</ele>
        <time>2022-09-30T09:43:55Z</time>
      </trkpt>
      <trkpt lat="46.89103" lon="6.91034">
        <ele>449.1</ele>
        <time>2022-09-30T09:43:56Z</time>
      </trkpt>
      <trkpt lat="46.89107" lon="6.9104">
        <ele>449</ele>
        <time>2022-09-30T09:43:57Z</time>
      </trkpt>
      <trkpt lat="46.89112" lon="6.91047">
        <ele>448.9</ele>
        <time>2022-09-30T09:43:58Z</time>
      </trkpt>
      <trkpt lat="46.89116" lon="6.91053">
        <ele>448.8</ele>
        <time>2022-09-30T09:43:59Z</time>
      </trkpt>
      <trkpt lat="46.8912" lon="6.91058">
        <ele>448.8</ele>
        <time>2022-09-30T09:44:00Z</time>
      </trkpt>
      <trkpt lat="46.89124" lon="6.91064">
        <ele>448.7</ele>
        <time>2022-09-30T09:44:01Z</time>
      </trkpt>
      <trkpt lat="46.89128" lon="6.9107">
        <ele>448.6</ele>
        <time>2022-09-30T09:44:02Z</time>
      </trkpt>
      <trkpt lat="46.89132" lon="6.91076">
        <ele>448.6</ele>
        <time>2022-09-30T09:44:03Z</time>
      </trkpt>
      <trkpt lat="46.89137" lon="6.91082">
        <ele>448.5</ele>
        <time>2022-09-30T09:44:04Z</time>
      </trkpt>
      <trkpt lat="46.89141" lon="6.91089">
        <ele>448.4</ele>
        <time>2022-09-30T09:44:05Z</time>
      </trkpt>
      <trkpt lat="46.89145" lon="6.91095">
        <ele>448.4</ele>
        <time>2022-09-30T09:44:06Z</time>
      </trkpt>
      <trkpt lat="46.89149" lon="6.91101">
        <ele>448.3</ele>
        <time>2022-09-30T09:44:07Z</time>
      </trkpt>
      <trkpt lat="46.89152" lon="6.91109">
        <ele>448.3</ele>
        <time>2022-09-30T09:44:08Z</time>
      </trkpt>
      <trkpt lat="46.89156" lon="6.91115">
        <ele>448.2</ele>
        <time>2022-09-30T09:44:09Z</time>
      </trkpt>
      <trkpt lat="46.8916" lon="6.91121">
        <ele>448.2</ele>
        <time>2022-09-30T09:44:10Z</time>
      </trkpt>
      <trkpt lat="46.89164" lon="6.91127">
        <ele>448.2</ele>
        <time>2022-09-30T09:44:11Z</time>
      </trkpt>
      <trkpt lat="46.89169" lon="6.91133">
        <ele>448.1</ele>
        <time>2022-09-30T09:44:12Z</time>
      </trkpt>
      <trkpt lat="46.89173" lon="6.91139">
        <ele>448.1</ele>
        <time>2022-09-30T09:44:13Z</time>
      </trkpt>
      <trkpt lat="46.89177" lon="6.91145">
        <ele>448.1</ele>
        <time>2022-09-30T09:44:14Z</time>
      </trkpt>
      <trkpt lat="46.89181" lon="6.91151">
        <ele>448.1</ele>
        <time>2022-09-30T09:44:15Z</time>
      </trkpt>
      <trkpt lat="46.89185" lon="6.91157">
        <ele>448.2</ele>
        <time>2022-09-30T09:44:16Z</time>
      </trkpt>
      <trkpt lat="46.89189" lon="6.91163">
        <ele>448.2</ele>
        <time>2022-09-30T09:44:17Z</time>
      </trkpt>
      <trkpt lat="46.89193" lon="6.91168">
        <ele>448.3</ele>
        <time>2022-09-30T09:44:18Z</time>
      </trkpt>
      <trkpt lat="46.89197" lon="6.91174">
        <ele>448.4</ele>
        <time>2022-09-30T09:44:19Z</time>
      </trkpt>
      <trkpt lat="46.89201" lon="6.91179">
        <ele>448.4</ele>
        <time>2022-09-30T09:44:20Z</time>
      </trkpt>
      <trkpt lat="46.89204" lon="6.91185">
        <ele>448.5</ele>
        <time>2022-09-30T09:44:21Z</time>
      </trkpt>
      <trkpt lat="46.89209" lon="6.91191">
        <ele>448.6</ele>
        <time>2022-09-30T09:44:22Z</time>
      </trkpt>
      <trkpt lat="46.89212" lon="6.91196">
        <ele>448.7</ele>
        <time>2022-09-30T09:44:23Z</time>
      </trkpt>
      <trkpt lat="46.89216" lon="6.91201">
        <ele>448.8</ele>
        <time>2022-09-30T09:44:24Z</time>
      </trkpt>
      <trkpt lat="46.89219" lon="6.91206">
        <ele>448.9</ele>
        <time>2022-09-30T09:44:25Z</time>
      </trkpt>
      <trkpt lat="46.89223" lon="6.91211">
        <ele>449</ele>
        <time>2022-09-30T09:44:26Z</time>
      </trkpt>
      <trkpt lat="46.89227" lon="6.91216">
        <ele>449.1</ele>
        <time>2022-09-30T09:44:27Z</time>
      </trkpt>
      <trkpt lat="46.8923" lon="6.91222">
        <ele>449.1</ele>
        <time>2022-09-30T09:44:28Z</time>
      </trkpt>
      <trkpt lat="46.89234" lon="6.91227">
        <ele>449.2</ele>
        <time>2022-09-30T09:44:29Z</time>
      </trkpt>
      <trkpt lat="46.89237" lon="6.91232">
        <ele>449.3</ele>
        <time>2022-09-30T09:44:30Z</time>
      </trkpt>
      <trkpt lat="46.89241" lon="6.91237">
        <ele>449.4</ele>
        <time>2022-09-30T09:44:31Z</time>
      </trkpt>
      <trkpt lat="46.89244" lon="6.91242">
        <ele>449.5</ele>
        <time>2022-09-30T09:44:32Z</time>
      </trkpt>
      <trkpt lat="46.89247" lon="6.91247">
        <ele>449.5</ele>
        <time>2022-09-30T09:44:33Z</time>
      </trkpt>
      <trkpt lat="46.89251" lon="6.91251">
        <ele>449.6</ele>
        <time>2022-09-30T09:44:34Z</time>
      </trkpt>
      <trkpt lat="46.89254" lon="6.91256">
        <ele>449.7</ele>
        <time>2022-09-30T09:44:35Z</time>
      </trkpt>
      <trkpt lat="46.89257" lon="6.9126">
        <ele>449.7</ele>
        <time>2022-09-30T09:44:36Z</time>
      </trkpt>
      <trkpt lat="46.8926" lon="6.91264">
        <ele>449.8</ele>
        <time>2022-09-30T09:44:37Z</time>
      </trkpt>
      <trkpt lat="46.89263" lon="6.91268">
        <ele>449.9</ele>
        <time>2022-09-30T09:44:38Z</time>
      </trkpt>
      <trkpt lat="46.89266" lon="6.91273">
        <ele>450</ele>
        <time>2022-09-30T09:44:39Z</time>
      </trkpt>
      <trkpt lat="46.89269" lon="6.91277">
        <ele>450.1</ele>
        <time>2022-09-30T09:44:40Z</time>
      </trkpt>
      <trkpt lat="46.89271" lon="6.91283">
        <ele>450.1</ele>
        <time>2022-09-30T09:44:41Z</time>
      </trkpt>
      <trkpt lat="46.89273" lon="6.91288">
        <ele>450.2</ele>
        <time>2022-09-30T09:44:42Z</time>
      </trkpt>
      <trkpt lat="46.89275" lon="6.91291">
        <ele>450.3</ele>
        <time>2022-09-30T09:44:43Z</time>
      </trkpt>
      <trkpt lat="46.89278" lon="6.91296">
        <ele>450.3</ele>
        <time>2022-09-30T09:44:44Z</time>
      </trkpt>
      <trkpt lat="46.89281" lon="6.913">
        <ele>450.3</ele>
        <time>2022-09-30T09:44:45Z</time>
      </trkpt>
      <trkpt lat="46.89283" lon="6.91305">
        <ele>450.4</ele>
        <time>2022-09-30T09:44:46Z</time>
      </trkpt>
      <trkpt lat="46.89286" lon="6.91309">
        <ele>450.5</ele>
        <time>2022-09-30T09:44:47Z</time>
      </trkpt>
      <trkpt lat="46.89288" lon="6.91313">
        <ele>450.6</ele>
        <time>2022-09-30T09:44:48Z</time>
      </trkpt>
      <trkpt lat="46.89291" lon="6.91318">
        <ele>450.6</ele>
        <time>2022-09-30T09:44:49Z</time>
      </trkpt>
      <trkpt lat="46.89293" lon="6.91322">
        <ele>450.7</ele>
        <time>2022-09-30T09:44:50Z</time>
      </trkpt>
      <trkpt lat="46.89295" lon="6.91326">
        <ele>450.8</ele>
        <time>2022-09-30T09:44:51Z</time>
      </trkpt>
      <trkpt lat="46.89298" lon="6.91331">
        <ele>450.9</ele>
        <time>2022-09-30T09:44:52Z</time>
      </trkpt>
      <trkpt lat="46.893" lon="6.91335">
        <ele>451</ele>
        <time>2022-09-30T09:44:53Z</time>
      </trkpt>
      <trkpt lat="46.89302" lon="6.91339">
        <ele>451</ele>
        <time>2022-09-30T09:44:54Z</time>
      </trkpt>
      <trkpt lat="46.89304" lon="6.91343">
        <ele>451.1</ele>
        <time>2022-09-30T09:44:55Z</time>
      </trkpt>
      <trkpt lat="46.89307" lon="6.91347">
        <ele>451.2</ele>
        <time>2022-09-30T09:44:56Z</time>
      </trkpt>
      <trkpt lat="46.89309" lon="6.91351">
        <ele>451.2</ele>
        <time>2022-09-30T09:44:57Z</time>
      </trkpt>
      <trkpt lat="46.89311" lon="6.91355">
        <ele>451.3</ele>
        <time>2022-09-30T09:44:58Z</time>
      </trkpt>
      <trkpt lat="46.89313" lon="6.91359">
        <ele>451.4</ele>
        <time>2022-09-30T09:44:59Z</time>
      </trkpt>
      <trkpt lat="46.89315" lon="6.91363">
        <ele>451.4</ele>
        <time>2022-09-30T09:45:00Z</time>
      </trkpt>
      <trkpt lat="46.89317" lon="6.91367">
        <ele>451.5</ele>
        <time>2022-09-30T09:45:01Z</time>
      </trkpt>
      <trkpt lat="46.89319" lon="6.9137">
        <ele>451.6</ele>
        <time>2022-09-30T09:45:02Z</time>
      </trkpt>
      <trkpt lat="46.89322" lon="6.91375">
        <ele>451.7</ele>
        <time>2022-09-30T09:45:03Z</time>
      </trkpt>
      <trkpt lat="46.89324" lon="6.91379">
        <ele>451.7</ele>
        <time>2022-09-30T09:45:04Z</time>
      </trkpt>
      <trkpt lat="46.89326" lon="6.91383">
        <ele>451.8</ele>
        <time>2022-09-30T09:45:05Z</time>
      </trkpt>
      <trkpt lat="46.89327" lon="6.91387">
        <ele>451.9</ele>
        <time>2022-09-30T09:45:06Z</time>
      </trkpt>
      <trkpt lat="46.89329" lon="6.91391">
        <ele>452</ele>
        <time>2022-09-30T09:45:07Z</time>
      </trkpt>
      <trkpt lat="46.89331" lon="6.91394">
        <ele>452</ele>
        <time>2022-09-30T09:45:08Z</time>
      </trkpt>
      <trkpt lat="46.89332" lon="6.91399">
        <ele>452.1</ele>
        <time>2022-09-30T09:45:09Z</time>
      </trkpt>
      <trkpt lat="46.89334" lon="6.91403">
        <ele>452.2</ele>
        <time>2022-09-30T09:45:10Z</time>
      </trkpt>
      <trkpt lat="46.89336" lon="6.91408">
        <ele>452.2</ele>
        <time>2022-09-30T09:45:11Z</time>
      </trkpt>
      <trkpt lat="46.89337" lon="6.91412">
        <ele>452.3</ele>
        <time>2022-09-30T09:45:12Z</time>
      </trkpt>
      <trkpt lat="46.89338" lon="6.91416">
        <ele>452.4</ele>
        <time>2022-09-30T09:45:13Z</time>
      </trkpt>
      <trkpt lat="46.8934" lon="6.91422">
        <ele>452.4</ele>
        <time>2022-09-30T09:45:14Z</time>
      </trkpt>
      <trkpt lat="46.89341" lon="6.91425">
        <ele>452.5</ele>
        <time>2022-09-30T09:45:15Z</time>
      </trkpt>
      <trkpt lat="46.89343" lon="6.91429">
        <ele>452.5</ele>
        <time>2022-09-30T09:45:16Z</time>
      </trkpt>
      <trkpt lat="46.89344" lon="6.91434">
        <ele>452.6</ele>
        <time>2022-09-30T09:45:17Z</time>
      </trkpt>
      <trkpt lat="46.89345" lon="6.91437">
        <ele>452.6</ele>
        <time>2022-09-30T09:45:18Z</time>
      </trkpt>
      <trkpt lat="46.89347" lon="6.91442">
        <ele>452.7</ele>
        <time>2022-09-30T09:45:19Z</time>
      </trkpt>
      <trkpt lat="46.89348" lon="6.91447">
        <ele>452.8</ele>
        <time>2022-09-30T09:45:20Z</time>
      </trkpt>
      <trkpt lat="46.8935" lon="6.91451">
        <ele>452.8</ele>
        <time>2022-09-30T09:45:21Z</time>
      </trkpt>
      <trkpt lat="46.89351" lon="6.91456">
        <ele>452.9</ele>
        <time>2022-09-30T09:45:22Z</time>
      </trkpt>
      <trkpt lat="46.89353" lon="6.9146">
        <ele>452.9</ele>
        <time>2022-09-30T09:45:23Z</time>
      </trkpt>
      <trkpt lat="46.89355" lon="6.91464">
        <ele>453</ele>
        <time>2022-09-30T09:45:24Z</time>
      </trkpt>
      <trkpt lat="46.89357" lon="6.91468">
        <ele>453</ele>
        <time>2022-09-30T09:45:25Z</time>
      </trkpt>
      <trkpt lat="46.89358" lon="6.91472">
        <ele>453.1</ele>
        <time>2022-09-30T09:45:26Z</time>
      </trkpt>
      <trkpt lat="46.8936" lon="6.91477">
        <ele>453.1</ele>
        <time>2022-09-30T09:45:27Z</time>
      </trkpt>
      <trkpt lat="46.89362" lon="6.91481">
        <ele>453.2</ele>
        <time>2022-09-30T09:45:28Z</time>
      </trkpt>
      <trkpt lat="46.89363" lon="6.91486">
        <ele>453.2</ele>
        <time>2022-09-30T09:45:29Z</time>
      </trkpt>
      <trkpt lat="46.89364" lon="6.9149">
        <ele>453.3</ele>
        <time>2022-09-30T09:45:30Z</time>
      </trkpt>
      <trkpt lat="46.89365" lon="6.91495">
        <ele>453.4</ele>
        <time>2022-09-30T09:45:31Z</time>
      </trkpt>
      <trkpt lat="46.89366" lon="6.915">
        <ele>453.4</ele>
        <time>2022-09-30T09:45:32Z</time>
      </trkpt>
      <trkpt lat="46.89368" lon="6.91504">
        <ele>453.5</ele>
        <time>2022-09-30T09:45:33Z</time>
      </trkpt>
      <trkpt lat="46.89369" lon="6.91509">
        <ele>453.5</ele>
        <time>2022-09-30T09:45:34Z</time>
      </trkpt>
      <trkpt lat="46.8937" lon="6.91513">
        <ele>453.6</ele>
        <time>2022-09-30T09:45:35Z</time>
      </trkpt>
      <trkpt lat="46.89372" lon="6.91518">
        <ele>453.7</ele>
        <time>2022-09-30T09:45:36Z</time>
      </trkpt>
      <trkpt lat="46.89373" lon="6.91521">
        <ele>453.7</ele>
        <time>2022-09-30T09:45:37Z</time>
      </trkpt>
      <trkpt lat="46.89374" lon="6.91525">
        <ele>453.8</ele>
        <time>2022-09-30T09:45:38Z</time>
      </trkpt>
      <trkpt lat="46.89376" lon="6.91529">
        <ele>453.8</ele>
        <time>2022-09-30T09:45:39Z</time>
      </trkpt>
      <trkpt lat="46.89377" lon="6.91533">
        <ele>453.9</ele>
        <time>2022-09-30T09:45:40Z</time>
      </trkpt>
      <trkpt lat="46.89379" lon="6.91536">
        <ele>453.9</ele>
        <time>2022-09-30T09:45:41Z</time>
      </trkpt>
      <trkpt lat="46.8938" lon="6.91541">
        <ele>454</ele>
        <time>2022-09-30T09:45:42Z</time>
      </trkpt>
      <trkpt lat="46.89381" lon="6.91545">
        <ele>454</ele>
        <time>2022-09-30T09:45:43Z</time>
      </trkpt>
      <trkpt lat="46.89384" lon="6.91549">
        <ele>454.1</ele>
        <time>2022-09-30T09:45:44Z</time>
      </trkpt>
      <trkpt lat="46.89384" lon="6.91554">
        <ele>454.1</ele>
        <time>2022-09-30T09:45:45Z</time>
      </trkpt>
      <trkpt lat="46.89386" lon="6.91558">
        <ele>454.2</ele>
        <time>2022-09-30T09:45:46Z</time>
      </trkpt>
      <trkpt lat="46.89386" lon="6.91564">
        <ele>454.3</ele>
        <time>2022-09-30T09:45:47Z</time>
      </trkpt>
      <trkpt lat="46.89387" lon="6.91567">
        <ele>454.3</ele>
        <time>2022-09-30T09:45:48Z</time>
      </trkpt>
      <trkpt lat="46.89389" lon="6.91573">
        <ele>454.4</ele>
        <time>2022-09-30T09:45:49Z</time>
      </trkpt>
      <trkpt lat="46.89391" lon="6.91578">
        <ele>454.4</ele>
        <time>2022-09-30T09:45:50Z</time>
      </trkpt>
      <trkpt lat="46.89392" lon="6.9158">
        <ele>454.5</ele>
        <time>2022-09-30T09:45:51Z</time>
      </trkpt>
      <trkpt lat="46.89394" lon="6.91585">
        <ele>454.5</ele>
        <time>2022-09-30T09:45:52Z</time>
      </trkpt>
      <trkpt lat="46.89395" lon="6.9159">
        <ele>454.6</ele>
        <time>2022-09-30T09:45:53Z</time>
      </trkpt>
      <trkpt lat="46.89397" lon="6.91594">
        <ele>454.7</ele>
        <time>2022-09-30T09:45:54Z</time>
      </trkpt>
      <trkpt lat="46.89398" lon="6.91599">
        <ele>454.7</ele>
        <time>2022-09-30T09:45:55Z</time>
      </trkpt>
      <trkpt lat="46.89399" lon="6.91605">
        <ele>454.8</ele>
        <time>2022-09-30T09:45:56Z</time>
      </trkpt>
      <trkpt lat="46.894" lon="6.91608">
        <ele>454.8</ele>
        <time>2022-09-30T09:45:57Z</time>
      </trkpt>
      <trkpt lat="46.89401" lon="6.91612">
        <ele>454.9</ele>
        <time>2022-09-30T09:45:58Z</time>
      </trkpt>
      <trkpt lat="46.89402" lon="6.91616">
        <ele>455</ele>
        <time>2022-09-30T09:45:59Z</time>
      </trkpt>
      <trkpt lat="46.89403" lon="6.9162">
        <ele>455</ele>
        <time>2022-09-30T09:46:00Z</time>
      </trkpt>
      <trkpt lat="46.89405" lon="6.91625">
        <ele>455.1</ele>
        <time>2022-09-30T09:46:01Z</time>
      </trkpt>
      <trkpt lat="46.89407" lon="6.91628">
        <ele>455.2</ele>
        <time>2022-09-30T09:46:02Z</time>
      </trkpt>
      <trkpt lat="46.89408" lon="6.91632">
        <ele>455.2</ele>
        <time>2022-09-30T09:46:03Z</time>
      </trkpt>
      <trkpt lat="46.89409" lon="6.91638">
        <ele>455.3</ele>
        <time>2022-09-30T09:46:04Z</time>
      </trkpt>
      <trkpt lat="46.8941" lon="6.9164">
        <ele>455.4</ele>
        <time>2022-09-30T09:46:05Z</time>
      </trkpt>
      <trkpt lat="46.89411" lon="6.91643">
        <ele>455.4</ele>
        <time>2022-09-30T09:46:06Z</time>
      </trkpt>
      <trkpt lat="46.89413" lon="6.91649">
        <ele>455.5</ele>
        <time>2022-09-30T09:46:07Z</time>
      </trkpt>
      <trkpt lat="46.89413" lon="6.91651">
        <ele>455.6</ele>
        <time>2022-09-30T09:46:08Z</time>
      </trkpt>
      <trkpt lat="46.89415" lon="6.91655">
        <ele>455.6</ele>
        <time>2022-09-30T09:46:09Z</time>
      </trkpt>
      <trkpt lat="46.89416" lon="6.91659">
        <ele>455.7</ele>
        <time>2022-09-30T09:46:10Z</time>
      </trkpt>
      <trkpt lat="46.89418" lon="6.91662">
        <ele>455.7</ele>
        <time>2022-09-30T09:46:11Z</time>
      </trkpt>
      <trkpt lat="46.89419" lon="6.91667">
        <ele>455.8</ele>
        <time>2022-09-30T09:46:12Z</time>
      </trkpt>
      <trkpt lat="46.8942" lon="6.9167">
        <ele>455.8</ele>
        <time>2022-09-30T09:46:13Z</time>
      </trkpt>
      <trkpt lat="46.89422" lon="6.91674">
        <ele>455.9</ele>
        <time>2022-09-30T09:46:14Z</time>
      </trkpt>
      <trkpt lat="46.89423" lon="6.91678">
        <ele>455.9</ele>
        <time>2022-09-30T09:46:15Z</time>
      </trkpt>
      <trkpt lat="46.89424" lon="6.91685">
        <ele>456</ele>
        <time>2022-09-30T09:46:16Z</time>
      </trkpt>
      <trkpt lat="46.89426" lon="6.9169">
        <ele>456.1</ele>
        <time>2022-09-30T09:46:17Z</time>
      </trkpt>
      <trkpt lat="46.89426" lon="6.91691">
        <ele>456.1</ele>
        <time>2022-09-30T09:46:18Z</time>
      </trkpt>
      <trkpt lat="46.89428" lon="6.91696">
        <ele>456.1</ele>
        <time>2022-09-30T09:46:19Z</time>
      </trkpt>
      <trkpt lat="46.89429" lon="6.917">
        <ele>456.1</ele>
        <time>2022-09-30T09:46:20Z</time>
      </trkpt>
      <trkpt lat="46.89431" lon="6.91705">
        <ele>456.2</ele>
        <time>2022-09-30T09:46:21Z</time>
      </trkpt>
      <trkpt lat="46.89432" lon="6.91707">
        <ele>456.2</ele>
        <time>2022-09-30T09:46:22Z</time>
      </trkpt>
      <trkpt lat="46.89433" lon="6.91712">
        <ele>456.2</ele>
        <time>2022-09-30T09:46:23Z</time>
      </trkpt>
      <trkpt lat="46.89434" lon="6.91716">
        <ele>456.2</ele>
        <time>2022-09-30T09:46:24Z</time>
      </trkpt>
      <trkpt lat="46.89436" lon="6.91721">
        <ele>456.2</ele>
        <time>2022-09-30T09:46:25Z</time>
      </trkpt>
      <trkpt lat="46.89438" lon="6.91725">
        <ele>456.2</ele>
        <time>2022-09-30T09:46:26Z</time>
      </trkpt>
      <trkpt lat="46.89439" lon="6.91729">
        <ele>456.1</ele>
        <time>2022-09-30T09:46:27Z</time>
      </trkpt>
      <trkpt lat="46.89441" lon="6.91734">
        <ele>456.1</ele>
        <time>2022-09-30T09:46:28Z</time>
      </trkpt>
      <trkpt lat="46.89442" lon="6.91738">
        <ele>456.1</ele>
        <time>2022-09-30T09:46:29Z</time>
      </trkpt>
      <trkpt lat="46.89444" lon="6.91743">
        <ele>456.1</ele>
        <time>2022-09-30T09:46:30Z</time>
      </trkpt>
      <trkpt lat="46.89446" lon="6.91749">
        <ele>456.1</ele>
        <time>2022-09-30T09:46:31Z</time>
      </trkpt>
      <trkpt lat="46.89447" lon="6.91754">
        <ele>456.1</ele>
        <time>2022-09-30T09:46:32Z</time>
      </trkpt>
      <trkpt lat="46.89449" lon="6.91759">
        <ele>456.1</ele>
        <time>2022-09-30T09:46:33Z</time>
      </trkpt>
      <trkpt lat="46.89451" lon="6.91764">
        <ele>456.1</ele>
        <time>2022-09-30T09:46:34Z</time>
      </trkpt>
      <trkpt lat="46.89452" lon="6.9177">
        <ele>456.1</ele>
        <time>2022-09-30T09:46:35Z</time>
      </trkpt>
      <trkpt lat="46.89454" lon="6.91775">
        <ele>456</ele>
        <time>2022-09-30T09:46:36Z</time>
      </trkpt>
      <trkpt lat="46.89456" lon="6.9178">
        <ele>456</ele>
        <time>2022-09-30T09:46:37Z</time>
      </trkpt>
      <trkpt lat="46.89458" lon="6.91785">
        <ele>456</ele>
        <time>2022-09-30T09:46:38Z</time>
      </trkpt>
      <trkpt lat="46.89459" lon="6.9179">
        <ele>456</ele>
        <time>2022-09-30T09:46:39Z</time>
      </trkpt>
      <trkpt lat="46.89461" lon="6.91795">
        <ele>456</ele>
        <time>2022-09-30T09:46:40Z</time>
      </trkpt>
      <trkpt lat="46.89463" lon="6.918">
        <ele>455.9</ele>
        <time>2022-09-30T09:46:41Z</time>
      </trkpt>
      <trkpt lat="46.89465" lon="6.91806">
        <ele>455.8</ele>
        <time>2022-09-30T09:46:42Z</time>
      </trkpt>
      <trkpt lat="46.89467" lon="6.91812">
        <ele>455.8</ele>
        <time>2022-09-30T09:46:43Z</time>
      </trkpt>
      <trkpt lat="46.89469" lon="6.91818">
        <ele>455.7</ele>
        <time>2022-09-30T09:46:44Z</time>
      </trkpt>
      <trkpt lat="46.8947" lon="6.91823">
        <ele>455.6</ele>
        <time>2022-09-30T09:46:45Z</time>
      </trkpt>
      <trkpt lat="46.89472" lon="6.9183">
        <ele>455.6</ele>
        <time>2022-09-30T09:46:46Z</time>
      </trkpt>
      <trkpt lat="46.89474" lon="6.91836">
        <ele>455.5</ele>
        <time>2022-09-30T09:46:47Z</time>
      </trkpt>
      <trkpt lat="46.89476" lon="6.91842">
        <ele>455.4</ele>
        <time>2022-09-30T09:46:48Z</time>
      </trkpt>
      <trkpt lat="46.89478" lon="6.91848">
        <ele>455.3</ele>
        <time>2022-09-30T09:46:49Z</time>
      </trkpt>
      <trkpt lat="46.8948" lon="6.91856">
        <ele>455.2</ele>
        <time>2022-09-30T09:46:50Z</time>
      </trkpt>
      <trkpt lat="46.89482" lon="6.91862">
        <ele>455.1</ele>
        <time>2022-09-30T09:46:51Z</time>
      </trkpt>
      <trkpt lat="46.89482" lon="6.91871">
        <ele>454.9</ele>
        <time>2022-09-30T09:46:52Z</time>
      </trkpt>
      <trkpt lat="46.89484" lon="6.91878">
        <ele>454.8</ele>
        <time>2022-09-30T09:46:53Z</time>
      </trkpt>
      <trkpt lat="46.89486" lon="6.91884">
        <ele>454.7</ele>
        <time>2022-09-30T09:46:54Z</time>
      </trkpt>
      <trkpt lat="46.89489" lon="6.91891">
        <ele>454.6</ele>
        <time>2022-09-30T09:46:55Z</time>
      </trkpt>
      <trkpt lat="46.89491" lon="6.91898">
        <ele>454.5</ele>
        <time>2022-09-30T09:46:56Z</time>
      </trkpt>
      <trkpt lat="46.89493" lon="6.91905">
        <ele>454.4</ele>
        <time>2022-09-30T09:46:57Z</time>
      </trkpt>
      <trkpt lat="46.89495" lon="6.91912">
        <ele>454.3</ele>
        <time>2022-09-30T09:46:58Z</time>
      </trkpt>
      <trkpt lat="46.89498" lon="6.91919">
        <ele>454.2</ele>
        <time>2022-09-30T09:46:59Z</time>
      </trkpt>
      <trkpt lat="46.895" lon="6.91926">
        <ele>454.1</ele>
        <time>2022-09-30T09:47:00Z</time>
      </trkpt>
      <trkpt lat="46.89502" lon="6.91933">
        <ele>454.1</ele>
        <time>2022-09-30T09:47:01Z</time>
      </trkpt>
      <trkpt lat="46.89505" lon="6.9194">
        <ele>454</ele>
        <time>2022-09-30T09:47:02Z</time>
      </trkpt>
      <trkpt lat="46.89507" lon="6.91946">
        <ele>453.9</ele>
        <time>2022-09-30T09:47:03Z</time>
      </trkpt>
      <trkpt lat="46.89509" lon="6.91953">
        <ele>453.9</ele>
        <time>2022-09-30T09:47:04Z</time>
      </trkpt>
      <trkpt lat="46.89511" lon="6.9196">
        <ele>453.8</ele>
        <time>2022-09-30T09:47:05Z</time>
      </trkpt>
      <trkpt lat="46.89514" lon="6.91967">
        <ele>453.8</ele>
        <time>2022-09-30T09:47:06Z</time>
      </trkpt>
      <trkpt lat="46.89516" lon="6.91974">
        <ele>453.7</ele>
        <time>2022-09-30T09:47:07Z</time>
      </trkpt>
      <trkpt lat="46.89518" lon="6.91982">
        <ele>453.7</ele>
        <time>2022-09-30T09:47:08Z</time>
      </trkpt>
      <trkpt lat="46.8952" lon="6.91988">
        <ele>453.6</ele>
        <time>2022-09-30T09:47:09Z</time>
      </trkpt>
      <trkpt lat="46.89522" lon="6.91995">
        <ele>453.6</ele>
        <time>2022-09-30T09:47:10Z</time>
      </trkpt>
      <trkpt lat="46.89524" lon="6.92001">
        <ele>453.6</ele>
        <time>2022-09-30T09:47:11Z</time>
      </trkpt>
      <trkpt lat="46.89526" lon="6.92008">
        <ele>453.6</ele>
        <time>2022-09-30T09:47:12Z</time>
      </trkpt>
      <trkpt lat="46.89529" lon="6.92015">
        <ele>453.5</ele>
        <time>2022-09-30T09:47:13Z</time>
      </trkpt>
      <trkpt lat="46.89531" lon="6.92022">
        <ele>453.5</ele>
        <time>2022-09-30T09:47:14Z</time>
      </trkpt>
      <trkpt lat="46.89534" lon="6.92028">
        <ele>453.5</ele>
        <time>2022-09-30T09:47:15Z</time>
      </trkpt>
      <trkpt lat="46.89536" lon="6.92035">
        <ele>453.5</ele>
        <time>2022-09-30T09:47:16Z</time>
      </trkpt>
      <trkpt lat="46.89538" lon="6.92042">
        <ele>453.4</ele>
        <time>2022-09-30T09:47:17Z</time>
      </trkpt>
      <trkpt lat="46.89541" lon="6.92049">
        <ele>453.4</ele>
        <time>2022-09-30T09:47:18Z</time>
      </trkpt>
      <trkpt lat="46.89543" lon="6.92055">
        <ele>453.4</ele>
        <time>2022-09-30T09:47:19Z</time>
      </trkpt>
      <trkpt lat="46.89546" lon="6.92062">
        <ele>453.4</ele>
        <time>2022-09-30T09:47:20Z</time>
      </trkpt>
      <trkpt lat="46.89547" lon="6.9207">
        <ele>453.4</ele>
        <time>2022-09-30T09:47:21Z</time>
      </trkpt>
      <trkpt lat="46.8955" lon="6.92076">
        <ele>453.4</ele>
        <time>2022-09-30T09:47:22Z</time>
      </trkpt>
      <trkpt lat="46.89552" lon="6.92082">
        <ele>453.4</ele>
        <time>2022-09-30T09:47:23Z</time>
      </trkpt>
      <trkpt lat="46.89554" lon="6.92088">
        <ele>453.4</ele>
        <time>2022-09-30T09:47:24Z</time>
      </trkpt>
      <trkpt lat="46.89557" lon="6.92094">
        <ele>453.4</ele>
        <time>2022-09-30T09:47:25Z</time>
      </trkpt>
      <trkpt lat="46.89559" lon="6.92099">
        <ele>453.4</ele>
        <time>2022-09-30T09:47:26Z</time>
      </trkpt>
      <trkpt lat="46.89561" lon="6.92104">
        <ele>453.4</ele>
        <time>2022-09-30T09:47:27Z</time>
      </trkpt>
      <trkpt lat="46.89564" lon="6.9211">
        <ele>453.4</ele>
        <time>2022-09-30T09:47:28Z</time>
      </trkpt>
      <trkpt lat="46.89566" lon="6.92115">
        <ele>453.4</ele>
        <time>2022-09-30T09:47:29Z</time>
      </trkpt>
      <trkpt lat="46.89569" lon="6.92121">
        <ele>453.4</ele>
        <time>2022-09-30T09:47:30Z</time>
      </trkpt>
      <trkpt lat="46.89571" lon="6.92126">
        <ele>453.4</ele>
        <time>2022-09-30T09:47:31Z</time>
      </trkpt>
      <trkpt lat="46.89573" lon="6.92132">
        <ele>453.4</ele>
        <time>2022-09-30T09:47:32Z</time>
      </trkpt>
      <trkpt lat="46.89576" lon="6.92137">
        <ele>453.4</ele>
        <time>2022-09-30T09:47:33Z</time>
      </trkpt>
      <trkpt lat="46.89579" lon="6.92143">
        <ele>453.4</ele>
        <time>2022-09-30T09:47:34Z</time>
      </trkpt>
      <trkpt lat="46.89582" lon="6.92148">
        <ele>453.4</ele>
        <time>2022-09-30T09:47:35Z</time>
      </trkpt>
      <trkpt lat="46.89585" lon="6.92153">
        <ele>453.4</ele>
        <time>2022-09-30T09:47:36Z</time>
      </trkpt>
      <trkpt lat="46.89588" lon="6.92158">
        <ele>453.4</ele>
        <time>2022-09-30T09:47:37Z</time>
      </trkpt>
      <trkpt lat="46.89591" lon="6.92163">
        <ele>453.5</ele>
        <time>2022-09-30T09:47:38Z</time>
      </trkpt>
      <trkpt lat="46.89594" lon="6.92167">
        <ele>453.5</ele>
        <time>2022-09-30T09:47:39Z</time>
      </trkpt>
      <trkpt lat="46.89597" lon="6.92171">
        <ele>453.5</ele>
        <time>2022-09-30T09:47:40Z</time>
      </trkpt>
      <trkpt lat="46.896" lon="6.92176">
        <ele>453.5</ele>
        <time>2022-09-30T09:47:41Z</time>
      </trkpt>
      <trkpt lat="46.89603" lon="6.9218">
        <ele>453.5</ele>
        <time>2022-09-30T09:47:42Z</time>
      </trkpt>
      <trkpt lat="46.89606" lon="6.92185">
        <ele>453.5</ele>
        <time>2022-09-30T09:47:43Z</time>
      </trkpt>
      <trkpt lat="46.89609" lon="6.9219">
        <ele>453.6</ele>
        <time>2022-09-30T09:47:44Z</time>
      </trkpt>
      <trkpt lat="46.89613" lon="6.92196">
        <ele>453.6</ele>
        <time>2022-09-30T09:47:45Z</time>
      </trkpt>
      <trkpt lat="46.89616" lon="6.92201">
        <ele>453.7</ele>
        <time>2022-09-30T09:47:46Z</time>
      </trkpt>
      <trkpt lat="46.8962" lon="6.92205">
        <ele>453.7</ele>
        <time>2022-09-30T09:47:47Z</time>
      </trkpt>
      <trkpt lat="46.89623" lon="6.9221">
        <ele>453.7</ele>
        <time>2022-09-30T09:47:48Z</time>
      </trkpt>
      <trkpt lat="46.89627" lon="6.92214">
        <ele>453.7</ele>
        <time>2022-09-30T09:47:49Z</time>
      </trkpt>
      <trkpt lat="46.8963" lon="6.92218">
        <ele>453.8</ele>
        <time>2022-09-30T09:47:50Z</time>
      </trkpt>
      <trkpt lat="46.89634" lon="6.92223">
        <ele>453.8</ele>
        <time>2022-09-30T09:47:51Z</time>
      </trkpt>
      <trkpt lat="46.89637" lon="6.92228">
        <ele>453.8</ele>
        <time>2022-09-30T09:47:52Z</time>
      </trkpt>
      <trkpt lat="46.8964" lon="6.92231">
        <ele>453.9</ele>
        <time>2022-09-30T09:47:53Z</time>
      </trkpt>
      <trkpt lat="46.89642" lon="6.92236">
        <ele>453.9</ele>
        <time>2022-09-30T09:47:54Z</time>
      </trkpt>
      <trkpt lat="46.89645" lon="6.9224">
        <ele>453.9</ele>
        <time>2022-09-30T09:47:55Z</time>
      </trkpt>
      <trkpt lat="46.89648" lon="6.92245">
        <ele>453.9</ele>
        <time>2022-09-30T09:47:56Z</time>
      </trkpt>
      <trkpt lat="46.89651" lon="6.92249">
        <ele>453.9</ele>
        <time>2022-09-30T09:47:57Z</time>
      </trkpt>
      <trkpt lat="46.89654" lon="6.92253">
        <ele>453.9</ele>
        <time>2022-09-30T09:47:58Z</time>
      </trkpt>
      <trkpt lat="46.89657" lon="6.92257">
        <ele>453.9</ele>
        <time>2022-09-30T09:47:59Z</time>
      </trkpt>
      <trkpt lat="46.8966" lon="6.92261">
        <ele>453.9</ele>
        <time>2022-09-30T09:48:00Z</time>
      </trkpt>
      <trkpt lat="46.89663" lon="6.92266">
        <ele>453.9</ele>
        <time>2022-09-30T09:48:01Z</time>
      </trkpt>
      <trkpt lat="46.89666" lon="6.92271">
        <ele>453.8</ele>
        <time>2022-09-30T09:48:02Z</time>
      </trkpt>
      <trkpt lat="46.89669" lon="6.92276">
        <ele>453.8</ele>
        <time>2022-09-30T09:48:03Z</time>
      </trkpt>
      <trkpt lat="46.89672" lon="6.92281">
        <ele>453.7</ele>
        <time>2022-09-30T09:48:04Z</time>
      </trkpt>
      <trkpt lat="46.89675" lon="6.92286">
        <ele>453.7</ele>
        <time>2022-09-30T09:48:05Z</time>
      </trkpt>
      <trkpt lat="46.89678" lon="6.92291">
        <ele>453.7</ele>
        <time>2022-09-30T09:48:06Z</time>
      </trkpt>
      <trkpt lat="46.89681" lon="6.92296">
        <ele>453.6</ele>
        <time>2022-09-30T09:48:07Z</time>
      </trkpt>
      <trkpt lat="46.89684" lon="6.923">
        <ele>453.6</ele>
        <time>2022-09-30T09:48:08Z</time>
      </trkpt>
      <trkpt lat="46.89687" lon="6.92306">
        <ele>453.6</ele>
        <time>2022-09-30T09:48:09Z</time>
      </trkpt>
      <trkpt lat="46.8969" lon="6.92311">
        <ele>453.6</ele>
        <time>2022-09-30T09:48:10Z</time>
      </trkpt>
      <trkpt lat="46.89692" lon="6.92316">
        <ele>453.6</ele>
        <time>2022-09-30T09:48:11Z</time>
      </trkpt>
      <trkpt lat="46.89695" lon="6.92321">
        <ele>453.5</ele>
        <time>2022-09-30T09:48:12Z</time>
      </trkpt>
      <trkpt lat="46.89699" lon="6.92326">
        <ele>453.5</ele>
        <time>2022-09-30T09:48:13Z</time>
      </trkpt>
      <trkpt lat="46.89701" lon="6.92331">
        <ele>453.5</ele>
        <time>2022-09-30T09:48:14Z</time>
      </trkpt>
      <trkpt lat="46.89703" lon="6.92337">
        <ele>453.5</ele>
        <time>2022-09-30T09:48:15Z</time>
      </trkpt>
      <trkpt lat="46.89706" lon="6.92342">
        <ele>453.4</ele>
        <time>2022-09-30T09:48:16Z</time>
      </trkpt>
      <trkpt lat="46.89709" lon="6.92347">
        <ele>453.4</ele>
        <time>2022-09-30T09:48:17Z</time>
      </trkpt>
      <trkpt lat="46.89712" lon="6.9235">
        <ele>453.4</ele>
        <time>2022-09-30T09:48:18Z</time>
      </trkpt>
      <trkpt lat="46.89715" lon="6.92354">
        <ele>453.4</ele>
        <time>2022-09-30T09:48:19Z</time>
      </trkpt>
      <trkpt lat="46.89718" lon="6.92358">
        <ele>453.3</ele>
        <time>2022-09-30T09:48:20Z</time>
      </trkpt>
      <trkpt lat="46.8972" lon="6.92362">
        <ele>453.3</ele>
        <time>2022-09-30T09:48:21Z</time>
      </trkpt>
      <trkpt lat="46.89723" lon="6.92367">
        <ele>453.2</ele>
        <time>2022-09-30T09:48:22Z</time>
      </trkpt>
      <trkpt lat="46.89726" lon="6.92372">
        <ele>453.2</ele>
        <time>2022-09-30T09:48:23Z</time>
      </trkpt>
      <trkpt lat="46.89729" lon="6.92377">
        <ele>453.1</ele>
        <time>2022-09-30T09:48:24Z</time>
      </trkpt>
      <trkpt lat="46.89732" lon="6.92383">
        <ele>453.1</ele>
        <time>2022-09-30T09:48:25Z</time>
      </trkpt>
      <trkpt lat="46.89735" lon="6.92388">
        <ele>453</ele>
        <time>2022-09-30T09:48:26Z</time>
      </trkpt>
      <trkpt lat="46.89738" lon="6.92393">
        <ele>453</ele>
        <time>2022-09-30T09:48:27Z</time>
      </trkpt>
      <trkpt lat="46.89741" lon="6.92398">
        <ele>452.9</ele>
        <time>2022-09-30T09:48:28Z</time>
      </trkpt>
      <trkpt lat="46.89744" lon="6.92403">
        <ele>452.9</ele>
        <time>2022-09-30T09:48:29Z</time>
      </trkpt>
      <trkpt lat="46.89748" lon="6.92409">
        <ele>452.8</ele>
        <time>2022-09-30T09:48:30Z</time>
      </trkpt>
      <trkpt lat="46.89751" lon="6.92414">
        <ele>452.8</ele>
        <time>2022-09-30T09:48:31Z</time>
      </trkpt>
      <trkpt lat="46.89755" lon="6.9242">
        <ele>452.7</ele>
        <time>2022-09-30T09:48:32Z</time>
      </trkpt>
      <trkpt lat="46.89758" lon="6.92426">
        <ele>452.6</ele>
        <time>2022-09-30T09:48:33Z</time>
      </trkpt>
      <trkpt lat="46.89762" lon="6.92431">
        <ele>452.5</ele>
        <time>2022-09-30T09:48:34Z</time>
      </trkpt>
      <trkpt lat="46.89765" lon="6.92438">
        <ele>452.4</ele>
        <time>2022-09-30T09:48:35Z</time>
      </trkpt>
      <trkpt lat="46.89768" lon="6.92443">
        <ele>452.3</ele>
        <time>2022-09-30T09:48:36Z</time>
      </trkpt>
      <trkpt lat="46.89771" lon="6.9245">
        <ele>452.3</ele>
        <time>2022-09-30T09:48:37Z</time>
      </trkpt>
      <trkpt lat="46.89775" lon="6.92456">
        <ele>452.1</ele>
        <time>2022-09-30T09:48:38Z</time>
      </trkpt>
      <trkpt lat="46.89778" lon="6.92464">
        <ele>452</ele>
        <time>2022-09-30T09:48:39Z</time>
      </trkpt>
      <trkpt lat="46.89782" lon="6.9247">
        <ele>451.8</ele>
        <time>2022-09-30T09:48:40Z</time>
      </trkpt>
      <trkpt lat="46.89785" lon="6.92477">
        <ele>451.7</ele>
        <time>2022-09-30T09:48:41Z</time>
      </trkpt>
      <trkpt lat="46.89787" lon="6.92484">
        <ele>451.5</ele>
        <time>2022-09-30T09:48:42Z</time>
      </trkpt>
      <trkpt lat="46.8979" lon="6.92491">
        <ele>451.4</ele>
        <time>2022-09-30T09:48:43Z</time>
      </trkpt>
      <trkpt lat="46.89793" lon="6.92499">
        <ele>451.3</ele>
        <time>2022-09-30T09:48:45Z</time>
      </trkpt>
      <trkpt lat="46.89796" lon="6.92506">
        <ele>451.1</ele>
        <time>2022-09-30T09:48:46Z</time>
      </trkpt>
      <trkpt lat="46.89799" lon="6.92513">
        <ele>450.9</ele>
        <time>2022-09-30T09:48:47Z</time>
      </trkpt>
      <trkpt lat="46.89807" lon="6.92526">
        <ele>450.6</ele>
        <time>2022-09-30T09:48:48Z</time>
      </trkpt>
      <trkpt lat="46.8981" lon="6.92533">
        <ele>450.4</ele>
        <time>2022-09-30T09:48:49Z</time>
      </trkpt>
      <trkpt lat="46.89813" lon="6.92539">
        <ele>450.1</ele>
        <time>2022-09-30T09:48:50Z</time>
      </trkpt>
      <trkpt lat="46.89815" lon="6.92545">
        <ele>450</ele>
        <time>2022-09-30T09:48:51Z</time>
      </trkpt>
      <trkpt lat="46.89818" lon="6.92549">
        <ele>449.8</ele>
        <time>2022-09-30T09:48:52Z</time>
      </trkpt>
      <trkpt lat="46.89819" lon="6.92553">
        <ele>449.6</ele>
        <time>2022-09-30T09:48:53Z</time>
      </trkpt>
      <trkpt lat="46.89822" lon="6.92556">
        <ele>449.4</ele>
        <time>2022-09-30T09:48:55Z</time>
      </trkpt>
      <trkpt lat="46.89826" lon="6.92564">
        <ele>448.9</ele>
        <time>2022-09-30T09:48:56Z</time>
      </trkpt>
      <trkpt lat="46.89828" lon="6.92567">
        <ele>448.7</ele>
        <time>2022-09-30T09:48:57Z</time>
      </trkpt>
      <trkpt lat="46.89831" lon="6.92571">
        <ele>448.4</ele>
        <time>2022-09-30T09:48:58Z</time>
      </trkpt>
      <trkpt lat="46.89834" lon="6.92575">
        <ele>448.1</ele>
        <time>2022-09-30T09:48:59Z</time>
      </trkpt>
      <trkpt lat="46.89837" lon="6.9258">
        <ele>447.7</ele>
        <time>2022-09-30T09:49:00Z</time>
      </trkpt>
      <trkpt lat="46.89841" lon="6.92584">
        <ele>447.2</ele>
        <time>2022-09-30T09:49:01Z</time>
      </trkpt>
      <trkpt lat="46.89844" lon="6.92588">
        <ele>446.8</ele>
        <time>2022-09-30T09:49:02Z</time>
      </trkpt>
      <trkpt lat="46.89848" lon="6.9259">
        <ele>446.2</ele>
        <time>2022-09-30T09:49:03Z</time>
      </trkpt>
      <trkpt lat="46.89852" lon="6.92593">
        <ele>445.7</ele>
        <time>2022-09-30T09:49:04Z</time>
      </trkpt>
      <trkpt lat="46.89855" lon="6.92602">
        <ele>444.8</ele>
        <time>2022-09-30T09:49:05Z</time>
      </trkpt>
      <trkpt lat="46.89859" lon="6.92606">
        <ele>444.1</ele>
        <time>2022-09-30T09:49:06Z</time>
      </trkpt>
      <trkpt lat="46.89864" lon="6.92611">
        <ele>443.4</ele>
        <time>2022-09-30T09:49:07Z</time>
      </trkpt>
      <trkpt lat="46.89869" lon="6.92615">
        <ele>442.6</ele>
        <time>2022-09-30T09:49:08Z</time>
      </trkpt>
      <trkpt lat="46.89874" lon="6.92619">
        <ele>441.8</ele>
        <time>2022-09-30T09:49:09Z</time>
      </trkpt>
      <trkpt lat="46.8988" lon="6.92623">
        <ele>440.9</ele>
        <time>2022-09-30T09:49:10Z</time>
      </trkpt>
      <trkpt lat="46.89886" lon="6.92628">
        <ele>440</ele>
        <time>2022-09-30T09:49:11Z</time>
      </trkpt>
      <trkpt lat="46.89892" lon="6.92633">
        <ele>439.2</ele>
        <time>2022-09-30T09:49:12Z</time>
      </trkpt>
      <trkpt lat="46.89896" lon="6.92637">
        <ele>438.6</ele>
        <time>2022-09-30T09:49:13Z</time>
      </trkpt>
      <trkpt lat="46.89901" lon="6.9264">
        <ele>438.2</ele>
        <time>2022-09-30T09:49:14Z</time>
      </trkpt>
      <trkpt lat="46.89906" lon="6.92645">
        <ele>437.6</ele>
        <time>2022-09-30T09:49:15Z</time>
      </trkpt>
      <trkpt lat="46.89911" lon="6.92649">
        <ele>437.3</ele>
        <time>2022-09-30T09:49:16Z</time>
      </trkpt>
      <trkpt lat="46.89916" lon="6.92652">
        <ele>437</ele>
        <time>2022-09-30T09:49:17Z</time>
      </trkpt>
      <trkpt lat="46.89921" lon="6.92656">
        <ele>436.7</ele>
        <time>2022-09-30T09:49:18Z</time>
      </trkpt>
      <trkpt lat="46.89925" lon="6.92659">
        <ele>436.5</ele>
        <time>2022-09-30T09:49:19Z</time>
      </trkpt>
      <trkpt lat="46.8993" lon="6.92662">
        <ele>436.2</ele>
        <time>2022-09-30T09:49:20Z</time>
      </trkpt>
      <trkpt lat="46.89936" lon="6.92663">
        <ele>436.1</ele>
        <time>2022-09-30T09:49:21Z</time>
      </trkpt>
      <trkpt lat="46.89945" lon="6.92667">
        <ele>435.8</ele>
        <time>2022-09-30T09:49:22Z</time>
      </trkpt>
      <trkpt lat="46.89951" lon="6.9267">
        <ele>435.6</ele>
        <time>2022-09-30T09:49:23Z</time>
      </trkpt>
      <trkpt lat="46.89957" lon="6.92674">
        <ele>435.5</ele>
        <time>2022-09-30T09:49:24Z</time>
      </trkpt>
      <trkpt lat="46.89962" lon="6.92679">
        <ele>435.4</ele>
        <time>2022-09-30T09:49:25Z</time>
      </trkpt>
      <trkpt lat="46.89966" lon="6.92683">
        <ele>435.3</ele>
        <time>2022-09-30T09:49:26Z</time>
      </trkpt>
      <trkpt lat="46.89969" lon="6.92689">
        <ele>435.3</ele>
        <time>2022-09-30T09:49:27Z</time>
      </trkpt>
      <trkpt lat="46.89973" lon="6.92696">
        <ele>435.3</ele>
        <time>2022-09-30T09:49:28Z</time>
      </trkpt>
      <trkpt lat="46.89976" lon="6.92702">
        <ele>435.3</ele>
        <time>2022-09-30T09:49:29Z</time>
      </trkpt>
      <trkpt lat="46.89979" lon="6.92707">
        <ele>435.3</ele>
        <time>2022-09-30T09:49:30Z</time>
      </trkpt>
      <trkpt lat="46.89983" lon="6.92713">
        <ele>435.4</ele>
        <time>2022-09-30T09:49:31Z</time>
      </trkpt>
      <trkpt lat="46.89987" lon="6.92719">
        <ele>435.4</ele>
        <time>2022-09-30T09:49:32Z</time>
      </trkpt>
      <trkpt lat="46.8999" lon="6.92724">
        <ele>435.4</ele>
        <time>2022-09-30T09:49:33Z</time>
      </trkpt>
      <trkpt lat="46.89992" lon="6.92729">
        <ele>435.5</ele>
        <time>2022-09-30T09:49:34Z</time>
      </trkpt>
      <trkpt lat="46.89995" lon="6.92735">
        <ele>435.5</ele>
        <time>2022-09-30T09:49:35Z</time>
      </trkpt>
      <trkpt lat="46.89998" lon="6.92742">
        <ele>435.5</ele>
        <time>2022-09-30T09:49:36Z</time>
      </trkpt>
      <trkpt lat="46.90002" lon="6.92748">
        <ele>435.5</ele>
        <time>2022-09-30T09:49:37Z</time>
      </trkpt>
      <trkpt lat="46.90005" lon="6.92754">
        <ele>435.6</ele>
        <time>2022-09-30T09:49:38Z</time>
      </trkpt>
      <trkpt lat="46.90008" lon="6.9276">
        <ele>435.6</ele>
        <time>2022-09-30T09:49:39Z</time>
      </trkpt>
      <trkpt lat="46.90012" lon="6.92767">
        <ele>435.6</ele>
        <time>2022-09-30T09:49:40Z</time>
      </trkpt>
      <trkpt lat="46.90015" lon="6.92773">
        <ele>435.6</ele>
        <time>2022-09-30T09:49:41Z</time>
      </trkpt>
      <trkpt lat="46.90019" lon="6.92779">
        <ele>435.6</ele>
        <time>2022-09-30T09:49:42Z</time>
      </trkpt>
      <trkpt lat="46.90021" lon="6.92785">
        <ele>435.6</ele>
        <time>2022-09-30T09:49:43Z</time>
      </trkpt>
      <trkpt lat="46.90025" lon="6.92791">
        <ele>435.6</ele>
        <time>2022-09-30T09:49:44Z</time>
      </trkpt>
      <trkpt lat="46.90028" lon="6.92797">
        <ele>435.7</ele>
        <time>2022-09-30T09:49:45Z</time>
      </trkpt>
      <trkpt lat="46.90031" lon="6.92803">
        <ele>435.7</ele>
        <time>2022-09-30T09:49:46Z</time>
      </trkpt>
      <trkpt lat="46.90034" lon="6.92811">
        <ele>435.7</ele>
        <time>2022-09-30T09:49:47Z</time>
      </trkpt>
      <trkpt lat="46.90037" lon="6.92816">
        <ele>435.7</ele>
        <time>2022-09-30T09:49:48Z</time>
      </trkpt>
      <trkpt lat="46.90039" lon="6.92822">
        <ele>435.7</ele>
        <time>2022-09-30T09:49:49Z</time>
      </trkpt>
      <trkpt lat="46.90042" lon="6.92829">
        <ele>435.7</ele>
        <time>2022-09-30T09:49:50Z</time>
      </trkpt>
      <trkpt lat="46.90045" lon="6.92835">
        <ele>435.8</ele>
        <time>2022-09-30T09:49:51Z</time>
      </trkpt>
      <trkpt lat="46.90048" lon="6.92841">
        <ele>435.8</ele>
        <time>2022-09-30T09:49:52Z</time>
      </trkpt>
      <trkpt lat="46.90051" lon="6.92847">
        <ele>435.8</ele>
        <time>2022-09-30T09:49:53Z</time>
      </trkpt>
      <trkpt lat="46.90054" lon="6.92852">
        <ele>435.7</ele>
        <time>2022-09-30T09:49:54Z</time>
      </trkpt>
      <trkpt lat="46.90056" lon="6.92858">
        <ele>435.7</ele>
        <time>2022-09-30T09:49:55Z</time>
      </trkpt>
      <trkpt lat="46.90059" lon="6.92861">
        <ele>435.7</ele>
        <time>2022-09-30T09:49:56Z</time>
      </trkpt>
      <trkpt lat="46.90061" lon="6.92864">
        <ele>435.7</ele>
        <time>2022-09-30T09:49:57Z</time>
      </trkpt>
      <trkpt lat="46.90063" lon="6.92869">
        <ele>435.7</ele>
        <time>2022-09-30T09:49:58Z</time>
      </trkpt>
      <trkpt lat="46.90064" lon="6.92875">
        <ele>435.8</ele>
        <time>2022-09-30T09:49:59Z</time>
      </trkpt>
      <trkpt lat="46.90064" lon="6.92882">
        <ele>435.9</ele>
        <time>2022-09-30T09:50:00Z</time>
      </trkpt>
      <trkpt lat="46.90065" lon="6.92886">
        <ele>435.9</ele>
        <time>2022-09-30T09:50:01Z</time>
      </trkpt>
      <trkpt lat="46.90066" lon="6.92892">
        <ele>436</ele>
        <time>2022-09-30T09:50:02Z</time>
      </trkpt>
      <trkpt lat="46.90066" lon="6.92894">
        <ele>436.1</ele>
        <time>2022-09-30T09:50:03Z</time>
      </trkpt>
      <trkpt lat="46.90067" lon="6.92899">
        <ele>436.2</ele>
        <time>2022-09-30T09:50:04Z</time>
      </trkpt>
      <trkpt lat="46.90067" lon="6.92901">
        <ele>436.3</ele>
        <time>2022-09-30T09:50:05Z</time>
      </trkpt>
      <trkpt lat="46.90068" lon="6.92905">
        <ele>436.3</ele>
        <time>2022-09-30T09:50:06Z</time>
      </trkpt>
      <trkpt lat="46.90068" lon="6.92907">
        <ele>436.4</ele>
        <time>2022-09-30T09:50:07Z</time>
      </trkpt>
      <trkpt lat="46.90069" lon="6.9291">
        <ele>436.4</ele>
        <time>2022-09-30T09:50:08Z</time>
      </trkpt>
      <trkpt lat="46.9007" lon="6.92911">
        <ele>436.5</ele>
        <time>2022-09-30T09:50:09Z</time>
      </trkpt>
      <trkpt lat="46.90071" lon="6.92915">
        <ele>436.6</ele>
        <time>2022-09-30T09:50:10Z</time>
      </trkpt>
      <trkpt lat="46.90072" lon="6.92916">
        <ele>436.6</ele>
        <time>2022-09-30T09:50:11Z</time>
      </trkpt>
      <trkpt lat="46.90075" lon="6.92915">
        <ele>436.4</ele>
        <time>2022-09-30T09:50:12Z</time>
      </trkpt>
      <trkpt lat="46.90076" lon="6.92913">
        <ele>436.3</ele>
        <time>2022-09-30T09:50:13Z</time>
      </trkpt>
      <trkpt lat="46.90077" lon="6.92911">
        <ele>436.3</ele>
        <time>2022-09-30T09:50:14Z</time>
      </trkpt>
      <trkpt lat="46.90078" lon="6.92909">
        <ele>436.2</ele>
        <time>2022-09-30T09:50:15Z</time>
      </trkpt>
      <trkpt lat="46.90081" lon="6.92906">
        <ele>436.1</ele>
        <time>2022-09-30T09:50:16Z</time>
      </trkpt>
      <trkpt lat="46.90084" lon="6.92902">
        <ele>435.9</ele>
        <time>2022-09-30T09:50:17Z</time>
      </trkpt>
      <trkpt lat="46.90088" lon="6.92898">
        <ele>435.7</ele>
        <time>2022-09-30T09:50:18Z</time>
      </trkpt>
      <trkpt lat="46.90091" lon="6.92894">
        <ele>435.5</ele>
        <time>2022-09-30T09:50:19Z</time>
      </trkpt>
      <trkpt lat="46.90094" lon="6.9289">
        <ele>435.4</ele>
        <time>2022-09-30T09:50:20Z</time>
      </trkpt>
      <trkpt lat="46.90098" lon="6.92884">
        <ele>435.2</ele>
        <time>2022-09-30T09:50:21Z</time>
      </trkpt>
      <trkpt lat="46.90101" lon="6.9288">
        <ele>435</ele>
        <time>2022-09-30T09:50:22Z</time>
      </trkpt>
      <trkpt lat="46.90104" lon="6.92874">
        <ele>434.8</ele>
        <time>2022-09-30T09:50:23Z</time>
      </trkpt>
      <trkpt lat="46.90107" lon="6.9287">
        <ele>434.7</ele>
        <time>2022-09-30T09:50:24Z</time>
      </trkpt>
      <trkpt lat="46.90111" lon="6.92864">
        <ele>434.5</ele>
        <time>2022-09-30T09:50:25Z</time>
      </trkpt>
      <trkpt lat="46.90117" lon="6.92858">
        <ele>434.2</ele>
        <time>2022-09-30T09:50:26Z</time>
      </trkpt>
      <trkpt lat="46.90121" lon="6.92852">
        <ele>434</ele>
        <time>2022-09-30T09:50:27Z</time>
      </trkpt>
      <trkpt lat="46.90126" lon="6.92845">
        <ele>433.8</ele>
        <time>2022-09-30T09:50:28Z</time>
      </trkpt>
      <trkpt lat="46.9013" lon="6.92839">
        <ele>433.5</ele>
        <time>2022-09-30T09:50:29Z</time>
      </trkpt>
      <trkpt lat="46.90136" lon="6.92832">
        <ele>433.3</ele>
        <time>2022-09-30T09:50:30Z</time>
      </trkpt>
      <trkpt lat="46.9014" lon="6.92827">
        <ele>433.1</ele>
        <time>2022-09-30T09:50:31Z</time>
      </trkpt>
      <trkpt lat="46.90144" lon="6.92821">
        <ele>432.9</ele>
        <time>2022-09-30T09:50:32Z</time>
      </trkpt>
      <trkpt lat="46.90149" lon="6.92814">
        <ele>432.7</ele>
        <time>2022-09-30T09:50:33Z</time>
      </trkpt>
      <trkpt lat="46.90155" lon="6.92808">
        <ele>432.5</ele>
        <time>2022-09-30T09:50:34Z</time>
      </trkpt>
      <trkpt lat="46.90159" lon="6.928">
        <ele>432.3</ele>
        <time>2022-09-30T09:50:35Z</time>
      </trkpt>
      <trkpt lat="46.90164" lon="6.92794">
        <ele>432.1</ele>
        <time>2022-09-30T09:50:36Z</time>
      </trkpt>
      <trkpt lat="46.90169" lon="6.92787">
        <ele>431.9</ele>
        <time>2022-09-30T09:50:37Z</time>
      </trkpt>
      <trkpt lat="46.90174" lon="6.9278">
        <ele>431.7</ele>
        <time>2022-09-30T09:50:38Z</time>
      </trkpt>
      <trkpt lat="46.90179" lon="6.92773">
        <ele>431.6</ele>
        <time>2022-09-30T09:50:39Z</time>
      </trkpt>
      <trkpt lat="46.90184" lon="6.92767">
        <ele>431.4</ele>
        <time>2022-09-30T09:50:40Z</time>
      </trkpt>
      <trkpt lat="46.90188" lon="6.92761">
        <ele>431.3</ele>
        <time>2022-09-30T09:50:41Z</time>
      </trkpt>
      <trkpt lat="46.90192" lon="6.92754">
        <ele>431.3</ele>
        <time>2022-09-30T09:50:42Z</time>
      </trkpt>
      <trkpt lat="46.90197" lon="6.92748">
        <ele>431.2</ele>
        <time>2022-09-30T09:50:43Z</time>
      </trkpt>
      <trkpt lat="46.902" lon="6.92742">
        <ele>431.2</ele>
        <time>2022-09-30T09:50:44Z</time>
      </trkpt>
      <trkpt lat="46.90204" lon="6.92737">
        <ele>431.1</ele>
        <time>2022-09-30T09:50:45Z</time>
      </trkpt>
      <trkpt lat="46.90208" lon="6.92733">
        <ele>431.1</ele>
        <time>2022-09-30T09:50:46Z</time>
      </trkpt>
      <trkpt lat="46.90212" lon="6.92731">
        <ele>431.1</ele>
        <time>2022-09-30T09:50:47Z</time>
      </trkpt>
      <trkpt lat="46.90218" lon="6.92729">
        <ele>431.2</ele>
        <time>2022-09-30T09:50:48Z</time>
      </trkpt>
      <trkpt lat="46.90224" lon="6.92728">
        <ele>431.2</ele>
        <time>2022-09-30T09:50:49Z</time>
      </trkpt>
      <trkpt lat="46.90229" lon="6.92728">
        <ele>431.2</ele>
        <time>2022-09-30T09:50:51Z</time>
      </trkpt>
      <trkpt lat="46.90234" lon="6.9273">
        <ele>431.2</ele>
        <time>2022-09-30T09:50:52Z</time>
      </trkpt>
      <trkpt lat="46.9024" lon="6.92733">
        <ele>431.2</ele>
        <time>2022-09-30T09:50:53Z</time>
      </trkpt>
      <trkpt lat="46.90245" lon="6.92737">
        <ele>431.2</ele>
        <time>2022-09-30T09:50:54Z</time>
      </trkpt>
      <trkpt lat="46.90249" lon="6.92741">
        <ele>431.2</ele>
        <time>2022-09-30T09:50:55Z</time>
      </trkpt>
      <trkpt lat="46.90251" lon="6.92747">
        <ele>431.2</ele>
        <time>2022-09-30T09:50:56Z</time>
      </trkpt>
      <trkpt lat="46.90256" lon="6.92753">
        <ele>431.3</ele>
        <time>2022-09-30T09:50:57Z</time>
      </trkpt>
      <trkpt lat="46.90258" lon="6.92762">
        <ele>431.2</ele>
        <time>2022-09-30T09:50:58Z</time>
      </trkpt>
      <trkpt lat="46.90262" lon="6.92767">
        <ele>431.2</ele>
        <time>2022-09-30T09:50:59Z</time>
      </trkpt>
      <trkpt lat="46.90266" lon="6.92773">
        <ele>431.2</ele>
        <time>2022-09-30T09:51:00Z</time>
      </trkpt>
      <trkpt lat="46.9027" lon="6.92777">
        <ele>431.2</ele>
        <time>2022-09-30T09:51:01Z</time>
      </trkpt>
      <trkpt lat="46.90274" lon="6.92782">
        <ele>431.1</ele>
        <time>2022-09-30T09:51:02Z</time>
      </trkpt>
      <trkpt lat="46.90279" lon="6.92787">
        <ele>431.1</ele>
        <time>2022-09-30T09:51:03Z</time>
      </trkpt>
      <trkpt lat="46.90283" lon="6.92792">
        <ele>431.1</ele>
        <time>2022-09-30T09:51:04Z</time>
      </trkpt>
      <trkpt lat="46.90287" lon="6.92798">
        <ele>431.1</ele>
        <time>2022-09-30T09:51:05Z</time>
      </trkpt>
      <trkpt lat="46.90291" lon="6.92804">
        <ele>431.1</ele>
        <time>2022-09-30T09:51:06Z</time>
      </trkpt>
      <trkpt lat="46.90294" lon="6.92809">
        <ele>431.1</ele>
        <time>2022-09-30T09:51:07Z</time>
      </trkpt>
      <trkpt lat="46.90299" lon="6.92814">
        <ele>431.1</ele>
        <time>2022-09-30T09:51:08Z</time>
      </trkpt>
      <trkpt lat="46.90303" lon="6.92817">
        <ele>431.1</ele>
        <time>2022-09-30T09:51:09Z</time>
      </trkpt>
      <trkpt lat="46.90305" lon="6.92821">
        <ele>431.1</ele>
        <time>2022-09-30T09:51:10Z</time>
      </trkpt>
      <trkpt lat="46.9031" lon="6.92826">
        <ele>431.1</ele>
        <time>2022-09-30T09:51:11Z</time>
      </trkpt>
      <trkpt lat="46.90314" lon="6.92832">
        <ele>431.1</ele>
        <time>2022-09-30T09:51:12Z</time>
      </trkpt>
      <trkpt lat="46.90316" lon="6.92836">
        <ele>431.1</ele>
        <time>2022-09-30T09:51:13Z</time>
      </trkpt>
      <trkpt lat="46.9032" lon="6.9284">
        <ele>431.1</ele>
        <time>2022-09-30T09:51:14Z</time>
      </trkpt>
      <trkpt lat="46.90324" lon="6.92845">
        <ele>431</ele>
        <time>2022-09-30T09:51:15Z</time>
      </trkpt>
      <trkpt lat="46.90327" lon="6.9285">
        <ele>431</ele>
        <time>2022-09-30T09:51:16Z</time>
      </trkpt>
      <trkpt lat="46.90331" lon="6.92854">
        <ele>431</ele>
        <time>2022-09-30T09:51:17Z</time>
      </trkpt>
      <trkpt lat="46.90338" lon="6.92864">
        <ele>431</ele>
        <time>2022-09-30T09:51:18Z</time>
      </trkpt>
      <trkpt lat="46.90341" lon="6.9287">
        <ele>431.1</ele>
        <time>2022-09-30T09:51:19Z</time>
      </trkpt>
      <trkpt lat="46.90345" lon="6.92876">
        <ele>431.1</ele>
        <time>2022-09-30T09:51:20Z</time>
      </trkpt>
      <trkpt lat="46.90348" lon="6.9288">
        <ele>431.1</ele>
        <time>2022-09-30T09:51:21Z</time>
      </trkpt>
      <trkpt lat="46.90351" lon="6.92885">
        <ele>431.1</ele>
        <time>2022-09-30T09:51:22Z</time>
      </trkpt>
      <trkpt lat="46.90355" lon="6.9289">
        <ele>431.2</ele>
        <time>2022-09-30T09:51:23Z</time>
      </trkpt>
      <trkpt lat="46.90359" lon="6.92894">
        <ele>431.2</ele>
        <time>2022-09-30T09:51:24Z</time>
      </trkpt>
      <trkpt lat="46.90361" lon="6.929">
        <ele>431.2</ele>
        <time>2022-09-30T09:51:25Z</time>
      </trkpt>
      <trkpt lat="46.90365" lon="6.92905">
        <ele>431.2</ele>
        <time>2022-09-30T09:51:26Z</time>
      </trkpt>
      <trkpt lat="46.90368" lon="6.92908">
        <ele>431.3</ele>
        <time>2022-09-30T09:51:27Z</time>
      </trkpt>
      <trkpt lat="46.90371" lon="6.92912">
        <ele>431.3</ele>
        <time>2022-09-30T09:51:28Z</time>
      </trkpt>
      <trkpt lat="46.90374" lon="6.92917">
        <ele>431.3</ele>
        <time>2022-09-30T09:51:29Z</time>
      </trkpt>
      <trkpt lat="46.90377" lon="6.9292">
        <ele>431.3</ele>
        <time>2022-09-30T09:51:30Z</time>
      </trkpt>
      <trkpt lat="46.9038" lon="6.92925">
        <ele>431.3</ele>
        <time>2022-09-30T09:51:31Z</time>
      </trkpt>
      <trkpt lat="46.90383" lon="6.92929">
        <ele>431.4</ele>
        <time>2022-09-30T09:51:32Z</time>
      </trkpt>
      <trkpt lat="46.90387" lon="6.92932">
        <ele>431.4</ele>
        <time>2022-09-30T09:51:33Z</time>
      </trkpt>
      <trkpt lat="46.9039" lon="6.92936">
        <ele>431.4</ele>
        <time>2022-09-30T09:51:34Z</time>
      </trkpt>
      <trkpt lat="46.90393" lon="6.92941">
        <ele>431.4</ele>
        <time>2022-09-30T09:51:35Z</time>
      </trkpt>
      <trkpt lat="46.90396" lon="6.92946">
        <ele>431.4</ele>
        <time>2022-09-30T09:51:36Z</time>
      </trkpt>
      <trkpt lat="46.90399" lon="6.92951">
        <ele>431.4</ele>
        <time>2022-09-30T09:51:37Z</time>
      </trkpt>
      <trkpt lat="46.90403" lon="6.92956">
        <ele>431.4</ele>
        <time>2022-09-30T09:51:38Z</time>
      </trkpt>
      <trkpt lat="46.90406" lon="6.92961">
        <ele>431.5</ele>
        <time>2022-09-30T09:51:39Z</time>
      </trkpt>
      <trkpt lat="46.9041" lon="6.92966">
        <ele>431.5</ele>
        <time>2022-09-30T09:51:40Z</time>
      </trkpt>
      <trkpt lat="46.90413" lon="6.92971">
        <ele>431.5</ele>
        <time>2022-09-30T09:51:41Z</time>
      </trkpt>
      <trkpt lat="46.90417" lon="6.92975">
        <ele>431.5</ele>
        <time>2022-09-30T09:51:42Z</time>
      </trkpt>
      <trkpt lat="46.9042" lon="6.9298">
        <ele>431.5</ele>
        <time>2022-09-30T09:51:43Z</time>
      </trkpt>
      <trkpt lat="46.90423" lon="6.92985">
        <ele>431.5</ele>
        <time>2022-09-30T09:51:44Z</time>
      </trkpt>
      <trkpt lat="46.90426" lon="6.9299">
        <ele>431.5</ele>
        <time>2022-09-30T09:51:45Z</time>
      </trkpt>
      <trkpt lat="46.9043" lon="6.92995">
        <ele>431.5</ele>
        <time>2022-09-30T09:51:46Z</time>
      </trkpt>
      <trkpt lat="46.90432" lon="6.93">
        <ele>431.5</ele>
        <time>2022-09-30T09:51:47Z</time>
      </trkpt>
      <trkpt lat="46.90434" lon="6.93005">
        <ele>431.5</ele>
        <time>2022-09-30T09:51:48Z</time>
      </trkpt>
      <trkpt lat="46.90438" lon="6.9301">
        <ele>431.5</ele>
        <time>2022-09-30T09:51:49Z</time>
      </trkpt>
      <trkpt lat="46.90441" lon="6.93015">
        <ele>431.5</ele>
        <time>2022-09-30T09:51:50Z</time>
      </trkpt>
      <trkpt lat="46.90444" lon="6.9302">
        <ele>431.5</ele>
        <time>2022-09-30T09:51:51Z</time>
      </trkpt>
      <trkpt lat="46.90447" lon="6.93025">
        <ele>431.5</ele>
        <time>2022-09-30T09:51:52Z</time>
      </trkpt>
      <trkpt lat="46.9045" lon="6.93031">
        <ele>431.5</ele>
        <time>2022-09-30T09:51:53Z</time>
      </trkpt>
      <trkpt lat="46.90453" lon="6.93036">
        <ele>431.5</ele>
        <time>2022-09-30T09:51:54Z</time>
      </trkpt>
      <trkpt lat="46.90455" lon="6.93041">
        <ele>431.5</ele>
        <time>2022-09-30T09:51:55Z</time>
      </trkpt>
      <trkpt lat="46.90457" lon="6.93046">
        <ele>431.5</ele>
        <time>2022-09-30T09:51:56Z</time>
      </trkpt>
      <trkpt lat="46.90461" lon="6.93051">
        <ele>431.4</ele>
        <time>2022-09-30T09:51:57Z</time>
      </trkpt>
      <trkpt lat="46.90464" lon="6.93057">
        <ele>431.4</ele>
        <time>2022-09-30T09:51:58Z</time>
      </trkpt>
      <trkpt lat="46.90467" lon="6.93062">
        <ele>431.4</ele>
        <time>2022-09-30T09:51:59Z</time>
      </trkpt>
      <trkpt lat="46.9047" lon="6.93067">
        <ele>431.4</ele>
        <time>2022-09-30T09:52:00Z</time>
      </trkpt>
      <trkpt lat="46.90473" lon="6.93073">
        <ele>431.4</ele>
        <time>2022-09-30T09:52:01Z</time>
      </trkpt>
      <trkpt lat="46.90476" lon="6.93079">
        <ele>431.4</ele>
        <time>2022-09-30T09:52:02Z</time>
      </trkpt>
      <trkpt lat="46.90479" lon="6.93085">
        <ele>431.4</ele>
        <time>2022-09-30T09:52:03Z</time>
      </trkpt>
      <trkpt lat="46.90482" lon="6.93091">
        <ele>431.4</ele>
        <time>2022-09-30T09:52:04Z</time>
      </trkpt>
      <trkpt lat="46.90484" lon="6.93097">
        <ele>431.4</ele>
        <time>2022-09-30T09:52:05Z</time>
      </trkpt>
      <trkpt lat="46.90487" lon="6.93103">
        <ele>431.4</ele>
        <time>2022-09-30T09:52:06Z</time>
      </trkpt>
      <trkpt lat="46.90489" lon="6.93109">
        <ele>431.4</ele>
        <time>2022-09-30T09:52:07Z</time>
      </trkpt>
      <trkpt lat="46.90492" lon="6.93114">
        <ele>431.4</ele>
        <time>2022-09-30T09:52:08Z</time>
      </trkpt>
      <trkpt lat="46.90495" lon="6.93118">
        <ele>431.4</ele>
        <time>2022-09-30T09:52:09Z</time>
      </trkpt>
      <trkpt lat="46.90497" lon="6.93123">
        <ele>431.4</ele>
        <time>2022-09-30T09:52:10Z</time>
      </trkpt>
      <trkpt lat="46.905" lon="6.93128">
        <ele>431.4</ele>
        <time>2022-09-30T09:52:11Z</time>
      </trkpt>
      <trkpt lat="46.90502" lon="6.93134">
        <ele>431.4</ele>
        <time>2022-09-30T09:52:12Z</time>
      </trkpt>
      <trkpt lat="46.90505" lon="6.93139">
        <ele>431.4</ele>
        <time>2022-09-30T09:52:13Z</time>
      </trkpt>
      <trkpt lat="46.90508" lon="6.93145">
        <ele>431.4</ele>
        <time>2022-09-30T09:52:14Z</time>
      </trkpt>
      <trkpt lat="46.90511" lon="6.9315">
        <ele>431.4</ele>
        <time>2022-09-30T09:52:15Z</time>
      </trkpt>
      <trkpt lat="46.90514" lon="6.93155">
        <ele>431.4</ele>
        <time>2022-09-30T09:52:16Z</time>
      </trkpt>
      <trkpt lat="46.90517" lon="6.93162">
        <ele>431.4</ele>
        <time>2022-09-30T09:52:17Z</time>
      </trkpt>
      <trkpt lat="46.90519" lon="6.93168">
        <ele>431.4</ele>
        <time>2022-09-30T09:52:18Z</time>
      </trkpt>
      <trkpt lat="46.90522" lon="6.93174">
        <ele>431.4</ele>
        <time>2022-09-30T09:52:19Z</time>
      </trkpt>
      <trkpt lat="46.90524" lon="6.9318">
        <ele>431.4</ele>
        <time>2022-09-30T09:52:20Z</time>
      </trkpt>
      <trkpt lat="46.90527" lon="6.93185">
        <ele>431.4</ele>
        <time>2022-09-30T09:52:21Z</time>
      </trkpt>
      <trkpt lat="46.9053" lon="6.9319">
        <ele>431.4</ele>
        <time>2022-09-30T09:52:22Z</time>
      </trkpt>
      <trkpt lat="46.90533" lon="6.93195">
        <ele>431.4</ele>
        <time>2022-09-30T09:52:23Z</time>
      </trkpt>
      <trkpt lat="46.90536" lon="6.932">
        <ele>431.4</ele>
        <time>2022-09-30T09:52:24Z</time>
      </trkpt>
      <trkpt lat="46.90538" lon="6.93207">
        <ele>431.4</ele>
        <time>2022-09-30T09:52:25Z</time>
      </trkpt>
      <trkpt lat="46.90541" lon="6.93212">
        <ele>431.4</ele>
        <time>2022-09-30T09:52:26Z</time>
      </trkpt>
      <trkpt lat="46.90544" lon="6.93216">
        <ele>431.4</ele>
        <time>2022-09-30T09:52:27Z</time>
      </trkpt>
      <trkpt lat="46.90546" lon="6.93221">
        <ele>431.4</ele>
        <time>2022-09-30T09:52:28Z</time>
      </trkpt>
      <trkpt lat="46.90549" lon="6.93226">
        <ele>431.5</ele>
        <time>2022-09-30T09:52:29Z</time>
      </trkpt>
      <trkpt lat="46.90552" lon="6.93231">
        <ele>431.5</ele>
        <time>2022-09-30T09:52:30Z</time>
      </trkpt>
      <trkpt lat="46.90554" lon="6.93235">
        <ele>431.5</ele>
        <time>2022-09-30T09:52:31Z</time>
      </trkpt>
      <trkpt lat="46.90556" lon="6.9324">
        <ele>431.5</ele>
        <time>2022-09-30T09:52:32Z</time>
      </trkpt>
      <trkpt lat="46.90558" lon="6.93246">
        <ele>431.5</ele>
        <time>2022-09-30T09:52:33Z</time>
      </trkpt>
      <trkpt lat="46.9056" lon="6.9325">
        <ele>431.5</ele>
        <time>2022-09-30T09:52:34Z</time>
      </trkpt>
      <trkpt lat="46.90563" lon="6.93254">
        <ele>431.5</ele>
        <time>2022-09-30T09:52:35Z</time>
      </trkpt>
      <trkpt lat="46.90566" lon="6.93258">
        <ele>431.5</ele>
        <time>2022-09-30T09:52:36Z</time>
      </trkpt>
      <trkpt lat="46.90568" lon="6.93263">
        <ele>431.5</ele>
        <time>2022-09-30T09:52:37Z</time>
      </trkpt>
      <trkpt lat="46.90571" lon="6.93268">
        <ele>431.5</ele>
        <time>2022-09-30T09:52:38Z</time>
      </trkpt>
      <trkpt lat="46.90573" lon="6.93274">
        <ele>431.5</ele>
        <time>2022-09-30T09:52:39Z</time>
      </trkpt>
      <trkpt lat="46.90576" lon="6.9328">
        <ele>431.5</ele>
        <time>2022-09-30T09:52:40Z</time>
      </trkpt>
      <trkpt lat="46.90578" lon="6.93285">
        <ele>431.4</ele>
        <time>2022-09-30T09:52:41Z</time>
      </trkpt>
      <trkpt lat="46.90581" lon="6.9329">
        <ele>431.4</ele>
        <time>2022-09-30T09:52:42Z</time>
      </trkpt>
      <trkpt lat="46.90583" lon="6.93295">
        <ele>431.4</ele>
        <time>2022-09-30T09:52:43Z</time>
      </trkpt>
      <trkpt lat="46.90586" lon="6.93301">
        <ele>431.4</ele>
        <time>2022-09-30T09:52:44Z</time>
      </trkpt>
      <trkpt lat="46.90589" lon="6.93306">
        <ele>431.4</ele>
        <time>2022-09-30T09:52:45Z</time>
      </trkpt>
      <trkpt lat="46.90591" lon="6.93311">
        <ele>431.4</ele>
        <time>2022-09-30T09:52:46Z</time>
      </trkpt>
      <trkpt lat="46.90594" lon="6.93316">
        <ele>431.3</ele>
        <time>2022-09-30T09:52:47Z</time>
      </trkpt>
      <trkpt lat="46.90597" lon="6.93322">
        <ele>431.3</ele>
        <time>2022-09-30T09:52:48Z</time>
      </trkpt>
      <trkpt lat="46.90599" lon="6.93328">
        <ele>431.3</ele>
        <time>2022-09-30T09:52:49Z</time>
      </trkpt>
      <trkpt lat="46.90601" lon="6.93335">
        <ele>431.3</ele>
        <time>2022-09-30T09:52:50Z</time>
      </trkpt>
      <trkpt lat="46.90604" lon="6.9334">
        <ele>431.3</ele>
        <time>2022-09-30T09:52:51Z</time>
      </trkpt>
      <trkpt lat="46.90607" lon="6.93345">
        <ele>431.3</ele>
        <time>2022-09-30T09:52:52Z</time>
      </trkpt>
      <trkpt lat="46.9061" lon="6.9335">
        <ele>431.3</ele>
        <time>2022-09-30T09:52:53Z</time>
      </trkpt>
      <trkpt lat="46.90612" lon="6.93355">
        <ele>431.2</ele>
        <time>2022-09-30T09:52:54Z</time>
      </trkpt>
      <trkpt lat="46.90614" lon="6.9336">
        <ele>431.2</ele>
        <time>2022-09-30T09:52:55Z</time>
      </trkpt>
      <trkpt lat="46.90616" lon="6.93365">
        <ele>431.2</ele>
        <time>2022-09-30T09:52:57Z</time>
      </trkpt>
      <trkpt lat="46.90619" lon="6.9337">
        <ele>431.2</ele>
        <time>2022-09-30T09:52:58Z</time>
      </trkpt>
      <trkpt lat="46.90622" lon="6.93374">
        <ele>431.2</ele>
        <time>2022-09-30T09:52:59Z</time>
      </trkpt>
      <trkpt lat="46.90624" lon="6.93378">
        <ele>431.2</ele>
        <time>2022-09-30T09:53:00Z</time>
      </trkpt>
      <trkpt lat="46.90626" lon="6.93382">
        <ele>431.3</ele>
        <time>2022-09-30T09:53:01Z</time>
      </trkpt>
      <trkpt lat="46.90629" lon="6.93387">
        <ele>431.3</ele>
        <time>2022-09-30T09:53:02Z</time>
      </trkpt>
      <trkpt lat="46.90631" lon="6.93392">
        <ele>431.3</ele>
        <time>2022-09-30T09:53:03Z</time>
      </trkpt>
      <trkpt lat="46.90634" lon="6.93396">
        <ele>431.3</ele>
        <time>2022-09-30T09:53:04Z</time>
      </trkpt>
      <trkpt lat="46.90636" lon="6.934">
        <ele>431.3</ele>
        <time>2022-09-30T09:53:05Z</time>
      </trkpt>
      <trkpt lat="46.90637" lon="6.93405">
        <ele>431.3</ele>
        <time>2022-09-30T09:53:06Z</time>
      </trkpt>
      <trkpt lat="46.90638" lon="6.93409">
        <ele>431.3</ele>
        <time>2022-09-30T09:53:07Z</time>
      </trkpt>
      <trkpt lat="46.90639" lon="6.93411">
        <ele>431.3</ele>
        <time>2022-09-30T09:53:08Z</time>
      </trkpt>
      <trkpt lat="46.90641" lon="6.93413">
        <ele>431.3</ele>
        <time>2022-09-30T09:53:09Z</time>
      </trkpt>
      <trkpt lat="46.90641" lon="6.93412">
        <ele>431.3</ele>
        <time>2022-09-30T09:53:10Z</time>
      </trkpt>
      <trkpt lat="46.90641" lon="6.93411">
        <ele>431.3</ele>
        <time>2022-09-30T09:53:11Z</time>
      </trkpt>
      <trkpt lat="46.90641" lon="6.9341">
        <ele>431.3</ele>
        <time>2022-09-30T09:53:12Z</time>
      </trkpt>
      <trkpt lat="46.90641" lon="6.93409">
        <ele>431.3</ele>
        <time>2022-09-30T09:53:13Z</time>
      </trkpt>
      <trkpt lat="46.90641" lon="6.93409">
        <ele>431.3</ele>
        <time>2022-09-30T09:53:14Z</time>
      </trkpt>
      <trkpt lat="46.90641" lon="6.93409">
        <ele>431.3</ele>
        <time>2022-09-30T09:53:15Z</time>
      </trkpt>
      <trkpt lat="46.90641" lon="6.93408">
        <ele>431.3</ele>
        <time>2022-09-30T09:53:16Z</time>
      </trkpt>
      <trkpt lat="46.9064" lon="6.93407">
        <ele>431.3</ele>
        <time>2022-09-30T09:53:17Z</time>
      </trkpt>
      <trkpt lat="46.90638" lon="6.93402">
        <ele>431.3</ele>
        <time>2022-09-30T09:53:18Z</time>
      </trkpt>
      <trkpt lat="46.90628" lon="6.93353">
        <ele>430.8</ele>
        <time>2022-09-30T09:53:31Z</time>
      </trkpt>
      <trkpt lat="46.90631" lon="6.93351">
        <ele>430.7</ele>
        <time>2022-09-30T09:53:32Z</time>
      </trkpt>
      <trkpt lat="46.90634" lon="6.93348">
        <ele>430.6</ele>
        <time>2022-09-30T09:53:33Z</time>
      </trkpt>
      <trkpt lat="46.90638" lon="6.93345">
        <ele>430.5</ele>
        <time>2022-09-30T09:53:34Z</time>
      </trkpt>
      <trkpt lat="46.90641" lon="6.93343">
        <ele>430.4</ele>
        <time>2022-09-30T09:53:35Z</time>
      </trkpt>
      <trkpt lat="46.90644" lon="6.93339">
        <ele>430.3</ele>
        <time>2022-09-30T09:53:36Z</time>
      </trkpt>
      <trkpt lat="46.90647" lon="6.93335">
        <ele>430.3</ele>
        <time>2022-09-30T09:53:37Z</time>
      </trkpt>
      <trkpt lat="46.9065" lon="6.93332">
        <ele>430.2</ele>
        <time>2022-09-30T09:53:38Z</time>
      </trkpt>
      <trkpt lat="46.90653" lon="6.93329">
        <ele>430.1</ele>
        <time>2022-09-30T09:53:39Z</time>
      </trkpt>
      <trkpt lat="46.90655" lon="6.93327">
        <ele>430</ele>
        <time>2022-09-30T09:53:40Z</time>
      </trkpt>
      <trkpt lat="46.90658" lon="6.93325">
        <ele>430</ele>
        <time>2022-09-30T09:53:41Z</time>
      </trkpt>
      <trkpt lat="46.90662" lon="6.93323">
        <ele>430</ele>
        <time>2022-09-30T09:53:42Z</time>
      </trkpt>
      <trkpt lat="46.90666" lon="6.93324">
        <ele>430</ele>
        <time>2022-09-30T09:53:43Z</time>
      </trkpt>
      <trkpt lat="46.90667" lon="6.93324">
        <ele>430.1</ele>
        <time>2022-09-30T09:53:44Z</time>
      </trkpt>
      <trkpt lat="46.9067" lon="6.93326">
        <ele>430.1</ele>
        <time>2022-09-30T09:53:45Z</time>
      </trkpt>
      <trkpt lat="46.9067" lon="6.93326">
        <ele>430.1</ele>
        <time>2022-09-30T09:53:46Z</time>
      </trkpt>
      <trkpt lat="46.90671" lon="6.93327">
        <ele>430.1</ele>
        <time>2022-09-30T09:53:47Z</time>
      </trkpt>
      <trkpt lat="46.90672" lon="6.93326">
        <ele>430.1</ele>
        <time>2022-09-30T09:53:48Z</time>
      </trkpt>
      <trkpt lat="46.90673" lon="6.93324">
        <ele>430.1</ele>
        <time>2022-09-30T09:53:49Z</time>
      </trkpt>
      <trkpt lat="46.90674" lon="6.9332">
        <ele>430.2</ele>
        <time>2022-09-30T09:53:50Z</time>
      </trkpt>
      <trkpt lat="46.90673" lon="6.93318">
        <ele>430.2</ele>
        <time>2022-09-30T09:53:51Z</time>
      </trkpt>
      <trkpt lat="46.90671" lon="6.93314">
        <ele>430.2</ele>
        <time>2022-09-30T09:53:52Z</time>
      </trkpt>
      <trkpt lat="46.9067" lon="6.93313">
        <ele>430.2</ele>
        <time>2022-09-30T09:53:53Z</time>
      </trkpt>
      <trkpt lat="46.90666" lon="6.93314">
        <ele>430.3</ele>
        <time>2022-09-30T09:53:54Z</time>
      </trkpt>
      <trkpt lat="46.90665" lon="6.93314">
        <ele>430.3</ele>
        <time>2022-09-30T09:53:55Z</time>
      </trkpt>
      <trkpt lat="46.90663" lon="6.93316">
        <ele>430.3</ele>
        <time>2022-09-30T09:53:56Z</time>
      </trkpt>
      <trkpt lat="46.90652" lon="6.93326">
        <ele>430.5</ele>
        <time>2022-09-30T09:53:59Z</time>
      </trkpt>
      <trkpt lat="46.90649" lon="6.9333">
        <ele>430.5</ele>
        <time>2022-09-30T09:54:00Z</time>
      </trkpt>
      <trkpt lat="46.90647" lon="6.93333">
        <ele>430.6</ele>
        <time>2022-09-30T09:54:01Z</time>
      </trkpt>
      <trkpt lat="46.90644" lon="6.93337">
        <ele>430.6</ele>
        <time>2022-09-30T09:54:02Z</time>
      </trkpt>
      <trkpt lat="46.9064" lon="6.9334">
        <ele>430.7</ele>
        <time>2022-09-30T09:54:03Z</time>
      </trkpt>
      <trkpt lat="46.90637" lon="6.93343">
        <ele>430.8</ele>
        <time>2022-09-30T09:54:04Z</time>
      </trkpt>
      <trkpt lat="46.90633" lon="6.93347">
        <ele>430.8</ele>
        <time>2022-09-30T09:54:05Z</time>
      </trkpt>
      <trkpt lat="46.90629" lon="6.9335">
        <ele>430.9</ele>
        <time>2022-09-30T09:54:06Z</time>
      </trkpt>
      <trkpt lat="46.90626" lon="6.93353">
        <ele>431</ele>
        <time>2022-09-30T09:54:07Z</time>
      </trkpt>
      <trkpt lat="46.90624" lon="6.93357">
        <ele>431</ele>
        <time>2022-09-30T09:54:08Z</time>
      </trkpt>
      <trkpt lat="46.90621" lon="6.9336">
        <ele>431.1</ele>
        <time>2022-09-30T09:54:09Z</time>
      </trkpt>
      <trkpt lat="46.9062" lon="6.93365">
        <ele>431.2</ele>
        <time>2022-09-30T09:54:10Z</time>
      </trkpt>
      <trkpt lat="46.9062" lon="6.93369">
        <ele>431.2</ele>
        <time>2022-09-30T09:54:11Z</time>
      </trkpt>
      <trkpt lat="46.90621" lon="6.93373">
        <ele>431.2</ele>
        <time>2022-09-30T09:54:12Z</time>
      </trkpt>
      <trkpt lat="46.90623" lon="6.93376">
        <ele>431.2</ele>
        <time>2022-09-30T09:54:13Z</time>
      </trkpt>
      <trkpt lat="46.90626" lon="6.9338">
        <ele>431.2</ele>
        <time>2022-09-30T09:54:14Z</time>
      </trkpt>
      <trkpt lat="46.90629" lon="6.93383">
        <ele>431.3</ele>
        <time>2022-09-30T09:54:15Z</time>
      </trkpt>
      <trkpt lat="46.90631" lon="6.93387">
        <ele>431.3</ele>
        <time>2022-09-30T09:54:16Z</time>
      </trkpt>
      <trkpt lat="46.90634" lon="6.93392">
        <ele>431.3</ele>
        <time>2022-09-30T09:54:17Z</time>
      </trkpt>
      <trkpt lat="46.90636" lon="6.93396">
        <ele>431.3</ele>
        <time>2022-09-30T09:54:18Z</time>
      </trkpt>
      <trkpt lat="46.90638" lon="6.93401">
        <ele>431.3</ele>
        <time>2022-09-30T09:54:19Z</time>
      </trkpt>
      <trkpt lat="46.9064" lon="6.93406">
        <ele>431.3</ele>
        <time>2022-09-30T09:54:20Z</time>
      </trkpt>
      <trkpt lat="46.90643" lon="6.9341">
        <ele>431.3</ele>
        <time>2022-09-30T09:54:21Z</time>
      </trkpt>
      <trkpt lat="46.90645" lon="6.93415">
        <ele>431.3</ele>
        <time>2022-09-30T09:54:22Z</time>
      </trkpt>
      <trkpt lat="46.90648" lon="6.9342">
        <ele>431.3</ele>
        <time>2022-09-30T09:54:23Z</time>
      </trkpt>
      <trkpt lat="46.90651" lon="6.93425">
        <ele>431.3</ele>
        <time>2022-09-30T09:54:24Z</time>
      </trkpt>
      <trkpt lat="46.90653" lon="6.9343">
        <ele>431.3</ele>
        <time>2022-09-30T09:54:25Z</time>
      </trkpt>
      <trkpt lat="46.90656" lon="6.93435">
        <ele>431.3</ele>
        <time>2022-09-30T09:54:26Z</time>
      </trkpt>
      <trkpt lat="46.90658" lon="6.9344">
        <ele>431.3</ele>
        <time>2022-09-30T09:54:27Z</time>
      </trkpt>
      <trkpt lat="46.90661" lon="6.93445">
        <ele>431.3</ele>
        <time>2022-09-30T09:54:28Z</time>
      </trkpt>
      <trkpt lat="46.90663" lon="6.93451">
        <ele>431.3</ele>
        <time>2022-09-30T09:54:29Z</time>
      </trkpt>
      <trkpt lat="46.90665" lon="6.93456">
        <ele>431.3</ele>
        <time>2022-09-30T09:54:30Z</time>
      </trkpt>
      <trkpt lat="46.90668" lon="6.93462">
        <ele>431.3</ele>
        <time>2022-09-30T09:54:31Z</time>
      </trkpt>
      <trkpt lat="46.9067" lon="6.93468">
        <ele>431.3</ele>
        <time>2022-09-30T09:54:32Z</time>
      </trkpt>
      <trkpt lat="46.90673" lon="6.93474">
        <ele>431.3</ele>
        <time>2022-09-30T09:54:33Z</time>
      </trkpt>
      <trkpt lat="46.90676" lon="6.93479">
        <ele>431.3</ele>
        <time>2022-09-30T09:54:34Z</time>
      </trkpt>
      <trkpt lat="46.90679" lon="6.93484">
        <ele>431.3</ele>
        <time>2022-09-30T09:54:35Z</time>
      </trkpt>
      <trkpt lat="46.90681" lon="6.9349">
        <ele>431.3</ele>
        <time>2022-09-30T09:54:36Z</time>
      </trkpt>
      <trkpt lat="46.90684" lon="6.93495">
        <ele>431.3</ele>
        <time>2022-09-30T09:54:37Z</time>
      </trkpt>
      <trkpt lat="46.90687" lon="6.93502">
        <ele>431.3</ele>
        <time>2022-09-30T09:54:38Z</time>
      </trkpt>
      <trkpt lat="46.90689" lon="6.93508">
        <ele>431.3</ele>
        <time>2022-09-30T09:54:39Z</time>
      </trkpt>
      <trkpt lat="46.90692" lon="6.93514">
        <ele>431.3</ele>
        <time>2022-09-30T09:54:40Z</time>
      </trkpt>
      <trkpt lat="46.90695" lon="6.9352">
        <ele>431.3</ele>
        <time>2022-09-30T09:54:41Z</time>
      </trkpt>
      <trkpt lat="46.90698" lon="6.93526">
        <ele>431.3</ele>
        <time>2022-09-30T09:54:42Z</time>
      </trkpt>
      <trkpt lat="46.907" lon="6.93531">
        <ele>431.3</ele>
        <time>2022-09-30T09:54:43Z</time>
      </trkpt>
      <trkpt lat="46.90703" lon="6.93537">
        <ele>431.3</ele>
        <time>2022-09-30T09:54:44Z</time>
      </trkpt>
      <trkpt lat="46.90706" lon="6.93543">
        <ele>431.3</ele>
        <time>2022-09-30T09:54:45Z</time>
      </trkpt>
      <trkpt lat="46.90708" lon="6.93548">
        <ele>431.3</ele>
        <time>2022-09-30T09:54:46Z</time>
      </trkpt>
      <trkpt lat="46.90711" lon="6.93554">
        <ele>431.3</ele>
        <time>2022-09-30T09:54:47Z</time>
      </trkpt>
      <trkpt lat="46.90714" lon="6.93558">
        <ele>431.3</ele>
        <time>2022-09-30T09:54:48Z</time>
      </trkpt>
      <trkpt lat="46.90717" lon="6.93564">
        <ele>431.3</ele>
        <time>2022-09-30T09:54:49Z</time>
      </trkpt>
      <trkpt lat="46.9072" lon="6.93569">
        <ele>431.2</ele>
        <time>2022-09-30T09:54:50Z</time>
      </trkpt>
      <trkpt lat="46.90723" lon="6.93575">
        <ele>431.2</ele>
        <time>2022-09-30T09:54:51Z</time>
      </trkpt>
      <trkpt lat="46.90725" lon="6.9358">
        <ele>431.2</ele>
        <time>2022-09-30T09:54:52Z</time>
      </trkpt>
      <trkpt lat="46.90728" lon="6.93586">
        <ele>431.2</ele>
        <time>2022-09-30T09:54:53Z</time>
      </trkpt>
      <trkpt lat="46.90731" lon="6.93592">
        <ele>431.2</ele>
        <time>2022-09-30T09:54:54Z</time>
      </trkpt>
      <trkpt lat="46.90734" lon="6.93599">
        <ele>431.2</ele>
        <time>2022-09-30T09:54:55Z</time>
      </trkpt>
      <trkpt lat="46.90737" lon="6.93604">
        <ele>431.2</ele>
        <time>2022-09-30T09:54:56Z</time>
      </trkpt>
      <trkpt lat="46.90741" lon="6.93611">
        <ele>431.1</ele>
        <time>2022-09-30T09:54:57Z</time>
      </trkpt>
      <trkpt lat="46.90744" lon="6.93618">
        <ele>431.1</ele>
        <time>2022-09-30T09:54:58Z</time>
      </trkpt>
      <trkpt lat="46.90747" lon="6.93624">
        <ele>431.1</ele>
        <time>2022-09-30T09:54:59Z</time>
      </trkpt>
      <trkpt lat="46.9075" lon="6.9363">
        <ele>431.1</ele>
        <time>2022-09-30T09:55:00Z</time>
      </trkpt>
      <trkpt lat="46.90752" lon="6.93635">
        <ele>431.1</ele>
        <time>2022-09-30T09:55:01Z</time>
      </trkpt>
      <trkpt lat="46.90754" lon="6.93639">
        <ele>431.2</ele>
        <time>2022-09-30T09:55:02Z</time>
      </trkpt>
      <trkpt lat="46.90756" lon="6.93643">
        <ele>431.2</ele>
        <time>2022-09-30T09:55:03Z</time>
      </trkpt>
      <trkpt lat="46.90758" lon="6.93646">
        <ele>431.2</ele>
        <time>2022-09-30T09:55:04Z</time>
      </trkpt>
      <trkpt lat="46.9076" lon="6.93648">
        <ele>431.2</ele>
        <time>2022-09-30T09:55:05Z</time>
      </trkpt>
      <trkpt lat="46.90763" lon="6.93652">
        <ele>431.1</ele>
        <time>2022-09-30T09:55:06Z</time>
      </trkpt>
      <trkpt lat="46.90764" lon="6.93654">
        <ele>431.1</ele>
        <time>2022-09-30T09:55:07Z</time>
      </trkpt>
      <trkpt lat="46.90768" lon="6.93661">
        <ele>431.1</ele>
        <time>2022-09-30T09:55:09Z</time>
      </trkpt>
      <trkpt lat="46.90772" lon="6.9367">
        <ele>431</ele>
        <time>2022-09-30T09:55:11Z</time>
      </trkpt>
      <trkpt lat="46.90776" lon="6.9368">
        <ele>431</ele>
        <time>2022-09-30T09:55:13Z</time>
      </trkpt>
      <trkpt lat="46.90779" lon="6.93686">
        <ele>430.9</ele>
        <time>2022-09-30T09:55:14Z</time>
      </trkpt>
      <trkpt lat="46.90781" lon="6.93693">
        <ele>430.9</ele>
        <time>2022-09-30T09:55:15Z</time>
      </trkpt>
      <trkpt lat="46.90784" lon="6.93699">
        <ele>430.9</ele>
        <time>2022-09-30T09:55:16Z</time>
      </trkpt>
      <trkpt lat="46.90786" lon="6.93704">
        <ele>430.9</ele>
        <time>2022-09-30T09:55:17Z</time>
      </trkpt>
      <trkpt lat="46.90788" lon="6.93708">
        <ele>430.9</ele>
        <time>2022-09-30T09:55:18Z</time>
      </trkpt>
      <trkpt lat="46.9079" lon="6.93713">
        <ele>430.9</ele>
        <time>2022-09-30T09:55:19Z</time>
      </trkpt>
      <trkpt lat="46.90792" lon="6.93716">
        <ele>430.9</ele>
        <time>2022-09-30T09:55:20Z</time>
      </trkpt>
      <trkpt lat="46.90794" lon="6.93721">
        <ele>430.9</ele>
        <time>2022-09-30T09:55:21Z</time>
      </trkpt>
      <trkpt lat="46.90796" lon="6.93724">
        <ele>430.9</ele>
        <time>2022-09-30T09:55:22Z</time>
      </trkpt>
      <trkpt lat="46.90798" lon="6.93728">
        <ele>430.9</ele>
        <time>2022-09-30T09:55:23Z</time>
      </trkpt>
      <trkpt lat="46.90801" lon="6.93733">
        <ele>430.9</ele>
        <time>2022-09-30T09:55:24Z</time>
      </trkpt>
      <trkpt lat="46.90803" lon="6.93738">
        <ele>430.9</ele>
        <time>2022-09-30T09:55:25Z</time>
      </trkpt>
      <trkpt lat="46.90806" lon="6.93744">
        <ele>430.9</ele>
        <time>2022-09-30T09:55:26Z</time>
      </trkpt>
      <trkpt lat="46.90809" lon="6.93749">
        <ele>431</ele>
        <time>2022-09-30T09:55:27Z</time>
      </trkpt>
      <trkpt lat="46.90811" lon="6.93755">
        <ele>431</ele>
        <time>2022-09-30T09:55:28Z</time>
      </trkpt>
      <trkpt lat="46.90814" lon="6.93759">
        <ele>431</ele>
        <time>2022-09-30T09:55:29Z</time>
      </trkpt>
      <trkpt lat="46.90815" lon="6.93765">
        <ele>431</ele>
        <time>2022-09-30T09:55:30Z</time>
      </trkpt>
      <trkpt lat="46.90817" lon="6.93769">
        <ele>431.1</ele>
        <time>2022-09-30T09:55:31Z</time>
      </trkpt>
      <trkpt lat="46.90819" lon="6.93774">
        <ele>431.1</ele>
        <time>2022-09-30T09:55:32Z</time>
      </trkpt>
      <trkpt lat="46.90821" lon="6.93778">
        <ele>431.1</ele>
        <time>2022-09-30T09:55:33Z</time>
      </trkpt>
      <trkpt lat="46.90824" lon="6.93784">
        <ele>431.1</ele>
        <time>2022-09-30T09:55:34Z</time>
      </trkpt>
      <trkpt lat="46.90826" lon="6.93788">
        <ele>431.1</ele>
        <time>2022-09-30T09:55:35Z</time>
      </trkpt>
      <trkpt lat="46.90828" lon="6.93792">
        <ele>431.2</ele>
        <time>2022-09-30T09:55:36Z</time>
      </trkpt>
      <trkpt lat="46.9083" lon="6.93796">
        <ele>431.2</ele>
        <time>2022-09-30T09:55:37Z</time>
      </trkpt>
      <trkpt lat="46.90833" lon="6.93801">
        <ele>431.2</ele>
        <time>2022-09-30T09:55:38Z</time>
      </trkpt>
      <trkpt lat="46.90835" lon="6.93806">
        <ele>431.2</ele>
        <time>2022-09-30T09:55:39Z</time>
      </trkpt>
      <trkpt lat="46.90838" lon="6.93812">
        <ele>431.2</ele>
        <time>2022-09-30T09:55:40Z</time>
      </trkpt>
      <trkpt lat="46.90841" lon="6.93818">
        <ele>431.2</ele>
        <time>2022-09-30T09:55:41Z</time>
      </trkpt>
      <trkpt lat="46.90843" lon="6.93824">
        <ele>431.2</ele>
        <time>2022-09-30T09:55:42Z</time>
      </trkpt>
      <trkpt lat="46.90846" lon="6.93829">
        <ele>431.2</ele>
        <time>2022-09-30T09:55:43Z</time>
      </trkpt>
      <trkpt lat="46.90848" lon="6.93837">
        <ele>431.2</ele>
        <time>2022-09-30T09:55:44Z</time>
      </trkpt>
      <trkpt lat="46.9085" lon="6.93843">
        <ele>431.3</ele>
        <time>2022-09-30T09:55:45Z</time>
      </trkpt>
      <trkpt lat="46.90853" lon="6.93848">
        <ele>431.3</ele>
        <time>2022-09-30T09:55:46Z</time>
      </trkpt>
      <trkpt lat="46.90855" lon="6.93853">
        <ele>431.3</ele>
        <time>2022-09-30T09:55:47Z</time>
      </trkpt>
      <trkpt lat="46.90858" lon="6.93858">
        <ele>431.3</ele>
        <time>2022-09-30T09:55:48Z</time>
      </trkpt>
      <trkpt lat="46.9086" lon="6.93864">
        <ele>431.3</ele>
        <time>2022-09-30T09:55:49Z</time>
      </trkpt>
      <trkpt lat="46.90863" lon="6.93868">
        <ele>431.3</ele>
        <time>2022-09-30T09:55:50Z</time>
      </trkpt>
      <trkpt lat="46.90864" lon="6.93874">
        <ele>431.4</ele>
        <time>2022-09-30T09:55:51Z</time>
      </trkpt>
      <trkpt lat="46.90866" lon="6.93878">
        <ele>431.4</ele>
        <time>2022-09-30T09:55:52Z</time>
      </trkpt>
      <trkpt lat="46.90868" lon="6.93882">
        <ele>431.4</ele>
        <time>2022-09-30T09:55:53Z</time>
      </trkpt>
      <trkpt lat="46.9087" lon="6.93886">
        <ele>431.4</ele>
        <time>2022-09-30T09:55:54Z</time>
      </trkpt>
      <trkpt lat="46.90871" lon="6.9389">
        <ele>431.4</ele>
        <time>2022-09-30T09:55:55Z</time>
      </trkpt>
      <trkpt lat="46.90874" lon="6.93894">
        <ele>431.4</ele>
        <time>2022-09-30T09:55:56Z</time>
      </trkpt>
      <trkpt lat="46.90876" lon="6.939">
        <ele>431.4</ele>
        <time>2022-09-30T09:55:57Z</time>
      </trkpt>
      <trkpt lat="46.90879" lon="6.93906">
        <ele>431.4</ele>
        <time>2022-09-30T09:55:58Z</time>
      </trkpt>
      <trkpt lat="46.90881" lon="6.93911">
        <ele>431.4</ele>
        <time>2022-09-30T09:55:59Z</time>
      </trkpt>
      <trkpt lat="46.90883" lon="6.93915">
        <ele>431.4</ele>
        <time>2022-09-30T09:56:00Z</time>
      </trkpt>
      <trkpt lat="46.90885" lon="6.93919">
        <ele>431.3</ele>
        <time>2022-09-30T09:56:01Z</time>
      </trkpt>
      <trkpt lat="46.90887" lon="6.93923">
        <ele>431.3</ele>
        <time>2022-09-30T09:56:02Z</time>
      </trkpt>
      <trkpt lat="46.9089" lon="6.93929">
        <ele>431.3</ele>
        <time>2022-09-30T09:56:03Z</time>
      </trkpt>
      <trkpt lat="46.90893" lon="6.93935">
        <ele>431.3</ele>
        <time>2022-09-30T09:56:04Z</time>
      </trkpt>
      <trkpt lat="46.90896" lon="6.93939">
        <ele>431.2</ele>
        <time>2022-09-30T09:56:05Z</time>
      </trkpt>
      <trkpt lat="46.90899" lon="6.93944">
        <ele>431.2</ele>
        <time>2022-09-30T09:56:06Z</time>
      </trkpt>
      <trkpt lat="46.90902" lon="6.93951">
        <ele>431.2</ele>
        <time>2022-09-30T09:56:07Z</time>
      </trkpt>
      <trkpt lat="46.90905" lon="6.93958">
        <ele>431.2</ele>
        <time>2022-09-30T09:56:08Z</time>
      </trkpt>
      <trkpt lat="46.90907" lon="6.93964">
        <ele>431.2</ele>
        <time>2022-09-30T09:56:09Z</time>
      </trkpt>
      <trkpt lat="46.9091" lon="6.93969">
        <ele>431.2</ele>
        <time>2022-09-30T09:56:10Z</time>
      </trkpt>
      <trkpt lat="46.90913" lon="6.93973">
        <ele>431.2</ele>
        <time>2022-09-30T09:56:11Z</time>
      </trkpt>
      <trkpt lat="46.90916" lon="6.93979">
        <ele>431.2</ele>
        <time>2022-09-30T09:56:12Z</time>
      </trkpt>
      <trkpt lat="46.90918" lon="6.93985">
        <ele>431.2</ele>
        <time>2022-09-30T09:56:13Z</time>
      </trkpt>
      <trkpt lat="46.9092" lon="6.93992">
        <ele>431.2</ele>
        <time>2022-09-30T09:56:14Z</time>
      </trkpt>
      <trkpt lat="46.90922" lon="6.93998">
        <ele>431.2</ele>
        <time>2022-09-30T09:56:15Z</time>
      </trkpt>
      <trkpt lat="46.90924" lon="6.94005">
        <ele>431.2</ele>
        <time>2022-09-30T09:56:16Z</time>
      </trkpt>
      <trkpt lat="46.90926" lon="6.94012">
        <ele>431.2</ele>
        <time>2022-09-30T09:56:17Z</time>
      </trkpt>
      <trkpt lat="46.90929" lon="6.94017">
        <ele>431.3</ele>
        <time>2022-09-30T09:56:18Z</time>
      </trkpt>
      <trkpt lat="46.90931" lon="6.94021">
        <ele>431.3</ele>
        <time>2022-09-30T09:56:19Z</time>
      </trkpt>
      <trkpt lat="46.90933" lon="6.94025">
        <ele>431.3</ele>
        <time>2022-09-30T09:56:20Z</time>
      </trkpt>
      <trkpt lat="46.90934" lon="6.9403">
        <ele>431.3</ele>
        <time>2022-09-30T09:56:21Z</time>
      </trkpt>
      <trkpt lat="46.90936" lon="6.94034">
        <ele>431.3</ele>
        <time>2022-09-30T09:56:22Z</time>
      </trkpt>
      <trkpt lat="46.90938" lon="6.94039">
        <ele>431.3</ele>
        <time>2022-09-30T09:56:23Z</time>
      </trkpt>
      <trkpt lat="46.9094" lon="6.94044">
        <ele>431.3</ele>
        <time>2022-09-30T09:56:24Z</time>
      </trkpt>
      <trkpt lat="46.90942" lon="6.94049">
        <ele>431.3</ele>
        <time>2022-09-30T09:56:25Z</time>
      </trkpt>
      <trkpt lat="46.90944" lon="6.94054">
        <ele>431.3</ele>
        <time>2022-09-30T09:56:26Z</time>
      </trkpt>
      <trkpt lat="46.90946" lon="6.94059">
        <ele>431.3</ele>
        <time>2022-09-30T09:56:27Z</time>
      </trkpt>
      <trkpt lat="46.90948" lon="6.94065">
        <ele>431.2</ele>
        <time>2022-09-30T09:56:28Z</time>
      </trkpt>
      <trkpt lat="46.90951" lon="6.94071">
        <ele>431.2</ele>
        <time>2022-09-30T09:56:29Z</time>
      </trkpt>
      <trkpt lat="46.90953" lon="6.94076">
        <ele>431.2</ele>
        <time>2022-09-30T09:56:30Z</time>
      </trkpt>
      <trkpt lat="46.90955" lon="6.9408">
        <ele>431.2</ele>
        <time>2022-09-30T09:56:31Z</time>
      </trkpt>
      <trkpt lat="46.90957" lon="6.94085">
        <ele>431.2</ele>
        <time>2022-09-30T09:56:32Z</time>
      </trkpt>
      <trkpt lat="46.90959" lon="6.9409">
        <ele>431.2</ele>
        <time>2022-09-30T09:56:33Z</time>
      </trkpt>
      <trkpt lat="46.90961" lon="6.94096">
        <ele>431.2</ele>
        <time>2022-09-30T09:56:34Z</time>
      </trkpt>
      <trkpt lat="46.90963" lon="6.94102">
        <ele>431.2</ele>
        <time>2022-09-30T09:56:35Z</time>
      </trkpt>
      <trkpt lat="46.90966" lon="6.94109">
        <ele>431.2</ele>
        <time>2022-09-30T09:56:36Z</time>
      </trkpt>
      <trkpt lat="46.90968" lon="6.94114">
        <ele>431.2</ele>
        <time>2022-09-30T09:56:37Z</time>
      </trkpt>
      <trkpt lat="46.9097" lon="6.94119">
        <ele>431.2</ele>
        <time>2022-09-30T09:56:38Z</time>
      </trkpt>
      <trkpt lat="46.90973" lon="6.94126">
        <ele>431.2</ele>
        <time>2022-09-30T09:56:39Z</time>
      </trkpt>
      <trkpt lat="46.90975" lon="6.94132">
        <ele>431.1</ele>
        <time>2022-09-30T09:56:40Z</time>
      </trkpt>
      <trkpt lat="46.90977" lon="6.94139">
        <ele>431.1</ele>
        <time>2022-09-30T09:56:41Z</time>
      </trkpt>
      <trkpt lat="46.9098" lon="6.94146">
        <ele>431.1</ele>
        <time>2022-09-30T09:56:42Z</time>
      </trkpt>
      <trkpt lat="46.90983" lon="6.94153">
        <ele>431.1</ele>
        <time>2022-09-30T09:56:43Z</time>
      </trkpt>
      <trkpt lat="46.90985" lon="6.94158">
        <ele>431.1</ele>
        <time>2022-09-30T09:56:44Z</time>
      </trkpt>
      <trkpt lat="46.90988" lon="6.94165">
        <ele>431.1</ele>
        <time>2022-09-30T09:56:45Z</time>
      </trkpt>
      <trkpt lat="46.9099" lon="6.94171">
        <ele>431.2</ele>
        <time>2022-09-30T09:56:46Z</time>
      </trkpt>
      <trkpt lat="46.90993" lon="6.94178">
        <ele>431.2</ele>
        <time>2022-09-30T09:56:47Z</time>
      </trkpt>
      <trkpt lat="46.90995" lon="6.94183">
        <ele>431.2</ele>
        <time>2022-09-30T09:56:48Z</time>
      </trkpt>
      <trkpt lat="46.90998" lon="6.94189">
        <ele>431.2</ele>
        <time>2022-09-30T09:56:49Z</time>
      </trkpt>
      <trkpt lat="46.91" lon="6.94195">
        <ele>431.3</ele>
        <time>2022-09-30T09:56:50Z</time>
      </trkpt>
      <trkpt lat="46.91002" lon="6.94201">
        <ele>431.3</ele>
        <time>2022-09-30T09:56:51Z</time>
      </trkpt>
      <trkpt lat="46.91005" lon="6.94207">
        <ele>431.3</ele>
        <time>2022-09-30T09:56:52Z</time>
      </trkpt>
      <trkpt lat="46.91008" lon="6.94213">
        <ele>431.3</ele>
        <time>2022-09-30T09:56:53Z</time>
      </trkpt>
      <trkpt lat="46.9101" lon="6.94219">
        <ele>431.3</ele>
        <time>2022-09-30T09:56:54Z</time>
      </trkpt>
      <trkpt lat="46.91012" lon="6.94224">
        <ele>431.4</ele>
        <time>2022-09-30T09:56:55Z</time>
      </trkpt>
      <trkpt lat="46.91014" lon="6.9423">
        <ele>431.4</ele>
        <time>2022-09-30T09:56:56Z</time>
      </trkpt>
      <trkpt lat="46.91016" lon="6.94235">
        <ele>431.4</ele>
        <time>2022-09-30T09:56:57Z</time>
      </trkpt>
      <trkpt lat="46.91018" lon="6.9424">
        <ele>431.4</ele>
        <time>2022-09-30T09:56:58Z</time>
      </trkpt>
      <trkpt lat="46.9102" lon="6.94245">
        <ele>431.4</ele>
        <time>2022-09-30T09:56:59Z</time>
      </trkpt>
      <trkpt lat="46.91023" lon="6.94251">
        <ele>431.5</ele>
        <time>2022-09-30T09:57:00Z</time>
      </trkpt>
      <trkpt lat="46.91025" lon="6.94256">
        <ele>431.5</ele>
        <time>2022-09-30T09:57:01Z</time>
      </trkpt>
      <trkpt lat="46.91028" lon="6.94261">
        <ele>431.5</ele>
        <time>2022-09-30T09:57:02Z</time>
      </trkpt>
      <trkpt lat="46.9103" lon="6.94266">
        <ele>431.5</ele>
        <time>2022-09-30T09:57:03Z</time>
      </trkpt>
      <trkpt lat="46.91033" lon="6.94271">
        <ele>431.5</ele>
        <time>2022-09-30T09:57:04Z</time>
      </trkpt>
      <trkpt lat="46.91035" lon="6.94275">
        <ele>431.6</ele>
        <time>2022-09-30T09:57:05Z</time>
      </trkpt>
      <trkpt lat="46.91037" lon="6.94281">
        <ele>431.6</ele>
        <time>2022-09-30T09:57:06Z</time>
      </trkpt>
      <trkpt lat="46.9104" lon="6.94287">
        <ele>431.6</ele>
        <time>2022-09-30T09:57:07Z</time>
      </trkpt>
      <trkpt lat="46.91043" lon="6.94292">
        <ele>431.6</ele>
        <time>2022-09-30T09:57:08Z</time>
      </trkpt>
      <trkpt lat="46.91046" lon="6.94297">
        <ele>431.6</ele>
        <time>2022-09-30T09:57:09Z</time>
      </trkpt>
      <trkpt lat="46.91048" lon="6.94303">
        <ele>431.6</ele>
        <time>2022-09-30T09:57:10Z</time>
      </trkpt>
      <trkpt lat="46.91051" lon="6.94308">
        <ele>431.6</ele>
        <time>2022-09-30T09:57:11Z</time>
      </trkpt>
      <trkpt lat="46.91054" lon="6.94313">
        <ele>431.6</ele>
        <time>2022-09-30T09:57:12Z</time>
      </trkpt>
      <trkpt lat="46.91057" lon="6.94319">
        <ele>431.6</ele>
        <time>2022-09-30T09:57:13Z</time>
      </trkpt>
      <trkpt lat="46.9106" lon="6.94323">
        <ele>431.6</ele>
        <time>2022-09-30T09:57:14Z</time>
      </trkpt>
      <trkpt lat="46.91063" lon="6.94329">
        <ele>431.6</ele>
        <time>2022-09-30T09:57:15Z</time>
      </trkpt>
      <trkpt lat="46.91066" lon="6.94333">
        <ele>431.6</ele>
        <time>2022-09-30T09:57:16Z</time>
      </trkpt>
      <trkpt lat="46.91068" lon="6.94338">
        <ele>431.7</ele>
        <time>2022-09-30T09:57:17Z</time>
      </trkpt>
      <trkpt lat="46.91072" lon="6.94344">
        <ele>431.7</ele>
        <time>2022-09-30T09:57:18Z</time>
      </trkpt>
      <trkpt lat="46.91075" lon="6.94349">
        <ele>431.7</ele>
        <time>2022-09-30T09:57:19Z</time>
      </trkpt>
      <trkpt lat="46.91078" lon="6.94354">
        <ele>431.7</ele>
        <time>2022-09-30T09:57:20Z</time>
      </trkpt>
      <trkpt lat="46.9108" lon="6.94359">
        <ele>431.7</ele>
        <time>2022-09-30T09:57:21Z</time>
      </trkpt>
      <trkpt lat="46.91083" lon="6.94364">
        <ele>431.8</ele>
        <time>2022-09-30T09:57:22Z</time>
      </trkpt>
      <trkpt lat="46.91086" lon="6.94368">
        <ele>431.8</ele>
        <time>2022-09-30T09:57:23Z</time>
      </trkpt>
      <trkpt lat="46.91088" lon="6.94372">
        <ele>431.8</ele>
        <time>2022-09-30T09:57:24Z</time>
      </trkpt>
      <trkpt lat="46.91091" lon="6.94376">
        <ele>431.8</ele>
        <time>2022-09-30T09:57:25Z</time>
      </trkpt>
      <trkpt lat="46.91093" lon="6.94379">
        <ele>431.8</ele>
        <time>2022-09-30T09:57:26Z</time>
      </trkpt>
      <trkpt lat="46.91094" lon="6.94381">
        <ele>431.9</ele>
        <time>2022-09-30T09:57:27Z</time>
      </trkpt>
      <trkpt lat="46.91096" lon="6.94382">
        <ele>431.9</ele>
        <time>2022-09-30T09:57:28Z</time>
      </trkpt>
      <trkpt lat="46.91098" lon="6.94385">
        <ele>431.9</ele>
        <time>2022-09-30T09:57:29Z</time>
      </trkpt>
      <trkpt lat="46.911" lon="6.94387">
        <ele>431.9</ele>
        <time>2022-09-30T09:57:30Z</time>
      </trkpt>
      <trkpt lat="46.91101" lon="6.94388">
        <ele>431.9</ele>
        <time>2022-09-30T09:57:31Z</time>
      </trkpt>
      <trkpt lat="46.91101" lon="6.94389">
        <ele>431.9</ele>
        <time>2022-09-30T09:57:32Z</time>
      </trkpt>
      <trkpt lat="46.91102" lon="6.94389">
        <ele>431.9</ele>
        <time>2022-09-30T09:57:33Z</time>
      </trkpt>
      <trkpt lat="46.91104" lon="6.94393">
        <ele>431.9</ele>
        <time>2022-09-30T09:57:34Z</time>
      </trkpt>
      <trkpt lat="46.91106" lon="6.94397">
        <ele>431.9</ele>
        <time>2022-09-30T09:57:35Z</time>
      </trkpt>
      <trkpt lat="46.91107" lon="6.94398">
        <ele>431.9</ele>
        <time>2022-09-30T09:57:36Z</time>
      </trkpt>
      <trkpt lat="46.91109" lon="6.94403">
        <ele>431.9</ele>
        <time>2022-09-30T09:57:37Z</time>
      </trkpt>
      <trkpt lat="46.91111" lon="6.94406">
        <ele>431.9</ele>
        <time>2022-09-30T09:57:38Z</time>
      </trkpt>
      <trkpt lat="46.91114" lon="6.9441">
        <ele>431.9</ele>
        <time>2022-09-30T09:57:39Z</time>
      </trkpt>
      <trkpt lat="46.91118" lon="6.94416">
        <ele>431.9</ele>
        <time>2022-09-30T09:57:40Z</time>
      </trkpt>
      <trkpt lat="46.91121" lon="6.9442">
        <ele>431.9</ele>
        <time>2022-09-30T09:57:41Z</time>
      </trkpt>
      <trkpt lat="46.91126" lon="6.94427">
        <ele>431.9</ele>
        <time>2022-09-30T09:57:42Z</time>
      </trkpt>
      <trkpt lat="46.91131" lon="6.94432">
        <ele>431.9</ele>
        <time>2022-09-30T09:57:43Z</time>
      </trkpt>
      <trkpt lat="46.91134" lon="6.94438">
        <ele>431.9</ele>
        <time>2022-09-30T09:57:44Z</time>
      </trkpt>
      <trkpt lat="46.91138" lon="6.94443">
        <ele>431.9</ele>
        <time>2022-09-30T09:57:45Z</time>
      </trkpt>
      <trkpt lat="46.91142" lon="6.94455">
        <ele>431.9</ele>
        <time>2022-09-30T09:57:46Z</time>
      </trkpt>
      <trkpt lat="46.91145" lon="6.94462">
        <ele>431.9</ele>
        <time>2022-09-30T09:57:47Z</time>
      </trkpt>
      <trkpt lat="46.91149" lon="6.94468">
        <ele>432</ele>
        <time>2022-09-30T09:57:48Z</time>
      </trkpt>
      <trkpt lat="46.91152" lon="6.94475">
        <ele>432</ele>
        <time>2022-09-30T09:57:49Z</time>
      </trkpt>
      <trkpt lat="46.91155" lon="6.9448">
        <ele>432</ele>
        <time>2022-09-30T09:57:50Z</time>
      </trkpt>
      <trkpt lat="46.91158" lon="6.94485">
        <ele>432</ele>
        <time>2022-09-30T09:57:51Z</time>
      </trkpt>
      <trkpt lat="46.91161" lon="6.9449">
        <ele>432</ele>
        <time>2022-09-30T09:57:52Z</time>
      </trkpt>
      <trkpt lat="46.91164" lon="6.94495">
        <ele>431.9</ele>
        <time>2022-09-30T09:57:53Z</time>
      </trkpt>
      <trkpt lat="46.91167" lon="6.945">
        <ele>431.9</ele>
        <time>2022-09-30T09:57:54Z</time>
      </trkpt>
      <trkpt lat="46.91171" lon="6.94506">
        <ele>431.9</ele>
        <time>2022-09-30T09:57:55Z</time>
      </trkpt>
      <trkpt lat="46.91175" lon="6.94512">
        <ele>431.9</ele>
        <time>2022-09-30T09:57:56Z</time>
      </trkpt>
      <trkpt lat="46.91178" lon="6.94517">
        <ele>431.9</ele>
        <time>2022-09-30T09:57:57Z</time>
      </trkpt>
      <trkpt lat="46.91181" lon="6.94525">
        <ele>431.9</ele>
        <time>2022-09-30T09:57:58Z</time>
      </trkpt>
      <trkpt lat="46.91184" lon="6.9453">
        <ele>431.8</ele>
        <time>2022-09-30T09:57:59Z</time>
      </trkpt>
      <trkpt lat="46.91188" lon="6.94536">
        <ele>431.8</ele>
        <time>2022-09-30T09:58:00Z</time>
      </trkpt>
      <trkpt lat="46.91191" lon="6.94541">
        <ele>431.8</ele>
        <time>2022-09-30T09:58:01Z</time>
      </trkpt>
      <trkpt lat="46.91195" lon="6.94546">
        <ele>431.8</ele>
        <time>2022-09-30T09:58:02Z</time>
      </trkpt>
      <trkpt lat="46.91198" lon="6.94551">
        <ele>431.8</ele>
        <time>2022-09-30T09:58:03Z</time>
      </trkpt>
      <trkpt lat="46.91201" lon="6.94557">
        <ele>431.7</ele>
        <time>2022-09-30T09:58:04Z</time>
      </trkpt>
      <trkpt lat="46.91204" lon="6.94561">
        <ele>431.7</ele>
        <time>2022-09-30T09:58:05Z</time>
      </trkpt>
      <trkpt lat="46.91207" lon="6.94566">
        <ele>431.7</ele>
        <time>2022-09-30T09:58:06Z</time>
      </trkpt>
      <trkpt lat="46.9121" lon="6.94571">
        <ele>431.7</ele>
        <time>2022-09-30T09:58:07Z</time>
      </trkpt>
      <trkpt lat="46.91213" lon="6.94576">
        <ele>431.6</ele>
        <time>2022-09-30T09:58:08Z</time>
      </trkpt>
      <trkpt lat="46.91216" lon="6.94581">
        <ele>431.6</ele>
        <time>2022-09-30T09:58:09Z</time>
      </trkpt>
      <trkpt lat="46.91219" lon="6.94585">
        <ele>431.6</ele>
        <time>2022-09-30T09:58:10Z</time>
      </trkpt>
      <trkpt lat="46.91221" lon="6.9459">
        <ele>431.6</ele>
        <time>2022-09-30T09:58:11Z</time>
      </trkpt>
      <trkpt lat="46.91223" lon="6.94594">
        <ele>431.6</ele>
        <time>2022-09-30T09:58:12Z</time>
      </trkpt>
      <trkpt lat="46.91226" lon="6.94598">
        <ele>431.6</ele>
        <time>2022-09-30T09:58:13Z</time>
      </trkpt>
      <trkpt lat="46.91229" lon="6.94603">
        <ele>431.6</ele>
        <time>2022-09-30T09:58:14Z</time>
      </trkpt>
      <trkpt lat="46.91232" lon="6.94609">
        <ele>431.6</ele>
        <time>2022-09-30T09:58:15Z</time>
      </trkpt>
      <trkpt lat="46.91235" lon="6.94613">
        <ele>431.6</ele>
        <time>2022-09-30T09:58:16Z</time>
      </trkpt>
      <trkpt lat="46.91238" lon="6.94618">
        <ele>431.6</ele>
        <time>2022-09-30T09:58:17Z</time>
      </trkpt>
      <trkpt lat="46.91241" lon="6.94622">
        <ele>431.6</ele>
        <time>2022-09-30T09:58:18Z</time>
      </trkpt>
      <trkpt lat="46.91243" lon="6.94626">
        <ele>431.7</ele>
        <time>2022-09-30T09:58:19Z</time>
      </trkpt>
      <trkpt lat="46.91246" lon="6.94631">
        <ele>431.7</ele>
        <time>2022-09-30T09:58:20Z</time>
      </trkpt>
      <trkpt lat="46.91249" lon="6.94636">
        <ele>431.7</ele>
        <time>2022-09-30T09:58:21Z</time>
      </trkpt>
      <trkpt lat="46.91252" lon="6.9464">
        <ele>431.7</ele>
        <time>2022-09-30T09:58:22Z</time>
      </trkpt>
      <trkpt lat="46.91255" lon="6.94646">
        <ele>431.7</ele>
        <time>2022-09-30T09:58:23Z</time>
      </trkpt>
      <trkpt lat="46.91258" lon="6.94651">
        <ele>431.7</ele>
        <time>2022-09-30T09:58:24Z</time>
      </trkpt>
      <trkpt lat="46.91261" lon="6.94656">
        <ele>431.7</ele>
        <time>2022-09-30T09:58:25Z</time>
      </trkpt>
      <trkpt lat="46.91264" lon="6.94662">
        <ele>431.7</ele>
        <time>2022-09-30T09:58:26Z</time>
      </trkpt>
      <trkpt lat="46.91268" lon="6.94667">
        <ele>431.7</ele>
        <time>2022-09-30T09:58:27Z</time>
      </trkpt>
      <trkpt lat="46.9127" lon="6.94672">
        <ele>431.7</ele>
        <time>2022-09-30T09:58:28Z</time>
      </trkpt>
      <trkpt lat="46.91273" lon="6.94677">
        <ele>431.7</ele>
        <time>2022-09-30T09:58:29Z</time>
      </trkpt>
      <trkpt lat="46.91276" lon="6.94683">
        <ele>431.7</ele>
        <time>2022-09-30T09:58:30Z</time>
      </trkpt>
      <trkpt lat="46.91279" lon="6.94688">
        <ele>431.7</ele>
        <time>2022-09-30T09:58:31Z</time>
      </trkpt>
      <trkpt lat="46.91282" lon="6.94693">
        <ele>431.7</ele>
        <time>2022-09-30T09:58:32Z</time>
      </trkpt>
      <trkpt lat="46.91285" lon="6.94698">
        <ele>431.7</ele>
        <time>2022-09-30T09:58:33Z</time>
      </trkpt>
      <trkpt lat="46.91288" lon="6.94704">
        <ele>431.7</ele>
        <time>2022-09-30T09:58:34Z</time>
      </trkpt>
      <trkpt lat="46.91292" lon="6.94709">
        <ele>431.7</ele>
        <time>2022-09-30T09:58:35Z</time>
      </trkpt>
      <trkpt lat="46.91295" lon="6.94714">
        <ele>431.7</ele>
        <time>2022-09-30T09:58:36Z</time>
      </trkpt>
      <trkpt lat="46.91298" lon="6.94719">
        <ele>431.7</ele>
        <time>2022-09-30T09:58:37Z</time>
      </trkpt>
      <trkpt lat="46.91301" lon="6.94725">
        <ele>431.7</ele>
        <time>2022-09-30T09:58:38Z</time>
      </trkpt>
      <trkpt lat="46.91305" lon="6.94729">
        <ele>431.7</ele>
        <time>2022-09-30T09:58:39Z</time>
      </trkpt>
      <trkpt lat="46.91307" lon="6.94734">
        <ele>431.7</ele>
        <time>2022-09-30T09:58:40Z</time>
      </trkpt>
      <trkpt lat="46.91311" lon="6.94741">
        <ele>431.7</ele>
        <time>2022-09-30T09:58:41Z</time>
      </trkpt>
      <trkpt lat="46.91316" lon="6.9475">
        <ele>431.7</ele>
        <time>2022-09-30T09:58:42Z</time>
      </trkpt>
      <trkpt lat="46.9132" lon="6.94759">
        <ele>431.7</ele>
        <time>2022-09-30T09:58:43Z</time>
      </trkpt>
      <trkpt lat="46.91324" lon="6.94766">
        <ele>431.7</ele>
        <time>2022-09-30T09:58:44Z</time>
      </trkpt>
      <trkpt lat="46.91328" lon="6.94773">
        <ele>431.7</ele>
        <time>2022-09-30T09:58:45Z</time>
      </trkpt>
      <trkpt lat="46.91331" lon="6.94778">
        <ele>431.7</ele>
        <time>2022-09-30T09:58:46Z</time>
      </trkpt>
      <trkpt lat="46.91334" lon="6.94785">
        <ele>431.6</ele>
        <time>2022-09-30T09:58:47Z</time>
      </trkpt>
      <trkpt lat="46.91336" lon="6.94788">
        <ele>431.6</ele>
        <time>2022-09-30T09:58:48Z</time>
      </trkpt>
      <trkpt lat="46.91337" lon="6.94789">
        <ele>431.6</ele>
        <time>2022-09-30T09:58:49Z</time>
      </trkpt>
      <trkpt lat="46.91338" lon="6.94789">
        <ele>431.6</ele>
        <time>2022-09-30T09:58:50Z</time>
      </trkpt>
      <trkpt lat="46.9134" lon="6.94791">
        <ele>431.6</ele>
        <time>2022-09-30T09:58:51Z</time>
      </trkpt>
      <trkpt lat="46.91342" lon="6.94794">
        <ele>431.6</ele>
        <time>2022-09-30T09:58:52Z</time>
      </trkpt>
      <trkpt lat="46.91344" lon="6.94798">
        <ele>431.6</ele>
        <time>2022-09-30T09:58:53Z</time>
      </trkpt>
      <trkpt lat="46.91346" lon="6.94802">
        <ele>431.6</ele>
        <time>2022-09-30T09:58:54Z</time>
      </trkpt>
      <trkpt lat="46.91348" lon="6.94806">
        <ele>431.6</ele>
        <time>2022-09-30T09:58:55Z</time>
      </trkpt>
      <trkpt lat="46.91351" lon="6.94811">
        <ele>431.5</ele>
        <time>2022-09-30T09:58:56Z</time>
      </trkpt>
      <trkpt lat="46.91354" lon="6.94816">
        <ele>431.5</ele>
        <time>2022-09-30T09:58:57Z</time>
      </trkpt>
      <trkpt lat="46.91356" lon="6.94818">
        <ele>431.5</ele>
        <time>2022-09-30T09:58:58Z</time>
      </trkpt>
      <trkpt lat="46.91359" lon="6.94822">
        <ele>431.5</ele>
        <time>2022-09-30T09:58:59Z</time>
      </trkpt>
      <trkpt lat="46.91362" lon="6.94826">
        <ele>431.6</ele>
        <time>2022-09-30T09:59:00Z</time>
      </trkpt>
      <trkpt lat="46.91365" lon="6.94829">
        <ele>431.6</ele>
        <time>2022-09-30T09:59:01Z</time>
      </trkpt>
      <trkpt lat="46.91368" lon="6.94832">
        <ele>431.6</ele>
        <time>2022-09-30T09:59:02Z</time>
      </trkpt>
      <trkpt lat="46.9137" lon="6.94835">
        <ele>431.6</ele>
        <time>2022-09-30T09:59:03Z</time>
      </trkpt>
      <trkpt lat="46.91373" lon="6.94838">
        <ele>431.6</ele>
        <time>2022-09-30T09:59:04Z</time>
      </trkpt>
      <trkpt lat="46.91376" lon="6.94845">
        <ele>431.6</ele>
        <time>2022-09-30T09:59:05Z</time>
      </trkpt>
      <trkpt lat="46.91378" lon="6.94849">
        <ele>431.6</ele>
        <time>2022-09-30T09:59:06Z</time>
      </trkpt>
      <trkpt lat="46.9138" lon="6.94852">
        <ele>431.6</ele>
        <time>2022-09-30T09:59:07Z</time>
      </trkpt>
      <trkpt lat="46.91383" lon="6.94858">
        <ele>431.6</ele>
        <time>2022-09-30T09:59:08Z</time>
      </trkpt>
      <trkpt lat="46.91386" lon="6.94862">
        <ele>431.5</ele>
        <time>2022-09-30T09:59:09Z</time>
      </trkpt>
      <trkpt lat="46.91389" lon="6.94868">
        <ele>431.5</ele>
        <time>2022-09-30T09:59:10Z</time>
      </trkpt>
      <trkpt lat="46.91393" lon="6.94873">
        <ele>431.5</ele>
        <time>2022-09-30T09:59:11Z</time>
      </trkpt>
      <trkpt lat="46.91396" lon="6.94879">
        <ele>431.5</ele>
        <time>2022-09-30T09:59:12Z</time>
      </trkpt>
      <trkpt lat="46.91399" lon="6.94885">
        <ele>431.5</ele>
        <time>2022-09-30T09:59:13Z</time>
      </trkpt>
      <trkpt lat="46.91402" lon="6.94892">
        <ele>431.6</ele>
        <time>2022-09-30T09:59:14Z</time>
      </trkpt>
      <trkpt lat="46.91405" lon="6.949">
        <ele>431.6</ele>
        <time>2022-09-30T09:59:15Z</time>
      </trkpt>
      <trkpt lat="46.91408" lon="6.94908">
        <ele>431.6</ele>
        <time>2022-09-30T09:59:16Z</time>
      </trkpt>
      <trkpt lat="46.91412" lon="6.94915">
        <ele>431.6</ele>
        <time>2022-09-30T09:59:17Z</time>
      </trkpt>
      <trkpt lat="46.91416" lon="6.94922">
        <ele>431.7</ele>
        <time>2022-09-30T09:59:18Z</time>
      </trkpt>
      <trkpt lat="46.9142" lon="6.9493">
        <ele>431.7</ele>
        <time>2022-09-30T09:59:19Z</time>
      </trkpt>
      <trkpt lat="46.91424" lon="6.94934">
        <ele>431.7</ele>
        <time>2022-09-30T09:59:20Z</time>
      </trkpt>
      <trkpt lat="46.91426" lon="6.94936">
        <ele>431.7</ele>
        <time>2022-09-30T09:59:21Z</time>
      </trkpt>
      <trkpt lat="46.91426" lon="6.94937">
        <ele>431.7</ele>
        <time>2022-09-30T09:59:22Z</time>
      </trkpt>
      <trkpt lat="46.91427" lon="6.94938">
        <ele>431.7</ele>
        <time>2022-09-30T09:59:23Z</time>
      </trkpt>
      <trkpt lat="46.9143" lon="6.94942">
        <ele>431.7</ele>
        <time>2022-09-30T09:59:24Z</time>
      </trkpt>
      <trkpt lat="46.91433" lon="6.94946">
        <ele>431.8</ele>
        <time>2022-09-30T09:59:25Z</time>
      </trkpt>
      <trkpt lat="46.91434" lon="6.94948">
        <ele>431.8</ele>
        <time>2022-09-30T09:59:26Z</time>
      </trkpt>
      <trkpt lat="46.91436" lon="6.94952">
        <ele>431.8</ele>
        <time>2022-09-30T09:59:27Z</time>
      </trkpt>
      <trkpt lat="46.91438" lon="6.94955">
        <ele>431.8</ele>
        <time>2022-09-30T09:59:28Z</time>
      </trkpt>
      <trkpt lat="46.91441" lon="6.94958">
        <ele>431.8</ele>
        <time>2022-09-30T09:59:29Z</time>
      </trkpt>
      <trkpt lat="46.91445" lon="6.94962">
        <ele>431.8</ele>
        <time>2022-09-30T09:59:30Z</time>
      </trkpt>
      <trkpt lat="46.91447" lon="6.94964">
        <ele>431.8</ele>
        <time>2022-09-30T09:59:31Z</time>
      </trkpt>
      <trkpt lat="46.91449" lon="6.94969">
        <ele>431.9</ele>
        <time>2022-09-30T09:59:32Z</time>
      </trkpt>
      <trkpt lat="46.91452" lon="6.94973">
        <ele>431.9</ele>
        <time>2022-09-30T09:59:33Z</time>
      </trkpt>
      <trkpt lat="46.91454" lon="6.94979">
        <ele>431.9</ele>
        <time>2022-09-30T09:59:34Z</time>
      </trkpt>
      <trkpt lat="46.91457" lon="6.94984">
        <ele>431.9</ele>
        <time>2022-09-30T09:59:35Z</time>
      </trkpt>
      <trkpt lat="46.91459" lon="6.94989">
        <ele>431.9</ele>
        <time>2022-09-30T09:59:36Z</time>
      </trkpt>
      <trkpt lat="46.91462" lon="6.94993">
        <ele>431.9</ele>
        <time>2022-09-30T09:59:37Z</time>
      </trkpt>
      <trkpt lat="46.91463" lon="6.94997">
        <ele>431.9</ele>
        <time>2022-09-30T09:59:38Z</time>
      </trkpt>
      <trkpt lat="46.91465" lon="6.95">
        <ele>432</ele>
        <time>2022-09-30T09:59:39Z</time>
      </trkpt>
      <trkpt lat="46.91467" lon="6.95004">
        <ele>432</ele>
        <time>2022-09-30T09:59:40Z</time>
      </trkpt>
      <trkpt lat="46.9147" lon="6.95009">
        <ele>432</ele>
        <time>2022-09-30T09:59:41Z</time>
      </trkpt>
      <trkpt lat="46.91471" lon="6.95011">
        <ele>432</ele>
        <time>2022-09-30T09:59:42Z</time>
      </trkpt>
      <trkpt lat="46.91473" lon="6.95014">
        <ele>432</ele>
        <time>2022-09-30T09:59:43Z</time>
      </trkpt>
      <trkpt lat="46.91475" lon="6.95017">
        <ele>432</ele>
        <time>2022-09-30T09:59:44Z</time>
      </trkpt>
      <trkpt lat="46.91478" lon="6.95021">
        <ele>432</ele>
        <time>2022-09-30T09:59:45Z</time>
      </trkpt>
      <trkpt lat="46.9148" lon="6.95025">
        <ele>432</ele>
        <time>2022-09-30T09:59:46Z</time>
      </trkpt>
      <trkpt lat="46.91483" lon="6.95029">
        <ele>432</ele>
        <time>2022-09-30T09:59:47Z</time>
      </trkpt>
      <trkpt lat="46.91485" lon="6.95032">
        <ele>432</ele>
        <time>2022-09-30T09:59:48Z</time>
      </trkpt>
      <trkpt lat="46.91488" lon="6.95036">
        <ele>432</ele>
        <time>2022-09-30T09:59:49Z</time>
      </trkpt>
      <trkpt lat="46.91489" lon="6.95038">
        <ele>432.1</ele>
        <time>2022-09-30T09:59:50Z</time>
      </trkpt>
      <trkpt lat="46.91491" lon="6.95042">
        <ele>432.1</ele>
        <time>2022-09-30T09:59:51Z</time>
      </trkpt>
      <trkpt lat="46.91494" lon="6.95047">
        <ele>432.1</ele>
        <time>2022-09-30T09:59:52Z</time>
      </trkpt>
      <trkpt lat="46.91497" lon="6.95051">
        <ele>432.1</ele>
        <time>2022-09-30T09:59:53Z</time>
      </trkpt>
      <trkpt lat="46.915" lon="6.95056">
        <ele>432.1</ele>
        <time>2022-09-30T09:59:54Z</time>
      </trkpt>
      <trkpt lat="46.91503" lon="6.95061">
        <ele>432.1</ele>
        <time>2022-09-30T09:59:55Z</time>
      </trkpt>
      <trkpt lat="46.91506" lon="6.95066">
        <ele>432.1</ele>
        <time>2022-09-30T09:59:56Z</time>
      </trkpt>
      <trkpt lat="46.91509" lon="6.9507">
        <ele>432.1</ele>
        <time>2022-09-30T09:59:57Z</time>
      </trkpt>
      <trkpt lat="46.91512" lon="6.95075">
        <ele>432.1</ele>
        <time>2022-09-30T09:59:58Z</time>
      </trkpt>
      <trkpt lat="46.91515" lon="6.9508">
        <ele>432.1</ele>
        <time>2022-09-30T09:59:59Z</time>
      </trkpt>
      <trkpt lat="46.91518" lon="6.95085">
        <ele>432.1</ele>
        <time>2022-09-30T10:00:00Z</time>
      </trkpt>
      <trkpt lat="46.91521" lon="6.95091">
        <ele>432.1</ele>
        <time>2022-09-30T10:00:01Z</time>
      </trkpt>
      <trkpt lat="46.91524" lon="6.95096">
        <ele>432.1</ele>
        <time>2022-09-30T10:00:02Z</time>
      </trkpt>
      <trkpt lat="46.91527" lon="6.95101">
        <ele>432.1</ele>
        <time>2022-09-30T10:00:03Z</time>
      </trkpt>
      <trkpt lat="46.91529" lon="6.95105">
        <ele>432.1</ele>
        <time>2022-09-30T10:00:04Z</time>
      </trkpt>
      <trkpt lat="46.91532" lon="6.9511">
        <ele>432.1</ele>
        <time>2022-09-30T10:00:05Z</time>
      </trkpt>
      <trkpt lat="46.91534" lon="6.95114">
        <ele>432.1</ele>
        <time>2022-09-30T10:00:06Z</time>
      </trkpt>
      <trkpt lat="46.91537" lon="6.95118">
        <ele>432.2</ele>
        <time>2022-09-30T10:00:07Z</time>
      </trkpt>
      <trkpt lat="46.91539" lon="6.95123">
        <ele>432.2</ele>
        <time>2022-09-30T10:00:08Z</time>
      </trkpt>
      <trkpt lat="46.91542" lon="6.95128">
        <ele>432.2</ele>
        <time>2022-09-30T10:00:09Z</time>
      </trkpt>
      <trkpt lat="46.91545" lon="6.95133">
        <ele>432.2</ele>
        <time>2022-09-30T10:00:10Z</time>
      </trkpt>
      <trkpt lat="46.91548" lon="6.95139">
        <ele>432.2</ele>
        <time>2022-09-30T10:00:11Z</time>
      </trkpt>
      <trkpt lat="46.91551" lon="6.95142">
        <ele>432.3</ele>
        <time>2022-09-30T10:00:12Z</time>
      </trkpt>
      <trkpt lat="46.91554" lon="6.95146">
        <ele>432.3</ele>
        <time>2022-09-30T10:00:13Z</time>
      </trkpt>
      <trkpt lat="46.91556" lon="6.95151">
        <ele>432.3</ele>
        <time>2022-09-30T10:00:14Z</time>
      </trkpt>
      <trkpt lat="46.91559" lon="6.95155">
        <ele>432.3</ele>
        <time>2022-09-30T10:00:15Z</time>
      </trkpt>
      <trkpt lat="46.91562" lon="6.9516">
        <ele>432.3</ele>
        <time>2022-09-30T10:00:16Z</time>
      </trkpt>
      <trkpt lat="46.91565" lon="6.95165">
        <ele>432.4</ele>
        <time>2022-09-30T10:00:17Z</time>
      </trkpt>
      <trkpt lat="46.91568" lon="6.95169">
        <ele>432.4</ele>
        <time>2022-09-30T10:00:18Z</time>
      </trkpt>
      <trkpt lat="46.9157" lon="6.95172">
        <ele>432.4</ele>
        <time>2022-09-30T10:00:19Z</time>
      </trkpt>
      <trkpt lat="46.91573" lon="6.95176">
        <ele>432.4</ele>
        <time>2022-09-30T10:00:20Z</time>
      </trkpt>
      <trkpt lat="46.91575" lon="6.9518">
        <ele>432.5</ele>
        <time>2022-09-30T10:00:21Z</time>
      </trkpt>
      <trkpt lat="46.91578" lon="6.95184">
        <ele>432.5</ele>
        <time>2022-09-30T10:00:22Z</time>
      </trkpt>
      <trkpt lat="46.9158" lon="6.95188">
        <ele>432.5</ele>
        <time>2022-09-30T10:00:23Z</time>
      </trkpt>
      <trkpt lat="46.91582" lon="6.95192">
        <ele>432.5</ele>
        <time>2022-09-30T10:00:24Z</time>
      </trkpt>
      <trkpt lat="46.91586" lon="6.95196">
        <ele>432.6</ele>
        <time>2022-09-30T10:00:25Z</time>
      </trkpt>
      <trkpt lat="46.91588" lon="6.952">
        <ele>432.6</ele>
        <time>2022-09-30T10:00:26Z</time>
      </trkpt>
      <trkpt lat="46.91591" lon="6.95204">
        <ele>432.6</ele>
        <time>2022-09-30T10:00:27Z</time>
      </trkpt>
      <trkpt lat="46.91593" lon="6.95209">
        <ele>432.6</ele>
        <time>2022-09-30T10:00:28Z</time>
      </trkpt>
      <trkpt lat="46.91595" lon="6.95214">
        <ele>432.6</ele>
        <time>2022-09-30T10:00:29Z</time>
      </trkpt>
      <trkpt lat="46.91598" lon="6.95218">
        <ele>432.6</ele>
        <time>2022-09-30T10:00:30Z</time>
      </trkpt>
      <trkpt lat="46.91601" lon="6.95223">
        <ele>432.6</ele>
        <time>2022-09-30T10:00:31Z</time>
      </trkpt>
      <trkpt lat="46.91603" lon="6.95227">
        <ele>432.6</ele>
        <time>2022-09-30T10:00:32Z</time>
      </trkpt>
      <trkpt lat="46.91606" lon="6.95232">
        <ele>432.6</ele>
        <time>2022-09-30T10:00:33Z</time>
      </trkpt>
      <trkpt lat="46.91609" lon="6.95237">
        <ele>432.7</ele>
        <time>2022-09-30T10:00:34Z</time>
      </trkpt>
      <trkpt lat="46.91612" lon="6.95241">
        <ele>432.7</ele>
        <time>2022-09-30T10:00:35Z</time>
      </trkpt>
      <trkpt lat="46.91614" lon="6.95246">
        <ele>432.7</ele>
        <time>2022-09-30T10:00:36Z</time>
      </trkpt>
      <trkpt lat="46.91617" lon="6.95252">
        <ele>432.7</ele>
        <time>2022-09-30T10:00:37Z</time>
      </trkpt>
      <trkpt lat="46.9162" lon="6.95256">
        <ele>432.7</ele>
        <time>2022-09-30T10:00:38Z</time>
      </trkpt>
      <trkpt lat="46.91622" lon="6.95261">
        <ele>432.7</ele>
        <time>2022-09-30T10:00:39Z</time>
      </trkpt>
      <trkpt lat="46.91625" lon="6.95266">
        <ele>432.7</ele>
        <time>2022-09-30T10:00:40Z</time>
      </trkpt>
      <trkpt lat="46.91628" lon="6.9527">
        <ele>432.7</ele>
        <time>2022-09-30T10:00:41Z</time>
      </trkpt>
      <trkpt lat="46.91631" lon="6.95274">
        <ele>432.7</ele>
        <time>2022-09-30T10:00:42Z</time>
      </trkpt>
      <trkpt lat="46.91634" lon="6.95278">
        <ele>432.7</ele>
        <time>2022-09-30T10:00:43Z</time>
      </trkpt>
      <trkpt lat="46.91637" lon="6.95283">
        <ele>432.7</ele>
        <time>2022-09-30T10:00:44Z</time>
      </trkpt>
      <trkpt lat="46.9164" lon="6.95288">
        <ele>432.7</ele>
        <time>2022-09-30T10:00:45Z</time>
      </trkpt>
      <trkpt lat="46.91643" lon="6.95292">
        <ele>432.7</ele>
        <time>2022-09-30T10:00:46Z</time>
      </trkpt>
      <trkpt lat="46.91646" lon="6.95297">
        <ele>432.7</ele>
        <time>2022-09-30T10:00:47Z</time>
      </trkpt>
      <trkpt lat="46.91649" lon="6.95301">
        <ele>432.7</ele>
        <time>2022-09-30T10:00:48Z</time>
      </trkpt>
      <trkpt lat="46.91651" lon="6.95305">
        <ele>432.7</ele>
        <time>2022-09-30T10:00:49Z</time>
      </trkpt>
      <trkpt lat="46.91655" lon="6.9531">
        <ele>432.7</ele>
        <time>2022-09-30T10:00:50Z</time>
      </trkpt>
      <trkpt lat="46.91658" lon="6.95315">
        <ele>432.7</ele>
        <time>2022-09-30T10:00:51Z</time>
      </trkpt>
      <trkpt lat="46.91661" lon="6.95319">
        <ele>432.7</ele>
        <time>2022-09-30T10:00:52Z</time>
      </trkpt>
      <trkpt lat="46.91664" lon="6.95324">
        <ele>432.7</ele>
        <time>2022-09-30T10:00:53Z</time>
      </trkpt>
      <trkpt lat="46.91666" lon="6.95329">
        <ele>432.8</ele>
        <time>2022-09-30T10:00:54Z</time>
      </trkpt>
      <trkpt lat="46.91669" lon="6.95334">
        <ele>432.8</ele>
        <time>2022-09-30T10:00:55Z</time>
      </trkpt>
      <trkpt lat="46.91672" lon="6.95339">
        <ele>432.8</ele>
        <time>2022-09-30T10:00:56Z</time>
      </trkpt>
      <trkpt lat="46.91675" lon="6.95344">
        <ele>432.8</ele>
        <time>2022-09-30T10:00:57Z</time>
      </trkpt>
      <trkpt lat="46.91678" lon="6.95349">
        <ele>432.8</ele>
        <time>2022-09-30T10:00:58Z</time>
      </trkpt>
      <trkpt lat="46.9168" lon="6.95353">
        <ele>432.8</ele>
        <time>2022-09-30T10:00:59Z</time>
      </trkpt>
      <trkpt lat="46.91683" lon="6.95358">
        <ele>432.8</ele>
        <time>2022-09-30T10:01:00Z</time>
      </trkpt>
      <trkpt lat="46.91686" lon="6.95363">
        <ele>432.8</ele>
        <time>2022-09-30T10:01:01Z</time>
      </trkpt>
      <trkpt lat="46.91688" lon="6.95368">
        <ele>432.8</ele>
        <time>2022-09-30T10:01:02Z</time>
      </trkpt>
      <trkpt lat="46.91691" lon="6.95373">
        <ele>432.8</ele>
        <time>2022-09-30T10:01:03Z</time>
      </trkpt>
      <trkpt lat="46.91694" lon="6.95378">
        <ele>432.8</ele>
        <time>2022-09-30T10:01:04Z</time>
      </trkpt>
      <trkpt lat="46.91697" lon="6.95383">
        <ele>432.8</ele>
        <time>2022-09-30T10:01:05Z</time>
      </trkpt>
      <trkpt lat="46.917" lon="6.95388">
        <ele>432.9</ele>
        <time>2022-09-30T10:01:06Z</time>
      </trkpt>
      <trkpt lat="46.91702" lon="6.95394">
        <ele>432.9</ele>
        <time>2022-09-30T10:01:07Z</time>
      </trkpt>
      <trkpt lat="46.91705" lon="6.95399">
        <ele>432.9</ele>
        <time>2022-09-30T10:01:08Z</time>
      </trkpt>
      <trkpt lat="46.91709" lon="6.95404">
        <ele>432.9</ele>
        <time>2022-09-30T10:01:09Z</time>
      </trkpt>
      <trkpt lat="46.91712" lon="6.95409">
        <ele>432.9</ele>
        <time>2022-09-30T10:01:10Z</time>
      </trkpt>
      <trkpt lat="46.91716" lon="6.95412">
        <ele>432.9</ele>
        <time>2022-09-30T10:01:11Z</time>
      </trkpt>
      <trkpt lat="46.9172" lon="6.95415">
        <ele>433</ele>
        <time>2022-09-30T10:01:12Z</time>
      </trkpt>
      <trkpt lat="46.91725" lon="6.95416">
        <ele>433</ele>
        <time>2022-09-30T10:01:13Z</time>
      </trkpt>
      <trkpt lat="46.91729" lon="6.95418">
        <ele>433</ele>
        <time>2022-09-30T10:01:14Z</time>
      </trkpt>
      <trkpt lat="46.91733" lon="6.95421">
        <ele>433</ele>
        <time>2022-09-30T10:01:15Z</time>
      </trkpt>
      <trkpt lat="46.91737" lon="6.95424">
        <ele>433.1</ele>
        <time>2022-09-30T10:01:16Z</time>
      </trkpt>
      <trkpt lat="46.91741" lon="6.95427">
        <ele>433.1</ele>
        <time>2022-09-30T10:01:17Z</time>
      </trkpt>
      <trkpt lat="46.91745" lon="6.9543">
        <ele>433.1</ele>
        <time>2022-09-30T10:01:18Z</time>
      </trkpt>
      <trkpt lat="46.91749" lon="6.95432">
        <ele>433.1</ele>
        <time>2022-09-30T10:01:19Z</time>
      </trkpt>
      <trkpt lat="46.91754" lon="6.95434">
        <ele>433.1</ele>
        <time>2022-09-30T10:01:20Z</time>
      </trkpt>
      <trkpt lat="46.91757" lon="6.95437">
        <ele>433.1</ele>
        <time>2022-09-30T10:01:21Z</time>
      </trkpt>
      <trkpt lat="46.91761" lon="6.9544">
        <ele>433.1</ele>
        <time>2022-09-30T10:01:22Z</time>
      </trkpt>
      <trkpt lat="46.91765" lon="6.95442">
        <ele>433.2</ele>
        <time>2022-09-30T10:01:23Z</time>
      </trkpt>
      <trkpt lat="46.9177" lon="6.95444">
        <ele>433.2</ele>
        <time>2022-09-30T10:01:24Z</time>
      </trkpt>
      <trkpt lat="46.91774" lon="6.95447">
        <ele>433.2</ele>
        <time>2022-09-30T10:01:25Z</time>
      </trkpt>
      <trkpt lat="46.91778" lon="6.95448">
        <ele>433.3</ele>
        <time>2022-09-30T10:01:26Z</time>
      </trkpt>
      <trkpt lat="46.91782" lon="6.95449">
        <ele>433.3</ele>
        <time>2022-09-30T10:01:27Z</time>
      </trkpt>
      <trkpt lat="46.91786" lon="6.95448">
        <ele>433.3</ele>
        <time>2022-09-30T10:01:28Z</time>
      </trkpt>
      <trkpt lat="46.9179" lon="6.9545">
        <ele>433.4</ele>
        <time>2022-09-30T10:01:29Z</time>
      </trkpt>
      <trkpt lat="46.91791" lon="6.95451">
        <ele>433.4</ele>
        <time>2022-09-30T10:01:30Z</time>
      </trkpt>
      <trkpt lat="46.91795" lon="6.95453">
        <ele>433.4</ele>
        <time>2022-09-30T10:01:31Z</time>
      </trkpt>
      <trkpt lat="46.918" lon="6.95455">
        <ele>433.5</ele>
        <time>2022-09-30T10:01:32Z</time>
      </trkpt>
      <trkpt lat="46.91804" lon="6.95457">
        <ele>433.5</ele>
        <time>2022-09-30T10:01:33Z</time>
      </trkpt>
      <trkpt lat="46.91807" lon="6.9546">
        <ele>433.7</ele>
        <time>2022-09-30T10:01:34Z</time>
      </trkpt>
      <trkpt lat="46.9181" lon="6.95465">
        <ele>433.8</ele>
        <time>2022-09-30T10:01:35Z</time>
      </trkpt>
      <trkpt lat="46.91812" lon="6.95468">
        <ele>433.9</ele>
        <time>2022-09-30T10:01:36Z</time>
      </trkpt>
      <trkpt lat="46.91813" lon="6.95472">
        <ele>433.9</ele>
        <time>2022-09-30T10:01:37Z</time>
      </trkpt>
      <trkpt lat="46.91814" lon="6.95478">
        <ele>434</ele>
        <time>2022-09-30T10:01:38Z</time>
      </trkpt>
      <trkpt lat="46.91814" lon="6.9548">
        <ele>434.1</ele>
        <time>2022-09-30T10:01:39Z</time>
      </trkpt>
      <trkpt lat="46.91814" lon="6.95486">
        <ele>434.2</ele>
        <time>2022-09-30T10:01:40Z</time>
      </trkpt>
      <trkpt lat="46.91814" lon="6.9549">
        <ele>434.2</ele>
        <time>2022-09-30T10:01:41Z</time>
      </trkpt>
      <trkpt lat="46.91813" lon="6.95495">
        <ele>434.3</ele>
        <time>2022-09-30T10:01:42Z</time>
      </trkpt>
      <trkpt lat="46.91811" lon="6.955">
        <ele>434.4</ele>
        <time>2022-09-30T10:01:43Z</time>
      </trkpt>
      <trkpt lat="46.9181" lon="6.95503">
        <ele>434.5</ele>
        <time>2022-09-30T10:01:44Z</time>
      </trkpt>
      <trkpt lat="46.91809" lon="6.95507">
        <ele>434.5</ele>
        <time>2022-09-30T10:01:45Z</time>
      </trkpt>
      <trkpt lat="46.91807" lon="6.95512">
        <ele>434.6</ele>
        <time>2022-09-30T10:01:46Z</time>
      </trkpt>
      <trkpt lat="46.91806" lon="6.95513">
        <ele>434.6</ele>
        <time>2022-09-30T10:01:47Z</time>
      </trkpt>
      <trkpt lat="46.91804" lon="6.95516">
        <ele>434.8</ele>
        <time>2022-09-30T10:01:48Z</time>
      </trkpt>
      <trkpt lat="46.91801" lon="6.95521">
        <ele>434.9</ele>
        <time>2022-09-30T10:01:49Z</time>
      </trkpt>
      <trkpt lat="46.918" lon="6.95523">
        <ele>434.9</ele>
        <time>2022-09-30T10:01:50Z</time>
      </trkpt>
      <trkpt lat="46.91799" lon="6.95526">
        <ele>434.9</ele>
        <time>2022-09-30T10:01:51Z</time>
      </trkpt>
      <trkpt lat="46.91798" lon="6.95531">
        <ele>435</ele>
        <time>2022-09-30T10:01:52Z</time>
      </trkpt>
      <trkpt lat="46.91797" lon="6.95535">
        <ele>435.1</ele>
        <time>2022-09-30T10:01:53Z</time>
      </trkpt>
      <trkpt lat="46.91796" lon="6.95539">
        <ele>435.1</ele>
        <time>2022-09-30T10:01:54Z</time>
      </trkpt>
      <trkpt lat="46.91795" lon="6.95544">
        <ele>435.2</ele>
        <time>2022-09-30T10:01:55Z</time>
      </trkpt>
      <trkpt lat="46.91795" lon="6.95546">
        <ele>435.2</ele>
        <time>2022-09-30T10:01:56Z</time>
      </trkpt>
      <trkpt lat="46.91794" lon="6.95551">
        <ele>435.3</ele>
        <time>2022-09-30T10:01:57Z</time>
      </trkpt>
      <trkpt lat="46.91795" lon="6.95555">
        <ele>435.3</ele>
        <time>2022-09-30T10:01:58Z</time>
      </trkpt>
      <trkpt lat="46.91796" lon="6.95561">
        <ele>435.4</ele>
        <time>2022-09-30T10:01:59Z</time>
      </trkpt>
      <trkpt lat="46.91796" lon="6.95563">
        <ele>435.4</ele>
        <time>2022-09-30T10:02:00Z</time>
      </trkpt>
      <trkpt lat="46.91797" lon="6.95568">
        <ele>435.5</ele>
        <time>2022-09-30T10:02:01Z</time>
      </trkpt>
      <trkpt lat="46.91796" lon="6.95572">
        <ele>435.6</ele>
        <time>2022-09-30T10:02:02Z</time>
      </trkpt>
      <trkpt lat="46.91796" lon="6.95577">
        <ele>435.6</ele>
        <time>2022-09-30T10:02:03Z</time>
      </trkpt>
      <trkpt lat="46.91796" lon="6.95582">
        <ele>435.7</ele>
        <time>2022-09-30T10:02:04Z</time>
      </trkpt>
      <trkpt lat="46.91795" lon="6.95583">
        <ele>435.7</ele>
        <time>2022-09-30T10:02:05Z</time>
      </trkpt>
      <trkpt lat="46.91794" lon="6.95589">
        <ele>435.8</ele>
        <time>2022-09-30T10:02:06Z</time>
      </trkpt>
      <trkpt lat="46.91794" lon="6.95591">
        <ele>435.9</ele>
        <time>2022-09-30T10:02:07Z</time>
      </trkpt>
      <trkpt lat="46.91794" lon="6.95596">
        <ele>436.1</ele>
        <time>2022-09-30T10:02:08Z</time>
      </trkpt>
      <trkpt lat="46.91794" lon="6.95598">
        <ele>436.1</ele>
        <time>2022-09-30T10:02:09Z</time>
      </trkpt>
      <trkpt lat="46.91795" lon="6.95601">
        <ele>436.1</ele>
        <time>2022-09-30T10:02:10Z</time>
      </trkpt>
      <trkpt lat="46.91798" lon="6.95605">
        <ele>436.1</ele>
        <time>2022-09-30T10:02:11Z</time>
      </trkpt>
      <trkpt lat="46.91801" lon="6.95605">
        <ele>436.1</ele>
        <time>2022-09-30T10:02:12Z</time>
      </trkpt>
      <trkpt lat="46.91804" lon="6.95608">
        <ele>436.1</ele>
        <time>2022-09-30T10:02:13Z</time>
      </trkpt>
      <trkpt lat="46.91806" lon="6.9561">
        <ele>436.1</ele>
        <time>2022-09-30T10:02:14Z</time>
      </trkpt>
      <trkpt lat="46.91808" lon="6.95615">
        <ele>436.1</ele>
        <time>2022-09-30T10:02:15Z</time>
      </trkpt>
      <trkpt lat="46.91809" lon="6.95616">
        <ele>436.1</ele>
        <time>2022-09-30T10:02:16Z</time>
      </trkpt>
      <trkpt lat="46.9181" lon="6.95621">
        <ele>436.1</ele>
        <time>2022-09-30T10:02:17Z</time>
      </trkpt>
      <trkpt lat="46.9181" lon="6.95626">
        <ele>436.1</ele>
        <time>2022-09-30T10:02:18Z</time>
      </trkpt>
      <trkpt lat="46.9181" lon="6.95631">
        <ele>436.2</ele>
        <time>2022-09-30T10:02:19Z</time>
      </trkpt>
      <trkpt lat="46.9181" lon="6.95633">
        <ele>436.2</ele>
        <time>2022-09-30T10:02:20Z</time>
      </trkpt>
      <trkpt lat="46.91812" lon="6.95638">
        <ele>436.2</ele>
        <time>2022-09-30T10:02:21Z</time>
      </trkpt>
      <trkpt lat="46.91813" lon="6.95639">
        <ele>436.2</ele>
        <time>2022-09-30T10:02:22Z</time>
      </trkpt>
      <trkpt lat="46.91816" lon="6.95641">
        <ele>436.2</ele>
        <time>2022-09-30T10:02:23Z</time>
      </trkpt>
      <trkpt lat="46.91817" lon="6.95642">
        <ele>436.2</ele>
        <time>2022-09-30T10:02:24Z</time>
      </trkpt>
      <trkpt lat="46.9182" lon="6.95644">
        <ele>436.2</ele>
        <time>2022-09-30T10:02:25Z</time>
      </trkpt>
      <trkpt lat="46.91823" lon="6.95646">
        <ele>436.2</ele>
        <time>2022-09-30T10:02:26Z</time>
      </trkpt>
      <trkpt lat="46.91825" lon="6.95647">
        <ele>436.7</ele>
        <time>2022-09-30T10:02:27Z</time>
      </trkpt>
      <trkpt lat="46.91827" lon="6.95651">
        <ele>437</ele>
        <time>2022-09-30T10:02:28Z</time>
      </trkpt>
      <trkpt lat="46.91827" lon="6.95653">
        <ele>437.1</ele>
        <time>2022-09-30T10:02:29Z</time>
      </trkpt>
      <trkpt lat="46.91826" lon="6.95658">
        <ele>437.4</ele>
        <time>2022-09-30T10:02:30Z</time>
      </trkpt>
      <trkpt lat="46.91825" lon="6.95659">
        <ele>437.5</ele>
        <time>2022-09-30T10:02:31Z</time>
      </trkpt>
      <trkpt lat="46.91824" lon="6.95661">
        <ele>437.7</ele>
        <time>2022-09-30T10:02:32Z</time>
      </trkpt>
      <trkpt lat="46.91823" lon="6.95662">
        <ele>437.8</ele>
        <time>2022-09-30T10:02:33Z</time>
      </trkpt>
      <trkpt lat="46.91823" lon="6.95662">
        <ele>437.8</ele>
        <time>2022-09-30T10:02:34Z</time>
      </trkpt>
      <trkpt lat="46.91824" lon="6.95663">
        <ele>437.8</ele>
        <time>2022-09-30T10:02:35Z</time>
      </trkpt>
      <trkpt lat="46.91824" lon="6.95664">
        <ele>437.9</ele>
        <time>2022-09-30T10:02:36Z</time>
      </trkpt>
      <trkpt lat="46.91824" lon="6.95665">
        <ele>437.9</ele>
        <time>2022-09-30T10:02:37Z</time>
      </trkpt>
      <trkpt lat="46.91824" lon="6.95665">
        <ele>438</ele>
        <time>2022-09-30T10:02:38Z</time>
      </trkpt>
      <trkpt lat="46.91824" lon="6.95666">
        <ele>438</ele>
        <time>2022-09-30T10:02:39Z</time>
      </trkpt>
      <trkpt lat="46.91824" lon="6.95667">
        <ele>438.1</ele>
        <time>2022-09-30T10:02:40Z</time>
      </trkpt>
      <trkpt lat="46.91824" lon="6.95668">
        <ele>438.1</ele>
        <time>2022-09-30T10:02:41Z</time>
      </trkpt>
      <trkpt lat="46.91824" lon="6.95668">
        <ele>438.2</ele>
        <time>2022-09-30T10:02:42Z</time>
      </trkpt>
      <trkpt lat="46.91824" lon="6.95669">
        <ele>438.2</ele>
        <time>2022-09-30T10:02:43Z</time>
      </trkpt>
      <trkpt lat="46.91825" lon="6.9567">
        <ele>438.3</ele>
        <time>2022-09-30T10:03:01Z</time>
      </trkpt>
      <trkpt lat="46.91825" lon="6.95671">
        <ele>438.3</ele>
        <time>2022-09-30T10:03:02Z</time>
      </trkpt>
      <trkpt lat="46.91825" lon="6.95672">
        <ele>438.3</ele>
        <time>2022-09-30T10:03:03Z</time>
      </trkpt>
      <trkpt lat="46.91825" lon="6.95671">
        <ele>438.4</ele>
        <time>2022-09-30T10:03:04Z</time>
      </trkpt>
      <trkpt lat="46.91825" lon="6.95671">
        <ele>438.4</ele>
        <time>2022-09-30T10:03:05Z</time>
      </trkpt>
      <trkpt lat="46.91825" lon="6.9567">
        <ele>438.5</ele>
        <time>2022-09-30T10:03:06Z</time>
      </trkpt>
      <trkpt lat="46.91826" lon="6.95669">
        <ele>438.5</ele>
        <time>2022-09-30T10:03:07Z</time>
      </trkpt>
      <trkpt lat="46.91826" lon="6.95669">
        <ele>438.6</ele>
        <time>2022-09-30T10:03:08Z</time>
      </trkpt>
      <trkpt lat="46.91827" lon="6.95669">
        <ele>438.6</ele>
        <time>2022-09-30T10:03:09Z</time>
      </trkpt>
      <trkpt lat="46.91826" lon="6.9567">
        <ele>438.7</ele>
        <time>2022-09-30T10:03:10Z</time>
      </trkpt>
      <trkpt lat="46.91826" lon="6.9567">
        <ele>438.7</ele>
        <time>2022-09-30T10:03:11Z</time>
      </trkpt>
      <trkpt lat="46.91827" lon="6.9567">
        <ele>438.7</ele>
        <time>2022-09-30T10:03:12Z</time>
      </trkpt>
      <trkpt lat="46.91827" lon="6.9567">
        <ele>438.8</ele>
        <time>2022-09-30T10:03:13Z</time>
      </trkpt>
      <trkpt lat="46.91822" lon="6.95672">
        <ele>439.1</ele>
        <time>2022-09-30T10:04:32Z</time>
      </trkpt>
      <trkpt lat="46.91823" lon="6.95671">
        <ele>439.2</ele>
        <time>2022-09-30T10:04:33Z</time>
      </trkpt>
      <trkpt lat="46.91823" lon="6.95671">
        <ele>439.2</ele>
        <time>2022-09-30T10:04:34Z</time>
      </trkpt>
      <trkpt lat="46.91824" lon="6.95671">
        <ele>439.3</ele>
        <time>2022-09-30T10:04:35Z</time>
      </trkpt>
      <trkpt lat="46.91824" lon="6.95671">
        <ele>439.4</ele>
        <time>2022-09-30T10:04:36Z</time>
      </trkpt>
      <trkpt lat="46.91823" lon="6.95672">
        <ele>439.4</ele>
        <time>2022-09-30T10:04:37Z</time>
      </trkpt>
      <trkpt lat="46.91823" lon="6.95672">
        <ele>439.4</ele>
        <time>2022-09-30T10:04:38Z</time>
      </trkpt>
      <trkpt lat="46.91823" lon="6.95672">
        <ele>439.5</ele>
        <time>2022-09-30T10:04:39Z</time>
      </trkpt>
      <trkpt lat="46.91823" lon="6.95672">
        <ele>439.5</ele>
        <time>2022-09-30T10:04:40Z</time>
      </trkpt>
      <trkpt lat="46.91824" lon="6.95672">
        <ele>439.5</ele>
        <time>2022-09-30T10:04:41Z</time>
      </trkpt>
      <trkpt lat="46.91824" lon="6.95674">
        <ele>439.6</ele>
        <time>2022-09-30T10:08:43Z</time>
      </trkpt>
      <trkpt lat="46.91825" lon="6.95673">
        <ele>439.7</ele>
        <time>2022-09-30T10:08:44Z</time>
      </trkpt>
      <trkpt lat="46.91826" lon="6.95673">
        <ele>439.7</ele>
        <time>2022-09-30T10:08:45Z</time>
      </trkpt>
      <trkpt lat="46.91826" lon="6.95672">
        <ele>439.8</ele>
        <time>2022-09-30T10:08:46Z</time>
      </trkpt>
      <trkpt lat="46.91827" lon="6.95672">
        <ele>439.9</ele>
        <time>2022-09-30T10:08:47Z</time>
      </trkpt>
      <trkpt lat="46.91827" lon="6.95672">
        <ele>439.9</ele>
        <time>2022-09-30T10:08:48Z</time>
      </trkpt>
      <trkpt lat="46.91827" lon="6.95671">
        <ele>439.9</ele>
        <time>2022-09-30T10:08:49Z</time>
      </trkpt>
      <trkpt lat="46.91827" lon="6.95671">
        <ele>440</ele>
        <time>2022-09-30T10:08:50Z</time>
      </trkpt>
      <trkpt lat="46.91828" lon="6.95671">
        <ele>440</ele>
        <time>2022-09-30T10:08:51Z</time>
      </trkpt>
      <trkpt lat="46.91827" lon="6.95671">
        <ele>440.1</ele>
        <time>2022-09-30T10:08:52Z</time>
      </trkpt>
      <trkpt lat="46.91827" lon="6.95672">
        <ele>440.1</ele>
        <time>2022-09-30T10:08:53Z</time>
      </trkpt>
      <trkpt lat="46.91827" lon="6.95672">
        <ele>440.1</ele>
        <time>2022-09-30T10:08:54Z</time>
      </trkpt>
      <trkpt lat="46.91827" lon="6.95671">
        <ele>440.2</ele>
        <time>2022-09-30T10:08:55Z</time>
      </trkpt>
      <trkpt lat="46.91828" lon="6.95672">
        <ele>440.2</ele>
        <time>2022-09-30T10:08:56Z</time>
      </trkpt>
      <trkpt lat="46.91828" lon="6.95673">
        <ele>440.3</ele>
        <time>2022-09-30T10:08:57Z</time>
      </trkpt>
      <trkpt lat="46.91829" lon="6.95675">
        <ele>440.4</ele>
        <time>2022-09-30T10:08:58Z</time>
      </trkpt>
      <trkpt lat="46.91829" lon="6.95678">
        <ele>440.6</ele>
        <time>2022-09-30T10:08:59Z</time>
      </trkpt>
      <trkpt lat="46.91829" lon="6.9568">
        <ele>440.7</ele>
        <time>2022-09-30T10:09:00Z</time>
      </trkpt>
      <trkpt lat="46.9183" lon="6.95681">
        <ele>440.8</ele>
        <time>2022-09-30T10:09:01Z</time>
      </trkpt>
      <trkpt lat="46.91829" lon="6.95683">
        <ele>440.9</ele>
        <time>2022-09-30T10:09:02Z</time>
      </trkpt>
      <trkpt lat="46.91829" lon="6.95684">
        <ele>441</ele>
        <time>2022-09-30T10:09:03Z</time>
      </trkpt>
      <trkpt lat="46.9183" lon="6.95689">
        <ele>441.3</ele>
        <time>2022-09-30T10:09:04Z</time>
      </trkpt>
      <trkpt lat="46.9183" lon="6.9569">
        <ele>441.4</ele>
        <time>2022-09-30T10:09:05Z</time>
      </trkpt>
      <trkpt lat="46.91829" lon="6.95694">
        <ele>441.7</ele>
        <time>2022-09-30T10:09:06Z</time>
      </trkpt>
      <trkpt lat="46.9183" lon="6.95698">
        <ele>442</ele>
        <time>2022-09-30T10:09:07Z</time>
      </trkpt>
      <trkpt lat="46.9183" lon="6.957">
        <ele>442.1</ele>
        <time>2022-09-30T10:09:08Z</time>
      </trkpt>
      <trkpt lat="46.91831" lon="6.95704">
        <ele>442.4</ele>
        <time>2022-09-30T10:09:09Z</time>
      </trkpt>
      <trkpt lat="46.91831" lon="6.95706">
        <ele>442.5</ele>
        <time>2022-09-30T10:09:10Z</time>
      </trkpt>
      <trkpt lat="46.91832" lon="6.95711">
        <ele>442.9</ele>
        <time>2022-09-30T10:09:11Z</time>
      </trkpt>
      <trkpt lat="46.91833" lon="6.95712">
        <ele>443</ele>
        <time>2022-09-30T10:09:12Z</time>
      </trkpt>
      <trkpt lat="46.91833" lon="6.95718">
        <ele>443.4</ele>
        <time>2022-09-30T10:09:13Z</time>
      </trkpt>
      <trkpt lat="46.91834" lon="6.95719">
        <ele>443.5</ele>
        <time>2022-09-30T10:09:14Z</time>
      </trkpt>
      <trkpt lat="46.91834" lon="6.95724">
        <ele>443.9</ele>
        <time>2022-09-30T10:09:15Z</time>
      </trkpt>
      <trkpt lat="46.91835" lon="6.95725">
        <ele>444</ele>
        <time>2022-09-30T10:09:16Z</time>
      </trkpt>
      <trkpt lat="46.91835" lon="6.95727">
        <ele>444.2</ele>
        <time>2022-09-30T10:09:17Z</time>
      </trkpt>
      <trkpt lat="46.91835" lon="6.9573">
        <ele>444.4</ele>
        <time>2022-09-30T10:09:18Z</time>
      </trkpt>
      <trkpt lat="46.91835" lon="6.95731">
        <ele>444.4</ele>
        <time>2022-09-30T10:09:19Z</time>
      </trkpt>
      <trkpt lat="46.91836" lon="6.95734">
        <ele>444.7</ele>
        <time>2022-09-30T10:09:20Z</time>
      </trkpt>
      <trkpt lat="46.91836" lon="6.95738">
        <ele>445</ele>
        <time>2022-09-30T10:09:21Z</time>
      </trkpt>
      <trkpt lat="46.91837" lon="6.95739">
        <ele>445.1</ele>
        <time>2022-09-30T10:09:22Z</time>
      </trkpt>
      <trkpt lat="46.91837" lon="6.9574">
        <ele>445.2</ele>
        <time>2022-09-30T10:09:23Z</time>
      </trkpt>
      <trkpt lat="46.91838" lon="6.95743">
        <ele>445.5</ele>
        <time>2022-09-30T10:09:24Z</time>
      </trkpt>
      <trkpt lat="46.91839" lon="6.95745">
        <ele>445.6</ele>
        <time>2022-09-30T10:09:25Z</time>
      </trkpt>
      <trkpt lat="46.91839" lon="6.95748">
        <ele>445.8</ele>
        <time>2022-09-30T10:09:26Z</time>
      </trkpt>
      <trkpt lat="46.91839" lon="6.95749">
        <ele>446</ele>
        <time>2022-09-30T10:09:27Z</time>
      </trkpt>
      <trkpt lat="46.9184" lon="6.95751">
        <ele>446.2</ele>
        <time>2022-09-30T10:09:28Z</time>
      </trkpt>
      <trkpt lat="46.91841" lon="6.95752">
        <ele>446.3</ele>
        <time>2022-09-30T10:09:29Z</time>
      </trkpt>
      <trkpt lat="46.91842" lon="6.95754">
        <ele>446.5</ele>
        <time>2022-09-30T10:09:30Z</time>
      </trkpt>
      <trkpt lat="46.91842" lon="6.95755">
        <ele>446.6</ele>
        <time>2022-09-30T10:09:31Z</time>
      </trkpt>
      <trkpt lat="46.91843" lon="6.95759">
        <ele>447</ele>
        <time>2022-09-30T10:09:32Z</time>
      </trkpt>
      <trkpt lat="46.91843" lon="6.9576">
        <ele>447.1</ele>
        <time>2022-09-30T10:09:33Z</time>
      </trkpt>
      <trkpt lat="46.91843" lon="6.95762">
        <ele>447.2</ele>
        <time>2022-09-30T10:09:34Z</time>
      </trkpt>
      <trkpt lat="46.91844" lon="6.95763">
        <ele>447.3</ele>
        <time>2022-09-30T10:09:35Z</time>
      </trkpt>
      <trkpt lat="46.91845" lon="6.95765">
        <ele>447.5</ele>
        <time>2022-09-30T10:09:36Z</time>
      </trkpt>
      <trkpt lat="46.91845" lon="6.95768">
        <ele>447.7</ele>
        <time>2022-09-30T10:09:37Z</time>
      </trkpt>
      <trkpt lat="46.91846" lon="6.9577">
        <ele>447.9</ele>
        <time>2022-09-30T10:09:38Z</time>
      </trkpt>
      <trkpt lat="46.91846" lon="6.95771">
        <ele>448</ele>
        <time>2022-09-30T10:09:39Z</time>
      </trkpt>
      <trkpt lat="46.91846" lon="6.95772">
        <ele>448.1</ele>
        <time>2022-09-30T10:09:40Z</time>
      </trkpt>
      <trkpt lat="46.91847" lon="6.95775">
        <ele>448.4</ele>
        <time>2022-09-30T10:09:41Z</time>
      </trkpt>
      <trkpt lat="46.91847" lon="6.95776">
        <ele>448.5</ele>
        <time>2022-09-30T10:09:42Z</time>
      </trkpt>
      <trkpt lat="46.91848" lon="6.9578">
        <ele>448.8</ele>
        <time>2022-09-30T10:09:43Z</time>
      </trkpt>
      <trkpt lat="46.91849" lon="6.95782">
        <ele>449</ele>
        <time>2022-09-30T10:09:45Z</time>
      </trkpt>
      <trkpt lat="46.9185" lon="6.95783">
        <ele>449.1</ele>
        <time>2022-09-30T10:09:46Z</time>
      </trkpt>
      <trkpt lat="46.9185" lon="6.95785">
        <ele>449.3</ele>
        <time>2022-09-30T10:09:47Z</time>
      </trkpt>
      <trkpt lat="46.9185" lon="6.95788">
        <ele>449.6</ele>
        <time>2022-09-30T10:09:48Z</time>
      </trkpt>
      <trkpt lat="46.9185" lon="6.9579">
        <ele>449.8</ele>
        <time>2022-09-30T10:09:49Z</time>
      </trkpt>
      <trkpt lat="46.91851" lon="6.95791">
        <ele>449.9</ele>
        <time>2022-09-30T10:09:50Z</time>
      </trkpt>
      <trkpt lat="46.91851" lon="6.95792">
        <ele>450</ele>
        <time>2022-09-30T10:09:51Z</time>
      </trkpt>
      <trkpt lat="46.91852" lon="6.95796">
        <ele>450.3</ele>
        <time>2022-09-30T10:09:52Z</time>
      </trkpt>
      <trkpt lat="46.91853" lon="6.95797">
        <ele>450.4</ele>
        <time>2022-09-30T10:09:53Z</time>
      </trkpt>
      <trkpt lat="46.91855" lon="6.95802">
        <ele>450.9</ele>
        <time>2022-09-30T10:09:54Z</time>
      </trkpt>
      <trkpt lat="46.91855" lon="6.95803">
        <ele>451</ele>
        <time>2022-09-30T10:09:55Z</time>
      </trkpt>
      <trkpt lat="46.91857" lon="6.95807">
        <ele>451.3</ele>
        <time>2022-09-30T10:09:56Z</time>
      </trkpt>
      <trkpt lat="46.91857" lon="6.9581">
        <ele>451.6</ele>
        <time>2022-09-30T10:09:57Z</time>
      </trkpt>
      <trkpt lat="46.91858" lon="6.95812">
        <ele>451.8</ele>
        <time>2022-09-30T10:09:58Z</time>
      </trkpt>
      <trkpt lat="46.91859" lon="6.95813">
        <ele>451.9</ele>
        <time>2022-09-30T10:09:59Z</time>
      </trkpt>
      <trkpt lat="46.9186" lon="6.95816">
        <ele>452.2</ele>
        <time>2022-09-30T10:10:00Z</time>
      </trkpt>
      <trkpt lat="46.9186" lon="6.95817">
        <ele>452.2</ele>
        <time>2022-09-30T10:10:01Z</time>
      </trkpt>
      <trkpt lat="46.91862" lon="6.95819">
        <ele>452.5</ele>
        <time>2022-09-30T10:10:02Z</time>
      </trkpt>
      <trkpt lat="46.91862" lon="6.95821">
        <ele>452.6</ele>
        <time>2022-09-30T10:10:03Z</time>
      </trkpt>
      <trkpt lat="46.91863" lon="6.95823">
        <ele>452.8</ele>
        <time>2022-09-30T10:10:04Z</time>
      </trkpt>
      <trkpt lat="46.91864" lon="6.95827">
        <ele>453.1</ele>
        <time>2022-09-30T10:10:05Z</time>
      </trkpt>
      <trkpt lat="46.91865" lon="6.95828">
        <ele>453.2</ele>
        <time>2022-09-30T10:10:06Z</time>
      </trkpt>
      <trkpt lat="46.91866" lon="6.9583">
        <ele>453.4</ele>
        <time>2022-09-30T10:10:07Z</time>
      </trkpt>
      <trkpt lat="46.91867" lon="6.95832">
        <ele>453.5</ele>
        <time>2022-09-30T10:10:08Z</time>
      </trkpt>
      <trkpt lat="46.91868" lon="6.95833">
        <ele>453.7</ele>
        <time>2022-09-30T10:10:09Z</time>
      </trkpt>
      <trkpt lat="46.91869" lon="6.95835">
        <ele>453.9</ele>
        <time>2022-09-30T10:10:10Z</time>
      </trkpt>
      <trkpt lat="46.91871" lon="6.95838">
        <ele>454.2</ele>
        <time>2022-09-30T10:10:11Z</time>
      </trkpt>
      <trkpt lat="46.91871" lon="6.9584">
        <ele>454.3</ele>
        <time>2022-09-30T10:10:12Z</time>
      </trkpt>
      <trkpt lat="46.91872" lon="6.95842">
        <ele>454.5</ele>
        <time>2022-09-30T10:10:13Z</time>
      </trkpt>
      <trkpt lat="46.91873" lon="6.95844">
        <ele>454.6</ele>
        <time>2022-09-30T10:10:14Z</time>
      </trkpt>
      <trkpt lat="46.91874" lon="6.95845">
        <ele>454.7</ele>
        <time>2022-09-30T10:10:15Z</time>
      </trkpt>
      <trkpt lat="46.91875" lon="6.95848">
        <ele>454.9</ele>
        <time>2022-09-30T10:10:16Z</time>
      </trkpt>
      <trkpt lat="46.91875" lon="6.95849">
        <ele>455</ele>
        <time>2022-09-30T10:10:17Z</time>
      </trkpt>
      <trkpt lat="46.91876" lon="6.9585">
        <ele>455.1</ele>
        <time>2022-09-30T10:10:18Z</time>
      </trkpt>
      <trkpt lat="46.91876" lon="6.95852">
        <ele>455.3</ele>
        <time>2022-09-30T10:10:19Z</time>
      </trkpt>
      <trkpt lat="46.91877" lon="6.95854">
        <ele>455.4</ele>
        <time>2022-09-30T10:10:20Z</time>
      </trkpt>
      <trkpt lat="46.91877" lon="6.95856">
        <ele>455.6</ele>
        <time>2022-09-30T10:10:21Z</time>
      </trkpt>
      <trkpt lat="46.91877" lon="6.95858">
        <ele>455.7</ele>
        <time>2022-09-30T10:10:22Z</time>
      </trkpt>
      <trkpt lat="46.91878" lon="6.9586">
        <ele>455.8</ele>
        <time>2022-09-30T10:10:23Z</time>
      </trkpt>
      <trkpt lat="46.91879" lon="6.9586">
        <ele>455.9</ele>
        <time>2022-09-30T10:10:24Z</time>
      </trkpt>
      <trkpt lat="46.9188" lon="6.95862">
        <ele>456</ele>
        <time>2022-09-30T10:10:25Z</time>
      </trkpt>
      <trkpt lat="46.91881" lon="6.95864">
        <ele>456.2</ele>
        <time>2022-09-30T10:10:26Z</time>
      </trkpt>
      <trkpt lat="46.91882" lon="6.95866">
        <ele>456.4</ele>
        <time>2022-09-30T10:10:27Z</time>
      </trkpt>
      <trkpt lat="46.91883" lon="6.95868">
        <ele>456.5</ele>
        <time>2022-09-30T10:10:28Z</time>
      </trkpt>
      <trkpt lat="46.91884" lon="6.9587">
        <ele>456.7</ele>
        <time>2022-09-30T10:10:29Z</time>
      </trkpt>
      <trkpt lat="46.91885" lon="6.95872">
        <ele>456.8</ele>
        <time>2022-09-30T10:10:30Z</time>
      </trkpt>
      <trkpt lat="46.91885" lon="6.95873">
        <ele>456.9</ele>
        <time>2022-09-30T10:10:31Z</time>
      </trkpt>
      <trkpt lat="46.91886" lon="6.95874">
        <ele>457</ele>
        <time>2022-09-30T10:10:32Z</time>
      </trkpt>
      <trkpt lat="46.91887" lon="6.95877">
        <ele>457.1</ele>
        <time>2022-09-30T10:10:33Z</time>
      </trkpt>
      <trkpt lat="46.91887" lon="6.95878">
        <ele>457.2</ele>
        <time>2022-09-30T10:10:34Z</time>
      </trkpt>
      <trkpt lat="46.91888" lon="6.95879">
        <ele>457.3</ele>
        <time>2022-09-30T10:10:35Z</time>
      </trkpt>
      <trkpt lat="46.91889" lon="6.95883">
        <ele>457.5</ele>
        <time>2022-09-30T10:10:36Z</time>
      </trkpt>
      <trkpt lat="46.91889" lon="6.95884">
        <ele>457.6</ele>
        <time>2022-09-30T10:10:37Z</time>
      </trkpt>
      <trkpt lat="46.9189" lon="6.95887">
        <ele>457.8</ele>
        <time>2022-09-30T10:10:38Z</time>
      </trkpt>
      <trkpt lat="46.9189" lon="6.95888">
        <ele>457.8</ele>
        <time>2022-09-30T10:10:39Z</time>
      </trkpt>
      <trkpt lat="46.9189" lon="6.9589">
        <ele>457.9</ele>
        <time>2022-09-30T10:10:40Z</time>
      </trkpt>
      <trkpt lat="46.91891" lon="6.95891">
        <ele>458.1</ele>
        <time>2022-09-30T10:10:41Z</time>
      </trkpt>
      <trkpt lat="46.91892" lon="6.95892">
        <ele>458.2</ele>
        <time>2022-09-30T10:10:42Z</time>
      </trkpt>
      <trkpt lat="46.91893" lon="6.95892">
        <ele>458.2</ele>
        <time>2022-09-30T10:10:43Z</time>
      </trkpt>
      <trkpt lat="46.91893" lon="6.95892">
        <ele>458.3</ele>
        <time>2022-09-30T10:10:44Z</time>
      </trkpt>
      <trkpt lat="46.91894" lon="6.95892">
        <ele>458.3</ele>
        <time>2022-09-30T10:10:45Z</time>
      </trkpt>
      <trkpt lat="46.91894" lon="6.95893">
        <ele>458.3</ele>
        <time>2022-09-30T10:10:46Z</time>
      </trkpt>
      <trkpt lat="46.91895" lon="6.95893">
        <ele>458.4</ele>
        <time>2022-09-30T10:10:47Z</time>
      </trkpt>
      <trkpt lat="46.91895" lon="6.95893">
        <ele>458.4</ele>
        <time>2022-09-30T10:10:48Z</time>
      </trkpt>
      <trkpt lat="46.91896" lon="6.95893">
        <ele>458.5</ele>
        <time>2022-09-30T10:10:49Z</time>
      </trkpt>
      <trkpt lat="46.91896" lon="6.95893">
        <ele>458.5</ele>
        <time>2022-09-30T10:10:50Z</time>
      </trkpt>
      <trkpt lat="46.91897" lon="6.95893">
        <ele>458.5</ele>
        <time>2022-09-30T10:10:51Z</time>
      </trkpt>
      <trkpt lat="46.91897" lon="6.95893">
        <ele>458.6</ele>
        <time>2022-09-30T10:10:52Z</time>
      </trkpt>
      <trkpt lat="46.91898" lon="6.95894">
        <ele>458.6</ele>
        <time>2022-09-30T10:11:29Z</time>
      </trkpt>
      <trkpt lat="46.91898" lon="6.95894">
        <ele>458.7</ele>
        <time>2022-09-30T10:11:30Z</time>
      </trkpt>
      <trkpt lat="46.91899" lon="6.95893">
        <ele>458.7</ele>
        <time>2022-09-30T10:11:31Z</time>
      </trkpt>
      <trkpt lat="46.919" lon="6.95894">
        <ele>458.8</ele>
        <time>2022-09-30T10:11:32Z</time>
      </trkpt>
      <trkpt lat="46.91901" lon="6.95896">
        <ele>459</ele>
        <time>2022-09-30T10:11:33Z</time>
      </trkpt>
      <trkpt lat="46.91902" lon="6.95897">
        <ele>459.1</ele>
        <time>2022-09-30T10:11:34Z</time>
      </trkpt>
      <trkpt lat="46.91903" lon="6.95899">
        <ele>459.2</ele>
        <time>2022-09-30T10:11:35Z</time>
      </trkpt>
      <trkpt lat="46.91904" lon="6.95901">
        <ele>459.4</ele>
        <time>2022-09-30T10:11:36Z</time>
      </trkpt>
      <trkpt lat="46.91905" lon="6.95903">
        <ele>459.5</ele>
        <time>2022-09-30T10:11:37Z</time>
      </trkpt>
      <trkpt lat="46.91905" lon="6.95904">
        <ele>459.5</ele>
        <time>2022-09-30T10:11:38Z</time>
      </trkpt>
      <trkpt lat="46.91906" lon="6.95906">
        <ele>459.7</ele>
        <time>2022-09-30T10:11:39Z</time>
      </trkpt>
      <trkpt lat="46.91907" lon="6.95908">
        <ele>459.8</ele>
        <time>2022-09-30T10:11:40Z</time>
      </trkpt>
      <trkpt lat="46.91908" lon="6.95909">
        <ele>459.9</ele>
        <time>2022-09-30T10:11:41Z</time>
      </trkpt>
      <trkpt lat="46.91909" lon="6.9591">
        <ele>460</ele>
        <time>2022-09-30T10:11:42Z</time>
      </trkpt>
      <trkpt lat="46.9191" lon="6.95912">
        <ele>460.1</ele>
        <time>2022-09-30T10:11:43Z</time>
      </trkpt>
      <trkpt lat="46.91911" lon="6.95914">
        <ele>460.3</ele>
        <time>2022-09-30T10:11:44Z</time>
      </trkpt>
      <trkpt lat="46.91911" lon="6.95916">
        <ele>460.4</ele>
        <time>2022-09-30T10:11:45Z</time>
      </trkpt>
      <trkpt lat="46.91912" lon="6.95918">
        <ele>460.5</ele>
        <time>2022-09-30T10:11:46Z</time>
      </trkpt>
      <trkpt lat="46.91913" lon="6.9592">
        <ele>460.6</ele>
        <time>2022-09-30T10:11:47Z</time>
      </trkpt>
      <trkpt lat="46.91914" lon="6.95921">
        <ele>460.7</ele>
        <time>2022-09-30T10:11:48Z</time>
      </trkpt>
      <trkpt lat="46.91915" lon="6.95923">
        <ele>460.9</ele>
        <time>2022-09-30T10:11:49Z</time>
      </trkpt>
      <trkpt lat="46.91915" lon="6.95924">
        <ele>461</ele>
        <time>2022-09-30T10:11:51Z</time>
      </trkpt>
      <trkpt lat="46.91917" lon="6.95926">
        <ele>461.1</ele>
        <time>2022-09-30T10:11:52Z</time>
      </trkpt>
      <trkpt lat="46.91917" lon="6.95927">
        <ele>461.2</ele>
        <time>2022-09-30T10:11:53Z</time>
      </trkpt>
      <trkpt lat="46.91918" lon="6.9593">
        <ele>461.3</ele>
        <time>2022-09-30T10:11:54Z</time>
      </trkpt>
      <trkpt lat="46.91919" lon="6.95931">
        <ele>461.4</ele>
        <time>2022-09-30T10:11:55Z</time>
      </trkpt>
      <trkpt lat="46.9192" lon="6.95933">
        <ele>461.6</ele>
        <time>2022-09-30T10:11:56Z</time>
      </trkpt>
      <trkpt lat="46.91921" lon="6.95935">
        <ele>461.7</ele>
        <time>2022-09-30T10:11:57Z</time>
      </trkpt>
      <trkpt lat="46.91922" lon="6.95937">
        <ele>461.9</ele>
        <time>2022-09-30T10:11:58Z</time>
      </trkpt>
      <trkpt lat="46.91923" lon="6.95938">
        <ele>462</ele>
        <time>2022-09-30T10:11:59Z</time>
      </trkpt>
      <trkpt lat="46.91924" lon="6.9594">
        <ele>462.1</ele>
        <time>2022-09-30T10:12:00Z</time>
      </trkpt>
      <trkpt lat="46.91925" lon="6.95942">
        <ele>462.2</ele>
        <time>2022-09-30T10:12:01Z</time>
      </trkpt>
      <trkpt lat="46.91928" lon="6.95946">
        <ele>462.5</ele>
        <time>2022-09-30T10:12:02Z</time>
      </trkpt>
      <trkpt lat="46.91929" lon="6.95948">
        <ele>462.6</ele>
        <time>2022-09-30T10:12:03Z</time>
      </trkpt>
      <trkpt lat="46.9193" lon="6.9595">
        <ele>462.7</ele>
        <time>2022-09-30T10:12:04Z</time>
      </trkpt>
      <trkpt lat="46.91931" lon="6.95951">
        <ele>462.8</ele>
        <time>2022-09-30T10:12:05Z</time>
      </trkpt>
      <trkpt lat="46.91931" lon="6.95952">
        <ele>462.9</ele>
        <time>2022-09-30T10:12:06Z</time>
      </trkpt>
      <trkpt lat="46.91932" lon="6.95954">
        <ele>463</ele>
        <time>2022-09-30T10:12:07Z</time>
      </trkpt>
      <trkpt lat="46.91933" lon="6.95956">
        <ele>463.1</ele>
        <time>2022-09-30T10:12:09Z</time>
      </trkpt>
      <trkpt lat="46.91934" lon="6.95957">
        <ele>463.2</ele>
        <time>2022-09-30T10:12:10Z</time>
      </trkpt>
      <trkpt lat="46.91935" lon="6.95959">
        <ele>463.3</ele>
        <time>2022-09-30T10:12:11Z</time>
      </trkpt>
      <trkpt lat="46.91936" lon="6.9596">
        <ele>463.4</ele>
        <time>2022-09-30T10:12:12Z</time>
      </trkpt>
      <trkpt lat="46.91938" lon="6.95962">
        <ele>463.5</ele>
        <time>2022-09-30T10:12:13Z</time>
      </trkpt>
      <trkpt lat="46.91938" lon="6.95963">
        <ele>463.6</ele>
        <time>2022-09-30T10:12:14Z</time>
      </trkpt>
      <trkpt lat="46.9194" lon="6.95965">
        <ele>463.8</ele>
        <time>2022-09-30T10:12:15Z</time>
      </trkpt>
      <trkpt lat="46.91941" lon="6.95966">
        <ele>463.9</ele>
        <time>2022-09-30T10:12:16Z</time>
      </trkpt>
      <trkpt lat="46.91943" lon="6.95968">
        <ele>464</ele>
        <time>2022-09-30T10:12:17Z</time>
      </trkpt>
      <trkpt lat="46.91944" lon="6.9597">
        <ele>464.1</ele>
        <time>2022-09-30T10:12:18Z</time>
      </trkpt>
      <trkpt lat="46.91944" lon="6.95972">
        <ele>464.2</ele>
        <time>2022-09-30T10:12:19Z</time>
      </trkpt>
      <trkpt lat="46.91946" lon="6.95976">
        <ele>464.4</ele>
        <time>2022-09-30T10:12:20Z</time>
      </trkpt>
      <trkpt lat="46.91946" lon="6.95977">
        <ele>464.5</ele>
        <time>2022-09-30T10:12:21Z</time>
      </trkpt>
      <trkpt lat="46.91948" lon="6.95981">
        <ele>464.7</ele>
        <time>2022-09-30T10:12:22Z</time>
      </trkpt>
      <trkpt lat="46.9195" lon="6.95983">
        <ele>464.9</ele>
        <time>2022-09-30T10:12:23Z</time>
      </trkpt>
      <trkpt lat="46.91951" lon="6.95984">
        <ele>464.9</ele>
        <time>2022-09-30T10:12:24Z</time>
      </trkpt>
      <trkpt lat="46.91952" lon="6.95985">
        <ele>465</ele>
        <time>2022-09-30T10:12:25Z</time>
      </trkpt>
      <trkpt lat="46.91953" lon="6.95987">
        <ele>465.1</ele>
        <time>2022-09-30T10:12:26Z</time>
      </trkpt>
      <trkpt lat="46.91953" lon="6.95989">
        <ele>465.2</ele>
        <time>2022-09-30T10:12:27Z</time>
      </trkpt>
      <trkpt lat="46.91954" lon="6.95994">
        <ele>465.5</ele>
        <time>2022-09-30T10:12:28Z</time>
      </trkpt>
      <trkpt lat="46.91955" lon="6.95995">
        <ele>465.5</ele>
        <time>2022-09-30T10:12:29Z</time>
      </trkpt>
      <trkpt lat="46.91957" lon="6.95997">
        <ele>465.7</ele>
        <time>2022-09-30T10:12:30Z</time>
      </trkpt>
      <trkpt lat="46.91958" lon="6.95998">
        <ele>465.8</ele>
        <time>2022-09-30T10:12:31Z</time>
      </trkpt>
      <trkpt lat="46.9196" lon="6.95998">
        <ele>465.9</ele>
        <time>2022-09-30T10:12:32Z</time>
      </trkpt>
      <trkpt lat="46.91961" lon="6.96">
        <ele>466</ele>
        <time>2022-09-30T10:12:33Z</time>
      </trkpt>
      <trkpt lat="46.91961" lon="6.96002">
        <ele>466.1</ele>
        <time>2022-09-30T10:12:34Z</time>
      </trkpt>
      <trkpt lat="46.91962" lon="6.96004">
        <ele>466.2</ele>
        <time>2022-09-30T10:12:35Z</time>
      </trkpt>
      <trkpt lat="46.91963" lon="6.96006">
        <ele>466.3</ele>
        <time>2022-09-30T10:12:36Z</time>
      </trkpt>
      <trkpt lat="46.91964" lon="6.96007">
        <ele>466.4</ele>
        <time>2022-09-30T10:12:37Z</time>
      </trkpt>
      <trkpt lat="46.91965" lon="6.96009">
        <ele>466.5</ele>
        <time>2022-09-30T10:12:38Z</time>
      </trkpt>
      <trkpt lat="46.91966" lon="6.96011">
        <ele>466.6</ele>
        <time>2022-09-30T10:12:39Z</time>
      </trkpt>
      <trkpt lat="46.91967" lon="6.96014">
        <ele>466.8</ele>
        <time>2022-09-30T10:12:40Z</time>
      </trkpt>
      <trkpt lat="46.91968" lon="6.96015">
        <ele>466.9</ele>
        <time>2022-09-30T10:12:41Z</time>
      </trkpt>
      <trkpt lat="46.91969" lon="6.96017">
        <ele>467</ele>
        <time>2022-09-30T10:12:42Z</time>
      </trkpt>
      <trkpt lat="46.91971" lon="6.96019">
        <ele>467.1</ele>
        <time>2022-09-30T10:12:43Z</time>
      </trkpt>
      <trkpt lat="46.91972" lon="6.9602">
        <ele>467.2</ele>
        <time>2022-09-30T10:12:44Z</time>
      </trkpt>
      <trkpt lat="46.91974" lon="6.96024">
        <ele>467.4</ele>
        <time>2022-09-30T10:12:45Z</time>
      </trkpt>
      <trkpt lat="46.91975" lon="6.96026">
        <ele>467.5</ele>
        <time>2022-09-30T10:12:46Z</time>
      </trkpt>
      <trkpt lat="46.91975" lon="6.96027">
        <ele>467.6</ele>
        <time>2022-09-30T10:12:47Z</time>
      </trkpt>
      <trkpt lat="46.91976" lon="6.96029">
        <ele>467.7</ele>
        <time>2022-09-30T10:12:48Z</time>
      </trkpt>
      <trkpt lat="46.91978" lon="6.96031">
        <ele>467.8</ele>
        <time>2022-09-30T10:12:49Z</time>
      </trkpt>
      <trkpt lat="46.91979" lon="6.96032">
        <ele>467.9</ele>
        <time>2022-09-30T10:12:50Z</time>
      </trkpt>
      <trkpt lat="46.91981" lon="6.96035">
        <ele>468.1</ele>
        <time>2022-09-30T10:12:51Z</time>
      </trkpt>
      <trkpt lat="46.91982" lon="6.96036">
        <ele>468.2</ele>
        <time>2022-09-30T10:12:52Z</time>
      </trkpt>
      <trkpt lat="46.91983" lon="6.96039">
        <ele>468.3</ele>
        <time>2022-09-30T10:12:53Z</time>
      </trkpt>
      <trkpt lat="46.91984" lon="6.9604">
        <ele>468.4</ele>
        <time>2022-09-30T10:12:54Z</time>
      </trkpt>
      <trkpt lat="46.91985" lon="6.96041">
        <ele>468.5</ele>
        <time>2022-09-30T10:12:55Z</time>
      </trkpt>
      <trkpt lat="46.91986" lon="6.96044">
        <ele>468.6</ele>
        <time>2022-09-30T10:12:56Z</time>
      </trkpt>
      <trkpt lat="46.91987" lon="6.96045">
        <ele>468.7</ele>
        <time>2022-09-30T10:12:57Z</time>
      </trkpt>
      <trkpt lat="46.91988" lon="6.96046">
        <ele>468.8</ele>
        <time>2022-09-30T10:12:58Z</time>
      </trkpt>
      <trkpt lat="46.91989" lon="6.96048">
        <ele>468.9</ele>
        <time>2022-09-30T10:12:59Z</time>
      </trkpt>
      <trkpt lat="46.91991" lon="6.96052">
        <ele>469.1</ele>
        <time>2022-09-30T10:13:00Z</time>
      </trkpt>
      <trkpt lat="46.91991" lon="6.96053">
        <ele>469.1</ele>
        <time>2022-09-30T10:13:01Z</time>
      </trkpt>
      <trkpt lat="46.91992" lon="6.96054">
        <ele>469.2</ele>
        <time>2022-09-30T10:13:02Z</time>
      </trkpt>
      <trkpt lat="46.91994" lon="6.96056">
        <ele>469.4</ele>
        <time>2022-09-30T10:13:03Z</time>
      </trkpt>
      <trkpt lat="46.91996" lon="6.9606">
        <ele>469.5</ele>
        <time>2022-09-30T10:13:04Z</time>
      </trkpt>
      <trkpt lat="46.91996" lon="6.96061">
        <ele>469.6</ele>
        <time>2022-09-30T10:13:05Z</time>
      </trkpt>
      <trkpt lat="46.91997" lon="6.96063">
        <ele>469.7</ele>
        <time>2022-09-30T10:13:06Z</time>
      </trkpt>
      <trkpt lat="46.91998" lon="6.96065">
        <ele>469.8</ele>
        <time>2022-09-30T10:13:07Z</time>
      </trkpt>
      <trkpt lat="46.92" lon="6.96069">
        <ele>470.1</ele>
        <time>2022-09-30T10:13:08Z</time>
      </trkpt>
      <trkpt lat="46.92001" lon="6.96071">
        <ele>470.2</ele>
        <time>2022-09-30T10:13:09Z</time>
      </trkpt>
      <trkpt lat="46.92003" lon="6.96072">
        <ele>470.3</ele>
        <time>2022-09-30T10:13:10Z</time>
      </trkpt>
      <trkpt lat="46.92004" lon="6.96075">
        <ele>470.4</ele>
        <time>2022-09-30T10:13:11Z</time>
      </trkpt>
      <trkpt lat="46.92004" lon="6.96076">
        <ele>470.5</ele>
        <time>2022-09-30T10:13:12Z</time>
      </trkpt>
      <trkpt lat="46.92006" lon="6.96078">
        <ele>470.6</ele>
        <time>2022-09-30T10:13:13Z</time>
      </trkpt>
      <trkpt lat="46.92007" lon="6.96082">
        <ele>470.8</ele>
        <time>2022-09-30T10:13:14Z</time>
      </trkpt>
      <trkpt lat="46.92008" lon="6.96083">
        <ele>470.8</ele>
        <time>2022-09-30T10:13:15Z</time>
      </trkpt>
      <trkpt lat="46.92009" lon="6.96086">
        <ele>471</ele>
        <time>2022-09-30T10:13:16Z</time>
      </trkpt>
      <trkpt lat="46.9201" lon="6.96087">
        <ele>471.1</ele>
        <time>2022-09-30T10:13:17Z</time>
      </trkpt>
      <trkpt lat="46.92011" lon="6.96089">
        <ele>471.2</ele>
        <time>2022-09-30T10:13:18Z</time>
      </trkpt>
      <trkpt lat="46.92012" lon="6.96091">
        <ele>471.3</ele>
        <time>2022-09-30T10:13:19Z</time>
      </trkpt>
      <trkpt lat="46.92014" lon="6.96094">
        <ele>471.5</ele>
        <time>2022-09-30T10:13:20Z</time>
      </trkpt>
      <trkpt lat="46.92015" lon="6.96095">
        <ele>471.5</ele>
        <time>2022-09-30T10:13:21Z</time>
      </trkpt>
      <trkpt lat="46.92016" lon="6.96097">
        <ele>471.6</ele>
        <time>2022-09-30T10:13:22Z</time>
      </trkpt>
      <trkpt lat="46.92017" lon="6.96099">
        <ele>471.7</ele>
        <time>2022-09-30T10:13:23Z</time>
      </trkpt>
      <trkpt lat="46.92018" lon="6.96104">
        <ele>471.9</ele>
        <time>2022-09-30T10:13:24Z</time>
      </trkpt>
      <trkpt lat="46.92018" lon="6.96105">
        <ele>471.9</ele>
        <time>2022-09-30T10:13:25Z</time>
      </trkpt>
      <trkpt lat="46.92019" lon="6.9611">
        <ele>472.1</ele>
        <time>2022-09-30T10:13:26Z</time>
      </trkpt>
      <trkpt lat="46.9202" lon="6.96111">
        <ele>472.2</ele>
        <time>2022-09-30T10:13:27Z</time>
      </trkpt>
      <trkpt lat="46.92022" lon="6.96115">
        <ele>472.4</ele>
        <time>2022-09-30T10:13:28Z</time>
      </trkpt>
      <trkpt lat="46.92022" lon="6.96116">
        <ele>472.5</ele>
        <time>2022-09-30T10:13:29Z</time>
      </trkpt>
      <trkpt lat="46.92024" lon="6.9612">
        <ele>472.6</ele>
        <time>2022-09-30T10:13:30Z</time>
      </trkpt>
      <trkpt lat="46.92025" lon="6.96121">
        <ele>472.7</ele>
        <time>2022-09-30T10:13:31Z</time>
      </trkpt>
      <trkpt lat="46.92027" lon="6.96124">
        <ele>472.8</ele>
        <time>2022-09-30T10:13:32Z</time>
      </trkpt>
      <trkpt lat="46.92027" lon="6.96125">
        <ele>472.9</ele>
        <time>2022-09-30T10:13:33Z</time>
      </trkpt>
      <trkpt lat="46.9203" lon="6.96129">
        <ele>473.1</ele>
        <time>2022-09-30T10:13:34Z</time>
      </trkpt>
      <trkpt lat="46.9203" lon="6.9613">
        <ele>473.2</ele>
        <time>2022-09-30T10:13:35Z</time>
      </trkpt>
      <trkpt lat="46.92032" lon="6.96132">
        <ele>473.3</ele>
        <time>2022-09-30T10:13:36Z</time>
      </trkpt>
      <trkpt lat="46.92033" lon="6.96134">
        <ele>473.4</ele>
        <time>2022-09-30T10:13:37Z</time>
      </trkpt>
      <trkpt lat="46.92034" lon="6.96137">
        <ele>473.5</ele>
        <time>2022-09-30T10:13:38Z</time>
      </trkpt>
      <trkpt lat="46.92035" lon="6.96139">
        <ele>473.6</ele>
        <time>2022-09-30T10:13:39Z</time>
      </trkpt>
      <trkpt lat="46.92037" lon="6.96142">
        <ele>473.7</ele>
        <time>2022-09-30T10:13:40Z</time>
      </trkpt>
      <trkpt lat="46.92038" lon="6.96143">
        <ele>473.8</ele>
        <time>2022-09-30T10:13:41Z</time>
      </trkpt>
      <trkpt lat="46.92038" lon="6.96144">
        <ele>473.8</ele>
        <time>2022-09-30T10:13:42Z</time>
      </trkpt>
      <trkpt lat="46.92038" lon="6.96146">
        <ele>473.9</ele>
        <time>2022-09-30T10:13:43Z</time>
      </trkpt>
      <trkpt lat="46.92039" lon="6.96151">
        <ele>474.1</ele>
        <time>2022-09-30T10:13:44Z</time>
      </trkpt>
      <trkpt lat="46.92039" lon="6.96152">
        <ele>474.2</ele>
        <time>2022-09-30T10:13:45Z</time>
      </trkpt>
      <trkpt lat="46.92041" lon="6.96156">
        <ele>474.3</ele>
        <time>2022-09-30T10:13:46Z</time>
      </trkpt>
      <trkpt lat="46.92042" lon="6.9616">
        <ele>474.5</ele>
        <time>2022-09-30T10:13:47Z</time>
      </trkpt>
      <trkpt lat="46.92042" lon="6.96162">
        <ele>474.5</ele>
        <time>2022-09-30T10:13:48Z</time>
      </trkpt>
      <trkpt lat="46.92043" lon="6.96163">
        <ele>474.6</ele>
        <time>2022-09-30T10:13:49Z</time>
      </trkpt>
      <trkpt lat="46.92044" lon="6.96165">
        <ele>474.7</ele>
        <time>2022-09-30T10:13:50Z</time>
      </trkpt>
      <trkpt lat="46.92047" lon="6.96168">
        <ele>474.8</ele>
        <time>2022-09-30T10:13:51Z</time>
      </trkpt>
      <trkpt lat="46.92048" lon="6.96169">
        <ele>474.9</ele>
        <time>2022-09-30T10:13:52Z</time>
      </trkpt>
      <trkpt lat="46.92049" lon="6.96173">
        <ele>475.1</ele>
        <time>2022-09-30T10:13:53Z</time>
      </trkpt>
      <trkpt lat="46.9205" lon="6.96175">
        <ele>475.1</ele>
        <time>2022-09-30T10:13:54Z</time>
      </trkpt>
      <trkpt lat="46.92051" lon="6.96178">
        <ele>475.2</ele>
        <time>2022-09-30T10:13:55Z</time>
      </trkpt>
      <trkpt lat="46.92052" lon="6.96179">
        <ele>475.3</ele>
        <time>2022-09-30T10:13:57Z</time>
      </trkpt>
      <trkpt lat="46.92053" lon="6.96181">
        <ele>475.4</ele>
        <time>2022-09-30T10:13:58Z</time>
      </trkpt>
      <trkpt lat="46.92055" lon="6.96184">
        <ele>475.5</ele>
        <time>2022-09-30T10:13:59Z</time>
      </trkpt>
      <trkpt lat="46.92055" lon="6.96186">
        <ele>475.6</ele>
        <time>2022-09-30T10:14:00Z</time>
      </trkpt>
      <trkpt lat="46.92057" lon="6.96189">
        <ele>475.7</ele>
        <time>2022-09-30T10:14:01Z</time>
      </trkpt>
      <trkpt lat="46.92057" lon="6.9619">
        <ele>475.8</ele>
        <time>2022-09-30T10:14:02Z</time>
      </trkpt>
      <trkpt lat="46.92058" lon="6.96192">
        <ele>475.8</ele>
        <time>2022-09-30T10:14:03Z</time>
      </trkpt>
      <trkpt lat="46.92059" lon="6.96194">
        <ele>475.9</ele>
        <time>2022-09-30T10:14:04Z</time>
      </trkpt>
      <trkpt lat="46.92061" lon="6.96199">
        <ele>476.1</ele>
        <time>2022-09-30T10:14:05Z</time>
      </trkpt>
      <trkpt lat="46.92062" lon="6.96202">
        <ele>476.2</ele>
        <time>2022-09-30T10:14:06Z</time>
      </trkpt>
      <trkpt lat="46.92063" lon="6.96204">
        <ele>476.3</ele>
        <time>2022-09-30T10:14:07Z</time>
      </trkpt>
      <trkpt lat="46.92064" lon="6.96206">
        <ele>476.4</ele>
        <time>2022-09-30T10:14:08Z</time>
      </trkpt>
      <trkpt lat="46.92065" lon="6.96208">
        <ele>476.5</ele>
        <time>2022-09-30T10:14:09Z</time>
      </trkpt>
      <trkpt lat="46.92066" lon="6.9621">
        <ele>476.6</ele>
        <time>2022-09-30T10:14:10Z</time>
      </trkpt>
      <trkpt lat="46.92066" lon="6.96213">
        <ele>476.7</ele>
        <time>2022-09-30T10:14:11Z</time>
      </trkpt>
      <trkpt lat="46.92067" lon="6.96218">
        <ele>476.8</ele>
        <time>2022-09-30T10:14:12Z</time>
      </trkpt>
      <trkpt lat="46.92068" lon="6.96219">
        <ele>476.9</ele>
        <time>2022-09-30T10:14:13Z</time>
      </trkpt>
      <trkpt lat="46.92069" lon="6.96221">
        <ele>477</ele>
        <time>2022-09-30T10:14:14Z</time>
      </trkpt>
      <trkpt lat="46.9207" lon="6.96223">
        <ele>477</ele>
        <time>2022-09-30T10:14:15Z</time>
      </trkpt>
      <trkpt lat="46.92071" lon="6.96225">
        <ele>477.1</ele>
        <time>2022-09-30T10:14:16Z</time>
      </trkpt>
      <trkpt lat="46.92072" lon="6.96226">
        <ele>477.2</ele>
        <time>2022-09-30T10:14:17Z</time>
      </trkpt>
      <trkpt lat="46.92073" lon="6.96228">
        <ele>477.3</ele>
        <time>2022-09-30T10:14:18Z</time>
      </trkpt>
      <trkpt lat="46.92074" lon="6.9623">
        <ele>477.3</ele>
        <time>2022-09-30T10:14:19Z</time>
      </trkpt>
      <trkpt lat="46.92075" lon="6.96231">
        <ele>477.4</ele>
        <time>2022-09-30T10:14:20Z</time>
      </trkpt>
      <trkpt lat="46.92077" lon="6.96233">
        <ele>477.5</ele>
        <time>2022-09-30T10:14:21Z</time>
      </trkpt>
      <trkpt lat="46.92078" lon="6.96234">
        <ele>477.5</ele>
        <time>2022-09-30T10:14:22Z</time>
      </trkpt>
      <trkpt lat="46.92079" lon="6.96236">
        <ele>477.6</ele>
        <time>2022-09-30T10:14:23Z</time>
      </trkpt>
      <trkpt lat="46.9208" lon="6.96238">
        <ele>477.7</ele>
        <time>2022-09-30T10:14:24Z</time>
      </trkpt>
      <trkpt lat="46.92081" lon="6.9624">
        <ele>477.7</ele>
        <time>2022-09-30T10:14:25Z</time>
      </trkpt>
      <trkpt lat="46.92083" lon="6.96243">
        <ele>477.8</ele>
        <time>2022-09-30T10:14:26Z</time>
      </trkpt>
      <trkpt lat="46.92083" lon="6.96245">
        <ele>477.8</ele>
        <time>2022-09-30T10:14:27Z</time>
      </trkpt>
      <trkpt lat="46.92085" lon="6.96248">
        <ele>477.9</ele>
        <time>2022-09-30T10:14:28Z</time>
      </trkpt>
      <trkpt lat="46.92085" lon="6.96249">
        <ele>478</ele>
        <time>2022-09-30T10:14:29Z</time>
      </trkpt>
      <trkpt lat="46.92087" lon="6.96252">
        <ele>478</ele>
        <time>2022-09-30T10:14:30Z</time>
      </trkpt>
      <trkpt lat="46.92088" lon="6.96253">
        <ele>478.1</ele>
        <time>2022-09-30T10:14:31Z</time>
      </trkpt>
      <trkpt lat="46.92089" lon="6.96254">
        <ele>478.1</ele>
        <time>2022-09-30T10:14:32Z</time>
      </trkpt>
      <trkpt lat="46.92089" lon="6.96255">
        <ele>478.1</ele>
        <time>2022-09-30T10:14:33Z</time>
      </trkpt>
      <trkpt lat="46.92091" lon="6.96258">
        <ele>478.2</ele>
        <time>2022-09-30T10:14:34Z</time>
      </trkpt>
      <trkpt lat="46.92092" lon="6.9626">
        <ele>478.2</ele>
        <time>2022-09-30T10:14:35Z</time>
      </trkpt>
      <trkpt lat="46.92092" lon="6.96263">
        <ele>478.3</ele>
        <time>2022-09-30T10:14:36Z</time>
      </trkpt>
      <trkpt lat="46.92093" lon="6.96265">
        <ele>478.3</ele>
        <time>2022-09-30T10:14:37Z</time>
      </trkpt>
      <trkpt lat="46.92094" lon="6.96267">
        <ele>478.3</ele>
        <time>2022-09-30T10:14:38Z</time>
      </trkpt>
      <trkpt lat="46.92096" lon="6.96271">
        <ele>478.4</ele>
        <time>2022-09-30T10:14:39Z</time>
      </trkpt>
      <trkpt lat="46.92096" lon="6.96272">
        <ele>478.4</ele>
        <time>2022-09-30T10:14:40Z</time>
      </trkpt>
      <trkpt lat="46.92097" lon="6.96274">
        <ele>478.4</ele>
        <time>2022-09-30T10:14:41Z</time>
      </trkpt>
      <trkpt lat="46.92098" lon="6.96276">
        <ele>478.5</ele>
        <time>2022-09-30T10:14:42Z</time>
      </trkpt>
      <trkpt lat="46.921" lon="6.96279">
        <ele>478.5</ele>
        <time>2022-09-30T10:14:43Z</time>
      </trkpt>
      <trkpt lat="46.92101" lon="6.96283">
        <ele>478.6</ele>
        <time>2022-09-30T10:14:44Z</time>
      </trkpt>
      <trkpt lat="46.92102" lon="6.96284">
        <ele>478.6</ele>
        <time>2022-09-30T10:14:45Z</time>
      </trkpt>
      <trkpt lat="46.92103" lon="6.9629">
        <ele>478.6</ele>
        <time>2022-09-30T10:14:46Z</time>
      </trkpt>
      <trkpt lat="46.92104" lon="6.96292">
        <ele>478.7</ele>
        <time>2022-09-30T10:14:47Z</time>
      </trkpt>
      <trkpt lat="46.92106" lon="6.96296">
        <ele>478.7</ele>
        <time>2022-09-30T10:14:48Z</time>
      </trkpt>
      <trkpt lat="46.92106" lon="6.96297">
        <ele>478.7</ele>
        <time>2022-09-30T10:14:49Z</time>
      </trkpt>
      <trkpt lat="46.92107" lon="6.96301">
        <ele>478.8</ele>
        <time>2022-09-30T10:14:50Z</time>
      </trkpt>
      <trkpt lat="46.9211" lon="6.96305">
        <ele>478.9</ele>
        <time>2022-09-30T10:14:51Z</time>
      </trkpt>
      <trkpt lat="46.9211" lon="6.96307">
        <ele>478.9</ele>
        <time>2022-09-30T10:14:52Z</time>
      </trkpt>
      <trkpt lat="46.92113" lon="6.9631">
        <ele>478.9</ele>
        <time>2022-09-30T10:14:53Z</time>
      </trkpt>
      <trkpt lat="46.92114" lon="6.96311">
        <ele>478.9</ele>
        <time>2022-09-30T10:14:54Z</time>
      </trkpt>
      <trkpt lat="46.92116" lon="6.96316">
        <ele>479</ele>
        <time>2022-09-30T10:14:55Z</time>
      </trkpt>
      <trkpt lat="46.92117" lon="6.96318">
        <ele>479</ele>
        <time>2022-09-30T10:14:56Z</time>
      </trkpt>
      <trkpt lat="46.92118" lon="6.96321">
        <ele>479</ele>
        <time>2022-09-30T10:14:57Z</time>
      </trkpt>
      <trkpt lat="46.92119" lon="6.96325">
        <ele>479.1</ele>
        <time>2022-09-30T10:14:58Z</time>
      </trkpt>
      <trkpt lat="46.9212" lon="6.96331">
        <ele>479.1</ele>
        <time>2022-09-30T10:14:59Z</time>
      </trkpt>
      <trkpt lat="46.9212" lon="6.96333">
        <ele>479.1</ele>
        <time>2022-09-30T10:15:00Z</time>
      </trkpt>
      <trkpt lat="46.92121" lon="6.96338">
        <ele>479.1</ele>
        <time>2022-09-30T10:15:01Z</time>
      </trkpt>
      <trkpt lat="46.92122" lon="6.96342">
        <ele>479.1</ele>
        <time>2022-09-30T10:15:02Z</time>
      </trkpt>
      <trkpt lat="46.92124" lon="6.96346">
        <ele>479.1</ele>
        <time>2022-09-30T10:15:03Z</time>
      </trkpt>
      <trkpt lat="46.92125" lon="6.96349">
        <ele>479.1</ele>
        <time>2022-09-30T10:15:04Z</time>
      </trkpt>
      <trkpt lat="46.92127" lon="6.96355">
        <ele>479.2</ele>
        <time>2022-09-30T10:15:05Z</time>
      </trkpt>
      <trkpt lat="46.92127" lon="6.96357">
        <ele>479.2</ele>
        <time>2022-09-30T10:15:06Z</time>
      </trkpt>
      <trkpt lat="46.92128" lon="6.96361">
        <ele>479.2</ele>
        <time>2022-09-30T10:15:07Z</time>
      </trkpt>
      <trkpt lat="46.92129" lon="6.96366">
        <ele>479.2</ele>
        <time>2022-09-30T10:15:08Z</time>
      </trkpt>
      <trkpt lat="46.9213" lon="6.9637">
        <ele>479.2</ele>
        <time>2022-09-30T10:15:09Z</time>
      </trkpt>
      <trkpt lat="46.92131" lon="6.96374">
        <ele>479.2</ele>
        <time>2022-09-30T10:15:10Z</time>
      </trkpt>
      <trkpt lat="46.92133" lon="6.96379">
        <ele>479.2</ele>
        <time>2022-09-30T10:15:11Z</time>
      </trkpt>
      <trkpt lat="46.92134" lon="6.96383">
        <ele>479.2</ele>
        <time>2022-09-30T10:15:12Z</time>
      </trkpt>
      <trkpt lat="46.92136" lon="6.96389">
        <ele>479.3</ele>
        <time>2022-09-30T10:15:13Z</time>
      </trkpt>
      <trkpt lat="46.92136" lon="6.96392">
        <ele>479.3</ele>
        <time>2022-09-30T10:15:14Z</time>
      </trkpt>
      <trkpt lat="46.92138" lon="6.96397">
        <ele>479.3</ele>
        <time>2022-09-30T10:15:15Z</time>
      </trkpt>
      <trkpt lat="46.92141" lon="6.96402">
        <ele>479.3</ele>
        <time>2022-09-30T10:15:16Z</time>
      </trkpt>
      <trkpt lat="46.92143" lon="6.96406">
        <ele>479.3</ele>
        <time>2022-09-30T10:15:17Z</time>
      </trkpt>
      <trkpt lat="46.92144" lon="6.96411">
        <ele>479.3</ele>
        <time>2022-09-30T10:15:18Z</time>
      </trkpt>
      <trkpt lat="46.92145" lon="6.96416">
        <ele>479.3</ele>
        <time>2022-09-30T10:15:19Z</time>
      </trkpt>
      <trkpt lat="46.92147" lon="6.96422">
        <ele>479.3</ele>
        <time>2022-09-30T10:15:20Z</time>
      </trkpt>
      <trkpt lat="46.92148" lon="6.96427">
        <ele>479.3</ele>
        <time>2022-09-30T10:15:21Z</time>
      </trkpt>
      <trkpt lat="46.92149" lon="6.96431">
        <ele>479.3</ele>
        <time>2022-09-30T10:15:22Z</time>
      </trkpt>
      <trkpt lat="46.92151" lon="6.96437">
        <ele>479.3</ele>
        <time>2022-09-30T10:15:23Z</time>
      </trkpt>
      <trkpt lat="46.92152" lon="6.96444">
        <ele>479.4</ele>
        <time>2022-09-30T10:15:24Z</time>
      </trkpt>
      <trkpt lat="46.92154" lon="6.96451">
        <ele>479.4</ele>
        <time>2022-09-30T10:15:25Z</time>
      </trkpt>
      <trkpt lat="46.92154" lon="6.96457">
        <ele>479.4</ele>
        <time>2022-09-30T10:15:26Z</time>
      </trkpt>
      <trkpt lat="46.92156" lon="6.96463">
        <ele>479.4</ele>
        <time>2022-09-30T10:15:27Z</time>
      </trkpt>
      <trkpt lat="46.92157" lon="6.96469">
        <ele>479.4</ele>
        <time>2022-09-30T10:15:28Z</time>
      </trkpt>
      <trkpt lat="46.92158" lon="6.96475">
        <ele>479.4</ele>
        <time>2022-09-30T10:15:29Z</time>
      </trkpt>
      <trkpt lat="46.92159" lon="6.96481">
        <ele>479.5</ele>
        <time>2022-09-30T10:15:30Z</time>
      </trkpt>
      <trkpt lat="46.92159" lon="6.96487">
        <ele>479.5</ele>
        <time>2022-09-30T10:15:31Z</time>
      </trkpt>
      <trkpt lat="46.9216" lon="6.96493">
        <ele>479.5</ele>
        <time>2022-09-30T10:15:32Z</time>
      </trkpt>
      <trkpt lat="46.92161" lon="6.96499">
        <ele>479.5</ele>
        <time>2022-09-30T10:15:33Z</time>
      </trkpt>
      <trkpt lat="46.92162" lon="6.96505">
        <ele>479.6</ele>
        <time>2022-09-30T10:15:34Z</time>
      </trkpt>
      <trkpt lat="46.92162" lon="6.96511">
        <ele>479.6</ele>
        <time>2022-09-30T10:15:35Z</time>
      </trkpt>
      <trkpt lat="46.92163" lon="6.96516">
        <ele>479.6</ele>
        <time>2022-09-30T10:15:36Z</time>
      </trkpt>
      <trkpt lat="46.92163" lon="6.96521">
        <ele>479.6</ele>
        <time>2022-09-30T10:15:37Z</time>
      </trkpt>
      <trkpt lat="46.92164" lon="6.96526">
        <ele>479.7</ele>
        <time>2022-09-30T10:15:38Z</time>
      </trkpt>
      <trkpt lat="46.92164" lon="6.96532">
        <ele>479.7</ele>
        <time>2022-09-30T10:15:39Z</time>
      </trkpt>
      <trkpt lat="46.92164" lon="6.96537">
        <ele>479.8</ele>
        <time>2022-09-30T10:15:40Z</time>
      </trkpt>
      <trkpt lat="46.92164" lon="6.96542">
        <ele>479.8</ele>
        <time>2022-09-30T10:15:41Z</time>
      </trkpt>
      <trkpt lat="46.92164" lon="6.96547">
        <ele>479.9</ele>
        <time>2022-09-30T10:15:42Z</time>
      </trkpt>
      <trkpt lat="46.92165" lon="6.96552">
        <ele>480</ele>
        <time>2022-09-30T10:15:43Z</time>
      </trkpt>
      <trkpt lat="46.92164" lon="6.96557">
        <ele>480</ele>
        <time>2022-09-30T10:15:44Z</time>
      </trkpt>
      <trkpt lat="46.92165" lon="6.96562">
        <ele>480.1</ele>
        <time>2022-09-30T10:15:45Z</time>
      </trkpt>
      <trkpt lat="46.92165" lon="6.96567">
        <ele>480.2</ele>
        <time>2022-09-30T10:15:46Z</time>
      </trkpt>
      <trkpt lat="46.92165" lon="6.96572">
        <ele>480.2</ele>
        <time>2022-09-30T10:15:47Z</time>
      </trkpt>
      <trkpt lat="46.92166" lon="6.96577">
        <ele>480.3</ele>
        <time>2022-09-30T10:15:48Z</time>
      </trkpt>
      <trkpt lat="46.92166" lon="6.96581">
        <ele>480.3</ele>
        <time>2022-09-30T10:15:49Z</time>
      </trkpt>
      <trkpt lat="46.92165" lon="6.96586">
        <ele>480.4</ele>
        <time>2022-09-30T10:15:50Z</time>
      </trkpt>
      <trkpt lat="46.92165" lon="6.96591">
        <ele>480.5</ele>
        <time>2022-09-30T10:15:51Z</time>
      </trkpt>
      <trkpt lat="46.92165" lon="6.96596">
        <ele>480.5</ele>
        <time>2022-09-30T10:15:52Z</time>
      </trkpt>
      <trkpt lat="46.92165" lon="6.96599">
        <ele>480.6</ele>
        <time>2022-09-30T10:15:53Z</time>
      </trkpt>
      <trkpt lat="46.92165" lon="6.96604">
        <ele>480.6</ele>
        <time>2022-09-30T10:15:54Z</time>
      </trkpt>
      <trkpt lat="46.92166" lon="6.96608">
        <ele>480.7</ele>
        <time>2022-09-30T10:15:55Z</time>
      </trkpt>
      <trkpt lat="46.92166" lon="6.96613">
        <ele>480.8</ele>
        <time>2022-09-30T10:15:56Z</time>
      </trkpt>
      <trkpt lat="46.92166" lon="6.96617">
        <ele>480.8</ele>
        <time>2022-09-30T10:15:57Z</time>
      </trkpt>
      <trkpt lat="46.92166" lon="6.96622">
        <ele>480.9</ele>
        <time>2022-09-30T10:15:58Z</time>
      </trkpt>
      <trkpt lat="46.92166" lon="6.96627">
        <ele>481</ele>
        <time>2022-09-30T10:15:59Z</time>
      </trkpt>
      <trkpt lat="46.92166" lon="6.96632">
        <ele>481</ele>
        <time>2022-09-30T10:16:00Z</time>
      </trkpt>
      <trkpt lat="46.92166" lon="6.96637">
        <ele>481.1</ele>
        <time>2022-09-30T10:16:01Z</time>
      </trkpt>
      <trkpt lat="46.92166" lon="6.96641">
        <ele>481.2</ele>
        <time>2022-09-30T10:16:02Z</time>
      </trkpt>
      <trkpt lat="46.92165" lon="6.96647">
        <ele>481.3</ele>
        <time>2022-09-30T10:16:03Z</time>
      </trkpt>
      <trkpt lat="46.92165" lon="6.96655">
        <ele>481.4</ele>
        <time>2022-09-30T10:16:05Z</time>
      </trkpt>
      <trkpt lat="46.92165" lon="6.9666">
        <ele>481.5</ele>
        <time>2022-09-30T10:16:06Z</time>
      </trkpt>
      <trkpt lat="46.92164" lon="6.96665">
        <ele>481.6</ele>
        <time>2022-09-30T10:16:07Z</time>
      </trkpt>
      <trkpt lat="46.92163" lon="6.96673">
        <ele>481.8</ele>
        <time>2022-09-30T10:16:09Z</time>
      </trkpt>
      <trkpt lat="46.92162" lon="6.96677">
        <ele>481.9</ele>
        <time>2022-09-30T10:16:10Z</time>
      </trkpt>
      <trkpt lat="46.92161" lon="6.96682">
        <ele>482</ele>
        <time>2022-09-30T10:16:11Z</time>
      </trkpt>
      <trkpt lat="46.9216" lon="6.96687">
        <ele>482.1</ele>
        <time>2022-09-30T10:16:13Z</time>
      </trkpt>
      <trkpt lat="46.9216" lon="6.96689">
        <ele>482.1</ele>
        <time>2022-09-30T10:16:14Z</time>
      </trkpt>
      <trkpt lat="46.92159" lon="6.96694">
        <ele>482.3</ele>
        <time>2022-09-30T10:16:15Z</time>
      </trkpt>
      <trkpt lat="46.92157" lon="6.96701">
        <ele>482.4</ele>
        <time>2022-09-30T10:16:16Z</time>
      </trkpt>
      <trkpt lat="46.92156" lon="6.96705">
        <ele>482.5</ele>
        <time>2022-09-30T10:16:17Z</time>
      </trkpt>
      <trkpt lat="46.92155" lon="6.96709">
        <ele>482.7</ele>
        <time>2022-09-30T10:16:18Z</time>
      </trkpt>
      <trkpt lat="46.92154" lon="6.96713">
        <ele>482.7</ele>
        <time>2022-09-30T10:16:19Z</time>
      </trkpt>
      <trkpt lat="46.92153" lon="6.96717">
        <ele>482.8</ele>
        <time>2022-09-30T10:16:21Z</time>
      </trkpt>
      <trkpt lat="46.92151" lon="6.96722">
        <ele>483</ele>
        <time>2022-09-30T10:16:22Z</time>
      </trkpt>
      <trkpt lat="46.92151" lon="6.96724">
        <ele>483</ele>
        <time>2022-09-30T10:16:23Z</time>
      </trkpt>
      <trkpt lat="46.92148" lon="6.9673">
        <ele>483.2</ele>
        <time>2022-09-30T10:16:24Z</time>
      </trkpt>
      <trkpt lat="46.92148" lon="6.96731">
        <ele>483.2</ele>
        <time>2022-09-30T10:16:25Z</time>
      </trkpt>
      <trkpt lat="46.92146" lon="6.96736">
        <ele>483.3</ele>
        <time>2022-09-30T10:16:26Z</time>
      </trkpt>
      <trkpt lat="46.92145" lon="6.96738">
        <ele>483.4</ele>
        <time>2022-09-30T10:16:27Z</time>
      </trkpt>
      <trkpt lat="46.92143" lon="6.96743">
        <ele>483.5</ele>
        <time>2022-09-30T10:16:28Z</time>
      </trkpt>
      <trkpt lat="46.92143" lon="6.96745">
        <ele>483.6</ele>
        <time>2022-09-30T10:16:29Z</time>
      </trkpt>
      <trkpt lat="46.9214" lon="6.96749">
        <ele>483.7</ele>
        <time>2022-09-30T10:16:30Z</time>
      </trkpt>
      <trkpt lat="46.9214" lon="6.96751">
        <ele>483.7</ele>
        <time>2022-09-30T10:16:31Z</time>
      </trkpt>
      <trkpt lat="46.92138" lon="6.96756">
        <ele>483.8</ele>
        <time>2022-09-30T10:16:32Z</time>
      </trkpt>
      <trkpt lat="46.92137" lon="6.96757">
        <ele>483.9</ele>
        <time>2022-09-30T10:16:33Z</time>
      </trkpt>
      <trkpt lat="46.92135" lon="6.96762">
        <ele>484</ele>
        <time>2022-09-30T10:16:34Z</time>
      </trkpt>
      <trkpt lat="46.92135" lon="6.96763">
        <ele>484</ele>
        <time>2022-09-30T10:16:35Z</time>
      </trkpt>
      <trkpt lat="46.92134" lon="6.96768">
        <ele>484.1</ele>
        <time>2022-09-30T10:16:36Z</time>
      </trkpt>
      <trkpt lat="46.92131" lon="6.96771">
        <ele>484.3</ele>
        <time>2022-09-30T10:16:37Z</time>
      </trkpt>
      <trkpt lat="46.92129" lon="6.96774">
        <ele>484.4</ele>
        <time>2022-09-30T10:16:38Z</time>
      </trkpt>
      <trkpt lat="46.92126" lon="6.96779">
        <ele>484.5</ele>
        <time>2022-09-30T10:16:39Z</time>
      </trkpt>
      <trkpt lat="46.92125" lon="6.9678">
        <ele>484.5</ele>
        <time>2022-09-30T10:16:40Z</time>
      </trkpt>
      <trkpt lat="46.92122" lon="6.96783">
        <ele>484.6</ele>
        <time>2022-09-30T10:16:41Z</time>
      </trkpt>
      <trkpt lat="46.92121" lon="6.96784">
        <ele>484.7</ele>
        <time>2022-09-30T10:16:42Z</time>
      </trkpt>
      <trkpt lat="46.92118" lon="6.96788">
        <ele>484.8</ele>
        <time>2022-09-30T10:16:43Z</time>
      </trkpt>
      <trkpt lat="46.92117" lon="6.96789">
        <ele>484.8</ele>
        <time>2022-09-30T10:16:44Z</time>
      </trkpt>
      <trkpt lat="46.92114" lon="6.96792">
        <ele>484.9</ele>
        <time>2022-09-30T10:16:45Z</time>
      </trkpt>
      <trkpt lat="46.92112" lon="6.96795">
        <ele>485</ele>
        <time>2022-09-30T10:16:46Z</time>
      </trkpt>
      <trkpt lat="46.92111" lon="6.96796">
        <ele>485</ele>
        <time>2022-09-30T10:16:47Z</time>
      </trkpt>
      <trkpt lat="46.92108" lon="6.96799">
        <ele>485.1</ele>
        <time>2022-09-30T10:16:48Z</time>
      </trkpt>
      <trkpt lat="46.92107" lon="6.968">
        <ele>485.2</ele>
        <time>2022-09-30T10:16:49Z</time>
      </trkpt>
      <trkpt lat="46.92104" lon="6.96803">
        <ele>485.3</ele>
        <time>2022-09-30T10:16:50Z</time>
      </trkpt>
      <trkpt lat="46.92102" lon="6.96806">
        <ele>485.4</ele>
        <time>2022-09-30T10:16:51Z</time>
      </trkpt>
      <trkpt lat="46.92099" lon="6.96808">
        <ele>485.4</ele>
        <time>2022-09-30T10:16:52Z</time>
      </trkpt>
      <trkpt lat="46.92098" lon="6.96809">
        <ele>485.5</ele>
        <time>2022-09-30T10:16:53Z</time>
      </trkpt>
      <trkpt lat="46.92096" lon="6.96811">
        <ele>485.5</ele>
        <time>2022-09-30T10:16:54Z</time>
      </trkpt>
      <trkpt lat="46.92093" lon="6.96813">
        <ele>485.6</ele>
        <time>2022-09-30T10:16:55Z</time>
      </trkpt>
      <trkpt lat="46.92092" lon="6.96814">
        <ele>485.6</ele>
        <time>2022-09-30T10:16:56Z</time>
      </trkpt>
      <trkpt lat="46.92088" lon="6.96817">
        <ele>485.8</ele>
        <time>2022-09-30T10:16:57Z</time>
      </trkpt>
      <trkpt lat="46.92087" lon="6.96819">
        <ele>485.8</ele>
        <time>2022-09-30T10:16:58Z</time>
      </trkpt>
      <trkpt lat="46.92084" lon="6.96821">
        <ele>485.9</ele>
        <time>2022-09-30T10:16:59Z</time>
      </trkpt>
      <trkpt lat="46.92082" lon="6.96823">
        <ele>485.9</ele>
        <time>2022-09-30T10:17:00Z</time>
      </trkpt>
      <trkpt lat="46.92079" lon="6.96826">
        <ele>486</ele>
        <time>2022-09-30T10:17:01Z</time>
      </trkpt>
      <trkpt lat="46.92078" lon="6.96828">
        <ele>486.1</ele>
        <time>2022-09-30T10:17:02Z</time>
      </trkpt>
      <trkpt lat="46.92076" lon="6.9683">
        <ele>486.2</ele>
        <time>2022-09-30T10:17:03Z</time>
      </trkpt>
      <trkpt lat="46.92074" lon="6.96831">
        <ele>486.2</ele>
        <time>2022-09-30T10:17:04Z</time>
      </trkpt>
      <trkpt lat="46.92072" lon="6.96833">
        <ele>486.3</ele>
        <time>2022-09-30T10:17:05Z</time>
      </trkpt>
      <trkpt lat="46.9207" lon="6.96836">
        <ele>486.4</ele>
        <time>2022-09-30T10:17:06Z</time>
      </trkpt>
      <trkpt lat="46.92067" lon="6.96838">
        <ele>486.4</ele>
        <time>2022-09-30T10:17:07Z</time>
      </trkpt>
      <trkpt lat="46.92064" lon="6.96841">
        <ele>486.5</ele>
        <time>2022-09-30T10:17:08Z</time>
      </trkpt>
      <trkpt lat="46.92063" lon="6.96842">
        <ele>486.6</ele>
        <time>2022-09-30T10:17:09Z</time>
      </trkpt>
      <trkpt lat="46.9206" lon="6.96844">
        <ele>486.7</ele>
        <time>2022-09-30T10:17:10Z</time>
      </trkpt>
      <trkpt lat="46.92059" lon="6.96845">
        <ele>486.7</ele>
        <time>2022-09-30T10:17:11Z</time>
      </trkpt>
      <trkpt lat="46.92056" lon="6.96847">
        <ele>486.8</ele>
        <time>2022-09-30T10:17:12Z</time>
      </trkpt>
      <trkpt lat="46.92053" lon="6.96849">
        <ele>486.9</ele>
        <time>2022-09-30T10:17:13Z</time>
      </trkpt>
      <trkpt lat="46.92052" lon="6.9685">
        <ele>487</ele>
        <time>2022-09-30T10:17:14Z</time>
      </trkpt>
      <trkpt lat="46.92049" lon="6.96852">
        <ele>487.1</ele>
        <time>2022-09-30T10:17:15Z</time>
      </trkpt>
      <trkpt lat="46.92049" lon="6.96853">
        <ele>487.1</ele>
        <time>2022-09-30T10:17:16Z</time>
      </trkpt>
      <trkpt lat="46.92047" lon="6.96854">
        <ele>487.2</ele>
        <time>2022-09-30T10:17:17Z</time>
      </trkpt>
      <trkpt lat="46.92046" lon="6.96855">
        <ele>487.2</ele>
        <time>2022-09-30T10:17:18Z</time>
      </trkpt>
      <trkpt lat="46.92042" lon="6.96857">
        <ele>487.3</ele>
        <time>2022-09-30T10:17:19Z</time>
      </trkpt>
      <trkpt lat="46.92041" lon="6.96858">
        <ele>487.4</ele>
        <time>2022-09-30T10:17:20Z</time>
      </trkpt>
      <trkpt lat="46.92038" lon="6.96861">
        <ele>487.5</ele>
        <time>2022-09-30T10:17:21Z</time>
      </trkpt>
      <trkpt lat="46.92037" lon="6.96862">
        <ele>487.5</ele>
        <time>2022-09-30T10:17:22Z</time>
      </trkpt>
      <trkpt lat="46.92036" lon="6.96862">
        <ele>487.6</ele>
        <time>2022-09-30T10:17:23Z</time>
      </trkpt>
      <trkpt lat="46.92034" lon="6.96865">
        <ele>487.7</ele>
        <time>2022-09-30T10:17:24Z</time>
      </trkpt>
      <trkpt lat="46.92032" lon="6.96867">
        <ele>487.7</ele>
        <time>2022-09-30T10:17:25Z</time>
      </trkpt>
      <trkpt lat="46.9203" lon="6.9687">
        <ele>487.8</ele>
        <time>2022-09-30T10:17:26Z</time>
      </trkpt>
      <trkpt lat="46.92029" lon="6.96871">
        <ele>487.9</ele>
        <time>2022-09-30T10:17:27Z</time>
      </trkpt>
      <trkpt lat="46.92028" lon="6.96875">
        <ele>488</ele>
        <time>2022-09-30T10:17:28Z</time>
      </trkpt>
      <trkpt lat="46.92027" lon="6.96876">
        <ele>488</ele>
        <time>2022-09-30T10:17:29Z</time>
      </trkpt>
      <trkpt lat="46.92025" lon="6.96881">
        <ele>488.1</ele>
        <time>2022-09-30T10:17:30Z</time>
      </trkpt>
      <trkpt lat="46.92024" lon="6.96883">
        <ele>488.2</ele>
        <time>2022-09-30T10:17:31Z</time>
      </trkpt>
      <trkpt lat="46.92022" lon="6.96887">
        <ele>488.3</ele>
        <time>2022-09-30T10:17:32Z</time>
      </trkpt>
      <trkpt lat="46.92021" lon="6.96888">
        <ele>488.3</ele>
        <time>2022-09-30T10:17:33Z</time>
      </trkpt>
      <trkpt lat="46.92019" lon="6.96892">
        <ele>488.4</ele>
        <time>2022-09-30T10:17:34Z</time>
      </trkpt>
      <trkpt lat="46.92018" lon="6.96895">
        <ele>488.5</ele>
        <time>2022-09-30T10:17:35Z</time>
      </trkpt>
      <trkpt lat="46.92016" lon="6.96899">
        <ele>488.6</ele>
        <time>2022-09-30T10:17:36Z</time>
      </trkpt>
      <trkpt lat="46.92016" lon="6.96903">
        <ele>488.7</ele>
        <time>2022-09-30T10:17:37Z</time>
      </trkpt>
      <trkpt lat="46.92015" lon="6.96909">
        <ele>488.8</ele>
        <time>2022-09-30T10:17:38Z</time>
      </trkpt>
      <trkpt lat="46.92014" lon="6.96913">
        <ele>488.9</ele>
        <time>2022-09-30T10:17:39Z</time>
      </trkpt>
      <trkpt lat="46.92013" lon="6.96918">
        <ele>489</ele>
        <time>2022-09-30T10:17:40Z</time>
      </trkpt>
      <trkpt lat="46.92013" lon="6.96923">
        <ele>489.1</ele>
        <time>2022-09-30T10:17:41Z</time>
      </trkpt>
      <trkpt lat="46.92013" lon="6.96928">
        <ele>489.2</ele>
        <time>2022-09-30T10:17:42Z</time>
      </trkpt>
      <trkpt lat="46.92014" lon="6.96932">
        <ele>489.3</ele>
        <time>2022-09-30T10:17:43Z</time>
      </trkpt>
      <trkpt lat="46.92014" lon="6.96936">
        <ele>489.4</ele>
        <time>2022-09-30T10:17:44Z</time>
      </trkpt>
      <trkpt lat="46.92015" lon="6.96941">
        <ele>489.5</ele>
        <time>2022-09-30T10:17:45Z</time>
      </trkpt>
      <trkpt lat="46.92016" lon="6.96943">
        <ele>489.6</ele>
        <time>2022-09-30T10:17:46Z</time>
      </trkpt>
      <trkpt lat="46.92018" lon="6.96948">
        <ele>489.7</ele>
        <time>2022-09-30T10:17:47Z</time>
      </trkpt>
      <trkpt lat="46.92018" lon="6.9695">
        <ele>489.7</ele>
        <time>2022-09-30T10:17:48Z</time>
      </trkpt>
      <trkpt lat="46.92019" lon="6.96954">
        <ele>489.8</ele>
        <time>2022-09-30T10:17:49Z</time>
      </trkpt>
      <trkpt lat="46.92021" lon="6.96958">
        <ele>489.9</ele>
        <time>2022-09-30T10:17:50Z</time>
      </trkpt>
      <trkpt lat="46.92022" lon="6.96962">
        <ele>490</ele>
        <time>2022-09-30T10:17:51Z</time>
      </trkpt>
      <trkpt lat="46.92023" lon="6.96966">
        <ele>490.1</ele>
        <time>2022-09-30T10:17:52Z</time>
      </trkpt>
      <trkpt lat="46.92024" lon="6.96968">
        <ele>490.2</ele>
        <time>2022-09-30T10:17:53Z</time>
      </trkpt>
      <trkpt lat="46.92025" lon="6.96971">
        <ele>490.3</ele>
        <time>2022-09-30T10:17:54Z</time>
      </trkpt>
      <trkpt lat="46.92026" lon="6.96975">
        <ele>490.4</ele>
        <time>2022-09-30T10:17:55Z</time>
      </trkpt>
      <trkpt lat="46.92028" lon="6.9698">
        <ele>490.5</ele>
        <time>2022-09-30T10:17:56Z</time>
      </trkpt>
      <trkpt lat="46.92028" lon="6.96982">
        <ele>490.6</ele>
        <time>2022-09-30T10:17:57Z</time>
      </trkpt>
      <trkpt lat="46.9203" lon="6.96987">
        <ele>490.7</ele>
        <time>2022-09-30T10:17:58Z</time>
      </trkpt>
      <trkpt lat="46.92031" lon="6.96988">
        <ele>490.8</ele>
        <time>2022-09-30T10:17:59Z</time>
      </trkpt>
      <trkpt lat="46.92032" lon="6.96993">
        <ele>490.9</ele>
        <time>2022-09-30T10:18:00Z</time>
      </trkpt>
      <trkpt lat="46.92032" lon="6.96995">
        <ele>491</ele>
        <time>2022-09-30T10:18:01Z</time>
      </trkpt>
      <trkpt lat="46.92034" lon="6.96999">
        <ele>491.1</ele>
        <time>2022-09-30T10:18:02Z</time>
      </trkpt>
      <trkpt lat="46.92034" lon="6.97001">
        <ele>491.2</ele>
        <time>2022-09-30T10:18:03Z</time>
      </trkpt>
      <trkpt lat="46.92036" lon="6.97006">
        <ele>491.4</ele>
        <time>2022-09-30T10:18:04Z</time>
      </trkpt>
      <trkpt lat="46.92036" lon="6.97008">
        <ele>491.4</ele>
        <time>2022-09-30T10:18:05Z</time>
      </trkpt>
      <trkpt lat="46.92038" lon="6.97012">
        <ele>491.5</ele>
        <time>2022-09-30T10:18:06Z</time>
      </trkpt>
      <trkpt lat="46.92038" lon="6.97013">
        <ele>491.6</ele>
        <time>2022-09-30T10:18:07Z</time>
      </trkpt>
      <trkpt lat="46.9204" lon="6.97017">
        <ele>491.7</ele>
        <time>2022-09-30T10:18:08Z</time>
      </trkpt>
      <trkpt lat="46.92041" lon="6.97018">
        <ele>491.7</ele>
        <time>2022-09-30T10:18:09Z</time>
      </trkpt>
      <trkpt lat="46.92042" lon="6.97022">
        <ele>491.9</ele>
        <time>2022-09-30T10:18:11Z</time>
      </trkpt>
      <trkpt lat="46.92042" lon="6.97024">
        <ele>491.9</ele>
        <time>2022-09-30T10:18:12Z</time>
      </trkpt>
      <trkpt lat="46.92043" lon="6.97029">
        <ele>492.1</ele>
        <time>2022-09-30T10:18:13Z</time>
      </trkpt>
      <trkpt lat="46.92044" lon="6.97031">
        <ele>492.1</ele>
        <time>2022-09-30T10:18:14Z</time>
      </trkpt>
      <trkpt lat="46.92046" lon="6.97035">
        <ele>492.3</ele>
        <time>2022-09-30T10:18:15Z</time>
      </trkpt>
      <trkpt lat="46.92046" lon="6.97037">
        <ele>492.3</ele>
        <time>2022-09-30T10:18:16Z</time>
      </trkpt>
      <trkpt lat="46.92048" lon="6.97041">
        <ele>492.5</ele>
        <time>2022-09-30T10:18:17Z</time>
      </trkpt>
      <trkpt lat="46.92049" lon="6.97043">
        <ele>492.6</ele>
        <time>2022-09-30T10:18:18Z</time>
      </trkpt>
      <trkpt lat="46.9205" lon="6.97047">
        <ele>492.7</ele>
        <time>2022-09-30T10:18:19Z</time>
      </trkpt>
      <trkpt lat="46.92051" lon="6.97049">
        <ele>492.7</ele>
        <time>2022-09-30T10:18:20Z</time>
      </trkpt>
      <trkpt lat="46.92052" lon="6.97052">
        <ele>492.9</ele>
        <time>2022-09-30T10:18:21Z</time>
      </trkpt>
      <trkpt lat="46.92053" lon="6.97054">
        <ele>492.9</ele>
        <time>2022-09-30T10:18:22Z</time>
      </trkpt>
      <trkpt lat="46.92054" lon="6.97057">
        <ele>493</ele>
        <time>2022-09-30T10:18:23Z</time>
      </trkpt>
      <trkpt lat="46.92055" lon="6.97058">
        <ele>493.1</ele>
        <time>2022-09-30T10:18:24Z</time>
      </trkpt>
      <trkpt lat="46.92056" lon="6.97062">
        <ele>493.2</ele>
        <time>2022-09-30T10:18:25Z</time>
      </trkpt>
      <trkpt lat="46.92057" lon="6.97063">
        <ele>493.2</ele>
        <time>2022-09-30T10:18:26Z</time>
      </trkpt>
      <trkpt lat="46.92058" lon="6.97064">
        <ele>493.3</ele>
        <time>2022-09-30T10:18:27Z</time>
      </trkpt>
      <trkpt lat="46.92059" lon="6.97066">
        <ele>493.4</ele>
        <time>2022-09-30T10:18:28Z</time>
      </trkpt>
      <trkpt lat="46.9206" lon="6.97071">
        <ele>493.5</ele>
        <time>2022-09-30T10:18:29Z</time>
      </trkpt>
      <trkpt lat="46.92061" lon="6.97072">
        <ele>493.6</ele>
        <time>2022-09-30T10:18:30Z</time>
      </trkpt>
      <trkpt lat="46.92062" lon="6.97077">
        <ele>493.7</ele>
        <time>2022-09-30T10:18:31Z</time>
      </trkpt>
      <trkpt lat="46.92062" lon="6.97078">
        <ele>493.8</ele>
        <time>2022-09-30T10:18:32Z</time>
      </trkpt>
      <trkpt lat="46.92063" lon="6.97083">
        <ele>493.9</ele>
        <time>2022-09-30T10:18:33Z</time>
      </trkpt>
      <trkpt lat="46.92064" lon="6.97084">
        <ele>493.9</ele>
        <time>2022-09-30T10:18:34Z</time>
      </trkpt>
      <trkpt lat="46.92065" lon="6.97088">
        <ele>494</ele>
        <time>2022-09-30T10:18:35Z</time>
      </trkpt>
      <trkpt lat="46.92065" lon="6.97089">
        <ele>494.1</ele>
        <time>2022-09-30T10:18:36Z</time>
      </trkpt>
      <trkpt lat="46.92066" lon="6.97091">
        <ele>494.2</ele>
        <time>2022-09-30T10:18:37Z</time>
      </trkpt>
      <trkpt lat="46.92067" lon="6.97093">
        <ele>494.2</ele>
        <time>2022-09-30T10:18:38Z</time>
      </trkpt>
      <trkpt lat="46.92068" lon="6.97096">
        <ele>494.3</ele>
        <time>2022-09-30T10:18:39Z</time>
      </trkpt>
      <trkpt lat="46.92068" lon="6.97097">
        <ele>494.4</ele>
        <time>2022-09-30T10:18:40Z</time>
      </trkpt>
      <trkpt lat="46.92069" lon="6.97098">
        <ele>494.4</ele>
        <time>2022-09-30T10:18:41Z</time>
      </trkpt>
      <trkpt lat="46.9207" lon="6.97103">
        <ele>494.5</ele>
        <time>2022-09-30T10:18:42Z</time>
      </trkpt>
      <trkpt lat="46.9207" lon="6.97105">
        <ele>494.6</ele>
        <time>2022-09-30T10:18:43Z</time>
      </trkpt>
      <trkpt lat="46.92071" lon="6.97107">
        <ele>494.7</ele>
        <time>2022-09-30T10:18:44Z</time>
      </trkpt>
      <trkpt lat="46.92072" lon="6.97113">
        <ele>494.9</ele>
        <time>2022-09-30T10:18:45Z</time>
      </trkpt>
      <trkpt lat="46.92073" lon="6.97116">
        <ele>495</ele>
        <time>2022-09-30T10:18:46Z</time>
      </trkpt>
      <trkpt lat="46.92073" lon="6.97117">
        <ele>495</ele>
        <time>2022-09-30T10:18:47Z</time>
      </trkpt>
      <trkpt lat="46.92074" lon="6.97122">
        <ele>495.2</ele>
        <time>2022-09-30T10:18:48Z</time>
      </trkpt>
      <trkpt lat="46.92075" lon="6.97124">
        <ele>495.2</ele>
        <time>2022-09-30T10:18:49Z</time>
      </trkpt>
      <trkpt lat="46.92076" lon="6.97128">
        <ele>495.3</ele>
        <time>2022-09-30T10:18:50Z</time>
      </trkpt>
      <trkpt lat="46.92076" lon="6.9713">
        <ele>495.4</ele>
        <time>2022-09-30T10:18:51Z</time>
      </trkpt>
      <trkpt lat="46.92078" lon="6.97134">
        <ele>495.5</ele>
        <time>2022-09-30T10:18:52Z</time>
      </trkpt>
      <trkpt lat="46.92078" lon="6.97136">
        <ele>495.6</ele>
        <time>2022-09-30T10:18:53Z</time>
      </trkpt>
      <trkpt lat="46.9208" lon="6.9714">
        <ele>495.7</ele>
        <time>2022-09-30T10:18:54Z</time>
      </trkpt>
      <trkpt lat="46.92082" lon="6.97147">
        <ele>495.8</ele>
        <time>2022-09-30T10:18:55Z</time>
      </trkpt>
      <trkpt lat="46.92082" lon="6.97151">
        <ele>495.9</ele>
        <time>2022-09-30T10:18:56Z</time>
      </trkpt>
      <trkpt lat="46.92082" lon="6.97152">
        <ele>496</ele>
        <time>2022-09-30T10:18:57Z</time>
      </trkpt>
      <trkpt lat="46.92083" lon="6.97157">
        <ele>496.1</ele>
        <time>2022-09-30T10:18:58Z</time>
      </trkpt>
      <trkpt lat="46.92085" lon="6.97162">
        <ele>496.2</ele>
        <time>2022-09-30T10:18:59Z</time>
      </trkpt>
      <trkpt lat="46.92086" lon="6.97164">
        <ele>496.2</ele>
        <time>2022-09-30T10:19:00Z</time>
      </trkpt>
      <trkpt lat="46.92087" lon="6.97167">
        <ele>496.3</ele>
        <time>2022-09-30T10:19:01Z</time>
      </trkpt>
      <trkpt lat="46.92088" lon="6.97171">
        <ele>496.4</ele>
        <time>2022-09-30T10:19:02Z</time>
      </trkpt>
      <trkpt lat="46.9209" lon="6.97175">
        <ele>496.4</ele>
        <time>2022-09-30T10:19:03Z</time>
      </trkpt>
      <trkpt lat="46.9209" lon="6.97179">
        <ele>496.5</ele>
        <time>2022-09-30T10:19:04Z</time>
      </trkpt>
      <trkpt lat="46.92092" lon="6.97184">
        <ele>496.6</ele>
        <time>2022-09-30T10:19:05Z</time>
      </trkpt>
      <trkpt lat="46.92093" lon="6.97188">
        <ele>496.7</ele>
        <time>2022-09-30T10:19:06Z</time>
      </trkpt>
      <trkpt lat="46.92095" lon="6.97192">
        <ele>496.7</ele>
        <time>2022-09-30T10:19:07Z</time>
      </trkpt>
      <trkpt lat="46.92098" lon="6.97197">
        <ele>496.8</ele>
        <time>2022-09-30T10:19:08Z</time>
      </trkpt>
      <trkpt lat="46.92099" lon="6.97201">
        <ele>496.9</ele>
        <time>2022-09-30T10:19:09Z</time>
      </trkpt>
      <trkpt lat="46.92101" lon="6.97207">
        <ele>496.9</ele>
        <time>2022-09-30T10:19:10Z</time>
      </trkpt>
      <trkpt lat="46.92102" lon="6.97212">
        <ele>497</ele>
        <time>2022-09-30T10:19:11Z</time>
      </trkpt>
      <trkpt lat="46.92104" lon="6.97215">
        <ele>497</ele>
        <time>2022-09-30T10:19:12Z</time>
      </trkpt>
      <trkpt lat="46.92106" lon="6.9722">
        <ele>497.1</ele>
        <time>2022-09-30T10:19:13Z</time>
      </trkpt>
      <trkpt lat="46.92107" lon="6.97223">
        <ele>497.1</ele>
        <time>2022-09-30T10:19:14Z</time>
      </trkpt>
      <trkpt lat="46.92109" lon="6.97228">
        <ele>497.1</ele>
        <time>2022-09-30T10:19:15Z</time>
      </trkpt>
      <trkpt lat="46.92111" lon="6.97233">
        <ele>497.2</ele>
        <time>2022-09-30T10:19:16Z</time>
      </trkpt>
      <trkpt lat="46.92114" lon="6.97238">
        <ele>497.2</ele>
        <time>2022-09-30T10:19:17Z</time>
      </trkpt>
      <trkpt lat="46.92114" lon="6.9724">
        <ele>497.2</ele>
        <time>2022-09-30T10:19:18Z</time>
      </trkpt>
      <trkpt lat="46.92116" lon="6.97244">
        <ele>497.2</ele>
        <time>2022-09-30T10:19:19Z</time>
      </trkpt>
      <trkpt lat="46.92119" lon="6.97248">
        <ele>497.3</ele>
        <time>2022-09-30T10:19:20Z</time>
      </trkpt>
      <trkpt lat="46.9212" lon="6.97252">
        <ele>497.3</ele>
        <time>2022-09-30T10:19:21Z</time>
      </trkpt>
      <trkpt lat="46.92123" lon="6.97256">
        <ele>497.3</ele>
        <time>2022-09-30T10:19:22Z</time>
      </trkpt>
      <trkpt lat="46.92125" lon="6.97258">
        <ele>497.3</ele>
        <time>2022-09-30T10:19:23Z</time>
      </trkpt>
      <trkpt lat="46.92127" lon="6.97262">
        <ele>497.3</ele>
        <time>2022-09-30T10:19:24Z</time>
      </trkpt>
      <trkpt lat="46.92129" lon="6.97266">
        <ele>497.3</ele>
        <time>2022-09-30T10:19:25Z</time>
      </trkpt>
      <trkpt lat="46.92131" lon="6.9727">
        <ele>497.4</ele>
        <time>2022-09-30T10:19:26Z</time>
      </trkpt>
      <trkpt lat="46.92133" lon="6.97273">
        <ele>497.4</ele>
        <time>2022-09-30T10:19:27Z</time>
      </trkpt>
      <trkpt lat="46.92136" lon="6.97277">
        <ele>497.4</ele>
        <time>2022-09-30T10:19:28Z</time>
      </trkpt>
      <trkpt lat="46.92138" lon="6.97281">
        <ele>497.4</ele>
        <time>2022-09-30T10:19:29Z</time>
      </trkpt>
      <trkpt lat="46.9214" lon="6.97286">
        <ele>497.4</ele>
        <time>2022-09-30T10:19:30Z</time>
      </trkpt>
      <trkpt lat="46.92143" lon="6.9729">
        <ele>497.4</ele>
        <time>2022-09-30T10:19:31Z</time>
      </trkpt>
      <trkpt lat="46.92144" lon="6.97292">
        <ele>497.4</ele>
        <time>2022-09-30T10:19:32Z</time>
      </trkpt>
      <trkpt lat="46.92146" lon="6.97297">
        <ele>497.4</ele>
        <time>2022-09-30T10:19:33Z</time>
      </trkpt>
      <trkpt lat="46.92148" lon="6.97301">
        <ele>497.5</ele>
        <time>2022-09-30T10:19:34Z</time>
      </trkpt>
      <trkpt lat="46.9215" lon="6.97304">
        <ele>497.5</ele>
        <time>2022-09-30T10:19:35Z</time>
      </trkpt>
      <trkpt lat="46.92153" lon="6.97306">
        <ele>497.5</ele>
        <time>2022-09-30T10:19:36Z</time>
      </trkpt>
      <trkpt lat="46.92156" lon="6.9731">
        <ele>497.5</ele>
        <time>2022-09-30T10:19:37Z</time>
      </trkpt>
      <trkpt lat="46.92157" lon="6.97312">
        <ele>497.5</ele>
        <time>2022-09-30T10:19:38Z</time>
      </trkpt>
      <trkpt lat="46.9216" lon="6.97317">
        <ele>497.5</ele>
        <time>2022-09-30T10:19:39Z</time>
      </trkpt>
      <trkpt lat="46.92162" lon="6.97321">
        <ele>497.5</ele>
        <time>2022-09-30T10:19:40Z</time>
      </trkpt>
      <trkpt lat="46.92165" lon="6.97324">
        <ele>497.5</ele>
        <time>2022-09-30T10:19:41Z</time>
      </trkpt>
      <trkpt lat="46.92168" lon="6.97328">
        <ele>497.5</ele>
        <time>2022-09-30T10:19:42Z</time>
      </trkpt>
      <trkpt lat="46.92171" lon="6.97331">
        <ele>497.5</ele>
        <time>2022-09-30T10:19:43Z</time>
      </trkpt>
      <trkpt lat="46.92174" lon="6.97334">
        <ele>497.6</ele>
        <time>2022-09-30T10:19:44Z</time>
      </trkpt>
      <trkpt lat="46.92176" lon="6.97338">
        <ele>497.6</ele>
        <time>2022-09-30T10:19:45Z</time>
      </trkpt>
      <trkpt lat="46.92179" lon="6.97341">
        <ele>497.6</ele>
        <time>2022-09-30T10:19:46Z</time>
      </trkpt>
      <trkpt lat="46.92182" lon="6.97345">
        <ele>497.6</ele>
        <time>2022-09-30T10:19:47Z</time>
      </trkpt>
      <trkpt lat="46.92184" lon="6.97349">
        <ele>497.6</ele>
        <time>2022-09-30T10:19:48Z</time>
      </trkpt>
      <trkpt lat="46.92187" lon="6.97352">
        <ele>497.6</ele>
        <time>2022-09-30T10:19:49Z</time>
      </trkpt>
      <trkpt lat="46.92188" lon="6.97357">
        <ele>497.6</ele>
        <time>2022-09-30T10:19:50Z</time>
      </trkpt>
      <trkpt lat="46.9219" lon="6.97361">
        <ele>497.6</ele>
        <time>2022-09-30T10:19:51Z</time>
      </trkpt>
      <trkpt lat="46.92192" lon="6.97364">
        <ele>497.6</ele>
        <time>2022-09-30T10:19:52Z</time>
      </trkpt>
      <trkpt lat="46.92194" lon="6.97367">
        <ele>497.7</ele>
        <time>2022-09-30T10:19:53Z</time>
      </trkpt>
      <trkpt lat="46.92195" lon="6.9737">
        <ele>497.7</ele>
        <time>2022-09-30T10:19:54Z</time>
      </trkpt>
      <trkpt lat="46.92196" lon="6.97371">
        <ele>497.7</ele>
        <time>2022-09-30T10:19:55Z</time>
      </trkpt>
      <trkpt lat="46.92197" lon="6.97373">
        <ele>497.7</ele>
        <time>2022-09-30T10:19:56Z</time>
      </trkpt>
      <trkpt lat="46.92198" lon="6.97374">
        <ele>497.7</ele>
        <time>2022-09-30T10:19:57Z</time>
      </trkpt>
      <trkpt lat="46.92199" lon="6.97375">
        <ele>497.7</ele>
        <time>2022-09-30T10:19:58Z</time>
      </trkpt>
      <trkpt lat="46.922" lon="6.97376">
        <ele>497.8</ele>
        <time>2022-09-30T10:19:59Z</time>
      </trkpt>
      <trkpt lat="46.92201" lon="6.97377">
        <ele>497.8</ele>
        <time>2022-09-30T10:20:00Z</time>
      </trkpt>
      <trkpt lat="46.92202" lon="6.97378">
        <ele>497.8</ele>
        <time>2022-09-30T10:20:01Z</time>
      </trkpt>
      <trkpt lat="46.92203" lon="6.97379">
        <ele>497.8</ele>
        <time>2022-09-30T10:20:02Z</time>
      </trkpt>
      <trkpt lat="46.92204" lon="6.9738">
        <ele>497.8</ele>
        <time>2022-09-30T10:20:03Z</time>
      </trkpt>
      <trkpt lat="46.92206" lon="6.97382">
        <ele>497.8</ele>
        <time>2022-09-30T10:20:04Z</time>
      </trkpt>
      <trkpt lat="46.92207" lon="6.97383">
        <ele>497.9</ele>
        <time>2022-09-30T10:20:05Z</time>
      </trkpt>
      <trkpt lat="46.92208" lon="6.97384">
        <ele>497.9</ele>
        <time>2022-09-30T10:21:27Z</time>
      </trkpt>
      <trkpt lat="46.92209" lon="6.97385">
        <ele>497.9</ele>
        <time>2022-09-30T10:21:28Z</time>
      </trkpt>
      <trkpt lat="46.92211" lon="6.97386">
        <ele>497.9</ele>
        <time>2022-09-30T10:21:29Z</time>
      </trkpt>
      <trkpt lat="46.92212" lon="6.97387">
        <ele>497.9</ele>
        <time>2022-09-30T10:21:30Z</time>
      </trkpt>
      <trkpt lat="46.92213" lon="6.97391">
        <ele>498</ele>
        <time>2022-09-30T10:21:31Z</time>
      </trkpt>
      <trkpt lat="46.92215" lon="6.97395">
        <ele>498</ele>
        <time>2022-09-30T10:21:32Z</time>
      </trkpt>
      <trkpt lat="46.92216" lon="6.97397">
        <ele>498</ele>
        <time>2022-09-30T10:21:33Z</time>
      </trkpt>
      <trkpt lat="46.92218" lon="6.97401">
        <ele>498.1</ele>
        <time>2022-09-30T10:21:34Z</time>
      </trkpt>
      <trkpt lat="46.92219" lon="6.97403">
        <ele>498.1</ele>
        <time>2022-09-30T10:21:35Z</time>
      </trkpt>
      <trkpt lat="46.92222" lon="6.97407">
        <ele>498.2</ele>
        <time>2022-09-30T10:21:36Z</time>
      </trkpt>
      <trkpt lat="46.92223" lon="6.97408">
        <ele>498.2</ele>
        <time>2022-09-30T10:21:37Z</time>
      </trkpt>
      <trkpt lat="46.92225" lon="6.97412">
        <ele>498.2</ele>
        <time>2022-09-30T10:21:38Z</time>
      </trkpt>
      <trkpt lat="46.92227" lon="6.97417">
        <ele>498.3</ele>
        <time>2022-09-30T10:21:39Z</time>
      </trkpt>
      <trkpt lat="46.92229" lon="6.97421">
        <ele>498.3</ele>
        <time>2022-09-30T10:21:40Z</time>
      </trkpt>
      <trkpt lat="46.92232" lon="6.97423">
        <ele>498.4</ele>
        <time>2022-09-30T10:21:41Z</time>
      </trkpt>
      <trkpt lat="46.92234" lon="6.97426">
        <ele>498.4</ele>
        <time>2022-09-30T10:21:42Z</time>
      </trkpt>
      <trkpt lat="46.92236" lon="6.9743">
        <ele>498.5</ele>
        <time>2022-09-30T10:21:43Z</time>
      </trkpt>
      <trkpt lat="46.92238" lon="6.97434">
        <ele>498.5</ele>
        <time>2022-09-30T10:21:44Z</time>
      </trkpt>
      <trkpt lat="46.9224" lon="6.97438">
        <ele>498.6</ele>
        <time>2022-09-30T10:21:45Z</time>
      </trkpt>
      <trkpt lat="46.92241" lon="6.97442">
        <ele>498.6</ele>
        <time>2022-09-30T10:21:46Z</time>
      </trkpt>
      <trkpt lat="46.92244" lon="6.97445">
        <ele>498.7</ele>
        <time>2022-09-30T10:21:47Z</time>
      </trkpt>
      <trkpt lat="46.92246" lon="6.9745">
        <ele>498.7</ele>
        <time>2022-09-30T10:21:48Z</time>
      </trkpt>
      <trkpt lat="46.92248" lon="6.97454">
        <ele>498.8</ele>
        <time>2022-09-30T10:21:49Z</time>
      </trkpt>
      <trkpt lat="46.92251" lon="6.97456">
        <ele>498.8</ele>
        <time>2022-09-30T10:21:50Z</time>
      </trkpt>
      <trkpt lat="46.92252" lon="6.97459">
        <ele>498.9</ele>
        <time>2022-09-30T10:21:51Z</time>
      </trkpt>
      <trkpt lat="46.92254" lon="6.97464">
        <ele>498.9</ele>
        <time>2022-09-30T10:21:52Z</time>
      </trkpt>
      <trkpt lat="46.92257" lon="6.97467">
        <ele>499</ele>
        <time>2022-09-30T10:21:53Z</time>
      </trkpt>
      <trkpt lat="46.92259" lon="6.9747">
        <ele>499</ele>
        <time>2022-09-30T10:21:54Z</time>
      </trkpt>
      <trkpt lat="46.92261" lon="6.97474">
        <ele>499.1</ele>
        <time>2022-09-30T10:21:55Z</time>
      </trkpt>
      <trkpt lat="46.92263" lon="6.97477">
        <ele>499.2</ele>
        <time>2022-09-30T10:21:56Z</time>
      </trkpt>
      <trkpt lat="46.92266" lon="6.97481">
        <ele>499.2</ele>
        <time>2022-09-30T10:21:57Z</time>
      </trkpt>
      <trkpt lat="46.92267" lon="6.97483">
        <ele>499.3</ele>
        <time>2022-09-30T10:21:58Z</time>
      </trkpt>
      <trkpt lat="46.92269" lon="6.97488">
        <ele>499.3</ele>
        <time>2022-09-30T10:21:59Z</time>
      </trkpt>
      <trkpt lat="46.92271" lon="6.97492">
        <ele>499.4</ele>
        <time>2022-09-30T10:22:00Z</time>
      </trkpt>
      <trkpt lat="46.92272" lon="6.97496">
        <ele>499.5</ele>
        <time>2022-09-30T10:22:01Z</time>
      </trkpt>
      <trkpt lat="46.92275" lon="6.97499">
        <ele>499.5</ele>
        <time>2022-09-30T10:22:02Z</time>
      </trkpt>
      <trkpt lat="46.92277" lon="6.97503">
        <ele>499.6</ele>
        <time>2022-09-30T10:22:03Z</time>
      </trkpt>
      <trkpt lat="46.92279" lon="6.97507">
        <ele>499.7</ele>
        <time>2022-09-30T10:22:04Z</time>
      </trkpt>
      <trkpt lat="46.92282" lon="6.97513">
        <ele>499.8</ele>
        <time>2022-09-30T10:22:05Z</time>
      </trkpt>
      <trkpt lat="46.92284" lon="6.97518">
        <ele>499.9</ele>
        <time>2022-09-30T10:22:06Z</time>
      </trkpt>
      <trkpt lat="46.92287" lon="6.97521">
        <ele>500</ele>
        <time>2022-09-30T10:22:07Z</time>
      </trkpt>
      <trkpt lat="46.92289" lon="6.97525">
        <ele>500.1</ele>
        <time>2022-09-30T10:22:08Z</time>
      </trkpt>
      <trkpt lat="46.9229" lon="6.97529">
        <ele>500.2</ele>
        <time>2022-09-30T10:22:09Z</time>
      </trkpt>
      <trkpt lat="46.92292" lon="6.97534">
        <ele>500.3</ele>
        <time>2022-09-30T10:22:10Z</time>
      </trkpt>
      <trkpt lat="46.92295" lon="6.97538">
        <ele>500.5</ele>
        <time>2022-09-30T10:22:11Z</time>
      </trkpt>
      <trkpt lat="46.92297" lon="6.97541">
        <ele>500.6</ele>
        <time>2022-09-30T10:22:12Z</time>
      </trkpt>
      <trkpt lat="46.92298" lon="6.97545">
        <ele>500.7</ele>
        <time>2022-09-30T10:22:13Z</time>
      </trkpt>
      <trkpt lat="46.923" lon="6.97548">
        <ele>500.8</ele>
        <time>2022-09-30T10:22:14Z</time>
      </trkpt>
      <trkpt lat="46.92302" lon="6.97551">
        <ele>500.9</ele>
        <time>2022-09-30T10:22:15Z</time>
      </trkpt>
      <trkpt lat="46.92305" lon="6.97555">
        <ele>501.1</ele>
        <time>2022-09-30T10:22:16Z</time>
      </trkpt>
      <trkpt lat="46.92305" lon="6.97556">
        <ele>501.1</ele>
        <time>2022-09-30T10:22:17Z</time>
      </trkpt>
      <trkpt lat="46.92306" lon="6.97561">
        <ele>501.3</ele>
        <time>2022-09-30T10:22:18Z</time>
      </trkpt>
      <trkpt lat="46.92306" lon="6.97563">
        <ele>501.3</ele>
        <time>2022-09-30T10:22:19Z</time>
      </trkpt>
      <trkpt lat="46.92308" lon="6.97568">
        <ele>501.5</ele>
        <time>2022-09-30T10:22:21Z</time>
      </trkpt>
      <trkpt lat="46.9231" lon="6.97573">
        <ele>501.7</ele>
        <time>2022-09-30T10:22:22Z</time>
      </trkpt>
      <trkpt lat="46.9231" lon="6.97574">
        <ele>501.7</ele>
        <time>2022-09-30T10:22:23Z</time>
      </trkpt>
      <trkpt lat="46.92312" lon="6.97579">
        <ele>501.9</ele>
        <time>2022-09-30T10:22:24Z</time>
      </trkpt>
      <trkpt lat="46.92313" lon="6.97581">
        <ele>502</ele>
        <time>2022-09-30T10:22:25Z</time>
      </trkpt>
      <trkpt lat="46.92315" lon="6.97585">
        <ele>502.2</ele>
        <time>2022-09-30T10:22:26Z</time>
      </trkpt>
      <trkpt lat="46.92316" lon="6.97587">
        <ele>502.2</ele>
        <time>2022-09-30T10:22:27Z</time>
      </trkpt>
      <trkpt lat="46.92318" lon="6.97591">
        <ele>502.4</ele>
        <time>2022-09-30T10:22:28Z</time>
      </trkpt>
      <trkpt lat="46.92321" lon="6.97594">
        <ele>502.5</ele>
        <time>2022-09-30T10:22:29Z</time>
      </trkpt>
      <trkpt lat="46.92321" lon="6.97595">
        <ele>502.6</ele>
        <time>2022-09-30T10:22:30Z</time>
      </trkpt>
      <trkpt lat="46.92323" lon="6.97598">
        <ele>502.7</ele>
        <time>2022-09-30T10:22:31Z</time>
      </trkpt>
      <trkpt lat="46.92325" lon="6.97603">
        <ele>502.8</ele>
        <time>2022-09-30T10:22:32Z</time>
      </trkpt>
      <trkpt lat="46.92325" lon="6.97604">
        <ele>502.9</ele>
        <time>2022-09-30T10:22:33Z</time>
      </trkpt>
      <trkpt lat="46.92326" lon="6.97608">
        <ele>503</ele>
        <time>2022-09-30T10:22:34Z</time>
      </trkpt>
      <trkpt lat="46.92327" lon="6.9761">
        <ele>503.1</ele>
        <time>2022-09-30T10:22:35Z</time>
      </trkpt>
      <trkpt lat="46.92328" lon="6.97613">
        <ele>503.2</ele>
        <time>2022-09-30T10:22:36Z</time>
      </trkpt>
      <trkpt lat="46.92329" lon="6.97617">
        <ele>503.3</ele>
        <time>2022-09-30T10:22:37Z</time>
      </trkpt>
      <trkpt lat="46.92329" lon="6.97619">
        <ele>503.3</ele>
        <time>2022-09-30T10:22:38Z</time>
      </trkpt>
      <trkpt lat="46.9233" lon="6.97621">
        <ele>503.4</ele>
        <time>2022-09-30T10:22:39Z</time>
      </trkpt>
      <trkpt lat="46.92331" lon="6.97624">
        <ele>503.4</ele>
        <time>2022-09-30T10:22:40Z</time>
      </trkpt>
      <trkpt lat="46.92331" lon="6.97626">
        <ele>503.5</ele>
        <time>2022-09-30T10:22:41Z</time>
      </trkpt>
      <trkpt lat="46.92332" lon="6.97629">
        <ele>503.6</ele>
        <time>2022-09-30T10:22:42Z</time>
      </trkpt>
      <trkpt lat="46.92334" lon="6.97634">
        <ele>503.7</ele>
        <time>2022-09-30T10:22:43Z</time>
      </trkpt>
      <trkpt lat="46.92334" lon="6.97635">
        <ele>503.7</ele>
        <time>2022-09-30T10:22:44Z</time>
      </trkpt>
      <trkpt lat="46.92335" lon="6.97637">
        <ele>503.8</ele>
        <time>2022-09-30T10:22:45Z</time>
      </trkpt>
      <trkpt lat="46.92335" lon="6.97639">
        <ele>503.8</ele>
        <time>2022-09-30T10:22:46Z</time>
      </trkpt>
      <trkpt lat="46.92336" lon="6.97644">
        <ele>503.9</ele>
        <time>2022-09-30T10:22:47Z</time>
      </trkpt>
      <trkpt lat="46.92337" lon="6.97645">
        <ele>503.9</ele>
        <time>2022-09-30T10:22:48Z</time>
      </trkpt>
      <trkpt lat="46.92338" lon="6.9765">
        <ele>504</ele>
        <time>2022-09-30T10:22:49Z</time>
      </trkpt>
      <trkpt lat="46.92339" lon="6.97651">
        <ele>504</ele>
        <time>2022-09-30T10:22:50Z</time>
      </trkpt>
      <trkpt lat="46.9234" lon="6.97653">
        <ele>504.1</ele>
        <time>2022-09-30T10:22:51Z</time>
      </trkpt>
      <trkpt lat="46.92341" lon="6.97654">
        <ele>504.1</ele>
        <time>2022-09-30T10:22:52Z</time>
      </trkpt>
      <trkpt lat="46.92341" lon="6.97659">
        <ele>504.2</ele>
        <time>2022-09-30T10:22:53Z</time>
      </trkpt>
      <trkpt lat="46.92342" lon="6.97663">
        <ele>504.3</ele>
        <time>2022-09-30T10:22:54Z</time>
      </trkpt>
      <trkpt lat="46.92342" lon="6.97665">
        <ele>504.3</ele>
        <time>2022-09-30T10:22:55Z</time>
      </trkpt>
      <trkpt lat="46.92344" lon="6.97669">
        <ele>504.4</ele>
        <time>2022-09-30T10:22:56Z</time>
      </trkpt>
      <trkpt lat="46.92344" lon="6.9767">
        <ele>504.5</ele>
        <time>2022-09-30T10:22:57Z</time>
      </trkpt>
      <trkpt lat="46.92345" lon="6.97674">
        <ele>504.5</ele>
        <time>2022-09-30T10:22:58Z</time>
      </trkpt>
      <trkpt lat="46.92345" lon="6.97675">
        <ele>504.6</ele>
        <time>2022-09-30T10:22:59Z</time>
      </trkpt>
      <trkpt lat="46.92346" lon="6.97677">
        <ele>504.6</ele>
        <time>2022-09-30T10:23:00Z</time>
      </trkpt>
      <trkpt lat="46.92347" lon="6.9768">
        <ele>504.6</ele>
        <time>2022-09-30T10:23:01Z</time>
      </trkpt>
      <trkpt lat="46.92348" lon="6.97684">
        <ele>504.7</ele>
        <time>2022-09-30T10:23:02Z</time>
      </trkpt>
      <trkpt lat="46.92348" lon="6.97685">
        <ele>504.8</ele>
        <time>2022-09-30T10:23:03Z</time>
      </trkpt>
      <trkpt lat="46.92349" lon="6.97689">
        <ele>504.8</ele>
        <time>2022-09-30T10:23:04Z</time>
      </trkpt>
      <trkpt lat="46.92349" lon="6.97691">
        <ele>504.8</ele>
        <time>2022-09-30T10:23:05Z</time>
      </trkpt>
      <trkpt lat="46.92351" lon="6.97695">
        <ele>504.9</ele>
        <time>2022-09-30T10:23:06Z</time>
      </trkpt>
      <trkpt lat="46.92351" lon="6.97696">
        <ele>504.9</ele>
        <time>2022-09-30T10:23:07Z</time>
      </trkpt>
      <trkpt lat="46.92353" lon="6.97701">
        <ele>504.9</ele>
        <time>2022-09-30T10:23:08Z</time>
      </trkpt>
      <trkpt lat="46.92354" lon="6.97702">
        <ele>504.9</ele>
        <time>2022-09-30T10:23:09Z</time>
      </trkpt>
      <trkpt lat="46.92356" lon="6.97707">
        <ele>504.9</ele>
        <time>2022-09-30T10:23:10Z</time>
      </trkpt>
      <trkpt lat="46.92357" lon="6.97709">
        <ele>504.9</ele>
        <time>2022-09-30T10:23:11Z</time>
      </trkpt>
      <trkpt lat="46.92359" lon="6.97713">
        <ele>504.9</ele>
        <time>2022-09-30T10:23:12Z</time>
      </trkpt>
      <trkpt lat="46.9236" lon="6.97714">
        <ele>504.9</ele>
        <time>2022-09-30T10:23:13Z</time>
      </trkpt>
      <trkpt lat="46.92363" lon="6.97718">
        <ele>504.9</ele>
        <time>2022-09-30T10:23:14Z</time>
      </trkpt>
      <trkpt lat="46.92364" lon="6.9772">
        <ele>504.9</ele>
        <time>2022-09-30T10:23:15Z</time>
      </trkpt>
      <trkpt lat="46.92367" lon="6.97723">
        <ele>504.8</ele>
        <time>2022-09-30T10:23:16Z</time>
      </trkpt>
      <trkpt lat="46.92369" lon="6.97727">
        <ele>504.8</ele>
        <time>2022-09-30T10:23:17Z</time>
      </trkpt>
      <trkpt lat="46.92372" lon="6.97731">
        <ele>504.8</ele>
        <time>2022-09-30T10:23:18Z</time>
      </trkpt>
      <trkpt lat="46.92373" lon="6.97733">
        <ele>504.8</ele>
        <time>2022-09-30T10:23:19Z</time>
      </trkpt>
      <trkpt lat="46.92375" lon="6.97737">
        <ele>504.7</ele>
        <time>2022-09-30T10:23:20Z</time>
      </trkpt>
      <trkpt lat="46.92378" lon="6.97741">
        <ele>504.7</ele>
        <time>2022-09-30T10:23:21Z</time>
      </trkpt>
      <trkpt lat="46.9238" lon="6.97746">
        <ele>504.6</ele>
        <time>2022-09-30T10:23:22Z</time>
      </trkpt>
      <trkpt lat="46.92381" lon="6.9775">
        <ele>504.6</ele>
        <time>2022-09-30T10:23:23Z</time>
      </trkpt>
      <trkpt lat="46.92384" lon="6.97756">
        <ele>504.6</ele>
        <time>2022-09-30T10:23:24Z</time>
      </trkpt>
      <trkpt lat="46.92386" lon="6.97761">
        <ele>504.5</ele>
        <time>2022-09-30T10:23:25Z</time>
      </trkpt>
      <trkpt lat="46.92389" lon="6.97767">
        <ele>504.5</ele>
        <time>2022-09-30T10:23:26Z</time>
      </trkpt>
      <trkpt lat="46.92391" lon="6.97771">
        <ele>504.4</ele>
        <time>2022-09-30T10:23:27Z</time>
      </trkpt>
      <trkpt lat="46.92394" lon="6.97775">
        <ele>504.4</ele>
        <time>2022-09-30T10:23:28Z</time>
      </trkpt>
      <trkpt lat="46.92396" lon="6.9778">
        <ele>504.3</ele>
        <time>2022-09-30T10:23:29Z</time>
      </trkpt>
      <trkpt lat="46.92399" lon="6.97784">
        <ele>504.3</ele>
        <time>2022-09-30T10:23:30Z</time>
      </trkpt>
      <trkpt lat="46.924" lon="6.97786">
        <ele>504.2</ele>
        <time>2022-09-30T10:23:31Z</time>
      </trkpt>
      <trkpt lat="46.92401" lon="6.97788">
        <ele>504.2</ele>
        <time>2022-09-30T10:23:32Z</time>
      </trkpt>
      <trkpt lat="46.92404" lon="6.9779">
        <ele>504.2</ele>
        <time>2022-09-30T10:23:33Z</time>
      </trkpt>
      <trkpt lat="46.92405" lon="6.97791">
        <ele>504.1</ele>
        <time>2022-09-30T10:23:34Z</time>
      </trkpt>
      <trkpt lat="46.92407" lon="6.97795">
        <ele>503.8</ele>
        <time>2022-09-30T10:23:35Z</time>
      </trkpt>
      <trkpt lat="46.92408" lon="6.97796">
        <ele>503.7</ele>
        <time>2022-09-30T10:23:36Z</time>
      </trkpt>
      <trkpt lat="46.92411" lon="6.97797">
        <ele>503.5</ele>
        <time>2022-09-30T10:23:37Z</time>
      </trkpt>
      <trkpt lat="46.92415" lon="6.97798">
        <ele>503.2</ele>
        <time>2022-09-30T10:23:38Z</time>
      </trkpt>
      <trkpt lat="46.9242" lon="6.97798">
        <ele>502.8</ele>
        <time>2022-09-30T10:23:39Z</time>
      </trkpt>
      <trkpt lat="46.92425" lon="6.97799">
        <ele>502.5</ele>
        <time>2022-09-30T10:23:40Z</time>
      </trkpt>
      <trkpt lat="46.92431" lon="6.97799">
        <ele>502.1</ele>
        <time>2022-09-30T10:23:41Z</time>
      </trkpt>
      <trkpt lat="46.92437" lon="6.97801">
        <ele>501.7</ele>
        <time>2022-09-30T10:23:42Z</time>
      </trkpt>
      <trkpt lat="46.92443" lon="6.97803">
        <ele>501.3</ele>
        <time>2022-09-30T10:23:43Z</time>
      </trkpt>
      <trkpt lat="46.92448" lon="6.97807">
        <ele>500.9</ele>
        <time>2022-09-30T10:23:44Z</time>
      </trkpt>
      <trkpt lat="46.92453" lon="6.97809">
        <ele>500.6</ele>
        <time>2022-09-30T10:23:45Z</time>
      </trkpt>
      <trkpt lat="46.9246" lon="6.97812">
        <ele>500.2</ele>
        <time>2022-09-30T10:23:46Z</time>
      </trkpt>
      <trkpt lat="46.92467" lon="6.97816">
        <ele>499.9</ele>
        <time>2022-09-30T10:23:47Z</time>
      </trkpt>
      <trkpt lat="46.92473" lon="6.97819">
        <ele>499.6</ele>
        <time>2022-09-30T10:23:48Z</time>
      </trkpt>
      <trkpt lat="46.92479" lon="6.97824">
        <ele>499.3</ele>
        <time>2022-09-30T10:23:49Z</time>
      </trkpt>
      <trkpt lat="46.92487" lon="6.97827">
        <ele>499.1</ele>
        <time>2022-09-30T10:23:50Z</time>
      </trkpt>
      <trkpt lat="46.92493" lon="6.9783">
        <ele>498.9</ele>
        <time>2022-09-30T10:23:51Z</time>
      </trkpt>
      <trkpt lat="46.92499" lon="6.97834">
        <ele>498.7</ele>
        <time>2022-09-30T10:23:52Z</time>
      </trkpt>
      <trkpt lat="46.92505" lon="6.97837">
        <ele>498.6</ele>
        <time>2022-09-30T10:23:53Z</time>
      </trkpt>
      <trkpt lat="46.9251" lon="6.97841">
        <ele>498.5</ele>
        <time>2022-09-30T10:23:54Z</time>
      </trkpt>
      <trkpt lat="46.92516" lon="6.97846">
        <ele>498.4</ele>
        <time>2022-09-30T10:23:55Z</time>
      </trkpt>
      <trkpt lat="46.92521" lon="6.97853">
        <ele>498.3</ele>
        <time>2022-09-30T10:23:56Z</time>
      </trkpt>
      <trkpt lat="46.92524" lon="6.97859">
        <ele>498.2</ele>
        <time>2022-09-30T10:23:57Z</time>
      </trkpt>
      <trkpt lat="46.92528" lon="6.97864">
        <ele>498.1</ele>
        <time>2022-09-30T10:23:58Z</time>
      </trkpt>
      <trkpt lat="46.92532" lon="6.97869">
        <ele>498.1</ele>
        <time>2022-09-30T10:23:59Z</time>
      </trkpt>
      <trkpt lat="46.92537" lon="6.97875">
        <ele>498.1</ele>
        <time>2022-09-30T10:24:00Z</time>
      </trkpt>
      <trkpt lat="46.9254" lon="6.97881">
        <ele>498.1</ele>
        <time>2022-09-30T10:24:01Z</time>
      </trkpt>
      <trkpt lat="46.92544" lon="6.97888">
        <ele>498.1</ele>
        <time>2022-09-30T10:24:02Z</time>
      </trkpt>
      <trkpt lat="46.92547" lon="6.97894">
        <ele>498</ele>
        <time>2022-09-30T10:24:03Z</time>
      </trkpt>
      <trkpt lat="46.9255" lon="6.979">
        <ele>498</ele>
        <time>2022-09-30T10:24:04Z</time>
      </trkpt>
      <trkpt lat="46.92553" lon="6.97906">
        <ele>498</ele>
        <time>2022-09-30T10:24:05Z</time>
      </trkpt>
      <trkpt lat="46.92556" lon="6.97914">
        <ele>498</ele>
        <time>2022-09-30T10:24:06Z</time>
      </trkpt>
      <trkpt lat="46.9256" lon="6.9792">
        <ele>497.9</ele>
        <time>2022-09-30T10:24:07Z</time>
      </trkpt>
      <trkpt lat="46.92563" lon="6.97926">
        <ele>497.9</ele>
        <time>2022-09-30T10:24:08Z</time>
      </trkpt>
      <trkpt lat="46.92566" lon="6.97932">
        <ele>497.9</ele>
        <time>2022-09-30T10:24:09Z</time>
      </trkpt>
      <trkpt lat="46.9257" lon="6.97937">
        <ele>497.8</ele>
        <time>2022-09-30T10:24:10Z</time>
      </trkpt>
      <trkpt lat="46.92573" lon="6.97943">
        <ele>497.8</ele>
        <time>2022-09-30T10:24:11Z</time>
      </trkpt>
      <trkpt lat="46.92576" lon="6.97949">
        <ele>497.7</ele>
        <time>2022-09-30T10:24:12Z</time>
      </trkpt>
      <trkpt lat="46.9258" lon="6.97954">
        <ele>497.7</ele>
        <time>2022-09-30T10:24:13Z</time>
      </trkpt>
      <trkpt lat="46.92583" lon="6.9796">
        <ele>497.6</ele>
        <time>2022-09-30T10:24:14Z</time>
      </trkpt>
      <trkpt lat="46.92586" lon="6.97966">
        <ele>497.6</ele>
        <time>2022-09-30T10:24:15Z</time>
      </trkpt>
      <trkpt lat="46.92589" lon="6.97972">
        <ele>497.5</ele>
        <time>2022-09-30T10:24:16Z</time>
      </trkpt>
      <trkpt lat="46.92593" lon="6.97979">
        <ele>497.4</ele>
        <time>2022-09-30T10:24:17Z</time>
      </trkpt>
      <trkpt lat="46.92597" lon="6.97984">
        <ele>497.4</ele>
        <time>2022-09-30T10:24:18Z</time>
      </trkpt>
      <trkpt lat="46.92599" lon="6.97991">
        <ele>497.3</ele>
        <time>2022-09-30T10:24:19Z</time>
      </trkpt>
      <trkpt lat="46.92603" lon="6.97996">
        <ele>497.2</ele>
        <time>2022-09-30T10:24:20Z</time>
      </trkpt>
      <trkpt lat="46.92606" lon="6.98001">
        <ele>497.2</ele>
        <time>2022-09-30T10:24:21Z</time>
      </trkpt>
      <trkpt lat="46.92609" lon="6.98006">
        <ele>497.1</ele>
        <time>2022-09-30T10:24:22Z</time>
      </trkpt>
      <trkpt lat="46.92611" lon="6.98012">
        <ele>497</ele>
        <time>2022-09-30T10:24:23Z</time>
      </trkpt>
      <trkpt lat="46.92616" lon="6.98019">
        <ele>496.9</ele>
        <time>2022-09-30T10:24:24Z</time>
      </trkpt>
      <trkpt lat="46.9262" lon="6.98026">
        <ele>496.8</ele>
        <time>2022-09-30T10:24:25Z</time>
      </trkpt>
      <trkpt lat="46.92623" lon="6.98031">
        <ele>496.7</ele>
        <time>2022-09-30T10:24:27Z</time>
      </trkpt>
      <trkpt lat="46.92626" lon="6.98036">
        <ele>496.6</ele>
        <time>2022-09-30T10:24:28Z</time>
      </trkpt>
      <trkpt lat="46.92629" lon="6.98043">
        <ele>496.5</ele>
        <time>2022-09-30T10:24:29Z</time>
      </trkpt>
      <trkpt lat="46.92631" lon="6.98049">
        <ele>496.3</ele>
        <time>2022-09-30T10:24:30Z</time>
      </trkpt>
      <trkpt lat="46.92634" lon="6.98056">
        <ele>496.2</ele>
        <time>2022-09-30T10:24:31Z</time>
      </trkpt>
      <trkpt lat="46.92636" lon="6.98063">
        <ele>496</ele>
        <time>2022-09-30T10:24:32Z</time>
      </trkpt>
      <trkpt lat="46.92639" lon="6.9807">
        <ele>495.8</ele>
        <time>2022-09-30T10:24:33Z</time>
      </trkpt>
      <trkpt lat="46.92646" lon="6.98084">
        <ele>495.4</ele>
        <time>2022-09-30T10:24:34Z</time>
      </trkpt>
      <trkpt lat="46.92649" lon="6.98091">
        <ele>495.2</ele>
        <time>2022-09-30T10:24:35Z</time>
      </trkpt>
      <trkpt lat="46.92651" lon="6.98098">
        <ele>495</ele>
        <time>2022-09-30T10:24:36Z</time>
      </trkpt>
      <trkpt lat="46.92655" lon="6.98105">
        <ele>494.8</ele>
        <time>2022-09-30T10:24:37Z</time>
      </trkpt>
      <trkpt lat="46.92659" lon="6.98111">
        <ele>494.5</ele>
        <time>2022-09-30T10:24:38Z</time>
      </trkpt>
      <trkpt lat="46.92661" lon="6.98118">
        <ele>494.3</ele>
        <time>2022-09-30T10:24:39Z</time>
      </trkpt>
      <trkpt lat="46.92666" lon="6.98124">
        <ele>494.1</ele>
        <time>2022-09-30T10:24:41Z</time>
      </trkpt>
      <trkpt lat="46.92672" lon="6.98138">
        <ele>493.6</ele>
        <time>2022-09-30T10:24:42Z</time>
      </trkpt>
      <trkpt lat="46.92676" lon="6.98145">
        <ele>493.4</ele>
        <time>2022-09-30T10:24:43Z</time>
      </trkpt>
      <trkpt lat="46.92681" lon="6.98152">
        <ele>493.2</ele>
        <time>2022-09-30T10:24:45Z</time>
      </trkpt>
      <trkpt lat="46.92685" lon="6.98156">
        <ele>493</ele>
        <time>2022-09-30T10:24:46Z</time>
      </trkpt>
      <trkpt lat="46.92688" lon="6.98161">
        <ele>493.1</ele>
        <time>2022-09-30T10:24:47Z</time>
      </trkpt>
      <trkpt lat="46.92688" lon="6.98167">
        <ele>493.3</ele>
        <time>2022-09-30T10:24:48Z</time>
      </trkpt>
      <trkpt lat="46.92691" lon="6.98172">
        <ele>493.4</ele>
        <time>2022-09-30T10:24:49Z</time>
      </trkpt>
      <trkpt lat="46.92693" lon="6.98177">
        <ele>493.5</ele>
        <time>2022-09-30T10:24:50Z</time>
      </trkpt>
      <trkpt lat="46.92693" lon="6.98183">
        <ele>493.6</ele>
        <time>2022-09-30T10:24:51Z</time>
      </trkpt>
      <trkpt lat="46.92693" lon="6.98189">
        <ele>493.7</ele>
        <time>2022-09-30T10:24:52Z</time>
      </trkpt>
      <trkpt lat="46.92696" lon="6.98193">
        <ele>493.8</ele>
        <time>2022-09-30T10:24:53Z</time>
      </trkpt>
      <trkpt lat="46.92697" lon="6.98199">
        <ele>493.9</ele>
        <time>2022-09-30T10:24:54Z</time>
      </trkpt>
      <trkpt lat="46.92698" lon="6.98207">
        <ele>494.1</ele>
        <time>2022-09-30T10:24:55Z</time>
      </trkpt>
      <trkpt lat="46.927" lon="6.98212">
        <ele>494.2</ele>
        <time>2022-09-30T10:24:56Z</time>
      </trkpt>
      <trkpt lat="46.92701" lon="6.98217">
        <ele>494.4</ele>
        <time>2022-09-30T10:24:57Z</time>
      </trkpt>
      <trkpt lat="46.92702" lon="6.98222">
        <ele>494.5</ele>
        <time>2022-09-30T10:24:58Z</time>
      </trkpt>
      <trkpt lat="46.92702" lon="6.98228">
        <ele>494.6</ele>
        <time>2022-09-30T10:24:59Z</time>
      </trkpt>
      <trkpt lat="46.92704" lon="6.98233">
        <ele>494.8</ele>
        <time>2022-09-30T10:25:00Z</time>
      </trkpt>
      <trkpt lat="46.92706" lon="6.98238">
        <ele>494.9</ele>
        <time>2022-09-30T10:25:01Z</time>
      </trkpt>
      <trkpt lat="46.92707" lon="6.98239">
        <ele>494.9</ele>
        <time>2022-09-30T10:25:02Z</time>
      </trkpt>
      <trkpt lat="46.92708" lon="6.98243">
        <ele>494.9</ele>
        <time>2022-09-30T10:25:03Z</time>
      </trkpt>
      <trkpt lat="46.92708" lon="6.98249">
        <ele>495</ele>
        <time>2022-09-30T10:25:04Z</time>
      </trkpt>
      <trkpt lat="46.92708" lon="6.98253">
        <ele>495</ele>
        <time>2022-09-30T10:25:05Z</time>
      </trkpt>
      <trkpt lat="46.9271" lon="6.98257">
        <ele>495.1</ele>
        <time>2022-09-30T10:25:06Z</time>
      </trkpt>
      <trkpt lat="46.92711" lon="6.98263">
        <ele>495.1</ele>
        <time>2022-09-30T10:25:07Z</time>
      </trkpt>
      <trkpt lat="46.92712" lon="6.98266">
        <ele>495.2</ele>
        <time>2022-09-30T10:25:08Z</time>
      </trkpt>
      <trkpt lat="46.92713" lon="6.98271">
        <ele>495.2</ele>
        <time>2022-09-30T10:25:09Z</time>
      </trkpt>
      <trkpt lat="46.92715" lon="6.98275">
        <ele>495.3</ele>
        <time>2022-09-30T10:25:10Z</time>
      </trkpt>
      <trkpt lat="46.92716" lon="6.9828">
        <ele>495.3</ele>
        <time>2022-09-30T10:25:11Z</time>
      </trkpt>
      <trkpt lat="46.92718" lon="6.98284">
        <ele>495.3</ele>
        <time>2022-09-30T10:25:12Z</time>
      </trkpt>
      <trkpt lat="46.92719" lon="6.98289">
        <ele>495.4</ele>
        <time>2022-09-30T10:25:13Z</time>
      </trkpt>
      <trkpt lat="46.9272" lon="6.98294">
        <ele>495.4</ele>
        <time>2022-09-30T10:25:14Z</time>
      </trkpt>
      <trkpt lat="46.92722" lon="6.98298">
        <ele>495.4</ele>
        <time>2022-09-30T10:25:15Z</time>
      </trkpt>
      <trkpt lat="46.92724" lon="6.98303">
        <ele>495.4</ele>
        <time>2022-09-30T10:25:16Z</time>
      </trkpt>
      <trkpt lat="46.92725" lon="6.98307">
        <ele>495.4</ele>
        <time>2022-09-30T10:25:17Z</time>
      </trkpt>
      <trkpt lat="46.92727" lon="6.98311">
        <ele>495.4</ele>
        <time>2022-09-30T10:25:18Z</time>
      </trkpt>
      <trkpt lat="46.92729" lon="6.98315">
        <ele>495.4</ele>
        <time>2022-09-30T10:25:19Z</time>
      </trkpt>
      <trkpt lat="46.92731" lon="6.9832">
        <ele>495.4</ele>
        <time>2022-09-30T10:25:20Z</time>
      </trkpt>
      <trkpt lat="46.92732" lon="6.98324">
        <ele>495.3</ele>
        <time>2022-09-30T10:25:21Z</time>
      </trkpt>
      <trkpt lat="46.92734" lon="6.9833">
        <ele>495.3</ele>
        <time>2022-09-30T10:25:22Z</time>
      </trkpt>
      <trkpt lat="46.92735" lon="6.98331">
        <ele>495.3</ele>
        <time>2022-09-30T10:25:23Z</time>
      </trkpt>
      <trkpt lat="46.92737" lon="6.98334">
        <ele>495.2</ele>
        <time>2022-09-30T10:25:24Z</time>
      </trkpt>
      <trkpt lat="46.9274" lon="6.98338">
        <ele>495.1</ele>
        <time>2022-09-30T10:25:25Z</time>
      </trkpt>
      <trkpt lat="46.92743" lon="6.98343">
        <ele>495</ele>
        <time>2022-09-30T10:25:26Z</time>
      </trkpt>
      <trkpt lat="46.92745" lon="6.98349">
        <ele>495</ele>
        <time>2022-09-30T10:25:27Z</time>
      </trkpt>
      <trkpt lat="46.92748" lon="6.98353">
        <ele>494.9</ele>
        <time>2022-09-30T10:25:28Z</time>
      </trkpt>
      <trkpt lat="46.92751" lon="6.98358">
        <ele>494.8</ele>
        <time>2022-09-30T10:25:29Z</time>
      </trkpt>
      <trkpt lat="46.92753" lon="6.98364">
        <ele>494.7</ele>
        <time>2022-09-30T10:25:30Z</time>
      </trkpt>
      <trkpt lat="46.92758" lon="6.98368">
        <ele>494.6</ele>
        <time>2022-09-30T10:25:31Z</time>
      </trkpt>
      <trkpt lat="46.9276" lon="6.98372">
        <ele>494.6</ele>
        <time>2022-09-30T10:25:32Z</time>
      </trkpt>
      <trkpt lat="46.92766" lon="6.98375">
        <ele>494.5</ele>
        <time>2022-09-30T10:25:33Z</time>
      </trkpt>
      <trkpt lat="46.9277" lon="6.98379">
        <ele>494.4</ele>
        <time>2022-09-30T10:25:34Z</time>
      </trkpt>
      <trkpt lat="46.92773" lon="6.98383">
        <ele>494.4</ele>
        <time>2022-09-30T10:25:35Z</time>
      </trkpt>
      <trkpt lat="46.92775" lon="6.98387">
        <ele>494.3</ele>
        <time>2022-09-30T10:25:36Z</time>
      </trkpt>
      <trkpt lat="46.92778" lon="6.98392">
        <ele>494.3</ele>
        <time>2022-09-30T10:25:37Z</time>
      </trkpt>
      <trkpt lat="46.92781" lon="6.98396">
        <ele>494.2</ele>
        <time>2022-09-30T10:25:38Z</time>
      </trkpt>
      <trkpt lat="46.92785" lon="6.98402">
        <ele>494.2</ele>
        <time>2022-09-30T10:25:39Z</time>
      </trkpt>
      <trkpt lat="46.92789" lon="6.98407">
        <ele>494.2</ele>
        <time>2022-09-30T10:25:40Z</time>
      </trkpt>
      <trkpt lat="46.92795" lon="6.98412">
        <ele>494.1</ele>
        <time>2022-09-30T10:25:41Z</time>
      </trkpt>
      <trkpt lat="46.92798" lon="6.98417">
        <ele>494.1</ele>
        <time>2022-09-30T10:25:42Z</time>
      </trkpt>
      <trkpt lat="46.92801" lon="6.98422">
        <ele>494</ele>
        <time>2022-09-30T10:25:43Z</time>
      </trkpt>
      <trkpt lat="46.92805" lon="6.98428">
        <ele>494</ele>
        <time>2022-09-30T10:25:44Z</time>
      </trkpt>
      <trkpt lat="46.92808" lon="6.98433">
        <ele>494</ele>
        <time>2022-09-30T10:25:45Z</time>
      </trkpt>
      <trkpt lat="46.9281" lon="6.98442">
        <ele>493.9</ele>
        <time>2022-09-30T10:25:46Z</time>
      </trkpt>
      <trkpt lat="46.92813" lon="6.98447">
        <ele>493.9</ele>
        <time>2022-09-30T10:25:47Z</time>
      </trkpt>
      <trkpt lat="46.92815" lon="6.98454">
        <ele>493.9</ele>
        <time>2022-09-30T10:25:48Z</time>
      </trkpt>
      <trkpt lat="46.92818" lon="6.98461">
        <ele>493.8</ele>
        <time>2022-09-30T10:25:49Z</time>
      </trkpt>
      <trkpt lat="46.9282" lon="6.98468">
        <ele>493.8</ele>
        <time>2022-09-30T10:25:50Z</time>
      </trkpt>
      <trkpt lat="46.92821" lon="6.98476">
        <ele>493.7</ele>
        <time>2022-09-30T10:25:51Z</time>
      </trkpt>
      <trkpt lat="46.92823" lon="6.98484">
        <ele>493.7</ele>
        <time>2022-09-30T10:25:52Z</time>
      </trkpt>
      <trkpt lat="46.92824" lon="6.98491">
        <ele>493.7</ele>
        <time>2022-09-30T10:25:53Z</time>
      </trkpt>
      <trkpt lat="46.92827" lon="6.98498">
        <ele>493.7</ele>
        <time>2022-09-30T10:25:54Z</time>
      </trkpt>
      <trkpt lat="46.92828" lon="6.98505">
        <ele>493.7</ele>
        <time>2022-09-30T10:25:55Z</time>
      </trkpt>
      <trkpt lat="46.92829" lon="6.98511">
        <ele>493.7</ele>
        <time>2022-09-30T10:25:56Z</time>
      </trkpt>
      <trkpt lat="46.92831" lon="6.98519">
        <ele>493.6</ele>
        <time>2022-09-30T10:25:57Z</time>
      </trkpt>
      <trkpt lat="46.92833" lon="6.98526">
        <ele>493.6</ele>
        <time>2022-09-30T10:25:58Z</time>
      </trkpt>
      <trkpt lat="46.92834" lon="6.98532">
        <ele>493.6</ele>
        <time>2022-09-30T10:25:59Z</time>
      </trkpt>
      <trkpt lat="46.92836" lon="6.98539">
        <ele>493.5</ele>
        <time>2022-09-30T10:26:00Z</time>
      </trkpt>
      <trkpt lat="46.92837" lon="6.98544">
        <ele>493.5</ele>
        <time>2022-09-30T10:26:01Z</time>
      </trkpt>
      <trkpt lat="46.92839" lon="6.98548">
        <ele>493.4</ele>
        <time>2022-09-30T10:26:02Z</time>
      </trkpt>
      <trkpt lat="46.92841" lon="6.98554">
        <ele>493.2</ele>
        <time>2022-09-30T10:26:03Z</time>
      </trkpt>
      <trkpt lat="46.92842" lon="6.98557">
        <ele>493.2</ele>
        <time>2022-09-30T10:26:04Z</time>
      </trkpt>
      <trkpt lat="46.92844" lon="6.98561">
        <ele>493</ele>
        <time>2022-09-30T10:26:05Z</time>
      </trkpt>
      <trkpt lat="46.92847" lon="6.98565">
        <ele>492.8</ele>
        <time>2022-09-30T10:26:06Z</time>
      </trkpt>
      <trkpt lat="46.9285" lon="6.98569">
        <ele>492.6</ele>
        <time>2022-09-30T10:26:07Z</time>
      </trkpt>
      <trkpt lat="46.92852" lon="6.98571">
        <ele>492.5</ele>
        <time>2022-09-30T10:26:08Z</time>
      </trkpt>
      <trkpt lat="46.92857" lon="6.98577">
        <ele>492.1</ele>
        <time>2022-09-30T10:26:09Z</time>
      </trkpt>
      <trkpt lat="46.92861" lon="6.98581">
        <ele>491.8</ele>
        <time>2022-09-30T10:26:10Z</time>
      </trkpt>
      <trkpt lat="46.92865" lon="6.98586">
        <ele>491.5</ele>
        <time>2022-09-30T10:26:11Z</time>
      </trkpt>
      <trkpt lat="46.92871" lon="6.98592">
        <ele>491</ele>
        <time>2022-09-30T10:26:12Z</time>
      </trkpt>
      <trkpt lat="46.92876" lon="6.98598">
        <ele>490.5</ele>
        <time>2022-09-30T10:26:13Z</time>
      </trkpt>
      <trkpt lat="46.9288" lon="6.98602">
        <ele>490</ele>
        <time>2022-09-30T10:26:14Z</time>
      </trkpt>
      <trkpt lat="46.92885" lon="6.98607">
        <ele>489.6</ele>
        <time>2022-09-30T10:26:15Z</time>
      </trkpt>
      <trkpt lat="46.9289" lon="6.98612">
        <ele>489.1</ele>
        <time>2022-09-30T10:26:16Z</time>
      </trkpt>
      <trkpt lat="46.92894" lon="6.98616">
        <ele>488.7</ele>
        <time>2022-09-30T10:26:17Z</time>
      </trkpt>
      <trkpt lat="46.92898" lon="6.9862">
        <ele>488.2</ele>
        <time>2022-09-30T10:26:18Z</time>
      </trkpt>
      <trkpt lat="46.92903" lon="6.98624">
        <ele>487.8</ele>
        <time>2022-09-30T10:26:19Z</time>
      </trkpt>
      <trkpt lat="46.92907" lon="6.9863">
        <ele>487.3</ele>
        <time>2022-09-30T10:26:20Z</time>
      </trkpt>
      <trkpt lat="46.92912" lon="6.98637">
        <ele>486.9</ele>
        <time>2022-09-30T10:26:21Z</time>
      </trkpt>
      <trkpt lat="46.92917" lon="6.98643">
        <ele>486.4</ele>
        <time>2022-09-30T10:26:22Z</time>
      </trkpt>
      <trkpt lat="46.92922" lon="6.9865">
        <ele>486</ele>
        <time>2022-09-30T10:26:23Z</time>
      </trkpt>
      <trkpt lat="46.92928" lon="6.98656">
        <ele>485.6</ele>
        <time>2022-09-30T10:26:24Z</time>
      </trkpt>
      <trkpt lat="46.92933" lon="6.98663">
        <ele>485.3</ele>
        <time>2022-09-30T10:26:25Z</time>
      </trkpt>
      <trkpt lat="46.92938" lon="6.9867">
        <ele>485</ele>
        <time>2022-09-30T10:26:26Z</time>
      </trkpt>
      <trkpt lat="46.92943" lon="6.98675">
        <ele>484.8</ele>
        <time>2022-09-30T10:26:27Z</time>
      </trkpt>
      <trkpt lat="46.92948" lon="6.98682">
        <ele>484.6</ele>
        <time>2022-09-30T10:26:28Z</time>
      </trkpt>
      <trkpt lat="46.92953" lon="6.98687">
        <ele>484.4</ele>
        <time>2022-09-30T10:26:29Z</time>
      </trkpt>
      <trkpt lat="46.92958" lon="6.98693">
        <ele>484.2</ele>
        <time>2022-09-30T10:26:30Z</time>
      </trkpt>
      <trkpt lat="46.92963" lon="6.98698">
        <ele>484.1</ele>
        <time>2022-09-30T10:26:31Z</time>
      </trkpt>
      <trkpt lat="46.92968" lon="6.98705">
        <ele>484</ele>
        <time>2022-09-30T10:26:32Z</time>
      </trkpt>
      <trkpt lat="46.92973" lon="6.98712">
        <ele>483.8</ele>
        <time>2022-09-30T10:26:33Z</time>
      </trkpt>
      <trkpt lat="46.92979" lon="6.98717">
        <ele>483.7</ele>
        <time>2022-09-30T10:26:35Z</time>
      </trkpt>
      <trkpt lat="46.92984" lon="6.98722">
        <ele>483.6</ele>
        <time>2022-09-30T10:26:36Z</time>
      </trkpt>
      <trkpt lat="46.9299" lon="6.98727">
        <ele>483.5</ele>
        <time>2022-09-30T10:26:37Z</time>
      </trkpt>
      <trkpt lat="46.92995" lon="6.98732">
        <ele>483.4</ele>
        <time>2022-09-30T10:26:38Z</time>
      </trkpt>
      <trkpt lat="46.93" lon="6.98738">
        <ele>483.3</ele>
        <time>2022-09-30T10:26:39Z</time>
      </trkpt>
      <trkpt lat="46.93006" lon="6.98744">
        <ele>483.2</ele>
        <time>2022-09-30T10:26:40Z</time>
      </trkpt>
      <trkpt lat="46.93011" lon="6.9875">
        <ele>483.1</ele>
        <time>2022-09-30T10:26:41Z</time>
      </trkpt>
      <trkpt lat="46.93015" lon="6.98755">
        <ele>483</ele>
        <time>2022-09-30T10:26:42Z</time>
      </trkpt>
      <trkpt lat="46.93021" lon="6.98761">
        <ele>482.9</ele>
        <time>2022-09-30T10:26:43Z</time>
      </trkpt>
      <trkpt lat="46.93026" lon="6.98766">
        <ele>482.8</ele>
        <time>2022-09-30T10:26:44Z</time>
      </trkpt>
      <trkpt lat="46.93031" lon="6.98772">
        <ele>482.6</ele>
        <time>2022-09-30T10:26:45Z</time>
      </trkpt>
      <trkpt lat="46.93036" lon="6.98777">
        <ele>482.5</ele>
        <time>2022-09-30T10:26:46Z</time>
      </trkpt>
      <trkpt lat="46.93042" lon="6.98783">
        <ele>482.4</ele>
        <time>2022-09-30T10:26:47Z</time>
      </trkpt>
      <trkpt lat="46.93047" lon="6.98788">
        <ele>482.3</ele>
        <time>2022-09-30T10:26:48Z</time>
      </trkpt>
      <trkpt lat="46.93052" lon="6.98794">
        <ele>482.3</ele>
        <time>2022-09-30T10:26:49Z</time>
      </trkpt>
      <trkpt lat="46.93058" lon="6.98799">
        <ele>482.2</ele>
        <time>2022-09-30T10:26:50Z</time>
      </trkpt>
      <trkpt lat="46.93062" lon="6.98805">
        <ele>482.1</ele>
        <time>2022-09-30T10:26:51Z</time>
      </trkpt>
      <trkpt lat="46.93067" lon="6.9881">
        <ele>482</ele>
        <time>2022-09-30T10:26:52Z</time>
      </trkpt>
      <trkpt lat="46.93073" lon="6.98816">
        <ele>481.9</ele>
        <time>2022-09-30T10:26:53Z</time>
      </trkpt>
      <trkpt lat="46.93078" lon="6.98822">
        <ele>481.8</ele>
        <time>2022-09-30T10:26:54Z</time>
      </trkpt>
      <trkpt lat="46.93083" lon="6.98828">
        <ele>481.7</ele>
        <time>2022-09-30T10:26:55Z</time>
      </trkpt>
      <trkpt lat="46.93089" lon="6.98833">
        <ele>481.7</ele>
        <time>2022-09-30T10:26:56Z</time>
      </trkpt>
      <trkpt lat="46.93094" lon="6.98838">
        <ele>481.6</ele>
        <time>2022-09-30T10:26:57Z</time>
      </trkpt>
      <trkpt lat="46.931" lon="6.98842">
        <ele>481.5</ele>
        <time>2022-09-30T10:26:58Z</time>
      </trkpt>
      <trkpt lat="46.93104" lon="6.98846">
        <ele>481.5</ele>
        <time>2022-09-30T10:26:59Z</time>
      </trkpt>
      <trkpt lat="46.93109" lon="6.9885">
        <ele>481.4</ele>
        <time>2022-09-30T10:27:00Z</time>
      </trkpt>
      <trkpt lat="46.93113" lon="6.98853">
        <ele>481.3</ele>
        <time>2022-09-30T10:27:01Z</time>
      </trkpt>
      <trkpt lat="46.93118" lon="6.98855">
        <ele>481.2</ele>
        <time>2022-09-30T10:27:02Z</time>
      </trkpt>
      <trkpt lat="46.9312" lon="6.98857">
        <ele>481.2</ele>
        <time>2022-09-30T10:27:03Z</time>
      </trkpt>
      <trkpt lat="46.93122" lon="6.98859">
        <ele>481.2</ele>
        <time>2022-09-30T10:27:04Z</time>
      </trkpt>
      <trkpt lat="46.93122" lon="6.9886">
        <ele>481.2</ele>
        <time>2022-09-30T10:27:05Z</time>
      </trkpt>
      <trkpt lat="46.93122" lon="6.98859">
        <ele>481.1</ele>
        <time>2022-09-30T10:27:06Z</time>
      </trkpt>
      <trkpt lat="46.93122" lon="6.9886">
        <ele>481.1</ele>
        <time>2022-09-30T10:27:07Z</time>
      </trkpt>
      <trkpt lat="46.93122" lon="6.98859">
        <ele>481.1</ele>
        <time>2022-09-30T10:27:08Z</time>
      </trkpt>
      <trkpt lat="46.93122" lon="6.9886">
        <ele>481.1</ele>
        <time>2022-09-30T10:27:09Z</time>
      </trkpt>
      <trkpt lat="46.93122" lon="6.9886">
        <ele>481.1</ele>
        <time>2022-09-30T10:27:10Z</time>
      </trkpt>
      <trkpt lat="46.93122" lon="6.9886">
        <ele>481.1</ele>
        <time>2022-09-30T10:27:11Z</time>
      </trkpt>
      <trkpt lat="46.93122" lon="6.9886">
        <ele>481.1</ele>
        <time>2022-09-30T10:27:12Z</time>
      </trkpt>
      <trkpt lat="46.93123" lon="6.9886">
        <ele>481.1</ele>
        <time>2022-09-30T10:27:13Z</time>
      </trkpt>
      <trkpt lat="46.93125" lon="6.98861">
        <ele>481.1</ele>
        <time>2022-09-30T10:27:14Z</time>
      </trkpt>
      <trkpt lat="46.93128" lon="6.98863">
        <ele>481</ele>
        <time>2022-09-30T10:27:38Z</time>
      </trkpt>
      <trkpt lat="46.9313" lon="6.98865">
        <ele>481</ele>
        <time>2022-09-30T10:27:39Z</time>
      </trkpt>
      <trkpt lat="46.93134" lon="6.98867">
        <ele>480.9</ele>
        <time>2022-09-30T10:27:40Z</time>
      </trkpt>
      <trkpt lat="46.93135" lon="6.98868">
        <ele>480.9</ele>
        <time>2022-09-30T10:27:41Z</time>
      </trkpt>
      <trkpt lat="46.93138" lon="6.98871">
        <ele>480.8</ele>
        <time>2022-09-30T10:27:42Z</time>
      </trkpt>
      <trkpt lat="46.93141" lon="6.98873">
        <ele>480.8</ele>
        <time>2022-09-30T10:27:43Z</time>
      </trkpt>
      <trkpt lat="46.93144" lon="6.98876">
        <ele>480.7</ele>
        <time>2022-09-30T10:27:44Z</time>
      </trkpt>
      <trkpt lat="46.93147" lon="6.98878">
        <ele>480.6</ele>
        <time>2022-09-30T10:27:45Z</time>
      </trkpt>
      <trkpt lat="46.93151" lon="6.98881">
        <ele>480.5</ele>
        <time>2022-09-30T10:27:46Z</time>
      </trkpt>
      <trkpt lat="46.93155" lon="6.98884">
        <ele>480.4</ele>
        <time>2022-09-30T10:27:47Z</time>
      </trkpt>
      <trkpt lat="46.93159" lon="6.98887">
        <ele>480.4</ele>
        <time>2022-09-30T10:27:48Z</time>
      </trkpt>
      <trkpt lat="46.93163" lon="6.9889">
        <ele>480.2</ele>
        <time>2022-09-30T10:27:49Z</time>
      </trkpt>
      <trkpt lat="46.93168" lon="6.98893">
        <ele>480.1</ele>
        <time>2022-09-30T10:27:50Z</time>
      </trkpt>
      <trkpt lat="46.93172" lon="6.98897">
        <ele>480</ele>
        <time>2022-09-30T10:27:51Z</time>
      </trkpt>
      <trkpt lat="46.93177" lon="6.989">
        <ele>479.9</ele>
        <time>2022-09-30T10:27:52Z</time>
      </trkpt>
      <trkpt lat="46.93181" lon="6.98904">
        <ele>479.7</ele>
        <time>2022-09-30T10:27:53Z</time>
      </trkpt>
      <trkpt lat="46.93186" lon="6.98908">
        <ele>479.5</ele>
        <time>2022-09-30T10:27:54Z</time>
      </trkpt>
      <trkpt lat="46.9319" lon="6.98912">
        <ele>479.4</ele>
        <time>2022-09-30T10:27:55Z</time>
      </trkpt>
      <trkpt lat="46.93195" lon="6.98916">
        <ele>479.2</ele>
        <time>2022-09-30T10:27:56Z</time>
      </trkpt>
      <trkpt lat="46.93199" lon="6.98921">
        <ele>479</ele>
        <time>2022-09-30T10:27:57Z</time>
      </trkpt>
      <trkpt lat="46.93203" lon="6.98926">
        <ele>478.9</ele>
        <time>2022-09-30T10:27:58Z</time>
      </trkpt>
      <trkpt lat="46.93206" lon="6.98932">
        <ele>478.7</ele>
        <time>2022-09-30T10:27:59Z</time>
      </trkpt>
      <trkpt lat="46.9321" lon="6.98936">
        <ele>478.6</ele>
        <time>2022-09-30T10:28:00Z</time>
      </trkpt>
      <trkpt lat="46.93213" lon="6.98943">
        <ele>478.5</ele>
        <time>2022-09-30T10:28:01Z</time>
      </trkpt>
      <trkpt lat="46.93215" lon="6.98948">
        <ele>478.4</ele>
        <time>2022-09-30T10:28:02Z</time>
      </trkpt>
      <trkpt lat="46.93218" lon="6.98954">
        <ele>478.3</ele>
        <time>2022-09-30T10:28:03Z</time>
      </trkpt>
      <trkpt lat="46.93222" lon="6.9896">
        <ele>478.2</ele>
        <time>2022-09-30T10:28:04Z</time>
      </trkpt>
      <trkpt lat="46.93225" lon="6.98964">
        <ele>478.2</ele>
        <time>2022-09-30T10:28:05Z</time>
      </trkpt>
      <trkpt lat="46.93226" lon="6.98969">
        <ele>478.2</ele>
        <time>2022-09-30T10:28:06Z</time>
      </trkpt>
      <trkpt lat="46.93228" lon="6.98974">
        <ele>478.1</ele>
        <time>2022-09-30T10:28:07Z</time>
      </trkpt>
      <trkpt lat="46.9323" lon="6.98978">
        <ele>478.1</ele>
        <time>2022-09-30T10:28:08Z</time>
      </trkpt>
      <trkpt lat="46.9323" lon="6.9898">
        <ele>478.1</ele>
        <time>2022-09-30T10:28:09Z</time>
      </trkpt>
      <trkpt lat="46.93233" lon="6.98981">
        <ele>478.1</ele>
        <time>2022-09-30T10:28:10Z</time>
      </trkpt>
      <trkpt lat="46.93234" lon="6.98982">
        <ele>478.1</ele>
        <time>2022-09-30T10:28:11Z</time>
      </trkpt>
      <trkpt lat="46.93235" lon="6.98987">
        <ele>478</ele>
        <time>2022-09-30T10:28:12Z</time>
      </trkpt>
      <trkpt lat="46.93235" lon="6.98991">
        <ele>478</ele>
        <time>2022-09-30T10:28:13Z</time>
      </trkpt>
      <trkpt lat="46.93236" lon="6.98995">
        <ele>478</ele>
        <time>2022-09-30T10:28:14Z</time>
      </trkpt>
      <trkpt lat="46.93237" lon="6.99">
        <ele>477.9</ele>
        <time>2022-09-30T10:28:15Z</time>
      </trkpt>
      <trkpt lat="46.9324" lon="6.99002">
        <ele>477.9</ele>
        <time>2022-09-30T10:28:16Z</time>
      </trkpt>
      <trkpt lat="46.93241" lon="6.99006">
        <ele>477.8</ele>
        <time>2022-09-30T10:28:17Z</time>
      </trkpt>
      <trkpt lat="46.93244" lon="6.9901">
        <ele>477.8</ele>
        <time>2022-09-30T10:28:18Z</time>
      </trkpt>
      <trkpt lat="46.93247" lon="6.99014">
        <ele>477.7</ele>
        <time>2022-09-30T10:28:19Z</time>
      </trkpt>
      <trkpt lat="46.93249" lon="6.99018">
        <ele>477.7</ele>
        <time>2022-09-30T10:28:20Z</time>
      </trkpt>
      <trkpt lat="46.93252" lon="6.99021">
        <ele>477.7</ele>
        <time>2022-09-30T10:28:21Z</time>
      </trkpt>
      <trkpt lat="46.93256" lon="6.99024">
        <ele>477.6</ele>
        <time>2022-09-30T10:28:22Z</time>
      </trkpt>
      <trkpt lat="46.93258" lon="6.99027">
        <ele>477.6</ele>
        <time>2022-09-30T10:28:23Z</time>
      </trkpt>
      <trkpt lat="46.93259" lon="6.99031">
        <ele>477.5</ele>
        <time>2022-09-30T10:28:24Z</time>
      </trkpt>
      <trkpt lat="46.93262" lon="6.99034">
        <ele>477.5</ele>
        <time>2022-09-30T10:28:25Z</time>
      </trkpt>
      <trkpt lat="46.93264" lon="6.99039">
        <ele>477.4</ele>
        <time>2022-09-30T10:28:26Z</time>
      </trkpt>
      <trkpt lat="46.93267" lon="6.99044">
        <ele>477.3</ele>
        <time>2022-09-30T10:28:27Z</time>
      </trkpt>
      <trkpt lat="46.93269" lon="6.99049">
        <ele>477.3</ele>
        <time>2022-09-30T10:28:28Z</time>
      </trkpt>
      <trkpt lat="46.93272" lon="6.99053">
        <ele>477.2</ele>
        <time>2022-09-30T10:28:29Z</time>
      </trkpt>
      <trkpt lat="46.93274" lon="6.99058">
        <ele>477.2</ele>
        <time>2022-09-30T10:28:30Z</time>
      </trkpt>
      <trkpt lat="46.93276" lon="6.99062">
        <ele>477.1</ele>
        <time>2022-09-30T10:28:31Z</time>
      </trkpt>
      <trkpt lat="46.93278" lon="6.99066">
        <ele>477.1</ele>
        <time>2022-09-30T10:28:32Z</time>
      </trkpt>
      <trkpt lat="46.9328" lon="6.9907">
        <ele>477</ele>
        <time>2022-09-30T10:28:33Z</time>
      </trkpt>
      <trkpt lat="46.93281" lon="6.99074">
        <ele>476.9</ele>
        <time>2022-09-30T10:28:34Z</time>
      </trkpt>
      <trkpt lat="46.93285" lon="6.99077">
        <ele>476.9</ele>
        <time>2022-09-30T10:28:35Z</time>
      </trkpt>
      <trkpt lat="46.93287" lon="6.99082">
        <ele>476.8</ele>
        <time>2022-09-30T10:28:36Z</time>
      </trkpt>
      <trkpt lat="46.93289" lon="6.99086">
        <ele>476.7</ele>
        <time>2022-09-30T10:28:37Z</time>
      </trkpt>
      <trkpt lat="46.9329" lon="6.99089">
        <ele>476.7</ele>
        <time>2022-09-30T10:28:39Z</time>
      </trkpt>
      <trkpt lat="46.93292" lon="6.99093">
        <ele>476.6</ele>
        <time>2022-09-30T10:28:40Z</time>
      </trkpt>
      <trkpt lat="46.93294" lon="6.99096">
        <ele>476.6</ele>
        <time>2022-09-30T10:28:41Z</time>
      </trkpt>
      <trkpt lat="46.93297" lon="6.991">
        <ele>476.5</ele>
        <time>2022-09-30T10:28:42Z</time>
      </trkpt>
      <trkpt lat="46.93299" lon="6.99105">
        <ele>476.4</ele>
        <time>2022-09-30T10:28:43Z</time>
      </trkpt>
      <trkpt lat="46.93301" lon="6.99108">
        <ele>476.3</ele>
        <time>2022-09-30T10:28:44Z</time>
      </trkpt>
      <trkpt lat="46.93303" lon="6.9911">
        <ele>476.2</ele>
        <time>2022-09-30T10:28:45Z</time>
      </trkpt>
      <trkpt lat="46.93305" lon="6.99115">
        <ele>476.1</ele>
        <time>2022-09-30T10:28:46Z</time>
      </trkpt>
      <trkpt lat="46.93307" lon="6.99118">
        <ele>476</ele>
        <time>2022-09-30T10:28:47Z</time>
      </trkpt>
      <trkpt lat="46.9331" lon="6.99127">
        <ele>475.8</ele>
        <time>2022-09-30T10:28:48Z</time>
      </trkpt>
      <trkpt lat="46.93312" lon="6.9913">
        <ele>475.7</ele>
        <time>2022-09-30T10:28:49Z</time>
      </trkpt>
      <trkpt lat="46.93314" lon="6.99133">
        <ele>475.6</ele>
        <time>2022-09-30T10:28:50Z</time>
      </trkpt>
      <trkpt lat="46.93316" lon="6.99136">
        <ele>475.5</ele>
        <time>2022-09-30T10:28:51Z</time>
      </trkpt>
      <trkpt lat="46.93318" lon="6.99139">
        <ele>475.5</ele>
        <time>2022-09-30T10:28:52Z</time>
      </trkpt>
      <trkpt lat="46.93319" lon="6.99143">
        <ele>475.4</ele>
        <time>2022-09-30T10:28:53Z</time>
      </trkpt>
      <trkpt lat="46.9332" lon="6.99146">
        <ele>475.3</ele>
        <time>2022-09-30T10:28:55Z</time>
      </trkpt>
      <trkpt lat="46.93324" lon="6.99153">
        <ele>475.1</ele>
        <time>2022-09-30T10:28:56Z</time>
      </trkpt>
      <trkpt lat="46.93326" lon="6.99158">
        <ele>475</ele>
        <time>2022-09-30T10:28:57Z</time>
      </trkpt>
      <trkpt lat="46.93328" lon="6.99161">
        <ele>474.9</ele>
        <time>2022-09-30T10:28:58Z</time>
      </trkpt>
      <trkpt lat="46.9333" lon="6.99166">
        <ele>474.8</ele>
        <time>2022-09-30T10:28:59Z</time>
      </trkpt>
      <trkpt lat="46.93332" lon="6.9917">
        <ele>474.7</ele>
        <time>2022-09-30T10:29:00Z</time>
      </trkpt>
      <trkpt lat="46.93335" lon="6.99174">
        <ele>474.6</ele>
        <time>2022-09-30T10:29:01Z</time>
      </trkpt>
      <trkpt lat="46.93336" lon="6.99178">
        <ele>474.5</ele>
        <time>2022-09-30T10:29:02Z</time>
      </trkpt>
      <trkpt lat="46.93338" lon="6.99182">
        <ele>474.5</ele>
        <time>2022-09-30T10:29:03Z</time>
      </trkpt>
      <trkpt lat="46.9334" lon="6.99186">
        <ele>474.4</ele>
        <time>2022-09-30T10:29:04Z</time>
      </trkpt>
      <trkpt lat="46.93342" lon="6.9919">
        <ele>474.3</ele>
        <time>2022-09-30T10:29:05Z</time>
      </trkpt>
      <trkpt lat="46.93345" lon="6.99194">
        <ele>474.2</ele>
        <time>2022-09-30T10:29:06Z</time>
      </trkpt>
      <trkpt lat="46.93347" lon="6.99197">
        <ele>474.2</ele>
        <time>2022-09-30T10:29:07Z</time>
      </trkpt>
      <trkpt lat="46.93348" lon="6.99202">
        <ele>474.1</ele>
        <time>2022-09-30T10:29:08Z</time>
      </trkpt>
      <trkpt lat="46.9335" lon="6.99205">
        <ele>474</ele>
        <time>2022-09-30T10:29:09Z</time>
      </trkpt>
      <trkpt lat="46.93353" lon="6.99207">
        <ele>474</ele>
        <time>2022-09-30T10:29:10Z</time>
      </trkpt>
      <trkpt lat="46.93354" lon="6.99212">
        <ele>473.9</ele>
        <time>2022-09-30T10:29:11Z</time>
      </trkpt>
      <trkpt lat="46.93356" lon="6.99215">
        <ele>473.8</ele>
        <time>2022-09-30T10:29:12Z</time>
      </trkpt>
      <trkpt lat="46.93359" lon="6.99218">
        <ele>473.7</ele>
        <time>2022-09-30T10:29:13Z</time>
      </trkpt>
      <trkpt lat="46.9336" lon="6.9922">
        <ele>473.6</ele>
        <time>2022-09-30T10:29:14Z</time>
      </trkpt>
      <trkpt lat="46.93362" lon="6.99223">
        <ele>473.4</ele>
        <time>2022-09-30T10:29:15Z</time>
      </trkpt>
      <trkpt lat="46.93363" lon="6.99224">
        <ele>473.4</ele>
        <time>2022-09-30T10:29:16Z</time>
      </trkpt>
      <trkpt lat="46.93365" lon="6.99224">
        <ele>473.3</ele>
        <time>2022-09-30T10:29:17Z</time>
      </trkpt>
      <trkpt lat="46.93365" lon="6.99225">
        <ele>473.3</ele>
        <time>2022-09-30T10:29:18Z</time>
      </trkpt>
      <trkpt lat="46.93366" lon="6.99225">
        <ele>473.2</ele>
        <time>2022-09-30T10:29:19Z</time>
      </trkpt>
      <trkpt lat="46.93367" lon="6.99225">
        <ele>473.2</ele>
        <time>2022-09-30T10:29:20Z</time>
      </trkpt>
      <trkpt lat="46.93367" lon="6.99225">
        <ele>473.2</ele>
        <time>2022-09-30T10:29:21Z</time>
      </trkpt>
      <trkpt lat="46.93368" lon="6.99225">
        <ele>473.1</ele>
        <time>2022-09-30T10:29:22Z</time>
      </trkpt>
      <trkpt lat="46.93369" lon="6.99225">
        <ele>473.1</ele>
        <time>2022-09-30T10:29:23Z</time>
      </trkpt>
      <trkpt lat="46.93369" lon="6.99225">
        <ele>473.1</ele>
        <time>2022-09-30T10:29:24Z</time>
      </trkpt>
      <trkpt lat="46.9337" lon="6.99225">
        <ele>473</ele>
        <time>2022-09-30T10:29:25Z</time>
      </trkpt>
      <trkpt lat="46.9337" lon="6.99225">
        <ele>473</ele>
        <time>2022-09-30T10:29:26Z</time>
      </trkpt>
      <trkpt lat="46.93371" lon="6.99225">
        <ele>473</ele>
        <time>2022-09-30T10:29:27Z</time>
      </trkpt>
      <trkpt lat="46.93372" lon="6.99225">
        <ele>472.9</ele>
        <time>2022-09-30T10:29:36Z</time>
      </trkpt>
      <trkpt lat="46.93372" lon="6.99226">
        <ele>472.9</ele>
        <time>2022-09-30T10:29:37Z</time>
      </trkpt>
      <trkpt lat="46.93377" lon="6.99222">
        <ele>472.6</ele>
        <time>2022-09-30T10:29:38Z</time>
      </trkpt>
      <trkpt lat="46.9338" lon="6.99218">
        <ele>472.4</ele>
        <time>2022-09-30T10:29:39Z</time>
      </trkpt>
      <trkpt lat="46.93384" lon="6.99213">
        <ele>472.1</ele>
        <time>2022-09-30T10:29:40Z</time>
      </trkpt>
      <trkpt lat="46.93388" lon="6.99208">
        <ele>471.9</ele>
        <time>2022-09-30T10:29:41Z</time>
      </trkpt>
      <trkpt lat="46.93392" lon="6.99203">
        <ele>471.7</ele>
        <time>2022-09-30T10:29:42Z</time>
      </trkpt>
      <trkpt lat="46.93395" lon="6.99198">
        <ele>471.5</ele>
        <time>2022-09-30T10:29:43Z</time>
      </trkpt>
      <trkpt lat="46.93398" lon="6.99195">
        <ele>471.4</ele>
        <time>2022-09-30T10:29:44Z</time>
      </trkpt>
      <trkpt lat="46.93401" lon="6.99194">
        <ele>471.3</ele>
        <time>2022-09-30T10:29:45Z</time>
      </trkpt>
      <trkpt lat="46.93404" lon="6.99193">
        <ele>470.9</ele>
        <time>2022-09-30T10:29:46Z</time>
      </trkpt>
      <trkpt lat="46.93407" lon="6.99194">
        <ele>470.8</ele>
        <time>2022-09-30T10:29:47Z</time>
      </trkpt>
      <trkpt lat="46.93409" lon="6.99197">
        <ele>470.6</ele>
        <time>2022-09-30T10:29:48Z</time>
      </trkpt>
      <trkpt lat="46.9341" lon="6.99199">
        <ele>470.5</ele>
        <time>2022-09-30T10:29:49Z</time>
      </trkpt>
      <trkpt lat="46.93412" lon="6.99202">
        <ele>470.4</ele>
        <time>2022-09-30T10:29:50Z</time>
      </trkpt>
      <trkpt lat="46.93414" lon="6.99205">
        <ele>470.3</ele>
        <time>2022-09-30T10:29:51Z</time>
      </trkpt>
      <trkpt lat="46.93417" lon="6.99209">
        <ele>470.1</ele>
        <time>2022-09-30T10:29:52Z</time>
      </trkpt>
      <trkpt lat="46.9342" lon="6.99214">
        <ele>469.9</ele>
        <time>2022-09-30T10:29:53Z</time>
      </trkpt>
      <trkpt lat="46.93421" lon="6.99218">
        <ele>469.8</ele>
        <time>2022-09-30T10:29:54Z</time>
      </trkpt>
      <trkpt lat="46.93424" lon="6.99224">
        <ele>469.7</ele>
        <time>2022-09-30T10:29:55Z</time>
      </trkpt>
      <trkpt lat="46.93427" lon="6.99228">
        <ele>469.6</ele>
        <time>2022-09-30T10:29:56Z</time>
      </trkpt>
      <trkpt lat="46.93431" lon="6.99233">
        <ele>469.5</ele>
        <time>2022-09-30T10:29:57Z</time>
      </trkpt>
      <trkpt lat="46.93434" lon="6.99237">
        <ele>469.4</ele>
        <time>2022-09-30T10:29:58Z</time>
      </trkpt>
      <trkpt lat="46.93437" lon="6.99244">
        <ele>469.4</ele>
        <time>2022-09-30T10:29:59Z</time>
      </trkpt>
      <trkpt lat="46.9344" lon="6.99248">
        <ele>469.3</ele>
        <time>2022-09-30T10:30:00Z</time>
      </trkpt>
      <trkpt lat="46.93443" lon="6.99253">
        <ele>469.2</ele>
        <time>2022-09-30T10:30:01Z</time>
      </trkpt>
      <trkpt lat="46.93447" lon="6.99257">
        <ele>469.2</ele>
        <time>2022-09-30T10:30:02Z</time>
      </trkpt>
      <trkpt lat="46.9345" lon="6.99262">
        <ele>469.1</ele>
        <time>2022-09-30T10:30:03Z</time>
      </trkpt>
      <trkpt lat="46.93453" lon="6.99266">
        <ele>469.1</ele>
        <time>2022-09-30T10:30:04Z</time>
      </trkpt>
      <trkpt lat="46.93456" lon="6.99271">
        <ele>469</ele>
        <time>2022-09-30T10:30:05Z</time>
      </trkpt>
      <trkpt lat="46.9346" lon="6.99276">
        <ele>469</ele>
        <time>2022-09-30T10:30:06Z</time>
      </trkpt>
      <trkpt lat="46.93463" lon="6.99281">
        <ele>468.9</ele>
        <time>2022-09-30T10:30:07Z</time>
      </trkpt>
      <trkpt lat="46.93467" lon="6.99286">
        <ele>468.9</ele>
        <time>2022-09-30T10:30:08Z</time>
      </trkpt>
      <trkpt lat="46.9347" lon="6.9929">
        <ele>468.8</ele>
        <time>2022-09-30T10:30:09Z</time>
      </trkpt>
      <trkpt lat="46.93474" lon="6.99295">
        <ele>468.7</ele>
        <time>2022-09-30T10:30:10Z</time>
      </trkpt>
      <trkpt lat="46.93477" lon="6.99301">
        <ele>468.7</ele>
        <time>2022-09-30T10:30:11Z</time>
      </trkpt>
      <trkpt lat="46.93481" lon="6.99306">
        <ele>468.6</ele>
        <time>2022-09-30T10:30:12Z</time>
      </trkpt>
      <trkpt lat="46.93484" lon="6.99311">
        <ele>468.5</ele>
        <time>2022-09-30T10:30:13Z</time>
      </trkpt>
      <trkpt lat="46.93488" lon="6.99316">
        <ele>468.4</ele>
        <time>2022-09-30T10:30:14Z</time>
      </trkpt>
      <trkpt lat="46.93491" lon="6.99322">
        <ele>468.4</ele>
        <time>2022-09-30T10:30:15Z</time>
      </trkpt>
      <trkpt lat="46.93494" lon="6.99328">
        <ele>468.3</ele>
        <time>2022-09-30T10:30:16Z</time>
      </trkpt>
      <trkpt lat="46.93497" lon="6.99334">
        <ele>468.2</ele>
        <time>2022-09-30T10:30:17Z</time>
      </trkpt>
      <trkpt lat="46.93502" lon="6.99338">
        <ele>468.2</ele>
        <time>2022-09-30T10:30:18Z</time>
      </trkpt>
      <trkpt lat="46.93505" lon="6.99343">
        <ele>468.1</ele>
        <time>2022-09-30T10:30:19Z</time>
      </trkpt>
      <trkpt lat="46.93508" lon="6.99348">
        <ele>468.1</ele>
        <time>2022-09-30T10:30:20Z</time>
      </trkpt>
      <trkpt lat="46.93511" lon="6.99354">
        <ele>468</ele>
        <time>2022-09-30T10:30:21Z</time>
      </trkpt>
      <trkpt lat="46.93516" lon="6.99357">
        <ele>468</ele>
        <time>2022-09-30T10:30:22Z</time>
      </trkpt>
      <trkpt lat="46.93519" lon="6.99364">
        <ele>468</ele>
        <time>2022-09-30T10:30:23Z</time>
      </trkpt>
      <trkpt lat="46.93523" lon="6.99368">
        <ele>468</ele>
        <time>2022-09-30T10:30:24Z</time>
      </trkpt>
      <trkpt lat="46.93526" lon="6.99374">
        <ele>467.9</ele>
        <time>2022-09-30T10:30:25Z</time>
      </trkpt>
      <trkpt lat="46.9353" lon="6.9938">
        <ele>467.9</ele>
        <time>2022-09-30T10:30:26Z</time>
      </trkpt>
      <trkpt lat="46.93534" lon="6.99385">
        <ele>467.9</ele>
        <time>2022-09-30T10:30:27Z</time>
      </trkpt>
      <trkpt lat="46.93538" lon="6.9939">
        <ele>467.9</ele>
        <time>2022-09-30T10:30:28Z</time>
      </trkpt>
      <trkpt lat="46.93541" lon="6.99395">
        <ele>467.9</ele>
        <time>2022-09-30T10:30:29Z</time>
      </trkpt>
      <trkpt lat="46.93545" lon="6.99401">
        <ele>467.8</ele>
        <time>2022-09-30T10:30:30Z</time>
      </trkpt>
      <trkpt lat="46.93548" lon="6.99406">
        <ele>467.8</ele>
        <time>2022-09-30T10:30:31Z</time>
      </trkpt>
      <trkpt lat="46.93551" lon="6.99409">
        <ele>467.8</ele>
        <time>2022-09-30T10:30:32Z</time>
      </trkpt>
      <trkpt lat="46.93554" lon="6.99415">
        <ele>467.7</ele>
        <time>2022-09-30T10:30:33Z</time>
      </trkpt>
      <trkpt lat="46.93557" lon="6.9942">
        <ele>467.7</ele>
        <time>2022-09-30T10:30:34Z</time>
      </trkpt>
      <trkpt lat="46.9356" lon="6.99425">
        <ele>467.7</ele>
        <time>2022-09-30T10:30:35Z</time>
      </trkpt>
      <trkpt lat="46.93563" lon="6.9943">
        <ele>467.7</ele>
        <time>2022-09-30T10:30:36Z</time>
      </trkpt>
      <trkpt lat="46.93566" lon="6.99434">
        <ele>467.6</ele>
        <time>2022-09-30T10:30:37Z</time>
      </trkpt>
      <trkpt lat="46.9357" lon="6.99438">
        <ele>467.6</ele>
        <time>2022-09-30T10:30:38Z</time>
      </trkpt>
      <trkpt lat="46.93573" lon="6.99442">
        <ele>467.6</ele>
        <time>2022-09-30T10:30:39Z</time>
      </trkpt>
      <trkpt lat="46.93577" lon="6.99448">
        <ele>467.5</ele>
        <time>2022-09-30T10:30:40Z</time>
      </trkpt>
      <trkpt lat="46.93581" lon="6.99453">
        <ele>467.5</ele>
        <time>2022-09-30T10:30:41Z</time>
      </trkpt>
      <trkpt lat="46.93584" lon="6.99457">
        <ele>467.5</ele>
        <time>2022-09-30T10:30:42Z</time>
      </trkpt>
      <trkpt lat="46.93588" lon="6.99462">
        <ele>467.4</ele>
        <time>2022-09-30T10:30:43Z</time>
      </trkpt>
      <trkpt lat="46.93592" lon="6.99467">
        <ele>467.3</ele>
        <time>2022-09-30T10:30:45Z</time>
      </trkpt>
      <trkpt lat="46.93596" lon="6.99471">
        <ele>467.2</ele>
        <time>2022-09-30T10:30:46Z</time>
      </trkpt>
      <trkpt lat="46.936" lon="6.99476">
        <ele>467.2</ele>
        <time>2022-09-30T10:30:47Z</time>
      </trkpt>
      <trkpt lat="46.93604" lon="6.99481">
        <ele>467.1</ele>
        <time>2022-09-30T10:30:48Z</time>
      </trkpt>
      <trkpt lat="46.93608" lon="6.99486">
        <ele>467</ele>
        <time>2022-09-30T10:30:49Z</time>
      </trkpt>
      <trkpt lat="46.93612" lon="6.9949">
        <ele>466.9</ele>
        <time>2022-09-30T10:30:50Z</time>
      </trkpt>
      <trkpt lat="46.93616" lon="6.99495">
        <ele>466.8</ele>
        <time>2022-09-30T10:30:51Z</time>
      </trkpt>
      <trkpt lat="46.9362" lon="6.995">
        <ele>466.8</ele>
        <time>2022-09-30T10:30:52Z</time>
      </trkpt>
      <trkpt lat="46.93624" lon="6.99505">
        <ele>466.7</ele>
        <time>2022-09-30T10:30:53Z</time>
      </trkpt>
      <trkpt lat="46.93629" lon="6.99509">
        <ele>466.6</ele>
        <time>2022-09-30T10:30:54Z</time>
      </trkpt>
      <trkpt lat="46.93633" lon="6.99514">
        <ele>466.6</ele>
        <time>2022-09-30T10:30:55Z</time>
      </trkpt>
      <trkpt lat="46.93637" lon="6.99519">
        <ele>466.5</ele>
        <time>2022-09-30T10:30:56Z</time>
      </trkpt>
      <trkpt lat="46.93641" lon="6.99525">
        <ele>466.5</ele>
        <time>2022-09-30T10:30:57Z</time>
      </trkpt>
      <trkpt lat="46.9365" lon="6.99535">
        <ele>466.4</ele>
        <time>2022-09-30T10:30:58Z</time>
      </trkpt>
      <trkpt lat="46.93654" lon="6.99539">
        <ele>466.4</ele>
        <time>2022-09-30T10:30:59Z</time>
      </trkpt>
      <trkpt lat="46.93658" lon="6.99544">
        <ele>466.4</ele>
        <time>2022-09-30T10:31:00Z</time>
      </trkpt>
      <trkpt lat="46.93662" lon="6.99549">
        <ele>466.4</ele>
        <time>2022-09-30T10:31:01Z</time>
      </trkpt>
      <trkpt lat="46.93665" lon="6.99553">
        <ele>466.4</ele>
        <time>2022-09-30T10:31:02Z</time>
      </trkpt>
      <trkpt lat="46.93669" lon="6.99556">
        <ele>466.3</ele>
        <time>2022-09-30T10:31:03Z</time>
      </trkpt>
      <trkpt lat="46.93671" lon="6.99558">
        <ele>466.3</ele>
        <time>2022-09-30T10:31:04Z</time>
      </trkpt>
      <trkpt lat="46.93674" lon="6.99559">
        <ele>466.3</ele>
        <time>2022-09-30T10:31:05Z</time>
      </trkpt>
      <trkpt lat="46.93675" lon="6.9956">
        <ele>466.3</ele>
        <time>2022-09-30T10:31:06Z</time>
      </trkpt>
      <trkpt lat="46.93677" lon="6.99563">
        <ele>466.3</ele>
        <time>2022-09-30T10:31:07Z</time>
      </trkpt>
      <trkpt lat="46.93678" lon="6.99564">
        <ele>466.3</ele>
        <time>2022-09-30T10:31:08Z</time>
      </trkpt>
      <trkpt lat="46.9368" lon="6.99568">
        <ele>466.2</ele>
        <time>2022-09-30T10:31:09Z</time>
      </trkpt>
      <trkpt lat="46.93681" lon="6.9957">
        <ele>466.2</ele>
        <time>2022-09-30T10:31:10Z</time>
      </trkpt>
      <trkpt lat="46.93684" lon="6.99573">
        <ele>466.2</ele>
        <time>2022-09-30T10:31:11Z</time>
      </trkpt>
      <trkpt lat="46.93686" lon="6.99576">
        <ele>466.1</ele>
        <time>2022-09-30T10:31:12Z</time>
      </trkpt>
      <trkpt lat="46.93688" lon="6.99579">
        <ele>466.1</ele>
        <time>2022-09-30T10:31:13Z</time>
      </trkpt>
      <trkpt lat="46.93691" lon="6.99582">
        <ele>466</ele>
        <time>2022-09-30T10:31:14Z</time>
      </trkpt>
      <trkpt lat="46.93693" lon="6.99586">
        <ele>466</ele>
        <time>2022-09-30T10:31:15Z</time>
      </trkpt>
      <trkpt lat="46.93696" lon="6.99589">
        <ele>465.9</ele>
        <time>2022-09-30T10:31:16Z</time>
      </trkpt>
      <trkpt lat="46.93699" lon="6.99593">
        <ele>465.9</ele>
        <time>2022-09-30T10:31:17Z</time>
      </trkpt>
      <trkpt lat="46.93702" lon="6.99597">
        <ele>465.8</ele>
        <time>2022-09-30T10:31:18Z</time>
      </trkpt>
      <trkpt lat="46.93706" lon="6.99601">
        <ele>465.8</ele>
        <time>2022-09-30T10:31:19Z</time>
      </trkpt>
      <trkpt lat="46.93708" lon="6.99605">
        <ele>465.7</ele>
        <time>2022-09-30T10:31:20Z</time>
      </trkpt>
      <trkpt lat="46.93712" lon="6.9961">
        <ele>465.7</ele>
        <time>2022-09-30T10:31:21Z</time>
      </trkpt>
      <trkpt lat="46.93716" lon="6.99614">
        <ele>465.6</ele>
        <time>2022-09-30T10:31:22Z</time>
      </trkpt>
      <trkpt lat="46.93719" lon="6.99618">
        <ele>465.6</ele>
        <time>2022-09-30T10:31:23Z</time>
      </trkpt>
      <trkpt lat="46.93723" lon="6.99622">
        <ele>465.5</ele>
        <time>2022-09-30T10:31:24Z</time>
      </trkpt>
      <trkpt lat="46.93726" lon="6.99627">
        <ele>465.5</ele>
        <time>2022-09-30T10:31:25Z</time>
      </trkpt>
      <trkpt lat="46.9373" lon="6.99631">
        <ele>465.4</ele>
        <time>2022-09-30T10:31:26Z</time>
      </trkpt>
      <trkpt lat="46.93734" lon="6.99636">
        <ele>465.4</ele>
        <time>2022-09-30T10:31:27Z</time>
      </trkpt>
      <trkpt lat="46.93737" lon="6.9964">
        <ele>465.3</ele>
        <time>2022-09-30T10:31:28Z</time>
      </trkpt>
      <trkpt lat="46.9374" lon="6.99643">
        <ele>465.3</ele>
        <time>2022-09-30T10:31:29Z</time>
      </trkpt>
      <trkpt lat="46.93743" lon="6.99648">
        <ele>465.2</ele>
        <time>2022-09-30T10:31:30Z</time>
      </trkpt>
      <trkpt lat="46.93746" lon="6.99652">
        <ele>465.2</ele>
        <time>2022-09-30T10:31:31Z</time>
      </trkpt>
      <trkpt lat="46.93751" lon="6.99656">
        <ele>465.1</ele>
        <time>2022-09-30T10:31:32Z</time>
      </trkpt>
      <trkpt lat="46.93754" lon="6.99661">
        <ele>465</ele>
        <time>2022-09-30T10:31:33Z</time>
      </trkpt>
      <trkpt lat="46.93758" lon="6.99666">
        <ele>465</ele>
        <time>2022-09-30T10:31:34Z</time>
      </trkpt>
      <trkpt lat="46.93761" lon="6.99671">
        <ele>464.9</ele>
        <time>2022-09-30T10:31:35Z</time>
      </trkpt>
      <trkpt lat="46.93765" lon="6.99676">
        <ele>464.8</ele>
        <time>2022-09-30T10:31:36Z</time>
      </trkpt>
      <trkpt lat="46.93769" lon="6.9968">
        <ele>464.7</ele>
        <time>2022-09-30T10:31:37Z</time>
      </trkpt>
      <trkpt lat="46.93773" lon="6.99685">
        <ele>464.6</ele>
        <time>2022-09-30T10:31:38Z</time>
      </trkpt>
      <trkpt lat="46.93776" lon="6.9969">
        <ele>464.6</ele>
        <time>2022-09-30T10:31:39Z</time>
      </trkpt>
      <trkpt lat="46.9378" lon="6.99695">
        <ele>464.5</ele>
        <time>2022-09-30T10:31:40Z</time>
      </trkpt>
      <trkpt lat="46.93784" lon="6.99699">
        <ele>464.4</ele>
        <time>2022-09-30T10:31:41Z</time>
      </trkpt>
      <trkpt lat="46.93788" lon="6.99704">
        <ele>464.3</ele>
        <time>2022-09-30T10:31:42Z</time>
      </trkpt>
      <trkpt lat="46.93792" lon="6.99709">
        <ele>464.3</ele>
        <time>2022-09-30T10:31:43Z</time>
      </trkpt>
      <trkpt lat="46.93796" lon="6.99714">
        <ele>464.2</ele>
        <time>2022-09-30T10:31:44Z</time>
      </trkpt>
      <trkpt lat="46.93801" lon="6.99719">
        <ele>464.1</ele>
        <time>2022-09-30T10:31:45Z</time>
      </trkpt>
      <trkpt lat="46.93805" lon="6.99724">
        <ele>464</ele>
        <time>2022-09-30T10:31:46Z</time>
      </trkpt>
      <trkpt lat="46.93808" lon="6.99729">
        <ele>464</ele>
        <time>2022-09-30T10:31:47Z</time>
      </trkpt>
      <trkpt lat="46.93813" lon="6.99734">
        <ele>463.9</ele>
        <time>2022-09-30T10:31:48Z</time>
      </trkpt>
      <trkpt lat="46.93818" lon="6.99739">
        <ele>463.8</ele>
        <time>2022-09-30T10:31:49Z</time>
      </trkpt>
      <trkpt lat="46.93821" lon="6.99744">
        <ele>463.8</ele>
        <time>2022-09-30T10:31:50Z</time>
      </trkpt>
      <trkpt lat="46.93825" lon="6.99747">
        <ele>463.7</ele>
        <time>2022-09-30T10:31:51Z</time>
      </trkpt>
      <trkpt lat="46.93829" lon="6.99752">
        <ele>463.6</ele>
        <time>2022-09-30T10:31:52Z</time>
      </trkpt>
      <trkpt lat="46.93834" lon="6.99757">
        <ele>463.6</ele>
        <time>2022-09-30T10:31:53Z</time>
      </trkpt>
      <trkpt lat="46.93838" lon="6.99762">
        <ele>463.5</ele>
        <time>2022-09-30T10:31:54Z</time>
      </trkpt>
      <trkpt lat="46.93842" lon="6.99767">
        <ele>463.4</ele>
        <time>2022-09-30T10:31:55Z</time>
      </trkpt>
      <trkpt lat="46.93847" lon="6.99772">
        <ele>463.3</ele>
        <time>2022-09-30T10:31:56Z</time>
      </trkpt>
      <trkpt lat="46.93851" lon="6.99777">
        <ele>463.3</ele>
        <time>2022-09-30T10:31:57Z</time>
      </trkpt>
      <trkpt lat="46.93855" lon="6.99782">
        <ele>463.2</ele>
        <time>2022-09-30T10:31:58Z</time>
      </trkpt>
      <trkpt lat="46.93859" lon="6.99787">
        <ele>463.2</ele>
        <time>2022-09-30T10:31:59Z</time>
      </trkpt>
      <trkpt lat="46.93863" lon="6.99792">
        <ele>463.1</ele>
        <time>2022-09-30T10:32:00Z</time>
      </trkpt>
      <trkpt lat="46.93867" lon="6.99797">
        <ele>463</ele>
        <time>2022-09-30T10:32:01Z</time>
      </trkpt>
      <trkpt lat="46.93871" lon="6.99803">
        <ele>463</ele>
        <time>2022-09-30T10:32:02Z</time>
      </trkpt>
      <trkpt lat="46.93875" lon="6.99807">
        <ele>462.9</ele>
        <time>2022-09-30T10:32:03Z</time>
      </trkpt>
      <trkpt lat="46.93879" lon="6.99812">
        <ele>462.9</ele>
        <time>2022-09-30T10:32:04Z</time>
      </trkpt>
      <trkpt lat="46.93883" lon="6.99817">
        <ele>462.8</ele>
        <time>2022-09-30T10:32:05Z</time>
      </trkpt>
      <trkpt lat="46.93886" lon="6.99823">
        <ele>462.8</ele>
        <time>2022-09-30T10:32:06Z</time>
      </trkpt>
      <trkpt lat="46.93891" lon="6.99828">
        <ele>462.7</ele>
        <time>2022-09-30T10:32:07Z</time>
      </trkpt>
      <trkpt lat="46.93895" lon="6.99833">
        <ele>462.7</ele>
        <time>2022-09-30T10:32:08Z</time>
      </trkpt>
      <trkpt lat="46.939" lon="6.99838">
        <ele>462.6</ele>
        <time>2022-09-30T10:32:09Z</time>
      </trkpt>
      <trkpt lat="46.93904" lon="6.99843">
        <ele>462.6</ele>
        <time>2022-09-30T10:32:10Z</time>
      </trkpt>
      <trkpt lat="46.93908" lon="6.99847">
        <ele>462.5</ele>
        <time>2022-09-30T10:32:11Z</time>
      </trkpt>
      <trkpt lat="46.93912" lon="6.99852">
        <ele>462.5</ele>
        <time>2022-09-30T10:32:12Z</time>
      </trkpt>
      <trkpt lat="46.93916" lon="6.99857">
        <ele>462.4</ele>
        <time>2022-09-30T10:32:13Z</time>
      </trkpt>
      <trkpt lat="46.9392" lon="6.99862">
        <ele>462.4</ele>
        <time>2022-09-30T10:32:14Z</time>
      </trkpt>
      <trkpt lat="46.93924" lon="6.99867">
        <ele>462.3</ele>
        <time>2022-09-30T10:32:15Z</time>
      </trkpt>
      <trkpt lat="46.93928" lon="6.99871">
        <ele>462.3</ele>
        <time>2022-09-30T10:32:16Z</time>
      </trkpt>
      <trkpt lat="46.93932" lon="6.99876">
        <ele>462.3</ele>
        <time>2022-09-30T10:32:17Z</time>
      </trkpt>
      <trkpt lat="46.93936" lon="6.99881">
        <ele>462.3</ele>
        <time>2022-09-30T10:32:18Z</time>
      </trkpt>
      <trkpt lat="46.9394" lon="6.99885">
        <ele>462.3</ele>
        <time>2022-09-30T10:32:19Z</time>
      </trkpt>
      <trkpt lat="46.93943" lon="6.99889">
        <ele>462.4</ele>
        <time>2022-09-30T10:32:20Z</time>
      </trkpt>
      <trkpt lat="46.93946" lon="6.99893">
        <ele>462.4</ele>
        <time>2022-09-30T10:32:21Z</time>
      </trkpt>
      <trkpt lat="46.93949" lon="6.99896">
        <ele>462.5</ele>
        <time>2022-09-30T10:32:22Z</time>
      </trkpt>
      <trkpt lat="46.93952" lon="6.999">
        <ele>462.5</ele>
        <time>2022-09-30T10:32:23Z</time>
      </trkpt>
      <trkpt lat="46.93956" lon="6.99904">
        <ele>462.6</ele>
        <time>2022-09-30T10:32:24Z</time>
      </trkpt>
      <trkpt lat="46.93959" lon="6.99908">
        <ele>462.7</ele>
        <time>2022-09-30T10:32:25Z</time>
      </trkpt>
      <trkpt lat="46.93962" lon="6.99911">
        <ele>462.7</ele>
        <time>2022-09-30T10:32:26Z</time>
      </trkpt>
      <trkpt lat="46.93965" lon="6.99915">
        <ele>462.8</ele>
        <time>2022-09-30T10:32:27Z</time>
      </trkpt>
      <trkpt lat="46.93968" lon="6.99918">
        <ele>462.9</ele>
        <time>2022-09-30T10:32:28Z</time>
      </trkpt>
      <trkpt lat="46.9397" lon="6.99922">
        <ele>462.9</ele>
        <time>2022-09-30T10:32:29Z</time>
      </trkpt>
      <trkpt lat="46.93972" lon="6.99924">
        <ele>462.9</ele>
        <time>2022-09-30T10:32:30Z</time>
      </trkpt>
      <trkpt lat="46.93975" lon="6.99925">
        <ele>462.8</ele>
        <time>2022-09-30T10:32:31Z</time>
      </trkpt>
      <trkpt lat="46.93976" lon="6.99926">
        <ele>462.8</ele>
        <time>2022-09-30T10:32:32Z</time>
      </trkpt>
      <trkpt lat="46.9398" lon="6.99925">
        <ele>462.7</ele>
        <time>2022-09-30T10:32:33Z</time>
      </trkpt>
      <trkpt lat="46.93982" lon="6.99924">
        <ele>462.7</ele>
        <time>2022-09-30T10:32:34Z</time>
      </trkpt>
      <trkpt lat="46.93985" lon="6.99922">
        <ele>462.7</ele>
        <time>2022-09-30T10:32:35Z</time>
      </trkpt>
      <trkpt lat="46.93988" lon="6.99919">
        <ele>462.6</ele>
        <time>2022-09-30T10:32:36Z</time>
      </trkpt>
      <trkpt lat="46.93991" lon="6.99918">
        <ele>462.5</ele>
        <time>2022-09-30T10:32:37Z</time>
      </trkpt>
      <trkpt lat="46.93994" lon="6.99916">
        <ele>462.5</ele>
        <time>2022-09-30T10:32:38Z</time>
      </trkpt>
      <trkpt lat="46.93996" lon="6.99914">
        <ele>462.5</ele>
        <time>2022-09-30T10:32:39Z</time>
      </trkpt>
      <trkpt lat="46.94" lon="6.99912">
        <ele>462.4</ele>
        <time>2022-09-30T10:32:40Z</time>
      </trkpt>
      <trkpt lat="46.94003" lon="6.9991">
        <ele>462.4</ele>
        <time>2022-09-30T10:32:41Z</time>
      </trkpt>
      <trkpt lat="46.94007" lon="6.99908">
        <ele>462.3</ele>
        <time>2022-09-30T10:32:42Z</time>
      </trkpt>
      <trkpt lat="46.94011" lon="6.99906">
        <ele>462.3</ele>
        <time>2022-09-30T10:32:43Z</time>
      </trkpt>
      <trkpt lat="46.94015" lon="6.99903">
        <ele>462.3</ele>
        <time>2022-09-30T10:32:44Z</time>
      </trkpt>
      <trkpt lat="46.94019" lon="6.99901">
        <ele>462.3</ele>
        <time>2022-09-30T10:32:45Z</time>
      </trkpt>
      <trkpt lat="46.94023" lon="6.99899">
        <ele>462.3</ele>
        <time>2022-09-30T10:32:46Z</time>
      </trkpt>
      <trkpt lat="46.94027" lon="6.99897">
        <ele>462.3</ele>
        <time>2022-09-30T10:32:47Z</time>
      </trkpt>
      <trkpt lat="46.9403" lon="6.99896">
        <ele>462.3</ele>
        <time>2022-09-30T10:32:48Z</time>
      </trkpt>
      <trkpt lat="46.94034" lon="6.99893">
        <ele>462.3</ele>
        <time>2022-09-30T10:32:49Z</time>
      </trkpt>
      <trkpt lat="46.94038" lon="6.99891">
        <ele>462.4</ele>
        <time>2022-09-30T10:32:50Z</time>
      </trkpt>
      <trkpt lat="46.94042" lon="6.99889">
        <ele>462.4</ele>
        <time>2022-09-30T10:32:51Z</time>
      </trkpt>
      <trkpt lat="46.94046" lon="6.99887">
        <ele>462.4</ele>
        <time>2022-09-30T10:32:53Z</time>
      </trkpt>
      <trkpt lat="46.94049" lon="6.99885">
        <ele>462.5</ele>
        <time>2022-09-30T10:32:54Z</time>
      </trkpt>
      <trkpt lat="46.94053" lon="6.99883">
        <ele>462.6</ele>
        <time>2022-09-30T10:32:55Z</time>
      </trkpt>
      <trkpt lat="46.94057" lon="6.9988">
        <ele>462.6</ele>
        <time>2022-09-30T10:32:56Z</time>
      </trkpt>
      <trkpt lat="46.94061" lon="6.99878">
        <ele>462.7</ele>
        <time>2022-09-30T10:32:57Z</time>
      </trkpt>
      <trkpt lat="46.94065" lon="6.99876">
        <ele>462.7</ele>
        <time>2022-09-30T10:32:58Z</time>
      </trkpt>
      <trkpt lat="46.94068" lon="6.99874">
        <ele>462.8</ele>
        <time>2022-09-30T10:32:59Z</time>
      </trkpt>
      <trkpt lat="46.94073" lon="6.99871">
        <ele>462.9</ele>
        <time>2022-09-30T10:33:00Z</time>
      </trkpt>
      <trkpt lat="46.94076" lon="6.9987">
        <ele>462.9</ele>
        <time>2022-09-30T10:33:01Z</time>
      </trkpt>
      <trkpt lat="46.9408" lon="6.99869">
        <ele>462.9</ele>
        <time>2022-09-30T10:33:02Z</time>
      </trkpt>
      <trkpt lat="46.94081" lon="6.99868">
        <ele>463</ele>
        <time>2022-09-30T10:33:03Z</time>
      </trkpt>
      <trkpt lat="46.94084" lon="6.99867">
        <ele>463</ele>
        <time>2022-09-30T10:33:04Z</time>
      </trkpt>
      <trkpt lat="46.94086" lon="6.99866">
        <ele>463</ele>
        <time>2022-09-30T10:33:05Z</time>
      </trkpt>
      <trkpt lat="46.94089" lon="6.99864">
        <ele>463</ele>
        <time>2022-09-30T10:33:06Z</time>
      </trkpt>
      <trkpt lat="46.94092" lon="6.99863">
        <ele>463.1</ele>
        <time>2022-09-30T10:33:07Z</time>
      </trkpt>
      <trkpt lat="46.94096" lon="6.9986">
        <ele>463.2</ele>
        <time>2022-09-30T10:33:09Z</time>
      </trkpt>
      <trkpt lat="46.94097" lon="6.99859">
        <ele>463.2</ele>
        <time>2022-09-30T10:33:10Z</time>
      </trkpt>
      <trkpt lat="46.941" lon="6.99856">
        <ele>463.3</ele>
        <time>2022-09-30T10:33:11Z</time>
      </trkpt>
      <trkpt lat="46.94103" lon="6.99852">
        <ele>463.4</ele>
        <time>2022-09-30T10:33:12Z</time>
      </trkpt>
      <trkpt lat="46.94104" lon="6.99851">
        <ele>463.4</ele>
        <time>2022-09-30T10:33:13Z</time>
      </trkpt>
      <trkpt lat="46.94107" lon="6.99849">
        <ele>463.5</ele>
        <time>2022-09-30T10:33:14Z</time>
      </trkpt>
      <trkpt lat="46.9411" lon="6.99846">
        <ele>463.6</ele>
        <time>2022-09-30T10:33:15Z</time>
      </trkpt>
      <trkpt lat="46.94114" lon="6.99844">
        <ele>463.7</ele>
        <time>2022-09-30T10:33:16Z</time>
      </trkpt>
      <trkpt lat="46.94117" lon="6.9984">
        <ele>463.8</ele>
        <time>2022-09-30T10:33:17Z</time>
      </trkpt>
      <trkpt lat="46.94119" lon="6.99837">
        <ele>463.9</ele>
        <time>2022-09-30T10:33:18Z</time>
      </trkpt>
      <trkpt lat="46.94122" lon="6.99833">
        <ele>464.1</ele>
        <time>2022-09-30T10:33:19Z</time>
      </trkpt>
      <trkpt lat="46.94125" lon="6.99829">
        <ele>464.2</ele>
        <time>2022-09-30T10:33:20Z</time>
      </trkpt>
      <trkpt lat="46.94127" lon="6.99828">
        <ele>464.3</ele>
        <time>2022-09-30T10:33:21Z</time>
      </trkpt>
      <trkpt lat="46.94129" lon="6.99826">
        <ele>464.4</ele>
        <time>2022-09-30T10:33:22Z</time>
      </trkpt>
      <trkpt lat="46.94132" lon="6.99823">
        <ele>464.5</ele>
        <time>2022-09-30T10:33:23Z</time>
      </trkpt>
      <trkpt lat="46.94134" lon="6.99821">
        <ele>464.7</ele>
        <time>2022-09-30T10:33:24Z</time>
      </trkpt>
      <trkpt lat="46.94136" lon="6.99818">
        <ele>464.8</ele>
        <time>2022-09-30T10:33:25Z</time>
      </trkpt>
      <trkpt lat="46.94139" lon="6.99816">
        <ele>465</ele>
        <time>2022-09-30T10:33:26Z</time>
      </trkpt>
      <trkpt lat="46.9414" lon="6.99815">
        <ele>465</ele>
        <time>2022-09-30T10:33:27Z</time>
      </trkpt>
      <trkpt lat="46.94142" lon="6.99815">
        <ele>465.2</ele>
        <time>2022-09-30T10:33:28Z</time>
      </trkpt>
      <trkpt lat="46.94145" lon="6.99817">
        <ele>465.2</ele>
        <time>2022-09-30T10:33:29Z</time>
      </trkpt>
      <trkpt lat="46.94148" lon="6.9982">
        <ele>465.3</ele>
        <time>2022-09-30T10:33:30Z</time>
      </trkpt>
      <trkpt lat="46.9415" lon="6.99824">
        <ele>465.3</ele>
        <time>2022-09-30T10:33:31Z</time>
      </trkpt>
      <trkpt lat="46.94151" lon="6.99825">
        <ele>465.3</ele>
        <time>2022-09-30T10:33:32Z</time>
      </trkpt>
      <trkpt lat="46.94154" lon="6.99828">
        <ele>465.4</ele>
        <time>2022-09-30T10:33:33Z</time>
      </trkpt>
      <trkpt lat="46.94156" lon="6.99829">
        <ele>465.4</ele>
        <time>2022-09-30T10:33:34Z</time>
      </trkpt>
      <trkpt lat="46.94158" lon="6.99833">
        <ele>465.5</ele>
        <time>2022-09-30T10:33:35Z</time>
      </trkpt>
      <trkpt lat="46.94159" lon="6.99834">
        <ele>465.5</ele>
        <time>2022-09-30T10:33:36Z</time>
      </trkpt>
      <trkpt lat="46.94162" lon="6.99841">
        <ele>465.6</ele>
        <time>2022-09-30T10:33:37Z</time>
      </trkpt>
      <trkpt lat="46.94164" lon="6.99844">
        <ele>465.6</ele>
        <time>2022-09-30T10:33:38Z</time>
      </trkpt>
      <trkpt lat="46.94166" lon="6.99847">
        <ele>465.7</ele>
        <time>2022-09-30T10:33:39Z</time>
      </trkpt>
      <trkpt lat="46.94168" lon="6.99851">
        <ele>465.7</ele>
        <time>2022-09-30T10:33:40Z</time>
      </trkpt>
      <trkpt lat="46.94169" lon="6.99852">
        <ele>465.7</ele>
        <time>2022-09-30T10:33:41Z</time>
      </trkpt>
      <trkpt lat="46.94171" lon="6.99856">
        <ele>465.8</ele>
        <time>2022-09-30T10:33:42Z</time>
      </trkpt>
      <trkpt lat="46.94172" lon="6.99859">
        <ele>465.8</ele>
        <time>2022-09-30T10:33:43Z</time>
      </trkpt>
      <trkpt lat="46.94173" lon="6.99863">
        <ele>465.9</ele>
        <time>2022-09-30T10:33:44Z</time>
      </trkpt>
      <trkpt lat="46.94175" lon="6.99867">
        <ele>465.9</ele>
        <time>2022-09-30T10:33:45Z</time>
      </trkpt>
      <trkpt lat="46.94178" lon="6.99871">
        <ele>465.9</ele>
        <time>2022-09-30T10:33:46Z</time>
      </trkpt>
      <trkpt lat="46.94179" lon="6.99875">
        <ele>466</ele>
        <time>2022-09-30T10:33:47Z</time>
      </trkpt>
      <trkpt lat="46.94181" lon="6.99879">
        <ele>466</ele>
        <time>2022-09-30T10:33:48Z</time>
      </trkpt>
      <trkpt lat="46.94183" lon="6.99883">
        <ele>466</ele>
        <time>2022-09-30T10:33:49Z</time>
      </trkpt>
      <trkpt lat="46.94185" lon="6.99888">
        <ele>466.1</ele>
        <time>2022-09-30T10:33:50Z</time>
      </trkpt>
      <trkpt lat="46.94187" lon="6.99891">
        <ele>466.1</ele>
        <time>2022-09-30T10:33:51Z</time>
      </trkpt>
      <trkpt lat="46.94189" lon="6.99895">
        <ele>466.2</ele>
        <time>2022-09-30T10:33:52Z</time>
      </trkpt>
      <trkpt lat="46.94192" lon="6.999">
        <ele>466.2</ele>
        <time>2022-09-30T10:33:53Z</time>
      </trkpt>
      <trkpt lat="46.94194" lon="6.99904">
        <ele>466.2</ele>
        <time>2022-09-30T10:33:54Z</time>
      </trkpt>
      <trkpt lat="46.94197" lon="6.99908">
        <ele>466.3</ele>
        <time>2022-09-30T10:33:55Z</time>
      </trkpt>
      <trkpt lat="46.94199" lon="6.99912">
        <ele>466.3</ele>
        <time>2022-09-30T10:33:56Z</time>
      </trkpt>
      <trkpt lat="46.94202" lon="6.99916">
        <ele>466.4</ele>
        <time>2022-09-30T10:33:57Z</time>
      </trkpt>
      <trkpt lat="46.94205" lon="6.99921">
        <ele>466.4</ele>
        <time>2022-09-30T10:33:58Z</time>
      </trkpt>
      <trkpt lat="46.94206" lon="6.99928">
        <ele>466.5</ele>
        <time>2022-09-30T10:33:59Z</time>
      </trkpt>
      <trkpt lat="46.9421" lon="6.99931">
        <ele>466.6</ele>
        <time>2022-09-30T10:34:00Z</time>
      </trkpt>
      <trkpt lat="46.94213" lon="6.99934">
        <ele>466.6</ele>
        <time>2022-09-30T10:34:01Z</time>
      </trkpt>
      <trkpt lat="46.94216" lon="6.99938">
        <ele>466.7</ele>
        <time>2022-09-30T10:34:02Z</time>
      </trkpt>
      <trkpt lat="46.94219" lon="6.99942">
        <ele>466.8</ele>
        <time>2022-09-30T10:34:03Z</time>
      </trkpt>
      <trkpt lat="46.94223" lon="6.99947">
        <ele>466.9</ele>
        <time>2022-09-30T10:34:04Z</time>
      </trkpt>
      <trkpt lat="46.94226" lon="6.9995">
        <ele>467</ele>
        <time>2022-09-30T10:34:05Z</time>
      </trkpt>
      <trkpt lat="46.94229" lon="6.99954">
        <ele>467</ele>
        <time>2022-09-30T10:34:06Z</time>
      </trkpt>
      <trkpt lat="46.94232" lon="6.99957">
        <ele>467.1</ele>
        <time>2022-09-30T10:34:07Z</time>
      </trkpt>
      <trkpt lat="46.94234" lon="6.99961">
        <ele>467.2</ele>
        <time>2022-09-30T10:34:08Z</time>
      </trkpt>
      <trkpt lat="46.94236" lon="6.99966">
        <ele>467.2</ele>
        <time>2022-09-30T10:34:09Z</time>
      </trkpt>
      <trkpt lat="46.94239" lon="6.99969">
        <ele>467.3</ele>
        <time>2022-09-30T10:34:10Z</time>
      </trkpt>
      <trkpt lat="46.94242" lon="6.99972">
        <ele>467.4</ele>
        <time>2022-09-30T10:34:11Z</time>
      </trkpt>
      <trkpt lat="46.94245" lon="6.99977">
        <ele>467.5</ele>
        <time>2022-09-30T10:34:12Z</time>
      </trkpt>
      <trkpt lat="46.94248" lon="6.9998">
        <ele>467.5</ele>
        <time>2022-09-30T10:34:13Z</time>
      </trkpt>
      <trkpt lat="46.94251" lon="6.99984">
        <ele>467.6</ele>
        <time>2022-09-30T10:34:14Z</time>
      </trkpt>
      <trkpt lat="46.94254" lon="6.99987">
        <ele>467.7</ele>
        <time>2022-09-30T10:34:15Z</time>
      </trkpt>
      <trkpt lat="46.94256" lon="6.99991">
        <ele>467.8</ele>
        <time>2022-09-30T10:34:16Z</time>
      </trkpt>
      <trkpt lat="46.9426" lon="6.99992">
        <ele>467.8</ele>
        <time>2022-09-30T10:34:17Z</time>
      </trkpt>
      <trkpt lat="46.94263" lon="6.99995">
        <ele>467.9</ele>
        <time>2022-09-30T10:34:18Z</time>
      </trkpt>
      <trkpt lat="46.94266" lon="6.99999">
        <ele>468</ele>
        <time>2022-09-30T10:34:19Z</time>
      </trkpt>
      <trkpt lat="46.94269" lon="7.00002">
        <ele>468.1</ele>
        <time>2022-09-30T10:34:20Z</time>
      </trkpt>
      <trkpt lat="46.94272" lon="7.00006">
        <ele>468.1</ele>
        <time>2022-09-30T10:34:21Z</time>
      </trkpt>
      <trkpt lat="46.94274" lon="7.00007">
        <ele>468.1</ele>
        <time>2022-09-30T10:34:22Z</time>
      </trkpt>
      <trkpt lat="46.94276" lon="7.0001">
        <ele>468.1</ele>
        <time>2022-09-30T10:34:23Z</time>
      </trkpt>
      <trkpt lat="46.94278" lon="7.00012">
        <ele>468.2</ele>
        <time>2022-09-30T10:34:24Z</time>
      </trkpt>
      <trkpt lat="46.94281" lon="7.00015">
        <ele>468.2</ele>
        <time>2022-09-30T10:34:25Z</time>
      </trkpt>
      <trkpt lat="46.94283" lon="7.00017">
        <ele>468.3</ele>
        <time>2022-09-30T10:34:26Z</time>
      </trkpt>
      <trkpt lat="46.94285" lon="7.0002">
        <ele>468.3</ele>
        <time>2022-09-30T10:34:27Z</time>
      </trkpt>
      <trkpt lat="46.94288" lon="7.00023">
        <ele>468.4</ele>
        <time>2022-09-30T10:34:28Z</time>
      </trkpt>
      <trkpt lat="46.9429" lon="7.00026">
        <ele>468.5</ele>
        <time>2022-09-30T10:34:29Z</time>
      </trkpt>
      <trkpt lat="46.94292" lon="7.00029">
        <ele>468.6</ele>
        <time>2022-09-30T10:34:30Z</time>
      </trkpt>
      <trkpt lat="46.94293" lon="7.0003">
        <ele>468.6</ele>
        <time>2022-09-30T10:34:31Z</time>
      </trkpt>
      <trkpt lat="46.94295" lon="7.00033">
        <ele>468.7</ele>
        <time>2022-09-30T10:34:32Z</time>
      </trkpt>
      <trkpt lat="46.94299" lon="7.00037">
        <ele>468.8</ele>
        <time>2022-09-30T10:34:33Z</time>
      </trkpt>
      <trkpt lat="46.943" lon="7.00038">
        <ele>468.8</ele>
        <time>2022-09-30T10:34:34Z</time>
      </trkpt>
      <trkpt lat="46.94303" lon="7.00042">
        <ele>468.9</ele>
        <time>2022-09-30T10:34:35Z</time>
      </trkpt>
      <trkpt lat="46.94304" lon="7.00043">
        <ele>469</ele>
        <time>2022-09-30T10:34:36Z</time>
      </trkpt>
      <trkpt lat="46.94307" lon="7.00046">
        <ele>469</ele>
        <time>2022-09-30T10:34:37Z</time>
      </trkpt>
      <trkpt lat="46.9431" lon="7.00049">
        <ele>469.1</ele>
        <time>2022-09-30T10:34:38Z</time>
      </trkpt>
      <trkpt lat="46.94311" lon="7.0005">
        <ele>469.2</ele>
        <time>2022-09-30T10:34:39Z</time>
      </trkpt>
      <trkpt lat="46.94313" lon="7.00053">
        <ele>469.3</ele>
        <time>2022-09-30T10:34:40Z</time>
      </trkpt>
      <trkpt lat="46.94316" lon="7.00056">
        <ele>469.3</ele>
        <time>2022-09-30T10:34:41Z</time>
      </trkpt>
      <trkpt lat="46.94318" lon="7.00059">
        <ele>469.4</ele>
        <time>2022-09-30T10:34:42Z</time>
      </trkpt>
      <trkpt lat="46.9432" lon="7.00061">
        <ele>469.5</ele>
        <time>2022-09-30T10:34:43Z</time>
      </trkpt>
      <trkpt lat="46.94322" lon="7.00063">
        <ele>469.6</ele>
        <time>2022-09-30T10:34:44Z</time>
      </trkpt>
      <trkpt lat="46.94324" lon="7.00066">
        <ele>469.7</ele>
        <time>2022-09-30T10:34:45Z</time>
      </trkpt>
      <trkpt lat="46.94327" lon="7.00069">
        <ele>469.8</ele>
        <time>2022-09-30T10:34:46Z</time>
      </trkpt>
      <trkpt lat="46.94329" lon="7.0007">
        <ele>469.9</ele>
        <time>2022-09-30T10:34:47Z</time>
      </trkpt>
      <trkpt lat="46.94331" lon="7.00074">
        <ele>470</ele>
        <time>2022-09-30T10:34:48Z</time>
      </trkpt>
      <trkpt lat="46.94332" lon="7.00075">
        <ele>470</ele>
        <time>2022-09-30T10:34:49Z</time>
      </trkpt>
      <trkpt lat="46.94334" lon="7.00078">
        <ele>470.2</ele>
        <time>2022-09-30T10:34:50Z</time>
      </trkpt>
      <trkpt lat="46.94335" lon="7.0008">
        <ele>470.2</ele>
        <time>2022-09-30T10:34:51Z</time>
      </trkpt>
      <trkpt lat="46.94337" lon="7.00083">
        <ele>470.4</ele>
        <time>2022-09-30T10:34:52Z</time>
      </trkpt>
      <trkpt lat="46.94338" lon="7.00084">
        <ele>470.4</ele>
        <time>2022-09-30T10:34:53Z</time>
      </trkpt>
      <trkpt lat="46.94341" lon="7.00087">
        <ele>470.6</ele>
        <time>2022-09-30T10:34:54Z</time>
      </trkpt>
      <trkpt lat="46.94342" lon="7.00088">
        <ele>470.6</ele>
        <time>2022-09-30T10:34:55Z</time>
      </trkpt>
      <trkpt lat="46.94345" lon="7.00093">
        <ele>470.8</ele>
        <time>2022-09-30T10:34:57Z</time>
      </trkpt>
      <trkpt lat="46.94347" lon="7.00095">
        <ele>470.9</ele>
        <time>2022-09-30T10:34:58Z</time>
      </trkpt>
      <trkpt lat="46.94349" lon="7.00097">
        <ele>471</ele>
        <time>2022-09-30T10:34:59Z</time>
      </trkpt>
      <trkpt lat="46.94352" lon="7.00101">
        <ele>471.2</ele>
        <time>2022-09-30T10:35:01Z</time>
      </trkpt>
      <trkpt lat="46.94353" lon="7.00103">
        <ele>471.4</ele>
        <time>2022-09-30T10:35:02Z</time>
      </trkpt>
      <trkpt lat="46.94355" lon="7.00106">
        <ele>471.5</ele>
        <time>2022-09-30T10:35:03Z</time>
      </trkpt>
      <trkpt lat="46.94357" lon="7.00108">
        <ele>471.6</ele>
        <time>2022-09-30T10:35:04Z</time>
      </trkpt>
      <trkpt lat="46.94359" lon="7.00111">
        <ele>471.7</ele>
        <time>2022-09-30T10:35:05Z</time>
      </trkpt>
      <trkpt lat="46.9436" lon="7.00113">
        <ele>471.9</ele>
        <time>2022-09-30T10:35:07Z</time>
      </trkpt>
      <trkpt lat="46.94363" lon="7.00116">
        <ele>472</ele>
        <time>2022-09-30T10:35:08Z</time>
      </trkpt>
      <trkpt lat="46.94364" lon="7.00117">
        <ele>472.1</ele>
        <time>2022-09-30T10:35:09Z</time>
      </trkpt>
      <trkpt lat="46.94367" lon="7.00121">
        <ele>472.4</ele>
        <time>2022-09-30T10:35:10Z</time>
      </trkpt>
      <trkpt lat="46.94369" lon="7.00123">
        <ele>472.5</ele>
        <time>2022-09-30T10:35:11Z</time>
      </trkpt>
      <trkpt lat="46.94371" lon="7.00124">
        <ele>472.6</ele>
        <time>2022-09-30T10:35:13Z</time>
      </trkpt>
      <trkpt lat="46.94373" lon="7.00128">
        <ele>472.8</ele>
        <time>2022-09-30T10:35:14Z</time>
      </trkpt>
      <trkpt lat="46.94374" lon="7.0013">
        <ele>472.9</ele>
        <time>2022-09-30T10:35:15Z</time>
      </trkpt>
      <trkpt lat="46.94376" lon="7.00131">
        <ele>473</ele>
        <time>2022-09-30T10:35:16Z</time>
      </trkpt>
      <trkpt lat="46.94378" lon="7.00134">
        <ele>473.2</ele>
        <time>2022-09-30T10:35:17Z</time>
      </trkpt>
      <trkpt lat="46.94379" lon="7.00135">
        <ele>473.3</ele>
        <time>2022-09-30T10:35:18Z</time>
      </trkpt>
      <trkpt lat="46.9438" lon="7.00138">
        <ele>473.5</ele>
        <time>2022-09-30T10:35:19Z</time>
      </trkpt>
      <trkpt lat="46.94381" lon="7.00139">
        <ele>473.5</ele>
        <time>2022-09-30T10:35:20Z</time>
      </trkpt>
      <trkpt lat="46.94382" lon="7.00141">
        <ele>473.6</ele>
        <time>2022-09-30T10:35:21Z</time>
      </trkpt>
      <trkpt lat="46.94383" lon="7.00143">
        <ele>473.7</ele>
        <time>2022-09-30T10:35:22Z</time>
      </trkpt>
      <trkpt lat="46.94385" lon="7.00146">
        <ele>473.9</ele>
        <time>2022-09-30T10:35:23Z</time>
      </trkpt>
      <trkpt lat="46.94386" lon="7.00146">
        <ele>474</ele>
        <time>2022-09-30T10:35:24Z</time>
      </trkpt>
      <trkpt lat="46.94387" lon="7.00148">
        <ele>474.1</ele>
        <time>2022-09-30T10:35:25Z</time>
      </trkpt>
      <trkpt lat="46.94389" lon="7.00148">
        <ele>474.2</ele>
        <time>2022-09-30T10:35:26Z</time>
      </trkpt>
      <trkpt lat="46.9439" lon="7.0015">
        <ele>474.3</ele>
        <time>2022-09-30T10:35:27Z</time>
      </trkpt>
      <trkpt lat="46.94391" lon="7.00152">
        <ele>474.5</ele>
        <time>2022-09-30T10:35:28Z</time>
      </trkpt>
      <trkpt lat="46.94392" lon="7.00154">
        <ele>474.6</ele>
        <time>2022-09-30T10:35:29Z</time>
      </trkpt>
      <trkpt lat="46.94393" lon="7.00156">
        <ele>474.7</ele>
        <time>2022-09-30T10:35:30Z</time>
      </trkpt>
      <trkpt lat="46.94395" lon="7.00159">
        <ele>474.9</ele>
        <time>2022-09-30T10:35:31Z</time>
      </trkpt>
      <trkpt lat="46.94396" lon="7.0016">
        <ele>475</ele>
        <time>2022-09-30T10:35:32Z</time>
      </trkpt>
      <trkpt lat="46.94398" lon="7.00162">
        <ele>475.2</ele>
        <time>2022-09-30T10:35:33Z</time>
      </trkpt>
      <trkpt lat="46.94399" lon="7.00163">
        <ele>475.2</ele>
        <time>2022-09-30T10:35:34Z</time>
      </trkpt>
      <trkpt lat="46.944" lon="7.00166">
        <ele>475.3</ele>
        <time>2022-09-30T10:35:35Z</time>
      </trkpt>
      <trkpt lat="46.94401" lon="7.00168">
        <ele>475.4</ele>
        <time>2022-09-30T10:35:36Z</time>
      </trkpt>
      <trkpt lat="46.94402" lon="7.00169">
        <ele>475.6</ele>
        <time>2022-09-30T10:35:37Z</time>
      </trkpt>
      <trkpt lat="46.94403" lon="7.00171">
        <ele>475.7</ele>
        <time>2022-09-30T10:35:38Z</time>
      </trkpt>
      <trkpt lat="46.94404" lon="7.00173">
        <ele>475.8</ele>
        <time>2022-09-30T10:35:39Z</time>
      </trkpt>
      <trkpt lat="46.94406" lon="7.00174">
        <ele>475.9</ele>
        <time>2022-09-30T10:35:40Z</time>
      </trkpt>
      <trkpt lat="46.94408" lon="7.00177">
        <ele>476.1</ele>
        <time>2022-09-30T10:35:41Z</time>
      </trkpt>
      <trkpt lat="46.94409" lon="7.00178">
        <ele>476.2</ele>
        <time>2022-09-30T10:35:42Z</time>
      </trkpt>
      <trkpt lat="46.94411" lon="7.00181">
        <ele>476.4</ele>
        <time>2022-09-30T10:35:43Z</time>
      </trkpt>
      <trkpt lat="46.94412" lon="7.00182">
        <ele>476.5</ele>
        <time>2022-09-30T10:35:44Z</time>
      </trkpt>
      <trkpt lat="46.94414" lon="7.00185">
        <ele>476.7</ele>
        <time>2022-09-30T10:35:45Z</time>
      </trkpt>
      <trkpt lat="46.94414" lon="7.00186">
        <ele>476.7</ele>
        <time>2022-09-30T10:35:46Z</time>
      </trkpt>
      <trkpt lat="46.94415" lon="7.00187">
        <ele>476.8</ele>
        <time>2022-09-30T10:35:47Z</time>
      </trkpt>
      <trkpt lat="46.94416" lon="7.00189">
        <ele>477</ele>
        <time>2022-09-30T10:35:48Z</time>
      </trkpt>
      <trkpt lat="46.94417" lon="7.00191">
        <ele>477</ele>
        <time>2022-09-30T10:35:49Z</time>
      </trkpt>
      <trkpt lat="46.94418" lon="7.00191">
        <ele>477.1</ele>
        <time>2022-09-30T10:35:50Z</time>
      </trkpt>
      <trkpt lat="46.94418" lon="7.00191">
        <ele>477.1</ele>
        <time>2022-09-30T10:35:51Z</time>
      </trkpt>
      <trkpt lat="46.94418" lon="7.00192">
        <ele>477.1</ele>
        <time>2022-09-30T10:35:52Z</time>
      </trkpt>
      <trkpt lat="46.94419" lon="7.00192">
        <ele>477.2</ele>
        <time>2022-09-30T10:35:53Z</time>
      </trkpt>
      <trkpt lat="46.94419" lon="7.00193">
        <ele>477.2</ele>
        <time>2022-09-30T10:35:54Z</time>
      </trkpt>
      <trkpt lat="46.94419" lon="7.00193">
        <ele>477.2</ele>
        <time>2022-09-30T10:35:55Z</time>
      </trkpt>
      <trkpt lat="46.9442" lon="7.00193">
        <ele>477.2</ele>
        <time>2022-09-30T10:35:56Z</time>
      </trkpt>
      <trkpt lat="46.9442" lon="7.00194">
        <ele>477.3</ele>
        <time>2022-09-30T10:35:57Z</time>
      </trkpt>
      <trkpt lat="46.94421" lon="7.00194">
        <ele>477.3</ele>
        <time>2022-09-30T10:35:58Z</time>
      </trkpt>
      <trkpt lat="46.94421" lon="7.00195">
        <ele>477.3</ele>
        <time>2022-09-30T10:35:59Z</time>
      </trkpt>
      <trkpt lat="46.94421" lon="7.00195">
        <ele>477.4</ele>
        <time>2022-09-30T10:36:10Z</time>
      </trkpt>
      <trkpt lat="46.94422" lon="7.00195">
        <ele>477.4</ele>
        <time>2022-09-30T10:36:11Z</time>
      </trkpt>
      <trkpt lat="46.94422" lon="7.00196">
        <ele>477.4</ele>
        <time>2022-09-30T10:36:12Z</time>
      </trkpt>
      <trkpt lat="46.94423" lon="7.00197">
        <ele>477.5</ele>
        <time>2022-09-30T10:36:13Z</time>
      </trkpt>
      <trkpt lat="46.94424" lon="7.00199">
        <ele>477.6</ele>
        <time>2022-09-30T10:36:14Z</time>
      </trkpt>
      <trkpt lat="46.94424" lon="7.002">
        <ele>477.7</ele>
        <time>2022-09-30T10:36:15Z</time>
      </trkpt>
      <trkpt lat="46.94426" lon="7.00202">
        <ele>477.8</ele>
        <time>2022-09-30T10:36:16Z</time>
      </trkpt>
      <trkpt lat="46.94426" lon="7.00202">
        <ele>477.8</ele>
        <time>2022-09-30T10:36:17Z</time>
      </trkpt>
      <trkpt lat="46.94427" lon="7.00204">
        <ele>477.9</ele>
        <time>2022-09-30T10:36:18Z</time>
      </trkpt>
      <trkpt lat="46.94429" lon="7.00206">
        <ele>478</ele>
        <time>2022-09-30T10:36:19Z</time>
      </trkpt>
      <trkpt lat="46.9443" lon="7.00209">
        <ele>478.2</ele>
        <time>2022-09-30T10:36:20Z</time>
      </trkpt>
      <trkpt lat="46.94431" lon="7.0021">
        <ele>478.2</ele>
        <time>2022-09-30T10:36:21Z</time>
      </trkpt>
      <trkpt lat="46.94431" lon="7.00211">
        <ele>478.3</ele>
        <time>2022-09-30T10:36:22Z</time>
      </trkpt>
      <trkpt lat="46.94433" lon="7.00213">
        <ele>478.4</ele>
        <time>2022-09-30T10:36:23Z</time>
      </trkpt>
      <trkpt lat="46.94433" lon="7.00213">
        <ele>478.4</ele>
        <time>2022-09-30T10:36:24Z</time>
      </trkpt>
      <trkpt lat="46.94434" lon="7.00214">
        <ele>478.5</ele>
        <time>2022-09-30T10:36:25Z</time>
      </trkpt>
      <trkpt lat="46.94435" lon="7.00216">
        <ele>478.6</ele>
        <time>2022-09-30T10:36:26Z</time>
      </trkpt>
      <trkpt lat="46.94436" lon="7.00218">
        <ele>478.7</ele>
        <time>2022-09-30T10:36:27Z</time>
      </trkpt>
      <trkpt lat="46.94438" lon="7.00219">
        <ele>478.8</ele>
        <time>2022-09-30T10:36:28Z</time>
      </trkpt>
      <trkpt lat="46.94439" lon="7.0022">
        <ele>478.8</ele>
        <time>2022-09-30T10:36:29Z</time>
      </trkpt>
      <trkpt lat="46.94439" lon="7.00221">
        <ele>478.9</ele>
        <time>2022-09-30T10:36:30Z</time>
      </trkpt>
      <trkpt lat="46.94441" lon="7.00223">
        <ele>479</ele>
        <time>2022-09-30T10:36:31Z</time>
      </trkpt>
      <trkpt lat="46.94442" lon="7.00225">
        <ele>479.1</ele>
        <time>2022-09-30T10:36:32Z</time>
      </trkpt>
      <trkpt lat="46.94443" lon="7.00226">
        <ele>479.2</ele>
        <time>2022-09-30T10:36:33Z</time>
      </trkpt>
      <trkpt lat="46.94444" lon="7.00227">
        <ele>479.2</ele>
        <time>2022-09-30T10:36:34Z</time>
      </trkpt>
      <trkpt lat="46.94445" lon="7.00228">
        <ele>479.3</ele>
        <time>2022-09-30T10:36:35Z</time>
      </trkpt>
      <trkpt lat="46.94446" lon="7.00229">
        <ele>479.4</ele>
        <time>2022-09-30T10:36:36Z</time>
      </trkpt>
      <trkpt lat="46.94448" lon="7.0023">
        <ele>479.5</ele>
        <time>2022-09-30T10:36:37Z</time>
      </trkpt>
      <trkpt lat="46.94449" lon="7.00232">
        <ele>479.6</ele>
        <time>2022-09-30T10:36:38Z</time>
      </trkpt>
      <trkpt lat="46.94449" lon="7.00233">
        <ele>479.6</ele>
        <time>2022-09-30T10:36:39Z</time>
      </trkpt>
      <trkpt lat="46.9445" lon="7.00234">
        <ele>479.7</ele>
        <time>2022-09-30T10:36:40Z</time>
      </trkpt>
      <trkpt lat="46.94451" lon="7.00235">
        <ele>479.7</ele>
        <time>2022-09-30T10:36:41Z</time>
      </trkpt>
      <trkpt lat="46.94452" lon="7.00237">
        <ele>479.8</ele>
        <time>2022-09-30T10:36:42Z</time>
      </trkpt>
      <trkpt lat="46.94453" lon="7.00238">
        <ele>479.9</ele>
        <time>2022-09-30T10:36:43Z</time>
      </trkpt>
      <trkpt lat="46.94454" lon="7.00239">
        <ele>480</ele>
        <time>2022-09-30T10:36:44Z</time>
      </trkpt>
      <trkpt lat="46.94455" lon="7.0024">
        <ele>480</ele>
        <time>2022-09-30T10:36:45Z</time>
      </trkpt>
      <trkpt lat="46.94456" lon="7.00241">
        <ele>480.1</ele>
        <time>2022-09-30T10:36:46Z</time>
      </trkpt>
      <trkpt lat="46.94457" lon="7.00242">
        <ele>480.2</ele>
        <time>2022-09-30T10:36:47Z</time>
      </trkpt>
      <trkpt lat="46.94458" lon="7.00243">
        <ele>480.2</ele>
        <time>2022-09-30T10:36:48Z</time>
      </trkpt>
      <trkpt lat="46.94459" lon="7.00244">
        <ele>480.3</ele>
        <time>2022-09-30T10:36:49Z</time>
      </trkpt>
      <trkpt lat="46.94459" lon="7.00245">
        <ele>480.3</ele>
        <time>2022-09-30T10:36:50Z</time>
      </trkpt>
      <trkpt lat="46.9446" lon="7.00247">
        <ele>480.4</ele>
        <time>2022-09-30T10:36:51Z</time>
      </trkpt>
      <trkpt lat="46.94461" lon="7.00248">
        <ele>480.5</ele>
        <time>2022-09-30T10:36:52Z</time>
      </trkpt>
      <trkpt lat="46.94462" lon="7.00248">
        <ele>480.5</ele>
        <time>2022-09-30T10:36:53Z</time>
      </trkpt>
      <trkpt lat="46.94463" lon="7.00249">
        <ele>480.6</ele>
        <time>2022-09-30T10:36:54Z</time>
      </trkpt>
      <trkpt lat="46.94465" lon="7.0025">
        <ele>480.7</ele>
        <time>2022-09-30T10:36:55Z</time>
      </trkpt>
      <trkpt lat="46.94466" lon="7.00251">
        <ele>480.7</ele>
        <time>2022-09-30T10:36:56Z</time>
      </trkpt>
      <trkpt lat="46.94467" lon="7.00252">
        <ele>480.8</ele>
        <time>2022-09-30T10:36:57Z</time>
      </trkpt>
      <trkpt lat="46.94468" lon="7.00254">
        <ele>480.9</ele>
        <time>2022-09-30T10:36:58Z</time>
      </trkpt>
      <trkpt lat="46.94468" lon="7.00255">
        <ele>480.9</ele>
        <time>2022-09-30T10:36:59Z</time>
      </trkpt>
      <trkpt lat="46.94469" lon="7.00256">
        <ele>481</ele>
        <time>2022-09-30T10:37:00Z</time>
      </trkpt>
      <trkpt lat="46.9447" lon="7.00257">
        <ele>481</ele>
        <time>2022-09-30T10:37:01Z</time>
      </trkpt>
      <trkpt lat="46.94471" lon="7.00258">
        <ele>481.1</ele>
        <time>2022-09-30T10:37:03Z</time>
      </trkpt>
      <trkpt lat="46.94472" lon="7.00259">
        <ele>481.1</ele>
        <time>2022-09-30T10:37:04Z</time>
      </trkpt>
      <trkpt lat="46.94473" lon="7.0026">
        <ele>481.2</ele>
        <time>2022-09-30T10:37:05Z</time>
      </trkpt>
      <trkpt lat="46.94474" lon="7.00261">
        <ele>481.2</ele>
        <time>2022-09-30T10:37:06Z</time>
      </trkpt>
      <trkpt lat="46.94475" lon="7.00262">
        <ele>481.3</ele>
        <time>2022-09-30T10:37:07Z</time>
      </trkpt>
      <trkpt lat="46.94476" lon="7.00263">
        <ele>481.3</ele>
        <time>2022-09-30T10:37:08Z</time>
      </trkpt>
      <trkpt lat="46.94476" lon="7.00264">
        <ele>481.4</ele>
        <time>2022-09-30T10:37:09Z</time>
      </trkpt>
      <trkpt lat="46.94477" lon="7.00265">
        <ele>481.4</ele>
        <time>2022-09-30T10:37:10Z</time>
      </trkpt>
      <trkpt lat="46.94477" lon="7.00265">
        <ele>481.4</ele>
        <time>2022-09-30T10:37:11Z</time>
      </trkpt>
      <trkpt lat="46.94477" lon="7.00266">
        <ele>481.4</ele>
        <time>2022-09-30T10:37:12Z</time>
      </trkpt>
      <trkpt lat="46.94476" lon="7.00266">
        <ele>481.4</ele>
        <time>2022-09-30T10:37:13Z</time>
      </trkpt>
      <trkpt lat="46.94476" lon="7.00265">
        <ele>481.5</ele>
        <time>2022-09-30T10:37:14Z</time>
      </trkpt>
      <trkpt lat="46.94477" lon="7.00266">
        <ele>481.5</ele>
        <time>2022-09-30T10:37:15Z</time>
      </trkpt>
      <trkpt lat="46.94478" lon="7.00266">
        <ele>481.5</ele>
        <time>2022-09-30T10:37:16Z</time>
      </trkpt>
      <trkpt lat="46.94479" lon="7.00267">
        <ele>481.6</ele>
        <time>2022-09-30T10:37:17Z</time>
      </trkpt>
      <trkpt lat="46.9448" lon="7.00268">
        <ele>481.6</ele>
        <time>2022-09-30T10:37:18Z</time>
      </trkpt>
      <trkpt lat="46.9448" lon="7.00269">
        <ele>481.6</ele>
        <time>2022-09-30T10:37:19Z</time>
      </trkpt>
      <trkpt lat="46.94481" lon="7.0027">
        <ele>481.6</ele>
        <time>2022-09-30T10:37:21Z</time>
      </trkpt>
      <trkpt lat="46.94481" lon="7.00271">
        <ele>481.7</ele>
        <time>2022-09-30T10:37:22Z</time>
      </trkpt>
      <trkpt lat="46.94481" lon="7.00272">
        <ele>481.7</ele>
        <time>2022-09-30T10:37:23Z</time>
      </trkpt>
      <trkpt lat="46.94482" lon="7.00273">
        <ele>481.7</ele>
        <time>2022-09-30T10:37:24Z</time>
      </trkpt>
      <trkpt lat="46.94482" lon="7.00274">
        <ele>481.7</ele>
        <time>2022-09-30T10:37:25Z</time>
      </trkpt>
      <trkpt lat="46.94483" lon="7.00275">
        <ele>481.7</ele>
        <time>2022-09-30T10:37:26Z</time>
      </trkpt>
      <trkpt lat="46.94483" lon="7.00275">
        <ele>481.7</ele>
        <time>2022-09-30T10:37:43Z</time>
      </trkpt>
      <trkpt lat="46.94483" lon="7.00276">
        <ele>481.8</ele>
        <time>2022-09-30T10:37:44Z</time>
      </trkpt>
      <trkpt lat="46.94484" lon="7.00277">
        <ele>481.8</ele>
        <time>2022-09-30T10:37:45Z</time>
      </trkpt>
      <trkpt lat="46.94484" lon="7.00278">
        <ele>481.8</ele>
        <time>2022-09-30T10:37:46Z</time>
      </trkpt>
      <trkpt lat="46.94484" lon="7.0028">
        <ele>481.8</ele>
        <time>2022-09-30T10:37:47Z</time>
      </trkpt>
      <trkpt lat="46.94488" lon="7.00284">
        <ele>481.9</ele>
        <time>2022-09-30T10:37:48Z</time>
      </trkpt>
      <trkpt lat="46.94488" lon="7.00286">
        <ele>481.9</ele>
        <time>2022-09-30T10:37:49Z</time>
      </trkpt>
      <trkpt lat="46.9449" lon="7.00289">
        <ele>481.9</ele>
        <time>2022-09-30T10:37:50Z</time>
      </trkpt>
      <trkpt lat="46.94491" lon="7.0029">
        <ele>481.9</ele>
        <time>2022-09-30T10:37:51Z</time>
      </trkpt>
      <trkpt lat="46.94494" lon="7.00293">
        <ele>482</ele>
        <time>2022-09-30T10:37:52Z</time>
      </trkpt>
      <trkpt lat="46.94495" lon="7.00294">
        <ele>482</ele>
        <time>2022-09-30T10:37:53Z</time>
      </trkpt>
      <trkpt lat="46.94497" lon="7.00298">
        <ele>482</ele>
        <time>2022-09-30T10:37:54Z</time>
      </trkpt>
      <trkpt lat="46.94499" lon="7.00302">
        <ele>482</ele>
        <time>2022-09-30T10:37:55Z</time>
      </trkpt>
      <trkpt lat="46.945" lon="7.00304">
        <ele>482</ele>
        <time>2022-09-30T10:37:56Z</time>
      </trkpt>
      <trkpt lat="46.94502" lon="7.00307">
        <ele>482.1</ele>
        <time>2022-09-30T10:37:57Z</time>
      </trkpt>
      <trkpt lat="46.94504" lon="7.0031">
        <ele>482.1</ele>
        <time>2022-09-30T10:37:58Z</time>
      </trkpt>
      <trkpt lat="46.94506" lon="7.00316">
        <ele>482.1</ele>
        <time>2022-09-30T10:37:59Z</time>
      </trkpt>
      <trkpt lat="46.94508" lon="7.00318">
        <ele>482.1</ele>
        <time>2022-09-30T10:38:00Z</time>
      </trkpt>
      <trkpt lat="46.9451" lon="7.00323">
        <ele>482.2</ele>
        <time>2022-09-30T10:38:01Z</time>
      </trkpt>
      <trkpt lat="46.94513" lon="7.00327">
        <ele>482.2</ele>
        <time>2022-09-30T10:38:02Z</time>
      </trkpt>
      <trkpt lat="46.94515" lon="7.0033">
        <ele>482.2</ele>
        <time>2022-09-30T10:38:03Z</time>
      </trkpt>
      <trkpt lat="46.94517" lon="7.00334">
        <ele>482.3</ele>
        <time>2022-09-30T10:38:04Z</time>
      </trkpt>
      <trkpt lat="46.94519" lon="7.00337">
        <ele>482.3</ele>
        <time>2022-09-30T10:38:05Z</time>
      </trkpt>
      <trkpt lat="46.94521" lon="7.00341">
        <ele>482.3</ele>
        <time>2022-09-30T10:38:06Z</time>
      </trkpt>
      <trkpt lat="46.94524" lon="7.00344">
        <ele>482.4</ele>
        <time>2022-09-30T10:38:07Z</time>
      </trkpt>
      <trkpt lat="46.94526" lon="7.00347">
        <ele>482.4</ele>
        <time>2022-09-30T10:38:08Z</time>
      </trkpt>
      <trkpt lat="46.94527" lon="7.00351">
        <ele>482.4</ele>
        <time>2022-09-30T10:38:09Z</time>
      </trkpt>
      <trkpt lat="46.9453" lon="7.00353">
        <ele>482.4</ele>
        <time>2022-09-30T10:38:10Z</time>
      </trkpt>
      <trkpt lat="46.94532" lon="7.00357">
        <ele>482.4</ele>
        <time>2022-09-30T10:38:11Z</time>
      </trkpt>
      <trkpt lat="46.94534" lon="7.0036">
        <ele>482.4</ele>
        <time>2022-09-30T10:38:12Z</time>
      </trkpt>
      <trkpt lat="46.94536" lon="7.00363">
        <ele>482.4</ele>
        <time>2022-09-30T10:38:13Z</time>
      </trkpt>
      <trkpt lat="46.94538" lon="7.00367">
        <ele>482.4</ele>
        <time>2022-09-30T10:38:14Z</time>
      </trkpt>
      <trkpt lat="46.9454" lon="7.0037">
        <ele>482.4</ele>
        <time>2022-09-30T10:38:15Z</time>
      </trkpt>
      <trkpt lat="46.94542" lon="7.00374">
        <ele>482.3</ele>
        <time>2022-09-30T10:38:16Z</time>
      </trkpt>
      <trkpt lat="46.94544" lon="7.00378">
        <ele>482.3</ele>
        <time>2022-09-30T10:38:17Z</time>
      </trkpt>
      <trkpt lat="46.94546" lon="7.00382">
        <ele>482.3</ele>
        <time>2022-09-30T10:38:18Z</time>
      </trkpt>
      <trkpt lat="46.94549" lon="7.00385">
        <ele>482.3</ele>
        <time>2022-09-30T10:38:19Z</time>
      </trkpt>
      <trkpt lat="46.94552" lon="7.00391">
        <ele>482.2</ele>
        <time>2022-09-30T10:38:20Z</time>
      </trkpt>
      <trkpt lat="46.94554" lon="7.00395">
        <ele>482.2</ele>
        <time>2022-09-30T10:38:21Z</time>
      </trkpt>
      <trkpt lat="46.94556" lon="7.00399">
        <ele>482.2</ele>
        <time>2022-09-30T10:38:22Z</time>
      </trkpt>
      <trkpt lat="46.94559" lon="7.00403">
        <ele>482.2</ele>
        <time>2022-09-30T10:38:23Z</time>
      </trkpt>
      <trkpt lat="46.94562" lon="7.00408">
        <ele>482.1</ele>
        <time>2022-09-30T10:38:24Z</time>
      </trkpt>
      <trkpt lat="46.94564" lon="7.00413">
        <ele>482.1</ele>
        <time>2022-09-30T10:38:25Z</time>
      </trkpt>
      <trkpt lat="46.94568" lon="7.00416">
        <ele>482.1</ele>
        <time>2022-09-30T10:38:26Z</time>
      </trkpt>
      <trkpt lat="46.94571" lon="7.00421">
        <ele>482.1</ele>
        <time>2022-09-30T10:38:27Z</time>
      </trkpt>
      <trkpt lat="46.94572" lon="7.00427">
        <ele>482.1</ele>
        <time>2022-09-30T10:38:28Z</time>
      </trkpt>
      <trkpt lat="46.94576" lon="7.00431">
        <ele>482.1</ele>
        <time>2022-09-30T10:38:29Z</time>
      </trkpt>
      <trkpt lat="46.94578" lon="7.00435">
        <ele>482.1</ele>
        <time>2022-09-30T10:38:30Z</time>
      </trkpt>
      <trkpt lat="46.94581" lon="7.00441">
        <ele>482.1</ele>
        <time>2022-09-30T10:38:31Z</time>
      </trkpt>
      <trkpt lat="46.94584" lon="7.00446">
        <ele>482.1</ele>
        <time>2022-09-30T10:38:32Z</time>
      </trkpt>
      <trkpt lat="46.94587" lon="7.0045">
        <ele>482.1</ele>
        <time>2022-09-30T10:38:33Z</time>
      </trkpt>
      <trkpt lat="46.94589" lon="7.00455">
        <ele>482.1</ele>
        <time>2022-09-30T10:38:34Z</time>
      </trkpt>
      <trkpt lat="46.94592" lon="7.00459">
        <ele>482.2</ele>
        <time>2022-09-30T10:38:35Z</time>
      </trkpt>
      <trkpt lat="46.94595" lon="7.00464">
        <ele>482.2</ele>
        <time>2022-09-30T10:38:36Z</time>
      </trkpt>
      <trkpt lat="46.94597" lon="7.00469">
        <ele>482.2</ele>
        <time>2022-09-30T10:38:37Z</time>
      </trkpt>
      <trkpt lat="46.946" lon="7.00474">
        <ele>482.2</ele>
        <time>2022-09-30T10:38:38Z</time>
      </trkpt>
      <trkpt lat="46.94603" lon="7.00479">
        <ele>482.2</ele>
        <time>2022-09-30T10:38:39Z</time>
      </trkpt>
      <trkpt lat="46.94606" lon="7.00484">
        <ele>482.2</ele>
        <time>2022-09-30T10:38:40Z</time>
      </trkpt>
      <trkpt lat="46.94609" lon="7.00489">
        <ele>482.2</ele>
        <time>2022-09-30T10:38:41Z</time>
      </trkpt>
      <trkpt lat="46.94612" lon="7.00494">
        <ele>482.2</ele>
        <time>2022-09-30T10:38:42Z</time>
      </trkpt>
      <trkpt lat="46.94615" lon="7.00499">
        <ele>482.2</ele>
        <time>2022-09-30T10:38:43Z</time>
      </trkpt>
      <trkpt lat="46.94618" lon="7.00504">
        <ele>482.3</ele>
        <time>2022-09-30T10:38:44Z</time>
      </trkpt>
      <trkpt lat="46.94622" lon="7.0051">
        <ele>482.4</ele>
        <time>2022-09-30T10:38:45Z</time>
      </trkpt>
      <trkpt lat="46.94624" lon="7.00515">
        <ele>482.4</ele>
        <time>2022-09-30T10:38:46Z</time>
      </trkpt>
      <trkpt lat="46.94627" lon="7.00519">
        <ele>482.5</ele>
        <time>2022-09-30T10:38:47Z</time>
      </trkpt>
      <trkpt lat="46.9463" lon="7.00525">
        <ele>482.6</ele>
        <time>2022-09-30T10:38:48Z</time>
      </trkpt>
      <trkpt lat="46.94631" lon="7.00529">
        <ele>482.7</ele>
        <time>2022-09-30T10:38:49Z</time>
      </trkpt>
      <trkpt lat="46.94633" lon="7.00533">
        <ele>482.8</ele>
        <time>2022-09-30T10:38:50Z</time>
      </trkpt>
      <trkpt lat="46.94635" lon="7.00539">
        <ele>482.9</ele>
        <time>2022-09-30T10:38:51Z</time>
      </trkpt>
      <trkpt lat="46.94636" lon="7.00543">
        <ele>483</ele>
        <time>2022-09-30T10:38:52Z</time>
      </trkpt>
      <trkpt lat="46.94636" lon="7.00548">
        <ele>483.1</ele>
        <time>2022-09-30T10:38:53Z</time>
      </trkpt>
      <trkpt lat="46.94638" lon="7.00553">
        <ele>483.2</ele>
        <time>2022-09-30T10:38:54Z</time>
      </trkpt>
      <trkpt lat="46.94638" lon="7.00555">
        <ele>483.3</ele>
        <time>2022-09-30T10:38:55Z</time>
      </trkpt>
      <trkpt lat="46.94639" lon="7.00561">
        <ele>483.3</ele>
        <time>2022-09-30T10:38:56Z</time>
      </trkpt>
      <trkpt lat="46.94639" lon="7.00563">
        <ele>483.4</ele>
        <time>2022-09-30T10:38:57Z</time>
      </trkpt>
      <trkpt lat="46.9464" lon="7.00568">
        <ele>483.4</ele>
        <time>2022-09-30T10:38:58Z</time>
      </trkpt>
      <trkpt lat="46.94641" lon="7.00573">
        <ele>483.5</ele>
        <time>2022-09-30T10:38:59Z</time>
      </trkpt>
      <trkpt lat="46.94642" lon="7.00577">
        <ele>483.5</ele>
        <time>2022-09-30T10:39:00Z</time>
      </trkpt>
      <trkpt lat="46.94643" lon="7.00582">
        <ele>483.6</ele>
        <time>2022-09-30T10:39:01Z</time>
      </trkpt>
      <trkpt lat="46.94644" lon="7.00587">
        <ele>483.6</ele>
        <time>2022-09-30T10:39:02Z</time>
      </trkpt>
      <trkpt lat="46.94646" lon="7.00591">
        <ele>483.6</ele>
        <time>2022-09-30T10:39:03Z</time>
      </trkpt>
      <trkpt lat="46.94648" lon="7.00596">
        <ele>483.7</ele>
        <time>2022-09-30T10:39:04Z</time>
      </trkpt>
      <trkpt lat="46.94649" lon="7.006">
        <ele>483.7</ele>
        <time>2022-09-30T10:39:05Z</time>
      </trkpt>
      <trkpt lat="46.94651" lon="7.00605">
        <ele>483.8</ele>
        <time>2022-09-30T10:39:06Z</time>
      </trkpt>
      <trkpt lat="46.94653" lon="7.00609">
        <ele>483.8</ele>
        <time>2022-09-30T10:39:07Z</time>
      </trkpt>
      <trkpt lat="46.94654" lon="7.00612">
        <ele>483.9</ele>
        <time>2022-09-30T10:39:09Z</time>
      </trkpt>
      <trkpt lat="46.94656" lon="7.00617">
        <ele>484</ele>
        <time>2022-09-30T10:39:10Z</time>
      </trkpt>
      <trkpt lat="46.94658" lon="7.00621">
        <ele>484</ele>
        <time>2022-09-30T10:39:11Z</time>
      </trkpt>
      <trkpt lat="46.9466" lon="7.00625">
        <ele>484.1</ele>
        <time>2022-09-30T10:39:12Z</time>
      </trkpt>
      <trkpt lat="46.94661" lon="7.00629">
        <ele>484.2</ele>
        <time>2022-09-30T10:39:13Z</time>
      </trkpt>
      <trkpt lat="46.94663" lon="7.00632">
        <ele>484.2</ele>
        <time>2022-09-30T10:39:14Z</time>
      </trkpt>
      <trkpt lat="46.94664" lon="7.00635">
        <ele>484.3</ele>
        <time>2022-09-30T10:39:15Z</time>
      </trkpt>
      <trkpt lat="46.94666" lon="7.0064">
        <ele>484.3</ele>
        <time>2022-09-30T10:39:16Z</time>
      </trkpt>
      <trkpt lat="46.94668" lon="7.00644">
        <ele>484.4</ele>
        <time>2022-09-30T10:39:17Z</time>
      </trkpt>
      <trkpt lat="46.94669" lon="7.00648">
        <ele>484.4</ele>
        <time>2022-09-30T10:39:18Z</time>
      </trkpt>
      <trkpt lat="46.94671" lon="7.00653">
        <ele>484.5</ele>
        <time>2022-09-30T10:39:19Z</time>
      </trkpt>
      <trkpt lat="46.94672" lon="7.00655">
        <ele>484.5</ele>
        <time>2022-09-30T10:39:20Z</time>
      </trkpt>
      <trkpt lat="46.94674" lon="7.00659">
        <ele>484.5</ele>
        <time>2022-09-30T10:39:21Z</time>
      </trkpt>
      <trkpt lat="46.94678" lon="7.00666">
        <ele>484.6</ele>
        <time>2022-09-30T10:39:22Z</time>
      </trkpt>
      <trkpt lat="46.94679" lon="7.0067">
        <ele>484.6</ele>
        <time>2022-09-30T10:39:23Z</time>
      </trkpt>
      <trkpt lat="46.94682" lon="7.00677">
        <ele>484.6</ele>
        <time>2022-09-30T10:39:25Z</time>
      </trkpt>
      <trkpt lat="46.94684" lon="7.00681">
        <ele>484.6</ele>
        <time>2022-09-30T10:39:26Z</time>
      </trkpt>
      <trkpt lat="46.94686" lon="7.00684">
        <ele>484.6</ele>
        <time>2022-09-30T10:39:27Z</time>
      </trkpt>
      <trkpt lat="46.94688" lon="7.00688">
        <ele>484.6</ele>
        <time>2022-09-30T10:39:28Z</time>
      </trkpt>
      <trkpt lat="46.9469" lon="7.00691">
        <ele>484.6</ele>
        <time>2022-09-30T10:39:29Z</time>
      </trkpt>
      <trkpt lat="46.94692" lon="7.00696">
        <ele>484.5</ele>
        <time>2022-09-30T10:39:30Z</time>
      </trkpt>
      <trkpt lat="46.94693" lon="7.007">
        <ele>484.5</ele>
        <time>2022-09-30T10:39:31Z</time>
      </trkpt>
      <trkpt lat="46.94695" lon="7.00705">
        <ele>484.5</ele>
        <time>2022-09-30T10:39:32Z</time>
      </trkpt>
      <trkpt lat="46.94698" lon="7.0071">
        <ele>484.4</ele>
        <time>2022-09-30T10:39:33Z</time>
      </trkpt>
      <trkpt lat="46.94699" lon="7.00713">
        <ele>484.3</ele>
        <time>2022-09-30T10:39:34Z</time>
      </trkpt>
      <trkpt lat="46.94701" lon="7.00718">
        <ele>484.3</ele>
        <time>2022-09-30T10:39:35Z</time>
      </trkpt>
      <trkpt lat="46.94703" lon="7.00722">
        <ele>484.2</ele>
        <time>2022-09-30T10:39:36Z</time>
      </trkpt>
      <trkpt lat="46.94704" lon="7.00726">
        <ele>484.2</ele>
        <time>2022-09-30T10:39:37Z</time>
      </trkpt>
      <trkpt lat="46.94706" lon="7.0073">
        <ele>484.1</ele>
        <time>2022-09-30T10:39:38Z</time>
      </trkpt>
      <trkpt lat="46.94708" lon="7.00733">
        <ele>484.1</ele>
        <time>2022-09-30T10:39:39Z</time>
      </trkpt>
      <trkpt lat="46.94707" lon="7.00733">
        <ele>484</ele>
        <time>2022-09-30T10:39:40Z</time>
      </trkpt>
      <trkpt lat="46.94706" lon="7.00731">
        <ele>484</ele>
        <time>2022-09-30T10:39:41Z</time>
      </trkpt>
      <trkpt lat="46.94706" lon="7.00731">
        <ele>484</ele>
        <time>2022-09-30T10:39:42Z</time>
      </trkpt>
      <trkpt lat="46.94706" lon="7.00728">
        <ele>484</ele>
        <time>2022-09-30T10:39:43Z</time>
      </trkpt>
      <trkpt lat="46.94706" lon="7.00728">
        <ele>484</ele>
        <time>2022-09-30T10:39:44Z</time>
      </trkpt>
      <trkpt lat="46.94707" lon="7.00728">
        <ele>484</ele>
        <time>2022-09-30T10:39:45Z</time>
      </trkpt>
      <trkpt lat="46.94707" lon="7.00727">
        <ele>483.9</ele>
        <time>2022-09-30T10:39:46Z</time>
      </trkpt>
      <trkpt lat="46.94707" lon="7.00727">
        <ele>483.9</ele>
        <time>2022-09-30T10:39:47Z</time>
      </trkpt>
      <trkpt lat="46.94707" lon="7.00727">
        <ele>483.9</ele>
        <time>2022-09-30T10:39:48Z</time>
      </trkpt>
      <trkpt lat="46.94708" lon="7.00727">
        <ele>483.9</ele>
        <time>2022-09-30T10:39:49Z</time>
      </trkpt>
      <trkpt lat="46.94708" lon="7.00728">
        <ele>483.9</ele>
        <time>2022-09-30T10:39:50Z</time>
      </trkpt>
      <trkpt lat="46.94708" lon="7.00729">
        <ele>483.9</ele>
        <time>2022-09-30T10:39:57Z</time>
      </trkpt>
      <trkpt lat="46.94708" lon="7.00731">
        <ele>483.9</ele>
        <time>2022-09-30T10:39:58Z</time>
      </trkpt>
      <trkpt lat="46.94709" lon="7.00732">
        <ele>483.8</ele>
        <time>2022-09-30T10:39:59Z</time>
      </trkpt>
      <trkpt lat="46.94709" lon="7.00734">
        <ele>483.8</ele>
        <time>2022-09-30T10:40:00Z</time>
      </trkpt>
      <trkpt lat="46.94709" lon="7.00735">
        <ele>483.8</ele>
        <time>2022-09-30T10:40:01Z</time>
      </trkpt>
      <trkpt lat="46.9471" lon="7.00739">
        <ele>483.8</ele>
        <time>2022-09-30T10:40:02Z</time>
      </trkpt>
      <trkpt lat="46.9471" lon="7.00741">
        <ele>483.7</ele>
        <time>2022-09-30T10:40:03Z</time>
      </trkpt>
      <trkpt lat="46.94712" lon="7.00745">
        <ele>483.7</ele>
        <time>2022-09-30T10:40:04Z</time>
      </trkpt>
      <trkpt lat="46.94712" lon="7.00747">
        <ele>483.6</ele>
        <time>2022-09-30T10:40:05Z</time>
      </trkpt>
      <trkpt lat="46.94714" lon="7.0075">
        <ele>483.6</ele>
        <time>2022-09-30T10:40:06Z</time>
      </trkpt>
      <trkpt lat="46.94716" lon="7.00754">
        <ele>483.5</ele>
        <time>2022-09-30T10:40:07Z</time>
      </trkpt>
      <trkpt lat="46.94716" lon="7.00754">
        <ele>483.5</ele>
        <time>2022-09-30T10:40:08Z</time>
      </trkpt>
      <trkpt lat="46.94718" lon="7.00759">
        <ele>483.4</ele>
        <time>2022-09-30T10:40:09Z</time>
      </trkpt>
      <trkpt lat="46.94719" lon="7.00761">
        <ele>483.4</ele>
        <time>2022-09-30T10:40:10Z</time>
      </trkpt>
      <trkpt lat="46.94722" lon="7.00765">
        <ele>483.3</ele>
        <time>2022-09-30T10:40:11Z</time>
      </trkpt>
      <trkpt lat="46.94722" lon="7.00767">
        <ele>483.3</ele>
        <time>2022-09-30T10:40:12Z</time>
      </trkpt>
      <trkpt lat="46.94724" lon="7.00772">
        <ele>483.2</ele>
        <time>2022-09-30T10:40:13Z</time>
      </trkpt>
      <trkpt lat="46.94725" lon="7.00774">
        <ele>483.2</ele>
        <time>2022-09-30T10:40:14Z</time>
      </trkpt>
      <trkpt lat="46.94727" lon="7.00778">
        <ele>483.1</ele>
        <time>2022-09-30T10:40:15Z</time>
      </trkpt>
      <trkpt lat="46.94729" lon="7.00783">
        <ele>483</ele>
        <time>2022-09-30T10:40:16Z</time>
      </trkpt>
      <trkpt lat="46.94729" lon="7.00785">
        <ele>482.9</ele>
        <time>2022-09-30T10:40:17Z</time>
      </trkpt>
      <trkpt lat="46.9473" lon="7.00789">
        <ele>482.8</ele>
        <time>2022-09-30T10:40:18Z</time>
      </trkpt>
      <trkpt lat="46.94733" lon="7.00794">
        <ele>482.7</ele>
        <time>2022-09-30T10:40:19Z</time>
      </trkpt>
      <trkpt lat="46.94734" lon="7.00795">
        <ele>482.7</ele>
        <time>2022-09-30T10:40:20Z</time>
      </trkpt>
      <trkpt lat="46.94735" lon="7.00801">
        <ele>482.6</ele>
        <time>2022-09-30T10:40:21Z</time>
      </trkpt>
      <trkpt lat="46.94736" lon="7.00803">
        <ele>482.5</ele>
        <time>2022-09-30T10:40:22Z</time>
      </trkpt>
      <trkpt lat="46.94737" lon="7.00806">
        <ele>482.4</ele>
        <time>2022-09-30T10:40:23Z</time>
      </trkpt>
      <trkpt lat="46.9474" lon="7.0081">
        <ele>482.4</ele>
        <time>2022-09-30T10:40:24Z</time>
      </trkpt>
      <trkpt lat="46.94741" lon="7.00814">
        <ele>482.3</ele>
        <time>2022-09-30T10:40:25Z</time>
      </trkpt>
      <trkpt lat="46.94743" lon="7.00818">
        <ele>482.2</ele>
        <time>2022-09-30T10:40:26Z</time>
      </trkpt>
      <trkpt lat="46.94745" lon="7.00823">
        <ele>482.1</ele>
        <time>2022-09-30T10:40:27Z</time>
      </trkpt>
      <trkpt lat="46.94747" lon="7.00827">
        <ele>482.1</ele>
        <time>2022-09-30T10:40:28Z</time>
      </trkpt>
      <trkpt lat="46.94749" lon="7.00832">
        <ele>482</ele>
        <time>2022-09-30T10:40:29Z</time>
      </trkpt>
      <trkpt lat="46.94751" lon="7.00836">
        <ele>481.9</ele>
        <time>2022-09-30T10:40:30Z</time>
      </trkpt>
      <trkpt lat="46.94752" lon="7.00841">
        <ele>481.8</ele>
        <time>2022-09-30T10:40:31Z</time>
      </trkpt>
      <trkpt lat="46.94755" lon="7.00846">
        <ele>481.7</ele>
        <time>2022-09-30T10:40:32Z</time>
      </trkpt>
      <trkpt lat="46.94757" lon="7.00851">
        <ele>481.6</ele>
        <time>2022-09-30T10:40:33Z</time>
      </trkpt>
      <trkpt lat="46.94759" lon="7.00856">
        <ele>481.5</ele>
        <time>2022-09-30T10:40:34Z</time>
      </trkpt>
      <trkpt lat="46.94761" lon="7.00862">
        <ele>481.4</ele>
        <time>2022-09-30T10:40:35Z</time>
      </trkpt>
      <trkpt lat="46.94763" lon="7.00867">
        <ele>481.3</ele>
        <time>2022-09-30T10:40:36Z</time>
      </trkpt>
      <trkpt lat="46.94765" lon="7.00872">
        <ele>481.2</ele>
        <time>2022-09-30T10:40:37Z</time>
      </trkpt>
      <trkpt lat="46.94767" lon="7.00877">
        <ele>481.1</ele>
        <time>2022-09-30T10:40:38Z</time>
      </trkpt>
      <trkpt lat="46.94769" lon="7.00882">
        <ele>481</ele>
        <time>2022-09-30T10:40:39Z</time>
      </trkpt>
      <trkpt lat="46.94771" lon="7.00887">
        <ele>480.9</ele>
        <time>2022-09-30T10:40:40Z</time>
      </trkpt>
      <trkpt lat="46.94773" lon="7.00891">
        <ele>480.8</ele>
        <time>2022-09-30T10:40:41Z</time>
      </trkpt>
      <trkpt lat="46.94774" lon="7.00895">
        <ele>480.7</ele>
        <time>2022-09-30T10:40:42Z</time>
      </trkpt>
      <trkpt lat="46.94776" lon="7.009">
        <ele>480.7</ele>
        <time>2022-09-30T10:40:43Z</time>
      </trkpt>
      <trkpt lat="46.94777" lon="7.00904">
        <ele>480.6</ele>
        <time>2022-09-30T10:40:44Z</time>
      </trkpt>
      <trkpt lat="46.94779" lon="7.00909">
        <ele>480.5</ele>
        <time>2022-09-30T10:40:45Z</time>
      </trkpt>
      <trkpt lat="46.94782" lon="7.00913">
        <ele>480.4</ele>
        <time>2022-09-30T10:40:46Z</time>
      </trkpt>
      <trkpt lat="46.94784" lon="7.00917">
        <ele>480.3</ele>
        <time>2022-09-30T10:40:47Z</time>
      </trkpt>
      <trkpt lat="46.94786" lon="7.00922">
        <ele>480.2</ele>
        <time>2022-09-30T10:40:48Z</time>
      </trkpt>
      <trkpt lat="46.94788" lon="7.00926">
        <ele>480.1</ele>
        <time>2022-09-30T10:40:49Z</time>
      </trkpt>
      <trkpt lat="46.9479" lon="7.00932">
        <ele>480</ele>
        <time>2022-09-30T10:40:50Z</time>
      </trkpt>
      <trkpt lat="46.94792" lon="7.00936">
        <ele>479.9</ele>
        <time>2022-09-30T10:40:51Z</time>
      </trkpt>
      <trkpt lat="46.94794" lon="7.00942">
        <ele>479.8</ele>
        <time>2022-09-30T10:40:52Z</time>
      </trkpt>
      <trkpt lat="46.94795" lon="7.00946">
        <ele>479.7</ele>
        <time>2022-09-30T10:40:53Z</time>
      </trkpt>
      <trkpt lat="46.94797" lon="7.00951">
        <ele>479.6</ele>
        <time>2022-09-30T10:40:54Z</time>
      </trkpt>
      <trkpt lat="46.94798" lon="7.00956">
        <ele>479.5</ele>
        <time>2022-09-30T10:40:55Z</time>
      </trkpt>
      <trkpt lat="46.948" lon="7.0096">
        <ele>479.4</ele>
        <time>2022-09-30T10:40:56Z</time>
      </trkpt>
      <trkpt lat="46.94801" lon="7.00963">
        <ele>479.3</ele>
        <time>2022-09-30T10:40:57Z</time>
      </trkpt>
      <trkpt lat="46.94801" lon="7.00963">
        <ele>479.3</ele>
        <time>2022-09-30T10:40:58Z</time>
      </trkpt>
      <trkpt lat="46.94802" lon="7.00964">
        <ele>479.3</ele>
        <time>2022-09-30T10:40:59Z</time>
      </trkpt>
      <trkpt lat="46.94802" lon="7.00964">
        <ele>479.3</ele>
        <time>2022-09-30T10:41:00Z</time>
      </trkpt>
      <trkpt lat="46.94802" lon="7.00965">
        <ele>479.3</ele>
        <time>2022-09-30T10:41:01Z</time>
      </trkpt>
      <trkpt lat="46.94803" lon="7.00965">
        <ele>479.2</ele>
        <time>2022-09-30T10:41:02Z</time>
      </trkpt>
      <trkpt lat="46.94803" lon="7.00966">
        <ele>479.2</ele>
        <time>2022-09-30T10:41:03Z</time>
      </trkpt>
      <trkpt lat="46.94803" lon="7.00966">
        <ele>479.2</ele>
        <time>2022-09-30T10:41:04Z</time>
      </trkpt>
      <trkpt lat="46.94804" lon="7.00967">
        <ele>479.2</ele>
        <time>2022-09-30T10:41:05Z</time>
      </trkpt>
      <trkpt lat="46.94804" lon="7.00967">
        <ele>479.2</ele>
        <time>2022-09-30T10:41:06Z</time>
      </trkpt>
      <trkpt lat="46.94804" lon="7.00968">
        <ele>479.2</ele>
        <time>2022-09-30T10:41:07Z</time>
      </trkpt>
      <trkpt lat="46.94805" lon="7.00968">
        <ele>479.1</ele>
        <time>2022-09-30T10:41:08Z</time>
      </trkpt>
      <trkpt lat="46.94805" lon="7.00969">
        <ele>479.1</ele>
        <time>2022-09-30T10:41:24Z</time>
      </trkpt>
      <trkpt lat="46.94805" lon="7.00969">
        <ele>479.1</ele>
        <time>2022-09-30T10:41:25Z</time>
      </trkpt>
      <trkpt lat="46.94805" lon="7.0097">
        <ele>479.1</ele>
        <time>2022-09-30T10:41:26Z</time>
      </trkpt>
      <trkpt lat="46.94807" lon="7.00974">
        <ele>479</ele>
        <time>2022-09-30T10:41:27Z</time>
      </trkpt>
      <trkpt lat="46.94811" lon="7.00983">
        <ele>478.7</ele>
        <time>2022-09-30T10:41:28Z</time>
      </trkpt>
      <trkpt lat="46.94812" lon="7.00988">
        <ele>478.6</ele>
        <time>2022-09-30T10:41:29Z</time>
      </trkpt>
      <trkpt lat="46.94814" lon="7.00994">
        <ele>478.4</ele>
        <time>2022-09-30T10:41:30Z</time>
      </trkpt>
      <trkpt lat="46.94816" lon="7.01001">
        <ele>478.2</ele>
        <time>2022-09-30T10:41:31Z</time>
      </trkpt>
      <trkpt lat="46.94818" lon="7.01007">
        <ele>478</ele>
        <time>2022-09-30T10:41:33Z</time>
      </trkpt>
      <trkpt lat="46.9482" lon="7.01014">
        <ele>477.8</ele>
        <time>2022-09-30T10:41:34Z</time>
      </trkpt>
      <trkpt lat="46.94822" lon="7.01021">
        <ele>477.6</ele>
        <time>2022-09-30T10:41:35Z</time>
      </trkpt>
      <trkpt lat="46.94823" lon="7.01028">
        <ele>477.4</ele>
        <time>2022-09-30T10:41:36Z</time>
      </trkpt>
      <trkpt lat="46.94825" lon="7.01036">
        <ele>477.2</ele>
        <time>2022-09-30T10:41:37Z</time>
      </trkpt>
      <trkpt lat="46.94827" lon="7.01044">
        <ele>476.9</ele>
        <time>2022-09-30T10:41:38Z</time>
      </trkpt>
      <trkpt lat="46.94829" lon="7.01052">
        <ele>476.6</ele>
        <time>2022-09-30T10:41:39Z</time>
      </trkpt>
      <trkpt lat="46.94831" lon="7.0106">
        <ele>476.4</ele>
        <time>2022-09-30T10:41:40Z</time>
      </trkpt>
      <trkpt lat="46.94833" lon="7.01068">
        <ele>476.2</ele>
        <time>2022-09-30T10:41:41Z</time>
      </trkpt>
      <trkpt lat="46.94836" lon="7.01076">
        <ele>475.9</ele>
        <time>2022-09-30T10:41:42Z</time>
      </trkpt>
      <trkpt lat="46.94838" lon="7.01084">
        <ele>475.7</ele>
        <time>2022-09-30T10:41:43Z</time>
      </trkpt>
      <trkpt lat="46.9484" lon="7.01093">
        <ele>475.4</ele>
        <time>2022-09-30T10:41:44Z</time>
      </trkpt>
      <trkpt lat="46.94842" lon="7.01102">
        <ele>475.1</ele>
        <time>2022-09-30T10:41:45Z</time>
      </trkpt>
      <trkpt lat="46.94845" lon="7.01111">
        <ele>474.8</ele>
        <time>2022-09-30T10:41:46Z</time>
      </trkpt>
      <trkpt lat="46.94847" lon="7.0112">
        <ele>474.6</ele>
        <time>2022-09-30T10:41:47Z</time>
      </trkpt>
      <trkpt lat="46.9485" lon="7.01129">
        <ele>474.3</ele>
        <time>2022-09-30T10:41:48Z</time>
      </trkpt>
      <trkpt lat="46.94852" lon="7.01137">
        <ele>474.1</ele>
        <time>2022-09-30T10:41:49Z</time>
      </trkpt>
      <trkpt lat="46.94854" lon="7.01147">
        <ele>473.8</ele>
        <time>2022-09-30T10:41:50Z</time>
      </trkpt>
      <trkpt lat="46.94856" lon="7.01155">
        <ele>473.5</ele>
        <time>2022-09-30T10:41:51Z</time>
      </trkpt>
      <trkpt lat="46.94859" lon="7.01163">
        <ele>473.3</ele>
        <time>2022-09-30T10:41:52Z</time>
      </trkpt>
      <trkpt lat="46.94862" lon="7.01173">
        <ele>473</ele>
        <time>2022-09-30T10:41:53Z</time>
      </trkpt>
      <trkpt lat="46.94864" lon="7.01183">
        <ele>472.8</ele>
        <time>2022-09-30T10:41:54Z</time>
      </trkpt>
      <trkpt lat="46.94866" lon="7.01192">
        <ele>472.5</ele>
        <time>2022-09-30T10:41:55Z</time>
      </trkpt>
      <trkpt lat="46.94869" lon="7.01201">
        <ele>472.2</ele>
        <time>2022-09-30T10:41:56Z</time>
      </trkpt>
      <trkpt lat="46.94874" lon="7.01219">
        <ele>471.7</ele>
        <time>2022-09-30T10:41:57Z</time>
      </trkpt>
      <trkpt lat="46.94876" lon="7.01228">
        <ele>471.4</ele>
        <time>2022-09-30T10:41:58Z</time>
      </trkpt>
      <trkpt lat="46.94879" lon="7.01237">
        <ele>471.2</ele>
        <time>2022-09-30T10:41:59Z</time>
      </trkpt>
      <trkpt lat="46.94882" lon="7.01247">
        <ele>470.9</ele>
        <time>2022-09-30T10:42:00Z</time>
      </trkpt>
      <trkpt lat="46.94884" lon="7.01256">
        <ele>470.7</ele>
        <time>2022-09-30T10:42:01Z</time>
      </trkpt>
      <trkpt lat="46.94887" lon="7.01265">
        <ele>470.5</ele>
        <time>2022-09-30T10:42:02Z</time>
      </trkpt>
      <trkpt lat="46.94889" lon="7.01275">
        <ele>470.3</ele>
        <time>2022-09-30T10:42:03Z</time>
      </trkpt>
      <trkpt lat="46.94891" lon="7.01284">
        <ele>470.1</ele>
        <time>2022-09-30T10:42:04Z</time>
      </trkpt>
      <trkpt lat="46.94893" lon="7.01294">
        <ele>469.8</ele>
        <time>2022-09-30T10:42:05Z</time>
      </trkpt>
      <trkpt lat="46.94896" lon="7.01302">
        <ele>469.6</ele>
        <time>2022-09-30T10:42:06Z</time>
      </trkpt>
      <trkpt lat="46.94899" lon="7.0131">
        <ele>469.4</ele>
        <time>2022-09-30T10:42:07Z</time>
      </trkpt>
      <trkpt lat="46.94901" lon="7.01319">
        <ele>469.1</ele>
        <time>2022-09-30T10:42:08Z</time>
      </trkpt>
      <trkpt lat="46.94904" lon="7.01327">
        <ele>468.8</ele>
        <time>2022-09-30T10:42:09Z</time>
      </trkpt>
      <trkpt lat="46.94906" lon="7.01336">
        <ele>468.6</ele>
        <time>2022-09-30T10:42:10Z</time>
      </trkpt>
      <trkpt lat="46.94908" lon="7.01345">
        <ele>468.3</ele>
        <time>2022-09-30T10:42:11Z</time>
      </trkpt>
      <trkpt lat="46.9491" lon="7.01354">
        <ele>468</ele>
        <time>2022-09-30T10:42:12Z</time>
      </trkpt>
      <trkpt lat="46.94912" lon="7.01363">
        <ele>467.7</ele>
        <time>2022-09-30T10:42:13Z</time>
      </trkpt>
      <trkpt lat="46.94915" lon="7.01371">
        <ele>467.4</ele>
        <time>2022-09-30T10:42:14Z</time>
      </trkpt>
      <trkpt lat="46.94918" lon="7.0138">
        <ele>467.1</ele>
        <time>2022-09-30T10:42:15Z</time>
      </trkpt>
      <trkpt lat="46.9492" lon="7.01389">
        <ele>466.8</ele>
        <time>2022-09-30T10:42:16Z</time>
      </trkpt>
      <trkpt lat="46.94922" lon="7.01398">
        <ele>466.5</ele>
        <time>2022-09-30T10:42:17Z</time>
      </trkpt>
      <trkpt lat="46.94924" lon="7.01408">
        <ele>466.1</ele>
        <time>2022-09-30T10:42:18Z</time>
      </trkpt>
      <trkpt lat="46.94927" lon="7.01417">
        <ele>465.8</ele>
        <time>2022-09-30T10:42:19Z</time>
      </trkpt>
      <trkpt lat="46.94929" lon="7.01424">
        <ele>465.5</ele>
        <time>2022-09-30T10:42:20Z</time>
      </trkpt>
      <trkpt lat="46.94932" lon="7.01433">
        <ele>465.2</ele>
        <time>2022-09-30T10:42:21Z</time>
      </trkpt>
      <trkpt lat="46.94934" lon="7.01443">
        <ele>464.9</ele>
        <time>2022-09-30T10:42:22Z</time>
      </trkpt>
      <trkpt lat="46.94937" lon="7.01452">
        <ele>464.7</ele>
        <time>2022-09-30T10:42:23Z</time>
      </trkpt>
      <trkpt lat="46.94939" lon="7.01462">
        <ele>464.4</ele>
        <time>2022-09-30T10:42:24Z</time>
      </trkpt>
      <trkpt lat="46.94941" lon="7.0147">
        <ele>464.2</ele>
        <time>2022-09-30T10:42:25Z</time>
      </trkpt>
      <trkpt lat="46.94943" lon="7.0148">
        <ele>464</ele>
        <time>2022-09-30T10:42:26Z</time>
      </trkpt>
      <trkpt lat="46.94944" lon="7.01488">
        <ele>463.8</ele>
        <time>2022-09-30T10:42:27Z</time>
      </trkpt>
      <trkpt lat="46.94948" lon="7.01496">
        <ele>463.6</ele>
        <time>2022-09-30T10:42:28Z</time>
      </trkpt>
      <trkpt lat="46.94951" lon="7.01505">
        <ele>463.4</ele>
        <time>2022-09-30T10:42:29Z</time>
      </trkpt>
      <trkpt lat="46.94954" lon="7.01514">
        <ele>463.2</ele>
        <time>2022-09-30T10:42:30Z</time>
      </trkpt>
      <trkpt lat="46.94957" lon="7.01523">
        <ele>463</ele>
        <time>2022-09-30T10:42:31Z</time>
      </trkpt>
      <trkpt lat="46.9496" lon="7.01531">
        <ele>462.8</ele>
        <time>2022-09-30T10:42:32Z</time>
      </trkpt>
      <trkpt lat="46.94962" lon="7.01539">
        <ele>462.7</ele>
        <time>2022-09-30T10:42:33Z</time>
      </trkpt>
      <trkpt lat="46.94965" lon="7.01545">
        <ele>462.5</ele>
        <time>2022-09-30T10:42:34Z</time>
      </trkpt>
      <trkpt lat="46.94966" lon="7.01552">
        <ele>462.4</ele>
        <time>2022-09-30T10:42:35Z</time>
      </trkpt>
      <trkpt lat="46.94969" lon="7.01557">
        <ele>462.3</ele>
        <time>2022-09-30T10:42:36Z</time>
      </trkpt>
      <trkpt lat="46.94971" lon="7.01563">
        <ele>462.2</ele>
        <time>2022-09-30T10:42:37Z</time>
      </trkpt>
      <trkpt lat="46.94973" lon="7.01568">
        <ele>462.1</ele>
        <time>2022-09-30T10:42:38Z</time>
      </trkpt>
      <trkpt lat="46.94977" lon="7.01574">
        <ele>461.9</ele>
        <time>2022-09-30T10:42:39Z</time>
      </trkpt>
      <trkpt lat="46.9498" lon="7.01583">
        <ele>461.8</ele>
        <time>2022-09-30T10:42:40Z</time>
      </trkpt>
      <trkpt lat="46.94983" lon="7.01588">
        <ele>461.6</ele>
        <time>2022-09-30T10:42:41Z</time>
      </trkpt>
      <trkpt lat="46.94985" lon="7.01595">
        <ele>461.5</ele>
        <time>2022-09-30T10:42:42Z</time>
      </trkpt>
      <trkpt lat="46.94988" lon="7.01603">
        <ele>461.3</ele>
        <time>2022-09-30T10:42:43Z</time>
      </trkpt>
      <trkpt lat="46.94991" lon="7.0161">
        <ele>461.2</ele>
        <time>2022-09-30T10:42:44Z</time>
      </trkpt>
      <trkpt lat="46.94995" lon="7.01617">
        <ele>461</ele>
        <time>2022-09-30T10:42:45Z</time>
      </trkpt>
      <trkpt lat="46.94998" lon="7.01624">
        <ele>460.9</ele>
        <time>2022-09-30T10:42:46Z</time>
      </trkpt>
      <trkpt lat="46.95001" lon="7.01632">
        <ele>460.7</ele>
        <time>2022-09-30T10:42:47Z</time>
      </trkpt>
      <trkpt lat="46.95005" lon="7.01639">
        <ele>460.5</ele>
        <time>2022-09-30T10:42:48Z</time>
      </trkpt>
      <trkpt lat="46.95008" lon="7.01646">
        <ele>460.4</ele>
        <time>2022-09-30T10:42:49Z</time>
      </trkpt>
      <trkpt lat="46.95011" lon="7.01653">
        <ele>460.2</ele>
        <time>2022-09-30T10:42:50Z</time>
      </trkpt>
      <trkpt lat="46.95014" lon="7.0166">
        <ele>460.1</ele>
        <time>2022-09-30T10:42:51Z</time>
      </trkpt>
      <trkpt lat="46.95017" lon="7.01667">
        <ele>459.9</ele>
        <time>2022-09-30T10:42:52Z</time>
      </trkpt>
      <trkpt lat="46.9502" lon="7.01675">
        <ele>459.7</ele>
        <time>2022-09-30T10:42:53Z</time>
      </trkpt>
      <trkpt lat="46.95023" lon="7.01683">
        <ele>459.6</ele>
        <time>2022-09-30T10:42:54Z</time>
      </trkpt>
      <trkpt lat="46.95026" lon="7.01691">
        <ele>459.3</ele>
        <time>2022-09-30T10:42:55Z</time>
      </trkpt>
      <trkpt lat="46.95029" lon="7.01699">
        <ele>459.1</ele>
        <time>2022-09-30T10:42:56Z</time>
      </trkpt>
      <trkpt lat="46.95032" lon="7.01707">
        <ele>458.9</ele>
        <time>2022-09-30T10:42:57Z</time>
      </trkpt>
      <trkpt lat="46.95035" lon="7.01714">
        <ele>458.6</ele>
        <time>2022-09-30T10:42:58Z</time>
      </trkpt>
      <trkpt lat="46.95038" lon="7.01722">
        <ele>458.4</ele>
        <time>2022-09-30T10:42:59Z</time>
      </trkpt>
      <trkpt lat="46.95041" lon="7.01728">
        <ele>458.2</ele>
        <time>2022-09-30T10:43:00Z</time>
      </trkpt>
      <trkpt lat="46.95044" lon="7.01735">
        <ele>457.9</ele>
        <time>2022-09-30T10:43:01Z</time>
      </trkpt>
      <trkpt lat="46.95046" lon="7.01742">
        <ele>457.6</ele>
        <time>2022-09-30T10:43:02Z</time>
      </trkpt>
      <trkpt lat="46.95049" lon="7.01748">
        <ele>457.3</ele>
        <time>2022-09-30T10:43:03Z</time>
      </trkpt>
      <trkpt lat="46.95051" lon="7.01756">
        <ele>457</ele>
        <time>2022-09-30T10:43:04Z</time>
      </trkpt>
      <trkpt lat="46.95054" lon="7.01763">
        <ele>456.7</ele>
        <time>2022-09-30T10:43:05Z</time>
      </trkpt>
      <trkpt lat="46.95057" lon="7.01769">
        <ele>456.3</ele>
        <time>2022-09-30T10:43:06Z</time>
      </trkpt>
      <trkpt lat="46.95059" lon="7.01776">
        <ele>456</ele>
        <time>2022-09-30T10:43:07Z</time>
      </trkpt>
      <trkpt lat="46.95062" lon="7.01784">
        <ele>455.6</ele>
        <time>2022-09-30T10:43:08Z</time>
      </trkpt>
      <trkpt lat="46.95064" lon="7.01789">
        <ele>455.3</ele>
        <time>2022-09-30T10:43:09Z</time>
      </trkpt>
      <trkpt lat="46.95066" lon="7.01796">
        <ele>454.9</ele>
        <time>2022-09-30T10:43:10Z</time>
      </trkpt>
      <trkpt lat="46.95068" lon="7.018">
        <ele>454.7</ele>
        <time>2022-09-30T10:43:11Z</time>
      </trkpt>
      <trkpt lat="46.9507" lon="7.01805">
        <ele>454.4</ele>
        <time>2022-09-30T10:43:12Z</time>
      </trkpt>
      <trkpt lat="46.95072" lon="7.0181">
        <ele>454.1</ele>
        <time>2022-09-30T10:43:13Z</time>
      </trkpt>
      <trkpt lat="46.95074" lon="7.01815">
        <ele>453.7</ele>
        <time>2022-09-30T10:43:14Z</time>
      </trkpt>
      <trkpt lat="46.95077" lon="7.01819">
        <ele>453.4</ele>
        <time>2022-09-30T10:43:15Z</time>
      </trkpt>
      <trkpt lat="46.95078" lon="7.01819">
        <ele>453.3</ele>
        <time>2022-09-30T10:43:16Z</time>
      </trkpt>
      <trkpt lat="46.9508" lon="7.01823">
        <ele>453.1</ele>
        <time>2022-09-30T10:43:17Z</time>
      </trkpt>
      <trkpt lat="46.95081" lon="7.01827">
        <ele>452.8</ele>
        <time>2022-09-30T10:43:18Z</time>
      </trkpt>
      <trkpt lat="46.95084" lon="7.01834">
        <ele>452.4</ele>
        <time>2022-09-30T10:43:19Z</time>
      </trkpt>
      <trkpt lat="46.95085" lon="7.0184">
        <ele>452</ele>
        <time>2022-09-30T10:43:21Z</time>
      </trkpt>
      <trkpt lat="46.95087" lon="7.01847">
        <ele>451.6</ele>
        <time>2022-09-30T10:43:22Z</time>
      </trkpt>
      <trkpt lat="46.9509" lon="7.01852">
        <ele>451.2</ele>
        <time>2022-09-30T10:43:23Z</time>
      </trkpt>
      <trkpt lat="46.95093" lon="7.01859">
        <ele>450.8</ele>
        <time>2022-09-30T10:43:24Z</time>
      </trkpt>
      <trkpt lat="46.95097" lon="7.01866">
        <ele>450.4</ele>
        <time>2022-09-30T10:43:25Z</time>
      </trkpt>
      <trkpt lat="46.951" lon="7.0187">
        <ele>450.1</ele>
        <time>2022-09-30T10:43:26Z</time>
      </trkpt>
      <trkpt lat="46.95104" lon="7.01877">
        <ele>449.6</ele>
        <time>2022-09-30T10:43:27Z</time>
      </trkpt>
      <trkpt lat="46.95107" lon="7.01883">
        <ele>449.3</ele>
        <time>2022-09-30T10:43:28Z</time>
      </trkpt>
      <trkpt lat="46.9511" lon="7.01887">
        <ele>449</ele>
        <time>2022-09-30T10:43:29Z</time>
      </trkpt>
      <trkpt lat="46.95113" lon="7.01891">
        <ele>448.7</ele>
        <time>2022-09-30T10:43:30Z</time>
      </trkpt>
      <trkpt lat="46.95115" lon="7.01898">
        <ele>448.4</ele>
        <time>2022-09-30T10:43:31Z</time>
      </trkpt>
      <trkpt lat="46.95118" lon="7.01903">
        <ele>448.1</ele>
        <time>2022-09-30T10:43:32Z</time>
      </trkpt>
      <trkpt lat="46.9512" lon="7.0191">
        <ele>447.8</ele>
        <time>2022-09-30T10:43:33Z</time>
      </trkpt>
      <trkpt lat="46.95122" lon="7.01918">
        <ele>447.4</ele>
        <time>2022-09-30T10:43:34Z</time>
      </trkpt>
      <trkpt lat="46.95123" lon="7.01927">
        <ele>447</ele>
        <time>2022-09-30T10:43:35Z</time>
      </trkpt>
      <trkpt lat="46.95125" lon="7.01935">
        <ele>446.7</ele>
        <time>2022-09-30T10:43:36Z</time>
      </trkpt>
      <trkpt lat="46.95125" lon="7.01943">
        <ele>446.4</ele>
        <time>2022-09-30T10:43:37Z</time>
      </trkpt>
      <trkpt lat="46.95126" lon="7.01951">
        <ele>446.2</ele>
        <time>2022-09-30T10:43:38Z</time>
      </trkpt>
      <trkpt lat="46.95127" lon="7.01959">
        <ele>445.9</ele>
        <time>2022-09-30T10:43:39Z</time>
      </trkpt>
      <trkpt lat="46.95128" lon="7.01969">
        <ele>445.7</ele>
        <time>2022-09-30T10:43:40Z</time>
      </trkpt>
      <trkpt lat="46.95128" lon="7.01977">
        <ele>445.5</ele>
        <time>2022-09-30T10:43:41Z</time>
      </trkpt>
      <trkpt lat="46.95129" lon="7.01985">
        <ele>445.3</ele>
        <time>2022-09-30T10:43:42Z</time>
      </trkpt>
      <trkpt lat="46.9513" lon="7.01992">
        <ele>445.1</ele>
        <time>2022-09-30T10:43:43Z</time>
      </trkpt>
      <trkpt lat="46.95131" lon="7.01999">
        <ele>445</ele>
        <time>2022-09-30T10:43:44Z</time>
      </trkpt>
      <trkpt lat="46.95132" lon="7.02007">
        <ele>444.9</ele>
        <time>2022-09-30T10:43:45Z</time>
      </trkpt>
      <trkpt lat="46.95132" lon="7.02013">
        <ele>444.8</ele>
        <time>2022-09-30T10:43:46Z</time>
      </trkpt>
      <trkpt lat="46.95133" lon="7.02019">
        <ele>444.7</ele>
        <time>2022-09-30T10:43:47Z</time>
      </trkpt>
      <trkpt lat="46.95134" lon="7.02024">
        <ele>444.6</ele>
        <time>2022-09-30T10:43:48Z</time>
      </trkpt>
      <trkpt lat="46.95134" lon="7.02028">
        <ele>444.5</ele>
        <time>2022-09-30T10:43:49Z</time>
      </trkpt>
      <trkpt lat="46.95135" lon="7.02032">
        <ele>444.4</ele>
        <time>2022-09-30T10:43:50Z</time>
      </trkpt>
      <trkpt lat="46.95135" lon="7.02034">
        <ele>444.4</ele>
        <time>2022-09-30T10:43:51Z</time>
      </trkpt>
      <trkpt lat="46.95135" lon="7.02038">
        <ele>444.3</ele>
        <time>2022-09-30T10:43:52Z</time>
      </trkpt>
      <trkpt lat="46.95136" lon="7.0204">
        <ele>444.2</ele>
        <time>2022-09-30T10:43:53Z</time>
      </trkpt>
      <trkpt lat="46.9514" lon="7.02046">
        <ele>444.1</ele>
        <time>2022-09-30T10:43:54Z</time>
      </trkpt>
      <trkpt lat="46.95143" lon="7.0205">
        <ele>444</ele>
        <time>2022-09-30T10:43:55Z</time>
      </trkpt>
      <trkpt lat="46.95144" lon="7.02055">
        <ele>443.8</ele>
        <time>2022-09-30T10:43:56Z</time>
      </trkpt>
      <trkpt lat="46.95148" lon="7.02057">
        <ele>443.7</ele>
        <time>2022-09-30T10:43:57Z</time>
      </trkpt>
      <trkpt lat="46.95152" lon="7.02061">
        <ele>443.6</ele>
        <time>2022-09-30T10:43:58Z</time>
      </trkpt>
      <trkpt lat="46.95156" lon="7.02066">
        <ele>443.4</ele>
        <time>2022-09-30T10:43:59Z</time>
      </trkpt>
      <trkpt lat="46.9516" lon="7.02069">
        <ele>443.2</ele>
        <time>2022-09-30T10:44:00Z</time>
      </trkpt>
      <trkpt lat="46.95164" lon="7.02074">
        <ele>443.1</ele>
        <time>2022-09-30T10:44:01Z</time>
      </trkpt>
      <trkpt lat="46.95168" lon="7.02079">
        <ele>442.9</ele>
        <time>2022-09-30T10:44:02Z</time>
      </trkpt>
      <trkpt lat="46.95172" lon="7.02085">
        <ele>442.7</ele>
        <time>2022-09-30T10:44:03Z</time>
      </trkpt>
      <trkpt lat="46.95177" lon="7.02091">
        <ele>442.5</ele>
        <time>2022-09-30T10:44:04Z</time>
      </trkpt>
      <trkpt lat="46.9518" lon="7.02097">
        <ele>442.4</ele>
        <time>2022-09-30T10:44:05Z</time>
      </trkpt>
      <trkpt lat="46.95183" lon="7.02104">
        <ele>442.1</ele>
        <time>2022-09-30T10:44:06Z</time>
      </trkpt>
      <trkpt lat="46.9519" lon="7.02108">
        <ele>441.9</ele>
        <time>2022-09-30T10:44:07Z</time>
      </trkpt>
      <trkpt lat="46.95191" lon="7.02117">
        <ele>441.6</ele>
        <time>2022-09-30T10:44:08Z</time>
      </trkpt>
      <trkpt lat="46.95196" lon="7.02124">
        <ele>441.4</ele>
        <time>2022-09-30T10:44:09Z</time>
      </trkpt>
      <trkpt lat="46.95199" lon="7.02131">
        <ele>441.1</ele>
        <time>2022-09-30T10:44:10Z</time>
      </trkpt>
      <trkpt lat="46.95203" lon="7.02139">
        <ele>440.9</ele>
        <time>2022-09-30T10:44:11Z</time>
      </trkpt>
      <trkpt lat="46.95207" lon="7.02147">
        <ele>440.6</ele>
        <time>2022-09-30T10:44:12Z</time>
      </trkpt>
      <trkpt lat="46.9521" lon="7.02155">
        <ele>440.3</ele>
        <time>2022-09-30T10:44:13Z</time>
      </trkpt>
      <trkpt lat="46.95214" lon="7.02164">
        <ele>440.1</ele>
        <time>2022-09-30T10:44:14Z</time>
      </trkpt>
      <trkpt lat="46.95218" lon="7.02172">
        <ele>439.9</ele>
        <time>2022-09-30T10:44:15Z</time>
      </trkpt>
      <trkpt lat="46.95222" lon="7.0218">
        <ele>439.6</ele>
        <time>2022-09-30T10:44:16Z</time>
      </trkpt>
      <trkpt lat="46.95226" lon="7.02188">
        <ele>439.4</ele>
        <time>2022-09-30T10:44:17Z</time>
      </trkpt>
      <trkpt lat="46.9523" lon="7.02196">
        <ele>439.2</ele>
        <time>2022-09-30T10:44:18Z</time>
      </trkpt>
      <trkpt lat="46.95233" lon="7.02205">
        <ele>438.9</ele>
        <time>2022-09-30T10:44:19Z</time>
      </trkpt>
      <trkpt lat="46.95238" lon="7.02213">
        <ele>438.7</ele>
        <time>2022-09-30T10:44:20Z</time>
      </trkpt>
      <trkpt lat="46.95243" lon="7.02221">
        <ele>438.5</ele>
        <time>2022-09-30T10:44:21Z</time>
      </trkpt>
      <trkpt lat="46.95248" lon="7.02229">
        <ele>438.2</ele>
        <time>2022-09-30T10:44:22Z</time>
      </trkpt>
      <trkpt lat="46.95253" lon="7.02237">
        <ele>438</ele>
        <time>2022-09-30T10:44:23Z</time>
      </trkpt>
      <trkpt lat="46.95256" lon="7.02247">
        <ele>437.7</ele>
        <time>2022-09-30T10:44:24Z</time>
      </trkpt>
      <trkpt lat="46.95261" lon="7.02254">
        <ele>437.4</ele>
        <time>2022-09-30T10:44:25Z</time>
      </trkpt>
      <trkpt lat="46.95265" lon="7.02262">
        <ele>437.2</ele>
        <time>2022-09-30T10:44:26Z</time>
      </trkpt>
      <trkpt lat="46.95268" lon="7.0227">
        <ele>437</ele>
        <time>2022-09-30T10:44:27Z</time>
      </trkpt>
      <trkpt lat="46.95274" lon="7.02278">
        <ele>436.8</ele>
        <time>2022-09-30T10:44:28Z</time>
      </trkpt>
      <trkpt lat="46.95278" lon="7.02285">
        <ele>436.6</ele>
        <time>2022-09-30T10:44:29Z</time>
      </trkpt>
      <trkpt lat="46.95283" lon="7.0229">
        <ele>436.5</ele>
        <time>2022-09-30T10:44:30Z</time>
      </trkpt>
      <trkpt lat="46.95285" lon="7.02297">
        <ele>436.5</ele>
        <time>2022-09-30T10:44:31Z</time>
      </trkpt>
      <trkpt lat="46.95288" lon="7.02302">
        <ele>436.4</ele>
        <time>2022-09-30T10:44:32Z</time>
      </trkpt>
      <trkpt lat="46.95291" lon="7.02307">
        <ele>436.4</ele>
        <time>2022-09-30T10:44:33Z</time>
      </trkpt>
      <trkpt lat="46.95293" lon="7.02311">
        <ele>436.3</ele>
        <time>2022-09-30T10:44:34Z</time>
      </trkpt>
      <trkpt lat="46.95296" lon="7.02313">
        <ele>436.3</ele>
        <time>2022-09-30T10:44:35Z</time>
      </trkpt>
      <trkpt lat="46.95298" lon="7.02317">
        <ele>436.3</ele>
        <time>2022-09-30T10:44:36Z</time>
      </trkpt>
      <trkpt lat="46.95301" lon="7.02322">
        <ele>436.4</ele>
        <time>2022-09-30T10:44:37Z</time>
      </trkpt>
      <trkpt lat="46.95304" lon="7.02326">
        <ele>436.5</ele>
        <time>2022-09-30T10:44:38Z</time>
      </trkpt>
      <trkpt lat="46.95307" lon="7.0233">
        <ele>436.6</ele>
        <time>2022-09-30T10:44:39Z</time>
      </trkpt>
      <trkpt lat="46.95309" lon="7.02335">
        <ele>436.7</ele>
        <time>2022-09-30T10:44:40Z</time>
      </trkpt>
      <trkpt lat="46.95311" lon="7.0234">
        <ele>436.8</ele>
        <time>2022-09-30T10:44:41Z</time>
      </trkpt>
      <trkpt lat="46.95313" lon="7.02346">
        <ele>436.9</ele>
        <time>2022-09-30T10:44:42Z</time>
      </trkpt>
      <trkpt lat="46.95316" lon="7.02351">
        <ele>437</ele>
        <time>2022-09-30T10:44:43Z</time>
      </trkpt>
      <trkpt lat="46.95318" lon="7.02355">
        <ele>437.1</ele>
        <time>2022-09-30T10:44:44Z</time>
      </trkpt>
      <trkpt lat="46.95321" lon="7.02359">
        <ele>437.2</ele>
        <time>2022-09-30T10:44:45Z</time>
      </trkpt>
      <trkpt lat="46.95323" lon="7.02364">
        <ele>437.2</ele>
        <time>2022-09-30T10:44:46Z</time>
      </trkpt>
      <trkpt lat="46.95325" lon="7.02369">
        <ele>437.3</ele>
        <time>2022-09-30T10:44:47Z</time>
      </trkpt>
      <trkpt lat="46.95328" lon="7.02373">
        <ele>437.4</ele>
        <time>2022-09-30T10:44:48Z</time>
      </trkpt>
      <trkpt lat="46.9533" lon="7.02378">
        <ele>437.5</ele>
        <time>2022-09-30T10:44:49Z</time>
      </trkpt>
      <trkpt lat="46.95332" lon="7.02383">
        <ele>437.5</ele>
        <time>2022-09-30T10:44:50Z</time>
      </trkpt>
      <trkpt lat="46.95335" lon="7.02388">
        <ele>437.6</ele>
        <time>2022-09-30T10:44:51Z</time>
      </trkpt>
      <trkpt lat="46.95336" lon="7.02393">
        <ele>437.7</ele>
        <time>2022-09-30T10:44:52Z</time>
      </trkpt>
      <trkpt lat="46.95339" lon="7.02397">
        <ele>437.7</ele>
        <time>2022-09-30T10:44:53Z</time>
      </trkpt>
      <trkpt lat="46.95341" lon="7.02401">
        <ele>437.8</ele>
        <time>2022-09-30T10:44:54Z</time>
      </trkpt>
      <trkpt lat="46.95343" lon="7.02405">
        <ele>437.9</ele>
        <time>2022-09-30T10:44:55Z</time>
      </trkpt>
      <trkpt lat="46.95343" lon="7.0241">
        <ele>437.9</ele>
        <time>2022-09-30T10:44:56Z</time>
      </trkpt>
      <trkpt lat="46.95346" lon="7.02414">
        <ele>438</ele>
        <time>2022-09-30T10:44:57Z</time>
      </trkpt>
      <trkpt lat="46.95348" lon="7.02418">
        <ele>438</ele>
        <time>2022-09-30T10:44:58Z</time>
      </trkpt>
      <trkpt lat="46.95351" lon="7.02421">
        <ele>438.1</ele>
        <time>2022-09-30T10:44:59Z</time>
      </trkpt>
      <trkpt lat="46.95353" lon="7.02427">
        <ele>438.1</ele>
        <time>2022-09-30T10:45:00Z</time>
      </trkpt>
      <trkpt lat="46.95355" lon="7.02431">
        <ele>438.2</ele>
        <time>2022-09-30T10:45:01Z</time>
      </trkpt>
      <trkpt lat="46.95356" lon="7.02437">
        <ele>438.2</ele>
        <time>2022-09-30T10:45:02Z</time>
      </trkpt>
      <trkpt lat="46.95359" lon="7.0244">
        <ele>438.3</ele>
        <time>2022-09-30T10:45:03Z</time>
      </trkpt>
      <trkpt lat="46.95362" lon="7.02444">
        <ele>438.3</ele>
        <time>2022-09-30T10:45:04Z</time>
      </trkpt>
      <trkpt lat="46.95364" lon="7.02448">
        <ele>438.3</ele>
        <time>2022-09-30T10:45:05Z</time>
      </trkpt>
      <trkpt lat="46.95367" lon="7.02453">
        <ele>438.4</ele>
        <time>2022-09-30T10:45:06Z</time>
      </trkpt>
      <trkpt lat="46.95367" lon="7.02459">
        <ele>438.4</ele>
        <time>2022-09-30T10:45:07Z</time>
      </trkpt>
      <trkpt lat="46.95369" lon="7.02463">
        <ele>438.5</ele>
        <time>2022-09-30T10:45:08Z</time>
      </trkpt>
      <trkpt lat="46.95372" lon="7.02468">
        <ele>438.5</ele>
        <time>2022-09-30T10:45:09Z</time>
      </trkpt>
      <trkpt lat="46.95373" lon="7.02473">
        <ele>438.5</ele>
        <time>2022-09-30T10:45:10Z</time>
      </trkpt>
      <trkpt lat="46.95375" lon="7.02478">
        <ele>438.6</ele>
        <time>2022-09-30T10:45:11Z</time>
      </trkpt>
      <trkpt lat="46.95377" lon="7.02483">
        <ele>438.6</ele>
        <time>2022-09-30T10:45:12Z</time>
      </trkpt>
      <trkpt lat="46.95379" lon="7.02487">
        <ele>438.6</ele>
        <time>2022-09-30T10:45:13Z</time>
      </trkpt>
      <trkpt lat="46.95381" lon="7.02492">
        <ele>438.7</ele>
        <time>2022-09-30T10:45:14Z</time>
      </trkpt>
      <trkpt lat="46.95383" lon="7.02497">
        <ele>438.7</ele>
        <time>2022-09-30T10:45:15Z</time>
      </trkpt>
      <trkpt lat="46.95385" lon="7.02502">
        <ele>438.8</ele>
        <time>2022-09-30T10:45:16Z</time>
      </trkpt>
      <trkpt lat="46.95387" lon="7.02507">
        <ele>438.8</ele>
        <time>2022-09-30T10:45:17Z</time>
      </trkpt>
      <trkpt lat="46.95389" lon="7.02512">
        <ele>438.8</ele>
        <time>2022-09-30T10:45:18Z</time>
      </trkpt>
      <trkpt lat="46.95391" lon="7.02517">
        <ele>438.8</ele>
        <time>2022-09-30T10:45:19Z</time>
      </trkpt>
      <trkpt lat="46.95394" lon="7.02523">
        <ele>438.8</ele>
        <time>2022-09-30T10:45:20Z</time>
      </trkpt>
      <trkpt lat="46.95396" lon="7.02528">
        <ele>438.8</ele>
        <time>2022-09-30T10:45:21Z</time>
      </trkpt>
      <trkpt lat="46.95398" lon="7.02534">
        <ele>438.8</ele>
        <time>2022-09-30T10:45:22Z</time>
      </trkpt>
      <trkpt lat="46.954" lon="7.0254">
        <ele>438.8</ele>
        <time>2022-09-30T10:45:23Z</time>
      </trkpt>
      <trkpt lat="46.95402" lon="7.02545">
        <ele>438.8</ele>
        <time>2022-09-30T10:45:24Z</time>
      </trkpt>
      <trkpt lat="46.95404" lon="7.02551">
        <ele>438.8</ele>
        <time>2022-09-30T10:45:25Z</time>
      </trkpt>
      <trkpt lat="46.95407" lon="7.02556">
        <ele>438.8</ele>
        <time>2022-09-30T10:45:27Z</time>
      </trkpt>
      <trkpt lat="46.95409" lon="7.02562">
        <ele>438.8</ele>
        <time>2022-09-30T10:45:28Z</time>
      </trkpt>
      <trkpt lat="46.95412" lon="7.02567">
        <ele>438.8</ele>
        <time>2022-09-30T10:45:29Z</time>
      </trkpt>
      <trkpt lat="46.95414" lon="7.02573">
        <ele>438.8</ele>
        <time>2022-09-30T10:45:30Z</time>
      </trkpt>
      <trkpt lat="46.95416" lon="7.02579">
        <ele>438.7</ele>
        <time>2022-09-30T10:45:31Z</time>
      </trkpt>
      <trkpt lat="46.95419" lon="7.02585">
        <ele>438.7</ele>
        <time>2022-09-30T10:45:32Z</time>
      </trkpt>
      <trkpt lat="46.95421" lon="7.02592">
        <ele>438.6</ele>
        <time>2022-09-30T10:45:33Z</time>
      </trkpt>
      <trkpt lat="46.95424" lon="7.02598">
        <ele>438.5</ele>
        <time>2022-09-30T10:45:34Z</time>
      </trkpt>
      <trkpt lat="46.95426" lon="7.02604">
        <ele>438.4</ele>
        <time>2022-09-30T10:45:35Z</time>
      </trkpt>
      <trkpt lat="46.95429" lon="7.02611">
        <ele>438.3</ele>
        <time>2022-09-30T10:45:36Z</time>
      </trkpt>
      <trkpt lat="46.95432" lon="7.02617">
        <ele>438.3</ele>
        <time>2022-09-30T10:45:37Z</time>
      </trkpt>
      <trkpt lat="46.95437" lon="7.0263">
        <ele>438.1</ele>
        <time>2022-09-30T10:45:38Z</time>
      </trkpt>
      <trkpt lat="46.9544" lon="7.02637">
        <ele>438</ele>
        <time>2022-09-30T10:45:39Z</time>
      </trkpt>
      <trkpt lat="46.95443" lon="7.02644">
        <ele>437.8</ele>
        <time>2022-09-30T10:45:41Z</time>
      </trkpt>
      <trkpt lat="46.95448" lon="7.02658">
        <ele>437.6</ele>
        <time>2022-09-30T10:45:42Z</time>
      </trkpt>
      <trkpt lat="46.95451" lon="7.02665">
        <ele>437.5</ele>
        <time>2022-09-30T10:45:43Z</time>
      </trkpt>
      <trkpt lat="46.95455" lon="7.02672">
        <ele>437.4</ele>
        <time>2022-09-30T10:45:44Z</time>
      </trkpt>
      <trkpt lat="46.95457" lon="7.02679">
        <ele>437.2</ele>
        <time>2022-09-30T10:45:45Z</time>
      </trkpt>
      <trkpt lat="46.9546" lon="7.02687">
        <ele>437.1</ele>
        <time>2022-09-30T10:45:46Z</time>
      </trkpt>
      <trkpt lat="46.95463" lon="7.02694">
        <ele>436.9</ele>
        <time>2022-09-30T10:45:47Z</time>
      </trkpt>
      <trkpt lat="46.95466" lon="7.02701">
        <ele>436.8</ele>
        <time>2022-09-30T10:45:48Z</time>
      </trkpt>
      <trkpt lat="46.95469" lon="7.02709">
        <ele>436.7</ele>
        <time>2022-09-30T10:45:49Z</time>
      </trkpt>
      <trkpt lat="46.95472" lon="7.02717">
        <ele>436.5</ele>
        <time>2022-09-30T10:45:50Z</time>
      </trkpt>
      <trkpt lat="46.95475" lon="7.02725">
        <ele>436.4</ele>
        <time>2022-09-30T10:45:51Z</time>
      </trkpt>
      <trkpt lat="46.95478" lon="7.02733">
        <ele>436.2</ele>
        <time>2022-09-30T10:45:52Z</time>
      </trkpt>
      <trkpt lat="46.95482" lon="7.02741">
        <ele>436.1</ele>
        <time>2022-09-30T10:45:53Z</time>
      </trkpt>
      <trkpt lat="46.95485" lon="7.02748">
        <ele>435.9</ele>
        <time>2022-09-30T10:45:54Z</time>
      </trkpt>
      <trkpt lat="46.95487" lon="7.02756">
        <ele>435.7</ele>
        <time>2022-09-30T10:45:55Z</time>
      </trkpt>
      <trkpt lat="46.9549" lon="7.02763">
        <ele>435.6</ele>
        <time>2022-09-30T10:45:56Z</time>
      </trkpt>
      <trkpt lat="46.95494" lon="7.0277">
        <ele>435.4</ele>
        <time>2022-09-30T10:45:57Z</time>
      </trkpt>
      <trkpt lat="46.95497" lon="7.02778">
        <ele>435.2</ele>
        <time>2022-09-30T10:45:58Z</time>
      </trkpt>
      <trkpt lat="46.95498" lon="7.02786">
        <ele>435.1</ele>
        <time>2022-09-30T10:45:59Z</time>
      </trkpt>
      <trkpt lat="46.95502" lon="7.02793">
        <ele>434.9</ele>
        <time>2022-09-30T10:46:00Z</time>
      </trkpt>
      <trkpt lat="46.95505" lon="7.02801">
        <ele>434.7</ele>
        <time>2022-09-30T10:46:01Z</time>
      </trkpt>
      <trkpt lat="46.95508" lon="7.02808">
        <ele>434.6</ele>
        <time>2022-09-30T10:46:02Z</time>
      </trkpt>
      <trkpt lat="46.95511" lon="7.02815">
        <ele>434.4</ele>
        <time>2022-09-30T10:46:03Z</time>
      </trkpt>
      <trkpt lat="46.95514" lon="7.02824">
        <ele>434.2</ele>
        <time>2022-09-30T10:46:04Z</time>
      </trkpt>
      <trkpt lat="46.95517" lon="7.02832">
        <ele>434.1</ele>
        <time>2022-09-30T10:46:05Z</time>
      </trkpt>
      <trkpt lat="46.95521" lon="7.02839">
        <ele>434</ele>
        <time>2022-09-30T10:46:06Z</time>
      </trkpt>
      <trkpt lat="46.95524" lon="7.02847">
        <ele>433.8</ele>
        <time>2022-09-30T10:46:07Z</time>
      </trkpt>
      <trkpt lat="46.95527" lon="7.02855">
        <ele>433.7</ele>
        <time>2022-09-30T10:46:08Z</time>
      </trkpt>
      <trkpt lat="46.9553" lon="7.02864">
        <ele>433.6</ele>
        <time>2022-09-30T10:46:09Z</time>
      </trkpt>
      <trkpt lat="46.95534" lon="7.02872">
        <ele>433.6</ele>
        <time>2022-09-30T10:46:10Z</time>
      </trkpt>
      <trkpt lat="46.95537" lon="7.0288">
        <ele>433.5</ele>
        <time>2022-09-30T10:46:11Z</time>
      </trkpt>
      <trkpt lat="46.9554" lon="7.02888">
        <ele>433.4</ele>
        <time>2022-09-30T10:46:12Z</time>
      </trkpt>
      <trkpt lat="46.95543" lon="7.02897">
        <ele>433.4</ele>
        <time>2022-09-30T10:46:13Z</time>
      </trkpt>
      <trkpt lat="46.95547" lon="7.02905">
        <ele>433.3</ele>
        <time>2022-09-30T10:46:14Z</time>
      </trkpt>
      <trkpt lat="46.9555" lon="7.02912">
        <ele>433.3</ele>
        <time>2022-09-30T10:46:15Z</time>
      </trkpt>
      <trkpt lat="46.95553" lon="7.0292">
        <ele>433.2</ele>
        <time>2022-09-30T10:46:16Z</time>
      </trkpt>
      <trkpt lat="46.95556" lon="7.02928">
        <ele>433.2</ele>
        <time>2022-09-30T10:46:17Z</time>
      </trkpt>
      <trkpt lat="46.95559" lon="7.02936">
        <ele>433.2</ele>
        <time>2022-09-30T10:46:18Z</time>
      </trkpt>
      <trkpt lat="46.95562" lon="7.02943">
        <ele>433.2</ele>
        <time>2022-09-30T10:46:19Z</time>
      </trkpt>
      <trkpt lat="46.95565" lon="7.02951">
        <ele>433.1</ele>
        <time>2022-09-30T10:46:20Z</time>
      </trkpt>
      <trkpt lat="46.95568" lon="7.02958">
        <ele>433.1</ele>
        <time>2022-09-30T10:46:21Z</time>
      </trkpt>
      <trkpt lat="46.95571" lon="7.02965">
        <ele>433.1</ele>
        <time>2022-09-30T10:46:22Z</time>
      </trkpt>
      <trkpt lat="46.95574" lon="7.02972">
        <ele>433.1</ele>
        <time>2022-09-30T10:46:23Z</time>
      </trkpt>
      <trkpt lat="46.95577" lon="7.0298">
        <ele>433.1</ele>
        <time>2022-09-30T10:46:24Z</time>
      </trkpt>
      <trkpt lat="46.9558" lon="7.02987">
        <ele>433</ele>
        <time>2022-09-30T10:46:25Z</time>
      </trkpt>
      <trkpt lat="46.95583" lon="7.02994">
        <ele>433</ele>
        <time>2022-09-30T10:46:26Z</time>
      </trkpt>
      <trkpt lat="46.95586" lon="7.03001">
        <ele>432.9</ele>
        <time>2022-09-30T10:46:27Z</time>
      </trkpt>
      <trkpt lat="46.95588" lon="7.03009">
        <ele>432.9</ele>
        <time>2022-09-30T10:46:28Z</time>
      </trkpt>
      <trkpt lat="46.95592" lon="7.03015">
        <ele>432.9</ele>
        <time>2022-09-30T10:46:29Z</time>
      </trkpt>
      <trkpt lat="46.95595" lon="7.03022">
        <ele>432.9</ele>
        <time>2022-09-30T10:46:30Z</time>
      </trkpt>
      <trkpt lat="46.95598" lon="7.03029">
        <ele>432.9</ele>
        <time>2022-09-30T10:46:31Z</time>
      </trkpt>
      <trkpt lat="46.95601" lon="7.03038">
        <ele>432.8</ele>
        <time>2022-09-30T10:46:32Z</time>
      </trkpt>
      <trkpt lat="46.95604" lon="7.03046">
        <ele>432.8</ele>
        <time>2022-09-30T10:46:33Z</time>
      </trkpt>
      <trkpt lat="46.95607" lon="7.03054">
        <ele>432.8</ele>
        <time>2022-09-30T10:46:34Z</time>
      </trkpt>
      <trkpt lat="46.9561" lon="7.03062">
        <ele>432.8</ele>
        <time>2022-09-30T10:46:35Z</time>
      </trkpt>
      <trkpt lat="46.95613" lon="7.0307">
        <ele>432.7</ele>
        <time>2022-09-30T10:46:36Z</time>
      </trkpt>
      <trkpt lat="46.95616" lon="7.03077">
        <ele>432.7</ele>
        <time>2022-09-30T10:46:37Z</time>
      </trkpt>
      <trkpt lat="46.95619" lon="7.03084">
        <ele>432.7</ele>
        <time>2022-09-30T10:46:38Z</time>
      </trkpt>
      <trkpt lat="46.95622" lon="7.03092">
        <ele>432.7</ele>
        <time>2022-09-30T10:46:39Z</time>
      </trkpt>
      <trkpt lat="46.95625" lon="7.031">
        <ele>432.7</ele>
        <time>2022-09-30T10:46:40Z</time>
      </trkpt>
      <trkpt lat="46.95628" lon="7.03107">
        <ele>432.7</ele>
        <time>2022-09-30T10:46:41Z</time>
      </trkpt>
      <trkpt lat="46.95631" lon="7.03114">
        <ele>432.7</ele>
        <time>2022-09-30T10:46:42Z</time>
      </trkpt>
      <trkpt lat="46.95635" lon="7.0312">
        <ele>432.7</ele>
        <time>2022-09-30T10:46:43Z</time>
      </trkpt>
      <trkpt lat="46.95637" lon="7.03127">
        <ele>432.7</ele>
        <time>2022-09-30T10:46:44Z</time>
      </trkpt>
      <trkpt lat="46.9564" lon="7.03133">
        <ele>432.8</ele>
        <time>2022-09-30T10:46:45Z</time>
      </trkpt>
      <trkpt lat="46.95643" lon="7.03139">
        <ele>432.8</ele>
        <time>2022-09-30T10:46:46Z</time>
      </trkpt>
      <trkpt lat="46.95646" lon="7.03147">
        <ele>432.8</ele>
        <time>2022-09-30T10:46:47Z</time>
      </trkpt>
      <trkpt lat="46.95648" lon="7.03153">
        <ele>432.8</ele>
        <time>2022-09-30T10:46:48Z</time>
      </trkpt>
      <trkpt lat="46.9565" lon="7.03159">
        <ele>432.9</ele>
        <time>2022-09-30T10:46:49Z</time>
      </trkpt>
      <trkpt lat="46.95653" lon="7.03166">
        <ele>432.9</ele>
        <time>2022-09-30T10:46:50Z</time>
      </trkpt>
      <trkpt lat="46.95656" lon="7.03173">
        <ele>432.9</ele>
        <time>2022-09-30T10:46:51Z</time>
      </trkpt>
      <trkpt lat="46.95659" lon="7.0318">
        <ele>433</ele>
        <time>2022-09-30T10:46:52Z</time>
      </trkpt>
      <trkpt lat="46.95662" lon="7.03185">
        <ele>433</ele>
        <time>2022-09-30T10:46:53Z</time>
      </trkpt>
      <trkpt lat="46.95664" lon="7.03193">
        <ele>433</ele>
        <time>2022-09-30T10:46:54Z</time>
      </trkpt>
      <trkpt lat="46.95666" lon="7.03199">
        <ele>433</ele>
        <time>2022-09-30T10:46:55Z</time>
      </trkpt>
      <trkpt lat="46.95668" lon="7.03204">
        <ele>433</ele>
        <time>2022-09-30T10:46:56Z</time>
      </trkpt>
      <trkpt lat="46.9567" lon="7.03211">
        <ele>433</ele>
        <time>2022-09-30T10:46:57Z</time>
      </trkpt>
      <trkpt lat="46.95672" lon="7.03217">
        <ele>433.1</ele>
        <time>2022-09-30T10:46:58Z</time>
      </trkpt>
      <trkpt lat="46.95674" lon="7.03223">
        <ele>433.1</ele>
        <time>2022-09-30T10:46:59Z</time>
      </trkpt>
      <trkpt lat="46.95677" lon="7.03227">
        <ele>433.1</ele>
        <time>2022-09-30T10:47:00Z</time>
      </trkpt>
      <trkpt lat="46.9568" lon="7.03232">
        <ele>433.1</ele>
        <time>2022-09-30T10:47:01Z</time>
      </trkpt>
      <trkpt lat="46.95683" lon="7.03237">
        <ele>433.1</ele>
        <time>2022-09-30T10:47:02Z</time>
      </trkpt>
      <trkpt lat="46.95684" lon="7.03244">
        <ele>433.1</ele>
        <time>2022-09-30T10:47:03Z</time>
      </trkpt>
      <trkpt lat="46.95685" lon="7.0325">
        <ele>433.2</ele>
        <time>2022-09-30T10:47:04Z</time>
      </trkpt>
      <trkpt lat="46.95688" lon="7.03256">
        <ele>433.2</ele>
        <time>2022-09-30T10:47:05Z</time>
      </trkpt>
      <trkpt lat="46.9569" lon="7.03261">
        <ele>433.1</ele>
        <time>2022-09-30T10:47:06Z</time>
      </trkpt>
      <trkpt lat="46.95692" lon="7.03267">
        <ele>433.1</ele>
        <time>2022-09-30T10:47:07Z</time>
      </trkpt>
      <trkpt lat="46.95694" lon="7.03273">
        <ele>433.1</ele>
        <time>2022-09-30T10:47:08Z</time>
      </trkpt>
      <trkpt lat="46.95696" lon="7.03279">
        <ele>433.1</ele>
        <time>2022-09-30T10:47:09Z</time>
      </trkpt>
      <trkpt lat="46.95699" lon="7.03285">
        <ele>433</ele>
        <time>2022-09-30T10:47:10Z</time>
      </trkpt>
      <trkpt lat="46.95702" lon="7.03291">
        <ele>433</ele>
        <time>2022-09-30T10:47:11Z</time>
      </trkpt>
      <trkpt lat="46.95705" lon="7.03298">
        <ele>433</ele>
        <time>2022-09-30T10:47:12Z</time>
      </trkpt>
      <trkpt lat="46.95708" lon="7.03304">
        <ele>433</ele>
        <time>2022-09-30T10:47:13Z</time>
      </trkpt>
      <trkpt lat="46.95711" lon="7.0331">
        <ele>433</ele>
        <time>2022-09-30T10:47:14Z</time>
      </trkpt>
      <trkpt lat="46.95713" lon="7.03317">
        <ele>433</ele>
        <time>2022-09-30T10:47:15Z</time>
      </trkpt>
      <trkpt lat="46.95715" lon="7.03323">
        <ele>433</ele>
        <time>2022-09-30T10:47:16Z</time>
      </trkpt>
      <trkpt lat="46.95717" lon="7.03329">
        <ele>433.1</ele>
        <time>2022-09-30T10:47:17Z</time>
      </trkpt>
      <trkpt lat="46.9572" lon="7.03335">
        <ele>433.1</ele>
        <time>2022-09-30T10:47:18Z</time>
      </trkpt>
      <trkpt lat="46.95722" lon="7.03341">
        <ele>433.1</ele>
        <time>2022-09-30T10:47:19Z</time>
      </trkpt>
      <trkpt lat="46.95725" lon="7.03346">
        <ele>433.1</ele>
        <time>2022-09-30T10:47:20Z</time>
      </trkpt>
      <trkpt lat="46.95727" lon="7.03352">
        <ele>433.2</ele>
        <time>2022-09-30T10:47:21Z</time>
      </trkpt>
      <trkpt lat="46.95729" lon="7.03358">
        <ele>433.2</ele>
        <time>2022-09-30T10:47:22Z</time>
      </trkpt>
      <trkpt lat="46.95731" lon="7.03363">
        <ele>433.2</ele>
        <time>2022-09-30T10:47:23Z</time>
      </trkpt>
      <trkpt lat="46.95734" lon="7.03369">
        <ele>433.2</ele>
        <time>2022-09-30T10:47:24Z</time>
      </trkpt>
      <trkpt lat="46.95736" lon="7.03375">
        <ele>433.3</ele>
        <time>2022-09-30T10:47:25Z</time>
      </trkpt>
      <trkpt lat="46.95738" lon="7.03382">
        <ele>433.3</ele>
        <time>2022-09-30T10:47:26Z</time>
      </trkpt>
      <trkpt lat="46.9574" lon="7.03387">
        <ele>433.3</ele>
        <time>2022-09-30T10:47:27Z</time>
      </trkpt>
      <trkpt lat="46.95743" lon="7.03393">
        <ele>433.4</ele>
        <time>2022-09-30T10:47:28Z</time>
      </trkpt>
      <trkpt lat="46.95745" lon="7.03399">
        <ele>433.4</ele>
        <time>2022-09-30T10:47:29Z</time>
      </trkpt>
      <trkpt lat="46.95748" lon="7.03405">
        <ele>433.4</ele>
        <time>2022-09-30T10:47:30Z</time>
      </trkpt>
      <trkpt lat="46.9575" lon="7.03411">
        <ele>433.4</ele>
        <time>2022-09-30T10:47:31Z</time>
      </trkpt>
      <trkpt lat="46.95753" lon="7.03416">
        <ele>433.5</ele>
        <time>2022-09-30T10:47:33Z</time>
      </trkpt>
      <trkpt lat="46.95755" lon="7.03421">
        <ele>433.5</ele>
        <time>2022-09-30T10:47:34Z</time>
      </trkpt>
      <trkpt lat="46.95757" lon="7.03428">
        <ele>433.6</ele>
        <time>2022-09-30T10:47:35Z</time>
      </trkpt>
      <trkpt lat="46.95762" lon="7.03437">
        <ele>433.6</ele>
        <time>2022-09-30T10:47:36Z</time>
      </trkpt>
      <trkpt lat="46.95764" lon="7.03443">
        <ele>433.6</ele>
        <time>2022-09-30T10:47:37Z</time>
      </trkpt>
      <trkpt lat="46.95766" lon="7.03449">
        <ele>433.7</ele>
        <time>2022-09-30T10:47:38Z</time>
      </trkpt>
      <trkpt lat="46.95768" lon="7.03454">
        <ele>433.7</ele>
        <time>2022-09-30T10:47:39Z</time>
      </trkpt>
      <trkpt lat="46.95771" lon="7.03459">
        <ele>433.7</ele>
        <time>2022-09-30T10:47:41Z</time>
      </trkpt>
      <trkpt lat="46.95773" lon="7.03464">
        <ele>433.7</ele>
        <time>2022-09-30T10:47:42Z</time>
      </trkpt>
      <trkpt lat="46.95775" lon="7.0347">
        <ele>433.8</ele>
        <time>2022-09-30T10:47:43Z</time>
      </trkpt>
      <trkpt lat="46.95778" lon="7.0348">
        <ele>433.8</ele>
        <time>2022-09-30T10:47:44Z</time>
      </trkpt>
      <trkpt lat="46.95781" lon="7.03485">
        <ele>433.8</ele>
        <time>2022-09-30T10:47:45Z</time>
      </trkpt>
      <trkpt lat="46.95783" lon="7.0349">
        <ele>433.8</ele>
        <time>2022-09-30T10:47:46Z</time>
      </trkpt>
      <trkpt lat="46.95785" lon="7.03495">
        <ele>433.9</ele>
        <time>2022-09-30T10:47:47Z</time>
      </trkpt>
      <trkpt lat="46.95787" lon="7.03501">
        <ele>433.9</ele>
        <time>2022-09-30T10:47:48Z</time>
      </trkpt>
      <trkpt lat="46.95789" lon="7.03505">
        <ele>433.9</ele>
        <time>2022-09-30T10:47:49Z</time>
      </trkpt>
      <trkpt lat="46.95791" lon="7.03511">
        <ele>434</ele>
        <time>2022-09-30T10:47:50Z</time>
      </trkpt>
      <trkpt lat="46.95793" lon="7.03516">
        <ele>434</ele>
        <time>2022-09-30T10:47:51Z</time>
      </trkpt>
      <trkpt lat="46.95795" lon="7.0352">
        <ele>434</ele>
        <time>2022-09-30T10:47:52Z</time>
      </trkpt>
      <trkpt lat="46.95797" lon="7.03525">
        <ele>434.1</ele>
        <time>2022-09-30T10:47:53Z</time>
      </trkpt>
      <trkpt lat="46.95799" lon="7.03529">
        <ele>434.1</ele>
        <time>2022-09-30T10:47:54Z</time>
      </trkpt>
      <trkpt lat="46.95801" lon="7.03534">
        <ele>434.2</ele>
        <time>2022-09-30T10:47:55Z</time>
      </trkpt>
      <trkpt lat="46.95803" lon="7.03539">
        <ele>434.3</ele>
        <time>2022-09-30T10:47:56Z</time>
      </trkpt>
      <trkpt lat="46.95804" lon="7.03543">
        <ele>434.3</ele>
        <time>2022-09-30T10:47:57Z</time>
      </trkpt>
      <trkpt lat="46.95807" lon="7.03548">
        <ele>434.3</ele>
        <time>2022-09-30T10:47:58Z</time>
      </trkpt>
      <trkpt lat="46.95808" lon="7.03553">
        <ele>434.3</ele>
        <time>2022-09-30T10:47:59Z</time>
      </trkpt>
      <trkpt lat="46.9581" lon="7.03558">
        <ele>434.3</ele>
        <time>2022-09-30T10:48:00Z</time>
      </trkpt>
      <trkpt lat="46.95812" lon="7.03562">
        <ele>434.3</ele>
        <time>2022-09-30T10:48:01Z</time>
      </trkpt>
      <trkpt lat="46.95814" lon="7.03566">
        <ele>434.4</ele>
        <time>2022-09-30T10:48:02Z</time>
      </trkpt>
      <trkpt lat="46.95815" lon="7.03571">
        <ele>434.4</ele>
        <time>2022-09-30T10:48:03Z</time>
      </trkpt>
      <trkpt lat="46.95817" lon="7.03578">
        <ele>434.4</ele>
        <time>2022-09-30T10:48:04Z</time>
      </trkpt>
      <trkpt lat="46.95819" lon="7.03582">
        <ele>434.4</ele>
        <time>2022-09-30T10:48:05Z</time>
      </trkpt>
      <trkpt lat="46.95821" lon="7.03586">
        <ele>434.5</ele>
        <time>2022-09-30T10:48:06Z</time>
      </trkpt>
      <trkpt lat="46.95823" lon="7.03591">
        <ele>434.5</ele>
        <time>2022-09-30T10:48:07Z</time>
      </trkpt>
      <trkpt lat="46.95825" lon="7.03597">
        <ele>434.5</ele>
        <time>2022-09-30T10:48:08Z</time>
      </trkpt>
      <trkpt lat="46.95827" lon="7.036">
        <ele>434.5</ele>
        <time>2022-09-30T10:48:09Z</time>
      </trkpt>
      <trkpt lat="46.95828" lon="7.03604">
        <ele>434.6</ele>
        <time>2022-09-30T10:48:10Z</time>
      </trkpt>
      <trkpt lat="46.9583" lon="7.03608">
        <ele>434.6</ele>
        <time>2022-09-30T10:48:11Z</time>
      </trkpt>
      <trkpt lat="46.95831" lon="7.03613">
        <ele>434.6</ele>
        <time>2022-09-30T10:48:12Z</time>
      </trkpt>
      <trkpt lat="46.95833" lon="7.03616">
        <ele>434.6</ele>
        <time>2022-09-30T10:48:13Z</time>
      </trkpt>
      <trkpt lat="46.95834" lon="7.03617">
        <ele>434.7</ele>
        <time>2022-09-30T10:48:14Z</time>
      </trkpt>
      <trkpt lat="46.95835" lon="7.03619">
        <ele>434.7</ele>
        <time>2022-09-30T10:48:15Z</time>
      </trkpt>
      <trkpt lat="46.95836" lon="7.03622">
        <ele>434.7</ele>
        <time>2022-09-30T10:48:16Z</time>
      </trkpt>
      <trkpt lat="46.95838" lon="7.03626">
        <ele>434.7</ele>
        <time>2022-09-30T10:48:17Z</time>
      </trkpt>
      <trkpt lat="46.95838" lon="7.03628">
        <ele>434.7</ele>
        <time>2022-09-30T10:48:18Z</time>
      </trkpt>
      <trkpt lat="46.9584" lon="7.03632">
        <ele>434.7</ele>
        <time>2022-09-30T10:48:19Z</time>
      </trkpt>
      <trkpt lat="46.95842" lon="7.03636">
        <ele>434.7</ele>
        <time>2022-09-30T10:48:20Z</time>
      </trkpt>
      <trkpt lat="46.95844" lon="7.0364">
        <ele>434.7</ele>
        <time>2022-09-30T10:48:21Z</time>
      </trkpt>
      <trkpt lat="46.95845" lon="7.03645">
        <ele>434.7</ele>
        <time>2022-09-30T10:48:22Z</time>
      </trkpt>
      <trkpt lat="46.95847" lon="7.0365">
        <ele>434.7</ele>
        <time>2022-09-30T10:48:23Z</time>
      </trkpt>
      <trkpt lat="46.95849" lon="7.03655">
        <ele>434.7</ele>
        <time>2022-09-30T10:48:24Z</time>
      </trkpt>
      <trkpt lat="46.95851" lon="7.03659">
        <ele>434.7</ele>
        <time>2022-09-30T10:48:25Z</time>
      </trkpt>
      <trkpt lat="46.95853" lon="7.03664">
        <ele>434.7</ele>
        <time>2022-09-30T10:48:26Z</time>
      </trkpt>
      <trkpt lat="46.95855" lon="7.03669">
        <ele>434.6</ele>
        <time>2022-09-30T10:48:27Z</time>
      </trkpt>
      <trkpt lat="46.95857" lon="7.03674">
        <ele>434.6</ele>
        <time>2022-09-30T10:48:28Z</time>
      </trkpt>
      <trkpt lat="46.95859" lon="7.03679">
        <ele>434.6</ele>
        <time>2022-09-30T10:48:29Z</time>
      </trkpt>
      <trkpt lat="46.95862" lon="7.03685">
        <ele>434.6</ele>
        <time>2022-09-30T10:48:30Z</time>
      </trkpt>
      <trkpt lat="46.95863" lon="7.0369">
        <ele>434.6</ele>
        <time>2022-09-30T10:48:31Z</time>
      </trkpt>
      <trkpt lat="46.95866" lon="7.03695">
        <ele>434.6</ele>
        <time>2022-09-30T10:48:32Z</time>
      </trkpt>
      <trkpt lat="46.95867" lon="7.037">
        <ele>434.6</ele>
        <time>2022-09-30T10:48:33Z</time>
      </trkpt>
      <trkpt lat="46.95869" lon="7.03706">
        <ele>434.6</ele>
        <time>2022-09-30T10:48:34Z</time>
      </trkpt>
      <trkpt lat="46.95872" lon="7.03711">
        <ele>434.6</ele>
        <time>2022-09-30T10:48:35Z</time>
      </trkpt>
      <trkpt lat="46.95873" lon="7.03717">
        <ele>434.6</ele>
        <time>2022-09-30T10:48:36Z</time>
      </trkpt>
      <trkpt lat="46.95876" lon="7.03722">
        <ele>434.6</ele>
        <time>2022-09-30T10:48:37Z</time>
      </trkpt>
      <trkpt lat="46.95878" lon="7.03727">
        <ele>434.6</ele>
        <time>2022-09-30T10:48:38Z</time>
      </trkpt>
      <trkpt lat="46.9588" lon="7.03733">
        <ele>434.6</ele>
        <time>2022-09-30T10:48:39Z</time>
      </trkpt>
      <trkpt lat="46.95883" lon="7.03738">
        <ele>434.6</ele>
        <time>2022-09-30T10:48:40Z</time>
      </trkpt>
      <trkpt lat="46.95885" lon="7.03744">
        <ele>434.6</ele>
        <time>2022-09-30T10:48:41Z</time>
      </trkpt>
      <trkpt lat="46.95887" lon="7.03749">
        <ele>434.6</ele>
        <time>2022-09-30T10:48:42Z</time>
      </trkpt>
      <trkpt lat="46.95889" lon="7.03754">
        <ele>434.6</ele>
        <time>2022-09-30T10:48:43Z</time>
      </trkpt>
      <trkpt lat="46.95891" lon="7.0376">
        <ele>434.6</ele>
        <time>2022-09-30T10:48:44Z</time>
      </trkpt>
      <trkpt lat="46.95893" lon="7.03765">
        <ele>434.6</ele>
        <time>2022-09-30T10:48:45Z</time>
      </trkpt>
      <trkpt lat="46.95896" lon="7.0377">
        <ele>434.6</ele>
        <time>2022-09-30T10:48:46Z</time>
      </trkpt>
      <trkpt lat="46.95898" lon="7.03775">
        <ele>434.6</ele>
        <time>2022-09-30T10:48:47Z</time>
      </trkpt>
      <trkpt lat="46.959" lon="7.0378">
        <ele>434.6</ele>
        <time>2022-09-30T10:48:48Z</time>
      </trkpt>
      <trkpt lat="46.95902" lon="7.03785">
        <ele>434.6</ele>
        <time>2022-09-30T10:48:49Z</time>
      </trkpt>
      <trkpt lat="46.95904" lon="7.0379">
        <ele>434.6</ele>
        <time>2022-09-30T10:48:50Z</time>
      </trkpt>
      <trkpt lat="46.95906" lon="7.03795">
        <ele>434.6</ele>
        <time>2022-09-30T10:48:51Z</time>
      </trkpt>
      <trkpt lat="46.95908" lon="7.038">
        <ele>434.6</ele>
        <time>2022-09-30T10:48:52Z</time>
      </trkpt>
      <trkpt lat="46.9591" lon="7.03807">
        <ele>434.6</ele>
        <time>2022-09-30T10:48:53Z</time>
      </trkpt>
      <trkpt lat="46.95913" lon="7.03812">
        <ele>434.6</ele>
        <time>2022-09-30T10:48:54Z</time>
      </trkpt>
      <trkpt lat="46.95915" lon="7.03818">
        <ele>434.6</ele>
        <time>2022-09-30T10:48:55Z</time>
      </trkpt>
      <trkpt lat="46.95917" lon="7.03823">
        <ele>434.6</ele>
        <time>2022-09-30T10:48:56Z</time>
      </trkpt>
      <trkpt lat="46.95919" lon="7.0383">
        <ele>434.6</ele>
        <time>2022-09-30T10:48:57Z</time>
      </trkpt>
      <trkpt lat="46.95922" lon="7.03835">
        <ele>434.6</ele>
        <time>2022-09-30T10:48:58Z</time>
      </trkpt>
      <trkpt lat="46.95924" lon="7.0384">
        <ele>434.6</ele>
        <time>2022-09-30T10:48:59Z</time>
      </trkpt>
      <trkpt lat="46.95926" lon="7.03846">
        <ele>434.6</ele>
        <time>2022-09-30T10:49:00Z</time>
      </trkpt>
      <trkpt lat="46.95929" lon="7.03851">
        <ele>434.6</ele>
        <time>2022-09-30T10:49:01Z</time>
      </trkpt>
      <trkpt lat="46.9593" lon="7.03857">
        <ele>434.6</ele>
        <time>2022-09-30T10:49:02Z</time>
      </trkpt>
      <trkpt lat="46.95933" lon="7.03862">
        <ele>434.5</ele>
        <time>2022-09-30T10:49:03Z</time>
      </trkpt>
      <trkpt lat="46.95935" lon="7.03868">
        <ele>434.5</ele>
        <time>2022-09-30T10:49:04Z</time>
      </trkpt>
      <trkpt lat="46.95937" lon="7.03874">
        <ele>434.4</ele>
        <time>2022-09-30T10:49:05Z</time>
      </trkpt>
      <trkpt lat="46.95939" lon="7.03879">
        <ele>434.4</ele>
        <time>2022-09-30T10:49:06Z</time>
      </trkpt>
      <trkpt lat="46.95942" lon="7.03886">
        <ele>434.3</ele>
        <time>2022-09-30T10:49:07Z</time>
      </trkpt>
      <trkpt lat="46.95944" lon="7.03892">
        <ele>434.3</ele>
        <time>2022-09-30T10:49:08Z</time>
      </trkpt>
      <trkpt lat="46.95947" lon="7.039">
        <ele>434.2</ele>
        <time>2022-09-30T10:49:09Z</time>
      </trkpt>
      <trkpt lat="46.95949" lon="7.03906">
        <ele>434.1</ele>
        <time>2022-09-30T10:49:10Z</time>
      </trkpt>
      <trkpt lat="46.95952" lon="7.03913">
        <ele>434.1</ele>
        <time>2022-09-30T10:49:11Z</time>
      </trkpt>
      <trkpt lat="46.95955" lon="7.0392">
        <ele>434.1</ele>
        <time>2022-09-30T10:49:12Z</time>
      </trkpt>
      <trkpt lat="46.95958" lon="7.03926">
        <ele>434</ele>
        <time>2022-09-30T10:49:13Z</time>
      </trkpt>
      <trkpt lat="46.9596" lon="7.03933">
        <ele>434</ele>
        <time>2022-09-30T10:49:14Z</time>
      </trkpt>
      <trkpt lat="46.95963" lon="7.0394">
        <ele>434</ele>
        <time>2022-09-30T10:49:15Z</time>
      </trkpt>
      <trkpt lat="46.95966" lon="7.03946">
        <ele>433.9</ele>
        <time>2022-09-30T10:49:16Z</time>
      </trkpt>
      <trkpt lat="46.95969" lon="7.03953">
        <ele>433.9</ele>
        <time>2022-09-30T10:49:17Z</time>
      </trkpt>
      <trkpt lat="46.95971" lon="7.0396">
        <ele>433.8</ele>
        <time>2022-09-30T10:49:18Z</time>
      </trkpt>
      <trkpt lat="46.95974" lon="7.03967">
        <ele>433.7</ele>
        <time>2022-09-30T10:49:19Z</time>
      </trkpt>
      <trkpt lat="46.95976" lon="7.03973">
        <ele>433.7</ele>
        <time>2022-09-30T10:49:20Z</time>
      </trkpt>
      <trkpt lat="46.95979" lon="7.03979">
        <ele>433.6</ele>
        <time>2022-09-30T10:49:21Z</time>
      </trkpt>
      <trkpt lat="46.95981" lon="7.03986">
        <ele>433.6</ele>
        <time>2022-09-30T10:49:22Z</time>
      </trkpt>
      <trkpt lat="46.95984" lon="7.03993">
        <ele>433.5</ele>
        <time>2022-09-30T10:49:23Z</time>
      </trkpt>
      <trkpt lat="46.95987" lon="7.04">
        <ele>433.4</ele>
        <time>2022-09-30T10:49:24Z</time>
      </trkpt>
      <trkpt lat="46.9599" lon="7.04007">
        <ele>433.3</ele>
        <time>2022-09-30T10:49:25Z</time>
      </trkpt>
      <trkpt lat="46.95993" lon="7.04014">
        <ele>433.3</ele>
        <time>2022-09-30T10:49:26Z</time>
      </trkpt>
      <trkpt lat="46.95995" lon="7.0402">
        <ele>433.2</ele>
        <time>2022-09-30T10:49:27Z</time>
      </trkpt>
      <trkpt lat="46.95998" lon="7.04027">
        <ele>433.2</ele>
        <time>2022-09-30T10:49:28Z</time>
      </trkpt>
      <trkpt lat="46.96001" lon="7.04035">
        <ele>433.2</ele>
        <time>2022-09-30T10:49:29Z</time>
      </trkpt>
      <trkpt lat="46.96003" lon="7.04042">
        <ele>433.1</ele>
        <time>2022-09-30T10:49:30Z</time>
      </trkpt>
      <trkpt lat="46.96006" lon="7.04049">
        <ele>433.1</ele>
        <time>2022-09-30T10:49:31Z</time>
      </trkpt>
      <trkpt lat="46.96009" lon="7.04056">
        <ele>433</ele>
        <time>2022-09-30T10:49:32Z</time>
      </trkpt>
      <trkpt lat="46.96012" lon="7.04063">
        <ele>433</ele>
        <time>2022-09-30T10:49:33Z</time>
      </trkpt>
      <trkpt lat="46.96014" lon="7.0407">
        <ele>433</ele>
        <time>2022-09-30T10:49:34Z</time>
      </trkpt>
      <trkpt lat="46.96018" lon="7.04078">
        <ele>432.9</ele>
        <time>2022-09-30T10:49:35Z</time>
      </trkpt>
      <trkpt lat="46.96021" lon="7.04083">
        <ele>432.9</ele>
        <time>2022-09-30T10:49:36Z</time>
      </trkpt>
      <trkpt lat="46.96023" lon="7.04089">
        <ele>432.9</ele>
        <time>2022-09-30T10:49:37Z</time>
      </trkpt>
      <trkpt lat="46.96025" lon="7.04095">
        <ele>432.8</ele>
        <time>2022-09-30T10:49:39Z</time>
      </trkpt>
      <trkpt lat="46.96028" lon="7.04102">
        <ele>432.8</ele>
        <time>2022-09-30T10:49:40Z</time>
      </trkpt>
      <trkpt lat="46.96031" lon="7.04109">
        <ele>432.8</ele>
        <time>2022-09-30T10:49:41Z</time>
      </trkpt>
      <trkpt lat="46.96033" lon="7.04115">
        <ele>432.8</ele>
        <time>2022-09-30T10:49:42Z</time>
      </trkpt>
      <trkpt lat="46.96035" lon="7.04122">
        <ele>432.8</ele>
        <time>2022-09-30T10:49:43Z</time>
      </trkpt>
      <trkpt lat="46.96038" lon="7.04128">
        <ele>432.7</ele>
        <time>2022-09-30T10:49:44Z</time>
      </trkpt>
      <trkpt lat="46.9604" lon="7.04133">
        <ele>432.7</ele>
        <time>2022-09-30T10:49:45Z</time>
      </trkpt>
      <trkpt lat="46.96043" lon="7.04139">
        <ele>432.7</ele>
        <time>2022-09-30T10:49:46Z</time>
      </trkpt>
      <trkpt lat="46.96045" lon="7.04145">
        <ele>432.7</ele>
        <time>2022-09-30T10:49:47Z</time>
      </trkpt>
      <trkpt lat="46.96049" lon="7.04155">
        <ele>432.7</ele>
        <time>2022-09-30T10:49:48Z</time>
      </trkpt>
      <trkpt lat="46.96051" lon="7.04161">
        <ele>432.7</ele>
        <time>2022-09-30T10:49:49Z</time>
      </trkpt>
      <trkpt lat="46.96053" lon="7.04166">
        <ele>432.6</ele>
        <time>2022-09-30T10:49:50Z</time>
      </trkpt>
      <trkpt lat="46.96055" lon="7.04172">
        <ele>432.6</ele>
        <time>2022-09-30T10:49:51Z</time>
      </trkpt>
      <trkpt lat="46.96058" lon="7.04179">
        <ele>432.6</ele>
        <time>2022-09-30T10:49:52Z</time>
      </trkpt>
      <trkpt lat="46.9606" lon="7.04184">
        <ele>432.6</ele>
        <time>2022-09-30T10:49:53Z</time>
      </trkpt>
      <trkpt lat="46.96063" lon="7.0419">
        <ele>432.6</ele>
        <time>2022-09-30T10:49:55Z</time>
      </trkpt>
      <trkpt lat="46.96067" lon="7.04202">
        <ele>432.5</ele>
        <time>2022-09-30T10:49:56Z</time>
      </trkpt>
      <trkpt lat="46.96069" lon="7.04207">
        <ele>432.5</ele>
        <time>2022-09-30T10:49:57Z</time>
      </trkpt>
      <trkpt lat="46.96072" lon="7.04213">
        <ele>432.5</ele>
        <time>2022-09-30T10:49:58Z</time>
      </trkpt>
      <trkpt lat="46.96074" lon="7.04219">
        <ele>432.5</ele>
        <time>2022-09-30T10:49:59Z</time>
      </trkpt>
      <trkpt lat="46.96076" lon="7.04224">
        <ele>432.5</ele>
        <time>2022-09-30T10:50:00Z</time>
      </trkpt>
      <trkpt lat="46.96078" lon="7.0423">
        <ele>432.4</ele>
        <time>2022-09-30T10:50:01Z</time>
      </trkpt>
      <trkpt lat="46.96081" lon="7.04234">
        <ele>432.4</ele>
        <time>2022-09-30T10:50:02Z</time>
      </trkpt>
      <trkpt lat="46.96083" lon="7.04239">
        <ele>432.4</ele>
        <time>2022-09-30T10:50:03Z</time>
      </trkpt>
      <trkpt lat="46.96085" lon="7.04245">
        <ele>432.4</ele>
        <time>2022-09-30T10:50:04Z</time>
      </trkpt>
      <trkpt lat="46.96087" lon="7.04251">
        <ele>432.4</ele>
        <time>2022-09-30T10:50:05Z</time>
      </trkpt>
      <trkpt lat="46.9609" lon="7.04256">
        <ele>432.4</ele>
        <time>2022-09-30T10:50:06Z</time>
      </trkpt>
      <trkpt lat="46.96092" lon="7.04262">
        <ele>432.3</ele>
        <time>2022-09-30T10:50:07Z</time>
      </trkpt>
      <trkpt lat="46.96095" lon="7.04268">
        <ele>432.3</ele>
        <time>2022-09-30T10:50:08Z</time>
      </trkpt>
      <trkpt lat="46.96097" lon="7.04274">
        <ele>432.3</ele>
        <time>2022-09-30T10:50:09Z</time>
      </trkpt>
      <trkpt lat="46.96099" lon="7.04279">
        <ele>432.3</ele>
        <time>2022-09-30T10:50:10Z</time>
      </trkpt>
      <trkpt lat="46.96101" lon="7.04284">
        <ele>432.3</ele>
        <time>2022-09-30T10:50:11Z</time>
      </trkpt>
      <trkpt lat="46.96103" lon="7.0429">
        <ele>432.3</ele>
        <time>2022-09-30T10:50:12Z</time>
      </trkpt>
      <trkpt lat="46.96105" lon="7.04295">
        <ele>432.3</ele>
        <time>2022-09-30T10:50:13Z</time>
      </trkpt>
      <trkpt lat="46.96109" lon="7.043">
        <ele>432.3</ele>
        <time>2022-09-30T10:50:14Z</time>
      </trkpt>
      <trkpt lat="46.96109" lon="7.04306">
        <ele>432.3</ele>
        <time>2022-09-30T10:50:15Z</time>
      </trkpt>
      <trkpt lat="46.96112" lon="7.04312">
        <ele>432.3</ele>
        <time>2022-09-30T10:50:16Z</time>
      </trkpt>
      <trkpt lat="46.96115" lon="7.04317">
        <ele>432.3</ele>
        <time>2022-09-30T10:50:17Z</time>
      </trkpt>
      <trkpt lat="46.96116" lon="7.04322">
        <ele>432.3</ele>
        <time>2022-09-30T10:50:18Z</time>
      </trkpt>
      <trkpt lat="46.96119" lon="7.04328">
        <ele>432.3</ele>
        <time>2022-09-30T10:50:19Z</time>
      </trkpt>
      <trkpt lat="46.96122" lon="7.04334">
        <ele>432.3</ele>
        <time>2022-09-30T10:50:20Z</time>
      </trkpt>
      <trkpt lat="46.96123" lon="7.0434">
        <ele>432.3</ele>
        <time>2022-09-30T10:50:21Z</time>
      </trkpt>
      <trkpt lat="46.96125" lon="7.04345">
        <ele>432.3</ele>
        <time>2022-09-30T10:50:22Z</time>
      </trkpt>
      <trkpt lat="46.96127" lon="7.04351">
        <ele>432.3</ele>
        <time>2022-09-30T10:50:23Z</time>
      </trkpt>
      <trkpt lat="46.9613" lon="7.04357">
        <ele>432.3</ele>
        <time>2022-09-30T10:50:24Z</time>
      </trkpt>
      <trkpt lat="46.96133" lon="7.04363">
        <ele>432.3</ele>
        <time>2022-09-30T10:50:25Z</time>
      </trkpt>
      <trkpt lat="46.96135" lon="7.04368">
        <ele>432.3</ele>
        <time>2022-09-30T10:50:26Z</time>
      </trkpt>
      <trkpt lat="46.96137" lon="7.04374">
        <ele>432.3</ele>
        <time>2022-09-30T10:50:27Z</time>
      </trkpt>
      <trkpt lat="46.96139" lon="7.0438">
        <ele>432.3</ele>
        <time>2022-09-30T10:50:28Z</time>
      </trkpt>
      <trkpt lat="46.96142" lon="7.04386">
        <ele>432.3</ele>
        <time>2022-09-30T10:50:29Z</time>
      </trkpt>
      <trkpt lat="46.96144" lon="7.04391">
        <ele>432.3</ele>
        <time>2022-09-30T10:50:30Z</time>
      </trkpt>
      <trkpt lat="46.96146" lon="7.04397">
        <ele>432.3</ele>
        <time>2022-09-30T10:50:31Z</time>
      </trkpt>
      <trkpt lat="46.96149" lon="7.04402">
        <ele>432.3</ele>
        <time>2022-09-30T10:50:32Z</time>
      </trkpt>
      <trkpt lat="46.9615" lon="7.04408">
        <ele>432.3</ele>
        <time>2022-09-30T10:50:33Z</time>
      </trkpt>
      <trkpt lat="46.96153" lon="7.04414">
        <ele>432.3</ele>
        <time>2022-09-30T10:50:34Z</time>
      </trkpt>
      <trkpt lat="46.96156" lon="7.0442">
        <ele>432.3</ele>
        <time>2022-09-30T10:50:35Z</time>
      </trkpt>
      <trkpt lat="46.96158" lon="7.04425">
        <ele>432.3</ele>
        <time>2022-09-30T10:50:36Z</time>
      </trkpt>
      <trkpt lat="46.9616" lon="7.0443">
        <ele>432.3</ele>
        <time>2022-09-30T10:50:37Z</time>
      </trkpt>
      <trkpt lat="46.96162" lon="7.04437">
        <ele>432.3</ele>
        <time>2022-09-30T10:50:38Z</time>
      </trkpt>
      <trkpt lat="46.96165" lon="7.04442">
        <ele>432.3</ele>
        <time>2022-09-30T10:50:39Z</time>
      </trkpt>
      <trkpt lat="46.96167" lon="7.04447">
        <ele>432.3</ele>
        <time>2022-09-30T10:50:40Z</time>
      </trkpt>
      <trkpt lat="46.96169" lon="7.04453">
        <ele>432.3</ele>
        <time>2022-09-30T10:50:41Z</time>
      </trkpt>
      <trkpt lat="46.96171" lon="7.04459">
        <ele>432.3</ele>
        <time>2022-09-30T10:50:42Z</time>
      </trkpt>
      <trkpt lat="46.96174" lon="7.04465">
        <ele>432.3</ele>
        <time>2022-09-30T10:50:43Z</time>
      </trkpt>
      <trkpt lat="46.96176" lon="7.0447">
        <ele>432.3</ele>
        <time>2022-09-30T10:50:44Z</time>
      </trkpt>
      <trkpt lat="46.96178" lon="7.04476">
        <ele>432.3</ele>
        <time>2022-09-30T10:50:45Z</time>
      </trkpt>
      <trkpt lat="46.9618" lon="7.04482">
        <ele>432.3</ele>
        <time>2022-09-30T10:50:46Z</time>
      </trkpt>
      <trkpt lat="46.96182" lon="7.04487">
        <ele>432.3</ele>
        <time>2022-09-30T10:50:47Z</time>
      </trkpt>
      <trkpt lat="46.96184" lon="7.04493">
        <ele>432.3</ele>
        <time>2022-09-30T10:50:48Z</time>
      </trkpt>
      <trkpt lat="46.96187" lon="7.04498">
        <ele>432.3</ele>
        <time>2022-09-30T10:50:49Z</time>
      </trkpt>
      <trkpt lat="46.96189" lon="7.04503">
        <ele>432.3</ele>
        <time>2022-09-30T10:50:50Z</time>
      </trkpt>
      <trkpt lat="46.96191" lon="7.04508">
        <ele>432.3</ele>
        <time>2022-09-30T10:50:51Z</time>
      </trkpt>
      <trkpt lat="46.96193" lon="7.04512">
        <ele>432.3</ele>
        <time>2022-09-30T10:50:52Z</time>
      </trkpt>
      <trkpt lat="46.96195" lon="7.04517">
        <ele>432.3</ele>
        <time>2022-09-30T10:50:53Z</time>
      </trkpt>
      <trkpt lat="46.96197" lon="7.04522">
        <ele>432.3</ele>
        <time>2022-09-30T10:50:54Z</time>
      </trkpt>
      <trkpt lat="46.96199" lon="7.04527">
        <ele>432.3</ele>
        <time>2022-09-30T10:50:55Z</time>
      </trkpt>
      <trkpt lat="46.96201" lon="7.04532">
        <ele>432.3</ele>
        <time>2022-09-30T10:50:56Z</time>
      </trkpt>
      <trkpt lat="46.96203" lon="7.04537">
        <ele>432.2</ele>
        <time>2022-09-30T10:50:57Z</time>
      </trkpt>
      <trkpt lat="46.96205" lon="7.04542">
        <ele>432.2</ele>
        <time>2022-09-30T10:50:58Z</time>
      </trkpt>
      <trkpt lat="46.96207" lon="7.04547">
        <ele>432.2</ele>
        <time>2022-09-30T10:50:59Z</time>
      </trkpt>
      <trkpt lat="46.96209" lon="7.04552">
        <ele>432.2</ele>
        <time>2022-09-30T10:51:00Z</time>
      </trkpt>
      <trkpt lat="46.96211" lon="7.04558">
        <ele>432.2</ele>
        <time>2022-09-30T10:51:01Z</time>
      </trkpt>
      <trkpt lat="46.96213" lon="7.04563">
        <ele>432.2</ele>
        <time>2022-09-30T10:51:02Z</time>
      </trkpt>
      <trkpt lat="46.96215" lon="7.04569">
        <ele>432.2</ele>
        <time>2022-09-30T10:51:03Z</time>
      </trkpt>
      <trkpt lat="46.96217" lon="7.04575">
        <ele>432.3</ele>
        <time>2022-09-30T10:51:04Z</time>
      </trkpt>
      <trkpt lat="46.9622" lon="7.04581">
        <ele>432.3</ele>
        <time>2022-09-30T10:51:05Z</time>
      </trkpt>
      <trkpt lat="46.96222" lon="7.04586">
        <ele>432.3</ele>
        <time>2022-09-30T10:51:06Z</time>
      </trkpt>
      <trkpt lat="46.96225" lon="7.04592">
        <ele>432.3</ele>
        <time>2022-09-30T10:51:07Z</time>
      </trkpt>
      <trkpt lat="46.96227" lon="7.04597">
        <ele>432.3</ele>
        <time>2022-09-30T10:51:08Z</time>
      </trkpt>
      <trkpt lat="46.96229" lon="7.04603">
        <ele>432.3</ele>
        <time>2022-09-30T10:51:09Z</time>
      </trkpt>
      <trkpt lat="46.96232" lon="7.04608">
        <ele>432.3</ele>
        <time>2022-09-30T10:51:10Z</time>
      </trkpt>
      <trkpt lat="46.96233" lon="7.04614">
        <ele>432.3</ele>
        <time>2022-09-30T10:51:11Z</time>
      </trkpt>
      <trkpt lat="46.96235" lon="7.0462">
        <ele>432.3</ele>
        <time>2022-09-30T10:51:12Z</time>
      </trkpt>
      <trkpt lat="46.96238" lon="7.04626">
        <ele>432.3</ele>
        <time>2022-09-30T10:51:13Z</time>
      </trkpt>
      <trkpt lat="46.9624" lon="7.04631">
        <ele>432.3</ele>
        <time>2022-09-30T10:51:14Z</time>
      </trkpt>
      <trkpt lat="46.96242" lon="7.04637">
        <ele>432.3</ele>
        <time>2022-09-30T10:51:15Z</time>
      </trkpt>
      <trkpt lat="46.96244" lon="7.04641">
        <ele>432.3</ele>
        <time>2022-09-30T10:51:16Z</time>
      </trkpt>
      <trkpt lat="46.96247" lon="7.04647">
        <ele>432.3</ele>
        <time>2022-09-30T10:51:17Z</time>
      </trkpt>
      <trkpt lat="46.96249" lon="7.04654">
        <ele>432.3</ele>
        <time>2022-09-30T10:51:18Z</time>
      </trkpt>
      <trkpt lat="46.96251" lon="7.04659">
        <ele>432.3</ele>
        <time>2022-09-30T10:51:19Z</time>
      </trkpt>
      <trkpt lat="46.96253" lon="7.04664">
        <ele>432.3</ele>
        <time>2022-09-30T10:51:20Z</time>
      </trkpt>
      <trkpt lat="46.96255" lon="7.04669">
        <ele>432.3</ele>
        <time>2022-09-30T10:51:21Z</time>
      </trkpt>
      <trkpt lat="46.96258" lon="7.04675">
        <ele>432.3</ele>
        <time>2022-09-30T10:51:22Z</time>
      </trkpt>
      <trkpt lat="46.9626" lon="7.0468">
        <ele>432.3</ele>
        <time>2022-09-30T10:51:23Z</time>
      </trkpt>
      <trkpt lat="46.96262" lon="7.04685">
        <ele>432.3</ele>
        <time>2022-09-30T10:51:24Z</time>
      </trkpt>
      <trkpt lat="46.96264" lon="7.04691">
        <ele>432.3</ele>
        <time>2022-09-30T10:51:25Z</time>
      </trkpt>
      <trkpt lat="46.96266" lon="7.04696">
        <ele>432.3</ele>
        <time>2022-09-30T10:51:26Z</time>
      </trkpt>
      <trkpt lat="46.96269" lon="7.04702">
        <ele>432.3</ele>
        <time>2022-09-30T10:51:27Z</time>
      </trkpt>
      <trkpt lat="46.96271" lon="7.04707">
        <ele>432.3</ele>
        <time>2022-09-30T10:51:28Z</time>
      </trkpt>
      <trkpt lat="46.96273" lon="7.04712">
        <ele>432.3</ele>
        <time>2022-09-30T10:51:29Z</time>
      </trkpt>
      <trkpt lat="46.96275" lon="7.04717">
        <ele>432.3</ele>
        <time>2022-09-30T10:51:30Z</time>
      </trkpt>
      <trkpt lat="46.96278" lon="7.04723">
        <ele>432.3</ele>
        <time>2022-09-30T10:51:31Z</time>
      </trkpt>
      <trkpt lat="46.96279" lon="7.04728">
        <ele>432.3</ele>
        <time>2022-09-30T10:51:32Z</time>
      </trkpt>
      <trkpt lat="46.96282" lon="7.04733">
        <ele>432.4</ele>
        <time>2022-09-30T10:51:33Z</time>
      </trkpt>
      <trkpt lat="46.96284" lon="7.04739">
        <ele>432.4</ele>
        <time>2022-09-30T10:51:34Z</time>
      </trkpt>
      <trkpt lat="46.96286" lon="7.04744">
        <ele>432.4</ele>
        <time>2022-09-30T10:51:35Z</time>
      </trkpt>
      <trkpt lat="46.96288" lon="7.0475">
        <ele>432.4</ele>
        <time>2022-09-30T10:51:36Z</time>
      </trkpt>
      <trkpt lat="46.9629" lon="7.04755">
        <ele>432.4</ele>
        <time>2022-09-30T10:51:37Z</time>
      </trkpt>
      <trkpt lat="46.96292" lon="7.04761">
        <ele>432.4</ele>
        <time>2022-09-30T10:51:38Z</time>
      </trkpt>
      <trkpt lat="46.96294" lon="7.04766">
        <ele>432.4</ele>
        <time>2022-09-30T10:51:39Z</time>
      </trkpt>
      <trkpt lat="46.96296" lon="7.04771">
        <ele>432.4</ele>
        <time>2022-09-30T10:51:40Z</time>
      </trkpt>
      <trkpt lat="46.96298" lon="7.04776">
        <ele>432.4</ele>
        <time>2022-09-30T10:51:41Z</time>
      </trkpt>
      <trkpt lat="46.963" lon="7.04782">
        <ele>432.4</ele>
        <time>2022-09-30T10:51:42Z</time>
      </trkpt>
      <trkpt lat="46.96302" lon="7.04786">
        <ele>432.5</ele>
        <time>2022-09-30T10:51:43Z</time>
      </trkpt>
      <trkpt lat="46.96305" lon="7.04793">
        <ele>432.5</ele>
        <time>2022-09-30T10:51:44Z</time>
      </trkpt>
      <trkpt lat="46.96307" lon="7.04797">
        <ele>432.5</ele>
        <time>2022-09-30T10:51:45Z</time>
      </trkpt>
      <trkpt lat="46.96309" lon="7.04803">
        <ele>432.5</ele>
        <time>2022-09-30T10:51:47Z</time>
      </trkpt>
      <trkpt lat="46.96311" lon="7.04808">
        <ele>432.5</ele>
        <time>2022-09-30T10:51:48Z</time>
      </trkpt>
      <trkpt lat="46.96313" lon="7.04814">
        <ele>432.5</ele>
        <time>2022-09-30T10:51:49Z</time>
      </trkpt>
      <trkpt lat="46.96318" lon="7.04825">
        <ele>432.5</ele>
        <time>2022-09-30T10:51:50Z</time>
      </trkpt>
      <trkpt lat="46.9632" lon="7.04831">
        <ele>432.5</ele>
        <time>2022-09-30T10:51:51Z</time>
      </trkpt>
      <trkpt lat="46.96322" lon="7.04837">
        <ele>432.5</ele>
        <time>2022-09-30T10:51:52Z</time>
      </trkpt>
      <trkpt lat="46.96325" lon="7.04843">
        <ele>432.5</ele>
        <time>2022-09-30T10:51:53Z</time>
      </trkpt>
      <trkpt lat="46.96327" lon="7.04848">
        <ele>432.5</ele>
        <time>2022-09-30T10:51:54Z</time>
      </trkpt>
      <trkpt lat="46.96329" lon="7.04854">
        <ele>432.5</ele>
        <time>2022-09-30T10:51:55Z</time>
      </trkpt>
      <trkpt lat="46.96331" lon="7.04859">
        <ele>432.6</ele>
        <time>2022-09-30T10:51:56Z</time>
      </trkpt>
      <trkpt lat="46.96333" lon="7.04866">
        <ele>432.6</ele>
        <time>2022-09-30T10:51:57Z</time>
      </trkpt>
      <trkpt lat="46.96336" lon="7.04872">
        <ele>432.6</ele>
        <time>2022-09-30T10:51:58Z</time>
      </trkpt>
      <trkpt lat="46.96338" lon="7.04877">
        <ele>432.6</ele>
        <time>2022-09-30T10:51:59Z</time>
      </trkpt>
      <trkpt lat="46.96341" lon="7.04883">
        <ele>432.6</ele>
        <time>2022-09-30T10:52:00Z</time>
      </trkpt>
      <trkpt lat="46.96343" lon="7.04888">
        <ele>432.6</ele>
        <time>2022-09-30T10:52:01Z</time>
      </trkpt>
      <trkpt lat="46.96345" lon="7.04894">
        <ele>432.6</ele>
        <time>2022-09-30T10:52:03Z</time>
      </trkpt>
      <trkpt lat="46.96348" lon="7.049">
        <ele>432.6</ele>
        <time>2022-09-30T10:52:04Z</time>
      </trkpt>
      <trkpt lat="46.96351" lon="7.04906">
        <ele>432.6</ele>
        <time>2022-09-30T10:52:05Z</time>
      </trkpt>
      <trkpt lat="46.96353" lon="7.04911">
        <ele>432.6</ele>
        <time>2022-09-30T10:52:06Z</time>
      </trkpt>
      <trkpt lat="46.96355" lon="7.04918">
        <ele>432.6</ele>
        <time>2022-09-30T10:52:07Z</time>
      </trkpt>
      <trkpt lat="46.96358" lon="7.04924">
        <ele>432.6</ele>
        <time>2022-09-30T10:52:08Z</time>
      </trkpt>
      <trkpt lat="46.9636" lon="7.0493">
        <ele>432.6</ele>
        <time>2022-09-30T10:52:09Z</time>
      </trkpt>
      <trkpt lat="46.96362" lon="7.04936">
        <ele>432.6</ele>
        <time>2022-09-30T10:52:10Z</time>
      </trkpt>
      <trkpt lat="46.96365" lon="7.04943">
        <ele>432.6</ele>
        <time>2022-09-30T10:52:11Z</time>
      </trkpt>
      <trkpt lat="46.96367" lon="7.04948">
        <ele>432.6</ele>
        <time>2022-09-30T10:52:12Z</time>
      </trkpt>
      <trkpt lat="46.96369" lon="7.04954">
        <ele>432.6</ele>
        <time>2022-09-30T10:52:13Z</time>
      </trkpt>
      <trkpt lat="46.96371" lon="7.04959">
        <ele>432.6</ele>
        <time>2022-09-30T10:52:14Z</time>
      </trkpt>
      <trkpt lat="46.96374" lon="7.04965">
        <ele>432.7</ele>
        <time>2022-09-30T10:52:15Z</time>
      </trkpt>
      <trkpt lat="46.96376" lon="7.0497">
        <ele>432.7</ele>
        <time>2022-09-30T10:52:16Z</time>
      </trkpt>
      <trkpt lat="46.96378" lon="7.04976">
        <ele>432.7</ele>
        <time>2022-09-30T10:52:17Z</time>
      </trkpt>
      <trkpt lat="46.96381" lon="7.04982">
        <ele>432.7</ele>
        <time>2022-09-30T10:52:18Z</time>
      </trkpt>
      <trkpt lat="46.96383" lon="7.04988">
        <ele>432.7</ele>
        <time>2022-09-30T10:52:19Z</time>
      </trkpt>
      <trkpt lat="46.96386" lon="7.04994">
        <ele>432.7</ele>
        <time>2022-09-30T10:52:20Z</time>
      </trkpt>
      <trkpt lat="46.96388" lon="7.05">
        <ele>432.7</ele>
        <time>2022-09-30T10:52:21Z</time>
      </trkpt>
      <trkpt lat="46.9639" lon="7.05006">
        <ele>432.7</ele>
        <time>2022-09-30T10:52:22Z</time>
      </trkpt>
      <trkpt lat="46.96393" lon="7.05011">
        <ele>432.7</ele>
        <time>2022-09-30T10:52:23Z</time>
      </trkpt>
      <trkpt lat="46.96395" lon="7.05017">
        <ele>432.7</ele>
        <time>2022-09-30T10:52:24Z</time>
      </trkpt>
      <trkpt lat="46.96398" lon="7.05024">
        <ele>432.7</ele>
        <time>2022-09-30T10:52:25Z</time>
      </trkpt>
      <trkpt lat="46.964" lon="7.0503">
        <ele>432.7</ele>
        <time>2022-09-30T10:52:26Z</time>
      </trkpt>
      <trkpt lat="46.96403" lon="7.05036">
        <ele>432.7</ele>
        <time>2022-09-30T10:52:27Z</time>
      </trkpt>
      <trkpt lat="46.96405" lon="7.05042">
        <ele>432.7</ele>
        <time>2022-09-30T10:52:28Z</time>
      </trkpt>
      <trkpt lat="46.96407" lon="7.05047">
        <ele>432.7</ele>
        <time>2022-09-30T10:52:29Z</time>
      </trkpt>
      <trkpt lat="46.96409" lon="7.05053">
        <ele>432.7</ele>
        <time>2022-09-30T10:52:30Z</time>
      </trkpt>
      <trkpt lat="46.96412" lon="7.05058">
        <ele>432.7</ele>
        <time>2022-09-30T10:52:31Z</time>
      </trkpt>
      <trkpt lat="46.96413" lon="7.05064">
        <ele>432.7</ele>
        <time>2022-09-30T10:52:32Z</time>
      </trkpt>
      <trkpt lat="46.96416" lon="7.0507">
        <ele>432.7</ele>
        <time>2022-09-30T10:52:33Z</time>
      </trkpt>
      <trkpt lat="46.96419" lon="7.05076">
        <ele>432.7</ele>
        <time>2022-09-30T10:52:34Z</time>
      </trkpt>
      <trkpt lat="46.96421" lon="7.05082">
        <ele>432.7</ele>
        <time>2022-09-30T10:52:35Z</time>
      </trkpt>
      <trkpt lat="46.96423" lon="7.05088">
        <ele>432.7</ele>
        <time>2022-09-30T10:52:36Z</time>
      </trkpt>
      <trkpt lat="46.96426" lon="7.05093">
        <ele>432.7</ele>
        <time>2022-09-30T10:52:37Z</time>
      </trkpt>
      <trkpt lat="46.96428" lon="7.05099">
        <ele>432.7</ele>
        <time>2022-09-30T10:52:38Z</time>
      </trkpt>
      <trkpt lat="46.96429" lon="7.05105">
        <ele>432.7</ele>
        <time>2022-09-30T10:52:39Z</time>
      </trkpt>
      <trkpt lat="46.96432" lon="7.0511">
        <ele>432.7</ele>
        <time>2022-09-30T10:52:40Z</time>
      </trkpt>
      <trkpt lat="46.96434" lon="7.05115">
        <ele>432.7</ele>
        <time>2022-09-30T10:52:41Z</time>
      </trkpt>
      <trkpt lat="46.96438" lon="7.05125">
        <ele>432.7</ele>
        <time>2022-09-30T10:52:42Z</time>
      </trkpt>
      <trkpt lat="46.96439" lon="7.0513">
        <ele>432.7</ele>
        <time>2022-09-30T10:52:43Z</time>
      </trkpt>
      <trkpt lat="46.96441" lon="7.05134">
        <ele>432.7</ele>
        <time>2022-09-30T10:52:44Z</time>
      </trkpt>
      <trkpt lat="46.96441" lon="7.05136">
        <ele>432.7</ele>
        <time>2022-09-30T10:52:45Z</time>
      </trkpt>
      <trkpt lat="46.96443" lon="7.0514">
        <ele>432.7</ele>
        <time>2022-09-30T10:52:46Z</time>
      </trkpt>
      <trkpt lat="46.96443" lon="7.05141">
        <ele>432.7</ele>
        <time>2022-09-30T10:52:47Z</time>
      </trkpt>
      <trkpt lat="46.96443" lon="7.05143">
        <ele>432.7</ele>
        <time>2022-09-30T10:52:48Z</time>
      </trkpt>
      <trkpt lat="46.96443" lon="7.05143">
        <ele>432.7</ele>
        <time>2022-09-30T10:52:49Z</time>
      </trkpt>
      <trkpt lat="46.96443" lon="7.05143">
        <ele>432.7</ele>
        <time>2022-09-30T10:52:50Z</time>
      </trkpt>
      <trkpt lat="46.96443" lon="7.05143">
        <ele>432.7</ele>
        <time>2022-09-30T10:52:51Z</time>
      </trkpt>
      <trkpt lat="46.96442" lon="7.05144">
        <ele>432.7</ele>
        <time>2022-09-30T10:52:52Z</time>
      </trkpt>
      <trkpt lat="46.96442" lon="7.05144">
        <ele>432.7</ele>
        <time>2022-09-30T10:52:53Z</time>
      </trkpt>
      <trkpt lat="46.96442" lon="7.05144">
        <ele>432.7</ele>
        <time>2022-09-30T10:52:54Z</time>
      </trkpt>
      <trkpt lat="46.96442" lon="7.05144">
        <ele>432.7</ele>
        <time>2022-09-30T10:52:55Z</time>
      </trkpt>
      <trkpt lat="46.96442" lon="7.05145">
        <ele>432.7</ele>
        <time>2022-09-30T10:52:56Z</time>
      </trkpt>
      <trkpt lat="46.96441" lon="7.05145">
        <ele>432.7</ele>
        <time>2022-09-30T10:52:57Z</time>
      </trkpt>
      <trkpt lat="46.96441" lon="7.05145">
        <ele>432.7</ele>
        <time>2022-09-30T10:52:58Z</time>
      </trkpt>
      <trkpt lat="46.96441" lon="7.05145">
        <ele>432.7</ele>
        <time>2022-09-30T10:53:57Z</time>
      </trkpt>
      <trkpt lat="46.96441" lon="7.05145">
        <ele>432.7</ele>
        <time>2022-09-30T10:53:58Z</time>
      </trkpt>
      <trkpt lat="46.96441" lon="7.05146">
        <ele>432.7</ele>
        <time>2022-09-30T10:53:59Z</time>
      </trkpt>
      <trkpt lat="46.9644" lon="7.05146">
        <ele>432.7</ele>
        <time>2022-09-30T10:54:00Z</time>
      </trkpt>
      <trkpt lat="46.96439" lon="7.05146">
        <ele>432.7</ele>
        <time>2022-09-30T10:54:01Z</time>
      </trkpt>
      <trkpt lat="46.96438" lon="7.05147">
        <ele>432.7</ele>
        <time>2022-09-30T10:54:02Z</time>
      </trkpt>
      <trkpt lat="46.96437" lon="7.05147">
        <ele>432.7</ele>
        <time>2022-09-30T10:54:03Z</time>
      </trkpt>
      <trkpt lat="46.96436" lon="7.05148">
        <ele>432.7</ele>
        <time>2022-09-30T10:54:04Z</time>
      </trkpt>
      <trkpt lat="46.96436" lon="7.05147">
        <ele>432.7</ele>
        <time>2022-09-30T10:54:05Z</time>
      </trkpt>
      <trkpt lat="46.96435" lon="7.05147">
        <ele>432.7</ele>
        <time>2022-09-30T10:54:06Z</time>
      </trkpt>
      <trkpt lat="46.96435" lon="7.05148">
        <ele>432.7</ele>
        <time>2022-09-30T10:54:07Z</time>
      </trkpt>
      <trkpt lat="46.96434" lon="7.05148">
        <ele>432.7</ele>
        <time>2022-09-30T10:54:08Z</time>
      </trkpt>
      <trkpt lat="46.96435" lon="7.05149">
        <ele>432.7</ele>
        <time>2022-09-30T10:54:09Z</time>
      </trkpt>
      <trkpt lat="46.96435" lon="7.05149">
        <ele>432.7</ele>
        <time>2022-09-30T10:54:10Z</time>
      </trkpt>
      <trkpt lat="46.96435" lon="7.05149">
        <ele>432.7</ele>
        <time>2022-09-30T10:54:11Z</time>
      </trkpt>
      <trkpt lat="46.96436" lon="7.0515">
        <ele>432.7</ele>
        <time>2022-09-30T10:54:12Z</time>
      </trkpt>
      <trkpt lat="46.96436" lon="7.0515">
        <ele>432.7</ele>
        <time>2022-09-30T10:54:13Z</time>
      </trkpt>
      <trkpt lat="46.96437" lon="7.0515">
        <ele>432.7</ele>
        <time>2022-09-30T10:54:14Z</time>
      </trkpt>
      <trkpt lat="46.96437" lon="7.0515">
        <ele>432.7</ele>
        <time>2022-09-30T10:54:15Z</time>
      </trkpt>
      <trkpt lat="46.96437" lon="7.0515">
        <ele>432.7</ele>
        <time>2022-09-30T10:54:21Z</time>
      </trkpt>
      <trkpt lat="46.96438" lon="7.0515">
        <ele>432.7</ele>
        <time>2022-09-30T10:54:22Z</time>
      </trkpt>
      <trkpt lat="46.96438" lon="7.05151">
        <ele>432.7</ele>
        <time>2022-09-30T10:54:23Z</time>
      </trkpt>
      <trkpt lat="46.96439" lon="7.05151">
        <ele>432.7</ele>
        <time>2022-09-30T10:54:24Z</time>
      </trkpt>
      <trkpt lat="46.96439" lon="7.05149">
        <ele>432.7</ele>
        <time>2022-09-30T10:54:25Z</time>
      </trkpt>
      <trkpt lat="46.9644" lon="7.05147">
        <ele>432.7</ele>
        <time>2022-09-30T10:54:26Z</time>
      </trkpt>
      <trkpt lat="46.96441" lon="7.05145">
        <ele>432.6</ele>
        <time>2022-09-30T10:54:27Z</time>
      </trkpt>
      <trkpt lat="46.96442" lon="7.05144">
        <ele>432.6</ele>
        <time>2022-09-30T10:54:28Z</time>
      </trkpt>
      <trkpt lat="46.96443" lon="7.05144">
        <ele>432.6</ele>
        <time>2022-09-30T10:54:29Z</time>
      </trkpt>
      <trkpt lat="46.96443" lon="7.05144">
        <ele>432.6</ele>
        <time>2022-09-30T10:54:30Z</time>
      </trkpt>
      <trkpt lat="46.96443" lon="7.05143">
        <ele>432.6</ele>
        <time>2022-09-30T10:54:31Z</time>
      </trkpt>
      <trkpt lat="46.96444" lon="7.05143">
        <ele>432.6</ele>
        <time>2022-09-30T10:54:32Z</time>
      </trkpt>
      <trkpt lat="46.96445" lon="7.05143">
        <ele>432.6</ele>
        <time>2022-09-30T10:54:33Z</time>
      </trkpt>
      <trkpt lat="46.96446" lon="7.05144">
        <ele>432.6</ele>
        <time>2022-09-30T10:54:34Z</time>
      </trkpt>
      <trkpt lat="46.96447" lon="7.05146">
        <ele>432.6</ele>
        <time>2022-09-30T10:54:35Z</time>
      </trkpt>
      <trkpt lat="46.96447" lon="7.05147">
        <ele>432.6</ele>
        <time>2022-09-30T10:54:36Z</time>
      </trkpt>
      <trkpt lat="46.96447" lon="7.05147">
        <ele>432.6</ele>
        <time>2022-09-30T10:54:37Z</time>
      </trkpt>
      <trkpt lat="46.96448" lon="7.05148">
        <ele>432.6</ele>
        <time>2022-09-30T10:54:38Z</time>
      </trkpt>
      <trkpt lat="46.96448" lon="7.05149">
        <ele>432.6</ele>
        <time>2022-09-30T10:54:39Z</time>
      </trkpt>
      <trkpt lat="46.96448" lon="7.0515">
        <ele>432.6</ele>
        <time>2022-09-30T10:54:40Z</time>
      </trkpt>
      <trkpt lat="46.96448" lon="7.0515">
        <ele>432.6</ele>
        <time>2022-09-30T10:54:41Z</time>
      </trkpt>
      <trkpt lat="46.96449" lon="7.05151">
        <ele>432.6</ele>
        <time>2022-09-30T10:54:42Z</time>
      </trkpt>
      <trkpt lat="46.96449" lon="7.05152">
        <ele>432.6</ele>
        <time>2022-09-30T10:54:43Z</time>
      </trkpt>
      <trkpt lat="46.96449" lon="7.05153">
        <ele>432.6</ele>
        <time>2022-09-30T10:54:44Z</time>
      </trkpt>
      <trkpt lat="46.9645" lon="7.05153">
        <ele>432.6</ele>
        <time>2022-09-30T10:54:45Z</time>
      </trkpt>
      <trkpt lat="46.9645" lon="7.05154">
        <ele>432.6</ele>
        <time>2022-09-30T10:55:08Z</time>
      </trkpt>
      <trkpt lat="46.9645" lon="7.05155">
        <ele>432.6</ele>
        <time>2022-09-30T10:55:09Z</time>
      </trkpt>
      <trkpt lat="46.96451" lon="7.05159">
        <ele>432.6</ele>
        <time>2022-09-30T10:55:10Z</time>
      </trkpt>
      <trkpt lat="46.96453" lon="7.05163">
        <ele>432.6</ele>
        <time>2022-09-30T10:55:11Z</time>
      </trkpt>
      <trkpt lat="46.96455" lon="7.05167">
        <ele>432.6</ele>
        <time>2022-09-30T10:55:12Z</time>
      </trkpt>
      <trkpt lat="46.96457" lon="7.05172">
        <ele>432.5</ele>
        <time>2022-09-30T10:55:13Z</time>
      </trkpt>
      <trkpt lat="46.96459" lon="7.05177">
        <ele>432.5</ele>
        <time>2022-09-30T10:55:14Z</time>
      </trkpt>
      <trkpt lat="46.96462" lon="7.05182">
        <ele>432.5</ele>
        <time>2022-09-30T10:55:15Z</time>
      </trkpt>
      <trkpt lat="46.96464" lon="7.05187">
        <ele>432.5</ele>
        <time>2022-09-30T10:55:16Z</time>
      </trkpt>
      <trkpt lat="46.96465" lon="7.05192">
        <ele>432.5</ele>
        <time>2022-09-30T10:55:17Z</time>
      </trkpt>
      <trkpt lat="46.96468" lon="7.05197">
        <ele>432.5</ele>
        <time>2022-09-30T10:55:18Z</time>
      </trkpt>
      <trkpt lat="46.9647" lon="7.05203">
        <ele>432.5</ele>
        <time>2022-09-30T10:55:19Z</time>
      </trkpt>
      <trkpt lat="46.96472" lon="7.05209">
        <ele>432.5</ele>
        <time>2022-09-30T10:55:20Z</time>
      </trkpt>
      <trkpt lat="46.96474" lon="7.05214">
        <ele>432.4</ele>
        <time>2022-09-30T10:55:21Z</time>
      </trkpt>
      <trkpt lat="46.96477" lon="7.05221">
        <ele>432.4</ele>
        <time>2022-09-30T10:55:22Z</time>
      </trkpt>
      <trkpt lat="46.96479" lon="7.05226">
        <ele>432.4</ele>
        <time>2022-09-30T10:55:23Z</time>
      </trkpt>
      <trkpt lat="46.96481" lon="7.05231">
        <ele>432.4</ele>
        <time>2022-09-30T10:55:24Z</time>
      </trkpt>
      <trkpt lat="46.96483" lon="7.05238">
        <ele>432.4</ele>
        <time>2022-09-30T10:55:25Z</time>
      </trkpt>
      <trkpt lat="46.96486" lon="7.05244">
        <ele>432.4</ele>
        <time>2022-09-30T10:55:26Z</time>
      </trkpt>
      <trkpt lat="46.96488" lon="7.05249">
        <ele>432.4</ele>
        <time>2022-09-30T10:55:27Z</time>
      </trkpt>
      <trkpt lat="46.9649" lon="7.05255">
        <ele>432.4</ele>
        <time>2022-09-30T10:55:28Z</time>
      </trkpt>
      <trkpt lat="46.96492" lon="7.05262">
        <ele>432.4</ele>
        <time>2022-09-30T10:55:29Z</time>
      </trkpt>
      <trkpt lat="46.96495" lon="7.05268">
        <ele>432.4</ele>
        <time>2022-09-30T10:55:30Z</time>
      </trkpt>
      <trkpt lat="46.96497" lon="7.05274">
        <ele>432.3</ele>
        <time>2022-09-30T10:55:31Z</time>
      </trkpt>
      <trkpt lat="46.965" lon="7.0528">
        <ele>432.3</ele>
        <time>2022-09-30T10:55:32Z</time>
      </trkpt>
      <trkpt lat="46.96502" lon="7.05285">
        <ele>432.3</ele>
        <time>2022-09-30T10:55:33Z</time>
      </trkpt>
      <trkpt lat="46.96504" lon="7.05291">
        <ele>432.3</ele>
        <time>2022-09-30T10:55:34Z</time>
      </trkpt>
      <trkpt lat="46.96507" lon="7.05297">
        <ele>432.3</ele>
        <time>2022-09-30T10:55:35Z</time>
      </trkpt>
      <trkpt lat="46.9651" lon="7.05303">
        <ele>432.3</ele>
        <time>2022-09-30T10:55:36Z</time>
      </trkpt>
      <trkpt lat="46.96512" lon="7.05309">
        <ele>432.3</ele>
        <time>2022-09-30T10:55:37Z</time>
      </trkpt>
      <trkpt lat="46.96514" lon="7.05315">
        <ele>432.3</ele>
        <time>2022-09-30T10:55:38Z</time>
      </trkpt>
      <trkpt lat="46.96517" lon="7.0532">
        <ele>432.2</ele>
        <time>2022-09-30T10:55:39Z</time>
      </trkpt>
      <trkpt lat="46.96519" lon="7.05327">
        <ele>432.2</ele>
        <time>2022-09-30T10:55:40Z</time>
      </trkpt>
      <trkpt lat="46.96521" lon="7.05334">
        <ele>432.2</ele>
        <time>2022-09-30T10:55:41Z</time>
      </trkpt>
      <trkpt lat="46.96524" lon="7.0534">
        <ele>432.2</ele>
        <time>2022-09-30T10:55:42Z</time>
      </trkpt>
      <trkpt lat="46.96526" lon="7.05346">
        <ele>432.2</ele>
        <time>2022-09-30T10:55:43Z</time>
      </trkpt>
      <trkpt lat="46.96528" lon="7.05352">
        <ele>432.2</ele>
        <time>2022-09-30T10:55:44Z</time>
      </trkpt>
      <trkpt lat="46.96531" lon="7.05359">
        <ele>432.1</ele>
        <time>2022-09-30T10:55:45Z</time>
      </trkpt>
      <trkpt lat="46.96534" lon="7.05365">
        <ele>432.1</ele>
        <time>2022-09-30T10:55:46Z</time>
      </trkpt>
      <trkpt lat="46.96536" lon="7.05371">
        <ele>432.1</ele>
        <time>2022-09-30T10:55:47Z</time>
      </trkpt>
      <trkpt lat="46.96539" lon="7.05377">
        <ele>432.1</ele>
        <time>2022-09-30T10:55:48Z</time>
      </trkpt>
      <trkpt lat="46.96541" lon="7.05384">
        <ele>432.1</ele>
        <time>2022-09-30T10:55:49Z</time>
      </trkpt>
      <trkpt lat="46.96544" lon="7.0539">
        <ele>432.1</ele>
        <time>2022-09-30T10:55:50Z</time>
      </trkpt>
      <trkpt lat="46.96546" lon="7.05396">
        <ele>432.1</ele>
        <time>2022-09-30T10:55:51Z</time>
      </trkpt>
      <trkpt lat="46.96548" lon="7.05402">
        <ele>432.1</ele>
        <time>2022-09-30T10:55:52Z</time>
      </trkpt>
      <trkpt lat="46.9655" lon="7.05407">
        <ele>432.1</ele>
        <time>2022-09-30T10:55:53Z</time>
      </trkpt>
      <trkpt lat="46.96553" lon="7.05413">
        <ele>432.1</ele>
        <time>2022-09-30T10:55:54Z</time>
      </trkpt>
      <trkpt lat="46.96554" lon="7.05418">
        <ele>432.1</ele>
        <time>2022-09-30T10:55:55Z</time>
      </trkpt>
      <trkpt lat="46.96556" lon="7.05423">
        <ele>432.1</ele>
        <time>2022-09-30T10:55:57Z</time>
      </trkpt>
      <trkpt lat="46.9656" lon="7.05433">
        <ele>432</ele>
        <time>2022-09-30T10:55:58Z</time>
      </trkpt>
      <trkpt lat="46.96562" lon="7.05439">
        <ele>432</ele>
        <time>2022-09-30T10:55:59Z</time>
      </trkpt>
      <trkpt lat="46.96565" lon="7.05444">
        <ele>432</ele>
        <time>2022-09-30T10:56:01Z</time>
      </trkpt>
      <trkpt lat="46.96567" lon="7.05449">
        <ele>432</ele>
        <time>2022-09-30T10:56:02Z</time>
      </trkpt>
      <trkpt lat="46.9657" lon="7.05456">
        <ele>432</ele>
        <time>2022-09-30T10:56:03Z</time>
      </trkpt>
      <trkpt lat="46.96572" lon="7.05461">
        <ele>432</ele>
        <time>2022-09-30T10:56:04Z</time>
      </trkpt>
      <trkpt lat="46.96573" lon="7.05467">
        <ele>432</ele>
        <time>2022-09-30T10:56:05Z</time>
      </trkpt>
      <trkpt lat="46.96576" lon="7.05473">
        <ele>432</ele>
        <time>2022-09-30T10:56:06Z</time>
      </trkpt>
      <trkpt lat="46.96578" lon="7.05479">
        <ele>432</ele>
        <time>2022-09-30T10:56:07Z</time>
      </trkpt>
      <trkpt lat="46.96581" lon="7.05483">
        <ele>432</ele>
        <time>2022-09-30T10:56:08Z</time>
      </trkpt>
      <trkpt lat="46.96583" lon="7.05489">
        <ele>432</ele>
        <time>2022-09-30T10:56:09Z</time>
      </trkpt>
      <trkpt lat="46.96586" lon="7.05495">
        <ele>431.9</ele>
        <time>2022-09-30T10:56:10Z</time>
      </trkpt>
      <trkpt lat="46.96588" lon="7.05501">
        <ele>431.9</ele>
        <time>2022-09-30T10:56:11Z</time>
      </trkpt>
      <trkpt lat="46.9659" lon="7.05507">
        <ele>431.9</ele>
        <time>2022-09-30T10:56:12Z</time>
      </trkpt>
      <trkpt lat="46.96593" lon="7.05513">
        <ele>431.9</ele>
        <time>2022-09-30T10:56:13Z</time>
      </trkpt>
      <trkpt lat="46.96595" lon="7.05519">
        <ele>431.9</ele>
        <time>2022-09-30T10:56:14Z</time>
      </trkpt>
      <trkpt lat="46.96597" lon="7.05525">
        <ele>431.9</ele>
        <time>2022-09-30T10:56:15Z</time>
      </trkpt>
      <trkpt lat="46.96599" lon="7.0553">
        <ele>431.9</ele>
        <time>2022-09-30T10:56:16Z</time>
      </trkpt>
      <trkpt lat="46.96602" lon="7.05537">
        <ele>431.8</ele>
        <time>2022-09-30T10:56:17Z</time>
      </trkpt>
      <trkpt lat="46.96604" lon="7.05542">
        <ele>431.8</ele>
        <time>2022-09-30T10:56:18Z</time>
      </trkpt>
      <trkpt lat="46.96606" lon="7.05548">
        <ele>431.8</ele>
        <time>2022-09-30T10:56:19Z</time>
      </trkpt>
      <trkpt lat="46.96608" lon="7.05554">
        <ele>431.8</ele>
        <time>2022-09-30T10:56:20Z</time>
      </trkpt>
      <trkpt lat="46.96611" lon="7.0556">
        <ele>431.8</ele>
        <time>2022-09-30T10:56:21Z</time>
      </trkpt>
      <trkpt lat="46.96614" lon="7.05567">
        <ele>431.8</ele>
        <time>2022-09-30T10:56:22Z</time>
      </trkpt>
      <trkpt lat="46.96616" lon="7.05572">
        <ele>431.7</ele>
        <time>2022-09-30T10:56:23Z</time>
      </trkpt>
      <trkpt lat="46.96618" lon="7.05579">
        <ele>431.7</ele>
        <time>2022-09-30T10:56:24Z</time>
      </trkpt>
      <trkpt lat="46.96621" lon="7.05585">
        <ele>431.7</ele>
        <time>2022-09-30T10:56:25Z</time>
      </trkpt>
      <trkpt lat="46.96623" lon="7.0559">
        <ele>431.7</ele>
        <time>2022-09-30T10:56:26Z</time>
      </trkpt>
      <trkpt lat="46.96625" lon="7.05596">
        <ele>431.7</ele>
        <time>2022-09-30T10:56:27Z</time>
      </trkpt>
      <trkpt lat="46.96628" lon="7.05602">
        <ele>431.7</ele>
        <time>2022-09-30T10:56:28Z</time>
      </trkpt>
      <trkpt lat="46.9663" lon="7.05609">
        <ele>431.7</ele>
        <time>2022-09-30T10:56:29Z</time>
      </trkpt>
      <trkpt lat="46.96633" lon="7.05615">
        <ele>431.7</ele>
        <time>2022-09-30T10:56:30Z</time>
      </trkpt>
      <trkpt lat="46.96635" lon="7.05621">
        <ele>431.7</ele>
        <time>2022-09-30T10:56:31Z</time>
      </trkpt>
      <trkpt lat="46.96637" lon="7.05627">
        <ele>431.7</ele>
        <time>2022-09-30T10:56:32Z</time>
      </trkpt>
      <trkpt lat="46.9664" lon="7.05633">
        <ele>431.7</ele>
        <time>2022-09-30T10:56:33Z</time>
      </trkpt>
      <trkpt lat="46.96643" lon="7.0564">
        <ele>431.7</ele>
        <time>2022-09-30T10:56:34Z</time>
      </trkpt>
      <trkpt lat="46.96645" lon="7.05646">
        <ele>431.7</ele>
        <time>2022-09-30T10:56:35Z</time>
      </trkpt>
      <trkpt lat="46.96647" lon="7.05653">
        <ele>431.7</ele>
        <time>2022-09-30T10:56:36Z</time>
      </trkpt>
      <trkpt lat="46.9665" lon="7.05659">
        <ele>431.7</ele>
        <time>2022-09-30T10:56:37Z</time>
      </trkpt>
      <trkpt lat="46.96652" lon="7.05665">
        <ele>431.6</ele>
        <time>2022-09-30T10:56:38Z</time>
      </trkpt>
      <trkpt lat="46.96655" lon="7.05672">
        <ele>431.6</ele>
        <time>2022-09-30T10:56:39Z</time>
      </trkpt>
      <trkpt lat="46.96658" lon="7.05678">
        <ele>431.6</ele>
        <time>2022-09-30T10:56:40Z</time>
      </trkpt>
      <trkpt lat="46.9666" lon="7.05684">
        <ele>431.7</ele>
        <time>2022-09-30T10:56:41Z</time>
      </trkpt>
      <trkpt lat="46.96663" lon="7.05691">
        <ele>431.7</ele>
        <time>2022-09-30T10:56:42Z</time>
      </trkpt>
      <trkpt lat="46.96666" lon="7.05697">
        <ele>431.7</ele>
        <time>2022-09-30T10:56:43Z</time>
      </trkpt>
      <trkpt lat="46.96668" lon="7.05703">
        <ele>431.7</ele>
        <time>2022-09-30T10:56:44Z</time>
      </trkpt>
      <trkpt lat="46.96671" lon="7.0571">
        <ele>431.7</ele>
        <time>2022-09-30T10:56:45Z</time>
      </trkpt>
      <trkpt lat="46.96673" lon="7.05715">
        <ele>431.7</ele>
        <time>2022-09-30T10:56:46Z</time>
      </trkpt>
      <trkpt lat="46.96675" lon="7.05721">
        <ele>431.7</ele>
        <time>2022-09-30T10:56:47Z</time>
      </trkpt>
      <trkpt lat="46.96677" lon="7.05727">
        <ele>431.7</ele>
        <time>2022-09-30T10:56:48Z</time>
      </trkpt>
      <trkpt lat="46.9668" lon="7.05732">
        <ele>431.7</ele>
        <time>2022-09-30T10:56:49Z</time>
      </trkpt>
      <trkpt lat="46.96682" lon="7.05739">
        <ele>431.7</ele>
        <time>2022-09-30T10:56:50Z</time>
      </trkpt>
      <trkpt lat="46.96684" lon="7.05744">
        <ele>431.7</ele>
        <time>2022-09-30T10:56:51Z</time>
      </trkpt>
      <trkpt lat="46.96687" lon="7.0575">
        <ele>431.7</ele>
        <time>2022-09-30T10:56:52Z</time>
      </trkpt>
      <trkpt lat="46.96689" lon="7.05756">
        <ele>431.7</ele>
        <time>2022-09-30T10:56:53Z</time>
      </trkpt>
      <trkpt lat="46.96692" lon="7.05762">
        <ele>431.7</ele>
        <time>2022-09-30T10:56:54Z</time>
      </trkpt>
      <trkpt lat="46.96694" lon="7.05768">
        <ele>431.7</ele>
        <time>2022-09-30T10:56:55Z</time>
      </trkpt>
      <trkpt lat="46.96696" lon="7.05773">
        <ele>431.6</ele>
        <time>2022-09-30T10:56:56Z</time>
      </trkpt>
      <trkpt lat="46.96698" lon="7.05779">
        <ele>431.6</ele>
        <time>2022-09-30T10:56:57Z</time>
      </trkpt>
      <trkpt lat="46.96701" lon="7.05785">
        <ele>431.6</ele>
        <time>2022-09-30T10:56:58Z</time>
      </trkpt>
      <trkpt lat="46.96703" lon="7.05791">
        <ele>431.6</ele>
        <time>2022-09-30T10:56:59Z</time>
      </trkpt>
      <trkpt lat="46.96708" lon="7.05804">
        <ele>431.6</ele>
        <time>2022-09-30T10:57:00Z</time>
      </trkpt>
      <trkpt lat="46.9671" lon="7.0581">
        <ele>431.6</ele>
        <time>2022-09-30T10:57:01Z</time>
      </trkpt>
      <trkpt lat="46.96713" lon="7.05816">
        <ele>431.5</ele>
        <time>2022-09-30T10:57:02Z</time>
      </trkpt>
      <trkpt lat="46.96716" lon="7.05821">
        <ele>431.5</ele>
        <time>2022-09-30T10:57:03Z</time>
      </trkpt>
      <trkpt lat="46.96718" lon="7.05827">
        <ele>431.5</ele>
        <time>2022-09-30T10:57:04Z</time>
      </trkpt>
      <trkpt lat="46.96721" lon="7.05834">
        <ele>431.5</ele>
        <time>2022-09-30T10:57:05Z</time>
      </trkpt>
      <trkpt lat="46.96722" lon="7.0584">
        <ele>431.5</ele>
        <time>2022-09-30T10:57:06Z</time>
      </trkpt>
      <trkpt lat="46.96725" lon="7.05846">
        <ele>431.5</ele>
        <time>2022-09-30T10:57:07Z</time>
      </trkpt>
      <trkpt lat="46.96729" lon="7.05853">
        <ele>431.5</ele>
        <time>2022-09-30T10:57:08Z</time>
      </trkpt>
      <trkpt lat="46.96731" lon="7.05859">
        <ele>431.5</ele>
        <time>2022-09-30T10:57:09Z</time>
      </trkpt>
      <trkpt lat="46.96733" lon="7.05865">
        <ele>431.5</ele>
        <time>2022-09-30T10:57:10Z</time>
      </trkpt>
      <trkpt lat="46.96735" lon="7.05871">
        <ele>431.5</ele>
        <time>2022-09-30T10:57:11Z</time>
      </trkpt>
      <trkpt lat="46.96737" lon="7.05877">
        <ele>431.6</ele>
        <time>2022-09-30T10:57:12Z</time>
      </trkpt>
      <trkpt lat="46.9674" lon="7.05883">
        <ele>431.6</ele>
        <time>2022-09-30T10:57:13Z</time>
      </trkpt>
      <trkpt lat="46.96743" lon="7.05889">
        <ele>431.6</ele>
        <time>2022-09-30T10:57:14Z</time>
      </trkpt>
      <trkpt lat="46.96745" lon="7.05895">
        <ele>431.6</ele>
        <time>2022-09-30T10:57:15Z</time>
      </trkpt>
      <trkpt lat="46.96747" lon="7.05901">
        <ele>431.6</ele>
        <time>2022-09-30T10:57:16Z</time>
      </trkpt>
      <trkpt lat="46.96749" lon="7.05906">
        <ele>431.6</ele>
        <time>2022-09-30T10:57:17Z</time>
      </trkpt>
      <trkpt lat="46.96752" lon="7.05912">
        <ele>431.6</ele>
        <time>2022-09-30T10:57:18Z</time>
      </trkpt>
      <trkpt lat="46.96755" lon="7.05918">
        <ele>431.6</ele>
        <time>2022-09-30T10:57:19Z</time>
      </trkpt>
      <trkpt lat="46.96756" lon="7.05923">
        <ele>431.6</ele>
        <time>2022-09-30T10:57:20Z</time>
      </trkpt>
      <trkpt lat="46.96757" lon="7.05928">
        <ele>431.6</ele>
        <time>2022-09-30T10:57:21Z</time>
      </trkpt>
      <trkpt lat="46.96759" lon="7.05934">
        <ele>431.6</ele>
        <time>2022-09-30T10:57:22Z</time>
      </trkpt>
      <trkpt lat="46.96762" lon="7.0594">
        <ele>431.7</ele>
        <time>2022-09-30T10:57:23Z</time>
      </trkpt>
      <trkpt lat="46.96764" lon="7.05946">
        <ele>431.7</ele>
        <time>2022-09-30T10:57:24Z</time>
      </trkpt>
      <trkpt lat="46.96767" lon="7.05951">
        <ele>431.7</ele>
        <time>2022-09-30T10:57:25Z</time>
      </trkpt>
      <trkpt lat="46.96769" lon="7.05957">
        <ele>431.7</ele>
        <time>2022-09-30T10:57:26Z</time>
      </trkpt>
      <trkpt lat="46.96772" lon="7.05963">
        <ele>431.7</ele>
        <time>2022-09-30T10:57:27Z</time>
      </trkpt>
      <trkpt lat="46.96774" lon="7.05969">
        <ele>431.7</ele>
        <time>2022-09-30T10:57:28Z</time>
      </trkpt>
      <trkpt lat="46.96777" lon="7.05974">
        <ele>431.7</ele>
        <time>2022-09-30T10:57:29Z</time>
      </trkpt>
      <trkpt lat="46.96778" lon="7.0598">
        <ele>431.7</ele>
        <time>2022-09-30T10:57:30Z</time>
      </trkpt>
      <trkpt lat="46.96781" lon="7.05985">
        <ele>431.7</ele>
        <time>2022-09-30T10:57:31Z</time>
      </trkpt>
      <trkpt lat="46.96784" lon="7.05992">
        <ele>431.7</ele>
        <time>2022-09-30T10:57:32Z</time>
      </trkpt>
      <trkpt lat="46.96786" lon="7.05998">
        <ele>431.8</ele>
        <time>2022-09-30T10:57:33Z</time>
      </trkpt>
      <trkpt lat="46.96789" lon="7.06004">
        <ele>431.8</ele>
        <time>2022-09-30T10:57:34Z</time>
      </trkpt>
      <trkpt lat="46.96791" lon="7.0601">
        <ele>431.8</ele>
        <time>2022-09-30T10:57:35Z</time>
      </trkpt>
      <trkpt lat="46.96793" lon="7.06016">
        <ele>431.9</ele>
        <time>2022-09-30T10:57:36Z</time>
      </trkpt>
      <trkpt lat="46.96796" lon="7.06022">
        <ele>431.9</ele>
        <time>2022-09-30T10:57:37Z</time>
      </trkpt>
      <trkpt lat="46.96798" lon="7.06028">
        <ele>431.9</ele>
        <time>2022-09-30T10:57:38Z</time>
      </trkpt>
      <trkpt lat="46.968" lon="7.06034">
        <ele>432</ele>
        <time>2022-09-30T10:57:39Z</time>
      </trkpt>
      <trkpt lat="46.96802" lon="7.06041">
        <ele>432.1</ele>
        <time>2022-09-30T10:57:40Z</time>
      </trkpt>
      <trkpt lat="46.96805" lon="7.06046">
        <ele>432.2</ele>
        <time>2022-09-30T10:57:41Z</time>
      </trkpt>
      <trkpt lat="46.96807" lon="7.06051">
        <ele>432.3</ele>
        <time>2022-09-30T10:57:42Z</time>
      </trkpt>
      <trkpt lat="46.96809" lon="7.06055">
        <ele>432.3</ele>
        <time>2022-09-30T10:57:43Z</time>
      </trkpt>
      <trkpt lat="46.96811" lon="7.0606">
        <ele>432.5</ele>
        <time>2022-09-30T10:57:44Z</time>
      </trkpt>
      <trkpt lat="46.96812" lon="7.06064">
        <ele>432.6</ele>
        <time>2022-09-30T10:57:45Z</time>
      </trkpt>
      <trkpt lat="46.96814" lon="7.06068">
        <ele>432.7</ele>
        <time>2022-09-30T10:57:46Z</time>
      </trkpt>
      <trkpt lat="46.96814" lon="7.06071">
        <ele>432.8</ele>
        <time>2022-09-30T10:57:47Z</time>
      </trkpt>
      <trkpt lat="46.96814" lon="7.06072">
        <ele>432.9</ele>
        <time>2022-09-30T10:57:48Z</time>
      </trkpt>
      <trkpt lat="46.96814" lon="7.06075">
        <ele>432.9</ele>
        <time>2022-09-30T10:57:49Z</time>
      </trkpt>
      <trkpt lat="46.96813" lon="7.06077">
        <ele>432.9</ele>
        <time>2022-09-30T10:57:50Z</time>
      </trkpt>
      <trkpt lat="46.9681" lon="7.0608">
        <ele>432.9</ele>
        <time>2022-09-30T10:57:51Z</time>
      </trkpt>
      <trkpt lat="46.96809" lon="7.06081">
        <ele>432.9</ele>
        <time>2022-09-30T10:57:52Z</time>
      </trkpt>
      <trkpt lat="46.96806" lon="7.06084">
        <ele>432.9</ele>
        <time>2022-09-30T10:57:53Z</time>
      </trkpt>
      <trkpt lat="46.96805" lon="7.06086">
        <ele>432.9</ele>
        <time>2022-09-30T10:57:54Z</time>
      </trkpt>
      <trkpt lat="46.96802" lon="7.06088">
        <ele>432.9</ele>
        <time>2022-09-30T10:57:55Z</time>
      </trkpt>
      <trkpt lat="46.96799" lon="7.0609">
        <ele>432.9</ele>
        <time>2022-09-30T10:57:56Z</time>
      </trkpt>
      <trkpt lat="46.96796" lon="7.06092">
        <ele>432.9</ele>
        <time>2022-09-30T10:57:57Z</time>
      </trkpt>
      <trkpt lat="46.96791" lon="7.06095">
        <ele>432.9</ele>
        <time>2022-09-30T10:57:58Z</time>
      </trkpt>
      <trkpt lat="46.96789" lon="7.06096">
        <ele>432.9</ele>
        <time>2022-09-30T10:57:59Z</time>
      </trkpt>
      <trkpt lat="46.96785" lon="7.06099">
        <ele>432.9</ele>
        <time>2022-09-30T10:58:00Z</time>
      </trkpt>
      <trkpt lat="46.96783" lon="7.061">
        <ele>432.9</ele>
        <time>2022-09-30T10:58:01Z</time>
      </trkpt>
      <trkpt lat="46.9678" lon="7.06101">
        <ele>432.9</ele>
        <time>2022-09-30T10:58:03Z</time>
      </trkpt>
      <trkpt lat="46.96778" lon="7.06103">
        <ele>433</ele>
        <time>2022-09-30T10:58:04Z</time>
      </trkpt>
      <trkpt lat="46.96775" lon="7.06105">
        <ele>433</ele>
        <time>2022-09-30T10:58:05Z</time>
      </trkpt>
      <trkpt lat="46.96771" lon="7.06107">
        <ele>433</ele>
        <time>2022-09-30T10:58:06Z</time>
      </trkpt>
      <trkpt lat="46.96767" lon="7.06108">
        <ele>433.1</ele>
        <time>2022-09-30T10:58:07Z</time>
      </trkpt>
      <trkpt lat="46.96766" lon="7.06109">
        <ele>433.1</ele>
        <time>2022-09-30T10:58:08Z</time>
      </trkpt>
      <trkpt lat="46.96761" lon="7.06113">
        <ele>433.1</ele>
        <time>2022-09-30T10:58:09Z</time>
      </trkpt>
      <trkpt lat="46.96757" lon="7.06114">
        <ele>433.2</ele>
        <time>2022-09-30T10:58:10Z</time>
      </trkpt>
      <trkpt lat="46.96755" lon="7.06115">
        <ele>433.2</ele>
        <time>2022-09-30T10:58:11Z</time>
      </trkpt>
      <trkpt lat="46.96751" lon="7.06117">
        <ele>433.2</ele>
        <time>2022-09-30T10:58:12Z</time>
      </trkpt>
      <trkpt lat="46.96747" lon="7.06118">
        <ele>433.2</ele>
        <time>2022-09-30T10:58:13Z</time>
      </trkpt>
      <trkpt lat="46.96744" lon="7.06118">
        <ele>433.3</ele>
        <time>2022-09-30T10:58:14Z</time>
      </trkpt>
      <trkpt lat="46.9674" lon="7.06119">
        <ele>433.3</ele>
        <time>2022-09-30T10:58:15Z</time>
      </trkpt>
      <trkpt lat="46.96737" lon="7.06121">
        <ele>433.4</ele>
        <time>2022-09-30T10:58:16Z</time>
      </trkpt>
      <trkpt lat="46.96733" lon="7.06121">
        <ele>433.4</ele>
        <time>2022-09-30T10:58:17Z</time>
      </trkpt>
      <trkpt lat="46.9673" lon="7.06122">
        <ele>433.5</ele>
        <time>2022-09-30T10:58:18Z</time>
      </trkpt>
      <trkpt lat="46.96727" lon="7.06123">
        <ele>433.6</ele>
        <time>2022-09-30T10:58:19Z</time>
      </trkpt>
      <trkpt lat="46.96723" lon="7.06124">
        <ele>433.6</ele>
        <time>2022-09-30T10:58:20Z</time>
      </trkpt>
      <trkpt lat="46.96722" lon="7.06124">
        <ele>433.6</ele>
        <time>2022-09-30T10:58:21Z</time>
      </trkpt>
      <trkpt lat="46.96721" lon="7.06126">
        <ele>433.7</ele>
        <time>2022-09-30T10:58:22Z</time>
      </trkpt>
      <trkpt lat="46.9672" lon="7.06126">
        <ele>433.7</ele>
        <time>2022-09-30T10:58:23Z</time>
      </trkpt>
      <trkpt lat="46.96718" lon="7.06128">
        <ele>433.8</ele>
        <time>2022-09-30T10:58:24Z</time>
      </trkpt>
      <trkpt lat="46.96717" lon="7.0613">
        <ele>433.8</ele>
        <time>2022-09-30T10:58:25Z</time>
      </trkpt>
      <trkpt lat="46.96716" lon="7.06132">
        <ele>433.8</ele>
        <time>2022-09-30T10:58:26Z</time>
      </trkpt>
      <trkpt lat="46.96715" lon="7.06135">
        <ele>433.8</ele>
        <time>2022-09-30T10:58:27Z</time>
      </trkpt>
      <trkpt lat="46.96716" lon="7.06137">
        <ele>433.8</ele>
        <time>2022-09-30T10:58:28Z</time>
      </trkpt>
      <trkpt lat="46.96716" lon="7.06141">
        <ele>433.7</ele>
        <time>2022-09-30T10:58:29Z</time>
      </trkpt>
      <trkpt lat="46.96716" lon="7.06143">
        <ele>433.7</ele>
        <time>2022-09-30T10:58:30Z</time>
      </trkpt>
      <trkpt lat="46.96716" lon="7.06147">
        <ele>433.7</ele>
        <time>2022-09-30T10:58:31Z</time>
      </trkpt>
      <trkpt lat="46.96716" lon="7.06153">
        <ele>433.6</ele>
        <time>2022-09-30T10:58:32Z</time>
      </trkpt>
      <trkpt lat="46.96716" lon="7.06155">
        <ele>433.6</ele>
        <time>2022-09-30T10:58:33Z</time>
      </trkpt>
      <trkpt lat="46.96715" lon="7.0616">
        <ele>433.6</ele>
        <time>2022-09-30T10:58:34Z</time>
      </trkpt>
      <trkpt lat="46.96714" lon="7.06164">
        <ele>433.5</ele>
        <time>2022-09-30T10:58:35Z</time>
      </trkpt>
      <trkpt lat="46.96714" lon="7.06169">
        <ele>433.4</ele>
        <time>2022-09-30T10:58:36Z</time>
      </trkpt>
      <trkpt lat="46.96714" lon="7.06176">
        <ele>433.4</ele>
        <time>2022-09-30T10:58:37Z</time>
      </trkpt>
      <trkpt lat="46.96714" lon="7.06182">
        <ele>433.3</ele>
        <time>2022-09-30T10:58:38Z</time>
      </trkpt>
      <trkpt lat="46.96713" lon="7.06189">
        <ele>433.2</ele>
        <time>2022-09-30T10:58:39Z</time>
      </trkpt>
      <trkpt lat="46.96713" lon="7.06196">
        <ele>433.1</ele>
        <time>2022-09-30T10:58:40Z</time>
      </trkpt>
      <trkpt lat="46.96713" lon="7.06203">
        <ele>433.1</ele>
        <time>2022-09-30T10:58:41Z</time>
      </trkpt>
      <trkpt lat="46.96712" lon="7.0621">
        <ele>433</ele>
        <time>2022-09-30T10:58:42Z</time>
      </trkpt>
      <trkpt lat="46.96712" lon="7.06217">
        <ele>433</ele>
        <time>2022-09-30T10:58:43Z</time>
      </trkpt>
      <trkpt lat="46.96712" lon="7.06224">
        <ele>432.9</ele>
        <time>2022-09-30T10:58:44Z</time>
      </trkpt>
      <trkpt lat="46.96712" lon="7.0623">
        <ele>432.9</ele>
        <time>2022-09-30T10:58:45Z</time>
      </trkpt>
      <trkpt lat="46.96712" lon="7.06236">
        <ele>432.8</ele>
        <time>2022-09-30T10:58:46Z</time>
      </trkpt>
      <trkpt lat="46.96712" lon="7.06243">
        <ele>432.7</ele>
        <time>2022-09-30T10:58:47Z</time>
      </trkpt>
      <trkpt lat="46.96711" lon="7.06249">
        <ele>432.6</ele>
        <time>2022-09-30T10:58:48Z</time>
      </trkpt>
      <trkpt lat="46.9671" lon="7.06256">
        <ele>432.6</ele>
        <time>2022-09-30T10:58:49Z</time>
      </trkpt>
      <trkpt lat="46.9671" lon="7.06263">
        <ele>432.5</ele>
        <time>2022-09-30T10:58:50Z</time>
      </trkpt>
      <trkpt lat="46.96709" lon="7.06271">
        <ele>432.4</ele>
        <time>2022-09-30T10:58:51Z</time>
      </trkpt>
      <trkpt lat="46.96709" lon="7.06278">
        <ele>432.3</ele>
        <time>2022-09-30T10:58:52Z</time>
      </trkpt>
      <trkpt lat="46.96709" lon="7.06285">
        <ele>432.2</ele>
        <time>2022-09-30T10:58:53Z</time>
      </trkpt>
      <trkpt lat="46.96708" lon="7.06292">
        <ele>432.1</ele>
        <time>2022-09-30T10:58:54Z</time>
      </trkpt>
      <trkpt lat="46.96708" lon="7.06298">
        <ele>432.1</ele>
        <time>2022-09-30T10:58:55Z</time>
      </trkpt>
      <trkpt lat="46.96707" lon="7.06312">
        <ele>432</ele>
        <time>2022-09-30T10:58:56Z</time>
      </trkpt>
      <trkpt lat="46.96707" lon="7.06317">
        <ele>431.9</ele>
        <time>2022-09-30T10:58:57Z</time>
      </trkpt>
      <trkpt lat="46.96707" lon="7.06322">
        <ele>431.9</ele>
        <time>2022-09-30T10:58:58Z</time>
      </trkpt>
      <trkpt lat="46.96706" lon="7.06326">
        <ele>431.8</ele>
        <time>2022-09-30T10:58:59Z</time>
      </trkpt>
      <trkpt lat="46.96706" lon="7.0633">
        <ele>431.8</ele>
        <time>2022-09-30T10:59:00Z</time>
      </trkpt>
      <trkpt lat="46.96707" lon="7.06335">
        <ele>431.8</ele>
        <time>2022-09-30T10:59:01Z</time>
      </trkpt>
      <trkpt lat="46.96707" lon="7.0634">
        <ele>431.7</ele>
        <time>2022-09-30T10:59:02Z</time>
      </trkpt>
      <trkpt lat="46.96706" lon="7.06345">
        <ele>431.7</ele>
        <time>2022-09-30T10:59:03Z</time>
      </trkpt>
      <trkpt lat="46.96706" lon="7.0635">
        <ele>431.7</ele>
        <time>2022-09-30T10:59:04Z</time>
      </trkpt>
      <trkpt lat="46.96706" lon="7.06356">
        <ele>431.6</ele>
        <time>2022-09-30T10:59:05Z</time>
      </trkpt>
      <trkpt lat="46.96706" lon="7.06361">
        <ele>431.6</ele>
        <time>2022-09-30T10:59:06Z</time>
      </trkpt>
      <trkpt lat="46.96706" lon="7.06367">
        <ele>431.6</ele>
        <time>2022-09-30T10:59:07Z</time>
      </trkpt>
      <trkpt lat="46.96705" lon="7.06373">
        <ele>431.5</ele>
        <time>2022-09-30T10:59:08Z</time>
      </trkpt>
      <trkpt lat="46.96704" lon="7.06379">
        <ele>431.5</ele>
        <time>2022-09-30T10:59:09Z</time>
      </trkpt>
      <trkpt lat="46.96704" lon="7.06385">
        <ele>431.5</ele>
        <time>2022-09-30T10:59:10Z</time>
      </trkpt>
      <trkpt lat="46.96704" lon="7.06392">
        <ele>431.4</ele>
        <time>2022-09-30T10:59:11Z</time>
      </trkpt>
      <trkpt lat="46.96704" lon="7.06399">
        <ele>431.4</ele>
        <time>2022-09-30T10:59:12Z</time>
      </trkpt>
      <trkpt lat="46.96703" lon="7.06406">
        <ele>431.4</ele>
        <time>2022-09-30T10:59:13Z</time>
      </trkpt>
      <trkpt lat="46.96703" lon="7.06412">
        <ele>431.3</ele>
        <time>2022-09-30T10:59:14Z</time>
      </trkpt>
      <trkpt lat="46.96702" lon="7.06419">
        <ele>431.3</ele>
        <time>2022-09-30T10:59:15Z</time>
      </trkpt>
      <trkpt lat="46.96702" lon="7.06426">
        <ele>431.2</ele>
        <time>2022-09-30T10:59:16Z</time>
      </trkpt>
      <trkpt lat="46.96702" lon="7.06433">
        <ele>431.2</ele>
        <time>2022-09-30T10:59:17Z</time>
      </trkpt>
      <trkpt lat="46.96702" lon="7.0644">
        <ele>431.2</ele>
        <time>2022-09-30T10:59:18Z</time>
      </trkpt>
      <trkpt lat="46.96702" lon="7.06446">
        <ele>431.1</ele>
        <time>2022-09-30T10:59:19Z</time>
      </trkpt>
      <trkpt lat="46.96701" lon="7.06454">
        <ele>431.1</ele>
        <time>2022-09-30T10:59:20Z</time>
      </trkpt>
      <trkpt lat="46.96701" lon="7.06461">
        <ele>431.1</ele>
        <time>2022-09-30T10:59:21Z</time>
      </trkpt>
      <trkpt lat="46.96701" lon="7.06469">
        <ele>431.1</ele>
        <time>2022-09-30T10:59:22Z</time>
      </trkpt>
      <trkpt lat="46.967" lon="7.06476">
        <ele>431</ele>
        <time>2022-09-30T10:59:23Z</time>
      </trkpt>
      <trkpt lat="46.96699" lon="7.06483">
        <ele>431</ele>
        <time>2022-09-30T10:59:24Z</time>
      </trkpt>
      <trkpt lat="46.96699" lon="7.06491">
        <ele>431</ele>
        <time>2022-09-30T10:59:25Z</time>
      </trkpt>
      <trkpt lat="46.96699" lon="7.06498">
        <ele>431</ele>
        <time>2022-09-30T10:59:26Z</time>
      </trkpt>
      <trkpt lat="46.96699" lon="7.06504">
        <ele>431</ele>
        <time>2022-09-30T10:59:27Z</time>
      </trkpt>
      <trkpt lat="46.96698" lon="7.0651">
        <ele>431</ele>
        <time>2022-09-30T10:59:28Z</time>
      </trkpt>
      <trkpt lat="46.96698" lon="7.06516">
        <ele>431</ele>
        <time>2022-09-30T10:59:29Z</time>
      </trkpt>
      <trkpt lat="46.96698" lon="7.06522">
        <ele>431</ele>
        <time>2022-09-30T10:59:30Z</time>
      </trkpt>
      <trkpt lat="46.96698" lon="7.06528">
        <ele>431</ele>
        <time>2022-09-30T10:59:31Z</time>
      </trkpt>
      <trkpt lat="46.96698" lon="7.06534">
        <ele>431</ele>
        <time>2022-09-30T10:59:32Z</time>
      </trkpt>
      <trkpt lat="46.96697" lon="7.0654">
        <ele>431</ele>
        <time>2022-09-30T10:59:33Z</time>
      </trkpt>
      <trkpt lat="46.96697" lon="7.06547">
        <ele>431</ele>
        <time>2022-09-30T10:59:34Z</time>
      </trkpt>
      <trkpt lat="46.96697" lon="7.06554">
        <ele>431</ele>
        <time>2022-09-30T10:59:35Z</time>
      </trkpt>
      <trkpt lat="46.96697" lon="7.0656">
        <ele>431</ele>
        <time>2022-09-30T10:59:36Z</time>
      </trkpt>
      <trkpt lat="46.96697" lon="7.06567">
        <ele>430.9</ele>
        <time>2022-09-30T10:59:37Z</time>
      </trkpt>
      <trkpt lat="46.96696" lon="7.06573">
        <ele>430.9</ele>
        <time>2022-09-30T10:59:38Z</time>
      </trkpt>
      <trkpt lat="46.96696" lon="7.0658">
        <ele>430.9</ele>
        <time>2022-09-30T10:59:39Z</time>
      </trkpt>
      <trkpt lat="46.96697" lon="7.06586">
        <ele>430.9</ele>
        <time>2022-09-30T10:59:40Z</time>
      </trkpt>
      <trkpt lat="46.96698" lon="7.06593">
        <ele>430.9</ele>
        <time>2022-09-30T10:59:41Z</time>
      </trkpt>
      <trkpt lat="46.967" lon="7.06599">
        <ele>430.9</ele>
        <time>2022-09-30T10:59:42Z</time>
      </trkpt>
      <trkpt lat="46.96701" lon="7.06606">
        <ele>430.9</ele>
        <time>2022-09-30T10:59:43Z</time>
      </trkpt>
      <trkpt lat="46.96702" lon="7.06612">
        <ele>430.9</ele>
        <time>2022-09-30T10:59:44Z</time>
      </trkpt>
      <trkpt lat="46.96703" lon="7.06619">
        <ele>430.8</ele>
        <time>2022-09-30T10:59:45Z</time>
      </trkpt>
      <trkpt lat="46.96704" lon="7.06626">
        <ele>430.8</ele>
        <time>2022-09-30T10:59:46Z</time>
      </trkpt>
      <trkpt lat="46.96705" lon="7.06633">
        <ele>430.8</ele>
        <time>2022-09-30T10:59:47Z</time>
      </trkpt>
      <trkpt lat="46.96706" lon="7.0664">
        <ele>430.8</ele>
        <time>2022-09-30T10:59:48Z</time>
      </trkpt>
      <trkpt lat="46.96707" lon="7.06647">
        <ele>430.8</ele>
        <time>2022-09-30T10:59:49Z</time>
      </trkpt>
      <trkpt lat="46.96708" lon="7.06654">
        <ele>430.8</ele>
        <time>2022-09-30T10:59:50Z</time>
      </trkpt>
      <trkpt lat="46.96709" lon="7.06661">
        <ele>430.8</ele>
        <time>2022-09-30T10:59:51Z</time>
      </trkpt>
      <trkpt lat="46.9671" lon="7.06667">
        <ele>430.7</ele>
        <time>2022-09-30T10:59:52Z</time>
      </trkpt>
      <trkpt lat="46.96711" lon="7.06674">
        <ele>430.7</ele>
        <time>2022-09-30T10:59:53Z</time>
      </trkpt>
      <trkpt lat="46.96712" lon="7.06681">
        <ele>430.7</ele>
        <time>2022-09-30T10:59:54Z</time>
      </trkpt>
      <trkpt lat="46.96713" lon="7.06688">
        <ele>430.7</ele>
        <time>2022-09-30T10:59:55Z</time>
      </trkpt>
      <trkpt lat="46.96714" lon="7.06695">
        <ele>430.7</ele>
        <time>2022-09-30T10:59:56Z</time>
      </trkpt>
      <trkpt lat="46.96716" lon="7.06702">
        <ele>430.6</ele>
        <time>2022-09-30T10:59:57Z</time>
      </trkpt>
      <trkpt lat="46.96717" lon="7.06709">
        <ele>430.6</ele>
        <time>2022-09-30T10:59:58Z</time>
      </trkpt>
      <trkpt lat="46.96718" lon="7.06716">
        <ele>430.6</ele>
        <time>2022-09-30T10:59:59Z</time>
      </trkpt>
      <trkpt lat="46.96719" lon="7.06723">
        <ele>430.6</ele>
        <time>2022-09-30T11:00:00Z</time>
      </trkpt>
      <trkpt lat="46.9672" lon="7.0673">
        <ele>430.6</ele>
        <time>2022-09-30T11:00:01Z</time>
      </trkpt>
      <trkpt lat="46.96721" lon="7.06737">
        <ele>430.6</ele>
        <time>2022-09-30T11:00:02Z</time>
      </trkpt>
      <trkpt lat="46.96722" lon="7.06744">
        <ele>430.5</ele>
        <time>2022-09-30T11:00:03Z</time>
      </trkpt>
      <trkpt lat="46.96723" lon="7.06751">
        <ele>430.5</ele>
        <time>2022-09-30T11:00:04Z</time>
      </trkpt>
      <trkpt lat="46.96724" lon="7.06758">
        <ele>430.5</ele>
        <time>2022-09-30T11:00:05Z</time>
      </trkpt>
      <trkpt lat="46.96725" lon="7.06765">
        <ele>430.5</ele>
        <time>2022-09-30T11:00:06Z</time>
      </trkpt>
      <trkpt lat="46.96727" lon="7.06772">
        <ele>430.5</ele>
        <time>2022-09-30T11:00:07Z</time>
      </trkpt>
      <trkpt lat="46.96728" lon="7.0678">
        <ele>430.5</ele>
        <time>2022-09-30T11:00:09Z</time>
      </trkpt>
      <trkpt lat="46.96729" lon="7.06786">
        <ele>430.5</ele>
        <time>2022-09-30T11:00:10Z</time>
      </trkpt>
      <trkpt lat="46.9673" lon="7.06794">
        <ele>430.5</ele>
        <time>2022-09-30T11:00:11Z</time>
      </trkpt>
      <trkpt lat="46.96732" lon="7.06801">
        <ele>430.4</ele>
        <time>2022-09-30T11:00:12Z</time>
      </trkpt>
      <trkpt lat="46.96732" lon="7.06807">
        <ele>430.4</ele>
        <time>2022-09-30T11:00:13Z</time>
      </trkpt>
      <trkpt lat="46.96733" lon="7.06814">
        <ele>430.4</ele>
        <time>2022-09-30T11:00:14Z</time>
      </trkpt>
      <trkpt lat="46.96734" lon="7.06822">
        <ele>430.4</ele>
        <time>2022-09-30T11:00:15Z</time>
      </trkpt>
      <trkpt lat="46.96735" lon="7.06829">
        <ele>430.4</ele>
        <time>2022-09-30T11:00:16Z</time>
      </trkpt>
      <trkpt lat="46.96737" lon="7.06836">
        <ele>430.4</ele>
        <time>2022-09-30T11:00:17Z</time>
      </trkpt>
      <trkpt lat="46.96739" lon="7.0685">
        <ele>430.4</ele>
        <time>2022-09-30T11:00:18Z</time>
      </trkpt>
      <trkpt lat="46.9674" lon="7.06857">
        <ele>430.5</ele>
        <time>2022-09-30T11:00:19Z</time>
      </trkpt>
      <trkpt lat="46.96741" lon="7.06864">
        <ele>430.5</ele>
        <time>2022-09-30T11:00:20Z</time>
      </trkpt>
      <trkpt lat="46.96742" lon="7.06871">
        <ele>430.5</ele>
        <time>2022-09-30T11:00:21Z</time>
      </trkpt>
      <trkpt lat="46.96744" lon="7.06877">
        <ele>430.6</ele>
        <time>2022-09-30T11:00:22Z</time>
      </trkpt>
      <trkpt lat="46.96744" lon="7.06885">
        <ele>430.6</ele>
        <time>2022-09-30T11:00:23Z</time>
      </trkpt>
      <trkpt lat="46.96745" lon="7.06891">
        <ele>430.7</ele>
        <time>2022-09-30T11:00:24Z</time>
      </trkpt>
      <trkpt lat="46.96747" lon="7.06897">
        <ele>430.7</ele>
        <time>2022-09-30T11:00:25Z</time>
      </trkpt>
      <trkpt lat="46.96747" lon="7.06903">
        <ele>430.8</ele>
        <time>2022-09-30T11:00:27Z</time>
      </trkpt>
      <trkpt lat="46.96748" lon="7.06908">
        <ele>430.9</ele>
        <time>2022-09-30T11:00:28Z</time>
      </trkpt>
      <trkpt lat="46.96749" lon="7.06913">
        <ele>431</ele>
        <time>2022-09-30T11:00:29Z</time>
      </trkpt>
      <trkpt lat="46.9675" lon="7.06917">
        <ele>431.1</ele>
        <time>2022-09-30T11:00:30Z</time>
      </trkpt>
      <trkpt lat="46.96752" lon="7.0692">
        <ele>431.1</ele>
        <time>2022-09-30T11:00:31Z</time>
      </trkpt>
      <trkpt lat="46.96752" lon="7.06921">
        <ele>431.2</ele>
        <time>2022-09-30T11:00:32Z</time>
      </trkpt>
      <trkpt lat="46.96753" lon="7.06922">
        <ele>431.2</ele>
        <time>2022-09-30T11:00:33Z</time>
      </trkpt>
      <trkpt lat="46.96753" lon="7.06923">
        <ele>431.2</ele>
        <time>2022-09-30T11:00:34Z</time>
      </trkpt>
      <trkpt lat="46.96753" lon="7.06923">
        <ele>431.2</ele>
        <time>2022-09-30T11:00:35Z</time>
      </trkpt>
      <trkpt lat="46.96753" lon="7.06924">
        <ele>431.2</ele>
        <time>2022-09-30T11:00:36Z</time>
      </trkpt>
      <trkpt lat="46.96753" lon="7.06925">
        <ele>431.3</ele>
        <time>2022-09-30T11:00:37Z</time>
      </trkpt>
      <trkpt lat="46.96753" lon="7.06925">
        <ele>431.3</ele>
        <time>2022-09-30T11:00:38Z</time>
      </trkpt>
      <trkpt lat="46.96753" lon="7.06926">
        <ele>431.3</ele>
        <time>2022-09-30T11:00:39Z</time>
      </trkpt>
      <trkpt lat="46.96753" lon="7.06926">
        <ele>431.3</ele>
        <time>2022-09-30T11:00:40Z</time>
      </trkpt>
      <trkpt lat="46.96753" lon="7.06927">
        <ele>431.3</ele>
        <time>2022-09-30T11:00:41Z</time>
      </trkpt>
      <trkpt lat="46.96753" lon="7.06928">
        <ele>431.3</ele>
        <time>2022-09-30T11:00:42Z</time>
      </trkpt>
      <trkpt lat="46.96753" lon="7.06928">
        <ele>431.3</ele>
        <time>2022-09-30T11:00:43Z</time>
      </trkpt>
      <trkpt lat="46.96753" lon="7.06929">
        <ele>431.4</ele>
        <time>2022-09-30T11:00:44Z</time>
      </trkpt>
      <trkpt lat="46.96753" lon="7.06929">
        <ele>431.4</ele>
        <time>2022-09-30T11:00:45Z</time>
      </trkpt>
      <trkpt lat="46.96753" lon="7.0693">
        <ele>431.4</ele>
        <time>2022-09-30T11:00:46Z</time>
      </trkpt>
      <trkpt lat="46.96753" lon="7.0693">
        <ele>431.4</ele>
        <time>2022-09-30T11:00:47Z</time>
      </trkpt>
      <trkpt lat="46.96753" lon="7.06931">
        <ele>431.4</ele>
        <time>2022-09-30T11:00:48Z</time>
      </trkpt>
      <trkpt lat="46.96753" lon="7.06932">
        <ele>431.4</ele>
        <time>2022-09-30T11:00:49Z</time>
      </trkpt>
      <trkpt lat="46.96753" lon="7.06932">
        <ele>431.4</ele>
        <time>2022-09-30T11:00:50Z</time>
      </trkpt>
      <trkpt lat="46.96753" lon="7.06933">
        <ele>431.4</ele>
        <time>2022-09-30T11:01:26Z</time>
      </trkpt>
      <trkpt lat="46.96753" lon="7.06933">
        <ele>431.5</ele>
        <time>2022-09-30T11:01:27Z</time>
      </trkpt>
      <trkpt lat="46.96753" lon="7.06934">
        <ele>431.5</ele>
        <time>2022-09-30T11:01:28Z</time>
      </trkpt>
      <trkpt lat="46.96754" lon="7.06938">
        <ele>431.6</ele>
        <time>2022-09-30T11:01:29Z</time>
      </trkpt>
      <trkpt lat="46.96754" lon="7.0694">
        <ele>431.6</ele>
        <time>2022-09-30T11:01:30Z</time>
      </trkpt>
      <trkpt lat="46.96753" lon="7.06944">
        <ele>431.6</ele>
        <time>2022-09-30T11:01:31Z</time>
      </trkpt>
      <trkpt lat="46.96752" lon="7.06945">
        <ele>431.6</ele>
        <time>2022-09-30T11:01:32Z</time>
      </trkpt>
      <trkpt lat="46.96752" lon="7.06946">
        <ele>431.6</ele>
        <time>2022-09-30T11:01:33Z</time>
      </trkpt>
      <trkpt lat="46.9675" lon="7.06949">
        <ele>431.6</ele>
        <time>2022-09-30T11:01:34Z</time>
      </trkpt>
      <trkpt lat="46.9675" lon="7.0695">
        <ele>431.6</ele>
        <time>2022-09-30T11:01:35Z</time>
      </trkpt>
      <trkpt lat="46.96749" lon="7.06951">
        <ele>431.5</ele>
        <time>2022-09-30T11:01:36Z</time>
      </trkpt>
      <trkpt lat="46.96747" lon="7.06952">
        <ele>431.5</ele>
        <time>2022-09-30T11:01:37Z</time>
      </trkpt>
      <trkpt lat="46.96746" lon="7.06953">
        <ele>431.5</ele>
        <time>2022-09-30T11:01:38Z</time>
      </trkpt>
      <trkpt lat="46.96743" lon="7.06954">
        <ele>431.5</ele>
        <time>2022-09-30T11:01:39Z</time>
      </trkpt>
      <trkpt lat="46.96742" lon="7.06956">
        <ele>431.5</ele>
        <time>2022-09-30T11:01:40Z</time>
      </trkpt>
      <trkpt lat="46.96739" lon="7.06957">
        <ele>431.5</ele>
        <time>2022-09-30T11:01:41Z</time>
      </trkpt>
      <trkpt lat="46.96737" lon="7.06957">
        <ele>431.5</ele>
        <time>2022-09-30T11:01:42Z</time>
      </trkpt>
      <trkpt lat="46.96735" lon="7.06958">
        <ele>431.5</ele>
        <time>2022-09-30T11:01:43Z</time>
      </trkpt>
      <trkpt lat="46.96734" lon="7.06959">
        <ele>431.5</ele>
        <time>2022-09-30T11:01:44Z</time>
      </trkpt>
      <trkpt lat="46.9673" lon="7.06961">
        <ele>431.5</ele>
        <time>2022-09-30T11:01:45Z</time>
      </trkpt>
      <trkpt lat="46.96728" lon="7.06962">
        <ele>431.5</ele>
        <time>2022-09-30T11:01:46Z</time>
      </trkpt>
      <trkpt lat="46.96725" lon="7.06963">
        <ele>431.5</ele>
        <time>2022-09-30T11:01:47Z</time>
      </trkpt>
      <trkpt lat="46.96722" lon="7.06964">
        <ele>431.5</ele>
        <time>2022-09-30T11:01:48Z</time>
      </trkpt>
      <trkpt lat="46.96719" lon="7.06966">
        <ele>431.5</ele>
        <time>2022-09-30T11:01:49Z</time>
      </trkpt>
      <trkpt lat="46.96717" lon="7.06967">
        <ele>431.6</ele>
        <time>2022-09-30T11:01:50Z</time>
      </trkpt>
      <trkpt lat="46.96713" lon="7.0697">
        <ele>431.6</ele>
        <time>2022-09-30T11:01:51Z</time>
      </trkpt>
      <trkpt lat="46.9671" lon="7.06971">
        <ele>431.6</ele>
        <time>2022-09-30T11:01:52Z</time>
      </trkpt>
      <trkpt lat="46.96707" lon="7.06973">
        <ele>431.6</ele>
        <time>2022-09-30T11:01:53Z</time>
      </trkpt>
      <trkpt lat="46.96704" lon="7.06975">
        <ele>431.7</ele>
        <time>2022-09-30T11:01:54Z</time>
      </trkpt>
      <trkpt lat="46.967" lon="7.06976">
        <ele>431.7</ele>
        <time>2022-09-30T11:01:55Z</time>
      </trkpt>
      <trkpt lat="46.96697" lon="7.06977">
        <ele>431.8</ele>
        <time>2022-09-30T11:01:56Z</time>
      </trkpt>
      <trkpt lat="46.96693" lon="7.0698">
        <ele>431.8</ele>
        <time>2022-09-30T11:01:57Z</time>
      </trkpt>
      <trkpt lat="46.9669" lon="7.06981">
        <ele>431.9</ele>
        <time>2022-09-30T11:01:58Z</time>
      </trkpt>
      <trkpt lat="46.96687" lon="7.06983">
        <ele>432</ele>
        <time>2022-09-30T11:01:59Z</time>
      </trkpt>
      <trkpt lat="46.96681" lon="7.06986">
        <ele>432.1</ele>
        <time>2022-09-30T11:02:00Z</time>
      </trkpt>
      <trkpt lat="46.96679" lon="7.06987">
        <ele>432.1</ele>
        <time>2022-09-30T11:02:01Z</time>
      </trkpt>
      <trkpt lat="46.96675" lon="7.06989">
        <ele>432.2</ele>
        <time>2022-09-30T11:02:02Z</time>
      </trkpt>
      <trkpt lat="46.96672" lon="7.06992">
        <ele>432.3</ele>
        <time>2022-09-30T11:02:03Z</time>
      </trkpt>
      <trkpt lat="46.96667" lon="7.06994">
        <ele>432.4</ele>
        <time>2022-09-30T11:02:04Z</time>
      </trkpt>
      <trkpt lat="46.96663" lon="7.06996">
        <ele>432.6</ele>
        <time>2022-09-30T11:02:05Z</time>
      </trkpt>
      <trkpt lat="46.96659" lon="7.06998">
        <ele>432.7</ele>
        <time>2022-09-30T11:02:06Z</time>
      </trkpt>
      <trkpt lat="46.96656" lon="7.07">
        <ele>432.8</ele>
        <time>2022-09-30T11:02:07Z</time>
      </trkpt>
      <trkpt lat="46.96652" lon="7.07002">
        <ele>432.9</ele>
        <time>2022-09-30T11:02:08Z</time>
      </trkpt>
      <trkpt lat="46.9665" lon="7.07004">
        <ele>433</ele>
        <time>2022-09-30T11:02:09Z</time>
      </trkpt>
      <trkpt lat="46.96647" lon="7.07006">
        <ele>433.1</ele>
        <time>2022-09-30T11:02:10Z</time>
      </trkpt>
      <trkpt lat="46.96644" lon="7.07008">
        <ele>433.2</ele>
        <time>2022-09-30T11:02:11Z</time>
      </trkpt>
      <trkpt lat="46.96641" lon="7.07009">
        <ele>433.3</ele>
        <time>2022-09-30T11:02:12Z</time>
      </trkpt>
      <trkpt lat="46.96638" lon="7.0701">
        <ele>433.4</ele>
        <time>2022-09-30T11:02:13Z</time>
      </trkpt>
      <trkpt lat="46.96633" lon="7.07012">
        <ele>433.6</ele>
        <time>2022-09-30T11:02:15Z</time>
      </trkpt>
      <trkpt lat="46.96632" lon="7.07013">
        <ele>433.7</ele>
        <time>2022-09-30T11:02:16Z</time>
      </trkpt>
      <trkpt lat="46.9663" lon="7.07013">
        <ele>433.7</ele>
        <time>2022-09-30T11:02:17Z</time>
      </trkpt>
      <trkpt lat="46.96628" lon="7.07014">
        <ele>433.9</ele>
        <time>2022-09-30T11:02:18Z</time>
      </trkpt>
      <trkpt lat="46.96624" lon="7.07017">
        <ele>434</ele>
        <time>2022-09-30T11:02:19Z</time>
      </trkpt>
      <trkpt lat="46.96622" lon="7.07018">
        <ele>434.1</ele>
        <time>2022-09-30T11:02:20Z</time>
      </trkpt>
      <trkpt lat="46.96619" lon="7.07019">
        <ele>434.2</ele>
        <time>2022-09-30T11:02:21Z</time>
      </trkpt>
      <trkpt lat="46.96616" lon="7.07021">
        <ele>434.4</ele>
        <time>2022-09-30T11:02:22Z</time>
      </trkpt>
      <trkpt lat="46.96614" lon="7.07021">
        <ele>434.5</ele>
        <time>2022-09-30T11:02:23Z</time>
      </trkpt>
      <trkpt lat="46.96612" lon="7.07021">
        <ele>434.6</ele>
        <time>2022-09-30T11:02:24Z</time>
      </trkpt>
      <trkpt lat="46.96609" lon="7.07024">
        <ele>434.8</ele>
        <time>2022-09-30T11:02:25Z</time>
      </trkpt>
      <trkpt lat="46.96607" lon="7.07025">
        <ele>434.8</ele>
        <time>2022-09-30T11:02:26Z</time>
      </trkpt>
      <trkpt lat="46.96604" lon="7.07026">
        <ele>435</ele>
        <time>2022-09-30T11:02:27Z</time>
      </trkpt>
      <trkpt lat="46.966" lon="7.0703">
        <ele>435.2</ele>
        <time>2022-09-30T11:02:28Z</time>
      </trkpt>
      <trkpt lat="46.96599" lon="7.07031">
        <ele>435.3</ele>
        <time>2022-09-30T11:02:29Z</time>
      </trkpt>
      <trkpt lat="46.96596" lon="7.07034">
        <ele>435.4</ele>
        <time>2022-09-30T11:02:30Z</time>
      </trkpt>
      <trkpt lat="46.96596" lon="7.07036">
        <ele>435.5</ele>
        <time>2022-09-30T11:02:31Z</time>
      </trkpt>
      <trkpt lat="46.96596" lon="7.07045">
        <ele>435.9</ele>
        <time>2022-09-30T11:02:32Z</time>
      </trkpt>
      <trkpt lat="46.96596" lon="7.0705">
        <ele>435.9</ele>
        <time>2022-09-30T11:02:33Z</time>
      </trkpt>
      <trkpt lat="46.96595" lon="7.07052">
        <ele>435.9</ele>
        <time>2022-09-30T11:02:34Z</time>
      </trkpt>
      <trkpt lat="46.96595" lon="7.07052">
        <ele>435.9</ele>
        <time>2022-09-30T11:02:35Z</time>
      </trkpt>
      <trkpt lat="46.96594" lon="7.07051">
        <ele>435.9</ele>
        <time>2022-09-30T11:02:36Z</time>
      </trkpt>
      <trkpt lat="46.96594" lon="7.07051">
        <ele>435.9</ele>
        <time>2022-09-30T11:02:37Z</time>
      </trkpt>
      <trkpt lat="46.96594" lon="7.07052">
        <ele>435.9</ele>
        <time>2022-09-30T11:02:38Z</time>
      </trkpt>
      <trkpt lat="46.96593" lon="7.07051">
        <ele>435.9</ele>
        <time>2022-09-30T11:02:39Z</time>
      </trkpt>
      <trkpt lat="46.96593" lon="7.07051">
        <ele>435.9</ele>
        <time>2022-09-30T11:02:40Z</time>
      </trkpt>
      <trkpt lat="46.96594" lon="7.07053">
        <ele>435.9</ele>
        <time>2022-09-30T11:02:41Z</time>
      </trkpt>
      <trkpt lat="46.96594" lon="7.07055">
        <ele>435.9</ele>
        <time>2022-09-30T11:02:42Z</time>
      </trkpt>
      <trkpt lat="46.96595" lon="7.07057">
        <ele>435.9</ele>
        <time>2022-09-30T11:02:43Z</time>
      </trkpt>
      <trkpt lat="46.96596" lon="7.0706">
        <ele>435.9</ele>
        <time>2022-09-30T11:02:44Z</time>
      </trkpt>
      <trkpt lat="46.96596" lon="7.07062">
        <ele>435.9</ele>
        <time>2022-09-30T11:02:56Z</time>
      </trkpt>
      <trkpt lat="46.96597" lon="7.07064">
        <ele>435.9</ele>
        <time>2022-09-30T11:02:57Z</time>
      </trkpt>
      <trkpt lat="46.96598" lon="7.07069">
        <ele>435.9</ele>
        <time>2022-09-30T11:02:58Z</time>
      </trkpt>
      <trkpt lat="46.96599" lon="7.07071">
        <ele>435.9</ele>
        <time>2022-09-30T11:02:59Z</time>
      </trkpt>
      <trkpt lat="46.96599" lon="7.07076">
        <ele>435.8</ele>
        <time>2022-09-30T11:03:00Z</time>
      </trkpt>
      <trkpt lat="46.966" lon="7.07081">
        <ele>435.8</ele>
        <time>2022-09-30T11:03:01Z</time>
      </trkpt>
      <trkpt lat="46.96601" lon="7.07086">
        <ele>435.8</ele>
        <time>2022-09-30T11:03:02Z</time>
      </trkpt>
      <trkpt lat="46.96602" lon="7.07091">
        <ele>435.8</ele>
        <time>2022-09-30T11:03:03Z</time>
      </trkpt>
      <trkpt lat="46.96603" lon="7.07096">
        <ele>435.8</ele>
        <time>2022-09-30T11:03:04Z</time>
      </trkpt>
      <trkpt lat="46.96604" lon="7.071">
        <ele>435.7</ele>
        <time>2022-09-30T11:03:05Z</time>
      </trkpt>
      <trkpt lat="46.96605" lon="7.07105">
        <ele>435.7</ele>
        <time>2022-09-30T11:03:06Z</time>
      </trkpt>
      <trkpt lat="46.96606" lon="7.0711">
        <ele>435.7</ele>
        <time>2022-09-30T11:03:07Z</time>
      </trkpt>
      <trkpt lat="46.96607" lon="7.07116">
        <ele>435.6</ele>
        <time>2022-09-30T11:03:08Z</time>
      </trkpt>
      <trkpt lat="46.96609" lon="7.07121">
        <ele>435.6</ele>
        <time>2022-09-30T11:03:09Z</time>
      </trkpt>
      <trkpt lat="46.9661" lon="7.07127">
        <ele>435.5</ele>
        <time>2022-09-30T11:03:10Z</time>
      </trkpt>
      <trkpt lat="46.96612" lon="7.07133">
        <ele>435.5</ele>
        <time>2022-09-30T11:03:11Z</time>
      </trkpt>
      <trkpt lat="46.96613" lon="7.07139">
        <ele>435.5</ele>
        <time>2022-09-30T11:03:12Z</time>
      </trkpt>
      <trkpt lat="46.96614" lon="7.07144">
        <ele>435.4</ele>
        <time>2022-09-30T11:03:13Z</time>
      </trkpt>
      <trkpt lat="46.96616" lon="7.07151">
        <ele>435.4</ele>
        <time>2022-09-30T11:03:14Z</time>
      </trkpt>
      <trkpt lat="46.96617" lon="7.07157">
        <ele>435.4</ele>
        <time>2022-09-30T11:03:15Z</time>
      </trkpt>
      <trkpt lat="46.96619" lon="7.07164">
        <ele>435.4</ele>
        <time>2022-09-30T11:03:16Z</time>
      </trkpt>
      <trkpt lat="46.96621" lon="7.07171">
        <ele>435.4</ele>
        <time>2022-09-30T11:03:17Z</time>
      </trkpt>
      <trkpt lat="46.96622" lon="7.07178">
        <ele>435.4</ele>
        <time>2022-09-30T11:03:18Z</time>
      </trkpt>
      <trkpt lat="46.96624" lon="7.07185">
        <ele>435.4</ele>
        <time>2022-09-30T11:03:19Z</time>
      </trkpt>
      <trkpt lat="46.96626" lon="7.07192">
        <ele>435.4</ele>
        <time>2022-09-30T11:03:20Z</time>
      </trkpt>
      <trkpt lat="46.96628" lon="7.07199">
        <ele>435.4</ele>
        <time>2022-09-30T11:03:21Z</time>
      </trkpt>
      <trkpt lat="46.96629" lon="7.07205">
        <ele>435.3</ele>
        <time>2022-09-30T11:03:22Z</time>
      </trkpt>
      <trkpt lat="46.96631" lon="7.07212">
        <ele>435.3</ele>
        <time>2022-09-30T11:03:23Z</time>
      </trkpt>
      <trkpt lat="46.96632" lon="7.07219">
        <ele>435.3</ele>
        <time>2022-09-30T11:03:24Z</time>
      </trkpt>
      <trkpt lat="46.96634" lon="7.07226">
        <ele>435.2</ele>
        <time>2022-09-30T11:03:25Z</time>
      </trkpt>
      <trkpt lat="46.96636" lon="7.07232">
        <ele>435.2</ele>
        <time>2022-09-30T11:03:26Z</time>
      </trkpt>
      <trkpt lat="46.96637" lon="7.07239">
        <ele>435.1</ele>
        <time>2022-09-30T11:03:27Z</time>
      </trkpt>
      <trkpt lat="46.96639" lon="7.07245">
        <ele>435.1</ele>
        <time>2022-09-30T11:03:28Z</time>
      </trkpt>
      <trkpt lat="46.9664" lon="7.07252">
        <ele>435</ele>
        <time>2022-09-30T11:03:29Z</time>
      </trkpt>
      <trkpt lat="46.96642" lon="7.0726">
        <ele>435</ele>
        <time>2022-09-30T11:03:30Z</time>
      </trkpt>
      <trkpt lat="46.96644" lon="7.07267">
        <ele>434.9</ele>
        <time>2022-09-30T11:03:31Z</time>
      </trkpt>
      <trkpt lat="46.96646" lon="7.07275">
        <ele>434.8</ele>
        <time>2022-09-30T11:03:32Z</time>
      </trkpt>
      <trkpt lat="46.96647" lon="7.07281">
        <ele>434.8</ele>
        <time>2022-09-30T11:03:33Z</time>
      </trkpt>
      <trkpt lat="46.96649" lon="7.07288">
        <ele>434.7</ele>
        <time>2022-09-30T11:03:34Z</time>
      </trkpt>
      <trkpt lat="46.96651" lon="7.07294">
        <ele>434.6</ele>
        <time>2022-09-30T11:03:35Z</time>
      </trkpt>
      <trkpt lat="46.96653" lon="7.07301">
        <ele>434.6</ele>
        <time>2022-09-30T11:03:36Z</time>
      </trkpt>
      <trkpt lat="46.96654" lon="7.07309">
        <ele>434.5</ele>
        <time>2022-09-30T11:03:37Z</time>
      </trkpt>
      <trkpt lat="46.96656" lon="7.07316">
        <ele>434.5</ele>
        <time>2022-09-30T11:03:38Z</time>
      </trkpt>
      <trkpt lat="46.96658" lon="7.07323">
        <ele>434.4</ele>
        <time>2022-09-30T11:03:39Z</time>
      </trkpt>
      <trkpt lat="46.9666" lon="7.0733">
        <ele>434.3</ele>
        <time>2022-09-30T11:03:40Z</time>
      </trkpt>
      <trkpt lat="46.96662" lon="7.07337">
        <ele>434.3</ele>
        <time>2022-09-30T11:03:41Z</time>
      </trkpt>
      <trkpt lat="46.96663" lon="7.07344">
        <ele>434.2</ele>
        <time>2022-09-30T11:03:42Z</time>
      </trkpt>
      <trkpt lat="46.96665" lon="7.07351">
        <ele>434.2</ele>
        <time>2022-09-30T11:03:43Z</time>
      </trkpt>
      <trkpt lat="46.96666" lon="7.07357">
        <ele>434.1</ele>
        <time>2022-09-30T11:03:44Z</time>
      </trkpt>
      <trkpt lat="46.96668" lon="7.07364">
        <ele>434</ele>
        <time>2022-09-30T11:03:45Z</time>
      </trkpt>
      <trkpt lat="46.96669" lon="7.0737">
        <ele>434</ele>
        <time>2022-09-30T11:03:46Z</time>
      </trkpt>
      <trkpt lat="46.96671" lon="7.07378">
        <ele>433.9</ele>
        <time>2022-09-30T11:03:47Z</time>
      </trkpt>
      <trkpt lat="46.96673" lon="7.07385">
        <ele>433.8</ele>
        <time>2022-09-30T11:03:48Z</time>
      </trkpt>
      <trkpt lat="46.96675" lon="7.07391">
        <ele>433.8</ele>
        <time>2022-09-30T11:03:49Z</time>
      </trkpt>
      <trkpt lat="46.96677" lon="7.07398">
        <ele>433.7</ele>
        <time>2022-09-30T11:03:50Z</time>
      </trkpt>
      <trkpt lat="46.96678" lon="7.07405">
        <ele>433.7</ele>
        <time>2022-09-30T11:03:51Z</time>
      </trkpt>
      <trkpt lat="46.96679" lon="7.07412">
        <ele>433.6</ele>
        <time>2022-09-30T11:03:52Z</time>
      </trkpt>
      <trkpt lat="46.96681" lon="7.07419">
        <ele>433.6</ele>
        <time>2022-09-30T11:03:53Z</time>
      </trkpt>
      <trkpt lat="46.96683" lon="7.07426">
        <ele>433.5</ele>
        <time>2022-09-30T11:03:54Z</time>
      </trkpt>
      <trkpt lat="46.96684" lon="7.07432">
        <ele>433.5</ele>
        <time>2022-09-30T11:03:55Z</time>
      </trkpt>
      <trkpt lat="46.96686" lon="7.07439">
        <ele>433.4</ele>
        <time>2022-09-30T11:03:56Z</time>
      </trkpt>
      <trkpt lat="46.96688" lon="7.07445">
        <ele>433.4</ele>
        <time>2022-09-30T11:03:57Z</time>
      </trkpt>
      <trkpt lat="46.9669" lon="7.07452">
        <ele>433.4</ele>
        <time>2022-09-30T11:03:58Z</time>
      </trkpt>
      <trkpt lat="46.96691" lon="7.07459">
        <ele>433.3</ele>
        <time>2022-09-30T11:03:59Z</time>
      </trkpt>
      <trkpt lat="46.96693" lon="7.07466">
        <ele>433.3</ele>
        <time>2022-09-30T11:04:00Z</time>
      </trkpt>
      <trkpt lat="46.96695" lon="7.07472">
        <ele>433.3</ele>
        <time>2022-09-30T11:04:01Z</time>
      </trkpt>
      <trkpt lat="46.96697" lon="7.07478">
        <ele>433.2</ele>
        <time>2022-09-30T11:04:02Z</time>
      </trkpt>
      <trkpt lat="46.96698" lon="7.07485">
        <ele>433.2</ele>
        <time>2022-09-30T11:04:03Z</time>
      </trkpt>
      <trkpt lat="46.967" lon="7.07492">
        <ele>433.2</ele>
        <time>2022-09-30T11:04:04Z</time>
      </trkpt>
      <trkpt lat="46.96701" lon="7.07499">
        <ele>433.2</ele>
        <time>2022-09-30T11:04:05Z</time>
      </trkpt>
      <trkpt lat="46.96702" lon="7.07505">
        <ele>433.2</ele>
        <time>2022-09-30T11:04:06Z</time>
      </trkpt>
      <trkpt lat="46.96704" lon="7.07511">
        <ele>433.1</ele>
        <time>2022-09-30T11:04:07Z</time>
      </trkpt>
      <trkpt lat="46.96706" lon="7.07517">
        <ele>433.1</ele>
        <time>2022-09-30T11:04:08Z</time>
      </trkpt>
      <trkpt lat="46.96708" lon="7.07524">
        <ele>433.1</ele>
        <time>2022-09-30T11:04:09Z</time>
      </trkpt>
      <trkpt lat="46.96709" lon="7.07531">
        <ele>433.1</ele>
        <time>2022-09-30T11:04:10Z</time>
      </trkpt>
      <trkpt lat="46.96711" lon="7.07537">
        <ele>433.1</ele>
        <time>2022-09-30T11:04:11Z</time>
      </trkpt>
      <trkpt lat="46.96712" lon="7.07543">
        <ele>433.1</ele>
        <time>2022-09-30T11:04:12Z</time>
      </trkpt>
      <trkpt lat="46.96714" lon="7.07549">
        <ele>433.1</ele>
        <time>2022-09-30T11:04:13Z</time>
      </trkpt>
      <trkpt lat="46.96715" lon="7.07556">
        <ele>433.1</ele>
        <time>2022-09-30T11:04:14Z</time>
      </trkpt>
      <trkpt lat="46.96717" lon="7.07563">
        <ele>433.1</ele>
        <time>2022-09-30T11:04:15Z</time>
      </trkpt>
      <trkpt lat="46.96718" lon="7.07569">
        <ele>433.1</ele>
        <time>2022-09-30T11:04:16Z</time>
      </trkpt>
      <trkpt lat="46.9672" lon="7.07575">
        <ele>433.1</ele>
        <time>2022-09-30T11:04:17Z</time>
      </trkpt>
      <trkpt lat="46.96721" lon="7.07582">
        <ele>433.1</ele>
        <time>2022-09-30T11:04:18Z</time>
      </trkpt>
      <trkpt lat="46.96723" lon="7.07588">
        <ele>433.1</ele>
        <time>2022-09-30T11:04:19Z</time>
      </trkpt>
      <trkpt lat="46.96725" lon="7.07595">
        <ele>433.1</ele>
        <time>2022-09-30T11:04:21Z</time>
      </trkpt>
      <trkpt lat="46.96728" lon="7.07606">
        <ele>433.1</ele>
        <time>2022-09-30T11:04:22Z</time>
      </trkpt>
      <trkpt lat="46.9673" lon="7.07613">
        <ele>433.1</ele>
        <time>2022-09-30T11:04:23Z</time>
      </trkpt>
      <trkpt lat="46.96731" lon="7.07619">
        <ele>433.1</ele>
        <time>2022-09-30T11:04:25Z</time>
      </trkpt>
      <trkpt lat="46.96733" lon="7.07625">
        <ele>433.1</ele>
        <time>2022-09-30T11:04:26Z</time>
      </trkpt>
      <trkpt lat="46.96734" lon="7.07632">
        <ele>433.1</ele>
        <time>2022-09-30T11:04:27Z</time>
      </trkpt>
      <trkpt lat="46.96735" lon="7.07638">
        <ele>433.1</ele>
        <time>2022-09-30T11:04:28Z</time>
      </trkpt>
      <trkpt lat="46.96737" lon="7.07644">
        <ele>433.1</ele>
        <time>2022-09-30T11:04:29Z</time>
      </trkpt>
      <trkpt lat="46.96739" lon="7.07651">
        <ele>433.1</ele>
        <time>2022-09-30T11:04:30Z</time>
      </trkpt>
      <trkpt lat="46.9674" lon="7.07658">
        <ele>433.1</ele>
        <time>2022-09-30T11:04:31Z</time>
      </trkpt>
      <trkpt lat="46.96742" lon="7.07663">
        <ele>433.1</ele>
        <time>2022-09-30T11:04:32Z</time>
      </trkpt>
      <trkpt lat="46.96744" lon="7.0767">
        <ele>433.1</ele>
        <time>2022-09-30T11:04:33Z</time>
      </trkpt>
      <trkpt lat="46.96745" lon="7.07676">
        <ele>433</ele>
        <time>2022-09-30T11:04:34Z</time>
      </trkpt>
      <trkpt lat="46.96746" lon="7.07682">
        <ele>433</ele>
        <time>2022-09-30T11:04:35Z</time>
      </trkpt>
      <trkpt lat="46.96748" lon="7.07688">
        <ele>433</ele>
        <time>2022-09-30T11:04:36Z</time>
      </trkpt>
      <trkpt lat="46.9675" lon="7.07694">
        <ele>433</ele>
        <time>2022-09-30T11:04:37Z</time>
      </trkpt>
      <trkpt lat="46.96753" lon="7.07706">
        <ele>432.9</ele>
        <time>2022-09-30T11:04:38Z</time>
      </trkpt>
      <trkpt lat="46.96754" lon="7.07713">
        <ele>432.9</ele>
        <time>2022-09-30T11:04:39Z</time>
      </trkpt>
      <trkpt lat="46.96756" lon="7.07719">
        <ele>432.9</ele>
        <time>2022-09-30T11:04:40Z</time>
      </trkpt>
      <trkpt lat="46.96758" lon="7.07726">
        <ele>432.9</ele>
        <time>2022-09-30T11:04:41Z</time>
      </trkpt>
      <trkpt lat="46.96759" lon="7.07732">
        <ele>432.9</ele>
        <time>2022-09-30T11:04:42Z</time>
      </trkpt>
      <trkpt lat="46.96761" lon="7.07739">
        <ele>432.9</ele>
        <time>2022-09-30T11:04:43Z</time>
      </trkpt>
      <trkpt lat="46.96763" lon="7.07745">
        <ele>433</ele>
        <time>2022-09-30T11:04:44Z</time>
      </trkpt>
      <trkpt lat="46.96765" lon="7.07751">
        <ele>433</ele>
        <time>2022-09-30T11:04:45Z</time>
      </trkpt>
      <trkpt lat="46.96766" lon="7.07757">
        <ele>433.1</ele>
        <time>2022-09-30T11:04:46Z</time>
      </trkpt>
      <trkpt lat="46.96767" lon="7.07763">
        <ele>433.1</ele>
        <time>2022-09-30T11:04:47Z</time>
      </trkpt>
      <trkpt lat="46.96769" lon="7.07769">
        <ele>433.2</ele>
        <time>2022-09-30T11:04:48Z</time>
      </trkpt>
      <trkpt lat="46.96771" lon="7.07774">
        <ele>433.2</ele>
        <time>2022-09-30T11:04:49Z</time>
      </trkpt>
      <trkpt lat="46.96772" lon="7.0778">
        <ele>433.2</ele>
        <time>2022-09-30T11:04:50Z</time>
      </trkpt>
      <trkpt lat="46.96773" lon="7.07786">
        <ele>433.2</ele>
        <time>2022-09-30T11:04:51Z</time>
      </trkpt>
      <trkpt lat="46.96775" lon="7.07791">
        <ele>433.2</ele>
        <time>2022-09-30T11:04:52Z</time>
      </trkpt>
      <trkpt lat="46.96776" lon="7.07796">
        <ele>433.2</ele>
        <time>2022-09-30T11:04:53Z</time>
      </trkpt>
      <trkpt lat="46.96777" lon="7.07802">
        <ele>433.2</ele>
        <time>2022-09-30T11:04:54Z</time>
      </trkpt>
      <trkpt lat="46.96778" lon="7.07809">
        <ele>433.2</ele>
        <time>2022-09-30T11:04:55Z</time>
      </trkpt>
      <trkpt lat="46.9678" lon="7.07814">
        <ele>433.2</ele>
        <time>2022-09-30T11:04:56Z</time>
      </trkpt>
      <trkpt lat="46.96781" lon="7.0782">
        <ele>433.1</ele>
        <time>2022-09-30T11:04:57Z</time>
      </trkpt>
      <trkpt lat="46.96783" lon="7.07826">
        <ele>433.1</ele>
        <time>2022-09-30T11:04:58Z</time>
      </trkpt>
      <trkpt lat="46.96784" lon="7.07832">
        <ele>433.1</ele>
        <time>2022-09-30T11:04:59Z</time>
      </trkpt>
      <trkpt lat="46.96786" lon="7.07838">
        <ele>433.1</ele>
        <time>2022-09-30T11:05:00Z</time>
      </trkpt>
      <trkpt lat="46.96787" lon="7.07844">
        <ele>433.1</ele>
        <time>2022-09-30T11:05:01Z</time>
      </trkpt>
      <trkpt lat="46.96788" lon="7.07849">
        <ele>433.2</ele>
        <time>2022-09-30T11:05:02Z</time>
      </trkpt>
      <trkpt lat="46.96789" lon="7.07856">
        <ele>433.2</ele>
        <time>2022-09-30T11:05:03Z</time>
      </trkpt>
      <trkpt lat="46.96791" lon="7.0786">
        <ele>433.2</ele>
        <time>2022-09-30T11:05:04Z</time>
      </trkpt>
      <trkpt lat="46.96792" lon="7.07866">
        <ele>433.2</ele>
        <time>2022-09-30T11:05:05Z</time>
      </trkpt>
      <trkpt lat="46.96794" lon="7.07871">
        <ele>433.2</ele>
        <time>2022-09-30T11:05:06Z</time>
      </trkpt>
      <trkpt lat="46.96794" lon="7.07878">
        <ele>433.3</ele>
        <time>2022-09-30T11:05:07Z</time>
      </trkpt>
      <trkpt lat="46.96796" lon="7.07883">
        <ele>433.3</ele>
        <time>2022-09-30T11:05:08Z</time>
      </trkpt>
      <trkpt lat="46.96798" lon="7.07888">
        <ele>433.4</ele>
        <time>2022-09-30T11:05:09Z</time>
      </trkpt>
      <trkpt lat="46.968" lon="7.07893">
        <ele>433.4</ele>
        <time>2022-09-30T11:05:10Z</time>
      </trkpt>
      <trkpt lat="46.96801" lon="7.07898">
        <ele>433.5</ele>
        <time>2022-09-30T11:05:11Z</time>
      </trkpt>
      <trkpt lat="46.96802" lon="7.07904">
        <ele>433.5</ele>
        <time>2022-09-30T11:05:12Z</time>
      </trkpt>
      <trkpt lat="46.96803" lon="7.0791">
        <ele>433.6</ele>
        <time>2022-09-30T11:05:13Z</time>
      </trkpt>
      <trkpt lat="46.96805" lon="7.07915">
        <ele>433.7</ele>
        <time>2022-09-30T11:05:14Z</time>
      </trkpt>
      <trkpt lat="46.96807" lon="7.0792">
        <ele>433.8</ele>
        <time>2022-09-30T11:05:15Z</time>
      </trkpt>
      <trkpt lat="46.96807" lon="7.07925">
        <ele>433.8</ele>
        <time>2022-09-30T11:05:16Z</time>
      </trkpt>
      <trkpt lat="46.96808" lon="7.07929">
        <ele>433.9</ele>
        <time>2022-09-30T11:05:17Z</time>
      </trkpt>
      <trkpt lat="46.96809" lon="7.07935">
        <ele>434.1</ele>
        <time>2022-09-30T11:05:18Z</time>
      </trkpt>
      <trkpt lat="46.96811" lon="7.07939">
        <ele>434.2</ele>
        <time>2022-09-30T11:05:19Z</time>
      </trkpt>
      <trkpt lat="46.96812" lon="7.07943">
        <ele>434.2</ele>
        <time>2022-09-30T11:05:20Z</time>
      </trkpt>
      <trkpt lat="46.96813" lon="7.07947">
        <ele>434.3</ele>
        <time>2022-09-30T11:05:21Z</time>
      </trkpt>
      <trkpt lat="46.96814" lon="7.07951">
        <ele>434.4</ele>
        <time>2022-09-30T11:05:22Z</time>
      </trkpt>
      <trkpt lat="46.96815" lon="7.07956">
        <ele>434.6</ele>
        <time>2022-09-30T11:05:23Z</time>
      </trkpt>
      <trkpt lat="46.96816" lon="7.0796">
        <ele>434.6</ele>
        <time>2022-09-30T11:05:24Z</time>
      </trkpt>
      <trkpt lat="46.96817" lon="7.07965">
        <ele>434.7</ele>
        <time>2022-09-30T11:05:25Z</time>
      </trkpt>
      <trkpt lat="46.96818" lon="7.07969">
        <ele>434.8</ele>
        <time>2022-09-30T11:05:26Z</time>
      </trkpt>
      <trkpt lat="46.96819" lon="7.07974">
        <ele>435</ele>
        <time>2022-09-30T11:05:27Z</time>
      </trkpt>
      <trkpt lat="46.9682" lon="7.07976">
        <ele>435</ele>
        <time>2022-09-30T11:05:28Z</time>
      </trkpt>
      <trkpt lat="46.96822" lon="7.07979">
        <ele>435.1</ele>
        <time>2022-09-30T11:05:29Z</time>
      </trkpt>
      <trkpt lat="46.96822" lon="7.07984">
        <ele>435.3</ele>
        <time>2022-09-30T11:05:30Z</time>
      </trkpt>
      <trkpt lat="46.96822" lon="7.07986">
        <ele>435.3</ele>
        <time>2022-09-30T11:05:31Z</time>
      </trkpt>
      <trkpt lat="46.96823" lon="7.07991">
        <ele>435.4</ele>
        <time>2022-09-30T11:05:32Z</time>
      </trkpt>
      <trkpt lat="46.96823" lon="7.07995">
        <ele>435.5</ele>
        <time>2022-09-30T11:05:33Z</time>
      </trkpt>
      <trkpt lat="46.96825" lon="7.07999">
        <ele>435.6</ele>
        <time>2022-09-30T11:05:34Z</time>
      </trkpt>
      <trkpt lat="46.96825" lon="7.08001">
        <ele>435.7</ele>
        <time>2022-09-30T11:05:35Z</time>
      </trkpt>
      <trkpt lat="46.96826" lon="7.08005">
        <ele>435.7</ele>
        <time>2022-09-30T11:05:36Z</time>
      </trkpt>
      <trkpt lat="46.96827" lon="7.0801">
        <ele>435.8</ele>
        <time>2022-09-30T11:05:37Z</time>
      </trkpt>
      <trkpt lat="46.96827" lon="7.08011">
        <ele>435.9</ele>
        <time>2022-09-30T11:05:38Z</time>
      </trkpt>
      <trkpt lat="46.96829" lon="7.08015">
        <ele>435.9</ele>
        <time>2022-09-30T11:05:39Z</time>
      </trkpt>
      <trkpt lat="46.96831" lon="7.08018">
        <ele>436</ele>
        <time>2022-09-30T11:05:40Z</time>
      </trkpt>
      <trkpt lat="46.96832" lon="7.08022">
        <ele>436</ele>
        <time>2022-09-30T11:05:41Z</time>
      </trkpt>
      <trkpt lat="46.96832" lon="7.08026">
        <ele>436</ele>
        <time>2022-09-30T11:05:42Z</time>
      </trkpt>
      <trkpt lat="46.96832" lon="7.08031">
        <ele>436.1</ele>
        <time>2022-09-30T11:05:43Z</time>
      </trkpt>
      <trkpt lat="46.96833" lon="7.08032">
        <ele>436.1</ele>
        <time>2022-09-30T11:05:44Z</time>
      </trkpt>
      <trkpt lat="46.96834" lon="7.08037">
        <ele>436.1</ele>
        <time>2022-09-30T11:05:45Z</time>
      </trkpt>
      <trkpt lat="46.96835" lon="7.08039">
        <ele>436.1</ele>
        <time>2022-09-30T11:05:46Z</time>
      </trkpt>
      <trkpt lat="46.96836" lon="7.08042">
        <ele>436.1</ele>
        <time>2022-09-30T11:05:47Z</time>
      </trkpt>
      <trkpt lat="46.96836" lon="7.08043">
        <ele>436.1</ele>
        <time>2022-09-30T11:05:48Z</time>
      </trkpt>
      <trkpt lat="46.96837" lon="7.08047">
        <ele>436</ele>
        <time>2022-09-30T11:05:49Z</time>
      </trkpt>
      <trkpt lat="46.96838" lon="7.08048">
        <ele>436</ele>
        <time>2022-09-30T11:05:50Z</time>
      </trkpt>
      <trkpt lat="46.96839" lon="7.08053">
        <ele>436</ele>
        <time>2022-09-30T11:05:51Z</time>
      </trkpt>
      <trkpt lat="46.9684" lon="7.08056">
        <ele>436</ele>
        <time>2022-09-30T11:05:52Z</time>
      </trkpt>
      <trkpt lat="46.96841" lon="7.08058">
        <ele>435.9</ele>
        <time>2022-09-30T11:05:53Z</time>
      </trkpt>
      <trkpt lat="46.96842" lon="7.08061">
        <ele>435.9</ele>
        <time>2022-09-30T11:05:54Z</time>
      </trkpt>
      <trkpt lat="46.96844" lon="7.08066">
        <ele>435.8</ele>
        <time>2022-09-30T11:05:55Z</time>
      </trkpt>
      <trkpt lat="46.96845" lon="7.0807">
        <ele>435.7</ele>
        <time>2022-09-30T11:05:56Z</time>
      </trkpt>
      <trkpt lat="46.96847" lon="7.08078">
        <ele>435.5</ele>
        <time>2022-09-30T11:05:57Z</time>
      </trkpt>
      <trkpt lat="46.96847" lon="7.08084">
        <ele>435.3</ele>
        <time>2022-09-30T11:05:58Z</time>
      </trkpt>
      <trkpt lat="46.96849" lon="7.0809">
        <ele>435.2</ele>
        <time>2022-09-30T11:05:59Z</time>
      </trkpt>
      <trkpt lat="46.9685" lon="7.08096">
        <ele>435</ele>
        <time>2022-09-30T11:06:00Z</time>
      </trkpt>
      <trkpt lat="46.96852" lon="7.08104">
        <ele>434.8</ele>
        <time>2022-09-30T11:06:01Z</time>
      </trkpt>
      <trkpt lat="46.96853" lon="7.08111">
        <ele>434.6</ele>
        <time>2022-09-30T11:06:02Z</time>
      </trkpt>
      <trkpt lat="46.96856" lon="7.08119">
        <ele>434.4</ele>
        <time>2022-09-30T11:06:03Z</time>
      </trkpt>
      <trkpt lat="46.96858" lon="7.08126">
        <ele>434.2</ele>
        <time>2022-09-30T11:06:04Z</time>
      </trkpt>
      <trkpt lat="46.96858" lon="7.08134">
        <ele>434</ele>
        <time>2022-09-30T11:06:05Z</time>
      </trkpt>
      <trkpt lat="46.96861" lon="7.08141">
        <ele>433.9</ele>
        <time>2022-09-30T11:06:06Z</time>
      </trkpt>
      <trkpt lat="46.96863" lon="7.08149">
        <ele>433.6</ele>
        <time>2022-09-30T11:06:07Z</time>
      </trkpt>
      <trkpt lat="46.96865" lon="7.08156">
        <ele>433.5</ele>
        <time>2022-09-30T11:06:08Z</time>
      </trkpt>
      <trkpt lat="46.96866" lon="7.08164">
        <ele>433.3</ele>
        <time>2022-09-30T11:06:09Z</time>
      </trkpt>
      <trkpt lat="46.96868" lon="7.08172">
        <ele>433.1</ele>
        <time>2022-09-30T11:06:10Z</time>
      </trkpt>
      <trkpt lat="46.96869" lon="7.08179">
        <ele>432.9</ele>
        <time>2022-09-30T11:06:11Z</time>
      </trkpt>
      <trkpt lat="46.96871" lon="7.08187">
        <ele>432.8</ele>
        <time>2022-09-30T11:06:12Z</time>
      </trkpt>
      <trkpt lat="46.96873" lon="7.08195">
        <ele>432.6</ele>
        <time>2022-09-30T11:06:13Z</time>
      </trkpt>
      <trkpt lat="46.96875" lon="7.08203">
        <ele>432.5</ele>
        <time>2022-09-30T11:06:14Z</time>
      </trkpt>
      <trkpt lat="46.96877" lon="7.0821">
        <ele>432.4</ele>
        <time>2022-09-30T11:06:15Z</time>
      </trkpt>
      <trkpt lat="46.96879" lon="7.08218">
        <ele>432.3</ele>
        <time>2022-09-30T11:06:16Z</time>
      </trkpt>
      <trkpt lat="46.96881" lon="7.08226">
        <ele>432.2</ele>
        <time>2022-09-30T11:06:17Z</time>
      </trkpt>
      <trkpt lat="46.96883" lon="7.08234">
        <ele>432.1</ele>
        <time>2022-09-30T11:06:18Z</time>
      </trkpt>
      <trkpt lat="46.96885" lon="7.08241">
        <ele>432.1</ele>
        <time>2022-09-30T11:06:19Z</time>
      </trkpt>
      <trkpt lat="46.96887" lon="7.08249">
        <ele>432</ele>
        <time>2022-09-30T11:06:20Z</time>
      </trkpt>
      <trkpt lat="46.96889" lon="7.08258">
        <ele>432</ele>
        <time>2022-09-30T11:06:21Z</time>
      </trkpt>
      <trkpt lat="46.96891" lon="7.08266">
        <ele>432</ele>
        <time>2022-09-30T11:06:22Z</time>
      </trkpt>
      <trkpt lat="46.96892" lon="7.08273">
        <ele>432</ele>
        <time>2022-09-30T11:06:23Z</time>
      </trkpt>
      <trkpt lat="46.96894" lon="7.08281">
        <ele>432</ele>
        <time>2022-09-30T11:06:24Z</time>
      </trkpt>
      <trkpt lat="46.96896" lon="7.08287">
        <ele>432.1</ele>
        <time>2022-09-30T11:06:25Z</time>
      </trkpt>
      <trkpt lat="46.96898" lon="7.08294">
        <ele>432.1</ele>
        <time>2022-09-30T11:06:27Z</time>
      </trkpt>
      <trkpt lat="46.969" lon="7.08302">
        <ele>432.1</ele>
        <time>2022-09-30T11:06:28Z</time>
      </trkpt>
      <trkpt lat="46.96901" lon="7.08309">
        <ele>432</ele>
        <time>2022-09-30T11:06:29Z</time>
      </trkpt>
      <trkpt lat="46.96904" lon="7.08317">
        <ele>431.9</ele>
        <time>2022-09-30T11:06:30Z</time>
      </trkpt>
      <trkpt lat="46.96906" lon="7.08324">
        <ele>431.9</ele>
        <time>2022-09-30T11:06:31Z</time>
      </trkpt>
      <trkpt lat="46.96907" lon="7.08331">
        <ele>431.9</ele>
        <time>2022-09-30T11:06:32Z</time>
      </trkpt>
      <trkpt lat="46.96909" lon="7.08338">
        <ele>431.8</ele>
        <time>2022-09-30T11:06:33Z</time>
      </trkpt>
      <trkpt lat="46.96911" lon="7.08345">
        <ele>431.8</ele>
        <time>2022-09-30T11:06:34Z</time>
      </trkpt>
      <trkpt lat="46.96912" lon="7.08352">
        <ele>431.8</ele>
        <time>2022-09-30T11:06:35Z</time>
      </trkpt>
      <trkpt lat="46.96914" lon="7.08359">
        <ele>431.8</ele>
        <time>2022-09-30T11:06:36Z</time>
      </trkpt>
      <trkpt lat="46.96915" lon="7.08367">
        <ele>431.9</ele>
        <time>2022-09-30T11:06:37Z</time>
      </trkpt>
      <trkpt lat="46.96917" lon="7.08374">
        <ele>431.9</ele>
        <time>2022-09-30T11:06:38Z</time>
      </trkpt>
      <trkpt lat="46.96919" lon="7.08381">
        <ele>431.9</ele>
        <time>2022-09-30T11:06:39Z</time>
      </trkpt>
      <trkpt lat="46.96923" lon="7.08394">
        <ele>431.9</ele>
        <time>2022-09-30T11:06:40Z</time>
      </trkpt>
      <trkpt lat="46.96924" lon="7.084">
        <ele>432</ele>
        <time>2022-09-30T11:06:41Z</time>
      </trkpt>
      <trkpt lat="46.96926" lon="7.08407">
        <ele>432</ele>
        <time>2022-09-30T11:06:42Z</time>
      </trkpt>
      <trkpt lat="46.96927" lon="7.08414">
        <ele>432</ele>
        <time>2022-09-30T11:06:43Z</time>
      </trkpt>
      <trkpt lat="46.96929" lon="7.0842">
        <ele>432.1</ele>
        <time>2022-09-30T11:06:44Z</time>
      </trkpt>
      <trkpt lat="46.96931" lon="7.08426">
        <ele>432.2</ele>
        <time>2022-09-30T11:06:45Z</time>
      </trkpt>
      <trkpt lat="46.96932" lon="7.08432">
        <ele>432.2</ele>
        <time>2022-09-30T11:06:46Z</time>
      </trkpt>
      <trkpt lat="46.96933" lon="7.08437">
        <ele>432.3</ele>
        <time>2022-09-30T11:06:47Z</time>
      </trkpt>
      <trkpt lat="46.96935" lon="7.08443">
        <ele>432.3</ele>
        <time>2022-09-30T11:06:48Z</time>
      </trkpt>
      <trkpt lat="46.96936" lon="7.08449">
        <ele>432.4</ele>
        <time>2022-09-30T11:06:49Z</time>
      </trkpt>
      <trkpt lat="46.96937" lon="7.08455">
        <ele>432.5</ele>
        <time>2022-09-30T11:06:50Z</time>
      </trkpt>
      <trkpt lat="46.96938" lon="7.08461">
        <ele>432.5</ele>
        <time>2022-09-30T11:06:51Z</time>
      </trkpt>
      <trkpt lat="46.9694" lon="7.08466">
        <ele>432.6</ele>
        <time>2022-09-30T11:06:52Z</time>
      </trkpt>
      <trkpt lat="46.96941" lon="7.08471">
        <ele>432.6</ele>
        <time>2022-09-30T11:06:53Z</time>
      </trkpt>
      <trkpt lat="46.96943" lon="7.08477">
        <ele>432.7</ele>
        <time>2022-09-30T11:06:54Z</time>
      </trkpt>
      <trkpt lat="46.96944" lon="7.08481">
        <ele>432.8</ele>
        <time>2022-09-30T11:06:55Z</time>
      </trkpt>
      <trkpt lat="46.96945" lon="7.08487">
        <ele>432.8</ele>
        <time>2022-09-30T11:06:56Z</time>
      </trkpt>
      <trkpt lat="46.96946" lon="7.08492">
        <ele>432.9</ele>
        <time>2022-09-30T11:06:57Z</time>
      </trkpt>
      <trkpt lat="46.96946" lon="7.08497">
        <ele>432.9</ele>
        <time>2022-09-30T11:06:58Z</time>
      </trkpt>
      <trkpt lat="46.96948" lon="7.08502">
        <ele>433</ele>
        <time>2022-09-30T11:06:59Z</time>
      </trkpt>
      <trkpt lat="46.96949" lon="7.08507">
        <ele>433.1</ele>
        <time>2022-09-30T11:07:00Z</time>
      </trkpt>
      <trkpt lat="46.96951" lon="7.08513">
        <ele>433.1</ele>
        <time>2022-09-30T11:07:01Z</time>
      </trkpt>
      <trkpt lat="46.96951" lon="7.08518">
        <ele>433.2</ele>
        <time>2022-09-30T11:07:02Z</time>
      </trkpt>
      <trkpt lat="46.96954" lon="7.08522">
        <ele>433.2</ele>
        <time>2022-09-30T11:07:03Z</time>
      </trkpt>
      <trkpt lat="46.96955" lon="7.08527">
        <ele>433.3</ele>
        <time>2022-09-30T11:07:04Z</time>
      </trkpt>
      <trkpt lat="46.96957" lon="7.08532">
        <ele>433.4</ele>
        <time>2022-09-30T11:07:05Z</time>
      </trkpt>
      <trkpt lat="46.96958" lon="7.08537">
        <ele>433.4</ele>
        <time>2022-09-30T11:07:06Z</time>
      </trkpt>
      <trkpt lat="46.96959" lon="7.08541">
        <ele>433.5</ele>
        <time>2022-09-30T11:07:07Z</time>
      </trkpt>
      <trkpt lat="46.9696" lon="7.08546">
        <ele>433.5</ele>
        <time>2022-09-30T11:07:08Z</time>
      </trkpt>
      <trkpt lat="46.96962" lon="7.08552">
        <ele>433.6</ele>
        <time>2022-09-30T11:07:09Z</time>
      </trkpt>
      <trkpt lat="46.96963" lon="7.08557">
        <ele>433.6</ele>
        <time>2022-09-30T11:07:10Z</time>
      </trkpt>
      <trkpt lat="46.96963" lon="7.08562">
        <ele>433.7</ele>
        <time>2022-09-30T11:07:11Z</time>
      </trkpt>
      <trkpt lat="46.96965" lon="7.08567">
        <ele>433.7</ele>
        <time>2022-09-30T11:07:12Z</time>
      </trkpt>
      <trkpt lat="46.96966" lon="7.08572">
        <ele>433.8</ele>
        <time>2022-09-30T11:07:13Z</time>
      </trkpt>
      <trkpt lat="46.96967" lon="7.08576">
        <ele>433.8</ele>
        <time>2022-09-30T11:07:14Z</time>
      </trkpt>
      <trkpt lat="46.96968" lon="7.08581">
        <ele>433.9</ele>
        <time>2022-09-30T11:07:15Z</time>
      </trkpt>
      <trkpt lat="46.9697" lon="7.08586">
        <ele>433.9</ele>
        <time>2022-09-30T11:07:16Z</time>
      </trkpt>
      <trkpt lat="46.96971" lon="7.08592">
        <ele>434</ele>
        <time>2022-09-30T11:07:17Z</time>
      </trkpt>
      <trkpt lat="46.96972" lon="7.08596">
        <ele>434</ele>
        <time>2022-09-30T11:07:18Z</time>
      </trkpt>
      <trkpt lat="46.96973" lon="7.086">
        <ele>434</ele>
        <time>2022-09-30T11:07:19Z</time>
      </trkpt>
      <trkpt lat="46.96974" lon="7.08604">
        <ele>434.1</ele>
        <time>2022-09-30T11:07:20Z</time>
      </trkpt>
      <trkpt lat="46.96975" lon="7.08609">
        <ele>434.1</ele>
        <time>2022-09-30T11:07:21Z</time>
      </trkpt>
      <trkpt lat="46.96976" lon="7.08613">
        <ele>434.2</ele>
        <time>2022-09-30T11:07:22Z</time>
      </trkpt>
      <trkpt lat="46.96977" lon="7.08617">
        <ele>434.2</ele>
        <time>2022-09-30T11:07:23Z</time>
      </trkpt>
      <trkpt lat="46.96978" lon="7.08621">
        <ele>434.3</ele>
        <time>2022-09-30T11:07:24Z</time>
      </trkpt>
      <trkpt lat="46.96978" lon="7.08625">
        <ele>434.3</ele>
        <time>2022-09-30T11:07:25Z</time>
      </trkpt>
      <trkpt lat="46.9698" lon="7.08629">
        <ele>434.3</ele>
        <time>2022-09-30T11:07:26Z</time>
      </trkpt>
      <trkpt lat="46.96981" lon="7.08634">
        <ele>434.3</ele>
        <time>2022-09-30T11:07:27Z</time>
      </trkpt>
      <trkpt lat="46.96982" lon="7.08638">
        <ele>434.4</ele>
        <time>2022-09-30T11:07:28Z</time>
      </trkpt>
      <trkpt lat="46.96983" lon="7.08643">
        <ele>434.4</ele>
        <time>2022-09-30T11:07:29Z</time>
      </trkpt>
      <trkpt lat="46.96983" lon="7.08648">
        <ele>434.4</ele>
        <time>2022-09-30T11:07:30Z</time>
      </trkpt>
      <trkpt lat="46.96986" lon="7.08653">
        <ele>434.5</ele>
        <time>2022-09-30T11:07:31Z</time>
      </trkpt>
      <trkpt lat="46.96987" lon="7.08654">
        <ele>434.5</ele>
        <time>2022-09-30T11:07:32Z</time>
      </trkpt>
      <trkpt lat="46.96987" lon="7.0866">
        <ele>434.5</ele>
        <time>2022-09-30T11:07:33Z</time>
      </trkpt>
      <trkpt lat="46.96988" lon="7.08665">
        <ele>434.5</ele>
        <time>2022-09-30T11:07:34Z</time>
      </trkpt>
      <trkpt lat="46.96988" lon="7.0867">
        <ele>434.5</ele>
        <time>2022-09-30T11:07:35Z</time>
      </trkpt>
      <trkpt lat="46.9699" lon="7.08675">
        <ele>434.6</ele>
        <time>2022-09-30T11:07:36Z</time>
      </trkpt>
      <trkpt lat="46.96991" lon="7.08679">
        <ele>434.6</ele>
        <time>2022-09-30T11:07:37Z</time>
      </trkpt>
      <trkpt lat="46.96993" lon="7.08686">
        <ele>434.6</ele>
        <time>2022-09-30T11:07:38Z</time>
      </trkpt>
      <trkpt lat="46.96993" lon="7.08688">
        <ele>434.6</ele>
        <time>2022-09-30T11:07:39Z</time>
      </trkpt>
      <trkpt lat="46.96994" lon="7.08693">
        <ele>434.6</ele>
        <time>2022-09-30T11:07:40Z</time>
      </trkpt>
      <trkpt lat="46.96996" lon="7.08698">
        <ele>434.6</ele>
        <time>2022-09-30T11:07:41Z</time>
      </trkpt>
      <trkpt lat="46.96997" lon="7.08703">
        <ele>434.6</ele>
        <time>2022-09-30T11:07:42Z</time>
      </trkpt>
      <trkpt lat="46.96999" lon="7.08708">
        <ele>434.6</ele>
        <time>2022-09-30T11:07:43Z</time>
      </trkpt>
      <trkpt lat="46.97" lon="7.08714">
        <ele>434.6</ele>
        <time>2022-09-30T11:07:44Z</time>
      </trkpt>
      <trkpt lat="46.97001" lon="7.08719">
        <ele>434.6</ele>
        <time>2022-09-30T11:07:45Z</time>
      </trkpt>
      <trkpt lat="46.97002" lon="7.08724">
        <ele>434.7</ele>
        <time>2022-09-30T11:07:46Z</time>
      </trkpt>
      <trkpt lat="46.97004" lon="7.08729">
        <ele>434.7</ele>
        <time>2022-09-30T11:07:47Z</time>
      </trkpt>
      <trkpt lat="46.97005" lon="7.08734">
        <ele>434.7</ele>
        <time>2022-09-30T11:07:48Z</time>
      </trkpt>
      <trkpt lat="46.97007" lon="7.0874">
        <ele>434.7</ele>
        <time>2022-09-30T11:07:49Z</time>
      </trkpt>
      <trkpt lat="46.97009" lon="7.08745">
        <ele>434.8</ele>
        <time>2022-09-30T11:07:50Z</time>
      </trkpt>
      <trkpt lat="46.9701" lon="7.0875">
        <ele>434.8</ele>
        <time>2022-09-30T11:07:51Z</time>
      </trkpt>
      <trkpt lat="46.97011" lon="7.08756">
        <ele>434.8</ele>
        <time>2022-09-30T11:07:52Z</time>
      </trkpt>
      <trkpt lat="46.97012" lon="7.0876">
        <ele>434.8</ele>
        <time>2022-09-30T11:07:53Z</time>
      </trkpt>
      <trkpt lat="46.97014" lon="7.08765">
        <ele>434.9</ele>
        <time>2022-09-30T11:07:54Z</time>
      </trkpt>
      <trkpt lat="46.97015" lon="7.08772">
        <ele>434.9</ele>
        <time>2022-09-30T11:07:55Z</time>
      </trkpt>
      <trkpt lat="46.97017" lon="7.08777">
        <ele>434.9</ele>
        <time>2022-09-30T11:07:56Z</time>
      </trkpt>
      <trkpt lat="46.97017" lon="7.08779">
        <ele>434.9</ele>
        <time>2022-09-30T11:07:57Z</time>
      </trkpt>
      <trkpt lat="46.97019" lon="7.08783">
        <ele>435</ele>
        <time>2022-09-30T11:07:58Z</time>
      </trkpt>
      <trkpt lat="46.97019" lon="7.08788">
        <ele>435</ele>
        <time>2022-09-30T11:07:59Z</time>
      </trkpt>
      <trkpt lat="46.97019" lon="7.0879">
        <ele>435</ele>
        <time>2022-09-30T11:08:00Z</time>
      </trkpt>
      <trkpt lat="46.9702" lon="7.08793">
        <ele>435</ele>
        <time>2022-09-30T11:08:01Z</time>
      </trkpt>
      <trkpt lat="46.97021" lon="7.08794">
        <ele>435</ele>
        <time>2022-09-30T11:08:02Z</time>
      </trkpt>
      <trkpt lat="46.97021" lon="7.08795">
        <ele>435</ele>
        <time>2022-09-30T11:08:03Z</time>
      </trkpt>
      <trkpt lat="46.97021" lon="7.08795">
        <ele>435</ele>
        <time>2022-09-30T11:08:04Z</time>
      </trkpt>
      <trkpt lat="46.97022" lon="7.08796">
        <ele>435</ele>
        <time>2022-09-30T11:08:05Z</time>
      </trkpt>
      <trkpt lat="46.97022" lon="7.08796">
        <ele>435</ele>
        <time>2022-09-30T11:08:06Z</time>
      </trkpt>
      <trkpt lat="46.97022" lon="7.08797">
        <ele>435</ele>
        <time>2022-09-30T11:08:07Z</time>
      </trkpt>
      <trkpt lat="46.97023" lon="7.08798">
        <ele>435</ele>
        <time>2022-09-30T11:08:08Z</time>
      </trkpt>
      <trkpt lat="46.97023" lon="7.08798">
        <ele>435</ele>
        <time>2022-09-30T11:08:09Z</time>
      </trkpt>
      <trkpt lat="46.97023" lon="7.08799">
        <ele>435</ele>
        <time>2022-09-30T11:08:10Z</time>
      </trkpt>
      <trkpt lat="46.97024" lon="7.08799">
        <ele>435</ele>
        <time>2022-09-30T11:08:11Z</time>
      </trkpt>
      <trkpt lat="46.97024" lon="7.088">
        <ele>435</ele>
        <time>2022-09-30T11:08:12Z</time>
      </trkpt>
      <trkpt lat="46.97024" lon="7.08801">
        <ele>435</ele>
        <time>2022-09-30T11:09:10Z</time>
      </trkpt>
      <trkpt lat="46.97025" lon="7.08801">
        <ele>435</ele>
        <time>2022-09-30T11:09:11Z</time>
      </trkpt>
      <trkpt lat="46.97025" lon="7.08805">
        <ele>435.1</ele>
        <time>2022-09-30T11:09:12Z</time>
      </trkpt>
      <trkpt lat="46.97026" lon="7.0881">
        <ele>435.1</ele>
        <time>2022-09-30T11:09:13Z</time>
      </trkpt>
      <trkpt lat="46.97026" lon="7.08815">
        <ele>435.1</ele>
        <time>2022-09-30T11:09:14Z</time>
      </trkpt>
      <trkpt lat="46.97028" lon="7.08818">
        <ele>435.1</ele>
        <time>2022-09-30T11:09:15Z</time>
      </trkpt>
      <trkpt lat="46.97028" lon="7.08823">
        <ele>435.1</ele>
        <time>2022-09-30T11:09:16Z</time>
      </trkpt>
      <trkpt lat="46.97029" lon="7.08827">
        <ele>435.2</ele>
        <time>2022-09-30T11:09:17Z</time>
      </trkpt>
      <trkpt lat="46.97031" lon="7.08831">
        <ele>435.2</ele>
        <time>2022-09-30T11:09:18Z</time>
      </trkpt>
      <trkpt lat="46.9703" lon="7.08837">
        <ele>435.2</ele>
        <time>2022-09-30T11:09:19Z</time>
      </trkpt>
      <trkpt lat="46.97032" lon="7.08843">
        <ele>435.3</ele>
        <time>2022-09-30T11:09:20Z</time>
      </trkpt>
      <trkpt lat="46.97032" lon="7.08845">
        <ele>435.3</ele>
        <time>2022-09-30T11:09:21Z</time>
      </trkpt>
      <trkpt lat="46.97034" lon="7.08848">
        <ele>435.3</ele>
        <time>2022-09-30T11:09:22Z</time>
      </trkpt>
      <trkpt lat="46.97034" lon="7.08854">
        <ele>435.3</ele>
        <time>2022-09-30T11:09:23Z</time>
      </trkpt>
      <trkpt lat="46.97036" lon="7.08859">
        <ele>435.3</ele>
        <time>2022-09-30T11:09:24Z</time>
      </trkpt>
      <trkpt lat="46.97037" lon="7.08864">
        <ele>435.3</ele>
        <time>2022-09-30T11:09:25Z</time>
      </trkpt>
      <trkpt lat="46.97038" lon="7.08868">
        <ele>435.4</ele>
        <time>2022-09-30T11:09:26Z</time>
      </trkpt>
      <trkpt lat="46.97039" lon="7.08874">
        <ele>435.4</ele>
        <time>2022-09-30T11:09:27Z</time>
      </trkpt>
      <trkpt lat="46.97039" lon="7.08879">
        <ele>435.4</ele>
        <time>2022-09-30T11:09:28Z</time>
      </trkpt>
      <trkpt lat="46.9704" lon="7.08883">
        <ele>435.4</ele>
        <time>2022-09-30T11:09:29Z</time>
      </trkpt>
      <trkpt lat="46.97041" lon="7.08888">
        <ele>435.4</ele>
        <time>2022-09-30T11:09:30Z</time>
      </trkpt>
      <trkpt lat="46.97042" lon="7.08894">
        <ele>435.4</ele>
        <time>2022-09-30T11:09:31Z</time>
      </trkpt>
      <trkpt lat="46.97044" lon="7.08898">
        <ele>435.5</ele>
        <time>2022-09-30T11:09:32Z</time>
      </trkpt>
      <trkpt lat="46.97044" lon="7.08904">
        <ele>435.5</ele>
        <time>2022-09-30T11:09:33Z</time>
      </trkpt>
      <trkpt lat="46.97045" lon="7.08909">
        <ele>435.5</ele>
        <time>2022-09-30T11:09:34Z</time>
      </trkpt>
      <trkpt lat="46.97046" lon="7.08915">
        <ele>435.5</ele>
        <time>2022-09-30T11:09:35Z</time>
      </trkpt>
      <trkpt lat="46.97047" lon="7.08921">
        <ele>435.6</ele>
        <time>2022-09-30T11:09:36Z</time>
      </trkpt>
      <trkpt lat="46.97049" lon="7.08926">
        <ele>435.6</ele>
        <time>2022-09-30T11:09:37Z</time>
      </trkpt>
      <trkpt lat="46.97049" lon="7.08932">
        <ele>435.6</ele>
        <time>2022-09-30T11:09:38Z</time>
      </trkpt>
      <trkpt lat="46.97051" lon="7.08938">
        <ele>435.7</ele>
        <time>2022-09-30T11:09:39Z</time>
      </trkpt>
      <trkpt lat="46.97051" lon="7.08944">
        <ele>435.7</ele>
        <time>2022-09-30T11:09:40Z</time>
      </trkpt>
      <trkpt lat="46.97053" lon="7.0895">
        <ele>435.7</ele>
        <time>2022-09-30T11:09:41Z</time>
      </trkpt>
      <trkpt lat="46.97054" lon="7.08955">
        <ele>435.7</ele>
        <time>2022-09-30T11:09:42Z</time>
      </trkpt>
      <trkpt lat="46.97055" lon="7.0896">
        <ele>435.8</ele>
        <time>2022-09-30T11:09:43Z</time>
      </trkpt>
      <trkpt lat="46.97056" lon="7.08968">
        <ele>435.8</ele>
        <time>2022-09-30T11:09:44Z</time>
      </trkpt>
      <trkpt lat="46.97057" lon="7.08973">
        <ele>435.8</ele>
        <time>2022-09-30T11:09:45Z</time>
      </trkpt>
      <trkpt lat="46.97057" lon="7.08978">
        <ele>435.8</ele>
        <time>2022-09-30T11:09:46Z</time>
      </trkpt>
      <trkpt lat="46.97059" lon="7.08983">
        <ele>435.8</ele>
        <time>2022-09-30T11:09:47Z</time>
      </trkpt>
      <trkpt lat="46.9706" lon="7.08989">
        <ele>435.8</ele>
        <time>2022-09-30T11:09:48Z</time>
      </trkpt>
      <trkpt lat="46.97061" lon="7.08996">
        <ele>435.8</ele>
        <time>2022-09-30T11:09:49Z</time>
      </trkpt>
      <trkpt lat="46.97062" lon="7.09001">
        <ele>435.8</ele>
        <time>2022-09-30T11:09:50Z</time>
      </trkpt>
      <trkpt lat="46.97064" lon="7.09007">
        <ele>435.8</ele>
        <time>2022-09-30T11:09:51Z</time>
      </trkpt>
      <trkpt lat="46.97065" lon="7.09014">
        <ele>435.8</ele>
        <time>2022-09-30T11:09:52Z</time>
      </trkpt>
      <trkpt lat="46.97066" lon="7.0902">
        <ele>435.8</ele>
        <time>2022-09-30T11:09:53Z</time>
      </trkpt>
      <trkpt lat="46.97067" lon="7.09026">
        <ele>435.7</ele>
        <time>2022-09-30T11:09:54Z</time>
      </trkpt>
      <trkpt lat="46.97068" lon="7.09033">
        <ele>435.7</ele>
        <time>2022-09-30T11:09:55Z</time>
      </trkpt>
      <trkpt lat="46.97069" lon="7.09041">
        <ele>435.6</ele>
        <time>2022-09-30T11:09:56Z</time>
      </trkpt>
      <trkpt lat="46.9707" lon="7.09047">
        <ele>435.6</ele>
        <time>2022-09-30T11:09:57Z</time>
      </trkpt>
      <trkpt lat="46.97071" lon="7.09054">
        <ele>435.6</ele>
        <time>2022-09-30T11:09:58Z</time>
      </trkpt>
      <trkpt lat="46.97073" lon="7.09062">
        <ele>435.5</ele>
        <time>2022-09-30T11:09:59Z</time>
      </trkpt>
      <trkpt lat="46.97073" lon="7.09069">
        <ele>435.5</ele>
        <time>2022-09-30T11:10:00Z</time>
      </trkpt>
      <trkpt lat="46.97074" lon="7.09077">
        <ele>435.4</ele>
        <time>2022-09-30T11:10:01Z</time>
      </trkpt>
      <trkpt lat="46.97075" lon="7.09084">
        <ele>435.4</ele>
        <time>2022-09-30T11:10:02Z</time>
      </trkpt>
      <trkpt lat="46.97076" lon="7.0909">
        <ele>435.3</ele>
        <time>2022-09-30T11:10:03Z</time>
      </trkpt>
      <trkpt lat="46.97076" lon="7.09097">
        <ele>435.3</ele>
        <time>2022-09-30T11:10:04Z</time>
      </trkpt>
      <trkpt lat="46.97076" lon="7.09104">
        <ele>435.3</ele>
        <time>2022-09-30T11:10:05Z</time>
      </trkpt>
      <trkpt lat="46.97077" lon="7.0911">
        <ele>435.2</ele>
        <time>2022-09-30T11:10:06Z</time>
      </trkpt>
      <trkpt lat="46.97077" lon="7.09116">
        <ele>435.2</ele>
        <time>2022-09-30T11:10:07Z</time>
      </trkpt>
      <trkpt lat="46.97078" lon="7.09122">
        <ele>435.2</ele>
        <time>2022-09-30T11:10:08Z</time>
      </trkpt>
      <trkpt lat="46.97079" lon="7.09127">
        <ele>435.2</ele>
        <time>2022-09-30T11:10:09Z</time>
      </trkpt>
      <trkpt lat="46.97079" lon="7.09134">
        <ele>435.2</ele>
        <time>2022-09-30T11:10:10Z</time>
      </trkpt>
      <trkpt lat="46.9708" lon="7.0914">
        <ele>435.2</ele>
        <time>2022-09-30T11:10:11Z</time>
      </trkpt>
      <trkpt lat="46.9708" lon="7.09146">
        <ele>435.2</ele>
        <time>2022-09-30T11:10:12Z</time>
      </trkpt>
      <trkpt lat="46.97081" lon="7.09154">
        <ele>435.2</ele>
        <time>2022-09-30T11:10:13Z</time>
      </trkpt>
      <trkpt lat="46.97081" lon="7.09162">
        <ele>435.1</ele>
        <time>2022-09-30T11:10:14Z</time>
      </trkpt>
      <trkpt lat="46.97082" lon="7.09168">
        <ele>435.1</ele>
        <time>2022-09-30T11:10:15Z</time>
      </trkpt>
      <trkpt lat="46.97083" lon="7.09174">
        <ele>435</ele>
        <time>2022-09-30T11:10:16Z</time>
      </trkpt>
      <trkpt lat="46.97082" lon="7.09182">
        <ele>435</ele>
        <time>2022-09-30T11:10:17Z</time>
      </trkpt>
      <trkpt lat="46.97084" lon="7.09188">
        <ele>434.9</ele>
        <time>2022-09-30T11:10:18Z</time>
      </trkpt>
      <trkpt lat="46.97085" lon="7.09194">
        <ele>434.9</ele>
        <time>2022-09-30T11:10:19Z</time>
      </trkpt>
      <trkpt lat="46.97086" lon="7.09199">
        <ele>434.9</ele>
        <time>2022-09-30T11:10:20Z</time>
      </trkpt>
      <trkpt lat="46.97086" lon="7.09205">
        <ele>434.9</ele>
        <time>2022-09-30T11:10:21Z</time>
      </trkpt>
      <trkpt lat="46.97087" lon="7.09211">
        <ele>434.8</ele>
        <time>2022-09-30T11:10:22Z</time>
      </trkpt>
      <trkpt lat="46.97085" lon="7.09218">
        <ele>434.8</ele>
        <time>2022-09-30T11:10:23Z</time>
      </trkpt>
      <trkpt lat="46.97087" lon="7.09223">
        <ele>434.7</ele>
        <time>2022-09-30T11:10:24Z</time>
      </trkpt>
      <trkpt lat="46.97088" lon="7.09228">
        <ele>434.7</ele>
        <time>2022-09-30T11:10:25Z</time>
      </trkpt>
      <trkpt lat="46.97091" lon="7.0923">
        <ele>434.7</ele>
        <time>2022-09-30T11:10:26Z</time>
      </trkpt>
      <trkpt lat="46.97094" lon="7.09231">
        <ele>434.2</ele>
        <time>2022-09-30T11:10:27Z</time>
      </trkpt>
      <trkpt lat="46.971" lon="7.09229">
        <ele>433.9</ele>
        <time>2022-09-30T11:10:28Z</time>
      </trkpt>
      <trkpt lat="46.97103" lon="7.09227">
        <ele>433.7</ele>
        <time>2022-09-30T11:10:29Z</time>
      </trkpt>
      <trkpt lat="46.97108" lon="7.09225">
        <ele>433.4</ele>
        <time>2022-09-30T11:10:30Z</time>
      </trkpt>
      <trkpt lat="46.97114" lon="7.09223">
        <ele>433.2</ele>
        <time>2022-09-30T11:10:31Z</time>
      </trkpt>
      <trkpt lat="46.9712" lon="7.09219">
        <ele>432.9</ele>
        <time>2022-09-30T11:10:32Z</time>
      </trkpt>
      <trkpt lat="46.97126" lon="7.09217">
        <ele>432.7</ele>
        <time>2022-09-30T11:10:33Z</time>
      </trkpt>
      <trkpt lat="46.97132" lon="7.09213">
        <ele>432.5</ele>
        <time>2022-09-30T11:10:34Z</time>
      </trkpt>
      <trkpt lat="46.97138" lon="7.0921">
        <ele>432.4</ele>
        <time>2022-09-30T11:10:35Z</time>
      </trkpt>
      <trkpt lat="46.97144" lon="7.09207">
        <ele>432.2</ele>
        <time>2022-09-30T11:10:36Z</time>
      </trkpt>
      <trkpt lat="46.97149" lon="7.09204">
        <ele>432.1</ele>
        <time>2022-09-30T11:10:37Z</time>
      </trkpt>
      <trkpt lat="46.97155" lon="7.09201">
        <ele>432</ele>
        <time>2022-09-30T11:10:39Z</time>
      </trkpt>
      <trkpt lat="46.97161" lon="7.09198">
        <ele>431.9</ele>
        <time>2022-09-30T11:10:40Z</time>
      </trkpt>
      <trkpt lat="46.97167" lon="7.09196">
        <ele>431.8</ele>
        <time>2022-09-30T11:10:41Z</time>
      </trkpt>
      <trkpt lat="46.97172" lon="7.09193">
        <ele>431.7</ele>
        <time>2022-09-30T11:10:42Z</time>
      </trkpt>
      <trkpt lat="46.97178" lon="7.0919">
        <ele>431.6</ele>
        <time>2022-09-30T11:10:43Z</time>
      </trkpt>
      <trkpt lat="46.97189" lon="7.09184">
        <ele>431.5</ele>
        <time>2022-09-30T11:10:44Z</time>
      </trkpt>
      <trkpt lat="46.97195" lon="7.09182">
        <ele>431.5</ele>
        <time>2022-09-30T11:10:45Z</time>
      </trkpt>
      <trkpt lat="46.972" lon="7.09179">
        <ele>431.5</ele>
        <time>2022-09-30T11:10:46Z</time>
      </trkpt>
      <trkpt lat="46.97206" lon="7.09176">
        <ele>431.5</ele>
        <time>2022-09-30T11:10:47Z</time>
      </trkpt>
      <trkpt lat="46.97211" lon="7.09173">
        <ele>431.5</ele>
        <time>2022-09-30T11:10:48Z</time>
      </trkpt>
      <trkpt lat="46.97216" lon="7.0917">
        <ele>431.5</ele>
        <time>2022-09-30T11:10:49Z</time>
      </trkpt>
      <trkpt lat="46.97221" lon="7.09168">
        <ele>431.5</ele>
        <time>2022-09-30T11:10:51Z</time>
      </trkpt>
      <trkpt lat="46.97233" lon="7.09162">
        <ele>431.5</ele>
        <time>2022-09-30T11:10:52Z</time>
      </trkpt>
      <trkpt lat="46.97238" lon="7.09159">
        <ele>431.5</ele>
        <time>2022-09-30T11:10:53Z</time>
      </trkpt>
      <trkpt lat="46.97243" lon="7.09157">
        <ele>431.5</ele>
        <time>2022-09-30T11:10:54Z</time>
      </trkpt>
      <trkpt lat="46.97249" lon="7.09153">
        <ele>431.6</ele>
        <time>2022-09-30T11:10:55Z</time>
      </trkpt>
      <trkpt lat="46.97255" lon="7.09151">
        <ele>431.6</ele>
        <time>2022-09-30T11:10:56Z</time>
      </trkpt>
      <trkpt lat="46.9726" lon="7.09148">
        <ele>431.7</ele>
        <time>2022-09-30T11:10:57Z</time>
      </trkpt>
      <trkpt lat="46.97264" lon="7.09146">
        <ele>431.7</ele>
        <time>2022-09-30T11:10:58Z</time>
      </trkpt>
      <trkpt lat="46.9727" lon="7.09142">
        <ele>431.7</ele>
        <time>2022-09-30T11:10:59Z</time>
      </trkpt>
      <trkpt lat="46.97275" lon="7.0914">
        <ele>431.8</ele>
        <time>2022-09-30T11:11:00Z</time>
      </trkpt>
      <trkpt lat="46.9728" lon="7.09137">
        <ele>431.8</ele>
        <time>2022-09-30T11:11:01Z</time>
      </trkpt>
      <trkpt lat="46.97285" lon="7.09135">
        <ele>431.9</ele>
        <time>2022-09-30T11:11:02Z</time>
      </trkpt>
      <trkpt lat="46.9729" lon="7.09132">
        <ele>431.9</ele>
        <time>2022-09-30T11:11:03Z</time>
      </trkpt>
      <trkpt lat="46.97295" lon="7.09129">
        <ele>431.9</ele>
        <time>2022-09-30T11:11:04Z</time>
      </trkpt>
      <trkpt lat="46.97299" lon="7.09127">
        <ele>431.9</ele>
        <time>2022-09-30T11:11:05Z</time>
      </trkpt>
      <trkpt lat="46.97304" lon="7.09125">
        <ele>431.9</ele>
        <time>2022-09-30T11:11:06Z</time>
      </trkpt>
      <trkpt lat="46.97309" lon="7.09122">
        <ele>431.8</ele>
        <time>2022-09-30T11:11:07Z</time>
      </trkpt>
      <trkpt lat="46.97314" lon="7.0912">
        <ele>431.8</ele>
        <time>2022-09-30T11:11:08Z</time>
      </trkpt>
      <trkpt lat="46.97319" lon="7.09118">
        <ele>431.8</ele>
        <time>2022-09-30T11:11:09Z</time>
      </trkpt>
      <trkpt lat="46.97324" lon="7.09114">
        <ele>431.8</ele>
        <time>2022-09-30T11:11:10Z</time>
      </trkpt>
      <trkpt lat="46.97329" lon="7.09111">
        <ele>431.8</ele>
        <time>2022-09-30T11:11:11Z</time>
      </trkpt>
      <trkpt lat="46.97334" lon="7.09109">
        <ele>431.7</ele>
        <time>2022-09-30T11:11:12Z</time>
      </trkpt>
      <trkpt lat="46.9734" lon="7.09106">
        <ele>431.7</ele>
        <time>2022-09-30T11:11:13Z</time>
      </trkpt>
      <trkpt lat="46.97345" lon="7.09103">
        <ele>431.7</ele>
        <time>2022-09-30T11:11:14Z</time>
      </trkpt>
      <trkpt lat="46.97351" lon="7.091">
        <ele>431.7</ele>
        <time>2022-09-30T11:11:15Z</time>
      </trkpt>
      <trkpt lat="46.97356" lon="7.09098">
        <ele>431.7</ele>
        <time>2022-09-30T11:11:16Z</time>
      </trkpt>
      <trkpt lat="46.97361" lon="7.09096">
        <ele>431.6</ele>
        <time>2022-09-30T11:11:17Z</time>
      </trkpt>
      <trkpt lat="46.97366" lon="7.09093">
        <ele>431.5</ele>
        <time>2022-09-30T11:11:18Z</time>
      </trkpt>
      <trkpt lat="46.97372" lon="7.0909">
        <ele>431.5</ele>
        <time>2022-09-30T11:11:19Z</time>
      </trkpt>
      <trkpt lat="46.97376" lon="7.09087">
        <ele>431.4</ele>
        <time>2022-09-30T11:11:20Z</time>
      </trkpt>
      <trkpt lat="46.9738" lon="7.09085">
        <ele>431.4</ele>
        <time>2022-09-30T11:11:21Z</time>
      </trkpt>
      <trkpt lat="46.97384" lon="7.09082">
        <ele>431.3</ele>
        <time>2022-09-30T11:11:22Z</time>
      </trkpt>
      <trkpt lat="46.9739" lon="7.09079">
        <ele>431.3</ele>
        <time>2022-09-30T11:11:23Z</time>
      </trkpt>
      <trkpt lat="46.97395" lon="7.09076">
        <ele>431.2</ele>
        <time>2022-09-30T11:11:24Z</time>
      </trkpt>
      <trkpt lat="46.974" lon="7.09074">
        <ele>431.1</ele>
        <time>2022-09-30T11:11:25Z</time>
      </trkpt>
      <trkpt lat="46.97406" lon="7.09071">
        <ele>431</ele>
        <time>2022-09-30T11:11:26Z</time>
      </trkpt>
      <trkpt lat="46.97411" lon="7.09069">
        <ele>431</ele>
        <time>2022-09-30T11:11:27Z</time>
      </trkpt>
      <trkpt lat="46.97416" lon="7.09066">
        <ele>430.9</ele>
        <time>2022-09-30T11:11:28Z</time>
      </trkpt>
      <trkpt lat="46.97421" lon="7.09063">
        <ele>430.9</ele>
        <time>2022-09-30T11:11:29Z</time>
      </trkpt>
      <trkpt lat="46.97427" lon="7.0906">
        <ele>430.8</ele>
        <time>2022-09-30T11:11:30Z</time>
      </trkpt>
      <trkpt lat="46.97432" lon="7.09057">
        <ele>430.8</ele>
        <time>2022-09-30T11:11:31Z</time>
      </trkpt>
      <trkpt lat="46.97437" lon="7.09055">
        <ele>430.7</ele>
        <time>2022-09-30T11:11:32Z</time>
      </trkpt>
      <trkpt lat="46.97442" lon="7.09052">
        <ele>430.7</ele>
        <time>2022-09-30T11:11:33Z</time>
      </trkpt>
      <trkpt lat="46.97446" lon="7.0905">
        <ele>430.7</ele>
        <time>2022-09-30T11:11:34Z</time>
      </trkpt>
      <trkpt lat="46.97449" lon="7.09048">
        <ele>430.6</ele>
        <time>2022-09-30T11:11:35Z</time>
      </trkpt>
      <trkpt lat="46.97453" lon="7.09047">
        <ele>430.6</ele>
        <time>2022-09-30T11:11:36Z</time>
      </trkpt>
      <trkpt lat="46.97456" lon="7.09045">
        <ele>430.6</ele>
        <time>2022-09-30T11:11:37Z</time>
      </trkpt>
      <trkpt lat="46.97457" lon="7.09045">
        <ele>430.6</ele>
        <time>2022-09-30T11:11:38Z</time>
      </trkpt>
      <trkpt lat="46.9746" lon="7.09043">
        <ele>430.6</ele>
        <time>2022-09-30T11:11:39Z</time>
      </trkpt>
      <trkpt lat="46.97463" lon="7.09041">
        <ele>430.6</ele>
        <time>2022-09-30T11:11:40Z</time>
      </trkpt>
      <trkpt lat="46.97466" lon="7.09039">
        <ele>430.6</ele>
        <time>2022-09-30T11:11:41Z</time>
      </trkpt>
      <trkpt lat="46.97469" lon="7.09036">
        <ele>430.7</ele>
        <time>2022-09-30T11:11:42Z</time>
      </trkpt>
      <trkpt lat="46.97473" lon="7.09035">
        <ele>430.7</ele>
        <time>2022-09-30T11:11:43Z</time>
      </trkpt>
      <trkpt lat="46.97477" lon="7.09033">
        <ele>430.7</ele>
        <time>2022-09-30T11:11:44Z</time>
      </trkpt>
      <trkpt lat="46.9748" lon="7.0903">
        <ele>430.8</ele>
        <time>2022-09-30T11:11:45Z</time>
      </trkpt>
      <trkpt lat="46.97484" lon="7.09028">
        <ele>430.9</ele>
        <time>2022-09-30T11:11:46Z</time>
      </trkpt>
      <trkpt lat="46.97488" lon="7.09026">
        <ele>430.9</ele>
        <time>2022-09-30T11:11:47Z</time>
      </trkpt>
      <trkpt lat="46.97492" lon="7.09025">
        <ele>431</ele>
        <time>2022-09-30T11:11:48Z</time>
      </trkpt>
      <trkpt lat="46.97496" lon="7.09023">
        <ele>431.1</ele>
        <time>2022-09-30T11:11:49Z</time>
      </trkpt>
      <trkpt lat="46.975" lon="7.09021">
        <ele>431.2</ele>
        <time>2022-09-30T11:11:50Z</time>
      </trkpt>
      <trkpt lat="46.97504" lon="7.09019">
        <ele>431.2</ele>
        <time>2022-09-30T11:11:51Z</time>
      </trkpt>
      <trkpt lat="46.97508" lon="7.09017">
        <ele>431.3</ele>
        <time>2022-09-30T11:11:52Z</time>
      </trkpt>
      <trkpt lat="46.97512" lon="7.09016">
        <ele>431.4</ele>
        <time>2022-09-30T11:11:53Z</time>
      </trkpt>
      <trkpt lat="46.97516" lon="7.09014">
        <ele>431.5</ele>
        <time>2022-09-30T11:11:54Z</time>
      </trkpt>
      <trkpt lat="46.97518" lon="7.09012">
        <ele>431.6</ele>
        <time>2022-09-30T11:11:55Z</time>
      </trkpt>
      <trkpt lat="46.97522" lon="7.0901">
        <ele>431.6</ele>
        <time>2022-09-30T11:11:56Z</time>
      </trkpt>
      <trkpt lat="46.97526" lon="7.09008">
        <ele>431.7</ele>
        <time>2022-09-30T11:11:57Z</time>
      </trkpt>
      <trkpt lat="46.97529" lon="7.09006">
        <ele>431.7</ele>
        <time>2022-09-30T11:11:58Z</time>
      </trkpt>
      <trkpt lat="46.97533" lon="7.09004">
        <ele>431.7</ele>
        <time>2022-09-30T11:11:59Z</time>
      </trkpt>
      <trkpt lat="46.97537" lon="7.09003">
        <ele>431.8</ele>
        <time>2022-09-30T11:12:00Z</time>
      </trkpt>
      <trkpt lat="46.9754" lon="7.09001">
        <ele>431.8</ele>
        <time>2022-09-30T11:12:01Z</time>
      </trkpt>
      <trkpt lat="46.97544" lon="7.08999">
        <ele>431.8</ele>
        <time>2022-09-30T11:12:02Z</time>
      </trkpt>
      <trkpt lat="46.97548" lon="7.08997">
        <ele>431.8</ele>
        <time>2022-09-30T11:12:03Z</time>
      </trkpt>
      <trkpt lat="46.97552" lon="7.08994">
        <ele>431.8</ele>
        <time>2022-09-30T11:12:04Z</time>
      </trkpt>
      <trkpt lat="46.97556" lon="7.08992">
        <ele>431.8</ele>
        <time>2022-09-30T11:12:05Z</time>
      </trkpt>
      <trkpt lat="46.9756" lon="7.08989">
        <ele>431.8</ele>
        <time>2022-09-30T11:12:06Z</time>
      </trkpt>
      <trkpt lat="46.97564" lon="7.08987">
        <ele>431.8</ele>
        <time>2022-09-30T11:12:07Z</time>
      </trkpt>
      <trkpt lat="46.97569" lon="7.08984">
        <ele>431.8</ele>
        <time>2022-09-30T11:12:08Z</time>
      </trkpt>
      <trkpt lat="46.97572" lon="7.08982">
        <ele>431.7</ele>
        <time>2022-09-30T11:12:09Z</time>
      </trkpt>
      <trkpt lat="46.97577" lon="7.0898">
        <ele>431.7</ele>
        <time>2022-09-30T11:12:10Z</time>
      </trkpt>
      <trkpt lat="46.97581" lon="7.08977">
        <ele>431.7</ele>
        <time>2022-09-30T11:12:11Z</time>
      </trkpt>
      <trkpt lat="46.97585" lon="7.08975">
        <ele>431.8</ele>
        <time>2022-09-30T11:12:12Z</time>
      </trkpt>
      <trkpt lat="46.9759" lon="7.08973">
        <ele>431.8</ele>
        <time>2022-09-30T11:12:13Z</time>
      </trkpt>
      <trkpt lat="46.97594" lon="7.08971">
        <ele>431.8</ele>
        <time>2022-09-30T11:12:14Z</time>
      </trkpt>
      <trkpt lat="46.97598" lon="7.08968">
        <ele>431.9</ele>
        <time>2022-09-30T11:12:15Z</time>
      </trkpt>
      <trkpt lat="46.97601" lon="7.08967">
        <ele>431.9</ele>
        <time>2022-09-30T11:12:16Z</time>
      </trkpt>
      <trkpt lat="46.97604" lon="7.08965">
        <ele>432</ele>
        <time>2022-09-30T11:12:17Z</time>
      </trkpt>
      <trkpt lat="46.97607" lon="7.08965">
        <ele>432</ele>
        <time>2022-09-30T11:12:18Z</time>
      </trkpt>
      <trkpt lat="46.97609" lon="7.08967">
        <ele>432</ele>
        <time>2022-09-30T11:12:19Z</time>
      </trkpt>
      <trkpt lat="46.9761" lon="7.08968">
        <ele>432</ele>
        <time>2022-09-30T11:12:20Z</time>
      </trkpt>
      <trkpt lat="46.9761" lon="7.08973">
        <ele>432</ele>
        <time>2022-09-30T11:12:21Z</time>
      </trkpt>
      <trkpt lat="46.9761" lon="7.08975">
        <ele>432</ele>
        <time>2022-09-30T11:12:22Z</time>
      </trkpt>
      <trkpt lat="46.97609" lon="7.0898">
        <ele>432</ele>
        <time>2022-09-30T11:12:23Z</time>
      </trkpt>
      <trkpt lat="46.97609" lon="7.08982">
        <ele>432</ele>
        <time>2022-09-30T11:12:24Z</time>
      </trkpt>
      <trkpt lat="46.97609" lon="7.08986">
        <ele>432</ele>
        <time>2022-09-30T11:12:25Z</time>
      </trkpt>
      <trkpt lat="46.97608" lon="7.08992">
        <ele>432.1</ele>
        <time>2022-09-30T11:12:26Z</time>
      </trkpt>
      <trkpt lat="46.97607" lon="7.08993">
        <ele>432.1</ele>
        <time>2022-09-30T11:12:27Z</time>
      </trkpt>
      <trkpt lat="46.97607" lon="7.08999">
        <ele>432.1</ele>
        <time>2022-09-30T11:12:28Z</time>
      </trkpt>
      <trkpt lat="46.97606" lon="7.09001">
        <ele>432.2</ele>
        <time>2022-09-30T11:12:29Z</time>
      </trkpt>
      <trkpt lat="46.97607" lon="7.09003">
        <ele>432.2</ele>
        <time>2022-09-30T11:12:30Z</time>
      </trkpt>
      <trkpt lat="46.97607" lon="7.09005">
        <ele>432.2</ele>
        <time>2022-09-30T11:12:31Z</time>
      </trkpt>
      <trkpt lat="46.97606" lon="7.09007">
        <ele>432.2</ele>
        <time>2022-09-30T11:12:32Z</time>
      </trkpt>
      <trkpt lat="46.97606" lon="7.09008">
        <ele>432.3</ele>
        <time>2022-09-30T11:12:33Z</time>
      </trkpt>
      <trkpt lat="46.97605" lon="7.0901">
        <ele>432.3</ele>
        <time>2022-09-30T11:12:34Z</time>
      </trkpt>
      <trkpt lat="46.97605" lon="7.09011">
        <ele>432.3</ele>
        <time>2022-09-30T11:12:35Z</time>
      </trkpt>
      <trkpt lat="46.97605" lon="7.09011">
        <ele>432.3</ele>
        <time>2022-09-30T11:12:36Z</time>
      </trkpt>
      <trkpt lat="46.97605" lon="7.09012">
        <ele>432.3</ele>
        <time>2022-09-30T11:12:37Z</time>
      </trkpt>
      <trkpt lat="46.97605" lon="7.09013">
        <ele>432.3</ele>
        <time>2022-09-30T11:12:38Z</time>
      </trkpt>
      <trkpt lat="46.97605" lon="7.09013">
        <ele>432.3</ele>
        <time>2022-09-30T11:12:39Z</time>
      </trkpt>
      <trkpt lat="46.97605" lon="7.09014">
        <ele>432.4</ele>
        <time>2022-09-30T11:12:40Z</time>
      </trkpt>
      <trkpt lat="46.97605" lon="7.09014">
        <ele>432.4</ele>
        <time>2022-09-30T11:12:41Z</time>
      </trkpt>
      <trkpt lat="46.97605" lon="7.09015">
        <ele>432.4</ele>
        <time>2022-09-30T11:12:42Z</time>
      </trkpt>
      <trkpt lat="46.97605" lon="7.09016">
        <ele>432.4</ele>
        <time>2022-09-30T11:12:43Z</time>
      </trkpt>
      <trkpt lat="46.97605" lon="7.09016">
        <ele>432.4</ele>
        <time>2022-09-30T11:12:45Z</time>
      </trkpt>
      <trkpt lat="46.97605" lon="7.09017">
        <ele>432.4</ele>
        <time>2022-09-30T11:13:05Z</time>
      </trkpt>
      <trkpt lat="46.97605" lon="7.09017">
        <ele>432.4</ele>
        <time>2022-09-30T11:13:06Z</time>
      </trkpt>
      <trkpt lat="46.97606" lon="7.09018">
        <ele>432.4</ele>
        <time>2022-09-30T11:13:07Z</time>
      </trkpt>
      <trkpt lat="46.97605" lon="7.09023">
        <ele>432.5</ele>
        <time>2022-09-30T11:13:08Z</time>
      </trkpt>
      <trkpt lat="46.97605" lon="7.09024">
        <ele>432.6</ele>
        <time>2022-09-30T11:13:09Z</time>
      </trkpt>
      <trkpt lat="46.97603" lon="7.09029">
        <ele>432.7</ele>
        <time>2022-09-30T11:13:10Z</time>
      </trkpt>
      <trkpt lat="46.97603" lon="7.0903">
        <ele>432.7</ele>
        <time>2022-09-30T11:13:11Z</time>
      </trkpt>
      <trkpt lat="46.97602" lon="7.09034">
        <ele>432.8</ele>
        <time>2022-09-30T11:13:12Z</time>
      </trkpt>
      <trkpt lat="46.97603" lon="7.09039">
        <ele>432.9</ele>
        <time>2022-09-30T11:13:13Z</time>
      </trkpt>
      <trkpt lat="46.97603" lon="7.09041">
        <ele>432.9</ele>
        <time>2022-09-30T11:13:14Z</time>
      </trkpt>
      <trkpt lat="46.97602" lon="7.09045">
        <ele>433.1</ele>
        <time>2022-09-30T11:13:15Z</time>
      </trkpt>
      <trkpt lat="46.97601" lon="7.09047">
        <ele>433.1</ele>
        <time>2022-09-30T11:13:16Z</time>
      </trkpt>
      <trkpt lat="46.976" lon="7.09051">
        <ele>433.3</ele>
        <time>2022-09-30T11:13:17Z</time>
      </trkpt>
      <trkpt lat="46.97599" lon="7.09052">
        <ele>433.3</ele>
        <time>2022-09-30T11:13:18Z</time>
      </trkpt>
      <trkpt lat="46.97599" lon="7.09057">
        <ele>433.5</ele>
        <time>2022-09-30T11:13:19Z</time>
      </trkpt>
      <trkpt lat="46.97599" lon="7.09058">
        <ele>433.5</ele>
        <time>2022-09-30T11:13:20Z</time>
      </trkpt>
      <trkpt lat="46.97597" lon="7.09062">
        <ele>433.7</ele>
        <time>2022-09-30T11:13:21Z</time>
      </trkpt>
      <trkpt lat="46.97597" lon="7.09064">
        <ele>433.7</ele>
        <time>2022-09-30T11:13:22Z</time>
      </trkpt>
      <trkpt lat="46.97597" lon="7.09068">
        <ele>433.9</ele>
        <time>2022-09-30T11:13:23Z</time>
      </trkpt>
      <trkpt lat="46.97596" lon="7.0907">
        <ele>433.9</ele>
        <time>2022-09-30T11:13:24Z</time>
      </trkpt>
      <trkpt lat="46.97596" lon="7.09074">
        <ele>434.1</ele>
        <time>2022-09-30T11:13:25Z</time>
      </trkpt>
      <trkpt lat="46.97596" lon="7.09075">
        <ele>434.1</ele>
        <time>2022-09-30T11:13:26Z</time>
      </trkpt>
      <trkpt lat="46.97594" lon="7.0908">
        <ele>434.3</ele>
        <time>2022-09-30T11:13:27Z</time>
      </trkpt>
      <trkpt lat="46.97594" lon="7.09082">
        <ele>434.4</ele>
        <time>2022-09-30T11:13:28Z</time>
      </trkpt>
      <trkpt lat="46.97593" lon="7.09086">
        <ele>434.5</ele>
        <time>2022-09-30T11:13:29Z</time>
      </trkpt>
      <trkpt lat="46.97592" lon="7.09087">
        <ele>434.6</ele>
        <time>2022-09-30T11:13:30Z</time>
      </trkpt>
      <trkpt lat="46.97592" lon="7.09091">
        <ele>434.7</ele>
        <time>2022-09-30T11:13:31Z</time>
      </trkpt>
      <trkpt lat="46.97591" lon="7.09092">
        <ele>434.8</ele>
        <time>2022-09-30T11:13:32Z</time>
      </trkpt>
      <trkpt lat="46.9759" lon="7.09097">
        <ele>434.9</ele>
        <time>2022-09-30T11:13:33Z</time>
      </trkpt>
      <trkpt lat="46.9759" lon="7.09098">
        <ele>435</ele>
        <time>2022-09-30T11:13:34Z</time>
      </trkpt>
      <trkpt lat="46.97589" lon="7.09102">
        <ele>435.1</ele>
        <time>2022-09-30T11:13:35Z</time>
      </trkpt>
      <trkpt lat="46.97588" lon="7.09103">
        <ele>435.2</ele>
        <time>2022-09-30T11:13:36Z</time>
      </trkpt>
      <trkpt lat="46.97588" lon="7.09107">
        <ele>435.4</ele>
        <time>2022-09-30T11:13:37Z</time>
      </trkpt>
      <trkpt lat="46.97588" lon="7.09108">
        <ele>435.4</ele>
        <time>2022-09-30T11:13:38Z</time>
      </trkpt>
      <trkpt lat="46.97587" lon="7.0911">
        <ele>435.5</ele>
        <time>2022-09-30T11:13:39Z</time>
      </trkpt>
      <trkpt lat="46.97586" lon="7.09112">
        <ele>435.6</ele>
        <time>2022-09-30T11:13:40Z</time>
      </trkpt>
      <trkpt lat="46.97585" lon="7.09116">
        <ele>435.8</ele>
        <time>2022-09-30T11:13:41Z</time>
      </trkpt>
      <trkpt lat="46.97585" lon="7.09117">
        <ele>435.9</ele>
        <time>2022-09-30T11:13:42Z</time>
      </trkpt>
      <trkpt lat="46.97585" lon="7.0912">
        <ele>436</ele>
        <time>2022-09-30T11:13:43Z</time>
      </trkpt>
      <trkpt lat="46.97585" lon="7.09123">
        <ele>436.1</ele>
        <time>2022-09-30T11:13:44Z</time>
      </trkpt>
      <trkpt lat="46.97584" lon="7.09125">
        <ele>436.2</ele>
        <time>2022-09-30T11:13:45Z</time>
      </trkpt>
      <trkpt lat="46.97584" lon="7.09128">
        <ele>436.3</ele>
        <time>2022-09-30T11:13:46Z</time>
      </trkpt>
      <trkpt lat="46.97583" lon="7.0913">
        <ele>436.4</ele>
        <time>2022-09-30T11:13:47Z</time>
      </trkpt>
      <trkpt lat="46.97583" lon="7.09132">
        <ele>436.5</ele>
        <time>2022-09-30T11:13:48Z</time>
      </trkpt>
      <trkpt lat="46.97583" lon="7.09135">
        <ele>436.6</ele>
        <time>2022-09-30T11:13:49Z</time>
      </trkpt>
      <trkpt lat="46.97583" lon="7.09137">
        <ele>436.7</ele>
        <time>2022-09-30T11:13:50Z</time>
      </trkpt>
      <trkpt lat="46.97583" lon="7.0914">
        <ele>436.8</ele>
        <time>2022-09-30T11:13:51Z</time>
      </trkpt>
      <trkpt lat="46.97583" lon="7.09142">
        <ele>436.9</ele>
        <time>2022-09-30T11:13:52Z</time>
      </trkpt>
      <trkpt lat="46.97585" lon="7.09147">
        <ele>437.1</ele>
        <time>2022-09-30T11:13:53Z</time>
      </trkpt>
      <trkpt lat="46.97586" lon="7.09149">
        <ele>437.2</ele>
        <time>2022-09-30T11:13:54Z</time>
      </trkpt>
      <trkpt lat="46.97587" lon="7.09151">
        <ele>437.3</ele>
        <time>2022-09-30T11:13:55Z</time>
      </trkpt>
      <trkpt lat="46.97589" lon="7.09153">
        <ele>437.4</ele>
        <time>2022-09-30T11:13:56Z</time>
      </trkpt>
      <trkpt lat="46.9759" lon="7.09154">
        <ele>437.5</ele>
        <time>2022-09-30T11:13:57Z</time>
      </trkpt>
      <trkpt lat="46.97592" lon="7.09154">
        <ele>437.5</ele>
        <time>2022-09-30T11:13:58Z</time>
      </trkpt>
      <trkpt lat="46.97593" lon="7.09154">
        <ele>437.6</ele>
        <time>2022-09-30T11:13:59Z</time>
      </trkpt>
      <trkpt lat="46.97593" lon="7.09154">
        <ele>437.6</ele>
        <time>2022-09-30T11:14:00Z</time>
      </trkpt>
      <trkpt lat="46.97592" lon="7.09154">
        <ele>437.6</ele>
        <time>2022-09-30T11:14:01Z</time>
      </trkpt>
      <trkpt lat="46.97592" lon="7.09154">
        <ele>437.6</ele>
        <time>2022-09-30T11:14:02Z</time>
      </trkpt>
      <trkpt lat="46.97592" lon="7.09154">
        <ele>437.6</ele>
        <time>2022-09-30T11:14:03Z</time>
      </trkpt>
      <trkpt lat="46.97592" lon="7.09154">
        <ele>437.6</ele>
        <time>2022-09-30T11:14:04Z</time>
      </trkpt>
      <trkpt lat="46.97593" lon="7.09154">
        <ele>437.7</ele>
        <time>2022-09-30T11:14:05Z</time>
      </trkpt>
      <trkpt lat="46.97593" lon="7.09154">
        <ele>437.7</ele>
        <time>2022-09-30T11:14:06Z</time>
      </trkpt>
      <trkpt lat="46.97594" lon="7.09155">
        <ele>437.7</ele>
        <time>2022-09-30T11:14:07Z</time>
      </trkpt>
      <trkpt lat="46.97594" lon="7.09154">
        <ele>437.7</ele>
        <time>2022-09-30T11:14:08Z</time>
      </trkpt>
      <trkpt lat="46.97593" lon="7.09154">
        <ele>437.7</ele>
        <time>2022-09-30T11:14:09Z</time>
      </trkpt>
      <trkpt lat="46.97593" lon="7.09153">
        <ele>437.8</ele>
        <time>2022-09-30T11:14:10Z</time>
      </trkpt>
      <trkpt lat="46.97592" lon="7.09153">
        <ele>437.8</ele>
        <time>2022-09-30T11:14:11Z</time>
      </trkpt>
      <trkpt lat="46.97592" lon="7.09152">
        <ele>437.8</ele>
        <time>2022-09-30T11:14:12Z</time>
      </trkpt>
      <trkpt lat="46.97591" lon="7.09152">
        <ele>437.8</ele>
        <time>2022-09-30T11:14:13Z</time>
      </trkpt>
      <trkpt lat="46.97591" lon="7.09152">
        <ele>437.8</ele>
        <time>2022-09-30T11:14:14Z</time>
      </trkpt>
      <trkpt lat="46.9759" lon="7.09151">
        <ele>437.8</ele>
        <time>2022-09-30T11:14:15Z</time>
      </trkpt>
      <trkpt lat="46.9759" lon="7.09151">
        <ele>437.9</ele>
        <time>2022-09-30T11:14:16Z</time>
      </trkpt>
      <trkpt lat="46.97589" lon="7.0915">
        <ele>437.9</ele>
        <time>2022-09-30T11:14:17Z</time>
      </trkpt>
      <trkpt lat="46.97589" lon="7.0915">
        <ele>437.9</ele>
        <time>2022-09-30T11:14:20Z</time>
      </trkpt>
      <trkpt lat="46.97588" lon="7.09149">
        <ele>437.9</ele>
        <time>2022-09-30T11:14:21Z</time>
      </trkpt>
      <trkpt lat="46.97589" lon="7.09151">
        <ele>437.9</ele>
        <time>2022-09-30T11:14:22Z</time>
      </trkpt>
      <trkpt lat="46.9759" lon="7.09152">
        <ele>438</ele>
        <time>2022-09-30T11:14:23Z</time>
      </trkpt>
      <trkpt lat="46.97591" lon="7.09154">
        <ele>438</ele>
        <time>2022-09-30T11:14:24Z</time>
      </trkpt>
      <trkpt lat="46.97592" lon="7.09155">
        <ele>438</ele>
        <time>2022-09-30T11:14:25Z</time>
      </trkpt>
      <trkpt lat="46.97593" lon="7.09156">
        <ele>438</ele>
        <time>2022-09-30T11:14:26Z</time>
      </trkpt>
      <trkpt lat="46.97594" lon="7.09157">
        <ele>438</ele>
        <time>2022-09-30T11:14:27Z</time>
      </trkpt>
      <trkpt lat="46.97595" lon="7.09158">
        <ele>438</ele>
        <time>2022-09-30T11:14:28Z</time>
      </trkpt>
      <trkpt lat="46.97596" lon="7.09159">
        <ele>438</ele>
        <time>2022-09-30T11:14:29Z</time>
      </trkpt>
      <trkpt lat="46.97597" lon="7.0916">
        <ele>438</ele>
        <time>2022-09-30T11:14:30Z</time>
      </trkpt>
      <trkpt lat="46.97598" lon="7.09162">
        <ele>438</ele>
        <time>2022-09-30T11:14:31Z</time>
      </trkpt>
      <trkpt lat="46.97599" lon="7.09163">
        <ele>438</ele>
        <time>2022-09-30T11:14:32Z</time>
      </trkpt>
      <trkpt lat="46.976" lon="7.09164">
        <ele>438</ele>
        <time>2022-09-30T11:14:33Z</time>
      </trkpt>
      <trkpt lat="46.97601" lon="7.09165">
        <ele>438</ele>
        <time>2022-09-30T11:14:34Z</time>
      </trkpt>
      <trkpt lat="46.97602" lon="7.09166">
        <ele>438</ele>
        <time>2022-09-30T11:16:15Z</time>
      </trkpt>
      <trkpt lat="46.97603" lon="7.09167">
        <ele>438</ele>
        <time>2022-09-30T11:16:16Z</time>
      </trkpt>
      <trkpt lat="46.97604" lon="7.09168">
        <ele>438</ele>
        <time>2022-09-30T11:16:17Z</time>
      </trkpt>
      <trkpt lat="46.97606" lon="7.09172">
        <ele>437.9</ele>
        <time>2022-09-30T11:16:18Z</time>
      </trkpt>
      <trkpt lat="46.97607" lon="7.09173">
        <ele>437.9</ele>
        <time>2022-09-30T11:16:19Z</time>
      </trkpt>
      <trkpt lat="46.97608" lon="7.09174">
        <ele>437.8</ele>
        <time>2022-09-30T11:16:20Z</time>
      </trkpt>
      <trkpt lat="46.97609" lon="7.09175">
        <ele>437.8</ele>
        <time>2022-09-30T11:16:21Z</time>
      </trkpt>
      <trkpt lat="46.97612" lon="7.09177">
        <ele>437.7</ele>
        <time>2022-09-30T11:16:22Z</time>
      </trkpt>
      <trkpt lat="46.97613" lon="7.09178">
        <ele>437.6</ele>
        <time>2022-09-30T11:16:23Z</time>
      </trkpt>
      <trkpt lat="46.97615" lon="7.09181">
        <ele>437.5</ele>
        <time>2022-09-30T11:16:24Z</time>
      </trkpt>
      <trkpt lat="46.97616" lon="7.09182">
        <ele>437.4</ele>
        <time>2022-09-30T11:16:25Z</time>
      </trkpt>
      <trkpt lat="46.97618" lon="7.09184">
        <ele>437.3</ele>
        <time>2022-09-30T11:16:26Z</time>
      </trkpt>
      <trkpt lat="46.97621" lon="7.09187">
        <ele>437.2</ele>
        <time>2022-09-30T11:16:27Z</time>
      </trkpt>
      <trkpt lat="46.97623" lon="7.0919">
        <ele>437</ele>
        <time>2022-09-30T11:16:28Z</time>
      </trkpt>
      <trkpt lat="46.97626" lon="7.09194">
        <ele>436.8</ele>
        <time>2022-09-30T11:16:29Z</time>
      </trkpt>
      <trkpt lat="46.97629" lon="7.09197">
        <ele>436.7</ele>
        <time>2022-09-30T11:16:30Z</time>
      </trkpt>
      <trkpt lat="46.97631" lon="7.09201">
        <ele>436.5</ele>
        <time>2022-09-30T11:16:31Z</time>
      </trkpt>
      <trkpt lat="46.97632" lon="7.09206">
        <ele>436.3</ele>
        <time>2022-09-30T11:16:32Z</time>
      </trkpt>
      <trkpt lat="46.97633" lon="7.09211">
        <ele>436.1</ele>
        <time>2022-09-30T11:16:33Z</time>
      </trkpt>
      <trkpt lat="46.97634" lon="7.09217">
        <ele>435.9</ele>
        <time>2022-09-30T11:16:34Z</time>
      </trkpt>
      <trkpt lat="46.97635" lon="7.09223">
        <ele>435.6</ele>
        <time>2022-09-30T11:16:35Z</time>
      </trkpt>
      <trkpt lat="46.97636" lon="7.09229">
        <ele>435.4</ele>
        <time>2022-09-30T11:16:36Z</time>
      </trkpt>
      <trkpt lat="46.97637" lon="7.09235">
        <ele>435.1</ele>
        <time>2022-09-30T11:16:37Z</time>
      </trkpt>
      <trkpt lat="46.97638" lon="7.09242">
        <ele>434.9</ele>
        <time>2022-09-30T11:16:38Z</time>
      </trkpt>
      <trkpt lat="46.97639" lon="7.09248">
        <ele>434.6</ele>
        <time>2022-09-30T11:16:39Z</time>
      </trkpt>
      <trkpt lat="46.9764" lon="7.09255">
        <ele>434.4</ele>
        <time>2022-09-30T11:16:40Z</time>
      </trkpt>
      <trkpt lat="46.97641" lon="7.09262">
        <ele>434.1</ele>
        <time>2022-09-30T11:16:41Z</time>
      </trkpt>
      <trkpt lat="46.97643" lon="7.09268">
        <ele>433.9</ele>
        <time>2022-09-30T11:16:42Z</time>
      </trkpt>
      <trkpt lat="46.97644" lon="7.09274">
        <ele>433.7</ele>
        <time>2022-09-30T11:16:43Z</time>
      </trkpt>
      <trkpt lat="46.97645" lon="7.09279">
        <ele>433.6</ele>
        <time>2022-09-30T11:16:44Z</time>
      </trkpt>
      <trkpt lat="46.97645" lon="7.09284">
        <ele>433.4</ele>
        <time>2022-09-30T11:16:45Z</time>
      </trkpt>
      <trkpt lat="46.97646" lon="7.09288">
        <ele>433.3</ele>
        <time>2022-09-30T11:16:46Z</time>
      </trkpt>
      <trkpt lat="46.97646" lon="7.09293">
        <ele>433.1</ele>
        <time>2022-09-30T11:16:47Z</time>
      </trkpt>
      <trkpt lat="46.97646" lon="7.09294">
        <ele>433.1</ele>
        <time>2022-09-30T11:16:48Z</time>
      </trkpt>
      <trkpt lat="46.97648" lon="7.09297">
        <ele>433</ele>
        <time>2022-09-30T11:16:49Z</time>
      </trkpt>
      <trkpt lat="46.97649" lon="7.09298">
        <ele>433</ele>
        <time>2022-09-30T11:16:50Z</time>
      </trkpt>
      <trkpt lat="46.9765" lon="7.09302">
        <ele>433</ele>
        <time>2022-09-30T11:16:51Z</time>
      </trkpt>
      <trkpt lat="46.97651" lon="7.09303">
        <ele>433</ele>
        <time>2022-09-30T11:16:52Z</time>
      </trkpt>
      <trkpt lat="46.97652" lon="7.09306">
        <ele>433</ele>
        <time>2022-09-30T11:16:53Z</time>
      </trkpt>
      <trkpt lat="46.97651" lon="7.09308">
        <ele>433</ele>
        <time>2022-09-30T11:16:54Z</time>
      </trkpt>
      <trkpt lat="46.9765" lon="7.0931">
        <ele>433</ele>
        <time>2022-09-30T11:16:55Z</time>
      </trkpt>
      <trkpt lat="46.97649" lon="7.09311">
        <ele>432.9</ele>
        <time>2022-09-30T11:16:57Z</time>
      </trkpt>
      <trkpt lat="46.97648" lon="7.09311">
        <ele>432.9</ele>
        <time>2022-09-30T11:16:58Z</time>
      </trkpt>
      <trkpt lat="46.97646" lon="7.09311">
        <ele>432.9</ele>
        <time>2022-09-30T11:16:59Z</time>
      </trkpt>
      <trkpt lat="46.97645" lon="7.0931">
        <ele>432.9</ele>
        <time>2022-09-30T11:17:00Z</time>
      </trkpt>
      <trkpt lat="46.97644" lon="7.09309">
        <ele>432.9</ele>
        <time>2022-09-30T11:17:01Z</time>
      </trkpt>
      <trkpt lat="46.97644" lon="7.09309">
        <ele>432.9</ele>
        <time>2022-09-30T11:17:02Z</time>
      </trkpt>
      <trkpt lat="46.97645" lon="7.09308">
        <ele>432.9</ele>
        <time>2022-09-30T11:17:03Z</time>
      </trkpt>
      <trkpt lat="46.97645" lon="7.09308">
        <ele>432.9</ele>
        <time>2022-09-30T11:17:04Z</time>
      </trkpt>
      <trkpt lat="46.97645" lon="7.09308">
        <ele>432.9</ele>
        <time>2022-09-30T11:17:05Z</time>
      </trkpt>
      <trkpt lat="46.97645" lon="7.09306">
        <ele>432.9</ele>
        <time>2022-09-30T11:17:06Z</time>
      </trkpt>
      <trkpt lat="46.97645" lon="7.09305">
        <ele>432.9</ele>
        <time>2022-09-30T11:17:07Z</time>
      </trkpt>
      <trkpt lat="46.97646" lon="7.09304">
        <ele>432.9</ele>
        <time>2022-09-30T11:17:08Z</time>
      </trkpt>
      <trkpt lat="46.97646" lon="7.09303">
        <ele>432.9</ele>
        <time>2022-09-30T11:17:09Z</time>
      </trkpt>
      <trkpt lat="46.97646" lon="7.09301">
        <ele>432.8</ele>
        <time>2022-09-30T11:17:10Z</time>
      </trkpt>
      <trkpt lat="46.97646" lon="7.09302">
        <ele>432.8</ele>
        <time>2022-09-30T11:17:11Z</time>
      </trkpt>
      <trkpt lat="46.97646" lon="7.09301">
        <ele>432.8</ele>
        <time>2022-09-30T11:17:12Z</time>
      </trkpt>
      <trkpt lat="46.97646" lon="7.093">
        <ele>432.8</ele>
        <time>2022-09-30T11:17:13Z</time>
      </trkpt>
      <trkpt lat="46.97646" lon="7.09299">
        <ele>432.8</ele>
        <time>2022-09-30T11:17:14Z</time>
      </trkpt>
      <trkpt lat="46.97647" lon="7.09298">
        <ele>432.8</ele>
        <time>2022-09-30T11:17:15Z</time>
      </trkpt>
      <trkpt lat="46.97646" lon="7.09299">
        <ele>432.8</ele>
        <time>2022-09-30T11:17:16Z</time>
      </trkpt>
      <trkpt lat="46.97646" lon="7.093">
        <ele>432.8</ele>
        <time>2022-09-30T11:17:17Z</time>
      </trkpt>
      <trkpt lat="46.97646" lon="7.09301">
        <ele>432.8</ele>
        <time>2022-09-30T11:17:18Z</time>
      </trkpt>
      <trkpt lat="46.97645" lon="7.09301">
        <ele>432.8</ele>
        <time>2022-09-30T11:17:19Z</time>
      </trkpt>
      <trkpt lat="46.97645" lon="7.09302">
        <ele>432.8</ele>
        <time>2022-09-30T11:18:07Z</time>
      </trkpt>
      <trkpt lat="46.97645" lon="7.09302">
        <ele>432.8</ele>
        <time>2022-09-30T11:18:08Z</time>
      </trkpt>
      <trkpt lat="46.97645" lon="7.09303">
        <ele>432.8</ele>
        <time>2022-09-30T11:18:09Z</time>
      </trkpt>
      <trkpt lat="46.97645" lon="7.09303">
        <ele>432.8</ele>
        <time>2022-09-30T11:18:10Z</time>
      </trkpt>
      <trkpt lat="46.97644" lon="7.09304">
        <ele>432.8</ele>
        <time>2022-09-30T11:18:11Z</time>
      </trkpt>
      <trkpt lat="46.97644" lon="7.09305">
        <ele>432.8</ele>
        <time>2022-09-30T11:18:12Z</time>
      </trkpt>
      <trkpt lat="46.97644" lon="7.09305">
        <ele>432.8</ele>
        <time>2022-09-30T11:18:13Z</time>
      </trkpt>
      <trkpt lat="46.97644" lon="7.09306">
        <ele>432.8</ele>
        <time>2022-09-30T11:18:14Z</time>
      </trkpt>
      <trkpt lat="46.97644" lon="7.09306">
        <ele>432.8</ele>
        <time>2022-09-30T11:18:15Z</time>
      </trkpt>
      <trkpt lat="46.97643" lon="7.09307">
        <ele>432.8</ele>
        <time>2022-09-30T11:18:16Z</time>
      </trkpt>
      <trkpt lat="46.97643" lon="7.09307">
        <ele>432.8</ele>
        <time>2022-09-30T11:18:17Z</time>
      </trkpt>
      <trkpt lat="46.97646" lon="7.09304">
        <ele>432.7</ele>
        <time>2022-09-30T11:18:24Z</time>
      </trkpt>
      <trkpt lat="46.97645" lon="7.09304">
        <ele>432.7</ele>
        <time>2022-09-30T11:18:25Z</time>
      </trkpt>
      <trkpt lat="46.97645" lon="7.09304">
        <ele>432.7</ele>
        <time>2022-09-30T11:18:26Z</time>
      </trkpt>
      <trkpt lat="46.97645" lon="7.09304">
        <ele>432.7</ele>
        <time>2022-09-30T11:18:27Z</time>
      </trkpt>
      <trkpt lat="46.97645" lon="7.09305">
        <ele>432.7</ele>
        <time>2022-09-30T11:18:28Z</time>
      </trkpt>
      <trkpt lat="46.97644" lon="7.09304">
        <ele>432.7</ele>
        <time>2022-09-30T11:18:29Z</time>
      </trkpt>
      <trkpt lat="46.97643" lon="7.09305">
        <ele>432.7</ele>
        <time>2022-09-30T11:18:30Z</time>
      </trkpt>
      <trkpt lat="46.97641" lon="7.09306">
        <ele>432.4</ele>
        <time>2022-09-30T11:18:31Z</time>
      </trkpt>
      <trkpt lat="46.9764" lon="7.09307">
        <ele>432.4</ele>
        <time>2022-09-30T11:18:32Z</time>
      </trkpt>
      <trkpt lat="46.9764" lon="7.09308">
        <ele>432.5</ele>
        <time>2022-09-30T11:18:33Z</time>
      </trkpt>
      <trkpt lat="46.97639" lon="7.09309">
        <ele>432.5</ele>
        <time>2022-09-30T11:18:34Z</time>
      </trkpt>
      <trkpt lat="46.97641" lon="7.09309">
        <ele>432.5</ele>
        <time>2022-09-30T11:18:35Z</time>
      </trkpt>
      <trkpt lat="46.97642" lon="7.09309">
        <ele>432.5</ele>
        <time>2022-09-30T11:18:36Z</time>
      </trkpt>
      <trkpt lat="46.97643" lon="7.09308">
        <ele>432.5</ele>
        <time>2022-09-30T11:18:37Z</time>
      </trkpt>
      <trkpt lat="46.97644" lon="7.09308">
        <ele>432.5</ele>
        <time>2022-09-30T11:18:38Z</time>
      </trkpt>
      <trkpt lat="46.97645" lon="7.09307">
        <ele>432.5</ele>
        <time>2022-09-30T11:18:39Z</time>
      </trkpt>
      <trkpt lat="46.97645" lon="7.09306">
        <ele>432.5</ele>
        <time>2022-09-30T11:18:40Z</time>
      </trkpt>
      <trkpt lat="46.97646" lon="7.09305">
        <ele>432.5</ele>
        <time>2022-09-30T11:18:41Z</time>
      </trkpt>
      <trkpt lat="46.97646" lon="7.09305">
        <ele>432.5</ele>
        <time>2022-09-30T11:18:42Z</time>
      </trkpt>
      <trkpt lat="46.97645" lon="7.09304">
        <ele>432.5</ele>
        <time>2022-09-30T11:18:43Z</time>
      </trkpt>
      <trkpt lat="46.97645" lon="7.09303">
        <ele>432.5</ele>
        <time>2022-09-30T11:20:57Z</time>
      </trkpt>
      <trkpt lat="46.97644" lon="7.09303">
        <ele>432.5</ele>
        <time>2022-09-30T11:20:58Z</time>
      </trkpt>
      <trkpt lat="46.97643" lon="7.09302">
        <ele>432.5</ele>
        <time>2022-09-30T11:20:59Z</time>
      </trkpt>
      <trkpt lat="46.97643" lon="7.09301">
        <ele>432.5</ele>
        <time>2022-09-30T11:21:00Z</time>
      </trkpt>
      <trkpt lat="46.97642" lon="7.09302">
        <ele>432.5</ele>
        <time>2022-09-30T11:21:01Z</time>
      </trkpt>
      <trkpt lat="46.97642" lon="7.09301">
        <ele>432.5</ele>
        <time>2022-09-30T11:21:02Z</time>
      </trkpt>
      <trkpt lat="46.97642" lon="7.09302">
        <ele>432.5</ele>
        <time>2022-09-30T11:21:03Z</time>
      </trkpt>
      <trkpt lat="46.97641" lon="7.09303">
        <ele>432.6</ele>
        <time>2022-09-30T11:21:04Z</time>
      </trkpt>
      <trkpt lat="46.9764" lon="7.09304">
        <ele>432.6</ele>
        <time>2022-09-30T11:21:05Z</time>
      </trkpt>
      <trkpt lat="46.9764" lon="7.09304">
        <ele>432.6</ele>
        <time>2022-09-30T11:21:06Z</time>
      </trkpt>
      <trkpt lat="46.97641" lon="7.09302">
        <ele>432.6</ele>
        <time>2022-09-30T11:21:07Z</time>
      </trkpt>
      <trkpt lat="46.97642" lon="7.09301">
        <ele>432.6</ele>
        <time>2022-09-30T11:21:09Z</time>
      </trkpt>
      <trkpt lat="46.97643" lon="7.093">
        <ele>432.6</ele>
        <time>2022-09-30T12:00:08Z</time>
      </trkpt>
      <trkpt lat="46.97644" lon="7.09299">
        <ele>432.9</ele>
        <time>2022-09-30T12:00:09Z</time>
      </trkpt>
      <trkpt lat="46.97645" lon="7.09297">
        <ele>432.9</ele>
        <time>2022-09-30T12:00:10Z</time>
      </trkpt>
      <trkpt lat="46.97645" lon="7.09296">
        <ele>433</ele>
        <time>2022-09-30T12:00:11Z</time>
      </trkpt>
      <trkpt lat="46.97649" lon="7.09296">
        <ele>433.1</ele>
        <time>2022-09-30T12:00:12Z</time>
      </trkpt>
      <trkpt lat="46.97651" lon="7.09296">
        <ele>433</ele>
        <time>2022-09-30T12:00:13Z</time>
      </trkpt>
      <trkpt lat="46.97652" lon="7.09297">
        <ele>433</ele>
        <time>2022-09-30T12:00:14Z</time>
      </trkpt>
      <trkpt lat="46.97653" lon="7.09298">
        <ele>433</ele>
        <time>2022-09-30T12:00:15Z</time>
      </trkpt>
      <trkpt lat="46.97655" lon="7.09298">
        <ele>433</ele>
        <time>2022-09-30T12:00:16Z</time>
      </trkpt>
      <trkpt lat="46.97652" lon="7.09301">
        <ele>433</ele>
        <time>2022-09-30T12:00:17Z</time>
      </trkpt>
      <trkpt lat="46.97651" lon="7.09302">
        <ele>433</ele>
        <time>2022-09-30T12:00:18Z</time>
      </trkpt>
      <trkpt lat="46.97649" lon="7.09305">
        <ele>433</ele>
        <time>2022-09-30T12:00:19Z</time>
      </trkpt>
      <trkpt lat="46.97649" lon="7.09307">
        <ele>433</ele>
        <time>2022-09-30T12:00:20Z</time>
      </trkpt>
      <trkpt lat="46.97649" lon="7.0931">
        <ele>433</ele>
        <time>2022-09-30T12:00:21Z</time>
      </trkpt>
      <trkpt lat="46.9765" lon="7.09311">
        <ele>432.9</ele>
        <time>2022-09-30T12:00:22Z</time>
      </trkpt>
      <trkpt lat="46.97651" lon="7.09311">
        <ele>432.9</ele>
        <time>2022-09-30T12:00:23Z</time>
      </trkpt>
      <trkpt lat="46.97652" lon="7.09311">
        <ele>432.9</ele>
        <time>2022-09-30T12:00:24Z</time>
      </trkpt>
      <trkpt lat="46.97652" lon="7.09311">
        <ele>432.8</ele>
        <time>2022-09-30T12:00:25Z</time>
      </trkpt>
      <trkpt lat="46.97652" lon="7.09311">
        <ele>432.8</ele>
        <time>2022-09-30T12:00:26Z</time>
      </trkpt>
      <trkpt lat="46.97653" lon="7.09311">
        <ele>432.8</ele>
        <time>2022-09-30T12:00:27Z</time>
      </trkpt>
      <trkpt lat="46.97653" lon="7.09311">
        <ele>432.8</ele>
        <time>2022-09-30T12:00:28Z</time>
      </trkpt>
      <trkpt lat="46.97653" lon="7.09311">
        <ele>432.8</ele>
        <time>2022-09-30T12:00:29Z</time>
      </trkpt>
      <trkpt lat="46.97654" lon="7.09311">
        <ele>432.8</ele>
        <time>2022-09-30T12:00:30Z</time>
      </trkpt>
      <trkpt lat="46.97654" lon="7.09311">
        <ele>432.8</ele>
        <time>2022-09-30T12:00:31Z</time>
      </trkpt>
      <trkpt lat="46.97654" lon="7.09311">
        <ele>432.8</ele>
        <time>2022-09-30T12:00:32Z</time>
      </trkpt>
      <trkpt lat="46.97655" lon="7.09311">
        <ele>432.8</ele>
        <time>2022-09-30T12:00:33Z</time>
      </trkpt>
      <trkpt lat="46.97655" lon="7.09311">
        <ele>432.8</ele>
        <time>2022-09-30T12:00:34Z</time>
      </trkpt>
      <trkpt lat="46.97655" lon="7.09311">
        <ele>432.8</ele>
        <time>2022-09-30T12:00:35Z</time>
      </trkpt>
      <trkpt lat="46.97656" lon="7.09311">
        <ele>432.7</ele>
        <time>2022-09-30T12:00:36Z</time>
      </trkpt>
      <trkpt lat="46.97656" lon="7.09311">
        <ele>432.7</ele>
        <time>2022-09-30T12:00:40Z</time>
      </trkpt>
      <trkpt lat="46.97656" lon="7.09311">
        <ele>432.7</ele>
        <time>2022-09-30T12:00:41Z</time>
      </trkpt>
      <trkpt lat="46.9766" lon="7.0931">
        <ele>432.6</ele>
        <time>2022-09-30T12:00:42Z</time>
      </trkpt>
      <trkpt lat="46.97661" lon="7.0931">
        <ele>432.6</ele>
        <time>2022-09-30T12:00:43Z</time>
      </trkpt>
      <trkpt lat="46.97664" lon="7.09311">
        <ele>432.6</ele>
        <time>2022-09-30T12:00:44Z</time>
      </trkpt>
      <trkpt lat="46.97666" lon="7.09313">
        <ele>432.5</ele>
        <time>2022-09-30T12:00:45Z</time>
      </trkpt>
      <trkpt lat="46.97668" lon="7.09316">
        <ele>432.5</ele>
        <time>2022-09-30T12:00:46Z</time>
      </trkpt>
      <trkpt lat="46.97672" lon="7.09315">
        <ele>432.4</ele>
        <time>2022-09-30T12:00:47Z</time>
      </trkpt>
      <trkpt lat="46.97672" lon="7.09315">
        <ele>432.4</ele>
        <time>2022-09-30T12:00:48Z</time>
      </trkpt>
      <trkpt lat="46.97676" lon="7.09317">
        <ele>432.4</ele>
        <time>2022-09-30T12:00:49Z</time>
      </trkpt>
      <trkpt lat="46.97679" lon="7.09319">
        <ele>432.3</ele>
        <time>2022-09-30T12:00:50Z</time>
      </trkpt>
      <trkpt lat="46.97683" lon="7.09319">
        <ele>432.3</ele>
        <time>2022-09-30T12:00:51Z</time>
      </trkpt>
      <trkpt lat="46.97686" lon="7.09322">
        <ele>432.3</ele>
        <time>2022-09-30T12:00:52Z</time>
      </trkpt>
      <trkpt lat="46.97689" lon="7.09324">
        <ele>432.2</ele>
        <time>2022-09-30T12:00:53Z</time>
      </trkpt>
      <trkpt lat="46.97691" lon="7.09324">
        <ele>432.2</ele>
        <time>2022-09-30T12:00:54Z</time>
      </trkpt>
      <trkpt lat="46.97695" lon="7.09326">
        <ele>432.2</ele>
        <time>2022-09-30T12:00:55Z</time>
      </trkpt>
      <trkpt lat="46.97698" lon="7.09327">
        <ele>432.1</ele>
        <time>2022-09-30T12:00:56Z</time>
      </trkpt>
      <trkpt lat="46.97702" lon="7.09327">
        <ele>432.1</ele>
        <time>2022-09-30T12:00:57Z</time>
      </trkpt>
      <trkpt lat="46.97705" lon="7.09329">
        <ele>432</ele>
        <time>2022-09-30T12:00:58Z</time>
      </trkpt>
      <trkpt lat="46.97709" lon="7.0933">
        <ele>432</ele>
        <time>2022-09-30T12:00:59Z</time>
      </trkpt>
      <trkpt lat="46.97712" lon="7.09332">
        <ele>432</ele>
        <time>2022-09-30T12:01:00Z</time>
      </trkpt>
      <trkpt lat="46.97716" lon="7.09334">
        <ele>431.9</ele>
        <time>2022-09-30T12:01:01Z</time>
      </trkpt>
      <trkpt lat="46.97721" lon="7.09335">
        <ele>431.8</ele>
        <time>2022-09-30T12:01:02Z</time>
      </trkpt>
      <trkpt lat="46.97724" lon="7.09336">
        <ele>431.8</ele>
        <time>2022-09-30T12:01:03Z</time>
      </trkpt>
      <trkpt lat="46.97728" lon="7.09338">
        <ele>431.7</ele>
        <time>2022-09-30T12:01:04Z</time>
      </trkpt>
      <trkpt lat="46.97734" lon="7.09339">
        <ele>431.7</ele>
        <time>2022-09-30T12:01:05Z</time>
      </trkpt>
      <trkpt lat="46.97739" lon="7.09341">
        <ele>431.6</ele>
        <time>2022-09-30T12:01:06Z</time>
      </trkpt>
      <trkpt lat="46.97744" lon="7.09343">
        <ele>431.6</ele>
        <time>2022-09-30T12:01:07Z</time>
      </trkpt>
      <trkpt lat="46.97749" lon="7.09345">
        <ele>431.6</ele>
        <time>2022-09-30T12:01:08Z</time>
      </trkpt>
      <trkpt lat="46.97753" lon="7.09347">
        <ele>431.6</ele>
        <time>2022-09-30T12:01:09Z</time>
      </trkpt>
      <trkpt lat="46.97759" lon="7.0935">
        <ele>431.5</ele>
        <time>2022-09-30T12:01:10Z</time>
      </trkpt>
      <trkpt lat="46.97765" lon="7.09353">
        <ele>431.5</ele>
        <time>2022-09-30T12:01:11Z</time>
      </trkpt>
      <trkpt lat="46.9777" lon="7.09356">
        <ele>431.5</ele>
        <time>2022-09-30T12:01:12Z</time>
      </trkpt>
      <trkpt lat="46.97775" lon="7.09357">
        <ele>431.5</ele>
        <time>2022-09-30T12:01:13Z</time>
      </trkpt>
      <trkpt lat="46.9778" lon="7.09359">
        <ele>431.5</ele>
        <time>2022-09-30T12:01:14Z</time>
      </trkpt>
      <trkpt lat="46.97786" lon="7.09361">
        <ele>431.5</ele>
        <time>2022-09-30T12:01:15Z</time>
      </trkpt>
      <trkpt lat="46.9779" lon="7.09363">
        <ele>431.5</ele>
        <time>2022-09-30T12:01:16Z</time>
      </trkpt>
      <trkpt lat="46.97795" lon="7.09366">
        <ele>431.5</ele>
        <time>2022-09-30T12:01:17Z</time>
      </trkpt>
      <trkpt lat="46.978" lon="7.09366">
        <ele>431.5</ele>
        <time>2022-09-30T12:01:18Z</time>
      </trkpt>
      <trkpt lat="46.97805" lon="7.09368">
        <ele>431.5</ele>
        <time>2022-09-30T12:01:19Z</time>
      </trkpt>
      <trkpt lat="46.97813" lon="7.09369">
        <ele>431.5</ele>
        <time>2022-09-30T12:01:20Z</time>
      </trkpt>
      <trkpt lat="46.97817" lon="7.09373">
        <ele>431.6</ele>
        <time>2022-09-30T12:01:21Z</time>
      </trkpt>
      <trkpt lat="46.97821" lon="7.09376">
        <ele>431.6</ele>
        <time>2022-09-30T12:01:22Z</time>
      </trkpt>
      <trkpt lat="46.97827" lon="7.09376">
        <ele>431.6</ele>
        <time>2022-09-30T12:01:23Z</time>
      </trkpt>
      <trkpt lat="46.97834" lon="7.09378">
        <ele>431.6</ele>
        <time>2022-09-30T12:01:24Z</time>
      </trkpt>
      <trkpt lat="46.97837" lon="7.09382">
        <ele>431.7</ele>
        <time>2022-09-30T12:01:25Z</time>
      </trkpt>
      <trkpt lat="46.97842" lon="7.09385">
        <ele>431.7</ele>
        <time>2022-09-30T12:01:26Z</time>
      </trkpt>
      <trkpt lat="46.97848" lon="7.09387">
        <ele>431.7</ele>
        <time>2022-09-30T12:01:27Z</time>
      </trkpt>
      <trkpt lat="46.97852" lon="7.09388">
        <ele>431.7</ele>
        <time>2022-09-30T12:01:28Z</time>
      </trkpt>
      <trkpt lat="46.97857" lon="7.09391">
        <ele>431.7</ele>
        <time>2022-09-30T12:01:29Z</time>
      </trkpt>
      <trkpt lat="46.97861" lon="7.09395">
        <ele>431.8</ele>
        <time>2022-09-30T12:01:30Z</time>
      </trkpt>
      <trkpt lat="46.97866" lon="7.09397">
        <ele>431.8</ele>
        <time>2022-09-30T12:01:31Z</time>
      </trkpt>
      <trkpt lat="46.97871" lon="7.09399">
        <ele>431.8</ele>
        <time>2022-09-30T12:01:32Z</time>
      </trkpt>
      <trkpt lat="46.97876" lon="7.09401">
        <ele>431.8</ele>
        <time>2022-09-30T12:01:33Z</time>
      </trkpt>
      <trkpt lat="46.97881" lon="7.09404">
        <ele>431.9</ele>
        <time>2022-09-30T12:01:34Z</time>
      </trkpt>
      <trkpt lat="46.97887" lon="7.09407">
        <ele>431.9</ele>
        <time>2022-09-30T12:01:35Z</time>
      </trkpt>
      <trkpt lat="46.97889" lon="7.09409">
        <ele>431.9</ele>
        <time>2022-09-30T12:01:36Z</time>
      </trkpt>
      <trkpt lat="46.97895" lon="7.09413">
        <ele>431.8</ele>
        <time>2022-09-30T12:01:37Z</time>
      </trkpt>
      <trkpt lat="46.97898" lon="7.09415">
        <ele>431.8</ele>
        <time>2022-09-30T12:01:38Z</time>
      </trkpt>
      <trkpt lat="46.97903" lon="7.09417">
        <ele>431.8</ele>
        <time>2022-09-30T12:01:39Z</time>
      </trkpt>
      <trkpt lat="46.97907" lon="7.0942">
        <ele>431.8</ele>
        <time>2022-09-30T12:01:40Z</time>
      </trkpt>
      <trkpt lat="46.97912" lon="7.09422">
        <ele>431.8</ele>
        <time>2022-09-30T12:01:41Z</time>
      </trkpt>
      <trkpt lat="46.97917" lon="7.09423">
        <ele>431.8</ele>
        <time>2022-09-30T12:01:42Z</time>
      </trkpt>
      <trkpt lat="46.97923" lon="7.09426">
        <ele>431.8</ele>
        <time>2022-09-30T12:01:43Z</time>
      </trkpt>
      <trkpt lat="46.97928" lon="7.09429">
        <ele>431.8</ele>
        <time>2022-09-30T12:01:44Z</time>
      </trkpt>
      <trkpt lat="46.97933" lon="7.09432">
        <ele>431.9</ele>
        <time>2022-09-30T12:01:45Z</time>
      </trkpt>
      <trkpt lat="46.97938" lon="7.09434">
        <ele>431.9</ele>
        <time>2022-09-30T12:01:46Z</time>
      </trkpt>
      <trkpt lat="46.97942" lon="7.09437">
        <ele>431.9</ele>
        <time>2022-09-30T12:01:47Z</time>
      </trkpt>
      <trkpt lat="46.97947" lon="7.09438">
        <ele>431.9</ele>
        <time>2022-09-30T12:01:48Z</time>
      </trkpt>
      <trkpt lat="46.97953" lon="7.0944">
        <ele>432</ele>
        <time>2022-09-30T12:01:49Z</time>
      </trkpt>
      <trkpt lat="46.97957" lon="7.09442">
        <ele>432</ele>
        <time>2022-09-30T12:01:50Z</time>
      </trkpt>
      <trkpt lat="46.97961" lon="7.09445">
        <ele>432.1</ele>
        <time>2022-09-30T12:01:51Z</time>
      </trkpt>
      <trkpt lat="46.97965" lon="7.09447">
        <ele>432.1</ele>
        <time>2022-09-30T12:01:52Z</time>
      </trkpt>
      <trkpt lat="46.97969" lon="7.09449">
        <ele>432.1</ele>
        <time>2022-09-30T12:01:53Z</time>
      </trkpt>
      <trkpt lat="46.97972" lon="7.09451">
        <ele>432.1</ele>
        <time>2022-09-30T12:01:54Z</time>
      </trkpt>
      <trkpt lat="46.97975" lon="7.09452">
        <ele>432.2</ele>
        <time>2022-09-30T12:01:55Z</time>
      </trkpt>
      <trkpt lat="46.97978" lon="7.09454">
        <ele>432.2</ele>
        <time>2022-09-30T12:01:56Z</time>
      </trkpt>
      <trkpt lat="46.97982" lon="7.09457">
        <ele>432.2</ele>
        <time>2022-09-30T12:01:57Z</time>
      </trkpt>
      <trkpt lat="46.97984" lon="7.09461">
        <ele>432.3</ele>
        <time>2022-09-30T12:01:58Z</time>
      </trkpt>
      <trkpt lat="46.97985" lon="7.09467">
        <ele>432.3</ele>
        <time>2022-09-30T12:01:59Z</time>
      </trkpt>
      <trkpt lat="46.97985" lon="7.09468">
        <ele>432.2</ele>
        <time>2022-09-30T12:02:00Z</time>
      </trkpt>
      <trkpt lat="46.97985" lon="7.09472">
        <ele>432.2</ele>
        <time>2022-09-30T12:02:01Z</time>
      </trkpt>
      <trkpt lat="46.97985" lon="7.09479">
        <ele>432.2</ele>
        <time>2022-09-30T12:02:02Z</time>
      </trkpt>
      <trkpt lat="46.97985" lon="7.09481">
        <ele>432.1</ele>
        <time>2022-09-30T12:02:03Z</time>
      </trkpt>
      <trkpt lat="46.97986" lon="7.09487">
        <ele>432.1</ele>
        <time>2022-09-30T12:02:04Z</time>
      </trkpt>
      <trkpt lat="46.97985" lon="7.09494">
        <ele>432.1</ele>
        <time>2022-09-30T12:02:05Z</time>
      </trkpt>
      <trkpt lat="46.97985" lon="7.09499">
        <ele>432.1</ele>
        <time>2022-09-30T12:02:06Z</time>
      </trkpt>
      <trkpt lat="46.97985" lon="7.09505">
        <ele>432</ele>
        <time>2022-09-30T12:02:07Z</time>
      </trkpt>
      <trkpt lat="46.97985" lon="7.0951">
        <ele>432</ele>
        <time>2022-09-30T12:02:08Z</time>
      </trkpt>
      <trkpt lat="46.97983" lon="7.09517">
        <ele>432</ele>
        <time>2022-09-30T12:02:09Z</time>
      </trkpt>
      <trkpt lat="46.97982" lon="7.09521">
        <ele>432</ele>
        <time>2022-09-30T12:02:10Z</time>
      </trkpt>
      <trkpt lat="46.97981" lon="7.09527">
        <ele>431.9</ele>
        <time>2022-09-30T12:02:11Z</time>
      </trkpt>
      <trkpt lat="46.9798" lon="7.09532">
        <ele>431.9</ele>
        <time>2022-09-30T12:02:12Z</time>
      </trkpt>
      <trkpt lat="46.97979" lon="7.09539">
        <ele>431.9</ele>
        <time>2022-09-30T12:02:13Z</time>
      </trkpt>
      <trkpt lat="46.97978" lon="7.09546">
        <ele>431.9</ele>
        <time>2022-09-30T12:02:14Z</time>
      </trkpt>
      <trkpt lat="46.97977" lon="7.09552">
        <ele>431.9</ele>
        <time>2022-09-30T12:02:16Z</time>
      </trkpt>
      <trkpt lat="46.97977" lon="7.09559">
        <ele>431.9</ele>
        <time>2022-09-30T12:02:17Z</time>
      </trkpt>
      <trkpt lat="46.97975" lon="7.09566">
        <ele>431.9</ele>
        <time>2022-09-30T12:02:18Z</time>
      </trkpt>
      <trkpt lat="46.97974" lon="7.09572">
        <ele>431.9</ele>
        <time>2022-09-30T12:02:19Z</time>
      </trkpt>
      <trkpt lat="46.97972" lon="7.09586">
        <ele>431.9</ele>
        <time>2022-09-30T12:02:20Z</time>
      </trkpt>
      <trkpt lat="46.9797" lon="7.09592">
        <ele>432</ele>
        <time>2022-09-30T12:02:21Z</time>
      </trkpt>
      <trkpt lat="46.97968" lon="7.09597">
        <ele>432</ele>
        <time>2022-09-30T12:02:22Z</time>
      </trkpt>
      <trkpt lat="46.97968" lon="7.09603">
        <ele>432</ele>
        <time>2022-09-30T12:02:23Z</time>
      </trkpt>
      <trkpt lat="46.97967" lon="7.09608">
        <ele>432</ele>
        <time>2022-09-30T12:02:24Z</time>
      </trkpt>
      <trkpt lat="46.97967" lon="7.09613">
        <ele>432</ele>
        <time>2022-09-30T12:02:25Z</time>
      </trkpt>
      <trkpt lat="46.97967" lon="7.09618">
        <ele>432</ele>
        <time>2022-09-30T12:02:26Z</time>
      </trkpt>
      <trkpt lat="46.97967" lon="7.09623">
        <ele>432</ele>
        <time>2022-09-30T12:02:27Z</time>
      </trkpt>
      <trkpt lat="46.97966" lon="7.09628">
        <ele>432</ele>
        <time>2022-09-30T12:02:28Z</time>
      </trkpt>
      <trkpt lat="46.97966" lon="7.09633">
        <ele>432</ele>
        <time>2022-09-30T12:02:29Z</time>
      </trkpt>
      <trkpt lat="46.97965" lon="7.09639">
        <ele>432</ele>
        <time>2022-09-30T12:02:30Z</time>
      </trkpt>
      <trkpt lat="46.97965" lon="7.09644">
        <ele>432</ele>
        <time>2022-09-30T12:02:31Z</time>
      </trkpt>
      <trkpt lat="46.97965" lon="7.0965">
        <ele>432</ele>
        <time>2022-09-30T12:02:32Z</time>
      </trkpt>
      <trkpt lat="46.97964" lon="7.09657">
        <ele>432</ele>
        <time>2022-09-30T12:02:33Z</time>
      </trkpt>
      <trkpt lat="46.97964" lon="7.09664">
        <ele>432</ele>
        <time>2022-09-30T12:02:34Z</time>
      </trkpt>
      <trkpt lat="46.97963" lon="7.0967">
        <ele>432</ele>
        <time>2022-09-30T12:02:35Z</time>
      </trkpt>
      <trkpt lat="46.97963" lon="7.09678">
        <ele>432</ele>
        <time>2022-09-30T12:02:36Z</time>
      </trkpt>
      <trkpt lat="46.97963" lon="7.09684">
        <ele>432</ele>
        <time>2022-09-30T12:02:37Z</time>
      </trkpt>
      <trkpt lat="46.97962" lon="7.09692">
        <ele>432</ele>
        <time>2022-09-30T12:02:38Z</time>
      </trkpt>
      <trkpt lat="46.97961" lon="7.09699">
        <ele>432</ele>
        <time>2022-09-30T12:02:39Z</time>
      </trkpt>
      <trkpt lat="46.97961" lon="7.09706">
        <ele>432</ele>
        <time>2022-09-30T12:02:40Z</time>
      </trkpt>
      <trkpt lat="46.97961" lon="7.09713">
        <ele>432</ele>
        <time>2022-09-30T12:02:41Z</time>
      </trkpt>
      <trkpt lat="46.97961" lon="7.09719">
        <ele>432</ele>
        <time>2022-09-30T12:02:42Z</time>
      </trkpt>
      <trkpt lat="46.97961" lon="7.09725">
        <ele>432.1</ele>
        <time>2022-09-30T12:02:43Z</time>
      </trkpt>
      <trkpt lat="46.97961" lon="7.0973">
        <ele>432.1</ele>
        <time>2022-09-30T12:02:44Z</time>
      </trkpt>
      <trkpt lat="46.9796" lon="7.09736">
        <ele>432.1</ele>
        <time>2022-09-30T12:02:45Z</time>
      </trkpt>
      <trkpt lat="46.9796" lon="7.09742">
        <ele>432.1</ele>
        <time>2022-09-30T12:02:46Z</time>
      </trkpt>
      <trkpt lat="46.97959" lon="7.09747">
        <ele>432.1</ele>
        <time>2022-09-30T12:02:47Z</time>
      </trkpt>
      <trkpt lat="46.97959" lon="7.09752">
        <ele>432.1</ele>
        <time>2022-09-30T12:02:48Z</time>
      </trkpt>
      <trkpt lat="46.9796" lon="7.09757">
        <ele>432.1</ele>
        <time>2022-09-30T12:02:49Z</time>
      </trkpt>
      <trkpt lat="46.97961" lon="7.09762">
        <ele>432.1</ele>
        <time>2022-09-30T12:02:50Z</time>
      </trkpt>
      <trkpt lat="46.97962" lon="7.09768">
        <ele>432</ele>
        <time>2022-09-30T12:02:51Z</time>
      </trkpt>
      <trkpt lat="46.97963" lon="7.09773">
        <ele>431.9</ele>
        <time>2022-09-30T12:02:52Z</time>
      </trkpt>
      <trkpt lat="46.97964" lon="7.09779">
        <ele>431.9</ele>
        <time>2022-09-30T12:02:53Z</time>
      </trkpt>
      <trkpt lat="46.97965" lon="7.09786">
        <ele>431.8</ele>
        <time>2022-09-30T12:02:54Z</time>
      </trkpt>
      <trkpt lat="46.97967" lon="7.09794">
        <ele>431.8</ele>
        <time>2022-09-30T12:02:55Z</time>
      </trkpt>
      <trkpt lat="46.97968" lon="7.09802">
        <ele>431.7</ele>
        <time>2022-09-30T12:02:56Z</time>
      </trkpt>
      <trkpt lat="46.9797" lon="7.09809">
        <ele>431.7</ele>
        <time>2022-09-30T12:02:57Z</time>
      </trkpt>
      <trkpt lat="46.97972" lon="7.09817">
        <ele>431.6</ele>
        <time>2022-09-30T12:02:58Z</time>
      </trkpt>
      <trkpt lat="46.97973" lon="7.09824">
        <ele>431.6</ele>
        <time>2022-09-30T12:02:59Z</time>
      </trkpt>
      <trkpt lat="46.97974" lon="7.09832">
        <ele>431.6</ele>
        <time>2022-09-30T12:03:00Z</time>
      </trkpt>
      <trkpt lat="46.97975" lon="7.0984">
        <ele>431.6</ele>
        <time>2022-09-30T12:03:01Z</time>
      </trkpt>
      <trkpt lat="46.97977" lon="7.09848">
        <ele>431.5</ele>
        <time>2022-09-30T12:03:02Z</time>
      </trkpt>
      <trkpt lat="46.97978" lon="7.09855">
        <ele>431.5</ele>
        <time>2022-09-30T12:03:03Z</time>
      </trkpt>
      <trkpt lat="46.9798" lon="7.09863">
        <ele>431.5</ele>
        <time>2022-09-30T12:03:04Z</time>
      </trkpt>
      <trkpt lat="46.97981" lon="7.0987">
        <ele>431.5</ele>
        <time>2022-09-30T12:03:05Z</time>
      </trkpt>
      <trkpt lat="46.97983" lon="7.09878">
        <ele>431.5</ele>
        <time>2022-09-30T12:03:06Z</time>
      </trkpt>
      <trkpt lat="46.97984" lon="7.09886">
        <ele>431.5</ele>
        <time>2022-09-30T12:03:07Z</time>
      </trkpt>
      <trkpt lat="46.97986" lon="7.09892">
        <ele>431.5</ele>
        <time>2022-09-30T12:03:08Z</time>
      </trkpt>
      <trkpt lat="46.97987" lon="7.099">
        <ele>431.5</ele>
        <time>2022-09-30T12:03:09Z</time>
      </trkpt>
      <trkpt lat="46.97988" lon="7.09908">
        <ele>431.5</ele>
        <time>2022-09-30T12:03:10Z</time>
      </trkpt>
      <trkpt lat="46.9799" lon="7.09915">
        <ele>431.5</ele>
        <time>2022-09-30T12:03:11Z</time>
      </trkpt>
      <trkpt lat="46.97991" lon="7.09922">
        <ele>431.5</ele>
        <time>2022-09-30T12:03:12Z</time>
      </trkpt>
      <trkpt lat="46.97993" lon="7.0993">
        <ele>431.5</ele>
        <time>2022-09-30T12:03:13Z</time>
      </trkpt>
      <trkpt lat="46.97994" lon="7.09937">
        <ele>431.5</ele>
        <time>2022-09-30T12:03:14Z</time>
      </trkpt>
      <trkpt lat="46.97995" lon="7.09946">
        <ele>431.5</ele>
        <time>2022-09-30T12:03:15Z</time>
      </trkpt>
      <trkpt lat="46.97997" lon="7.09954">
        <ele>431.5</ele>
        <time>2022-09-30T12:03:16Z</time>
      </trkpt>
      <trkpt lat="46.97999" lon="7.09961">
        <ele>431.5</ele>
        <time>2022-09-30T12:03:17Z</time>
      </trkpt>
      <trkpt lat="46.98" lon="7.09968">
        <ele>431.5</ele>
        <time>2022-09-30T12:03:18Z</time>
      </trkpt>
      <trkpt lat="46.98002" lon="7.09976">
        <ele>431.6</ele>
        <time>2022-09-30T12:03:19Z</time>
      </trkpt>
      <trkpt lat="46.98003" lon="7.09984">
        <ele>431.6</ele>
        <time>2022-09-30T12:03:20Z</time>
      </trkpt>
      <trkpt lat="46.98004" lon="7.09991">
        <ele>431.6</ele>
        <time>2022-09-30T12:03:21Z</time>
      </trkpt>
      <trkpt lat="46.98005" lon="7.09998">
        <ele>431.6</ele>
        <time>2022-09-30T12:03:22Z</time>
      </trkpt>
      <trkpt lat="46.98007" lon="7.10006">
        <ele>431.6</ele>
        <time>2022-09-30T12:03:23Z</time>
      </trkpt>
      <trkpt lat="46.98008" lon="7.10014">
        <ele>431.6</ele>
        <time>2022-09-30T12:03:24Z</time>
      </trkpt>
      <trkpt lat="46.9801" lon="7.10022">
        <ele>431.7</ele>
        <time>2022-09-30T12:03:25Z</time>
      </trkpt>
      <trkpt lat="46.98011" lon="7.1003">
        <ele>431.7</ele>
        <time>2022-09-30T12:03:26Z</time>
      </trkpt>
      <trkpt lat="46.98012" lon="7.10038">
        <ele>431.7</ele>
        <time>2022-09-30T12:03:27Z</time>
      </trkpt>
      <trkpt lat="46.98014" lon="7.10045">
        <ele>431.7</ele>
        <time>2022-09-30T12:03:28Z</time>
      </trkpt>
      <trkpt lat="46.98016" lon="7.10054">
        <ele>431.7</ele>
        <time>2022-09-30T12:03:29Z</time>
      </trkpt>
      <trkpt lat="46.98017" lon="7.10061">
        <ele>431.8</ele>
        <time>2022-09-30T12:03:30Z</time>
      </trkpt>
      <trkpt lat="46.98018" lon="7.10069">
        <ele>431.8</ele>
        <time>2022-09-30T12:03:31Z</time>
      </trkpt>
      <trkpt lat="46.9802" lon="7.10077">
        <ele>431.8</ele>
        <time>2022-09-30T12:03:32Z</time>
      </trkpt>
      <trkpt lat="46.98021" lon="7.10085">
        <ele>431.9</ele>
        <time>2022-09-30T12:03:33Z</time>
      </trkpt>
      <trkpt lat="46.98023" lon="7.10092">
        <ele>431.9</ele>
        <time>2022-09-30T12:03:34Z</time>
      </trkpt>
      <trkpt lat="46.98024" lon="7.10099">
        <ele>432</ele>
        <time>2022-09-30T12:03:35Z</time>
      </trkpt>
      <trkpt lat="46.98026" lon="7.10107">
        <ele>432</ele>
        <time>2022-09-30T12:03:36Z</time>
      </trkpt>
      <trkpt lat="46.98027" lon="7.10114">
        <ele>432.1</ele>
        <time>2022-09-30T12:03:37Z</time>
      </trkpt>
      <trkpt lat="46.98028" lon="7.10121">
        <ele>432.1</ele>
        <time>2022-09-30T12:03:38Z</time>
      </trkpt>
      <trkpt lat="46.9803" lon="7.10126">
        <ele>432.1</ele>
        <time>2022-09-30T12:03:39Z</time>
      </trkpt>
      <trkpt lat="46.98033" lon="7.10132">
        <ele>432.1</ele>
        <time>2022-09-30T12:03:40Z</time>
      </trkpt>
      <trkpt lat="46.98036" lon="7.10136">
        <ele>432.1</ele>
        <time>2022-09-30T12:03:41Z</time>
      </trkpt>
      <trkpt lat="46.9804" lon="7.10138">
        <ele>432.1</ele>
        <time>2022-09-30T12:03:42Z</time>
      </trkpt>
      <trkpt lat="46.98045" lon="7.10141">
        <ele>432</ele>
        <time>2022-09-30T12:03:43Z</time>
      </trkpt>
      <trkpt lat="46.98048" lon="7.10142">
        <ele>432</ele>
        <time>2022-09-30T12:03:44Z</time>
      </trkpt>
      <trkpt lat="46.98053" lon="7.10143">
        <ele>432</ele>
        <time>2022-09-30T12:03:45Z</time>
      </trkpt>
      <trkpt lat="46.98058" lon="7.10145">
        <ele>432</ele>
        <time>2022-09-30T12:03:46Z</time>
      </trkpt>
      <trkpt lat="46.98062" lon="7.10147">
        <ele>432</ele>
        <time>2022-09-30T12:03:47Z</time>
      </trkpt>
      <trkpt lat="46.98067" lon="7.10149">
        <ele>431.9</ele>
        <time>2022-09-30T12:03:48Z</time>
      </trkpt>
      <trkpt lat="46.98073" lon="7.10151">
        <ele>431.9</ele>
        <time>2022-09-30T12:03:49Z</time>
      </trkpt>
      <trkpt lat="46.98077" lon="7.10153">
        <ele>431.9</ele>
        <time>2022-09-30T12:03:50Z</time>
      </trkpt>
      <trkpt lat="46.98083" lon="7.10155">
        <ele>431.9</ele>
        <time>2022-09-30T12:03:51Z</time>
      </trkpt>
      <trkpt lat="46.98087" lon="7.10157">
        <ele>431.9</ele>
        <time>2022-09-30T12:03:52Z</time>
      </trkpt>
      <trkpt lat="46.98092" lon="7.10159">
        <ele>431.9</ele>
        <time>2022-09-30T12:03:53Z</time>
      </trkpt>
      <trkpt lat="46.98097" lon="7.10162">
        <ele>431.9</ele>
        <time>2022-09-30T12:03:54Z</time>
      </trkpt>
      <trkpt lat="46.98101" lon="7.10163">
        <ele>431.9</ele>
        <time>2022-09-30T12:03:55Z</time>
      </trkpt>
      <trkpt lat="46.98106" lon="7.10165">
        <ele>431.9</ele>
        <time>2022-09-30T12:03:56Z</time>
      </trkpt>
      <trkpt lat="46.9811" lon="7.10167">
        <ele>431.9</ele>
        <time>2022-09-30T12:03:57Z</time>
      </trkpt>
      <trkpt lat="46.98115" lon="7.10169">
        <ele>431.9</ele>
        <time>2022-09-30T12:03:58Z</time>
      </trkpt>
      <trkpt lat="46.9812" lon="7.1017">
        <ele>432</ele>
        <time>2022-09-30T12:03:59Z</time>
      </trkpt>
      <trkpt lat="46.98126" lon="7.10173">
        <ele>432</ele>
        <time>2022-09-30T12:04:00Z</time>
      </trkpt>
      <trkpt lat="46.9813" lon="7.10174">
        <ele>432</ele>
        <time>2022-09-30T12:04:01Z</time>
      </trkpt>
      <trkpt lat="46.98134" lon="7.10175">
        <ele>432</ele>
        <time>2022-09-30T12:04:02Z</time>
      </trkpt>
      <trkpt lat="46.9814" lon="7.10177">
        <ele>432</ele>
        <time>2022-09-30T12:04:03Z</time>
      </trkpt>
      <trkpt lat="46.98145" lon="7.1018">
        <ele>432.1</ele>
        <time>2022-09-30T12:04:04Z</time>
      </trkpt>
      <trkpt lat="46.9815" lon="7.10182">
        <ele>432.1</ele>
        <time>2022-09-30T12:04:05Z</time>
      </trkpt>
      <trkpt lat="46.98155" lon="7.10184">
        <ele>432.1</ele>
        <time>2022-09-30T12:04:06Z</time>
      </trkpt>
      <trkpt lat="46.98161" lon="7.10187">
        <ele>432</ele>
        <time>2022-09-30T12:04:07Z</time>
      </trkpt>
      <trkpt lat="46.98166" lon="7.10188">
        <ele>432</ele>
        <time>2022-09-30T12:04:08Z</time>
      </trkpt>
      <trkpt lat="46.9817" lon="7.1019">
        <ele>432</ele>
        <time>2022-09-30T12:04:09Z</time>
      </trkpt>
      <trkpt lat="46.98175" lon="7.10192">
        <ele>432</ele>
        <time>2022-09-30T12:04:10Z</time>
      </trkpt>
      <trkpt lat="46.98182" lon="7.10193">
        <ele>432.1</ele>
        <time>2022-09-30T12:04:11Z</time>
      </trkpt>
      <trkpt lat="46.98185" lon="7.10197">
        <ele>432.1</ele>
        <time>2022-09-30T12:04:12Z</time>
      </trkpt>
      <trkpt lat="46.98191" lon="7.10199">
        <ele>432.1</ele>
        <time>2022-09-30T12:04:13Z</time>
      </trkpt>
      <trkpt lat="46.98196" lon="7.10201">
        <ele>432.1</ele>
        <time>2022-09-30T12:04:14Z</time>
      </trkpt>
      <trkpt lat="46.98201" lon="7.10204">
        <ele>432</ele>
        <time>2022-09-30T12:04:15Z</time>
      </trkpt>
      <trkpt lat="46.98206" lon="7.10206">
        <ele>432</ele>
        <time>2022-09-30T12:04:16Z</time>
      </trkpt>
      <trkpt lat="46.9821" lon="7.10209">
        <ele>432</ele>
        <time>2022-09-30T12:04:17Z</time>
      </trkpt>
      <trkpt lat="46.98214" lon="7.1021">
        <ele>432</ele>
        <time>2022-09-30T12:04:18Z</time>
      </trkpt>
      <trkpt lat="46.98219" lon="7.10212">
        <ele>432</ele>
        <time>2022-09-30T12:04:19Z</time>
      </trkpt>
      <trkpt lat="46.98224" lon="7.10214">
        <ele>432</ele>
        <time>2022-09-30T12:04:20Z</time>
      </trkpt>
      <trkpt lat="46.98229" lon="7.10216">
        <ele>432</ele>
        <time>2022-09-30T12:04:22Z</time>
      </trkpt>
      <trkpt lat="46.98234" lon="7.10218">
        <ele>432</ele>
        <time>2022-09-30T12:04:23Z</time>
      </trkpt>
      <trkpt lat="46.98239" lon="7.10221">
        <ele>432</ele>
        <time>2022-09-30T12:04:24Z</time>
      </trkpt>
      <trkpt lat="46.98244" lon="7.10222">
        <ele>432</ele>
        <time>2022-09-30T12:04:25Z</time>
      </trkpt>
      <trkpt lat="46.98249" lon="7.10224">
        <ele>432</ele>
        <time>2022-09-30T12:04:26Z</time>
      </trkpt>
      <trkpt lat="46.98254" lon="7.10226">
        <ele>432</ele>
        <time>2022-09-30T12:04:27Z</time>
      </trkpt>
      <trkpt lat="46.98259" lon="7.10229">
        <ele>432</ele>
        <time>2022-09-30T12:04:28Z</time>
      </trkpt>
      <trkpt lat="46.98264" lon="7.10231">
        <ele>432</ele>
        <time>2022-09-30T12:04:29Z</time>
      </trkpt>
      <trkpt lat="46.98269" lon="7.10233">
        <ele>432</ele>
        <time>2022-09-30T12:04:30Z</time>
      </trkpt>
      <trkpt lat="46.98275" lon="7.10235">
        <ele>432</ele>
        <time>2022-09-30T12:04:31Z</time>
      </trkpt>
      <trkpt lat="46.9828" lon="7.10238">
        <ele>432</ele>
        <time>2022-09-30T12:04:32Z</time>
      </trkpt>
      <trkpt lat="46.9829" lon="7.10242">
        <ele>432</ele>
        <time>2022-09-30T12:04:33Z</time>
      </trkpt>
      <trkpt lat="46.98295" lon="7.10245">
        <ele>432</ele>
        <time>2022-09-30T12:04:34Z</time>
      </trkpt>
      <trkpt lat="46.98301" lon="7.10247">
        <ele>432</ele>
        <time>2022-09-30T12:04:35Z</time>
      </trkpt>
      <trkpt lat="46.98305" lon="7.10249">
        <ele>432</ele>
        <time>2022-09-30T12:04:36Z</time>
      </trkpt>
      <trkpt lat="46.9831" lon="7.1025">
        <ele>431.9</ele>
        <time>2022-09-30T12:04:37Z</time>
      </trkpt>
      <trkpt lat="46.98315" lon="7.10251">
        <ele>431.9</ele>
        <time>2022-09-30T12:04:38Z</time>
      </trkpt>
      <trkpt lat="46.98319" lon="7.10253">
        <ele>431.9</ele>
        <time>2022-09-30T12:04:39Z</time>
      </trkpt>
      <trkpt lat="46.98323" lon="7.10256">
        <ele>431.9</ele>
        <time>2022-09-30T12:04:40Z</time>
      </trkpt>
      <trkpt lat="46.98329" lon="7.10258">
        <ele>431.9</ele>
        <time>2022-09-30T12:04:41Z</time>
      </trkpt>
      <trkpt lat="46.98333" lon="7.1026">
        <ele>431.9</ele>
        <time>2022-09-30T12:04:42Z</time>
      </trkpt>
      <trkpt lat="46.98338" lon="7.10262">
        <ele>431.9</ele>
        <time>2022-09-30T12:04:43Z</time>
      </trkpt>
      <trkpt lat="46.98344" lon="7.10265">
        <ele>431.9</ele>
        <time>2022-09-30T12:04:44Z</time>
      </trkpt>
      <trkpt lat="46.98349" lon="7.10267">
        <ele>431.9</ele>
        <time>2022-09-30T12:04:45Z</time>
      </trkpt>
      <trkpt lat="46.98354" lon="7.10268">
        <ele>431.9</ele>
        <time>2022-09-30T12:04:46Z</time>
      </trkpt>
      <trkpt lat="46.98359" lon="7.1027">
        <ele>431.9</ele>
        <time>2022-09-30T12:04:47Z</time>
      </trkpt>
      <trkpt lat="46.98364" lon="7.10272">
        <ele>431.9</ele>
        <time>2022-09-30T12:04:48Z</time>
      </trkpt>
      <trkpt lat="46.9837" lon="7.10275">
        <ele>431.9</ele>
        <time>2022-09-30T12:04:49Z</time>
      </trkpt>
      <trkpt lat="46.98375" lon="7.10277">
        <ele>431.9</ele>
        <time>2022-09-30T12:04:50Z</time>
      </trkpt>
      <trkpt lat="46.9838" lon="7.1028">
        <ele>431.9</ele>
        <time>2022-09-30T12:04:51Z</time>
      </trkpt>
      <trkpt lat="46.98385" lon="7.10281">
        <ele>431.9</ele>
        <time>2022-09-30T12:04:52Z</time>
      </trkpt>
      <trkpt lat="46.98391" lon="7.10284">
        <ele>431.9</ele>
        <time>2022-09-30T12:04:53Z</time>
      </trkpt>
      <trkpt lat="46.98396" lon="7.10286">
        <ele>431.9</ele>
        <time>2022-09-30T12:04:54Z</time>
      </trkpt>
      <trkpt lat="46.98401" lon="7.10289">
        <ele>431.9</ele>
        <time>2022-09-30T12:04:55Z</time>
      </trkpt>
      <trkpt lat="46.98406" lon="7.10291">
        <ele>431.9</ele>
        <time>2022-09-30T12:04:56Z</time>
      </trkpt>
      <trkpt lat="46.98411" lon="7.10293">
        <ele>431.9</ele>
        <time>2022-09-30T12:04:57Z</time>
      </trkpt>
      <trkpt lat="46.98416" lon="7.10296">
        <ele>432</ele>
        <time>2022-09-30T12:04:58Z</time>
      </trkpt>
      <trkpt lat="46.98422" lon="7.10298">
        <ele>432</ele>
        <time>2022-09-30T12:04:59Z</time>
      </trkpt>
      <trkpt lat="46.98427" lon="7.10299">
        <ele>432</ele>
        <time>2022-09-30T12:05:00Z</time>
      </trkpt>
      <trkpt lat="46.98432" lon="7.10301">
        <ele>432</ele>
        <time>2022-09-30T12:05:01Z</time>
      </trkpt>
      <trkpt lat="46.98438" lon="7.10303">
        <ele>432</ele>
        <time>2022-09-30T12:05:02Z</time>
      </trkpt>
      <trkpt lat="46.98443" lon="7.10305">
        <ele>432</ele>
        <time>2022-09-30T12:05:03Z</time>
      </trkpt>
      <trkpt lat="46.98448" lon="7.10308">
        <ele>432</ele>
        <time>2022-09-30T12:05:04Z</time>
      </trkpt>
      <trkpt lat="46.98454" lon="7.10309">
        <ele>432</ele>
        <time>2022-09-30T12:05:05Z</time>
      </trkpt>
      <trkpt lat="46.98459" lon="7.10311">
        <ele>432</ele>
        <time>2022-09-30T12:05:06Z</time>
      </trkpt>
      <trkpt lat="46.98464" lon="7.10314">
        <ele>432.1</ele>
        <time>2022-09-30T12:05:07Z</time>
      </trkpt>
      <trkpt lat="46.98469" lon="7.10317">
        <ele>432.1</ele>
        <time>2022-09-30T12:05:08Z</time>
      </trkpt>
      <trkpt lat="46.98473" lon="7.1032">
        <ele>432.1</ele>
        <time>2022-09-30T12:05:09Z</time>
      </trkpt>
      <trkpt lat="46.98479" lon="7.10322">
        <ele>432.1</ele>
        <time>2022-09-30T12:05:10Z</time>
      </trkpt>
      <trkpt lat="46.98484" lon="7.10325">
        <ele>432.1</ele>
        <time>2022-09-30T12:05:11Z</time>
      </trkpt>
      <trkpt lat="46.9849" lon="7.10327">
        <ele>432.1</ele>
        <time>2022-09-30T12:05:12Z</time>
      </trkpt>
      <trkpt lat="46.98494" lon="7.10328">
        <ele>432.1</ele>
        <time>2022-09-30T12:05:13Z</time>
      </trkpt>
      <trkpt lat="46.98499" lon="7.1033">
        <ele>432.1</ele>
        <time>2022-09-30T12:05:14Z</time>
      </trkpt>
      <trkpt lat="46.98505" lon="7.10332">
        <ele>432.1</ele>
        <time>2022-09-30T12:05:15Z</time>
      </trkpt>
      <trkpt lat="46.98511" lon="7.10335">
        <ele>432.1</ele>
        <time>2022-09-30T12:05:16Z</time>
      </trkpt>
      <trkpt lat="46.98516" lon="7.10337">
        <ele>432.1</ele>
        <time>2022-09-30T12:05:17Z</time>
      </trkpt>
      <trkpt lat="46.98521" lon="7.10339">
        <ele>432.1</ele>
        <time>2022-09-30T12:05:18Z</time>
      </trkpt>
      <trkpt lat="46.98526" lon="7.10341">
        <ele>432.1</ele>
        <time>2022-09-30T12:05:19Z</time>
      </trkpt>
      <trkpt lat="46.98532" lon="7.10344">
        <ele>432.1</ele>
        <time>2022-09-30T12:05:20Z</time>
      </trkpt>
      <trkpt lat="46.98538" lon="7.10346">
        <ele>432.1</ele>
        <time>2022-09-30T12:05:21Z</time>
      </trkpt>
      <trkpt lat="46.98544" lon="7.10349">
        <ele>432.1</ele>
        <time>2022-09-30T12:05:22Z</time>
      </trkpt>
      <trkpt lat="46.98549" lon="7.10351">
        <ele>432.1</ele>
        <time>2022-09-30T12:05:23Z</time>
      </trkpt>
      <trkpt lat="46.98554" lon="7.10354">
        <ele>432.1</ele>
        <time>2022-09-30T12:05:24Z</time>
      </trkpt>
      <trkpt lat="46.98559" lon="7.10355">
        <ele>432.1</ele>
        <time>2022-09-30T12:05:25Z</time>
      </trkpt>
      <trkpt lat="46.98565" lon="7.10358">
        <ele>432.1</ele>
        <time>2022-09-30T12:05:26Z</time>
      </trkpt>
      <trkpt lat="46.98571" lon="7.1036">
        <ele>432.1</ele>
        <time>2022-09-30T12:05:27Z</time>
      </trkpt>
      <trkpt lat="46.98576" lon="7.10362">
        <ele>432.1</ele>
        <time>2022-09-30T12:05:28Z</time>
      </trkpt>
      <trkpt lat="46.98582" lon="7.10365">
        <ele>432.1</ele>
        <time>2022-09-30T12:05:29Z</time>
      </trkpt>
      <trkpt lat="46.98588" lon="7.10367">
        <ele>432.1</ele>
        <time>2022-09-30T12:05:30Z</time>
      </trkpt>
      <trkpt lat="46.98594" lon="7.1037">
        <ele>432.1</ele>
        <time>2022-09-30T12:05:31Z</time>
      </trkpt>
      <trkpt lat="46.986" lon="7.10372">
        <ele>432.1</ele>
        <time>2022-09-30T12:05:32Z</time>
      </trkpt>
      <trkpt lat="46.98605" lon="7.10374">
        <ele>432.1</ele>
        <time>2022-09-30T12:05:33Z</time>
      </trkpt>
      <trkpt lat="46.98611" lon="7.10377">
        <ele>432.1</ele>
        <time>2022-09-30T12:05:34Z</time>
      </trkpt>
      <trkpt lat="46.98616" lon="7.10379">
        <ele>432.1</ele>
        <time>2022-09-30T12:05:35Z</time>
      </trkpt>
      <trkpt lat="46.98622" lon="7.10382">
        <ele>432.1</ele>
        <time>2022-09-30T12:05:36Z</time>
      </trkpt>
      <trkpt lat="46.98627" lon="7.10384">
        <ele>432.1</ele>
        <time>2022-09-30T12:05:37Z</time>
      </trkpt>
      <trkpt lat="46.98632" lon="7.10386">
        <ele>432.1</ele>
        <time>2022-09-30T12:05:38Z</time>
      </trkpt>
      <trkpt lat="46.98638" lon="7.10389">
        <ele>432</ele>
        <time>2022-09-30T12:05:39Z</time>
      </trkpt>
      <trkpt lat="46.98643" lon="7.1039">
        <ele>432</ele>
        <time>2022-09-30T12:05:40Z</time>
      </trkpt>
      <trkpt lat="46.98648" lon="7.10393">
        <ele>432</ele>
        <time>2022-09-30T12:05:41Z</time>
      </trkpt>
      <trkpt lat="46.98653" lon="7.10395">
        <ele>432</ele>
        <time>2022-09-30T12:05:42Z</time>
      </trkpt>
      <trkpt lat="46.98658" lon="7.10396">
        <ele>432</ele>
        <time>2022-09-30T12:05:43Z</time>
      </trkpt>
      <trkpt lat="46.98664" lon="7.10399">
        <ele>432</ele>
        <time>2022-09-30T12:05:44Z</time>
      </trkpt>
      <trkpt lat="46.98669" lon="7.10401">
        <ele>432</ele>
        <time>2022-09-30T12:05:45Z</time>
      </trkpt>
      <trkpt lat="46.98673" lon="7.10403">
        <ele>432</ele>
        <time>2022-09-30T12:05:46Z</time>
      </trkpt>
      <trkpt lat="46.98679" lon="7.10406">
        <ele>432.1</ele>
        <time>2022-09-30T12:05:47Z</time>
      </trkpt>
      <trkpt lat="46.98684" lon="7.10408">
        <ele>432.1</ele>
        <time>2022-09-30T12:05:48Z</time>
      </trkpt>
      <trkpt lat="46.98689" lon="7.1041">
        <ele>432.1</ele>
        <time>2022-09-30T12:05:49Z</time>
      </trkpt>
      <trkpt lat="46.98694" lon="7.10412">
        <ele>432.1</ele>
        <time>2022-09-30T12:05:50Z</time>
      </trkpt>
      <trkpt lat="46.987" lon="7.10415">
        <ele>432</ele>
        <time>2022-09-30T12:05:51Z</time>
      </trkpt>
      <trkpt lat="46.98704" lon="7.10416">
        <ele>432</ele>
        <time>2022-09-30T12:05:52Z</time>
      </trkpt>
      <trkpt lat="46.98709" lon="7.10418">
        <ele>432</ele>
        <time>2022-09-30T12:05:53Z</time>
      </trkpt>
      <trkpt lat="46.98715" lon="7.10421">
        <ele>432</ele>
        <time>2022-09-30T12:05:54Z</time>
      </trkpt>
      <trkpt lat="46.9872" lon="7.10423">
        <ele>432</ele>
        <time>2022-09-30T12:05:55Z</time>
      </trkpt>
      <trkpt lat="46.98725" lon="7.10425">
        <ele>432</ele>
        <time>2022-09-30T12:05:56Z</time>
      </trkpt>
      <trkpt lat="46.9873" lon="7.10427">
        <ele>432.1</ele>
        <time>2022-09-30T12:05:57Z</time>
      </trkpt>
      <trkpt lat="46.98735" lon="7.1043">
        <ele>432.1</ele>
        <time>2022-09-30T12:05:58Z</time>
      </trkpt>
      <trkpt lat="46.98741" lon="7.10432">
        <ele>432.1</ele>
        <time>2022-09-30T12:05:59Z</time>
      </trkpt>
      <trkpt lat="46.98746" lon="7.10434">
        <ele>432.1</ele>
        <time>2022-09-30T12:06:00Z</time>
      </trkpt>
      <trkpt lat="46.9875" lon="7.10436">
        <ele>432.1</ele>
        <time>2022-09-30T12:06:01Z</time>
      </trkpt>
      <trkpt lat="46.98755" lon="7.10438">
        <ele>432.1</ele>
        <time>2022-09-30T12:06:02Z</time>
      </trkpt>
      <trkpt lat="46.98761" lon="7.1044">
        <ele>432.1</ele>
        <time>2022-09-30T12:06:03Z</time>
      </trkpt>
      <trkpt lat="46.98766" lon="7.10443">
        <ele>432.1</ele>
        <time>2022-09-30T12:06:04Z</time>
      </trkpt>
      <trkpt lat="46.98771" lon="7.10444">
        <ele>432.1</ele>
        <time>2022-09-30T12:06:05Z</time>
      </trkpt>
      <trkpt lat="46.98776" lon="7.10445">
        <ele>432.1</ele>
        <time>2022-09-30T12:06:06Z</time>
      </trkpt>
      <trkpt lat="46.98781" lon="7.10447">
        <ele>432.2</ele>
        <time>2022-09-30T12:06:07Z</time>
      </trkpt>
      <trkpt lat="46.98786" lon="7.10446">
        <ele>432.2</ele>
        <time>2022-09-30T12:06:08Z</time>
      </trkpt>
      <trkpt lat="46.9879" lon="7.10446">
        <ele>432.2</ele>
        <time>2022-09-30T12:06:09Z</time>
      </trkpt>
      <trkpt lat="46.98795" lon="7.10446">
        <ele>432.2</ele>
        <time>2022-09-30T12:06:10Z</time>
      </trkpt>
      <trkpt lat="46.988" lon="7.10447">
        <ele>432.2</ele>
        <time>2022-09-30T12:06:11Z</time>
      </trkpt>
      <trkpt lat="46.98804" lon="7.10445">
        <ele>432.2</ele>
        <time>2022-09-30T12:06:12Z</time>
      </trkpt>
      <trkpt lat="46.98809" lon="7.10445">
        <ele>432.2</ele>
        <time>2022-09-30T12:06:13Z</time>
      </trkpt>
      <trkpt lat="46.98814" lon="7.10443">
        <ele>432.1</ele>
        <time>2022-09-30T12:06:14Z</time>
      </trkpt>
      <trkpt lat="46.98818" lon="7.10442">
        <ele>432.1</ele>
        <time>2022-09-30T12:06:15Z</time>
      </trkpt>
      <trkpt lat="46.98823" lon="7.1044">
        <ele>432.1</ele>
        <time>2022-09-30T12:06:16Z</time>
      </trkpt>
      <trkpt lat="46.98828" lon="7.10439">
        <ele>432.1</ele>
        <time>2022-09-30T12:06:17Z</time>
      </trkpt>
      <trkpt lat="46.98833" lon="7.10437">
        <ele>432.1</ele>
        <time>2022-09-30T12:06:18Z</time>
      </trkpt>
      <trkpt lat="46.98838" lon="7.10435">
        <ele>432</ele>
        <time>2022-09-30T12:06:19Z</time>
      </trkpt>
      <trkpt lat="46.98843" lon="7.10433">
        <ele>432</ele>
        <time>2022-09-30T12:06:20Z</time>
      </trkpt>
      <trkpt lat="46.98848" lon="7.10431">
        <ele>432</ele>
        <time>2022-09-30T12:06:21Z</time>
      </trkpt>
      <trkpt lat="46.98853" lon="7.10429">
        <ele>432</ele>
        <time>2022-09-30T12:06:22Z</time>
      </trkpt>
      <trkpt lat="46.98858" lon="7.10427">
        <ele>432</ele>
        <time>2022-09-30T12:06:23Z</time>
      </trkpt>
      <trkpt lat="46.98863" lon="7.10425">
        <ele>432</ele>
        <time>2022-09-30T12:06:24Z</time>
      </trkpt>
      <trkpt lat="46.98868" lon="7.10423">
        <ele>432</ele>
        <time>2022-09-30T12:06:25Z</time>
      </trkpt>
      <trkpt lat="46.98873" lon="7.10421">
        <ele>431.9</ele>
        <time>2022-09-30T12:06:26Z</time>
      </trkpt>
      <trkpt lat="46.98878" lon="7.10419">
        <ele>431.9</ele>
        <time>2022-09-30T12:06:27Z</time>
      </trkpt>
      <trkpt lat="46.98884" lon="7.10417">
        <ele>431.9</ele>
        <time>2022-09-30T12:06:28Z</time>
      </trkpt>
      <trkpt lat="46.98889" lon="7.10415">
        <ele>431.9</ele>
        <time>2022-09-30T12:06:29Z</time>
      </trkpt>
      <trkpt lat="46.98894" lon="7.10413">
        <ele>431.9</ele>
        <time>2022-09-30T12:06:30Z</time>
      </trkpt>
      <trkpt lat="46.98899" lon="7.10411">
        <ele>431.9</ele>
        <time>2022-09-30T12:06:31Z</time>
      </trkpt>
      <trkpt lat="46.98905" lon="7.10408">
        <ele>431.9</ele>
        <time>2022-09-30T12:06:32Z</time>
      </trkpt>
      <trkpt lat="46.9891" lon="7.10406">
        <ele>431.9</ele>
        <time>2022-09-30T12:06:33Z</time>
      </trkpt>
      <trkpt lat="46.98915" lon="7.10404">
        <ele>431.9</ele>
        <time>2022-09-30T12:06:34Z</time>
      </trkpt>
      <trkpt lat="46.9892" lon="7.10402">
        <ele>431.9</ele>
        <time>2022-09-30T12:06:35Z</time>
      </trkpt>
      <trkpt lat="46.98925" lon="7.104">
        <ele>431.9</ele>
        <time>2022-09-30T12:06:36Z</time>
      </trkpt>
      <trkpt lat="46.9893" lon="7.10398">
        <ele>431.9</ele>
        <time>2022-09-30T12:06:37Z</time>
      </trkpt>
      <trkpt lat="46.98936" lon="7.10396">
        <ele>432</ele>
        <time>2022-09-30T12:06:38Z</time>
      </trkpt>
      <trkpt lat="46.98941" lon="7.10393">
        <ele>432</ele>
        <time>2022-09-30T12:06:39Z</time>
      </trkpt>
      <trkpt lat="46.98946" lon="7.10392">
        <ele>432</ele>
        <time>2022-09-30T12:06:40Z</time>
      </trkpt>
      <trkpt lat="46.98951" lon="7.10389">
        <ele>432</ele>
        <time>2022-09-30T12:06:41Z</time>
      </trkpt>
      <trkpt lat="46.98956" lon="7.10387">
        <ele>432</ele>
        <time>2022-09-30T12:06:42Z</time>
      </trkpt>
      <trkpt lat="46.98961" lon="7.10385">
        <ele>432</ele>
        <time>2022-09-30T12:06:43Z</time>
      </trkpt>
      <trkpt lat="46.98966" lon="7.10383">
        <ele>432</ele>
        <time>2022-09-30T12:06:44Z</time>
      </trkpt>
      <trkpt lat="46.98971" lon="7.10381">
        <ele>432.1</ele>
        <time>2022-09-30T12:06:45Z</time>
      </trkpt>
      <trkpt lat="46.98976" lon="7.10379">
        <ele>432.1</ele>
        <time>2022-09-30T12:06:46Z</time>
      </trkpt>
      <trkpt lat="46.98982" lon="7.10377">
        <ele>432.1</ele>
        <time>2022-09-30T12:06:47Z</time>
      </trkpt>
      <trkpt lat="46.98987" lon="7.10375">
        <ele>432.1</ele>
        <time>2022-09-30T12:06:48Z</time>
      </trkpt>
      <trkpt lat="46.98992" lon="7.10373">
        <ele>432.2</ele>
        <time>2022-09-30T12:06:49Z</time>
      </trkpt>
      <trkpt lat="46.98998" lon="7.10371">
        <ele>432.2</ele>
        <time>2022-09-30T12:06:50Z</time>
      </trkpt>
      <trkpt lat="46.99003" lon="7.10369">
        <ele>432.3</ele>
        <time>2022-09-30T12:06:51Z</time>
      </trkpt>
      <trkpt lat="46.99008" lon="7.10366">
        <ele>432.3</ele>
        <time>2022-09-30T12:06:52Z</time>
      </trkpt>
      <trkpt lat="46.99014" lon="7.10364">
        <ele>432.4</ele>
        <time>2022-09-30T12:06:53Z</time>
      </trkpt>
      <trkpt lat="46.99019" lon="7.10362">
        <ele>432.5</ele>
        <time>2022-09-30T12:06:54Z</time>
      </trkpt>
      <trkpt lat="46.99023" lon="7.1036">
        <ele>432.6</ele>
        <time>2022-09-30T12:06:55Z</time>
      </trkpt>
      <trkpt lat="46.99028" lon="7.10358">
        <ele>432.7</ele>
        <time>2022-09-30T12:06:56Z</time>
      </trkpt>
      <trkpt lat="46.99032" lon="7.10357">
        <ele>432.8</ele>
        <time>2022-09-30T12:06:57Z</time>
      </trkpt>
      <trkpt lat="46.99036" lon="7.10358">
        <ele>432.8</ele>
        <time>2022-09-30T12:06:58Z</time>
      </trkpt>
      <trkpt lat="46.9904" lon="7.1036">
        <ele>432.8</ele>
        <time>2022-09-30T12:06:59Z</time>
      </trkpt>
      <trkpt lat="46.99043" lon="7.10363">
        <ele>432.8</ele>
        <time>2022-09-30T12:07:00Z</time>
      </trkpt>
      <trkpt lat="46.99047" lon="7.10366">
        <ele>432.8</ele>
        <time>2022-09-30T12:07:01Z</time>
      </trkpt>
      <trkpt lat="46.9905" lon="7.10368">
        <ele>432.8</ele>
        <time>2022-09-30T12:07:02Z</time>
      </trkpt>
      <trkpt lat="46.99053" lon="7.10371">
        <ele>432.8</ele>
        <time>2022-09-30T12:07:03Z</time>
      </trkpt>
      <trkpt lat="46.99057" lon="7.10372">
        <ele>432.8</ele>
        <time>2022-09-30T12:07:04Z</time>
      </trkpt>
      <trkpt lat="46.99061" lon="7.10373">
        <ele>432.8</ele>
        <time>2022-09-30T12:07:05Z</time>
      </trkpt>
      <trkpt lat="46.99066" lon="7.10373">
        <ele>432.7</ele>
        <time>2022-09-30T12:07:06Z</time>
      </trkpt>
      <trkpt lat="46.9907" lon="7.10373">
        <ele>432.7</ele>
        <time>2022-09-30T12:07:07Z</time>
      </trkpt>
      <trkpt lat="46.99075" lon="7.10371">
        <ele>432.7</ele>
        <time>2022-09-30T12:07:08Z</time>
      </trkpt>
      <trkpt lat="46.99079" lon="7.10369">
        <ele>432.6</ele>
        <time>2022-09-30T12:07:09Z</time>
      </trkpt>
      <trkpt lat="46.99084" lon="7.10368">
        <ele>432.6</ele>
        <time>2022-09-30T12:07:10Z</time>
      </trkpt>
      <trkpt lat="46.99089" lon="7.10367">
        <ele>432.6</ele>
        <time>2022-09-30T12:07:11Z</time>
      </trkpt>
      <trkpt lat="46.99094" lon="7.10365">
        <ele>432.6</ele>
        <time>2022-09-30T12:07:12Z</time>
      </trkpt>
      <trkpt lat="46.99098" lon="7.10364">
        <ele>432.5</ele>
        <time>2022-09-30T12:07:13Z</time>
      </trkpt>
      <trkpt lat="46.99103" lon="7.10362">
        <ele>432.5</ele>
        <time>2022-09-30T12:07:14Z</time>
      </trkpt>
      <trkpt lat="46.99108" lon="7.10359">
        <ele>432.5</ele>
        <time>2022-09-30T12:07:15Z</time>
      </trkpt>
      <trkpt lat="46.99112" lon="7.10357">
        <ele>432.5</ele>
        <time>2022-09-30T12:07:16Z</time>
      </trkpt>
      <trkpt lat="46.99117" lon="7.10355">
        <ele>432.5</ele>
        <time>2022-09-30T12:07:17Z</time>
      </trkpt>
      <trkpt lat="46.99122" lon="7.10353">
        <ele>432.5</ele>
        <time>2022-09-30T12:07:18Z</time>
      </trkpt>
      <trkpt lat="46.99127" lon="7.10351">
        <ele>432.5</ele>
        <time>2022-09-30T12:07:19Z</time>
      </trkpt>
      <trkpt lat="46.99132" lon="7.10349">
        <ele>432.5</ele>
        <time>2022-09-30T12:07:20Z</time>
      </trkpt>
      <trkpt lat="46.99137" lon="7.10347">
        <ele>432.5</ele>
        <time>2022-09-30T12:07:21Z</time>
      </trkpt>
      <trkpt lat="46.99142" lon="7.10346">
        <ele>432.5</ele>
        <time>2022-09-30T12:07:22Z</time>
      </trkpt>
      <trkpt lat="46.99147" lon="7.10343">
        <ele>432.5</ele>
        <time>2022-09-30T12:07:23Z</time>
      </trkpt>
      <trkpt lat="46.99152" lon="7.10341">
        <ele>432.4</ele>
        <time>2022-09-30T12:07:24Z</time>
      </trkpt>
      <trkpt lat="46.99157" lon="7.1034">
        <ele>432.4</ele>
        <time>2022-09-30T12:07:25Z</time>
      </trkpt>
      <trkpt lat="46.99162" lon="7.10338">
        <ele>432.4</ele>
        <time>2022-09-30T12:07:26Z</time>
      </trkpt>
      <trkpt lat="46.99167" lon="7.10335">
        <ele>432.4</ele>
        <time>2022-09-30T12:07:27Z</time>
      </trkpt>
      <trkpt lat="46.99172" lon="7.10333">
        <ele>432.4</ele>
        <time>2022-09-30T12:07:28Z</time>
      </trkpt>
      <trkpt lat="46.99177" lon="7.10332">
        <ele>432.4</ele>
        <time>2022-09-30T12:07:29Z</time>
      </trkpt>
      <trkpt lat="46.99181" lon="7.1033">
        <ele>432.4</ele>
        <time>2022-09-30T12:07:30Z</time>
      </trkpt>
      <trkpt lat="46.99186" lon="7.10328">
        <ele>432.4</ele>
        <time>2022-09-30T12:07:31Z</time>
      </trkpt>
      <trkpt lat="46.99191" lon="7.10326">
        <ele>432.4</ele>
        <time>2022-09-30T12:07:32Z</time>
      </trkpt>
      <trkpt lat="46.99196" lon="7.10324">
        <ele>432.5</ele>
        <time>2022-09-30T12:07:33Z</time>
      </trkpt>
      <trkpt lat="46.99201" lon="7.10322">
        <ele>432.5</ele>
        <time>2022-09-30T12:07:34Z</time>
      </trkpt>
      <trkpt lat="46.99206" lon="7.1032">
        <ele>432.5</ele>
        <time>2022-09-30T12:07:35Z</time>
      </trkpt>
      <trkpt lat="46.99211" lon="7.10318">
        <ele>432.6</ele>
        <time>2022-09-30T12:07:36Z</time>
      </trkpt>
      <trkpt lat="46.99215" lon="7.10316">
        <ele>432.6</ele>
        <time>2022-09-30T12:07:37Z</time>
      </trkpt>
      <trkpt lat="46.99219" lon="7.10315">
        <ele>432.7</ele>
        <time>2022-09-30T12:07:38Z</time>
      </trkpt>
      <trkpt lat="46.99222" lon="7.10314">
        <ele>432.7</ele>
        <time>2022-09-30T12:07:39Z</time>
      </trkpt>
      <trkpt lat="46.99225" lon="7.10314">
        <ele>432.7</ele>
        <time>2022-09-30T12:07:40Z</time>
      </trkpt>
      <trkpt lat="46.99228" lon="7.10314">
        <ele>432.7</ele>
        <time>2022-09-30T12:07:41Z</time>
      </trkpt>
      <trkpt lat="46.99232" lon="7.10316">
        <ele>432.7</ele>
        <time>2022-09-30T12:07:42Z</time>
      </trkpt>
      <trkpt lat="46.99235" lon="7.10319">
        <ele>432.4</ele>
        <time>2022-09-30T12:07:43Z</time>
      </trkpt>
      <trkpt lat="46.99237" lon="7.10322">
        <ele>432.4</ele>
        <time>2022-09-30T12:07:44Z</time>
      </trkpt>
      <trkpt lat="46.99239" lon="7.10326">
        <ele>432.3</ele>
        <time>2022-09-30T12:07:45Z</time>
      </trkpt>
      <trkpt lat="46.9924" lon="7.1033">
        <ele>432.3</ele>
        <time>2022-09-30T12:07:46Z</time>
      </trkpt>
      <trkpt lat="46.9924" lon="7.10336">
        <ele>432.2</ele>
        <time>2022-09-30T12:07:47Z</time>
      </trkpt>
      <trkpt lat="46.99241" lon="7.10342">
        <ele>432.2</ele>
        <time>2022-09-30T12:07:48Z</time>
      </trkpt>
      <trkpt lat="46.99242" lon="7.10348">
        <ele>432.1</ele>
        <time>2022-09-30T12:07:49Z</time>
      </trkpt>
      <trkpt lat="46.99243" lon="7.10354">
        <ele>432.1</ele>
        <time>2022-09-30T12:07:50Z</time>
      </trkpt>
      <trkpt lat="46.99244" lon="7.1036">
        <ele>432</ele>
        <time>2022-09-30T12:07:51Z</time>
      </trkpt>
      <trkpt lat="46.99246" lon="7.10366">
        <ele>432</ele>
        <time>2022-09-30T12:07:52Z</time>
      </trkpt>
      <trkpt lat="46.99247" lon="7.10373">
        <ele>431.9</ele>
        <time>2022-09-30T12:07:53Z</time>
      </trkpt>
      <trkpt lat="46.99249" lon="7.10379">
        <ele>431.9</ele>
        <time>2022-09-30T12:07:54Z</time>
      </trkpt>
      <trkpt lat="46.9925" lon="7.10386">
        <ele>431.8</ele>
        <time>2022-09-30T12:07:55Z</time>
      </trkpt>
      <trkpt lat="46.99251" lon="7.10393">
        <ele>431.8</ele>
        <time>2022-09-30T12:07:56Z</time>
      </trkpt>
      <trkpt lat="46.99252" lon="7.104">
        <ele>431.8</ele>
        <time>2022-09-30T12:07:57Z</time>
      </trkpt>
      <trkpt lat="46.99254" lon="7.10407">
        <ele>431.7</ele>
        <time>2022-09-30T12:07:58Z</time>
      </trkpt>
      <trkpt lat="46.99255" lon="7.10413">
        <ele>431.7</ele>
        <time>2022-09-30T12:07:59Z</time>
      </trkpt>
      <trkpt lat="46.99256" lon="7.10421">
        <ele>431.7</ele>
        <time>2022-09-30T12:08:00Z</time>
      </trkpt>
      <trkpt lat="46.99257" lon="7.10428">
        <ele>431.7</ele>
        <time>2022-09-30T12:08:01Z</time>
      </trkpt>
      <trkpt lat="46.99259" lon="7.10435">
        <ele>431.7</ele>
        <time>2022-09-30T12:08:02Z</time>
      </trkpt>
      <trkpt lat="46.99261" lon="7.10442">
        <ele>431.7</ele>
        <time>2022-09-30T12:08:03Z</time>
      </trkpt>
      <trkpt lat="46.99262" lon="7.10448">
        <ele>431.7</ele>
        <time>2022-09-30T12:08:04Z</time>
      </trkpt>
      <trkpt lat="46.99263" lon="7.10455">
        <ele>431.7</ele>
        <time>2022-09-30T12:08:05Z</time>
      </trkpt>
      <trkpt lat="46.99265" lon="7.10462">
        <ele>431.7</ele>
        <time>2022-09-30T12:08:06Z</time>
      </trkpt>
      <trkpt lat="46.99266" lon="7.1047">
        <ele>431.7</ele>
        <time>2022-09-30T12:08:07Z</time>
      </trkpt>
      <trkpt lat="46.99268" lon="7.10477">
        <ele>431.8</ele>
        <time>2022-09-30T12:08:08Z</time>
      </trkpt>
      <trkpt lat="46.99269" lon="7.10484">
        <ele>431.8</ele>
        <time>2022-09-30T12:08:09Z</time>
      </trkpt>
      <trkpt lat="46.99269" lon="7.10491">
        <ele>431.9</ele>
        <time>2022-09-30T12:08:10Z</time>
      </trkpt>
      <trkpt lat="46.9927" lon="7.10499">
        <ele>431.9</ele>
        <time>2022-09-30T12:08:11Z</time>
      </trkpt>
      <trkpt lat="46.99272" lon="7.10505">
        <ele>432</ele>
        <time>2022-09-30T12:08:12Z</time>
      </trkpt>
      <trkpt lat="46.99273" lon="7.10512">
        <ele>432</ele>
        <time>2022-09-30T12:08:13Z</time>
      </trkpt>
      <trkpt lat="46.99274" lon="7.10519">
        <ele>432</ele>
        <time>2022-09-30T12:08:14Z</time>
      </trkpt>
      <trkpt lat="46.99276" lon="7.10526">
        <ele>432.1</ele>
        <time>2022-09-30T12:08:15Z</time>
      </trkpt>
      <trkpt lat="46.99277" lon="7.10533">
        <ele>432.1</ele>
        <time>2022-09-30T12:08:16Z</time>
      </trkpt>
      <trkpt lat="46.99278" lon="7.1054">
        <ele>432.1</ele>
        <time>2022-09-30T12:08:17Z</time>
      </trkpt>
      <trkpt lat="46.9928" lon="7.10547">
        <ele>432.1</ele>
        <time>2022-09-30T12:08:18Z</time>
      </trkpt>
      <trkpt lat="46.99281" lon="7.10554">
        <ele>432.2</ele>
        <time>2022-09-30T12:08:19Z</time>
      </trkpt>
      <trkpt lat="46.99282" lon="7.10561">
        <ele>432.2</ele>
        <time>2022-09-30T12:08:20Z</time>
      </trkpt>
      <trkpt lat="46.99283" lon="7.10568">
        <ele>432.2</ele>
        <time>2022-09-30T12:08:21Z</time>
      </trkpt>
      <trkpt lat="46.99285" lon="7.10575">
        <ele>432.2</ele>
        <time>2022-09-30T12:08:22Z</time>
      </trkpt>
      <trkpt lat="46.99286" lon="7.10581">
        <ele>432.2</ele>
        <time>2022-09-30T12:08:23Z</time>
      </trkpt>
      <trkpt lat="46.99287" lon="7.10589">
        <ele>432.2</ele>
        <time>2022-09-30T12:08:24Z</time>
      </trkpt>
      <trkpt lat="46.99288" lon="7.10596">
        <ele>432.2</ele>
        <time>2022-09-30T12:08:25Z</time>
      </trkpt>
      <trkpt lat="46.9929" lon="7.10603">
        <ele>432.2</ele>
        <time>2022-09-30T12:08:26Z</time>
      </trkpt>
      <trkpt lat="46.99291" lon="7.1061">
        <ele>432.2</ele>
        <time>2022-09-30T12:08:27Z</time>
      </trkpt>
      <trkpt lat="46.99292" lon="7.10617">
        <ele>432.2</ele>
        <time>2022-09-30T12:08:28Z</time>
      </trkpt>
      <trkpt lat="46.99294" lon="7.10624">
        <ele>432.2</ele>
        <time>2022-09-30T12:08:29Z</time>
      </trkpt>
      <trkpt lat="46.99295" lon="7.10631">
        <ele>432.3</ele>
        <time>2022-09-30T12:08:30Z</time>
      </trkpt>
      <trkpt lat="46.99296" lon="7.10638">
        <ele>432.3</ele>
        <time>2022-09-30T12:08:31Z</time>
      </trkpt>
      <trkpt lat="46.99297" lon="7.10645">
        <ele>432.3</ele>
        <time>2022-09-30T12:08:32Z</time>
      </trkpt>
      <trkpt lat="46.99299" lon="7.10652">
        <ele>432.4</ele>
        <time>2022-09-30T12:08:33Z</time>
      </trkpt>
      <trkpt lat="46.993" lon="7.10659">
        <ele>432.5</ele>
        <time>2022-09-30T12:08:34Z</time>
      </trkpt>
      <trkpt lat="46.99301" lon="7.10666">
        <ele>432.6</ele>
        <time>2022-09-30T12:08:35Z</time>
      </trkpt>
      <trkpt lat="46.99302" lon="7.10671">
        <ele>432.6</ele>
        <time>2022-09-30T12:08:36Z</time>
      </trkpt>
      <trkpt lat="46.99303" lon="7.10677">
        <ele>432.7</ele>
        <time>2022-09-30T12:08:37Z</time>
      </trkpt>
      <trkpt lat="46.99304" lon="7.10683">
        <ele>432.8</ele>
        <time>2022-09-30T12:08:38Z</time>
      </trkpt>
      <trkpt lat="46.99306" lon="7.10689">
        <ele>432.9</ele>
        <time>2022-09-30T12:08:39Z</time>
      </trkpt>
      <trkpt lat="46.99307" lon="7.10694">
        <ele>433</ele>
        <time>2022-09-30T12:08:40Z</time>
      </trkpt>
      <trkpt lat="46.99308" lon="7.10699">
        <ele>433.1</ele>
        <time>2022-09-30T12:08:41Z</time>
      </trkpt>
      <trkpt lat="46.99309" lon="7.10704">
        <ele>433.2</ele>
        <time>2022-09-30T12:08:42Z</time>
      </trkpt>
      <trkpt lat="46.9931" lon="7.10709">
        <ele>433.2</ele>
        <time>2022-09-30T12:08:43Z</time>
      </trkpt>
      <trkpt lat="46.99311" lon="7.10713">
        <ele>433.2</ele>
        <time>2022-09-30T12:08:44Z</time>
      </trkpt>
      <trkpt lat="46.99312" lon="7.10717">
        <ele>433.2</ele>
        <time>2022-09-30T12:08:45Z</time>
      </trkpt>
      <trkpt lat="46.99313" lon="7.10723">
        <ele>433.2</ele>
        <time>2022-09-30T12:08:46Z</time>
      </trkpt>
      <trkpt lat="46.99313" lon="7.10724">
        <ele>433.2</ele>
        <time>2022-09-30T12:08:47Z</time>
      </trkpt>
      <trkpt lat="46.99314" lon="7.1073">
        <ele>433.2</ele>
        <time>2022-09-30T12:08:48Z</time>
      </trkpt>
      <trkpt lat="46.99314" lon="7.10731">
        <ele>433.2</ele>
        <time>2022-09-30T12:08:49Z</time>
      </trkpt>
      <trkpt lat="46.99315" lon="7.10735">
        <ele>433.2</ele>
        <time>2022-09-30T12:08:50Z</time>
      </trkpt>
      <trkpt lat="46.99315" lon="7.10741">
        <ele>433.2</ele>
        <time>2022-09-30T12:08:51Z</time>
      </trkpt>
      <trkpt lat="46.99316" lon="7.10742">
        <ele>433.2</ele>
        <time>2022-09-30T12:08:52Z</time>
      </trkpt>
      <trkpt lat="46.99317" lon="7.10747">
        <ele>433.2</ele>
        <time>2022-09-30T12:08:53Z</time>
      </trkpt>
      <trkpt lat="46.99317" lon="7.10749">
        <ele>433.2</ele>
        <time>2022-09-30T12:08:54Z</time>
      </trkpt>
      <trkpt lat="46.99319" lon="7.10753">
        <ele>433.2</ele>
        <time>2022-09-30T12:08:55Z</time>
      </trkpt>
      <trkpt lat="46.99321" lon="7.10755">
        <ele>433.2</ele>
        <time>2022-09-30T12:08:56Z</time>
      </trkpt>
      <trkpt lat="46.99324" lon="7.10757">
        <ele>433.2</ele>
        <time>2022-09-30T12:08:57Z</time>
      </trkpt>
      <trkpt lat="46.99327" lon="7.10758">
        <ele>432.6</ele>
        <time>2022-09-30T12:08:58Z</time>
      </trkpt>
      <trkpt lat="46.9933" lon="7.10757">
        <ele>432.5</ele>
        <time>2022-09-30T12:08:59Z</time>
      </trkpt>
      <trkpt lat="46.99335" lon="7.10755">
        <ele>432.3</ele>
        <time>2022-09-30T12:09:00Z</time>
      </trkpt>
      <trkpt lat="46.99339" lon="7.10751">
        <ele>432.2</ele>
        <time>2022-09-30T12:09:01Z</time>
      </trkpt>
      <trkpt lat="46.99343" lon="7.10747">
        <ele>432.1</ele>
        <time>2022-09-30T12:09:02Z</time>
      </trkpt>
      <trkpt lat="46.99347" lon="7.10744">
        <ele>432</ele>
        <time>2022-09-30T12:09:03Z</time>
      </trkpt>
      <trkpt lat="46.99352" lon="7.10741">
        <ele>432</ele>
        <time>2022-09-30T12:09:04Z</time>
      </trkpt>
      <trkpt lat="46.99356" lon="7.10738">
        <ele>431.9</ele>
        <time>2022-09-30T12:09:05Z</time>
      </trkpt>
      <trkpt lat="46.99361" lon="7.10735">
        <ele>431.9</ele>
        <time>2022-09-30T12:09:06Z</time>
      </trkpt>
      <trkpt lat="46.99366" lon="7.10732">
        <ele>431.9</ele>
        <time>2022-09-30T12:09:07Z</time>
      </trkpt>
      <trkpt lat="46.9937" lon="7.10729">
        <ele>431.9</ele>
        <time>2022-09-30T12:09:08Z</time>
      </trkpt>
      <trkpt lat="46.99375" lon="7.10727">
        <ele>431.9</ele>
        <time>2022-09-30T12:09:09Z</time>
      </trkpt>
      <trkpt lat="46.9938" lon="7.10724">
        <ele>431.9</ele>
        <time>2022-09-30T12:09:10Z</time>
      </trkpt>
      <trkpt lat="46.99385" lon="7.10722">
        <ele>431.9</ele>
        <time>2022-09-30T12:09:11Z</time>
      </trkpt>
      <trkpt lat="46.9939" lon="7.10721">
        <ele>431.9</ele>
        <time>2022-09-30T12:09:12Z</time>
      </trkpt>
      <trkpt lat="46.99395" lon="7.1072">
        <ele>431.9</ele>
        <time>2022-09-30T12:09:13Z</time>
      </trkpt>
      <trkpt lat="46.994" lon="7.10717">
        <ele>431.9</ele>
        <time>2022-09-30T12:09:14Z</time>
      </trkpt>
      <trkpt lat="46.99406" lon="7.10715">
        <ele>432</ele>
        <time>2022-09-30T12:09:15Z</time>
      </trkpt>
      <trkpt lat="46.99411" lon="7.10713">
        <ele>432</ele>
        <time>2022-09-30T12:09:16Z</time>
      </trkpt>
      <trkpt lat="46.99416" lon="7.10711">
        <ele>432</ele>
        <time>2022-09-30T12:09:17Z</time>
      </trkpt>
      <trkpt lat="46.99421" lon="7.10709">
        <ele>432</ele>
        <time>2022-09-30T12:09:18Z</time>
      </trkpt>
      <trkpt lat="46.99426" lon="7.10706">
        <ele>432</ele>
        <time>2022-09-30T12:09:19Z</time>
      </trkpt>
      <trkpt lat="46.99431" lon="7.10704">
        <ele>432</ele>
        <time>2022-09-30T12:09:20Z</time>
      </trkpt>
      <trkpt lat="46.99436" lon="7.10702">
        <ele>432</ele>
        <time>2022-09-30T12:09:21Z</time>
      </trkpt>
      <trkpt lat="46.99441" lon="7.10701">
        <ele>432.1</ele>
        <time>2022-09-30T12:09:22Z</time>
      </trkpt>
      <trkpt lat="46.99446" lon="7.10699">
        <ele>432.1</ele>
        <time>2022-09-30T12:09:23Z</time>
      </trkpt>
      <trkpt lat="46.99452" lon="7.10697">
        <ele>432.2</ele>
        <time>2022-09-30T12:09:24Z</time>
      </trkpt>
      <trkpt lat="46.99457" lon="7.10695">
        <ele>432.2</ele>
        <time>2022-09-30T12:09:25Z</time>
      </trkpt>
      <trkpt lat="46.99462" lon="7.10692">
        <ele>432.2</ele>
        <time>2022-09-30T12:09:26Z</time>
      </trkpt>
      <trkpt lat="46.99467" lon="7.1069">
        <ele>432.3</ele>
        <time>2022-09-30T12:09:27Z</time>
      </trkpt>
      <trkpt lat="46.99473" lon="7.10688">
        <ele>432.3</ele>
        <time>2022-09-30T12:09:28Z</time>
      </trkpt>
      <trkpt lat="46.99478" lon="7.10686">
        <ele>432.3</ele>
        <time>2022-09-30T12:09:29Z</time>
      </trkpt>
      <trkpt lat="46.99483" lon="7.10684">
        <ele>432.4</ele>
        <time>2022-09-30T12:09:30Z</time>
      </trkpt>
      <trkpt lat="46.99488" lon="7.10682">
        <ele>432.4</ele>
        <time>2022-09-30T12:09:31Z</time>
      </trkpt>
      <trkpt lat="46.99493" lon="7.10681">
        <ele>432.5</ele>
        <time>2022-09-30T12:09:32Z</time>
      </trkpt>
      <trkpt lat="46.99499" lon="7.10678">
        <ele>432.6</ele>
        <time>2022-09-30T12:09:33Z</time>
      </trkpt>
      <trkpt lat="46.99504" lon="7.10676">
        <ele>432.7</ele>
        <time>2022-09-30T12:09:34Z</time>
      </trkpt>
      <trkpt lat="46.99508" lon="7.10674">
        <ele>432.8</ele>
        <time>2022-09-30T12:09:35Z</time>
      </trkpt>
      <trkpt lat="46.99513" lon="7.10672">
        <ele>432.9</ele>
        <time>2022-09-30T12:09:36Z</time>
      </trkpt>
      <trkpt lat="46.99518" lon="7.1067">
        <ele>433</ele>
        <time>2022-09-30T12:09:37Z</time>
      </trkpt>
      <trkpt lat="46.99523" lon="7.10668">
        <ele>433.2</ele>
        <time>2022-09-30T12:09:38Z</time>
      </trkpt>
      <trkpt lat="46.99527" lon="7.10666">
        <ele>433.3</ele>
        <time>2022-09-30T12:09:39Z</time>
      </trkpt>
      <trkpt lat="46.99532" lon="7.10664">
        <ele>433.4</ele>
        <time>2022-09-30T12:09:40Z</time>
      </trkpt>
      <trkpt lat="46.99536" lon="7.10662">
        <ele>433.4</ele>
        <time>2022-09-30T12:09:41Z</time>
      </trkpt>
      <trkpt lat="46.99539" lon="7.1066">
        <ele>433.4</ele>
        <time>2022-09-30T12:09:42Z</time>
      </trkpt>
      <trkpt lat="46.99543" lon="7.10658">
        <ele>433.4</ele>
        <time>2022-09-30T12:09:43Z</time>
      </trkpt>
      <trkpt lat="46.99546" lon="7.10657">
        <ele>433.4</ele>
        <time>2022-09-30T12:09:44Z</time>
      </trkpt>
      <trkpt lat="46.99549" lon="7.10656">
        <ele>433.4</ele>
        <time>2022-09-30T12:09:45Z</time>
      </trkpt>
      <trkpt lat="46.99552" lon="7.10655">
        <ele>433.4</ele>
        <time>2022-09-30T12:09:46Z</time>
      </trkpt>
      <trkpt lat="46.99555" lon="7.10653">
        <ele>433.4</ele>
        <time>2022-09-30T12:09:47Z</time>
      </trkpt>
      <trkpt lat="46.99558" lon="7.10653">
        <ele>433.3</ele>
        <time>2022-09-30T12:09:48Z</time>
      </trkpt>
      <trkpt lat="46.99561" lon="7.10653">
        <ele>433.3</ele>
        <time>2022-09-30T12:09:49Z</time>
      </trkpt>
      <trkpt lat="46.99564" lon="7.10654">
        <ele>433.3</ele>
        <time>2022-09-30T12:09:50Z</time>
      </trkpt>
      <trkpt lat="46.99567" lon="7.10657">
        <ele>433.2</ele>
        <time>2022-09-30T12:09:51Z</time>
      </trkpt>
      <trkpt lat="46.99569" lon="7.10661">
        <ele>433.2</ele>
        <time>2022-09-30T12:09:52Z</time>
      </trkpt>
      <trkpt lat="46.9957" lon="7.10666">
        <ele>433.2</ele>
        <time>2022-09-30T12:09:53Z</time>
      </trkpt>
      <trkpt lat="46.9957" lon="7.10672">
        <ele>433.1</ele>
        <time>2022-09-30T12:09:54Z</time>
      </trkpt>
      <trkpt lat="46.99569" lon="7.10679">
        <ele>433.1</ele>
        <time>2022-09-30T12:09:55Z</time>
      </trkpt>
      <trkpt lat="46.99568" lon="7.10685">
        <ele>433.1</ele>
        <time>2022-09-30T12:09:56Z</time>
      </trkpt>
      <trkpt lat="46.99566" lon="7.10692">
        <ele>433.2</ele>
        <time>2022-09-30T12:09:57Z</time>
      </trkpt>
      <trkpt lat="46.99566" lon="7.10699">
        <ele>433.2</ele>
        <time>2022-09-30T12:09:58Z</time>
      </trkpt>
      <trkpt lat="46.99564" lon="7.10707">
        <ele>433.2</ele>
        <time>2022-09-30T12:09:59Z</time>
      </trkpt>
      <trkpt lat="46.99565" lon="7.10714">
        <ele>433.1</ele>
        <time>2022-09-30T12:10:00Z</time>
      </trkpt>
      <trkpt lat="46.99564" lon="7.10722">
        <ele>433.1</ele>
        <time>2022-09-30T12:10:01Z</time>
      </trkpt>
      <trkpt lat="46.99563" lon="7.10729">
        <ele>433.1</ele>
        <time>2022-09-30T12:10:02Z</time>
      </trkpt>
      <trkpt lat="46.99563" lon="7.10736">
        <ele>433.1</ele>
        <time>2022-09-30T12:10:03Z</time>
      </trkpt>
      <trkpt lat="46.99563" lon="7.10744">
        <ele>433.1</ele>
        <time>2022-09-30T12:10:04Z</time>
      </trkpt>
      <trkpt lat="46.99563" lon="7.10751">
        <ele>433.1</ele>
        <time>2022-09-30T12:10:05Z</time>
      </trkpt>
      <trkpt lat="46.99563" lon="7.10758">
        <ele>433.1</ele>
        <time>2022-09-30T12:10:06Z</time>
      </trkpt>
      <trkpt lat="46.99564" lon="7.10765">
        <ele>433.1</ele>
        <time>2022-09-30T12:10:07Z</time>
      </trkpt>
      <trkpt lat="46.99564" lon="7.10772">
        <ele>433.1</ele>
        <time>2022-09-30T12:10:08Z</time>
      </trkpt>
      <trkpt lat="46.99564" lon="7.10779">
        <ele>433.2</ele>
        <time>2022-09-30T12:10:09Z</time>
      </trkpt>
      <trkpt lat="46.99564" lon="7.10786">
        <ele>433.2</ele>
        <time>2022-09-30T12:10:10Z</time>
      </trkpt>
      <trkpt lat="46.99566" lon="7.10792">
        <ele>433.3</ele>
        <time>2022-09-30T12:10:11Z</time>
      </trkpt>
      <trkpt lat="46.99567" lon="7.10799">
        <ele>433.4</ele>
        <time>2022-09-30T12:10:12Z</time>
      </trkpt>
      <trkpt lat="46.9957" lon="7.10803">
        <ele>433.4</ele>
        <time>2022-09-30T12:10:13Z</time>
      </trkpt>
      <trkpt lat="46.99573" lon="7.10808">
        <ele>433.5</ele>
        <time>2022-09-30T12:10:14Z</time>
      </trkpt>
      <trkpt lat="46.99576" lon="7.10812">
        <ele>433.6</ele>
        <time>2022-09-30T12:10:15Z</time>
      </trkpt>
      <trkpt lat="46.99579" lon="7.10816">
        <ele>433.7</ele>
        <time>2022-09-30T12:10:16Z</time>
      </trkpt>
      <trkpt lat="46.99582" lon="7.10819">
        <ele>433.7</ele>
        <time>2022-09-30T12:10:17Z</time>
      </trkpt>
      <trkpt lat="46.99585" lon="7.10823">
        <ele>433.8</ele>
        <time>2022-09-30T12:10:18Z</time>
      </trkpt>
      <trkpt lat="46.99587" lon="7.10826">
        <ele>433.8</ele>
        <time>2022-09-30T12:10:19Z</time>
      </trkpt>
      <trkpt lat="46.99589" lon="7.1083">
        <ele>433.9</ele>
        <time>2022-09-30T12:10:20Z</time>
      </trkpt>
      <trkpt lat="46.9959" lon="7.10831">
        <ele>433.9</ele>
        <time>2022-09-30T12:10:21Z</time>
      </trkpt>
      <trkpt lat="46.99592" lon="7.10835">
        <ele>434</ele>
        <time>2022-09-30T12:10:22Z</time>
      </trkpt>
      <trkpt lat="46.99593" lon="7.10836">
        <ele>434</ele>
        <time>2022-09-30T12:10:23Z</time>
      </trkpt>
      <trkpt lat="46.99593" lon="7.10838">
        <ele>434</ele>
        <time>2022-09-30T12:10:24Z</time>
      </trkpt>
      <trkpt lat="46.99595" lon="7.1084">
        <ele>434.1</ele>
        <time>2022-09-30T12:10:25Z</time>
      </trkpt>
      <trkpt lat="46.99597" lon="7.10844">
        <ele>434.1</ele>
        <time>2022-09-30T12:10:26Z</time>
      </trkpt>
      <trkpt lat="46.99598" lon="7.10845">
        <ele>434.2</ele>
        <time>2022-09-30T12:10:27Z</time>
      </trkpt>
      <trkpt lat="46.99601" lon="7.10845">
        <ele>434.2</ele>
        <time>2022-09-30T12:10:28Z</time>
      </trkpt>
      <trkpt lat="46.99605" lon="7.10845">
        <ele>434.3</ele>
        <time>2022-09-30T12:10:29Z</time>
      </trkpt>
      <trkpt lat="46.99609" lon="7.10845">
        <ele>434.3</ele>
        <time>2022-09-30T12:10:30Z</time>
      </trkpt>
      <trkpt lat="46.99613" lon="7.10844">
        <ele>434.3</ele>
        <time>2022-09-30T12:10:31Z</time>
      </trkpt>
      <trkpt lat="46.99615" lon="7.1084">
        <ele>434.3</ele>
        <time>2022-09-30T12:10:32Z</time>
      </trkpt>
      <trkpt lat="46.99617" lon="7.10836">
        <ele>434.4</ele>
        <time>2022-09-30T12:10:33Z</time>
      </trkpt>
      <trkpt lat="46.99621" lon="7.10833">
        <ele>434.4</ele>
        <time>2022-09-30T12:10:34Z</time>
      </trkpt>
      <trkpt lat="46.99624" lon="7.1083">
        <ele>434.4</ele>
        <time>2022-09-30T12:10:35Z</time>
      </trkpt>
      <trkpt lat="46.99628" lon="7.10829">
        <ele>434.5</ele>
        <time>2022-09-30T12:10:36Z</time>
      </trkpt>
      <trkpt lat="46.99633" lon="7.10828">
        <ele>434.5</ele>
        <time>2022-09-30T12:10:37Z</time>
      </trkpt>
      <trkpt lat="46.99636" lon="7.10826">
        <ele>434.5</ele>
        <time>2022-09-30T12:10:38Z</time>
      </trkpt>
      <trkpt lat="46.9964" lon="7.10825">
        <ele>434.6</ele>
        <time>2022-09-30T12:10:39Z</time>
      </trkpt>
      <trkpt lat="46.99644" lon="7.10824">
        <ele>434.6</ele>
        <time>2022-09-30T12:10:40Z</time>
      </trkpt>
      <trkpt lat="46.99648" lon="7.10824">
        <ele>434.7</ele>
        <time>2022-09-30T12:10:41Z</time>
      </trkpt>
      <trkpt lat="46.99651" lon="7.10823">
        <ele>434.7</ele>
        <time>2022-09-30T12:10:42Z</time>
      </trkpt>
      <trkpt lat="46.99655" lon="7.10822">
        <ele>434.8</ele>
        <time>2022-09-30T12:10:43Z</time>
      </trkpt>
      <trkpt lat="46.9966" lon="7.10823">
        <ele>434.9</ele>
        <time>2022-09-30T12:10:44Z</time>
      </trkpt>
      <trkpt lat="46.99663" lon="7.10823">
        <ele>434.9</ele>
        <time>2022-09-30T12:10:45Z</time>
      </trkpt>
      <trkpt lat="46.99667" lon="7.10822">
        <ele>435</ele>
        <time>2022-09-30T12:10:46Z</time>
      </trkpt>
      <trkpt lat="46.99671" lon="7.10822">
        <ele>435.1</ele>
        <time>2022-09-30T12:10:47Z</time>
      </trkpt>
      <trkpt lat="46.99675" lon="7.10822">
        <ele>435.1</ele>
        <time>2022-09-30T12:10:48Z</time>
      </trkpt>
      <trkpt lat="46.99679" lon="7.10823">
        <ele>435.2</ele>
        <time>2022-09-30T12:10:49Z</time>
      </trkpt>
      <trkpt lat="46.99683" lon="7.10823">
        <ele>435.3</ele>
        <time>2022-09-30T12:10:50Z</time>
      </trkpt>
      <trkpt lat="46.99686" lon="7.10823">
        <ele>435.3</ele>
        <time>2022-09-30T12:10:51Z</time>
      </trkpt>
      <trkpt lat="46.9969" lon="7.10823">
        <ele>435.4</ele>
        <time>2022-09-30T12:10:52Z</time>
      </trkpt>
      <trkpt lat="46.99694" lon="7.10823">
        <ele>435.5</ele>
        <time>2022-09-30T12:10:53Z</time>
      </trkpt>
      <trkpt lat="46.99698" lon="7.10823">
        <ele>435.6</ele>
        <time>2022-09-30T12:10:54Z</time>
      </trkpt>
      <trkpt lat="46.99701" lon="7.10824">
        <ele>435.7</ele>
        <time>2022-09-30T12:10:55Z</time>
      </trkpt>
      <trkpt lat="46.99705" lon="7.10824">
        <ele>435.7</ele>
        <time>2022-09-30T12:10:56Z</time>
      </trkpt>
      <trkpt lat="46.99709" lon="7.10824">
        <ele>435.8</ele>
        <time>2022-09-30T12:10:57Z</time>
      </trkpt>
      <trkpt lat="46.99712" lon="7.10825">
        <ele>435.9</ele>
        <time>2022-09-30T12:10:58Z</time>
      </trkpt>
      <trkpt lat="46.99716" lon="7.10825">
        <ele>436</ele>
        <time>2022-09-30T12:10:59Z</time>
      </trkpt>
      <trkpt lat="46.9972" lon="7.10826">
        <ele>436.1</ele>
        <time>2022-09-30T12:11:00Z</time>
      </trkpt>
      <trkpt lat="46.99724" lon="7.10827">
        <ele>436.2</ele>
        <time>2022-09-30T12:11:01Z</time>
      </trkpt>
      <trkpt lat="46.99728" lon="7.10828">
        <ele>436.3</ele>
        <time>2022-09-30T12:11:02Z</time>
      </trkpt>
      <trkpt lat="46.99732" lon="7.10829">
        <ele>436.3</ele>
        <time>2022-09-30T12:11:03Z</time>
      </trkpt>
      <trkpt lat="46.99736" lon="7.10831">
        <ele>436.4</ele>
        <time>2022-09-30T12:11:04Z</time>
      </trkpt>
      <trkpt lat="46.99739" lon="7.10831">
        <ele>436.5</ele>
        <time>2022-09-30T12:11:05Z</time>
      </trkpt>
      <trkpt lat="46.99743" lon="7.10832">
        <ele>436.7</ele>
        <time>2022-09-30T12:11:06Z</time>
      </trkpt>
      <trkpt lat="46.99747" lon="7.10833">
        <ele>436.8</ele>
        <time>2022-09-30T12:11:07Z</time>
      </trkpt>
      <trkpt lat="46.99751" lon="7.10835">
        <ele>436.9</ele>
        <time>2022-09-30T12:11:08Z</time>
      </trkpt>
      <trkpt lat="46.99755" lon="7.10835">
        <ele>437.1</ele>
        <time>2022-09-30T12:11:09Z</time>
      </trkpt>
      <trkpt lat="46.99757" lon="7.10836">
        <ele>437.2</ele>
        <time>2022-09-30T12:11:10Z</time>
      </trkpt>
      <trkpt lat="46.9976" lon="7.10836">
        <ele>437.3</ele>
        <time>2022-09-30T12:11:11Z</time>
      </trkpt>
      <trkpt lat="46.99763" lon="7.10837">
        <ele>437.4</ele>
        <time>2022-09-30T12:11:12Z</time>
      </trkpt>
      <trkpt lat="46.99766" lon="7.10837">
        <ele>437.5</ele>
        <time>2022-09-30T12:11:13Z</time>
      </trkpt>
      <trkpt lat="46.9977" lon="7.10838">
        <ele>437.7</ele>
        <time>2022-09-30T12:11:14Z</time>
      </trkpt>
      <trkpt lat="46.99772" lon="7.10838">
        <ele>437.8</ele>
        <time>2022-09-30T12:11:15Z</time>
      </trkpt>
      <trkpt lat="46.99776" lon="7.10839">
        <ele>437.9</ele>
        <time>2022-09-30T12:11:16Z</time>
      </trkpt>
      <trkpt lat="46.99777" lon="7.10839">
        <ele>437.9</ele>
        <time>2022-09-30T12:11:17Z</time>
      </trkpt>
      <trkpt lat="46.99781" lon="7.10839">
        <ele>438</ele>
        <time>2022-09-30T12:11:18Z</time>
      </trkpt>
      <trkpt lat="46.99782" lon="7.10839">
        <ele>438.1</ele>
        <time>2022-09-30T12:11:19Z</time>
      </trkpt>
      <trkpt lat="46.99785" lon="7.1084">
        <ele>438.1</ele>
        <time>2022-09-30T12:11:20Z</time>
      </trkpt>
      <trkpt lat="46.99788" lon="7.10841">
        <ele>438.2</ele>
        <time>2022-09-30T12:11:21Z</time>
      </trkpt>
      <trkpt lat="46.99789" lon="7.10841">
        <ele>438.2</ele>
        <time>2022-09-30T12:11:22Z</time>
      </trkpt>
      <trkpt lat="46.99792" lon="7.10842">
        <ele>438.3</ele>
        <time>2022-09-30T12:11:23Z</time>
      </trkpt>
      <trkpt lat="46.99793" lon="7.10843">
        <ele>438.4</ele>
        <time>2022-09-30T12:11:24Z</time>
      </trkpt>
      <trkpt lat="46.99796" lon="7.10844">
        <ele>438.4</ele>
        <time>2022-09-30T12:11:25Z</time>
      </trkpt>
      <trkpt lat="46.99797" lon="7.10845">
        <ele>438.5</ele>
        <time>2022-09-30T12:11:26Z</time>
      </trkpt>
      <trkpt lat="46.99798" lon="7.10846">
        <ele>438.5</ele>
        <time>2022-09-30T12:11:27Z</time>
      </trkpt>
      <trkpt lat="46.99799" lon="7.10846">
        <ele>438.5</ele>
        <time>2022-09-30T12:11:28Z</time>
      </trkpt>
      <trkpt lat="46.99799" lon="7.10845">
        <ele>438.5</ele>
        <time>2022-09-30T12:11:29Z</time>
      </trkpt>
      <trkpt lat="46.998" lon="7.10845">
        <ele>438.5</ele>
        <time>2022-09-30T12:11:30Z</time>
      </trkpt>
      <trkpt lat="46.99799" lon="7.10845">
        <ele>438.5</ele>
        <time>2022-09-30T12:11:31Z</time>
      </trkpt>
      <trkpt lat="46.99799" lon="7.10845">
        <ele>438.5</ele>
        <time>2022-09-30T12:11:32Z</time>
      </trkpt>
      <trkpt lat="46.998" lon="7.10845">
        <ele>438.5</ele>
        <time>2022-09-30T12:11:33Z</time>
      </trkpt>
      <trkpt lat="46.998" lon="7.10845">
        <ele>438.5</ele>
        <time>2022-09-30T12:11:34Z</time>
      </trkpt>
      <trkpt lat="46.998" lon="7.10844">
        <ele>438.5</ele>
        <time>2022-09-30T12:11:35Z</time>
      </trkpt>
      <trkpt lat="46.998" lon="7.10844">
        <ele>438.5</ele>
        <time>2022-09-30T12:11:36Z</time>
      </trkpt>
      <trkpt lat="46.99801" lon="7.10844">
        <ele>438.5</ele>
        <time>2022-09-30T12:11:37Z</time>
      </trkpt>
      <trkpt lat="46.99801" lon="7.10845">
        <ele>438.5</ele>
        <time>2022-09-30T12:11:38Z</time>
      </trkpt>
      <trkpt lat="46.99802" lon="7.10844">
        <ele>438.5</ele>
        <time>2022-09-30T12:11:39Z</time>
      </trkpt>
      <trkpt lat="46.99802" lon="7.10844">
        <ele>438.5</ele>
        <time>2022-09-30T12:11:40Z</time>
      </trkpt>
      <trkpt lat="46.99807" lon="7.10828">
        <ele>438.2</ele>
        <time>2022-09-30T12:11:45Z</time>
      </trkpt>
      <trkpt lat="46.99809" lon="7.10823">
        <ele>438.2</ele>
        <time>2022-09-30T12:11:46Z</time>
      </trkpt>
      <trkpt lat="46.9981" lon="7.10819">
        <ele>438.1</ele>
        <time>2022-09-30T12:11:47Z</time>
      </trkpt>
      <trkpt lat="46.99811" lon="7.10813">
        <ele>438</ele>
        <time>2022-09-30T12:11:48Z</time>
      </trkpt>
      <trkpt lat="46.99813" lon="7.10807">
        <ele>437.9</ele>
        <time>2022-09-30T12:11:49Z</time>
      </trkpt>
      <trkpt lat="46.99813" lon="7.10801">
        <ele>437.9</ele>
        <time>2022-09-30T12:11:50Z</time>
      </trkpt>
      <trkpt lat="46.99815" lon="7.10795">
        <ele>437.8</ele>
        <time>2022-09-30T12:11:51Z</time>
      </trkpt>
      <trkpt lat="46.99816" lon="7.10789">
        <ele>437.8</ele>
        <time>2022-09-30T12:11:52Z</time>
      </trkpt>
      <trkpt lat="46.99817" lon="7.10782">
        <ele>437.7</ele>
        <time>2022-09-30T12:11:53Z</time>
      </trkpt>
      <trkpt lat="46.99819" lon="7.10776">
        <ele>437.7</ele>
        <time>2022-09-30T12:11:54Z</time>
      </trkpt>
      <trkpt lat="46.9982" lon="7.10769">
        <ele>437.7</ele>
        <time>2022-09-30T12:11:55Z</time>
      </trkpt>
      <trkpt lat="46.99821" lon="7.10761">
        <ele>437.6</ele>
        <time>2022-09-30T12:11:56Z</time>
      </trkpt>
      <trkpt lat="46.99823" lon="7.10754">
        <ele>437.6</ele>
        <time>2022-09-30T12:11:57Z</time>
      </trkpt>
      <trkpt lat="46.99824" lon="7.10745">
        <ele>437.6</ele>
        <time>2022-09-30T12:11:58Z</time>
      </trkpt>
      <trkpt lat="46.99826" lon="7.10738">
        <ele>437.7</ele>
        <time>2022-09-30T12:11:59Z</time>
      </trkpt>
      <trkpt lat="46.99828" lon="7.1073">
        <ele>437.7</ele>
        <time>2022-09-30T12:12:00Z</time>
      </trkpt>
      <trkpt lat="46.99829" lon="7.10723">
        <ele>437.7</ele>
        <time>2022-09-30T12:12:01Z</time>
      </trkpt>
      <trkpt lat="46.99831" lon="7.10717">
        <ele>437.8</ele>
        <time>2022-09-30T12:12:02Z</time>
      </trkpt>
      <trkpt lat="46.99831" lon="7.10708">
        <ele>437.8</ele>
        <time>2022-09-30T12:12:03Z</time>
      </trkpt>
      <trkpt lat="46.99834" lon="7.107">
        <ele>437.9</ele>
        <time>2022-09-30T12:12:04Z</time>
      </trkpt>
      <trkpt lat="46.99835" lon="7.10693">
        <ele>437.9</ele>
        <time>2022-09-30T12:12:05Z</time>
      </trkpt>
      <trkpt lat="46.99836" lon="7.10686">
        <ele>437.9</ele>
        <time>2022-09-30T12:12:06Z</time>
      </trkpt>
      <trkpt lat="46.99838" lon="7.1068">
        <ele>438</ele>
        <time>2022-09-30T12:12:07Z</time>
      </trkpt>
      <trkpt lat="46.99838" lon="7.10671">
        <ele>438</ele>
        <time>2022-09-30T12:12:08Z</time>
      </trkpt>
      <trkpt lat="46.99839" lon="7.10664">
        <ele>438</ele>
        <time>2022-09-30T12:12:09Z</time>
      </trkpt>
      <trkpt lat="46.99841" lon="7.10657">
        <ele>438.1</ele>
        <time>2022-09-30T12:12:10Z</time>
      </trkpt>
      <trkpt lat="46.99843" lon="7.1065">
        <ele>438.1</ele>
        <time>2022-09-30T12:12:11Z</time>
      </trkpt>
      <trkpt lat="46.99843" lon="7.10643">
        <ele>438.1</ele>
        <time>2022-09-30T12:12:12Z</time>
      </trkpt>
      <trkpt lat="46.99844" lon="7.10635">
        <ele>438.1</ele>
        <time>2022-09-30T12:12:13Z</time>
      </trkpt>
      <trkpt lat="46.99845" lon="7.10629">
        <ele>438.1</ele>
        <time>2022-09-30T12:12:14Z</time>
      </trkpt>
      <trkpt lat="46.99846" lon="7.10622">
        <ele>438.2</ele>
        <time>2022-09-30T12:12:15Z</time>
      </trkpt>
      <trkpt lat="46.99848" lon="7.10616">
        <ele>438.2</ele>
        <time>2022-09-30T12:12:16Z</time>
      </trkpt>
      <trkpt lat="46.9985" lon="7.10609">
        <ele>438.2</ele>
        <time>2022-09-30T12:12:17Z</time>
      </trkpt>
      <trkpt lat="46.99853" lon="7.10601">
        <ele>438.3</ele>
        <time>2022-09-30T12:12:18Z</time>
      </trkpt>
      <trkpt lat="46.99853" lon="7.10595">
        <ele>438.3</ele>
        <time>2022-09-30T12:12:19Z</time>
      </trkpt>
      <trkpt lat="46.99855" lon="7.10587">
        <ele>438.3</ele>
        <time>2022-09-30T12:12:20Z</time>
      </trkpt>
      <trkpt lat="46.99857" lon="7.10581">
        <ele>438.3</ele>
        <time>2022-09-30T12:12:21Z</time>
      </trkpt>
      <trkpt lat="46.99859" lon="7.10574">
        <ele>438.4</ele>
        <time>2022-09-30T12:12:22Z</time>
      </trkpt>
      <trkpt lat="46.9986" lon="7.10567">
        <ele>438.4</ele>
        <time>2022-09-30T12:12:23Z</time>
      </trkpt>
      <trkpt lat="46.99862" lon="7.10561">
        <ele>438.4</ele>
        <time>2022-09-30T12:12:24Z</time>
      </trkpt>
      <trkpt lat="46.99864" lon="7.10555">
        <ele>438.4</ele>
        <time>2022-09-30T12:12:25Z</time>
      </trkpt>
      <trkpt lat="46.99864" lon="7.10548">
        <ele>438.4</ele>
        <time>2022-09-30T12:12:26Z</time>
      </trkpt>
      <trkpt lat="46.99866" lon="7.10539">
        <ele>438.4</ele>
        <time>2022-09-30T12:12:27Z</time>
      </trkpt>
      <trkpt lat="46.99868" lon="7.10532">
        <ele>438.3</ele>
        <time>2022-09-30T12:12:28Z</time>
      </trkpt>
      <trkpt lat="46.99869" lon="7.10525">
        <ele>438.3</ele>
        <time>2022-09-30T12:12:29Z</time>
      </trkpt>
      <trkpt lat="46.99871" lon="7.10517">
        <ele>438.3</ele>
        <time>2022-09-30T12:12:30Z</time>
      </trkpt>
      <trkpt lat="46.99873" lon="7.1051">
        <ele>438.3</ele>
        <time>2022-09-30T12:12:31Z</time>
      </trkpt>
      <trkpt lat="46.99874" lon="7.10503">
        <ele>438.3</ele>
        <time>2022-09-30T12:12:32Z</time>
      </trkpt>
      <trkpt lat="46.99876" lon="7.10496">
        <ele>438.3</ele>
        <time>2022-09-30T12:12:33Z</time>
      </trkpt>
      <trkpt lat="46.99878" lon="7.10488">
        <ele>438.3</ele>
        <time>2022-09-30T12:12:34Z</time>
      </trkpt>
      <trkpt lat="46.99879" lon="7.1048">
        <ele>438.4</ele>
        <time>2022-09-30T12:12:35Z</time>
      </trkpt>
      <trkpt lat="46.9988" lon="7.10472">
        <ele>438.4</ele>
        <time>2022-09-30T12:12:36Z</time>
      </trkpt>
      <trkpt lat="46.99882" lon="7.10464">
        <ele>438.4</ele>
        <time>2022-09-30T12:12:37Z</time>
      </trkpt>
      <trkpt lat="46.99883" lon="7.10457">
        <ele>438.4</ele>
        <time>2022-09-30T12:12:38Z</time>
      </trkpt>
      <trkpt lat="46.99884" lon="7.10448">
        <ele>438.4</ele>
        <time>2022-09-30T12:12:39Z</time>
      </trkpt>
      <trkpt lat="46.99885" lon="7.1044">
        <ele>438.4</ele>
        <time>2022-09-30T12:12:40Z</time>
      </trkpt>
      <trkpt lat="46.99886" lon="7.10432">
        <ele>438.4</ele>
        <time>2022-09-30T12:12:41Z</time>
      </trkpt>
      <trkpt lat="46.99887" lon="7.10424">
        <ele>438.4</ele>
        <time>2022-09-30T12:12:42Z</time>
      </trkpt>
      <trkpt lat="46.99889" lon="7.10417">
        <ele>438.3</ele>
        <time>2022-09-30T12:12:43Z</time>
      </trkpt>
      <trkpt lat="46.9989" lon="7.10409">
        <ele>438.3</ele>
        <time>2022-09-30T12:12:44Z</time>
      </trkpt>
      <trkpt lat="46.99892" lon="7.10401">
        <ele>438.3</ele>
        <time>2022-09-30T12:12:45Z</time>
      </trkpt>
      <trkpt lat="46.99894" lon="7.10393">
        <ele>438.3</ele>
        <time>2022-09-30T12:12:46Z</time>
      </trkpt>
      <trkpt lat="46.99896" lon="7.10386">
        <ele>438.2</ele>
        <time>2022-09-30T12:12:47Z</time>
      </trkpt>
      <trkpt lat="46.99897" lon="7.10378">
        <ele>438.2</ele>
        <time>2022-09-30T12:12:48Z</time>
      </trkpt>
      <trkpt lat="46.999" lon="7.10371">
        <ele>438.2</ele>
        <time>2022-09-30T12:12:49Z</time>
      </trkpt>
      <trkpt lat="46.99902" lon="7.10363">
        <ele>438.2</ele>
        <time>2022-09-30T12:12:50Z</time>
      </trkpt>
      <trkpt lat="46.99904" lon="7.10355">
        <ele>438.2</ele>
        <time>2022-09-30T12:12:51Z</time>
      </trkpt>
      <trkpt lat="46.99907" lon="7.10347">
        <ele>438.2</ele>
        <time>2022-09-30T12:12:52Z</time>
      </trkpt>
      <trkpt lat="46.99909" lon="7.10341">
        <ele>438.2</ele>
        <time>2022-09-30T12:12:53Z</time>
      </trkpt>
      <trkpt lat="46.99912" lon="7.10334">
        <ele>438.2</ele>
        <time>2022-09-30T12:12:54Z</time>
      </trkpt>
      <trkpt lat="46.99915" lon="7.10327">
        <ele>438.2</ele>
        <time>2022-09-30T12:12:55Z</time>
      </trkpt>
      <trkpt lat="46.99917" lon="7.1032">
        <ele>438.2</ele>
        <time>2022-09-30T12:12:56Z</time>
      </trkpt>
      <trkpt lat="46.99919" lon="7.10312">
        <ele>438.2</ele>
        <time>2022-09-30T12:12:57Z</time>
      </trkpt>
      <trkpt lat="46.99922" lon="7.10303">
        <ele>438.2</ele>
        <time>2022-09-30T12:12:58Z</time>
      </trkpt>
      <trkpt lat="46.99924" lon="7.10296">
        <ele>438.2</ele>
        <time>2022-09-30T12:12:59Z</time>
      </trkpt>
      <trkpt lat="46.99926" lon="7.1029">
        <ele>438.2</ele>
        <time>2022-09-30T12:13:00Z</time>
      </trkpt>
      <trkpt lat="46.99928" lon="7.10283">
        <ele>438.2</ele>
        <time>2022-09-30T12:13:01Z</time>
      </trkpt>
      <trkpt lat="46.9993" lon="7.10276">
        <ele>438.2</ele>
        <time>2022-09-30T12:13:02Z</time>
      </trkpt>
      <trkpt lat="46.99932" lon="7.10269">
        <ele>438.2</ele>
        <time>2022-09-30T12:13:03Z</time>
      </trkpt>
      <trkpt lat="46.99935" lon="7.10264">
        <ele>438.1</ele>
        <time>2022-09-30T12:13:04Z</time>
      </trkpt>
      <trkpt lat="46.99937" lon="7.10258">
        <ele>438.1</ele>
        <time>2022-09-30T12:13:05Z</time>
      </trkpt>
      <trkpt lat="46.99938" lon="7.10251">
        <ele>438.1</ele>
        <time>2022-09-30T12:13:06Z</time>
      </trkpt>
      <trkpt lat="46.9994" lon="7.10245">
        <ele>438.1</ele>
        <time>2022-09-30T12:13:07Z</time>
      </trkpt>
      <trkpt lat="46.99943" lon="7.10238">
        <ele>438.1</ele>
        <time>2022-09-30T12:13:08Z</time>
      </trkpt>
      <trkpt lat="46.99944" lon="7.10231">
        <ele>438.1</ele>
        <time>2022-09-30T12:13:09Z</time>
      </trkpt>
      <trkpt lat="46.99946" lon="7.10224">
        <ele>438.1</ele>
        <time>2022-09-30T12:13:10Z</time>
      </trkpt>
      <trkpt lat="46.99947" lon="7.10218">
        <ele>438.1</ele>
        <time>2022-09-30T12:13:11Z</time>
      </trkpt>
      <trkpt lat="46.99948" lon="7.10211">
        <ele>438.1</ele>
        <time>2022-09-30T12:13:12Z</time>
      </trkpt>
      <trkpt lat="46.99949" lon="7.10202">
        <ele>438.1</ele>
        <time>2022-09-30T12:13:13Z</time>
      </trkpt>
      <trkpt lat="46.9995" lon="7.10194">
        <ele>438.1</ele>
        <time>2022-09-30T12:13:14Z</time>
      </trkpt>
      <trkpt lat="46.99951" lon="7.10186">
        <ele>438.1</ele>
        <time>2022-09-30T12:13:15Z</time>
      </trkpt>
      <trkpt lat="46.99953" lon="7.10179">
        <ele>438.1</ele>
        <time>2022-09-30T12:13:16Z</time>
      </trkpt>
      <trkpt lat="46.99954" lon="7.10172">
        <ele>438.1</ele>
        <time>2022-09-30T12:13:17Z</time>
      </trkpt>
      <trkpt lat="46.99957" lon="7.10163">
        <ele>438.1</ele>
        <time>2022-09-30T12:13:18Z</time>
      </trkpt>
      <trkpt lat="46.99959" lon="7.10155">
        <ele>438.1</ele>
        <time>2022-09-30T12:13:19Z</time>
      </trkpt>
      <trkpt lat="46.99961" lon="7.10147">
        <ele>438.1</ele>
        <time>2022-09-30T12:13:20Z</time>
      </trkpt>
      <trkpt lat="46.99962" lon="7.10139">
        <ele>438.1</ele>
        <time>2022-09-30T12:13:21Z</time>
      </trkpt>
      <trkpt lat="46.99964" lon="7.10131">
        <ele>438.1</ele>
        <time>2022-09-30T12:13:22Z</time>
      </trkpt>
      <trkpt lat="46.99966" lon="7.10123">
        <ele>438.1</ele>
        <time>2022-09-30T12:13:23Z</time>
      </trkpt>
      <trkpt lat="46.99969" lon="7.10115">
        <ele>438.1</ele>
        <time>2022-09-30T12:13:24Z</time>
      </trkpt>
      <trkpt lat="46.99971" lon="7.10107">
        <ele>438</ele>
        <time>2022-09-30T12:13:25Z</time>
      </trkpt>
      <trkpt lat="46.99972" lon="7.10098">
        <ele>438</ele>
        <time>2022-09-30T12:13:26Z</time>
      </trkpt>
      <trkpt lat="46.99975" lon="7.1009">
        <ele>438</ele>
        <time>2022-09-30T12:13:27Z</time>
      </trkpt>
      <trkpt lat="46.99977" lon="7.10081">
        <ele>437.9</ele>
        <time>2022-09-30T12:13:28Z</time>
      </trkpt>
      <trkpt lat="46.9998" lon="7.10074">
        <ele>437.9</ele>
        <time>2022-09-30T12:13:29Z</time>
      </trkpt>
      <trkpt lat="46.99981" lon="7.10065">
        <ele>437.9</ele>
        <time>2022-09-30T12:13:30Z</time>
      </trkpt>
      <trkpt lat="46.99984" lon="7.10057">
        <ele>437.9</ele>
        <time>2022-09-30T12:13:31Z</time>
      </trkpt>
      <trkpt lat="46.99986" lon="7.10049">
        <ele>437.9</ele>
        <time>2022-09-30T12:13:32Z</time>
      </trkpt>
      <trkpt lat="46.99988" lon="7.10041">
        <ele>438</ele>
        <time>2022-09-30T12:13:33Z</time>
      </trkpt>
      <trkpt lat="46.99991" lon="7.10034">
        <ele>438</ele>
        <time>2022-09-30T12:13:34Z</time>
      </trkpt>
      <trkpt lat="46.99992" lon="7.10027">
        <ele>438</ele>
        <time>2022-09-30T12:13:35Z</time>
      </trkpt>
      <trkpt lat="46.99995" lon="7.10018">
        <ele>438.1</ele>
        <time>2022-09-30T12:13:36Z</time>
      </trkpt>
      <trkpt lat="46.99997" lon="7.10012">
        <ele>438.1</ele>
        <time>2022-09-30T12:13:37Z</time>
      </trkpt>
      <trkpt lat="46.99999" lon="7.10006">
        <ele>438.1</ele>
        <time>2022-09-30T12:13:38Z</time>
      </trkpt>
      <trkpt lat="47.00001" lon="7.09999">
        <ele>438.2</ele>
        <time>2022-09-30T12:13:39Z</time>
      </trkpt>
      <trkpt lat="47.00003" lon="7.09993">
        <ele>438.3</ele>
        <time>2022-09-30T12:13:40Z</time>
      </trkpt>
      <trkpt lat="47.00005" lon="7.09987">
        <ele>438.3</ele>
        <time>2022-09-30T12:13:41Z</time>
      </trkpt>
      <trkpt lat="47.00007" lon="7.09981">
        <ele>438.3</ele>
        <time>2022-09-30T12:13:42Z</time>
      </trkpt>
      <trkpt lat="47.00009" lon="7.09976">
        <ele>438.4</ele>
        <time>2022-09-30T12:13:43Z</time>
      </trkpt>
      <trkpt lat="47.0001" lon="7.09972">
        <ele>438.4</ele>
        <time>2022-09-30T12:13:44Z</time>
      </trkpt>
      <trkpt lat="47.00013" lon="7.09969">
        <ele>438.4</ele>
        <time>2022-09-30T12:13:45Z</time>
      </trkpt>
      <trkpt lat="47.00015" lon="7.09966">
        <ele>438.4</ele>
        <time>2022-09-30T12:13:46Z</time>
      </trkpt>
      <trkpt lat="47.00018" lon="7.09964">
        <ele>438.5</ele>
        <time>2022-09-30T12:13:47Z</time>
      </trkpt>
      <trkpt lat="47.00021" lon="7.09963">
        <ele>438.5</ele>
        <time>2022-09-30T12:13:48Z</time>
      </trkpt>
      <trkpt lat="47.00024" lon="7.09961">
        <ele>438.5</ele>
        <time>2022-09-30T12:13:49Z</time>
      </trkpt>
      <trkpt lat="47.00026" lon="7.0996">
        <ele>438.5</ele>
        <time>2022-09-30T12:13:50Z</time>
      </trkpt>
      <trkpt lat="47.00029" lon="7.09958">
        <ele>438.4</ele>
        <time>2022-09-30T12:13:51Z</time>
      </trkpt>
      <trkpt lat="47.0003" lon="7.09954">
        <ele>438.4</ele>
        <time>2022-09-30T12:13:52Z</time>
      </trkpt>
      <trkpt lat="47.0003" lon="7.09949">
        <ele>438.4</ele>
        <time>2022-09-30T12:13:53Z</time>
      </trkpt>
      <trkpt lat="47.0003" lon="7.09947">
        <ele>438.4</ele>
        <time>2022-09-30T12:13:54Z</time>
      </trkpt>
      <trkpt lat="47.00028" lon="7.09942">
        <ele>438.4</ele>
        <time>2022-09-30T12:13:55Z</time>
      </trkpt>
      <trkpt lat="47.00026" lon="7.0994">
        <ele>438.4</ele>
        <time>2022-09-30T12:13:56Z</time>
      </trkpt>
      <trkpt lat="47.00023" lon="7.09937">
        <ele>438.4</ele>
        <time>2022-09-30T12:13:57Z</time>
      </trkpt>
      <trkpt lat="47.00021" lon="7.09933">
        <ele>438.4</ele>
        <time>2022-09-30T12:13:58Z</time>
      </trkpt>
      <trkpt lat="47.00018" lon="7.09928">
        <ele>438.3</ele>
        <time>2022-09-30T12:13:59Z</time>
      </trkpt>
      <trkpt lat="47.00016" lon="7.09921">
        <ele>438.1</ele>
        <time>2022-09-30T12:14:00Z</time>
      </trkpt>
      <trkpt lat="47.00015" lon="7.09914">
        <ele>438.1</ele>
        <time>2022-09-30T12:14:01Z</time>
      </trkpt>
      <trkpt lat="47.00014" lon="7.09906">
        <ele>438</ele>
        <time>2022-09-30T12:14:02Z</time>
      </trkpt>
      <trkpt lat="47.00013" lon="7.099">
        <ele>438</ele>
        <time>2022-09-30T12:14:03Z</time>
      </trkpt>
      <trkpt lat="47.00013" lon="7.09893">
        <ele>437.9</ele>
        <time>2022-09-30T12:14:04Z</time>
      </trkpt>
      <trkpt lat="47.00013" lon="7.09884">
        <ele>437.8</ele>
        <time>2022-09-30T12:14:05Z</time>
      </trkpt>
      <trkpt lat="47.00014" lon="7.09877">
        <ele>437.7</ele>
        <time>2022-09-30T12:14:06Z</time>
      </trkpt>
      <trkpt lat="47.00015" lon="7.0987">
        <ele>437.6</ele>
        <time>2022-09-30T12:14:07Z</time>
      </trkpt>
      <trkpt lat="47.00017" lon="7.09863">
        <ele>437.6</ele>
        <time>2022-09-30T12:14:08Z</time>
      </trkpt>
      <trkpt lat="47.00018" lon="7.09854">
        <ele>437.5</ele>
        <time>2022-09-30T12:14:09Z</time>
      </trkpt>
      <trkpt lat="47.00018" lon="7.09845">
        <ele>437.4</ele>
        <time>2022-09-30T12:14:10Z</time>
      </trkpt>
      <trkpt lat="47.00019" lon="7.09836">
        <ele>437.3</ele>
        <time>2022-09-30T12:14:11Z</time>
      </trkpt>
      <trkpt lat="47.0002" lon="7.09828">
        <ele>437.3</ele>
        <time>2022-09-30T12:14:12Z</time>
      </trkpt>
      <trkpt lat="47.00021" lon="7.09819">
        <ele>437.2</ele>
        <time>2022-09-30T12:14:13Z</time>
      </trkpt>
      <trkpt lat="47.00022" lon="7.09811">
        <ele>437.2</ele>
        <time>2022-09-30T12:14:14Z</time>
      </trkpt>
      <trkpt lat="47.00023" lon="7.09803">
        <ele>437.1</ele>
        <time>2022-09-30T12:14:15Z</time>
      </trkpt>
      <trkpt lat="47.00025" lon="7.09794">
        <ele>437</ele>
        <time>2022-09-30T12:14:16Z</time>
      </trkpt>
      <trkpt lat="47.00025" lon="7.09785">
        <ele>437</ele>
        <time>2022-09-30T12:14:17Z</time>
      </trkpt>
      <trkpt lat="47.00026" lon="7.09776">
        <ele>436.9</ele>
        <time>2022-09-30T12:14:18Z</time>
      </trkpt>
      <trkpt lat="47.00026" lon="7.09769">
        <ele>436.8</ele>
        <time>2022-09-30T12:14:19Z</time>
      </trkpt>
      <trkpt lat="47.00027" lon="7.09761">
        <ele>436.8</ele>
        <time>2022-09-30T12:14:20Z</time>
      </trkpt>
      <trkpt lat="47.00028" lon="7.09752">
        <ele>436.8</ele>
        <time>2022-09-30T12:14:21Z</time>
      </trkpt>
      <trkpt lat="47.00029" lon="7.09745">
        <ele>436.8</ele>
        <time>2022-09-30T12:14:22Z</time>
      </trkpt>
      <trkpt lat="47.0003" lon="7.09738">
        <ele>436.7</ele>
        <time>2022-09-30T12:14:23Z</time>
      </trkpt>
      <trkpt lat="47.0003" lon="7.0973">
        <ele>436.7</ele>
        <time>2022-09-30T12:14:24Z</time>
      </trkpt>
      <trkpt lat="47.00032" lon="7.09723">
        <ele>436.7</ele>
        <time>2022-09-30T12:14:25Z</time>
      </trkpt>
      <trkpt lat="47.00033" lon="7.09716">
        <ele>436.7</ele>
        <time>2022-09-30T12:14:26Z</time>
      </trkpt>
      <trkpt lat="47.00034" lon="7.09709">
        <ele>436.7</ele>
        <time>2022-09-30T12:14:27Z</time>
      </trkpt>
      <trkpt lat="47.00035" lon="7.09704">
        <ele>436.7</ele>
        <time>2022-09-30T12:14:28Z</time>
      </trkpt>
      <trkpt lat="47.00036" lon="7.09698">
        <ele>436.6</ele>
        <time>2022-09-30T12:14:29Z</time>
      </trkpt>
      <trkpt lat="47.00037" lon="7.09692">
        <ele>436.6</ele>
        <time>2022-09-30T12:14:30Z</time>
      </trkpt>
      <trkpt lat="47.00037" lon="7.09687">
        <ele>436.5</ele>
        <time>2022-09-30T12:14:31Z</time>
      </trkpt>
      <trkpt lat="47.00038" lon="7.09686">
        <ele>436.5</ele>
        <time>2022-09-30T12:14:32Z</time>
      </trkpt>
      <trkpt lat="47.00037" lon="7.09681">
        <ele>436.5</ele>
        <time>2022-09-30T12:14:33Z</time>
      </trkpt>
      <trkpt lat="47.00037" lon="7.0968">
        <ele>436.5</ele>
        <time>2022-09-30T12:14:34Z</time>
      </trkpt>
      <trkpt lat="47.00037" lon="7.09676">
        <ele>436.5</ele>
        <time>2022-09-30T12:14:35Z</time>
      </trkpt>
      <trkpt lat="47.00037" lon="7.09671">
        <ele>436.4</ele>
        <time>2022-09-30T12:14:36Z</time>
      </trkpt>
      <trkpt lat="47.00038" lon="7.09666">
        <ele>436.4</ele>
        <time>2022-09-30T12:14:37Z</time>
      </trkpt>
      <trkpt lat="47.0004" lon="7.09662">
        <ele>436.4</ele>
        <time>2022-09-30T12:14:38Z</time>
      </trkpt>
      <trkpt lat="47.00041" lon="7.09658">
        <ele>436.3</ele>
        <time>2022-09-30T12:14:39Z</time>
      </trkpt>
      <trkpt lat="47.00043" lon="7.09653">
        <ele>436.3</ele>
        <time>2022-09-30T12:14:40Z</time>
      </trkpt>
      <trkpt lat="47.00044" lon="7.09647">
        <ele>436.2</ele>
        <time>2022-09-30T12:14:41Z</time>
      </trkpt>
      <trkpt lat="47.00044" lon="7.09641">
        <ele>436.1</ele>
        <time>2022-09-30T12:14:42Z</time>
      </trkpt>
      <trkpt lat="47.00046" lon="7.09634">
        <ele>436</ele>
        <time>2022-09-30T12:14:43Z</time>
      </trkpt>
      <trkpt lat="47.00047" lon="7.09627">
        <ele>435.9</ele>
        <time>2022-09-30T12:14:44Z</time>
      </trkpt>
      <trkpt lat="47.00049" lon="7.0962">
        <ele>435.8</ele>
        <time>2022-09-30T12:14:45Z</time>
      </trkpt>
      <trkpt lat="47.0005" lon="7.09613">
        <ele>435.7</ele>
        <time>2022-09-30T12:14:46Z</time>
      </trkpt>
      <trkpt lat="47.0005" lon="7.09606">
        <ele>435.6</ele>
        <time>2022-09-30T12:14:47Z</time>
      </trkpt>
      <trkpt lat="47.00052" lon="7.09598">
        <ele>435.5</ele>
        <time>2022-09-30T12:14:48Z</time>
      </trkpt>
      <trkpt lat="47.00053" lon="7.0959">
        <ele>435.4</ele>
        <time>2022-09-30T12:14:49Z</time>
      </trkpt>
      <trkpt lat="47.00054" lon="7.09581">
        <ele>435.3</ele>
        <time>2022-09-30T12:14:50Z</time>
      </trkpt>
      <trkpt lat="47.00056" lon="7.09572">
        <ele>435.2</ele>
        <time>2022-09-30T12:14:51Z</time>
      </trkpt>
      <trkpt lat="47.00058" lon="7.09563">
        <ele>435.1</ele>
        <time>2022-09-30T12:14:52Z</time>
      </trkpt>
      <trkpt lat="47.0006" lon="7.09553">
        <ele>435</ele>
        <time>2022-09-30T12:14:53Z</time>
      </trkpt>
      <trkpt lat="47.00062" lon="7.09545">
        <ele>434.9</ele>
        <time>2022-09-30T12:14:54Z</time>
      </trkpt>
      <trkpt lat="47.00062" lon="7.09536">
        <ele>434.8</ele>
        <time>2022-09-30T12:14:55Z</time>
      </trkpt>
      <trkpt lat="47.00063" lon="7.09526">
        <ele>434.7</ele>
        <time>2022-09-30T12:14:56Z</time>
      </trkpt>
      <trkpt lat="47.00065" lon="7.09516">
        <ele>434.6</ele>
        <time>2022-09-30T12:14:57Z</time>
      </trkpt>
      <trkpt lat="47.00067" lon="7.09507">
        <ele>434.6</ele>
        <time>2022-09-30T12:14:58Z</time>
      </trkpt>
      <trkpt lat="47.00068" lon="7.09498">
        <ele>434.5</ele>
        <time>2022-09-30T12:14:59Z</time>
      </trkpt>
      <trkpt lat="47.00069" lon="7.09488">
        <ele>434.4</ele>
        <time>2022-09-30T12:15:00Z</time>
      </trkpt>
      <trkpt lat="47.0007" lon="7.09479">
        <ele>434.4</ele>
        <time>2022-09-30T12:15:01Z</time>
      </trkpt>
      <trkpt lat="47.0007" lon="7.09471">
        <ele>434.3</ele>
        <time>2022-09-30T12:15:02Z</time>
      </trkpt>
      <trkpt lat="47.00073" lon="7.09463">
        <ele>434.2</ele>
        <time>2022-09-30T12:15:03Z</time>
      </trkpt>
      <trkpt lat="47.00074" lon="7.09455">
        <ele>434.2</ele>
        <time>2022-09-30T12:15:04Z</time>
      </trkpt>
      <trkpt lat="47.00074" lon="7.09446">
        <ele>434.1</ele>
        <time>2022-09-30T12:15:05Z</time>
      </trkpt>
      <trkpt lat="47.00075" lon="7.0944">
        <ele>434.1</ele>
        <time>2022-09-30T12:15:06Z</time>
      </trkpt>
      <trkpt lat="47.00076" lon="7.09432">
        <ele>434</ele>
        <time>2022-09-30T12:15:07Z</time>
      </trkpt>
      <trkpt lat="47.00077" lon="7.09426">
        <ele>434</ele>
        <time>2022-09-30T12:15:08Z</time>
      </trkpt>
      <trkpt lat="47.00079" lon="7.09421">
        <ele>434</ele>
        <time>2022-09-30T12:15:09Z</time>
      </trkpt>
      <trkpt lat="47.0008" lon="7.09417">
        <ele>434</ele>
        <time>2022-09-30T12:15:10Z</time>
      </trkpt>
      <trkpt lat="47.0008" lon="7.09414">
        <ele>434</ele>
        <time>2022-09-30T12:15:11Z</time>
      </trkpt>
      <trkpt lat="47.0008" lon="7.09414">
        <ele>434</ele>
        <time>2022-09-30T12:15:12Z</time>
      </trkpt>
      <trkpt lat="47.0008" lon="7.09413">
        <ele>434</ele>
        <time>2022-09-30T12:15:13Z</time>
      </trkpt>
      <trkpt lat="47.0008" lon="7.09412">
        <ele>434</ele>
        <time>2022-09-30T12:15:14Z</time>
      </trkpt>
      <trkpt lat="47.0008" lon="7.09411">
        <ele>434</ele>
        <time>2022-09-30T12:15:15Z</time>
      </trkpt>
      <trkpt lat="47.0008" lon="7.0941">
        <ele>434</ele>
        <time>2022-09-30T12:15:16Z</time>
      </trkpt>
      <trkpt lat="47.0008" lon="7.0941">
        <ele>434</ele>
        <time>2022-09-30T12:15:17Z</time>
      </trkpt>
      <trkpt lat="47.00079" lon="7.09409">
        <ele>434</ele>
        <time>2022-09-30T12:15:18Z</time>
      </trkpt>
      <trkpt lat="47.00079" lon="7.09408">
        <ele>434</ele>
        <time>2022-09-30T12:15:19Z</time>
      </trkpt>
      <trkpt lat="47.00079" lon="7.09407">
        <ele>434</ele>
        <time>2022-09-30T12:15:20Z</time>
      </trkpt>
      <trkpt lat="47.00079" lon="7.09406">
        <ele>434</ele>
        <time>2022-09-30T12:15:21Z</time>
      </trkpt>
      <trkpt lat="47.00079" lon="7.09406">
        <ele>434</ele>
        <time>2022-09-30T12:15:22Z</time>
      </trkpt>
      <trkpt lat="47.00079" lon="7.09405">
        <ele>434</ele>
        <time>2022-09-30T12:16:29Z</time>
      </trkpt>
      <trkpt lat="47.00079" lon="7.09404">
        <ele>434</ele>
        <time>2022-09-30T12:16:30Z</time>
      </trkpt>
      <trkpt lat="47.00078" lon="7.09399">
        <ele>434</ele>
        <time>2022-09-30T12:16:31Z</time>
      </trkpt>
      <trkpt lat="47.00079" lon="7.09397">
        <ele>433.9</ele>
        <time>2022-09-30T12:16:32Z</time>
      </trkpt>
      <trkpt lat="47.0008" lon="7.09392">
        <ele>433.9</ele>
        <time>2022-09-30T12:16:33Z</time>
      </trkpt>
      <trkpt lat="47.0008" lon="7.09391">
        <ele>433.9</ele>
        <time>2022-09-30T12:16:34Z</time>
      </trkpt>
      <trkpt lat="47.0008" lon="7.09386">
        <ele>433.9</ele>
        <time>2022-09-30T12:16:35Z</time>
      </trkpt>
      <trkpt lat="47.00081" lon="7.09382">
        <ele>433.9</ele>
        <time>2022-09-30T12:16:36Z</time>
      </trkpt>
      <trkpt lat="47.00081" lon="7.09376">
        <ele>433.9</ele>
        <time>2022-09-30T12:16:37Z</time>
      </trkpt>
      <trkpt lat="47.00082" lon="7.09371">
        <ele>433.9</ele>
        <time>2022-09-30T12:16:38Z</time>
      </trkpt>
      <trkpt lat="47.00083" lon="7.09365">
        <ele>433.9</ele>
        <time>2022-09-30T12:16:39Z</time>
      </trkpt>
      <trkpt lat="47.00084" lon="7.09359">
        <ele>433.9</ele>
        <time>2022-09-30T12:16:40Z</time>
      </trkpt>
      <trkpt lat="47.00084" lon="7.09354">
        <ele>433.8</ele>
        <time>2022-09-30T12:16:41Z</time>
      </trkpt>
      <trkpt lat="47.00084" lon="7.09348">
        <ele>433.8</ele>
        <time>2022-09-30T12:16:42Z</time>
      </trkpt>
      <trkpt lat="47.00085" lon="7.09342">
        <ele>433.8</ele>
        <time>2022-09-30T12:16:43Z</time>
      </trkpt>
      <trkpt lat="47.00086" lon="7.09336">
        <ele>433.8</ele>
        <time>2022-09-30T12:16:44Z</time>
      </trkpt>
      <trkpt lat="47.00086" lon="7.0933">
        <ele>433.8</ele>
        <time>2022-09-30T12:16:45Z</time>
      </trkpt>
      <trkpt lat="47.00087" lon="7.09323">
        <ele>433.7</ele>
        <time>2022-09-30T12:16:46Z</time>
      </trkpt>
      <trkpt lat="47.00087" lon="7.09315">
        <ele>433.7</ele>
        <time>2022-09-30T12:16:47Z</time>
      </trkpt>
      <trkpt lat="47.00088" lon="7.09309">
        <ele>433.7</ele>
        <time>2022-09-30T12:16:48Z</time>
      </trkpt>
      <trkpt lat="47.00089" lon="7.09302">
        <ele>433.6</ele>
        <time>2022-09-30T12:16:49Z</time>
      </trkpt>
      <trkpt lat="47.0009" lon="7.09294">
        <ele>433.6</ele>
        <time>2022-09-30T12:16:50Z</time>
      </trkpt>
      <trkpt lat="47.0009" lon="7.09287">
        <ele>433.6</ele>
        <time>2022-09-30T12:16:51Z</time>
      </trkpt>
      <trkpt lat="47.00091" lon="7.09279">
        <ele>433.5</ele>
        <time>2022-09-30T12:16:52Z</time>
      </trkpt>
      <trkpt lat="47.00091" lon="7.09272">
        <ele>433.5</ele>
        <time>2022-09-30T12:16:53Z</time>
      </trkpt>
      <trkpt lat="47.00092" lon="7.09265">
        <ele>433.5</ele>
        <time>2022-09-30T12:16:54Z</time>
      </trkpt>
      <trkpt lat="47.00092" lon="7.09258">
        <ele>433.5</ele>
        <time>2022-09-30T12:16:55Z</time>
      </trkpt>
      <trkpt lat="47.00093" lon="7.09251">
        <ele>433.4</ele>
        <time>2022-09-30T12:16:56Z</time>
      </trkpt>
      <trkpt lat="47.00093" lon="7.09243">
        <ele>433.4</ele>
        <time>2022-09-30T12:16:57Z</time>
      </trkpt>
      <trkpt lat="47.00094" lon="7.09235">
        <ele>433.4</ele>
        <time>2022-09-30T12:16:58Z</time>
      </trkpt>
      <trkpt lat="47.00094" lon="7.09228">
        <ele>433.4</ele>
        <time>2022-09-30T12:16:59Z</time>
      </trkpt>
      <trkpt lat="47.00095" lon="7.09221">
        <ele>433.4</ele>
        <time>2022-09-30T12:17:00Z</time>
      </trkpt>
      <trkpt lat="47.00096" lon="7.09213">
        <ele>433.4</ele>
        <time>2022-09-30T12:17:01Z</time>
      </trkpt>
      <trkpt lat="47.00096" lon="7.09205">
        <ele>433.4</ele>
        <time>2022-09-30T12:17:02Z</time>
      </trkpt>
      <trkpt lat="47.00097" lon="7.09197">
        <ele>433.3</ele>
        <time>2022-09-30T12:17:03Z</time>
      </trkpt>
      <trkpt lat="47.00098" lon="7.09189">
        <ele>433.3</ele>
        <time>2022-09-30T12:17:04Z</time>
      </trkpt>
      <trkpt lat="47.00099" lon="7.09181">
        <ele>433.2</ele>
        <time>2022-09-30T12:17:05Z</time>
      </trkpt>
      <trkpt lat="47.00099" lon="7.09173">
        <ele>433.2</ele>
        <time>2022-09-30T12:17:06Z</time>
      </trkpt>
      <trkpt lat="47.00099" lon="7.09165">
        <ele>433.2</ele>
        <time>2022-09-30T12:17:07Z</time>
      </trkpt>
      <trkpt lat="47.001" lon="7.09158">
        <ele>433.2</ele>
        <time>2022-09-30T12:17:08Z</time>
      </trkpt>
      <trkpt lat="47.001" lon="7.09151">
        <ele>433.1</ele>
        <time>2022-09-30T12:17:09Z</time>
      </trkpt>
      <trkpt lat="47.00101" lon="7.09144">
        <ele>433.1</ele>
        <time>2022-09-30T12:17:10Z</time>
      </trkpt>
      <trkpt lat="47.00101" lon="7.09137">
        <ele>433.1</ele>
        <time>2022-09-30T12:17:11Z</time>
      </trkpt>
      <trkpt lat="47.00102" lon="7.09129">
        <ele>433.1</ele>
        <time>2022-09-30T12:17:12Z</time>
      </trkpt>
      <trkpt lat="47.00102" lon="7.09122">
        <ele>433.1</ele>
        <time>2022-09-30T12:17:13Z</time>
      </trkpt>
      <trkpt lat="47.00103" lon="7.09114">
        <ele>433.1</ele>
        <time>2022-09-30T12:17:14Z</time>
      </trkpt>
      <trkpt lat="47.00104" lon="7.09106">
        <ele>433.1</ele>
        <time>2022-09-30T12:17:15Z</time>
      </trkpt>
      <trkpt lat="47.00104" lon="7.09098">
        <ele>433</ele>
        <time>2022-09-30T12:17:16Z</time>
      </trkpt>
      <trkpt lat="47.00104" lon="7.0909">
        <ele>433</ele>
        <time>2022-09-30T12:17:17Z</time>
      </trkpt>
      <trkpt lat="47.00105" lon="7.09082">
        <ele>433</ele>
        <time>2022-09-30T12:17:18Z</time>
      </trkpt>
      <trkpt lat="47.00106" lon="7.09073">
        <ele>433</ele>
        <time>2022-09-30T12:17:19Z</time>
      </trkpt>
      <trkpt lat="47.00107" lon="7.09065">
        <ele>432.9</ele>
        <time>2022-09-30T12:17:20Z</time>
      </trkpt>
      <trkpt lat="47.00108" lon="7.09057">
        <ele>432.9</ele>
        <time>2022-09-30T12:17:21Z</time>
      </trkpt>
      <trkpt lat="47.00109" lon="7.09049">
        <ele>432.9</ele>
        <time>2022-09-30T12:17:22Z</time>
      </trkpt>
      <trkpt lat="47.00109" lon="7.09041">
        <ele>432.9</ele>
        <time>2022-09-30T12:17:23Z</time>
      </trkpt>
      <trkpt lat="47.0011" lon="7.09033">
        <ele>432.9</ele>
        <time>2022-09-30T12:17:24Z</time>
      </trkpt>
      <trkpt lat="47.00111" lon="7.09027">
        <ele>432.9</ele>
        <time>2022-09-30T12:17:25Z</time>
      </trkpt>
      <trkpt lat="47.00111" lon="7.09019">
        <ele>432.8</ele>
        <time>2022-09-30T12:17:26Z</time>
      </trkpt>
      <trkpt lat="47.00112" lon="7.09012">
        <ele>432.7</ele>
        <time>2022-09-30T12:17:27Z</time>
      </trkpt>
      <trkpt lat="47.00111" lon="7.09004">
        <ele>432.6</ele>
        <time>2022-09-30T12:17:28Z</time>
      </trkpt>
      <trkpt lat="47.00113" lon="7.08998">
        <ele>432.5</ele>
        <time>2022-09-30T12:17:29Z</time>
      </trkpt>
      <trkpt lat="47.00115" lon="7.0899">
        <ele>432.5</ele>
        <time>2022-09-30T12:17:30Z</time>
      </trkpt>
      <trkpt lat="47.00116" lon="7.08984">
        <ele>432.4</ele>
        <time>2022-09-30T12:17:31Z</time>
      </trkpt>
      <trkpt lat="47.00116" lon="7.08975">
        <ele>432.4</ele>
        <time>2022-09-30T12:17:32Z</time>
      </trkpt>
      <trkpt lat="47.00117" lon="7.08968">
        <ele>432.4</ele>
        <time>2022-09-30T12:17:33Z</time>
      </trkpt>
      <trkpt lat="47.00117" lon="7.0896">
        <ele>432.4</ele>
        <time>2022-09-30T12:17:34Z</time>
      </trkpt>
      <trkpt lat="47.00118" lon="7.08953">
        <ele>432.3</ele>
        <time>2022-09-30T12:17:35Z</time>
      </trkpt>
      <trkpt lat="47.00119" lon="7.08946">
        <ele>432.3</ele>
        <time>2022-09-30T12:17:36Z</time>
      </trkpt>
      <trkpt lat="47.0012" lon="7.08938">
        <ele>432.3</ele>
        <time>2022-09-30T12:17:37Z</time>
      </trkpt>
      <trkpt lat="47.00122" lon="7.0893">
        <ele>432.3</ele>
        <time>2022-09-30T12:17:38Z</time>
      </trkpt>
      <trkpt lat="47.00122" lon="7.08922">
        <ele>432.2</ele>
        <time>2022-09-30T12:17:39Z</time>
      </trkpt>
      <trkpt lat="47.00123" lon="7.08914">
        <ele>432.2</ele>
        <time>2022-09-30T12:17:40Z</time>
      </trkpt>
      <trkpt lat="47.00124" lon="7.08906">
        <ele>432.2</ele>
        <time>2022-09-30T12:17:41Z</time>
      </trkpt>
      <trkpt lat="47.00125" lon="7.08898">
        <ele>432.2</ele>
        <time>2022-09-30T12:17:42Z</time>
      </trkpt>
      <trkpt lat="47.00126" lon="7.08891">
        <ele>432.2</ele>
        <time>2022-09-30T12:17:43Z</time>
      </trkpt>
      <trkpt lat="47.00127" lon="7.08883">
        <ele>432.2</ele>
        <time>2022-09-30T12:17:44Z</time>
      </trkpt>
      <trkpt lat="47.00128" lon="7.08874">
        <ele>432.2</ele>
        <time>2022-09-30T12:17:45Z</time>
      </trkpt>
      <trkpt lat="47.00129" lon="7.08866">
        <ele>432.1</ele>
        <time>2022-09-30T12:17:46Z</time>
      </trkpt>
      <trkpt lat="47.0013" lon="7.08858">
        <ele>432.1</ele>
        <time>2022-09-30T12:17:47Z</time>
      </trkpt>
      <trkpt lat="47.00131" lon="7.0885">
        <ele>432.1</ele>
        <time>2022-09-30T12:17:48Z</time>
      </trkpt>
      <trkpt lat="47.00132" lon="7.08841">
        <ele>432.1</ele>
        <time>2022-09-30T12:17:49Z</time>
      </trkpt>
      <trkpt lat="47.00134" lon="7.08833">
        <ele>432.1</ele>
        <time>2022-09-30T12:17:50Z</time>
      </trkpt>
      <trkpt lat="47.00135" lon="7.08825">
        <ele>432.1</ele>
        <time>2022-09-30T12:17:51Z</time>
      </trkpt>
      <trkpt lat="47.00136" lon="7.08817">
        <ele>432.1</ele>
        <time>2022-09-30T12:17:52Z</time>
      </trkpt>
      <trkpt lat="47.00137" lon="7.08809">
        <ele>432.1</ele>
        <time>2022-09-30T12:17:53Z</time>
      </trkpt>
      <trkpt lat="47.00138" lon="7.08801">
        <ele>432.1</ele>
        <time>2022-09-30T12:17:54Z</time>
      </trkpt>
      <trkpt lat="47.0014" lon="7.08793">
        <ele>432.1</ele>
        <time>2022-09-30T12:17:55Z</time>
      </trkpt>
      <trkpt lat="47.00141" lon="7.08785">
        <ele>432.1</ele>
        <time>2022-09-30T12:17:56Z</time>
      </trkpt>
      <trkpt lat="47.00142" lon="7.08778">
        <ele>432.1</ele>
        <time>2022-09-30T12:17:57Z</time>
      </trkpt>
      <trkpt lat="47.00144" lon="7.0877">
        <ele>432.1</ele>
        <time>2022-09-30T12:17:58Z</time>
      </trkpt>
      <trkpt lat="47.00146" lon="7.08762">
        <ele>432.2</ele>
        <time>2022-09-30T12:17:59Z</time>
      </trkpt>
      <trkpt lat="47.00147" lon="7.08754">
        <ele>432.2</ele>
        <time>2022-09-30T12:18:00Z</time>
      </trkpt>
      <trkpt lat="47.00148" lon="7.08746">
        <ele>432.2</ele>
        <time>2022-09-30T12:18:01Z</time>
      </trkpt>
      <trkpt lat="47.00149" lon="7.08738">
        <ele>432.3</ele>
        <time>2022-09-30T12:18:02Z</time>
      </trkpt>
      <trkpt lat="47.00151" lon="7.0873">
        <ele>432.3</ele>
        <time>2022-09-30T12:18:03Z</time>
      </trkpt>
      <trkpt lat="47.00152" lon="7.08722">
        <ele>432.3</ele>
        <time>2022-09-30T12:18:04Z</time>
      </trkpt>
      <trkpt lat="47.00153" lon="7.08714">
        <ele>432.4</ele>
        <time>2022-09-30T12:18:05Z</time>
      </trkpt>
      <trkpt lat="47.00155" lon="7.08706">
        <ele>432.4</ele>
        <time>2022-09-30T12:18:06Z</time>
      </trkpt>
      <trkpt lat="47.00156" lon="7.08699">
        <ele>432.4</ele>
        <time>2022-09-30T12:18:07Z</time>
      </trkpt>
      <trkpt lat="47.00157" lon="7.0869">
        <ele>432.4</ele>
        <time>2022-09-30T12:18:08Z</time>
      </trkpt>
      <trkpt lat="47.00159" lon="7.08683">
        <ele>432.4</ele>
        <time>2022-09-30T12:18:09Z</time>
      </trkpt>
      <trkpt lat="47.0016" lon="7.08675">
        <ele>432.5</ele>
        <time>2022-09-30T12:18:10Z</time>
      </trkpt>
      <trkpt lat="47.00162" lon="7.08667">
        <ele>432.5</ele>
        <time>2022-09-30T12:18:11Z</time>
      </trkpt>
      <trkpt lat="47.00163" lon="7.08659">
        <ele>432.5</ele>
        <time>2022-09-30T12:18:12Z</time>
      </trkpt>
      <trkpt lat="47.00165" lon="7.08652">
        <ele>432.5</ele>
        <time>2022-09-30T12:18:13Z</time>
      </trkpt>
      <trkpt lat="47.00167" lon="7.08644">
        <ele>432.5</ele>
        <time>2022-09-30T12:18:14Z</time>
      </trkpt>
      <trkpt lat="47.00168" lon="7.08636">
        <ele>432.5</ele>
        <time>2022-09-30T12:18:15Z</time>
      </trkpt>
      <trkpt lat="47.0017" lon="7.08627">
        <ele>432.5</ele>
        <time>2022-09-30T12:18:16Z</time>
      </trkpt>
      <trkpt lat="47.00172" lon="7.0862">
        <ele>432.5</ele>
        <time>2022-09-30T12:18:17Z</time>
      </trkpt>
      <trkpt lat="47.00173" lon="7.08612">
        <ele>432.5</ele>
        <time>2022-09-30T12:18:18Z</time>
      </trkpt>
      <trkpt lat="47.00175" lon="7.08604">
        <ele>432.4</ele>
        <time>2022-09-30T12:18:19Z</time>
      </trkpt>
      <trkpt lat="47.00177" lon="7.08596">
        <ele>432.4</ele>
        <time>2022-09-30T12:18:20Z</time>
      </trkpt>
      <trkpt lat="47.00179" lon="7.08588">
        <ele>432.4</ele>
        <time>2022-09-30T12:18:21Z</time>
      </trkpt>
      <trkpt lat="47.00181" lon="7.0858">
        <ele>432.4</ele>
        <time>2022-09-30T12:18:22Z</time>
      </trkpt>
      <trkpt lat="47.00183" lon="7.08572">
        <ele>432.4</ele>
        <time>2022-09-30T12:18:23Z</time>
      </trkpt>
      <trkpt lat="47.00185" lon="7.08563">
        <ele>432.3</ele>
        <time>2022-09-30T12:18:24Z</time>
      </trkpt>
      <trkpt lat="47.00186" lon="7.08555">
        <ele>432.3</ele>
        <time>2022-09-30T12:18:25Z</time>
      </trkpt>
      <trkpt lat="47.00188" lon="7.08548">
        <ele>432.3</ele>
        <time>2022-09-30T12:18:26Z</time>
      </trkpt>
      <trkpt lat="47.0019" lon="7.0854">
        <ele>432.4</ele>
        <time>2022-09-30T12:18:27Z</time>
      </trkpt>
      <trkpt lat="47.00192" lon="7.08531">
        <ele>432.4</ele>
        <time>2022-09-30T12:18:28Z</time>
      </trkpt>
      <trkpt lat="47.00194" lon="7.08524">
        <ele>432.5</ele>
        <time>2022-09-30T12:18:29Z</time>
      </trkpt>
      <trkpt lat="47.00196" lon="7.08516">
        <ele>432.5</ele>
        <time>2022-09-30T12:18:30Z</time>
      </trkpt>
      <trkpt lat="47.00198" lon="7.08508">
        <ele>432.5</ele>
        <time>2022-09-30T12:18:31Z</time>
      </trkpt>
      <trkpt lat="47.00199" lon="7.08501">
        <ele>432.5</ele>
        <time>2022-09-30T12:18:32Z</time>
      </trkpt>
      <trkpt lat="47.00201" lon="7.08493">
        <ele>432.5</ele>
        <time>2022-09-30T12:18:33Z</time>
      </trkpt>
      <trkpt lat="47.00203" lon="7.08485">
        <ele>432.5</ele>
        <time>2022-09-30T12:18:34Z</time>
      </trkpt>
      <trkpt lat="47.00205" lon="7.08477">
        <ele>432.6</ele>
        <time>2022-09-30T12:18:35Z</time>
      </trkpt>
      <trkpt lat="47.00208" lon="7.08469">
        <ele>432.6</ele>
        <time>2022-09-30T12:18:36Z</time>
      </trkpt>
      <trkpt lat="47.0021" lon="7.08461">
        <ele>432.7</ele>
        <time>2022-09-30T12:18:37Z</time>
      </trkpt>
      <trkpt lat="47.00212" lon="7.08453">
        <ele>432.7</ele>
        <time>2022-09-30T12:18:38Z</time>
      </trkpt>
      <trkpt lat="47.00214" lon="7.08445">
        <ele>432.8</ele>
        <time>2022-09-30T12:18:39Z</time>
      </trkpt>
      <trkpt lat="47.00216" lon="7.08437">
        <ele>432.9</ele>
        <time>2022-09-30T12:18:40Z</time>
      </trkpt>
      <trkpt lat="47.00218" lon="7.08429">
        <ele>432.9</ele>
        <time>2022-09-30T12:18:41Z</time>
      </trkpt>
      <trkpt lat="47.0022" lon="7.08421">
        <ele>432.9</ele>
        <time>2022-09-30T12:18:42Z</time>
      </trkpt>
      <trkpt lat="47.00222" lon="7.08414">
        <ele>433</ele>
        <time>2022-09-30T12:18:43Z</time>
      </trkpt>
      <trkpt lat="47.00224" lon="7.08406">
        <ele>433</ele>
        <time>2022-09-30T12:18:44Z</time>
      </trkpt>
      <trkpt lat="47.00226" lon="7.08397">
        <ele>433</ele>
        <time>2022-09-30T12:18:45Z</time>
      </trkpt>
      <trkpt lat="47.00228" lon="7.0839">
        <ele>433.1</ele>
        <time>2022-09-30T12:18:46Z</time>
      </trkpt>
      <trkpt lat="47.0023" lon="7.08382">
        <ele>433.1</ele>
        <time>2022-09-30T12:18:47Z</time>
      </trkpt>
      <trkpt lat="47.00232" lon="7.08374">
        <ele>433.1</ele>
        <time>2022-09-30T12:18:48Z</time>
      </trkpt>
      <trkpt lat="47.00235" lon="7.08367">
        <ele>433.1</ele>
        <time>2022-09-30T12:18:49Z</time>
      </trkpt>
      <trkpt lat="47.00236" lon="7.0836">
        <ele>433.2</ele>
        <time>2022-09-30T12:18:50Z</time>
      </trkpt>
      <trkpt lat="47.00239" lon="7.08352">
        <ele>433.2</ele>
        <time>2022-09-30T12:18:51Z</time>
      </trkpt>
      <trkpt lat="47.00241" lon="7.08344">
        <ele>433.2</ele>
        <time>2022-09-30T12:18:52Z</time>
      </trkpt>
      <trkpt lat="47.00243" lon="7.08338">
        <ele>433.2</ele>
        <time>2022-09-30T12:18:53Z</time>
      </trkpt>
      <trkpt lat="47.00246" lon="7.08331">
        <ele>433.2</ele>
        <time>2022-09-30T12:18:54Z</time>
      </trkpt>
      <trkpt lat="47.00248" lon="7.08323">
        <ele>433.2</ele>
        <time>2022-09-30T12:18:55Z</time>
      </trkpt>
      <trkpt lat="47.0025" lon="7.08316">
        <ele>433.3</ele>
        <time>2022-09-30T12:18:56Z</time>
      </trkpt>
      <trkpt lat="47.00254" lon="7.08309">
        <ele>433.3</ele>
        <time>2022-09-30T12:18:57Z</time>
      </trkpt>
      <trkpt lat="47.00257" lon="7.08303">
        <ele>433.3</ele>
        <time>2022-09-30T12:18:58Z</time>
      </trkpt>
      <trkpt lat="47.00262" lon="7.08296">
        <ele>433.3</ele>
        <time>2022-09-30T12:18:59Z</time>
      </trkpt>
      <trkpt lat="47.00266" lon="7.0829">
        <ele>433.3</ele>
        <time>2022-09-30T12:19:00Z</time>
      </trkpt>
      <trkpt lat="47.0027" lon="7.08285">
        <ele>433.4</ele>
        <time>2022-09-30T12:19:01Z</time>
      </trkpt>
      <trkpt lat="47.00275" lon="7.08279">
        <ele>433.4</ele>
        <time>2022-09-30T12:19:02Z</time>
      </trkpt>
      <trkpt lat="47.00279" lon="7.08274">
        <ele>433.4</ele>
        <time>2022-09-30T12:19:03Z</time>
      </trkpt>
      <trkpt lat="47.00283" lon="7.08269">
        <ele>433.4</ele>
        <time>2022-09-30T12:19:04Z</time>
      </trkpt>
      <trkpt lat="47.00288" lon="7.08264">
        <ele>433.5</ele>
        <time>2022-09-30T12:19:05Z</time>
      </trkpt>
      <trkpt lat="47.00292" lon="7.08258">
        <ele>433.5</ele>
        <time>2022-09-30T12:19:06Z</time>
      </trkpt>
      <trkpt lat="47.00296" lon="7.08253">
        <ele>433.5</ele>
        <time>2022-09-30T12:19:07Z</time>
      </trkpt>
      <trkpt lat="47.003" lon="7.08248">
        <ele>433.5</ele>
        <time>2022-09-30T12:19:08Z</time>
      </trkpt>
      <trkpt lat="47.00304" lon="7.08242">
        <ele>433.4</ele>
        <time>2022-09-30T12:19:09Z</time>
      </trkpt>
      <trkpt lat="47.00308" lon="7.08237">
        <ele>433.4</ele>
        <time>2022-09-30T12:19:10Z</time>
      </trkpt>
      <trkpt lat="47.00313" lon="7.08231">
        <ele>433.4</ele>
        <time>2022-09-30T12:19:11Z</time>
      </trkpt>
      <trkpt lat="47.00317" lon="7.08226">
        <ele>433.4</ele>
        <time>2022-09-30T12:19:12Z</time>
      </trkpt>
      <trkpt lat="47.00321" lon="7.0822">
        <ele>433.3</ele>
        <time>2022-09-30T12:19:13Z</time>
      </trkpt>
      <trkpt lat="47.00325" lon="7.08214">
        <ele>433.3</ele>
        <time>2022-09-30T12:19:14Z</time>
      </trkpt>
      <trkpt lat="47.0033" lon="7.08209">
        <ele>433.3</ele>
        <time>2022-09-30T12:19:15Z</time>
      </trkpt>
      <trkpt lat="47.00334" lon="7.08204">
        <ele>433.3</ele>
        <time>2022-09-30T12:19:16Z</time>
      </trkpt>
      <trkpt lat="47.00338" lon="7.08198">
        <ele>433.3</ele>
        <time>2022-09-30T12:19:17Z</time>
      </trkpt>
      <trkpt lat="47.00342" lon="7.08193">
        <ele>433.3</ele>
        <time>2022-09-30T12:19:18Z</time>
      </trkpt>
      <trkpt lat="47.00347" lon="7.08188">
        <ele>433.3</ele>
        <time>2022-09-30T12:19:19Z</time>
      </trkpt>
      <trkpt lat="47.00351" lon="7.08182">
        <ele>433.3</ele>
        <time>2022-09-30T12:19:20Z</time>
      </trkpt>
      <trkpt lat="47.00355" lon="7.08175">
        <ele>433.3</ele>
        <time>2022-09-30T12:19:21Z</time>
      </trkpt>
      <trkpt lat="47.00358" lon="7.08169">
        <ele>433.2</ele>
        <time>2022-09-30T12:19:22Z</time>
      </trkpt>
      <trkpt lat="47.00362" lon="7.08163">
        <ele>433.2</ele>
        <time>2022-09-30T12:19:23Z</time>
      </trkpt>
      <trkpt lat="47.00365" lon="7.08156">
        <ele>433.1</ele>
        <time>2022-09-30T12:19:24Z</time>
      </trkpt>
      <trkpt lat="47.00366" lon="7.08148">
        <ele>433.1</ele>
        <time>2022-09-30T12:19:25Z</time>
      </trkpt>
      <trkpt lat="47.00367" lon="7.0814">
        <ele>433</ele>
        <time>2022-09-30T12:19:26Z</time>
      </trkpt>
      <trkpt lat="47.0037" lon="7.08132">
        <ele>433</ele>
        <time>2022-09-30T12:19:27Z</time>
      </trkpt>
      <trkpt lat="47.00371" lon="7.08123">
        <ele>432.9</ele>
        <time>2022-09-30T12:19:28Z</time>
      </trkpt>
      <trkpt lat="47.00372" lon="7.08115">
        <ele>432.9</ele>
        <time>2022-09-30T12:19:29Z</time>
      </trkpt>
      <trkpt lat="47.00373" lon="7.08107">
        <ele>432.9</ele>
        <time>2022-09-30T12:19:30Z</time>
      </trkpt>
      <trkpt lat="47.00375" lon="7.08099">
        <ele>432.9</ele>
        <time>2022-09-30T12:19:31Z</time>
      </trkpt>
      <trkpt lat="47.00375" lon="7.08094">
        <ele>432.9</ele>
        <time>2022-09-30T12:19:32Z</time>
      </trkpt>
      <trkpt lat="47.00377" lon="7.08089">
        <ele>432.9</ele>
        <time>2022-09-30T12:19:33Z</time>
      </trkpt>
      <trkpt lat="47.00378" lon="7.08083">
        <ele>432.8</ele>
        <time>2022-09-30T12:19:34Z</time>
      </trkpt>
      <trkpt lat="47.00379" lon="7.08077">
        <ele>432.8</ele>
        <time>2022-09-30T12:19:35Z</time>
      </trkpt>
      <trkpt lat="47.0038" lon="7.0807">
        <ele>432.8</ele>
        <time>2022-09-30T12:19:36Z</time>
      </trkpt>
      <trkpt lat="47.00381" lon="7.08063">
        <ele>432.8</ele>
        <time>2022-09-30T12:19:37Z</time>
      </trkpt>
      <trkpt lat="47.00381" lon="7.08056">
        <ele>432.7</ele>
        <time>2022-09-30T12:19:38Z</time>
      </trkpt>
      <trkpt lat="47.00382" lon="7.08049">
        <ele>432.7</ele>
        <time>2022-09-30T12:19:39Z</time>
      </trkpt>
      <trkpt lat="47.00383" lon="7.08042">
        <ele>432.7</ele>
        <time>2022-09-30T12:19:40Z</time>
      </trkpt>
      <trkpt lat="47.00383" lon="7.08034">
        <ele>432.7</ele>
        <time>2022-09-30T12:19:41Z</time>
      </trkpt>
      <trkpt lat="47.00384" lon="7.08027">
        <ele>432.7</ele>
        <time>2022-09-30T12:19:42Z</time>
      </trkpt>
      <trkpt lat="47.00385" lon="7.08019">
        <ele>432.7</ele>
        <time>2022-09-30T12:19:43Z</time>
      </trkpt>
      <trkpt lat="47.00385" lon="7.08012">
        <ele>432.7</ele>
        <time>2022-09-30T12:19:44Z</time>
      </trkpt>
      <trkpt lat="47.00387" lon="7.08004">
        <ele>432.7</ele>
        <time>2022-09-30T12:19:45Z</time>
      </trkpt>
      <trkpt lat="47.00388" lon="7.07997">
        <ele>432.8</ele>
        <time>2022-09-30T12:19:46Z</time>
      </trkpt>
      <trkpt lat="47.0039" lon="7.07989">
        <ele>432.8</ele>
        <time>2022-09-30T12:19:47Z</time>
      </trkpt>
      <trkpt lat="47.00391" lon="7.07982">
        <ele>432.8</ele>
        <time>2022-09-30T12:19:48Z</time>
      </trkpt>
      <trkpt lat="47.00393" lon="7.07974">
        <ele>432.8</ele>
        <time>2022-09-30T12:19:49Z</time>
      </trkpt>
      <trkpt lat="47.00394" lon="7.07967">
        <ele>432.8</ele>
        <time>2022-09-30T12:19:50Z</time>
      </trkpt>
      <trkpt lat="47.00397" lon="7.07959">
        <ele>432.8</ele>
        <time>2022-09-30T12:19:51Z</time>
      </trkpt>
      <trkpt lat="47.004" lon="7.07952">
        <ele>432.8</ele>
        <time>2022-09-30T12:19:52Z</time>
      </trkpt>
      <trkpt lat="47.00402" lon="7.07945">
        <ele>432.9</ele>
        <time>2022-09-30T12:19:53Z</time>
      </trkpt>
      <trkpt lat="47.00405" lon="7.07938">
        <ele>432.9</ele>
        <time>2022-09-30T12:19:54Z</time>
      </trkpt>
      <trkpt lat="47.00407" lon="7.07932">
        <ele>433</ele>
        <time>2022-09-30T12:19:55Z</time>
      </trkpt>
      <trkpt lat="47.0041" lon="7.07926">
        <ele>433</ele>
        <time>2022-09-30T12:19:56Z</time>
      </trkpt>
      <trkpt lat="47.00412" lon="7.0792">
        <ele>433</ele>
        <time>2022-09-30T12:19:57Z</time>
      </trkpt>
      <trkpt lat="47.00415" lon="7.07914">
        <ele>433.1</ele>
        <time>2022-09-30T12:19:58Z</time>
      </trkpt>
      <trkpt lat="47.00417" lon="7.07908">
        <ele>433.1</ele>
        <time>2022-09-30T12:19:59Z</time>
      </trkpt>
      <trkpt lat="47.0042" lon="7.07903">
        <ele>433.1</ele>
        <time>2022-09-30T12:20:00Z</time>
      </trkpt>
      <trkpt lat="47.00421" lon="7.07896">
        <ele>433.1</ele>
        <time>2022-09-30T12:20:01Z</time>
      </trkpt>
      <trkpt lat="47.00422" lon="7.0789">
        <ele>433.2</ele>
        <time>2022-09-30T12:20:02Z</time>
      </trkpt>
      <trkpt lat="47.00422" lon="7.07882">
        <ele>433.2</ele>
        <time>2022-09-30T12:20:03Z</time>
      </trkpt>
      <trkpt lat="47.00424" lon="7.07876">
        <ele>433.2</ele>
        <time>2022-09-30T12:20:04Z</time>
      </trkpt>
      <trkpt lat="47.00426" lon="7.0787">
        <ele>433.3</ele>
        <time>2022-09-30T12:20:05Z</time>
      </trkpt>
      <trkpt lat="47.00427" lon="7.07864">
        <ele>433.3</ele>
        <time>2022-09-30T12:20:06Z</time>
      </trkpt>
      <trkpt lat="47.00427" lon="7.07858">
        <ele>433.3</ele>
        <time>2022-09-30T12:20:07Z</time>
      </trkpt>
      <trkpt lat="47.00429" lon="7.07853">
        <ele>433.4</ele>
        <time>2022-09-30T12:20:08Z</time>
      </trkpt>
      <trkpt lat="47.00432" lon="7.07846">
        <ele>433.4</ele>
        <time>2022-09-30T12:20:09Z</time>
      </trkpt>
      <trkpt lat="47.00434" lon="7.07841">
        <ele>433.4</ele>
        <time>2022-09-30T12:20:10Z</time>
      </trkpt>
      <trkpt lat="47.00436" lon="7.07835">
        <ele>433.4</ele>
        <time>2022-09-30T12:20:11Z</time>
      </trkpt>
      <trkpt lat="47.00437" lon="7.07829">
        <ele>433.4</ele>
        <time>2022-09-30T12:20:12Z</time>
      </trkpt>
      <trkpt lat="47.00441" lon="7.07821">
        <ele>433.4</ele>
        <time>2022-09-30T12:20:13Z</time>
      </trkpt>
      <trkpt lat="47.00444" lon="7.07814">
        <ele>433.3</ele>
        <time>2022-09-30T12:20:14Z</time>
      </trkpt>
      <trkpt lat="47.00446" lon="7.07807">
        <ele>433.3</ele>
        <time>2022-09-30T12:20:15Z</time>
      </trkpt>
      <trkpt lat="47.00448" lon="7.07799">
        <ele>433.3</ele>
        <time>2022-09-30T12:20:16Z</time>
      </trkpt>
      <trkpt lat="47.00451" lon="7.07791">
        <ele>433.3</ele>
        <time>2022-09-30T12:20:17Z</time>
      </trkpt>
      <trkpt lat="47.00452" lon="7.07786">
        <ele>433.2</ele>
        <time>2022-09-30T12:20:18Z</time>
      </trkpt>
      <trkpt lat="47.00454" lon="7.07779">
        <ele>433.2</ele>
        <time>2022-09-30T12:20:19Z</time>
      </trkpt>
      <trkpt lat="47.00456" lon="7.07772">
        <ele>433.2</ele>
        <time>2022-09-30T12:20:20Z</time>
      </trkpt>
      <trkpt lat="47.00458" lon="7.07765">
        <ele>433.2</ele>
        <time>2022-09-30T12:20:21Z</time>
      </trkpt>
      <trkpt lat="47.00461" lon="7.07758">
        <ele>433.2</ele>
        <time>2022-09-30T12:20:22Z</time>
      </trkpt>
      <trkpt lat="47.00463" lon="7.07753">
        <ele>433.2</ele>
        <time>2022-09-30T12:20:23Z</time>
      </trkpt>
      <trkpt lat="47.00466" lon="7.07749">
        <ele>433.2</ele>
        <time>2022-09-30T12:20:24Z</time>
      </trkpt>
      <trkpt lat="47.00469" lon="7.07746">
        <ele>433.2</ele>
        <time>2022-09-30T12:20:25Z</time>
      </trkpt>
      <trkpt lat="47.00472" lon="7.07744">
        <ele>433.2</ele>
        <time>2022-09-30T12:20:26Z</time>
      </trkpt>
      <trkpt lat="47.00476" lon="7.0774">
        <ele>433.2</ele>
        <time>2022-09-30T12:20:27Z</time>
      </trkpt>
      <trkpt lat="47.00477" lon="7.07738">
        <ele>433.2</ele>
        <time>2022-09-30T12:20:28Z</time>
      </trkpt>
      <trkpt lat="47.00479" lon="7.07733">
        <ele>433.2</ele>
        <time>2022-09-30T12:20:29Z</time>
      </trkpt>
      <trkpt lat="47.00481" lon="7.07729">
        <ele>433.1</ele>
        <time>2022-09-30T12:20:30Z</time>
      </trkpt>
      <trkpt lat="47.00483" lon="7.07724">
        <ele>433.1</ele>
        <time>2022-09-30T12:20:31Z</time>
      </trkpt>
      <trkpt lat="47.00483" lon="7.07719">
        <ele>433.1</ele>
        <time>2022-09-30T12:20:32Z</time>
      </trkpt>
      <trkpt lat="47.00484" lon="7.07713">
        <ele>433.1</ele>
        <time>2022-09-30T12:20:33Z</time>
      </trkpt>
      <trkpt lat="47.00484" lon="7.07707">
        <ele>433.1</ele>
        <time>2022-09-30T12:20:34Z</time>
      </trkpt>
      <trkpt lat="47.00484" lon="7.07701">
        <ele>433</ele>
        <time>2022-09-30T12:20:35Z</time>
      </trkpt>
      <trkpt lat="47.00485" lon="7.07694">
        <ele>433</ele>
        <time>2022-09-30T12:20:36Z</time>
      </trkpt>
      <trkpt lat="47.00486" lon="7.07689">
        <ele>433</ele>
        <time>2022-09-30T12:20:37Z</time>
      </trkpt>
      <trkpt lat="47.00488" lon="7.07683">
        <ele>433</ele>
        <time>2022-09-30T12:20:38Z</time>
      </trkpt>
      <trkpt lat="47.0049" lon="7.07676">
        <ele>433</ele>
        <time>2022-09-30T12:20:39Z</time>
      </trkpt>
      <trkpt lat="47.00493" lon="7.07671">
        <ele>433</ele>
        <time>2022-09-30T12:20:40Z</time>
      </trkpt>
      <trkpt lat="47.00497" lon="7.07665">
        <ele>433</ele>
        <time>2022-09-30T12:20:41Z</time>
      </trkpt>
      <trkpt lat="47.005" lon="7.07661">
        <ele>432.9</ele>
        <time>2022-09-30T12:20:42Z</time>
      </trkpt>
      <trkpt lat="47.00503" lon="7.07658">
        <ele>432.9</ele>
        <time>2022-09-30T12:20:43Z</time>
      </trkpt>
      <trkpt lat="47.00507" lon="7.07653">
        <ele>432.9</ele>
        <time>2022-09-30T12:20:44Z</time>
      </trkpt>
      <trkpt lat="47.0051" lon="7.07646">
        <ele>433</ele>
        <time>2022-09-30T12:20:45Z</time>
      </trkpt>
      <trkpt lat="47.00512" lon="7.07641">
        <ele>433</ele>
        <time>2022-09-30T12:20:46Z</time>
      </trkpt>
      <trkpt lat="47.00516" lon="7.07638">
        <ele>433</ele>
        <time>2022-09-30T12:20:47Z</time>
      </trkpt>
      <trkpt lat="47.0052" lon="7.07634">
        <ele>433</ele>
        <time>2022-09-30T12:20:48Z</time>
      </trkpt>
      <trkpt lat="47.00523" lon="7.07629">
        <ele>433</ele>
        <time>2022-09-30T12:20:49Z</time>
      </trkpt>
      <trkpt lat="47.00527" lon="7.07624">
        <ele>433</ele>
        <time>2022-09-30T12:20:50Z</time>
      </trkpt>
      <trkpt lat="47.00531" lon="7.07622">
        <ele>433</ele>
        <time>2022-09-30T12:20:51Z</time>
      </trkpt>
      <trkpt lat="47.00534" lon="7.07618">
        <ele>433.1</ele>
        <time>2022-09-30T12:20:52Z</time>
      </trkpt>
      <trkpt lat="47.00537" lon="7.07614">
        <ele>433.1</ele>
        <time>2022-09-30T12:20:53Z</time>
      </trkpt>
      <trkpt lat="47.00539" lon="7.07609">
        <ele>433.1</ele>
        <time>2022-09-30T12:20:54Z</time>
      </trkpt>
      <trkpt lat="47.0054" lon="7.07607">
        <ele>433.1</ele>
        <time>2022-09-30T12:20:55Z</time>
      </trkpt>
      <trkpt lat="47.00542" lon="7.07601">
        <ele>433.1</ele>
        <time>2022-09-30T12:20:56Z</time>
      </trkpt>
      <trkpt lat="47.00544" lon="7.07595">
        <ele>433.1</ele>
        <time>2022-09-30T12:20:57Z</time>
      </trkpt>
      <trkpt lat="47.00546" lon="7.07589">
        <ele>433.1</ele>
        <time>2022-09-30T12:20:58Z</time>
      </trkpt>
      <trkpt lat="47.00548" lon="7.07584">
        <ele>433.1</ele>
        <time>2022-09-30T12:20:59Z</time>
      </trkpt>
      <trkpt lat="47.0055" lon="7.07577">
        <ele>433.1</ele>
        <time>2022-09-30T12:21:00Z</time>
      </trkpt>
      <trkpt lat="47.00553" lon="7.07571">
        <ele>433.1</ele>
        <time>2022-09-30T12:21:01Z</time>
      </trkpt>
      <trkpt lat="47.00555" lon="7.07566">
        <ele>433</ele>
        <time>2022-09-30T12:21:02Z</time>
      </trkpt>
      <trkpt lat="47.00558" lon="7.07561">
        <ele>433</ele>
        <time>2022-09-30T12:21:03Z</time>
      </trkpt>
      <trkpt lat="47.00561" lon="7.07554">
        <ele>433</ele>
        <time>2022-09-30T12:21:04Z</time>
      </trkpt>
      <trkpt lat="47.00565" lon="7.07549">
        <ele>433</ele>
        <time>2022-09-30T12:21:05Z</time>
      </trkpt>
      <trkpt lat="47.00568" lon="7.07544">
        <ele>433</ele>
        <time>2022-09-30T12:21:06Z</time>
      </trkpt>
      <trkpt lat="47.00571" lon="7.07539">
        <ele>432.9</ele>
        <time>2022-09-30T12:21:07Z</time>
      </trkpt>
      <trkpt lat="47.00574" lon="7.07533">
        <ele>432.9</ele>
        <time>2022-09-30T12:21:08Z</time>
      </trkpt>
      <trkpt lat="47.00578" lon="7.07527">
        <ele>432.9</ele>
        <time>2022-09-30T12:21:09Z</time>
      </trkpt>
      <trkpt lat="47.0058" lon="7.07522">
        <ele>432.9</ele>
        <time>2022-09-30T12:21:10Z</time>
      </trkpt>
      <trkpt lat="47.00584" lon="7.07517">
        <ele>432.9</ele>
        <time>2022-09-30T12:21:11Z</time>
      </trkpt>
      <trkpt lat="47.00588" lon="7.07511">
        <ele>432.8</ele>
        <time>2022-09-30T12:21:12Z</time>
      </trkpt>
      <trkpt lat="47.0059" lon="7.07505">
        <ele>432.8</ele>
        <time>2022-09-30T12:21:13Z</time>
      </trkpt>
      <trkpt lat="47.00594" lon="7.07498">
        <ele>432.8</ele>
        <time>2022-09-30T12:21:14Z</time>
      </trkpt>
      <trkpt lat="47.00596" lon="7.07492">
        <ele>432.8</ele>
        <time>2022-09-30T12:21:15Z</time>
      </trkpt>
      <trkpt lat="47.00599" lon="7.07487">
        <ele>432.8</ele>
        <time>2022-09-30T12:21:16Z</time>
      </trkpt>
      <trkpt lat="47.00602" lon="7.0748">
        <ele>432.8</ele>
        <time>2022-09-30T12:21:17Z</time>
      </trkpt>
      <trkpt lat="47.00605" lon="7.07473">
        <ele>432.8</ele>
        <time>2022-09-30T12:21:18Z</time>
      </trkpt>
      <trkpt lat="47.00607" lon="7.07466">
        <ele>432.8</ele>
        <time>2022-09-30T12:21:19Z</time>
      </trkpt>
      <trkpt lat="47.00609" lon="7.0746">
        <ele>432.7</ele>
        <time>2022-09-30T12:21:20Z</time>
      </trkpt>
      <trkpt lat="47.00612" lon="7.07453">
        <ele>432.7</ele>
        <time>2022-09-30T12:21:21Z</time>
      </trkpt>
      <trkpt lat="47.00615" lon="7.07446">
        <ele>432.7</ele>
        <time>2022-09-30T12:21:22Z</time>
      </trkpt>
      <trkpt lat="47.00617" lon="7.07438">
        <ele>432.7</ele>
        <time>2022-09-30T12:21:23Z</time>
      </trkpt>
      <trkpt lat="47.00619" lon="7.07431">
        <ele>432.7</ele>
        <time>2022-09-30T12:21:24Z</time>
      </trkpt>
      <trkpt lat="47.00621" lon="7.07423">
        <ele>432.7</ele>
        <time>2022-09-30T12:21:25Z</time>
      </trkpt>
      <trkpt lat="47.00623" lon="7.07415">
        <ele>432.7</ele>
        <time>2022-09-30T12:21:26Z</time>
      </trkpt>
      <trkpt lat="47.00625" lon="7.07409">
        <ele>432.7</ele>
        <time>2022-09-30T12:21:27Z</time>
      </trkpt>
      <trkpt lat="47.00627" lon="7.07401">
        <ele>432.7</ele>
        <time>2022-09-30T12:21:28Z</time>
      </trkpt>
      <trkpt lat="47.00629" lon="7.07393">
        <ele>432.7</ele>
        <time>2022-09-30T12:21:29Z</time>
      </trkpt>
      <trkpt lat="47.00631" lon="7.07386">
        <ele>432.8</ele>
        <time>2022-09-30T12:21:30Z</time>
      </trkpt>
      <trkpt lat="47.00633" lon="7.07379">
        <ele>432.8</ele>
        <time>2022-09-30T12:21:31Z</time>
      </trkpt>
      <trkpt lat="47.00635" lon="7.07371">
        <ele>432.8</ele>
        <time>2022-09-30T12:21:32Z</time>
      </trkpt>
      <trkpt lat="47.00637" lon="7.07364">
        <ele>432.8</ele>
        <time>2022-09-30T12:21:33Z</time>
      </trkpt>
      <trkpt lat="47.00639" lon="7.07356">
        <ele>432.8</ele>
        <time>2022-09-30T12:21:34Z</time>
      </trkpt>
      <trkpt lat="47.00641" lon="7.07348">
        <ele>432.8</ele>
        <time>2022-09-30T12:21:35Z</time>
      </trkpt>
      <trkpt lat="47.00643" lon="7.07341">
        <ele>432.8</ele>
        <time>2022-09-30T12:21:36Z</time>
      </trkpt>
      <trkpt lat="47.00645" lon="7.07334">
        <ele>432.8</ele>
        <time>2022-09-30T12:21:37Z</time>
      </trkpt>
      <trkpt lat="47.00647" lon="7.07326">
        <ele>432.8</ele>
        <time>2022-09-30T12:21:38Z</time>
      </trkpt>
      <trkpt lat="47.00649" lon="7.07318">
        <ele>432.8</ele>
        <time>2022-09-30T12:21:39Z</time>
      </trkpt>
      <trkpt lat="47.00651" lon="7.07311">
        <ele>432.8</ele>
        <time>2022-09-30T12:21:40Z</time>
      </trkpt>
      <trkpt lat="47.00653" lon="7.07305">
        <ele>432.8</ele>
        <time>2022-09-30T12:21:41Z</time>
      </trkpt>
      <trkpt lat="47.00656" lon="7.07297">
        <ele>432.8</ele>
        <time>2022-09-30T12:21:42Z</time>
      </trkpt>
      <trkpt lat="47.00657" lon="7.0729">
        <ele>432.8</ele>
        <time>2022-09-30T12:21:43Z</time>
      </trkpt>
      <trkpt lat="47.00659" lon="7.07283">
        <ele>432.8</ele>
        <time>2022-09-30T12:21:44Z</time>
      </trkpt>
      <trkpt lat="47.00661" lon="7.07276">
        <ele>432.8</ele>
        <time>2022-09-30T12:21:45Z</time>
      </trkpt>
      <trkpt lat="47.00663" lon="7.07268">
        <ele>432.8</ele>
        <time>2022-09-30T12:21:46Z</time>
      </trkpt>
      <trkpt lat="47.00665" lon="7.07261">
        <ele>432.8</ele>
        <time>2022-09-30T12:21:47Z</time>
      </trkpt>
      <trkpt lat="47.00667" lon="7.07254">
        <ele>432.8</ele>
        <time>2022-09-30T12:21:48Z</time>
      </trkpt>
      <trkpt lat="47.00669" lon="7.07247">
        <ele>432.8</ele>
        <time>2022-09-30T12:21:49Z</time>
      </trkpt>
      <trkpt lat="47.00671" lon="7.0724">
        <ele>432.8</ele>
        <time>2022-09-30T12:21:50Z</time>
      </trkpt>
      <trkpt lat="47.00673" lon="7.07232">
        <ele>432.8</ele>
        <time>2022-09-30T12:21:51Z</time>
      </trkpt>
      <trkpt lat="47.00676" lon="7.07225">
        <ele>432.7</ele>
        <time>2022-09-30T12:21:52Z</time>
      </trkpt>
      <trkpt lat="47.00677" lon="7.07218">
        <ele>432.7</ele>
        <time>2022-09-30T12:21:53Z</time>
      </trkpt>
      <trkpt lat="47.00679" lon="7.0721">
        <ele>432.6</ele>
        <time>2022-09-30T12:21:54Z</time>
      </trkpt>
      <trkpt lat="47.00681" lon="7.07202">
        <ele>432.6</ele>
        <time>2022-09-30T12:21:55Z</time>
      </trkpt>
      <trkpt lat="47.00683" lon="7.07196">
        <ele>432.6</ele>
        <time>2022-09-30T12:21:56Z</time>
      </trkpt>
      <trkpt lat="47.00686" lon="7.07187">
        <ele>432.6</ele>
        <time>2022-09-30T12:21:57Z</time>
      </trkpt>
      <trkpt lat="47.00688" lon="7.0718">
        <ele>432.6</ele>
        <time>2022-09-30T12:21:58Z</time>
      </trkpt>
      <trkpt lat="47.0069" lon="7.07173">
        <ele>432.7</ele>
        <time>2022-09-30T12:21:59Z</time>
      </trkpt>
      <trkpt lat="47.00692" lon="7.07165">
        <ele>432.7</ele>
        <time>2022-09-30T12:22:00Z</time>
      </trkpt>
      <trkpt lat="47.00694" lon="7.07158">
        <ele>432.7</ele>
        <time>2022-09-30T12:22:01Z</time>
      </trkpt>
      <trkpt lat="47.00696" lon="7.0715">
        <ele>432.7</ele>
        <time>2022-09-30T12:22:02Z</time>
      </trkpt>
      <trkpt lat="47.00697" lon="7.07142">
        <ele>432.7</ele>
        <time>2022-09-30T12:22:03Z</time>
      </trkpt>
      <trkpt lat="47.007" lon="7.07135">
        <ele>432.7</ele>
        <time>2022-09-30T12:22:04Z</time>
      </trkpt>
      <trkpt lat="47.00703" lon="7.07127">
        <ele>432.7</ele>
        <time>2022-09-30T12:22:05Z</time>
      </trkpt>
      <trkpt lat="47.00704" lon="7.07119">
        <ele>432.6</ele>
        <time>2022-09-30T12:22:06Z</time>
      </trkpt>
      <trkpt lat="47.00705" lon="7.07112">
        <ele>432.6</ele>
        <time>2022-09-30T12:22:07Z</time>
      </trkpt>
      <trkpt lat="47.00708" lon="7.07103">
        <ele>432.6</ele>
        <time>2022-09-30T12:22:08Z</time>
      </trkpt>
      <trkpt lat="47.00711" lon="7.07095">
        <ele>432.6</ele>
        <time>2022-09-30T12:22:09Z</time>
      </trkpt>
      <trkpt lat="47.00713" lon="7.07087">
        <ele>432.6</ele>
        <time>2022-09-30T12:22:10Z</time>
      </trkpt>
      <trkpt lat="47.00714" lon="7.07081">
        <ele>432.6</ele>
        <time>2022-09-30T12:22:11Z</time>
      </trkpt>
      <trkpt lat="47.00716" lon="7.07073">
        <ele>432.6</ele>
        <time>2022-09-30T12:22:12Z</time>
      </trkpt>
      <trkpt lat="47.00719" lon="7.07066">
        <ele>432.6</ele>
        <time>2022-09-30T12:22:13Z</time>
      </trkpt>
      <trkpt lat="47.00721" lon="7.07059">
        <ele>432.6</ele>
        <time>2022-09-30T12:22:14Z</time>
      </trkpt>
      <trkpt lat="47.00723" lon="7.07051">
        <ele>432.5</ele>
        <time>2022-09-30T12:22:15Z</time>
      </trkpt>
      <trkpt lat="47.00725" lon="7.07044">
        <ele>432.4</ele>
        <time>2022-09-30T12:22:16Z</time>
      </trkpt>
      <trkpt lat="47.00727" lon="7.07037">
        <ele>432.4</ele>
        <time>2022-09-30T12:22:17Z</time>
      </trkpt>
      <trkpt lat="47.00729" lon="7.07029">
        <ele>432.4</ele>
        <time>2022-09-30T12:22:18Z</time>
      </trkpt>
      <trkpt lat="47.00731" lon="7.07022">
        <ele>432.4</ele>
        <time>2022-09-30T12:22:19Z</time>
      </trkpt>
      <trkpt lat="47.00733" lon="7.07015">
        <ele>432.4</ele>
        <time>2022-09-30T12:22:20Z</time>
      </trkpt>
      <trkpt lat="47.00736" lon="7.07007">
        <ele>432.4</ele>
        <time>2022-09-30T12:22:21Z</time>
      </trkpt>
      <trkpt lat="47.00737" lon="7.07">
        <ele>432.4</ele>
        <time>2022-09-30T12:22:22Z</time>
      </trkpt>
      <trkpt lat="47.00739" lon="7.06992">
        <ele>432.4</ele>
        <time>2022-09-30T12:22:23Z</time>
      </trkpt>
      <trkpt lat="47.00741" lon="7.06984">
        <ele>432.4</ele>
        <time>2022-09-30T12:22:24Z</time>
      </trkpt>
      <trkpt lat="47.00743" lon="7.06977">
        <ele>432.4</ele>
        <time>2022-09-30T12:22:25Z</time>
      </trkpt>
      <trkpt lat="47.00745" lon="7.0697">
        <ele>432.4</ele>
        <time>2022-09-30T12:22:26Z</time>
      </trkpt>
      <trkpt lat="47.00747" lon="7.06962">
        <ele>432.4</ele>
        <time>2022-09-30T12:22:27Z</time>
      </trkpt>
      <trkpt lat="47.00749" lon="7.06955">
        <ele>432.4</ele>
        <time>2022-09-30T12:22:28Z</time>
      </trkpt>
      <trkpt lat="47.00751" lon="7.06947">
        <ele>432.4</ele>
        <time>2022-09-30T12:22:29Z</time>
      </trkpt>
      <trkpt lat="47.00753" lon="7.0694">
        <ele>432.4</ele>
        <time>2022-09-30T12:22:30Z</time>
      </trkpt>
      <trkpt lat="47.00755" lon="7.06933">
        <ele>432.5</ele>
        <time>2022-09-30T12:22:31Z</time>
      </trkpt>
      <trkpt lat="47.00757" lon="7.06926">
        <ele>432.5</ele>
        <time>2022-09-30T12:22:32Z</time>
      </trkpt>
      <trkpt lat="47.00759" lon="7.06919">
        <ele>432.5</ele>
        <time>2022-09-30T12:22:33Z</time>
      </trkpt>
      <trkpt lat="47.00761" lon="7.06912">
        <ele>432.5</ele>
        <time>2022-09-30T12:22:34Z</time>
      </trkpt>
      <trkpt lat="47.00763" lon="7.06905">
        <ele>432.5</ele>
        <time>2022-09-30T12:22:35Z</time>
      </trkpt>
      <trkpt lat="47.00765" lon="7.06898">
        <ele>432.5</ele>
        <time>2022-09-30T12:22:36Z</time>
      </trkpt>
      <trkpt lat="47.00767" lon="7.06891">
        <ele>432.5</ele>
        <time>2022-09-30T12:22:37Z</time>
      </trkpt>
      <trkpt lat="47.00768" lon="7.06883">
        <ele>432.5</ele>
        <time>2022-09-30T12:22:38Z</time>
      </trkpt>
      <trkpt lat="47.0077" lon="7.06876">
        <ele>432.5</ele>
        <time>2022-09-30T12:22:39Z</time>
      </trkpt>
      <trkpt lat="47.00772" lon="7.06869">
        <ele>432.5</ele>
        <time>2022-09-30T12:22:40Z</time>
      </trkpt>
      <trkpt lat="47.00774" lon="7.06862">
        <ele>432.5</ele>
        <time>2022-09-30T12:22:41Z</time>
      </trkpt>
      <trkpt lat="47.00777" lon="7.06854">
        <ele>432.5</ele>
        <time>2022-09-30T12:22:42Z</time>
      </trkpt>
      <trkpt lat="47.00779" lon="7.06846">
        <ele>432.5</ele>
        <time>2022-09-30T12:22:43Z</time>
      </trkpt>
      <trkpt lat="47.00781" lon="7.06839">
        <ele>432.5</ele>
        <time>2022-09-30T12:22:44Z</time>
      </trkpt>
      <trkpt lat="47.00783" lon="7.06832">
        <ele>432.5</ele>
        <time>2022-09-30T12:22:45Z</time>
      </trkpt>
      <trkpt lat="47.00785" lon="7.06824">
        <ele>432.5</ele>
        <time>2022-09-30T12:22:46Z</time>
      </trkpt>
      <trkpt lat="47.00787" lon="7.06816">
        <ele>432.5</ele>
        <time>2022-09-30T12:22:47Z</time>
      </trkpt>
      <trkpt lat="47.00789" lon="7.06808">
        <ele>432.5</ele>
        <time>2022-09-30T12:22:48Z</time>
      </trkpt>
      <trkpt lat="47.00792" lon="7.06801">
        <ele>432.5</ele>
        <time>2022-09-30T12:22:49Z</time>
      </trkpt>
      <trkpt lat="47.00793" lon="7.06794">
        <ele>432.6</ele>
        <time>2022-09-30T12:22:50Z</time>
      </trkpt>
      <trkpt lat="47.00796" lon="7.06786">
        <ele>432.6</ele>
        <time>2022-09-30T12:22:51Z</time>
      </trkpt>
      <trkpt lat="47.00798" lon="7.06779">
        <ele>432.6</ele>
        <time>2022-09-30T12:22:52Z</time>
      </trkpt>
      <trkpt lat="47.008" lon="7.06771">
        <ele>432.6</ele>
        <time>2022-09-30T12:22:53Z</time>
      </trkpt>
      <trkpt lat="47.00802" lon="7.06763">
        <ele>432.6</ele>
        <time>2022-09-30T12:22:54Z</time>
      </trkpt>
      <trkpt lat="47.00805" lon="7.06756">
        <ele>432.6</ele>
        <time>2022-09-30T12:22:55Z</time>
      </trkpt>
      <trkpt lat="47.00806" lon="7.06749">
        <ele>432.6</ele>
        <time>2022-09-30T12:22:56Z</time>
      </trkpt>
      <trkpt lat="47.00807" lon="7.06742">
        <ele>432.6</ele>
        <time>2022-09-30T12:22:57Z</time>
      </trkpt>
      <trkpt lat="47.00811" lon="7.06734">
        <ele>432.6</ele>
        <time>2022-09-30T12:22:58Z</time>
      </trkpt>
      <trkpt lat="47.00813" lon="7.06726">
        <ele>432.6</ele>
        <time>2022-09-30T12:22:59Z</time>
      </trkpt>
      <trkpt lat="47.00814" lon="7.06718">
        <ele>432.6</ele>
        <time>2022-09-30T12:23:00Z</time>
      </trkpt>
      <trkpt lat="47.00816" lon="7.0671">
        <ele>432.6</ele>
        <time>2022-09-30T12:23:01Z</time>
      </trkpt>
      <trkpt lat="47.00819" lon="7.06702">
        <ele>432.5</ele>
        <time>2022-09-30T12:23:02Z</time>
      </trkpt>
      <trkpt lat="47.00821" lon="7.06695">
        <ele>432.5</ele>
        <time>2022-09-30T12:23:03Z</time>
      </trkpt>
      <trkpt lat="47.00823" lon="7.06687">
        <ele>432.5</ele>
        <time>2022-09-30T12:23:04Z</time>
      </trkpt>
      <trkpt lat="47.00825" lon="7.06679">
        <ele>432.5</ele>
        <time>2022-09-30T12:23:05Z</time>
      </trkpt>
      <trkpt lat="47.00827" lon="7.06672">
        <ele>432.5</ele>
        <time>2022-09-30T12:23:06Z</time>
      </trkpt>
      <trkpt lat="47.00829" lon="7.06664">
        <ele>432.5</ele>
        <time>2022-09-30T12:23:07Z</time>
      </trkpt>
      <trkpt lat="47.00832" lon="7.06657">
        <ele>432.5</ele>
        <time>2022-09-30T12:23:08Z</time>
      </trkpt>
      <trkpt lat="47.00834" lon="7.06649">
        <ele>432.5</ele>
        <time>2022-09-30T12:23:09Z</time>
      </trkpt>
      <trkpt lat="47.00836" lon="7.06641">
        <ele>432.5</ele>
        <time>2022-09-30T12:23:10Z</time>
      </trkpt>
      <trkpt lat="47.00838" lon="7.06633">
        <ele>432.5</ele>
        <time>2022-09-30T12:23:11Z</time>
      </trkpt>
      <trkpt lat="47.0084" lon="7.06627">
        <ele>432.5</ele>
        <time>2022-09-30T12:23:12Z</time>
      </trkpt>
      <trkpt lat="47.00842" lon="7.06619">
        <ele>432.5</ele>
        <time>2022-09-30T12:23:13Z</time>
      </trkpt>
      <trkpt lat="47.00844" lon="7.06611">
        <ele>432.5</ele>
        <time>2022-09-30T12:23:14Z</time>
      </trkpt>
      <trkpt lat="47.00846" lon="7.06603">
        <ele>432.5</ele>
        <time>2022-09-30T12:23:15Z</time>
      </trkpt>
      <trkpt lat="47.00848" lon="7.06596">
        <ele>432.5</ele>
        <time>2022-09-30T12:23:16Z</time>
      </trkpt>
      <trkpt lat="47.00851" lon="7.06588">
        <ele>432.5</ele>
        <time>2022-09-30T12:23:17Z</time>
      </trkpt>
      <trkpt lat="47.00853" lon="7.06581">
        <ele>432.5</ele>
        <time>2022-09-30T12:23:18Z</time>
      </trkpt>
      <trkpt lat="47.00854" lon="7.06573">
        <ele>432.5</ele>
        <time>2022-09-30T12:23:19Z</time>
      </trkpt>
      <trkpt lat="47.00856" lon="7.06565">
        <ele>432.5</ele>
        <time>2022-09-30T12:23:20Z</time>
      </trkpt>
      <trkpt lat="47.00858" lon="7.06557">
        <ele>432.5</ele>
        <time>2022-09-30T12:23:21Z</time>
      </trkpt>
      <trkpt lat="47.0086" lon="7.0655">
        <ele>432.5</ele>
        <time>2022-09-30T12:23:22Z</time>
      </trkpt>
      <trkpt lat="47.00863" lon="7.06542">
        <ele>432.5</ele>
        <time>2022-09-30T12:23:23Z</time>
      </trkpt>
      <trkpt lat="47.00864" lon="7.06534">
        <ele>432.5</ele>
        <time>2022-09-30T12:23:24Z</time>
      </trkpt>
      <trkpt lat="47.00867" lon="7.06526">
        <ele>432.5</ele>
        <time>2022-09-30T12:23:25Z</time>
      </trkpt>
      <trkpt lat="47.00869" lon="7.06519">
        <ele>432.5</ele>
        <time>2022-09-30T12:23:26Z</time>
      </trkpt>
      <trkpt lat="47.00871" lon="7.06512">
        <ele>432.5</ele>
        <time>2022-09-30T12:23:27Z</time>
      </trkpt>
      <trkpt lat="47.00873" lon="7.06504">
        <ele>432.5</ele>
        <time>2022-09-30T12:23:28Z</time>
      </trkpt>
      <trkpt lat="47.00875" lon="7.06496">
        <ele>432.5</ele>
        <time>2022-09-30T12:23:29Z</time>
      </trkpt>
      <trkpt lat="47.00877" lon="7.06488">
        <ele>432.5</ele>
        <time>2022-09-30T12:23:30Z</time>
      </trkpt>
      <trkpt lat="47.00879" lon="7.06481">
        <ele>432.5</ele>
        <time>2022-09-30T12:23:31Z</time>
      </trkpt>
      <trkpt lat="47.00881" lon="7.06473">
        <ele>432.5</ele>
        <time>2022-09-30T12:23:32Z</time>
      </trkpt>
      <trkpt lat="47.00883" lon="7.06465">
        <ele>432.5</ele>
        <time>2022-09-30T12:23:33Z</time>
      </trkpt>
      <trkpt lat="47.00885" lon="7.06457">
        <ele>432.5</ele>
        <time>2022-09-30T12:23:34Z</time>
      </trkpt>
      <trkpt lat="47.00887" lon="7.0645">
        <ele>432.5</ele>
        <time>2022-09-30T12:23:35Z</time>
      </trkpt>
      <trkpt lat="47.00889" lon="7.06443">
        <ele>432.5</ele>
        <time>2022-09-30T12:23:36Z</time>
      </trkpt>
      <trkpt lat="47.00892" lon="7.06434">
        <ele>432.5</ele>
        <time>2022-09-30T12:23:37Z</time>
      </trkpt>
      <trkpt lat="47.00894" lon="7.06426">
        <ele>432.5</ele>
        <time>2022-09-30T12:23:38Z</time>
      </trkpt>
      <trkpt lat="47.00895" lon="7.06418">
        <ele>432.4</ele>
        <time>2022-09-30T12:23:39Z</time>
      </trkpt>
      <trkpt lat="47.00898" lon="7.0641">
        <ele>432.4</ele>
        <time>2022-09-30T12:23:40Z</time>
      </trkpt>
      <trkpt lat="47.009" lon="7.06402">
        <ele>432.4</ele>
        <time>2022-09-30T12:23:41Z</time>
      </trkpt>
      <trkpt lat="47.00902" lon="7.06393">
        <ele>432.4</ele>
        <time>2022-09-30T12:23:42Z</time>
      </trkpt>
      <trkpt lat="47.00904" lon="7.06386">
        <ele>432.4</ele>
        <time>2022-09-30T12:23:43Z</time>
      </trkpt>
      <trkpt lat="47.00906" lon="7.06379">
        <ele>432.4</ele>
        <time>2022-09-30T12:23:44Z</time>
      </trkpt>
      <trkpt lat="47.00908" lon="7.0637">
        <ele>432.4</ele>
        <time>2022-09-30T12:23:45Z</time>
      </trkpt>
      <trkpt lat="47.00911" lon="7.06362">
        <ele>432.5</ele>
        <time>2022-09-30T12:23:46Z</time>
      </trkpt>
      <trkpt lat="47.00913" lon="7.06354">
        <ele>432.5</ele>
        <time>2022-09-30T12:23:47Z</time>
      </trkpt>
      <trkpt lat="47.00916" lon="7.06347">
        <ele>432.5</ele>
        <time>2022-09-30T12:23:48Z</time>
      </trkpt>
      <trkpt lat="47.00918" lon="7.06339">
        <ele>432.5</ele>
        <time>2022-09-30T12:23:49Z</time>
      </trkpt>
      <trkpt lat="47.00919" lon="7.06331">
        <ele>432.5</ele>
        <time>2022-09-30T12:23:50Z</time>
      </trkpt>
      <trkpt lat="47.00922" lon="7.06324">
        <ele>432.5</ele>
        <time>2022-09-30T12:23:51Z</time>
      </trkpt>
      <trkpt lat="47.00924" lon="7.06317">
        <ele>432.5</ele>
        <time>2022-09-30T12:23:52Z</time>
      </trkpt>
      <trkpt lat="47.00926" lon="7.06308">
        <ele>432.5</ele>
        <time>2022-09-30T12:23:53Z</time>
      </trkpt>
      <trkpt lat="47.00928" lon="7.063">
        <ele>432.5</ele>
        <time>2022-09-30T12:23:54Z</time>
      </trkpt>
      <trkpt lat="47.0093" lon="7.06292">
        <ele>432.5</ele>
        <time>2022-09-30T12:23:55Z</time>
      </trkpt>
      <trkpt lat="47.00932" lon="7.06285">
        <ele>432.5</ele>
        <time>2022-09-30T12:23:56Z</time>
      </trkpt>
      <trkpt lat="47.00934" lon="7.06276">
        <ele>432.5</ele>
        <time>2022-09-30T12:23:57Z</time>
      </trkpt>
      <trkpt lat="47.00936" lon="7.06268">
        <ele>432.5</ele>
        <time>2022-09-30T12:23:58Z</time>
      </trkpt>
      <trkpt lat="47.00939" lon="7.0626">
        <ele>432.4</ele>
        <time>2022-09-30T12:23:59Z</time>
      </trkpt>
      <trkpt lat="47.00941" lon="7.06252">
        <ele>432.4</ele>
        <time>2022-09-30T12:24:00Z</time>
      </trkpt>
      <trkpt lat="47.00943" lon="7.06243">
        <ele>432.4</ele>
        <time>2022-09-30T12:24:01Z</time>
      </trkpt>
      <trkpt lat="47.00945" lon="7.06235">
        <ele>432.4</ele>
        <time>2022-09-30T12:24:02Z</time>
      </trkpt>
      <trkpt lat="47.00947" lon="7.06227">
        <ele>432.4</ele>
        <time>2022-09-30T12:24:03Z</time>
      </trkpt>
      <trkpt lat="47.00949" lon="7.06219">
        <ele>432.4</ele>
        <time>2022-09-30T12:24:04Z</time>
      </trkpt>
      <trkpt lat="47.00951" lon="7.06211">
        <ele>432.4</ele>
        <time>2022-09-30T12:24:05Z</time>
      </trkpt>
      <trkpt lat="47.00953" lon="7.06204">
        <ele>432.4</ele>
        <time>2022-09-30T12:24:06Z</time>
      </trkpt>
      <trkpt lat="47.00955" lon="7.06195">
        <ele>432.4</ele>
        <time>2022-09-30T12:24:07Z</time>
      </trkpt>
      <trkpt lat="47.00957" lon="7.06187">
        <ele>432.3</ele>
        <time>2022-09-30T12:24:08Z</time>
      </trkpt>
      <trkpt lat="47.00959" lon="7.0618">
        <ele>432.3</ele>
        <time>2022-09-30T12:24:09Z</time>
      </trkpt>
      <trkpt lat="47.00962" lon="7.06172">
        <ele>432.2</ele>
        <time>2022-09-30T12:24:10Z</time>
      </trkpt>
      <trkpt lat="47.00964" lon="7.06164">
        <ele>432.2</ele>
        <time>2022-09-30T12:24:11Z</time>
      </trkpt>
      <trkpt lat="47.00967" lon="7.06156">
        <ele>432.1</ele>
        <time>2022-09-30T12:24:12Z</time>
      </trkpt>
      <trkpt lat="47.00969" lon="7.06149">
        <ele>432.1</ele>
        <time>2022-09-30T12:24:13Z</time>
      </trkpt>
      <trkpt lat="47.00971" lon="7.06141">
        <ele>432.1</ele>
        <time>2022-09-30T12:24:14Z</time>
      </trkpt>
      <trkpt lat="47.00973" lon="7.06133">
        <ele>432.1</ele>
        <time>2022-09-30T12:24:15Z</time>
      </trkpt>
      <trkpt lat="47.00976" lon="7.06126">
        <ele>432</ele>
        <time>2022-09-30T12:24:16Z</time>
      </trkpt>
      <trkpt lat="47.00978" lon="7.06118">
        <ele>432</ele>
        <time>2022-09-30T12:24:17Z</time>
      </trkpt>
      <trkpt lat="47.0098" lon="7.0611">
        <ele>432</ele>
        <time>2022-09-30T12:24:18Z</time>
      </trkpt>
      <trkpt lat="47.00982" lon="7.06101">
        <ele>432</ele>
        <time>2022-09-30T12:24:19Z</time>
      </trkpt>
      <trkpt lat="47.00984" lon="7.06094">
        <ele>431.9</ele>
        <time>2022-09-30T12:24:20Z</time>
      </trkpt>
      <trkpt lat="47.00987" lon="7.06086">
        <ele>431.9</ele>
        <time>2022-09-30T12:24:21Z</time>
      </trkpt>
      <trkpt lat="47.00989" lon="7.06078">
        <ele>431.8</ele>
        <time>2022-09-30T12:24:22Z</time>
      </trkpt>
      <trkpt lat="47.00991" lon="7.0607">
        <ele>431.8</ele>
        <time>2022-09-30T12:24:23Z</time>
      </trkpt>
      <trkpt lat="47.00993" lon="7.06062">
        <ele>431.8</ele>
        <time>2022-09-30T12:24:24Z</time>
      </trkpt>
      <trkpt lat="47.00996" lon="7.06053">
        <ele>431.8</ele>
        <time>2022-09-30T12:24:25Z</time>
      </trkpt>
      <trkpt lat="47.00998" lon="7.06046">
        <ele>431.8</ele>
        <time>2022-09-30T12:24:26Z</time>
      </trkpt>
      <trkpt lat="47.01001" lon="7.06038">
        <ele>431.8</ele>
        <time>2022-09-30T12:24:27Z</time>
      </trkpt>
      <trkpt lat="47.01003" lon="7.0603">
        <ele>431.8</ele>
        <time>2022-09-30T12:24:28Z</time>
      </trkpt>
      <trkpt lat="47.01006" lon="7.06023">
        <ele>431.8</ele>
        <time>2022-09-30T12:24:29Z</time>
      </trkpt>
      <trkpt lat="47.01009" lon="7.06015">
        <ele>431.8</ele>
        <time>2022-09-30T12:24:30Z</time>
      </trkpt>
      <trkpt lat="47.01012" lon="7.06009">
        <ele>431.8</ele>
        <time>2022-09-30T12:24:31Z</time>
      </trkpt>
      <trkpt lat="47.01015" lon="7.06002">
        <ele>431.8</ele>
        <time>2022-09-30T12:24:32Z</time>
      </trkpt>
      <trkpt lat="47.01017" lon="7.05995">
        <ele>431.8</ele>
        <time>2022-09-30T12:24:33Z</time>
      </trkpt>
      <trkpt lat="47.0102" lon="7.05989">
        <ele>431.8</ele>
        <time>2022-09-30T12:24:34Z</time>
      </trkpt>
      <trkpt lat="47.01023" lon="7.05983">
        <ele>431.8</ele>
        <time>2022-09-30T12:24:35Z</time>
      </trkpt>
      <trkpt lat="47.01026" lon="7.05976">
        <ele>431.8</ele>
        <time>2022-09-30T12:24:36Z</time>
      </trkpt>
      <trkpt lat="47.01029" lon="7.05971">
        <ele>431.8</ele>
        <time>2022-09-30T12:24:37Z</time>
      </trkpt>
      <trkpt lat="47.01032" lon="7.05964">
        <ele>431.8</ele>
        <time>2022-09-30T12:24:38Z</time>
      </trkpt>
      <trkpt lat="47.01035" lon="7.05958">
        <ele>431.8</ele>
        <time>2022-09-30T12:24:39Z</time>
      </trkpt>
      <trkpt lat="47.01038" lon="7.05951">
        <ele>431.8</ele>
        <time>2022-09-30T12:24:40Z</time>
      </trkpt>
      <trkpt lat="47.01041" lon="7.05945">
        <ele>431.8</ele>
        <time>2022-09-30T12:24:41Z</time>
      </trkpt>
      <trkpt lat="47.01044" lon="7.05938">
        <ele>431.8</ele>
        <time>2022-09-30T12:24:42Z</time>
      </trkpt>
      <trkpt lat="47.01047" lon="7.05932">
        <ele>431.8</ele>
        <time>2022-09-30T12:24:43Z</time>
      </trkpt>
      <trkpt lat="47.01049" lon="7.05925">
        <ele>431.8</ele>
        <time>2022-09-30T12:24:44Z</time>
      </trkpt>
      <trkpt lat="47.01052" lon="7.05918">
        <ele>431.9</ele>
        <time>2022-09-30T12:24:45Z</time>
      </trkpt>
      <trkpt lat="47.01055" lon="7.05912">
        <ele>431.9</ele>
        <time>2022-09-30T12:24:46Z</time>
      </trkpt>
      <trkpt lat="47.01058" lon="7.05905">
        <ele>432</ele>
        <time>2022-09-30T12:24:47Z</time>
      </trkpt>
      <trkpt lat="47.0106" lon="7.05899">
        <ele>432</ele>
        <time>2022-09-30T12:24:48Z</time>
      </trkpt>
      <trkpt lat="47.01064" lon="7.05893">
        <ele>432.1</ele>
        <time>2022-09-30T12:24:49Z</time>
      </trkpt>
      <trkpt lat="47.01067" lon="7.05887">
        <ele>432.2</ele>
        <time>2022-09-30T12:24:50Z</time>
      </trkpt>
      <trkpt lat="47.0107" lon="7.05884">
        <ele>432.3</ele>
        <time>2022-09-30T12:24:51Z</time>
      </trkpt>
      <trkpt lat="47.01072" lon="7.0588">
        <ele>432.4</ele>
        <time>2022-09-30T12:24:52Z</time>
      </trkpt>
      <trkpt lat="47.01075" lon="7.05876">
        <ele>432.5</ele>
        <time>2022-09-30T12:24:53Z</time>
      </trkpt>
      <trkpt lat="47.01078" lon="7.05873">
        <ele>432.6</ele>
        <time>2022-09-30T12:24:54Z</time>
      </trkpt>
      <trkpt lat="47.0108" lon="7.0587">
        <ele>432.7</ele>
        <time>2022-09-30T12:24:55Z</time>
      </trkpt>
      <trkpt lat="47.01083" lon="7.05866">
        <ele>432.9</ele>
        <time>2022-09-30T12:24:56Z</time>
      </trkpt>
      <trkpt lat="47.01085" lon="7.05864">
        <ele>433</ele>
        <time>2022-09-30T12:24:57Z</time>
      </trkpt>
      <trkpt lat="47.01087" lon="7.05861">
        <ele>433.1</ele>
        <time>2022-09-30T12:24:58Z</time>
      </trkpt>
      <trkpt lat="47.0109" lon="7.05858">
        <ele>433.2</ele>
        <time>2022-09-30T12:24:59Z</time>
      </trkpt>
      <trkpt lat="47.01092" lon="7.05854">
        <ele>433.4</ele>
        <time>2022-09-30T12:25:00Z</time>
      </trkpt>
      <trkpt lat="47.01092" lon="7.05852">
        <ele>433.5</ele>
        <time>2022-09-30T12:25:01Z</time>
      </trkpt>
      <trkpt lat="47.01092" lon="7.05848">
        <ele>433.6</ele>
        <time>2022-09-30T12:25:02Z</time>
      </trkpt>
      <trkpt lat="47.01092" lon="7.05847">
        <ele>433.7</ele>
        <time>2022-09-30T12:25:03Z</time>
      </trkpt>
      <trkpt lat="47.01091" lon="7.05843">
        <ele>433.8</ele>
        <time>2022-09-30T12:25:04Z</time>
      </trkpt>
      <trkpt lat="47.0109" lon="7.05842">
        <ele>433.8</ele>
        <time>2022-09-30T12:25:05Z</time>
      </trkpt>
      <trkpt lat="47.01087" lon="7.05839">
        <ele>434.2</ele>
        <time>2022-09-30T12:25:06Z</time>
      </trkpt>
      <trkpt lat="47.01086" lon="7.05839">
        <ele>434.2</ele>
        <time>2022-09-30T12:25:07Z</time>
      </trkpt>
      <trkpt lat="47.01083" lon="7.05838">
        <ele>434.2</ele>
        <time>2022-09-30T12:25:08Z</time>
      </trkpt>
      <trkpt lat="47.0108" lon="7.05839">
        <ele>434.2</ele>
        <time>2022-09-30T12:25:09Z</time>
      </trkpt>
      <trkpt lat="47.01077" lon="7.0584">
        <ele>434.3</ele>
        <time>2022-09-30T12:25:10Z</time>
      </trkpt>
      <trkpt lat="47.01074" lon="7.05841">
        <ele>434.3</ele>
        <time>2022-09-30T12:25:11Z</time>
      </trkpt>
      <trkpt lat="47.01071" lon="7.05842">
        <ele>434.3</ele>
        <time>2022-09-30T12:25:12Z</time>
      </trkpt>
      <trkpt lat="47.01067" lon="7.05843">
        <ele>434.3</ele>
        <time>2022-09-30T12:25:13Z</time>
      </trkpt>
      <trkpt lat="47.01064" lon="7.05842">
        <ele>434.4</ele>
        <time>2022-09-30T12:25:14Z</time>
      </trkpt>
      <trkpt lat="47.01061" lon="7.05841">
        <ele>434.4</ele>
        <time>2022-09-30T12:25:15Z</time>
      </trkpt>
      <trkpt lat="47.01057" lon="7.05839">
        <ele>434.5</ele>
        <time>2022-09-30T12:25:16Z</time>
      </trkpt>
      <trkpt lat="47.01054" lon="7.05836">
        <ele>434.5</ele>
        <time>2022-09-30T12:25:17Z</time>
      </trkpt>
      <trkpt lat="47.01052" lon="7.05832">
        <ele>434.4</ele>
        <time>2022-09-30T12:25:18Z</time>
      </trkpt>
      <trkpt lat="47.0105" lon="7.05828">
        <ele>434.4</ele>
        <time>2022-09-30T12:25:19Z</time>
      </trkpt>
      <trkpt lat="47.01048" lon="7.05823">
        <ele>434.4</ele>
        <time>2022-09-30T12:25:20Z</time>
      </trkpt>
      <trkpt lat="47.01047" lon="7.05818">
        <ele>434.3</ele>
        <time>2022-09-30T12:25:22Z</time>
      </trkpt>
      <trkpt lat="47.01044" lon="7.05813">
        <ele>434.3</ele>
        <time>2022-09-30T12:25:23Z</time>
      </trkpt>
      <trkpt lat="47.01042" lon="7.05808">
        <ele>434.2</ele>
        <time>2022-09-30T12:25:24Z</time>
      </trkpt>
      <trkpt lat="47.01039" lon="7.05804">
        <ele>434.2</ele>
        <time>2022-09-30T12:25:25Z</time>
      </trkpt>
      <trkpt lat="47.01035" lon="7.05799">
        <ele>434.1</ele>
        <time>2022-09-30T12:25:26Z</time>
      </trkpt>
      <trkpt lat="47.01031" lon="7.05795">
        <ele>434</ele>
        <time>2022-09-30T12:25:27Z</time>
      </trkpt>
      <trkpt lat="47.01027" lon="7.05791">
        <ele>434</ele>
        <time>2022-09-30T12:25:28Z</time>
      </trkpt>
      <trkpt lat="47.01023" lon="7.05787">
        <ele>433.9</ele>
        <time>2022-09-30T12:25:29Z</time>
      </trkpt>
      <trkpt lat="47.01019" lon="7.05784">
        <ele>433.9</ele>
        <time>2022-09-30T12:25:30Z</time>
      </trkpt>
      <trkpt lat="47.01015" lon="7.05781">
        <ele>433.9</ele>
        <time>2022-09-30T12:25:31Z</time>
      </trkpt>
      <trkpt lat="47.0101" lon="7.05779">
        <ele>433.9</ele>
        <time>2022-09-30T12:25:32Z</time>
      </trkpt>
      <trkpt lat="47.01005" lon="7.05777">
        <ele>433.8</ele>
        <time>2022-09-30T12:25:33Z</time>
      </trkpt>
      <trkpt lat="47.01" lon="7.05776">
        <ele>433.8</ele>
        <time>2022-09-30T12:25:34Z</time>
      </trkpt>
      <trkpt lat="47.00995" lon="7.05775">
        <ele>433.8</ele>
        <time>2022-09-30T12:25:35Z</time>
      </trkpt>
      <trkpt lat="47.0099" lon="7.05774">
        <ele>433.7</ele>
        <time>2022-09-30T12:25:36Z</time>
      </trkpt>
      <trkpt lat="47.00986" lon="7.05773">
        <ele>433.7</ele>
        <time>2022-09-30T12:25:37Z</time>
      </trkpt>
      <trkpt lat="47.00982" lon="7.05773">
        <ele>433.7</ele>
        <time>2022-09-30T12:25:38Z</time>
      </trkpt>
      <trkpt lat="47.00978" lon="7.05772">
        <ele>433.6</ele>
        <time>2022-09-30T12:25:39Z</time>
      </trkpt>
      <trkpt lat="47.00973" lon="7.0577">
        <ele>433.6</ele>
        <time>2022-09-30T12:25:40Z</time>
      </trkpt>
      <trkpt lat="47.0097" lon="7.05767">
        <ele>433.6</ele>
        <time>2022-09-30T12:25:41Z</time>
      </trkpt>
      <trkpt lat="47.00968" lon="7.05761">
        <ele>433.5</ele>
        <time>2022-09-30T12:25:42Z</time>
      </trkpt>
      <trkpt lat="47.00965" lon="7.05755">
        <ele>433.5</ele>
        <time>2022-09-30T12:25:43Z</time>
      </trkpt>
      <trkpt lat="47.00965" lon="7.0575">
        <ele>433.4</ele>
        <time>2022-09-30T12:25:44Z</time>
      </trkpt>
      <trkpt lat="47.00965" lon="7.05743">
        <ele>433.4</ele>
        <time>2022-09-30T12:25:45Z</time>
      </trkpt>
      <trkpt lat="47.00965" lon="7.05737">
        <ele>433.4</ele>
        <time>2022-09-30T12:25:46Z</time>
      </trkpt>
      <trkpt lat="47.00965" lon="7.05731">
        <ele>433.3</ele>
        <time>2022-09-30T12:25:47Z</time>
      </trkpt>
      <trkpt lat="47.00965" lon="7.05724">
        <ele>433.3</ele>
        <time>2022-09-30T12:25:48Z</time>
      </trkpt>
      <trkpt lat="47.00965" lon="7.05717">
        <ele>433.3</ele>
        <time>2022-09-30T12:25:49Z</time>
      </trkpt>
      <trkpt lat="47.00964" lon="7.0571">
        <ele>433.2</ele>
        <time>2022-09-30T12:25:50Z</time>
      </trkpt>
      <trkpt lat="47.00964" lon="7.05704">
        <ele>433.2</ele>
        <time>2022-09-30T12:25:51Z</time>
      </trkpt>
      <trkpt lat="47.00961" lon="7.05696">
        <ele>433.2</ele>
        <time>2022-09-30T12:25:52Z</time>
      </trkpt>
      <trkpt lat="47.00963" lon="7.05689">
        <ele>433.1</ele>
        <time>2022-09-30T12:25:53Z</time>
      </trkpt>
      <trkpt lat="47.00963" lon="7.05681">
        <ele>433.1</ele>
        <time>2022-09-30T12:25:54Z</time>
      </trkpt>
      <trkpt lat="47.00962" lon="7.05672">
        <ele>433</ele>
        <time>2022-09-30T12:25:55Z</time>
      </trkpt>
      <trkpt lat="47.00962" lon="7.05663">
        <ele>433</ele>
        <time>2022-09-30T12:25:56Z</time>
      </trkpt>
      <trkpt lat="47.00962" lon="7.05656">
        <ele>432.9</ele>
        <time>2022-09-30T12:25:57Z</time>
      </trkpt>
      <trkpt lat="47.00963" lon="7.05647">
        <ele>432.9</ele>
        <time>2022-09-30T12:25:58Z</time>
      </trkpt>
      <trkpt lat="47.00964" lon="7.05639">
        <ele>432.8</ele>
        <time>2022-09-30T12:25:59Z</time>
      </trkpt>
      <trkpt lat="47.00964" lon="7.05631">
        <ele>432.8</ele>
        <time>2022-09-30T12:26:00Z</time>
      </trkpt>
      <trkpt lat="47.00965" lon="7.05622">
        <ele>432.7</ele>
        <time>2022-09-30T12:26:01Z</time>
      </trkpt>
      <trkpt lat="47.00965" lon="7.05612">
        <ele>432.7</ele>
        <time>2022-09-30T12:26:02Z</time>
      </trkpt>
      <trkpt lat="47.00965" lon="7.05604">
        <ele>432.7</ele>
        <time>2022-09-30T12:26:03Z</time>
      </trkpt>
      <trkpt lat="47.00966" lon="7.05595">
        <ele>432.6</ele>
        <time>2022-09-30T12:26:04Z</time>
      </trkpt>
      <trkpt lat="47.00966" lon="7.05586">
        <ele>432.6</ele>
        <time>2022-09-30T12:26:05Z</time>
      </trkpt>
      <trkpt lat="47.00967" lon="7.05577">
        <ele>432.5</ele>
        <time>2022-09-30T12:26:06Z</time>
      </trkpt>
      <trkpt lat="47.00967" lon="7.05568">
        <ele>432.5</ele>
        <time>2022-09-30T12:26:07Z</time>
      </trkpt>
      <trkpt lat="47.00967" lon="7.05559">
        <ele>432.5</ele>
        <time>2022-09-30T12:26:08Z</time>
      </trkpt>
      <trkpt lat="47.00967" lon="7.0555">
        <ele>432.4</ele>
        <time>2022-09-30T12:26:09Z</time>
      </trkpt>
      <trkpt lat="47.00967" lon="7.0554">
        <ele>432.4</ele>
        <time>2022-09-30T12:26:10Z</time>
      </trkpt>
      <trkpt lat="47.00968" lon="7.05531">
        <ele>432.3</ele>
        <time>2022-09-30T12:26:11Z</time>
      </trkpt>
      <trkpt lat="47.00969" lon="7.05522">
        <ele>432.2</ele>
        <time>2022-09-30T12:26:12Z</time>
      </trkpt>
      <trkpt lat="47.00969" lon="7.05512">
        <ele>432.2</ele>
        <time>2022-09-30T12:26:13Z</time>
      </trkpt>
      <trkpt lat="47.0097" lon="7.05503">
        <ele>432.2</ele>
        <time>2022-09-30T12:26:14Z</time>
      </trkpt>
      <trkpt lat="47.0097" lon="7.05493">
        <ele>432.1</ele>
        <time>2022-09-30T12:26:15Z</time>
      </trkpt>
      <trkpt lat="47.0097" lon="7.05484">
        <ele>432.1</ele>
        <time>2022-09-30T12:26:16Z</time>
      </trkpt>
      <trkpt lat="47.0097" lon="7.05474">
        <ele>432.1</ele>
        <time>2022-09-30T12:26:17Z</time>
      </trkpt>
      <trkpt lat="47.00971" lon="7.05464">
        <ele>432.1</ele>
        <time>2022-09-30T12:26:18Z</time>
      </trkpt>
      <trkpt lat="47.00972" lon="7.05455">
        <ele>432.1</ele>
        <time>2022-09-30T12:26:19Z</time>
      </trkpt>
      <trkpt lat="47.00972" lon="7.05445">
        <ele>432</ele>
        <time>2022-09-30T12:26:20Z</time>
      </trkpt>
      <trkpt lat="47.00972" lon="7.05435">
        <ele>432</ele>
        <time>2022-09-30T12:26:21Z</time>
      </trkpt>
      <trkpt lat="47.00973" lon="7.05426">
        <ele>432</ele>
        <time>2022-09-30T12:26:22Z</time>
      </trkpt>
      <trkpt lat="47.00974" lon="7.05416">
        <ele>432</ele>
        <time>2022-09-30T12:26:23Z</time>
      </trkpt>
      <trkpt lat="47.00974" lon="7.05407">
        <ele>432</ele>
        <time>2022-09-30T12:26:24Z</time>
      </trkpt>
      <trkpt lat="47.00975" lon="7.05397">
        <ele>432</ele>
        <time>2022-09-30T12:26:25Z</time>
      </trkpt>
      <trkpt lat="47.00976" lon="7.05388">
        <ele>432</ele>
        <time>2022-09-30T12:26:26Z</time>
      </trkpt>
      <trkpt lat="47.00976" lon="7.05377">
        <ele>431.9</ele>
        <time>2022-09-30T12:26:27Z</time>
      </trkpt>
      <trkpt lat="47.00977" lon="7.05368">
        <ele>431.9</ele>
        <time>2022-09-30T12:26:28Z</time>
      </trkpt>
      <trkpt lat="47.00977" lon="7.05359">
        <ele>431.9</ele>
        <time>2022-09-30T12:26:29Z</time>
      </trkpt>
      <trkpt lat="47.00978" lon="7.05349">
        <ele>431.9</ele>
        <time>2022-09-30T12:26:30Z</time>
      </trkpt>
      <trkpt lat="47.00978" lon="7.0534">
        <ele>431.9</ele>
        <time>2022-09-30T12:26:31Z</time>
      </trkpt>
      <trkpt lat="47.00978" lon="7.05331">
        <ele>431.9</ele>
        <time>2022-09-30T12:26:32Z</time>
      </trkpt>
      <trkpt lat="47.00978" lon="7.05322">
        <ele>431.9</ele>
        <time>2022-09-30T12:26:33Z</time>
      </trkpt>
      <trkpt lat="47.00977" lon="7.05314">
        <ele>432</ele>
        <time>2022-09-30T12:26:34Z</time>
      </trkpt>
      <trkpt lat="47.00976" lon="7.05306">
        <ele>432</ele>
        <time>2022-09-30T12:26:35Z</time>
      </trkpt>
      <trkpt lat="47.00972" lon="7.05299">
        <ele>432</ele>
        <time>2022-09-30T12:26:36Z</time>
      </trkpt>
      <trkpt lat="47.00969" lon="7.05294">
        <ele>432</ele>
        <time>2022-09-30T12:26:37Z</time>
      </trkpt>
      <trkpt lat="47.00964" lon="7.05288">
        <ele>432</ele>
        <time>2022-09-30T12:26:38Z</time>
      </trkpt>
      <trkpt lat="47.0096" lon="7.05282">
        <ele>432</ele>
        <time>2022-09-30T12:26:39Z</time>
      </trkpt>
      <trkpt lat="47.00956" lon="7.05276">
        <ele>432.1</ele>
        <time>2022-09-30T12:26:40Z</time>
      </trkpt>
      <trkpt lat="47.00953" lon="7.0527">
        <ele>432.1</ele>
        <time>2022-09-30T12:26:41Z</time>
      </trkpt>
      <trkpt lat="47.0095" lon="7.05263">
        <ele>432.1</ele>
        <time>2022-09-30T12:26:42Z</time>
      </trkpt>
      <trkpt lat="47.00949" lon="7.05255">
        <ele>432.2</ele>
        <time>2022-09-30T12:26:43Z</time>
      </trkpt>
      <trkpt lat="47.00948" lon="7.05248">
        <ele>432.2</ele>
        <time>2022-09-30T12:26:44Z</time>
      </trkpt>
      <trkpt lat="47.00947" lon="7.05242">
        <ele>432.2</ele>
        <time>2022-09-30T12:26:45Z</time>
      </trkpt>
      <trkpt lat="47.00947" lon="7.05235">
        <ele>432.2</ele>
        <time>2022-09-30T12:26:46Z</time>
      </trkpt>
      <trkpt lat="47.00947" lon="7.05229">
        <ele>432.2</ele>
        <time>2022-09-30T12:26:47Z</time>
      </trkpt>
      <trkpt lat="47.00947" lon="7.05222">
        <ele>432.2</ele>
        <time>2022-09-30T12:26:48Z</time>
      </trkpt>
      <trkpt lat="47.00947" lon="7.05216">
        <ele>432.2</ele>
        <time>2022-09-30T12:26:49Z</time>
      </trkpt>
      <trkpt lat="47.00946" lon="7.05209">
        <ele>432.2</ele>
        <time>2022-09-30T12:26:50Z</time>
      </trkpt>
      <trkpt lat="47.00946" lon="7.05202">
        <ele>432.2</ele>
        <time>2022-09-30T12:26:51Z</time>
      </trkpt>
      <trkpt lat="47.00945" lon="7.05193">
        <ele>432.1</ele>
        <time>2022-09-30T12:26:52Z</time>
      </trkpt>
      <trkpt lat="47.00945" lon="7.05184">
        <ele>432</ele>
        <time>2022-09-30T12:26:53Z</time>
      </trkpt>
      <trkpt lat="47.00945" lon="7.05175">
        <ele>431.9</ele>
        <time>2022-09-30T12:26:54Z</time>
      </trkpt>
      <trkpt lat="47.00945" lon="7.05165">
        <ele>431.9</ele>
        <time>2022-09-30T12:26:55Z</time>
      </trkpt>
      <trkpt lat="47.00944" lon="7.05156">
        <ele>431.8</ele>
        <time>2022-09-30T12:26:56Z</time>
      </trkpt>
      <trkpt lat="47.00945" lon="7.05146">
        <ele>431.8</ele>
        <time>2022-09-30T12:26:57Z</time>
      </trkpt>
      <trkpt lat="47.00944" lon="7.05137">
        <ele>431.8</ele>
        <time>2022-09-30T12:26:58Z</time>
      </trkpt>
      <trkpt lat="47.00944" lon="7.05127">
        <ele>431.8</ele>
        <time>2022-09-30T12:26:59Z</time>
      </trkpt>
      <trkpt lat="47.00944" lon="7.05118">
        <ele>431.8</ele>
        <time>2022-09-30T12:27:00Z</time>
      </trkpt>
      <trkpt lat="47.00944" lon="7.05108">
        <ele>431.8</ele>
        <time>2022-09-30T12:27:01Z</time>
      </trkpt>
      <trkpt lat="47.00944" lon="7.05098">
        <ele>431.8</ele>
        <time>2022-09-30T12:27:02Z</time>
      </trkpt>
      <trkpt lat="47.00944" lon="7.05088">
        <ele>431.7</ele>
        <time>2022-09-30T12:27:03Z</time>
      </trkpt>
      <trkpt lat="47.00944" lon="7.05078">
        <ele>431.7</ele>
        <time>2022-09-30T12:27:04Z</time>
      </trkpt>
      <trkpt lat="47.00943" lon="7.05068">
        <ele>431.7</ele>
        <time>2022-09-30T12:27:05Z</time>
      </trkpt>
      <trkpt lat="47.00943" lon="7.05058">
        <ele>431.7</ele>
        <time>2022-09-30T12:27:06Z</time>
      </trkpt>
      <trkpt lat="47.00943" lon="7.05038">
        <ele>431.7</ele>
        <time>2022-09-30T12:27:07Z</time>
      </trkpt>
      <trkpt lat="47.00943" lon="7.05029">
        <ele>431.7</ele>
        <time>2022-09-30T12:27:08Z</time>
      </trkpt>
      <trkpt lat="47.00943" lon="7.05019">
        <ele>431.7</ele>
        <time>2022-09-30T12:27:09Z</time>
      </trkpt>
      <trkpt lat="47.00943" lon="7.05009">
        <ele>431.7</ele>
        <time>2022-09-30T12:27:10Z</time>
      </trkpt>
      <trkpt lat="47.00943" lon="7.05">
        <ele>431.7</ele>
        <time>2022-09-30T12:27:11Z</time>
      </trkpt>
      <trkpt lat="47.00943" lon="7.0499">
        <ele>431.7</ele>
        <time>2022-09-30T12:27:12Z</time>
      </trkpt>
      <trkpt lat="47.00943" lon="7.0498">
        <ele>431.7</ele>
        <time>2022-09-30T12:27:13Z</time>
      </trkpt>
      <trkpt lat="47.00943" lon="7.0497">
        <ele>431.7</ele>
        <time>2022-09-30T12:27:14Z</time>
      </trkpt>
      <trkpt lat="47.00943" lon="7.04961">
        <ele>431.7</ele>
        <time>2022-09-30T12:27:15Z</time>
      </trkpt>
      <trkpt lat="47.00943" lon="7.04951">
        <ele>431.7</ele>
        <time>2022-09-30T12:27:16Z</time>
      </trkpt>
      <trkpt lat="47.00943" lon="7.04942">
        <ele>431.7</ele>
        <time>2022-09-30T12:27:17Z</time>
      </trkpt>
      <trkpt lat="47.00943" lon="7.04931">
        <ele>431.7</ele>
        <time>2022-09-30T12:27:18Z</time>
      </trkpt>
      <trkpt lat="47.00943" lon="7.04922">
        <ele>431.7</ele>
        <time>2022-09-30T12:27:19Z</time>
      </trkpt>
      <trkpt lat="47.00943" lon="7.04913">
        <ele>431.8</ele>
        <time>2022-09-30T12:27:20Z</time>
      </trkpt>
      <trkpt lat="47.00943" lon="7.04903">
        <ele>431.8</ele>
        <time>2022-09-30T12:27:21Z</time>
      </trkpt>
      <trkpt lat="47.00942" lon="7.04894">
        <ele>431.8</ele>
        <time>2022-09-30T12:27:22Z</time>
      </trkpt>
      <trkpt lat="47.00943" lon="7.04884">
        <ele>431.8</ele>
        <time>2022-09-30T12:27:23Z</time>
      </trkpt>
      <trkpt lat="47.00943" lon="7.04874">
        <ele>431.8</ele>
        <time>2022-09-30T12:27:24Z</time>
      </trkpt>
      <trkpt lat="47.00943" lon="7.04865">
        <ele>431.8</ele>
        <time>2022-09-30T12:27:25Z</time>
      </trkpt>
      <trkpt lat="47.00943" lon="7.04856">
        <ele>431.9</ele>
        <time>2022-09-30T12:27:26Z</time>
      </trkpt>
      <trkpt lat="47.00943" lon="7.04846">
        <ele>431.9</ele>
        <time>2022-09-30T12:27:28Z</time>
      </trkpt>
      <trkpt lat="47.00943" lon="7.04837">
        <ele>432</ele>
        <time>2022-09-30T12:27:29Z</time>
      </trkpt>
      <trkpt lat="47.00943" lon="7.04828">
        <ele>432</ele>
        <time>2022-09-30T12:27:30Z</time>
      </trkpt>
      <trkpt lat="47.00943" lon="7.04819">
        <ele>432</ele>
        <time>2022-09-30T12:27:31Z</time>
      </trkpt>
      <trkpt lat="47.00943" lon="7.0481">
        <ele>432.1</ele>
        <time>2022-09-30T12:27:32Z</time>
      </trkpt>
      <trkpt lat="47.00943" lon="7.04802">
        <ele>432.1</ele>
        <time>2022-09-30T12:27:33Z</time>
      </trkpt>
      <trkpt lat="47.00943" lon="7.04792">
        <ele>432.1</ele>
        <time>2022-09-30T12:27:34Z</time>
      </trkpt>
      <trkpt lat="47.00943" lon="7.04783">
        <ele>432.1</ele>
        <time>2022-09-30T12:27:35Z</time>
      </trkpt>
      <trkpt lat="47.00943" lon="7.04774">
        <ele>432.2</ele>
        <time>2022-09-30T12:27:36Z</time>
      </trkpt>
      <trkpt lat="47.00942" lon="7.04765">
        <ele>432.2</ele>
        <time>2022-09-30T12:27:37Z</time>
      </trkpt>
      <trkpt lat="47.00942" lon="7.04756">
        <ele>432.2</ele>
        <time>2022-09-30T12:27:38Z</time>
      </trkpt>
      <trkpt lat="47.00942" lon="7.04747">
        <ele>432.2</ele>
        <time>2022-09-30T12:27:39Z</time>
      </trkpt>
      <trkpt lat="47.00942" lon="7.04738">
        <ele>432.2</ele>
        <time>2022-09-30T12:27:40Z</time>
      </trkpt>
      <trkpt lat="47.00941" lon="7.04729">
        <ele>432.2</ele>
        <time>2022-09-30T12:27:41Z</time>
      </trkpt>
      <trkpt lat="47.00942" lon="7.0472">
        <ele>432.2</ele>
        <time>2022-09-30T12:27:42Z</time>
      </trkpt>
      <trkpt lat="47.00942" lon="7.04711">
        <ele>432.2</ele>
        <time>2022-09-30T12:27:43Z</time>
      </trkpt>
      <trkpt lat="47.00942" lon="7.04702">
        <ele>432.3</ele>
        <time>2022-09-30T12:27:44Z</time>
      </trkpt>
      <trkpt lat="47.00942" lon="7.04693">
        <ele>432.3</ele>
        <time>2022-09-30T12:27:45Z</time>
      </trkpt>
      <trkpt lat="47.00942" lon="7.04684">
        <ele>432.3</ele>
        <time>2022-09-30T12:27:46Z</time>
      </trkpt>
      <trkpt lat="47.00942" lon="7.04675">
        <ele>432.3</ele>
        <time>2022-09-30T12:27:47Z</time>
      </trkpt>
      <trkpt lat="47.00942" lon="7.04666">
        <ele>432.3</ele>
        <time>2022-09-30T12:27:48Z</time>
      </trkpt>
      <trkpt lat="47.00941" lon="7.04658">
        <ele>432.3</ele>
        <time>2022-09-30T12:27:49Z</time>
      </trkpt>
      <trkpt lat="47.00941" lon="7.04649">
        <ele>432.3</ele>
        <time>2022-09-30T12:27:50Z</time>
      </trkpt>
      <trkpt lat="47.00941" lon="7.0464">
        <ele>432.3</ele>
        <time>2022-09-30T12:27:51Z</time>
      </trkpt>
      <trkpt lat="47.00941" lon="7.04631">
        <ele>432.3</ele>
        <time>2022-09-30T12:27:52Z</time>
      </trkpt>
      <trkpt lat="47.00941" lon="7.04621">
        <ele>432.4</ele>
        <time>2022-09-30T12:27:53Z</time>
      </trkpt>
      <trkpt lat="47.00941" lon="7.04612">
        <ele>432.4</ele>
        <time>2022-09-30T12:27:54Z</time>
      </trkpt>
      <trkpt lat="47.00941" lon="7.04602">
        <ele>432.4</ele>
        <time>2022-09-30T12:27:55Z</time>
      </trkpt>
      <trkpt lat="47.00941" lon="7.04593">
        <ele>432.4</ele>
        <time>2022-09-30T12:27:56Z</time>
      </trkpt>
      <trkpt lat="47.00941" lon="7.04583">
        <ele>432.4</ele>
        <time>2022-09-30T12:27:57Z</time>
      </trkpt>
      <trkpt lat="47.0094" lon="7.04574">
        <ele>432.4</ele>
        <time>2022-09-30T12:27:58Z</time>
      </trkpt>
      <trkpt lat="47.0094" lon="7.04564">
        <ele>432.4</ele>
        <time>2022-09-30T12:27:59Z</time>
      </trkpt>
      <trkpt lat="47.0094" lon="7.04554">
        <ele>432.4</ele>
        <time>2022-09-30T12:28:00Z</time>
      </trkpt>
      <trkpt lat="47.0094" lon="7.04544">
        <ele>432.4</ele>
        <time>2022-09-30T12:28:01Z</time>
      </trkpt>
      <trkpt lat="47.0094" lon="7.04535">
        <ele>432.4</ele>
        <time>2022-09-30T12:28:02Z</time>
      </trkpt>
      <trkpt lat="47.0094" lon="7.04524">
        <ele>432.4</ele>
        <time>2022-09-30T12:28:03Z</time>
      </trkpt>
      <trkpt lat="47.0094" lon="7.04514">
        <ele>432.5</ele>
        <time>2022-09-30T12:28:04Z</time>
      </trkpt>
      <trkpt lat="47.0094" lon="7.04505">
        <ele>432.5</ele>
        <time>2022-09-30T12:28:05Z</time>
      </trkpt>
      <trkpt lat="47.0094" lon="7.04495">
        <ele>432.5</ele>
        <time>2022-09-30T12:28:06Z</time>
      </trkpt>
      <trkpt lat="47.0094" lon="7.04484">
        <ele>432.6</ele>
        <time>2022-09-30T12:28:07Z</time>
      </trkpt>
      <trkpt lat="47.0094" lon="7.04474">
        <ele>432.6</ele>
        <time>2022-09-30T12:28:08Z</time>
      </trkpt>
      <trkpt lat="47.0094" lon="7.04465">
        <ele>432.7</ele>
        <time>2022-09-30T12:28:09Z</time>
      </trkpt>
      <trkpt lat="47.00939" lon="7.04455">
        <ele>432.7</ele>
        <time>2022-09-30T12:28:10Z</time>
      </trkpt>
      <trkpt lat="47.00939" lon="7.04446">
        <ele>432.8</ele>
        <time>2022-09-30T12:28:11Z</time>
      </trkpt>
      <trkpt lat="47.00939" lon="7.04436">
        <ele>432.9</ele>
        <time>2022-09-30T12:28:12Z</time>
      </trkpt>
      <trkpt lat="47.00939" lon="7.04427">
        <ele>433</ele>
        <time>2022-09-30T12:28:13Z</time>
      </trkpt>
      <trkpt lat="47.0094" lon="7.04419">
        <ele>433.1</ele>
        <time>2022-09-30T12:28:14Z</time>
      </trkpt>
      <trkpt lat="47.00941" lon="7.04411">
        <ele>433.2</ele>
        <time>2022-09-30T12:28:15Z</time>
      </trkpt>
      <trkpt lat="47.00942" lon="7.04402">
        <ele>433.3</ele>
        <time>2022-09-30T12:28:16Z</time>
      </trkpt>
      <trkpt lat="47.00943" lon="7.04394">
        <ele>433.4</ele>
        <time>2022-09-30T12:28:17Z</time>
      </trkpt>
      <trkpt lat="47.00944" lon="7.04387">
        <ele>433.4</ele>
        <time>2022-09-30T12:28:18Z</time>
      </trkpt>
      <trkpt lat="47.00947" lon="7.0438">
        <ele>433.5</ele>
        <time>2022-09-30T12:28:19Z</time>
      </trkpt>
      <trkpt lat="47.00949" lon="7.04377">
        <ele>433.6</ele>
        <time>2022-09-30T12:28:20Z</time>
      </trkpt>
      <trkpt lat="47.00953" lon="7.04373">
        <ele>433.6</ele>
        <time>2022-09-30T12:28:21Z</time>
      </trkpt>
      <trkpt lat="47.00956" lon="7.04368">
        <ele>433.6</ele>
        <time>2022-09-30T12:28:22Z</time>
      </trkpt>
      <trkpt lat="47.00959" lon="7.04365">
        <ele>433.5</ele>
        <time>2022-09-30T12:28:23Z</time>
      </trkpt>
      <trkpt lat="47.00964" lon="7.04361">
        <ele>433.5</ele>
        <time>2022-09-30T12:28:24Z</time>
      </trkpt>
      <trkpt lat="47.00968" lon="7.04358">
        <ele>433.5</ele>
        <time>2022-09-30T12:28:25Z</time>
      </trkpt>
      <trkpt lat="47.00973" lon="7.04356">
        <ele>433.5</ele>
        <time>2022-09-30T12:28:26Z</time>
      </trkpt>
      <trkpt lat="47.00977" lon="7.04352">
        <ele>433.4</ele>
        <time>2022-09-30T12:28:27Z</time>
      </trkpt>
      <trkpt lat="47.00981" lon="7.0435">
        <ele>433.4</ele>
        <time>2022-09-30T12:28:28Z</time>
      </trkpt>
      <trkpt lat="47.00986" lon="7.04345">
        <ele>433.4</ele>
        <time>2022-09-30T12:28:29Z</time>
      </trkpt>
      <trkpt lat="47.00991" lon="7.04343">
        <ele>433.3</ele>
        <time>2022-09-30T12:28:30Z</time>
      </trkpt>
      <trkpt lat="47.00995" lon="7.04338">
        <ele>433.3</ele>
        <time>2022-09-30T12:28:31Z</time>
      </trkpt>
      <trkpt lat="47.01" lon="7.04333">
        <ele>433.3</ele>
        <time>2022-09-30T12:28:32Z</time>
      </trkpt>
      <trkpt lat="47.01005" lon="7.0433">
        <ele>433.3</ele>
        <time>2022-09-30T12:28:33Z</time>
      </trkpt>
      <trkpt lat="47.01009" lon="7.04326">
        <ele>433.2</ele>
        <time>2022-09-30T12:28:34Z</time>
      </trkpt>
      <trkpt lat="47.01014" lon="7.04324">
        <ele>433.2</ele>
        <time>2022-09-30T12:28:35Z</time>
      </trkpt>
      <trkpt lat="47.01019" lon="7.04321">
        <ele>433.2</ele>
        <time>2022-09-30T12:28:36Z</time>
      </trkpt>
      <trkpt lat="47.01024" lon="7.04319">
        <ele>433.2</ele>
        <time>2022-09-30T12:28:37Z</time>
      </trkpt>
      <trkpt lat="47.01029" lon="7.04314">
        <ele>433.1</ele>
        <time>2022-09-30T12:28:38Z</time>
      </trkpt>
      <trkpt lat="47.01035" lon="7.0431">
        <ele>433.1</ele>
        <time>2022-09-30T12:28:39Z</time>
      </trkpt>
      <trkpt lat="47.0104" lon="7.04306">
        <ele>433.1</ele>
        <time>2022-09-30T12:28:40Z</time>
      </trkpt>
      <trkpt lat="47.01044" lon="7.04302">
        <ele>433</ele>
        <time>2022-09-30T12:28:41Z</time>
      </trkpt>
      <trkpt lat="47.01049" lon="7.04299">
        <ele>433</ele>
        <time>2022-09-30T12:28:42Z</time>
      </trkpt>
      <trkpt lat="47.01055" lon="7.04296">
        <ele>432.9</ele>
        <time>2022-09-30T12:28:43Z</time>
      </trkpt>
      <trkpt lat="47.0106" lon="7.04293">
        <ele>432.9</ele>
        <time>2022-09-30T12:28:44Z</time>
      </trkpt>
      <trkpt lat="47.01065" lon="7.04289">
        <ele>432.8</ele>
        <time>2022-09-30T12:28:45Z</time>
      </trkpt>
      <trkpt lat="47.01071" lon="7.04285">
        <ele>432.8</ele>
        <time>2022-09-30T12:28:46Z</time>
      </trkpt>
      <trkpt lat="47.01076" lon="7.0428">
        <ele>432.8</ele>
        <time>2022-09-30T12:28:47Z</time>
      </trkpt>
      <trkpt lat="47.01081" lon="7.04276">
        <ele>432.8</ele>
        <time>2022-09-30T12:28:48Z</time>
      </trkpt>
      <trkpt lat="47.01086" lon="7.04272">
        <ele>432.8</ele>
        <time>2022-09-30T12:28:49Z</time>
      </trkpt>
      <trkpt lat="47.01091" lon="7.04268">
        <ele>432.8</ele>
        <time>2022-09-30T12:28:50Z</time>
      </trkpt>
      <trkpt lat="47.01096" lon="7.04264">
        <ele>432.8</ele>
        <time>2022-09-30T12:28:51Z</time>
      </trkpt>
      <trkpt lat="47.01101" lon="7.04259">
        <ele>432.7</ele>
        <time>2022-09-30T12:28:52Z</time>
      </trkpt>
      <trkpt lat="47.01106" lon="7.04254">
        <ele>432.7</ele>
        <time>2022-09-30T12:28:53Z</time>
      </trkpt>
      <trkpt lat="47.01111" lon="7.04249">
        <ele>432.7</ele>
        <time>2022-09-30T12:28:54Z</time>
      </trkpt>
      <trkpt lat="47.01115" lon="7.04244">
        <ele>432.6</ele>
        <time>2022-09-30T12:28:55Z</time>
      </trkpt>
      <trkpt lat="47.01119" lon="7.04238">
        <ele>432.6</ele>
        <time>2022-09-30T12:28:56Z</time>
      </trkpt>
      <trkpt lat="47.01123" lon="7.04232">
        <ele>432.6</ele>
        <time>2022-09-30T12:28:57Z</time>
      </trkpt>
      <trkpt lat="47.01131" lon="7.04222">
        <ele>432.6</ele>
        <time>2022-09-30T12:28:58Z</time>
      </trkpt>
      <trkpt lat="47.01135" lon="7.04216">
        <ele>432.7</ele>
        <time>2022-09-30T12:28:59Z</time>
      </trkpt>
      <trkpt lat="47.01139" lon="7.0421">
        <ele>432.7</ele>
        <time>2022-09-30T12:29:00Z</time>
      </trkpt>
      <trkpt lat="47.01143" lon="7.04205">
        <ele>432.8</ele>
        <time>2022-09-30T12:29:01Z</time>
      </trkpt>
      <trkpt lat="47.01146" lon="7.042">
        <ele>432.8</ele>
        <time>2022-09-30T12:29:02Z</time>
      </trkpt>
      <trkpt lat="47.0115" lon="7.04193">
        <ele>432.8</ele>
        <time>2022-09-30T12:29:03Z</time>
      </trkpt>
      <trkpt lat="47.01154" lon="7.04188">
        <ele>432.8</ele>
        <time>2022-09-30T12:29:04Z</time>
      </trkpt>
      <trkpt lat="47.01158" lon="7.04184">
        <ele>432.8</ele>
        <time>2022-09-30T12:29:05Z</time>
      </trkpt>
      <trkpt lat="47.01161" lon="7.04181">
        <ele>432.7</ele>
        <time>2022-09-30T12:29:06Z</time>
      </trkpt>
      <trkpt lat="47.01164" lon="7.04176">
        <ele>432.7</ele>
        <time>2022-09-30T12:29:07Z</time>
      </trkpt>
      <trkpt lat="47.01167" lon="7.0417">
        <ele>432.7</ele>
        <time>2022-09-30T12:29:08Z</time>
      </trkpt>
      <trkpt lat="47.01173" lon="7.04162">
        <ele>432.7</ele>
        <time>2022-09-30T12:29:09Z</time>
      </trkpt>
      <trkpt lat="47.01176" lon="7.04156">
        <ele>432.7</ele>
        <time>2022-09-30T12:29:10Z</time>
      </trkpt>
      <trkpt lat="47.01181" lon="7.04151">
        <ele>432.7</ele>
        <time>2022-09-30T12:29:11Z</time>
      </trkpt>
      <trkpt lat="47.01185" lon="7.04145">
        <ele>432.7</ele>
        <time>2022-09-30T12:29:12Z</time>
      </trkpt>
      <trkpt lat="47.01189" lon="7.04139">
        <ele>432.7</ele>
        <time>2022-09-30T12:29:13Z</time>
      </trkpt>
      <trkpt lat="47.01193" lon="7.04134">
        <ele>432.7</ele>
        <time>2022-09-30T12:29:14Z</time>
      </trkpt>
      <trkpt lat="47.01197" lon="7.04129">
        <ele>432.7</ele>
        <time>2022-09-30T12:29:15Z</time>
      </trkpt>
      <trkpt lat="47.01202" lon="7.04121">
        <ele>432.6</ele>
        <time>2022-09-30T12:29:16Z</time>
      </trkpt>
      <trkpt lat="47.01205" lon="7.04114">
        <ele>432.6</ele>
        <time>2022-09-30T12:29:17Z</time>
      </trkpt>
      <trkpt lat="47.0121" lon="7.0411">
        <ele>432.6</ele>
        <time>2022-09-30T12:29:18Z</time>
      </trkpt>
      <trkpt lat="47.01213" lon="7.04104">
        <ele>432.6</ele>
        <time>2022-09-30T12:29:19Z</time>
      </trkpt>
      <trkpt lat="47.01218" lon="7.04098">
        <ele>432.6</ele>
        <time>2022-09-30T12:29:20Z</time>
      </trkpt>
      <trkpt lat="47.01223" lon="7.04092">
        <ele>432.5</ele>
        <time>2022-09-30T12:29:21Z</time>
      </trkpt>
      <trkpt lat="47.01226" lon="7.04086">
        <ele>432.5</ele>
        <time>2022-09-30T12:29:22Z</time>
      </trkpt>
      <trkpt lat="47.0123" lon="7.04079">
        <ele>432.5</ele>
        <time>2022-09-30T12:29:23Z</time>
      </trkpt>
      <trkpt lat="47.01234" lon="7.04075">
        <ele>432.5</ele>
        <time>2022-09-30T12:29:24Z</time>
      </trkpt>
      <trkpt lat="47.01237" lon="7.04069">
        <ele>432.4</ele>
        <time>2022-09-30T12:29:25Z</time>
      </trkpt>
      <trkpt lat="47.01241" lon="7.04063">
        <ele>432.4</ele>
        <time>2022-09-30T12:29:26Z</time>
      </trkpt>
      <trkpt lat="47.01246" lon="7.04057">
        <ele>432.4</ele>
        <time>2022-09-30T12:29:27Z</time>
      </trkpt>
      <trkpt lat="47.01251" lon="7.04051">
        <ele>432.4</ele>
        <time>2022-09-30T12:29:28Z</time>
      </trkpt>
      <trkpt lat="47.01255" lon="7.04045">
        <ele>432.4</ele>
        <time>2022-09-30T12:29:29Z</time>
      </trkpt>
      <trkpt lat="47.01258" lon="7.04039">
        <ele>432.4</ele>
        <time>2022-09-30T12:29:30Z</time>
      </trkpt>
      <trkpt lat="47.01262" lon="7.04032">
        <ele>432.4</ele>
        <time>2022-09-30T12:29:31Z</time>
      </trkpt>
      <trkpt lat="47.01267" lon="7.04027">
        <ele>432.4</ele>
        <time>2022-09-30T12:29:32Z</time>
      </trkpt>
      <trkpt lat="47.01271" lon="7.04022">
        <ele>432.4</ele>
        <time>2022-09-30T12:29:34Z</time>
      </trkpt>
      <trkpt lat="47.01276" lon="7.04015">
        <ele>432.4</ele>
        <time>2022-09-30T12:29:35Z</time>
      </trkpt>
      <trkpt lat="47.0128" lon="7.0401">
        <ele>432.4</ele>
        <time>2022-09-30T12:29:36Z</time>
      </trkpt>
      <trkpt lat="47.01284" lon="7.04003">
        <ele>432.5</ele>
        <time>2022-09-30T12:29:37Z</time>
      </trkpt>
      <trkpt lat="47.01288" lon="7.03999">
        <ele>432.5</ele>
        <time>2022-09-30T12:29:38Z</time>
      </trkpt>
      <trkpt lat="47.01291" lon="7.03996">
        <ele>432.5</ele>
        <time>2022-09-30T12:29:39Z</time>
      </trkpt>
      <trkpt lat="47.01293" lon="7.03989">
        <ele>432.5</ele>
        <time>2022-09-30T12:29:40Z</time>
      </trkpt>
      <trkpt lat="47.01295" lon="7.03984">
        <ele>432.5</ele>
        <time>2022-09-30T12:29:41Z</time>
      </trkpt>
      <trkpt lat="47.01294" lon="7.03978">
        <ele>432.4</ele>
        <time>2022-09-30T12:29:42Z</time>
      </trkpt>
      <trkpt lat="47.01291" lon="7.03972">
        <ele>432.3</ele>
        <time>2022-09-30T12:29:43Z</time>
      </trkpt>
      <trkpt lat="47.01289" lon="7.03967">
        <ele>432.2</ele>
        <time>2022-09-30T12:29:44Z</time>
      </trkpt>
      <trkpt lat="47.01287" lon="7.03961">
        <ele>432.1</ele>
        <time>2022-09-30T12:29:45Z</time>
      </trkpt>
      <trkpt lat="47.01284" lon="7.03955">
        <ele>432.1</ele>
        <time>2022-09-30T12:29:46Z</time>
      </trkpt>
      <trkpt lat="47.01281" lon="7.0395">
        <ele>432</ele>
        <time>2022-09-30T12:29:47Z</time>
      </trkpt>
      <trkpt lat="47.01277" lon="7.03943">
        <ele>431.9</ele>
        <time>2022-09-30T12:29:48Z</time>
      </trkpt>
      <trkpt lat="47.01275" lon="7.03936">
        <ele>431.9</ele>
        <time>2022-09-30T12:29:49Z</time>
      </trkpt>
      <trkpt lat="47.01272" lon="7.03929">
        <ele>431.9</ele>
        <time>2022-09-30T12:29:50Z</time>
      </trkpt>
      <trkpt lat="47.01268" lon="7.03923">
        <ele>431.8</ele>
        <time>2022-09-30T12:29:51Z</time>
      </trkpt>
      <trkpt lat="47.01265" lon="7.03917">
        <ele>431.8</ele>
        <time>2022-09-30T12:29:52Z</time>
      </trkpt>
      <trkpt lat="47.01263" lon="7.0391">
        <ele>431.8</ele>
        <time>2022-09-30T12:29:53Z</time>
      </trkpt>
      <trkpt lat="47.0126" lon="7.03904">
        <ele>431.8</ele>
        <time>2022-09-30T12:29:54Z</time>
      </trkpt>
      <trkpt lat="47.01256" lon="7.03898">
        <ele>431.9</ele>
        <time>2022-09-30T12:29:55Z</time>
      </trkpt>
      <trkpt lat="47.01253" lon="7.03892">
        <ele>431.9</ele>
        <time>2022-09-30T12:29:56Z</time>
      </trkpt>
      <trkpt lat="47.0125" lon="7.03887">
        <ele>431.9</ele>
        <time>2022-09-30T12:29:57Z</time>
      </trkpt>
      <trkpt lat="47.01248" lon="7.03881">
        <ele>432</ele>
        <time>2022-09-30T12:29:58Z</time>
      </trkpt>
      <trkpt lat="47.01245" lon="7.03875">
        <ele>432</ele>
        <time>2022-09-30T12:29:59Z</time>
      </trkpt>
      <trkpt lat="47.01243" lon="7.0387">
        <ele>432.1</ele>
        <time>2022-09-30T12:30:00Z</time>
      </trkpt>
      <trkpt lat="47.01243" lon="7.03863">
        <ele>432.1</ele>
        <time>2022-09-30T12:30:01Z</time>
      </trkpt>
      <trkpt lat="47.01242" lon="7.03857">
        <ele>432.2</ele>
        <time>2022-09-30T12:30:02Z</time>
      </trkpt>
      <trkpt lat="47.01244" lon="7.03852">
        <ele>432.2</ele>
        <time>2022-09-30T12:30:03Z</time>
      </trkpt>
      <trkpt lat="47.01245" lon="7.03848">
        <ele>432.1</ele>
        <time>2022-09-30T12:30:04Z</time>
      </trkpt>
      <trkpt lat="47.01248" lon="7.03844">
        <ele>432.1</ele>
        <time>2022-09-30T12:30:05Z</time>
      </trkpt>
      <trkpt lat="47.01252" lon="7.0384">
        <ele>432.1</ele>
        <time>2022-09-30T12:30:06Z</time>
      </trkpt>
      <trkpt lat="47.01255" lon="7.03837">
        <ele>432.1</ele>
        <time>2022-09-30T12:30:07Z</time>
      </trkpt>
      <trkpt lat="47.01259" lon="7.03835">
        <ele>432</ele>
        <time>2022-09-30T12:30:08Z</time>
      </trkpt>
      <trkpt lat="47.01264" lon="7.03832">
        <ele>432</ele>
        <time>2022-09-30T12:30:09Z</time>
      </trkpt>
      <trkpt lat="47.01268" lon="7.03828">
        <ele>432.1</ele>
        <time>2022-09-30T12:30:10Z</time>
      </trkpt>
      <trkpt lat="47.01271" lon="7.03825">
        <ele>432.1</ele>
        <time>2022-09-30T12:30:11Z</time>
      </trkpt>
      <trkpt lat="47.01276" lon="7.03822">
        <ele>432.1</ele>
        <time>2022-09-30T12:30:12Z</time>
      </trkpt>
      <trkpt lat="47.0128" lon="7.03819">
        <ele>432.1</ele>
        <time>2022-09-30T12:30:13Z</time>
      </trkpt>
      <trkpt lat="47.01284" lon="7.03815">
        <ele>432.2</ele>
        <time>2022-09-30T12:30:14Z</time>
      </trkpt>
      <trkpt lat="47.01288" lon="7.03811">
        <ele>432.2</ele>
        <time>2022-09-30T12:30:15Z</time>
      </trkpt>
      <trkpt lat="47.01292" lon="7.03809">
        <ele>432.3</ele>
        <time>2022-09-30T12:30:16Z</time>
      </trkpt>
      <trkpt lat="47.01297" lon="7.03806">
        <ele>432.3</ele>
        <time>2022-09-30T12:30:17Z</time>
      </trkpt>
      <trkpt lat="47.01301" lon="7.03802">
        <ele>432.3</ele>
        <time>2022-09-30T12:30:18Z</time>
      </trkpt>
      <trkpt lat="47.01305" lon="7.03799">
        <ele>432.4</ele>
        <time>2022-09-30T12:30:19Z</time>
      </trkpt>
      <trkpt lat="47.01309" lon="7.03795">
        <ele>432.4</ele>
        <time>2022-09-30T12:30:20Z</time>
      </trkpt>
      <trkpt lat="47.01314" lon="7.03791">
        <ele>432.5</ele>
        <time>2022-09-30T12:30:21Z</time>
      </trkpt>
      <trkpt lat="47.01318" lon="7.03788">
        <ele>432.5</ele>
        <time>2022-09-30T12:30:22Z</time>
      </trkpt>
      <trkpt lat="47.01323" lon="7.03784">
        <ele>432.6</ele>
        <time>2022-09-30T12:30:23Z</time>
      </trkpt>
      <trkpt lat="47.01327" lon="7.0378">
        <ele>432.6</ele>
        <time>2022-09-30T12:30:24Z</time>
      </trkpt>
      <trkpt lat="47.01332" lon="7.03776">
        <ele>432.7</ele>
        <time>2022-09-30T12:30:25Z</time>
      </trkpt>
      <trkpt lat="47.01336" lon="7.03773">
        <ele>432.7</ele>
        <time>2022-09-30T12:30:26Z</time>
      </trkpt>
      <trkpt lat="47.0134" lon="7.0377">
        <ele>432.7</ele>
        <time>2022-09-30T12:30:27Z</time>
      </trkpt>
      <trkpt lat="47.01345" lon="7.03767">
        <ele>432.8</ele>
        <time>2022-09-30T12:30:28Z</time>
      </trkpt>
      <trkpt lat="47.01349" lon="7.03763">
        <ele>432.8</ele>
        <time>2022-09-30T12:30:29Z</time>
      </trkpt>
      <trkpt lat="47.01353" lon="7.0376">
        <ele>432.8</ele>
        <time>2022-09-30T12:30:30Z</time>
      </trkpt>
      <trkpt lat="47.01357" lon="7.03757">
        <ele>432.8</ele>
        <time>2022-09-30T12:30:31Z</time>
      </trkpt>
      <trkpt lat="47.01361" lon="7.03754">
        <ele>432.9</ele>
        <time>2022-09-30T12:30:32Z</time>
      </trkpt>
      <trkpt lat="47.01365" lon="7.03752">
        <ele>432.9</ele>
        <time>2022-09-30T12:30:33Z</time>
      </trkpt>
      <trkpt lat="47.01369" lon="7.03748">
        <ele>432.9</ele>
        <time>2022-09-30T12:30:34Z</time>
      </trkpt>
      <trkpt lat="47.01374" lon="7.03745">
        <ele>432.9</ele>
        <time>2022-09-30T12:30:35Z</time>
      </trkpt>
      <trkpt lat="47.01378" lon="7.03742">
        <ele>432.9</ele>
        <time>2022-09-30T12:30:36Z</time>
      </trkpt>
      <trkpt lat="47.01382" lon="7.03738">
        <ele>432.9</ele>
        <time>2022-09-30T12:30:37Z</time>
      </trkpt>
      <trkpt lat="47.01386" lon="7.03735">
        <ele>433</ele>
        <time>2022-09-30T12:30:38Z</time>
      </trkpt>
      <trkpt lat="47.0139" lon="7.03732">
        <ele>433</ele>
        <time>2022-09-30T12:30:39Z</time>
      </trkpt>
      <trkpt lat="47.01394" lon="7.03729">
        <ele>433</ele>
        <time>2022-09-30T12:30:40Z</time>
      </trkpt>
      <trkpt lat="47.01397" lon="7.03726">
        <ele>433</ele>
        <time>2022-09-30T12:30:41Z</time>
      </trkpt>
      <trkpt lat="47.01401" lon="7.03723">
        <ele>433</ele>
        <time>2022-09-30T12:30:42Z</time>
      </trkpt>
      <trkpt lat="47.01405" lon="7.0372">
        <ele>432.9</ele>
        <time>2022-09-30T12:30:43Z</time>
      </trkpt>
      <trkpt lat="47.01409" lon="7.03717">
        <ele>432.9</ele>
        <time>2022-09-30T12:30:44Z</time>
      </trkpt>
      <trkpt lat="47.01413" lon="7.03714">
        <ele>432.9</ele>
        <time>2022-09-30T12:30:45Z</time>
      </trkpt>
      <trkpt lat="47.01416" lon="7.03712">
        <ele>432.9</ele>
        <time>2022-09-30T12:30:46Z</time>
      </trkpt>
      <trkpt lat="47.0142" lon="7.03708">
        <ele>432.9</ele>
        <time>2022-09-30T12:30:47Z</time>
      </trkpt>
      <trkpt lat="47.01423" lon="7.03705">
        <ele>432.9</ele>
        <time>2022-09-30T12:30:48Z</time>
      </trkpt>
      <trkpt lat="47.01428" lon="7.03703">
        <ele>432.9</ele>
        <time>2022-09-30T12:30:49Z</time>
      </trkpt>
      <trkpt lat="47.01432" lon="7.03699">
        <ele>432.8</ele>
        <time>2022-09-30T12:30:50Z</time>
      </trkpt>
      <trkpt lat="47.01435" lon="7.03696">
        <ele>432.8</ele>
        <time>2022-09-30T12:30:51Z</time>
      </trkpt>
      <trkpt lat="47.0144" lon="7.03692">
        <ele>432.7</ele>
        <time>2022-09-30T12:30:52Z</time>
      </trkpt>
      <trkpt lat="47.01443" lon="7.03689">
        <ele>432.7</ele>
        <time>2022-09-30T12:30:53Z</time>
      </trkpt>
      <trkpt lat="47.01447" lon="7.03686">
        <ele>432.7</ele>
        <time>2022-09-30T12:30:54Z</time>
      </trkpt>
      <trkpt lat="47.01451" lon="7.03683">
        <ele>432.7</ele>
        <time>2022-09-30T12:30:55Z</time>
      </trkpt>
      <trkpt lat="47.01455" lon="7.03677">
        <ele>432.6</ele>
        <time>2022-09-30T12:30:56Z</time>
      </trkpt>
      <trkpt lat="47.0146" lon="7.03675">
        <ele>432.6</ele>
        <time>2022-09-30T12:30:57Z</time>
      </trkpt>
      <trkpt lat="47.01464" lon="7.03671">
        <ele>432.5</ele>
        <time>2022-09-30T12:30:58Z</time>
      </trkpt>
      <trkpt lat="47.01468" lon="7.0367">
        <ele>432.5</ele>
        <time>2022-09-30T12:30:59Z</time>
      </trkpt>
      <trkpt lat="47.01473" lon="7.03666">
        <ele>432.5</ele>
        <time>2022-09-30T12:31:00Z</time>
      </trkpt>
      <trkpt lat="47.01477" lon="7.03662">
        <ele>432.5</ele>
        <time>2022-09-30T12:31:01Z</time>
      </trkpt>
      <trkpt lat="47.01481" lon="7.03658">
        <ele>432.5</ele>
        <time>2022-09-30T12:31:02Z</time>
      </trkpt>
      <trkpt lat="47.01485" lon="7.03656">
        <ele>432.5</ele>
        <time>2022-09-30T12:31:03Z</time>
      </trkpt>
      <trkpt lat="47.0149" lon="7.03652">
        <ele>432.4</ele>
        <time>2022-09-30T12:31:04Z</time>
      </trkpt>
      <trkpt lat="47.01494" lon="7.03649">
        <ele>432.4</ele>
        <time>2022-09-30T12:31:05Z</time>
      </trkpt>
      <trkpt lat="47.01499" lon="7.03645">
        <ele>432.4</ele>
        <time>2022-09-30T12:31:06Z</time>
      </trkpt>
      <trkpt lat="47.01503" lon="7.03642">
        <ele>432.4</ele>
        <time>2022-09-30T12:31:07Z</time>
      </trkpt>
      <trkpt lat="47.01508" lon="7.03638">
        <ele>432.4</ele>
        <time>2022-09-30T12:31:08Z</time>
      </trkpt>
      <trkpt lat="47.01512" lon="7.03635">
        <ele>432.4</ele>
        <time>2022-09-30T12:31:09Z</time>
      </trkpt>
      <trkpt lat="47.01516" lon="7.03631">
        <ele>432.4</ele>
        <time>2022-09-30T12:31:10Z</time>
      </trkpt>
      <trkpt lat="47.01521" lon="7.03628">
        <ele>432.4</ele>
        <time>2022-09-30T12:31:11Z</time>
      </trkpt>
      <trkpt lat="47.01526" lon="7.03624">
        <ele>432.4</ele>
        <time>2022-09-30T12:31:12Z</time>
      </trkpt>
      <trkpt lat="47.0153" lon="7.03621">
        <ele>432.4</ele>
        <time>2022-09-30T12:31:13Z</time>
      </trkpt>
      <trkpt lat="47.01534" lon="7.03618">
        <ele>432.4</ele>
        <time>2022-09-30T12:31:14Z</time>
      </trkpt>
      <trkpt lat="47.01539" lon="7.03614">
        <ele>432.4</ele>
        <time>2022-09-30T12:31:15Z</time>
      </trkpt>
      <trkpt lat="47.01543" lon="7.03611">
        <ele>432.4</ele>
        <time>2022-09-30T12:31:16Z</time>
      </trkpt>
      <trkpt lat="47.01547" lon="7.03607">
        <ele>432.4</ele>
        <time>2022-09-30T12:31:17Z</time>
      </trkpt>
      <trkpt lat="47.01552" lon="7.03604">
        <ele>432.4</ele>
        <time>2022-09-30T12:31:18Z</time>
      </trkpt>
      <trkpt lat="47.01556" lon="7.036">
        <ele>432.3</ele>
        <time>2022-09-30T12:31:19Z</time>
      </trkpt>
      <trkpt lat="47.01561" lon="7.03597">
        <ele>432.3</ele>
        <time>2022-09-30T12:31:20Z</time>
      </trkpt>
      <trkpt lat="47.01565" lon="7.03592">
        <ele>432.3</ele>
        <time>2022-09-30T12:31:21Z</time>
      </trkpt>
      <trkpt lat="47.0157" lon="7.03589">
        <ele>432.3</ele>
        <time>2022-09-30T12:31:22Z</time>
      </trkpt>
      <trkpt lat="47.01575" lon="7.03585">
        <ele>432.3</ele>
        <time>2022-09-30T12:31:23Z</time>
      </trkpt>
      <trkpt lat="47.01579" lon="7.03581">
        <ele>432.3</ele>
        <time>2022-09-30T12:31:24Z</time>
      </trkpt>
      <trkpt lat="47.01584" lon="7.03577">
        <ele>432.3</ele>
        <time>2022-09-30T12:31:25Z</time>
      </trkpt>
      <trkpt lat="47.01588" lon="7.03574">
        <ele>432.4</ele>
        <time>2022-09-30T12:31:26Z</time>
      </trkpt>
      <trkpt lat="47.01593" lon="7.03571">
        <ele>432.4</ele>
        <time>2022-09-30T12:31:27Z</time>
      </trkpt>
      <trkpt lat="47.01597" lon="7.03568">
        <ele>432.5</ele>
        <time>2022-09-30T12:31:28Z</time>
      </trkpt>
      <trkpt lat="47.016" lon="7.03565">
        <ele>432.5</ele>
        <time>2022-09-30T12:31:29Z</time>
      </trkpt>
      <trkpt lat="47.01604" lon="7.03562">
        <ele>432.6</ele>
        <time>2022-09-30T12:31:30Z</time>
      </trkpt>
      <trkpt lat="47.01607" lon="7.03559">
        <ele>432.6</ele>
        <time>2022-09-30T12:31:31Z</time>
      </trkpt>
      <trkpt lat="47.01611" lon="7.03557">
        <ele>432.7</ele>
        <time>2022-09-30T12:31:32Z</time>
      </trkpt>
      <trkpt lat="47.01614" lon="7.03555">
        <ele>432.7</ele>
        <time>2022-09-30T12:31:33Z</time>
      </trkpt>
      <trkpt lat="47.01617" lon="7.03552">
        <ele>432.7</ele>
        <time>2022-09-30T12:31:34Z</time>
      </trkpt>
      <trkpt lat="47.01619" lon="7.0355">
        <ele>432.8</ele>
        <time>2022-09-30T12:31:35Z</time>
      </trkpt>
      <trkpt lat="47.01622" lon="7.03547">
        <ele>432.8</ele>
        <time>2022-09-30T12:31:36Z</time>
      </trkpt>
      <trkpt lat="47.01624" lon="7.03544">
        <ele>432.8</ele>
        <time>2022-09-30T12:31:37Z</time>
      </trkpt>
      <trkpt lat="47.01628" lon="7.03542">
        <ele>432.8</ele>
        <time>2022-09-30T12:31:38Z</time>
      </trkpt>
      <trkpt lat="47.01629" lon="7.03541">
        <ele>432.8</ele>
        <time>2022-09-30T12:31:39Z</time>
      </trkpt>
      <trkpt lat="47.01631" lon="7.03542">
        <ele>432.7</ele>
        <time>2022-09-30T12:31:40Z</time>
      </trkpt>
      <trkpt lat="47.01632" lon="7.03543">
        <ele>432.7</ele>
        <time>2022-09-30T12:31:41Z</time>
      </trkpt>
      <trkpt lat="47.01634" lon="7.03546">
        <ele>432.7</ele>
        <time>2022-09-30T12:31:42Z</time>
      </trkpt>
      <trkpt lat="47.01635" lon="7.03551">
        <ele>432.6</ele>
        <time>2022-09-30T12:31:43Z</time>
      </trkpt>
      <trkpt lat="47.01637" lon="7.03556">
        <ele>432.6</ele>
        <time>2022-09-30T12:31:44Z</time>
      </trkpt>
      <trkpt lat="47.01639" lon="7.03561">
        <ele>432.6</ele>
        <time>2022-09-30T12:31:45Z</time>
      </trkpt>
      <trkpt lat="47.01641" lon="7.03567">
        <ele>432.5</ele>
        <time>2022-09-30T12:31:46Z</time>
      </trkpt>
      <trkpt lat="47.01644" lon="7.03572">
        <ele>432.5</ele>
        <time>2022-09-30T12:31:47Z</time>
      </trkpt>
      <trkpt lat="47.01646" lon="7.03578">
        <ele>432.5</ele>
        <time>2022-09-30T12:31:48Z</time>
      </trkpt>
      <trkpt lat="47.01649" lon="7.03583">
        <ele>432.4</ele>
        <time>2022-09-30T12:31:49Z</time>
      </trkpt>
      <trkpt lat="47.01652" lon="7.03589">
        <ele>432.4</ele>
        <time>2022-09-30T12:31:50Z</time>
      </trkpt>
      <trkpt lat="47.01654" lon="7.03595">
        <ele>432.4</ele>
        <time>2022-09-30T12:31:51Z</time>
      </trkpt>
      <trkpt lat="47.01657" lon="7.036">
        <ele>432.4</ele>
        <time>2022-09-30T12:31:52Z</time>
      </trkpt>
      <trkpt lat="47.0166" lon="7.03606">
        <ele>432.4</ele>
        <time>2022-09-30T12:31:53Z</time>
      </trkpt>
      <trkpt lat="47.01661" lon="7.03612">
        <ele>432.4</ele>
        <time>2022-09-30T12:31:54Z</time>
      </trkpt>
      <trkpt lat="47.01664" lon="7.03617">
        <ele>432.4</ele>
        <time>2022-09-30T12:31:55Z</time>
      </trkpt>
      <trkpt lat="47.01667" lon="7.03622">
        <ele>432.4</ele>
        <time>2022-09-30T12:31:56Z</time>
      </trkpt>
      <trkpt lat="47.01669" lon="7.03627">
        <ele>432.4</ele>
        <time>2022-09-30T12:31:57Z</time>
      </trkpt>
      <trkpt lat="47.01672" lon="7.03633">
        <ele>432.4</ele>
        <time>2022-09-30T12:31:58Z</time>
      </trkpt>
      <trkpt lat="47.01675" lon="7.03638">
        <ele>432.4</ele>
        <time>2022-09-30T12:31:59Z</time>
      </trkpt>
      <trkpt lat="47.01679" lon="7.03643">
        <ele>432.4</ele>
        <time>2022-09-30T12:32:00Z</time>
      </trkpt>
      <trkpt lat="47.01682" lon="7.03647">
        <ele>432.4</ele>
        <time>2022-09-30T12:32:01Z</time>
      </trkpt>
      <trkpt lat="47.01686" lon="7.03651">
        <ele>432.4</ele>
        <time>2022-09-30T12:32:02Z</time>
      </trkpt>
      <trkpt lat="47.0169" lon="7.03654">
        <ele>432.3</ele>
        <time>2022-09-30T12:32:03Z</time>
      </trkpt>
      <trkpt lat="47.01694" lon="7.03656">
        <ele>432.3</ele>
        <time>2022-09-30T12:32:04Z</time>
      </trkpt>
      <trkpt lat="47.017" lon="7.03658">
        <ele>432.3</ele>
        <time>2022-09-30T12:32:05Z</time>
      </trkpt>
      <trkpt lat="47.01704" lon="7.03659">
        <ele>432.3</ele>
        <time>2022-09-30T12:32:06Z</time>
      </trkpt>
      <trkpt lat="47.0171" lon="7.0366">
        <ele>432.3</ele>
        <time>2022-09-30T12:32:07Z</time>
      </trkpt>
      <trkpt lat="47.01715" lon="7.03659">
        <ele>432.3</ele>
        <time>2022-09-30T12:32:08Z</time>
      </trkpt>
      <trkpt lat="47.0172" lon="7.03659">
        <ele>432.3</ele>
        <time>2022-09-30T12:32:09Z</time>
      </trkpt>
      <trkpt lat="47.01724" lon="7.03659">
        <ele>432.3</ele>
        <time>2022-09-30T12:32:10Z</time>
      </trkpt>
      <trkpt lat="47.01729" lon="7.03659">
        <ele>432.3</ele>
        <time>2022-09-30T12:32:11Z</time>
      </trkpt>
      <trkpt lat="47.01734" lon="7.03658">
        <ele>432.2</ele>
        <time>2022-09-30T12:32:12Z</time>
      </trkpt>
      <trkpt lat="47.01739" lon="7.03658">
        <ele>432.2</ele>
        <time>2022-09-30T12:32:13Z</time>
      </trkpt>
      <trkpt lat="47.01744" lon="7.03657">
        <ele>432.2</ele>
        <time>2022-09-30T12:32:14Z</time>
      </trkpt>
      <trkpt lat="47.01749" lon="7.03656">
        <ele>432.2</ele>
        <time>2022-09-30T12:32:15Z</time>
      </trkpt>
      <trkpt lat="47.01754" lon="7.03656">
        <ele>432.2</ele>
        <time>2022-09-30T12:32:16Z</time>
      </trkpt>
      <trkpt lat="47.01759" lon="7.03656">
        <ele>432.2</ele>
        <time>2022-09-30T12:32:17Z</time>
      </trkpt>
      <trkpt lat="47.01764" lon="7.03655">
        <ele>432.2</ele>
        <time>2022-09-30T12:32:18Z</time>
      </trkpt>
      <trkpt lat="47.01769" lon="7.03655">
        <ele>432.1</ele>
        <time>2022-09-30T12:32:19Z</time>
      </trkpt>
      <trkpt lat="47.01774" lon="7.03655">
        <ele>432.1</ele>
        <time>2022-09-30T12:32:20Z</time>
      </trkpt>
      <trkpt lat="47.01779" lon="7.03655">
        <ele>432.1</ele>
        <time>2022-09-30T12:32:21Z</time>
      </trkpt>
      <trkpt lat="47.01784" lon="7.03654">
        <ele>432.1</ele>
        <time>2022-09-30T12:32:22Z</time>
      </trkpt>
      <trkpt lat="47.01789" lon="7.03654">
        <ele>432.1</ele>
        <time>2022-09-30T12:32:23Z</time>
      </trkpt>
      <trkpt lat="47.01794" lon="7.03654">
        <ele>432.1</ele>
        <time>2022-09-30T12:32:24Z</time>
      </trkpt>
      <trkpt lat="47.01799" lon="7.03653">
        <ele>432.1</ele>
        <time>2022-09-30T12:32:25Z</time>
      </trkpt>
      <trkpt lat="47.01804" lon="7.03653">
        <ele>432.1</ele>
        <time>2022-09-30T12:32:26Z</time>
      </trkpt>
      <trkpt lat="47.01808" lon="7.03653">
        <ele>432.1</ele>
        <time>2022-09-30T12:32:27Z</time>
      </trkpt>
      <trkpt lat="47.01813" lon="7.03652">
        <ele>432.1</ele>
        <time>2022-09-30T12:32:28Z</time>
      </trkpt>
      <trkpt lat="47.01818" lon="7.03652">
        <ele>432.1</ele>
        <time>2022-09-30T12:32:29Z</time>
      </trkpt>
      <trkpt lat="47.01822" lon="7.03651">
        <ele>432.1</ele>
        <time>2022-09-30T12:32:30Z</time>
      </trkpt>
      <trkpt lat="47.01827" lon="7.03652">
        <ele>432.1</ele>
        <time>2022-09-30T12:32:31Z</time>
      </trkpt>
      <trkpt lat="47.01831" lon="7.03651">
        <ele>432.1</ele>
        <time>2022-09-30T12:32:32Z</time>
      </trkpt>
      <trkpt lat="47.01835" lon="7.03652">
        <ele>432.1</ele>
        <time>2022-09-30T12:32:33Z</time>
      </trkpt>
      <trkpt lat="47.01839" lon="7.03652">
        <ele>432.2</ele>
        <time>2022-09-30T12:32:34Z</time>
      </trkpt>
      <trkpt lat="47.01842" lon="7.03652">
        <ele>432.2</ele>
        <time>2022-09-30T12:32:35Z</time>
      </trkpt>
      <trkpt lat="47.01843" lon="7.03652">
        <ele>432.2</ele>
        <time>2022-09-30T12:32:36Z</time>
      </trkpt>
      <trkpt lat="47.01844" lon="7.03653">
        <ele>432.2</ele>
        <time>2022-09-30T12:32:37Z</time>
      </trkpt>
      <trkpt lat="47.01846" lon="7.03651">
        <ele>432.2</ele>
        <time>2022-09-30T12:32:38Z</time>
      </trkpt>
      <trkpt lat="47.01847" lon="7.03652">
        <ele>432.2</ele>
        <time>2022-09-30T12:32:39Z</time>
      </trkpt>
      <trkpt lat="47.01848" lon="7.03651">
        <ele>432.2</ele>
        <time>2022-09-30T12:32:40Z</time>
      </trkpt>
      <trkpt lat="47.01849" lon="7.03651">
        <ele>432.2</ele>
        <time>2022-09-30T12:32:41Z</time>
      </trkpt>
      <trkpt lat="47.0185" lon="7.03651">
        <ele>432.2</ele>
        <time>2022-09-30T12:32:42Z</time>
      </trkpt>
      <trkpt lat="47.01854" lon="7.0365">
        <ele>432.2</ele>
        <time>2022-09-30T12:32:43Z</time>
      </trkpt>
      <trkpt lat="47.01855" lon="7.03649">
        <ele>432.2</ele>
        <time>2022-09-30T12:32:44Z</time>
      </trkpt>
      <trkpt lat="47.01858" lon="7.03648">
        <ele>432.2</ele>
        <time>2022-09-30T12:32:45Z</time>
      </trkpt>
      <trkpt lat="47.01861" lon="7.03648">
        <ele>432.2</ele>
        <time>2022-09-30T12:32:46Z</time>
      </trkpt>
      <trkpt lat="47.01864" lon="7.03648">
        <ele>432.2</ele>
        <time>2022-09-30T12:32:47Z</time>
      </trkpt>
      <trkpt lat="47.01868" lon="7.03647">
        <ele>432.2</ele>
        <time>2022-09-30T12:32:48Z</time>
      </trkpt>
      <trkpt lat="47.01871" lon="7.03647">
        <ele>432.2</ele>
        <time>2022-09-30T12:32:49Z</time>
      </trkpt>
      <trkpt lat="47.01875" lon="7.03647">
        <ele>432.2</ele>
        <time>2022-09-30T12:32:50Z</time>
      </trkpt>
      <trkpt lat="47.01879" lon="7.03647">
        <ele>432.2</ele>
        <time>2022-09-30T12:32:51Z</time>
      </trkpt>
      <trkpt lat="47.01883" lon="7.03647">
        <ele>432.2</ele>
        <time>2022-09-30T12:32:52Z</time>
      </trkpt>
      <trkpt lat="47.01886" lon="7.03647">
        <ele>432.2</ele>
        <time>2022-09-30T12:32:53Z</time>
      </trkpt>
      <trkpt lat="47.01892" lon="7.03646">
        <ele>432.2</ele>
        <time>2022-09-30T12:32:54Z</time>
      </trkpt>
      <trkpt lat="47.01895" lon="7.03646">
        <ele>432.2</ele>
        <time>2022-09-30T12:32:55Z</time>
      </trkpt>
      <trkpt lat="47.01899" lon="7.03646">
        <ele>432.2</ele>
        <time>2022-09-30T12:32:56Z</time>
      </trkpt>
      <trkpt lat="47.01904" lon="7.03646">
        <ele>432.2</ele>
        <time>2022-09-30T12:32:57Z</time>
      </trkpt>
      <trkpt lat="47.01908" lon="7.03645">
        <ele>432.2</ele>
        <time>2022-09-30T12:32:58Z</time>
      </trkpt>
      <trkpt lat="47.01913" lon="7.03647">
        <ele>432.2</ele>
        <time>2022-09-30T12:32:59Z</time>
      </trkpt>
      <trkpt lat="47.01917" lon="7.03645">
        <ele>432.2</ele>
        <time>2022-09-30T12:33:00Z</time>
      </trkpt>
      <trkpt lat="47.01922" lon="7.03645">
        <ele>432.2</ele>
        <time>2022-09-30T12:33:01Z</time>
      </trkpt>
      <trkpt lat="47.01926" lon="7.03645">
        <ele>432.3</ele>
        <time>2022-09-30T12:33:02Z</time>
      </trkpt>
      <trkpt lat="47.01931" lon="7.03646">
        <ele>432.3</ele>
        <time>2022-09-30T12:33:03Z</time>
      </trkpt>
      <trkpt lat="47.01935" lon="7.03645">
        <ele>432.3</ele>
        <time>2022-09-30T12:33:04Z</time>
      </trkpt>
      <trkpt lat="47.0194" lon="7.03645">
        <ele>432.3</ele>
        <time>2022-09-30T12:33:05Z</time>
      </trkpt>
      <trkpt lat="47.01944" lon="7.03644">
        <ele>432.3</ele>
        <time>2022-09-30T12:33:06Z</time>
      </trkpt>
      <trkpt lat="47.01948" lon="7.03644">
        <ele>432.3</ele>
        <time>2022-09-30T12:33:07Z</time>
      </trkpt>
      <trkpt lat="47.01952" lon="7.03644">
        <ele>432.3</ele>
        <time>2022-09-30T12:33:08Z</time>
      </trkpt>
      <trkpt lat="47.01957" lon="7.03644">
        <ele>432.3</ele>
        <time>2022-09-30T12:33:09Z</time>
      </trkpt>
      <trkpt lat="47.01961" lon="7.03643">
        <ele>432.3</ele>
        <time>2022-09-30T12:33:10Z</time>
      </trkpt>
      <trkpt lat="47.01965" lon="7.03642">
        <ele>432.3</ele>
        <time>2022-09-30T12:33:11Z</time>
      </trkpt>
      <trkpt lat="47.01969" lon="7.03642">
        <ele>432.3</ele>
        <time>2022-09-30T12:33:12Z</time>
      </trkpt>
      <trkpt lat="47.01973" lon="7.03641">
        <ele>432.3</ele>
        <time>2022-09-30T12:33:13Z</time>
      </trkpt>
      <trkpt lat="47.01977" lon="7.03641">
        <ele>432.3</ele>
        <time>2022-09-30T12:33:14Z</time>
      </trkpt>
      <trkpt lat="47.01981" lon="7.03641">
        <ele>432.3</ele>
        <time>2022-09-30T12:33:15Z</time>
      </trkpt>
      <trkpt lat="47.01986" lon="7.03641">
        <ele>432.3</ele>
        <time>2022-09-30T12:33:16Z</time>
      </trkpt>
      <trkpt lat="47.01991" lon="7.0364">
        <ele>432.3</ele>
        <time>2022-09-30T12:33:17Z</time>
      </trkpt>
      <trkpt lat="47.01995" lon="7.0364">
        <ele>432.3</ele>
        <time>2022-09-30T12:33:18Z</time>
      </trkpt>
      <trkpt lat="47.01999" lon="7.0364">
        <ele>432.3</ele>
        <time>2022-09-30T12:33:19Z</time>
      </trkpt>
      <trkpt lat="47.02003" lon="7.0364">
        <ele>432.3</ele>
        <time>2022-09-30T12:33:20Z</time>
      </trkpt>
      <trkpt lat="47.02007" lon="7.03639">
        <ele>432.3</ele>
        <time>2022-09-30T12:33:21Z</time>
      </trkpt>
      <trkpt lat="47.02011" lon="7.03639">
        <ele>432.3</ele>
        <time>2022-09-30T12:33:22Z</time>
      </trkpt>
      <trkpt lat="47.02015" lon="7.03639">
        <ele>432.4</ele>
        <time>2022-09-30T12:33:23Z</time>
      </trkpt>
      <trkpt lat="47.02019" lon="7.03639">
        <ele>432.4</ele>
        <time>2022-09-30T12:33:24Z</time>
      </trkpt>
      <trkpt lat="47.02023" lon="7.0364">
        <ele>432.5</ele>
        <time>2022-09-30T12:33:25Z</time>
      </trkpt>
      <trkpt lat="47.02026" lon="7.03639">
        <ele>432.5</ele>
        <time>2022-09-30T12:33:26Z</time>
      </trkpt>
      <trkpt lat="47.02029" lon="7.03639">
        <ele>432.6</ele>
        <time>2022-09-30T12:33:27Z</time>
      </trkpt>
      <trkpt lat="47.02033" lon="7.03638">
        <ele>432.6</ele>
        <time>2022-09-30T12:33:28Z</time>
      </trkpt>
      <trkpt lat="47.02037" lon="7.03636">
        <ele>432.7</ele>
        <time>2022-09-30T12:33:29Z</time>
      </trkpt>
      <trkpt lat="47.0204" lon="7.03634">
        <ele>432.7</ele>
        <time>2022-09-30T12:33:30Z</time>
      </trkpt>
      <trkpt lat="47.02043" lon="7.03631">
        <ele>432.7</ele>
        <time>2022-09-30T12:33:31Z</time>
      </trkpt>
      <trkpt lat="47.02045" lon="7.03626">
        <ele>432.7</ele>
        <time>2022-09-30T12:33:32Z</time>
      </trkpt>
      <trkpt lat="47.02048" lon="7.03622">
        <ele>432.7</ele>
        <time>2022-09-30T12:33:33Z</time>
      </trkpt>
      <trkpt lat="47.0205" lon="7.03618">
        <ele>432.7</ele>
        <time>2022-09-30T12:33:34Z</time>
      </trkpt>
      <trkpt lat="47.02052" lon="7.03613">
        <ele>432.7</ele>
        <time>2022-09-30T12:33:35Z</time>
      </trkpt>
      <trkpt lat="47.02054" lon="7.03608">
        <ele>432.7</ele>
        <time>2022-09-30T12:33:36Z</time>
      </trkpt>
      <trkpt lat="47.02056" lon="7.03605">
        <ele>432.7</ele>
        <time>2022-09-30T12:33:37Z</time>
      </trkpt>
      <trkpt lat="47.02059" lon="7.036">
        <ele>432.7</ele>
        <time>2022-09-30T12:33:38Z</time>
      </trkpt>
      <trkpt lat="47.02061" lon="7.03595">
        <ele>432.7</ele>
        <time>2022-09-30T12:33:39Z</time>
      </trkpt>
      <trkpt lat="47.02063" lon="7.03591">
        <ele>432.7</ele>
        <time>2022-09-30T12:33:40Z</time>
      </trkpt>
      <trkpt lat="47.02064" lon="7.03586">
        <ele>432.7</ele>
        <time>2022-09-30T12:33:41Z</time>
      </trkpt>
      <trkpt lat="47.02067" lon="7.03582">
        <ele>432.7</ele>
        <time>2022-09-30T12:33:42Z</time>
      </trkpt>
      <trkpt lat="47.02069" lon="7.03578">
        <ele>432.8</ele>
        <time>2022-09-30T12:33:43Z</time>
      </trkpt>
      <trkpt lat="47.02071" lon="7.03574">
        <ele>432.8</ele>
        <time>2022-09-30T12:33:44Z</time>
      </trkpt>
      <trkpt lat="47.02073" lon="7.03569">
        <ele>432.8</ele>
        <time>2022-09-30T12:33:45Z</time>
      </trkpt>
      <trkpt lat="47.02075" lon="7.03564">
        <ele>432.8</ele>
        <time>2022-09-30T12:33:46Z</time>
      </trkpt>
      <trkpt lat="47.02077" lon="7.0356">
        <ele>432.8</ele>
        <time>2022-09-30T12:33:47Z</time>
      </trkpt>
      <trkpt lat="47.0208" lon="7.03555">
        <ele>432.9</ele>
        <time>2022-09-30T12:33:48Z</time>
      </trkpt>
      <trkpt lat="47.02082" lon="7.03552">
        <ele>432.9</ele>
        <time>2022-09-30T12:33:49Z</time>
      </trkpt>
      <trkpt lat="47.02085" lon="7.03548">
        <ele>432.9</ele>
        <time>2022-09-30T12:33:50Z</time>
      </trkpt>
      <trkpt lat="47.02088" lon="7.03546">
        <ele>433</ele>
        <time>2022-09-30T12:33:51Z</time>
      </trkpt>
      <trkpt lat="47.02091" lon="7.03544">
        <ele>433</ele>
        <time>2022-09-30T12:33:52Z</time>
      </trkpt>
      <trkpt lat="47.02096" lon="7.03542">
        <ele>433.1</ele>
        <time>2022-09-30T12:33:53Z</time>
      </trkpt>
      <trkpt lat="47.021" lon="7.03541">
        <ele>433.1</ele>
        <time>2022-09-30T12:33:54Z</time>
      </trkpt>
      <trkpt lat="47.02105" lon="7.03539">
        <ele>433.2</ele>
        <time>2022-09-30T12:33:55Z</time>
      </trkpt>
      <trkpt lat="47.02109" lon="7.03537">
        <ele>433.3</ele>
        <time>2022-09-30T12:33:56Z</time>
      </trkpt>
      <trkpt lat="47.02113" lon="7.03535">
        <ele>433.4</ele>
        <time>2022-09-30T12:33:57Z</time>
      </trkpt>
      <trkpt lat="47.02119" lon="7.03534">
        <ele>433.6</ele>
        <time>2022-09-30T12:33:58Z</time>
      </trkpt>
      <trkpt lat="47.02122" lon="7.03532">
        <ele>433.7</ele>
        <time>2022-09-30T12:33:59Z</time>
      </trkpt>
      <trkpt lat="47.02126" lon="7.03531">
        <ele>433.7</ele>
        <time>2022-09-30T12:34:00Z</time>
      </trkpt>
      <trkpt lat="47.0213" lon="7.03529">
        <ele>433.8</ele>
        <time>2022-09-30T12:34:01Z</time>
      </trkpt>
      <trkpt lat="47.02133" lon="7.03527">
        <ele>433.8</ele>
        <time>2022-09-30T12:34:02Z</time>
      </trkpt>
      <trkpt lat="47.02137" lon="7.03526">
        <ele>433.9</ele>
        <time>2022-09-30T12:34:03Z</time>
      </trkpt>
      <trkpt lat="47.02141" lon="7.03526">
        <ele>433.9</ele>
        <time>2022-09-30T12:34:04Z</time>
      </trkpt>
      <trkpt lat="47.02145" lon="7.03526">
        <ele>434</ele>
        <time>2022-09-30T12:34:05Z</time>
      </trkpt>
      <trkpt lat="47.02148" lon="7.03525">
        <ele>434.1</ele>
        <time>2022-09-30T12:34:06Z</time>
      </trkpt>
      <trkpt lat="47.02152" lon="7.03525">
        <ele>434.2</ele>
        <time>2022-09-30T12:34:07Z</time>
      </trkpt>
      <trkpt lat="47.02156" lon="7.03525">
        <ele>434.3</ele>
        <time>2022-09-30T12:34:08Z</time>
      </trkpt>
      <trkpt lat="47.0216" lon="7.03526">
        <ele>434.4</ele>
        <time>2022-09-30T12:34:09Z</time>
      </trkpt>
      <trkpt lat="47.02163" lon="7.03526">
        <ele>434.5</ele>
        <time>2022-09-30T12:34:10Z</time>
      </trkpt>
      <trkpt lat="47.02166" lon="7.03526">
        <ele>434.5</ele>
        <time>2022-09-30T12:34:11Z</time>
      </trkpt>
      <trkpt lat="47.02169" lon="7.03527">
        <ele>434.7</ele>
        <time>2022-09-30T12:34:12Z</time>
      </trkpt>
      <trkpt lat="47.02171" lon="7.03527">
        <ele>434.7</ele>
        <time>2022-09-30T12:34:13Z</time>
      </trkpt>
      <trkpt lat="47.02174" lon="7.03529">
        <ele>434.8</ele>
        <time>2022-09-30T12:34:14Z</time>
      </trkpt>
      <trkpt lat="47.02175" lon="7.0353">
        <ele>434.9</ele>
        <time>2022-09-30T12:34:15Z</time>
      </trkpt>
      <trkpt lat="47.02178" lon="7.03532">
        <ele>434.9</ele>
        <time>2022-09-30T12:34:16Z</time>
      </trkpt>
      <trkpt lat="47.02179" lon="7.03532">
        <ele>434.9</ele>
        <time>2022-09-30T12:34:17Z</time>
      </trkpt>
      <trkpt lat="47.02182" lon="7.03534">
        <ele>434.9</ele>
        <time>2022-09-30T12:34:18Z</time>
      </trkpt>
      <trkpt lat="47.02183" lon="7.03535">
        <ele>434.9</ele>
        <time>2022-09-30T12:34:19Z</time>
      </trkpt>
      <trkpt lat="47.02186" lon="7.03538">
        <ele>435</ele>
        <time>2022-09-30T12:34:20Z</time>
      </trkpt>
      <trkpt lat="47.02187" lon="7.0354">
        <ele>435</ele>
        <time>2022-09-30T12:34:21Z</time>
      </trkpt>
      <trkpt lat="47.0219" lon="7.03544">
        <ele>435</ele>
        <time>2022-09-30T12:34:22Z</time>
      </trkpt>
      <trkpt lat="47.0219" lon="7.03546">
        <ele>435</ele>
        <time>2022-09-30T12:34:23Z</time>
      </trkpt>
      <trkpt lat="47.02193" lon="7.0355">
        <ele>435</ele>
        <time>2022-09-30T12:34:24Z</time>
      </trkpt>
      <trkpt lat="47.02194" lon="7.03552">
        <ele>435</ele>
        <time>2022-09-30T12:34:25Z</time>
      </trkpt>
      <trkpt lat="47.02195" lon="7.03556">
        <ele>435</ele>
        <time>2022-09-30T12:34:26Z</time>
      </trkpt>
      <trkpt lat="47.02195" lon="7.03561">
        <ele>435.1</ele>
        <time>2022-09-30T12:34:27Z</time>
      </trkpt>
      <trkpt lat="47.02196" lon="7.03566">
        <ele>435.1</ele>
        <time>2022-09-30T12:34:28Z</time>
      </trkpt>
      <trkpt lat="47.02197" lon="7.03571">
        <ele>435.1</ele>
        <time>2022-09-30T12:34:29Z</time>
      </trkpt>
      <trkpt lat="47.02198" lon="7.03576">
        <ele>435.1</ele>
        <time>2022-09-30T12:34:30Z</time>
      </trkpt>
      <trkpt lat="47.02199" lon="7.03582">
        <ele>435.2</ele>
        <time>2022-09-30T12:34:31Z</time>
      </trkpt>
      <trkpt lat="47.022" lon="7.03588">
        <ele>435.2</ele>
        <time>2022-09-30T12:34:32Z</time>
      </trkpt>
      <trkpt lat="47.02201" lon="7.03595">
        <ele>435.3</ele>
        <time>2022-09-30T12:34:33Z</time>
      </trkpt>
      <trkpt lat="47.02201" lon="7.03601">
        <ele>435.3</ele>
        <time>2022-09-30T12:34:34Z</time>
      </trkpt>
      <trkpt lat="47.02201" lon="7.03608">
        <ele>435.4</ele>
        <time>2022-09-30T12:34:35Z</time>
      </trkpt>
      <trkpt lat="47.02201" lon="7.03615">
        <ele>435.5</ele>
        <time>2022-09-30T12:34:36Z</time>
      </trkpt>
      <trkpt lat="47.02201" lon="7.03622">
        <ele>435.5</ele>
        <time>2022-09-30T12:34:37Z</time>
      </trkpt>
      <trkpt lat="47.02202" lon="7.03627">
        <ele>435.6</ele>
        <time>2022-09-30T12:34:38Z</time>
      </trkpt>
      <trkpt lat="47.02203" lon="7.03631">
        <ele>435.6</ele>
        <time>2022-09-30T12:34:39Z</time>
      </trkpt>
      <trkpt lat="47.02205" lon="7.03635">
        <ele>435.7</ele>
        <time>2022-09-30T12:34:40Z</time>
      </trkpt>
      <trkpt lat="47.02206" lon="7.03636">
        <ele>435.7</ele>
        <time>2022-09-30T12:34:41Z</time>
      </trkpt>
      <trkpt lat="47.02208" lon="7.03637">
        <ele>435.7</ele>
        <time>2022-09-30T12:34:42Z</time>
      </trkpt>
      <trkpt lat="47.02208" lon="7.03637">
        <ele>435.7</ele>
        <time>2022-09-30T12:34:43Z</time>
      </trkpt>
      <trkpt lat="47.02208" lon="7.03638">
        <ele>435.7</ele>
        <time>2022-09-30T12:34:44Z</time>
      </trkpt>
      <trkpt lat="47.02209" lon="7.03638">
        <ele>435.7</ele>
        <time>2022-09-30T12:34:45Z</time>
      </trkpt>
      <trkpt lat="47.02209" lon="7.03639">
        <ele>435.7</ele>
        <time>2022-09-30T12:34:46Z</time>
      </trkpt>
      <trkpt lat="47.02209" lon="7.03639">
        <ele>435.7</ele>
        <time>2022-09-30T12:34:47Z</time>
      </trkpt>
      <trkpt lat="47.0221" lon="7.0364">
        <ele>435.7</ele>
        <time>2022-09-30T12:34:48Z</time>
      </trkpt>
      <trkpt lat="47.0221" lon="7.0364">
        <ele>435.9</ele>
        <time>2022-09-30T12:34:49Z</time>
      </trkpt>
      <trkpt lat="47.0221" lon="7.03641">
        <ele>435.9</ele>
        <time>2022-09-30T12:34:50Z</time>
      </trkpt>
      <trkpt lat="47.02211" lon="7.03641">
        <ele>435.9</ele>
        <time>2022-09-30T12:34:51Z</time>
      </trkpt>
      <trkpt lat="47.02211" lon="7.03641">
        <ele>435.9</ele>
        <time>2022-09-30T12:37:26Z</time>
      </trkpt>
      <trkpt lat="47.02211" lon="7.03642">
        <ele>435.9</ele>
        <time>2022-09-30T12:37:27Z</time>
      </trkpt>
      <trkpt lat="47.02212" lon="7.03642">
        <ele>435.9</ele>
        <time>2022-09-30T12:37:28Z</time>
      </trkpt>
      <trkpt lat="47.02212" lon="7.03643">
        <ele>435.9</ele>
        <time>2022-09-30T12:37:29Z</time>
      </trkpt>
      <trkpt lat="47.02212" lon="7.03643">
        <ele>435.9</ele>
        <time>2022-09-30T12:37:30Z</time>
      </trkpt>
      <trkpt lat="47.02213" lon="7.03644">
        <ele>435.9</ele>
        <time>2022-09-30T12:37:31Z</time>
      </trkpt>
      <trkpt lat="47.02213" lon="7.03644">
        <ele>435.9</ele>
        <time>2022-09-30T12:37:32Z</time>
      </trkpt>
      <trkpt lat="47.02213" lon="7.03645">
        <ele>435.9</ele>
        <time>2022-09-30T12:37:33Z</time>
      </trkpt>
      <trkpt lat="47.02214" lon="7.03645">
        <ele>435.9</ele>
        <time>2022-09-30T12:37:34Z</time>
      </trkpt>
      <trkpt lat="47.02214" lon="7.03646">
        <ele>436</ele>
        <time>2022-09-30T12:37:35Z</time>
      </trkpt>
      <trkpt lat="47.02214" lon="7.03646">
        <ele>436</ele>
        <time>2022-09-30T12:37:36Z</time>
      </trkpt>
      <trkpt lat="47.02215" lon="7.03647">
        <ele>436</ele>
        <time>2022-09-30T12:37:37Z</time>
      </trkpt>
      <trkpt lat="47.02215" lon="7.03647">
        <ele>436</ele>
        <time>2022-09-30T12:37:42Z</time>
      </trkpt>
      <trkpt lat="47.02215" lon="7.03648">
        <ele>436</ele>
        <time>2022-09-30T12:37:43Z</time>
      </trkpt>
      <trkpt lat="47.02216" lon="7.03652">
        <ele>436</ele>
        <time>2022-09-30T12:37:44Z</time>
      </trkpt>
      <trkpt lat="47.02216" lon="7.03654">
        <ele>436.1</ele>
        <time>2022-09-30T12:37:45Z</time>
      </trkpt>
      <trkpt lat="47.02214" lon="7.03658">
        <ele>436.2</ele>
        <time>2022-09-30T12:37:46Z</time>
      </trkpt>
      <trkpt lat="47.02213" lon="7.03659">
        <ele>436.2</ele>
        <time>2022-09-30T12:37:47Z</time>
      </trkpt>
      <trkpt lat="47.02211" lon="7.03663">
        <ele>436.3</ele>
        <time>2022-09-30T12:37:48Z</time>
      </trkpt>
      <trkpt lat="47.02211" lon="7.03665">
        <ele>436.3</ele>
        <time>2022-09-30T12:37:49Z</time>
      </trkpt>
      <trkpt lat="47.0221" lon="7.03671">
        <ele>436.4</ele>
        <time>2022-09-30T12:37:50Z</time>
      </trkpt>
      <trkpt lat="47.0221" lon="7.03672">
        <ele>436.4</ele>
        <time>2022-09-30T12:37:51Z</time>
      </trkpt>
      <trkpt lat="47.02211" lon="7.03677">
        <ele>436.5</ele>
        <time>2022-09-30T12:37:52Z</time>
      </trkpt>
      <trkpt lat="47.02212" lon="7.03682">
        <ele>436.6</ele>
        <time>2022-09-30T12:37:53Z</time>
      </trkpt>
      <trkpt lat="47.02212" lon="7.03684">
        <ele>436.6</ele>
        <time>2022-09-30T12:37:54Z</time>
      </trkpt>
      <trkpt lat="47.02212" lon="7.03689">
        <ele>436.7</ele>
        <time>2022-09-30T12:37:55Z</time>
      </trkpt>
      <trkpt lat="47.02212" lon="7.0369">
        <ele>436.7</ele>
        <time>2022-09-30T12:37:56Z</time>
      </trkpt>
      <trkpt lat="47.02213" lon="7.03697">
        <ele>436.8</ele>
        <time>2022-09-30T12:37:58Z</time>
      </trkpt>
      <trkpt lat="47.02213" lon="7.03701">
        <ele>436.9</ele>
        <time>2022-09-30T12:37:59Z</time>
      </trkpt>
      <trkpt lat="47.02214" lon="7.03705">
        <ele>437</ele>
        <time>2022-09-30T12:38:00Z</time>
      </trkpt>
      <trkpt lat="47.02216" lon="7.03709">
        <ele>437</ele>
        <time>2022-09-30T12:38:02Z</time>
      </trkpt>
      <trkpt lat="47.02216" lon="7.03711">
        <ele>437.1</ele>
        <time>2022-09-30T12:38:03Z</time>
      </trkpt>
      <trkpt lat="47.02217" lon="7.03716">
        <ele>437.2</ele>
        <time>2022-09-30T12:38:04Z</time>
      </trkpt>
      <trkpt lat="47.02217" lon="7.03717">
        <ele>437.2</ele>
        <time>2022-09-30T12:38:05Z</time>
      </trkpt>
      <trkpt lat="47.02218" lon="7.03722">
        <ele>437.3</ele>
        <time>2022-09-30T12:38:06Z</time>
      </trkpt>
      <trkpt lat="47.02219" lon="7.03723">
        <ele>437.4</ele>
        <time>2022-09-30T12:38:07Z</time>
      </trkpt>
      <trkpt lat="47.0222" lon="7.03727">
        <ele>437.5</ele>
        <time>2022-09-30T12:38:08Z</time>
      </trkpt>
      <trkpt lat="47.0222" lon="7.03729">
        <ele>437.5</ele>
        <time>2022-09-30T12:38:09Z</time>
      </trkpt>
      <trkpt lat="47.02221" lon="7.03733">
        <ele>437.6</ele>
        <time>2022-09-30T12:38:10Z</time>
      </trkpt>
      <trkpt lat="47.02221" lon="7.03734">
        <ele>437.6</ele>
        <time>2022-09-30T12:38:11Z</time>
      </trkpt>
      <trkpt lat="47.02223" lon="7.03738">
        <ele>437.8</ele>
        <time>2022-09-30T12:38:12Z</time>
      </trkpt>
      <trkpt lat="47.02223" lon="7.0374">
        <ele>437.8</ele>
        <time>2022-09-30T12:38:13Z</time>
      </trkpt>
      <trkpt lat="47.02224" lon="7.03745">
        <ele>437.9</ele>
        <time>2022-09-30T12:38:14Z</time>
      </trkpt>
      <trkpt lat="47.02224" lon="7.03746">
        <ele>438</ele>
        <time>2022-09-30T12:38:15Z</time>
      </trkpt>
      <trkpt lat="47.02225" lon="7.03751">
        <ele>438.1</ele>
        <time>2022-09-30T12:38:16Z</time>
      </trkpt>
      <trkpt lat="47.02226" lon="7.03752">
        <ele>438.1</ele>
        <time>2022-09-30T12:38:17Z</time>
      </trkpt>
      <trkpt lat="47.02226" lon="7.03759">
        <ele>438.3</ele>
        <time>2022-09-30T12:38:18Z</time>
      </trkpt>
      <trkpt lat="47.02226" lon="7.03763">
        <ele>438.4</ele>
        <time>2022-09-30T12:38:19Z</time>
      </trkpt>
      <trkpt lat="47.02226" lon="7.03765">
        <ele>438.4</ele>
        <time>2022-09-30T12:38:20Z</time>
      </trkpt>
      <trkpt lat="47.02225" lon="7.03769">
        <ele>438.4</ele>
        <time>2022-09-30T12:38:21Z</time>
      </trkpt>
      <trkpt lat="47.02225" lon="7.03771">
        <ele>438.5</ele>
        <time>2022-09-30T12:38:22Z</time>
      </trkpt>
      <trkpt lat="47.02225" lon="7.03776">
        <ele>438.6</ele>
        <time>2022-09-30T12:38:23Z</time>
      </trkpt>
      <trkpt lat="47.02225" lon="7.03777">
        <ele>438.7</ele>
        <time>2022-09-30T12:38:24Z</time>
      </trkpt>
      <trkpt lat="47.02228" lon="7.03782">
        <ele>438.9</ele>
        <time>2022-09-30T12:38:25Z</time>
      </trkpt>
      <trkpt lat="47.02229" lon="7.03783">
        <ele>438.9</ele>
        <time>2022-09-30T12:38:26Z</time>
      </trkpt>
      <trkpt lat="47.02232" lon="7.03787">
        <ele>439.1</ele>
        <time>2022-09-30T12:38:27Z</time>
      </trkpt>
      <trkpt lat="47.02233" lon="7.03789">
        <ele>439.2</ele>
        <time>2022-09-30T12:38:28Z</time>
      </trkpt>
      <trkpt lat="47.02235" lon="7.03794">
        <ele>439.3</ele>
        <time>2022-09-30T12:38:29Z</time>
      </trkpt>
      <trkpt lat="47.02235" lon="7.03795">
        <ele>439.4</ele>
        <time>2022-09-30T12:38:30Z</time>
      </trkpt>
      <trkpt lat="47.02237" lon="7.03799">
        <ele>439.5</ele>
        <time>2022-09-30T12:38:31Z</time>
      </trkpt>
      <trkpt lat="47.02238" lon="7.03801">
        <ele>439.6</ele>
        <time>2022-09-30T12:38:32Z</time>
      </trkpt>
      <trkpt lat="47.02239" lon="7.03805">
        <ele>439.7</ele>
        <time>2022-09-30T12:38:33Z</time>
      </trkpt>
      <trkpt lat="47.02239" lon="7.03806">
        <ele>439.8</ele>
        <time>2022-09-30T12:38:34Z</time>
      </trkpt>
      <trkpt lat="47.0224" lon="7.03811">
        <ele>439.9</ele>
        <time>2022-09-30T12:38:35Z</time>
      </trkpt>
      <trkpt lat="47.0224" lon="7.03812">
        <ele>440</ele>
        <time>2022-09-30T12:38:36Z</time>
      </trkpt>
      <trkpt lat="47.02242" lon="7.03816">
        <ele>440.1</ele>
        <time>2022-09-30T12:38:37Z</time>
      </trkpt>
      <trkpt lat="47.02242" lon="7.03817">
        <ele>440.1</ele>
        <time>2022-09-30T12:38:38Z</time>
      </trkpt>
      <trkpt lat="47.02243" lon="7.03822">
        <ele>440.3</ele>
        <time>2022-09-30T12:38:39Z</time>
      </trkpt>
      <trkpt lat="47.02243" lon="7.03823">
        <ele>440.3</ele>
        <time>2022-09-30T12:38:40Z</time>
      </trkpt>
      <trkpt lat="47.02243" lon="7.03828">
        <ele>440.5</ele>
        <time>2022-09-30T12:38:41Z</time>
      </trkpt>
      <trkpt lat="47.02243" lon="7.0383">
        <ele>440.5</ele>
        <time>2022-09-30T12:38:42Z</time>
      </trkpt>
      <trkpt lat="47.02244" lon="7.03834">
        <ele>440.7</ele>
        <time>2022-09-30T12:38:43Z</time>
      </trkpt>
      <trkpt lat="47.02244" lon="7.03835">
        <ele>440.7</ele>
        <time>2022-09-30T12:38:44Z</time>
      </trkpt>
      <trkpt lat="47.02244" lon="7.0384">
        <ele>440.8</ele>
        <time>2022-09-30T12:38:45Z</time>
      </trkpt>
      <trkpt lat="47.02245" lon="7.03841">
        <ele>440.9</ele>
        <time>2022-09-30T12:38:46Z</time>
      </trkpt>
      <trkpt lat="47.02246" lon="7.03845">
        <ele>441</ele>
        <time>2022-09-30T12:38:47Z</time>
      </trkpt>
      <trkpt lat="47.02246" lon="7.03847">
        <ele>441.1</ele>
        <time>2022-09-30T12:38:48Z</time>
      </trkpt>
      <trkpt lat="47.02247" lon="7.03851">
        <ele>441.2</ele>
        <time>2022-09-30T12:38:49Z</time>
      </trkpt>
      <trkpt lat="47.02247" lon="7.03853">
        <ele>441.2</ele>
        <time>2022-09-30T12:38:50Z</time>
      </trkpt>
      <trkpt lat="47.02248" lon="7.03857">
        <ele>441.4</ele>
        <time>2022-09-30T12:38:51Z</time>
      </trkpt>
      <trkpt lat="47.02248" lon="7.03859">
        <ele>441.4</ele>
        <time>2022-09-30T12:38:52Z</time>
      </trkpt>
      <trkpt lat="47.02248" lon="7.03863">
        <ele>441.6</ele>
        <time>2022-09-30T12:38:53Z</time>
      </trkpt>
      <trkpt lat="47.02249" lon="7.03865">
        <ele>441.6</ele>
        <time>2022-09-30T12:38:54Z</time>
      </trkpt>
      <trkpt lat="47.02249" lon="7.03869">
        <ele>441.7</ele>
        <time>2022-09-30T12:38:55Z</time>
      </trkpt>
      <trkpt lat="47.0225" lon="7.0387">
        <ele>441.8</ele>
        <time>2022-09-30T12:38:56Z</time>
      </trkpt>
      <trkpt lat="47.02251" lon="7.03874">
        <ele>441.9</ele>
        <time>2022-09-30T12:38:57Z</time>
      </trkpt>
      <trkpt lat="47.02252" lon="7.03875">
        <ele>441.9</ele>
        <time>2022-09-30T12:38:58Z</time>
      </trkpt>
      <trkpt lat="47.02253" lon="7.03879">
        <ele>442.1</ele>
        <time>2022-09-30T12:38:59Z</time>
      </trkpt>
      <trkpt lat="47.02253" lon="7.03881">
        <ele>442.1</ele>
        <time>2022-09-30T12:39:00Z</time>
      </trkpt>
      <trkpt lat="47.02253" lon="7.03886">
        <ele>442.3</ele>
        <time>2022-09-30T12:39:01Z</time>
      </trkpt>
      <trkpt lat="47.02253" lon="7.03887">
        <ele>442.3</ele>
        <time>2022-09-30T12:39:02Z</time>
      </trkpt>
      <trkpt lat="47.02254" lon="7.03892">
        <ele>442.4</ele>
        <time>2022-09-30T12:39:03Z</time>
      </trkpt>
      <trkpt lat="47.02254" lon="7.03893">
        <ele>442.5</ele>
        <time>2022-09-30T12:39:04Z</time>
      </trkpt>
      <trkpt lat="47.02254" lon="7.03897">
        <ele>442.6</ele>
        <time>2022-09-30T12:39:05Z</time>
      </trkpt>
      <trkpt lat="47.02255" lon="7.03899">
        <ele>442.6</ele>
        <time>2022-09-30T12:39:06Z</time>
      </trkpt>
      <trkpt lat="47.02255" lon="7.03903">
        <ele>442.8</ele>
        <time>2022-09-30T12:39:07Z</time>
      </trkpt>
      <trkpt lat="47.02255" lon="7.03904">
        <ele>442.8</ele>
        <time>2022-09-30T12:39:08Z</time>
      </trkpt>
      <trkpt lat="47.02256" lon="7.03909">
        <ele>442.9</ele>
        <time>2022-09-30T12:39:09Z</time>
      </trkpt>
      <trkpt lat="47.02256" lon="7.0391">
        <ele>443</ele>
        <time>2022-09-30T12:39:10Z</time>
      </trkpt>
      <trkpt lat="47.02257" lon="7.03914">
        <ele>443.1</ele>
        <time>2022-09-30T12:39:11Z</time>
      </trkpt>
      <trkpt lat="47.02257" lon="7.03916">
        <ele>443.1</ele>
        <time>2022-09-30T12:39:12Z</time>
      </trkpt>
      <trkpt lat="47.02258" lon="7.03921">
        <ele>443.3</ele>
        <time>2022-09-30T12:39:13Z</time>
      </trkpt>
      <trkpt lat="47.02258" lon="7.03922">
        <ele>443.3</ele>
        <time>2022-09-30T12:39:14Z</time>
      </trkpt>
      <trkpt lat="47.02258" lon="7.03926">
        <ele>443.4</ele>
        <time>2022-09-30T12:39:15Z</time>
      </trkpt>
      <trkpt lat="47.02259" lon="7.03928">
        <ele>443.4</ele>
        <time>2022-09-30T12:39:16Z</time>
      </trkpt>
      <trkpt lat="47.02259" lon="7.03932">
        <ele>443.6</ele>
        <time>2022-09-30T12:39:17Z</time>
      </trkpt>
      <trkpt lat="47.02259" lon="7.03934">
        <ele>443.6</ele>
        <time>2022-09-30T12:39:18Z</time>
      </trkpt>
      <trkpt lat="47.0226" lon="7.03939">
        <ele>443.7</ele>
        <time>2022-09-30T12:39:19Z</time>
      </trkpt>
      <trkpt lat="47.0226" lon="7.03941">
        <ele>443.8</ele>
        <time>2022-09-30T12:39:20Z</time>
      </trkpt>
      <trkpt lat="47.02261" lon="7.03945">
        <ele>443.9</ele>
        <time>2022-09-30T12:39:21Z</time>
      </trkpt>
      <trkpt lat="47.02261" lon="7.03947">
        <ele>443.9</ele>
        <time>2022-09-30T12:39:22Z</time>
      </trkpt>
      <trkpt lat="47.02262" lon="7.03952">
        <ele>444</ele>
        <time>2022-09-30T12:39:23Z</time>
      </trkpt>
      <trkpt lat="47.02262" lon="7.03954">
        <ele>444</ele>
        <time>2022-09-30T12:39:24Z</time>
      </trkpt>
      <trkpt lat="47.02263" lon="7.03959">
        <ele>444.2</ele>
        <time>2022-09-30T12:39:25Z</time>
      </trkpt>
      <trkpt lat="47.02264" lon="7.0396">
        <ele>444.2</ele>
        <time>2022-09-30T12:39:26Z</time>
      </trkpt>
      <trkpt lat="47.02264" lon="7.03965">
        <ele>444.3</ele>
        <time>2022-09-30T12:39:27Z</time>
      </trkpt>
      <trkpt lat="47.02265" lon="7.03967">
        <ele>444.3</ele>
        <time>2022-09-30T12:39:28Z</time>
      </trkpt>
      <trkpt lat="47.02265" lon="7.03971">
        <ele>444.4</ele>
        <time>2022-09-30T12:39:29Z</time>
      </trkpt>
      <trkpt lat="47.02266" lon="7.03973">
        <ele>444.5</ele>
        <time>2022-09-30T12:39:30Z</time>
      </trkpt>
      <trkpt lat="47.02266" lon="7.03979">
        <ele>444.6</ele>
        <time>2022-09-30T12:39:31Z</time>
      </trkpt>
      <trkpt lat="47.02267" lon="7.03981">
        <ele>444.6</ele>
        <time>2022-09-30T12:39:32Z</time>
      </trkpt>
      <trkpt lat="47.02267" lon="7.03985">
        <ele>444.7</ele>
        <time>2022-09-30T12:39:33Z</time>
      </trkpt>
      <trkpt lat="47.02268" lon="7.03989">
        <ele>444.8</ele>
        <time>2022-09-30T12:39:34Z</time>
      </trkpt>
      <trkpt lat="47.02269" lon="7.03994">
        <ele>444.9</ele>
        <time>2022-09-30T12:39:35Z</time>
      </trkpt>
      <trkpt lat="47.02269" lon="7.03995">
        <ele>444.9</ele>
        <time>2022-09-30T12:39:36Z</time>
      </trkpt>
      <trkpt lat="47.02269" lon="7.04">
        <ele>445</ele>
        <time>2022-09-30T12:39:37Z</time>
      </trkpt>
      <trkpt lat="47.02269" lon="7.04002">
        <ele>445</ele>
        <time>2022-09-30T12:39:38Z</time>
      </trkpt>
      <trkpt lat="47.02269" lon="7.04007">
        <ele>445</ele>
        <time>2022-09-30T12:39:39Z</time>
      </trkpt>
      <trkpt lat="47.02271" lon="7.04011">
        <ele>445.1</ele>
        <time>2022-09-30T12:39:40Z</time>
      </trkpt>
      <trkpt lat="47.02271" lon="7.04015">
        <ele>445.2</ele>
        <time>2022-09-30T12:39:41Z</time>
      </trkpt>
      <trkpt lat="47.02272" lon="7.0402">
        <ele>445.2</ele>
        <time>2022-09-30T12:39:42Z</time>
      </trkpt>
      <trkpt lat="47.02274" lon="7.04024">
        <ele>445.2</ele>
        <time>2022-09-30T12:39:43Z</time>
      </trkpt>
      <trkpt lat="47.02275" lon="7.04029">
        <ele>445.3</ele>
        <time>2022-09-30T12:39:44Z</time>
      </trkpt>
      <trkpt lat="47.02276" lon="7.04034">
        <ele>445.3</ele>
        <time>2022-09-30T12:39:45Z</time>
      </trkpt>
      <trkpt lat="47.02277" lon="7.04038">
        <ele>445.4</ele>
        <time>2022-09-30T12:39:46Z</time>
      </trkpt>
      <trkpt lat="47.02278" lon="7.04043">
        <ele>445.4</ele>
        <time>2022-09-30T12:39:47Z</time>
      </trkpt>
      <trkpt lat="47.02279" lon="7.04048">
        <ele>445.4</ele>
        <time>2022-09-30T12:39:48Z</time>
      </trkpt>
      <trkpt lat="47.0228" lon="7.04052">
        <ele>445.5</ele>
        <time>2022-09-30T12:39:49Z</time>
      </trkpt>
      <trkpt lat="47.0228" lon="7.04056">
        <ele>445.5</ele>
        <time>2022-09-30T12:39:50Z</time>
      </trkpt>
      <trkpt lat="47.02281" lon="7.04061">
        <ele>445.5</ele>
        <time>2022-09-30T12:39:51Z</time>
      </trkpt>
      <trkpt lat="47.02281" lon="7.04066">
        <ele>445.6</ele>
        <time>2022-09-30T12:39:52Z</time>
      </trkpt>
      <trkpt lat="47.02282" lon="7.04071">
        <ele>445.6</ele>
        <time>2022-09-30T12:39:53Z</time>
      </trkpt>
      <trkpt lat="47.02283" lon="7.04075">
        <ele>445.6</ele>
        <time>2022-09-30T12:39:54Z</time>
      </trkpt>
      <trkpt lat="47.02283" lon="7.0408">
        <ele>445.6</ele>
        <time>2022-09-30T12:39:55Z</time>
      </trkpt>
      <trkpt lat="47.02284" lon="7.04084">
        <ele>445.7</ele>
        <time>2022-09-30T12:39:56Z</time>
      </trkpt>
      <trkpt lat="47.02286" lon="7.04089">
        <ele>445.7</ele>
        <time>2022-09-30T12:39:57Z</time>
      </trkpt>
      <trkpt lat="47.02287" lon="7.04093">
        <ele>445.7</ele>
        <time>2022-09-30T12:39:58Z</time>
      </trkpt>
      <trkpt lat="47.02288" lon="7.04098">
        <ele>445.8</ele>
        <time>2022-09-30T12:39:59Z</time>
      </trkpt>
      <trkpt lat="47.02289" lon="7.04102">
        <ele>445.8</ele>
        <time>2022-09-30T12:40:00Z</time>
      </trkpt>
      <trkpt lat="47.02291" lon="7.04106">
        <ele>445.8</ele>
        <time>2022-09-30T12:40:01Z</time>
      </trkpt>
      <trkpt lat="47.02291" lon="7.04111">
        <ele>445.9</ele>
        <time>2022-09-30T12:40:02Z</time>
      </trkpt>
      <trkpt lat="47.02292" lon="7.04116">
        <ele>445.9</ele>
        <time>2022-09-30T12:40:03Z</time>
      </trkpt>
      <trkpt lat="47.02293" lon="7.04121">
        <ele>445.9</ele>
        <time>2022-09-30T12:40:04Z</time>
      </trkpt>
      <trkpt lat="47.02295" lon="7.0413">
        <ele>446</ele>
        <time>2022-09-30T12:40:06Z</time>
      </trkpt>
      <trkpt lat="47.02296" lon="7.04135">
        <ele>446</ele>
        <time>2022-09-30T12:40:07Z</time>
      </trkpt>
      <trkpt lat="47.02298" lon="7.0414">
        <ele>446</ele>
        <time>2022-09-30T12:40:08Z</time>
      </trkpt>
      <trkpt lat="47.02298" lon="7.04146">
        <ele>446</ele>
        <time>2022-09-30T12:40:09Z</time>
      </trkpt>
      <trkpt lat="47.023" lon="7.04151">
        <ele>446</ele>
        <time>2022-09-30T12:40:10Z</time>
      </trkpt>
      <trkpt lat="47.02301" lon="7.04156">
        <ele>446.1</ele>
        <time>2022-09-30T12:40:11Z</time>
      </trkpt>
      <trkpt lat="47.02302" lon="7.04161">
        <ele>446.1</ele>
        <time>2022-09-30T12:40:12Z</time>
      </trkpt>
      <trkpt lat="47.02303" lon="7.04165">
        <ele>446.1</ele>
        <time>2022-09-30T12:40:13Z</time>
      </trkpt>
      <trkpt lat="47.02304" lon="7.0417">
        <ele>446.1</ele>
        <time>2022-09-30T12:40:14Z</time>
      </trkpt>
      <trkpt lat="47.02307" lon="7.04179">
        <ele>446.1</ele>
        <time>2022-09-30T12:40:16Z</time>
      </trkpt>
      <trkpt lat="47.02308" lon="7.04184">
        <ele>446.1</ele>
        <time>2022-09-30T12:40:17Z</time>
      </trkpt>
      <trkpt lat="47.02309" lon="7.04188">
        <ele>446.1</ele>
        <time>2022-09-30T12:40:18Z</time>
      </trkpt>
      <trkpt lat="47.02311" lon="7.04192">
        <ele>446.1</ele>
        <time>2022-09-30T12:40:19Z</time>
      </trkpt>
      <trkpt lat="47.02312" lon="7.04196">
        <ele>446.1</ele>
        <time>2022-09-30T12:40:20Z</time>
      </trkpt>
      <trkpt lat="47.02314" lon="7.04201">
        <ele>446.1</ele>
        <time>2022-09-30T12:40:21Z</time>
      </trkpt>
      <trkpt lat="47.02315" lon="7.04207">
        <ele>446.1</ele>
        <time>2022-09-30T12:40:22Z</time>
      </trkpt>
      <trkpt lat="47.02317" lon="7.04211">
        <ele>446.1</ele>
        <time>2022-09-30T12:40:23Z</time>
      </trkpt>
      <trkpt lat="47.02318" lon="7.04216">
        <ele>446.1</ele>
        <time>2022-09-30T12:40:24Z</time>
      </trkpt>
      <trkpt lat="47.02319" lon="7.04221">
        <ele>446.1</ele>
        <time>2022-09-30T12:40:25Z</time>
      </trkpt>
      <trkpt lat="47.02321" lon="7.04227">
        <ele>446</ele>
        <time>2022-09-30T12:40:26Z</time>
      </trkpt>
      <trkpt lat="47.02322" lon="7.04231">
        <ele>446</ele>
        <time>2022-09-30T12:40:27Z</time>
      </trkpt>
      <trkpt lat="47.02323" lon="7.04237">
        <ele>446</ele>
        <time>2022-09-30T12:40:28Z</time>
      </trkpt>
      <trkpt lat="47.02325" lon="7.04242">
        <ele>446</ele>
        <time>2022-09-30T12:40:29Z</time>
      </trkpt>
      <trkpt lat="47.02327" lon="7.04248">
        <ele>445.9</ele>
        <time>2022-09-30T12:40:30Z</time>
      </trkpt>
      <trkpt lat="47.02329" lon="7.04254">
        <ele>445.9</ele>
        <time>2022-09-30T12:40:31Z</time>
      </trkpt>
      <trkpt lat="47.0233" lon="7.0426">
        <ele>445.9</ele>
        <time>2022-09-30T12:40:32Z</time>
      </trkpt>
      <trkpt lat="47.02332" lon="7.04265">
        <ele>445.8</ele>
        <time>2022-09-30T12:40:33Z</time>
      </trkpt>
      <trkpt lat="47.02334" lon="7.04272">
        <ele>445.8</ele>
        <time>2022-09-30T12:40:34Z</time>
      </trkpt>
      <trkpt lat="47.02336" lon="7.04277">
        <ele>445.7</ele>
        <time>2022-09-30T12:40:35Z</time>
      </trkpt>
      <trkpt lat="47.02338" lon="7.04284">
        <ele>445.6</ele>
        <time>2022-09-30T12:40:36Z</time>
      </trkpt>
      <trkpt lat="47.0234" lon="7.0429">
        <ele>445.5</ele>
        <time>2022-09-30T12:40:37Z</time>
      </trkpt>
      <trkpt lat="47.02342" lon="7.04297">
        <ele>445.4</ele>
        <time>2022-09-30T12:40:38Z</time>
      </trkpt>
      <trkpt lat="47.02345" lon="7.04303">
        <ele>445.3</ele>
        <time>2022-09-30T12:40:39Z</time>
      </trkpt>
      <trkpt lat="47.02347" lon="7.0431">
        <ele>445.1</ele>
        <time>2022-09-30T12:40:40Z</time>
      </trkpt>
      <trkpt lat="47.0235" lon="7.04317">
        <ele>445</ele>
        <time>2022-09-30T12:40:41Z</time>
      </trkpt>
      <trkpt lat="47.02352" lon="7.04324">
        <ele>444.9</ele>
        <time>2022-09-30T12:40:42Z</time>
      </trkpt>
      <trkpt lat="47.02355" lon="7.04331">
        <ele>444.7</ele>
        <time>2022-09-30T12:40:43Z</time>
      </trkpt>
      <trkpt lat="47.02358" lon="7.04337">
        <ele>444.6</ele>
        <time>2022-09-30T12:40:44Z</time>
      </trkpt>
      <trkpt lat="47.0236" lon="7.04345">
        <ele>444.4</ele>
        <time>2022-09-30T12:40:45Z</time>
      </trkpt>
      <trkpt lat="47.02363" lon="7.04352">
        <ele>444.3</ele>
        <time>2022-09-30T12:40:46Z</time>
      </trkpt>
      <trkpt lat="47.02367" lon="7.04359">
        <ele>444.2</ele>
        <time>2022-09-30T12:40:47Z</time>
      </trkpt>
      <trkpt lat="47.02369" lon="7.04367">
        <ele>444</ele>
        <time>2022-09-30T12:40:48Z</time>
      </trkpt>
      <trkpt lat="47.02372" lon="7.04374">
        <ele>443.9</ele>
        <time>2022-09-30T12:40:49Z</time>
      </trkpt>
      <trkpt lat="47.02376" lon="7.04382">
        <ele>443.8</ele>
        <time>2022-09-30T12:40:50Z</time>
      </trkpt>
      <trkpt lat="47.02379" lon="7.04389">
        <ele>443.6</ele>
        <time>2022-09-30T12:40:51Z</time>
      </trkpt>
      <trkpt lat="47.02381" lon="7.04396">
        <ele>443.5</ele>
        <time>2022-09-30T12:40:52Z</time>
      </trkpt>
      <trkpt lat="47.02385" lon="7.04404">
        <ele>443.4</ele>
        <time>2022-09-30T12:40:53Z</time>
      </trkpt>
      <trkpt lat="47.02387" lon="7.04411">
        <ele>443.3</ele>
        <time>2022-09-30T12:40:54Z</time>
      </trkpt>
      <trkpt lat="47.0239" lon="7.04419">
        <ele>443.1</ele>
        <time>2022-09-30T12:40:55Z</time>
      </trkpt>
      <trkpt lat="47.02393" lon="7.04426">
        <ele>443</ele>
        <time>2022-09-30T12:40:56Z</time>
      </trkpt>
      <trkpt lat="47.02396" lon="7.04434">
        <ele>442.9</ele>
        <time>2022-09-30T12:40:57Z</time>
      </trkpt>
      <trkpt lat="47.02399" lon="7.0444">
        <ele>442.9</ele>
        <time>2022-09-30T12:40:58Z</time>
      </trkpt>
      <trkpt lat="47.02403" lon="7.04447">
        <ele>442.8</ele>
        <time>2022-09-30T12:40:59Z</time>
      </trkpt>
      <trkpt lat="47.02406" lon="7.04454">
        <ele>442.7</ele>
        <time>2022-09-30T12:41:00Z</time>
      </trkpt>
      <trkpt lat="47.02409" lon="7.04461">
        <ele>442.7</ele>
        <time>2022-09-30T12:41:01Z</time>
      </trkpt>
      <trkpt lat="47.02412" lon="7.04468">
        <ele>442.7</ele>
        <time>2022-09-30T12:41:02Z</time>
      </trkpt>
      <trkpt lat="47.02415" lon="7.04474">
        <ele>442.6</ele>
        <time>2022-09-30T12:41:03Z</time>
      </trkpt>
      <trkpt lat="47.02418" lon="7.04481">
        <ele>442.6</ele>
        <time>2022-09-30T12:41:04Z</time>
      </trkpt>
      <trkpt lat="47.0242" lon="7.04487">
        <ele>442.6</ele>
        <time>2022-09-30T12:41:05Z</time>
      </trkpt>
      <trkpt lat="47.02423" lon="7.04494">
        <ele>442.6</ele>
        <time>2022-09-30T12:41:06Z</time>
      </trkpt>
      <trkpt lat="47.02425" lon="7.04499">
        <ele>442.6</ele>
        <time>2022-09-30T12:41:07Z</time>
      </trkpt>
      <trkpt lat="47.02428" lon="7.04506">
        <ele>442.7</ele>
        <time>2022-09-30T12:41:08Z</time>
      </trkpt>
      <trkpt lat="47.0243" lon="7.04511">
        <ele>442.7</ele>
        <time>2022-09-30T12:41:09Z</time>
      </trkpt>
      <trkpt lat="47.02432" lon="7.04515">
        <ele>442.7</ele>
        <time>2022-09-30T12:41:10Z</time>
      </trkpt>
      <trkpt lat="47.02433" lon="7.04519">
        <ele>442.8</ele>
        <time>2022-09-30T12:41:11Z</time>
      </trkpt>
      <trkpt lat="47.02433" lon="7.04524">
        <ele>442.8</ele>
        <time>2022-09-30T12:41:12Z</time>
      </trkpt>
      <trkpt lat="47.02433" lon="7.04527">
        <ele>442.8</ele>
        <time>2022-09-30T12:41:13Z</time>
      </trkpt>
      <trkpt lat="47.02432" lon="7.04531">
        <ele>442.8</ele>
        <time>2022-09-30T12:41:14Z</time>
      </trkpt>
      <trkpt lat="47.02431" lon="7.04534">
        <ele>442.9</ele>
        <time>2022-09-30T12:41:15Z</time>
      </trkpt>
      <trkpt lat="47.02431" lon="7.04535">
        <ele>442.9</ele>
        <time>2022-09-30T12:41:16Z</time>
      </trkpt>
      <trkpt lat="47.02431" lon="7.04535">
        <ele>442.9</ele>
        <time>2022-09-30T12:41:17Z</time>
      </trkpt>
      <trkpt lat="47.02431" lon="7.04535">
        <ele>442.9</ele>
        <time>2022-09-30T12:41:18Z</time>
      </trkpt>
      <trkpt lat="47.02431" lon="7.04536">
        <ele>442.9</ele>
        <time>2022-09-30T12:41:19Z</time>
      </trkpt>
      <trkpt lat="47.02431" lon="7.04536">
        <ele>442.9</ele>
        <time>2022-09-30T12:41:20Z</time>
      </trkpt>
      <trkpt lat="47.02431" lon="7.04536">
        <ele>442.9</ele>
        <time>2022-09-30T12:41:21Z</time>
      </trkpt>
      <trkpt lat="47.02431" lon="7.04537">
        <ele>442.9</ele>
        <time>2022-09-30T12:41:22Z</time>
      </trkpt>
      <trkpt lat="47.0243" lon="7.0454">
        <ele>442.9</ele>
        <time>2022-09-30T12:41:23Z</time>
      </trkpt>
      <trkpt lat="47.0243" lon="7.04542">
        <ele>442.9</ele>
        <time>2022-09-30T12:41:24Z</time>
      </trkpt>
      <trkpt lat="47.02432" lon="7.04546">
        <ele>442.9</ele>
        <time>2022-09-30T12:41:25Z</time>
      </trkpt>
      <trkpt lat="47.02433" lon="7.04548">
        <ele>443</ele>
        <time>2022-09-30T12:41:26Z</time>
      </trkpt>
      <trkpt lat="47.02436" lon="7.0455">
        <ele>443</ele>
        <time>2022-09-30T12:41:27Z</time>
      </trkpt>
      <trkpt lat="47.02439" lon="7.04551">
        <ele>443</ele>
        <time>2022-09-30T12:41:28Z</time>
      </trkpt>
      <trkpt lat="47.02441" lon="7.04553">
        <ele>443.1</ele>
        <time>2022-09-30T12:41:29Z</time>
      </trkpt>
      <trkpt lat="47.02444" lon="7.04555">
        <ele>443.1</ele>
        <time>2022-09-30T12:41:30Z</time>
      </trkpt>
      <trkpt lat="47.02446" lon="7.04557">
        <ele>443.1</ele>
        <time>2022-09-30T12:41:31Z</time>
      </trkpt>
      <trkpt lat="47.02449" lon="7.0456">
        <ele>443.2</ele>
        <time>2022-09-30T12:41:32Z</time>
      </trkpt>
      <trkpt lat="47.02452" lon="7.04563">
        <ele>443.2</ele>
        <time>2022-09-30T12:41:33Z</time>
      </trkpt>
      <trkpt lat="47.02455" lon="7.04566">
        <ele>443.2</ele>
        <time>2022-09-30T12:41:34Z</time>
      </trkpt>
      <trkpt lat="47.02458" lon="7.04569">
        <ele>443.3</ele>
        <time>2022-09-30T12:41:35Z</time>
      </trkpt>
      <trkpt lat="47.02461" lon="7.04573">
        <ele>443.3</ele>
        <time>2022-09-30T12:41:36Z</time>
      </trkpt>
      <trkpt lat="47.02465" lon="7.04576">
        <ele>443.4</ele>
        <time>2022-09-30T12:41:37Z</time>
      </trkpt>
      <trkpt lat="47.02468" lon="7.0458">
        <ele>443.4</ele>
        <time>2022-09-30T12:41:38Z</time>
      </trkpt>
      <trkpt lat="47.02471" lon="7.04584">
        <ele>443.5</ele>
        <time>2022-09-30T12:41:39Z</time>
      </trkpt>
      <trkpt lat="47.02474" lon="7.04588">
        <ele>443.5</ele>
        <time>2022-09-30T12:41:40Z</time>
      </trkpt>
      <trkpt lat="47.02477" lon="7.04592">
        <ele>443.6</ele>
        <time>2022-09-30T12:41:41Z</time>
      </trkpt>
      <trkpt lat="47.02479" lon="7.04596">
        <ele>443.6</ele>
        <time>2022-09-30T12:41:42Z</time>
      </trkpt>
      <trkpt lat="47.02482" lon="7.04599">
        <ele>443.7</ele>
        <time>2022-09-30T12:41:43Z</time>
      </trkpt>
      <trkpt lat="47.02485" lon="7.04603">
        <ele>443.7</ele>
        <time>2022-09-30T12:41:44Z</time>
      </trkpt>
      <trkpt lat="47.02488" lon="7.04607">
        <ele>443.8</ele>
        <time>2022-09-30T12:41:45Z</time>
      </trkpt>
      <trkpt lat="47.02491" lon="7.04612">
        <ele>443.8</ele>
        <time>2022-09-30T12:41:46Z</time>
      </trkpt>
      <trkpt lat="47.02495" lon="7.04616">
        <ele>443.9</ele>
        <time>2022-09-30T12:41:47Z</time>
      </trkpt>
      <trkpt lat="47.02497" lon="7.0462">
        <ele>443.9</ele>
        <time>2022-09-30T12:41:48Z</time>
      </trkpt>
      <trkpt lat="47.025" lon="7.04624">
        <ele>444</ele>
        <time>2022-09-30T12:41:49Z</time>
      </trkpt>
      <trkpt lat="47.02503" lon="7.04629">
        <ele>444</ele>
        <time>2022-09-30T12:41:50Z</time>
      </trkpt>
      <trkpt lat="47.02506" lon="7.04633">
        <ele>444.1</ele>
        <time>2022-09-30T12:41:51Z</time>
      </trkpt>
      <trkpt lat="47.02508" lon="7.04638">
        <ele>444.2</ele>
        <time>2022-09-30T12:41:52Z</time>
      </trkpt>
      <trkpt lat="47.02511" lon="7.04642">
        <ele>444.2</ele>
        <time>2022-09-30T12:41:53Z</time>
      </trkpt>
      <trkpt lat="47.02514" lon="7.04646">
        <ele>444.3</ele>
        <time>2022-09-30T12:41:54Z</time>
      </trkpt>
      <trkpt lat="47.02517" lon="7.04649">
        <ele>444.3</ele>
        <time>2022-09-30T12:41:55Z</time>
      </trkpt>
      <trkpt lat="47.02521" lon="7.04652">
        <ele>444.4</ele>
        <time>2022-09-30T12:41:56Z</time>
      </trkpt>
      <trkpt lat="47.02523" lon="7.04656">
        <ele>444.4</ele>
        <time>2022-09-30T12:41:57Z</time>
      </trkpt>
      <trkpt lat="47.02526" lon="7.0466">
        <ele>444.5</ele>
        <time>2022-09-30T12:41:58Z</time>
      </trkpt>
      <trkpt lat="47.02529" lon="7.04664">
        <ele>444.6</ele>
        <time>2022-09-30T12:41:59Z</time>
      </trkpt>
      <trkpt lat="47.02531" lon="7.04668">
        <ele>444.6</ele>
        <time>2022-09-30T12:42:00Z</time>
      </trkpt>
      <trkpt lat="47.02534" lon="7.04672">
        <ele>444.7</ele>
        <time>2022-09-30T12:42:01Z</time>
      </trkpt>
      <trkpt lat="47.02537" lon="7.04675">
        <ele>444.7</ele>
        <time>2022-09-30T12:42:02Z</time>
      </trkpt>
      <trkpt lat="47.02539" lon="7.04678">
        <ele>444.8</ele>
        <time>2022-09-30T12:42:03Z</time>
      </trkpt>
      <trkpt lat="47.02542" lon="7.04682">
        <ele>444.9</ele>
        <time>2022-09-30T12:42:04Z</time>
      </trkpt>
      <trkpt lat="47.02545" lon="7.04685">
        <ele>444.9</ele>
        <time>2022-09-30T12:42:05Z</time>
      </trkpt>
      <trkpt lat="47.02547" lon="7.04689">
        <ele>445</ele>
        <time>2022-09-30T12:42:06Z</time>
      </trkpt>
      <trkpt lat="47.0255" lon="7.04692">
        <ele>445</ele>
        <time>2022-09-30T12:42:07Z</time>
      </trkpt>
      <trkpt lat="47.02552" lon="7.04696">
        <ele>445.1</ele>
        <time>2022-09-30T12:42:08Z</time>
      </trkpt>
      <trkpt lat="47.02554" lon="7.047">
        <ele>445.2</ele>
        <time>2022-09-30T12:42:09Z</time>
      </trkpt>
      <trkpt lat="47.02557" lon="7.04703">
        <ele>445.3</ele>
        <time>2022-09-30T12:42:10Z</time>
      </trkpt>
      <trkpt lat="47.0256" lon="7.04707">
        <ele>445.3</ele>
        <time>2022-09-30T12:42:11Z</time>
      </trkpt>
      <trkpt lat="47.02562" lon="7.0471">
        <ele>445.4</ele>
        <time>2022-09-30T12:42:12Z</time>
      </trkpt>
      <trkpt lat="47.02565" lon="7.04713">
        <ele>445.5</ele>
        <time>2022-09-30T12:42:13Z</time>
      </trkpt>
      <trkpt lat="47.02567" lon="7.04717">
        <ele>445.6</ele>
        <time>2022-09-30T12:42:14Z</time>
      </trkpt>
      <trkpt lat="47.0257" lon="7.0472">
        <ele>445.6</ele>
        <time>2022-09-30T12:42:15Z</time>
      </trkpt>
      <trkpt lat="47.02572" lon="7.04724">
        <ele>445.7</ele>
        <time>2022-09-30T12:42:16Z</time>
      </trkpt>
      <trkpt lat="47.02575" lon="7.04727">
        <ele>445.8</ele>
        <time>2022-09-30T12:42:17Z</time>
      </trkpt>
      <trkpt lat="47.02578" lon="7.04729">
        <ele>445.9</ele>
        <time>2022-09-30T12:42:18Z</time>
      </trkpt>
      <trkpt lat="47.0258" lon="7.04733">
        <ele>445.9</ele>
        <time>2022-09-30T12:42:19Z</time>
      </trkpt>
      <trkpt lat="47.02583" lon="7.04736">
        <ele>446</ele>
        <time>2022-09-30T12:42:20Z</time>
      </trkpt>
      <trkpt lat="47.02585" lon="7.04739">
        <ele>446.1</ele>
        <time>2022-09-30T12:42:21Z</time>
      </trkpt>
      <trkpt lat="47.02588" lon="7.04742">
        <ele>446.1</ele>
        <time>2022-09-30T12:42:22Z</time>
      </trkpt>
      <trkpt lat="47.0259" lon="7.04745">
        <ele>446.2</ele>
        <time>2022-09-30T12:42:23Z</time>
      </trkpt>
      <trkpt lat="47.02593" lon="7.04749">
        <ele>446.3</ele>
        <time>2022-09-30T12:42:24Z</time>
      </trkpt>
      <trkpt lat="47.02596" lon="7.04752">
        <ele>446.3</ele>
        <time>2022-09-30T12:42:25Z</time>
      </trkpt>
      <trkpt lat="47.02598" lon="7.04755">
        <ele>446.4</ele>
        <time>2022-09-30T12:42:26Z</time>
      </trkpt>
      <trkpt lat="47.026" lon="7.04758">
        <ele>446.4</ele>
        <time>2022-09-30T12:42:27Z</time>
      </trkpt>
      <trkpt lat="47.02603" lon="7.04761">
        <ele>446.5</ele>
        <time>2022-09-30T12:42:28Z</time>
      </trkpt>
      <trkpt lat="47.02605" lon="7.04765">
        <ele>446.6</ele>
        <time>2022-09-30T12:42:29Z</time>
      </trkpt>
      <trkpt lat="47.02608" lon="7.04768">
        <ele>446.6</ele>
        <time>2022-09-30T12:42:30Z</time>
      </trkpt>
      <trkpt lat="47.02611" lon="7.0477">
        <ele>446.7</ele>
        <time>2022-09-30T12:42:31Z</time>
      </trkpt>
      <trkpt lat="47.02613" lon="7.04774">
        <ele>446.8</ele>
        <time>2022-09-30T12:42:32Z</time>
      </trkpt>
      <trkpt lat="47.02616" lon="7.04777">
        <ele>446.8</ele>
        <time>2022-09-30T12:42:33Z</time>
      </trkpt>
      <trkpt lat="47.02619" lon="7.0478">
        <ele>446.9</ele>
        <time>2022-09-30T12:42:34Z</time>
      </trkpt>
      <trkpt lat="47.02621" lon="7.04782">
        <ele>446.9</ele>
        <time>2022-09-30T12:42:35Z</time>
      </trkpt>
      <trkpt lat="47.02624" lon="7.04786">
        <ele>447</ele>
        <time>2022-09-30T12:42:36Z</time>
      </trkpt>
      <trkpt lat="47.02627" lon="7.0479">
        <ele>447.1</ele>
        <time>2022-09-30T12:42:37Z</time>
      </trkpt>
      <trkpt lat="47.02631" lon="7.04793">
        <ele>447.1</ele>
        <time>2022-09-30T12:42:38Z</time>
      </trkpt>
      <trkpt lat="47.02634" lon="7.04795">
        <ele>447.2</ele>
        <time>2022-09-30T12:42:39Z</time>
      </trkpt>
      <trkpt lat="47.02636" lon="7.04799">
        <ele>447.3</ele>
        <time>2022-09-30T12:42:40Z</time>
      </trkpt>
      <trkpt lat="47.0264" lon="7.04802">
        <ele>447.3</ele>
        <time>2022-09-30T12:42:41Z</time>
      </trkpt>
      <trkpt lat="47.02643" lon="7.04805">
        <ele>447.4</ele>
        <time>2022-09-30T12:42:42Z</time>
      </trkpt>
      <trkpt lat="47.02646" lon="7.04808">
        <ele>447.4</ele>
        <time>2022-09-30T12:42:43Z</time>
      </trkpt>
      <trkpt lat="47.02649" lon="7.04811">
        <ele>447.5</ele>
        <time>2022-09-30T12:42:44Z</time>
      </trkpt>
      <trkpt lat="47.02651" lon="7.04815">
        <ele>447.6</ele>
        <time>2022-09-30T12:42:45Z</time>
      </trkpt>
      <trkpt lat="47.02654" lon="7.04818">
        <ele>447.6</ele>
        <time>2022-09-30T12:42:46Z</time>
      </trkpt>
      <trkpt lat="47.02658" lon="7.04821">
        <ele>447.7</ele>
        <time>2022-09-30T12:42:47Z</time>
      </trkpt>
      <trkpt lat="47.0266" lon="7.04824">
        <ele>447.7</ele>
        <time>2022-09-30T12:42:48Z</time>
      </trkpt>
      <trkpt lat="47.02663" lon="7.04827">
        <ele>447.8</ele>
        <time>2022-09-30T12:42:49Z</time>
      </trkpt>
      <trkpt lat="47.02665" lon="7.0483">
        <ele>447.8</ele>
        <time>2022-09-30T12:42:50Z</time>
      </trkpt>
      <trkpt lat="47.02669" lon="7.04833">
        <ele>447.9</ele>
        <time>2022-09-30T12:42:51Z</time>
      </trkpt>
      <trkpt lat="47.02673" lon="7.04836">
        <ele>447.9</ele>
        <time>2022-09-30T12:42:52Z</time>
      </trkpt>
      <trkpt lat="47.02675" lon="7.04839">
        <ele>447.9</ele>
        <time>2022-09-30T12:42:53Z</time>
      </trkpt>
      <trkpt lat="47.02678" lon="7.04842">
        <ele>447.9</ele>
        <time>2022-09-30T12:42:54Z</time>
      </trkpt>
      <trkpt lat="47.0268" lon="7.04845">
        <ele>448</ele>
        <time>2022-09-30T12:42:55Z</time>
      </trkpt>
      <trkpt lat="47.02684" lon="7.04849">
        <ele>448</ele>
        <time>2022-09-30T12:42:56Z</time>
      </trkpt>
      <trkpt lat="47.02687" lon="7.04852">
        <ele>448</ele>
        <time>2022-09-30T12:42:57Z</time>
      </trkpt>
      <trkpt lat="47.0269" lon="7.04855">
        <ele>448</ele>
        <time>2022-09-30T12:42:58Z</time>
      </trkpt>
      <trkpt lat="47.02693" lon="7.04859">
        <ele>448</ele>
        <time>2022-09-30T12:42:59Z</time>
      </trkpt>
      <trkpt lat="47.02695" lon="7.04862">
        <ele>448.1</ele>
        <time>2022-09-30T12:43:00Z</time>
      </trkpt>
      <trkpt lat="47.02698" lon="7.04865">
        <ele>448.1</ele>
        <time>2022-09-30T12:43:01Z</time>
      </trkpt>
      <trkpt lat="47.02701" lon="7.04869">
        <ele>448.1</ele>
        <time>2022-09-30T12:43:02Z</time>
      </trkpt>
      <trkpt lat="47.02704" lon="7.04872">
        <ele>448.1</ele>
        <time>2022-09-30T12:43:03Z</time>
      </trkpt>
      <trkpt lat="47.02706" lon="7.04875">
        <ele>448.2</ele>
        <time>2022-09-30T12:43:04Z</time>
      </trkpt>
      <trkpt lat="47.02708" lon="7.04878">
        <ele>448.2</ele>
        <time>2022-09-30T12:43:05Z</time>
      </trkpt>
      <trkpt lat="47.02711" lon="7.04882">
        <ele>448.2</ele>
        <time>2022-09-30T12:43:06Z</time>
      </trkpt>
      <trkpt lat="47.02712" lon="7.04886">
        <ele>448.2</ele>
        <time>2022-09-30T12:43:07Z</time>
      </trkpt>
      <trkpt lat="47.02713" lon="7.04891">
        <ele>448.2</ele>
        <time>2022-09-30T12:43:08Z</time>
      </trkpt>
      <trkpt lat="47.02714" lon="7.04892">
        <ele>448.2</ele>
        <time>2022-09-30T12:43:09Z</time>
      </trkpt>
      <trkpt lat="47.02714" lon="7.04896">
        <ele>448.3</ele>
        <time>2022-09-30T12:43:10Z</time>
      </trkpt>
      <trkpt lat="47.02714" lon="7.04898">
        <ele>448.3</ele>
        <time>2022-09-30T12:43:11Z</time>
      </trkpt>
      <trkpt lat="47.02713" lon="7.04898">
        <ele>448.3</ele>
        <time>2022-09-30T12:43:12Z</time>
      </trkpt>
      <trkpt lat="47.02713" lon="7.04899">
        <ele>448.3</ele>
        <time>2022-09-30T12:43:13Z</time>
      </trkpt>
      <trkpt lat="47.02713" lon="7.04899">
        <ele>448.3</ele>
        <time>2022-09-30T12:43:14Z</time>
      </trkpt>
      <trkpt lat="47.02714" lon="7.04898">
        <ele>448.3</ele>
        <time>2022-09-30T12:43:15Z</time>
      </trkpt>
      <trkpt lat="47.02714" lon="7.04899">
        <ele>448.3</ele>
        <time>2022-09-30T12:43:16Z</time>
      </trkpt>
      <trkpt lat="47.02714" lon="7.04898">
        <ele>448.3</ele>
        <time>2022-09-30T12:43:17Z</time>
      </trkpt>
      <trkpt lat="47.02713" lon="7.04899">
        <ele>448.3</ele>
        <time>2022-09-30T12:43:18Z</time>
      </trkpt>
      <trkpt lat="47.02713" lon="7.04898">
        <ele>448.3</ele>
        <time>2022-09-30T12:43:19Z</time>
      </trkpt>
      <trkpt lat="47.02713" lon="7.04898">
        <ele>448.3</ele>
        <time>2022-09-30T12:43:20Z</time>
      </trkpt>
      <trkpt lat="47.02713" lon="7.04898">
        <ele>448.3</ele>
        <time>2022-09-30T12:43:21Z</time>
      </trkpt>
      <trkpt lat="47.02717" lon="7.04894">
        <ele>448.3</ele>
        <time>2022-09-30T12:52:25Z</time>
      </trkpt>
      <trkpt lat="47.02717" lon="7.04894">
        <ele>448.3</ele>
        <time>2022-09-30T12:52:26Z</time>
      </trkpt>
      <trkpt lat="47.02717" lon="7.04894">
        <ele>448.3</ele>
        <time>2022-09-30T12:52:27Z</time>
      </trkpt>
      <trkpt lat="47.02717" lon="7.04894">
        <ele>448.3</ele>
        <time>2022-09-30T12:52:28Z</time>
      </trkpt>
      <trkpt lat="47.02717" lon="7.04894">
        <ele>448.3</ele>
        <time>2022-09-30T12:52:29Z</time>
      </trkpt>
      <trkpt lat="47.02717" lon="7.04895">
        <ele>448.3</ele>
        <time>2022-09-30T12:52:30Z</time>
      </trkpt>
      <trkpt lat="47.02717" lon="7.04895">
        <ele>448.3</ele>
        <time>2022-09-30T12:52:31Z</time>
      </trkpt>
      <trkpt lat="47.02717" lon="7.04895">
        <ele>448.3</ele>
        <time>2022-09-30T12:52:32Z</time>
      </trkpt>
      <trkpt lat="47.02717" lon="7.04895">
        <ele>448.3</ele>
        <time>2022-09-30T12:52:33Z</time>
      </trkpt>
      <trkpt lat="47.02717" lon="7.04895">
        <ele>448.3</ele>
        <time>2022-09-30T12:52:34Z</time>
      </trkpt>
      <trkpt lat="47.02727" lon="7.049">
        <ele>448.4</ele>
        <time>2022-09-30T12:53:42Z</time>
      </trkpt>
      <trkpt lat="47.02729" lon="7.04903">
        <ele>448.4</ele>
        <time>2022-09-30T12:53:43Z</time>
      </trkpt>
      <trkpt lat="47.0273" lon="7.04907">
        <ele>448.4</ele>
        <time>2022-09-30T12:53:44Z</time>
      </trkpt>
      <trkpt lat="47.02733" lon="7.04909">
        <ele>448.4</ele>
        <time>2022-09-30T12:53:45Z</time>
      </trkpt>
      <trkpt lat="47.02735" lon="7.04913">
        <ele>448.4</ele>
        <time>2022-09-30T12:53:46Z</time>
      </trkpt>
      <trkpt lat="47.02736" lon="7.04917">
        <ele>448.4</ele>
        <time>2022-09-30T12:53:47Z</time>
      </trkpt>
      <trkpt lat="47.02739" lon="7.0492">
        <ele>448.4</ele>
        <time>2022-09-30T12:53:48Z</time>
      </trkpt>
      <trkpt lat="47.02741" lon="7.04923">
        <ele>448.5</ele>
        <time>2022-09-30T12:53:49Z</time>
      </trkpt>
      <trkpt lat="47.02744" lon="7.04926">
        <ele>448.5</ele>
        <time>2022-09-30T12:53:50Z</time>
      </trkpt>
      <trkpt lat="47.02746" lon="7.0493">
        <ele>448.5</ele>
        <time>2022-09-30T12:53:51Z</time>
      </trkpt>
      <trkpt lat="47.02748" lon="7.04933">
        <ele>448.5</ele>
        <time>2022-09-30T12:53:52Z</time>
      </trkpt>
      <trkpt lat="47.02751" lon="7.04936">
        <ele>448.5</ele>
        <time>2022-09-30T12:53:53Z</time>
      </trkpt>
      <trkpt lat="47.02754" lon="7.04939">
        <ele>448.5</ele>
        <time>2022-09-30T12:53:54Z</time>
      </trkpt>
      <trkpt lat="47.02756" lon="7.04943">
        <ele>448.5</ele>
        <time>2022-09-30T12:53:55Z</time>
      </trkpt>
      <trkpt lat="47.02759" lon="7.04946">
        <ele>448.5</ele>
        <time>2022-09-30T12:53:56Z</time>
      </trkpt>
      <trkpt lat="47.02761" lon="7.04949">
        <ele>448.5</ele>
        <time>2022-09-30T12:53:57Z</time>
      </trkpt>
      <trkpt lat="47.02764" lon="7.04953">
        <ele>448.5</ele>
        <time>2022-09-30T12:53:58Z</time>
      </trkpt>
      <trkpt lat="47.02766" lon="7.04956">
        <ele>448.5</ele>
        <time>2022-09-30T12:53:59Z</time>
      </trkpt>
      <trkpt lat="47.02769" lon="7.0496">
        <ele>448.5</ele>
        <time>2022-09-30T12:54:00Z</time>
      </trkpt>
      <trkpt lat="47.02771" lon="7.04964">
        <ele>448.5</ele>
        <time>2022-09-30T12:54:01Z</time>
      </trkpt>
      <trkpt lat="47.02774" lon="7.04967">
        <ele>448.5</ele>
        <time>2022-09-30T12:54:02Z</time>
      </trkpt>
      <trkpt lat="47.02777" lon="7.04971">
        <ele>448.4</ele>
        <time>2022-09-30T12:54:03Z</time>
      </trkpt>
      <trkpt lat="47.0278" lon="7.04975">
        <ele>448.4</ele>
        <time>2022-09-30T12:54:04Z</time>
      </trkpt>
      <trkpt lat="47.02783" lon="7.04979">
        <ele>448.4</ele>
        <time>2022-09-30T12:54:05Z</time>
      </trkpt>
      <trkpt lat="47.02786" lon="7.04983">
        <ele>448.3</ele>
        <time>2022-09-30T12:54:06Z</time>
      </trkpt>
      <trkpt lat="47.02789" lon="7.04987">
        <ele>448.3</ele>
        <time>2022-09-30T12:54:07Z</time>
      </trkpt>
      <trkpt lat="47.02792" lon="7.04991">
        <ele>448.2</ele>
        <time>2022-09-30T12:54:08Z</time>
      </trkpt>
      <trkpt lat="47.02794" lon="7.04996">
        <ele>448.2</ele>
        <time>2022-09-30T12:54:09Z</time>
      </trkpt>
      <trkpt lat="47.02797" lon="7.05001">
        <ele>448.1</ele>
        <time>2022-09-30T12:54:10Z</time>
      </trkpt>
      <trkpt lat="47.02799" lon="7.05008">
        <ele>448.1</ele>
        <time>2022-09-30T12:54:11Z</time>
      </trkpt>
      <trkpt lat="47.02802" lon="7.05013">
        <ele>448</ele>
        <time>2022-09-30T12:54:12Z</time>
      </trkpt>
      <trkpt lat="47.02806" lon="7.05017">
        <ele>447.9</ele>
        <time>2022-09-30T12:54:13Z</time>
      </trkpt>
      <trkpt lat="47.02809" lon="7.05022">
        <ele>447.8</ele>
        <time>2022-09-30T12:54:14Z</time>
      </trkpt>
      <trkpt lat="47.02813" lon="7.05028">
        <ele>447.7</ele>
        <time>2022-09-30T12:54:15Z</time>
      </trkpt>
      <trkpt lat="47.02816" lon="7.05034">
        <ele>447.6</ele>
        <time>2022-09-30T12:54:16Z</time>
      </trkpt>
      <trkpt lat="47.02819" lon="7.0504">
        <ele>447.5</ele>
        <time>2022-09-30T12:54:17Z</time>
      </trkpt>
      <trkpt lat="47.02823" lon="7.05046">
        <ele>447.4</ele>
        <time>2022-09-30T12:54:18Z</time>
      </trkpt>
      <trkpt lat="47.02826" lon="7.05052">
        <ele>447.2</ele>
        <time>2022-09-30T12:54:19Z</time>
      </trkpt>
      <trkpt lat="47.0283" lon="7.05057">
        <ele>447.1</ele>
        <time>2022-09-30T12:54:20Z</time>
      </trkpt>
      <trkpt lat="47.02834" lon="7.05063">
        <ele>446.9</ele>
        <time>2022-09-30T12:54:21Z</time>
      </trkpt>
      <trkpt lat="47.02838" lon="7.0507">
        <ele>446.7</ele>
        <time>2022-09-30T12:54:22Z</time>
      </trkpt>
      <trkpt lat="47.02842" lon="7.05076">
        <ele>446.6</ele>
        <time>2022-09-30T12:54:23Z</time>
      </trkpt>
      <trkpt lat="47.02845" lon="7.05083">
        <ele>446.4</ele>
        <time>2022-09-30T12:54:24Z</time>
      </trkpt>
      <trkpt lat="47.02849" lon="7.05089">
        <ele>446.3</ele>
        <time>2022-09-30T12:54:25Z</time>
      </trkpt>
      <trkpt lat="47.02852" lon="7.05096">
        <ele>446.1</ele>
        <time>2022-09-30T12:54:26Z</time>
      </trkpt>
      <trkpt lat="47.02855" lon="7.05104">
        <ele>446</ele>
        <time>2022-09-30T12:54:27Z</time>
      </trkpt>
      <trkpt lat="47.02859" lon="7.05111">
        <ele>445.8</ele>
        <time>2022-09-30T12:54:28Z</time>
      </trkpt>
      <trkpt lat="47.02861" lon="7.05118">
        <ele>445.6</ele>
        <time>2022-09-30T12:54:29Z</time>
      </trkpt>
      <trkpt lat="47.02864" lon="7.05125">
        <ele>445.5</ele>
        <time>2022-09-30T12:54:30Z</time>
      </trkpt>
      <trkpt lat="47.02869" lon="7.05132">
        <ele>445.2</ele>
        <time>2022-09-30T12:54:31Z</time>
      </trkpt>
      <trkpt lat="47.02872" lon="7.05139">
        <ele>445.1</ele>
        <time>2022-09-30T12:54:32Z</time>
      </trkpt>
      <trkpt lat="47.02877" lon="7.05146">
        <ele>444.9</ele>
        <time>2022-09-30T12:54:33Z</time>
      </trkpt>
      <trkpt lat="47.0288" lon="7.05154">
        <ele>444.7</ele>
        <time>2022-09-30T12:54:34Z</time>
      </trkpt>
      <trkpt lat="47.02884" lon="7.05162">
        <ele>444.6</ele>
        <time>2022-09-30T12:54:35Z</time>
      </trkpt>
      <trkpt lat="47.02887" lon="7.05169">
        <ele>444.4</ele>
        <time>2022-09-30T12:54:36Z</time>
      </trkpt>
      <trkpt lat="47.02891" lon="7.05176">
        <ele>444.3</ele>
        <time>2022-09-30T12:54:37Z</time>
      </trkpt>
      <trkpt lat="47.02896" lon="7.05183">
        <ele>444.2</ele>
        <time>2022-09-30T12:54:38Z</time>
      </trkpt>
      <trkpt lat="47.02901" lon="7.0519">
        <ele>444.1</ele>
        <time>2022-09-30T12:54:39Z</time>
      </trkpt>
      <trkpt lat="47.02903" lon="7.05197">
        <ele>444</ele>
        <time>2022-09-30T12:54:40Z</time>
      </trkpt>
      <trkpt lat="47.02908" lon="7.05202">
        <ele>443.8</ele>
        <time>2022-09-30T12:54:41Z</time>
      </trkpt>
      <trkpt lat="47.02913" lon="7.0521">
        <ele>443.7</ele>
        <time>2022-09-30T12:54:42Z</time>
      </trkpt>
      <trkpt lat="47.02918" lon="7.05216">
        <ele>443.6</ele>
        <time>2022-09-30T12:54:43Z</time>
      </trkpt>
      <trkpt lat="47.02923" lon="7.05221">
        <ele>443.4</ele>
        <time>2022-09-30T12:54:44Z</time>
      </trkpt>
      <trkpt lat="47.02927" lon="7.05226">
        <ele>443.3</ele>
        <time>2022-09-30T12:54:45Z</time>
      </trkpt>
      <trkpt lat="47.02932" lon="7.05232">
        <ele>443.2</ele>
        <time>2022-09-30T12:54:46Z</time>
      </trkpt>
      <trkpt lat="47.02937" lon="7.05238">
        <ele>443.1</ele>
        <time>2022-09-30T12:54:47Z</time>
      </trkpt>
      <trkpt lat="47.02942" lon="7.05244">
        <ele>443.1</ele>
        <time>2022-09-30T12:54:48Z</time>
      </trkpt>
      <trkpt lat="47.02946" lon="7.05249">
        <ele>443</ele>
        <time>2022-09-30T12:54:49Z</time>
      </trkpt>
      <trkpt lat="47.0295" lon="7.05255">
        <ele>442.9</ele>
        <time>2022-09-30T12:54:50Z</time>
      </trkpt>
      <trkpt lat="47.02955" lon="7.05261">
        <ele>442.8</ele>
        <time>2022-09-30T12:54:51Z</time>
      </trkpt>
      <trkpt lat="47.0296" lon="7.05267">
        <ele>442.7</ele>
        <time>2022-09-30T12:54:52Z</time>
      </trkpt>
      <trkpt lat="47.02965" lon="7.05273">
        <ele>442.6</ele>
        <time>2022-09-30T12:54:53Z</time>
      </trkpt>
      <trkpt lat="47.0297" lon="7.05279">
        <ele>442.5</ele>
        <time>2022-09-30T12:54:54Z</time>
      </trkpt>
      <trkpt lat="47.02975" lon="7.05285">
        <ele>442.4</ele>
        <time>2022-09-30T12:54:55Z</time>
      </trkpt>
      <trkpt lat="47.02979" lon="7.05292">
        <ele>442.4</ele>
        <time>2022-09-30T12:54:56Z</time>
      </trkpt>
      <trkpt lat="47.02984" lon="7.05299">
        <ele>442.3</ele>
        <time>2022-09-30T12:54:57Z</time>
      </trkpt>
      <trkpt lat="47.02988" lon="7.05305">
        <ele>442.2</ele>
        <time>2022-09-30T12:54:58Z</time>
      </trkpt>
      <trkpt lat="47.02993" lon="7.05312">
        <ele>442.2</ele>
        <time>2022-09-30T12:54:59Z</time>
      </trkpt>
      <trkpt lat="47.02998" lon="7.05318">
        <ele>442.1</ele>
        <time>2022-09-30T12:55:00Z</time>
      </trkpt>
      <trkpt lat="47.03002" lon="7.05324">
        <ele>442.1</ele>
        <time>2022-09-30T12:55:01Z</time>
      </trkpt>
      <trkpt lat="47.03007" lon="7.05331">
        <ele>442</ele>
        <time>2022-09-30T12:55:02Z</time>
      </trkpt>
      <trkpt lat="47.03011" lon="7.05336">
        <ele>442</ele>
        <time>2022-09-30T12:55:03Z</time>
      </trkpt>
      <trkpt lat="47.03016" lon="7.05343">
        <ele>442</ele>
        <time>2022-09-30T12:55:04Z</time>
      </trkpt>
      <trkpt lat="47.0302" lon="7.05348">
        <ele>441.9</ele>
        <time>2022-09-30T12:55:05Z</time>
      </trkpt>
      <trkpt lat="47.03024" lon="7.05354">
        <ele>441.9</ele>
        <time>2022-09-30T12:55:06Z</time>
      </trkpt>
      <trkpt lat="47.03028" lon="7.0536">
        <ele>441.9</ele>
        <time>2022-09-30T12:55:07Z</time>
      </trkpt>
      <trkpt lat="47.03032" lon="7.05366">
        <ele>441.8</ele>
        <time>2022-09-30T12:55:08Z</time>
      </trkpt>
      <trkpt lat="47.03036" lon="7.05371">
        <ele>441.8</ele>
        <time>2022-09-30T12:55:09Z</time>
      </trkpt>
      <trkpt lat="47.0304" lon="7.05376">
        <ele>441.7</ele>
        <time>2022-09-30T12:55:10Z</time>
      </trkpt>
      <trkpt lat="47.03044" lon="7.05382">
        <ele>441.7</ele>
        <time>2022-09-30T12:55:11Z</time>
      </trkpt>
      <trkpt lat="47.03048" lon="7.05388">
        <ele>441.7</ele>
        <time>2022-09-30T12:55:12Z</time>
      </trkpt>
      <trkpt lat="47.03052" lon="7.05393">
        <ele>441.7</ele>
        <time>2022-09-30T12:55:13Z</time>
      </trkpt>
      <trkpt lat="47.03056" lon="7.05399">
        <ele>441.6</ele>
        <time>2022-09-30T12:55:14Z</time>
      </trkpt>
      <trkpt lat="47.0306" lon="7.05405">
        <ele>441.6</ele>
        <time>2022-09-30T12:55:15Z</time>
      </trkpt>
      <trkpt lat="47.03065" lon="7.0541">
        <ele>441.6</ele>
        <time>2022-09-30T12:55:16Z</time>
      </trkpt>
      <trkpt lat="47.03069" lon="7.05415">
        <ele>441.5</ele>
        <time>2022-09-30T12:55:17Z</time>
      </trkpt>
      <trkpt lat="47.03073" lon="7.05421">
        <ele>441.5</ele>
        <time>2022-09-30T12:55:18Z</time>
      </trkpt>
      <trkpt lat="47.03077" lon="7.05426">
        <ele>441.5</ele>
        <time>2022-09-30T12:55:19Z</time>
      </trkpt>
      <trkpt lat="47.03081" lon="7.05432">
        <ele>441.5</ele>
        <time>2022-09-30T12:55:20Z</time>
      </trkpt>
      <trkpt lat="47.03085" lon="7.05437">
        <ele>441.5</ele>
        <time>2022-09-30T12:55:21Z</time>
      </trkpt>
      <trkpt lat="47.03089" lon="7.05442">
        <ele>441.5</ele>
        <time>2022-09-30T12:55:22Z</time>
      </trkpt>
      <trkpt lat="47.03093" lon="7.05447">
        <ele>441.5</ele>
        <time>2022-09-30T12:55:23Z</time>
      </trkpt>
      <trkpt lat="47.03097" lon="7.05452">
        <ele>441.5</ele>
        <time>2022-09-30T12:55:24Z</time>
      </trkpt>
      <trkpt lat="47.031" lon="7.05457">
        <ele>441.5</ele>
        <time>2022-09-30T12:55:25Z</time>
      </trkpt>
      <trkpt lat="47.03104" lon="7.0546">
        <ele>441.5</ele>
        <time>2022-09-30T12:55:26Z</time>
      </trkpt>
      <trkpt lat="47.03107" lon="7.05465">
        <ele>441.5</ele>
        <time>2022-09-30T12:55:27Z</time>
      </trkpt>
      <trkpt lat="47.0311" lon="7.05468">
        <ele>441.5</ele>
        <time>2022-09-30T12:55:28Z</time>
      </trkpt>
      <trkpt lat="47.03114" lon="7.05471">
        <ele>441.3</ele>
        <time>2022-09-30T12:55:29Z</time>
      </trkpt>
      <trkpt lat="47.03117" lon="7.05471">
        <ele>441</ele>
        <time>2022-09-30T12:55:30Z</time>
      </trkpt>
      <trkpt lat="47.03118" lon="7.05471">
        <ele>440.9</ele>
        <time>2022-09-30T12:55:31Z</time>
      </trkpt>
      <trkpt lat="47.03123" lon="7.05466">
        <ele>440.4</ele>
        <time>2022-09-30T12:55:32Z</time>
      </trkpt>
      <trkpt lat="47.03127" lon="7.05461">
        <ele>439.9</ele>
        <time>2022-09-30T12:55:33Z</time>
      </trkpt>
      <trkpt lat="47.03131" lon="7.05456">
        <ele>439.4</ele>
        <time>2022-09-30T12:55:34Z</time>
      </trkpt>
      <trkpt lat="47.03136" lon="7.05451">
        <ele>438.8</ele>
        <time>2022-09-30T12:55:35Z</time>
      </trkpt>
      <trkpt lat="47.03142" lon="7.05445">
        <ele>438.1</ele>
        <time>2022-09-30T12:55:36Z</time>
      </trkpt>
      <trkpt lat="47.03148" lon="7.05439">
        <ele>437.5</ele>
        <time>2022-09-30T12:55:37Z</time>
      </trkpt>
      <trkpt lat="47.03153" lon="7.05433">
        <ele>436.9</ele>
        <time>2022-09-30T12:55:38Z</time>
      </trkpt>
      <trkpt lat="47.0316" lon="7.05426">
        <ele>436.3</ele>
        <time>2022-09-30T12:55:39Z</time>
      </trkpt>
      <trkpt lat="47.03166" lon="7.05419">
        <ele>435.8</ele>
        <time>2022-09-30T12:55:40Z</time>
      </trkpt>
      <trkpt lat="47.03173" lon="7.05412">
        <ele>435.2</ele>
        <time>2022-09-30T12:55:41Z</time>
      </trkpt>
      <trkpt lat="47.0318" lon="7.05405">
        <ele>434.7</ele>
        <time>2022-09-30T12:55:42Z</time>
      </trkpt>
      <trkpt lat="47.03187" lon="7.05398">
        <ele>434.2</ele>
        <time>2022-09-30T12:55:43Z</time>
      </trkpt>
      <trkpt lat="47.03194" lon="7.0539">
        <ele>433.8</ele>
        <time>2022-09-30T12:55:44Z</time>
      </trkpt>
      <trkpt lat="47.03201" lon="7.05383">
        <ele>433.4</ele>
        <time>2022-09-30T12:55:45Z</time>
      </trkpt>
      <trkpt lat="47.03207" lon="7.05376">
        <ele>433</ele>
        <time>2022-09-30T12:55:46Z</time>
      </trkpt>
      <trkpt lat="47.03214" lon="7.05368">
        <ele>432.7</ele>
        <time>2022-09-30T12:55:47Z</time>
      </trkpt>
      <trkpt lat="47.03221" lon="7.05361">
        <ele>432.3</ele>
        <time>2022-09-30T12:55:48Z</time>
      </trkpt>
      <trkpt lat="47.03228" lon="7.05354">
        <ele>432.1</ele>
        <time>2022-09-30T12:55:49Z</time>
      </trkpt>
      <trkpt lat="47.03234" lon="7.05346">
        <ele>431.8</ele>
        <time>2022-09-30T12:55:50Z</time>
      </trkpt>
      <trkpt lat="47.0324" lon="7.05339">
        <ele>431.6</ele>
        <time>2022-09-30T12:55:51Z</time>
      </trkpt>
      <trkpt lat="47.03246" lon="7.05333">
        <ele>431.3</ele>
        <time>2022-09-30T12:55:52Z</time>
      </trkpt>
      <trkpt lat="47.03252" lon="7.05326">
        <ele>431.1</ele>
        <time>2022-09-30T12:55:53Z</time>
      </trkpt>
      <trkpt lat="47.03259" lon="7.05319">
        <ele>431.1</ele>
        <time>2022-09-30T12:55:54Z</time>
      </trkpt>
      <trkpt lat="47.03264" lon="7.05314">
        <ele>431</ele>
        <time>2022-09-30T12:55:55Z</time>
      </trkpt>
      <trkpt lat="47.0327" lon="7.05307">
        <ele>431</ele>
        <time>2022-09-30T12:55:56Z</time>
      </trkpt>
      <trkpt lat="47.03276" lon="7.05301">
        <ele>431</ele>
        <time>2022-09-30T12:55:57Z</time>
      </trkpt>
      <trkpt lat="47.03282" lon="7.05294">
        <ele>430.9</ele>
        <time>2022-09-30T12:55:58Z</time>
      </trkpt>
      <trkpt lat="47.03286" lon="7.05288">
        <ele>430.9</ele>
        <time>2022-09-30T12:55:59Z</time>
      </trkpt>
      <trkpt lat="47.03292" lon="7.05282">
        <ele>430.8</ele>
        <time>2022-09-30T12:56:00Z</time>
      </trkpt>
      <trkpt lat="47.03298" lon="7.05276">
        <ele>430.8</ele>
        <time>2022-09-30T12:56:01Z</time>
      </trkpt>
      <trkpt lat="47.03303" lon="7.05268">
        <ele>430.8</ele>
        <time>2022-09-30T12:56:02Z</time>
      </trkpt>
      <trkpt lat="47.03309" lon="7.0526">
        <ele>430.8</ele>
        <time>2022-09-30T12:56:03Z</time>
      </trkpt>
      <trkpt lat="47.03314" lon="7.05254">
        <ele>430.7</ele>
        <time>2022-09-30T12:56:04Z</time>
      </trkpt>
      <trkpt lat="47.0332" lon="7.05247">
        <ele>430.7</ele>
        <time>2022-09-30T12:56:05Z</time>
      </trkpt>
      <trkpt lat="47.03326" lon="7.0524">
        <ele>430.7</ele>
        <time>2022-09-30T12:56:06Z</time>
      </trkpt>
      <trkpt lat="47.03331" lon="7.05233">
        <ele>430.6</ele>
        <time>2022-09-30T12:56:07Z</time>
      </trkpt>
      <trkpt lat="47.03337" lon="7.05227">
        <ele>430.6</ele>
        <time>2022-09-30T12:56:08Z</time>
      </trkpt>
      <trkpt lat="47.03342" lon="7.05221">
        <ele>430.5</ele>
        <time>2022-09-30T12:56:09Z</time>
      </trkpt>
      <trkpt lat="47.03348" lon="7.05214">
        <ele>430.5</ele>
        <time>2022-09-30T12:56:10Z</time>
      </trkpt>
      <trkpt lat="47.03353" lon="7.05208">
        <ele>430.5</ele>
        <time>2022-09-30T12:56:11Z</time>
      </trkpt>
      <trkpt lat="47.03359" lon="7.05201">
        <ele>430.4</ele>
        <time>2022-09-30T12:56:12Z</time>
      </trkpt>
      <trkpt lat="47.03364" lon="7.05194">
        <ele>430.4</ele>
        <time>2022-09-30T12:56:13Z</time>
      </trkpt>
      <trkpt lat="47.03369" lon="7.05188">
        <ele>430.4</ele>
        <time>2022-09-30T12:56:14Z</time>
      </trkpt>
      <trkpt lat="47.03375" lon="7.05182">
        <ele>430.5</ele>
        <time>2022-09-30T12:56:15Z</time>
      </trkpt>
      <trkpt lat="47.0338" lon="7.05176">
        <ele>430.5</ele>
        <time>2022-09-30T12:56:16Z</time>
      </trkpt>
      <trkpt lat="47.03386" lon="7.0517">
        <ele>430.5</ele>
        <time>2022-09-30T12:56:17Z</time>
      </trkpt>
      <trkpt lat="47.03391" lon="7.05164">
        <ele>430.5</ele>
        <time>2022-09-30T12:56:18Z</time>
      </trkpt>
      <trkpt lat="47.03396" lon="7.05158">
        <ele>430.4</ele>
        <time>2022-09-30T12:56:19Z</time>
      </trkpt>
      <trkpt lat="47.03402" lon="7.05152">
        <ele>430.4</ele>
        <time>2022-09-30T12:56:20Z</time>
      </trkpt>
      <trkpt lat="47.03406" lon="7.05146">
        <ele>430.4</ele>
        <time>2022-09-30T12:56:21Z</time>
      </trkpt>
      <trkpt lat="47.03411" lon="7.0514">
        <ele>430.4</ele>
        <time>2022-09-30T12:56:22Z</time>
      </trkpt>
      <trkpt lat="47.03416" lon="7.05135">
        <ele>430.3</ele>
        <time>2022-09-30T12:56:23Z</time>
      </trkpt>
      <trkpt lat="47.03422" lon="7.05127">
        <ele>430.4</ele>
        <time>2022-09-30T12:56:24Z</time>
      </trkpt>
      <trkpt lat="47.03427" lon="7.05122">
        <ele>430.4</ele>
        <time>2022-09-30T12:56:25Z</time>
      </trkpt>
      <trkpt lat="47.03432" lon="7.05116">
        <ele>430.4</ele>
        <time>2022-09-30T12:56:26Z</time>
      </trkpt>
      <trkpt lat="47.03437" lon="7.0511">
        <ele>430.4</ele>
        <time>2022-09-30T12:56:27Z</time>
      </trkpt>
      <trkpt lat="47.03442" lon="7.05105">
        <ele>430.5</ele>
        <time>2022-09-30T12:56:28Z</time>
      </trkpt>
      <trkpt lat="47.03447" lon="7.05099">
        <ele>430.5</ele>
        <time>2022-09-30T12:56:29Z</time>
      </trkpt>
      <trkpt lat="47.03452" lon="7.05094">
        <ele>430.5</ele>
        <time>2022-09-30T12:56:30Z</time>
      </trkpt>
      <trkpt lat="47.03457" lon="7.05087">
        <ele>430.5</ele>
        <time>2022-09-30T12:56:31Z</time>
      </trkpt>
      <trkpt lat="47.03462" lon="7.05082">
        <ele>430.4</ele>
        <time>2022-09-30T12:56:32Z</time>
      </trkpt>
      <trkpt lat="47.03467" lon="7.05076">
        <ele>430.4</ele>
        <time>2022-09-30T12:56:33Z</time>
      </trkpt>
      <trkpt lat="47.03471" lon="7.05071">
        <ele>430.4</ele>
        <time>2022-09-30T12:56:34Z</time>
      </trkpt>
      <trkpt lat="47.03476" lon="7.05065">
        <ele>430.4</ele>
        <time>2022-09-30T12:56:35Z</time>
      </trkpt>
      <trkpt lat="47.03481" lon="7.0506">
        <ele>430.4</ele>
        <time>2022-09-30T12:56:36Z</time>
      </trkpt>
      <trkpt lat="47.03486" lon="7.05054">
        <ele>430.3</ele>
        <time>2022-09-30T12:56:37Z</time>
      </trkpt>
      <trkpt lat="47.0349" lon="7.05048">
        <ele>430.3</ele>
        <time>2022-09-30T12:56:38Z</time>
      </trkpt>
      <trkpt lat="47.03495" lon="7.05043">
        <ele>430.3</ele>
        <time>2022-09-30T12:56:39Z</time>
      </trkpt>
      <trkpt lat="47.035" lon="7.05038">
        <ele>430.3</ele>
        <time>2022-09-30T12:56:40Z</time>
      </trkpt>
      <trkpt lat="47.03505" lon="7.05033">
        <ele>430.3</ele>
        <time>2022-09-30T12:56:41Z</time>
      </trkpt>
      <trkpt lat="47.03509" lon="7.05028">
        <ele>430.3</ele>
        <time>2022-09-30T12:56:42Z</time>
      </trkpt>
      <trkpt lat="47.03514" lon="7.05023">
        <ele>430.3</ele>
        <time>2022-09-30T12:56:43Z</time>
      </trkpt>
      <trkpt lat="47.03519" lon="7.05018">
        <ele>430.3</ele>
        <time>2022-09-30T12:56:44Z</time>
      </trkpt>
      <trkpt lat="47.03524" lon="7.05013">
        <ele>430.2</ele>
        <time>2022-09-30T12:56:45Z</time>
      </trkpt>
      <trkpt lat="47.03529" lon="7.05008">
        <ele>430.2</ele>
        <time>2022-09-30T12:56:46Z</time>
      </trkpt>
      <trkpt lat="47.03534" lon="7.05003">
        <ele>430.2</ele>
        <time>2022-09-30T12:56:47Z</time>
      </trkpt>
      <trkpt lat="47.03539" lon="7.04998">
        <ele>430.2</ele>
        <time>2022-09-30T12:56:48Z</time>
      </trkpt>
      <trkpt lat="47.03544" lon="7.04993">
        <ele>430.1</ele>
        <time>2022-09-30T12:56:49Z</time>
      </trkpt>
      <trkpt lat="47.03549" lon="7.04988">
        <ele>430.1</ele>
        <time>2022-09-30T12:56:50Z</time>
      </trkpt>
      <trkpt lat="47.03554" lon="7.04982">
        <ele>430.1</ele>
        <time>2022-09-30T12:56:51Z</time>
      </trkpt>
      <trkpt lat="47.03559" lon="7.04977">
        <ele>430.1</ele>
        <time>2022-09-30T12:56:52Z</time>
      </trkpt>
      <trkpt lat="47.03564" lon="7.04972">
        <ele>430.1</ele>
        <time>2022-09-30T12:56:53Z</time>
      </trkpt>
      <trkpt lat="47.03569" lon="7.04967">
        <ele>430.1</ele>
        <time>2022-09-30T12:56:54Z</time>
      </trkpt>
      <trkpt lat="47.03574" lon="7.04962">
        <ele>430.1</ele>
        <time>2022-09-30T12:56:55Z</time>
      </trkpt>
      <trkpt lat="47.03579" lon="7.04957">
        <ele>430.1</ele>
        <time>2022-09-30T12:56:56Z</time>
      </trkpt>
      <trkpt lat="47.03584" lon="7.04952">
        <ele>430.1</ele>
        <time>2022-09-30T12:56:57Z</time>
      </trkpt>
      <trkpt lat="47.03588" lon="7.04947">
        <ele>430.1</ele>
        <time>2022-09-30T12:56:58Z</time>
      </trkpt>
      <trkpt lat="47.03593" lon="7.04942">
        <ele>430.2</ele>
        <time>2022-09-30T12:56:59Z</time>
      </trkpt>
      <trkpt lat="47.03598" lon="7.04936">
        <ele>430.2</ele>
        <time>2022-09-30T12:57:00Z</time>
      </trkpt>
      <trkpt lat="47.03603" lon="7.04931">
        <ele>430.2</ele>
        <time>2022-09-30T12:57:01Z</time>
      </trkpt>
      <trkpt lat="47.03608" lon="7.04926">
        <ele>430.3</ele>
        <time>2022-09-30T12:57:02Z</time>
      </trkpt>
      <trkpt lat="47.03613" lon="7.04921">
        <ele>430.3</ele>
        <time>2022-09-30T12:57:03Z</time>
      </trkpt>
      <trkpt lat="47.03617" lon="7.04917">
        <ele>430.3</ele>
        <time>2022-09-30T12:57:04Z</time>
      </trkpt>
      <trkpt lat="47.03622" lon="7.04912">
        <ele>430.3</ele>
        <time>2022-09-30T12:57:05Z</time>
      </trkpt>
      <trkpt lat="47.03626" lon="7.04907">
        <ele>430.2</ele>
        <time>2022-09-30T12:57:06Z</time>
      </trkpt>
      <trkpt lat="47.03631" lon="7.04903">
        <ele>430.2</ele>
        <time>2022-09-30T12:57:07Z</time>
      </trkpt>
      <trkpt lat="47.03636" lon="7.04897">
        <ele>430.4</ele>
        <time>2022-09-30T12:57:08Z</time>
      </trkpt>
      <trkpt lat="47.0364" lon="7.04892">
        <ele>430.6</ele>
        <time>2022-09-30T12:57:09Z</time>
      </trkpt>
      <trkpt lat="47.03645" lon="7.04888">
        <ele>430.8</ele>
        <time>2022-09-30T12:57:10Z</time>
      </trkpt>
      <trkpt lat="47.03649" lon="7.04883">
        <ele>431</ele>
        <time>2022-09-30T12:57:11Z</time>
      </trkpt>
      <trkpt lat="47.03654" lon="7.04879">
        <ele>431.7</ele>
        <time>2022-09-30T12:57:12Z</time>
      </trkpt>
      <trkpt lat="47.03658" lon="7.04875">
        <ele>431.7</ele>
        <time>2022-09-30T12:57:13Z</time>
      </trkpt>
      <trkpt lat="47.03662" lon="7.04871">
        <ele>431.7</ele>
        <time>2022-09-30T12:57:14Z</time>
      </trkpt>
      <trkpt lat="47.03665" lon="7.04868">
        <ele>431.7</ele>
        <time>2022-09-30T12:57:15Z</time>
      </trkpt>
      <trkpt lat="47.03668" lon="7.04865">
        <ele>431.7</ele>
        <time>2022-09-30T12:57:16Z</time>
      </trkpt>
      <trkpt lat="47.03671" lon="7.04862">
        <ele>431.7</ele>
        <time>2022-09-30T12:57:17Z</time>
      </trkpt>
      <trkpt lat="47.03674" lon="7.04859">
        <ele>431.7</ele>
        <time>2022-09-30T12:57:18Z</time>
      </trkpt>
      <trkpt lat="47.03676" lon="7.04856">
        <ele>431.6</ele>
        <time>2022-09-30T12:57:19Z</time>
      </trkpt>
      <trkpt lat="47.03678" lon="7.04855">
        <ele>431.6</ele>
        <time>2022-09-30T12:57:20Z</time>
      </trkpt>
      <trkpt lat="47.03678" lon="7.04854">
        <ele>431.6</ele>
        <time>2022-09-30T12:57:21Z</time>
      </trkpt>
      <trkpt lat="47.03678" lon="7.04854">
        <ele>431.6</ele>
        <time>2022-09-30T12:57:22Z</time>
      </trkpt>
      <trkpt lat="47.03677" lon="7.04853">
        <ele>431.6</ele>
        <time>2022-09-30T12:57:23Z</time>
      </trkpt>
      <trkpt lat="47.03677" lon="7.04853">
        <ele>431.6</ele>
        <time>2022-09-30T12:57:24Z</time>
      </trkpt>
      <trkpt lat="47.03677" lon="7.04852">
        <ele>431.6</ele>
        <time>2022-09-30T12:57:25Z</time>
      </trkpt>
      <trkpt lat="47.03677" lon="7.04852">
        <ele>431.6</ele>
        <time>2022-09-30T12:57:26Z</time>
      </trkpt>
      <trkpt lat="47.03677" lon="7.04851">
        <ele>431.6</ele>
        <time>2022-09-30T12:57:27Z</time>
      </trkpt>
      <trkpt lat="47.03677" lon="7.04851">
        <ele>431.6</ele>
        <time>2022-09-30T12:57:28Z</time>
      </trkpt>
      <trkpt lat="47.03677" lon="7.04857">
        <ele>431.6</ele>
        <time>2022-09-30T12:57:29Z</time>
      </trkpt>
      <trkpt lat="47.03677" lon="7.04857">
        <ele>431.6</ele>
        <time>2022-09-30T12:57:30Z</time>
      </trkpt>
      <trkpt lat="47.03677" lon="7.04857">
        <ele>431.6</ele>
        <time>2022-09-30T12:57:31Z</time>
      </trkpt>
      <trkpt lat="47.03678" lon="7.04855">
        <ele>431.6</ele>
        <time>2022-09-30T12:57:32Z</time>
      </trkpt>
      <trkpt lat="47.03678" lon="7.04857">
        <ele>431.6</ele>
        <time>2022-09-30T12:57:33Z</time>
      </trkpt>
      <trkpt lat="47.03678" lon="7.04856">
        <ele>431.6</ele>
        <time>2022-09-30T12:57:34Z</time>
      </trkpt>
      <trkpt lat="47.03678" lon="7.04856">
        <ele>431.6</ele>
        <time>2022-09-30T12:57:35Z</time>
      </trkpt>
      <trkpt lat="47.03677" lon="7.04857">
        <ele>431.6</ele>
        <time>2022-09-30T12:57:36Z</time>
      </trkpt>
      <trkpt lat="47.03678" lon="7.04856">
        <ele>431.6</ele>
        <time>2022-09-30T12:57:37Z</time>
      </trkpt>
      <trkpt lat="47.03678" lon="7.04856">
        <ele>431.6</ele>
        <time>2022-09-30T12:57:38Z</time>
      </trkpt>
      <trkpt lat="47.0369" lon="7.0484">
        <ele>431.6</ele>
        <time>2022-09-30T12:58:00Z</time>
      </trkpt>
      <trkpt lat="47.03692" lon="7.04838">
        <ele>431.6</ele>
        <time>2022-09-30T12:58:01Z</time>
      </trkpt>
      <trkpt lat="47.03694" lon="7.04836">
        <ele>431.6</ele>
        <time>2022-09-30T12:58:02Z</time>
      </trkpt>
      <trkpt lat="47.03697" lon="7.04834">
        <ele>431.6</ele>
        <time>2022-09-30T12:58:03Z</time>
      </trkpt>
      <trkpt lat="47.037" lon="7.04831">
        <ele>431.5</ele>
        <time>2022-09-30T12:58:04Z</time>
      </trkpt>
      <trkpt lat="47.03703" lon="7.04828">
        <ele>431.5</ele>
        <time>2022-09-30T12:58:05Z</time>
      </trkpt>
      <trkpt lat="47.03706" lon="7.04825">
        <ele>431.5</ele>
        <time>2022-09-30T12:58:06Z</time>
      </trkpt>
      <trkpt lat="47.03708" lon="7.04822">
        <ele>431.5</ele>
        <time>2022-09-30T12:58:07Z</time>
      </trkpt>
      <trkpt lat="47.03711" lon="7.04818">
        <ele>431.5</ele>
        <time>2022-09-30T12:58:08Z</time>
      </trkpt>
      <trkpt lat="47.03715" lon="7.04814">
        <ele>431.5</ele>
        <time>2022-09-30T12:58:09Z</time>
      </trkpt>
      <trkpt lat="47.03719" lon="7.04811">
        <ele>431.5</ele>
        <time>2022-09-30T12:58:10Z</time>
      </trkpt>
      <trkpt lat="47.03723" lon="7.04807">
        <ele>431.5</ele>
        <time>2022-09-30T12:58:11Z</time>
      </trkpt>
      <trkpt lat="47.03727" lon="7.04803">
        <ele>431.5</ele>
        <time>2022-09-30T12:58:12Z</time>
      </trkpt>
      <trkpt lat="47.0373" lon="7.048">
        <ele>431.5</ele>
        <time>2022-09-30T12:58:13Z</time>
      </trkpt>
      <trkpt lat="47.03734" lon="7.04795">
        <ele>431.5</ele>
        <time>2022-09-30T12:58:14Z</time>
      </trkpt>
      <trkpt lat="47.03738" lon="7.04791">
        <ele>431.5</ele>
        <time>2022-09-30T12:58:15Z</time>
      </trkpt>
      <trkpt lat="47.03742" lon="7.04787">
        <ele>431.5</ele>
        <time>2022-09-30T12:58:16Z</time>
      </trkpt>
      <trkpt lat="47.03746" lon="7.04783">
        <ele>431.4</ele>
        <time>2022-09-30T12:58:17Z</time>
      </trkpt>
      <trkpt lat="47.0375" lon="7.04778">
        <ele>431.4</ele>
        <time>2022-09-30T12:58:18Z</time>
      </trkpt>
      <trkpt lat="47.03754" lon="7.04775">
        <ele>431.4</ele>
        <time>2022-09-30T12:58:19Z</time>
      </trkpt>
      <trkpt lat="47.03758" lon="7.04771">
        <ele>431.4</ele>
        <time>2022-09-30T12:58:20Z</time>
      </trkpt>
      <trkpt lat="47.03761" lon="7.04766">
        <ele>431.4</ele>
        <time>2022-09-30T12:58:21Z</time>
      </trkpt>
      <trkpt lat="47.03765" lon="7.04762">
        <ele>431.4</ele>
        <time>2022-09-30T12:58:22Z</time>
      </trkpt>
      <trkpt lat="47.0377" lon="7.04757">
        <ele>431.4</ele>
        <time>2022-09-30T12:58:23Z</time>
      </trkpt>
      <trkpt lat="47.03774" lon="7.04753">
        <ele>431.4</ele>
        <time>2022-09-30T12:58:24Z</time>
      </trkpt>
      <trkpt lat="47.03778" lon="7.04748">
        <ele>431.4</ele>
        <time>2022-09-30T12:58:25Z</time>
      </trkpt>
      <trkpt lat="47.03782" lon="7.04744">
        <ele>431.4</ele>
        <time>2022-09-30T12:58:26Z</time>
      </trkpt>
      <trkpt lat="47.03786" lon="7.0474">
        <ele>431.3</ele>
        <time>2022-09-30T12:58:27Z</time>
      </trkpt>
      <trkpt lat="47.0379" lon="7.04736">
        <ele>431.3</ele>
        <time>2022-09-30T12:58:28Z</time>
      </trkpt>
      <trkpt lat="47.03794" lon="7.04731">
        <ele>431.3</ele>
        <time>2022-09-30T12:58:29Z</time>
      </trkpt>
      <trkpt lat="47.03799" lon="7.04726">
        <ele>431.2</ele>
        <time>2022-09-30T12:58:30Z</time>
      </trkpt>
      <trkpt lat="47.03803" lon="7.04722">
        <ele>431.2</ele>
        <time>2022-09-30T12:58:31Z</time>
      </trkpt>
      <trkpt lat="47.03807" lon="7.04718">
        <ele>431.2</ele>
        <time>2022-09-30T12:58:32Z</time>
      </trkpt>
      <trkpt lat="47.03811" lon="7.04713">
        <ele>431.2</ele>
        <time>2022-09-30T12:58:33Z</time>
      </trkpt>
      <trkpt lat="47.03815" lon="7.04709">
        <ele>431.1</ele>
        <time>2022-09-30T12:58:34Z</time>
      </trkpt>
      <trkpt lat="47.03819" lon="7.04705">
        <ele>431.1</ele>
        <time>2022-09-30T12:58:35Z</time>
      </trkpt>
      <trkpt lat="47.03822" lon="7.047">
        <ele>431.1</ele>
        <time>2022-09-30T12:58:36Z</time>
      </trkpt>
      <trkpt lat="47.03826" lon="7.04696">
        <ele>431.1</ele>
        <time>2022-09-30T12:58:37Z</time>
      </trkpt>
      <trkpt lat="47.0383" lon="7.04693">
        <ele>431.2</ele>
        <time>2022-09-30T12:58:38Z</time>
      </trkpt>
      <trkpt lat="47.03833" lon="7.04689">
        <ele>431.2</ele>
        <time>2022-09-30T12:58:39Z</time>
      </trkpt>
      <trkpt lat="47.03837" lon="7.04685">
        <ele>431.2</ele>
        <time>2022-09-30T12:58:40Z</time>
      </trkpt>
      <trkpt lat="47.03841" lon="7.04682">
        <ele>431.2</ele>
        <time>2022-09-30T12:58:41Z</time>
      </trkpt>
      <trkpt lat="47.03844" lon="7.04678">
        <ele>431.2</ele>
        <time>2022-09-30T12:58:42Z</time>
      </trkpt>
      <trkpt lat="47.03849" lon="7.04675">
        <ele>431.2</ele>
        <time>2022-09-30T12:58:43Z</time>
      </trkpt>
      <trkpt lat="47.03852" lon="7.0467">
        <ele>431.1</ele>
        <time>2022-09-30T12:58:44Z</time>
      </trkpt>
      <trkpt lat="47.03856" lon="7.04666">
        <ele>431.1</ele>
        <time>2022-09-30T12:58:45Z</time>
      </trkpt>
      <trkpt lat="47.0386" lon="7.04662">
        <ele>431.1</ele>
        <time>2022-09-30T12:58:46Z</time>
      </trkpt>
      <trkpt lat="47.03864" lon="7.04658">
        <ele>431.1</ele>
        <time>2022-09-30T12:58:47Z</time>
      </trkpt>
      <trkpt lat="47.03868" lon="7.04653">
        <ele>431.1</ele>
        <time>2022-09-30T12:58:48Z</time>
      </trkpt>
      <trkpt lat="47.03872" lon="7.04649">
        <ele>431.1</ele>
        <time>2022-09-30T12:58:49Z</time>
      </trkpt>
      <trkpt lat="47.03877" lon="7.04645">
        <ele>431</ele>
        <time>2022-09-30T12:58:50Z</time>
      </trkpt>
      <trkpt lat="47.03881" lon="7.04641">
        <ele>431</ele>
        <time>2022-09-30T12:58:51Z</time>
      </trkpt>
      <trkpt lat="47.03885" lon="7.04637">
        <ele>431</ele>
        <time>2022-09-30T12:58:52Z</time>
      </trkpt>
      <trkpt lat="47.0389" lon="7.04632">
        <ele>431</ele>
        <time>2022-09-30T12:58:53Z</time>
      </trkpt>
      <trkpt lat="47.03894" lon="7.04628">
        <ele>431</ele>
        <time>2022-09-30T12:58:54Z</time>
      </trkpt>
      <trkpt lat="47.03897" lon="7.04624">
        <ele>431</ele>
        <time>2022-09-30T12:58:55Z</time>
      </trkpt>
      <trkpt lat="47.03902" lon="7.04619">
        <ele>431</ele>
        <time>2022-09-30T12:58:56Z</time>
      </trkpt>
      <trkpt lat="47.03906" lon="7.04615">
        <ele>431</ele>
        <time>2022-09-30T12:58:57Z</time>
      </trkpt>
      <trkpt lat="47.0391" lon="7.04611">
        <ele>431</ele>
        <time>2022-09-30T12:58:58Z</time>
      </trkpt>
      <trkpt lat="47.03914" lon="7.04607">
        <ele>431</ele>
        <time>2022-09-30T12:58:59Z</time>
      </trkpt>
      <trkpt lat="47.03918" lon="7.04603">
        <ele>431</ele>
        <time>2022-09-30T12:59:00Z</time>
      </trkpt>
      <trkpt lat="47.03921" lon="7.04599">
        <ele>431.1</ele>
        <time>2022-09-30T12:59:01Z</time>
      </trkpt>
      <trkpt lat="47.03925" lon="7.04596">
        <ele>431.1</ele>
        <time>2022-09-30T12:59:02Z</time>
      </trkpt>
      <trkpt lat="47.03928" lon="7.04592">
        <ele>431.2</ele>
        <time>2022-09-30T12:59:03Z</time>
      </trkpt>
      <trkpt lat="47.03931" lon="7.04591">
        <ele>431.2</ele>
        <time>2022-09-30T12:59:04Z</time>
      </trkpt>
      <trkpt lat="47.03933" lon="7.04589">
        <ele>431.2</ele>
        <time>2022-09-30T12:59:05Z</time>
      </trkpt>
      <trkpt lat="47.03937" lon="7.0459">
        <ele>431.2</ele>
        <time>2022-09-30T12:59:06Z</time>
      </trkpt>
      <trkpt lat="47.03938" lon="7.0459">
        <ele>431.2</ele>
        <time>2022-09-30T12:59:07Z</time>
      </trkpt>
      <trkpt lat="47.03941" lon="7.04594">
        <ele>431.2</ele>
        <time>2022-09-30T12:59:08Z</time>
      </trkpt>
      <trkpt lat="47.03941" lon="7.04595">
        <ele>431.2</ele>
        <time>2022-09-30T12:59:09Z</time>
      </trkpt>
      <trkpt lat="47.03944" lon="7.04598">
        <ele>431.2</ele>
        <time>2022-09-30T12:59:10Z</time>
      </trkpt>
      <trkpt lat="47.03944" lon="7.046">
        <ele>431.2</ele>
        <time>2022-09-30T12:59:11Z</time>
      </trkpt>
      <trkpt lat="47.03946" lon="7.04603">
        <ele>431.2</ele>
        <time>2022-09-30T12:59:12Z</time>
      </trkpt>
      <trkpt lat="47.03948" lon="7.04607">
        <ele>431.2</ele>
        <time>2022-09-30T12:59:13Z</time>
      </trkpt>
      <trkpt lat="47.03949" lon="7.04609">
        <ele>431.2</ele>
        <time>2022-09-30T12:59:14Z</time>
      </trkpt>
      <trkpt lat="47.03951" lon="7.04612">
        <ele>431.2</ele>
        <time>2022-09-30T12:59:15Z</time>
      </trkpt>
      <trkpt lat="47.03952" lon="7.04613">
        <ele>431.2</ele>
        <time>2022-09-30T12:59:16Z</time>
      </trkpt>
      <trkpt lat="47.03954" lon="7.04619">
        <ele>431.2</ele>
        <time>2022-09-30T12:59:17Z</time>
      </trkpt>
      <trkpt lat="47.03957" lon="7.04622">
        <ele>431.2</ele>
        <time>2022-09-30T12:59:18Z</time>
      </trkpt>
      <trkpt lat="47.03959" lon="7.04627">
        <ele>431.2</ele>
        <time>2022-09-30T12:59:19Z</time>
      </trkpt>
      <trkpt lat="47.03961" lon="7.04632">
        <ele>431.2</ele>
        <time>2022-09-30T12:59:20Z</time>
      </trkpt>
      <trkpt lat="47.03962" lon="7.04634">
        <ele>431.2</ele>
        <time>2022-09-30T12:59:21Z</time>
      </trkpt>
      <trkpt lat="47.03964" lon="7.0464">
        <ele>431.2</ele>
        <time>2022-09-30T12:59:22Z</time>
      </trkpt>
      <trkpt lat="47.03966" lon="7.04644">
        <ele>431.2</ele>
        <time>2022-09-30T12:59:23Z</time>
      </trkpt>
      <trkpt lat="47.03968" lon="7.04646">
        <ele>431.2</ele>
        <time>2022-09-30T12:59:24Z</time>
      </trkpt>
      <trkpt lat="47.03971" lon="7.04652">
        <ele>431.2</ele>
        <time>2022-09-30T12:59:25Z</time>
      </trkpt>
      <trkpt lat="47.03972" lon="7.04655">
        <ele>431.2</ele>
        <time>2022-09-30T12:59:26Z</time>
      </trkpt>
      <trkpt lat="47.03975" lon="7.0466">
        <ele>431.2</ele>
        <time>2022-09-30T12:59:27Z</time>
      </trkpt>
      <trkpt lat="47.03977" lon="7.04665">
        <ele>431.2</ele>
        <time>2022-09-30T12:59:28Z</time>
      </trkpt>
      <trkpt lat="47.0398" lon="7.0467">
        <ele>431.2</ele>
        <time>2022-09-30T12:59:29Z</time>
      </trkpt>
      <trkpt lat="47.03983" lon="7.04675">
        <ele>431.2</ele>
        <time>2022-09-30T12:59:30Z</time>
      </trkpt>
      <trkpt lat="47.03986" lon="7.04681">
        <ele>431.2</ele>
        <time>2022-09-30T12:59:31Z</time>
      </trkpt>
      <trkpt lat="47.03989" lon="7.04687">
        <ele>431.2</ele>
        <time>2022-09-30T12:59:32Z</time>
      </trkpt>
      <trkpt lat="47.03991" lon="7.0469">
        <ele>431.2</ele>
        <time>2022-09-30T12:59:33Z</time>
      </trkpt>
      <trkpt lat="47.03993" lon="7.04694">
        <ele>431.2</ele>
        <time>2022-09-30T12:59:34Z</time>
      </trkpt>
      <trkpt lat="47.03996" lon="7.04701">
        <ele>431.2</ele>
        <time>2022-09-30T12:59:35Z</time>
      </trkpt>
      <trkpt lat="47.04" lon="7.04706">
        <ele>431.1</ele>
        <time>2022-09-30T12:59:36Z</time>
      </trkpt>
      <trkpt lat="47.04002" lon="7.04711">
        <ele>431.1</ele>
        <time>2022-09-30T12:59:37Z</time>
      </trkpt>
      <trkpt lat="47.04005" lon="7.04716">
        <ele>431.1</ele>
        <time>2022-09-30T12:59:38Z</time>
      </trkpt>
      <trkpt lat="47.04008" lon="7.04722">
        <ele>431.1</ele>
        <time>2022-09-30T12:59:39Z</time>
      </trkpt>
      <trkpt lat="47.0401" lon="7.04727">
        <ele>431.1</ele>
        <time>2022-09-30T12:59:40Z</time>
      </trkpt>
      <trkpt lat="47.04013" lon="7.04731">
        <ele>431.1</ele>
        <time>2022-09-30T12:59:41Z</time>
      </trkpt>
      <trkpt lat="47.04016" lon="7.04737">
        <ele>431.1</ele>
        <time>2022-09-30T12:59:42Z</time>
      </trkpt>
      <trkpt lat="47.04019" lon="7.04741">
        <ele>431.1</ele>
        <time>2022-09-30T12:59:43Z</time>
      </trkpt>
      <trkpt lat="47.04021" lon="7.04747">
        <ele>431.1</ele>
        <time>2022-09-30T12:59:44Z</time>
      </trkpt>
      <trkpt lat="47.04024" lon="7.04752">
        <ele>431.1</ele>
        <time>2022-09-30T12:59:45Z</time>
      </trkpt>
      <trkpt lat="47.04027" lon="7.04758">
        <ele>431.2</ele>
        <time>2022-09-30T12:59:46Z</time>
      </trkpt>
      <trkpt lat="47.0403" lon="7.04763">
        <ele>431.2</ele>
        <time>2022-09-30T12:59:47Z</time>
      </trkpt>
      <trkpt lat="47.04032" lon="7.04768">
        <ele>431.2</ele>
        <time>2022-09-30T12:59:48Z</time>
      </trkpt>
      <trkpt lat="47.04036" lon="7.04774">
        <ele>431.2</ele>
        <time>2022-09-30T12:59:49Z</time>
      </trkpt>
      <trkpt lat="47.04038" lon="7.04779">
        <ele>431.2</ele>
        <time>2022-09-30T12:59:50Z</time>
      </trkpt>
      <trkpt lat="47.0404" lon="7.04783">
        <ele>431.2</ele>
        <time>2022-09-30T12:59:51Z</time>
      </trkpt>
      <trkpt lat="47.04044" lon="7.0479">
        <ele>431.1</ele>
        <time>2022-09-30T12:59:52Z</time>
      </trkpt>
      <trkpt lat="47.04046" lon="7.04795">
        <ele>431.1</ele>
        <time>2022-09-30T12:59:53Z</time>
      </trkpt>
      <trkpt lat="47.04049" lon="7.04799">
        <ele>431.1</ele>
        <time>2022-09-30T12:59:54Z</time>
      </trkpt>
      <trkpt lat="47.04051" lon="7.04806">
        <ele>431.1</ele>
        <time>2022-09-30T12:59:55Z</time>
      </trkpt>
      <trkpt lat="47.04055" lon="7.04811">
        <ele>431.1</ele>
        <time>2022-09-30T12:59:56Z</time>
      </trkpt>
      <trkpt lat="47.04057" lon="7.04816">
        <ele>431.1</ele>
        <time>2022-09-30T12:59:57Z</time>
      </trkpt>
      <trkpt lat="47.0406" lon="7.04821">
        <ele>431.1</ele>
        <time>2022-09-30T12:59:58Z</time>
      </trkpt>
      <trkpt lat="47.04063" lon="7.04827">
        <ele>431.1</ele>
        <time>2022-09-30T12:59:59Z</time>
      </trkpt>
      <trkpt lat="47.04066" lon="7.04832">
        <ele>431.1</ele>
        <time>2022-09-30T13:00:00Z</time>
      </trkpt>
      <trkpt lat="47.04069" lon="7.04838">
        <ele>431.1</ele>
        <time>2022-09-30T13:00:01Z</time>
      </trkpt>
      <trkpt lat="47.04072" lon="7.04843">
        <ele>431.1</ele>
        <time>2022-09-30T13:00:02Z</time>
      </trkpt>
      <trkpt lat="47.04075" lon="7.04849">
        <ele>431.1</ele>
        <time>2022-09-30T13:00:03Z</time>
      </trkpt>
      <trkpt lat="47.04078" lon="7.04854">
        <ele>431.1</ele>
        <time>2022-09-30T13:00:04Z</time>
      </trkpt>
      <trkpt lat="47.0408" lon="7.04859">
        <ele>431.1</ele>
        <time>2022-09-30T13:00:05Z</time>
      </trkpt>
      <trkpt lat="47.04084" lon="7.04865">
        <ele>431.1</ele>
        <time>2022-09-30T13:00:06Z</time>
      </trkpt>
      <trkpt lat="47.04086" lon="7.04871">
        <ele>431.1</ele>
        <time>2022-09-30T13:00:07Z</time>
      </trkpt>
      <trkpt lat="47.0409" lon="7.04876">
        <ele>431.1</ele>
        <time>2022-09-30T13:00:08Z</time>
      </trkpt>
      <trkpt lat="47.04092" lon="7.04881">
        <ele>431.1</ele>
        <time>2022-09-30T13:00:09Z</time>
      </trkpt>
      <trkpt lat="47.04095" lon="7.04887">
        <ele>431.1</ele>
        <time>2022-09-30T13:00:10Z</time>
      </trkpt>
      <trkpt lat="47.04098" lon="7.04893">
        <ele>431.1</ele>
        <time>2022-09-30T13:00:11Z</time>
      </trkpt>
      <trkpt lat="47.04101" lon="7.04899">
        <ele>431.1</ele>
        <time>2022-09-30T13:00:12Z</time>
      </trkpt>
      <trkpt lat="47.04104" lon="7.04904">
        <ele>431.1</ele>
        <time>2022-09-30T13:00:13Z</time>
      </trkpt>
      <trkpt lat="47.04106" lon="7.04909">
        <ele>431.1</ele>
        <time>2022-09-30T13:00:14Z</time>
      </trkpt>
      <trkpt lat="47.04109" lon="7.04914">
        <ele>431.1</ele>
        <time>2022-09-30T13:00:15Z</time>
      </trkpt>
      <trkpt lat="47.04111" lon="7.04919">
        <ele>431.1</ele>
        <time>2022-09-30T13:00:16Z</time>
      </trkpt>
      <trkpt lat="47.04114" lon="7.04924">
        <ele>431.1</ele>
        <time>2022-09-30T13:00:17Z</time>
      </trkpt>
      <trkpt lat="47.04117" lon="7.04929">
        <ele>431.1</ele>
        <time>2022-09-30T13:00:18Z</time>
      </trkpt>
      <trkpt lat="47.04119" lon="7.04935">
        <ele>431.1</ele>
        <time>2022-09-30T13:00:19Z</time>
      </trkpt>
      <trkpt lat="47.04122" lon="7.0494">
        <ele>431.1</ele>
        <time>2022-09-30T13:00:20Z</time>
      </trkpt>
      <trkpt lat="47.04125" lon="7.04945">
        <ele>431.1</ele>
        <time>2022-09-30T13:00:22Z</time>
      </trkpt>
      <trkpt lat="47.04128" lon="7.0495">
        <ele>431.1</ele>
        <time>2022-09-30T13:00:23Z</time>
      </trkpt>
      <trkpt lat="47.04131" lon="7.04956">
        <ele>431.1</ele>
        <time>2022-09-30T13:00:24Z</time>
      </trkpt>
      <trkpt lat="47.04133" lon="7.04961">
        <ele>431.1</ele>
        <time>2022-09-30T13:00:25Z</time>
      </trkpt>
      <trkpt lat="47.04136" lon="7.04967">
        <ele>431.1</ele>
        <time>2022-09-30T13:00:26Z</time>
      </trkpt>
      <trkpt lat="47.04138" lon="7.04971">
        <ele>431.1</ele>
        <time>2022-09-30T13:00:27Z</time>
      </trkpt>
      <trkpt lat="47.04141" lon="7.04977">
        <ele>431.1</ele>
        <time>2022-09-30T13:00:28Z</time>
      </trkpt>
      <trkpt lat="47.04144" lon="7.04982">
        <ele>431.1</ele>
        <time>2022-09-30T13:00:29Z</time>
      </trkpt>
      <trkpt lat="47.04147" lon="7.04987">
        <ele>431.1</ele>
        <time>2022-09-30T13:00:30Z</time>
      </trkpt>
      <trkpt lat="47.0415" lon="7.04992">
        <ele>431.1</ele>
        <time>2022-09-30T13:00:31Z</time>
      </trkpt>
      <trkpt lat="47.04153" lon="7.04997">
        <ele>431.1</ele>
        <time>2022-09-30T13:00:32Z</time>
      </trkpt>
      <trkpt lat="47.04156" lon="7.05003">
        <ele>431</ele>
        <time>2022-09-30T13:00:33Z</time>
      </trkpt>
      <trkpt lat="47.04159" lon="7.05008">
        <ele>431</ele>
        <time>2022-09-30T13:00:34Z</time>
      </trkpt>
      <trkpt lat="47.04162" lon="7.05014">
        <ele>431</ele>
        <time>2022-09-30T13:00:35Z</time>
      </trkpt>
      <trkpt lat="47.04164" lon="7.05019">
        <ele>431</ele>
        <time>2022-09-30T13:00:36Z</time>
      </trkpt>
      <trkpt lat="47.04167" lon="7.05025">
        <ele>431</ele>
        <time>2022-09-30T13:00:37Z</time>
      </trkpt>
      <trkpt lat="47.04169" lon="7.0503">
        <ele>431</ele>
        <time>2022-09-30T13:00:38Z</time>
      </trkpt>
      <trkpt lat="47.04173" lon="7.05036">
        <ele>431</ele>
        <time>2022-09-30T13:00:39Z</time>
      </trkpt>
      <trkpt lat="47.04176" lon="7.05041">
        <ele>431</ele>
        <time>2022-09-30T13:00:40Z</time>
      </trkpt>
      <trkpt lat="47.04178" lon="7.05046">
        <ele>431</ele>
        <time>2022-09-30T13:00:41Z</time>
      </trkpt>
      <trkpt lat="47.04181" lon="7.05052">
        <ele>431</ele>
        <time>2022-09-30T13:00:42Z</time>
      </trkpt>
      <trkpt lat="47.04184" lon="7.05057">
        <ele>431</ele>
        <time>2022-09-30T13:00:43Z</time>
      </trkpt>
      <trkpt lat="47.04187" lon="7.05063">
        <ele>431</ele>
        <time>2022-09-30T13:00:44Z</time>
      </trkpt>
      <trkpt lat="47.0419" lon="7.05069">
        <ele>431</ele>
        <time>2022-09-30T13:00:45Z</time>
      </trkpt>
      <trkpt lat="47.04193" lon="7.05075">
        <ele>431</ele>
        <time>2022-09-30T13:00:46Z</time>
      </trkpt>
      <trkpt lat="47.04196" lon="7.05079">
        <ele>431</ele>
        <time>2022-09-30T13:00:47Z</time>
      </trkpt>
      <trkpt lat="47.04199" lon="7.05086">
        <ele>431</ele>
        <time>2022-09-30T13:00:48Z</time>
      </trkpt>
      <trkpt lat="47.04201" lon="7.05091">
        <ele>431</ele>
        <time>2022-09-30T13:00:49Z</time>
      </trkpt>
      <trkpt lat="47.04204" lon="7.05097">
        <ele>431</ele>
        <time>2022-09-30T13:00:50Z</time>
      </trkpt>
      <trkpt lat="47.04207" lon="7.05103">
        <ele>431</ele>
        <time>2022-09-30T13:00:51Z</time>
      </trkpt>
      <trkpt lat="47.0421" lon="7.05108">
        <ele>431</ele>
        <time>2022-09-30T13:00:52Z</time>
      </trkpt>
      <trkpt lat="47.04213" lon="7.05114">
        <ele>431</ele>
        <time>2022-09-30T13:00:53Z</time>
      </trkpt>
      <trkpt lat="47.04216" lon="7.05119">
        <ele>431.1</ele>
        <time>2022-09-30T13:00:54Z</time>
      </trkpt>
      <trkpt lat="47.04218" lon="7.05124">
        <ele>431.1</ele>
        <time>2022-09-30T13:00:55Z</time>
      </trkpt>
      <trkpt lat="47.04221" lon="7.05131">
        <ele>431.1</ele>
        <time>2022-09-30T13:00:56Z</time>
      </trkpt>
      <trkpt lat="47.04224" lon="7.05136">
        <ele>431.1</ele>
        <time>2022-09-30T13:00:57Z</time>
      </trkpt>
      <trkpt lat="47.04226" lon="7.05141">
        <ele>431.1</ele>
        <time>2022-09-30T13:00:58Z</time>
      </trkpt>
      <trkpt lat="47.04229" lon="7.05147">
        <ele>431.1</ele>
        <time>2022-09-30T13:00:59Z</time>
      </trkpt>
      <trkpt lat="47.04231" lon="7.05154">
        <ele>431.1</ele>
        <time>2022-09-30T13:01:00Z</time>
      </trkpt>
      <trkpt lat="47.04233" lon="7.05159">
        <ele>431.1</ele>
        <time>2022-09-30T13:01:01Z</time>
      </trkpt>
      <trkpt lat="47.04236" lon="7.05162">
        <ele>431.1</ele>
        <time>2022-09-30T13:01:02Z</time>
      </trkpt>
      <trkpt lat="47.04238" lon="7.05168">
        <ele>431.1</ele>
        <time>2022-09-30T13:01:03Z</time>
      </trkpt>
      <trkpt lat="47.0424" lon="7.05174">
        <ele>431.1</ele>
        <time>2022-09-30T13:01:04Z</time>
      </trkpt>
      <trkpt lat="47.04242" lon="7.0518">
        <ele>431.1</ele>
        <time>2022-09-30T13:01:05Z</time>
      </trkpt>
      <trkpt lat="47.04243" lon="7.05185">
        <ele>431.2</ele>
        <time>2022-09-30T13:01:06Z</time>
      </trkpt>
      <trkpt lat="47.04246" lon="7.05188">
        <ele>431.2</ele>
        <time>2022-09-30T13:01:07Z</time>
      </trkpt>
      <trkpt lat="47.04247" lon="7.05194">
        <ele>431.2</ele>
        <time>2022-09-30T13:01:08Z</time>
      </trkpt>
      <trkpt lat="47.04248" lon="7.05201">
        <ele>431.2</ele>
        <time>2022-09-30T13:01:09Z</time>
      </trkpt>
      <trkpt lat="47.04251" lon="7.05206">
        <ele>431.2</ele>
        <time>2022-09-30T13:01:10Z</time>
      </trkpt>
      <trkpt lat="47.04254" lon="7.05212">
        <ele>431.2</ele>
        <time>2022-09-30T13:01:11Z</time>
      </trkpt>
      <trkpt lat="47.04255" lon="7.05218">
        <ele>431.2</ele>
        <time>2022-09-30T13:01:12Z</time>
      </trkpt>
      <trkpt lat="47.04258" lon="7.05224">
        <ele>431.2</ele>
        <time>2022-09-30T13:01:13Z</time>
      </trkpt>
      <trkpt lat="47.0426" lon="7.0523">
        <ele>431.1</ele>
        <time>2022-09-30T13:01:14Z</time>
      </trkpt>
      <trkpt lat="47.04262" lon="7.05237">
        <ele>431.1</ele>
        <time>2022-09-30T13:01:15Z</time>
      </trkpt>
      <trkpt lat="47.04264" lon="7.05243">
        <ele>431.1</ele>
        <time>2022-09-30T13:01:16Z</time>
      </trkpt>
      <trkpt lat="47.04266" lon="7.05249">
        <ele>431.1</ele>
        <time>2022-09-30T13:01:17Z</time>
      </trkpt>
      <trkpt lat="47.04268" lon="7.05256">
        <ele>431.1</ele>
        <time>2022-09-30T13:01:18Z</time>
      </trkpt>
      <trkpt lat="47.0427" lon="7.05262">
        <ele>431.1</ele>
        <time>2022-09-30T13:01:19Z</time>
      </trkpt>
      <trkpt lat="47.04272" lon="7.05268">
        <ele>431.1</ele>
        <time>2022-09-30T13:01:20Z</time>
      </trkpt>
      <trkpt lat="47.04275" lon="7.05274">
        <ele>431.2</ele>
        <time>2022-09-30T13:01:21Z</time>
      </trkpt>
      <trkpt lat="47.04276" lon="7.05281">
        <ele>431.2</ele>
        <time>2022-09-30T13:01:22Z</time>
      </trkpt>
      <trkpt lat="47.04278" lon="7.05287">
        <ele>431.2</ele>
        <time>2022-09-30T13:01:23Z</time>
      </trkpt>
      <trkpt lat="47.04279" lon="7.05293">
        <ele>431.2</ele>
        <time>2022-09-30T13:01:24Z</time>
      </trkpt>
      <trkpt lat="47.04282" lon="7.053">
        <ele>431.2</ele>
        <time>2022-09-30T13:01:25Z</time>
      </trkpt>
      <trkpt lat="47.04284" lon="7.05305">
        <ele>431.2</ele>
        <time>2022-09-30T13:01:26Z</time>
      </trkpt>
      <trkpt lat="47.04285" lon="7.05312">
        <ele>431.2</ele>
        <time>2022-09-30T13:01:27Z</time>
      </trkpt>
      <trkpt lat="47.04288" lon="7.05317">
        <ele>431.2</ele>
        <time>2022-09-30T13:01:28Z</time>
      </trkpt>
      <trkpt lat="47.04288" lon="7.05323">
        <ele>431.2</ele>
        <time>2022-09-30T13:01:29Z</time>
      </trkpt>
      <trkpt lat="47.0429" lon="7.0533">
        <ele>431.2</ele>
        <time>2022-09-30T13:01:30Z</time>
      </trkpt>
      <trkpt lat="47.04292" lon="7.05336">
        <ele>431.2</ele>
        <time>2022-09-30T13:01:31Z</time>
      </trkpt>
      <trkpt lat="47.04293" lon="7.05342">
        <ele>431.2</ele>
        <time>2022-09-30T13:01:32Z</time>
      </trkpt>
      <trkpt lat="47.04295" lon="7.05349">
        <ele>431.2</ele>
        <time>2022-09-30T13:01:33Z</time>
      </trkpt>
      <trkpt lat="47.04297" lon="7.05356">
        <ele>431.2</ele>
        <time>2022-09-30T13:01:34Z</time>
      </trkpt>
      <trkpt lat="47.04299" lon="7.05362">
        <ele>431.2</ele>
        <time>2022-09-30T13:01:35Z</time>
      </trkpt>
      <trkpt lat="47.043" lon="7.05369">
        <ele>431.2</ele>
        <time>2022-09-30T13:01:36Z</time>
      </trkpt>
      <trkpt lat="47.04301" lon="7.05376">
        <ele>431.2</ele>
        <time>2022-09-30T13:01:37Z</time>
      </trkpt>
      <trkpt lat="47.04303" lon="7.05383">
        <ele>431.2</ele>
        <time>2022-09-30T13:01:38Z</time>
      </trkpt>
      <trkpt lat="47.04304" lon="7.0539">
        <ele>431.2</ele>
        <time>2022-09-30T13:01:39Z</time>
      </trkpt>
      <trkpt lat="47.04306" lon="7.05396">
        <ele>431.2</ele>
        <time>2022-09-30T13:01:40Z</time>
      </trkpt>
      <trkpt lat="47.04307" lon="7.05402">
        <ele>431.2</ele>
        <time>2022-09-30T13:01:41Z</time>
      </trkpt>
      <trkpt lat="47.04308" lon="7.05408">
        <ele>431.2</ele>
        <time>2022-09-30T13:01:42Z</time>
      </trkpt>
      <trkpt lat="47.04309" lon="7.05415">
        <ele>431.2</ele>
        <time>2022-09-30T13:01:43Z</time>
      </trkpt>
      <trkpt lat="47.04311" lon="7.05422">
        <ele>431.2</ele>
        <time>2022-09-30T13:01:44Z</time>
      </trkpt>
      <trkpt lat="47.04312" lon="7.05428">
        <ele>431.2</ele>
        <time>2022-09-30T13:01:45Z</time>
      </trkpt>
      <trkpt lat="47.04312" lon="7.05434">
        <ele>431.2</ele>
        <time>2022-09-30T13:01:46Z</time>
      </trkpt>
      <trkpt lat="47.04314" lon="7.0544">
        <ele>431.2</ele>
        <time>2022-09-30T13:01:47Z</time>
      </trkpt>
      <trkpt lat="47.04314" lon="7.05447">
        <ele>431.2</ele>
        <time>2022-09-30T13:01:48Z</time>
      </trkpt>
      <trkpt lat="47.04315" lon="7.05453">
        <ele>431.2</ele>
        <time>2022-09-30T13:01:49Z</time>
      </trkpt>
      <trkpt lat="47.04316" lon="7.05459">
        <ele>431.2</ele>
        <time>2022-09-30T13:01:50Z</time>
      </trkpt>
      <trkpt lat="47.04317" lon="7.05466">
        <ele>431.2</ele>
        <time>2022-09-30T13:01:51Z</time>
      </trkpt>
      <trkpt lat="47.04318" lon="7.05472">
        <ele>431.2</ele>
        <time>2022-09-30T13:01:52Z</time>
      </trkpt>
      <trkpt lat="47.04319" lon="7.05478">
        <ele>431.2</ele>
        <time>2022-09-30T13:01:53Z</time>
      </trkpt>
      <trkpt lat="47.0432" lon="7.05484">
        <ele>431.2</ele>
        <time>2022-09-30T13:01:54Z</time>
      </trkpt>
      <trkpt lat="47.04321" lon="7.05491">
        <ele>431.2</ele>
        <time>2022-09-30T13:01:55Z</time>
      </trkpt>
      <trkpt lat="47.04322" lon="7.05497">
        <ele>431.2</ele>
        <time>2022-09-30T13:01:56Z</time>
      </trkpt>
      <trkpt lat="47.04323" lon="7.05503">
        <ele>431.2</ele>
        <time>2022-09-30T13:01:57Z</time>
      </trkpt>
      <trkpt lat="47.04324" lon="7.05509">
        <ele>431.2</ele>
        <time>2022-09-30T13:01:58Z</time>
      </trkpt>
      <trkpt lat="47.04324" lon="7.05515">
        <ele>431.2</ele>
        <time>2022-09-30T13:01:59Z</time>
      </trkpt>
      <trkpt lat="47.04325" lon="7.05521">
        <ele>431.2</ele>
        <time>2022-09-30T13:02:00Z</time>
      </trkpt>
      <trkpt lat="47.04326" lon="7.05527">
        <ele>431.2</ele>
        <time>2022-09-30T13:02:01Z</time>
      </trkpt>
      <trkpt lat="47.04328" lon="7.05532">
        <ele>431.2</ele>
        <time>2022-09-30T13:02:02Z</time>
      </trkpt>
      <trkpt lat="47.04328" lon="7.05538">
        <ele>431.2</ele>
        <time>2022-09-30T13:02:03Z</time>
      </trkpt>
      <trkpt lat="47.04329" lon="7.05544">
        <ele>431.2</ele>
        <time>2022-09-30T13:02:04Z</time>
      </trkpt>
      <trkpt lat="47.0433" lon="7.05551">
        <ele>431.2</ele>
        <time>2022-09-30T13:02:05Z</time>
      </trkpt>
      <trkpt lat="47.0433" lon="7.05556">
        <ele>431.2</ele>
        <time>2022-09-30T13:02:06Z</time>
      </trkpt>
      <trkpt lat="47.04331" lon="7.05562">
        <ele>431.2</ele>
        <time>2022-09-30T13:02:07Z</time>
      </trkpt>
      <trkpt lat="47.04332" lon="7.05569">
        <ele>431.1</ele>
        <time>2022-09-30T13:02:08Z</time>
      </trkpt>
      <trkpt lat="47.04333" lon="7.05575">
        <ele>431.1</ele>
        <time>2022-09-30T13:02:09Z</time>
      </trkpt>
      <trkpt lat="47.04334" lon="7.05582">
        <ele>431.1</ele>
        <time>2022-09-30T13:02:10Z</time>
      </trkpt>
      <trkpt lat="47.04335" lon="7.05588">
        <ele>431.1</ele>
        <time>2022-09-30T13:02:11Z</time>
      </trkpt>
      <trkpt lat="47.04336" lon="7.05594">
        <ele>431.1</ele>
        <time>2022-09-30T13:02:12Z</time>
      </trkpt>
      <trkpt lat="47.04336" lon="7.05601">
        <ele>431.1</ele>
        <time>2022-09-30T13:02:13Z</time>
      </trkpt>
      <trkpt lat="47.04337" lon="7.05608">
        <ele>431.1</ele>
        <time>2022-09-30T13:02:14Z</time>
      </trkpt>
      <trkpt lat="47.04338" lon="7.05614">
        <ele>431.1</ele>
        <time>2022-09-30T13:02:15Z</time>
      </trkpt>
      <trkpt lat="47.04339" lon="7.05619">
        <ele>431.1</ele>
        <time>2022-09-30T13:02:16Z</time>
      </trkpt>
      <trkpt lat="47.0434" lon="7.05626">
        <ele>431.1</ele>
        <time>2022-09-30T13:02:17Z</time>
      </trkpt>
      <trkpt lat="47.04341" lon="7.05631">
        <ele>431.1</ele>
        <time>2022-09-30T13:02:18Z</time>
      </trkpt>
      <trkpt lat="47.04342" lon="7.05639">
        <ele>431.1</ele>
        <time>2022-09-30T13:02:19Z</time>
      </trkpt>
      <trkpt lat="47.04343" lon="7.05645">
        <ele>431.1</ele>
        <time>2022-09-30T13:02:20Z</time>
      </trkpt>
      <trkpt lat="47.04344" lon="7.05651">
        <ele>431.1</ele>
        <time>2022-09-30T13:02:21Z</time>
      </trkpt>
      <trkpt lat="47.04345" lon="7.05658">
        <ele>431.1</ele>
        <time>2022-09-30T13:02:22Z</time>
      </trkpt>
      <trkpt lat="47.04346" lon="7.05665">
        <ele>431.1</ele>
        <time>2022-09-30T13:02:23Z</time>
      </trkpt>
      <trkpt lat="47.04347" lon="7.05672">
        <ele>431.1</ele>
        <time>2022-09-30T13:02:24Z</time>
      </trkpt>
      <trkpt lat="47.04348" lon="7.05678">
        <ele>431.1</ele>
        <time>2022-09-30T13:02:25Z</time>
      </trkpt>
      <trkpt lat="47.04348" lon="7.05684">
        <ele>431.1</ele>
        <time>2022-09-30T13:02:26Z</time>
      </trkpt>
      <trkpt lat="47.0435" lon="7.05691">
        <ele>431.1</ele>
        <time>2022-09-30T13:02:27Z</time>
      </trkpt>
      <trkpt lat="47.0435" lon="7.05698">
        <ele>431</ele>
        <time>2022-09-30T13:02:28Z</time>
      </trkpt>
      <trkpt lat="47.04352" lon="7.05705">
        <ele>431</ele>
        <time>2022-09-30T13:02:29Z</time>
      </trkpt>
      <trkpt lat="47.04353" lon="7.05712">
        <ele>431</ele>
        <time>2022-09-30T13:02:30Z</time>
      </trkpt>
      <trkpt lat="47.04354" lon="7.05718">
        <ele>431</ele>
        <time>2022-09-30T13:02:31Z</time>
      </trkpt>
      <trkpt lat="47.04355" lon="7.05725">
        <ele>431</ele>
        <time>2022-09-30T13:02:32Z</time>
      </trkpt>
      <trkpt lat="47.04356" lon="7.05733">
        <ele>431</ele>
        <time>2022-09-30T13:02:33Z</time>
      </trkpt>
      <trkpt lat="47.04357" lon="7.05739">
        <ele>431</ele>
        <time>2022-09-30T13:02:34Z</time>
      </trkpt>
      <trkpt lat="47.04359" lon="7.05746">
        <ele>431</ele>
        <time>2022-09-30T13:02:35Z</time>
      </trkpt>
      <trkpt lat="47.04359" lon="7.05752">
        <ele>431</ele>
        <time>2022-09-30T13:02:36Z</time>
      </trkpt>
      <trkpt lat="47.04361" lon="7.05759">
        <ele>431</ele>
        <time>2022-09-30T13:02:37Z</time>
      </trkpt>
      <trkpt lat="47.04361" lon="7.05766">
        <ele>431</ele>
        <time>2022-09-30T13:02:38Z</time>
      </trkpt>
      <trkpt lat="47.04362" lon="7.05772">
        <ele>431</ele>
        <time>2022-09-30T13:02:39Z</time>
      </trkpt>
      <trkpt lat="47.04363" lon="7.05779">
        <ele>431</ele>
        <time>2022-09-30T13:02:40Z</time>
      </trkpt>
      <trkpt lat="47.04364" lon="7.05785">
        <ele>431</ele>
        <time>2022-09-30T13:02:41Z</time>
      </trkpt>
      <trkpt lat="47.04365" lon="7.05791">
        <ele>431</ele>
        <time>2022-09-30T13:02:42Z</time>
      </trkpt>
      <trkpt lat="47.04366" lon="7.05797">
        <ele>431</ele>
        <time>2022-09-30T13:02:43Z</time>
      </trkpt>
      <trkpt lat="47.04367" lon="7.05804">
        <ele>431</ele>
        <time>2022-09-30T13:02:44Z</time>
      </trkpt>
      <trkpt lat="47.04368" lon="7.0581">
        <ele>431</ele>
        <time>2022-09-30T13:02:45Z</time>
      </trkpt>
      <trkpt lat="47.04369" lon="7.05817">
        <ele>431</ele>
        <time>2022-09-30T13:02:46Z</time>
      </trkpt>
      <trkpt lat="47.0437" lon="7.05823">
        <ele>431</ele>
        <time>2022-09-30T13:02:47Z</time>
      </trkpt>
      <trkpt lat="47.04371" lon="7.05829">
        <ele>431</ele>
        <time>2022-09-30T13:02:48Z</time>
      </trkpt>
      <trkpt lat="47.04372" lon="7.05835">
        <ele>431</ele>
        <time>2022-09-30T13:02:49Z</time>
      </trkpt>
      <trkpt lat="47.04373" lon="7.05841">
        <ele>431.1</ele>
        <time>2022-09-30T13:02:50Z</time>
      </trkpt>
      <trkpt lat="47.04374" lon="7.05847">
        <ele>431.1</ele>
        <time>2022-09-30T13:02:51Z</time>
      </trkpt>
      <trkpt lat="47.04375" lon="7.05854">
        <ele>431.1</ele>
        <time>2022-09-30T13:02:52Z</time>
      </trkpt>
      <trkpt lat="47.04376" lon="7.05859">
        <ele>431.1</ele>
        <time>2022-09-30T13:02:53Z</time>
      </trkpt>
      <trkpt lat="47.04377" lon="7.05865">
        <ele>431.1</ele>
        <time>2022-09-30T13:02:54Z</time>
      </trkpt>
      <trkpt lat="47.04378" lon="7.05871">
        <ele>431.1</ele>
        <time>2022-09-30T13:02:55Z</time>
      </trkpt>
      <trkpt lat="47.0438" lon="7.05877">
        <ele>431.1</ele>
        <time>2022-09-30T13:02:56Z</time>
      </trkpt>
      <trkpt lat="47.0438" lon="7.05884">
        <ele>431.1</ele>
        <time>2022-09-30T13:02:57Z</time>
      </trkpt>
      <trkpt lat="47.04381" lon="7.0589">
        <ele>431.1</ele>
        <time>2022-09-30T13:02:58Z</time>
      </trkpt>
      <trkpt lat="47.04382" lon="7.05896">
        <ele>431.1</ele>
        <time>2022-09-30T13:02:59Z</time>
      </trkpt>
      <trkpt lat="47.04384" lon="7.05902">
        <ele>431.1</ele>
        <time>2022-09-30T13:03:00Z</time>
      </trkpt>
      <trkpt lat="47.04385" lon="7.05909">
        <ele>431.1</ele>
        <time>2022-09-30T13:03:01Z</time>
      </trkpt>
      <trkpt lat="47.04386" lon="7.05915">
        <ele>431.2</ele>
        <time>2022-09-30T13:03:02Z</time>
      </trkpt>
      <trkpt lat="47.04387" lon="7.0592">
        <ele>431.3</ele>
        <time>2022-09-30T13:03:03Z</time>
      </trkpt>
      <trkpt lat="47.04388" lon="7.05926">
        <ele>431.3</ele>
        <time>2022-09-30T13:03:04Z</time>
      </trkpt>
      <trkpt lat="47.04389" lon="7.05932">
        <ele>431.4</ele>
        <time>2022-09-30T13:03:05Z</time>
      </trkpt>
      <trkpt lat="47.0439" lon="7.05937">
        <ele>431.4</ele>
        <time>2022-09-30T13:03:06Z</time>
      </trkpt>
      <trkpt lat="47.04391" lon="7.05943">
        <ele>431.5</ele>
        <time>2022-09-30T13:03:07Z</time>
      </trkpt>
      <trkpt lat="47.04391" lon="7.05947">
        <ele>431.5</ele>
        <time>2022-09-30T13:03:08Z</time>
      </trkpt>
      <trkpt lat="47.04392" lon="7.05953">
        <ele>431.5</ele>
        <time>2022-09-30T13:03:09Z</time>
      </trkpt>
      <trkpt lat="47.04392" lon="7.05957">
        <ele>431.6</ele>
        <time>2022-09-30T13:03:10Z</time>
      </trkpt>
      <trkpt lat="47.04392" lon="7.05961">
        <ele>431.6</ele>
        <time>2022-09-30T13:03:11Z</time>
      </trkpt>
      <trkpt lat="47.04393" lon="7.05966">
        <ele>431.6</ele>
        <time>2022-09-30T13:03:12Z</time>
      </trkpt>
      <trkpt lat="47.04394" lon="7.05971">
        <ele>431.6</ele>
        <time>2022-09-30T13:03:13Z</time>
      </trkpt>
      <trkpt lat="47.04394" lon="7.05975">
        <ele>431.6</ele>
        <time>2022-09-30T13:03:14Z</time>
      </trkpt>
      <trkpt lat="47.04394" lon="7.05977">
        <ele>431.6</ele>
        <time>2022-09-30T13:03:15Z</time>
      </trkpt>
      <trkpt lat="47.04393" lon="7.05981">
        <ele>431.6</ele>
        <time>2022-09-30T13:03:16Z</time>
      </trkpt>
      <trkpt lat="47.04392" lon="7.05983">
        <ele>431.6</ele>
        <time>2022-09-30T13:03:17Z</time>
      </trkpt>
      <trkpt lat="47.0439" lon="7.05987">
        <ele>431.6</ele>
        <time>2022-09-30T13:03:18Z</time>
      </trkpt>
      <trkpt lat="47.04388" lon="7.05987">
        <ele>431.5</ele>
        <time>2022-09-30T13:03:19Z</time>
      </trkpt>
      <trkpt lat="47.04385" lon="7.05988">
        <ele>431.5</ele>
        <time>2022-09-30T13:03:20Z</time>
      </trkpt>
      <trkpt lat="47.04381" lon="7.05989">
        <ele>431.5</ele>
        <time>2022-09-30T13:03:21Z</time>
      </trkpt>
      <trkpt lat="47.04379" lon="7.05989">
        <ele>431.5</ele>
        <time>2022-09-30T13:03:22Z</time>
      </trkpt>
      <trkpt lat="47.04375" lon="7.05989">
        <ele>431.4</ele>
        <time>2022-09-30T13:03:23Z</time>
      </trkpt>
      <trkpt lat="47.04372" lon="7.0599">
        <ele>431.4</ele>
        <time>2022-09-30T13:03:24Z</time>
      </trkpt>
      <trkpt lat="47.04368" lon="7.0599">
        <ele>431.4</ele>
        <time>2022-09-30T13:03:25Z</time>
      </trkpt>
      <trkpt lat="47.04365" lon="7.0599">
        <ele>431.3</ele>
        <time>2022-09-30T13:03:26Z</time>
      </trkpt>
      <trkpt lat="47.04361" lon="7.05991">
        <ele>431.3</ele>
        <time>2022-09-30T13:03:27Z</time>
      </trkpt>
      <trkpt lat="47.04358" lon="7.05992">
        <ele>431.3</ele>
        <time>2022-09-30T13:03:28Z</time>
      </trkpt>
      <trkpt lat="47.04353" lon="7.05993">
        <ele>431.3</ele>
        <time>2022-09-30T13:03:29Z</time>
      </trkpt>
      <trkpt lat="47.04349" lon="7.05995">
        <ele>431.2</ele>
        <time>2022-09-30T13:03:30Z</time>
      </trkpt>
      <trkpt lat="47.04344" lon="7.05998">
        <ele>431.2</ele>
        <time>2022-09-30T13:03:31Z</time>
      </trkpt>
      <trkpt lat="47.0434" lon="7.06">
        <ele>431.2</ele>
        <time>2022-09-30T13:03:32Z</time>
      </trkpt>
      <trkpt lat="47.04336" lon="7.06002">
        <ele>431.1</ele>
        <time>2022-09-30T13:03:33Z</time>
      </trkpt>
      <trkpt lat="47.04331" lon="7.06004">
        <ele>431.1</ele>
        <time>2022-09-30T13:03:34Z</time>
      </trkpt>
      <trkpt lat="47.04327" lon="7.06005">
        <ele>431.1</ele>
        <time>2022-09-30T13:03:35Z</time>
      </trkpt>
      <trkpt lat="47.04323" lon="7.06008">
        <ele>431.1</ele>
        <time>2022-09-30T13:03:36Z</time>
      </trkpt>
      <trkpt lat="47.04319" lon="7.0601">
        <ele>431.1</ele>
        <time>2022-09-30T13:03:37Z</time>
      </trkpt>
      <trkpt lat="47.04315" lon="7.06013">
        <ele>431.1</ele>
        <time>2022-09-30T13:03:38Z</time>
      </trkpt>
      <trkpt lat="47.0431" lon="7.06015">
        <ele>431.1</ele>
        <time>2022-09-30T13:03:39Z</time>
      </trkpt>
      <trkpt lat="47.04306" lon="7.06017">
        <ele>431.1</ele>
        <time>2022-09-30T13:03:40Z</time>
      </trkpt>
      <trkpt lat="47.04302" lon="7.06019">
        <ele>431.1</ele>
        <time>2022-09-30T13:03:41Z</time>
      </trkpt>
      <trkpt lat="47.04297" lon="7.06021">
        <ele>431.1</ele>
        <time>2022-09-30T13:03:42Z</time>
      </trkpt>
      <trkpt lat="47.04293" lon="7.06023">
        <ele>431.1</ele>
        <time>2022-09-30T13:03:43Z</time>
      </trkpt>
      <trkpt lat="47.04289" lon="7.06025">
        <ele>431.1</ele>
        <time>2022-09-30T13:03:44Z</time>
      </trkpt>
      <trkpt lat="47.04285" lon="7.06027">
        <ele>431.1</ele>
        <time>2022-09-30T13:03:45Z</time>
      </trkpt>
      <trkpt lat="47.04281" lon="7.06029">
        <ele>431.2</ele>
        <time>2022-09-30T13:03:46Z</time>
      </trkpt>
      <trkpt lat="47.04277" lon="7.06031">
        <ele>431.2</ele>
        <time>2022-09-30T13:03:47Z</time>
      </trkpt>
      <trkpt lat="47.04272" lon="7.06033">
        <ele>431.1</ele>
        <time>2022-09-30T13:03:48Z</time>
      </trkpt>
      <trkpt lat="47.04268" lon="7.06035">
        <ele>431.1</ele>
        <time>2022-09-30T13:03:49Z</time>
      </trkpt>
      <trkpt lat="47.04264" lon="7.06037">
        <ele>431.1</ele>
        <time>2022-09-30T13:03:50Z</time>
      </trkpt>
      <trkpt lat="47.0426" lon="7.06039">
        <ele>431.1</ele>
        <time>2022-09-30T13:03:51Z</time>
      </trkpt>
      <trkpt lat="47.04256" lon="7.06041">
        <ele>431.1</ele>
        <time>2022-09-30T13:03:52Z</time>
      </trkpt>
      <trkpt lat="47.04252" lon="7.06043">
        <ele>431.1</ele>
        <time>2022-09-30T13:03:53Z</time>
      </trkpt>
      <trkpt lat="47.04248" lon="7.06044">
        <ele>431.1</ele>
        <time>2022-09-30T13:03:54Z</time>
      </trkpt>
      <trkpt lat="47.04244" lon="7.06047">
        <ele>431.1</ele>
        <time>2022-09-30T13:03:55Z</time>
      </trkpt>
      <trkpt lat="47.04239" lon="7.06049">
        <ele>431.1</ele>
        <time>2022-09-30T13:03:56Z</time>
      </trkpt>
      <trkpt lat="47.04235" lon="7.06051">
        <ele>431.2</ele>
        <time>2022-09-30T13:03:57Z</time>
      </trkpt>
      <trkpt lat="47.04232" lon="7.06054">
        <ele>431.2</ele>
        <time>2022-09-30T13:03:58Z</time>
      </trkpt>
      <trkpt lat="47.04227" lon="7.06055">
        <ele>431.2</ele>
        <time>2022-09-30T13:03:59Z</time>
      </trkpt>
      <trkpt lat="47.04223" lon="7.06057">
        <ele>431.2</ele>
        <time>2022-09-30T13:04:00Z</time>
      </trkpt>
      <trkpt lat="47.04218" lon="7.0606">
        <ele>431.2</ele>
        <time>2022-09-30T13:04:01Z</time>
      </trkpt>
      <trkpt lat="47.04214" lon="7.06061">
        <ele>431.2</ele>
        <time>2022-09-30T13:04:02Z</time>
      </trkpt>
      <trkpt lat="47.04211" lon="7.06064">
        <ele>431.2</ele>
        <time>2022-09-30T13:04:03Z</time>
      </trkpt>
      <trkpt lat="47.04208" lon="7.06066">
        <ele>431.3</ele>
        <time>2022-09-30T13:04:04Z</time>
      </trkpt>
      <trkpt lat="47.04205" lon="7.06068">
        <ele>431.3</ele>
        <time>2022-09-30T13:04:05Z</time>
      </trkpt>
      <trkpt lat="47.04202" lon="7.06069">
        <ele>431.3</ele>
        <time>2022-09-30T13:04:06Z</time>
      </trkpt>
      <trkpt lat="47.042" lon="7.0607">
        <ele>431.3</ele>
        <time>2022-09-30T13:04:07Z</time>
      </trkpt>
      <trkpt lat="47.04197" lon="7.06072">
        <ele>431.3</ele>
        <time>2022-09-30T13:04:08Z</time>
      </trkpt>
      <trkpt lat="47.04194" lon="7.06075">
        <ele>431.4</ele>
        <time>2022-09-30T13:04:09Z</time>
      </trkpt>
      <trkpt lat="47.04191" lon="7.06076">
        <ele>431.4</ele>
        <time>2022-09-30T13:04:10Z</time>
      </trkpt>
      <trkpt lat="47.04188" lon="7.06078">
        <ele>431.4</ele>
        <time>2022-09-30T13:04:11Z</time>
      </trkpt>
      <trkpt lat="47.04186" lon="7.0608">
        <ele>431.5</ele>
        <time>2022-09-30T13:04:12Z</time>
      </trkpt>
      <trkpt lat="47.04183" lon="7.06083">
        <ele>431.5</ele>
        <time>2022-09-30T13:04:13Z</time>
      </trkpt>
      <trkpt lat="47.0418" lon="7.06085">
        <ele>431.5</ele>
        <time>2022-09-30T13:04:14Z</time>
      </trkpt>
      <trkpt lat="47.04177" lon="7.06087">
        <ele>431.5</ele>
        <time>2022-09-30T13:04:15Z</time>
      </trkpt>
      <trkpt lat="47.04174" lon="7.06089">
        <ele>431.6</ele>
        <time>2022-09-30T13:04:16Z</time>
      </trkpt>
      <trkpt lat="47.04171" lon="7.06091">
        <ele>431.6</ele>
        <time>2022-09-30T13:04:17Z</time>
      </trkpt>
      <trkpt lat="47.04168" lon="7.06093">
        <ele>431.7</ele>
        <time>2022-09-30T13:04:18Z</time>
      </trkpt>
      <trkpt lat="47.04164" lon="7.06095">
        <ele>431.7</ele>
        <time>2022-09-30T13:04:19Z</time>
      </trkpt>
      <trkpt lat="47.04161" lon="7.06096">
        <ele>431.8</ele>
        <time>2022-09-30T13:04:20Z</time>
      </trkpt>
      <trkpt lat="47.04158" lon="7.06097">
        <ele>431.9</ele>
        <time>2022-09-30T13:04:21Z</time>
      </trkpt>
      <trkpt lat="47.04157" lon="7.06098">
        <ele>431.9</ele>
        <time>2022-09-30T13:04:22Z</time>
      </trkpt>
      <trkpt lat="47.04154" lon="7.06101">
        <ele>431.9</ele>
        <time>2022-09-30T13:04:23Z</time>
      </trkpt>
      <trkpt lat="47.04153" lon="7.06103">
        <ele>432</ele>
        <time>2022-09-30T13:04:24Z</time>
      </trkpt>
      <trkpt lat="47.04153" lon="7.06108">
        <ele>432</ele>
        <time>2022-09-30T13:04:25Z</time>
      </trkpt>
      <trkpt lat="47.04153" lon="7.06112">
        <ele>432</ele>
        <time>2022-09-30T13:04:26Z</time>
      </trkpt>
      <trkpt lat="47.04153" lon="7.06118">
        <ele>432</ele>
        <time>2022-09-30T13:04:27Z</time>
      </trkpt>
      <trkpt lat="47.04154" lon="7.06125">
        <ele>431.9</ele>
        <time>2022-09-30T13:04:28Z</time>
      </trkpt>
      <trkpt lat="47.04154" lon="7.0613">
        <ele>431.9</ele>
        <time>2022-09-30T13:04:29Z</time>
      </trkpt>
      <trkpt lat="47.04155" lon="7.06137">
        <ele>431.8</ele>
        <time>2022-09-30T13:04:30Z</time>
      </trkpt>
      <trkpt lat="47.04156" lon="7.06141">
        <ele>431.8</ele>
        <time>2022-09-30T13:04:31Z</time>
      </trkpt>
      <trkpt lat="47.04157" lon="7.06146">
        <ele>431.7</ele>
        <time>2022-09-30T13:04:32Z</time>
      </trkpt>
      <trkpt lat="47.04157" lon="7.06151">
        <ele>431.7</ele>
        <time>2022-09-30T13:04:33Z</time>
      </trkpt>
      <trkpt lat="47.04158" lon="7.06157">
        <ele>431.6</ele>
        <time>2022-09-30T13:04:34Z</time>
      </trkpt>
      <trkpt lat="47.0416" lon="7.06163">
        <ele>431.6</ele>
        <time>2022-09-30T13:04:35Z</time>
      </trkpt>
      <trkpt lat="47.04161" lon="7.06169">
        <ele>431.5</ele>
        <time>2022-09-30T13:04:36Z</time>
      </trkpt>
      <trkpt lat="47.04162" lon="7.06175">
        <ele>431.5</ele>
        <time>2022-09-30T13:04:37Z</time>
      </trkpt>
      <trkpt lat="47.04164" lon="7.0618">
        <ele>431.4</ele>
        <time>2022-09-30T13:04:38Z</time>
      </trkpt>
      <trkpt lat="47.04164" lon="7.06186">
        <ele>431.4</ele>
        <time>2022-09-30T13:04:39Z</time>
      </trkpt>
      <trkpt lat="47.04165" lon="7.06189">
        <ele>431.4</ele>
        <time>2022-09-30T13:04:40Z</time>
      </trkpt>
      <trkpt lat="47.04165" lon="7.06191">
        <ele>431.3</ele>
        <time>2022-09-30T13:04:41Z</time>
      </trkpt>
      <trkpt lat="47.04166" lon="7.06192">
        <ele>431.3</ele>
        <time>2022-09-30T13:04:42Z</time>
      </trkpt>
      <trkpt lat="47.04166" lon="7.06193">
        <ele>431.3</ele>
        <time>2022-09-30T13:04:43Z</time>
      </trkpt>
      <trkpt lat="47.04166" lon="7.06194">
        <ele>431.3</ele>
        <time>2022-09-30T13:04:44Z</time>
      </trkpt>
      <trkpt lat="47.04166" lon="7.06195">
        <ele>431.3</ele>
        <time>2022-09-30T13:04:45Z</time>
      </trkpt>
      <trkpt lat="47.04167" lon="7.06196">
        <ele>431.3</ele>
        <time>2022-09-30T13:04:46Z</time>
      </trkpt>
      <trkpt lat="47.04167" lon="7.06197">
        <ele>431.3</ele>
        <time>2022-09-30T13:04:47Z</time>
      </trkpt>
      <trkpt lat="47.04167" lon="7.06198">
        <ele>431.3</ele>
        <time>2022-09-30T13:04:48Z</time>
      </trkpt>
      <trkpt lat="47.04168" lon="7.06199">
        <ele>431.3</ele>
        <time>2022-09-30T13:04:49Z</time>
      </trkpt>
      <trkpt lat="47.04168" lon="7.062">
        <ele>431.3</ele>
        <time>2022-09-30T13:04:50Z</time>
      </trkpt>
      <trkpt lat="47.04168" lon="7.06201">
        <ele>431.3</ele>
        <time>2022-09-30T13:05:18Z</time>
      </trkpt>
      <trkpt lat="47.04169" lon="7.06202">
        <ele>431.2</ele>
        <time>2022-09-30T13:05:19Z</time>
      </trkpt>
      <trkpt lat="47.04169" lon="7.06203">
        <ele>431.2</ele>
        <time>2022-09-30T13:05:20Z</time>
      </trkpt>
      <trkpt lat="47.0417" lon="7.06209">
        <ele>431.2</ele>
        <time>2022-09-30T13:05:21Z</time>
      </trkpt>
      <trkpt lat="47.04171" lon="7.06212">
        <ele>431.2</ele>
        <time>2022-09-30T13:05:22Z</time>
      </trkpt>
      <trkpt lat="47.04171" lon="7.06216">
        <ele>431.1</ele>
        <time>2022-09-30T13:05:23Z</time>
      </trkpt>
      <trkpt lat="47.04173" lon="7.06221">
        <ele>431.1</ele>
        <time>2022-09-30T13:05:24Z</time>
      </trkpt>
      <trkpt lat="47.04174" lon="7.06226">
        <ele>431.1</ele>
        <time>2022-09-30T13:05:25Z</time>
      </trkpt>
      <trkpt lat="47.04175" lon="7.06232">
        <ele>431</ele>
        <time>2022-09-30T13:05:26Z</time>
      </trkpt>
      <trkpt lat="47.04176" lon="7.06237">
        <ele>431</ele>
        <time>2022-09-30T13:05:27Z</time>
      </trkpt>
      <trkpt lat="47.04178" lon="7.06243">
        <ele>431</ele>
        <time>2022-09-30T13:05:28Z</time>
      </trkpt>
      <trkpt lat="47.0418" lon="7.06248">
        <ele>430.9</ele>
        <time>2022-09-30T13:05:29Z</time>
      </trkpt>
      <trkpt lat="47.04181" lon="7.06254">
        <ele>430.9</ele>
        <time>2022-09-30T13:05:30Z</time>
      </trkpt>
      <trkpt lat="47.04182" lon="7.0626">
        <ele>430.9</ele>
        <time>2022-09-30T13:05:31Z</time>
      </trkpt>
      <trkpt lat="47.04184" lon="7.06267">
        <ele>430.9</ele>
        <time>2022-09-30T13:05:32Z</time>
      </trkpt>
      <trkpt lat="47.04185" lon="7.06273">
        <ele>430.8</ele>
        <time>2022-09-30T13:05:33Z</time>
      </trkpt>
      <trkpt lat="47.04187" lon="7.0628">
        <ele>430.8</ele>
        <time>2022-09-30T13:05:34Z</time>
      </trkpt>
      <trkpt lat="47.04188" lon="7.06286">
        <ele>430.8</ele>
        <time>2022-09-30T13:05:35Z</time>
      </trkpt>
      <trkpt lat="47.0419" lon="7.06292">
        <ele>430.8</ele>
        <time>2022-09-30T13:05:36Z</time>
      </trkpt>
      <trkpt lat="47.04191" lon="7.06298">
        <ele>430.8</ele>
        <time>2022-09-30T13:05:37Z</time>
      </trkpt>
      <trkpt lat="47.04192" lon="7.06305">
        <ele>430.8</ele>
        <time>2022-09-30T13:05:38Z</time>
      </trkpt>
      <trkpt lat="47.04194" lon="7.06312">
        <ele>430.8</ele>
        <time>2022-09-30T13:05:39Z</time>
      </trkpt>
      <trkpt lat="47.04195" lon="7.06318">
        <ele>430.8</ele>
        <time>2022-09-30T13:05:40Z</time>
      </trkpt>
      <trkpt lat="47.04196" lon="7.06325">
        <ele>430.8</ele>
        <time>2022-09-30T13:05:41Z</time>
      </trkpt>
      <trkpt lat="47.04198" lon="7.06331">
        <ele>430.8</ele>
        <time>2022-09-30T13:05:42Z</time>
      </trkpt>
      <trkpt lat="47.04199" lon="7.06337">
        <ele>430.8</ele>
        <time>2022-09-30T13:05:43Z</time>
      </trkpt>
      <trkpt lat="47.04201" lon="7.06343">
        <ele>430.8</ele>
        <time>2022-09-30T13:05:44Z</time>
      </trkpt>
      <trkpt lat="47.04202" lon="7.0635">
        <ele>430.8</ele>
        <time>2022-09-30T13:05:45Z</time>
      </trkpt>
      <trkpt lat="47.04204" lon="7.06356">
        <ele>430.8</ele>
        <time>2022-09-30T13:05:46Z</time>
      </trkpt>
      <trkpt lat="47.04206" lon="7.06362">
        <ele>430.8</ele>
        <time>2022-09-30T13:05:47Z</time>
      </trkpt>
      <trkpt lat="47.04207" lon="7.06369">
        <ele>430.8</ele>
        <time>2022-09-30T13:05:48Z</time>
      </trkpt>
      <trkpt lat="47.04209" lon="7.06375">
        <ele>430.8</ele>
        <time>2022-09-30T13:05:49Z</time>
      </trkpt>
      <trkpt lat="47.0421" lon="7.06382">
        <ele>430.9</ele>
        <time>2022-09-30T13:05:50Z</time>
      </trkpt>
      <trkpt lat="47.04212" lon="7.06389">
        <ele>430.9</ele>
        <time>2022-09-30T13:05:51Z</time>
      </trkpt>
      <trkpt lat="47.04213" lon="7.06396">
        <ele>430.9</ele>
        <time>2022-09-30T13:05:52Z</time>
      </trkpt>
      <trkpt lat="47.04215" lon="7.06402">
        <ele>430.9</ele>
        <time>2022-09-30T13:05:53Z</time>
      </trkpt>
      <trkpt lat="47.04216" lon="7.06409">
        <ele>430.9</ele>
        <time>2022-09-30T13:05:54Z</time>
      </trkpt>
      <trkpt lat="47.04218" lon="7.06416">
        <ele>430.9</ele>
        <time>2022-09-30T13:05:55Z</time>
      </trkpt>
      <trkpt lat="47.04219" lon="7.06423">
        <ele>430.9</ele>
        <time>2022-09-30T13:05:56Z</time>
      </trkpt>
      <trkpt lat="47.04221" lon="7.0643">
        <ele>430.9</ele>
        <time>2022-09-30T13:05:57Z</time>
      </trkpt>
      <trkpt lat="47.04222" lon="7.06436">
        <ele>430.9</ele>
        <time>2022-09-30T13:05:58Z</time>
      </trkpt>
      <trkpt lat="47.04224" lon="7.06443">
        <ele>430.9</ele>
        <time>2022-09-30T13:05:59Z</time>
      </trkpt>
      <trkpt lat="47.04225" lon="7.0645">
        <ele>430.9</ele>
        <time>2022-09-30T13:06:00Z</time>
      </trkpt>
      <trkpt lat="47.04227" lon="7.06457">
        <ele>430.9</ele>
        <time>2022-09-30T13:06:01Z</time>
      </trkpt>
      <trkpt lat="47.04229" lon="7.06463">
        <ele>431</ele>
        <time>2022-09-30T13:06:02Z</time>
      </trkpt>
      <trkpt lat="47.0423" lon="7.06469">
        <ele>431</ele>
        <time>2022-09-30T13:06:03Z</time>
      </trkpt>
      <trkpt lat="47.04232" lon="7.06476">
        <ele>431.1</ele>
        <time>2022-09-30T13:06:04Z</time>
      </trkpt>
      <trkpt lat="47.04233" lon="7.06483">
        <ele>431.1</ele>
        <time>2022-09-30T13:06:05Z</time>
      </trkpt>
      <trkpt lat="47.04235" lon="7.06489">
        <ele>431.1</ele>
        <time>2022-09-30T13:06:06Z</time>
      </trkpt>
      <trkpt lat="47.04236" lon="7.06496">
        <ele>431.2</ele>
        <time>2022-09-30T13:06:07Z</time>
      </trkpt>
      <trkpt lat="47.04238" lon="7.06501">
        <ele>431.2</ele>
        <time>2022-09-30T13:06:08Z</time>
      </trkpt>
      <trkpt lat="47.04239" lon="7.06509">
        <ele>431.2</ele>
        <time>2022-09-30T13:06:09Z</time>
      </trkpt>
      <trkpt lat="47.0424" lon="7.06516">
        <ele>431.3</ele>
        <time>2022-09-30T13:06:10Z</time>
      </trkpt>
      <trkpt lat="47.04242" lon="7.06522">
        <ele>431.3</ele>
        <time>2022-09-30T13:06:11Z</time>
      </trkpt>
      <trkpt lat="47.04244" lon="7.06527">
        <ele>431.3</ele>
        <time>2022-09-30T13:06:12Z</time>
      </trkpt>
      <trkpt lat="47.04246" lon="7.06534">
        <ele>431.3</ele>
        <time>2022-09-30T13:06:13Z</time>
      </trkpt>
      <trkpt lat="47.04247" lon="7.06541">
        <ele>431.3</ele>
        <time>2022-09-30T13:06:14Z</time>
      </trkpt>
      <trkpt lat="47.04248" lon="7.06548">
        <ele>431.3</ele>
        <time>2022-09-30T13:06:15Z</time>
      </trkpt>
      <trkpt lat="47.0425" lon="7.06554">
        <ele>431.3</ele>
        <time>2022-09-30T13:06:16Z</time>
      </trkpt>
      <trkpt lat="47.04251" lon="7.06561">
        <ele>431.3</ele>
        <time>2022-09-30T13:06:17Z</time>
      </trkpt>
      <trkpt lat="47.04253" lon="7.06567">
        <ele>431.3</ele>
        <time>2022-09-30T13:06:18Z</time>
      </trkpt>
      <trkpt lat="47.04255" lon="7.06573">
        <ele>431.3</ele>
        <time>2022-09-30T13:06:19Z</time>
      </trkpt>
      <trkpt lat="47.04256" lon="7.0658">
        <ele>431.2</ele>
        <time>2022-09-30T13:06:20Z</time>
      </trkpt>
      <trkpt lat="47.04258" lon="7.06586">
        <ele>431.2</ele>
        <time>2022-09-30T13:06:21Z</time>
      </trkpt>
      <trkpt lat="47.04259" lon="7.06593">
        <ele>431.2</ele>
        <time>2022-09-30T13:06:22Z</time>
      </trkpt>
      <trkpt lat="47.0426" lon="7.06599">
        <ele>431.2</ele>
        <time>2022-09-30T13:06:23Z</time>
      </trkpt>
      <trkpt lat="47.04261" lon="7.06606">
        <ele>431.2</ele>
        <time>2022-09-30T13:06:24Z</time>
      </trkpt>
      <trkpt lat="47.04263" lon="7.06612">
        <ele>431.3</ele>
        <time>2022-09-30T13:06:25Z</time>
      </trkpt>
      <trkpt lat="47.04265" lon="7.06619">
        <ele>431.3</ele>
        <time>2022-09-30T13:06:26Z</time>
      </trkpt>
      <trkpt lat="47.04266" lon="7.06624">
        <ele>431.3</ele>
        <time>2022-09-30T13:06:27Z</time>
      </trkpt>
      <trkpt lat="47.04267" lon="7.06631">
        <ele>431.3</ele>
        <time>2022-09-30T13:06:28Z</time>
      </trkpt>
      <trkpt lat="47.04269" lon="7.06637">
        <ele>431.3</ele>
        <time>2022-09-30T13:06:29Z</time>
      </trkpt>
      <trkpt lat="47.0427" lon="7.06643">
        <ele>431.4</ele>
        <time>2022-09-30T13:06:30Z</time>
      </trkpt>
      <trkpt lat="47.04272" lon="7.06649">
        <ele>431.4</ele>
        <time>2022-09-30T13:06:31Z</time>
      </trkpt>
      <trkpt lat="47.04273" lon="7.06655">
        <ele>431.4</ele>
        <time>2022-09-30T13:06:32Z</time>
      </trkpt>
      <trkpt lat="47.04275" lon="7.06662">
        <ele>431.4</ele>
        <time>2022-09-30T13:06:33Z</time>
      </trkpt>
      <trkpt lat="47.04276" lon="7.06667">
        <ele>431.4</ele>
        <time>2022-09-30T13:06:34Z</time>
      </trkpt>
      <trkpt lat="47.04277" lon="7.06673">
        <ele>431.4</ele>
        <time>2022-09-30T13:06:35Z</time>
      </trkpt>
      <trkpt lat="47.04279" lon="7.06679">
        <ele>431.4</ele>
        <time>2022-09-30T13:06:36Z</time>
      </trkpt>
      <trkpt lat="47.0428" lon="7.06686">
        <ele>431.4</ele>
        <time>2022-09-30T13:06:37Z</time>
      </trkpt>
      <trkpt lat="47.04281" lon="7.06692">
        <ele>431.4</ele>
        <time>2022-09-30T13:06:38Z</time>
      </trkpt>
      <trkpt lat="47.04283" lon="7.06698">
        <ele>431.5</ele>
        <time>2022-09-30T13:06:39Z</time>
      </trkpt>
      <trkpt lat="47.04284" lon="7.06704">
        <ele>431.5</ele>
        <time>2022-09-30T13:06:40Z</time>
      </trkpt>
      <trkpt lat="47.04286" lon="7.0671">
        <ele>431.5</ele>
        <time>2022-09-30T13:06:41Z</time>
      </trkpt>
      <trkpt lat="47.04287" lon="7.06716">
        <ele>431.5</ele>
        <time>2022-09-30T13:06:42Z</time>
      </trkpt>
      <trkpt lat="47.04289" lon="7.06722">
        <ele>431.5</ele>
        <time>2022-09-30T13:06:43Z</time>
      </trkpt>
      <trkpt lat="47.0429" lon="7.06729">
        <ele>431.5</ele>
        <time>2022-09-30T13:06:44Z</time>
      </trkpt>
      <trkpt lat="47.04292" lon="7.06735">
        <ele>431.5</ele>
        <time>2022-09-30T13:06:45Z</time>
      </trkpt>
      <trkpt lat="47.04293" lon="7.06741">
        <ele>431.5</ele>
        <time>2022-09-30T13:06:46Z</time>
      </trkpt>
      <trkpt lat="47.04294" lon="7.06747">
        <ele>431.5</ele>
        <time>2022-09-30T13:06:47Z</time>
      </trkpt>
      <trkpt lat="47.04296" lon="7.06753">
        <ele>431.5</ele>
        <time>2022-09-30T13:06:48Z</time>
      </trkpt>
      <trkpt lat="47.04297" lon="7.06759">
        <ele>431.5</ele>
        <time>2022-09-30T13:06:49Z</time>
      </trkpt>
      <trkpt lat="47.04299" lon="7.06764">
        <ele>431.5</ele>
        <time>2022-09-30T13:06:50Z</time>
      </trkpt>
      <trkpt lat="47.043" lon="7.0677">
        <ele>431.5</ele>
        <time>2022-09-30T13:06:51Z</time>
      </trkpt>
      <trkpt lat="47.04301" lon="7.06776">
        <ele>431.5</ele>
        <time>2022-09-30T13:06:52Z</time>
      </trkpt>
      <trkpt lat="47.04302" lon="7.06782">
        <ele>431.6</ele>
        <time>2022-09-30T13:06:53Z</time>
      </trkpt>
      <trkpt lat="47.04304" lon="7.06788">
        <ele>431.6</ele>
        <time>2022-09-30T13:06:54Z</time>
      </trkpt>
      <trkpt lat="47.04306" lon="7.06793">
        <ele>431.6</ele>
        <time>2022-09-30T13:06:55Z</time>
      </trkpt>
      <trkpt lat="47.04307" lon="7.06799">
        <ele>431.6</ele>
        <time>2022-09-30T13:06:56Z</time>
      </trkpt>
      <trkpt lat="47.04308" lon="7.06805">
        <ele>431.7</ele>
        <time>2022-09-30T13:06:57Z</time>
      </trkpt>
      <trkpt lat="47.04309" lon="7.06811">
        <ele>431.7</ele>
        <time>2022-09-30T13:06:58Z</time>
      </trkpt>
      <trkpt lat="47.0431" lon="7.06817">
        <ele>431.7</ele>
        <time>2022-09-30T13:06:59Z</time>
      </trkpt>
      <trkpt lat="47.04312" lon="7.06823">
        <ele>431.7</ele>
        <time>2022-09-30T13:07:00Z</time>
      </trkpt>
      <trkpt lat="47.04313" lon="7.06828">
        <ele>431.8</ele>
        <time>2022-09-30T13:07:01Z</time>
      </trkpt>
      <trkpt lat="47.04314" lon="7.06833">
        <ele>431.8</ele>
        <time>2022-09-30T13:07:02Z</time>
      </trkpt>
      <trkpt lat="47.04316" lon="7.06839">
        <ele>431.8</ele>
        <time>2022-09-30T13:07:03Z</time>
      </trkpt>
      <trkpt lat="47.04317" lon="7.06845">
        <ele>431.8</ele>
        <time>2022-09-30T13:07:04Z</time>
      </trkpt>
      <trkpt lat="47.04318" lon="7.06851">
        <ele>431.9</ele>
        <time>2022-09-30T13:07:05Z</time>
      </trkpt>
      <trkpt lat="47.0432" lon="7.06856">
        <ele>431.9</ele>
        <time>2022-09-30T13:07:06Z</time>
      </trkpt>
      <trkpt lat="47.04321" lon="7.06863">
        <ele>432</ele>
        <time>2022-09-30T13:07:07Z</time>
      </trkpt>
      <trkpt lat="47.04322" lon="7.06868">
        <ele>432</ele>
        <time>2022-09-30T13:07:08Z</time>
      </trkpt>
      <trkpt lat="47.04324" lon="7.06874">
        <ele>432.1</ele>
        <time>2022-09-30T13:07:09Z</time>
      </trkpt>
      <trkpt lat="47.04325" lon="7.06879">
        <ele>432.1</ele>
        <time>2022-09-30T13:07:10Z</time>
      </trkpt>
      <trkpt lat="47.04326" lon="7.06885">
        <ele>432.2</ele>
        <time>2022-09-30T13:07:11Z</time>
      </trkpt>
      <trkpt lat="47.04327" lon="7.0689">
        <ele>432.2</ele>
        <time>2022-09-30T13:07:12Z</time>
      </trkpt>
      <trkpt lat="47.04329" lon="7.06896">
        <ele>432.3</ele>
        <time>2022-09-30T13:07:13Z</time>
      </trkpt>
      <trkpt lat="47.0433" lon="7.06901">
        <ele>432.3</ele>
        <time>2022-09-30T13:07:14Z</time>
      </trkpt>
      <trkpt lat="47.04331" lon="7.06906">
        <ele>432.4</ele>
        <time>2022-09-30T13:07:15Z</time>
      </trkpt>
      <trkpt lat="47.04332" lon="7.06911">
        <ele>432.5</ele>
        <time>2022-09-30T13:07:16Z</time>
      </trkpt>
      <trkpt lat="47.04334" lon="7.06916">
        <ele>432.6</ele>
        <time>2022-09-30T13:07:17Z</time>
      </trkpt>
      <trkpt lat="47.04335" lon="7.06921">
        <ele>432.6</ele>
        <time>2022-09-30T13:07:18Z</time>
      </trkpt>
      <trkpt lat="47.04336" lon="7.06925">
        <ele>432.7</ele>
        <time>2022-09-30T13:07:19Z</time>
      </trkpt>
      <trkpt lat="47.04337" lon="7.0693">
        <ele>432.8</ele>
        <time>2022-09-30T13:07:20Z</time>
      </trkpt>
      <trkpt lat="47.04338" lon="7.06934">
        <ele>432.9</ele>
        <time>2022-09-30T13:07:21Z</time>
      </trkpt>
      <trkpt lat="47.0434" lon="7.06938">
        <ele>433</ele>
        <time>2022-09-30T13:07:22Z</time>
      </trkpt>
      <trkpt lat="47.04341" lon="7.06941">
        <ele>433.1</ele>
        <time>2022-09-30T13:07:23Z</time>
      </trkpt>
      <trkpt lat="47.04343" lon="7.06945">
        <ele>433.2</ele>
        <time>2022-09-30T13:07:24Z</time>
      </trkpt>
      <trkpt lat="47.04344" lon="7.06949">
        <ele>433.3</ele>
        <time>2022-09-30T13:07:25Z</time>
      </trkpt>
      <trkpt lat="47.04346" lon="7.06953">
        <ele>433.4</ele>
        <time>2022-09-30T13:07:26Z</time>
      </trkpt>
      <trkpt lat="47.04348" lon="7.06957">
        <ele>433.5</ele>
        <time>2022-09-30T13:07:27Z</time>
      </trkpt>
      <trkpt lat="47.04349" lon="7.06959">
        <ele>433.5</ele>
        <time>2022-09-30T13:07:28Z</time>
      </trkpt>
      <trkpt lat="47.0435" lon="7.06963">
        <ele>433.7</ele>
        <time>2022-09-30T13:07:29Z</time>
      </trkpt>
      <trkpt lat="47.0435" lon="7.06964">
        <ele>433.7</ele>
        <time>2022-09-30T13:07:30Z</time>
      </trkpt>
      <trkpt lat="47.04349" lon="7.06968">
        <ele>433.8</ele>
        <time>2022-09-30T13:07:31Z</time>
      </trkpt>
      <trkpt lat="47.04349" lon="7.0697">
        <ele>433.9</ele>
        <time>2022-09-30T13:07:32Z</time>
      </trkpt>
      <trkpt lat="47.04347" lon="7.06974">
        <ele>433.8</ele>
        <time>2022-09-30T13:07:33Z</time>
      </trkpt>
      <trkpt lat="47.04344" lon="7.06977">
        <ele>433.8</ele>
        <time>2022-09-30T13:07:34Z</time>
      </trkpt>
      <trkpt lat="47.04341" lon="7.06979">
        <ele>433.7</ele>
        <time>2022-09-30T13:07:35Z</time>
      </trkpt>
      <trkpt lat="47.04339" lon="7.06982">
        <ele>433.7</ele>
        <time>2022-09-30T13:07:36Z</time>
      </trkpt>
      <trkpt lat="47.04336" lon="7.06986">
        <ele>433.7</ele>
        <time>2022-09-30T13:07:37Z</time>
      </trkpt>
      <trkpt lat="47.04333" lon="7.0699">
        <ele>433.6</ele>
        <time>2022-09-30T13:07:38Z</time>
      </trkpt>
      <trkpt lat="47.04331" lon="7.06994">
        <ele>433.6</ele>
        <time>2022-09-30T13:07:39Z</time>
      </trkpt>
      <trkpt lat="47.04328" lon="7.06998">
        <ele>433.6</ele>
        <time>2022-09-30T13:07:40Z</time>
      </trkpt>
      <trkpt lat="47.04325" lon="7.07002">
        <ele>433.6</ele>
        <time>2022-09-30T13:07:41Z</time>
      </trkpt>
      <trkpt lat="47.04322" lon="7.07006">
        <ele>433.6</ele>
        <time>2022-09-30T13:07:42Z</time>
      </trkpt>
      <trkpt lat="47.04319" lon="7.0701">
        <ele>433.6</ele>
        <time>2022-09-30T13:07:43Z</time>
      </trkpt>
      <trkpt lat="47.04315" lon="7.07015">
        <ele>433.6</ele>
        <time>2022-09-30T13:07:44Z</time>
      </trkpt>
      <trkpt lat="47.04312" lon="7.07018">
        <ele>433.6</ele>
        <time>2022-09-30T13:07:45Z</time>
      </trkpt>
      <trkpt lat="47.04308" lon="7.07022">
        <ele>433.6</ele>
        <time>2022-09-30T13:07:46Z</time>
      </trkpt>
      <trkpt lat="47.04305" lon="7.07026">
        <ele>433.6</ele>
        <time>2022-09-30T13:07:47Z</time>
      </trkpt>
      <trkpt lat="47.04302" lon="7.0703">
        <ele>433.6</ele>
        <time>2022-09-30T13:07:48Z</time>
      </trkpt>
      <trkpt lat="47.04299" lon="7.07036">
        <ele>433.6</ele>
        <time>2022-09-30T13:07:49Z</time>
      </trkpt>
      <trkpt lat="47.04296" lon="7.07038">
        <ele>433.6</ele>
        <time>2022-09-30T13:07:50Z</time>
      </trkpt>
      <trkpt lat="47.04293" lon="7.07042">
        <ele>433.6</ele>
        <time>2022-09-30T13:07:51Z</time>
      </trkpt>
      <trkpt lat="47.04289" lon="7.07045">
        <ele>433.6</ele>
        <time>2022-09-30T13:07:52Z</time>
      </trkpt>
      <trkpt lat="47.04287" lon="7.0705">
        <ele>433.7</ele>
        <time>2022-09-30T13:07:53Z</time>
      </trkpt>
      <trkpt lat="47.04283" lon="7.07053">
        <ele>433.7</ele>
        <time>2022-09-30T13:07:54Z</time>
      </trkpt>
      <trkpt lat="47.0428" lon="7.07057">
        <ele>433.7</ele>
        <time>2022-09-30T13:07:55Z</time>
      </trkpt>
      <trkpt lat="47.04276" lon="7.0706">
        <ele>433.7</ele>
        <time>2022-09-30T13:07:56Z</time>
      </trkpt>
      <trkpt lat="47.04273" lon="7.07063">
        <ele>433.7</ele>
        <time>2022-09-30T13:07:57Z</time>
      </trkpt>
      <trkpt lat="47.0427" lon="7.07066">
        <ele>433.8</ele>
        <time>2022-09-30T13:07:58Z</time>
      </trkpt>
      <trkpt lat="47.04268" lon="7.07069">
        <ele>433.8</ele>
        <time>2022-09-30T13:07:59Z</time>
      </trkpt>
      <trkpt lat="47.04264" lon="7.07072">
        <ele>433.8</ele>
        <time>2022-09-30T13:08:00Z</time>
      </trkpt>
      <trkpt lat="47.04261" lon="7.07075">
        <ele>433.9</ele>
        <time>2022-09-30T13:08:01Z</time>
      </trkpt>
      <trkpt lat="47.04257" lon="7.07078">
        <ele>433.9</ele>
        <time>2022-09-30T13:08:02Z</time>
      </trkpt>
      <trkpt lat="47.04255" lon="7.07081">
        <ele>433.9</ele>
        <time>2022-09-30T13:08:03Z</time>
      </trkpt>
      <trkpt lat="47.04252" lon="7.07083">
        <ele>434</ele>
        <time>2022-09-30T13:08:04Z</time>
      </trkpt>
      <trkpt lat="47.04249" lon="7.07086">
        <ele>434</ele>
        <time>2022-09-30T13:08:05Z</time>
      </trkpt>
      <trkpt lat="47.04246" lon="7.07088">
        <ele>434</ele>
        <time>2022-09-30T13:08:06Z</time>
      </trkpt>
      <trkpt lat="47.04244" lon="7.0709">
        <ele>434</ele>
        <time>2022-09-30T13:08:07Z</time>
      </trkpt>
      <trkpt lat="47.04241" lon="7.07093">
        <ele>434</ele>
        <time>2022-09-30T13:08:08Z</time>
      </trkpt>
      <trkpt lat="47.0424" lon="7.07094">
        <ele>434</ele>
        <time>2022-09-30T13:08:09Z</time>
      </trkpt>
      <trkpt lat="47.04238" lon="7.07099">
        <ele>434</ele>
        <time>2022-09-30T13:08:10Z</time>
      </trkpt>
      <trkpt lat="47.04234" lon="7.07101">
        <ele>434</ele>
        <time>2022-09-30T13:08:11Z</time>
      </trkpt>
      <trkpt lat="47.04231" lon="7.07103">
        <ele>434</ele>
        <time>2022-09-30T13:08:12Z</time>
      </trkpt>
      <trkpt lat="47.04229" lon="7.07107">
        <ele>434</ele>
        <time>2022-09-30T13:08:13Z</time>
      </trkpt>
      <trkpt lat="47.04226" lon="7.0711">
        <ele>434.1</ele>
        <time>2022-09-30T13:08:14Z</time>
      </trkpt>
      <trkpt lat="47.04222" lon="7.07112">
        <ele>434.1</ele>
        <time>2022-09-30T13:08:15Z</time>
      </trkpt>
      <trkpt lat="47.04217" lon="7.07114">
        <ele>434.1</ele>
        <time>2022-09-30T13:08:16Z</time>
      </trkpt>
      <trkpt lat="47.04215" lon="7.07117">
        <ele>434.2</ele>
        <time>2022-09-30T13:08:17Z</time>
      </trkpt>
      <trkpt lat="47.04212" lon="7.07121">
        <ele>434.2</ele>
        <time>2022-09-30T13:08:18Z</time>
      </trkpt>
      <trkpt lat="47.04208" lon="7.07124">
        <ele>434.3</ele>
        <time>2022-09-30T13:08:19Z</time>
      </trkpt>
      <trkpt lat="47.04205" lon="7.07127">
        <ele>434.3</ele>
        <time>2022-09-30T13:08:20Z</time>
      </trkpt>
      <trkpt lat="47.04201" lon="7.07129">
        <ele>434.3</ele>
        <time>2022-09-30T13:08:21Z</time>
      </trkpt>
      <trkpt lat="47.04197" lon="7.07133">
        <ele>434.4</ele>
        <time>2022-09-30T13:08:22Z</time>
      </trkpt>
      <trkpt lat="47.04194" lon="7.07136">
        <ele>434.4</ele>
        <time>2022-09-30T13:08:23Z</time>
      </trkpt>
      <trkpt lat="47.0419" lon="7.07139">
        <ele>434.5</ele>
        <time>2022-09-30T13:08:24Z</time>
      </trkpt>
      <trkpt lat="47.04186" lon="7.07142">
        <ele>434.5</ele>
        <time>2022-09-30T13:08:25Z</time>
      </trkpt>
      <trkpt lat="47.04182" lon="7.07144">
        <ele>434.6</ele>
        <time>2022-09-30T13:08:26Z</time>
      </trkpt>
      <trkpt lat="47.04178" lon="7.07147">
        <ele>434.6</ele>
        <time>2022-09-30T13:08:27Z</time>
      </trkpt>
      <trkpt lat="47.04174" lon="7.0715">
        <ele>434.7</ele>
        <time>2022-09-30T13:08:28Z</time>
      </trkpt>
      <trkpt lat="47.04171" lon="7.07153">
        <ele>434.7</ele>
        <time>2022-09-30T13:08:29Z</time>
      </trkpt>
      <trkpt lat="47.04167" lon="7.07156">
        <ele>434.8</ele>
        <time>2022-09-30T13:08:30Z</time>
      </trkpt>
      <trkpt lat="47.04163" lon="7.07159">
        <ele>434.8</ele>
        <time>2022-09-30T13:08:31Z</time>
      </trkpt>
      <trkpt lat="47.04159" lon="7.07163">
        <ele>434.9</ele>
        <time>2022-09-30T13:08:32Z</time>
      </trkpt>
      <trkpt lat="47.04156" lon="7.07163">
        <ele>434.9</ele>
        <time>2022-09-30T13:08:33Z</time>
      </trkpt>
      <trkpt lat="47.04152" lon="7.07167">
        <ele>435</ele>
        <time>2022-09-30T13:08:34Z</time>
      </trkpt>
      <trkpt lat="47.04149" lon="7.0717">
        <ele>435</ele>
        <time>2022-09-30T13:08:35Z</time>
      </trkpt>
      <trkpt lat="47.04145" lon="7.07173">
        <ele>435.1</ele>
        <time>2022-09-30T13:08:36Z</time>
      </trkpt>
      <trkpt lat="47.04141" lon="7.07175">
        <ele>435.1</ele>
        <time>2022-09-30T13:08:37Z</time>
      </trkpt>
      <trkpt lat="47.04137" lon="7.07177">
        <ele>435.1</ele>
        <time>2022-09-30T13:08:38Z</time>
      </trkpt>
      <trkpt lat="47.04133" lon="7.0718">
        <ele>435.2</ele>
        <time>2022-09-30T13:08:39Z</time>
      </trkpt>
      <trkpt lat="47.0413" lon="7.07183">
        <ele>435.2</ele>
        <time>2022-09-30T13:08:40Z</time>
      </trkpt>
      <trkpt lat="47.04126" lon="7.07186">
        <ele>435.2</ele>
        <time>2022-09-30T13:08:41Z</time>
      </trkpt>
      <trkpt lat="47.04123" lon="7.07189">
        <ele>435.3</ele>
        <time>2022-09-30T13:08:42Z</time>
      </trkpt>
      <trkpt lat="47.04118" lon="7.07191">
        <ele>435.3</ele>
        <time>2022-09-30T13:08:43Z</time>
      </trkpt>
      <trkpt lat="47.04114" lon="7.07194">
        <ele>435.4</ele>
        <time>2022-09-30T13:08:44Z</time>
      </trkpt>
      <trkpt lat="47.0411" lon="7.07197">
        <ele>435.4</ele>
        <time>2022-09-30T13:08:45Z</time>
      </trkpt>
      <trkpt lat="47.04107" lon="7.07199">
        <ele>435.5</ele>
        <time>2022-09-30T13:08:46Z</time>
      </trkpt>
      <trkpt lat="47.04102" lon="7.07202">
        <ele>435.5</ele>
        <time>2022-09-30T13:08:47Z</time>
      </trkpt>
      <trkpt lat="47.04098" lon="7.07205">
        <ele>435.6</ele>
        <time>2022-09-30T13:08:48Z</time>
      </trkpt>
      <trkpt lat="47.04094" lon="7.07208">
        <ele>435.6</ele>
        <time>2022-09-30T13:08:49Z</time>
      </trkpt>
      <trkpt lat="47.04091" lon="7.07211">
        <ele>435.6</ele>
        <time>2022-09-30T13:08:50Z</time>
      </trkpt>
      <trkpt lat="47.04087" lon="7.07213">
        <ele>435.7</ele>
        <time>2022-09-30T13:08:51Z</time>
      </trkpt>
      <trkpt lat="47.04084" lon="7.07216">
        <ele>435.7</ele>
        <time>2022-09-30T13:08:52Z</time>
      </trkpt>
      <trkpt lat="47.0408" lon="7.07219">
        <ele>435.8</ele>
        <time>2022-09-30T13:08:53Z</time>
      </trkpt>
      <trkpt lat="47.04077" lon="7.07221">
        <ele>435.8</ele>
        <time>2022-09-30T13:08:54Z</time>
      </trkpt>
      <trkpt lat="47.04073" lon="7.07224">
        <ele>435.8</ele>
        <time>2022-09-30T13:08:55Z</time>
      </trkpt>
      <trkpt lat="47.04069" lon="7.07226">
        <ele>435.9</ele>
        <time>2022-09-30T13:08:56Z</time>
      </trkpt>
      <trkpt lat="47.04065" lon="7.07228">
        <ele>435.9</ele>
        <time>2022-09-30T13:08:57Z</time>
      </trkpt>
      <trkpt lat="47.04061" lon="7.07231">
        <ele>436</ele>
        <time>2022-09-30T13:08:58Z</time>
      </trkpt>
      <trkpt lat="47.04057" lon="7.07234">
        <ele>436</ele>
        <time>2022-09-30T13:08:59Z</time>
      </trkpt>
      <trkpt lat="47.04053" lon="7.07236">
        <ele>436.1</ele>
        <time>2022-09-30T13:09:00Z</time>
      </trkpt>
      <trkpt lat="47.04049" lon="7.07239">
        <ele>436.1</ele>
        <time>2022-09-30T13:09:01Z</time>
      </trkpt>
      <trkpt lat="47.04046" lon="7.07242">
        <ele>436.1</ele>
        <time>2022-09-30T13:09:02Z</time>
      </trkpt>
      <trkpt lat="47.04042" lon="7.07245">
        <ele>436.2</ele>
        <time>2022-09-30T13:09:03Z</time>
      </trkpt>
      <trkpt lat="47.04039" lon="7.07248">
        <ele>436.2</ele>
        <time>2022-09-30T13:09:04Z</time>
      </trkpt>
      <trkpt lat="47.04035" lon="7.07252">
        <ele>436.3</ele>
        <time>2022-09-30T13:09:05Z</time>
      </trkpt>
      <trkpt lat="47.04033" lon="7.07256">
        <ele>436.3</ele>
        <time>2022-09-30T13:09:06Z</time>
      </trkpt>
      <trkpt lat="47.04031" lon="7.0726">
        <ele>436.4</ele>
        <time>2022-09-30T13:09:07Z</time>
      </trkpt>
      <trkpt lat="47.04028" lon="7.07264">
        <ele>436.4</ele>
        <time>2022-09-30T13:09:08Z</time>
      </trkpt>
      <trkpt lat="47.04025" lon="7.07268">
        <ele>436.5</ele>
        <time>2022-09-30T13:09:09Z</time>
      </trkpt>
      <trkpt lat="47.04023" lon="7.07273">
        <ele>436.5</ele>
        <time>2022-09-30T13:09:10Z</time>
      </trkpt>
      <trkpt lat="47.0402" lon="7.07276">
        <ele>436.6</ele>
        <time>2022-09-30T13:09:11Z</time>
      </trkpt>
      <trkpt lat="47.04016" lon="7.0728">
        <ele>436.6</ele>
        <time>2022-09-30T13:09:12Z</time>
      </trkpt>
      <trkpt lat="47.04013" lon="7.07284">
        <ele>436.7</ele>
        <time>2022-09-30T13:09:13Z</time>
      </trkpt>
      <trkpt lat="47.0401" lon="7.07288">
        <ele>436.7</ele>
        <time>2022-09-30T13:09:14Z</time>
      </trkpt>
      <trkpt lat="47.04009" lon="7.07292">
        <ele>436.8</ele>
        <time>2022-09-30T13:09:15Z</time>
      </trkpt>
      <trkpt lat="47.04009" lon="7.07297">
        <ele>436.8</ele>
        <time>2022-09-30T13:09:16Z</time>
      </trkpt>
      <trkpt lat="47.04009" lon="7.07302">
        <ele>436.8</ele>
        <time>2022-09-30T13:09:17Z</time>
      </trkpt>
      <trkpt lat="47.0401" lon="7.07307">
        <ele>436.8</ele>
        <time>2022-09-30T13:09:18Z</time>
      </trkpt>
      <trkpt lat="47.04012" lon="7.07312">
        <ele>436.7</ele>
        <time>2022-09-30T13:09:19Z</time>
      </trkpt>
      <trkpt lat="47.04014" lon="7.07317">
        <ele>436.7</ele>
        <time>2022-09-30T13:09:20Z</time>
      </trkpt>
      <trkpt lat="47.04016" lon="7.07322">
        <ele>436.6</ele>
        <time>2022-09-30T13:09:21Z</time>
      </trkpt>
      <trkpt lat="47.04019" lon="7.07329">
        <ele>436.5</ele>
        <time>2022-09-30T13:09:22Z</time>
      </trkpt>
      <trkpt lat="47.04022" lon="7.07334">
        <ele>436.5</ele>
        <time>2022-09-30T13:09:23Z</time>
      </trkpt>
      <trkpt lat="47.04024" lon="7.0734">
        <ele>436.4</ele>
        <time>2022-09-30T13:09:24Z</time>
      </trkpt>
      <trkpt lat="47.04027" lon="7.07346">
        <ele>436.3</ele>
        <time>2022-09-30T13:09:25Z</time>
      </trkpt>
      <trkpt lat="47.0403" lon="7.07352">
        <ele>436.2</ele>
        <time>2022-09-30T13:09:26Z</time>
      </trkpt>
      <trkpt lat="47.04033" lon="7.07358">
        <ele>436.2</ele>
        <time>2022-09-30T13:09:27Z</time>
      </trkpt>
      <trkpt lat="47.04036" lon="7.07364">
        <ele>436.1</ele>
        <time>2022-09-30T13:09:28Z</time>
      </trkpt>
      <trkpt lat="47.04039" lon="7.07371">
        <ele>436</ele>
        <time>2022-09-30T13:09:29Z</time>
      </trkpt>
      <trkpt lat="47.04042" lon="7.07377">
        <ele>436</ele>
        <time>2022-09-30T13:09:30Z</time>
      </trkpt>
      <trkpt lat="47.04045" lon="7.07383">
        <ele>435.9</ele>
        <time>2022-09-30T13:09:31Z</time>
      </trkpt>
      <trkpt lat="47.04048" lon="7.07389">
        <ele>435.9</ele>
        <time>2022-09-30T13:09:32Z</time>
      </trkpt>
      <trkpt lat="47.04051" lon="7.07395">
        <ele>435.9</ele>
        <time>2022-09-30T13:09:33Z</time>
      </trkpt>
      <trkpt lat="47.04055" lon="7.07401">
        <ele>435.8</ele>
        <time>2022-09-30T13:09:34Z</time>
      </trkpt>
      <trkpt lat="47.04058" lon="7.07406">
        <ele>435.8</ele>
        <time>2022-09-30T13:09:35Z</time>
      </trkpt>
      <trkpt lat="47.04061" lon="7.07413">
        <ele>435.8</ele>
        <time>2022-09-30T13:09:36Z</time>
      </trkpt>
      <trkpt lat="47.04063" lon="7.07419">
        <ele>435.7</ele>
        <time>2022-09-30T13:09:37Z</time>
      </trkpt>
      <trkpt lat="47.04067" lon="7.07424">
        <ele>435.7</ele>
        <time>2022-09-30T13:09:38Z</time>
      </trkpt>
      <trkpt lat="47.04069" lon="7.07431">
        <ele>435.7</ele>
        <time>2022-09-30T13:09:39Z</time>
      </trkpt>
      <trkpt lat="47.04073" lon="7.07437">
        <ele>435.7</ele>
        <time>2022-09-30T13:09:40Z</time>
      </trkpt>
      <trkpt lat="47.04075" lon="7.07442">
        <ele>435.7</ele>
        <time>2022-09-30T13:09:41Z</time>
      </trkpt>
      <trkpt lat="47.04078" lon="7.07448">
        <ele>435.7</ele>
        <time>2022-09-30T13:09:42Z</time>
      </trkpt>
      <trkpt lat="47.04081" lon="7.07454">
        <ele>435.7</ele>
        <time>2022-09-30T13:09:43Z</time>
      </trkpt>
      <trkpt lat="47.04084" lon="7.0746">
        <ele>435.7</ele>
        <time>2022-09-30T13:09:44Z</time>
      </trkpt>
      <trkpt lat="47.04087" lon="7.07465">
        <ele>435.7</ele>
        <time>2022-09-30T13:09:45Z</time>
      </trkpt>
      <trkpt lat="47.04089" lon="7.07471">
        <ele>435.7</ele>
        <time>2022-09-30T13:09:46Z</time>
      </trkpt>
      <trkpt lat="47.04092" lon="7.07476">
        <ele>435.8</ele>
        <time>2022-09-30T13:09:47Z</time>
      </trkpt>
      <trkpt lat="47.04094" lon="7.07481">
        <ele>435.8</ele>
        <time>2022-09-30T13:09:48Z</time>
      </trkpt>
      <trkpt lat="47.04097" lon="7.07487">
        <ele>435.8</ele>
        <time>2022-09-30T13:09:49Z</time>
      </trkpt>
      <trkpt lat="47.041" lon="7.07491">
        <ele>435.8</ele>
        <time>2022-09-30T13:09:50Z</time>
      </trkpt>
      <trkpt lat="47.04103" lon="7.07497">
        <ele>435.9</ele>
        <time>2022-09-30T13:09:51Z</time>
      </trkpt>
      <trkpt lat="47.04106" lon="7.07502">
        <ele>435.9</ele>
        <time>2022-09-30T13:09:52Z</time>
      </trkpt>
      <trkpt lat="47.04108" lon="7.07507">
        <ele>435.9</ele>
        <time>2022-09-30T13:09:53Z</time>
      </trkpt>
      <trkpt lat="47.04111" lon="7.07513">
        <ele>435.9</ele>
        <time>2022-09-30T13:09:54Z</time>
      </trkpt>
      <trkpt lat="47.04114" lon="7.07518">
        <ele>436</ele>
        <time>2022-09-30T13:09:55Z</time>
      </trkpt>
      <trkpt lat="47.04117" lon="7.07523">
        <ele>436</ele>
        <time>2022-09-30T13:09:56Z</time>
      </trkpt>
      <trkpt lat="47.04119" lon="7.07529">
        <ele>436.1</ele>
        <time>2022-09-30T13:09:57Z</time>
      </trkpt>
      <trkpt lat="47.04122" lon="7.07535">
        <ele>436.1</ele>
        <time>2022-09-30T13:09:58Z</time>
      </trkpt>
      <trkpt lat="47.04125" lon="7.0754">
        <ele>436.2</ele>
        <time>2022-09-30T13:09:59Z</time>
      </trkpt>
      <trkpt lat="47.04128" lon="7.07546">
        <ele>436.3</ele>
        <time>2022-09-30T13:10:00Z</time>
      </trkpt>
      <trkpt lat="47.04131" lon="7.07551">
        <ele>436.3</ele>
        <time>2022-09-30T13:10:01Z</time>
      </trkpt>
      <trkpt lat="47.04134" lon="7.07556">
        <ele>436.4</ele>
        <time>2022-09-30T13:10:02Z</time>
      </trkpt>
      <trkpt lat="47.04138" lon="7.0756">
        <ele>436.4</ele>
        <time>2022-09-30T13:10:03Z</time>
      </trkpt>
      <trkpt lat="47.04141" lon="7.07565">
        <ele>436.4</ele>
        <time>2022-09-30T13:10:04Z</time>
      </trkpt>
      <trkpt lat="47.04144" lon="7.0757">
        <ele>436.5</ele>
        <time>2022-09-30T13:10:05Z</time>
      </trkpt>
      <trkpt lat="47.04147" lon="7.07575">
        <ele>436.5</ele>
        <time>2022-09-30T13:10:06Z</time>
      </trkpt>
      <trkpt lat="47.0415" lon="7.0758">
        <ele>436.5</ele>
        <time>2022-09-30T13:10:07Z</time>
      </trkpt>
      <trkpt lat="47.04153" lon="7.07584">
        <ele>436.6</ele>
        <time>2022-09-30T13:10:08Z</time>
      </trkpt>
      <trkpt lat="47.04157" lon="7.07589">
        <ele>436.6</ele>
        <time>2022-09-30T13:10:09Z</time>
      </trkpt>
      <trkpt lat="47.0416" lon="7.07594">
        <ele>436.6</ele>
        <time>2022-09-30T13:10:10Z</time>
      </trkpt>
      <trkpt lat="47.04163" lon="7.07599">
        <ele>436.7</ele>
        <time>2022-09-30T13:10:11Z</time>
      </trkpt>
      <trkpt lat="47.04166" lon="7.07603">
        <ele>436.7</ele>
        <time>2022-09-30T13:10:12Z</time>
      </trkpt>
      <trkpt lat="47.04169" lon="7.07608">
        <ele>436.7</ele>
        <time>2022-09-30T13:10:13Z</time>
      </trkpt>
      <trkpt lat="47.04172" lon="7.07613">
        <ele>436.7</ele>
        <time>2022-09-30T13:10:14Z</time>
      </trkpt>
      <trkpt lat="47.04175" lon="7.07618">
        <ele>436.7</ele>
        <time>2022-09-30T13:10:15Z</time>
      </trkpt>
      <trkpt lat="47.04179" lon="7.07623">
        <ele>436.7</ele>
        <time>2022-09-30T13:10:16Z</time>
      </trkpt>
      <trkpt lat="47.04182" lon="7.07627">
        <ele>436.7</ele>
        <time>2022-09-30T13:10:17Z</time>
      </trkpt>
      <trkpt lat="47.04185" lon="7.07632">
        <ele>436.7</ele>
        <time>2022-09-30T13:10:18Z</time>
      </trkpt>
      <trkpt lat="47.04188" lon="7.07637">
        <ele>436.7</ele>
        <time>2022-09-30T13:10:19Z</time>
      </trkpt>
      <trkpt lat="47.04192" lon="7.07642">
        <ele>436.7</ele>
        <time>2022-09-30T13:10:20Z</time>
      </trkpt>
      <trkpt lat="47.04195" lon="7.07648">
        <ele>436.7</ele>
        <time>2022-09-30T13:10:21Z</time>
      </trkpt>
      <trkpt lat="47.04198" lon="7.07653">
        <ele>436.7</ele>
        <time>2022-09-30T13:10:22Z</time>
      </trkpt>
      <trkpt lat="47.04201" lon="7.07658">
        <ele>436.7</ele>
        <time>2022-09-30T13:10:23Z</time>
      </trkpt>
      <trkpt lat="47.04203" lon="7.07663">
        <ele>436.7</ele>
        <time>2022-09-30T13:10:24Z</time>
      </trkpt>
      <trkpt lat="47.04206" lon="7.07667">
        <ele>436.7</ele>
        <time>2022-09-30T13:10:25Z</time>
      </trkpt>
      <trkpt lat="47.04208" lon="7.07672">
        <ele>436.8</ele>
        <time>2022-09-30T13:10:26Z</time>
      </trkpt>
      <trkpt lat="47.04211" lon="7.07677">
        <ele>436.8</ele>
        <time>2022-09-30T13:10:27Z</time>
      </trkpt>
      <trkpt lat="47.04213" lon="7.07683">
        <ele>436.8</ele>
        <time>2022-09-30T13:10:28Z</time>
      </trkpt>
      <trkpt lat="47.04215" lon="7.07688">
        <ele>436.8</ele>
        <time>2022-09-30T13:10:29Z</time>
      </trkpt>
      <trkpt lat="47.04218" lon="7.07695">
        <ele>436.7</ele>
        <time>2022-09-30T13:10:30Z</time>
      </trkpt>
      <trkpt lat="47.0422" lon="7.07701">
        <ele>436.7</ele>
        <time>2022-09-30T13:10:31Z</time>
      </trkpt>
      <trkpt lat="47.04223" lon="7.07706">
        <ele>436.7</ele>
        <time>2022-09-30T13:10:32Z</time>
      </trkpt>
      <trkpt lat="47.04225" lon="7.07713">
        <ele>436.6</ele>
        <time>2022-09-30T13:10:33Z</time>
      </trkpt>
      <trkpt lat="47.04227" lon="7.07719">
        <ele>436.6</ele>
        <time>2022-09-30T13:10:34Z</time>
      </trkpt>
      <trkpt lat="47.04229" lon="7.07726">
        <ele>436.5</ele>
        <time>2022-09-30T13:10:35Z</time>
      </trkpt>
      <trkpt lat="47.04231" lon="7.07732">
        <ele>436.5</ele>
        <time>2022-09-30T13:10:36Z</time>
      </trkpt>
      <trkpt lat="47.04232" lon="7.07739">
        <ele>436.5</ele>
        <time>2022-09-30T13:10:37Z</time>
      </trkpt>
      <trkpt lat="47.04234" lon="7.07745">
        <ele>436.4</ele>
        <time>2022-09-30T13:10:38Z</time>
      </trkpt>
      <trkpt lat="47.04236" lon="7.07751">
        <ele>436.4</ele>
        <time>2022-09-30T13:10:39Z</time>
      </trkpt>
      <trkpt lat="47.04237" lon="7.07758">
        <ele>436.3</ele>
        <time>2022-09-30T13:10:40Z</time>
      </trkpt>
      <trkpt lat="47.04238" lon="7.07765">
        <ele>436.3</ele>
        <time>2022-09-30T13:10:41Z</time>
      </trkpt>
      <trkpt lat="47.04239" lon="7.07773">
        <ele>436.2</ele>
        <time>2022-09-30T13:10:42Z</time>
      </trkpt>
      <trkpt lat="47.04241" lon="7.0778">
        <ele>436.2</ele>
        <time>2022-09-30T13:10:43Z</time>
      </trkpt>
      <trkpt lat="47.04241" lon="7.07786">
        <ele>436.1</ele>
        <time>2022-09-30T13:10:44Z</time>
      </trkpt>
      <trkpt lat="47.04242" lon="7.07793">
        <ele>436.1</ele>
        <time>2022-09-30T13:10:45Z</time>
      </trkpt>
      <trkpt lat="47.04243" lon="7.07801">
        <ele>436</ele>
        <time>2022-09-30T13:10:46Z</time>
      </trkpt>
      <trkpt lat="47.04244" lon="7.07808">
        <ele>436</ele>
        <time>2022-09-30T13:10:47Z</time>
      </trkpt>
      <trkpt lat="47.04245" lon="7.07815">
        <ele>435.9</ele>
        <time>2022-09-30T13:10:48Z</time>
      </trkpt>
      <trkpt lat="47.04246" lon="7.07823">
        <ele>435.9</ele>
        <time>2022-09-30T13:10:49Z</time>
      </trkpt>
      <trkpt lat="47.04246" lon="7.0783">
        <ele>435.9</ele>
        <time>2022-09-30T13:10:50Z</time>
      </trkpt>
      <trkpt lat="47.04247" lon="7.07838">
        <ele>435.8</ele>
        <time>2022-09-30T13:10:51Z</time>
      </trkpt>
      <trkpt lat="47.04248" lon="7.07845">
        <ele>435.8</ele>
        <time>2022-09-30T13:10:52Z</time>
      </trkpt>
      <trkpt lat="47.04248" lon="7.07852">
        <ele>435.8</ele>
        <time>2022-09-30T13:10:53Z</time>
      </trkpt>
      <trkpt lat="47.04249" lon="7.07859">
        <ele>435.8</ele>
        <time>2022-09-30T13:10:54Z</time>
      </trkpt>
      <trkpt lat="47.04249" lon="7.07867">
        <ele>435.8</ele>
        <time>2022-09-30T13:10:55Z</time>
      </trkpt>
      <trkpt lat="47.0425" lon="7.07875">
        <ele>435.8</ele>
        <time>2022-09-30T13:10:56Z</time>
      </trkpt>
      <trkpt lat="47.0425" lon="7.07882">
        <ele>435.8</ele>
        <time>2022-09-30T13:10:57Z</time>
      </trkpt>
      <trkpt lat="47.04251" lon="7.0789">
        <ele>435.8</ele>
        <time>2022-09-30T13:10:58Z</time>
      </trkpt>
      <trkpt lat="47.04252" lon="7.07897">
        <ele>435.8</ele>
        <time>2022-09-30T13:10:59Z</time>
      </trkpt>
      <trkpt lat="47.04252" lon="7.07904">
        <ele>435.9</ele>
        <time>2022-09-30T13:11:00Z</time>
      </trkpt>
      <trkpt lat="47.04252" lon="7.07912">
        <ele>435.9</ele>
        <time>2022-09-30T13:11:01Z</time>
      </trkpt>
      <trkpt lat="47.04253" lon="7.07919">
        <ele>436</ele>
        <time>2022-09-30T13:11:02Z</time>
      </trkpt>
      <trkpt lat="47.04254" lon="7.07925">
        <ele>436</ele>
        <time>2022-09-30T13:11:03Z</time>
      </trkpt>
      <trkpt lat="47.04255" lon="7.07932">
        <ele>436.1</ele>
        <time>2022-09-30T13:11:04Z</time>
      </trkpt>
      <trkpt lat="47.04256" lon="7.07938">
        <ele>436.2</ele>
        <time>2022-09-30T13:11:05Z</time>
      </trkpt>
      <trkpt lat="47.04256" lon="7.07945">
        <ele>436.2</ele>
        <time>2022-09-30T13:11:06Z</time>
      </trkpt>
      <trkpt lat="47.04257" lon="7.07952">
        <ele>436.3</ele>
        <time>2022-09-30T13:11:07Z</time>
      </trkpt>
      <trkpt lat="47.04258" lon="7.07958">
        <ele>436.3</ele>
        <time>2022-09-30T13:11:08Z</time>
      </trkpt>
      <trkpt lat="47.04259" lon="7.07964">
        <ele>436.4</ele>
        <time>2022-09-30T13:11:09Z</time>
      </trkpt>
      <trkpt lat="47.0426" lon="7.0797">
        <ele>436.4</ele>
        <time>2022-09-30T13:11:10Z</time>
      </trkpt>
      <trkpt lat="47.04261" lon="7.07977">
        <ele>436.5</ele>
        <time>2022-09-30T13:11:11Z</time>
      </trkpt>
      <trkpt lat="47.04262" lon="7.07983">
        <ele>436.6</ele>
        <time>2022-09-30T13:11:12Z</time>
      </trkpt>
      <trkpt lat="47.04263" lon="7.07989">
        <ele>436.7</ele>
        <time>2022-09-30T13:11:13Z</time>
      </trkpt>
      <trkpt lat="47.04264" lon="7.07995">
        <ele>436.7</ele>
        <time>2022-09-30T13:11:14Z</time>
      </trkpt>
      <trkpt lat="47.04266" lon="7.08001">
        <ele>436.8</ele>
        <time>2022-09-30T13:11:15Z</time>
      </trkpt>
      <trkpt lat="47.04267" lon="7.08007">
        <ele>436.9</ele>
        <time>2022-09-30T13:11:16Z</time>
      </trkpt>
      <trkpt lat="47.04269" lon="7.08012">
        <ele>436.9</ele>
        <time>2022-09-30T13:11:17Z</time>
      </trkpt>
      <trkpt lat="47.0427" lon="7.08018">
        <ele>437</ele>
        <time>2022-09-30T13:11:18Z</time>
      </trkpt>
      <trkpt lat="47.04272" lon="7.08024">
        <ele>437</ele>
        <time>2022-09-30T13:11:19Z</time>
      </trkpt>
      <trkpt lat="47.04273" lon="7.08029">
        <ele>437.1</ele>
        <time>2022-09-30T13:11:20Z</time>
      </trkpt>
      <trkpt lat="47.04275" lon="7.08035">
        <ele>437.1</ele>
        <time>2022-09-30T13:11:21Z</time>
      </trkpt>
      <trkpt lat="47.04277" lon="7.0804">
        <ele>437.2</ele>
        <time>2022-09-30T13:11:22Z</time>
      </trkpt>
      <trkpt lat="47.04278" lon="7.08047">
        <ele>437.2</ele>
        <time>2022-09-30T13:11:23Z</time>
      </trkpt>
      <trkpt lat="47.0428" lon="7.08052">
        <ele>437.2</ele>
        <time>2022-09-30T13:11:24Z</time>
      </trkpt>
      <trkpt lat="47.04282" lon="7.08058">
        <ele>437.2</ele>
        <time>2022-09-30T13:11:25Z</time>
      </trkpt>
      <trkpt lat="47.04284" lon="7.08064">
        <ele>437.2</ele>
        <time>2022-09-30T13:11:26Z</time>
      </trkpt>
      <trkpt lat="47.04286" lon="7.0807">
        <ele>437.2</ele>
        <time>2022-09-30T13:11:27Z</time>
      </trkpt>
      <trkpt lat="47.04288" lon="7.08076">
        <ele>437.2</ele>
        <time>2022-09-30T13:11:28Z</time>
      </trkpt>
      <trkpt lat="47.0429" lon="7.08082">
        <ele>437.2</ele>
        <time>2022-09-30T13:11:29Z</time>
      </trkpt>
      <trkpt lat="47.04292" lon="7.08088">
        <ele>437.1</ele>
        <time>2022-09-30T13:11:30Z</time>
      </trkpt>
      <trkpt lat="47.04294" lon="7.08094">
        <ele>437.1</ele>
        <time>2022-09-30T13:11:31Z</time>
      </trkpt>
      <trkpt lat="47.04296" lon="7.081">
        <ele>437.1</ele>
        <time>2022-09-30T13:11:32Z</time>
      </trkpt>
      <trkpt lat="47.04298" lon="7.08106">
        <ele>437</ele>
        <time>2022-09-30T13:11:33Z</time>
      </trkpt>
      <trkpt lat="47.043" lon="7.08113">
        <ele>437</ele>
        <time>2022-09-30T13:11:34Z</time>
      </trkpt>
      <trkpt lat="47.04302" lon="7.08118">
        <ele>436.9</ele>
        <time>2022-09-30T13:11:35Z</time>
      </trkpt>
      <trkpt lat="47.04304" lon="7.08125">
        <ele>436.9</ele>
        <time>2022-09-30T13:11:36Z</time>
      </trkpt>
      <trkpt lat="47.04306" lon="7.08131">
        <ele>436.8</ele>
        <time>2022-09-30T13:11:37Z</time>
      </trkpt>
      <trkpt lat="47.04308" lon="7.08137">
        <ele>436.8</ele>
        <time>2022-09-30T13:11:38Z</time>
      </trkpt>
      <trkpt lat="47.04309" lon="7.08144">
        <ele>436.8</ele>
        <time>2022-09-30T13:11:39Z</time>
      </trkpt>
      <trkpt lat="47.04312" lon="7.08152">
        <ele>436.7</ele>
        <time>2022-09-30T13:11:40Z</time>
      </trkpt>
      <trkpt lat="47.04314" lon="7.08158">
        <ele>436.7</ele>
        <time>2022-09-30T13:11:41Z</time>
      </trkpt>
      <trkpt lat="47.04317" lon="7.08165">
        <ele>436.6</ele>
        <time>2022-09-30T13:11:42Z</time>
      </trkpt>
      <trkpt lat="47.04319" lon="7.08172">
        <ele>436.6</ele>
        <time>2022-09-30T13:11:43Z</time>
      </trkpt>
      <trkpt lat="47.04321" lon="7.08178">
        <ele>436.6</ele>
        <time>2022-09-30T13:11:44Z</time>
      </trkpt>
      <trkpt lat="47.04323" lon="7.08185">
        <ele>436.5</ele>
        <time>2022-09-30T13:11:45Z</time>
      </trkpt>
      <trkpt lat="47.04326" lon="7.08191">
        <ele>436.5</ele>
        <time>2022-09-30T13:11:46Z</time>
      </trkpt>
      <trkpt lat="47.04327" lon="7.08198">
        <ele>436.5</ele>
        <time>2022-09-30T13:11:47Z</time>
      </trkpt>
      <trkpt lat="47.0433" lon="7.08205">
        <ele>436.5</ele>
        <time>2022-09-30T13:11:48Z</time>
      </trkpt>
      <trkpt lat="47.04332" lon="7.08212">
        <ele>436.5</ele>
        <time>2022-09-30T13:11:49Z</time>
      </trkpt>
      <trkpt lat="47.04334" lon="7.08218">
        <ele>436.5</ele>
        <time>2022-09-30T13:11:50Z</time>
      </trkpt>
      <trkpt lat="47.04336" lon="7.08225">
        <ele>436.5</ele>
        <time>2022-09-30T13:11:51Z</time>
      </trkpt>
      <trkpt lat="47.04338" lon="7.08231">
        <ele>436.5</ele>
        <time>2022-09-30T13:11:52Z</time>
      </trkpt>
      <trkpt lat="47.0434" lon="7.08239">
        <ele>436.5</ele>
        <time>2022-09-30T13:11:53Z</time>
      </trkpt>
      <trkpt lat="47.04342" lon="7.08244">
        <ele>436.6</ele>
        <time>2022-09-30T13:11:54Z</time>
      </trkpt>
      <trkpt lat="47.04342" lon="7.08251">
        <ele>436.6</ele>
        <time>2022-09-30T13:11:55Z</time>
      </trkpt>
      <trkpt lat="47.04344" lon="7.08258">
        <ele>436.6</ele>
        <time>2022-09-30T13:11:56Z</time>
      </trkpt>
      <trkpt lat="47.04346" lon="7.08264">
        <ele>436.6</ele>
        <time>2022-09-30T13:11:57Z</time>
      </trkpt>
      <trkpt lat="47.04347" lon="7.08271">
        <ele>436.7</ele>
        <time>2022-09-30T13:11:58Z</time>
      </trkpt>
      <trkpt lat="47.04349" lon="7.08278">
        <ele>436.7</ele>
        <time>2022-09-30T13:11:59Z</time>
      </trkpt>
      <trkpt lat="47.0435" lon="7.08285">
        <ele>436.7</ele>
        <time>2022-09-30T13:12:00Z</time>
      </trkpt>
      <trkpt lat="47.04352" lon="7.08292">
        <ele>436.7</ele>
        <time>2022-09-30T13:12:01Z</time>
      </trkpt>
      <trkpt lat="47.04353" lon="7.08298">
        <ele>436.8</ele>
        <time>2022-09-30T13:12:02Z</time>
      </trkpt>
      <trkpt lat="47.04354" lon="7.08305">
        <ele>436.8</ele>
        <time>2022-09-30T13:12:03Z</time>
      </trkpt>
      <trkpt lat="47.04356" lon="7.08311">
        <ele>436.8</ele>
        <time>2022-09-30T13:12:04Z</time>
      </trkpt>
      <trkpt lat="47.04358" lon="7.08317">
        <ele>436.9</ele>
        <time>2022-09-30T13:12:05Z</time>
      </trkpt>
      <trkpt lat="47.04358" lon="7.08324">
        <ele>436.9</ele>
        <time>2022-09-30T13:12:06Z</time>
      </trkpt>
      <trkpt lat="47.0436" lon="7.08329">
        <ele>437</ele>
        <time>2022-09-30T13:12:07Z</time>
      </trkpt>
      <trkpt lat="47.04361" lon="7.08335">
        <ele>437</ele>
        <time>2022-09-30T13:12:08Z</time>
      </trkpt>
      <trkpt lat="47.04362" lon="7.08341">
        <ele>437.1</ele>
        <time>2022-09-30T13:12:09Z</time>
      </trkpt>
      <trkpt lat="47.04363" lon="7.08347">
        <ele>437.1</ele>
        <time>2022-09-30T13:12:10Z</time>
      </trkpt>
      <trkpt lat="47.04365" lon="7.08352">
        <ele>437.2</ele>
        <time>2022-09-30T13:12:11Z</time>
      </trkpt>
      <trkpt lat="47.04366" lon="7.08358">
        <ele>437.2</ele>
        <time>2022-09-30T13:12:12Z</time>
      </trkpt>
      <trkpt lat="47.04367" lon="7.08363">
        <ele>437.3</ele>
        <time>2022-09-30T13:12:13Z</time>
      </trkpt>
      <trkpt lat="47.04369" lon="7.08369">
        <ele>437.3</ele>
        <time>2022-09-30T13:12:14Z</time>
      </trkpt>
      <trkpt lat="47.0437" lon="7.08375">
        <ele>437.4</ele>
        <time>2022-09-30T13:12:15Z</time>
      </trkpt>
      <trkpt lat="47.04371" lon="7.0838">
        <ele>437.5</ele>
        <time>2022-09-30T13:12:16Z</time>
      </trkpt>
      <trkpt lat="47.04373" lon="7.08386">
        <ele>437.5</ele>
        <time>2022-09-30T13:12:17Z</time>
      </trkpt>
      <trkpt lat="47.04373" lon="7.08391">
        <ele>437.6</ele>
        <time>2022-09-30T13:12:18Z</time>
      </trkpt>
      <trkpt lat="47.04374" lon="7.08397">
        <ele>437.7</ele>
        <time>2022-09-30T13:12:19Z</time>
      </trkpt>
      <trkpt lat="47.04375" lon="7.08403">
        <ele>437.7</ele>
        <time>2022-09-30T13:12:20Z</time>
      </trkpt>
      <trkpt lat="47.04375" lon="7.08408">
        <ele>437.8</ele>
        <time>2022-09-30T13:12:21Z</time>
      </trkpt>
      <trkpt lat="47.04377" lon="7.08413">
        <ele>437.9</ele>
        <time>2022-09-30T13:12:22Z</time>
      </trkpt>
      <trkpt lat="47.04379" lon="7.08418">
        <ele>437.9</ele>
        <time>2022-09-30T13:12:23Z</time>
      </trkpt>
      <trkpt lat="47.0438" lon="7.08423">
        <ele>438</ele>
        <time>2022-09-30T13:12:24Z</time>
      </trkpt>
      <trkpt lat="47.04382" lon="7.08428">
        <ele>438</ele>
        <time>2022-09-30T13:12:25Z</time>
      </trkpt>
      <trkpt lat="47.04382" lon="7.08434">
        <ele>438.1</ele>
        <time>2022-09-30T13:12:26Z</time>
      </trkpt>
      <trkpt lat="47.04383" lon="7.08439">
        <ele>438.1</ele>
        <time>2022-09-30T13:12:27Z</time>
      </trkpt>
      <trkpt lat="47.04384" lon="7.08444">
        <ele>438.1</ele>
        <time>2022-09-30T13:12:28Z</time>
      </trkpt>
      <trkpt lat="47.04385" lon="7.0845">
        <ele>438.2</ele>
        <time>2022-09-30T13:12:29Z</time>
      </trkpt>
      <trkpt lat="47.04386" lon="7.08454">
        <ele>438.2</ele>
        <time>2022-09-30T13:12:30Z</time>
      </trkpt>
      <trkpt lat="47.04387" lon="7.08459">
        <ele>438.3</ele>
        <time>2022-09-30T13:12:31Z</time>
      </trkpt>
      <trkpt lat="47.04389" lon="7.08464">
        <ele>438.3</ele>
        <time>2022-09-30T13:12:32Z</time>
      </trkpt>
      <trkpt lat="47.04389" lon="7.0847">
        <ele>438.3</ele>
        <time>2022-09-30T13:12:33Z</time>
      </trkpt>
      <trkpt lat="47.0439" lon="7.08475">
        <ele>438.4</ele>
        <time>2022-09-30T13:12:34Z</time>
      </trkpt>
      <trkpt lat="47.04391" lon="7.0848">
        <ele>438.4</ele>
        <time>2022-09-30T13:12:35Z</time>
      </trkpt>
      <trkpt lat="47.04392" lon="7.08485">
        <ele>438.4</ele>
        <time>2022-09-30T13:12:36Z</time>
      </trkpt>
      <trkpt lat="47.04393" lon="7.08491">
        <ele>438.4</ele>
        <time>2022-09-30T13:12:37Z</time>
      </trkpt>
      <trkpt lat="47.04394" lon="7.08497">
        <ele>438.4</ele>
        <time>2022-09-30T13:12:38Z</time>
      </trkpt>
      <trkpt lat="47.04395" lon="7.08503">
        <ele>438.4</ele>
        <time>2022-09-30T13:12:39Z</time>
      </trkpt>
      <trkpt lat="47.04396" lon="7.08508">
        <ele>438.5</ele>
        <time>2022-09-30T13:12:40Z</time>
      </trkpt>
      <trkpt lat="47.04397" lon="7.08514">
        <ele>438.5</ele>
        <time>2022-09-30T13:12:41Z</time>
      </trkpt>
      <trkpt lat="47.04398" lon="7.0852">
        <ele>438.5</ele>
        <time>2022-09-30T13:12:42Z</time>
      </trkpt>
      <trkpt lat="47.04399" lon="7.08526">
        <ele>438.5</ele>
        <time>2022-09-30T13:12:43Z</time>
      </trkpt>
      <trkpt lat="47.044" lon="7.08532">
        <ele>438.5</ele>
        <time>2022-09-30T13:12:44Z</time>
      </trkpt>
      <trkpt lat="47.04401" lon="7.08539">
        <ele>438.5</ele>
        <time>2022-09-30T13:12:45Z</time>
      </trkpt>
      <trkpt lat="47.04402" lon="7.08545">
        <ele>438.5</ele>
        <time>2022-09-30T13:12:46Z</time>
      </trkpt>
      <trkpt lat="47.04403" lon="7.08551">
        <ele>438.5</ele>
        <time>2022-09-30T13:12:47Z</time>
      </trkpt>
      <trkpt lat="47.04404" lon="7.08557">
        <ele>438.5</ele>
        <time>2022-09-30T13:12:48Z</time>
      </trkpt>
      <trkpt lat="47.04405" lon="7.08563">
        <ele>438.5</ele>
        <time>2022-09-30T13:12:49Z</time>
      </trkpt>
      <trkpt lat="47.04406" lon="7.08569">
        <ele>438.5</ele>
        <time>2022-09-30T13:12:50Z</time>
      </trkpt>
      <trkpt lat="47.04407" lon="7.08576">
        <ele>438.5</ele>
        <time>2022-09-30T13:12:51Z</time>
      </trkpt>
      <trkpt lat="47.04409" lon="7.08582">
        <ele>438.5</ele>
        <time>2022-09-30T13:12:52Z</time>
      </trkpt>
      <trkpt lat="47.04409" lon="7.08588">
        <ele>438.5</ele>
        <time>2022-09-30T13:12:53Z</time>
      </trkpt>
      <trkpt lat="47.04409" lon="7.08594">
        <ele>438.4</ele>
        <time>2022-09-30T13:12:54Z</time>
      </trkpt>
      <trkpt lat="47.04412" lon="7.08602">
        <ele>438.4</ele>
        <time>2022-09-30T13:12:55Z</time>
      </trkpt>
      <trkpt lat="47.04413" lon="7.08609">
        <ele>438.4</ele>
        <time>2022-09-30T13:12:56Z</time>
      </trkpt>
      <trkpt lat="47.04414" lon="7.08617">
        <ele>438.3</ele>
        <time>2022-09-30T13:12:57Z</time>
      </trkpt>
      <trkpt lat="47.04416" lon="7.08623">
        <ele>438.3</ele>
        <time>2022-09-30T13:12:58Z</time>
      </trkpt>
      <trkpt lat="47.04417" lon="7.08631">
        <ele>438.3</ele>
        <time>2022-09-30T13:12:59Z</time>
      </trkpt>
      <trkpt lat="47.04418" lon="7.08638">
        <ele>438.2</ele>
        <time>2022-09-30T13:13:00Z</time>
      </trkpt>
      <trkpt lat="47.04419" lon="7.08646">
        <ele>438.2</ele>
        <time>2022-09-30T13:13:01Z</time>
      </trkpt>
      <trkpt lat="47.04421" lon="7.08653">
        <ele>438.2</ele>
        <time>2022-09-30T13:13:02Z</time>
      </trkpt>
      <trkpt lat="47.04422" lon="7.0866">
        <ele>438.1</ele>
        <time>2022-09-30T13:13:03Z</time>
      </trkpt>
      <trkpt lat="47.04423" lon="7.08667">
        <ele>438.1</ele>
        <time>2022-09-30T13:13:04Z</time>
      </trkpt>
      <trkpt lat="47.04424" lon="7.08674">
        <ele>438.1</ele>
        <time>2022-09-30T13:13:05Z</time>
      </trkpt>
      <trkpt lat="47.04425" lon="7.08681">
        <ele>438</ele>
        <time>2022-09-30T13:13:06Z</time>
      </trkpt>
      <trkpt lat="47.04426" lon="7.08688">
        <ele>438</ele>
        <time>2022-09-30T13:13:07Z</time>
      </trkpt>
      <trkpt lat="47.04428" lon="7.08694">
        <ele>437.9</ele>
        <time>2022-09-30T13:13:08Z</time>
      </trkpt>
      <trkpt lat="47.04429" lon="7.08701">
        <ele>437.9</ele>
        <time>2022-09-30T13:13:09Z</time>
      </trkpt>
      <trkpt lat="47.04429" lon="7.08709">
        <ele>437.8</ele>
        <time>2022-09-30T13:13:10Z</time>
      </trkpt>
      <trkpt lat="47.04429" lon="7.08716">
        <ele>437.8</ele>
        <time>2022-09-30T13:13:11Z</time>
      </trkpt>
      <trkpt lat="47.0443" lon="7.08724">
        <ele>437.7</ele>
        <time>2022-09-30T13:13:12Z</time>
      </trkpt>
      <trkpt lat="47.04431" lon="7.08731">
        <ele>437.7</ele>
        <time>2022-09-30T13:13:13Z</time>
      </trkpt>
      <trkpt lat="47.04431" lon="7.08738">
        <ele>437.6</ele>
        <time>2022-09-30T13:13:14Z</time>
      </trkpt>
      <trkpt lat="47.04432" lon="7.08746">
        <ele>437.6</ele>
        <time>2022-09-30T13:13:15Z</time>
      </trkpt>
      <trkpt lat="47.04432" lon="7.08753">
        <ele>437.5</ele>
        <time>2022-09-30T13:13:16Z</time>
      </trkpt>
      <trkpt lat="47.04432" lon="7.0876">
        <ele>437.5</ele>
        <time>2022-09-30T13:13:17Z</time>
      </trkpt>
      <trkpt lat="47.04432" lon="7.08767">
        <ele>437.5</ele>
        <time>2022-09-30T13:13:18Z</time>
      </trkpt>
      <trkpt lat="47.04432" lon="7.08774">
        <ele>437.5</ele>
        <time>2022-09-30T13:13:19Z</time>
      </trkpt>
      <trkpt lat="47.04433" lon="7.08782">
        <ele>437.4</ele>
        <time>2022-09-30T13:13:20Z</time>
      </trkpt>
      <trkpt lat="47.04431" lon="7.0879">
        <ele>437.4</ele>
        <time>2022-09-30T13:13:21Z</time>
      </trkpt>
      <trkpt lat="47.04432" lon="7.08798">
        <ele>437.3</ele>
        <time>2022-09-30T13:13:22Z</time>
      </trkpt>
      <trkpt lat="47.04431" lon="7.08804">
        <ele>437.3</ele>
        <time>2022-09-30T13:13:23Z</time>
      </trkpt>
      <trkpt lat="47.04433" lon="7.08811">
        <ele>437.3</ele>
        <time>2022-09-30T13:13:24Z</time>
      </trkpt>
      <trkpt lat="47.04431" lon="7.08818">
        <ele>437.3</ele>
        <time>2022-09-30T13:13:25Z</time>
      </trkpt>
      <trkpt lat="47.0443" lon="7.08826">
        <ele>437.3</ele>
        <time>2022-09-30T13:13:26Z</time>
      </trkpt>
      <trkpt lat="47.0443" lon="7.08833">
        <ele>437.3</ele>
        <time>2022-09-30T13:13:27Z</time>
      </trkpt>
      <trkpt lat="47.0443" lon="7.0884">
        <ele>437.3</ele>
        <time>2022-09-30T13:13:28Z</time>
      </trkpt>
      <trkpt lat="47.04429" lon="7.08847">
        <ele>437.3</ele>
        <time>2022-09-30T13:13:29Z</time>
      </trkpt>
      <trkpt lat="47.04428" lon="7.08854">
        <ele>437.3</ele>
        <time>2022-09-30T13:13:30Z</time>
      </trkpt>
      <trkpt lat="47.04428" lon="7.0886">
        <ele>437.3</ele>
        <time>2022-09-30T13:13:31Z</time>
      </trkpt>
      <trkpt lat="47.04427" lon="7.08867">
        <ele>437.3</ele>
        <time>2022-09-30T13:13:32Z</time>
      </trkpt>
      <trkpt lat="47.04426" lon="7.08876">
        <ele>437.3</ele>
        <time>2022-09-30T13:13:33Z</time>
      </trkpt>
      <trkpt lat="47.04425" lon="7.08883">
        <ele>437.3</ele>
        <time>2022-09-30T13:13:34Z</time>
      </trkpt>
      <trkpt lat="47.04425" lon="7.08888">
        <ele>437.3</ele>
        <time>2022-09-30T13:13:35Z</time>
      </trkpt>
      <trkpt lat="47.04424" lon="7.08896">
        <ele>437.3</ele>
        <time>2022-09-30T13:13:36Z</time>
      </trkpt>
      <trkpt lat="47.04422" lon="7.08903">
        <ele>437.3</ele>
        <time>2022-09-30T13:13:37Z</time>
      </trkpt>
      <trkpt lat="47.04422" lon="7.0891">
        <ele>437.3</ele>
        <time>2022-09-30T13:13:38Z</time>
      </trkpt>
      <trkpt lat="47.04422" lon="7.08917">
        <ele>437.3</ele>
        <time>2022-09-30T13:13:39Z</time>
      </trkpt>
      <trkpt lat="47.04421" lon="7.08923">
        <ele>437.3</ele>
        <time>2022-09-30T13:13:40Z</time>
      </trkpt>
      <trkpt lat="47.0442" lon="7.0893">
        <ele>437.4</ele>
        <time>2022-09-30T13:13:41Z</time>
      </trkpt>
      <trkpt lat="47.0442" lon="7.08937">
        <ele>437.4</ele>
        <time>2022-09-30T13:13:42Z</time>
      </trkpt>
      <trkpt lat="47.04418" lon="7.08943">
        <ele>437.4</ele>
        <time>2022-09-30T13:13:43Z</time>
      </trkpt>
      <trkpt lat="47.04417" lon="7.08949">
        <ele>437.4</ele>
        <time>2022-09-30T13:13:44Z</time>
      </trkpt>
      <trkpt lat="47.04416" lon="7.08956">
        <ele>437.4</ele>
        <time>2022-09-30T13:13:45Z</time>
      </trkpt>
      <trkpt lat="47.04415" lon="7.08963">
        <ele>437.5</ele>
        <time>2022-09-30T13:13:46Z</time>
      </trkpt>
      <trkpt lat="47.04415" lon="7.08969">
        <ele>437.5</ele>
        <time>2022-09-30T13:13:47Z</time>
      </trkpt>
      <trkpt lat="47.04414" lon="7.08974">
        <ele>437.5</ele>
        <time>2022-09-30T13:13:48Z</time>
      </trkpt>
      <trkpt lat="47.04413" lon="7.08981">
        <ele>437.5</ele>
        <time>2022-09-30T13:13:49Z</time>
      </trkpt>
      <trkpt lat="47.04412" lon="7.08987">
        <ele>437.5</ele>
        <time>2022-09-30T13:13:50Z</time>
      </trkpt>
      <trkpt lat="47.04412" lon="7.08993">
        <ele>437.5</ele>
        <time>2022-09-30T13:13:51Z</time>
      </trkpt>
      <trkpt lat="47.04411" lon="7.08999">
        <ele>437.5</ele>
        <time>2022-09-30T13:13:52Z</time>
      </trkpt>
      <trkpt lat="47.0441" lon="7.09005">
        <ele>437.6</ele>
        <time>2022-09-30T13:13:53Z</time>
      </trkpt>
      <trkpt lat="47.0441" lon="7.09011">
        <ele>437.6</ele>
        <time>2022-09-30T13:13:54Z</time>
      </trkpt>
      <trkpt lat="47.04409" lon="7.09017">
        <ele>437.6</ele>
        <time>2022-09-30T13:13:55Z</time>
      </trkpt>
      <trkpt lat="47.04408" lon="7.09023">
        <ele>437.6</ele>
        <time>2022-09-30T13:13:56Z</time>
      </trkpt>
      <trkpt lat="47.04408" lon="7.0903">
        <ele>437.6</ele>
        <time>2022-09-30T13:13:57Z</time>
      </trkpt>
      <trkpt lat="47.04407" lon="7.09036">
        <ele>437.6</ele>
        <time>2022-09-30T13:13:58Z</time>
      </trkpt>
      <trkpt lat="47.04407" lon="7.09042">
        <ele>437.6</ele>
        <time>2022-09-30T13:13:59Z</time>
      </trkpt>
      <trkpt lat="47.04407" lon="7.09054">
        <ele>437.6</ele>
        <time>2022-09-30T13:14:00Z</time>
      </trkpt>
      <trkpt lat="47.04406" lon="7.09061">
        <ele>437.6</ele>
        <time>2022-09-30T13:14:01Z</time>
      </trkpt>
      <trkpt lat="47.04407" lon="7.09067">
        <ele>437.6</ele>
        <time>2022-09-30T13:14:02Z</time>
      </trkpt>
      <trkpt lat="47.04407" lon="7.09073">
        <ele>437.6</ele>
        <time>2022-09-30T13:14:03Z</time>
      </trkpt>
      <trkpt lat="47.04407" lon="7.09079">
        <ele>437.6</ele>
        <time>2022-09-30T13:14:04Z</time>
      </trkpt>
      <trkpt lat="47.04408" lon="7.09085">
        <ele>437.6</ele>
        <time>2022-09-30T13:14:05Z</time>
      </trkpt>
      <trkpt lat="47.04408" lon="7.09092">
        <ele>437.6</ele>
        <time>2022-09-30T13:14:06Z</time>
      </trkpt>
      <trkpt lat="47.04408" lon="7.09098">
        <ele>437.6</ele>
        <time>2022-09-30T13:14:07Z</time>
      </trkpt>
      <trkpt lat="47.04408" lon="7.09103">
        <ele>437.6</ele>
        <time>2022-09-30T13:14:08Z</time>
      </trkpt>
      <trkpt lat="47.04408" lon="7.0911">
        <ele>437.6</ele>
        <time>2022-09-30T13:14:09Z</time>
      </trkpt>
      <trkpt lat="47.0441" lon="7.09117">
        <ele>437.5</ele>
        <time>2022-09-30T13:14:10Z</time>
      </trkpt>
      <trkpt lat="47.04411" lon="7.09122">
        <ele>437.5</ele>
        <time>2022-09-30T13:14:11Z</time>
      </trkpt>
      <trkpt lat="47.04411" lon="7.0913">
        <ele>437.5</ele>
        <time>2022-09-30T13:14:12Z</time>
      </trkpt>
      <trkpt lat="47.04413" lon="7.09136">
        <ele>437.5</ele>
        <time>2022-09-30T13:14:13Z</time>
      </trkpt>
      <trkpt lat="47.04414" lon="7.09143">
        <ele>437.5</ele>
        <time>2022-09-30T13:14:14Z</time>
      </trkpt>
      <trkpt lat="47.04415" lon="7.09149">
        <ele>437.5</ele>
        <time>2022-09-30T13:14:15Z</time>
      </trkpt>
      <trkpt lat="47.04416" lon="7.09155">
        <ele>437.5</ele>
        <time>2022-09-30T13:14:16Z</time>
      </trkpt>
      <trkpt lat="47.04417" lon="7.09163">
        <ele>437.4</ele>
        <time>2022-09-30T13:14:17Z</time>
      </trkpt>
      <trkpt lat="47.04418" lon="7.09167">
        <ele>437.4</ele>
        <time>2022-09-30T13:14:18Z</time>
      </trkpt>
      <trkpt lat="47.04418" lon="7.09174">
        <ele>437.4</ele>
        <time>2022-09-30T13:14:19Z</time>
      </trkpt>
      <trkpt lat="47.0442" lon="7.09179">
        <ele>437.4</ele>
        <time>2022-09-30T13:14:20Z</time>
      </trkpt>
      <trkpt lat="47.04423" lon="7.09185">
        <ele>437.3</ele>
        <time>2022-09-30T13:14:21Z</time>
      </trkpt>
      <trkpt lat="47.04425" lon="7.09189">
        <ele>437.3</ele>
        <time>2022-09-30T13:14:22Z</time>
      </trkpt>
      <trkpt lat="47.04425" lon="7.09196">
        <ele>437.3</ele>
        <time>2022-09-30T13:14:23Z</time>
      </trkpt>
      <trkpt lat="47.04428" lon="7.09202">
        <ele>437.3</ele>
        <time>2022-09-30T13:14:24Z</time>
      </trkpt>
      <trkpt lat="47.04428" lon="7.09208">
        <ele>437.2</ele>
        <time>2022-09-30T13:14:25Z</time>
      </trkpt>
      <trkpt lat="47.04431" lon="7.09214">
        <ele>437.2</ele>
        <time>2022-09-30T13:14:26Z</time>
      </trkpt>
      <trkpt lat="47.04432" lon="7.09218">
        <ele>437.2</ele>
        <time>2022-09-30T13:14:27Z</time>
      </trkpt>
      <trkpt lat="47.04434" lon="7.09224">
        <ele>437.2</ele>
        <time>2022-09-30T13:14:28Z</time>
      </trkpt>
      <trkpt lat="47.04434" lon="7.0923">
        <ele>437.1</ele>
        <time>2022-09-30T13:14:29Z</time>
      </trkpt>
      <trkpt lat="47.04435" lon="7.09236">
        <ele>437.1</ele>
        <time>2022-09-30T13:14:30Z</time>
      </trkpt>
      <trkpt lat="47.04436" lon="7.09242">
        <ele>437.1</ele>
        <time>2022-09-30T13:14:31Z</time>
      </trkpt>
      <trkpt lat="47.04436" lon="7.09248">
        <ele>437.1</ele>
        <time>2022-09-30T13:14:32Z</time>
      </trkpt>
      <trkpt lat="47.04437" lon="7.09255">
        <ele>437</ele>
        <time>2022-09-30T13:14:33Z</time>
      </trkpt>
      <trkpt lat="47.04439" lon="7.09261">
        <ele>437</ele>
        <time>2022-09-30T13:14:34Z</time>
      </trkpt>
      <trkpt lat="47.0444" lon="7.09265">
        <ele>437</ele>
        <time>2022-09-30T13:14:35Z</time>
      </trkpt>
      <trkpt lat="47.04444" lon="7.09269">
        <ele>436.9</ele>
        <time>2022-09-30T13:14:36Z</time>
      </trkpt>
      <trkpt lat="47.04446" lon="7.09275">
        <ele>436.9</ele>
        <time>2022-09-30T13:14:37Z</time>
      </trkpt>
      <trkpt lat="47.0445" lon="7.09278">
        <ele>436.9</ele>
        <time>2022-09-30T13:14:38Z</time>
      </trkpt>
      <trkpt lat="47.04451" lon="7.09285">
        <ele>436.8</ele>
        <time>2022-09-30T13:14:39Z</time>
      </trkpt>
      <trkpt lat="47.04455" lon="7.0929">
        <ele>436.8</ele>
        <time>2022-09-30T13:14:40Z</time>
      </trkpt>
      <trkpt lat="47.04458" lon="7.09297">
        <ele>436.7</ele>
        <time>2022-09-30T13:14:41Z</time>
      </trkpt>
      <trkpt lat="47.0446" lon="7.09303">
        <ele>436.7</ele>
        <time>2022-09-30T13:14:42Z</time>
      </trkpt>
      <trkpt lat="47.04463" lon="7.09309">
        <ele>436.7</ele>
        <time>2022-09-30T13:14:43Z</time>
      </trkpt>
      <trkpt lat="47.04467" lon="7.09315">
        <ele>436.6</ele>
        <time>2022-09-30T13:14:44Z</time>
      </trkpt>
      <trkpt lat="47.0447" lon="7.0932">
        <ele>436.6</ele>
        <time>2022-09-30T13:14:45Z</time>
      </trkpt>
      <trkpt lat="47.04471" lon="7.09327">
        <ele>436.6</ele>
        <time>2022-09-30T13:14:46Z</time>
      </trkpt>
      <trkpt lat="47.04476" lon="7.09334">
        <ele>436.5</ele>
        <time>2022-09-30T13:14:47Z</time>
      </trkpt>
      <trkpt lat="47.04479" lon="7.09339">
        <ele>436.5</ele>
        <time>2022-09-30T13:14:48Z</time>
      </trkpt>
      <trkpt lat="47.04482" lon="7.09345">
        <ele>436.4</ele>
        <time>2022-09-30T13:14:49Z</time>
      </trkpt>
      <trkpt lat="47.04486" lon="7.0935">
        <ele>436.4</ele>
        <time>2022-09-30T13:14:50Z</time>
      </trkpt>
      <trkpt lat="47.04489" lon="7.09358">
        <ele>436.3</ele>
        <time>2022-09-30T13:14:51Z</time>
      </trkpt>
      <trkpt lat="47.04493" lon="7.09365">
        <ele>436.3</ele>
        <time>2022-09-30T13:14:52Z</time>
      </trkpt>
      <trkpt lat="47.04496" lon="7.09373">
        <ele>436.3</ele>
        <time>2022-09-30T13:14:53Z</time>
      </trkpt>
      <trkpt lat="47.04499" lon="7.09379">
        <ele>436.2</ele>
        <time>2022-09-30T13:14:54Z</time>
      </trkpt>
      <trkpt lat="47.04502" lon="7.09387">
        <ele>436.2</ele>
        <time>2022-09-30T13:14:55Z</time>
      </trkpt>
      <trkpt lat="47.04506" lon="7.09392">
        <ele>436.1</ele>
        <time>2022-09-30T13:14:56Z</time>
      </trkpt>
      <trkpt lat="47.04508" lon="7.09401">
        <ele>436.1</ele>
        <time>2022-09-30T13:14:57Z</time>
      </trkpt>
      <trkpt lat="47.04511" lon="7.0941">
        <ele>436.1</ele>
        <time>2022-09-30T13:14:58Z</time>
      </trkpt>
      <trkpt lat="47.04514" lon="7.09417">
        <ele>436</ele>
        <time>2022-09-30T13:14:59Z</time>
      </trkpt>
      <trkpt lat="47.04516" lon="7.09424">
        <ele>436</ele>
        <time>2022-09-30T13:15:00Z</time>
      </trkpt>
      <trkpt lat="47.04518" lon="7.09433">
        <ele>435.9</ele>
        <time>2022-09-30T13:15:01Z</time>
      </trkpt>
      <trkpt lat="47.04521" lon="7.09441">
        <ele>435.9</ele>
        <time>2022-09-30T13:15:02Z</time>
      </trkpt>
      <trkpt lat="47.04522" lon="7.09449">
        <ele>435.9</ele>
        <time>2022-09-30T13:15:03Z</time>
      </trkpt>
      <trkpt lat="47.04524" lon="7.09457">
        <ele>435.9</ele>
        <time>2022-09-30T13:15:04Z</time>
      </trkpt>
      <trkpt lat="47.04525" lon="7.09466">
        <ele>435.9</ele>
        <time>2022-09-30T13:15:05Z</time>
      </trkpt>
      <trkpt lat="47.04528" lon="7.09473">
        <ele>435.9</ele>
        <time>2022-09-30T13:15:06Z</time>
      </trkpt>
      <trkpt lat="47.04529" lon="7.09482">
        <ele>435.9</ele>
        <time>2022-09-30T13:15:07Z</time>
      </trkpt>
      <trkpt lat="47.0453" lon="7.09491">
        <ele>435.9</ele>
        <time>2022-09-30T13:15:08Z</time>
      </trkpt>
      <trkpt lat="47.04532" lon="7.095">
        <ele>435.9</ele>
        <time>2022-09-30T13:15:09Z</time>
      </trkpt>
      <trkpt lat="47.04533" lon="7.09508">
        <ele>435.9</ele>
        <time>2022-09-30T13:15:10Z</time>
      </trkpt>
      <trkpt lat="47.04534" lon="7.09517">
        <ele>435.9</ele>
        <time>2022-09-30T13:15:11Z</time>
      </trkpt>
      <trkpt lat="47.04535" lon="7.09526">
        <ele>435.9</ele>
        <time>2022-09-30T13:15:12Z</time>
      </trkpt>
      <trkpt lat="47.04535" lon="7.09534">
        <ele>435.9</ele>
        <time>2022-09-30T13:15:13Z</time>
      </trkpt>
      <trkpt lat="47.04536" lon="7.09542">
        <ele>435.9</ele>
        <time>2022-09-30T13:15:14Z</time>
      </trkpt>
      <trkpt lat="47.04535" lon="7.0955">
        <ele>435.9</ele>
        <time>2022-09-30T13:15:15Z</time>
      </trkpt>
      <trkpt lat="47.04534" lon="7.09559">
        <ele>435.9</ele>
        <time>2022-09-30T13:15:16Z</time>
      </trkpt>
      <trkpt lat="47.04533" lon="7.09566">
        <ele>435.9</ele>
        <time>2022-09-30T13:15:17Z</time>
      </trkpt>
      <trkpt lat="47.04533" lon="7.09574">
        <ele>435.9</ele>
        <time>2022-09-30T13:15:18Z</time>
      </trkpt>
      <trkpt lat="47.04532" lon="7.09582">
        <ele>435.9</ele>
        <time>2022-09-30T13:15:19Z</time>
      </trkpt>
      <trkpt lat="47.04531" lon="7.0959">
        <ele>436</ele>
        <time>2022-09-30T13:15:20Z</time>
      </trkpt>
      <trkpt lat="47.0453" lon="7.09598">
        <ele>436</ele>
        <time>2022-09-30T13:15:21Z</time>
      </trkpt>
      <trkpt lat="47.04529" lon="7.09607">
        <ele>436</ele>
        <time>2022-09-30T13:15:22Z</time>
      </trkpt>
      <trkpt lat="47.04526" lon="7.09614">
        <ele>436</ele>
        <time>2022-09-30T13:15:23Z</time>
      </trkpt>
      <trkpt lat="47.04525" lon="7.09621">
        <ele>436</ele>
        <time>2022-09-30T13:15:24Z</time>
      </trkpt>
      <trkpt lat="47.04523" lon="7.09629">
        <ele>436</ele>
        <time>2022-09-30T13:15:25Z</time>
      </trkpt>
      <trkpt lat="47.04521" lon="7.09636">
        <ele>436</ele>
        <time>2022-09-30T13:15:26Z</time>
      </trkpt>
      <trkpt lat="47.04519" lon="7.09644">
        <ele>436</ele>
        <time>2022-09-30T13:15:27Z</time>
      </trkpt>
      <trkpt lat="47.04515" lon="7.09651">
        <ele>436</ele>
        <time>2022-09-30T13:15:28Z</time>
      </trkpt>
      <trkpt lat="47.04511" lon="7.09656">
        <ele>436</ele>
        <time>2022-09-30T13:15:29Z</time>
      </trkpt>
      <trkpt lat="47.04509" lon="7.09663">
        <ele>436</ele>
        <time>2022-09-30T13:15:30Z</time>
      </trkpt>
      <trkpt lat="47.04506" lon="7.09668">
        <ele>436</ele>
        <time>2022-09-30T13:15:31Z</time>
      </trkpt>
      <trkpt lat="47.04501" lon="7.09673">
        <ele>436</ele>
        <time>2022-09-30T13:15:32Z</time>
      </trkpt>
      <trkpt lat="47.04498" lon="7.09679">
        <ele>436</ele>
        <time>2022-09-30T13:15:33Z</time>
      </trkpt>
      <trkpt lat="47.04494" lon="7.09683">
        <ele>436</ele>
        <time>2022-09-30T13:15:34Z</time>
      </trkpt>
      <trkpt lat="47.04489" lon="7.09688">
        <ele>436</ele>
        <time>2022-09-30T13:15:35Z</time>
      </trkpt>
      <trkpt lat="47.04484" lon="7.09691">
        <ele>436</ele>
        <time>2022-09-30T13:15:36Z</time>
      </trkpt>
      <trkpt lat="47.0448" lon="7.09691">
        <ele>436</ele>
        <time>2022-09-30T13:15:37Z</time>
      </trkpt>
      <trkpt lat="47.04476" lon="7.09692">
        <ele>435.9</ele>
        <time>2022-09-30T13:15:38Z</time>
      </trkpt>
      <trkpt lat="47.04472" lon="7.09693">
        <ele>435.9</ele>
        <time>2022-09-30T13:15:39Z</time>
      </trkpt>
      <trkpt lat="47.04468" lon="7.09695">
        <ele>435.9</ele>
        <time>2022-09-30T13:15:40Z</time>
      </trkpt>
      <trkpt lat="47.04465" lon="7.09696">
        <ele>435.9</ele>
        <time>2022-09-30T13:15:41Z</time>
      </trkpt>
      <trkpt lat="47.0446" lon="7.09696">
        <ele>435.9</ele>
        <time>2022-09-30T13:15:42Z</time>
      </trkpt>
      <trkpt lat="47.04456" lon="7.09695">
        <ele>435.9</ele>
        <time>2022-09-30T13:15:43Z</time>
      </trkpt>
      <trkpt lat="47.04451" lon="7.09696">
        <ele>435.9</ele>
        <time>2022-09-30T13:15:44Z</time>
      </trkpt>
      <trkpt lat="47.04447" lon="7.09695">
        <ele>435.9</ele>
        <time>2022-09-30T13:15:46Z</time>
      </trkpt>
      <trkpt lat="47.04444" lon="7.09694">
        <ele>435.9</ele>
        <time>2022-09-30T13:15:47Z</time>
      </trkpt>
      <trkpt lat="47.0444" lon="7.09692">
        <ele>435.8</ele>
        <time>2022-09-30T13:15:48Z</time>
      </trkpt>
      <trkpt lat="47.04436" lon="7.09691">
        <ele>435.8</ele>
        <time>2022-09-30T13:15:49Z</time>
      </trkpt>
      <trkpt lat="47.04432" lon="7.0969">
        <ele>435.8</ele>
        <time>2022-09-30T13:15:50Z</time>
      </trkpt>
      <trkpt lat="47.04428" lon="7.09688">
        <ele>435.8</ele>
        <time>2022-09-30T13:15:51Z</time>
      </trkpt>
      <trkpt lat="47.04423" lon="7.09687">
        <ele>435.8</ele>
        <time>2022-09-30T13:15:52Z</time>
      </trkpt>
      <trkpt lat="47.04418" lon="7.09686">
        <ele>435.8</ele>
        <time>2022-09-30T13:15:53Z</time>
      </trkpt>
      <trkpt lat="47.04414" lon="7.09685">
        <ele>435.8</ele>
        <time>2022-09-30T13:15:54Z</time>
      </trkpt>
      <trkpt lat="47.0441" lon="7.09683">
        <ele>435.8</ele>
        <time>2022-09-30T13:15:55Z</time>
      </trkpt>
      <trkpt lat="47.04405" lon="7.09682">
        <ele>435.8</ele>
        <time>2022-09-30T13:15:56Z</time>
      </trkpt>
      <trkpt lat="47.04401" lon="7.09681">
        <ele>435.8</ele>
        <time>2022-09-30T13:15:57Z</time>
      </trkpt>
      <trkpt lat="47.04396" lon="7.0968">
        <ele>435.9</ele>
        <time>2022-09-30T13:15:58Z</time>
      </trkpt>
      <trkpt lat="47.04393" lon="7.0968">
        <ele>435.9</ele>
        <time>2022-09-30T13:15:59Z</time>
      </trkpt>
      <trkpt lat="47.04388" lon="7.09681">
        <ele>435.9</ele>
        <time>2022-09-30T13:16:00Z</time>
      </trkpt>
      <trkpt lat="47.04382" lon="7.09679">
        <ele>435.9</ele>
        <time>2022-09-30T13:16:01Z</time>
      </trkpt>
      <trkpt lat="47.04379" lon="7.09679">
        <ele>435.9</ele>
        <time>2022-09-30T13:16:02Z</time>
      </trkpt>
      <trkpt lat="47.04374" lon="7.09681">
        <ele>435.9</ele>
        <time>2022-09-30T13:16:03Z</time>
      </trkpt>
      <trkpt lat="47.0437" lon="7.0968">
        <ele>435.9</ele>
        <time>2022-09-30T13:16:04Z</time>
      </trkpt>
      <trkpt lat="47.04367" lon="7.09682">
        <ele>435.9</ele>
        <time>2022-09-30T13:16:05Z</time>
      </trkpt>
      <trkpt lat="47.04363" lon="7.09684">
        <ele>435.9</ele>
        <time>2022-09-30T13:16:06Z</time>
      </trkpt>
      <trkpt lat="47.04361" lon="7.09685">
        <ele>435.9</ele>
        <time>2022-09-30T13:16:07Z</time>
      </trkpt>
      <trkpt lat="47.04358" lon="7.09686">
        <ele>435.9</ele>
        <time>2022-09-30T13:16:08Z</time>
      </trkpt>
      <trkpt lat="47.04357" lon="7.09691">
        <ele>435.8</ele>
        <time>2022-09-30T13:16:09Z</time>
      </trkpt>
      <trkpt lat="47.04356" lon="7.09694">
        <ele>435.8</ele>
        <time>2022-09-30T13:16:10Z</time>
      </trkpt>
      <trkpt lat="47.04356" lon="7.09697">
        <ele>435.8</ele>
        <time>2022-09-30T13:16:11Z</time>
      </trkpt>
      <trkpt lat="47.04355" lon="7.09699">
        <ele>435.7</ele>
        <time>2022-09-30T13:16:12Z</time>
      </trkpt>
      <trkpt lat="47.04355" lon="7.097">
        <ele>435.7</ele>
        <time>2022-09-30T13:16:13Z</time>
      </trkpt>
      <trkpt lat="47.04356" lon="7.09705">
        <ele>435.6</ele>
        <time>2022-09-30T13:16:14Z</time>
      </trkpt>
      <trkpt lat="47.04356" lon="7.09707">
        <ele>435.6</ele>
        <time>2022-09-30T13:16:15Z</time>
      </trkpt>
      <trkpt lat="47.04356" lon="7.09713">
        <ele>435.6</ele>
        <time>2022-09-30T13:16:16Z</time>
      </trkpt>
      <trkpt lat="47.04356" lon="7.09715">
        <ele>435.5</ele>
        <time>2022-09-30T13:16:17Z</time>
      </trkpt>
      <trkpt lat="47.04355" lon="7.0972">
        <ele>435.5</ele>
        <time>2022-09-30T13:16:18Z</time>
      </trkpt>
      <trkpt lat="47.04355" lon="7.09725">
        <ele>435.4</ele>
        <time>2022-09-30T13:16:19Z</time>
      </trkpt>
      <trkpt lat="47.04357" lon="7.09732">
        <ele>435.4</ele>
        <time>2022-09-30T13:16:20Z</time>
      </trkpt>
      <trkpt lat="47.04358" lon="7.09738">
        <ele>435.4</ele>
        <time>2022-09-30T13:16:21Z</time>
      </trkpt>
      <trkpt lat="47.0436" lon="7.09743">
        <ele>435.4</ele>
        <time>2022-09-30T13:16:22Z</time>
      </trkpt>
      <trkpt lat="47.04362" lon="7.09748">
        <ele>435.4</ele>
        <time>2022-09-30T13:16:23Z</time>
      </trkpt>
      <trkpt lat="47.04363" lon="7.09753">
        <ele>435.4</ele>
        <time>2022-09-30T13:16:24Z</time>
      </trkpt>
      <trkpt lat="47.04364" lon="7.09759">
        <ele>435.4</ele>
        <time>2022-09-30T13:16:25Z</time>
      </trkpt>
      <trkpt lat="47.04365" lon="7.09765">
        <ele>435.4</ele>
        <time>2022-09-30T13:16:26Z</time>
      </trkpt>
      <trkpt lat="47.04367" lon="7.09772">
        <ele>435.4</ele>
        <time>2022-09-30T13:16:27Z</time>
      </trkpt>
      <trkpt lat="47.04368" lon="7.09779">
        <ele>435.4</ele>
        <time>2022-09-30T13:16:28Z</time>
      </trkpt>
      <trkpt lat="47.04371" lon="7.09785">
        <ele>435.4</ele>
        <time>2022-09-30T13:16:29Z</time>
      </trkpt>
      <trkpt lat="47.04373" lon="7.0979">
        <ele>435.4</ele>
        <time>2022-09-30T13:16:30Z</time>
      </trkpt>
      <trkpt lat="47.04374" lon="7.09796">
        <ele>435.4</ele>
        <time>2022-09-30T13:16:31Z</time>
      </trkpt>
      <trkpt lat="47.04374" lon="7.09803">
        <ele>435.4</ele>
        <time>2022-09-30T13:16:32Z</time>
      </trkpt>
      <trkpt lat="47.04376" lon="7.0981">
        <ele>435.4</ele>
        <time>2022-09-30T13:16:33Z</time>
      </trkpt>
      <trkpt lat="47.04378" lon="7.09817">
        <ele>435.3</ele>
        <time>2022-09-30T13:16:34Z</time>
      </trkpt>
      <trkpt lat="47.0438" lon="7.09823">
        <ele>435.2</ele>
        <time>2022-09-30T13:16:35Z</time>
      </trkpt>
      <trkpt lat="47.04382" lon="7.09829">
        <ele>435.1</ele>
        <time>2022-09-30T13:16:36Z</time>
      </trkpt>
      <trkpt lat="47.04383" lon="7.09835">
        <ele>435</ele>
        <time>2022-09-30T13:16:37Z</time>
      </trkpt>
      <trkpt lat="47.04385" lon="7.09843">
        <ele>434.9</ele>
        <time>2022-09-30T13:16:38Z</time>
      </trkpt>
      <trkpt lat="47.04388" lon="7.09849">
        <ele>434.7</ele>
        <time>2022-09-30T13:16:39Z</time>
      </trkpt>
      <trkpt lat="47.0439" lon="7.09855">
        <ele>434.6</ele>
        <time>2022-09-30T13:16:40Z</time>
      </trkpt>
      <trkpt lat="47.04391" lon="7.09862">
        <ele>434.5</ele>
        <time>2022-09-30T13:16:41Z</time>
      </trkpt>
      <trkpt lat="47.04393" lon="7.09867">
        <ele>434.5</ele>
        <time>2022-09-30T13:16:42Z</time>
      </trkpt>
      <trkpt lat="47.04395" lon="7.09873">
        <ele>434.4</ele>
        <time>2022-09-30T13:16:43Z</time>
      </trkpt>
      <trkpt lat="47.04397" lon="7.09879">
        <ele>434.3</ele>
        <time>2022-09-30T13:16:44Z</time>
      </trkpt>
      <trkpt lat="47.04398" lon="7.09884">
        <ele>434.2</ele>
        <time>2022-09-30T13:16:45Z</time>
      </trkpt>
      <trkpt lat="47.04399" lon="7.09891">
        <ele>434.1</ele>
        <time>2022-09-30T13:16:46Z</time>
      </trkpt>
      <trkpt lat="47.04401" lon="7.09897">
        <ele>434.1</ele>
        <time>2022-09-30T13:16:47Z</time>
      </trkpt>
      <trkpt lat="47.04403" lon="7.09903">
        <ele>434</ele>
        <time>2022-09-30T13:16:48Z</time>
      </trkpt>
      <trkpt lat="47.04405" lon="7.09908">
        <ele>433.9</ele>
        <time>2022-09-30T13:16:49Z</time>
      </trkpt>
      <trkpt lat="47.04407" lon="7.09914">
        <ele>433.8</ele>
        <time>2022-09-30T13:16:50Z</time>
      </trkpt>
      <trkpt lat="47.04408" lon="7.09919">
        <ele>433.8</ele>
        <time>2022-09-30T13:16:51Z</time>
      </trkpt>
      <trkpt lat="47.0441" lon="7.09925">
        <ele>433.7</ele>
        <time>2022-09-30T13:16:52Z</time>
      </trkpt>
      <trkpt lat="47.04411" lon="7.09931">
        <ele>433.7</ele>
        <time>2022-09-30T13:16:53Z</time>
      </trkpt>
      <trkpt lat="47.04412" lon="7.09936">
        <ele>433.6</ele>
        <time>2022-09-30T13:16:54Z</time>
      </trkpt>
      <trkpt lat="47.04411" lon="7.0994">
        <ele>433.5</ele>
        <time>2022-09-30T13:16:55Z</time>
      </trkpt>
      <trkpt lat="47.04409" lon="7.09944">
        <ele>433.5</ele>
        <time>2022-09-30T13:16:56Z</time>
      </trkpt>
      <trkpt lat="47.04406" lon="7.09948">
        <ele>433.5</ele>
        <time>2022-09-30T13:16:57Z</time>
      </trkpt>
      <trkpt lat="47.04403" lon="7.0995">
        <ele>433.5</ele>
        <time>2022-09-30T13:16:58Z</time>
      </trkpt>
      <trkpt lat="47.04399" lon="7.09953">
        <ele>433.5</ele>
        <time>2022-09-30T13:16:59Z</time>
      </trkpt>
      <trkpt lat="47.04395" lon="7.09955">
        <ele>433.5</ele>
        <time>2022-09-30T13:17:00Z</time>
      </trkpt>
      <trkpt lat="47.04391" lon="7.09958">
        <ele>433.5</ele>
        <time>2022-09-30T13:17:01Z</time>
      </trkpt>
      <trkpt lat="47.04388" lon="7.09961">
        <ele>433.5</ele>
        <time>2022-09-30T13:17:02Z</time>
      </trkpt>
      <trkpt lat="47.04384" lon="7.09965">
        <ele>433.5</ele>
        <time>2022-09-30T13:17:03Z</time>
      </trkpt>
      <trkpt lat="47.0438" lon="7.09968">
        <ele>433.5</ele>
        <time>2022-09-30T13:17:04Z</time>
      </trkpt>
      <trkpt lat="47.04376" lon="7.09971">
        <ele>433.5</ele>
        <time>2022-09-30T13:17:05Z</time>
      </trkpt>
      <trkpt lat="47.04373" lon="7.09974">
        <ele>433.5</ele>
        <time>2022-09-30T13:17:06Z</time>
      </trkpt>
      <trkpt lat="47.04369" lon="7.09976">
        <ele>433.5</ele>
        <time>2022-09-30T13:17:07Z</time>
      </trkpt>
      <trkpt lat="47.04365" lon="7.0998">
        <ele>433.5</ele>
        <time>2022-09-30T13:17:08Z</time>
      </trkpt>
      <trkpt lat="47.04361" lon="7.09982">
        <ele>433.5</ele>
        <time>2022-09-30T13:17:09Z</time>
      </trkpt>
      <trkpt lat="47.04357" lon="7.09985">
        <ele>433.5</ele>
        <time>2022-09-30T13:17:10Z</time>
      </trkpt>
      <trkpt lat="47.04353" lon="7.09988">
        <ele>433.5</ele>
        <time>2022-09-30T13:17:11Z</time>
      </trkpt>
      <trkpt lat="47.04349" lon="7.09991">
        <ele>433.6</ele>
        <time>2022-09-30T13:17:12Z</time>
      </trkpt>
      <trkpt lat="47.04345" lon="7.09994">
        <ele>433.6</ele>
        <time>2022-09-30T13:17:13Z</time>
      </trkpt>
      <trkpt lat="47.04341" lon="7.09998">
        <ele>433.6</ele>
        <time>2022-09-30T13:17:14Z</time>
      </trkpt>
      <trkpt lat="47.04337" lon="7.1">
        <ele>433.6</ele>
        <time>2022-09-30T13:17:15Z</time>
      </trkpt>
      <trkpt lat="47.04333" lon="7.10003">
        <ele>433.6</ele>
        <time>2022-09-30T13:17:16Z</time>
      </trkpt>
      <trkpt lat="47.04329" lon="7.10007">
        <ele>433.6</ele>
        <time>2022-09-30T13:17:17Z</time>
      </trkpt>
      <trkpt lat="47.04325" lon="7.10009">
        <ele>433.6</ele>
        <time>2022-09-30T13:17:18Z</time>
      </trkpt>
      <trkpt lat="47.04322" lon="7.10012">
        <ele>433.6</ele>
        <time>2022-09-30T13:17:19Z</time>
      </trkpt>
      <trkpt lat="47.04318" lon="7.10015">
        <ele>433.6</ele>
        <time>2022-09-30T13:17:20Z</time>
      </trkpt>
      <trkpt lat="47.04314" lon="7.10017">
        <ele>433.6</ele>
        <time>2022-09-30T13:17:21Z</time>
      </trkpt>
      <trkpt lat="47.0431" lon="7.1002">
        <ele>433.6</ele>
        <time>2022-09-30T13:17:22Z</time>
      </trkpt>
      <trkpt lat="47.04306" lon="7.10021">
        <ele>433.6</ele>
        <time>2022-09-30T13:17:23Z</time>
      </trkpt>
      <trkpt lat="47.04302" lon="7.10024">
        <ele>433.6</ele>
        <time>2022-09-30T13:17:24Z</time>
      </trkpt>
      <trkpt lat="47.04298" lon="7.10025">
        <ele>433.6</ele>
        <time>2022-09-30T13:17:25Z</time>
      </trkpt>
      <trkpt lat="47.04294" lon="7.10027">
        <ele>433.6</ele>
        <time>2022-09-30T13:17:26Z</time>
      </trkpt>
      <trkpt lat="47.0429" lon="7.10029">
        <ele>433.7</ele>
        <time>2022-09-30T13:17:27Z</time>
      </trkpt>
      <trkpt lat="47.04286" lon="7.10032">
        <ele>433.7</ele>
        <time>2022-09-30T13:17:28Z</time>
      </trkpt>
      <trkpt lat="47.04282" lon="7.10034">
        <ele>433.7</ele>
        <time>2022-09-30T13:17:29Z</time>
      </trkpt>
      <trkpt lat="47.04278" lon="7.10037">
        <ele>433.7</ele>
        <time>2022-09-30T13:17:30Z</time>
      </trkpt>
      <trkpt lat="47.04274" lon="7.10039">
        <ele>433.7</ele>
        <time>2022-09-30T13:17:31Z</time>
      </trkpt>
      <trkpt lat="47.0427" lon="7.1004">
        <ele>433.7</ele>
        <time>2022-09-30T13:17:32Z</time>
      </trkpt>
      <trkpt lat="47.04266" lon="7.10043">
        <ele>433.7</ele>
        <time>2022-09-30T13:17:33Z</time>
      </trkpt>
      <trkpt lat="47.04261" lon="7.10046">
        <ele>433.7</ele>
        <time>2022-09-30T13:17:34Z</time>
      </trkpt>
      <trkpt lat="47.04257" lon="7.10048">
        <ele>433.7</ele>
        <time>2022-09-30T13:17:35Z</time>
      </trkpt>
      <trkpt lat="47.04253" lon="7.1005">
        <ele>433.7</ele>
        <time>2022-09-30T13:17:36Z</time>
      </trkpt>
      <trkpt lat="47.04249" lon="7.10053">
        <ele>433.7</ele>
        <time>2022-09-30T13:17:37Z</time>
      </trkpt>
      <trkpt lat="47.04245" lon="7.10055">
        <ele>433.8</ele>
        <time>2022-09-30T13:17:38Z</time>
      </trkpt>
      <trkpt lat="47.04241" lon="7.10058">
        <ele>433.8</ele>
        <time>2022-09-30T13:17:39Z</time>
      </trkpt>
      <trkpt lat="47.04236" lon="7.1006">
        <ele>433.8</ele>
        <time>2022-09-30T13:17:40Z</time>
      </trkpt>
      <trkpt lat="47.04231" lon="7.10064">
        <ele>433.8</ele>
        <time>2022-09-30T13:17:41Z</time>
      </trkpt>
      <trkpt lat="47.04227" lon="7.10067">
        <ele>433.7</ele>
        <time>2022-09-30T13:17:42Z</time>
      </trkpt>
      <trkpt lat="47.04223" lon="7.1007">
        <ele>433.7</ele>
        <time>2022-09-30T13:17:43Z</time>
      </trkpt>
      <trkpt lat="47.04218" lon="7.10074">
        <ele>433.7</ele>
        <time>2022-09-30T13:17:44Z</time>
      </trkpt>
      <trkpt lat="47.04213" lon="7.10077">
        <ele>433.7</ele>
        <time>2022-09-30T13:17:45Z</time>
      </trkpt>
      <trkpt lat="47.04209" lon="7.1008">
        <ele>433.7</ele>
        <time>2022-09-30T13:17:46Z</time>
      </trkpt>
      <trkpt lat="47.04204" lon="7.10083">
        <ele>433.7</ele>
        <time>2022-09-30T13:17:47Z</time>
      </trkpt>
      <trkpt lat="47.04199" lon="7.10086">
        <ele>433.7</ele>
        <time>2022-09-30T13:17:48Z</time>
      </trkpt>
      <trkpt lat="47.04194" lon="7.10089">
        <ele>433.7</ele>
        <time>2022-09-30T13:17:49Z</time>
      </trkpt>
      <trkpt lat="47.04189" lon="7.10093">
        <ele>433.7</ele>
        <time>2022-09-30T13:17:50Z</time>
      </trkpt>
      <trkpt lat="47.04185" lon="7.10096">
        <ele>433.7</ele>
        <time>2022-09-30T13:17:52Z</time>
      </trkpt>
      <trkpt lat="47.04181" lon="7.10099">
        <ele>433.7</ele>
        <time>2022-09-30T13:17:53Z</time>
      </trkpt>
      <trkpt lat="47.04177" lon="7.10101">
        <ele>433.7</ele>
        <time>2022-09-30T13:17:54Z</time>
      </trkpt>
      <trkpt lat="47.04173" lon="7.10104">
        <ele>433.7</ele>
        <time>2022-09-30T13:17:55Z</time>
      </trkpt>
      <trkpt lat="47.04168" lon="7.10107">
        <ele>433.7</ele>
        <time>2022-09-30T13:17:56Z</time>
      </trkpt>
      <trkpt lat="47.04165" lon="7.10109">
        <ele>433.7</ele>
        <time>2022-09-30T13:17:57Z</time>
      </trkpt>
      <trkpt lat="47.0416" lon="7.10112">
        <ele>433.7</ele>
        <time>2022-09-30T13:17:58Z</time>
      </trkpt>
      <trkpt lat="47.04156" lon="7.10115">
        <ele>433.7</ele>
        <time>2022-09-30T13:17:59Z</time>
      </trkpt>
      <trkpt lat="47.04152" lon="7.10118">
        <ele>433.7</ele>
        <time>2022-09-30T13:18:00Z</time>
      </trkpt>
      <trkpt lat="47.04148" lon="7.10121">
        <ele>433.7</ele>
        <time>2022-09-30T13:18:01Z</time>
      </trkpt>
      <trkpt lat="47.04144" lon="7.10124">
        <ele>433.7</ele>
        <time>2022-09-30T13:18:02Z</time>
      </trkpt>
      <trkpt lat="47.04137" lon="7.10129">
        <ele>433.8</ele>
        <time>2022-09-30T13:18:03Z</time>
      </trkpt>
      <trkpt lat="47.04133" lon="7.10132">
        <ele>433.8</ele>
        <time>2022-09-30T13:18:04Z</time>
      </trkpt>
      <trkpt lat="47.04129" lon="7.10134">
        <ele>433.8</ele>
        <time>2022-09-30T13:18:06Z</time>
      </trkpt>
      <trkpt lat="47.04121" lon="7.10141">
        <ele>433.8</ele>
        <time>2022-09-30T13:18:07Z</time>
      </trkpt>
      <trkpt lat="47.04117" lon="7.10143">
        <ele>433.8</ele>
        <time>2022-09-30T13:18:08Z</time>
      </trkpt>
      <trkpt lat="47.04113" lon="7.10146">
        <ele>433.8</ele>
        <time>2022-09-30T13:18:09Z</time>
      </trkpt>
      <trkpt lat="47.04109" lon="7.10149">
        <ele>433.8</ele>
        <time>2022-09-30T13:18:10Z</time>
      </trkpt>
      <trkpt lat="47.04105" lon="7.10152">
        <ele>433.8</ele>
        <time>2022-09-30T13:18:11Z</time>
      </trkpt>
      <trkpt lat="47.04101" lon="7.10156">
        <ele>433.8</ele>
        <time>2022-09-30T13:18:12Z</time>
      </trkpt>
      <trkpt lat="47.04097" lon="7.10158">
        <ele>433.8</ele>
        <time>2022-09-30T13:18:13Z</time>
      </trkpt>
      <trkpt lat="47.04094" lon="7.10161">
        <ele>433.8</ele>
        <time>2022-09-30T13:18:14Z</time>
      </trkpt>
      <trkpt lat="47.04091" lon="7.10164">
        <ele>433.8</ele>
        <time>2022-09-30T13:18:15Z</time>
      </trkpt>
      <trkpt lat="47.04087" lon="7.10167">
        <ele>433.8</ele>
        <time>2022-09-30T13:18:16Z</time>
      </trkpt>
      <trkpt lat="47.04084" lon="7.10169">
        <ele>433.8</ele>
        <time>2022-09-30T13:18:17Z</time>
      </trkpt>
      <trkpt lat="47.04081" lon="7.10172">
        <ele>433.8</ele>
        <time>2022-09-30T13:18:18Z</time>
      </trkpt>
      <trkpt lat="47.04079" lon="7.10176">
        <ele>433.8</ele>
        <time>2022-09-30T13:18:19Z</time>
      </trkpt>
      <trkpt lat="47.04075" lon="7.10178">
        <ele>433.8</ele>
        <time>2022-09-30T13:18:20Z</time>
      </trkpt>
      <trkpt lat="47.04071" lon="7.1018">
        <ele>433.8</ele>
        <time>2022-09-30T13:18:21Z</time>
      </trkpt>
      <trkpt lat="47.04068" lon="7.10183">
        <ele>433.8</ele>
        <time>2022-09-30T13:18:22Z</time>
      </trkpt>
      <trkpt lat="47.04065" lon="7.10185">
        <ele>433.8</ele>
        <time>2022-09-30T13:18:23Z</time>
      </trkpt>
      <trkpt lat="47.04063" lon="7.10187">
        <ele>433.8</ele>
        <time>2022-09-30T13:18:24Z</time>
      </trkpt>
      <trkpt lat="47.04058" lon="7.10191">
        <ele>433.8</ele>
        <time>2022-09-30T13:18:25Z</time>
      </trkpt>
      <trkpt lat="47.04056" lon="7.10194">
        <ele>433.8</ele>
        <time>2022-09-30T13:18:26Z</time>
      </trkpt>
      <trkpt lat="47.04053" lon="7.10198">
        <ele>433.8</ele>
        <time>2022-09-30T13:18:27Z</time>
      </trkpt>
      <trkpt lat="47.04049" lon="7.10202">
        <ele>433.8</ele>
        <time>2022-09-30T13:18:28Z</time>
      </trkpt>
      <trkpt lat="47.04045" lon="7.10206">
        <ele>433.8</ele>
        <time>2022-09-30T13:18:29Z</time>
      </trkpt>
      <trkpt lat="47.04041" lon="7.10209">
        <ele>433.8</ele>
        <time>2022-09-30T13:18:30Z</time>
      </trkpt>
      <trkpt lat="47.04038" lon="7.10213">
        <ele>433.8</ele>
        <time>2022-09-30T13:18:31Z</time>
      </trkpt>
      <trkpt lat="47.04034" lon="7.10217">
        <ele>433.8</ele>
        <time>2022-09-30T13:18:32Z</time>
      </trkpt>
      <trkpt lat="47.0403" lon="7.10221">
        <ele>433.8</ele>
        <time>2022-09-30T13:18:33Z</time>
      </trkpt>
      <trkpt lat="47.04026" lon="7.10225">
        <ele>433.8</ele>
        <time>2022-09-30T13:18:34Z</time>
      </trkpt>
      <trkpt lat="47.04022" lon="7.10228">
        <ele>433.8</ele>
        <time>2022-09-30T13:18:35Z</time>
      </trkpt>
      <trkpt lat="47.04018" lon="7.10232">
        <ele>433.8</ele>
        <time>2022-09-30T13:18:36Z</time>
      </trkpt>
      <trkpt lat="47.04014" lon="7.10236">
        <ele>433.8</ele>
        <time>2022-09-30T13:18:37Z</time>
      </trkpt>
      <trkpt lat="47.0401" lon="7.1024">
        <ele>433.8</ele>
        <time>2022-09-30T13:18:38Z</time>
      </trkpt>
      <trkpt lat="47.04006" lon="7.10245">
        <ele>433.8</ele>
        <time>2022-09-30T13:18:39Z</time>
      </trkpt>
      <trkpt lat="47.04001" lon="7.10248">
        <ele>433.8</ele>
        <time>2022-09-30T13:18:40Z</time>
      </trkpt>
      <trkpt lat="47.03998" lon="7.10252">
        <ele>433.7</ele>
        <time>2022-09-30T13:18:41Z</time>
      </trkpt>
      <trkpt lat="47.03994" lon="7.10256">
        <ele>433.7</ele>
        <time>2022-09-30T13:18:42Z</time>
      </trkpt>
      <trkpt lat="47.0399" lon="7.1026">
        <ele>433.7</ele>
        <time>2022-09-30T13:18:43Z</time>
      </trkpt>
      <trkpt lat="47.03986" lon="7.10264">
        <ele>433.7</ele>
        <time>2022-09-30T13:18:44Z</time>
      </trkpt>
      <trkpt lat="47.03982" lon="7.10268">
        <ele>433.7</ele>
        <time>2022-09-30T13:18:45Z</time>
      </trkpt>
      <trkpt lat="47.03978" lon="7.10273">
        <ele>433.6</ele>
        <time>2022-09-30T13:18:46Z</time>
      </trkpt>
      <trkpt lat="47.03974" lon="7.10277">
        <ele>433.6</ele>
        <time>2022-09-30T13:18:47Z</time>
      </trkpt>
      <trkpt lat="47.0397" lon="7.10281">
        <ele>433.6</ele>
        <time>2022-09-30T13:18:48Z</time>
      </trkpt>
      <trkpt lat="47.03966" lon="7.10285">
        <ele>433.7</ele>
        <time>2022-09-30T13:18:49Z</time>
      </trkpt>
      <trkpt lat="47.03962" lon="7.10289">
        <ele>433.7</ele>
        <time>2022-09-30T13:18:50Z</time>
      </trkpt>
      <trkpt lat="47.03958" lon="7.10293">
        <ele>433.7</ele>
        <time>2022-09-30T13:18:51Z</time>
      </trkpt>
      <trkpt lat="47.03954" lon="7.10297">
        <ele>433.7</ele>
        <time>2022-09-30T13:18:52Z</time>
      </trkpt>
      <trkpt lat="47.0395" lon="7.10302">
        <ele>433.7</ele>
        <time>2022-09-30T13:18:53Z</time>
      </trkpt>
      <trkpt lat="47.03946" lon="7.10306">
        <ele>433.8</ele>
        <time>2022-09-30T13:18:54Z</time>
      </trkpt>
      <trkpt lat="47.03942" lon="7.1031">
        <ele>433.8</ele>
        <time>2022-09-30T13:18:55Z</time>
      </trkpt>
      <trkpt lat="47.03939" lon="7.10314">
        <ele>433.8</ele>
        <time>2022-09-30T13:18:56Z</time>
      </trkpt>
      <trkpt lat="47.03936" lon="7.10318">
        <ele>433.8</ele>
        <time>2022-09-30T13:18:57Z</time>
      </trkpt>
      <trkpt lat="47.03932" lon="7.10323">
        <ele>433.8</ele>
        <time>2022-09-30T13:18:58Z</time>
      </trkpt>
      <trkpt lat="47.03929" lon="7.10327">
        <ele>433.8</ele>
        <time>2022-09-30T13:18:59Z</time>
      </trkpt>
      <trkpt lat="47.03926" lon="7.1033">
        <ele>433.8</ele>
        <time>2022-09-30T13:19:00Z</time>
      </trkpt>
      <trkpt lat="47.03923" lon="7.10335">
        <ele>433.8</ele>
        <time>2022-09-30T13:19:01Z</time>
      </trkpt>
      <trkpt lat="47.03921" lon="7.1034">
        <ele>433.8</ele>
        <time>2022-09-30T13:19:02Z</time>
      </trkpt>
      <trkpt lat="47.03918" lon="7.10345">
        <ele>433.8</ele>
        <time>2022-09-30T13:19:03Z</time>
      </trkpt>
      <trkpt lat="47.03914" lon="7.10349">
        <ele>433.8</ele>
        <time>2022-09-30T13:19:04Z</time>
      </trkpt>
      <trkpt lat="47.03911" lon="7.10353">
        <ele>433.8</ele>
        <time>2022-09-30T13:19:05Z</time>
      </trkpt>
      <trkpt lat="47.03907" lon="7.10358">
        <ele>433.8</ele>
        <time>2022-09-30T13:19:06Z</time>
      </trkpt>
      <trkpt lat="47.03904" lon="7.10362">
        <ele>433.8</ele>
        <time>2022-09-30T13:19:07Z</time>
      </trkpt>
      <trkpt lat="47.039" lon="7.10367">
        <ele>433.8</ele>
        <time>2022-09-30T13:19:08Z</time>
      </trkpt>
      <trkpt lat="47.03896" lon="7.10371">
        <ele>433.8</ele>
        <time>2022-09-30T13:19:09Z</time>
      </trkpt>
      <trkpt lat="47.03892" lon="7.10376">
        <ele>433.8</ele>
        <time>2022-09-30T13:19:10Z</time>
      </trkpt>
      <trkpt lat="47.03888" lon="7.10381">
        <ele>433.8</ele>
        <time>2022-09-30T13:19:11Z</time>
      </trkpt>
      <trkpt lat="47.03885" lon="7.10385">
        <ele>433.8</ele>
        <time>2022-09-30T13:19:12Z</time>
      </trkpt>
      <trkpt lat="47.03881" lon="7.10389">
        <ele>433.8</ele>
        <time>2022-09-30T13:19:13Z</time>
      </trkpt>
      <trkpt lat="47.03877" lon="7.10394">
        <ele>433.8</ele>
        <time>2022-09-30T13:19:14Z</time>
      </trkpt>
      <trkpt lat="47.03874" lon="7.10399">
        <ele>433.8</ele>
        <time>2022-09-30T13:19:15Z</time>
      </trkpt>
      <trkpt lat="47.0387" lon="7.10404">
        <ele>433.8</ele>
        <time>2022-09-30T13:19:16Z</time>
      </trkpt>
      <trkpt lat="47.03867" lon="7.10408">
        <ele>433.8</ele>
        <time>2022-09-30T13:19:17Z</time>
      </trkpt>
      <trkpt lat="47.03864" lon="7.10413">
        <ele>433.8</ele>
        <time>2022-09-30T13:19:18Z</time>
      </trkpt>
      <trkpt lat="47.03861" lon="7.10418">
        <ele>433.8</ele>
        <time>2022-09-30T13:19:19Z</time>
      </trkpt>
      <trkpt lat="47.03858" lon="7.10423">
        <ele>433.8</ele>
        <time>2022-09-30T13:19:20Z</time>
      </trkpt>
      <trkpt lat="47.03855" lon="7.10428">
        <ele>433.8</ele>
        <time>2022-09-30T13:19:21Z</time>
      </trkpt>
      <trkpt lat="47.03851" lon="7.10433">
        <ele>433.8</ele>
        <time>2022-09-30T13:19:22Z</time>
      </trkpt>
      <trkpt lat="47.03848" lon="7.10437">
        <ele>433.8</ele>
        <time>2022-09-30T13:19:23Z</time>
      </trkpt>
      <trkpt lat="47.03845" lon="7.10441">
        <ele>433.8</ele>
        <time>2022-09-30T13:19:24Z</time>
      </trkpt>
      <trkpt lat="47.03843" lon="7.10445">
        <ele>433.8</ele>
        <time>2022-09-30T13:19:25Z</time>
      </trkpt>
      <trkpt lat="47.0384" lon="7.10449">
        <ele>433.7</ele>
        <time>2022-09-30T13:19:26Z</time>
      </trkpt>
      <trkpt lat="47.03838" lon="7.10453">
        <ele>433.7</ele>
        <time>2022-09-30T13:19:27Z</time>
      </trkpt>
      <trkpt lat="47.03837" lon="7.10457">
        <ele>433.7</ele>
        <time>2022-09-30T13:19:28Z</time>
      </trkpt>
      <trkpt lat="47.03836" lon="7.10462">
        <ele>433.7</ele>
        <time>2022-09-30T13:19:29Z</time>
      </trkpt>
      <trkpt lat="47.03836" lon="7.10464">
        <ele>433.7</ele>
        <time>2022-09-30T13:19:30Z</time>
      </trkpt>
      <trkpt lat="47.03837" lon="7.10466">
        <ele>433.7</ele>
        <time>2022-09-30T13:19:31Z</time>
      </trkpt>
      <trkpt lat="47.03838" lon="7.10468">
        <ele>433.7</ele>
        <time>2022-09-30T13:19:32Z</time>
      </trkpt>
      <trkpt lat="47.03839" lon="7.1047">
        <ele>433.7</ele>
        <time>2022-09-30T13:19:33Z</time>
      </trkpt>
      <trkpt lat="47.03839" lon="7.10469">
        <ele>433.7</ele>
        <time>2022-09-30T13:19:34Z</time>
      </trkpt>
      <trkpt lat="47.03839" lon="7.10469">
        <ele>433.7</ele>
        <time>2022-09-30T13:19:35Z</time>
      </trkpt>
      <trkpt lat="47.03839" lon="7.10469">
        <ele>433.7</ele>
        <time>2022-09-30T13:19:36Z</time>
      </trkpt>
      <trkpt lat="47.03839" lon="7.10469">
        <ele>433.7</ele>
        <time>2022-09-30T13:19:37Z</time>
      </trkpt>
      <trkpt lat="47.03839" lon="7.10469">
        <ele>433.7</ele>
        <time>2022-09-30T13:19:38Z</time>
      </trkpt>
      <trkpt lat="47.03839" lon="7.10469">
        <ele>433.7</ele>
        <time>2022-09-30T13:19:39Z</time>
      </trkpt>
      <trkpt lat="47.03839" lon="7.10469">
        <ele>433.7</ele>
        <time>2022-09-30T13:19:40Z</time>
      </trkpt>
      <trkpt lat="47.03839" lon="7.10469">
        <ele>433.7</ele>
        <time>2022-09-30T13:19:41Z</time>
      </trkpt>
      <trkpt lat="47.03839" lon="7.10468">
        <ele>433.7</ele>
        <time>2022-09-30T13:19:42Z</time>
      </trkpt>
      <trkpt lat="47.03838" lon="7.10468">
        <ele>433.7</ele>
        <time>2022-09-30T13:19:43Z</time>
      </trkpt>
      <trkpt lat="47.03838" lon="7.10468">
        <ele>433.7</ele>
        <time>2022-09-30T13:19:46Z</time>
      </trkpt>
      <trkpt lat="47.03838" lon="7.10468">
        <ele>433.7</ele>
        <time>2022-09-30T13:19:47Z</time>
      </trkpt>
      <trkpt lat="47.03838" lon="7.10468">
        <ele>433.7</ele>
        <time>2022-09-30T13:19:48Z</time>
      </trkpt>
      <trkpt lat="47.03838" lon="7.10468">
        <ele>433.7</ele>
        <time>2022-09-30T13:19:49Z</time>
      </trkpt>
      <trkpt lat="47.03838" lon="7.10468">
        <ele>433.7</ele>
        <time>2022-09-30T13:19:50Z</time>
      </trkpt>
      <trkpt lat="47.03838" lon="7.10468">
        <ele>433.7</ele>
        <time>2022-09-30T13:19:51Z</time>
      </trkpt>
      <trkpt lat="47.03838" lon="7.10467">
        <ele>433.7</ele>
        <time>2022-09-30T13:19:52Z</time>
      </trkpt>
      <trkpt lat="47.03838" lon="7.10467">
        <ele>433.7</ele>
        <time>2022-09-30T13:19:53Z</time>
      </trkpt>
      <trkpt lat="47.03838" lon="7.10467">
        <ele>433.7</ele>
        <time>2022-09-30T13:19:54Z</time>
      </trkpt>
      <trkpt lat="47.03838" lon="7.10467">
        <ele>433.7</ele>
        <time>2022-09-30T13:19:55Z</time>
      </trkpt>
      <trkpt lat="47.03838" lon="7.10467">
        <ele>433.7</ele>
        <time>2022-09-30T13:22:21Z</time>
      </trkpt>
      <trkpt lat="47.03838" lon="7.10467">
        <ele>433.7</ele>
        <time>2022-09-30T13:22:22Z</time>
      </trkpt>
      <trkpt lat="47.03838" lon="7.10467">
        <ele>433.7</ele>
        <time>2022-09-30T13:22:23Z</time>
      </trkpt>
      <trkpt lat="47.03838" lon="7.10467">
        <ele>433.7</ele>
        <time>2022-09-30T13:22:24Z</time>
      </trkpt>
      <trkpt lat="47.03837" lon="7.10466">
        <ele>433.7</ele>
        <time>2022-09-30T13:22:25Z</time>
      </trkpt>
      <trkpt lat="47.03837" lon="7.10466">
        <ele>433.7</ele>
        <time>2022-09-30T13:22:26Z</time>
      </trkpt>
      <trkpt lat="47.03837" lon="7.10466">
        <ele>433.7</ele>
        <time>2022-09-30T13:22:27Z</time>
      </trkpt>
      <trkpt lat="47.03837" lon="7.10466">
        <ele>433.7</ele>
        <time>2022-09-30T13:22:28Z</time>
      </trkpt>
      <trkpt lat="47.03837" lon="7.10466">
        <ele>433.7</ele>
        <time>2022-09-30T13:22:29Z</time>
      </trkpt>
      <trkpt lat="47.03837" lon="7.10466">
        <ele>433.7</ele>
        <time>2022-09-30T13:22:30Z</time>
      </trkpt>
      <trkpt lat="47.03837" lon="7.10466">
        <ele>433.7</ele>
        <time>2022-09-30T13:24:30Z</time>
      </trkpt>
      <trkpt lat="47.03837" lon="7.10466">
        <ele>433.7</ele>
        <time>2022-09-30T13:24:31Z</time>
      </trkpt>
      <trkpt lat="47.03837" lon="7.10465">
        <ele>433.7</ele>
        <time>2022-09-30T13:24:32Z</time>
      </trkpt>
      <trkpt lat="47.03837" lon="7.10465">
        <ele>433.7</ele>
        <time>2022-09-30T13:24:33Z</time>
      </trkpt>
      <trkpt lat="47.03837" lon="7.10465">
        <ele>433.7</ele>
        <time>2022-09-30T13:24:34Z</time>
      </trkpt>
      <trkpt lat="47.03837" lon="7.10465">
        <ele>433.7</ele>
        <time>2022-09-30T13:24:35Z</time>
      </trkpt>
      <trkpt lat="47.03837" lon="7.10465">
        <ele>433.7</ele>
        <time>2022-09-30T13:24:36Z</time>
      </trkpt>
      <trkpt lat="47.03837" lon="7.10465">
        <ele>433.7</ele>
        <time>2022-09-30T13:24:37Z</time>
      </trkpt>
      <trkpt lat="47.03837" lon="7.10465">
        <ele>433.7</ele>
        <time>2022-09-30T13:24:38Z</time>
      </trkpt>
      <trkpt lat="47.03837" lon="7.10465">
        <ele>433.7</ele>
        <time>2022-09-30T13:24:39Z</time>
      </trkpt>
      <trkpt lat="47.03836" lon="7.10465">
        <ele>433.7</ele>
        <time>2022-09-30T13:28:12Z</time>
      </trkpt>
      <trkpt lat="47.03836" lon="7.10464">
        <ele>433.7</ele>
        <time>2022-09-30T13:28:13Z</time>
      </trkpt>
      <trkpt lat="47.03836" lon="7.10464">
        <ele>433.7</ele>
        <time>2022-09-30T13:28:14Z</time>
      </trkpt>
      <trkpt lat="47.03836" lon="7.10464">
        <ele>433.7</ele>
        <time>2022-09-30T13:28:15Z</time>
      </trkpt>
      <trkpt lat="47.03836" lon="7.10464">
        <ele>433.7</ele>
        <time>2022-09-30T13:28:16Z</time>
      </trkpt>
      <trkpt lat="47.03836" lon="7.10464">
        <ele>433.7</ele>
        <time>2022-09-30T13:28:17Z</time>
      </trkpt>
      <trkpt lat="47.03836" lon="7.10464">
        <ele>433.7</ele>
        <time>2022-09-30T13:28:18Z</time>
      </trkpt>
      <trkpt lat="47.03836" lon="7.10464">
        <ele>433.7</ele>
        <time>2022-09-30T13:28:19Z</time>
      </trkpt>
      <trkpt lat="47.03836" lon="7.10464">
        <ele>433.7</ele>
        <time>2022-09-30T13:28:20Z</time>
      </trkpt>
      <trkpt lat="47.03836" lon="7.10463">
        <ele>433.7</ele>
        <time>2022-09-30T13:28:22Z</time>
      </trkpt>
      <trkpt lat="47.03836" lon="7.10463">
        <ele>433.7</ele>
        <time>2022-09-30T13:30:14Z</time>
      </trkpt>
      <trkpt lat="47.03836" lon="7.10463">
        <ele>433.7</ele>
        <time>2022-09-30T13:30:15Z</time>
      </trkpt>
      <trkpt lat="47.03836" lon="7.10463">
        <ele>433.7</ele>
        <time>2022-09-30T13:30:16Z</time>
      </trkpt>
      <trkpt lat="47.03835" lon="7.10462">
        <ele>433.7</ele>
        <time>2022-09-30T13:30:17Z</time>
      </trkpt>
      <trkpt lat="47.03836" lon="7.10459">
        <ele>433.7</ele>
        <time>2022-09-30T13:30:18Z</time>
      </trkpt>
      <trkpt lat="47.03837" lon="7.10455">
        <ele>433.8</ele>
        <time>2022-09-30T13:30:19Z</time>
      </trkpt>
      <trkpt lat="47.03838" lon="7.10454">
        <ele>433.8</ele>
        <time>2022-09-30T13:30:20Z</time>
      </trkpt>
      <trkpt lat="47.0384" lon="7.1045">
        <ele>433.8</ele>
        <time>2022-09-30T13:30:21Z</time>
      </trkpt>
      <trkpt lat="47.03841" lon="7.10449">
        <ele>433.8</ele>
        <time>2022-09-30T13:30:22Z</time>
      </trkpt>
      <trkpt lat="47.03843" lon="7.10446">
        <ele>433.8</ele>
        <time>2022-09-30T13:30:23Z</time>
      </trkpt>
      <trkpt lat="47.03845" lon="7.10443">
        <ele>433.8</ele>
        <time>2022-09-30T13:30:24Z</time>
      </trkpt>
      <trkpt lat="47.03847" lon="7.1044">
        <ele>433.8</ele>
        <time>2022-09-30T13:30:25Z</time>
      </trkpt>
      <trkpt lat="47.03849" lon="7.10437">
        <ele>433.8</ele>
        <time>2022-09-30T13:30:26Z</time>
      </trkpt>
      <trkpt lat="47.03851" lon="7.10433">
        <ele>433.8</ele>
        <time>2022-09-30T13:30:28Z</time>
      </trkpt>
      <trkpt lat="47.03854" lon="7.1043">
        <ele>433.8</ele>
        <time>2022-09-30T13:30:29Z</time>
      </trkpt>
      <trkpt lat="47.03856" lon="7.10426">
        <ele>433.8</ele>
        <time>2022-09-30T13:30:30Z</time>
      </trkpt>
      <trkpt lat="47.03858" lon="7.10422">
        <ele>433.8</ele>
        <time>2022-09-30T13:30:31Z</time>
      </trkpt>
      <trkpt lat="47.03861" lon="7.10418">
        <ele>433.8</ele>
        <time>2022-09-30T13:30:32Z</time>
      </trkpt>
      <trkpt lat="47.03864" lon="7.10415">
        <ele>433.8</ele>
        <time>2022-09-30T13:30:33Z</time>
      </trkpt>
      <trkpt lat="47.03867" lon="7.10411">
        <ele>433.8</ele>
        <time>2022-09-30T13:30:34Z</time>
      </trkpt>
      <trkpt lat="47.03869" lon="7.10407">
        <ele>433.8</ele>
        <time>2022-09-30T13:30:35Z</time>
      </trkpt>
      <trkpt lat="47.03872" lon="7.10403">
        <ele>433.8</ele>
        <time>2022-09-30T13:30:36Z</time>
      </trkpt>
      <trkpt lat="47.03874" lon="7.10399">
        <ele>433.8</ele>
        <time>2022-09-30T13:30:37Z</time>
      </trkpt>
      <trkpt lat="47.03876" lon="7.10395">
        <ele>433.8</ele>
        <time>2022-09-30T13:30:38Z</time>
      </trkpt>
      <trkpt lat="47.03882" lon="7.1039">
        <ele>433.8</ele>
        <time>2022-09-30T13:30:39Z</time>
      </trkpt>
      <trkpt lat="47.03883" lon="7.10386">
        <ele>433.8</ele>
        <time>2022-09-30T13:30:40Z</time>
      </trkpt>
      <trkpt lat="47.03885" lon="7.10383">
        <ele>433.8</ele>
        <time>2022-09-30T13:30:41Z</time>
      </trkpt>
      <trkpt lat="47.03888" lon="7.1038">
        <ele>433.8</ele>
        <time>2022-09-30T13:30:42Z</time>
      </trkpt>
      <trkpt lat="47.03891" lon="7.10377">
        <ele>433.8</ele>
        <time>2022-09-30T13:30:44Z</time>
      </trkpt>
      <trkpt lat="47.03898" lon="7.10371">
        <ele>433.8</ele>
        <time>2022-09-30T13:30:45Z</time>
      </trkpt>
      <trkpt lat="47.039" lon="7.10367">
        <ele>433.8</ele>
        <time>2022-09-30T13:30:46Z</time>
      </trkpt>
      <trkpt lat="47.03903" lon="7.10363">
        <ele>433.8</ele>
        <time>2022-09-30T13:30:47Z</time>
      </trkpt>
      <trkpt lat="47.03906" lon="7.10358">
        <ele>433.8</ele>
        <time>2022-09-30T13:30:48Z</time>
      </trkpt>
      <trkpt lat="47.03909" lon="7.10353">
        <ele>433.8</ele>
        <time>2022-09-30T13:30:49Z</time>
      </trkpt>
      <trkpt lat="47.03912" lon="7.10349">
        <ele>433.8</ele>
        <time>2022-09-30T13:30:50Z</time>
      </trkpt>
      <trkpt lat="47.03915" lon="7.10345">
        <ele>433.8</ele>
        <time>2022-09-30T13:30:51Z</time>
      </trkpt>
      <trkpt lat="47.03918" lon="7.10341">
        <ele>433.8</ele>
        <time>2022-09-30T13:30:52Z</time>
      </trkpt>
      <trkpt lat="47.03921" lon="7.10337">
        <ele>433.8</ele>
        <time>2022-09-30T13:30:53Z</time>
      </trkpt>
      <trkpt lat="47.03925" lon="7.10332">
        <ele>433.8</ele>
        <time>2022-09-30T13:30:54Z</time>
      </trkpt>
      <trkpt lat="47.03928" lon="7.10328">
        <ele>433.8</ele>
        <time>2022-09-30T13:30:55Z</time>
      </trkpt>
      <trkpt lat="47.03932" lon="7.10324">
        <ele>433.8</ele>
        <time>2022-09-30T13:30:56Z</time>
      </trkpt>
      <trkpt lat="47.03935" lon="7.1032">
        <ele>433.8</ele>
        <time>2022-09-30T13:30:57Z</time>
      </trkpt>
      <trkpt lat="47.03938" lon="7.10316">
        <ele>433.8</ele>
        <time>2022-09-30T13:30:58Z</time>
      </trkpt>
      <trkpt lat="47.03942" lon="7.10312">
        <ele>433.8</ele>
        <time>2022-09-30T13:30:59Z</time>
      </trkpt>
      <trkpt lat="47.03945" lon="7.10308">
        <ele>433.8</ele>
        <time>2022-09-30T13:31:00Z</time>
      </trkpt>
      <trkpt lat="47.03949" lon="7.10304">
        <ele>433.8</ele>
        <time>2022-09-30T13:31:01Z</time>
      </trkpt>
      <trkpt lat="47.03953" lon="7.10299">
        <ele>433.7</ele>
        <time>2022-09-30T13:31:02Z</time>
      </trkpt>
      <trkpt lat="47.03956" lon="7.10295">
        <ele>433.7</ele>
        <time>2022-09-30T13:31:03Z</time>
      </trkpt>
      <trkpt lat="47.0396" lon="7.10291">
        <ele>433.7</ele>
        <time>2022-09-30T13:31:04Z</time>
      </trkpt>
      <trkpt lat="47.03965" lon="7.10288">
        <ele>433.7</ele>
        <time>2022-09-30T13:31:05Z</time>
      </trkpt>
      <trkpt lat="47.03969" lon="7.10284">
        <ele>433.6</ele>
        <time>2022-09-30T13:31:06Z</time>
      </trkpt>
      <trkpt lat="47.03972" lon="7.1028">
        <ele>433.6</ele>
        <time>2022-09-30T13:31:07Z</time>
      </trkpt>
      <trkpt lat="47.03976" lon="7.10276">
        <ele>433.6</ele>
        <time>2022-09-30T13:31:08Z</time>
      </trkpt>
      <trkpt lat="47.0398" lon="7.10272">
        <ele>433.6</ele>
        <time>2022-09-30T13:31:09Z</time>
      </trkpt>
      <trkpt lat="47.03984" lon="7.10268">
        <ele>433.7</ele>
        <time>2022-09-30T13:31:10Z</time>
      </trkpt>
      <trkpt lat="47.03987" lon="7.10264">
        <ele>433.7</ele>
        <time>2022-09-30T13:31:11Z</time>
      </trkpt>
      <trkpt lat="47.03991" lon="7.1026">
        <ele>433.7</ele>
        <time>2022-09-30T13:31:12Z</time>
      </trkpt>
      <trkpt lat="47.03994" lon="7.10256">
        <ele>433.7</ele>
        <time>2022-09-30T13:31:13Z</time>
      </trkpt>
      <trkpt lat="47.03999" lon="7.10252">
        <ele>433.7</ele>
        <time>2022-09-30T13:31:14Z</time>
      </trkpt>
      <trkpt lat="47.04003" lon="7.10247">
        <ele>433.8</ele>
        <time>2022-09-30T13:31:15Z</time>
      </trkpt>
      <trkpt lat="47.04006" lon="7.10243">
        <ele>433.8</ele>
        <time>2022-09-30T13:31:16Z</time>
      </trkpt>
      <trkpt lat="47.04009" lon="7.1024">
        <ele>433.8</ele>
        <time>2022-09-30T13:31:17Z</time>
      </trkpt>
      <trkpt lat="47.04013" lon="7.10238">
        <ele>433.8</ele>
        <time>2022-09-30T13:31:18Z</time>
      </trkpt>
      <trkpt lat="47.04017" lon="7.10232">
        <ele>433.8</ele>
        <time>2022-09-30T13:31:19Z</time>
      </trkpt>
      <trkpt lat="47.0402" lon="7.10228">
        <ele>433.8</ele>
        <time>2022-09-30T13:31:20Z</time>
      </trkpt>
      <trkpt lat="47.04024" lon="7.10224">
        <ele>433.8</ele>
        <time>2022-09-30T13:31:21Z</time>
      </trkpt>
      <trkpt lat="47.04028" lon="7.1022">
        <ele>433.8</ele>
        <time>2022-09-30T13:31:22Z</time>
      </trkpt>
      <trkpt lat="47.04032" lon="7.10216">
        <ele>433.8</ele>
        <time>2022-09-30T13:31:23Z</time>
      </trkpt>
      <trkpt lat="47.04036" lon="7.10212">
        <ele>433.8</ele>
        <time>2022-09-30T13:31:24Z</time>
      </trkpt>
      <trkpt lat="47.0404" lon="7.10208">
        <ele>433.8</ele>
        <time>2022-09-30T13:31:25Z</time>
      </trkpt>
      <trkpt lat="47.04044" lon="7.10205">
        <ele>433.8</ele>
        <time>2022-09-30T13:31:26Z</time>
      </trkpt>
      <trkpt lat="47.04047" lon="7.10201">
        <ele>433.8</ele>
        <time>2022-09-30T13:31:27Z</time>
      </trkpt>
      <trkpt lat="47.04051" lon="7.10197">
        <ele>433.8</ele>
        <time>2022-09-30T13:31:28Z</time>
      </trkpt>
      <trkpt lat="47.04056" lon="7.10193">
        <ele>433.8</ele>
        <time>2022-09-30T13:31:29Z</time>
      </trkpt>
      <trkpt lat="47.0406" lon="7.1019">
        <ele>433.8</ele>
        <time>2022-09-30T13:31:30Z</time>
      </trkpt>
      <trkpt lat="47.04064" lon="7.10187">
        <ele>433.8</ele>
        <time>2022-09-30T13:31:31Z</time>
      </trkpt>
      <trkpt lat="47.04068" lon="7.10184">
        <ele>433.8</ele>
        <time>2022-09-30T13:31:32Z</time>
      </trkpt>
      <trkpt lat="47.04072" lon="7.10179">
        <ele>433.8</ele>
        <time>2022-09-30T13:31:33Z</time>
      </trkpt>
      <trkpt lat="47.04076" lon="7.10177">
        <ele>433.8</ele>
        <time>2022-09-30T13:31:34Z</time>
      </trkpt>
      <trkpt lat="47.0408" lon="7.10175">
        <ele>433.8</ele>
        <time>2022-09-30T13:31:35Z</time>
      </trkpt>
      <trkpt lat="47.04083" lon="7.10172">
        <ele>433.8</ele>
        <time>2022-09-30T13:31:36Z</time>
      </trkpt>
      <trkpt lat="47.04086" lon="7.1017">
        <ele>433.8</ele>
        <time>2022-09-30T13:31:37Z</time>
      </trkpt>
      <trkpt lat="47.04089" lon="7.10167">
        <ele>433.8</ele>
        <time>2022-09-30T13:31:38Z</time>
      </trkpt>
      <trkpt lat="47.0409" lon="7.10167">
        <ele>433.8</ele>
        <time>2022-09-30T13:31:39Z</time>
      </trkpt>
      <trkpt lat="47.04093" lon="7.10166">
        <ele>433.8</ele>
        <time>2022-09-30T13:31:40Z</time>
      </trkpt>
      <trkpt lat="47.04096" lon="7.10164">
        <ele>433.8</ele>
        <time>2022-09-30T13:31:41Z</time>
      </trkpt>
      <trkpt lat="47.04099" lon="7.10161">
        <ele>433.8</ele>
        <time>2022-09-30T13:31:42Z</time>
      </trkpt>
      <trkpt lat="47.04101" lon="7.10159">
        <ele>433.8</ele>
        <time>2022-09-30T13:31:43Z</time>
      </trkpt>
      <trkpt lat="47.04104" lon="7.10157">
        <ele>433.8</ele>
        <time>2022-09-30T13:31:44Z</time>
      </trkpt>
      <trkpt lat="47.04107" lon="7.10155">
        <ele>433.8</ele>
        <time>2022-09-30T13:31:45Z</time>
      </trkpt>
      <trkpt lat="47.0411" lon="7.10152">
        <ele>433.8</ele>
        <time>2022-09-30T13:31:46Z</time>
      </trkpt>
      <trkpt lat="47.04114" lon="7.10149">
        <ele>433.8</ele>
        <time>2022-09-30T13:31:47Z</time>
      </trkpt>
      <trkpt lat="47.04118" lon="7.10147">
        <ele>433.8</ele>
        <time>2022-09-30T13:31:48Z</time>
      </trkpt>
      <trkpt lat="47.04121" lon="7.10143">
        <ele>433.8</ele>
        <time>2022-09-30T13:31:49Z</time>
      </trkpt>
      <trkpt lat="47.04125" lon="7.10141">
        <ele>433.8</ele>
        <time>2022-09-30T13:31:50Z</time>
      </trkpt>
      <trkpt lat="47.04128" lon="7.10138">
        <ele>433.8</ele>
        <time>2022-09-30T13:31:51Z</time>
      </trkpt>
      <trkpt lat="47.04132" lon="7.10135">
        <ele>433.8</ele>
        <time>2022-09-30T13:31:52Z</time>
      </trkpt>
      <trkpt lat="47.04136" lon="7.10132">
        <ele>433.8</ele>
        <time>2022-09-30T13:31:53Z</time>
      </trkpt>
      <trkpt lat="47.04139" lon="7.1013">
        <ele>433.8</ele>
        <time>2022-09-30T13:31:54Z</time>
      </trkpt>
      <trkpt lat="47.04143" lon="7.10127">
        <ele>433.7</ele>
        <time>2022-09-30T13:31:55Z</time>
      </trkpt>
      <trkpt lat="47.04147" lon="7.10125">
        <ele>433.7</ele>
        <time>2022-09-30T13:31:56Z</time>
      </trkpt>
      <trkpt lat="47.0415" lon="7.10123">
        <ele>433.7</ele>
        <time>2022-09-30T13:31:57Z</time>
      </trkpt>
      <trkpt lat="47.04154" lon="7.1012">
        <ele>433.7</ele>
        <time>2022-09-30T13:31:58Z</time>
      </trkpt>
      <trkpt lat="47.04159" lon="7.10116">
        <ele>433.7</ele>
        <time>2022-09-30T13:31:59Z</time>
      </trkpt>
      <trkpt lat="47.04163" lon="7.10114">
        <ele>433.7</ele>
        <time>2022-09-30T13:32:00Z</time>
      </trkpt>
      <trkpt lat="47.04167" lon="7.10111">
        <ele>433.7</ele>
        <time>2022-09-30T13:32:01Z</time>
      </trkpt>
      <trkpt lat="47.04173" lon="7.10108">
        <ele>433.7</ele>
        <time>2022-09-30T13:32:02Z</time>
      </trkpt>
      <trkpt lat="47.04177" lon="7.10105">
        <ele>433.7</ele>
        <time>2022-09-30T13:32:03Z</time>
      </trkpt>
      <trkpt lat="47.04181" lon="7.10102">
        <ele>433.7</ele>
        <time>2022-09-30T13:32:04Z</time>
      </trkpt>
      <trkpt lat="47.04187" lon="7.10099">
        <ele>433.7</ele>
        <time>2022-09-30T13:32:05Z</time>
      </trkpt>
      <trkpt lat="47.04192" lon="7.10096">
        <ele>433.7</ele>
        <time>2022-09-30T13:32:06Z</time>
      </trkpt>
      <trkpt lat="47.04197" lon="7.10093">
        <ele>433.7</ele>
        <time>2022-09-30T13:32:07Z</time>
      </trkpt>
      <trkpt lat="47.04202" lon="7.10089">
        <ele>433.7</ele>
        <time>2022-09-30T13:32:08Z</time>
      </trkpt>
      <trkpt lat="47.04207" lon="7.10086">
        <ele>433.7</ele>
        <time>2022-09-30T13:32:09Z</time>
      </trkpt>
      <trkpt lat="47.04211" lon="7.10082">
        <ele>433.7</ele>
        <time>2022-09-30T13:32:10Z</time>
      </trkpt>
      <trkpt lat="47.04216" lon="7.10079">
        <ele>433.7</ele>
        <time>2022-09-30T13:32:11Z</time>
      </trkpt>
      <trkpt lat="47.04221" lon="7.10076">
        <ele>433.7</ele>
        <time>2022-09-30T13:32:12Z</time>
      </trkpt>
      <trkpt lat="47.04225" lon="7.10073">
        <ele>433.7</ele>
        <time>2022-09-30T13:32:13Z</time>
      </trkpt>
      <trkpt lat="47.0423" lon="7.1007">
        <ele>433.7</ele>
        <time>2022-09-30T13:32:14Z</time>
      </trkpt>
      <trkpt lat="47.04234" lon="7.10066">
        <ele>433.8</ele>
        <time>2022-09-30T13:32:15Z</time>
      </trkpt>
      <trkpt lat="47.04239" lon="7.10063">
        <ele>433.8</ele>
        <time>2022-09-30T13:32:16Z</time>
      </trkpt>
      <trkpt lat="47.04243" lon="7.1006">
        <ele>433.8</ele>
        <time>2022-09-30T13:32:17Z</time>
      </trkpt>
      <trkpt lat="47.04247" lon="7.10059">
        <ele>433.7</ele>
        <time>2022-09-30T13:32:18Z</time>
      </trkpt>
      <trkpt lat="47.04251" lon="7.10056">
        <ele>433.7</ele>
        <time>2022-09-30T13:32:19Z</time>
      </trkpt>
      <trkpt lat="47.04255" lon="7.10053">
        <ele>433.7</ele>
        <time>2022-09-30T13:32:20Z</time>
      </trkpt>
      <trkpt lat="47.04258" lon="7.10051">
        <ele>433.7</ele>
        <time>2022-09-30T13:32:21Z</time>
      </trkpt>
      <trkpt lat="47.04261" lon="7.10049">
        <ele>433.7</ele>
        <time>2022-09-30T13:32:22Z</time>
      </trkpt>
      <trkpt lat="47.04264" lon="7.10047">
        <ele>433.7</ele>
        <time>2022-09-30T13:32:23Z</time>
      </trkpt>
      <trkpt lat="47.04268" lon="7.10045">
        <ele>433.7</ele>
        <time>2022-09-30T13:32:24Z</time>
      </trkpt>
      <trkpt lat="47.04273" lon="7.10044">
        <ele>433.7</ele>
        <time>2022-09-30T13:32:25Z</time>
      </trkpt>
      <trkpt lat="47.04277" lon="7.10041">
        <ele>433.7</ele>
        <time>2022-09-30T13:32:26Z</time>
      </trkpt>
      <trkpt lat="47.04281" lon="7.10039">
        <ele>433.7</ele>
        <time>2022-09-30T13:32:27Z</time>
      </trkpt>
      <trkpt lat="47.04285" lon="7.10037">
        <ele>433.7</ele>
        <time>2022-09-30T13:32:28Z</time>
      </trkpt>
      <trkpt lat="47.0429" lon="7.10034">
        <ele>433.7</ele>
        <time>2022-09-30T13:32:29Z</time>
      </trkpt>
      <trkpt lat="47.04293" lon="7.10032">
        <ele>433.6</ele>
        <time>2022-09-30T13:32:30Z</time>
      </trkpt>
      <trkpt lat="47.04297" lon="7.10029">
        <ele>433.6</ele>
        <time>2022-09-30T13:32:31Z</time>
      </trkpt>
      <trkpt lat="47.043" lon="7.10027">
        <ele>433.6</ele>
        <time>2022-09-30T13:32:32Z</time>
      </trkpt>
      <trkpt lat="47.04306" lon="7.10025">
        <ele>433.6</ele>
        <time>2022-09-30T13:32:34Z</time>
      </trkpt>
      <trkpt lat="47.04308" lon="7.10023">
        <ele>433.6</ele>
        <time>2022-09-30T13:32:35Z</time>
      </trkpt>
      <trkpt lat="47.04312" lon="7.10021">
        <ele>433.6</ele>
        <time>2022-09-30T13:32:36Z</time>
      </trkpt>
      <trkpt lat="47.04315" lon="7.10019">
        <ele>433.6</ele>
        <time>2022-09-30T13:32:37Z</time>
      </trkpt>
      <trkpt lat="47.04318" lon="7.10017">
        <ele>433.6</ele>
        <time>2022-09-30T13:32:38Z</time>
      </trkpt>
      <trkpt lat="47.04323" lon="7.10015">
        <ele>433.6</ele>
        <time>2022-09-30T13:32:39Z</time>
      </trkpt>
      <trkpt lat="47.04326" lon="7.10012">
        <ele>433.6</ele>
        <time>2022-09-30T13:32:40Z</time>
      </trkpt>
      <trkpt lat="47.04335" lon="7.10007">
        <ele>433.6</ele>
        <time>2022-09-30T13:32:41Z</time>
      </trkpt>
      <trkpt lat="47.04339" lon="7.10004">
        <ele>433.6</ele>
        <time>2022-09-30T13:32:42Z</time>
      </trkpt>
      <trkpt lat="47.04342" lon="7.10001">
        <ele>433.6</ele>
        <time>2022-09-30T13:32:43Z</time>
      </trkpt>
      <trkpt lat="47.04346" lon="7.09999">
        <ele>433.6</ele>
        <time>2022-09-30T13:32:44Z</time>
      </trkpt>
      <trkpt lat="47.0435" lon="7.09995">
        <ele>433.6</ele>
        <time>2022-09-30T13:32:45Z</time>
      </trkpt>
      <trkpt lat="47.04354" lon="7.09992">
        <ele>433.6</ele>
        <time>2022-09-30T13:32:46Z</time>
      </trkpt>
      <trkpt lat="47.04357" lon="7.0999">
        <ele>433.5</ele>
        <time>2022-09-30T13:32:47Z</time>
      </trkpt>
      <trkpt lat="47.04361" lon="7.09986">
        <ele>433.5</ele>
        <time>2022-09-30T13:32:48Z</time>
      </trkpt>
      <trkpt lat="47.04366" lon="7.09983">
        <ele>433.5</ele>
        <time>2022-09-30T13:32:49Z</time>
      </trkpt>
      <trkpt lat="47.04369" lon="7.09978">
        <ele>433.5</ele>
        <time>2022-09-30T13:32:50Z</time>
      </trkpt>
      <trkpt lat="47.04374" lon="7.09978">
        <ele>433.5</ele>
        <time>2022-09-30T13:32:52Z</time>
      </trkpt>
      <trkpt lat="47.04377" lon="7.09975">
        <ele>433.5</ele>
        <time>2022-09-30T13:32:53Z</time>
      </trkpt>
      <trkpt lat="47.04381" lon="7.09971">
        <ele>433.5</ele>
        <time>2022-09-30T13:32:54Z</time>
      </trkpt>
      <trkpt lat="47.04386" lon="7.09968">
        <ele>433.5</ele>
        <time>2022-09-30T13:32:55Z</time>
      </trkpt>
      <trkpt lat="47.0439" lon="7.09963">
        <ele>433.5</ele>
        <time>2022-09-30T13:32:56Z</time>
      </trkpt>
      <trkpt lat="47.04393" lon="7.09961">
        <ele>433.5</ele>
        <time>2022-09-30T13:32:57Z</time>
      </trkpt>
      <trkpt lat="47.04397" lon="7.09957">
        <ele>433.5</ele>
        <time>2022-09-30T13:32:58Z</time>
      </trkpt>
      <trkpt lat="47.04402" lon="7.09954">
        <ele>433.5</ele>
        <time>2022-09-30T13:32:59Z</time>
      </trkpt>
      <trkpt lat="47.04406" lon="7.0995">
        <ele>433.5</ele>
        <time>2022-09-30T13:33:00Z</time>
      </trkpt>
      <trkpt lat="47.0441" lon="7.09949">
        <ele>433.5</ele>
        <time>2022-09-30T13:33:01Z</time>
      </trkpt>
      <trkpt lat="47.04414" lon="7.09946">
        <ele>433.5</ele>
        <time>2022-09-30T13:33:02Z</time>
      </trkpt>
      <trkpt lat="47.04417" lon="7.09943">
        <ele>433.5</ele>
        <time>2022-09-30T13:33:03Z</time>
      </trkpt>
      <trkpt lat="47.04422" lon="7.0994">
        <ele>433.5</ele>
        <time>2022-09-30T13:33:04Z</time>
      </trkpt>
      <trkpt lat="47.04425" lon="7.09937">
        <ele>433.5</ele>
        <time>2022-09-30T13:33:05Z</time>
      </trkpt>
      <trkpt lat="47.04429" lon="7.09933">
        <ele>433.5</ele>
        <time>2022-09-30T13:33:06Z</time>
      </trkpt>
      <trkpt lat="47.04434" lon="7.0993">
        <ele>433.5</ele>
        <time>2022-09-30T13:33:07Z</time>
      </trkpt>
      <trkpt lat="47.04438" lon="7.09927">
        <ele>433.5</ele>
        <time>2022-09-30T13:33:08Z</time>
      </trkpt>
      <trkpt lat="47.04443" lon="7.09923">
        <ele>433.5</ele>
        <time>2022-09-30T13:33:09Z</time>
      </trkpt>
      <trkpt lat="47.04447" lon="7.09921">
        <ele>433.5</ele>
        <time>2022-09-30T13:33:10Z</time>
      </trkpt>
      <trkpt lat="47.04451" lon="7.09918">
        <ele>433.5</ele>
        <time>2022-09-30T13:33:11Z</time>
      </trkpt>
      <trkpt lat="47.04459" lon="7.09912">
        <ele>433.5</ele>
        <time>2022-09-30T13:33:12Z</time>
      </trkpt>
      <trkpt lat="47.04464" lon="7.0991">
        <ele>433.5</ele>
        <time>2022-09-30T13:33:13Z</time>
      </trkpt>
      <trkpt lat="47.04468" lon="7.09907">
        <ele>433.5</ele>
        <time>2022-09-30T13:33:14Z</time>
      </trkpt>
      <trkpt lat="47.04472" lon="7.09904">
        <ele>433.6</ele>
        <time>2022-09-30T13:33:15Z</time>
      </trkpt>
      <trkpt lat="47.04476" lon="7.09901">
        <ele>433.6</ele>
        <time>2022-09-30T13:33:16Z</time>
      </trkpt>
      <trkpt lat="47.04481" lon="7.09899">
        <ele>433.6</ele>
        <time>2022-09-30T13:33:17Z</time>
      </trkpt>
      <trkpt lat="47.04486" lon="7.09898">
        <ele>433.7</ele>
        <time>2022-09-30T13:33:18Z</time>
      </trkpt>
      <trkpt lat="47.0449" lon="7.09898">
        <ele>433.7</ele>
        <time>2022-09-30T13:33:19Z</time>
      </trkpt>
      <trkpt lat="47.04494" lon="7.09896">
        <ele>433.8</ele>
        <time>2022-09-30T13:33:20Z</time>
      </trkpt>
      <trkpt lat="47.04497" lon="7.09895">
        <ele>433.8</ele>
        <time>2022-09-30T13:33:21Z</time>
      </trkpt>
      <trkpt lat="47.045" lon="7.09893">
        <ele>433.9</ele>
        <time>2022-09-30T13:33:22Z</time>
      </trkpt>
      <trkpt lat="47.04504" lon="7.09892">
        <ele>433.9</ele>
        <time>2022-09-30T13:33:23Z</time>
      </trkpt>
      <trkpt lat="47.04507" lon="7.09891">
        <ele>433.9</ele>
        <time>2022-09-30T13:33:24Z</time>
      </trkpt>
      <trkpt lat="47.04507" lon="7.0989">
        <ele>433.9</ele>
        <time>2022-09-30T13:33:25Z</time>
      </trkpt>
      <trkpt lat="47.04511" lon="7.09888">
        <ele>434</ele>
        <time>2022-09-30T13:33:26Z</time>
      </trkpt>
      <trkpt lat="47.04512" lon="7.09887">
        <ele>434</ele>
        <time>2022-09-30T13:33:27Z</time>
      </trkpt>
      <trkpt lat="47.04514" lon="7.09884">
        <ele>434</ele>
        <time>2022-09-30T13:33:28Z</time>
      </trkpt>
      <trkpt lat="47.04514" lon="7.09881">
        <ele>434</ele>
        <time>2022-09-30T13:33:29Z</time>
      </trkpt>
      <trkpt lat="47.04516" lon="7.09878">
        <ele>434.1</ele>
        <time>2022-09-30T13:33:30Z</time>
      </trkpt>
      <trkpt lat="47.04518" lon="7.09877">
        <ele>434</ele>
        <time>2022-09-30T13:33:31Z</time>
      </trkpt>
      <trkpt lat="47.0452" lon="7.09878">
        <ele>434</ele>
        <time>2022-09-30T13:33:32Z</time>
      </trkpt>
      <trkpt lat="47.04523" lon="7.09879">
        <ele>434</ele>
        <time>2022-09-30T13:33:33Z</time>
      </trkpt>
      <trkpt lat="47.04528" lon="7.09883">
        <ele>433.9</ele>
        <time>2022-09-30T13:33:34Z</time>
      </trkpt>
      <trkpt lat="47.04528" lon="7.09886">
        <ele>433.9</ele>
        <time>2022-09-30T13:33:35Z</time>
      </trkpt>
      <trkpt lat="47.04529" lon="7.09887">
        <ele>433.9</ele>
        <time>2022-09-30T13:33:36Z</time>
      </trkpt>
      <trkpt lat="47.0453" lon="7.09888">
        <ele>433.8</ele>
        <time>2022-09-30T13:33:37Z</time>
      </trkpt>
      <trkpt lat="47.0453" lon="7.09888">
        <ele>433.8</ele>
        <time>2022-09-30T13:33:38Z</time>
      </trkpt>
      <trkpt lat="47.04531" lon="7.09888">
        <ele>433.8</ele>
        <time>2022-09-30T13:33:39Z</time>
      </trkpt>
      <trkpt lat="47.04531" lon="7.09889">
        <ele>433.8</ele>
        <time>2022-09-30T13:33:40Z</time>
      </trkpt>
      <trkpt lat="47.04532" lon="7.09889">
        <ele>433.8</ele>
        <time>2022-09-30T13:33:41Z</time>
      </trkpt>
      <trkpt lat="47.04532" lon="7.09889">
        <ele>433.8</ele>
        <time>2022-09-30T13:33:42Z</time>
      </trkpt>
      <trkpt lat="47.04532" lon="7.09889">
        <ele>433.8</ele>
        <time>2022-09-30T13:33:43Z</time>
      </trkpt>
      <trkpt lat="47.04533" lon="7.09889">
        <ele>433.8</ele>
        <time>2022-09-30T13:33:44Z</time>
      </trkpt>
      <trkpt lat="47.04533" lon="7.09889">
        <ele>433.8</ele>
        <time>2022-09-30T13:33:45Z</time>
      </trkpt>
      <trkpt lat="47.04534" lon="7.09889">
        <ele>433.8</ele>
        <time>2022-09-30T13:33:46Z</time>
      </trkpt>
      <trkpt lat="47.04533" lon="7.09889">
        <ele>433.8</ele>
        <time>2022-09-30T13:33:47Z</time>
      </trkpt>
      <trkpt lat="47.04532" lon="7.0989">
        <ele>433.8</ele>
        <time>2022-09-30T13:33:48Z</time>
      </trkpt>
      <trkpt lat="47.04532" lon="7.0989">
        <ele>433.8</ele>
        <time>2022-09-30T13:33:49Z</time>
      </trkpt>
      <trkpt lat="47.04531" lon="7.09891">
        <ele>433.7</ele>
        <time>2022-09-30T13:33:50Z</time>
      </trkpt>
      <trkpt lat="47.04531" lon="7.09891">
        <ele>433.7</ele>
        <time>2022-09-30T13:33:51Z</time>
      </trkpt>
      <trkpt lat="47.0453" lon="7.09892">
        <ele>433.7</ele>
        <time>2022-09-30T13:33:52Z</time>
      </trkpt>
      <trkpt lat="47.0453" lon="7.09892">
        <ele>433.7</ele>
        <time>2022-09-30T13:33:53Z</time>
      </trkpt>
      <trkpt lat="47.04529" lon="7.09892">
        <ele>433.7</ele>
        <time>2022-09-30T13:33:54Z</time>
      </trkpt>
      <trkpt lat="47.04529" lon="7.09893">
        <ele>433.7</ele>
        <time>2022-09-30T13:33:55Z</time>
      </trkpt>
      <trkpt lat="47.04528" lon="7.09893">
        <ele>433.7</ele>
        <time>2022-09-30T13:33:56Z</time>
      </trkpt>
      <trkpt lat="47.04528" lon="7.09894">
        <ele>433.7</ele>
        <time>2022-09-30T13:34:31Z</time>
      </trkpt>
      <trkpt lat="47.04528" lon="7.09894">
        <ele>433.7</ele>
        <time>2022-09-30T13:34:32Z</time>
      </trkpt>
      <trkpt lat="47.04529" lon="7.09898">
        <ele>433.6</ele>
        <time>2022-09-30T13:34:33Z</time>
      </trkpt>
      <trkpt lat="47.0453" lon="7.09899">
        <ele>433.6</ele>
        <time>2022-09-30T13:34:34Z</time>
      </trkpt>
      <trkpt lat="47.04532" lon="7.09903">
        <ele>433.6</ele>
        <time>2022-09-30T13:34:35Z</time>
      </trkpt>
      <trkpt lat="47.04533" lon="7.09906">
        <ele>433.5</ele>
        <time>2022-09-30T13:34:36Z</time>
      </trkpt>
      <trkpt lat="47.04535" lon="7.0991">
        <ele>433.5</ele>
        <time>2022-09-30T13:34:37Z</time>
      </trkpt>
      <trkpt lat="47.04538" lon="7.09915">
        <ele>433.4</ele>
        <time>2022-09-30T13:34:38Z</time>
      </trkpt>
      <trkpt lat="47.0454" lon="7.0992">
        <ele>433.4</ele>
        <time>2022-09-30T13:34:40Z</time>
      </trkpt>
      <trkpt lat="47.04541" lon="7.09922">
        <ele>433.3</ele>
        <time>2022-09-30T13:34:41Z</time>
      </trkpt>
      <trkpt lat="47.04544" lon="7.09926">
        <ele>433.3</ele>
        <time>2022-09-30T13:34:42Z</time>
      </trkpt>
      <trkpt lat="47.04548" lon="7.09935">
        <ele>433.2</ele>
        <time>2022-09-30T13:34:43Z</time>
      </trkpt>
      <trkpt lat="47.0455" lon="7.09941">
        <ele>433.1</ele>
        <time>2022-09-30T13:34:44Z</time>
      </trkpt>
      <trkpt lat="47.04553" lon="7.09946">
        <ele>433.1</ele>
        <time>2022-09-30T13:34:45Z</time>
      </trkpt>
      <trkpt lat="47.04556" lon="7.09951">
        <ele>433</ele>
        <time>2022-09-30T13:34:46Z</time>
      </trkpt>
      <trkpt lat="47.04559" lon="7.09956">
        <ele>433</ele>
        <time>2022-09-30T13:34:47Z</time>
      </trkpt>
      <trkpt lat="47.04561" lon="7.09961">
        <ele>433</ele>
        <time>2022-09-30T13:34:48Z</time>
      </trkpt>
      <trkpt lat="47.04563" lon="7.09966">
        <ele>432.9</ele>
        <time>2022-09-30T13:34:49Z</time>
      </trkpt>
      <trkpt lat="47.04566" lon="7.09971">
        <ele>432.9</ele>
        <time>2022-09-30T13:34:50Z</time>
      </trkpt>
      <trkpt lat="47.04568" lon="7.09977">
        <ele>432.9</ele>
        <time>2022-09-30T13:34:51Z</time>
      </trkpt>
      <trkpt lat="47.04571" lon="7.09982">
        <ele>432.9</ele>
        <time>2022-09-30T13:34:52Z</time>
      </trkpt>
      <trkpt lat="47.04574" lon="7.09987">
        <ele>432.8</ele>
        <time>2022-09-30T13:34:53Z</time>
      </trkpt>
      <trkpt lat="47.04576" lon="7.09993">
        <ele>432.8</ele>
        <time>2022-09-30T13:34:54Z</time>
      </trkpt>
      <trkpt lat="47.04579" lon="7.09998">
        <ele>432.8</ele>
        <time>2022-09-30T13:34:55Z</time>
      </trkpt>
      <trkpt lat="47.04581" lon="7.10002">
        <ele>432.7</ele>
        <time>2022-09-30T13:34:56Z</time>
      </trkpt>
      <trkpt lat="47.04583" lon="7.10008">
        <ele>432.7</ele>
        <time>2022-09-30T13:34:57Z</time>
      </trkpt>
      <trkpt lat="47.04586" lon="7.10014">
        <ele>432.7</ele>
        <time>2022-09-30T13:34:58Z</time>
      </trkpt>
      <trkpt lat="47.04588" lon="7.1002">
        <ele>432.6</ele>
        <time>2022-09-30T13:34:59Z</time>
      </trkpt>
      <trkpt lat="47.04591" lon="7.10025">
        <ele>432.6</ele>
        <time>2022-09-30T13:35:00Z</time>
      </trkpt>
      <trkpt lat="47.04593" lon="7.1003">
        <ele>432.6</ele>
        <time>2022-09-30T13:35:01Z</time>
      </trkpt>
      <trkpt lat="47.04597" lon="7.10036">
        <ele>432.6</ele>
        <time>2022-09-30T13:35:02Z</time>
      </trkpt>
      <trkpt lat="47.046" lon="7.10042">
        <ele>432.6</ele>
        <time>2022-09-30T13:35:03Z</time>
      </trkpt>
      <trkpt lat="47.04602" lon="7.10048">
        <ele>432.6</ele>
        <time>2022-09-30T13:35:04Z</time>
      </trkpt>
      <trkpt lat="47.04605" lon="7.10053">
        <ele>432.5</ele>
        <time>2022-09-30T13:35:05Z</time>
      </trkpt>
      <trkpt lat="47.04607" lon="7.10059">
        <ele>432.5</ele>
        <time>2022-09-30T13:35:06Z</time>
      </trkpt>
      <trkpt lat="47.04609" lon="7.10062">
        <ele>432.5</ele>
        <time>2022-09-30T13:35:07Z</time>
      </trkpt>
      <trkpt lat="47.04612" lon="7.1007">
        <ele>432.5</ele>
        <time>2022-09-30T13:35:08Z</time>
      </trkpt>
      <trkpt lat="47.04616" lon="7.10076">
        <ele>432.5</ele>
        <time>2022-09-30T13:35:09Z</time>
      </trkpt>
      <trkpt lat="47.04618" lon="7.10081">
        <ele>432.5</ele>
        <time>2022-09-30T13:35:10Z</time>
      </trkpt>
      <trkpt lat="47.0462" lon="7.10085">
        <ele>432.5</ele>
        <time>2022-09-30T13:35:11Z</time>
      </trkpt>
      <trkpt lat="47.04621" lon="7.10091">
        <ele>432.5</ele>
        <time>2022-09-30T13:35:12Z</time>
      </trkpt>
      <trkpt lat="47.04622" lon="7.10095">
        <ele>432.5</ele>
        <time>2022-09-30T13:35:13Z</time>
      </trkpt>
      <trkpt lat="47.04626" lon="7.10101">
        <ele>432.5</ele>
        <time>2022-09-30T13:35:14Z</time>
      </trkpt>
      <trkpt lat="47.04629" lon="7.10106">
        <ele>432.5</ele>
        <time>2022-09-30T13:35:15Z</time>
      </trkpt>
      <trkpt lat="47.04631" lon="7.10109">
        <ele>432.5</ele>
        <time>2022-09-30T13:35:16Z</time>
      </trkpt>
      <trkpt lat="47.04633" lon="7.10113">
        <ele>432.5</ele>
        <time>2022-09-30T13:35:17Z</time>
      </trkpt>
      <trkpt lat="47.04634" lon="7.10118">
        <ele>432.5</ele>
        <time>2022-09-30T13:35:18Z</time>
      </trkpt>
      <trkpt lat="47.04637" lon="7.10123">
        <ele>432.5</ele>
        <time>2022-09-30T13:35:19Z</time>
      </trkpt>
      <trkpt lat="47.0464" lon="7.10127">
        <ele>432.6</ele>
        <time>2022-09-30T13:35:20Z</time>
      </trkpt>
      <trkpt lat="47.04643" lon="7.10129">
        <ele>432.6</ele>
        <time>2022-09-30T13:35:21Z</time>
      </trkpt>
      <trkpt lat="47.04645" lon="7.10134">
        <ele>432.6</ele>
        <time>2022-09-30T13:35:22Z</time>
      </trkpt>
      <trkpt lat="47.04648" lon="7.10137">
        <ele>432.7</ele>
        <time>2022-09-30T13:35:23Z</time>
      </trkpt>
      <trkpt lat="47.04651" lon="7.10141">
        <ele>432.7</ele>
        <time>2022-09-30T13:35:24Z</time>
      </trkpt>
      <trkpt lat="47.04652" lon="7.10142">
        <ele>432.8</ele>
        <time>2022-09-30T13:35:25Z</time>
      </trkpt>
      <trkpt lat="47.04652" lon="7.10144">
        <ele>432.8</ele>
        <time>2022-09-30T13:35:26Z</time>
      </trkpt>
      <trkpt lat="47.04654" lon="7.10146">
        <ele>432.8</ele>
        <time>2022-09-30T13:35:27Z</time>
      </trkpt>
      <trkpt lat="47.04655" lon="7.10147">
        <ele>432.8</ele>
        <time>2022-09-30T13:35:28Z</time>
      </trkpt>
      <trkpt lat="47.04657" lon="7.10149">
        <ele>432.8</ele>
        <time>2022-09-30T13:35:29Z</time>
      </trkpt>
      <trkpt lat="47.04658" lon="7.10153">
        <ele>432.8</ele>
        <time>2022-09-30T13:35:30Z</time>
      </trkpt>
      <trkpt lat="47.04659" lon="7.10154">
        <ele>432.8</ele>
        <time>2022-09-30T13:35:31Z</time>
      </trkpt>
      <trkpt lat="47.04661" lon="7.10157">
        <ele>432.8</ele>
        <time>2022-09-30T13:35:32Z</time>
      </trkpt>
      <trkpt lat="47.04662" lon="7.10157">
        <ele>432.8</ele>
        <time>2022-09-30T13:35:33Z</time>
      </trkpt>
      <trkpt lat="47.04664" lon="7.10158">
        <ele>432.8</ele>
        <time>2022-09-30T13:35:34Z</time>
      </trkpt>
      <trkpt lat="47.04665" lon="7.10158">
        <ele>432.8</ele>
        <time>2022-09-30T13:35:35Z</time>
      </trkpt>
      <trkpt lat="47.04666" lon="7.10159">
        <ele>432.8</ele>
        <time>2022-09-30T13:35:36Z</time>
      </trkpt>
      <trkpt lat="47.04667" lon="7.10161">
        <ele>432.8</ele>
        <time>2022-09-30T13:35:37Z</time>
      </trkpt>
      <trkpt lat="47.04666" lon="7.10165">
        <ele>432.8</ele>
        <time>2022-09-30T13:35:38Z</time>
      </trkpt>
      <trkpt lat="47.04666" lon="7.10167">
        <ele>432.8</ele>
        <time>2022-09-30T13:35:39Z</time>
      </trkpt>
      <trkpt lat="47.04667" lon="7.10172">
        <ele>432.7</ele>
        <time>2022-09-30T13:35:40Z</time>
      </trkpt>
      <trkpt lat="47.04667" lon="7.10173">
        <ele>432.7</ele>
        <time>2022-09-30T13:35:41Z</time>
      </trkpt>
      <trkpt lat="47.04667" lon="7.10176">
        <ele>432.6</ele>
        <time>2022-09-30T13:35:42Z</time>
      </trkpt>
      <trkpt lat="47.04668" lon="7.10178">
        <ele>432.5</ele>
        <time>2022-09-30T13:35:43Z</time>
      </trkpt>
      <trkpt lat="47.04671" lon="7.10181">
        <ele>432.5</ele>
        <time>2022-09-30T13:35:44Z</time>
      </trkpt>
      <trkpt lat="47.04672" lon="7.10184">
        <ele>432.4</ele>
        <time>2022-09-30T13:35:45Z</time>
      </trkpt>
      <trkpt lat="47.04673" lon="7.10189">
        <ele>432.3</ele>
        <time>2022-09-30T13:35:46Z</time>
      </trkpt>
      <trkpt lat="47.04675" lon="7.10193">
        <ele>432.2</ele>
        <time>2022-09-30T13:35:47Z</time>
      </trkpt>
      <trkpt lat="47.04676" lon="7.10198">
        <ele>432.2</ele>
        <time>2022-09-30T13:35:48Z</time>
      </trkpt>
      <trkpt lat="47.04676" lon="7.102">
        <ele>432.1</ele>
        <time>2022-09-30T13:35:49Z</time>
      </trkpt>
      <trkpt lat="47.04678" lon="7.10204">
        <ele>432.1</ele>
        <time>2022-09-30T13:35:50Z</time>
      </trkpt>
      <trkpt lat="47.04679" lon="7.10208">
        <ele>432.1</ele>
        <time>2022-09-30T13:35:51Z</time>
      </trkpt>
      <trkpt lat="47.04682" lon="7.10213">
        <ele>432</ele>
        <time>2022-09-30T13:35:52Z</time>
      </trkpt>
      <trkpt lat="47.04683" lon="7.10216">
        <ele>432</ele>
        <time>2022-09-30T13:35:53Z</time>
      </trkpt>
      <trkpt lat="47.04685" lon="7.1022">
        <ele>432</ele>
        <time>2022-09-30T13:35:54Z</time>
      </trkpt>
      <trkpt lat="47.04686" lon="7.10224">
        <ele>432</ele>
        <time>2022-09-30T13:35:55Z</time>
      </trkpt>
      <trkpt lat="47.04686" lon="7.10226">
        <ele>432</ele>
        <time>2022-09-30T13:35:56Z</time>
      </trkpt>
      <trkpt lat="47.04689" lon="7.1023">
        <ele>431.9</ele>
        <time>2022-09-30T13:35:57Z</time>
      </trkpt>
      <trkpt lat="47.04692" lon="7.10235">
        <ele>431.9</ele>
        <time>2022-09-30T13:35:58Z</time>
      </trkpt>
      <trkpt lat="47.04695" lon="7.1024">
        <ele>431.9</ele>
        <time>2022-09-30T13:35:59Z</time>
      </trkpt>
      <trkpt lat="47.04698" lon="7.10245">
        <ele>431.9</ele>
        <time>2022-09-30T13:36:00Z</time>
      </trkpt>
      <trkpt lat="47.04701" lon="7.10252">
        <ele>431.9</ele>
        <time>2022-09-30T13:36:01Z</time>
      </trkpt>
      <trkpt lat="47.04704" lon="7.10257">
        <ele>431.9</ele>
        <time>2022-09-30T13:36:02Z</time>
      </trkpt>
      <trkpt lat="47.04707" lon="7.10263">
        <ele>431.9</ele>
        <time>2022-09-30T13:36:03Z</time>
      </trkpt>
      <trkpt lat="47.0471" lon="7.10268">
        <ele>431.9</ele>
        <time>2022-09-30T13:36:04Z</time>
      </trkpt>
      <trkpt lat="47.04712" lon="7.10272">
        <ele>431.8</ele>
        <time>2022-09-30T13:36:05Z</time>
      </trkpt>
      <trkpt lat="47.04713" lon="7.10279">
        <ele>431.8</ele>
        <time>2022-09-30T13:36:06Z</time>
      </trkpt>
      <trkpt lat="47.04717" lon="7.10286">
        <ele>431.8</ele>
        <time>2022-09-30T13:36:07Z</time>
      </trkpt>
      <trkpt lat="47.04718" lon="7.10292">
        <ele>431.8</ele>
        <time>2022-09-30T13:36:08Z</time>
      </trkpt>
      <trkpt lat="47.04721" lon="7.10298">
        <ele>431.8</ele>
        <time>2022-09-30T13:36:09Z</time>
      </trkpt>
      <trkpt lat="47.04722" lon="7.10304">
        <ele>431.8</ele>
        <time>2022-09-30T13:36:10Z</time>
      </trkpt>
      <trkpt lat="47.04725" lon="7.10309">
        <ele>431.8</ele>
        <time>2022-09-30T13:36:11Z</time>
      </trkpt>
      <trkpt lat="47.04729" lon="7.10316">
        <ele>431.8</ele>
        <time>2022-09-30T13:36:12Z</time>
      </trkpt>
      <trkpt lat="47.04731" lon="7.10321">
        <ele>431.8</ele>
        <time>2022-09-30T13:36:13Z</time>
      </trkpt>
      <trkpt lat="47.04733" lon="7.10327">
        <ele>431.8</ele>
        <time>2022-09-30T13:36:14Z</time>
      </trkpt>
      <trkpt lat="47.04735" lon="7.10334">
        <ele>431.8</ele>
        <time>2022-09-30T13:36:15Z</time>
      </trkpt>
      <trkpt lat="47.04738" lon="7.10339">
        <ele>431.8</ele>
        <time>2022-09-30T13:36:16Z</time>
      </trkpt>
      <trkpt lat="47.04741" lon="7.10347">
        <ele>431.8</ele>
        <time>2022-09-30T13:36:17Z</time>
      </trkpt>
      <trkpt lat="47.04744" lon="7.10353">
        <ele>431.8</ele>
        <time>2022-09-30T13:36:18Z</time>
      </trkpt>
      <trkpt lat="47.04747" lon="7.1036">
        <ele>431.8</ele>
        <time>2022-09-30T13:36:19Z</time>
      </trkpt>
      <trkpt lat="47.0475" lon="7.10367">
        <ele>431.8</ele>
        <time>2022-09-30T13:36:20Z</time>
      </trkpt>
      <trkpt lat="47.04754" lon="7.10373">
        <ele>431.8</ele>
        <time>2022-09-30T13:36:21Z</time>
      </trkpt>
      <trkpt lat="47.04757" lon="7.10379">
        <ele>431.8</ele>
        <time>2022-09-30T13:36:22Z</time>
      </trkpt>
      <trkpt lat="47.0476" lon="7.10385">
        <ele>431.8</ele>
        <time>2022-09-30T13:36:23Z</time>
      </trkpt>
      <trkpt lat="47.04764" lon="7.10391">
        <ele>431.8</ele>
        <time>2022-09-30T13:36:24Z</time>
      </trkpt>
      <trkpt lat="47.04766" lon="7.10397">
        <ele>431.8</ele>
        <time>2022-09-30T13:36:25Z</time>
      </trkpt>
      <trkpt lat="47.04769" lon="7.10403">
        <ele>431.8</ele>
        <time>2022-09-30T13:36:26Z</time>
      </trkpt>
      <trkpt lat="47.04771" lon="7.10409">
        <ele>431.8</ele>
        <time>2022-09-30T13:36:27Z</time>
      </trkpt>
      <trkpt lat="47.04774" lon="7.10414">
        <ele>431.8</ele>
        <time>2022-09-30T13:36:28Z</time>
      </trkpt>
      <trkpt lat="47.04776" lon="7.1042">
        <ele>431.8</ele>
        <time>2022-09-30T13:36:29Z</time>
      </trkpt>
      <trkpt lat="47.04779" lon="7.10425">
        <ele>431.8</ele>
        <time>2022-09-30T13:36:30Z</time>
      </trkpt>
      <trkpt lat="47.04782" lon="7.10431">
        <ele>431.8</ele>
        <time>2022-09-30T13:36:31Z</time>
      </trkpt>
      <trkpt lat="47.04784" lon="7.10436">
        <ele>431.8</ele>
        <time>2022-09-30T13:36:32Z</time>
      </trkpt>
      <trkpt lat="47.04786" lon="7.10443">
        <ele>431.8</ele>
        <time>2022-09-30T13:36:33Z</time>
      </trkpt>
      <trkpt lat="47.0479" lon="7.1045">
        <ele>431.8</ele>
        <time>2022-09-30T13:36:34Z</time>
      </trkpt>
      <trkpt lat="47.04792" lon="7.10456">
        <ele>431.8</ele>
        <time>2022-09-30T13:36:35Z</time>
      </trkpt>
      <trkpt lat="47.04795" lon="7.10462">
        <ele>431.8</ele>
        <time>2022-09-30T13:36:36Z</time>
      </trkpt>
      <trkpt lat="47.04798" lon="7.10468">
        <ele>431.8</ele>
        <time>2022-09-30T13:36:37Z</time>
      </trkpt>
      <trkpt lat="47.04801" lon="7.10473">
        <ele>431.8</ele>
        <time>2022-09-30T13:36:38Z</time>
      </trkpt>
      <trkpt lat="47.04804" lon="7.1048">
        <ele>431.8</ele>
        <time>2022-09-30T13:36:39Z</time>
      </trkpt>
      <trkpt lat="47.04807" lon="7.10486">
        <ele>431.8</ele>
        <time>2022-09-30T13:36:40Z</time>
      </trkpt>
      <trkpt lat="47.04809" lon="7.10492">
        <ele>431.8</ele>
        <time>2022-09-30T13:36:41Z</time>
      </trkpt>
      <trkpt lat="47.04812" lon="7.10498">
        <ele>431.8</ele>
        <time>2022-09-30T13:36:42Z</time>
      </trkpt>
      <trkpt lat="47.04815" lon="7.10504">
        <ele>431.8</ele>
        <time>2022-09-30T13:36:43Z</time>
      </trkpt>
      <trkpt lat="47.04818" lon="7.1051">
        <ele>431.8</ele>
        <time>2022-09-30T13:36:44Z</time>
      </trkpt>
      <trkpt lat="47.04821" lon="7.10516">
        <ele>431.8</ele>
        <time>2022-09-30T13:36:46Z</time>
      </trkpt>
      <trkpt lat="47.04823" lon="7.10521">
        <ele>431.8</ele>
        <time>2022-09-30T13:36:47Z</time>
      </trkpt>
      <trkpt lat="47.04826" lon="7.10528">
        <ele>431.8</ele>
        <time>2022-09-30T13:36:48Z</time>
      </trkpt>
      <trkpt lat="47.04828" lon="7.10532">
        <ele>431.8</ele>
        <time>2022-09-30T13:36:49Z</time>
      </trkpt>
      <trkpt lat="47.0483" lon="7.10537">
        <ele>431.8</ele>
        <time>2022-09-30T13:36:50Z</time>
      </trkpt>
      <trkpt lat="47.04833" lon="7.10545">
        <ele>431.8</ele>
        <time>2022-09-30T13:36:51Z</time>
      </trkpt>
      <trkpt lat="47.04835" lon="7.10551">
        <ele>431.8</ele>
        <time>2022-09-30T13:36:52Z</time>
      </trkpt>
      <trkpt lat="47.04838" lon="7.10557">
        <ele>431.8</ele>
        <time>2022-09-30T13:36:53Z</time>
      </trkpt>
      <trkpt lat="47.04842" lon="7.10562">
        <ele>431.8</ele>
        <time>2022-09-30T13:36:54Z</time>
      </trkpt>
      <trkpt lat="47.04845" lon="7.10568">
        <ele>431.8</ele>
        <time>2022-09-30T13:36:55Z</time>
      </trkpt>
      <trkpt lat="47.04847" lon="7.10574">
        <ele>431.8</ele>
        <time>2022-09-30T13:36:56Z</time>
      </trkpt>
      <trkpt lat="47.0485" lon="7.1058">
        <ele>431.8</ele>
        <time>2022-09-30T13:36:57Z</time>
      </trkpt>
      <trkpt lat="47.04853" lon="7.10586">
        <ele>431.8</ele>
        <time>2022-09-30T13:36:58Z</time>
      </trkpt>
      <trkpt lat="47.04855" lon="7.10591">
        <ele>431.8</ele>
        <time>2022-09-30T13:36:59Z</time>
      </trkpt>
      <trkpt lat="47.04858" lon="7.10596">
        <ele>431.8</ele>
        <time>2022-09-30T13:37:00Z</time>
      </trkpt>
      <trkpt lat="47.0486" lon="7.10602">
        <ele>431.8</ele>
        <time>2022-09-30T13:37:01Z</time>
      </trkpt>
      <trkpt lat="47.04864" lon="7.10608">
        <ele>431.8</ele>
        <time>2022-09-30T13:37:02Z</time>
      </trkpt>
      <trkpt lat="47.04867" lon="7.10614">
        <ele>431.8</ele>
        <time>2022-09-30T13:37:03Z</time>
      </trkpt>
      <trkpt lat="47.04869" lon="7.1062">
        <ele>431.8</ele>
        <time>2022-09-30T13:37:04Z</time>
      </trkpt>
      <trkpt lat="47.0487" lon="7.10623">
        <ele>431.8</ele>
        <time>2022-09-30T13:37:05Z</time>
      </trkpt>
      <trkpt lat="47.04874" lon="7.10633">
        <ele>431.8</ele>
        <time>2022-09-30T13:37:06Z</time>
      </trkpt>
      <trkpt lat="47.04876" lon="7.10638">
        <ele>431.8</ele>
        <time>2022-09-30T13:37:07Z</time>
      </trkpt>
      <trkpt lat="47.04881" lon="7.10645">
        <ele>431.8</ele>
        <time>2022-09-30T13:37:08Z</time>
      </trkpt>
      <trkpt lat="47.04884" lon="7.10652">
        <ele>431.8</ele>
        <time>2022-09-30T13:37:09Z</time>
      </trkpt>
      <trkpt lat="47.04886" lon="7.10657">
        <ele>431.8</ele>
        <time>2022-09-30T13:37:10Z</time>
      </trkpt>
      <trkpt lat="47.04889" lon="7.10663">
        <ele>431.8</ele>
        <time>2022-09-30T13:37:11Z</time>
      </trkpt>
      <trkpt lat="47.04891" lon="7.10667">
        <ele>431.8</ele>
        <time>2022-09-30T13:37:12Z</time>
      </trkpt>
      <trkpt lat="47.04892" lon="7.1067">
        <ele>431.8</ele>
        <time>2022-09-30T13:37:13Z</time>
      </trkpt>
      <trkpt lat="47.04895" lon="7.10675">
        <ele>431.8</ele>
        <time>2022-09-30T13:37:14Z</time>
      </trkpt>
      <trkpt lat="47.04896" lon="7.10681">
        <ele>431.8</ele>
        <time>2022-09-30T13:37:15Z</time>
      </trkpt>
      <trkpt lat="47.04897" lon="7.10683">
        <ele>431.8</ele>
        <time>2022-09-30T13:37:16Z</time>
      </trkpt>
      <trkpt lat="47.04897" lon="7.10688">
        <ele>431.8</ele>
        <time>2022-09-30T13:37:17Z</time>
      </trkpt>
      <trkpt lat="47.049" lon="7.10691">
        <ele>431.8</ele>
        <time>2022-09-30T13:37:18Z</time>
      </trkpt>
      <trkpt lat="47.04904" lon="7.10699">
        <ele>431.9</ele>
        <time>2022-09-30T13:37:19Z</time>
      </trkpt>
      <trkpt lat="47.04907" lon="7.10706">
        <ele>431.9</ele>
        <time>2022-09-30T13:37:20Z</time>
      </trkpt>
      <trkpt lat="47.0491" lon="7.10708">
        <ele>431.9</ele>
        <time>2022-09-30T13:37:21Z</time>
      </trkpt>
      <trkpt lat="47.0491" lon="7.10714">
        <ele>431.9</ele>
        <time>2022-09-30T13:37:22Z</time>
      </trkpt>
      <trkpt lat="47.04912" lon="7.10717">
        <ele>431.9</ele>
        <time>2022-09-30T13:37:23Z</time>
      </trkpt>
      <trkpt lat="47.04914" lon="7.10722">
        <ele>431.9</ele>
        <time>2022-09-30T13:37:24Z</time>
      </trkpt>
      <trkpt lat="47.04916" lon="7.10727">
        <ele>431.8</ele>
        <time>2022-09-30T13:37:25Z</time>
      </trkpt>
      <trkpt lat="47.04919" lon="7.10733">
        <ele>431.8</ele>
        <time>2022-09-30T13:37:26Z</time>
      </trkpt>
      <trkpt lat="47.04922" lon="7.10741">
        <ele>431.8</ele>
        <time>2022-09-30T13:37:27Z</time>
      </trkpt>
      <trkpt lat="47.04926" lon="7.10747">
        <ele>431.8</ele>
        <time>2022-09-30T13:37:28Z</time>
      </trkpt>
      <trkpt lat="47.04929" lon="7.10754">
        <ele>431.8</ele>
        <time>2022-09-30T13:37:29Z</time>
      </trkpt>
      <trkpt lat="47.04932" lon="7.1076">
        <ele>431.8</ele>
        <time>2022-09-30T13:37:30Z</time>
      </trkpt>
      <trkpt lat="47.04935" lon="7.10765">
        <ele>431.9</ele>
        <time>2022-09-30T13:37:31Z</time>
      </trkpt>
      <trkpt lat="47.04938" lon="7.10771">
        <ele>431.9</ele>
        <time>2022-09-30T13:37:32Z</time>
      </trkpt>
      <trkpt lat="47.04941" lon="7.10778">
        <ele>431.9</ele>
        <time>2022-09-30T13:37:33Z</time>
      </trkpt>
      <trkpt lat="47.04944" lon="7.10783">
        <ele>431.9</ele>
        <time>2022-09-30T13:37:34Z</time>
      </trkpt>
      <trkpt lat="47.04947" lon="7.1079">
        <ele>431.9</ele>
        <time>2022-09-30T13:37:35Z</time>
      </trkpt>
      <trkpt lat="47.0495" lon="7.10796">
        <ele>431.9</ele>
        <time>2022-09-30T13:37:36Z</time>
      </trkpt>
      <trkpt lat="47.04953" lon="7.10802">
        <ele>431.9</ele>
        <time>2022-09-30T13:37:37Z</time>
      </trkpt>
      <trkpt lat="47.04955" lon="7.10807">
        <ele>431.8</ele>
        <time>2022-09-30T13:37:38Z</time>
      </trkpt>
      <trkpt lat="47.04958" lon="7.10813">
        <ele>431.8</ele>
        <time>2022-09-30T13:37:39Z</time>
      </trkpt>
      <trkpt lat="47.04961" lon="7.10819">
        <ele>431.8</ele>
        <time>2022-09-30T13:37:40Z</time>
      </trkpt>
      <trkpt lat="47.04963" lon="7.10824">
        <ele>431.8</ele>
        <time>2022-09-30T13:37:41Z</time>
      </trkpt>
      <trkpt lat="47.04966" lon="7.1083">
        <ele>431.8</ele>
        <time>2022-09-30T13:37:42Z</time>
      </trkpt>
      <trkpt lat="47.04968" lon="7.10835">
        <ele>431.8</ele>
        <time>2022-09-30T13:37:43Z</time>
      </trkpt>
      <trkpt lat="47.04972" lon="7.10842">
        <ele>431.8</ele>
        <time>2022-09-30T13:37:44Z</time>
      </trkpt>
      <trkpt lat="47.04975" lon="7.10848">
        <ele>431.8</ele>
        <time>2022-09-30T13:37:45Z</time>
      </trkpt>
      <trkpt lat="47.04977" lon="7.10854">
        <ele>431.8</ele>
        <time>2022-09-30T13:37:46Z</time>
      </trkpt>
      <trkpt lat="47.0498" lon="7.1086">
        <ele>431.8</ele>
        <time>2022-09-30T13:37:47Z</time>
      </trkpt>
      <trkpt lat="47.04982" lon="7.10865">
        <ele>431.8</ele>
        <time>2022-09-30T13:37:48Z</time>
      </trkpt>
      <trkpt lat="47.04985" lon="7.10871">
        <ele>431.8</ele>
        <time>2022-09-30T13:37:49Z</time>
      </trkpt>
      <trkpt lat="47.04988" lon="7.10877">
        <ele>431.8</ele>
        <time>2022-09-30T13:37:50Z</time>
      </trkpt>
      <trkpt lat="47.04991" lon="7.10884">
        <ele>431.8</ele>
        <time>2022-09-30T13:37:51Z</time>
      </trkpt>
      <trkpt lat="47.04993" lon="7.10889">
        <ele>431.7</ele>
        <time>2022-09-30T13:37:52Z</time>
      </trkpt>
      <trkpt lat="47.04997" lon="7.10896">
        <ele>431.7</ele>
        <time>2022-09-30T13:37:53Z</time>
      </trkpt>
      <trkpt lat="47.05" lon="7.10901">
        <ele>431.7</ele>
        <time>2022-09-30T13:37:54Z</time>
      </trkpt>
      <trkpt lat="47.05002" lon="7.10907">
        <ele>431.7</ele>
        <time>2022-09-30T13:37:55Z</time>
      </trkpt>
      <trkpt lat="47.05005" lon="7.10913">
        <ele>431.7</ele>
        <time>2022-09-30T13:37:56Z</time>
      </trkpt>
      <trkpt lat="47.05008" lon="7.10919">
        <ele>431.7</ele>
        <time>2022-09-30T13:37:57Z</time>
      </trkpt>
      <trkpt lat="47.05012" lon="7.10926">
        <ele>431.7</ele>
        <time>2022-09-30T13:37:58Z</time>
      </trkpt>
      <trkpt lat="47.05015" lon="7.10931">
        <ele>431.7</ele>
        <time>2022-09-30T13:37:59Z</time>
      </trkpt>
      <trkpt lat="47.05017" lon="7.10936">
        <ele>431.7</ele>
        <time>2022-09-30T13:38:00Z</time>
      </trkpt>
      <trkpt lat="47.05019" lon="7.10942">
        <ele>431.8</ele>
        <time>2022-09-30T13:38:01Z</time>
      </trkpt>
      <trkpt lat="47.05023" lon="7.10948">
        <ele>431.8</ele>
        <time>2022-09-30T13:38:02Z</time>
      </trkpt>
      <trkpt lat="47.05025" lon="7.10954">
        <ele>431.8</ele>
        <time>2022-09-30T13:38:03Z</time>
      </trkpt>
      <trkpt lat="47.05027" lon="7.10959">
        <ele>431.8</ele>
        <time>2022-09-30T13:38:04Z</time>
      </trkpt>
      <trkpt lat="47.05029" lon="7.10964">
        <ele>431.8</ele>
        <time>2022-09-30T13:38:05Z</time>
      </trkpt>
      <trkpt lat="47.05031" lon="7.10969">
        <ele>431.8</ele>
        <time>2022-09-30T13:38:06Z</time>
      </trkpt>
      <trkpt lat="47.05036" lon="7.10976">
        <ele>431.7</ele>
        <time>2022-09-30T13:38:07Z</time>
      </trkpt>
      <trkpt lat="47.05038" lon="7.10982">
        <ele>431.7</ele>
        <time>2022-09-30T13:38:08Z</time>
      </trkpt>
      <trkpt lat="47.05042" lon="7.10988">
        <ele>431.7</ele>
        <time>2022-09-30T13:38:09Z</time>
      </trkpt>
      <trkpt lat="47.05045" lon="7.10993">
        <ele>431.7</ele>
        <time>2022-09-30T13:38:10Z</time>
      </trkpt>
      <trkpt lat="47.05047" lon="7.10999">
        <ele>431.7</ele>
        <time>2022-09-30T13:38:11Z</time>
      </trkpt>
      <trkpt lat="47.0505" lon="7.11006">
        <ele>431.7</ele>
        <time>2022-09-30T13:38:12Z</time>
      </trkpt>
      <trkpt lat="47.05053" lon="7.11012">
        <ele>431.7</ele>
        <time>2022-09-30T13:38:13Z</time>
      </trkpt>
      <trkpt lat="47.05057" lon="7.11017">
        <ele>431.7</ele>
        <time>2022-09-30T13:38:14Z</time>
      </trkpt>
      <trkpt lat="47.05059" lon="7.11023">
        <ele>431.7</ele>
        <time>2022-09-30T13:38:15Z</time>
      </trkpt>
      <trkpt lat="47.05062" lon="7.1103">
        <ele>431.7</ele>
        <time>2022-09-30T13:38:16Z</time>
      </trkpt>
      <trkpt lat="47.05065" lon="7.11036">
        <ele>431.7</ele>
        <time>2022-09-30T13:38:17Z</time>
      </trkpt>
      <trkpt lat="47.05067" lon="7.11041">
        <ele>431.7</ele>
        <time>2022-09-30T13:38:18Z</time>
      </trkpt>
      <trkpt lat="47.0507" lon="7.11049">
        <ele>431.7</ele>
        <time>2022-09-30T13:38:19Z</time>
      </trkpt>
      <trkpt lat="47.05073" lon="7.11053">
        <ele>431.7</ele>
        <time>2022-09-30T13:38:20Z</time>
      </trkpt>
      <trkpt lat="47.05075" lon="7.1106">
        <ele>431.7</ele>
        <time>2022-09-30T13:38:21Z</time>
      </trkpt>
      <trkpt lat="47.05078" lon="7.11065">
        <ele>431.7</ele>
        <time>2022-09-30T13:38:22Z</time>
      </trkpt>
      <trkpt lat="47.05081" lon="7.11071">
        <ele>431.7</ele>
        <time>2022-09-30T13:38:23Z</time>
      </trkpt>
      <trkpt lat="47.05084" lon="7.11078">
        <ele>431.7</ele>
        <time>2022-09-30T13:38:24Z</time>
      </trkpt>
      <trkpt lat="47.05087" lon="7.11083">
        <ele>431.7</ele>
        <time>2022-09-30T13:38:25Z</time>
      </trkpt>
      <trkpt lat="47.05089" lon="7.1109">
        <ele>431.7</ele>
        <time>2022-09-30T13:38:26Z</time>
      </trkpt>
      <trkpt lat="47.05092" lon="7.11096">
        <ele>431.7</ele>
        <time>2022-09-30T13:38:27Z</time>
      </trkpt>
      <trkpt lat="47.05096" lon="7.11101">
        <ele>431.7</ele>
        <time>2022-09-30T13:38:28Z</time>
      </trkpt>
      <trkpt lat="47.05098" lon="7.11107">
        <ele>431.8</ele>
        <time>2022-09-30T13:38:29Z</time>
      </trkpt>
      <trkpt lat="47.05101" lon="7.11113">
        <ele>431.8</ele>
        <time>2022-09-30T13:38:30Z</time>
      </trkpt>
      <trkpt lat="47.05104" lon="7.11119">
        <ele>431.8</ele>
        <time>2022-09-30T13:38:31Z</time>
      </trkpt>
      <trkpt lat="47.05107" lon="7.11126">
        <ele>431.8</ele>
        <time>2022-09-30T13:38:32Z</time>
      </trkpt>
      <trkpt lat="47.0511" lon="7.1113">
        <ele>431.8</ele>
        <time>2022-09-30T13:38:33Z</time>
      </trkpt>
      <trkpt lat="47.05112" lon="7.11136">
        <ele>431.8</ele>
        <time>2022-09-30T13:38:34Z</time>
      </trkpt>
      <trkpt lat="47.05115" lon="7.11142">
        <ele>431.8</ele>
        <time>2022-09-30T13:38:35Z</time>
      </trkpt>
      <trkpt lat="47.05117" lon="7.11148">
        <ele>431.8</ele>
        <time>2022-09-30T13:38:36Z</time>
      </trkpt>
      <trkpt lat="47.0512" lon="7.11154">
        <ele>431.8</ele>
        <time>2022-09-30T13:38:37Z</time>
      </trkpt>
      <trkpt lat="47.05122" lon="7.11159">
        <ele>431.8</ele>
        <time>2022-09-30T13:38:38Z</time>
      </trkpt>
      <trkpt lat="47.05125" lon="7.11165">
        <ele>431.8</ele>
        <time>2022-09-30T13:38:39Z</time>
      </trkpt>
      <trkpt lat="47.05127" lon="7.11168">
        <ele>431.8</ele>
        <time>2022-09-30T13:38:40Z</time>
      </trkpt>
      <trkpt lat="47.0513" lon="7.11174">
        <ele>431.8</ele>
        <time>2022-09-30T13:38:41Z</time>
      </trkpt>
      <trkpt lat="47.05133" lon="7.1118">
        <ele>431.8</ele>
        <time>2022-09-30T13:38:42Z</time>
      </trkpt>
      <trkpt lat="47.05135" lon="7.11185">
        <ele>431.8</ele>
        <time>2022-09-30T13:38:43Z</time>
      </trkpt>
      <trkpt lat="47.05138" lon="7.11191">
        <ele>431.8</ele>
        <time>2022-09-30T13:38:44Z</time>
      </trkpt>
      <trkpt lat="47.05141" lon="7.11197">
        <ele>431.8</ele>
        <time>2022-09-30T13:38:45Z</time>
      </trkpt>
      <trkpt lat="47.05143" lon="7.11204">
        <ele>431.8</ele>
        <time>2022-09-30T13:38:46Z</time>
      </trkpt>
      <trkpt lat="47.05145" lon="7.11209">
        <ele>431.8</ele>
        <time>2022-09-30T13:38:47Z</time>
      </trkpt>
      <trkpt lat="47.05147" lon="7.11217">
        <ele>431.8</ele>
        <time>2022-09-30T13:38:48Z</time>
      </trkpt>
      <trkpt lat="47.05149" lon="7.11224">
        <ele>431.8</ele>
        <time>2022-09-30T13:38:49Z</time>
      </trkpt>
      <trkpt lat="47.05151" lon="7.11231">
        <ele>431.8</ele>
        <time>2022-09-30T13:38:50Z</time>
      </trkpt>
      <trkpt lat="47.05153" lon="7.11237">
        <ele>431.8</ele>
        <time>2022-09-30T13:38:52Z</time>
      </trkpt>
      <trkpt lat="47.05154" lon="7.11243">
        <ele>431.8</ele>
        <time>2022-09-30T13:38:53Z</time>
      </trkpt>
      <trkpt lat="47.05157" lon="7.1125">
        <ele>431.8</ele>
        <time>2022-09-30T13:38:54Z</time>
      </trkpt>
      <trkpt lat="47.05158" lon="7.11255">
        <ele>431.8</ele>
        <time>2022-09-30T13:38:55Z</time>
      </trkpt>
      <trkpt lat="47.05161" lon="7.11261">
        <ele>431.8</ele>
        <time>2022-09-30T13:38:56Z</time>
      </trkpt>
      <trkpt lat="47.05163" lon="7.11265">
        <ele>431.8</ele>
        <time>2022-09-30T13:38:57Z</time>
      </trkpt>
      <trkpt lat="47.05166" lon="7.11272">
        <ele>431.8</ele>
        <time>2022-09-30T13:38:58Z</time>
      </trkpt>
      <trkpt lat="47.05168" lon="7.11275">
        <ele>431.8</ele>
        <time>2022-09-30T13:38:59Z</time>
      </trkpt>
      <trkpt lat="47.0517" lon="7.1128">
        <ele>431.8</ele>
        <time>2022-09-30T13:39:00Z</time>
      </trkpt>
      <trkpt lat="47.05172" lon="7.11286">
        <ele>431.8</ele>
        <time>2022-09-30T13:39:01Z</time>
      </trkpt>
      <trkpt lat="47.05173" lon="7.11289">
        <ele>431.8</ele>
        <time>2022-09-30T13:39:02Z</time>
      </trkpt>
      <trkpt lat="47.05174" lon="7.11293">
        <ele>431.8</ele>
        <time>2022-09-30T13:39:03Z</time>
      </trkpt>
      <trkpt lat="47.05177" lon="7.11297">
        <ele>431.8</ele>
        <time>2022-09-30T13:39:04Z</time>
      </trkpt>
      <trkpt lat="47.05178" lon="7.113">
        <ele>431.8</ele>
        <time>2022-09-30T13:39:05Z</time>
      </trkpt>
      <trkpt lat="47.05179" lon="7.11301">
        <ele>431.8</ele>
        <time>2022-09-30T13:39:06Z</time>
      </trkpt>
      <trkpt lat="47.0518" lon="7.11303">
        <ele>431.8</ele>
        <time>2022-09-30T13:39:07Z</time>
      </trkpt>
      <trkpt lat="47.05181" lon="7.11304">
        <ele>431.8</ele>
        <time>2022-09-30T13:39:08Z</time>
      </trkpt>
      <trkpt lat="47.05182" lon="7.11306">
        <ele>431.8</ele>
        <time>2022-09-30T13:39:09Z</time>
      </trkpt>
      <trkpt lat="47.05183" lon="7.11307">
        <ele>431.8</ele>
        <time>2022-09-30T13:39:10Z</time>
      </trkpt>
      <trkpt lat="47.05184" lon="7.11309">
        <ele>431.8</ele>
        <time>2022-09-30T13:39:11Z</time>
      </trkpt>
      <trkpt lat="47.05185" lon="7.1131">
        <ele>431.8</ele>
        <time>2022-09-30T13:39:12Z</time>
      </trkpt>
      <trkpt lat="47.05185" lon="7.11312">
        <ele>431.8</ele>
        <time>2022-09-30T13:39:13Z</time>
      </trkpt>
      <trkpt lat="47.05186" lon="7.11313">
        <ele>431.8</ele>
        <time>2022-09-30T13:39:14Z</time>
      </trkpt>
      <trkpt lat="47.05187" lon="7.11315">
        <ele>431.8</ele>
        <time>2022-09-30T13:39:34Z</time>
      </trkpt>
      <trkpt lat="47.05188" lon="7.11316">
        <ele>431.8</ele>
        <time>2022-09-30T13:39:35Z</time>
      </trkpt>
      <trkpt lat="47.0519" lon="7.11321">
        <ele>431.8</ele>
        <time>2022-09-30T13:39:36Z</time>
      </trkpt>
      <trkpt lat="47.05191" lon="7.11323">
        <ele>431.8</ele>
        <time>2022-09-30T13:39:37Z</time>
      </trkpt>
      <trkpt lat="47.05194" lon="7.11328">
        <ele>431.8</ele>
        <time>2022-09-30T13:39:38Z</time>
      </trkpt>
      <trkpt lat="47.05195" lon="7.11329">
        <ele>431.8</ele>
        <time>2022-09-30T13:39:39Z</time>
      </trkpt>
      <trkpt lat="47.05197" lon="7.11334">
        <ele>431.8</ele>
        <time>2022-09-30T13:39:40Z</time>
      </trkpt>
      <trkpt lat="47.05198" lon="7.11339">
        <ele>431.8</ele>
        <time>2022-09-30T13:39:41Z</time>
      </trkpt>
      <trkpt lat="47.052" lon="7.11343">
        <ele>431.8</ele>
        <time>2022-09-30T13:39:42Z</time>
      </trkpt>
      <trkpt lat="47.05203" lon="7.11347">
        <ele>431.8</ele>
        <time>2022-09-30T13:39:43Z</time>
      </trkpt>
      <trkpt lat="47.05204" lon="7.11352">
        <ele>431.8</ele>
        <time>2022-09-30T13:39:44Z</time>
      </trkpt>
      <trkpt lat="47.05206" lon="7.11357">
        <ele>431.8</ele>
        <time>2022-09-30T13:39:45Z</time>
      </trkpt>
      <trkpt lat="47.05209" lon="7.11363">
        <ele>431.8</ele>
        <time>2022-09-30T13:39:46Z</time>
      </trkpt>
      <trkpt lat="47.05211" lon="7.11368">
        <ele>431.8</ele>
        <time>2022-09-30T13:39:47Z</time>
      </trkpt>
      <trkpt lat="47.05213" lon="7.11372">
        <ele>431.8</ele>
        <time>2022-09-30T13:39:48Z</time>
      </trkpt>
      <trkpt lat="47.05216" lon="7.11377">
        <ele>431.8</ele>
        <time>2022-09-30T13:39:49Z</time>
      </trkpt>
      <trkpt lat="47.05219" lon="7.11382">
        <ele>431.8</ele>
        <time>2022-09-30T13:39:50Z</time>
      </trkpt>
      <trkpt lat="47.05221" lon="7.11388">
        <ele>431.8</ele>
        <time>2022-09-30T13:39:51Z</time>
      </trkpt>
      <trkpt lat="47.05224" lon="7.11394">
        <ele>431.8</ele>
        <time>2022-09-30T13:39:52Z</time>
      </trkpt>
      <trkpt lat="47.05226" lon="7.11399">
        <ele>431.8</ele>
        <time>2022-09-30T13:39:53Z</time>
      </trkpt>
      <trkpt lat="47.05228" lon="7.11404">
        <ele>431.8</ele>
        <time>2022-09-30T13:39:54Z</time>
      </trkpt>
      <trkpt lat="47.05231" lon="7.1141">
        <ele>431.8</ele>
        <time>2022-09-30T13:39:55Z</time>
      </trkpt>
      <trkpt lat="47.05233" lon="7.11416">
        <ele>431.8</ele>
        <time>2022-09-30T13:39:56Z</time>
      </trkpt>
      <trkpt lat="47.05236" lon="7.11422">
        <ele>431.8</ele>
        <time>2022-09-30T13:39:57Z</time>
      </trkpt>
      <trkpt lat="47.05239" lon="7.11428">
        <ele>431.8</ele>
        <time>2022-09-30T13:39:58Z</time>
      </trkpt>
      <trkpt lat="47.05242" lon="7.11434">
        <ele>431.8</ele>
        <time>2022-09-30T13:39:59Z</time>
      </trkpt>
      <trkpt lat="47.05244" lon="7.11439">
        <ele>431.8</ele>
        <time>2022-09-30T13:40:00Z</time>
      </trkpt>
      <trkpt lat="47.05246" lon="7.11444">
        <ele>431.8</ele>
        <time>2022-09-30T13:40:01Z</time>
      </trkpt>
      <trkpt lat="47.05249" lon="7.11451">
        <ele>431.8</ele>
        <time>2022-09-30T13:40:02Z</time>
      </trkpt>
      <trkpt lat="47.05252" lon="7.11456">
        <ele>431.8</ele>
        <time>2022-09-30T13:40:03Z</time>
      </trkpt>
      <trkpt lat="47.05255" lon="7.11462">
        <ele>431.8</ele>
        <time>2022-09-30T13:40:04Z</time>
      </trkpt>
      <trkpt lat="47.05257" lon="7.11467">
        <ele>431.7</ele>
        <time>2022-09-30T13:40:05Z</time>
      </trkpt>
      <trkpt lat="47.0526" lon="7.11473">
        <ele>431.7</ele>
        <time>2022-09-30T13:40:06Z</time>
      </trkpt>
      <trkpt lat="47.05263" lon="7.11479">
        <ele>431.7</ele>
        <time>2022-09-30T13:40:07Z</time>
      </trkpt>
      <trkpt lat="47.05266" lon="7.11485">
        <ele>431.7</ele>
        <time>2022-09-30T13:40:08Z</time>
      </trkpt>
      <trkpt lat="47.05269" lon="7.1149">
        <ele>431.7</ele>
        <time>2022-09-30T13:40:09Z</time>
      </trkpt>
      <trkpt lat="47.05271" lon="7.11497">
        <ele>431.7</ele>
        <time>2022-09-30T13:40:10Z</time>
      </trkpt>
      <trkpt lat="47.05274" lon="7.11503">
        <ele>431.7</ele>
        <time>2022-09-30T13:40:11Z</time>
      </trkpt>
      <trkpt lat="47.05277" lon="7.11509">
        <ele>431.7</ele>
        <time>2022-09-30T13:40:12Z</time>
      </trkpt>
      <trkpt lat="47.0528" lon="7.11515">
        <ele>431.7</ele>
        <time>2022-09-30T13:40:13Z</time>
      </trkpt>
      <trkpt lat="47.05282" lon="7.1152">
        <ele>431.7</ele>
        <time>2022-09-30T13:40:14Z</time>
      </trkpt>
      <trkpt lat="47.05285" lon="7.11526">
        <ele>431.7</ele>
        <time>2022-09-30T13:40:15Z</time>
      </trkpt>
      <trkpt lat="47.05288" lon="7.1153">
        <ele>431.7</ele>
        <time>2022-09-30T13:40:16Z</time>
      </trkpt>
      <trkpt lat="47.05291" lon="7.11536">
        <ele>431.7</ele>
        <time>2022-09-30T13:40:17Z</time>
      </trkpt>
      <trkpt lat="47.05293" lon="7.11543">
        <ele>431.7</ele>
        <time>2022-09-30T13:40:18Z</time>
      </trkpt>
      <trkpt lat="47.05296" lon="7.11549">
        <ele>431.7</ele>
        <time>2022-09-30T13:40:19Z</time>
      </trkpt>
      <trkpt lat="47.05299" lon="7.11554">
        <ele>431.8</ele>
        <time>2022-09-30T13:40:20Z</time>
      </trkpt>
      <trkpt lat="47.05302" lon="7.11559">
        <ele>431.8</ele>
        <time>2022-09-30T13:40:21Z</time>
      </trkpt>
      <trkpt lat="47.05304" lon="7.11565">
        <ele>431.8</ele>
        <time>2022-09-30T13:40:22Z</time>
      </trkpt>
      <trkpt lat="47.05307" lon="7.11571">
        <ele>431.8</ele>
        <time>2022-09-30T13:40:23Z</time>
      </trkpt>
      <trkpt lat="47.0531" lon="7.11577">
        <ele>431.7</ele>
        <time>2022-09-30T13:40:24Z</time>
      </trkpt>
      <trkpt lat="47.05312" lon="7.11582">
        <ele>431.7</ele>
        <time>2022-09-30T13:40:25Z</time>
      </trkpt>
      <trkpt lat="47.05315" lon="7.11589">
        <ele>431.7</ele>
        <time>2022-09-30T13:40:26Z</time>
      </trkpt>
      <trkpt lat="47.05318" lon="7.11594">
        <ele>431.7</ele>
        <time>2022-09-30T13:40:27Z</time>
      </trkpt>
      <trkpt lat="47.0532" lon="7.116">
        <ele>431.7</ele>
        <time>2022-09-30T13:40:28Z</time>
      </trkpt>
      <trkpt lat="47.05321" lon="7.11606">
        <ele>431.7</ele>
        <time>2022-09-30T13:40:29Z</time>
      </trkpt>
      <trkpt lat="47.05325" lon="7.11613">
        <ele>431.8</ele>
        <time>2022-09-30T13:40:30Z</time>
      </trkpt>
      <trkpt lat="47.05329" lon="7.11618">
        <ele>431.8</ele>
        <time>2022-09-30T13:40:31Z</time>
      </trkpt>
      <trkpt lat="47.05331" lon="7.11624">
        <ele>431.8</ele>
        <time>2022-09-30T13:40:32Z</time>
      </trkpt>
      <trkpt lat="47.05334" lon="7.11631">
        <ele>431.8</ele>
        <time>2022-09-30T13:40:33Z</time>
      </trkpt>
      <trkpt lat="47.05337" lon="7.11636">
        <ele>431.9</ele>
        <time>2022-09-30T13:40:34Z</time>
      </trkpt>
      <trkpt lat="47.05339" lon="7.11641">
        <ele>431.9</ele>
        <time>2022-09-30T13:40:35Z</time>
      </trkpt>
      <trkpt lat="47.05341" lon="7.11647">
        <ele>431.9</ele>
        <time>2022-09-30T13:40:36Z</time>
      </trkpt>
      <trkpt lat="47.05344" lon="7.11653">
        <ele>431.9</ele>
        <time>2022-09-30T13:40:37Z</time>
      </trkpt>
      <trkpt lat="47.05347" lon="7.11658">
        <ele>431.9</ele>
        <time>2022-09-30T13:40:38Z</time>
      </trkpt>
      <trkpt lat="47.05351" lon="7.11664">
        <ele>431.9</ele>
        <time>2022-09-30T13:40:39Z</time>
      </trkpt>
      <trkpt lat="47.05353" lon="7.11671">
        <ele>431.9</ele>
        <time>2022-09-30T13:40:40Z</time>
      </trkpt>
      <trkpt lat="47.05356" lon="7.11677">
        <ele>431.9</ele>
        <time>2022-09-30T13:40:41Z</time>
      </trkpt>
      <trkpt lat="47.05358" lon="7.11682">
        <ele>431.9</ele>
        <time>2022-09-30T13:40:42Z</time>
      </trkpt>
      <trkpt lat="47.05361" lon="7.11688">
        <ele>431.9</ele>
        <time>2022-09-30T13:40:43Z</time>
      </trkpt>
      <trkpt lat="47.05364" lon="7.11693">
        <ele>432</ele>
        <time>2022-09-30T13:40:44Z</time>
      </trkpt>
      <trkpt lat="47.05366" lon="7.117">
        <ele>432</ele>
        <time>2022-09-30T13:40:45Z</time>
      </trkpt>
      <trkpt lat="47.05369" lon="7.11705">
        <ele>432</ele>
        <time>2022-09-30T13:40:46Z</time>
      </trkpt>
      <trkpt lat="47.05372" lon="7.11711">
        <ele>432</ele>
        <time>2022-09-30T13:40:47Z</time>
      </trkpt>
      <trkpt lat="47.05374" lon="7.11717">
        <ele>432</ele>
        <time>2022-09-30T13:40:48Z</time>
      </trkpt>
      <trkpt lat="47.05377" lon="7.11723">
        <ele>432</ele>
        <time>2022-09-30T13:40:49Z</time>
      </trkpt>
      <trkpt lat="47.05379" lon="7.11729">
        <ele>432</ele>
        <time>2022-09-30T13:40:50Z</time>
      </trkpt>
      <trkpt lat="47.05383" lon="7.11735">
        <ele>432</ele>
        <time>2022-09-30T13:40:51Z</time>
      </trkpt>
      <trkpt lat="47.05386" lon="7.11741">
        <ele>432.1</ele>
        <time>2022-09-30T13:40:52Z</time>
      </trkpt>
      <trkpt lat="47.05389" lon="7.11747">
        <ele>432.1</ele>
        <time>2022-09-30T13:40:53Z</time>
      </trkpt>
      <trkpt lat="47.05391" lon="7.11753">
        <ele>432.1</ele>
        <time>2022-09-30T13:40:54Z</time>
      </trkpt>
      <trkpt lat="47.05394" lon="7.11759">
        <ele>432.1</ele>
        <time>2022-09-30T13:40:55Z</time>
      </trkpt>
      <trkpt lat="47.05397" lon="7.11765">
        <ele>432.1</ele>
        <time>2022-09-30T13:40:56Z</time>
      </trkpt>
      <trkpt lat="47.054" lon="7.1177">
        <ele>432.1</ele>
        <time>2022-09-30T13:40:58Z</time>
      </trkpt>
      <trkpt lat="47.05402" lon="7.11777">
        <ele>432.1</ele>
        <time>2022-09-30T13:40:59Z</time>
      </trkpt>
      <trkpt lat="47.05405" lon="7.11782">
        <ele>432.1</ele>
        <time>2022-09-30T13:41:00Z</time>
      </trkpt>
      <trkpt lat="47.05407" lon="7.11788">
        <ele>432</ele>
        <time>2022-09-30T13:41:01Z</time>
      </trkpt>
      <trkpt lat="47.05411" lon="7.11795">
        <ele>432</ele>
        <time>2022-09-30T13:41:02Z</time>
      </trkpt>
      <trkpt lat="47.05414" lon="7.11802">
        <ele>432</ele>
        <time>2022-09-30T13:41:03Z</time>
      </trkpt>
      <trkpt lat="47.05417" lon="7.11808">
        <ele>432</ele>
        <time>2022-09-30T13:41:04Z</time>
      </trkpt>
      <trkpt lat="47.0542" lon="7.11814">
        <ele>432</ele>
        <time>2022-09-30T13:41:05Z</time>
      </trkpt>
      <trkpt lat="47.05423" lon="7.1182">
        <ele>432</ele>
        <time>2022-09-30T13:41:06Z</time>
      </trkpt>
      <trkpt lat="47.05425" lon="7.11827">
        <ele>432</ele>
        <time>2022-09-30T13:41:07Z</time>
      </trkpt>
      <trkpt lat="47.05428" lon="7.11832">
        <ele>432</ele>
        <time>2022-09-30T13:41:08Z</time>
      </trkpt>
      <trkpt lat="47.05432" lon="7.11838">
        <ele>432</ele>
        <time>2022-09-30T13:41:09Z</time>
      </trkpt>
      <trkpt lat="47.05437" lon="7.11851">
        <ele>432</ele>
        <time>2022-09-30T13:41:10Z</time>
      </trkpt>
      <trkpt lat="47.05443" lon="7.11863">
        <ele>432</ele>
        <time>2022-09-30T13:41:12Z</time>
      </trkpt>
      <trkpt lat="47.05446" lon="7.11868">
        <ele>432</ele>
        <time>2022-09-30T13:41:13Z</time>
      </trkpt>
      <trkpt lat="47.05449" lon="7.11873">
        <ele>432</ele>
        <time>2022-09-30T13:41:14Z</time>
      </trkpt>
      <trkpt lat="47.0545" lon="7.1188">
        <ele>432</ele>
        <time>2022-09-30T13:41:15Z</time>
      </trkpt>
      <trkpt lat="47.05453" lon="7.11886">
        <ele>432</ele>
        <time>2022-09-30T13:41:16Z</time>
      </trkpt>
      <trkpt lat="47.05457" lon="7.11892">
        <ele>432</ele>
        <time>2022-09-30T13:41:17Z</time>
      </trkpt>
      <trkpt lat="47.05459" lon="7.11898">
        <ele>432</ele>
        <time>2022-09-30T13:41:18Z</time>
      </trkpt>
      <trkpt lat="47.05462" lon="7.11904">
        <ele>432</ele>
        <time>2022-09-30T13:41:19Z</time>
      </trkpt>
      <trkpt lat="47.05465" lon="7.1191">
        <ele>432</ele>
        <time>2022-09-30T13:41:20Z</time>
      </trkpt>
      <trkpt lat="47.05468" lon="7.11916">
        <ele>432</ele>
        <time>2022-09-30T13:41:21Z</time>
      </trkpt>
      <trkpt lat="47.05471" lon="7.11922">
        <ele>432</ele>
        <time>2022-09-30T13:41:22Z</time>
      </trkpt>
      <trkpt lat="47.05474" lon="7.11929">
        <ele>432.1</ele>
        <time>2022-09-30T13:41:23Z</time>
      </trkpt>
      <trkpt lat="47.05477" lon="7.11935">
        <ele>432.1</ele>
        <time>2022-09-30T13:41:24Z</time>
      </trkpt>
      <trkpt lat="47.05479" lon="7.11941">
        <ele>432.1</ele>
        <time>2022-09-30T13:41:25Z</time>
      </trkpt>
      <trkpt lat="47.05482" lon="7.11947">
        <ele>432.1</ele>
        <time>2022-09-30T13:41:26Z</time>
      </trkpt>
      <trkpt lat="47.05484" lon="7.11954">
        <ele>432.1</ele>
        <time>2022-09-30T13:41:27Z</time>
      </trkpt>
      <trkpt lat="47.05486" lon="7.1196">
        <ele>432.1</ele>
        <time>2022-09-30T13:41:28Z</time>
      </trkpt>
      <trkpt lat="47.0549" lon="7.11966">
        <ele>432.1</ele>
        <time>2022-09-30T13:41:29Z</time>
      </trkpt>
      <trkpt lat="47.05492" lon="7.11973">
        <ele>432.2</ele>
        <time>2022-09-30T13:41:30Z</time>
      </trkpt>
      <trkpt lat="47.05495" lon="7.11978">
        <ele>432.2</ele>
        <time>2022-09-30T13:41:31Z</time>
      </trkpt>
      <trkpt lat="47.05499" lon="7.11983">
        <ele>432.2</ele>
        <time>2022-09-30T13:41:32Z</time>
      </trkpt>
      <trkpt lat="47.05501" lon="7.1199">
        <ele>432.2</ele>
        <time>2022-09-30T13:41:33Z</time>
      </trkpt>
      <trkpt lat="47.05504" lon="7.11996">
        <ele>432.2</ele>
        <time>2022-09-30T13:41:34Z</time>
      </trkpt>
      <trkpt lat="47.05507" lon="7.12002">
        <ele>432.2</ele>
        <time>2022-09-30T13:41:35Z</time>
      </trkpt>
      <trkpt lat="47.05509" lon="7.12007">
        <ele>432.2</ele>
        <time>2022-09-30T13:41:36Z</time>
      </trkpt>
      <trkpt lat="47.05513" lon="7.12013">
        <ele>432.3</ele>
        <time>2022-09-30T13:41:37Z</time>
      </trkpt>
      <trkpt lat="47.05515" lon="7.12019">
        <ele>432.3</ele>
        <time>2022-09-30T13:41:38Z</time>
      </trkpt>
      <trkpt lat="47.05518" lon="7.12025">
        <ele>432.3</ele>
        <time>2022-09-30T13:41:39Z</time>
      </trkpt>
      <trkpt lat="47.0552" lon="7.12031">
        <ele>432.3</ele>
        <time>2022-09-30T13:41:40Z</time>
      </trkpt>
      <trkpt lat="47.05524" lon="7.12038">
        <ele>432.3</ele>
        <time>2022-09-30T13:41:41Z</time>
      </trkpt>
      <trkpt lat="47.05526" lon="7.12043">
        <ele>432.3</ele>
        <time>2022-09-30T13:41:42Z</time>
      </trkpt>
      <trkpt lat="47.05528" lon="7.1205">
        <ele>432.3</ele>
        <time>2022-09-30T13:41:43Z</time>
      </trkpt>
      <trkpt lat="47.05531" lon="7.12055">
        <ele>432.3</ele>
        <time>2022-09-30T13:41:44Z</time>
      </trkpt>
      <trkpt lat="47.05534" lon="7.1206">
        <ele>432.3</ele>
        <time>2022-09-30T13:41:45Z</time>
      </trkpt>
      <trkpt lat="47.05538" lon="7.12066">
        <ele>432.3</ele>
        <time>2022-09-30T13:41:46Z</time>
      </trkpt>
      <trkpt lat="47.0554" lon="7.12072">
        <ele>432.3</ele>
        <time>2022-09-30T13:41:47Z</time>
      </trkpt>
      <trkpt lat="47.05543" lon="7.12078">
        <ele>432.3</ele>
        <time>2022-09-30T13:41:48Z</time>
      </trkpt>
      <trkpt lat="47.05546" lon="7.12084">
        <ele>432.3</ele>
        <time>2022-09-30T13:41:49Z</time>
      </trkpt>
      <trkpt lat="47.05548" lon="7.12089">
        <ele>432.3</ele>
        <time>2022-09-30T13:41:50Z</time>
      </trkpt>
      <trkpt lat="47.05551" lon="7.12095">
        <ele>432.3</ele>
        <time>2022-09-30T13:41:51Z</time>
      </trkpt>
      <trkpt lat="47.05554" lon="7.12101">
        <ele>432.3</ele>
        <time>2022-09-30T13:41:52Z</time>
      </trkpt>
      <trkpt lat="47.05557" lon="7.12106">
        <ele>432.3</ele>
        <time>2022-09-30T13:41:53Z</time>
      </trkpt>
      <trkpt lat="47.0556" lon="7.12112">
        <ele>432.3</ele>
        <time>2022-09-30T13:41:54Z</time>
      </trkpt>
      <trkpt lat="47.05563" lon="7.12117">
        <ele>432.3</ele>
        <time>2022-09-30T13:41:55Z</time>
      </trkpt>
      <trkpt lat="47.05565" lon="7.12122">
        <ele>432.3</ele>
        <time>2022-09-30T13:41:56Z</time>
      </trkpt>
      <trkpt lat="47.05566" lon="7.12127">
        <ele>432.3</ele>
        <time>2022-09-30T13:41:57Z</time>
      </trkpt>
      <trkpt lat="47.05568" lon="7.12132">
        <ele>432.3</ele>
        <time>2022-09-30T13:41:58Z</time>
      </trkpt>
      <trkpt lat="47.05572" lon="7.12138">
        <ele>432.3</ele>
        <time>2022-09-30T13:41:59Z</time>
      </trkpt>
      <trkpt lat="47.05575" lon="7.12145">
        <ele>432.3</ele>
        <time>2022-09-30T13:42:00Z</time>
      </trkpt>
      <trkpt lat="47.05578" lon="7.12151">
        <ele>432.3</ele>
        <time>2022-09-30T13:42:01Z</time>
      </trkpt>
      <trkpt lat="47.05579" lon="7.12155">
        <ele>432.3</ele>
        <time>2022-09-30T13:42:02Z</time>
      </trkpt>
      <trkpt lat="47.05582" lon="7.1216">
        <ele>432.3</ele>
        <time>2022-09-30T13:42:03Z</time>
      </trkpt>
      <trkpt lat="47.05584" lon="7.12166">
        <ele>432.3</ele>
        <time>2022-09-30T13:42:04Z</time>
      </trkpt>
      <trkpt lat="47.05586" lon="7.12171">
        <ele>432.3</ele>
        <time>2022-09-30T13:42:05Z</time>
      </trkpt>
      <trkpt lat="47.05587" lon="7.12176">
        <ele>432.3</ele>
        <time>2022-09-30T13:42:06Z</time>
      </trkpt>
      <trkpt lat="47.0559" lon="7.12179">
        <ele>432.4</ele>
        <time>2022-09-30T13:42:07Z</time>
      </trkpt>
      <trkpt lat="47.05593" lon="7.12184">
        <ele>432.4</ele>
        <time>2022-09-30T13:42:08Z</time>
      </trkpt>
      <trkpt lat="47.05595" lon="7.1219">
        <ele>432.4</ele>
        <time>2022-09-30T13:42:09Z</time>
      </trkpt>
      <trkpt lat="47.05597" lon="7.12195">
        <ele>432.3</ele>
        <time>2022-09-30T13:42:10Z</time>
      </trkpt>
      <trkpt lat="47.056" lon="7.12201">
        <ele>432.3</ele>
        <time>2022-09-30T13:42:11Z</time>
      </trkpt>
      <trkpt lat="47.05602" lon="7.12208">
        <ele>432.3</ele>
        <time>2022-09-30T13:42:12Z</time>
      </trkpt>
      <trkpt lat="47.05604" lon="7.12215">
        <ele>432.3</ele>
        <time>2022-09-30T13:42:13Z</time>
      </trkpt>
      <trkpt lat="47.05608" lon="7.12223">
        <ele>432.3</ele>
        <time>2022-09-30T13:42:14Z</time>
      </trkpt>
      <trkpt lat="47.05612" lon="7.12229">
        <ele>432.3</ele>
        <time>2022-09-30T13:42:15Z</time>
      </trkpt>
      <trkpt lat="47.05615" lon="7.12236">
        <ele>432.3</ele>
        <time>2022-09-30T13:42:16Z</time>
      </trkpt>
      <trkpt lat="47.05619" lon="7.12243">
        <ele>432.2</ele>
        <time>2022-09-30T13:42:17Z</time>
      </trkpt>
      <trkpt lat="47.05622" lon="7.1225">
        <ele>432.3</ele>
        <time>2022-09-30T13:42:18Z</time>
      </trkpt>
      <trkpt lat="47.05626" lon="7.12256">
        <ele>432.3</ele>
        <time>2022-09-30T13:42:19Z</time>
      </trkpt>
      <trkpt lat="47.05629" lon="7.12263">
        <ele>432.3</ele>
        <time>2022-09-30T13:42:20Z</time>
      </trkpt>
      <trkpt lat="47.05631" lon="7.12269">
        <ele>432.3</ele>
        <time>2022-09-30T13:42:21Z</time>
      </trkpt>
      <trkpt lat="47.05634" lon="7.12275">
        <ele>432.3</ele>
        <time>2022-09-30T13:42:22Z</time>
      </trkpt>
      <trkpt lat="47.05637" lon="7.12281">
        <ele>432.3</ele>
        <time>2022-09-30T13:42:23Z</time>
      </trkpt>
      <trkpt lat="47.0564" lon="7.12287">
        <ele>432.3</ele>
        <time>2022-09-30T13:42:24Z</time>
      </trkpt>
      <trkpt lat="47.05643" lon="7.12293">
        <ele>432.3</ele>
        <time>2022-09-30T13:42:25Z</time>
      </trkpt>
      <trkpt lat="47.05646" lon="7.12298">
        <ele>432.3</ele>
        <time>2022-09-30T13:42:26Z</time>
      </trkpt>
      <trkpt lat="47.05648" lon="7.12302">
        <ele>432.3</ele>
        <time>2022-09-30T13:42:27Z</time>
      </trkpt>
      <trkpt lat="47.0565" lon="7.12306">
        <ele>432.3</ele>
        <time>2022-09-30T13:42:28Z</time>
      </trkpt>
      <trkpt lat="47.05653" lon="7.1231">
        <ele>432.3</ele>
        <time>2022-09-30T13:42:29Z</time>
      </trkpt>
      <trkpt lat="47.05654" lon="7.12317">
        <ele>432.3</ele>
        <time>2022-09-30T13:42:30Z</time>
      </trkpt>
      <trkpt lat="47.05657" lon="7.12322">
        <ele>432.3</ele>
        <time>2022-09-30T13:42:31Z</time>
      </trkpt>
      <trkpt lat="47.05662" lon="7.12328">
        <ele>432.3</ele>
        <time>2022-09-30T13:42:32Z</time>
      </trkpt>
      <trkpt lat="47.05665" lon="7.12333">
        <ele>432.3</ele>
        <time>2022-09-30T13:42:33Z</time>
      </trkpt>
      <trkpt lat="47.05668" lon="7.12339">
        <ele>432.3</ele>
        <time>2022-09-30T13:42:34Z</time>
      </trkpt>
      <trkpt lat="47.05671" lon="7.12345">
        <ele>432.3</ele>
        <time>2022-09-30T13:42:35Z</time>
      </trkpt>
      <trkpt lat="47.05674" lon="7.12351">
        <ele>432.3</ele>
        <time>2022-09-30T13:42:36Z</time>
      </trkpt>
      <trkpt lat="47.05677" lon="7.12357">
        <ele>432.3</ele>
        <time>2022-09-30T13:42:37Z</time>
      </trkpt>
      <trkpt lat="47.05679" lon="7.12363">
        <ele>432.3</ele>
        <time>2022-09-30T13:42:38Z</time>
      </trkpt>
      <trkpt lat="47.05682" lon="7.12369">
        <ele>432.3</ele>
        <time>2022-09-30T13:42:39Z</time>
      </trkpt>
      <trkpt lat="47.05686" lon="7.12375">
        <ele>432.4</ele>
        <time>2022-09-30T13:42:40Z</time>
      </trkpt>
      <trkpt lat="47.05689" lon="7.12381">
        <ele>432.4</ele>
        <time>2022-09-30T13:42:41Z</time>
      </trkpt>
      <trkpt lat="47.05692" lon="7.12387">
        <ele>432.4</ele>
        <time>2022-09-30T13:42:42Z</time>
      </trkpt>
      <trkpt lat="47.05695" lon="7.12393">
        <ele>432.4</ele>
        <time>2022-09-30T13:42:43Z</time>
      </trkpt>
      <trkpt lat="47.05698" lon="7.12399">
        <ele>432.4</ele>
        <time>2022-09-30T13:42:44Z</time>
      </trkpt>
      <trkpt lat="47.05701" lon="7.12405">
        <ele>432.4</ele>
        <time>2022-09-30T13:42:45Z</time>
      </trkpt>
      <trkpt lat="47.05704" lon="7.1241">
        <ele>432.4</ele>
        <time>2022-09-30T13:42:46Z</time>
      </trkpt>
      <trkpt lat="47.05707" lon="7.12416">
        <ele>432.4</ele>
        <time>2022-09-30T13:42:47Z</time>
      </trkpt>
      <trkpt lat="47.0571" lon="7.12422">
        <ele>432.4</ele>
        <time>2022-09-30T13:42:48Z</time>
      </trkpt>
      <trkpt lat="47.05713" lon="7.12428">
        <ele>432.4</ele>
        <time>2022-09-30T13:42:49Z</time>
      </trkpt>
      <trkpt lat="47.05716" lon="7.12433">
        <ele>432.4</ele>
        <time>2022-09-30T13:42:50Z</time>
      </trkpt>
      <trkpt lat="47.05719" lon="7.12438">
        <ele>432.4</ele>
        <time>2022-09-30T13:42:51Z</time>
      </trkpt>
      <trkpt lat="47.05721" lon="7.12444">
        <ele>432.4</ele>
        <time>2022-09-30T13:42:52Z</time>
      </trkpt>
      <trkpt lat="47.05724" lon="7.1245">
        <ele>432.4</ele>
        <time>2022-09-30T13:42:53Z</time>
      </trkpt>
      <trkpt lat="47.05726" lon="7.12455">
        <ele>432.4</ele>
        <time>2022-09-30T13:42:54Z</time>
      </trkpt>
      <trkpt lat="47.05729" lon="7.1246">
        <ele>432.4</ele>
        <time>2022-09-30T13:42:55Z</time>
      </trkpt>
      <trkpt lat="47.05731" lon="7.12465">
        <ele>432.4</ele>
        <time>2022-09-30T13:42:56Z</time>
      </trkpt>
      <trkpt lat="47.05734" lon="7.1247">
        <ele>432.4</ele>
        <time>2022-09-30T13:42:57Z</time>
      </trkpt>
      <trkpt lat="47.05736" lon="7.12475">
        <ele>432.4</ele>
        <time>2022-09-30T13:42:58Z</time>
      </trkpt>
      <trkpt lat="47.05738" lon="7.12481">
        <ele>432.4</ele>
        <time>2022-09-30T13:42:59Z</time>
      </trkpt>
      <trkpt lat="47.05741" lon="7.12486">
        <ele>432.4</ele>
        <time>2022-09-30T13:43:00Z</time>
      </trkpt>
      <trkpt lat="47.05744" lon="7.12492">
        <ele>432.4</ele>
        <time>2022-09-30T13:43:01Z</time>
      </trkpt>
      <trkpt lat="47.05746" lon="7.12497">
        <ele>432.4</ele>
        <time>2022-09-30T13:43:02Z</time>
      </trkpt>
      <trkpt lat="47.05749" lon="7.12501">
        <ele>432.4</ele>
        <time>2022-09-30T13:43:04Z</time>
      </trkpt>
      <trkpt lat="47.05751" lon="7.12507">
        <ele>432.4</ele>
        <time>2022-09-30T13:43:05Z</time>
      </trkpt>
      <trkpt lat="47.05754" lon="7.12512">
        <ele>432.4</ele>
        <time>2022-09-30T13:43:06Z</time>
      </trkpt>
      <trkpt lat="47.05756" lon="7.12517">
        <ele>432.4</ele>
        <time>2022-09-30T13:43:07Z</time>
      </trkpt>
      <trkpt lat="47.05758" lon="7.12522">
        <ele>432.4</ele>
        <time>2022-09-30T13:43:08Z</time>
      </trkpt>
      <trkpt lat="47.05761" lon="7.12528">
        <ele>432.4</ele>
        <time>2022-09-30T13:43:09Z</time>
      </trkpt>
      <trkpt lat="47.05763" lon="7.12533">
        <ele>432.4</ele>
        <time>2022-09-30T13:43:10Z</time>
      </trkpt>
      <trkpt lat="47.05768" lon="7.12543">
        <ele>432.4</ele>
        <time>2022-09-30T13:43:11Z</time>
      </trkpt>
      <trkpt lat="47.05771" lon="7.12548">
        <ele>432.4</ele>
        <time>2022-09-30T13:43:12Z</time>
      </trkpt>
      <trkpt lat="47.05773" lon="7.12553">
        <ele>432.4</ele>
        <time>2022-09-30T13:43:13Z</time>
      </trkpt>
      <trkpt lat="47.05776" lon="7.12558">
        <ele>432.4</ele>
        <time>2022-09-30T13:43:14Z</time>
      </trkpt>
      <trkpt lat="47.05777" lon="7.12563">
        <ele>432.4</ele>
        <time>2022-09-30T13:43:16Z</time>
      </trkpt>
      <trkpt lat="47.05783" lon="7.12574">
        <ele>432.4</ele>
        <time>2022-09-30T13:43:17Z</time>
      </trkpt>
      <trkpt lat="47.05785" lon="7.12579">
        <ele>432.4</ele>
        <time>2022-09-30T13:43:18Z</time>
      </trkpt>
      <trkpt lat="47.05787" lon="7.12584">
        <ele>432.4</ele>
        <time>2022-09-30T13:43:19Z</time>
      </trkpt>
      <trkpt lat="47.0579" lon="7.12589">
        <ele>432.4</ele>
        <time>2022-09-30T13:43:20Z</time>
      </trkpt>
      <trkpt lat="47.05791" lon="7.12595">
        <ele>432.4</ele>
        <time>2022-09-30T13:43:22Z</time>
      </trkpt>
      <trkpt lat="47.05793" lon="7.12599">
        <ele>432.4</ele>
        <time>2022-09-30T13:43:23Z</time>
      </trkpt>
      <trkpt lat="47.05797" lon="7.12605">
        <ele>432.4</ele>
        <time>2022-09-30T13:43:24Z</time>
      </trkpt>
      <trkpt lat="47.05799" lon="7.1261">
        <ele>432.4</ele>
        <time>2022-09-30T13:43:25Z</time>
      </trkpt>
      <trkpt lat="47.05801" lon="7.12615">
        <ele>432.4</ele>
        <time>2022-09-30T13:43:26Z</time>
      </trkpt>
      <trkpt lat="47.05803" lon="7.12621">
        <ele>432.4</ele>
        <time>2022-09-30T13:43:27Z</time>
      </trkpt>
      <trkpt lat="47.05805" lon="7.12626">
        <ele>432.4</ele>
        <time>2022-09-30T13:43:28Z</time>
      </trkpt>
      <trkpt lat="47.05808" lon="7.12631">
        <ele>432.4</ele>
        <time>2022-09-30T13:43:29Z</time>
      </trkpt>
      <trkpt lat="47.05811" lon="7.12637">
        <ele>432.4</ele>
        <time>2022-09-30T13:43:30Z</time>
      </trkpt>
      <trkpt lat="47.05812" lon="7.12642">
        <ele>432.4</ele>
        <time>2022-09-30T13:43:31Z</time>
      </trkpt>
      <trkpt lat="47.05815" lon="7.12647">
        <ele>432.4</ele>
        <time>2022-09-30T13:43:32Z</time>
      </trkpt>
      <trkpt lat="47.05817" lon="7.12653">
        <ele>432.4</ele>
        <time>2022-09-30T13:43:33Z</time>
      </trkpt>
      <trkpt lat="47.0582" lon="7.12658">
        <ele>432.4</ele>
        <time>2022-09-30T13:43:34Z</time>
      </trkpt>
      <trkpt lat="47.05822" lon="7.12664">
        <ele>432.4</ele>
        <time>2022-09-30T13:43:35Z</time>
      </trkpt>
      <trkpt lat="47.05825" lon="7.12669">
        <ele>432.4</ele>
        <time>2022-09-30T13:43:36Z</time>
      </trkpt>
      <trkpt lat="47.05827" lon="7.12674">
        <ele>432.4</ele>
        <time>2022-09-30T13:43:37Z</time>
      </trkpt>
      <trkpt lat="47.05829" lon="7.12679">
        <ele>432.4</ele>
        <time>2022-09-30T13:43:38Z</time>
      </trkpt>
      <trkpt lat="47.05832" lon="7.12685">
        <ele>432.4</ele>
        <time>2022-09-30T13:43:39Z</time>
      </trkpt>
      <trkpt lat="47.05834" lon="7.1269">
        <ele>432.4</ele>
        <time>2022-09-30T13:43:40Z</time>
      </trkpt>
      <trkpt lat="47.05837" lon="7.12696">
        <ele>432.4</ele>
        <time>2022-09-30T13:43:41Z</time>
      </trkpt>
      <trkpt lat="47.05839" lon="7.12701">
        <ele>432.4</ele>
        <time>2022-09-30T13:43:42Z</time>
      </trkpt>
      <trkpt lat="47.0584" lon="7.12707">
        <ele>432.4</ele>
        <time>2022-09-30T13:43:43Z</time>
      </trkpt>
      <trkpt lat="47.05844" lon="7.12712">
        <ele>432.4</ele>
        <time>2022-09-30T13:43:44Z</time>
      </trkpt>
      <trkpt lat="47.05846" lon="7.12718">
        <ele>432.4</ele>
        <time>2022-09-30T13:43:45Z</time>
      </trkpt>
      <trkpt lat="47.05848" lon="7.12723">
        <ele>432.4</ele>
        <time>2022-09-30T13:43:46Z</time>
      </trkpt>
      <trkpt lat="47.0585" lon="7.12729">
        <ele>432.4</ele>
        <time>2022-09-30T13:43:47Z</time>
      </trkpt>
      <trkpt lat="47.05853" lon="7.12734">
        <ele>432.4</ele>
        <time>2022-09-30T13:43:48Z</time>
      </trkpt>
      <trkpt lat="47.05854" lon="7.12739">
        <ele>432.4</ele>
        <time>2022-09-30T13:43:49Z</time>
      </trkpt>
      <trkpt lat="47.05857" lon="7.12744">
        <ele>432.5</ele>
        <time>2022-09-30T13:43:50Z</time>
      </trkpt>
      <trkpt lat="47.05859" lon="7.1275">
        <ele>432.5</ele>
        <time>2022-09-30T13:43:51Z</time>
      </trkpt>
      <trkpt lat="47.05861" lon="7.12755">
        <ele>432.5</ele>
        <time>2022-09-30T13:43:52Z</time>
      </trkpt>
      <trkpt lat="47.05867" lon="7.12767">
        <ele>432.5</ele>
        <time>2022-09-30T13:43:53Z</time>
      </trkpt>
      <trkpt lat="47.05869" lon="7.12772">
        <ele>432.5</ele>
        <time>2022-09-30T13:43:54Z</time>
      </trkpt>
      <trkpt lat="47.05872" lon="7.12778">
        <ele>432.5</ele>
        <time>2022-09-30T13:43:55Z</time>
      </trkpt>
      <trkpt lat="47.05874" lon="7.12783">
        <ele>432.5</ele>
        <time>2022-09-30T13:43:56Z</time>
      </trkpt>
      <trkpt lat="47.05876" lon="7.12789">
        <ele>432.5</ele>
        <time>2022-09-30T13:43:57Z</time>
      </trkpt>
      <trkpt lat="47.05879" lon="7.12795">
        <ele>432.5</ele>
        <time>2022-09-30T13:43:58Z</time>
      </trkpt>
      <trkpt lat="47.05881" lon="7.128">
        <ele>432.5</ele>
        <time>2022-09-30T13:43:59Z</time>
      </trkpt>
      <trkpt lat="47.05883" lon="7.12805">
        <ele>432.5</ele>
        <time>2022-09-30T13:44:00Z</time>
      </trkpt>
      <trkpt lat="47.05885" lon="7.12811">
        <ele>432.5</ele>
        <time>2022-09-30T13:44:01Z</time>
      </trkpt>
      <trkpt lat="47.05887" lon="7.12816">
        <ele>432.5</ele>
        <time>2022-09-30T13:44:02Z</time>
      </trkpt>
      <trkpt lat="47.0589" lon="7.12821">
        <ele>432.5</ele>
        <time>2022-09-30T13:44:03Z</time>
      </trkpt>
      <trkpt lat="47.05893" lon="7.12827">
        <ele>432.6</ele>
        <time>2022-09-30T13:44:04Z</time>
      </trkpt>
      <trkpt lat="47.05895" lon="7.12832">
        <ele>432.6</ele>
        <time>2022-09-30T13:44:05Z</time>
      </trkpt>
      <trkpt lat="47.05897" lon="7.12837">
        <ele>432.6</ele>
        <time>2022-09-30T13:44:06Z</time>
      </trkpt>
      <trkpt lat="47.05899" lon="7.12842">
        <ele>432.6</ele>
        <time>2022-09-30T13:44:07Z</time>
      </trkpt>
      <trkpt lat="47.05902" lon="7.12848">
        <ele>432.6</ele>
        <time>2022-09-30T13:44:08Z</time>
      </trkpt>
      <trkpt lat="47.05904" lon="7.12853">
        <ele>432.6</ele>
        <time>2022-09-30T13:44:09Z</time>
      </trkpt>
      <trkpt lat="47.05905" lon="7.12856">
        <ele>432.6</ele>
        <time>2022-09-30T13:44:10Z</time>
      </trkpt>
      <trkpt lat="47.05907" lon="7.12861">
        <ele>432.6</ele>
        <time>2022-09-30T13:44:11Z</time>
      </trkpt>
      <trkpt lat="47.05909" lon="7.12864">
        <ele>432.6</ele>
        <time>2022-09-30T13:44:12Z</time>
      </trkpt>
      <trkpt lat="47.05911" lon="7.12868">
        <ele>432.6</ele>
        <time>2022-09-30T13:44:13Z</time>
      </trkpt>
      <trkpt lat="47.05912" lon="7.12872">
        <ele>432.6</ele>
        <time>2022-09-30T13:44:14Z</time>
      </trkpt>
      <trkpt lat="47.05915" lon="7.12877">
        <ele>432.6</ele>
        <time>2022-09-30T13:44:15Z</time>
      </trkpt>
      <trkpt lat="47.05916" lon="7.12881">
        <ele>432.6</ele>
        <time>2022-09-30T13:44:16Z</time>
      </trkpt>
      <trkpt lat="47.05919" lon="7.12886">
        <ele>432.6</ele>
        <time>2022-09-30T13:44:17Z</time>
      </trkpt>
      <trkpt lat="47.0592" lon="7.1289">
        <ele>432.6</ele>
        <time>2022-09-30T13:44:18Z</time>
      </trkpt>
      <trkpt lat="47.05923" lon="7.12895">
        <ele>432.6</ele>
        <time>2022-09-30T13:44:19Z</time>
      </trkpt>
      <trkpt lat="47.05926" lon="7.12903">
        <ele>432.6</ele>
        <time>2022-09-30T13:44:20Z</time>
      </trkpt>
      <trkpt lat="47.05928" lon="7.12908">
        <ele>432.6</ele>
        <time>2022-09-30T13:44:21Z</time>
      </trkpt>
      <trkpt lat="47.05931" lon="7.12914">
        <ele>432.6</ele>
        <time>2022-09-30T13:44:22Z</time>
      </trkpt>
      <trkpt lat="47.05934" lon="7.1292">
        <ele>432.6</ele>
        <time>2022-09-30T13:44:23Z</time>
      </trkpt>
      <trkpt lat="47.05936" lon="7.12925">
        <ele>432.6</ele>
        <time>2022-09-30T13:44:24Z</time>
      </trkpt>
      <trkpt lat="47.05938" lon="7.12929">
        <ele>432.6</ele>
        <time>2022-09-30T13:44:25Z</time>
      </trkpt>
      <trkpt lat="47.0594" lon="7.12935">
        <ele>432.6</ele>
        <time>2022-09-30T13:44:26Z</time>
      </trkpt>
      <trkpt lat="47.05942" lon="7.1294">
        <ele>432.6</ele>
        <time>2022-09-30T13:44:27Z</time>
      </trkpt>
      <trkpt lat="47.05945" lon="7.12945">
        <ele>432.6</ele>
        <time>2022-09-30T13:44:28Z</time>
      </trkpt>
      <trkpt lat="47.05948" lon="7.12951">
        <ele>432.5</ele>
        <time>2022-09-30T13:44:29Z</time>
      </trkpt>
      <trkpt lat="47.0595" lon="7.12957">
        <ele>432.5</ele>
        <time>2022-09-30T13:44:30Z</time>
      </trkpt>
      <trkpt lat="47.05953" lon="7.12963">
        <ele>432.5</ele>
        <time>2022-09-30T13:44:31Z</time>
      </trkpt>
      <trkpt lat="47.05955" lon="7.12968">
        <ele>432.5</ele>
        <time>2022-09-30T13:44:32Z</time>
      </trkpt>
      <trkpt lat="47.05958" lon="7.12973">
        <ele>432.5</ele>
        <time>2022-09-30T13:44:33Z</time>
      </trkpt>
      <trkpt lat="47.0596" lon="7.1298">
        <ele>432.5</ele>
        <time>2022-09-30T13:44:34Z</time>
      </trkpt>
      <trkpt lat="47.05963" lon="7.12986">
        <ele>432.5</ele>
        <time>2022-09-30T13:44:35Z</time>
      </trkpt>
      <trkpt lat="47.05965" lon="7.12991">
        <ele>432.5</ele>
        <time>2022-09-30T13:44:36Z</time>
      </trkpt>
      <trkpt lat="47.05968" lon="7.12996">
        <ele>432.5</ele>
        <time>2022-09-30T13:44:37Z</time>
      </trkpt>
      <trkpt lat="47.0597" lon="7.13002">
        <ele>432.5</ele>
        <time>2022-09-30T13:44:38Z</time>
      </trkpt>
      <trkpt lat="47.05973" lon="7.13007">
        <ele>432.5</ele>
        <time>2022-09-30T13:44:39Z</time>
      </trkpt>
      <trkpt lat="47.05975" lon="7.13012">
        <ele>432.5</ele>
        <time>2022-09-30T13:44:40Z</time>
      </trkpt>
      <trkpt lat="47.05976" lon="7.13017">
        <ele>432.5</ele>
        <time>2022-09-30T13:44:41Z</time>
      </trkpt>
      <trkpt lat="47.05979" lon="7.13023">
        <ele>432.5</ele>
        <time>2022-09-30T13:44:42Z</time>
      </trkpt>
      <trkpt lat="47.05981" lon="7.13028">
        <ele>432.5</ele>
        <time>2022-09-30T13:44:43Z</time>
      </trkpt>
      <trkpt lat="47.05983" lon="7.13033">
        <ele>432.4</ele>
        <time>2022-09-30T13:44:44Z</time>
      </trkpt>
      <trkpt lat="47.05986" lon="7.1304">
        <ele>432.4</ele>
        <time>2022-09-30T13:44:45Z</time>
      </trkpt>
      <trkpt lat="47.05988" lon="7.13044">
        <ele>432.4</ele>
        <time>2022-09-30T13:44:46Z</time>
      </trkpt>
      <trkpt lat="47.0599" lon="7.13049">
        <ele>432.4</ele>
        <time>2022-09-30T13:44:47Z</time>
      </trkpt>
      <trkpt lat="47.05992" lon="7.13054">
        <ele>432.4</ele>
        <time>2022-09-30T13:44:48Z</time>
      </trkpt>
      <trkpt lat="47.05994" lon="7.13058">
        <ele>432.4</ele>
        <time>2022-09-30T13:44:49Z</time>
      </trkpt>
      <trkpt lat="47.05996" lon="7.13064">
        <ele>432.4</ele>
        <time>2022-09-30T13:44:50Z</time>
      </trkpt>
      <trkpt lat="47.05998" lon="7.13069">
        <ele>432.4</ele>
        <time>2022-09-30T13:44:51Z</time>
      </trkpt>
      <trkpt lat="47.06" lon="7.13075">
        <ele>432.4</ele>
        <time>2022-09-30T13:44:52Z</time>
      </trkpt>
      <trkpt lat="47.06003" lon="7.1308">
        <ele>432.4</ele>
        <time>2022-09-30T13:44:53Z</time>
      </trkpt>
      <trkpt lat="47.06005" lon="7.13085">
        <ele>432.4</ele>
        <time>2022-09-30T13:44:54Z</time>
      </trkpt>
      <trkpt lat="47.06007" lon="7.1309">
        <ele>432.4</ele>
        <time>2022-09-30T13:44:55Z</time>
      </trkpt>
      <trkpt lat="47.06009" lon="7.13096">
        <ele>432.5</ele>
        <time>2022-09-30T13:44:56Z</time>
      </trkpt>
      <trkpt lat="47.06011" lon="7.13102">
        <ele>432.5</ele>
        <time>2022-09-30T13:44:57Z</time>
      </trkpt>
      <trkpt lat="47.06012" lon="7.13108">
        <ele>432.5</ele>
        <time>2022-09-30T13:44:58Z</time>
      </trkpt>
      <trkpt lat="47.06015" lon="7.13114">
        <ele>432.5</ele>
        <time>2022-09-30T13:44:59Z</time>
      </trkpt>
      <trkpt lat="47.06016" lon="7.13119">
        <ele>432.5</ele>
        <time>2022-09-30T13:45:00Z</time>
      </trkpt>
      <trkpt lat="47.06019" lon="7.13125">
        <ele>432.6</ele>
        <time>2022-09-30T13:45:01Z</time>
      </trkpt>
      <trkpt lat="47.0602" lon="7.13129">
        <ele>432.6</ele>
        <time>2022-09-30T13:45:02Z</time>
      </trkpt>
      <trkpt lat="47.06022" lon="7.13134">
        <ele>432.7</ele>
        <time>2022-09-30T13:45:03Z</time>
      </trkpt>
      <trkpt lat="47.06024" lon="7.13138">
        <ele>432.7</ele>
        <time>2022-09-30T13:45:04Z</time>
      </trkpt>
      <trkpt lat="47.06027" lon="7.13143">
        <ele>432.7</ele>
        <time>2022-09-30T13:45:05Z</time>
      </trkpt>
      <trkpt lat="47.06028" lon="7.13149">
        <ele>432.8</ele>
        <time>2022-09-30T13:45:06Z</time>
      </trkpt>
      <trkpt lat="47.06029" lon="7.13153">
        <ele>432.8</ele>
        <time>2022-09-30T13:45:07Z</time>
      </trkpt>
      <trkpt lat="47.06029" lon="7.13157">
        <ele>432.9</ele>
        <time>2022-09-30T13:45:08Z</time>
      </trkpt>
      <trkpt lat="47.06031" lon="7.13162">
        <ele>432.9</ele>
        <time>2022-09-30T13:45:10Z</time>
      </trkpt>
      <trkpt lat="47.06033" lon="7.13166">
        <ele>432.9</ele>
        <time>2022-09-30T13:45:11Z</time>
      </trkpt>
      <trkpt lat="47.06034" lon="7.1317">
        <ele>433</ele>
        <time>2022-09-30T13:45:12Z</time>
      </trkpt>
      <trkpt lat="47.06035" lon="7.13175">
        <ele>433</ele>
        <time>2022-09-30T13:45:13Z</time>
      </trkpt>
      <trkpt lat="47.06035" lon="7.13179">
        <ele>433.1</ele>
        <time>2022-09-30T13:45:14Z</time>
      </trkpt>
      <trkpt lat="47.06037" lon="7.13183">
        <ele>433.1</ele>
        <time>2022-09-30T13:45:15Z</time>
      </trkpt>
      <trkpt lat="47.06038" lon="7.13188">
        <ele>433.2</ele>
        <time>2022-09-30T13:45:16Z</time>
      </trkpt>
      <trkpt lat="47.06038" lon="7.13193">
        <ele>433.3</ele>
        <time>2022-09-30T13:45:17Z</time>
      </trkpt>
      <trkpt lat="47.06039" lon="7.13197">
        <ele>433.3</ele>
        <time>2022-09-30T13:45:18Z</time>
      </trkpt>
      <trkpt lat="47.06039" lon="7.13202">
        <ele>433.4</ele>
        <time>2022-09-30T13:45:19Z</time>
      </trkpt>
      <trkpt lat="47.06038" lon="7.13208">
        <ele>433.5</ele>
        <time>2022-09-30T13:45:20Z</time>
      </trkpt>
      <trkpt lat="47.06038" lon="7.1321">
        <ele>433.6</ele>
        <time>2022-09-30T13:45:21Z</time>
      </trkpt>
      <trkpt lat="47.06039" lon="7.13215">
        <ele>433.7</ele>
        <time>2022-09-30T13:45:22Z</time>
      </trkpt>
      <trkpt lat="47.06039" lon="7.13218">
        <ele>433.7</ele>
        <time>2022-09-30T13:45:23Z</time>
      </trkpt>
      <trkpt lat="47.06039" lon="7.13222">
        <ele>433.8</ele>
        <time>2022-09-30T13:45:24Z</time>
      </trkpt>
      <trkpt lat="47.0604" lon="7.13226">
        <ele>433.9</ele>
        <time>2022-09-30T13:45:25Z</time>
      </trkpt>
      <trkpt lat="47.06042" lon="7.1323">
        <ele>434</ele>
        <time>2022-09-30T13:45:26Z</time>
      </trkpt>
      <trkpt lat="47.06046" lon="7.1324">
        <ele>434.2</ele>
        <time>2022-09-30T13:45:27Z</time>
      </trkpt>
      <trkpt lat="47.06048" lon="7.13243">
        <ele>434.2</ele>
        <time>2022-09-30T13:45:28Z</time>
      </trkpt>
      <trkpt lat="47.06051" lon="7.13247">
        <ele>434.3</ele>
        <time>2022-09-30T13:45:29Z</time>
      </trkpt>
      <trkpt lat="47.06054" lon="7.1325">
        <ele>434.3</ele>
        <time>2022-09-30T13:45:30Z</time>
      </trkpt>
      <trkpt lat="47.06056" lon="7.1325">
        <ele>434.4</ele>
        <time>2022-09-30T13:45:31Z</time>
      </trkpt>
      <trkpt lat="47.0606" lon="7.13251">
        <ele>434.4</ele>
        <time>2022-09-30T13:45:32Z</time>
      </trkpt>
      <trkpt lat="47.06061" lon="7.13251">
        <ele>434.4</ele>
        <time>2022-09-30T13:45:33Z</time>
      </trkpt>
      <trkpt lat="47.06064" lon="7.13253">
        <ele>434.4</ele>
        <time>2022-09-30T13:45:34Z</time>
      </trkpt>
      <trkpt lat="47.06068" lon="7.13254">
        <ele>434.4</ele>
        <time>2022-09-30T13:45:35Z</time>
      </trkpt>
      <trkpt lat="47.0607" lon="7.13255">
        <ele>434.4</ele>
        <time>2022-09-30T13:45:36Z</time>
      </trkpt>
      <trkpt lat="47.06074" lon="7.13255">
        <ele>434.4</ele>
        <time>2022-09-30T13:45:37Z</time>
      </trkpt>
      <trkpt lat="47.06078" lon="7.13255">
        <ele>434.4</ele>
        <time>2022-09-30T13:45:38Z</time>
      </trkpt>
      <trkpt lat="47.06081" lon="7.13255">
        <ele>434.4</ele>
        <time>2022-09-30T13:45:39Z</time>
      </trkpt>
      <trkpt lat="47.06085" lon="7.13255">
        <ele>434.4</ele>
        <time>2022-09-30T13:45:40Z</time>
      </trkpt>
      <trkpt lat="47.06086" lon="7.13255">
        <ele>434.4</ele>
        <time>2022-09-30T13:45:41Z</time>
      </trkpt>
      <trkpt lat="47.06089" lon="7.13254">
        <ele>434.4</ele>
        <time>2022-09-30T13:45:42Z</time>
      </trkpt>
      <trkpt lat="47.06092" lon="7.13255">
        <ele>434.4</ele>
        <time>2022-09-30T13:45:43Z</time>
      </trkpt>
      <trkpt lat="47.06096" lon="7.13256">
        <ele>434.5</ele>
        <time>2022-09-30T13:45:44Z</time>
      </trkpt>
      <trkpt lat="47.06099" lon="7.13255">
        <ele>434.5</ele>
        <time>2022-09-30T13:45:45Z</time>
      </trkpt>
      <trkpt lat="47.06103" lon="7.13255">
        <ele>434.5</ele>
        <time>2022-09-30T13:45:46Z</time>
      </trkpt>
      <trkpt lat="47.06107" lon="7.13255">
        <ele>434.6</ele>
        <time>2022-09-30T13:45:47Z</time>
      </trkpt>
      <trkpt lat="47.06112" lon="7.13254">
        <ele>434.6</ele>
        <time>2022-09-30T13:45:48Z</time>
      </trkpt>
      <trkpt lat="47.06115" lon="7.13255">
        <ele>434.6</ele>
        <time>2022-09-30T13:45:49Z</time>
      </trkpt>
      <trkpt lat="47.06118" lon="7.13256">
        <ele>434.7</ele>
        <time>2022-09-30T13:45:50Z</time>
      </trkpt>
      <trkpt lat="47.0612" lon="7.13256">
        <ele>434.7</ele>
        <time>2022-09-30T13:45:51Z</time>
      </trkpt>
      <trkpt lat="47.06123" lon="7.13256">
        <ele>434.8</ele>
        <time>2022-09-30T13:45:52Z</time>
      </trkpt>
      <trkpt lat="47.06126" lon="7.13255">
        <ele>434.8</ele>
        <time>2022-09-30T13:45:53Z</time>
      </trkpt>
      <trkpt lat="47.0613" lon="7.13256">
        <ele>434.8</ele>
        <time>2022-09-30T13:45:54Z</time>
      </trkpt>
      <trkpt lat="47.06132" lon="7.13256">
        <ele>434.8</ele>
        <time>2022-09-30T13:45:55Z</time>
      </trkpt>
      <trkpt lat="47.06136" lon="7.13257">
        <ele>434.9</ele>
        <time>2022-09-30T13:45:56Z</time>
      </trkpt>
      <trkpt lat="47.06137" lon="7.13257">
        <ele>434.9</ele>
        <time>2022-09-30T13:45:57Z</time>
      </trkpt>
      <trkpt lat="47.06141" lon="7.13257">
        <ele>434.9</ele>
        <time>2022-09-30T13:45:58Z</time>
      </trkpt>
      <trkpt lat="47.06143" lon="7.13258">
        <ele>434.9</ele>
        <time>2022-09-30T13:45:59Z</time>
      </trkpt>
      <trkpt lat="47.06146" lon="7.13261">
        <ele>434.9</ele>
        <time>2022-09-30T13:46:00Z</time>
      </trkpt>
      <trkpt lat="47.06149" lon="7.13263">
        <ele>434.9</ele>
        <time>2022-09-30T13:46:01Z</time>
      </trkpt>
      <trkpt lat="47.06151" lon="7.13265">
        <ele>434.9</ele>
        <time>2022-09-30T13:46:02Z</time>
      </trkpt>
      <trkpt lat="47.06154" lon="7.13268">
        <ele>434.8</ele>
        <time>2022-09-30T13:46:03Z</time>
      </trkpt>
      <trkpt lat="47.06155" lon="7.1327">
        <ele>434.8</ele>
        <time>2022-09-30T13:46:04Z</time>
      </trkpt>
      <trkpt lat="47.06158" lon="7.13274">
        <ele>434.8</ele>
        <time>2022-09-30T13:46:05Z</time>
      </trkpt>
      <trkpt lat="47.06159" lon="7.13277">
        <ele>434.8</ele>
        <time>2022-09-30T13:46:06Z</time>
      </trkpt>
      <trkpt lat="47.06164" lon="7.13279">
        <ele>434.7</ele>
        <time>2022-09-30T13:46:07Z</time>
      </trkpt>
      <trkpt lat="47.06168" lon="7.13281">
        <ele>434.6</ele>
        <time>2022-09-30T13:46:08Z</time>
      </trkpt>
      <trkpt lat="47.06171" lon="7.13285">
        <ele>434.6</ele>
        <time>2022-09-30T13:46:09Z</time>
      </trkpt>
      <trkpt lat="47.06175" lon="7.13287">
        <ele>434.5</ele>
        <time>2022-09-30T13:46:10Z</time>
      </trkpt>
      <trkpt lat="47.06179" lon="7.13289">
        <ele>434.4</ele>
        <time>2022-09-30T13:46:11Z</time>
      </trkpt>
      <trkpt lat="47.06181" lon="7.1329">
        <ele>434.4</ele>
        <time>2022-09-30T13:46:12Z</time>
      </trkpt>
      <trkpt lat="47.06185" lon="7.13292">
        <ele>434.3</ele>
        <time>2022-09-30T13:46:13Z</time>
      </trkpt>
      <trkpt lat="47.06189" lon="7.13294">
        <ele>434.2</ele>
        <time>2022-09-30T13:46:14Z</time>
      </trkpt>
      <trkpt lat="47.06194" lon="7.13295">
        <ele>434.1</ele>
        <time>2022-09-30T13:46:15Z</time>
      </trkpt>
      <trkpt lat="47.06196" lon="7.13296">
        <ele>434</ele>
        <time>2022-09-30T13:46:16Z</time>
      </trkpt>
      <trkpt lat="47.062" lon="7.13298">
        <ele>434</ele>
        <time>2022-09-30T13:46:17Z</time>
      </trkpt>
      <trkpt lat="47.06203" lon="7.13299">
        <ele>433.9</ele>
        <time>2022-09-30T13:46:18Z</time>
      </trkpt>
      <trkpt lat="47.06208" lon="7.13301">
        <ele>433.8</ele>
        <time>2022-09-30T13:46:19Z</time>
      </trkpt>
      <trkpt lat="47.06211" lon="7.13302">
        <ele>433.8</ele>
        <time>2022-09-30T13:46:20Z</time>
      </trkpt>
      <trkpt lat="47.06216" lon="7.13304">
        <ele>433.8</ele>
        <time>2022-09-30T13:46:21Z</time>
      </trkpt>
      <trkpt lat="47.06218" lon="7.13307">
        <ele>433.7</ele>
        <time>2022-09-30T13:46:22Z</time>
      </trkpt>
      <trkpt lat="47.06222" lon="7.13309">
        <ele>433.7</ele>
        <time>2022-09-30T13:46:23Z</time>
      </trkpt>
      <trkpt lat="47.06226" lon="7.13312">
        <ele>433.6</ele>
        <time>2022-09-30T13:46:24Z</time>
      </trkpt>
      <trkpt lat="47.06232" lon="7.13315">
        <ele>433.6</ele>
        <time>2022-09-30T13:46:25Z</time>
      </trkpt>
      <trkpt lat="47.06235" lon="7.13319">
        <ele>433.5</ele>
        <time>2022-09-30T13:46:26Z</time>
      </trkpt>
      <trkpt lat="47.06238" lon="7.13322">
        <ele>433.5</ele>
        <time>2022-09-30T13:46:27Z</time>
      </trkpt>
      <trkpt lat="47.06241" lon="7.13324">
        <ele>433.5</ele>
        <time>2022-09-30T13:46:28Z</time>
      </trkpt>
      <trkpt lat="47.06245" lon="7.13327">
        <ele>433.4</ele>
        <time>2022-09-30T13:46:29Z</time>
      </trkpt>
      <trkpt lat="47.06249" lon="7.13327">
        <ele>433.4</ele>
        <time>2022-09-30T13:46:30Z</time>
      </trkpt>
      <trkpt lat="47.06252" lon="7.13329">
        <ele>433.4</ele>
        <time>2022-09-30T13:46:31Z</time>
      </trkpt>
      <trkpt lat="47.06254" lon="7.13332">
        <ele>433.4</ele>
        <time>2022-09-30T13:46:32Z</time>
      </trkpt>
      <trkpt lat="47.06257" lon="7.13337">
        <ele>433.4</ele>
        <time>2022-09-30T13:46:33Z</time>
      </trkpt>
      <trkpt lat="47.06259" lon="7.13339">
        <ele>433.4</ele>
        <time>2022-09-30T13:46:34Z</time>
      </trkpt>
      <trkpt lat="47.06262" lon="7.13342">
        <ele>433.3</ele>
        <time>2022-09-30T13:46:35Z</time>
      </trkpt>
      <trkpt lat="47.06265" lon="7.13346">
        <ele>433.3</ele>
        <time>2022-09-30T13:46:36Z</time>
      </trkpt>
      <trkpt lat="47.06268" lon="7.13349">
        <ele>433.3</ele>
        <time>2022-09-30T13:46:37Z</time>
      </trkpt>
      <trkpt lat="47.06272" lon="7.13353">
        <ele>433.3</ele>
        <time>2022-09-30T13:46:38Z</time>
      </trkpt>
      <trkpt lat="47.06276" lon="7.13356">
        <ele>433.3</ele>
        <time>2022-09-30T13:46:39Z</time>
      </trkpt>
      <trkpt lat="47.06279" lon="7.1336">
        <ele>433.3</ele>
        <time>2022-09-30T13:46:40Z</time>
      </trkpt>
      <trkpt lat="47.06282" lon="7.13364">
        <ele>433.3</ele>
        <time>2022-09-30T13:46:41Z</time>
      </trkpt>
      <trkpt lat="47.06285" lon="7.13367">
        <ele>433.3</ele>
        <time>2022-09-30T13:46:42Z</time>
      </trkpt>
      <trkpt lat="47.06289" lon="7.13371">
        <ele>433.3</ele>
        <time>2022-09-30T13:46:43Z</time>
      </trkpt>
      <trkpt lat="47.06292" lon="7.13376">
        <ele>433.3</ele>
        <time>2022-09-30T13:46:44Z</time>
      </trkpt>
      <trkpt lat="47.06295" lon="7.13381">
        <ele>433.3</ele>
        <time>2022-09-30T13:46:45Z</time>
      </trkpt>
      <trkpt lat="47.063" lon="7.13384">
        <ele>433.3</ele>
        <time>2022-09-30T13:46:46Z</time>
      </trkpt>
      <trkpt lat="47.06303" lon="7.13388">
        <ele>433.3</ele>
        <time>2022-09-30T13:46:47Z</time>
      </trkpt>
      <trkpt lat="47.06306" lon="7.1339">
        <ele>433.3</ele>
        <time>2022-09-30T13:46:48Z</time>
      </trkpt>
      <trkpt lat="47.06311" lon="7.13396">
        <ele>433.3</ele>
        <time>2022-09-30T13:46:49Z</time>
      </trkpt>
      <trkpt lat="47.06314" lon="7.134">
        <ele>433.3</ele>
        <time>2022-09-30T13:46:50Z</time>
      </trkpt>
      <trkpt lat="47.06318" lon="7.13403">
        <ele>433.3</ele>
        <time>2022-09-30T13:46:51Z</time>
      </trkpt>
      <trkpt lat="47.06322" lon="7.13406">
        <ele>433.2</ele>
        <time>2022-09-30T13:46:52Z</time>
      </trkpt>
      <trkpt lat="47.06326" lon="7.1341">
        <ele>433.2</ele>
        <time>2022-09-30T13:46:53Z</time>
      </trkpt>
      <trkpt lat="47.0633" lon="7.13415">
        <ele>433.2</ele>
        <time>2022-09-30T13:46:54Z</time>
      </trkpt>
      <trkpt lat="47.06333" lon="7.13419">
        <ele>433.1</ele>
        <time>2022-09-30T13:46:55Z</time>
      </trkpt>
      <trkpt lat="47.06337" lon="7.13421">
        <ele>433.1</ele>
        <time>2022-09-30T13:46:56Z</time>
      </trkpt>
      <trkpt lat="47.06343" lon="7.13426">
        <ele>433</ele>
        <time>2022-09-30T13:46:57Z</time>
      </trkpt>
      <trkpt lat="47.06346" lon="7.13431">
        <ele>433</ele>
        <time>2022-09-30T13:46:58Z</time>
      </trkpt>
      <trkpt lat="47.06347" lon="7.13433">
        <ele>433</ele>
        <time>2022-09-30T13:46:59Z</time>
      </trkpt>
      <trkpt lat="47.06351" lon="7.13438">
        <ele>432.9</ele>
        <time>2022-09-30T13:47:00Z</time>
      </trkpt>
      <trkpt lat="47.06356" lon="7.13443">
        <ele>432.9</ele>
        <time>2022-09-30T13:47:01Z</time>
      </trkpt>
      <trkpt lat="47.0636" lon="7.13449">
        <ele>432.8</ele>
        <time>2022-09-30T13:47:02Z</time>
      </trkpt>
      <trkpt lat="47.06364" lon="7.13454">
        <ele>432.8</ele>
        <time>2022-09-30T13:47:03Z</time>
      </trkpt>
      <trkpt lat="47.06369" lon="7.1346">
        <ele>432.7</ele>
        <time>2022-09-30T13:47:04Z</time>
      </trkpt>
      <trkpt lat="47.06373" lon="7.13465">
        <ele>432.7</ele>
        <time>2022-09-30T13:47:05Z</time>
      </trkpt>
      <trkpt lat="47.06378" lon="7.13471">
        <ele>432.7</ele>
        <time>2022-09-30T13:47:06Z</time>
      </trkpt>
      <trkpt lat="47.06382" lon="7.13478">
        <ele>432.7</ele>
        <time>2022-09-30T13:47:07Z</time>
      </trkpt>
      <trkpt lat="47.06386" lon="7.13482">
        <ele>432.7</ele>
        <time>2022-09-30T13:47:08Z</time>
      </trkpt>
      <trkpt lat="47.06391" lon="7.13487">
        <ele>432.6</ele>
        <time>2022-09-30T13:47:09Z</time>
      </trkpt>
      <trkpt lat="47.06395" lon="7.13493">
        <ele>432.6</ele>
        <time>2022-09-30T13:47:10Z</time>
      </trkpt>
      <trkpt lat="47.06399" lon="7.13497">
        <ele>432.7</ele>
        <time>2022-09-30T13:47:11Z</time>
      </trkpt>
      <trkpt lat="47.06403" lon="7.13501">
        <ele>432.7</ele>
        <time>2022-09-30T13:47:12Z</time>
      </trkpt>
      <trkpt lat="47.06406" lon="7.13505">
        <ele>432.7</ele>
        <time>2022-09-30T13:47:13Z</time>
      </trkpt>
      <trkpt lat="47.06409" lon="7.13507">
        <ele>432.7</ele>
        <time>2022-09-30T13:47:14Z</time>
      </trkpt>
      <trkpt lat="47.06412" lon="7.13512">
        <ele>432.7</ele>
        <time>2022-09-30T13:47:16Z</time>
      </trkpt>
      <trkpt lat="47.06414" lon="7.13515">
        <ele>432.7</ele>
        <time>2022-09-30T13:47:17Z</time>
      </trkpt>
      <trkpt lat="47.06418" lon="7.13519">
        <ele>432.7</ele>
        <time>2022-09-30T13:47:18Z</time>
      </trkpt>
      <trkpt lat="47.06424" lon="7.13527">
        <ele>432.8</ele>
        <time>2022-09-30T13:47:19Z</time>
      </trkpt>
      <trkpt lat="47.06427" lon="7.13531">
        <ele>432.8</ele>
        <time>2022-09-30T13:47:20Z</time>
      </trkpt>
      <trkpt lat="47.0643" lon="7.13534">
        <ele>432.8</ele>
        <time>2022-09-30T13:47:21Z</time>
      </trkpt>
      <trkpt lat="47.06433" lon="7.1354">
        <ele>432.8</ele>
        <time>2022-09-30T13:47:22Z</time>
      </trkpt>
      <trkpt lat="47.06436" lon="7.13543">
        <ele>432.9</ele>
        <time>2022-09-30T13:47:23Z</time>
      </trkpt>
      <trkpt lat="47.06438" lon="7.13547">
        <ele>432.9</ele>
        <time>2022-09-30T13:47:24Z</time>
      </trkpt>
      <trkpt lat="47.06441" lon="7.13551">
        <ele>432.9</ele>
        <time>2022-09-30T13:47:25Z</time>
      </trkpt>
      <trkpt lat="47.06445" lon="7.13557">
        <ele>432.9</ele>
        <time>2022-09-30T13:47:26Z</time>
      </trkpt>
      <trkpt lat="47.06447" lon="7.13559">
        <ele>433</ele>
        <time>2022-09-30T13:47:27Z</time>
      </trkpt>
      <trkpt lat="47.06449" lon="7.13562">
        <ele>433</ele>
        <time>2022-09-30T13:47:28Z</time>
      </trkpt>
      <trkpt lat="47.06451" lon="7.13567">
        <ele>433</ele>
        <time>2022-09-30T13:47:29Z</time>
      </trkpt>
      <trkpt lat="47.06454" lon="7.13571">
        <ele>433</ele>
        <time>2022-09-30T13:47:30Z</time>
      </trkpt>
      <trkpt lat="47.06457" lon="7.13575">
        <ele>433</ele>
        <time>2022-09-30T13:47:31Z</time>
      </trkpt>
      <trkpt lat="47.0646" lon="7.13579">
        <ele>433</ele>
        <time>2022-09-30T13:47:32Z</time>
      </trkpt>
      <trkpt lat="47.06463" lon="7.13584">
        <ele>433</ele>
        <time>2022-09-30T13:47:34Z</time>
      </trkpt>
      <trkpt lat="47.06466" lon="7.13588">
        <ele>433</ele>
        <time>2022-09-30T13:47:35Z</time>
      </trkpt>
      <trkpt lat="47.06469" lon="7.13593">
        <ele>433</ele>
        <time>2022-09-30T13:47:36Z</time>
      </trkpt>
      <trkpt lat="47.06471" lon="7.13595">
        <ele>433</ele>
        <time>2022-09-30T13:47:37Z</time>
      </trkpt>
      <trkpt lat="47.06474" lon="7.136">
        <ele>433.1</ele>
        <time>2022-09-30T13:47:38Z</time>
      </trkpt>
      <trkpt lat="47.06478" lon="7.13604">
        <ele>433.1</ele>
        <time>2022-09-30T13:47:39Z</time>
      </trkpt>
      <trkpt lat="47.06481" lon="7.13608">
        <ele>433.1</ele>
        <time>2022-09-30T13:47:40Z</time>
      </trkpt>
      <trkpt lat="47.06484" lon="7.13611">
        <ele>433.1</ele>
        <time>2022-09-30T13:47:41Z</time>
      </trkpt>
      <trkpt lat="47.06488" lon="7.13616">
        <ele>433.1</ele>
        <time>2022-09-30T13:47:42Z</time>
      </trkpt>
      <trkpt lat="47.06491" lon="7.13622">
        <ele>433.2</ele>
        <time>2022-09-30T13:47:43Z</time>
      </trkpt>
      <trkpt lat="47.06494" lon="7.13625">
        <ele>433.2</ele>
        <time>2022-09-30T13:47:44Z</time>
      </trkpt>
      <trkpt lat="47.06497" lon="7.13627">
        <ele>433.2</ele>
        <time>2022-09-30T13:47:45Z</time>
      </trkpt>
      <trkpt lat="47.06501" lon="7.13632">
        <ele>433.2</ele>
        <time>2022-09-30T13:47:46Z</time>
      </trkpt>
      <trkpt lat="47.06506" lon="7.13634">
        <ele>433.2</ele>
        <time>2022-09-30T13:47:47Z</time>
      </trkpt>
      <trkpt lat="47.0651" lon="7.13638">
        <ele>433.2</ele>
        <time>2022-09-30T13:47:48Z</time>
      </trkpt>
      <trkpt lat="47.06514" lon="7.13642">
        <ele>433.2</ele>
        <time>2022-09-30T13:47:49Z</time>
      </trkpt>
      <trkpt lat="47.06519" lon="7.13643">
        <ele>433.2</ele>
        <time>2022-09-30T13:47:50Z</time>
      </trkpt>
      <trkpt lat="47.06524" lon="7.13645">
        <ele>433.2</ele>
        <time>2022-09-30T13:47:51Z</time>
      </trkpt>
      <trkpt lat="47.06529" lon="7.13649">
        <ele>433.2</ele>
        <time>2022-09-30T13:47:52Z</time>
      </trkpt>
      <trkpt lat="47.06534" lon="7.13652">
        <ele>433.3</ele>
        <time>2022-09-30T13:47:53Z</time>
      </trkpt>
      <trkpt lat="47.0654" lon="7.13656">
        <ele>433.3</ele>
        <time>2022-09-30T13:47:54Z</time>
      </trkpt>
      <trkpt lat="47.06545" lon="7.13658">
        <ele>433.3</ele>
        <time>2022-09-30T13:47:55Z</time>
      </trkpt>
      <trkpt lat="47.06548" lon="7.1366">
        <ele>433.3</ele>
        <time>2022-09-30T13:47:56Z</time>
      </trkpt>
      <trkpt lat="47.06553" lon="7.13663">
        <ele>433.3</ele>
        <time>2022-09-30T13:47:57Z</time>
      </trkpt>
      <trkpt lat="47.06557" lon="7.13665">
        <ele>433.3</ele>
        <time>2022-09-30T13:47:58Z</time>
      </trkpt>
      <trkpt lat="47.06561" lon="7.13669">
        <ele>433.3</ele>
        <time>2022-09-30T13:47:59Z</time>
      </trkpt>
      <trkpt lat="47.06566" lon="7.13672">
        <ele>433.3</ele>
        <time>2022-09-30T13:48:00Z</time>
      </trkpt>
      <trkpt lat="47.06569" lon="7.13675">
        <ele>433.3</ele>
        <time>2022-09-30T13:48:01Z</time>
      </trkpt>
      <trkpt lat="47.06573" lon="7.13677">
        <ele>433.3</ele>
        <time>2022-09-30T13:48:02Z</time>
      </trkpt>
      <trkpt lat="47.0658" lon="7.13681">
        <ele>433.3</ele>
        <time>2022-09-30T13:48:03Z</time>
      </trkpt>
      <trkpt lat="47.06585" lon="7.13684">
        <ele>433.3</ele>
        <time>2022-09-30T13:48:04Z</time>
      </trkpt>
      <trkpt lat="47.06589" lon="7.13687">
        <ele>433.3</ele>
        <time>2022-09-30T13:48:05Z</time>
      </trkpt>
      <trkpt lat="47.06594" lon="7.1369">
        <ele>433.3</ele>
        <time>2022-09-30T13:48:06Z</time>
      </trkpt>
      <trkpt lat="47.06599" lon="7.13692">
        <ele>433.3</ele>
        <time>2022-09-30T13:48:07Z</time>
      </trkpt>
      <trkpt lat="47.06602" lon="7.13696">
        <ele>433.4</ele>
        <time>2022-09-30T13:48:08Z</time>
      </trkpt>
      <trkpt lat="47.06606" lon="7.13699">
        <ele>433.4</ele>
        <time>2022-09-30T13:48:09Z</time>
      </trkpt>
      <trkpt lat="47.0661" lon="7.13703">
        <ele>433.4</ele>
        <time>2022-09-30T13:48:10Z</time>
      </trkpt>
      <trkpt lat="47.06614" lon="7.13706">
        <ele>433.4</ele>
        <time>2022-09-30T13:48:11Z</time>
      </trkpt>
      <trkpt lat="47.06619" lon="7.13708">
        <ele>433.4</ele>
        <time>2022-09-30T13:48:12Z</time>
      </trkpt>
      <trkpt lat="47.06623" lon="7.1371">
        <ele>433.4</ele>
        <time>2022-09-30T13:48:13Z</time>
      </trkpt>
      <trkpt lat="47.06628" lon="7.13711">
        <ele>433.4</ele>
        <time>2022-09-30T13:48:14Z</time>
      </trkpt>
      <trkpt lat="47.06632" lon="7.13714">
        <ele>433.4</ele>
        <time>2022-09-30T13:48:15Z</time>
      </trkpt>
      <trkpt lat="47.06636" lon="7.13717">
        <ele>433.5</ele>
        <time>2022-09-30T13:48:16Z</time>
      </trkpt>
      <trkpt lat="47.0664" lon="7.13719">
        <ele>433.5</ele>
        <time>2022-09-30T13:48:17Z</time>
      </trkpt>
      <trkpt lat="47.06644" lon="7.1372">
        <ele>433.5</ele>
        <time>2022-09-30T13:48:18Z</time>
      </trkpt>
      <trkpt lat="47.06648" lon="7.13722">
        <ele>433.5</ele>
        <time>2022-09-30T13:48:19Z</time>
      </trkpt>
      <trkpt lat="47.06652" lon="7.13723">
        <ele>433.5</ele>
        <time>2022-09-30T13:48:20Z</time>
      </trkpt>
      <trkpt lat="47.06655" lon="7.13725">
        <ele>433.5</ele>
        <time>2022-09-30T13:48:21Z</time>
      </trkpt>
      <trkpt lat="47.06659" lon="7.13726">
        <ele>433.5</ele>
        <time>2022-09-30T13:48:22Z</time>
      </trkpt>
      <trkpt lat="47.06663" lon="7.13728">
        <ele>433.5</ele>
        <time>2022-09-30T13:48:23Z</time>
      </trkpt>
      <trkpt lat="47.06667" lon="7.1373">
        <ele>433.5</ele>
        <time>2022-09-30T13:48:24Z</time>
      </trkpt>
      <trkpt lat="47.0667" lon="7.13732">
        <ele>433.5</ele>
        <time>2022-09-30T13:48:25Z</time>
      </trkpt>
      <trkpt lat="47.06674" lon="7.13733">
        <ele>433.5</ele>
        <time>2022-09-30T13:48:26Z</time>
      </trkpt>
      <trkpt lat="47.06676" lon="7.13737">
        <ele>433.5</ele>
        <time>2022-09-30T13:48:27Z</time>
      </trkpt>
      <trkpt lat="47.06678" lon="7.13739">
        <ele>433.5</ele>
        <time>2022-09-30T13:48:28Z</time>
      </trkpt>
      <trkpt lat="47.06684" lon="7.13742">
        <ele>433.5</ele>
        <time>2022-09-30T13:48:29Z</time>
      </trkpt>
      <trkpt lat="47.06688" lon="7.13744">
        <ele>433.5</ele>
        <time>2022-09-30T13:48:30Z</time>
      </trkpt>
      <trkpt lat="47.06692" lon="7.13746">
        <ele>433.5</ele>
        <time>2022-09-30T13:48:31Z</time>
      </trkpt>
      <trkpt lat="47.06696" lon="7.13749">
        <ele>433.5</ele>
        <time>2022-09-30T13:48:32Z</time>
      </trkpt>
      <trkpt lat="47.06701" lon="7.13752">
        <ele>433.5</ele>
        <time>2022-09-30T13:48:33Z</time>
      </trkpt>
      <trkpt lat="47.06706" lon="7.13754">
        <ele>433.5</ele>
        <time>2022-09-30T13:48:34Z</time>
      </trkpt>
      <trkpt lat="47.06711" lon="7.13757">
        <ele>433.5</ele>
        <time>2022-09-30T13:48:35Z</time>
      </trkpt>
      <trkpt lat="47.06716" lon="7.1376">
        <ele>433.5</ele>
        <time>2022-09-30T13:48:36Z</time>
      </trkpt>
      <trkpt lat="47.06722" lon="7.13763">
        <ele>433.5</ele>
        <time>2022-09-30T13:48:37Z</time>
      </trkpt>
      <trkpt lat="47.06725" lon="7.13766">
        <ele>433.5</ele>
        <time>2022-09-30T13:48:38Z</time>
      </trkpt>
      <trkpt lat="47.06731" lon="7.13769">
        <ele>433.5</ele>
        <time>2022-09-30T13:48:39Z</time>
      </trkpt>
      <trkpt lat="47.06737" lon="7.13771">
        <ele>433.6</ele>
        <time>2022-09-30T13:48:40Z</time>
      </trkpt>
      <trkpt lat="47.0674" lon="7.13773">
        <ele>433.6</ele>
        <time>2022-09-30T13:48:41Z</time>
      </trkpt>
      <trkpt lat="47.06744" lon="7.13775">
        <ele>433.6</ele>
        <time>2022-09-30T13:48:42Z</time>
      </trkpt>
      <trkpt lat="47.06747" lon="7.13778">
        <ele>433.6</ele>
        <time>2022-09-30T13:48:43Z</time>
      </trkpt>
      <trkpt lat="47.06752" lon="7.13781">
        <ele>433.7</ele>
        <time>2022-09-30T13:48:44Z</time>
      </trkpt>
      <trkpt lat="47.06756" lon="7.13785">
        <ele>433.7</ele>
        <time>2022-09-30T13:48:45Z</time>
      </trkpt>
      <trkpt lat="47.06757" lon="7.13786">
        <ele>433.8</ele>
        <time>2022-09-30T13:48:46Z</time>
      </trkpt>
      <trkpt lat="47.06761" lon="7.13788">
        <ele>433.8</ele>
        <time>2022-09-30T13:48:47Z</time>
      </trkpt>
      <trkpt lat="47.06763" lon="7.1379">
        <ele>433.9</ele>
        <time>2022-09-30T13:48:48Z</time>
      </trkpt>
      <trkpt lat="47.06766" lon="7.13793">
        <ele>434</ele>
        <time>2022-09-30T13:48:49Z</time>
      </trkpt>
      <trkpt lat="47.06768" lon="7.13795">
        <ele>434</ele>
        <time>2022-09-30T13:48:50Z</time>
      </trkpt>
      <trkpt lat="47.0677" lon="7.13798">
        <ele>434.1</ele>
        <time>2022-09-30T13:48:51Z</time>
      </trkpt>
      <trkpt lat="47.06772" lon="7.13802">
        <ele>434.2</ele>
        <time>2022-09-30T13:48:52Z</time>
      </trkpt>
      <trkpt lat="47.06774" lon="7.13807">
        <ele>434.4</ele>
        <time>2022-09-30T13:48:53Z</time>
      </trkpt>
      <trkpt lat="47.06776" lon="7.1381">
        <ele>434.5</ele>
        <time>2022-09-30T13:48:54Z</time>
      </trkpt>
      <trkpt lat="47.06777" lon="7.13812">
        <ele>434.6</ele>
        <time>2022-09-30T13:48:55Z</time>
      </trkpt>
      <trkpt lat="47.0678" lon="7.13815">
        <ele>434.7</ele>
        <time>2022-09-30T13:48:56Z</time>
      </trkpt>
      <trkpt lat="47.0678" lon="7.13815">
        <ele>434.7</ele>
        <time>2022-09-30T13:48:57Z</time>
      </trkpt>
      <trkpt lat="47.06781" lon="7.13818">
        <ele>434.8</ele>
        <time>2022-09-30T13:48:58Z</time>
      </trkpt>
      <trkpt lat="47.06782" lon="7.13819">
        <ele>434.8</ele>
        <time>2022-09-30T13:48:59Z</time>
      </trkpt>
      <trkpt lat="47.06782" lon="7.13822">
        <ele>434.9</ele>
        <time>2022-09-30T13:49:00Z</time>
      </trkpt>
      <trkpt lat="47.06782" lon="7.13823">
        <ele>434.9</ele>
        <time>2022-09-30T13:49:01Z</time>
      </trkpt>
      <trkpt lat="47.06781" lon="7.13824">
        <ele>434.9</ele>
        <time>2022-09-30T13:49:02Z</time>
      </trkpt>
      <trkpt lat="47.0678" lon="7.13829">
        <ele>435.3</ele>
        <time>2022-09-30T13:49:03Z</time>
      </trkpt>
      <trkpt lat="47.0678" lon="7.13831">
        <ele>435.3</ele>
        <time>2022-09-30T13:49:04Z</time>
      </trkpt>
      <trkpt lat="47.06779" lon="7.13836">
        <ele>435.4</ele>
        <time>2022-09-30T13:49:05Z</time>
      </trkpt>
      <trkpt lat="47.0678" lon="7.13842">
        <ele>435.4</ele>
        <time>2022-09-30T13:49:06Z</time>
      </trkpt>
      <trkpt lat="47.0678" lon="7.13847">
        <ele>435.4</ele>
        <time>2022-09-30T13:49:07Z</time>
      </trkpt>
      <trkpt lat="47.06779" lon="7.13852">
        <ele>435.4</ele>
        <time>2022-09-30T13:49:08Z</time>
      </trkpt>
      <trkpt lat="47.06779" lon="7.13858">
        <ele>435.4</ele>
        <time>2022-09-30T13:49:09Z</time>
      </trkpt>
      <trkpt lat="47.06781" lon="7.13863">
        <ele>435.4</ele>
        <time>2022-09-30T13:49:10Z</time>
      </trkpt>
      <trkpt lat="47.06781" lon="7.13867">
        <ele>435.4</ele>
        <time>2022-09-30T13:49:11Z</time>
      </trkpt>
      <trkpt lat="47.06781" lon="7.13873">
        <ele>435.4</ele>
        <time>2022-09-30T13:49:12Z</time>
      </trkpt>
      <trkpt lat="47.06782" lon="7.13877">
        <ele>435.4</ele>
        <time>2022-09-30T13:49:13Z</time>
      </trkpt>
      <trkpt lat="47.06785" lon="7.13882">
        <ele>435.4</ele>
        <time>2022-09-30T13:49:14Z</time>
      </trkpt>
      <trkpt lat="47.06786" lon="7.13889">
        <ele>435.3</ele>
        <time>2022-09-30T13:49:15Z</time>
      </trkpt>
      <trkpt lat="47.06787" lon="7.13894">
        <ele>435.3</ele>
        <time>2022-09-30T13:49:16Z</time>
      </trkpt>
      <trkpt lat="47.06789" lon="7.13898">
        <ele>435.3</ele>
        <time>2022-09-30T13:49:17Z</time>
      </trkpt>
      <trkpt lat="47.06792" lon="7.13903">
        <ele>435.3</ele>
        <time>2022-09-30T13:49:18Z</time>
      </trkpt>
      <trkpt lat="47.06795" lon="7.13907">
        <ele>435.3</ele>
        <time>2022-09-30T13:49:19Z</time>
      </trkpt>
      <trkpt lat="47.06797" lon="7.13913">
        <ele>435.3</ele>
        <time>2022-09-30T13:49:20Z</time>
      </trkpt>
      <trkpt lat="47.06801" lon="7.13918">
        <ele>435.3</ele>
        <time>2022-09-30T13:49:22Z</time>
      </trkpt>
      <trkpt lat="47.06804" lon="7.13922">
        <ele>435.2</ele>
        <time>2022-09-30T13:49:23Z</time>
      </trkpt>
      <trkpt lat="47.06807" lon="7.13926">
        <ele>435.3</ele>
        <time>2022-09-30T13:49:24Z</time>
      </trkpt>
      <trkpt lat="47.0681" lon="7.13932">
        <ele>435.3</ele>
        <time>2022-09-30T13:49:25Z</time>
      </trkpt>
      <trkpt lat="47.06813" lon="7.13937">
        <ele>435.3</ele>
        <time>2022-09-30T13:49:26Z</time>
      </trkpt>
      <trkpt lat="47.06816" lon="7.13941">
        <ele>435.4</ele>
        <time>2022-09-30T13:49:27Z</time>
      </trkpt>
      <trkpt lat="47.06818" lon="7.13947">
        <ele>435.5</ele>
        <time>2022-09-30T13:49:28Z</time>
      </trkpt>
      <trkpt lat="47.06821" lon="7.1396">
        <ele>435.7</ele>
        <time>2022-09-30T13:49:29Z</time>
      </trkpt>
      <trkpt lat="47.06821" lon="7.13966">
        <ele>435.8</ele>
        <time>2022-09-30T13:49:30Z</time>
      </trkpt>
      <trkpt lat="47.06822" lon="7.13971">
        <ele>436</ele>
        <time>2022-09-30T13:49:31Z</time>
      </trkpt>
      <trkpt lat="47.06823" lon="7.13977">
        <ele>436.1</ele>
        <time>2022-09-30T13:49:32Z</time>
      </trkpt>
      <trkpt lat="47.06824" lon="7.13979">
        <ele>436.1</ele>
        <time>2022-09-30T13:49:33Z</time>
      </trkpt>
      <trkpt lat="47.06825" lon="7.13982">
        <ele>436.2</ele>
        <time>2022-09-30T13:49:34Z</time>
      </trkpt>
      <trkpt lat="47.06825" lon="7.13986">
        <ele>436.3</ele>
        <time>2022-09-30T13:49:36Z</time>
      </trkpt>
      <trkpt lat="47.06826" lon="7.13991">
        <ele>436.4</ele>
        <time>2022-09-30T13:49:37Z</time>
      </trkpt>
      <trkpt lat="47.06826" lon="7.13993">
        <ele>436.4</ele>
        <time>2022-09-30T13:49:38Z</time>
      </trkpt>
      <trkpt lat="47.06828" lon="7.14">
        <ele>436.5</ele>
        <time>2022-09-30T13:49:39Z</time>
      </trkpt>
      <trkpt lat="47.0683" lon="7.14003">
        <ele>436.5</ele>
        <time>2022-09-30T13:49:40Z</time>
      </trkpt>
      <trkpt lat="47.06831" lon="7.14007">
        <ele>436.5</ele>
        <time>2022-09-30T13:49:41Z</time>
      </trkpt>
      <trkpt lat="47.06832" lon="7.14012">
        <ele>436.5</ele>
        <time>2022-09-30T13:49:42Z</time>
      </trkpt>
      <trkpt lat="47.06833" lon="7.14014">
        <ele>436.6</ele>
        <time>2022-09-30T13:49:43Z</time>
      </trkpt>
      <trkpt lat="47.06833" lon="7.14018">
        <ele>436.6</ele>
        <time>2022-09-30T13:49:44Z</time>
      </trkpt>
      <trkpt lat="47.06834" lon="7.14022">
        <ele>436.6</ele>
        <time>2022-09-30T13:49:45Z</time>
      </trkpt>
      <trkpt lat="47.06836" lon="7.14026">
        <ele>436.6</ele>
        <time>2022-09-30T13:49:46Z</time>
      </trkpt>
      <trkpt lat="47.06837" lon="7.14031">
        <ele>436.6</ele>
        <time>2022-09-30T13:49:47Z</time>
      </trkpt>
      <trkpt lat="47.06838" lon="7.14035">
        <ele>436.5</ele>
        <time>2022-09-30T13:49:48Z</time>
      </trkpt>
      <trkpt lat="47.0684" lon="7.1404">
        <ele>436.5</ele>
        <time>2022-09-30T13:49:49Z</time>
      </trkpt>
      <trkpt lat="47.06842" lon="7.14044">
        <ele>436.5</ele>
        <time>2022-09-30T13:49:50Z</time>
      </trkpt>
      <trkpt lat="47.06844" lon="7.14048">
        <ele>436.5</ele>
        <time>2022-09-30T13:49:51Z</time>
      </trkpt>
      <trkpt lat="47.06844" lon="7.14049">
        <ele>436.5</ele>
        <time>2022-09-30T13:49:52Z</time>
      </trkpt>
      <trkpt lat="47.06845" lon="7.14053">
        <ele>436.5</ele>
        <time>2022-09-30T13:49:53Z</time>
      </trkpt>
      <trkpt lat="47.06848" lon="7.14058">
        <ele>436.4</ele>
        <time>2022-09-30T13:49:54Z</time>
      </trkpt>
      <trkpt lat="47.06851" lon="7.14067">
        <ele>436.4</ele>
        <time>2022-09-30T13:49:55Z</time>
      </trkpt>
      <trkpt lat="47.06853" lon="7.14072">
        <ele>436.4</ele>
        <time>2022-09-30T13:49:56Z</time>
      </trkpt>
      <trkpt lat="47.06855" lon="7.14075">
        <ele>436.3</ele>
        <time>2022-09-30T13:49:57Z</time>
      </trkpt>
      <trkpt lat="47.06858" lon="7.14079">
        <ele>436.3</ele>
        <time>2022-09-30T13:49:58Z</time>
      </trkpt>
      <trkpt lat="47.0686" lon="7.14084">
        <ele>436.2</ele>
        <time>2022-09-30T13:49:59Z</time>
      </trkpt>
      <trkpt lat="47.06862" lon="7.14089">
        <ele>436.1</ele>
        <time>2022-09-30T13:50:00Z</time>
      </trkpt>
      <trkpt lat="47.06865" lon="7.14094">
        <ele>436</ele>
        <time>2022-09-30T13:50:01Z</time>
      </trkpt>
      <trkpt lat="47.06867" lon="7.14098">
        <ele>436</ele>
        <time>2022-09-30T13:50:02Z</time>
      </trkpt>
      <trkpt lat="47.0687" lon="7.14103">
        <ele>435.9</ele>
        <time>2022-09-30T13:50:03Z</time>
      </trkpt>
      <trkpt lat="47.06872" lon="7.14107">
        <ele>435.9</ele>
        <time>2022-09-30T13:50:04Z</time>
      </trkpt>
      <trkpt lat="47.06874" lon="7.14111">
        <ele>435.8</ele>
        <time>2022-09-30T13:50:05Z</time>
      </trkpt>
      <trkpt lat="47.06876" lon="7.14116">
        <ele>435.8</ele>
        <time>2022-09-30T13:50:06Z</time>
      </trkpt>
      <trkpt lat="47.06879" lon="7.14121">
        <ele>435.8</ele>
        <time>2022-09-30T13:50:07Z</time>
      </trkpt>
      <trkpt lat="47.06882" lon="7.14124">
        <ele>435.7</ele>
        <time>2022-09-30T13:50:08Z</time>
      </trkpt>
      <trkpt lat="47.06884" lon="7.14128">
        <ele>435.7</ele>
        <time>2022-09-30T13:50:09Z</time>
      </trkpt>
      <trkpt lat="47.06887" lon="7.14134">
        <ele>435.7</ele>
        <time>2022-09-30T13:50:10Z</time>
      </trkpt>
      <trkpt lat="47.06889" lon="7.14139">
        <ele>435.6</ele>
        <time>2022-09-30T13:50:11Z</time>
      </trkpt>
      <trkpt lat="47.06891" lon="7.14144">
        <ele>435.6</ele>
        <time>2022-09-30T13:50:12Z</time>
      </trkpt>
      <trkpt lat="47.06893" lon="7.14149">
        <ele>435.6</ele>
        <time>2022-09-30T13:50:13Z</time>
      </trkpt>
      <trkpt lat="47.06896" lon="7.14154">
        <ele>435.6</ele>
        <time>2022-09-30T13:50:14Z</time>
      </trkpt>
      <trkpt lat="47.06899" lon="7.14159">
        <ele>435.5</ele>
        <time>2022-09-30T13:50:15Z</time>
      </trkpt>
      <trkpt lat="47.06901" lon="7.14164">
        <ele>435.5</ele>
        <time>2022-09-30T13:50:16Z</time>
      </trkpt>
      <trkpt lat="47.06903" lon="7.14169">
        <ele>435.5</ele>
        <time>2022-09-30T13:50:17Z</time>
      </trkpt>
      <trkpt lat="47.06906" lon="7.14174">
        <ele>435.5</ele>
        <time>2022-09-30T13:50:18Z</time>
      </trkpt>
      <trkpt lat="47.06909" lon="7.14179">
        <ele>435.5</ele>
        <time>2022-09-30T13:50:19Z</time>
      </trkpt>
      <trkpt lat="47.06911" lon="7.14184">
        <ele>435.5</ele>
        <time>2022-09-30T13:50:20Z</time>
      </trkpt>
      <trkpt lat="47.06914" lon="7.14189">
        <ele>435.5</ele>
        <time>2022-09-30T13:50:21Z</time>
      </trkpt>
      <trkpt lat="47.06917" lon="7.14194">
        <ele>435.5</ele>
        <time>2022-09-30T13:50:22Z</time>
      </trkpt>
      <trkpt lat="47.06919" lon="7.14198">
        <ele>435.6</ele>
        <time>2022-09-30T13:50:23Z</time>
      </trkpt>
      <trkpt lat="47.06922" lon="7.14202">
        <ele>435.6</ele>
        <time>2022-09-30T13:50:24Z</time>
      </trkpt>
      <trkpt lat="47.06925" lon="7.14206">
        <ele>435.6</ele>
        <time>2022-09-30T13:50:25Z</time>
      </trkpt>
      <trkpt lat="47.06928" lon="7.14209">
        <ele>435.7</ele>
        <time>2022-09-30T13:50:26Z</time>
      </trkpt>
      <trkpt lat="47.06931" lon="7.14211">
        <ele>435.7</ele>
        <time>2022-09-30T13:50:27Z</time>
      </trkpt>
      <trkpt lat="47.06934" lon="7.14213">
        <ele>435.8</ele>
        <time>2022-09-30T13:50:28Z</time>
      </trkpt>
      <trkpt lat="47.06937" lon="7.14216">
        <ele>435.8</ele>
        <time>2022-09-30T13:50:29Z</time>
      </trkpt>
      <trkpt lat="47.06937" lon="7.14217">
        <ele>435.8</ele>
        <time>2022-09-30T13:50:30Z</time>
      </trkpt>
      <trkpt lat="47.06938" lon="7.14218">
        <ele>435.9</ele>
        <time>2022-09-30T13:50:31Z</time>
      </trkpt>
      <trkpt lat="47.06939" lon="7.1422">
        <ele>435.9</ele>
        <time>2022-09-30T13:50:32Z</time>
      </trkpt>
      <trkpt lat="47.06938" lon="7.14221">
        <ele>435.9</ele>
        <time>2022-09-30T13:50:33Z</time>
      </trkpt>
      <trkpt lat="47.06938" lon="7.1422">
        <ele>435.9</ele>
        <time>2022-09-30T13:50:34Z</time>
      </trkpt>
      <trkpt lat="47.06938" lon="7.1422">
        <ele>435.9</ele>
        <time>2022-09-30T13:50:35Z</time>
      </trkpt>
      <trkpt lat="47.06939" lon="7.1422">
        <ele>435.9</ele>
        <time>2022-09-30T13:50:36Z</time>
      </trkpt>
      <trkpt lat="47.06938" lon="7.1422">
        <ele>435.8</ele>
        <time>2022-09-30T13:50:37Z</time>
      </trkpt>
      <trkpt lat="47.06939" lon="7.1422">
        <ele>435.8</ele>
        <time>2022-09-30T13:50:38Z</time>
      </trkpt>
      <trkpt lat="47.06938" lon="7.1422">
        <ele>435.8</ele>
        <time>2022-09-30T13:50:39Z</time>
      </trkpt>
      <trkpt lat="47.06939" lon="7.1422">
        <ele>435.8</ele>
        <time>2022-09-30T13:50:40Z</time>
      </trkpt>
      <trkpt lat="47.06939" lon="7.1422">
        <ele>435.8</ele>
        <time>2022-09-30T13:50:41Z</time>
      </trkpt>
      <trkpt lat="47.0694" lon="7.14223">
        <ele>435.8</ele>
        <time>2022-09-30T13:50:42Z</time>
      </trkpt>
      <trkpt lat="47.0694" lon="7.14225">
        <ele>435.8</ele>
        <time>2022-09-30T13:50:43Z</time>
      </trkpt>
      <trkpt lat="47.06941" lon="7.14228">
        <ele>435.7</ele>
        <time>2022-09-30T13:51:14Z</time>
      </trkpt>
      <trkpt lat="47.06941" lon="7.1423">
        <ele>435.7</ele>
        <time>2022-09-30T13:51:15Z</time>
      </trkpt>
      <trkpt lat="47.06941" lon="7.14234">
        <ele>435.7</ele>
        <time>2022-09-30T13:51:16Z</time>
      </trkpt>
      <trkpt lat="47.06941" lon="7.14236">
        <ele>435.7</ele>
        <time>2022-09-30T13:51:17Z</time>
      </trkpt>
      <trkpt lat="47.06941" lon="7.14241">
        <ele>435.6</ele>
        <time>2022-09-30T13:51:18Z</time>
      </trkpt>
      <trkpt lat="47.0694" lon="7.14242">
        <ele>435.6</ele>
        <time>2022-09-30T13:51:19Z</time>
      </trkpt>
      <trkpt lat="47.06939" lon="7.14246">
        <ele>435.6</ele>
        <time>2022-09-30T13:51:20Z</time>
      </trkpt>
      <trkpt lat="47.06939" lon="7.14252">
        <ele>435.5</ele>
        <time>2022-09-30T13:51:21Z</time>
      </trkpt>
      <trkpt lat="47.06938" lon="7.14256">
        <ele>435.5</ele>
        <time>2022-09-30T13:51:22Z</time>
      </trkpt>
      <trkpt lat="47.06938" lon="7.14261">
        <ele>435.5</ele>
        <time>2022-09-30T13:51:23Z</time>
      </trkpt>
      <trkpt lat="47.06938" lon="7.14266">
        <ele>435.4</ele>
        <time>2022-09-30T13:51:24Z</time>
      </trkpt>
      <trkpt lat="47.06938" lon="7.14272">
        <ele>435.4</ele>
        <time>2022-09-30T13:51:25Z</time>
      </trkpt>
      <trkpt lat="47.06938" lon="7.14277">
        <ele>435.3</ele>
        <time>2022-09-30T13:51:26Z</time>
      </trkpt>
      <trkpt lat="47.06938" lon="7.14282">
        <ele>435.3</ele>
        <time>2022-09-30T13:51:28Z</time>
      </trkpt>
      <trkpt lat="47.06939" lon="7.14288">
        <ele>435.2</ele>
        <time>2022-09-30T13:51:29Z</time>
      </trkpt>
      <trkpt lat="47.0694" lon="7.14294">
        <ele>435.2</ele>
        <time>2022-09-30T13:51:30Z</time>
      </trkpt>
      <trkpt lat="47.06942" lon="7.14299">
        <ele>435.2</ele>
        <time>2022-09-30T13:51:31Z</time>
      </trkpt>
      <trkpt lat="47.06943" lon="7.14305">
        <ele>435.1</ele>
        <time>2022-09-30T13:51:32Z</time>
      </trkpt>
      <trkpt lat="47.06944" lon="7.1431">
        <ele>435.1</ele>
        <time>2022-09-30T13:51:33Z</time>
      </trkpt>
      <trkpt lat="47.06946" lon="7.14315">
        <ele>435</ele>
        <time>2022-09-30T13:51:34Z</time>
      </trkpt>
      <trkpt lat="47.06947" lon="7.1432">
        <ele>435</ele>
        <time>2022-09-30T13:51:35Z</time>
      </trkpt>
      <trkpt lat="47.06949" lon="7.14326">
        <ele>434.9</ele>
        <time>2022-09-30T13:51:36Z</time>
      </trkpt>
      <trkpt lat="47.06951" lon="7.14331">
        <ele>434.9</ele>
        <time>2022-09-30T13:51:37Z</time>
      </trkpt>
      <trkpt lat="47.06953" lon="7.14336">
        <ele>434.9</ele>
        <time>2022-09-30T13:51:38Z</time>
      </trkpt>
      <trkpt lat="47.06954" lon="7.1434">
        <ele>434.8</ele>
        <time>2022-09-30T13:51:39Z</time>
      </trkpt>
      <trkpt lat="47.06956" lon="7.14345">
        <ele>434.8</ele>
        <time>2022-09-30T13:51:40Z</time>
      </trkpt>
      <trkpt lat="47.06958" lon="7.14349">
        <ele>434.8</ele>
        <time>2022-09-30T13:51:41Z</time>
      </trkpt>
      <trkpt lat="47.0696" lon="7.14356">
        <ele>434.8</ele>
        <time>2022-09-30T13:51:42Z</time>
      </trkpt>
      <trkpt lat="47.06962" lon="7.1436">
        <ele>434.7</ele>
        <time>2022-09-30T13:51:43Z</time>
      </trkpt>
      <trkpt lat="47.06964" lon="7.14364">
        <ele>434.7</ele>
        <time>2022-09-30T13:51:44Z</time>
      </trkpt>
      <trkpt lat="47.06967" lon="7.14369">
        <ele>434.7</ele>
        <time>2022-09-30T13:51:45Z</time>
      </trkpt>
      <trkpt lat="47.0697" lon="7.14373">
        <ele>434.7</ele>
        <time>2022-09-30T13:51:46Z</time>
      </trkpt>
      <trkpt lat="47.06972" lon="7.14377">
        <ele>434.7</ele>
        <time>2022-09-30T13:51:47Z</time>
      </trkpt>
      <trkpt lat="47.06974" lon="7.14381">
        <ele>434.7</ele>
        <time>2022-09-30T13:51:48Z</time>
      </trkpt>
      <trkpt lat="47.06976" lon="7.14385">
        <ele>434.7</ele>
        <time>2022-09-30T13:51:49Z</time>
      </trkpt>
      <trkpt lat="47.06978" lon="7.1439">
        <ele>434.7</ele>
        <time>2022-09-30T13:51:50Z</time>
      </trkpt>
      <trkpt lat="47.0698" lon="7.14394">
        <ele>434.6</ele>
        <time>2022-09-30T13:51:51Z</time>
      </trkpt>
      <trkpt lat="47.06982" lon="7.14399">
        <ele>434.6</ele>
        <time>2022-09-30T13:51:52Z</time>
      </trkpt>
      <trkpt lat="47.06984" lon="7.14403">
        <ele>434.6</ele>
        <time>2022-09-30T13:51:53Z</time>
      </trkpt>
      <trkpt lat="47.06986" lon="7.14408">
        <ele>434.6</ele>
        <time>2022-09-30T13:51:54Z</time>
      </trkpt>
      <trkpt lat="47.06989" lon="7.14413">
        <ele>434.6</ele>
        <time>2022-09-30T13:51:55Z</time>
      </trkpt>
      <trkpt lat="47.0699" lon="7.14418">
        <ele>434.6</ele>
        <time>2022-09-30T13:51:56Z</time>
      </trkpt>
      <trkpt lat="47.06992" lon="7.14424">
        <ele>434.6</ele>
        <time>2022-09-30T13:51:57Z</time>
      </trkpt>
      <trkpt lat="47.06995" lon="7.14428">
        <ele>434.5</ele>
        <time>2022-09-30T13:51:58Z</time>
      </trkpt>
      <trkpt lat="47.06997" lon="7.14433">
        <ele>434.5</ele>
        <time>2022-09-30T13:51:59Z</time>
      </trkpt>
      <trkpt lat="47.06999" lon="7.14437">
        <ele>434.5</ele>
        <time>2022-09-30T13:52:00Z</time>
      </trkpt>
      <trkpt lat="47.07001" lon="7.14442">
        <ele>434.5</ele>
        <time>2022-09-30T13:52:01Z</time>
      </trkpt>
      <trkpt lat="47.07003" lon="7.14446">
        <ele>434.5</ele>
        <time>2022-09-30T13:52:02Z</time>
      </trkpt>
      <trkpt lat="47.07005" lon="7.1445">
        <ele>434.5</ele>
        <time>2022-09-30T13:52:03Z</time>
      </trkpt>
      <trkpt lat="47.07007" lon="7.14454">
        <ele>434.5</ele>
        <time>2022-09-30T13:52:04Z</time>
      </trkpt>
      <trkpt lat="47.07009" lon="7.14458">
        <ele>434.5</ele>
        <time>2022-09-30T13:52:05Z</time>
      </trkpt>
      <trkpt lat="47.07011" lon="7.14461">
        <ele>434.5</ele>
        <time>2022-09-30T13:52:06Z</time>
      </trkpt>
      <trkpt lat="47.07013" lon="7.14464">
        <ele>434.5</ele>
        <time>2022-09-30T13:52:07Z</time>
      </trkpt>
      <trkpt lat="47.07015" lon="7.14468">
        <ele>434.5</ele>
        <time>2022-09-30T13:52:08Z</time>
      </trkpt>
      <trkpt lat="47.07017" lon="7.14472">
        <ele>434.5</ele>
        <time>2022-09-30T13:52:09Z</time>
      </trkpt>
      <trkpt lat="47.07019" lon="7.14477">
        <ele>434.5</ele>
        <time>2022-09-30T13:52:10Z</time>
      </trkpt>
      <trkpt lat="47.07021" lon="7.14482">
        <ele>434.5</ele>
        <time>2022-09-30T13:52:11Z</time>
      </trkpt>
      <trkpt lat="47.07023" lon="7.14487">
        <ele>434.5</ele>
        <time>2022-09-30T13:52:12Z</time>
      </trkpt>
      <trkpt lat="47.07024" lon="7.14492">
        <ele>434.5</ele>
        <time>2022-09-30T13:52:13Z</time>
      </trkpt>
      <trkpt lat="47.07027" lon="7.14497">
        <ele>434.5</ele>
        <time>2022-09-30T13:52:14Z</time>
      </trkpt>
      <trkpt lat="47.07029" lon="7.14502">
        <ele>434.6</ele>
        <time>2022-09-30T13:52:15Z</time>
      </trkpt>
      <trkpt lat="47.07034" lon="7.14511">
        <ele>434.6</ele>
        <time>2022-09-30T13:52:16Z</time>
      </trkpt>
      <trkpt lat="47.07036" lon="7.14516">
        <ele>434.6</ele>
        <time>2022-09-30T13:52:17Z</time>
      </trkpt>
      <trkpt lat="47.07039" lon="7.14521">
        <ele>434.7</ele>
        <time>2022-09-30T13:52:18Z</time>
      </trkpt>
      <trkpt lat="47.07041" lon="7.14526">
        <ele>434.7</ele>
        <time>2022-09-30T13:52:19Z</time>
      </trkpt>
      <trkpt lat="47.07042" lon="7.1453">
        <ele>434.7</ele>
        <time>2022-09-30T13:52:20Z</time>
      </trkpt>
      <trkpt lat="47.07045" lon="7.14535">
        <ele>434.8</ele>
        <time>2022-09-30T13:52:21Z</time>
      </trkpt>
      <trkpt lat="47.07047" lon="7.14539">
        <ele>434.8</ele>
        <time>2022-09-30T13:52:22Z</time>
      </trkpt>
      <trkpt lat="47.07049" lon="7.14543">
        <ele>434.8</ele>
        <time>2022-09-30T13:52:23Z</time>
      </trkpt>
      <trkpt lat="47.07052" lon="7.14547">
        <ele>434.9</ele>
        <time>2022-09-30T13:52:24Z</time>
      </trkpt>
      <trkpt lat="47.07054" lon="7.14552">
        <ele>435</ele>
        <time>2022-09-30T13:52:25Z</time>
      </trkpt>
      <trkpt lat="47.07057" lon="7.14555">
        <ele>435</ele>
        <time>2022-09-30T13:52:26Z</time>
      </trkpt>
      <trkpt lat="47.0706" lon="7.14559">
        <ele>435.1</ele>
        <time>2022-09-30T13:52:27Z</time>
      </trkpt>
      <trkpt lat="47.07063" lon="7.14562">
        <ele>435.1</ele>
        <time>2022-09-30T13:52:28Z</time>
      </trkpt>
      <trkpt lat="47.07066" lon="7.14565">
        <ele>435.1</ele>
        <time>2022-09-30T13:52:29Z</time>
      </trkpt>
      <trkpt lat="47.07069" lon="7.14568">
        <ele>435.2</ele>
        <time>2022-09-30T13:52:30Z</time>
      </trkpt>
      <trkpt lat="47.07072" lon="7.14572">
        <ele>435.2</ele>
        <time>2022-09-30T13:52:31Z</time>
      </trkpt>
      <trkpt lat="47.07075" lon="7.14575">
        <ele>435.2</ele>
        <time>2022-09-30T13:52:32Z</time>
      </trkpt>
      <trkpt lat="47.07078" lon="7.14578">
        <ele>435.2</ele>
        <time>2022-09-30T13:52:33Z</time>
      </trkpt>
      <trkpt lat="47.07081" lon="7.14581">
        <ele>435.2</ele>
        <time>2022-09-30T13:52:34Z</time>
      </trkpt>
      <trkpt lat="47.07084" lon="7.14584">
        <ele>435.3</ele>
        <time>2022-09-30T13:52:35Z</time>
      </trkpt>
      <trkpt lat="47.07088" lon="7.14587">
        <ele>435.3</ele>
        <time>2022-09-30T13:52:36Z</time>
      </trkpt>
      <trkpt lat="47.07091" lon="7.14591">
        <ele>435.3</ele>
        <time>2022-09-30T13:52:37Z</time>
      </trkpt>
      <trkpt lat="47.07094" lon="7.14593">
        <ele>435.4</ele>
        <time>2022-09-30T13:52:38Z</time>
      </trkpt>
      <trkpt lat="47.07097" lon="7.14596">
        <ele>435.4</ele>
        <time>2022-09-30T13:52:39Z</time>
      </trkpt>
      <trkpt lat="47.071" lon="7.146">
        <ele>435.4</ele>
        <time>2022-09-30T13:52:40Z</time>
      </trkpt>
      <trkpt lat="47.07103" lon="7.14603">
        <ele>435.5</ele>
        <time>2022-09-30T13:52:41Z</time>
      </trkpt>
      <trkpt lat="47.07106" lon="7.14605">
        <ele>435.5</ele>
        <time>2022-09-30T13:52:42Z</time>
      </trkpt>
      <trkpt lat="47.07108" lon="7.14608">
        <ele>435.5</ele>
        <time>2022-09-30T13:52:43Z</time>
      </trkpt>
      <trkpt lat="47.07111" lon="7.14611">
        <ele>435.6</ele>
        <time>2022-09-30T13:52:44Z</time>
      </trkpt>
      <trkpt lat="47.07114" lon="7.14614">
        <ele>435.6</ele>
        <time>2022-09-30T13:52:45Z</time>
      </trkpt>
      <trkpt lat="47.07115" lon="7.14615">
        <ele>435.6</ele>
        <time>2022-09-30T13:52:46Z</time>
      </trkpt>
      <trkpt lat="47.07116" lon="7.14616">
        <ele>435.6</ele>
        <time>2022-09-30T13:52:47Z</time>
      </trkpt>
      <trkpt lat="47.07117" lon="7.14618">
        <ele>435.7</ele>
        <time>2022-09-30T13:52:48Z</time>
      </trkpt>
      <trkpt lat="47.07119" lon="7.14619">
        <ele>435.7</ele>
        <time>2022-09-30T13:52:49Z</time>
      </trkpt>
      <trkpt lat="47.0712" lon="7.1462">
        <ele>435.7</ele>
        <time>2022-09-30T13:52:50Z</time>
      </trkpt>
      <trkpt lat="47.07122" lon="7.14621">
        <ele>435.7</ele>
        <time>2022-09-30T13:52:51Z</time>
      </trkpt>
      <trkpt lat="47.07123" lon="7.14622">
        <ele>435.7</ele>
        <time>2022-09-30T13:52:52Z</time>
      </trkpt>
      <trkpt lat="47.07124" lon="7.14623">
        <ele>435.8</ele>
        <time>2022-09-30T13:52:53Z</time>
      </trkpt>
      <trkpt lat="47.07126" lon="7.14625">
        <ele>435.8</ele>
        <time>2022-09-30T13:52:54Z</time>
      </trkpt>
      <trkpt lat="47.07128" lon="7.14629">
        <ele>435.9</ele>
        <time>2022-09-30T13:52:55Z</time>
      </trkpt>
      <trkpt lat="47.07131" lon="7.1463">
        <ele>435.9</ele>
        <time>2022-09-30T13:52:56Z</time>
      </trkpt>
      <trkpt lat="47.07134" lon="7.14634">
        <ele>436</ele>
        <time>2022-09-30T13:52:57Z</time>
      </trkpt>
      <trkpt lat="47.07136" lon="7.14636">
        <ele>436</ele>
        <time>2022-09-30T13:52:58Z</time>
      </trkpt>
      <trkpt lat="47.07138" lon="7.14639">
        <ele>436.1</ele>
        <time>2022-09-30T13:52:59Z</time>
      </trkpt>
      <trkpt lat="47.07141" lon="7.14642">
        <ele>436.2</ele>
        <time>2022-09-30T13:53:00Z</time>
      </trkpt>
      <trkpt lat="47.07144" lon="7.14645">
        <ele>436.2</ele>
        <time>2022-09-30T13:53:01Z</time>
      </trkpt>
      <trkpt lat="47.07148" lon="7.14649">
        <ele>436.3</ele>
        <time>2022-09-30T13:53:02Z</time>
      </trkpt>
      <trkpt lat="47.0715" lon="7.14652">
        <ele>436.4</ele>
        <time>2022-09-30T13:53:03Z</time>
      </trkpt>
      <trkpt lat="47.07153" lon="7.14655">
        <ele>436.4</ele>
        <time>2022-09-30T13:53:04Z</time>
      </trkpt>
      <trkpt lat="47.07156" lon="7.14658">
        <ele>436.5</ele>
        <time>2022-09-30T13:53:05Z</time>
      </trkpt>
      <trkpt lat="47.07158" lon="7.14661">
        <ele>436.5</ele>
        <time>2022-09-30T13:53:06Z</time>
      </trkpt>
      <trkpt lat="47.07161" lon="7.14663">
        <ele>436.5</ele>
        <time>2022-09-30T13:53:07Z</time>
      </trkpt>
      <trkpt lat="47.07163" lon="7.14666">
        <ele>436.5</ele>
        <time>2022-09-30T13:53:08Z</time>
      </trkpt>
      <trkpt lat="47.07166" lon="7.14668">
        <ele>436.5</ele>
        <time>2022-09-30T13:53:09Z</time>
      </trkpt>
      <trkpt lat="47.07168" lon="7.14671">
        <ele>436.5</ele>
        <time>2022-09-30T13:53:10Z</time>
      </trkpt>
      <trkpt lat="47.07172" lon="7.14674">
        <ele>436.4</ele>
        <time>2022-09-30T13:53:11Z</time>
      </trkpt>
      <trkpt lat="47.07175" lon="7.14677">
        <ele>436.3</ele>
        <time>2022-09-30T13:53:12Z</time>
      </trkpt>
      <trkpt lat="47.07178" lon="7.1468">
        <ele>436.2</ele>
        <time>2022-09-30T13:53:13Z</time>
      </trkpt>
      <trkpt lat="47.07181" lon="7.14683">
        <ele>436.1</ele>
        <time>2022-09-30T13:53:14Z</time>
      </trkpt>
      <trkpt lat="47.07185" lon="7.14686">
        <ele>436</ele>
        <time>2022-09-30T13:53:15Z</time>
      </trkpt>
      <trkpt lat="47.07189" lon="7.1469">
        <ele>435.9</ele>
        <time>2022-09-30T13:53:16Z</time>
      </trkpt>
      <trkpt lat="47.07193" lon="7.14694">
        <ele>435.7</ele>
        <time>2022-09-30T13:53:17Z</time>
      </trkpt>
      <trkpt lat="47.07197" lon="7.14697">
        <ele>435.6</ele>
        <time>2022-09-30T13:53:18Z</time>
      </trkpt>
      <trkpt lat="47.072" lon="7.147">
        <ele>435.5</ele>
        <time>2022-09-30T13:53:19Z</time>
      </trkpt>
      <trkpt lat="47.07204" lon="7.14703">
        <ele>435.5</ele>
        <time>2022-09-30T13:53:20Z</time>
      </trkpt>
      <trkpt lat="47.07208" lon="7.14706">
        <ele>435.4</ele>
        <time>2022-09-30T13:53:21Z</time>
      </trkpt>
      <trkpt lat="47.07212" lon="7.14709">
        <ele>435.3</ele>
        <time>2022-09-30T13:53:22Z</time>
      </trkpt>
      <trkpt lat="47.07215" lon="7.14712">
        <ele>435.3</ele>
        <time>2022-09-30T13:53:23Z</time>
      </trkpt>
      <trkpt lat="47.07219" lon="7.14714">
        <ele>435.2</ele>
        <time>2022-09-30T13:53:24Z</time>
      </trkpt>
      <trkpt lat="47.07222" lon="7.14718">
        <ele>435.2</ele>
        <time>2022-09-30T13:53:25Z</time>
      </trkpt>
      <trkpt lat="47.07226" lon="7.14721">
        <ele>435.2</ele>
        <time>2022-09-30T13:53:26Z</time>
      </trkpt>
      <trkpt lat="47.0723" lon="7.14723">
        <ele>435.2</ele>
        <time>2022-09-30T13:53:27Z</time>
      </trkpt>
      <trkpt lat="47.07234" lon="7.14726">
        <ele>435.1</ele>
        <time>2022-09-30T13:53:28Z</time>
      </trkpt>
      <trkpt lat="47.07238" lon="7.14728">
        <ele>435.1</ele>
        <time>2022-09-30T13:53:29Z</time>
      </trkpt>
      <trkpt lat="47.07241" lon="7.14731">
        <ele>435.1</ele>
        <time>2022-09-30T13:53:30Z</time>
      </trkpt>
      <trkpt lat="47.07245" lon="7.14733">
        <ele>435.1</ele>
        <time>2022-09-30T13:53:31Z</time>
      </trkpt>
      <trkpt lat="47.07248" lon="7.14736">
        <ele>435.1</ele>
        <time>2022-09-30T13:53:32Z</time>
      </trkpt>
      <trkpt lat="47.07253" lon="7.14739">
        <ele>435.1</ele>
        <time>2022-09-30T13:53:34Z</time>
      </trkpt>
      <trkpt lat="47.07255" lon="7.14741">
        <ele>435.1</ele>
        <time>2022-09-30T13:53:35Z</time>
      </trkpt>
      <trkpt lat="47.0726" lon="7.14743">
        <ele>435.1</ele>
        <time>2022-09-30T13:53:36Z</time>
      </trkpt>
      <trkpt lat="47.07263" lon="7.14745">
        <ele>435.1</ele>
        <time>2022-09-30T13:53:37Z</time>
      </trkpt>
      <trkpt lat="47.07267" lon="7.14747">
        <ele>435.1</ele>
        <time>2022-09-30T13:53:38Z</time>
      </trkpt>
      <trkpt lat="47.07274" lon="7.14752">
        <ele>435.1</ele>
        <time>2022-09-30T13:53:39Z</time>
      </trkpt>
      <trkpt lat="47.07279" lon="7.14753">
        <ele>435.1</ele>
        <time>2022-09-30T13:53:40Z</time>
      </trkpt>
      <trkpt lat="47.07286" lon="7.14754">
        <ele>435.1</ele>
        <time>2022-09-30T13:53:42Z</time>
      </trkpt>
      <trkpt lat="47.07289" lon="7.14754">
        <ele>435.1</ele>
        <time>2022-09-30T13:53:43Z</time>
      </trkpt>
      <trkpt lat="47.07293" lon="7.14753">
        <ele>435.1</ele>
        <time>2022-09-30T13:53:44Z</time>
      </trkpt>
      <trkpt lat="47.07295" lon="7.14751">
        <ele>435.1</ele>
        <time>2022-09-30T13:53:45Z</time>
      </trkpt>
      <trkpt lat="47.07299" lon="7.14748">
        <ele>435.1</ele>
        <time>2022-09-30T13:53:46Z</time>
      </trkpt>
      <trkpt lat="47.07302" lon="7.14746">
        <ele>435.1</ele>
        <time>2022-09-30T13:53:48Z</time>
      </trkpt>
      <trkpt lat="47.07308" lon="7.1474">
        <ele>435.1</ele>
        <time>2022-09-30T13:53:49Z</time>
      </trkpt>
      <trkpt lat="47.07312" lon="7.14738">
        <ele>435.1</ele>
        <time>2022-09-30T13:53:50Z</time>
      </trkpt>
      <trkpt lat="47.07315" lon="7.14737">
        <ele>435.1</ele>
        <time>2022-09-30T13:53:51Z</time>
      </trkpt>
      <trkpt lat="47.07318" lon="7.14735">
        <ele>435.1</ele>
        <time>2022-09-30T13:53:52Z</time>
      </trkpt>
      <trkpt lat="47.07322" lon="7.14733">
        <ele>435.1</ele>
        <time>2022-09-30T13:53:53Z</time>
      </trkpt>
      <trkpt lat="47.07326" lon="7.14731">
        <ele>435.1</ele>
        <time>2022-09-30T13:53:54Z</time>
      </trkpt>
      <trkpt lat="47.07328" lon="7.14729">
        <ele>435.1</ele>
        <time>2022-09-30T13:53:55Z</time>
      </trkpt>
      <trkpt lat="47.07332" lon="7.14727">
        <ele>435.1</ele>
        <time>2022-09-30T13:53:56Z</time>
      </trkpt>
      <trkpt lat="47.07334" lon="7.14725">
        <ele>435.1</ele>
        <time>2022-09-30T13:53:57Z</time>
      </trkpt>
      <trkpt lat="47.07337" lon="7.14724">
        <ele>435.1</ele>
        <time>2022-09-30T13:53:58Z</time>
      </trkpt>
      <trkpt lat="47.07339" lon="7.14722">
        <ele>435.2</ele>
        <time>2022-09-30T13:53:59Z</time>
      </trkpt>
      <trkpt lat="47.07344" lon="7.1472">
        <ele>435.2</ele>
        <time>2022-09-30T13:54:00Z</time>
      </trkpt>
      <trkpt lat="47.07346" lon="7.14718">
        <ele>435.2</ele>
        <time>2022-09-30T13:54:01Z</time>
      </trkpt>
      <trkpt lat="47.0735" lon="7.14715">
        <ele>435.2</ele>
        <time>2022-09-30T13:54:02Z</time>
      </trkpt>
      <trkpt lat="47.07353" lon="7.14715">
        <ele>435.2</ele>
        <time>2022-09-30T13:54:03Z</time>
      </trkpt>
      <trkpt lat="47.07358" lon="7.14713">
        <ele>435.3</ele>
        <time>2022-09-30T13:54:04Z</time>
      </trkpt>
      <trkpt lat="47.07362" lon="7.1471">
        <ele>435.3</ele>
        <time>2022-09-30T13:54:05Z</time>
      </trkpt>
      <trkpt lat="47.07364" lon="7.14708">
        <ele>435.3</ele>
        <time>2022-09-30T13:54:06Z</time>
      </trkpt>
      <trkpt lat="47.07367" lon="7.14705">
        <ele>435.3</ele>
        <time>2022-09-30T13:54:07Z</time>
      </trkpt>
      <trkpt lat="47.0737" lon="7.14703">
        <ele>435.3</ele>
        <time>2022-09-30T13:54:08Z</time>
      </trkpt>
      <trkpt lat="47.07373" lon="7.14701">
        <ele>435.3</ele>
        <time>2022-09-30T13:54:09Z</time>
      </trkpt>
      <trkpt lat="47.07375" lon="7.147">
        <ele>435.3</ele>
        <time>2022-09-30T13:54:10Z</time>
      </trkpt>
      <trkpt lat="47.07379" lon="7.14699">
        <ele>435.3</ele>
        <time>2022-09-30T13:54:11Z</time>
      </trkpt>
      <trkpt lat="47.07383" lon="7.14695">
        <ele>435.3</ele>
        <time>2022-09-30T13:54:12Z</time>
      </trkpt>
      <trkpt lat="47.07385" lon="7.14693">
        <ele>435.3</ele>
        <time>2022-09-30T13:54:13Z</time>
      </trkpt>
      <trkpt lat="47.07389" lon="7.14692">
        <ele>435.3</ele>
        <time>2022-09-30T13:54:14Z</time>
      </trkpt>
      <trkpt lat="47.07393" lon="7.14689">
        <ele>435.3</ele>
        <time>2022-09-30T13:54:15Z</time>
      </trkpt>
      <trkpt lat="47.07396" lon="7.14686">
        <ele>435.3</ele>
        <time>2022-09-30T13:54:16Z</time>
      </trkpt>
      <trkpt lat="47.07399" lon="7.14683">
        <ele>435.3</ele>
        <time>2022-09-30T13:54:17Z</time>
      </trkpt>
      <trkpt lat="47.07402" lon="7.14679">
        <ele>435.3</ele>
        <time>2022-09-30T13:54:18Z</time>
      </trkpt>
      <trkpt lat="47.07408" lon="7.14676">
        <ele>435.3</ele>
        <time>2022-09-30T13:54:19Z</time>
      </trkpt>
      <trkpt lat="47.07412" lon="7.14672">
        <ele>435.3</ele>
        <time>2022-09-30T13:54:20Z</time>
      </trkpt>
      <trkpt lat="47.07416" lon="7.14668">
        <ele>435.2</ele>
        <time>2022-09-30T13:54:21Z</time>
      </trkpt>
      <trkpt lat="47.07419" lon="7.14666">
        <ele>435.2</ele>
        <time>2022-09-30T13:54:22Z</time>
      </trkpt>
      <trkpt lat="47.07423" lon="7.14663">
        <ele>435.2</ele>
        <time>2022-09-30T13:54:23Z</time>
      </trkpt>
      <trkpt lat="47.07427" lon="7.1466">
        <ele>435.2</ele>
        <time>2022-09-30T13:54:24Z</time>
      </trkpt>
      <trkpt lat="47.0743" lon="7.14655">
        <ele>435.1</ele>
        <time>2022-09-30T13:54:25Z</time>
      </trkpt>
      <trkpt lat="47.07434" lon="7.1465">
        <ele>435.1</ele>
        <time>2022-09-30T13:54:26Z</time>
      </trkpt>
      <trkpt lat="47.07437" lon="7.14644">
        <ele>435.1</ele>
        <time>2022-09-30T13:54:27Z</time>
      </trkpt>
      <trkpt lat="47.0744" lon="7.14638">
        <ele>435</ele>
        <time>2022-09-30T13:54:28Z</time>
      </trkpt>
      <trkpt lat="47.07442" lon="7.14633">
        <ele>435</ele>
        <time>2022-09-30T13:54:29Z</time>
      </trkpt>
      <trkpt lat="47.07443" lon="7.14631">
        <ele>435</ele>
        <time>2022-09-30T13:54:30Z</time>
      </trkpt>
      <trkpt lat="47.07444" lon="7.14628">
        <ele>435</ele>
        <time>2022-09-30T13:54:31Z</time>
      </trkpt>
      <trkpt lat="47.07445" lon="7.14624">
        <ele>435</ele>
        <time>2022-09-30T13:54:32Z</time>
      </trkpt>
      <trkpt lat="47.07447" lon="7.14618">
        <ele>434.9</ele>
        <time>2022-09-30T13:54:33Z</time>
      </trkpt>
      <trkpt lat="47.07451" lon="7.14612">
        <ele>434.9</ele>
        <time>2022-09-30T13:54:34Z</time>
      </trkpt>
      <trkpt lat="47.07454" lon="7.14609">
        <ele>434.9</ele>
        <time>2022-09-30T13:54:35Z</time>
      </trkpt>
      <trkpt lat="47.07455" lon="7.14604">
        <ele>434.9</ele>
        <time>2022-09-30T13:54:36Z</time>
      </trkpt>
      <trkpt lat="47.07458" lon="7.146">
        <ele>434.9</ele>
        <time>2022-09-30T13:54:37Z</time>
      </trkpt>
      <trkpt lat="47.07458" lon="7.14593">
        <ele>434.9</ele>
        <time>2022-09-30T13:54:38Z</time>
      </trkpt>
      <trkpt lat="47.07459" lon="7.14589">
        <ele>434.9</ele>
        <time>2022-09-30T13:54:39Z</time>
      </trkpt>
      <trkpt lat="47.07461" lon="7.14584">
        <ele>434.9</ele>
        <time>2022-09-30T13:54:40Z</time>
      </trkpt>
      <trkpt lat="47.07464" lon="7.14578">
        <ele>434.9</ele>
        <time>2022-09-30T13:54:41Z</time>
      </trkpt>
      <trkpt lat="47.07467" lon="7.14572">
        <ele>434.9</ele>
        <time>2022-09-30T13:54:42Z</time>
      </trkpt>
      <trkpt lat="47.07469" lon="7.14567">
        <ele>434.9</ele>
        <time>2022-09-30T13:54:43Z</time>
      </trkpt>
      <trkpt lat="47.07471" lon="7.14563">
        <ele>434.9</ele>
        <time>2022-09-30T13:54:44Z</time>
      </trkpt>
      <trkpt lat="47.07473" lon="7.14558">
        <ele>435</ele>
        <time>2022-09-30T13:54:45Z</time>
      </trkpt>
      <trkpt lat="47.07475" lon="7.14552">
        <ele>435</ele>
        <time>2022-09-30T13:54:46Z</time>
      </trkpt>
      <trkpt lat="47.07477" lon="7.14547">
        <ele>435</ele>
        <time>2022-09-30T13:54:47Z</time>
      </trkpt>
      <trkpt lat="47.07478" lon="7.1454">
        <ele>435</ele>
        <time>2022-09-30T13:54:48Z</time>
      </trkpt>
      <trkpt lat="47.07479" lon="7.14535">
        <ele>435</ele>
        <time>2022-09-30T13:54:49Z</time>
      </trkpt>
      <trkpt lat="47.07481" lon="7.1453">
        <ele>435</ele>
        <time>2022-09-30T13:54:50Z</time>
      </trkpt>
      <trkpt lat="47.07483" lon="7.14526">
        <ele>435</ele>
        <time>2022-09-30T13:54:51Z</time>
      </trkpt>
      <trkpt lat="47.07485" lon="7.14521">
        <ele>435</ele>
        <time>2022-09-30T13:54:52Z</time>
      </trkpt>
      <trkpt lat="47.07486" lon="7.14514">
        <ele>435</ele>
        <time>2022-09-30T13:54:53Z</time>
      </trkpt>
      <trkpt lat="47.07485" lon="7.1451">
        <ele>435.1</ele>
        <time>2022-09-30T13:54:54Z</time>
      </trkpt>
      <trkpt lat="47.07486" lon="7.14504">
        <ele>435.1</ele>
        <time>2022-09-30T13:54:55Z</time>
      </trkpt>
      <trkpt lat="47.07487" lon="7.145">
        <ele>435.1</ele>
        <time>2022-09-30T13:54:56Z</time>
      </trkpt>
      <trkpt lat="47.07489" lon="7.14493">
        <ele>435.1</ele>
        <time>2022-09-30T13:54:57Z</time>
      </trkpt>
      <trkpt lat="47.07491" lon="7.14488">
        <ele>435.1</ele>
        <time>2022-09-30T13:54:58Z</time>
      </trkpt>
      <trkpt lat="47.07491" lon="7.14482">
        <ele>435.1</ele>
        <time>2022-09-30T13:54:59Z</time>
      </trkpt>
      <trkpt lat="47.07492" lon="7.14477">
        <ele>435.2</ele>
        <time>2022-09-30T13:55:00Z</time>
      </trkpt>
      <trkpt lat="47.07492" lon="7.14472">
        <ele>435.2</ele>
        <time>2022-09-30T13:55:01Z</time>
      </trkpt>
      <trkpt lat="47.07494" lon="7.14467">
        <ele>435.2</ele>
        <time>2022-09-30T13:55:02Z</time>
      </trkpt>
      <trkpt lat="47.07496" lon="7.14461">
        <ele>435.2</ele>
        <time>2022-09-30T13:55:03Z</time>
      </trkpt>
      <trkpt lat="47.07497" lon="7.14456">
        <ele>435.2</ele>
        <time>2022-09-30T13:55:04Z</time>
      </trkpt>
      <trkpt lat="47.07498" lon="7.14451">
        <ele>435.2</ele>
        <time>2022-09-30T13:55:05Z</time>
      </trkpt>
      <trkpt lat="47.07498" lon="7.14445">
        <ele>435.2</ele>
        <time>2022-09-30T13:55:06Z</time>
      </trkpt>
      <trkpt lat="47.07498" lon="7.14443">
        <ele>435.2</ele>
        <time>2022-09-30T13:55:07Z</time>
      </trkpt>
      <trkpt lat="47.07498" lon="7.14437">
        <ele>435.2</ele>
        <time>2022-09-30T13:55:08Z</time>
      </trkpt>
      <trkpt lat="47.075" lon="7.14431">
        <ele>435.3</ele>
        <time>2022-09-30T13:55:09Z</time>
      </trkpt>
      <trkpt lat="47.07501" lon="7.14427">
        <ele>435.3</ele>
        <time>2022-09-30T13:55:10Z</time>
      </trkpt>
      <trkpt lat="47.07502" lon="7.14423">
        <ele>435.3</ele>
        <time>2022-09-30T13:55:11Z</time>
      </trkpt>
      <trkpt lat="47.075" lon="7.14418">
        <ele>435.3</ele>
        <time>2022-09-30T13:55:12Z</time>
      </trkpt>
      <trkpt lat="47.07502" lon="7.14413">
        <ele>435.3</ele>
        <time>2022-09-30T13:55:13Z</time>
      </trkpt>
      <trkpt lat="47.07503" lon="7.14407">
        <ele>435.3</ele>
        <time>2022-09-30T13:55:14Z</time>
      </trkpt>
      <trkpt lat="47.07504" lon="7.14402">
        <ele>435.3</ele>
        <time>2022-09-30T13:55:15Z</time>
      </trkpt>
      <trkpt lat="47.07504" lon="7.14395">
        <ele>435.3</ele>
        <time>2022-09-30T13:55:16Z</time>
      </trkpt>
      <trkpt lat="47.07505" lon="7.14388">
        <ele>435.3</ele>
        <time>2022-09-30T13:55:17Z</time>
      </trkpt>
      <trkpt lat="47.07506" lon="7.14381">
        <ele>435.3</ele>
        <time>2022-09-30T13:55:18Z</time>
      </trkpt>
      <trkpt lat="47.07504" lon="7.14375">
        <ele>435.3</ele>
        <time>2022-09-30T13:55:19Z</time>
      </trkpt>
      <trkpt lat="47.07502" lon="7.14372">
        <ele>435.3</ele>
        <time>2022-09-30T13:55:20Z</time>
      </trkpt>
      <trkpt lat="47.07513" lon="7.14327">
        <ele>435.2</ele>
        <time>2022-09-30T13:55:21Z</time>
      </trkpt>
      <trkpt lat="47.07512" lon="7.14323">
        <ele>435.2</ele>
        <time>2022-09-30T13:55:22Z</time>
      </trkpt>
      <trkpt lat="47.07512" lon="7.14316">
        <ele>435.2</ele>
        <time>2022-09-30T13:55:23Z</time>
      </trkpt>
      <trkpt lat="47.07511" lon="7.14309">
        <ele>435.3</ele>
        <time>2022-09-30T13:55:24Z</time>
      </trkpt>
      <trkpt lat="47.07511" lon="7.14302">
        <ele>435.3</ele>
        <time>2022-09-30T13:55:25Z</time>
      </trkpt>
      <trkpt lat="47.0751" lon="7.14296">
        <ele>435.3</ele>
        <time>2022-09-30T13:55:26Z</time>
      </trkpt>
      <trkpt lat="47.0751" lon="7.1429">
        <ele>435.3</ele>
        <time>2022-09-30T13:55:27Z</time>
      </trkpt>
      <trkpt lat="47.07509" lon="7.14285">
        <ele>435.3</ele>
        <time>2022-09-30T13:55:28Z</time>
      </trkpt>
      <trkpt lat="47.07509" lon="7.14281">
        <ele>435.3</ele>
        <time>2022-09-30T13:55:29Z</time>
      </trkpt>
      <trkpt lat="47.07508" lon="7.14276">
        <ele>435.3</ele>
        <time>2022-09-30T13:55:30Z</time>
      </trkpt>
      <trkpt lat="47.07509" lon="7.1427">
        <ele>435.4</ele>
        <time>2022-09-30T13:55:31Z</time>
      </trkpt>
      <trkpt lat="47.0751" lon="7.14267">
        <ele>435.4</ele>
        <time>2022-09-30T13:55:32Z</time>
      </trkpt>
      <trkpt lat="47.0751" lon="7.1426">
        <ele>435.4</ele>
        <time>2022-09-30T13:55:33Z</time>
      </trkpt>
      <trkpt lat="47.0751" lon="7.14254">
        <ele>435.4</ele>
        <time>2022-09-30T13:55:34Z</time>
      </trkpt>
      <trkpt lat="47.07508" lon="7.14249">
        <ele>435.4</ele>
        <time>2022-09-30T13:55:35Z</time>
      </trkpt>
      <trkpt lat="47.07506" lon="7.14245">
        <ele>435.4</ele>
        <time>2022-09-30T13:55:36Z</time>
      </trkpt>
      <trkpt lat="47.07503" lon="7.1424">
        <ele>435.4</ele>
        <time>2022-09-30T13:55:37Z</time>
      </trkpt>
      <trkpt lat="47.075" lon="7.14237">
        <ele>435.3</ele>
        <time>2022-09-30T13:55:38Z</time>
      </trkpt>
      <trkpt lat="47.07498" lon="7.14234">
        <ele>435.3</ele>
        <time>2022-09-30T13:55:40Z</time>
      </trkpt>
      <trkpt lat="47.07496" lon="7.14231">
        <ele>435.3</ele>
        <time>2022-09-30T13:55:41Z</time>
      </trkpt>
      <trkpt lat="47.07493" lon="7.14227">
        <ele>435.3</ele>
        <time>2022-09-30T13:55:42Z</time>
      </trkpt>
      <trkpt lat="47.07489" lon="7.14225">
        <ele>435.2</ele>
        <time>2022-09-30T13:55:43Z</time>
      </trkpt>
      <trkpt lat="47.07486" lon="7.14222">
        <ele>435.2</ele>
        <time>2022-09-30T13:55:44Z</time>
      </trkpt>
      <trkpt lat="47.07482" lon="7.14225">
        <ele>435.2</ele>
        <time>2022-09-30T13:55:45Z</time>
      </trkpt>
      <trkpt lat="47.07478" lon="7.14223">
        <ele>435.1</ele>
        <time>2022-09-30T13:55:46Z</time>
      </trkpt>
      <trkpt lat="47.07471" lon="7.14217">
        <ele>435.1</ele>
        <time>2022-09-30T13:55:47Z</time>
      </trkpt>
      <trkpt lat="47.07467" lon="7.14214">
        <ele>435</ele>
        <time>2022-09-30T13:55:48Z</time>
      </trkpt>
      <trkpt lat="47.07463" lon="7.14212">
        <ele>435</ele>
        <time>2022-09-30T13:55:49Z</time>
      </trkpt>
      <trkpt lat="47.0746" lon="7.1421">
        <ele>435</ele>
        <time>2022-09-30T13:55:50Z</time>
      </trkpt>
      <trkpt lat="47.07456" lon="7.14208">
        <ele>435</ele>
        <time>2022-09-30T13:55:51Z</time>
      </trkpt>
      <trkpt lat="47.07451" lon="7.14205">
        <ele>435</ele>
        <time>2022-09-30T13:55:52Z</time>
      </trkpt>
      <trkpt lat="47.07448" lon="7.14202">
        <ele>435</ele>
        <time>2022-09-30T13:55:53Z</time>
      </trkpt>
      <trkpt lat="47.07444" lon="7.14201">
        <ele>435</ele>
        <time>2022-09-30T13:55:54Z</time>
      </trkpt>
      <trkpt lat="47.0744" lon="7.14198">
        <ele>435</ele>
        <time>2022-09-30T13:55:55Z</time>
      </trkpt>
      <trkpt lat="47.07436" lon="7.14196">
        <ele>435</ele>
        <time>2022-09-30T13:55:56Z</time>
      </trkpt>
      <trkpt lat="47.07433" lon="7.14192">
        <ele>435</ele>
        <time>2022-09-30T13:55:57Z</time>
      </trkpt>
      <trkpt lat="47.07429" lon="7.1419">
        <ele>435</ele>
        <time>2022-09-30T13:55:58Z</time>
      </trkpt>
      <trkpt lat="47.07424" lon="7.14187">
        <ele>435</ele>
        <time>2022-09-30T13:55:59Z</time>
      </trkpt>
      <trkpt lat="47.07421" lon="7.14185">
        <ele>435</ele>
        <time>2022-09-30T13:56:00Z</time>
      </trkpt>
      <trkpt lat="47.07417" lon="7.14182">
        <ele>435</ele>
        <time>2022-09-30T13:56:01Z</time>
      </trkpt>
      <trkpt lat="47.07412" lon="7.14179">
        <ele>435</ele>
        <time>2022-09-30T13:56:02Z</time>
      </trkpt>
      <trkpt lat="47.07408" lon="7.14176">
        <ele>435</ele>
        <time>2022-09-30T13:56:03Z</time>
      </trkpt>
      <trkpt lat="47.07404" lon="7.14173">
        <ele>435</ele>
        <time>2022-09-30T13:56:04Z</time>
      </trkpt>
      <trkpt lat="47.074" lon="7.14171">
        <ele>435</ele>
        <time>2022-09-30T13:56:05Z</time>
      </trkpt>
      <trkpt lat="47.07396" lon="7.14168">
        <ele>435</ele>
        <time>2022-09-30T13:56:06Z</time>
      </trkpt>
      <trkpt lat="47.07392" lon="7.14166">
        <ele>435</ele>
        <time>2022-09-30T13:56:07Z</time>
      </trkpt>
      <trkpt lat="47.07387" lon="7.14163">
        <ele>435</ele>
        <time>2022-09-30T13:56:08Z</time>
      </trkpt>
      <trkpt lat="47.07383" lon="7.14159">
        <ele>435.1</ele>
        <time>2022-09-30T13:56:09Z</time>
      </trkpt>
      <trkpt lat="47.07379" lon="7.14156">
        <ele>435.1</ele>
        <time>2022-09-30T13:56:10Z</time>
      </trkpt>
      <trkpt lat="47.07375" lon="7.14155">
        <ele>435.1</ele>
        <time>2022-09-30T13:56:11Z</time>
      </trkpt>
      <trkpt lat="47.07371" lon="7.14152">
        <ele>435.1</ele>
        <time>2022-09-30T13:56:12Z</time>
      </trkpt>
      <trkpt lat="47.07367" lon="7.14148">
        <ele>435.1</ele>
        <time>2022-09-30T13:56:13Z</time>
      </trkpt>
      <trkpt lat="47.07364" lon="7.14146">
        <ele>435.1</ele>
        <time>2022-09-30T13:56:14Z</time>
      </trkpt>
      <trkpt lat="47.07361" lon="7.14143">
        <ele>435.1</ele>
        <time>2022-09-30T13:56:15Z</time>
      </trkpt>
      <trkpt lat="47.07358" lon="7.14141">
        <ele>435.2</ele>
        <time>2022-09-30T13:56:16Z</time>
      </trkpt>
      <trkpt lat="47.07353" lon="7.14138">
        <ele>435.2</ele>
        <time>2022-09-30T13:56:17Z</time>
      </trkpt>
      <trkpt lat="47.07349" lon="7.14135">
        <ele>435.2</ele>
        <time>2022-09-30T13:56:18Z</time>
      </trkpt>
      <trkpt lat="47.07345" lon="7.14135">
        <ele>435.2</ele>
        <time>2022-09-30T13:56:19Z</time>
      </trkpt>
      <trkpt lat="47.07342" lon="7.14132">
        <ele>435.2</ele>
        <time>2022-09-30T13:56:20Z</time>
      </trkpt>
      <trkpt lat="47.07337" lon="7.1413">
        <ele>435.2</ele>
        <time>2022-09-30T13:56:21Z</time>
      </trkpt>
      <trkpt lat="47.07333" lon="7.14127">
        <ele>435.2</ele>
        <time>2022-09-30T13:56:22Z</time>
      </trkpt>
      <trkpt lat="47.0733" lon="7.14125">
        <ele>435.2</ele>
        <time>2022-09-30T13:56:23Z</time>
      </trkpt>
      <trkpt lat="47.07326" lon="7.14122">
        <ele>435.2</ele>
        <time>2022-09-30T13:56:24Z</time>
      </trkpt>
      <trkpt lat="47.07323" lon="7.14119">
        <ele>435.3</ele>
        <time>2022-09-30T13:56:25Z</time>
      </trkpt>
      <trkpt lat="47.07319" lon="7.14118">
        <ele>435.3</ele>
        <time>2022-09-30T13:56:26Z</time>
      </trkpt>
      <trkpt lat="47.07315" lon="7.14116">
        <ele>435.3</ele>
        <time>2022-09-30T13:56:27Z</time>
      </trkpt>
      <trkpt lat="47.07312" lon="7.14114">
        <ele>435.3</ele>
        <time>2022-09-30T13:56:28Z</time>
      </trkpt>
      <trkpt lat="47.07309" lon="7.14112">
        <ele>435.3</ele>
        <time>2022-09-30T13:56:29Z</time>
      </trkpt>
      <trkpt lat="47.07308" lon="7.14112">
        <ele>435.3</ele>
        <time>2022-09-30T13:56:30Z</time>
      </trkpt>
      <trkpt lat="47.07308" lon="7.14109">
        <ele>435.3</ele>
        <time>2022-09-30T13:56:31Z</time>
      </trkpt>
      <trkpt lat="47.07308" lon="7.1411">
        <ele>435.3</ele>
        <time>2022-09-30T13:56:32Z</time>
      </trkpt>
      <trkpt lat="47.07307" lon="7.14111">
        <ele>435.3</ele>
        <time>2022-09-30T13:56:33Z</time>
      </trkpt>
      <trkpt lat="47.07307" lon="7.14109">
        <ele>435.3</ele>
        <time>2022-09-30T13:56:34Z</time>
      </trkpt>
      <trkpt lat="47.07307" lon="7.14109">
        <ele>435.3</ele>
        <time>2022-09-30T13:56:35Z</time>
      </trkpt>
      <trkpt lat="47.07306" lon="7.1411">
        <ele>435.3</ele>
        <time>2022-09-30T13:56:36Z</time>
      </trkpt>
      <trkpt lat="47.07306" lon="7.1411">
        <ele>435.3</ele>
        <time>2022-09-30T13:56:37Z</time>
      </trkpt>
      <trkpt lat="47.07304" lon="7.14109">
        <ele>435.3</ele>
        <time>2022-09-30T13:56:38Z</time>
      </trkpt>
      <trkpt lat="47.07302" lon="7.14109">
        <ele>435.3</ele>
        <time>2022-09-30T13:56:39Z</time>
      </trkpt>
      <trkpt lat="47.073" lon="7.14108">
        <ele>435.3</ele>
        <time>2022-09-30T13:56:40Z</time>
      </trkpt>
      <trkpt lat="47.07298" lon="7.14107">
        <ele>435.3</ele>
        <time>2022-09-30T13:56:41Z</time>
      </trkpt>
      <trkpt lat="47.07296" lon="7.14107">
        <ele>435.3</ele>
        <time>2022-09-30T13:57:24Z</time>
      </trkpt>
      <trkpt lat="47.07295" lon="7.14106">
        <ele>435.3</ele>
        <time>2022-09-30T13:57:25Z</time>
      </trkpt>
      <trkpt lat="47.07293" lon="7.14105">
        <ele>435.3</ele>
        <time>2022-09-30T13:57:26Z</time>
      </trkpt>
      <trkpt lat="47.0729" lon="7.14103">
        <ele>435.3</ele>
        <time>2022-09-30T13:57:27Z</time>
      </trkpt>
      <trkpt lat="47.07289" lon="7.14102">
        <ele>435.3</ele>
        <time>2022-09-30T13:57:28Z</time>
      </trkpt>
      <trkpt lat="47.07286" lon="7.14101">
        <ele>435.3</ele>
        <time>2022-09-30T13:57:29Z</time>
      </trkpt>
      <trkpt lat="47.07285" lon="7.141">
        <ele>435.3</ele>
        <time>2022-09-30T13:57:30Z</time>
      </trkpt>
      <trkpt lat="47.07282" lon="7.14097">
        <ele>435.3</ele>
        <time>2022-09-30T13:57:31Z</time>
      </trkpt>
      <trkpt lat="47.0728" lon="7.14096">
        <ele>435.3</ele>
        <time>2022-09-30T13:57:32Z</time>
      </trkpt>
      <trkpt lat="47.07277" lon="7.14094">
        <ele>435.3</ele>
        <time>2022-09-30T13:57:33Z</time>
      </trkpt>
      <trkpt lat="47.07277" lon="7.14093">
        <ele>435.3</ele>
        <time>2022-09-30T13:57:34Z</time>
      </trkpt>
      <trkpt lat="47.07274" lon="7.1409">
        <ele>435.3</ele>
        <time>2022-09-30T13:57:35Z</time>
      </trkpt>
      <trkpt lat="47.07271" lon="7.14089">
        <ele>435.3</ele>
        <time>2022-09-30T13:57:36Z</time>
      </trkpt>
      <trkpt lat="47.07268" lon="7.14087">
        <ele>435.3</ele>
        <time>2022-09-30T13:57:37Z</time>
      </trkpt>
      <trkpt lat="47.07265" lon="7.14085">
        <ele>435.3</ele>
        <time>2022-09-30T13:57:38Z</time>
      </trkpt>
      <trkpt lat="47.07262" lon="7.14084">
        <ele>435.2</ele>
        <time>2022-09-30T13:57:39Z</time>
      </trkpt>
      <trkpt lat="47.07259" lon="7.14081">
        <ele>435.2</ele>
        <time>2022-09-30T13:57:40Z</time>
      </trkpt>
      <trkpt lat="47.07258" lon="7.1408">
        <ele>435.2</ele>
        <time>2022-09-30T13:57:41Z</time>
      </trkpt>
      <trkpt lat="47.07253" lon="7.14077">
        <ele>435.2</ele>
        <time>2022-09-30T13:57:42Z</time>
      </trkpt>
      <trkpt lat="47.07252" lon="7.14076">
        <ele>435.2</ele>
        <time>2022-09-30T13:57:43Z</time>
      </trkpt>
      <trkpt lat="47.07248" lon="7.14072">
        <ele>435.2</ele>
        <time>2022-09-30T13:57:44Z</time>
      </trkpt>
      <trkpt lat="47.07245" lon="7.14069">
        <ele>435.2</ele>
        <time>2022-09-30T13:57:45Z</time>
      </trkpt>
      <trkpt lat="47.07241" lon="7.14066">
        <ele>435.2</ele>
        <time>2022-09-30T13:57:46Z</time>
      </trkpt>
      <trkpt lat="47.07237" lon="7.14064">
        <ele>435.1</ele>
        <time>2022-09-30T13:57:48Z</time>
      </trkpt>
      <trkpt lat="47.07235" lon="7.14062">
        <ele>435.1</ele>
        <time>2022-09-30T13:57:49Z</time>
      </trkpt>
      <trkpt lat="47.07231" lon="7.14059">
        <ele>435.1</ele>
        <time>2022-09-30T13:57:50Z</time>
      </trkpt>
      <trkpt lat="47.07228" lon="7.14058">
        <ele>435.1</ele>
        <time>2022-09-30T13:57:51Z</time>
      </trkpt>
      <trkpt lat="47.07225" lon="7.14056">
        <ele>435.1</ele>
        <time>2022-09-30T13:57:52Z</time>
      </trkpt>
      <trkpt lat="47.07222" lon="7.14054">
        <ele>435.1</ele>
        <time>2022-09-30T13:57:53Z</time>
      </trkpt>
      <trkpt lat="47.07219" lon="7.14052">
        <ele>435.1</ele>
        <time>2022-09-30T13:57:54Z</time>
      </trkpt>
      <trkpt lat="47.07212" lon="7.14048">
        <ele>435.1</ele>
        <time>2022-09-30T13:57:55Z</time>
      </trkpt>
      <trkpt lat="47.07208" lon="7.14046">
        <ele>435.2</ele>
        <time>2022-09-30T13:57:56Z</time>
      </trkpt>
      <trkpt lat="47.07205" lon="7.14044">
        <ele>435.2</ele>
        <time>2022-09-30T13:57:58Z</time>
      </trkpt>
      <trkpt lat="47.07202" lon="7.14039">
        <ele>435.2</ele>
        <time>2022-09-30T13:57:59Z</time>
      </trkpt>
      <trkpt lat="47.07199" lon="7.14036">
        <ele>435.2</ele>
        <time>2022-09-30T13:58:00Z</time>
      </trkpt>
      <trkpt lat="47.07191" lon="7.14033">
        <ele>435.2</ele>
        <time>2022-09-30T13:58:01Z</time>
      </trkpt>
      <trkpt lat="47.07189" lon="7.14031">
        <ele>435.2</ele>
        <time>2022-09-30T13:58:02Z</time>
      </trkpt>
      <trkpt lat="47.07186" lon="7.14028">
        <ele>435.2</ele>
        <time>2022-09-30T13:58:03Z</time>
      </trkpt>
      <trkpt lat="47.07179" lon="7.14024">
        <ele>435.2</ele>
        <time>2022-09-30T13:58:04Z</time>
      </trkpt>
      <trkpt lat="47.07175" lon="7.14021">
        <ele>435.2</ele>
        <time>2022-09-30T13:58:05Z</time>
      </trkpt>
      <trkpt lat="47.0717" lon="7.14017">
        <ele>435.1</ele>
        <time>2022-09-30T13:58:06Z</time>
      </trkpt>
      <trkpt lat="47.07167" lon="7.14014">
        <ele>435.1</ele>
        <time>2022-09-30T13:58:07Z</time>
      </trkpt>
      <trkpt lat="47.07163" lon="7.14012">
        <ele>435.2</ele>
        <time>2022-09-30T13:58:08Z</time>
      </trkpt>
      <trkpt lat="47.07159" lon="7.14011">
        <ele>435.2</ele>
        <time>2022-09-30T13:58:09Z</time>
      </trkpt>
      <trkpt lat="47.07155" lon="7.14009">
        <ele>435.2</ele>
        <time>2022-09-30T13:58:10Z</time>
      </trkpt>
      <trkpt lat="47.07152" lon="7.14006">
        <ele>435.2</ele>
        <time>2022-09-30T13:58:11Z</time>
      </trkpt>
      <trkpt lat="47.0715" lon="7.14004">
        <ele>435.2</ele>
        <time>2022-09-30T13:58:12Z</time>
      </trkpt>
      <trkpt lat="47.07146" lon="7.14002">
        <ele>435.2</ele>
        <time>2022-09-30T13:58:13Z</time>
      </trkpt>
      <trkpt lat="47.07142" lon="7.14001">
        <ele>435.3</ele>
        <time>2022-09-30T13:58:14Z</time>
      </trkpt>
      <trkpt lat="47.0714" lon="7.13998">
        <ele>435.3</ele>
        <time>2022-09-30T13:58:15Z</time>
      </trkpt>
      <trkpt lat="47.07137" lon="7.13994">
        <ele>435.3</ele>
        <time>2022-09-30T13:58:16Z</time>
      </trkpt>
      <trkpt lat="47.07133" lon="7.13992">
        <ele>435.4</ele>
        <time>2022-09-30T13:58:17Z</time>
      </trkpt>
      <trkpt lat="47.07129" lon="7.1399">
        <ele>435.4</ele>
        <time>2022-09-30T13:58:18Z</time>
      </trkpt>
      <trkpt lat="47.07124" lon="7.13988">
        <ele>435.4</ele>
        <time>2022-09-30T13:58:19Z</time>
      </trkpt>
      <trkpt lat="47.07122" lon="7.13985">
        <ele>435.4</ele>
        <time>2022-09-30T13:58:20Z</time>
      </trkpt>
      <trkpt lat="47.07118" lon="7.13983">
        <ele>435.5</ele>
        <time>2022-09-30T13:58:21Z</time>
      </trkpt>
      <trkpt lat="47.07115" lon="7.13982">
        <ele>435.5</ele>
        <time>2022-09-30T13:58:22Z</time>
      </trkpt>
      <trkpt lat="47.07111" lon="7.13977">
        <ele>435.6</ele>
        <time>2022-09-30T13:58:23Z</time>
      </trkpt>
      <trkpt lat="47.07107" lon="7.13974">
        <ele>435.6</ele>
        <time>2022-09-30T13:58:24Z</time>
      </trkpt>
      <trkpt lat="47.07104" lon="7.13971">
        <ele>435.6</ele>
        <time>2022-09-30T13:58:25Z</time>
      </trkpt>
      <trkpt lat="47.071" lon="7.13967">
        <ele>435.7</ele>
        <time>2022-09-30T13:58:26Z</time>
      </trkpt>
      <trkpt lat="47.07096" lon="7.13965">
        <ele>435.7</ele>
        <time>2022-09-30T13:58:27Z</time>
      </trkpt>
      <trkpt lat="47.07093" lon="7.13961">
        <ele>435.7</ele>
        <time>2022-09-30T13:58:28Z</time>
      </trkpt>
      <trkpt lat="47.07088" lon="7.13962">
        <ele>435.7</ele>
        <time>2022-09-30T13:58:29Z</time>
      </trkpt>
      <trkpt lat="47.07085" lon="7.1396">
        <ele>435.8</ele>
        <time>2022-09-30T13:58:30Z</time>
      </trkpt>
      <trkpt lat="47.07082" lon="7.1396">
        <ele>435.8</ele>
        <time>2022-09-30T13:58:31Z</time>
      </trkpt>
      <trkpt lat="47.0708" lon="7.13958">
        <ele>435.8</ele>
        <time>2022-09-30T13:58:32Z</time>
      </trkpt>
      <trkpt lat="47.07076" lon="7.13955">
        <ele>435.8</ele>
        <time>2022-09-30T13:58:33Z</time>
      </trkpt>
      <trkpt lat="47.07073" lon="7.13954">
        <ele>435.8</ele>
        <time>2022-09-30T13:58:34Z</time>
      </trkpt>
      <trkpt lat="47.07069" lon="7.1395">
        <ele>435.8</ele>
        <time>2022-09-30T13:58:35Z</time>
      </trkpt>
      <trkpt lat="47.07065" lon="7.13946">
        <ele>435.9</ele>
        <time>2022-09-30T13:58:36Z</time>
      </trkpt>
      <trkpt lat="47.07062" lon="7.13944">
        <ele>435.9</ele>
        <time>2022-09-30T13:58:37Z</time>
      </trkpt>
      <trkpt lat="47.07059" lon="7.13942">
        <ele>435.9</ele>
        <time>2022-09-30T13:58:38Z</time>
      </trkpt>
      <trkpt lat="47.07055" lon="7.13938">
        <ele>435.9</ele>
        <time>2022-09-30T13:58:39Z</time>
      </trkpt>
      <trkpt lat="47.07052" lon="7.13937">
        <ele>435.9</ele>
        <time>2022-09-30T13:58:40Z</time>
      </trkpt>
      <trkpt lat="47.07048" lon="7.13935">
        <ele>435.9</ele>
        <time>2022-09-30T13:58:41Z</time>
      </trkpt>
      <trkpt lat="47.07045" lon="7.13932">
        <ele>435.9</ele>
        <time>2022-09-30T13:58:42Z</time>
      </trkpt>
      <trkpt lat="47.07041" lon="7.13929">
        <ele>435.9</ele>
        <time>2022-09-30T13:58:43Z</time>
      </trkpt>
      <trkpt lat="47.07037" lon="7.13926">
        <ele>435.9</ele>
        <time>2022-09-30T13:58:44Z</time>
      </trkpt>
      <trkpt lat="47.07034" lon="7.13924">
        <ele>435.9</ele>
        <time>2022-09-30T13:58:45Z</time>
      </trkpt>
      <trkpt lat="47.0703" lon="7.13922">
        <ele>435.9</ele>
        <time>2022-09-30T13:58:46Z</time>
      </trkpt>
      <trkpt lat="47.07026" lon="7.1392">
        <ele>435.8</ele>
        <time>2022-09-30T13:58:47Z</time>
      </trkpt>
      <trkpt lat="47.07022" lon="7.13917">
        <ele>435.8</ele>
        <time>2022-09-30T13:58:48Z</time>
      </trkpt>
      <trkpt lat="47.07016" lon="7.13913">
        <ele>435.8</ele>
        <time>2022-09-30T13:58:49Z</time>
      </trkpt>
      <trkpt lat="47.07013" lon="7.1391">
        <ele>435.8</ele>
        <time>2022-09-30T13:58:50Z</time>
      </trkpt>
      <trkpt lat="47.07008" lon="7.13905">
        <ele>435.8</ele>
        <time>2022-09-30T13:58:51Z</time>
      </trkpt>
      <trkpt lat="47.07005" lon="7.13905">
        <ele>435.7</ele>
        <time>2022-09-30T13:58:52Z</time>
      </trkpt>
      <trkpt lat="47.07002" lon="7.13902">
        <ele>435.7</ele>
        <time>2022-09-30T13:58:53Z</time>
      </trkpt>
      <trkpt lat="47.06996" lon="7.13903">
        <ele>435.7</ele>
        <time>2022-09-30T13:58:54Z</time>
      </trkpt>
      <trkpt lat="47.06991" lon="7.13899">
        <ele>435.6</ele>
        <time>2022-09-30T13:58:55Z</time>
      </trkpt>
      <trkpt lat="47.06986" lon="7.13896">
        <ele>435.6</ele>
        <time>2022-09-30T13:58:56Z</time>
      </trkpt>
      <trkpt lat="47.06981" lon="7.13893">
        <ele>435.6</ele>
        <time>2022-09-30T13:58:57Z</time>
      </trkpt>
      <trkpt lat="47.06978" lon="7.13892">
        <ele>435.6</ele>
        <time>2022-09-30T13:58:58Z</time>
      </trkpt>
      <trkpt lat="47.06972" lon="7.1389">
        <ele>435.5</ele>
        <time>2022-09-30T13:58:59Z</time>
      </trkpt>
      <trkpt lat="47.06969" lon="7.13888">
        <ele>435.5</ele>
        <time>2022-09-30T13:59:00Z</time>
      </trkpt>
      <trkpt lat="47.06964" lon="7.13885">
        <ele>435.4</ele>
        <time>2022-09-30T13:59:01Z</time>
      </trkpt>
      <trkpt lat="47.06959" lon="7.13883">
        <ele>435.4</ele>
        <time>2022-09-30T13:59:02Z</time>
      </trkpt>
      <trkpt lat="47.06955" lon="7.13879">
        <ele>435.3</ele>
        <time>2022-09-30T13:59:03Z</time>
      </trkpt>
      <trkpt lat="47.06951" lon="7.13875">
        <ele>435.3</ele>
        <time>2022-09-30T13:59:04Z</time>
      </trkpt>
      <trkpt lat="47.06948" lon="7.13873">
        <ele>435.2</ele>
        <time>2022-09-30T13:59:05Z</time>
      </trkpt>
      <trkpt lat="47.06944" lon="7.13869">
        <ele>435.2</ele>
        <time>2022-09-30T13:59:06Z</time>
      </trkpt>
      <trkpt lat="47.0694" lon="7.13865">
        <ele>435.2</ele>
        <time>2022-09-30T13:59:07Z</time>
      </trkpt>
      <trkpt lat="47.06936" lon="7.13861">
        <ele>435.2</ele>
        <time>2022-09-30T13:59:08Z</time>
      </trkpt>
      <trkpt lat="47.06932" lon="7.13857">
        <ele>435.1</ele>
        <time>2022-09-30T13:59:09Z</time>
      </trkpt>
      <trkpt lat="47.06928" lon="7.13853">
        <ele>435.1</ele>
        <time>2022-09-30T13:59:10Z</time>
      </trkpt>
      <trkpt lat="47.06923" lon="7.13849">
        <ele>435.1</ele>
        <time>2022-09-30T13:59:11Z</time>
      </trkpt>
      <trkpt lat="47.06918" lon="7.13845">
        <ele>435.1</ele>
        <time>2022-09-30T13:59:12Z</time>
      </trkpt>
      <trkpt lat="47.06914" lon="7.13841">
        <ele>435.1</ele>
        <time>2022-09-30T13:59:13Z</time>
      </trkpt>
      <trkpt lat="47.0691" lon="7.13839">
        <ele>435.1</ele>
        <time>2022-09-30T13:59:14Z</time>
      </trkpt>
      <trkpt lat="47.06904" lon="7.13837">
        <ele>435.1</ele>
        <time>2022-09-30T13:59:15Z</time>
      </trkpt>
      <trkpt lat="47.06901" lon="7.13833">
        <ele>435.1</ele>
        <time>2022-09-30T13:59:16Z</time>
      </trkpt>
      <trkpt lat="47.06896" lon="7.13832">
        <ele>435.1</ele>
        <time>2022-09-30T13:59:17Z</time>
      </trkpt>
      <trkpt lat="47.06891" lon="7.13832">
        <ele>435.1</ele>
        <time>2022-09-30T13:59:18Z</time>
      </trkpt>
      <trkpt lat="47.06886" lon="7.1383">
        <ele>435.1</ele>
        <time>2022-09-30T13:59:19Z</time>
      </trkpt>
      <trkpt lat="47.06882" lon="7.1383">
        <ele>435.1</ele>
        <time>2022-09-30T13:59:20Z</time>
      </trkpt>
      <trkpt lat="47.06878" lon="7.13829">
        <ele>435.1</ele>
        <time>2022-09-30T13:59:21Z</time>
      </trkpt>
      <trkpt lat="47.06873" lon="7.13828">
        <ele>435.1</ele>
        <time>2022-09-30T13:59:22Z</time>
      </trkpt>
      <trkpt lat="47.06869" lon="7.13826">
        <ele>435.1</ele>
        <time>2022-09-30T13:59:23Z</time>
      </trkpt>
      <trkpt lat="47.06866" lon="7.13826">
        <ele>435.1</ele>
        <time>2022-09-30T13:59:24Z</time>
      </trkpt>
      <trkpt lat="47.06862" lon="7.13826">
        <ele>435.1</ele>
        <time>2022-09-30T13:59:25Z</time>
      </trkpt>
      <trkpt lat="47.06857" lon="7.13825">
        <ele>435.1</ele>
        <time>2022-09-30T13:59:26Z</time>
      </trkpt>
      <trkpt lat="47.06854" lon="7.13824">
        <ele>435.1</ele>
        <time>2022-09-30T13:59:27Z</time>
      </trkpt>
      <trkpt lat="47.06849" lon="7.13824">
        <ele>435.1</ele>
        <time>2022-09-30T13:59:28Z</time>
      </trkpt>
      <trkpt lat="47.06845" lon="7.13824">
        <ele>435.1</ele>
        <time>2022-09-30T13:59:29Z</time>
      </trkpt>
      <trkpt lat="47.06842" lon="7.13823">
        <ele>435.1</ele>
        <time>2022-09-30T13:59:30Z</time>
      </trkpt>
      <trkpt lat="47.06838" lon="7.13823">
        <ele>435.1</ele>
        <time>2022-09-30T13:59:31Z</time>
      </trkpt>
      <trkpt lat="47.06834" lon="7.13823">
        <ele>435.1</ele>
        <time>2022-09-30T13:59:32Z</time>
      </trkpt>
      <trkpt lat="47.0683" lon="7.13823">
        <ele>435.1</ele>
        <time>2022-09-30T13:59:33Z</time>
      </trkpt>
      <trkpt lat="47.06827" lon="7.13823">
        <ele>435.1</ele>
        <time>2022-09-30T13:59:34Z</time>
      </trkpt>
      <trkpt lat="47.06826" lon="7.13824">
        <ele>435.1</ele>
        <time>2022-09-30T13:59:35Z</time>
      </trkpt>
      <trkpt lat="47.06822" lon="7.13824">
        <ele>435.1</ele>
        <time>2022-09-30T13:59:36Z</time>
      </trkpt>
      <trkpt lat="47.0682" lon="7.13824">
        <ele>435.1</ele>
        <time>2022-09-30T13:59:37Z</time>
      </trkpt>
      <trkpt lat="47.06816" lon="7.13824">
        <ele>435.1</ele>
        <time>2022-09-30T13:59:38Z</time>
      </trkpt>
      <trkpt lat="47.06812" lon="7.13825">
        <ele>435.2</ele>
        <time>2022-09-30T13:59:39Z</time>
      </trkpt>
      <trkpt lat="47.06811" lon="7.13825">
        <ele>435.2</ele>
        <time>2022-09-30T13:59:40Z</time>
      </trkpt>
      <trkpt lat="47.06808" lon="7.13826">
        <ele>435.2</ele>
        <time>2022-09-30T13:59:41Z</time>
      </trkpt>
      <trkpt lat="47.06806" lon="7.13827">
        <ele>435.2</ele>
        <time>2022-09-30T13:59:42Z</time>
      </trkpt>
      <trkpt lat="47.06804" lon="7.13827">
        <ele>435.2</ele>
        <time>2022-09-30T13:59:43Z</time>
      </trkpt>
      <trkpt lat="47.06803" lon="7.13828">
        <ele>435.2</ele>
        <time>2022-09-30T13:59:44Z</time>
      </trkpt>
      <trkpt lat="47.068" lon="7.13829">
        <ele>435.2</ele>
        <time>2022-09-30T13:59:45Z</time>
      </trkpt>
      <trkpt lat="47.06798" lon="7.13832">
        <ele>435.3</ele>
        <time>2022-09-30T13:59:46Z</time>
      </trkpt>
      <trkpt lat="47.06798" lon="7.13833">
        <ele>435.3</ele>
        <time>2022-09-30T13:59:47Z</time>
      </trkpt>
      <trkpt lat="47.06798" lon="7.13834">
        <ele>435.3</ele>
        <time>2022-09-30T13:59:48Z</time>
      </trkpt>
      <trkpt lat="47.06798" lon="7.13835">
        <ele>435.3</ele>
        <time>2022-09-30T13:59:49Z</time>
      </trkpt>
      <trkpt lat="47.06798" lon="7.13835">
        <ele>435.3</ele>
        <time>2022-09-30T13:59:50Z</time>
      </trkpt>
      <trkpt lat="47.06798" lon="7.13833">
        <ele>435.3</ele>
        <time>2022-09-30T13:59:52Z</time>
      </trkpt>
      <trkpt lat="47.06797" lon="7.13834">
        <ele>435.3</ele>
        <time>2022-09-30T13:59:53Z</time>
      </trkpt>
      <trkpt lat="47.06796" lon="7.13834">
        <ele>435.3</ele>
        <time>2022-09-30T13:59:54Z</time>
      </trkpt>
      <trkpt lat="47.06795" lon="7.13835">
        <ele>435.3</ele>
        <time>2022-09-30T13:59:55Z</time>
      </trkpt>
      <trkpt lat="47.06795" lon="7.13834">
        <ele>435.3</ele>
        <time>2022-09-30T13:59:56Z</time>
      </trkpt>
      <trkpt lat="47.06794" lon="7.13835">
        <ele>435.3</ele>
        <time>2022-09-30T13:59:58Z</time>
      </trkpt>
      <trkpt lat="47.06794" lon="7.13832">
        <ele>435.3</ele>
        <time>2022-09-30T13:59:59Z</time>
      </trkpt>
      <trkpt lat="47.06794" lon="7.13831">
        <ele>435.3</ele>
        <time>2022-09-30T14:00:00Z</time>
      </trkpt>
      <trkpt lat="47.06793" lon="7.13829">
        <ele>435.3</ele>
        <time>2022-09-30T14:00:01Z</time>
      </trkpt>
      <trkpt lat="47.06793" lon="7.13825">
        <ele>435.2</ele>
        <time>2022-09-30T14:00:02Z</time>
      </trkpt>
      <trkpt lat="47.06793" lon="7.13824">
        <ele>435.2</ele>
        <time>2022-09-30T14:00:03Z</time>
      </trkpt>
      <trkpt lat="47.06792" lon="7.1382">
        <ele>435.1</ele>
        <time>2022-09-30T14:00:04Z</time>
      </trkpt>
      <trkpt lat="47.06791" lon="7.13816">
        <ele>435</ele>
        <time>2022-09-30T14:00:06Z</time>
      </trkpt>
      <trkpt lat="47.06787" lon="7.13805">
        <ele>434.7</ele>
        <time>2022-09-30T14:00:07Z</time>
      </trkpt>
      <trkpt lat="47.06785" lon="7.13802">
        <ele>434.6</ele>
        <time>2022-09-30T14:00:08Z</time>
      </trkpt>
      <trkpt lat="47.06783" lon="7.13801">
        <ele>434.5</ele>
        <time>2022-09-30T14:00:10Z</time>
      </trkpt>
      <trkpt lat="47.06782" lon="7.13799">
        <ele>434.5</ele>
        <time>2022-09-30T14:00:11Z</time>
      </trkpt>
      <trkpt lat="47.06781" lon="7.13797">
        <ele>434.4</ele>
        <time>2022-09-30T14:00:12Z</time>
      </trkpt>
      <trkpt lat="47.06781" lon="7.13797">
        <ele>434.4</ele>
        <time>2022-09-30T14:00:13Z</time>
      </trkpt>
      <trkpt lat="47.06781" lon="7.13796">
        <ele>434.4</ele>
        <time>2022-09-30T14:00:14Z</time>
      </trkpt>
      <trkpt lat="47.0678" lon="7.13796">
        <ele>434.4</ele>
        <time>2022-09-30T14:00:15Z</time>
      </trkpt>
      <trkpt lat="47.0678" lon="7.13796">
        <ele>434.3</ele>
        <time>2022-09-30T14:00:16Z</time>
      </trkpt>
      <trkpt lat="47.0678" lon="7.13795">
        <ele>434.3</ele>
        <time>2022-09-30T14:00:17Z</time>
      </trkpt>
      <trkpt lat="47.0678" lon="7.13795">
        <ele>434.3</ele>
        <time>2022-09-30T14:00:18Z</time>
      </trkpt>
      <trkpt lat="47.06779" lon="7.13795">
        <ele>434.3</ele>
        <time>2022-09-30T14:00:19Z</time>
      </trkpt>
      <trkpt lat="47.06779" lon="7.13794">
        <ele>434.3</ele>
        <time>2022-09-30T14:00:20Z</time>
      </trkpt>
      <trkpt lat="47.06779" lon="7.13794">
        <ele>434.3</ele>
        <time>2022-09-30T14:00:21Z</time>
      </trkpt>
      <trkpt lat="47.06784" lon="7.1379">
        <ele>434.1</ele>
        <time>2022-09-30T14:00:41Z</time>
      </trkpt>
      <trkpt lat="47.06784" lon="7.1379">
        <ele>434.1</ele>
        <time>2022-09-30T14:00:42Z</time>
      </trkpt>
      <trkpt lat="47.06784" lon="7.13789">
        <ele>434.1</ele>
        <time>2022-09-30T14:00:43Z</time>
      </trkpt>
      <trkpt lat="47.06785" lon="7.13788">
        <ele>434.1</ele>
        <time>2022-09-30T14:00:44Z</time>
      </trkpt>
      <trkpt lat="47.06785" lon="7.13788">
        <ele>434.1</ele>
        <time>2022-09-30T14:00:45Z</time>
      </trkpt>
      <trkpt lat="47.06785" lon="7.13787">
        <ele>434.1</ele>
        <time>2022-09-30T14:00:46Z</time>
      </trkpt>
      <trkpt lat="47.06785" lon="7.13786">
        <ele>434.1</ele>
        <time>2022-09-30T14:00:47Z</time>
      </trkpt>
      <trkpt lat="47.06785" lon="7.13785">
        <ele>434</ele>
        <time>2022-09-30T14:00:48Z</time>
      </trkpt>
      <trkpt lat="47.06786" lon="7.13785">
        <ele>434</ele>
        <time>2022-09-30T14:00:49Z</time>
      </trkpt>
      <trkpt lat="47.06808" lon="7.13716">
        <ele>433.8</ele>
        <time>2022-09-30T14:05:56Z</time>
      </trkpt>
      <trkpt lat="47.06805" lon="7.13716">
        <ele>433.8</ele>
        <time>2022-09-30T14:05:57Z</time>
      </trkpt>
      <trkpt lat="47.06802" lon="7.13716">
        <ele>433.8</ele>
        <time>2022-09-30T14:05:58Z</time>
      </trkpt>
      <trkpt lat="47.06799" lon="7.13715">
        <ele>433.8</ele>
        <time>2022-09-30T14:05:59Z</time>
      </trkpt>
      <trkpt lat="47.06796" lon="7.13715">
        <ele>433.7</ele>
        <time>2022-09-30T14:06:00Z</time>
      </trkpt>
      <trkpt lat="47.06797" lon="7.13715">
        <ele>433.7</ele>
        <time>2022-09-30T14:06:01Z</time>
      </trkpt>
      <trkpt lat="47.06796" lon="7.13716">
        <ele>433.7</ele>
        <time>2022-09-30T14:06:02Z</time>
      </trkpt>
      <trkpt lat="47.06796" lon="7.13717">
        <ele>433.7</ele>
        <time>2022-09-30T14:06:03Z</time>
      </trkpt>
      <trkpt lat="47.06796" lon="7.13719">
        <ele>433.7</ele>
        <time>2022-09-30T14:06:04Z</time>
      </trkpt>
      <trkpt lat="47.06796" lon="7.1372">
        <ele>433.7</ele>
        <time>2022-09-30T14:06:05Z</time>
      </trkpt>
      <trkpt lat="47.06796" lon="7.13722">
        <ele>433.7</ele>
        <time>2022-09-30T14:06:06Z</time>
      </trkpt>
      <trkpt lat="47.06796" lon="7.13727">
        <ele>433.7</ele>
        <time>2022-09-30T14:06:07Z</time>
      </trkpt>
      <trkpt lat="47.06796" lon="7.13728">
        <ele>433.7</ele>
        <time>2022-09-30T14:06:08Z</time>
      </trkpt>
      <trkpt lat="47.06796" lon="7.13732">
        <ele>433.7</ele>
        <time>2022-09-30T14:06:09Z</time>
      </trkpt>
      <trkpt lat="47.06796" lon="7.13734">
        <ele>433.7</ele>
        <time>2022-09-30T14:06:10Z</time>
      </trkpt>
      <trkpt lat="47.06794" lon="7.13738">
        <ele>433.7</ele>
        <time>2022-09-30T14:06:11Z</time>
      </trkpt>
      <trkpt lat="47.06794" lon="7.13739">
        <ele>433.7</ele>
        <time>2022-09-30T14:06:12Z</time>
      </trkpt>
      <trkpt lat="47.06792" lon="7.13744">
        <ele>433.7</ele>
        <time>2022-09-30T14:06:13Z</time>
      </trkpt>
      <trkpt lat="47.06791" lon="7.13746">
        <ele>433.8</ele>
        <time>2022-09-30T14:06:14Z</time>
      </trkpt>
      <trkpt lat="47.06789" lon="7.1375">
        <ele>433.8</ele>
        <time>2022-09-30T14:06:15Z</time>
      </trkpt>
      <trkpt lat="47.06789" lon="7.13755">
        <ele>433.8</ele>
        <time>2022-09-30T14:06:16Z</time>
      </trkpt>
      <trkpt lat="47.06789" lon="7.1376">
        <ele>433.8</ele>
        <time>2022-09-30T14:06:17Z</time>
      </trkpt>
      <trkpt lat="47.06788" lon="7.13764">
        <ele>433.8</ele>
        <time>2022-09-30T14:06:18Z</time>
      </trkpt>
      <trkpt lat="47.06788" lon="7.13765">
        <ele>433.8</ele>
        <time>2022-09-30T14:06:19Z</time>
      </trkpt>
      <trkpt lat="47.06785" lon="7.13774">
        <ele>433.9</ele>
        <time>2022-09-30T14:06:20Z</time>
      </trkpt>
      <trkpt lat="47.06782" lon="7.13779">
        <ele>434</ele>
        <time>2022-09-30T14:06:21Z</time>
      </trkpt>
      <trkpt lat="47.06783" lon="7.13786">
        <ele>434.1</ele>
        <time>2022-09-30T14:06:22Z</time>
      </trkpt>
      <trkpt lat="47.06784" lon="7.13793">
        <ele>434.4</ele>
        <time>2022-09-30T14:06:23Z</time>
      </trkpt>
      <trkpt lat="47.06782" lon="7.13795">
        <ele>434.3</ele>
        <time>2022-09-30T14:06:24Z</time>
      </trkpt>
      <trkpt lat="47.06779" lon="7.13797">
        <ele>434.2</ele>
        <time>2022-09-30T14:06:25Z</time>
      </trkpt>
      <trkpt lat="47.06778" lon="7.13796">
        <ele>434.2</ele>
        <time>2022-09-30T14:06:26Z</time>
      </trkpt>
      <trkpt lat="47.06776" lon="7.13794">
        <ele>434.1</ele>
        <time>2022-09-30T14:06:27Z</time>
      </trkpt>
      <trkpt lat="47.06774" lon="7.13793">
        <ele>434</ele>
        <time>2022-09-30T14:06:28Z</time>
      </trkpt>
      <trkpt lat="47.06772" lon="7.1379">
        <ele>434</ele>
        <time>2022-09-30T14:06:29Z</time>
      </trkpt>
      <trkpt lat="47.06771" lon="7.13787">
        <ele>433.9</ele>
        <time>2022-09-30T14:06:30Z</time>
      </trkpt>
      <trkpt lat="47.06767" lon="7.13784">
        <ele>433.8</ele>
        <time>2022-09-30T14:06:31Z</time>
      </trkpt>
      <trkpt lat="47.06766" lon="7.13782">
        <ele>433.8</ele>
        <time>2022-09-30T14:06:32Z</time>
      </trkpt>
      <trkpt lat="47.06763" lon="7.13779">
        <ele>433.7</ele>
        <time>2022-09-30T14:06:33Z</time>
      </trkpt>
      <trkpt lat="47.06762" lon="7.13777">
        <ele>433.7</ele>
        <time>2022-09-30T14:06:34Z</time>
      </trkpt>
      <trkpt lat="47.06758" lon="7.13774">
        <ele>433.6</ele>
        <time>2022-09-30T14:06:35Z</time>
      </trkpt>
      <trkpt lat="47.06754" lon="7.1377">
        <ele>433.6</ele>
        <time>2022-09-30T14:06:36Z</time>
      </trkpt>
      <trkpt lat="47.06751" lon="7.13768">
        <ele>433.6</ele>
        <time>2022-09-30T14:06:37Z</time>
      </trkpt>
      <trkpt lat="47.06748" lon="7.13766">
        <ele>433.6</ele>
        <time>2022-09-30T14:06:38Z</time>
      </trkpt>
      <trkpt lat="47.06745" lon="7.13763">
        <ele>433.6</ele>
        <time>2022-09-30T14:06:39Z</time>
      </trkpt>
      <trkpt lat="47.06742" lon="7.13761">
        <ele>433.6</ele>
        <time>2022-09-30T14:06:40Z</time>
      </trkpt>
      <trkpt lat="47.0674" lon="7.13761">
        <ele>433.6</ele>
        <time>2022-09-30T14:06:41Z</time>
      </trkpt>
      <trkpt lat="47.06736" lon="7.1376">
        <ele>433.5</ele>
        <time>2022-09-30T14:06:42Z</time>
      </trkpt>
      <trkpt lat="47.06734" lon="7.13758">
        <ele>433.5</ele>
        <time>2022-09-30T14:06:43Z</time>
      </trkpt>
      <trkpt lat="47.06732" lon="7.13755">
        <ele>433.5</ele>
        <time>2022-09-30T14:06:44Z</time>
      </trkpt>
      <trkpt lat="47.0673" lon="7.13753">
        <ele>433.5</ele>
        <time>2022-09-30T14:06:45Z</time>
      </trkpt>
      <trkpt lat="47.06725" lon="7.13752">
        <ele>433.5</ele>
        <time>2022-09-30T14:06:46Z</time>
      </trkpt>
      <trkpt lat="47.06722" lon="7.13751">
        <ele>433.5</ele>
        <time>2022-09-30T14:06:47Z</time>
      </trkpt>
      <trkpt lat="47.06719" lon="7.13749">
        <ele>433.5</ele>
        <time>2022-09-30T14:06:48Z</time>
      </trkpt>
      <trkpt lat="47.06716" lon="7.13747">
        <ele>433.5</ele>
        <time>2022-09-30T14:06:49Z</time>
      </trkpt>
      <trkpt lat="47.06712" lon="7.13744">
        <ele>433.5</ele>
        <time>2022-09-30T14:06:50Z</time>
      </trkpt>
      <trkpt lat="47.06711" lon="7.13742">
        <ele>433.5</ele>
        <time>2022-09-30T14:06:51Z</time>
      </trkpt>
      <trkpt lat="47.06708" lon="7.13741">
        <ele>433.5</ele>
        <time>2022-09-30T14:06:52Z</time>
      </trkpt>
      <trkpt lat="47.06705" lon="7.1374">
        <ele>433.5</ele>
        <time>2022-09-30T14:06:53Z</time>
      </trkpt>
      <trkpt lat="47.06702" lon="7.13739">
        <ele>433.5</ele>
        <time>2022-09-30T14:06:54Z</time>
      </trkpt>
      <trkpt lat="47.06698" lon="7.13735">
        <ele>433.5</ele>
        <time>2022-09-30T14:06:55Z</time>
      </trkpt>
      <trkpt lat="47.06695" lon="7.13734">
        <ele>433.5</ele>
        <time>2022-09-30T14:06:56Z</time>
      </trkpt>
      <trkpt lat="47.06693" lon="7.13735">
        <ele>433.5</ele>
        <time>2022-09-30T14:06:57Z</time>
      </trkpt>
      <trkpt lat="47.06688" lon="7.13733">
        <ele>433.5</ele>
        <time>2022-09-30T14:06:58Z</time>
      </trkpt>
      <trkpt lat="47.06685" lon="7.13731">
        <ele>433.5</ele>
        <time>2022-09-30T14:06:59Z</time>
      </trkpt>
      <trkpt lat="47.06682" lon="7.1373">
        <ele>433.5</ele>
        <time>2022-09-30T14:07:00Z</time>
      </trkpt>
      <trkpt lat="47.06677" lon="7.13728">
        <ele>433.5</ele>
        <time>2022-09-30T14:07:01Z</time>
      </trkpt>
      <trkpt lat="47.06674" lon="7.13727">
        <ele>433.5</ele>
        <time>2022-09-30T14:07:02Z</time>
      </trkpt>
      <trkpt lat="47.0667" lon="7.13726">
        <ele>433.5</ele>
        <time>2022-09-30T14:07:03Z</time>
      </trkpt>
      <trkpt lat="47.06666" lon="7.13724">
        <ele>433.5</ele>
        <time>2022-09-30T14:07:04Z</time>
      </trkpt>
      <trkpt lat="47.06663" lon="7.13722">
        <ele>433.5</ele>
        <time>2022-09-30T14:07:05Z</time>
      </trkpt>
      <trkpt lat="47.06659" lon="7.13719">
        <ele>433.5</ele>
        <time>2022-09-30T14:07:06Z</time>
      </trkpt>
      <trkpt lat="47.06653" lon="7.13716">
        <ele>433.5</ele>
        <time>2022-09-30T14:07:07Z</time>
      </trkpt>
      <trkpt lat="47.06649" lon="7.13715">
        <ele>433.5</ele>
        <time>2022-09-30T14:07:08Z</time>
      </trkpt>
      <trkpt lat="47.06645" lon="7.13712">
        <ele>433.5</ele>
        <time>2022-09-30T14:07:09Z</time>
      </trkpt>
      <trkpt lat="47.06641" lon="7.1371">
        <ele>433.5</ele>
        <time>2022-09-30T14:07:10Z</time>
      </trkpt>
      <trkpt lat="47.06637" lon="7.13707">
        <ele>433.4</ele>
        <time>2022-09-30T14:07:11Z</time>
      </trkpt>
      <trkpt lat="47.06633" lon="7.13704">
        <ele>433.4</ele>
        <time>2022-09-30T14:07:12Z</time>
      </trkpt>
      <trkpt lat="47.06628" lon="7.13701">
        <ele>433.4</ele>
        <time>2022-09-30T14:07:13Z</time>
      </trkpt>
      <trkpt lat="47.06625" lon="7.13699">
        <ele>433.4</ele>
        <time>2022-09-30T14:07:14Z</time>
      </trkpt>
      <trkpt lat="47.06622" lon="7.13697">
        <ele>433.4</ele>
        <time>2022-09-30T14:07:15Z</time>
      </trkpt>
      <trkpt lat="47.06619" lon="7.13697">
        <ele>433.4</ele>
        <time>2022-09-30T14:07:16Z</time>
      </trkpt>
      <trkpt lat="47.06615" lon="7.13695">
        <ele>433.4</ele>
        <time>2022-09-30T14:07:17Z</time>
      </trkpt>
      <trkpt lat="47.06611" lon="7.13693">
        <ele>433.4</ele>
        <time>2022-09-30T14:07:18Z</time>
      </trkpt>
      <trkpt lat="47.06608" lon="7.13689">
        <ele>433.4</ele>
        <time>2022-09-30T14:07:19Z</time>
      </trkpt>
      <trkpt lat="47.06607" lon="7.13687">
        <ele>433.3</ele>
        <time>2022-09-30T14:07:20Z</time>
      </trkpt>
      <trkpt lat="47.06604" lon="7.13686">
        <ele>433.3</ele>
        <time>2022-09-30T14:07:21Z</time>
      </trkpt>
      <trkpt lat="47.066" lon="7.13683">
        <ele>433.3</ele>
        <time>2022-09-30T14:07:22Z</time>
      </trkpt>
      <trkpt lat="47.06597" lon="7.13681">
        <ele>433.3</ele>
        <time>2022-09-30T14:07:23Z</time>
      </trkpt>
      <trkpt lat="47.06594" lon="7.1368">
        <ele>433.3</ele>
        <time>2022-09-30T14:07:24Z</time>
      </trkpt>
      <trkpt lat="47.0659" lon="7.13677">
        <ele>433.3</ele>
        <time>2022-09-30T14:07:25Z</time>
      </trkpt>
      <trkpt lat="47.06587" lon="7.13676">
        <ele>433.3</ele>
        <time>2022-09-30T14:07:26Z</time>
      </trkpt>
      <trkpt lat="47.06585" lon="7.13674">
        <ele>433.3</ele>
        <time>2022-09-30T14:07:27Z</time>
      </trkpt>
      <trkpt lat="47.0658" lon="7.13671">
        <ele>433.3</ele>
        <time>2022-09-30T14:07:28Z</time>
      </trkpt>
      <trkpt lat="47.06576" lon="7.13668">
        <ele>433.3</ele>
        <time>2022-09-30T14:07:29Z</time>
      </trkpt>
      <trkpt lat="47.06572" lon="7.13667">
        <ele>433.3</ele>
        <time>2022-09-30T14:07:30Z</time>
      </trkpt>
      <trkpt lat="47.06569" lon="7.13665">
        <ele>433.3</ele>
        <time>2022-09-30T14:07:31Z</time>
      </trkpt>
      <trkpt lat="47.06566" lon="7.13662">
        <ele>433.3</ele>
        <time>2022-09-30T14:07:32Z</time>
      </trkpt>
      <trkpt lat="47.06562" lon="7.1366">
        <ele>433.3</ele>
        <time>2022-09-30T14:07:33Z</time>
      </trkpt>
      <trkpt lat="47.06559" lon="7.13657">
        <ele>433.3</ele>
        <time>2022-09-30T14:07:34Z</time>
      </trkpt>
      <trkpt lat="47.06554" lon="7.13655">
        <ele>433.3</ele>
        <time>2022-09-30T14:07:35Z</time>
      </trkpt>
      <trkpt lat="47.0655" lon="7.13654">
        <ele>433.3</ele>
        <time>2022-09-30T14:07:36Z</time>
      </trkpt>
      <trkpt lat="47.06546" lon="7.13651">
        <ele>433.3</ele>
        <time>2022-09-30T14:07:37Z</time>
      </trkpt>
      <trkpt lat="47.06543" lon="7.13647">
        <ele>433.3</ele>
        <time>2022-09-30T14:07:38Z</time>
      </trkpt>
      <trkpt lat="47.06539" lon="7.13645">
        <ele>433.2</ele>
        <time>2022-09-30T14:07:39Z</time>
      </trkpt>
      <trkpt lat="47.06535" lon="7.13643">
        <ele>433.2</ele>
        <time>2022-09-30T14:07:40Z</time>
      </trkpt>
      <trkpt lat="47.0653" lon="7.1364">
        <ele>433.2</ele>
        <time>2022-09-30T14:07:41Z</time>
      </trkpt>
      <trkpt lat="47.06527" lon="7.13637">
        <ele>433.2</ele>
        <time>2022-09-30T14:07:42Z</time>
      </trkpt>
      <trkpt lat="47.06523" lon="7.13634">
        <ele>433.2</ele>
        <time>2022-09-30T14:07:43Z</time>
      </trkpt>
      <trkpt lat="47.0652" lon="7.13632">
        <ele>433.2</ele>
        <time>2022-09-30T14:07:44Z</time>
      </trkpt>
      <trkpt lat="47.06517" lon="7.13627">
        <ele>433.2</ele>
        <time>2022-09-30T14:07:45Z</time>
      </trkpt>
      <trkpt lat="47.06514" lon="7.13626">
        <ele>433.2</ele>
        <time>2022-09-30T14:07:46Z</time>
      </trkpt>
      <trkpt lat="47.06511" lon="7.13622">
        <ele>433.2</ele>
        <time>2022-09-30T14:07:47Z</time>
      </trkpt>
      <trkpt lat="47.06508" lon="7.13619">
        <ele>433.2</ele>
        <time>2022-09-30T14:07:48Z</time>
      </trkpt>
      <trkpt lat="47.06505" lon="7.13614">
        <ele>433.2</ele>
        <time>2022-09-30T14:07:49Z</time>
      </trkpt>
      <trkpt lat="47.06501" lon="7.13611">
        <ele>433.2</ele>
        <time>2022-09-30T14:07:50Z</time>
      </trkpt>
      <trkpt lat="47.06498" lon="7.13608">
        <ele>433.1</ele>
        <time>2022-09-30T14:07:51Z</time>
      </trkpt>
      <trkpt lat="47.06494" lon="7.13604">
        <ele>433.1</ele>
        <time>2022-09-30T14:07:52Z</time>
      </trkpt>
      <trkpt lat="47.06491" lon="7.136">
        <ele>433.1</ele>
        <time>2022-09-30T14:07:53Z</time>
      </trkpt>
      <trkpt lat="47.06488" lon="7.13596">
        <ele>433.1</ele>
        <time>2022-09-30T14:07:54Z</time>
      </trkpt>
      <trkpt lat="47.06484" lon="7.13592">
        <ele>433.1</ele>
        <time>2022-09-30T14:07:55Z</time>
      </trkpt>
      <trkpt lat="47.06482" lon="7.13587">
        <ele>433.1</ele>
        <time>2022-09-30T14:07:56Z</time>
      </trkpt>
      <trkpt lat="47.0648" lon="7.13585">
        <ele>433</ele>
        <time>2022-09-30T14:07:57Z</time>
      </trkpt>
      <trkpt lat="47.06477" lon="7.13581">
        <ele>433</ele>
        <time>2022-09-30T14:07:58Z</time>
      </trkpt>
      <trkpt lat="47.06473" lon="7.13575">
        <ele>433</ele>
        <time>2022-09-30T14:07:59Z</time>
      </trkpt>
      <trkpt lat="47.06469" lon="7.13571">
        <ele>433</ele>
        <time>2022-09-30T14:08:00Z</time>
      </trkpt>
      <trkpt lat="47.06466" lon="7.13567">
        <ele>433</ele>
        <time>2022-09-30T14:08:01Z</time>
      </trkpt>
      <trkpt lat="47.06463" lon="7.13563">
        <ele>433</ele>
        <time>2022-09-30T14:08:02Z</time>
      </trkpt>
      <trkpt lat="47.06461" lon="7.13558">
        <ele>433</ele>
        <time>2022-09-30T14:08:03Z</time>
      </trkpt>
      <trkpt lat="47.06458" lon="7.13553">
        <ele>433</ele>
        <time>2022-09-30T14:08:04Z</time>
      </trkpt>
      <trkpt lat="47.06453" lon="7.1355">
        <ele>432.9</ele>
        <time>2022-09-30T14:08:05Z</time>
      </trkpt>
      <trkpt lat="47.0645" lon="7.13545">
        <ele>432.9</ele>
        <time>2022-09-30T14:08:06Z</time>
      </trkpt>
      <trkpt lat="47.06447" lon="7.13541">
        <ele>432.9</ele>
        <time>2022-09-30T14:08:07Z</time>
      </trkpt>
      <trkpt lat="47.06444" lon="7.13538">
        <ele>432.9</ele>
        <time>2022-09-30T14:08:08Z</time>
      </trkpt>
      <trkpt lat="47.06441" lon="7.13535">
        <ele>432.9</ele>
        <time>2022-09-30T14:08:09Z</time>
      </trkpt>
      <trkpt lat="47.06438" lon="7.1353">
        <ele>432.8</ele>
        <time>2022-09-30T14:08:10Z</time>
      </trkpt>
      <trkpt lat="47.06434" lon="7.13525">
        <ele>432.8</ele>
        <time>2022-09-30T14:08:11Z</time>
      </trkpt>
      <trkpt lat="47.06431" lon="7.13522">
        <ele>432.8</ele>
        <time>2022-09-30T14:08:12Z</time>
      </trkpt>
      <trkpt lat="47.06428" lon="7.13518">
        <ele>432.8</ele>
        <time>2022-09-30T14:08:13Z</time>
      </trkpt>
      <trkpt lat="47.06424" lon="7.13512">
        <ele>432.7</ele>
        <time>2022-09-30T14:08:14Z</time>
      </trkpt>
      <trkpt lat="47.0642" lon="7.13508">
        <ele>432.7</ele>
        <time>2022-09-30T14:08:15Z</time>
      </trkpt>
      <trkpt lat="47.06416" lon="7.13502">
        <ele>432.7</ele>
        <time>2022-09-30T14:08:16Z</time>
      </trkpt>
      <trkpt lat="47.06413" lon="7.13499">
        <ele>432.7</ele>
        <time>2022-09-30T14:08:17Z</time>
      </trkpt>
      <trkpt lat="47.06411" lon="7.13494">
        <ele>432.7</ele>
        <time>2022-09-30T14:08:18Z</time>
      </trkpt>
      <trkpt lat="47.06409" lon="7.1349">
        <ele>432.7</ele>
        <time>2022-09-30T14:08:19Z</time>
      </trkpt>
      <trkpt lat="47.06406" lon="7.13487">
        <ele>432.7</ele>
        <time>2022-09-30T14:08:20Z</time>
      </trkpt>
      <trkpt lat="47.06402" lon="7.13482">
        <ele>432.6</ele>
        <time>2022-09-30T14:08:21Z</time>
      </trkpt>
      <trkpt lat="47.06399" lon="7.13477">
        <ele>432.6</ele>
        <time>2022-09-30T14:08:22Z</time>
      </trkpt>
      <trkpt lat="47.06395" lon="7.13473">
        <ele>432.7</ele>
        <time>2022-09-30T14:08:23Z</time>
      </trkpt>
      <trkpt lat="47.06392" lon="7.13469">
        <ele>432.7</ele>
        <time>2022-09-30T14:08:24Z</time>
      </trkpt>
      <trkpt lat="47.06388" lon="7.13464">
        <ele>432.7</ele>
        <time>2022-09-30T14:08:25Z</time>
      </trkpt>
      <trkpt lat="47.06384" lon="7.1346">
        <ele>432.7</ele>
        <time>2022-09-30T14:08:26Z</time>
      </trkpt>
      <trkpt lat="47.06382" lon="7.13456">
        <ele>432.7</ele>
        <time>2022-09-30T14:08:27Z</time>
      </trkpt>
      <trkpt lat="47.06379" lon="7.13452">
        <ele>432.7</ele>
        <time>2022-09-30T14:08:28Z</time>
      </trkpt>
      <trkpt lat="47.06376" lon="7.1345">
        <ele>432.7</ele>
        <time>2022-09-30T14:08:29Z</time>
      </trkpt>
      <trkpt lat="47.06374" lon="7.13447">
        <ele>432.8</ele>
        <time>2022-09-30T14:08:30Z</time>
      </trkpt>
      <trkpt lat="47.06371" lon="7.13444">
        <ele>432.8</ele>
        <time>2022-09-30T14:08:31Z</time>
      </trkpt>
      <trkpt lat="47.06368" lon="7.13442">
        <ele>432.8</ele>
        <time>2022-09-30T14:08:32Z</time>
      </trkpt>
      <trkpt lat="47.06364" lon="7.13438">
        <ele>432.8</ele>
        <time>2022-09-30T14:08:33Z</time>
      </trkpt>
      <trkpt lat="47.06361" lon="7.13436">
        <ele>432.9</ele>
        <time>2022-09-30T14:08:34Z</time>
      </trkpt>
      <trkpt lat="47.06358" lon="7.13433">
        <ele>432.9</ele>
        <time>2022-09-30T14:08:35Z</time>
      </trkpt>
      <trkpt lat="47.06355" lon="7.1343">
        <ele>432.9</ele>
        <time>2022-09-30T14:08:36Z</time>
      </trkpt>
      <trkpt lat="47.06351" lon="7.13427">
        <ele>433</ele>
        <time>2022-09-30T14:08:37Z</time>
      </trkpt>
      <trkpt lat="47.06348" lon="7.13423">
        <ele>433</ele>
        <time>2022-09-30T14:08:38Z</time>
      </trkpt>
      <trkpt lat="47.06346" lon="7.13421">
        <ele>433</ele>
        <time>2022-09-30T14:08:39Z</time>
      </trkpt>
      <trkpt lat="47.06344" lon="7.13418">
        <ele>433.1</ele>
        <time>2022-09-30T14:08:40Z</time>
      </trkpt>
      <trkpt lat="47.06341" lon="7.13415">
        <ele>433.1</ele>
        <time>2022-09-30T14:08:41Z</time>
      </trkpt>
      <trkpt lat="47.06338" lon="7.13411">
        <ele>433.1</ele>
        <time>2022-09-30T14:08:42Z</time>
      </trkpt>
      <trkpt lat="47.06334" lon="7.13406">
        <ele>433.2</ele>
        <time>2022-09-30T14:08:43Z</time>
      </trkpt>
      <trkpt lat="47.06332" lon="7.13405">
        <ele>433.2</ele>
        <time>2022-09-30T14:08:44Z</time>
      </trkpt>
      <trkpt lat="47.0633" lon="7.13402">
        <ele>433.2</ele>
        <time>2022-09-30T14:08:45Z</time>
      </trkpt>
      <trkpt lat="47.06327" lon="7.13398">
        <ele>433.2</ele>
        <time>2022-09-30T14:08:46Z</time>
      </trkpt>
      <trkpt lat="47.06325" lon="7.13394">
        <ele>433.3</ele>
        <time>2022-09-30T14:08:47Z</time>
      </trkpt>
      <trkpt lat="47.06321" lon="7.1339">
        <ele>433.3</ele>
        <time>2022-09-30T14:08:48Z</time>
      </trkpt>
      <trkpt lat="47.06318" lon="7.13386">
        <ele>433.3</ele>
        <time>2022-09-30T14:08:49Z</time>
      </trkpt>
      <trkpt lat="47.06317" lon="7.13385">
        <ele>433.3</ele>
        <time>2022-09-30T14:08:50Z</time>
      </trkpt>
      <trkpt lat="47.06315" lon="7.13382">
        <ele>433.3</ele>
        <time>2022-09-30T14:08:51Z</time>
      </trkpt>
      <trkpt lat="47.06313" lon="7.13378">
        <ele>433.3</ele>
        <time>2022-09-30T14:08:52Z</time>
      </trkpt>
      <trkpt lat="47.06312" lon="7.13376">
        <ele>433.3</ele>
        <time>2022-09-30T14:08:53Z</time>
      </trkpt>
      <trkpt lat="47.06309" lon="7.1337">
        <ele>433.3</ele>
        <time>2022-09-30T14:08:54Z</time>
      </trkpt>
      <trkpt lat="47.06305" lon="7.13367">
        <ele>433.3</ele>
        <time>2022-09-30T14:08:55Z</time>
      </trkpt>
      <trkpt lat="47.06302" lon="7.13363">
        <ele>433.3</ele>
        <time>2022-09-30T14:08:56Z</time>
      </trkpt>
      <trkpt lat="47.06299" lon="7.1336">
        <ele>433.3</ele>
        <time>2022-09-30T14:08:57Z</time>
      </trkpt>
      <trkpt lat="47.06296" lon="7.13357">
        <ele>433.3</ele>
        <time>2022-09-30T14:08:58Z</time>
      </trkpt>
      <trkpt lat="47.06293" lon="7.13353">
        <ele>433.3</ele>
        <time>2022-09-30T14:08:59Z</time>
      </trkpt>
      <trkpt lat="47.06291" lon="7.13349">
        <ele>433.3</ele>
        <time>2022-09-30T14:09:00Z</time>
      </trkpt>
      <trkpt lat="47.06289" lon="7.13346">
        <ele>433.3</ele>
        <time>2022-09-30T14:09:01Z</time>
      </trkpt>
      <trkpt lat="47.06285" lon="7.13343">
        <ele>433.3</ele>
        <time>2022-09-30T14:09:02Z</time>
      </trkpt>
      <trkpt lat="47.06281" lon="7.1334">
        <ele>433.3</ele>
        <time>2022-09-30T14:09:03Z</time>
      </trkpt>
      <trkpt lat="47.06277" lon="7.13336">
        <ele>433.3</ele>
        <time>2022-09-30T14:09:04Z</time>
      </trkpt>
      <trkpt lat="47.06273" lon="7.13331">
        <ele>433.3</ele>
        <time>2022-09-30T14:09:05Z</time>
      </trkpt>
      <trkpt lat="47.06271" lon="7.13328">
        <ele>433.3</ele>
        <time>2022-09-30T14:09:06Z</time>
      </trkpt>
      <trkpt lat="47.06267" lon="7.13324">
        <ele>433.4</ele>
        <time>2022-09-30T14:09:07Z</time>
      </trkpt>
      <trkpt lat="47.06264" lon="7.13322">
        <ele>433.4</ele>
        <time>2022-09-30T14:09:08Z</time>
      </trkpt>
      <trkpt lat="47.06262" lon="7.13321">
        <ele>433.4</ele>
        <time>2022-09-30T14:09:09Z</time>
      </trkpt>
      <trkpt lat="47.06259" lon="7.1332">
        <ele>433.4</ele>
        <time>2022-09-30T14:09:10Z</time>
      </trkpt>
      <trkpt lat="47.06255" lon="7.13316">
        <ele>433.4</ele>
        <time>2022-09-30T14:09:11Z</time>
      </trkpt>
      <trkpt lat="47.06253" lon="7.13315">
        <ele>433.4</ele>
        <time>2022-09-30T14:09:12Z</time>
      </trkpt>
      <trkpt lat="47.06249" lon="7.13312">
        <ele>433.4</ele>
        <time>2022-09-30T14:09:13Z</time>
      </trkpt>
      <trkpt lat="47.06244" lon="7.13311">
        <ele>433.5</ele>
        <time>2022-09-30T14:09:14Z</time>
      </trkpt>
      <trkpt lat="47.06241" lon="7.1331">
        <ele>433.5</ele>
        <time>2022-09-30T14:09:15Z</time>
      </trkpt>
      <trkpt lat="47.06241" lon="7.13309">
        <ele>433.5</ele>
        <time>2022-09-30T14:09:16Z</time>
      </trkpt>
      <trkpt lat="47.06237" lon="7.13306">
        <ele>433.6</ele>
        <time>2022-09-30T14:09:17Z</time>
      </trkpt>
      <trkpt lat="47.06233" lon="7.13303">
        <ele>433.6</ele>
        <time>2022-09-30T14:09:18Z</time>
      </trkpt>
      <trkpt lat="47.0623" lon="7.13301">
        <ele>433.6</ele>
        <time>2022-09-30T14:09:19Z</time>
      </trkpt>
      <trkpt lat="47.06227" lon="7.13298">
        <ele>433.7</ele>
        <time>2022-09-30T14:09:20Z</time>
      </trkpt>
      <trkpt lat="47.06223" lon="7.13296">
        <ele>433.7</ele>
        <time>2022-09-30T14:09:21Z</time>
      </trkpt>
      <trkpt lat="47.0622" lon="7.13296">
        <ele>433.8</ele>
        <time>2022-09-30T14:09:22Z</time>
      </trkpt>
      <trkpt lat="47.06218" lon="7.13292">
        <ele>433.8</ele>
        <time>2022-09-30T14:09:23Z</time>
      </trkpt>
      <trkpt lat="47.06213" lon="7.13288">
        <ele>433.8</ele>
        <time>2022-09-30T14:09:24Z</time>
      </trkpt>
      <trkpt lat="47.06211" lon="7.13286">
        <ele>433.9</ele>
        <time>2022-09-30T14:09:25Z</time>
      </trkpt>
      <trkpt lat="47.06207" lon="7.13281">
        <ele>434</ele>
        <time>2022-09-30T14:09:26Z</time>
      </trkpt>
      <trkpt lat="47.06204" lon="7.13279">
        <ele>434</ele>
        <time>2022-09-30T14:09:27Z</time>
      </trkpt>
      <trkpt lat="47.06201" lon="7.13278">
        <ele>434.1</ele>
        <time>2022-09-30T14:09:28Z</time>
      </trkpt>
      <trkpt lat="47.06197" lon="7.13275">
        <ele>434.2</ele>
        <time>2022-09-30T14:09:29Z</time>
      </trkpt>
      <trkpt lat="47.06194" lon="7.13272">
        <ele>434.2</ele>
        <time>2022-09-30T14:09:30Z</time>
      </trkpt>
      <trkpt lat="47.06191" lon="7.13269">
        <ele>434.3</ele>
        <time>2022-09-30T14:09:31Z</time>
      </trkpt>
      <trkpt lat="47.06186" lon="7.13267">
        <ele>434.4</ele>
        <time>2022-09-30T14:09:32Z</time>
      </trkpt>
      <trkpt lat="47.06181" lon="7.13265">
        <ele>434.5</ele>
        <time>2022-09-30T14:09:33Z</time>
      </trkpt>
      <trkpt lat="47.06176" lon="7.13265">
        <ele>434.6</ele>
        <time>2022-09-30T14:09:34Z</time>
      </trkpt>
      <trkpt lat="47.06172" lon="7.13264">
        <ele>434.7</ele>
        <time>2022-09-30T14:09:35Z</time>
      </trkpt>
      <trkpt lat="47.06168" lon="7.13264">
        <ele>434.7</ele>
        <time>2022-09-30T14:09:36Z</time>
      </trkpt>
      <trkpt lat="47.06164" lon="7.13264">
        <ele>434.8</ele>
        <time>2022-09-30T14:09:37Z</time>
      </trkpt>
      <trkpt lat="47.06159" lon="7.13262">
        <ele>434.8</ele>
        <time>2022-09-30T14:09:38Z</time>
      </trkpt>
      <trkpt lat="47.06155" lon="7.13261">
        <ele>434.9</ele>
        <time>2022-09-30T14:09:39Z</time>
      </trkpt>
      <trkpt lat="47.06151" lon="7.1326">
        <ele>434.9</ele>
        <time>2022-09-30T14:09:40Z</time>
      </trkpt>
      <trkpt lat="47.06147" lon="7.13259">
        <ele>434.9</ele>
        <time>2022-09-30T14:09:41Z</time>
      </trkpt>
      <trkpt lat="47.06143" lon="7.13259">
        <ele>434.9</ele>
        <time>2022-09-30T14:09:42Z</time>
      </trkpt>
      <trkpt lat="47.06138" lon="7.13257">
        <ele>434.9</ele>
        <time>2022-09-30T14:09:43Z</time>
      </trkpt>
      <trkpt lat="47.06133" lon="7.13257">
        <ele>434.9</ele>
        <time>2022-09-30T14:09:44Z</time>
      </trkpt>
      <trkpt lat="47.06129" lon="7.13257">
        <ele>434.8</ele>
        <time>2022-09-30T14:09:45Z</time>
      </trkpt>
      <trkpt lat="47.06124" lon="7.13256">
        <ele>434.8</ele>
        <time>2022-09-30T14:09:46Z</time>
      </trkpt>
      <trkpt lat="47.0612" lon="7.13255">
        <ele>434.7</ele>
        <time>2022-09-30T14:09:47Z</time>
      </trkpt>
      <trkpt lat="47.06116" lon="7.13257">
        <ele>434.7</ele>
        <time>2022-09-30T14:09:48Z</time>
      </trkpt>
      <trkpt lat="47.06113" lon="7.13257">
        <ele>434.6</ele>
        <time>2022-09-30T14:09:49Z</time>
      </trkpt>
      <trkpt lat="47.06109" lon="7.13256">
        <ele>434.6</ele>
        <time>2022-09-30T14:09:50Z</time>
      </trkpt>
      <trkpt lat="47.06105" lon="7.13257">
        <ele>434.5</ele>
        <time>2022-09-30T14:09:51Z</time>
      </trkpt>
      <trkpt lat="47.06102" lon="7.13257">
        <ele>434.5</ele>
        <time>2022-09-30T14:09:52Z</time>
      </trkpt>
      <trkpt lat="47.06096" lon="7.13257">
        <ele>434.5</ele>
        <time>2022-09-30T14:09:53Z</time>
      </trkpt>
      <trkpt lat="47.06094" lon="7.13257">
        <ele>434.5</ele>
        <time>2022-09-30T14:09:54Z</time>
      </trkpt>
      <trkpt lat="47.0609" lon="7.13257">
        <ele>434.4</ele>
        <time>2022-09-30T14:09:55Z</time>
      </trkpt>
      <trkpt lat="47.06086" lon="7.13257">
        <ele>434.4</ele>
        <time>2022-09-30T14:09:56Z</time>
      </trkpt>
      <trkpt lat="47.06081" lon="7.13257">
        <ele>434.4</ele>
        <time>2022-09-30T14:09:57Z</time>
      </trkpt>
      <trkpt lat="47.06077" lon="7.13256">
        <ele>434.4</ele>
        <time>2022-09-30T14:09:58Z</time>
      </trkpt>
      <trkpt lat="47.06072" lon="7.13255">
        <ele>434.4</ele>
        <time>2022-09-30T14:09:59Z</time>
      </trkpt>
      <trkpt lat="47.06069" lon="7.13252">
        <ele>434.4</ele>
        <time>2022-09-30T14:10:00Z</time>
      </trkpt>
      <trkpt lat="47.06066" lon="7.13249">
        <ele>434.4</ele>
        <time>2022-09-30T14:10:01Z</time>
      </trkpt>
      <trkpt lat="47.06063" lon="7.13246">
        <ele>434.4</ele>
        <time>2022-09-30T14:10:02Z</time>
      </trkpt>
      <trkpt lat="47.06061" lon="7.13242">
        <ele>434.4</ele>
        <time>2022-09-30T14:10:03Z</time>
      </trkpt>
      <trkpt lat="47.0606" lon="7.13239">
        <ele>434.3</ele>
        <time>2022-09-30T14:10:04Z</time>
      </trkpt>
      <trkpt lat="47.06059" lon="7.13235">
        <ele>434.3</ele>
        <time>2022-09-30T14:10:05Z</time>
      </trkpt>
      <trkpt lat="47.06058" lon="7.13229">
        <ele>434.2</ele>
        <time>2022-09-30T14:10:06Z</time>
      </trkpt>
      <trkpt lat="47.06058" lon="7.13224">
        <ele>434.1</ele>
        <time>2022-09-30T14:10:07Z</time>
      </trkpt>
      <trkpt lat="47.06057" lon="7.13218">
        <ele>434</ele>
        <time>2022-09-30T14:10:08Z</time>
      </trkpt>
      <trkpt lat="47.06056" lon="7.13213">
        <ele>433.9</ele>
        <time>2022-09-30T14:10:09Z</time>
      </trkpt>
      <trkpt lat="47.06053" lon="7.13206">
        <ele>433.8</ele>
        <time>2022-09-30T14:10:10Z</time>
      </trkpt>
      <trkpt lat="47.06052" lon="7.132">
        <ele>433.6</ele>
        <time>2022-09-30T14:10:11Z</time>
      </trkpt>
      <trkpt lat="47.0605" lon="7.13194">
        <ele>433.5</ele>
        <time>2022-09-30T14:10:12Z</time>
      </trkpt>
      <trkpt lat="47.06048" lon="7.13187">
        <ele>433.3</ele>
        <time>2022-09-30T14:10:13Z</time>
      </trkpt>
      <trkpt lat="47.06045" lon="7.13181">
        <ele>433.2</ele>
        <time>2022-09-30T14:10:14Z</time>
      </trkpt>
      <trkpt lat="47.06043" lon="7.13176">
        <ele>433.1</ele>
        <time>2022-09-30T14:10:15Z</time>
      </trkpt>
      <trkpt lat="47.06041" lon="7.13171">
        <ele>433.1</ele>
        <time>2022-09-30T14:10:16Z</time>
      </trkpt>
      <trkpt lat="47.0604" lon="7.13167">
        <ele>433</ele>
        <time>2022-09-30T14:10:17Z</time>
      </trkpt>
      <trkpt lat="47.0604" lon="7.13161">
        <ele>433</ele>
        <time>2022-09-30T14:10:18Z</time>
      </trkpt>
      <trkpt lat="47.06038" lon="7.13154">
        <ele>432.9</ele>
        <time>2022-09-30T14:10:19Z</time>
      </trkpt>
      <trkpt lat="47.06034" lon="7.13149">
        <ele>432.8</ele>
        <time>2022-09-30T14:10:20Z</time>
      </trkpt>
      <trkpt lat="47.06032" lon="7.13141">
        <ele>432.7</ele>
        <time>2022-09-30T14:10:21Z</time>
      </trkpt>
      <trkpt lat="47.06028" lon="7.13133">
        <ele>432.7</ele>
        <time>2022-09-30T14:10:22Z</time>
      </trkpt>
      <trkpt lat="47.06027" lon="7.13126">
        <ele>432.6</ele>
        <time>2022-09-30T14:10:23Z</time>
      </trkpt>
      <trkpt lat="47.06024" lon="7.1312">
        <ele>432.6</ele>
        <time>2022-09-30T14:10:24Z</time>
      </trkpt>
      <trkpt lat="47.06022" lon="7.13113">
        <ele>432.5</ele>
        <time>2022-09-30T14:10:25Z</time>
      </trkpt>
      <trkpt lat="47.0602" lon="7.13106">
        <ele>432.5</ele>
        <time>2022-09-30T14:10:26Z</time>
      </trkpt>
      <trkpt lat="47.06018" lon="7.13101">
        <ele>432.5</ele>
        <time>2022-09-30T14:10:27Z</time>
      </trkpt>
      <trkpt lat="47.06015" lon="7.13094">
        <ele>432.5</ele>
        <time>2022-09-30T14:10:28Z</time>
      </trkpt>
      <trkpt lat="47.06013" lon="7.13088">
        <ele>432.4</ele>
        <time>2022-09-30T14:10:29Z</time>
      </trkpt>
      <trkpt lat="47.0601" lon="7.13082">
        <ele>432.4</ele>
        <time>2022-09-30T14:10:30Z</time>
      </trkpt>
      <trkpt lat="47.06006" lon="7.13075">
        <ele>432.4</ele>
        <time>2022-09-30T14:10:31Z</time>
      </trkpt>
      <trkpt lat="47.06004" lon="7.13068">
        <ele>432.4</ele>
        <time>2022-09-30T14:10:32Z</time>
      </trkpt>
      <trkpt lat="47.06001" lon="7.13064">
        <ele>432.4</ele>
        <time>2022-09-30T14:10:33Z</time>
      </trkpt>
      <trkpt lat="47.05998" lon="7.13057">
        <ele>432.4</ele>
        <time>2022-09-30T14:10:34Z</time>
      </trkpt>
      <trkpt lat="47.05995" lon="7.13051">
        <ele>432.4</ele>
        <time>2022-09-30T14:10:35Z</time>
      </trkpt>
      <trkpt lat="47.05992" lon="7.13046">
        <ele>432.4</ele>
        <time>2022-09-30T14:10:36Z</time>
      </trkpt>
      <trkpt lat="47.05989" lon="7.1304">
        <ele>432.4</ele>
        <time>2022-09-30T14:10:37Z</time>
      </trkpt>
      <trkpt lat="47.05987" lon="7.13035">
        <ele>432.4</ele>
        <time>2022-09-30T14:10:38Z</time>
      </trkpt>
      <trkpt lat="47.05985" lon="7.13029">
        <ele>432.5</ele>
        <time>2022-09-30T14:10:39Z</time>
      </trkpt>
      <trkpt lat="47.05982" lon="7.13024">
        <ele>432.5</ele>
        <time>2022-09-30T14:10:40Z</time>
      </trkpt>
      <trkpt lat="47.05979" lon="7.13017">
        <ele>432.5</ele>
        <time>2022-09-30T14:10:41Z</time>
      </trkpt>
      <trkpt lat="47.05976" lon="7.13011">
        <ele>432.5</ele>
        <time>2022-09-30T14:10:42Z</time>
      </trkpt>
      <trkpt lat="47.05974" lon="7.13005">
        <ele>432.5</ele>
        <time>2022-09-30T14:10:43Z</time>
      </trkpt>
      <trkpt lat="47.05971" lon="7.13">
        <ele>432.5</ele>
        <time>2022-09-30T14:10:44Z</time>
      </trkpt>
      <trkpt lat="47.05968" lon="7.12994">
        <ele>432.5</ele>
        <time>2022-09-30T14:10:45Z</time>
      </trkpt>
      <trkpt lat="47.05966" lon="7.12989">
        <ele>432.5</ele>
        <time>2022-09-30T14:10:46Z</time>
      </trkpt>
      <trkpt lat="47.05964" lon="7.12983">
        <ele>432.5</ele>
        <time>2022-09-30T14:10:47Z</time>
      </trkpt>
      <trkpt lat="47.05962" lon="7.12978">
        <ele>432.5</ele>
        <time>2022-09-30T14:10:48Z</time>
      </trkpt>
      <trkpt lat="47.0596" lon="7.12972">
        <ele>432.5</ele>
        <time>2022-09-30T14:10:49Z</time>
      </trkpt>
      <trkpt lat="47.05957" lon="7.12967">
        <ele>432.5</ele>
        <time>2022-09-30T14:10:50Z</time>
      </trkpt>
      <trkpt lat="47.05954" lon="7.12961">
        <ele>432.5</ele>
        <time>2022-09-30T14:10:51Z</time>
      </trkpt>
      <trkpt lat="47.05952" lon="7.12955">
        <ele>432.5</ele>
        <time>2022-09-30T14:10:52Z</time>
      </trkpt>
      <trkpt lat="47.0595" lon="7.1295">
        <ele>432.5</ele>
        <time>2022-09-30T14:10:53Z</time>
      </trkpt>
      <trkpt lat="47.05947" lon="7.12945">
        <ele>432.6</ele>
        <time>2022-09-30T14:10:54Z</time>
      </trkpt>
      <trkpt lat="47.05945" lon="7.1294">
        <ele>432.6</ele>
        <time>2022-09-30T14:10:55Z</time>
      </trkpt>
      <trkpt lat="47.05943" lon="7.12935">
        <ele>432.6</ele>
        <time>2022-09-30T14:10:56Z</time>
      </trkpt>
      <trkpt lat="47.05941" lon="7.12931">
        <ele>432.6</ele>
        <time>2022-09-30T14:10:57Z</time>
      </trkpt>
      <trkpt lat="47.05939" lon="7.12928">
        <ele>432.6</ele>
        <time>2022-09-30T14:10:58Z</time>
      </trkpt>
      <trkpt lat="47.05937" lon="7.12924">
        <ele>432.6</ele>
        <time>2022-09-30T14:10:59Z</time>
      </trkpt>
      <trkpt lat="47.05934" lon="7.12918">
        <ele>432.6</ele>
        <time>2022-09-30T14:11:00Z</time>
      </trkpt>
      <trkpt lat="47.05932" lon="7.12913">
        <ele>432.6</ele>
        <time>2022-09-30T14:11:01Z</time>
      </trkpt>
      <trkpt lat="47.0593" lon="7.12908">
        <ele>432.6</ele>
        <time>2022-09-30T14:11:02Z</time>
      </trkpt>
      <trkpt lat="47.05928" lon="7.12903">
        <ele>432.6</ele>
        <time>2022-09-30T14:11:03Z</time>
      </trkpt>
      <trkpt lat="47.05926" lon="7.12898">
        <ele>432.6</ele>
        <time>2022-09-30T14:11:04Z</time>
      </trkpt>
      <trkpt lat="47.05924" lon="7.12894">
        <ele>432.6</ele>
        <time>2022-09-30T14:11:05Z</time>
      </trkpt>
      <trkpt lat="47.05923" lon="7.12888">
        <ele>432.6</ele>
        <time>2022-09-30T14:11:06Z</time>
      </trkpt>
      <trkpt lat="47.05922" lon="7.12886">
        <ele>432.6</ele>
        <time>2022-09-30T14:11:07Z</time>
      </trkpt>
      <trkpt lat="47.05922" lon="7.12882">
        <ele>432.6</ele>
        <time>2022-09-30T14:11:08Z</time>
      </trkpt>
      <trkpt lat="47.0592" lon="7.12877">
        <ele>432.6</ele>
        <time>2022-09-30T14:11:09Z</time>
      </trkpt>
      <trkpt lat="47.05917" lon="7.12874">
        <ele>432.6</ele>
        <time>2022-09-30T14:11:10Z</time>
      </trkpt>
      <trkpt lat="47.05915" lon="7.1287">
        <ele>432.6</ele>
        <time>2022-09-30T14:11:11Z</time>
      </trkpt>
      <trkpt lat="47.05913" lon="7.12865">
        <ele>432.6</ele>
        <time>2022-09-30T14:11:12Z</time>
      </trkpt>
      <trkpt lat="47.05911" lon="7.1286">
        <ele>432.6</ele>
        <time>2022-09-30T14:11:13Z</time>
      </trkpt>
      <trkpt lat="47.05909" lon="7.12855">
        <ele>432.6</ele>
        <time>2022-09-30T14:11:14Z</time>
      </trkpt>
      <trkpt lat="47.05907" lon="7.12848">
        <ele>432.6</ele>
        <time>2022-09-30T14:11:15Z</time>
      </trkpt>
      <trkpt lat="47.05904" lon="7.12842">
        <ele>432.6</ele>
        <time>2022-09-30T14:11:16Z</time>
      </trkpt>
      <trkpt lat="47.05901" lon="7.12836">
        <ele>432.6</ele>
        <time>2022-09-30T14:11:17Z</time>
      </trkpt>
      <trkpt lat="47.05899" lon="7.1283">
        <ele>432.6</ele>
        <time>2022-09-30T14:11:18Z</time>
      </trkpt>
      <trkpt lat="47.05896" lon="7.12825">
        <ele>432.6</ele>
        <time>2022-09-30T14:11:19Z</time>
      </trkpt>
      <trkpt lat="47.05894" lon="7.1282">
        <ele>432.5</ele>
        <time>2022-09-30T14:11:20Z</time>
      </trkpt>
      <trkpt lat="47.05892" lon="7.12814">
        <ele>432.5</ele>
        <time>2022-09-30T14:11:21Z</time>
      </trkpt>
      <trkpt lat="47.05889" lon="7.12809">
        <ele>432.5</ele>
        <time>2022-09-30T14:11:22Z</time>
      </trkpt>
      <trkpt lat="47.05887" lon="7.12804">
        <ele>432.5</ele>
        <time>2022-09-30T14:11:23Z</time>
      </trkpt>
      <trkpt lat="47.05885" lon="7.12799">
        <ele>432.5</ele>
        <time>2022-09-30T14:11:24Z</time>
      </trkpt>
      <trkpt lat="47.05882" lon="7.12794">
        <ele>432.5</ele>
        <time>2022-09-30T14:11:25Z</time>
      </trkpt>
      <trkpt lat="47.0588" lon="7.12789">
        <ele>432.5</ele>
        <time>2022-09-30T14:11:26Z</time>
      </trkpt>
      <trkpt lat="47.05878" lon="7.12784">
        <ele>432.5</ele>
        <time>2022-09-30T14:11:27Z</time>
      </trkpt>
      <trkpt lat="47.05875" lon="7.12779">
        <ele>432.5</ele>
        <time>2022-09-30T14:11:28Z</time>
      </trkpt>
      <trkpt lat="47.05873" lon="7.12773">
        <ele>432.5</ele>
        <time>2022-09-30T14:11:29Z</time>
      </trkpt>
      <trkpt lat="47.05871" lon="7.12768">
        <ele>432.5</ele>
        <time>2022-09-30T14:11:30Z</time>
      </trkpt>
      <trkpt lat="47.05868" lon="7.12763">
        <ele>432.5</ele>
        <time>2022-09-30T14:11:31Z</time>
      </trkpt>
      <trkpt lat="47.05866" lon="7.12758">
        <ele>432.5</ele>
        <time>2022-09-30T14:11:32Z</time>
      </trkpt>
      <trkpt lat="47.05864" lon="7.12753">
        <ele>432.5</ele>
        <time>2022-09-30T14:11:33Z</time>
      </trkpt>
      <trkpt lat="47.05862" lon="7.12748">
        <ele>432.5</ele>
        <time>2022-09-30T14:11:34Z</time>
      </trkpt>
      <trkpt lat="47.0586" lon="7.12743">
        <ele>432.5</ele>
        <time>2022-09-30T14:11:35Z</time>
      </trkpt>
      <trkpt lat="47.05857" lon="7.12738">
        <ele>432.4</ele>
        <time>2022-09-30T14:11:36Z</time>
      </trkpt>
      <trkpt lat="47.05855" lon="7.12733">
        <ele>432.4</ele>
        <time>2022-09-30T14:11:37Z</time>
      </trkpt>
      <trkpt lat="47.05853" lon="7.12728">
        <ele>432.4</ele>
        <time>2022-09-30T14:11:38Z</time>
      </trkpt>
      <trkpt lat="47.05851" lon="7.12723">
        <ele>432.4</ele>
        <time>2022-09-30T14:11:39Z</time>
      </trkpt>
      <trkpt lat="47.05849" lon="7.12718">
        <ele>432.4</ele>
        <time>2022-09-30T14:11:40Z</time>
      </trkpt>
      <trkpt lat="47.05846" lon="7.12713">
        <ele>432.4</ele>
        <time>2022-09-30T14:11:41Z</time>
      </trkpt>
      <trkpt lat="47.05844" lon="7.12707">
        <ele>432.4</ele>
        <time>2022-09-30T14:11:42Z</time>
      </trkpt>
      <trkpt lat="47.05842" lon="7.12703">
        <ele>432.4</ele>
        <time>2022-09-30T14:11:43Z</time>
      </trkpt>
      <trkpt lat="47.0584" lon="7.12697">
        <ele>432.4</ele>
        <time>2022-09-30T14:11:44Z</time>
      </trkpt>
      <trkpt lat="47.05838" lon="7.12691">
        <ele>432.4</ele>
        <time>2022-09-30T14:11:45Z</time>
      </trkpt>
      <trkpt lat="47.05836" lon="7.12686">
        <ele>432.4</ele>
        <time>2022-09-30T14:11:46Z</time>
      </trkpt>
      <trkpt lat="47.05833" lon="7.12681">
        <ele>432.4</ele>
        <time>2022-09-30T14:11:47Z</time>
      </trkpt>
      <trkpt lat="47.0583" lon="7.12675">
        <ele>432.4</ele>
        <time>2022-09-30T14:11:48Z</time>
      </trkpt>
      <trkpt lat="47.05829" lon="7.1267">
        <ele>432.4</ele>
        <time>2022-09-30T14:11:49Z</time>
      </trkpt>
      <trkpt lat="47.05826" lon="7.12665">
        <ele>432.4</ele>
        <time>2022-09-30T14:11:50Z</time>
      </trkpt>
      <trkpt lat="47.05823" lon="7.1266">
        <ele>432.4</ele>
        <time>2022-09-30T14:11:51Z</time>
      </trkpt>
      <trkpt lat="47.05821" lon="7.12654">
        <ele>432.4</ele>
        <time>2022-09-30T14:11:52Z</time>
      </trkpt>
      <trkpt lat="47.05818" lon="7.12649">
        <ele>432.4</ele>
        <time>2022-09-30T14:11:53Z</time>
      </trkpt>
      <trkpt lat="47.05816" lon="7.12643">
        <ele>432.4</ele>
        <time>2022-09-30T14:11:54Z</time>
      </trkpt>
      <trkpt lat="47.05813" lon="7.12638">
        <ele>432.4</ele>
        <time>2022-09-30T14:11:55Z</time>
      </trkpt>
      <trkpt lat="47.05811" lon="7.12632">
        <ele>432.4</ele>
        <time>2022-09-30T14:11:56Z</time>
      </trkpt>
      <trkpt lat="47.05808" lon="7.12626">
        <ele>432.4</ele>
        <time>2022-09-30T14:11:57Z</time>
      </trkpt>
      <trkpt lat="47.05806" lon="7.12621">
        <ele>432.4</ele>
        <time>2022-09-30T14:11:58Z</time>
      </trkpt>
      <trkpt lat="47.05803" lon="7.12615">
        <ele>432.4</ele>
        <time>2022-09-30T14:11:59Z</time>
      </trkpt>
      <trkpt lat="47.05801" lon="7.12609">
        <ele>432.4</ele>
        <time>2022-09-30T14:12:00Z</time>
      </trkpt>
      <trkpt lat="47.05798" lon="7.12604">
        <ele>432.4</ele>
        <time>2022-09-30T14:12:01Z</time>
      </trkpt>
      <trkpt lat="47.05795" lon="7.12598">
        <ele>432.4</ele>
        <time>2022-09-30T14:12:02Z</time>
      </trkpt>
      <trkpt lat="47.05793" lon="7.12593">
        <ele>432.4</ele>
        <time>2022-09-30T14:12:03Z</time>
      </trkpt>
      <trkpt lat="47.0579" lon="7.12587">
        <ele>432.4</ele>
        <time>2022-09-30T14:12:04Z</time>
      </trkpt>
      <trkpt lat="47.05788" lon="7.12582">
        <ele>432.4</ele>
        <time>2022-09-30T14:12:05Z</time>
      </trkpt>
      <trkpt lat="47.05786" lon="7.12576">
        <ele>432.4</ele>
        <time>2022-09-30T14:12:06Z</time>
      </trkpt>
      <trkpt lat="47.05783" lon="7.1257">
        <ele>432.4</ele>
        <time>2022-09-30T14:12:07Z</time>
      </trkpt>
      <trkpt lat="47.0578" lon="7.12565">
        <ele>432.4</ele>
        <time>2022-09-30T14:12:08Z</time>
      </trkpt>
      <trkpt lat="47.05778" lon="7.1256">
        <ele>432.4</ele>
        <time>2022-09-30T14:12:09Z</time>
      </trkpt>
      <trkpt lat="47.05775" lon="7.12555">
        <ele>432.4</ele>
        <time>2022-09-30T14:12:10Z</time>
      </trkpt>
      <trkpt lat="47.05773" lon="7.12549">
        <ele>432.4</ele>
        <time>2022-09-30T14:12:11Z</time>
      </trkpt>
      <trkpt lat="47.05771" lon="7.12543">
        <ele>432.4</ele>
        <time>2022-09-30T14:12:12Z</time>
      </trkpt>
      <trkpt lat="47.05768" lon="7.12537">
        <ele>432.4</ele>
        <time>2022-09-30T14:12:13Z</time>
      </trkpt>
      <trkpt lat="47.05765" lon="7.12532">
        <ele>432.4</ele>
        <time>2022-09-30T14:12:14Z</time>
      </trkpt>
      <trkpt lat="47.05762" lon="7.12526">
        <ele>432.4</ele>
        <time>2022-09-30T14:12:15Z</time>
      </trkpt>
      <trkpt lat="47.0576" lon="7.1252">
        <ele>432.4</ele>
        <time>2022-09-30T14:12:16Z</time>
      </trkpt>
      <trkpt lat="47.05757" lon="7.12514">
        <ele>432.4</ele>
        <time>2022-09-30T14:12:17Z</time>
      </trkpt>
      <trkpt lat="47.05754" lon="7.12508">
        <ele>432.4</ele>
        <time>2022-09-30T14:12:18Z</time>
      </trkpt>
      <trkpt lat="47.05751" lon="7.12502">
        <ele>432.4</ele>
        <time>2022-09-30T14:12:19Z</time>
      </trkpt>
      <trkpt lat="47.05748" lon="7.12496">
        <ele>432.4</ele>
        <time>2022-09-30T14:12:20Z</time>
      </trkpt>
      <trkpt lat="47.05745" lon="7.1249">
        <ele>432.4</ele>
        <time>2022-09-30T14:12:21Z</time>
      </trkpt>
      <trkpt lat="47.05743" lon="7.12484">
        <ele>432.4</ele>
        <time>2022-09-30T14:12:22Z</time>
      </trkpt>
      <trkpt lat="47.0574" lon="7.12479">
        <ele>432.4</ele>
        <time>2022-09-30T14:12:23Z</time>
      </trkpt>
      <trkpt lat="47.05737" lon="7.12473">
        <ele>432.4</ele>
        <time>2022-09-30T14:12:24Z</time>
      </trkpt>
      <trkpt lat="47.05734" lon="7.12467">
        <ele>432.4</ele>
        <time>2022-09-30T14:12:25Z</time>
      </trkpt>
      <trkpt lat="47.05731" lon="7.12462">
        <ele>432.4</ele>
        <time>2022-09-30T14:12:26Z</time>
      </trkpt>
      <trkpt lat="47.05729" lon="7.12457">
        <ele>432.4</ele>
        <time>2022-09-30T14:12:27Z</time>
      </trkpt>
      <trkpt lat="47.05727" lon="7.12452">
        <ele>432.4</ele>
        <time>2022-09-30T14:12:28Z</time>
      </trkpt>
      <trkpt lat="47.05724" lon="7.12448">
        <ele>432.4</ele>
        <time>2022-09-30T14:12:29Z</time>
      </trkpt>
      <trkpt lat="47.05721" lon="7.12442">
        <ele>432.4</ele>
        <time>2022-09-30T14:12:30Z</time>
      </trkpt>
      <trkpt lat="47.05719" lon="7.12437">
        <ele>432.4</ele>
        <time>2022-09-30T14:12:31Z</time>
      </trkpt>
      <trkpt lat="47.05716" lon="7.12432">
        <ele>432.4</ele>
        <time>2022-09-30T14:12:32Z</time>
      </trkpt>
      <trkpt lat="47.05714" lon="7.12427">
        <ele>432.4</ele>
        <time>2022-09-30T14:12:33Z</time>
      </trkpt>
      <trkpt lat="47.05712" lon="7.12421">
        <ele>432.4</ele>
        <time>2022-09-30T14:12:34Z</time>
      </trkpt>
      <trkpt lat="47.05709" lon="7.12416">
        <ele>432.4</ele>
        <time>2022-09-30T14:12:35Z</time>
      </trkpt>
      <trkpt lat="47.05706" lon="7.12411">
        <ele>432.4</ele>
        <time>2022-09-30T14:12:36Z</time>
      </trkpt>
      <trkpt lat="47.05703" lon="7.12405">
        <ele>432.4</ele>
        <time>2022-09-30T14:12:37Z</time>
      </trkpt>
      <trkpt lat="47.05701" lon="7.124">
        <ele>432.4</ele>
        <time>2022-09-30T14:12:38Z</time>
      </trkpt>
      <trkpt lat="47.05698" lon="7.12395">
        <ele>432.4</ele>
        <time>2022-09-30T14:12:39Z</time>
      </trkpt>
      <trkpt lat="47.05695" lon="7.12389">
        <ele>432.4</ele>
        <time>2022-09-30T14:12:40Z</time>
      </trkpt>
      <trkpt lat="47.05693" lon="7.12384">
        <ele>432.4</ele>
        <time>2022-09-30T14:12:41Z</time>
      </trkpt>
      <trkpt lat="47.0569" lon="7.12379">
        <ele>432.4</ele>
        <time>2022-09-30T14:12:42Z</time>
      </trkpt>
      <trkpt lat="47.05687" lon="7.12373">
        <ele>432.4</ele>
        <time>2022-09-30T14:12:43Z</time>
      </trkpt>
      <trkpt lat="47.05684" lon="7.12368">
        <ele>432.4</ele>
        <time>2022-09-30T14:12:44Z</time>
      </trkpt>
      <trkpt lat="47.05682" lon="7.12363">
        <ele>432.3</ele>
        <time>2022-09-30T14:12:45Z</time>
      </trkpt>
      <trkpt lat="47.05679" lon="7.12358">
        <ele>432.3</ele>
        <time>2022-09-30T14:12:46Z</time>
      </trkpt>
      <trkpt lat="47.05677" lon="7.12353">
        <ele>432.3</ele>
        <time>2022-09-30T14:12:47Z</time>
      </trkpt>
      <trkpt lat="47.05674" lon="7.12347">
        <ele>432.3</ele>
        <time>2022-09-30T14:12:48Z</time>
      </trkpt>
      <trkpt lat="47.05672" lon="7.12342">
        <ele>432.3</ele>
        <time>2022-09-30T14:12:49Z</time>
      </trkpt>
      <trkpt lat="47.05669" lon="7.12337">
        <ele>432.3</ele>
        <time>2022-09-30T14:12:50Z</time>
      </trkpt>
      <trkpt lat="47.05667" lon="7.12332">
        <ele>432.3</ele>
        <time>2022-09-30T14:12:51Z</time>
      </trkpt>
      <trkpt lat="47.05664" lon="7.12327">
        <ele>432.3</ele>
        <time>2022-09-30T14:12:52Z</time>
      </trkpt>
      <trkpt lat="47.05662" lon="7.12321">
        <ele>432.3</ele>
        <time>2022-09-30T14:12:53Z</time>
      </trkpt>
      <trkpt lat="47.0566" lon="7.12317">
        <ele>432.3</ele>
        <time>2022-09-30T14:12:54Z</time>
      </trkpt>
      <trkpt lat="47.05658" lon="7.12312">
        <ele>432.3</ele>
        <time>2022-09-30T14:12:55Z</time>
      </trkpt>
      <trkpt lat="47.05655" lon="7.12307">
        <ele>432.3</ele>
        <time>2022-09-30T14:12:56Z</time>
      </trkpt>
      <trkpt lat="47.05652" lon="7.12302">
        <ele>432.3</ele>
        <time>2022-09-30T14:12:57Z</time>
      </trkpt>
      <trkpt lat="47.05649" lon="7.12299">
        <ele>432.3</ele>
        <time>2022-09-30T14:12:58Z</time>
      </trkpt>
      <trkpt lat="47.05647" lon="7.12294">
        <ele>432.3</ele>
        <time>2022-09-30T14:12:59Z</time>
      </trkpt>
      <trkpt lat="47.05644" lon="7.12289">
        <ele>432.3</ele>
        <time>2022-09-30T14:13:00Z</time>
      </trkpt>
      <trkpt lat="47.05641" lon="7.12283">
        <ele>432.3</ele>
        <time>2022-09-30T14:13:01Z</time>
      </trkpt>
      <trkpt lat="47.05639" lon="7.12277">
        <ele>432.3</ele>
        <time>2022-09-30T14:13:02Z</time>
      </trkpt>
      <trkpt lat="47.05636" lon="7.12271">
        <ele>432.3</ele>
        <time>2022-09-30T14:13:03Z</time>
      </trkpt>
      <trkpt lat="47.05633" lon="7.12266">
        <ele>432.3</ele>
        <time>2022-09-30T14:13:04Z</time>
      </trkpt>
      <trkpt lat="47.0563" lon="7.1226">
        <ele>432.3</ele>
        <time>2022-09-30T14:13:05Z</time>
      </trkpt>
      <trkpt lat="47.05628" lon="7.12254">
        <ele>432.3</ele>
        <time>2022-09-30T14:13:06Z</time>
      </trkpt>
      <trkpt lat="47.05625" lon="7.12248">
        <ele>432.3</ele>
        <time>2022-09-30T14:13:07Z</time>
      </trkpt>
      <trkpt lat="47.05622" lon="7.12242">
        <ele>432.2</ele>
        <time>2022-09-30T14:13:08Z</time>
      </trkpt>
      <trkpt lat="47.05619" lon="7.12237">
        <ele>432.2</ele>
        <time>2022-09-30T14:13:09Z</time>
      </trkpt>
      <trkpt lat="47.05616" lon="7.12232">
        <ele>432.3</ele>
        <time>2022-09-30T14:13:10Z</time>
      </trkpt>
      <trkpt lat="47.05613" lon="7.12226">
        <ele>432.3</ele>
        <time>2022-09-30T14:13:11Z</time>
      </trkpt>
      <trkpt lat="47.05611" lon="7.12221">
        <ele>432.3</ele>
        <time>2022-09-30T14:13:12Z</time>
      </trkpt>
      <trkpt lat="47.05608" lon="7.12216">
        <ele>432.3</ele>
        <time>2022-09-30T14:13:13Z</time>
      </trkpt>
      <trkpt lat="47.05606" lon="7.12211">
        <ele>432.3</ele>
        <time>2022-09-30T14:13:14Z</time>
      </trkpt>
      <trkpt lat="47.05605" lon="7.12206">
        <ele>432.3</ele>
        <time>2022-09-30T14:13:15Z</time>
      </trkpt>
      <trkpt lat="47.05603" lon="7.12201">
        <ele>432.3</ele>
        <time>2022-09-30T14:13:16Z</time>
      </trkpt>
      <trkpt lat="47.05601" lon="7.12196">
        <ele>432.3</ele>
        <time>2022-09-30T14:13:17Z</time>
      </trkpt>
      <trkpt lat="47.05599" lon="7.12191">
        <ele>432.3</ele>
        <time>2022-09-30T14:13:18Z</time>
      </trkpt>
      <trkpt lat="47.05597" lon="7.12187">
        <ele>432.4</ele>
        <time>2022-09-30T14:13:19Z</time>
      </trkpt>
      <trkpt lat="47.05595" lon="7.12183">
        <ele>432.4</ele>
        <time>2022-09-30T14:13:20Z</time>
      </trkpt>
      <trkpt lat="47.05595" lon="7.12178">
        <ele>432.4</ele>
        <time>2022-09-30T14:13:21Z</time>
      </trkpt>
      <trkpt lat="47.05593" lon="7.12173">
        <ele>432.3</ele>
        <time>2022-09-30T14:13:22Z</time>
      </trkpt>
      <trkpt lat="47.0559" lon="7.12167">
        <ele>432.3</ele>
        <time>2022-09-30T14:13:23Z</time>
      </trkpt>
      <trkpt lat="47.05587" lon="7.1216">
        <ele>432.3</ele>
        <time>2022-09-30T14:13:24Z</time>
      </trkpt>
      <trkpt lat="47.05586" lon="7.12155">
        <ele>432.3</ele>
        <time>2022-09-30T14:13:25Z</time>
      </trkpt>
      <trkpt lat="47.05583" lon="7.12149">
        <ele>432.3</ele>
        <time>2022-09-30T14:13:26Z</time>
      </trkpt>
      <trkpt lat="47.0558" lon="7.12144">
        <ele>432.3</ele>
        <time>2022-09-30T14:13:27Z</time>
      </trkpt>
      <trkpt lat="47.05578" lon="7.12139">
        <ele>432.3</ele>
        <time>2022-09-30T14:13:28Z</time>
      </trkpt>
      <trkpt lat="47.05575" lon="7.12133">
        <ele>432.3</ele>
        <time>2022-09-30T14:13:29Z</time>
      </trkpt>
      <trkpt lat="47.05573" lon="7.12127">
        <ele>432.3</ele>
        <time>2022-09-30T14:13:30Z</time>
      </trkpt>
      <trkpt lat="47.0557" lon="7.12122">
        <ele>432.3</ele>
        <time>2022-09-30T14:13:31Z</time>
      </trkpt>
      <trkpt lat="47.05568" lon="7.12117">
        <ele>432.3</ele>
        <time>2022-09-30T14:13:32Z</time>
      </trkpt>
      <trkpt lat="47.05566" lon="7.12112">
        <ele>432.3</ele>
        <time>2022-09-30T14:13:33Z</time>
      </trkpt>
      <trkpt lat="47.05562" lon="7.12105">
        <ele>432.3</ele>
        <time>2022-09-30T14:13:34Z</time>
      </trkpt>
      <trkpt lat="47.0556" lon="7.121">
        <ele>432.3</ele>
        <time>2022-09-30T14:13:35Z</time>
      </trkpt>
      <trkpt lat="47.05557" lon="7.12094">
        <ele>432.3</ele>
        <time>2022-09-30T14:13:36Z</time>
      </trkpt>
      <trkpt lat="47.05555" lon="7.12089">
        <ele>432.3</ele>
        <time>2022-09-30T14:13:37Z</time>
      </trkpt>
      <trkpt lat="47.05551" lon="7.12083">
        <ele>432.3</ele>
        <time>2022-09-30T14:13:38Z</time>
      </trkpt>
      <trkpt lat="47.05548" lon="7.12078">
        <ele>432.3</ele>
        <time>2022-09-30T14:13:39Z</time>
      </trkpt>
      <trkpt lat="47.05544" lon="7.12072">
        <ele>432.3</ele>
        <time>2022-09-30T14:13:40Z</time>
      </trkpt>
      <trkpt lat="47.05542" lon="7.12068">
        <ele>432.3</ele>
        <time>2022-09-30T14:13:41Z</time>
      </trkpt>
      <trkpt lat="47.0554" lon="7.12062">
        <ele>432.3</ele>
        <time>2022-09-30T14:13:42Z</time>
      </trkpt>
      <trkpt lat="47.05537" lon="7.12056">
        <ele>432.3</ele>
        <time>2022-09-30T14:13:43Z</time>
      </trkpt>
      <trkpt lat="47.05534" lon="7.1205">
        <ele>432.3</ele>
        <time>2022-09-30T14:13:44Z</time>
      </trkpt>
      <trkpt lat="47.05531" lon="7.12045">
        <ele>432.3</ele>
        <time>2022-09-30T14:13:45Z</time>
      </trkpt>
      <trkpt lat="47.05528" lon="7.12039">
        <ele>432.3</ele>
        <time>2022-09-30T14:13:46Z</time>
      </trkpt>
      <trkpt lat="47.05526" lon="7.12033">
        <ele>432.3</ele>
        <time>2022-09-30T14:13:47Z</time>
      </trkpt>
      <trkpt lat="47.05522" lon="7.12027">
        <ele>432.3</ele>
        <time>2022-09-30T14:13:48Z</time>
      </trkpt>
      <trkpt lat="47.0552" lon="7.12021">
        <ele>432.3</ele>
        <time>2022-09-30T14:13:49Z</time>
      </trkpt>
      <trkpt lat="47.05517" lon="7.12015">
        <ele>432.3</ele>
        <time>2022-09-30T14:13:50Z</time>
      </trkpt>
      <trkpt lat="47.05514" lon="7.1201">
        <ele>432.3</ele>
        <time>2022-09-30T14:13:51Z</time>
      </trkpt>
      <trkpt lat="47.05511" lon="7.12004">
        <ele>432.2</ele>
        <time>2022-09-30T14:13:52Z</time>
      </trkpt>
      <trkpt lat="47.05508" lon="7.11998">
        <ele>432.2</ele>
        <time>2022-09-30T14:13:53Z</time>
      </trkpt>
      <trkpt lat="47.05506" lon="7.11992">
        <ele>432.2</ele>
        <time>2022-09-30T14:13:54Z</time>
      </trkpt>
      <trkpt lat="47.05503" lon="7.11987">
        <ele>432.2</ele>
        <time>2022-09-30T14:13:55Z</time>
      </trkpt>
      <trkpt lat="47.055" lon="7.11981">
        <ele>432.2</ele>
        <time>2022-09-30T14:13:56Z</time>
      </trkpt>
      <trkpt lat="47.05498" lon="7.11975">
        <ele>432.2</ele>
        <time>2022-09-30T14:13:57Z</time>
      </trkpt>
      <trkpt lat="47.05495" lon="7.1197">
        <ele>432.2</ele>
        <time>2022-09-30T14:13:58Z</time>
      </trkpt>
      <trkpt lat="47.05493" lon="7.11965">
        <ele>432.1</ele>
        <time>2022-09-30T14:13:59Z</time>
      </trkpt>
      <trkpt lat="47.0549" lon="7.1196">
        <ele>432.1</ele>
        <time>2022-09-30T14:14:00Z</time>
      </trkpt>
      <trkpt lat="47.05487" lon="7.11954">
        <ele>432.1</ele>
        <time>2022-09-30T14:14:01Z</time>
      </trkpt>
      <trkpt lat="47.05485" lon="7.11948">
        <ele>432.1</ele>
        <time>2022-09-30T14:14:02Z</time>
      </trkpt>
      <trkpt lat="47.05482" lon="7.11942">
        <ele>432.1</ele>
        <time>2022-09-30T14:14:03Z</time>
      </trkpt>
      <trkpt lat="47.05479" lon="7.11937">
        <ele>432.1</ele>
        <time>2022-09-30T14:14:04Z</time>
      </trkpt>
      <trkpt lat="47.05477" lon="7.11933">
        <ele>432.1</ele>
        <time>2022-09-30T14:14:05Z</time>
      </trkpt>
      <trkpt lat="47.05474" lon="7.11927">
        <ele>432.1</ele>
        <time>2022-09-30T14:14:06Z</time>
      </trkpt>
      <trkpt lat="47.05471" lon="7.11922">
        <ele>432</ele>
        <time>2022-09-30T14:14:07Z</time>
      </trkpt>
      <trkpt lat="47.05469" lon="7.11917">
        <ele>432</ele>
        <time>2022-09-30T14:14:08Z</time>
      </trkpt>
      <trkpt lat="47.05466" lon="7.11912">
        <ele>432</ele>
        <time>2022-09-30T14:14:09Z</time>
      </trkpt>
      <trkpt lat="47.05463" lon="7.11906">
        <ele>432</ele>
        <time>2022-09-30T14:14:10Z</time>
      </trkpt>
      <trkpt lat="47.05461" lon="7.11901">
        <ele>432</ele>
        <time>2022-09-30T14:14:11Z</time>
      </trkpt>
      <trkpt lat="47.05458" lon="7.11895">
        <ele>432</ele>
        <time>2022-09-30T14:14:12Z</time>
      </trkpt>
      <trkpt lat="47.05456" lon="7.1189">
        <ele>432</ele>
        <time>2022-09-30T14:14:13Z</time>
      </trkpt>
      <trkpt lat="47.05453" lon="7.11884">
        <ele>432</ele>
        <time>2022-09-30T14:14:14Z</time>
      </trkpt>
      <trkpt lat="47.0545" lon="7.11879">
        <ele>432</ele>
        <time>2022-09-30T14:14:15Z</time>
      </trkpt>
      <trkpt lat="47.05448" lon="7.11872">
        <ele>432</ele>
        <time>2022-09-30T14:14:16Z</time>
      </trkpt>
      <trkpt lat="47.05446" lon="7.11867">
        <ele>432</ele>
        <time>2022-09-30T14:14:17Z</time>
      </trkpt>
      <trkpt lat="47.05444" lon="7.11862">
        <ele>432</ele>
        <time>2022-09-30T14:14:18Z</time>
      </trkpt>
      <trkpt lat="47.05442" lon="7.11857">
        <ele>432</ele>
        <time>2022-09-30T14:14:19Z</time>
      </trkpt>
      <trkpt lat="47.0544" lon="7.11852">
        <ele>432</ele>
        <time>2022-09-30T14:14:20Z</time>
      </trkpt>
      <trkpt lat="47.05437" lon="7.11845">
        <ele>432</ele>
        <time>2022-09-30T14:14:21Z</time>
      </trkpt>
      <trkpt lat="47.05434" lon="7.1184">
        <ele>432</ele>
        <time>2022-09-30T14:14:22Z</time>
      </trkpt>
      <trkpt lat="47.05431" lon="7.11835">
        <ele>432</ele>
        <time>2022-09-30T14:14:23Z</time>
      </trkpt>
      <trkpt lat="47.05429" lon="7.11829">
        <ele>432</ele>
        <time>2022-09-30T14:14:24Z</time>
      </trkpt>
      <trkpt lat="47.05426" lon="7.11823">
        <ele>432</ele>
        <time>2022-09-30T14:14:25Z</time>
      </trkpt>
      <trkpt lat="47.05424" lon="7.11819">
        <ele>432</ele>
        <time>2022-09-30T14:14:26Z</time>
      </trkpt>
      <trkpt lat="47.05421" lon="7.11814">
        <ele>432</ele>
        <time>2022-09-30T14:14:27Z</time>
      </trkpt>
      <trkpt lat="47.05418" lon="7.11809">
        <ele>432</ele>
        <time>2022-09-30T14:14:28Z</time>
      </trkpt>
      <trkpt lat="47.05416" lon="7.11803">
        <ele>432</ele>
        <time>2022-09-30T14:14:29Z</time>
      </trkpt>
      <trkpt lat="47.05414" lon="7.11798">
        <ele>432</ele>
        <time>2022-09-30T14:14:30Z</time>
      </trkpt>
      <trkpt lat="47.05411" lon="7.11793">
        <ele>432</ele>
        <time>2022-09-30T14:14:31Z</time>
      </trkpt>
      <trkpt lat="47.05409" lon="7.11788">
        <ele>432</ele>
        <time>2022-09-30T14:14:32Z</time>
      </trkpt>
      <trkpt lat="47.05407" lon="7.11782">
        <ele>432.1</ele>
        <time>2022-09-30T14:14:33Z</time>
      </trkpt>
      <trkpt lat="47.05404" lon="7.11777">
        <ele>432.1</ele>
        <time>2022-09-30T14:14:34Z</time>
      </trkpt>
      <trkpt lat="47.05403" lon="7.11772">
        <ele>432.1</ele>
        <time>2022-09-30T14:14:35Z</time>
      </trkpt>
      <trkpt lat="47.054" lon="7.11767">
        <ele>432.1</ele>
        <time>2022-09-30T14:14:36Z</time>
      </trkpt>
      <trkpt lat="47.05398" lon="7.11761">
        <ele>432.1</ele>
        <time>2022-09-30T14:14:37Z</time>
      </trkpt>
      <trkpt lat="47.05395" lon="7.11757">
        <ele>432.1</ele>
        <time>2022-09-30T14:14:38Z</time>
      </trkpt>
      <trkpt lat="47.05393" lon="7.11751">
        <ele>432.1</ele>
        <time>2022-09-30T14:14:39Z</time>
      </trkpt>
      <trkpt lat="47.0539" lon="7.11746">
        <ele>432.1</ele>
        <time>2022-09-30T14:14:40Z</time>
      </trkpt>
      <trkpt lat="47.05388" lon="7.1174">
        <ele>432.1</ele>
        <time>2022-09-30T14:14:41Z</time>
      </trkpt>
      <trkpt lat="47.05385" lon="7.11735">
        <ele>432</ele>
        <time>2022-09-30T14:14:42Z</time>
      </trkpt>
      <trkpt lat="47.05382" lon="7.1173">
        <ele>432</ele>
        <time>2022-09-30T14:14:43Z</time>
      </trkpt>
      <trkpt lat="47.05379" lon="7.11724">
        <ele>432</ele>
        <time>2022-09-30T14:14:44Z</time>
      </trkpt>
      <trkpt lat="47.05378" lon="7.11719">
        <ele>432</ele>
        <time>2022-09-30T14:14:45Z</time>
      </trkpt>
      <trkpt lat="47.05375" lon="7.11714">
        <ele>432</ele>
        <time>2022-09-30T14:14:46Z</time>
      </trkpt>
      <trkpt lat="47.05374" lon="7.11707">
        <ele>432</ele>
        <time>2022-09-30T14:14:47Z</time>
      </trkpt>
      <trkpt lat="47.05372" lon="7.11702">
        <ele>432</ele>
        <time>2022-09-30T14:14:48Z</time>
      </trkpt>
      <trkpt lat="47.05369" lon="7.11698">
        <ele>432</ele>
        <time>2022-09-30T14:14:49Z</time>
      </trkpt>
      <trkpt lat="47.05366" lon="7.11691">
        <ele>432</ele>
        <time>2022-09-30T14:14:50Z</time>
      </trkpt>
      <trkpt lat="47.05363" lon="7.11686">
        <ele>431.9</ele>
        <time>2022-09-30T14:14:51Z</time>
      </trkpt>
      <trkpt lat="47.05361" lon="7.11682">
        <ele>431.9</ele>
        <time>2022-09-30T14:14:52Z</time>
      </trkpt>
      <trkpt lat="47.05359" lon="7.11675">
        <ele>431.9</ele>
        <time>2022-09-30T14:14:53Z</time>
      </trkpt>
      <trkpt lat="47.05356" lon="7.1167">
        <ele>431.9</ele>
        <time>2022-09-30T14:14:54Z</time>
      </trkpt>
      <trkpt lat="47.05353" lon="7.11664">
        <ele>431.9</ele>
        <time>2022-09-30T14:14:55Z</time>
      </trkpt>
      <trkpt lat="47.05351" lon="7.11659">
        <ele>431.9</ele>
        <time>2022-09-30T14:14:56Z</time>
      </trkpt>
      <trkpt lat="47.05348" lon="7.11653">
        <ele>431.9</ele>
        <time>2022-09-30T14:14:57Z</time>
      </trkpt>
      <trkpt lat="47.05345" lon="7.11647">
        <ele>431.9</ele>
        <time>2022-09-30T14:14:58Z</time>
      </trkpt>
      <trkpt lat="47.05343" lon="7.11641">
        <ele>431.9</ele>
        <time>2022-09-30T14:14:59Z</time>
      </trkpt>
      <trkpt lat="47.05341" lon="7.11637">
        <ele>431.9</ele>
        <time>2022-09-30T14:15:00Z</time>
      </trkpt>
      <trkpt lat="47.05337" lon="7.11631">
        <ele>431.8</ele>
        <time>2022-09-30T14:15:01Z</time>
      </trkpt>
      <trkpt lat="47.05335" lon="7.11625">
        <ele>431.8</ele>
        <time>2022-09-30T14:15:02Z</time>
      </trkpt>
      <trkpt lat="47.05332" lon="7.11618">
        <ele>431.8</ele>
        <time>2022-09-30T14:15:03Z</time>
      </trkpt>
      <trkpt lat="47.05329" lon="7.11614">
        <ele>431.8</ele>
        <time>2022-09-30T14:15:04Z</time>
      </trkpt>
      <trkpt lat="47.05326" lon="7.11609">
        <ele>431.7</ele>
        <time>2022-09-30T14:15:05Z</time>
      </trkpt>
      <trkpt lat="47.05324" lon="7.11604">
        <ele>431.7</ele>
        <time>2022-09-30T14:15:06Z</time>
      </trkpt>
      <trkpt lat="47.05321" lon="7.11599">
        <ele>431.7</ele>
        <time>2022-09-30T14:15:07Z</time>
      </trkpt>
      <trkpt lat="47.05319" lon="7.11593">
        <ele>431.7</ele>
        <time>2022-09-30T14:15:08Z</time>
      </trkpt>
      <trkpt lat="47.05316" lon="7.11591">
        <ele>431.7</ele>
        <time>2022-09-30T14:15:09Z</time>
      </trkpt>
      <trkpt lat="47.05315" lon="7.11586">
        <ele>431.7</ele>
        <time>2022-09-30T14:15:10Z</time>
      </trkpt>
      <trkpt lat="47.05313" lon="7.11582">
        <ele>431.7</ele>
        <time>2022-09-30T14:15:11Z</time>
      </trkpt>
      <trkpt lat="47.05311" lon="7.11576">
        <ele>431.7</ele>
        <time>2022-09-30T14:15:12Z</time>
      </trkpt>
      <trkpt lat="47.05308" lon="7.11571">
        <ele>431.7</ele>
        <time>2022-09-30T14:15:13Z</time>
      </trkpt>
      <trkpt lat="47.05306" lon="7.11564">
        <ele>431.8</ele>
        <time>2022-09-30T14:15:14Z</time>
      </trkpt>
      <trkpt lat="47.05303" lon="7.11559">
        <ele>431.8</ele>
        <time>2022-09-30T14:15:15Z</time>
      </trkpt>
      <trkpt lat="47.05301" lon="7.11554">
        <ele>431.8</ele>
        <time>2022-09-30T14:15:16Z</time>
      </trkpt>
      <trkpt lat="47.05298" lon="7.11549">
        <ele>431.7</ele>
        <time>2022-09-30T14:15:17Z</time>
      </trkpt>
      <trkpt lat="47.05295" lon="7.11543">
        <ele>431.7</ele>
        <time>2022-09-30T14:15:18Z</time>
      </trkpt>
      <trkpt lat="47.05293" lon="7.11536">
        <ele>431.7</ele>
        <time>2022-09-30T14:15:19Z</time>
      </trkpt>
      <trkpt lat="47.0529" lon="7.11531">
        <ele>431.7</ele>
        <time>2022-09-30T14:15:20Z</time>
      </trkpt>
      <trkpt lat="47.05288" lon="7.11525">
        <ele>431.7</ele>
        <time>2022-09-30T14:15:21Z</time>
      </trkpt>
      <trkpt lat="47.05286" lon="7.1152">
        <ele>431.7</ele>
        <time>2022-09-30T14:15:22Z</time>
      </trkpt>
      <trkpt lat="47.05283" lon="7.11515">
        <ele>431.7</ele>
        <time>2022-09-30T14:15:23Z</time>
      </trkpt>
      <trkpt lat="47.0528" lon="7.11509">
        <ele>431.7</ele>
        <time>2022-09-30T14:15:24Z</time>
      </trkpt>
      <trkpt lat="47.05277" lon="7.11503">
        <ele>431.7</ele>
        <time>2022-09-30T14:15:25Z</time>
      </trkpt>
      <trkpt lat="47.05275" lon="7.11497">
        <ele>431.7</ele>
        <time>2022-09-30T14:15:26Z</time>
      </trkpt>
      <trkpt lat="47.05272" lon="7.11493">
        <ele>431.7</ele>
        <time>2022-09-30T14:15:27Z</time>
      </trkpt>
      <trkpt lat="47.05269" lon="7.11487">
        <ele>431.7</ele>
        <time>2022-09-30T14:15:28Z</time>
      </trkpt>
      <trkpt lat="47.05267" lon="7.11481">
        <ele>431.7</ele>
        <time>2022-09-30T14:15:29Z</time>
      </trkpt>
      <trkpt lat="47.05264" lon="7.11476">
        <ele>431.7</ele>
        <time>2022-09-30T14:15:30Z</time>
      </trkpt>
      <trkpt lat="47.05261" lon="7.11471">
        <ele>431.7</ele>
        <time>2022-09-30T14:15:31Z</time>
      </trkpt>
      <trkpt lat="47.05259" lon="7.11465">
        <ele>431.7</ele>
        <time>2022-09-30T14:15:32Z</time>
      </trkpt>
      <trkpt lat="47.05257" lon="7.1146">
        <ele>431.8</ele>
        <time>2022-09-30T14:15:33Z</time>
      </trkpt>
      <trkpt lat="47.05255" lon="7.11454">
        <ele>431.8</ele>
        <time>2022-09-30T14:15:34Z</time>
      </trkpt>
      <trkpt lat="47.05252" lon="7.11448">
        <ele>431.8</ele>
        <time>2022-09-30T14:15:35Z</time>
      </trkpt>
      <trkpt lat="47.05249" lon="7.11443">
        <ele>431.8</ele>
        <time>2022-09-30T14:15:36Z</time>
      </trkpt>
      <trkpt lat="47.05247" lon="7.11438">
        <ele>431.8</ele>
        <time>2022-09-30T14:15:37Z</time>
      </trkpt>
      <trkpt lat="47.05245" lon="7.11432">
        <ele>431.8</ele>
        <time>2022-09-30T14:15:38Z</time>
      </trkpt>
      <trkpt lat="47.05242" lon="7.11426">
        <ele>431.8</ele>
        <time>2022-09-30T14:15:39Z</time>
      </trkpt>
      <trkpt lat="47.05239" lon="7.1142">
        <ele>431.8</ele>
        <time>2022-09-30T14:15:40Z</time>
      </trkpt>
      <trkpt lat="47.05237" lon="7.11415">
        <ele>431.8</ele>
        <time>2022-09-30T14:15:41Z</time>
      </trkpt>
      <trkpt lat="47.05234" lon="7.11409">
        <ele>431.8</ele>
        <time>2022-09-30T14:15:42Z</time>
      </trkpt>
      <trkpt lat="47.05231" lon="7.11403">
        <ele>431.8</ele>
        <time>2022-09-30T14:15:43Z</time>
      </trkpt>
      <trkpt lat="47.05229" lon="7.11397">
        <ele>431.8</ele>
        <time>2022-09-30T14:15:44Z</time>
      </trkpt>
      <trkpt lat="47.05226" lon="7.11392">
        <ele>431.8</ele>
        <time>2022-09-30T14:15:45Z</time>
      </trkpt>
      <trkpt lat="47.05224" lon="7.11387">
        <ele>431.8</ele>
        <time>2022-09-30T14:15:46Z</time>
      </trkpt>
      <trkpt lat="47.05222" lon="7.11381">
        <ele>431.8</ele>
        <time>2022-09-30T14:15:47Z</time>
      </trkpt>
      <trkpt lat="47.05218" lon="7.11374">
        <ele>431.8</ele>
        <time>2022-09-30T14:15:48Z</time>
      </trkpt>
      <trkpt lat="47.05216" lon="7.11368">
        <ele>431.8</ele>
        <time>2022-09-30T14:15:49Z</time>
      </trkpt>
      <trkpt lat="47.05214" lon="7.11363">
        <ele>431.8</ele>
        <time>2022-09-30T14:15:50Z</time>
      </trkpt>
      <trkpt lat="47.05211" lon="7.11357">
        <ele>431.8</ele>
        <time>2022-09-30T14:15:51Z</time>
      </trkpt>
      <trkpt lat="47.05208" lon="7.11352">
        <ele>431.8</ele>
        <time>2022-09-30T14:15:52Z</time>
      </trkpt>
      <trkpt lat="47.05205" lon="7.11347">
        <ele>431.8</ele>
        <time>2022-09-30T14:15:53Z</time>
      </trkpt>
      <trkpt lat="47.05202" lon="7.1134">
        <ele>431.8</ele>
        <time>2022-09-30T14:15:54Z</time>
      </trkpt>
      <trkpt lat="47.05199" lon="7.11335">
        <ele>431.8</ele>
        <time>2022-09-30T14:15:55Z</time>
      </trkpt>
      <trkpt lat="47.05197" lon="7.11329">
        <ele>431.8</ele>
        <time>2022-09-30T14:15:56Z</time>
      </trkpt>
      <trkpt lat="47.05194" lon="7.11323">
        <ele>431.8</ele>
        <time>2022-09-30T14:15:57Z</time>
      </trkpt>
      <trkpt lat="47.05192" lon="7.11319">
        <ele>431.8</ele>
        <time>2022-09-30T14:15:58Z</time>
      </trkpt>
      <trkpt lat="47.05189" lon="7.11313">
        <ele>431.8</ele>
        <time>2022-09-30T14:15:59Z</time>
      </trkpt>
      <trkpt lat="47.05186" lon="7.11307">
        <ele>431.8</ele>
        <time>2022-09-30T14:16:00Z</time>
      </trkpt>
      <trkpt lat="47.05183" lon="7.11301">
        <ele>431.8</ele>
        <time>2022-09-30T14:16:01Z</time>
      </trkpt>
      <trkpt lat="47.05181" lon="7.11296">
        <ele>431.8</ele>
        <time>2022-09-30T14:16:02Z</time>
      </trkpt>
      <trkpt lat="47.05178" lon="7.1129">
        <ele>431.8</ele>
        <time>2022-09-30T14:16:03Z</time>
      </trkpt>
      <trkpt lat="47.05176" lon="7.11284">
        <ele>431.8</ele>
        <time>2022-09-30T14:16:04Z</time>
      </trkpt>
      <trkpt lat="47.05173" lon="7.11279">
        <ele>431.8</ele>
        <time>2022-09-30T14:16:05Z</time>
      </trkpt>
      <trkpt lat="47.05171" lon="7.11273">
        <ele>431.8</ele>
        <time>2022-09-30T14:16:06Z</time>
      </trkpt>
      <trkpt lat="47.05168" lon="7.11268">
        <ele>431.8</ele>
        <time>2022-09-30T14:16:07Z</time>
      </trkpt>
      <trkpt lat="47.05165" lon="7.11263">
        <ele>431.8</ele>
        <time>2022-09-30T14:16:08Z</time>
      </trkpt>
      <trkpt lat="47.05162" lon="7.11257">
        <ele>431.8</ele>
        <time>2022-09-30T14:16:09Z</time>
      </trkpt>
      <trkpt lat="47.05161" lon="7.11253">
        <ele>431.8</ele>
        <time>2022-09-30T14:16:10Z</time>
      </trkpt>
      <trkpt lat="47.05159" lon="7.11247">
        <ele>431.8</ele>
        <time>2022-09-30T14:16:11Z</time>
      </trkpt>
      <trkpt lat="47.05158" lon="7.11242">
        <ele>431.8</ele>
        <time>2022-09-30T14:16:12Z</time>
      </trkpt>
      <trkpt lat="47.05156" lon="7.11236">
        <ele>431.8</ele>
        <time>2022-09-30T14:16:13Z</time>
      </trkpt>
      <trkpt lat="47.05155" lon="7.1123">
        <ele>431.8</ele>
        <time>2022-09-30T14:16:14Z</time>
      </trkpt>
      <trkpt lat="47.05154" lon="7.11225">
        <ele>431.8</ele>
        <time>2022-09-30T14:16:15Z</time>
      </trkpt>
      <trkpt lat="47.05152" lon="7.11219">
        <ele>431.8</ele>
        <time>2022-09-30T14:16:16Z</time>
      </trkpt>
      <trkpt lat="47.0515" lon="7.11214">
        <ele>431.8</ele>
        <time>2022-09-30T14:16:17Z</time>
      </trkpt>
      <trkpt lat="47.05149" lon="7.11209">
        <ele>431.8</ele>
        <time>2022-09-30T14:16:18Z</time>
      </trkpt>
      <trkpt lat="47.05146" lon="7.11202">
        <ele>431.8</ele>
        <time>2022-09-30T14:16:19Z</time>
      </trkpt>
      <trkpt lat="47.05144" lon="7.11198">
        <ele>431.8</ele>
        <time>2022-09-30T14:16:20Z</time>
      </trkpt>
      <trkpt lat="47.05142" lon="7.11192">
        <ele>431.8</ele>
        <time>2022-09-30T14:16:21Z</time>
      </trkpt>
      <trkpt lat="47.05139" lon="7.11187">
        <ele>431.8</ele>
        <time>2022-09-30T14:16:22Z</time>
      </trkpt>
      <trkpt lat="47.05137" lon="7.11183">
        <ele>431.8</ele>
        <time>2022-09-30T14:16:23Z</time>
      </trkpt>
      <trkpt lat="47.05135" lon="7.11177">
        <ele>431.8</ele>
        <time>2022-09-30T14:16:24Z</time>
      </trkpt>
      <trkpt lat="47.05133" lon="7.11172">
        <ele>431.8</ele>
        <time>2022-09-30T14:16:25Z</time>
      </trkpt>
      <trkpt lat="47.05129" lon="7.11168">
        <ele>431.8</ele>
        <time>2022-09-30T14:16:26Z</time>
      </trkpt>
      <trkpt lat="47.05127" lon="7.11163">
        <ele>431.8</ele>
        <time>2022-09-30T14:16:27Z</time>
      </trkpt>
      <trkpt lat="47.05126" lon="7.11159">
        <ele>431.8</ele>
        <time>2022-09-30T14:16:28Z</time>
      </trkpt>
      <trkpt lat="47.05124" lon="7.11154">
        <ele>431.8</ele>
        <time>2022-09-30T14:16:29Z</time>
      </trkpt>
      <trkpt lat="47.05121" lon="7.11148">
        <ele>431.8</ele>
        <time>2022-09-30T14:16:30Z</time>
      </trkpt>
      <trkpt lat="47.05118" lon="7.11142">
        <ele>431.8</ele>
        <time>2022-09-30T14:16:31Z</time>
      </trkpt>
      <trkpt lat="47.05115" lon="7.11136">
        <ele>431.8</ele>
        <time>2022-09-30T14:16:32Z</time>
      </trkpt>
      <trkpt lat="47.05113" lon="7.11131">
        <ele>431.8</ele>
        <time>2022-09-30T14:16:33Z</time>
      </trkpt>
      <trkpt lat="47.0511" lon="7.11126">
        <ele>431.8</ele>
        <time>2022-09-30T14:16:34Z</time>
      </trkpt>
      <trkpt lat="47.05108" lon="7.1112">
        <ele>431.8</ele>
        <time>2022-09-30T14:16:35Z</time>
      </trkpt>
      <trkpt lat="47.05106" lon="7.11115">
        <ele>431.8</ele>
        <time>2022-09-30T14:16:36Z</time>
      </trkpt>
      <trkpt lat="47.05103" lon="7.11109">
        <ele>431.8</ele>
        <time>2022-09-30T14:16:37Z</time>
      </trkpt>
      <trkpt lat="47.051" lon="7.11103">
        <ele>431.8</ele>
        <time>2022-09-30T14:16:38Z</time>
      </trkpt>
      <trkpt lat="47.05098" lon="7.11099">
        <ele>431.7</ele>
        <time>2022-09-30T14:16:39Z</time>
      </trkpt>
      <trkpt lat="47.05095" lon="7.11093">
        <ele>431.7</ele>
        <time>2022-09-30T14:16:40Z</time>
      </trkpt>
      <trkpt lat="47.05092" lon="7.11088">
        <ele>431.7</ele>
        <time>2022-09-30T14:16:41Z</time>
      </trkpt>
      <trkpt lat="47.05089" lon="7.11082">
        <ele>431.7</ele>
        <time>2022-09-30T14:16:42Z</time>
      </trkpt>
      <trkpt lat="47.05087" lon="7.11078">
        <ele>431.7</ele>
        <time>2022-09-30T14:16:43Z</time>
      </trkpt>
      <trkpt lat="47.05084" lon="7.11072">
        <ele>431.7</ele>
        <time>2022-09-30T14:16:44Z</time>
      </trkpt>
      <trkpt lat="47.05082" lon="7.11067">
        <ele>431.7</ele>
        <time>2022-09-30T14:16:45Z</time>
      </trkpt>
      <trkpt lat="47.0508" lon="7.11062">
        <ele>431.7</ele>
        <time>2022-09-30T14:16:46Z</time>
      </trkpt>
      <trkpt lat="47.05077" lon="7.11057">
        <ele>431.7</ele>
        <time>2022-09-30T14:16:47Z</time>
      </trkpt>
      <trkpt lat="47.05075" lon="7.11052">
        <ele>431.7</ele>
        <time>2022-09-30T14:16:48Z</time>
      </trkpt>
      <trkpt lat="47.05073" lon="7.11048">
        <ele>431.7</ele>
        <time>2022-09-30T14:16:49Z</time>
      </trkpt>
      <trkpt lat="47.05072" lon="7.11042">
        <ele>431.7</ele>
        <time>2022-09-30T14:16:50Z</time>
      </trkpt>
      <trkpt lat="47.05069" lon="7.11036">
        <ele>431.7</ele>
        <time>2022-09-30T14:16:51Z</time>
      </trkpt>
      <trkpt lat="47.05066" lon="7.11029">
        <ele>431.7</ele>
        <time>2022-09-30T14:16:52Z</time>
      </trkpt>
      <trkpt lat="47.05063" lon="7.11024">
        <ele>431.7</ele>
        <time>2022-09-30T14:16:53Z</time>
      </trkpt>
      <trkpt lat="47.0506" lon="7.1102">
        <ele>431.7</ele>
        <time>2022-09-30T14:16:54Z</time>
      </trkpt>
      <trkpt lat="47.05058" lon="7.11015">
        <ele>431.7</ele>
        <time>2022-09-30T14:16:55Z</time>
      </trkpt>
      <trkpt lat="47.05056" lon="7.11008">
        <ele>431.7</ele>
        <time>2022-09-30T14:16:56Z</time>
      </trkpt>
      <trkpt lat="47.05053" lon="7.11003">
        <ele>431.7</ele>
        <time>2022-09-30T14:16:57Z</time>
      </trkpt>
      <trkpt lat="47.0505" lon="7.10998">
        <ele>431.7</ele>
        <time>2022-09-30T14:16:58Z</time>
      </trkpt>
      <trkpt lat="47.05048" lon="7.10992">
        <ele>431.7</ele>
        <time>2022-09-30T14:16:59Z</time>
      </trkpt>
      <trkpt lat="47.05045" lon="7.10988">
        <ele>431.7</ele>
        <time>2022-09-30T14:17:00Z</time>
      </trkpt>
      <trkpt lat="47.05043" lon="7.10982">
        <ele>431.7</ele>
        <time>2022-09-30T14:17:01Z</time>
      </trkpt>
      <trkpt lat="47.0504" lon="7.10977">
        <ele>431.7</ele>
        <time>2022-09-30T14:17:02Z</time>
      </trkpt>
      <trkpt lat="47.05038" lon="7.10973">
        <ele>431.7</ele>
        <time>2022-09-30T14:17:03Z</time>
      </trkpt>
      <trkpt lat="47.05037" lon="7.10967">
        <ele>431.7</ele>
        <time>2022-09-30T14:17:04Z</time>
      </trkpt>
      <trkpt lat="47.05035" lon="7.10962">
        <ele>431.8</ele>
        <time>2022-09-30T14:17:05Z</time>
      </trkpt>
      <trkpt lat="47.05032" lon="7.10958">
        <ele>431.8</ele>
        <time>2022-09-30T14:17:06Z</time>
      </trkpt>
      <trkpt lat="47.05029" lon="7.10954">
        <ele>431.8</ele>
        <time>2022-09-30T14:17:07Z</time>
      </trkpt>
      <trkpt lat="47.05028" lon="7.1095">
        <ele>431.8</ele>
        <time>2022-09-30T14:17:08Z</time>
      </trkpt>
      <trkpt lat="47.05026" lon="7.10946">
        <ele>431.8</ele>
        <time>2022-09-30T14:17:09Z</time>
      </trkpt>
      <trkpt lat="47.05024" lon="7.1094">
        <ele>431.8</ele>
        <time>2022-09-30T14:17:10Z</time>
      </trkpt>
      <trkpt lat="47.05021" lon="7.10936">
        <ele>431.8</ele>
        <time>2022-09-30T14:17:11Z</time>
      </trkpt>
      <trkpt lat="47.05019" lon="7.10931">
        <ele>431.7</ele>
        <time>2022-09-30T14:17:12Z</time>
      </trkpt>
      <trkpt lat="47.05017" lon="7.10926">
        <ele>431.7</ele>
        <time>2022-09-30T14:17:13Z</time>
      </trkpt>
      <trkpt lat="47.05014" lon="7.1092">
        <ele>431.7</ele>
        <time>2022-09-30T14:17:14Z</time>
      </trkpt>
      <trkpt lat="47.05012" lon="7.10915">
        <ele>431.7</ele>
        <time>2022-09-30T14:17:15Z</time>
      </trkpt>
      <trkpt lat="47.0501" lon="7.1091">
        <ele>431.7</ele>
        <time>2022-09-30T14:17:16Z</time>
      </trkpt>
      <trkpt lat="47.05007" lon="7.10905">
        <ele>431.7</ele>
        <time>2022-09-30T14:17:17Z</time>
      </trkpt>
      <trkpt lat="47.05005" lon="7.10901">
        <ele>431.7</ele>
        <time>2022-09-30T14:17:18Z</time>
      </trkpt>
      <trkpt lat="47.05003" lon="7.10896">
        <ele>431.7</ele>
        <time>2022-09-30T14:17:19Z</time>
      </trkpt>
      <trkpt lat="47.05001" lon="7.10891">
        <ele>431.7</ele>
        <time>2022-09-30T14:17:20Z</time>
      </trkpt>
      <trkpt lat="47.04999" lon="7.10887">
        <ele>431.7</ele>
        <time>2022-09-30T14:17:21Z</time>
      </trkpt>
      <trkpt lat="47.04997" lon="7.10884">
        <ele>431.7</ele>
        <time>2022-09-30T14:17:22Z</time>
      </trkpt>
      <trkpt lat="47.04994" lon="7.10879">
        <ele>431.8</ele>
        <time>2022-09-30T14:17:23Z</time>
      </trkpt>
      <trkpt lat="47.04993" lon="7.10877">
        <ele>431.8</ele>
        <time>2022-09-30T14:17:24Z</time>
      </trkpt>
      <trkpt lat="47.04991" lon="7.10873">
        <ele>431.8</ele>
        <time>2022-09-30T14:17:25Z</time>
      </trkpt>
      <trkpt lat="47.0499" lon="7.10872">
        <ele>431.8</ele>
        <time>2022-09-30T14:17:26Z</time>
      </trkpt>
      <trkpt lat="47.0499" lon="7.10871">
        <ele>431.8</ele>
        <time>2022-09-30T14:17:27Z</time>
      </trkpt>
      <trkpt lat="47.0499" lon="7.10871">
        <ele>431.8</ele>
        <time>2022-09-30T14:17:28Z</time>
      </trkpt>
      <trkpt lat="47.0499" lon="7.10871">
        <ele>431.8</ele>
        <time>2022-09-30T14:17:29Z</time>
      </trkpt>
      <trkpt lat="47.0499" lon="7.10871">
        <ele>431.8</ele>
        <time>2022-09-30T14:17:30Z</time>
      </trkpt>
      <trkpt lat="47.0499" lon="7.10871">
        <ele>431.8</ele>
        <time>2022-09-30T14:17:31Z</time>
      </trkpt>
      <trkpt lat="47.0499" lon="7.10871">
        <ele>431.8</ele>
        <time>2022-09-30T14:17:32Z</time>
      </trkpt>
      <trkpt lat="47.0499" lon="7.1087">
        <ele>431.8</ele>
        <time>2022-09-30T14:17:33Z</time>
      </trkpt>
      <trkpt lat="47.0499" lon="7.1087">
        <ele>431.8</ele>
        <time>2022-09-30T14:17:34Z</time>
      </trkpt>
      <trkpt lat="47.0499" lon="7.1087">
        <ele>431.8</ele>
        <time>2022-09-30T14:17:35Z</time>
      </trkpt>
      <trkpt lat="47.0499" lon="7.1087">
        <ele>431.8</ele>
        <time>2022-09-30T14:17:36Z</time>
      </trkpt>
      <trkpt lat="47.0499" lon="7.1087">
        <ele>431.8</ele>
        <time>2022-09-30T14:17:37Z</time>
      </trkpt>
      <trkpt lat="47.0498" lon="7.10853">
        <ele>431.8</ele>
        <time>2022-09-30T14:22:24Z</time>
      </trkpt>
      <trkpt lat="47.04979" lon="7.10852">
        <ele>431.8</ele>
        <time>2022-09-30T14:22:25Z</time>
      </trkpt>
      <trkpt lat="47.04979" lon="7.10851">
        <ele>431.8</ele>
        <time>2022-09-30T14:22:26Z</time>
      </trkpt>
      <trkpt lat="47.04979" lon="7.10851">
        <ele>431.8</ele>
        <time>2022-09-30T14:22:27Z</time>
      </trkpt>
      <trkpt lat="47.04979" lon="7.10851">
        <ele>431.8</ele>
        <time>2022-09-30T14:22:28Z</time>
      </trkpt>
      <trkpt lat="47.04979" lon="7.10851">
        <ele>431.8</ele>
        <time>2022-09-30T14:22:29Z</time>
      </trkpt>
      <trkpt lat="47.04978" lon="7.10852">
        <ele>431.8</ele>
        <time>2022-09-30T14:22:30Z</time>
      </trkpt>
      <trkpt lat="47.04979" lon="7.10851">
        <ele>431.8</ele>
        <time>2022-09-30T14:22:31Z</time>
      </trkpt>
      <trkpt lat="47.04979" lon="7.10851">
        <ele>431.8</ele>
        <time>2022-09-30T14:22:32Z</time>
      </trkpt>
      <trkpt lat="47.04979" lon="7.10851">
        <ele>431.8</ele>
        <time>2022-09-30T14:22:33Z</time>
      </trkpt>
      <trkpt lat="47.04979" lon="7.10851">
        <ele>431.8</ele>
        <time>2022-09-30T14:22:34Z</time>
      </trkpt>
      <trkpt lat="47.04979" lon="7.10851">
        <ele>431.8</ele>
        <time>2022-09-30T14:22:35Z</time>
      </trkpt>
      <trkpt lat="47.04455" lon="7.09916">
        <ele>433.2</ele>
        <time>2022-09-30T15:10:42Z</time>
      </trkpt>
      <trkpt lat="47.04454" lon="7.09912">
        <ele>433.3</ele>
        <time>2022-09-30T15:10:43Z</time>
      </trkpt>
      <trkpt lat="47.04453" lon="7.0991">
        <ele>433.5</ele>
        <time>2022-09-30T15:10:44Z</time>
      </trkpt>
      <trkpt lat="47.04452" lon="7.09909">
        <ele>433.5</ele>
        <time>2022-09-30T15:10:45Z</time>
      </trkpt>
      <trkpt lat="47.04452" lon="7.09908">
        <ele>433.5</ele>
        <time>2022-09-30T15:10:46Z</time>
      </trkpt>
      <trkpt lat="47.04452" lon="7.09909">
        <ele>433.5</ele>
        <time>2022-09-30T15:10:47Z</time>
      </trkpt>
      <trkpt lat="47.04452" lon="7.09909">
        <ele>433.5</ele>
        <time>2022-09-30T15:10:48Z</time>
      </trkpt>
      <trkpt lat="47.04452" lon="7.09908">
        <ele>433.5</ele>
        <time>2022-09-30T15:10:49Z</time>
      </trkpt>
      <trkpt lat="47.04452" lon="7.09911">
        <ele>433.5</ele>
        <time>2022-09-30T15:10:51Z</time>
      </trkpt>
      <trkpt lat="47.04451" lon="7.09913">
        <ele>433.5</ele>
        <time>2022-09-30T15:10:52Z</time>
      </trkpt>
      <trkpt lat="47.0445" lon="7.09914">
        <ele>433.5</ele>
        <time>2022-09-30T15:10:53Z</time>
      </trkpt>
      <trkpt lat="47.04448" lon="7.09916">
        <ele>433.5</ele>
        <time>2022-09-30T15:10:54Z</time>
      </trkpt>
      <trkpt lat="47.04446" lon="7.09918">
        <ele>433.5</ele>
        <time>2022-09-30T15:10:55Z</time>
      </trkpt>
      <trkpt lat="47.04443" lon="7.0992">
        <ele>433.5</ele>
        <time>2022-09-30T15:10:56Z</time>
      </trkpt>
      <trkpt lat="47.0444" lon="7.09921">
        <ele>433.5</ele>
        <time>2022-09-30T15:10:57Z</time>
      </trkpt>
      <trkpt lat="47.04437" lon="7.09923">
        <ele>433.5</ele>
        <time>2022-09-30T15:10:58Z</time>
      </trkpt>
      <trkpt lat="47.04435" lon="7.09927">
        <ele>433.5</ele>
        <time>2022-09-30T15:10:59Z</time>
      </trkpt>
      <trkpt lat="47.04431" lon="7.0993">
        <ele>433.5</ele>
        <time>2022-09-30T15:11:00Z</time>
      </trkpt>
      <trkpt lat="47.04428" lon="7.09931">
        <ele>433.5</ele>
        <time>2022-09-30T15:11:01Z</time>
      </trkpt>
      <trkpt lat="47.04424" lon="7.09933">
        <ele>433.5</ele>
        <time>2022-09-30T15:11:02Z</time>
      </trkpt>
      <trkpt lat="47.0442" lon="7.09935">
        <ele>433.5</ele>
        <time>2022-09-30T15:11:03Z</time>
      </trkpt>
      <trkpt lat="47.04416" lon="7.09937">
        <ele>433.5</ele>
        <time>2022-09-30T15:11:04Z</time>
      </trkpt>
      <trkpt lat="47.04413" lon="7.09939">
        <ele>433.5</ele>
        <time>2022-09-30T15:11:05Z</time>
      </trkpt>
      <trkpt lat="47.04409" lon="7.09942">
        <ele>433.5</ele>
        <time>2022-09-30T15:11:06Z</time>
      </trkpt>
      <trkpt lat="47.04406" lon="7.09946">
        <ele>433.5</ele>
        <time>2022-09-30T15:11:07Z</time>
      </trkpt>
      <trkpt lat="47.04402" lon="7.09948">
        <ele>433.5</ele>
        <time>2022-09-30T15:11:08Z</time>
      </trkpt>
      <trkpt lat="47.04398" lon="7.09951">
        <ele>433.5</ele>
        <time>2022-09-30T15:11:09Z</time>
      </trkpt>
      <trkpt lat="47.04394" lon="7.09954">
        <ele>433.5</ele>
        <time>2022-09-30T15:11:10Z</time>
      </trkpt>
      <trkpt lat="47.04391" lon="7.09957">
        <ele>433.5</ele>
        <time>2022-09-30T15:11:11Z</time>
      </trkpt>
      <trkpt lat="47.04386" lon="7.0996">
        <ele>433.5</ele>
        <time>2022-09-30T15:11:12Z</time>
      </trkpt>
      <trkpt lat="47.04383" lon="7.09964">
        <ele>433.5</ele>
        <time>2022-09-30T15:11:13Z</time>
      </trkpt>
      <trkpt lat="47.04379" lon="7.09967">
        <ele>433.5</ele>
        <time>2022-09-30T15:11:14Z</time>
      </trkpt>
      <trkpt lat="47.04375" lon="7.0997">
        <ele>433.5</ele>
        <time>2022-09-30T15:11:15Z</time>
      </trkpt>
      <trkpt lat="47.04371" lon="7.09973">
        <ele>433.5</ele>
        <time>2022-09-30T15:11:16Z</time>
      </trkpt>
      <trkpt lat="47.04367" lon="7.09976">
        <ele>433.5</ele>
        <time>2022-09-30T15:11:17Z</time>
      </trkpt>
      <trkpt lat="47.04363" lon="7.09979">
        <ele>433.5</ele>
        <time>2022-09-30T15:11:18Z</time>
      </trkpt>
      <trkpt lat="47.04359" lon="7.09983">
        <ele>433.5</ele>
        <time>2022-09-30T15:11:19Z</time>
      </trkpt>
      <trkpt lat="47.04355" lon="7.09986">
        <ele>433.5</ele>
        <time>2022-09-30T15:11:20Z</time>
      </trkpt>
      <trkpt lat="47.04351" lon="7.09989">
        <ele>433.6</ele>
        <time>2022-09-30T15:11:21Z</time>
      </trkpt>
      <trkpt lat="47.04346" lon="7.09992">
        <ele>433.6</ele>
        <time>2022-09-30T15:11:22Z</time>
      </trkpt>
      <trkpt lat="47.04342" lon="7.09995">
        <ele>433.6</ele>
        <time>2022-09-30T15:11:23Z</time>
      </trkpt>
      <trkpt lat="47.04338" lon="7.09998">
        <ele>433.6</ele>
        <time>2022-09-30T15:11:24Z</time>
      </trkpt>
      <trkpt lat="47.04333" lon="7.10001">
        <ele>433.6</ele>
        <time>2022-09-30T15:11:25Z</time>
      </trkpt>
      <trkpt lat="47.04329" lon="7.10005">
        <ele>433.6</ele>
        <time>2022-09-30T15:11:26Z</time>
      </trkpt>
      <trkpt lat="47.04325" lon="7.10008">
        <ele>433.6</ele>
        <time>2022-09-30T15:11:27Z</time>
      </trkpt>
      <trkpt lat="47.0432" lon="7.10011">
        <ele>433.6</ele>
        <time>2022-09-30T15:11:28Z</time>
      </trkpt>
      <trkpt lat="47.04315" lon="7.10013">
        <ele>433.6</ele>
        <time>2022-09-30T15:11:29Z</time>
      </trkpt>
      <trkpt lat="47.04311" lon="7.10017">
        <ele>433.6</ele>
        <time>2022-09-30T15:11:30Z</time>
      </trkpt>
      <trkpt lat="47.04306" lon="7.10019">
        <ele>433.6</ele>
        <time>2022-09-30T15:11:31Z</time>
      </trkpt>
      <trkpt lat="47.04302" lon="7.10022">
        <ele>433.6</ele>
        <time>2022-09-30T15:11:32Z</time>
      </trkpt>
      <trkpt lat="47.04297" lon="7.10023">
        <ele>433.6</ele>
        <time>2022-09-30T15:11:33Z</time>
      </trkpt>
      <trkpt lat="47.04292" lon="7.10026">
        <ele>433.6</ele>
        <time>2022-09-30T15:11:34Z</time>
      </trkpt>
      <trkpt lat="47.04288" lon="7.10028">
        <ele>433.7</ele>
        <time>2022-09-30T15:11:35Z</time>
      </trkpt>
      <trkpt lat="47.04284" lon="7.10031">
        <ele>433.7</ele>
        <time>2022-09-30T15:11:36Z</time>
      </trkpt>
      <trkpt lat="47.04279" lon="7.10035">
        <ele>433.7</ele>
        <time>2022-09-30T15:11:37Z</time>
      </trkpt>
      <trkpt lat="47.04274" lon="7.10038">
        <ele>433.7</ele>
        <time>2022-09-30T15:11:38Z</time>
      </trkpt>
      <trkpt lat="47.0427" lon="7.1004">
        <ele>433.7</ele>
        <time>2022-09-30T15:11:39Z</time>
      </trkpt>
      <trkpt lat="47.04265" lon="7.10043">
        <ele>433.7</ele>
        <time>2022-09-30T15:11:40Z</time>
      </trkpt>
      <trkpt lat="47.0426" lon="7.10045">
        <ele>433.7</ele>
        <time>2022-09-30T15:11:41Z</time>
      </trkpt>
      <trkpt lat="47.04251" lon="7.10051">
        <ele>433.7</ele>
        <time>2022-09-30T15:11:42Z</time>
      </trkpt>
      <trkpt lat="47.04246" lon="7.10054">
        <ele>433.7</ele>
        <time>2022-09-30T15:11:43Z</time>
      </trkpt>
      <trkpt lat="47.04242" lon="7.10057">
        <ele>433.8</ele>
        <time>2022-09-30T15:11:44Z</time>
      </trkpt>
      <trkpt lat="47.04238" lon="7.1006">
        <ele>433.8</ele>
        <time>2022-09-30T15:11:45Z</time>
      </trkpt>
      <trkpt lat="47.04233" lon="7.10064">
        <ele>433.8</ele>
        <time>2022-09-30T15:11:46Z</time>
      </trkpt>
      <trkpt lat="47.04228" lon="7.10067">
        <ele>433.7</ele>
        <time>2022-09-30T15:11:47Z</time>
      </trkpt>
      <trkpt lat="47.04223" lon="7.1007">
        <ele>433.7</ele>
        <time>2022-09-30T15:11:48Z</time>
      </trkpt>
      <trkpt lat="47.04218" lon="7.10073">
        <ele>433.7</ele>
        <time>2022-09-30T15:11:49Z</time>
      </trkpt>
      <trkpt lat="47.04213" lon="7.10077">
        <ele>433.7</ele>
        <time>2022-09-30T15:11:50Z</time>
      </trkpt>
      <trkpt lat="47.04209" lon="7.1008">
        <ele>433.7</ele>
        <time>2022-09-30T15:11:51Z</time>
      </trkpt>
      <trkpt lat="47.04205" lon="7.10083">
        <ele>433.7</ele>
        <time>2022-09-30T15:11:52Z</time>
      </trkpt>
      <trkpt lat="47.042" lon="7.10085">
        <ele>433.7</ele>
        <time>2022-09-30T15:11:53Z</time>
      </trkpt>
      <trkpt lat="47.04195" lon="7.10088">
        <ele>433.7</ele>
        <time>2022-09-30T15:11:54Z</time>
      </trkpt>
      <trkpt lat="47.0419" lon="7.10092">
        <ele>433.7</ele>
        <time>2022-09-30T15:11:55Z</time>
      </trkpt>
      <trkpt lat="47.04186" lon="7.10095">
        <ele>433.7</ele>
        <time>2022-09-30T15:11:56Z</time>
      </trkpt>
      <trkpt lat="47.04181" lon="7.10098">
        <ele>433.7</ele>
        <time>2022-09-30T15:11:57Z</time>
      </trkpt>
      <trkpt lat="47.04177" lon="7.10101">
        <ele>433.7</ele>
        <time>2022-09-30T15:11:58Z</time>
      </trkpt>
      <trkpt lat="47.04172" lon="7.10105">
        <ele>433.7</ele>
        <time>2022-09-30T15:11:59Z</time>
      </trkpt>
      <trkpt lat="47.04168" lon="7.10108">
        <ele>433.7</ele>
        <time>2022-09-30T15:12:00Z</time>
      </trkpt>
      <trkpt lat="47.04163" lon="7.10111">
        <ele>433.7</ele>
        <time>2022-09-30T15:12:01Z</time>
      </trkpt>
      <trkpt lat="47.04158" lon="7.10115">
        <ele>433.7</ele>
        <time>2022-09-30T15:12:02Z</time>
      </trkpt>
      <trkpt lat="47.04153" lon="7.10118">
        <ele>433.7</ele>
        <time>2022-09-30T15:12:03Z</time>
      </trkpt>
      <trkpt lat="47.04149" lon="7.10119">
        <ele>433.7</ele>
        <time>2022-09-30T15:12:04Z</time>
      </trkpt>
      <trkpt lat="47.04144" lon="7.10124">
        <ele>433.7</ele>
        <time>2022-09-30T15:12:05Z</time>
      </trkpt>
      <trkpt lat="47.04139" lon="7.10126">
        <ele>433.8</ele>
        <time>2022-09-30T15:12:06Z</time>
      </trkpt>
      <trkpt lat="47.04134" lon="7.10129">
        <ele>433.8</ele>
        <time>2022-09-30T15:12:07Z</time>
      </trkpt>
      <trkpt lat="47.04129" lon="7.10131">
        <ele>433.8</ele>
        <time>2022-09-30T15:12:08Z</time>
      </trkpt>
      <trkpt lat="47.04125" lon="7.10135">
        <ele>433.8</ele>
        <time>2022-09-30T15:12:09Z</time>
      </trkpt>
      <trkpt lat="47.04122" lon="7.10139">
        <ele>433.8</ele>
        <time>2022-09-30T15:12:10Z</time>
      </trkpt>
      <trkpt lat="47.04118" lon="7.10143">
        <ele>433.8</ele>
        <time>2022-09-30T15:12:11Z</time>
      </trkpt>
      <trkpt lat="47.04113" lon="7.10145">
        <ele>433.8</ele>
        <time>2022-09-30T15:12:12Z</time>
      </trkpt>
      <trkpt lat="47.04109" lon="7.10149">
        <ele>433.8</ele>
        <time>2022-09-30T15:12:13Z</time>
      </trkpt>
      <trkpt lat="47.04104" lon="7.10153">
        <ele>433.8</ele>
        <time>2022-09-30T15:12:14Z</time>
      </trkpt>
      <trkpt lat="47.041" lon="7.10157">
        <ele>433.8</ele>
        <time>2022-09-30T15:12:15Z</time>
      </trkpt>
      <trkpt lat="47.04096" lon="7.1016">
        <ele>433.8</ele>
        <time>2022-09-30T15:12:16Z</time>
      </trkpt>
      <trkpt lat="47.04092" lon="7.10164">
        <ele>433.8</ele>
        <time>2022-09-30T15:12:17Z</time>
      </trkpt>
      <trkpt lat="47.04087" lon="7.10167">
        <ele>433.8</ele>
        <time>2022-09-30T15:12:18Z</time>
      </trkpt>
      <trkpt lat="47.04082" lon="7.1017">
        <ele>433.8</ele>
        <time>2022-09-30T15:12:19Z</time>
      </trkpt>
      <trkpt lat="47.04077" lon="7.10175">
        <ele>433.8</ele>
        <time>2022-09-30T15:12:20Z</time>
      </trkpt>
      <trkpt lat="47.04073" lon="7.10177">
        <ele>433.8</ele>
        <time>2022-09-30T15:12:21Z</time>
      </trkpt>
      <trkpt lat="47.04068" lon="7.1018">
        <ele>433.8</ele>
        <time>2022-09-30T15:12:22Z</time>
      </trkpt>
      <trkpt lat="47.04064" lon="7.10184">
        <ele>433.8</ele>
        <time>2022-09-30T15:12:23Z</time>
      </trkpt>
      <trkpt lat="47.04061" lon="7.10189">
        <ele>433.8</ele>
        <time>2022-09-30T15:12:24Z</time>
      </trkpt>
      <trkpt lat="47.04057" lon="7.10193">
        <ele>433.8</ele>
        <time>2022-09-30T15:12:25Z</time>
      </trkpt>
      <trkpt lat="47.04052" lon="7.10197">
        <ele>433.8</ele>
        <time>2022-09-30T15:12:26Z</time>
      </trkpt>
      <trkpt lat="47.04047" lon="7.102">
        <ele>433.8</ele>
        <time>2022-09-30T15:12:27Z</time>
      </trkpt>
      <trkpt lat="47.04043" lon="7.10204">
        <ele>433.8</ele>
        <time>2022-09-30T15:12:28Z</time>
      </trkpt>
      <trkpt lat="47.04039" lon="7.10209">
        <ele>433.8</ele>
        <time>2022-09-30T15:12:29Z</time>
      </trkpt>
      <trkpt lat="47.04035" lon="7.10213">
        <ele>433.8</ele>
        <time>2022-09-30T15:12:30Z</time>
      </trkpt>
      <trkpt lat="47.04031" lon="7.10217">
        <ele>433.8</ele>
        <time>2022-09-30T15:12:31Z</time>
      </trkpt>
      <trkpt lat="47.04026" lon="7.10222">
        <ele>433.8</ele>
        <time>2022-09-30T15:12:32Z</time>
      </trkpt>
      <trkpt lat="47.04022" lon="7.10226">
        <ele>433.8</ele>
        <time>2022-09-30T15:12:33Z</time>
      </trkpt>
      <trkpt lat="47.04017" lon="7.1023">
        <ele>433.8</ele>
        <time>2022-09-30T15:12:34Z</time>
      </trkpt>
      <trkpt lat="47.04013" lon="7.10234">
        <ele>433.8</ele>
        <time>2022-09-30T15:12:35Z</time>
      </trkpt>
      <trkpt lat="47.04008" lon="7.10238">
        <ele>433.8</ele>
        <time>2022-09-30T15:12:36Z</time>
      </trkpt>
      <trkpt lat="47.04004" lon="7.10243">
        <ele>433.8</ele>
        <time>2022-09-30T15:12:37Z</time>
      </trkpt>
      <trkpt lat="47.04" lon="7.10248">
        <ele>433.8</ele>
        <time>2022-09-30T15:12:38Z</time>
      </trkpt>
      <trkpt lat="47.03995" lon="7.10252">
        <ele>433.7</ele>
        <time>2022-09-30T15:12:39Z</time>
      </trkpt>
      <trkpt lat="47.03991" lon="7.10256">
        <ele>433.7</ele>
        <time>2022-09-30T15:12:40Z</time>
      </trkpt>
      <trkpt lat="47.03986" lon="7.1026">
        <ele>433.7</ele>
        <time>2022-09-30T15:12:41Z</time>
      </trkpt>
      <trkpt lat="47.03981" lon="7.10266">
        <ele>433.7</ele>
        <time>2022-09-30T15:12:42Z</time>
      </trkpt>
      <trkpt lat="47.03978" lon="7.10269">
        <ele>433.6</ele>
        <time>2022-09-30T15:12:43Z</time>
      </trkpt>
      <trkpt lat="47.03973" lon="7.10274">
        <ele>433.6</ele>
        <time>2022-09-30T15:12:44Z</time>
      </trkpt>
      <trkpt lat="47.03968" lon="7.10278">
        <ele>433.6</ele>
        <time>2022-09-30T15:12:45Z</time>
      </trkpt>
      <trkpt lat="47.03964" lon="7.10284">
        <ele>433.7</ele>
        <time>2022-09-30T15:12:46Z</time>
      </trkpt>
      <trkpt lat="47.0396" lon="7.10288">
        <ele>433.7</ele>
        <time>2022-09-30T15:12:47Z</time>
      </trkpt>
      <trkpt lat="47.03955" lon="7.10292">
        <ele>433.7</ele>
        <time>2022-09-30T15:12:48Z</time>
      </trkpt>
      <trkpt lat="47.03951" lon="7.10296">
        <ele>433.7</ele>
        <time>2022-09-30T15:12:49Z</time>
      </trkpt>
      <trkpt lat="47.03947" lon="7.10301">
        <ele>433.8</ele>
        <time>2022-09-30T15:12:50Z</time>
      </trkpt>
      <trkpt lat="47.03942" lon="7.10306">
        <ele>433.8</ele>
        <time>2022-09-30T15:12:51Z</time>
      </trkpt>
      <trkpt lat="47.03938" lon="7.1031">
        <ele>433.8</ele>
        <time>2022-09-30T15:12:53Z</time>
      </trkpt>
      <trkpt lat="47.03934" lon="7.10315">
        <ele>433.8</ele>
        <time>2022-09-30T15:12:54Z</time>
      </trkpt>
      <trkpt lat="47.0393" lon="7.10321">
        <ele>433.8</ele>
        <time>2022-09-30T15:12:55Z</time>
      </trkpt>
      <trkpt lat="47.03926" lon="7.10326">
        <ele>433.8</ele>
        <time>2022-09-30T15:12:56Z</time>
      </trkpt>
      <trkpt lat="47.03922" lon="7.10331">
        <ele>433.8</ele>
        <time>2022-09-30T15:12:57Z</time>
      </trkpt>
      <trkpt lat="47.03919" lon="7.10337">
        <ele>433.8</ele>
        <time>2022-09-30T15:12:58Z</time>
      </trkpt>
      <trkpt lat="47.03915" lon="7.10342">
        <ele>433.8</ele>
        <time>2022-09-30T15:12:59Z</time>
      </trkpt>
      <trkpt lat="47.03911" lon="7.10348">
        <ele>433.8</ele>
        <time>2022-09-30T15:13:00Z</time>
      </trkpt>
      <trkpt lat="47.03907" lon="7.10353">
        <ele>433.8</ele>
        <time>2022-09-30T15:13:01Z</time>
      </trkpt>
      <trkpt lat="47.03899" lon="7.10363">
        <ele>433.8</ele>
        <time>2022-09-30T15:13:02Z</time>
      </trkpt>
      <trkpt lat="47.03895" lon="7.10368">
        <ele>433.8</ele>
        <time>2022-09-30T15:13:03Z</time>
      </trkpt>
      <trkpt lat="47.03891" lon="7.10373">
        <ele>433.8</ele>
        <time>2022-09-30T15:13:04Z</time>
      </trkpt>
      <trkpt lat="47.03887" lon="7.10377">
        <ele>433.8</ele>
        <time>2022-09-30T15:13:05Z</time>
      </trkpt>
      <trkpt lat="47.03883" lon="7.10383">
        <ele>433.8</ele>
        <time>2022-09-30T15:13:06Z</time>
      </trkpt>
      <trkpt lat="47.03879" lon="7.10388">
        <ele>433.8</ele>
        <time>2022-09-30T15:13:07Z</time>
      </trkpt>
      <trkpt lat="47.03875" lon="7.10393">
        <ele>433.8</ele>
        <time>2022-09-30T15:13:08Z</time>
      </trkpt>
      <trkpt lat="47.03872" lon="7.10398">
        <ele>433.8</ele>
        <time>2022-09-30T15:13:09Z</time>
      </trkpt>
      <trkpt lat="47.03868" lon="7.10403">
        <ele>433.8</ele>
        <time>2022-09-30T15:13:10Z</time>
      </trkpt>
      <trkpt lat="47.03864" lon="7.10409">
        <ele>433.8</ele>
        <time>2022-09-30T15:13:11Z</time>
      </trkpt>
      <trkpt lat="47.03861" lon="7.10414">
        <ele>433.8</ele>
        <time>2022-09-30T15:13:12Z</time>
      </trkpt>
      <trkpt lat="47.03857" lon="7.10419">
        <ele>433.8</ele>
        <time>2022-09-30T15:13:13Z</time>
      </trkpt>
      <trkpt lat="47.03853" lon="7.10425">
        <ele>433.8</ele>
        <time>2022-09-30T15:13:14Z</time>
      </trkpt>
      <trkpt lat="47.0385" lon="7.1043">
        <ele>433.8</ele>
        <time>2022-09-30T15:13:15Z</time>
      </trkpt>
      <trkpt lat="47.03846" lon="7.10436">
        <ele>433.8</ele>
        <time>2022-09-30T15:13:16Z</time>
      </trkpt>
      <trkpt lat="47.03843" lon="7.10441">
        <ele>433.8</ele>
        <time>2022-09-30T15:13:17Z</time>
      </trkpt>
      <trkpt lat="47.03839" lon="7.10447">
        <ele>433.7</ele>
        <time>2022-09-30T15:13:18Z</time>
      </trkpt>
      <trkpt lat="47.03836" lon="7.10452">
        <ele>433.7</ele>
        <time>2022-09-30T15:13:19Z</time>
      </trkpt>
      <trkpt lat="47.03833" lon="7.10457">
        <ele>433.7</ele>
        <time>2022-09-30T15:13:20Z</time>
      </trkpt>
      <trkpt lat="47.03831" lon="7.10462">
        <ele>433.7</ele>
        <time>2022-09-30T15:13:21Z</time>
      </trkpt>
      <trkpt lat="47.03828" lon="7.10467">
        <ele>433.7</ele>
        <time>2022-09-30T15:13:22Z</time>
      </trkpt>
      <trkpt lat="47.03826" lon="7.10472">
        <ele>433.7</ele>
        <time>2022-09-30T15:13:23Z</time>
      </trkpt>
      <trkpt lat="47.03823" lon="7.10476">
        <ele>433.7</ele>
        <time>2022-09-30T15:13:24Z</time>
      </trkpt>
      <trkpt lat="47.03821" lon="7.1048">
        <ele>433.7</ele>
        <time>2022-09-30T15:13:25Z</time>
      </trkpt>
      <trkpt lat="47.03818" lon="7.10484">
        <ele>433.7</ele>
        <time>2022-09-30T15:13:26Z</time>
      </trkpt>
      <trkpt lat="47.03814" lon="7.10488">
        <ele>433.7</ele>
        <time>2022-09-30T15:13:27Z</time>
      </trkpt>
      <trkpt lat="47.03811" lon="7.10494">
        <ele>433.7</ele>
        <time>2022-09-30T15:13:28Z</time>
      </trkpt>
      <trkpt lat="47.03808" lon="7.10497">
        <ele>433.6</ele>
        <time>2022-09-30T15:13:29Z</time>
      </trkpt>
      <trkpt lat="47.03806" lon="7.10504">
        <ele>433.6</ele>
        <time>2022-09-30T15:13:30Z</time>
      </trkpt>
      <trkpt lat="47.03802" lon="7.1051">
        <ele>433.6</ele>
        <time>2022-09-30T15:13:31Z</time>
      </trkpt>
      <trkpt lat="47.03799" lon="7.10515">
        <ele>433.6</ele>
        <time>2022-09-30T15:13:32Z</time>
      </trkpt>
      <trkpt lat="47.03797" lon="7.10521">
        <ele>433.6</ele>
        <time>2022-09-30T15:13:33Z</time>
      </trkpt>
      <trkpt lat="47.03793" lon="7.10528">
        <ele>433.6</ele>
        <time>2022-09-30T15:13:34Z</time>
      </trkpt>
      <trkpt lat="47.0379" lon="7.10534">
        <ele>433.6</ele>
        <time>2022-09-30T15:13:35Z</time>
      </trkpt>
      <trkpt lat="47.03787" lon="7.10541">
        <ele>433.6</ele>
        <time>2022-09-30T15:13:36Z</time>
      </trkpt>
      <trkpt lat="47.03785" lon="7.10547">
        <ele>433.6</ele>
        <time>2022-09-30T15:13:37Z</time>
      </trkpt>
      <trkpt lat="47.03782" lon="7.10553">
        <ele>433.6</ele>
        <time>2022-09-30T15:13:38Z</time>
      </trkpt>
      <trkpt lat="47.03779" lon="7.1056">
        <ele>433.6</ele>
        <time>2022-09-30T15:13:39Z</time>
      </trkpt>
      <trkpt lat="47.03775" lon="7.10564">
        <ele>433.6</ele>
        <time>2022-09-30T15:13:40Z</time>
      </trkpt>
      <trkpt lat="47.03773" lon="7.10571">
        <ele>433.6</ele>
        <time>2022-09-30T15:13:41Z</time>
      </trkpt>
      <trkpt lat="47.03769" lon="7.10578">
        <ele>433.6</ele>
        <time>2022-09-30T15:13:42Z</time>
      </trkpt>
      <trkpt lat="47.03766" lon="7.10585">
        <ele>433.6</ele>
        <time>2022-09-30T15:13:43Z</time>
      </trkpt>
      <trkpt lat="47.03763" lon="7.1059">
        <ele>433.6</ele>
        <time>2022-09-30T15:13:44Z</time>
      </trkpt>
      <trkpt lat="47.0376" lon="7.10597">
        <ele>433.6</ele>
        <time>2022-09-30T15:13:45Z</time>
      </trkpt>
      <trkpt lat="47.03757" lon="7.10603">
        <ele>433.6</ele>
        <time>2022-09-30T15:13:46Z</time>
      </trkpt>
      <trkpt lat="47.03754" lon="7.10609">
        <ele>433.6</ele>
        <time>2022-09-30T15:13:47Z</time>
      </trkpt>
      <trkpt lat="47.03752" lon="7.10616">
        <ele>433.6</ele>
        <time>2022-09-30T15:13:48Z</time>
      </trkpt>
      <trkpt lat="47.03749" lon="7.10622">
        <ele>433.6</ele>
        <time>2022-09-30T15:13:49Z</time>
      </trkpt>
      <trkpt lat="47.03746" lon="7.10628">
        <ele>433.6</ele>
        <time>2022-09-30T15:13:50Z</time>
      </trkpt>
      <trkpt lat="47.03744" lon="7.10635">
        <ele>433.6</ele>
        <time>2022-09-30T15:13:51Z</time>
      </trkpt>
      <trkpt lat="47.03741" lon="7.10641">
        <ele>433.7</ele>
        <time>2022-09-30T15:13:52Z</time>
      </trkpt>
      <trkpt lat="47.03738" lon="7.10647">
        <ele>433.7</ele>
        <time>2022-09-30T15:13:53Z</time>
      </trkpt>
      <trkpt lat="47.03735" lon="7.10653">
        <ele>433.7</ele>
        <time>2022-09-30T15:13:54Z</time>
      </trkpt>
      <trkpt lat="47.03732" lon="7.10659">
        <ele>433.7</ele>
        <time>2022-09-30T15:13:55Z</time>
      </trkpt>
      <trkpt lat="47.0373" lon="7.10665">
        <ele>433.7</ele>
        <time>2022-09-30T15:13:56Z</time>
      </trkpt>
      <trkpt lat="47.03727" lon="7.10671">
        <ele>433.7</ele>
        <time>2022-09-30T15:13:57Z</time>
      </trkpt>
      <trkpt lat="47.03724" lon="7.10678">
        <ele>433.7</ele>
        <time>2022-09-30T15:13:58Z</time>
      </trkpt>
      <trkpt lat="47.03721" lon="7.10684">
        <ele>433.7</ele>
        <time>2022-09-30T15:13:59Z</time>
      </trkpt>
      <trkpt lat="47.03719" lon="7.1069">
        <ele>433.7</ele>
        <time>2022-09-30T15:14:00Z</time>
      </trkpt>
      <trkpt lat="47.03716" lon="7.10697">
        <ele>433.8</ele>
        <time>2022-09-30T15:14:01Z</time>
      </trkpt>
      <trkpt lat="47.03714" lon="7.10702">
        <ele>433.8</ele>
        <time>2022-09-30T15:14:02Z</time>
      </trkpt>
      <trkpt lat="47.03711" lon="7.10708">
        <ele>433.8</ele>
        <time>2022-09-30T15:14:03Z</time>
      </trkpt>
      <trkpt lat="47.03708" lon="7.10714">
        <ele>433.8</ele>
        <time>2022-09-30T15:14:04Z</time>
      </trkpt>
      <trkpt lat="47.03706" lon="7.1072">
        <ele>433.8</ele>
        <time>2022-09-30T15:14:05Z</time>
      </trkpt>
      <trkpt lat="47.03703" lon="7.10726">
        <ele>433.8</ele>
        <time>2022-09-30T15:14:06Z</time>
      </trkpt>
      <trkpt lat="47.037" lon="7.10732">
        <ele>433.8</ele>
        <time>2022-09-30T15:14:07Z</time>
      </trkpt>
      <trkpt lat="47.03698" lon="7.10738">
        <ele>433.8</ele>
        <time>2022-09-30T15:14:08Z</time>
      </trkpt>
      <trkpt lat="47.03695" lon="7.10744">
        <ele>433.8</ele>
        <time>2022-09-30T15:14:09Z</time>
      </trkpt>
      <trkpt lat="47.03692" lon="7.10749">
        <ele>433.9</ele>
        <time>2022-09-30T15:14:10Z</time>
      </trkpt>
      <trkpt lat="47.03689" lon="7.10755">
        <ele>433.9</ele>
        <time>2022-09-30T15:14:11Z</time>
      </trkpt>
      <trkpt lat="47.03687" lon="7.10761">
        <ele>433.9</ele>
        <time>2022-09-30T15:14:12Z</time>
      </trkpt>
      <trkpt lat="47.03683" lon="7.10767">
        <ele>433.9</ele>
        <time>2022-09-30T15:14:13Z</time>
      </trkpt>
      <trkpt lat="47.03681" lon="7.10774">
        <ele>433.9</ele>
        <time>2022-09-30T15:14:14Z</time>
      </trkpt>
      <trkpt lat="47.03678" lon="7.1078">
        <ele>433.9</ele>
        <time>2022-09-30T15:14:15Z</time>
      </trkpt>
      <trkpt lat="47.03675" lon="7.10786">
        <ele>434</ele>
        <time>2022-09-30T15:14:16Z</time>
      </trkpt>
      <trkpt lat="47.03672" lon="7.10792">
        <ele>434</ele>
        <time>2022-09-30T15:14:17Z</time>
      </trkpt>
      <trkpt lat="47.03669" lon="7.10797">
        <ele>434</ele>
        <time>2022-09-30T15:14:18Z</time>
      </trkpt>
      <trkpt lat="47.03666" lon="7.10803">
        <ele>434</ele>
        <time>2022-09-30T15:14:19Z</time>
      </trkpt>
      <trkpt lat="47.03663" lon="7.10809">
        <ele>434</ele>
        <time>2022-09-30T15:14:20Z</time>
      </trkpt>
      <trkpt lat="47.03661" lon="7.10815">
        <ele>434</ele>
        <time>2022-09-30T15:14:21Z</time>
      </trkpt>
      <trkpt lat="47.03658" lon="7.10821">
        <ele>434</ele>
        <time>2022-09-30T15:14:22Z</time>
      </trkpt>
      <trkpt lat="47.03655" lon="7.10827">
        <ele>433.9</ele>
        <time>2022-09-30T15:14:23Z</time>
      </trkpt>
      <trkpt lat="47.03652" lon="7.10833">
        <ele>433.9</ele>
        <time>2022-09-30T15:14:24Z</time>
      </trkpt>
      <trkpt lat="47.03649" lon="7.1084">
        <ele>433.9</ele>
        <time>2022-09-30T15:14:25Z</time>
      </trkpt>
      <trkpt lat="47.03646" lon="7.10845">
        <ele>433.9</ele>
        <time>2022-09-30T15:14:26Z</time>
      </trkpt>
      <trkpt lat="47.03642" lon="7.10852">
        <ele>433.9</ele>
        <time>2022-09-30T15:14:27Z</time>
      </trkpt>
      <trkpt lat="47.03639" lon="7.10858">
        <ele>433.9</ele>
        <time>2022-09-30T15:14:28Z</time>
      </trkpt>
      <trkpt lat="47.03636" lon="7.10864">
        <ele>433.8</ele>
        <time>2022-09-30T15:14:29Z</time>
      </trkpt>
      <trkpt lat="47.03632" lon="7.1087">
        <ele>433.8</ele>
        <time>2022-09-30T15:14:30Z</time>
      </trkpt>
      <trkpt lat="47.03629" lon="7.10876">
        <ele>433.8</ele>
        <time>2022-09-30T15:14:31Z</time>
      </trkpt>
      <trkpt lat="47.03627" lon="7.10883">
        <ele>433.8</ele>
        <time>2022-09-30T15:14:32Z</time>
      </trkpt>
      <trkpt lat="47.03624" lon="7.1089">
        <ele>433.8</ele>
        <time>2022-09-30T15:14:33Z</time>
      </trkpt>
      <trkpt lat="47.03621" lon="7.10897">
        <ele>433.9</ele>
        <time>2022-09-30T15:14:34Z</time>
      </trkpt>
      <trkpt lat="47.0362" lon="7.10903">
        <ele>433.9</ele>
        <time>2022-09-30T15:14:35Z</time>
      </trkpt>
      <trkpt lat="47.03618" lon="7.1091">
        <ele>434</ele>
        <time>2022-09-30T15:14:36Z</time>
      </trkpt>
      <trkpt lat="47.03616" lon="7.10917">
        <ele>434</ele>
        <time>2022-09-30T15:14:37Z</time>
      </trkpt>
      <trkpt lat="47.03614" lon="7.10923">
        <ele>434.1</ele>
        <time>2022-09-30T15:14:38Z</time>
      </trkpt>
      <trkpt lat="47.03613" lon="7.10929">
        <ele>434.2</ele>
        <time>2022-09-30T15:14:39Z</time>
      </trkpt>
      <trkpt lat="47.03612" lon="7.10933">
        <ele>434.3</ele>
        <time>2022-09-30T15:14:40Z</time>
      </trkpt>
      <trkpt lat="47.0361" lon="7.10938">
        <ele>434.4</ele>
        <time>2022-09-30T15:14:41Z</time>
      </trkpt>
      <trkpt lat="47.03608" lon="7.10942">
        <ele>434.4</ele>
        <time>2022-09-30T15:14:42Z</time>
      </trkpt>
      <trkpt lat="47.03605" lon="7.10945">
        <ele>434.5</ele>
        <time>2022-09-30T15:14:43Z</time>
      </trkpt>
      <trkpt lat="47.03602" lon="7.10947">
        <ele>434.5</ele>
        <time>2022-09-30T15:14:44Z</time>
      </trkpt>
      <trkpt lat="47.03598" lon="7.10946">
        <ele>434.6</ele>
        <time>2022-09-30T15:14:45Z</time>
      </trkpt>
      <trkpt lat="47.03596" lon="7.10946">
        <ele>434.7</ele>
        <time>2022-09-30T15:14:46Z</time>
      </trkpt>
      <trkpt lat="47.03593" lon="7.10947">
        <ele>434.8</ele>
        <time>2022-09-30T15:14:47Z</time>
      </trkpt>
      <trkpt lat="47.03592" lon="7.10948">
        <ele>434.8</ele>
        <time>2022-09-30T15:14:48Z</time>
      </trkpt>
      <trkpt lat="47.0359" lon="7.10949">
        <ele>434.8</ele>
        <time>2022-09-30T15:14:49Z</time>
      </trkpt>
      <trkpt lat="47.0359" lon="7.10951">
        <ele>434.9</ele>
        <time>2022-09-30T15:14:50Z</time>
      </trkpt>
      <trkpt lat="47.03589" lon="7.10953">
        <ele>434.9</ele>
        <time>2022-09-30T15:14:51Z</time>
      </trkpt>
      <trkpt lat="47.03589" lon="7.10954">
        <ele>434.9</ele>
        <time>2022-09-30T15:14:52Z</time>
      </trkpt>
      <trkpt lat="47.03589" lon="7.10955">
        <ele>434.9</ele>
        <time>2022-09-30T15:14:53Z</time>
      </trkpt>
      <trkpt lat="47.03589" lon="7.10956">
        <ele>434.9</ele>
        <time>2022-09-30T15:14:54Z</time>
      </trkpt>
      <trkpt lat="47.03588" lon="7.10956">
        <ele>435</ele>
        <time>2022-09-30T15:14:55Z</time>
      </trkpt>
      <trkpt lat="47.03588" lon="7.10957">
        <ele>435</ele>
        <time>2022-09-30T15:14:56Z</time>
      </trkpt>
      <trkpt lat="47.03588" lon="7.10958">
        <ele>435</ele>
        <time>2022-09-30T15:14:57Z</time>
      </trkpt>
      <trkpt lat="47.03588" lon="7.10963">
        <ele>434.9</ele>
        <time>2022-09-30T15:14:59Z</time>
      </trkpt>
      <trkpt lat="47.03588" lon="7.10965">
        <ele>434.9</ele>
        <time>2022-09-30T15:15:00Z</time>
      </trkpt>
      <trkpt lat="47.03588" lon="7.1097">
        <ele>434.9</ele>
        <time>2022-09-30T15:15:01Z</time>
      </trkpt>
      <trkpt lat="47.03589" lon="7.10975">
        <ele>434.8</ele>
        <time>2022-09-30T15:15:02Z</time>
      </trkpt>
      <trkpt lat="47.03592" lon="7.1098">
        <ele>434.8</ele>
        <time>2022-09-30T15:15:03Z</time>
      </trkpt>
      <trkpt lat="47.03595" lon="7.10984">
        <ele>434.7</ele>
        <time>2022-09-30T15:15:04Z</time>
      </trkpt>
      <trkpt lat="47.03597" lon="7.10988">
        <ele>434.6</ele>
        <time>2022-09-30T15:15:05Z</time>
      </trkpt>
      <trkpt lat="47.036" lon="7.10993">
        <ele>434.6</ele>
        <time>2022-09-30T15:15:07Z</time>
      </trkpt>
      <trkpt lat="47.03603" lon="7.10996">
        <ele>434.5</ele>
        <time>2022-09-30T15:15:08Z</time>
      </trkpt>
      <trkpt lat="47.03606" lon="7.11002">
        <ele>434.5</ele>
        <time>2022-09-30T15:15:09Z</time>
      </trkpt>
      <trkpt lat="47.03613" lon="7.11012">
        <ele>434.3</ele>
        <time>2022-09-30T15:15:10Z</time>
      </trkpt>
      <trkpt lat="47.03616" lon="7.11017">
        <ele>434.2</ele>
        <time>2022-09-30T15:15:11Z</time>
      </trkpt>
      <trkpt lat="47.03618" lon="7.11024">
        <ele>434.2</ele>
        <time>2022-09-30T15:15:13Z</time>
      </trkpt>
      <trkpt lat="47.03621" lon="7.11032">
        <ele>434.1</ele>
        <time>2022-09-30T15:15:14Z</time>
      </trkpt>
      <trkpt lat="47.03622" lon="7.1104">
        <ele>434</ele>
        <time>2022-09-30T15:15:15Z</time>
      </trkpt>
      <trkpt lat="47.03625" lon="7.11057">
        <ele>433.9</ele>
        <time>2022-09-30T15:15:16Z</time>
      </trkpt>
      <trkpt lat="47.03625" lon="7.11064">
        <ele>433.8</ele>
        <time>2022-09-30T15:15:17Z</time>
      </trkpt>
      <trkpt lat="47.03624" lon="7.11073">
        <ele>433.7</ele>
        <time>2022-09-30T15:15:18Z</time>
      </trkpt>
      <trkpt lat="47.03623" lon="7.11081">
        <ele>433.7</ele>
        <time>2022-09-30T15:15:19Z</time>
      </trkpt>
      <trkpt lat="47.03622" lon="7.11089">
        <ele>433.6</ele>
        <time>2022-09-30T15:15:20Z</time>
      </trkpt>
      <trkpt lat="47.03621" lon="7.11098">
        <ele>433.5</ele>
        <time>2022-09-30T15:15:21Z</time>
      </trkpt>
      <trkpt lat="47.03621" lon="7.11107">
        <ele>433.5</ele>
        <time>2022-09-30T15:15:22Z</time>
      </trkpt>
      <trkpt lat="47.03619" lon="7.11114">
        <ele>433.5</ele>
        <time>2022-09-30T15:15:23Z</time>
      </trkpt>
      <trkpt lat="47.03619" lon="7.11122">
        <ele>433.4</ele>
        <time>2022-09-30T15:15:24Z</time>
      </trkpt>
      <trkpt lat="47.03618" lon="7.11131">
        <ele>433.4</ele>
        <time>2022-09-30T15:15:25Z</time>
      </trkpt>
      <trkpt lat="47.03616" lon="7.11137">
        <ele>433.4</ele>
        <time>2022-09-30T15:15:26Z</time>
      </trkpt>
      <trkpt lat="47.03617" lon="7.11147">
        <ele>433.4</ele>
        <time>2022-09-30T15:15:27Z</time>
      </trkpt>
      <trkpt lat="47.03616" lon="7.11155">
        <ele>433.4</ele>
        <time>2022-09-30T15:15:28Z</time>
      </trkpt>
      <trkpt lat="47.03615" lon="7.11163">
        <ele>433.4</ele>
        <time>2022-09-30T15:15:29Z</time>
      </trkpt>
      <trkpt lat="47.03614" lon="7.11171">
        <ele>433.4</ele>
        <time>2022-09-30T15:15:30Z</time>
      </trkpt>
      <trkpt lat="47.03613" lon="7.11179">
        <ele>433.4</ele>
        <time>2022-09-30T15:15:31Z</time>
      </trkpt>
      <trkpt lat="47.03612" lon="7.11187">
        <ele>433.5</ele>
        <time>2022-09-30T15:15:32Z</time>
      </trkpt>
      <trkpt lat="47.03611" lon="7.11196">
        <ele>433.5</ele>
        <time>2022-09-30T15:15:33Z</time>
      </trkpt>
      <trkpt lat="47.03611" lon="7.11203">
        <ele>433.5</ele>
        <time>2022-09-30T15:15:34Z</time>
      </trkpt>
      <trkpt lat="47.0361" lon="7.11212">
        <ele>433.5</ele>
        <time>2022-09-30T15:15:35Z</time>
      </trkpt>
      <trkpt lat="47.03609" lon="7.1122">
        <ele>433.5</ele>
        <time>2022-09-30T15:15:36Z</time>
      </trkpt>
      <trkpt lat="47.03609" lon="7.11228">
        <ele>433.5</ele>
        <time>2022-09-30T15:15:37Z</time>
      </trkpt>
      <trkpt lat="47.03609" lon="7.11236">
        <ele>433.5</ele>
        <time>2022-09-30T15:15:38Z</time>
      </trkpt>
      <trkpt lat="47.03608" lon="7.11243">
        <ele>433.5</ele>
        <time>2022-09-30T15:15:39Z</time>
      </trkpt>
      <trkpt lat="47.03607" lon="7.1125">
        <ele>433.6</ele>
        <time>2022-09-30T15:15:40Z</time>
      </trkpt>
      <trkpt lat="47.03606" lon="7.11259">
        <ele>433.6</ele>
        <time>2022-09-30T15:15:41Z</time>
      </trkpt>
      <trkpt lat="47.03606" lon="7.11266">
        <ele>433.6</ele>
        <time>2022-09-30T15:15:42Z</time>
      </trkpt>
      <trkpt lat="47.03606" lon="7.11273">
        <ele>433.6</ele>
        <time>2022-09-30T15:15:43Z</time>
      </trkpt>
      <trkpt lat="47.03605" lon="7.11281">
        <ele>433.6</ele>
        <time>2022-09-30T15:15:44Z</time>
      </trkpt>
      <trkpt lat="47.03605" lon="7.11289">
        <ele>433.6</ele>
        <time>2022-09-30T15:15:45Z</time>
      </trkpt>
      <trkpt lat="47.03605" lon="7.11296">
        <ele>433.6</ele>
        <time>2022-09-30T15:15:46Z</time>
      </trkpt>
      <trkpt lat="47.03607" lon="7.11305">
        <ele>433.6</ele>
        <time>2022-09-30T15:15:47Z</time>
      </trkpt>
      <trkpt lat="47.03606" lon="7.11312">
        <ele>433.6</ele>
        <time>2022-09-30T15:15:48Z</time>
      </trkpt>
      <trkpt lat="47.03607" lon="7.11319">
        <ele>433.6</ele>
        <time>2022-09-30T15:15:49Z</time>
      </trkpt>
      <trkpt lat="47.03607" lon="7.11328">
        <ele>433.6</ele>
        <time>2022-09-30T15:15:50Z</time>
      </trkpt>
      <trkpt lat="47.03607" lon="7.11336">
        <ele>433.6</ele>
        <time>2022-09-30T15:15:51Z</time>
      </trkpt>
      <trkpt lat="47.03608" lon="7.11344">
        <ele>433.6</ele>
        <time>2022-09-30T15:15:52Z</time>
      </trkpt>
      <trkpt lat="47.03609" lon="7.11352">
        <ele>433.6</ele>
        <time>2022-09-30T15:15:53Z</time>
      </trkpt>
      <trkpt lat="47.0361" lon="7.1136">
        <ele>433.6</ele>
        <time>2022-09-30T15:15:54Z</time>
      </trkpt>
      <trkpt lat="47.0361" lon="7.11368">
        <ele>433.6</ele>
        <time>2022-09-30T15:15:55Z</time>
      </trkpt>
      <trkpt lat="47.03611" lon="7.11377">
        <ele>433.6</ele>
        <time>2022-09-30T15:15:56Z</time>
      </trkpt>
      <trkpt lat="47.03612" lon="7.11385">
        <ele>433.6</ele>
        <time>2022-09-30T15:15:57Z</time>
      </trkpt>
      <trkpt lat="47.03612" lon="7.11393">
        <ele>433.6</ele>
        <time>2022-09-30T15:15:58Z</time>
      </trkpt>
      <trkpt lat="47.03613" lon="7.11401">
        <ele>433.6</ele>
        <time>2022-09-30T15:15:59Z</time>
      </trkpt>
      <trkpt lat="47.03614" lon="7.11409">
        <ele>433.6</ele>
        <time>2022-09-30T15:16:00Z</time>
      </trkpt>
      <trkpt lat="47.03615" lon="7.11418">
        <ele>433.6</ele>
        <time>2022-09-30T15:16:01Z</time>
      </trkpt>
      <trkpt lat="47.03616" lon="7.11426">
        <ele>433.6</ele>
        <time>2022-09-30T15:16:02Z</time>
      </trkpt>
      <trkpt lat="47.03617" lon="7.11434">
        <ele>433.6</ele>
        <time>2022-09-30T15:16:03Z</time>
      </trkpt>
      <trkpt lat="47.03618" lon="7.11443">
        <ele>433.6</ele>
        <time>2022-09-30T15:16:04Z</time>
      </trkpt>
      <trkpt lat="47.03619" lon="7.11452">
        <ele>433.6</ele>
        <time>2022-09-30T15:16:05Z</time>
      </trkpt>
      <trkpt lat="47.0362" lon="7.1146">
        <ele>433.6</ele>
        <time>2022-09-30T15:16:06Z</time>
      </trkpt>
      <trkpt lat="47.03622" lon="7.11468">
        <ele>433.6</ele>
        <time>2022-09-30T15:16:07Z</time>
      </trkpt>
      <trkpt lat="47.03622" lon="7.11477">
        <ele>433.6</ele>
        <time>2022-09-30T15:16:08Z</time>
      </trkpt>
      <trkpt lat="47.03624" lon="7.11485">
        <ele>433.6</ele>
        <time>2022-09-30T15:16:09Z</time>
      </trkpt>
      <trkpt lat="47.03625" lon="7.11494">
        <ele>433.6</ele>
        <time>2022-09-30T15:16:10Z</time>
      </trkpt>
      <trkpt lat="47.03625" lon="7.11502">
        <ele>433.6</ele>
        <time>2022-09-30T15:16:11Z</time>
      </trkpt>
      <trkpt lat="47.03626" lon="7.1151">
        <ele>433.6</ele>
        <time>2022-09-30T15:16:12Z</time>
      </trkpt>
      <trkpt lat="47.03627" lon="7.11518">
        <ele>433.6</ele>
        <time>2022-09-30T15:16:13Z</time>
      </trkpt>
      <trkpt lat="47.03629" lon="7.11526">
        <ele>433.6</ele>
        <time>2022-09-30T15:16:14Z</time>
      </trkpt>
      <trkpt lat="47.0363" lon="7.11535">
        <ele>433.6</ele>
        <time>2022-09-30T15:16:15Z</time>
      </trkpt>
      <trkpt lat="47.03631" lon="7.11543">
        <ele>433.6</ele>
        <time>2022-09-30T15:16:16Z</time>
      </trkpt>
      <trkpt lat="47.03632" lon="7.11552">
        <ele>433.6</ele>
        <time>2022-09-30T15:16:17Z</time>
      </trkpt>
      <trkpt lat="47.03633" lon="7.1156">
        <ele>433.6</ele>
        <time>2022-09-30T15:16:18Z</time>
      </trkpt>
      <trkpt lat="47.03634" lon="7.11568">
        <ele>433.6</ele>
        <time>2022-09-30T15:16:19Z</time>
      </trkpt>
      <trkpt lat="47.03635" lon="7.11576">
        <ele>433.6</ele>
        <time>2022-09-30T15:16:20Z</time>
      </trkpt>
      <trkpt lat="47.03636" lon="7.11585">
        <ele>433.6</ele>
        <time>2022-09-30T15:16:21Z</time>
      </trkpt>
      <trkpt lat="47.03636" lon="7.11594">
        <ele>433.6</ele>
        <time>2022-09-30T15:16:22Z</time>
      </trkpt>
      <trkpt lat="47.03638" lon="7.11602">
        <ele>433.7</ele>
        <time>2022-09-30T15:16:23Z</time>
      </trkpt>
      <trkpt lat="47.03639" lon="7.11611">
        <ele>433.7</ele>
        <time>2022-09-30T15:16:24Z</time>
      </trkpt>
      <trkpt lat="47.0364" lon="7.1162">
        <ele>433.7</ele>
        <time>2022-09-30T15:16:25Z</time>
      </trkpt>
      <trkpt lat="47.03641" lon="7.11628">
        <ele>433.7</ele>
        <time>2022-09-30T15:16:26Z</time>
      </trkpt>
      <trkpt lat="47.03641" lon="7.11636">
        <ele>433.7</ele>
        <time>2022-09-30T15:16:27Z</time>
      </trkpt>
      <trkpt lat="47.03643" lon="7.11645">
        <ele>433.7</ele>
        <time>2022-09-30T15:16:28Z</time>
      </trkpt>
      <trkpt lat="47.03644" lon="7.11653">
        <ele>433.7</ele>
        <time>2022-09-30T15:16:29Z</time>
      </trkpt>
      <trkpt lat="47.03645" lon="7.11661">
        <ele>433.7</ele>
        <time>2022-09-30T15:16:30Z</time>
      </trkpt>
      <trkpt lat="47.03646" lon="7.11669">
        <ele>433.7</ele>
        <time>2022-09-30T15:16:31Z</time>
      </trkpt>
      <trkpt lat="47.03646" lon="7.11678">
        <ele>433.7</ele>
        <time>2022-09-30T15:16:32Z</time>
      </trkpt>
      <trkpt lat="47.03648" lon="7.11687">
        <ele>433.6</ele>
        <time>2022-09-30T15:16:33Z</time>
      </trkpt>
      <trkpt lat="47.0365" lon="7.11696">
        <ele>433.6</ele>
        <time>2022-09-30T15:16:34Z</time>
      </trkpt>
      <trkpt lat="47.03651" lon="7.11704">
        <ele>433.6</ele>
        <time>2022-09-30T15:16:35Z</time>
      </trkpt>
      <trkpt lat="47.03653" lon="7.11713">
        <ele>433.6</ele>
        <time>2022-09-30T15:16:36Z</time>
      </trkpt>
      <trkpt lat="47.03654" lon="7.11721">
        <ele>433.6</ele>
        <time>2022-09-30T15:16:37Z</time>
      </trkpt>
      <trkpt lat="47.03654" lon="7.1173">
        <ele>433.6</ele>
        <time>2022-09-30T15:16:38Z</time>
      </trkpt>
      <trkpt lat="47.03656" lon="7.11738">
        <ele>433.6</ele>
        <time>2022-09-30T15:16:39Z</time>
      </trkpt>
      <trkpt lat="47.03656" lon="7.11746">
        <ele>433.6</ele>
        <time>2022-09-30T15:16:40Z</time>
      </trkpt>
      <trkpt lat="47.03657" lon="7.11755">
        <ele>433.6</ele>
        <time>2022-09-30T15:16:41Z</time>
      </trkpt>
      <trkpt lat="47.03658" lon="7.11765">
        <ele>433.6</ele>
        <time>2022-09-30T15:16:42Z</time>
      </trkpt>
      <trkpt lat="47.0366" lon="7.11773">
        <ele>433.6</ele>
        <time>2022-09-30T15:16:43Z</time>
      </trkpt>
      <trkpt lat="47.03661" lon="7.11781">
        <ele>433.6</ele>
        <time>2022-09-30T15:16:44Z</time>
      </trkpt>
      <trkpt lat="47.03662" lon="7.1179">
        <ele>433.6</ele>
        <time>2022-09-30T15:16:45Z</time>
      </trkpt>
      <trkpt lat="47.03663" lon="7.11799">
        <ele>433.6</ele>
        <time>2022-09-30T15:16:46Z</time>
      </trkpt>
      <trkpt lat="47.03664" lon="7.11807">
        <ele>433.6</ele>
        <time>2022-09-30T15:16:47Z</time>
      </trkpt>
      <trkpt lat="47.03665" lon="7.11817">
        <ele>433.6</ele>
        <time>2022-09-30T15:16:48Z</time>
      </trkpt>
      <trkpt lat="47.03666" lon="7.11826">
        <ele>433.6</ele>
        <time>2022-09-30T15:16:49Z</time>
      </trkpt>
      <trkpt lat="47.03667" lon="7.11832">
        <ele>433.6</ele>
        <time>2022-09-30T15:16:50Z</time>
      </trkpt>
      <trkpt lat="47.03668" lon="7.11841">
        <ele>433.6</ele>
        <time>2022-09-30T15:16:51Z</time>
      </trkpt>
      <trkpt lat="47.03669" lon="7.1185">
        <ele>433.6</ele>
        <time>2022-09-30T15:16:52Z</time>
      </trkpt>
      <trkpt lat="47.0367" lon="7.11859">
        <ele>433.6</ele>
        <time>2022-09-30T15:16:53Z</time>
      </trkpt>
      <trkpt lat="47.03672" lon="7.11867">
        <ele>433.6</ele>
        <time>2022-09-30T15:16:54Z</time>
      </trkpt>
      <trkpt lat="47.03672" lon="7.11877">
        <ele>433.6</ele>
        <time>2022-09-30T15:16:55Z</time>
      </trkpt>
      <trkpt lat="47.03675" lon="7.11884">
        <ele>433.6</ele>
        <time>2022-09-30T15:16:56Z</time>
      </trkpt>
      <trkpt lat="47.03676" lon="7.11893">
        <ele>433.6</ele>
        <time>2022-09-30T15:16:57Z</time>
      </trkpt>
      <trkpt lat="47.03677" lon="7.11901">
        <ele>433.6</ele>
        <time>2022-09-30T15:16:58Z</time>
      </trkpt>
      <trkpt lat="47.03678" lon="7.11909">
        <ele>433.6</ele>
        <time>2022-09-30T15:16:59Z</time>
      </trkpt>
      <trkpt lat="47.03679" lon="7.11918">
        <ele>433.6</ele>
        <time>2022-09-30T15:17:00Z</time>
      </trkpt>
      <trkpt lat="47.0368" lon="7.11926">
        <ele>433.6</ele>
        <time>2022-09-30T15:17:01Z</time>
      </trkpt>
      <trkpt lat="47.03682" lon="7.11935">
        <ele>433.6</ele>
        <time>2022-09-30T15:17:02Z</time>
      </trkpt>
      <trkpt lat="47.03684" lon="7.11942">
        <ele>433.6</ele>
        <time>2022-09-30T15:17:03Z</time>
      </trkpt>
      <trkpt lat="47.03686" lon="7.11951">
        <ele>433.6</ele>
        <time>2022-09-30T15:17:05Z</time>
      </trkpt>
      <trkpt lat="47.03688" lon="7.1196">
        <ele>433.6</ele>
        <time>2022-09-30T15:17:06Z</time>
      </trkpt>
      <trkpt lat="47.03688" lon="7.11969">
        <ele>433.6</ele>
        <time>2022-09-30T15:17:07Z</time>
      </trkpt>
      <trkpt lat="47.0369" lon="7.11977">
        <ele>433.6</ele>
        <time>2022-09-30T15:17:08Z</time>
      </trkpt>
      <trkpt lat="47.03691" lon="7.11985">
        <ele>433.6</ele>
        <time>2022-09-30T15:17:09Z</time>
      </trkpt>
      <trkpt lat="47.03693" lon="7.11994">
        <ele>433.6</ele>
        <time>2022-09-30T15:17:10Z</time>
      </trkpt>
      <trkpt lat="47.03695" lon="7.12002">
        <ele>433.6</ele>
        <time>2022-09-30T15:17:11Z</time>
      </trkpt>
      <trkpt lat="47.03698" lon="7.12018">
        <ele>433.6</ele>
        <time>2022-09-30T15:17:12Z</time>
      </trkpt>
      <trkpt lat="47.037" lon="7.12027">
        <ele>433.6</ele>
        <time>2022-09-30T15:17:13Z</time>
      </trkpt>
      <trkpt lat="47.03702" lon="7.12035">
        <ele>433.6</ele>
        <time>2022-09-30T15:17:15Z</time>
      </trkpt>
      <trkpt lat="47.03704" lon="7.12052">
        <ele>433.6</ele>
        <time>2022-09-30T15:17:16Z</time>
      </trkpt>
      <trkpt lat="47.03706" lon="7.1206">
        <ele>433.6</ele>
        <time>2022-09-30T15:17:17Z</time>
      </trkpt>
      <trkpt lat="47.03707" lon="7.12068">
        <ele>433.6</ele>
        <time>2022-09-30T15:17:18Z</time>
      </trkpt>
      <trkpt lat="47.03708" lon="7.12076">
        <ele>433.6</ele>
        <time>2022-09-30T15:17:19Z</time>
      </trkpt>
      <trkpt lat="47.0371" lon="7.12084">
        <ele>433.6</ele>
        <time>2022-09-30T15:17:21Z</time>
      </trkpt>
      <trkpt lat="47.03713" lon="7.12101">
        <ele>433.6</ele>
        <time>2022-09-30T15:17:22Z</time>
      </trkpt>
      <trkpt lat="47.03714" lon="7.12109">
        <ele>433.6</ele>
        <time>2022-09-30T15:17:23Z</time>
      </trkpt>
      <trkpt lat="47.03716" lon="7.12117">
        <ele>433.6</ele>
        <time>2022-09-30T15:17:24Z</time>
      </trkpt>
      <trkpt lat="47.03718" lon="7.12124">
        <ele>433.6</ele>
        <time>2022-09-30T15:17:25Z</time>
      </trkpt>
      <trkpt lat="47.0372" lon="7.12133">
        <ele>433.6</ele>
        <time>2022-09-30T15:17:26Z</time>
      </trkpt>
      <trkpt lat="47.03722" lon="7.12141">
        <ele>433.6</ele>
        <time>2022-09-30T15:17:27Z</time>
      </trkpt>
      <trkpt lat="47.03724" lon="7.12149">
        <ele>433.6</ele>
        <time>2022-09-30T15:17:28Z</time>
      </trkpt>
      <trkpt lat="47.03725" lon="7.12157">
        <ele>433.6</ele>
        <time>2022-09-30T15:17:29Z</time>
      </trkpt>
      <trkpt lat="47.03729" lon="7.12166">
        <ele>433.6</ele>
        <time>2022-09-30T15:17:30Z</time>
      </trkpt>
      <trkpt lat="47.03732" lon="7.12174">
        <ele>433.6</ele>
        <time>2022-09-30T15:17:31Z</time>
      </trkpt>
      <trkpt lat="47.03736" lon="7.12182">
        <ele>433.6</ele>
        <time>2022-09-30T15:17:32Z</time>
      </trkpt>
      <trkpt lat="47.03739" lon="7.1219">
        <ele>433.6</ele>
        <time>2022-09-30T15:17:33Z</time>
      </trkpt>
      <trkpt lat="47.03743" lon="7.12197">
        <ele>433.6</ele>
        <time>2022-09-30T15:17:34Z</time>
      </trkpt>
      <trkpt lat="47.03746" lon="7.12205">
        <ele>433.6</ele>
        <time>2022-09-30T15:17:35Z</time>
      </trkpt>
      <trkpt lat="47.0375" lon="7.12212">
        <ele>433.6</ele>
        <time>2022-09-30T15:17:36Z</time>
      </trkpt>
      <trkpt lat="47.03754" lon="7.12219">
        <ele>433.5</ele>
        <time>2022-09-30T15:17:37Z</time>
      </trkpt>
      <trkpt lat="47.03758" lon="7.12226">
        <ele>433.5</ele>
        <time>2022-09-30T15:17:38Z</time>
      </trkpt>
      <trkpt lat="47.03762" lon="7.12234">
        <ele>433.5</ele>
        <time>2022-09-30T15:17:39Z</time>
      </trkpt>
      <trkpt lat="47.03765" lon="7.12241">
        <ele>433.5</ele>
        <time>2022-09-30T15:17:40Z</time>
      </trkpt>
      <trkpt lat="47.03768" lon="7.12248">
        <ele>433.5</ele>
        <time>2022-09-30T15:17:41Z</time>
      </trkpt>
      <trkpt lat="47.03772" lon="7.12255">
        <ele>433.5</ele>
        <time>2022-09-30T15:17:42Z</time>
      </trkpt>
      <trkpt lat="47.03776" lon="7.12262">
        <ele>433.5</ele>
        <time>2022-09-30T15:17:43Z</time>
      </trkpt>
      <trkpt lat="47.03779" lon="7.1227">
        <ele>433.5</ele>
        <time>2022-09-30T15:17:44Z</time>
      </trkpt>
      <trkpt lat="47.03783" lon="7.12277">
        <ele>433.5</ele>
        <time>2022-09-30T15:17:45Z</time>
      </trkpt>
      <trkpt lat="47.03786" lon="7.12284">
        <ele>433.5</ele>
        <time>2022-09-30T15:17:46Z</time>
      </trkpt>
      <trkpt lat="47.0379" lon="7.1229">
        <ele>433.5</ele>
        <time>2022-09-30T15:17:47Z</time>
      </trkpt>
      <trkpt lat="47.03793" lon="7.12297">
        <ele>433.5</ele>
        <time>2022-09-30T15:17:48Z</time>
      </trkpt>
      <trkpt lat="47.03797" lon="7.12305">
        <ele>433.5</ele>
        <time>2022-09-30T15:17:49Z</time>
      </trkpt>
      <trkpt lat="47.03801" lon="7.12311">
        <ele>433.5</ele>
        <time>2022-09-30T15:17:50Z</time>
      </trkpt>
      <trkpt lat="47.03804" lon="7.12317">
        <ele>433.5</ele>
        <time>2022-09-30T15:17:51Z</time>
      </trkpt>
      <trkpt lat="47.03808" lon="7.12325">
        <ele>433.5</ele>
        <time>2022-09-30T15:17:52Z</time>
      </trkpt>
      <trkpt lat="47.03811" lon="7.12333">
        <ele>433.5</ele>
        <time>2022-09-30T15:17:53Z</time>
      </trkpt>
      <trkpt lat="47.03815" lon="7.12339">
        <ele>433.5</ele>
        <time>2022-09-30T15:17:54Z</time>
      </trkpt>
      <trkpt lat="47.03819" lon="7.12346">
        <ele>433.5</ele>
        <time>2022-09-30T15:17:55Z</time>
      </trkpt>
      <trkpt lat="47.03822" lon="7.12353">
        <ele>433.5</ele>
        <time>2022-09-30T15:17:56Z</time>
      </trkpt>
      <trkpt lat="47.03825" lon="7.1236">
        <ele>433.4</ele>
        <time>2022-09-30T15:17:57Z</time>
      </trkpt>
      <trkpt lat="47.03829" lon="7.12367">
        <ele>433.4</ele>
        <time>2022-09-30T15:17:58Z</time>
      </trkpt>
      <trkpt lat="47.03832" lon="7.12373">
        <ele>433.4</ele>
        <time>2022-09-30T15:17:59Z</time>
      </trkpt>
      <trkpt lat="47.03836" lon="7.12379">
        <ele>433.4</ele>
        <time>2022-09-30T15:18:00Z</time>
      </trkpt>
      <trkpt lat="47.03838" lon="7.12386">
        <ele>433.4</ele>
        <time>2022-09-30T15:18:01Z</time>
      </trkpt>
      <trkpt lat="47.03841" lon="7.12393">
        <ele>433.4</ele>
        <time>2022-09-30T15:18:02Z</time>
      </trkpt>
      <trkpt lat="47.03844" lon="7.124">
        <ele>433.4</ele>
        <time>2022-09-30T15:18:03Z</time>
      </trkpt>
      <trkpt lat="47.03847" lon="7.12407">
        <ele>433.4</ele>
        <time>2022-09-30T15:18:04Z</time>
      </trkpt>
      <trkpt lat="47.0385" lon="7.12414">
        <ele>433.3</ele>
        <time>2022-09-30T15:18:05Z</time>
      </trkpt>
      <trkpt lat="47.03853" lon="7.1242">
        <ele>433.3</ele>
        <time>2022-09-30T15:18:06Z</time>
      </trkpt>
      <trkpt lat="47.03856" lon="7.12427">
        <ele>433.3</ele>
        <time>2022-09-30T15:18:07Z</time>
      </trkpt>
      <trkpt lat="47.03859" lon="7.12434">
        <ele>433.3</ele>
        <time>2022-09-30T15:18:08Z</time>
      </trkpt>
      <trkpt lat="47.03862" lon="7.12442">
        <ele>433.3</ele>
        <time>2022-09-30T15:18:09Z</time>
      </trkpt>
      <trkpt lat="47.03865" lon="7.12449">
        <ele>433.3</ele>
        <time>2022-09-30T15:18:10Z</time>
      </trkpt>
      <trkpt lat="47.03868" lon="7.12457">
        <ele>433.3</ele>
        <time>2022-09-30T15:18:11Z</time>
      </trkpt>
      <trkpt lat="47.0387" lon="7.12463">
        <ele>433.3</ele>
        <time>2022-09-30T15:18:12Z</time>
      </trkpt>
      <trkpt lat="47.03874" lon="7.1247">
        <ele>433.3</ele>
        <time>2022-09-30T15:18:13Z</time>
      </trkpt>
      <trkpt lat="47.03876" lon="7.12477">
        <ele>433.3</ele>
        <time>2022-09-30T15:18:14Z</time>
      </trkpt>
      <trkpt lat="47.0388" lon="7.12484">
        <ele>433.3</ele>
        <time>2022-09-30T15:18:15Z</time>
      </trkpt>
      <trkpt lat="47.03882" lon="7.1249">
        <ele>433.3</ele>
        <time>2022-09-30T15:18:16Z</time>
      </trkpt>
      <trkpt lat="47.03884" lon="7.12498">
        <ele>433.3</ele>
        <time>2022-09-30T15:18:17Z</time>
      </trkpt>
      <trkpt lat="47.03887" lon="7.12505">
        <ele>433.3</ele>
        <time>2022-09-30T15:18:18Z</time>
      </trkpt>
      <trkpt lat="47.0389" lon="7.1251">
        <ele>433.3</ele>
        <time>2022-09-30T15:18:19Z</time>
      </trkpt>
      <trkpt lat="47.0389" lon="7.12518">
        <ele>433.3</ele>
        <time>2022-09-30T15:18:20Z</time>
      </trkpt>
      <trkpt lat="47.03891" lon="7.12525">
        <ele>433.3</ele>
        <time>2022-09-30T15:18:21Z</time>
      </trkpt>
      <trkpt lat="47.03893" lon="7.12532">
        <ele>433.3</ele>
        <time>2022-09-30T15:18:22Z</time>
      </trkpt>
      <trkpt lat="47.03895" lon="7.12539">
        <ele>433.3</ele>
        <time>2022-09-30T15:18:23Z</time>
      </trkpt>
      <trkpt lat="47.03894" lon="7.12546">
        <ele>433.3</ele>
        <time>2022-09-30T15:18:24Z</time>
      </trkpt>
      <trkpt lat="47.03895" lon="7.12553">
        <ele>433.3</ele>
        <time>2022-09-30T15:18:25Z</time>
      </trkpt>
      <trkpt lat="47.03896" lon="7.12562">
        <ele>433.3</ele>
        <time>2022-09-30T15:18:26Z</time>
      </trkpt>
      <trkpt lat="47.03897" lon="7.12569">
        <ele>433.3</ele>
        <time>2022-09-30T15:18:27Z</time>
      </trkpt>
      <trkpt lat="47.03897" lon="7.12576">
        <ele>433.3</ele>
        <time>2022-09-30T15:18:28Z</time>
      </trkpt>
      <trkpt lat="47.03898" lon="7.12585">
        <ele>433.3</ele>
        <time>2022-09-30T15:18:29Z</time>
      </trkpt>
      <trkpt lat="47.03899" lon="7.12592">
        <ele>433.3</ele>
        <time>2022-09-30T15:18:30Z</time>
      </trkpt>
      <trkpt lat="47.03901" lon="7.126">
        <ele>433.3</ele>
        <time>2022-09-30T15:18:31Z</time>
      </trkpt>
      <trkpt lat="47.039" lon="7.12609">
        <ele>433.3</ele>
        <time>2022-09-30T15:18:32Z</time>
      </trkpt>
      <trkpt lat="47.039" lon="7.12616">
        <ele>433.3</ele>
        <time>2022-09-30T15:18:33Z</time>
      </trkpt>
      <trkpt lat="47.03901" lon="7.12624">
        <ele>433.3</ele>
        <time>2022-09-30T15:18:34Z</time>
      </trkpt>
      <trkpt lat="47.03903" lon="7.12632">
        <ele>433.3</ele>
        <time>2022-09-30T15:18:35Z</time>
      </trkpt>
      <trkpt lat="47.03904" lon="7.1264">
        <ele>433.4</ele>
        <time>2022-09-30T15:18:36Z</time>
      </trkpt>
      <trkpt lat="47.03905" lon="7.12648">
        <ele>433.4</ele>
        <time>2022-09-30T15:18:37Z</time>
      </trkpt>
      <trkpt lat="47.03906" lon="7.12657">
        <ele>433.4</ele>
        <time>2022-09-30T15:18:38Z</time>
      </trkpt>
      <trkpt lat="47.03906" lon="7.12664">
        <ele>433.4</ele>
        <time>2022-09-30T15:18:39Z</time>
      </trkpt>
      <trkpt lat="47.03907" lon="7.12673">
        <ele>433.5</ele>
        <time>2022-09-30T15:18:40Z</time>
      </trkpt>
      <trkpt lat="47.03907" lon="7.12681">
        <ele>433.5</ele>
        <time>2022-09-30T15:18:41Z</time>
      </trkpt>
      <trkpt lat="47.03908" lon="7.12689">
        <ele>433.5</ele>
        <time>2022-09-30T15:18:42Z</time>
      </trkpt>
      <trkpt lat="47.03909" lon="7.12697">
        <ele>433.5</ele>
        <time>2022-09-30T15:18:43Z</time>
      </trkpt>
      <trkpt lat="47.0391" lon="7.12706">
        <ele>433.5</ele>
        <time>2022-09-30T15:18:44Z</time>
      </trkpt>
      <trkpt lat="47.03911" lon="7.12714">
        <ele>433.5</ele>
        <time>2022-09-30T15:18:45Z</time>
      </trkpt>
      <trkpt lat="47.03911" lon="7.12722">
        <ele>433.5</ele>
        <time>2022-09-30T15:18:46Z</time>
      </trkpt>
      <trkpt lat="47.03912" lon="7.12731">
        <ele>433.5</ele>
        <time>2022-09-30T15:18:47Z</time>
      </trkpt>
      <trkpt lat="47.03912" lon="7.12739">
        <ele>433.5</ele>
        <time>2022-09-30T15:18:48Z</time>
      </trkpt>
      <trkpt lat="47.03914" lon="7.12747">
        <ele>433.5</ele>
        <time>2022-09-30T15:18:49Z</time>
      </trkpt>
      <trkpt lat="47.03914" lon="7.12756">
        <ele>433.5</ele>
        <time>2022-09-30T15:18:50Z</time>
      </trkpt>
      <trkpt lat="47.03915" lon="7.12764">
        <ele>433.5</ele>
        <time>2022-09-30T15:18:51Z</time>
      </trkpt>
      <trkpt lat="47.03916" lon="7.12772">
        <ele>433.5</ele>
        <time>2022-09-30T15:18:52Z</time>
      </trkpt>
      <trkpt lat="47.03915" lon="7.1278">
        <ele>433.5</ele>
        <time>2022-09-30T15:18:53Z</time>
      </trkpt>
      <trkpt lat="47.03917" lon="7.12789">
        <ele>433.5</ele>
        <time>2022-09-30T15:18:54Z</time>
      </trkpt>
      <trkpt lat="47.03918" lon="7.12797">
        <ele>433.5</ele>
        <time>2022-09-30T15:18:55Z</time>
      </trkpt>
      <trkpt lat="47.03919" lon="7.12806">
        <ele>433.6</ele>
        <time>2022-09-30T15:18:56Z</time>
      </trkpt>
      <trkpt lat="47.03921" lon="7.12814">
        <ele>433.6</ele>
        <time>2022-09-30T15:18:57Z</time>
      </trkpt>
      <trkpt lat="47.03921" lon="7.12822">
        <ele>433.6</ele>
        <time>2022-09-30T15:18:58Z</time>
      </trkpt>
      <trkpt lat="47.03922" lon="7.1283">
        <ele>433.6</ele>
        <time>2022-09-30T15:18:59Z</time>
      </trkpt>
      <trkpt lat="47.03923" lon="7.12839">
        <ele>433.6</ele>
        <time>2022-09-30T15:19:00Z</time>
      </trkpt>
      <trkpt lat="47.03924" lon="7.12848">
        <ele>433.6</ele>
        <time>2022-09-30T15:19:01Z</time>
      </trkpt>
      <trkpt lat="47.03924" lon="7.12856">
        <ele>433.6</ele>
        <time>2022-09-30T15:19:02Z</time>
      </trkpt>
      <trkpt lat="47.03926" lon="7.12864">
        <ele>433.6</ele>
        <time>2022-09-30T15:19:03Z</time>
      </trkpt>
      <trkpt lat="47.03927" lon="7.12871">
        <ele>433.6</ele>
        <time>2022-09-30T15:19:04Z</time>
      </trkpt>
      <trkpt lat="47.03928" lon="7.1288">
        <ele>433.6</ele>
        <time>2022-09-30T15:19:05Z</time>
      </trkpt>
      <trkpt lat="47.0393" lon="7.12887">
        <ele>433.6</ele>
        <time>2022-09-30T15:19:06Z</time>
      </trkpt>
      <trkpt lat="47.03932" lon="7.12895">
        <ele>433.7</ele>
        <time>2022-09-30T15:19:07Z</time>
      </trkpt>
      <trkpt lat="47.03934" lon="7.12903">
        <ele>433.7</ele>
        <time>2022-09-30T15:19:08Z</time>
      </trkpt>
      <trkpt lat="47.03936" lon="7.12911">
        <ele>433.7</ele>
        <time>2022-09-30T15:19:09Z</time>
      </trkpt>
      <trkpt lat="47.03938" lon="7.12918">
        <ele>433.7</ele>
        <time>2022-09-30T15:19:11Z</time>
      </trkpt>
      <trkpt lat="47.03941" lon="7.12926">
        <ele>433.6</ele>
        <time>2022-09-30T15:19:12Z</time>
      </trkpt>
      <trkpt lat="47.03943" lon="7.12934">
        <ele>433.6</ele>
        <time>2022-09-30T15:19:13Z</time>
      </trkpt>
      <trkpt lat="47.03945" lon="7.12941">
        <ele>433.6</ele>
        <time>2022-09-30T15:19:14Z</time>
      </trkpt>
      <trkpt lat="47.03947" lon="7.12949">
        <ele>433.6</ele>
        <time>2022-09-30T15:19:15Z</time>
      </trkpt>
      <trkpt lat="47.03952" lon="7.12965">
        <ele>433.6</ele>
        <time>2022-09-30T15:19:16Z</time>
      </trkpt>
      <trkpt lat="47.03955" lon="7.12973">
        <ele>433.6</ele>
        <time>2022-09-30T15:19:17Z</time>
      </trkpt>
      <trkpt lat="47.03957" lon="7.12981">
        <ele>433.6</ele>
        <time>2022-09-30T15:19:18Z</time>
      </trkpt>
      <trkpt lat="47.03959" lon="7.12988">
        <ele>433.6</ele>
        <time>2022-09-30T15:19:19Z</time>
      </trkpt>
      <trkpt lat="47.03961" lon="7.12996">
        <ele>433.6</ele>
        <time>2022-09-30T15:19:20Z</time>
      </trkpt>
      <trkpt lat="47.03964" lon="7.13005">
        <ele>433.6</ele>
        <time>2022-09-30T15:19:21Z</time>
      </trkpt>
      <trkpt lat="47.03968" lon="7.13013">
        <ele>433.6</ele>
        <time>2022-09-30T15:19:23Z</time>
      </trkpt>
      <trkpt lat="47.03972" lon="7.13029">
        <ele>433.6</ele>
        <time>2022-09-30T15:19:24Z</time>
      </trkpt>
      <trkpt lat="47.03975" lon="7.13036">
        <ele>433.6</ele>
        <time>2022-09-30T15:19:25Z</time>
      </trkpt>
      <trkpt lat="47.03977" lon="7.13044">
        <ele>433.6</ele>
        <time>2022-09-30T15:19:26Z</time>
      </trkpt>
      <trkpt lat="47.0398" lon="7.13053">
        <ele>433.5</ele>
        <time>2022-09-30T15:19:27Z</time>
      </trkpt>
      <trkpt lat="47.03983" lon="7.1306">
        <ele>433.5</ele>
        <time>2022-09-30T15:19:29Z</time>
      </trkpt>
      <trkpt lat="47.03985" lon="7.1307">
        <ele>433.4</ele>
        <time>2022-09-30T15:19:30Z</time>
      </trkpt>
      <trkpt lat="47.03988" lon="7.13077">
        <ele>433.4</ele>
        <time>2022-09-30T15:19:31Z</time>
      </trkpt>
      <trkpt lat="47.03991" lon="7.13084">
        <ele>433.4</ele>
        <time>2022-09-30T15:19:32Z</time>
      </trkpt>
      <trkpt lat="47.03993" lon="7.13093">
        <ele>433.4</ele>
        <time>2022-09-30T15:19:33Z</time>
      </trkpt>
      <trkpt lat="47.03996" lon="7.13101">
        <ele>433.4</ele>
        <time>2022-09-30T15:19:34Z</time>
      </trkpt>
      <trkpt lat="47.03999" lon="7.13109">
        <ele>433.4</ele>
        <time>2022-09-30T15:19:35Z</time>
      </trkpt>
      <trkpt lat="47.04" lon="7.13116">
        <ele>433.4</ele>
        <time>2022-09-30T15:19:36Z</time>
      </trkpt>
      <trkpt lat="47.04003" lon="7.13125">
        <ele>433.4</ele>
        <time>2022-09-30T15:19:37Z</time>
      </trkpt>
      <trkpt lat="47.04006" lon="7.13133">
        <ele>433.4</ele>
        <time>2022-09-30T15:19:38Z</time>
      </trkpt>
      <trkpt lat="47.04009" lon="7.13142">
        <ele>433.4</ele>
        <time>2022-09-30T15:19:39Z</time>
      </trkpt>
      <trkpt lat="47.04011" lon="7.13149">
        <ele>433.5</ele>
        <time>2022-09-30T15:19:40Z</time>
      </trkpt>
      <trkpt lat="47.04012" lon="7.13156">
        <ele>433.5</ele>
        <time>2022-09-30T15:19:41Z</time>
      </trkpt>
      <trkpt lat="47.04016" lon="7.13165">
        <ele>433.5</ele>
        <time>2022-09-30T15:19:42Z</time>
      </trkpt>
      <trkpt lat="47.04019" lon="7.13172">
        <ele>433.5</ele>
        <time>2022-09-30T15:19:43Z</time>
      </trkpt>
      <trkpt lat="47.04021" lon="7.13181">
        <ele>433.4</ele>
        <time>2022-09-30T15:19:44Z</time>
      </trkpt>
      <trkpt lat="47.04024" lon="7.13188">
        <ele>433.4</ele>
        <time>2022-09-30T15:19:45Z</time>
      </trkpt>
      <trkpt lat="47.04026" lon="7.13196">
        <ele>433.4</ele>
        <time>2022-09-30T15:19:46Z</time>
      </trkpt>
      <trkpt lat="47.04029" lon="7.13205">
        <ele>433.4</ele>
        <time>2022-09-30T15:19:47Z</time>
      </trkpt>
      <trkpt lat="47.04032" lon="7.13213">
        <ele>433.4</ele>
        <time>2022-09-30T15:19:48Z</time>
      </trkpt>
      <trkpt lat="47.04035" lon="7.13221">
        <ele>433.4</ele>
        <time>2022-09-30T15:19:49Z</time>
      </trkpt>
      <trkpt lat="47.04037" lon="7.13229">
        <ele>433.4</ele>
        <time>2022-09-30T15:19:50Z</time>
      </trkpt>
      <trkpt lat="47.0404" lon="7.13238">
        <ele>433.4</ele>
        <time>2022-09-30T15:19:51Z</time>
      </trkpt>
      <trkpt lat="47.04042" lon="7.13245">
        <ele>433.3</ele>
        <time>2022-09-30T15:19:52Z</time>
      </trkpt>
      <trkpt lat="47.04045" lon="7.13253">
        <ele>433.3</ele>
        <time>2022-09-30T15:19:53Z</time>
      </trkpt>
      <trkpt lat="47.04048" lon="7.13261">
        <ele>433.3</ele>
        <time>2022-09-30T15:19:54Z</time>
      </trkpt>
      <trkpt lat="47.04054" lon="7.13278">
        <ele>433.3</ele>
        <time>2022-09-30T15:19:55Z</time>
      </trkpt>
      <trkpt lat="47.04056" lon="7.13286">
        <ele>433.3</ele>
        <time>2022-09-30T15:19:56Z</time>
      </trkpt>
      <trkpt lat="47.04059" lon="7.13294">
        <ele>433.3</ele>
        <time>2022-09-30T15:19:57Z</time>
      </trkpt>
      <trkpt lat="47.04062" lon="7.13303">
        <ele>433.3</ele>
        <time>2022-09-30T15:19:58Z</time>
      </trkpt>
      <trkpt lat="47.04064" lon="7.13312">
        <ele>433.3</ele>
        <time>2022-09-30T15:19:59Z</time>
      </trkpt>
      <trkpt lat="47.04067" lon="7.1332">
        <ele>433.2</ele>
        <time>2022-09-30T15:20:00Z</time>
      </trkpt>
      <trkpt lat="47.0407" lon="7.13329">
        <ele>433.2</ele>
        <time>2022-09-30T15:20:01Z</time>
      </trkpt>
      <trkpt lat="47.04072" lon="7.13337">
        <ele>433.2</ele>
        <time>2022-09-30T15:20:02Z</time>
      </trkpt>
      <trkpt lat="47.04075" lon="7.13345">
        <ele>433.2</ele>
        <time>2022-09-30T15:20:03Z</time>
      </trkpt>
      <trkpt lat="47.04077" lon="7.13354">
        <ele>433.2</ele>
        <time>2022-09-30T15:20:04Z</time>
      </trkpt>
      <trkpt lat="47.04081" lon="7.13362">
        <ele>433.2</ele>
        <time>2022-09-30T15:20:05Z</time>
      </trkpt>
      <trkpt lat="47.04084" lon="7.13371">
        <ele>433.2</ele>
        <time>2022-09-30T15:20:06Z</time>
      </trkpt>
      <trkpt lat="47.04087" lon="7.13379">
        <ele>433.3</ele>
        <time>2022-09-30T15:20:07Z</time>
      </trkpt>
      <trkpt lat="47.04089" lon="7.13388">
        <ele>433.3</ele>
        <time>2022-09-30T15:20:08Z</time>
      </trkpt>
      <trkpt lat="47.04092" lon="7.13396">
        <ele>433.3</ele>
        <time>2022-09-30T15:20:09Z</time>
      </trkpt>
      <trkpt lat="47.04094" lon="7.13405">
        <ele>433.3</ele>
        <time>2022-09-30T15:20:10Z</time>
      </trkpt>
      <trkpt lat="47.04098" lon="7.13413">
        <ele>433.2</ele>
        <time>2022-09-30T15:20:11Z</time>
      </trkpt>
      <trkpt lat="47.041" lon="7.13421">
        <ele>433.2</ele>
        <time>2022-09-30T15:20:12Z</time>
      </trkpt>
      <trkpt lat="47.04103" lon="7.13429">
        <ele>433.2</ele>
        <time>2022-09-30T15:20:13Z</time>
      </trkpt>
      <trkpt lat="47.04106" lon="7.13438">
        <ele>433.2</ele>
        <time>2022-09-30T15:20:14Z</time>
      </trkpt>
      <trkpt lat="47.04108" lon="7.13447">
        <ele>433.1</ele>
        <time>2022-09-30T15:20:15Z</time>
      </trkpt>
      <trkpt lat="47.04111" lon="7.13455">
        <ele>433.1</ele>
        <time>2022-09-30T15:20:16Z</time>
      </trkpt>
      <trkpt lat="47.04114" lon="7.13463">
        <ele>433.1</ele>
        <time>2022-09-30T15:20:17Z</time>
      </trkpt>
      <trkpt lat="47.04117" lon="7.13472">
        <ele>433</ele>
        <time>2022-09-30T15:20:18Z</time>
      </trkpt>
      <trkpt lat="47.0412" lon="7.1348">
        <ele>433</ele>
        <time>2022-09-30T15:20:19Z</time>
      </trkpt>
      <trkpt lat="47.04122" lon="7.13489">
        <ele>433</ele>
        <time>2022-09-30T15:20:20Z</time>
      </trkpt>
      <trkpt lat="47.04125" lon="7.13498">
        <ele>433</ele>
        <time>2022-09-30T15:20:21Z</time>
      </trkpt>
      <trkpt lat="47.04128" lon="7.13506">
        <ele>433</ele>
        <time>2022-09-30T15:20:22Z</time>
      </trkpt>
      <trkpt lat="47.04131" lon="7.13514">
        <ele>432.9</ele>
        <time>2022-09-30T15:20:23Z</time>
      </trkpt>
      <trkpt lat="47.04134" lon="7.13523">
        <ele>432.9</ele>
        <time>2022-09-30T15:20:24Z</time>
      </trkpt>
      <trkpt lat="47.04137" lon="7.13531">
        <ele>432.9</ele>
        <time>2022-09-30T15:20:25Z</time>
      </trkpt>
      <trkpt lat="47.04139" lon="7.13539">
        <ele>432.9</ele>
        <time>2022-09-30T15:20:26Z</time>
      </trkpt>
      <trkpt lat="47.04142" lon="7.13547">
        <ele>432.9</ele>
        <time>2022-09-30T15:20:27Z</time>
      </trkpt>
      <trkpt lat="47.04145" lon="7.13556">
        <ele>432.9</ele>
        <time>2022-09-30T15:20:28Z</time>
      </trkpt>
      <trkpt lat="47.04148" lon="7.13564">
        <ele>432.9</ele>
        <time>2022-09-30T15:20:29Z</time>
      </trkpt>
      <trkpt lat="47.0415" lon="7.13571">
        <ele>433</ele>
        <time>2022-09-30T15:20:30Z</time>
      </trkpt>
      <trkpt lat="47.04153" lon="7.1358">
        <ele>433</ele>
        <time>2022-09-30T15:20:31Z</time>
      </trkpt>
      <trkpt lat="47.04156" lon="7.13588">
        <ele>433</ele>
        <time>2022-09-30T15:20:32Z</time>
      </trkpt>
      <trkpt lat="47.04159" lon="7.13596">
        <ele>433</ele>
        <time>2022-09-30T15:20:33Z</time>
      </trkpt>
      <trkpt lat="47.04161" lon="7.13604">
        <ele>433</ele>
        <time>2022-09-30T15:20:34Z</time>
      </trkpt>
      <trkpt lat="47.04164" lon="7.13613">
        <ele>433</ele>
        <time>2022-09-30T15:20:35Z</time>
      </trkpt>
      <trkpt lat="47.04167" lon="7.1362">
        <ele>432.9</ele>
        <time>2022-09-30T15:20:36Z</time>
      </trkpt>
      <trkpt lat="47.04168" lon="7.13628">
        <ele>432.9</ele>
        <time>2022-09-30T15:20:37Z</time>
      </trkpt>
      <trkpt lat="47.04171" lon="7.13637">
        <ele>432.9</ele>
        <time>2022-09-30T15:20:38Z</time>
      </trkpt>
      <trkpt lat="47.04175" lon="7.13646">
        <ele>432.9</ele>
        <time>2022-09-30T15:20:39Z</time>
      </trkpt>
      <trkpt lat="47.04177" lon="7.13653">
        <ele>433</ele>
        <time>2022-09-30T15:20:40Z</time>
      </trkpt>
      <trkpt lat="47.04179" lon="7.13661">
        <ele>433</ele>
        <time>2022-09-30T15:20:41Z</time>
      </trkpt>
      <trkpt lat="47.04182" lon="7.13669">
        <ele>433</ele>
        <time>2022-09-30T15:20:42Z</time>
      </trkpt>
      <trkpt lat="47.04185" lon="7.13678">
        <ele>433</ele>
        <time>2022-09-30T15:20:43Z</time>
      </trkpt>
      <trkpt lat="47.04187" lon="7.13686">
        <ele>433</ele>
        <time>2022-09-30T15:20:44Z</time>
      </trkpt>
      <trkpt lat="47.0419" lon="7.13694">
        <ele>433.1</ele>
        <time>2022-09-30T15:20:45Z</time>
      </trkpt>
      <trkpt lat="47.04193" lon="7.13702">
        <ele>433.1</ele>
        <time>2022-09-30T15:20:46Z</time>
      </trkpt>
      <trkpt lat="47.04195" lon="7.1371">
        <ele>433.1</ele>
        <time>2022-09-30T15:20:47Z</time>
      </trkpt>
      <trkpt lat="47.04198" lon="7.13718">
        <ele>433.1</ele>
        <time>2022-09-30T15:20:48Z</time>
      </trkpt>
      <trkpt lat="47.04201" lon="7.13727">
        <ele>433.1</ele>
        <time>2022-09-30T15:20:49Z</time>
      </trkpt>
      <trkpt lat="47.04203" lon="7.13735">
        <ele>433.1</ele>
        <time>2022-09-30T15:20:50Z</time>
      </trkpt>
      <trkpt lat="47.04206" lon="7.13742">
        <ele>433.1</ele>
        <time>2022-09-30T15:20:51Z</time>
      </trkpt>
      <trkpt lat="47.04208" lon="7.13751">
        <ele>433.1</ele>
        <time>2022-09-30T15:20:52Z</time>
      </trkpt>
      <trkpt lat="47.04211" lon="7.13759">
        <ele>433.1</ele>
        <time>2022-09-30T15:20:53Z</time>
      </trkpt>
      <trkpt lat="47.04214" lon="7.13766">
        <ele>433.1</ele>
        <time>2022-09-30T15:20:54Z</time>
      </trkpt>
      <trkpt lat="47.04217" lon="7.13774">
        <ele>433.1</ele>
        <time>2022-09-30T15:20:55Z</time>
      </trkpt>
      <trkpt lat="47.04219" lon="7.13783">
        <ele>433.1</ele>
        <time>2022-09-30T15:20:56Z</time>
      </trkpt>
      <trkpt lat="47.04221" lon="7.1379">
        <ele>433.1</ele>
        <time>2022-09-30T15:20:57Z</time>
      </trkpt>
      <trkpt lat="47.04224" lon="7.13799">
        <ele>433.1</ele>
        <time>2022-09-30T15:20:58Z</time>
      </trkpt>
      <trkpt lat="47.04226" lon="7.13807">
        <ele>433.1</ele>
        <time>2022-09-30T15:20:59Z</time>
      </trkpt>
      <trkpt lat="47.04229" lon="7.13815">
        <ele>433.2</ele>
        <time>2022-09-30T15:21:00Z</time>
      </trkpt>
      <trkpt lat="47.04232" lon="7.13823">
        <ele>433.1</ele>
        <time>2022-09-30T15:21:01Z</time>
      </trkpt>
      <trkpt lat="47.04234" lon="7.1383">
        <ele>433.1</ele>
        <time>2022-09-30T15:21:02Z</time>
      </trkpt>
      <trkpt lat="47.04237" lon="7.13839">
        <ele>433.1</ele>
        <time>2022-09-30T15:21:03Z</time>
      </trkpt>
      <trkpt lat="47.04239" lon="7.13847">
        <ele>433.1</ele>
        <time>2022-09-30T15:21:04Z</time>
      </trkpt>
      <trkpt lat="47.04242" lon="7.13855">
        <ele>433.1</ele>
        <time>2022-09-30T15:21:05Z</time>
      </trkpt>
      <trkpt lat="47.04245" lon="7.13862">
        <ele>433.1</ele>
        <time>2022-09-30T15:21:06Z</time>
      </trkpt>
      <trkpt lat="47.04247" lon="7.1387">
        <ele>433.1</ele>
        <time>2022-09-30T15:21:07Z</time>
      </trkpt>
      <trkpt lat="47.0425" lon="7.13878">
        <ele>433</ele>
        <time>2022-09-30T15:21:08Z</time>
      </trkpt>
      <trkpt lat="47.04252" lon="7.13885">
        <ele>433</ele>
        <time>2022-09-30T15:21:09Z</time>
      </trkpt>
      <trkpt lat="47.04255" lon="7.13894">
        <ele>433</ele>
        <time>2022-09-30T15:21:10Z</time>
      </trkpt>
      <trkpt lat="47.04257" lon="7.13901">
        <ele>433</ele>
        <time>2022-09-30T15:21:11Z</time>
      </trkpt>
      <trkpt lat="47.0426" lon="7.13909">
        <ele>433</ele>
        <time>2022-09-30T15:21:12Z</time>
      </trkpt>
      <trkpt lat="47.04262" lon="7.13918">
        <ele>433</ele>
        <time>2022-09-30T15:21:13Z</time>
      </trkpt>
      <trkpt lat="47.04265" lon="7.13926">
        <ele>433</ele>
        <time>2022-09-30T15:21:14Z</time>
      </trkpt>
      <trkpt lat="47.04267" lon="7.13933">
        <ele>433</ele>
        <time>2022-09-30T15:21:15Z</time>
      </trkpt>
      <trkpt lat="47.0427" lon="7.13941">
        <ele>433</ele>
        <time>2022-09-30T15:21:16Z</time>
      </trkpt>
      <trkpt lat="47.04273" lon="7.13949">
        <ele>433</ele>
        <time>2022-09-30T15:21:17Z</time>
      </trkpt>
      <trkpt lat="47.04276" lon="7.13956">
        <ele>433</ele>
        <time>2022-09-30T15:21:19Z</time>
      </trkpt>
      <trkpt lat="47.04278" lon="7.13965">
        <ele>433</ele>
        <time>2022-09-30T15:21:20Z</time>
      </trkpt>
      <trkpt lat="47.04281" lon="7.13973">
        <ele>433</ele>
        <time>2022-09-30T15:21:21Z</time>
      </trkpt>
      <trkpt lat="47.04284" lon="7.13981">
        <ele>433</ele>
        <time>2022-09-30T15:21:22Z</time>
      </trkpt>
      <trkpt lat="47.04286" lon="7.1399">
        <ele>433</ele>
        <time>2022-09-30T15:21:23Z</time>
      </trkpt>
      <trkpt lat="47.04289" lon="7.13998">
        <ele>433</ele>
        <time>2022-09-30T15:21:24Z</time>
      </trkpt>
      <trkpt lat="47.04292" lon="7.14006">
        <ele>433.1</ele>
        <time>2022-09-30T15:21:25Z</time>
      </trkpt>
      <trkpt lat="47.04294" lon="7.14015">
        <ele>433.1</ele>
        <time>2022-09-30T15:21:26Z</time>
      </trkpt>
      <trkpt lat="47.04297" lon="7.14022">
        <ele>433.1</ele>
        <time>2022-09-30T15:21:27Z</time>
      </trkpt>
      <trkpt lat="47.043" lon="7.1403">
        <ele>433.1</ele>
        <time>2022-09-30T15:21:28Z</time>
      </trkpt>
      <trkpt lat="47.04302" lon="7.14038">
        <ele>433.1</ele>
        <time>2022-09-30T15:21:29Z</time>
      </trkpt>
      <trkpt lat="47.04304" lon="7.14046">
        <ele>433.1</ele>
        <time>2022-09-30T15:21:30Z</time>
      </trkpt>
      <trkpt lat="47.04308" lon="7.14054">
        <ele>433.1</ele>
        <time>2022-09-30T15:21:31Z</time>
      </trkpt>
      <trkpt lat="47.0431" lon="7.14062">
        <ele>433.1</ele>
        <time>2022-09-30T15:21:32Z</time>
      </trkpt>
      <trkpt lat="47.04313" lon="7.14071">
        <ele>433.2</ele>
        <time>2022-09-30T15:21:33Z</time>
      </trkpt>
      <trkpt lat="47.04318" lon="7.14087">
        <ele>433.2</ele>
        <time>2022-09-30T15:21:34Z</time>
      </trkpt>
      <trkpt lat="47.04322" lon="7.14096">
        <ele>433.2</ele>
        <time>2022-09-30T15:21:35Z</time>
      </trkpt>
      <trkpt lat="47.04326" lon="7.14102">
        <ele>433.2</ele>
        <time>2022-09-30T15:21:36Z</time>
      </trkpt>
      <trkpt lat="47.04327" lon="7.14111">
        <ele>433.2</ele>
        <time>2022-09-30T15:21:37Z</time>
      </trkpt>
      <trkpt lat="47.04329" lon="7.14119">
        <ele>433.2</ele>
        <time>2022-09-30T15:21:38Z</time>
      </trkpt>
      <trkpt lat="47.04332" lon="7.14127">
        <ele>433.2</ele>
        <time>2022-09-30T15:21:39Z</time>
      </trkpt>
      <trkpt lat="47.04334" lon="7.14135">
        <ele>433.3</ele>
        <time>2022-09-30T15:21:40Z</time>
      </trkpt>
      <trkpt lat="47.04337" lon="7.14143">
        <ele>433.3</ele>
        <time>2022-09-30T15:21:41Z</time>
      </trkpt>
      <trkpt lat="47.04339" lon="7.14151">
        <ele>433.3</ele>
        <time>2022-09-30T15:21:42Z</time>
      </trkpt>
      <trkpt lat="47.04342" lon="7.14158">
        <ele>433.3</ele>
        <time>2022-09-30T15:21:43Z</time>
      </trkpt>
      <trkpt lat="47.04345" lon="7.14166">
        <ele>433.3</ele>
        <time>2022-09-30T15:21:44Z</time>
      </trkpt>
      <trkpt lat="47.04347" lon="7.14175">
        <ele>433.3</ele>
        <time>2022-09-30T15:21:45Z</time>
      </trkpt>
      <trkpt lat="47.0435" lon="7.14183">
        <ele>433.3</ele>
        <time>2022-09-30T15:21:46Z</time>
      </trkpt>
      <trkpt lat="47.04352" lon="7.14191">
        <ele>433.3</ele>
        <time>2022-09-30T15:21:47Z</time>
      </trkpt>
      <trkpt lat="47.04355" lon="7.142">
        <ele>433.3</ele>
        <time>2022-09-30T15:21:48Z</time>
      </trkpt>
      <trkpt lat="47.04357" lon="7.14208">
        <ele>433.3</ele>
        <time>2022-09-30T15:21:49Z</time>
      </trkpt>
      <trkpt lat="47.0436" lon="7.14216">
        <ele>433.3</ele>
        <time>2022-09-30T15:21:50Z</time>
      </trkpt>
      <trkpt lat="47.04363" lon="7.14224">
        <ele>433.4</ele>
        <time>2022-09-30T15:21:51Z</time>
      </trkpt>
      <trkpt lat="47.04365" lon="7.14232">
        <ele>433.4</ele>
        <time>2022-09-30T15:21:52Z</time>
      </trkpt>
      <trkpt lat="47.04368" lon="7.1424">
        <ele>433.4</ele>
        <time>2022-09-30T15:21:53Z</time>
      </trkpt>
      <trkpt lat="47.0437" lon="7.14248">
        <ele>433.4</ele>
        <time>2022-09-30T15:21:54Z</time>
      </trkpt>
      <trkpt lat="47.04373" lon="7.14256">
        <ele>433.4</ele>
        <time>2022-09-30T15:21:55Z</time>
      </trkpt>
      <trkpt lat="47.04376" lon="7.14264">
        <ele>433.4</ele>
        <time>2022-09-30T15:21:56Z</time>
      </trkpt>
      <trkpt lat="47.04379" lon="7.14273">
        <ele>433.4</ele>
        <time>2022-09-30T15:21:57Z</time>
      </trkpt>
      <trkpt lat="47.04381" lon="7.14281">
        <ele>433.4</ele>
        <time>2022-09-30T15:21:58Z</time>
      </trkpt>
      <trkpt lat="47.04384" lon="7.14289">
        <ele>433.4</ele>
        <time>2022-09-30T15:21:59Z</time>
      </trkpt>
      <trkpt lat="47.04387" lon="7.14297">
        <ele>433.4</ele>
        <time>2022-09-30T15:22:00Z</time>
      </trkpt>
      <trkpt lat="47.0439" lon="7.14305">
        <ele>433.4</ele>
        <time>2022-09-30T15:22:01Z</time>
      </trkpt>
      <trkpt lat="47.04392" lon="7.14313">
        <ele>433.4</ele>
        <time>2022-09-30T15:22:02Z</time>
      </trkpt>
      <trkpt lat="47.04395" lon="7.14321">
        <ele>433.4</ele>
        <time>2022-09-30T15:22:03Z</time>
      </trkpt>
      <trkpt lat="47.04398" lon="7.14329">
        <ele>433.4</ele>
        <time>2022-09-30T15:22:04Z</time>
      </trkpt>
      <trkpt lat="47.044" lon="7.14337">
        <ele>433.4</ele>
        <time>2022-09-30T15:22:05Z</time>
      </trkpt>
      <trkpt lat="47.04402" lon="7.14345">
        <ele>433.4</ele>
        <time>2022-09-30T15:22:06Z</time>
      </trkpt>
      <trkpt lat="47.04405" lon="7.14353">
        <ele>433.4</ele>
        <time>2022-09-30T15:22:07Z</time>
      </trkpt>
      <trkpt lat="47.04408" lon="7.14361">
        <ele>433.4</ele>
        <time>2022-09-30T15:22:08Z</time>
      </trkpt>
      <trkpt lat="47.0441" lon="7.14368">
        <ele>433.4</ele>
        <time>2022-09-30T15:22:09Z</time>
      </trkpt>
      <trkpt lat="47.04412" lon="7.14376">
        <ele>433.4</ele>
        <time>2022-09-30T15:22:10Z</time>
      </trkpt>
      <trkpt lat="47.04415" lon="7.14383">
        <ele>433.4</ele>
        <time>2022-09-30T15:22:11Z</time>
      </trkpt>
      <trkpt lat="47.04417" lon="7.1439">
        <ele>433.4</ele>
        <time>2022-09-30T15:22:12Z</time>
      </trkpt>
      <trkpt lat="47.0442" lon="7.14397">
        <ele>433.4</ele>
        <time>2022-09-30T15:22:13Z</time>
      </trkpt>
      <trkpt lat="47.04422" lon="7.14404">
        <ele>433.4</ele>
        <time>2022-09-30T15:22:14Z</time>
      </trkpt>
      <trkpt lat="47.04424" lon="7.14412">
        <ele>433.4</ele>
        <time>2022-09-30T15:22:15Z</time>
      </trkpt>
      <trkpt lat="47.04426" lon="7.14419">
        <ele>433.4</ele>
        <time>2022-09-30T15:22:16Z</time>
      </trkpt>
      <trkpt lat="47.04429" lon="7.14425">
        <ele>433.4</ele>
        <time>2022-09-30T15:22:17Z</time>
      </trkpt>
      <trkpt lat="47.04431" lon="7.14432">
        <ele>433.4</ele>
        <time>2022-09-30T15:22:18Z</time>
      </trkpt>
      <trkpt lat="47.04433" lon="7.14439">
        <ele>433.4</ele>
        <time>2022-09-30T15:22:19Z</time>
      </trkpt>
      <trkpt lat="47.04436" lon="7.14447">
        <ele>433.4</ele>
        <time>2022-09-30T15:22:20Z</time>
      </trkpt>
      <trkpt lat="47.04438" lon="7.14454">
        <ele>433.3</ele>
        <time>2022-09-30T15:22:21Z</time>
      </trkpt>
      <trkpt lat="47.0444" lon="7.14461">
        <ele>433.3</ele>
        <time>2022-09-30T15:22:22Z</time>
      </trkpt>
      <trkpt lat="47.04442" lon="7.14467">
        <ele>433.3</ele>
        <time>2022-09-30T15:22:23Z</time>
      </trkpt>
      <trkpt lat="47.04445" lon="7.14474">
        <ele>433.3</ele>
        <time>2022-09-30T15:22:24Z</time>
      </trkpt>
      <trkpt lat="47.04447" lon="7.14481">
        <ele>433.3</ele>
        <time>2022-09-30T15:22:25Z</time>
      </trkpt>
      <trkpt lat="47.04449" lon="7.14488">
        <ele>433.3</ele>
        <time>2022-09-30T15:22:26Z</time>
      </trkpt>
      <trkpt lat="47.04451" lon="7.14495">
        <ele>433.3</ele>
        <time>2022-09-30T15:22:27Z</time>
      </trkpt>
      <trkpt lat="47.04454" lon="7.14502">
        <ele>433.3</ele>
        <time>2022-09-30T15:22:28Z</time>
      </trkpt>
      <trkpt lat="47.04456" lon="7.14509">
        <ele>433.3</ele>
        <time>2022-09-30T15:22:29Z</time>
      </trkpt>
      <trkpt lat="47.0446" lon="7.14515">
        <ele>433.3</ele>
        <time>2022-09-30T15:22:30Z</time>
      </trkpt>
      <trkpt lat="47.04463" lon="7.14521">
        <ele>433.3</ele>
        <time>2022-09-30T15:22:31Z</time>
      </trkpt>
      <trkpt lat="47.04465" lon="7.14529">
        <ele>433.3</ele>
        <time>2022-09-30T15:22:32Z</time>
      </trkpt>
      <trkpt lat="47.04468" lon="7.14535">
        <ele>433.3</ele>
        <time>2022-09-30T15:22:33Z</time>
      </trkpt>
      <trkpt lat="47.04471" lon="7.14543">
        <ele>433.3</ele>
        <time>2022-09-30T15:22:34Z</time>
      </trkpt>
      <trkpt lat="47.04473" lon="7.14549">
        <ele>433.3</ele>
        <time>2022-09-30T15:22:35Z</time>
      </trkpt>
      <trkpt lat="47.04476" lon="7.14556">
        <ele>433.2</ele>
        <time>2022-09-30T15:22:36Z</time>
      </trkpt>
      <trkpt lat="47.04479" lon="7.14563">
        <ele>433.2</ele>
        <time>2022-09-30T15:22:37Z</time>
      </trkpt>
      <trkpt lat="47.04482" lon="7.14569">
        <ele>433.2</ele>
        <time>2022-09-30T15:22:38Z</time>
      </trkpt>
      <trkpt lat="47.04485" lon="7.14576">
        <ele>433.2</ele>
        <time>2022-09-30T15:22:39Z</time>
      </trkpt>
      <trkpt lat="47.04488" lon="7.14582">
        <ele>433.2</ele>
        <time>2022-09-30T15:22:40Z</time>
      </trkpt>
      <trkpt lat="47.04491" lon="7.14589">
        <ele>433.2</ele>
        <time>2022-09-30T15:22:41Z</time>
      </trkpt>
      <trkpt lat="47.04494" lon="7.14596">
        <ele>433.2</ele>
        <time>2022-09-30T15:22:42Z</time>
      </trkpt>
      <trkpt lat="47.04497" lon="7.14602">
        <ele>433.2</ele>
        <time>2022-09-30T15:22:43Z</time>
      </trkpt>
      <trkpt lat="47.045" lon="7.14609">
        <ele>433.2</ele>
        <time>2022-09-30T15:22:44Z</time>
      </trkpt>
      <trkpt lat="47.04503" lon="7.14615">
        <ele>433.2</ele>
        <time>2022-09-30T15:22:45Z</time>
      </trkpt>
      <trkpt lat="47.04505" lon="7.14622">
        <ele>433.2</ele>
        <time>2022-09-30T15:22:46Z</time>
      </trkpt>
      <trkpt lat="47.04507" lon="7.14628">
        <ele>433.2</ele>
        <time>2022-09-30T15:22:47Z</time>
      </trkpt>
      <trkpt lat="47.04509" lon="7.14634">
        <ele>433.2</ele>
        <time>2022-09-30T15:22:48Z</time>
      </trkpt>
      <trkpt lat="47.04511" lon="7.1464">
        <ele>433.2</ele>
        <time>2022-09-30T15:22:49Z</time>
      </trkpt>
      <trkpt lat="47.04513" lon="7.14646">
        <ele>433.2</ele>
        <time>2022-09-30T15:22:50Z</time>
      </trkpt>
      <trkpt lat="47.04514" lon="7.14652">
        <ele>433.2</ele>
        <time>2022-09-30T15:22:51Z</time>
      </trkpt>
      <trkpt lat="47.04515" lon="7.14656">
        <ele>433.2</ele>
        <time>2022-09-30T15:22:52Z</time>
      </trkpt>
      <trkpt lat="47.04517" lon="7.1466">
        <ele>433.2</ele>
        <time>2022-09-30T15:22:53Z</time>
      </trkpt>
      <trkpt lat="47.04517" lon="7.14661">
        <ele>433.2</ele>
        <time>2022-09-30T15:22:54Z</time>
      </trkpt>
      <trkpt lat="47.04517" lon="7.14662">
        <ele>433.2</ele>
        <time>2022-09-30T15:22:55Z</time>
      </trkpt>
      <trkpt lat="47.04518" lon="7.14662">
        <ele>433.2</ele>
        <time>2022-09-30T15:22:56Z</time>
      </trkpt>
      <trkpt lat="47.04518" lon="7.14663">
        <ele>433.2</ele>
        <time>2022-09-30T15:22:57Z</time>
      </trkpt>
      <trkpt lat="47.04518" lon="7.14663">
        <ele>433.2</ele>
        <time>2022-09-30T15:22:58Z</time>
      </trkpt>
      <trkpt lat="47.04518" lon="7.14664">
        <ele>433.2</ele>
        <time>2022-09-30T15:22:59Z</time>
      </trkpt>
      <trkpt lat="47.04519" lon="7.14665">
        <ele>433.3</ele>
        <time>2022-09-30T15:23:00Z</time>
      </trkpt>
      <trkpt lat="47.04519" lon="7.14665">
        <ele>433.3</ele>
        <time>2022-09-30T15:23:01Z</time>
      </trkpt>
      <trkpt lat="47.04519" lon="7.14666">
        <ele>433.3</ele>
        <time>2022-09-30T15:23:02Z</time>
      </trkpt>
      <trkpt lat="47.0452" lon="7.14666">
        <ele>433.3</ele>
        <time>2022-09-30T15:23:03Z</time>
      </trkpt>
      <trkpt lat="47.0452" lon="7.14667">
        <ele>433.3</ele>
        <time>2022-09-30T15:23:04Z</time>
      </trkpt>
      <trkpt lat="47.0452" lon="7.14668">
        <ele>433.3</ele>
        <time>2022-09-30T15:24:01Z</time>
      </trkpt>
      <trkpt lat="47.0452" lon="7.14668">
        <ele>433.3</ele>
        <time>2022-09-30T15:24:02Z</time>
      </trkpt>
      <trkpt lat="47.04521" lon="7.14669">
        <ele>433.3</ele>
        <time>2022-09-30T15:24:03Z</time>
      </trkpt>
      <trkpt lat="47.04521" lon="7.14669">
        <ele>433.3</ele>
        <time>2022-09-30T15:24:04Z</time>
      </trkpt>
      <trkpt lat="47.04521" lon="7.1467">
        <ele>433.3</ele>
        <time>2022-09-30T15:24:05Z</time>
      </trkpt>
      <trkpt lat="47.04521" lon="7.1467">
        <ele>433.3</ele>
        <time>2022-09-30T15:24:06Z</time>
      </trkpt>
      <trkpt lat="47.04522" lon="7.14671">
        <ele>433.3</ele>
        <time>2022-09-30T15:24:07Z</time>
      </trkpt>
      <trkpt lat="47.04522" lon="7.14672">
        <ele>433.3</ele>
        <time>2022-09-30T15:24:08Z</time>
      </trkpt>
      <trkpt lat="47.04522" lon="7.14672">
        <ele>433.3</ele>
        <time>2022-09-30T15:24:09Z</time>
      </trkpt>
      <trkpt lat="47.04523" lon="7.14673">
        <ele>433.3</ele>
        <time>2022-09-30T15:24:10Z</time>
      </trkpt>
      <trkpt lat="47.04523" lon="7.14673">
        <ele>433.3</ele>
        <time>2022-09-30T15:24:50Z</time>
      </trkpt>
      <trkpt lat="47.04523" lon="7.14674">
        <ele>433.3</ele>
        <time>2022-09-30T15:24:51Z</time>
      </trkpt>
      <trkpt lat="47.04524" lon="7.14678">
        <ele>433.3</ele>
        <time>2022-09-30T15:24:52Z</time>
      </trkpt>
      <trkpt lat="47.04527" lon="7.14681">
        <ele>433.3</ele>
        <time>2022-09-30T15:24:53Z</time>
      </trkpt>
      <trkpt lat="47.04529" lon="7.14682">
        <ele>433.3</ele>
        <time>2022-09-30T15:24:54Z</time>
      </trkpt>
      <trkpt lat="47.04531" lon="7.14686">
        <ele>433.3</ele>
        <time>2022-09-30T15:24:55Z</time>
      </trkpt>
      <trkpt lat="47.04532" lon="7.1469">
        <ele>433.3</ele>
        <time>2022-09-30T15:24:56Z</time>
      </trkpt>
      <trkpt lat="47.04534" lon="7.14695">
        <ele>433.3</ele>
        <time>2022-09-30T15:24:57Z</time>
      </trkpt>
      <trkpt lat="47.04535" lon="7.147">
        <ele>433.3</ele>
        <time>2022-09-30T15:24:58Z</time>
      </trkpt>
      <trkpt lat="47.04536" lon="7.14704">
        <ele>433.3</ele>
        <time>2022-09-30T15:24:59Z</time>
      </trkpt>
      <trkpt lat="47.04538" lon="7.14709">
        <ele>433.3</ele>
        <time>2022-09-30T15:25:00Z</time>
      </trkpt>
      <trkpt lat="47.0454" lon="7.14714">
        <ele>433.3</ele>
        <time>2022-09-30T15:25:01Z</time>
      </trkpt>
      <trkpt lat="47.04542" lon="7.1472">
        <ele>433.3</ele>
        <time>2022-09-30T15:25:02Z</time>
      </trkpt>
      <trkpt lat="47.04544" lon="7.14725">
        <ele>433.3</ele>
        <time>2022-09-30T15:25:03Z</time>
      </trkpt>
      <trkpt lat="47.04547" lon="7.1473">
        <ele>433.4</ele>
        <time>2022-09-30T15:25:04Z</time>
      </trkpt>
      <trkpt lat="47.04549" lon="7.14735">
        <ele>433.4</ele>
        <time>2022-09-30T15:25:05Z</time>
      </trkpt>
      <trkpt lat="47.04552" lon="7.14739">
        <ele>433.4</ele>
        <time>2022-09-30T15:25:06Z</time>
      </trkpt>
      <trkpt lat="47.04554" lon="7.14745">
        <ele>433.4</ele>
        <time>2022-09-30T15:25:07Z</time>
      </trkpt>
      <trkpt lat="47.04556" lon="7.14752">
        <ele>433.4</ele>
        <time>2022-09-30T15:25:08Z</time>
      </trkpt>
      <trkpt lat="47.04558" lon="7.14757">
        <ele>433.5</ele>
        <time>2022-09-30T15:25:09Z</time>
      </trkpt>
      <trkpt lat="47.04561" lon="7.14763">
        <ele>433.5</ele>
        <time>2022-09-30T15:25:10Z</time>
      </trkpt>
      <trkpt lat="47.04564" lon="7.14768">
        <ele>433.5</ele>
        <time>2022-09-30T15:25:11Z</time>
      </trkpt>
      <trkpt lat="47.04566" lon="7.14774">
        <ele>433.5</ele>
        <time>2022-09-30T15:25:12Z</time>
      </trkpt>
      <trkpt lat="47.04569" lon="7.14779">
        <ele>433.5</ele>
        <time>2022-09-30T15:25:13Z</time>
      </trkpt>
      <trkpt lat="47.0457" lon="7.14784">
        <ele>433.6</ele>
        <time>2022-09-30T15:25:14Z</time>
      </trkpt>
      <trkpt lat="47.04572" lon="7.1479">
        <ele>433.6</ele>
        <time>2022-09-30T15:25:15Z</time>
      </trkpt>
      <trkpt lat="47.04575" lon="7.14796">
        <ele>433.6</ele>
        <time>2022-09-30T15:25:16Z</time>
      </trkpt>
      <trkpt lat="47.04577" lon="7.14801">
        <ele>433.7</ele>
        <time>2022-09-30T15:25:17Z</time>
      </trkpt>
      <trkpt lat="47.04579" lon="7.14807">
        <ele>433.7</ele>
        <time>2022-09-30T15:25:18Z</time>
      </trkpt>
      <trkpt lat="47.04582" lon="7.14812">
        <ele>433.7</ele>
        <time>2022-09-30T15:25:19Z</time>
      </trkpt>
      <trkpt lat="47.04585" lon="7.14819">
        <ele>433.8</ele>
        <time>2022-09-30T15:25:20Z</time>
      </trkpt>
      <trkpt lat="47.04587" lon="7.14824">
        <ele>433.8</ele>
        <time>2022-09-30T15:25:21Z</time>
      </trkpt>
      <trkpt lat="47.04589" lon="7.1483">
        <ele>433.8</ele>
        <time>2022-09-30T15:25:22Z</time>
      </trkpt>
      <trkpt lat="47.04591" lon="7.14836">
        <ele>433.9</ele>
        <time>2022-09-30T15:25:23Z</time>
      </trkpt>
      <trkpt lat="47.04594" lon="7.14842">
        <ele>433.9</ele>
        <time>2022-09-30T15:25:24Z</time>
      </trkpt>
      <trkpt lat="47.04596" lon="7.14848">
        <ele>433.9</ele>
        <time>2022-09-30T15:25:25Z</time>
      </trkpt>
      <trkpt lat="47.04598" lon="7.14854">
        <ele>434</ele>
        <time>2022-09-30T15:25:26Z</time>
      </trkpt>
      <trkpt lat="47.04601" lon="7.1486">
        <ele>434.1</ele>
        <time>2022-09-30T15:25:27Z</time>
      </trkpt>
      <trkpt lat="47.04604" lon="7.14865">
        <ele>434.1</ele>
        <time>2022-09-30T15:25:29Z</time>
      </trkpt>
      <trkpt lat="47.04606" lon="7.14871">
        <ele>434.2</ele>
        <time>2022-09-30T15:25:30Z</time>
      </trkpt>
      <trkpt lat="47.04608" lon="7.14876">
        <ele>434.2</ele>
        <time>2022-09-30T15:25:31Z</time>
      </trkpt>
      <trkpt lat="47.0461" lon="7.14882">
        <ele>434.3</ele>
        <time>2022-09-30T15:25:32Z</time>
      </trkpt>
      <trkpt lat="47.04613" lon="7.14888">
        <ele>434.3</ele>
        <time>2022-09-30T15:25:33Z</time>
      </trkpt>
      <trkpt lat="47.04615" lon="7.14899">
        <ele>434.4</ele>
        <time>2022-09-30T15:25:34Z</time>
      </trkpt>
      <trkpt lat="47.04618" lon="7.14904">
        <ele>434.5</ele>
        <time>2022-09-30T15:25:35Z</time>
      </trkpt>
      <trkpt lat="47.04621" lon="7.1491">
        <ele>434.6</ele>
        <time>2022-09-30T15:25:36Z</time>
      </trkpt>
      <trkpt lat="47.04622" lon="7.14914">
        <ele>434.7</ele>
        <time>2022-09-30T15:25:37Z</time>
      </trkpt>
      <trkpt lat="47.04625" lon="7.1492">
        <ele>434.7</ele>
        <time>2022-09-30T15:25:39Z</time>
      </trkpt>
      <trkpt lat="47.04629" lon="7.14931">
        <ele>434.9</ele>
        <time>2022-09-30T15:25:40Z</time>
      </trkpt>
      <trkpt lat="47.04631" lon="7.14936">
        <ele>435</ele>
        <time>2022-09-30T15:25:41Z</time>
      </trkpt>
      <trkpt lat="47.04633" lon="7.14942">
        <ele>435</ele>
        <time>2022-09-30T15:25:43Z</time>
      </trkpt>
      <trkpt lat="47.04634" lon="7.14948">
        <ele>435.1</ele>
        <time>2022-09-30T15:25:44Z</time>
      </trkpt>
      <trkpt lat="47.04637" lon="7.14955">
        <ele>435.2</ele>
        <time>2022-09-30T15:25:45Z</time>
      </trkpt>
      <trkpt lat="47.04638" lon="7.1496">
        <ele>435.2</ele>
        <time>2022-09-30T15:25:46Z</time>
      </trkpt>
      <trkpt lat="47.0464" lon="7.14964">
        <ele>435.3</ele>
        <time>2022-09-30T15:25:47Z</time>
      </trkpt>
      <trkpt lat="47.04641" lon="7.1497">
        <ele>435.3</ele>
        <time>2022-09-30T15:25:48Z</time>
      </trkpt>
      <trkpt lat="47.0464" lon="7.14976">
        <ele>435.3</ele>
        <time>2022-09-30T15:25:49Z</time>
      </trkpt>
      <trkpt lat="47.0464" lon="7.14982">
        <ele>435.4</ele>
        <time>2022-09-30T15:25:50Z</time>
      </trkpt>
      <trkpt lat="47.04641" lon="7.14987">
        <ele>435.4</ele>
        <time>2022-09-30T15:25:51Z</time>
      </trkpt>
      <trkpt lat="47.04642" lon="7.14993">
        <ele>435.4</ele>
        <time>2022-09-30T15:25:52Z</time>
      </trkpt>
      <trkpt lat="47.04642" lon="7.14999">
        <ele>435.5</ele>
        <time>2022-09-30T15:25:53Z</time>
      </trkpt>
      <trkpt lat="47.04645" lon="7.15003">
        <ele>435.5</ele>
        <time>2022-09-30T15:25:54Z</time>
      </trkpt>
      <trkpt lat="47.04646" lon="7.15009">
        <ele>435.6</ele>
        <time>2022-09-30T15:25:55Z</time>
      </trkpt>
      <trkpt lat="47.04647" lon="7.15014">
        <ele>435.6</ele>
        <time>2022-09-30T15:25:56Z</time>
      </trkpt>
      <trkpt lat="47.04649" lon="7.15018">
        <ele>435.7</ele>
        <time>2022-09-30T15:25:57Z</time>
      </trkpt>
      <trkpt lat="47.04651" lon="7.15023">
        <ele>435.7</ele>
        <time>2022-09-30T15:25:58Z</time>
      </trkpt>
      <trkpt lat="47.04654" lon="7.15027">
        <ele>435.8</ele>
        <time>2022-09-30T15:25:59Z</time>
      </trkpt>
      <trkpt lat="47.04656" lon="7.15031">
        <ele>435.8</ele>
        <time>2022-09-30T15:26:00Z</time>
      </trkpt>
      <trkpt lat="47.04657" lon="7.15035">
        <ele>435.8</ele>
        <time>2022-09-30T15:26:01Z</time>
      </trkpt>
      <trkpt lat="47.04659" lon="7.15039">
        <ele>435.9</ele>
        <time>2022-09-30T15:26:02Z</time>
      </trkpt>
      <trkpt lat="47.0466" lon="7.15043">
        <ele>435.9</ele>
        <time>2022-09-30T15:26:03Z</time>
      </trkpt>
      <trkpt lat="47.04663" lon="7.15047">
        <ele>436</ele>
        <time>2022-09-30T15:26:04Z</time>
      </trkpt>
      <trkpt lat="47.04663" lon="7.15049">
        <ele>436</ele>
        <time>2022-09-30T15:26:05Z</time>
      </trkpt>
      <trkpt lat="47.04666" lon="7.15054">
        <ele>436</ele>
        <time>2022-09-30T15:26:06Z</time>
      </trkpt>
      <trkpt lat="47.04669" lon="7.15058">
        <ele>436.1</ele>
        <time>2022-09-30T15:26:07Z</time>
      </trkpt>
      <trkpt lat="47.0467" lon="7.15062">
        <ele>436.1</ele>
        <time>2022-09-30T15:26:08Z</time>
      </trkpt>
      <trkpt lat="47.04672" lon="7.15067">
        <ele>436.1</ele>
        <time>2022-09-30T15:26:09Z</time>
      </trkpt>
      <trkpt lat="47.04674" lon="7.15072">
        <ele>436.1</ele>
        <time>2022-09-30T15:26:10Z</time>
      </trkpt>
      <trkpt lat="47.04676" lon="7.15077">
        <ele>436.1</ele>
        <time>2022-09-30T15:26:11Z</time>
      </trkpt>
      <trkpt lat="47.04677" lon="7.15081">
        <ele>436.2</ele>
        <time>2022-09-30T15:26:12Z</time>
      </trkpt>
      <trkpt lat="47.04678" lon="7.15085">
        <ele>436.2</ele>
        <time>2022-09-30T15:26:13Z</time>
      </trkpt>
      <trkpt lat="47.04679" lon="7.15091">
        <ele>436.2</ele>
        <time>2022-09-30T15:26:14Z</time>
      </trkpt>
      <trkpt lat="47.0468" lon="7.15097">
        <ele>436.3</ele>
        <time>2022-09-30T15:26:15Z</time>
      </trkpt>
      <trkpt lat="47.0468" lon="7.15101">
        <ele>436.3</ele>
        <time>2022-09-30T15:26:16Z</time>
      </trkpt>
      <trkpt lat="47.04682" lon="7.1511">
        <ele>436.3</ele>
        <time>2022-09-30T15:26:17Z</time>
      </trkpt>
      <trkpt lat="47.04683" lon="7.15116">
        <ele>436.4</ele>
        <time>2022-09-30T15:26:18Z</time>
      </trkpt>
      <trkpt lat="47.04682" lon="7.15121">
        <ele>436.5</ele>
        <time>2022-09-30T15:26:19Z</time>
      </trkpt>
      <trkpt lat="47.04682" lon="7.15128">
        <ele>436.6</ele>
        <time>2022-09-30T15:26:20Z</time>
      </trkpt>
      <trkpt lat="47.04681" lon="7.15134">
        <ele>436.7</ele>
        <time>2022-09-30T15:26:21Z</time>
      </trkpt>
      <trkpt lat="47.04679" lon="7.15139">
        <ele>436.8</ele>
        <time>2022-09-30T15:26:22Z</time>
      </trkpt>
      <trkpt lat="47.04678" lon="7.15143">
        <ele>436.9</ele>
        <time>2022-09-30T15:26:23Z</time>
      </trkpt>
      <trkpt lat="47.04676" lon="7.15148">
        <ele>437</ele>
        <time>2022-09-30T15:26:24Z</time>
      </trkpt>
      <trkpt lat="47.04674" lon="7.15153">
        <ele>437.1</ele>
        <time>2022-09-30T15:26:25Z</time>
      </trkpt>
      <trkpt lat="47.04672" lon="7.15156">
        <ele>437.1</ele>
        <time>2022-09-30T15:26:26Z</time>
      </trkpt>
      <trkpt lat="47.0467" lon="7.1516">
        <ele>437.2</ele>
        <time>2022-09-30T15:26:27Z</time>
      </trkpt>
      <trkpt lat="47.04667" lon="7.15163">
        <ele>437.2</ele>
        <time>2022-09-30T15:26:28Z</time>
      </trkpt>
      <trkpt lat="47.04664" lon="7.15167">
        <ele>437.3</ele>
        <time>2022-09-30T15:26:29Z</time>
      </trkpt>
      <trkpt lat="47.04661" lon="7.1517">
        <ele>437.3</ele>
        <time>2022-09-30T15:26:30Z</time>
      </trkpt>
      <trkpt lat="47.04658" lon="7.15171">
        <ele>437.4</ele>
        <time>2022-09-30T15:26:31Z</time>
      </trkpt>
      <trkpt lat="47.04657" lon="7.15172">
        <ele>437.4</ele>
        <time>2022-09-30T15:26:32Z</time>
      </trkpt>
      <trkpt lat="47.04657" lon="7.15172">
        <ele>437.4</ele>
        <time>2022-09-30T15:26:33Z</time>
      </trkpt>
      <trkpt lat="47.04657" lon="7.15172">
        <ele>437.4</ele>
        <time>2022-09-30T15:26:34Z</time>
      </trkpt>
      <trkpt lat="47.04657" lon="7.15172">
        <ele>437.4</ele>
        <time>2022-09-30T15:26:35Z</time>
      </trkpt>
      <trkpt lat="47.04656" lon="7.15172">
        <ele>437.4</ele>
        <time>2022-09-30T15:26:36Z</time>
      </trkpt>
      <trkpt lat="47.04656" lon="7.15173">
        <ele>437.5</ele>
        <time>2022-09-30T15:26:37Z</time>
      </trkpt>
      <trkpt lat="47.04656" lon="7.15173">
        <ele>437.5</ele>
        <time>2022-09-30T15:26:38Z</time>
      </trkpt>
      <trkpt lat="47.04654" lon="7.15177">
        <ele>437.5</ele>
        <time>2022-09-30T15:26:39Z</time>
      </trkpt>
      <trkpt lat="47.04653" lon="7.1518">
        <ele>437.6</ele>
        <time>2022-09-30T15:26:40Z</time>
      </trkpt>
      <trkpt lat="47.04652" lon="7.15182">
        <ele>437.6</ele>
        <time>2022-09-30T15:26:41Z</time>
      </trkpt>
      <trkpt lat="47.0465" lon="7.15185">
        <ele>437.7</ele>
        <time>2022-09-30T15:26:42Z</time>
      </trkpt>
      <trkpt lat="47.04649" lon="7.15188">
        <ele>437.8</ele>
        <time>2022-09-30T15:26:58Z</time>
      </trkpt>
      <trkpt lat="47.04647" lon="7.1519">
        <ele>437.9</ele>
        <time>2022-09-30T15:26:59Z</time>
      </trkpt>
      <trkpt lat="47.04644" lon="7.15193">
        <ele>438</ele>
        <time>2022-09-30T15:27:00Z</time>
      </trkpt>
      <trkpt lat="47.04643" lon="7.15194">
        <ele>438</ele>
        <time>2022-09-30T15:27:01Z</time>
      </trkpt>
      <trkpt lat="47.04641" lon="7.15197">
        <ele>438.1</ele>
        <time>2022-09-30T15:27:02Z</time>
      </trkpt>
      <trkpt lat="47.0464" lon="7.15198">
        <ele>438.2</ele>
        <time>2022-09-30T15:27:03Z</time>
      </trkpt>
      <trkpt lat="47.04639" lon="7.15199">
        <ele>438.2</ele>
        <time>2022-09-30T15:27:04Z</time>
      </trkpt>
      <trkpt lat="47.04638" lon="7.15201">
        <ele>438.3</ele>
        <time>2022-09-30T15:27:05Z</time>
      </trkpt>
      <trkpt lat="47.04636" lon="7.15205">
        <ele>438.4</ele>
        <time>2022-09-30T15:27:06Z</time>
      </trkpt>
      <trkpt lat="47.04635" lon="7.15207">
        <ele>438.4</ele>
        <time>2022-09-30T15:27:07Z</time>
      </trkpt>
      <trkpt lat="47.04634" lon="7.15209">
        <ele>438.5</ele>
        <time>2022-09-30T15:27:08Z</time>
      </trkpt>
      <trkpt lat="47.04632" lon="7.1521">
        <ele>438.6</ele>
        <time>2022-09-30T15:27:09Z</time>
      </trkpt>
      <trkpt lat="47.04631" lon="7.15212">
        <ele>438.6</ele>
        <time>2022-09-30T15:27:10Z</time>
      </trkpt>
      <trkpt lat="47.0463" lon="7.15214">
        <ele>438.6</ele>
        <time>2022-09-30T15:27:11Z</time>
      </trkpt>
      <trkpt lat="47.04628" lon="7.15217">
        <ele>438.7</ele>
        <time>2022-09-30T15:27:12Z</time>
      </trkpt>
      <trkpt lat="47.04626" lon="7.15214">
        <ele>438.7</ele>
        <time>2022-09-30T15:27:13Z</time>
      </trkpt>
      <trkpt lat="47.04625" lon="7.15213">
        <ele>438.7</ele>
        <time>2022-09-30T15:27:14Z</time>
      </trkpt>
      <trkpt lat="47.04623" lon="7.1521">
        <ele>438.8</ele>
        <time>2022-09-30T15:27:15Z</time>
      </trkpt>
      <trkpt lat="47.04623" lon="7.15209">
        <ele>438.8</ele>
        <time>2022-09-30T15:27:16Z</time>
      </trkpt>
      <trkpt lat="47.04624" lon="7.15209">
        <ele>438.8</ele>
        <time>2022-09-30T15:27:17Z</time>
      </trkpt>
      <trkpt lat="47.04624" lon="7.15209">
        <ele>438.8</ele>
        <time>2022-09-30T15:27:18Z</time>
      </trkpt>
      <trkpt lat="47.04624" lon="7.15209">
        <ele>438.8</ele>
        <time>2022-09-30T15:27:19Z</time>
      </trkpt>
      <trkpt lat="47.04624" lon="7.15209">
        <ele>438.8</ele>
        <time>2022-09-30T15:27:20Z</time>
      </trkpt>
      <trkpt lat="47.04624" lon="7.1521">
        <ele>438.8</ele>
        <time>2022-09-30T15:27:21Z</time>
      </trkpt>
      <trkpt lat="47.04624" lon="7.1521">
        <ele>438.8</ele>
        <time>2022-09-30T15:27:22Z</time>
      </trkpt>
      <trkpt lat="47.04624" lon="7.1521">
        <ele>438.8</ele>
        <time>2022-09-30T15:27:23Z</time>
      </trkpt>
      <trkpt lat="47.04624" lon="7.1521">
        <ele>438.8</ele>
        <time>2022-09-30T15:27:24Z</time>
      </trkpt>
      <trkpt lat="47.04624" lon="7.1521">
        <ele>438.8</ele>
        <time>2022-09-30T15:27:25Z</time>
      </trkpt>
      <trkpt lat="47.04624" lon="7.15211">
        <ele>438.8</ele>
        <time>2022-09-30T15:27:26Z</time>
      </trkpt>
      <trkpt lat="47.04624" lon="7.15211">
        <ele>438.8</ele>
        <time>2022-09-30T15:27:27Z</time>
      </trkpt>
      <trkpt lat="47.04624" lon="7.15211">
        <ele>438.8</ele>
        <time>2022-09-30T15:27:28Z</time>
      </trkpt>
      <trkpt lat="47.04624" lon="7.15211">
        <ele>438.8</ele>
        <time>2022-09-30T15:27:29Z</time>
      </trkpt>
      <trkpt lat="47.04624" lon="7.15211">
        <ele>438.8</ele>
        <time>2022-09-30T15:27:30Z</time>
      </trkpt>
      <trkpt lat="47.04625" lon="7.15212">
        <ele>438.9</ele>
        <time>2022-09-30T15:27:31Z</time>
      </trkpt>
      <trkpt lat="47.04625" lon="7.15212">
        <ele>438.9</ele>
        <time>2022-09-30T15:27:32Z</time>
      </trkpt>
      <trkpt lat="47.04625" lon="7.15212">
        <ele>438.9</ele>
        <time>2022-09-30T15:27:33Z</time>
      </trkpt>
      <trkpt lat="47.04625" lon="7.15212">
        <ele>438.9</ele>
        <time>2022-09-30T15:29:13Z</time>
      </trkpt>
      <trkpt lat="47.04625" lon="7.15212">
        <ele>438.9</ele>
        <time>2022-09-30T15:29:14Z</time>
      </trkpt>
      <trkpt lat="47.04625" lon="7.15213">
        <ele>438.9</ele>
        <time>2022-09-30T15:29:15Z</time>
      </trkpt>
      <trkpt lat="47.04625" lon="7.15213">
        <ele>438.9</ele>
        <time>2022-09-30T15:29:16Z</time>
      </trkpt>
      <trkpt lat="47.04625" lon="7.15213">
        <ele>438.9</ele>
        <time>2022-09-30T15:29:17Z</time>
      </trkpt>
      <trkpt lat="47.04625" lon="7.15213">
        <ele>438.9</ele>
        <time>2022-09-30T15:29:18Z</time>
      </trkpt>
      <trkpt lat="47.04624" lon="7.15214">
        <ele>438.9</ele>
        <time>2022-09-30T15:29:19Z</time>
      </trkpt>
      <trkpt lat="47.04624" lon="7.15216">
        <ele>438.9</ele>
        <time>2022-09-30T15:29:20Z</time>
      </trkpt>
      <trkpt lat="47.04624" lon="7.15218">
        <ele>438.9</ele>
        <time>2022-09-30T15:29:21Z</time>
      </trkpt>
      <trkpt lat="47.04622" lon="7.15219">
        <ele>439</ele>
        <time>2022-09-30T15:29:22Z</time>
      </trkpt>
      <trkpt lat="47.04621" lon="7.15219">
        <ele>439</ele>
        <time>2022-09-30T15:29:23Z</time>
      </trkpt>
      <trkpt lat="47.0462" lon="7.1522">
        <ele>439</ele>
        <time>2022-09-30T15:29:24Z</time>
      </trkpt>
      <trkpt lat="47.04619" lon="7.15221">
        <ele>439</ele>
        <time>2022-09-30T15:29:25Z</time>
      </trkpt>
      <trkpt lat="47.04617" lon="7.15221">
        <ele>439.1</ele>
        <time>2022-09-30T15:29:26Z</time>
      </trkpt>
      <trkpt lat="47.04616" lon="7.15221">
        <ele>439.1</ele>
        <time>2022-09-30T15:29:27Z</time>
      </trkpt>
      <trkpt lat="47.04616" lon="7.15222">
        <ele>439.1</ele>
        <time>2022-09-30T15:29:28Z</time>
      </trkpt>
      <trkpt lat="47.04615" lon="7.15221">
        <ele>439.1</ele>
        <time>2022-09-30T15:29:29Z</time>
      </trkpt>
      <trkpt lat="47.04614" lon="7.15222">
        <ele>439.1</ele>
        <time>2022-09-30T15:29:30Z</time>
      </trkpt>
      <trkpt lat="47.04614" lon="7.15221">
        <ele>439.1</ele>
        <time>2022-09-30T15:29:31Z</time>
      </trkpt>
      <trkpt lat="47.04614" lon="7.15221">
        <ele>439.1</ele>
        <time>2022-09-30T15:29:32Z</time>
      </trkpt>
      <trkpt lat="47.04614" lon="7.1522">
        <ele>439.1</ele>
        <time>2022-09-30T15:29:33Z</time>
      </trkpt>
      <trkpt lat="47.04614" lon="7.1522">
        <ele>439.1</ele>
        <time>2022-09-30T15:29:34Z</time>
      </trkpt>
      <trkpt lat="47.04613" lon="7.15219">
        <ele>439.2</ele>
        <time>2022-09-30T15:29:35Z</time>
      </trkpt>
      <trkpt lat="47.04613" lon="7.15218">
        <ele>439.2</ele>
        <time>2022-09-30T15:29:36Z</time>
      </trkpt>
      <trkpt lat="47.04613" lon="7.15218">
        <ele>439.2</ele>
        <time>2022-09-30T15:29:37Z</time>
      </trkpt>
      <trkpt lat="47.04613" lon="7.15217">
        <ele>439.2</ele>
        <time>2022-09-30T15:29:38Z</time>
      </trkpt>
      <trkpt lat="47.04612" lon="7.15217">
        <ele>439.2</ele>
        <time>2022-09-30T15:29:39Z</time>
      </trkpt>
      <trkpt lat="47.04612" lon="7.15216">
        <ele>439.2</ele>
        <time>2022-09-30T15:29:49Z</time>
      </trkpt>
      <trkpt lat="47.04612" lon="7.15216">
        <ele>439.2</ele>
        <time>2022-09-30T15:29:50Z</time>
      </trkpt>
      <trkpt lat="47.04612" lon="7.15215">
        <ele>439.2</ele>
        <time>2022-09-30T15:29:51Z</time>
      </trkpt>
      <trkpt lat="47.04612" lon="7.15214">
        <ele>439.2</ele>
        <time>2022-09-30T15:29:52Z</time>
      </trkpt>
      <trkpt lat="47.04611" lon="7.15214">
        <ele>439.2</ele>
        <time>2022-09-30T15:29:53Z</time>
      </trkpt>
      <trkpt lat="47.04611" lon="7.15213">
        <ele>439.2</ele>
        <time>2022-09-30T15:29:55Z</time>
      </trkpt>
      <trkpt lat="47.04611" lon="7.15213">
        <ele>439.2</ele>
        <time>2022-09-30T15:29:56Z</time>
      </trkpt>
      <trkpt lat="47.04611" lon="7.15212">
        <ele>439.3</ele>
        <time>2022-09-30T15:29:57Z</time>
      </trkpt>
      <trkpt lat="47.0461" lon="7.15212">
        <ele>439.3</ele>
        <time>2022-09-30T15:29:58Z</time>
      </trkpt>
      <trkpt lat="47.0461" lon="7.15211">
        <ele>439.3</ele>
        <time>2022-09-30T15:43:45Z</time>
      </trkpt>
      <trkpt lat="47.0461" lon="7.15211">
        <ele>439.3</ele>
        <time>2022-09-30T15:43:46Z</time>
      </trkpt>
      <trkpt lat="47.04611" lon="7.1521">
        <ele>439.3</ele>
        <time>2022-09-30T15:43:47Z</time>
      </trkpt>
      <trkpt lat="47.04612" lon="7.1521">
        <ele>439.3</ele>
        <time>2022-09-30T15:43:48Z</time>
      </trkpt>
      <trkpt lat="47.04614" lon="7.15211">
        <ele>439.3</ele>
        <time>2022-09-30T15:43:49Z</time>
      </trkpt>
      <trkpt lat="47.04615" lon="7.15211">
        <ele>439.4</ele>
        <time>2022-09-30T15:43:50Z</time>
      </trkpt>
      <trkpt lat="47.04616" lon="7.15213">
        <ele>439.4</ele>
        <time>2022-09-30T15:43:51Z</time>
      </trkpt>
      <trkpt lat="47.04617" lon="7.15213">
        <ele>439.4</ele>
        <time>2022-09-30T15:43:52Z</time>
      </trkpt>
      <trkpt lat="47.04617" lon="7.15214">
        <ele>439.4</ele>
        <time>2022-09-30T15:43:53Z</time>
      </trkpt>
      <trkpt lat="47.04618" lon="7.15214">
        <ele>439.4</ele>
        <time>2022-09-30T15:43:54Z</time>
      </trkpt>
      <trkpt lat="47.04617" lon="7.15214">
        <ele>439.4</ele>
        <time>2022-09-30T15:43:55Z</time>
      </trkpt>
      <trkpt lat="47.04616" lon="7.15213">
        <ele>439.5</ele>
        <time>2022-09-30T15:43:56Z</time>
      </trkpt>
      <trkpt lat="47.04616" lon="7.15213">
        <ele>439.5</ele>
        <time>2022-09-30T15:43:57Z</time>
      </trkpt>
      <trkpt lat="47.04615" lon="7.15213">
        <ele>439.5</ele>
        <time>2022-09-30T15:43:58Z</time>
      </trkpt>
      <trkpt lat="47.04615" lon="7.15213">
        <ele>439.5</ele>
        <time>2022-09-30T15:43:59Z</time>
      </trkpt>
      <trkpt lat="47.04615" lon="7.15212">
        <ele>439.5</ele>
        <time>2022-09-30T15:44:00Z</time>
      </trkpt>
      <trkpt lat="47.04616" lon="7.15211">
        <ele>439.5</ele>
        <time>2022-09-30T15:44:01Z</time>
      </trkpt>
      <trkpt lat="47.04616" lon="7.15211">
        <ele>439.5</ele>
        <time>2022-09-30T15:44:02Z</time>
      </trkpt>
      <trkpt lat="47.04616" lon="7.15212">
        <ele>439.5</ele>
        <time>2022-09-30T15:44:03Z</time>
      </trkpt>
      <trkpt lat="47.04616" lon="7.15212">
        <ele>439.5</ele>
        <time>2022-09-30T15:44:04Z</time>
      </trkpt>
      <trkpt lat="47.04625" lon="7.15183">
        <ele>437.6</ele>
        <time>2022-10-01T06:51:31Z</time>
      </trkpt>
      <trkpt lat="47.04624" lon="7.15181">
        <ele>437.6</ele>
        <time>2022-10-01T06:51:32Z</time>
      </trkpt>
      <trkpt lat="47.04624" lon="7.15182">
        <ele>437.6</ele>
        <time>2022-10-01T06:51:38Z</time>
      </trkpt>
      <trkpt lat="47.04624" lon="7.15183">
        <ele>437.6</ele>
        <time>2022-10-01T06:51:46Z</time>
      </trkpt>
      <trkpt lat="47.04623" lon="7.15184">
        <ele>437.6</ele>
        <time>2022-10-01T06:51:47Z</time>
      </trkpt>
      <trkpt lat="47.04623" lon="7.15185">
        <ele>437.6</ele>
        <time>2022-10-01T06:51:48Z</time>
      </trkpt>
      <trkpt lat="47.04623" lon="7.15185">
        <ele>437.7</ele>
        <time>2022-10-01T06:51:49Z</time>
      </trkpt>
      <trkpt lat="47.04623" lon="7.15186">
        <ele>437.7</ele>
        <time>2022-10-01T06:51:50Z</time>
      </trkpt>
      <trkpt lat="47.04624" lon="7.15186">
        <ele>437.7</ele>
        <time>2022-10-01T06:51:51Z</time>
      </trkpt>
      <trkpt lat="47.04624" lon="7.15185">
        <ele>437.7</ele>
        <time>2022-10-01T06:51:52Z</time>
      </trkpt>
      <trkpt lat="47.04622" lon="7.15184">
        <ele>437.7</ele>
        <time>2022-10-01T06:51:53Z</time>
      </trkpt>
      <trkpt lat="47.04623" lon="7.15184">
        <ele>437.8</ele>
        <time>2022-10-01T06:51:54Z</time>
      </trkpt>
      <trkpt lat="47.04623" lon="7.15183">
        <ele>437.8</ele>
        <time>2022-10-01T06:51:55Z</time>
      </trkpt>
      <trkpt lat="47.04622" lon="7.15183">
        <ele>437.8</ele>
        <time>2022-10-01T06:51:56Z</time>
      </trkpt>
      <trkpt lat="47.0462" lon="7.15185">
        <ele>437.8</ele>
        <time>2022-10-01T06:52:00Z</time>
      </trkpt>
      <trkpt lat="47.04621" lon="7.15184">
        <ele>437.9</ele>
        <time>2022-10-01T06:52:01Z</time>
      </trkpt>
      <trkpt lat="47.04623" lon="7.15181">
        <ele>437.9</ele>
        <time>2022-10-01T06:52:02Z</time>
      </trkpt>
      <trkpt lat="47.04623" lon="7.15183">
        <ele>437.9</ele>
        <time>2022-10-01T06:52:03Z</time>
      </trkpt>
      <trkpt lat="47.04623" lon="7.15183">
        <ele>437.9</ele>
        <time>2022-10-01T06:52:04Z</time>
      </trkpt>
      <trkpt lat="47.04624" lon="7.15184">
        <ele>438</ele>
        <time>2022-10-01T06:52:05Z</time>
      </trkpt>
      <trkpt lat="47.04624" lon="7.15185">
        <ele>438</ele>
        <time>2022-10-01T06:52:06Z</time>
      </trkpt>
      <trkpt lat="47.04624" lon="7.15186">
        <ele>438</ele>
        <time>2022-10-01T06:52:07Z</time>
      </trkpt>
      <trkpt lat="47.04625" lon="7.15187">
        <ele>438</ele>
        <time>2022-10-01T06:52:08Z</time>
      </trkpt>
      <trkpt lat="47.04625" lon="7.15188">
        <ele>438</ele>
        <time>2022-10-01T06:52:09Z</time>
      </trkpt>
      <trkpt lat="47.04626" lon="7.15188">
        <ele>438</ele>
        <time>2022-10-01T06:52:10Z</time>
      </trkpt>
      <trkpt lat="47.04626" lon="7.15189">
        <ele>438.1</ele>
        <time>2022-10-01T06:52:11Z</time>
      </trkpt>
      <trkpt lat="47.04626" lon="7.1519">
        <ele>438.1</ele>
        <time>2022-10-01T06:52:12Z</time>
      </trkpt>
      <trkpt lat="47.04627" lon="7.15191">
        <ele>438.1</ele>
        <time>2022-10-01T06:52:13Z</time>
      </trkpt>
      <trkpt lat="47.04629" lon="7.15195">
        <ele>438.2</ele>
        <time>2022-10-01T06:52:14Z</time>
      </trkpt>
      <trkpt lat="47.04629" lon="7.15196">
        <ele>438.2</ele>
        <time>2022-10-01T06:52:15Z</time>
      </trkpt>
      <trkpt lat="47.04631" lon="7.15199">
        <ele>438.2</ele>
        <time>2022-10-01T06:52:16Z</time>
      </trkpt>
      <trkpt lat="47.04632" lon="7.152">
        <ele>438.3</ele>
        <time>2022-10-01T06:52:17Z</time>
      </trkpt>
      <trkpt lat="47.04632" lon="7.15203">
        <ele>438.3</ele>
        <time>2022-10-01T06:52:18Z</time>
      </trkpt>
      <trkpt lat="47.04632" lon="7.15205">
        <ele>438.3</ele>
        <time>2022-10-01T06:52:19Z</time>
      </trkpt>
      <trkpt lat="47.04635" lon="7.15205">
        <ele>438.4</ele>
        <time>2022-10-01T06:52:20Z</time>
      </trkpt>
      <trkpt lat="47.04636" lon="7.15205">
        <ele>438.4</ele>
        <time>2022-10-01T06:52:21Z</time>
      </trkpt>
      <trkpt lat="47.0464" lon="7.15203">
        <ele>438.2</ele>
        <time>2022-10-01T06:52:22Z</time>
      </trkpt>
      <trkpt lat="47.04641" lon="7.15202">
        <ele>438.2</ele>
        <time>2022-10-01T06:52:23Z</time>
      </trkpt>
      <trkpt lat="47.04644" lon="7.15198">
        <ele>438.1</ele>
        <time>2022-10-01T06:52:24Z</time>
      </trkpt>
      <trkpt lat="47.04647" lon="7.15194">
        <ele>437.9</ele>
        <time>2022-10-01T06:52:25Z</time>
      </trkpt>
      <trkpt lat="47.0465" lon="7.1519">
        <ele>437.8</ele>
        <time>2022-10-01T06:52:26Z</time>
      </trkpt>
      <trkpt lat="47.04653" lon="7.15186">
        <ele>437.7</ele>
        <time>2022-10-01T06:52:27Z</time>
      </trkpt>
      <trkpt lat="47.04657" lon="7.15181">
        <ele>437.5</ele>
        <time>2022-10-01T06:52:28Z</time>
      </trkpt>
      <trkpt lat="47.04661" lon="7.15176">
        <ele>437.4</ele>
        <time>2022-10-01T06:52:29Z</time>
      </trkpt>
      <trkpt lat="47.04665" lon="7.15172">
        <ele>437.3</ele>
        <time>2022-10-01T06:52:30Z</time>
      </trkpt>
      <trkpt lat="47.04669" lon="7.15169">
        <ele>437.3</ele>
        <time>2022-10-01T06:52:31Z</time>
      </trkpt>
      <trkpt lat="47.04671" lon="7.15165">
        <ele>437.2</ele>
        <time>2022-10-01T06:52:32Z</time>
      </trkpt>
      <trkpt lat="47.04673" lon="7.15163">
        <ele>437.2</ele>
        <time>2022-10-01T06:52:33Z</time>
      </trkpt>
      <trkpt lat="47.04674" lon="7.15164">
        <ele>437</ele>
        <time>2022-10-01T06:52:34Z</time>
      </trkpt>
      <trkpt lat="47.04675" lon="7.15168">
        <ele>436.9</ele>
        <time>2022-10-01T06:52:35Z</time>
      </trkpt>
      <trkpt lat="47.04676" lon="7.15172">
        <ele>436.8</ele>
        <time>2022-10-01T06:52:36Z</time>
      </trkpt>
      <trkpt lat="47.04677" lon="7.15176">
        <ele>436.7</ele>
        <time>2022-10-01T06:52:37Z</time>
      </trkpt>
      <trkpt lat="47.04679" lon="7.15181">
        <ele>436.5</ele>
        <time>2022-10-01T06:52:38Z</time>
      </trkpt>
      <trkpt lat="47.04681" lon="7.15185">
        <ele>436.4</ele>
        <time>2022-10-01T06:52:39Z</time>
      </trkpt>
      <trkpt lat="47.04682" lon="7.1519">
        <ele>436.3</ele>
        <time>2022-10-01T06:52:40Z</time>
      </trkpt>
      <trkpt lat="47.04684" lon="7.15197">
        <ele>436.1</ele>
        <time>2022-10-01T06:52:41Z</time>
      </trkpt>
      <trkpt lat="47.04684" lon="7.15202">
        <ele>436</ele>
        <time>2022-10-01T06:52:42Z</time>
      </trkpt>
      <trkpt lat="47.04682" lon="7.1521">
        <ele>435.9</ele>
        <time>2022-10-01T06:52:43Z</time>
      </trkpt>
      <trkpt lat="47.04679" lon="7.15215">
        <ele>435.8</ele>
        <time>2022-10-01T06:52:44Z</time>
      </trkpt>
      <trkpt lat="47.04677" lon="7.15221">
        <ele>435.7</ele>
        <time>2022-10-01T06:52:45Z</time>
      </trkpt>
      <trkpt lat="47.04676" lon="7.15227">
        <ele>435.6</ele>
        <time>2022-10-01T06:52:46Z</time>
      </trkpt>
      <trkpt lat="47.04674" lon="7.15233">
        <ele>435.6</ele>
        <time>2022-10-01T06:52:47Z</time>
      </trkpt>
      <trkpt lat="47.04672" lon="7.15239">
        <ele>435.6</ele>
        <time>2022-10-01T06:52:48Z</time>
      </trkpt>
      <trkpt lat="47.04669" lon="7.15244">
        <ele>435.5</ele>
        <time>2022-10-01T06:52:49Z</time>
      </trkpt>
      <trkpt lat="47.04668" lon="7.15248">
        <ele>435.5</ele>
        <time>2022-10-01T06:52:50Z</time>
      </trkpt>
      <trkpt lat="47.04666" lon="7.15256">
        <ele>435.5</ele>
        <time>2022-10-01T06:52:51Z</time>
      </trkpt>
      <trkpt lat="47.04665" lon="7.15262">
        <ele>435.5</ele>
        <time>2022-10-01T06:52:52Z</time>
      </trkpt>
      <trkpt lat="47.04663" lon="7.15269">
        <ele>435.6</ele>
        <time>2022-10-01T06:52:53Z</time>
      </trkpt>
      <trkpt lat="47.04662" lon="7.15277">
        <ele>435.6</ele>
        <time>2022-10-01T06:52:54Z</time>
      </trkpt>
      <trkpt lat="47.04658" lon="7.15287">
        <ele>435.6</ele>
        <time>2022-10-01T06:52:55Z</time>
      </trkpt>
      <trkpt lat="47.04657" lon="7.1529">
        <ele>435.6</ele>
        <time>2022-10-01T06:52:56Z</time>
      </trkpt>
      <trkpt lat="47.04656" lon="7.15296">
        <ele>435.6</ele>
        <time>2022-10-01T06:52:57Z</time>
      </trkpt>
      <trkpt lat="47.04656" lon="7.15302">
        <ele>435.5</ele>
        <time>2022-10-01T06:52:58Z</time>
      </trkpt>
      <trkpt lat="47.04654" lon="7.15308">
        <ele>435.5</ele>
        <time>2022-10-01T06:52:59Z</time>
      </trkpt>
      <trkpt lat="47.04652" lon="7.15314">
        <ele>435.5</ele>
        <time>2022-10-01T06:53:00Z</time>
      </trkpt>
      <trkpt lat="47.04652" lon="7.15321">
        <ele>435.4</ele>
        <time>2022-10-01T06:53:01Z</time>
      </trkpt>
      <trkpt lat="47.04651" lon="7.15328">
        <ele>435.4</ele>
        <time>2022-10-01T06:53:02Z</time>
      </trkpt>
      <trkpt lat="47.0465" lon="7.15334">
        <ele>435.4</ele>
        <time>2022-10-01T06:53:03Z</time>
      </trkpt>
      <trkpt lat="47.04649" lon="7.1534">
        <ele>435.3</ele>
        <time>2022-10-01T06:53:04Z</time>
      </trkpt>
      <trkpt lat="47.04647" lon="7.15346">
        <ele>435.3</ele>
        <time>2022-10-01T06:53:05Z</time>
      </trkpt>
      <trkpt lat="47.04646" lon="7.15352">
        <ele>435.2</ele>
        <time>2022-10-01T06:53:06Z</time>
      </trkpt>
      <trkpt lat="47.04645" lon="7.15358">
        <ele>435.2</ele>
        <time>2022-10-01T06:53:07Z</time>
      </trkpt>
      <trkpt lat="47.04643" lon="7.15366">
        <ele>435.1</ele>
        <time>2022-10-01T06:53:08Z</time>
      </trkpt>
      <trkpt lat="47.04642" lon="7.15373">
        <ele>435.1</ele>
        <time>2022-10-01T06:53:09Z</time>
      </trkpt>
      <trkpt lat="47.04641" lon="7.1538">
        <ele>435.1</ele>
        <time>2022-10-01T06:53:10Z</time>
      </trkpt>
      <trkpt lat="47.0464" lon="7.15387">
        <ele>435</ele>
        <time>2022-10-01T06:53:11Z</time>
      </trkpt>
      <trkpt lat="47.04639" lon="7.15393">
        <ele>435</ele>
        <time>2022-10-01T06:53:12Z</time>
      </trkpt>
      <trkpt lat="47.04638" lon="7.154">
        <ele>435</ele>
        <time>2022-10-01T06:53:13Z</time>
      </trkpt>
      <trkpt lat="47.04638" lon="7.15406">
        <ele>435</ele>
        <time>2022-10-01T06:53:14Z</time>
      </trkpt>
      <trkpt lat="47.04637" lon="7.15413">
        <ele>434.9</ele>
        <time>2022-10-01T06:53:15Z</time>
      </trkpt>
      <trkpt lat="47.04636" lon="7.15418">
        <ele>434.9</ele>
        <time>2022-10-01T06:53:16Z</time>
      </trkpt>
      <trkpt lat="47.04635" lon="7.15425">
        <ele>434.9</ele>
        <time>2022-10-01T06:53:17Z</time>
      </trkpt>
      <trkpt lat="47.04633" lon="7.15432">
        <ele>434.8</ele>
        <time>2022-10-01T06:53:18Z</time>
      </trkpt>
      <trkpt lat="47.04634" lon="7.15439">
        <ele>434.8</ele>
        <time>2022-10-01T06:53:19Z</time>
      </trkpt>
      <trkpt lat="47.04634" lon="7.15445">
        <ele>434.8</ele>
        <time>2022-10-01T06:53:20Z</time>
      </trkpt>
      <trkpt lat="47.04634" lon="7.15452">
        <ele>434.8</ele>
        <time>2022-10-01T06:53:21Z</time>
      </trkpt>
      <trkpt lat="47.04633" lon="7.15458">
        <ele>434.8</ele>
        <time>2022-10-01T06:53:22Z</time>
      </trkpt>
      <trkpt lat="47.04634" lon="7.15465">
        <ele>434.8</ele>
        <time>2022-10-01T06:53:23Z</time>
      </trkpt>
      <trkpt lat="47.04634" lon="7.15473">
        <ele>434.8</ele>
        <time>2022-10-01T06:53:24Z</time>
      </trkpt>
      <trkpt lat="47.04634" lon="7.15479">
        <ele>434.8</ele>
        <time>2022-10-01T06:53:25Z</time>
      </trkpt>
      <trkpt lat="47.04636" lon="7.15487">
        <ele>434.8</ele>
        <time>2022-10-01T06:53:26Z</time>
      </trkpt>
      <trkpt lat="47.04636" lon="7.15493">
        <ele>434.8</ele>
        <time>2022-10-01T06:53:27Z</time>
      </trkpt>
      <trkpt lat="47.04638" lon="7.155">
        <ele>434.8</ele>
        <time>2022-10-01T06:53:28Z</time>
      </trkpt>
      <trkpt lat="47.04637" lon="7.15506">
        <ele>434.8</ele>
        <time>2022-10-01T06:53:29Z</time>
      </trkpt>
      <trkpt lat="47.04637" lon="7.15513">
        <ele>434.8</ele>
        <time>2022-10-01T06:53:30Z</time>
      </trkpt>
      <trkpt lat="47.04639" lon="7.15518">
        <ele>434.8</ele>
        <time>2022-10-01T06:53:31Z</time>
      </trkpt>
      <trkpt lat="47.0464" lon="7.15526">
        <ele>434.9</ele>
        <time>2022-10-01T06:53:32Z</time>
      </trkpt>
      <trkpt lat="47.04641" lon="7.15531">
        <ele>434.9</ele>
        <time>2022-10-01T06:53:33Z</time>
      </trkpt>
      <trkpt lat="47.04642" lon="7.15538">
        <ele>434.9</ele>
        <time>2022-10-01T06:53:34Z</time>
      </trkpt>
      <trkpt lat="47.04644" lon="7.15542">
        <ele>434.9</ele>
        <time>2022-10-01T06:53:35Z</time>
      </trkpt>
      <trkpt lat="47.04644" lon="7.15549">
        <ele>434.9</ele>
        <time>2022-10-01T06:53:36Z</time>
      </trkpt>
      <trkpt lat="47.04646" lon="7.15555">
        <ele>434.9</ele>
        <time>2022-10-01T06:53:37Z</time>
      </trkpt>
      <trkpt lat="47.04647" lon="7.15561">
        <ele>434.9</ele>
        <time>2022-10-01T06:53:38Z</time>
      </trkpt>
      <trkpt lat="47.04646" lon="7.15568">
        <ele>435</ele>
        <time>2022-10-01T06:53:39Z</time>
      </trkpt>
      <trkpt lat="47.04648" lon="7.15574">
        <ele>435</ele>
        <time>2022-10-01T06:53:40Z</time>
      </trkpt>
      <trkpt lat="47.04649" lon="7.1558">
        <ele>435</ele>
        <time>2022-10-01T06:53:41Z</time>
      </trkpt>
      <trkpt lat="47.04651" lon="7.15586">
        <ele>435</ele>
        <time>2022-10-01T06:53:42Z</time>
      </trkpt>
      <trkpt lat="47.04651" lon="7.15593">
        <ele>435</ele>
        <time>2022-10-01T06:53:43Z</time>
      </trkpt>
      <trkpt lat="47.04653" lon="7.156">
        <ele>435</ele>
        <time>2022-10-01T06:53:44Z</time>
      </trkpt>
      <trkpt lat="47.04654" lon="7.15606">
        <ele>435</ele>
        <time>2022-10-01T06:53:45Z</time>
      </trkpt>
      <trkpt lat="47.04655" lon="7.15612">
        <ele>435</ele>
        <time>2022-10-01T06:53:46Z</time>
      </trkpt>
      <trkpt lat="47.04656" lon="7.15618">
        <ele>435</ele>
        <time>2022-10-01T06:53:47Z</time>
      </trkpt>
      <trkpt lat="47.04657" lon="7.15623">
        <ele>435</ele>
        <time>2022-10-01T06:53:48Z</time>
      </trkpt>
      <trkpt lat="47.04659" lon="7.15629">
        <ele>435</ele>
        <time>2022-10-01T06:53:49Z</time>
      </trkpt>
      <trkpt lat="47.04661" lon="7.15635">
        <ele>435</ele>
        <time>2022-10-01T06:53:50Z</time>
      </trkpt>
      <trkpt lat="47.04663" lon="7.15641">
        <ele>435</ele>
        <time>2022-10-01T06:53:51Z</time>
      </trkpt>
      <trkpt lat="47.04664" lon="7.15647">
        <ele>434.9</ele>
        <time>2022-10-01T06:53:52Z</time>
      </trkpt>
      <trkpt lat="47.04666" lon="7.15654">
        <ele>434.9</ele>
        <time>2022-10-01T06:53:53Z</time>
      </trkpt>
      <trkpt lat="47.04668" lon="7.1566">
        <ele>434.9</ele>
        <time>2022-10-01T06:53:54Z</time>
      </trkpt>
      <trkpt lat="47.0467" lon="7.15665">
        <ele>434.9</ele>
        <time>2022-10-01T06:53:55Z</time>
      </trkpt>
      <trkpt lat="47.04672" lon="7.15671">
        <ele>434.9</ele>
        <time>2022-10-01T06:53:56Z</time>
      </trkpt>
      <trkpt lat="47.04674" lon="7.15677">
        <ele>434.9</ele>
        <time>2022-10-01T06:53:57Z</time>
      </trkpt>
      <trkpt lat="47.04675" lon="7.15682">
        <ele>434.8</ele>
        <time>2022-10-01T06:53:58Z</time>
      </trkpt>
      <trkpt lat="47.04677" lon="7.15685">
        <ele>434.8</ele>
        <time>2022-10-01T06:53:59Z</time>
      </trkpt>
      <trkpt lat="47.04678" lon="7.15693">
        <ele>434.8</ele>
        <time>2022-10-01T06:54:00Z</time>
      </trkpt>
      <trkpt lat="47.0468" lon="7.157">
        <ele>434.8</ele>
        <time>2022-10-01T06:54:02Z</time>
      </trkpt>
      <trkpt lat="47.04681" lon="7.15707">
        <ele>434.8</ele>
        <time>2022-10-01T06:54:03Z</time>
      </trkpt>
      <trkpt lat="47.04683" lon="7.15713">
        <ele>434.7</ele>
        <time>2022-10-01T06:54:04Z</time>
      </trkpt>
      <trkpt lat="47.04683" lon="7.1572">
        <ele>434.7</ele>
        <time>2022-10-01T06:54:05Z</time>
      </trkpt>
      <trkpt lat="47.04684" lon="7.15727">
        <ele>434.7</ele>
        <time>2022-10-01T06:54:06Z</time>
      </trkpt>
      <trkpt lat="47.04685" lon="7.15734">
        <ele>434.7</ele>
        <time>2022-10-01T06:54:07Z</time>
      </trkpt>
      <trkpt lat="47.04686" lon="7.1574">
        <ele>434.6</ele>
        <time>2022-10-01T06:54:08Z</time>
      </trkpt>
      <trkpt lat="47.04687" lon="7.15745">
        <ele>434.6</ele>
        <time>2022-10-01T06:54:09Z</time>
      </trkpt>
      <trkpt lat="47.04686" lon="7.1575">
        <ele>434.6</ele>
        <time>2022-10-01T06:54:10Z</time>
      </trkpt>
      <trkpt lat="47.04687" lon="7.15756">
        <ele>434.6</ele>
        <time>2022-10-01T06:54:11Z</time>
      </trkpt>
      <trkpt lat="47.04689" lon="7.15764">
        <ele>434.6</ele>
        <time>2022-10-01T06:54:12Z</time>
      </trkpt>
      <trkpt lat="47.0469" lon="7.15772">
        <ele>434.5</ele>
        <time>2022-10-01T06:54:13Z</time>
      </trkpt>
      <trkpt lat="47.0469" lon="7.15777">
        <ele>434.5</ele>
        <time>2022-10-01T06:54:14Z</time>
      </trkpt>
      <trkpt lat="47.04691" lon="7.15783">
        <ele>434.5</ele>
        <time>2022-10-01T06:54:15Z</time>
      </trkpt>
      <trkpt lat="47.04691" lon="7.1579">
        <ele>434.5</ele>
        <time>2022-10-01T06:54:16Z</time>
      </trkpt>
      <trkpt lat="47.04693" lon="7.15795">
        <ele>434.5</ele>
        <time>2022-10-01T06:54:17Z</time>
      </trkpt>
      <trkpt lat="47.04693" lon="7.15799">
        <ele>434.5</ele>
        <time>2022-10-01T06:54:18Z</time>
      </trkpt>
      <trkpt lat="47.04694" lon="7.15804">
        <ele>434.5</ele>
        <time>2022-10-01T06:54:19Z</time>
      </trkpt>
      <trkpt lat="47.04697" lon="7.1581">
        <ele>434.5</ele>
        <time>2022-10-01T06:54:20Z</time>
      </trkpt>
      <trkpt lat="47.04698" lon="7.15814">
        <ele>434.5</ele>
        <time>2022-10-01T06:54:21Z</time>
      </trkpt>
      <trkpt lat="47.047" lon="7.15822">
        <ele>434.5</ele>
        <time>2022-10-01T06:54:22Z</time>
      </trkpt>
      <trkpt lat="47.04702" lon="7.15829">
        <ele>434.5</ele>
        <time>2022-10-01T06:54:23Z</time>
      </trkpt>
      <trkpt lat="47.04704" lon="7.15835">
        <ele>434.5</ele>
        <time>2022-10-01T06:54:24Z</time>
      </trkpt>
      <trkpt lat="47.04707" lon="7.15842">
        <ele>434.5</ele>
        <time>2022-10-01T06:54:25Z</time>
      </trkpt>
      <trkpt lat="47.04709" lon="7.1585">
        <ele>434.5</ele>
        <time>2022-10-01T06:54:26Z</time>
      </trkpt>
      <trkpt lat="47.04711" lon="7.15856">
        <ele>434.5</ele>
        <time>2022-10-01T06:54:27Z</time>
      </trkpt>
      <trkpt lat="47.04713" lon="7.15865">
        <ele>434.5</ele>
        <time>2022-10-01T06:54:28Z</time>
      </trkpt>
      <trkpt lat="47.04715" lon="7.15873">
        <ele>434.5</ele>
        <time>2022-10-01T06:54:29Z</time>
      </trkpt>
      <trkpt lat="47.04717" lon="7.1588">
        <ele>434.5</ele>
        <time>2022-10-01T06:54:30Z</time>
      </trkpt>
      <trkpt lat="47.04718" lon="7.15887">
        <ele>434.5</ele>
        <time>2022-10-01T06:54:31Z</time>
      </trkpt>
      <trkpt lat="47.0472" lon="7.15894">
        <ele>434.5</ele>
        <time>2022-10-01T06:54:32Z</time>
      </trkpt>
      <trkpt lat="47.04722" lon="7.15902">
        <ele>434.5</ele>
        <time>2022-10-01T06:54:33Z</time>
      </trkpt>
      <trkpt lat="47.04725" lon="7.15909">
        <ele>434.5</ele>
        <time>2022-10-01T06:54:34Z</time>
      </trkpt>
      <trkpt lat="47.04726" lon="7.15916">
        <ele>434.5</ele>
        <time>2022-10-01T06:54:35Z</time>
      </trkpt>
      <trkpt lat="47.04728" lon="7.15922">
        <ele>434.5</ele>
        <time>2022-10-01T06:54:36Z</time>
      </trkpt>
      <trkpt lat="47.04729" lon="7.15929">
        <ele>434.5</ele>
        <time>2022-10-01T06:54:37Z</time>
      </trkpt>
      <trkpt lat="47.0473" lon="7.15935">
        <ele>434.5</ele>
        <time>2022-10-01T06:54:38Z</time>
      </trkpt>
      <trkpt lat="47.04732" lon="7.15941">
        <ele>434.5</ele>
        <time>2022-10-01T06:54:39Z</time>
      </trkpt>
      <trkpt lat="47.04733" lon="7.15948">
        <ele>434.5</ele>
        <time>2022-10-01T06:54:40Z</time>
      </trkpt>
      <trkpt lat="47.04734" lon="7.15954">
        <ele>434.5</ele>
        <time>2022-10-01T06:54:41Z</time>
      </trkpt>
      <trkpt lat="47.04735" lon="7.1596">
        <ele>434.5</ele>
        <time>2022-10-01T06:54:42Z</time>
      </trkpt>
      <trkpt lat="47.04736" lon="7.15966">
        <ele>434.5</ele>
        <time>2022-10-01T06:54:43Z</time>
      </trkpt>
      <trkpt lat="47.04738" lon="7.15972">
        <ele>434.5</ele>
        <time>2022-10-01T06:54:44Z</time>
      </trkpt>
      <trkpt lat="47.04739" lon="7.1598">
        <ele>434.5</ele>
        <time>2022-10-01T06:54:45Z</time>
      </trkpt>
      <trkpt lat="47.0474" lon="7.15986">
        <ele>434.5</ele>
        <time>2022-10-01T06:54:46Z</time>
      </trkpt>
      <trkpt lat="47.04741" lon="7.15991">
        <ele>434.5</ele>
        <time>2022-10-01T06:54:47Z</time>
      </trkpt>
      <trkpt lat="47.04743" lon="7.15998">
        <ele>434.5</ele>
        <time>2022-10-01T06:54:48Z</time>
      </trkpt>
      <trkpt lat="47.04744" lon="7.16005">
        <ele>434.5</ele>
        <time>2022-10-01T06:54:49Z</time>
      </trkpt>
      <trkpt lat="47.04746" lon="7.16012">
        <ele>434.5</ele>
        <time>2022-10-01T06:54:50Z</time>
      </trkpt>
      <trkpt lat="47.04748" lon="7.16016">
        <ele>434.5</ele>
        <time>2022-10-01T06:54:51Z</time>
      </trkpt>
      <trkpt lat="47.04749" lon="7.16022">
        <ele>434.5</ele>
        <time>2022-10-01T06:54:52Z</time>
      </trkpt>
      <trkpt lat="47.0475" lon="7.16029">
        <ele>434.5</ele>
        <time>2022-10-01T06:54:53Z</time>
      </trkpt>
      <trkpt lat="47.04752" lon="7.16035">
        <ele>434.5</ele>
        <time>2022-10-01T06:54:54Z</time>
      </trkpt>
      <trkpt lat="47.04754" lon="7.16043">
        <ele>434.5</ele>
        <time>2022-10-01T06:54:55Z</time>
      </trkpt>
      <trkpt lat="47.04756" lon="7.16049">
        <ele>434.5</ele>
        <time>2022-10-01T06:54:56Z</time>
      </trkpt>
      <trkpt lat="47.04757" lon="7.16055">
        <ele>434.5</ele>
        <time>2022-10-01T06:54:57Z</time>
      </trkpt>
      <trkpt lat="47.04759" lon="7.1606">
        <ele>434.5</ele>
        <time>2022-10-01T06:54:58Z</time>
      </trkpt>
      <trkpt lat="47.04762" lon="7.16065">
        <ele>434.5</ele>
        <time>2022-10-01T06:54:59Z</time>
      </trkpt>
      <trkpt lat="47.04764" lon="7.16071">
        <ele>434.5</ele>
        <time>2022-10-01T06:55:00Z</time>
      </trkpt>
      <trkpt lat="47.04766" lon="7.16076">
        <ele>434.5</ele>
        <time>2022-10-01T06:55:01Z</time>
      </trkpt>
      <trkpt lat="47.04769" lon="7.16082">
        <ele>434.5</ele>
        <time>2022-10-01T06:55:02Z</time>
      </trkpt>
      <trkpt lat="47.04773" lon="7.16092">
        <ele>434.5</ele>
        <time>2022-10-01T06:55:03Z</time>
      </trkpt>
      <trkpt lat="47.04776" lon="7.16098">
        <ele>434.5</ele>
        <time>2022-10-01T06:55:04Z</time>
      </trkpt>
      <trkpt lat="47.04778" lon="7.16104">
        <ele>434.5</ele>
        <time>2022-10-01T06:55:05Z</time>
      </trkpt>
      <trkpt lat="47.0478" lon="7.16109">
        <ele>434.5</ele>
        <time>2022-10-01T06:55:06Z</time>
      </trkpt>
      <trkpt lat="47.04783" lon="7.16114">
        <ele>434.5</ele>
        <time>2022-10-01T06:55:07Z</time>
      </trkpt>
      <trkpt lat="47.04786" lon="7.1612">
        <ele>434.5</ele>
        <time>2022-10-01T06:55:08Z</time>
      </trkpt>
      <trkpt lat="47.04788" lon="7.16126">
        <ele>434.5</ele>
        <time>2022-10-01T06:55:09Z</time>
      </trkpt>
      <trkpt lat="47.0479" lon="7.16132">
        <ele>434.5</ele>
        <time>2022-10-01T06:55:10Z</time>
      </trkpt>
      <trkpt lat="47.04792" lon="7.16138">
        <ele>434.5</ele>
        <time>2022-10-01T06:55:11Z</time>
      </trkpt>
      <trkpt lat="47.04795" lon="7.16143">
        <ele>434.4</ele>
        <time>2022-10-01T06:55:12Z</time>
      </trkpt>
      <trkpt lat="47.04796" lon="7.16147">
        <ele>434.4</ele>
        <time>2022-10-01T06:55:13Z</time>
      </trkpt>
      <trkpt lat="47.04799" lon="7.16154">
        <ele>434.4</ele>
        <time>2022-10-01T06:55:14Z</time>
      </trkpt>
      <trkpt lat="47.04802" lon="7.16161">
        <ele>434.4</ele>
        <time>2022-10-01T06:55:15Z</time>
      </trkpt>
      <trkpt lat="47.04805" lon="7.16164">
        <ele>434.4</ele>
        <time>2022-10-01T06:55:16Z</time>
      </trkpt>
      <trkpt lat="47.04808" lon="7.1617">
        <ele>434.4</ele>
        <time>2022-10-01T06:55:17Z</time>
      </trkpt>
      <trkpt lat="47.04811" lon="7.16176">
        <ele>434.4</ele>
        <time>2022-10-01T06:55:18Z</time>
      </trkpt>
      <trkpt lat="47.04812" lon="7.16179">
        <ele>434.4</ele>
        <time>2022-10-01T06:55:19Z</time>
      </trkpt>
      <trkpt lat="47.04814" lon="7.16184">
        <ele>434.4</ele>
        <time>2022-10-01T06:55:20Z</time>
      </trkpt>
      <trkpt lat="47.04817" lon="7.16189">
        <ele>434.4</ele>
        <time>2022-10-01T06:55:21Z</time>
      </trkpt>
      <trkpt lat="47.04819" lon="7.16193">
        <ele>434.4</ele>
        <time>2022-10-01T06:55:22Z</time>
      </trkpt>
      <trkpt lat="47.04821" lon="7.16195">
        <ele>434.4</ele>
        <time>2022-10-01T06:55:23Z</time>
      </trkpt>
      <trkpt lat="47.04824" lon="7.16198">
        <ele>434.3</ele>
        <time>2022-10-01T06:55:24Z</time>
      </trkpt>
      <trkpt lat="47.04825" lon="7.16201">
        <ele>434.3</ele>
        <time>2022-10-01T06:55:25Z</time>
      </trkpt>
      <trkpt lat="47.04829" lon="7.16205">
        <ele>434.3</ele>
        <time>2022-10-01T06:55:26Z</time>
      </trkpt>
      <trkpt lat="47.04833" lon="7.16209">
        <ele>434.3</ele>
        <time>2022-10-01T06:55:27Z</time>
      </trkpt>
      <trkpt lat="47.04836" lon="7.16211">
        <ele>434.3</ele>
        <time>2022-10-01T06:55:28Z</time>
      </trkpt>
      <trkpt lat="47.04841" lon="7.16216">
        <ele>434.2</ele>
        <time>2022-10-01T06:55:29Z</time>
      </trkpt>
      <trkpt lat="47.04846" lon="7.16218">
        <ele>434.2</ele>
        <time>2022-10-01T06:55:30Z</time>
      </trkpt>
      <trkpt lat="47.0485" lon="7.16221">
        <ele>434.1</ele>
        <time>2022-10-01T06:55:31Z</time>
      </trkpt>
      <trkpt lat="47.04855" lon="7.16225">
        <ele>434</ele>
        <time>2022-10-01T06:55:32Z</time>
      </trkpt>
      <trkpt lat="47.04858" lon="7.16228">
        <ele>434</ele>
        <time>2022-10-01T06:55:33Z</time>
      </trkpt>
      <trkpt lat="47.04863" lon="7.16232">
        <ele>433.9</ele>
        <time>2022-10-01T06:55:34Z</time>
      </trkpt>
      <trkpt lat="47.04867" lon="7.16236">
        <ele>433.8</ele>
        <time>2022-10-01T06:55:35Z</time>
      </trkpt>
      <trkpt lat="47.04871" lon="7.16239">
        <ele>433.8</ele>
        <time>2022-10-01T06:55:36Z</time>
      </trkpt>
      <trkpt lat="47.04876" lon="7.16243">
        <ele>433.7</ele>
        <time>2022-10-01T06:55:37Z</time>
      </trkpt>
      <trkpt lat="47.0488" lon="7.16247">
        <ele>433.7</ele>
        <time>2022-10-01T06:55:38Z</time>
      </trkpt>
      <trkpt lat="47.04884" lon="7.16252">
        <ele>433.7</ele>
        <time>2022-10-01T06:55:39Z</time>
      </trkpt>
      <trkpt lat="47.04887" lon="7.16256">
        <ele>433.7</ele>
        <time>2022-10-01T06:55:40Z</time>
      </trkpt>
      <trkpt lat="47.04891" lon="7.16263">
        <ele>433.7</ele>
        <time>2022-10-01T06:55:41Z</time>
      </trkpt>
      <trkpt lat="47.04894" lon="7.16268">
        <ele>433.7</ele>
        <time>2022-10-01T06:55:42Z</time>
      </trkpt>
      <trkpt lat="47.04897" lon="7.16273">
        <ele>433.7</ele>
        <time>2022-10-01T06:55:43Z</time>
      </trkpt>
      <trkpt lat="47.049" lon="7.16278">
        <ele>433.7</ele>
        <time>2022-10-01T06:55:44Z</time>
      </trkpt>
      <trkpt lat="47.04903" lon="7.16284">
        <ele>433.7</ele>
        <time>2022-10-01T06:55:45Z</time>
      </trkpt>
      <trkpt lat="47.04906" lon="7.1629">
        <ele>433.7</ele>
        <time>2022-10-01T06:55:46Z</time>
      </trkpt>
      <trkpt lat="47.04909" lon="7.16296">
        <ele>433.7</ele>
        <time>2022-10-01T06:55:47Z</time>
      </trkpt>
      <trkpt lat="47.0491" lon="7.16302">
        <ele>433.7</ele>
        <time>2022-10-01T06:55:48Z</time>
      </trkpt>
      <trkpt lat="47.04913" lon="7.16308">
        <ele>433.7</ele>
        <time>2022-10-01T06:55:49Z</time>
      </trkpt>
      <trkpt lat="47.04915" lon="7.16314">
        <ele>433.7</ele>
        <time>2022-10-01T06:55:50Z</time>
      </trkpt>
      <trkpt lat="47.04917" lon="7.16319">
        <ele>433.7</ele>
        <time>2022-10-01T06:55:51Z</time>
      </trkpt>
      <trkpt lat="47.04919" lon="7.16326">
        <ele>433.7</ele>
        <time>2022-10-01T06:55:52Z</time>
      </trkpt>
      <trkpt lat="47.04921" lon="7.16332">
        <ele>433.7</ele>
        <time>2022-10-01T06:55:53Z</time>
      </trkpt>
      <trkpt lat="47.04923" lon="7.16338">
        <ele>433.8</ele>
        <time>2022-10-01T06:55:54Z</time>
      </trkpt>
      <trkpt lat="47.04924" lon="7.16345">
        <ele>433.8</ele>
        <time>2022-10-01T06:55:55Z</time>
      </trkpt>
      <trkpt lat="47.04925" lon="7.16351">
        <ele>433.8</ele>
        <time>2022-10-01T06:55:56Z</time>
      </trkpt>
      <trkpt lat="47.04926" lon="7.16358">
        <ele>433.9</ele>
        <time>2022-10-01T06:55:58Z</time>
      </trkpt>
      <trkpt lat="47.04927" lon="7.16364">
        <ele>433.9</ele>
        <time>2022-10-01T06:55:59Z</time>
      </trkpt>
      <trkpt lat="47.04928" lon="7.1637">
        <ele>434</ele>
        <time>2022-10-01T06:56:00Z</time>
      </trkpt>
      <trkpt lat="47.04929" lon="7.16376">
        <ele>434</ele>
        <time>2022-10-01T06:56:01Z</time>
      </trkpt>
      <trkpt lat="47.04929" lon="7.16382">
        <ele>434</ele>
        <time>2022-10-01T06:56:02Z</time>
      </trkpt>
      <trkpt lat="47.0493" lon="7.16388">
        <ele>434.1</ele>
        <time>2022-10-01T06:56:03Z</time>
      </trkpt>
      <trkpt lat="47.0493" lon="7.16395">
        <ele>434.1</ele>
        <time>2022-10-01T06:56:04Z</time>
      </trkpt>
      <trkpt lat="47.04932" lon="7.164">
        <ele>434.1</ele>
        <time>2022-10-01T06:56:05Z</time>
      </trkpt>
      <trkpt lat="47.04932" lon="7.16406">
        <ele>434.1</ele>
        <time>2022-10-01T06:56:06Z</time>
      </trkpt>
      <trkpt lat="47.04933" lon="7.16412">
        <ele>434.2</ele>
        <time>2022-10-01T06:56:07Z</time>
      </trkpt>
      <trkpt lat="47.04934" lon="7.16418">
        <ele>434.2</ele>
        <time>2022-10-01T06:56:08Z</time>
      </trkpt>
      <trkpt lat="47.04936" lon="7.16424">
        <ele>434.2</ele>
        <time>2022-10-01T06:56:09Z</time>
      </trkpt>
      <trkpt lat="47.04937" lon="7.1643">
        <ele>434.2</ele>
        <time>2022-10-01T06:56:10Z</time>
      </trkpt>
      <trkpt lat="47.04939" lon="7.16436">
        <ele>434.2</ele>
        <time>2022-10-01T06:56:11Z</time>
      </trkpt>
      <trkpt lat="47.04941" lon="7.16441">
        <ele>434.2</ele>
        <time>2022-10-01T06:56:12Z</time>
      </trkpt>
      <trkpt lat="47.04944" lon="7.16446">
        <ele>434.2</ele>
        <time>2022-10-01T06:56:13Z</time>
      </trkpt>
      <trkpt lat="47.04946" lon="7.16452">
        <ele>434.2</ele>
        <time>2022-10-01T06:56:14Z</time>
      </trkpt>
      <trkpt lat="47.04949" lon="7.16457">
        <ele>434.2</ele>
        <time>2022-10-01T06:56:15Z</time>
      </trkpt>
      <trkpt lat="47.04953" lon="7.16461">
        <ele>434.2</ele>
        <time>2022-10-01T06:56:16Z</time>
      </trkpt>
      <trkpt lat="47.04955" lon="7.16465">
        <ele>434.2</ele>
        <time>2022-10-01T06:56:17Z</time>
      </trkpt>
      <trkpt lat="47.04959" lon="7.1647">
        <ele>434.2</ele>
        <time>2022-10-01T06:56:18Z</time>
      </trkpt>
      <trkpt lat="47.04962" lon="7.16475">
        <ele>434.2</ele>
        <time>2022-10-01T06:56:19Z</time>
      </trkpt>
      <trkpt lat="47.04965" lon="7.16479">
        <ele>434.2</ele>
        <time>2022-10-01T06:56:20Z</time>
      </trkpt>
      <trkpt lat="47.04968" lon="7.16484">
        <ele>434.2</ele>
        <time>2022-10-01T06:56:21Z</time>
      </trkpt>
      <trkpt lat="47.04971" lon="7.16489">
        <ele>434.2</ele>
        <time>2022-10-01T06:56:22Z</time>
      </trkpt>
      <trkpt lat="47.04975" lon="7.16494">
        <ele>434.2</ele>
        <time>2022-10-01T06:56:23Z</time>
      </trkpt>
      <trkpt lat="47.04978" lon="7.16498">
        <ele>434.2</ele>
        <time>2022-10-01T06:56:24Z</time>
      </trkpt>
      <trkpt lat="47.0498" lon="7.16503">
        <ele>434.2</ele>
        <time>2022-10-01T06:56:25Z</time>
      </trkpt>
      <trkpt lat="47.04984" lon="7.16508">
        <ele>434.2</ele>
        <time>2022-10-01T06:56:26Z</time>
      </trkpt>
      <trkpt lat="47.04987" lon="7.16512">
        <ele>434.2</ele>
        <time>2022-10-01T06:56:27Z</time>
      </trkpt>
      <trkpt lat="47.0499" lon="7.16516">
        <ele>434.2</ele>
        <time>2022-10-01T06:56:28Z</time>
      </trkpt>
      <trkpt lat="47.04994" lon="7.1652">
        <ele>434.2</ele>
        <time>2022-10-01T06:56:29Z</time>
      </trkpt>
      <trkpt lat="47.04996" lon="7.16525">
        <ele>434.2</ele>
        <time>2022-10-01T06:56:30Z</time>
      </trkpt>
      <trkpt lat="47.04999" lon="7.1653">
        <ele>434.2</ele>
        <time>2022-10-01T06:56:31Z</time>
      </trkpt>
      <trkpt lat="47.05003" lon="7.16535">
        <ele>434.2</ele>
        <time>2022-10-01T06:56:32Z</time>
      </trkpt>
      <trkpt lat="47.0501" lon="7.16544">
        <ele>434.3</ele>
        <time>2022-10-01T06:56:33Z</time>
      </trkpt>
      <trkpt lat="47.05013" lon="7.16549">
        <ele>434.3</ele>
        <time>2022-10-01T06:56:34Z</time>
      </trkpt>
      <trkpt lat="47.05017" lon="7.16552">
        <ele>434.3</ele>
        <time>2022-10-01T06:56:35Z</time>
      </trkpt>
      <trkpt lat="47.05019" lon="7.16556">
        <ele>434.2</ele>
        <time>2022-10-01T06:56:36Z</time>
      </trkpt>
      <trkpt lat="47.05023" lon="7.16559">
        <ele>434.2</ele>
        <time>2022-10-01T06:56:37Z</time>
      </trkpt>
      <trkpt lat="47.05027" lon="7.16563">
        <ele>434.2</ele>
        <time>2022-10-01T06:56:38Z</time>
      </trkpt>
      <trkpt lat="47.05029" lon="7.16566">
        <ele>434.2</ele>
        <time>2022-10-01T06:56:39Z</time>
      </trkpt>
      <trkpt lat="47.05033" lon="7.1657">
        <ele>434.2</ele>
        <time>2022-10-01T06:56:40Z</time>
      </trkpt>
      <trkpt lat="47.05036" lon="7.16574">
        <ele>434.2</ele>
        <time>2022-10-01T06:56:41Z</time>
      </trkpt>
      <trkpt lat="47.05039" lon="7.16579">
        <ele>434.2</ele>
        <time>2022-10-01T06:56:42Z</time>
      </trkpt>
      <trkpt lat="47.05043" lon="7.16582">
        <ele>434.2</ele>
        <time>2022-10-01T06:56:43Z</time>
      </trkpt>
      <trkpt lat="47.05047" lon="7.16586">
        <ele>434.1</ele>
        <time>2022-10-01T06:56:44Z</time>
      </trkpt>
      <trkpt lat="47.05051" lon="7.16591">
        <ele>434.2</ele>
        <time>2022-10-01T06:56:45Z</time>
      </trkpt>
      <trkpt lat="47.05055" lon="7.16594">
        <ele>434.2</ele>
        <time>2022-10-01T06:56:46Z</time>
      </trkpt>
      <trkpt lat="47.05058" lon="7.16599">
        <ele>434.2</ele>
        <time>2022-10-01T06:56:47Z</time>
      </trkpt>
      <trkpt lat="47.05061" lon="7.16603">
        <ele>434.2</ele>
        <time>2022-10-01T06:56:48Z</time>
      </trkpt>
      <trkpt lat="47.05065" lon="7.16607">
        <ele>434.2</ele>
        <time>2022-10-01T06:56:49Z</time>
      </trkpt>
      <trkpt lat="47.05069" lon="7.16612">
        <ele>434.2</ele>
        <time>2022-10-01T06:56:50Z</time>
      </trkpt>
      <trkpt lat="47.05073" lon="7.16616">
        <ele>434.2</ele>
        <time>2022-10-01T06:56:51Z</time>
      </trkpt>
      <trkpt lat="47.05077" lon="7.1662">
        <ele>434.2</ele>
        <time>2022-10-01T06:56:52Z</time>
      </trkpt>
      <trkpt lat="47.0508" lon="7.16624">
        <ele>434.2</ele>
        <time>2022-10-01T06:56:53Z</time>
      </trkpt>
      <trkpt lat="47.05083" lon="7.16628">
        <ele>434.2</ele>
        <time>2022-10-01T06:56:54Z</time>
      </trkpt>
      <trkpt lat="47.05086" lon="7.16633">
        <ele>434.2</ele>
        <time>2022-10-01T06:56:55Z</time>
      </trkpt>
      <trkpt lat="47.0509" lon="7.16638">
        <ele>434.2</ele>
        <time>2022-10-01T06:56:56Z</time>
      </trkpt>
      <trkpt lat="47.05094" lon="7.16643">
        <ele>434.2</ele>
        <time>2022-10-01T06:56:57Z</time>
      </trkpt>
      <trkpt lat="47.05096" lon="7.16647">
        <ele>434.2</ele>
        <time>2022-10-01T06:56:58Z</time>
      </trkpt>
      <trkpt lat="47.051" lon="7.16652">
        <ele>434.2</ele>
        <time>2022-10-01T06:56:59Z</time>
      </trkpt>
      <trkpt lat="47.05104" lon="7.16657">
        <ele>434.2</ele>
        <time>2022-10-01T06:57:00Z</time>
      </trkpt>
      <trkpt lat="47.05106" lon="7.16662">
        <ele>434.1</ele>
        <time>2022-10-01T06:57:01Z</time>
      </trkpt>
      <trkpt lat="47.05109" lon="7.16665">
        <ele>434.1</ele>
        <time>2022-10-01T06:57:02Z</time>
      </trkpt>
      <trkpt lat="47.05113" lon="7.16672">
        <ele>434.1</ele>
        <time>2022-10-01T06:57:03Z</time>
      </trkpt>
      <trkpt lat="47.05116" lon="7.16676">
        <ele>434.1</ele>
        <time>2022-10-01T06:57:04Z</time>
      </trkpt>
      <trkpt lat="47.05119" lon="7.16681">
        <ele>434.1</ele>
        <time>2022-10-01T06:57:05Z</time>
      </trkpt>
      <trkpt lat="47.05123" lon="7.16685">
        <ele>434.1</ele>
        <time>2022-10-01T06:57:06Z</time>
      </trkpt>
      <trkpt lat="47.05126" lon="7.1669">
        <ele>434.1</ele>
        <time>2022-10-01T06:57:07Z</time>
      </trkpt>
      <trkpt lat="47.0513" lon="7.16694">
        <ele>434.1</ele>
        <time>2022-10-01T06:57:08Z</time>
      </trkpt>
      <trkpt lat="47.05133" lon="7.16698">
        <ele>434.1</ele>
        <time>2022-10-01T06:57:09Z</time>
      </trkpt>
      <trkpt lat="47.05136" lon="7.16703">
        <ele>434.1</ele>
        <time>2022-10-01T06:57:10Z</time>
      </trkpt>
      <trkpt lat="47.05139" lon="7.16708">
        <ele>434.1</ele>
        <time>2022-10-01T06:57:11Z</time>
      </trkpt>
      <trkpt lat="47.05143" lon="7.16712">
        <ele>434.1</ele>
        <time>2022-10-01T06:57:12Z</time>
      </trkpt>
      <trkpt lat="47.05146" lon="7.16716">
        <ele>434.1</ele>
        <time>2022-10-01T06:57:13Z</time>
      </trkpt>
      <trkpt lat="47.0515" lon="7.1672">
        <ele>434.1</ele>
        <time>2022-10-01T06:57:14Z</time>
      </trkpt>
      <trkpt lat="47.05153" lon="7.16723">
        <ele>434.1</ele>
        <time>2022-10-01T06:57:15Z</time>
      </trkpt>
      <trkpt lat="47.05157" lon="7.16728">
        <ele>434.1</ele>
        <time>2022-10-01T06:57:16Z</time>
      </trkpt>
      <trkpt lat="47.0516" lon="7.16731">
        <ele>434.2</ele>
        <time>2022-10-01T06:57:17Z</time>
      </trkpt>
      <trkpt lat="47.05163" lon="7.16735">
        <ele>434.2</ele>
        <time>2022-10-01T06:57:18Z</time>
      </trkpt>
      <trkpt lat="47.05165" lon="7.16738">
        <ele>434.2</ele>
        <time>2022-10-01T06:57:19Z</time>
      </trkpt>
      <trkpt lat="47.05168" lon="7.16742">
        <ele>434.3</ele>
        <time>2022-10-01T06:57:20Z</time>
      </trkpt>
      <trkpt lat="47.05171" lon="7.16746">
        <ele>434.3</ele>
        <time>2022-10-01T06:57:21Z</time>
      </trkpt>
      <trkpt lat="47.05173" lon="7.16751">
        <ele>434.3</ele>
        <time>2022-10-01T06:57:22Z</time>
      </trkpt>
      <trkpt lat="47.05175" lon="7.16755">
        <ele>434.3</ele>
        <time>2022-10-01T06:57:23Z</time>
      </trkpt>
      <trkpt lat="47.05177" lon="7.1676">
        <ele>434.3</ele>
        <time>2022-10-01T06:57:24Z</time>
      </trkpt>
      <trkpt lat="47.05179" lon="7.16765">
        <ele>434.3</ele>
        <time>2022-10-01T06:57:25Z</time>
      </trkpt>
      <trkpt lat="47.05181" lon="7.16771">
        <ele>434.3</ele>
        <time>2022-10-01T06:57:26Z</time>
      </trkpt>
      <trkpt lat="47.05183" lon="7.16778">
        <ele>434.3</ele>
        <time>2022-10-01T06:57:27Z</time>
      </trkpt>
      <trkpt lat="47.05185" lon="7.16783">
        <ele>434.2</ele>
        <time>2022-10-01T06:57:28Z</time>
      </trkpt>
      <trkpt lat="47.05186" lon="7.16789">
        <ele>434.2</ele>
        <time>2022-10-01T06:57:29Z</time>
      </trkpt>
      <trkpt lat="47.05188" lon="7.16794">
        <ele>434.2</ele>
        <time>2022-10-01T06:57:30Z</time>
      </trkpt>
      <trkpt lat="47.0519" lon="7.168">
        <ele>434.2</ele>
        <time>2022-10-01T06:57:31Z</time>
      </trkpt>
      <trkpt lat="47.05192" lon="7.16806">
        <ele>434.1</ele>
        <time>2022-10-01T06:57:32Z</time>
      </trkpt>
      <trkpt lat="47.05195" lon="7.16812">
        <ele>434.1</ele>
        <time>2022-10-01T06:57:33Z</time>
      </trkpt>
      <trkpt lat="47.05197" lon="7.16818">
        <ele>434.1</ele>
        <time>2022-10-01T06:57:34Z</time>
      </trkpt>
      <trkpt lat="47.05199" lon="7.16823">
        <ele>434.1</ele>
        <time>2022-10-01T06:57:35Z</time>
      </trkpt>
      <trkpt lat="47.05202" lon="7.16829">
        <ele>434.1</ele>
        <time>2022-10-01T06:57:36Z</time>
      </trkpt>
      <trkpt lat="47.05205" lon="7.16835">
        <ele>434.1</ele>
        <time>2022-10-01T06:57:37Z</time>
      </trkpt>
      <trkpt lat="47.05208" lon="7.16837">
        <ele>434.1</ele>
        <time>2022-10-01T06:57:38Z</time>
      </trkpt>
      <trkpt lat="47.0521" lon="7.16843">
        <ele>434.1</ele>
        <time>2022-10-01T06:57:39Z</time>
      </trkpt>
      <trkpt lat="47.05214" lon="7.16847">
        <ele>434.1</ele>
        <time>2022-10-01T06:57:40Z</time>
      </trkpt>
      <trkpt lat="47.05217" lon="7.16851">
        <ele>434.1</ele>
        <time>2022-10-01T06:57:41Z</time>
      </trkpt>
      <trkpt lat="47.0522" lon="7.16855">
        <ele>434.1</ele>
        <time>2022-10-01T06:57:42Z</time>
      </trkpt>
      <trkpt lat="47.05224" lon="7.1686">
        <ele>434.1</ele>
        <time>2022-10-01T06:57:43Z</time>
      </trkpt>
      <trkpt lat="47.05228" lon="7.16864">
        <ele>434.1</ele>
        <time>2022-10-01T06:57:44Z</time>
      </trkpt>
      <trkpt lat="47.05231" lon="7.16868">
        <ele>434.1</ele>
        <time>2022-10-01T06:57:45Z</time>
      </trkpt>
      <trkpt lat="47.05234" lon="7.16872">
        <ele>434.1</ele>
        <time>2022-10-01T06:57:46Z</time>
      </trkpt>
      <trkpt lat="47.05237" lon="7.16876">
        <ele>434.1</ele>
        <time>2022-10-01T06:57:47Z</time>
      </trkpt>
      <trkpt lat="47.0524" lon="7.16881">
        <ele>434.1</ele>
        <time>2022-10-01T06:57:48Z</time>
      </trkpt>
      <trkpt lat="47.05244" lon="7.16885">
        <ele>434.1</ele>
        <time>2022-10-01T06:57:49Z</time>
      </trkpt>
      <trkpt lat="47.05248" lon="7.16889">
        <ele>434.1</ele>
        <time>2022-10-01T06:57:50Z</time>
      </trkpt>
      <trkpt lat="47.05251" lon="7.16895">
        <ele>434.1</ele>
        <time>2022-10-01T06:57:51Z</time>
      </trkpt>
      <trkpt lat="47.05255" lon="7.169">
        <ele>434.1</ele>
        <time>2022-10-01T06:57:52Z</time>
      </trkpt>
      <trkpt lat="47.05258" lon="7.16905">
        <ele>434.1</ele>
        <time>2022-10-01T06:57:53Z</time>
      </trkpt>
      <trkpt lat="47.05261" lon="7.1691">
        <ele>434.1</ele>
        <time>2022-10-01T06:57:54Z</time>
      </trkpt>
      <trkpt lat="47.05265" lon="7.16915">
        <ele>434.1</ele>
        <time>2022-10-01T06:57:55Z</time>
      </trkpt>
      <trkpt lat="47.05268" lon="7.16919">
        <ele>434.1</ele>
        <time>2022-10-01T06:57:56Z</time>
      </trkpt>
      <trkpt lat="47.05272" lon="7.16924">
        <ele>434.1</ele>
        <time>2022-10-01T06:57:57Z</time>
      </trkpt>
      <trkpt lat="47.05274" lon="7.16929">
        <ele>434.1</ele>
        <time>2022-10-01T06:57:58Z</time>
      </trkpt>
      <trkpt lat="47.05278" lon="7.16933">
        <ele>434.2</ele>
        <time>2022-10-01T06:57:59Z</time>
      </trkpt>
      <trkpt lat="47.05281" lon="7.16938">
        <ele>434.2</ele>
        <time>2022-10-01T06:58:00Z</time>
      </trkpt>
      <trkpt lat="47.05284" lon="7.16943">
        <ele>434.2</ele>
        <time>2022-10-01T06:58:01Z</time>
      </trkpt>
      <trkpt lat="47.05287" lon="7.16948">
        <ele>434.2</ele>
        <time>2022-10-01T06:58:02Z</time>
      </trkpt>
      <trkpt lat="47.0529" lon="7.16953">
        <ele>434.2</ele>
        <time>2022-10-01T06:58:04Z</time>
      </trkpt>
      <trkpt lat="47.05292" lon="7.16958">
        <ele>434.2</ele>
        <time>2022-10-01T06:58:05Z</time>
      </trkpt>
      <trkpt lat="47.05294" lon="7.16963">
        <ele>434.2</ele>
        <time>2022-10-01T06:58:06Z</time>
      </trkpt>
      <trkpt lat="47.05297" lon="7.16968">
        <ele>434.2</ele>
        <time>2022-10-01T06:58:07Z</time>
      </trkpt>
      <trkpt lat="47.053" lon="7.16973">
        <ele>434.2</ele>
        <time>2022-10-01T06:58:08Z</time>
      </trkpt>
      <trkpt lat="47.05303" lon="7.16978">
        <ele>434.2</ele>
        <time>2022-10-01T06:58:09Z</time>
      </trkpt>
      <trkpt lat="47.05305" lon="7.16983">
        <ele>434.2</ele>
        <time>2022-10-01T06:58:10Z</time>
      </trkpt>
      <trkpt lat="47.05308" lon="7.16988">
        <ele>434.2</ele>
        <time>2022-10-01T06:58:11Z</time>
      </trkpt>
      <trkpt lat="47.05311" lon="7.16992">
        <ele>434.2</ele>
        <time>2022-10-01T06:58:12Z</time>
      </trkpt>
      <trkpt lat="47.05314" lon="7.16997">
        <ele>434.2</ele>
        <time>2022-10-01T06:58:13Z</time>
      </trkpt>
      <trkpt lat="47.05315" lon="7.17002">
        <ele>434.2</ele>
        <time>2022-10-01T06:58:14Z</time>
      </trkpt>
      <trkpt lat="47.05318" lon="7.17006">
        <ele>434.2</ele>
        <time>2022-10-01T06:58:15Z</time>
      </trkpt>
      <trkpt lat="47.05321" lon="7.17011">
        <ele>434.2</ele>
        <time>2022-10-01T06:58:16Z</time>
      </trkpt>
      <trkpt lat="47.05323" lon="7.17016">
        <ele>434.2</ele>
        <time>2022-10-01T06:58:17Z</time>
      </trkpt>
      <trkpt lat="47.05326" lon="7.17021">
        <ele>434.2</ele>
        <time>2022-10-01T06:58:18Z</time>
      </trkpt>
      <trkpt lat="47.05329" lon="7.17025">
        <ele>434.2</ele>
        <time>2022-10-01T06:58:19Z</time>
      </trkpt>
      <trkpt lat="47.05332" lon="7.1703">
        <ele>434.2</ele>
        <time>2022-10-01T06:58:20Z</time>
      </trkpt>
      <trkpt lat="47.05334" lon="7.17035">
        <ele>434.2</ele>
        <time>2022-10-01T06:58:21Z</time>
      </trkpt>
      <trkpt lat="47.05337" lon="7.1704">
        <ele>434.2</ele>
        <time>2022-10-01T06:58:22Z</time>
      </trkpt>
      <trkpt lat="47.05339" lon="7.17044">
        <ele>434.2</ele>
        <time>2022-10-01T06:58:23Z</time>
      </trkpt>
      <trkpt lat="47.05342" lon="7.17049">
        <ele>434.2</ele>
        <time>2022-10-01T06:58:24Z</time>
      </trkpt>
      <trkpt lat="47.05344" lon="7.17054">
        <ele>434.2</ele>
        <time>2022-10-01T06:58:25Z</time>
      </trkpt>
      <trkpt lat="47.05348" lon="7.17058">
        <ele>434.2</ele>
        <time>2022-10-01T06:58:26Z</time>
      </trkpt>
      <trkpt lat="47.0535" lon="7.17064">
        <ele>434.2</ele>
        <time>2022-10-01T06:58:27Z</time>
      </trkpt>
      <trkpt lat="47.05352" lon="7.17068">
        <ele>434.2</ele>
        <time>2022-10-01T06:58:28Z</time>
      </trkpt>
      <trkpt lat="47.05355" lon="7.17073">
        <ele>434.2</ele>
        <time>2022-10-01T06:58:29Z</time>
      </trkpt>
      <trkpt lat="47.05358" lon="7.17078">
        <ele>434.2</ele>
        <time>2022-10-01T06:58:30Z</time>
      </trkpt>
      <trkpt lat="47.0536" lon="7.17082">
        <ele>434.2</ele>
        <time>2022-10-01T06:58:31Z</time>
      </trkpt>
      <trkpt lat="47.05362" lon="7.17088">
        <ele>434.2</ele>
        <time>2022-10-01T06:58:32Z</time>
      </trkpt>
      <trkpt lat="47.05365" lon="7.17092">
        <ele>434.2</ele>
        <time>2022-10-01T06:58:33Z</time>
      </trkpt>
      <trkpt lat="47.05367" lon="7.17097">
        <ele>434.2</ele>
        <time>2022-10-01T06:58:34Z</time>
      </trkpt>
      <trkpt lat="47.05369" lon="7.17102">
        <ele>434.2</ele>
        <time>2022-10-01T06:58:35Z</time>
      </trkpt>
      <trkpt lat="47.05372" lon="7.17106">
        <ele>434.2</ele>
        <time>2022-10-01T06:58:36Z</time>
      </trkpt>
      <trkpt lat="47.05375" lon="7.1711">
        <ele>434.2</ele>
        <time>2022-10-01T06:58:37Z</time>
      </trkpt>
      <trkpt lat="47.05377" lon="7.17115">
        <ele>434.3</ele>
        <time>2022-10-01T06:58:38Z</time>
      </trkpt>
      <trkpt lat="47.0538" lon="7.1712">
        <ele>434.3</ele>
        <time>2022-10-01T06:58:39Z</time>
      </trkpt>
      <trkpt lat="47.05382" lon="7.17125">
        <ele>434.3</ele>
        <time>2022-10-01T06:58:40Z</time>
      </trkpt>
      <trkpt lat="47.05385" lon="7.17129">
        <ele>434.3</ele>
        <time>2022-10-01T06:58:41Z</time>
      </trkpt>
      <trkpt lat="47.05387" lon="7.17133">
        <ele>434.3</ele>
        <time>2022-10-01T06:58:42Z</time>
      </trkpt>
      <trkpt lat="47.0539" lon="7.17137">
        <ele>434.3</ele>
        <time>2022-10-01T06:58:43Z</time>
      </trkpt>
      <trkpt lat="47.05393" lon="7.17142">
        <ele>434.3</ele>
        <time>2022-10-01T06:58:44Z</time>
      </trkpt>
      <trkpt lat="47.05398" lon="7.17151">
        <ele>434.3</ele>
        <time>2022-10-01T06:58:45Z</time>
      </trkpt>
      <trkpt lat="47.05401" lon="7.17155">
        <ele>434.3</ele>
        <time>2022-10-01T06:58:46Z</time>
      </trkpt>
      <trkpt lat="47.05403" lon="7.17159">
        <ele>434.3</ele>
        <time>2022-10-01T06:58:47Z</time>
      </trkpt>
      <trkpt lat="47.05405" lon="7.17164">
        <ele>434.3</ele>
        <time>2022-10-01T06:58:48Z</time>
      </trkpt>
      <trkpt lat="47.05407" lon="7.17169">
        <ele>434.3</ele>
        <time>2022-10-01T06:58:49Z</time>
      </trkpt>
      <trkpt lat="47.05409" lon="7.17174">
        <ele>434.3</ele>
        <time>2022-10-01T06:58:50Z</time>
      </trkpt>
      <trkpt lat="47.05411" lon="7.17179">
        <ele>434.3</ele>
        <time>2022-10-01T06:58:51Z</time>
      </trkpt>
      <trkpt lat="47.05414" lon="7.17183">
        <ele>434.3</ele>
        <time>2022-10-01T06:58:52Z</time>
      </trkpt>
      <trkpt lat="47.05416" lon="7.17188">
        <ele>434.3</ele>
        <time>2022-10-01T06:58:53Z</time>
      </trkpt>
      <trkpt lat="47.05418" lon="7.17192">
        <ele>434.3</ele>
        <time>2022-10-01T06:58:54Z</time>
      </trkpt>
      <trkpt lat="47.05421" lon="7.17196">
        <ele>434.3</ele>
        <time>2022-10-01T06:58:55Z</time>
      </trkpt>
      <trkpt lat="47.05424" lon="7.17201">
        <ele>434.3</ele>
        <time>2022-10-01T06:58:56Z</time>
      </trkpt>
      <trkpt lat="47.05426" lon="7.17206">
        <ele>434.3</ele>
        <time>2022-10-01T06:58:57Z</time>
      </trkpt>
      <trkpt lat="47.05428" lon="7.17209">
        <ele>434.3</ele>
        <time>2022-10-01T06:58:58Z</time>
      </trkpt>
      <trkpt lat="47.05431" lon="7.17214">
        <ele>434.3</ele>
        <time>2022-10-01T06:58:59Z</time>
      </trkpt>
      <trkpt lat="47.05433" lon="7.17219">
        <ele>434.3</ele>
        <time>2022-10-01T06:59:00Z</time>
      </trkpt>
      <trkpt lat="47.05436" lon="7.17224">
        <ele>434.3</ele>
        <time>2022-10-01T06:59:01Z</time>
      </trkpt>
      <trkpt lat="47.05438" lon="7.17228">
        <ele>434.3</ele>
        <time>2022-10-01T06:59:02Z</time>
      </trkpt>
      <trkpt lat="47.05441" lon="7.17233">
        <ele>434.3</ele>
        <time>2022-10-01T06:59:03Z</time>
      </trkpt>
      <trkpt lat="47.05443" lon="7.17237">
        <ele>434.3</ele>
        <time>2022-10-01T06:59:04Z</time>
      </trkpt>
      <trkpt lat="47.05446" lon="7.17242">
        <ele>434.3</ele>
        <time>2022-10-01T06:59:05Z</time>
      </trkpt>
      <trkpt lat="47.05448" lon="7.17245">
        <ele>434.3</ele>
        <time>2022-10-01T06:59:06Z</time>
      </trkpt>
      <trkpt lat="47.0545" lon="7.1725">
        <ele>434.3</ele>
        <time>2022-10-01T06:59:07Z</time>
      </trkpt>
      <trkpt lat="47.05453" lon="7.17254">
        <ele>434.3</ele>
        <time>2022-10-01T06:59:08Z</time>
      </trkpt>
      <trkpt lat="47.05455" lon="7.17259">
        <ele>434.3</ele>
        <time>2022-10-01T06:59:09Z</time>
      </trkpt>
      <trkpt lat="47.05457" lon="7.17263">
        <ele>434.3</ele>
        <time>2022-10-01T06:59:10Z</time>
      </trkpt>
      <trkpt lat="47.0546" lon="7.17266">
        <ele>434.3</ele>
        <time>2022-10-01T06:59:11Z</time>
      </trkpt>
      <trkpt lat="47.05462" lon="7.1727">
        <ele>434.3</ele>
        <time>2022-10-01T06:59:12Z</time>
      </trkpt>
      <trkpt lat="47.05464" lon="7.17274">
        <ele>434.3</ele>
        <time>2022-10-01T06:59:13Z</time>
      </trkpt>
      <trkpt lat="47.05465" lon="7.17277">
        <ele>434.3</ele>
        <time>2022-10-01T06:59:14Z</time>
      </trkpt>
      <trkpt lat="47.05468" lon="7.17281">
        <ele>434.3</ele>
        <time>2022-10-01T06:59:15Z</time>
      </trkpt>
      <trkpt lat="47.0547" lon="7.17286">
        <ele>434.4</ele>
        <time>2022-10-01T06:59:16Z</time>
      </trkpt>
      <trkpt lat="47.05472" lon="7.1729">
        <ele>434.4</ele>
        <time>2022-10-01T06:59:17Z</time>
      </trkpt>
      <trkpt lat="47.05475" lon="7.17295">
        <ele>434.4</ele>
        <time>2022-10-01T06:59:18Z</time>
      </trkpt>
      <trkpt lat="47.05478" lon="7.17299">
        <ele>434.4</ele>
        <time>2022-10-01T06:59:19Z</time>
      </trkpt>
      <trkpt lat="47.05481" lon="7.17304">
        <ele>434.4</ele>
        <time>2022-10-01T06:59:20Z</time>
      </trkpt>
      <trkpt lat="47.05483" lon="7.17309">
        <ele>434.4</ele>
        <time>2022-10-01T06:59:21Z</time>
      </trkpt>
      <trkpt lat="47.05486" lon="7.17313">
        <ele>434.4</ele>
        <time>2022-10-01T06:59:22Z</time>
      </trkpt>
      <trkpt lat="47.05487" lon="7.17318">
        <ele>434.4</ele>
        <time>2022-10-01T06:59:23Z</time>
      </trkpt>
      <trkpt lat="47.05489" lon="7.17322">
        <ele>434.4</ele>
        <time>2022-10-01T06:59:24Z</time>
      </trkpt>
      <trkpt lat="47.05493" lon="7.17326">
        <ele>434.5</ele>
        <time>2022-10-01T06:59:25Z</time>
      </trkpt>
      <trkpt lat="47.05495" lon="7.17331">
        <ele>434.5</ele>
        <time>2022-10-01T06:59:26Z</time>
      </trkpt>
      <trkpt lat="47.05498" lon="7.17336">
        <ele>434.5</ele>
        <time>2022-10-01T06:59:27Z</time>
      </trkpt>
      <trkpt lat="47.055" lon="7.17339">
        <ele>434.5</ele>
        <time>2022-10-01T06:59:28Z</time>
      </trkpt>
      <trkpt lat="47.05503" lon="7.17344">
        <ele>434.5</ele>
        <time>2022-10-01T06:59:29Z</time>
      </trkpt>
      <trkpt lat="47.05505" lon="7.17348">
        <ele>434.5</ele>
        <time>2022-10-01T06:59:30Z</time>
      </trkpt>
      <trkpt lat="47.05508" lon="7.17353">
        <ele>434.4</ele>
        <time>2022-10-01T06:59:31Z</time>
      </trkpt>
      <trkpt lat="47.05511" lon="7.17358">
        <ele>434.4</ele>
        <time>2022-10-01T06:59:32Z</time>
      </trkpt>
      <trkpt lat="47.05514" lon="7.17362">
        <ele>434.4</ele>
        <time>2022-10-01T06:59:33Z</time>
      </trkpt>
      <trkpt lat="47.05516" lon="7.17367">
        <ele>434.4</ele>
        <time>2022-10-01T06:59:34Z</time>
      </trkpt>
      <trkpt lat="47.05518" lon="7.17372">
        <ele>434.4</ele>
        <time>2022-10-01T06:59:35Z</time>
      </trkpt>
      <trkpt lat="47.05521" lon="7.17377">
        <ele>434.4</ele>
        <time>2022-10-01T06:59:36Z</time>
      </trkpt>
      <trkpt lat="47.05524" lon="7.17381">
        <ele>434.4</ele>
        <time>2022-10-01T06:59:37Z</time>
      </trkpt>
      <trkpt lat="47.05526" lon="7.17386">
        <ele>434.4</ele>
        <time>2022-10-01T06:59:38Z</time>
      </trkpt>
      <trkpt lat="47.05528" lon="7.17391">
        <ele>434.4</ele>
        <time>2022-10-01T06:59:39Z</time>
      </trkpt>
      <trkpt lat="47.05531" lon="7.17397">
        <ele>434.4</ele>
        <time>2022-10-01T06:59:40Z</time>
      </trkpt>
      <trkpt lat="47.05534" lon="7.17401">
        <ele>434.4</ele>
        <time>2022-10-01T06:59:41Z</time>
      </trkpt>
      <trkpt lat="47.05536" lon="7.17405">
        <ele>434.4</ele>
        <time>2022-10-01T06:59:42Z</time>
      </trkpt>
      <trkpt lat="47.05538" lon="7.17409">
        <ele>434.4</ele>
        <time>2022-10-01T06:59:43Z</time>
      </trkpt>
      <trkpt lat="47.0554" lon="7.17413">
        <ele>434.4</ele>
        <time>2022-10-01T06:59:44Z</time>
      </trkpt>
      <trkpt lat="47.05542" lon="7.17417">
        <ele>434.4</ele>
        <time>2022-10-01T06:59:45Z</time>
      </trkpt>
      <trkpt lat="47.05545" lon="7.1742">
        <ele>434.4</ele>
        <time>2022-10-01T06:59:46Z</time>
      </trkpt>
      <trkpt lat="47.05547" lon="7.17425">
        <ele>434.4</ele>
        <time>2022-10-01T06:59:47Z</time>
      </trkpt>
      <trkpt lat="47.0555" lon="7.1743">
        <ele>434.5</ele>
        <time>2022-10-01T06:59:48Z</time>
      </trkpt>
      <trkpt lat="47.05551" lon="7.17431">
        <ele>434.5</ele>
        <time>2022-10-01T06:59:49Z</time>
      </trkpt>
      <trkpt lat="47.05552" lon="7.17435">
        <ele>434.5</ele>
        <time>2022-10-01T06:59:50Z</time>
      </trkpt>
      <trkpt lat="47.05552" lon="7.17439">
        <ele>434.5</ele>
        <time>2022-10-01T06:59:51Z</time>
      </trkpt>
      <trkpt lat="47.05554" lon="7.17444">
        <ele>434.5</ele>
        <time>2022-10-01T06:59:52Z</time>
      </trkpt>
      <trkpt lat="47.05558" lon="7.17448">
        <ele>434.5</ele>
        <time>2022-10-01T06:59:53Z</time>
      </trkpt>
      <trkpt lat="47.05562" lon="7.17455">
        <ele>434.5</ele>
        <time>2022-10-01T06:59:54Z</time>
      </trkpt>
      <trkpt lat="47.05565" lon="7.17459">
        <ele>434.5</ele>
        <time>2022-10-01T06:59:55Z</time>
      </trkpt>
      <trkpt lat="47.05568" lon="7.17462">
        <ele>434.5</ele>
        <time>2022-10-01T06:59:56Z</time>
      </trkpt>
      <trkpt lat="47.05571" lon="7.17467">
        <ele>434.5</ele>
        <time>2022-10-01T06:59:57Z</time>
      </trkpt>
      <trkpt lat="47.05575" lon="7.17472">
        <ele>434.5</ele>
        <time>2022-10-01T06:59:58Z</time>
      </trkpt>
      <trkpt lat="47.05578" lon="7.17478">
        <ele>434.5</ele>
        <time>2022-10-01T06:59:59Z</time>
      </trkpt>
      <trkpt lat="47.05582" lon="7.17482">
        <ele>434.4</ele>
        <time>2022-10-01T07:00:00Z</time>
      </trkpt>
      <trkpt lat="47.05585" lon="7.17486">
        <ele>434.4</ele>
        <time>2022-10-01T07:00:01Z</time>
      </trkpt>
      <trkpt lat="47.05588" lon="7.17492">
        <ele>434.4</ele>
        <time>2022-10-01T07:00:02Z</time>
      </trkpt>
      <trkpt lat="47.05591" lon="7.17495">
        <ele>434.5</ele>
        <time>2022-10-01T07:00:03Z</time>
      </trkpt>
      <trkpt lat="47.05595" lon="7.17498">
        <ele>434.5</ele>
        <time>2022-10-01T07:00:04Z</time>
      </trkpt>
      <trkpt lat="47.05599" lon="7.17502">
        <ele>434.5</ele>
        <time>2022-10-01T07:00:05Z</time>
      </trkpt>
      <trkpt lat="47.05602" lon="7.17506">
        <ele>434.5</ele>
        <time>2022-10-01T07:00:06Z</time>
      </trkpt>
      <trkpt lat="47.05606" lon="7.17509">
        <ele>434.6</ele>
        <time>2022-10-01T07:00:07Z</time>
      </trkpt>
      <trkpt lat="47.0561" lon="7.17513">
        <ele>434.6</ele>
        <time>2022-10-01T07:00:08Z</time>
      </trkpt>
      <trkpt lat="47.05612" lon="7.17516">
        <ele>434.7</ele>
        <time>2022-10-01T07:00:10Z</time>
      </trkpt>
      <trkpt lat="47.05616" lon="7.17518">
        <ele>434.7</ele>
        <time>2022-10-01T07:00:11Z</time>
      </trkpt>
      <trkpt lat="47.05618" lon="7.17523">
        <ele>434.7</ele>
        <time>2022-10-01T07:00:12Z</time>
      </trkpt>
      <trkpt lat="47.05621" lon="7.17527">
        <ele>434.7</ele>
        <time>2022-10-01T07:00:13Z</time>
      </trkpt>
      <trkpt lat="47.05624" lon="7.17532">
        <ele>434.7</ele>
        <time>2022-10-01T07:00:14Z</time>
      </trkpt>
      <trkpt lat="47.05628" lon="7.17535">
        <ele>434.8</ele>
        <time>2022-10-01T07:00:15Z</time>
      </trkpt>
      <trkpt lat="47.05632" lon="7.1754">
        <ele>434.8</ele>
        <time>2022-10-01T07:00:16Z</time>
      </trkpt>
      <trkpt lat="47.05634" lon="7.17545">
        <ele>434.8</ele>
        <time>2022-10-01T07:00:17Z</time>
      </trkpt>
      <trkpt lat="47.05638" lon="7.17546">
        <ele>434.8</ele>
        <time>2022-10-01T07:00:18Z</time>
      </trkpt>
      <trkpt lat="47.05642" lon="7.1755">
        <ele>434.9</ele>
        <time>2022-10-01T07:00:19Z</time>
      </trkpt>
      <trkpt lat="47.05646" lon="7.17554">
        <ele>434.9</ele>
        <time>2022-10-01T07:00:20Z</time>
      </trkpt>
      <trkpt lat="47.05649" lon="7.17559">
        <ele>434.9</ele>
        <time>2022-10-01T07:00:21Z</time>
      </trkpt>
      <trkpt lat="47.05653" lon="7.17563">
        <ele>434.9</ele>
        <time>2022-10-01T07:00:22Z</time>
      </trkpt>
      <trkpt lat="47.05657" lon="7.17566">
        <ele>435</ele>
        <time>2022-10-01T07:00:23Z</time>
      </trkpt>
      <trkpt lat="47.0566" lon="7.1757">
        <ele>435</ele>
        <time>2022-10-01T07:00:24Z</time>
      </trkpt>
      <trkpt lat="47.05664" lon="7.17574">
        <ele>435</ele>
        <time>2022-10-01T07:00:25Z</time>
      </trkpt>
      <trkpt lat="47.05668" lon="7.17579">
        <ele>435</ele>
        <time>2022-10-01T07:00:26Z</time>
      </trkpt>
      <trkpt lat="47.05672" lon="7.17583">
        <ele>435</ele>
        <time>2022-10-01T07:00:27Z</time>
      </trkpt>
      <trkpt lat="47.05675" lon="7.17587">
        <ele>435</ele>
        <time>2022-10-01T07:00:28Z</time>
      </trkpt>
      <trkpt lat="47.05678" lon="7.1759">
        <ele>435</ele>
        <time>2022-10-01T07:00:29Z</time>
      </trkpt>
      <trkpt lat="47.05681" lon="7.17594">
        <ele>435</ele>
        <time>2022-10-01T07:00:30Z</time>
      </trkpt>
      <trkpt lat="47.05684" lon="7.17599">
        <ele>435</ele>
        <time>2022-10-01T07:00:31Z</time>
      </trkpt>
      <trkpt lat="47.05687" lon="7.17603">
        <ele>435</ele>
        <time>2022-10-01T07:00:32Z</time>
      </trkpt>
      <trkpt lat="47.05692" lon="7.17606">
        <ele>435</ele>
        <time>2022-10-01T07:00:33Z</time>
      </trkpt>
      <trkpt lat="47.05695" lon="7.1761">
        <ele>435</ele>
        <time>2022-10-01T07:00:34Z</time>
      </trkpt>
      <trkpt lat="47.05698" lon="7.17613">
        <ele>435</ele>
        <time>2022-10-01T07:00:35Z</time>
      </trkpt>
      <trkpt lat="47.05701" lon="7.17617">
        <ele>435</ele>
        <time>2022-10-01T07:00:36Z</time>
      </trkpt>
      <trkpt lat="47.05704" lon="7.17621">
        <ele>435</ele>
        <time>2022-10-01T07:00:37Z</time>
      </trkpt>
      <trkpt lat="47.05708" lon="7.17624">
        <ele>435</ele>
        <time>2022-10-01T07:00:38Z</time>
      </trkpt>
      <trkpt lat="47.05711" lon="7.17629">
        <ele>435</ele>
        <time>2022-10-01T07:00:39Z</time>
      </trkpt>
      <trkpt lat="47.05715" lon="7.17632">
        <ele>435</ele>
        <time>2022-10-01T07:00:40Z</time>
      </trkpt>
      <trkpt lat="47.05718" lon="7.17636">
        <ele>435</ele>
        <time>2022-10-01T07:00:41Z</time>
      </trkpt>
      <trkpt lat="47.05721" lon="7.1764">
        <ele>434.9</ele>
        <time>2022-10-01T07:00:42Z</time>
      </trkpt>
      <trkpt lat="47.05724" lon="7.17644">
        <ele>434.9</ele>
        <time>2022-10-01T07:00:43Z</time>
      </trkpt>
      <trkpt lat="47.0573" lon="7.17651">
        <ele>434.9</ele>
        <time>2022-10-01T07:00:44Z</time>
      </trkpt>
      <trkpt lat="47.05733" lon="7.17655">
        <ele>434.9</ele>
        <time>2022-10-01T07:00:45Z</time>
      </trkpt>
      <trkpt lat="47.05736" lon="7.17658">
        <ele>434.9</ele>
        <time>2022-10-01T07:00:46Z</time>
      </trkpt>
      <trkpt lat="47.05739" lon="7.17662">
        <ele>434.9</ele>
        <time>2022-10-01T07:00:47Z</time>
      </trkpt>
      <trkpt lat="47.05742" lon="7.17666">
        <ele>434.9</ele>
        <time>2022-10-01T07:00:48Z</time>
      </trkpt>
      <trkpt lat="47.05745" lon="7.1767">
        <ele>434.9</ele>
        <time>2022-10-01T07:00:49Z</time>
      </trkpt>
      <trkpt lat="47.05748" lon="7.17674">
        <ele>434.9</ele>
        <time>2022-10-01T07:00:50Z</time>
      </trkpt>
      <trkpt lat="47.05751" lon="7.17678">
        <ele>434.9</ele>
        <time>2022-10-01T07:00:51Z</time>
      </trkpt>
      <trkpt lat="47.05753" lon="7.17682">
        <ele>434.9</ele>
        <time>2022-10-01T07:00:52Z</time>
      </trkpt>
      <trkpt lat="47.05757" lon="7.17686">
        <ele>434.9</ele>
        <time>2022-10-01T07:00:53Z</time>
      </trkpt>
      <trkpt lat="47.05759" lon="7.17691">
        <ele>434.9</ele>
        <time>2022-10-01T07:00:54Z</time>
      </trkpt>
      <trkpt lat="47.05762" lon="7.17695">
        <ele>434.9</ele>
        <time>2022-10-01T07:00:55Z</time>
      </trkpt>
      <trkpt lat="47.05766" lon="7.17699">
        <ele>434.9</ele>
        <time>2022-10-01T07:00:56Z</time>
      </trkpt>
      <trkpt lat="47.05768" lon="7.17703">
        <ele>435</ele>
        <time>2022-10-01T07:00:57Z</time>
      </trkpt>
      <trkpt lat="47.05771" lon="7.17708">
        <ele>435</ele>
        <time>2022-10-01T07:00:58Z</time>
      </trkpt>
      <trkpt lat="47.05774" lon="7.17712">
        <ele>435</ele>
        <time>2022-10-01T07:00:59Z</time>
      </trkpt>
      <trkpt lat="47.05777" lon="7.17717">
        <ele>435</ele>
        <time>2022-10-01T07:01:00Z</time>
      </trkpt>
      <trkpt lat="47.05779" lon="7.17721">
        <ele>435</ele>
        <time>2022-10-01T07:01:01Z</time>
      </trkpt>
      <trkpt lat="47.05782" lon="7.17726">
        <ele>435.1</ele>
        <time>2022-10-01T07:01:02Z</time>
      </trkpt>
      <trkpt lat="47.05785" lon="7.1773">
        <ele>435.1</ele>
        <time>2022-10-01T07:01:03Z</time>
      </trkpt>
      <trkpt lat="47.05789" lon="7.17734">
        <ele>435.1</ele>
        <time>2022-10-01T07:01:04Z</time>
      </trkpt>
      <trkpt lat="47.05791" lon="7.17738">
        <ele>435.2</ele>
        <time>2022-10-01T07:01:05Z</time>
      </trkpt>
      <trkpt lat="47.05794" lon="7.17741">
        <ele>435.2</ele>
        <time>2022-10-01T07:01:06Z</time>
      </trkpt>
      <trkpt lat="47.05797" lon="7.17746">
        <ele>435.3</ele>
        <time>2022-10-01T07:01:07Z</time>
      </trkpt>
      <trkpt lat="47.05798" lon="7.17747">
        <ele>435.3</ele>
        <time>2022-10-01T07:01:08Z</time>
      </trkpt>
      <trkpt lat="47.05801" lon="7.1775">
        <ele>435.4</ele>
        <time>2022-10-01T07:01:09Z</time>
      </trkpt>
      <trkpt lat="47.05803" lon="7.17753">
        <ele>435.5</ele>
        <time>2022-10-01T07:01:10Z</time>
      </trkpt>
      <trkpt lat="47.05807" lon="7.17755">
        <ele>435.5</ele>
        <time>2022-10-01T07:01:11Z</time>
      </trkpt>
      <trkpt lat="47.05808" lon="7.17755">
        <ele>435.5</ele>
        <time>2022-10-01T07:01:12Z</time>
      </trkpt>
      <trkpt lat="47.0581" lon="7.17753">
        <ele>435.5</ele>
        <time>2022-10-01T07:01:13Z</time>
      </trkpt>
      <trkpt lat="47.0581" lon="7.17751">
        <ele>435.5</ele>
        <time>2022-10-01T07:01:14Z</time>
      </trkpt>
      <trkpt lat="47.0581" lon="7.17749">
        <ele>435.4</ele>
        <time>2022-10-01T07:01:15Z</time>
      </trkpt>
      <trkpt lat="47.0581" lon="7.17745">
        <ele>435.4</ele>
        <time>2022-10-01T07:01:16Z</time>
      </trkpt>
      <trkpt lat="47.05809" lon="7.17739">
        <ele>435.3</ele>
        <time>2022-10-01T07:01:17Z</time>
      </trkpt>
      <trkpt lat="47.05809" lon="7.17733">
        <ele>435.3</ele>
        <time>2022-10-01T07:01:18Z</time>
      </trkpt>
      <trkpt lat="47.05808" lon="7.17728">
        <ele>435.2</ele>
        <time>2022-10-01T07:01:19Z</time>
      </trkpt>
      <trkpt lat="47.05809" lon="7.17723">
        <ele>435.2</ele>
        <time>2022-10-01T07:01:20Z</time>
      </trkpt>
      <trkpt lat="47.0581" lon="7.17717">
        <ele>435.1</ele>
        <time>2022-10-01T07:01:21Z</time>
      </trkpt>
      <trkpt lat="47.0581" lon="7.1771">
        <ele>435.1</ele>
        <time>2022-10-01T07:01:22Z</time>
      </trkpt>
      <trkpt lat="47.0581" lon="7.17704">
        <ele>435.1</ele>
        <time>2022-10-01T07:01:23Z</time>
      </trkpt>
      <trkpt lat="47.0581" lon="7.17697">
        <ele>435.1</ele>
        <time>2022-10-01T07:01:24Z</time>
      </trkpt>
      <trkpt lat="47.0581" lon="7.17691">
        <ele>435</ele>
        <time>2022-10-01T07:01:25Z</time>
      </trkpt>
      <trkpt lat="47.0581" lon="7.17685">
        <ele>435</ele>
        <time>2022-10-01T07:01:26Z</time>
      </trkpt>
      <trkpt lat="47.05811" lon="7.17677">
        <ele>435</ele>
        <time>2022-10-01T07:01:27Z</time>
      </trkpt>
      <trkpt lat="47.05811" lon="7.17671">
        <ele>435</ele>
        <time>2022-10-01T07:01:28Z</time>
      </trkpt>
      <trkpt lat="47.05811" lon="7.17665">
        <ele>435</ele>
        <time>2022-10-01T07:01:29Z</time>
      </trkpt>
      <trkpt lat="47.05812" lon="7.17657">
        <ele>434.9</ele>
        <time>2022-10-01T07:01:30Z</time>
      </trkpt>
      <trkpt lat="47.05812" lon="7.17652">
        <ele>434.9</ele>
        <time>2022-10-01T07:01:31Z</time>
      </trkpt>
      <trkpt lat="47.05812" lon="7.17646">
        <ele>434.9</ele>
        <time>2022-10-01T07:01:32Z</time>
      </trkpt>
      <trkpt lat="47.05812" lon="7.1764">
        <ele>434.9</ele>
        <time>2022-10-01T07:01:33Z</time>
      </trkpt>
      <trkpt lat="47.05812" lon="7.17634">
        <ele>434.9</ele>
        <time>2022-10-01T07:01:34Z</time>
      </trkpt>
      <trkpt lat="47.05813" lon="7.17628">
        <ele>434.9</ele>
        <time>2022-10-01T07:01:35Z</time>
      </trkpt>
      <trkpt lat="47.05814" lon="7.17625">
        <ele>434.9</ele>
        <time>2022-10-01T07:01:36Z</time>
      </trkpt>
      <trkpt lat="47.05816" lon="7.17621">
        <ele>434.9</ele>
        <time>2022-10-01T07:01:37Z</time>
      </trkpt>
      <trkpt lat="47.05819" lon="7.17618">
        <ele>434.9</ele>
        <time>2022-10-01T07:01:38Z</time>
      </trkpt>
      <trkpt lat="47.05823" lon="7.17616">
        <ele>434.9</ele>
        <time>2022-10-01T07:01:39Z</time>
      </trkpt>
      <trkpt lat="47.05827" lon="7.17615">
        <ele>434.9</ele>
        <time>2022-10-01T07:01:40Z</time>
      </trkpt>
      <trkpt lat="47.0583" lon="7.17618">
        <ele>434.8</ele>
        <time>2022-10-01T07:01:41Z</time>
      </trkpt>
      <trkpt lat="47.05833" lon="7.17622">
        <ele>434.8</ele>
        <time>2022-10-01T07:01:42Z</time>
      </trkpt>
      <trkpt lat="47.05836" lon="7.17627">
        <ele>434.8</ele>
        <time>2022-10-01T07:01:43Z</time>
      </trkpt>
      <trkpt lat="47.05838" lon="7.17631">
        <ele>434.8</ele>
        <time>2022-10-01T07:01:44Z</time>
      </trkpt>
      <trkpt lat="47.05841" lon="7.17636">
        <ele>434.8</ele>
        <time>2022-10-01T07:01:45Z</time>
      </trkpt>
      <trkpt lat="47.05844" lon="7.1764">
        <ele>434.7</ele>
        <time>2022-10-01T07:01:46Z</time>
      </trkpt>
      <trkpt lat="47.05847" lon="7.17645">
        <ele>434.7</ele>
        <time>2022-10-01T07:01:47Z</time>
      </trkpt>
      <trkpt lat="47.0585" lon="7.1765">
        <ele>434.7</ele>
        <time>2022-10-01T07:01:48Z</time>
      </trkpt>
      <trkpt lat="47.05853" lon="7.17655">
        <ele>434.7</ele>
        <time>2022-10-01T07:01:49Z</time>
      </trkpt>
      <trkpt lat="47.05856" lon="7.1766">
        <ele>434.7</ele>
        <time>2022-10-01T07:01:50Z</time>
      </trkpt>
      <trkpt lat="47.05859" lon="7.17666">
        <ele>434.7</ele>
        <time>2022-10-01T07:01:51Z</time>
      </trkpt>
      <trkpt lat="47.05863" lon="7.17671">
        <ele>434.8</ele>
        <time>2022-10-01T07:01:52Z</time>
      </trkpt>
      <trkpt lat="47.05863" lon="7.17678">
        <ele>434.8</ele>
        <time>2022-10-01T07:01:53Z</time>
      </trkpt>
      <trkpt lat="47.05867" lon="7.17682">
        <ele>434.8</ele>
        <time>2022-10-01T07:01:54Z</time>
      </trkpt>
      <trkpt lat="47.0587" lon="7.17685">
        <ele>434.8</ele>
        <time>2022-10-01T07:01:55Z</time>
      </trkpt>
      <trkpt lat="47.05872" lon="7.17687">
        <ele>434.8</ele>
        <time>2022-10-01T07:01:56Z</time>
      </trkpt>
      <trkpt lat="47.05875" lon="7.17689">
        <ele>434.8</ele>
        <time>2022-10-01T07:01:57Z</time>
      </trkpt>
      <trkpt lat="47.05879" lon="7.17689">
        <ele>434.9</ele>
        <time>2022-10-01T07:01:58Z</time>
      </trkpt>
      <trkpt lat="47.05882" lon="7.17687">
        <ele>434.9</ele>
        <time>2022-10-01T07:01:59Z</time>
      </trkpt>
      <trkpt lat="47.05885" lon="7.17685">
        <ele>434.9</ele>
        <time>2022-10-01T07:02:00Z</time>
      </trkpt>
      <trkpt lat="47.05889" lon="7.17681">
        <ele>434.9</ele>
        <time>2022-10-01T07:02:01Z</time>
      </trkpt>
      <trkpt lat="47.05892" lon="7.17677">
        <ele>434.9</ele>
        <time>2022-10-01T07:02:02Z</time>
      </trkpt>
      <trkpt lat="47.05896" lon="7.17675">
        <ele>435</ele>
        <time>2022-10-01T07:02:03Z</time>
      </trkpt>
      <trkpt lat="47.059" lon="7.17672">
        <ele>435</ele>
        <time>2022-10-01T07:02:04Z</time>
      </trkpt>
      <trkpt lat="47.05904" lon="7.17669">
        <ele>435</ele>
        <time>2022-10-01T07:02:05Z</time>
      </trkpt>
      <trkpt lat="47.05909" lon="7.17667">
        <ele>435</ele>
        <time>2022-10-01T07:02:06Z</time>
      </trkpt>
      <trkpt lat="47.05913" lon="7.17664">
        <ele>435.1</ele>
        <time>2022-10-01T07:02:07Z</time>
      </trkpt>
      <trkpt lat="47.05917" lon="7.17661">
        <ele>435.1</ele>
        <time>2022-10-01T07:02:08Z</time>
      </trkpt>
      <trkpt lat="47.05921" lon="7.17658">
        <ele>435.2</ele>
        <time>2022-10-01T07:02:09Z</time>
      </trkpt>
      <trkpt lat="47.05924" lon="7.17655">
        <ele>435.2</ele>
        <time>2022-10-01T07:02:10Z</time>
      </trkpt>
      <trkpt lat="47.05928" lon="7.17652">
        <ele>435.3</ele>
        <time>2022-10-01T07:02:11Z</time>
      </trkpt>
      <trkpt lat="47.05932" lon="7.17649">
        <ele>435.4</ele>
        <time>2022-10-01T07:02:12Z</time>
      </trkpt>
      <trkpt lat="47.05936" lon="7.17646">
        <ele>435.6</ele>
        <time>2022-10-01T07:02:13Z</time>
      </trkpt>
      <trkpt lat="47.0594" lon="7.17642">
        <ele>435.8</ele>
        <time>2022-10-01T07:02:14Z</time>
      </trkpt>
      <trkpt lat="47.05943" lon="7.17639">
        <ele>435.9</ele>
        <time>2022-10-01T07:02:16Z</time>
      </trkpt>
      <trkpt lat="47.05946" lon="7.17637">
        <ele>436.1</ele>
        <time>2022-10-01T07:02:17Z</time>
      </trkpt>
      <trkpt lat="47.05949" lon="7.17635">
        <ele>436.3</ele>
        <time>2022-10-01T07:02:18Z</time>
      </trkpt>
      <trkpt lat="47.0595" lon="7.17634">
        <ele>436.3</ele>
        <time>2022-10-01T07:02:19Z</time>
      </trkpt>
      <trkpt lat="47.05953" lon="7.17632">
        <ele>436.5</ele>
        <time>2022-10-01T07:02:20Z</time>
      </trkpt>
      <trkpt lat="47.05957" lon="7.1763">
        <ele>436.7</ele>
        <time>2022-10-01T07:02:21Z</time>
      </trkpt>
      <trkpt lat="47.05958" lon="7.17629">
        <ele>436.8</ele>
        <time>2022-10-01T07:02:22Z</time>
      </trkpt>
      <trkpt lat="47.05962" lon="7.17626">
        <ele>437</ele>
        <time>2022-10-01T07:02:23Z</time>
      </trkpt>
      <trkpt lat="47.05963" lon="7.17625">
        <ele>437.1</ele>
        <time>2022-10-01T07:02:24Z</time>
      </trkpt>
      <trkpt lat="47.05966" lon="7.17622">
        <ele>437.3</ele>
        <time>2022-10-01T07:02:25Z</time>
      </trkpt>
      <trkpt lat="47.05969" lon="7.1762">
        <ele>437.4</ele>
        <time>2022-10-01T07:02:26Z</time>
      </trkpt>
      <trkpt lat="47.0597" lon="7.17619">
        <ele>437.5</ele>
        <time>2022-10-01T07:02:27Z</time>
      </trkpt>
      <trkpt lat="47.05973" lon="7.17618">
        <ele>437.6</ele>
        <time>2022-10-01T07:02:28Z</time>
      </trkpt>
      <trkpt lat="47.05976" lon="7.17617">
        <ele>437.8</ele>
        <time>2022-10-01T07:02:29Z</time>
      </trkpt>
      <trkpt lat="47.05979" lon="7.17617">
        <ele>437.9</ele>
        <time>2022-10-01T07:02:30Z</time>
      </trkpt>
      <trkpt lat="47.0598" lon="7.17618">
        <ele>437.9</ele>
        <time>2022-10-01T07:02:31Z</time>
      </trkpt>
      <trkpt lat="47.05981" lon="7.17622">
        <ele>438</ele>
        <time>2022-10-01T07:02:32Z</time>
      </trkpt>
      <trkpt lat="47.05981" lon="7.17627">
        <ele>438</ele>
        <time>2022-10-01T07:02:33Z</time>
      </trkpt>
      <trkpt lat="47.05981" lon="7.17629">
        <ele>438</ele>
        <time>2022-10-01T07:02:34Z</time>
      </trkpt>
      <trkpt lat="47.05978" lon="7.17633">
        <ele>438.1</ele>
        <time>2022-10-01T07:02:35Z</time>
      </trkpt>
      <trkpt lat="47.05977" lon="7.17635">
        <ele>438.1</ele>
        <time>2022-10-01T07:02:36Z</time>
      </trkpt>
      <trkpt lat="47.05975" lon="7.17638">
        <ele>438.2</ele>
        <time>2022-10-01T07:02:37Z</time>
      </trkpt>
      <trkpt lat="47.05972" lon="7.17641">
        <ele>438.2</ele>
        <time>2022-10-01T07:02:38Z</time>
      </trkpt>
      <trkpt lat="47.05971" lon="7.17643">
        <ele>438.2</ele>
        <time>2022-10-01T07:02:39Z</time>
      </trkpt>
      <trkpt lat="47.0597" lon="7.17646">
        <ele>438.3</ele>
        <time>2022-10-01T07:02:40Z</time>
      </trkpt>
      <trkpt lat="47.05968" lon="7.1765">
        <ele>438.4</ele>
        <time>2022-10-01T07:02:41Z</time>
      </trkpt>
      <trkpt lat="47.05966" lon="7.17653">
        <ele>438.5</ele>
        <time>2022-10-01T07:02:42Z</time>
      </trkpt>
      <trkpt lat="47.05965" lon="7.17655">
        <ele>438.5</ele>
        <time>2022-10-01T07:02:43Z</time>
      </trkpt>
      <trkpt lat="47.05964" lon="7.17661">
        <ele>438.6</ele>
        <time>2022-10-01T07:02:44Z</time>
      </trkpt>
      <trkpt lat="47.05963" lon="7.17665">
        <ele>438.7</ele>
        <time>2022-10-01T07:02:45Z</time>
      </trkpt>
      <trkpt lat="47.05962" lon="7.17667">
        <ele>438.7</ele>
        <time>2022-10-01T07:02:46Z</time>
      </trkpt>
      <trkpt lat="47.05962" lon="7.17672">
        <ele>438.8</ele>
        <time>2022-10-01T07:02:47Z</time>
      </trkpt>
      <trkpt lat="47.05963" lon="7.17673">
        <ele>438.8</ele>
        <time>2022-10-01T07:02:48Z</time>
      </trkpt>
      <trkpt lat="47.05964" lon="7.17678">
        <ele>438.9</ele>
        <time>2022-10-01T07:02:49Z</time>
      </trkpt>
      <trkpt lat="47.05965" lon="7.17679">
        <ele>438.9</ele>
        <time>2022-10-01T07:02:50Z</time>
      </trkpt>
      <trkpt lat="47.05967" lon="7.17681">
        <ele>438.9</ele>
        <time>2022-10-01T07:02:51Z</time>
      </trkpt>
      <trkpt lat="47.0597" lon="7.17684">
        <ele>438.9</ele>
        <time>2022-10-01T07:02:52Z</time>
      </trkpt>
      <trkpt lat="47.0597" lon="7.17685">
        <ele>439</ele>
        <time>2022-10-01T07:02:53Z</time>
      </trkpt>
      <trkpt lat="47.05973" lon="7.17689">
        <ele>439</ele>
        <time>2022-10-01T07:02:54Z</time>
      </trkpt>
      <trkpt lat="47.05974" lon="7.1769">
        <ele>439</ele>
        <time>2022-10-01T07:02:55Z</time>
      </trkpt>
      <trkpt lat="47.05976" lon="7.17693">
        <ele>439</ele>
        <time>2022-10-01T07:02:56Z</time>
      </trkpt>
      <trkpt lat="47.05978" lon="7.17697">
        <ele>439</ele>
        <time>2022-10-01T07:02:57Z</time>
      </trkpt>
      <trkpt lat="47.05978" lon="7.17698">
        <ele>439</ele>
        <time>2022-10-01T07:02:58Z</time>
      </trkpt>
      <trkpt lat="47.0598" lon="7.17702">
        <ele>439</ele>
        <time>2022-10-01T07:02:59Z</time>
      </trkpt>
      <trkpt lat="47.05981" lon="7.17703">
        <ele>439</ele>
        <time>2022-10-01T07:03:00Z</time>
      </trkpt>
      <trkpt lat="47.05983" lon="7.17707">
        <ele>439</ele>
        <time>2022-10-01T07:03:01Z</time>
      </trkpt>
      <trkpt lat="47.05984" lon="7.17708">
        <ele>439</ele>
        <time>2022-10-01T07:03:02Z</time>
      </trkpt>
      <trkpt lat="47.05986" lon="7.17712">
        <ele>439</ele>
        <time>2022-10-01T07:03:03Z</time>
      </trkpt>
      <trkpt lat="47.05987" lon="7.17713">
        <ele>439</ele>
        <time>2022-10-01T07:03:04Z</time>
      </trkpt>
      <trkpt lat="47.0599" lon="7.17718">
        <ele>439</ele>
        <time>2022-10-01T07:03:05Z</time>
      </trkpt>
      <trkpt lat="47.0599" lon="7.17719">
        <ele>439</ele>
        <time>2022-10-01T07:03:06Z</time>
      </trkpt>
      <trkpt lat="47.05993" lon="7.17723">
        <ele>439</ele>
        <time>2022-10-01T07:03:07Z</time>
      </trkpt>
      <trkpt lat="47.05993" lon="7.17724">
        <ele>439</ele>
        <time>2022-10-01T07:03:08Z</time>
      </trkpt>
      <trkpt lat="47.05996" lon="7.17728">
        <ele>439.1</ele>
        <time>2022-10-01T07:03:09Z</time>
      </trkpt>
      <trkpt lat="47.05997" lon="7.17729">
        <ele>439.1</ele>
        <time>2022-10-01T07:03:10Z</time>
      </trkpt>
      <trkpt lat="47.05999" lon="7.17732">
        <ele>439.1</ele>
        <time>2022-10-01T07:03:11Z</time>
      </trkpt>
      <trkpt lat="47.05999" lon="7.17733">
        <ele>439.1</ele>
        <time>2022-10-01T07:03:12Z</time>
      </trkpt>
      <trkpt lat="47.06001" lon="7.17737">
        <ele>439.1</ele>
        <time>2022-10-01T07:03:13Z</time>
      </trkpt>
      <trkpt lat="47.06002" lon="7.17738">
        <ele>439.1</ele>
        <time>2022-10-01T07:03:14Z</time>
      </trkpt>
      <trkpt lat="47.06004" lon="7.17742">
        <ele>439.1</ele>
        <time>2022-10-01T07:03:15Z</time>
      </trkpt>
      <trkpt lat="47.06005" lon="7.17743">
        <ele>439.1</ele>
        <time>2022-10-01T07:03:16Z</time>
      </trkpt>
      <trkpt lat="47.06007" lon="7.17747">
        <ele>439.1</ele>
        <time>2022-10-01T07:03:17Z</time>
      </trkpt>
      <trkpt lat="47.06008" lon="7.17748">
        <ele>439.1</ele>
        <time>2022-10-01T07:03:18Z</time>
      </trkpt>
      <trkpt lat="47.0601" lon="7.17752">
        <ele>439.2</ele>
        <time>2022-10-01T07:03:19Z</time>
      </trkpt>
      <trkpt lat="47.06011" lon="7.17753">
        <ele>439.2</ele>
        <time>2022-10-01T07:03:20Z</time>
      </trkpt>
      <trkpt lat="47.06013" lon="7.17757">
        <ele>439.2</ele>
        <time>2022-10-01T07:03:21Z</time>
      </trkpt>
      <trkpt lat="47.06014" lon="7.17758">
        <ele>439.2</ele>
        <time>2022-10-01T07:03:22Z</time>
      </trkpt>
      <trkpt lat="47.06016" lon="7.17762">
        <ele>439.2</ele>
        <time>2022-10-01T07:03:23Z</time>
      </trkpt>
      <trkpt lat="47.06019" lon="7.17766">
        <ele>439.2</ele>
        <time>2022-10-01T07:03:24Z</time>
      </trkpt>
      <trkpt lat="47.0602" lon="7.17768">
        <ele>439.2</ele>
        <time>2022-10-01T07:03:25Z</time>
      </trkpt>
      <trkpt lat="47.06022" lon="7.17772">
        <ele>439.2</ele>
        <time>2022-10-01T07:03:26Z</time>
      </trkpt>
      <trkpt lat="47.06023" lon="7.17773">
        <ele>439.2</ele>
        <time>2022-10-01T07:03:27Z</time>
      </trkpt>
      <trkpt lat="47.06024" lon="7.17777">
        <ele>439.2</ele>
        <time>2022-10-01T07:03:28Z</time>
      </trkpt>
      <trkpt lat="47.06026" lon="7.1778">
        <ele>439.3</ele>
        <time>2022-10-01T07:03:29Z</time>
      </trkpt>
      <trkpt lat="47.06029" lon="7.17784">
        <ele>439.3</ele>
        <time>2022-10-01T07:03:30Z</time>
      </trkpt>
      <trkpt lat="47.06031" lon="7.17787">
        <ele>439.3</ele>
        <time>2022-10-01T07:03:31Z</time>
      </trkpt>
      <trkpt lat="47.06033" lon="7.1779">
        <ele>439.3</ele>
        <time>2022-10-01T07:03:32Z</time>
      </trkpt>
      <trkpt lat="47.06036" lon="7.17793">
        <ele>439.3</ele>
        <time>2022-10-01T07:03:33Z</time>
      </trkpt>
      <trkpt lat="47.06037" lon="7.17794">
        <ele>439.3</ele>
        <time>2022-10-01T07:03:34Z</time>
      </trkpt>
      <trkpt lat="47.0604" lon="7.17799">
        <ele>439.4</ele>
        <time>2022-10-01T07:03:35Z</time>
      </trkpt>
      <trkpt lat="47.06041" lon="7.178">
        <ele>439.4</ele>
        <time>2022-10-01T07:03:36Z</time>
      </trkpt>
      <trkpt lat="47.06043" lon="7.17804">
        <ele>439.4</ele>
        <time>2022-10-01T07:03:37Z</time>
      </trkpt>
      <trkpt lat="47.06043" lon="7.17804">
        <ele>439.4</ele>
        <time>2022-10-01T07:03:38Z</time>
      </trkpt>
      <trkpt lat="47.06043" lon="7.17806">
        <ele>439.4</ele>
        <time>2022-10-01T07:03:39Z</time>
      </trkpt>
      <trkpt lat="47.06043" lon="7.17809">
        <ele>439.4</ele>
        <time>2022-10-01T07:03:40Z</time>
      </trkpt>
      <trkpt lat="47.06042" lon="7.17813">
        <ele>439.5</ele>
        <time>2022-10-01T07:03:41Z</time>
      </trkpt>
      <trkpt lat="47.06041" lon="7.17818">
        <ele>439.7</ele>
        <time>2022-10-01T07:03:42Z</time>
      </trkpt>
      <trkpt lat="47.0604" lon="7.17821">
        <ele>439.7</ele>
        <time>2022-10-01T07:03:43Z</time>
      </trkpt>
      <trkpt lat="47.06036" lon="7.17823">
        <ele>439.8</ele>
        <time>2022-10-01T07:03:44Z</time>
      </trkpt>
      <trkpt lat="47.06035" lon="7.17824">
        <ele>439.8</ele>
        <time>2022-10-01T07:03:45Z</time>
      </trkpt>
      <trkpt lat="47.06031" lon="7.17823">
        <ele>439.9</ele>
        <time>2022-10-01T07:03:46Z</time>
      </trkpt>
      <trkpt lat="47.0603" lon="7.17823">
        <ele>439.9</ele>
        <time>2022-10-01T07:03:47Z</time>
      </trkpt>
      <trkpt lat="47.06027" lon="7.17822">
        <ele>440</ele>
        <time>2022-10-01T07:03:48Z</time>
      </trkpt>
      <trkpt lat="47.06023" lon="7.17822">
        <ele>440.1</ele>
        <time>2022-10-01T07:03:49Z</time>
      </trkpt>
      <trkpt lat="47.06022" lon="7.17822">
        <ele>440.1</ele>
        <time>2022-10-01T07:03:50Z</time>
      </trkpt>
      <trkpt lat="47.06018" lon="7.17824">
        <ele>440.2</ele>
        <time>2022-10-01T07:03:51Z</time>
      </trkpt>
      <trkpt lat="47.06017" lon="7.17824">
        <ele>440.2</ele>
        <time>2022-10-01T07:03:52Z</time>
      </trkpt>
      <trkpt lat="47.06014" lon="7.17826">
        <ele>440.3</ele>
        <time>2022-10-01T07:03:53Z</time>
      </trkpt>
      <trkpt lat="47.06011" lon="7.17828">
        <ele>440.4</ele>
        <time>2022-10-01T07:03:54Z</time>
      </trkpt>
      <trkpt lat="47.06009" lon="7.17831">
        <ele>440.5</ele>
        <time>2022-10-01T07:03:55Z</time>
      </trkpt>
      <trkpt lat="47.06006" lon="7.17834">
        <ele>440.6</ele>
        <time>2022-10-01T07:03:56Z</time>
      </trkpt>
      <trkpt lat="47.06005" lon="7.17836">
        <ele>440.7</ele>
        <time>2022-10-01T07:03:57Z</time>
      </trkpt>
      <trkpt lat="47.06002" lon="7.17838">
        <ele>440.8</ele>
        <time>2022-10-01T07:03:58Z</time>
      </trkpt>
      <trkpt lat="47.05999" lon="7.17841">
        <ele>440.9</ele>
        <time>2022-10-01T07:03:59Z</time>
      </trkpt>
      <trkpt lat="47.05998" lon="7.17841">
        <ele>441</ele>
        <time>2022-10-01T07:04:00Z</time>
      </trkpt>
      <trkpt lat="47.05995" lon="7.17844">
        <ele>441.1</ele>
        <time>2022-10-01T07:04:01Z</time>
      </trkpt>
      <trkpt lat="47.05993" lon="7.17844">
        <ele>441.2</ele>
        <time>2022-10-01T07:04:02Z</time>
      </trkpt>
      <trkpt lat="47.0599" lon="7.17847">
        <ele>441.4</ele>
        <time>2022-10-01T07:04:03Z</time>
      </trkpt>
      <trkpt lat="47.05989" lon="7.17848">
        <ele>441.4</ele>
        <time>2022-10-01T07:04:04Z</time>
      </trkpt>
      <trkpt lat="47.05987" lon="7.17851">
        <ele>441.5</ele>
        <time>2022-10-01T07:04:05Z</time>
      </trkpt>
      <trkpt lat="47.05984" lon="7.17853">
        <ele>441.7</ele>
        <time>2022-10-01T07:04:06Z</time>
      </trkpt>
      <trkpt lat="47.05982" lon="7.17855">
        <ele>441.8</ele>
        <time>2022-10-01T07:04:07Z</time>
      </trkpt>
      <trkpt lat="47.05979" lon="7.17858">
        <ele>441.9</ele>
        <time>2022-10-01T07:04:08Z</time>
      </trkpt>
      <trkpt lat="47.05978" lon="7.1786">
        <ele>441.9</ele>
        <time>2022-10-01T07:04:09Z</time>
      </trkpt>
      <trkpt lat="47.05975" lon="7.17863">
        <ele>442.1</ele>
        <time>2022-10-01T07:04:10Z</time>
      </trkpt>
      <trkpt lat="47.05973" lon="7.17866">
        <ele>442.2</ele>
        <time>2022-10-01T07:04:11Z</time>
      </trkpt>
      <trkpt lat="47.05971" lon="7.17869">
        <ele>442.3</ele>
        <time>2022-10-01T07:04:12Z</time>
      </trkpt>
      <trkpt lat="47.05969" lon="7.17871">
        <ele>442.4</ele>
        <time>2022-10-01T07:04:13Z</time>
      </trkpt>
      <trkpt lat="47.05967" lon="7.17874">
        <ele>442.5</ele>
        <time>2022-10-01T07:04:14Z</time>
      </trkpt>
      <trkpt lat="47.05965" lon="7.17877">
        <ele>442.6</ele>
        <time>2022-10-01T07:04:15Z</time>
      </trkpt>
      <trkpt lat="47.05963" lon="7.1788">
        <ele>442.7</ele>
        <time>2022-10-01T07:04:16Z</time>
      </trkpt>
      <trkpt lat="47.0596" lon="7.17882">
        <ele>442.8</ele>
        <time>2022-10-01T07:04:17Z</time>
      </trkpt>
      <trkpt lat="47.05958" lon="7.17885">
        <ele>442.9</ele>
        <time>2022-10-01T07:04:18Z</time>
      </trkpt>
      <trkpt lat="47.05955" lon="7.17889">
        <ele>443</ele>
        <time>2022-10-01T07:04:19Z</time>
      </trkpt>
      <trkpt lat="47.05954" lon="7.17891">
        <ele>443.1</ele>
        <time>2022-10-01T07:04:20Z</time>
      </trkpt>
      <trkpt lat="47.0595" lon="7.17894">
        <ele>443.2</ele>
        <time>2022-10-01T07:04:22Z</time>
      </trkpt>
      <trkpt lat="47.05949" lon="7.17896">
        <ele>443.3</ele>
        <time>2022-10-01T07:04:23Z</time>
      </trkpt>
      <trkpt lat="47.05947" lon="7.17899">
        <ele>443.4</ele>
        <time>2022-10-01T07:04:24Z</time>
      </trkpt>
      <trkpt lat="47.05945" lon="7.17901">
        <ele>443.5</ele>
        <time>2022-10-01T07:04:25Z</time>
      </trkpt>
      <trkpt lat="47.05943" lon="7.17904">
        <ele>443.6</ele>
        <time>2022-10-01T07:04:26Z</time>
      </trkpt>
      <trkpt lat="47.05941" lon="7.17908">
        <ele>443.8</ele>
        <time>2022-10-01T07:04:27Z</time>
      </trkpt>
      <trkpt lat="47.05938" lon="7.17911">
        <ele>443.9</ele>
        <time>2022-10-01T07:04:28Z</time>
      </trkpt>
      <trkpt lat="47.05936" lon="7.17913">
        <ele>444</ele>
        <time>2022-10-01T07:04:29Z</time>
      </trkpt>
      <trkpt lat="47.05934" lon="7.17917">
        <ele>444.2</ele>
        <time>2022-10-01T07:04:30Z</time>
      </trkpt>
      <trkpt lat="47.05931" lon="7.17921">
        <ele>444.4</ele>
        <time>2022-10-01T07:04:31Z</time>
      </trkpt>
      <trkpt lat="47.0593" lon="7.17923">
        <ele>444.4</ele>
        <time>2022-10-01T07:04:32Z</time>
      </trkpt>
      <trkpt lat="47.0593" lon="7.17928">
        <ele>444.6</ele>
        <time>2022-10-01T07:04:33Z</time>
      </trkpt>
      <trkpt lat="47.05929" lon="7.17929">
        <ele>444.7</ele>
        <time>2022-10-01T07:04:34Z</time>
      </trkpt>
      <trkpt lat="47.0593" lon="7.17933">
        <ele>444.8</ele>
        <time>2022-10-01T07:04:35Z</time>
      </trkpt>
      <trkpt lat="47.0593" lon="7.17935">
        <ele>444.9</ele>
        <time>2022-10-01T07:04:36Z</time>
      </trkpt>
      <trkpt lat="47.05933" lon="7.17939">
        <ele>445.1</ele>
        <time>2022-10-01T07:04:37Z</time>
      </trkpt>
      <trkpt lat="47.05934" lon="7.1794">
        <ele>445.2</ele>
        <time>2022-10-01T07:04:38Z</time>
      </trkpt>
      <trkpt lat="47.05937" lon="7.17941">
        <ele>445.4</ele>
        <time>2022-10-01T07:04:39Z</time>
      </trkpt>
      <trkpt lat="47.05939" lon="7.17941">
        <ele>445.5</ele>
        <time>2022-10-01T07:04:40Z</time>
      </trkpt>
      <trkpt lat="47.05942" lon="7.17942">
        <ele>445.8</ele>
        <time>2022-10-01T07:04:41Z</time>
      </trkpt>
      <trkpt lat="47.05943" lon="7.17942">
        <ele>445.8</ele>
        <time>2022-10-01T07:04:42Z</time>
      </trkpt>
      <trkpt lat="47.05947" lon="7.17942">
        <ele>446.1</ele>
        <time>2022-10-01T07:04:43Z</time>
      </trkpt>
      <trkpt lat="47.05948" lon="7.17942">
        <ele>446.2</ele>
        <time>2022-10-01T07:04:44Z</time>
      </trkpt>
      <trkpt lat="47.05952" lon="7.17943">
        <ele>446.4</ele>
        <time>2022-10-01T07:04:45Z</time>
      </trkpt>
      <trkpt lat="47.05953" lon="7.17943">
        <ele>446.5</ele>
        <time>2022-10-01T07:04:46Z</time>
      </trkpt>
      <trkpt lat="47.05957" lon="7.17944">
        <ele>446.8</ele>
        <time>2022-10-01T07:04:47Z</time>
      </trkpt>
      <trkpt lat="47.05958" lon="7.17944">
        <ele>446.9</ele>
        <time>2022-10-01T07:04:48Z</time>
      </trkpt>
      <trkpt lat="47.05962" lon="7.17945">
        <ele>447.2</ele>
        <time>2022-10-01T07:04:49Z</time>
      </trkpt>
      <trkpt lat="47.05963" lon="7.17945">
        <ele>447.3</ele>
        <time>2022-10-01T07:04:50Z</time>
      </trkpt>
      <trkpt lat="47.05966" lon="7.17947">
        <ele>447.6</ele>
        <time>2022-10-01T07:04:51Z</time>
      </trkpt>
      <trkpt lat="47.0597" lon="7.1795">
        <ele>448</ele>
        <time>2022-10-01T07:04:52Z</time>
      </trkpt>
      <trkpt lat="47.05973" lon="7.17952">
        <ele>448.2</ele>
        <time>2022-10-01T07:04:53Z</time>
      </trkpt>
      <trkpt lat="47.05974" lon="7.17953">
        <ele>448.3</ele>
        <time>2022-10-01T07:04:54Z</time>
      </trkpt>
      <trkpt lat="47.05977" lon="7.17953">
        <ele>448.5</ele>
        <time>2022-10-01T07:04:55Z</time>
      </trkpt>
      <trkpt lat="47.05978" lon="7.17953">
        <ele>448.4</ele>
        <time>2022-10-01T07:04:56Z</time>
      </trkpt>
      <trkpt lat="47.05981" lon="7.17953">
        <ele>448.1</ele>
        <time>2022-10-01T07:04:57Z</time>
      </trkpt>
      <trkpt lat="47.05982" lon="7.17953">
        <ele>448.1</ele>
        <time>2022-10-01T07:04:58Z</time>
      </trkpt>
      <trkpt lat="47.05986" lon="7.17953">
        <ele>447.8</ele>
        <time>2022-10-01T07:04:59Z</time>
      </trkpt>
      <trkpt lat="47.05987" lon="7.17952">
        <ele>447.7</ele>
        <time>2022-10-01T07:05:00Z</time>
      </trkpt>
      <trkpt lat="47.0599" lon="7.17952">
        <ele>447.4</ele>
        <time>2022-10-01T07:05:01Z</time>
      </trkpt>
      <trkpt lat="47.05994" lon="7.17952">
        <ele>447.1</ele>
        <time>2022-10-01T07:05:02Z</time>
      </trkpt>
      <trkpt lat="47.05998" lon="7.17952">
        <ele>446.7</ele>
        <time>2022-10-01T07:05:03Z</time>
      </trkpt>
      <trkpt lat="47.06003" lon="7.17952">
        <ele>446.3</ele>
        <time>2022-10-01T07:05:04Z</time>
      </trkpt>
      <trkpt lat="47.06008" lon="7.17953">
        <ele>445.8</ele>
        <time>2022-10-01T07:05:05Z</time>
      </trkpt>
      <trkpt lat="47.06013" lon="7.17953">
        <ele>445.4</ele>
        <time>2022-10-01T07:05:06Z</time>
      </trkpt>
      <trkpt lat="47.06018" lon="7.17954">
        <ele>445</ele>
        <time>2022-10-01T07:05:07Z</time>
      </trkpt>
      <trkpt lat="47.06023" lon="7.17954">
        <ele>444.6</ele>
        <time>2022-10-01T07:05:08Z</time>
      </trkpt>
      <trkpt lat="47.06029" lon="7.17956">
        <ele>444.2</ele>
        <time>2022-10-01T07:05:09Z</time>
      </trkpt>
      <trkpt lat="47.06034" lon="7.17957">
        <ele>443.9</ele>
        <time>2022-10-01T07:05:10Z</time>
      </trkpt>
      <trkpt lat="47.06038" lon="7.17958">
        <ele>443.6</ele>
        <time>2022-10-01T07:05:11Z</time>
      </trkpt>
      <trkpt lat="47.06041" lon="7.17959">
        <ele>443.4</ele>
        <time>2022-10-01T07:05:12Z</time>
      </trkpt>
      <trkpt lat="47.06045" lon="7.17958">
        <ele>443.2</ele>
        <time>2022-10-01T07:05:13Z</time>
      </trkpt>
      <trkpt lat="47.06046" lon="7.1796">
        <ele>443</ele>
        <time>2022-10-01T07:05:14Z</time>
      </trkpt>
      <trkpt lat="47.06047" lon="7.17961">
        <ele>443</ele>
        <time>2022-10-01T07:05:15Z</time>
      </trkpt>
      <trkpt lat="47.0605" lon="7.17964">
        <ele>442.8</ele>
        <time>2022-10-01T07:05:16Z</time>
      </trkpt>
      <trkpt lat="47.06052" lon="7.17964">
        <ele>442.7</ele>
        <time>2022-10-01T07:05:17Z</time>
      </trkpt>
      <trkpt lat="47.06054" lon="7.17967">
        <ele>442.4</ele>
        <time>2022-10-01T07:05:18Z</time>
      </trkpt>
      <trkpt lat="47.06056" lon="7.17971">
        <ele>442.3</ele>
        <time>2022-10-01T07:05:19Z</time>
      </trkpt>
      <trkpt lat="47.06057" lon="7.17975">
        <ele>442.2</ele>
        <time>2022-10-01T07:05:20Z</time>
      </trkpt>
      <trkpt lat="47.06057" lon="7.1798">
        <ele>442.1</ele>
        <time>2022-10-01T07:05:21Z</time>
      </trkpt>
      <trkpt lat="47.06056" lon="7.17983">
        <ele>442.1</ele>
        <time>2022-10-01T07:05:22Z</time>
      </trkpt>
      <trkpt lat="47.06055" lon="7.17987">
        <ele>442</ele>
        <time>2022-10-01T07:05:23Z</time>
      </trkpt>
      <trkpt lat="47.06055" lon="7.17993">
        <ele>441.9</ele>
        <time>2022-10-01T07:05:24Z</time>
      </trkpt>
      <trkpt lat="47.06054" lon="7.17996">
        <ele>441.8</ele>
        <time>2022-10-01T07:05:25Z</time>
      </trkpt>
      <trkpt lat="47.06052" lon="7.18">
        <ele>441.8</ele>
        <time>2022-10-01T07:05:26Z</time>
      </trkpt>
      <trkpt lat="47.06051" lon="7.18004">
        <ele>441.7</ele>
        <time>2022-10-01T07:05:27Z</time>
      </trkpt>
      <trkpt lat="47.06052" lon="7.1801">
        <ele>441.6</ele>
        <time>2022-10-01T07:05:28Z</time>
      </trkpt>
      <trkpt lat="47.06052" lon="7.18017">
        <ele>441.4</ele>
        <time>2022-10-01T07:05:29Z</time>
      </trkpt>
      <trkpt lat="47.06052" lon="7.18021">
        <ele>441.3</ele>
        <time>2022-10-01T07:05:30Z</time>
      </trkpt>
      <trkpt lat="47.06054" lon="7.18027">
        <ele>441.2</ele>
        <time>2022-10-01T07:05:31Z</time>
      </trkpt>
      <trkpt lat="47.06055" lon="7.18031">
        <ele>441.1</ele>
        <time>2022-10-01T07:05:32Z</time>
      </trkpt>
      <trkpt lat="47.06054" lon="7.18036">
        <ele>440.9</ele>
        <time>2022-10-01T07:05:33Z</time>
      </trkpt>
      <trkpt lat="47.06054" lon="7.18043">
        <ele>440.7</ele>
        <time>2022-10-01T07:05:34Z</time>
      </trkpt>
      <trkpt lat="47.06055" lon="7.18051">
        <ele>440.5</ele>
        <time>2022-10-01T07:05:35Z</time>
      </trkpt>
      <trkpt lat="47.06056" lon="7.18055">
        <ele>440.3</ele>
        <time>2022-10-01T07:05:36Z</time>
      </trkpt>
      <trkpt lat="47.06058" lon="7.18059">
        <ele>440.1</ele>
        <time>2022-10-01T07:05:37Z</time>
      </trkpt>
      <trkpt lat="47.06059" lon="7.18067">
        <ele>439.9</ele>
        <time>2022-10-01T07:05:38Z</time>
      </trkpt>
      <trkpt lat="47.0606" lon="7.18071">
        <ele>439.7</ele>
        <time>2022-10-01T07:05:39Z</time>
      </trkpt>
      <trkpt lat="47.06062" lon="7.18074">
        <ele>439.5</ele>
        <time>2022-10-01T07:05:40Z</time>
      </trkpt>
      <trkpt lat="47.06064" lon="7.18078">
        <ele>439.3</ele>
        <time>2022-10-01T07:05:41Z</time>
      </trkpt>
      <trkpt lat="47.06063" lon="7.18082">
        <ele>439.1</ele>
        <time>2022-10-01T07:05:42Z</time>
      </trkpt>
      <trkpt lat="47.06068" lon="7.18088">
        <ele>438.7</ele>
        <time>2022-10-01T07:05:43Z</time>
      </trkpt>
      <trkpt lat="47.06071" lon="7.18092">
        <ele>438.4</ele>
        <time>2022-10-01T07:05:44Z</time>
      </trkpt>
      <trkpt lat="47.06073" lon="7.18096">
        <ele>438.2</ele>
        <time>2022-10-01T07:05:45Z</time>
      </trkpt>
      <trkpt lat="47.06074" lon="7.181">
        <ele>437.9</ele>
        <time>2022-10-01T07:05:46Z</time>
      </trkpt>
      <trkpt lat="47.06075" lon="7.18101">
        <ele>437.9</ele>
        <time>2022-10-01T07:05:47Z</time>
      </trkpt>
      <trkpt lat="47.06076" lon="7.18105">
        <ele>437.6</ele>
        <time>2022-10-01T07:05:48Z</time>
      </trkpt>
      <trkpt lat="47.06076" lon="7.18106">
        <ele>437.5</ele>
        <time>2022-10-01T07:05:49Z</time>
      </trkpt>
      <trkpt lat="47.06078" lon="7.18111">
        <ele>437.2</ele>
        <time>2022-10-01T07:05:50Z</time>
      </trkpt>
      <trkpt lat="47.0608" lon="7.18116">
        <ele>436.8</ele>
        <time>2022-10-01T07:05:51Z</time>
      </trkpt>
      <trkpt lat="47.0608" lon="7.18117">
        <ele>436.7</ele>
        <time>2022-10-01T07:05:52Z</time>
      </trkpt>
      <trkpt lat="47.06083" lon="7.18122">
        <ele>436.3</ele>
        <time>2022-10-01T07:05:53Z</time>
      </trkpt>
      <trkpt lat="47.06085" lon="7.18125">
        <ele>436</ele>
        <time>2022-10-01T07:05:54Z</time>
      </trkpt>
      <trkpt lat="47.06087" lon="7.1813">
        <ele>435.6</ele>
        <time>2022-10-01T07:05:55Z</time>
      </trkpt>
      <trkpt lat="47.06091" lon="7.18137">
        <ele>434.9</ele>
        <time>2022-10-01T07:05:56Z</time>
      </trkpt>
      <trkpt lat="47.06094" lon="7.18141">
        <ele>434.6</ele>
        <time>2022-10-01T07:05:57Z</time>
      </trkpt>
      <trkpt lat="47.06098" lon="7.18146">
        <ele>434.1</ele>
        <time>2022-10-01T07:05:58Z</time>
      </trkpt>
      <trkpt lat="47.06101" lon="7.18148">
        <ele>433.9</ele>
        <time>2022-10-01T07:05:59Z</time>
      </trkpt>
      <trkpt lat="47.06107" lon="7.18151">
        <ele>433.5</ele>
        <time>2022-10-01T07:06:00Z</time>
      </trkpt>
      <trkpt lat="47.06109" lon="7.18155">
        <ele>433.3</ele>
        <time>2022-10-01T07:06:01Z</time>
      </trkpt>
      <trkpt lat="47.06112" lon="7.18159">
        <ele>433.1</ele>
        <time>2022-10-01T07:06:02Z</time>
      </trkpt>
      <trkpt lat="47.06115" lon="7.18164">
        <ele>432.9</ele>
        <time>2022-10-01T07:06:03Z</time>
      </trkpt>
      <trkpt lat="47.0612" lon="7.18168">
        <ele>432.7</ele>
        <time>2022-10-01T07:06:04Z</time>
      </trkpt>
      <trkpt lat="47.06124" lon="7.18171">
        <ele>432.5</ele>
        <time>2022-10-01T07:06:05Z</time>
      </trkpt>
      <trkpt lat="47.06128" lon="7.18173">
        <ele>432.4</ele>
        <time>2022-10-01T07:06:06Z</time>
      </trkpt>
      <trkpt lat="47.0613" lon="7.18177">
        <ele>432.3</ele>
        <time>2022-10-01T07:06:07Z</time>
      </trkpt>
      <trkpt lat="47.06134" lon="7.18181">
        <ele>432.2</ele>
        <time>2022-10-01T07:06:08Z</time>
      </trkpt>
      <trkpt lat="47.06139" lon="7.18184">
        <ele>432.1</ele>
        <time>2022-10-01T07:06:09Z</time>
      </trkpt>
      <trkpt lat="47.06143" lon="7.18188">
        <ele>432</ele>
        <time>2022-10-01T07:06:10Z</time>
      </trkpt>
      <trkpt lat="47.06148" lon="7.18192">
        <ele>432</ele>
        <time>2022-10-01T07:06:11Z</time>
      </trkpt>
      <trkpt lat="47.06154" lon="7.18197">
        <ele>431.9</ele>
        <time>2022-10-01T07:06:12Z</time>
      </trkpt>
      <trkpt lat="47.06159" lon="7.18203">
        <ele>431.9</ele>
        <time>2022-10-01T07:06:13Z</time>
      </trkpt>
      <trkpt lat="47.06165" lon="7.18209">
        <ele>431.9</ele>
        <time>2022-10-01T07:06:14Z</time>
      </trkpt>
      <trkpt lat="47.06172" lon="7.18213">
        <ele>431.9</ele>
        <time>2022-10-01T07:06:15Z</time>
      </trkpt>
      <trkpt lat="47.06177" lon="7.18217">
        <ele>431.9</ele>
        <time>2022-10-01T07:06:16Z</time>
      </trkpt>
      <trkpt lat="47.06183" lon="7.18222">
        <ele>432</ele>
        <time>2022-10-01T07:06:17Z</time>
      </trkpt>
      <trkpt lat="47.0619" lon="7.18227">
        <ele>432</ele>
        <time>2022-10-01T07:06:18Z</time>
      </trkpt>
      <trkpt lat="47.06195" lon="7.18232">
        <ele>432</ele>
        <time>2022-10-01T07:06:19Z</time>
      </trkpt>
      <trkpt lat="47.06201" lon="7.18236">
        <ele>432.1</ele>
        <time>2022-10-01T07:06:20Z</time>
      </trkpt>
      <trkpt lat="47.06206" lon="7.1824">
        <ele>432.1</ele>
        <time>2022-10-01T07:06:21Z</time>
      </trkpt>
      <trkpt lat="47.06211" lon="7.18244">
        <ele>432.2</ele>
        <time>2022-10-01T07:06:22Z</time>
      </trkpt>
      <trkpt lat="47.06216" lon="7.18247">
        <ele>432.2</ele>
        <time>2022-10-01T07:06:23Z</time>
      </trkpt>
      <trkpt lat="47.06221" lon="7.18251">
        <ele>432.2</ele>
        <time>2022-10-01T07:06:24Z</time>
      </trkpt>
      <trkpt lat="47.06226" lon="7.18254">
        <ele>432.3</ele>
        <time>2022-10-01T07:06:25Z</time>
      </trkpt>
      <trkpt lat="47.06231" lon="7.18257">
        <ele>432.4</ele>
        <time>2022-10-01T07:06:26Z</time>
      </trkpt>
      <trkpt lat="47.06235" lon="7.18261">
        <ele>432.5</ele>
        <time>2022-10-01T07:06:28Z</time>
      </trkpt>
      <trkpt lat="47.06239" lon="7.18265">
        <ele>432.6</ele>
        <time>2022-10-01T07:06:29Z</time>
      </trkpt>
      <trkpt lat="47.06244" lon="7.18267">
        <ele>432.7</ele>
        <time>2022-10-01T07:06:30Z</time>
      </trkpt>
      <trkpt lat="47.06247" lon="7.18271">
        <ele>432.8</ele>
        <time>2022-10-01T07:06:31Z</time>
      </trkpt>
      <trkpt lat="47.06252" lon="7.18273">
        <ele>432.9</ele>
        <time>2022-10-01T07:06:32Z</time>
      </trkpt>
      <trkpt lat="47.06255" lon="7.18276">
        <ele>433</ele>
        <time>2022-10-01T07:06:33Z</time>
      </trkpt>
      <trkpt lat="47.06259" lon="7.18279">
        <ele>433.1</ele>
        <time>2022-10-01T07:06:34Z</time>
      </trkpt>
      <trkpt lat="47.06264" lon="7.1828">
        <ele>433.3</ele>
        <time>2022-10-01T07:06:35Z</time>
      </trkpt>
      <trkpt lat="47.06266" lon="7.18284">
        <ele>433.4</ele>
        <time>2022-10-01T07:06:36Z</time>
      </trkpt>
      <trkpt lat="47.0627" lon="7.18285">
        <ele>433.4</ele>
        <time>2022-10-01T07:06:37Z</time>
      </trkpt>
      <trkpt lat="47.06273" lon="7.18289">
        <ele>433.4</ele>
        <time>2022-10-01T07:06:38Z</time>
      </trkpt>
      <trkpt lat="47.06277" lon="7.18293">
        <ele>433.4</ele>
        <time>2022-10-01T07:06:39Z</time>
      </trkpt>
      <trkpt lat="47.0628" lon="7.18296">
        <ele>433.4</ele>
        <time>2022-10-01T07:06:40Z</time>
      </trkpt>
      <trkpt lat="47.06281" lon="7.183">
        <ele>433.4</ele>
        <time>2022-10-01T07:06:41Z</time>
      </trkpt>
      <trkpt lat="47.06283" lon="7.18305">
        <ele>433.5</ele>
        <time>2022-10-01T07:06:42Z</time>
      </trkpt>
      <trkpt lat="47.06283" lon="7.1831">
        <ele>433.5</ele>
        <time>2022-10-01T07:06:43Z</time>
      </trkpt>
      <trkpt lat="47.06283" lon="7.18314">
        <ele>433.5</ele>
        <time>2022-10-01T07:06:44Z</time>
      </trkpt>
      <trkpt lat="47.06282" lon="7.18318">
        <ele>433.5</ele>
        <time>2022-10-01T07:06:45Z</time>
      </trkpt>
      <trkpt lat="47.0628" lon="7.18323">
        <ele>433.5</ele>
        <time>2022-10-01T07:06:46Z</time>
      </trkpt>
      <trkpt lat="47.06277" lon="7.18326">
        <ele>433.5</ele>
        <time>2022-10-01T07:06:47Z</time>
      </trkpt>
      <trkpt lat="47.06274" lon="7.18331">
        <ele>433.5</ele>
        <time>2022-10-01T07:06:48Z</time>
      </trkpt>
      <trkpt lat="47.06272" lon="7.18334">
        <ele>433.5</ele>
        <time>2022-10-01T07:06:49Z</time>
      </trkpt>
      <trkpt lat="47.06268" lon="7.18337">
        <ele>433.5</ele>
        <time>2022-10-01T07:06:50Z</time>
      </trkpt>
      <trkpt lat="47.06266" lon="7.18341">
        <ele>433.5</ele>
        <time>2022-10-01T07:06:51Z</time>
      </trkpt>
      <trkpt lat="47.06263" lon="7.18346">
        <ele>433.5</ele>
        <time>2022-10-01T07:06:52Z</time>
      </trkpt>
      <trkpt lat="47.06261" lon="7.18349">
        <ele>433.5</ele>
        <time>2022-10-01T07:06:53Z</time>
      </trkpt>
      <trkpt lat="47.06258" lon="7.18353">
        <ele>433.6</ele>
        <time>2022-10-01T07:06:54Z</time>
      </trkpt>
      <trkpt lat="47.06255" lon="7.18357">
        <ele>433.6</ele>
        <time>2022-10-01T07:06:55Z</time>
      </trkpt>
      <trkpt lat="47.06252" lon="7.18362">
        <ele>433.6</ele>
        <time>2022-10-01T07:06:56Z</time>
      </trkpt>
      <trkpt lat="47.06249" lon="7.18365">
        <ele>433.6</ele>
        <time>2022-10-01T07:06:57Z</time>
      </trkpt>
      <trkpt lat="47.06246" lon="7.1837">
        <ele>433.7</ele>
        <time>2022-10-01T07:06:58Z</time>
      </trkpt>
      <trkpt lat="47.06244" lon="7.18374">
        <ele>433.7</ele>
        <time>2022-10-01T07:06:59Z</time>
      </trkpt>
      <trkpt lat="47.06242" lon="7.18378">
        <ele>433.7</ele>
        <time>2022-10-01T07:07:00Z</time>
      </trkpt>
      <trkpt lat="47.06241" lon="7.18383">
        <ele>433.8</ele>
        <time>2022-10-01T07:07:01Z</time>
      </trkpt>
      <trkpt lat="47.06241" lon="7.18388">
        <ele>433.8</ele>
        <time>2022-10-01T07:07:02Z</time>
      </trkpt>
      <trkpt lat="47.06241" lon="7.18393">
        <ele>433.9</ele>
        <time>2022-10-01T07:07:03Z</time>
      </trkpt>
      <trkpt lat="47.06242" lon="7.18397">
        <ele>433.9</ele>
        <time>2022-10-01T07:07:04Z</time>
      </trkpt>
      <trkpt lat="47.06244" lon="7.18402">
        <ele>433.9</ele>
        <time>2022-10-01T07:07:05Z</time>
      </trkpt>
      <trkpt lat="47.06247" lon="7.18406">
        <ele>433.9</ele>
        <time>2022-10-01T07:07:06Z</time>
      </trkpt>
      <trkpt lat="47.0625" lon="7.1841">
        <ele>433.9</ele>
        <time>2022-10-01T07:07:07Z</time>
      </trkpt>
      <trkpt lat="47.06252" lon="7.18413">
        <ele>433.9</ele>
        <time>2022-10-01T07:07:08Z</time>
      </trkpt>
      <trkpt lat="47.06256" lon="7.18417">
        <ele>433.9</ele>
        <time>2022-10-01T07:07:09Z</time>
      </trkpt>
      <trkpt lat="47.06259" lon="7.18421">
        <ele>433.9</ele>
        <time>2022-10-01T07:07:10Z</time>
      </trkpt>
      <trkpt lat="47.06262" lon="7.18423">
        <ele>433.9</ele>
        <time>2022-10-01T07:07:11Z</time>
      </trkpt>
      <trkpt lat="47.06265" lon="7.18426">
        <ele>433.8</ele>
        <time>2022-10-01T07:07:12Z</time>
      </trkpt>
      <trkpt lat="47.06267" lon="7.18431">
        <ele>433.8</ele>
        <time>2022-10-01T07:07:13Z</time>
      </trkpt>
      <trkpt lat="47.06271" lon="7.18434">
        <ele>433.8</ele>
        <time>2022-10-01T07:07:14Z</time>
      </trkpt>
      <trkpt lat="47.06274" lon="7.18437">
        <ele>433.8</ele>
        <time>2022-10-01T07:07:15Z</time>
      </trkpt>
      <trkpt lat="47.06276" lon="7.18441">
        <ele>433.8</ele>
        <time>2022-10-01T07:07:16Z</time>
      </trkpt>
      <trkpt lat="47.06279" lon="7.18445">
        <ele>433.8</ele>
        <time>2022-10-01T07:07:17Z</time>
      </trkpt>
      <trkpt lat="47.06283" lon="7.18449">
        <ele>433.8</ele>
        <time>2022-10-01T07:07:18Z</time>
      </trkpt>
      <trkpt lat="47.06286" lon="7.18453">
        <ele>433.8</ele>
        <time>2022-10-01T07:07:19Z</time>
      </trkpt>
      <trkpt lat="47.06288" lon="7.18456">
        <ele>433.8</ele>
        <time>2022-10-01T07:07:20Z</time>
      </trkpt>
      <trkpt lat="47.06291" lon="7.1846">
        <ele>433.8</ele>
        <time>2022-10-01T07:07:21Z</time>
      </trkpt>
      <trkpt lat="47.06293" lon="7.18464">
        <ele>433.8</ele>
        <time>2022-10-01T07:07:22Z</time>
      </trkpt>
      <trkpt lat="47.06296" lon="7.18467">
        <ele>433.8</ele>
        <time>2022-10-01T07:07:23Z</time>
      </trkpt>
      <trkpt lat="47.06298" lon="7.1847">
        <ele>433.9</ele>
        <time>2022-10-01T07:07:24Z</time>
      </trkpt>
      <trkpt lat="47.06301" lon="7.18473">
        <ele>433.9</ele>
        <time>2022-10-01T07:07:25Z</time>
      </trkpt>
      <trkpt lat="47.06303" lon="7.18476">
        <ele>433.9</ele>
        <time>2022-10-01T07:07:26Z</time>
      </trkpt>
      <trkpt lat="47.06306" lon="7.1848">
        <ele>433.9</ele>
        <time>2022-10-01T07:07:27Z</time>
      </trkpt>
      <trkpt lat="47.06309" lon="7.18484">
        <ele>434</ele>
        <time>2022-10-01T07:07:28Z</time>
      </trkpt>
      <trkpt lat="47.06313" lon="7.18487">
        <ele>434</ele>
        <time>2022-10-01T07:07:29Z</time>
      </trkpt>
      <trkpt lat="47.06316" lon="7.18491">
        <ele>434.1</ele>
        <time>2022-10-01T07:07:30Z</time>
      </trkpt>
      <trkpt lat="47.06319" lon="7.18494">
        <ele>434.1</ele>
        <time>2022-10-01T07:07:31Z</time>
      </trkpt>
      <trkpt lat="47.06326" lon="7.18501">
        <ele>434.3</ele>
        <time>2022-10-01T07:07:32Z</time>
      </trkpt>
      <trkpt lat="47.06329" lon="7.18505">
        <ele>434.4</ele>
        <time>2022-10-01T07:07:33Z</time>
      </trkpt>
      <trkpt lat="47.06333" lon="7.18509">
        <ele>434.5</ele>
        <time>2022-10-01T07:07:34Z</time>
      </trkpt>
      <trkpt lat="47.06336" lon="7.18512">
        <ele>434.6</ele>
        <time>2022-10-01T07:07:35Z</time>
      </trkpt>
      <trkpt lat="47.06339" lon="7.18515">
        <ele>434.7</ele>
        <time>2022-10-01T07:07:36Z</time>
      </trkpt>
      <trkpt lat="47.06342" lon="7.18519">
        <ele>434.8</ele>
        <time>2022-10-01T07:07:37Z</time>
      </trkpt>
      <trkpt lat="47.06345" lon="7.18523">
        <ele>434.9</ele>
        <time>2022-10-01T07:07:38Z</time>
      </trkpt>
      <trkpt lat="47.06347" lon="7.18525">
        <ele>434.9</ele>
        <time>2022-10-01T07:07:39Z</time>
      </trkpt>
      <trkpt lat="47.06349" lon="7.18529">
        <ele>435</ele>
        <time>2022-10-01T07:07:40Z</time>
      </trkpt>
      <trkpt lat="47.06352" lon="7.18532">
        <ele>435</ele>
        <time>2022-10-01T07:07:41Z</time>
      </trkpt>
      <trkpt lat="47.06354" lon="7.18536">
        <ele>435</ele>
        <time>2022-10-01T07:07:42Z</time>
      </trkpt>
      <trkpt lat="47.06357" lon="7.18541">
        <ele>435.1</ele>
        <time>2022-10-01T07:07:43Z</time>
      </trkpt>
      <trkpt lat="47.06359" lon="7.18544">
        <ele>435.1</ele>
        <time>2022-10-01T07:07:44Z</time>
      </trkpt>
      <trkpt lat="47.06362" lon="7.18548">
        <ele>435</ele>
        <time>2022-10-01T07:07:45Z</time>
      </trkpt>
      <trkpt lat="47.06364" lon="7.18553">
        <ele>435</ele>
        <time>2022-10-01T07:07:46Z</time>
      </trkpt>
      <trkpt lat="47.06368" lon="7.18558">
        <ele>435</ele>
        <time>2022-10-01T07:07:47Z</time>
      </trkpt>
      <trkpt lat="47.0637" lon="7.18561">
        <ele>435</ele>
        <time>2022-10-01T07:07:48Z</time>
      </trkpt>
      <trkpt lat="47.06373" lon="7.18567">
        <ele>434.9</ele>
        <time>2022-10-01T07:07:49Z</time>
      </trkpt>
      <trkpt lat="47.06376" lon="7.18572">
        <ele>434.9</ele>
        <time>2022-10-01T07:07:50Z</time>
      </trkpt>
      <trkpt lat="47.06379" lon="7.18578">
        <ele>434.9</ele>
        <time>2022-10-01T07:07:51Z</time>
      </trkpt>
      <trkpt lat="47.06381" lon="7.18584">
        <ele>434.9</ele>
        <time>2022-10-01T07:07:52Z</time>
      </trkpt>
      <trkpt lat="47.06383" lon="7.18588">
        <ele>434.8</ele>
        <time>2022-10-01T07:07:53Z</time>
      </trkpt>
      <trkpt lat="47.06386" lon="7.18594">
        <ele>434.8</ele>
        <time>2022-10-01T07:07:54Z</time>
      </trkpt>
      <trkpt lat="47.0639" lon="7.186">
        <ele>434.8</ele>
        <time>2022-10-01T07:07:55Z</time>
      </trkpt>
      <trkpt lat="47.06393" lon="7.18605">
        <ele>434.8</ele>
        <time>2022-10-01T07:07:56Z</time>
      </trkpt>
      <trkpt lat="47.06396" lon="7.18611">
        <ele>434.7</ele>
        <time>2022-10-01T07:07:57Z</time>
      </trkpt>
      <trkpt lat="47.06398" lon="7.18615">
        <ele>434.7</ele>
        <time>2022-10-01T07:07:58Z</time>
      </trkpt>
      <trkpt lat="47.06402" lon="7.1862">
        <ele>434.7</ele>
        <time>2022-10-01T07:07:59Z</time>
      </trkpt>
      <trkpt lat="47.06403" lon="7.18624">
        <ele>434.7</ele>
        <time>2022-10-01T07:08:00Z</time>
      </trkpt>
      <trkpt lat="47.06407" lon="7.18628">
        <ele>434.6</ele>
        <time>2022-10-01T07:08:01Z</time>
      </trkpt>
      <trkpt lat="47.06409" lon="7.18632">
        <ele>434.6</ele>
        <time>2022-10-01T07:08:02Z</time>
      </trkpt>
      <trkpt lat="47.06412" lon="7.18636">
        <ele>434.6</ele>
        <time>2022-10-01T07:08:03Z</time>
      </trkpt>
      <trkpt lat="47.06416" lon="7.1864">
        <ele>434.6</ele>
        <time>2022-10-01T07:08:04Z</time>
      </trkpt>
      <trkpt lat="47.06419" lon="7.18645">
        <ele>434.6</ele>
        <time>2022-10-01T07:08:05Z</time>
      </trkpt>
      <trkpt lat="47.06422" lon="7.18648">
        <ele>434.6</ele>
        <time>2022-10-01T07:08:06Z</time>
      </trkpt>
      <trkpt lat="47.06426" lon="7.18651">
        <ele>434.5</ele>
        <time>2022-10-01T07:08:07Z</time>
      </trkpt>
      <trkpt lat="47.06428" lon="7.18654">
        <ele>434.5</ele>
        <time>2022-10-01T07:08:08Z</time>
      </trkpt>
      <trkpt lat="47.0643" lon="7.18657">
        <ele>434.5</ele>
        <time>2022-10-01T07:08:09Z</time>
      </trkpt>
      <trkpt lat="47.06434" lon="7.18659">
        <ele>434.5</ele>
        <time>2022-10-01T07:08:10Z</time>
      </trkpt>
      <trkpt lat="47.06437" lon="7.18664">
        <ele>434.5</ele>
        <time>2022-10-01T07:08:11Z</time>
      </trkpt>
      <trkpt lat="47.0644" lon="7.18668">
        <ele>434.5</ele>
        <time>2022-10-01T07:08:12Z</time>
      </trkpt>
      <trkpt lat="47.06443" lon="7.18673">
        <ele>434.5</ele>
        <time>2022-10-01T07:08:13Z</time>
      </trkpt>
      <trkpt lat="47.06446" lon="7.18676">
        <ele>434.5</ele>
        <time>2022-10-01T07:08:14Z</time>
      </trkpt>
      <trkpt lat="47.06449" lon="7.1868">
        <ele>434.4</ele>
        <time>2022-10-01T07:08:15Z</time>
      </trkpt>
      <trkpt lat="47.06452" lon="7.18684">
        <ele>434.4</ele>
        <time>2022-10-01T07:08:16Z</time>
      </trkpt>
      <trkpt lat="47.06455" lon="7.18687">
        <ele>434.4</ele>
        <time>2022-10-01T07:08:17Z</time>
      </trkpt>
      <trkpt lat="47.06459" lon="7.18691">
        <ele>434.4</ele>
        <time>2022-10-01T07:08:18Z</time>
      </trkpt>
      <trkpt lat="47.06462" lon="7.18695">
        <ele>434.4</ele>
        <time>2022-10-01T07:08:19Z</time>
      </trkpt>
      <trkpt lat="47.06465" lon="7.18698">
        <ele>434.4</ele>
        <time>2022-10-01T07:08:20Z</time>
      </trkpt>
      <trkpt lat="47.06468" lon="7.18702">
        <ele>434.4</ele>
        <time>2022-10-01T07:08:21Z</time>
      </trkpt>
      <trkpt lat="47.0647" lon="7.18706">
        <ele>434.4</ele>
        <time>2022-10-01T07:08:22Z</time>
      </trkpt>
      <trkpt lat="47.06472" lon="7.18709">
        <ele>434.4</ele>
        <time>2022-10-01T07:08:23Z</time>
      </trkpt>
      <trkpt lat="47.06475" lon="7.18713">
        <ele>434.4</ele>
        <time>2022-10-01T07:08:24Z</time>
      </trkpt>
      <trkpt lat="47.06478" lon="7.18717">
        <ele>434.3</ele>
        <time>2022-10-01T07:08:25Z</time>
      </trkpt>
      <trkpt lat="47.06481" lon="7.18722">
        <ele>434.3</ele>
        <time>2022-10-01T07:08:26Z</time>
      </trkpt>
      <trkpt lat="47.06485" lon="7.18725">
        <ele>434.3</ele>
        <time>2022-10-01T07:08:27Z</time>
      </trkpt>
      <trkpt lat="47.06488" lon="7.18729">
        <ele>434.3</ele>
        <time>2022-10-01T07:08:28Z</time>
      </trkpt>
      <trkpt lat="47.06492" lon="7.18732">
        <ele>434.2</ele>
        <time>2022-10-01T07:08:29Z</time>
      </trkpt>
      <trkpt lat="47.06495" lon="7.18735">
        <ele>434.2</ele>
        <time>2022-10-01T07:08:30Z</time>
      </trkpt>
      <trkpt lat="47.065" lon="7.1874">
        <ele>434.2</ele>
        <time>2022-10-01T07:08:31Z</time>
      </trkpt>
      <trkpt lat="47.06503" lon="7.18744">
        <ele>434.1</ele>
        <time>2022-10-01T07:08:32Z</time>
      </trkpt>
      <trkpt lat="47.06508" lon="7.18748">
        <ele>434.1</ele>
        <time>2022-10-01T07:08:34Z</time>
      </trkpt>
      <trkpt lat="47.06512" lon="7.18751">
        <ele>434.1</ele>
        <time>2022-10-01T07:08:35Z</time>
      </trkpt>
      <trkpt lat="47.06515" lon="7.18755">
        <ele>434.1</ele>
        <time>2022-10-01T07:08:36Z</time>
      </trkpt>
      <trkpt lat="47.06519" lon="7.18759">
        <ele>434.1</ele>
        <time>2022-10-01T07:08:37Z</time>
      </trkpt>
      <trkpt lat="47.06523" lon="7.18761">
        <ele>434</ele>
        <time>2022-10-01T07:08:38Z</time>
      </trkpt>
      <trkpt lat="47.06527" lon="7.18766">
        <ele>434</ele>
        <time>2022-10-01T07:08:39Z</time>
      </trkpt>
      <trkpt lat="47.06531" lon="7.1877">
        <ele>434</ele>
        <time>2022-10-01T07:08:40Z</time>
      </trkpt>
      <trkpt lat="47.06535" lon="7.18774">
        <ele>434</ele>
        <time>2022-10-01T07:08:41Z</time>
      </trkpt>
      <trkpt lat="47.06539" lon="7.18779">
        <ele>434</ele>
        <time>2022-10-01T07:08:42Z</time>
      </trkpt>
      <trkpt lat="47.06543" lon="7.18783">
        <ele>434</ele>
        <time>2022-10-01T07:08:43Z</time>
      </trkpt>
      <trkpt lat="47.06546" lon="7.18788">
        <ele>433.9</ele>
        <time>2022-10-01T07:08:44Z</time>
      </trkpt>
      <trkpt lat="47.06549" lon="7.18793">
        <ele>433.9</ele>
        <time>2022-10-01T07:08:45Z</time>
      </trkpt>
      <trkpt lat="47.06553" lon="7.18797">
        <ele>433.9</ele>
        <time>2022-10-01T07:08:46Z</time>
      </trkpt>
      <trkpt lat="47.06556" lon="7.18802">
        <ele>433.9</ele>
        <time>2022-10-01T07:08:47Z</time>
      </trkpt>
      <trkpt lat="47.06559" lon="7.18807">
        <ele>433.9</ele>
        <time>2022-10-01T07:08:48Z</time>
      </trkpt>
      <trkpt lat="47.06562" lon="7.18812">
        <ele>433.9</ele>
        <time>2022-10-01T07:08:49Z</time>
      </trkpt>
      <trkpt lat="47.06565" lon="7.18817">
        <ele>433.9</ele>
        <time>2022-10-01T07:08:50Z</time>
      </trkpt>
      <trkpt lat="47.06568" lon="7.18822">
        <ele>433.9</ele>
        <time>2022-10-01T07:08:51Z</time>
      </trkpt>
      <trkpt lat="47.0657" lon="7.18827">
        <ele>433.9</ele>
        <time>2022-10-01T07:08:52Z</time>
      </trkpt>
      <trkpt lat="47.06573" lon="7.18832">
        <ele>433.9</ele>
        <time>2022-10-01T07:08:53Z</time>
      </trkpt>
      <trkpt lat="47.06576" lon="7.18837">
        <ele>433.9</ele>
        <time>2022-10-01T07:08:54Z</time>
      </trkpt>
      <trkpt lat="47.06579" lon="7.18841">
        <ele>433.9</ele>
        <time>2022-10-01T07:08:55Z</time>
      </trkpt>
      <trkpt lat="47.06583" lon="7.18846">
        <ele>433.9</ele>
        <time>2022-10-01T07:08:56Z</time>
      </trkpt>
      <trkpt lat="47.06586" lon="7.1885">
        <ele>433.9</ele>
        <time>2022-10-01T07:08:57Z</time>
      </trkpt>
      <trkpt lat="47.0659" lon="7.18856">
        <ele>433.9</ele>
        <time>2022-10-01T07:08:58Z</time>
      </trkpt>
      <trkpt lat="47.06592" lon="7.1886">
        <ele>433.9</ele>
        <time>2022-10-01T07:08:59Z</time>
      </trkpt>
      <trkpt lat="47.06596" lon="7.18863">
        <ele>433.9</ele>
        <time>2022-10-01T07:09:00Z</time>
      </trkpt>
      <trkpt lat="47.06599" lon="7.18867">
        <ele>433.9</ele>
        <time>2022-10-01T07:09:01Z</time>
      </trkpt>
      <trkpt lat="47.06608" lon="7.18874">
        <ele>433.9</ele>
        <time>2022-10-01T07:09:02Z</time>
      </trkpt>
      <trkpt lat="47.06612" lon="7.18877">
        <ele>433.9</ele>
        <time>2022-10-01T07:09:03Z</time>
      </trkpt>
      <trkpt lat="47.06615" lon="7.18879">
        <ele>433.8</ele>
        <time>2022-10-01T07:09:04Z</time>
      </trkpt>
      <trkpt lat="47.06619" lon="7.18883">
        <ele>433.8</ele>
        <time>2022-10-01T07:09:05Z</time>
      </trkpt>
      <trkpt lat="47.06623" lon="7.18886">
        <ele>433.8</ele>
        <time>2022-10-01T07:09:06Z</time>
      </trkpt>
      <trkpt lat="47.06626" lon="7.18889">
        <ele>433.8</ele>
        <time>2022-10-01T07:09:07Z</time>
      </trkpt>
      <trkpt lat="47.06631" lon="7.18892">
        <ele>433.8</ele>
        <time>2022-10-01T07:09:08Z</time>
      </trkpt>
      <trkpt lat="47.06634" lon="7.18895">
        <ele>433.8</ele>
        <time>2022-10-01T07:09:09Z</time>
      </trkpt>
      <trkpt lat="47.06638" lon="7.18898">
        <ele>433.8</ele>
        <time>2022-10-01T07:09:10Z</time>
      </trkpt>
      <trkpt lat="47.06643" lon="7.18901">
        <ele>433.8</ele>
        <time>2022-10-01T07:09:11Z</time>
      </trkpt>
      <trkpt lat="47.06647" lon="7.18904">
        <ele>433.8</ele>
        <time>2022-10-01T07:09:12Z</time>
      </trkpt>
      <trkpt lat="47.0665" lon="7.18907">
        <ele>433.8</ele>
        <time>2022-10-01T07:09:13Z</time>
      </trkpt>
      <trkpt lat="47.06654" lon="7.18909">
        <ele>433.8</ele>
        <time>2022-10-01T07:09:14Z</time>
      </trkpt>
      <trkpt lat="47.06658" lon="7.18912">
        <ele>433.8</ele>
        <time>2022-10-01T07:09:15Z</time>
      </trkpt>
      <trkpt lat="47.06662" lon="7.18915">
        <ele>433.8</ele>
        <time>2022-10-01T07:09:16Z</time>
      </trkpt>
      <trkpt lat="47.06666" lon="7.18917">
        <ele>433.8</ele>
        <time>2022-10-01T07:09:17Z</time>
      </trkpt>
      <trkpt lat="47.06671" lon="7.1892">
        <ele>433.8</ele>
        <time>2022-10-01T07:09:18Z</time>
      </trkpt>
      <trkpt lat="47.06674" lon="7.18923">
        <ele>433.8</ele>
        <time>2022-10-01T07:09:19Z</time>
      </trkpt>
      <trkpt lat="47.06678" lon="7.18925">
        <ele>433.8</ele>
        <time>2022-10-01T07:09:20Z</time>
      </trkpt>
      <trkpt lat="47.06682" lon="7.18927">
        <ele>433.8</ele>
        <time>2022-10-01T07:09:21Z</time>
      </trkpt>
      <trkpt lat="47.06687" lon="7.18929">
        <ele>433.8</ele>
        <time>2022-10-01T07:09:22Z</time>
      </trkpt>
      <trkpt lat="47.06692" lon="7.18931">
        <ele>433.7</ele>
        <time>2022-10-01T07:09:23Z</time>
      </trkpt>
      <trkpt lat="47.06696" lon="7.18934">
        <ele>433.7</ele>
        <time>2022-10-01T07:09:24Z</time>
      </trkpt>
      <trkpt lat="47.067" lon="7.18937">
        <ele>433.7</ele>
        <time>2022-10-01T07:09:25Z</time>
      </trkpt>
      <trkpt lat="47.06704" lon="7.1894">
        <ele>433.7</ele>
        <time>2022-10-01T07:09:26Z</time>
      </trkpt>
      <trkpt lat="47.06709" lon="7.18943">
        <ele>433.8</ele>
        <time>2022-10-01T07:09:27Z</time>
      </trkpt>
      <trkpt lat="47.06714" lon="7.18946">
        <ele>433.8</ele>
        <time>2022-10-01T07:09:28Z</time>
      </trkpt>
      <trkpt lat="47.06719" lon="7.18949">
        <ele>433.8</ele>
        <time>2022-10-01T07:09:29Z</time>
      </trkpt>
      <trkpt lat="47.06723" lon="7.18952">
        <ele>433.9</ele>
        <time>2022-10-01T07:09:30Z</time>
      </trkpt>
      <trkpt lat="47.06727" lon="7.18954">
        <ele>433.9</ele>
        <time>2022-10-01T07:09:31Z</time>
      </trkpt>
      <trkpt lat="47.06731" lon="7.18959">
        <ele>433.9</ele>
        <time>2022-10-01T07:09:32Z</time>
      </trkpt>
      <trkpt lat="47.06735" lon="7.18959">
        <ele>434</ele>
        <time>2022-10-01T07:09:33Z</time>
      </trkpt>
      <trkpt lat="47.0674" lon="7.18961">
        <ele>434</ele>
        <time>2022-10-01T07:09:34Z</time>
      </trkpt>
      <trkpt lat="47.06744" lon="7.18964">
        <ele>434</ele>
        <time>2022-10-01T07:09:35Z</time>
      </trkpt>
      <trkpt lat="47.06748" lon="7.18965">
        <ele>434.1</ele>
        <time>2022-10-01T07:09:36Z</time>
      </trkpt>
      <trkpt lat="47.06752" lon="7.18965">
        <ele>434.1</ele>
        <time>2022-10-01T07:09:37Z</time>
      </trkpt>
      <trkpt lat="47.06756" lon="7.18967">
        <ele>434.1</ele>
        <time>2022-10-01T07:09:38Z</time>
      </trkpt>
      <trkpt lat="47.0676" lon="7.18968">
        <ele>434.1</ele>
        <time>2022-10-01T07:09:39Z</time>
      </trkpt>
      <trkpt lat="47.06765" lon="7.18968">
        <ele>434.2</ele>
        <time>2022-10-01T07:09:40Z</time>
      </trkpt>
      <trkpt lat="47.06768" lon="7.18969">
        <ele>434.2</ele>
        <time>2022-10-01T07:09:41Z</time>
      </trkpt>
      <trkpt lat="47.06773" lon="7.18971">
        <ele>434.2</ele>
        <time>2022-10-01T07:09:42Z</time>
      </trkpt>
      <trkpt lat="47.06778" lon="7.18974">
        <ele>434.2</ele>
        <time>2022-10-01T07:09:43Z</time>
      </trkpt>
      <trkpt lat="47.06783" lon="7.18976">
        <ele>434.2</ele>
        <time>2022-10-01T07:09:44Z</time>
      </trkpt>
      <trkpt lat="47.06787" lon="7.18976">
        <ele>434.2</ele>
        <time>2022-10-01T07:09:45Z</time>
      </trkpt>
      <trkpt lat="47.06792" lon="7.18978">
        <ele>434.3</ele>
        <time>2022-10-01T07:09:46Z</time>
      </trkpt>
      <trkpt lat="47.06797" lon="7.18982">
        <ele>434.3</ele>
        <time>2022-10-01T07:09:47Z</time>
      </trkpt>
      <trkpt lat="47.06801" lon="7.18984">
        <ele>434.3</ele>
        <time>2022-10-01T07:09:48Z</time>
      </trkpt>
      <trkpt lat="47.06805" lon="7.18987">
        <ele>434.3</ele>
        <time>2022-10-01T07:09:49Z</time>
      </trkpt>
      <trkpt lat="47.06808" lon="7.1899">
        <ele>434.2</ele>
        <time>2022-10-01T07:09:50Z</time>
      </trkpt>
      <trkpt lat="47.06812" lon="7.18991">
        <ele>434.2</ele>
        <time>2022-10-01T07:09:51Z</time>
      </trkpt>
      <trkpt lat="47.06815" lon="7.18994">
        <ele>434.2</ele>
        <time>2022-10-01T07:09:52Z</time>
      </trkpt>
      <trkpt lat="47.06819" lon="7.18998">
        <ele>434.2</ele>
        <time>2022-10-01T07:09:53Z</time>
      </trkpt>
      <trkpt lat="47.06823" lon="7.19002">
        <ele>434.2</ele>
        <time>2022-10-01T07:09:54Z</time>
      </trkpt>
      <trkpt lat="47.06826" lon="7.19006">
        <ele>434.2</ele>
        <time>2022-10-01T07:09:55Z</time>
      </trkpt>
      <trkpt lat="47.06829" lon="7.19009">
        <ele>434.2</ele>
        <time>2022-10-01T07:09:56Z</time>
      </trkpt>
      <trkpt lat="47.06833" lon="7.19014">
        <ele>434.2</ele>
        <time>2022-10-01T07:09:57Z</time>
      </trkpt>
      <trkpt lat="47.06837" lon="7.19018">
        <ele>434.2</ele>
        <time>2022-10-01T07:09:58Z</time>
      </trkpt>
      <trkpt lat="47.06839" lon="7.19022">
        <ele>434.2</ele>
        <time>2022-10-01T07:09:59Z</time>
      </trkpt>
      <trkpt lat="47.06843" lon="7.19026">
        <ele>434.2</ele>
        <time>2022-10-01T07:10:00Z</time>
      </trkpt>
      <trkpt lat="47.06846" lon="7.1903">
        <ele>434.2</ele>
        <time>2022-10-01T07:10:01Z</time>
      </trkpt>
      <trkpt lat="47.0685" lon="7.19034">
        <ele>434.2</ele>
        <time>2022-10-01T07:10:02Z</time>
      </trkpt>
      <trkpt lat="47.06853" lon="7.19037">
        <ele>434.2</ele>
        <time>2022-10-01T07:10:03Z</time>
      </trkpt>
      <trkpt lat="47.06856" lon="7.19041">
        <ele>434.2</ele>
        <time>2022-10-01T07:10:04Z</time>
      </trkpt>
      <trkpt lat="47.06861" lon="7.19046">
        <ele>434.2</ele>
        <time>2022-10-01T07:10:05Z</time>
      </trkpt>
      <trkpt lat="47.06865" lon="7.1905">
        <ele>434.1</ele>
        <time>2022-10-01T07:10:06Z</time>
      </trkpt>
      <trkpt lat="47.06868" lon="7.19054">
        <ele>434.1</ele>
        <time>2022-10-01T07:10:07Z</time>
      </trkpt>
      <trkpt lat="47.06873" lon="7.19058">
        <ele>434.1</ele>
        <time>2022-10-01T07:10:08Z</time>
      </trkpt>
      <trkpt lat="47.06877" lon="7.19063">
        <ele>434.1</ele>
        <time>2022-10-01T07:10:09Z</time>
      </trkpt>
      <trkpt lat="47.0688" lon="7.19067">
        <ele>434.1</ele>
        <time>2022-10-01T07:10:10Z</time>
      </trkpt>
      <trkpt lat="47.06884" lon="7.19071">
        <ele>434.1</ele>
        <time>2022-10-01T07:10:11Z</time>
      </trkpt>
      <trkpt lat="47.06888" lon="7.19075">
        <ele>434.1</ele>
        <time>2022-10-01T07:10:12Z</time>
      </trkpt>
      <trkpt lat="47.06892" lon="7.19078">
        <ele>434.1</ele>
        <time>2022-10-01T07:10:13Z</time>
      </trkpt>
      <trkpt lat="47.06896" lon="7.19081">
        <ele>434.1</ele>
        <time>2022-10-01T07:10:14Z</time>
      </trkpt>
      <trkpt lat="47.069" lon="7.19085">
        <ele>434</ele>
        <time>2022-10-01T07:10:15Z</time>
      </trkpt>
      <trkpt lat="47.06904" lon="7.19088">
        <ele>434</ele>
        <time>2022-10-01T07:10:16Z</time>
      </trkpt>
      <trkpt lat="47.06908" lon="7.19093">
        <ele>434</ele>
        <time>2022-10-01T07:10:17Z</time>
      </trkpt>
      <trkpt lat="47.06911" lon="7.19096">
        <ele>433.9</ele>
        <time>2022-10-01T07:10:18Z</time>
      </trkpt>
      <trkpt lat="47.06916" lon="7.19099">
        <ele>433.9</ele>
        <time>2022-10-01T07:10:19Z</time>
      </trkpt>
      <trkpt lat="47.0692" lon="7.19103">
        <ele>433.9</ele>
        <time>2022-10-01T07:10:20Z</time>
      </trkpt>
      <trkpt lat="47.06924" lon="7.19106">
        <ele>433.9</ele>
        <time>2022-10-01T07:10:21Z</time>
      </trkpt>
      <trkpt lat="47.06927" lon="7.1911">
        <ele>433.8</ele>
        <time>2022-10-01T07:10:22Z</time>
      </trkpt>
      <trkpt lat="47.06931" lon="7.19113">
        <ele>433.8</ele>
        <time>2022-10-01T07:10:23Z</time>
      </trkpt>
      <trkpt lat="47.06934" lon="7.19116">
        <ele>433.8</ele>
        <time>2022-10-01T07:10:24Z</time>
      </trkpt>
      <trkpt lat="47.06941" lon="7.1912">
        <ele>433.8</ele>
        <time>2022-10-01T07:10:25Z</time>
      </trkpt>
      <trkpt lat="47.06946" lon="7.19123">
        <ele>433.8</ele>
        <time>2022-10-01T07:10:26Z</time>
      </trkpt>
      <trkpt lat="47.06949" lon="7.19126">
        <ele>433.8</ele>
        <time>2022-10-01T07:10:27Z</time>
      </trkpt>
      <trkpt lat="47.06953" lon="7.19128">
        <ele>433.8</ele>
        <time>2022-10-01T07:10:28Z</time>
      </trkpt>
      <trkpt lat="47.06958" lon="7.19131">
        <ele>433.8</ele>
        <time>2022-10-01T07:10:29Z</time>
      </trkpt>
      <trkpt lat="47.06962" lon="7.19135">
        <ele>433.8</ele>
        <time>2022-10-01T07:10:30Z</time>
      </trkpt>
      <trkpt lat="47.06967" lon="7.19138">
        <ele>433.8</ele>
        <time>2022-10-01T07:10:31Z</time>
      </trkpt>
      <trkpt lat="47.06971" lon="7.1914">
        <ele>433.8</ele>
        <time>2022-10-01T07:10:32Z</time>
      </trkpt>
      <trkpt lat="47.06977" lon="7.19142">
        <ele>433.8</ele>
        <time>2022-10-01T07:10:33Z</time>
      </trkpt>
      <trkpt lat="47.06981" lon="7.19144">
        <ele>433.8</ele>
        <time>2022-10-01T07:10:34Z</time>
      </trkpt>
      <trkpt lat="47.06983" lon="7.19145">
        <ele>433.8</ele>
        <time>2022-10-01T07:10:35Z</time>
      </trkpt>
      <trkpt lat="47.06987" lon="7.19146">
        <ele>433.9</ele>
        <time>2022-10-01T07:10:36Z</time>
      </trkpt>
      <trkpt lat="47.06991" lon="7.19148">
        <ele>433.9</ele>
        <time>2022-10-01T07:10:37Z</time>
      </trkpt>
      <trkpt lat="47.06994" lon="7.1915">
        <ele>433.9</ele>
        <time>2022-10-01T07:10:38Z</time>
      </trkpt>
      <trkpt lat="47.06999" lon="7.19152">
        <ele>433.9</ele>
        <time>2022-10-01T07:10:40Z</time>
      </trkpt>
      <trkpt lat="47.07001" lon="7.19152">
        <ele>434</ele>
        <time>2022-10-01T07:10:41Z</time>
      </trkpt>
      <trkpt lat="47.07005" lon="7.19153">
        <ele>434</ele>
        <time>2022-10-01T07:10:42Z</time>
      </trkpt>
      <trkpt lat="47.07008" lon="7.19154">
        <ele>434</ele>
        <time>2022-10-01T07:10:43Z</time>
      </trkpt>
      <trkpt lat="47.07012" lon="7.19156">
        <ele>434</ele>
        <time>2022-10-01T07:10:44Z</time>
      </trkpt>
      <trkpt lat="47.07015" lon="7.19156">
        <ele>434</ele>
        <time>2022-10-01T07:10:45Z</time>
      </trkpt>
      <trkpt lat="47.07019" lon="7.19159">
        <ele>434</ele>
        <time>2022-10-01T07:10:46Z</time>
      </trkpt>
      <trkpt lat="47.07023" lon="7.19161">
        <ele>434.1</ele>
        <time>2022-10-01T07:10:47Z</time>
      </trkpt>
      <trkpt lat="47.07027" lon="7.19163">
        <ele>434.1</ele>
        <time>2022-10-01T07:10:48Z</time>
      </trkpt>
      <trkpt lat="47.0703" lon="7.19166">
        <ele>434.1</ele>
        <time>2022-10-01T07:10:49Z</time>
      </trkpt>
      <trkpt lat="47.07033" lon="7.19169">
        <ele>434.1</ele>
        <time>2022-10-01T07:10:50Z</time>
      </trkpt>
      <trkpt lat="47.07036" lon="7.19172">
        <ele>434.1</ele>
        <time>2022-10-01T07:10:51Z</time>
      </trkpt>
      <trkpt lat="47.07039" lon="7.19175">
        <ele>434.1</ele>
        <time>2022-10-01T07:10:52Z</time>
      </trkpt>
      <trkpt lat="47.07042" lon="7.19178">
        <ele>434.1</ele>
        <time>2022-10-01T07:10:53Z</time>
      </trkpt>
      <trkpt lat="47.07044" lon="7.19179">
        <ele>434.1</ele>
        <time>2022-10-01T07:10:54Z</time>
      </trkpt>
      <trkpt lat="47.07048" lon="7.19182">
        <ele>434.1</ele>
        <time>2022-10-01T07:10:55Z</time>
      </trkpt>
      <trkpt lat="47.07051" lon="7.19185">
        <ele>434.1</ele>
        <time>2022-10-01T07:10:56Z</time>
      </trkpt>
      <trkpt lat="47.07055" lon="7.19188">
        <ele>434.1</ele>
        <time>2022-10-01T07:10:57Z</time>
      </trkpt>
      <trkpt lat="47.07058" lon="7.19191">
        <ele>434.1</ele>
        <time>2022-10-01T07:10:58Z</time>
      </trkpt>
      <trkpt lat="47.07061" lon="7.19194">
        <ele>434.1</ele>
        <time>2022-10-01T07:10:59Z</time>
      </trkpt>
      <trkpt lat="47.07065" lon="7.19198">
        <ele>434.1</ele>
        <time>2022-10-01T07:11:00Z</time>
      </trkpt>
      <trkpt lat="47.07067" lon="7.192">
        <ele>434.1</ele>
        <time>2022-10-01T07:11:01Z</time>
      </trkpt>
      <trkpt lat="47.07072" lon="7.19203">
        <ele>434.1</ele>
        <time>2022-10-01T07:11:02Z</time>
      </trkpt>
      <trkpt lat="47.07076" lon="7.19207">
        <ele>434.1</ele>
        <time>2022-10-01T07:11:03Z</time>
      </trkpt>
      <trkpt lat="47.07081" lon="7.1921">
        <ele>434.1</ele>
        <time>2022-10-01T07:11:04Z</time>
      </trkpt>
      <trkpt lat="47.07084" lon="7.19214">
        <ele>434</ele>
        <time>2022-10-01T07:11:05Z</time>
      </trkpt>
      <trkpt lat="47.07089" lon="7.19218">
        <ele>434</ele>
        <time>2022-10-01T07:11:06Z</time>
      </trkpt>
      <trkpt lat="47.07091" lon="7.1922">
        <ele>433.9</ele>
        <time>2022-10-01T07:11:07Z</time>
      </trkpt>
      <trkpt lat="47.07095" lon="7.19222">
        <ele>433.9</ele>
        <time>2022-10-01T07:11:08Z</time>
      </trkpt>
      <trkpt lat="47.071" lon="7.19225">
        <ele>433.9</ele>
        <time>2022-10-01T07:11:09Z</time>
      </trkpt>
      <trkpt lat="47.07104" lon="7.19228">
        <ele>433.8</ele>
        <time>2022-10-01T07:11:10Z</time>
      </trkpt>
      <trkpt lat="47.07109" lon="7.1923">
        <ele>433.8</ele>
        <time>2022-10-01T07:11:11Z</time>
      </trkpt>
      <trkpt lat="47.07115" lon="7.19233">
        <ele>433.8</ele>
        <time>2022-10-01T07:11:12Z</time>
      </trkpt>
      <trkpt lat="47.07123" lon="7.19237">
        <ele>433.7</ele>
        <time>2022-10-01T07:11:13Z</time>
      </trkpt>
      <trkpt lat="47.07127" lon="7.1924">
        <ele>433.7</ele>
        <time>2022-10-01T07:11:14Z</time>
      </trkpt>
      <trkpt lat="47.07132" lon="7.19242">
        <ele>433.7</ele>
        <time>2022-10-01T07:11:15Z</time>
      </trkpt>
      <trkpt lat="47.07136" lon="7.19245">
        <ele>433.7</ele>
        <time>2022-10-01T07:11:16Z</time>
      </trkpt>
      <trkpt lat="47.07141" lon="7.19247">
        <ele>433.7</ele>
        <time>2022-10-01T07:11:17Z</time>
      </trkpt>
      <trkpt lat="47.07145" lon="7.19248">
        <ele>433.7</ele>
        <time>2022-10-01T07:11:18Z</time>
      </trkpt>
      <trkpt lat="47.0715" lon="7.1925">
        <ele>433.7</ele>
        <time>2022-10-01T07:11:19Z</time>
      </trkpt>
      <trkpt lat="47.07155" lon="7.19253">
        <ele>433.7</ele>
        <time>2022-10-01T07:11:20Z</time>
      </trkpt>
      <trkpt lat="47.0716" lon="7.19256">
        <ele>433.7</ele>
        <time>2022-10-01T07:11:21Z</time>
      </trkpt>
      <trkpt lat="47.07164" lon="7.19258">
        <ele>433.7</ele>
        <time>2022-10-01T07:11:22Z</time>
      </trkpt>
      <trkpt lat="47.07169" lon="7.19259">
        <ele>433.7</ele>
        <time>2022-10-01T07:11:23Z</time>
      </trkpt>
      <trkpt lat="47.07173" lon="7.1926">
        <ele>433.7</ele>
        <time>2022-10-01T07:11:24Z</time>
      </trkpt>
      <trkpt lat="47.07178" lon="7.19262">
        <ele>433.7</ele>
        <time>2022-10-01T07:11:25Z</time>
      </trkpt>
      <trkpt lat="47.07182" lon="7.19264">
        <ele>433.7</ele>
        <time>2022-10-01T07:11:26Z</time>
      </trkpt>
      <trkpt lat="47.07186" lon="7.19266">
        <ele>433.7</ele>
        <time>2022-10-01T07:11:27Z</time>
      </trkpt>
      <trkpt lat="47.07191" lon="7.19267">
        <ele>433.7</ele>
        <time>2022-10-01T07:11:28Z</time>
      </trkpt>
      <trkpt lat="47.07195" lon="7.19269">
        <ele>433.7</ele>
        <time>2022-10-01T07:11:29Z</time>
      </trkpt>
      <trkpt lat="47.072" lon="7.19271">
        <ele>433.7</ele>
        <time>2022-10-01T07:11:30Z</time>
      </trkpt>
      <trkpt lat="47.07204" lon="7.19273">
        <ele>433.7</ele>
        <time>2022-10-01T07:11:31Z</time>
      </trkpt>
      <trkpt lat="47.07208" lon="7.19274">
        <ele>433.7</ele>
        <time>2022-10-01T07:11:32Z</time>
      </trkpt>
      <trkpt lat="47.07212" lon="7.19274">
        <ele>433.7</ele>
        <time>2022-10-01T07:11:33Z</time>
      </trkpt>
      <trkpt lat="47.07217" lon="7.19277">
        <ele>433.7</ele>
        <time>2022-10-01T07:11:34Z</time>
      </trkpt>
      <trkpt lat="47.07221" lon="7.19279">
        <ele>433.7</ele>
        <time>2022-10-01T07:11:35Z</time>
      </trkpt>
      <trkpt lat="47.07225" lon="7.19281">
        <ele>433.7</ele>
        <time>2022-10-01T07:11:36Z</time>
      </trkpt>
      <trkpt lat="47.0723" lon="7.19282">
        <ele>433.7</ele>
        <time>2022-10-01T07:11:37Z</time>
      </trkpt>
      <trkpt lat="47.07234" lon="7.19283">
        <ele>433.7</ele>
        <time>2022-10-01T07:11:38Z</time>
      </trkpt>
      <trkpt lat="47.07238" lon="7.19286">
        <ele>433.7</ele>
        <time>2022-10-01T07:11:39Z</time>
      </trkpt>
      <trkpt lat="47.07243" lon="7.19288">
        <ele>433.7</ele>
        <time>2022-10-01T07:11:40Z</time>
      </trkpt>
      <trkpt lat="47.07247" lon="7.1929">
        <ele>433.7</ele>
        <time>2022-10-01T07:11:41Z</time>
      </trkpt>
      <trkpt lat="47.07251" lon="7.19291">
        <ele>433.7</ele>
        <time>2022-10-01T07:11:42Z</time>
      </trkpt>
      <trkpt lat="47.07256" lon="7.19292">
        <ele>433.7</ele>
        <time>2022-10-01T07:11:43Z</time>
      </trkpt>
      <trkpt lat="47.07261" lon="7.19295">
        <ele>433.8</ele>
        <time>2022-10-01T07:11:44Z</time>
      </trkpt>
      <trkpt lat="47.07265" lon="7.19296">
        <ele>433.8</ele>
        <time>2022-10-01T07:11:45Z</time>
      </trkpt>
      <trkpt lat="47.07269" lon="7.19297">
        <ele>433.8</ele>
        <time>2022-10-01T07:11:46Z</time>
      </trkpt>
      <trkpt lat="47.07274" lon="7.19299">
        <ele>433.8</ele>
        <time>2022-10-01T07:11:47Z</time>
      </trkpt>
      <trkpt lat="47.07278" lon="7.193">
        <ele>433.8</ele>
        <time>2022-10-01T07:11:48Z</time>
      </trkpt>
      <trkpt lat="47.07282" lon="7.19301">
        <ele>433.9</ele>
        <time>2022-10-01T07:11:49Z</time>
      </trkpt>
      <trkpt lat="47.07286" lon="7.19303">
        <ele>433.9</ele>
        <time>2022-10-01T07:11:50Z</time>
      </trkpt>
      <trkpt lat="47.07291" lon="7.19304">
        <ele>434</ele>
        <time>2022-10-01T07:11:51Z</time>
      </trkpt>
      <trkpt lat="47.07294" lon="7.19305">
        <ele>434</ele>
        <time>2022-10-01T07:11:52Z</time>
      </trkpt>
      <trkpt lat="47.07298" lon="7.19307">
        <ele>434</ele>
        <time>2022-10-01T07:11:53Z</time>
      </trkpt>
      <trkpt lat="47.07302" lon="7.19308">
        <ele>434.1</ele>
        <time>2022-10-01T07:11:54Z</time>
      </trkpt>
      <trkpt lat="47.07306" lon="7.1931">
        <ele>434.1</ele>
        <time>2022-10-01T07:11:55Z</time>
      </trkpt>
      <trkpt lat="47.0731" lon="7.19311">
        <ele>434.1</ele>
        <time>2022-10-01T07:11:56Z</time>
      </trkpt>
      <trkpt lat="47.07314" lon="7.19313">
        <ele>434.1</ele>
        <time>2022-10-01T07:11:57Z</time>
      </trkpt>
      <trkpt lat="47.07318" lon="7.19314">
        <ele>434.2</ele>
        <time>2022-10-01T07:11:58Z</time>
      </trkpt>
      <trkpt lat="47.07322" lon="7.19315">
        <ele>434.2</ele>
        <time>2022-10-01T07:11:59Z</time>
      </trkpt>
      <trkpt lat="47.07326" lon="7.19317">
        <ele>434.1</ele>
        <time>2022-10-01T07:12:00Z</time>
      </trkpt>
      <trkpt lat="47.0733" lon="7.19318">
        <ele>434.1</ele>
        <time>2022-10-01T07:12:01Z</time>
      </trkpt>
      <trkpt lat="47.07335" lon="7.1932">
        <ele>434.1</ele>
        <time>2022-10-01T07:12:02Z</time>
      </trkpt>
      <trkpt lat="47.07339" lon="7.19322">
        <ele>434</ele>
        <time>2022-10-01T07:12:03Z</time>
      </trkpt>
      <trkpt lat="47.07344" lon="7.19324">
        <ele>434</ele>
        <time>2022-10-01T07:12:04Z</time>
      </trkpt>
      <trkpt lat="47.07348" lon="7.19327">
        <ele>434</ele>
        <time>2022-10-01T07:12:05Z</time>
      </trkpt>
      <trkpt lat="47.07352" lon="7.19329">
        <ele>433.9</ele>
        <time>2022-10-01T07:12:06Z</time>
      </trkpt>
      <trkpt lat="47.07356" lon="7.19332">
        <ele>433.9</ele>
        <time>2022-10-01T07:12:07Z</time>
      </trkpt>
      <trkpt lat="47.07361" lon="7.19335">
        <ele>433.8</ele>
        <time>2022-10-01T07:12:08Z</time>
      </trkpt>
      <trkpt lat="47.07366" lon="7.19338">
        <ele>433.8</ele>
        <time>2022-10-01T07:12:09Z</time>
      </trkpt>
      <trkpt lat="47.0737" lon="7.19342">
        <ele>433.7</ele>
        <time>2022-10-01T07:12:10Z</time>
      </trkpt>
      <trkpt lat="47.07374" lon="7.19344">
        <ele>433.7</ele>
        <time>2022-10-01T07:12:11Z</time>
      </trkpt>
      <trkpt lat="47.07378" lon="7.19347">
        <ele>433.6</ele>
        <time>2022-10-01T07:12:12Z</time>
      </trkpt>
      <trkpt lat="47.07382" lon="7.1935">
        <ele>433.6</ele>
        <time>2022-10-01T07:12:13Z</time>
      </trkpt>
      <trkpt lat="47.07386" lon="7.19353">
        <ele>433.5</ele>
        <time>2022-10-01T07:12:14Z</time>
      </trkpt>
      <trkpt lat="47.07392" lon="7.19356">
        <ele>433.5</ele>
        <time>2022-10-01T07:12:15Z</time>
      </trkpt>
      <trkpt lat="47.07396" lon="7.19359">
        <ele>433.4</ele>
        <time>2022-10-01T07:12:16Z</time>
      </trkpt>
      <trkpt lat="47.07399" lon="7.19362">
        <ele>433.4</ele>
        <time>2022-10-01T07:12:17Z</time>
      </trkpt>
      <trkpt lat="47.07403" lon="7.19365">
        <ele>433.4</ele>
        <time>2022-10-01T07:12:18Z</time>
      </trkpt>
      <trkpt lat="47.07406" lon="7.19367">
        <ele>433.4</ele>
        <time>2022-10-01T07:12:19Z</time>
      </trkpt>
      <trkpt lat="47.07411" lon="7.1937">
        <ele>433.4</ele>
        <time>2022-10-01T07:12:20Z</time>
      </trkpt>
      <trkpt lat="47.07415" lon="7.19372">
        <ele>433.4</ele>
        <time>2022-10-01T07:12:21Z</time>
      </trkpt>
      <trkpt lat="47.07418" lon="7.19375">
        <ele>433.4</ele>
        <time>2022-10-01T07:12:22Z</time>
      </trkpt>
      <trkpt lat="47.07422" lon="7.19378">
        <ele>433.3</ele>
        <time>2022-10-01T07:12:23Z</time>
      </trkpt>
      <trkpt lat="47.07426" lon="7.19381">
        <ele>433.3</ele>
        <time>2022-10-01T07:12:24Z</time>
      </trkpt>
      <trkpt lat="47.0743" lon="7.19383">
        <ele>433.3</ele>
        <time>2022-10-01T07:12:25Z</time>
      </trkpt>
      <trkpt lat="47.07434" lon="7.19386">
        <ele>433.3</ele>
        <time>2022-10-01T07:12:26Z</time>
      </trkpt>
      <trkpt lat="47.07438" lon="7.19388">
        <ele>433.3</ele>
        <time>2022-10-01T07:12:27Z</time>
      </trkpt>
      <trkpt lat="47.07442" lon="7.19392">
        <ele>433.3</ele>
        <time>2022-10-01T07:12:28Z</time>
      </trkpt>
      <trkpt lat="47.07446" lon="7.19395">
        <ele>433.3</ele>
        <time>2022-10-01T07:12:29Z</time>
      </trkpt>
      <trkpt lat="47.0745" lon="7.19397">
        <ele>433.3</ele>
        <time>2022-10-01T07:12:30Z</time>
      </trkpt>
      <trkpt lat="47.07455" lon="7.194">
        <ele>433.3</ele>
        <time>2022-10-01T07:12:31Z</time>
      </trkpt>
      <trkpt lat="47.07458" lon="7.19402">
        <ele>433.3</ele>
        <time>2022-10-01T07:12:32Z</time>
      </trkpt>
      <trkpt lat="47.07462" lon="7.19405">
        <ele>433.3</ele>
        <time>2022-10-01T07:12:33Z</time>
      </trkpt>
      <trkpt lat="47.07466" lon="7.19408">
        <ele>433.3</ele>
        <time>2022-10-01T07:12:34Z</time>
      </trkpt>
      <trkpt lat="47.0747" lon="7.19411">
        <ele>433.3</ele>
        <time>2022-10-01T07:12:35Z</time>
      </trkpt>
      <trkpt lat="47.07473" lon="7.19413">
        <ele>433.3</ele>
        <time>2022-10-01T07:12:36Z</time>
      </trkpt>
      <trkpt lat="47.07477" lon="7.19415">
        <ele>433.3</ele>
        <time>2022-10-01T07:12:37Z</time>
      </trkpt>
      <trkpt lat="47.07481" lon="7.19418">
        <ele>433.3</ele>
        <time>2022-10-01T07:12:38Z</time>
      </trkpt>
      <trkpt lat="47.07484" lon="7.1942">
        <ele>433.3</ele>
        <time>2022-10-01T07:12:39Z</time>
      </trkpt>
      <trkpt lat="47.07488" lon="7.19422">
        <ele>433.3</ele>
        <time>2022-10-01T07:12:40Z</time>
      </trkpt>
      <trkpt lat="47.07492" lon="7.19422">
        <ele>433.3</ele>
        <time>2022-10-01T07:12:41Z</time>
      </trkpt>
      <trkpt lat="47.07495" lon="7.19422">
        <ele>433.3</ele>
        <time>2022-10-01T07:12:42Z</time>
      </trkpt>
      <trkpt lat="47.07498" lon="7.19421">
        <ele>433.3</ele>
        <time>2022-10-01T07:12:43Z</time>
      </trkpt>
      <trkpt lat="47.07501" lon="7.19419">
        <ele>433.3</ele>
        <time>2022-10-01T07:12:44Z</time>
      </trkpt>
      <trkpt lat="47.07504" lon="7.19414">
        <ele>433.2</ele>
        <time>2022-10-01T07:12:46Z</time>
      </trkpt>
      <trkpt lat="47.07507" lon="7.1941">
        <ele>433.2</ele>
        <time>2022-10-01T07:12:47Z</time>
      </trkpt>
      <trkpt lat="47.07509" lon="7.19405">
        <ele>433.2</ele>
        <time>2022-10-01T07:12:48Z</time>
      </trkpt>
      <trkpt lat="47.0751" lon="7.19398">
        <ele>433.1</ele>
        <time>2022-10-01T07:12:49Z</time>
      </trkpt>
      <trkpt lat="47.0751" lon="7.19395">
        <ele>433.1</ele>
        <time>2022-10-01T07:12:50Z</time>
      </trkpt>
      <trkpt lat="47.07512" lon="7.19391">
        <ele>433.1</ele>
        <time>2022-10-01T07:12:51Z</time>
      </trkpt>
      <trkpt lat="47.07514" lon="7.19386">
        <ele>433.1</ele>
        <time>2022-10-01T07:12:52Z</time>
      </trkpt>
      <trkpt lat="47.07516" lon="7.19381">
        <ele>433</ele>
        <time>2022-10-01T07:12:53Z</time>
      </trkpt>
      <trkpt lat="47.07518" lon="7.19376">
        <ele>433</ele>
        <time>2022-10-01T07:12:54Z</time>
      </trkpt>
      <trkpt lat="47.07522" lon="7.19371">
        <ele>433</ele>
        <time>2022-10-01T07:12:55Z</time>
      </trkpt>
      <trkpt lat="47.07525" lon="7.19368">
        <ele>432.9</ele>
        <time>2022-10-01T07:12:56Z</time>
      </trkpt>
      <trkpt lat="47.07528" lon="7.19366">
        <ele>432.9</ele>
        <time>2022-10-01T07:12:57Z</time>
      </trkpt>
      <trkpt lat="47.07532" lon="7.19364">
        <ele>432.9</ele>
        <time>2022-10-01T07:12:58Z</time>
      </trkpt>
      <trkpt lat="47.07535" lon="7.19362">
        <ele>432.9</ele>
        <time>2022-10-01T07:12:59Z</time>
      </trkpt>
      <trkpt lat="47.07539" lon="7.19361">
        <ele>432.8</ele>
        <time>2022-10-01T07:13:00Z</time>
      </trkpt>
      <trkpt lat="47.07542" lon="7.19362">
        <ele>432.8</ele>
        <time>2022-10-01T07:13:01Z</time>
      </trkpt>
      <trkpt lat="47.07545" lon="7.19364">
        <ele>432.8</ele>
        <time>2022-10-01T07:13:02Z</time>
      </trkpt>
      <trkpt lat="47.07549" lon="7.19368">
        <ele>432.8</ele>
        <time>2022-10-01T07:13:03Z</time>
      </trkpt>
      <trkpt lat="47.07552" lon="7.19372">
        <ele>432.8</ele>
        <time>2022-10-01T07:13:04Z</time>
      </trkpt>
      <trkpt lat="47.07555" lon="7.19377">
        <ele>432.7</ele>
        <time>2022-10-01T07:13:05Z</time>
      </trkpt>
      <trkpt lat="47.07557" lon="7.19379">
        <ele>432.7</ele>
        <time>2022-10-01T07:13:06Z</time>
      </trkpt>
      <trkpt lat="47.07561" lon="7.19381">
        <ele>432.7</ele>
        <time>2022-10-01T07:13:07Z</time>
      </trkpt>
      <trkpt lat="47.07562" lon="7.19385">
        <ele>432.7</ele>
        <time>2022-10-01T07:13:08Z</time>
      </trkpt>
      <trkpt lat="47.07565" lon="7.19388">
        <ele>432.7</ele>
        <time>2022-10-01T07:13:09Z</time>
      </trkpt>
      <trkpt lat="47.07569" lon="7.19392">
        <ele>432.7</ele>
        <time>2022-10-01T07:13:10Z</time>
      </trkpt>
      <trkpt lat="47.07571" lon="7.19395">
        <ele>432.7</ele>
        <time>2022-10-01T07:13:11Z</time>
      </trkpt>
      <trkpt lat="47.07575" lon="7.19398">
        <ele>432.7</ele>
        <time>2022-10-01T07:13:12Z</time>
      </trkpt>
      <trkpt lat="47.07577" lon="7.194">
        <ele>432.7</ele>
        <time>2022-10-01T07:13:13Z</time>
      </trkpt>
      <trkpt lat="47.0758" lon="7.19403">
        <ele>432.7</ele>
        <time>2022-10-01T07:13:14Z</time>
      </trkpt>
      <trkpt lat="47.07584" lon="7.19407">
        <ele>432.7</ele>
        <time>2022-10-01T07:13:15Z</time>
      </trkpt>
      <trkpt lat="47.07587" lon="7.1941">
        <ele>432.7</ele>
        <time>2022-10-01T07:13:16Z</time>
      </trkpt>
      <trkpt lat="47.0759" lon="7.19413">
        <ele>432.6</ele>
        <time>2022-10-01T07:13:17Z</time>
      </trkpt>
      <trkpt lat="47.07592" lon="7.19417">
        <ele>432.6</ele>
        <time>2022-10-01T07:13:18Z</time>
      </trkpt>
      <trkpt lat="47.07596" lon="7.1942">
        <ele>432.6</ele>
        <time>2022-10-01T07:13:19Z</time>
      </trkpt>
      <trkpt lat="47.076" lon="7.19423">
        <ele>432.6</ele>
        <time>2022-10-01T07:13:20Z</time>
      </trkpt>
      <trkpt lat="47.07602" lon="7.19427">
        <ele>432.6</ele>
        <time>2022-10-01T07:13:21Z</time>
      </trkpt>
      <trkpt lat="47.07605" lon="7.19431">
        <ele>432.6</ele>
        <time>2022-10-01T07:13:22Z</time>
      </trkpt>
      <trkpt lat="47.07609" lon="7.19433">
        <ele>432.6</ele>
        <time>2022-10-01T07:13:23Z</time>
      </trkpt>
      <trkpt lat="47.07612" lon="7.19437">
        <ele>432.6</ele>
        <time>2022-10-01T07:13:24Z</time>
      </trkpt>
      <trkpt lat="47.07614" lon="7.19441">
        <ele>432.5</ele>
        <time>2022-10-01T07:13:25Z</time>
      </trkpt>
      <trkpt lat="47.07617" lon="7.19443">
        <ele>432.5</ele>
        <time>2022-10-01T07:13:26Z</time>
      </trkpt>
      <trkpt lat="47.07622" lon="7.19447">
        <ele>432.5</ele>
        <time>2022-10-01T07:13:27Z</time>
      </trkpt>
      <trkpt lat="47.07626" lon="7.19451">
        <ele>432.5</ele>
        <time>2022-10-01T07:13:28Z</time>
      </trkpt>
      <trkpt lat="47.07629" lon="7.19455">
        <ele>432.5</ele>
        <time>2022-10-01T07:13:29Z</time>
      </trkpt>
      <trkpt lat="47.07632" lon="7.19459">
        <ele>432.5</ele>
        <time>2022-10-01T07:13:30Z</time>
      </trkpt>
      <trkpt lat="47.07636" lon="7.19462">
        <ele>432.5</ele>
        <time>2022-10-01T07:13:31Z</time>
      </trkpt>
      <trkpt lat="47.07639" lon="7.19467">
        <ele>432.5</ele>
        <time>2022-10-01T07:13:32Z</time>
      </trkpt>
      <trkpt lat="47.07643" lon="7.19471">
        <ele>432.4</ele>
        <time>2022-10-01T07:13:33Z</time>
      </trkpt>
      <trkpt lat="47.07646" lon="7.19475">
        <ele>432.4</ele>
        <time>2022-10-01T07:13:34Z</time>
      </trkpt>
      <trkpt lat="47.07649" lon="7.19479">
        <ele>432.4</ele>
        <time>2022-10-01T07:13:35Z</time>
      </trkpt>
      <trkpt lat="47.07653" lon="7.19483">
        <ele>432.4</ele>
        <time>2022-10-01T07:13:36Z</time>
      </trkpt>
      <trkpt lat="47.07657" lon="7.19487">
        <ele>432.4</ele>
        <time>2022-10-01T07:13:37Z</time>
      </trkpt>
      <trkpt lat="47.07659" lon="7.19491">
        <ele>432.4</ele>
        <time>2022-10-01T07:13:38Z</time>
      </trkpt>
      <trkpt lat="47.07662" lon="7.19495">
        <ele>432.4</ele>
        <time>2022-10-01T07:13:39Z</time>
      </trkpt>
      <trkpt lat="47.07665" lon="7.19499">
        <ele>432.4</ele>
        <time>2022-10-01T07:13:40Z</time>
      </trkpt>
      <trkpt lat="47.07668" lon="7.19502">
        <ele>432.4</ele>
        <time>2022-10-01T07:13:41Z</time>
      </trkpt>
      <trkpt lat="47.07671" lon="7.19506">
        <ele>432.4</ele>
        <time>2022-10-01T07:13:42Z</time>
      </trkpt>
      <trkpt lat="47.07673" lon="7.19509">
        <ele>432.4</ele>
        <time>2022-10-01T07:13:43Z</time>
      </trkpt>
      <trkpt lat="47.07676" lon="7.19512">
        <ele>432.4</ele>
        <time>2022-10-01T07:13:44Z</time>
      </trkpt>
      <trkpt lat="47.07678" lon="7.19517">
        <ele>432.4</ele>
        <time>2022-10-01T07:13:45Z</time>
      </trkpt>
      <trkpt lat="47.07681" lon="7.1952">
        <ele>432.4</ele>
        <time>2022-10-01T07:13:46Z</time>
      </trkpt>
      <trkpt lat="47.07683" lon="7.19523">
        <ele>432.5</ele>
        <time>2022-10-01T07:13:47Z</time>
      </trkpt>
      <trkpt lat="47.07687" lon="7.19526">
        <ele>432.5</ele>
        <time>2022-10-01T07:13:48Z</time>
      </trkpt>
      <trkpt lat="47.07689" lon="7.19529">
        <ele>432.5</ele>
        <time>2022-10-01T07:13:49Z</time>
      </trkpt>
      <trkpt lat="47.07691" lon="7.19532">
        <ele>432.6</ele>
        <time>2022-10-01T07:13:50Z</time>
      </trkpt>
      <trkpt lat="47.07692" lon="7.19533">
        <ele>432.6</ele>
        <time>2022-10-01T07:13:51Z</time>
      </trkpt>
      <trkpt lat="47.07693" lon="7.19537">
        <ele>432.6</ele>
        <time>2022-10-01T07:13:52Z</time>
      </trkpt>
      <trkpt lat="47.07692" lon="7.19543">
        <ele>432.6</ele>
        <time>2022-10-01T07:13:53Z</time>
      </trkpt>
      <trkpt lat="47.07692" lon="7.19545">
        <ele>432.6</ele>
        <time>2022-10-01T07:13:54Z</time>
      </trkpt>
      <trkpt lat="47.0769" lon="7.19549">
        <ele>432.6</ele>
        <time>2022-10-01T07:13:55Z</time>
      </trkpt>
      <trkpt lat="47.0769" lon="7.19551">
        <ele>432.6</ele>
        <time>2022-10-01T07:13:56Z</time>
      </trkpt>
      <trkpt lat="47.07688" lon="7.19554">
        <ele>432.6</ele>
        <time>2022-10-01T07:13:57Z</time>
      </trkpt>
      <trkpt lat="47.07686" lon="7.19559">
        <ele>432.6</ele>
        <time>2022-10-01T07:13:58Z</time>
      </trkpt>
      <trkpt lat="47.07685" lon="7.19563">
        <ele>432.7</ele>
        <time>2022-10-01T07:13:59Z</time>
      </trkpt>
      <trkpt lat="47.07683" lon="7.19568">
        <ele>432.7</ele>
        <time>2022-10-01T07:14:00Z</time>
      </trkpt>
      <trkpt lat="47.07682" lon="7.19572">
        <ele>432.7</ele>
        <time>2022-10-01T07:14:01Z</time>
      </trkpt>
      <trkpt lat="47.07683" lon="7.19577">
        <ele>432.7</ele>
        <time>2022-10-01T07:14:02Z</time>
      </trkpt>
      <trkpt lat="47.07685" lon="7.19581">
        <ele>432.7</ele>
        <time>2022-10-01T07:14:03Z</time>
      </trkpt>
      <trkpt lat="47.07689" lon="7.19585">
        <ele>432.7</ele>
        <time>2022-10-01T07:14:04Z</time>
      </trkpt>
      <trkpt lat="47.07691" lon="7.19587">
        <ele>432.7</ele>
        <time>2022-10-01T07:14:05Z</time>
      </trkpt>
      <trkpt lat="47.07694" lon="7.19589">
        <ele>432.7</ele>
        <time>2022-10-01T07:14:06Z</time>
      </trkpt>
      <trkpt lat="47.07698" lon="7.19592">
        <ele>432.7</ele>
        <time>2022-10-01T07:14:07Z</time>
      </trkpt>
      <trkpt lat="47.07706" lon="7.19598">
        <ele>432.8</ele>
        <time>2022-10-01T07:14:08Z</time>
      </trkpt>
      <trkpt lat="47.07709" lon="7.19601">
        <ele>432.8</ele>
        <time>2022-10-01T07:14:09Z</time>
      </trkpt>
      <trkpt lat="47.07713" lon="7.19604">
        <ele>432.8</ele>
        <time>2022-10-01T07:14:10Z</time>
      </trkpt>
      <trkpt lat="47.07717" lon="7.19608">
        <ele>432.8</ele>
        <time>2022-10-01T07:14:11Z</time>
      </trkpt>
      <trkpt lat="47.07721" lon="7.19611">
        <ele>432.8</ele>
        <time>2022-10-01T07:14:12Z</time>
      </trkpt>
      <trkpt lat="47.07725" lon="7.19615">
        <ele>432.8</ele>
        <time>2022-10-01T07:14:13Z</time>
      </trkpt>
      <trkpt lat="47.07729" lon="7.19619">
        <ele>432.8</ele>
        <time>2022-10-01T07:14:14Z</time>
      </trkpt>
      <trkpt lat="47.07732" lon="7.19623">
        <ele>432.8</ele>
        <time>2022-10-01T07:14:15Z</time>
      </trkpt>
      <trkpt lat="47.07735" lon="7.19627">
        <ele>432.8</ele>
        <time>2022-10-01T07:14:16Z</time>
      </trkpt>
      <trkpt lat="47.07739" lon="7.19632">
        <ele>432.8</ele>
        <time>2022-10-01T07:14:17Z</time>
      </trkpt>
      <trkpt lat="47.07742" lon="7.19636">
        <ele>432.9</ele>
        <time>2022-10-01T07:14:18Z</time>
      </trkpt>
      <trkpt lat="47.07746" lon="7.1964">
        <ele>432.9</ele>
        <time>2022-10-01T07:14:19Z</time>
      </trkpt>
      <trkpt lat="47.07749" lon="7.19644">
        <ele>432.9</ele>
        <time>2022-10-01T07:14:20Z</time>
      </trkpt>
      <trkpt lat="47.07753" lon="7.19648">
        <ele>432.9</ele>
        <time>2022-10-01T07:14:21Z</time>
      </trkpt>
      <trkpt lat="47.07757" lon="7.19652">
        <ele>432.9</ele>
        <time>2022-10-01T07:14:22Z</time>
      </trkpt>
      <trkpt lat="47.07761" lon="7.19657">
        <ele>432.9</ele>
        <time>2022-10-01T07:14:23Z</time>
      </trkpt>
      <trkpt lat="47.07765" lon="7.19661">
        <ele>432.9</ele>
        <time>2022-10-01T07:14:24Z</time>
      </trkpt>
      <trkpt lat="47.07768" lon="7.19664">
        <ele>432.9</ele>
        <time>2022-10-01T07:14:25Z</time>
      </trkpt>
      <trkpt lat="47.07773" lon="7.19668">
        <ele>433</ele>
        <time>2022-10-01T07:14:26Z</time>
      </trkpt>
      <trkpt lat="47.07776" lon="7.19673">
        <ele>433</ele>
        <time>2022-10-01T07:14:27Z</time>
      </trkpt>
      <trkpt lat="47.0778" lon="7.19678">
        <ele>433</ele>
        <time>2022-10-01T07:14:28Z</time>
      </trkpt>
      <trkpt lat="47.07784" lon="7.19681">
        <ele>433</ele>
        <time>2022-10-01T07:14:29Z</time>
      </trkpt>
      <trkpt lat="47.07787" lon="7.19686">
        <ele>433</ele>
        <time>2022-10-01T07:14:30Z</time>
      </trkpt>
      <trkpt lat="47.07791" lon="7.1969">
        <ele>433.1</ele>
        <time>2022-10-01T07:14:31Z</time>
      </trkpt>
      <trkpt lat="47.07795" lon="7.19695">
        <ele>433.1</ele>
        <time>2022-10-01T07:14:32Z</time>
      </trkpt>
      <trkpt lat="47.07799" lon="7.19699">
        <ele>433.1</ele>
        <time>2022-10-01T07:14:33Z</time>
      </trkpt>
      <trkpt lat="47.07802" lon="7.19704">
        <ele>433.1</ele>
        <time>2022-10-01T07:14:34Z</time>
      </trkpt>
      <trkpt lat="47.07805" lon="7.19707">
        <ele>433.1</ele>
        <time>2022-10-01T07:14:35Z</time>
      </trkpt>
      <trkpt lat="47.07809" lon="7.19711">
        <ele>433.2</ele>
        <time>2022-10-01T07:14:36Z</time>
      </trkpt>
      <trkpt lat="47.07813" lon="7.19715">
        <ele>433.2</ele>
        <time>2022-10-01T07:14:37Z</time>
      </trkpt>
      <trkpt lat="47.07816" lon="7.19719">
        <ele>433.2</ele>
        <time>2022-10-01T07:14:38Z</time>
      </trkpt>
      <trkpt lat="47.07819" lon="7.19724">
        <ele>433.2</ele>
        <time>2022-10-01T07:14:39Z</time>
      </trkpt>
      <trkpt lat="47.07823" lon="7.19727">
        <ele>433.2</ele>
        <time>2022-10-01T07:14:40Z</time>
      </trkpt>
      <trkpt lat="47.07826" lon="7.19731">
        <ele>433.2</ele>
        <time>2022-10-01T07:14:41Z</time>
      </trkpt>
      <trkpt lat="47.07829" lon="7.19735">
        <ele>433.2</ele>
        <time>2022-10-01T07:14:42Z</time>
      </trkpt>
      <trkpt lat="47.07833" lon="7.1974">
        <ele>433.2</ele>
        <time>2022-10-01T07:14:43Z</time>
      </trkpt>
      <trkpt lat="47.07837" lon="7.19744">
        <ele>433.2</ele>
        <time>2022-10-01T07:14:44Z</time>
      </trkpt>
      <trkpt lat="47.07842" lon="7.19749">
        <ele>433.2</ele>
        <time>2022-10-01T07:14:45Z</time>
      </trkpt>
      <trkpt lat="47.07845" lon="7.19752">
        <ele>433.2</ele>
        <time>2022-10-01T07:14:46Z</time>
      </trkpt>
      <trkpt lat="47.07849" lon="7.19756">
        <ele>433.2</ele>
        <time>2022-10-01T07:14:47Z</time>
      </trkpt>
      <trkpt lat="47.07852" lon="7.19762">
        <ele>433.2</ele>
        <time>2022-10-01T07:14:48Z</time>
      </trkpt>
      <trkpt lat="47.07857" lon="7.19766">
        <ele>433.2</ele>
        <time>2022-10-01T07:14:49Z</time>
      </trkpt>
      <trkpt lat="47.07861" lon="7.19772">
        <ele>433.1</ele>
        <time>2022-10-01T07:14:50Z</time>
      </trkpt>
      <trkpt lat="47.07865" lon="7.19776">
        <ele>433.1</ele>
        <time>2022-10-01T07:14:51Z</time>
      </trkpt>
      <trkpt lat="47.07869" lon="7.19781">
        <ele>433.1</ele>
        <time>2022-10-01T07:14:52Z</time>
      </trkpt>
      <trkpt lat="47.07873" lon="7.19786">
        <ele>433.1</ele>
        <time>2022-10-01T07:14:53Z</time>
      </trkpt>
      <trkpt lat="47.07877" lon="7.1979">
        <ele>433.1</ele>
        <time>2022-10-01T07:14:54Z</time>
      </trkpt>
      <trkpt lat="47.07882" lon="7.19795">
        <ele>433.1</ele>
        <time>2022-10-01T07:14:55Z</time>
      </trkpt>
      <trkpt lat="47.07886" lon="7.19801">
        <ele>433</ele>
        <time>2022-10-01T07:14:56Z</time>
      </trkpt>
      <trkpt lat="47.0789" lon="7.19805">
        <ele>433</ele>
        <time>2022-10-01T07:14:57Z</time>
      </trkpt>
      <trkpt lat="47.07894" lon="7.1981">
        <ele>433</ele>
        <time>2022-10-01T07:14:58Z</time>
      </trkpt>
      <trkpt lat="47.07898" lon="7.19814">
        <ele>433</ele>
        <time>2022-10-01T07:14:59Z</time>
      </trkpt>
      <trkpt lat="47.07902" lon="7.1982">
        <ele>433</ele>
        <time>2022-10-01T07:15:00Z</time>
      </trkpt>
      <trkpt lat="47.07907" lon="7.19825">
        <ele>433</ele>
        <time>2022-10-01T07:15:01Z</time>
      </trkpt>
      <trkpt lat="47.07911" lon="7.19829">
        <ele>433</ele>
        <time>2022-10-01T07:15:02Z</time>
      </trkpt>
      <trkpt lat="47.07915" lon="7.19833">
        <ele>433</ele>
        <time>2022-10-01T07:15:03Z</time>
      </trkpt>
      <trkpt lat="47.07919" lon="7.19838">
        <ele>433</ele>
        <time>2022-10-01T07:15:04Z</time>
      </trkpt>
      <trkpt lat="47.07923" lon="7.19844">
        <ele>433</ele>
        <time>2022-10-01T07:15:05Z</time>
      </trkpt>
      <trkpt lat="47.07927" lon="7.19848">
        <ele>433.1</ele>
        <time>2022-10-01T07:15:06Z</time>
      </trkpt>
      <trkpt lat="47.07931" lon="7.19853">
        <ele>433.1</ele>
        <time>2022-10-01T07:15:07Z</time>
      </trkpt>
      <trkpt lat="47.07935" lon="7.19857">
        <ele>433.1</ele>
        <time>2022-10-01T07:15:08Z</time>
      </trkpt>
      <trkpt lat="47.07939" lon="7.19862">
        <ele>433.1</ele>
        <time>2022-10-01T07:15:09Z</time>
      </trkpt>
      <trkpt lat="47.07943" lon="7.19866">
        <ele>433.1</ele>
        <time>2022-10-01T07:15:10Z</time>
      </trkpt>
      <trkpt lat="47.07946" lon="7.1987">
        <ele>433.1</ele>
        <time>2022-10-01T07:15:11Z</time>
      </trkpt>
      <trkpt lat="47.0795" lon="7.19875">
        <ele>433</ele>
        <time>2022-10-01T07:15:12Z</time>
      </trkpt>
      <trkpt lat="47.07954" lon="7.19881">
        <ele>433</ele>
        <time>2022-10-01T07:15:13Z</time>
      </trkpt>
      <trkpt lat="47.07958" lon="7.19884">
        <ele>433</ele>
        <time>2022-10-01T07:15:14Z</time>
      </trkpt>
      <trkpt lat="47.07962" lon="7.19889">
        <ele>433</ele>
        <time>2022-10-01T07:15:15Z</time>
      </trkpt>
      <trkpt lat="47.07966" lon="7.19895">
        <ele>433</ele>
        <time>2022-10-01T07:15:16Z</time>
      </trkpt>
      <trkpt lat="47.0797" lon="7.199">
        <ele>433</ele>
        <time>2022-10-01T07:15:17Z</time>
      </trkpt>
      <trkpt lat="47.07974" lon="7.19905">
        <ele>433</ele>
        <time>2022-10-01T07:15:18Z</time>
      </trkpt>
      <trkpt lat="47.07978" lon="7.19909">
        <ele>433</ele>
        <time>2022-10-01T07:15:19Z</time>
      </trkpt>
      <trkpt lat="47.07982" lon="7.19913">
        <ele>433</ele>
        <time>2022-10-01T07:15:20Z</time>
      </trkpt>
      <trkpt lat="47.07986" lon="7.19919">
        <ele>433</ele>
        <time>2022-10-01T07:15:21Z</time>
      </trkpt>
      <trkpt lat="47.0799" lon="7.19924">
        <ele>433</ele>
        <time>2022-10-01T07:15:22Z</time>
      </trkpt>
      <trkpt lat="47.07994" lon="7.19928">
        <ele>433</ele>
        <time>2022-10-01T07:15:23Z</time>
      </trkpt>
      <trkpt lat="47.07998" lon="7.19932">
        <ele>433</ele>
        <time>2022-10-01T07:15:24Z</time>
      </trkpt>
      <trkpt lat="47.08002" lon="7.19937">
        <ele>433</ele>
        <time>2022-10-01T07:15:25Z</time>
      </trkpt>
      <trkpt lat="47.08007" lon="7.19941">
        <ele>433</ele>
        <time>2022-10-01T07:15:26Z</time>
      </trkpt>
      <trkpt lat="47.08011" lon="7.19946">
        <ele>433</ele>
        <time>2022-10-01T07:15:27Z</time>
      </trkpt>
      <trkpt lat="47.08014" lon="7.19951">
        <ele>433</ele>
        <time>2022-10-01T07:15:28Z</time>
      </trkpt>
      <trkpt lat="47.08019" lon="7.19955">
        <ele>433</ele>
        <time>2022-10-01T07:15:29Z</time>
      </trkpt>
      <trkpt lat="47.08023" lon="7.1996">
        <ele>433</ele>
        <time>2022-10-01T07:15:30Z</time>
      </trkpt>
      <trkpt lat="47.08027" lon="7.19965">
        <ele>433</ele>
        <time>2022-10-01T07:15:31Z</time>
      </trkpt>
      <trkpt lat="47.08031" lon="7.19968">
        <ele>433</ele>
        <time>2022-10-01T07:15:32Z</time>
      </trkpt>
      <trkpt lat="47.08035" lon="7.19974">
        <ele>433.1</ele>
        <time>2022-10-01T07:15:33Z</time>
      </trkpt>
      <trkpt lat="47.08039" lon="7.19978">
        <ele>433.1</ele>
        <time>2022-10-01T07:15:34Z</time>
      </trkpt>
      <trkpt lat="47.08043" lon="7.19982">
        <ele>433.1</ele>
        <time>2022-10-01T07:15:35Z</time>
      </trkpt>
      <trkpt lat="47.08047" lon="7.19988">
        <ele>433.1</ele>
        <time>2022-10-01T07:15:36Z</time>
      </trkpt>
      <trkpt lat="47.08052" lon="7.19992">
        <ele>433.1</ele>
        <time>2022-10-01T07:15:37Z</time>
      </trkpt>
      <trkpt lat="47.08055" lon="7.19996">
        <ele>433.1</ele>
        <time>2022-10-01T07:15:38Z</time>
      </trkpt>
      <trkpt lat="47.0806" lon="7.20002">
        <ele>433.1</ele>
        <time>2022-10-01T07:15:39Z</time>
      </trkpt>
      <trkpt lat="47.08064" lon="7.20006">
        <ele>433.1</ele>
        <time>2022-10-01T07:15:40Z</time>
      </trkpt>
      <trkpt lat="47.08068" lon="7.20011">
        <ele>433.1</ele>
        <time>2022-10-01T07:15:41Z</time>
      </trkpt>
      <trkpt lat="47.08072" lon="7.20016">
        <ele>433.1</ele>
        <time>2022-10-01T07:15:42Z</time>
      </trkpt>
      <trkpt lat="47.08076" lon="7.2002">
        <ele>433.2</ele>
        <time>2022-10-01T07:15:43Z</time>
      </trkpt>
      <trkpt lat="47.08081" lon="7.20025">
        <ele>433.2</ele>
        <time>2022-10-01T07:15:44Z</time>
      </trkpt>
      <trkpt lat="47.08083" lon="7.2003">
        <ele>433.2</ele>
        <time>2022-10-01T07:15:45Z</time>
      </trkpt>
      <trkpt lat="47.08088" lon="7.20034">
        <ele>433.2</ele>
        <time>2022-10-01T07:15:46Z</time>
      </trkpt>
      <trkpt lat="47.08092" lon="7.20039">
        <ele>433.2</ele>
        <time>2022-10-01T07:15:47Z</time>
      </trkpt>
      <trkpt lat="47.08095" lon="7.20043">
        <ele>433.2</ele>
        <time>2022-10-01T07:15:48Z</time>
      </trkpt>
      <trkpt lat="47.08099" lon="7.20047">
        <ele>433.2</ele>
        <time>2022-10-01T07:15:49Z</time>
      </trkpt>
      <trkpt lat="47.08103" lon="7.20053">
        <ele>433.2</ele>
        <time>2022-10-01T07:15:50Z</time>
      </trkpt>
      <trkpt lat="47.08108" lon="7.20058">
        <ele>433.2</ele>
        <time>2022-10-01T07:15:51Z</time>
      </trkpt>
      <trkpt lat="47.08111" lon="7.20063">
        <ele>433.2</ele>
        <time>2022-10-01T07:15:52Z</time>
      </trkpt>
      <trkpt lat="47.08114" lon="7.20068">
        <ele>433.2</ele>
        <time>2022-10-01T07:15:53Z</time>
      </trkpt>
      <trkpt lat="47.08119" lon="7.20073">
        <ele>433.2</ele>
        <time>2022-10-01T07:15:54Z</time>
      </trkpt>
      <trkpt lat="47.08122" lon="7.20078">
        <ele>433.2</ele>
        <time>2022-10-01T07:15:55Z</time>
      </trkpt>
      <trkpt lat="47.08127" lon="7.20082">
        <ele>433.2</ele>
        <time>2022-10-01T07:15:56Z</time>
      </trkpt>
      <trkpt lat="47.08132" lon="7.20086">
        <ele>433.2</ele>
        <time>2022-10-01T07:15:57Z</time>
      </trkpt>
      <trkpt lat="47.08136" lon="7.20089">
        <ele>433.2</ele>
        <time>2022-10-01T07:15:58Z</time>
      </trkpt>
      <trkpt lat="47.0814" lon="7.20093">
        <ele>433.2</ele>
        <time>2022-10-01T07:15:59Z</time>
      </trkpt>
      <trkpt lat="47.08145" lon="7.20096">
        <ele>433.2</ele>
        <time>2022-10-01T07:16:00Z</time>
      </trkpt>
      <trkpt lat="47.08148" lon="7.20099">
        <ele>433.3</ele>
        <time>2022-10-01T07:16:01Z</time>
      </trkpt>
      <trkpt lat="47.08152" lon="7.20102">
        <ele>433.3</ele>
        <time>2022-10-01T07:16:02Z</time>
      </trkpt>
      <trkpt lat="47.08156" lon="7.20106">
        <ele>433.3</ele>
        <time>2022-10-01T07:16:03Z</time>
      </trkpt>
      <trkpt lat="47.0816" lon="7.2011">
        <ele>433.3</ele>
        <time>2022-10-01T07:16:04Z</time>
      </trkpt>
      <trkpt lat="47.08164" lon="7.20113">
        <ele>433.3</ele>
        <time>2022-10-01T07:16:05Z</time>
      </trkpt>
      <trkpt lat="47.08168" lon="7.20116">
        <ele>433.3</ele>
        <time>2022-10-01T07:16:06Z</time>
      </trkpt>
      <trkpt lat="47.08171" lon="7.2012">
        <ele>433.4</ele>
        <time>2022-10-01T07:16:07Z</time>
      </trkpt>
      <trkpt lat="47.08175" lon="7.20124">
        <ele>433.4</ele>
        <time>2022-10-01T07:16:08Z</time>
      </trkpt>
      <trkpt lat="47.08179" lon="7.20127">
        <ele>433.4</ele>
        <time>2022-10-01T07:16:09Z</time>
      </trkpt>
      <trkpt lat="47.08182" lon="7.2013">
        <ele>433.4</ele>
        <time>2022-10-01T07:16:10Z</time>
      </trkpt>
      <trkpt lat="47.08186" lon="7.20133">
        <ele>433.5</ele>
        <time>2022-10-01T07:16:11Z</time>
      </trkpt>
      <trkpt lat="47.0819" lon="7.20136">
        <ele>433.5</ele>
        <time>2022-10-01T07:16:12Z</time>
      </trkpt>
      <trkpt lat="47.08193" lon="7.20138">
        <ele>433.5</ele>
        <time>2022-10-01T07:16:13Z</time>
      </trkpt>
      <trkpt lat="47.08196" lon="7.20141">
        <ele>433.4</ele>
        <time>2022-10-01T07:16:14Z</time>
      </trkpt>
      <trkpt lat="47.08198" lon="7.20143">
        <ele>433.4</ele>
        <time>2022-10-01T07:16:15Z</time>
      </trkpt>
      <trkpt lat="47.08201" lon="7.20147">
        <ele>433.4</ele>
        <time>2022-10-01T07:16:16Z</time>
      </trkpt>
      <trkpt lat="47.08205" lon="7.2015">
        <ele>433.3</ele>
        <time>2022-10-01T07:16:17Z</time>
      </trkpt>
      <trkpt lat="47.08208" lon="7.20154">
        <ele>433.3</ele>
        <time>2022-10-01T07:16:18Z</time>
      </trkpt>
      <trkpt lat="47.08211" lon="7.20156">
        <ele>433.3</ele>
        <time>2022-10-01T07:16:19Z</time>
      </trkpt>
      <trkpt lat="47.08214" lon="7.20159">
        <ele>433.2</ele>
        <time>2022-10-01T07:16:20Z</time>
      </trkpt>
      <trkpt lat="47.08217" lon="7.20163">
        <ele>433.2</ele>
        <time>2022-10-01T07:16:21Z</time>
      </trkpt>
      <trkpt lat="47.08221" lon="7.20165">
        <ele>433.2</ele>
        <time>2022-10-01T07:16:22Z</time>
      </trkpt>
      <trkpt lat="47.08224" lon="7.20169">
        <ele>433.2</ele>
        <time>2022-10-01T07:16:23Z</time>
      </trkpt>
      <trkpt lat="47.08227" lon="7.20172">
        <ele>433.2</ele>
        <time>2022-10-01T07:16:24Z</time>
      </trkpt>
      <trkpt lat="47.08231" lon="7.20174">
        <ele>433.2</ele>
        <time>2022-10-01T07:16:25Z</time>
      </trkpt>
      <trkpt lat="47.08234" lon="7.20177">
        <ele>433.2</ele>
        <time>2022-10-01T07:16:26Z</time>
      </trkpt>
      <trkpt lat="47.08237" lon="7.20181">
        <ele>433.2</ele>
        <time>2022-10-01T07:16:27Z</time>
      </trkpt>
      <trkpt lat="47.08239" lon="7.20183">
        <ele>433.2</ele>
        <time>2022-10-01T07:16:28Z</time>
      </trkpt>
      <trkpt lat="47.08242" lon="7.20185">
        <ele>433.2</ele>
        <time>2022-10-01T07:16:29Z</time>
      </trkpt>
      <trkpt lat="47.08245" lon="7.20188">
        <ele>433.2</ele>
        <time>2022-10-01T07:16:30Z</time>
      </trkpt>
      <trkpt lat="47.08248" lon="7.20191">
        <ele>433.2</ele>
        <time>2022-10-01T07:16:31Z</time>
      </trkpt>
      <trkpt lat="47.0825" lon="7.20193">
        <ele>433.2</ele>
        <time>2022-10-01T07:16:32Z</time>
      </trkpt>
      <trkpt lat="47.08254" lon="7.20196">
        <ele>433.2</ele>
        <time>2022-10-01T07:16:33Z</time>
      </trkpt>
      <trkpt lat="47.08256" lon="7.20198">
        <ele>433.2</ele>
        <time>2022-10-01T07:16:34Z</time>
      </trkpt>
      <trkpt lat="47.08259" lon="7.20201">
        <ele>433.2</ele>
        <time>2022-10-01T07:16:35Z</time>
      </trkpt>
      <trkpt lat="47.08262" lon="7.20204">
        <ele>433.2</ele>
        <time>2022-10-01T07:16:36Z</time>
      </trkpt>
      <trkpt lat="47.08266" lon="7.20207">
        <ele>433.2</ele>
        <time>2022-10-01T07:16:37Z</time>
      </trkpt>
      <trkpt lat="47.08268" lon="7.2021">
        <ele>433.2</ele>
        <time>2022-10-01T07:16:38Z</time>
      </trkpt>
      <trkpt lat="47.08272" lon="7.20213">
        <ele>433.3</ele>
        <time>2022-10-01T07:16:39Z</time>
      </trkpt>
      <trkpt lat="47.08274" lon="7.20216">
        <ele>433.3</ele>
        <time>2022-10-01T07:16:40Z</time>
      </trkpt>
      <trkpt lat="47.08278" lon="7.20219">
        <ele>433.3</ele>
        <time>2022-10-01T07:16:41Z</time>
      </trkpt>
      <trkpt lat="47.0828" lon="7.20221">
        <ele>433.3</ele>
        <time>2022-10-01T07:16:42Z</time>
      </trkpt>
      <trkpt lat="47.08283" lon="7.20224">
        <ele>433.3</ele>
        <time>2022-10-01T07:16:43Z</time>
      </trkpt>
      <trkpt lat="47.08286" lon="7.20227">
        <ele>433.3</ele>
        <time>2022-10-01T07:16:44Z</time>
      </trkpt>
      <trkpt lat="47.0829" lon="7.2023">
        <ele>433.3</ele>
        <time>2022-10-01T07:16:45Z</time>
      </trkpt>
      <trkpt lat="47.08294" lon="7.20233">
        <ele>433.3</ele>
        <time>2022-10-01T07:16:46Z</time>
      </trkpt>
      <trkpt lat="47.08297" lon="7.20237">
        <ele>433.3</ele>
        <time>2022-10-01T07:16:47Z</time>
      </trkpt>
      <trkpt lat="47.083" lon="7.20239">
        <ele>433.3</ele>
        <time>2022-10-01T07:16:48Z</time>
      </trkpt>
      <trkpt lat="47.08304" lon="7.20243">
        <ele>433.2</ele>
        <time>2022-10-01T07:16:49Z</time>
      </trkpt>
      <trkpt lat="47.08307" lon="7.20246">
        <ele>433.2</ele>
        <time>2022-10-01T07:16:50Z</time>
      </trkpt>
      <trkpt lat="47.08311" lon="7.20249">
        <ele>433.2</ele>
        <time>2022-10-01T07:16:51Z</time>
      </trkpt>
      <trkpt lat="47.08316" lon="7.20253">
        <ele>433.2</ele>
        <time>2022-10-01T07:16:52Z</time>
      </trkpt>
      <trkpt lat="47.08319" lon="7.20257">
        <ele>433.2</ele>
        <time>2022-10-01T07:16:53Z</time>
      </trkpt>
      <trkpt lat="47.08323" lon="7.2026">
        <ele>433.2</ele>
        <time>2022-10-01T07:16:54Z</time>
      </trkpt>
      <trkpt lat="47.08326" lon="7.20263">
        <ele>433.2</ele>
        <time>2022-10-01T07:16:55Z</time>
      </trkpt>
      <trkpt lat="47.0833" lon="7.20266">
        <ele>433.2</ele>
        <time>2022-10-01T07:16:56Z</time>
      </trkpt>
      <trkpt lat="47.08334" lon="7.2027">
        <ele>433.2</ele>
        <time>2022-10-01T07:16:57Z</time>
      </trkpt>
      <trkpt lat="47.08337" lon="7.20273">
        <ele>433.2</ele>
        <time>2022-10-01T07:16:58Z</time>
      </trkpt>
      <trkpt lat="47.08341" lon="7.20275">
        <ele>433.2</ele>
        <time>2022-10-01T07:17:00Z</time>
      </trkpt>
      <trkpt lat="47.08343" lon="7.20278">
        <ele>433.2</ele>
        <time>2022-10-01T07:17:01Z</time>
      </trkpt>
      <trkpt lat="47.08347" lon="7.20282">
        <ele>433.3</ele>
        <time>2022-10-01T07:17:02Z</time>
      </trkpt>
      <trkpt lat="47.0835" lon="7.20286">
        <ele>433.3</ele>
        <time>2022-10-01T07:17:03Z</time>
      </trkpt>
      <trkpt lat="47.08353" lon="7.20289">
        <ele>433.3</ele>
        <time>2022-10-01T07:17:04Z</time>
      </trkpt>
      <trkpt lat="47.08356" lon="7.20292">
        <ele>433.3</ele>
        <time>2022-10-01T07:17:05Z</time>
      </trkpt>
      <trkpt lat="47.08359" lon="7.20295">
        <ele>433.3</ele>
        <time>2022-10-01T07:17:06Z</time>
      </trkpt>
      <trkpt lat="47.08362" lon="7.20298">
        <ele>433.3</ele>
        <time>2022-10-01T07:17:07Z</time>
      </trkpt>
      <trkpt lat="47.08365" lon="7.20302">
        <ele>433.3</ele>
        <time>2022-10-01T07:17:08Z</time>
      </trkpt>
      <trkpt lat="47.08368" lon="7.20305">
        <ele>433.3</ele>
        <time>2022-10-01T07:17:09Z</time>
      </trkpt>
      <trkpt lat="47.08371" lon="7.20308">
        <ele>433.3</ele>
        <time>2022-10-01T07:17:10Z</time>
      </trkpt>
      <trkpt lat="47.08374" lon="7.20312">
        <ele>433.3</ele>
        <time>2022-10-01T07:17:11Z</time>
      </trkpt>
      <trkpt lat="47.08378" lon="7.20316">
        <ele>433.3</ele>
        <time>2022-10-01T07:17:12Z</time>
      </trkpt>
      <trkpt lat="47.08381" lon="7.20319">
        <ele>433.3</ele>
        <time>2022-10-01T07:17:13Z</time>
      </trkpt>
      <trkpt lat="47.08384" lon="7.20323">
        <ele>433.4</ele>
        <time>2022-10-01T07:17:14Z</time>
      </trkpt>
      <trkpt lat="47.08387" lon="7.20327">
        <ele>433.4</ele>
        <time>2022-10-01T07:17:15Z</time>
      </trkpt>
      <trkpt lat="47.08389" lon="7.20331">
        <ele>433.5</ele>
        <time>2022-10-01T07:17:16Z</time>
      </trkpt>
      <trkpt lat="47.08392" lon="7.20334">
        <ele>433.5</ele>
        <time>2022-10-01T07:17:17Z</time>
      </trkpt>
      <trkpt lat="47.08393" lon="7.20338">
        <ele>433.6</ele>
        <time>2022-10-01T07:17:18Z</time>
      </trkpt>
      <trkpt lat="47.08396" lon="7.20341">
        <ele>433.6</ele>
        <time>2022-10-01T07:17:19Z</time>
      </trkpt>
      <trkpt lat="47.08398" lon="7.20346">
        <ele>433.7</ele>
        <time>2022-10-01T07:17:20Z</time>
      </trkpt>
      <trkpt lat="47.084" lon="7.20352">
        <ele>433.9</ele>
        <time>2022-10-01T07:17:21Z</time>
      </trkpt>
      <trkpt lat="47.08401" lon="7.20356">
        <ele>434</ele>
        <time>2022-10-01T07:17:22Z</time>
      </trkpt>
      <trkpt lat="47.08403" lon="7.20361">
        <ele>434.1</ele>
        <time>2022-10-01T07:17:23Z</time>
      </trkpt>
      <trkpt lat="47.08404" lon="7.20367">
        <ele>434.3</ele>
        <time>2022-10-01T07:17:24Z</time>
      </trkpt>
      <trkpt lat="47.08406" lon="7.20371">
        <ele>434.5</ele>
        <time>2022-10-01T07:17:25Z</time>
      </trkpt>
      <trkpt lat="47.08407" lon="7.20375">
        <ele>434.7</ele>
        <time>2022-10-01T07:17:26Z</time>
      </trkpt>
      <trkpt lat="47.08407" lon="7.2038">
        <ele>434.9</ele>
        <time>2022-10-01T07:17:27Z</time>
      </trkpt>
      <trkpt lat="47.08408" lon="7.20385">
        <ele>435.2</ele>
        <time>2022-10-01T07:17:28Z</time>
      </trkpt>
      <trkpt lat="47.08409" lon="7.2039">
        <ele>435.5</ele>
        <time>2022-10-01T07:17:29Z</time>
      </trkpt>
      <trkpt lat="47.08409" lon="7.20395">
        <ele>435.9</ele>
        <time>2022-10-01T07:17:30Z</time>
      </trkpt>
      <trkpt lat="47.08409" lon="7.20399">
        <ele>436.2</ele>
        <time>2022-10-01T07:17:31Z</time>
      </trkpt>
      <trkpt lat="47.08409" lon="7.20404">
        <ele>436.6</ele>
        <time>2022-10-01T07:17:32Z</time>
      </trkpt>
      <trkpt lat="47.08409" lon="7.20408">
        <ele>437</ele>
        <time>2022-10-01T07:17:33Z</time>
      </trkpt>
      <trkpt lat="47.08409" lon="7.20411">
        <ele>437.3</ele>
        <time>2022-10-01T07:17:34Z</time>
      </trkpt>
      <trkpt lat="47.08409" lon="7.20413">
        <ele>437.6</ele>
        <time>2022-10-01T07:17:35Z</time>
      </trkpt>
      <trkpt lat="47.08409" lon="7.20416">
        <ele>437.9</ele>
        <time>2022-10-01T07:17:36Z</time>
      </trkpt>
      <trkpt lat="47.08408" lon="7.20417">
        <ele>438.1</ele>
        <time>2022-10-01T07:17:37Z</time>
      </trkpt>
      <trkpt lat="47.08407" lon="7.20421">
        <ele>438.7</ele>
        <time>2022-10-01T07:17:38Z</time>
      </trkpt>
      <trkpt lat="47.08407" lon="7.20423">
        <ele>438.9</ele>
        <time>2022-10-01T07:17:39Z</time>
      </trkpt>
      <trkpt lat="47.08406" lon="7.20426">
        <ele>439.4</ele>
        <time>2022-10-01T07:17:40Z</time>
      </trkpt>
      <trkpt lat="47.08406" lon="7.20428">
        <ele>439.6</ele>
        <time>2022-10-01T07:17:41Z</time>
      </trkpt>
      <trkpt lat="47.08406" lon="7.20429">
        <ele>439.8</ele>
        <time>2022-10-01T07:17:42Z</time>
      </trkpt>
      <trkpt lat="47.08404" lon="7.20433">
        <ele>440.4</ele>
        <time>2022-10-01T07:17:43Z</time>
      </trkpt>
      <trkpt lat="47.08403" lon="7.20434">
        <ele>440.6</ele>
        <time>2022-10-01T07:17:44Z</time>
      </trkpt>
      <trkpt lat="47.08402" lon="7.2044">
        <ele>441.4</ele>
        <time>2022-10-01T07:17:45Z</time>
      </trkpt>
      <trkpt lat="47.084" lon="7.20443">
        <ele>442</ele>
        <time>2022-10-01T07:17:46Z</time>
      </trkpt>
      <trkpt lat="47.084" lon="7.20444">
        <ele>442.1</ele>
        <time>2022-10-01T07:17:47Z</time>
      </trkpt>
      <trkpt lat="47.08399" lon="7.20448">
        <ele>442.7</ele>
        <time>2022-10-01T07:17:48Z</time>
      </trkpt>
      <trkpt lat="47.08399" lon="7.2045">
        <ele>443</ele>
        <time>2022-10-01T07:17:49Z</time>
      </trkpt>
      <trkpt lat="47.08397" lon="7.20453">
        <ele>443.5</ele>
        <time>2022-10-01T07:17:50Z</time>
      </trkpt>
      <trkpt lat="47.08396" lon="7.20455">
        <ele>443.7</ele>
        <time>2022-10-01T07:17:51Z</time>
      </trkpt>
      <trkpt lat="47.08396" lon="7.20456">
        <ele>443.9</ele>
        <time>2022-10-01T07:17:52Z</time>
      </trkpt>
      <trkpt lat="47.08394" lon="7.2046">
        <ele>444.5</ele>
        <time>2022-10-01T07:17:53Z</time>
      </trkpt>
      <trkpt lat="47.08394" lon="7.20461">
        <ele>444.6</ele>
        <time>2022-10-01T07:17:54Z</time>
      </trkpt>
      <trkpt lat="47.08393" lon="7.20465">
        <ele>445</ele>
        <time>2022-10-01T07:17:55Z</time>
      </trkpt>
      <trkpt lat="47.08392" lon="7.20466">
        <ele>445.2</ele>
        <time>2022-10-01T07:17:56Z</time>
      </trkpt>
      <trkpt lat="47.08392" lon="7.20467">
        <ele>445.4</ele>
        <time>2022-10-01T07:17:57Z</time>
      </trkpt>
      <trkpt lat="47.08391" lon="7.20469">
        <ele>445.6</ele>
        <time>2022-10-01T07:17:58Z</time>
      </trkpt>
      <trkpt lat="47.0839" lon="7.20472">
        <ele>445.9</ele>
        <time>2022-10-01T07:17:59Z</time>
      </trkpt>
      <trkpt lat="47.08389" lon="7.20473">
        <ele>446.2</ele>
        <time>2022-10-01T07:18:00Z</time>
      </trkpt>
      <trkpt lat="47.08388" lon="7.20476">
        <ele>446.4</ele>
        <time>2022-10-01T07:18:01Z</time>
      </trkpt>
      <trkpt lat="47.08387" lon="7.20478">
        <ele>446.7</ele>
        <time>2022-10-01T07:18:02Z</time>
      </trkpt>
      <trkpt lat="47.08387" lon="7.20479">
        <ele>446.8</ele>
        <time>2022-10-01T07:18:03Z</time>
      </trkpt>
      <trkpt lat="47.08386" lon="7.20481">
        <ele>447.1</ele>
        <time>2022-10-01T07:18:04Z</time>
      </trkpt>
      <trkpt lat="47.08384" lon="7.20483">
        <ele>447.3</ele>
        <time>2022-10-01T07:18:05Z</time>
      </trkpt>
      <trkpt lat="47.08384" lon="7.20485">
        <ele>447.5</ele>
        <time>2022-10-01T07:18:06Z</time>
      </trkpt>
      <trkpt lat="47.08383" lon="7.20487">
        <ele>447.7</ele>
        <time>2022-10-01T07:18:07Z</time>
      </trkpt>
      <trkpt lat="47.08382" lon="7.20488">
        <ele>447.9</ele>
        <time>2022-10-01T07:18:08Z</time>
      </trkpt>
      <trkpt lat="47.08381" lon="7.2049">
        <ele>448.1</ele>
        <time>2022-10-01T07:18:09Z</time>
      </trkpt>
      <trkpt lat="47.08379" lon="7.20492">
        <ele>448.4</ele>
        <time>2022-10-01T07:18:10Z</time>
      </trkpt>
      <trkpt lat="47.08377" lon="7.20494">
        <ele>448.7</ele>
        <time>2022-10-01T07:18:11Z</time>
      </trkpt>
      <trkpt lat="47.08376" lon="7.20495">
        <ele>448.8</ele>
        <time>2022-10-01T07:18:12Z</time>
      </trkpt>
      <trkpt lat="47.08376" lon="7.20496">
        <ele>448.9</ele>
        <time>2022-10-01T07:18:13Z</time>
      </trkpt>
      <trkpt lat="47.08374" lon="7.20498">
        <ele>449.2</ele>
        <time>2022-10-01T07:18:14Z</time>
      </trkpt>
      <trkpt lat="47.08373" lon="7.20499">
        <ele>449.4</ele>
        <time>2022-10-01T07:18:15Z</time>
      </trkpt>
      <trkpt lat="47.08372" lon="7.20501">
        <ele>449.6</ele>
        <time>2022-10-01T07:18:16Z</time>
      </trkpt>
      <trkpt lat="47.08371" lon="7.20502">
        <ele>449.8</ele>
        <time>2022-10-01T07:18:17Z</time>
      </trkpt>
      <trkpt lat="47.08369" lon="7.20505">
        <ele>450.1</ele>
        <time>2022-10-01T07:18:18Z</time>
      </trkpt>
      <trkpt lat="47.08368" lon="7.20506">
        <ele>450.3</ele>
        <time>2022-10-01T07:18:19Z</time>
      </trkpt>
      <trkpt lat="47.08367" lon="7.20507">
        <ele>450.5</ele>
        <time>2022-10-01T07:18:20Z</time>
      </trkpt>
      <trkpt lat="47.08366" lon="7.20508">
        <ele>450.7</ele>
        <time>2022-10-01T07:18:21Z</time>
      </trkpt>
      <trkpt lat="47.08363" lon="7.20511">
        <ele>451.1</ele>
        <time>2022-10-01T07:18:22Z</time>
      </trkpt>
      <trkpt lat="47.08363" lon="7.20511">
        <ele>451.2</ele>
        <time>2022-10-01T07:18:23Z</time>
      </trkpt>
      <trkpt lat="47.08362" lon="7.20512">
        <ele>451.3</ele>
        <time>2022-10-01T07:18:24Z</time>
      </trkpt>
      <trkpt lat="47.08359" lon="7.20514">
        <ele>451.8</ele>
        <time>2022-10-01T07:18:25Z</time>
      </trkpt>
      <trkpt lat="47.08358" lon="7.20515">
        <ele>451.9</ele>
        <time>2022-10-01T07:18:26Z</time>
      </trkpt>
      <trkpt lat="47.08358" lon="7.20515">
        <ele>451.9</ele>
        <time>2022-10-01T07:18:27Z</time>
      </trkpt>
      <trkpt lat="47.08356" lon="7.20517">
        <ele>452.1</ele>
        <time>2022-10-01T07:18:28Z</time>
      </trkpt>
      <trkpt lat="47.08355" lon="7.20518">
        <ele>452.2</ele>
        <time>2022-10-01T07:18:29Z</time>
      </trkpt>
      <trkpt lat="47.08353" lon="7.20519">
        <ele>452.4</ele>
        <time>2022-10-01T07:18:30Z</time>
      </trkpt>
      <trkpt lat="47.08352" lon="7.20519">
        <ele>452.5</ele>
        <time>2022-10-01T07:18:31Z</time>
      </trkpt>
      <trkpt lat="47.0835" lon="7.20519">
        <ele>452.6</ele>
        <time>2022-10-01T07:18:32Z</time>
      </trkpt>
      <trkpt lat="47.08349" lon="7.20521">
        <ele>452.8</ele>
        <time>2022-10-01T07:18:33Z</time>
      </trkpt>
      <trkpt lat="47.08348" lon="7.20522">
        <ele>452.9</ele>
        <time>2022-10-01T07:18:34Z</time>
      </trkpt>
      <trkpt lat="47.08347" lon="7.20522">
        <ele>453</ele>
        <time>2022-10-01T07:18:35Z</time>
      </trkpt>
      <trkpt lat="47.08345" lon="7.20524">
        <ele>453.2</ele>
        <time>2022-10-01T07:18:36Z</time>
      </trkpt>
      <trkpt lat="47.08344" lon="7.20524">
        <ele>453.4</ele>
        <time>2022-10-01T07:18:37Z</time>
      </trkpt>
      <trkpt lat="47.08342" lon="7.20525">
        <ele>453.5</ele>
        <time>2022-10-01T07:18:38Z</time>
      </trkpt>
      <trkpt lat="47.08341" lon="7.20526">
        <ele>453.7</ele>
        <time>2022-10-01T07:18:39Z</time>
      </trkpt>
      <trkpt lat="47.0834" lon="7.20527">
        <ele>453.8</ele>
        <time>2022-10-01T07:18:40Z</time>
      </trkpt>
      <trkpt lat="47.08338" lon="7.20528">
        <ele>454</ele>
        <time>2022-10-01T07:18:41Z</time>
      </trkpt>
      <trkpt lat="47.08336" lon="7.20529">
        <ele>454.1</ele>
        <time>2022-10-01T07:18:42Z</time>
      </trkpt>
      <trkpt lat="47.08335" lon="7.20529">
        <ele>454.3</ele>
        <time>2022-10-01T07:18:43Z</time>
      </trkpt>
      <trkpt lat="47.08334" lon="7.2053">
        <ele>454.4</ele>
        <time>2022-10-01T07:18:44Z</time>
      </trkpt>
      <trkpt lat="47.08332" lon="7.20531">
        <ele>454.6</ele>
        <time>2022-10-01T07:18:45Z</time>
      </trkpt>
      <trkpt lat="47.08331" lon="7.20532">
        <ele>454.7</ele>
        <time>2022-10-01T07:18:46Z</time>
      </trkpt>
      <trkpt lat="47.08329" lon="7.20532">
        <ele>454.9</ele>
        <time>2022-10-01T07:18:47Z</time>
      </trkpt>
      <trkpt lat="47.08327" lon="7.20533">
        <ele>455.1</ele>
        <time>2022-10-01T07:18:48Z</time>
      </trkpt>
      <trkpt lat="47.08326" lon="7.20534">
        <ele>455.2</ele>
        <time>2022-10-01T07:18:49Z</time>
      </trkpt>
      <trkpt lat="47.08324" lon="7.20534">
        <ele>455.3</ele>
        <time>2022-10-01T07:18:50Z</time>
      </trkpt>
      <trkpt lat="47.08323" lon="7.20535">
        <ele>455.5</ele>
        <time>2022-10-01T07:18:51Z</time>
      </trkpt>
      <trkpt lat="47.08321" lon="7.20535">
        <ele>455.6</ele>
        <time>2022-10-01T07:18:52Z</time>
      </trkpt>
      <trkpt lat="47.0832" lon="7.20536">
        <ele>455.7</ele>
        <time>2022-10-01T07:18:53Z</time>
      </trkpt>
      <trkpt lat="47.08318" lon="7.20537">
        <ele>455.9</ele>
        <time>2022-10-01T07:18:54Z</time>
      </trkpt>
      <trkpt lat="47.08317" lon="7.20538">
        <ele>456</ele>
        <time>2022-10-01T07:18:55Z</time>
      </trkpt>
      <trkpt lat="47.08315" lon="7.20538">
        <ele>456.2</ele>
        <time>2022-10-01T07:18:56Z</time>
      </trkpt>
      <trkpt lat="47.08313" lon="7.20539">
        <ele>456.3</ele>
        <time>2022-10-01T07:18:57Z</time>
      </trkpt>
      <trkpt lat="47.08312" lon="7.20539">
        <ele>456.4</ele>
        <time>2022-10-01T07:18:58Z</time>
      </trkpt>
      <trkpt lat="47.08311" lon="7.2054">
        <ele>456.5</ele>
        <time>2022-10-01T07:18:59Z</time>
      </trkpt>
      <trkpt lat="47.0831" lon="7.20541">
        <ele>456.6</ele>
        <time>2022-10-01T07:19:00Z</time>
      </trkpt>
      <trkpt lat="47.08309" lon="7.20543">
        <ele>456.8</ele>
        <time>2022-10-01T07:19:01Z</time>
      </trkpt>
      <trkpt lat="47.08307" lon="7.20544">
        <ele>456.9</ele>
        <time>2022-10-01T07:19:02Z</time>
      </trkpt>
      <trkpt lat="47.08307" lon="7.20546">
        <ele>457</ele>
        <time>2022-10-01T07:19:04Z</time>
      </trkpt>
      <trkpt lat="47.08307" lon="7.20548">
        <ele>457.4</ele>
        <time>2022-10-01T07:19:05Z</time>
      </trkpt>
      <trkpt lat="47.08307" lon="7.20551">
        <ele>457.4</ele>
        <time>2022-10-01T07:19:06Z</time>
      </trkpt>
      <trkpt lat="47.08308" lon="7.20553">
        <ele>457.4</ele>
        <time>2022-10-01T07:19:07Z</time>
      </trkpt>
      <trkpt lat="47.08309" lon="7.20555">
        <ele>457.4</ele>
        <time>2022-10-01T07:19:08Z</time>
      </trkpt>
      <trkpt lat="47.08311" lon="7.20558">
        <ele>457.4</ele>
        <time>2022-10-01T07:19:09Z</time>
      </trkpt>
      <trkpt lat="47.08312" lon="7.20559">
        <ele>457.4</ele>
        <time>2022-10-01T07:19:10Z</time>
      </trkpt>
      <trkpt lat="47.08315" lon="7.20562">
        <ele>457.4</ele>
        <time>2022-10-01T07:19:11Z</time>
      </trkpt>
      <trkpt lat="47.08315" lon="7.20562">
        <ele>457.4</ele>
        <time>2022-10-01T07:19:12Z</time>
      </trkpt>
      <trkpt lat="47.08318" lon="7.20566">
        <ele>457.4</ele>
        <time>2022-10-01T07:19:13Z</time>
      </trkpt>
      <trkpt lat="47.08319" lon="7.20567">
        <ele>457.4</ele>
        <time>2022-10-01T07:19:14Z</time>
      </trkpt>
      <trkpt lat="47.08322" lon="7.2057">
        <ele>457.4</ele>
        <time>2022-10-01T07:19:15Z</time>
      </trkpt>
      <trkpt lat="47.08323" lon="7.20571">
        <ele>457.4</ele>
        <time>2022-10-01T07:19:16Z</time>
      </trkpt>
      <trkpt lat="47.08325" lon="7.20574">
        <ele>457.4</ele>
        <time>2022-10-01T07:19:17Z</time>
      </trkpt>
      <trkpt lat="47.08327" lon="7.20576">
        <ele>457.4</ele>
        <time>2022-10-01T07:19:18Z</time>
      </trkpt>
      <trkpt lat="47.0833" lon="7.20578">
        <ele>457.4</ele>
        <time>2022-10-01T07:19:19Z</time>
      </trkpt>
      <trkpt lat="47.08333" lon="7.20581">
        <ele>457.4</ele>
        <time>2022-10-01T07:19:20Z</time>
      </trkpt>
      <trkpt lat="47.08336" lon="7.20585">
        <ele>457.4</ele>
        <time>2022-10-01T07:19:21Z</time>
      </trkpt>
      <trkpt lat="47.08338" lon="7.20587">
        <ele>457.3</ele>
        <time>2022-10-01T07:19:22Z</time>
      </trkpt>
      <trkpt lat="47.08341" lon="7.2059">
        <ele>457.3</ele>
        <time>2022-10-01T07:19:23Z</time>
      </trkpt>
      <trkpt lat="47.08343" lon="7.20594">
        <ele>457.3</ele>
        <time>2022-10-01T07:19:24Z</time>
      </trkpt>
      <trkpt lat="47.08346" lon="7.20596">
        <ele>457.3</ele>
        <time>2022-10-01T07:19:25Z</time>
      </trkpt>
      <trkpt lat="47.08348" lon="7.20599">
        <ele>457.3</ele>
        <time>2022-10-01T07:19:26Z</time>
      </trkpt>
      <trkpt lat="47.0835" lon="7.20602">
        <ele>457.3</ele>
        <time>2022-10-01T07:19:27Z</time>
      </trkpt>
      <trkpt lat="47.08354" lon="7.20606">
        <ele>457.2</ele>
        <time>2022-10-01T07:19:28Z</time>
      </trkpt>
      <trkpt lat="47.08357" lon="7.20609">
        <ele>457.2</ele>
        <time>2022-10-01T07:19:29Z</time>
      </trkpt>
      <trkpt lat="47.08359" lon="7.20612">
        <ele>457.2</ele>
        <time>2022-10-01T07:19:30Z</time>
      </trkpt>
      <trkpt lat="47.08362" lon="7.20615">
        <ele>457.2</ele>
        <time>2022-10-01T07:19:31Z</time>
      </trkpt>
      <trkpt lat="47.08365" lon="7.20618">
        <ele>457.1</ele>
        <time>2022-10-01T07:19:32Z</time>
      </trkpt>
      <trkpt lat="47.08368" lon="7.20622">
        <ele>457.1</ele>
        <time>2022-10-01T07:19:33Z</time>
      </trkpt>
      <trkpt lat="47.08371" lon="7.20625">
        <ele>457.1</ele>
        <time>2022-10-01T07:19:34Z</time>
      </trkpt>
      <trkpt lat="47.08374" lon="7.20628">
        <ele>457</ele>
        <time>2022-10-01T07:19:35Z</time>
      </trkpt>
      <trkpt lat="47.08377" lon="7.20632">
        <ele>457</ele>
        <time>2022-10-01T07:19:36Z</time>
      </trkpt>
      <trkpt lat="47.08379" lon="7.20636">
        <ele>456.9</ele>
        <time>2022-10-01T07:19:37Z</time>
      </trkpt>
      <trkpt lat="47.08382" lon="7.2064">
        <ele>456.9</ele>
        <time>2022-10-01T07:19:38Z</time>
      </trkpt>
      <trkpt lat="47.08385" lon="7.20643">
        <ele>456.8</ele>
        <time>2022-10-01T07:19:39Z</time>
      </trkpt>
      <trkpt lat="47.08388" lon="7.20647">
        <ele>456.7</ele>
        <time>2022-10-01T07:19:40Z</time>
      </trkpt>
      <trkpt lat="47.08391" lon="7.2065">
        <ele>456.6</ele>
        <time>2022-10-01T07:19:41Z</time>
      </trkpt>
      <trkpt lat="47.08394" lon="7.20654">
        <ele>456.4</ele>
        <time>2022-10-01T07:19:42Z</time>
      </trkpt>
      <trkpt lat="47.08397" lon="7.20658">
        <ele>456.3</ele>
        <time>2022-10-01T07:19:43Z</time>
      </trkpt>
      <trkpt lat="47.08401" lon="7.20662">
        <ele>456.1</ele>
        <time>2022-10-01T07:19:44Z</time>
      </trkpt>
      <trkpt lat="47.08404" lon="7.20667">
        <ele>455.9</ele>
        <time>2022-10-01T07:19:45Z</time>
      </trkpt>
      <trkpt lat="47.08408" lon="7.20671">
        <ele>455.7</ele>
        <time>2022-10-01T07:19:46Z</time>
      </trkpt>
      <trkpt lat="47.08412" lon="7.20676">
        <ele>455.5</ele>
        <time>2022-10-01T07:19:47Z</time>
      </trkpt>
      <trkpt lat="47.08416" lon="7.20681">
        <ele>455.2</ele>
        <time>2022-10-01T07:19:48Z</time>
      </trkpt>
      <trkpt lat="47.08421" lon="7.20688">
        <ele>454.9</ele>
        <time>2022-10-01T07:19:49Z</time>
      </trkpt>
      <trkpt lat="47.08426" lon="7.20694">
        <ele>454.7</ele>
        <time>2022-10-01T07:19:50Z</time>
      </trkpt>
      <trkpt lat="47.0843" lon="7.20699">
        <ele>454.5</ele>
        <time>2022-10-01T07:19:51Z</time>
      </trkpt>
      <trkpt lat="47.08433" lon="7.20705">
        <ele>454.4</ele>
        <time>2022-10-01T07:19:52Z</time>
      </trkpt>
      <trkpt lat="47.08437" lon="7.20711">
        <ele>454.3</ele>
        <time>2022-10-01T07:19:53Z</time>
      </trkpt>
      <trkpt lat="47.08444" lon="7.20723">
        <ele>454.3</ele>
        <time>2022-10-01T07:19:54Z</time>
      </trkpt>
      <trkpt lat="47.08447" lon="7.20731">
        <ele>454.4</ele>
        <time>2022-10-01T07:19:55Z</time>
      </trkpt>
      <trkpt lat="47.08449" lon="7.20739">
        <ele>454.5</ele>
        <time>2022-10-01T07:19:56Z</time>
      </trkpt>
      <trkpt lat="47.0845" lon="7.20746">
        <ele>454.6</ele>
        <time>2022-10-01T07:19:57Z</time>
      </trkpt>
      <trkpt lat="47.08452" lon="7.20753">
        <ele>454.7</ele>
        <time>2022-10-01T07:19:58Z</time>
      </trkpt>
      <trkpt lat="47.08454" lon="7.20757">
        <ele>454.9</ele>
        <time>2022-10-01T07:19:59Z</time>
      </trkpt>
      <trkpt lat="47.08456" lon="7.2076">
        <ele>454.9</ele>
        <time>2022-10-01T07:20:00Z</time>
      </trkpt>
      <trkpt lat="47.08458" lon="7.20766">
        <ele>455.1</ele>
        <time>2022-10-01T07:20:01Z</time>
      </trkpt>
      <trkpt lat="47.08459" lon="7.20772">
        <ele>455.3</ele>
        <time>2022-10-01T07:20:02Z</time>
      </trkpt>
      <trkpt lat="47.08461" lon="7.20777">
        <ele>455.6</ele>
        <time>2022-10-01T07:20:03Z</time>
      </trkpt>
      <trkpt lat="47.08461" lon="7.20778">
        <ele>455.6</ele>
        <time>2022-10-01T07:20:04Z</time>
      </trkpt>
      <trkpt lat="47.08463" lon="7.20783">
        <ele>455.9</ele>
        <time>2022-10-01T07:20:05Z</time>
      </trkpt>
      <trkpt lat="47.08464" lon="7.20785">
        <ele>455.9</ele>
        <time>2022-10-01T07:20:06Z</time>
      </trkpt>
      <trkpt lat="47.08466" lon="7.20789">
        <ele>456.1</ele>
        <time>2022-10-01T07:20:07Z</time>
      </trkpt>
      <trkpt lat="47.08466" lon="7.20791">
        <ele>456.2</ele>
        <time>2022-10-01T07:20:08Z</time>
      </trkpt>
      <trkpt lat="47.08469" lon="7.20795">
        <ele>456.5</ele>
        <time>2022-10-01T07:20:09Z</time>
      </trkpt>
      <trkpt lat="47.08469" lon="7.20797">
        <ele>456.5</ele>
        <time>2022-10-01T07:20:10Z</time>
      </trkpt>
      <trkpt lat="47.0847" lon="7.20799">
        <ele>456.7</ele>
        <time>2022-10-01T07:20:11Z</time>
      </trkpt>
      <trkpt lat="47.08471" lon="7.20801">
        <ele>456.7</ele>
        <time>2022-10-01T07:20:12Z</time>
      </trkpt>
      <trkpt lat="47.08474" lon="7.20804">
        <ele>456.7</ele>
        <time>2022-10-01T07:20:13Z</time>
      </trkpt>
      <trkpt lat="47.08475" lon="7.20805">
        <ele>456.7</ele>
        <time>2022-10-01T07:20:14Z</time>
      </trkpt>
      <trkpt lat="47.08478" lon="7.20808">
        <ele>456.6</ele>
        <time>2022-10-01T07:20:15Z</time>
      </trkpt>
      <trkpt lat="47.08479" lon="7.20809">
        <ele>456.6</ele>
        <time>2022-10-01T07:20:16Z</time>
      </trkpt>
      <trkpt lat="47.08482" lon="7.20812">
        <ele>456.6</ele>
        <time>2022-10-01T07:20:17Z</time>
      </trkpt>
      <trkpt lat="47.08485" lon="7.20815">
        <ele>456.5</ele>
        <time>2022-10-01T07:20:18Z</time>
      </trkpt>
      <trkpt lat="47.08488" lon="7.20818">
        <ele>456.5</ele>
        <time>2022-10-01T07:20:19Z</time>
      </trkpt>
      <trkpt lat="47.08492" lon="7.20822">
        <ele>456.4</ele>
        <time>2022-10-01T07:20:20Z</time>
      </trkpt>
      <trkpt lat="47.08496" lon="7.20826">
        <ele>456.4</ele>
        <time>2022-10-01T07:20:21Z</time>
      </trkpt>
      <trkpt lat="47.085" lon="7.20831">
        <ele>456.3</ele>
        <time>2022-10-01T07:20:22Z</time>
      </trkpt>
      <trkpt lat="47.08504" lon="7.20834">
        <ele>456.3</ele>
        <time>2022-10-01T07:20:23Z</time>
      </trkpt>
      <trkpt lat="47.0851" lon="7.20838">
        <ele>456.3</ele>
        <time>2022-10-01T07:20:24Z</time>
      </trkpt>
      <trkpt lat="47.08515" lon="7.20842">
        <ele>456.3</ele>
        <time>2022-10-01T07:20:25Z</time>
      </trkpt>
      <trkpt lat="47.08519" lon="7.20845">
        <ele>456.3</ele>
        <time>2022-10-01T07:20:26Z</time>
      </trkpt>
      <trkpt lat="47.08523" lon="7.20849">
        <ele>456.3</ele>
        <time>2022-10-01T07:20:27Z</time>
      </trkpt>
      <trkpt lat="47.08529" lon="7.20853">
        <ele>456.3</ele>
        <time>2022-10-01T07:20:28Z</time>
      </trkpt>
      <trkpt lat="47.08534" lon="7.20857">
        <ele>456.3</ele>
        <time>2022-10-01T07:20:29Z</time>
      </trkpt>
      <trkpt lat="47.08538" lon="7.20861">
        <ele>456.3</ele>
        <time>2022-10-01T07:20:30Z</time>
      </trkpt>
      <trkpt lat="47.08543" lon="7.20866">
        <ele>456.3</ele>
        <time>2022-10-01T07:20:31Z</time>
      </trkpt>
      <trkpt lat="47.08546" lon="7.2087">
        <ele>456.3</ele>
        <time>2022-10-01T07:20:32Z</time>
      </trkpt>
      <trkpt lat="47.08549" lon="7.20876">
        <ele>456.3</ele>
        <time>2022-10-01T07:20:33Z</time>
      </trkpt>
      <trkpt lat="47.08553" lon="7.20881">
        <ele>456.4</ele>
        <time>2022-10-01T07:20:34Z</time>
      </trkpt>
      <trkpt lat="47.08557" lon="7.20885">
        <ele>456.4</ele>
        <time>2022-10-01T07:20:35Z</time>
      </trkpt>
      <trkpt lat="47.0856" lon="7.20891">
        <ele>456.4</ele>
        <time>2022-10-01T07:20:36Z</time>
      </trkpt>
      <trkpt lat="47.08564" lon="7.20896">
        <ele>456.5</ele>
        <time>2022-10-01T07:20:37Z</time>
      </trkpt>
      <trkpt lat="47.08567" lon="7.20901">
        <ele>456.6</ele>
        <time>2022-10-01T07:20:38Z</time>
      </trkpt>
      <trkpt lat="47.08572" lon="7.20906">
        <ele>456.6</ele>
        <time>2022-10-01T07:20:39Z</time>
      </trkpt>
      <trkpt lat="47.08575" lon="7.20912">
        <ele>456.7</ele>
        <time>2022-10-01T07:20:40Z</time>
      </trkpt>
      <trkpt lat="47.08577" lon="7.20917">
        <ele>456.8</ele>
        <time>2022-10-01T07:20:41Z</time>
      </trkpt>
      <trkpt lat="47.0858" lon="7.20923">
        <ele>457</ele>
        <time>2022-10-01T07:20:42Z</time>
      </trkpt>
      <trkpt lat="47.08582" lon="7.2093">
        <ele>457.2</ele>
        <time>2022-10-01T07:20:43Z</time>
      </trkpt>
      <trkpt lat="47.08584" lon="7.20934">
        <ele>457.3</ele>
        <time>2022-10-01T07:20:44Z</time>
      </trkpt>
      <trkpt lat="47.08587" lon="7.20939">
        <ele>457.5</ele>
        <time>2022-10-01T07:20:45Z</time>
      </trkpt>
      <trkpt lat="47.0859" lon="7.20943">
        <ele>457.6</ele>
        <time>2022-10-01T07:20:46Z</time>
      </trkpt>
      <trkpt lat="47.08592" lon="7.20948">
        <ele>457.8</ele>
        <time>2022-10-01T07:20:47Z</time>
      </trkpt>
      <trkpt lat="47.08595" lon="7.20949">
        <ele>457.9</ele>
        <time>2022-10-01T07:20:48Z</time>
      </trkpt>
      <trkpt lat="47.08598" lon="7.20952">
        <ele>458.1</ele>
        <time>2022-10-01T07:20:49Z</time>
      </trkpt>
      <trkpt lat="47.08601" lon="7.20954">
        <ele>458.2</ele>
        <time>2022-10-01T07:20:50Z</time>
      </trkpt>
      <trkpt lat="47.08604" lon="7.20956">
        <ele>458.4</ele>
        <time>2022-10-01T07:20:51Z</time>
      </trkpt>
      <trkpt lat="47.08607" lon="7.20961">
        <ele>458.6</ele>
        <time>2022-10-01T07:20:52Z</time>
      </trkpt>
      <trkpt lat="47.08609" lon="7.20963">
        <ele>458.7</ele>
        <time>2022-10-01T07:20:53Z</time>
      </trkpt>
      <trkpt lat="47.08611" lon="7.20965">
        <ele>458.8</ele>
        <time>2022-10-01T07:20:54Z</time>
      </trkpt>
      <trkpt lat="47.08614" lon="7.2097">
        <ele>458.9</ele>
        <time>2022-10-01T07:20:55Z</time>
      </trkpt>
      <trkpt lat="47.08616" lon="7.20972">
        <ele>459</ele>
        <time>2022-10-01T07:20:56Z</time>
      </trkpt>
      <trkpt lat="47.08619" lon="7.20974">
        <ele>459.1</ele>
        <time>2022-10-01T07:20:57Z</time>
      </trkpt>
      <trkpt lat="47.08622" lon="7.20977">
        <ele>459.2</ele>
        <time>2022-10-01T07:20:58Z</time>
      </trkpt>
      <trkpt lat="47.08625" lon="7.2098">
        <ele>459.3</ele>
        <time>2022-10-01T07:20:59Z</time>
      </trkpt>
      <trkpt lat="47.08628" lon="7.20983">
        <ele>459.4</ele>
        <time>2022-10-01T07:21:00Z</time>
      </trkpt>
      <trkpt lat="47.08631" lon="7.20987">
        <ele>459.4</ele>
        <time>2022-10-01T07:21:01Z</time>
      </trkpt>
      <trkpt lat="47.08635" lon="7.20989">
        <ele>459.5</ele>
        <time>2022-10-01T07:21:02Z</time>
      </trkpt>
      <trkpt lat="47.08639" lon="7.20994">
        <ele>459.6</ele>
        <time>2022-10-01T07:21:03Z</time>
      </trkpt>
      <trkpt lat="47.08641" lon="7.20998">
        <ele>459.7</ele>
        <time>2022-10-01T07:21:04Z</time>
      </trkpt>
      <trkpt lat="47.08645" lon="7.21002">
        <ele>459.7</ele>
        <time>2022-10-01T07:21:05Z</time>
      </trkpt>
      <trkpt lat="47.08648" lon="7.21005">
        <ele>459.8</ele>
        <time>2022-10-01T07:21:06Z</time>
      </trkpt>
      <trkpt lat="47.08652" lon="7.2101">
        <ele>459.8</ele>
        <time>2022-10-01T07:21:07Z</time>
      </trkpt>
      <trkpt lat="47.08655" lon="7.21014">
        <ele>459.9</ele>
        <time>2022-10-01T07:21:08Z</time>
      </trkpt>
      <trkpt lat="47.08658" lon="7.21018">
        <ele>460</ele>
        <time>2022-10-01T07:21:09Z</time>
      </trkpt>
      <trkpt lat="47.08662" lon="7.21022">
        <ele>460</ele>
        <time>2022-10-01T07:21:10Z</time>
      </trkpt>
      <trkpt lat="47.08665" lon="7.21027">
        <ele>460.1</ele>
        <time>2022-10-01T07:21:11Z</time>
      </trkpt>
      <trkpt lat="47.08668" lon="7.21032">
        <ele>460.2</ele>
        <time>2022-10-01T07:21:12Z</time>
      </trkpt>
      <trkpt lat="47.08672" lon="7.21037">
        <ele>460.2</ele>
        <time>2022-10-01T07:21:13Z</time>
      </trkpt>
      <trkpt lat="47.08675" lon="7.21042">
        <ele>460.3</ele>
        <time>2022-10-01T07:21:14Z</time>
      </trkpt>
      <trkpt lat="47.08678" lon="7.21047">
        <ele>460.3</ele>
        <time>2022-10-01T07:21:16Z</time>
      </trkpt>
      <trkpt lat="47.08682" lon="7.21053">
        <ele>460.3</ele>
        <time>2022-10-01T07:21:17Z</time>
      </trkpt>
      <trkpt lat="47.08685" lon="7.21058">
        <ele>460.4</ele>
        <time>2022-10-01T07:21:18Z</time>
      </trkpt>
      <trkpt lat="47.08688" lon="7.21064">
        <ele>460.4</ele>
        <time>2022-10-01T07:21:19Z</time>
      </trkpt>
      <trkpt lat="47.08691" lon="7.21069">
        <ele>460.4</ele>
        <time>2022-10-01T07:21:20Z</time>
      </trkpt>
      <trkpt lat="47.08695" lon="7.21075">
        <ele>460.5</ele>
        <time>2022-10-01T07:21:21Z</time>
      </trkpt>
      <trkpt lat="47.08698" lon="7.2108">
        <ele>460.5</ele>
        <time>2022-10-01T07:21:22Z</time>
      </trkpt>
      <trkpt lat="47.08701" lon="7.21086">
        <ele>460.5</ele>
        <time>2022-10-01T07:21:23Z</time>
      </trkpt>
      <trkpt lat="47.08704" lon="7.21092">
        <ele>460.5</ele>
        <time>2022-10-01T07:21:24Z</time>
      </trkpt>
      <trkpt lat="47.08708" lon="7.21097">
        <ele>460.5</ele>
        <time>2022-10-01T07:21:25Z</time>
      </trkpt>
      <trkpt lat="47.08711" lon="7.21102">
        <ele>460.5</ele>
        <time>2022-10-01T07:21:26Z</time>
      </trkpt>
      <trkpt lat="47.08715" lon="7.21107">
        <ele>460.5</ele>
        <time>2022-10-01T07:21:27Z</time>
      </trkpt>
      <trkpt lat="47.08719" lon="7.21112">
        <ele>460.5</ele>
        <time>2022-10-01T07:21:28Z</time>
      </trkpt>
      <trkpt lat="47.08722" lon="7.21118">
        <ele>460.5</ele>
        <time>2022-10-01T07:21:29Z</time>
      </trkpt>
      <trkpt lat="47.08725" lon="7.21123">
        <ele>460.5</ele>
        <time>2022-10-01T07:21:30Z</time>
      </trkpt>
      <trkpt lat="47.08728" lon="7.21128">
        <ele>460.5</ele>
        <time>2022-10-01T07:21:31Z</time>
      </trkpt>
      <trkpt lat="47.08731" lon="7.21133">
        <ele>460.5</ele>
        <time>2022-10-01T07:21:32Z</time>
      </trkpt>
      <trkpt lat="47.08734" lon="7.2114">
        <ele>460.5</ele>
        <time>2022-10-01T07:21:33Z</time>
      </trkpt>
      <trkpt lat="47.08737" lon="7.21143">
        <ele>460.5</ele>
        <time>2022-10-01T07:21:34Z</time>
      </trkpt>
      <trkpt lat="47.08741" lon="7.21149">
        <ele>460.5</ele>
        <time>2022-10-01T07:21:35Z</time>
      </trkpt>
      <trkpt lat="47.08743" lon="7.21155">
        <ele>460.5</ele>
        <time>2022-10-01T07:21:36Z</time>
      </trkpt>
      <trkpt lat="47.08747" lon="7.2116">
        <ele>460.5</ele>
        <time>2022-10-01T07:21:37Z</time>
      </trkpt>
      <trkpt lat="47.08751" lon="7.21165">
        <ele>460.5</ele>
        <time>2022-10-01T07:21:38Z</time>
      </trkpt>
      <trkpt lat="47.08754" lon="7.2117">
        <ele>460.5</ele>
        <time>2022-10-01T07:21:39Z</time>
      </trkpt>
      <trkpt lat="47.08758" lon="7.21175">
        <ele>460.5</ele>
        <time>2022-10-01T07:21:40Z</time>
      </trkpt>
      <trkpt lat="47.08761" lon="7.2118">
        <ele>460.5</ele>
        <time>2022-10-01T07:21:41Z</time>
      </trkpt>
      <trkpt lat="47.08764" lon="7.21186">
        <ele>460.6</ele>
        <time>2022-10-01T07:21:42Z</time>
      </trkpt>
      <trkpt lat="47.08767" lon="7.2119">
        <ele>460.6</ele>
        <time>2022-10-01T07:21:43Z</time>
      </trkpt>
      <trkpt lat="47.0877" lon="7.21195">
        <ele>460.6</ele>
        <time>2022-10-01T07:21:44Z</time>
      </trkpt>
      <trkpt lat="47.08774" lon="7.212">
        <ele>460.6</ele>
        <time>2022-10-01T07:21:45Z</time>
      </trkpt>
      <trkpt lat="47.08778" lon="7.21204">
        <ele>460.6</ele>
        <time>2022-10-01T07:21:46Z</time>
      </trkpt>
      <trkpt lat="47.0878" lon="7.21211">
        <ele>460.6</ele>
        <time>2022-10-01T07:21:47Z</time>
      </trkpt>
      <trkpt lat="47.08783" lon="7.21215">
        <ele>460.6</ele>
        <time>2022-10-01T07:21:48Z</time>
      </trkpt>
      <trkpt lat="47.08786" lon="7.2122">
        <ele>460.6</ele>
        <time>2022-10-01T07:21:49Z</time>
      </trkpt>
      <trkpt lat="47.08789" lon="7.21226">
        <ele>460.6</ele>
        <time>2022-10-01T07:21:50Z</time>
      </trkpt>
      <trkpt lat="47.08791" lon="7.21232">
        <ele>460.6</ele>
        <time>2022-10-01T07:21:51Z</time>
      </trkpt>
      <trkpt lat="47.08794" lon="7.21237">
        <ele>460.6</ele>
        <time>2022-10-01T07:21:52Z</time>
      </trkpt>
      <trkpt lat="47.08797" lon="7.21242">
        <ele>460.6</ele>
        <time>2022-10-01T07:21:53Z</time>
      </trkpt>
      <trkpt lat="47.088" lon="7.21248">
        <ele>460.6</ele>
        <time>2022-10-01T07:21:54Z</time>
      </trkpt>
      <trkpt lat="47.08803" lon="7.21253">
        <ele>460.6</ele>
        <time>2022-10-01T07:21:55Z</time>
      </trkpt>
      <trkpt lat="47.08805" lon="7.21259">
        <ele>460.7</ele>
        <time>2022-10-01T07:21:56Z</time>
      </trkpt>
      <trkpt lat="47.08807" lon="7.21264">
        <ele>460.7</ele>
        <time>2022-10-01T07:21:57Z</time>
      </trkpt>
      <trkpt lat="47.08809" lon="7.2127">
        <ele>460.7</ele>
        <time>2022-10-01T07:21:58Z</time>
      </trkpt>
      <trkpt lat="47.08811" lon="7.21277">
        <ele>460.7</ele>
        <time>2022-10-01T07:21:59Z</time>
      </trkpt>
      <trkpt lat="47.08815" lon="7.21288">
        <ele>460.7</ele>
        <time>2022-10-01T07:22:00Z</time>
      </trkpt>
      <trkpt lat="47.08818" lon="7.21293">
        <ele>460.6</ele>
        <time>2022-10-01T07:22:01Z</time>
      </trkpt>
      <trkpt lat="47.0882" lon="7.21298">
        <ele>460.6</ele>
        <time>2022-10-01T07:22:02Z</time>
      </trkpt>
      <trkpt lat="47.08823" lon="7.21304">
        <ele>460.6</ele>
        <time>2022-10-01T07:22:03Z</time>
      </trkpt>
      <trkpt lat="47.08825" lon="7.2131">
        <ele>460.6</ele>
        <time>2022-10-01T07:22:04Z</time>
      </trkpt>
      <trkpt lat="47.08827" lon="7.21315">
        <ele>460.6</ele>
        <time>2022-10-01T07:22:05Z</time>
      </trkpt>
      <trkpt lat="47.0883" lon="7.21321">
        <ele>460.6</ele>
        <time>2022-10-01T07:22:06Z</time>
      </trkpt>
      <trkpt lat="47.08831" lon="7.21325">
        <ele>460.6</ele>
        <time>2022-10-01T07:22:07Z</time>
      </trkpt>
      <trkpt lat="47.08833" lon="7.2133">
        <ele>460.6</ele>
        <time>2022-10-01T07:22:08Z</time>
      </trkpt>
      <trkpt lat="47.08834" lon="7.21334">
        <ele>460.6</ele>
        <time>2022-10-01T07:22:09Z</time>
      </trkpt>
      <trkpt lat="47.08837" lon="7.21339">
        <ele>460.6</ele>
        <time>2022-10-01T07:22:10Z</time>
      </trkpt>
      <trkpt lat="47.08838" lon="7.21343">
        <ele>460.6</ele>
        <time>2022-10-01T07:22:11Z</time>
      </trkpt>
      <trkpt lat="47.08841" lon="7.21347">
        <ele>460.6</ele>
        <time>2022-10-01T07:22:12Z</time>
      </trkpt>
      <trkpt lat="47.08843" lon="7.21352">
        <ele>460.6</ele>
        <time>2022-10-01T07:22:13Z</time>
      </trkpt>
      <trkpt lat="47.08845" lon="7.21357">
        <ele>460.6</ele>
        <time>2022-10-01T07:22:14Z</time>
      </trkpt>
      <trkpt lat="47.08848" lon="7.21362">
        <ele>460.6</ele>
        <time>2022-10-01T07:22:15Z</time>
      </trkpt>
      <trkpt lat="47.08849" lon="7.21366">
        <ele>460.6</ele>
        <time>2022-10-01T07:22:16Z</time>
      </trkpt>
      <trkpt lat="47.08851" lon="7.2137">
        <ele>460.6</ele>
        <time>2022-10-01T07:22:17Z</time>
      </trkpt>
      <trkpt lat="47.08853" lon="7.21373">
        <ele>460.6</ele>
        <time>2022-10-01T07:22:18Z</time>
      </trkpt>
      <trkpt lat="47.08855" lon="7.21376">
        <ele>460.6</ele>
        <time>2022-10-01T07:22:19Z</time>
      </trkpt>
      <trkpt lat="47.08856" lon="7.21379">
        <ele>460.6</ele>
        <time>2022-10-01T07:22:20Z</time>
      </trkpt>
      <trkpt lat="47.08856" lon="7.21381">
        <ele>460.6</ele>
        <time>2022-10-01T07:22:21Z</time>
      </trkpt>
      <trkpt lat="47.08856" lon="7.21383">
        <ele>460.6</ele>
        <time>2022-10-01T07:22:22Z</time>
      </trkpt>
      <trkpt lat="47.08856" lon="7.21383">
        <ele>460.6</ele>
        <time>2022-10-01T07:22:23Z</time>
      </trkpt>
      <trkpt lat="47.08856" lon="7.21383">
        <ele>460.6</ele>
        <time>2022-10-01T07:22:24Z</time>
      </trkpt>
      <trkpt lat="47.08856" lon="7.21383">
        <ele>460.6</ele>
        <time>2022-10-01T07:22:25Z</time>
      </trkpt>
      <trkpt lat="47.08856" lon="7.21383">
        <ele>460.6</ele>
        <time>2022-10-01T07:22:26Z</time>
      </trkpt>
      <trkpt lat="47.08856" lon="7.21383">
        <ele>460.6</ele>
        <time>2022-10-01T07:22:27Z</time>
      </trkpt>
      <trkpt lat="47.08856" lon="7.21383">
        <ele>460.6</ele>
        <time>2022-10-01T07:22:28Z</time>
      </trkpt>
      <trkpt lat="47.08856" lon="7.21383">
        <ele>460.6</ele>
        <time>2022-10-01T07:22:29Z</time>
      </trkpt>
      <trkpt lat="47.08856" lon="7.21384">
        <ele>460.6</ele>
        <time>2022-10-01T07:22:30Z</time>
      </trkpt>
      <trkpt lat="47.08856" lon="7.21384">
        <ele>460.6</ele>
        <time>2022-10-01T07:22:31Z</time>
      </trkpt>
      <trkpt lat="47.08856" lon="7.21384">
        <ele>460.6</ele>
        <time>2022-10-01T07:22:32Z</time>
      </trkpt>
      <trkpt lat="47.08857" lon="7.21385">
        <ele>460.6</ele>
        <time>2022-10-01T07:22:42Z</time>
      </trkpt>
      <trkpt lat="47.08857" lon="7.21385">
        <ele>460.6</ele>
        <time>2022-10-01T07:22:43Z</time>
      </trkpt>
      <trkpt lat="47.08857" lon="7.21385">
        <ele>460.6</ele>
        <time>2022-10-01T07:22:44Z</time>
      </trkpt>
      <trkpt lat="47.08857" lon="7.21384">
        <ele>460.6</ele>
        <time>2022-10-01T07:22:45Z</time>
      </trkpt>
      <trkpt lat="47.08857" lon="7.21385">
        <ele>460.6</ele>
        <time>2022-10-01T07:22:46Z</time>
      </trkpt>
      <trkpt lat="47.08857" lon="7.21385">
        <ele>460.6</ele>
        <time>2022-10-01T07:22:47Z</time>
      </trkpt>
      <trkpt lat="47.08857" lon="7.21385">
        <ele>460.6</ele>
        <time>2022-10-01T07:22:48Z</time>
      </trkpt>
      <trkpt lat="47.08857" lon="7.21385">
        <ele>460.6</ele>
        <time>2022-10-01T07:22:49Z</time>
      </trkpt>
      <trkpt lat="47.08857" lon="7.21385">
        <ele>460.6</ele>
        <time>2022-10-01T07:22:50Z</time>
      </trkpt>
      <trkpt lat="47.08856" lon="7.21385">
        <ele>460.6</ele>
        <time>2022-10-01T07:22:51Z</time>
      </trkpt>
      <trkpt lat="47.08865" lon="7.21388">
        <ele>460.4</ele>
        <time>2022-10-01T07:23:00Z</time>
      </trkpt>
      <trkpt lat="47.08869" lon="7.21387">
        <ele>460.3</ele>
        <time>2022-10-01T07:23:01Z</time>
      </trkpt>
      <trkpt lat="47.08873" lon="7.21384">
        <ele>460.1</ele>
        <time>2022-10-01T07:23:02Z</time>
      </trkpt>
      <trkpt lat="47.08877" lon="7.21384">
        <ele>460</ele>
        <time>2022-10-01T07:23:03Z</time>
      </trkpt>
      <trkpt lat="47.08882" lon="7.21381">
        <ele>459.8</ele>
        <time>2022-10-01T07:23:04Z</time>
      </trkpt>
      <trkpt lat="47.08886" lon="7.21379">
        <ele>459.6</ele>
        <time>2022-10-01T07:23:05Z</time>
      </trkpt>
      <trkpt lat="47.08891" lon="7.21376">
        <ele>459.5</ele>
        <time>2022-10-01T07:23:06Z</time>
      </trkpt>
      <trkpt lat="47.08897" lon="7.21373">
        <ele>459.3</ele>
        <time>2022-10-01T07:23:07Z</time>
      </trkpt>
      <trkpt lat="47.08903" lon="7.2137">
        <ele>459.1</ele>
        <time>2022-10-01T07:23:08Z</time>
      </trkpt>
      <trkpt lat="47.08909" lon="7.21367">
        <ele>459</ele>
        <time>2022-10-01T07:23:09Z</time>
      </trkpt>
      <trkpt lat="47.08914" lon="7.21364">
        <ele>458.8</ele>
        <time>2022-10-01T07:23:10Z</time>
      </trkpt>
      <trkpt lat="47.0892" lon="7.21362">
        <ele>458.7</ele>
        <time>2022-10-01T07:23:11Z</time>
      </trkpt>
      <trkpt lat="47.08926" lon="7.21358">
        <ele>458.5</ele>
        <time>2022-10-01T07:23:12Z</time>
      </trkpt>
      <trkpt lat="47.08932" lon="7.21355">
        <ele>458.4</ele>
        <time>2022-10-01T07:23:13Z</time>
      </trkpt>
      <trkpt lat="47.08939" lon="7.21352">
        <ele>458.2</ele>
        <time>2022-10-01T07:23:14Z</time>
      </trkpt>
      <trkpt lat="47.08944" lon="7.2135">
        <ele>458.1</ele>
        <time>2022-10-01T07:23:16Z</time>
      </trkpt>
      <trkpt lat="47.0895" lon="7.21347">
        <ele>458</ele>
        <time>2022-10-01T07:23:17Z</time>
      </trkpt>
      <trkpt lat="47.08956" lon="7.21344">
        <ele>457.9</ele>
        <time>2022-10-01T07:23:18Z</time>
      </trkpt>
      <trkpt lat="47.08962" lon="7.21341">
        <ele>457.8</ele>
        <time>2022-10-01T07:23:19Z</time>
      </trkpt>
      <trkpt lat="47.08968" lon="7.21338">
        <ele>457.7</ele>
        <time>2022-10-01T07:23:20Z</time>
      </trkpt>
      <trkpt lat="47.08974" lon="7.21335">
        <ele>457.6</ele>
        <time>2022-10-01T07:23:21Z</time>
      </trkpt>
      <trkpt lat="47.0898" lon="7.21332">
        <ele>457.5</ele>
        <time>2022-10-01T07:23:22Z</time>
      </trkpt>
      <trkpt lat="47.08985" lon="7.21329">
        <ele>457.4</ele>
        <time>2022-10-01T07:23:23Z</time>
      </trkpt>
      <trkpt lat="47.08991" lon="7.21327">
        <ele>457.3</ele>
        <time>2022-10-01T07:23:24Z</time>
      </trkpt>
      <trkpt lat="47.08997" lon="7.21324">
        <ele>457.1</ele>
        <time>2022-10-01T07:23:25Z</time>
      </trkpt>
      <trkpt lat="47.09002" lon="7.21321">
        <ele>457</ele>
        <time>2022-10-01T07:23:26Z</time>
      </trkpt>
      <trkpt lat="47.09008" lon="7.21319">
        <ele>456.9</ele>
        <time>2022-10-01T07:23:27Z</time>
      </trkpt>
      <trkpt lat="47.09014" lon="7.21316">
        <ele>456.8</ele>
        <time>2022-10-01T07:23:28Z</time>
      </trkpt>
      <trkpt lat="47.0902" lon="7.21313">
        <ele>456.6</ele>
        <time>2022-10-01T07:23:29Z</time>
      </trkpt>
      <trkpt lat="47.09026" lon="7.2131">
        <ele>456.4</ele>
        <time>2022-10-01T07:23:30Z</time>
      </trkpt>
      <trkpt lat="47.09032" lon="7.21307">
        <ele>456.3</ele>
        <time>2022-10-01T07:23:31Z</time>
      </trkpt>
      <trkpt lat="47.09038" lon="7.21304">
        <ele>456.1</ele>
        <time>2022-10-01T07:23:32Z</time>
      </trkpt>
      <trkpt lat="47.09044" lon="7.21301">
        <ele>455.9</ele>
        <time>2022-10-01T07:23:33Z</time>
      </trkpt>
      <trkpt lat="47.0905" lon="7.21298">
        <ele>455.7</ele>
        <time>2022-10-01T07:23:34Z</time>
      </trkpt>
      <trkpt lat="47.09056" lon="7.21295">
        <ele>455.6</ele>
        <time>2022-10-01T07:23:35Z</time>
      </trkpt>
      <trkpt lat="47.09062" lon="7.21292">
        <ele>455.4</ele>
        <time>2022-10-01T07:23:36Z</time>
      </trkpt>
      <trkpt lat="47.09068" lon="7.21289">
        <ele>455.2</ele>
        <time>2022-10-01T07:23:37Z</time>
      </trkpt>
      <trkpt lat="47.09074" lon="7.21286">
        <ele>455.1</ele>
        <time>2022-10-01T07:23:38Z</time>
      </trkpt>
      <trkpt lat="47.0908" lon="7.21283">
        <ele>454.9</ele>
        <time>2022-10-01T07:23:39Z</time>
      </trkpt>
      <trkpt lat="47.09085" lon="7.2128">
        <ele>454.8</ele>
        <time>2022-10-01T07:23:40Z</time>
      </trkpt>
      <trkpt lat="47.09091" lon="7.21277">
        <ele>454.6</ele>
        <time>2022-10-01T07:23:41Z</time>
      </trkpt>
      <trkpt lat="47.09097" lon="7.21274">
        <ele>454.5</ele>
        <time>2022-10-01T07:23:42Z</time>
      </trkpt>
      <trkpt lat="47.09102" lon="7.21272">
        <ele>454.4</ele>
        <time>2022-10-01T07:23:43Z</time>
      </trkpt>
      <trkpt lat="47.09108" lon="7.21269">
        <ele>454.3</ele>
        <time>2022-10-01T07:23:44Z</time>
      </trkpt>
      <trkpt lat="47.09114" lon="7.21266">
        <ele>454.2</ele>
        <time>2022-10-01T07:23:45Z</time>
      </trkpt>
      <trkpt lat="47.09119" lon="7.21263">
        <ele>454.1</ele>
        <time>2022-10-01T07:23:46Z</time>
      </trkpt>
      <trkpt lat="47.09124" lon="7.21261">
        <ele>454</ele>
        <time>2022-10-01T07:23:47Z</time>
      </trkpt>
      <trkpt lat="47.0913" lon="7.21257">
        <ele>453.9</ele>
        <time>2022-10-01T07:23:48Z</time>
      </trkpt>
      <trkpt lat="47.09136" lon="7.21255">
        <ele>453.7</ele>
        <time>2022-10-01T07:23:49Z</time>
      </trkpt>
      <trkpt lat="47.09142" lon="7.21252">
        <ele>453.6</ele>
        <time>2022-10-01T07:23:50Z</time>
      </trkpt>
      <trkpt lat="47.09148" lon="7.21248">
        <ele>453.5</ele>
        <time>2022-10-01T07:23:51Z</time>
      </trkpt>
      <trkpt lat="47.09153" lon="7.21246">
        <ele>453.4</ele>
        <time>2022-10-01T07:23:52Z</time>
      </trkpt>
      <trkpt lat="47.09159" lon="7.21243">
        <ele>453.3</ele>
        <time>2022-10-01T07:23:53Z</time>
      </trkpt>
      <trkpt lat="47.09164" lon="7.21241">
        <ele>453.2</ele>
        <time>2022-10-01T07:23:54Z</time>
      </trkpt>
      <trkpt lat="47.0917" lon="7.21238">
        <ele>453.2</ele>
        <time>2022-10-01T07:23:55Z</time>
      </trkpt>
      <trkpt lat="47.09176" lon="7.21235">
        <ele>453.1</ele>
        <time>2022-10-01T07:23:56Z</time>
      </trkpt>
      <trkpt lat="47.09181" lon="7.21232">
        <ele>453</ele>
        <time>2022-10-01T07:23:57Z</time>
      </trkpt>
      <trkpt lat="47.09188" lon="7.2123">
        <ele>452.9</ele>
        <time>2022-10-01T07:23:58Z</time>
      </trkpt>
      <trkpt lat="47.09193" lon="7.21226">
        <ele>452.9</ele>
        <time>2022-10-01T07:23:59Z</time>
      </trkpt>
      <trkpt lat="47.092" lon="7.21224">
        <ele>452.8</ele>
        <time>2022-10-01T07:24:00Z</time>
      </trkpt>
      <trkpt lat="47.09205" lon="7.2122">
        <ele>452.8</ele>
        <time>2022-10-01T07:24:01Z</time>
      </trkpt>
      <trkpt lat="47.09211" lon="7.21218">
        <ele>452.7</ele>
        <time>2022-10-01T07:24:02Z</time>
      </trkpt>
      <trkpt lat="47.09216" lon="7.21215">
        <ele>452.7</ele>
        <time>2022-10-01T07:24:03Z</time>
      </trkpt>
      <trkpt lat="47.09222" lon="7.21212">
        <ele>452.7</ele>
        <time>2022-10-01T07:24:04Z</time>
      </trkpt>
      <trkpt lat="47.09228" lon="7.21209">
        <ele>452.7</ele>
        <time>2022-10-01T07:24:05Z</time>
      </trkpt>
      <trkpt lat="47.09233" lon="7.21207">
        <ele>452.7</ele>
        <time>2022-10-01T07:24:06Z</time>
      </trkpt>
      <trkpt lat="47.09239" lon="7.21204">
        <ele>452.8</ele>
        <time>2022-10-01T07:24:07Z</time>
      </trkpt>
      <trkpt lat="47.09244" lon="7.21202">
        <ele>452.8</ele>
        <time>2022-10-01T07:24:08Z</time>
      </trkpt>
      <trkpt lat="47.09249" lon="7.21198">
        <ele>452.8</ele>
        <time>2022-10-01T07:24:09Z</time>
      </trkpt>
      <trkpt lat="47.09255" lon="7.21196">
        <ele>452.9</ele>
        <time>2022-10-01T07:24:10Z</time>
      </trkpt>
      <trkpt lat="47.0926" lon="7.21193">
        <ele>453</ele>
        <time>2022-10-01T07:24:11Z</time>
      </trkpt>
      <trkpt lat="47.09265" lon="7.21191">
        <ele>453</ele>
        <time>2022-10-01T07:24:12Z</time>
      </trkpt>
      <trkpt lat="47.09269" lon="7.21189">
        <ele>453.1</ele>
        <time>2022-10-01T07:24:13Z</time>
      </trkpt>
      <trkpt lat="47.09275" lon="7.21186">
        <ele>453.2</ele>
        <time>2022-10-01T07:24:14Z</time>
      </trkpt>
      <trkpt lat="47.09279" lon="7.21183">
        <ele>453.2</ele>
        <time>2022-10-01T07:24:15Z</time>
      </trkpt>
      <trkpt lat="47.09284" lon="7.2118">
        <ele>453.3</ele>
        <time>2022-10-01T07:24:16Z</time>
      </trkpt>
      <trkpt lat="47.09288" lon="7.21176">
        <ele>453.4</ele>
        <time>2022-10-01T07:24:17Z</time>
      </trkpt>
      <trkpt lat="47.09292" lon="7.21173">
        <ele>453.5</ele>
        <time>2022-10-01T07:24:18Z</time>
      </trkpt>
      <trkpt lat="47.09296" lon="7.2117">
        <ele>453.6</ele>
        <time>2022-10-01T07:24:19Z</time>
      </trkpt>
      <trkpt lat="47.09304" lon="7.21162">
        <ele>453.7</ele>
        <time>2022-10-01T07:24:20Z</time>
      </trkpt>
      <trkpt lat="47.09308" lon="7.21158">
        <ele>453.8</ele>
        <time>2022-10-01T07:24:21Z</time>
      </trkpt>
      <trkpt lat="47.09311" lon="7.21155">
        <ele>453.9</ele>
        <time>2022-10-01T07:24:22Z</time>
      </trkpt>
      <trkpt lat="47.09315" lon="7.21151">
        <ele>454</ele>
        <time>2022-10-01T07:24:23Z</time>
      </trkpt>
      <trkpt lat="47.09319" lon="7.21147">
        <ele>454</ele>
        <time>2022-10-01T07:24:24Z</time>
      </trkpt>
      <trkpt lat="47.09322" lon="7.21142">
        <ele>454.1</ele>
        <time>2022-10-01T07:24:25Z</time>
      </trkpt>
      <trkpt lat="47.09324" lon="7.21139">
        <ele>454.2</ele>
        <time>2022-10-01T07:24:26Z</time>
      </trkpt>
      <trkpt lat="47.09328" lon="7.21135">
        <ele>454.3</ele>
        <time>2022-10-01T07:24:27Z</time>
      </trkpt>
      <trkpt lat="47.09331" lon="7.21132">
        <ele>454.4</ele>
        <time>2022-10-01T07:24:28Z</time>
      </trkpt>
      <trkpt lat="47.09334" lon="7.21128">
        <ele>454.5</ele>
        <time>2022-10-01T07:24:29Z</time>
      </trkpt>
      <trkpt lat="47.09336" lon="7.21125">
        <ele>454.6</ele>
        <time>2022-10-01T07:24:30Z</time>
      </trkpt>
      <trkpt lat="47.0934" lon="7.21121">
        <ele>454.7</ele>
        <time>2022-10-01T07:24:31Z</time>
      </trkpt>
      <trkpt lat="47.09342" lon="7.21118">
        <ele>454.8</ele>
        <time>2022-10-01T07:24:32Z</time>
      </trkpt>
      <trkpt lat="47.09345" lon="7.21116">
        <ele>454.9</ele>
        <time>2022-10-01T07:24:33Z</time>
      </trkpt>
      <trkpt lat="47.09347" lon="7.21113">
        <ele>455</ele>
        <time>2022-10-01T07:24:34Z</time>
      </trkpt>
      <trkpt lat="47.0935" lon="7.2111">
        <ele>455.1</ele>
        <time>2022-10-01T07:24:35Z</time>
      </trkpt>
      <trkpt lat="47.09352" lon="7.21107">
        <ele>455.3</ele>
        <time>2022-10-01T07:24:36Z</time>
      </trkpt>
      <trkpt lat="47.09355" lon="7.21105">
        <ele>455.4</ele>
        <time>2022-10-01T07:24:37Z</time>
      </trkpt>
      <trkpt lat="47.09356" lon="7.21103">
        <ele>455.4</ele>
        <time>2022-10-01T07:24:38Z</time>
      </trkpt>
      <trkpt lat="47.09359" lon="7.211">
        <ele>455.6</ele>
        <time>2022-10-01T07:24:39Z</time>
      </trkpt>
      <trkpt lat="47.09362" lon="7.21098">
        <ele>455.6</ele>
        <time>2022-10-01T07:24:40Z</time>
      </trkpt>
      <trkpt lat="47.09364" lon="7.21095">
        <ele>455.7</ele>
        <time>2022-10-01T07:24:41Z</time>
      </trkpt>
      <trkpt lat="47.09366" lon="7.21092">
        <ele>455.8</ele>
        <time>2022-10-01T07:24:42Z</time>
      </trkpt>
      <trkpt lat="47.09368" lon="7.21089">
        <ele>455.8</ele>
        <time>2022-10-01T07:24:43Z</time>
      </trkpt>
      <trkpt lat="47.09371" lon="7.21086">
        <ele>455.9</ele>
        <time>2022-10-01T07:24:44Z</time>
      </trkpt>
      <trkpt lat="47.09373" lon="7.21084">
        <ele>455.9</ele>
        <time>2022-10-01T07:24:45Z</time>
      </trkpt>
      <trkpt lat="47.09375" lon="7.2108">
        <ele>455.9</ele>
        <time>2022-10-01T07:24:46Z</time>
      </trkpt>
      <trkpt lat="47.09378" lon="7.21077">
        <ele>455.9</ele>
        <time>2022-10-01T07:24:47Z</time>
      </trkpt>
      <trkpt lat="47.09381" lon="7.21074">
        <ele>455.9</ele>
        <time>2022-10-01T07:24:48Z</time>
      </trkpt>
      <trkpt lat="47.09383" lon="7.2107">
        <ele>455.9</ele>
        <time>2022-10-01T07:24:49Z</time>
      </trkpt>
      <trkpt lat="47.09385" lon="7.21067">
        <ele>455.9</ele>
        <time>2022-10-01T07:24:50Z</time>
      </trkpt>
      <trkpt lat="47.09388" lon="7.21064">
        <ele>455.8</ele>
        <time>2022-10-01T07:24:51Z</time>
      </trkpt>
      <trkpt lat="47.09392" lon="7.2106">
        <ele>455.8</ele>
        <time>2022-10-01T07:24:52Z</time>
      </trkpt>
      <trkpt lat="47.09395" lon="7.21055">
        <ele>455.8</ele>
        <time>2022-10-01T07:24:53Z</time>
      </trkpt>
      <trkpt lat="47.09398" lon="7.21052">
        <ele>455.7</ele>
        <time>2022-10-01T07:24:54Z</time>
      </trkpt>
      <trkpt lat="47.09401" lon="7.21047">
        <ele>455.7</ele>
        <time>2022-10-01T07:24:55Z</time>
      </trkpt>
      <trkpt lat="47.09406" lon="7.21042">
        <ele>455.6</ele>
        <time>2022-10-01T07:24:56Z</time>
      </trkpt>
      <trkpt lat="47.09409" lon="7.21038">
        <ele>455.6</ele>
        <time>2022-10-01T07:24:57Z</time>
      </trkpt>
      <trkpt lat="47.09413" lon="7.21033">
        <ele>455.5</ele>
        <time>2022-10-01T07:24:58Z</time>
      </trkpt>
      <trkpt lat="47.09417" lon="7.21028">
        <ele>455.4</ele>
        <time>2022-10-01T07:24:59Z</time>
      </trkpt>
      <trkpt lat="47.09421" lon="7.21024">
        <ele>455.4</ele>
        <time>2022-10-01T07:25:00Z</time>
      </trkpt>
      <trkpt lat="47.09425" lon="7.21019">
        <ele>455.3</ele>
        <time>2022-10-01T07:25:01Z</time>
      </trkpt>
      <trkpt lat="47.09429" lon="7.21014">
        <ele>455.2</ele>
        <time>2022-10-01T07:25:02Z</time>
      </trkpt>
      <trkpt lat="47.09432" lon="7.2101">
        <ele>455.1</ele>
        <time>2022-10-01T07:25:03Z</time>
      </trkpt>
      <trkpt lat="47.09436" lon="7.21005">
        <ele>455</ele>
        <time>2022-10-01T07:25:04Z</time>
      </trkpt>
      <trkpt lat="47.09439" lon="7.21001">
        <ele>455</ele>
        <time>2022-10-01T07:25:05Z</time>
      </trkpt>
      <trkpt lat="47.09442" lon="7.20996">
        <ele>454.9</ele>
        <time>2022-10-01T07:25:06Z</time>
      </trkpt>
      <trkpt lat="47.09445" lon="7.20991">
        <ele>454.8</ele>
        <time>2022-10-01T07:25:07Z</time>
      </trkpt>
      <trkpt lat="47.09448" lon="7.20985">
        <ele>454.7</ele>
        <time>2022-10-01T07:25:08Z</time>
      </trkpt>
      <trkpt lat="47.09451" lon="7.20981">
        <ele>454.6</ele>
        <time>2022-10-01T07:25:09Z</time>
      </trkpt>
      <trkpt lat="47.09454" lon="7.20977">
        <ele>454.5</ele>
        <time>2022-10-01T07:25:10Z</time>
      </trkpt>
      <trkpt lat="47.09457" lon="7.20972">
        <ele>454.4</ele>
        <time>2022-10-01T07:25:11Z</time>
      </trkpt>
      <trkpt lat="47.0946" lon="7.20966">
        <ele>454.3</ele>
        <time>2022-10-01T07:25:12Z</time>
      </trkpt>
      <trkpt lat="47.09463" lon="7.2096">
        <ele>454.2</ele>
        <time>2022-10-01T07:25:13Z</time>
      </trkpt>
      <trkpt lat="47.09466" lon="7.20955">
        <ele>454</ele>
        <time>2022-10-01T07:25:14Z</time>
      </trkpt>
      <trkpt lat="47.09469" lon="7.20949">
        <ele>453.9</ele>
        <time>2022-10-01T07:25:15Z</time>
      </trkpt>
      <trkpt lat="47.09471" lon="7.20943">
        <ele>453.7</ele>
        <time>2022-10-01T07:25:16Z</time>
      </trkpt>
      <trkpt lat="47.09474" lon="7.20937">
        <ele>453.5</ele>
        <time>2022-10-01T07:25:17Z</time>
      </trkpt>
      <trkpt lat="47.09478" lon="7.2093">
        <ele>453.3</ele>
        <time>2022-10-01T07:25:18Z</time>
      </trkpt>
      <trkpt lat="47.09481" lon="7.20924">
        <ele>453.1</ele>
        <time>2022-10-01T07:25:19Z</time>
      </trkpt>
      <trkpt lat="47.09484" lon="7.20918">
        <ele>452.9</ele>
        <time>2022-10-01T07:25:20Z</time>
      </trkpt>
      <trkpt lat="47.09488" lon="7.20913">
        <ele>452.7</ele>
        <time>2022-10-01T07:25:22Z</time>
      </trkpt>
      <trkpt lat="47.09491" lon="7.20907">
        <ele>452.5</ele>
        <time>2022-10-01T07:25:23Z</time>
      </trkpt>
      <trkpt lat="47.09494" lon="7.20901">
        <ele>452.3</ele>
        <time>2022-10-01T07:25:24Z</time>
      </trkpt>
      <trkpt lat="47.09497" lon="7.20894">
        <ele>452.1</ele>
        <time>2022-10-01T07:25:25Z</time>
      </trkpt>
      <trkpt lat="47.095" lon="7.20888">
        <ele>451.9</ele>
        <time>2022-10-01T07:25:26Z</time>
      </trkpt>
      <trkpt lat="47.09503" lon="7.20882">
        <ele>451.7</ele>
        <time>2022-10-01T07:25:27Z</time>
      </trkpt>
      <trkpt lat="47.09506" lon="7.20876">
        <ele>451.5</ele>
        <time>2022-10-01T07:25:28Z</time>
      </trkpt>
      <trkpt lat="47.09509" lon="7.20872">
        <ele>451.4</ele>
        <time>2022-10-01T07:25:29Z</time>
      </trkpt>
      <trkpt lat="47.09513" lon="7.20867">
        <ele>451.2</ele>
        <time>2022-10-01T07:25:30Z</time>
      </trkpt>
      <trkpt lat="47.09517" lon="7.20863">
        <ele>451</ele>
        <time>2022-10-01T07:25:31Z</time>
      </trkpt>
      <trkpt lat="47.0952" lon="7.2086">
        <ele>450.8</ele>
        <time>2022-10-01T07:25:32Z</time>
      </trkpt>
      <trkpt lat="47.09524" lon="7.20861">
        <ele>450.6</ele>
        <time>2022-10-01T07:25:33Z</time>
      </trkpt>
      <trkpt lat="47.09528" lon="7.20859">
        <ele>450.5</ele>
        <time>2022-10-01T07:25:34Z</time>
      </trkpt>
      <trkpt lat="47.09531" lon="7.20859">
        <ele>450.3</ele>
        <time>2022-10-01T07:25:35Z</time>
      </trkpt>
      <trkpt lat="47.09536" lon="7.20861">
        <ele>450.2</ele>
        <time>2022-10-01T07:25:36Z</time>
      </trkpt>
      <trkpt lat="47.0954" lon="7.20864">
        <ele>449.9</ele>
        <time>2022-10-01T07:25:37Z</time>
      </trkpt>
      <trkpt lat="47.09545" lon="7.20867">
        <ele>449.7</ele>
        <time>2022-10-01T07:25:38Z</time>
      </trkpt>
      <trkpt lat="47.0955" lon="7.2087">
        <ele>449.5</ele>
        <time>2022-10-01T07:25:39Z</time>
      </trkpt>
      <trkpt lat="47.09555" lon="7.20873">
        <ele>449.3</ele>
        <time>2022-10-01T07:25:40Z</time>
      </trkpt>
      <trkpt lat="47.0956" lon="7.20875">
        <ele>449.1</ele>
        <time>2022-10-01T07:25:41Z</time>
      </trkpt>
      <trkpt lat="47.09566" lon="7.20879">
        <ele>449</ele>
        <time>2022-10-01T07:25:42Z</time>
      </trkpt>
      <trkpt lat="47.09572" lon="7.20882">
        <ele>448.8</ele>
        <time>2022-10-01T07:25:43Z</time>
      </trkpt>
      <trkpt lat="47.09578" lon="7.20885">
        <ele>448.8</ele>
        <time>2022-10-01T07:25:44Z</time>
      </trkpt>
      <trkpt lat="47.09582" lon="7.20888">
        <ele>448.8</ele>
        <time>2022-10-01T07:25:45Z</time>
      </trkpt>
      <trkpt lat="47.09586" lon="7.20892">
        <ele>448.8</ele>
        <time>2022-10-01T07:25:46Z</time>
      </trkpt>
      <trkpt lat="47.09592" lon="7.20896">
        <ele>448.9</ele>
        <time>2022-10-01T07:25:47Z</time>
      </trkpt>
      <trkpt lat="47.09598" lon="7.209">
        <ele>449</ele>
        <time>2022-10-01T07:25:48Z</time>
      </trkpt>
      <trkpt lat="47.09603" lon="7.20904">
        <ele>449.2</ele>
        <time>2022-10-01T07:25:49Z</time>
      </trkpt>
      <trkpt lat="47.09608" lon="7.20907">
        <ele>449.4</ele>
        <time>2022-10-01T07:25:50Z</time>
      </trkpt>
      <trkpt lat="47.09612" lon="7.20909">
        <ele>449.7</ele>
        <time>2022-10-01T07:25:51Z</time>
      </trkpt>
      <trkpt lat="47.09616" lon="7.20911">
        <ele>449.9</ele>
        <time>2022-10-01T07:25:52Z</time>
      </trkpt>
      <trkpt lat="47.0962" lon="7.20913">
        <ele>450.2</ele>
        <time>2022-10-01T07:25:53Z</time>
      </trkpt>
      <trkpt lat="47.09623" lon="7.20916">
        <ele>450.4</ele>
        <time>2022-10-01T07:25:54Z</time>
      </trkpt>
      <trkpt lat="47.09627" lon="7.20918">
        <ele>450.7</ele>
        <time>2022-10-01T07:25:55Z</time>
      </trkpt>
      <trkpt lat="47.0963" lon="7.2092">
        <ele>451</ele>
        <time>2022-10-01T07:25:56Z</time>
      </trkpt>
      <trkpt lat="47.09633" lon="7.20922">
        <ele>451.2</ele>
        <time>2022-10-01T07:25:57Z</time>
      </trkpt>
      <trkpt lat="47.09636" lon="7.20923">
        <ele>451.4</ele>
        <time>2022-10-01T07:25:58Z</time>
      </trkpt>
      <trkpt lat="47.0964" lon="7.20926">
        <ele>451.8</ele>
        <time>2022-10-01T07:25:59Z</time>
      </trkpt>
      <trkpt lat="47.09642" lon="7.20927">
        <ele>451.9</ele>
        <time>2022-10-01T07:26:00Z</time>
      </trkpt>
      <trkpt lat="47.09645" lon="7.20928">
        <ele>452.2</ele>
        <time>2022-10-01T07:26:01Z</time>
      </trkpt>
      <trkpt lat="47.09646" lon="7.20929">
        <ele>452.3</ele>
        <time>2022-10-01T07:26:02Z</time>
      </trkpt>
      <trkpt lat="47.09649" lon="7.2093">
        <ele>452.5</ele>
        <time>2022-10-01T07:26:03Z</time>
      </trkpt>
      <trkpt lat="47.09652" lon="7.20932">
        <ele>452.7</ele>
        <time>2022-10-01T07:26:04Z</time>
      </trkpt>
      <trkpt lat="47.09655" lon="7.20935">
        <ele>452.9</ele>
        <time>2022-10-01T07:26:05Z</time>
      </trkpt>
      <trkpt lat="47.09656" lon="7.20936">
        <ele>453</ele>
        <time>2022-10-01T07:26:06Z</time>
      </trkpt>
      <trkpt lat="47.0966" lon="7.20938">
        <ele>453.3</ele>
        <time>2022-10-01T07:26:07Z</time>
      </trkpt>
      <trkpt lat="47.09661" lon="7.20939">
        <ele>453.4</ele>
        <time>2022-10-01T07:26:08Z</time>
      </trkpt>
      <trkpt lat="47.09664" lon="7.2094">
        <ele>453.6</ele>
        <time>2022-10-01T07:26:09Z</time>
      </trkpt>
      <trkpt lat="47.09666" lon="7.20941">
        <ele>453.7</ele>
        <time>2022-10-01T07:26:10Z</time>
      </trkpt>
      <trkpt lat="47.09668" lon="7.20944">
        <ele>453.9</ele>
        <time>2022-10-01T07:26:11Z</time>
      </trkpt>
      <trkpt lat="47.09671" lon="7.20946">
        <ele>454.2</ele>
        <time>2022-10-01T07:26:12Z</time>
      </trkpt>
      <trkpt lat="47.09673" lon="7.20947">
        <ele>454.3</ele>
        <time>2022-10-01T07:26:13Z</time>
      </trkpt>
      <trkpt lat="47.09675" lon="7.2095">
        <ele>454.5</ele>
        <time>2022-10-01T07:26:14Z</time>
      </trkpt>
      <trkpt lat="47.09676" lon="7.2095">
        <ele>454.6</ele>
        <time>2022-10-01T07:26:15Z</time>
      </trkpt>
      <trkpt lat="47.09677" lon="7.20952">
        <ele>454.7</ele>
        <time>2022-10-01T07:26:16Z</time>
      </trkpt>
      <trkpt lat="47.09679" lon="7.20953">
        <ele>454.8</ele>
        <time>2022-10-01T07:26:17Z</time>
      </trkpt>
      <trkpt lat="47.09681" lon="7.20954">
        <ele>454.9</ele>
        <time>2022-10-01T07:26:18Z</time>
      </trkpt>
      <trkpt lat="47.09681" lon="7.20956">
        <ele>455.1</ele>
        <time>2022-10-01T07:26:19Z</time>
      </trkpt>
      <trkpt lat="47.09686" lon="7.2096">
        <ele>455.4</ele>
        <time>2022-10-01T07:26:20Z</time>
      </trkpt>
      <trkpt lat="47.09688" lon="7.20962">
        <ele>455.6</ele>
        <time>2022-10-01T07:26:21Z</time>
      </trkpt>
      <trkpt lat="47.0969" lon="7.20964">
        <ele>455.8</ele>
        <time>2022-10-01T07:26:22Z</time>
      </trkpt>
      <trkpt lat="47.09693" lon="7.20968">
        <ele>456</ele>
        <time>2022-10-01T07:26:23Z</time>
      </trkpt>
      <trkpt lat="47.09694" lon="7.20969">
        <ele>456.1</ele>
        <time>2022-10-01T07:26:24Z</time>
      </trkpt>
      <trkpt lat="47.09696" lon="7.20972">
        <ele>456.2</ele>
        <time>2022-10-01T07:26:25Z</time>
      </trkpt>
      <trkpt lat="47.09698" lon="7.20977">
        <ele>456.4</ele>
        <time>2022-10-01T07:26:26Z</time>
      </trkpt>
      <trkpt lat="47.09699" lon="7.20978">
        <ele>456.5</ele>
        <time>2022-10-01T07:26:27Z</time>
      </trkpt>
      <trkpt lat="47.09701" lon="7.20981">
        <ele>456.7</ele>
        <time>2022-10-01T07:26:28Z</time>
      </trkpt>
      <trkpt lat="47.09702" lon="7.20982">
        <ele>456.7</ele>
        <time>2022-10-01T07:26:29Z</time>
      </trkpt>
      <trkpt lat="47.09704" lon="7.20985">
        <ele>456.9</ele>
        <time>2022-10-01T07:26:30Z</time>
      </trkpt>
      <trkpt lat="47.09705" lon="7.20986">
        <ele>456.9</ele>
        <time>2022-10-01T07:26:31Z</time>
      </trkpt>
      <trkpt lat="47.09708" lon="7.2099">
        <ele>457.1</ele>
        <time>2022-10-01T07:26:32Z</time>
      </trkpt>
      <trkpt lat="47.09709" lon="7.20991">
        <ele>457.1</ele>
        <time>2022-10-01T07:26:33Z</time>
      </trkpt>
      <trkpt lat="47.09711" lon="7.20994">
        <ele>457.3</ele>
        <time>2022-10-01T07:26:34Z</time>
      </trkpt>
      <trkpt lat="47.09712" lon="7.20995">
        <ele>457.3</ele>
        <time>2022-10-01T07:26:35Z</time>
      </trkpt>
      <trkpt lat="47.09715" lon="7.20998">
        <ele>457.4</ele>
        <time>2022-10-01T07:26:36Z</time>
      </trkpt>
      <trkpt lat="47.09716" lon="7.20999">
        <ele>457.5</ele>
        <time>2022-10-01T07:26:37Z</time>
      </trkpt>
      <trkpt lat="47.09718" lon="7.21003">
        <ele>457.6</ele>
        <time>2022-10-01T07:26:38Z</time>
      </trkpt>
      <trkpt lat="47.09719" lon="7.21004">
        <ele>457.6</ele>
        <time>2022-10-01T07:26:39Z</time>
      </trkpt>
      <trkpt lat="47.09722" lon="7.21007">
        <ele>457.7</ele>
        <time>2022-10-01T07:26:40Z</time>
      </trkpt>
      <trkpt lat="47.09723" lon="7.21008">
        <ele>457.7</ele>
        <time>2022-10-01T07:26:41Z</time>
      </trkpt>
      <trkpt lat="47.09726" lon="7.21011">
        <ele>457.8</ele>
        <time>2022-10-01T07:26:42Z</time>
      </trkpt>
      <trkpt lat="47.09727" lon="7.21013">
        <ele>457.8</ele>
        <time>2022-10-01T07:26:43Z</time>
      </trkpt>
      <trkpt lat="47.0973" lon="7.21015">
        <ele>457.9</ele>
        <time>2022-10-01T07:26:44Z</time>
      </trkpt>
      <trkpt lat="47.09733" lon="7.21018">
        <ele>457.9</ele>
        <time>2022-10-01T07:26:45Z</time>
      </trkpt>
      <trkpt lat="47.09733" lon="7.2102">
        <ele>457.9</ele>
        <time>2022-10-01T07:26:46Z</time>
      </trkpt>
      <trkpt lat="47.09736" lon="7.21022">
        <ele>457.9</ele>
        <time>2022-10-01T07:26:47Z</time>
      </trkpt>
      <trkpt lat="47.09739" lon="7.21025">
        <ele>457.9</ele>
        <time>2022-10-01T07:26:48Z</time>
      </trkpt>
      <trkpt lat="47.0974" lon="7.21026">
        <ele>457.9</ele>
        <time>2022-10-01T07:26:49Z</time>
      </trkpt>
      <trkpt lat="47.09742" lon="7.21029">
        <ele>457.9</ele>
        <time>2022-10-01T07:26:50Z</time>
      </trkpt>
      <trkpt lat="47.09744" lon="7.21031">
        <ele>457.8</ele>
        <time>2022-10-01T07:26:51Z</time>
      </trkpt>
      <trkpt lat="47.09748" lon="7.21034">
        <ele>457.8</ele>
        <time>2022-10-01T07:26:52Z</time>
      </trkpt>
      <trkpt lat="47.09749" lon="7.21036">
        <ele>457.7</ele>
        <time>2022-10-01T07:26:53Z</time>
      </trkpt>
      <trkpt lat="47.09752" lon="7.21038">
        <ele>457.6</ele>
        <time>2022-10-01T07:26:54Z</time>
      </trkpt>
      <trkpt lat="47.09755" lon="7.21041">
        <ele>457.5</ele>
        <time>2022-10-01T07:26:55Z</time>
      </trkpt>
      <trkpt lat="47.09758" lon="7.21045">
        <ele>457.4</ele>
        <time>2022-10-01T07:26:56Z</time>
      </trkpt>
      <trkpt lat="47.09762" lon="7.21047">
        <ele>457.3</ele>
        <time>2022-10-01T07:26:57Z</time>
      </trkpt>
      <trkpt lat="47.09765" lon="7.21051">
        <ele>457.1</ele>
        <time>2022-10-01T07:26:58Z</time>
      </trkpt>
      <trkpt lat="47.09769" lon="7.21055">
        <ele>456.9</ele>
        <time>2022-10-01T07:26:59Z</time>
      </trkpt>
      <trkpt lat="47.09773" lon="7.21058">
        <ele>456.6</ele>
        <time>2022-10-01T07:27:00Z</time>
      </trkpt>
      <trkpt lat="47.09777" lon="7.21062">
        <ele>456.4</ele>
        <time>2022-10-01T07:27:01Z</time>
      </trkpt>
      <trkpt lat="47.09781" lon="7.21066">
        <ele>456.2</ele>
        <time>2022-10-01T07:27:02Z</time>
      </trkpt>
      <trkpt lat="47.09785" lon="7.21071">
        <ele>455.9</ele>
        <time>2022-10-01T07:27:03Z</time>
      </trkpt>
      <trkpt lat="47.09789" lon="7.21075">
        <ele>455.7</ele>
        <time>2022-10-01T07:27:04Z</time>
      </trkpt>
      <trkpt lat="47.09794" lon="7.2108">
        <ele>455.4</ele>
        <time>2022-10-01T07:27:05Z</time>
      </trkpt>
      <trkpt lat="47.09799" lon="7.21084">
        <ele>455.1</ele>
        <time>2022-10-01T07:27:06Z</time>
      </trkpt>
      <trkpt lat="47.09804" lon="7.21089">
        <ele>454.9</ele>
        <time>2022-10-01T07:27:07Z</time>
      </trkpt>
      <trkpt lat="47.09809" lon="7.21094">
        <ele>454.6</ele>
        <time>2022-10-01T07:27:08Z</time>
      </trkpt>
      <trkpt lat="47.09814" lon="7.21098">
        <ele>454.4</ele>
        <time>2022-10-01T07:27:09Z</time>
      </trkpt>
      <trkpt lat="47.09819" lon="7.21104">
        <ele>454.2</ele>
        <time>2022-10-01T07:27:10Z</time>
      </trkpt>
      <trkpt lat="47.09825" lon="7.21109">
        <ele>454</ele>
        <time>2022-10-01T07:27:11Z</time>
      </trkpt>
      <trkpt lat="47.09829" lon="7.21113">
        <ele>453.8</ele>
        <time>2022-10-01T07:27:12Z</time>
      </trkpt>
      <trkpt lat="47.09833" lon="7.21117">
        <ele>453.6</ele>
        <time>2022-10-01T07:27:13Z</time>
      </trkpt>
      <trkpt lat="47.09839" lon="7.21122">
        <ele>453.4</ele>
        <time>2022-10-01T07:27:14Z</time>
      </trkpt>
      <trkpt lat="47.09844" lon="7.21126">
        <ele>453.1</ele>
        <time>2022-10-01T07:27:15Z</time>
      </trkpt>
      <trkpt lat="47.09849" lon="7.21129">
        <ele>452.9</ele>
        <time>2022-10-01T07:27:16Z</time>
      </trkpt>
      <trkpt lat="47.09853" lon="7.21132">
        <ele>452.7</ele>
        <time>2022-10-01T07:27:17Z</time>
      </trkpt>
      <trkpt lat="47.09856" lon="7.21135">
        <ele>452.5</ele>
        <time>2022-10-01T07:27:18Z</time>
      </trkpt>
      <trkpt lat="47.0986" lon="7.21138">
        <ele>452.3</ele>
        <time>2022-10-01T07:27:19Z</time>
      </trkpt>
      <trkpt lat="47.09865" lon="7.21141">
        <ele>452</ele>
        <time>2022-10-01T07:27:20Z</time>
      </trkpt>
      <trkpt lat="47.0987" lon="7.21145">
        <ele>451.8</ele>
        <time>2022-10-01T07:27:21Z</time>
      </trkpt>
      <trkpt lat="47.09875" lon="7.21148">
        <ele>451.5</ele>
        <time>2022-10-01T07:27:22Z</time>
      </trkpt>
      <trkpt lat="47.0988" lon="7.21153">
        <ele>451.3</ele>
        <time>2022-10-01T07:27:23Z</time>
      </trkpt>
      <trkpt lat="47.09884" lon="7.21154">
        <ele>451.1</ele>
        <time>2022-10-01T07:27:24Z</time>
      </trkpt>
      <trkpt lat="47.09889" lon="7.21158">
        <ele>450.8</ele>
        <time>2022-10-01T07:27:25Z</time>
      </trkpt>
      <trkpt lat="47.09896" lon="7.21161">
        <ele>450.5</ele>
        <time>2022-10-01T07:27:26Z</time>
      </trkpt>
      <trkpt lat="47.09901" lon="7.21165">
        <ele>450.3</ele>
        <time>2022-10-01T07:27:28Z</time>
      </trkpt>
      <trkpt lat="47.09906" lon="7.2117">
        <ele>450</ele>
        <time>2022-10-01T07:27:29Z</time>
      </trkpt>
      <trkpt lat="47.09912" lon="7.21172">
        <ele>449.8</ele>
        <time>2022-10-01T07:27:30Z</time>
      </trkpt>
      <trkpt lat="47.09918" lon="7.21176">
        <ele>449.6</ele>
        <time>2022-10-01T07:27:31Z</time>
      </trkpt>
      <trkpt lat="47.09923" lon="7.2118">
        <ele>449.4</ele>
        <time>2022-10-01T07:27:32Z</time>
      </trkpt>
      <trkpt lat="47.0993" lon="7.21185">
        <ele>449.1</ele>
        <time>2022-10-01T07:27:33Z</time>
      </trkpt>
      <trkpt lat="47.09936" lon="7.2119">
        <ele>448.9</ele>
        <time>2022-10-01T07:27:34Z</time>
      </trkpt>
      <trkpt lat="47.09942" lon="7.21194">
        <ele>448.8</ele>
        <time>2022-10-01T07:27:35Z</time>
      </trkpt>
      <trkpt lat="47.09947" lon="7.21197">
        <ele>448.6</ele>
        <time>2022-10-01T07:27:36Z</time>
      </trkpt>
      <trkpt lat="47.09952" lon="7.21201">
        <ele>448.5</ele>
        <time>2022-10-01T07:27:37Z</time>
      </trkpt>
      <trkpt lat="47.09957" lon="7.21205">
        <ele>448.4</ele>
        <time>2022-10-01T07:27:38Z</time>
      </trkpt>
      <trkpt lat="47.09962" lon="7.2121">
        <ele>448.2</ele>
        <time>2022-10-01T07:27:39Z</time>
      </trkpt>
      <trkpt lat="47.09967" lon="7.21213">
        <ele>448.2</ele>
        <time>2022-10-01T07:27:40Z</time>
      </trkpt>
      <trkpt lat="47.09971" lon="7.21217">
        <ele>448.1</ele>
        <time>2022-10-01T07:27:41Z</time>
      </trkpt>
      <trkpt lat="47.09975" lon="7.21221">
        <ele>448</ele>
        <time>2022-10-01T07:27:42Z</time>
      </trkpt>
      <trkpt lat="47.09979" lon="7.21227">
        <ele>447.9</ele>
        <time>2022-10-01T07:27:43Z</time>
      </trkpt>
      <trkpt lat="47.09985" lon="7.21231">
        <ele>447.7</ele>
        <time>2022-10-01T07:27:44Z</time>
      </trkpt>
      <trkpt lat="47.0999" lon="7.21234">
        <ele>447.5</ele>
        <time>2022-10-01T07:27:45Z</time>
      </trkpt>
      <trkpt lat="47.09995" lon="7.21239">
        <ele>447.3</ele>
        <time>2022-10-01T07:27:46Z</time>
      </trkpt>
      <trkpt lat="47.1" lon="7.21245">
        <ele>447.1</ele>
        <time>2022-10-01T07:27:47Z</time>
      </trkpt>
      <trkpt lat="47.10006" lon="7.21249">
        <ele>446.9</ele>
        <time>2022-10-01T07:27:48Z</time>
      </trkpt>
      <trkpt lat="47.10012" lon="7.21253">
        <ele>446.7</ele>
        <time>2022-10-01T07:27:49Z</time>
      </trkpt>
      <trkpt lat="47.10017" lon="7.21258">
        <ele>446.5</ele>
        <time>2022-10-01T07:27:50Z</time>
      </trkpt>
      <trkpt lat="47.10022" lon="7.21264">
        <ele>446.3</ele>
        <time>2022-10-01T07:27:51Z</time>
      </trkpt>
      <trkpt lat="47.10028" lon="7.21267">
        <ele>446</ele>
        <time>2022-10-01T07:27:52Z</time>
      </trkpt>
      <trkpt lat="47.10033" lon="7.21271">
        <ele>445.8</ele>
        <time>2022-10-01T07:27:53Z</time>
      </trkpt>
      <trkpt lat="47.10039" lon="7.21276">
        <ele>445.5</ele>
        <time>2022-10-01T07:27:54Z</time>
      </trkpt>
      <trkpt lat="47.10045" lon="7.21281">
        <ele>445.2</ele>
        <time>2022-10-01T07:27:55Z</time>
      </trkpt>
      <trkpt lat="47.10052" lon="7.21286">
        <ele>444.9</ele>
        <time>2022-10-01T07:27:56Z</time>
      </trkpt>
      <trkpt lat="47.10058" lon="7.2129">
        <ele>444.6</ele>
        <time>2022-10-01T07:27:57Z</time>
      </trkpt>
      <trkpt lat="47.10062" lon="7.21295">
        <ele>444.3</ele>
        <time>2022-10-01T07:27:58Z</time>
      </trkpt>
      <trkpt lat="47.10069" lon="7.21299">
        <ele>444</ele>
        <time>2022-10-01T07:27:59Z</time>
      </trkpt>
      <trkpt lat="47.10076" lon="7.21304">
        <ele>443.6</ele>
        <time>2022-10-01T07:28:00Z</time>
      </trkpt>
      <trkpt lat="47.10082" lon="7.21308">
        <ele>443.3</ele>
        <time>2022-10-01T07:28:01Z</time>
      </trkpt>
      <trkpt lat="47.10088" lon="7.21313">
        <ele>443.1</ele>
        <time>2022-10-01T07:28:02Z</time>
      </trkpt>
      <trkpt lat="47.10094" lon="7.21318">
        <ele>442.8</ele>
        <time>2022-10-01T07:28:03Z</time>
      </trkpt>
      <trkpt lat="47.10101" lon="7.21323">
        <ele>442.5</ele>
        <time>2022-10-01T07:28:04Z</time>
      </trkpt>
      <trkpt lat="47.10107" lon="7.21328">
        <ele>442.3</ele>
        <time>2022-10-01T07:28:05Z</time>
      </trkpt>
      <trkpt lat="47.10114" lon="7.21333">
        <ele>442</ele>
        <time>2022-10-01T07:28:06Z</time>
      </trkpt>
      <trkpt lat="47.1012" lon="7.21339">
        <ele>441.8</ele>
        <time>2022-10-01T07:28:07Z</time>
      </trkpt>
      <trkpt lat="47.10126" lon="7.21345">
        <ele>441.6</ele>
        <time>2022-10-01T07:28:08Z</time>
      </trkpt>
      <trkpt lat="47.10132" lon="7.2135">
        <ele>441.4</ele>
        <time>2022-10-01T07:28:09Z</time>
      </trkpt>
      <trkpt lat="47.10138" lon="7.21355">
        <ele>441.2</ele>
        <time>2022-10-01T07:28:10Z</time>
      </trkpt>
      <trkpt lat="47.10144" lon="7.21361">
        <ele>441</ele>
        <time>2022-10-01T07:28:11Z</time>
      </trkpt>
      <trkpt lat="47.1015" lon="7.21366">
        <ele>440.8</ele>
        <time>2022-10-01T07:28:12Z</time>
      </trkpt>
      <trkpt lat="47.10156" lon="7.21372">
        <ele>440.6</ele>
        <time>2022-10-01T07:28:13Z</time>
      </trkpt>
      <trkpt lat="47.10161" lon="7.21377">
        <ele>440.5</ele>
        <time>2022-10-01T07:28:14Z</time>
      </trkpt>
      <trkpt lat="47.10173" lon="7.21388">
        <ele>440.3</ele>
        <time>2022-10-01T07:28:15Z</time>
      </trkpt>
      <trkpt lat="47.10179" lon="7.21394">
        <ele>440.1</ele>
        <time>2022-10-01T07:28:16Z</time>
      </trkpt>
      <trkpt lat="47.10185" lon="7.21399">
        <ele>440</ele>
        <time>2022-10-01T07:28:17Z</time>
      </trkpt>
      <trkpt lat="47.10192" lon="7.21404">
        <ele>439.8</ele>
        <time>2022-10-01T07:28:18Z</time>
      </trkpt>
      <trkpt lat="47.10198" lon="7.2141">
        <ele>439.7</ele>
        <time>2022-10-01T07:28:19Z</time>
      </trkpt>
      <trkpt lat="47.10204" lon="7.21415">
        <ele>439.5</ele>
        <time>2022-10-01T07:28:20Z</time>
      </trkpt>
      <trkpt lat="47.1021" lon="7.21421">
        <ele>439.4</ele>
        <time>2022-10-01T07:28:21Z</time>
      </trkpt>
      <trkpt lat="47.10217" lon="7.21426">
        <ele>439.2</ele>
        <time>2022-10-01T07:28:22Z</time>
      </trkpt>
      <trkpt lat="47.10222" lon="7.21432">
        <ele>439.1</ele>
        <time>2022-10-01T07:28:23Z</time>
      </trkpt>
      <trkpt lat="47.10228" lon="7.21437">
        <ele>439</ele>
        <time>2022-10-01T07:28:24Z</time>
      </trkpt>
      <trkpt lat="47.10234" lon="7.21443">
        <ele>438.9</ele>
        <time>2022-10-01T07:28:25Z</time>
      </trkpt>
      <trkpt lat="47.1024" lon="7.21448">
        <ele>438.8</ele>
        <time>2022-10-01T07:28:26Z</time>
      </trkpt>
      <trkpt lat="47.10246" lon="7.21453">
        <ele>438.7</ele>
        <time>2022-10-01T07:28:27Z</time>
      </trkpt>
      <trkpt lat="47.10252" lon="7.21459">
        <ele>438.7</ele>
        <time>2022-10-01T07:28:28Z</time>
      </trkpt>
      <trkpt lat="47.10258" lon="7.21464">
        <ele>438.6</ele>
        <time>2022-10-01T07:28:29Z</time>
      </trkpt>
      <trkpt lat="47.10264" lon="7.2147">
        <ele>438.6</ele>
        <time>2022-10-01T07:28:30Z</time>
      </trkpt>
      <trkpt lat="47.10269" lon="7.21475">
        <ele>438.6</ele>
        <time>2022-10-01T07:28:31Z</time>
      </trkpt>
      <trkpt lat="47.10275" lon="7.2148">
        <ele>438.6</ele>
        <time>2022-10-01T07:28:32Z</time>
      </trkpt>
      <trkpt lat="47.1028" lon="7.21485">
        <ele>438.6</ele>
        <time>2022-10-01T07:28:33Z</time>
      </trkpt>
      <trkpt lat="47.10285" lon="7.2149">
        <ele>438.6</ele>
        <time>2022-10-01T07:28:34Z</time>
      </trkpt>
      <trkpt lat="47.1029" lon="7.21496">
        <ele>438.6</ele>
        <time>2022-10-01T07:28:35Z</time>
      </trkpt>
      <trkpt lat="47.10295" lon="7.21502">
        <ele>438.6</ele>
        <time>2022-10-01T07:28:36Z</time>
      </trkpt>
      <trkpt lat="47.10299" lon="7.21507">
        <ele>438.7</ele>
        <time>2022-10-01T07:28:37Z</time>
      </trkpt>
      <trkpt lat="47.10303" lon="7.21513">
        <ele>438.7</ele>
        <time>2022-10-01T07:28:38Z</time>
      </trkpt>
      <trkpt lat="47.10307" lon="7.21518">
        <ele>438.8</ele>
        <time>2022-10-01T07:28:39Z</time>
      </trkpt>
      <trkpt lat="47.10311" lon="7.21524">
        <ele>438.9</ele>
        <time>2022-10-01T07:28:40Z</time>
      </trkpt>
      <trkpt lat="47.10315" lon="7.21528">
        <ele>439</ele>
        <time>2022-10-01T07:28:41Z</time>
      </trkpt>
      <trkpt lat="47.10319" lon="7.21534">
        <ele>439.1</ele>
        <time>2022-10-01T07:28:42Z</time>
      </trkpt>
      <trkpt lat="47.10322" lon="7.21539">
        <ele>439.3</ele>
        <time>2022-10-01T07:28:43Z</time>
      </trkpt>
      <trkpt lat="47.10326" lon="7.21545">
        <ele>439.4</ele>
        <time>2022-10-01T07:28:44Z</time>
      </trkpt>
      <trkpt lat="47.10329" lon="7.2155">
        <ele>439.6</ele>
        <time>2022-10-01T07:28:45Z</time>
      </trkpt>
      <trkpt lat="47.10332" lon="7.21555">
        <ele>439.7</ele>
        <time>2022-10-01T07:28:46Z</time>
      </trkpt>
      <trkpt lat="47.10335" lon="7.21561">
        <ele>439.9</ele>
        <time>2022-10-01T07:28:47Z</time>
      </trkpt>
      <trkpt lat="47.10338" lon="7.21567">
        <ele>440.1</ele>
        <time>2022-10-01T07:28:48Z</time>
      </trkpt>
      <trkpt lat="47.10341" lon="7.21572">
        <ele>440.3</ele>
        <time>2022-10-01T07:28:49Z</time>
      </trkpt>
      <trkpt lat="47.10343" lon="7.21576">
        <ele>440.5</ele>
        <time>2022-10-01T07:28:50Z</time>
      </trkpt>
      <trkpt lat="47.10346" lon="7.21581">
        <ele>440.8</ele>
        <time>2022-10-01T07:28:51Z</time>
      </trkpt>
      <trkpt lat="47.10348" lon="7.21586">
        <ele>441</ele>
        <time>2022-10-01T07:28:52Z</time>
      </trkpt>
      <trkpt lat="47.1035" lon="7.21591">
        <ele>441.2</ele>
        <time>2022-10-01T07:28:53Z</time>
      </trkpt>
      <trkpt lat="47.10352" lon="7.21596">
        <ele>441.4</ele>
        <time>2022-10-01T07:28:54Z</time>
      </trkpt>
      <trkpt lat="47.10353" lon="7.216">
        <ele>441.7</ele>
        <time>2022-10-01T07:28:55Z</time>
      </trkpt>
      <trkpt lat="47.10355" lon="7.21605">
        <ele>441.9</ele>
        <time>2022-10-01T07:28:56Z</time>
      </trkpt>
      <trkpt lat="47.10356" lon="7.2161">
        <ele>442.1</ele>
        <time>2022-10-01T07:28:57Z</time>
      </trkpt>
      <trkpt lat="47.10357" lon="7.21615">
        <ele>442.4</ele>
        <time>2022-10-01T07:28:58Z</time>
      </trkpt>
      <trkpt lat="47.1036" lon="7.21617">
        <ele>442.6</ele>
        <time>2022-10-01T07:28:59Z</time>
      </trkpt>
      <trkpt lat="47.10361" lon="7.21622">
        <ele>442.9</ele>
        <time>2022-10-01T07:29:00Z</time>
      </trkpt>
      <trkpt lat="47.10362" lon="7.21626">
        <ele>443.1</ele>
        <time>2022-10-01T07:29:01Z</time>
      </trkpt>
      <trkpt lat="47.10364" lon="7.21629">
        <ele>443.3</ele>
        <time>2022-10-01T07:29:02Z</time>
      </trkpt>
      <trkpt lat="47.10365" lon="7.21633">
        <ele>443.5</ele>
        <time>2022-10-01T07:29:03Z</time>
      </trkpt>
      <trkpt lat="47.10365" lon="7.21634">
        <ele>443.6</ele>
        <time>2022-10-01T07:29:04Z</time>
      </trkpt>
      <trkpt lat="47.10367" lon="7.21638">
        <ele>443.8</ele>
        <time>2022-10-01T07:29:05Z</time>
      </trkpt>
      <trkpt lat="47.10369" lon="7.21641">
        <ele>444</ele>
        <time>2022-10-01T07:29:06Z</time>
      </trkpt>
      <trkpt lat="47.1037" lon="7.21642">
        <ele>444</ele>
        <time>2022-10-01T07:29:07Z</time>
      </trkpt>
      <trkpt lat="47.10372" lon="7.21646">
        <ele>444.1</ele>
        <time>2022-10-01T07:29:08Z</time>
      </trkpt>
      <trkpt lat="47.10372" lon="7.21647">
        <ele>444.2</ele>
        <time>2022-10-01T07:29:09Z</time>
      </trkpt>
      <trkpt lat="47.10373" lon="7.21648">
        <ele>444.2</ele>
        <time>2022-10-01T07:29:10Z</time>
      </trkpt>
      <trkpt lat="47.10375" lon="7.21649">
        <ele>444.3</ele>
        <time>2022-10-01T07:29:11Z</time>
      </trkpt>
      <trkpt lat="47.10377" lon="7.21652">
        <ele>444.4</ele>
        <time>2022-10-01T07:29:12Z</time>
      </trkpt>
      <trkpt lat="47.10377" lon="7.21654">
        <ele>444.4</ele>
        <time>2022-10-01T07:29:13Z</time>
      </trkpt>
      <trkpt lat="47.10377" lon="7.21654">
        <ele>444.4</ele>
        <time>2022-10-01T07:29:14Z</time>
      </trkpt>
      <trkpt lat="47.10376" lon="7.21654">
        <ele>444.5</ele>
        <time>2022-10-01T07:29:15Z</time>
      </trkpt>
      <trkpt lat="47.10377" lon="7.21654">
        <ele>444.5</ele>
        <time>2022-10-01T07:29:16Z</time>
      </trkpt>
      <trkpt lat="47.10377" lon="7.21654">
        <ele>444.5</ele>
        <time>2022-10-01T07:29:17Z</time>
      </trkpt>
      <trkpt lat="47.10377" lon="7.21656">
        <ele>444.5</ele>
        <time>2022-10-01T07:29:18Z</time>
      </trkpt>
      <trkpt lat="47.10375" lon="7.21656">
        <ele>444.6</ele>
        <time>2022-10-01T07:29:19Z</time>
      </trkpt>
      <trkpt lat="47.10374" lon="7.21656">
        <ele>444.6</ele>
        <time>2022-10-01T07:29:20Z</time>
      </trkpt>
      <trkpt lat="47.10374" lon="7.21655">
        <ele>444.7</ele>
        <time>2022-10-01T07:29:21Z</time>
      </trkpt>
      <trkpt lat="47.10374" lon="7.21655">
        <ele>444.7</ele>
        <time>2022-10-01T07:29:22Z</time>
      </trkpt>
      <trkpt lat="47.10374" lon="7.21655">
        <ele>444.7</ele>
        <time>2022-10-01T07:29:23Z</time>
      </trkpt>
      <trkpt lat="47.10374" lon="7.21655">
        <ele>444.7</ele>
        <time>2022-10-01T07:29:24Z</time>
      </trkpt>
      <trkpt lat="47.10373" lon="7.21655">
        <ele>444.7</ele>
        <time>2022-10-01T07:29:25Z</time>
      </trkpt>
      <trkpt lat="47.10373" lon="7.21655">
        <ele>444.7</ele>
        <time>2022-10-01T07:29:26Z</time>
      </trkpt>
      <trkpt lat="47.10372" lon="7.21656">
        <ele>444.7</ele>
        <time>2022-10-01T07:29:27Z</time>
      </trkpt>
      <trkpt lat="47.10371" lon="7.21655">
        <ele>444.8</ele>
        <time>2022-10-01T07:29:28Z</time>
      </trkpt>
      <trkpt lat="47.10372" lon="7.21655">
        <ele>444.8</ele>
        <time>2022-10-01T07:29:29Z</time>
      </trkpt>
      <trkpt lat="47.10371" lon="7.21655">
        <ele>444.8</ele>
        <time>2022-10-01T07:29:30Z</time>
      </trkpt>
      <trkpt lat="47.10371" lon="7.21655">
        <ele>444.8</ele>
        <time>2022-10-01T07:29:31Z</time>
      </trkpt>
      <trkpt lat="47.10371" lon="7.21655">
        <ele>444.8</ele>
        <time>2022-10-01T07:29:32Z</time>
      </trkpt>
      <trkpt lat="47.1037" lon="7.21656">
        <ele>444.8</ele>
        <time>2022-10-01T07:29:34Z</time>
      </trkpt>
      <trkpt lat="47.1037" lon="7.21656">
        <ele>444.9</ele>
        <time>2022-10-01T07:29:35Z</time>
      </trkpt>
      <trkpt lat="47.1037" lon="7.21656">
        <ele>444.9</ele>
        <time>2022-10-01T07:29:36Z</time>
      </trkpt>
      <trkpt lat="47.10369" lon="7.21656">
        <ele>444.9</ele>
        <time>2022-10-01T07:29:37Z</time>
      </trkpt>
      <trkpt lat="47.10369" lon="7.21656">
        <ele>444.9</ele>
        <time>2022-10-01T07:29:38Z</time>
      </trkpt>
      <trkpt lat="47.10369" lon="7.21656">
        <ele>444.9</ele>
        <time>2022-10-01T07:35:09Z</time>
      </trkpt>
      <trkpt lat="47.10368" lon="7.21656">
        <ele>444.9</ele>
        <time>2022-10-01T07:35:10Z</time>
      </trkpt>
      <trkpt lat="47.10368" lon="7.21656">
        <ele>444.9</ele>
        <time>2022-10-01T07:35:11Z</time>
      </trkpt>
      <trkpt lat="47.10368" lon="7.21657">
        <ele>444.9</ele>
        <time>2022-10-01T07:35:12Z</time>
      </trkpt>
      <trkpt lat="47.10366" lon="7.21658">
        <ele>445</ele>
        <time>2022-10-01T07:35:13Z</time>
      </trkpt>
      <trkpt lat="47.10365" lon="7.21659">
        <ele>445</ele>
        <time>2022-10-01T07:35:14Z</time>
      </trkpt>
      <trkpt lat="47.10365" lon="7.21659">
        <ele>445.1</ele>
        <time>2022-10-01T07:35:15Z</time>
      </trkpt>
      <trkpt lat="47.10363" lon="7.2166">
        <ele>445.1</ele>
        <time>2022-10-01T07:35:16Z</time>
      </trkpt>
      <trkpt lat="47.10363" lon="7.2166">
        <ele>445.1</ele>
        <time>2022-10-01T07:35:17Z</time>
      </trkpt>
      <trkpt lat="47.10362" lon="7.21662">
        <ele>445.2</ele>
        <time>2022-10-01T07:35:18Z</time>
      </trkpt>
      <trkpt lat="47.10361" lon="7.21662">
        <ele>445.2</ele>
        <time>2022-10-01T07:35:19Z</time>
      </trkpt>
      <trkpt lat="47.10361" lon="7.21663">
        <ele>445.2</ele>
        <time>2022-10-01T07:35:20Z</time>
      </trkpt>
      <trkpt lat="47.1036" lon="7.21665">
        <ele>445.3</ele>
        <time>2022-10-01T07:35:21Z</time>
      </trkpt>
      <trkpt lat="47.10358" lon="7.21667">
        <ele>445.4</ele>
        <time>2022-10-01T07:35:22Z</time>
      </trkpt>
      <trkpt lat="47.10357" lon="7.21668">
        <ele>445.4</ele>
        <time>2022-10-01T07:35:23Z</time>
      </trkpt>
      <trkpt lat="47.10356" lon="7.2167">
        <ele>445.5</ele>
        <time>2022-10-01T07:35:24Z</time>
      </trkpt>
      <trkpt lat="47.10355" lon="7.21672">
        <ele>445.5</ele>
        <time>2022-10-01T07:35:25Z</time>
      </trkpt>
      <trkpt lat="47.10354" lon="7.21673">
        <ele>445.6</ele>
        <time>2022-10-01T07:35:26Z</time>
      </trkpt>
      <trkpt lat="47.10353" lon="7.21675">
        <ele>445.6</ele>
        <time>2022-10-01T07:35:27Z</time>
      </trkpt>
      <trkpt lat="47.10351" lon="7.21677">
        <ele>445.7</ele>
        <time>2022-10-01T07:35:28Z</time>
      </trkpt>
      <trkpt lat="47.1035" lon="7.21678">
        <ele>445.7</ele>
        <time>2022-10-01T07:35:29Z</time>
      </trkpt>
      <trkpt lat="47.1035" lon="7.21679">
        <ele>445.8</ele>
        <time>2022-10-01T07:35:30Z</time>
      </trkpt>
      <trkpt lat="47.10348" lon="7.21681">
        <ele>445.8</ele>
        <time>2022-10-01T07:35:31Z</time>
      </trkpt>
      <trkpt lat="47.10347" lon="7.21682">
        <ele>445.9</ele>
        <time>2022-10-01T07:35:32Z</time>
      </trkpt>
      <trkpt lat="47.10346" lon="7.21685">
        <ele>445.9</ele>
        <time>2022-10-01T07:35:33Z</time>
      </trkpt>
      <trkpt lat="47.10345" lon="7.21685">
        <ele>446</ele>
        <time>2022-10-01T07:35:34Z</time>
      </trkpt>
      <trkpt lat="47.10344" lon="7.21686">
        <ele>446</ele>
        <time>2022-10-01T07:35:35Z</time>
      </trkpt>
      <trkpt lat="47.10342" lon="7.2169">
        <ele>446.1</ele>
        <time>2022-10-01T07:35:36Z</time>
      </trkpt>
      <trkpt lat="47.10341" lon="7.21691">
        <ele>446.1</ele>
        <time>2022-10-01T07:35:37Z</time>
      </trkpt>
      <trkpt lat="47.10341" lon="7.21692">
        <ele>446.2</ele>
        <time>2022-10-01T07:35:38Z</time>
      </trkpt>
      <trkpt lat="47.1034" lon="7.21694">
        <ele>446.3</ele>
        <time>2022-10-01T07:35:39Z</time>
      </trkpt>
      <trkpt lat="47.10339" lon="7.21696">
        <ele>446.3</ele>
        <time>2022-10-01T07:35:40Z</time>
      </trkpt>
      <trkpt lat="47.10338" lon="7.21696">
        <ele>446.3</ele>
        <time>2022-10-01T07:35:41Z</time>
      </trkpt>
      <trkpt lat="47.10337" lon="7.21697">
        <ele>446.4</ele>
        <time>2022-10-01T07:35:42Z</time>
      </trkpt>
      <trkpt lat="47.10336" lon="7.21699">
        <ele>446.4</ele>
        <time>2022-10-01T07:35:43Z</time>
      </trkpt>
      <trkpt lat="47.10335" lon="7.21699">
        <ele>446.5</ele>
        <time>2022-10-01T07:35:44Z</time>
      </trkpt>
      <trkpt lat="47.10335" lon="7.217">
        <ele>446.5</ele>
        <time>2022-10-01T07:35:45Z</time>
      </trkpt>
      <trkpt lat="47.10333" lon="7.21703">
        <ele>446.6</ele>
        <time>2022-10-01T07:35:46Z</time>
      </trkpt>
      <trkpt lat="47.10333" lon="7.21704">
        <ele>446.6</ele>
        <time>2022-10-01T07:35:47Z</time>
      </trkpt>
      <trkpt lat="47.10332" lon="7.21705">
        <ele>446.6</ele>
        <time>2022-10-01T07:35:48Z</time>
      </trkpt>
      <trkpt lat="47.10331" lon="7.21706">
        <ele>446.7</ele>
        <time>2022-10-01T07:35:49Z</time>
      </trkpt>
      <trkpt lat="47.1033" lon="7.21707">
        <ele>446.8</ele>
        <time>2022-10-01T07:35:50Z</time>
      </trkpt>
      <trkpt lat="47.1033" lon="7.21709">
        <ele>446.8</ele>
        <time>2022-10-01T07:35:52Z</time>
      </trkpt>
      <trkpt lat="47.10321" lon="7.21726">
        <ele>447.4</ele>
        <time>2022-10-01T07:36:01Z</time>
      </trkpt>
      <trkpt lat="47.1032" lon="7.21727">
        <ele>447.5</ele>
        <time>2022-10-01T07:36:02Z</time>
      </trkpt>
      <trkpt lat="47.10319" lon="7.21728">
        <ele>447.5</ele>
        <time>2022-10-01T07:36:03Z</time>
      </trkpt>
      <trkpt lat="47.10319" lon="7.21729">
        <ele>447.6</ele>
        <time>2022-10-01T07:36:04Z</time>
      </trkpt>
      <trkpt lat="47.10318" lon="7.21731">
        <ele>447.6</ele>
        <time>2022-10-01T07:36:05Z</time>
      </trkpt>
      <trkpt lat="47.10317" lon="7.21732">
        <ele>447.7</ele>
        <time>2022-10-01T07:36:06Z</time>
      </trkpt>
      <trkpt lat="47.10316" lon="7.21735">
        <ele>447.8</ele>
        <time>2022-10-01T07:36:07Z</time>
      </trkpt>
      <trkpt lat="47.10315" lon="7.21735">
        <ele>447.8</ele>
        <time>2022-10-01T07:36:08Z</time>
      </trkpt>
      <trkpt lat="47.10314" lon="7.21737">
        <ele>447.9</ele>
        <time>2022-10-01T07:36:09Z</time>
      </trkpt>
      <trkpt lat="47.10313" lon="7.21739">
        <ele>447.9</ele>
        <time>2022-10-01T07:36:10Z</time>
      </trkpt>
      <trkpt lat="47.10312" lon="7.2174">
        <ele>448</ele>
        <time>2022-10-01T07:36:11Z</time>
      </trkpt>
      <trkpt lat="47.10311" lon="7.21742">
        <ele>448.1</ele>
        <time>2022-10-01T07:36:12Z</time>
      </trkpt>
      <trkpt lat="47.1031" lon="7.21743">
        <ele>448.1</ele>
        <time>2022-10-01T07:36:13Z</time>
      </trkpt>
      <trkpt lat="47.1031" lon="7.21744">
        <ele>448.1</ele>
        <time>2022-10-01T07:36:14Z</time>
      </trkpt>
      <trkpt lat="47.1031" lon="7.21746">
        <ele>448.2</ele>
        <time>2022-10-01T07:36:15Z</time>
      </trkpt>
      <trkpt lat="47.10308" lon="7.21749">
        <ele>448.3</ele>
        <time>2022-10-01T07:36:16Z</time>
      </trkpt>
      <trkpt lat="47.10307" lon="7.2175">
        <ele>448.4</ele>
        <time>2022-10-01T07:36:17Z</time>
      </trkpt>
      <trkpt lat="47.10306" lon="7.21752">
        <ele>448.4</ele>
        <time>2022-10-01T07:36:18Z</time>
      </trkpt>
      <trkpt lat="47.10305" lon="7.21754">
        <ele>448.5</ele>
        <time>2022-10-01T07:36:19Z</time>
      </trkpt>
      <trkpt lat="47.10304" lon="7.21756">
        <ele>448.6</ele>
        <time>2022-10-01T07:36:20Z</time>
      </trkpt>
      <trkpt lat="47.10301" lon="7.21755">
        <ele>448.7</ele>
        <time>2022-10-01T07:36:21Z</time>
      </trkpt>
      <trkpt lat="47.103" lon="7.21756">
        <ele>448.7</ele>
        <time>2022-10-01T07:36:22Z</time>
      </trkpt>
      <trkpt lat="47.10299" lon="7.21757">
        <ele>448.8</ele>
        <time>2022-10-01T07:36:23Z</time>
      </trkpt>
      <trkpt lat="47.10299" lon="7.2176">
        <ele>448.9</ele>
        <time>2022-10-01T07:36:24Z</time>
      </trkpt>
      <trkpt lat="47.10298" lon="7.21762">
        <ele>448.9</ele>
        <time>2022-10-01T07:36:25Z</time>
      </trkpt>
      <trkpt lat="47.10297" lon="7.21763">
        <ele>449</ele>
        <time>2022-10-01T07:36:26Z</time>
      </trkpt>
      <trkpt lat="47.10297" lon="7.21764">
        <ele>449</ele>
        <time>2022-10-01T07:36:27Z</time>
      </trkpt>
      <trkpt lat="47.10298" lon="7.21765">
        <ele>449</ele>
        <time>2022-10-01T07:36:28Z</time>
      </trkpt>
      <trkpt lat="47.10298" lon="7.21767">
        <ele>449.1</ele>
        <time>2022-10-01T07:36:29Z</time>
      </trkpt>
      <trkpt lat="47.10298" lon="7.21768">
        <ele>449.1</ele>
        <time>2022-10-01T07:36:30Z</time>
      </trkpt>
      <trkpt lat="47.10299" lon="7.21769">
        <ele>449.1</ele>
        <time>2022-10-01T07:36:31Z</time>
      </trkpt>
      <trkpt lat="47.10299" lon="7.21773">
        <ele>449.2</ele>
        <time>2022-10-01T07:36:32Z</time>
      </trkpt>
      <trkpt lat="47.10298" lon="7.21775">
        <ele>449.3</ele>
        <time>2022-10-01T07:36:33Z</time>
      </trkpt>
      <trkpt lat="47.10298" lon="7.21776">
        <ele>449.3</ele>
        <time>2022-10-01T07:36:34Z</time>
      </trkpt>
      <trkpt lat="47.10297" lon="7.21778">
        <ele>449.4</ele>
        <time>2022-10-01T07:36:35Z</time>
      </trkpt>
      <trkpt lat="47.10297" lon="7.2178">
        <ele>449.4</ele>
        <time>2022-10-01T07:36:53Z</time>
      </trkpt>
      <trkpt lat="47.10296" lon="7.21782">
        <ele>449.5</ele>
        <time>2022-10-01T07:36:54Z</time>
      </trkpt>
      <trkpt lat="47.10296" lon="7.21784">
        <ele>449.5</ele>
        <time>2022-10-01T07:36:55Z</time>
      </trkpt>
      <trkpt lat="47.10296" lon="7.21786">
        <ele>449.5</ele>
        <time>2022-10-01T07:36:56Z</time>
      </trkpt>
      <trkpt lat="47.10295" lon="7.21787">
        <ele>449.6</ele>
        <time>2022-10-01T07:36:57Z</time>
      </trkpt>
      <trkpt lat="47.10294" lon="7.21788">
        <ele>449.6</ele>
        <time>2022-10-01T07:36:58Z</time>
      </trkpt>
      <trkpt lat="47.10294" lon="7.2179">
        <ele>449.7</ele>
        <time>2022-10-01T07:36:59Z</time>
      </trkpt>
      <trkpt lat="47.10294" lon="7.21795">
        <ele>449.8</ele>
        <time>2022-10-01T07:37:00Z</time>
      </trkpt>
      <trkpt lat="47.10294" lon="7.21797">
        <ele>449.8</ele>
        <time>2022-10-01T07:37:01Z</time>
      </trkpt>
      <trkpt lat="47.10301" lon="7.21792">
        <ele>450</ele>
        <time>2022-10-01T07:37:02Z</time>
      </trkpt>
      <trkpt lat="47.10306" lon="7.21785">
        <ele>450.2</ele>
        <time>2022-10-01T07:38:48Z</time>
      </trkpt>
      <trkpt lat="47.10311" lon="7.21778">
        <ele>450.4</ele>
        <time>2022-10-01T07:38:49Z</time>
      </trkpt>
      <trkpt lat="47.10308" lon="7.21776">
        <ele>450.5</ele>
        <time>2022-10-01T07:38:50Z</time>
      </trkpt>
      <trkpt lat="47.10307" lon="7.21775">
        <ele>450.5</ele>
        <time>2022-10-01T07:38:51Z</time>
      </trkpt>
      <trkpt lat="47.10302" lon="7.21774">
        <ele>450.6</ele>
        <time>2022-10-01T07:38:52Z</time>
      </trkpt>
      <trkpt lat="47.103" lon="7.21773">
        <ele>450.6</ele>
        <time>2022-10-01T07:38:53Z</time>
      </trkpt>
      <trkpt lat="47.10297" lon="7.21771">
        <ele>450.6</ele>
        <time>2022-10-01T07:38:54Z</time>
      </trkpt>
      <trkpt lat="47.10296" lon="7.21771">
        <ele>450.8</ele>
        <time>2022-10-01T07:38:55Z</time>
      </trkpt>
      <trkpt lat="47.10293" lon="7.21769">
        <ele>450.8</ele>
        <time>2022-10-01T07:38:56Z</time>
      </trkpt>
      <trkpt lat="47.10289" lon="7.21764">
        <ele>450.2</ele>
        <time>2022-10-01T07:38:57Z</time>
      </trkpt>
      <trkpt lat="47.10285" lon="7.21761">
        <ele>450.2</ele>
        <time>2022-10-01T07:38:58Z</time>
      </trkpt>
      <trkpt lat="47.10281" lon="7.21757">
        <ele>450.3</ele>
        <time>2022-10-01T07:38:59Z</time>
      </trkpt>
      <trkpt lat="47.10276" lon="7.21754">
        <ele>450.3</ele>
        <time>2022-10-01T07:39:00Z</time>
      </trkpt>
      <trkpt lat="47.1027" lon="7.2175">
        <ele>450.4</ele>
        <time>2022-10-01T07:39:01Z</time>
      </trkpt>
      <trkpt lat="47.10262" lon="7.21748">
        <ele>449.8</ele>
        <time>2022-10-01T07:39:02Z</time>
      </trkpt>
      <trkpt lat="47.10256" lon="7.21744">
        <ele>450</ele>
        <time>2022-10-01T07:39:03Z</time>
      </trkpt>
      <trkpt lat="47.10248" lon="7.21737">
        <ele>450.2</ele>
        <time>2022-10-01T07:39:04Z</time>
      </trkpt>
      <trkpt lat="47.10242" lon="7.2173">
        <ele>449.7</ele>
        <time>2022-10-01T07:39:05Z</time>
      </trkpt>
      <trkpt lat="47.10237" lon="7.21738">
        <ele>450.5</ele>
        <time>2022-10-01T07:39:06Z</time>
      </trkpt>
      <trkpt lat="47.10232" lon="7.21737">
        <ele>450.5</ele>
        <time>2022-10-01T07:39:07Z</time>
      </trkpt>
      <trkpt lat="47.10229" lon="7.21731">
        <ele>450</ele>
        <time>2022-10-01T07:39:08Z</time>
      </trkpt>
      <trkpt lat="47.10211" lon="7.2172">
        <ele>450.7</ele>
        <time>2022-10-01T07:39:09Z</time>
      </trkpt>
      <trkpt lat="47.10233" lon="7.21751">
        <ele>451</ele>
        <time>2022-10-01T07:39:10Z</time>
      </trkpt>
      <trkpt lat="47.10248" lon="7.21756">
        <ele>450.8</ele>
        <time>2022-10-01T07:39:11Z</time>
      </trkpt>
      <trkpt lat="47.10266" lon="7.21764">
        <ele>450.4</ele>
        <time>2022-10-01T07:39:12Z</time>
      </trkpt>
      <trkpt lat="47.10263" lon="7.21768">
        <ele>450.9</ele>
        <time>2022-10-01T07:39:13Z</time>
      </trkpt>
      <trkpt lat="47.10259" lon="7.2177">
        <ele>451</ele>
        <time>2022-10-01T07:39:14Z</time>
      </trkpt>
      <trkpt lat="47.1027" lon="7.21769">
        <ele>450.9</ele>
        <time>2022-10-01T07:39:15Z</time>
      </trkpt>
      <trkpt lat="47.10283" lon="7.21772">
        <ele>450.8</ele>
        <time>2022-10-01T07:39:16Z</time>
      </trkpt>
      <trkpt lat="47.10293" lon="7.21779">
        <ele>450.7</ele>
        <time>2022-10-01T07:39:17Z</time>
      </trkpt>
      <trkpt lat="47.103" lon="7.21783">
        <ele>450.6</ele>
        <time>2022-10-01T07:39:18Z</time>
      </trkpt>
      <trkpt lat="47.10307" lon="7.21788">
        <ele>451.1</ele>
        <time>2022-10-01T07:39:19Z</time>
      </trkpt>
      <trkpt lat="47.10306" lon="7.21787">
        <ele>451.1</ele>
        <time>2022-10-01T07:39:20Z</time>
      </trkpt>
      <trkpt lat="47.10304" lon="7.21785">
        <ele>451.1</ele>
        <time>2022-10-01T07:39:21Z</time>
      </trkpt>
      <trkpt lat="47.10302" lon="7.21784">
        <ele>450.5</ele>
        <time>2022-10-01T07:39:22Z</time>
      </trkpt>
      <trkpt lat="47.10299" lon="7.21781">
        <ele>450.5</ele>
        <time>2022-10-01T07:39:23Z</time>
      </trkpt>
      <trkpt lat="47.10298" lon="7.21782">
        <ele>450.5</ele>
        <time>2022-10-01T07:39:24Z</time>
      </trkpt>
      <trkpt lat="47.103" lon="7.21783">
        <ele>450.5</ele>
        <time>2022-10-01T07:39:25Z</time>
      </trkpt>
      <trkpt lat="47.10302" lon="7.21783">
        <ele>450.5</ele>
        <time>2022-10-01T07:39:26Z</time>
      </trkpt>
      <trkpt lat="47.10299" lon="7.2178">
        <ele>450.5</ele>
        <time>2022-10-01T07:39:27Z</time>
      </trkpt>
      <trkpt lat="47.10298" lon="7.21778">
        <ele>450.5</ele>
        <time>2022-10-01T07:39:28Z</time>
      </trkpt>
      <trkpt lat="47.10295" lon="7.21776">
        <ele>450.7</ele>
        <time>2022-10-01T07:39:29Z</time>
      </trkpt>
      <trkpt lat="47.10293" lon="7.21773">
        <ele>450.7</ele>
        <time>2022-10-01T07:39:30Z</time>
      </trkpt>
      <trkpt lat="47.10289" lon="7.21768">
        <ele>450.6</ele>
        <time>2022-10-01T07:39:31Z</time>
      </trkpt>
      <trkpt lat="47.10285" lon="7.21764">
        <ele>450.2</ele>
        <time>2022-10-01T07:39:32Z</time>
      </trkpt>
      <trkpt lat="47.10281" lon="7.2176">
        <ele>450.2</ele>
        <time>2022-10-01T07:39:33Z</time>
      </trkpt>
      <trkpt lat="47.10275" lon="7.21755">
        <ele>450.2</ele>
        <time>2022-10-01T07:39:35Z</time>
      </trkpt>
      <trkpt lat="47.10271" lon="7.2175">
        <ele>449.7</ele>
        <time>2022-10-01T07:39:36Z</time>
      </trkpt>
      <trkpt lat="47.10268" lon="7.21755">
        <ele>450.3</ele>
        <time>2022-10-01T07:39:37Z</time>
      </trkpt>
      <trkpt lat="47.10264" lon="7.21753">
        <ele>450.3</ele>
        <time>2022-10-01T07:39:38Z</time>
      </trkpt>
      <trkpt lat="47.1026" lon="7.21756">
        <ele>450.5</ele>
        <time>2022-10-01T07:39:39Z</time>
      </trkpt>
      <trkpt lat="47.10259" lon="7.21759">
        <ele>450.5</ele>
        <time>2022-10-01T07:39:40Z</time>
      </trkpt>
      <trkpt lat="47.10258" lon="7.2176">
        <ele>450.5</ele>
        <time>2022-10-01T07:39:41Z</time>
      </trkpt>
      <trkpt lat="47.10257" lon="7.21761">
        <ele>450.5</ele>
        <time>2022-10-01T07:39:42Z</time>
      </trkpt>
      <trkpt lat="47.10254" lon="7.2176">
        <ele>450.5</ele>
        <time>2022-10-01T07:39:43Z</time>
      </trkpt>
      <trkpt lat="47.10256" lon="7.21767">
        <ele>450.5</ele>
        <time>2022-10-01T07:39:44Z</time>
      </trkpt>
      <trkpt lat="47.10258" lon="7.21772">
        <ele>450.9</ele>
        <time>2022-10-01T07:39:45Z</time>
      </trkpt>
      <trkpt lat="47.10259" lon="7.21778">
        <ele>450.9</ele>
        <time>2022-10-01T07:39:46Z</time>
      </trkpt>
      <trkpt lat="47.10264" lon="7.21782">
        <ele>450.8</ele>
        <time>2022-10-01T07:39:47Z</time>
      </trkpt>
      <trkpt lat="47.10269" lon="7.21786">
        <ele>451.2</ele>
        <time>2022-10-01T07:39:48Z</time>
      </trkpt>
      <trkpt lat="47.10272" lon="7.21789">
        <ele>451.2</ele>
        <time>2022-10-01T07:39:49Z</time>
      </trkpt>
      <trkpt lat="47.10275" lon="7.21788">
        <ele>451.2</ele>
        <time>2022-10-01T07:39:50Z</time>
      </trkpt>
      <trkpt lat="47.10272" lon="7.21786">
        <ele>451.2</ele>
        <time>2022-10-01T07:39:51Z</time>
      </trkpt>
      <trkpt lat="47.10276" lon="7.21785">
        <ele>451.2</ele>
        <time>2022-10-01T07:39:52Z</time>
      </trkpt>
      <trkpt lat="47.10278" lon="7.21785">
        <ele>451.2</ele>
        <time>2022-10-01T07:39:53Z</time>
      </trkpt>
      <trkpt lat="47.10284" lon="7.21786">
        <ele>451.2</ele>
        <time>2022-10-01T07:39:54Z</time>
      </trkpt>
      <trkpt lat="47.10282" lon="7.21784">
        <ele>450.7</ele>
        <time>2022-10-01T07:39:55Z</time>
      </trkpt>
      <trkpt lat="47.10279" lon="7.21781">
        <ele>450.7</ele>
        <time>2022-10-01T07:39:56Z</time>
      </trkpt>
      <trkpt lat="47.10281" lon="7.21781">
        <ele>450.7</ele>
        <time>2022-10-01T07:39:57Z</time>
      </trkpt>
      <trkpt lat="47.10284" lon="7.21781">
        <ele>450.7</ele>
        <time>2022-10-01T07:39:58Z</time>
      </trkpt>
      <trkpt lat="47.10291" lon="7.21788">
        <ele>451.1</ele>
        <time>2022-10-01T07:39:59Z</time>
      </trkpt>
      <trkpt lat="47.10294" lon="7.2179">
        <ele>451.1</ele>
        <time>2022-10-01T07:40:00Z</time>
      </trkpt>
      <trkpt lat="47.10297" lon="7.21791">
        <ele>451</ele>
        <time>2022-10-01T07:40:01Z</time>
      </trkpt>
      <trkpt lat="47.10296" lon="7.2179">
        <ele>451.1</ele>
        <time>2022-10-01T07:40:02Z</time>
      </trkpt>
      <trkpt lat="47.10296" lon="7.2179">
        <ele>451.1</ele>
        <time>2022-10-01T07:40:03Z</time>
      </trkpt>
      <trkpt lat="47.10295" lon="7.21791">
        <ele>451.1</ele>
        <time>2022-10-01T07:40:04Z</time>
      </trkpt>
      <trkpt lat="47.10296" lon="7.21791">
        <ele>451.1</ele>
        <time>2022-10-01T07:40:05Z</time>
      </trkpt>
      <trkpt lat="47.10294" lon="7.2179">
        <ele>451.1</ele>
        <time>2022-10-01T07:40:06Z</time>
      </trkpt>
      <trkpt lat="47.10296" lon="7.21791">
        <ele>451.1</ele>
        <time>2022-10-01T07:40:07Z</time>
      </trkpt>
      <trkpt lat="47.10297" lon="7.21794">
        <ele>451</ele>
        <time>2022-10-01T07:40:08Z</time>
      </trkpt>
      <trkpt lat="47.10299" lon="7.21796">
        <ele>451</ele>
        <time>2022-10-01T07:40:09Z</time>
      </trkpt>
      <trkpt lat="47.10306" lon="7.21797">
        <ele>451</ele>
        <time>2022-10-01T07:40:10Z</time>
      </trkpt>
      <trkpt lat="47.10315" lon="7.21797">
        <ele>450.8</ele>
        <time>2022-10-01T07:49:42Z</time>
      </trkpt>
      <trkpt lat="47.10323" lon="7.21797">
        <ele>450.6</ele>
        <time>2022-10-01T07:49:43Z</time>
      </trkpt>
      <trkpt lat="47.10321" lon="7.21796">
        <ele>450.6</ele>
        <time>2022-10-01T07:49:44Z</time>
      </trkpt>
      <trkpt lat="47.10319" lon="7.21795">
        <ele>450.8</ele>
        <time>2022-10-01T07:49:45Z</time>
      </trkpt>
      <trkpt lat="47.10316" lon="7.21794">
        <ele>450.8</ele>
        <time>2022-10-01T07:49:46Z</time>
      </trkpt>
      <trkpt lat="47.10314" lon="7.21794">
        <ele>450.8</ele>
        <time>2022-10-01T07:49:47Z</time>
      </trkpt>
      <trkpt lat="47.10312" lon="7.21793">
        <ele>450.8</ele>
        <time>2022-10-01T07:49:48Z</time>
      </trkpt>
      <trkpt lat="47.1031" lon="7.21793">
        <ele>450.8</ele>
        <time>2022-10-01T07:49:49Z</time>
      </trkpt>
      <trkpt lat="47.10308" lon="7.21792">
        <ele>451</ele>
        <time>2022-10-01T07:49:50Z</time>
      </trkpt>
      <trkpt lat="47.10305" lon="7.21791">
        <ele>451</ele>
        <time>2022-10-01T07:49:51Z</time>
      </trkpt>
      <trkpt lat="47.10303" lon="7.21791">
        <ele>451</ele>
        <time>2022-10-01T07:49:52Z</time>
      </trkpt>
      <trkpt lat="47.10301" lon="7.2179">
        <ele>451</ele>
        <time>2022-10-01T07:52:15Z</time>
      </trkpt>
      <trkpt lat="47.10299" lon="7.2179">
        <ele>450.9</ele>
        <time>2022-10-01T07:52:16Z</time>
      </trkpt>
      <trkpt lat="47.10297" lon="7.21789">
        <ele>450.9</ele>
        <time>2022-10-01T07:52:17Z</time>
      </trkpt>
      <trkpt lat="47.10299" lon="7.21799">
        <ele>450.9</ele>
        <time>2022-10-01T07:52:18Z</time>
      </trkpt>
      <trkpt lat="47.10303" lon="7.21811">
        <ele>451.5</ele>
        <time>2022-10-01T07:52:19Z</time>
      </trkpt>
      <trkpt lat="47.10307" lon="7.21822">
        <ele>452</ele>
        <time>2022-10-01T07:52:20Z</time>
      </trkpt>
      <trkpt lat="47.10307" lon="7.21821">
        <ele>452</ele>
        <time>2022-10-01T07:52:21Z</time>
      </trkpt>
      <trkpt lat="47.10309" lon="7.21817">
        <ele>451.4</ele>
        <time>2022-10-01T07:52:22Z</time>
      </trkpt>
      <trkpt lat="47.10312" lon="7.2182">
        <ele>451.9</ele>
        <time>2022-10-01T07:52:23Z</time>
      </trkpt>
      <trkpt lat="47.10312" lon="7.21821">
        <ele>451.9</ele>
        <time>2022-10-01T07:52:24Z</time>
      </trkpt>
      <trkpt lat="47.10312" lon="7.21813">
        <ele>451.4</ele>
        <time>2022-10-01T07:52:43Z</time>
      </trkpt>
      <trkpt lat="47.10313" lon="7.21805">
        <ele>451.4</ele>
        <time>2022-10-01T07:52:44Z</time>
      </trkpt>
      <trkpt lat="47.10311" lon="7.21806">
        <ele>451.4</ele>
        <time>2022-10-01T07:52:45Z</time>
      </trkpt>
      <trkpt lat="47.10311" lon="7.21808">
        <ele>451.4</ele>
        <time>2022-10-01T07:52:46Z</time>
      </trkpt>
      <trkpt lat="47.1031" lon="7.2181">
        <ele>451.4</ele>
        <time>2022-10-01T07:52:47Z</time>
      </trkpt>
      <trkpt lat="47.10311" lon="7.2181">
        <ele>451.4</ele>
        <time>2022-10-01T07:52:48Z</time>
      </trkpt>
      <trkpt lat="47.10311" lon="7.2181">
        <ele>451.4</ele>
        <time>2022-10-01T07:52:49Z</time>
      </trkpt>
      <trkpt lat="47.10312" lon="7.2181">
        <ele>451.4</ele>
        <time>2022-10-01T07:52:50Z</time>
      </trkpt>
      <trkpt lat="47.10311" lon="7.21812">
        <ele>451.4</ele>
        <time>2022-10-01T07:52:51Z</time>
      </trkpt>
      <trkpt lat="47.10311" lon="7.21813">
        <ele>451.4</ele>
        <time>2022-10-01T07:52:52Z</time>
      </trkpt>
      <trkpt lat="47.10311" lon="7.21814">
        <ele>451.4</ele>
        <time>2022-10-01T07:52:53Z</time>
      </trkpt>
      <trkpt lat="47.1031" lon="7.21815">
        <ele>451.4</ele>
        <time>2022-10-01T07:52:54Z</time>
      </trkpt>
      <trkpt lat="47.10309" lon="7.21816">
        <ele>451.4</ele>
        <time>2022-10-01T07:52:55Z</time>
      </trkpt>
      <trkpt lat="47.10308" lon="7.21817">
        <ele>451.4</ele>
        <time>2022-10-01T07:52:56Z</time>
      </trkpt>
      <trkpt lat="47.10307" lon="7.21818">
        <ele>451.5</ele>
        <time>2022-10-01T07:52:57Z</time>
      </trkpt>
      <trkpt lat="47.10305" lon="7.21821">
        <ele>451.9</ele>
        <time>2022-10-01T07:52:58Z</time>
      </trkpt>
      <trkpt lat="47.10304" lon="7.21822">
        <ele>451.9</ele>
        <time>2022-10-01T07:52:59Z</time>
      </trkpt>
      <trkpt lat="47.10301" lon="7.2182">
        <ele>451.9</ele>
        <time>2022-10-01T07:53:00Z</time>
      </trkpt>
      <trkpt lat="47.103" lon="7.21819">
        <ele>451.9</ele>
        <time>2022-10-01T07:53:01Z</time>
      </trkpt>
      <trkpt lat="47.10299" lon="7.21815">
        <ele>451.5</ele>
        <time>2022-10-01T07:53:02Z</time>
      </trkpt>
      <trkpt lat="47.10298" lon="7.2181">
        <ele>451.5</ele>
        <time>2022-10-01T07:53:03Z</time>
      </trkpt>
      <trkpt lat="47.10295" lon="7.21806">
        <ele>451.5</ele>
        <time>2022-10-01T07:53:04Z</time>
      </trkpt>
      <trkpt lat="47.10295" lon="7.21805">
        <ele>451.5</ele>
        <time>2022-10-01T07:53:05Z</time>
      </trkpt>
      <trkpt lat="47.10293" lon="7.21801">
        <ele>450.9</ele>
        <time>2022-10-01T07:53:06Z</time>
      </trkpt>
      <trkpt lat="47.10292" lon="7.21799">
        <ele>450.9</ele>
        <time>2022-10-01T07:53:07Z</time>
      </trkpt>
      <trkpt lat="47.10292" lon="7.21797">
        <ele>450.9</ele>
        <time>2022-10-01T07:53:08Z</time>
      </trkpt>
      <trkpt lat="47.1029" lon="7.21793">
        <ele>450.9</ele>
        <time>2022-10-01T07:53:09Z</time>
      </trkpt>
      <trkpt lat="47.1029" lon="7.21791">
        <ele>450.9</ele>
        <time>2022-10-01T07:53:10Z</time>
      </trkpt>
      <trkpt lat="47.1029" lon="7.21787">
        <ele>450.9</ele>
        <time>2022-10-01T07:53:11Z</time>
      </trkpt>
      <trkpt lat="47.10291" lon="7.21783">
        <ele>450.9</ele>
        <time>2022-10-01T07:53:12Z</time>
      </trkpt>
      <trkpt lat="47.10295" lon="7.21779">
        <ele>450.8</ele>
        <time>2022-10-01T07:53:13Z</time>
      </trkpt>
      <trkpt lat="47.10296" lon="7.21777">
        <ele>450.7</ele>
        <time>2022-10-01T07:53:14Z</time>
      </trkpt>
      <trkpt lat="47.10299" lon="7.21772">
        <ele>450.6</ele>
        <time>2022-10-01T07:53:15Z</time>
      </trkpt>
      <trkpt lat="47.10302" lon="7.21768">
        <ele>450.5</ele>
        <time>2022-10-01T07:53:16Z</time>
      </trkpt>
      <trkpt lat="47.10305" lon="7.21763">
        <ele>450.4</ele>
        <time>2022-10-01T07:53:17Z</time>
      </trkpt>
      <trkpt lat="47.10307" lon="7.21758">
        <ele>450.2</ele>
        <time>2022-10-01T07:53:18Z</time>
      </trkpt>
      <trkpt lat="47.1031" lon="7.21754">
        <ele>450</ele>
        <time>2022-10-01T07:53:19Z</time>
      </trkpt>
      <trkpt lat="47.10313" lon="7.21748">
        <ele>449.8</ele>
        <time>2022-10-01T07:53:20Z</time>
      </trkpt>
      <trkpt lat="47.10316" lon="7.21743">
        <ele>449.5</ele>
        <time>2022-10-01T07:53:21Z</time>
      </trkpt>
      <trkpt lat="47.10319" lon="7.21736">
        <ele>449.2</ele>
        <time>2022-10-01T07:53:22Z</time>
      </trkpt>
      <trkpt lat="47.10322" lon="7.2173">
        <ele>448.9</ele>
        <time>2022-10-01T07:53:23Z</time>
      </trkpt>
      <trkpt lat="47.10325" lon="7.21724">
        <ele>448.6</ele>
        <time>2022-10-01T07:53:24Z</time>
      </trkpt>
      <trkpt lat="47.10327" lon="7.21718">
        <ele>448.3</ele>
        <time>2022-10-01T07:53:25Z</time>
      </trkpt>
      <trkpt lat="47.10329" lon="7.21712">
        <ele>447.9</ele>
        <time>2022-10-01T07:53:26Z</time>
      </trkpt>
      <trkpt lat="47.10331" lon="7.21706">
        <ele>447.6</ele>
        <time>2022-10-01T07:53:27Z</time>
      </trkpt>
      <trkpt lat="47.10335" lon="7.217">
        <ele>447.2</ele>
        <time>2022-10-01T07:53:28Z</time>
      </trkpt>
      <trkpt lat="47.10339" lon="7.21696">
        <ele>446.9</ele>
        <time>2022-10-01T07:53:29Z</time>
      </trkpt>
      <trkpt lat="47.10342" lon="7.21689">
        <ele>446.5</ele>
        <time>2022-10-01T07:53:30Z</time>
      </trkpt>
      <trkpt lat="47.10346" lon="7.21684">
        <ele>446.2</ele>
        <time>2022-10-01T07:53:31Z</time>
      </trkpt>
      <trkpt lat="47.1035" lon="7.21679">
        <ele>445.9</ele>
        <time>2022-10-01T07:53:32Z</time>
      </trkpt>
      <trkpt lat="47.10353" lon="7.21673">
        <ele>445.6</ele>
        <time>2022-10-01T07:53:33Z</time>
      </trkpt>
      <trkpt lat="47.10357" lon="7.21668">
        <ele>445.3</ele>
        <time>2022-10-01T07:53:34Z</time>
      </trkpt>
      <trkpt lat="47.1036" lon="7.21664">
        <ele>445.1</ele>
        <time>2022-10-01T07:53:35Z</time>
      </trkpt>
      <trkpt lat="47.10363" lon="7.21661">
        <ele>444.9</ele>
        <time>2022-10-01T07:53:36Z</time>
      </trkpt>
      <trkpt lat="47.10365" lon="7.21658">
        <ele>444.7</ele>
        <time>2022-10-01T07:53:37Z</time>
      </trkpt>
      <trkpt lat="47.10366" lon="7.21652">
        <ele>444.5</ele>
        <time>2022-10-01T07:53:38Z</time>
      </trkpt>
      <trkpt lat="47.10367" lon="7.2165">
        <ele>444.4</ele>
        <time>2022-10-01T07:53:39Z</time>
      </trkpt>
      <trkpt lat="47.10369" lon="7.21648">
        <ele>444.2</ele>
        <time>2022-10-01T07:53:40Z</time>
      </trkpt>
      <trkpt lat="47.1037" lon="7.21647">
        <ele>444.2</ele>
        <time>2022-10-01T07:53:41Z</time>
      </trkpt>
      <trkpt lat="47.10373" lon="7.21648">
        <ele>444</ele>
        <time>2022-10-01T07:53:42Z</time>
      </trkpt>
      <trkpt lat="47.10376" lon="7.2165">
        <ele>444.2</ele>
        <time>2022-10-01T07:53:43Z</time>
      </trkpt>
      <trkpt lat="47.10379" lon="7.21654">
        <ele>444.2</ele>
        <time>2022-10-01T07:53:44Z</time>
      </trkpt>
      <trkpt lat="47.1038" lon="7.21654">
        <ele>444.3</ele>
        <time>2022-10-01T07:53:45Z</time>
      </trkpt>
      <trkpt lat="47.10383" lon="7.21658">
        <ele>444.4</ele>
        <time>2022-10-01T07:53:46Z</time>
      </trkpt>
      <trkpt lat="47.10384" lon="7.21659">
        <ele>444.4</ele>
        <time>2022-10-01T07:53:47Z</time>
      </trkpt>
      <trkpt lat="47.10389" lon="7.21661">
        <ele>444.5</ele>
        <time>2022-10-01T07:53:48Z</time>
      </trkpt>
      <trkpt lat="47.10391" lon="7.21662">
        <ele>444.5</ele>
        <time>2022-10-01T07:53:49Z</time>
      </trkpt>
      <trkpt lat="47.10395" lon="7.21663">
        <ele>444.5</ele>
        <time>2022-10-01T07:53:50Z</time>
      </trkpt>
      <trkpt lat="47.10398" lon="7.21665">
        <ele>444.5</ele>
        <time>2022-10-01T07:53:51Z</time>
      </trkpt>
      <trkpt lat="47.10402" lon="7.21669">
        <ele>444.5</ele>
        <time>2022-10-01T07:53:52Z</time>
      </trkpt>
      <trkpt lat="47.10406" lon="7.21669">
        <ele>444.5</ele>
        <time>2022-10-01T07:53:53Z</time>
      </trkpt>
      <trkpt lat="47.1041" lon="7.21672">
        <ele>444.4</ele>
        <time>2022-10-01T07:53:54Z</time>
      </trkpt>
      <trkpt lat="47.10413" lon="7.21674">
        <ele>444.3</ele>
        <time>2022-10-01T07:53:55Z</time>
      </trkpt>
      <trkpt lat="47.10417" lon="7.21678">
        <ele>444.2</ele>
        <time>2022-10-01T07:53:56Z</time>
      </trkpt>
      <trkpt lat="47.10422" lon="7.21681">
        <ele>444</ele>
        <time>2022-10-01T07:53:57Z</time>
      </trkpt>
      <trkpt lat="47.10427" lon="7.21684">
        <ele>443.8</ele>
        <time>2022-10-01T07:53:58Z</time>
      </trkpt>
      <trkpt lat="47.10431" lon="7.21688">
        <ele>443.5</ele>
        <time>2022-10-01T07:53:59Z</time>
      </trkpt>
      <trkpt lat="47.10436" lon="7.21692">
        <ele>443.3</ele>
        <time>2022-10-01T07:54:00Z</time>
      </trkpt>
      <trkpt lat="47.10442" lon="7.21696">
        <ele>442.9</ele>
        <time>2022-10-01T07:54:01Z</time>
      </trkpt>
      <trkpt lat="47.10447" lon="7.217">
        <ele>442.5</ele>
        <time>2022-10-01T07:54:02Z</time>
      </trkpt>
      <trkpt lat="47.10453" lon="7.21704">
        <ele>442.1</ele>
        <time>2022-10-01T07:54:03Z</time>
      </trkpt>
      <trkpt lat="47.10458" lon="7.21707">
        <ele>441.7</ele>
        <time>2022-10-01T07:54:04Z</time>
      </trkpt>
      <trkpt lat="47.10464" lon="7.21708">
        <ele>441.2</ele>
        <time>2022-10-01T07:54:05Z</time>
      </trkpt>
      <trkpt lat="47.10469" lon="7.2171">
        <ele>440.6</ele>
        <time>2022-10-01T07:54:06Z</time>
      </trkpt>
      <trkpt lat="47.10475" lon="7.21709">
        <ele>440.1</ele>
        <time>2022-10-01T07:54:07Z</time>
      </trkpt>
      <trkpt lat="47.10481" lon="7.2171">
        <ele>439.5</ele>
        <time>2022-10-01T07:54:08Z</time>
      </trkpt>
      <trkpt lat="47.10486" lon="7.2171">
        <ele>438.9</ele>
        <time>2022-10-01T07:54:09Z</time>
      </trkpt>
      <trkpt lat="47.10492" lon="7.2171">
        <ele>438.4</ele>
        <time>2022-10-01T07:54:10Z</time>
      </trkpt>
      <trkpt lat="47.10498" lon="7.21709">
        <ele>437.9</ele>
        <time>2022-10-01T07:54:11Z</time>
      </trkpt>
      <trkpt lat="47.10503" lon="7.21708">
        <ele>437.5</ele>
        <time>2022-10-01T07:54:12Z</time>
      </trkpt>
      <trkpt lat="47.10508" lon="7.21709">
        <ele>437.1</ele>
        <time>2022-10-01T07:54:13Z</time>
      </trkpt>
      <trkpt lat="47.10513" lon="7.21711">
        <ele>436.8</ele>
        <time>2022-10-01T07:54:14Z</time>
      </trkpt>
      <trkpt lat="47.10518" lon="7.21711">
        <ele>436.5</ele>
        <time>2022-10-01T07:54:15Z</time>
      </trkpt>
      <trkpt lat="47.10524" lon="7.2171">
        <ele>436.2</ele>
        <time>2022-10-01T07:54:16Z</time>
      </trkpt>
      <trkpt lat="47.10531" lon="7.21712">
        <ele>435.9</ele>
        <time>2022-10-01T07:54:17Z</time>
      </trkpt>
      <trkpt lat="47.10537" lon="7.21712">
        <ele>435.7</ele>
        <time>2022-10-01T07:54:18Z</time>
      </trkpt>
      <trkpt lat="47.10543" lon="7.21712">
        <ele>435.5</ele>
        <time>2022-10-01T07:54:19Z</time>
      </trkpt>
      <trkpt lat="47.10549" lon="7.21713">
        <ele>435.3</ele>
        <time>2022-10-01T07:54:20Z</time>
      </trkpt>
      <trkpt lat="47.10555" lon="7.21715">
        <ele>435.2</ele>
        <time>2022-10-01T07:54:21Z</time>
      </trkpt>
      <trkpt lat="47.10562" lon="7.21715">
        <ele>435.1</ele>
        <time>2022-10-01T07:54:22Z</time>
      </trkpt>
      <trkpt lat="47.10568" lon="7.21717">
        <ele>435.1</ele>
        <time>2022-10-01T07:54:23Z</time>
      </trkpt>
      <trkpt lat="47.10574" lon="7.21719">
        <ele>435</ele>
        <time>2022-10-01T07:54:24Z</time>
      </trkpt>
      <trkpt lat="47.10579" lon="7.21721">
        <ele>435</ele>
        <time>2022-10-01T07:54:25Z</time>
      </trkpt>
      <trkpt lat="47.10585" lon="7.21723">
        <ele>435</ele>
        <time>2022-10-01T07:54:26Z</time>
      </trkpt>
      <trkpt lat="47.10589" lon="7.21728">
        <ele>434.9</ele>
        <time>2022-10-01T07:54:27Z</time>
      </trkpt>
      <trkpt lat="47.10594" lon="7.21732">
        <ele>434.9</ele>
        <time>2022-10-01T07:54:28Z</time>
      </trkpt>
      <trkpt lat="47.10601" lon="7.21734">
        <ele>434.9</ele>
        <time>2022-10-01T07:54:29Z</time>
      </trkpt>
      <trkpt lat="47.10606" lon="7.21736">
        <ele>434.8</ele>
        <time>2022-10-01T07:54:30Z</time>
      </trkpt>
      <trkpt lat="47.10612" lon="7.21739">
        <ele>434.8</ele>
        <time>2022-10-01T07:54:31Z</time>
      </trkpt>
      <trkpt lat="47.10617" lon="7.21741">
        <ele>434.8</ele>
        <time>2022-10-01T07:54:32Z</time>
      </trkpt>
      <trkpt lat="47.10623" lon="7.21743">
        <ele>434.7</ele>
        <time>2022-10-01T07:54:33Z</time>
      </trkpt>
      <trkpt lat="47.10628" lon="7.21746">
        <ele>434.7</ele>
        <time>2022-10-01T07:54:34Z</time>
      </trkpt>
      <trkpt lat="47.10633" lon="7.21749">
        <ele>434.7</ele>
        <time>2022-10-01T07:54:35Z</time>
      </trkpt>
      <trkpt lat="47.10638" lon="7.21753">
        <ele>434.6</ele>
        <time>2022-10-01T07:54:36Z</time>
      </trkpt>
      <trkpt lat="47.10643" lon="7.21755">
        <ele>434.6</ele>
        <time>2022-10-01T07:54:37Z</time>
      </trkpt>
      <trkpt lat="47.10648" lon="7.21758">
        <ele>434.6</ele>
        <time>2022-10-01T07:54:38Z</time>
      </trkpt>
      <trkpt lat="47.10653" lon="7.21761">
        <ele>434.5</ele>
        <time>2022-10-01T07:54:39Z</time>
      </trkpt>
      <trkpt lat="47.10657" lon="7.21765">
        <ele>434.5</ele>
        <time>2022-10-01T07:54:40Z</time>
      </trkpt>
      <trkpt lat="47.10662" lon="7.2177">
        <ele>434.4</ele>
        <time>2022-10-01T07:54:41Z</time>
      </trkpt>
      <trkpt lat="47.10666" lon="7.21774">
        <ele>434.4</ele>
        <time>2022-10-01T07:54:42Z</time>
      </trkpt>
      <trkpt lat="47.10671" lon="7.21779">
        <ele>434.3</ele>
        <time>2022-10-01T07:54:43Z</time>
      </trkpt>
      <trkpt lat="47.10676" lon="7.21783">
        <ele>434.3</ele>
        <time>2022-10-01T07:54:44Z</time>
      </trkpt>
      <trkpt lat="47.10681" lon="7.21787">
        <ele>434.2</ele>
        <time>2022-10-01T07:54:45Z</time>
      </trkpt>
      <trkpt lat="47.10685" lon="7.21791">
        <ele>434.2</ele>
        <time>2022-10-01T07:54:46Z</time>
      </trkpt>
      <trkpt lat="47.10689" lon="7.21796">
        <ele>434.1</ele>
        <time>2022-10-01T07:54:47Z</time>
      </trkpt>
      <trkpt lat="47.10693" lon="7.21802">
        <ele>434.1</ele>
        <time>2022-10-01T07:54:48Z</time>
      </trkpt>
      <trkpt lat="47.10696" lon="7.2181">
        <ele>434</ele>
        <time>2022-10-01T07:54:49Z</time>
      </trkpt>
      <trkpt lat="47.107" lon="7.21817">
        <ele>434</ele>
        <time>2022-10-01T07:54:50Z</time>
      </trkpt>
      <trkpt lat="47.10703" lon="7.21824">
        <ele>433.9</ele>
        <time>2022-10-01T07:54:51Z</time>
      </trkpt>
      <trkpt lat="47.10706" lon="7.21832">
        <ele>433.9</ele>
        <time>2022-10-01T07:54:52Z</time>
      </trkpt>
      <trkpt lat="47.10709" lon="7.21839">
        <ele>433.9</ele>
        <time>2022-10-01T07:54:53Z</time>
      </trkpt>
      <trkpt lat="47.10712" lon="7.21845">
        <ele>433.8</ele>
        <time>2022-10-01T07:54:54Z</time>
      </trkpt>
      <trkpt lat="47.10716" lon="7.21851">
        <ele>433.8</ele>
        <time>2022-10-01T07:54:55Z</time>
      </trkpt>
      <trkpt lat="47.10719" lon="7.21856">
        <ele>433.8</ele>
        <time>2022-10-01T07:54:56Z</time>
      </trkpt>
      <trkpt lat="47.10723" lon="7.21862">
        <ele>433.8</ele>
        <time>2022-10-01T07:54:57Z</time>
      </trkpt>
      <trkpt lat="47.10727" lon="7.21867">
        <ele>433.8</ele>
        <time>2022-10-01T07:54:58Z</time>
      </trkpt>
      <trkpt lat="47.10731" lon="7.21872">
        <ele>433.7</ele>
        <time>2022-10-01T07:54:59Z</time>
      </trkpt>
      <trkpt lat="47.10736" lon="7.21875">
        <ele>433.7</ele>
        <time>2022-10-01T07:55:00Z</time>
      </trkpt>
      <trkpt lat="47.10741" lon="7.21877">
        <ele>433.7</ele>
        <time>2022-10-01T07:55:01Z</time>
      </trkpt>
      <trkpt lat="47.10746" lon="7.21881">
        <ele>433.7</ele>
        <time>2022-10-01T07:55:02Z</time>
      </trkpt>
      <trkpt lat="47.10752" lon="7.21883">
        <ele>433.8</ele>
        <time>2022-10-01T07:55:03Z</time>
      </trkpt>
      <trkpt lat="47.10757" lon="7.21884">
        <ele>433.8</ele>
        <time>2022-10-01T07:55:04Z</time>
      </trkpt>
      <trkpt lat="47.10762" lon="7.21885">
        <ele>433.8</ele>
        <time>2022-10-01T07:55:05Z</time>
      </trkpt>
      <trkpt lat="47.10767" lon="7.21887">
        <ele>433.8</ele>
        <time>2022-10-01T07:55:06Z</time>
      </trkpt>
      <trkpt lat="47.10773" lon="7.21887">
        <ele>433.8</ele>
        <time>2022-10-01T07:55:07Z</time>
      </trkpt>
      <trkpt lat="47.10779" lon="7.21887">
        <ele>433.8</ele>
        <time>2022-10-01T07:55:08Z</time>
      </trkpt>
      <trkpt lat="47.10784" lon="7.21889">
        <ele>433.8</ele>
        <time>2022-10-01T07:55:09Z</time>
      </trkpt>
      <trkpt lat="47.10789" lon="7.21889">
        <ele>433.8</ele>
        <time>2022-10-01T07:55:10Z</time>
      </trkpt>
      <trkpt lat="47.10796" lon="7.21889">
        <ele>433.8</ele>
        <time>2022-10-01T07:55:11Z</time>
      </trkpt>
      <trkpt lat="47.108" lon="7.21891">
        <ele>433.8</ele>
        <time>2022-10-01T07:55:12Z</time>
      </trkpt>
      <trkpt lat="47.10805" lon="7.21891">
        <ele>433.8</ele>
        <time>2022-10-01T07:55:13Z</time>
      </trkpt>
      <trkpt lat="47.10811" lon="7.21892">
        <ele>433.9</ele>
        <time>2022-10-01T07:55:14Z</time>
      </trkpt>
      <trkpt lat="47.10816" lon="7.21892">
        <ele>433.9</ele>
        <time>2022-10-01T07:55:15Z</time>
      </trkpt>
      <trkpt lat="47.10821" lon="7.21893">
        <ele>433.9</ele>
        <time>2022-10-01T07:55:16Z</time>
      </trkpt>
      <trkpt lat="47.10826" lon="7.21894">
        <ele>433.9</ele>
        <time>2022-10-01T07:55:17Z</time>
      </trkpt>
      <trkpt lat="47.10831" lon="7.21896">
        <ele>433.9</ele>
        <time>2022-10-01T07:55:18Z</time>
      </trkpt>
      <trkpt lat="47.10836" lon="7.21899">
        <ele>433.9</ele>
        <time>2022-10-01T07:55:19Z</time>
      </trkpt>
      <trkpt lat="47.1084" lon="7.21902">
        <ele>433.9</ele>
        <time>2022-10-01T07:55:20Z</time>
      </trkpt>
      <trkpt lat="47.10846" lon="7.21905">
        <ele>433.9</ele>
        <time>2022-10-01T07:55:21Z</time>
      </trkpt>
      <trkpt lat="47.10851" lon="7.21907">
        <ele>433.9</ele>
        <time>2022-10-01T07:55:22Z</time>
      </trkpt>
      <trkpt lat="47.10857" lon="7.2191">
        <ele>433.9</ele>
        <time>2022-10-01T07:55:23Z</time>
      </trkpt>
      <trkpt lat="47.10861" lon="7.21912">
        <ele>433.9</ele>
        <time>2022-10-01T07:55:24Z</time>
      </trkpt>
      <trkpt lat="47.10866" lon="7.21914">
        <ele>433.9</ele>
        <time>2022-10-01T07:55:25Z</time>
      </trkpt>
      <trkpt lat="47.10871" lon="7.21916">
        <ele>433.9</ele>
        <time>2022-10-01T07:55:26Z</time>
      </trkpt>
      <trkpt lat="47.10875" lon="7.21919">
        <ele>433.9</ele>
        <time>2022-10-01T07:55:27Z</time>
      </trkpt>
      <trkpt lat="47.1088" lon="7.21922">
        <ele>433.9</ele>
        <time>2022-10-01T07:55:28Z</time>
      </trkpt>
      <trkpt lat="47.10884" lon="7.21925">
        <ele>433.9</ele>
        <time>2022-10-01T07:55:29Z</time>
      </trkpt>
      <trkpt lat="47.1089" lon="7.21929">
        <ele>433.9</ele>
        <time>2022-10-01T07:55:30Z</time>
      </trkpt>
      <trkpt lat="47.10895" lon="7.21931">
        <ele>433.9</ele>
        <time>2022-10-01T07:55:31Z</time>
      </trkpt>
      <trkpt lat="47.10901" lon="7.21933">
        <ele>433.9</ele>
        <time>2022-10-01T07:55:32Z</time>
      </trkpt>
      <trkpt lat="47.10905" lon="7.21936">
        <ele>433.9</ele>
        <time>2022-10-01T07:55:33Z</time>
      </trkpt>
      <trkpt lat="47.1091" lon="7.21939">
        <ele>433.9</ele>
        <time>2022-10-01T07:55:34Z</time>
      </trkpt>
      <trkpt lat="47.10915" lon="7.21942">
        <ele>433.9</ele>
        <time>2022-10-01T07:55:35Z</time>
      </trkpt>
      <trkpt lat="47.1092" lon="7.21945">
        <ele>433.9</ele>
        <time>2022-10-01T07:55:36Z</time>
      </trkpt>
      <trkpt lat="47.10926" lon="7.21947">
        <ele>433.9</ele>
        <time>2022-10-01T07:55:37Z</time>
      </trkpt>
      <trkpt lat="47.10932" lon="7.2195">
        <ele>433.9</ele>
        <time>2022-10-01T07:55:38Z</time>
      </trkpt>
      <trkpt lat="47.10937" lon="7.21952">
        <ele>433.9</ele>
        <time>2022-10-01T07:55:39Z</time>
      </trkpt>
      <trkpt lat="47.10942" lon="7.21955">
        <ele>433.9</ele>
        <time>2022-10-01T07:55:40Z</time>
      </trkpt>
      <trkpt lat="47.10948" lon="7.21957">
        <ele>433.9</ele>
        <time>2022-10-01T07:55:41Z</time>
      </trkpt>
      <trkpt lat="47.10954" lon="7.2196">
        <ele>433.9</ele>
        <time>2022-10-01T07:55:42Z</time>
      </trkpt>
      <trkpt lat="47.10959" lon="7.21962">
        <ele>434</ele>
        <time>2022-10-01T07:55:43Z</time>
      </trkpt>
      <trkpt lat="47.10964" lon="7.21963">
        <ele>434</ele>
        <time>2022-10-01T07:55:44Z</time>
      </trkpt>
      <trkpt lat="47.10969" lon="7.21966">
        <ele>434</ele>
        <time>2022-10-01T07:55:45Z</time>
      </trkpt>
      <trkpt lat="47.10973" lon="7.21969">
        <ele>434</ele>
        <time>2022-10-01T07:55:46Z</time>
      </trkpt>
      <trkpt lat="47.10978" lon="7.2197">
        <ele>434</ele>
        <time>2022-10-01T07:55:47Z</time>
      </trkpt>
      <trkpt lat="47.10981" lon="7.21973">
        <ele>434</ele>
        <time>2022-10-01T07:55:48Z</time>
      </trkpt>
      <trkpt lat="47.10982" lon="7.21975">
        <ele>434</ele>
        <time>2022-10-01T07:55:49Z</time>
      </trkpt>
      <trkpt lat="47.10985" lon="7.21979">
        <ele>433.9</ele>
        <time>2022-10-01T07:55:50Z</time>
      </trkpt>
      <trkpt lat="47.10987" lon="7.21984">
        <ele>433.9</ele>
        <time>2022-10-01T07:55:51Z</time>
      </trkpt>
      <trkpt lat="47.10991" lon="7.21986">
        <ele>433.9</ele>
        <time>2022-10-01T07:55:52Z</time>
      </trkpt>
      <trkpt lat="47.10993" lon="7.2199">
        <ele>433.9</ele>
        <time>2022-10-01T07:55:53Z</time>
      </trkpt>
      <trkpt lat="47.10996" lon="7.21993">
        <ele>433.9</ele>
        <time>2022-10-01T07:55:54Z</time>
      </trkpt>
      <trkpt lat="47.10999" lon="7.21995">
        <ele>433.9</ele>
        <time>2022-10-01T07:55:55Z</time>
      </trkpt>
      <trkpt lat="47.11002" lon="7.21998">
        <ele>433.9</ele>
        <time>2022-10-01T07:55:56Z</time>
      </trkpt>
      <trkpt lat="47.11005" lon="7.22">
        <ele>434</ele>
        <time>2022-10-01T07:55:57Z</time>
      </trkpt>
      <trkpt lat="47.11009" lon="7.22003">
        <ele>434</ele>
        <time>2022-10-01T07:55:58Z</time>
      </trkpt>
      <trkpt lat="47.11013" lon="7.22005">
        <ele>434</ele>
        <time>2022-10-01T07:55:59Z</time>
      </trkpt>
      <trkpt lat="47.11016" lon="7.22007">
        <ele>434.1</ele>
        <time>2022-10-01T07:56:00Z</time>
      </trkpt>
      <trkpt lat="47.11019" lon="7.22009">
        <ele>434.1</ele>
        <time>2022-10-01T07:56:01Z</time>
      </trkpt>
      <trkpt lat="47.11021" lon="7.2201">
        <ele>434.1</ele>
        <time>2022-10-01T07:56:02Z</time>
      </trkpt>
      <trkpt lat="47.11023" lon="7.2201">
        <ele>434.1</ele>
        <time>2022-10-01T07:56:03Z</time>
      </trkpt>
      <trkpt lat="47.11023" lon="7.2201">
        <ele>434.1</ele>
        <time>2022-10-01T07:56:04Z</time>
      </trkpt>
      <trkpt lat="47.11024" lon="7.2201">
        <ele>434.1</ele>
        <time>2022-10-01T07:56:05Z</time>
      </trkpt>
      <trkpt lat="47.11024" lon="7.2201">
        <ele>434.1</ele>
        <time>2022-10-01T07:56:06Z</time>
      </trkpt>
      <trkpt lat="47.11024" lon="7.22011">
        <ele>434.1</ele>
        <time>2022-10-01T07:56:07Z</time>
      </trkpt>
      <trkpt lat="47.11025" lon="7.22011">
        <ele>434.2</ele>
        <time>2022-10-01T07:56:08Z</time>
      </trkpt>
      <trkpt lat="47.11027" lon="7.22009">
        <ele>434.2</ele>
        <time>2022-10-01T07:56:09Z</time>
      </trkpt>
      <trkpt lat="47.11028" lon="7.22009">
        <ele>434.2</ele>
        <time>2022-10-01T07:56:10Z</time>
      </trkpt>
      <trkpt lat="47.1103" lon="7.22007">
        <ele>434.2</ele>
        <time>2022-10-01T07:56:11Z</time>
      </trkpt>
      <trkpt lat="47.11031" lon="7.22006">
        <ele>434.2</ele>
        <time>2022-10-01T07:56:12Z</time>
      </trkpt>
      <trkpt lat="47.11032" lon="7.22005">
        <ele>434.2</ele>
        <time>2022-10-01T07:56:13Z</time>
      </trkpt>
      <trkpt lat="47.11034" lon="7.22004">
        <ele>434.2</ele>
        <time>2022-10-01T07:56:14Z</time>
      </trkpt>
      <trkpt lat="47.11036" lon="7.22004">
        <ele>434.3</ele>
        <time>2022-10-01T07:56:15Z</time>
      </trkpt>
      <trkpt lat="47.11038" lon="7.22003">
        <ele>434.3</ele>
        <time>2022-10-01T07:56:16Z</time>
      </trkpt>
      <trkpt lat="47.11039" lon="7.22002">
        <ele>434.3</ele>
        <time>2022-10-01T07:56:17Z</time>
      </trkpt>
      <trkpt lat="47.11039" lon="7.22002">
        <ele>434.3</ele>
        <time>2022-10-01T07:56:18Z</time>
      </trkpt>
      <trkpt lat="47.1104" lon="7.22002">
        <ele>434.3</ele>
        <time>2022-10-01T07:56:19Z</time>
      </trkpt>
      <trkpt lat="47.11041" lon="7.22002">
        <ele>434.3</ele>
        <time>2022-10-01T07:56:20Z</time>
      </trkpt>
      <trkpt lat="47.11042" lon="7.22002">
        <ele>434.3</ele>
        <time>2022-10-01T07:56:21Z</time>
      </trkpt>
      <trkpt lat="47.11042" lon="7.22002">
        <ele>434.3</ele>
        <time>2022-10-01T07:56:22Z</time>
      </trkpt>
      <trkpt lat="47.11042" lon="7.22003">
        <ele>434.3</ele>
        <time>2022-10-01T07:56:23Z</time>
      </trkpt>
      <trkpt lat="47.11042" lon="7.22003">
        <ele>434.3</ele>
        <time>2022-10-01T07:56:24Z</time>
      </trkpt>
      <trkpt lat="47.11042" lon="7.22004">
        <ele>434.3</ele>
        <time>2022-10-01T07:56:25Z</time>
      </trkpt>
      <trkpt lat="47.11042" lon="7.22004">
        <ele>434.3</ele>
        <time>2022-10-01T07:56:26Z</time>
      </trkpt>
      <trkpt lat="47.11042" lon="7.22005">
        <ele>434.3</ele>
        <time>2022-10-01T07:56:27Z</time>
      </trkpt>
      <trkpt lat="47.11042" lon="7.22005">
        <ele>434.3</ele>
        <time>2022-10-01T07:56:28Z</time>
      </trkpt>
      <trkpt lat="47.11042" lon="7.22006">
        <ele>434.3</ele>
        <time>2022-10-01T07:56:29Z</time>
      </trkpt>
      <trkpt lat="47.11042" lon="7.22006">
        <ele>434.3</ele>
        <time>2022-10-01T07:56:30Z</time>
      </trkpt>
      <trkpt lat="47.11042" lon="7.22006">
        <ele>434.3</ele>
        <time>2022-10-01T07:56:31Z</time>
      </trkpt>
      <trkpt lat="47.11042" lon="7.22007">
        <ele>434.3</ele>
        <time>2022-10-01T07:56:32Z</time>
      </trkpt>
      <trkpt lat="47.11041" lon="7.22007">
        <ele>434.3</ele>
        <time>2022-10-01T07:56:33Z</time>
      </trkpt>
      <trkpt lat="47.11041" lon="7.22008">
        <ele>434.3</ele>
        <time>2022-10-01T07:56:34Z</time>
      </trkpt>
      <trkpt lat="47.11041" lon="7.22008">
        <ele>434.3</ele>
        <time>2022-10-01T07:56:35Z</time>
      </trkpt>
      <trkpt lat="47.11041" lon="7.22009">
        <ele>434.4</ele>
        <time>2022-10-01T07:56:36Z</time>
      </trkpt>
      <trkpt lat="47.11041" lon="7.22009">
        <ele>434.4</ele>
        <time>2022-10-01T07:56:37Z</time>
      </trkpt>
      <trkpt lat="47.11041" lon="7.22009">
        <ele>434.4</ele>
        <time>2022-10-01T07:56:38Z</time>
      </trkpt>
      <trkpt lat="47.11041" lon="7.2201">
        <ele>434.4</ele>
        <time>2022-10-01T07:56:39Z</time>
      </trkpt>
      <trkpt lat="47.11041" lon="7.2201">
        <ele>434.4</ele>
        <time>2022-10-01T07:56:40Z</time>
      </trkpt>
      <trkpt lat="47.11041" lon="7.22011">
        <ele>434.4</ele>
        <time>2022-10-01T08:19:43Z</time>
      </trkpt>
      <trkpt lat="47.11041" lon="7.22011">
        <ele>434.4</ele>
        <time>2022-10-01T08:19:44Z</time>
      </trkpt>
      <trkpt lat="47.11041" lon="7.22012">
        <ele>434.4</ele>
        <time>2022-10-01T08:19:45Z</time>
      </trkpt>
      <trkpt lat="47.11041" lon="7.22012">
        <ele>434.4</ele>
        <time>2022-10-01T08:19:46Z</time>
      </trkpt>
      <trkpt lat="47.1104" lon="7.22012">
        <ele>434.4</ele>
        <time>2022-10-01T08:19:47Z</time>
      </trkpt>
      <trkpt lat="47.1104" lon="7.22013">
        <ele>434.4</ele>
        <time>2022-10-01T08:19:48Z</time>
      </trkpt>
      <trkpt lat="47.1104" lon="7.22013">
        <ele>434.4</ele>
        <time>2022-10-01T08:19:49Z</time>
      </trkpt>
      <trkpt lat="47.1104" lon="7.22014">
        <ele>434.4</ele>
        <time>2022-10-01T08:19:50Z</time>
      </trkpt>
      <trkpt lat="47.1104" lon="7.22014">
        <ele>434.4</ele>
        <time>2022-10-01T08:19:51Z</time>
      </trkpt>
      <trkpt lat="47.1104" lon="7.22015">
        <ele>434.4</ele>
        <time>2022-10-01T08:19:52Z</time>
      </trkpt>
      <trkpt lat="47.1104" lon="7.22015">
        <ele>434.4</ele>
        <time>2022-10-01T08:20:04Z</time>
      </trkpt>
      <trkpt lat="47.1104" lon="7.22016">
        <ele>434.4</ele>
        <time>2022-10-01T08:20:05Z</time>
      </trkpt>
      <trkpt lat="47.1104" lon="7.22019">
        <ele>434.4</ele>
        <time>2022-10-01T08:20:06Z</time>
      </trkpt>
      <trkpt lat="47.1104" lon="7.2202">
        <ele>434.4</ele>
        <time>2022-10-01T08:20:07Z</time>
      </trkpt>
      <trkpt lat="47.1104" lon="7.22021">
        <ele>434.4</ele>
        <time>2022-10-01T08:20:08Z</time>
      </trkpt>
      <trkpt lat="47.1104" lon="7.22024">
        <ele>434.4</ele>
        <time>2022-10-01T08:20:09Z</time>
      </trkpt>
      <trkpt lat="47.1104" lon="7.22025">
        <ele>434.4</ele>
        <time>2022-10-01T08:20:10Z</time>
      </trkpt>
      <trkpt lat="47.11039" lon="7.22026">
        <ele>434.5</ele>
        <time>2022-10-01T08:20:11Z</time>
      </trkpt>
      <trkpt lat="47.11039" lon="7.22028">
        <ele>434.5</ele>
        <time>2022-10-01T08:20:12Z</time>
      </trkpt>
      <trkpt lat="47.1104" lon="7.22029">
        <ele>434.5</ele>
        <time>2022-10-01T08:20:13Z</time>
      </trkpt>
      <trkpt lat="47.11041" lon="7.2203">
        <ele>434.5</ele>
        <time>2022-10-01T08:20:14Z</time>
      </trkpt>
      <trkpt lat="47.11041" lon="7.22029">
        <ele>434.5</ele>
        <time>2022-10-01T08:20:15Z</time>
      </trkpt>
      <trkpt lat="47.11042" lon="7.2203">
        <ele>434.5</ele>
        <time>2022-10-01T08:20:16Z</time>
      </trkpt>
      <trkpt lat="47.11043" lon="7.2203">
        <ele>434.5</ele>
        <time>2022-10-01T08:20:17Z</time>
      </trkpt>
      <trkpt lat="47.11043" lon="7.22031">
        <ele>434.5</ele>
        <time>2022-10-01T08:20:18Z</time>
      </trkpt>
      <trkpt lat="47.11044" lon="7.22032">
        <ele>434.5</ele>
        <time>2022-10-01T08:20:19Z</time>
      </trkpt>
      <trkpt lat="47.11044" lon="7.22032">
        <ele>434.5</ele>
        <time>2022-10-01T08:20:20Z</time>
      </trkpt>
      <trkpt lat="47.11045" lon="7.22033">
        <ele>434.5</ele>
        <time>2022-10-01T08:20:21Z</time>
      </trkpt>
      <trkpt lat="47.11048" lon="7.22036">
        <ele>434.5</ele>
        <time>2022-10-01T08:20:22Z</time>
      </trkpt>
      <trkpt lat="47.11049" lon="7.22037">
        <ele>434.5</ele>
        <time>2022-10-01T08:20:23Z</time>
      </trkpt>
      <trkpt lat="47.11052" lon="7.2204">
        <ele>434.6</ele>
        <time>2022-10-01T08:20:24Z</time>
      </trkpt>
      <trkpt lat="47.11053" lon="7.22041">
        <ele>434.6</ele>
        <time>2022-10-01T08:20:25Z</time>
      </trkpt>
      <trkpt lat="47.11056" lon="7.22044">
        <ele>434.6</ele>
        <time>2022-10-01T08:20:26Z</time>
      </trkpt>
      <trkpt lat="47.11058" lon="7.22048">
        <ele>434.6</ele>
        <time>2022-10-01T08:20:27Z</time>
      </trkpt>
      <trkpt lat="47.1106" lon="7.22051">
        <ele>434.6</ele>
        <time>2022-10-01T08:20:28Z</time>
      </trkpt>
      <trkpt lat="47.11063" lon="7.22055">
        <ele>434.6</ele>
        <time>2022-10-01T08:20:29Z</time>
      </trkpt>
      <trkpt lat="47.11066" lon="7.22058">
        <ele>434.7</ele>
        <time>2022-10-01T08:20:30Z</time>
      </trkpt>
      <trkpt lat="47.11069" lon="7.22062">
        <ele>434.7</ele>
        <time>2022-10-01T08:20:31Z</time>
      </trkpt>
      <trkpt lat="47.11072" lon="7.22066">
        <ele>434.7</ele>
        <time>2022-10-01T08:20:32Z</time>
      </trkpt>
      <trkpt lat="47.11076" lon="7.2207">
        <ele>434.7</ele>
        <time>2022-10-01T08:20:33Z</time>
      </trkpt>
      <trkpt lat="47.11079" lon="7.22074">
        <ele>434.7</ele>
        <time>2022-10-01T08:20:34Z</time>
      </trkpt>
      <trkpt lat="47.11083" lon="7.22078">
        <ele>434.7</ele>
        <time>2022-10-01T08:20:35Z</time>
      </trkpt>
      <trkpt lat="47.11086" lon="7.22083">
        <ele>434.7</ele>
        <time>2022-10-01T08:20:36Z</time>
      </trkpt>
      <trkpt lat="47.11089" lon="7.22086">
        <ele>434.7</ele>
        <time>2022-10-01T08:20:37Z</time>
      </trkpt>
      <trkpt lat="47.11092" lon="7.2209">
        <ele>434.7</ele>
        <time>2022-10-01T08:20:38Z</time>
      </trkpt>
      <trkpt lat="47.11096" lon="7.22095">
        <ele>434.7</ele>
        <time>2022-10-01T08:20:39Z</time>
      </trkpt>
      <trkpt lat="47.11099" lon="7.22098">
        <ele>434.7</ele>
        <time>2022-10-01T08:20:40Z</time>
      </trkpt>
      <trkpt lat="47.11103" lon="7.22101">
        <ele>434.7</ele>
        <time>2022-10-01T08:20:41Z</time>
      </trkpt>
      <trkpt lat="47.11107" lon="7.22105">
        <ele>434.7</ele>
        <time>2022-10-01T08:20:42Z</time>
      </trkpt>
      <trkpt lat="47.1111" lon="7.22109">
        <ele>434.7</ele>
        <time>2022-10-01T08:20:43Z</time>
      </trkpt>
      <trkpt lat="47.11114" lon="7.22112">
        <ele>434.7</ele>
        <time>2022-10-01T08:20:44Z</time>
      </trkpt>
      <trkpt lat="47.11119" lon="7.22116">
        <ele>434.6</ele>
        <time>2022-10-01T08:20:45Z</time>
      </trkpt>
      <trkpt lat="47.11122" lon="7.22119">
        <ele>434.6</ele>
        <time>2022-10-01T08:20:46Z</time>
      </trkpt>
      <trkpt lat="47.11127" lon="7.22122">
        <ele>434.6</ele>
        <time>2022-10-01T08:20:47Z</time>
      </trkpt>
      <trkpt lat="47.11132" lon="7.22126">
        <ele>434.6</ele>
        <time>2022-10-01T08:20:48Z</time>
      </trkpt>
      <trkpt lat="47.11137" lon="7.22129">
        <ele>434.5</ele>
        <time>2022-10-01T08:20:49Z</time>
      </trkpt>
      <trkpt lat="47.11142" lon="7.22132">
        <ele>434.5</ele>
        <time>2022-10-01T08:20:50Z</time>
      </trkpt>
      <trkpt lat="47.11147" lon="7.22135">
        <ele>434.5</ele>
        <time>2022-10-01T08:20:51Z</time>
      </trkpt>
      <trkpt lat="47.11151" lon="7.22138">
        <ele>434.5</ele>
        <time>2022-10-01T08:20:52Z</time>
      </trkpt>
      <trkpt lat="47.11155" lon="7.2214">
        <ele>434.4</ele>
        <time>2022-10-01T08:20:53Z</time>
      </trkpt>
      <trkpt lat="47.1116" lon="7.22144">
        <ele>434.4</ele>
        <time>2022-10-01T08:20:54Z</time>
      </trkpt>
      <trkpt lat="47.11165" lon="7.22146">
        <ele>434.4</ele>
        <time>2022-10-01T08:20:55Z</time>
      </trkpt>
      <trkpt lat="47.1117" lon="7.22149">
        <ele>434.4</ele>
        <time>2022-10-01T08:20:56Z</time>
      </trkpt>
      <trkpt lat="47.11175" lon="7.22154">
        <ele>434.3</ele>
        <time>2022-10-01T08:20:57Z</time>
      </trkpt>
      <trkpt lat="47.1118" lon="7.22159">
        <ele>434.3</ele>
        <time>2022-10-01T08:20:58Z</time>
      </trkpt>
      <trkpt lat="47.11185" lon="7.22163">
        <ele>434.3</ele>
        <time>2022-10-01T08:20:59Z</time>
      </trkpt>
      <trkpt lat="47.1119" lon="7.22168">
        <ele>434.2</ele>
        <time>2022-10-01T08:21:00Z</time>
      </trkpt>
      <trkpt lat="47.11195" lon="7.22172">
        <ele>434.2</ele>
        <time>2022-10-01T08:21:01Z</time>
      </trkpt>
      <trkpt lat="47.11199" lon="7.22176">
        <ele>434.2</ele>
        <time>2022-10-01T08:21:02Z</time>
      </trkpt>
      <trkpt lat="47.11204" lon="7.22178">
        <ele>434.1</ele>
        <time>2022-10-01T08:21:03Z</time>
      </trkpt>
      <trkpt lat="47.11209" lon="7.2218">
        <ele>434</ele>
        <time>2022-10-01T08:21:04Z</time>
      </trkpt>
      <trkpt lat="47.11214" lon="7.22181">
        <ele>434</ele>
        <time>2022-10-01T08:21:05Z</time>
      </trkpt>
      <trkpt lat="47.11219" lon="7.2218">
        <ele>433.9</ele>
        <time>2022-10-01T08:21:06Z</time>
      </trkpt>
      <trkpt lat="47.11223" lon="7.22176">
        <ele>433.8</ele>
        <time>2022-10-01T08:21:07Z</time>
      </trkpt>
      <trkpt lat="47.11227" lon="7.22175">
        <ele>433.8</ele>
        <time>2022-10-01T08:21:08Z</time>
      </trkpt>
      <trkpt lat="47.11231" lon="7.2217">
        <ele>433.7</ele>
        <time>2022-10-01T08:21:09Z</time>
      </trkpt>
      <trkpt lat="47.11236" lon="7.22164">
        <ele>433.6</ele>
        <time>2022-10-01T08:21:10Z</time>
      </trkpt>
      <trkpt lat="47.11239" lon="7.22158">
        <ele>433.6</ele>
        <time>2022-10-01T08:21:11Z</time>
      </trkpt>
      <trkpt lat="47.11244" lon="7.22153">
        <ele>433.5</ele>
        <time>2022-10-01T08:21:12Z</time>
      </trkpt>
      <trkpt lat="47.11248" lon="7.22147">
        <ele>433.5</ele>
        <time>2022-10-01T08:21:13Z</time>
      </trkpt>
      <trkpt lat="47.11252" lon="7.22143">
        <ele>433.4</ele>
        <time>2022-10-01T08:21:14Z</time>
      </trkpt>
      <trkpt lat="47.11256" lon="7.22137">
        <ele>433.4</ele>
        <time>2022-10-01T08:21:15Z</time>
      </trkpt>
      <trkpt lat="47.1126" lon="7.22133">
        <ele>433.3</ele>
        <time>2022-10-01T08:21:16Z</time>
      </trkpt>
      <trkpt lat="47.11265" lon="7.2213">
        <ele>433.2</ele>
        <time>2022-10-01T08:21:17Z</time>
      </trkpt>
      <trkpt lat="47.1127" lon="7.22127">
        <ele>433.2</ele>
        <time>2022-10-01T08:21:18Z</time>
      </trkpt>
      <trkpt lat="47.11275" lon="7.22124">
        <ele>433.2</ele>
        <time>2022-10-01T08:21:19Z</time>
      </trkpt>
      <trkpt lat="47.1128" lon="7.22124">
        <ele>433.2</ele>
        <time>2022-10-01T08:21:20Z</time>
      </trkpt>
      <trkpt lat="47.11285" lon="7.22125">
        <ele>433.1</ele>
        <time>2022-10-01T08:21:21Z</time>
      </trkpt>
      <trkpt lat="47.1129" lon="7.22126">
        <ele>433.1</ele>
        <time>2022-10-01T08:21:22Z</time>
      </trkpt>
      <trkpt lat="47.11294" lon="7.22128">
        <ele>433.1</ele>
        <time>2022-10-01T08:21:23Z</time>
      </trkpt>
      <trkpt lat="47.11299" lon="7.22131">
        <ele>433.1</ele>
        <time>2022-10-01T08:21:24Z</time>
      </trkpt>
      <trkpt lat="47.11304" lon="7.22133">
        <ele>433.1</ele>
        <time>2022-10-01T08:21:25Z</time>
      </trkpt>
      <trkpt lat="47.1131" lon="7.22136">
        <ele>433.1</ele>
        <time>2022-10-01T08:21:26Z</time>
      </trkpt>
      <trkpt lat="47.11315" lon="7.22138">
        <ele>433.1</ele>
        <time>2022-10-01T08:21:27Z</time>
      </trkpt>
      <trkpt lat="47.11321" lon="7.22141">
        <ele>433.1</ele>
        <time>2022-10-01T08:21:28Z</time>
      </trkpt>
      <trkpt lat="47.11325" lon="7.22144">
        <ele>433.1</ele>
        <time>2022-10-01T08:21:29Z</time>
      </trkpt>
      <trkpt lat="47.11331" lon="7.22147">
        <ele>433.1</ele>
        <time>2022-10-01T08:21:30Z</time>
      </trkpt>
      <trkpt lat="47.11337" lon="7.22148">
        <ele>433.1</ele>
        <time>2022-10-01T08:21:31Z</time>
      </trkpt>
      <trkpt lat="47.11342" lon="7.2215">
        <ele>433.1</ele>
        <time>2022-10-01T08:21:32Z</time>
      </trkpt>
      <trkpt lat="47.11346" lon="7.22152">
        <ele>433.1</ele>
        <time>2022-10-01T08:21:33Z</time>
      </trkpt>
      <trkpt lat="47.11352" lon="7.22155">
        <ele>433.1</ele>
        <time>2022-10-01T08:21:34Z</time>
      </trkpt>
      <trkpt lat="47.11356" lon="7.22157">
        <ele>433.1</ele>
        <time>2022-10-01T08:21:35Z</time>
      </trkpt>
      <trkpt lat="47.1136" lon="7.22158">
        <ele>433.1</ele>
        <time>2022-10-01T08:21:36Z</time>
      </trkpt>
      <trkpt lat="47.11364" lon="7.22159">
        <ele>433.1</ele>
        <time>2022-10-01T08:21:37Z</time>
      </trkpt>
      <trkpt lat="47.11367" lon="7.2216">
        <ele>433.1</ele>
        <time>2022-10-01T08:21:38Z</time>
      </trkpt>
      <trkpt lat="47.11367" lon="7.22161">
        <ele>433.1</ele>
        <time>2022-10-01T08:21:39Z</time>
      </trkpt>
      <trkpt lat="47.11369" lon="7.22164">
        <ele>433.1</ele>
        <time>2022-10-01T08:21:40Z</time>
      </trkpt>
      <trkpt lat="47.1137" lon="7.22165">
        <ele>433.1</ele>
        <time>2022-10-01T08:21:41Z</time>
      </trkpt>
      <trkpt lat="47.1137" lon="7.22166">
        <ele>433.1</ele>
        <time>2022-10-01T08:21:42Z</time>
      </trkpt>
      <trkpt lat="47.11372" lon="7.22167">
        <ele>433.1</ele>
        <time>2022-10-01T08:21:43Z</time>
      </trkpt>
      <trkpt lat="47.11373" lon="7.22168">
        <ele>433.1</ele>
        <time>2022-10-01T08:21:44Z</time>
      </trkpt>
      <trkpt lat="47.11376" lon="7.2217">
        <ele>433.1</ele>
        <time>2022-10-01T08:21:45Z</time>
      </trkpt>
      <trkpt lat="47.11378" lon="7.22171">
        <ele>433.1</ele>
        <time>2022-10-01T08:21:46Z</time>
      </trkpt>
      <trkpt lat="47.11381" lon="7.22173">
        <ele>433.1</ele>
        <time>2022-10-01T08:21:47Z</time>
      </trkpt>
      <trkpt lat="47.11383" lon="7.22177">
        <ele>433.1</ele>
        <time>2022-10-01T08:21:48Z</time>
      </trkpt>
      <trkpt lat="47.11386" lon="7.2218">
        <ele>433.1</ele>
        <time>2022-10-01T08:21:49Z</time>
      </trkpt>
      <trkpt lat="47.11388" lon="7.22185">
        <ele>433.1</ele>
        <time>2022-10-01T08:21:50Z</time>
      </trkpt>
      <trkpt lat="47.11392" lon="7.22189">
        <ele>433.1</ele>
        <time>2022-10-01T08:21:51Z</time>
      </trkpt>
      <trkpt lat="47.11396" lon="7.22195">
        <ele>433.1</ele>
        <time>2022-10-01T08:21:52Z</time>
      </trkpt>
      <trkpt lat="47.11399" lon="7.22198">
        <ele>433.1</ele>
        <time>2022-10-01T08:21:53Z</time>
      </trkpt>
      <trkpt lat="47.11402" lon="7.22202">
        <ele>433.1</ele>
        <time>2022-10-01T08:21:54Z</time>
      </trkpt>
      <trkpt lat="47.11406" lon="7.22207">
        <ele>433.1</ele>
        <time>2022-10-01T08:21:55Z</time>
      </trkpt>
      <trkpt lat="47.11409" lon="7.22212">
        <ele>433.1</ele>
        <time>2022-10-01T08:21:56Z</time>
      </trkpt>
      <trkpt lat="47.11413" lon="7.22217">
        <ele>433.1</ele>
        <time>2022-10-01T08:21:57Z</time>
      </trkpt>
      <trkpt lat="47.11416" lon="7.22222">
        <ele>433.1</ele>
        <time>2022-10-01T08:21:58Z</time>
      </trkpt>
      <trkpt lat="47.11419" lon="7.22227">
        <ele>433.1</ele>
        <time>2022-10-01T08:21:59Z</time>
      </trkpt>
      <trkpt lat="47.11423" lon="7.22232">
        <ele>433.1</ele>
        <time>2022-10-01T08:22:00Z</time>
      </trkpt>
      <trkpt lat="47.11427" lon="7.22237">
        <ele>433.1</ele>
        <time>2022-10-01T08:22:01Z</time>
      </trkpt>
      <trkpt lat="47.1143" lon="7.22241">
        <ele>433.1</ele>
        <time>2022-10-01T08:22:02Z</time>
      </trkpt>
      <trkpt lat="47.11434" lon="7.22243">
        <ele>433.1</ele>
        <time>2022-10-01T08:22:03Z</time>
      </trkpt>
      <trkpt lat="47.11438" lon="7.22245">
        <ele>433.1</ele>
        <time>2022-10-01T08:22:04Z</time>
      </trkpt>
      <trkpt lat="47.11443" lon="7.22245">
        <ele>433.1</ele>
        <time>2022-10-01T08:22:05Z</time>
      </trkpt>
      <trkpt lat="47.11446" lon="7.22244">
        <ele>433.1</ele>
        <time>2022-10-01T08:22:06Z</time>
      </trkpt>
      <trkpt lat="47.11449" lon="7.22244">
        <ele>433.2</ele>
        <time>2022-10-01T08:22:07Z</time>
      </trkpt>
      <trkpt lat="47.11455" lon="7.22244">
        <ele>433.2</ele>
        <time>2022-10-01T08:22:08Z</time>
      </trkpt>
      <trkpt lat="47.11459" lon="7.22244">
        <ele>433.2</ele>
        <time>2022-10-01T08:22:09Z</time>
      </trkpt>
      <trkpt lat="47.11463" lon="7.22244">
        <ele>433.2</ele>
        <time>2022-10-01T08:22:10Z</time>
      </trkpt>
      <trkpt lat="47.11467" lon="7.22243">
        <ele>433.2</ele>
        <time>2022-10-01T08:22:11Z</time>
      </trkpt>
      <trkpt lat="47.11471" lon="7.22243">
        <ele>433.2</ele>
        <time>2022-10-01T08:22:12Z</time>
      </trkpt>
      <trkpt lat="47.11474" lon="7.22245">
        <ele>433.3</ele>
        <time>2022-10-01T08:22:13Z</time>
      </trkpt>
      <trkpt lat="47.11477" lon="7.22248">
        <ele>433.3</ele>
        <time>2022-10-01T08:22:14Z</time>
      </trkpt>
      <trkpt lat="47.1148" lon="7.22253">
        <ele>433.3</ele>
        <time>2022-10-01T08:22:15Z</time>
      </trkpt>
      <trkpt lat="47.11483" lon="7.22257">
        <ele>433.3</ele>
        <time>2022-10-01T08:22:16Z</time>
      </trkpt>
      <trkpt lat="47.11486" lon="7.2226">
        <ele>433.3</ele>
        <time>2022-10-01T08:22:17Z</time>
      </trkpt>
      <trkpt lat="47.1149" lon="7.22265">
        <ele>433.3</ele>
        <time>2022-10-01T08:22:18Z</time>
      </trkpt>
      <trkpt lat="47.11494" lon="7.22271">
        <ele>433.4</ele>
        <time>2022-10-01T08:22:19Z</time>
      </trkpt>
      <trkpt lat="47.11497" lon="7.22277">
        <ele>433.4</ele>
        <time>2022-10-01T08:22:20Z</time>
      </trkpt>
      <trkpt lat="47.11501" lon="7.22284">
        <ele>433.4</ele>
        <time>2022-10-01T08:22:21Z</time>
      </trkpt>
      <trkpt lat="47.11506" lon="7.22289">
        <ele>433.4</ele>
        <time>2022-10-01T08:22:22Z</time>
      </trkpt>
      <trkpt lat="47.11509" lon="7.22294">
        <ele>433.4</ele>
        <time>2022-10-01T08:22:23Z</time>
      </trkpt>
      <trkpt lat="47.11512" lon="7.22305">
        <ele>433.4</ele>
        <time>2022-10-01T08:22:24Z</time>
      </trkpt>
      <trkpt lat="47.11515" lon="7.22312">
        <ele>433.4</ele>
        <time>2022-10-01T08:22:25Z</time>
      </trkpt>
      <trkpt lat="47.11518" lon="7.22321">
        <ele>433.4</ele>
        <time>2022-10-01T08:22:26Z</time>
      </trkpt>
      <trkpt lat="47.1152" lon="7.22329">
        <ele>433.4</ele>
        <time>2022-10-01T08:22:27Z</time>
      </trkpt>
      <trkpt lat="47.11523" lon="7.22337">
        <ele>433.4</ele>
        <time>2022-10-01T08:22:28Z</time>
      </trkpt>
      <trkpt lat="47.11526" lon="7.22345">
        <ele>433.4</ele>
        <time>2022-10-01T08:22:29Z</time>
      </trkpt>
      <trkpt lat="47.11529" lon="7.22353">
        <ele>433.4</ele>
        <time>2022-10-01T08:22:30Z</time>
      </trkpt>
      <trkpt lat="47.11531" lon="7.22361">
        <ele>433.4</ele>
        <time>2022-10-01T08:22:31Z</time>
      </trkpt>
      <trkpt lat="47.11533" lon="7.2237">
        <ele>433.4</ele>
        <time>2022-10-01T08:22:32Z</time>
      </trkpt>
      <trkpt lat="47.11536" lon="7.22378">
        <ele>433.3</ele>
        <time>2022-10-01T08:22:33Z</time>
      </trkpt>
      <trkpt lat="47.11538" lon="7.22386">
        <ele>433.3</ele>
        <time>2022-10-01T08:22:34Z</time>
      </trkpt>
      <trkpt lat="47.11542" lon="7.22393">
        <ele>433.3</ele>
        <time>2022-10-01T08:22:35Z</time>
      </trkpt>
      <trkpt lat="47.11545" lon="7.22399">
        <ele>433.2</ele>
        <time>2022-10-01T08:22:36Z</time>
      </trkpt>
      <trkpt lat="47.11549" lon="7.22406">
        <ele>433.2</ele>
        <time>2022-10-01T08:22:37Z</time>
      </trkpt>
      <trkpt lat="47.11551" lon="7.22415">
        <ele>433.2</ele>
        <time>2022-10-01T08:22:38Z</time>
      </trkpt>
      <trkpt lat="47.11555" lon="7.22423">
        <ele>433.1</ele>
        <time>2022-10-01T08:22:39Z</time>
      </trkpt>
      <trkpt lat="47.11559" lon="7.2243">
        <ele>433.1</ele>
        <time>2022-10-01T08:22:40Z</time>
      </trkpt>
      <trkpt lat="47.11563" lon="7.22436">
        <ele>433.1</ele>
        <time>2022-10-01T08:22:41Z</time>
      </trkpt>
      <trkpt lat="47.11566" lon="7.22443">
        <ele>433</ele>
        <time>2022-10-01T08:22:42Z</time>
      </trkpt>
      <trkpt lat="47.1157" lon="7.22451">
        <ele>433</ele>
        <time>2022-10-01T08:22:43Z</time>
      </trkpt>
      <trkpt lat="47.11574" lon="7.22459">
        <ele>433</ele>
        <time>2022-10-01T08:22:44Z</time>
      </trkpt>
      <trkpt lat="47.11578" lon="7.22465">
        <ele>432.9</ele>
        <time>2022-10-01T08:22:45Z</time>
      </trkpt>
      <trkpt lat="47.11581" lon="7.22473">
        <ele>432.8</ele>
        <time>2022-10-01T08:22:46Z</time>
      </trkpt>
      <trkpt lat="47.11585" lon="7.22481">
        <ele>432.8</ele>
        <time>2022-10-01T08:22:47Z</time>
      </trkpt>
      <trkpt lat="47.11589" lon="7.22489">
        <ele>432.7</ele>
        <time>2022-10-01T08:22:48Z</time>
      </trkpt>
      <trkpt lat="47.11593" lon="7.22494">
        <ele>432.7</ele>
        <time>2022-10-01T08:22:49Z</time>
      </trkpt>
      <trkpt lat="47.11598" lon="7.22499">
        <ele>432.6</ele>
        <time>2022-10-01T08:22:50Z</time>
      </trkpt>
      <trkpt lat="47.11603" lon="7.22506">
        <ele>432.6</ele>
        <time>2022-10-01T08:22:51Z</time>
      </trkpt>
      <trkpt lat="47.11609" lon="7.2251">
        <ele>432.5</ele>
        <time>2022-10-01T08:22:52Z</time>
      </trkpt>
      <trkpt lat="47.11614" lon="7.22514">
        <ele>432.5</ele>
        <time>2022-10-01T08:22:53Z</time>
      </trkpt>
      <trkpt lat="47.11621" lon="7.22517">
        <ele>432.6</ele>
        <time>2022-10-01T08:22:54Z</time>
      </trkpt>
      <trkpt lat="47.11627" lon="7.2252">
        <ele>432.6</ele>
        <time>2022-10-01T08:22:55Z</time>
      </trkpt>
      <trkpt lat="47.11632" lon="7.22522">
        <ele>432.6</ele>
        <time>2022-10-01T08:22:56Z</time>
      </trkpt>
      <trkpt lat="47.11638" lon="7.22526">
        <ele>432.7</ele>
        <time>2022-10-01T08:22:57Z</time>
      </trkpt>
      <trkpt lat="47.11643" lon="7.22529">
        <ele>432.7</ele>
        <time>2022-10-01T08:22:58Z</time>
      </trkpt>
      <trkpt lat="47.11649" lon="7.2253">
        <ele>432.8</ele>
        <time>2022-10-01T08:22:59Z</time>
      </trkpt>
      <trkpt lat="47.11653" lon="7.22531">
        <ele>432.8</ele>
        <time>2022-10-01T08:23:00Z</time>
      </trkpt>
      <trkpt lat="47.11655" lon="7.22534">
        <ele>432.8</ele>
        <time>2022-10-01T08:23:01Z</time>
      </trkpt>
      <trkpt lat="47.11658" lon="7.22535">
        <ele>432.9</ele>
        <time>2022-10-01T08:23:02Z</time>
      </trkpt>
      <trkpt lat="47.11662" lon="7.22536">
        <ele>432.9</ele>
        <time>2022-10-01T08:23:03Z</time>
      </trkpt>
      <trkpt lat="47.11666" lon="7.22534">
        <ele>432.9</ele>
        <time>2022-10-01T08:23:04Z</time>
      </trkpt>
      <trkpt lat="47.11669" lon="7.22531">
        <ele>432.9</ele>
        <time>2022-10-01T08:23:05Z</time>
      </trkpt>
      <trkpt lat="47.11672" lon="7.22527">
        <ele>432.9</ele>
        <time>2022-10-01T08:23:06Z</time>
      </trkpt>
      <trkpt lat="47.11675" lon="7.22525">
        <ele>432.8</ele>
        <time>2022-10-01T08:23:07Z</time>
      </trkpt>
      <trkpt lat="47.1168" lon="7.22522">
        <ele>432.8</ele>
        <time>2022-10-01T08:23:08Z</time>
      </trkpt>
      <trkpt lat="47.11683" lon="7.22519">
        <ele>432.8</ele>
        <time>2022-10-01T08:23:09Z</time>
      </trkpt>
      <trkpt lat="47.11688" lon="7.22517">
        <ele>432.8</ele>
        <time>2022-10-01T08:23:10Z</time>
      </trkpt>
      <trkpt lat="47.11692" lon="7.22515">
        <ele>432.8</ele>
        <time>2022-10-01T08:23:11Z</time>
      </trkpt>
      <trkpt lat="47.11696" lon="7.22515">
        <ele>432.8</ele>
        <time>2022-10-01T08:23:12Z</time>
      </trkpt>
      <trkpt lat="47.11699" lon="7.22515">
        <ele>432.8</ele>
        <time>2022-10-01T08:23:13Z</time>
      </trkpt>
      <trkpt lat="47.11705" lon="7.22517">
        <ele>432.8</ele>
        <time>2022-10-01T08:23:14Z</time>
      </trkpt>
      <trkpt lat="47.11708" lon="7.22518">
        <ele>432.8</ele>
        <time>2022-10-01T08:23:15Z</time>
      </trkpt>
      <trkpt lat="47.11713" lon="7.22522">
        <ele>432.8</ele>
        <time>2022-10-01T08:23:16Z</time>
      </trkpt>
      <trkpt lat="47.11717" lon="7.22525">
        <ele>432.8</ele>
        <time>2022-10-01T08:23:17Z</time>
      </trkpt>
      <trkpt lat="47.11722" lon="7.22529">
        <ele>432.8</ele>
        <time>2022-10-01T08:23:18Z</time>
      </trkpt>
      <trkpt lat="47.11726" lon="7.22533">
        <ele>432.8</ele>
        <time>2022-10-01T08:23:19Z</time>
      </trkpt>
      <trkpt lat="47.11731" lon="7.22538">
        <ele>432.8</ele>
        <time>2022-10-01T08:23:20Z</time>
      </trkpt>
      <trkpt lat="47.11735" lon="7.22542">
        <ele>432.8</ele>
        <time>2022-10-01T08:23:21Z</time>
      </trkpt>
      <trkpt lat="47.1174" lon="7.22547">
        <ele>432.8</ele>
        <time>2022-10-01T08:23:22Z</time>
      </trkpt>
      <trkpt lat="47.11744" lon="7.2255">
        <ele>432.8</ele>
        <time>2022-10-01T08:23:23Z</time>
      </trkpt>
      <trkpt lat="47.11749" lon="7.22555">
        <ele>432.8</ele>
        <time>2022-10-01T08:23:24Z</time>
      </trkpt>
      <trkpt lat="47.11753" lon="7.22559">
        <ele>432.9</ele>
        <time>2022-10-01T08:23:25Z</time>
      </trkpt>
      <trkpt lat="47.11758" lon="7.22562">
        <ele>432.9</ele>
        <time>2022-10-01T08:23:26Z</time>
      </trkpt>
      <trkpt lat="47.1176" lon="7.22563">
        <ele>432.9</ele>
        <time>2022-10-01T08:23:27Z</time>
      </trkpt>
      <trkpt lat="47.11763" lon="7.22568">
        <ele>432.9</ele>
        <time>2022-10-01T08:23:28Z</time>
      </trkpt>
      <trkpt lat="47.11766" lon="7.2257">
        <ele>432.8</ele>
        <time>2022-10-01T08:23:29Z</time>
      </trkpt>
      <trkpt lat="47.11771" lon="7.22573">
        <ele>432.8</ele>
        <time>2022-10-01T08:23:30Z</time>
      </trkpt>
      <trkpt lat="47.11775" lon="7.22577">
        <ele>432.8</ele>
        <time>2022-10-01T08:23:31Z</time>
      </trkpt>
      <trkpt lat="47.11778" lon="7.2258">
        <ele>432.8</ele>
        <time>2022-10-01T08:23:32Z</time>
      </trkpt>
      <trkpt lat="47.11782" lon="7.22584">
        <ele>432.8</ele>
        <time>2022-10-01T08:23:33Z</time>
      </trkpt>
      <trkpt lat="47.11786" lon="7.22587">
        <ele>432.8</ele>
        <time>2022-10-01T08:23:34Z</time>
      </trkpt>
      <trkpt lat="47.11791" lon="7.22592">
        <ele>432.8</ele>
        <time>2022-10-01T08:23:35Z</time>
      </trkpt>
      <trkpt lat="47.11796" lon="7.22596">
        <ele>432.8</ele>
        <time>2022-10-01T08:23:36Z</time>
      </trkpt>
      <trkpt lat="47.118" lon="7.226">
        <ele>432.8</ele>
        <time>2022-10-01T08:23:37Z</time>
      </trkpt>
      <trkpt lat="47.11805" lon="7.22604">
        <ele>432.8</ele>
        <time>2022-10-01T08:23:38Z</time>
      </trkpt>
      <trkpt lat="47.11809" lon="7.22607">
        <ele>432.8</ele>
        <time>2022-10-01T08:23:39Z</time>
      </trkpt>
      <trkpt lat="47.11814" lon="7.22611">
        <ele>432.8</ele>
        <time>2022-10-01T08:23:40Z</time>
      </trkpt>
      <trkpt lat="47.11818" lon="7.22615">
        <ele>432.8</ele>
        <time>2022-10-01T08:23:41Z</time>
      </trkpt>
      <trkpt lat="47.11822" lon="7.22618">
        <ele>432.8</ele>
        <time>2022-10-01T08:23:42Z</time>
      </trkpt>
      <trkpt lat="47.11827" lon="7.22623">
        <ele>432.8</ele>
        <time>2022-10-01T08:23:43Z</time>
      </trkpt>
      <trkpt lat="47.11831" lon="7.22626">
        <ele>432.8</ele>
        <time>2022-10-01T08:23:44Z</time>
      </trkpt>
      <trkpt lat="47.11836" lon="7.22631">
        <ele>432.8</ele>
        <time>2022-10-01T08:23:45Z</time>
      </trkpt>
      <trkpt lat="47.11841" lon="7.22635">
        <ele>432.8</ele>
        <time>2022-10-01T08:23:46Z</time>
      </trkpt>
      <trkpt lat="47.11845" lon="7.22639">
        <ele>432.8</ele>
        <time>2022-10-01T08:23:47Z</time>
      </trkpt>
      <trkpt lat="47.1185" lon="7.22643">
        <ele>432.8</ele>
        <time>2022-10-01T08:23:48Z</time>
      </trkpt>
      <trkpt lat="47.11855" lon="7.22648">
        <ele>432.8</ele>
        <time>2022-10-01T08:23:49Z</time>
      </trkpt>
      <trkpt lat="47.1186" lon="7.22652">
        <ele>432.8</ele>
        <time>2022-10-01T08:23:50Z</time>
      </trkpt>
      <trkpt lat="47.11865" lon="7.22656">
        <ele>432.8</ele>
        <time>2022-10-01T08:23:51Z</time>
      </trkpt>
      <trkpt lat="47.11869" lon="7.22659">
        <ele>432.9</ele>
        <time>2022-10-01T08:23:52Z</time>
      </trkpt>
      <trkpt lat="47.11872" lon="7.22662">
        <ele>432.9</ele>
        <time>2022-10-01T08:23:53Z</time>
      </trkpt>
      <trkpt lat="47.11876" lon="7.22664">
        <ele>432.9</ele>
        <time>2022-10-01T08:23:54Z</time>
      </trkpt>
      <trkpt lat="47.11879" lon="7.22668">
        <ele>432.9</ele>
        <time>2022-10-01T08:23:55Z</time>
      </trkpt>
      <trkpt lat="47.11883" lon="7.2267">
        <ele>433</ele>
        <time>2022-10-01T08:23:56Z</time>
      </trkpt>
      <trkpt lat="47.11887" lon="7.22673">
        <ele>433</ele>
        <time>2022-10-01T08:23:57Z</time>
      </trkpt>
      <trkpt lat="47.1189" lon="7.22677">
        <ele>433</ele>
        <time>2022-10-01T08:23:58Z</time>
      </trkpt>
      <trkpt lat="47.11894" lon="7.22681">
        <ele>433</ele>
        <time>2022-10-01T08:23:59Z</time>
      </trkpt>
      <trkpt lat="47.11898" lon="7.22685">
        <ele>433</ele>
        <time>2022-10-01T08:24:00Z</time>
      </trkpt>
      <trkpt lat="47.11902" lon="7.22689">
        <ele>433.1</ele>
        <time>2022-10-01T08:24:01Z</time>
      </trkpt>
      <trkpt lat="47.11905" lon="7.22692">
        <ele>433.1</ele>
        <time>2022-10-01T08:24:02Z</time>
      </trkpt>
      <trkpt lat="47.11908" lon="7.22698">
        <ele>433.1</ele>
        <time>2022-10-01T08:24:03Z</time>
      </trkpt>
      <trkpt lat="47.11911" lon="7.22703">
        <ele>433.1</ele>
        <time>2022-10-01T08:24:04Z</time>
      </trkpt>
      <trkpt lat="47.11913" lon="7.22709">
        <ele>433.1</ele>
        <time>2022-10-01T08:24:05Z</time>
      </trkpt>
      <trkpt lat="47.11916" lon="7.22716">
        <ele>433.2</ele>
        <time>2022-10-01T08:24:06Z</time>
      </trkpt>
      <trkpt lat="47.11919" lon="7.22722">
        <ele>433.2</ele>
        <time>2022-10-01T08:24:07Z</time>
      </trkpt>
      <trkpt lat="47.11922" lon="7.22729">
        <ele>433.2</ele>
        <time>2022-10-01T08:24:08Z</time>
      </trkpt>
      <trkpt lat="47.11925" lon="7.22735">
        <ele>433.1</ele>
        <time>2022-10-01T08:24:09Z</time>
      </trkpt>
      <trkpt lat="47.11928" lon="7.22743">
        <ele>433.1</ele>
        <time>2022-10-01T08:24:10Z</time>
      </trkpt>
      <trkpt lat="47.11931" lon="7.22749">
        <ele>433.1</ele>
        <time>2022-10-01T08:24:11Z</time>
      </trkpt>
      <trkpt lat="47.11934" lon="7.22755">
        <ele>433</ele>
        <time>2022-10-01T08:24:12Z</time>
      </trkpt>
      <trkpt lat="47.11938" lon="7.22761">
        <ele>433</ele>
        <time>2022-10-01T08:24:13Z</time>
      </trkpt>
      <trkpt lat="47.11941" lon="7.22768">
        <ele>433</ele>
        <time>2022-10-01T08:24:14Z</time>
      </trkpt>
      <trkpt lat="47.11944" lon="7.22775">
        <ele>432.9</ele>
        <time>2022-10-01T08:24:15Z</time>
      </trkpt>
      <trkpt lat="47.11947" lon="7.22782">
        <ele>432.9</ele>
        <time>2022-10-01T08:24:16Z</time>
      </trkpt>
      <trkpt lat="47.1195" lon="7.22787">
        <ele>432.9</ele>
        <time>2022-10-01T08:24:17Z</time>
      </trkpt>
      <trkpt lat="47.11954" lon="7.22791">
        <ele>433</ele>
        <time>2022-10-01T08:24:18Z</time>
      </trkpt>
      <trkpt lat="47.11956" lon="7.22795">
        <ele>433</ele>
        <time>2022-10-01T08:24:19Z</time>
      </trkpt>
      <trkpt lat="47.1196" lon="7.22801">
        <ele>433</ele>
        <time>2022-10-01T08:24:20Z</time>
      </trkpt>
      <trkpt lat="47.11962" lon="7.22808">
        <ele>433</ele>
        <time>2022-10-01T08:24:21Z</time>
      </trkpt>
      <trkpt lat="47.11966" lon="7.22813">
        <ele>433</ele>
        <time>2022-10-01T08:24:22Z</time>
      </trkpt>
      <trkpt lat="47.11969" lon="7.22819">
        <ele>433</ele>
        <time>2022-10-01T08:24:23Z</time>
      </trkpt>
      <trkpt lat="47.11973" lon="7.22826">
        <ele>433.1</ele>
        <time>2022-10-01T08:24:24Z</time>
      </trkpt>
      <trkpt lat="47.11978" lon="7.22832">
        <ele>433.1</ele>
        <time>2022-10-01T08:24:25Z</time>
      </trkpt>
      <trkpt lat="47.11982" lon="7.22837">
        <ele>433.1</ele>
        <time>2022-10-01T08:24:26Z</time>
      </trkpt>
      <trkpt lat="47.11987" lon="7.22844">
        <ele>433.1</ele>
        <time>2022-10-01T08:24:27Z</time>
      </trkpt>
      <trkpt lat="47.11991" lon="7.22848">
        <ele>433.2</ele>
        <time>2022-10-01T08:24:28Z</time>
      </trkpt>
      <trkpt lat="47.11995" lon="7.22853">
        <ele>433.2</ele>
        <time>2022-10-01T08:24:29Z</time>
      </trkpt>
      <trkpt lat="47.11999" lon="7.22858">
        <ele>433.2</ele>
        <time>2022-10-01T08:24:30Z</time>
      </trkpt>
      <trkpt lat="47.12003" lon="7.22863">
        <ele>433.2</ele>
        <time>2022-10-01T08:24:31Z</time>
      </trkpt>
      <trkpt lat="47.12007" lon="7.22867">
        <ele>433.3</ele>
        <time>2022-10-01T08:24:32Z</time>
      </trkpt>
      <trkpt lat="47.1201" lon="7.2287">
        <ele>433.3</ele>
        <time>2022-10-01T08:24:33Z</time>
      </trkpt>
      <trkpt lat="47.12014" lon="7.2287">
        <ele>433.3</ele>
        <time>2022-10-01T08:24:34Z</time>
      </trkpt>
      <trkpt lat="47.12018" lon="7.22871">
        <ele>433.3</ele>
        <time>2022-10-01T08:24:35Z</time>
      </trkpt>
      <trkpt lat="47.12022" lon="7.22871">
        <ele>433.3</ele>
        <time>2022-10-01T08:24:36Z</time>
      </trkpt>
      <trkpt lat="47.12026" lon="7.2287">
        <ele>433.4</ele>
        <time>2022-10-01T08:24:37Z</time>
      </trkpt>
      <trkpt lat="47.12029" lon="7.22871">
        <ele>433.4</ele>
        <time>2022-10-01T08:24:38Z</time>
      </trkpt>
      <trkpt lat="47.12033" lon="7.2287">
        <ele>433.4</ele>
        <time>2022-10-01T08:24:39Z</time>
      </trkpt>
      <trkpt lat="47.12037" lon="7.22871">
        <ele>433.4</ele>
        <time>2022-10-01T08:24:40Z</time>
      </trkpt>
      <trkpt lat="47.12041" lon="7.2287">
        <ele>433.4</ele>
        <time>2022-10-01T08:24:41Z</time>
      </trkpt>
      <trkpt lat="47.12046" lon="7.2287">
        <ele>433.4</ele>
        <time>2022-10-01T08:24:42Z</time>
      </trkpt>
      <trkpt lat="47.12053" lon="7.22868">
        <ele>433.4</ele>
        <time>2022-10-01T08:24:43Z</time>
      </trkpt>
      <trkpt lat="47.12058" lon="7.22867">
        <ele>433.4</ele>
        <time>2022-10-01T08:24:44Z</time>
      </trkpt>
      <trkpt lat="47.12063" lon="7.22868">
        <ele>433.4</ele>
        <time>2022-10-01T08:24:45Z</time>
      </trkpt>
      <trkpt lat="47.12068" lon="7.22868">
        <ele>433.4</ele>
        <time>2022-10-01T08:24:46Z</time>
      </trkpt>
      <trkpt lat="47.12074" lon="7.22867">
        <ele>433.4</ele>
        <time>2022-10-01T08:24:47Z</time>
      </trkpt>
      <trkpt lat="47.12079" lon="7.22869">
        <ele>433.4</ele>
        <time>2022-10-01T08:24:48Z</time>
      </trkpt>
      <trkpt lat="47.12083" lon="7.22868">
        <ele>433.4</ele>
        <time>2022-10-01T08:24:49Z</time>
      </trkpt>
      <trkpt lat="47.12088" lon="7.22868">
        <ele>433.4</ele>
        <time>2022-10-01T08:24:50Z</time>
      </trkpt>
      <trkpt lat="47.12092" lon="7.22868">
        <ele>433.3</ele>
        <time>2022-10-01T08:24:51Z</time>
      </trkpt>
      <trkpt lat="47.12097" lon="7.22871">
        <ele>433.3</ele>
        <time>2022-10-01T08:24:52Z</time>
      </trkpt>
      <trkpt lat="47.12101" lon="7.22874">
        <ele>433.3</ele>
        <time>2022-10-01T08:24:53Z</time>
      </trkpt>
      <trkpt lat="47.12105" lon="7.22876">
        <ele>433.3</ele>
        <time>2022-10-01T08:24:54Z</time>
      </trkpt>
      <trkpt lat="47.12108" lon="7.2288">
        <ele>433.3</ele>
        <time>2022-10-01T08:24:55Z</time>
      </trkpt>
      <trkpt lat="47.12113" lon="7.22884">
        <ele>433.3</ele>
        <time>2022-10-01T08:24:56Z</time>
      </trkpt>
      <trkpt lat="47.12117" lon="7.22887">
        <ele>433.3</ele>
        <time>2022-10-01T08:24:57Z</time>
      </trkpt>
      <trkpt lat="47.1212" lon="7.22894">
        <ele>433.3</ele>
        <time>2022-10-01T08:24:58Z</time>
      </trkpt>
      <trkpt lat="47.12124" lon="7.22899">
        <ele>433.3</ele>
        <time>2022-10-01T08:24:59Z</time>
      </trkpt>
      <trkpt lat="47.12127" lon="7.22902">
        <ele>433.3</ele>
        <time>2022-10-01T08:25:00Z</time>
      </trkpt>
      <trkpt lat="47.12132" lon="7.22908">
        <ele>433.4</ele>
        <time>2022-10-01T08:25:01Z</time>
      </trkpt>
      <trkpt lat="47.12136" lon="7.22914">
        <ele>433.4</ele>
        <time>2022-10-01T08:25:02Z</time>
      </trkpt>
      <trkpt lat="47.12139" lon="7.22919">
        <ele>433.4</ele>
        <time>2022-10-01T08:25:03Z</time>
      </trkpt>
      <trkpt lat="47.12142" lon="7.22923">
        <ele>433.4</ele>
        <time>2022-10-01T08:25:04Z</time>
      </trkpt>
      <trkpt lat="47.12146" lon="7.22928">
        <ele>433.4</ele>
        <time>2022-10-01T08:25:05Z</time>
      </trkpt>
      <trkpt lat="47.12149" lon="7.22935">
        <ele>433.3</ele>
        <time>2022-10-01T08:25:06Z</time>
      </trkpt>
      <trkpt lat="47.12153" lon="7.22942">
        <ele>433.3</ele>
        <time>2022-10-01T08:25:07Z</time>
      </trkpt>
      <trkpt lat="47.12157" lon="7.22949">
        <ele>433.3</ele>
        <time>2022-10-01T08:25:08Z</time>
      </trkpt>
      <trkpt lat="47.1216" lon="7.22957">
        <ele>433.3</ele>
        <time>2022-10-01T08:25:09Z</time>
      </trkpt>
      <trkpt lat="47.12163" lon="7.22962">
        <ele>433.2</ele>
        <time>2022-10-01T08:25:10Z</time>
      </trkpt>
      <trkpt lat="47.12167" lon="7.22968">
        <ele>433.2</ele>
        <time>2022-10-01T08:25:11Z</time>
      </trkpt>
      <trkpt lat="47.1217" lon="7.22974">
        <ele>433.2</ele>
        <time>2022-10-01T08:25:12Z</time>
      </trkpt>
      <trkpt lat="47.12174" lon="7.22982">
        <ele>433.1</ele>
        <time>2022-10-01T08:25:13Z</time>
      </trkpt>
      <trkpt lat="47.12177" lon="7.22986">
        <ele>433</ele>
        <time>2022-10-01T08:25:14Z</time>
      </trkpt>
      <trkpt lat="47.12182" lon="7.22995">
        <ele>432.9</ele>
        <time>2022-10-01T08:25:15Z</time>
      </trkpt>
      <trkpt lat="47.12185" lon="7.23001">
        <ele>432.9</ele>
        <time>2022-10-01T08:25:16Z</time>
      </trkpt>
      <trkpt lat="47.12189" lon="7.23008">
        <ele>432.8</ele>
        <time>2022-10-01T08:25:17Z</time>
      </trkpt>
      <trkpt lat="47.12194" lon="7.23015">
        <ele>432.8</ele>
        <time>2022-10-01T08:25:18Z</time>
      </trkpt>
      <trkpt lat="47.12198" lon="7.2302">
        <ele>432.7</ele>
        <time>2022-10-01T08:25:19Z</time>
      </trkpt>
      <trkpt lat="47.12201" lon="7.23023">
        <ele>432.7</ele>
        <time>2022-10-01T08:25:20Z</time>
      </trkpt>
      <trkpt lat="47.12203" lon="7.23027">
        <ele>432.7</ele>
        <time>2022-10-01T08:25:21Z</time>
      </trkpt>
      <trkpt lat="47.12206" lon="7.23028">
        <ele>432.6</ele>
        <time>2022-10-01T08:25:22Z</time>
      </trkpt>
      <trkpt lat="47.12211" lon="7.23031">
        <ele>432.6</ele>
        <time>2022-10-01T08:25:23Z</time>
      </trkpt>
      <trkpt lat="47.12214" lon="7.23033">
        <ele>432.6</ele>
        <time>2022-10-01T08:25:24Z</time>
      </trkpt>
      <trkpt lat="47.12216" lon="7.23038">
        <ele>432.5</ele>
        <time>2022-10-01T08:25:25Z</time>
      </trkpt>
      <trkpt lat="47.1222" lon="7.23039">
        <ele>432.5</ele>
        <time>2022-10-01T08:25:26Z</time>
      </trkpt>
      <trkpt lat="47.12225" lon="7.23043">
        <ele>432.4</ele>
        <time>2022-10-01T08:25:27Z</time>
      </trkpt>
      <trkpt lat="47.12228" lon="7.23047">
        <ele>432.4</ele>
        <time>2022-10-01T08:25:28Z</time>
      </trkpt>
      <trkpt lat="47.12232" lon="7.23049">
        <ele>432.4</ele>
        <time>2022-10-01T08:25:29Z</time>
      </trkpt>
      <trkpt lat="47.12237" lon="7.23053">
        <ele>432.3</ele>
        <time>2022-10-01T08:25:30Z</time>
      </trkpt>
      <trkpt lat="47.12241" lon="7.23057">
        <ele>432.3</ele>
        <time>2022-10-01T08:25:31Z</time>
      </trkpt>
      <trkpt lat="47.12245" lon="7.23062">
        <ele>432.3</ele>
        <time>2022-10-01T08:25:32Z</time>
      </trkpt>
      <trkpt lat="47.1225" lon="7.23063">
        <ele>432.3</ele>
        <time>2022-10-01T08:25:33Z</time>
      </trkpt>
      <trkpt lat="47.12254" lon="7.23068">
        <ele>432.3</ele>
        <time>2022-10-01T08:25:34Z</time>
      </trkpt>
      <trkpt lat="47.12259" lon="7.23071">
        <ele>432.3</ele>
        <time>2022-10-01T08:25:35Z</time>
      </trkpt>
      <trkpt lat="47.12264" lon="7.23074">
        <ele>432.3</ele>
        <time>2022-10-01T08:25:36Z</time>
      </trkpt>
      <trkpt lat="47.12268" lon="7.23078">
        <ele>432.3</ele>
        <time>2022-10-01T08:25:37Z</time>
      </trkpt>
      <trkpt lat="47.12273" lon="7.23082">
        <ele>432.4</ele>
        <time>2022-10-01T08:25:38Z</time>
      </trkpt>
      <trkpt lat="47.12278" lon="7.23088">
        <ele>432.4</ele>
        <time>2022-10-01T08:25:39Z</time>
      </trkpt>
      <trkpt lat="47.12283" lon="7.23091">
        <ele>432.4</ele>
        <time>2022-10-01T08:25:40Z</time>
      </trkpt>
      <trkpt lat="47.12288" lon="7.23094">
        <ele>432.5</ele>
        <time>2022-10-01T08:25:41Z</time>
      </trkpt>
      <trkpt lat="47.12293" lon="7.23097">
        <ele>432.5</ele>
        <time>2022-10-01T08:25:42Z</time>
      </trkpt>
      <trkpt lat="47.12296" lon="7.23101">
        <ele>432.6</ele>
        <time>2022-10-01T08:25:43Z</time>
      </trkpt>
      <trkpt lat="47.12299" lon="7.23106">
        <ele>432.8</ele>
        <time>2022-10-01T08:25:44Z</time>
      </trkpt>
      <trkpt lat="47.12303" lon="7.2311">
        <ele>433</ele>
        <time>2022-10-01T08:25:45Z</time>
      </trkpt>
      <trkpt lat="47.12304" lon="7.23116">
        <ele>433.1</ele>
        <time>2022-10-01T08:25:46Z</time>
      </trkpt>
      <trkpt lat="47.12306" lon="7.23121">
        <ele>433.3</ele>
        <time>2022-10-01T08:25:47Z</time>
      </trkpt>
      <trkpt lat="47.12307" lon="7.23125">
        <ele>433.8</ele>
        <time>2022-10-01T08:25:48Z</time>
      </trkpt>
      <trkpt lat="47.12309" lon="7.2313">
        <ele>433.9</ele>
        <time>2022-10-01T08:25:49Z</time>
      </trkpt>
      <trkpt lat="47.12308" lon="7.23134">
        <ele>433.9</ele>
        <time>2022-10-01T08:25:50Z</time>
      </trkpt>
      <trkpt lat="47.12311" lon="7.23141">
        <ele>433.9</ele>
        <time>2022-10-01T08:25:51Z</time>
      </trkpt>
      <trkpt lat="47.12311" lon="7.23145">
        <ele>433.9</ele>
        <time>2022-10-01T08:25:52Z</time>
      </trkpt>
      <trkpt lat="47.12311" lon="7.23151">
        <ele>434</ele>
        <time>2022-10-01T08:25:53Z</time>
      </trkpt>
      <trkpt lat="47.12311" lon="7.23156">
        <ele>434</ele>
        <time>2022-10-01T08:25:54Z</time>
      </trkpt>
      <trkpt lat="47.12311" lon="7.23161">
        <ele>434</ele>
        <time>2022-10-01T08:25:55Z</time>
      </trkpt>
      <trkpt lat="47.1231" lon="7.23168">
        <ele>434</ele>
        <time>2022-10-01T08:25:56Z</time>
      </trkpt>
      <trkpt lat="47.12309" lon="7.23175">
        <ele>434</ele>
        <time>2022-10-01T08:25:57Z</time>
      </trkpt>
      <trkpt lat="47.12308" lon="7.23181">
        <ele>434</ele>
        <time>2022-10-01T08:25:58Z</time>
      </trkpt>
      <trkpt lat="47.12308" lon="7.23187">
        <ele>434</ele>
        <time>2022-10-01T08:25:59Z</time>
      </trkpt>
      <trkpt lat="47.12308" lon="7.23194">
        <ele>434.1</ele>
        <time>2022-10-01T08:26:00Z</time>
      </trkpt>
      <trkpt lat="47.12306" lon="7.23201">
        <ele>434.1</ele>
        <time>2022-10-01T08:26:01Z</time>
      </trkpt>
      <trkpt lat="47.12305" lon="7.23207">
        <ele>434.1</ele>
        <time>2022-10-01T08:26:02Z</time>
      </trkpt>
      <trkpt lat="47.12304" lon="7.23213">
        <ele>434.1</ele>
        <time>2022-10-01T08:26:03Z</time>
      </trkpt>
      <trkpt lat="47.12303" lon="7.23222">
        <ele>434.1</ele>
        <time>2022-10-01T08:26:04Z</time>
      </trkpt>
      <trkpt lat="47.12302" lon="7.23229">
        <ele>434.1</ele>
        <time>2022-10-01T08:26:05Z</time>
      </trkpt>
      <trkpt lat="47.12301" lon="7.23236">
        <ele>434.1</ele>
        <time>2022-10-01T08:26:06Z</time>
      </trkpt>
      <trkpt lat="47.123" lon="7.23243">
        <ele>434.1</ele>
        <time>2022-10-01T08:26:07Z</time>
      </trkpt>
      <trkpt lat="47.12299" lon="7.2325">
        <ele>434.1</ele>
        <time>2022-10-01T08:26:08Z</time>
      </trkpt>
      <trkpt lat="47.12297" lon="7.23257">
        <ele>434.1</ele>
        <time>2022-10-01T08:26:09Z</time>
      </trkpt>
      <trkpt lat="47.12296" lon="7.23263">
        <ele>434.1</ele>
        <time>2022-10-01T08:26:10Z</time>
      </trkpt>
      <trkpt lat="47.12295" lon="7.2327">
        <ele>434.1</ele>
        <time>2022-10-01T08:26:11Z</time>
      </trkpt>
      <trkpt lat="47.12293" lon="7.23278">
        <ele>434.1</ele>
        <time>2022-10-01T08:26:12Z</time>
      </trkpt>
      <trkpt lat="47.12292" lon="7.23286">
        <ele>434.1</ele>
        <time>2022-10-01T08:26:13Z</time>
      </trkpt>
      <trkpt lat="47.1229" lon="7.23295">
        <ele>434.1</ele>
        <time>2022-10-01T08:26:14Z</time>
      </trkpt>
      <trkpt lat="47.12289" lon="7.23302">
        <ele>434.1</ele>
        <time>2022-10-01T08:26:15Z</time>
      </trkpt>
      <trkpt lat="47.12287" lon="7.23309">
        <ele>434.1</ele>
        <time>2022-10-01T08:26:16Z</time>
      </trkpt>
      <trkpt lat="47.12286" lon="7.23317">
        <ele>434.1</ele>
        <time>2022-10-01T08:26:17Z</time>
      </trkpt>
      <trkpt lat="47.12284" lon="7.23325">
        <ele>434.1</ele>
        <time>2022-10-01T08:26:18Z</time>
      </trkpt>
      <trkpt lat="47.12283" lon="7.23333">
        <ele>434</ele>
        <time>2022-10-01T08:26:19Z</time>
      </trkpt>
      <trkpt lat="47.12282" lon="7.23342">
        <ele>434</ele>
        <time>2022-10-01T08:26:20Z</time>
      </trkpt>
      <trkpt lat="47.1228" lon="7.23349">
        <ele>433.9</ele>
        <time>2022-10-01T08:26:21Z</time>
      </trkpt>
      <trkpt lat="47.12279" lon="7.23358">
        <ele>433.9</ele>
        <time>2022-10-01T08:26:22Z</time>
      </trkpt>
      <trkpt lat="47.12278" lon="7.23365">
        <ele>433.8</ele>
        <time>2022-10-01T08:26:23Z</time>
      </trkpt>
      <trkpt lat="47.12276" lon="7.23372">
        <ele>433.8</ele>
        <time>2022-10-01T08:26:24Z</time>
      </trkpt>
      <trkpt lat="47.12275" lon="7.23379">
        <ele>433.7</ele>
        <time>2022-10-01T08:26:25Z</time>
      </trkpt>
      <trkpt lat="47.12273" lon="7.23388">
        <ele>433.7</ele>
        <time>2022-10-01T08:26:26Z</time>
      </trkpt>
      <trkpt lat="47.12271" lon="7.23396">
        <ele>433.6</ele>
        <time>2022-10-01T08:26:27Z</time>
      </trkpt>
      <trkpt lat="47.1227" lon="7.23404">
        <ele>433.6</ele>
        <time>2022-10-01T08:26:28Z</time>
      </trkpt>
      <trkpt lat="47.12269" lon="7.23412">
        <ele>433.6</ele>
        <time>2022-10-01T08:26:29Z</time>
      </trkpt>
      <trkpt lat="47.12267" lon="7.23421">
        <ele>433.5</ele>
        <time>2022-10-01T08:26:30Z</time>
      </trkpt>
      <trkpt lat="47.12265" lon="7.2343">
        <ele>433.5</ele>
        <time>2022-10-01T08:26:31Z</time>
      </trkpt>
      <trkpt lat="47.12263" lon="7.23437">
        <ele>433.4</ele>
        <time>2022-10-01T08:26:32Z</time>
      </trkpt>
      <trkpt lat="47.12263" lon="7.23443">
        <ele>433.4</ele>
        <time>2022-10-01T08:26:33Z</time>
      </trkpt>
      <trkpt lat="47.12262" lon="7.23449">
        <ele>433.4</ele>
        <time>2022-10-01T08:26:34Z</time>
      </trkpt>
      <trkpt lat="47.12261" lon="7.23455">
        <ele>433.3</ele>
        <time>2022-10-01T08:26:35Z</time>
      </trkpt>
      <trkpt lat="47.1226" lon="7.23462">
        <ele>433.3</ele>
        <time>2022-10-01T08:26:36Z</time>
      </trkpt>
      <trkpt lat="47.12258" lon="7.23469">
        <ele>433.3</ele>
        <time>2022-10-01T08:26:37Z</time>
      </trkpt>
      <trkpt lat="47.12257" lon="7.23476">
        <ele>433.2</ele>
        <time>2022-10-01T08:26:38Z</time>
      </trkpt>
      <trkpt lat="47.12256" lon="7.23483">
        <ele>433.2</ele>
        <time>2022-10-01T08:26:39Z</time>
      </trkpt>
      <trkpt lat="47.12255" lon="7.23491">
        <ele>433.1</ele>
        <time>2022-10-01T08:26:40Z</time>
      </trkpt>
      <trkpt lat="47.12253" lon="7.23498">
        <ele>433.1</ele>
        <time>2022-10-01T08:26:41Z</time>
      </trkpt>
      <trkpt lat="47.12251" lon="7.23506">
        <ele>433</ele>
        <time>2022-10-01T08:26:42Z</time>
      </trkpt>
      <trkpt lat="47.1225" lon="7.23514">
        <ele>432.9</ele>
        <time>2022-10-01T08:26:43Z</time>
      </trkpt>
      <trkpt lat="47.12249" lon="7.2352">
        <ele>432.9</ele>
        <time>2022-10-01T08:26:44Z</time>
      </trkpt>
      <trkpt lat="47.12249" lon="7.23528">
        <ele>432.9</ele>
        <time>2022-10-01T08:26:45Z</time>
      </trkpt>
      <trkpt lat="47.12246" lon="7.23538">
        <ele>432.8</ele>
        <time>2022-10-01T08:26:46Z</time>
      </trkpt>
      <trkpt lat="47.12244" lon="7.23548">
        <ele>432.8</ele>
        <time>2022-10-01T08:26:47Z</time>
      </trkpt>
      <trkpt lat="47.12242" lon="7.23556">
        <ele>432.7</ele>
        <time>2022-10-01T08:26:48Z</time>
      </trkpt>
      <trkpt lat="47.12241" lon="7.23564">
        <ele>432.7</ele>
        <time>2022-10-01T08:26:49Z</time>
      </trkpt>
      <trkpt lat="47.1224" lon="7.23572">
        <ele>432.6</ele>
        <time>2022-10-01T08:26:50Z</time>
      </trkpt>
      <trkpt lat="47.12238" lon="7.23581">
        <ele>432.6</ele>
        <time>2022-10-01T08:26:51Z</time>
      </trkpt>
      <trkpt lat="47.12236" lon="7.23589">
        <ele>432.5</ele>
        <time>2022-10-01T08:26:52Z</time>
      </trkpt>
      <trkpt lat="47.12235" lon="7.23598">
        <ele>432.5</ele>
        <time>2022-10-01T08:26:53Z</time>
      </trkpt>
      <trkpt lat="47.12233" lon="7.23606">
        <ele>432.5</ele>
        <time>2022-10-01T08:26:54Z</time>
      </trkpt>
      <trkpt lat="47.12232" lon="7.23615">
        <ele>432.4</ele>
        <time>2022-10-01T08:26:55Z</time>
      </trkpt>
      <trkpt lat="47.1223" lon="7.23622">
        <ele>432.4</ele>
        <time>2022-10-01T08:26:56Z</time>
      </trkpt>
      <trkpt lat="47.12229" lon="7.2363">
        <ele>432.4</ele>
        <time>2022-10-01T08:26:57Z</time>
      </trkpt>
      <trkpt lat="47.12227" lon="7.2364">
        <ele>432.3</ele>
        <time>2022-10-01T08:26:58Z</time>
      </trkpt>
      <trkpt lat="47.12225" lon="7.23649">
        <ele>432.3</ele>
        <time>2022-10-01T08:26:59Z</time>
      </trkpt>
      <trkpt lat="47.12223" lon="7.23658">
        <ele>432.3</ele>
        <time>2022-10-01T08:27:00Z</time>
      </trkpt>
      <trkpt lat="47.12222" lon="7.23666">
        <ele>432.3</ele>
        <time>2022-10-01T08:27:01Z</time>
      </trkpt>
      <trkpt lat="47.12219" lon="7.23673">
        <ele>432.2</ele>
        <time>2022-10-01T08:27:02Z</time>
      </trkpt>
      <trkpt lat="47.12218" lon="7.23683">
        <ele>432.2</ele>
        <time>2022-10-01T08:27:03Z</time>
      </trkpt>
      <trkpt lat="47.12217" lon="7.23692">
        <ele>432.2</ele>
        <time>2022-10-01T08:27:04Z</time>
      </trkpt>
      <trkpt lat="47.12215" lon="7.23701">
        <ele>432.2</ele>
        <time>2022-10-01T08:27:05Z</time>
      </trkpt>
      <trkpt lat="47.12214" lon="7.23708">
        <ele>432.2</ele>
        <time>2022-10-01T08:27:06Z</time>
      </trkpt>
      <trkpt lat="47.12213" lon="7.23715">
        <ele>432.2</ele>
        <time>2022-10-01T08:27:07Z</time>
      </trkpt>
      <trkpt lat="47.12211" lon="7.23721">
        <ele>432.2</ele>
        <time>2022-10-01T08:27:08Z</time>
      </trkpt>
      <trkpt lat="47.1221" lon="7.23729">
        <ele>432.2</ele>
        <time>2022-10-01T08:27:09Z</time>
      </trkpt>
      <trkpt lat="47.12207" lon="7.23741">
        <ele>432.1</ele>
        <time>2022-10-01T08:27:10Z</time>
      </trkpt>
      <trkpt lat="47.12206" lon="7.2375">
        <ele>432.1</ele>
        <time>2022-10-01T08:27:11Z</time>
      </trkpt>
      <trkpt lat="47.12204" lon="7.23758">
        <ele>432.1</ele>
        <time>2022-10-01T08:27:12Z</time>
      </trkpt>
      <trkpt lat="47.12203" lon="7.23768">
        <ele>432.2</ele>
        <time>2022-10-01T08:27:13Z</time>
      </trkpt>
      <trkpt lat="47.12201" lon="7.23776">
        <ele>432.2</ele>
        <time>2022-10-01T08:27:14Z</time>
      </trkpt>
      <trkpt lat="47.122" lon="7.23783">
        <ele>432.2</ele>
        <time>2022-10-01T08:27:15Z</time>
      </trkpt>
      <trkpt lat="47.12199" lon="7.23789">
        <ele>432.2</ele>
        <time>2022-10-01T08:27:16Z</time>
      </trkpt>
      <trkpt lat="47.12198" lon="7.23797">
        <ele>432.2</ele>
        <time>2022-10-01T08:27:17Z</time>
      </trkpt>
      <trkpt lat="47.12195" lon="7.23807">
        <ele>432.3</ele>
        <time>2022-10-01T08:27:18Z</time>
      </trkpt>
      <trkpt lat="47.12193" lon="7.23815">
        <ele>432.3</ele>
        <time>2022-10-01T08:27:19Z</time>
      </trkpt>
      <trkpt lat="47.12192" lon="7.23824">
        <ele>432.3</ele>
        <time>2022-10-01T08:27:20Z</time>
      </trkpt>
      <trkpt lat="47.1219" lon="7.23833">
        <ele>432.3</ele>
        <time>2022-10-01T08:27:21Z</time>
      </trkpt>
      <trkpt lat="47.12188" lon="7.23843">
        <ele>432.3</ele>
        <time>2022-10-01T08:27:22Z</time>
      </trkpt>
      <trkpt lat="47.12186" lon="7.23852">
        <ele>432.3</ele>
        <time>2022-10-01T08:27:23Z</time>
      </trkpt>
      <trkpt lat="47.12185" lon="7.23862">
        <ele>432.4</ele>
        <time>2022-10-01T08:27:24Z</time>
      </trkpt>
      <trkpt lat="47.12183" lon="7.23871">
        <ele>432.4</ele>
        <time>2022-10-01T08:27:25Z</time>
      </trkpt>
      <trkpt lat="47.12181" lon="7.2388">
        <ele>432.4</ele>
        <time>2022-10-01T08:27:26Z</time>
      </trkpt>
      <trkpt lat="47.12179" lon="7.23889">
        <ele>432.4</ele>
        <time>2022-10-01T08:27:27Z</time>
      </trkpt>
      <trkpt lat="47.12177" lon="7.23898">
        <ele>432.4</ele>
        <time>2022-10-01T08:27:28Z</time>
      </trkpt>
      <trkpt lat="47.12176" lon="7.23907">
        <ele>432.4</ele>
        <time>2022-10-01T08:27:29Z</time>
      </trkpt>
      <trkpt lat="47.12175" lon="7.23915">
        <ele>432.4</ele>
        <time>2022-10-01T08:27:30Z</time>
      </trkpt>
      <trkpt lat="47.12173" lon="7.23924">
        <ele>432.4</ele>
        <time>2022-10-01T08:27:31Z</time>
      </trkpt>
      <trkpt lat="47.12172" lon="7.23931">
        <ele>432.4</ele>
        <time>2022-10-01T08:27:32Z</time>
      </trkpt>
      <trkpt lat="47.1217" lon="7.23939">
        <ele>432.4</ele>
        <time>2022-10-01T08:27:33Z</time>
      </trkpt>
      <trkpt lat="47.12169" lon="7.23946">
        <ele>432.4</ele>
        <time>2022-10-01T08:27:34Z</time>
      </trkpt>
      <trkpt lat="47.12167" lon="7.23955">
        <ele>432.4</ele>
        <time>2022-10-01T08:27:35Z</time>
      </trkpt>
      <trkpt lat="47.12166" lon="7.23963">
        <ele>432.4</ele>
        <time>2022-10-01T08:27:36Z</time>
      </trkpt>
      <trkpt lat="47.12165" lon="7.2397">
        <ele>432.4</ele>
        <time>2022-10-01T08:27:37Z</time>
      </trkpt>
      <trkpt lat="47.12163" lon="7.23978">
        <ele>432.4</ele>
        <time>2022-10-01T08:27:38Z</time>
      </trkpt>
      <trkpt lat="47.12162" lon="7.23987">
        <ele>432.5</ele>
        <time>2022-10-01T08:27:39Z</time>
      </trkpt>
      <trkpt lat="47.1216" lon="7.23995">
        <ele>432.5</ele>
        <time>2022-10-01T08:27:40Z</time>
      </trkpt>
      <trkpt lat="47.12159" lon="7.24002">
        <ele>432.5</ele>
        <time>2022-10-01T08:27:41Z</time>
      </trkpt>
      <trkpt lat="47.12158" lon="7.24011">
        <ele>432.5</ele>
        <time>2022-10-01T08:27:42Z</time>
      </trkpt>
      <trkpt lat="47.12157" lon="7.24018">
        <ele>432.5</ele>
        <time>2022-10-01T08:27:43Z</time>
      </trkpt>
      <trkpt lat="47.12156" lon="7.24025">
        <ele>432.6</ele>
        <time>2022-10-01T08:27:44Z</time>
      </trkpt>
      <trkpt lat="47.12154" lon="7.24033">
        <ele>432.6</ele>
        <time>2022-10-01T08:27:45Z</time>
      </trkpt>
      <trkpt lat="47.12153" lon="7.24039">
        <ele>432.6</ele>
        <time>2022-10-01T08:27:46Z</time>
      </trkpt>
      <trkpt lat="47.12152" lon="7.24044">
        <ele>432.7</ele>
        <time>2022-10-01T08:27:47Z</time>
      </trkpt>
      <trkpt lat="47.12151" lon="7.24053">
        <ele>432.7</ele>
        <time>2022-10-01T08:27:48Z</time>
      </trkpt>
      <trkpt lat="47.12149" lon="7.24061">
        <ele>432.8</ele>
        <time>2022-10-01T08:27:49Z</time>
      </trkpt>
      <trkpt lat="47.12148" lon="7.24069">
        <ele>432.8</ele>
        <time>2022-10-01T08:27:50Z</time>
      </trkpt>
      <trkpt lat="47.12146" lon="7.24077">
        <ele>432.9</ele>
        <time>2022-10-01T08:27:51Z</time>
      </trkpt>
      <trkpt lat="47.12144" lon="7.24085">
        <ele>432.9</ele>
        <time>2022-10-01T08:27:52Z</time>
      </trkpt>
      <trkpt lat="47.12143" lon="7.24092">
        <ele>433</ele>
        <time>2022-10-01T08:27:53Z</time>
      </trkpt>
      <trkpt lat="47.12142" lon="7.241">
        <ele>433</ele>
        <time>2022-10-01T08:27:54Z</time>
      </trkpt>
      <trkpt lat="47.12141" lon="7.24106">
        <ele>433.1</ele>
        <time>2022-10-01T08:27:55Z</time>
      </trkpt>
      <trkpt lat="47.12139" lon="7.24112">
        <ele>433.1</ele>
        <time>2022-10-01T08:27:56Z</time>
      </trkpt>
      <trkpt lat="47.12137" lon="7.24118">
        <ele>433.2</ele>
        <time>2022-10-01T08:27:57Z</time>
      </trkpt>
      <trkpt lat="47.12135" lon="7.24123">
        <ele>433.2</ele>
        <time>2022-10-01T08:27:58Z</time>
      </trkpt>
      <trkpt lat="47.12133" lon="7.24127">
        <ele>433.3</ele>
        <time>2022-10-01T08:27:59Z</time>
      </trkpt>
      <trkpt lat="47.12131" lon="7.24131">
        <ele>433.5</ele>
        <time>2022-10-01T08:28:00Z</time>
      </trkpt>
      <trkpt lat="47.12129" lon="7.24135">
        <ele>433.6</ele>
        <time>2022-10-01T08:28:01Z</time>
      </trkpt>
      <trkpt lat="47.12127" lon="7.24137">
        <ele>433.8</ele>
        <time>2022-10-01T08:28:02Z</time>
      </trkpt>
      <trkpt lat="47.12126" lon="7.24138">
        <ele>433.8</ele>
        <time>2022-10-01T08:28:03Z</time>
      </trkpt>
      <trkpt lat="47.12124" lon="7.24141">
        <ele>433.9</ele>
        <time>2022-10-01T08:28:04Z</time>
      </trkpt>
      <trkpt lat="47.1212" lon="7.24141">
        <ele>434</ele>
        <time>2022-10-01T08:28:05Z</time>
      </trkpt>
      <trkpt lat="47.12119" lon="7.24141">
        <ele>434</ele>
        <time>2022-10-01T08:28:06Z</time>
      </trkpt>
      <trkpt lat="47.12116" lon="7.24139">
        <ele>434</ele>
        <time>2022-10-01T08:28:07Z</time>
      </trkpt>
      <trkpt lat="47.12113" lon="7.24138">
        <ele>434.1</ele>
        <time>2022-10-01T08:28:08Z</time>
      </trkpt>
      <trkpt lat="47.1211" lon="7.24136">
        <ele>434.1</ele>
        <time>2022-10-01T08:28:09Z</time>
      </trkpt>
      <trkpt lat="47.12107" lon="7.24135">
        <ele>434.2</ele>
        <time>2022-10-01T08:28:10Z</time>
      </trkpt>
      <trkpt lat="47.12104" lon="7.24135">
        <ele>434.2</ele>
        <time>2022-10-01T08:28:11Z</time>
      </trkpt>
      <trkpt lat="47.12101" lon="7.24134">
        <ele>434.3</ele>
        <time>2022-10-01T08:28:12Z</time>
      </trkpt>
      <trkpt lat="47.12097" lon="7.24134">
        <ele>434.3</ele>
        <time>2022-10-01T08:28:13Z</time>
      </trkpt>
      <trkpt lat="47.12094" lon="7.24135">
        <ele>434.5</ele>
        <time>2022-10-01T08:28:14Z</time>
      </trkpt>
      <trkpt lat="47.12091" lon="7.24138">
        <ele>434.5</ele>
        <time>2022-10-01T08:28:15Z</time>
      </trkpt>
      <trkpt lat="47.1209" lon="7.24139">
        <ele>434.6</ele>
        <time>2022-10-01T08:28:16Z</time>
      </trkpt>
      <trkpt lat="47.12089" lon="7.24143">
        <ele>434.6</ele>
        <time>2022-10-01T08:28:17Z</time>
      </trkpt>
      <trkpt lat="47.1209" lon="7.24144">
        <ele>434.6</ele>
        <time>2022-10-01T08:28:18Z</time>
      </trkpt>
      <trkpt lat="47.1209" lon="7.24145">
        <ele>434.7</ele>
        <time>2022-10-01T08:28:19Z</time>
      </trkpt>
      <trkpt lat="47.1209" lon="7.24147">
        <ele>434.7</ele>
        <time>2022-10-01T08:28:20Z</time>
      </trkpt>
      <trkpt lat="47.1209" lon="7.2415">
        <ele>434.7</ele>
        <time>2022-10-01T08:28:21Z</time>
      </trkpt>
      <trkpt lat="47.12089" lon="7.24154">
        <ele>434.8</ele>
        <time>2022-10-01T08:28:22Z</time>
      </trkpt>
      <trkpt lat="47.12089" lon="7.24156">
        <ele>434.8</ele>
        <time>2022-10-01T08:28:23Z</time>
      </trkpt>
      <trkpt lat="47.12089" lon="7.24158">
        <ele>434.8</ele>
        <time>2022-10-01T08:28:24Z</time>
      </trkpt>
      <trkpt lat="47.12088" lon="7.2416">
        <ele>434.9</ele>
        <time>2022-10-01T08:28:25Z</time>
      </trkpt>
      <trkpt lat="47.12088" lon="7.24162">
        <ele>434.9</ele>
        <time>2022-10-01T08:28:26Z</time>
      </trkpt>
      <trkpt lat="47.12087" lon="7.24165">
        <ele>434.9</ele>
        <time>2022-10-01T08:28:27Z</time>
      </trkpt>
      <trkpt lat="47.12087" lon="7.2417">
        <ele>435</ele>
        <time>2022-10-01T08:28:28Z</time>
      </trkpt>
      <trkpt lat="47.12088" lon="7.24172">
        <ele>435</ele>
        <time>2022-10-01T08:28:29Z</time>
      </trkpt>
      <trkpt lat="47.12089" lon="7.24176">
        <ele>435</ele>
        <time>2022-10-01T08:28:30Z</time>
      </trkpt>
      <trkpt lat="47.1209" lon="7.24177">
        <ele>435.1</ele>
        <time>2022-10-01T08:28:31Z</time>
      </trkpt>
      <trkpt lat="47.12091" lon="7.24177">
        <ele>435.1</ele>
        <time>2022-10-01T08:28:32Z</time>
      </trkpt>
      <trkpt lat="47.12091" lon="7.24177">
        <ele>435.1</ele>
        <time>2022-10-01T08:28:33Z</time>
      </trkpt>
      <trkpt lat="47.12092" lon="7.24177">
        <ele>435.1</ele>
        <time>2022-10-01T08:28:34Z</time>
      </trkpt>
      <trkpt lat="47.12091" lon="7.24176">
        <ele>435.1</ele>
        <time>2022-10-01T08:28:35Z</time>
      </trkpt>
      <trkpt lat="47.12091" lon="7.24177">
        <ele>435.1</ele>
        <time>2022-10-01T08:28:36Z</time>
      </trkpt>
      <trkpt lat="47.12092" lon="7.24177">
        <ele>435.1</ele>
        <time>2022-10-01T08:28:37Z</time>
      </trkpt>
      <trkpt lat="47.12092" lon="7.24178">
        <ele>435.1</ele>
        <time>2022-10-01T08:28:38Z</time>
      </trkpt>
      <trkpt lat="47.12093" lon="7.24178">
        <ele>435.1</ele>
        <time>2022-10-01T08:28:39Z</time>
      </trkpt>
      <trkpt lat="47.12092" lon="7.24179">
        <ele>435.1</ele>
        <time>2022-10-01T08:28:40Z</time>
      </trkpt>
      <trkpt lat="47.12092" lon="7.24179">
        <ele>435.1</ele>
        <time>2022-10-01T08:28:41Z</time>
      </trkpt>
      <trkpt lat="47.12091" lon="7.2418">
        <ele>435.1</ele>
        <time>2022-10-01T08:28:42Z</time>
      </trkpt>
      <trkpt lat="47.12091" lon="7.2418">
        <ele>435.1</ele>
        <time>2022-10-01T08:28:43Z</time>
      </trkpt>
      <trkpt lat="47.1209" lon="7.2418">
        <ele>435.1</ele>
        <time>2022-10-01T08:28:44Z</time>
      </trkpt>
      <trkpt lat="47.1209" lon="7.24181">
        <ele>435.1</ele>
        <time>2022-10-01T08:29:22Z</time>
      </trkpt>
      <trkpt lat="47.12089" lon="7.24181">
        <ele>435.2</ele>
        <time>2022-10-01T08:29:23Z</time>
      </trkpt>
      <trkpt lat="47.12089" lon="7.24182">
        <ele>435.2</ele>
        <time>2022-10-01T08:29:24Z</time>
      </trkpt>
      <trkpt lat="47.12088" lon="7.24182">
        <ele>435.2</ele>
        <time>2022-10-01T08:29:25Z</time>
      </trkpt>
      <trkpt lat="47.12088" lon="7.24183">
        <ele>435.2</ele>
        <time>2022-10-01T08:29:26Z</time>
      </trkpt>
      <trkpt lat="47.12087" lon="7.24183">
        <ele>435.2</ele>
        <time>2022-10-01T08:29:27Z</time>
      </trkpt>
      <trkpt lat="47.12087" lon="7.24184">
        <ele>435.2</ele>
        <time>2022-10-01T08:29:28Z</time>
      </trkpt>
      <trkpt lat="47.12086" lon="7.24184">
        <ele>435.2</ele>
        <time>2022-10-01T08:29:29Z</time>
      </trkpt>
      <trkpt lat="47.12086" lon="7.24184">
        <ele>435.2</ele>
        <time>2022-10-01T08:29:30Z</time>
      </trkpt>
      <trkpt lat="47.12085" lon="7.24185">
        <ele>435.2</ele>
        <time>2022-10-01T08:29:31Z</time>
      </trkpt>
      <trkpt lat="47.12085" lon="7.24185">
        <ele>435.2</ele>
        <time>2022-10-01T08:29:54Z</time>
      </trkpt>
      <trkpt lat="47.12084" lon="7.24186">
        <ele>435.3</ele>
        <time>2022-10-01T08:29:55Z</time>
      </trkpt>
      <trkpt lat="47.12084" lon="7.24186">
        <ele>435.3</ele>
        <time>2022-10-01T08:29:56Z</time>
      </trkpt>
      <trkpt lat="47.12083" lon="7.24186">
        <ele>435.3</ele>
        <time>2022-10-01T08:29:57Z</time>
      </trkpt>
      <trkpt lat="47.12082" lon="7.24187">
        <ele>435.2</ele>
        <time>2022-10-01T08:29:58Z</time>
      </trkpt>
      <trkpt lat="47.12082" lon="7.24188">
        <ele>435.2</ele>
        <time>2022-10-01T08:29:59Z</time>
      </trkpt>
      <trkpt lat="47.12082" lon="7.24189">
        <ele>435.2</ele>
        <time>2022-10-01T08:30:00Z</time>
      </trkpt>
      <trkpt lat="47.12082" lon="7.24192">
        <ele>435.1</ele>
        <time>2022-10-01T08:30:01Z</time>
      </trkpt>
      <trkpt lat="47.12082" lon="7.24193">
        <ele>435</ele>
        <time>2022-10-01T08:30:02Z</time>
      </trkpt>
      <trkpt lat="47.12083" lon="7.24195">
        <ele>435</ele>
        <time>2022-10-01T08:30:03Z</time>
      </trkpt>
      <trkpt lat="47.12083" lon="7.24198">
        <ele>434.9</ele>
        <time>2022-10-01T08:30:04Z</time>
      </trkpt>
      <trkpt lat="47.12083" lon="7.242">
        <ele>434.9</ele>
        <time>2022-10-01T08:30:05Z</time>
      </trkpt>
      <trkpt lat="47.12084" lon="7.24201">
        <ele>434.8</ele>
        <time>2022-10-01T08:30:06Z</time>
      </trkpt>
      <trkpt lat="47.12084" lon="7.24202">
        <ele>434.8</ele>
        <time>2022-10-01T08:30:07Z</time>
      </trkpt>
      <trkpt lat="47.12085" lon="7.24203">
        <ele>434.7</ele>
        <time>2022-10-01T08:30:08Z</time>
      </trkpt>
      <trkpt lat="47.12087" lon="7.24202">
        <ele>434.7</ele>
        <time>2022-10-01T08:30:09Z</time>
      </trkpt>
      <trkpt lat="47.12088" lon="7.24202">
        <ele>434.6</ele>
        <time>2022-10-01T08:30:10Z</time>
      </trkpt>
      <trkpt lat="47.12089" lon="7.24202">
        <ele>434.6</ele>
        <time>2022-10-01T08:30:11Z</time>
      </trkpt>
      <trkpt lat="47.12091" lon="7.24202">
        <ele>434.5</ele>
        <time>2022-10-01T08:30:12Z</time>
      </trkpt>
      <trkpt lat="47.12092" lon="7.24202">
        <ele>434.5</ele>
        <time>2022-10-01T08:30:13Z</time>
      </trkpt>
      <trkpt lat="47.12093" lon="7.24202">
        <ele>434.4</ele>
        <time>2022-10-01T08:30:14Z</time>
      </trkpt>
      <trkpt lat="47.12094" lon="7.24202">
        <ele>434.4</ele>
        <time>2022-10-01T08:30:15Z</time>
      </trkpt>
      <trkpt lat="47.12094" lon="7.24203">
        <ele>434.3</ele>
        <time>2022-10-01T08:30:16Z</time>
      </trkpt>
      <trkpt lat="47.12094" lon="7.24203">
        <ele>434.3</ele>
        <time>2022-10-01T08:30:17Z</time>
      </trkpt>
      <trkpt lat="47.12094" lon="7.24203">
        <ele>434.3</ele>
        <time>2022-10-01T08:30:18Z</time>
      </trkpt>
      <trkpt lat="47.12094" lon="7.24203">
        <ele>434.3</ele>
        <time>2022-10-01T08:30:19Z</time>
      </trkpt>
      <trkpt lat="47.12095" lon="7.24203">
        <ele>434.3</ele>
        <time>2022-10-01T08:30:20Z</time>
      </trkpt>
      <trkpt lat="47.12095" lon="7.24203">
        <ele>434.3</ele>
        <time>2022-10-01T08:30:21Z</time>
      </trkpt>
      <trkpt lat="47.12095" lon="7.24203">
        <ele>434.3</ele>
        <time>2022-10-01T08:30:22Z</time>
      </trkpt>
      <trkpt lat="47.12096" lon="7.24203">
        <ele>434.3</ele>
        <time>2022-10-01T08:30:23Z</time>
      </trkpt>
      <trkpt lat="47.12098" lon="7.24205">
        <ele>434.2</ele>
        <time>2022-10-01T08:30:24Z</time>
      </trkpt>
      <trkpt lat="47.12099" lon="7.24207">
        <ele>434.1</ele>
        <time>2022-10-01T08:30:25Z</time>
      </trkpt>
      <trkpt lat="47.12101" lon="7.24208">
        <ele>434</ele>
        <time>2022-10-01T08:30:27Z</time>
      </trkpt>
      <trkpt lat="47.12102" lon="7.2421">
        <ele>433.9</ele>
        <time>2022-10-01T08:30:28Z</time>
      </trkpt>
      <trkpt lat="47.12103" lon="7.24211">
        <ele>433.9</ele>
        <time>2022-10-01T08:30:29Z</time>
      </trkpt>
      <trkpt lat="47.12105" lon="7.24212">
        <ele>433.8</ele>
        <time>2022-10-01T08:30:30Z</time>
      </trkpt>
      <trkpt lat="47.12107" lon="7.24214">
        <ele>433.7</ele>
        <time>2022-10-01T08:30:31Z</time>
      </trkpt>
      <trkpt lat="47.12109" lon="7.24215">
        <ele>433.6</ele>
        <time>2022-10-01T08:30:32Z</time>
      </trkpt>
      <trkpt lat="47.12111" lon="7.24219">
        <ele>433.5</ele>
        <time>2022-10-01T08:30:33Z</time>
      </trkpt>
      <trkpt lat="47.12112" lon="7.24221">
        <ele>433.4</ele>
        <time>2022-10-01T08:30:34Z</time>
      </trkpt>
      <trkpt lat="47.12112" lon="7.24225">
        <ele>433.3</ele>
        <time>2022-10-01T08:30:35Z</time>
      </trkpt>
      <trkpt lat="47.12113" lon="7.24227">
        <ele>433.3</ele>
        <time>2022-10-01T08:30:36Z</time>
      </trkpt>
      <trkpt lat="47.12113" lon="7.24232">
        <ele>433.2</ele>
        <time>2022-10-01T08:30:37Z</time>
      </trkpt>
      <trkpt lat="47.12113" lon="7.24234">
        <ele>433.1</ele>
        <time>2022-10-01T08:30:38Z</time>
      </trkpt>
      <trkpt lat="47.12112" lon="7.24238">
        <ele>433</ele>
        <time>2022-10-01T08:30:39Z</time>
      </trkpt>
      <trkpt lat="47.12112" lon="7.24245">
        <ele>432.8</ele>
        <time>2022-10-01T08:30:40Z</time>
      </trkpt>
      <trkpt lat="47.1211" lon="7.24256">
        <ele>432.7</ele>
        <time>2022-10-01T08:30:41Z</time>
      </trkpt>
      <trkpt lat="47.12109" lon="7.24264">
        <ele>432.7</ele>
        <time>2022-10-01T08:30:42Z</time>
      </trkpt>
      <trkpt lat="47.12109" lon="7.24271">
        <ele>432.7</ele>
        <time>2022-10-01T08:30:43Z</time>
      </trkpt>
      <trkpt lat="47.12109" lon="7.24279">
        <ele>432.6</ele>
        <time>2022-10-01T08:30:44Z</time>
      </trkpt>
      <trkpt lat="47.12109" lon="7.24284">
        <ele>432.5</ele>
        <time>2022-10-01T08:30:45Z</time>
      </trkpt>
      <trkpt lat="47.12108" lon="7.2429">
        <ele>432.4</ele>
        <time>2022-10-01T08:30:46Z</time>
      </trkpt>
      <trkpt lat="47.12107" lon="7.24295">
        <ele>432.3</ele>
        <time>2022-10-01T08:30:47Z</time>
      </trkpt>
      <trkpt lat="47.12107" lon="7.24302">
        <ele>432.3</ele>
        <time>2022-10-01T08:30:48Z</time>
      </trkpt>
      <trkpt lat="47.12105" lon="7.24309">
        <ele>432.2</ele>
        <time>2022-10-01T08:30:49Z</time>
      </trkpt>
      <trkpt lat="47.12104" lon="7.24318">
        <ele>432.1</ele>
        <time>2022-10-01T08:30:50Z</time>
      </trkpt>
      <trkpt lat="47.12102" lon="7.24328">
        <ele>432</ele>
        <time>2022-10-01T08:30:51Z</time>
      </trkpt>
      <trkpt lat="47.121" lon="7.24337">
        <ele>431.9</ele>
        <time>2022-10-01T08:30:52Z</time>
      </trkpt>
      <trkpt lat="47.12099" lon="7.24346">
        <ele>431.9</ele>
        <time>2022-10-01T08:30:53Z</time>
      </trkpt>
      <trkpt lat="47.12098" lon="7.24354">
        <ele>431.9</ele>
        <time>2022-10-01T08:30:54Z</time>
      </trkpt>
      <trkpt lat="47.12097" lon="7.24362">
        <ele>431.8</ele>
        <time>2022-10-01T08:30:55Z</time>
      </trkpt>
      <trkpt lat="47.12095" lon="7.24371">
        <ele>431.8</ele>
        <time>2022-10-01T08:30:56Z</time>
      </trkpt>
      <trkpt lat="47.12094" lon="7.2438">
        <ele>431.8</ele>
        <time>2022-10-01T08:30:57Z</time>
      </trkpt>
      <trkpt lat="47.12092" lon="7.24389">
        <ele>431.7</ele>
        <time>2022-10-01T08:30:58Z</time>
      </trkpt>
      <trkpt lat="47.12091" lon="7.24397">
        <ele>431.7</ele>
        <time>2022-10-01T08:30:59Z</time>
      </trkpt>
      <trkpt lat="47.12089" lon="7.24408">
        <ele>431.6</ele>
        <time>2022-10-01T08:31:00Z</time>
      </trkpt>
      <trkpt lat="47.12086" lon="7.24417">
        <ele>431.6</ele>
        <time>2022-10-01T08:31:01Z</time>
      </trkpt>
      <trkpt lat="47.12085" lon="7.24426">
        <ele>431.6</ele>
        <time>2022-10-01T08:31:02Z</time>
      </trkpt>
      <trkpt lat="47.12084" lon="7.24433">
        <ele>431.6</ele>
        <time>2022-10-01T08:31:03Z</time>
      </trkpt>
      <trkpt lat="47.12083" lon="7.24443">
        <ele>431.5</ele>
        <time>2022-10-01T08:31:04Z</time>
      </trkpt>
      <trkpt lat="47.1208" lon="7.24454">
        <ele>431.5</ele>
        <time>2022-10-01T08:31:05Z</time>
      </trkpt>
      <trkpt lat="47.12079" lon="7.24464">
        <ele>431.5</ele>
        <time>2022-10-01T08:31:06Z</time>
      </trkpt>
      <trkpt lat="47.12077" lon="7.24473">
        <ele>431.5</ele>
        <time>2022-10-01T08:31:07Z</time>
      </trkpt>
      <trkpt lat="47.12075" lon="7.24482">
        <ele>431.6</ele>
        <time>2022-10-01T08:31:08Z</time>
      </trkpt>
      <trkpt lat="47.12073" lon="7.24491">
        <ele>431.6</ele>
        <time>2022-10-01T08:31:09Z</time>
      </trkpt>
      <trkpt lat="47.12072" lon="7.24501">
        <ele>431.6</ele>
        <time>2022-10-01T08:31:10Z</time>
      </trkpt>
      <trkpt lat="47.1207" lon="7.2451">
        <ele>431.6</ele>
        <time>2022-10-01T08:31:11Z</time>
      </trkpt>
      <trkpt lat="47.12068" lon="7.24519">
        <ele>431.6</ele>
        <time>2022-10-01T08:31:12Z</time>
      </trkpt>
      <trkpt lat="47.12066" lon="7.24528">
        <ele>431.6</ele>
        <time>2022-10-01T08:31:13Z</time>
      </trkpt>
      <trkpt lat="47.12065" lon="7.24537">
        <ele>431.6</ele>
        <time>2022-10-01T08:31:14Z</time>
      </trkpt>
      <trkpt lat="47.12063" lon="7.24546">
        <ele>431.6</ele>
        <time>2022-10-01T08:31:15Z</time>
      </trkpt>
      <trkpt lat="47.12061" lon="7.24553">
        <ele>431.6</ele>
        <time>2022-10-01T08:31:16Z</time>
      </trkpt>
      <trkpt lat="47.12059" lon="7.24562">
        <ele>431.6</ele>
        <time>2022-10-01T08:31:17Z</time>
      </trkpt>
      <trkpt lat="47.12057" lon="7.24571">
        <ele>431.6</ele>
        <time>2022-10-01T08:31:18Z</time>
      </trkpt>
      <trkpt lat="47.12056" lon="7.2458">
        <ele>431.6</ele>
        <time>2022-10-01T08:31:19Z</time>
      </trkpt>
      <trkpt lat="47.12055" lon="7.24588">
        <ele>431.6</ele>
        <time>2022-10-01T08:31:20Z</time>
      </trkpt>
      <trkpt lat="47.12053" lon="7.24597">
        <ele>431.6</ele>
        <time>2022-10-01T08:31:21Z</time>
      </trkpt>
      <trkpt lat="47.12052" lon="7.24606">
        <ele>431.6</ele>
        <time>2022-10-01T08:31:22Z</time>
      </trkpt>
      <trkpt lat="47.1205" lon="7.24615">
        <ele>431.6</ele>
        <time>2022-10-01T08:31:23Z</time>
      </trkpt>
      <trkpt lat="47.12047" lon="7.24623">
        <ele>431.6</ele>
        <time>2022-10-01T08:31:24Z</time>
      </trkpt>
      <trkpt lat="47.12046" lon="7.24631">
        <ele>431.6</ele>
        <time>2022-10-01T08:31:25Z</time>
      </trkpt>
      <trkpt lat="47.12044" lon="7.2464">
        <ele>431.6</ele>
        <time>2022-10-01T08:31:26Z</time>
      </trkpt>
      <trkpt lat="47.12043" lon="7.24648">
        <ele>431.6</ele>
        <time>2022-10-01T08:31:27Z</time>
      </trkpt>
      <trkpt lat="47.12041" lon="7.24656">
        <ele>431.6</ele>
        <time>2022-10-01T08:31:28Z</time>
      </trkpt>
      <trkpt lat="47.1204" lon="7.24663">
        <ele>431.6</ele>
        <time>2022-10-01T08:31:29Z</time>
      </trkpt>
      <trkpt lat="47.12038" lon="7.24672">
        <ele>431.6</ele>
        <time>2022-10-01T08:31:30Z</time>
      </trkpt>
      <trkpt lat="47.12036" lon="7.24681">
        <ele>431.6</ele>
        <time>2022-10-01T08:31:31Z</time>
      </trkpt>
      <trkpt lat="47.12034" lon="7.24691">
        <ele>431.6</ele>
        <time>2022-10-01T08:31:32Z</time>
      </trkpt>
      <trkpt lat="47.12032" lon="7.247">
        <ele>431.6</ele>
        <time>2022-10-01T08:31:33Z</time>
      </trkpt>
      <trkpt lat="47.1203" lon="7.24708">
        <ele>431.6</ele>
        <time>2022-10-01T08:31:34Z</time>
      </trkpt>
      <trkpt lat="47.12029" lon="7.24718">
        <ele>431.6</ele>
        <time>2022-10-01T08:31:35Z</time>
      </trkpt>
      <trkpt lat="47.12027" lon="7.24727">
        <ele>431.6</ele>
        <time>2022-10-01T08:31:36Z</time>
      </trkpt>
      <trkpt lat="47.12025" lon="7.24735">
        <ele>431.5</ele>
        <time>2022-10-01T08:31:37Z</time>
      </trkpt>
      <trkpt lat="47.12024" lon="7.24744">
        <ele>431.5</ele>
        <time>2022-10-01T08:31:38Z</time>
      </trkpt>
      <trkpt lat="47.12021" lon="7.24752">
        <ele>431.5</ele>
        <time>2022-10-01T08:31:39Z</time>
      </trkpt>
      <trkpt lat="47.1202" lon="7.24761">
        <ele>431.5</ele>
        <time>2022-10-01T08:31:40Z</time>
      </trkpt>
      <trkpt lat="47.12019" lon="7.2477">
        <ele>431.5</ele>
        <time>2022-10-01T08:31:41Z</time>
      </trkpt>
      <trkpt lat="47.12017" lon="7.24778">
        <ele>431.5</ele>
        <time>2022-10-01T08:31:42Z</time>
      </trkpt>
      <trkpt lat="47.12016" lon="7.24786">
        <ele>431.5</ele>
        <time>2022-10-01T08:31:43Z</time>
      </trkpt>
      <trkpt lat="47.12015" lon="7.24793">
        <ele>431.5</ele>
        <time>2022-10-01T08:31:44Z</time>
      </trkpt>
      <trkpt lat="47.12015" lon="7.24798">
        <ele>431.5</ele>
        <time>2022-10-01T08:31:45Z</time>
      </trkpt>
      <trkpt lat="47.12014" lon="7.24803">
        <ele>431.5</ele>
        <time>2022-10-01T08:31:46Z</time>
      </trkpt>
      <trkpt lat="47.12013" lon="7.24805">
        <ele>431.5</ele>
        <time>2022-10-01T08:31:47Z</time>
      </trkpt>
      <trkpt lat="47.12012" lon="7.2481">
        <ele>431.5</ele>
        <time>2022-10-01T08:31:48Z</time>
      </trkpt>
      <trkpt lat="47.12011" lon="7.24815">
        <ele>431.5</ele>
        <time>2022-10-01T08:31:49Z</time>
      </trkpt>
      <trkpt lat="47.1201" lon="7.24819">
        <ele>431.6</ele>
        <time>2022-10-01T08:31:50Z</time>
      </trkpt>
      <trkpt lat="47.12009" lon="7.24823">
        <ele>431.6</ele>
        <time>2022-10-01T08:31:51Z</time>
      </trkpt>
      <trkpt lat="47.12008" lon="7.24828">
        <ele>431.6</ele>
        <time>2022-10-01T08:31:52Z</time>
      </trkpt>
      <trkpt lat="47.12006" lon="7.24834">
        <ele>431.6</ele>
        <time>2022-10-01T08:31:53Z</time>
      </trkpt>
      <trkpt lat="47.12005" lon="7.24839">
        <ele>431.6</ele>
        <time>2022-10-01T08:31:54Z</time>
      </trkpt>
      <trkpt lat="47.12004" lon="7.24846">
        <ele>431.6</ele>
        <time>2022-10-01T08:31:55Z</time>
      </trkpt>
      <trkpt lat="47.12002" lon="7.2485">
        <ele>431.6</ele>
        <time>2022-10-01T08:31:56Z</time>
      </trkpt>
      <trkpt lat="47.12001" lon="7.24856">
        <ele>431.6</ele>
        <time>2022-10-01T08:31:57Z</time>
      </trkpt>
      <trkpt lat="47.12" lon="7.2486">
        <ele>431.6</ele>
        <time>2022-10-01T08:31:58Z</time>
      </trkpt>
      <trkpt lat="47.12" lon="7.24866">
        <ele>431.6</ele>
        <time>2022-10-01T08:31:59Z</time>
      </trkpt>
      <trkpt lat="47.11999" lon="7.24872">
        <ele>431.6</ele>
        <time>2022-10-01T08:32:00Z</time>
      </trkpt>
      <trkpt lat="47.11998" lon="7.24878">
        <ele>431.6</ele>
        <time>2022-10-01T08:32:01Z</time>
      </trkpt>
      <trkpt lat="47.11997" lon="7.24884">
        <ele>431.6</ele>
        <time>2022-10-01T08:32:02Z</time>
      </trkpt>
      <trkpt lat="47.11996" lon="7.2489">
        <ele>431.6</ele>
        <time>2022-10-01T08:32:03Z</time>
      </trkpt>
      <trkpt lat="47.11995" lon="7.24895">
        <ele>431.6</ele>
        <time>2022-10-01T08:32:04Z</time>
      </trkpt>
      <trkpt lat="47.11994" lon="7.24901">
        <ele>431.6</ele>
        <time>2022-10-01T08:32:05Z</time>
      </trkpt>
      <trkpt lat="47.11992" lon="7.24907">
        <ele>431.6</ele>
        <time>2022-10-01T08:32:06Z</time>
      </trkpt>
      <trkpt lat="47.11991" lon="7.24911">
        <ele>431.6</ele>
        <time>2022-10-01T08:32:07Z</time>
      </trkpt>
      <trkpt lat="47.11991" lon="7.24916">
        <ele>431.6</ele>
        <time>2022-10-01T08:32:08Z</time>
      </trkpt>
      <trkpt lat="47.1199" lon="7.24923">
        <ele>431.6</ele>
        <time>2022-10-01T08:32:09Z</time>
      </trkpt>
      <trkpt lat="47.11989" lon="7.24929">
        <ele>431.6</ele>
        <time>2022-10-01T08:32:10Z</time>
      </trkpt>
      <trkpt lat="47.11988" lon="7.24934">
        <ele>431.6</ele>
        <time>2022-10-01T08:32:11Z</time>
      </trkpt>
      <trkpt lat="47.11987" lon="7.24939">
        <ele>431.6</ele>
        <time>2022-10-01T08:32:12Z</time>
      </trkpt>
      <trkpt lat="47.11986" lon="7.24944">
        <ele>431.6</ele>
        <time>2022-10-01T08:32:13Z</time>
      </trkpt>
      <trkpt lat="47.11985" lon="7.2495">
        <ele>431.6</ele>
        <time>2022-10-01T08:32:14Z</time>
      </trkpt>
      <trkpt lat="47.11984" lon="7.24954">
        <ele>431.6</ele>
        <time>2022-10-01T08:32:15Z</time>
      </trkpt>
      <trkpt lat="47.11982" lon="7.24958">
        <ele>431.6</ele>
        <time>2022-10-01T08:32:16Z</time>
      </trkpt>
      <trkpt lat="47.11982" lon="7.24963">
        <ele>431.6</ele>
        <time>2022-10-01T08:32:17Z</time>
      </trkpt>
      <trkpt lat="47.11982" lon="7.24968">
        <ele>431.7</ele>
        <time>2022-10-01T08:32:18Z</time>
      </trkpt>
      <trkpt lat="47.11981" lon="7.24972">
        <ele>431.7</ele>
        <time>2022-10-01T08:32:19Z</time>
      </trkpt>
      <trkpt lat="47.11979" lon="7.24978">
        <ele>431.7</ele>
        <time>2022-10-01T08:32:20Z</time>
      </trkpt>
      <trkpt lat="47.11978" lon="7.24983">
        <ele>431.7</ele>
        <time>2022-10-01T08:32:21Z</time>
      </trkpt>
      <trkpt lat="47.11978" lon="7.24989">
        <ele>431.7</ele>
        <time>2022-10-01T08:32:22Z</time>
      </trkpt>
      <trkpt lat="47.11977" lon="7.24994">
        <ele>431.7</ele>
        <time>2022-10-01T08:32:23Z</time>
      </trkpt>
      <trkpt lat="47.11976" lon="7.24999">
        <ele>431.7</ele>
        <time>2022-10-01T08:32:24Z</time>
      </trkpt>
      <trkpt lat="47.11976" lon="7.25004">
        <ele>431.7</ele>
        <time>2022-10-01T08:32:25Z</time>
      </trkpt>
      <trkpt lat="47.11975" lon="7.2501">
        <ele>431.7</ele>
        <time>2022-10-01T08:32:26Z</time>
      </trkpt>
      <trkpt lat="47.11974" lon="7.25015">
        <ele>431.7</ele>
        <time>2022-10-01T08:32:27Z</time>
      </trkpt>
      <trkpt lat="47.11973" lon="7.2502">
        <ele>431.7</ele>
        <time>2022-10-01T08:32:28Z</time>
      </trkpt>
      <trkpt lat="47.11971" lon="7.25024">
        <ele>431.7</ele>
        <time>2022-10-01T08:32:29Z</time>
      </trkpt>
      <trkpt lat="47.1197" lon="7.25031">
        <ele>431.7</ele>
        <time>2022-10-01T08:32:30Z</time>
      </trkpt>
      <trkpt lat="47.11969" lon="7.25037">
        <ele>431.7</ele>
        <time>2022-10-01T08:32:31Z</time>
      </trkpt>
      <trkpt lat="47.11967" lon="7.25043">
        <ele>431.7</ele>
        <time>2022-10-01T08:32:32Z</time>
      </trkpt>
      <trkpt lat="47.11966" lon="7.25049">
        <ele>431.7</ele>
        <time>2022-10-01T08:32:33Z</time>
      </trkpt>
      <trkpt lat="47.11966" lon="7.25056">
        <ele>431.7</ele>
        <time>2022-10-01T08:32:34Z</time>
      </trkpt>
      <trkpt lat="47.11965" lon="7.25063">
        <ele>431.7</ele>
        <time>2022-10-01T08:32:35Z</time>
      </trkpt>
      <trkpt lat="47.11964" lon="7.25068">
        <ele>431.7</ele>
        <time>2022-10-01T08:32:36Z</time>
      </trkpt>
      <trkpt lat="47.11963" lon="7.25075">
        <ele>431.7</ele>
        <time>2022-10-01T08:32:37Z</time>
      </trkpt>
      <trkpt lat="47.11962" lon="7.25082">
        <ele>431.7</ele>
        <time>2022-10-01T08:32:38Z</time>
      </trkpt>
      <trkpt lat="47.1196" lon="7.25087">
        <ele>431.7</ele>
        <time>2022-10-01T08:32:39Z</time>
      </trkpt>
      <trkpt lat="47.11959" lon="7.25094">
        <ele>431.7</ele>
        <time>2022-10-01T08:32:40Z</time>
      </trkpt>
      <trkpt lat="47.11958" lon="7.25101">
        <ele>431.6</ele>
        <time>2022-10-01T08:32:41Z</time>
      </trkpt>
      <trkpt lat="47.11956" lon="7.25109">
        <ele>431.6</ele>
        <time>2022-10-01T08:32:42Z</time>
      </trkpt>
      <trkpt lat="47.11956" lon="7.25115">
        <ele>431.6</ele>
        <time>2022-10-01T08:32:43Z</time>
      </trkpt>
      <trkpt lat="47.11954" lon="7.25122">
        <ele>431.6</ele>
        <time>2022-10-01T08:32:44Z</time>
      </trkpt>
      <trkpt lat="47.11953" lon="7.25129">
        <ele>431.6</ele>
        <time>2022-10-01T08:32:45Z</time>
      </trkpt>
      <trkpt lat="47.11952" lon="7.25135">
        <ele>431.6</ele>
        <time>2022-10-01T08:32:46Z</time>
      </trkpt>
      <trkpt lat="47.1195" lon="7.25142">
        <ele>431.6</ele>
        <time>2022-10-01T08:32:47Z</time>
      </trkpt>
      <trkpt lat="47.1195" lon="7.25149">
        <ele>431.6</ele>
        <time>2022-10-01T08:32:48Z</time>
      </trkpt>
      <trkpt lat="47.11948" lon="7.25156">
        <ele>431.6</ele>
        <time>2022-10-01T08:32:49Z</time>
      </trkpt>
      <trkpt lat="47.11947" lon="7.25163">
        <ele>431.6</ele>
        <time>2022-10-01T08:32:50Z</time>
      </trkpt>
      <trkpt lat="47.11945" lon="7.2517">
        <ele>431.6</ele>
        <time>2022-10-01T08:32:51Z</time>
      </trkpt>
      <trkpt lat="47.11944" lon="7.25176">
        <ele>431.6</ele>
        <time>2022-10-01T08:32:52Z</time>
      </trkpt>
      <trkpt lat="47.11943" lon="7.25183">
        <ele>431.6</ele>
        <time>2022-10-01T08:32:53Z</time>
      </trkpt>
      <trkpt lat="47.11942" lon="7.25189">
        <ele>431.6</ele>
        <time>2022-10-01T08:32:54Z</time>
      </trkpt>
      <trkpt lat="47.11941" lon="7.25193">
        <ele>431.6</ele>
        <time>2022-10-01T08:32:55Z</time>
      </trkpt>
      <trkpt lat="47.1194" lon="7.25201">
        <ele>431.6</ele>
        <time>2022-10-01T08:32:56Z</time>
      </trkpt>
      <trkpt lat="47.11939" lon="7.25206">
        <ele>431.7</ele>
        <time>2022-10-01T08:32:57Z</time>
      </trkpt>
      <trkpt lat="47.11938" lon="7.25212">
        <ele>431.7</ele>
        <time>2022-10-01T08:32:58Z</time>
      </trkpt>
      <trkpt lat="47.11937" lon="7.25219">
        <ele>431.8</ele>
        <time>2022-10-01T08:32:59Z</time>
      </trkpt>
      <trkpt lat="47.11935" lon="7.25224">
        <ele>431.9</ele>
        <time>2022-10-01T08:33:00Z</time>
      </trkpt>
      <trkpt lat="47.11933" lon="7.25229">
        <ele>432</ele>
        <time>2022-10-01T08:33:01Z</time>
      </trkpt>
      <trkpt lat="47.11932" lon="7.25234">
        <ele>432.1</ele>
        <time>2022-10-01T08:33:02Z</time>
      </trkpt>
      <trkpt lat="47.11931" lon="7.2524">
        <ele>432.3</ele>
        <time>2022-10-01T08:33:03Z</time>
      </trkpt>
      <trkpt lat="47.1193" lon="7.25246">
        <ele>432.4</ele>
        <time>2022-10-01T08:33:04Z</time>
      </trkpt>
      <trkpt lat="47.11928" lon="7.2525">
        <ele>432.5</ele>
        <time>2022-10-01T08:33:05Z</time>
      </trkpt>
      <trkpt lat="47.11927" lon="7.25254">
        <ele>432.6</ele>
        <time>2022-10-01T08:33:06Z</time>
      </trkpt>
      <trkpt lat="47.11926" lon="7.25258">
        <ele>432.7</ele>
        <time>2022-10-01T08:33:07Z</time>
      </trkpt>
      <trkpt lat="47.11925" lon="7.25263">
        <ele>432.8</ele>
        <time>2022-10-01T08:33:08Z</time>
      </trkpt>
      <trkpt lat="47.11924" lon="7.25268">
        <ele>432.9</ele>
        <time>2022-10-01T08:33:09Z</time>
      </trkpt>
      <trkpt lat="47.11923" lon="7.25273">
        <ele>433</ele>
        <time>2022-10-01T08:33:10Z</time>
      </trkpt>
      <trkpt lat="47.11922" lon="7.2528">
        <ele>433.1</ele>
        <time>2022-10-01T08:33:11Z</time>
      </trkpt>
      <trkpt lat="47.11921" lon="7.25286">
        <ele>432.9</ele>
        <time>2022-10-01T08:33:12Z</time>
      </trkpt>
      <trkpt lat="47.11921" lon="7.25293">
        <ele>432.7</ele>
        <time>2022-10-01T08:33:13Z</time>
      </trkpt>
      <trkpt lat="47.1192" lon="7.253">
        <ele>432.6</ele>
        <time>2022-10-01T08:33:14Z</time>
      </trkpt>
      <trkpt lat="47.11919" lon="7.25307">
        <ele>432.4</ele>
        <time>2022-10-01T08:33:15Z</time>
      </trkpt>
      <trkpt lat="47.11918" lon="7.25315">
        <ele>432.2</ele>
        <time>2022-10-01T08:33:16Z</time>
      </trkpt>
      <trkpt lat="47.11916" lon="7.25321">
        <ele>432.1</ele>
        <time>2022-10-01T08:33:17Z</time>
      </trkpt>
      <trkpt lat="47.11915" lon="7.25327">
        <ele>432</ele>
        <time>2022-10-01T08:33:18Z</time>
      </trkpt>
      <trkpt lat="47.11915" lon="7.25332">
        <ele>431.9</ele>
        <time>2022-10-01T08:33:19Z</time>
      </trkpt>
      <trkpt lat="47.11913" lon="7.25336">
        <ele>431.9</ele>
        <time>2022-10-01T08:33:20Z</time>
      </trkpt>
      <trkpt lat="47.11912" lon="7.25341">
        <ele>431.8</ele>
        <time>2022-10-01T08:33:21Z</time>
      </trkpt>
      <trkpt lat="47.11911" lon="7.25343">
        <ele>431.8</ele>
        <time>2022-10-01T08:33:22Z</time>
      </trkpt>
      <trkpt lat="47.1191" lon="7.2535">
        <ele>431.7</ele>
        <time>2022-10-01T08:33:23Z</time>
      </trkpt>
      <trkpt lat="47.1191" lon="7.25352">
        <ele>431.7</ele>
        <time>2022-10-01T08:33:24Z</time>
      </trkpt>
      <trkpt lat="47.11908" lon="7.25359">
        <ele>431.6</ele>
        <time>2022-10-01T08:33:25Z</time>
      </trkpt>
      <trkpt lat="47.11906" lon="7.25363">
        <ele>431.6</ele>
        <time>2022-10-01T08:33:26Z</time>
      </trkpt>
      <trkpt lat="47.11905" lon="7.25368">
        <ele>431.6</ele>
        <time>2022-10-01T08:33:27Z</time>
      </trkpt>
      <trkpt lat="47.11904" lon="7.25374">
        <ele>431.5</ele>
        <time>2022-10-01T08:33:28Z</time>
      </trkpt>
      <trkpt lat="47.11903" lon="7.2538">
        <ele>431.5</ele>
        <time>2022-10-01T08:33:29Z</time>
      </trkpt>
      <trkpt lat="47.11903" lon="7.25384">
        <ele>431.5</ele>
        <time>2022-10-01T08:33:30Z</time>
      </trkpt>
      <trkpt lat="47.11902" lon="7.25391">
        <ele>431.4</ele>
        <time>2022-10-01T08:33:31Z</time>
      </trkpt>
      <trkpt lat="47.11901" lon="7.25397">
        <ele>431.4</ele>
        <time>2022-10-01T08:33:32Z</time>
      </trkpt>
      <trkpt lat="47.11901" lon="7.25402">
        <ele>431.4</ele>
        <time>2022-10-01T08:33:33Z</time>
      </trkpt>
      <trkpt lat="47.119" lon="7.25409">
        <ele>431.4</ele>
        <time>2022-10-01T08:33:34Z</time>
      </trkpt>
      <trkpt lat="47.11898" lon="7.25416">
        <ele>431.4</ele>
        <time>2022-10-01T08:33:35Z</time>
      </trkpt>
      <trkpt lat="47.11896" lon="7.25424">
        <ele>431.4</ele>
        <time>2022-10-01T08:33:36Z</time>
      </trkpt>
      <trkpt lat="47.11895" lon="7.2543">
        <ele>431.4</ele>
        <time>2022-10-01T08:33:37Z</time>
      </trkpt>
      <trkpt lat="47.11893" lon="7.25436">
        <ele>431.4</ele>
        <time>2022-10-01T08:33:38Z</time>
      </trkpt>
      <trkpt lat="47.11893" lon="7.25441">
        <ele>431.4</ele>
        <time>2022-10-01T08:33:39Z</time>
      </trkpt>
      <trkpt lat="47.11892" lon="7.25448">
        <ele>431.4</ele>
        <time>2022-10-01T08:33:40Z</time>
      </trkpt>
      <trkpt lat="47.1189" lon="7.25454">
        <ele>431.4</ele>
        <time>2022-10-01T08:33:41Z</time>
      </trkpt>
      <trkpt lat="47.11888" lon="7.2546">
        <ele>431.4</ele>
        <time>2022-10-01T08:33:42Z</time>
      </trkpt>
      <trkpt lat="47.11886" lon="7.25467">
        <ele>431.4</ele>
        <time>2022-10-01T08:33:43Z</time>
      </trkpt>
      <trkpt lat="47.11885" lon="7.25472">
        <ele>431.4</ele>
        <time>2022-10-01T08:33:44Z</time>
      </trkpt>
      <trkpt lat="47.11883" lon="7.25478">
        <ele>431.5</ele>
        <time>2022-10-01T08:33:45Z</time>
      </trkpt>
      <trkpt lat="47.11881" lon="7.25484">
        <ele>431.5</ele>
        <time>2022-10-01T08:33:46Z</time>
      </trkpt>
      <trkpt lat="47.11879" lon="7.25489">
        <ele>431.5</ele>
        <time>2022-10-01T08:33:47Z</time>
      </trkpt>
      <trkpt lat="47.11877" lon="7.25495">
        <ele>431.5</ele>
        <time>2022-10-01T08:33:48Z</time>
      </trkpt>
      <trkpt lat="47.11875" lon="7.25502">
        <ele>431.5</ele>
        <time>2022-10-01T08:33:49Z</time>
      </trkpt>
      <trkpt lat="47.11873" lon="7.25507">
        <ele>431.5</ele>
        <time>2022-10-01T08:33:50Z</time>
      </trkpt>
      <trkpt lat="47.11871" lon="7.25513">
        <ele>431.5</ele>
        <time>2022-10-01T08:33:51Z</time>
      </trkpt>
      <trkpt lat="47.11869" lon="7.25519">
        <ele>431.5</ele>
        <time>2022-10-01T08:33:52Z</time>
      </trkpt>
      <trkpt lat="47.11867" lon="7.25527">
        <ele>431.5</ele>
        <time>2022-10-01T08:33:53Z</time>
      </trkpt>
      <trkpt lat="47.11865" lon="7.25533">
        <ele>431.6</ele>
        <time>2022-10-01T08:33:54Z</time>
      </trkpt>
      <trkpt lat="47.11863" lon="7.25539">
        <ele>431.6</ele>
        <time>2022-10-01T08:33:55Z</time>
      </trkpt>
      <trkpt lat="47.11861" lon="7.25545">
        <ele>431.6</ele>
        <time>2022-10-01T08:33:56Z</time>
      </trkpt>
      <trkpt lat="47.11859" lon="7.25551">
        <ele>431.7</ele>
        <time>2022-10-01T08:33:57Z</time>
      </trkpt>
      <trkpt lat="47.11858" lon="7.25557">
        <ele>431.7</ele>
        <time>2022-10-01T08:33:58Z</time>
      </trkpt>
      <trkpt lat="47.11856" lon="7.25563">
        <ele>431.8</ele>
        <time>2022-10-01T08:33:59Z</time>
      </trkpt>
      <trkpt lat="47.11854" lon="7.25568">
        <ele>431.9</ele>
        <time>2022-10-01T08:34:00Z</time>
      </trkpt>
      <trkpt lat="47.11852" lon="7.25574">
        <ele>431.9</ele>
        <time>2022-10-01T08:34:01Z</time>
      </trkpt>
      <trkpt lat="47.11849" lon="7.2558">
        <ele>432</ele>
        <time>2022-10-01T08:34:02Z</time>
      </trkpt>
      <trkpt lat="47.11848" lon="7.25586">
        <ele>432.1</ele>
        <time>2022-10-01T08:34:03Z</time>
      </trkpt>
      <trkpt lat="47.11846" lon="7.25591">
        <ele>432.1</ele>
        <time>2022-10-01T08:34:04Z</time>
      </trkpt>
      <trkpt lat="47.11845" lon="7.25596">
        <ele>432.2</ele>
        <time>2022-10-01T08:34:05Z</time>
      </trkpt>
      <trkpt lat="47.11843" lon="7.25601">
        <ele>432.3</ele>
        <time>2022-10-01T08:34:06Z</time>
      </trkpt>
      <trkpt lat="47.11842" lon="7.25606">
        <ele>432.3</ele>
        <time>2022-10-01T08:34:07Z</time>
      </trkpt>
      <trkpt lat="47.1184" lon="7.2561">
        <ele>432.4</ele>
        <time>2022-10-01T08:34:08Z</time>
      </trkpt>
      <trkpt lat="47.11839" lon="7.25615">
        <ele>432.5</ele>
        <time>2022-10-01T08:34:09Z</time>
      </trkpt>
      <trkpt lat="47.11838" lon="7.25619">
        <ele>432.5</ele>
        <time>2022-10-01T08:34:10Z</time>
      </trkpt>
      <trkpt lat="47.11836" lon="7.25623">
        <ele>432.6</ele>
        <time>2022-10-01T08:34:11Z</time>
      </trkpt>
      <trkpt lat="47.11834" lon="7.25627">
        <ele>432.6</ele>
        <time>2022-10-01T08:34:12Z</time>
      </trkpt>
      <trkpt lat="47.11833" lon="7.25628">
        <ele>432.6</ele>
        <time>2022-10-01T08:34:13Z</time>
      </trkpt>
      <trkpt lat="47.11832" lon="7.25629">
        <ele>432.6</ele>
        <time>2022-10-01T08:34:14Z</time>
      </trkpt>
      <trkpt lat="47.1183" lon="7.25629">
        <ele>432.7</ele>
        <time>2022-10-01T08:34:15Z</time>
      </trkpt>
      <trkpt lat="47.11829" lon="7.2563">
        <ele>432.7</ele>
        <time>2022-10-01T08:34:16Z</time>
      </trkpt>
      <trkpt lat="47.11828" lon="7.25631">
        <ele>432.7</ele>
        <time>2022-10-01T08:34:17Z</time>
      </trkpt>
      <trkpt lat="47.11825" lon="7.25633">
        <ele>432.8</ele>
        <time>2022-10-01T08:34:18Z</time>
      </trkpt>
      <trkpt lat="47.11824" lon="7.25634">
        <ele>432.8</ele>
        <time>2022-10-01T08:34:19Z</time>
      </trkpt>
      <trkpt lat="47.11822" lon="7.25638">
        <ele>432.8</ele>
        <time>2022-10-01T08:34:20Z</time>
      </trkpt>
      <trkpt lat="47.11822" lon="7.2564">
        <ele>432.8</ele>
        <time>2022-10-01T08:34:21Z</time>
      </trkpt>
      <trkpt lat="47.11821" lon="7.25644">
        <ele>432.9</ele>
        <time>2022-10-01T08:34:22Z</time>
      </trkpt>
      <trkpt lat="47.1182" lon="7.25648">
        <ele>432.9</ele>
        <time>2022-10-01T08:34:23Z</time>
      </trkpt>
      <trkpt lat="47.11819" lon="7.25653">
        <ele>433</ele>
        <time>2022-10-01T08:34:24Z</time>
      </trkpt>
      <trkpt lat="47.11818" lon="7.25658">
        <ele>433</ele>
        <time>2022-10-01T08:34:25Z</time>
      </trkpt>
      <trkpt lat="47.11816" lon="7.25663">
        <ele>433</ele>
        <time>2022-10-01T08:34:26Z</time>
      </trkpt>
      <trkpt lat="47.11815" lon="7.25668">
        <ele>433</ele>
        <time>2022-10-01T08:34:27Z</time>
      </trkpt>
      <trkpt lat="47.11813" lon="7.25672">
        <ele>433</ele>
        <time>2022-10-01T08:34:28Z</time>
      </trkpt>
      <trkpt lat="47.11812" lon="7.25678">
        <ele>433</ele>
        <time>2022-10-01T08:34:29Z</time>
      </trkpt>
      <trkpt lat="47.11812" lon="7.25679">
        <ele>433</ele>
        <time>2022-10-01T08:34:30Z</time>
      </trkpt>
      <trkpt lat="47.1181" lon="7.25686">
        <ele>433.1</ele>
        <time>2022-10-01T08:34:31Z</time>
      </trkpt>
      <trkpt lat="47.11808" lon="7.25691">
        <ele>433.1</ele>
        <time>2022-10-01T08:34:32Z</time>
      </trkpt>
      <trkpt lat="47.11806" lon="7.25695">
        <ele>433.1</ele>
        <time>2022-10-01T08:34:33Z</time>
      </trkpt>
      <trkpt lat="47.11804" lon="7.25702">
        <ele>433.1</ele>
        <time>2022-10-01T08:34:34Z</time>
      </trkpt>
      <trkpt lat="47.11802" lon="7.25709">
        <ele>433.1</ele>
        <time>2022-10-01T08:34:35Z</time>
      </trkpt>
      <trkpt lat="47.11801" lon="7.25714">
        <ele>433</ele>
        <time>2022-10-01T08:34:36Z</time>
      </trkpt>
      <trkpt lat="47.118" lon="7.2572">
        <ele>433</ele>
        <time>2022-10-01T08:34:37Z</time>
      </trkpt>
      <trkpt lat="47.11798" lon="7.25725">
        <ele>433</ele>
        <time>2022-10-01T08:34:38Z</time>
      </trkpt>
      <trkpt lat="47.11797" lon="7.25732">
        <ele>433</ele>
        <time>2022-10-01T08:34:39Z</time>
      </trkpt>
      <trkpt lat="47.11797" lon="7.25738">
        <ele>432.9</ele>
        <time>2022-10-01T08:34:40Z</time>
      </trkpt>
      <trkpt lat="47.11797" lon="7.25744">
        <ele>432.9</ele>
        <time>2022-10-01T08:34:41Z</time>
      </trkpt>
      <trkpt lat="47.11796" lon="7.25751">
        <ele>432.8</ele>
        <time>2022-10-01T08:34:42Z</time>
      </trkpt>
      <trkpt lat="47.11796" lon="7.25759">
        <ele>432.7</ele>
        <time>2022-10-01T08:34:43Z</time>
      </trkpt>
      <trkpt lat="47.11795" lon="7.25765">
        <ele>432.7</ele>
        <time>2022-10-01T08:34:44Z</time>
      </trkpt>
      <trkpt lat="47.11793" lon="7.25772">
        <ele>432.6</ele>
        <time>2022-10-01T08:34:45Z</time>
      </trkpt>
      <trkpt lat="47.11792" lon="7.25779">
        <ele>432.5</ele>
        <time>2022-10-01T08:34:46Z</time>
      </trkpt>
      <trkpt lat="47.11791" lon="7.25787">
        <ele>432.4</ele>
        <time>2022-10-01T08:34:47Z</time>
      </trkpt>
      <trkpt lat="47.11789" lon="7.25794">
        <ele>432.4</ele>
        <time>2022-10-01T08:34:48Z</time>
      </trkpt>
      <trkpt lat="47.11788" lon="7.25802">
        <ele>432.4</ele>
        <time>2022-10-01T08:34:49Z</time>
      </trkpt>
      <trkpt lat="47.11786" lon="7.25808">
        <ele>432.4</ele>
        <time>2022-10-01T08:34:50Z</time>
      </trkpt>
      <trkpt lat="47.11785" lon="7.25814">
        <ele>432.4</ele>
        <time>2022-10-01T08:34:51Z</time>
      </trkpt>
      <trkpt lat="47.11784" lon="7.25818">
        <ele>432.3</ele>
        <time>2022-10-01T08:34:52Z</time>
      </trkpt>
      <trkpt lat="47.11783" lon="7.25823">
        <ele>432.3</ele>
        <time>2022-10-01T08:34:53Z</time>
      </trkpt>
      <trkpt lat="47.11781" lon="7.25827">
        <ele>432.3</ele>
        <time>2022-10-01T08:34:54Z</time>
      </trkpt>
      <trkpt lat="47.1178" lon="7.25832">
        <ele>432.3</ele>
        <time>2022-10-01T08:34:55Z</time>
      </trkpt>
      <trkpt lat="47.11778" lon="7.25837">
        <ele>432.3</ele>
        <time>2022-10-01T08:34:56Z</time>
      </trkpt>
      <trkpt lat="47.11777" lon="7.25842">
        <ele>432.2</ele>
        <time>2022-10-01T08:34:57Z</time>
      </trkpt>
      <trkpt lat="47.11776" lon="7.25847">
        <ele>432.2</ele>
        <time>2022-10-01T08:34:58Z</time>
      </trkpt>
      <trkpt lat="47.11774" lon="7.25852">
        <ele>432.2</ele>
        <time>2022-10-01T08:34:59Z</time>
      </trkpt>
      <trkpt lat="47.11773" lon="7.25857">
        <ele>432.2</ele>
        <time>2022-10-01T08:35:00Z</time>
      </trkpt>
      <trkpt lat="47.11771" lon="7.25863">
        <ele>432.2</ele>
        <time>2022-10-01T08:35:01Z</time>
      </trkpt>
      <trkpt lat="47.1177" lon="7.25868">
        <ele>432.2</ele>
        <time>2022-10-01T08:35:02Z</time>
      </trkpt>
      <trkpt lat="47.11769" lon="7.25874">
        <ele>432.2</ele>
        <time>2022-10-01T08:35:03Z</time>
      </trkpt>
      <trkpt lat="47.11768" lon="7.2588">
        <ele>432.3</ele>
        <time>2022-10-01T08:35:04Z</time>
      </trkpt>
      <trkpt lat="47.11766" lon="7.25887">
        <ele>432.3</ele>
        <time>2022-10-01T08:35:05Z</time>
      </trkpt>
      <trkpt lat="47.11764" lon="7.25893">
        <ele>432.3</ele>
        <time>2022-10-01T08:35:06Z</time>
      </trkpt>
      <trkpt lat="47.11763" lon="7.25898">
        <ele>432.3</ele>
        <time>2022-10-01T08:35:07Z</time>
      </trkpt>
      <trkpt lat="47.11762" lon="7.25903">
        <ele>432.3</ele>
        <time>2022-10-01T08:35:08Z</time>
      </trkpt>
      <trkpt lat="47.1176" lon="7.2591">
        <ele>432.3</ele>
        <time>2022-10-01T08:35:09Z</time>
      </trkpt>
      <trkpt lat="47.11759" lon="7.25916">
        <ele>432.3</ele>
        <time>2022-10-01T08:35:10Z</time>
      </trkpt>
      <trkpt lat="47.11757" lon="7.25923">
        <ele>432.3</ele>
        <time>2022-10-01T08:35:11Z</time>
      </trkpt>
      <trkpt lat="47.11755" lon="7.25929">
        <ele>432.3</ele>
        <time>2022-10-01T08:35:12Z</time>
      </trkpt>
      <trkpt lat="47.11754" lon="7.25935">
        <ele>432.3</ele>
        <time>2022-10-01T08:35:13Z</time>
      </trkpt>
      <trkpt lat="47.11752" lon="7.2594">
        <ele>432.3</ele>
        <time>2022-10-01T08:35:14Z</time>
      </trkpt>
      <trkpt lat="47.11751" lon="7.25946">
        <ele>432.4</ele>
        <time>2022-10-01T08:35:15Z</time>
      </trkpt>
      <trkpt lat="47.11749" lon="7.25954">
        <ele>432.4</ele>
        <time>2022-10-01T08:35:16Z</time>
      </trkpt>
      <trkpt lat="47.11747" lon="7.2596">
        <ele>432.4</ele>
        <time>2022-10-01T08:35:17Z</time>
      </trkpt>
      <trkpt lat="47.11746" lon="7.25966">
        <ele>432.3</ele>
        <time>2022-10-01T08:35:18Z</time>
      </trkpt>
      <trkpt lat="47.11744" lon="7.25973">
        <ele>432.3</ele>
        <time>2022-10-01T08:35:19Z</time>
      </trkpt>
      <trkpt lat="47.11742" lon="7.25979">
        <ele>432.2</ele>
        <time>2022-10-01T08:35:20Z</time>
      </trkpt>
      <trkpt lat="47.11741" lon="7.25986">
        <ele>432.1</ele>
        <time>2022-10-01T08:35:21Z</time>
      </trkpt>
      <trkpt lat="47.11738" lon="7.25993">
        <ele>432</ele>
        <time>2022-10-01T08:35:22Z</time>
      </trkpt>
      <trkpt lat="47.11737" lon="7.26">
        <ele>431.9</ele>
        <time>2022-10-01T08:35:23Z</time>
      </trkpt>
      <trkpt lat="47.11736" lon="7.26007">
        <ele>431.8</ele>
        <time>2022-10-01T08:35:24Z</time>
      </trkpt>
      <trkpt lat="47.11734" lon="7.26014">
        <ele>431.7</ele>
        <time>2022-10-01T08:35:25Z</time>
      </trkpt>
      <trkpt lat="47.11732" lon="7.26022">
        <ele>431.6</ele>
        <time>2022-10-01T08:35:26Z</time>
      </trkpt>
      <trkpt lat="47.1173" lon="7.26029">
        <ele>431.5</ele>
        <time>2022-10-01T08:35:27Z</time>
      </trkpt>
      <trkpt lat="47.11727" lon="7.26038">
        <ele>431.4</ele>
        <time>2022-10-01T08:35:28Z</time>
      </trkpt>
      <trkpt lat="47.11725" lon="7.26046">
        <ele>431.3</ele>
        <time>2022-10-01T08:35:29Z</time>
      </trkpt>
      <trkpt lat="47.11723" lon="7.26054">
        <ele>431.2</ele>
        <time>2022-10-01T08:35:30Z</time>
      </trkpt>
      <trkpt lat="47.11721" lon="7.26062">
        <ele>431.1</ele>
        <time>2022-10-01T08:35:31Z</time>
      </trkpt>
      <trkpt lat="47.11718" lon="7.26068">
        <ele>431</ele>
        <time>2022-10-01T08:35:32Z</time>
      </trkpt>
      <trkpt lat="47.11716" lon="7.26075">
        <ele>431</ele>
        <time>2022-10-01T08:35:33Z</time>
      </trkpt>
      <trkpt lat="47.11713" lon="7.26083">
        <ele>431</ele>
        <time>2022-10-01T08:35:34Z</time>
      </trkpt>
      <trkpt lat="47.11711" lon="7.26091">
        <ele>430.9</ele>
        <time>2022-10-01T08:35:35Z</time>
      </trkpt>
      <trkpt lat="47.11708" lon="7.26099">
        <ele>430.9</ele>
        <time>2022-10-01T08:35:36Z</time>
      </trkpt>
      <trkpt lat="47.11705" lon="7.26106">
        <ele>430.9</ele>
        <time>2022-10-01T08:35:37Z</time>
      </trkpt>
      <trkpt lat="47.11701" lon="7.26114">
        <ele>430.9</ele>
        <time>2022-10-01T08:35:38Z</time>
      </trkpt>
      <trkpt lat="47.11698" lon="7.26121">
        <ele>430.9</ele>
        <time>2022-10-01T08:35:39Z</time>
      </trkpt>
      <trkpt lat="47.11695" lon="7.26127">
        <ele>430.9</ele>
        <time>2022-10-01T08:35:40Z</time>
      </trkpt>
      <trkpt lat="47.11692" lon="7.26134">
        <ele>430.9</ele>
        <time>2022-10-01T08:35:41Z</time>
      </trkpt>
      <trkpt lat="47.11688" lon="7.2614">
        <ele>430.9</ele>
        <time>2022-10-01T08:35:42Z</time>
      </trkpt>
      <trkpt lat="47.11685" lon="7.26147">
        <ele>430.9</ele>
        <time>2022-10-01T08:35:43Z</time>
      </trkpt>
      <trkpt lat="47.11681" lon="7.26152">
        <ele>430.9</ele>
        <time>2022-10-01T08:35:44Z</time>
      </trkpt>
      <trkpt lat="47.11677" lon="7.26156">
        <ele>430.9</ele>
        <time>2022-10-01T08:35:45Z</time>
      </trkpt>
      <trkpt lat="47.11673" lon="7.26161">
        <ele>430.9</ele>
        <time>2022-10-01T08:35:46Z</time>
      </trkpt>
      <trkpt lat="47.1167" lon="7.26165">
        <ele>430.9</ele>
        <time>2022-10-01T08:35:47Z</time>
      </trkpt>
      <trkpt lat="47.11666" lon="7.26169">
        <ele>430.9</ele>
        <time>2022-10-01T08:35:48Z</time>
      </trkpt>
      <trkpt lat="47.11662" lon="7.26174">
        <ele>430.9</ele>
        <time>2022-10-01T08:35:49Z</time>
      </trkpt>
      <trkpt lat="47.11657" lon="7.26178">
        <ele>430.9</ele>
        <time>2022-10-01T08:35:50Z</time>
      </trkpt>
      <trkpt lat="47.11653" lon="7.26183">
        <ele>431</ele>
        <time>2022-10-01T08:35:51Z</time>
      </trkpt>
      <trkpt lat="47.1165" lon="7.26189">
        <ele>431.1</ele>
        <time>2022-10-01T08:35:52Z</time>
      </trkpt>
      <trkpt lat="47.11647" lon="7.26195">
        <ele>431.2</ele>
        <time>2022-10-01T08:35:53Z</time>
      </trkpt>
      <trkpt lat="47.11644" lon="7.26201">
        <ele>431.3</ele>
        <time>2022-10-01T08:35:54Z</time>
      </trkpt>
      <trkpt lat="47.11642" lon="7.26207">
        <ele>431.3</ele>
        <time>2022-10-01T08:35:55Z</time>
      </trkpt>
      <trkpt lat="47.11639" lon="7.26213">
        <ele>431.4</ele>
        <time>2022-10-01T08:35:56Z</time>
      </trkpt>
      <trkpt lat="47.11637" lon="7.26219">
        <ele>431.5</ele>
        <time>2022-10-01T08:35:57Z</time>
      </trkpt>
      <trkpt lat="47.11634" lon="7.26225">
        <ele>431.5</ele>
        <time>2022-10-01T08:35:58Z</time>
      </trkpt>
      <trkpt lat="47.11632" lon="7.26231">
        <ele>431.5</ele>
        <time>2022-10-01T08:35:59Z</time>
      </trkpt>
      <trkpt lat="47.11631" lon="7.2624">
        <ele>431.5</ele>
        <time>2022-10-01T08:36:00Z</time>
      </trkpt>
      <trkpt lat="47.11628" lon="7.26247">
        <ele>431.4</ele>
        <time>2022-10-01T08:36:01Z</time>
      </trkpt>
      <trkpt lat="47.11626" lon="7.26254">
        <ele>431.4</ele>
        <time>2022-10-01T08:36:02Z</time>
      </trkpt>
      <trkpt lat="47.11625" lon="7.2626">
        <ele>431.3</ele>
        <time>2022-10-01T08:36:03Z</time>
      </trkpt>
      <trkpt lat="47.11623" lon="7.26269">
        <ele>431.2</ele>
        <time>2022-10-01T08:36:04Z</time>
      </trkpt>
      <trkpt lat="47.11621" lon="7.26277">
        <ele>431.2</ele>
        <time>2022-10-01T08:36:05Z</time>
      </trkpt>
      <trkpt lat="47.1162" lon="7.26285">
        <ele>431.1</ele>
        <time>2022-10-01T08:36:06Z</time>
      </trkpt>
      <trkpt lat="47.11618" lon="7.26292">
        <ele>431.1</ele>
        <time>2022-10-01T08:36:07Z</time>
      </trkpt>
      <trkpt lat="47.11616" lon="7.263">
        <ele>431.1</ele>
        <time>2022-10-01T08:36:08Z</time>
      </trkpt>
      <trkpt lat="47.11614" lon="7.26308">
        <ele>431</ele>
        <time>2022-10-01T08:36:09Z</time>
      </trkpt>
      <trkpt lat="47.11612" lon="7.26316">
        <ele>431</ele>
        <time>2022-10-01T08:36:10Z</time>
      </trkpt>
      <trkpt lat="47.1161" lon="7.26324">
        <ele>430.9</ele>
        <time>2022-10-01T08:36:11Z</time>
      </trkpt>
      <trkpt lat="47.11608" lon="7.26333">
        <ele>430.9</ele>
        <time>2022-10-01T08:36:12Z</time>
      </trkpt>
      <trkpt lat="47.11607" lon="7.26341">
        <ele>430.9</ele>
        <time>2022-10-01T08:36:13Z</time>
      </trkpt>
      <trkpt lat="47.11605" lon="7.26349">
        <ele>430.8</ele>
        <time>2022-10-01T08:36:14Z</time>
      </trkpt>
      <trkpt lat="47.11603" lon="7.26357">
        <ele>430.8</ele>
        <time>2022-10-01T08:36:15Z</time>
      </trkpt>
      <trkpt lat="47.11601" lon="7.26364">
        <ele>430.8</ele>
        <time>2022-10-01T08:36:16Z</time>
      </trkpt>
      <trkpt lat="47.11599" lon="7.26373">
        <ele>430.8</ele>
        <time>2022-10-01T08:36:17Z</time>
      </trkpt>
      <trkpt lat="47.11598" lon="7.26381">
        <ele>430.8</ele>
        <time>2022-10-01T08:36:18Z</time>
      </trkpt>
      <trkpt lat="47.11596" lon="7.26389">
        <ele>430.8</ele>
        <time>2022-10-01T08:36:19Z</time>
      </trkpt>
      <trkpt lat="47.11594" lon="7.26397">
        <ele>430.8</ele>
        <time>2022-10-01T08:36:20Z</time>
      </trkpt>
      <trkpt lat="47.11592" lon="7.26405">
        <ele>430.8</ele>
        <time>2022-10-01T08:36:21Z</time>
      </trkpt>
      <trkpt lat="47.11591" lon="7.26413">
        <ele>430.9</ele>
        <time>2022-10-01T08:36:22Z</time>
      </trkpt>
      <trkpt lat="47.11589" lon="7.26421">
        <ele>430.9</ele>
        <time>2022-10-01T08:36:23Z</time>
      </trkpt>
      <trkpt lat="47.11587" lon="7.26429">
        <ele>430.9</ele>
        <time>2022-10-01T08:36:24Z</time>
      </trkpt>
      <trkpt lat="47.11585" lon="7.26438">
        <ele>430.9</ele>
        <time>2022-10-01T08:36:25Z</time>
      </trkpt>
      <trkpt lat="47.11584" lon="7.26446">
        <ele>430.9</ele>
        <time>2022-10-01T08:36:26Z</time>
      </trkpt>
      <trkpt lat="47.11582" lon="7.26455">
        <ele>430.9</ele>
        <time>2022-10-01T08:36:27Z</time>
      </trkpt>
      <trkpt lat="47.1158" lon="7.26463">
        <ele>430.9</ele>
        <time>2022-10-01T08:36:28Z</time>
      </trkpt>
      <trkpt lat="47.11579" lon="7.26472">
        <ele>430.9</ele>
        <time>2022-10-01T08:36:29Z</time>
      </trkpt>
      <trkpt lat="47.11577" lon="7.26481">
        <ele>430.9</ele>
        <time>2022-10-01T08:36:30Z</time>
      </trkpt>
      <trkpt lat="47.11576" lon="7.26489">
        <ele>430.9</ele>
        <time>2022-10-01T08:36:31Z</time>
      </trkpt>
      <trkpt lat="47.11574" lon="7.26498">
        <ele>430.9</ele>
        <time>2022-10-01T08:36:32Z</time>
      </trkpt>
      <trkpt lat="47.11573" lon="7.26506">
        <ele>430.9</ele>
        <time>2022-10-01T08:36:33Z</time>
      </trkpt>
      <trkpt lat="47.11573" lon="7.26516">
        <ele>430.9</ele>
        <time>2022-10-01T08:36:34Z</time>
      </trkpt>
      <trkpt lat="47.11572" lon="7.26525">
        <ele>430.9</ele>
        <time>2022-10-01T08:36:35Z</time>
      </trkpt>
      <trkpt lat="47.11572" lon="7.26534">
        <ele>430.9</ele>
        <time>2022-10-01T08:36:36Z</time>
      </trkpt>
      <trkpt lat="47.11571" lon="7.26543">
        <ele>430.9</ele>
        <time>2022-10-01T08:36:37Z</time>
      </trkpt>
      <trkpt lat="47.11571" lon="7.26552">
        <ele>430.9</ele>
        <time>2022-10-01T08:36:38Z</time>
      </trkpt>
      <trkpt lat="47.1157" lon="7.26561">
        <ele>430.9</ele>
        <time>2022-10-01T08:36:39Z</time>
      </trkpt>
      <trkpt lat="47.11569" lon="7.2657">
        <ele>430.9</ele>
        <time>2022-10-01T08:36:40Z</time>
      </trkpt>
      <trkpt lat="47.11568" lon="7.26579">
        <ele>430.9</ele>
        <time>2022-10-01T08:36:41Z</time>
      </trkpt>
      <trkpt lat="47.11568" lon="7.26589">
        <ele>430.9</ele>
        <time>2022-10-01T08:36:42Z</time>
      </trkpt>
      <trkpt lat="47.11567" lon="7.26598">
        <ele>430.9</ele>
        <time>2022-10-01T08:36:43Z</time>
      </trkpt>
      <trkpt lat="47.11566" lon="7.26607">
        <ele>430.9</ele>
        <time>2022-10-01T08:36:44Z</time>
      </trkpt>
      <trkpt lat="47.11564" lon="7.26614">
        <ele>431</ele>
        <time>2022-10-01T08:36:45Z</time>
      </trkpt>
      <trkpt lat="47.11564" lon="7.26622">
        <ele>431</ele>
        <time>2022-10-01T08:36:46Z</time>
      </trkpt>
      <trkpt lat="47.11564" lon="7.2663">
        <ele>431</ele>
        <time>2022-10-01T08:36:47Z</time>
      </trkpt>
      <trkpt lat="47.11565" lon="7.26638">
        <ele>431</ele>
        <time>2022-10-01T08:36:48Z</time>
      </trkpt>
      <trkpt lat="47.11565" lon="7.26647">
        <ele>431</ele>
        <time>2022-10-01T08:36:49Z</time>
      </trkpt>
      <trkpt lat="47.11564" lon="7.26656">
        <ele>431</ele>
        <time>2022-10-01T08:36:50Z</time>
      </trkpt>
      <trkpt lat="47.11564" lon="7.26665">
        <ele>430.9</ele>
        <time>2022-10-01T08:36:51Z</time>
      </trkpt>
      <trkpt lat="47.11565" lon="7.26673">
        <ele>430.9</ele>
        <time>2022-10-01T08:36:52Z</time>
      </trkpt>
      <trkpt lat="47.11565" lon="7.26682">
        <ele>430.9</ele>
        <time>2022-10-01T08:36:53Z</time>
      </trkpt>
      <trkpt lat="47.11565" lon="7.26692">
        <ele>430.9</ele>
        <time>2022-10-01T08:36:54Z</time>
      </trkpt>
      <trkpt lat="47.11564" lon="7.26699">
        <ele>431</ele>
        <time>2022-10-01T08:36:55Z</time>
      </trkpt>
      <trkpt lat="47.11566" lon="7.26707">
        <ele>431</ele>
        <time>2022-10-01T08:36:56Z</time>
      </trkpt>
      <trkpt lat="47.11566" lon="7.26715">
        <ele>431.1</ele>
        <time>2022-10-01T08:36:57Z</time>
      </trkpt>
      <trkpt lat="47.11566" lon="7.26723">
        <ele>431.1</ele>
        <time>2022-10-01T08:36:58Z</time>
      </trkpt>
      <trkpt lat="47.11566" lon="7.2673">
        <ele>431.1</ele>
        <time>2022-10-01T08:36:59Z</time>
      </trkpt>
      <trkpt lat="47.11566" lon="7.26738">
        <ele>431.2</ele>
        <time>2022-10-01T08:37:00Z</time>
      </trkpt>
      <trkpt lat="47.11567" lon="7.26746">
        <ele>431.2</ele>
        <time>2022-10-01T08:37:01Z</time>
      </trkpt>
      <trkpt lat="47.11568" lon="7.26753">
        <ele>431.3</ele>
        <time>2022-10-01T08:37:02Z</time>
      </trkpt>
      <trkpt lat="47.11568" lon="7.2676">
        <ele>431.3</ele>
        <time>2022-10-01T08:37:03Z</time>
      </trkpt>
      <trkpt lat="47.11568" lon="7.26767">
        <ele>431.3</ele>
        <time>2022-10-01T08:37:04Z</time>
      </trkpt>
      <trkpt lat="47.11567" lon="7.26774">
        <ele>431.3</ele>
        <time>2022-10-01T08:37:05Z</time>
      </trkpt>
      <trkpt lat="47.11567" lon="7.26781">
        <ele>431.3</ele>
        <time>2022-10-01T08:37:06Z</time>
      </trkpt>
      <trkpt lat="47.11566" lon="7.26786">
        <ele>431.3</ele>
        <time>2022-10-01T08:37:07Z</time>
      </trkpt>
      <trkpt lat="47.11564" lon="7.26792">
        <ele>431.3</ele>
        <time>2022-10-01T08:37:08Z</time>
      </trkpt>
      <trkpt lat="47.11561" lon="7.26801">
        <ele>431.3</ele>
        <time>2022-10-01T08:37:09Z</time>
      </trkpt>
      <trkpt lat="47.11557" lon="7.26807">
        <ele>431.3</ele>
        <time>2022-10-01T08:37:10Z</time>
      </trkpt>
      <trkpt lat="47.11555" lon="7.26814">
        <ele>431.4</ele>
        <time>2022-10-01T08:37:11Z</time>
      </trkpt>
      <trkpt lat="47.11552" lon="7.2682">
        <ele>431.4</ele>
        <time>2022-10-01T08:37:12Z</time>
      </trkpt>
      <trkpt lat="47.11549" lon="7.26827">
        <ele>431.4</ele>
        <time>2022-10-01T08:37:13Z</time>
      </trkpt>
      <trkpt lat="47.11546" lon="7.26832">
        <ele>431.5</ele>
        <time>2022-10-01T08:37:14Z</time>
      </trkpt>
      <trkpt lat="47.11543" lon="7.26837">
        <ele>431.6</ele>
        <time>2022-10-01T08:37:15Z</time>
      </trkpt>
      <trkpt lat="47.1154" lon="7.26842">
        <ele>431.6</ele>
        <time>2022-10-01T08:37:16Z</time>
      </trkpt>
      <trkpt lat="47.11537" lon="7.26847">
        <ele>431.7</ele>
        <time>2022-10-01T08:37:17Z</time>
      </trkpt>
      <trkpt lat="47.11534" lon="7.26851">
        <ele>431.8</ele>
        <time>2022-10-01T08:37:18Z</time>
      </trkpt>
      <trkpt lat="47.11531" lon="7.26855">
        <ele>431.8</ele>
        <time>2022-10-01T08:37:19Z</time>
      </trkpt>
      <trkpt lat="47.11528" lon="7.26858">
        <ele>431.9</ele>
        <time>2022-10-01T08:37:20Z</time>
      </trkpt>
      <trkpt lat="47.11526" lon="7.26862">
        <ele>431.9</ele>
        <time>2022-10-01T08:37:21Z</time>
      </trkpt>
      <trkpt lat="47.11525" lon="7.26867">
        <ele>432</ele>
        <time>2022-10-01T08:37:22Z</time>
      </trkpt>
      <trkpt lat="47.11525" lon="7.26873">
        <ele>432</ele>
        <time>2022-10-01T08:37:23Z</time>
      </trkpt>
      <trkpt lat="47.11525" lon="7.26879">
        <ele>432</ele>
        <time>2022-10-01T08:37:24Z</time>
      </trkpt>
      <trkpt lat="47.11527" lon="7.26884">
        <ele>432</ele>
        <time>2022-10-01T08:37:25Z</time>
      </trkpt>
      <trkpt lat="47.11528" lon="7.26891">
        <ele>432</ele>
        <time>2022-10-01T08:37:26Z</time>
      </trkpt>
      <trkpt lat="47.1153" lon="7.26896">
        <ele>432</ele>
        <time>2022-10-01T08:37:27Z</time>
      </trkpt>
      <trkpt lat="47.11531" lon="7.26902">
        <ele>432</ele>
        <time>2022-10-01T08:37:28Z</time>
      </trkpt>
      <trkpt lat="47.11534" lon="7.26908">
        <ele>432</ele>
        <time>2022-10-01T08:37:29Z</time>
      </trkpt>
      <trkpt lat="47.11536" lon="7.26915">
        <ele>431.9</ele>
        <time>2022-10-01T08:37:30Z</time>
      </trkpt>
      <trkpt lat="47.11539" lon="7.26922">
        <ele>431.9</ele>
        <time>2022-10-01T08:37:31Z</time>
      </trkpt>
      <trkpt lat="47.11541" lon="7.26928">
        <ele>431.9</ele>
        <time>2022-10-01T08:37:32Z</time>
      </trkpt>
      <trkpt lat="47.11543" lon="7.26934">
        <ele>431.9</ele>
        <time>2022-10-01T08:37:33Z</time>
      </trkpt>
      <trkpt lat="47.11545" lon="7.26941">
        <ele>431.9</ele>
        <time>2022-10-01T08:37:34Z</time>
      </trkpt>
      <trkpt lat="47.11548" lon="7.26948">
        <ele>431.9</ele>
        <time>2022-10-01T08:37:35Z</time>
      </trkpt>
      <trkpt lat="47.11551" lon="7.26954">
        <ele>431.9</ele>
        <time>2022-10-01T08:37:36Z</time>
      </trkpt>
      <trkpt lat="47.11554" lon="7.26961">
        <ele>431.8</ele>
        <time>2022-10-01T08:37:37Z</time>
      </trkpt>
      <trkpt lat="47.11556" lon="7.26968">
        <ele>431.8</ele>
        <time>2022-10-01T08:37:38Z</time>
      </trkpt>
      <trkpt lat="47.11558" lon="7.26974">
        <ele>431.8</ele>
        <time>2022-10-01T08:37:39Z</time>
      </trkpt>
      <trkpt lat="47.1156" lon="7.26981">
        <ele>431.8</ele>
        <time>2022-10-01T08:37:40Z</time>
      </trkpt>
      <trkpt lat="47.11562" lon="7.26987">
        <ele>431.8</ele>
        <time>2022-10-01T08:37:41Z</time>
      </trkpt>
      <trkpt lat="47.11565" lon="7.26994">
        <ele>431.8</ele>
        <time>2022-10-01T08:37:42Z</time>
      </trkpt>
      <trkpt lat="47.11567" lon="7.27001">
        <ele>431.8</ele>
        <time>2022-10-01T08:37:43Z</time>
      </trkpt>
      <trkpt lat="47.1157" lon="7.27008">
        <ele>431.7</ele>
        <time>2022-10-01T08:37:44Z</time>
      </trkpt>
      <trkpt lat="47.11573" lon="7.27014">
        <ele>431.7</ele>
        <time>2022-10-01T08:37:45Z</time>
      </trkpt>
      <trkpt lat="47.11575" lon="7.27021">
        <ele>431.7</ele>
        <time>2022-10-01T08:37:46Z</time>
      </trkpt>
      <trkpt lat="47.11578" lon="7.27028">
        <ele>431.7</ele>
        <time>2022-10-01T08:37:47Z</time>
      </trkpt>
      <trkpt lat="47.1158" lon="7.27035">
        <ele>431.7</ele>
        <time>2022-10-01T08:37:48Z</time>
      </trkpt>
      <trkpt lat="47.11583" lon="7.27042">
        <ele>431.6</ele>
        <time>2022-10-01T08:37:49Z</time>
      </trkpt>
      <trkpt lat="47.11585" lon="7.27049">
        <ele>431.6</ele>
        <time>2022-10-01T08:37:50Z</time>
      </trkpt>
      <trkpt lat="47.11587" lon="7.27056">
        <ele>431.7</ele>
        <time>2022-10-01T08:37:51Z</time>
      </trkpt>
      <trkpt lat="47.11589" lon="7.27063">
        <ele>431.7</ele>
        <time>2022-10-01T08:37:52Z</time>
      </trkpt>
      <trkpt lat="47.1159" lon="7.27071">
        <ele>431.7</ele>
        <time>2022-10-01T08:37:53Z</time>
      </trkpt>
      <trkpt lat="47.11591" lon="7.27079">
        <ele>431.7</ele>
        <time>2022-10-01T08:37:54Z</time>
      </trkpt>
      <trkpt lat="47.11591" lon="7.27087">
        <ele>431.7</ele>
        <time>2022-10-01T08:37:55Z</time>
      </trkpt>
      <trkpt lat="47.11592" lon="7.27095">
        <ele>431.7</ele>
        <time>2022-10-01T08:37:56Z</time>
      </trkpt>
      <trkpt lat="47.11593" lon="7.27102">
        <ele>431.7</ele>
        <time>2022-10-01T08:37:57Z</time>
      </trkpt>
      <trkpt lat="47.11594" lon="7.2711">
        <ele>431.7</ele>
        <time>2022-10-01T08:37:58Z</time>
      </trkpt>
      <trkpt lat="47.11594" lon="7.27117">
        <ele>431.7</ele>
        <time>2022-10-01T08:37:59Z</time>
      </trkpt>
      <trkpt lat="47.11595" lon="7.27125">
        <ele>431.7</ele>
        <time>2022-10-01T08:38:00Z</time>
      </trkpt>
      <trkpt lat="47.11595" lon="7.27132">
        <ele>431.7</ele>
        <time>2022-10-01T08:38:01Z</time>
      </trkpt>
      <trkpt lat="47.11597" lon="7.27139">
        <ele>431.7</ele>
        <time>2022-10-01T08:38:02Z</time>
      </trkpt>
      <trkpt lat="47.11599" lon="7.27146">
        <ele>431.7</ele>
        <time>2022-10-01T08:38:03Z</time>
      </trkpt>
      <trkpt lat="47.11601" lon="7.27152">
        <ele>431.7</ele>
        <time>2022-10-01T08:38:04Z</time>
      </trkpt>
      <trkpt lat="47.11604" lon="7.27158">
        <ele>431.7</ele>
        <time>2022-10-01T08:38:05Z</time>
      </trkpt>
      <trkpt lat="47.11607" lon="7.27163">
        <ele>431.7</ele>
        <time>2022-10-01T08:38:06Z</time>
      </trkpt>
      <trkpt lat="47.11611" lon="7.27167">
        <ele>431.7</ele>
        <time>2022-10-01T08:38:07Z</time>
      </trkpt>
      <trkpt lat="47.11615" lon="7.27171">
        <ele>431.7</ele>
        <time>2022-10-01T08:38:08Z</time>
      </trkpt>
      <trkpt lat="47.11619" lon="7.27175">
        <ele>431.6</ele>
        <time>2022-10-01T08:38:09Z</time>
      </trkpt>
      <trkpt lat="47.11624" lon="7.27179">
        <ele>431.6</ele>
        <time>2022-10-01T08:38:10Z</time>
      </trkpt>
      <trkpt lat="47.11627" lon="7.27183">
        <ele>431.6</ele>
        <time>2022-10-01T08:38:11Z</time>
      </trkpt>
      <trkpt lat="47.11632" lon="7.27187">
        <ele>431.6</ele>
        <time>2022-10-01T08:38:12Z</time>
      </trkpt>
      <trkpt lat="47.11637" lon="7.2719">
        <ele>431.6</ele>
        <time>2022-10-01T08:38:13Z</time>
      </trkpt>
      <trkpt lat="47.11641" lon="7.27194">
        <ele>431.6</ele>
        <time>2022-10-01T08:38:14Z</time>
      </trkpt>
      <trkpt lat="47.11645" lon="7.27197">
        <ele>431.6</ele>
        <time>2022-10-01T08:38:15Z</time>
      </trkpt>
      <trkpt lat="47.1165" lon="7.27201">
        <ele>431.6</ele>
        <time>2022-10-01T08:38:16Z</time>
      </trkpt>
      <trkpt lat="47.11654" lon="7.27205">
        <ele>431.6</ele>
        <time>2022-10-01T08:38:17Z</time>
      </trkpt>
      <trkpt lat="47.11658" lon="7.27207">
        <ele>431.6</ele>
        <time>2022-10-01T08:38:18Z</time>
      </trkpt>
      <trkpt lat="47.11662" lon="7.2721">
        <ele>431.6</ele>
        <time>2022-10-01T08:38:19Z</time>
      </trkpt>
      <trkpt lat="47.11665" lon="7.27214">
        <ele>431.6</ele>
        <time>2022-10-01T08:38:20Z</time>
      </trkpt>
      <trkpt lat="47.11668" lon="7.27219">
        <ele>431.6</ele>
        <time>2022-10-01T08:38:21Z</time>
      </trkpt>
      <trkpt lat="47.1167" lon="7.27224">
        <ele>431.6</ele>
        <time>2022-10-01T08:38:22Z</time>
      </trkpt>
      <trkpt lat="47.11672" lon="7.2723">
        <ele>431.5</ele>
        <time>2022-10-01T08:38:23Z</time>
      </trkpt>
      <trkpt lat="47.11675" lon="7.27236">
        <ele>431.5</ele>
        <time>2022-10-01T08:38:24Z</time>
      </trkpt>
      <trkpt lat="47.11677" lon="7.27243">
        <ele>431.5</ele>
        <time>2022-10-01T08:38:25Z</time>
      </trkpt>
      <trkpt lat="47.11678" lon="7.27249">
        <ele>431.5</ele>
        <time>2022-10-01T08:38:26Z</time>
      </trkpt>
      <trkpt lat="47.1168" lon="7.27257">
        <ele>431.4</ele>
        <time>2022-10-01T08:38:27Z</time>
      </trkpt>
      <trkpt lat="47.11683" lon="7.27262">
        <ele>431.4</ele>
        <time>2022-10-01T08:38:28Z</time>
      </trkpt>
      <trkpt lat="47.11685" lon="7.27269">
        <ele>431.4</ele>
        <time>2022-10-01T08:38:29Z</time>
      </trkpt>
      <trkpt lat="47.11687" lon="7.27277">
        <ele>431.3</ele>
        <time>2022-10-01T08:38:30Z</time>
      </trkpt>
      <trkpt lat="47.1169" lon="7.27285">
        <ele>431.3</ele>
        <time>2022-10-01T08:38:31Z</time>
      </trkpt>
      <trkpt lat="47.11693" lon="7.27291">
        <ele>431.2</ele>
        <time>2022-10-01T08:38:32Z</time>
      </trkpt>
      <trkpt lat="47.11695" lon="7.27299">
        <ele>431.2</ele>
        <time>2022-10-01T08:38:33Z</time>
      </trkpt>
      <trkpt lat="47.11698" lon="7.27306">
        <ele>431.1</ele>
        <time>2022-10-01T08:38:34Z</time>
      </trkpt>
      <trkpt lat="47.11701" lon="7.27313">
        <ele>431</ele>
        <time>2022-10-01T08:38:35Z</time>
      </trkpt>
      <trkpt lat="47.11704" lon="7.2732">
        <ele>431</ele>
        <time>2022-10-01T08:38:36Z</time>
      </trkpt>
      <trkpt lat="47.11707" lon="7.27327">
        <ele>430.9</ele>
        <time>2022-10-01T08:38:37Z</time>
      </trkpt>
      <trkpt lat="47.1171" lon="7.27335">
        <ele>430.8</ele>
        <time>2022-10-01T08:38:38Z</time>
      </trkpt>
      <trkpt lat="47.11713" lon="7.27343">
        <ele>430.7</ele>
        <time>2022-10-01T08:38:39Z</time>
      </trkpt>
      <trkpt lat="47.11716" lon="7.27352">
        <ele>430.6</ele>
        <time>2022-10-01T08:38:40Z</time>
      </trkpt>
      <trkpt lat="47.11719" lon="7.2736">
        <ele>430.5</ele>
        <time>2022-10-01T08:38:41Z</time>
      </trkpt>
      <trkpt lat="47.11722" lon="7.27368">
        <ele>430.4</ele>
        <time>2022-10-01T08:38:42Z</time>
      </trkpt>
      <trkpt lat="47.11725" lon="7.27375">
        <ele>430.4</ele>
        <time>2022-10-01T08:38:43Z</time>
      </trkpt>
      <trkpt lat="47.11728" lon="7.27383">
        <ele>430.4</ele>
        <time>2022-10-01T08:38:44Z</time>
      </trkpt>
      <trkpt lat="47.11732" lon="7.27391">
        <ele>430.4</ele>
        <time>2022-10-01T08:38:45Z</time>
      </trkpt>
      <trkpt lat="47.11735" lon="7.27398">
        <ele>430.4</ele>
        <time>2022-10-01T08:38:46Z</time>
      </trkpt>
      <trkpt lat="47.11739" lon="7.27405">
        <ele>430.4</ele>
        <time>2022-10-01T08:38:47Z</time>
      </trkpt>
      <trkpt lat="47.11742" lon="7.27412">
        <ele>430.4</ele>
        <time>2022-10-01T08:38:48Z</time>
      </trkpt>
      <trkpt lat="47.11745" lon="7.27419">
        <ele>430.5</ele>
        <time>2022-10-01T08:38:49Z</time>
      </trkpt>
      <trkpt lat="47.11748" lon="7.27428">
        <ele>430.5</ele>
        <time>2022-10-01T08:38:50Z</time>
      </trkpt>
      <trkpt lat="47.11752" lon="7.27435">
        <ele>430.5</ele>
        <time>2022-10-01T08:38:51Z</time>
      </trkpt>
      <trkpt lat="47.11755" lon="7.27443">
        <ele>430.6</ele>
        <time>2022-10-01T08:38:52Z</time>
      </trkpt>
      <trkpt lat="47.11759" lon="7.2745">
        <ele>430.6</ele>
        <time>2022-10-01T08:38:53Z</time>
      </trkpt>
      <trkpt lat="47.11762" lon="7.27458">
        <ele>430.6</ele>
        <time>2022-10-01T08:38:54Z</time>
      </trkpt>
      <trkpt lat="47.11766" lon="7.27465">
        <ele>430.7</ele>
        <time>2022-10-01T08:38:55Z</time>
      </trkpt>
      <trkpt lat="47.11769" lon="7.27472">
        <ele>430.7</ele>
        <time>2022-10-01T08:38:56Z</time>
      </trkpt>
      <trkpt lat="47.11772" lon="7.2748">
        <ele>430.8</ele>
        <time>2022-10-01T08:38:57Z</time>
      </trkpt>
      <trkpt lat="47.11776" lon="7.27487">
        <ele>430.8</ele>
        <time>2022-10-01T08:38:58Z</time>
      </trkpt>
      <trkpt lat="47.11779" lon="7.27494">
        <ele>430.9</ele>
        <time>2022-10-01T08:38:59Z</time>
      </trkpt>
      <trkpt lat="47.11783" lon="7.27499">
        <ele>430.9</ele>
        <time>2022-10-01T08:39:00Z</time>
      </trkpt>
      <trkpt lat="47.11786" lon="7.27506">
        <ele>431</ele>
        <time>2022-10-01T08:39:01Z</time>
      </trkpt>
      <trkpt lat="47.11789" lon="7.27513">
        <ele>431.1</ele>
        <time>2022-10-01T08:39:02Z</time>
      </trkpt>
      <trkpt lat="47.11793" lon="7.27519">
        <ele>431.1</ele>
        <time>2022-10-01T08:39:03Z</time>
      </trkpt>
      <trkpt lat="47.11796" lon="7.27525">
        <ele>431.2</ele>
        <time>2022-10-01T08:39:04Z</time>
      </trkpt>
      <trkpt lat="47.11799" lon="7.27532">
        <ele>431.2</ele>
        <time>2022-10-01T08:39:05Z</time>
      </trkpt>
      <trkpt lat="47.11802" lon="7.27539">
        <ele>431.2</ele>
        <time>2022-10-01T08:39:06Z</time>
      </trkpt>
      <trkpt lat="47.11805" lon="7.27545">
        <ele>431.3</ele>
        <time>2022-10-01T08:39:07Z</time>
      </trkpt>
      <trkpt lat="47.11809" lon="7.27551">
        <ele>431.3</ele>
        <time>2022-10-01T08:39:08Z</time>
      </trkpt>
      <trkpt lat="47.11812" lon="7.27556">
        <ele>431.3</ele>
        <time>2022-10-01T08:39:09Z</time>
      </trkpt>
      <trkpt lat="47.11815" lon="7.27562">
        <ele>431.4</ele>
        <time>2022-10-01T08:39:10Z</time>
      </trkpt>
      <trkpt lat="47.11819" lon="7.27568">
        <ele>431.4</ele>
        <time>2022-10-01T08:39:11Z</time>
      </trkpt>
      <trkpt lat="47.11822" lon="7.27574">
        <ele>431.4</ele>
        <time>2022-10-01T08:39:12Z</time>
      </trkpt>
      <trkpt lat="47.11826" lon="7.2758">
        <ele>431.4</ele>
        <time>2022-10-01T08:39:13Z</time>
      </trkpt>
      <trkpt lat="47.11828" lon="7.27586">
        <ele>431.4</ele>
        <time>2022-10-01T08:39:14Z</time>
      </trkpt>
      <trkpt lat="47.11832" lon="7.27592">
        <ele>431.5</ele>
        <time>2022-10-01T08:39:15Z</time>
      </trkpt>
      <trkpt lat="47.11835" lon="7.27598">
        <ele>431.5</ele>
        <time>2022-10-01T08:39:16Z</time>
      </trkpt>
      <trkpt lat="47.11838" lon="7.27604">
        <ele>431.5</ele>
        <time>2022-10-01T08:39:17Z</time>
      </trkpt>
      <trkpt lat="47.11841" lon="7.2761">
        <ele>431.5</ele>
        <time>2022-10-01T08:39:18Z</time>
      </trkpt>
      <trkpt lat="47.11844" lon="7.27616">
        <ele>431.5</ele>
        <time>2022-10-01T08:39:19Z</time>
      </trkpt>
      <trkpt lat="47.11847" lon="7.27622">
        <ele>431.5</ele>
        <time>2022-10-01T08:39:20Z</time>
      </trkpt>
      <trkpt lat="47.11851" lon="7.27627">
        <ele>431.5</ele>
        <time>2022-10-01T08:39:21Z</time>
      </trkpt>
      <trkpt lat="47.11854" lon="7.27632">
        <ele>431.5</ele>
        <time>2022-10-01T08:39:22Z</time>
      </trkpt>
      <trkpt lat="47.11857" lon="7.27638">
        <ele>431.5</ele>
        <time>2022-10-01T08:39:23Z</time>
      </trkpt>
      <trkpt lat="47.1186" lon="7.27643">
        <ele>431.5</ele>
        <time>2022-10-01T08:39:24Z</time>
      </trkpt>
      <trkpt lat="47.11863" lon="7.27649">
        <ele>431.5</ele>
        <time>2022-10-01T08:39:25Z</time>
      </trkpt>
      <trkpt lat="47.11866" lon="7.27655">
        <ele>431.5</ele>
        <time>2022-10-01T08:39:26Z</time>
      </trkpt>
      <trkpt lat="47.11869" lon="7.27661">
        <ele>431.5</ele>
        <time>2022-10-01T08:39:27Z</time>
      </trkpt>
      <trkpt lat="47.11872" lon="7.27667">
        <ele>431.5</ele>
        <time>2022-10-01T08:39:28Z</time>
      </trkpt>
      <trkpt lat="47.11875" lon="7.27672">
        <ele>431.5</ele>
        <time>2022-10-01T08:39:29Z</time>
      </trkpt>
      <trkpt lat="47.11878" lon="7.27677">
        <ele>431.5</ele>
        <time>2022-10-01T08:39:30Z</time>
      </trkpt>
      <trkpt lat="47.11881" lon="7.27682">
        <ele>431.5</ele>
        <time>2022-10-01T08:39:31Z</time>
      </trkpt>
      <trkpt lat="47.11884" lon="7.27689">
        <ele>431.5</ele>
        <time>2022-10-01T08:39:32Z</time>
      </trkpt>
      <trkpt lat="47.11887" lon="7.27694">
        <ele>431.5</ele>
        <time>2022-10-01T08:39:33Z</time>
      </trkpt>
      <trkpt lat="47.1189" lon="7.27699">
        <ele>431.5</ele>
        <time>2022-10-01T08:39:34Z</time>
      </trkpt>
      <trkpt lat="47.11893" lon="7.27705">
        <ele>431.4</ele>
        <time>2022-10-01T08:39:35Z</time>
      </trkpt>
      <trkpt lat="47.11896" lon="7.27711">
        <ele>431.4</ele>
        <time>2022-10-01T08:39:36Z</time>
      </trkpt>
      <trkpt lat="47.11899" lon="7.27718">
        <ele>431.3</ele>
        <time>2022-10-01T08:39:37Z</time>
      </trkpt>
      <trkpt lat="47.11903" lon="7.27724">
        <ele>431.3</ele>
        <time>2022-10-01T08:39:38Z</time>
      </trkpt>
      <trkpt lat="47.11906" lon="7.27731">
        <ele>431.2</ele>
        <time>2022-10-01T08:39:39Z</time>
      </trkpt>
      <trkpt lat="47.1191" lon="7.27737">
        <ele>431.2</ele>
        <time>2022-10-01T08:39:40Z</time>
      </trkpt>
      <trkpt lat="47.11913" lon="7.27744">
        <ele>431.1</ele>
        <time>2022-10-01T08:39:41Z</time>
      </trkpt>
      <trkpt lat="47.11916" lon="7.2775">
        <ele>431.1</ele>
        <time>2022-10-01T08:39:42Z</time>
      </trkpt>
      <trkpt lat="47.1192" lon="7.27757">
        <ele>431</ele>
        <time>2022-10-01T08:39:43Z</time>
      </trkpt>
      <trkpt lat="47.11923" lon="7.27763">
        <ele>431</ele>
        <time>2022-10-01T08:39:44Z</time>
      </trkpt>
      <trkpt lat="47.11927" lon="7.27769">
        <ele>430.9</ele>
        <time>2022-10-01T08:39:45Z</time>
      </trkpt>
      <trkpt lat="47.1193" lon="7.27776">
        <ele>430.9</ele>
        <time>2022-10-01T08:39:46Z</time>
      </trkpt>
      <trkpt lat="47.11934" lon="7.27783">
        <ele>430.9</ele>
        <time>2022-10-01T08:39:47Z</time>
      </trkpt>
      <trkpt lat="47.11937" lon="7.2779">
        <ele>431</ele>
        <time>2022-10-01T08:39:48Z</time>
      </trkpt>
      <trkpt lat="47.1194" lon="7.27796">
        <ele>430.9</ele>
        <time>2022-10-01T08:39:49Z</time>
      </trkpt>
      <trkpt lat="47.11944" lon="7.27802">
        <ele>430.9</ele>
        <time>2022-10-01T08:39:50Z</time>
      </trkpt>
      <trkpt lat="47.11947" lon="7.27807">
        <ele>430.9</ele>
        <time>2022-10-01T08:39:51Z</time>
      </trkpt>
      <trkpt lat="47.11949" lon="7.2781">
        <ele>430.9</ele>
        <time>2022-10-01T08:39:52Z</time>
      </trkpt>
      <trkpt lat="47.11952" lon="7.27816">
        <ele>430.8</ele>
        <time>2022-10-01T08:39:53Z</time>
      </trkpt>
      <trkpt lat="47.11954" lon="7.27821">
        <ele>430.8</ele>
        <time>2022-10-01T08:39:54Z</time>
      </trkpt>
      <trkpt lat="47.11958" lon="7.27828">
        <ele>430.8</ele>
        <time>2022-10-01T08:39:55Z</time>
      </trkpt>
      <trkpt lat="47.11963" lon="7.27834">
        <ele>430.7</ele>
        <time>2022-10-01T08:39:56Z</time>
      </trkpt>
      <trkpt lat="47.11967" lon="7.27842">
        <ele>430.7</ele>
        <time>2022-10-01T08:39:57Z</time>
      </trkpt>
      <trkpt lat="47.1197" lon="7.27847">
        <ele>430.7</ele>
        <time>2022-10-01T08:39:58Z</time>
      </trkpt>
      <trkpt lat="47.11973" lon="7.27853">
        <ele>430.7</ele>
        <time>2022-10-01T08:39:59Z</time>
      </trkpt>
      <trkpt lat="47.11976" lon="7.27858">
        <ele>430.7</ele>
        <time>2022-10-01T08:40:00Z</time>
      </trkpt>
      <trkpt lat="47.11978" lon="7.27863">
        <ele>430.7</ele>
        <time>2022-10-01T08:40:01Z</time>
      </trkpt>
      <trkpt lat="47.11982" lon="7.27869">
        <ele>430.7</ele>
        <time>2022-10-01T08:40:02Z</time>
      </trkpt>
      <trkpt lat="47.11986" lon="7.27875">
        <ele>430.7</ele>
        <time>2022-10-01T08:40:03Z</time>
      </trkpt>
      <trkpt lat="47.11989" lon="7.27879">
        <ele>430.7</ele>
        <time>2022-10-01T08:40:04Z</time>
      </trkpt>
      <trkpt lat="47.11993" lon="7.27885">
        <ele>430.7</ele>
        <time>2022-10-01T08:40:05Z</time>
      </trkpt>
      <trkpt lat="47.11994" lon="7.2789">
        <ele>430.7</ele>
        <time>2022-10-01T08:40:06Z</time>
      </trkpt>
      <trkpt lat="47.11997" lon="7.27897">
        <ele>430.6</ele>
        <time>2022-10-01T08:40:07Z</time>
      </trkpt>
      <trkpt lat="47.12001" lon="7.27904">
        <ele>430.6</ele>
        <time>2022-10-01T08:40:08Z</time>
      </trkpt>
      <trkpt lat="47.12005" lon="7.2791">
        <ele>430.6</ele>
        <time>2022-10-01T08:40:09Z</time>
      </trkpt>
      <trkpt lat="47.12009" lon="7.27914">
        <ele>430.5</ele>
        <time>2022-10-01T08:40:10Z</time>
      </trkpt>
      <trkpt lat="47.12012" lon="7.27921">
        <ele>430.5</ele>
        <time>2022-10-01T08:40:11Z</time>
      </trkpt>
      <trkpt lat="47.12015" lon="7.27929">
        <ele>430.5</ele>
        <time>2022-10-01T08:40:12Z</time>
      </trkpt>
      <trkpt lat="47.12019" lon="7.27934">
        <ele>430.5</ele>
        <time>2022-10-01T08:40:13Z</time>
      </trkpt>
      <trkpt lat="47.12021" lon="7.27941">
        <ele>430.5</ele>
        <time>2022-10-01T08:40:14Z</time>
      </trkpt>
      <trkpt lat="47.12025" lon="7.27947">
        <ele>430.6</ele>
        <time>2022-10-01T08:40:15Z</time>
      </trkpt>
      <trkpt lat="47.12028" lon="7.27952">
        <ele>430.6</ele>
        <time>2022-10-01T08:40:16Z</time>
      </trkpt>
      <trkpt lat="47.12031" lon="7.27959">
        <ele>430.6</ele>
        <time>2022-10-01T08:40:17Z</time>
      </trkpt>
      <trkpt lat="47.12034" lon="7.27965">
        <ele>430.6</ele>
        <time>2022-10-01T08:40:18Z</time>
      </trkpt>
      <trkpt lat="47.12037" lon="7.2797">
        <ele>430.6</ele>
        <time>2022-10-01T08:40:19Z</time>
      </trkpt>
      <trkpt lat="47.1204" lon="7.27976">
        <ele>430.6</ele>
        <time>2022-10-01T08:40:20Z</time>
      </trkpt>
      <trkpt lat="47.12043" lon="7.27982">
        <ele>430.6</ele>
        <time>2022-10-01T08:40:21Z</time>
      </trkpt>
      <trkpt lat="47.12045" lon="7.27988">
        <ele>430.6</ele>
        <time>2022-10-01T08:40:22Z</time>
      </trkpt>
      <trkpt lat="47.12049" lon="7.27994">
        <ele>430.7</ele>
        <time>2022-10-01T08:40:23Z</time>
      </trkpt>
      <trkpt lat="47.12052" lon="7.28">
        <ele>430.7</ele>
        <time>2022-10-01T08:40:24Z</time>
      </trkpt>
      <trkpt lat="47.12055" lon="7.28007">
        <ele>430.7</ele>
        <time>2022-10-01T08:40:25Z</time>
      </trkpt>
      <trkpt lat="47.12059" lon="7.28012">
        <ele>430.7</ele>
        <time>2022-10-01T08:40:26Z</time>
      </trkpt>
      <trkpt lat="47.12062" lon="7.28018">
        <ele>430.8</ele>
        <time>2022-10-01T08:40:27Z</time>
      </trkpt>
      <trkpt lat="47.12065" lon="7.28025">
        <ele>430.8</ele>
        <time>2022-10-01T08:40:28Z</time>
      </trkpt>
      <trkpt lat="47.12068" lon="7.28031">
        <ele>430.8</ele>
        <time>2022-10-01T08:40:29Z</time>
      </trkpt>
      <trkpt lat="47.12071" lon="7.28037">
        <ele>430.8</ele>
        <time>2022-10-01T08:40:30Z</time>
      </trkpt>
      <trkpt lat="47.12074" lon="7.28042">
        <ele>430.9</ele>
        <time>2022-10-01T08:40:31Z</time>
      </trkpt>
      <trkpt lat="47.12078" lon="7.28047">
        <ele>431</ele>
        <time>2022-10-01T08:40:32Z</time>
      </trkpt>
      <trkpt lat="47.1208" lon="7.28053">
        <ele>431</ele>
        <time>2022-10-01T08:40:33Z</time>
      </trkpt>
      <trkpt lat="47.12083" lon="7.28058">
        <ele>431.1</ele>
        <time>2022-10-01T08:40:34Z</time>
      </trkpt>
      <trkpt lat="47.12085" lon="7.28063">
        <ele>431.2</ele>
        <time>2022-10-01T08:40:35Z</time>
      </trkpt>
      <trkpt lat="47.12088" lon="7.28069">
        <ele>431.2</ele>
        <time>2022-10-01T08:40:36Z</time>
      </trkpt>
      <trkpt lat="47.12091" lon="7.28074">
        <ele>431.3</ele>
        <time>2022-10-01T08:40:37Z</time>
      </trkpt>
      <trkpt lat="47.12094" lon="7.28079">
        <ele>431.4</ele>
        <time>2022-10-01T08:40:38Z</time>
      </trkpt>
      <trkpt lat="47.12097" lon="7.28084">
        <ele>431.4</ele>
        <time>2022-10-01T08:40:39Z</time>
      </trkpt>
      <trkpt lat="47.12099" lon="7.2809">
        <ele>431.5</ele>
        <time>2022-10-01T08:40:40Z</time>
      </trkpt>
      <trkpt lat="47.121" lon="7.28094">
        <ele>431.5</ele>
        <time>2022-10-01T08:40:41Z</time>
      </trkpt>
      <trkpt lat="47.12102" lon="7.28099">
        <ele>431.6</ele>
        <time>2022-10-01T08:40:42Z</time>
      </trkpt>
      <trkpt lat="47.12105" lon="7.28105">
        <ele>431.6</ele>
        <time>2022-10-01T08:40:43Z</time>
      </trkpt>
      <trkpt lat="47.12109" lon="7.2811">
        <ele>431.6</ele>
        <time>2022-10-01T08:40:44Z</time>
      </trkpt>
      <trkpt lat="47.12112" lon="7.28116">
        <ele>431.6</ele>
        <time>2022-10-01T08:40:45Z</time>
      </trkpt>
      <trkpt lat="47.12114" lon="7.28122">
        <ele>431.6</ele>
        <time>2022-10-01T08:40:46Z</time>
      </trkpt>
      <trkpt lat="47.12117" lon="7.28127">
        <ele>431.6</ele>
        <time>2022-10-01T08:40:47Z</time>
      </trkpt>
      <trkpt lat="47.12121" lon="7.28132">
        <ele>431.5</ele>
        <time>2022-10-01T08:40:48Z</time>
      </trkpt>
      <trkpt lat="47.12125" lon="7.28137">
        <ele>431.4</ele>
        <time>2022-10-01T08:40:49Z</time>
      </trkpt>
      <trkpt lat="47.12129" lon="7.28143">
        <ele>431.3</ele>
        <time>2022-10-01T08:40:50Z</time>
      </trkpt>
      <trkpt lat="47.12133" lon="7.28149">
        <ele>431.3</ele>
        <time>2022-10-01T08:40:51Z</time>
      </trkpt>
      <trkpt lat="47.12136" lon="7.28155">
        <ele>431.3</ele>
        <time>2022-10-01T08:40:52Z</time>
      </trkpt>
      <trkpt lat="47.1214" lon="7.28159">
        <ele>431.3</ele>
        <time>2022-10-01T08:40:53Z</time>
      </trkpt>
      <trkpt lat="47.12142" lon="7.28165">
        <ele>431.4</ele>
        <time>2022-10-01T08:40:54Z</time>
      </trkpt>
      <trkpt lat="47.12145" lon="7.28173">
        <ele>431.5</ele>
        <time>2022-10-01T08:40:55Z</time>
      </trkpt>
      <trkpt lat="47.12147" lon="7.2818">
        <ele>431.6</ele>
        <time>2022-10-01T08:40:56Z</time>
      </trkpt>
      <trkpt lat="47.1215" lon="7.28185">
        <ele>431.7</ele>
        <time>2022-10-01T08:40:57Z</time>
      </trkpt>
      <trkpt lat="47.12152" lon="7.2819">
        <ele>431.8</ele>
        <time>2022-10-01T08:40:58Z</time>
      </trkpt>
      <trkpt lat="47.12154" lon="7.28195">
        <ele>431.9</ele>
        <time>2022-10-01T08:40:59Z</time>
      </trkpt>
      <trkpt lat="47.12156" lon="7.28201">
        <ele>432</ele>
        <time>2022-10-01T08:41:00Z</time>
      </trkpt>
      <trkpt lat="47.12158" lon="7.28206">
        <ele>432.1</ele>
        <time>2022-10-01T08:41:01Z</time>
      </trkpt>
      <trkpt lat="47.1216" lon="7.28212">
        <ele>432.1</ele>
        <time>2022-10-01T08:41:02Z</time>
      </trkpt>
      <trkpt lat="47.12162" lon="7.28219">
        <ele>432.2</ele>
        <time>2022-10-01T08:41:03Z</time>
      </trkpt>
      <trkpt lat="47.12164" lon="7.28225">
        <ele>432.3</ele>
        <time>2022-10-01T08:41:04Z</time>
      </trkpt>
      <trkpt lat="47.12166" lon="7.28231">
        <ele>432.3</ele>
        <time>2022-10-01T08:41:05Z</time>
      </trkpt>
      <trkpt lat="47.12169" lon="7.28236">
        <ele>432.4</ele>
        <time>2022-10-01T08:41:06Z</time>
      </trkpt>
      <trkpt lat="47.12172" lon="7.28243">
        <ele>432.4</ele>
        <time>2022-10-01T08:41:07Z</time>
      </trkpt>
      <trkpt lat="47.12174" lon="7.28249">
        <ele>432.5</ele>
        <time>2022-10-01T08:41:08Z</time>
      </trkpt>
      <trkpt lat="47.12177" lon="7.28255">
        <ele>432.5</ele>
        <time>2022-10-01T08:41:09Z</time>
      </trkpt>
      <trkpt lat="47.12179" lon="7.28261">
        <ele>432.5</ele>
        <time>2022-10-01T08:41:10Z</time>
      </trkpt>
      <trkpt lat="47.12181" lon="7.28267">
        <ele>432.6</ele>
        <time>2022-10-01T08:41:11Z</time>
      </trkpt>
      <trkpt lat="47.12183" lon="7.28273">
        <ele>432.6</ele>
        <time>2022-10-01T08:41:12Z</time>
      </trkpt>
      <trkpt lat="47.12185" lon="7.2828">
        <ele>432.6</ele>
        <time>2022-10-01T08:41:13Z</time>
      </trkpt>
      <trkpt lat="47.12187" lon="7.28286">
        <ele>432.7</ele>
        <time>2022-10-01T08:41:14Z</time>
      </trkpt>
      <trkpt lat="47.12189" lon="7.28291">
        <ele>432.7</ele>
        <time>2022-10-01T08:41:15Z</time>
      </trkpt>
      <trkpt lat="47.1219" lon="7.28298">
        <ele>432.8</ele>
        <time>2022-10-01T08:41:16Z</time>
      </trkpt>
      <trkpt lat="47.12192" lon="7.28304">
        <ele>432.8</ele>
        <time>2022-10-01T08:41:17Z</time>
      </trkpt>
      <trkpt lat="47.12193" lon="7.2831">
        <ele>432.9</ele>
        <time>2022-10-01T08:41:18Z</time>
      </trkpt>
      <trkpt lat="47.12195" lon="7.28317">
        <ele>432.9</ele>
        <time>2022-10-01T08:41:19Z</time>
      </trkpt>
      <trkpt lat="47.12197" lon="7.28323">
        <ele>433</ele>
        <time>2022-10-01T08:41:20Z</time>
      </trkpt>
      <trkpt lat="47.122" lon="7.28328">
        <ele>433</ele>
        <time>2022-10-01T08:41:21Z</time>
      </trkpt>
      <trkpt lat="47.12201" lon="7.28335">
        <ele>433.1</ele>
        <time>2022-10-01T08:41:22Z</time>
      </trkpt>
      <trkpt lat="47.12203" lon="7.28342">
        <ele>433.1</ele>
        <time>2022-10-01T08:41:23Z</time>
      </trkpt>
      <trkpt lat="47.12204" lon="7.28348">
        <ele>433.2</ele>
        <time>2022-10-01T08:41:24Z</time>
      </trkpt>
      <trkpt lat="47.12206" lon="7.28354">
        <ele>433.2</ele>
        <time>2022-10-01T08:41:25Z</time>
      </trkpt>
      <trkpt lat="47.12207" lon="7.2836">
        <ele>433.2</ele>
        <time>2022-10-01T08:41:26Z</time>
      </trkpt>
      <trkpt lat="47.12208" lon="7.28366">
        <ele>433.2</ele>
        <time>2022-10-01T08:41:27Z</time>
      </trkpt>
      <trkpt lat="47.1221" lon="7.28372">
        <ele>433.3</ele>
        <time>2022-10-01T08:41:28Z</time>
      </trkpt>
      <trkpt lat="47.1221" lon="7.28377">
        <ele>433.3</ele>
        <time>2022-10-01T08:41:29Z</time>
      </trkpt>
      <trkpt lat="47.1221" lon="7.28379">
        <ele>433.3</ele>
        <time>2022-10-01T08:41:30Z</time>
      </trkpt>
      <trkpt lat="47.12211" lon="7.28382">
        <ele>433.2</ele>
        <time>2022-10-01T08:41:31Z</time>
      </trkpt>
      <trkpt lat="47.12212" lon="7.28386">
        <ele>433.2</ele>
        <time>2022-10-01T08:41:32Z</time>
      </trkpt>
      <trkpt lat="47.12214" lon="7.28391">
        <ele>433.1</ele>
        <time>2022-10-01T08:41:33Z</time>
      </trkpt>
      <trkpt lat="47.12215" lon="7.28393">
        <ele>433.1</ele>
        <time>2022-10-01T08:41:34Z</time>
      </trkpt>
      <trkpt lat="47.12217" lon="7.28396">
        <ele>433</ele>
        <time>2022-10-01T08:41:35Z</time>
      </trkpt>
      <trkpt lat="47.12218" lon="7.284">
        <ele>432.9</ele>
        <time>2022-10-01T08:41:36Z</time>
      </trkpt>
      <trkpt lat="47.1222" lon="7.28405">
        <ele>432.8</ele>
        <time>2022-10-01T08:41:37Z</time>
      </trkpt>
      <trkpt lat="47.12222" lon="7.28411">
        <ele>432.7</ele>
        <time>2022-10-01T08:41:38Z</time>
      </trkpt>
      <trkpt lat="47.12223" lon="7.28415">
        <ele>432.6</ele>
        <time>2022-10-01T08:41:39Z</time>
      </trkpt>
      <trkpt lat="47.12225" lon="7.28422">
        <ele>432.4</ele>
        <time>2022-10-01T08:41:40Z</time>
      </trkpt>
      <trkpt lat="47.12226" lon="7.28427">
        <ele>432.3</ele>
        <time>2022-10-01T08:41:41Z</time>
      </trkpt>
      <trkpt lat="47.12228" lon="7.28432">
        <ele>432.3</ele>
        <time>2022-10-01T08:41:42Z</time>
      </trkpt>
      <trkpt lat="47.1223" lon="7.2844">
        <ele>432.2</ele>
        <time>2022-10-01T08:41:43Z</time>
      </trkpt>
      <trkpt lat="47.1223" lon="7.28444">
        <ele>432.2</ele>
        <time>2022-10-01T08:41:44Z</time>
      </trkpt>
      <trkpt lat="47.12232" lon="7.28451">
        <ele>432.2</ele>
        <time>2022-10-01T08:41:45Z</time>
      </trkpt>
      <trkpt lat="47.12233" lon="7.28458">
        <ele>432.2</ele>
        <time>2022-10-01T08:41:46Z</time>
      </trkpt>
      <trkpt lat="47.12234" lon="7.28464">
        <ele>432.2</ele>
        <time>2022-10-01T08:41:47Z</time>
      </trkpt>
      <trkpt lat="47.12237" lon="7.28468">
        <ele>432.2</ele>
        <time>2022-10-01T08:41:48Z</time>
      </trkpt>
      <trkpt lat="47.12238" lon="7.28473">
        <ele>432.3</ele>
        <time>2022-10-01T08:41:49Z</time>
      </trkpt>
      <trkpt lat="47.12241" lon="7.28478">
        <ele>432.3</ele>
        <time>2022-10-01T08:41:50Z</time>
      </trkpt>
      <trkpt lat="47.12242" lon="7.28485">
        <ele>432.3</ele>
        <time>2022-10-01T08:41:51Z</time>
      </trkpt>
      <trkpt lat="47.12244" lon="7.28491">
        <ele>432.4</ele>
        <time>2022-10-01T08:41:52Z</time>
      </trkpt>
      <trkpt lat="47.12246" lon="7.28497">
        <ele>432.4</ele>
        <time>2022-10-01T08:41:53Z</time>
      </trkpt>
      <trkpt lat="47.12247" lon="7.28503">
        <ele>432.4</ele>
        <time>2022-10-01T08:41:54Z</time>
      </trkpt>
      <trkpt lat="47.12249" lon="7.28509">
        <ele>432.4</ele>
        <time>2022-10-01T08:41:55Z</time>
      </trkpt>
      <trkpt lat="47.1225" lon="7.28514">
        <ele>432.4</ele>
        <time>2022-10-01T08:41:56Z</time>
      </trkpt>
      <trkpt lat="47.12252" lon="7.2852">
        <ele>432.4</ele>
        <time>2022-10-01T08:41:57Z</time>
      </trkpt>
      <trkpt lat="47.12253" lon="7.28527">
        <ele>432.4</ele>
        <time>2022-10-01T08:41:58Z</time>
      </trkpt>
      <trkpt lat="47.12254" lon="7.28532">
        <ele>432.3</ele>
        <time>2022-10-01T08:41:59Z</time>
      </trkpt>
      <trkpt lat="47.12256" lon="7.28539">
        <ele>432.3</ele>
        <time>2022-10-01T08:42:00Z</time>
      </trkpt>
      <trkpt lat="47.12257" lon="7.28545">
        <ele>432.3</ele>
        <time>2022-10-01T08:42:01Z</time>
      </trkpt>
      <trkpt lat="47.12259" lon="7.28552">
        <ele>432.3</ele>
        <time>2022-10-01T08:42:02Z</time>
      </trkpt>
      <trkpt lat="47.12261" lon="7.28559">
        <ele>432.2</ele>
        <time>2022-10-01T08:42:03Z</time>
      </trkpt>
      <trkpt lat="47.12264" lon="7.28565">
        <ele>432.2</ele>
        <time>2022-10-01T08:42:04Z</time>
      </trkpt>
      <trkpt lat="47.12266" lon="7.28572">
        <ele>432.2</ele>
        <time>2022-10-01T08:42:05Z</time>
      </trkpt>
      <trkpt lat="47.12268" lon="7.28579">
        <ele>432.1</ele>
        <time>2022-10-01T08:42:06Z</time>
      </trkpt>
      <trkpt lat="47.12269" lon="7.28586">
        <ele>432.1</ele>
        <time>2022-10-01T08:42:07Z</time>
      </trkpt>
      <trkpt lat="47.1227" lon="7.28592">
        <ele>432.1</ele>
        <time>2022-10-01T08:42:08Z</time>
      </trkpt>
      <trkpt lat="47.12272" lon="7.286">
        <ele>432.1</ele>
        <time>2022-10-01T08:42:09Z</time>
      </trkpt>
      <trkpt lat="47.12273" lon="7.28607">
        <ele>432.1</ele>
        <time>2022-10-01T08:42:10Z</time>
      </trkpt>
      <trkpt lat="47.12276" lon="7.28614">
        <ele>432.1</ele>
        <time>2022-10-01T08:42:11Z</time>
      </trkpt>
      <trkpt lat="47.12277" lon="7.28621">
        <ele>432.1</ele>
        <time>2022-10-01T08:42:12Z</time>
      </trkpt>
      <trkpt lat="47.12279" lon="7.28627">
        <ele>432.1</ele>
        <time>2022-10-01T08:42:13Z</time>
      </trkpt>
      <trkpt lat="47.12281" lon="7.28634">
        <ele>432.1</ele>
        <time>2022-10-01T08:42:14Z</time>
      </trkpt>
      <trkpt lat="47.12283" lon="7.28641">
        <ele>432</ele>
        <time>2022-10-01T08:42:15Z</time>
      </trkpt>
      <trkpt lat="47.12285" lon="7.28647">
        <ele>432</ele>
        <time>2022-10-01T08:42:16Z</time>
      </trkpt>
      <trkpt lat="47.12287" lon="7.28654">
        <ele>432</ele>
        <time>2022-10-01T08:42:17Z</time>
      </trkpt>
      <trkpt lat="47.12289" lon="7.28661">
        <ele>432</ele>
        <time>2022-10-01T08:42:18Z</time>
      </trkpt>
      <trkpt lat="47.12291" lon="7.28669">
        <ele>432</ele>
        <time>2022-10-01T08:42:19Z</time>
      </trkpt>
      <trkpt lat="47.12293" lon="7.28677">
        <ele>432</ele>
        <time>2022-10-01T08:42:20Z</time>
      </trkpt>
      <trkpt lat="47.12294" lon="7.28684">
        <ele>431.9</ele>
        <time>2022-10-01T08:42:21Z</time>
      </trkpt>
      <trkpt lat="47.12296" lon="7.2869">
        <ele>431.9</ele>
        <time>2022-10-01T08:42:22Z</time>
      </trkpt>
      <trkpt lat="47.12297" lon="7.28696">
        <ele>431.9</ele>
        <time>2022-10-01T08:42:23Z</time>
      </trkpt>
      <trkpt lat="47.12298" lon="7.28701">
        <ele>431.9</ele>
        <time>2022-10-01T08:42:24Z</time>
      </trkpt>
      <trkpt lat="47.12301" lon="7.28709">
        <ele>431.9</ele>
        <time>2022-10-01T08:42:25Z</time>
      </trkpt>
      <trkpt lat="47.12303" lon="7.28716">
        <ele>431.8</ele>
        <time>2022-10-01T08:42:26Z</time>
      </trkpt>
      <trkpt lat="47.12304" lon="7.28723">
        <ele>431.8</ele>
        <time>2022-10-01T08:42:27Z</time>
      </trkpt>
      <trkpt lat="47.12306" lon="7.28731">
        <ele>431.8</ele>
        <time>2022-10-01T08:42:28Z</time>
      </trkpt>
      <trkpt lat="47.12308" lon="7.28738">
        <ele>431.8</ele>
        <time>2022-10-01T08:42:29Z</time>
      </trkpt>
      <trkpt lat="47.12311" lon="7.28745">
        <ele>431.8</ele>
        <time>2022-10-01T08:42:30Z</time>
      </trkpt>
      <trkpt lat="47.12313" lon="7.28753">
        <ele>431.8</ele>
        <time>2022-10-01T08:42:31Z</time>
      </trkpt>
      <trkpt lat="47.12315" lon="7.28759">
        <ele>431.8</ele>
        <time>2022-10-01T08:42:32Z</time>
      </trkpt>
      <trkpt lat="47.12316" lon="7.28766">
        <ele>431.9</ele>
        <time>2022-10-01T08:42:33Z</time>
      </trkpt>
      <trkpt lat="47.12317" lon="7.28773">
        <ele>431.9</ele>
        <time>2022-10-01T08:42:34Z</time>
      </trkpt>
      <trkpt lat="47.12319" lon="7.28781">
        <ele>432</ele>
        <time>2022-10-01T08:42:35Z</time>
      </trkpt>
      <trkpt lat="47.1232" lon="7.28787">
        <ele>432</ele>
        <time>2022-10-01T08:42:36Z</time>
      </trkpt>
      <trkpt lat="47.12322" lon="7.28794">
        <ele>432</ele>
        <time>2022-10-01T08:42:37Z</time>
      </trkpt>
      <trkpt lat="47.12324" lon="7.288">
        <ele>432</ele>
        <time>2022-10-01T08:42:38Z</time>
      </trkpt>
      <trkpt lat="47.12325" lon="7.28807">
        <ele>432.1</ele>
        <time>2022-10-01T08:42:39Z</time>
      </trkpt>
      <trkpt lat="47.12326" lon="7.28814">
        <ele>432.1</ele>
        <time>2022-10-01T08:42:40Z</time>
      </trkpt>
      <trkpt lat="47.12327" lon="7.2882">
        <ele>432.1</ele>
        <time>2022-10-01T08:42:41Z</time>
      </trkpt>
      <trkpt lat="47.12329" lon="7.28825">
        <ele>432.1</ele>
        <time>2022-10-01T08:42:42Z</time>
      </trkpt>
      <trkpt lat="47.12331" lon="7.28831">
        <ele>432.2</ele>
        <time>2022-10-01T08:42:43Z</time>
      </trkpt>
      <trkpt lat="47.12334" lon="7.28838">
        <ele>432.3</ele>
        <time>2022-10-01T08:42:44Z</time>
      </trkpt>
      <trkpt lat="47.12335" lon="7.28844">
        <ele>432.3</ele>
        <time>2022-10-01T08:42:45Z</time>
      </trkpt>
      <trkpt lat="47.12337" lon="7.28851">
        <ele>432.3</ele>
        <time>2022-10-01T08:42:46Z</time>
      </trkpt>
      <trkpt lat="47.12339" lon="7.28857">
        <ele>432.4</ele>
        <time>2022-10-01T08:42:47Z</time>
      </trkpt>
      <trkpt lat="47.1234" lon="7.28864">
        <ele>432.4</ele>
        <time>2022-10-01T08:42:48Z</time>
      </trkpt>
      <trkpt lat="47.12341" lon="7.2887">
        <ele>432.4</ele>
        <time>2022-10-01T08:42:49Z</time>
      </trkpt>
      <trkpt lat="47.12342" lon="7.28877">
        <ele>432.5</ele>
        <time>2022-10-01T08:42:50Z</time>
      </trkpt>
      <trkpt lat="47.12344" lon="7.28883">
        <ele>432.5</ele>
        <time>2022-10-01T08:42:51Z</time>
      </trkpt>
      <trkpt lat="47.12346" lon="7.2889">
        <ele>432.5</ele>
        <time>2022-10-01T08:42:52Z</time>
      </trkpt>
      <trkpt lat="47.12347" lon="7.28896">
        <ele>432.5</ele>
        <time>2022-10-01T08:42:53Z</time>
      </trkpt>
      <trkpt lat="47.12349" lon="7.28903">
        <ele>432.5</ele>
        <time>2022-10-01T08:42:54Z</time>
      </trkpt>
      <trkpt lat="47.1235" lon="7.28909">
        <ele>432.5</ele>
        <time>2022-10-01T08:42:55Z</time>
      </trkpt>
      <trkpt lat="47.12352" lon="7.28917">
        <ele>432.5</ele>
        <time>2022-10-01T08:42:56Z</time>
      </trkpt>
      <trkpt lat="47.12354" lon="7.28923">
        <ele>432.5</ele>
        <time>2022-10-01T08:42:57Z</time>
      </trkpt>
      <trkpt lat="47.12355" lon="7.2893">
        <ele>432.5</ele>
        <time>2022-10-01T08:42:58Z</time>
      </trkpt>
      <trkpt lat="47.12357" lon="7.28937">
        <ele>432.5</ele>
        <time>2022-10-01T08:42:59Z</time>
      </trkpt>
      <trkpt lat="47.12359" lon="7.28943">
        <ele>432.6</ele>
        <time>2022-10-01T08:43:00Z</time>
      </trkpt>
      <trkpt lat="47.12361" lon="7.2895">
        <ele>432.6</ele>
        <time>2022-10-01T08:43:01Z</time>
      </trkpt>
      <trkpt lat="47.12363" lon="7.28956">
        <ele>432.6</ele>
        <time>2022-10-01T08:43:02Z</time>
      </trkpt>
      <trkpt lat="47.12364" lon="7.28964">
        <ele>432.6</ele>
        <time>2022-10-01T08:43:03Z</time>
      </trkpt>
      <trkpt lat="47.12366" lon="7.2897">
        <ele>432.6</ele>
        <time>2022-10-01T08:43:04Z</time>
      </trkpt>
      <trkpt lat="47.12367" lon="7.28977">
        <ele>432.6</ele>
        <time>2022-10-01T08:43:05Z</time>
      </trkpt>
      <trkpt lat="47.12369" lon="7.28984">
        <ele>432.7</ele>
        <time>2022-10-01T08:43:06Z</time>
      </trkpt>
      <trkpt lat="47.1237" lon="7.28991">
        <ele>432.7</ele>
        <time>2022-10-01T08:43:07Z</time>
      </trkpt>
      <trkpt lat="47.12372" lon="7.28998">
        <ele>432.7</ele>
        <time>2022-10-01T08:43:08Z</time>
      </trkpt>
      <trkpt lat="47.12375" lon="7.29005">
        <ele>432.7</ele>
        <time>2022-10-01T08:43:09Z</time>
      </trkpt>
      <trkpt lat="47.12376" lon="7.29012">
        <ele>432.6</ele>
        <time>2022-10-01T08:43:10Z</time>
      </trkpt>
      <trkpt lat="47.12378" lon="7.29018">
        <ele>432.6</ele>
        <time>2022-10-01T08:43:11Z</time>
      </trkpt>
      <trkpt lat="47.1238" lon="7.29025">
        <ele>432.6</ele>
        <time>2022-10-01T08:43:12Z</time>
      </trkpt>
      <trkpt lat="47.1238" lon="7.29031">
        <ele>432.6</ele>
        <time>2022-10-01T08:43:13Z</time>
      </trkpt>
      <trkpt lat="47.12383" lon="7.29038">
        <ele>432.6</ele>
        <time>2022-10-01T08:43:14Z</time>
      </trkpt>
      <trkpt lat="47.12384" lon="7.29045">
        <ele>432.6</ele>
        <time>2022-10-01T08:43:15Z</time>
      </trkpt>
      <trkpt lat="47.12387" lon="7.29054">
        <ele>432.6</ele>
        <time>2022-10-01T08:43:16Z</time>
      </trkpt>
      <trkpt lat="47.12389" lon="7.29061">
        <ele>432.6</ele>
        <time>2022-10-01T08:43:17Z</time>
      </trkpt>
      <trkpt lat="47.12391" lon="7.29067">
        <ele>432.6</ele>
        <time>2022-10-01T08:43:18Z</time>
      </trkpt>
      <trkpt lat="47.12392" lon="7.29074">
        <ele>432.6</ele>
        <time>2022-10-01T08:43:19Z</time>
      </trkpt>
      <trkpt lat="47.12394" lon="7.29082">
        <ele>432.6</ele>
        <time>2022-10-01T08:43:20Z</time>
      </trkpt>
      <trkpt lat="47.12396" lon="7.29089">
        <ele>432.6</ele>
        <time>2022-10-01T08:43:21Z</time>
      </trkpt>
      <trkpt lat="47.12398" lon="7.29097">
        <ele>432.6</ele>
        <time>2022-10-01T08:43:22Z</time>
      </trkpt>
      <trkpt lat="47.124" lon="7.29104">
        <ele>432.5</ele>
        <time>2022-10-01T08:43:23Z</time>
      </trkpt>
      <trkpt lat="47.12402" lon="7.29111">
        <ele>432.5</ele>
        <time>2022-10-01T08:43:24Z</time>
      </trkpt>
      <trkpt lat="47.12403" lon="7.29118">
        <ele>432.5</ele>
        <time>2022-10-01T08:43:25Z</time>
      </trkpt>
      <trkpt lat="47.12405" lon="7.29126">
        <ele>432.5</ele>
        <time>2022-10-01T08:43:26Z</time>
      </trkpt>
      <trkpt lat="47.12406" lon="7.29132">
        <ele>432.5</ele>
        <time>2022-10-01T08:43:27Z</time>
      </trkpt>
      <trkpt lat="47.12408" lon="7.29139">
        <ele>432.5</ele>
        <time>2022-10-01T08:43:28Z</time>
      </trkpt>
      <trkpt lat="47.1241" lon="7.29146">
        <ele>432.5</ele>
        <time>2022-10-01T08:43:29Z</time>
      </trkpt>
      <trkpt lat="47.12412" lon="7.29154">
        <ele>432.5</ele>
        <time>2022-10-01T08:43:30Z</time>
      </trkpt>
      <trkpt lat="47.12414" lon="7.2916">
        <ele>432.5</ele>
        <time>2022-10-01T08:43:31Z</time>
      </trkpt>
      <trkpt lat="47.12416" lon="7.29166">
        <ele>432.5</ele>
        <time>2022-10-01T08:43:32Z</time>
      </trkpt>
      <trkpt lat="47.12418" lon="7.29173">
        <ele>432.5</ele>
        <time>2022-10-01T08:43:33Z</time>
      </trkpt>
      <trkpt lat="47.12419" lon="7.29181">
        <ele>432.4</ele>
        <time>2022-10-01T08:43:34Z</time>
      </trkpt>
      <trkpt lat="47.1242" lon="7.29186">
        <ele>432.4</ele>
        <time>2022-10-01T08:43:35Z</time>
      </trkpt>
      <trkpt lat="47.12423" lon="7.29192">
        <ele>432.4</ele>
        <time>2022-10-01T08:43:36Z</time>
      </trkpt>
      <trkpt lat="47.12425" lon="7.29198">
        <ele>432.4</ele>
        <time>2022-10-01T08:43:37Z</time>
      </trkpt>
      <trkpt lat="47.12427" lon="7.29205">
        <ele>432.4</ele>
        <time>2022-10-01T08:43:38Z</time>
      </trkpt>
      <trkpt lat="47.12428" lon="7.29212">
        <ele>432.3</ele>
        <time>2022-10-01T08:43:39Z</time>
      </trkpt>
      <trkpt lat="47.1243" lon="7.2922">
        <ele>432.3</ele>
        <time>2022-10-01T08:43:40Z</time>
      </trkpt>
      <trkpt lat="47.12432" lon="7.29227">
        <ele>432.2</ele>
        <time>2022-10-01T08:43:41Z</time>
      </trkpt>
      <trkpt lat="47.12433" lon="7.29233">
        <ele>432.2</ele>
        <time>2022-10-01T08:43:42Z</time>
      </trkpt>
      <trkpt lat="47.12434" lon="7.29238">
        <ele>432.2</ele>
        <time>2022-10-01T08:43:43Z</time>
      </trkpt>
      <trkpt lat="47.12437" lon="7.29245">
        <ele>432.1</ele>
        <time>2022-10-01T08:43:44Z</time>
      </trkpt>
      <trkpt lat="47.12439" lon="7.29252">
        <ele>432.1</ele>
        <time>2022-10-01T08:43:45Z</time>
      </trkpt>
      <trkpt lat="47.12441" lon="7.29258">
        <ele>432.1</ele>
        <time>2022-10-01T08:43:46Z</time>
      </trkpt>
      <trkpt lat="47.12444" lon="7.29266">
        <ele>432</ele>
        <time>2022-10-01T08:43:47Z</time>
      </trkpt>
      <trkpt lat="47.12446" lon="7.29273">
        <ele>432</ele>
        <time>2022-10-01T08:43:48Z</time>
      </trkpt>
      <trkpt lat="47.12448" lon="7.2928">
        <ele>431.9</ele>
        <time>2022-10-01T08:43:49Z</time>
      </trkpt>
      <trkpt lat="47.1245" lon="7.29287">
        <ele>431.9</ele>
        <time>2022-10-01T08:43:50Z</time>
      </trkpt>
      <trkpt lat="47.12452" lon="7.29293">
        <ele>431.8</ele>
        <time>2022-10-01T08:43:51Z</time>
      </trkpt>
      <trkpt lat="47.12455" lon="7.29301">
        <ele>431.8</ele>
        <time>2022-10-01T08:43:52Z</time>
      </trkpt>
      <trkpt lat="47.12457" lon="7.29308">
        <ele>431.7</ele>
        <time>2022-10-01T08:43:53Z</time>
      </trkpt>
      <trkpt lat="47.1246" lon="7.29315">
        <ele>431.7</ele>
        <time>2022-10-01T08:43:54Z</time>
      </trkpt>
      <trkpt lat="47.12461" lon="7.29321">
        <ele>431.7</ele>
        <time>2022-10-01T08:43:55Z</time>
      </trkpt>
      <trkpt lat="47.12464" lon="7.29328">
        <ele>431.7</ele>
        <time>2022-10-01T08:43:56Z</time>
      </trkpt>
      <trkpt lat="47.12466" lon="7.29334">
        <ele>431.7</ele>
        <time>2022-10-01T08:43:57Z</time>
      </trkpt>
      <trkpt lat="47.12468" lon="7.2934">
        <ele>431.6</ele>
        <time>2022-10-01T08:43:58Z</time>
      </trkpt>
      <trkpt lat="47.12471" lon="7.29347">
        <ele>431.6</ele>
        <time>2022-10-01T08:43:59Z</time>
      </trkpt>
      <trkpt lat="47.12473" lon="7.29354">
        <ele>431.6</ele>
        <time>2022-10-01T08:44:00Z</time>
      </trkpt>
      <trkpt lat="47.12475" lon="7.29361">
        <ele>431.6</ele>
        <time>2022-10-01T08:44:01Z</time>
      </trkpt>
      <trkpt lat="47.12478" lon="7.29367">
        <ele>431.6</ele>
        <time>2022-10-01T08:44:02Z</time>
      </trkpt>
      <trkpt lat="47.1248" lon="7.29374">
        <ele>431.6</ele>
        <time>2022-10-01T08:44:03Z</time>
      </trkpt>
      <trkpt lat="47.12482" lon="7.2938">
        <ele>431.6</ele>
        <time>2022-10-01T08:44:04Z</time>
      </trkpt>
      <trkpt lat="47.12485" lon="7.29387">
        <ele>431.5</ele>
        <time>2022-10-01T08:44:05Z</time>
      </trkpt>
      <trkpt lat="47.12487" lon="7.29393">
        <ele>431.5</ele>
        <time>2022-10-01T08:44:06Z</time>
      </trkpt>
      <trkpt lat="47.1249" lon="7.29399">
        <ele>431.5</ele>
        <time>2022-10-01T08:44:07Z</time>
      </trkpt>
      <trkpt lat="47.12491" lon="7.29405">
        <ele>431.5</ele>
        <time>2022-10-01T08:44:08Z</time>
      </trkpt>
      <trkpt lat="47.12493" lon="7.29411">
        <ele>431.5</ele>
        <time>2022-10-01T08:44:09Z</time>
      </trkpt>
      <trkpt lat="47.12496" lon="7.29417">
        <ele>431.5</ele>
        <time>2022-10-01T08:44:10Z</time>
      </trkpt>
      <trkpt lat="47.12497" lon="7.29422">
        <ele>431.5</ele>
        <time>2022-10-01T08:44:11Z</time>
      </trkpt>
      <trkpt lat="47.12499" lon="7.29427">
        <ele>431.5</ele>
        <time>2022-10-01T08:44:12Z</time>
      </trkpt>
      <trkpt lat="47.12501" lon="7.29432">
        <ele>431.5</ele>
        <time>2022-10-01T08:44:13Z</time>
      </trkpt>
      <trkpt lat="47.12502" lon="7.29436">
        <ele>431.5</ele>
        <time>2022-10-01T08:44:14Z</time>
      </trkpt>
      <trkpt lat="47.12505" lon="7.29442">
        <ele>431.5</ele>
        <time>2022-10-01T08:44:15Z</time>
      </trkpt>
      <trkpt lat="47.12506" lon="7.29444">
        <ele>431.5</ele>
        <time>2022-10-01T08:44:16Z</time>
      </trkpt>
      <trkpt lat="47.12508" lon="7.2945">
        <ele>431.4</ele>
        <time>2022-10-01T08:44:17Z</time>
      </trkpt>
      <trkpt lat="47.1251" lon="7.29455">
        <ele>431.4</ele>
        <time>2022-10-01T08:44:18Z</time>
      </trkpt>
      <trkpt lat="47.12512" lon="7.29462">
        <ele>431.3</ele>
        <time>2022-10-01T08:44:19Z</time>
      </trkpt>
      <trkpt lat="47.12515" lon="7.29468">
        <ele>431.2</ele>
        <time>2022-10-01T08:44:20Z</time>
      </trkpt>
      <trkpt lat="47.12518" lon="7.29474">
        <ele>431.2</ele>
        <time>2022-10-01T08:44:21Z</time>
      </trkpt>
      <trkpt lat="47.1252" lon="7.2948">
        <ele>431.2</ele>
        <time>2022-10-01T08:44:22Z</time>
      </trkpt>
      <trkpt lat="47.12522" lon="7.29487">
        <ele>431.2</ele>
        <time>2022-10-01T08:44:23Z</time>
      </trkpt>
      <trkpt lat="47.12525" lon="7.29492">
        <ele>431.2</ele>
        <time>2022-10-01T08:44:24Z</time>
      </trkpt>
      <trkpt lat="47.12528" lon="7.29499">
        <ele>431.2</ele>
        <time>2022-10-01T08:44:25Z</time>
      </trkpt>
      <trkpt lat="47.12531" lon="7.29506">
        <ele>431.2</ele>
        <time>2022-10-01T08:44:26Z</time>
      </trkpt>
      <trkpt lat="47.12533" lon="7.29513">
        <ele>431.2</ele>
        <time>2022-10-01T08:44:27Z</time>
      </trkpt>
      <trkpt lat="47.12536" lon="7.29519">
        <ele>431.2</ele>
        <time>2022-10-01T08:44:28Z</time>
      </trkpt>
      <trkpt lat="47.12539" lon="7.29526">
        <ele>431.2</ele>
        <time>2022-10-01T08:44:29Z</time>
      </trkpt>
      <trkpt lat="47.12542" lon="7.29533">
        <ele>431.2</ele>
        <time>2022-10-01T08:44:30Z</time>
      </trkpt>
      <trkpt lat="47.12545" lon="7.2954">
        <ele>431.2</ele>
        <time>2022-10-01T08:44:31Z</time>
      </trkpt>
      <trkpt lat="47.12548" lon="7.29546">
        <ele>431.2</ele>
        <time>2022-10-01T08:44:32Z</time>
      </trkpt>
      <trkpt lat="47.1255" lon="7.29552">
        <ele>431.2</ele>
        <time>2022-10-01T08:44:33Z</time>
      </trkpt>
      <trkpt lat="47.12553" lon="7.29558">
        <ele>431.2</ele>
        <time>2022-10-01T08:44:34Z</time>
      </trkpt>
      <trkpt lat="47.12556" lon="7.29564">
        <ele>431.2</ele>
        <time>2022-10-01T08:44:35Z</time>
      </trkpt>
      <trkpt lat="47.12559" lon="7.2957">
        <ele>431.3</ele>
        <time>2022-10-01T08:44:36Z</time>
      </trkpt>
      <trkpt lat="47.12562" lon="7.29577">
        <ele>431.3</ele>
        <time>2022-10-01T08:44:37Z</time>
      </trkpt>
      <trkpt lat="47.12564" lon="7.29583">
        <ele>431.3</ele>
        <time>2022-10-01T08:44:38Z</time>
      </trkpt>
      <trkpt lat="47.12567" lon="7.29589">
        <ele>431.4</ele>
        <time>2022-10-01T08:44:39Z</time>
      </trkpt>
      <trkpt lat="47.12569" lon="7.29595">
        <ele>431.4</ele>
        <time>2022-10-01T08:44:40Z</time>
      </trkpt>
      <trkpt lat="47.12571" lon="7.29601">
        <ele>431.4</ele>
        <time>2022-10-01T08:44:41Z</time>
      </trkpt>
      <trkpt lat="47.12573" lon="7.29607">
        <ele>431.4</ele>
        <time>2022-10-01T08:44:42Z</time>
      </trkpt>
      <trkpt lat="47.12577" lon="7.29612">
        <ele>431.5</ele>
        <time>2022-10-01T08:44:43Z</time>
      </trkpt>
      <trkpt lat="47.12581" lon="7.29618">
        <ele>431.5</ele>
        <time>2022-10-01T08:44:44Z</time>
      </trkpt>
      <trkpt lat="47.12583" lon="7.29624">
        <ele>431.5</ele>
        <time>2022-10-01T08:44:45Z</time>
      </trkpt>
      <trkpt lat="47.12585" lon="7.2963">
        <ele>431.5</ele>
        <time>2022-10-01T08:44:46Z</time>
      </trkpt>
      <trkpt lat="47.12589" lon="7.29635">
        <ele>431.5</ele>
        <time>2022-10-01T08:44:47Z</time>
      </trkpt>
      <trkpt lat="47.12591" lon="7.2964">
        <ele>431.6</ele>
        <time>2022-10-01T08:44:48Z</time>
      </trkpt>
      <trkpt lat="47.12594" lon="7.29646">
        <ele>431.6</ele>
        <time>2022-10-01T08:44:49Z</time>
      </trkpt>
      <trkpt lat="47.12597" lon="7.29651">
        <ele>431.6</ele>
        <time>2022-10-01T08:44:50Z</time>
      </trkpt>
      <trkpt lat="47.126" lon="7.29655">
        <ele>431.6</ele>
        <time>2022-10-01T08:44:51Z</time>
      </trkpt>
      <trkpt lat="47.12603" lon="7.2966">
        <ele>431.6</ele>
        <time>2022-10-01T08:44:52Z</time>
      </trkpt>
      <trkpt lat="47.12605" lon="7.29666">
        <ele>431.6</ele>
        <time>2022-10-01T08:44:53Z</time>
      </trkpt>
      <trkpt lat="47.12608" lon="7.29671">
        <ele>431.6</ele>
        <time>2022-10-01T08:44:54Z</time>
      </trkpt>
      <trkpt lat="47.12611" lon="7.29677">
        <ele>431.6</ele>
        <time>2022-10-01T08:44:55Z</time>
      </trkpt>
      <trkpt lat="47.12615" lon="7.29682">
        <ele>431.6</ele>
        <time>2022-10-01T08:44:56Z</time>
      </trkpt>
      <trkpt lat="47.12618" lon="7.29687">
        <ele>431.6</ele>
        <time>2022-10-01T08:44:57Z</time>
      </trkpt>
      <trkpt lat="47.1262" lon="7.29693">
        <ele>431.6</ele>
        <time>2022-10-01T08:44:58Z</time>
      </trkpt>
      <trkpt lat="47.12623" lon="7.29697">
        <ele>431.6</ele>
        <time>2022-10-01T08:44:59Z</time>
      </trkpt>
      <trkpt lat="47.12626" lon="7.29703">
        <ele>431.6</ele>
        <time>2022-10-01T08:45:00Z</time>
      </trkpt>
      <trkpt lat="47.12629" lon="7.29706">
        <ele>431.6</ele>
        <time>2022-10-01T08:45:01Z</time>
      </trkpt>
      <trkpt lat="47.12632" lon="7.29711">
        <ele>431.6</ele>
        <time>2022-10-01T08:45:02Z</time>
      </trkpt>
      <trkpt lat="47.12635" lon="7.29715">
        <ele>431.6</ele>
        <time>2022-10-01T08:45:03Z</time>
      </trkpt>
      <trkpt lat="47.12637" lon="7.2972">
        <ele>431.6</ele>
        <time>2022-10-01T08:45:04Z</time>
      </trkpt>
      <trkpt lat="47.12642" lon="7.29725">
        <ele>431.6</ele>
        <time>2022-10-01T08:45:05Z</time>
      </trkpt>
      <trkpt lat="47.12645" lon="7.2973">
        <ele>431.6</ele>
        <time>2022-10-01T08:45:06Z</time>
      </trkpt>
      <trkpt lat="47.12648" lon="7.29735">
        <ele>431.6</ele>
        <time>2022-10-01T08:45:07Z</time>
      </trkpt>
      <trkpt lat="47.12651" lon="7.29739">
        <ele>431.6</ele>
        <time>2022-10-01T08:45:08Z</time>
      </trkpt>
      <trkpt lat="47.12653" lon="7.29743">
        <ele>431.6</ele>
        <time>2022-10-01T08:45:09Z</time>
      </trkpt>
      <trkpt lat="47.12656" lon="7.29749">
        <ele>431.6</ele>
        <time>2022-10-01T08:45:10Z</time>
      </trkpt>
      <trkpt lat="47.12659" lon="7.29754">
        <ele>431.6</ele>
        <time>2022-10-01T08:45:11Z</time>
      </trkpt>
      <trkpt lat="47.12662" lon="7.29758">
        <ele>431.6</ele>
        <time>2022-10-01T08:45:12Z</time>
      </trkpt>
      <trkpt lat="47.12665" lon="7.29763">
        <ele>431.6</ele>
        <time>2022-10-01T08:45:13Z</time>
      </trkpt>
      <trkpt lat="47.12667" lon="7.29768">
        <ele>431.6</ele>
        <time>2022-10-01T08:45:14Z</time>
      </trkpt>
      <trkpt lat="47.12671" lon="7.29773">
        <ele>431.7</ele>
        <time>2022-10-01T08:45:15Z</time>
      </trkpt>
      <trkpt lat="47.12675" lon="7.29777">
        <ele>431.7</ele>
        <time>2022-10-01T08:45:16Z</time>
      </trkpt>
      <trkpt lat="47.12678" lon="7.29782">
        <ele>431.7</ele>
        <time>2022-10-01T08:45:17Z</time>
      </trkpt>
      <trkpt lat="47.12681" lon="7.29787">
        <ele>431.7</ele>
        <time>2022-10-01T08:45:18Z</time>
      </trkpt>
      <trkpt lat="47.12684" lon="7.29792">
        <ele>431.8</ele>
        <time>2022-10-01T08:45:19Z</time>
      </trkpt>
      <trkpt lat="47.12688" lon="7.29797">
        <ele>431.8</ele>
        <time>2022-10-01T08:45:20Z</time>
      </trkpt>
      <trkpt lat="47.12691" lon="7.29803">
        <ele>431.8</ele>
        <time>2022-10-01T08:45:21Z</time>
      </trkpt>
      <trkpt lat="47.12694" lon="7.29808">
        <ele>431.8</ele>
        <time>2022-10-01T08:45:22Z</time>
      </trkpt>
      <trkpt lat="47.12698" lon="7.29814">
        <ele>431.8</ele>
        <time>2022-10-01T08:45:23Z</time>
      </trkpt>
      <trkpt lat="47.12701" lon="7.29819">
        <ele>431.8</ele>
        <time>2022-10-01T08:45:24Z</time>
      </trkpt>
      <trkpt lat="47.12704" lon="7.29824">
        <ele>431.8</ele>
        <time>2022-10-01T08:45:25Z</time>
      </trkpt>
      <trkpt lat="47.12708" lon="7.29829">
        <ele>431.9</ele>
        <time>2022-10-01T08:45:26Z</time>
      </trkpt>
      <trkpt lat="47.12712" lon="7.29834">
        <ele>431.9</ele>
        <time>2022-10-01T08:45:27Z</time>
      </trkpt>
      <trkpt lat="47.12715" lon="7.29839">
        <ele>431.9</ele>
        <time>2022-10-01T08:45:28Z</time>
      </trkpt>
      <trkpt lat="47.12718" lon="7.29843">
        <ele>431.9</ele>
        <time>2022-10-01T08:45:29Z</time>
      </trkpt>
      <trkpt lat="47.12722" lon="7.29848">
        <ele>431.9</ele>
        <time>2022-10-01T08:45:30Z</time>
      </trkpt>
      <trkpt lat="47.12725" lon="7.29853">
        <ele>432</ele>
        <time>2022-10-01T08:45:31Z</time>
      </trkpt>
      <trkpt lat="47.12729" lon="7.29858">
        <ele>432</ele>
        <time>2022-10-01T08:45:32Z</time>
      </trkpt>
      <trkpt lat="47.12732" lon="7.29864">
        <ele>432</ele>
        <time>2022-10-01T08:45:33Z</time>
      </trkpt>
      <trkpt lat="47.12735" lon="7.29867">
        <ele>432</ele>
        <time>2022-10-01T08:45:34Z</time>
      </trkpt>
      <trkpt lat="47.12738" lon="7.29873">
        <ele>432</ele>
        <time>2022-10-01T08:45:35Z</time>
      </trkpt>
      <trkpt lat="47.12741" lon="7.29879">
        <ele>432</ele>
        <time>2022-10-01T08:45:36Z</time>
      </trkpt>
      <trkpt lat="47.12745" lon="7.29884">
        <ele>432</ele>
        <time>2022-10-01T08:45:37Z</time>
      </trkpt>
      <trkpt lat="47.12749" lon="7.29889">
        <ele>432</ele>
        <time>2022-10-01T08:45:38Z</time>
      </trkpt>
      <trkpt lat="47.12752" lon="7.29894">
        <ele>432</ele>
        <time>2022-10-01T08:45:39Z</time>
      </trkpt>
      <trkpt lat="47.12756" lon="7.29898">
        <ele>431.9</ele>
        <time>2022-10-01T08:45:40Z</time>
      </trkpt>
      <trkpt lat="47.12759" lon="7.29903">
        <ele>431.9</ele>
        <time>2022-10-01T08:45:41Z</time>
      </trkpt>
      <trkpt lat="47.12762" lon="7.29909">
        <ele>431.9</ele>
        <time>2022-10-01T08:45:42Z</time>
      </trkpt>
      <trkpt lat="47.12766" lon="7.29914">
        <ele>431.9</ele>
        <time>2022-10-01T08:45:43Z</time>
      </trkpt>
      <trkpt lat="47.1277" lon="7.29919">
        <ele>431.9</ele>
        <time>2022-10-01T08:45:44Z</time>
      </trkpt>
      <trkpt lat="47.12773" lon="7.29925">
        <ele>431.9</ele>
        <time>2022-10-01T08:45:45Z</time>
      </trkpt>
      <trkpt lat="47.12777" lon="7.29929">
        <ele>431.9</ele>
        <time>2022-10-01T08:45:46Z</time>
      </trkpt>
      <trkpt lat="47.1278" lon="7.29936">
        <ele>431.9</ele>
        <time>2022-10-01T08:45:47Z</time>
      </trkpt>
      <trkpt lat="47.12783" lon="7.29941">
        <ele>431.9</ele>
        <time>2022-10-01T08:45:48Z</time>
      </trkpt>
      <trkpt lat="47.12786" lon="7.29947">
        <ele>431.8</ele>
        <time>2022-10-01T08:45:49Z</time>
      </trkpt>
      <trkpt lat="47.1279" lon="7.29951">
        <ele>431.8</ele>
        <time>2022-10-01T08:45:50Z</time>
      </trkpt>
      <trkpt lat="47.12794" lon="7.29956">
        <ele>431.8</ele>
        <time>2022-10-01T08:45:51Z</time>
      </trkpt>
      <trkpt lat="47.12797" lon="7.2996">
        <ele>431.8</ele>
        <time>2022-10-01T08:45:52Z</time>
      </trkpt>
      <trkpt lat="47.12801" lon="7.29965">
        <ele>431.8</ele>
        <time>2022-10-01T08:45:53Z</time>
      </trkpt>
      <trkpt lat="47.12804" lon="7.2997">
        <ele>431.8</ele>
        <time>2022-10-01T08:45:54Z</time>
      </trkpt>
      <trkpt lat="47.12808" lon="7.29974">
        <ele>431.8</ele>
        <time>2022-10-01T08:45:55Z</time>
      </trkpt>
      <trkpt lat="47.12813" lon="7.29978">
        <ele>431.8</ele>
        <time>2022-10-01T08:45:56Z</time>
      </trkpt>
      <trkpt lat="47.12816" lon="7.29984">
        <ele>431.8</ele>
        <time>2022-10-01T08:45:57Z</time>
      </trkpt>
      <trkpt lat="47.1282" lon="7.29989">
        <ele>431.8</ele>
        <time>2022-10-01T08:45:58Z</time>
      </trkpt>
      <trkpt lat="47.12824" lon="7.29994">
        <ele>431.8</ele>
        <time>2022-10-01T08:45:59Z</time>
      </trkpt>
      <trkpt lat="47.12827" lon="7.3">
        <ele>431.7</ele>
        <time>2022-10-01T08:46:00Z</time>
      </trkpt>
      <trkpt lat="47.1283" lon="7.30004">
        <ele>431.7</ele>
        <time>2022-10-01T08:46:01Z</time>
      </trkpt>
      <trkpt lat="47.12833" lon="7.30007">
        <ele>431.7</ele>
        <time>2022-10-01T08:46:02Z</time>
      </trkpt>
      <trkpt lat="47.12837" lon="7.30012">
        <ele>431.7</ele>
        <time>2022-10-01T08:46:03Z</time>
      </trkpt>
      <trkpt lat="47.12841" lon="7.30017">
        <ele>431.7</ele>
        <time>2022-10-01T08:46:04Z</time>
      </trkpt>
      <trkpt lat="47.12844" lon="7.30022">
        <ele>431.7</ele>
        <time>2022-10-01T08:46:05Z</time>
      </trkpt>
      <trkpt lat="47.12848" lon="7.30028">
        <ele>431.7</ele>
        <time>2022-10-01T08:46:06Z</time>
      </trkpt>
      <trkpt lat="47.1285" lon="7.30032">
        <ele>431.6</ele>
        <time>2022-10-01T08:46:07Z</time>
      </trkpt>
      <trkpt lat="47.12854" lon="7.30037">
        <ele>431.6</ele>
        <time>2022-10-01T08:46:08Z</time>
      </trkpt>
      <trkpt lat="47.12858" lon="7.30042">
        <ele>431.6</ele>
        <time>2022-10-01T08:46:09Z</time>
      </trkpt>
      <trkpt lat="47.12861" lon="7.30048">
        <ele>431.5</ele>
        <time>2022-10-01T08:46:10Z</time>
      </trkpt>
      <trkpt lat="47.12865" lon="7.30052">
        <ele>431.5</ele>
        <time>2022-10-01T08:46:11Z</time>
      </trkpt>
      <trkpt lat="47.12868" lon="7.30058">
        <ele>431.4</ele>
        <time>2022-10-01T08:46:12Z</time>
      </trkpt>
      <trkpt lat="47.12872" lon="7.30063">
        <ele>431.3</ele>
        <time>2022-10-01T08:46:13Z</time>
      </trkpt>
      <trkpt lat="47.12876" lon="7.30068">
        <ele>431.3</ele>
        <time>2022-10-01T08:46:14Z</time>
      </trkpt>
      <trkpt lat="47.1288" lon="7.30074">
        <ele>431.2</ele>
        <time>2022-10-01T08:46:15Z</time>
      </trkpt>
      <trkpt lat="47.12883" lon="7.30079">
        <ele>431.2</ele>
        <time>2022-10-01T08:46:16Z</time>
      </trkpt>
      <trkpt lat="47.12888" lon="7.30084">
        <ele>431.1</ele>
        <time>2022-10-01T08:46:17Z</time>
      </trkpt>
      <trkpt lat="47.12891" lon="7.30089">
        <ele>431.1</ele>
        <time>2022-10-01T08:46:18Z</time>
      </trkpt>
      <trkpt lat="47.12894" lon="7.30095">
        <ele>431</ele>
        <time>2022-10-01T08:46:19Z</time>
      </trkpt>
      <trkpt lat="47.12898" lon="7.30099">
        <ele>431</ele>
        <time>2022-10-01T08:46:20Z</time>
      </trkpt>
      <trkpt lat="47.12901" lon="7.30104">
        <ele>430.9</ele>
        <time>2022-10-01T08:46:21Z</time>
      </trkpt>
      <trkpt lat="47.12905" lon="7.3011">
        <ele>430.9</ele>
        <time>2022-10-01T08:46:22Z</time>
      </trkpt>
      <trkpt lat="47.12909" lon="7.30116">
        <ele>430.8</ele>
        <time>2022-10-01T08:46:23Z</time>
      </trkpt>
      <trkpt lat="47.12913" lon="7.30122">
        <ele>430.8</ele>
        <time>2022-10-01T08:46:24Z</time>
      </trkpt>
      <trkpt lat="47.12916" lon="7.30126">
        <ele>430.8</ele>
        <time>2022-10-01T08:46:25Z</time>
      </trkpt>
      <trkpt lat="47.1292" lon="7.30131">
        <ele>430.8</ele>
        <time>2022-10-01T08:46:26Z</time>
      </trkpt>
      <trkpt lat="47.12923" lon="7.30137">
        <ele>430.7</ele>
        <time>2022-10-01T08:46:27Z</time>
      </trkpt>
      <trkpt lat="47.12927" lon="7.30142">
        <ele>430.7</ele>
        <time>2022-10-01T08:46:28Z</time>
      </trkpt>
      <trkpt lat="47.12931" lon="7.30147">
        <ele>430.7</ele>
        <time>2022-10-01T08:46:29Z</time>
      </trkpt>
      <trkpt lat="47.12935" lon="7.30152">
        <ele>430.6</ele>
        <time>2022-10-01T08:46:30Z</time>
      </trkpt>
      <trkpt lat="47.12938" lon="7.30157">
        <ele>430.6</ele>
        <time>2022-10-01T08:46:31Z</time>
      </trkpt>
      <trkpt lat="47.12942" lon="7.30162">
        <ele>430.6</ele>
        <time>2022-10-01T08:46:32Z</time>
      </trkpt>
      <trkpt lat="47.12946" lon="7.30168">
        <ele>430.5</ele>
        <time>2022-10-01T08:46:33Z</time>
      </trkpt>
      <trkpt lat="47.12949" lon="7.30173">
        <ele>430.5</ele>
        <time>2022-10-01T08:46:34Z</time>
      </trkpt>
      <trkpt lat="47.12954" lon="7.30177">
        <ele>430.5</ele>
        <time>2022-10-01T08:46:35Z</time>
      </trkpt>
      <trkpt lat="47.12957" lon="7.30183">
        <ele>430.4</ele>
        <time>2022-10-01T08:46:36Z</time>
      </trkpt>
      <trkpt lat="47.12961" lon="7.30187">
        <ele>430.4</ele>
        <time>2022-10-01T08:46:37Z</time>
      </trkpt>
      <trkpt lat="47.12964" lon="7.30194">
        <ele>430.4</ele>
        <time>2022-10-01T08:46:38Z</time>
      </trkpt>
      <trkpt lat="47.12967" lon="7.30197">
        <ele>430.4</ele>
        <time>2022-10-01T08:46:39Z</time>
      </trkpt>
      <trkpt lat="47.12971" lon="7.30201">
        <ele>430.4</ele>
        <time>2022-10-01T08:46:40Z</time>
      </trkpt>
      <trkpt lat="47.12974" lon="7.30207">
        <ele>430.5</ele>
        <time>2022-10-01T08:46:41Z</time>
      </trkpt>
      <trkpt lat="47.12977" lon="7.30213">
        <ele>430.5</ele>
        <time>2022-10-01T08:46:42Z</time>
      </trkpt>
      <trkpt lat="47.12981" lon="7.30218">
        <ele>430.5</ele>
        <time>2022-10-01T08:46:43Z</time>
      </trkpt>
      <trkpt lat="47.12984" lon="7.30222">
        <ele>430.5</ele>
        <time>2022-10-01T08:46:44Z</time>
      </trkpt>
      <trkpt lat="47.12988" lon="7.30227">
        <ele>430.5</ele>
        <time>2022-10-01T08:46:45Z</time>
      </trkpt>
      <trkpt lat="47.12991" lon="7.3023">
        <ele>430.6</ele>
        <time>2022-10-01T08:46:46Z</time>
      </trkpt>
      <trkpt lat="47.12994" lon="7.30236">
        <ele>430.6</ele>
        <time>2022-10-01T08:46:47Z</time>
      </trkpt>
      <trkpt lat="47.12998" lon="7.3024">
        <ele>430.6</ele>
        <time>2022-10-01T08:46:48Z</time>
      </trkpt>
      <trkpt lat="47.13" lon="7.30245">
        <ele>430.6</ele>
        <time>2022-10-01T08:46:49Z</time>
      </trkpt>
      <trkpt lat="47.13004" lon="7.3025">
        <ele>430.6</ele>
        <time>2022-10-01T08:46:50Z</time>
      </trkpt>
      <trkpt lat="47.13007" lon="7.30255">
        <ele>430.6</ele>
        <time>2022-10-01T08:46:51Z</time>
      </trkpt>
      <trkpt lat="47.1301" lon="7.30259">
        <ele>430.7</ele>
        <time>2022-10-01T08:46:52Z</time>
      </trkpt>
      <trkpt lat="47.13013" lon="7.30264">
        <ele>430.7</ele>
        <time>2022-10-01T08:46:53Z</time>
      </trkpt>
      <trkpt lat="47.13017" lon="7.30269">
        <ele>430.7</ele>
        <time>2022-10-01T08:46:54Z</time>
      </trkpt>
      <trkpt lat="47.1302" lon="7.30274">
        <ele>430.7</ele>
        <time>2022-10-01T08:46:55Z</time>
      </trkpt>
      <trkpt lat="47.13024" lon="7.3028">
        <ele>430.7</ele>
        <time>2022-10-01T08:46:56Z</time>
      </trkpt>
      <trkpt lat="47.13027" lon="7.30285">
        <ele>430.7</ele>
        <time>2022-10-01T08:46:57Z</time>
      </trkpt>
      <trkpt lat="47.1303" lon="7.3029">
        <ele>430.8</ele>
        <time>2022-10-01T08:46:58Z</time>
      </trkpt>
      <trkpt lat="47.13034" lon="7.30294">
        <ele>430.8</ele>
        <time>2022-10-01T08:46:59Z</time>
      </trkpt>
      <trkpt lat="47.13037" lon="7.303">
        <ele>430.8</ele>
        <time>2022-10-01T08:47:00Z</time>
      </trkpt>
      <trkpt lat="47.1304" lon="7.30305">
        <ele>430.8</ele>
        <time>2022-10-01T08:47:01Z</time>
      </trkpt>
      <trkpt lat="47.13044" lon="7.3031">
        <ele>430.8</ele>
        <time>2022-10-01T08:47:02Z</time>
      </trkpt>
      <trkpt lat="47.13047" lon="7.30315">
        <ele>430.8</ele>
        <time>2022-10-01T08:47:03Z</time>
      </trkpt>
      <trkpt lat="47.1305" lon="7.3032">
        <ele>430.8</ele>
        <time>2022-10-01T08:47:04Z</time>
      </trkpt>
      <trkpt lat="47.13054" lon="7.30325">
        <ele>430.8</ele>
        <time>2022-10-01T08:47:05Z</time>
      </trkpt>
      <trkpt lat="47.13057" lon="7.3033">
        <ele>430.8</ele>
        <time>2022-10-01T08:47:06Z</time>
      </trkpt>
      <trkpt lat="47.13059" lon="7.30335">
        <ele>430.8</ele>
        <time>2022-10-01T08:47:07Z</time>
      </trkpt>
      <trkpt lat="47.13063" lon="7.30339">
        <ele>430.7</ele>
        <time>2022-10-01T08:47:08Z</time>
      </trkpt>
      <trkpt lat="47.13066" lon="7.30344">
        <ele>430.7</ele>
        <time>2022-10-01T08:47:09Z</time>
      </trkpt>
      <trkpt lat="47.13069" lon="7.30349">
        <ele>430.7</ele>
        <time>2022-10-01T08:47:10Z</time>
      </trkpt>
      <trkpt lat="47.13073" lon="7.30353">
        <ele>430.7</ele>
        <time>2022-10-01T08:47:11Z</time>
      </trkpt>
      <trkpt lat="47.13076" lon="7.30358">
        <ele>430.7</ele>
        <time>2022-10-01T08:47:12Z</time>
      </trkpt>
      <trkpt lat="47.1308" lon="7.30363">
        <ele>430.6</ele>
        <time>2022-10-01T08:47:13Z</time>
      </trkpt>
      <trkpt lat="47.13083" lon="7.30368">
        <ele>430.6</ele>
        <time>2022-10-01T08:47:14Z</time>
      </trkpt>
      <trkpt lat="47.13087" lon="7.30374">
        <ele>430.6</ele>
        <time>2022-10-01T08:47:15Z</time>
      </trkpt>
      <trkpt lat="47.1309" lon="7.30379">
        <ele>430.6</ele>
        <time>2022-10-01T08:47:16Z</time>
      </trkpt>
      <trkpt lat="47.13093" lon="7.30384">
        <ele>430.6</ele>
        <time>2022-10-01T08:47:17Z</time>
      </trkpt>
      <trkpt lat="47.13097" lon="7.3039">
        <ele>430.6</ele>
        <time>2022-10-01T08:47:18Z</time>
      </trkpt>
      <trkpt lat="47.131" lon="7.30394">
        <ele>430.6</ele>
        <time>2022-10-01T08:47:19Z</time>
      </trkpt>
      <trkpt lat="47.13104" lon="7.30399">
        <ele>430.6</ele>
        <time>2022-10-01T08:47:20Z</time>
      </trkpt>
      <trkpt lat="47.13107" lon="7.30403">
        <ele>430.6</ele>
        <time>2022-10-01T08:47:21Z</time>
      </trkpt>
      <trkpt lat="47.1311" lon="7.30408">
        <ele>430.6</ele>
        <time>2022-10-01T08:47:22Z</time>
      </trkpt>
      <trkpt lat="47.13113" lon="7.30413">
        <ele>430.6</ele>
        <time>2022-10-01T08:47:23Z</time>
      </trkpt>
      <trkpt lat="47.13116" lon="7.30418">
        <ele>430.6</ele>
        <time>2022-10-01T08:47:24Z</time>
      </trkpt>
      <trkpt lat="47.1312" lon="7.30423">
        <ele>430.7</ele>
        <time>2022-10-01T08:47:25Z</time>
      </trkpt>
      <trkpt lat="47.13123" lon="7.30427">
        <ele>430.7</ele>
        <time>2022-10-01T08:47:26Z</time>
      </trkpt>
      <trkpt lat="47.13126" lon="7.30432">
        <ele>430.8</ele>
        <time>2022-10-01T08:47:27Z</time>
      </trkpt>
      <trkpt lat="47.1313" lon="7.30437">
        <ele>430.8</ele>
        <time>2022-10-01T08:47:28Z</time>
      </trkpt>
      <trkpt lat="47.13133" lon="7.30442">
        <ele>430.9</ele>
        <time>2022-10-01T08:47:29Z</time>
      </trkpt>
      <trkpt lat="47.13136" lon="7.30446">
        <ele>430.9</ele>
        <time>2022-10-01T08:47:30Z</time>
      </trkpt>
      <trkpt lat="47.13139" lon="7.30451">
        <ele>431</ele>
        <time>2022-10-01T08:47:31Z</time>
      </trkpt>
      <trkpt lat="47.13142" lon="7.30457">
        <ele>431</ele>
        <time>2022-10-01T08:47:32Z</time>
      </trkpt>
      <trkpt lat="47.13146" lon="7.30461">
        <ele>431</ele>
        <time>2022-10-01T08:47:33Z</time>
      </trkpt>
      <trkpt lat="47.13148" lon="7.30466">
        <ele>431.1</ele>
        <time>2022-10-01T08:47:34Z</time>
      </trkpt>
      <trkpt lat="47.13152" lon="7.30471">
        <ele>431.1</ele>
        <time>2022-10-01T08:47:35Z</time>
      </trkpt>
      <trkpt lat="47.13156" lon="7.30476">
        <ele>431.1</ele>
        <time>2022-10-01T08:47:36Z</time>
      </trkpt>
      <trkpt lat="47.13159" lon="7.30481">
        <ele>431.1</ele>
        <time>2022-10-01T08:47:37Z</time>
      </trkpt>
      <trkpt lat="47.13162" lon="7.30485">
        <ele>431.1</ele>
        <time>2022-10-01T08:47:38Z</time>
      </trkpt>
      <trkpt lat="47.13166" lon="7.3049">
        <ele>431.2</ele>
        <time>2022-10-01T08:47:39Z</time>
      </trkpt>
      <trkpt lat="47.1317" lon="7.30496">
        <ele>431.2</ele>
        <time>2022-10-01T08:47:40Z</time>
      </trkpt>
      <trkpt lat="47.13173" lon="7.30501">
        <ele>431.2</ele>
        <time>2022-10-01T08:47:41Z</time>
      </trkpt>
      <trkpt lat="47.13176" lon="7.30506">
        <ele>431.2</ele>
        <time>2022-10-01T08:47:42Z</time>
      </trkpt>
      <trkpt lat="47.1318" lon="7.30511">
        <ele>431.2</ele>
        <time>2022-10-01T08:47:43Z</time>
      </trkpt>
      <trkpt lat="47.13184" lon="7.30515">
        <ele>431.2</ele>
        <time>2022-10-01T08:47:44Z</time>
      </trkpt>
      <trkpt lat="47.13187" lon="7.3052">
        <ele>431.2</ele>
        <time>2022-10-01T08:47:45Z</time>
      </trkpt>
      <trkpt lat="47.13191" lon="7.30525">
        <ele>431.2</ele>
        <time>2022-10-01T08:47:46Z</time>
      </trkpt>
      <trkpt lat="47.13195" lon="7.3053">
        <ele>431.2</ele>
        <time>2022-10-01T08:47:47Z</time>
      </trkpt>
      <trkpt lat="47.13198" lon="7.30535">
        <ele>431.2</ele>
        <time>2022-10-01T08:47:48Z</time>
      </trkpt>
      <trkpt lat="47.13202" lon="7.3054">
        <ele>431.2</ele>
        <time>2022-10-01T08:47:49Z</time>
      </trkpt>
      <trkpt lat="47.13205" lon="7.30545">
        <ele>431.2</ele>
        <time>2022-10-01T08:47:50Z</time>
      </trkpt>
      <trkpt lat="47.13209" lon="7.30551">
        <ele>431.2</ele>
        <time>2022-10-01T08:47:51Z</time>
      </trkpt>
      <trkpt lat="47.13213" lon="7.30556">
        <ele>431.2</ele>
        <time>2022-10-01T08:47:52Z</time>
      </trkpt>
      <trkpt lat="47.13217" lon="7.30562">
        <ele>431.2</ele>
        <time>2022-10-01T08:47:53Z</time>
      </trkpt>
      <trkpt lat="47.1322" lon="7.30567">
        <ele>431.2</ele>
        <time>2022-10-01T08:47:54Z</time>
      </trkpt>
      <trkpt lat="47.13224" lon="7.30572">
        <ele>431.2</ele>
        <time>2022-10-01T08:47:55Z</time>
      </trkpt>
      <trkpt lat="47.13228" lon="7.30577">
        <ele>431.2</ele>
        <time>2022-10-01T08:47:56Z</time>
      </trkpt>
      <trkpt lat="47.13232" lon="7.30582">
        <ele>431.2</ele>
        <time>2022-10-01T08:47:57Z</time>
      </trkpt>
      <trkpt lat="47.13235" lon="7.30588">
        <ele>431.2</ele>
        <time>2022-10-01T08:47:58Z</time>
      </trkpt>
      <trkpt lat="47.13238" lon="7.30593">
        <ele>431.2</ele>
        <time>2022-10-01T08:47:59Z</time>
      </trkpt>
      <trkpt lat="47.13242" lon="7.30599">
        <ele>431.3</ele>
        <time>2022-10-01T08:48:00Z</time>
      </trkpt>
      <trkpt lat="47.13245" lon="7.30604">
        <ele>431.3</ele>
        <time>2022-10-01T08:48:01Z</time>
      </trkpt>
      <trkpt lat="47.13249" lon="7.30609">
        <ele>431.3</ele>
        <time>2022-10-01T08:48:02Z</time>
      </trkpt>
      <trkpt lat="47.13252" lon="7.30614">
        <ele>431.3</ele>
        <time>2022-10-01T08:48:03Z</time>
      </trkpt>
      <trkpt lat="47.13255" lon="7.30618">
        <ele>431.3</ele>
        <time>2022-10-01T08:48:04Z</time>
      </trkpt>
      <trkpt lat="47.13258" lon="7.30623">
        <ele>431.3</ele>
        <time>2022-10-01T08:48:05Z</time>
      </trkpt>
      <trkpt lat="47.13262" lon="7.30628">
        <ele>431.3</ele>
        <time>2022-10-01T08:48:06Z</time>
      </trkpt>
      <trkpt lat="47.13266" lon="7.30633">
        <ele>431.3</ele>
        <time>2022-10-01T08:48:07Z</time>
      </trkpt>
      <trkpt lat="47.13269" lon="7.30639">
        <ele>431.3</ele>
        <time>2022-10-01T08:48:08Z</time>
      </trkpt>
      <trkpt lat="47.13273" lon="7.30644">
        <ele>431.3</ele>
        <time>2022-10-01T08:48:09Z</time>
      </trkpt>
      <trkpt lat="47.13277" lon="7.30649">
        <ele>431.3</ele>
        <time>2022-10-01T08:48:10Z</time>
      </trkpt>
      <trkpt lat="47.1328" lon="7.30654">
        <ele>431.4</ele>
        <time>2022-10-01T08:48:11Z</time>
      </trkpt>
      <trkpt lat="47.13284" lon="7.30659">
        <ele>431.4</ele>
        <time>2022-10-01T08:48:12Z</time>
      </trkpt>
      <trkpt lat="47.13287" lon="7.30663">
        <ele>431.4</ele>
        <time>2022-10-01T08:48:13Z</time>
      </trkpt>
      <trkpt lat="47.1329" lon="7.30668">
        <ele>431.4</ele>
        <time>2022-10-01T08:48:14Z</time>
      </trkpt>
      <trkpt lat="47.13294" lon="7.30672">
        <ele>431.4</ele>
        <time>2022-10-01T08:48:15Z</time>
      </trkpt>
      <trkpt lat="47.13297" lon="7.30677">
        <ele>431.4</ele>
        <time>2022-10-01T08:48:16Z</time>
      </trkpt>
      <trkpt lat="47.133" lon="7.30682">
        <ele>431.4</ele>
        <time>2022-10-01T08:48:17Z</time>
      </trkpt>
      <trkpt lat="47.13304" lon="7.30687">
        <ele>431.3</ele>
        <time>2022-10-01T08:48:18Z</time>
      </trkpt>
      <trkpt lat="47.13307" lon="7.30692">
        <ele>431.3</ele>
        <time>2022-10-01T08:48:19Z</time>
      </trkpt>
      <trkpt lat="47.13311" lon="7.30697">
        <ele>431.3</ele>
        <time>2022-10-01T08:48:20Z</time>
      </trkpt>
      <trkpt lat="47.13314" lon="7.30703">
        <ele>431.3</ele>
        <time>2022-10-01T08:48:21Z</time>
      </trkpt>
      <trkpt lat="47.13317" lon="7.30708">
        <ele>431.3</ele>
        <time>2022-10-01T08:48:22Z</time>
      </trkpt>
      <trkpt lat="47.13321" lon="7.30713">
        <ele>431.2</ele>
        <time>2022-10-01T08:48:23Z</time>
      </trkpt>
      <trkpt lat="47.13324" lon="7.30718">
        <ele>431.2</ele>
        <time>2022-10-01T08:48:24Z</time>
      </trkpt>
      <trkpt lat="47.13328" lon="7.30724">
        <ele>431.2</ele>
        <time>2022-10-01T08:48:25Z</time>
      </trkpt>
      <trkpt lat="47.13332" lon="7.3073">
        <ele>431.2</ele>
        <time>2022-10-01T08:48:26Z</time>
      </trkpt>
      <trkpt lat="47.13336" lon="7.30735">
        <ele>431.2</ele>
        <time>2022-10-01T08:48:27Z</time>
      </trkpt>
      <trkpt lat="47.13339" lon="7.3074">
        <ele>431.2</ele>
        <time>2022-10-01T08:48:28Z</time>
      </trkpt>
      <trkpt lat="47.13342" lon="7.30745">
        <ele>431.2</ele>
        <time>2022-10-01T08:48:29Z</time>
      </trkpt>
      <trkpt lat="47.13345" lon="7.3075">
        <ele>431.2</ele>
        <time>2022-10-01T08:48:30Z</time>
      </trkpt>
      <trkpt lat="47.13349" lon="7.30757">
        <ele>431.2</ele>
        <time>2022-10-01T08:48:31Z</time>
      </trkpt>
      <trkpt lat="47.13352" lon="7.30762">
        <ele>431.2</ele>
        <time>2022-10-01T08:48:32Z</time>
      </trkpt>
      <trkpt lat="47.13356" lon="7.30768">
        <ele>431.2</ele>
        <time>2022-10-01T08:48:33Z</time>
      </trkpt>
      <trkpt lat="47.13359" lon="7.30773">
        <ele>431.1</ele>
        <time>2022-10-01T08:48:34Z</time>
      </trkpt>
      <trkpt lat="47.13363" lon="7.30778">
        <ele>431.1</ele>
        <time>2022-10-01T08:48:35Z</time>
      </trkpt>
      <trkpt lat="47.13365" lon="7.30783">
        <ele>431.1</ele>
        <time>2022-10-01T08:48:36Z</time>
      </trkpt>
      <trkpt lat="47.13368" lon="7.30789">
        <ele>431.1</ele>
        <time>2022-10-01T08:48:37Z</time>
      </trkpt>
      <trkpt lat="47.13371" lon="7.30795">
        <ele>431.1</ele>
        <time>2022-10-01T08:48:38Z</time>
      </trkpt>
      <trkpt lat="47.13374" lon="7.30799">
        <ele>431.1</ele>
        <time>2022-10-01T08:48:39Z</time>
      </trkpt>
      <trkpt lat="47.13377" lon="7.30806">
        <ele>431.1</ele>
        <time>2022-10-01T08:48:40Z</time>
      </trkpt>
      <trkpt lat="47.1338" lon="7.30812">
        <ele>431.1</ele>
        <time>2022-10-01T08:48:41Z</time>
      </trkpt>
      <trkpt lat="47.13383" lon="7.30817">
        <ele>431.1</ele>
        <time>2022-10-01T08:48:42Z</time>
      </trkpt>
      <trkpt lat="47.13386" lon="7.30823">
        <ele>431.2</ele>
        <time>2022-10-01T08:48:43Z</time>
      </trkpt>
      <trkpt lat="47.13389" lon="7.30828">
        <ele>431.2</ele>
        <time>2022-10-01T08:48:44Z</time>
      </trkpt>
      <trkpt lat="47.13391" lon="7.30835">
        <ele>431.2</ele>
        <time>2022-10-01T08:48:45Z</time>
      </trkpt>
      <trkpt lat="47.13394" lon="7.3084">
        <ele>431.2</ele>
        <time>2022-10-01T08:48:46Z</time>
      </trkpt>
      <trkpt lat="47.13397" lon="7.30846">
        <ele>431.2</ele>
        <time>2022-10-01T08:48:47Z</time>
      </trkpt>
      <trkpt lat="47.134" lon="7.30853">
        <ele>431.1</ele>
        <time>2022-10-01T08:48:48Z</time>
      </trkpt>
      <trkpt lat="47.13404" lon="7.30859">
        <ele>431.1</ele>
        <time>2022-10-01T08:48:49Z</time>
      </trkpt>
      <trkpt lat="47.13406" lon="7.30865">
        <ele>431.1</ele>
        <time>2022-10-01T08:48:50Z</time>
      </trkpt>
      <trkpt lat="47.13409" lon="7.30872">
        <ele>431.1</ele>
        <time>2022-10-01T08:48:51Z</time>
      </trkpt>
      <trkpt lat="47.13412" lon="7.30878">
        <ele>431.1</ele>
        <time>2022-10-01T08:48:52Z</time>
      </trkpt>
      <trkpt lat="47.13415" lon="7.30885">
        <ele>431.1</ele>
        <time>2022-10-01T08:48:53Z</time>
      </trkpt>
      <trkpt lat="47.13418" lon="7.30892">
        <ele>431.1</ele>
        <time>2022-10-01T08:48:54Z</time>
      </trkpt>
      <trkpt lat="47.1342" lon="7.30899">
        <ele>431.1</ele>
        <time>2022-10-01T08:48:55Z</time>
      </trkpt>
      <trkpt lat="47.13423" lon="7.30905">
        <ele>431.1</ele>
        <time>2022-10-01T08:48:56Z</time>
      </trkpt>
      <trkpt lat="47.13426" lon="7.30912">
        <ele>431.1</ele>
        <time>2022-10-01T08:48:57Z</time>
      </trkpt>
      <trkpt lat="47.13429" lon="7.30919">
        <ele>431.2</ele>
        <time>2022-10-01T08:48:58Z</time>
      </trkpt>
      <trkpt lat="47.13432" lon="7.30926">
        <ele>431.2</ele>
        <time>2022-10-01T08:48:59Z</time>
      </trkpt>
      <trkpt lat="47.13435" lon="7.30932">
        <ele>431.2</ele>
        <time>2022-10-01T08:49:00Z</time>
      </trkpt>
      <trkpt lat="47.13438" lon="7.30939">
        <ele>431.2</ele>
        <time>2022-10-01T08:49:01Z</time>
      </trkpt>
      <trkpt lat="47.1344" lon="7.30946">
        <ele>431.2</ele>
        <time>2022-10-01T08:49:02Z</time>
      </trkpt>
      <trkpt lat="47.13444" lon="7.30953">
        <ele>431.2</ele>
        <time>2022-10-01T08:49:03Z</time>
      </trkpt>
      <trkpt lat="47.13446" lon="7.3096">
        <ele>431.2</ele>
        <time>2022-10-01T08:49:04Z</time>
      </trkpt>
      <trkpt lat="47.13449" lon="7.30967">
        <ele>431.2</ele>
        <time>2022-10-01T08:49:05Z</time>
      </trkpt>
      <trkpt lat="47.13451" lon="7.30974">
        <ele>431.2</ele>
        <time>2022-10-01T08:49:06Z</time>
      </trkpt>
      <trkpt lat="47.13453" lon="7.30981">
        <ele>431.2</ele>
        <time>2022-10-01T08:49:07Z</time>
      </trkpt>
      <trkpt lat="47.13456" lon="7.30988">
        <ele>431.3</ele>
        <time>2022-10-01T08:49:08Z</time>
      </trkpt>
      <trkpt lat="47.13458" lon="7.30995">
        <ele>431.3</ele>
        <time>2022-10-01T08:49:09Z</time>
      </trkpt>
      <trkpt lat="47.13461" lon="7.31001">
        <ele>431.3</ele>
        <time>2022-10-01T08:49:10Z</time>
      </trkpt>
      <trkpt lat="47.13463" lon="7.31006">
        <ele>431.4</ele>
        <time>2022-10-01T08:49:11Z</time>
      </trkpt>
      <trkpt lat="47.13465" lon="7.31013">
        <ele>431.4</ele>
        <time>2022-10-01T08:49:12Z</time>
      </trkpt>
      <trkpt lat="47.13467" lon="7.3102">
        <ele>431.4</ele>
        <time>2022-10-01T08:49:13Z</time>
      </trkpt>
      <trkpt lat="47.13469" lon="7.31027">
        <ele>431.5</ele>
        <time>2022-10-01T08:49:14Z</time>
      </trkpt>
      <trkpt lat="47.13471" lon="7.31034">
        <ele>431.5</ele>
        <time>2022-10-01T08:49:15Z</time>
      </trkpt>
      <trkpt lat="47.13473" lon="7.3104">
        <ele>431.5</ele>
        <time>2022-10-01T08:49:16Z</time>
      </trkpt>
      <trkpt lat="47.13474" lon="7.31047">
        <ele>431.5</ele>
        <time>2022-10-01T08:49:17Z</time>
      </trkpt>
      <trkpt lat="47.13477" lon="7.31054">
        <ele>431.5</ele>
        <time>2022-10-01T08:49:18Z</time>
      </trkpt>
      <trkpt lat="47.13478" lon="7.31061">
        <ele>431.5</ele>
        <time>2022-10-01T08:49:19Z</time>
      </trkpt>
      <trkpt lat="47.13481" lon="7.31067">
        <ele>431.5</ele>
        <time>2022-10-01T08:49:20Z</time>
      </trkpt>
      <trkpt lat="47.13482" lon="7.31073">
        <ele>431.5</ele>
        <time>2022-10-01T08:49:21Z</time>
      </trkpt>
      <trkpt lat="47.13484" lon="7.3108">
        <ele>431.4</ele>
        <time>2022-10-01T08:49:22Z</time>
      </trkpt>
      <trkpt lat="47.13487" lon="7.31086">
        <ele>431.3</ele>
        <time>2022-10-01T08:49:23Z</time>
      </trkpt>
      <trkpt lat="47.13489" lon="7.31093">
        <ele>431.3</ele>
        <time>2022-10-01T08:49:24Z</time>
      </trkpt>
      <trkpt lat="47.13491" lon="7.31101">
        <ele>431.2</ele>
        <time>2022-10-01T08:49:25Z</time>
      </trkpt>
      <trkpt lat="47.13492" lon="7.31108">
        <ele>431.2</ele>
        <time>2022-10-01T08:49:26Z</time>
      </trkpt>
      <trkpt lat="47.13493" lon="7.31115">
        <ele>431.1</ele>
        <time>2022-10-01T08:49:27Z</time>
      </trkpt>
      <trkpt lat="47.13495" lon="7.31122">
        <ele>431</ele>
        <time>2022-10-01T08:49:28Z</time>
      </trkpt>
      <trkpt lat="47.13497" lon="7.31128">
        <ele>431</ele>
        <time>2022-10-01T08:49:29Z</time>
      </trkpt>
      <trkpt lat="47.13499" lon="7.31137">
        <ele>430.9</ele>
        <time>2022-10-01T08:49:30Z</time>
      </trkpt>
      <trkpt lat="47.135" lon="7.31145">
        <ele>430.8</ele>
        <time>2022-10-01T08:49:31Z</time>
      </trkpt>
      <trkpt lat="47.13502" lon="7.31153">
        <ele>430.8</ele>
        <time>2022-10-01T08:49:32Z</time>
      </trkpt>
      <trkpt lat="47.13504" lon="7.31161">
        <ele>430.7</ele>
        <time>2022-10-01T08:49:33Z</time>
      </trkpt>
      <trkpt lat="47.13506" lon="7.3117">
        <ele>430.6</ele>
        <time>2022-10-01T08:49:34Z</time>
      </trkpt>
      <trkpt lat="47.13508" lon="7.31178">
        <ele>430.5</ele>
        <time>2022-10-01T08:49:35Z</time>
      </trkpt>
      <trkpt lat="47.13511" lon="7.31187">
        <ele>430.5</ele>
        <time>2022-10-01T08:49:36Z</time>
      </trkpt>
      <trkpt lat="47.13512" lon="7.31195">
        <ele>430.5</ele>
        <time>2022-10-01T08:49:37Z</time>
      </trkpt>
      <trkpt lat="47.13514" lon="7.31204">
        <ele>430.4</ele>
        <time>2022-10-01T08:49:38Z</time>
      </trkpt>
      <trkpt lat="47.13515" lon="7.31212">
        <ele>430.4</ele>
        <time>2022-10-01T08:49:39Z</time>
      </trkpt>
      <trkpt lat="47.13517" lon="7.3122">
        <ele>430.4</ele>
        <time>2022-10-01T08:49:40Z</time>
      </trkpt>
      <trkpt lat="47.13519" lon="7.31228">
        <ele>430.4</ele>
        <time>2022-10-01T08:49:41Z</time>
      </trkpt>
      <trkpt lat="47.1352" lon="7.31235">
        <ele>430.4</ele>
        <time>2022-10-01T08:49:42Z</time>
      </trkpt>
      <trkpt lat="47.13522" lon="7.31243">
        <ele>430.4</ele>
        <time>2022-10-01T08:49:43Z</time>
      </trkpt>
      <trkpt lat="47.13523" lon="7.3125">
        <ele>430.4</ele>
        <time>2022-10-01T08:49:44Z</time>
      </trkpt>
      <trkpt lat="47.13524" lon="7.31256">
        <ele>430.4</ele>
        <time>2022-10-01T08:49:45Z</time>
      </trkpt>
      <trkpt lat="47.13525" lon="7.31263">
        <ele>430.4</ele>
        <time>2022-10-01T08:49:46Z</time>
      </trkpt>
      <trkpt lat="47.13527" lon="7.31268">
        <ele>430.4</ele>
        <time>2022-10-01T08:49:47Z</time>
      </trkpt>
      <trkpt lat="47.13529" lon="7.31273">
        <ele>430.4</ele>
        <time>2022-10-01T08:49:48Z</time>
      </trkpt>
      <trkpt lat="47.1353" lon="7.31279">
        <ele>430.4</ele>
        <time>2022-10-01T08:49:49Z</time>
      </trkpt>
      <trkpt lat="47.13532" lon="7.31285">
        <ele>430.3</ele>
        <time>2022-10-01T08:49:50Z</time>
      </trkpt>
      <trkpt lat="47.13533" lon="7.31293">
        <ele>430.3</ele>
        <time>2022-10-01T08:49:51Z</time>
      </trkpt>
      <trkpt lat="47.13534" lon="7.31299">
        <ele>430.3</ele>
        <time>2022-10-01T08:49:52Z</time>
      </trkpt>
      <trkpt lat="47.13535" lon="7.31305">
        <ele>430.4</ele>
        <time>2022-10-01T08:49:53Z</time>
      </trkpt>
      <trkpt lat="47.13536" lon="7.31311">
        <ele>430.4</ele>
        <time>2022-10-01T08:49:54Z</time>
      </trkpt>
      <trkpt lat="47.13537" lon="7.31317">
        <ele>430.6</ele>
        <time>2022-10-01T08:49:55Z</time>
      </trkpt>
      <trkpt lat="47.13538" lon="7.31322">
        <ele>430.8</ele>
        <time>2022-10-01T08:49:56Z</time>
      </trkpt>
      <trkpt lat="47.13539" lon="7.31326">
        <ele>431</ele>
        <time>2022-10-01T08:49:57Z</time>
      </trkpt>
      <trkpt lat="47.1354" lon="7.31332">
        <ele>431.2</ele>
        <time>2022-10-01T08:49:58Z</time>
      </trkpt>
      <trkpt lat="47.1354" lon="7.31336">
        <ele>431.4</ele>
        <time>2022-10-01T08:49:59Z</time>
      </trkpt>
      <trkpt lat="47.1354" lon="7.31338">
        <ele>431.4</ele>
        <time>2022-10-01T08:50:00Z</time>
      </trkpt>
      <trkpt lat="47.1354" lon="7.31339">
        <ele>431.5</ele>
        <time>2022-10-01T08:50:01Z</time>
      </trkpt>
      <trkpt lat="47.1354" lon="7.31339">
        <ele>431.5</ele>
        <time>2022-10-01T08:50:02Z</time>
      </trkpt>
      <trkpt lat="47.1354" lon="7.31339">
        <ele>431.5</ele>
        <time>2022-10-01T08:50:03Z</time>
      </trkpt>
      <trkpt lat="47.13539" lon="7.3134">
        <ele>431.6</ele>
        <time>2022-10-01T08:50:04Z</time>
      </trkpt>
      <trkpt lat="47.13539" lon="7.3134">
        <ele>431.6</ele>
        <time>2022-10-01T08:50:05Z</time>
      </trkpt>
      <trkpt lat="47.1354" lon="7.31342">
        <ele>431.7</ele>
        <time>2022-10-01T08:50:06Z</time>
      </trkpt>
      <trkpt lat="47.13541" lon="7.31343">
        <ele>431.7</ele>
        <time>2022-10-01T08:50:07Z</time>
      </trkpt>
      <trkpt lat="47.13542" lon="7.31344">
        <ele>432</ele>
        <time>2022-10-01T08:50:08Z</time>
      </trkpt>
      <trkpt lat="47.13543" lon="7.31345">
        <ele>432</ele>
        <time>2022-10-01T08:50:09Z</time>
      </trkpt>
      <trkpt lat="47.13544" lon="7.31345">
        <ele>432.1</ele>
        <time>2022-10-01T08:50:10Z</time>
      </trkpt>
      <trkpt lat="47.13545" lon="7.31346">
        <ele>432.1</ele>
        <time>2022-10-01T08:50:11Z</time>
      </trkpt>
      <trkpt lat="47.13545" lon="7.31347">
        <ele>432.1</ele>
        <time>2022-10-01T08:50:24Z</time>
      </trkpt>
      <trkpt lat="47.13546" lon="7.31348">
        <ele>432.1</ele>
        <time>2022-10-01T08:50:25Z</time>
      </trkpt>
      <trkpt lat="47.13548" lon="7.31346">
        <ele>432.2</ele>
        <time>2022-10-01T08:50:26Z</time>
      </trkpt>
      <trkpt lat="47.13549" lon="7.31345">
        <ele>432.2</ele>
        <time>2022-10-01T08:50:27Z</time>
      </trkpt>
      <trkpt lat="47.1355" lon="7.31345">
        <ele>432.2</ele>
        <time>2022-10-01T08:50:28Z</time>
      </trkpt>
      <trkpt lat="47.1355" lon="7.31344">
        <ele>432.2</ele>
        <time>2022-10-01T08:50:29Z</time>
      </trkpt>
      <trkpt lat="47.1355" lon="7.31343">
        <ele>432.3</ele>
        <time>2022-10-01T08:50:30Z</time>
      </trkpt>
      <trkpt lat="47.13551" lon="7.31341">
        <ele>432.3</ele>
        <time>2022-10-01T08:50:31Z</time>
      </trkpt>
      <trkpt lat="47.13551" lon="7.31341">
        <ele>432.3</ele>
        <time>2022-10-01T08:50:32Z</time>
      </trkpt>
      <trkpt lat="47.13552" lon="7.31341">
        <ele>432.3</ele>
        <time>2022-10-01T08:50:33Z</time>
      </trkpt>
      <trkpt lat="47.13552" lon="7.31341">
        <ele>432.3</ele>
        <time>2022-10-01T08:50:34Z</time>
      </trkpt>
      <trkpt lat="47.13552" lon="7.31341">
        <ele>432.3</ele>
        <time>2022-10-01T08:50:35Z</time>
      </trkpt>
      <trkpt lat="47.13553" lon="7.31341">
        <ele>432.3</ele>
        <time>2022-10-01T08:50:36Z</time>
      </trkpt>
      <trkpt lat="47.13552" lon="7.31341">
        <ele>432.3</ele>
        <time>2022-10-01T08:50:37Z</time>
      </trkpt>
      <trkpt lat="47.13552" lon="7.31341">
        <ele>432.3</ele>
        <time>2022-10-01T08:50:38Z</time>
      </trkpt>
      <trkpt lat="47.13552" lon="7.31341">
        <ele>432.4</ele>
        <time>2022-10-01T08:50:39Z</time>
      </trkpt>
      <trkpt lat="47.13553" lon="7.3134">
        <ele>432.4</ele>
        <time>2022-10-01T08:50:40Z</time>
      </trkpt>
      <trkpt lat="47.13554" lon="7.31339">
        <ele>432.4</ele>
        <time>2022-10-01T08:50:41Z</time>
      </trkpt>
      <trkpt lat="47.13555" lon="7.31339">
        <ele>432.4</ele>
        <time>2022-10-01T08:50:42Z</time>
      </trkpt>
      <trkpt lat="47.13556" lon="7.31338">
        <ele>432.5</ele>
        <time>2022-10-01T08:50:43Z</time>
      </trkpt>
      <trkpt lat="47.13557" lon="7.31338">
        <ele>432.5</ele>
        <time>2022-10-01T08:50:44Z</time>
      </trkpt>
      <trkpt lat="47.13559" lon="7.31337">
        <ele>432.5</ele>
        <time>2022-10-01T08:50:45Z</time>
      </trkpt>
      <trkpt lat="47.1356" lon="7.31337">
        <ele>432.5</ele>
        <time>2022-10-01T08:50:46Z</time>
      </trkpt>
      <trkpt lat="47.13561" lon="7.31336">
        <ele>432.5</ele>
        <time>2022-10-01T08:50:47Z</time>
      </trkpt>
      <trkpt lat="47.13562" lon="7.31336">
        <ele>432.5</ele>
        <time>2022-10-01T08:50:48Z</time>
      </trkpt>
      <trkpt lat="47.13564" lon="7.31335">
        <ele>432.6</ele>
        <time>2022-10-01T08:50:49Z</time>
      </trkpt>
      <trkpt lat="47.13565" lon="7.31335">
        <ele>432.6</ele>
        <time>2022-10-01T08:50:50Z</time>
      </trkpt>
      <trkpt lat="47.13566" lon="7.31334">
        <ele>432.6</ele>
        <time>2022-10-01T08:50:51Z</time>
      </trkpt>
      <trkpt lat="47.13567" lon="7.31334">
        <ele>432.6</ele>
        <time>2022-10-01T08:50:52Z</time>
      </trkpt>
      <trkpt lat="47.13568" lon="7.31333">
        <ele>432.6</ele>
        <time>2022-10-01T08:50:53Z</time>
      </trkpt>
      <trkpt lat="47.13569" lon="7.31333">
        <ele>432.6</ele>
        <time>2022-10-01T08:50:54Z</time>
      </trkpt>
      <trkpt lat="47.1357" lon="7.31333">
        <ele>432.6</ele>
        <time>2022-10-01T08:50:55Z</time>
      </trkpt>
      <trkpt lat="47.1357" lon="7.31332">
        <ele>432.6</ele>
        <time>2022-10-01T08:50:56Z</time>
      </trkpt>
      <trkpt lat="47.1357" lon="7.31333">
        <ele>432.6</ele>
        <time>2022-10-01T08:50:57Z</time>
      </trkpt>
      <trkpt lat="47.1357" lon="7.31333">
        <ele>432.6</ele>
        <time>2022-10-01T08:50:58Z</time>
      </trkpt>
      <trkpt lat="47.1357" lon="7.31333">
        <ele>432.6</ele>
        <time>2022-10-01T08:50:59Z</time>
      </trkpt>
      <trkpt lat="47.1357" lon="7.31333">
        <ele>432.6</ele>
        <time>2022-10-01T08:51:00Z</time>
      </trkpt>
      <trkpt lat="47.1357" lon="7.31333">
        <ele>432.6</ele>
        <time>2022-10-01T08:51:01Z</time>
      </trkpt>
      <trkpt lat="47.1357" lon="7.31334">
        <ele>432.6</ele>
        <time>2022-10-01T08:51:02Z</time>
      </trkpt>
      <trkpt lat="47.13571" lon="7.31334">
        <ele>432.6</ele>
        <time>2022-10-01T08:51:03Z</time>
      </trkpt>
      <trkpt lat="47.13583" lon="7.31332">
        <ele>432.6</ele>
        <time>2022-10-01T08:51:04Z</time>
      </trkpt>
      <trkpt lat="47.13594" lon="7.31329">
        <ele>432.5</ele>
        <time>2022-10-01T08:51:05Z</time>
      </trkpt>
      <trkpt lat="47.13605" lon="7.31327">
        <ele>432.3</ele>
        <time>2022-10-01T08:53:07Z</time>
      </trkpt>
      <trkpt lat="47.13616" lon="7.31324">
        <ele>432.1</ele>
        <time>2022-10-01T08:53:08Z</time>
      </trkpt>
      <trkpt lat="47.13628" lon="7.31322">
        <ele>431.8</ele>
        <time>2022-10-01T08:53:09Z</time>
      </trkpt>
      <trkpt lat="47.13628" lon="7.31323">
        <ele>431.4</ele>
        <time>2022-10-01T08:53:10Z</time>
      </trkpt>
      <trkpt lat="47.13628" lon="7.31324">
        <ele>431.4</ele>
        <time>2022-10-01T08:53:11Z</time>
      </trkpt>
      <trkpt lat="47.13628" lon="7.31325">
        <ele>431.3</ele>
        <time>2022-10-01T08:53:12Z</time>
      </trkpt>
      <trkpt lat="47.13629" lon="7.31325">
        <ele>431.3</ele>
        <time>2022-10-01T08:53:13Z</time>
      </trkpt>
      <trkpt lat="47.13629" lon="7.31326">
        <ele>431.3</ele>
        <time>2022-10-01T08:53:14Z</time>
      </trkpt>
      <trkpt lat="47.13629" lon="7.31327">
        <ele>431.3</ele>
        <time>2022-10-01T08:53:15Z</time>
      </trkpt>
      <trkpt lat="47.1363" lon="7.31328">
        <ele>431.3</ele>
        <time>2022-10-01T08:53:16Z</time>
      </trkpt>
      <trkpt lat="47.1363" lon="7.31329">
        <ele>431.2</ele>
        <time>2022-10-01T08:53:17Z</time>
      </trkpt>
      <trkpt lat="47.1363" lon="7.31329">
        <ele>431.2</ele>
        <time>2022-10-01T08:53:18Z</time>
      </trkpt>
      <trkpt lat="47.1363" lon="7.3133">
        <ele>431.2</ele>
        <time>2022-10-01T08:53:19Z</time>
      </trkpt>
      <trkpt lat="47.13631" lon="7.31331">
        <ele>431.2</ele>
        <time>2022-10-01T08:53:25Z</time>
      </trkpt>
      <trkpt lat="47.13631" lon="7.31332">
        <ele>431.2</ele>
        <time>2022-10-01T08:53:26Z</time>
      </trkpt>
      <trkpt lat="47.13633" lon="7.31336">
        <ele>431</ele>
        <time>2022-10-01T08:53:27Z</time>
      </trkpt>
      <trkpt lat="47.13633" lon="7.31338">
        <ele>431</ele>
        <time>2022-10-01T08:53:28Z</time>
      </trkpt>
      <trkpt lat="47.13633" lon="7.31343">
        <ele>430.9</ele>
        <time>2022-10-01T08:53:29Z</time>
      </trkpt>
      <trkpt lat="47.13634" lon="7.31347">
        <ele>430.8</ele>
        <time>2022-10-01T08:53:30Z</time>
      </trkpt>
      <trkpt lat="47.13634" lon="7.31352">
        <ele>430.7</ele>
        <time>2022-10-01T08:53:31Z</time>
      </trkpt>
      <trkpt lat="47.13635" lon="7.31359">
        <ele>430.7</ele>
        <time>2022-10-01T08:53:32Z</time>
      </trkpt>
      <trkpt lat="47.13636" lon="7.31361">
        <ele>430.6</ele>
        <time>2022-10-01T08:53:33Z</time>
      </trkpt>
      <trkpt lat="47.13638" lon="7.31368">
        <ele>430.5</ele>
        <time>2022-10-01T08:53:34Z</time>
      </trkpt>
      <trkpt lat="47.13639" lon="7.31373">
        <ele>430.5</ele>
        <time>2022-10-01T08:53:35Z</time>
      </trkpt>
      <trkpt lat="47.1364" lon="7.31379">
        <ele>430.5</ele>
        <time>2022-10-01T08:53:36Z</time>
      </trkpt>
      <trkpt lat="47.13641" lon="7.31385">
        <ele>430.4</ele>
        <time>2022-10-01T08:53:37Z</time>
      </trkpt>
      <trkpt lat="47.13642" lon="7.31391">
        <ele>430.4</ele>
        <time>2022-10-01T08:53:38Z</time>
      </trkpt>
      <trkpt lat="47.13644" lon="7.31397">
        <ele>430.3</ele>
        <time>2022-10-01T08:53:39Z</time>
      </trkpt>
      <trkpt lat="47.13645" lon="7.31403">
        <ele>430.3</ele>
        <time>2022-10-01T08:53:40Z</time>
      </trkpt>
      <trkpt lat="47.13646" lon="7.31409">
        <ele>430.3</ele>
        <time>2022-10-01T08:53:41Z</time>
      </trkpt>
      <trkpt lat="47.13647" lon="7.31415">
        <ele>430.2</ele>
        <time>2022-10-01T08:53:42Z</time>
      </trkpt>
      <trkpt lat="47.13649" lon="7.31421">
        <ele>430.1</ele>
        <time>2022-10-01T08:53:43Z</time>
      </trkpt>
      <trkpt lat="47.1365" lon="7.31426">
        <ele>430.1</ele>
        <time>2022-10-01T08:53:44Z</time>
      </trkpt>
      <trkpt lat="47.13652" lon="7.31431">
        <ele>430.1</ele>
        <time>2022-10-01T08:53:45Z</time>
      </trkpt>
      <trkpt lat="47.13653" lon="7.31439">
        <ele>430.1</ele>
        <time>2022-10-01T08:53:46Z</time>
      </trkpt>
      <trkpt lat="47.13654" lon="7.31445">
        <ele>430.1</ele>
        <time>2022-10-01T08:53:47Z</time>
      </trkpt>
      <trkpt lat="47.13656" lon="7.3145">
        <ele>430.1</ele>
        <time>2022-10-01T08:53:48Z</time>
      </trkpt>
      <trkpt lat="47.13657" lon="7.31457">
        <ele>430.1</ele>
        <time>2022-10-01T08:53:49Z</time>
      </trkpt>
      <trkpt lat="47.13659" lon="7.31463">
        <ele>430.1</ele>
        <time>2022-10-01T08:53:50Z</time>
      </trkpt>
      <trkpt lat="47.1366" lon="7.31468">
        <ele>430.1</ele>
        <time>2022-10-01T08:53:51Z</time>
      </trkpt>
      <trkpt lat="47.13662" lon="7.31475">
        <ele>430</ele>
        <time>2022-10-01T08:53:52Z</time>
      </trkpt>
      <trkpt lat="47.13663" lon="7.31481">
        <ele>430</ele>
        <time>2022-10-01T08:53:53Z</time>
      </trkpt>
      <trkpt lat="47.13664" lon="7.31488">
        <ele>430</ele>
        <time>2022-10-01T08:53:54Z</time>
      </trkpt>
      <trkpt lat="47.13666" lon="7.31495">
        <ele>430</ele>
        <time>2022-10-01T08:53:55Z</time>
      </trkpt>
      <trkpt lat="47.13667" lon="7.31501">
        <ele>430</ele>
        <time>2022-10-01T08:53:56Z</time>
      </trkpt>
      <trkpt lat="47.13668" lon="7.31508">
        <ele>430</ele>
        <time>2022-10-01T08:53:57Z</time>
      </trkpt>
      <trkpt lat="47.1367" lon="7.31514">
        <ele>430</ele>
        <time>2022-10-01T08:53:58Z</time>
      </trkpt>
      <trkpt lat="47.13671" lon="7.31521">
        <ele>430</ele>
        <time>2022-10-01T08:53:59Z</time>
      </trkpt>
      <trkpt lat="47.13672" lon="7.31528">
        <ele>430</ele>
        <time>2022-10-01T08:54:00Z</time>
      </trkpt>
      <trkpt lat="47.13673" lon="7.31533">
        <ele>430</ele>
        <time>2022-10-01T08:54:01Z</time>
      </trkpt>
      <trkpt lat="47.13675" lon="7.31541">
        <ele>429.9</ele>
        <time>2022-10-01T08:54:02Z</time>
      </trkpt>
      <trkpt lat="47.13676" lon="7.31548">
        <ele>429.9</ele>
        <time>2022-10-01T08:54:03Z</time>
      </trkpt>
      <trkpt lat="47.13678" lon="7.31554">
        <ele>429.9</ele>
        <time>2022-10-01T08:54:04Z</time>
      </trkpt>
      <trkpt lat="47.13679" lon="7.31561">
        <ele>429.9</ele>
        <time>2022-10-01T08:54:05Z</time>
      </trkpt>
      <trkpt lat="47.13681" lon="7.31567">
        <ele>429.9</ele>
        <time>2022-10-01T08:54:06Z</time>
      </trkpt>
      <trkpt lat="47.13682" lon="7.31574">
        <ele>429.9</ele>
        <time>2022-10-01T08:54:07Z</time>
      </trkpt>
      <trkpt lat="47.13683" lon="7.31581">
        <ele>429.8</ele>
        <time>2022-10-01T08:54:08Z</time>
      </trkpt>
      <trkpt lat="47.13685" lon="7.31588">
        <ele>429.8</ele>
        <time>2022-10-01T08:54:09Z</time>
      </trkpt>
      <trkpt lat="47.13686" lon="7.31596">
        <ele>429.8</ele>
        <time>2022-10-01T08:54:10Z</time>
      </trkpt>
      <trkpt lat="47.13687" lon="7.31604">
        <ele>429.8</ele>
        <time>2022-10-01T08:54:11Z</time>
      </trkpt>
      <trkpt lat="47.13689" lon="7.31612">
        <ele>429.7</ele>
        <time>2022-10-01T08:54:12Z</time>
      </trkpt>
      <trkpt lat="47.13691" lon="7.31619">
        <ele>429.7</ele>
        <time>2022-10-01T08:54:13Z</time>
      </trkpt>
      <trkpt lat="47.13692" lon="7.31625">
        <ele>429.7</ele>
        <time>2022-10-01T08:54:14Z</time>
      </trkpt>
      <trkpt lat="47.13694" lon="7.31633">
        <ele>429.7</ele>
        <time>2022-10-01T08:54:15Z</time>
      </trkpt>
      <trkpt lat="47.13696" lon="7.31639">
        <ele>429.7</ele>
        <time>2022-10-01T08:54:16Z</time>
      </trkpt>
      <trkpt lat="47.13697" lon="7.31648">
        <ele>429.6</ele>
        <time>2022-10-01T08:54:17Z</time>
      </trkpt>
      <trkpt lat="47.13699" lon="7.31656">
        <ele>429.6</ele>
        <time>2022-10-01T08:54:18Z</time>
      </trkpt>
      <trkpt lat="47.137" lon="7.31663">
        <ele>429.6</ele>
        <time>2022-10-01T08:54:19Z</time>
      </trkpt>
      <trkpt lat="47.13702" lon="7.31672">
        <ele>429.6</ele>
        <time>2022-10-01T08:54:20Z</time>
      </trkpt>
      <trkpt lat="47.13704" lon="7.31678">
        <ele>429.5</ele>
        <time>2022-10-01T08:54:21Z</time>
      </trkpt>
      <trkpt lat="47.13706" lon="7.31686">
        <ele>429.5</ele>
        <time>2022-10-01T08:54:22Z</time>
      </trkpt>
      <trkpt lat="47.13707" lon="7.31693">
        <ele>429.5</ele>
        <time>2022-10-01T08:54:23Z</time>
      </trkpt>
      <trkpt lat="47.1371" lon="7.317">
        <ele>429.5</ele>
        <time>2022-10-01T08:54:24Z</time>
      </trkpt>
      <trkpt lat="47.13712" lon="7.31707">
        <ele>429.5</ele>
        <time>2022-10-01T08:54:25Z</time>
      </trkpt>
      <trkpt lat="47.13714" lon="7.31714">
        <ele>429.5</ele>
        <time>2022-10-01T08:54:26Z</time>
      </trkpt>
      <trkpt lat="47.13715" lon="7.31721">
        <ele>429.5</ele>
        <time>2022-10-01T08:54:27Z</time>
      </trkpt>
      <trkpt lat="47.13717" lon="7.31729">
        <ele>429.5</ele>
        <time>2022-10-01T08:54:28Z</time>
      </trkpt>
      <trkpt lat="47.13719" lon="7.31735">
        <ele>429.5</ele>
        <time>2022-10-01T08:54:29Z</time>
      </trkpt>
      <trkpt lat="47.1372" lon="7.31742">
        <ele>429.5</ele>
        <time>2022-10-01T08:54:30Z</time>
      </trkpt>
      <trkpt lat="47.13722" lon="7.31748">
        <ele>429.5</ele>
        <time>2022-10-01T08:54:31Z</time>
      </trkpt>
      <trkpt lat="47.13724" lon="7.31756">
        <ele>429.5</ele>
        <time>2022-10-01T08:54:32Z</time>
      </trkpt>
      <trkpt lat="47.13726" lon="7.31763">
        <ele>429.4</ele>
        <time>2022-10-01T08:54:33Z</time>
      </trkpt>
      <trkpt lat="47.13728" lon="7.31771">
        <ele>429.4</ele>
        <time>2022-10-01T08:54:34Z</time>
      </trkpt>
      <trkpt lat="47.13729" lon="7.31777">
        <ele>429.4</ele>
        <time>2022-10-01T08:54:35Z</time>
      </trkpt>
      <trkpt lat="47.13731" lon="7.31783">
        <ele>429.4</ele>
        <time>2022-10-01T08:54:36Z</time>
      </trkpt>
      <trkpt lat="47.13733" lon="7.3179">
        <ele>429.4</ele>
        <time>2022-10-01T08:54:37Z</time>
      </trkpt>
      <trkpt lat="47.13735" lon="7.31797">
        <ele>429.4</ele>
        <time>2022-10-01T08:54:38Z</time>
      </trkpt>
      <trkpt lat="47.13737" lon="7.31803">
        <ele>429.4</ele>
        <time>2022-10-01T08:54:39Z</time>
      </trkpt>
      <trkpt lat="47.13739" lon="7.3181">
        <ele>429.4</ele>
        <time>2022-10-01T08:54:40Z</time>
      </trkpt>
      <trkpt lat="47.13741" lon="7.31816">
        <ele>429.5</ele>
        <time>2022-10-01T08:54:41Z</time>
      </trkpt>
      <trkpt lat="47.13743" lon="7.31824">
        <ele>429.5</ele>
        <time>2022-10-01T08:54:42Z</time>
      </trkpt>
      <trkpt lat="47.13745" lon="7.31831">
        <ele>429.5</ele>
        <time>2022-10-01T08:54:43Z</time>
      </trkpt>
      <trkpt lat="47.13747" lon="7.31838">
        <ele>429.5</ele>
        <time>2022-10-01T08:54:44Z</time>
      </trkpt>
      <trkpt lat="47.1375" lon="7.31844">
        <ele>429.5</ele>
        <time>2022-10-01T08:54:45Z</time>
      </trkpt>
      <trkpt lat="47.13752" lon="7.31852">
        <ele>429.5</ele>
        <time>2022-10-01T08:54:46Z</time>
      </trkpt>
      <trkpt lat="47.13754" lon="7.31859">
        <ele>429.5</ele>
        <time>2022-10-01T08:54:47Z</time>
      </trkpt>
      <trkpt lat="47.13756" lon="7.31865">
        <ele>429.5</ele>
        <time>2022-10-01T08:54:48Z</time>
      </trkpt>
      <trkpt lat="47.13758" lon="7.31871">
        <ele>429.5</ele>
        <time>2022-10-01T08:54:49Z</time>
      </trkpt>
      <trkpt lat="47.1376" lon="7.31878">
        <ele>429.5</ele>
        <time>2022-10-01T08:54:50Z</time>
      </trkpt>
      <trkpt lat="47.13762" lon="7.31885">
        <ele>429.5</ele>
        <time>2022-10-01T08:54:51Z</time>
      </trkpt>
      <trkpt lat="47.13764" lon="7.31892">
        <ele>429.5</ele>
        <time>2022-10-01T08:54:52Z</time>
      </trkpt>
      <trkpt lat="47.13766" lon="7.31898">
        <ele>429.5</ele>
        <time>2022-10-01T08:54:53Z</time>
      </trkpt>
      <trkpt lat="47.13768" lon="7.31904">
        <ele>429.5</ele>
        <time>2022-10-01T08:54:54Z</time>
      </trkpt>
      <trkpt lat="47.1377" lon="7.31911">
        <ele>429.5</ele>
        <time>2022-10-01T08:54:55Z</time>
      </trkpt>
      <trkpt lat="47.13772" lon="7.31918">
        <ele>429.5</ele>
        <time>2022-10-01T08:54:56Z</time>
      </trkpt>
      <trkpt lat="47.13774" lon="7.31924">
        <ele>429.5</ele>
        <time>2022-10-01T08:54:57Z</time>
      </trkpt>
      <trkpt lat="47.13776" lon="7.31931">
        <ele>429.5</ele>
        <time>2022-10-01T08:54:58Z</time>
      </trkpt>
      <trkpt lat="47.13778" lon="7.31937">
        <ele>429.5</ele>
        <time>2022-10-01T08:54:59Z</time>
      </trkpt>
      <trkpt lat="47.1378" lon="7.31943">
        <ele>429.5</ele>
        <time>2022-10-01T08:55:00Z</time>
      </trkpt>
      <trkpt lat="47.13782" lon="7.3195">
        <ele>429.5</ele>
        <time>2022-10-01T08:55:01Z</time>
      </trkpt>
      <trkpt lat="47.13784" lon="7.31956">
        <ele>429.5</ele>
        <time>2022-10-01T08:55:02Z</time>
      </trkpt>
      <trkpt lat="47.13786" lon="7.31963">
        <ele>429.5</ele>
        <time>2022-10-01T08:55:03Z</time>
      </trkpt>
      <trkpt lat="47.13788" lon="7.31969">
        <ele>429.5</ele>
        <time>2022-10-01T08:55:04Z</time>
      </trkpt>
      <trkpt lat="47.1379" lon="7.31976">
        <ele>429.5</ele>
        <time>2022-10-01T08:55:05Z</time>
      </trkpt>
      <trkpt lat="47.13792" lon="7.31983">
        <ele>429.6</ele>
        <time>2022-10-01T08:55:06Z</time>
      </trkpt>
      <trkpt lat="47.13794" lon="7.3199">
        <ele>429.6</ele>
        <time>2022-10-01T08:55:07Z</time>
      </trkpt>
      <trkpt lat="47.13796" lon="7.31996">
        <ele>429.6</ele>
        <time>2022-10-01T08:55:08Z</time>
      </trkpt>
      <trkpt lat="47.13798" lon="7.32002">
        <ele>429.6</ele>
        <time>2022-10-01T08:55:09Z</time>
      </trkpt>
      <trkpt lat="47.138" lon="7.3201">
        <ele>429.6</ele>
        <time>2022-10-01T08:55:10Z</time>
      </trkpt>
      <trkpt lat="47.13803" lon="7.32017">
        <ele>429.6</ele>
        <time>2022-10-01T08:55:11Z</time>
      </trkpt>
      <trkpt lat="47.13804" lon="7.32022">
        <ele>429.6</ele>
        <time>2022-10-01T08:55:12Z</time>
      </trkpt>
      <trkpt lat="47.13807" lon="7.32028">
        <ele>429.6</ele>
        <time>2022-10-01T08:55:13Z</time>
      </trkpt>
      <trkpt lat="47.13808" lon="7.32035">
        <ele>429.6</ele>
        <time>2022-10-01T08:55:14Z</time>
      </trkpt>
      <trkpt lat="47.13811" lon="7.32041">
        <ele>429.6</ele>
        <time>2022-10-01T08:55:15Z</time>
      </trkpt>
      <trkpt lat="47.13813" lon="7.32048">
        <ele>429.6</ele>
        <time>2022-10-01T08:55:16Z</time>
      </trkpt>
      <trkpt lat="47.13815" lon="7.32054">
        <ele>429.7</ele>
        <time>2022-10-01T08:55:17Z</time>
      </trkpt>
      <trkpt lat="47.13817" lon="7.32061">
        <ele>429.7</ele>
        <time>2022-10-01T08:55:18Z</time>
      </trkpt>
      <trkpt lat="47.13819" lon="7.32067">
        <ele>429.7</ele>
        <time>2022-10-01T08:55:19Z</time>
      </trkpt>
      <trkpt lat="47.13821" lon="7.32073">
        <ele>429.7</ele>
        <time>2022-10-01T08:55:20Z</time>
      </trkpt>
      <trkpt lat="47.13824" lon="7.32079">
        <ele>429.7</ele>
        <time>2022-10-01T08:55:21Z</time>
      </trkpt>
      <trkpt lat="47.13826" lon="7.32087">
        <ele>429.7</ele>
        <time>2022-10-01T08:55:22Z</time>
      </trkpt>
      <trkpt lat="47.13828" lon="7.32092">
        <ele>429.8</ele>
        <time>2022-10-01T08:55:23Z</time>
      </trkpt>
      <trkpt lat="47.1383" lon="7.32099">
        <ele>429.8</ele>
        <time>2022-10-01T08:55:24Z</time>
      </trkpt>
      <trkpt lat="47.13832" lon="7.32105">
        <ele>429.8</ele>
        <time>2022-10-01T08:55:25Z</time>
      </trkpt>
      <trkpt lat="47.13833" lon="7.32111">
        <ele>429.8</ele>
        <time>2022-10-01T08:55:26Z</time>
      </trkpt>
      <trkpt lat="47.13835" lon="7.32119">
        <ele>429.8</ele>
        <time>2022-10-01T08:55:27Z</time>
      </trkpt>
      <trkpt lat="47.13837" lon="7.32125">
        <ele>429.8</ele>
        <time>2022-10-01T08:55:28Z</time>
      </trkpt>
      <trkpt lat="47.13839" lon="7.32132">
        <ele>429.9</ele>
        <time>2022-10-01T08:55:29Z</time>
      </trkpt>
      <trkpt lat="47.13841" lon="7.32138">
        <ele>429.9</ele>
        <time>2022-10-01T08:55:30Z</time>
      </trkpt>
      <trkpt lat="47.13843" lon="7.32144">
        <ele>429.9</ele>
        <time>2022-10-01T08:55:31Z</time>
      </trkpt>
      <trkpt lat="47.13845" lon="7.32151">
        <ele>429.9</ele>
        <time>2022-10-01T08:55:32Z</time>
      </trkpt>
      <trkpt lat="47.13847" lon="7.32157">
        <ele>430</ele>
        <time>2022-10-01T08:55:33Z</time>
      </trkpt>
      <trkpt lat="47.13849" lon="7.32164">
        <ele>430</ele>
        <time>2022-10-01T08:55:34Z</time>
      </trkpt>
      <trkpt lat="47.13851" lon="7.32169">
        <ele>430</ele>
        <time>2022-10-01T08:55:35Z</time>
      </trkpt>
      <trkpt lat="47.13854" lon="7.32176">
        <ele>430</ele>
        <time>2022-10-01T08:55:36Z</time>
      </trkpt>
      <trkpt lat="47.13856" lon="7.32183">
        <ele>430</ele>
        <time>2022-10-01T08:55:37Z</time>
      </trkpt>
      <trkpt lat="47.13857" lon="7.32189">
        <ele>430</ele>
        <time>2022-10-01T08:55:38Z</time>
      </trkpt>
      <trkpt lat="47.13859" lon="7.32195">
        <ele>430</ele>
        <time>2022-10-01T08:55:39Z</time>
      </trkpt>
      <trkpt lat="47.13861" lon="7.32201">
        <ele>430</ele>
        <time>2022-10-01T08:55:40Z</time>
      </trkpt>
      <trkpt lat="47.13863" lon="7.32208">
        <ele>430</ele>
        <time>2022-10-01T08:55:41Z</time>
      </trkpt>
      <trkpt lat="47.13865" lon="7.32215">
        <ele>430</ele>
        <time>2022-10-01T08:55:42Z</time>
      </trkpt>
      <trkpt lat="47.13867" lon="7.32221">
        <ele>430</ele>
        <time>2022-10-01T08:55:43Z</time>
      </trkpt>
      <trkpt lat="47.1387" lon="7.32227">
        <ele>430</ele>
        <time>2022-10-01T08:55:44Z</time>
      </trkpt>
      <trkpt lat="47.13872" lon="7.32234">
        <ele>430</ele>
        <time>2022-10-01T08:55:45Z</time>
      </trkpt>
      <trkpt lat="47.13875" lon="7.3224">
        <ele>430</ele>
        <time>2022-10-01T08:55:46Z</time>
      </trkpt>
      <trkpt lat="47.13876" lon="7.32247">
        <ele>430.1</ele>
        <time>2022-10-01T08:55:47Z</time>
      </trkpt>
      <trkpt lat="47.13878" lon="7.32254">
        <ele>430.1</ele>
        <time>2022-10-01T08:55:48Z</time>
      </trkpt>
      <trkpt lat="47.13881" lon="7.3226">
        <ele>430.1</ele>
        <time>2022-10-01T08:55:49Z</time>
      </trkpt>
      <trkpt lat="47.13882" lon="7.32267">
        <ele>430.1</ele>
        <time>2022-10-01T08:55:50Z</time>
      </trkpt>
      <trkpt lat="47.13885" lon="7.32273">
        <ele>430.1</ele>
        <time>2022-10-01T08:55:51Z</time>
      </trkpt>
      <trkpt lat="47.13887" lon="7.3228">
        <ele>430.1</ele>
        <time>2022-10-01T08:55:52Z</time>
      </trkpt>
      <trkpt lat="47.13888" lon="7.32286">
        <ele>430.1</ele>
        <time>2022-10-01T08:55:53Z</time>
      </trkpt>
      <trkpt lat="47.13891" lon="7.32292">
        <ele>430.1</ele>
        <time>2022-10-01T08:55:54Z</time>
      </trkpt>
      <trkpt lat="47.13892" lon="7.32298">
        <ele>430.1</ele>
        <time>2022-10-01T08:55:55Z</time>
      </trkpt>
      <trkpt lat="47.13894" lon="7.32306">
        <ele>430.1</ele>
        <time>2022-10-01T08:55:56Z</time>
      </trkpt>
      <trkpt lat="47.13896" lon="7.32311">
        <ele>430</ele>
        <time>2022-10-01T08:55:57Z</time>
      </trkpt>
      <trkpt lat="47.13899" lon="7.32318">
        <ele>430</ele>
        <time>2022-10-01T08:55:58Z</time>
      </trkpt>
      <trkpt lat="47.13901" lon="7.32324">
        <ele>430</ele>
        <time>2022-10-01T08:55:59Z</time>
      </trkpt>
      <trkpt lat="47.13902" lon="7.3233">
        <ele>430</ele>
        <time>2022-10-01T08:56:00Z</time>
      </trkpt>
      <trkpt lat="47.13904" lon="7.32336">
        <ele>430</ele>
        <time>2022-10-01T08:56:01Z</time>
      </trkpt>
      <trkpt lat="47.13905" lon="7.32343">
        <ele>429.9</ele>
        <time>2022-10-01T08:56:02Z</time>
      </trkpt>
      <trkpt lat="47.13907" lon="7.32349">
        <ele>429.9</ele>
        <time>2022-10-01T08:56:03Z</time>
      </trkpt>
      <trkpt lat="47.13909" lon="7.32357">
        <ele>429.9</ele>
        <time>2022-10-01T08:56:04Z</time>
      </trkpt>
      <trkpt lat="47.13911" lon="7.32364">
        <ele>429.9</ele>
        <time>2022-10-01T08:56:05Z</time>
      </trkpt>
      <trkpt lat="47.13914" lon="7.32371">
        <ele>429.9</ele>
        <time>2022-10-01T08:56:06Z</time>
      </trkpt>
      <trkpt lat="47.13917" lon="7.32377">
        <ele>429.9</ele>
        <time>2022-10-01T08:56:07Z</time>
      </trkpt>
      <trkpt lat="47.13919" lon="7.32384">
        <ele>429.9</ele>
        <time>2022-10-01T08:56:08Z</time>
      </trkpt>
      <trkpt lat="47.13921" lon="7.32391">
        <ele>429.9</ele>
        <time>2022-10-01T08:56:09Z</time>
      </trkpt>
      <trkpt lat="47.13923" lon="7.32398">
        <ele>429.9</ele>
        <time>2022-10-01T08:56:10Z</time>
      </trkpt>
      <trkpt lat="47.13925" lon="7.32405">
        <ele>429.9</ele>
        <time>2022-10-01T08:56:11Z</time>
      </trkpt>
      <trkpt lat="47.13927" lon="7.32411">
        <ele>429.9</ele>
        <time>2022-10-01T08:56:12Z</time>
      </trkpt>
      <trkpt lat="47.13929" lon="7.32418">
        <ele>429.9</ele>
        <time>2022-10-01T08:56:13Z</time>
      </trkpt>
      <trkpt lat="47.13931" lon="7.32424">
        <ele>429.9</ele>
        <time>2022-10-01T08:56:14Z</time>
      </trkpt>
      <trkpt lat="47.13933" lon="7.3243">
        <ele>429.9</ele>
        <time>2022-10-01T08:56:15Z</time>
      </trkpt>
      <trkpt lat="47.13935" lon="7.32436">
        <ele>429.9</ele>
        <time>2022-10-01T08:56:16Z</time>
      </trkpt>
      <trkpt lat="47.13938" lon="7.32443">
        <ele>429.8</ele>
        <time>2022-10-01T08:56:17Z</time>
      </trkpt>
      <trkpt lat="47.1394" lon="7.3245">
        <ele>429.8</ele>
        <time>2022-10-01T08:56:18Z</time>
      </trkpt>
      <trkpt lat="47.13941" lon="7.32456">
        <ele>429.8</ele>
        <time>2022-10-01T08:56:19Z</time>
      </trkpt>
      <trkpt lat="47.13943" lon="7.32461">
        <ele>429.9</ele>
        <time>2022-10-01T08:56:20Z</time>
      </trkpt>
      <trkpt lat="47.13945" lon="7.32466">
        <ele>429.9</ele>
        <time>2022-10-01T08:56:21Z</time>
      </trkpt>
      <trkpt lat="47.13947" lon="7.32472">
        <ele>429.9</ele>
        <time>2022-10-01T08:56:22Z</time>
      </trkpt>
      <trkpt lat="47.13949" lon="7.32478">
        <ele>429.9</ele>
        <time>2022-10-01T08:56:23Z</time>
      </trkpt>
      <trkpt lat="47.13951" lon="7.32483">
        <ele>429.9</ele>
        <time>2022-10-01T08:56:24Z</time>
      </trkpt>
      <trkpt lat="47.13952" lon="7.3249">
        <ele>429.9</ele>
        <time>2022-10-01T08:56:25Z</time>
      </trkpt>
      <trkpt lat="47.13953" lon="7.32496">
        <ele>429.9</ele>
        <time>2022-10-01T08:56:26Z</time>
      </trkpt>
      <trkpt lat="47.13956" lon="7.32502">
        <ele>429.9</ele>
        <time>2022-10-01T08:56:27Z</time>
      </trkpt>
      <trkpt lat="47.13957" lon="7.32508">
        <ele>430</ele>
        <time>2022-10-01T08:56:28Z</time>
      </trkpt>
      <trkpt lat="47.1396" lon="7.32515">
        <ele>430</ele>
        <time>2022-10-01T08:56:29Z</time>
      </trkpt>
      <trkpt lat="47.13962" lon="7.32521">
        <ele>430</ele>
        <time>2022-10-01T08:56:30Z</time>
      </trkpt>
      <trkpt lat="47.13964" lon="7.32527">
        <ele>430</ele>
        <time>2022-10-01T08:56:31Z</time>
      </trkpt>
      <trkpt lat="47.13965" lon="7.32533">
        <ele>430.1</ele>
        <time>2022-10-01T08:56:32Z</time>
      </trkpt>
      <trkpt lat="47.13967" lon="7.32538">
        <ele>430.1</ele>
        <time>2022-10-01T08:56:33Z</time>
      </trkpt>
      <trkpt lat="47.13969" lon="7.32544">
        <ele>430.2</ele>
        <time>2022-10-01T08:56:34Z</time>
      </trkpt>
      <trkpt lat="47.1397" lon="7.3255">
        <ele>430.2</ele>
        <time>2022-10-01T08:56:35Z</time>
      </trkpt>
      <trkpt lat="47.13972" lon="7.32556">
        <ele>430.3</ele>
        <time>2022-10-01T08:56:36Z</time>
      </trkpt>
      <trkpt lat="47.13974" lon="7.3256">
        <ele>430.4</ele>
        <time>2022-10-01T08:56:37Z</time>
      </trkpt>
      <trkpt lat="47.13977" lon="7.32569">
        <ele>430.5</ele>
        <time>2022-10-01T08:56:38Z</time>
      </trkpt>
      <trkpt lat="47.1398" lon="7.32575">
        <ele>430.6</ele>
        <time>2022-10-01T08:56:39Z</time>
      </trkpt>
      <trkpt lat="47.13981" lon="7.32581">
        <ele>430.7</ele>
        <time>2022-10-01T08:56:40Z</time>
      </trkpt>
      <trkpt lat="47.13983" lon="7.32586">
        <ele>430.8</ele>
        <time>2022-10-01T08:56:41Z</time>
      </trkpt>
      <trkpt lat="47.13986" lon="7.32592">
        <ele>430.9</ele>
        <time>2022-10-01T08:56:42Z</time>
      </trkpt>
      <trkpt lat="47.13988" lon="7.32597">
        <ele>431</ele>
        <time>2022-10-01T08:56:43Z</time>
      </trkpt>
      <trkpt lat="47.1399" lon="7.32602">
        <ele>431.2</ele>
        <time>2022-10-01T08:56:44Z</time>
      </trkpt>
      <trkpt lat="47.13992" lon="7.32607">
        <ele>431.3</ele>
        <time>2022-10-01T08:56:45Z</time>
      </trkpt>
      <trkpt lat="47.13995" lon="7.32613">
        <ele>431.4</ele>
        <time>2022-10-01T08:56:46Z</time>
      </trkpt>
      <trkpt lat="47.13997" lon="7.32618">
        <ele>431.6</ele>
        <time>2022-10-01T08:56:47Z</time>
      </trkpt>
      <trkpt lat="47.13999" lon="7.32622">
        <ele>431.7</ele>
        <time>2022-10-01T08:56:48Z</time>
      </trkpt>
      <trkpt lat="47.14001" lon="7.32627">
        <ele>431.8</ele>
        <time>2022-10-01T08:56:49Z</time>
      </trkpt>
      <trkpt lat="47.14002" lon="7.32631">
        <ele>431.9</ele>
        <time>2022-10-01T08:56:50Z</time>
      </trkpt>
      <trkpt lat="47.14004" lon="7.32635">
        <ele>432</ele>
        <time>2022-10-01T08:56:51Z</time>
      </trkpt>
      <trkpt lat="47.14005" lon="7.32641">
        <ele>432.2</ele>
        <time>2022-10-01T08:56:52Z</time>
      </trkpt>
      <trkpt lat="47.14006" lon="7.32646">
        <ele>432.3</ele>
        <time>2022-10-01T08:56:53Z</time>
      </trkpt>
      <trkpt lat="47.14007" lon="7.32652">
        <ele>432.2</ele>
        <time>2022-10-01T08:56:54Z</time>
      </trkpt>
      <trkpt lat="47.14008" lon="7.32658">
        <ele>432.1</ele>
        <time>2022-10-01T08:56:55Z</time>
      </trkpt>
      <trkpt lat="47.1401" lon="7.32666">
        <ele>431.9</ele>
        <time>2022-10-01T08:56:56Z</time>
      </trkpt>
      <trkpt lat="47.14011" lon="7.32673">
        <ele>431.7</ele>
        <time>2022-10-01T08:56:57Z</time>
      </trkpt>
      <trkpt lat="47.14013" lon="7.3268">
        <ele>431.6</ele>
        <time>2022-10-01T08:56:58Z</time>
      </trkpt>
      <trkpt lat="47.14015" lon="7.32687">
        <ele>431.4</ele>
        <time>2022-10-01T08:56:59Z</time>
      </trkpt>
      <trkpt lat="47.14018" lon="7.32695">
        <ele>431.2</ele>
        <time>2022-10-01T08:57:00Z</time>
      </trkpt>
      <trkpt lat="47.14019" lon="7.32704">
        <ele>431.1</ele>
        <time>2022-10-01T08:57:01Z</time>
      </trkpt>
      <trkpt lat="47.14022" lon="7.32711">
        <ele>431</ele>
        <time>2022-10-01T08:57:02Z</time>
      </trkpt>
      <trkpt lat="47.14024" lon="7.32719">
        <ele>430.9</ele>
        <time>2022-10-01T08:57:03Z</time>
      </trkpt>
      <trkpt lat="47.14027" lon="7.32726">
        <ele>430.9</ele>
        <time>2022-10-01T08:57:04Z</time>
      </trkpt>
      <trkpt lat="47.1403" lon="7.32735">
        <ele>430.8</ele>
        <time>2022-10-01T08:57:05Z</time>
      </trkpt>
      <trkpt lat="47.14032" lon="7.32743">
        <ele>430.8</ele>
        <time>2022-10-01T08:57:06Z</time>
      </trkpt>
      <trkpt lat="47.14034" lon="7.3275">
        <ele>430.7</ele>
        <time>2022-10-01T08:57:07Z</time>
      </trkpt>
      <trkpt lat="47.14037" lon="7.32758">
        <ele>430.6</ele>
        <time>2022-10-01T08:57:08Z</time>
      </trkpt>
      <trkpt lat="47.14039" lon="7.32766">
        <ele>430.6</ele>
        <time>2022-10-01T08:57:09Z</time>
      </trkpt>
      <trkpt lat="47.14042" lon="7.32774">
        <ele>430.6</ele>
        <time>2022-10-01T08:57:10Z</time>
      </trkpt>
      <trkpt lat="47.14044" lon="7.32782">
        <ele>430.5</ele>
        <time>2022-10-01T08:57:11Z</time>
      </trkpt>
      <trkpt lat="47.14047" lon="7.3279">
        <ele>430.5</ele>
        <time>2022-10-01T08:57:12Z</time>
      </trkpt>
      <trkpt lat="47.14049" lon="7.32798">
        <ele>430.5</ele>
        <time>2022-10-01T08:57:13Z</time>
      </trkpt>
      <trkpt lat="47.14052" lon="7.32806">
        <ele>430.5</ele>
        <time>2022-10-01T08:57:14Z</time>
      </trkpt>
      <trkpt lat="47.14054" lon="7.32815">
        <ele>430.4</ele>
        <time>2022-10-01T08:57:15Z</time>
      </trkpt>
      <trkpt lat="47.14057" lon="7.32823">
        <ele>430.4</ele>
        <time>2022-10-01T08:57:16Z</time>
      </trkpt>
      <trkpt lat="47.1406" lon="7.32832">
        <ele>430.4</ele>
        <time>2022-10-01T08:57:17Z</time>
      </trkpt>
      <trkpt lat="47.14062" lon="7.3284">
        <ele>430.4</ele>
        <time>2022-10-01T08:57:18Z</time>
      </trkpt>
      <trkpt lat="47.14065" lon="7.32849">
        <ele>430.3</ele>
        <time>2022-10-01T08:57:19Z</time>
      </trkpt>
      <trkpt lat="47.14067" lon="7.32858">
        <ele>430.3</ele>
        <time>2022-10-01T08:57:20Z</time>
      </trkpt>
      <trkpt lat="47.1407" lon="7.32866">
        <ele>430.3</ele>
        <time>2022-10-01T08:57:21Z</time>
      </trkpt>
      <trkpt lat="47.14073" lon="7.32875">
        <ele>430.3</ele>
        <time>2022-10-01T08:57:22Z</time>
      </trkpt>
      <trkpt lat="47.14075" lon="7.32884">
        <ele>430.3</ele>
        <time>2022-10-01T08:57:23Z</time>
      </trkpt>
      <trkpt lat="47.14078" lon="7.32892">
        <ele>430.2</ele>
        <time>2022-10-01T08:57:24Z</time>
      </trkpt>
      <trkpt lat="47.14081" lon="7.32901">
        <ele>430.2</ele>
        <time>2022-10-01T08:57:25Z</time>
      </trkpt>
      <trkpt lat="47.14083" lon="7.3291">
        <ele>430.2</ele>
        <time>2022-10-01T08:57:26Z</time>
      </trkpt>
      <trkpt lat="47.14086" lon="7.32919">
        <ele>430.2</ele>
        <time>2022-10-01T08:57:27Z</time>
      </trkpt>
      <trkpt lat="47.14088" lon="7.32927">
        <ele>430.1</ele>
        <time>2022-10-01T08:57:28Z</time>
      </trkpt>
      <trkpt lat="47.14091" lon="7.32936">
        <ele>430.1</ele>
        <time>2022-10-01T08:57:29Z</time>
      </trkpt>
      <trkpt lat="47.14094" lon="7.32945">
        <ele>430.1</ele>
        <time>2022-10-01T08:57:30Z</time>
      </trkpt>
      <trkpt lat="47.14096" lon="7.32954">
        <ele>430</ele>
        <time>2022-10-01T08:57:31Z</time>
      </trkpt>
      <trkpt lat="47.141" lon="7.32963">
        <ele>430</ele>
        <time>2022-10-01T08:57:32Z</time>
      </trkpt>
      <trkpt lat="47.14102" lon="7.32972">
        <ele>430</ele>
        <time>2022-10-01T08:57:33Z</time>
      </trkpt>
      <trkpt lat="47.14105" lon="7.32981">
        <ele>429.9</ele>
        <time>2022-10-01T08:57:34Z</time>
      </trkpt>
      <trkpt lat="47.14108" lon="7.32989">
        <ele>429.9</ele>
        <time>2022-10-01T08:57:35Z</time>
      </trkpt>
      <trkpt lat="47.1411" lon="7.32998">
        <ele>429.9</ele>
        <time>2022-10-01T08:57:36Z</time>
      </trkpt>
      <trkpt lat="47.14113" lon="7.33007">
        <ele>429.9</ele>
        <time>2022-10-01T08:57:37Z</time>
      </trkpt>
      <trkpt lat="47.14115" lon="7.33016">
        <ele>429.9</ele>
        <time>2022-10-01T08:57:38Z</time>
      </trkpt>
      <trkpt lat="47.14118" lon="7.33024">
        <ele>429.9</ele>
        <time>2022-10-01T08:57:39Z</time>
      </trkpt>
      <trkpt lat="47.14121" lon="7.33033">
        <ele>429.9</ele>
        <time>2022-10-01T08:57:40Z</time>
      </trkpt>
      <trkpt lat="47.14124" lon="7.33041">
        <ele>429.9</ele>
        <time>2022-10-01T08:57:41Z</time>
      </trkpt>
      <trkpt lat="47.14126" lon="7.33049">
        <ele>429.8</ele>
        <time>2022-10-01T08:57:42Z</time>
      </trkpt>
      <trkpt lat="47.14129" lon="7.33058">
        <ele>429.8</ele>
        <time>2022-10-01T08:57:43Z</time>
      </trkpt>
      <trkpt lat="47.14131" lon="7.33066">
        <ele>429.8</ele>
        <time>2022-10-01T08:57:44Z</time>
      </trkpt>
      <trkpt lat="47.14134" lon="7.33075">
        <ele>429.7</ele>
        <time>2022-10-01T08:57:45Z</time>
      </trkpt>
      <trkpt lat="47.14137" lon="7.33083">
        <ele>429.7</ele>
        <time>2022-10-01T08:57:46Z</time>
      </trkpt>
      <trkpt lat="47.1414" lon="7.33091">
        <ele>429.7</ele>
        <time>2022-10-01T08:57:47Z</time>
      </trkpt>
      <trkpt lat="47.14142" lon="7.33099">
        <ele>429.7</ele>
        <time>2022-10-01T08:57:48Z</time>
      </trkpt>
      <trkpt lat="47.14145" lon="7.33108">
        <ele>429.6</ele>
        <time>2022-10-01T08:57:49Z</time>
      </trkpt>
      <trkpt lat="47.14147" lon="7.33116">
        <ele>429.6</ele>
        <time>2022-10-01T08:57:50Z</time>
      </trkpt>
      <trkpt lat="47.1415" lon="7.33125">
        <ele>429.5</ele>
        <time>2022-10-01T08:57:51Z</time>
      </trkpt>
      <trkpt lat="47.14153" lon="7.33133">
        <ele>429.5</ele>
        <time>2022-10-01T08:57:52Z</time>
      </trkpt>
      <trkpt lat="47.14155" lon="7.33141">
        <ele>429.5</ele>
        <time>2022-10-01T08:57:53Z</time>
      </trkpt>
      <trkpt lat="47.14158" lon="7.33149">
        <ele>429.5</ele>
        <time>2022-10-01T08:57:54Z</time>
      </trkpt>
      <trkpt lat="47.14161" lon="7.33158">
        <ele>429.6</ele>
        <time>2022-10-01T08:57:55Z</time>
      </trkpt>
      <trkpt lat="47.14163" lon="7.33166">
        <ele>429.6</ele>
        <time>2022-10-01T08:57:56Z</time>
      </trkpt>
      <trkpt lat="47.14165" lon="7.33174">
        <ele>429.6</ele>
        <time>2022-10-01T08:57:57Z</time>
      </trkpt>
      <trkpt lat="47.14169" lon="7.33182">
        <ele>429.6</ele>
        <time>2022-10-01T08:57:58Z</time>
      </trkpt>
      <trkpt lat="47.1417" lon="7.3319">
        <ele>429.6</ele>
        <time>2022-10-01T08:57:59Z</time>
      </trkpt>
      <trkpt lat="47.14172" lon="7.33198">
        <ele>429.6</ele>
        <time>2022-10-01T08:58:00Z</time>
      </trkpt>
      <trkpt lat="47.14175" lon="7.33206">
        <ele>429.6</ele>
        <time>2022-10-01T08:58:01Z</time>
      </trkpt>
      <trkpt lat="47.14177" lon="7.33215">
        <ele>429.7</ele>
        <time>2022-10-01T08:58:02Z</time>
      </trkpt>
      <trkpt lat="47.1418" lon="7.33223">
        <ele>429.7</ele>
        <time>2022-10-01T08:58:03Z</time>
      </trkpt>
      <trkpt lat="47.14182" lon="7.33231">
        <ele>429.7</ele>
        <time>2022-10-01T08:58:04Z</time>
      </trkpt>
      <trkpt lat="47.14185" lon="7.33239">
        <ele>429.7</ele>
        <time>2022-10-01T08:58:05Z</time>
      </trkpt>
      <trkpt lat="47.14188" lon="7.33248">
        <ele>429.7</ele>
        <time>2022-10-01T08:58:06Z</time>
      </trkpt>
      <trkpt lat="47.1419" lon="7.33255">
        <ele>429.7</ele>
        <time>2022-10-01T08:58:07Z</time>
      </trkpt>
      <trkpt lat="47.14192" lon="7.33263">
        <ele>429.7</ele>
        <time>2022-10-01T08:58:08Z</time>
      </trkpt>
      <trkpt lat="47.14195" lon="7.33271">
        <ele>429.7</ele>
        <time>2022-10-01T08:58:09Z</time>
      </trkpt>
      <trkpt lat="47.14198" lon="7.33278">
        <ele>429.8</ele>
        <time>2022-10-01T08:58:10Z</time>
      </trkpt>
      <trkpt lat="47.142" lon="7.33286">
        <ele>429.8</ele>
        <time>2022-10-01T08:58:11Z</time>
      </trkpt>
      <trkpt lat="47.14203" lon="7.33293">
        <ele>429.8</ele>
        <time>2022-10-01T08:58:12Z</time>
      </trkpt>
      <trkpt lat="47.14205" lon="7.333">
        <ele>429.8</ele>
        <time>2022-10-01T08:58:13Z</time>
      </trkpt>
      <trkpt lat="47.14208" lon="7.33309">
        <ele>429.8</ele>
        <time>2022-10-01T08:58:14Z</time>
      </trkpt>
      <trkpt lat="47.1421" lon="7.33316">
        <ele>429.7</ele>
        <time>2022-10-01T08:58:15Z</time>
      </trkpt>
      <trkpt lat="47.14212" lon="7.33324">
        <ele>429.7</ele>
        <time>2022-10-01T08:58:16Z</time>
      </trkpt>
      <trkpt lat="47.14215" lon="7.33332">
        <ele>429.7</ele>
        <time>2022-10-01T08:58:17Z</time>
      </trkpt>
      <trkpt lat="47.14217" lon="7.33341">
        <ele>429.7</ele>
        <time>2022-10-01T08:58:18Z</time>
      </trkpt>
      <trkpt lat="47.1422" lon="7.33348">
        <ele>429.6</ele>
        <time>2022-10-01T08:58:19Z</time>
      </trkpt>
      <trkpt lat="47.14222" lon="7.33356">
        <ele>429.6</ele>
        <time>2022-10-01T08:58:20Z</time>
      </trkpt>
      <trkpt lat="47.14225" lon="7.33365">
        <ele>429.6</ele>
        <time>2022-10-01T08:58:21Z</time>
      </trkpt>
      <trkpt lat="47.14228" lon="7.33373">
        <ele>429.5</ele>
        <time>2022-10-01T08:58:22Z</time>
      </trkpt>
      <trkpt lat="47.14229" lon="7.33381">
        <ele>429.5</ele>
        <time>2022-10-01T08:58:23Z</time>
      </trkpt>
      <trkpt lat="47.14232" lon="7.3339">
        <ele>429.5</ele>
        <time>2022-10-01T08:58:24Z</time>
      </trkpt>
      <trkpt lat="47.14234" lon="7.33398">
        <ele>429.5</ele>
        <time>2022-10-01T08:58:25Z</time>
      </trkpt>
      <trkpt lat="47.14236" lon="7.33406">
        <ele>429.5</ele>
        <time>2022-10-01T08:58:26Z</time>
      </trkpt>
      <trkpt lat="47.14238" lon="7.33415">
        <ele>429.5</ele>
        <time>2022-10-01T08:58:27Z</time>
      </trkpt>
      <trkpt lat="47.14241" lon="7.33423">
        <ele>429.4</ele>
        <time>2022-10-01T08:58:28Z</time>
      </trkpt>
      <trkpt lat="47.14243" lon="7.33431">
        <ele>429.4</ele>
        <time>2022-10-01T08:58:29Z</time>
      </trkpt>
      <trkpt lat="47.14246" lon="7.3344">
        <ele>429.4</ele>
        <time>2022-10-01T08:58:30Z</time>
      </trkpt>
      <trkpt lat="47.14248" lon="7.33449">
        <ele>429.3</ele>
        <time>2022-10-01T08:58:31Z</time>
      </trkpt>
      <trkpt lat="47.1425" lon="7.33457">
        <ele>429.3</ele>
        <time>2022-10-01T08:58:32Z</time>
      </trkpt>
      <trkpt lat="47.14252" lon="7.33468">
        <ele>429.3</ele>
        <time>2022-10-01T08:58:33Z</time>
      </trkpt>
      <trkpt lat="47.14255" lon="7.33477">
        <ele>429.3</ele>
        <time>2022-10-01T08:58:34Z</time>
      </trkpt>
      <trkpt lat="47.14257" lon="7.33485">
        <ele>429.3</ele>
        <time>2022-10-01T08:58:35Z</time>
      </trkpt>
      <trkpt lat="47.14259" lon="7.33493">
        <ele>429.3</ele>
        <time>2022-10-01T08:58:36Z</time>
      </trkpt>
      <trkpt lat="47.14262" lon="7.33502">
        <ele>429.3</ele>
        <time>2022-10-01T08:58:37Z</time>
      </trkpt>
      <trkpt lat="47.14263" lon="7.33511">
        <ele>429.3</ele>
        <time>2022-10-01T08:58:38Z</time>
      </trkpt>
      <trkpt lat="47.14265" lon="7.3352">
        <ele>429.3</ele>
        <time>2022-10-01T08:58:39Z</time>
      </trkpt>
      <trkpt lat="47.14268" lon="7.33529">
        <ele>429.4</ele>
        <time>2022-10-01T08:58:40Z</time>
      </trkpt>
      <trkpt lat="47.1427" lon="7.33536">
        <ele>429.4</ele>
        <time>2022-10-01T08:58:41Z</time>
      </trkpt>
      <trkpt lat="47.14272" lon="7.33546">
        <ele>429.4</ele>
        <time>2022-10-01T08:58:42Z</time>
      </trkpt>
      <trkpt lat="47.14274" lon="7.33555">
        <ele>429.4</ele>
        <time>2022-10-01T08:58:43Z</time>
      </trkpt>
      <trkpt lat="47.14276" lon="7.33563">
        <ele>429.4</ele>
        <time>2022-10-01T08:58:44Z</time>
      </trkpt>
      <trkpt lat="47.14278" lon="7.33572">
        <ele>429.4</ele>
        <time>2022-10-01T08:58:45Z</time>
      </trkpt>
      <trkpt lat="47.1428" lon="7.33581">
        <ele>429.4</ele>
        <time>2022-10-01T08:58:46Z</time>
      </trkpt>
      <trkpt lat="47.14281" lon="7.33588">
        <ele>429.4</ele>
        <time>2022-10-01T08:58:47Z</time>
      </trkpt>
      <trkpt lat="47.14283" lon="7.33598">
        <ele>429.4</ele>
        <time>2022-10-01T08:58:48Z</time>
      </trkpt>
      <trkpt lat="47.14284" lon="7.33606">
        <ele>429.4</ele>
        <time>2022-10-01T08:58:49Z</time>
      </trkpt>
      <trkpt lat="47.14286" lon="7.33615">
        <ele>429.4</ele>
        <time>2022-10-01T08:58:50Z</time>
      </trkpt>
      <trkpt lat="47.14287" lon="7.33623">
        <ele>429.4</ele>
        <time>2022-10-01T08:58:51Z</time>
      </trkpt>
      <trkpt lat="47.14289" lon="7.33632">
        <ele>429.5</ele>
        <time>2022-10-01T08:58:52Z</time>
      </trkpt>
      <trkpt lat="47.1429" lon="7.33641">
        <ele>429.5</ele>
        <time>2022-10-01T08:58:53Z</time>
      </trkpt>
      <trkpt lat="47.14291" lon="7.33649">
        <ele>429.5</ele>
        <time>2022-10-01T08:58:54Z</time>
      </trkpt>
      <trkpt lat="47.14293" lon="7.33658">
        <ele>429.5</ele>
        <time>2022-10-01T08:58:55Z</time>
      </trkpt>
      <trkpt lat="47.14294" lon="7.33666">
        <ele>429.4</ele>
        <time>2022-10-01T08:58:56Z</time>
      </trkpt>
      <trkpt lat="47.14295" lon="7.33675">
        <ele>429.4</ele>
        <time>2022-10-01T08:58:57Z</time>
      </trkpt>
      <trkpt lat="47.14296" lon="7.33683">
        <ele>429.4</ele>
        <time>2022-10-01T08:58:58Z</time>
      </trkpt>
      <trkpt lat="47.14298" lon="7.33692">
        <ele>429.4</ele>
        <time>2022-10-01T08:58:59Z</time>
      </trkpt>
      <trkpt lat="47.14299" lon="7.33701">
        <ele>429.4</ele>
        <time>2022-10-01T08:59:00Z</time>
      </trkpt>
      <trkpt lat="47.143" lon="7.3371">
        <ele>429.4</ele>
        <time>2022-10-01T08:59:01Z</time>
      </trkpt>
      <trkpt lat="47.14301" lon="7.33718">
        <ele>429.4</ele>
        <time>2022-10-01T08:59:02Z</time>
      </trkpt>
      <trkpt lat="47.14302" lon="7.33727">
        <ele>429.5</ele>
        <time>2022-10-01T08:59:03Z</time>
      </trkpt>
      <trkpt lat="47.14303" lon="7.33735">
        <ele>429.5</ele>
        <time>2022-10-01T08:59:04Z</time>
      </trkpt>
      <trkpt lat="47.14304" lon="7.33744">
        <ele>429.5</ele>
        <time>2022-10-01T08:59:05Z</time>
      </trkpt>
      <trkpt lat="47.14305" lon="7.33753">
        <ele>429.5</ele>
        <time>2022-10-01T08:59:06Z</time>
      </trkpt>
      <trkpt lat="47.14306" lon="7.33761">
        <ele>429.5</ele>
        <time>2022-10-01T08:59:07Z</time>
      </trkpt>
      <trkpt lat="47.14307" lon="7.3377">
        <ele>429.5</ele>
        <time>2022-10-01T08:59:08Z</time>
      </trkpt>
      <trkpt lat="47.14309" lon="7.33778">
        <ele>429.5</ele>
        <time>2022-10-01T08:59:09Z</time>
      </trkpt>
      <trkpt lat="47.14309" lon="7.33786">
        <ele>429.5</ele>
        <time>2022-10-01T08:59:10Z</time>
      </trkpt>
      <trkpt lat="47.1431" lon="7.33795">
        <ele>429.6</ele>
        <time>2022-10-01T08:59:11Z</time>
      </trkpt>
      <trkpt lat="47.14311" lon="7.33803">
        <ele>429.6</ele>
        <time>2022-10-01T08:59:12Z</time>
      </trkpt>
      <trkpt lat="47.14311" lon="7.33812">
        <ele>429.6</ele>
        <time>2022-10-01T08:59:13Z</time>
      </trkpt>
      <trkpt lat="47.14312" lon="7.3382">
        <ele>429.6</ele>
        <time>2022-10-01T08:59:14Z</time>
      </trkpt>
      <trkpt lat="47.14313" lon="7.33829">
        <ele>429.6</ele>
        <time>2022-10-01T08:59:15Z</time>
      </trkpt>
      <trkpt lat="47.14313" lon="7.33838">
        <ele>429.6</ele>
        <time>2022-10-01T08:59:16Z</time>
      </trkpt>
      <trkpt lat="47.14314" lon="7.33846">
        <ele>429.6</ele>
        <time>2022-10-01T08:59:17Z</time>
      </trkpt>
      <trkpt lat="47.14315" lon="7.33854">
        <ele>429.6</ele>
        <time>2022-10-01T08:59:18Z</time>
      </trkpt>
      <trkpt lat="47.14316" lon="7.33862">
        <ele>429.6</ele>
        <time>2022-10-01T08:59:19Z</time>
      </trkpt>
      <trkpt lat="47.14317" lon="7.3387">
        <ele>429.6</ele>
        <time>2022-10-01T08:59:20Z</time>
      </trkpt>
      <trkpt lat="47.14317" lon="7.3388">
        <ele>429.6</ele>
        <time>2022-10-01T08:59:21Z</time>
      </trkpt>
      <trkpt lat="47.14317" lon="7.33889">
        <ele>429.6</ele>
        <time>2022-10-01T08:59:22Z</time>
      </trkpt>
      <trkpt lat="47.14317" lon="7.33898">
        <ele>429.6</ele>
        <time>2022-10-01T08:59:23Z</time>
      </trkpt>
      <trkpt lat="47.14318" lon="7.33907">
        <ele>429.6</ele>
        <time>2022-10-01T08:59:24Z</time>
      </trkpt>
      <trkpt lat="47.14318" lon="7.33915">
        <ele>429.6</ele>
        <time>2022-10-01T08:59:25Z</time>
      </trkpt>
      <trkpt lat="47.14319" lon="7.33924">
        <ele>429.5</ele>
        <time>2022-10-01T08:59:26Z</time>
      </trkpt>
      <trkpt lat="47.14319" lon="7.33933">
        <ele>429.5</ele>
        <time>2022-10-01T08:59:27Z</time>
      </trkpt>
      <trkpt lat="47.14319" lon="7.33942">
        <ele>429.5</ele>
        <time>2022-10-01T08:59:28Z</time>
      </trkpt>
      <trkpt lat="47.14319" lon="7.33951">
        <ele>429.5</ele>
        <time>2022-10-01T08:59:29Z</time>
      </trkpt>
      <trkpt lat="47.1432" lon="7.3396">
        <ele>429.5</ele>
        <time>2022-10-01T08:59:30Z</time>
      </trkpt>
      <trkpt lat="47.14319" lon="7.33968">
        <ele>429.5</ele>
        <time>2022-10-01T08:59:31Z</time>
      </trkpt>
      <trkpt lat="47.14319" lon="7.33977">
        <ele>429.5</ele>
        <time>2022-10-01T08:59:32Z</time>
      </trkpt>
      <trkpt lat="47.1432" lon="7.33985">
        <ele>429.5</ele>
        <time>2022-10-01T08:59:33Z</time>
      </trkpt>
      <trkpt lat="47.1432" lon="7.33994">
        <ele>429.4</ele>
        <time>2022-10-01T08:59:34Z</time>
      </trkpt>
      <trkpt lat="47.1432" lon="7.34003">
        <ele>429.4</ele>
        <time>2022-10-01T08:59:35Z</time>
      </trkpt>
      <trkpt lat="47.1432" lon="7.34011">
        <ele>429.4</ele>
        <time>2022-10-01T08:59:36Z</time>
      </trkpt>
      <trkpt lat="47.14321" lon="7.3402">
        <ele>429.4</ele>
        <time>2022-10-01T08:59:37Z</time>
      </trkpt>
      <trkpt lat="47.1432" lon="7.34029">
        <ele>429.4</ele>
        <time>2022-10-01T08:59:38Z</time>
      </trkpt>
      <trkpt lat="47.1432" lon="7.34037">
        <ele>429.4</ele>
        <time>2022-10-01T08:59:39Z</time>
      </trkpt>
      <trkpt lat="47.1432" lon="7.34046">
        <ele>429.4</ele>
        <time>2022-10-01T08:59:40Z</time>
      </trkpt>
      <trkpt lat="47.1432" lon="7.34055">
        <ele>429.4</ele>
        <time>2022-10-01T08:59:41Z</time>
      </trkpt>
      <trkpt lat="47.1432" lon="7.34064">
        <ele>429.4</ele>
        <time>2022-10-01T08:59:42Z</time>
      </trkpt>
      <trkpt lat="47.1432" lon="7.3407">
        <ele>429.4</ele>
        <time>2022-10-01T08:59:43Z</time>
      </trkpt>
      <trkpt lat="47.1432" lon="7.34078">
        <ele>429.4</ele>
        <time>2022-10-01T08:59:44Z</time>
      </trkpt>
      <trkpt lat="47.1432" lon="7.34085">
        <ele>429.4</ele>
        <time>2022-10-01T08:59:45Z</time>
      </trkpt>
      <trkpt lat="47.1432" lon="7.34094">
        <ele>429.4</ele>
        <time>2022-10-01T08:59:46Z</time>
      </trkpt>
      <trkpt lat="47.1432" lon="7.34103">
        <ele>429.4</ele>
        <time>2022-10-01T08:59:47Z</time>
      </trkpt>
      <trkpt lat="47.14319" lon="7.34109">
        <ele>429.4</ele>
        <time>2022-10-01T08:59:48Z</time>
      </trkpt>
      <trkpt lat="47.14319" lon="7.34118">
        <ele>429.4</ele>
        <time>2022-10-01T08:59:49Z</time>
      </trkpt>
      <trkpt lat="47.1432" lon="7.34126">
        <ele>429.4</ele>
        <time>2022-10-01T08:59:50Z</time>
      </trkpt>
      <trkpt lat="47.14319" lon="7.34134">
        <ele>429.4</ele>
        <time>2022-10-01T08:59:51Z</time>
      </trkpt>
      <trkpt lat="47.14319" lon="7.34142">
        <ele>429.4</ele>
        <time>2022-10-01T08:59:52Z</time>
      </trkpt>
      <trkpt lat="47.14318" lon="7.34151">
        <ele>429.4</ele>
        <time>2022-10-01T08:59:53Z</time>
      </trkpt>
      <trkpt lat="47.14318" lon="7.34158">
        <ele>429.4</ele>
        <time>2022-10-01T08:59:54Z</time>
      </trkpt>
      <trkpt lat="47.14318" lon="7.34166">
        <ele>429.4</ele>
        <time>2022-10-01T08:59:55Z</time>
      </trkpt>
      <trkpt lat="47.14317" lon="7.34173">
        <ele>429.3</ele>
        <time>2022-10-01T08:59:56Z</time>
      </trkpt>
      <trkpt lat="47.14317" lon="7.34182">
        <ele>429.3</ele>
        <time>2022-10-01T08:59:57Z</time>
      </trkpt>
      <trkpt lat="47.14317" lon="7.34192">
        <ele>429.3</ele>
        <time>2022-10-01T08:59:58Z</time>
      </trkpt>
      <trkpt lat="47.14317" lon="7.34201">
        <ele>429.3</ele>
        <time>2022-10-01T08:59:59Z</time>
      </trkpt>
      <trkpt lat="47.14317" lon="7.34209">
        <ele>429.3</ele>
        <time>2022-10-01T09:00:00Z</time>
      </trkpt>
      <trkpt lat="47.14317" lon="7.34218">
        <ele>429.3</ele>
        <time>2022-10-01T09:00:01Z</time>
      </trkpt>
      <trkpt lat="47.14316" lon="7.34226">
        <ele>429.3</ele>
        <time>2022-10-01T09:00:02Z</time>
      </trkpt>
      <trkpt lat="47.14316" lon="7.34235">
        <ele>429.3</ele>
        <time>2022-10-01T09:00:03Z</time>
      </trkpt>
      <trkpt lat="47.14317" lon="7.34243">
        <ele>429.3</ele>
        <time>2022-10-01T09:00:04Z</time>
      </trkpt>
      <trkpt lat="47.14316" lon="7.34251">
        <ele>429.3</ele>
        <time>2022-10-01T09:00:05Z</time>
      </trkpt>
      <trkpt lat="47.14316" lon="7.34259">
        <ele>429.3</ele>
        <time>2022-10-01T09:00:06Z</time>
      </trkpt>
      <trkpt lat="47.14316" lon="7.34267">
        <ele>429.3</ele>
        <time>2022-10-01T09:00:07Z</time>
      </trkpt>
      <trkpt lat="47.14315" lon="7.34275">
        <ele>429.3</ele>
        <time>2022-10-01T09:00:08Z</time>
      </trkpt>
      <trkpt lat="47.14315" lon="7.34284">
        <ele>429.3</ele>
        <time>2022-10-01T09:00:09Z</time>
      </trkpt>
      <trkpt lat="47.14315" lon="7.34293">
        <ele>429.4</ele>
        <time>2022-10-01T09:00:10Z</time>
      </trkpt>
      <trkpt lat="47.14315" lon="7.34301">
        <ele>429.4</ele>
        <time>2022-10-01T09:00:11Z</time>
      </trkpt>
      <trkpt lat="47.14314" lon="7.3431">
        <ele>429.4</ele>
        <time>2022-10-01T09:00:12Z</time>
      </trkpt>
      <trkpt lat="47.14314" lon="7.34318">
        <ele>429.4</ele>
        <time>2022-10-01T09:00:13Z</time>
      </trkpt>
      <trkpt lat="47.14314" lon="7.34326">
        <ele>429.4</ele>
        <time>2022-10-01T09:00:14Z</time>
      </trkpt>
      <trkpt lat="47.14314" lon="7.34335">
        <ele>429.4</ele>
        <time>2022-10-01T09:00:15Z</time>
      </trkpt>
      <trkpt lat="47.14314" lon="7.34343">
        <ele>429.4</ele>
        <time>2022-10-01T09:00:16Z</time>
      </trkpt>
      <trkpt lat="47.14314" lon="7.34351">
        <ele>429.4</ele>
        <time>2022-10-01T09:00:17Z</time>
      </trkpt>
      <trkpt lat="47.14314" lon="7.3436">
        <ele>429.4</ele>
        <time>2022-10-01T09:00:18Z</time>
      </trkpt>
      <trkpt lat="47.14313" lon="7.34368">
        <ele>429.4</ele>
        <time>2022-10-01T09:00:19Z</time>
      </trkpt>
      <trkpt lat="47.14313" lon="7.34376">
        <ele>429.4</ele>
        <time>2022-10-01T09:00:20Z</time>
      </trkpt>
      <trkpt lat="47.14312" lon="7.34384">
        <ele>429.3</ele>
        <time>2022-10-01T09:00:21Z</time>
      </trkpt>
      <trkpt lat="47.14313" lon="7.34392">
        <ele>429.3</ele>
        <time>2022-10-01T09:00:22Z</time>
      </trkpt>
      <trkpt lat="47.14313" lon="7.34401">
        <ele>429.3</ele>
        <time>2022-10-01T09:00:23Z</time>
      </trkpt>
      <trkpt lat="47.14312" lon="7.34409">
        <ele>429.3</ele>
        <time>2022-10-01T09:00:24Z</time>
      </trkpt>
      <trkpt lat="47.14312" lon="7.34418">
        <ele>429.4</ele>
        <time>2022-10-01T09:00:25Z</time>
      </trkpt>
      <trkpt lat="47.14312" lon="7.34426">
        <ele>429.4</ele>
        <time>2022-10-01T09:00:26Z</time>
      </trkpt>
      <trkpt lat="47.14312" lon="7.34435">
        <ele>429.4</ele>
        <time>2022-10-01T09:00:27Z</time>
      </trkpt>
      <trkpt lat="47.14312" lon="7.34443">
        <ele>429.4</ele>
        <time>2022-10-01T09:00:28Z</time>
      </trkpt>
      <trkpt lat="47.14312" lon="7.34451">
        <ele>429.4</ele>
        <time>2022-10-01T09:00:29Z</time>
      </trkpt>
      <trkpt lat="47.14312" lon="7.34459">
        <ele>429.4</ele>
        <time>2022-10-01T09:00:30Z</time>
      </trkpt>
      <trkpt lat="47.14312" lon="7.34468">
        <ele>429.4</ele>
        <time>2022-10-01T09:00:31Z</time>
      </trkpt>
      <trkpt lat="47.14311" lon="7.34476">
        <ele>429.5</ele>
        <time>2022-10-01T09:00:32Z</time>
      </trkpt>
      <trkpt lat="47.14311" lon="7.34485">
        <ele>429.5</ele>
        <time>2022-10-01T09:00:33Z</time>
      </trkpt>
      <trkpt lat="47.14311" lon="7.34493">
        <ele>429.5</ele>
        <time>2022-10-01T09:00:34Z</time>
      </trkpt>
      <trkpt lat="47.14311" lon="7.34501">
        <ele>429.4</ele>
        <time>2022-10-01T09:00:35Z</time>
      </trkpt>
      <trkpt lat="47.1431" lon="7.3451">
        <ele>429.4</ele>
        <time>2022-10-01T09:00:36Z</time>
      </trkpt>
      <trkpt lat="47.1431" lon="7.3452">
        <ele>429.4</ele>
        <time>2022-10-01T09:00:37Z</time>
      </trkpt>
      <trkpt lat="47.14311" lon="7.34527">
        <ele>429.4</ele>
        <time>2022-10-01T09:00:38Z</time>
      </trkpt>
      <trkpt lat="47.1431" lon="7.34536">
        <ele>429.4</ele>
        <time>2022-10-01T09:00:39Z</time>
      </trkpt>
      <trkpt lat="47.1431" lon="7.34545">
        <ele>429.4</ele>
        <time>2022-10-01T09:00:40Z</time>
      </trkpt>
      <trkpt lat="47.1431" lon="7.34553">
        <ele>429.5</ele>
        <time>2022-10-01T09:00:41Z</time>
      </trkpt>
      <trkpt lat="47.14309" lon="7.34562">
        <ele>429.5</ele>
        <time>2022-10-01T09:00:42Z</time>
      </trkpt>
      <trkpt lat="47.14309" lon="7.3457">
        <ele>429.5</ele>
        <time>2022-10-01T09:00:43Z</time>
      </trkpt>
      <trkpt lat="47.14309" lon="7.34579">
        <ele>429.5</ele>
        <time>2022-10-01T09:00:44Z</time>
      </trkpt>
      <trkpt lat="47.14309" lon="7.34587">
        <ele>429.6</ele>
        <time>2022-10-01T09:00:45Z</time>
      </trkpt>
      <trkpt lat="47.14308" lon="7.34596">
        <ele>429.6</ele>
        <time>2022-10-01T09:00:46Z</time>
      </trkpt>
      <trkpt lat="47.14308" lon="7.34605">
        <ele>429.6</ele>
        <time>2022-10-01T09:00:47Z</time>
      </trkpt>
      <trkpt lat="47.14308" lon="7.34613">
        <ele>429.6</ele>
        <time>2022-10-01T09:00:48Z</time>
      </trkpt>
      <trkpt lat="47.14308" lon="7.34623">
        <ele>429.6</ele>
        <time>2022-10-01T09:00:49Z</time>
      </trkpt>
      <trkpt lat="47.14308" lon="7.34631">
        <ele>429.7</ele>
        <time>2022-10-01T09:00:50Z</time>
      </trkpt>
      <trkpt lat="47.14308" lon="7.3464">
        <ele>429.7</ele>
        <time>2022-10-01T09:00:51Z</time>
      </trkpt>
      <trkpt lat="47.14307" lon="7.34649">
        <ele>429.8</ele>
        <time>2022-10-01T09:00:52Z</time>
      </trkpt>
      <trkpt lat="47.14307" lon="7.34657">
        <ele>429.8</ele>
        <time>2022-10-01T09:00:53Z</time>
      </trkpt>
      <trkpt lat="47.14307" lon="7.34666">
        <ele>429.8</ele>
        <time>2022-10-01T09:00:54Z</time>
      </trkpt>
      <trkpt lat="47.14306" lon="7.34674">
        <ele>429.9</ele>
        <time>2022-10-01T09:00:55Z</time>
      </trkpt>
      <trkpt lat="47.14306" lon="7.34683">
        <ele>429.9</ele>
        <time>2022-10-01T09:00:56Z</time>
      </trkpt>
      <trkpt lat="47.14306" lon="7.34691">
        <ele>430</ele>
        <time>2022-10-01T09:00:57Z</time>
      </trkpt>
      <trkpt lat="47.14306" lon="7.34699">
        <ele>430.1</ele>
        <time>2022-10-01T09:00:58Z</time>
      </trkpt>
      <trkpt lat="47.14305" lon="7.34708">
        <ele>430.2</ele>
        <time>2022-10-01T09:00:59Z</time>
      </trkpt>
      <trkpt lat="47.14305" lon="7.34717">
        <ele>430.3</ele>
        <time>2022-10-01T09:01:00Z</time>
      </trkpt>
      <trkpt lat="47.14305" lon="7.34725">
        <ele>430.3</ele>
        <time>2022-10-01T09:01:01Z</time>
      </trkpt>
      <trkpt lat="47.14305" lon="7.34733">
        <ele>430.4</ele>
        <time>2022-10-01T09:01:02Z</time>
      </trkpt>
      <trkpt lat="47.14305" lon="7.3474">
        <ele>430.5</ele>
        <time>2022-10-01T09:01:03Z</time>
      </trkpt>
      <trkpt lat="47.14304" lon="7.34748">
        <ele>430.5</ele>
        <time>2022-10-01T09:01:04Z</time>
      </trkpt>
      <trkpt lat="47.14304" lon="7.34757">
        <ele>430.6</ele>
        <time>2022-10-01T09:01:05Z</time>
      </trkpt>
      <trkpt lat="47.14304" lon="7.34764">
        <ele>430.7</ele>
        <time>2022-10-01T09:01:06Z</time>
      </trkpt>
      <trkpt lat="47.14304" lon="7.34773">
        <ele>430.7</ele>
        <time>2022-10-01T09:01:07Z</time>
      </trkpt>
      <trkpt lat="47.14303" lon="7.3478">
        <ele>430.8</ele>
        <time>2022-10-01T09:01:08Z</time>
      </trkpt>
      <trkpt lat="47.14303" lon="7.34787">
        <ele>430.8</ele>
        <time>2022-10-01T09:01:09Z</time>
      </trkpt>
      <trkpt lat="47.14303" lon="7.34795">
        <ele>430.8</ele>
        <time>2022-10-01T09:01:10Z</time>
      </trkpt>
      <trkpt lat="47.14303" lon="7.34802">
        <ele>430.9</ele>
        <time>2022-10-01T09:01:11Z</time>
      </trkpt>
      <trkpt lat="47.14303" lon="7.3481">
        <ele>430.9</ele>
        <time>2022-10-01T09:01:12Z</time>
      </trkpt>
      <trkpt lat="47.14302" lon="7.34818">
        <ele>430.9</ele>
        <time>2022-10-01T09:01:13Z</time>
      </trkpt>
      <trkpt lat="47.14301" lon="7.34826">
        <ele>430.9</ele>
        <time>2022-10-01T09:01:14Z</time>
      </trkpt>
      <trkpt lat="47.14301" lon="7.34833">
        <ele>430.9</ele>
        <time>2022-10-01T09:01:15Z</time>
      </trkpt>
      <trkpt lat="47.14301" lon="7.34841">
        <ele>430.9</ele>
        <time>2022-10-01T09:01:16Z</time>
      </trkpt>
      <trkpt lat="47.143" lon="7.3485">
        <ele>430.9</ele>
        <time>2022-10-01T09:01:17Z</time>
      </trkpt>
      <trkpt lat="47.143" lon="7.34858">
        <ele>430.9</ele>
        <time>2022-10-01T09:01:18Z</time>
      </trkpt>
      <trkpt lat="47.143" lon="7.34866">
        <ele>430.9</ele>
        <time>2022-10-01T09:01:19Z</time>
      </trkpt>
      <trkpt lat="47.143" lon="7.34875">
        <ele>430.9</ele>
        <time>2022-10-01T09:01:20Z</time>
      </trkpt>
      <trkpt lat="47.14299" lon="7.34882">
        <ele>430.8</ele>
        <time>2022-10-01T09:01:21Z</time>
      </trkpt>
      <trkpt lat="47.14299" lon="7.3489">
        <ele>430.8</ele>
        <time>2022-10-01T09:01:22Z</time>
      </trkpt>
      <trkpt lat="47.14298" lon="7.34899">
        <ele>430.8</ele>
        <time>2022-10-01T09:01:23Z</time>
      </trkpt>
      <trkpt lat="47.14298" lon="7.34907">
        <ele>430.8</ele>
        <time>2022-10-01T09:01:24Z</time>
      </trkpt>
      <trkpt lat="47.14298" lon="7.34915">
        <ele>430.8</ele>
        <time>2022-10-01T09:01:25Z</time>
      </trkpt>
      <trkpt lat="47.14298" lon="7.34923">
        <ele>430.7</ele>
        <time>2022-10-01T09:01:26Z</time>
      </trkpt>
      <trkpt lat="47.14298" lon="7.34932">
        <ele>430.7</ele>
        <time>2022-10-01T09:01:27Z</time>
      </trkpt>
      <trkpt lat="47.14297" lon="7.3494">
        <ele>430.7</ele>
        <time>2022-10-01T09:01:28Z</time>
      </trkpt>
      <trkpt lat="47.14296" lon="7.34949">
        <ele>430.7</ele>
        <time>2022-10-01T09:01:29Z</time>
      </trkpt>
      <trkpt lat="47.14297" lon="7.34957">
        <ele>430.7</ele>
        <time>2022-10-01T09:01:30Z</time>
      </trkpt>
      <trkpt lat="47.14296" lon="7.34965">
        <ele>430.7</ele>
        <time>2022-10-01T09:01:31Z</time>
      </trkpt>
      <trkpt lat="47.14296" lon="7.34974">
        <ele>430.7</ele>
        <time>2022-10-01T09:01:32Z</time>
      </trkpt>
      <trkpt lat="47.14296" lon="7.34982">
        <ele>430.7</ele>
        <time>2022-10-01T09:01:33Z</time>
      </trkpt>
      <trkpt lat="47.14296" lon="7.34989">
        <ele>430.7</ele>
        <time>2022-10-01T09:01:34Z</time>
      </trkpt>
      <trkpt lat="47.14296" lon="7.34997">
        <ele>430.8</ele>
        <time>2022-10-01T09:01:35Z</time>
      </trkpt>
      <trkpt lat="47.14295" lon="7.35006">
        <ele>430.8</ele>
        <time>2022-10-01T09:01:36Z</time>
      </trkpt>
      <trkpt lat="47.14295" lon="7.35014">
        <ele>430.8</ele>
        <time>2022-10-01T09:01:37Z</time>
      </trkpt>
      <trkpt lat="47.14295" lon="7.35022">
        <ele>430.8</ele>
        <time>2022-10-01T09:01:38Z</time>
      </trkpt>
      <trkpt lat="47.14295" lon="7.35029">
        <ele>430.9</ele>
        <time>2022-10-01T09:01:39Z</time>
      </trkpt>
      <trkpt lat="47.14294" lon="7.35038">
        <ele>430.9</ele>
        <time>2022-10-01T09:01:40Z</time>
      </trkpt>
      <trkpt lat="47.14294" lon="7.35045">
        <ele>430.9</ele>
        <time>2022-10-01T09:01:41Z</time>
      </trkpt>
      <trkpt lat="47.14294" lon="7.35052">
        <ele>431</ele>
        <time>2022-10-01T09:01:42Z</time>
      </trkpt>
      <trkpt lat="47.14295" lon="7.3506">
        <ele>431</ele>
        <time>2022-10-01T09:01:43Z</time>
      </trkpt>
      <trkpt lat="47.14294" lon="7.35067">
        <ele>431</ele>
        <time>2022-10-01T09:01:44Z</time>
      </trkpt>
      <trkpt lat="47.14293" lon="7.35075">
        <ele>431</ele>
        <time>2022-10-01T09:01:45Z</time>
      </trkpt>
      <trkpt lat="47.14293" lon="7.35084">
        <ele>430.9</ele>
        <time>2022-10-01T09:01:46Z</time>
      </trkpt>
      <trkpt lat="47.14293" lon="7.35092">
        <ele>430.9</ele>
        <time>2022-10-01T09:01:47Z</time>
      </trkpt>
      <trkpt lat="47.14293" lon="7.35099">
        <ele>430.9</ele>
        <time>2022-10-01T09:01:48Z</time>
      </trkpt>
      <trkpt lat="47.14292" lon="7.35108">
        <ele>430.9</ele>
        <time>2022-10-01T09:01:49Z</time>
      </trkpt>
      <trkpt lat="47.14293" lon="7.35116">
        <ele>430.9</ele>
        <time>2022-10-01T09:01:50Z</time>
      </trkpt>
      <trkpt lat="47.14292" lon="7.35123">
        <ele>430.9</ele>
        <time>2022-10-01T09:01:51Z</time>
      </trkpt>
      <trkpt lat="47.14292" lon="7.35131">
        <ele>430.9</ele>
        <time>2022-10-01T09:01:52Z</time>
      </trkpt>
      <trkpt lat="47.14292" lon="7.3514">
        <ele>430.9</ele>
        <time>2022-10-01T09:01:53Z</time>
      </trkpt>
      <trkpt lat="47.14292" lon="7.35148">
        <ele>430.8</ele>
        <time>2022-10-01T09:01:54Z</time>
      </trkpt>
      <trkpt lat="47.14292" lon="7.35156">
        <ele>430.8</ele>
        <time>2022-10-01T09:01:55Z</time>
      </trkpt>
      <trkpt lat="47.14291" lon="7.35164">
        <ele>430.8</ele>
        <time>2022-10-01T09:01:56Z</time>
      </trkpt>
      <trkpt lat="47.14291" lon="7.35173">
        <ele>430.8</ele>
        <time>2022-10-01T09:01:57Z</time>
      </trkpt>
      <trkpt lat="47.14291" lon="7.35181">
        <ele>430.8</ele>
        <time>2022-10-01T09:01:58Z</time>
      </trkpt>
      <trkpt lat="47.14291" lon="7.35189">
        <ele>430.7</ele>
        <time>2022-10-01T09:01:59Z</time>
      </trkpt>
      <trkpt lat="47.14291" lon="7.35198">
        <ele>430.6</ele>
        <time>2022-10-01T09:02:00Z</time>
      </trkpt>
      <trkpt lat="47.1429" lon="7.35206">
        <ele>430.6</ele>
        <time>2022-10-01T09:02:01Z</time>
      </trkpt>
      <trkpt lat="47.1429" lon="7.35215">
        <ele>430.6</ele>
        <time>2022-10-01T09:02:02Z</time>
      </trkpt>
      <trkpt lat="47.14289" lon="7.35224">
        <ele>430.6</ele>
        <time>2022-10-01T09:02:03Z</time>
      </trkpt>
      <trkpt lat="47.14289" lon="7.35231">
        <ele>430.6</ele>
        <time>2022-10-01T09:02:04Z</time>
      </trkpt>
      <trkpt lat="47.14288" lon="7.35239">
        <ele>430.6</ele>
        <time>2022-10-01T09:02:05Z</time>
      </trkpt>
      <trkpt lat="47.14288" lon="7.35247">
        <ele>430.6</ele>
        <time>2022-10-01T09:02:06Z</time>
      </trkpt>
      <trkpt lat="47.14288" lon="7.35256">
        <ele>430.6</ele>
        <time>2022-10-01T09:02:07Z</time>
      </trkpt>
      <trkpt lat="47.14288" lon="7.35264">
        <ele>430.6</ele>
        <time>2022-10-01T09:02:08Z</time>
      </trkpt>
      <trkpt lat="47.14287" lon="7.35271">
        <ele>430.6</ele>
        <time>2022-10-01T09:02:09Z</time>
      </trkpt>
      <trkpt lat="47.14287" lon="7.35279">
        <ele>430.6</ele>
        <time>2022-10-01T09:02:10Z</time>
      </trkpt>
      <trkpt lat="47.14287" lon="7.35287">
        <ele>430.6</ele>
        <time>2022-10-01T09:02:11Z</time>
      </trkpt>
      <trkpt lat="47.14287" lon="7.35295">
        <ele>430.6</ele>
        <time>2022-10-01T09:02:12Z</time>
      </trkpt>
      <trkpt lat="47.14286" lon="7.35302">
        <ele>430.6</ele>
        <time>2022-10-01T09:02:13Z</time>
      </trkpt>
      <trkpt lat="47.14286" lon="7.35309">
        <ele>430.6</ele>
        <time>2022-10-01T09:02:14Z</time>
      </trkpt>
      <trkpt lat="47.14285" lon="7.35318">
        <ele>430.6</ele>
        <time>2022-10-01T09:02:15Z</time>
      </trkpt>
      <trkpt lat="47.14286" lon="7.35324">
        <ele>430.6</ele>
        <time>2022-10-01T09:02:16Z</time>
      </trkpt>
      <trkpt lat="47.14286" lon="7.35332">
        <ele>430.6</ele>
        <time>2022-10-01T09:02:17Z</time>
      </trkpt>
      <trkpt lat="47.14286" lon="7.35339">
        <ele>430.6</ele>
        <time>2022-10-01T09:02:18Z</time>
      </trkpt>
      <trkpt lat="47.14285" lon="7.35346">
        <ele>430.6</ele>
        <time>2022-10-01T09:02:19Z</time>
      </trkpt>
      <trkpt lat="47.14285" lon="7.35354">
        <ele>430.6</ele>
        <time>2022-10-01T09:02:20Z</time>
      </trkpt>
      <trkpt lat="47.14285" lon="7.3536">
        <ele>430.6</ele>
        <time>2022-10-01T09:02:21Z</time>
      </trkpt>
      <trkpt lat="47.14285" lon="7.35368">
        <ele>430.6</ele>
        <time>2022-10-01T09:02:22Z</time>
      </trkpt>
      <trkpt lat="47.14284" lon="7.35375">
        <ele>430.6</ele>
        <time>2022-10-01T09:02:23Z</time>
      </trkpt>
      <trkpt lat="47.14284" lon="7.35382">
        <ele>430.6</ele>
        <time>2022-10-01T09:02:24Z</time>
      </trkpt>
      <trkpt lat="47.14284" lon="7.3539">
        <ele>430.6</ele>
        <time>2022-10-01T09:02:25Z</time>
      </trkpt>
      <trkpt lat="47.14283" lon="7.35397">
        <ele>430.7</ele>
        <time>2022-10-01T09:02:26Z</time>
      </trkpt>
      <trkpt lat="47.14282" lon="7.35403">
        <ele>430.7</ele>
        <time>2022-10-01T09:02:27Z</time>
      </trkpt>
      <trkpt lat="47.14282" lon="7.3541">
        <ele>430.7</ele>
        <time>2022-10-01T09:02:28Z</time>
      </trkpt>
      <trkpt lat="47.14282" lon="7.35418">
        <ele>430.7</ele>
        <time>2022-10-01T09:02:29Z</time>
      </trkpt>
      <trkpt lat="47.14282" lon="7.35427">
        <ele>430.7</ele>
        <time>2022-10-01T09:02:30Z</time>
      </trkpt>
      <trkpt lat="47.14282" lon="7.35434">
        <ele>430.7</ele>
        <time>2022-10-01T09:02:31Z</time>
      </trkpt>
      <trkpt lat="47.14281" lon="7.35441">
        <ele>430.7</ele>
        <time>2022-10-01T09:02:32Z</time>
      </trkpt>
      <trkpt lat="47.14282" lon="7.35448">
        <ele>430.7</ele>
        <time>2022-10-01T09:02:33Z</time>
      </trkpt>
      <trkpt lat="47.14281" lon="7.35454">
        <ele>430.7</ele>
        <time>2022-10-01T09:02:34Z</time>
      </trkpt>
      <trkpt lat="47.1428" lon="7.35464">
        <ele>430.7</ele>
        <time>2022-10-01T09:02:35Z</time>
      </trkpt>
      <trkpt lat="47.14281" lon="7.35471">
        <ele>430.7</ele>
        <time>2022-10-01T09:02:36Z</time>
      </trkpt>
      <trkpt lat="47.14281" lon="7.35479">
        <ele>430.7</ele>
        <time>2022-10-01T09:02:37Z</time>
      </trkpt>
      <trkpt lat="47.1428" lon="7.35486">
        <ele>430.7</ele>
        <time>2022-10-01T09:02:38Z</time>
      </trkpt>
      <trkpt lat="47.14279" lon="7.35492">
        <ele>430.7</ele>
        <time>2022-10-01T09:02:39Z</time>
      </trkpt>
      <trkpt lat="47.1428" lon="7.35501">
        <ele>430.7</ele>
        <time>2022-10-01T09:02:40Z</time>
      </trkpt>
      <trkpt lat="47.1428" lon="7.35509">
        <ele>430.7</ele>
        <time>2022-10-01T09:02:41Z</time>
      </trkpt>
      <trkpt lat="47.14279" lon="7.35516">
        <ele>430.7</ele>
        <time>2022-10-01T09:02:42Z</time>
      </trkpt>
      <trkpt lat="47.14279" lon="7.35525">
        <ele>430.7</ele>
        <time>2022-10-01T09:02:43Z</time>
      </trkpt>
      <trkpt lat="47.14279" lon="7.35533">
        <ele>430.7</ele>
        <time>2022-10-01T09:02:44Z</time>
      </trkpt>
      <trkpt lat="47.14279" lon="7.3554">
        <ele>430.7</ele>
        <time>2022-10-01T09:02:45Z</time>
      </trkpt>
      <trkpt lat="47.14279" lon="7.35548">
        <ele>430.7</ele>
        <time>2022-10-01T09:02:46Z</time>
      </trkpt>
      <trkpt lat="47.14278" lon="7.35556">
        <ele>430.7</ele>
        <time>2022-10-01T09:02:47Z</time>
      </trkpt>
      <trkpt lat="47.14277" lon="7.35564">
        <ele>430.7</ele>
        <time>2022-10-01T09:02:48Z</time>
      </trkpt>
      <trkpt lat="47.14278" lon="7.35572">
        <ele>430.7</ele>
        <time>2022-10-01T09:02:49Z</time>
      </trkpt>
      <trkpt lat="47.14277" lon="7.3558">
        <ele>430.7</ele>
        <time>2022-10-01T09:02:50Z</time>
      </trkpt>
      <trkpt lat="47.14278" lon="7.35587">
        <ele>430.7</ele>
        <time>2022-10-01T09:02:51Z</time>
      </trkpt>
      <trkpt lat="47.14277" lon="7.35594">
        <ele>430.7</ele>
        <time>2022-10-01T09:02:52Z</time>
      </trkpt>
      <trkpt lat="47.14276" lon="7.35602">
        <ele>430.7</ele>
        <time>2022-10-01T09:02:53Z</time>
      </trkpt>
      <trkpt lat="47.14276" lon="7.35609">
        <ele>430.7</ele>
        <time>2022-10-01T09:02:54Z</time>
      </trkpt>
      <trkpt lat="47.14276" lon="7.35617">
        <ele>430.7</ele>
        <time>2022-10-01T09:02:55Z</time>
      </trkpt>
      <trkpt lat="47.14276" lon="7.35626">
        <ele>430.7</ele>
        <time>2022-10-01T09:02:56Z</time>
      </trkpt>
      <trkpt lat="47.14276" lon="7.35634">
        <ele>430.7</ele>
        <time>2022-10-01T09:02:57Z</time>
      </trkpt>
      <trkpt lat="47.14276" lon="7.35642">
        <ele>430.7</ele>
        <time>2022-10-01T09:02:58Z</time>
      </trkpt>
      <trkpt lat="47.14276" lon="7.3565">
        <ele>430.7</ele>
        <time>2022-10-01T09:02:59Z</time>
      </trkpt>
      <trkpt lat="47.14276" lon="7.35658">
        <ele>430.7</ele>
        <time>2022-10-01T09:03:00Z</time>
      </trkpt>
      <trkpt lat="47.14276" lon="7.35668">
        <ele>430.6</ele>
        <time>2022-10-01T09:03:01Z</time>
      </trkpt>
      <trkpt lat="47.14276" lon="7.35677">
        <ele>430.6</ele>
        <time>2022-10-01T09:03:02Z</time>
      </trkpt>
      <trkpt lat="47.14276" lon="7.35686">
        <ele>430.6</ele>
        <time>2022-10-01T09:03:03Z</time>
      </trkpt>
      <trkpt lat="47.14275" lon="7.35694">
        <ele>430.6</ele>
        <time>2022-10-01T09:03:04Z</time>
      </trkpt>
      <trkpt lat="47.14275" lon="7.35703">
        <ele>430.6</ele>
        <time>2022-10-01T09:03:05Z</time>
      </trkpt>
      <trkpt lat="47.14275" lon="7.35712">
        <ele>430.6</ele>
        <time>2022-10-01T09:03:06Z</time>
      </trkpt>
      <trkpt lat="47.14274" lon="7.3572">
        <ele>430.6</ele>
        <time>2022-10-01T09:03:07Z</time>
      </trkpt>
      <trkpt lat="47.14274" lon="7.35729">
        <ele>430.6</ele>
        <time>2022-10-01T09:03:08Z</time>
      </trkpt>
      <trkpt lat="47.14273" lon="7.35738">
        <ele>430.7</ele>
        <time>2022-10-01T09:03:09Z</time>
      </trkpt>
      <trkpt lat="47.14273" lon="7.35747">
        <ele>430.7</ele>
        <time>2022-10-01T09:03:10Z</time>
      </trkpt>
      <trkpt lat="47.14273" lon="7.35755">
        <ele>430.7</ele>
        <time>2022-10-01T09:03:11Z</time>
      </trkpt>
      <trkpt lat="47.14273" lon="7.35763">
        <ele>430.7</ele>
        <time>2022-10-01T09:03:12Z</time>
      </trkpt>
      <trkpt lat="47.14273" lon="7.3577">
        <ele>430.8</ele>
        <time>2022-10-01T09:03:13Z</time>
      </trkpt>
      <trkpt lat="47.14272" lon="7.35778">
        <ele>430.8</ele>
        <time>2022-10-01T09:03:14Z</time>
      </trkpt>
      <trkpt lat="47.14272" lon="7.35786">
        <ele>430.8</ele>
        <time>2022-10-01T09:03:15Z</time>
      </trkpt>
      <trkpt lat="47.14273" lon="7.35793">
        <ele>430.8</ele>
        <time>2022-10-01T09:03:16Z</time>
      </trkpt>
      <trkpt lat="47.14271" lon="7.35801">
        <ele>430.8</ele>
        <time>2022-10-01T09:03:17Z</time>
      </trkpt>
      <trkpt lat="47.14271" lon="7.35809">
        <ele>430.8</ele>
        <time>2022-10-01T09:03:18Z</time>
      </trkpt>
      <trkpt lat="47.14271" lon="7.35817">
        <ele>430.8</ele>
        <time>2022-10-01T09:03:19Z</time>
      </trkpt>
      <trkpt lat="47.1427" lon="7.35823">
        <ele>430.8</ele>
        <time>2022-10-01T09:03:20Z</time>
      </trkpt>
      <trkpt lat="47.1427" lon="7.3583">
        <ele>430.8</ele>
        <time>2022-10-01T09:03:21Z</time>
      </trkpt>
      <trkpt lat="47.1427" lon="7.35837">
        <ele>430.8</ele>
        <time>2022-10-01T09:03:22Z</time>
      </trkpt>
      <trkpt lat="47.1427" lon="7.35845">
        <ele>430.8</ele>
        <time>2022-10-01T09:03:23Z</time>
      </trkpt>
      <trkpt lat="47.1427" lon="7.35853">
        <ele>430.8</ele>
        <time>2022-10-01T09:03:24Z</time>
      </trkpt>
      <trkpt lat="47.1427" lon="7.35861">
        <ele>430.8</ele>
        <time>2022-10-01T09:03:25Z</time>
      </trkpt>
      <trkpt lat="47.1427" lon="7.35868">
        <ele>430.8</ele>
        <time>2022-10-01T09:03:26Z</time>
      </trkpt>
      <trkpt lat="47.14269" lon="7.35875">
        <ele>430.8</ele>
        <time>2022-10-01T09:03:27Z</time>
      </trkpt>
      <trkpt lat="47.14269" lon="7.35884">
        <ele>430.7</ele>
        <time>2022-10-01T09:03:28Z</time>
      </trkpt>
      <trkpt lat="47.14269" lon="7.3589">
        <ele>430.7</ele>
        <time>2022-10-01T09:03:29Z</time>
      </trkpt>
      <trkpt lat="47.14269" lon="7.35899">
        <ele>430.7</ele>
        <time>2022-10-01T09:03:30Z</time>
      </trkpt>
      <trkpt lat="47.14269" lon="7.35906">
        <ele>430.7</ele>
        <time>2022-10-01T09:03:31Z</time>
      </trkpt>
      <trkpt lat="47.14268" lon="7.35914">
        <ele>430.7</ele>
        <time>2022-10-01T09:03:32Z</time>
      </trkpt>
      <trkpt lat="47.14268" lon="7.35921">
        <ele>430.7</ele>
        <time>2022-10-01T09:03:33Z</time>
      </trkpt>
      <trkpt lat="47.14268" lon="7.35929">
        <ele>430.7</ele>
        <time>2022-10-01T09:03:34Z</time>
      </trkpt>
      <trkpt lat="47.14268" lon="7.35936">
        <ele>430.7</ele>
        <time>2022-10-01T09:03:35Z</time>
      </trkpt>
      <trkpt lat="47.14268" lon="7.35944">
        <ele>430.7</ele>
        <time>2022-10-01T09:03:36Z</time>
      </trkpt>
      <trkpt lat="47.14267" lon="7.35953">
        <ele>430.7</ele>
        <time>2022-10-01T09:03:37Z</time>
      </trkpt>
      <trkpt lat="47.14267" lon="7.3596">
        <ele>430.7</ele>
        <time>2022-10-01T09:03:38Z</time>
      </trkpt>
      <trkpt lat="47.14267" lon="7.35968">
        <ele>430.7</ele>
        <time>2022-10-01T09:03:39Z</time>
      </trkpt>
      <trkpt lat="47.14266" lon="7.35977">
        <ele>430.7</ele>
        <time>2022-10-01T09:03:40Z</time>
      </trkpt>
      <trkpt lat="47.14266" lon="7.35985">
        <ele>430.6</ele>
        <time>2022-10-01T09:03:41Z</time>
      </trkpt>
      <trkpt lat="47.14266" lon="7.35993">
        <ele>430.6</ele>
        <time>2022-10-01T09:03:42Z</time>
      </trkpt>
      <trkpt lat="47.14266" lon="7.36002">
        <ele>430.6</ele>
        <time>2022-10-01T09:03:43Z</time>
      </trkpt>
      <trkpt lat="47.14266" lon="7.36009">
        <ele>430.6</ele>
        <time>2022-10-01T09:03:44Z</time>
      </trkpt>
      <trkpt lat="47.14265" lon="7.36018">
        <ele>430.6</ele>
        <time>2022-10-01T09:03:45Z</time>
      </trkpt>
      <trkpt lat="47.14265" lon="7.36026">
        <ele>430.6</ele>
        <time>2022-10-01T09:03:46Z</time>
      </trkpt>
      <trkpt lat="47.14265" lon="7.36035">
        <ele>430.6</ele>
        <time>2022-10-01T09:03:47Z</time>
      </trkpt>
      <trkpt lat="47.14264" lon="7.36042">
        <ele>430.6</ele>
        <time>2022-10-01T09:03:48Z</time>
      </trkpt>
      <trkpt lat="47.14264" lon="7.3605">
        <ele>430.6</ele>
        <time>2022-10-01T09:03:49Z</time>
      </trkpt>
      <trkpt lat="47.14264" lon="7.36058">
        <ele>430.6</ele>
        <time>2022-10-01T09:03:50Z</time>
      </trkpt>
      <trkpt lat="47.14264" lon="7.36067">
        <ele>430.6</ele>
        <time>2022-10-01T09:03:51Z</time>
      </trkpt>
      <trkpt lat="47.14264" lon="7.36075">
        <ele>430.6</ele>
        <time>2022-10-01T09:03:52Z</time>
      </trkpt>
      <trkpt lat="47.14264" lon="7.36083">
        <ele>430.6</ele>
        <time>2022-10-01T09:03:53Z</time>
      </trkpt>
      <trkpt lat="47.14264" lon="7.36091">
        <ele>430.6</ele>
        <time>2022-10-01T09:03:54Z</time>
      </trkpt>
      <trkpt lat="47.14263" lon="7.36098">
        <ele>430.6</ele>
        <time>2022-10-01T09:03:55Z</time>
      </trkpt>
      <trkpt lat="47.14262" lon="7.36107">
        <ele>430.6</ele>
        <time>2022-10-01T09:03:56Z</time>
      </trkpt>
      <trkpt lat="47.14262" lon="7.36114">
        <ele>430.6</ele>
        <time>2022-10-01T09:03:57Z</time>
      </trkpt>
      <trkpt lat="47.14262" lon="7.36123">
        <ele>430.6</ele>
        <time>2022-10-01T09:03:58Z</time>
      </trkpt>
      <trkpt lat="47.14262" lon="7.3613">
        <ele>430.6</ele>
        <time>2022-10-01T09:03:59Z</time>
      </trkpt>
      <trkpt lat="47.14262" lon="7.3614">
        <ele>430.6</ele>
        <time>2022-10-01T09:04:00Z</time>
      </trkpt>
      <trkpt lat="47.14262" lon="7.36146">
        <ele>430.6</ele>
        <time>2022-10-01T09:04:01Z</time>
      </trkpt>
      <trkpt lat="47.14261" lon="7.36155">
        <ele>430.6</ele>
        <time>2022-10-01T09:04:02Z</time>
      </trkpt>
      <trkpt lat="47.14261" lon="7.36163">
        <ele>430.6</ele>
        <time>2022-10-01T09:04:03Z</time>
      </trkpt>
      <trkpt lat="47.14261" lon="7.36171">
        <ele>430.6</ele>
        <time>2022-10-01T09:04:04Z</time>
      </trkpt>
      <trkpt lat="47.14261" lon="7.36179">
        <ele>430.6</ele>
        <time>2022-10-01T09:04:05Z</time>
      </trkpt>
      <trkpt lat="47.14261" lon="7.36187">
        <ele>430.6</ele>
        <time>2022-10-01T09:04:06Z</time>
      </trkpt>
      <trkpt lat="47.14261" lon="7.36195">
        <ele>430.6</ele>
        <time>2022-10-01T09:04:07Z</time>
      </trkpt>
      <trkpt lat="47.14261" lon="7.36202">
        <ele>430.6</ele>
        <time>2022-10-01T09:04:08Z</time>
      </trkpt>
      <trkpt lat="47.1426" lon="7.3621">
        <ele>430.6</ele>
        <time>2022-10-01T09:04:09Z</time>
      </trkpt>
      <trkpt lat="47.1426" lon="7.36217">
        <ele>430.6</ele>
        <time>2022-10-01T09:04:10Z</time>
      </trkpt>
      <trkpt lat="47.14259" lon="7.36224">
        <ele>430.6</ele>
        <time>2022-10-01T09:04:11Z</time>
      </trkpt>
      <trkpt lat="47.14259" lon="7.36232">
        <ele>430.6</ele>
        <time>2022-10-01T09:04:12Z</time>
      </trkpt>
      <trkpt lat="47.14258" lon="7.36239">
        <ele>430.6</ele>
        <time>2022-10-01T09:04:13Z</time>
      </trkpt>
      <trkpt lat="47.14258" lon="7.36247">
        <ele>430.6</ele>
        <time>2022-10-01T09:04:14Z</time>
      </trkpt>
      <trkpt lat="47.14257" lon="7.36256">
        <ele>430.6</ele>
        <time>2022-10-01T09:04:15Z</time>
      </trkpt>
      <trkpt lat="47.14257" lon="7.36263">
        <ele>430.6</ele>
        <time>2022-10-01T09:04:16Z</time>
      </trkpt>
      <trkpt lat="47.14257" lon="7.3627">
        <ele>430.6</ele>
        <time>2022-10-01T09:04:17Z</time>
      </trkpt>
      <trkpt lat="47.14256" lon="7.36279">
        <ele>430.6</ele>
        <time>2022-10-01T09:04:18Z</time>
      </trkpt>
      <trkpt lat="47.14256" lon="7.36286">
        <ele>430.6</ele>
        <time>2022-10-01T09:04:19Z</time>
      </trkpt>
      <trkpt lat="47.14256" lon="7.36294">
        <ele>430.6</ele>
        <time>2022-10-01T09:04:20Z</time>
      </trkpt>
      <trkpt lat="47.14255" lon="7.363">
        <ele>430.6</ele>
        <time>2022-10-01T09:04:21Z</time>
      </trkpt>
      <trkpt lat="47.14254" lon="7.36307">
        <ele>430.6</ele>
        <time>2022-10-01T09:04:22Z</time>
      </trkpt>
      <trkpt lat="47.14254" lon="7.36314">
        <ele>430.6</ele>
        <time>2022-10-01T09:04:23Z</time>
      </trkpt>
      <trkpt lat="47.14254" lon="7.36321">
        <ele>430.6</ele>
        <time>2022-10-01T09:04:24Z</time>
      </trkpt>
      <trkpt lat="47.14254" lon="7.36329">
        <ele>430.6</ele>
        <time>2022-10-01T09:04:25Z</time>
      </trkpt>
      <trkpt lat="47.14254" lon="7.36336">
        <ele>430.6</ele>
        <time>2022-10-01T09:04:26Z</time>
      </trkpt>
      <trkpt lat="47.14253" lon="7.36343">
        <ele>430.6</ele>
        <time>2022-10-01T09:04:27Z</time>
      </trkpt>
      <trkpt lat="47.14252" lon="7.36351">
        <ele>430.6</ele>
        <time>2022-10-01T09:04:28Z</time>
      </trkpt>
      <trkpt lat="47.14252" lon="7.36358">
        <ele>430.6</ele>
        <time>2022-10-01T09:04:29Z</time>
      </trkpt>
      <trkpt lat="47.14251" lon="7.36365">
        <ele>430.6</ele>
        <time>2022-10-01T09:04:30Z</time>
      </trkpt>
      <trkpt lat="47.1425" lon="7.36374">
        <ele>430.5</ele>
        <time>2022-10-01T09:04:31Z</time>
      </trkpt>
      <trkpt lat="47.1425" lon="7.36382">
        <ele>430.5</ele>
        <time>2022-10-01T09:04:32Z</time>
      </trkpt>
      <trkpt lat="47.1425" lon="7.36389">
        <ele>430.5</ele>
        <time>2022-10-01T09:04:33Z</time>
      </trkpt>
      <trkpt lat="47.14249" lon="7.36396">
        <ele>430.5</ele>
        <time>2022-10-01T09:04:34Z</time>
      </trkpt>
      <trkpt lat="47.14249" lon="7.36405">
        <ele>430.5</ele>
        <time>2022-10-01T09:04:35Z</time>
      </trkpt>
      <trkpt lat="47.14248" lon="7.36414">
        <ele>430.5</ele>
        <time>2022-10-01T09:04:36Z</time>
      </trkpt>
      <trkpt lat="47.14247" lon="7.36422">
        <ele>430.5</ele>
        <time>2022-10-01T09:04:37Z</time>
      </trkpt>
      <trkpt lat="47.14246" lon="7.3643">
        <ele>430.5</ele>
        <time>2022-10-01T09:04:38Z</time>
      </trkpt>
      <trkpt lat="47.14246" lon="7.36438">
        <ele>430.6</ele>
        <time>2022-10-01T09:04:39Z</time>
      </trkpt>
      <trkpt lat="47.14245" lon="7.36447">
        <ele>430.6</ele>
        <time>2022-10-01T09:04:40Z</time>
      </trkpt>
      <trkpt lat="47.14245" lon="7.36454">
        <ele>430.6</ele>
        <time>2022-10-01T09:04:41Z</time>
      </trkpt>
      <trkpt lat="47.14244" lon="7.36462">
        <ele>430.7</ele>
        <time>2022-10-01T09:04:42Z</time>
      </trkpt>
      <trkpt lat="47.14244" lon="7.3647">
        <ele>430.7</ele>
        <time>2022-10-01T09:04:43Z</time>
      </trkpt>
      <trkpt lat="47.14243" lon="7.36477">
        <ele>430.8</ele>
        <time>2022-10-01T09:04:44Z</time>
      </trkpt>
      <trkpt lat="47.14242" lon="7.36484">
        <ele>430.9</ele>
        <time>2022-10-01T09:04:45Z</time>
      </trkpt>
      <trkpt lat="47.14242" lon="7.36491">
        <ele>431</ele>
        <time>2022-10-01T09:04:46Z</time>
      </trkpt>
      <trkpt lat="47.14241" lon="7.36497">
        <ele>431.1</ele>
        <time>2022-10-01T09:04:47Z</time>
      </trkpt>
      <trkpt lat="47.14241" lon="7.36503">
        <ele>431.2</ele>
        <time>2022-10-01T09:04:48Z</time>
      </trkpt>
      <trkpt lat="47.14241" lon="7.36509">
        <ele>431.3</ele>
        <time>2022-10-01T09:04:49Z</time>
      </trkpt>
      <trkpt lat="47.14241" lon="7.36515">
        <ele>431.4</ele>
        <time>2022-10-01T09:04:50Z</time>
      </trkpt>
      <trkpt lat="47.14241" lon="7.3652">
        <ele>431.4</ele>
        <time>2022-10-01T09:04:51Z</time>
      </trkpt>
      <trkpt lat="47.14241" lon="7.36525">
        <ele>431.5</ele>
        <time>2022-10-01T09:04:52Z</time>
      </trkpt>
      <trkpt lat="47.14241" lon="7.36529">
        <ele>431.6</ele>
        <time>2022-10-01T09:04:53Z</time>
      </trkpt>
      <trkpt lat="47.14241" lon="7.36535">
        <ele>431.7</ele>
        <time>2022-10-01T09:04:54Z</time>
      </trkpt>
      <trkpt lat="47.14241" lon="7.36536">
        <ele>431.7</ele>
        <time>2022-10-01T09:04:55Z</time>
      </trkpt>
      <trkpt lat="47.14242" lon="7.36541">
        <ele>431.8</ele>
        <time>2022-10-01T09:04:56Z</time>
      </trkpt>
      <trkpt lat="47.14243" lon="7.36542">
        <ele>431.7</ele>
        <time>2022-10-01T09:04:57Z</time>
      </trkpt>
      <trkpt lat="47.14246" lon="7.36544">
        <ele>431.6</ele>
        <time>2022-10-01T09:04:58Z</time>
      </trkpt>
      <trkpt lat="47.1425" lon="7.3654">
        <ele>431.5</ele>
        <time>2022-10-01T09:04:59Z</time>
      </trkpt>
      <trkpt lat="47.14253" lon="7.36539">
        <ele>431.4</ele>
        <time>2022-10-01T09:05:00Z</time>
      </trkpt>
      <trkpt lat="47.14256" lon="7.3654">
        <ele>431.2</ele>
        <time>2022-10-01T09:05:01Z</time>
      </trkpt>
      <trkpt lat="47.14259" lon="7.36543">
        <ele>431.1</ele>
        <time>2022-10-01T09:05:02Z</time>
      </trkpt>
      <trkpt lat="47.1426" lon="7.36545">
        <ele>431</ele>
        <time>2022-10-01T09:05:03Z</time>
      </trkpt>
      <trkpt lat="47.1426" lon="7.36548">
        <ele>431</ele>
        <time>2022-10-01T09:05:04Z</time>
      </trkpt>
      <trkpt lat="47.14262" lon="7.3655">
        <ele>430.9</ele>
        <time>2022-10-01T09:05:05Z</time>
      </trkpt>
      <trkpt lat="47.14264" lon="7.36557">
        <ele>430.8</ele>
        <time>2022-10-01T09:05:06Z</time>
      </trkpt>
      <trkpt lat="47.14265" lon="7.36562">
        <ele>430.7</ele>
        <time>2022-10-01T09:05:07Z</time>
      </trkpt>
      <trkpt lat="47.14267" lon="7.36568">
        <ele>430.6</ele>
        <time>2022-10-01T09:05:08Z</time>
      </trkpt>
      <trkpt lat="47.14268" lon="7.36576">
        <ele>430.5</ele>
        <time>2022-10-01T09:05:09Z</time>
      </trkpt>
      <trkpt lat="47.14269" lon="7.36582">
        <ele>430.4</ele>
        <time>2022-10-01T09:05:10Z</time>
      </trkpt>
      <trkpt lat="47.14268" lon="7.36587">
        <ele>430.3</ele>
        <time>2022-10-01T09:05:11Z</time>
      </trkpt>
      <trkpt lat="47.14268" lon="7.36591">
        <ele>430.3</ele>
        <time>2022-10-01T09:05:12Z</time>
      </trkpt>
      <trkpt lat="47.14267" lon="7.36595">
        <ele>430.3</ele>
        <time>2022-10-01T09:05:13Z</time>
      </trkpt>
      <trkpt lat="47.14268" lon="7.36599">
        <ele>430.3</ele>
        <time>2022-10-01T09:05:14Z</time>
      </trkpt>
      <trkpt lat="47.14269" lon="7.36604">
        <ele>430.2</ele>
        <time>2022-10-01T09:05:15Z</time>
      </trkpt>
      <trkpt lat="47.14269" lon="7.36609">
        <ele>430.2</ele>
        <time>2022-10-01T09:05:16Z</time>
      </trkpt>
      <trkpt lat="47.14271" lon="7.36613">
        <ele>430.2</ele>
        <time>2022-10-01T09:05:17Z</time>
      </trkpt>
      <trkpt lat="47.14271" lon="7.36619">
        <ele>430.2</ele>
        <time>2022-10-01T09:05:18Z</time>
      </trkpt>
      <trkpt lat="47.14271" lon="7.3662">
        <ele>430.2</ele>
        <time>2022-10-01T09:05:19Z</time>
      </trkpt>
      <trkpt lat="47.14272" lon="7.36625">
        <ele>430.2</ele>
        <time>2022-10-01T09:05:20Z</time>
      </trkpt>
      <trkpt lat="47.14272" lon="7.36627">
        <ele>430.2</ele>
        <time>2022-10-01T09:05:21Z</time>
      </trkpt>
      <trkpt lat="47.14273" lon="7.36631">
        <ele>430.1</ele>
        <time>2022-10-01T09:05:22Z</time>
      </trkpt>
      <trkpt lat="47.14273" lon="7.36634">
        <ele>430.1</ele>
        <time>2022-10-01T09:05:23Z</time>
      </trkpt>
      <trkpt lat="47.14274" lon="7.36639">
        <ele>430.1</ele>
        <time>2022-10-01T09:05:24Z</time>
      </trkpt>
      <trkpt lat="47.14275" lon="7.36644">
        <ele>430</ele>
        <time>2022-10-01T09:05:25Z</time>
      </trkpt>
      <trkpt lat="47.14275" lon="7.36649">
        <ele>429.9</ele>
        <time>2022-10-01T09:05:26Z</time>
      </trkpt>
      <trkpt lat="47.14276" lon="7.36654">
        <ele>429.9</ele>
        <time>2022-10-01T09:05:27Z</time>
      </trkpt>
      <trkpt lat="47.14276" lon="7.36659">
        <ele>429.8</ele>
        <time>2022-10-01T09:05:28Z</time>
      </trkpt>
      <trkpt lat="47.14277" lon="7.36665">
        <ele>429.7</ele>
        <time>2022-10-01T09:05:29Z</time>
      </trkpt>
      <trkpt lat="47.14278" lon="7.3667">
        <ele>429.7</ele>
        <time>2022-10-01T09:05:30Z</time>
      </trkpt>
      <trkpt lat="47.14278" lon="7.36674">
        <ele>429.6</ele>
        <time>2022-10-01T09:05:31Z</time>
      </trkpt>
      <trkpt lat="47.14279" lon="7.36678">
        <ele>429.6</ele>
        <time>2022-10-01T09:05:32Z</time>
      </trkpt>
      <trkpt lat="47.1428" lon="7.36683">
        <ele>429.5</ele>
        <time>2022-10-01T09:05:33Z</time>
      </trkpt>
      <trkpt lat="47.1428" lon="7.36685">
        <ele>429.5</ele>
        <time>2022-10-01T09:05:34Z</time>
      </trkpt>
      <trkpt lat="47.14281" lon="7.3669">
        <ele>429.4</ele>
        <time>2022-10-01T09:05:35Z</time>
      </trkpt>
      <trkpt lat="47.14281" lon="7.36692">
        <ele>429.4</ele>
        <time>2022-10-01T09:05:36Z</time>
      </trkpt>
      <trkpt lat="47.14282" lon="7.36696">
        <ele>429.4</ele>
        <time>2022-10-01T09:05:37Z</time>
      </trkpt>
      <trkpt lat="47.14284" lon="7.36701">
        <ele>429.3</ele>
        <time>2022-10-01T09:05:38Z</time>
      </trkpt>
      <trkpt lat="47.14284" lon="7.36702">
        <ele>429.3</ele>
        <time>2022-10-01T09:05:39Z</time>
      </trkpt>
      <trkpt lat="47.14285" lon="7.36706">
        <ele>429.3</ele>
        <time>2022-10-01T09:05:40Z</time>
      </trkpt>
      <trkpt lat="47.14286" lon="7.36711">
        <ele>429.3</ele>
        <time>2022-10-01T09:05:41Z</time>
      </trkpt>
      <trkpt lat="47.14288" lon="7.36716">
        <ele>429.3</ele>
        <time>2022-10-01T09:05:42Z</time>
      </trkpt>
      <trkpt lat="47.1429" lon="7.3672">
        <ele>429.3</ele>
        <time>2022-10-01T09:05:43Z</time>
      </trkpt>
      <trkpt lat="47.14292" lon="7.36725">
        <ele>429.3</ele>
        <time>2022-10-01T09:05:44Z</time>
      </trkpt>
      <trkpt lat="47.14293" lon="7.3673">
        <ele>429.3</ele>
        <time>2022-10-01T09:05:45Z</time>
      </trkpt>
      <trkpt lat="47.14295" lon="7.36735">
        <ele>429.3</ele>
        <time>2022-10-01T09:05:46Z</time>
      </trkpt>
      <trkpt lat="47.14297" lon="7.36741">
        <ele>429.3</ele>
        <time>2022-10-01T09:05:47Z</time>
      </trkpt>
      <trkpt lat="47.14298" lon="7.36745">
        <ele>429.3</ele>
        <time>2022-10-01T09:05:48Z</time>
      </trkpt>
      <trkpt lat="47.143" lon="7.3675">
        <ele>429.3</ele>
        <time>2022-10-01T09:05:49Z</time>
      </trkpt>
      <trkpt lat="47.14302" lon="7.36756">
        <ele>429.3</ele>
        <time>2022-10-01T09:05:50Z</time>
      </trkpt>
      <trkpt lat="47.14304" lon="7.3676">
        <ele>429.3</ele>
        <time>2022-10-01T09:05:51Z</time>
      </trkpt>
      <trkpt lat="47.14306" lon="7.36765">
        <ele>429.4</ele>
        <time>2022-10-01T09:05:52Z</time>
      </trkpt>
      <trkpt lat="47.14309" lon="7.36769">
        <ele>429.4</ele>
        <time>2022-10-01T09:05:53Z</time>
      </trkpt>
      <trkpt lat="47.14311" lon="7.36774">
        <ele>429.4</ele>
        <time>2022-10-01T09:05:54Z</time>
      </trkpt>
      <trkpt lat="47.14314" lon="7.3678">
        <ele>429.4</ele>
        <time>2022-10-01T09:05:55Z</time>
      </trkpt>
      <trkpt lat="47.14315" lon="7.36785">
        <ele>429.5</ele>
        <time>2022-10-01T09:05:56Z</time>
      </trkpt>
      <trkpt lat="47.14317" lon="7.36792">
        <ele>429.5</ele>
        <time>2022-10-01T09:05:57Z</time>
      </trkpt>
      <trkpt lat="47.14319" lon="7.36796">
        <ele>429.5</ele>
        <time>2022-10-01T09:05:58Z</time>
      </trkpt>
      <trkpt lat="47.14322" lon="7.368">
        <ele>429.6</ele>
        <time>2022-10-01T09:05:59Z</time>
      </trkpt>
      <trkpt lat="47.14324" lon="7.36805">
        <ele>429.6</ele>
        <time>2022-10-01T09:06:00Z</time>
      </trkpt>
      <trkpt lat="47.14327" lon="7.36811">
        <ele>429.6</ele>
        <time>2022-10-01T09:06:01Z</time>
      </trkpt>
      <trkpt lat="47.1433" lon="7.36816">
        <ele>429.6</ele>
        <time>2022-10-01T09:06:02Z</time>
      </trkpt>
      <trkpt lat="47.14333" lon="7.3682">
        <ele>429.7</ele>
        <time>2022-10-01T09:06:03Z</time>
      </trkpt>
      <trkpt lat="47.14335" lon="7.36826">
        <ele>429.7</ele>
        <time>2022-10-01T09:06:04Z</time>
      </trkpt>
      <trkpt lat="47.14338" lon="7.36832">
        <ele>429.7</ele>
        <time>2022-10-01T09:06:05Z</time>
      </trkpt>
      <trkpt lat="47.1434" lon="7.36836">
        <ele>429.7</ele>
        <time>2022-10-01T09:06:06Z</time>
      </trkpt>
      <trkpt lat="47.14343" lon="7.36841">
        <ele>429.8</ele>
        <time>2022-10-01T09:06:07Z</time>
      </trkpt>
      <trkpt lat="47.14346" lon="7.36846">
        <ele>429.8</ele>
        <time>2022-10-01T09:06:08Z</time>
      </trkpt>
      <trkpt lat="47.1435" lon="7.36848">
        <ele>429.8</ele>
        <time>2022-10-01T09:06:09Z</time>
      </trkpt>
      <trkpt lat="47.14352" lon="7.36854">
        <ele>429.9</ele>
        <time>2022-10-01T09:06:10Z</time>
      </trkpt>
      <trkpt lat="47.14355" lon="7.36857">
        <ele>429.9</ele>
        <time>2022-10-01T09:06:11Z</time>
      </trkpt>
      <trkpt lat="47.14357" lon="7.36859">
        <ele>429.9</ele>
        <time>2022-10-01T09:06:12Z</time>
      </trkpt>
      <trkpt lat="47.14358" lon="7.36861">
        <ele>430</ele>
        <time>2022-10-01T09:06:13Z</time>
      </trkpt>
      <trkpt lat="47.14358" lon="7.36862">
        <ele>430</ele>
        <time>2022-10-01T09:06:14Z</time>
      </trkpt>
      <trkpt lat="47.14359" lon="7.36862">
        <ele>430</ele>
        <time>2022-10-01T09:06:15Z</time>
      </trkpt>
      <trkpt lat="47.14359" lon="7.36864">
        <ele>430</ele>
        <time>2022-10-01T09:06:16Z</time>
      </trkpt>
      <trkpt lat="47.1436" lon="7.36865">
        <ele>430</ele>
        <time>2022-10-01T09:06:17Z</time>
      </trkpt>
      <trkpt lat="47.1436" lon="7.36867">
        <ele>430</ele>
        <time>2022-10-01T09:06:18Z</time>
      </trkpt>
      <trkpt lat="47.14358" lon="7.36869">
        <ele>430</ele>
        <time>2022-10-01T09:06:19Z</time>
      </trkpt>
      <trkpt lat="47.14357" lon="7.36869">
        <ele>430</ele>
        <time>2022-10-01T09:06:20Z</time>
      </trkpt>
      <trkpt lat="47.14356" lon="7.36869">
        <ele>430</ele>
        <time>2022-10-01T09:06:21Z</time>
      </trkpt>
      <trkpt lat="47.14352" lon="7.36871">
        <ele>430</ele>
        <time>2022-10-01T09:06:22Z</time>
      </trkpt>
      <trkpt lat="47.14351" lon="7.36871">
        <ele>430</ele>
        <time>2022-10-01T09:06:23Z</time>
      </trkpt>
      <trkpt lat="47.14349" lon="7.36874">
        <ele>430</ele>
        <time>2022-10-01T09:06:24Z</time>
      </trkpt>
      <trkpt lat="47.14347" lon="7.36876">
        <ele>430</ele>
        <time>2022-10-01T09:06:25Z</time>
      </trkpt>
      <trkpt lat="47.14344" lon="7.36879">
        <ele>430</ele>
        <time>2022-10-01T09:06:26Z</time>
      </trkpt>
      <trkpt lat="47.14341" lon="7.36882">
        <ele>430</ele>
        <time>2022-10-01T09:06:27Z</time>
      </trkpt>
      <trkpt lat="47.14337" lon="7.36884">
        <ele>430</ele>
        <time>2022-10-01T09:06:28Z</time>
      </trkpt>
      <trkpt lat="47.14336" lon="7.36885">
        <ele>430</ele>
        <time>2022-10-01T09:06:29Z</time>
      </trkpt>
      <trkpt lat="47.14332" lon="7.36888">
        <ele>430</ele>
        <time>2022-10-01T09:06:30Z</time>
      </trkpt>
      <trkpt lat="47.14329" lon="7.36891">
        <ele>430</ele>
        <time>2022-10-01T09:06:31Z</time>
      </trkpt>
      <trkpt lat="47.14326" lon="7.36895">
        <ele>430</ele>
        <time>2022-10-01T09:06:32Z</time>
      </trkpt>
      <trkpt lat="47.14322" lon="7.36898">
        <ele>430</ele>
        <time>2022-10-01T09:06:33Z</time>
      </trkpt>
      <trkpt lat="47.14319" lon="7.36902">
        <ele>430</ele>
        <time>2022-10-01T09:06:34Z</time>
      </trkpt>
      <trkpt lat="47.14316" lon="7.36904">
        <ele>430</ele>
        <time>2022-10-01T09:06:35Z</time>
      </trkpt>
      <trkpt lat="47.14312" lon="7.36908">
        <ele>430</ele>
        <time>2022-10-01T09:06:36Z</time>
      </trkpt>
      <trkpt lat="47.14309" lon="7.36911">
        <ele>430</ele>
        <time>2022-10-01T09:06:37Z</time>
      </trkpt>
      <trkpt lat="47.14305" lon="7.36915">
        <ele>430.1</ele>
        <time>2022-10-01T09:06:38Z</time>
      </trkpt>
      <trkpt lat="47.14301" lon="7.36919">
        <ele>430.1</ele>
        <time>2022-10-01T09:06:39Z</time>
      </trkpt>
      <trkpt lat="47.14298" lon="7.36923">
        <ele>430.1</ele>
        <time>2022-10-01T09:06:40Z</time>
      </trkpt>
      <trkpt lat="47.14294" lon="7.36927">
        <ele>430.1</ele>
        <time>2022-10-01T09:06:41Z</time>
      </trkpt>
      <trkpt lat="47.14291" lon="7.36931">
        <ele>430.1</ele>
        <time>2022-10-01T09:06:42Z</time>
      </trkpt>
      <trkpt lat="47.14287" lon="7.36935">
        <ele>430.1</ele>
        <time>2022-10-01T09:06:43Z</time>
      </trkpt>
      <trkpt lat="47.14284" lon="7.3694">
        <ele>430.1</ele>
        <time>2022-10-01T09:06:44Z</time>
      </trkpt>
      <trkpt lat="47.1428" lon="7.36944">
        <ele>430.1</ele>
        <time>2022-10-01T09:06:45Z</time>
      </trkpt>
      <trkpt lat="47.14277" lon="7.36949">
        <ele>430.1</ele>
        <time>2022-10-01T09:06:46Z</time>
      </trkpt>
      <trkpt lat="47.14274" lon="7.36954">
        <ele>430.1</ele>
        <time>2022-10-01T09:06:47Z</time>
      </trkpt>
      <trkpt lat="47.1427" lon="7.36959">
        <ele>430.1</ele>
        <time>2022-10-01T09:06:48Z</time>
      </trkpt>
      <trkpt lat="47.14267" lon="7.36964">
        <ele>430.1</ele>
        <time>2022-10-01T09:06:49Z</time>
      </trkpt>
      <trkpt lat="47.14264" lon="7.36969">
        <ele>430.1</ele>
        <time>2022-10-01T09:06:50Z</time>
      </trkpt>
      <trkpt lat="47.1426" lon="7.36974">
        <ele>430.1</ele>
        <time>2022-10-01T09:06:51Z</time>
      </trkpt>
      <trkpt lat="47.14257" lon="7.36979">
        <ele>430.1</ele>
        <time>2022-10-01T09:06:52Z</time>
      </trkpt>
      <trkpt lat="47.14253" lon="7.36984">
        <ele>430.1</ele>
        <time>2022-10-01T09:06:53Z</time>
      </trkpt>
      <trkpt lat="47.1425" lon="7.36989">
        <ele>430.1</ele>
        <time>2022-10-01T09:06:54Z</time>
      </trkpt>
      <trkpt lat="47.14247" lon="7.36994">
        <ele>430.1</ele>
        <time>2022-10-01T09:06:55Z</time>
      </trkpt>
      <trkpt lat="47.14244" lon="7.37">
        <ele>430.1</ele>
        <time>2022-10-01T09:06:56Z</time>
      </trkpt>
      <trkpt lat="47.14241" lon="7.37006">
        <ele>430.1</ele>
        <time>2022-10-01T09:06:57Z</time>
      </trkpt>
      <trkpt lat="47.14238" lon="7.37012">
        <ele>430.1</ele>
        <time>2022-10-01T09:06:58Z</time>
      </trkpt>
      <trkpt lat="47.14235" lon="7.37018">
        <ele>430.1</ele>
        <time>2022-10-01T09:06:59Z</time>
      </trkpt>
      <trkpt lat="47.14232" lon="7.37023">
        <ele>430.1</ele>
        <time>2022-10-01T09:07:00Z</time>
      </trkpt>
      <trkpt lat="47.14228" lon="7.37029">
        <ele>430.1</ele>
        <time>2022-10-01T09:07:01Z</time>
      </trkpt>
      <trkpt lat="47.14225" lon="7.37035">
        <ele>430.1</ele>
        <time>2022-10-01T09:07:02Z</time>
      </trkpt>
      <trkpt lat="47.14222" lon="7.37042">
        <ele>430.1</ele>
        <time>2022-10-01T09:07:03Z</time>
      </trkpt>
      <trkpt lat="47.1422" lon="7.37047">
        <ele>430.1</ele>
        <time>2022-10-01T09:07:04Z</time>
      </trkpt>
      <trkpt lat="47.14216" lon="7.37053">
        <ele>430.1</ele>
        <time>2022-10-01T09:07:05Z</time>
      </trkpt>
      <trkpt lat="47.14213" lon="7.37058">
        <ele>430</ele>
        <time>2022-10-01T09:07:06Z</time>
      </trkpt>
      <trkpt lat="47.1421" lon="7.37063">
        <ele>430</ele>
        <time>2022-10-01T09:07:07Z</time>
      </trkpt>
      <trkpt lat="47.14206" lon="7.37068">
        <ele>430</ele>
        <time>2022-10-01T09:07:08Z</time>
      </trkpt>
      <trkpt lat="47.14203" lon="7.37074">
        <ele>430</ele>
        <time>2022-10-01T09:07:09Z</time>
      </trkpt>
      <trkpt lat="47.142" lon="7.3708">
        <ele>430</ele>
        <time>2022-10-01T09:07:10Z</time>
      </trkpt>
      <trkpt lat="47.14198" lon="7.37085">
        <ele>430</ele>
        <time>2022-10-01T09:07:11Z</time>
      </trkpt>
      <trkpt lat="47.14195" lon="7.37092">
        <ele>430</ele>
        <time>2022-10-01T09:07:12Z</time>
      </trkpt>
      <trkpt lat="47.14192" lon="7.37098">
        <ele>429.9</ele>
        <time>2022-10-01T09:07:13Z</time>
      </trkpt>
      <trkpt lat="47.14189" lon="7.37103">
        <ele>429.9</ele>
        <time>2022-10-01T09:07:14Z</time>
      </trkpt>
      <trkpt lat="47.14186" lon="7.37109">
        <ele>429.9</ele>
        <time>2022-10-01T09:07:15Z</time>
      </trkpt>
      <trkpt lat="47.14182" lon="7.37116">
        <ele>429.9</ele>
        <time>2022-10-01T09:07:16Z</time>
      </trkpt>
      <trkpt lat="47.14179" lon="7.37122">
        <ele>429.9</ele>
        <time>2022-10-01T09:07:17Z</time>
      </trkpt>
      <trkpt lat="47.14176" lon="7.37129">
        <ele>429.9</ele>
        <time>2022-10-01T09:07:18Z</time>
      </trkpt>
      <trkpt lat="47.14173" lon="7.37135">
        <ele>429.8</ele>
        <time>2022-10-01T09:07:19Z</time>
      </trkpt>
      <trkpt lat="47.14171" lon="7.37142">
        <ele>429.8</ele>
        <time>2022-10-01T09:07:20Z</time>
      </trkpt>
      <trkpt lat="47.14168" lon="7.37147">
        <ele>429.8</ele>
        <time>2022-10-01T09:07:21Z</time>
      </trkpt>
      <trkpt lat="47.14165" lon="7.37154">
        <ele>429.8</ele>
        <time>2022-10-01T09:07:22Z</time>
      </trkpt>
      <trkpt lat="47.14162" lon="7.37161">
        <ele>429.9</ele>
        <time>2022-10-01T09:07:23Z</time>
      </trkpt>
      <trkpt lat="47.1416" lon="7.37167">
        <ele>429.9</ele>
        <time>2022-10-01T09:07:24Z</time>
      </trkpt>
      <trkpt lat="47.14158" lon="7.37174">
        <ele>429.9</ele>
        <time>2022-10-01T09:07:25Z</time>
      </trkpt>
      <trkpt lat="47.14156" lon="7.3718">
        <ele>430</ele>
        <time>2022-10-01T09:07:26Z</time>
      </trkpt>
      <trkpt lat="47.14153" lon="7.37187">
        <ele>430</ele>
        <time>2022-10-01T09:07:27Z</time>
      </trkpt>
      <trkpt lat="47.14151" lon="7.37194">
        <ele>430</ele>
        <time>2022-10-01T09:07:28Z</time>
      </trkpt>
      <trkpt lat="47.14149" lon="7.37201">
        <ele>430.1</ele>
        <time>2022-10-01T09:07:29Z</time>
      </trkpt>
      <trkpt lat="47.14146" lon="7.37207">
        <ele>430.2</ele>
        <time>2022-10-01T09:07:30Z</time>
      </trkpt>
      <trkpt lat="47.14144" lon="7.37211">
        <ele>430.2</ele>
        <time>2022-10-01T09:07:31Z</time>
      </trkpt>
      <trkpt lat="47.14141" lon="7.37219">
        <ele>430.3</ele>
        <time>2022-10-01T09:07:32Z</time>
      </trkpt>
      <trkpt lat="47.14139" lon="7.37225">
        <ele>430.3</ele>
        <time>2022-10-01T09:07:33Z</time>
      </trkpt>
      <trkpt lat="47.14138" lon="7.37232">
        <ele>430.4</ele>
        <time>2022-10-01T09:07:34Z</time>
      </trkpt>
      <trkpt lat="47.14137" lon="7.37238">
        <ele>430.5</ele>
        <time>2022-10-01T09:07:35Z</time>
      </trkpt>
      <trkpt lat="47.14137" lon="7.37245">
        <ele>430.6</ele>
        <time>2022-10-01T09:07:36Z</time>
      </trkpt>
      <trkpt lat="47.14138" lon="7.3725">
        <ele>430.6</ele>
        <time>2022-10-01T09:07:37Z</time>
      </trkpt>
      <trkpt lat="47.14138" lon="7.37256">
        <ele>430.7</ele>
        <time>2022-10-01T09:07:38Z</time>
      </trkpt>
      <trkpt lat="47.14138" lon="7.37261">
        <ele>430.8</ele>
        <time>2022-10-01T09:07:39Z</time>
      </trkpt>
      <trkpt lat="47.14138" lon="7.37265">
        <ele>430.9</ele>
        <time>2022-10-01T09:07:40Z</time>
      </trkpt>
      <trkpt lat="47.14138" lon="7.3727">
        <ele>431</ele>
        <time>2022-10-01T09:07:41Z</time>
      </trkpt>
      <trkpt lat="47.14138" lon="7.37272">
        <ele>431.1</ele>
        <time>2022-10-01T09:07:42Z</time>
      </trkpt>
      <trkpt lat="47.14138" lon="7.37274">
        <ele>431.1</ele>
        <time>2022-10-01T09:07:43Z</time>
      </trkpt>
      <trkpt lat="47.14137" lon="7.37276">
        <ele>431.1</ele>
        <time>2022-10-01T09:07:44Z</time>
      </trkpt>
      <trkpt lat="47.14136" lon="7.37278">
        <ele>431.2</ele>
        <time>2022-10-01T09:07:45Z</time>
      </trkpt>
      <trkpt lat="47.14136" lon="7.37279">
        <ele>431.2</ele>
        <time>2022-10-01T09:07:46Z</time>
      </trkpt>
      <trkpt lat="47.14136" lon="7.37279">
        <ele>431.2</ele>
        <time>2022-10-01T09:07:47Z</time>
      </trkpt>
      <trkpt lat="47.14136" lon="7.37279">
        <ele>431.2</ele>
        <time>2022-10-01T09:07:48Z</time>
      </trkpt>
      <trkpt lat="47.14135" lon="7.3728">
        <ele>431.3</ele>
        <time>2022-10-01T09:07:49Z</time>
      </trkpt>
      <trkpt lat="47.14135" lon="7.37281">
        <ele>431.3</ele>
        <time>2022-10-01T09:07:50Z</time>
      </trkpt>
      <trkpt lat="47.14136" lon="7.3728">
        <ele>431.3</ele>
        <time>2022-10-01T09:07:51Z</time>
      </trkpt>
      <trkpt lat="47.14135" lon="7.37282">
        <ele>431.3</ele>
        <time>2022-10-01T09:07:52Z</time>
      </trkpt>
      <trkpt lat="47.14135" lon="7.37283">
        <ele>431.4</ele>
        <time>2022-10-01T09:07:53Z</time>
      </trkpt>
      <trkpt lat="47.14136" lon="7.37283">
        <ele>431.4</ele>
        <time>2022-10-01T09:07:54Z</time>
      </trkpt>
      <trkpt lat="47.14135" lon="7.37287">
        <ele>431.3</ele>
        <time>2022-10-01T09:07:55Z</time>
      </trkpt>
      <trkpt lat="47.14134" lon="7.37288">
        <ele>431.3</ele>
        <time>2022-10-01T09:07:56Z</time>
      </trkpt>
      <trkpt lat="47.14132" lon="7.37291">
        <ele>431.2</ele>
        <time>2022-10-01T09:07:57Z</time>
      </trkpt>
      <trkpt lat="47.14132" lon="7.37293">
        <ele>431.1</ele>
        <time>2022-10-01T09:07:58Z</time>
      </trkpt>
      <trkpt lat="47.14131" lon="7.37298">
        <ele>431</ele>
        <time>2022-10-01T09:07:59Z</time>
      </trkpt>
      <trkpt lat="47.1413" lon="7.37302">
        <ele>430.9</ele>
        <time>2022-10-01T09:08:00Z</time>
      </trkpt>
      <trkpt lat="47.14129" lon="7.37309">
        <ele>430.8</ele>
        <time>2022-10-01T09:08:01Z</time>
      </trkpt>
      <trkpt lat="47.14127" lon="7.37316">
        <ele>430.6</ele>
        <time>2022-10-01T09:08:02Z</time>
      </trkpt>
      <trkpt lat="47.14126" lon="7.37322">
        <ele>430.5</ele>
        <time>2022-10-01T09:08:03Z</time>
      </trkpt>
      <trkpt lat="47.14125" lon="7.37328">
        <ele>430.5</ele>
        <time>2022-10-01T09:08:04Z</time>
      </trkpt>
      <trkpt lat="47.14123" lon="7.37335">
        <ele>430.4</ele>
        <time>2022-10-01T09:08:05Z</time>
      </trkpt>
      <trkpt lat="47.14122" lon="7.37342">
        <ele>430.3</ele>
        <time>2022-10-01T09:08:06Z</time>
      </trkpt>
      <trkpt lat="47.14121" lon="7.37348">
        <ele>430.3</ele>
        <time>2022-10-01T09:08:07Z</time>
      </trkpt>
      <trkpt lat="47.1412" lon="7.37354">
        <ele>430.2</ele>
        <time>2022-10-01T09:08:08Z</time>
      </trkpt>
      <trkpt lat="47.1412" lon="7.37361">
        <ele>430.2</ele>
        <time>2022-10-01T09:08:09Z</time>
      </trkpt>
      <trkpt lat="47.1412" lon="7.37369">
        <ele>430.1</ele>
        <time>2022-10-01T09:08:10Z</time>
      </trkpt>
      <trkpt lat="47.1412" lon="7.37376">
        <ele>430.1</ele>
        <time>2022-10-01T09:08:11Z</time>
      </trkpt>
      <trkpt lat="47.14122" lon="7.37385">
        <ele>430.1</ele>
        <time>2022-10-01T09:08:12Z</time>
      </trkpt>
      <trkpt lat="47.14121" lon="7.37392">
        <ele>430</ele>
        <time>2022-10-01T09:08:13Z</time>
      </trkpt>
      <trkpt lat="47.1412" lon="7.37399">
        <ele>430</ele>
        <time>2022-10-01T09:08:14Z</time>
      </trkpt>
      <trkpt lat="47.14122" lon="7.37406">
        <ele>430</ele>
        <time>2022-10-01T09:08:15Z</time>
      </trkpt>
      <trkpt lat="47.14122" lon="7.37414">
        <ele>430</ele>
        <time>2022-10-01T09:08:16Z</time>
      </trkpt>
      <trkpt lat="47.14123" lon="7.3742">
        <ele>430</ele>
        <time>2022-10-01T09:08:17Z</time>
      </trkpt>
      <trkpt lat="47.14123" lon="7.37425">
        <ele>429.9</ele>
        <time>2022-10-01T09:08:18Z</time>
      </trkpt>
      <trkpt lat="47.14125" lon="7.37433">
        <ele>429.9</ele>
        <time>2022-10-01T09:08:19Z</time>
      </trkpt>
      <trkpt lat="47.14125" lon="7.3744">
        <ele>429.9</ele>
        <time>2022-10-01T09:08:20Z</time>
      </trkpt>
      <trkpt lat="47.14124" lon="7.37448">
        <ele>429.8</ele>
        <time>2022-10-01T09:08:21Z</time>
      </trkpt>
      <trkpt lat="47.14124" lon="7.37457">
        <ele>429.8</ele>
        <time>2022-10-01T09:08:22Z</time>
      </trkpt>
      <trkpt lat="47.14124" lon="7.37464">
        <ele>429.8</ele>
        <time>2022-10-01T09:08:23Z</time>
      </trkpt>
      <trkpt lat="47.14123" lon="7.37471">
        <ele>429.8</ele>
        <time>2022-10-01T09:08:24Z</time>
      </trkpt>
      <trkpt lat="47.14121" lon="7.37479">
        <ele>429.8</ele>
        <time>2022-10-01T09:08:25Z</time>
      </trkpt>
      <trkpt lat="47.14121" lon="7.37486">
        <ele>429.8</ele>
        <time>2022-10-01T09:08:26Z</time>
      </trkpt>
      <trkpt lat="47.14121" lon="7.37493">
        <ele>429.7</ele>
        <time>2022-10-01T09:08:27Z</time>
      </trkpt>
      <trkpt lat="47.14121" lon="7.37501">
        <ele>429.7</ele>
        <time>2022-10-01T09:08:28Z</time>
      </trkpt>
      <trkpt lat="47.14122" lon="7.37509">
        <ele>429.6</ele>
        <time>2022-10-01T09:08:29Z</time>
      </trkpt>
      <trkpt lat="47.14122" lon="7.37517">
        <ele>429.6</ele>
        <time>2022-10-01T09:08:30Z</time>
      </trkpt>
      <trkpt lat="47.14123" lon="7.37525">
        <ele>429.5</ele>
        <time>2022-10-01T09:08:31Z</time>
      </trkpt>
      <trkpt lat="47.14125" lon="7.37532">
        <ele>429.5</ele>
        <time>2022-10-01T09:08:32Z</time>
      </trkpt>
      <trkpt lat="47.14126" lon="7.37539">
        <ele>429.5</ele>
        <time>2022-10-01T09:08:33Z</time>
      </trkpt>
      <trkpt lat="47.14128" lon="7.37548">
        <ele>429.4</ele>
        <time>2022-10-01T09:08:34Z</time>
      </trkpt>
      <trkpt lat="47.1413" lon="7.37555">
        <ele>429.4</ele>
        <time>2022-10-01T09:08:35Z</time>
      </trkpt>
      <trkpt lat="47.1413" lon="7.37565">
        <ele>429.4</ele>
        <time>2022-10-01T09:08:36Z</time>
      </trkpt>
      <trkpt lat="47.14133" lon="7.37572">
        <ele>429.3</ele>
        <time>2022-10-01T09:08:37Z</time>
      </trkpt>
      <trkpt lat="47.14135" lon="7.3758">
        <ele>429.3</ele>
        <time>2022-10-01T09:08:38Z</time>
      </trkpt>
      <trkpt lat="47.14137" lon="7.37588">
        <ele>429.3</ele>
        <time>2022-10-01T09:08:39Z</time>
      </trkpt>
      <trkpt lat="47.14139" lon="7.37596">
        <ele>429.3</ele>
        <time>2022-10-01T09:08:40Z</time>
      </trkpt>
      <trkpt lat="47.14142" lon="7.37604">
        <ele>429.3</ele>
        <time>2022-10-01T09:08:41Z</time>
      </trkpt>
      <trkpt lat="47.14145" lon="7.37612">
        <ele>429.3</ele>
        <time>2022-10-01T09:08:42Z</time>
      </trkpt>
      <trkpt lat="47.14147" lon="7.3762">
        <ele>429.3</ele>
        <time>2022-10-01T09:08:43Z</time>
      </trkpt>
      <trkpt lat="47.14149" lon="7.37628">
        <ele>429.3</ele>
        <time>2022-10-01T09:08:44Z</time>
      </trkpt>
      <trkpt lat="47.14152" lon="7.37635">
        <ele>429.4</ele>
        <time>2022-10-01T09:08:45Z</time>
      </trkpt>
      <trkpt lat="47.14154" lon="7.37641">
        <ele>429.4</ele>
        <time>2022-10-01T09:08:46Z</time>
      </trkpt>
      <trkpt lat="47.14157" lon="7.37648">
        <ele>429.4</ele>
        <time>2022-10-01T09:08:47Z</time>
      </trkpt>
      <trkpt lat="47.1416" lon="7.37654">
        <ele>429.4</ele>
        <time>2022-10-01T09:08:48Z</time>
      </trkpt>
      <trkpt lat="47.14163" lon="7.37661">
        <ele>429.4</ele>
        <time>2022-10-01T09:08:49Z</time>
      </trkpt>
      <trkpt lat="47.14167" lon="7.37668">
        <ele>429.4</ele>
        <time>2022-10-01T09:08:50Z</time>
      </trkpt>
      <trkpt lat="47.14168" lon="7.37674">
        <ele>429.4</ele>
        <time>2022-10-01T09:08:51Z</time>
      </trkpt>
      <trkpt lat="47.14172" lon="7.37682">
        <ele>429.4</ele>
        <time>2022-10-01T09:08:52Z</time>
      </trkpt>
      <trkpt lat="47.14176" lon="7.37688">
        <ele>429.4</ele>
        <time>2022-10-01T09:08:53Z</time>
      </trkpt>
      <trkpt lat="47.14178" lon="7.37695">
        <ele>429.4</ele>
        <time>2022-10-01T09:08:54Z</time>
      </trkpt>
      <trkpt lat="47.14181" lon="7.37701">
        <ele>429.4</ele>
        <time>2022-10-01T09:08:55Z</time>
      </trkpt>
      <trkpt lat="47.14185" lon="7.37708">
        <ele>429.4</ele>
        <time>2022-10-01T09:08:56Z</time>
      </trkpt>
      <trkpt lat="47.14189" lon="7.37713">
        <ele>429.5</ele>
        <time>2022-10-01T09:08:57Z</time>
      </trkpt>
      <trkpt lat="47.14193" lon="7.3772">
        <ele>429.5</ele>
        <time>2022-10-01T09:08:58Z</time>
      </trkpt>
      <trkpt lat="47.14196" lon="7.37727">
        <ele>429.5</ele>
        <time>2022-10-01T09:08:59Z</time>
      </trkpt>
      <trkpt lat="47.142" lon="7.37732">
        <ele>429.5</ele>
        <time>2022-10-01T09:09:00Z</time>
      </trkpt>
      <trkpt lat="47.14203" lon="7.37739">
        <ele>429.5</ele>
        <time>2022-10-01T09:09:01Z</time>
      </trkpt>
      <trkpt lat="47.14207" lon="7.37744">
        <ele>429.5</ele>
        <time>2022-10-01T09:09:02Z</time>
      </trkpt>
      <trkpt lat="47.14211" lon="7.37751">
        <ele>429.5</ele>
        <time>2022-10-01T09:09:03Z</time>
      </trkpt>
      <trkpt lat="47.14215" lon="7.37758">
        <ele>429.5</ele>
        <time>2022-10-01T09:09:04Z</time>
      </trkpt>
      <trkpt lat="47.14219" lon="7.37764">
        <ele>429.5</ele>
        <time>2022-10-01T09:09:05Z</time>
      </trkpt>
      <trkpt lat="47.14222" lon="7.37771">
        <ele>429.4</ele>
        <time>2022-10-01T09:09:06Z</time>
      </trkpt>
      <trkpt lat="47.14226" lon="7.37777">
        <ele>429.4</ele>
        <time>2022-10-01T09:09:07Z</time>
      </trkpt>
      <trkpt lat="47.1423" lon="7.37783">
        <ele>429.4</ele>
        <time>2022-10-01T09:09:08Z</time>
      </trkpt>
      <trkpt lat="47.14234" lon="7.37789">
        <ele>429.4</ele>
        <time>2022-10-01T09:09:09Z</time>
      </trkpt>
      <trkpt lat="47.14237" lon="7.37796">
        <ele>429.4</ele>
        <time>2022-10-01T09:09:10Z</time>
      </trkpt>
      <trkpt lat="47.14242" lon="7.37802">
        <ele>429.4</ele>
        <time>2022-10-01T09:09:11Z</time>
      </trkpt>
      <trkpt lat="47.14246" lon="7.37808">
        <ele>429.4</ele>
        <time>2022-10-01T09:09:12Z</time>
      </trkpt>
      <trkpt lat="47.14249" lon="7.37814">
        <ele>429.4</ele>
        <time>2022-10-01T09:09:13Z</time>
      </trkpt>
      <trkpt lat="47.14254" lon="7.37819">
        <ele>429.5</ele>
        <time>2022-10-01T09:09:14Z</time>
      </trkpt>
      <trkpt lat="47.14258" lon="7.37824">
        <ele>429.5</ele>
        <time>2022-10-01T09:09:15Z</time>
      </trkpt>
      <trkpt lat="47.14262" lon="7.3783">
        <ele>429.5</ele>
        <time>2022-10-01T09:09:16Z</time>
      </trkpt>
      <trkpt lat="47.14266" lon="7.37835">
        <ele>429.5</ele>
        <time>2022-10-01T09:09:17Z</time>
      </trkpt>
      <trkpt lat="47.1427" lon="7.37841">
        <ele>429.5</ele>
        <time>2022-10-01T09:09:18Z</time>
      </trkpt>
      <trkpt lat="47.14274" lon="7.37848">
        <ele>429.5</ele>
        <time>2022-10-01T09:09:19Z</time>
      </trkpt>
      <trkpt lat="47.14278" lon="7.37854">
        <ele>429.5</ele>
        <time>2022-10-01T09:09:20Z</time>
      </trkpt>
      <trkpt lat="47.14282" lon="7.3786">
        <ele>429.6</ele>
        <time>2022-10-01T09:09:21Z</time>
      </trkpt>
      <trkpt lat="47.14286" lon="7.37866">
        <ele>429.6</ele>
        <time>2022-10-01T09:09:22Z</time>
      </trkpt>
      <trkpt lat="47.14289" lon="7.37872">
        <ele>429.6</ele>
        <time>2022-10-01T09:09:23Z</time>
      </trkpt>
      <trkpt lat="47.14293" lon="7.37878">
        <ele>429.7</ele>
        <time>2022-10-01T09:09:24Z</time>
      </trkpt>
      <trkpt lat="47.14297" lon="7.37885">
        <ele>429.7</ele>
        <time>2022-10-01T09:09:25Z</time>
      </trkpt>
      <trkpt lat="47.14301" lon="7.37891">
        <ele>429.7</ele>
        <time>2022-10-01T09:09:26Z</time>
      </trkpt>
      <trkpt lat="47.14304" lon="7.37897">
        <ele>429.7</ele>
        <time>2022-10-01T09:09:27Z</time>
      </trkpt>
      <trkpt lat="47.14308" lon="7.37903">
        <ele>429.7</ele>
        <time>2022-10-01T09:09:28Z</time>
      </trkpt>
      <trkpt lat="47.14311" lon="7.37909">
        <ele>429.7</ele>
        <time>2022-10-01T09:09:29Z</time>
      </trkpt>
      <trkpt lat="47.14316" lon="7.37915">
        <ele>429.7</ele>
        <time>2022-10-01T09:09:30Z</time>
      </trkpt>
      <trkpt lat="47.14319" lon="7.37921">
        <ele>429.7</ele>
        <time>2022-10-01T09:09:31Z</time>
      </trkpt>
      <trkpt lat="47.14324" lon="7.37927">
        <ele>429.7</ele>
        <time>2022-10-01T09:09:32Z</time>
      </trkpt>
      <trkpt lat="47.14328" lon="7.37933">
        <ele>429.7</ele>
        <time>2022-10-01T09:09:33Z</time>
      </trkpt>
      <trkpt lat="47.14331" lon="7.3794">
        <ele>429.6</ele>
        <time>2022-10-01T09:09:34Z</time>
      </trkpt>
      <trkpt lat="47.14335" lon="7.37946">
        <ele>429.6</ele>
        <time>2022-10-01T09:09:35Z</time>
      </trkpt>
      <trkpt lat="47.14339" lon="7.37952">
        <ele>429.6</ele>
        <time>2022-10-01T09:09:36Z</time>
      </trkpt>
      <trkpt lat="47.14342" lon="7.37959">
        <ele>429.6</ele>
        <time>2022-10-01T09:09:37Z</time>
      </trkpt>
      <trkpt lat="47.14347" lon="7.37965">
        <ele>429.6</ele>
        <time>2022-10-01T09:09:38Z</time>
      </trkpt>
      <trkpt lat="47.1435" lon="7.37972">
        <ele>429.6</ele>
        <time>2022-10-01T09:09:39Z</time>
      </trkpt>
      <trkpt lat="47.14353" lon="7.37978">
        <ele>429.6</ele>
        <time>2022-10-01T09:09:40Z</time>
      </trkpt>
      <trkpt lat="47.14357" lon="7.37984">
        <ele>429.6</ele>
        <time>2022-10-01T09:09:41Z</time>
      </trkpt>
      <trkpt lat="47.14361" lon="7.3799">
        <ele>429.6</ele>
        <time>2022-10-01T09:09:42Z</time>
      </trkpt>
      <trkpt lat="47.14365" lon="7.37997">
        <ele>429.6</ele>
        <time>2022-10-01T09:09:43Z</time>
      </trkpt>
      <trkpt lat="47.14369" lon="7.38003">
        <ele>429.6</ele>
        <time>2022-10-01T09:09:44Z</time>
      </trkpt>
      <trkpt lat="47.14373" lon="7.38009">
        <ele>429.6</ele>
        <time>2022-10-01T09:09:45Z</time>
      </trkpt>
      <trkpt lat="47.14377" lon="7.38015">
        <ele>429.6</ele>
        <time>2022-10-01T09:09:46Z</time>
      </trkpt>
      <trkpt lat="47.14381" lon="7.38021">
        <ele>429.6</ele>
        <time>2022-10-01T09:09:47Z</time>
      </trkpt>
      <trkpt lat="47.14385" lon="7.38027">
        <ele>429.6</ele>
        <time>2022-10-01T09:09:48Z</time>
      </trkpt>
      <trkpt lat="47.14389" lon="7.38033">
        <ele>429.6</ele>
        <time>2022-10-01T09:09:49Z</time>
      </trkpt>
      <trkpt lat="47.14392" lon="7.3804">
        <ele>429.6</ele>
        <time>2022-10-01T09:09:50Z</time>
      </trkpt>
      <trkpt lat="47.14397" lon="7.38046">
        <ele>429.6</ele>
        <time>2022-10-01T09:09:51Z</time>
      </trkpt>
      <trkpt lat="47.144" lon="7.38052">
        <ele>429.6</ele>
        <time>2022-10-01T09:09:52Z</time>
      </trkpt>
      <trkpt lat="47.14404" lon="7.38059">
        <ele>429.6</ele>
        <time>2022-10-01T09:09:53Z</time>
      </trkpt>
      <trkpt lat="47.14409" lon="7.38065">
        <ele>429.6</ele>
        <time>2022-10-01T09:09:54Z</time>
      </trkpt>
      <trkpt lat="47.14413" lon="7.38071">
        <ele>429.6</ele>
        <time>2022-10-01T09:09:55Z</time>
      </trkpt>
      <trkpt lat="47.14418" lon="7.38076">
        <ele>429.5</ele>
        <time>2022-10-01T09:09:56Z</time>
      </trkpt>
      <trkpt lat="47.14422" lon="7.38082">
        <ele>429.5</ele>
        <time>2022-10-01T09:09:57Z</time>
      </trkpt>
      <trkpt lat="47.14425" lon="7.38088">
        <ele>429.5</ele>
        <time>2022-10-01T09:09:58Z</time>
      </trkpt>
      <trkpt lat="47.1443" lon="7.38094">
        <ele>429.5</ele>
        <time>2022-10-01T09:09:59Z</time>
      </trkpt>
      <trkpt lat="47.14434" lon="7.381">
        <ele>429.5</ele>
        <time>2022-10-01T09:10:00Z</time>
      </trkpt>
      <trkpt lat="47.14438" lon="7.38105">
        <ele>429.6</ele>
        <time>2022-10-01T09:10:01Z</time>
      </trkpt>
      <trkpt lat="47.14442" lon="7.38111">
        <ele>429.6</ele>
        <time>2022-10-01T09:10:02Z</time>
      </trkpt>
      <trkpt lat="47.14447" lon="7.38117">
        <ele>429.6</ele>
        <time>2022-10-01T09:10:03Z</time>
      </trkpt>
      <trkpt lat="47.14451" lon="7.38123">
        <ele>429.6</ele>
        <time>2022-10-01T09:10:04Z</time>
      </trkpt>
      <trkpt lat="47.14455" lon="7.38127">
        <ele>429.6</ele>
        <time>2022-10-01T09:10:05Z</time>
      </trkpt>
      <trkpt lat="47.14459" lon="7.38132">
        <ele>429.6</ele>
        <time>2022-10-01T09:10:06Z</time>
      </trkpt>
      <trkpt lat="47.14463" lon="7.38138">
        <ele>429.6</ele>
        <time>2022-10-01T09:10:07Z</time>
      </trkpt>
      <trkpt lat="47.14467" lon="7.38142">
        <ele>429.6</ele>
        <time>2022-10-01T09:10:08Z</time>
      </trkpt>
      <trkpt lat="47.1447" lon="7.38149">
        <ele>429.6</ele>
        <time>2022-10-01T09:10:09Z</time>
      </trkpt>
      <trkpt lat="47.14475" lon="7.38153">
        <ele>429.6</ele>
        <time>2022-10-01T09:10:10Z</time>
      </trkpt>
      <trkpt lat="47.14479" lon="7.38158">
        <ele>429.6</ele>
        <time>2022-10-01T09:10:11Z</time>
      </trkpt>
      <trkpt lat="47.14483" lon="7.38164">
        <ele>429.6</ele>
        <time>2022-10-01T09:10:12Z</time>
      </trkpt>
      <trkpt lat="47.14487" lon="7.3817">
        <ele>429.6</ele>
        <time>2022-10-01T09:10:13Z</time>
      </trkpt>
      <trkpt lat="47.14492" lon="7.38174">
        <ele>429.6</ele>
        <time>2022-10-01T09:10:14Z</time>
      </trkpt>
      <trkpt lat="47.14496" lon="7.38181">
        <ele>429.6</ele>
        <time>2022-10-01T09:10:15Z</time>
      </trkpt>
      <trkpt lat="47.145" lon="7.38185">
        <ele>429.6</ele>
        <time>2022-10-01T09:10:16Z</time>
      </trkpt>
      <trkpt lat="47.14504" lon="7.38189">
        <ele>429.6</ele>
        <time>2022-10-01T09:10:17Z</time>
      </trkpt>
      <trkpt lat="47.14509" lon="7.38195">
        <ele>429.6</ele>
        <time>2022-10-01T09:10:18Z</time>
      </trkpt>
      <trkpt lat="47.14513" lon="7.382">
        <ele>429.6</ele>
        <time>2022-10-01T09:10:19Z</time>
      </trkpt>
      <trkpt lat="47.14517" lon="7.38203">
        <ele>429.6</ele>
        <time>2022-10-01T09:10:20Z</time>
      </trkpt>
      <trkpt lat="47.14521" lon="7.38209">
        <ele>429.6</ele>
        <time>2022-10-01T09:10:21Z</time>
      </trkpt>
      <trkpt lat="47.14525" lon="7.38214">
        <ele>429.6</ele>
        <time>2022-10-01T09:10:22Z</time>
      </trkpt>
      <trkpt lat="47.1453" lon="7.38218">
        <ele>429.6</ele>
        <time>2022-10-01T09:10:23Z</time>
      </trkpt>
      <trkpt lat="47.14534" lon="7.38223">
        <ele>429.6</ele>
        <time>2022-10-01T09:10:24Z</time>
      </trkpt>
      <trkpt lat="47.14539" lon="7.38229">
        <ele>429.6</ele>
        <time>2022-10-01T09:10:25Z</time>
      </trkpt>
      <trkpt lat="47.14544" lon="7.38234">
        <ele>429.6</ele>
        <time>2022-10-01T09:10:26Z</time>
      </trkpt>
      <trkpt lat="47.14548" lon="7.38239">
        <ele>429.6</ele>
        <time>2022-10-01T09:10:27Z</time>
      </trkpt>
      <trkpt lat="47.14551" lon="7.38244">
        <ele>429.5</ele>
        <time>2022-10-01T09:10:28Z</time>
      </trkpt>
      <trkpt lat="47.14556" lon="7.38249">
        <ele>429.5</ele>
        <time>2022-10-01T09:10:29Z</time>
      </trkpt>
      <trkpt lat="47.1456" lon="7.38254">
        <ele>429.5</ele>
        <time>2022-10-01T09:10:30Z</time>
      </trkpt>
      <trkpt lat="47.14565" lon="7.38259">
        <ele>429.5</ele>
        <time>2022-10-01T09:10:31Z</time>
      </trkpt>
      <trkpt lat="47.14569" lon="7.38264">
        <ele>429.5</ele>
        <time>2022-10-01T09:10:32Z</time>
      </trkpt>
      <trkpt lat="47.14573" lon="7.38269">
        <ele>429.5</ele>
        <time>2022-10-01T09:10:33Z</time>
      </trkpt>
      <trkpt lat="47.14578" lon="7.38273">
        <ele>429.5</ele>
        <time>2022-10-01T09:10:34Z</time>
      </trkpt>
      <trkpt lat="47.14582" lon="7.38279">
        <ele>429.5</ele>
        <time>2022-10-01T09:10:35Z</time>
      </trkpt>
      <trkpt lat="47.14587" lon="7.38283">
        <ele>429.5</ele>
        <time>2022-10-01T09:10:36Z</time>
      </trkpt>
      <trkpt lat="47.14592" lon="7.38289">
        <ele>429.5</ele>
        <time>2022-10-01T09:10:37Z</time>
      </trkpt>
      <trkpt lat="47.14597" lon="7.38294">
        <ele>429.5</ele>
        <time>2022-10-01T09:10:38Z</time>
      </trkpt>
      <trkpt lat="47.14601" lon="7.38299">
        <ele>429.5</ele>
        <time>2022-10-01T09:10:39Z</time>
      </trkpt>
      <trkpt lat="47.14606" lon="7.38304">
        <ele>429.5</ele>
        <time>2022-10-01T09:10:40Z</time>
      </trkpt>
      <trkpt lat="47.1461" lon="7.3831">
        <ele>429.5</ele>
        <time>2022-10-01T09:10:41Z</time>
      </trkpt>
      <trkpt lat="47.14614" lon="7.38314">
        <ele>429.5</ele>
        <time>2022-10-01T09:10:42Z</time>
      </trkpt>
      <trkpt lat="47.1462" lon="7.38319">
        <ele>429.5</ele>
        <time>2022-10-01T09:10:43Z</time>
      </trkpt>
      <trkpt lat="47.14623" lon="7.38323">
        <ele>429.5</ele>
        <time>2022-10-01T09:10:44Z</time>
      </trkpt>
      <trkpt lat="47.14627" lon="7.38328">
        <ele>429.5</ele>
        <time>2022-10-01T09:10:45Z</time>
      </trkpt>
      <trkpt lat="47.14632" lon="7.38333">
        <ele>429.5</ele>
        <time>2022-10-01T09:10:46Z</time>
      </trkpt>
      <trkpt lat="47.14636" lon="7.38338">
        <ele>429.5</ele>
        <time>2022-10-01T09:10:47Z</time>
      </trkpt>
      <trkpt lat="47.1464" lon="7.38342">
        <ele>429.5</ele>
        <time>2022-10-01T09:10:48Z</time>
      </trkpt>
      <trkpt lat="47.14645" lon="7.38347">
        <ele>429.5</ele>
        <time>2022-10-01T09:10:49Z</time>
      </trkpt>
      <trkpt lat="47.1465" lon="7.38352">
        <ele>429.5</ele>
        <time>2022-10-01T09:10:50Z</time>
      </trkpt>
      <trkpt lat="47.14655" lon="7.38356">
        <ele>429.5</ele>
        <time>2022-10-01T09:10:51Z</time>
      </trkpt>
      <trkpt lat="47.1466" lon="7.3836">
        <ele>429.5</ele>
        <time>2022-10-01T09:10:52Z</time>
      </trkpt>
      <trkpt lat="47.14664" lon="7.38364">
        <ele>429.5</ele>
        <time>2022-10-01T09:10:53Z</time>
      </trkpt>
      <trkpt lat="47.14669" lon="7.38367">
        <ele>429.6</ele>
        <time>2022-10-01T09:10:54Z</time>
      </trkpt>
      <trkpt lat="47.14673" lon="7.38372">
        <ele>429.6</ele>
        <time>2022-10-01T09:10:55Z</time>
      </trkpt>
      <trkpt lat="47.14678" lon="7.38375">
        <ele>429.6</ele>
        <time>2022-10-01T09:10:56Z</time>
      </trkpt>
      <trkpt lat="47.14683" lon="7.38379">
        <ele>429.6</ele>
        <time>2022-10-01T09:10:57Z</time>
      </trkpt>
      <trkpt lat="47.14688" lon="7.38383">
        <ele>429.6</ele>
        <time>2022-10-01T09:10:58Z</time>
      </trkpt>
      <trkpt lat="47.14693" lon="7.38387">
        <ele>429.6</ele>
        <time>2022-10-01T09:10:59Z</time>
      </trkpt>
      <trkpt lat="47.14698" lon="7.3839">
        <ele>429.6</ele>
        <time>2022-10-01T09:11:00Z</time>
      </trkpt>
      <trkpt lat="47.14702" lon="7.38394">
        <ele>429.6</ele>
        <time>2022-10-01T09:11:01Z</time>
      </trkpt>
      <trkpt lat="47.14707" lon="7.38398">
        <ele>429.6</ele>
        <time>2022-10-01T09:11:02Z</time>
      </trkpt>
      <trkpt lat="47.14712" lon="7.38402">
        <ele>429.6</ele>
        <time>2022-10-01T09:11:03Z</time>
      </trkpt>
      <trkpt lat="47.14716" lon="7.38406">
        <ele>429.6</ele>
        <time>2022-10-01T09:11:04Z</time>
      </trkpt>
      <trkpt lat="47.14721" lon="7.3841">
        <ele>429.6</ele>
        <time>2022-10-01T09:11:05Z</time>
      </trkpt>
      <trkpt lat="47.14726" lon="7.38413">
        <ele>429.6</ele>
        <time>2022-10-01T09:11:06Z</time>
      </trkpt>
      <trkpt lat="47.14731" lon="7.38417">
        <ele>429.6</ele>
        <time>2022-10-01T09:11:07Z</time>
      </trkpt>
      <trkpt lat="47.14735" lon="7.38422">
        <ele>429.6</ele>
        <time>2022-10-01T09:11:08Z</time>
      </trkpt>
      <trkpt lat="47.1474" lon="7.38425">
        <ele>429.7</ele>
        <time>2022-10-01T09:11:09Z</time>
      </trkpt>
      <trkpt lat="47.14745" lon="7.38429">
        <ele>429.7</ele>
        <time>2022-10-01T09:11:10Z</time>
      </trkpt>
      <trkpt lat="47.14749" lon="7.38433">
        <ele>429.7</ele>
        <time>2022-10-01T09:11:11Z</time>
      </trkpt>
      <trkpt lat="47.14754" lon="7.38437">
        <ele>429.7</ele>
        <time>2022-10-01T09:11:12Z</time>
      </trkpt>
      <trkpt lat="47.14758" lon="7.3844">
        <ele>429.7</ele>
        <time>2022-10-01T09:11:13Z</time>
      </trkpt>
      <trkpt lat="47.14763" lon="7.38443">
        <ele>429.7</ele>
        <time>2022-10-01T09:11:14Z</time>
      </trkpt>
      <trkpt lat="47.14768" lon="7.38446">
        <ele>429.6</ele>
        <time>2022-10-01T09:11:15Z</time>
      </trkpt>
      <trkpt lat="47.14771" lon="7.38449">
        <ele>429.6</ele>
        <time>2022-10-01T09:11:16Z</time>
      </trkpt>
      <trkpt lat="47.14776" lon="7.38453">
        <ele>429.6</ele>
        <time>2022-10-01T09:11:17Z</time>
      </trkpt>
      <trkpt lat="47.14781" lon="7.38456">
        <ele>429.6</ele>
        <time>2022-10-01T09:11:18Z</time>
      </trkpt>
      <trkpt lat="47.14787" lon="7.3846">
        <ele>429.6</ele>
        <time>2022-10-01T09:11:19Z</time>
      </trkpt>
      <trkpt lat="47.14792" lon="7.38464">
        <ele>429.6</ele>
        <time>2022-10-01T09:11:20Z</time>
      </trkpt>
      <trkpt lat="47.14797" lon="7.38467">
        <ele>429.6</ele>
        <time>2022-10-01T09:11:21Z</time>
      </trkpt>
      <trkpt lat="47.14801" lon="7.38468">
        <ele>429.6</ele>
        <time>2022-10-01T09:11:22Z</time>
      </trkpt>
      <trkpt lat="47.14807" lon="7.38471">
        <ele>429.6</ele>
        <time>2022-10-01T09:11:23Z</time>
      </trkpt>
      <trkpt lat="47.14812" lon="7.38474">
        <ele>429.6</ele>
        <time>2022-10-01T09:11:24Z</time>
      </trkpt>
      <trkpt lat="47.14817" lon="7.38477">
        <ele>429.6</ele>
        <time>2022-10-01T09:11:25Z</time>
      </trkpt>
      <trkpt lat="47.14822" lon="7.3848">
        <ele>429.6</ele>
        <time>2022-10-01T09:11:26Z</time>
      </trkpt>
      <trkpt lat="47.14828" lon="7.38483">
        <ele>429.6</ele>
        <time>2022-10-01T09:11:27Z</time>
      </trkpt>
      <trkpt lat="47.14834" lon="7.38486">
        <ele>429.6</ele>
        <time>2022-10-01T09:11:28Z</time>
      </trkpt>
      <trkpt lat="47.14838" lon="7.38488">
        <ele>429.6</ele>
        <time>2022-10-01T09:11:29Z</time>
      </trkpt>
      <trkpt lat="47.14844" lon="7.38491">
        <ele>429.6</ele>
        <time>2022-10-01T09:11:30Z</time>
      </trkpt>
      <trkpt lat="47.14849" lon="7.38493">
        <ele>429.7</ele>
        <time>2022-10-01T09:11:31Z</time>
      </trkpt>
      <trkpt lat="47.14854" lon="7.38496">
        <ele>429.7</ele>
        <time>2022-10-01T09:11:32Z</time>
      </trkpt>
      <trkpt lat="47.14859" lon="7.38497">
        <ele>429.7</ele>
        <time>2022-10-01T09:11:33Z</time>
      </trkpt>
      <trkpt lat="47.14864" lon="7.38499">
        <ele>429.7</ele>
        <time>2022-10-01T09:11:34Z</time>
      </trkpt>
      <trkpt lat="47.1487" lon="7.385">
        <ele>429.7</ele>
        <time>2022-10-01T09:11:35Z</time>
      </trkpt>
      <trkpt lat="47.14874" lon="7.38502">
        <ele>429.7</ele>
        <time>2022-10-01T09:11:36Z</time>
      </trkpt>
      <trkpt lat="47.1488" lon="7.38503">
        <ele>429.7</ele>
        <time>2022-10-01T09:11:37Z</time>
      </trkpt>
      <trkpt lat="47.14885" lon="7.38505">
        <ele>429.7</ele>
        <time>2022-10-01T09:11:38Z</time>
      </trkpt>
      <trkpt lat="47.14891" lon="7.38507">
        <ele>429.7</ele>
        <time>2022-10-01T09:11:39Z</time>
      </trkpt>
      <trkpt lat="47.14897" lon="7.38509">
        <ele>429.7</ele>
        <time>2022-10-01T09:11:40Z</time>
      </trkpt>
      <trkpt lat="47.14902" lon="7.3851">
        <ele>429.7</ele>
        <time>2022-10-01T09:11:41Z</time>
      </trkpt>
      <trkpt lat="47.14908" lon="7.38511">
        <ele>429.6</ele>
        <time>2022-10-01T09:11:42Z</time>
      </trkpt>
      <trkpt lat="47.14914" lon="7.38512">
        <ele>429.6</ele>
        <time>2022-10-01T09:11:43Z</time>
      </trkpt>
      <trkpt lat="47.1492" lon="7.38514">
        <ele>429.6</ele>
        <time>2022-10-01T09:11:44Z</time>
      </trkpt>
      <trkpt lat="47.14926" lon="7.38518">
        <ele>429.6</ele>
        <time>2022-10-01T09:11:45Z</time>
      </trkpt>
      <trkpt lat="47.14931" lon="7.3852">
        <ele>429.5</ele>
        <time>2022-10-01T09:11:46Z</time>
      </trkpt>
      <trkpt lat="47.14937" lon="7.38522">
        <ele>429.5</ele>
        <time>2022-10-01T09:11:47Z</time>
      </trkpt>
      <trkpt lat="47.14943" lon="7.38525">
        <ele>429.5</ele>
        <time>2022-10-01T09:11:48Z</time>
      </trkpt>
      <trkpt lat="47.14949" lon="7.38529">
        <ele>429.5</ele>
        <time>2022-10-01T09:11:49Z</time>
      </trkpt>
      <trkpt lat="47.14955" lon="7.38531">
        <ele>429.5</ele>
        <time>2022-10-01T09:11:50Z</time>
      </trkpt>
      <trkpt lat="47.14961" lon="7.38534">
        <ele>429.5</ele>
        <time>2022-10-01T09:11:51Z</time>
      </trkpt>
      <trkpt lat="47.14967" lon="7.38537">
        <ele>429.5</ele>
        <time>2022-10-01T09:11:52Z</time>
      </trkpt>
      <trkpt lat="47.14973" lon="7.38541">
        <ele>429.5</ele>
        <time>2022-10-01T09:11:53Z</time>
      </trkpt>
      <trkpt lat="47.14978" lon="7.38543">
        <ele>429.5</ele>
        <time>2022-10-01T09:11:54Z</time>
      </trkpt>
      <trkpt lat="47.14984" lon="7.38546">
        <ele>429.5</ele>
        <time>2022-10-01T09:11:55Z</time>
      </trkpt>
      <trkpt lat="47.14989" lon="7.38548">
        <ele>429.4</ele>
        <time>2022-10-01T09:11:56Z</time>
      </trkpt>
      <trkpt lat="47.14995" lon="7.3855">
        <ele>429.4</ele>
        <time>2022-10-01T09:11:57Z</time>
      </trkpt>
      <trkpt lat="47.15001" lon="7.38553">
        <ele>429.4</ele>
        <time>2022-10-01T09:11:58Z</time>
      </trkpt>
      <trkpt lat="47.15007" lon="7.38555">
        <ele>429.4</ele>
        <time>2022-10-01T09:11:59Z</time>
      </trkpt>
      <trkpt lat="47.15013" lon="7.38556">
        <ele>429.4</ele>
        <time>2022-10-01T09:12:00Z</time>
      </trkpt>
      <trkpt lat="47.15018" lon="7.38557">
        <ele>429.4</ele>
        <time>2022-10-01T09:12:01Z</time>
      </trkpt>
      <trkpt lat="47.15025" lon="7.38559">
        <ele>429.4</ele>
        <time>2022-10-01T09:12:02Z</time>
      </trkpt>
      <trkpt lat="47.1503" lon="7.3856">
        <ele>429.4</ele>
        <time>2022-10-01T09:12:03Z</time>
      </trkpt>
      <trkpt lat="47.15036" lon="7.38561">
        <ele>429.4</ele>
        <time>2022-10-01T09:12:04Z</time>
      </trkpt>
      <trkpt lat="47.15042" lon="7.38563">
        <ele>429.4</ele>
        <time>2022-10-01T09:12:05Z</time>
      </trkpt>
      <trkpt lat="47.15048" lon="7.38564">
        <ele>429.4</ele>
        <time>2022-10-01T09:12:06Z</time>
      </trkpt>
      <trkpt lat="47.15054" lon="7.38564">
        <ele>429.4</ele>
        <time>2022-10-01T09:12:07Z</time>
      </trkpt>
      <trkpt lat="47.15059" lon="7.38566">
        <ele>429.4</ele>
        <time>2022-10-01T09:12:08Z</time>
      </trkpt>
      <trkpt lat="47.15065" lon="7.38567">
        <ele>429.4</ele>
        <time>2022-10-01T09:12:09Z</time>
      </trkpt>
      <trkpt lat="47.1507" lon="7.38567">
        <ele>429.4</ele>
        <time>2022-10-01T09:12:10Z</time>
      </trkpt>
      <trkpt lat="47.15076" lon="7.38568">
        <ele>429.5</ele>
        <time>2022-10-01T09:12:11Z</time>
      </trkpt>
      <trkpt lat="47.15081" lon="7.38569">
        <ele>429.5</ele>
        <time>2022-10-01T09:12:12Z</time>
      </trkpt>
      <trkpt lat="47.15086" lon="7.38571">
        <ele>429.5</ele>
        <time>2022-10-01T09:12:13Z</time>
      </trkpt>
      <trkpt lat="47.1509" lon="7.38572">
        <ele>429.5</ele>
        <time>2022-10-01T09:12:14Z</time>
      </trkpt>
      <trkpt lat="47.15095" lon="7.38572">
        <ele>429.5</ele>
        <time>2022-10-01T09:12:15Z</time>
      </trkpt>
      <trkpt lat="47.15099" lon="7.38573">
        <ele>429.4</ele>
        <time>2022-10-01T09:12:16Z</time>
      </trkpt>
      <trkpt lat="47.15105" lon="7.38575">
        <ele>429.4</ele>
        <time>2022-10-01T09:12:17Z</time>
      </trkpt>
      <trkpt lat="47.1511" lon="7.38576">
        <ele>429.4</ele>
        <time>2022-10-01T09:12:18Z</time>
      </trkpt>
      <trkpt lat="47.15115" lon="7.38579">
        <ele>429.4</ele>
        <time>2022-10-01T09:12:19Z</time>
      </trkpt>
      <trkpt lat="47.15118" lon="7.3858">
        <ele>429.4</ele>
        <time>2022-10-01T09:12:20Z</time>
      </trkpt>
      <trkpt lat="47.15121" lon="7.38581">
        <ele>429.4</ele>
        <time>2022-10-01T09:12:21Z</time>
      </trkpt>
      <trkpt lat="47.15122" lon="7.38581">
        <ele>429.4</ele>
        <time>2022-10-01T09:12:22Z</time>
      </trkpt>
      <trkpt lat="47.15123" lon="7.38581">
        <ele>429.4</ele>
        <time>2022-10-01T09:12:23Z</time>
      </trkpt>
      <trkpt lat="47.15123" lon="7.38581">
        <ele>429.4</ele>
        <time>2022-10-01T09:12:24Z</time>
      </trkpt>
      <trkpt lat="47.15123" lon="7.38581">
        <ele>429.4</ele>
        <time>2022-10-01T09:12:25Z</time>
      </trkpt>
      <trkpt lat="47.15123" lon="7.38581">
        <ele>429.4</ele>
        <time>2022-10-01T09:12:27Z</time>
      </trkpt>
      <trkpt lat="47.15123" lon="7.38581">
        <ele>429.4</ele>
        <time>2022-10-01T09:12:29Z</time>
      </trkpt>
      <trkpt lat="47.15123" lon="7.3858">
        <ele>429.4</ele>
        <time>2022-10-01T09:12:30Z</time>
      </trkpt>
      <trkpt lat="47.15123" lon="7.3858">
        <ele>429.4</ele>
        <time>2022-10-01T09:12:31Z</time>
      </trkpt>
      <trkpt lat="47.15124" lon="7.3858">
        <ele>429.4</ele>
        <time>2022-10-01T09:12:32Z</time>
      </trkpt>
      <trkpt lat="47.15124" lon="7.3858">
        <ele>429.4</ele>
        <time>2022-10-01T09:15:04Z</time>
      </trkpt>
      <trkpt lat="47.15124" lon="7.3858">
        <ele>429.4</ele>
        <time>2022-10-01T09:15:05Z</time>
      </trkpt>
      <trkpt lat="47.15124" lon="7.3858">
        <ele>429.4</ele>
        <time>2022-10-01T09:15:06Z</time>
      </trkpt>
      <trkpt lat="47.15124" lon="7.3858">
        <ele>429.4</ele>
        <time>2022-10-01T09:15:07Z</time>
      </trkpt>
      <trkpt lat="47.15124" lon="7.3858">
        <ele>429.4</ele>
        <time>2022-10-01T09:15:08Z</time>
      </trkpt>
      <trkpt lat="47.15124" lon="7.3858">
        <ele>429.4</ele>
        <time>2022-10-01T09:15:09Z</time>
      </trkpt>
      <trkpt lat="47.15124" lon="7.3858">
        <ele>429.4</ele>
        <time>2022-10-01T09:15:10Z</time>
      </trkpt>
      <trkpt lat="47.15125" lon="7.3858">
        <ele>429.4</ele>
        <time>2022-10-01T09:15:11Z</time>
      </trkpt>
      <trkpt lat="47.15125" lon="7.3858">
        <ele>429.4</ele>
        <time>2022-10-01T09:15:12Z</time>
      </trkpt>
      <trkpt lat="47.15125" lon="7.3858">
        <ele>429.4</ele>
        <time>2022-10-01T09:15:13Z</time>
      </trkpt>
      <trkpt lat="47.15125" lon="7.38579">
        <ele>429.4</ele>
        <time>2022-10-01T09:15:14Z</time>
      </trkpt>
      <trkpt lat="47.15125" lon="7.38579">
        <ele>429.4</ele>
        <time>2022-10-01T09:15:15Z</time>
      </trkpt>
      <trkpt lat="47.15125" lon="7.38579">
        <ele>429.4</ele>
        <time>2022-10-01T09:15:16Z</time>
      </trkpt>
      <trkpt lat="47.15125" lon="7.38579">
        <ele>429.4</ele>
        <time>2022-10-01T09:17:39Z</time>
      </trkpt>
      <trkpt lat="47.15125" lon="7.38579">
        <ele>429.4</ele>
        <time>2022-10-01T09:17:40Z</time>
      </trkpt>
      <trkpt lat="47.15126" lon="7.38579">
        <ele>429.4</ele>
        <time>2022-10-01T09:17:41Z</time>
      </trkpt>
      <trkpt lat="47.15126" lon="7.38579">
        <ele>429.4</ele>
        <time>2022-10-01T09:17:42Z</time>
      </trkpt>
      <trkpt lat="47.15126" lon="7.38579">
        <ele>429.4</ele>
        <time>2022-10-01T09:17:43Z</time>
      </trkpt>
      <trkpt lat="47.15126" lon="7.38579">
        <ele>429.4</ele>
        <time>2022-10-01T09:17:44Z</time>
      </trkpt>
      <trkpt lat="47.15126" lon="7.38579">
        <ele>429.4</ele>
        <time>2022-10-01T09:17:45Z</time>
      </trkpt>
      <trkpt lat="47.15126" lon="7.38579">
        <ele>429.4</ele>
        <time>2022-10-01T09:17:46Z</time>
      </trkpt>
      <trkpt lat="47.15126" lon="7.38579">
        <ele>429.4</ele>
        <time>2022-10-01T09:17:47Z</time>
      </trkpt>
      <trkpt lat="47.15126" lon="7.38578">
        <ele>429.4</ele>
        <time>2022-10-01T09:17:48Z</time>
      </trkpt>
      <trkpt lat="47.15127" lon="7.38578">
        <ele>429.4</ele>
        <time>2022-10-01T09:18:52Z</time>
      </trkpt>
      <trkpt lat="47.15127" lon="7.38578">
        <ele>429.4</ele>
        <time>2022-10-01T09:18:53Z</time>
      </trkpt>
      <trkpt lat="47.15127" lon="7.38578">
        <ele>429.4</ele>
        <time>2022-10-01T09:18:54Z</time>
      </trkpt>
      <trkpt lat="47.15132" lon="7.38579">
        <ele>429.4</ele>
        <time>2022-10-01T09:18:55Z</time>
      </trkpt>
      <trkpt lat="47.15134" lon="7.38579">
        <ele>429.4</ele>
        <time>2022-10-01T09:18:56Z</time>
      </trkpt>
      <trkpt lat="47.15136" lon="7.38582">
        <ele>429.4</ele>
        <time>2022-10-01T09:18:57Z</time>
      </trkpt>
      <trkpt lat="47.15139" lon="7.38583">
        <ele>429.3</ele>
        <time>2022-10-01T09:18:58Z</time>
      </trkpt>
      <trkpt lat="47.15142" lon="7.38585">
        <ele>429.3</ele>
        <time>2022-10-01T09:18:59Z</time>
      </trkpt>
      <trkpt lat="47.15145" lon="7.38587">
        <ele>429.3</ele>
        <time>2022-10-01T09:19:00Z</time>
      </trkpt>
      <trkpt lat="47.15149" lon="7.38587">
        <ele>429.3</ele>
        <time>2022-10-01T09:19:01Z</time>
      </trkpt>
      <trkpt lat="47.15152" lon="7.38587">
        <ele>429.3</ele>
        <time>2022-10-01T09:19:02Z</time>
      </trkpt>
      <trkpt lat="47.15156" lon="7.38589">
        <ele>429.3</ele>
        <time>2022-10-01T09:19:03Z</time>
      </trkpt>
      <trkpt lat="47.1516" lon="7.38589">
        <ele>429.3</ele>
        <time>2022-10-01T09:19:04Z</time>
      </trkpt>
      <trkpt lat="47.15164" lon="7.3859">
        <ele>429.3</ele>
        <time>2022-10-01T09:19:05Z</time>
      </trkpt>
      <trkpt lat="47.15168" lon="7.38592">
        <ele>429.3</ele>
        <time>2022-10-01T09:19:06Z</time>
      </trkpt>
      <trkpt lat="47.15171" lon="7.38593">
        <ele>429.3</ele>
        <time>2022-10-01T09:19:07Z</time>
      </trkpt>
      <trkpt lat="47.15175" lon="7.38594">
        <ele>429.3</ele>
        <time>2022-10-01T09:19:08Z</time>
      </trkpt>
      <trkpt lat="47.15179" lon="7.38595">
        <ele>429.3</ele>
        <time>2022-10-01T09:19:09Z</time>
      </trkpt>
      <trkpt lat="47.15183" lon="7.38595">
        <ele>429.2</ele>
        <time>2022-10-01T09:19:10Z</time>
      </trkpt>
      <trkpt lat="47.15187" lon="7.38597">
        <ele>429.2</ele>
        <time>2022-10-01T09:19:11Z</time>
      </trkpt>
      <trkpt lat="47.15192" lon="7.38599">
        <ele>429.2</ele>
        <time>2022-10-01T09:19:12Z</time>
      </trkpt>
      <trkpt lat="47.15197" lon="7.386">
        <ele>429.2</ele>
        <time>2022-10-01T09:19:13Z</time>
      </trkpt>
      <trkpt lat="47.15201" lon="7.38602">
        <ele>429.2</ele>
        <time>2022-10-01T09:19:14Z</time>
      </trkpt>
      <trkpt lat="47.15205" lon="7.38603">
        <ele>429.2</ele>
        <time>2022-10-01T09:19:15Z</time>
      </trkpt>
      <trkpt lat="47.1521" lon="7.38605">
        <ele>429.2</ele>
        <time>2022-10-01T09:19:16Z</time>
      </trkpt>
      <trkpt lat="47.15214" lon="7.38606">
        <ele>429.2</ele>
        <time>2022-10-01T09:19:17Z</time>
      </trkpt>
      <trkpt lat="47.15219" lon="7.38608">
        <ele>429.2</ele>
        <time>2022-10-01T09:19:18Z</time>
      </trkpt>
      <trkpt lat="47.15223" lon="7.38609">
        <ele>429.2</ele>
        <time>2022-10-01T09:19:19Z</time>
      </trkpt>
      <trkpt lat="47.15227" lon="7.38609">
        <ele>429.2</ele>
        <time>2022-10-01T09:19:20Z</time>
      </trkpt>
      <trkpt lat="47.15231" lon="7.38609">
        <ele>429.2</ele>
        <time>2022-10-01T09:19:21Z</time>
      </trkpt>
      <trkpt lat="47.15236" lon="7.38611">
        <ele>429.2</ele>
        <time>2022-10-01T09:19:22Z</time>
      </trkpt>
      <trkpt lat="47.1524" lon="7.38611">
        <ele>429.2</ele>
        <time>2022-10-01T09:19:23Z</time>
      </trkpt>
      <trkpt lat="47.15245" lon="7.38612">
        <ele>429.2</ele>
        <time>2022-10-01T09:19:24Z</time>
      </trkpt>
      <trkpt lat="47.1525" lon="7.38614">
        <ele>429.2</ele>
        <time>2022-10-01T09:19:25Z</time>
      </trkpt>
      <trkpt lat="47.15254" lon="7.38616">
        <ele>429.2</ele>
        <time>2022-10-01T09:19:26Z</time>
      </trkpt>
      <trkpt lat="47.15259" lon="7.38617">
        <ele>429.2</ele>
        <time>2022-10-01T09:19:27Z</time>
      </trkpt>
      <trkpt lat="47.15264" lon="7.38619">
        <ele>429.2</ele>
        <time>2022-10-01T09:19:28Z</time>
      </trkpt>
      <trkpt lat="47.15268" lon="7.38619">
        <ele>429.2</ele>
        <time>2022-10-01T09:19:29Z</time>
      </trkpt>
      <trkpt lat="47.15271" lon="7.3862">
        <ele>429.2</ele>
        <time>2022-10-01T09:19:30Z</time>
      </trkpt>
      <trkpt lat="47.15274" lon="7.38622">
        <ele>429.2</ele>
        <time>2022-10-01T09:19:31Z</time>
      </trkpt>
      <trkpt lat="47.15278" lon="7.38624">
        <ele>429.2</ele>
        <time>2022-10-01T09:19:32Z</time>
      </trkpt>
      <trkpt lat="47.15282" lon="7.38625">
        <ele>429.2</ele>
        <time>2022-10-01T09:19:33Z</time>
      </trkpt>
      <trkpt lat="47.15287" lon="7.38625">
        <ele>429.2</ele>
        <time>2022-10-01T09:19:34Z</time>
      </trkpt>
      <trkpt lat="47.15291" lon="7.38626">
        <ele>429.2</ele>
        <time>2022-10-01T09:19:35Z</time>
      </trkpt>
      <trkpt lat="47.15297" lon="7.38627">
        <ele>429.2</ele>
        <time>2022-10-01T09:19:36Z</time>
      </trkpt>
      <trkpt lat="47.15302" lon="7.38629">
        <ele>429.2</ele>
        <time>2022-10-01T09:19:37Z</time>
      </trkpt>
      <trkpt lat="47.15306" lon="7.3863">
        <ele>429.2</ele>
        <time>2022-10-01T09:19:38Z</time>
      </trkpt>
      <trkpt lat="47.15311" lon="7.38632">
        <ele>429.1</ele>
        <time>2022-10-01T09:19:39Z</time>
      </trkpt>
      <trkpt lat="47.15316" lon="7.38633">
        <ele>429.1</ele>
        <time>2022-10-01T09:19:40Z</time>
      </trkpt>
      <trkpt lat="47.15321" lon="7.38634">
        <ele>429.1</ele>
        <time>2022-10-01T09:19:41Z</time>
      </trkpt>
      <trkpt lat="47.15327" lon="7.38637">
        <ele>429.1</ele>
        <time>2022-10-01T09:19:42Z</time>
      </trkpt>
      <trkpt lat="47.15331" lon="7.38639">
        <ele>429.1</ele>
        <time>2022-10-01T09:19:43Z</time>
      </trkpt>
      <trkpt lat="47.15337" lon="7.38641">
        <ele>429.1</ele>
        <time>2022-10-01T09:19:44Z</time>
      </trkpt>
      <trkpt lat="47.15342" lon="7.38641">
        <ele>429.1</ele>
        <time>2022-10-01T09:19:45Z</time>
      </trkpt>
      <trkpt lat="47.15347" lon="7.38642">
        <ele>429.1</ele>
        <time>2022-10-01T09:19:46Z</time>
      </trkpt>
      <trkpt lat="47.15352" lon="7.38643">
        <ele>429.2</ele>
        <time>2022-10-01T09:19:47Z</time>
      </trkpt>
      <trkpt lat="47.15357" lon="7.38645">
        <ele>429.2</ele>
        <time>2022-10-01T09:19:48Z</time>
      </trkpt>
      <trkpt lat="47.15362" lon="7.38647">
        <ele>429.2</ele>
        <time>2022-10-01T09:19:49Z</time>
      </trkpt>
      <trkpt lat="47.15367" lon="7.38648">
        <ele>429.2</ele>
        <time>2022-10-01T09:19:50Z</time>
      </trkpt>
      <trkpt lat="47.15373" lon="7.38649">
        <ele>429.2</ele>
        <time>2022-10-01T09:19:51Z</time>
      </trkpt>
      <trkpt lat="47.15378" lon="7.3865">
        <ele>429.2</ele>
        <time>2022-10-01T09:19:52Z</time>
      </trkpt>
      <trkpt lat="47.15384" lon="7.38653">
        <ele>429.2</ele>
        <time>2022-10-01T09:19:53Z</time>
      </trkpt>
      <trkpt lat="47.15389" lon="7.38656">
        <ele>429.2</ele>
        <time>2022-10-01T09:19:54Z</time>
      </trkpt>
      <trkpt lat="47.15394" lon="7.38659">
        <ele>429.2</ele>
        <time>2022-10-01T09:19:55Z</time>
      </trkpt>
      <trkpt lat="47.15401" lon="7.38662">
        <ele>429.2</ele>
        <time>2022-10-01T09:19:56Z</time>
      </trkpt>
      <trkpt lat="47.15406" lon="7.38663">
        <ele>429.2</ele>
        <time>2022-10-01T09:19:57Z</time>
      </trkpt>
      <trkpt lat="47.15411" lon="7.38665">
        <ele>429.2</ele>
        <time>2022-10-01T09:19:58Z</time>
      </trkpt>
      <trkpt lat="47.15416" lon="7.38667">
        <ele>429.2</ele>
        <time>2022-10-01T09:19:59Z</time>
      </trkpt>
      <trkpt lat="47.15421" lon="7.3867">
        <ele>429.2</ele>
        <time>2022-10-01T09:20:00Z</time>
      </trkpt>
      <trkpt lat="47.15428" lon="7.38672">
        <ele>429.2</ele>
        <time>2022-10-01T09:20:01Z</time>
      </trkpt>
      <trkpt lat="47.15433" lon="7.38674">
        <ele>429.2</ele>
        <time>2022-10-01T09:20:02Z</time>
      </trkpt>
      <trkpt lat="47.15438" lon="7.38677">
        <ele>429.2</ele>
        <time>2022-10-01T09:20:03Z</time>
      </trkpt>
      <trkpt lat="47.15443" lon="7.38679">
        <ele>429.3</ele>
        <time>2022-10-01T09:20:04Z</time>
      </trkpt>
      <trkpt lat="47.15448" lon="7.3868">
        <ele>429.3</ele>
        <time>2022-10-01T09:20:05Z</time>
      </trkpt>
      <trkpt lat="47.15453" lon="7.38682">
        <ele>429.3</ele>
        <time>2022-10-01T09:20:06Z</time>
      </trkpt>
      <trkpt lat="47.15458" lon="7.38685">
        <ele>429.3</ele>
        <time>2022-10-01T09:20:07Z</time>
      </trkpt>
      <trkpt lat="47.15462" lon="7.38688">
        <ele>429.2</ele>
        <time>2022-10-01T09:20:08Z</time>
      </trkpt>
      <trkpt lat="47.15467" lon="7.3869">
        <ele>429.2</ele>
        <time>2022-10-01T09:20:09Z</time>
      </trkpt>
      <trkpt lat="47.15472" lon="7.38692">
        <ele>429.2</ele>
        <time>2022-10-01T09:20:10Z</time>
      </trkpt>
      <trkpt lat="47.15478" lon="7.38694">
        <ele>429.2</ele>
        <time>2022-10-01T09:20:11Z</time>
      </trkpt>
      <trkpt lat="47.15484" lon="7.38697">
        <ele>429.2</ele>
        <time>2022-10-01T09:20:12Z</time>
      </trkpt>
      <trkpt lat="47.1549" lon="7.387">
        <ele>429.2</ele>
        <time>2022-10-01T09:20:13Z</time>
      </trkpt>
      <trkpt lat="47.15496" lon="7.38703">
        <ele>429.2</ele>
        <time>2022-10-01T09:20:14Z</time>
      </trkpt>
      <trkpt lat="47.155" lon="7.38707">
        <ele>429.2</ele>
        <time>2022-10-01T09:20:15Z</time>
      </trkpt>
      <trkpt lat="47.15505" lon="7.38708">
        <ele>429.2</ele>
        <time>2022-10-01T09:20:16Z</time>
      </trkpt>
      <trkpt lat="47.15509" lon="7.38709">
        <ele>429.2</ele>
        <time>2022-10-01T09:20:17Z</time>
      </trkpt>
      <trkpt lat="47.15515" lon="7.38712">
        <ele>429.2</ele>
        <time>2022-10-01T09:20:18Z</time>
      </trkpt>
      <trkpt lat="47.15522" lon="7.38714">
        <ele>429.2</ele>
        <time>2022-10-01T09:20:19Z</time>
      </trkpt>
      <trkpt lat="47.15528" lon="7.38717">
        <ele>429.2</ele>
        <time>2022-10-01T09:20:20Z</time>
      </trkpt>
      <trkpt lat="47.15534" lon="7.38719">
        <ele>429.2</ele>
        <time>2022-10-01T09:20:21Z</time>
      </trkpt>
      <trkpt lat="47.1554" lon="7.38721">
        <ele>429.2</ele>
        <time>2022-10-01T09:20:22Z</time>
      </trkpt>
      <trkpt lat="47.15546" lon="7.38724">
        <ele>429.2</ele>
        <time>2022-10-01T09:20:23Z</time>
      </trkpt>
      <trkpt lat="47.15551" lon="7.38725">
        <ele>429.2</ele>
        <time>2022-10-01T09:20:24Z</time>
      </trkpt>
      <trkpt lat="47.15556" lon="7.38729">
        <ele>429.2</ele>
        <time>2022-10-01T09:20:25Z</time>
      </trkpt>
      <trkpt lat="47.15562" lon="7.3873">
        <ele>429.2</ele>
        <time>2022-10-01T09:20:26Z</time>
      </trkpt>
      <trkpt lat="47.15567" lon="7.38732">
        <ele>429.2</ele>
        <time>2022-10-01T09:20:27Z</time>
      </trkpt>
      <trkpt lat="47.15572" lon="7.38734">
        <ele>429.2</ele>
        <time>2022-10-01T09:20:28Z</time>
      </trkpt>
      <trkpt lat="47.15576" lon="7.38734">
        <ele>429.2</ele>
        <time>2022-10-01T09:20:29Z</time>
      </trkpt>
      <trkpt lat="47.15581" lon="7.38736">
        <ele>429.2</ele>
        <time>2022-10-01T09:20:30Z</time>
      </trkpt>
      <trkpt lat="47.15588" lon="7.38738">
        <ele>429.2</ele>
        <time>2022-10-01T09:20:31Z</time>
      </trkpt>
      <trkpt lat="47.15593" lon="7.38739">
        <ele>429.2</ele>
        <time>2022-10-01T09:20:32Z</time>
      </trkpt>
      <trkpt lat="47.15599" lon="7.38741">
        <ele>429.3</ele>
        <time>2022-10-01T09:20:33Z</time>
      </trkpt>
      <trkpt lat="47.15603" lon="7.38744">
        <ele>429.3</ele>
        <time>2022-10-01T09:20:34Z</time>
      </trkpt>
      <trkpt lat="47.15609" lon="7.38746">
        <ele>429.3</ele>
        <time>2022-10-01T09:20:35Z</time>
      </trkpt>
      <trkpt lat="47.15614" lon="7.38747">
        <ele>429.4</ele>
        <time>2022-10-01T09:20:36Z</time>
      </trkpt>
      <trkpt lat="47.15619" lon="7.38749">
        <ele>429.5</ele>
        <time>2022-10-01T09:20:37Z</time>
      </trkpt>
      <trkpt lat="47.15624" lon="7.38753">
        <ele>429.5</ele>
        <time>2022-10-01T09:20:38Z</time>
      </trkpt>
      <trkpt lat="47.1563" lon="7.38756">
        <ele>429.5</ele>
        <time>2022-10-01T09:20:39Z</time>
      </trkpt>
      <trkpt lat="47.15635" lon="7.38758">
        <ele>429.5</ele>
        <time>2022-10-01T09:20:40Z</time>
      </trkpt>
      <trkpt lat="47.1564" lon="7.3876">
        <ele>429.6</ele>
        <time>2022-10-01T09:20:41Z</time>
      </trkpt>
      <trkpt lat="47.15644" lon="7.38763">
        <ele>429.6</ele>
        <time>2022-10-01T09:20:42Z</time>
      </trkpt>
      <trkpt lat="47.15648" lon="7.38765">
        <ele>429.6</ele>
        <time>2022-10-01T09:20:43Z</time>
      </trkpt>
      <trkpt lat="47.15653" lon="7.38768">
        <ele>429.6</ele>
        <time>2022-10-01T09:20:44Z</time>
      </trkpt>
      <trkpt lat="47.15657" lon="7.38771">
        <ele>429.6</ele>
        <time>2022-10-01T09:20:45Z</time>
      </trkpt>
      <trkpt lat="47.15663" lon="7.38774">
        <ele>429.6</ele>
        <time>2022-10-01T09:20:46Z</time>
      </trkpt>
      <trkpt lat="47.15668" lon="7.38778">
        <ele>429.6</ele>
        <time>2022-10-01T09:20:47Z</time>
      </trkpt>
      <trkpt lat="47.15673" lon="7.38781">
        <ele>429.7</ele>
        <time>2022-10-01T09:20:48Z</time>
      </trkpt>
      <trkpt lat="47.15677" lon="7.38783">
        <ele>429.7</ele>
        <time>2022-10-01T09:20:49Z</time>
      </trkpt>
      <trkpt lat="47.15681" lon="7.38785">
        <ele>429.7</ele>
        <time>2022-10-01T09:20:51Z</time>
      </trkpt>
      <trkpt lat="47.15686" lon="7.38788">
        <ele>429.7</ele>
        <time>2022-10-01T09:20:52Z</time>
      </trkpt>
      <trkpt lat="47.15689" lon="7.38791">
        <ele>429.7</ele>
        <time>2022-10-01T09:20:53Z</time>
      </trkpt>
      <trkpt lat="47.15694" lon="7.38793">
        <ele>429.7</ele>
        <time>2022-10-01T09:20:54Z</time>
      </trkpt>
      <trkpt lat="47.15699" lon="7.38797">
        <ele>429.7</ele>
        <time>2022-10-01T09:20:55Z</time>
      </trkpt>
      <trkpt lat="47.15709" lon="7.38803">
        <ele>429.7</ele>
        <time>2022-10-01T09:20:56Z</time>
      </trkpt>
      <trkpt lat="47.15715" lon="7.38807">
        <ele>429.7</ele>
        <time>2022-10-01T09:20:57Z</time>
      </trkpt>
      <trkpt lat="47.1572" lon="7.38811">
        <ele>429.7</ele>
        <time>2022-10-01T09:20:59Z</time>
      </trkpt>
      <trkpt lat="47.15731" lon="7.38818">
        <ele>429.7</ele>
        <time>2022-10-01T09:21:00Z</time>
      </trkpt>
      <trkpt lat="47.15736" lon="7.38822">
        <ele>429.7</ele>
        <time>2022-10-01T09:21:01Z</time>
      </trkpt>
      <trkpt lat="47.15742" lon="7.38825">
        <ele>429.7</ele>
        <time>2022-10-01T09:21:02Z</time>
      </trkpt>
      <trkpt lat="47.15747" lon="7.38829">
        <ele>429.7</ele>
        <time>2022-10-01T09:21:03Z</time>
      </trkpt>
      <trkpt lat="47.15752" lon="7.38831">
        <ele>429.7</ele>
        <time>2022-10-01T09:21:04Z</time>
      </trkpt>
      <trkpt lat="47.15756" lon="7.38835">
        <ele>429.7</ele>
        <time>2022-10-01T09:21:05Z</time>
      </trkpt>
      <trkpt lat="47.15761" lon="7.38839">
        <ele>429.7</ele>
        <time>2022-10-01T09:21:06Z</time>
      </trkpt>
      <trkpt lat="47.15766" lon="7.38842">
        <ele>429.7</ele>
        <time>2022-10-01T09:21:07Z</time>
      </trkpt>
      <trkpt lat="47.15771" lon="7.38846">
        <ele>429.7</ele>
        <time>2022-10-01T09:21:08Z</time>
      </trkpt>
      <trkpt lat="47.15776" lon="7.38849">
        <ele>429.7</ele>
        <time>2022-10-01T09:21:09Z</time>
      </trkpt>
      <trkpt lat="47.15782" lon="7.38853">
        <ele>429.7</ele>
        <time>2022-10-01T09:21:10Z</time>
      </trkpt>
      <trkpt lat="47.15786" lon="7.38856">
        <ele>429.7</ele>
        <time>2022-10-01T09:21:11Z</time>
      </trkpt>
      <trkpt lat="47.15791" lon="7.3886">
        <ele>429.7</ele>
        <time>2022-10-01T09:21:12Z</time>
      </trkpt>
      <trkpt lat="47.15796" lon="7.38864">
        <ele>429.7</ele>
        <time>2022-10-01T09:21:13Z</time>
      </trkpt>
      <trkpt lat="47.15802" lon="7.38868">
        <ele>429.7</ele>
        <time>2022-10-01T09:21:14Z</time>
      </trkpt>
      <trkpt lat="47.15805" lon="7.38871">
        <ele>429.7</ele>
        <time>2022-10-01T09:21:15Z</time>
      </trkpt>
      <trkpt lat="47.15811" lon="7.38876">
        <ele>429.7</ele>
        <time>2022-10-01T09:21:16Z</time>
      </trkpt>
      <trkpt lat="47.15817" lon="7.38879">
        <ele>429.7</ele>
        <time>2022-10-01T09:21:17Z</time>
      </trkpt>
      <trkpt lat="47.15823" lon="7.38883">
        <ele>429.7</ele>
        <time>2022-10-01T09:21:18Z</time>
      </trkpt>
      <trkpt lat="47.15827" lon="7.38887">
        <ele>429.7</ele>
        <time>2022-10-01T09:21:19Z</time>
      </trkpt>
      <trkpt lat="47.15833" lon="7.38892">
        <ele>429.7</ele>
        <time>2022-10-01T09:21:20Z</time>
      </trkpt>
      <trkpt lat="47.15838" lon="7.38895">
        <ele>429.7</ele>
        <time>2022-10-01T09:21:21Z</time>
      </trkpt>
      <trkpt lat="47.15842" lon="7.38899">
        <ele>429.7</ele>
        <time>2022-10-01T09:21:22Z</time>
      </trkpt>
      <trkpt lat="47.15847" lon="7.38903">
        <ele>429.7</ele>
        <time>2022-10-01T09:21:23Z</time>
      </trkpt>
      <trkpt lat="47.15852" lon="7.38908">
        <ele>429.7</ele>
        <time>2022-10-01T09:21:24Z</time>
      </trkpt>
      <trkpt lat="47.15857" lon="7.38913">
        <ele>429.7</ele>
        <time>2022-10-01T09:21:25Z</time>
      </trkpt>
      <trkpt lat="47.15863" lon="7.38917">
        <ele>429.7</ele>
        <time>2022-10-01T09:21:26Z</time>
      </trkpt>
      <trkpt lat="47.15867" lon="7.38922">
        <ele>429.7</ele>
        <time>2022-10-01T09:21:27Z</time>
      </trkpt>
      <trkpt lat="47.15872" lon="7.38927">
        <ele>429.8</ele>
        <time>2022-10-01T09:21:28Z</time>
      </trkpt>
      <trkpt lat="47.15877" lon="7.38932">
        <ele>429.8</ele>
        <time>2022-10-01T09:21:29Z</time>
      </trkpt>
      <trkpt lat="47.15883" lon="7.38937">
        <ele>429.8</ele>
        <time>2022-10-01T09:21:30Z</time>
      </trkpt>
      <trkpt lat="47.15887" lon="7.38941">
        <ele>429.8</ele>
        <time>2022-10-01T09:21:31Z</time>
      </trkpt>
      <trkpt lat="47.15891" lon="7.38946">
        <ele>429.8</ele>
        <time>2022-10-01T09:21:32Z</time>
      </trkpt>
      <trkpt lat="47.15896" lon="7.38952">
        <ele>429.7</ele>
        <time>2022-10-01T09:21:33Z</time>
      </trkpt>
      <trkpt lat="47.15901" lon="7.38957">
        <ele>429.7</ele>
        <time>2022-10-01T09:21:34Z</time>
      </trkpt>
      <trkpt lat="47.15906" lon="7.38962">
        <ele>429.7</ele>
        <time>2022-10-01T09:21:35Z</time>
      </trkpt>
      <trkpt lat="47.15911" lon="7.38967">
        <ele>429.7</ele>
        <time>2022-10-01T09:21:36Z</time>
      </trkpt>
      <trkpt lat="47.15916" lon="7.38972">
        <ele>429.6</ele>
        <time>2022-10-01T09:21:37Z</time>
      </trkpt>
      <trkpt lat="47.1592" lon="7.38977">
        <ele>429.6</ele>
        <time>2022-10-01T09:21:38Z</time>
      </trkpt>
      <trkpt lat="47.15926" lon="7.38982">
        <ele>429.5</ele>
        <time>2022-10-01T09:21:39Z</time>
      </trkpt>
      <trkpt lat="47.15931" lon="7.38988">
        <ele>429.5</ele>
        <time>2022-10-01T09:21:40Z</time>
      </trkpt>
      <trkpt lat="47.15935" lon="7.38993">
        <ele>429.5</ele>
        <time>2022-10-01T09:21:41Z</time>
      </trkpt>
      <trkpt lat="47.15941" lon="7.38996">
        <ele>429.5</ele>
        <time>2022-10-01T09:21:42Z</time>
      </trkpt>
      <trkpt lat="47.15945" lon="7.39001">
        <ele>429.6</ele>
        <time>2022-10-01T09:21:43Z</time>
      </trkpt>
      <trkpt lat="47.1595" lon="7.39006">
        <ele>429.6</ele>
        <time>2022-10-01T09:21:44Z</time>
      </trkpt>
      <trkpt lat="47.15955" lon="7.39008">
        <ele>429.6</ele>
        <time>2022-10-01T09:21:45Z</time>
      </trkpt>
      <trkpt lat="47.15958" lon="7.3901">
        <ele>429.7</ele>
        <time>2022-10-01T09:21:46Z</time>
      </trkpt>
      <trkpt lat="47.15963" lon="7.39011">
        <ele>429.6</ele>
        <time>2022-10-01T09:21:47Z</time>
      </trkpt>
      <trkpt lat="47.15966" lon="7.3901">
        <ele>429.6</ele>
        <time>2022-10-01T09:21:48Z</time>
      </trkpt>
      <trkpt lat="47.1597" lon="7.39008">
        <ele>429.6</ele>
        <time>2022-10-01T09:21:49Z</time>
      </trkpt>
      <trkpt lat="47.15974" lon="7.39006">
        <ele>429.6</ele>
        <time>2022-10-01T09:21:50Z</time>
      </trkpt>
      <trkpt lat="47.15977" lon="7.39005">
        <ele>429.5</ele>
        <time>2022-10-01T09:21:51Z</time>
      </trkpt>
      <trkpt lat="47.1598" lon="7.39001">
        <ele>429.5</ele>
        <time>2022-10-01T09:21:52Z</time>
      </trkpt>
      <trkpt lat="47.15985" lon="7.38999">
        <ele>429.4</ele>
        <time>2022-10-01T09:21:53Z</time>
      </trkpt>
      <trkpt lat="47.15989" lon="7.38996">
        <ele>429.4</ele>
        <time>2022-10-01T09:21:54Z</time>
      </trkpt>
      <trkpt lat="47.15993" lon="7.38993">
        <ele>429.3</ele>
        <time>2022-10-01T09:21:55Z</time>
      </trkpt>
      <trkpt lat="47.15997" lon="7.38991">
        <ele>429.3</ele>
        <time>2022-10-01T09:21:56Z</time>
      </trkpt>
      <trkpt lat="47.16001" lon="7.38988">
        <ele>429.2</ele>
        <time>2022-10-01T09:21:57Z</time>
      </trkpt>
      <trkpt lat="47.16006" lon="7.38987">
        <ele>429.2</ele>
        <time>2022-10-01T09:21:58Z</time>
      </trkpt>
      <trkpt lat="47.16011" lon="7.38985">
        <ele>429.2</ele>
        <time>2022-10-01T09:21:59Z</time>
      </trkpt>
      <trkpt lat="47.16016" lon="7.38984">
        <ele>429.2</ele>
        <time>2022-10-01T09:22:00Z</time>
      </trkpt>
      <trkpt lat="47.16021" lon="7.38981">
        <ele>429.2</ele>
        <time>2022-10-01T09:22:01Z</time>
      </trkpt>
      <trkpt lat="47.16025" lon="7.38979">
        <ele>429.2</ele>
        <time>2022-10-01T09:22:02Z</time>
      </trkpt>
      <trkpt lat="47.1603" lon="7.38978">
        <ele>429.1</ele>
        <time>2022-10-01T09:22:03Z</time>
      </trkpt>
      <trkpt lat="47.16036" lon="7.38976">
        <ele>429.1</ele>
        <time>2022-10-01T09:22:04Z</time>
      </trkpt>
      <trkpt lat="47.1604" lon="7.38974">
        <ele>429.2</ele>
        <time>2022-10-01T09:22:05Z</time>
      </trkpt>
      <trkpt lat="47.16045" lon="7.38972">
        <ele>429.2</ele>
        <time>2022-10-01T09:22:06Z</time>
      </trkpt>
      <trkpt lat="47.1605" lon="7.38971">
        <ele>429.2</ele>
        <time>2022-10-01T09:22:07Z</time>
      </trkpt>
      <trkpt lat="47.16055" lon="7.38968">
        <ele>429.3</ele>
        <time>2022-10-01T09:22:08Z</time>
      </trkpt>
      <trkpt lat="47.16059" lon="7.38966">
        <ele>429.4</ele>
        <time>2022-10-01T09:22:09Z</time>
      </trkpt>
      <trkpt lat="47.16063" lon="7.38965">
        <ele>429.4</ele>
        <time>2022-10-01T09:22:10Z</time>
      </trkpt>
      <trkpt lat="47.16066" lon="7.38963">
        <ele>429.4</ele>
        <time>2022-10-01T09:22:11Z</time>
      </trkpt>
      <trkpt lat="47.16069" lon="7.38963">
        <ele>429.4</ele>
        <time>2022-10-01T09:22:12Z</time>
      </trkpt>
      <trkpt lat="47.16073" lon="7.38963">
        <ele>429.4</ele>
        <time>2022-10-01T09:22:13Z</time>
      </trkpt>
      <trkpt lat="47.16075" lon="7.38964">
        <ele>429.3</ele>
        <time>2022-10-01T09:22:14Z</time>
      </trkpt>
      <trkpt lat="47.16078" lon="7.38965">
        <ele>429.3</ele>
        <time>2022-10-01T09:22:15Z</time>
      </trkpt>
      <trkpt lat="47.16082" lon="7.3897">
        <ele>429.2</ele>
        <time>2022-10-01T09:22:16Z</time>
      </trkpt>
      <trkpt lat="47.16084" lon="7.38977">
        <ele>429.2</ele>
        <time>2022-10-01T09:22:17Z</time>
      </trkpt>
      <trkpt lat="47.16085" lon="7.38982">
        <ele>429.1</ele>
        <time>2022-10-01T09:22:18Z</time>
      </trkpt>
      <trkpt lat="47.16086" lon="7.38988">
        <ele>429.1</ele>
        <time>2022-10-01T09:22:19Z</time>
      </trkpt>
      <trkpt lat="47.16087" lon="7.38993">
        <ele>429</ele>
        <time>2022-10-01T09:22:20Z</time>
      </trkpt>
      <trkpt lat="47.16089" lon="7.38999">
        <ele>429</ele>
        <time>2022-10-01T09:22:21Z</time>
      </trkpt>
      <trkpt lat="47.16091" lon="7.39007">
        <ele>429</ele>
        <time>2022-10-01T09:22:22Z</time>
      </trkpt>
      <trkpt lat="47.16093" lon="7.39013">
        <ele>429</ele>
        <time>2022-10-01T09:22:23Z</time>
      </trkpt>
      <trkpt lat="47.16094" lon="7.3902">
        <ele>429</ele>
        <time>2022-10-01T09:22:24Z</time>
      </trkpt>
      <trkpt lat="47.16096" lon="7.39028">
        <ele>429</ele>
        <time>2022-10-01T09:22:25Z</time>
      </trkpt>
      <trkpt lat="47.16097" lon="7.39036">
        <ele>429</ele>
        <time>2022-10-01T09:22:26Z</time>
      </trkpt>
      <trkpt lat="47.16099" lon="7.39042">
        <ele>429</ele>
        <time>2022-10-01T09:22:27Z</time>
      </trkpt>
      <trkpt lat="47.161" lon="7.3905">
        <ele>429</ele>
        <time>2022-10-01T09:22:28Z</time>
      </trkpt>
      <trkpt lat="47.16101" lon="7.39057">
        <ele>429</ele>
        <time>2022-10-01T09:22:29Z</time>
      </trkpt>
      <trkpt lat="47.16103" lon="7.39065">
        <ele>429.1</ele>
        <time>2022-10-01T09:22:30Z</time>
      </trkpt>
      <trkpt lat="47.16104" lon="7.39072">
        <ele>429.1</ele>
        <time>2022-10-01T09:22:31Z</time>
      </trkpt>
      <trkpt lat="47.16106" lon="7.3908">
        <ele>429.1</ele>
        <time>2022-10-01T09:22:32Z</time>
      </trkpt>
      <trkpt lat="47.16108" lon="7.39088">
        <ele>429.2</ele>
        <time>2022-10-01T09:22:33Z</time>
      </trkpt>
      <trkpt lat="47.16109" lon="7.39096">
        <ele>429.2</ele>
        <time>2022-10-01T09:22:34Z</time>
      </trkpt>
      <trkpt lat="47.1611" lon="7.39103">
        <ele>429.2</ele>
        <time>2022-10-01T09:22:35Z</time>
      </trkpt>
      <trkpt lat="47.16112" lon="7.39112">
        <ele>429.3</ele>
        <time>2022-10-01T09:22:36Z</time>
      </trkpt>
      <trkpt lat="47.16113" lon="7.39119">
        <ele>429.3</ele>
        <time>2022-10-01T09:22:37Z</time>
      </trkpt>
      <trkpt lat="47.16115" lon="7.39127">
        <ele>429.3</ele>
        <time>2022-10-01T09:22:38Z</time>
      </trkpt>
      <trkpt lat="47.16116" lon="7.39135">
        <ele>429.3</ele>
        <time>2022-10-01T09:22:39Z</time>
      </trkpt>
      <trkpt lat="47.16117" lon="7.39143">
        <ele>429.3</ele>
        <time>2022-10-01T09:22:40Z</time>
      </trkpt>
      <trkpt lat="47.16118" lon="7.3915">
        <ele>429.4</ele>
        <time>2022-10-01T09:22:41Z</time>
      </trkpt>
      <trkpt lat="47.16119" lon="7.39158">
        <ele>429.4</ele>
        <time>2022-10-01T09:22:42Z</time>
      </trkpt>
      <trkpt lat="47.16121" lon="7.39166">
        <ele>429.4</ele>
        <time>2022-10-01T09:22:43Z</time>
      </trkpt>
      <trkpt lat="47.16121" lon="7.39175">
        <ele>429.5</ele>
        <time>2022-10-01T09:22:44Z</time>
      </trkpt>
      <trkpt lat="47.16122" lon="7.39183">
        <ele>429.5</ele>
        <time>2022-10-01T09:22:45Z</time>
      </trkpt>
      <trkpt lat="47.16122" lon="7.39191">
        <ele>429.6</ele>
        <time>2022-10-01T09:22:46Z</time>
      </trkpt>
      <trkpt lat="47.16123" lon="7.39199">
        <ele>429.6</ele>
        <time>2022-10-01T09:22:47Z</time>
      </trkpt>
      <trkpt lat="47.16124" lon="7.39207">
        <ele>429.6</ele>
        <time>2022-10-01T09:22:48Z</time>
      </trkpt>
      <trkpt lat="47.16124" lon="7.39214">
        <ele>429.6</ele>
        <time>2022-10-01T09:22:49Z</time>
      </trkpt>
      <trkpt lat="47.16124" lon="7.39221">
        <ele>429.6</ele>
        <time>2022-10-01T09:22:50Z</time>
      </trkpt>
      <trkpt lat="47.16124" lon="7.39229">
        <ele>429.6</ele>
        <time>2022-10-01T09:22:51Z</time>
      </trkpt>
      <trkpt lat="47.16124" lon="7.39237">
        <ele>429.6</ele>
        <time>2022-10-01T09:22:52Z</time>
      </trkpt>
      <trkpt lat="47.16124" lon="7.39243">
        <ele>429.6</ele>
        <time>2022-10-01T09:22:53Z</time>
      </trkpt>
      <trkpt lat="47.16125" lon="7.39251">
        <ele>429.6</ele>
        <time>2022-10-01T09:22:54Z</time>
      </trkpt>
      <trkpt lat="47.16125" lon="7.39256">
        <ele>429.6</ele>
        <time>2022-10-01T09:22:55Z</time>
      </trkpt>
      <trkpt lat="47.16126" lon="7.39262">
        <ele>429.7</ele>
        <time>2022-10-01T09:22:57Z</time>
      </trkpt>
      <trkpt lat="47.16127" lon="7.39274">
        <ele>429.7</ele>
        <time>2022-10-01T09:22:58Z</time>
      </trkpt>
      <trkpt lat="47.16128" lon="7.39279">
        <ele>429.7</ele>
        <time>2022-10-01T09:22:59Z</time>
      </trkpt>
      <trkpt lat="47.16129" lon="7.39285">
        <ele>429.7</ele>
        <time>2022-10-01T09:23:00Z</time>
      </trkpt>
      <trkpt lat="47.1613" lon="7.39291">
        <ele>429.7</ele>
        <time>2022-10-01T09:23:01Z</time>
      </trkpt>
      <trkpt lat="47.16131" lon="7.39297">
        <ele>429.7</ele>
        <time>2022-10-01T09:23:02Z</time>
      </trkpt>
      <trkpt lat="47.16132" lon="7.39303">
        <ele>429.7</ele>
        <time>2022-10-01T09:23:03Z</time>
      </trkpt>
      <trkpt lat="47.16134" lon="7.39308">
        <ele>429.7</ele>
        <time>2022-10-01T09:23:04Z</time>
      </trkpt>
      <trkpt lat="47.16136" lon="7.39315">
        <ele>429.7</ele>
        <time>2022-10-01T09:23:05Z</time>
      </trkpt>
      <trkpt lat="47.16138" lon="7.3932">
        <ele>429.7</ele>
        <time>2022-10-01T09:23:07Z</time>
      </trkpt>
      <trkpt lat="47.16144" lon="7.39333">
        <ele>429.7</ele>
        <time>2022-10-01T09:23:08Z</time>
      </trkpt>
      <trkpt lat="47.16147" lon="7.39339">
        <ele>429.7</ele>
        <time>2022-10-01T09:23:09Z</time>
      </trkpt>
      <trkpt lat="47.16149" lon="7.39345">
        <ele>429.7</ele>
        <time>2022-10-01T09:23:10Z</time>
      </trkpt>
      <trkpt lat="47.16153" lon="7.39351">
        <ele>429.7</ele>
        <time>2022-10-01T09:23:11Z</time>
      </trkpt>
      <trkpt lat="47.16155" lon="7.39359">
        <ele>429.7</ele>
        <time>2022-10-01T09:23:12Z</time>
      </trkpt>
      <trkpt lat="47.16158" lon="7.39365">
        <ele>429.7</ele>
        <time>2022-10-01T09:23:13Z</time>
      </trkpt>
      <trkpt lat="47.16161" lon="7.39372">
        <ele>429.7</ele>
        <time>2022-10-01T09:23:14Z</time>
      </trkpt>
      <trkpt lat="47.16163" lon="7.39379">
        <ele>429.7</ele>
        <time>2022-10-01T09:23:15Z</time>
      </trkpt>
      <trkpt lat="47.16166" lon="7.39386">
        <ele>429.7</ele>
        <time>2022-10-01T09:23:16Z</time>
      </trkpt>
      <trkpt lat="47.16169" lon="7.39394">
        <ele>429.7</ele>
        <time>2022-10-01T09:23:17Z</time>
      </trkpt>
      <trkpt lat="47.16171" lon="7.39402">
        <ele>429.7</ele>
        <time>2022-10-01T09:23:18Z</time>
      </trkpt>
      <trkpt lat="47.16174" lon="7.39408">
        <ele>429.7</ele>
        <time>2022-10-01T09:23:19Z</time>
      </trkpt>
      <trkpt lat="47.16175" lon="7.39416">
        <ele>429.7</ele>
        <time>2022-10-01T09:23:20Z</time>
      </trkpt>
      <trkpt lat="47.16177" lon="7.39424">
        <ele>429.7</ele>
        <time>2022-10-01T09:23:21Z</time>
      </trkpt>
      <trkpt lat="47.1618" lon="7.39432">
        <ele>429.7</ele>
        <time>2022-10-01T09:23:22Z</time>
      </trkpt>
      <trkpt lat="47.16181" lon="7.39441">
        <ele>429.7</ele>
        <time>2022-10-01T09:23:23Z</time>
      </trkpt>
      <trkpt lat="47.16183" lon="7.39448">
        <ele>429.7</ele>
        <time>2022-10-01T09:23:24Z</time>
      </trkpt>
      <trkpt lat="47.16184" lon="7.39457">
        <ele>429.7</ele>
        <time>2022-10-01T09:23:25Z</time>
      </trkpt>
      <trkpt lat="47.16185" lon="7.39465">
        <ele>429.7</ele>
        <time>2022-10-01T09:23:26Z</time>
      </trkpt>
      <trkpt lat="47.16187" lon="7.39474">
        <ele>429.7</ele>
        <time>2022-10-01T09:23:27Z</time>
      </trkpt>
      <trkpt lat="47.16189" lon="7.39483">
        <ele>429.7</ele>
        <time>2022-10-01T09:23:28Z</time>
      </trkpt>
      <trkpt lat="47.1619" lon="7.3949">
        <ele>429.7</ele>
        <time>2022-10-01T09:23:29Z</time>
      </trkpt>
      <trkpt lat="47.16192" lon="7.39497">
        <ele>429.7</ele>
        <time>2022-10-01T09:23:30Z</time>
      </trkpt>
      <trkpt lat="47.16194" lon="7.39507">
        <ele>429.7</ele>
        <time>2022-10-01T09:23:31Z</time>
      </trkpt>
      <trkpt lat="47.16197" lon="7.39514">
        <ele>429.7</ele>
        <time>2022-10-01T09:23:32Z</time>
      </trkpt>
      <trkpt lat="47.162" lon="7.39523">
        <ele>429.7</ele>
        <time>2022-10-01T09:23:33Z</time>
      </trkpt>
      <trkpt lat="47.16203" lon="7.3953">
        <ele>429.7</ele>
        <time>2022-10-01T09:23:34Z</time>
      </trkpt>
      <trkpt lat="47.16207" lon="7.39539">
        <ele>429.7</ele>
        <time>2022-10-01T09:23:35Z</time>
      </trkpt>
      <trkpt lat="47.1621" lon="7.39545">
        <ele>429.7</ele>
        <time>2022-10-01T09:23:36Z</time>
      </trkpt>
      <trkpt lat="47.16213" lon="7.39554">
        <ele>429.7</ele>
        <time>2022-10-01T09:23:37Z</time>
      </trkpt>
      <trkpt lat="47.16216" lon="7.39561">
        <ele>429.7</ele>
        <time>2022-10-01T09:23:38Z</time>
      </trkpt>
      <trkpt lat="47.16219" lon="7.39569">
        <ele>429.7</ele>
        <time>2022-10-01T09:23:39Z</time>
      </trkpt>
      <trkpt lat="47.16222" lon="7.39577">
        <ele>429.7</ele>
        <time>2022-10-01T09:23:40Z</time>
      </trkpt>
      <trkpt lat="47.16225" lon="7.39585">
        <ele>429.7</ele>
        <time>2022-10-01T09:23:41Z</time>
      </trkpt>
      <trkpt lat="47.16228" lon="7.39593">
        <ele>429.7</ele>
        <time>2022-10-01T09:23:42Z</time>
      </trkpt>
      <trkpt lat="47.16232" lon="7.39601">
        <ele>429.7</ele>
        <time>2022-10-01T09:23:43Z</time>
      </trkpt>
      <trkpt lat="47.16234" lon="7.39609">
        <ele>429.7</ele>
        <time>2022-10-01T09:23:44Z</time>
      </trkpt>
      <trkpt lat="47.16237" lon="7.39616">
        <ele>429.7</ele>
        <time>2022-10-01T09:23:45Z</time>
      </trkpt>
      <trkpt lat="47.1624" lon="7.39624">
        <ele>429.7</ele>
        <time>2022-10-01T09:23:46Z</time>
      </trkpt>
      <trkpt lat="47.16243" lon="7.39632">
        <ele>429.7</ele>
        <time>2022-10-01T09:23:47Z</time>
      </trkpt>
      <trkpt lat="47.16247" lon="7.3964">
        <ele>429.7</ele>
        <time>2022-10-01T09:23:48Z</time>
      </trkpt>
      <trkpt lat="47.1625" lon="7.39648">
        <ele>429.7</ele>
        <time>2022-10-01T09:23:49Z</time>
      </trkpt>
      <trkpt lat="47.16253" lon="7.39656">
        <ele>429.7</ele>
        <time>2022-10-01T09:23:50Z</time>
      </trkpt>
      <trkpt lat="47.16256" lon="7.39665">
        <ele>429.7</ele>
        <time>2022-10-01T09:23:51Z</time>
      </trkpt>
      <trkpt lat="47.16259" lon="7.39673">
        <ele>429.7</ele>
        <time>2022-10-01T09:23:52Z</time>
      </trkpt>
      <trkpt lat="47.16262" lon="7.39681">
        <ele>429.7</ele>
        <time>2022-10-01T09:23:53Z</time>
      </trkpt>
      <trkpt lat="47.16265" lon="7.39688">
        <ele>429.7</ele>
        <time>2022-10-01T09:23:54Z</time>
      </trkpt>
      <trkpt lat="47.16268" lon="7.39697">
        <ele>429.7</ele>
        <time>2022-10-01T09:23:55Z</time>
      </trkpt>
      <trkpt lat="47.16271" lon="7.39706">
        <ele>429.7</ele>
        <time>2022-10-01T09:23:56Z</time>
      </trkpt>
      <trkpt lat="47.16274" lon="7.39714">
        <ele>429.7</ele>
        <time>2022-10-01T09:23:57Z</time>
      </trkpt>
      <trkpt lat="47.16276" lon="7.39722">
        <ele>429.7</ele>
        <time>2022-10-01T09:23:58Z</time>
      </trkpt>
      <trkpt lat="47.16279" lon="7.3973">
        <ele>429.7</ele>
        <time>2022-10-01T09:23:59Z</time>
      </trkpt>
      <trkpt lat="47.16282" lon="7.39739">
        <ele>429.7</ele>
        <time>2022-10-01T09:24:00Z</time>
      </trkpt>
      <trkpt lat="47.16284" lon="7.39748">
        <ele>429.7</ele>
        <time>2022-10-01T09:24:01Z</time>
      </trkpt>
      <trkpt lat="47.16287" lon="7.39756">
        <ele>429.8</ele>
        <time>2022-10-01T09:24:02Z</time>
      </trkpt>
      <trkpt lat="47.1629" lon="7.39763">
        <ele>429.8</ele>
        <time>2022-10-01T09:24:03Z</time>
      </trkpt>
      <trkpt lat="47.16292" lon="7.39773">
        <ele>429.8</ele>
        <time>2022-10-01T09:24:04Z</time>
      </trkpt>
      <trkpt lat="47.16295" lon="7.39781">
        <ele>429.8</ele>
        <time>2022-10-01T09:24:05Z</time>
      </trkpt>
      <trkpt lat="47.16298" lon="7.39791">
        <ele>429.8</ele>
        <time>2022-10-01T09:24:06Z</time>
      </trkpt>
      <trkpt lat="47.163" lon="7.39799">
        <ele>429.8</ele>
        <time>2022-10-01T09:24:07Z</time>
      </trkpt>
      <trkpt lat="47.16303" lon="7.39808">
        <ele>429.8</ele>
        <time>2022-10-01T09:24:08Z</time>
      </trkpt>
      <trkpt lat="47.16305" lon="7.39817">
        <ele>429.8</ele>
        <time>2022-10-01T09:24:09Z</time>
      </trkpt>
      <trkpt lat="47.16307" lon="7.39825">
        <ele>429.8</ele>
        <time>2022-10-01T09:24:10Z</time>
      </trkpt>
      <trkpt lat="47.16309" lon="7.39833">
        <ele>429.8</ele>
        <time>2022-10-01T09:24:11Z</time>
      </trkpt>
      <trkpt lat="47.16312" lon="7.3984">
        <ele>429.8</ele>
        <time>2022-10-01T09:24:12Z</time>
      </trkpt>
      <trkpt lat="47.16313" lon="7.39848">
        <ele>429.8</ele>
        <time>2022-10-01T09:24:13Z</time>
      </trkpt>
      <trkpt lat="47.16315" lon="7.39857">
        <ele>429.8</ele>
        <time>2022-10-01T09:24:14Z</time>
      </trkpt>
      <trkpt lat="47.16317" lon="7.39865">
        <ele>429.8</ele>
        <time>2022-10-01T09:24:15Z</time>
      </trkpt>
      <trkpt lat="47.16319" lon="7.39873">
        <ele>429.8</ele>
        <time>2022-10-01T09:24:16Z</time>
      </trkpt>
      <trkpt lat="47.16321" lon="7.39883">
        <ele>429.8</ele>
        <time>2022-10-01T09:24:17Z</time>
      </trkpt>
      <trkpt lat="47.16324" lon="7.39892">
        <ele>429.7</ele>
        <time>2022-10-01T09:24:18Z</time>
      </trkpt>
      <trkpt lat="47.16325" lon="7.399">
        <ele>429.7</ele>
        <time>2022-10-01T09:24:19Z</time>
      </trkpt>
      <trkpt lat="47.16327" lon="7.39908">
        <ele>429.7</ele>
        <time>2022-10-01T09:24:20Z</time>
      </trkpt>
      <trkpt lat="47.16329" lon="7.39917">
        <ele>429.7</ele>
        <time>2022-10-01T09:24:21Z</time>
      </trkpt>
      <trkpt lat="47.1633" lon="7.39926">
        <ele>429.7</ele>
        <time>2022-10-01T09:24:22Z</time>
      </trkpt>
      <trkpt lat="47.16332" lon="7.39936">
        <ele>429.7</ele>
        <time>2022-10-01T09:24:23Z</time>
      </trkpt>
      <trkpt lat="47.16334" lon="7.39944">
        <ele>429.7</ele>
        <time>2022-10-01T09:24:24Z</time>
      </trkpt>
      <trkpt lat="47.16335" lon="7.39953">
        <ele>429.7</ele>
        <time>2022-10-01T09:24:25Z</time>
      </trkpt>
      <trkpt lat="47.16337" lon="7.39962">
        <ele>429.7</ele>
        <time>2022-10-01T09:24:26Z</time>
      </trkpt>
      <trkpt lat="47.16338" lon="7.3997">
        <ele>429.7</ele>
        <time>2022-10-01T09:24:27Z</time>
      </trkpt>
      <trkpt lat="47.1634" lon="7.39979">
        <ele>429.7</ele>
        <time>2022-10-01T09:24:28Z</time>
      </trkpt>
      <trkpt lat="47.16341" lon="7.39988">
        <ele>429.7</ele>
        <time>2022-10-01T09:24:29Z</time>
      </trkpt>
      <trkpt lat="47.16342" lon="7.39997">
        <ele>429.7</ele>
        <time>2022-10-01T09:24:30Z</time>
      </trkpt>
      <trkpt lat="47.16343" lon="7.40006">
        <ele>429.7</ele>
        <time>2022-10-01T09:24:31Z</time>
      </trkpt>
      <trkpt lat="47.16345" lon="7.40015">
        <ele>429.7</ele>
        <time>2022-10-01T09:24:32Z</time>
      </trkpt>
      <trkpt lat="47.16346" lon="7.40024">
        <ele>429.7</ele>
        <time>2022-10-01T09:24:33Z</time>
      </trkpt>
      <trkpt lat="47.16347" lon="7.40032">
        <ele>429.6</ele>
        <time>2022-10-01T09:24:34Z</time>
      </trkpt>
      <trkpt lat="47.16349" lon="7.40041">
        <ele>429.7</ele>
        <time>2022-10-01T09:24:35Z</time>
      </trkpt>
      <trkpt lat="47.16349" lon="7.4005">
        <ele>429.7</ele>
        <time>2022-10-01T09:24:36Z</time>
      </trkpt>
      <trkpt lat="47.16351" lon="7.40058">
        <ele>429.7</ele>
        <time>2022-10-01T09:24:37Z</time>
      </trkpt>
      <trkpt lat="47.16351" lon="7.40067">
        <ele>429.7</ele>
        <time>2022-10-01T09:24:38Z</time>
      </trkpt>
      <trkpt lat="47.16352" lon="7.40075">
        <ele>429.7</ele>
        <time>2022-10-01T09:24:39Z</time>
      </trkpt>
      <trkpt lat="47.16353" lon="7.40084">
        <ele>429.7</ele>
        <time>2022-10-01T09:24:40Z</time>
      </trkpt>
      <trkpt lat="47.16354" lon="7.40093">
        <ele>429.7</ele>
        <time>2022-10-01T09:24:41Z</time>
      </trkpt>
      <trkpt lat="47.16355" lon="7.40101">
        <ele>429.6</ele>
        <time>2022-10-01T09:24:42Z</time>
      </trkpt>
      <trkpt lat="47.16355" lon="7.4011">
        <ele>429.6</ele>
        <time>2022-10-01T09:24:43Z</time>
      </trkpt>
      <trkpt lat="47.16355" lon="7.40118">
        <ele>429.6</ele>
        <time>2022-10-01T09:24:44Z</time>
      </trkpt>
      <trkpt lat="47.16355" lon="7.40127">
        <ele>429.6</ele>
        <time>2022-10-01T09:24:45Z</time>
      </trkpt>
      <trkpt lat="47.16356" lon="7.40135">
        <ele>429.6</ele>
        <time>2022-10-01T09:24:46Z</time>
      </trkpt>
      <trkpt lat="47.16356" lon="7.40144">
        <ele>429.6</ele>
        <time>2022-10-01T09:24:47Z</time>
      </trkpt>
      <trkpt lat="47.16355" lon="7.40153">
        <ele>429.6</ele>
        <time>2022-10-01T09:24:48Z</time>
      </trkpt>
      <trkpt lat="47.16355" lon="7.40161">
        <ele>429.6</ele>
        <time>2022-10-01T09:24:49Z</time>
      </trkpt>
      <trkpt lat="47.16355" lon="7.40169">
        <ele>429.6</ele>
        <time>2022-10-01T09:24:50Z</time>
      </trkpt>
      <trkpt lat="47.16355" lon="7.40178">
        <ele>429.5</ele>
        <time>2022-10-01T09:24:51Z</time>
      </trkpt>
      <trkpt lat="47.16356" lon="7.40184">
        <ele>429.5</ele>
        <time>2022-10-01T09:24:52Z</time>
      </trkpt>
      <trkpt lat="47.16355" lon="7.40194">
        <ele>429.5</ele>
        <time>2022-10-01T09:24:53Z</time>
      </trkpt>
      <trkpt lat="47.16355" lon="7.40202">
        <ele>429.5</ele>
        <time>2022-10-01T09:24:54Z</time>
      </trkpt>
      <trkpt lat="47.16355" lon="7.4021">
        <ele>429.5</ele>
        <time>2022-10-01T09:24:55Z</time>
      </trkpt>
      <trkpt lat="47.16354" lon="7.40219">
        <ele>429.5</ele>
        <time>2022-10-01T09:24:56Z</time>
      </trkpt>
      <trkpt lat="47.16353" lon="7.40228">
        <ele>429.5</ele>
        <time>2022-10-01T09:24:57Z</time>
      </trkpt>
      <trkpt lat="47.16353" lon="7.40235">
        <ele>429.5</ele>
        <time>2022-10-01T09:24:58Z</time>
      </trkpt>
      <trkpt lat="47.16352" lon="7.40243">
        <ele>429.4</ele>
        <time>2022-10-01T09:24:59Z</time>
      </trkpt>
      <trkpt lat="47.16351" lon="7.40251">
        <ele>429.4</ele>
        <time>2022-10-01T09:25:00Z</time>
      </trkpt>
      <trkpt lat="47.1635" lon="7.40259">
        <ele>429.4</ele>
        <time>2022-10-01T09:25:01Z</time>
      </trkpt>
      <trkpt lat="47.16349" lon="7.40267">
        <ele>429.4</ele>
        <time>2022-10-01T09:25:03Z</time>
      </trkpt>
      <trkpt lat="47.16347" lon="7.40284">
        <ele>429.4</ele>
        <time>2022-10-01T09:25:04Z</time>
      </trkpt>
      <trkpt lat="47.16346" lon="7.40292">
        <ele>429.4</ele>
        <time>2022-10-01T09:25:05Z</time>
      </trkpt>
      <trkpt lat="47.16345" lon="7.40299">
        <ele>429.4</ele>
        <time>2022-10-01T09:25:07Z</time>
      </trkpt>
      <trkpt lat="47.16344" lon="7.40308">
        <ele>429.4</ele>
        <time>2022-10-01T09:25:08Z</time>
      </trkpt>
      <trkpt lat="47.16343" lon="7.40315">
        <ele>429.4</ele>
        <time>2022-10-01T09:25:09Z</time>
      </trkpt>
      <trkpt lat="47.16342" lon="7.40324">
        <ele>429.4</ele>
        <time>2022-10-01T09:25:10Z</time>
      </trkpt>
      <trkpt lat="47.16341" lon="7.40333">
        <ele>429.4</ele>
        <time>2022-10-01T09:25:11Z</time>
      </trkpt>
      <trkpt lat="47.1634" lon="7.4034">
        <ele>429.5</ele>
        <time>2022-10-01T09:25:12Z</time>
      </trkpt>
      <trkpt lat="47.16339" lon="7.40348">
        <ele>429.5</ele>
        <time>2022-10-01T09:25:13Z</time>
      </trkpt>
      <trkpt lat="47.16337" lon="7.40362">
        <ele>429.5</ele>
        <time>2022-10-01T09:25:14Z</time>
      </trkpt>
      <trkpt lat="47.16336" lon="7.40371">
        <ele>429.5</ele>
        <time>2022-10-01T09:25:15Z</time>
      </trkpt>
      <trkpt lat="47.16335" lon="7.40379">
        <ele>429.5</ele>
        <time>2022-10-01T09:25:17Z</time>
      </trkpt>
      <trkpt lat="47.16335" lon="7.40387">
        <ele>429.5</ele>
        <time>2022-10-01T09:25:18Z</time>
      </trkpt>
      <trkpt lat="47.16334" lon="7.40396">
        <ele>429.5</ele>
        <time>2022-10-01T09:25:19Z</time>
      </trkpt>
      <trkpt lat="47.16333" lon="7.40405">
        <ele>429.5</ele>
        <time>2022-10-01T09:25:20Z</time>
      </trkpt>
      <trkpt lat="47.16332" lon="7.40414">
        <ele>429.5</ele>
        <time>2022-10-01T09:25:21Z</time>
      </trkpt>
      <trkpt lat="47.1633" lon="7.40422">
        <ele>429.5</ele>
        <time>2022-10-01T09:25:22Z</time>
      </trkpt>
      <trkpt lat="47.16329" lon="7.40432">
        <ele>429.5</ele>
        <time>2022-10-01T09:25:23Z</time>
      </trkpt>
      <trkpt lat="47.16329" lon="7.4044">
        <ele>429.5</ele>
        <time>2022-10-01T09:25:24Z</time>
      </trkpt>
      <trkpt lat="47.16328" lon="7.40448">
        <ele>429.6</ele>
        <time>2022-10-01T09:25:25Z</time>
      </trkpt>
      <trkpt lat="47.16327" lon="7.40457">
        <ele>429.6</ele>
        <time>2022-10-01T09:25:26Z</time>
      </trkpt>
      <trkpt lat="47.16326" lon="7.40465">
        <ele>429.6</ele>
        <time>2022-10-01T09:25:27Z</time>
      </trkpt>
      <trkpt lat="47.16326" lon="7.40474">
        <ele>429.6</ele>
        <time>2022-10-01T09:25:28Z</time>
      </trkpt>
      <trkpt lat="47.16324" lon="7.4049">
        <ele>429.6</ele>
        <time>2022-10-01T09:25:29Z</time>
      </trkpt>
      <trkpt lat="47.16323" lon="7.40499">
        <ele>429.6</ele>
        <time>2022-10-01T09:25:30Z</time>
      </trkpt>
      <trkpt lat="47.16323" lon="7.40508">
        <ele>429.6</ele>
        <time>2022-10-01T09:25:31Z</time>
      </trkpt>
      <trkpt lat="47.16322" lon="7.40516">
        <ele>429.6</ele>
        <time>2022-10-01T09:25:32Z</time>
      </trkpt>
      <trkpt lat="47.16321" lon="7.40525">
        <ele>429.6</ele>
        <time>2022-10-01T09:25:33Z</time>
      </trkpt>
      <trkpt lat="47.1632" lon="7.40533">
        <ele>429.6</ele>
        <time>2022-10-01T09:25:34Z</time>
      </trkpt>
      <trkpt lat="47.16318" lon="7.4054">
        <ele>429.6</ele>
        <time>2022-10-01T09:25:35Z</time>
      </trkpt>
      <trkpt lat="47.16316" lon="7.40549">
        <ele>429.6</ele>
        <time>2022-10-01T09:25:36Z</time>
      </trkpt>
      <trkpt lat="47.16315" lon="7.40558">
        <ele>429.6</ele>
        <time>2022-10-01T09:25:37Z</time>
      </trkpt>
      <trkpt lat="47.16314" lon="7.40565">
        <ele>429.6</ele>
        <time>2022-10-01T09:25:38Z</time>
      </trkpt>
      <trkpt lat="47.16312" lon="7.40573">
        <ele>429.6</ele>
        <time>2022-10-01T09:25:39Z</time>
      </trkpt>
      <trkpt lat="47.16311" lon="7.40581">
        <ele>429.7</ele>
        <time>2022-10-01T09:25:40Z</time>
      </trkpt>
      <trkpt lat="47.1631" lon="7.4059">
        <ele>429.7</ele>
        <time>2022-10-01T09:25:41Z</time>
      </trkpt>
      <trkpt lat="47.16309" lon="7.40598">
        <ele>429.7</ele>
        <time>2022-10-01T09:25:42Z</time>
      </trkpt>
      <trkpt lat="47.16309" lon="7.40606">
        <ele>429.7</ele>
        <time>2022-10-01T09:25:43Z</time>
      </trkpt>
      <trkpt lat="47.1631" lon="7.40613">
        <ele>429.7</ele>
        <time>2022-10-01T09:25:44Z</time>
      </trkpt>
      <trkpt lat="47.16311" lon="7.4062">
        <ele>429.7</ele>
        <time>2022-10-01T09:25:45Z</time>
      </trkpt>
      <trkpt lat="47.16312" lon="7.40627">
        <ele>429.7</ele>
        <time>2022-10-01T09:25:46Z</time>
      </trkpt>
      <trkpt lat="47.16314" lon="7.40633">
        <ele>429.7</ele>
        <time>2022-10-01T09:25:47Z</time>
      </trkpt>
      <trkpt lat="47.16317" lon="7.40641">
        <ele>429.7</ele>
        <time>2022-10-01T09:25:48Z</time>
      </trkpt>
      <trkpt lat="47.1632" lon="7.40647">
        <ele>429.7</ele>
        <time>2022-10-01T09:25:49Z</time>
      </trkpt>
      <trkpt lat="47.16322" lon="7.40654">
        <ele>429.7</ele>
        <time>2022-10-01T09:25:50Z</time>
      </trkpt>
      <trkpt lat="47.16325" lon="7.4066">
        <ele>429.7</ele>
        <time>2022-10-01T09:25:51Z</time>
      </trkpt>
      <trkpt lat="47.16328" lon="7.40667">
        <ele>429.7</ele>
        <time>2022-10-01T09:25:52Z</time>
      </trkpt>
      <trkpt lat="47.16331" lon="7.40674">
        <ele>429.7</ele>
        <time>2022-10-01T09:25:53Z</time>
      </trkpt>
      <trkpt lat="47.16333" lon="7.40681">
        <ele>429.7</ele>
        <time>2022-10-01T09:25:54Z</time>
      </trkpt>
      <trkpt lat="47.16337" lon="7.40688">
        <ele>429.7</ele>
        <time>2022-10-01T09:25:55Z</time>
      </trkpt>
      <trkpt lat="47.16339" lon="7.40694">
        <ele>429.7</ele>
        <time>2022-10-01T09:25:56Z</time>
      </trkpt>
      <trkpt lat="47.16342" lon="7.40702">
        <ele>429.7</ele>
        <time>2022-10-01T09:25:57Z</time>
      </trkpt>
      <trkpt lat="47.16346" lon="7.40708">
        <ele>429.7</ele>
        <time>2022-10-01T09:25:58Z</time>
      </trkpt>
      <trkpt lat="47.16349" lon="7.40714">
        <ele>429.7</ele>
        <time>2022-10-01T09:25:59Z</time>
      </trkpt>
      <trkpt lat="47.16353" lon="7.40721">
        <ele>429.7</ele>
        <time>2022-10-01T09:26:00Z</time>
      </trkpt>
      <trkpt lat="47.16357" lon="7.40728">
        <ele>429.7</ele>
        <time>2022-10-01T09:26:01Z</time>
      </trkpt>
      <trkpt lat="47.1636" lon="7.40735">
        <ele>429.7</ele>
        <time>2022-10-01T09:26:02Z</time>
      </trkpt>
      <trkpt lat="47.16364" lon="7.40741">
        <ele>429.7</ele>
        <time>2022-10-01T09:26:03Z</time>
      </trkpt>
      <trkpt lat="47.16369" lon="7.40747">
        <ele>429.7</ele>
        <time>2022-10-01T09:26:04Z</time>
      </trkpt>
      <trkpt lat="47.16373" lon="7.40753">
        <ele>429.7</ele>
        <time>2022-10-01T09:26:05Z</time>
      </trkpt>
      <trkpt lat="47.16377" lon="7.40759">
        <ele>429.7</ele>
        <time>2022-10-01T09:26:06Z</time>
      </trkpt>
      <trkpt lat="47.16381" lon="7.40766">
        <ele>429.7</ele>
        <time>2022-10-01T09:26:07Z</time>
      </trkpt>
      <trkpt lat="47.16384" lon="7.40772">
        <ele>429.6</ele>
        <time>2022-10-01T09:26:08Z</time>
      </trkpt>
      <trkpt lat="47.16389" lon="7.4078">
        <ele>429.6</ele>
        <time>2022-10-01T09:26:09Z</time>
      </trkpt>
      <trkpt lat="47.16393" lon="7.40788">
        <ele>429.6</ele>
        <time>2022-10-01T09:26:10Z</time>
      </trkpt>
      <trkpt lat="47.16396" lon="7.40794">
        <ele>429.6</ele>
        <time>2022-10-01T09:26:11Z</time>
      </trkpt>
      <trkpt lat="47.164" lon="7.40799">
        <ele>429.6</ele>
        <time>2022-10-01T09:26:12Z</time>
      </trkpt>
      <trkpt lat="47.16403" lon="7.40804">
        <ele>429.6</ele>
        <time>2022-10-01T09:26:13Z</time>
      </trkpt>
      <trkpt lat="47.16408" lon="7.4081">
        <ele>429.6</ele>
        <time>2022-10-01T09:26:14Z</time>
      </trkpt>
      <trkpt lat="47.16413" lon="7.40814">
        <ele>429.6</ele>
        <time>2022-10-01T09:26:15Z</time>
      </trkpt>
      <trkpt lat="47.16419" lon="7.40818">
        <ele>429.6</ele>
        <time>2022-10-01T09:26:16Z</time>
      </trkpt>
      <trkpt lat="47.16424" lon="7.4082">
        <ele>429.6</ele>
        <time>2022-10-01T09:26:17Z</time>
      </trkpt>
      <trkpt lat="47.16429" lon="7.4082">
        <ele>429.6</ele>
        <time>2022-10-01T09:26:18Z</time>
      </trkpt>
      <trkpt lat="47.16433" lon="7.4082">
        <ele>429.5</ele>
        <time>2022-10-01T09:26:19Z</time>
      </trkpt>
      <trkpt lat="47.16439" lon="7.4082">
        <ele>429.5</ele>
        <time>2022-10-01T09:26:20Z</time>
      </trkpt>
      <trkpt lat="47.16444" lon="7.4082">
        <ele>429.5</ele>
        <time>2022-10-01T09:26:21Z</time>
      </trkpt>
      <trkpt lat="47.1645" lon="7.4082">
        <ele>429.5</ele>
        <time>2022-10-01T09:26:22Z</time>
      </trkpt>
      <trkpt lat="47.16456" lon="7.40816">
        <ele>429.5</ele>
        <time>2022-10-01T09:26:23Z</time>
      </trkpt>
      <trkpt lat="47.16461" lon="7.40815">
        <ele>429.4</ele>
        <time>2022-10-01T09:26:24Z</time>
      </trkpt>
      <trkpt lat="47.16466" lon="7.40813">
        <ele>429.4</ele>
        <time>2022-10-01T09:26:25Z</time>
      </trkpt>
      <trkpt lat="47.16473" lon="7.40812">
        <ele>429.4</ele>
        <time>2022-10-01T09:26:26Z</time>
      </trkpt>
      <trkpt lat="47.16478" lon="7.40811">
        <ele>429.4</ele>
        <time>2022-10-01T09:26:27Z</time>
      </trkpt>
      <trkpt lat="47.16484" lon="7.40809">
        <ele>429.4</ele>
        <time>2022-10-01T09:26:28Z</time>
      </trkpt>
      <trkpt lat="47.16489" lon="7.40808">
        <ele>429.4</ele>
        <time>2022-10-01T09:26:29Z</time>
      </trkpt>
      <trkpt lat="47.16495" lon="7.40807">
        <ele>429.3</ele>
        <time>2022-10-01T09:26:30Z</time>
      </trkpt>
      <trkpt lat="47.165" lon="7.40807">
        <ele>429.3</ele>
        <time>2022-10-01T09:26:31Z</time>
      </trkpt>
      <trkpt lat="47.16506" lon="7.40807">
        <ele>429.3</ele>
        <time>2022-10-01T09:26:32Z</time>
      </trkpt>
      <trkpt lat="47.16512" lon="7.40807">
        <ele>429.3</ele>
        <time>2022-10-01T09:26:33Z</time>
      </trkpt>
      <trkpt lat="47.16518" lon="7.40808">
        <ele>429.3</ele>
        <time>2022-10-01T09:26:34Z</time>
      </trkpt>
      <trkpt lat="47.16524" lon="7.40809">
        <ele>429.3</ele>
        <time>2022-10-01T09:26:35Z</time>
      </trkpt>
      <trkpt lat="47.1653" lon="7.40809">
        <ele>429.3</ele>
        <time>2022-10-01T09:26:36Z</time>
      </trkpt>
      <trkpt lat="47.16536" lon="7.4081">
        <ele>429.3</ele>
        <time>2022-10-01T09:26:37Z</time>
      </trkpt>
      <trkpt lat="47.16541" lon="7.4081">
        <ele>429.3</ele>
        <time>2022-10-01T09:26:38Z</time>
      </trkpt>
      <trkpt lat="47.16547" lon="7.40811">
        <ele>429.3</ele>
        <time>2022-10-01T09:26:39Z</time>
      </trkpt>
      <trkpt lat="47.16552" lon="7.40812">
        <ele>429.4</ele>
        <time>2022-10-01T09:26:40Z</time>
      </trkpt>
      <trkpt lat="47.16558" lon="7.40811">
        <ele>429.4</ele>
        <time>2022-10-01T09:26:41Z</time>
      </trkpt>
      <trkpt lat="47.16564" lon="7.40811">
        <ele>429.4</ele>
        <time>2022-10-01T09:26:42Z</time>
      </trkpt>
      <trkpt lat="47.1657" lon="7.40811">
        <ele>429.4</ele>
        <time>2022-10-01T09:26:43Z</time>
      </trkpt>
      <trkpt lat="47.16576" lon="7.4081">
        <ele>429.4</ele>
        <time>2022-10-01T09:26:44Z</time>
      </trkpt>
      <trkpt lat="47.16581" lon="7.40809">
        <ele>429.4</ele>
        <time>2022-10-01T09:26:45Z</time>
      </trkpt>
      <trkpt lat="47.16586" lon="7.40808">
        <ele>429.4</ele>
        <time>2022-10-01T09:26:46Z</time>
      </trkpt>
      <trkpt lat="47.1659" lon="7.40805">
        <ele>429.4</ele>
        <time>2022-10-01T09:26:47Z</time>
      </trkpt>
      <trkpt lat="47.16595" lon="7.40804">
        <ele>429.4</ele>
        <time>2022-10-01T09:26:48Z</time>
      </trkpt>
      <trkpt lat="47.166" lon="7.40801">
        <ele>429.5</ele>
        <time>2022-10-01T09:26:49Z</time>
      </trkpt>
      <trkpt lat="47.16603" lon="7.40803">
        <ele>429.4</ele>
        <time>2022-10-01T09:26:50Z</time>
      </trkpt>
      <trkpt lat="47.16607" lon="7.40803">
        <ele>429.4</ele>
        <time>2022-10-01T09:26:51Z</time>
      </trkpt>
      <trkpt lat="47.1661" lon="7.40803">
        <ele>429.4</ele>
        <time>2022-10-01T09:26:52Z</time>
      </trkpt>
      <trkpt lat="47.16612" lon="7.40804">
        <ele>429.4</ele>
        <time>2022-10-01T09:26:53Z</time>
      </trkpt>
      <trkpt lat="47.16611" lon="7.40803">
        <ele>429.4</ele>
        <time>2022-10-01T09:26:54Z</time>
      </trkpt>
      <trkpt lat="47.16611" lon="7.40805">
        <ele>429.4</ele>
        <time>2022-10-01T09:26:55Z</time>
      </trkpt>
      <trkpt lat="47.16612" lon="7.40806">
        <ele>429.4</ele>
        <time>2022-10-01T09:26:56Z</time>
      </trkpt>
      <trkpt lat="47.16615" lon="7.40808">
        <ele>429.4</ele>
        <time>2022-10-01T09:26:57Z</time>
      </trkpt>
      <trkpt lat="47.16616" lon="7.40809">
        <ele>429.4</ele>
        <time>2022-10-01T09:26:58Z</time>
      </trkpt>
      <trkpt lat="47.16619" lon="7.40812">
        <ele>429.4</ele>
        <time>2022-10-01T09:26:59Z</time>
      </trkpt>
      <trkpt lat="47.1662" lon="7.40814">
        <ele>429.4</ele>
        <time>2022-10-01T09:27:00Z</time>
      </trkpt>
      <trkpt lat="47.16624" lon="7.40817">
        <ele>429.4</ele>
        <time>2022-10-01T09:27:01Z</time>
      </trkpt>
      <trkpt lat="47.16625" lon="7.40819">
        <ele>429.4</ele>
        <time>2022-10-01T09:27:02Z</time>
      </trkpt>
      <trkpt lat="47.16628" lon="7.40821">
        <ele>429.4</ele>
        <time>2022-10-01T09:27:03Z</time>
      </trkpt>
      <trkpt lat="47.16631" lon="7.40825">
        <ele>429.4</ele>
        <time>2022-10-01T09:27:04Z</time>
      </trkpt>
      <trkpt lat="47.16633" lon="7.40826">
        <ele>429.4</ele>
        <time>2022-10-01T09:27:05Z</time>
      </trkpt>
      <trkpt lat="47.16636" lon="7.40829">
        <ele>429.4</ele>
        <time>2022-10-01T09:27:06Z</time>
      </trkpt>
      <trkpt lat="47.16638" lon="7.40831">
        <ele>429.4</ele>
        <time>2022-10-01T09:27:07Z</time>
      </trkpt>
      <trkpt lat="47.16641" lon="7.40834">
        <ele>429.4</ele>
        <time>2022-10-01T09:27:09Z</time>
      </trkpt>
      <trkpt lat="47.16644" lon="7.40838">
        <ele>429.4</ele>
        <time>2022-10-01T09:27:10Z</time>
      </trkpt>
      <trkpt lat="47.16648" lon="7.40841">
        <ele>429.4</ele>
        <time>2022-10-01T09:27:11Z</time>
      </trkpt>
      <trkpt lat="47.16651" lon="7.40844">
        <ele>429.4</ele>
        <time>2022-10-01T09:27:12Z</time>
      </trkpt>
      <trkpt lat="47.16654" lon="7.40848">
        <ele>429.4</ele>
        <time>2022-10-01T09:27:13Z</time>
      </trkpt>
      <trkpt lat="47.16658" lon="7.40851">
        <ele>429.4</ele>
        <time>2022-10-01T09:27:14Z</time>
      </trkpt>
      <trkpt lat="47.16661" lon="7.40855">
        <ele>429.4</ele>
        <time>2022-10-01T09:27:15Z</time>
      </trkpt>
      <trkpt lat="47.16665" lon="7.40858">
        <ele>429.4</ele>
        <time>2022-10-01T09:27:16Z</time>
      </trkpt>
      <trkpt lat="47.16672" lon="7.40865">
        <ele>429.4</ele>
        <time>2022-10-01T09:27:17Z</time>
      </trkpt>
      <trkpt lat="47.1668" lon="7.40873">
        <ele>429.4</ele>
        <time>2022-10-01T09:27:19Z</time>
      </trkpt>
      <trkpt lat="47.16684" lon="7.40878">
        <ele>429.4</ele>
        <time>2022-10-01T09:27:20Z</time>
      </trkpt>
      <trkpt lat="47.16689" lon="7.40881">
        <ele>429.4</ele>
        <time>2022-10-01T09:27:21Z</time>
      </trkpt>
      <trkpt lat="47.16693" lon="7.40884">
        <ele>429.4</ele>
        <time>2022-10-01T09:27:22Z</time>
      </trkpt>
      <trkpt lat="47.16696" lon="7.40888">
        <ele>429.4</ele>
        <time>2022-10-01T09:27:23Z</time>
      </trkpt>
      <trkpt lat="47.16701" lon="7.40893">
        <ele>429.5</ele>
        <time>2022-10-01T09:27:24Z</time>
      </trkpt>
      <trkpt lat="47.16705" lon="7.40898">
        <ele>429.5</ele>
        <time>2022-10-01T09:27:25Z</time>
      </trkpt>
      <trkpt lat="47.16708" lon="7.40904">
        <ele>429.5</ele>
        <time>2022-10-01T09:27:26Z</time>
      </trkpt>
      <trkpt lat="47.16711" lon="7.40909">
        <ele>429.5</ele>
        <time>2022-10-01T09:27:27Z</time>
      </trkpt>
      <trkpt lat="47.16713" lon="7.40914">
        <ele>429.5</ele>
        <time>2022-10-01T09:27:28Z</time>
      </trkpt>
      <trkpt lat="47.16717" lon="7.40921">
        <ele>429.5</ele>
        <time>2022-10-01T09:27:29Z</time>
      </trkpt>
      <trkpt lat="47.16719" lon="7.40926">
        <ele>429.5</ele>
        <time>2022-10-01T09:27:30Z</time>
      </trkpt>
      <trkpt lat="47.16722" lon="7.40933">
        <ele>429.6</ele>
        <time>2022-10-01T09:27:31Z</time>
      </trkpt>
      <trkpt lat="47.16725" lon="7.4094">
        <ele>429.6</ele>
        <time>2022-10-01T09:27:32Z</time>
      </trkpt>
      <trkpt lat="47.16728" lon="7.40946">
        <ele>429.6</ele>
        <time>2022-10-01T09:27:33Z</time>
      </trkpt>
      <trkpt lat="47.16732" lon="7.40952">
        <ele>429.7</ele>
        <time>2022-10-01T09:27:34Z</time>
      </trkpt>
      <trkpt lat="47.16735" lon="7.40959">
        <ele>429.7</ele>
        <time>2022-10-01T09:27:35Z</time>
      </trkpt>
      <trkpt lat="47.16738" lon="7.40964">
        <ele>429.7</ele>
        <time>2022-10-01T09:27:36Z</time>
      </trkpt>
      <trkpt lat="47.16741" lon="7.4097">
        <ele>429.7</ele>
        <time>2022-10-01T09:27:37Z</time>
      </trkpt>
      <trkpt lat="47.16743" lon="7.40977">
        <ele>429.7</ele>
        <time>2022-10-01T09:27:38Z</time>
      </trkpt>
      <trkpt lat="47.16746" lon="7.40983">
        <ele>429.7</ele>
        <time>2022-10-01T09:27:39Z</time>
      </trkpt>
      <trkpt lat="47.16749" lon="7.4099">
        <ele>429.7</ele>
        <time>2022-10-01T09:27:40Z</time>
      </trkpt>
      <trkpt lat="47.16753" lon="7.40997">
        <ele>429.7</ele>
        <time>2022-10-01T09:27:41Z</time>
      </trkpt>
      <trkpt lat="47.16755" lon="7.41002">
        <ele>429.7</ele>
        <time>2022-10-01T09:27:42Z</time>
      </trkpt>
      <trkpt lat="47.16758" lon="7.41008">
        <ele>429.7</ele>
        <time>2022-10-01T09:27:43Z</time>
      </trkpt>
      <trkpt lat="47.16761" lon="7.41015">
        <ele>429.7</ele>
        <time>2022-10-01T09:27:44Z</time>
      </trkpt>
      <trkpt lat="47.16765" lon="7.41021">
        <ele>429.7</ele>
        <time>2022-10-01T09:27:45Z</time>
      </trkpt>
      <trkpt lat="47.16768" lon="7.41028">
        <ele>429.7</ele>
        <time>2022-10-01T09:27:46Z</time>
      </trkpt>
      <trkpt lat="47.16771" lon="7.41035">
        <ele>429.7</ele>
        <time>2022-10-01T09:27:47Z</time>
      </trkpt>
      <trkpt lat="47.16774" lon="7.41042">
        <ele>429.7</ele>
        <time>2022-10-01T09:27:48Z</time>
      </trkpt>
      <trkpt lat="47.16778" lon="7.41048">
        <ele>429.7</ele>
        <time>2022-10-01T09:27:49Z</time>
      </trkpt>
      <trkpt lat="47.16781" lon="7.41055">
        <ele>429.7</ele>
        <time>2022-10-01T09:27:50Z</time>
      </trkpt>
      <trkpt lat="47.16785" lon="7.41062">
        <ele>429.6</ele>
        <time>2022-10-01T09:27:51Z</time>
      </trkpt>
      <trkpt lat="47.16788" lon="7.41068">
        <ele>429.6</ele>
        <time>2022-10-01T09:27:52Z</time>
      </trkpt>
      <trkpt lat="47.16791" lon="7.41075">
        <ele>429.6</ele>
        <time>2022-10-01T09:27:53Z</time>
      </trkpt>
      <trkpt lat="47.16795" lon="7.41082">
        <ele>429.6</ele>
        <time>2022-10-01T09:27:54Z</time>
      </trkpt>
      <trkpt lat="47.16798" lon="7.41089">
        <ele>429.6</ele>
        <time>2022-10-01T09:27:55Z</time>
      </trkpt>
      <trkpt lat="47.16801" lon="7.41097">
        <ele>429.6</ele>
        <time>2022-10-01T09:27:56Z</time>
      </trkpt>
      <trkpt lat="47.16806" lon="7.41105">
        <ele>429.5</ele>
        <time>2022-10-01T09:27:57Z</time>
      </trkpt>
      <trkpt lat="47.16809" lon="7.41113">
        <ele>429.5</ele>
        <time>2022-10-01T09:27:58Z</time>
      </trkpt>
      <trkpt lat="47.16813" lon="7.41121">
        <ele>429.5</ele>
        <time>2022-10-01T09:27:59Z</time>
      </trkpt>
      <trkpt lat="47.16816" lon="7.41129">
        <ele>429.5</ele>
        <time>2022-10-01T09:28:00Z</time>
      </trkpt>
      <trkpt lat="47.1682" lon="7.41137">
        <ele>429.5</ele>
        <time>2022-10-01T09:28:01Z</time>
      </trkpt>
      <trkpt lat="47.16823" lon="7.41145">
        <ele>429.4</ele>
        <time>2022-10-01T09:28:02Z</time>
      </trkpt>
      <trkpt lat="47.16827" lon="7.41154">
        <ele>429.4</ele>
        <time>2022-10-01T09:28:03Z</time>
      </trkpt>
      <trkpt lat="47.16829" lon="7.41162">
        <ele>429.4</ele>
        <time>2022-10-01T09:28:04Z</time>
      </trkpt>
      <trkpt lat="47.16833" lon="7.4117">
        <ele>429.4</ele>
        <time>2022-10-01T09:28:05Z</time>
      </trkpt>
      <trkpt lat="47.16837" lon="7.41179">
        <ele>429.4</ele>
        <time>2022-10-01T09:28:06Z</time>
      </trkpt>
      <trkpt lat="47.1684" lon="7.41186">
        <ele>429.4</ele>
        <time>2022-10-01T09:28:07Z</time>
      </trkpt>
      <trkpt lat="47.16843" lon="7.41195">
        <ele>429.4</ele>
        <time>2022-10-01T09:28:08Z</time>
      </trkpt>
      <trkpt lat="47.16847" lon="7.41204">
        <ele>429.4</ele>
        <time>2022-10-01T09:28:09Z</time>
      </trkpt>
      <trkpt lat="47.1685" lon="7.41212">
        <ele>429.4</ele>
        <time>2022-10-01T09:28:10Z</time>
      </trkpt>
      <trkpt lat="47.16854" lon="7.41221">
        <ele>429.5</ele>
        <time>2022-10-01T09:28:11Z</time>
      </trkpt>
      <trkpt lat="47.16857" lon="7.41229">
        <ele>429.5</ele>
        <time>2022-10-01T09:28:12Z</time>
      </trkpt>
      <trkpt lat="47.16861" lon="7.41238">
        <ele>429.5</ele>
        <time>2022-10-01T09:28:13Z</time>
      </trkpt>
      <trkpt lat="47.16864" lon="7.41246">
        <ele>429.5</ele>
        <time>2022-10-01T09:28:14Z</time>
      </trkpt>
      <trkpt lat="47.16868" lon="7.41254">
        <ele>429.5</ele>
        <time>2022-10-01T09:28:15Z</time>
      </trkpt>
      <trkpt lat="47.16871" lon="7.41262">
        <ele>429.5</ele>
        <time>2022-10-01T09:28:16Z</time>
      </trkpt>
      <trkpt lat="47.16875" lon="7.4127">
        <ele>429.5</ele>
        <time>2022-10-01T09:28:17Z</time>
      </trkpt>
      <trkpt lat="47.16878" lon="7.41279">
        <ele>429.5</ele>
        <time>2022-10-01T09:28:18Z</time>
      </trkpt>
      <trkpt lat="47.16881" lon="7.41288">
        <ele>429.5</ele>
        <time>2022-10-01T09:28:19Z</time>
      </trkpt>
      <trkpt lat="47.16885" lon="7.41296">
        <ele>429.5</ele>
        <time>2022-10-01T09:28:20Z</time>
      </trkpt>
      <trkpt lat="47.16888" lon="7.41305">
        <ele>429.4</ele>
        <time>2022-10-01T09:28:21Z</time>
      </trkpt>
      <trkpt lat="47.16891" lon="7.41313">
        <ele>429.4</ele>
        <time>2022-10-01T09:28:22Z</time>
      </trkpt>
      <trkpt lat="47.16895" lon="7.41322">
        <ele>429.4</ele>
        <time>2022-10-01T09:28:23Z</time>
      </trkpt>
      <trkpt lat="47.16898" lon="7.4133">
        <ele>429.4</ele>
        <time>2022-10-01T09:28:24Z</time>
      </trkpt>
      <trkpt lat="47.16902" lon="7.41339">
        <ele>429.4</ele>
        <time>2022-10-01T09:28:25Z</time>
      </trkpt>
      <trkpt lat="47.16905" lon="7.41348">
        <ele>429.3</ele>
        <time>2022-10-01T09:28:26Z</time>
      </trkpt>
      <trkpt lat="47.16909" lon="7.41356">
        <ele>429.3</ele>
        <time>2022-10-01T09:28:27Z</time>
      </trkpt>
      <trkpt lat="47.16912" lon="7.41365">
        <ele>429.3</ele>
        <time>2022-10-01T09:28:28Z</time>
      </trkpt>
      <trkpt lat="47.16916" lon="7.41374">
        <ele>429.3</ele>
        <time>2022-10-01T09:28:29Z</time>
      </trkpt>
      <trkpt lat="47.16919" lon="7.41383">
        <ele>429.3</ele>
        <time>2022-10-01T09:28:30Z</time>
      </trkpt>
      <trkpt lat="47.16923" lon="7.41392">
        <ele>429.3</ele>
        <time>2022-10-01T09:28:31Z</time>
      </trkpt>
      <trkpt lat="47.16927" lon="7.41401">
        <ele>429.3</ele>
        <time>2022-10-01T09:28:32Z</time>
      </trkpt>
      <trkpt lat="47.1693" lon="7.4141">
        <ele>429.3</ele>
        <time>2022-10-01T09:28:33Z</time>
      </trkpt>
      <trkpt lat="47.16934" lon="7.41418">
        <ele>429.3</ele>
        <time>2022-10-01T09:28:34Z</time>
      </trkpt>
      <trkpt lat="47.16937" lon="7.41427">
        <ele>429.3</ele>
        <time>2022-10-01T09:28:35Z</time>
      </trkpt>
      <trkpt lat="47.16941" lon="7.41436">
        <ele>429.3</ele>
        <time>2022-10-01T09:28:36Z</time>
      </trkpt>
      <trkpt lat="47.16944" lon="7.41445">
        <ele>429.3</ele>
        <time>2022-10-01T09:28:37Z</time>
      </trkpt>
      <trkpt lat="47.16948" lon="7.41453">
        <ele>429.3</ele>
        <time>2022-10-01T09:28:38Z</time>
      </trkpt>
      <trkpt lat="47.16951" lon="7.41462">
        <ele>429.3</ele>
        <time>2022-10-01T09:28:39Z</time>
      </trkpt>
      <trkpt lat="47.16955" lon="7.41471">
        <ele>429.3</ele>
        <time>2022-10-01T09:28:40Z</time>
      </trkpt>
      <trkpt lat="47.16958" lon="7.4148">
        <ele>429.3</ele>
        <time>2022-10-01T09:28:41Z</time>
      </trkpt>
      <trkpt lat="47.16962" lon="7.41488">
        <ele>429.3</ele>
        <time>2022-10-01T09:28:42Z</time>
      </trkpt>
      <trkpt lat="47.16965" lon="7.41497">
        <ele>429.3</ele>
        <time>2022-10-01T09:28:43Z</time>
      </trkpt>
      <trkpt lat="47.16969" lon="7.41506">
        <ele>429.3</ele>
        <time>2022-10-01T09:28:44Z</time>
      </trkpt>
      <trkpt lat="47.16973" lon="7.41515">
        <ele>429.2</ele>
        <time>2022-10-01T09:28:45Z</time>
      </trkpt>
      <trkpt lat="47.16976" lon="7.41523">
        <ele>429.2</ele>
        <time>2022-10-01T09:28:46Z</time>
      </trkpt>
      <trkpt lat="47.1698" lon="7.41532">
        <ele>429.2</ele>
        <time>2022-10-01T09:28:47Z</time>
      </trkpt>
      <trkpt lat="47.16982" lon="7.41541">
        <ele>429.2</ele>
        <time>2022-10-01T09:28:48Z</time>
      </trkpt>
      <trkpt lat="47.16986" lon="7.4155">
        <ele>429.2</ele>
        <time>2022-10-01T09:28:49Z</time>
      </trkpt>
      <trkpt lat="47.1699" lon="7.41558">
        <ele>429.3</ele>
        <time>2022-10-01T09:28:50Z</time>
      </trkpt>
      <trkpt lat="47.16993" lon="7.41567">
        <ele>429.3</ele>
        <time>2022-10-01T09:28:51Z</time>
      </trkpt>
      <trkpt lat="47.16997" lon="7.41576">
        <ele>429.3</ele>
        <time>2022-10-01T09:28:52Z</time>
      </trkpt>
      <trkpt lat="47.17001" lon="7.41584">
        <ele>429.3</ele>
        <time>2022-10-01T09:28:53Z</time>
      </trkpt>
      <trkpt lat="47.17004" lon="7.41593">
        <ele>429.3</ele>
        <time>2022-10-01T09:28:54Z</time>
      </trkpt>
      <trkpt lat="47.17008" lon="7.41602">
        <ele>429.3</ele>
        <time>2022-10-01T09:28:55Z</time>
      </trkpt>
      <trkpt lat="47.17012" lon="7.41609">
        <ele>429.3</ele>
        <time>2022-10-01T09:28:56Z</time>
      </trkpt>
      <trkpt lat="47.17016" lon="7.41618">
        <ele>429.3</ele>
        <time>2022-10-01T09:28:57Z</time>
      </trkpt>
      <trkpt lat="47.1702" lon="7.41626">
        <ele>429.4</ele>
        <time>2022-10-01T09:28:58Z</time>
      </trkpt>
      <trkpt lat="47.17025" lon="7.41633">
        <ele>429.4</ele>
        <time>2022-10-01T09:28:59Z</time>
      </trkpt>
      <trkpt lat="47.1703" lon="7.41639">
        <ele>429.4</ele>
        <time>2022-10-01T09:29:00Z</time>
      </trkpt>
      <trkpt lat="47.17035" lon="7.41645">
        <ele>429.4</ele>
        <time>2022-10-01T09:29:01Z</time>
      </trkpt>
      <trkpt lat="47.17041" lon="7.4165">
        <ele>429.4</ele>
        <time>2022-10-01T09:29:02Z</time>
      </trkpt>
      <trkpt lat="47.17046" lon="7.41655">
        <ele>429.5</ele>
        <time>2022-10-01T09:29:03Z</time>
      </trkpt>
      <trkpt lat="47.17052" lon="7.41659">
        <ele>429.5</ele>
        <time>2022-10-01T09:29:04Z</time>
      </trkpt>
      <trkpt lat="47.17057" lon="7.41664">
        <ele>429.5</ele>
        <time>2022-10-01T09:29:05Z</time>
      </trkpt>
      <trkpt lat="47.17063" lon="7.41668">
        <ele>429.5</ele>
        <time>2022-10-01T09:29:06Z</time>
      </trkpt>
      <trkpt lat="47.17068" lon="7.41672">
        <ele>429.5</ele>
        <time>2022-10-01T09:29:07Z</time>
      </trkpt>
      <trkpt lat="47.17074" lon="7.41675">
        <ele>429.5</ele>
        <time>2022-10-01T09:29:08Z</time>
      </trkpt>
      <trkpt lat="47.1708" lon="7.4168">
        <ele>429.6</ele>
        <time>2022-10-01T09:29:09Z</time>
      </trkpt>
      <trkpt lat="47.17085" lon="7.41685">
        <ele>429.6</ele>
        <time>2022-10-01T09:29:10Z</time>
      </trkpt>
      <trkpt lat="47.17091" lon="7.41689">
        <ele>429.6</ele>
        <time>2022-10-01T09:29:11Z</time>
      </trkpt>
      <trkpt lat="47.17097" lon="7.41694">
        <ele>429.6</ele>
        <time>2022-10-01T09:29:12Z</time>
      </trkpt>
      <trkpt lat="47.17103" lon="7.41697">
        <ele>429.6</ele>
        <time>2022-10-01T09:29:13Z</time>
      </trkpt>
      <trkpt lat="47.17108" lon="7.41701">
        <ele>429.6</ele>
        <time>2022-10-01T09:29:14Z</time>
      </trkpt>
      <trkpt lat="47.17114" lon="7.41707">
        <ele>429.6</ele>
        <time>2022-10-01T09:29:15Z</time>
      </trkpt>
      <trkpt lat="47.1712" lon="7.41711">
        <ele>429.6</ele>
        <time>2022-10-01T09:29:16Z</time>
      </trkpt>
      <trkpt lat="47.17125" lon="7.41716">
        <ele>429.6</ele>
        <time>2022-10-01T09:29:17Z</time>
      </trkpt>
      <trkpt lat="47.17131" lon="7.41722">
        <ele>429.6</ele>
        <time>2022-10-01T09:29:18Z</time>
      </trkpt>
      <trkpt lat="47.17136" lon="7.41727">
        <ele>429.6</ele>
        <time>2022-10-01T09:29:19Z</time>
      </trkpt>
      <trkpt lat="47.17142" lon="7.41734">
        <ele>429.6</ele>
        <time>2022-10-01T09:29:20Z</time>
      </trkpt>
      <trkpt lat="47.17148" lon="7.4174">
        <ele>429.5</ele>
        <time>2022-10-01T09:29:21Z</time>
      </trkpt>
      <trkpt lat="47.17155" lon="7.41746">
        <ele>429.6</ele>
        <time>2022-10-01T09:29:22Z</time>
      </trkpt>
      <trkpt lat="47.17159" lon="7.41753">
        <ele>429.6</ele>
        <time>2022-10-01T09:29:23Z</time>
      </trkpt>
      <trkpt lat="47.17165" lon="7.41762">
        <ele>429.6</ele>
        <time>2022-10-01T09:29:24Z</time>
      </trkpt>
      <trkpt lat="47.17169" lon="7.41768">
        <ele>429.6</ele>
        <time>2022-10-01T09:29:25Z</time>
      </trkpt>
      <trkpt lat="47.17175" lon="7.41777">
        <ele>429.7</ele>
        <time>2022-10-01T09:29:26Z</time>
      </trkpt>
      <trkpt lat="47.1718" lon="7.41785">
        <ele>429.7</ele>
        <time>2022-10-01T09:29:27Z</time>
      </trkpt>
      <trkpt lat="47.17184" lon="7.41792">
        <ele>429.7</ele>
        <time>2022-10-01T09:29:28Z</time>
      </trkpt>
      <trkpt lat="47.17189" lon="7.41801">
        <ele>429.7</ele>
        <time>2022-10-01T09:29:29Z</time>
      </trkpt>
      <trkpt lat="47.17194" lon="7.41808">
        <ele>429.7</ele>
        <time>2022-10-01T09:29:30Z</time>
      </trkpt>
      <trkpt lat="47.172" lon="7.41815">
        <ele>429.6</ele>
        <time>2022-10-01T09:29:31Z</time>
      </trkpt>
      <trkpt lat="47.17206" lon="7.41821">
        <ele>429.6</ele>
        <time>2022-10-01T09:29:32Z</time>
      </trkpt>
      <trkpt lat="47.17212" lon="7.41828">
        <ele>429.6</ele>
        <time>2022-10-01T09:29:33Z</time>
      </trkpt>
      <trkpt lat="47.17217" lon="7.41835">
        <ele>429.5</ele>
        <time>2022-10-01T09:29:34Z</time>
      </trkpt>
      <trkpt lat="47.17222" lon="7.4184">
        <ele>429.5</ele>
        <time>2022-10-01T09:29:35Z</time>
      </trkpt>
      <trkpt lat="47.17228" lon="7.41846">
        <ele>429.5</ele>
        <time>2022-10-01T09:29:36Z</time>
      </trkpt>
      <trkpt lat="47.17233" lon="7.41852">
        <ele>429.5</ele>
        <time>2022-10-01T09:29:37Z</time>
      </trkpt>
      <trkpt lat="47.17238" lon="7.41857">
        <ele>429.4</ele>
        <time>2022-10-01T09:29:38Z</time>
      </trkpt>
      <trkpt lat="47.17244" lon="7.41863">
        <ele>429.4</ele>
        <time>2022-10-01T09:29:39Z</time>
      </trkpt>
      <trkpt lat="47.17249" lon="7.41869">
        <ele>429.4</ele>
        <time>2022-10-01T09:29:40Z</time>
      </trkpt>
      <trkpt lat="47.17253" lon="7.41875">
        <ele>429.4</ele>
        <time>2022-10-01T09:29:41Z</time>
      </trkpt>
      <trkpt lat="47.17258" lon="7.41884">
        <ele>429.3</ele>
        <time>2022-10-01T09:29:42Z</time>
      </trkpt>
      <trkpt lat="47.17263" lon="7.41892">
        <ele>429.2</ele>
        <time>2022-10-01T09:29:43Z</time>
      </trkpt>
      <trkpt lat="47.17267" lon="7.419">
        <ele>429.2</ele>
        <time>2022-10-01T09:29:44Z</time>
      </trkpt>
      <trkpt lat="47.17269" lon="7.4191">
        <ele>429.2</ele>
        <time>2022-10-01T09:29:45Z</time>
      </trkpt>
      <trkpt lat="47.17273" lon="7.4192">
        <ele>429.1</ele>
        <time>2022-10-01T09:29:46Z</time>
      </trkpt>
      <trkpt lat="47.17273" lon="7.41931">
        <ele>429.1</ele>
        <time>2022-10-01T09:29:47Z</time>
      </trkpt>
      <trkpt lat="47.17274" lon="7.41941">
        <ele>429.1</ele>
        <time>2022-10-01T09:29:48Z</time>
      </trkpt>
      <trkpt lat="47.17275" lon="7.4195">
        <ele>429.2</ele>
        <time>2022-10-01T09:29:49Z</time>
      </trkpt>
      <trkpt lat="47.17276" lon="7.41959">
        <ele>429.2</ele>
        <time>2022-10-01T09:29:50Z</time>
      </trkpt>
      <trkpt lat="47.17278" lon="7.41968">
        <ele>429.2</ele>
        <time>2022-10-01T09:29:51Z</time>
      </trkpt>
      <trkpt lat="47.1728" lon="7.41974">
        <ele>429.3</ele>
        <time>2022-10-01T09:29:52Z</time>
      </trkpt>
      <trkpt lat="47.17283" lon="7.4198">
        <ele>429.3</ele>
        <time>2022-10-01T09:29:53Z</time>
      </trkpt>
      <trkpt lat="47.17285" lon="7.41986">
        <ele>429.4</ele>
        <time>2022-10-01T09:29:54Z</time>
      </trkpt>
      <trkpt lat="47.17287" lon="7.41991">
        <ele>429.4</ele>
        <time>2022-10-01T09:29:55Z</time>
      </trkpt>
      <trkpt lat="47.17287" lon="7.41994">
        <ele>429.4</ele>
        <time>2022-10-01T09:29:56Z</time>
      </trkpt>
      <trkpt lat="47.17286" lon="7.41999">
        <ele>429.3</ele>
        <time>2022-10-01T09:29:57Z</time>
      </trkpt>
      <trkpt lat="47.17286" lon="7.42001">
        <ele>429.2</ele>
        <time>2022-10-01T09:29:58Z</time>
      </trkpt>
      <trkpt lat="47.17283" lon="7.42005">
        <ele>429.1</ele>
        <time>2022-10-01T09:29:59Z</time>
      </trkpt>
      <trkpt lat="47.17282" lon="7.42007">
        <ele>429</ele>
        <time>2022-10-01T09:30:00Z</time>
      </trkpt>
      <trkpt lat="47.17278" lon="7.4201">
        <ele>428.8</ele>
        <time>2022-10-01T09:30:01Z</time>
      </trkpt>
      <trkpt lat="47.17277" lon="7.42011">
        <ele>428.8</ele>
        <time>2022-10-01T09:30:02Z</time>
      </trkpt>
      <trkpt lat="47.17273" lon="7.42014">
        <ele>428.6</ele>
        <time>2022-10-01T09:30:03Z</time>
      </trkpt>
      <trkpt lat="47.17272" lon="7.42016">
        <ele>428.5</ele>
        <time>2022-10-01T09:30:04Z</time>
      </trkpt>
      <trkpt lat="47.17269" lon="7.42017">
        <ele>428.4</ele>
        <time>2022-10-01T09:30:05Z</time>
      </trkpt>
      <trkpt lat="47.17268" lon="7.42018">
        <ele>428.4</ele>
        <time>2022-10-01T09:30:06Z</time>
      </trkpt>
      <trkpt lat="47.17265" lon="7.42021">
        <ele>428.3</ele>
        <time>2022-10-01T09:30:07Z</time>
      </trkpt>
      <trkpt lat="47.17263" lon="7.42022">
        <ele>428.2</ele>
        <time>2022-10-01T09:30:08Z</time>
      </trkpt>
      <trkpt lat="47.17261" lon="7.42027">
        <ele>428.1</ele>
        <time>2022-10-01T09:30:09Z</time>
      </trkpt>
      <trkpt lat="47.1726" lon="7.42029">
        <ele>428</ele>
        <time>2022-10-01T09:30:10Z</time>
      </trkpt>
      <trkpt lat="47.17258" lon="7.42033">
        <ele>427.9</ele>
        <time>2022-10-01T09:30:11Z</time>
      </trkpt>
      <trkpt lat="47.17258" lon="7.42038">
        <ele>427.8</ele>
        <time>2022-10-01T09:30:12Z</time>
      </trkpt>
      <trkpt lat="47.17258" lon="7.42044">
        <ele>427.7</ele>
        <time>2022-10-01T09:30:13Z</time>
      </trkpt>
      <trkpt lat="47.1726" lon="7.42049">
        <ele>427.7</ele>
        <time>2022-10-01T09:30:14Z</time>
      </trkpt>
      <trkpt lat="47.17261" lon="7.4205">
        <ele>427.7</ele>
        <time>2022-10-01T09:30:15Z</time>
      </trkpt>
      <trkpt lat="47.17263" lon="7.42054">
        <ele>427.7</ele>
        <time>2022-10-01T09:30:16Z</time>
      </trkpt>
      <trkpt lat="47.17265" lon="7.42055">
        <ele>427.7</ele>
        <time>2022-10-01T09:30:17Z</time>
      </trkpt>
      <trkpt lat="47.17267" lon="7.42058">
        <ele>427.7</ele>
        <time>2022-10-01T09:30:18Z</time>
      </trkpt>
      <trkpt lat="47.1727" lon="7.4206">
        <ele>427.7</ele>
        <time>2022-10-01T09:30:19Z</time>
      </trkpt>
      <trkpt lat="47.17272" lon="7.42063">
        <ele>427.8</ele>
        <time>2022-10-01T09:30:20Z</time>
      </trkpt>
      <trkpt lat="47.17275" lon="7.42065">
        <ele>428</ele>
        <time>2022-10-01T09:30:21Z</time>
      </trkpt>
      <trkpt lat="47.17277" lon="7.42068">
        <ele>428</ele>
        <time>2022-10-01T09:30:22Z</time>
      </trkpt>
      <trkpt lat="47.17278" lon="7.42068">
        <ele>428.1</ele>
        <time>2022-10-01T09:30:23Z</time>
      </trkpt>
      <trkpt lat="47.1728" lon="7.4207">
        <ele>428.2</ele>
        <time>2022-10-01T09:30:24Z</time>
      </trkpt>
      <trkpt lat="47.1728" lon="7.42072">
        <ele>428.2</ele>
        <time>2022-10-01T09:30:25Z</time>
      </trkpt>
      <trkpt lat="47.17283" lon="7.42073">
        <ele>428.3</ele>
        <time>2022-10-01T09:30:26Z</time>
      </trkpt>
      <trkpt lat="47.17284" lon="7.42073">
        <ele>428.4</ele>
        <time>2022-10-01T09:30:27Z</time>
      </trkpt>
      <trkpt lat="47.17286" lon="7.42074">
        <ele>428.4</ele>
        <time>2022-10-01T09:30:28Z</time>
      </trkpt>
      <trkpt lat="47.17287" lon="7.42076">
        <ele>428.5</ele>
        <time>2022-10-01T09:30:29Z</time>
      </trkpt>
      <trkpt lat="47.17289" lon="7.42079">
        <ele>428.6</ele>
        <time>2022-10-01T09:30:30Z</time>
      </trkpt>
      <trkpt lat="47.17289" lon="7.4208">
        <ele>428.6</ele>
        <time>2022-10-01T09:30:31Z</time>
      </trkpt>
      <trkpt lat="47.17291" lon="7.42082">
        <ele>428.7</ele>
        <time>2022-10-01T09:30:32Z</time>
      </trkpt>
      <trkpt lat="47.17292" lon="7.42084">
        <ele>428.8</ele>
        <time>2022-10-01T09:30:33Z</time>
      </trkpt>
      <trkpt lat="47.17296" lon="7.42086">
        <ele>428.8</ele>
        <time>2022-10-01T09:30:34Z</time>
      </trkpt>
      <trkpt lat="47.17297" lon="7.42086">
        <ele>428.8</ele>
        <time>2022-10-01T09:30:35Z</time>
      </trkpt>
      <trkpt lat="47.17299" lon="7.42089">
        <ele>428.8</ele>
        <time>2022-10-01T09:30:36Z</time>
      </trkpt>
      <trkpt lat="47.173" lon="7.42093">
        <ele>428.8</ele>
        <time>2022-10-01T09:30:37Z</time>
      </trkpt>
      <trkpt lat="47.17302" lon="7.42096">
        <ele>428.8</ele>
        <time>2022-10-01T09:30:38Z</time>
      </trkpt>
      <trkpt lat="47.17304" lon="7.421">
        <ele>428.8</ele>
        <time>2022-10-01T09:30:39Z</time>
      </trkpt>
      <trkpt lat="47.17307" lon="7.42103">
        <ele>428.8</ele>
        <time>2022-10-01T09:30:40Z</time>
      </trkpt>
      <trkpt lat="47.17309" lon="7.42107">
        <ele>428.8</ele>
        <time>2022-10-01T09:30:41Z</time>
      </trkpt>
      <trkpt lat="47.17311" lon="7.42112">
        <ele>428.8</ele>
        <time>2022-10-01T09:30:42Z</time>
      </trkpt>
      <trkpt lat="47.17313" lon="7.42116">
        <ele>428.8</ele>
        <time>2022-10-01T09:30:43Z</time>
      </trkpt>
      <trkpt lat="47.17315" lon="7.4212">
        <ele>428.8</ele>
        <time>2022-10-01T09:30:44Z</time>
      </trkpt>
      <trkpt lat="47.17318" lon="7.42125">
        <ele>428.8</ele>
        <time>2022-10-01T09:30:45Z</time>
      </trkpt>
      <trkpt lat="47.1732" lon="7.4213">
        <ele>428.8</ele>
        <time>2022-10-01T09:30:46Z</time>
      </trkpt>
      <trkpt lat="47.17322" lon="7.42134">
        <ele>428.8</ele>
        <time>2022-10-01T09:30:47Z</time>
      </trkpt>
      <trkpt lat="47.17324" lon="7.42139">
        <ele>428.8</ele>
        <time>2022-10-01T09:30:48Z</time>
      </trkpt>
      <trkpt lat="47.17327" lon="7.42144">
        <ele>428.8</ele>
        <time>2022-10-01T09:30:49Z</time>
      </trkpt>
      <trkpt lat="47.17329" lon="7.42149">
        <ele>428.8</ele>
        <time>2022-10-01T09:30:50Z</time>
      </trkpt>
      <trkpt lat="47.17332" lon="7.42155">
        <ele>428.8</ele>
        <time>2022-10-01T09:30:51Z</time>
      </trkpt>
      <trkpt lat="47.17335" lon="7.42161">
        <ele>428.7</ele>
        <time>2022-10-01T09:30:52Z</time>
      </trkpt>
      <trkpt lat="47.17338" lon="7.42166">
        <ele>428.7</ele>
        <time>2022-10-01T09:30:53Z</time>
      </trkpt>
      <trkpt lat="47.17341" lon="7.42172">
        <ele>428.7</ele>
        <time>2022-10-01T09:30:54Z</time>
      </trkpt>
      <trkpt lat="47.17344" lon="7.42177">
        <ele>428.7</ele>
        <time>2022-10-01T09:30:55Z</time>
      </trkpt>
      <trkpt lat="47.17347" lon="7.42183">
        <ele>428.7</ele>
        <time>2022-10-01T09:30:56Z</time>
      </trkpt>
      <trkpt lat="47.1735" lon="7.4219">
        <ele>428.7</ele>
        <time>2022-10-01T09:30:57Z</time>
      </trkpt>
      <trkpt lat="47.17354" lon="7.42195">
        <ele>428.7</ele>
        <time>2022-10-01T09:30:58Z</time>
      </trkpt>
      <trkpt lat="47.17357" lon="7.42201">
        <ele>428.7</ele>
        <time>2022-10-01T09:30:59Z</time>
      </trkpt>
      <trkpt lat="47.1736" lon="7.42208">
        <ele>428.7</ele>
        <time>2022-10-01T09:31:00Z</time>
      </trkpt>
      <trkpt lat="47.17363" lon="7.42214">
        <ele>428.7</ele>
        <time>2022-10-01T09:31:01Z</time>
      </trkpt>
      <trkpt lat="47.17367" lon="7.4222">
        <ele>428.7</ele>
        <time>2022-10-01T09:31:02Z</time>
      </trkpt>
      <trkpt lat="47.17371" lon="7.42227">
        <ele>428.7</ele>
        <time>2022-10-01T09:31:03Z</time>
      </trkpt>
      <trkpt lat="47.17374" lon="7.42234">
        <ele>428.7</ele>
        <time>2022-10-01T09:31:04Z</time>
      </trkpt>
      <trkpt lat="47.17377" lon="7.4224">
        <ele>428.6</ele>
        <time>2022-10-01T09:31:05Z</time>
      </trkpt>
      <trkpt lat="47.1738" lon="7.42247">
        <ele>428.6</ele>
        <time>2022-10-01T09:31:06Z</time>
      </trkpt>
      <trkpt lat="47.17384" lon="7.42254">
        <ele>428.6</ele>
        <time>2022-10-01T09:31:07Z</time>
      </trkpt>
      <trkpt lat="47.17388" lon="7.42261">
        <ele>428.5</ele>
        <time>2022-10-01T09:31:08Z</time>
      </trkpt>
      <trkpt lat="47.17391" lon="7.42268">
        <ele>428.5</ele>
        <time>2022-10-01T09:31:09Z</time>
      </trkpt>
      <trkpt lat="47.17394" lon="7.42275">
        <ele>428.5</ele>
        <time>2022-10-01T09:31:10Z</time>
      </trkpt>
      <trkpt lat="47.17397" lon="7.42282">
        <ele>428.5</ele>
        <time>2022-10-01T09:31:11Z</time>
      </trkpt>
      <trkpt lat="47.17401" lon="7.42289">
        <ele>428.5</ele>
        <time>2022-10-01T09:31:12Z</time>
      </trkpt>
      <trkpt lat="47.17405" lon="7.42296">
        <ele>428.5</ele>
        <time>2022-10-01T09:31:13Z</time>
      </trkpt>
      <trkpt lat="47.17409" lon="7.42303">
        <ele>428.5</ele>
        <time>2022-10-01T09:31:14Z</time>
      </trkpt>
      <trkpt lat="47.17411" lon="7.42308">
        <ele>428.6</ele>
        <time>2022-10-01T09:31:15Z</time>
      </trkpt>
      <trkpt lat="47.17414" lon="7.42313">
        <ele>428.6</ele>
        <time>2022-10-01T09:31:16Z</time>
      </trkpt>
      <trkpt lat="47.17415" lon="7.42318">
        <ele>428.6</ele>
        <time>2022-10-01T09:31:17Z</time>
      </trkpt>
      <trkpt lat="47.17417" lon="7.42321">
        <ele>428.6</ele>
        <time>2022-10-01T09:31:18Z</time>
      </trkpt>
      <trkpt lat="47.17418" lon="7.42325">
        <ele>428.6</ele>
        <time>2022-10-01T09:31:19Z</time>
      </trkpt>
      <trkpt lat="47.17417" lon="7.42329">
        <ele>428.6</ele>
        <time>2022-10-01T09:31:20Z</time>
      </trkpt>
      <trkpt lat="47.17416" lon="7.42331">
        <ele>428.6</ele>
        <time>2022-10-01T09:31:21Z</time>
      </trkpt>
      <trkpt lat="47.17415" lon="7.42335">
        <ele>428.6</ele>
        <time>2022-10-01T09:31:22Z</time>
      </trkpt>
      <trkpt lat="47.17412" lon="7.42339">
        <ele>428.6</ele>
        <time>2022-10-01T09:31:23Z</time>
      </trkpt>
      <trkpt lat="47.17412" lon="7.42339">
        <ele>428.6</ele>
        <time>2022-10-01T09:31:24Z</time>
      </trkpt>
      <trkpt lat="47.1741" lon="7.42343">
        <ele>428.6</ele>
        <time>2022-10-01T09:31:25Z</time>
      </trkpt>
      <trkpt lat="47.17408" lon="7.42347">
        <ele>428.5</ele>
        <time>2022-10-01T09:31:26Z</time>
      </trkpt>
      <trkpt lat="47.17406" lon="7.42351">
        <ele>428.5</ele>
        <time>2022-10-01T09:31:27Z</time>
      </trkpt>
      <trkpt lat="47.17404" lon="7.42355">
        <ele>428.5</ele>
        <time>2022-10-01T09:31:28Z</time>
      </trkpt>
      <trkpt lat="47.17402" lon="7.42359">
        <ele>428.5</ele>
        <time>2022-10-01T09:31:29Z</time>
      </trkpt>
      <trkpt lat="47.17399" lon="7.42362">
        <ele>428.5</ele>
        <time>2022-10-01T09:31:30Z</time>
      </trkpt>
      <trkpt lat="47.17397" lon="7.42366">
        <ele>428.5</ele>
        <time>2022-10-01T09:31:31Z</time>
      </trkpt>
      <trkpt lat="47.17395" lon="7.4237">
        <ele>428.5</ele>
        <time>2022-10-01T09:31:32Z</time>
      </trkpt>
      <trkpt lat="47.17392" lon="7.42375">
        <ele>428.4</ele>
        <time>2022-10-01T09:31:33Z</time>
      </trkpt>
      <trkpt lat="47.1739" lon="7.42378">
        <ele>428.4</ele>
        <time>2022-10-01T09:31:34Z</time>
      </trkpt>
      <trkpt lat="47.17387" lon="7.42382">
        <ele>428.4</ele>
        <time>2022-10-01T09:31:35Z</time>
      </trkpt>
      <trkpt lat="47.17385" lon="7.42386">
        <ele>428.4</ele>
        <time>2022-10-01T09:31:36Z</time>
      </trkpt>
      <trkpt lat="47.17383" lon="7.4239">
        <ele>428.4</ele>
        <time>2022-10-01T09:31:37Z</time>
      </trkpt>
      <trkpt lat="47.17381" lon="7.42394">
        <ele>428.4</ele>
        <time>2022-10-01T09:31:38Z</time>
      </trkpt>
      <trkpt lat="47.17378" lon="7.42399">
        <ele>428.4</ele>
        <time>2022-10-01T09:31:39Z</time>
      </trkpt>
      <trkpt lat="47.17375" lon="7.42402">
        <ele>428.4</ele>
        <time>2022-10-01T09:31:40Z</time>
      </trkpt>
      <trkpt lat="47.17373" lon="7.42405">
        <ele>428.4</ele>
        <time>2022-10-01T09:31:41Z</time>
      </trkpt>
      <trkpt lat="47.1737" lon="7.42409">
        <ele>428.4</ele>
        <time>2022-10-01T09:31:42Z</time>
      </trkpt>
      <trkpt lat="47.17368" lon="7.42413">
        <ele>428.4</ele>
        <time>2022-10-01T09:31:43Z</time>
      </trkpt>
      <trkpt lat="47.17366" lon="7.42417">
        <ele>428.4</ele>
        <time>2022-10-01T09:31:44Z</time>
      </trkpt>
      <trkpt lat="47.17363" lon="7.4242">
        <ele>428.4</ele>
        <time>2022-10-01T09:31:45Z</time>
      </trkpt>
      <trkpt lat="47.17361" lon="7.42423">
        <ele>428.5</ele>
        <time>2022-10-01T09:31:46Z</time>
      </trkpt>
      <trkpt lat="47.17359" lon="7.42427">
        <ele>428.5</ele>
        <time>2022-10-01T09:31:47Z</time>
      </trkpt>
      <trkpt lat="47.17356" lon="7.4243">
        <ele>428.5</ele>
        <time>2022-10-01T09:31:48Z</time>
      </trkpt>
      <trkpt lat="47.17354" lon="7.42435">
        <ele>428.5</ele>
        <time>2022-10-01T09:31:49Z</time>
      </trkpt>
      <trkpt lat="47.17354" lon="7.42436">
        <ele>428.5</ele>
        <time>2022-10-01T09:31:50Z</time>
      </trkpt>
      <trkpt lat="47.17353" lon="7.4244">
        <ele>428.5</ele>
        <time>2022-10-01T09:31:51Z</time>
      </trkpt>
      <trkpt lat="47.17352" lon="7.42445">
        <ele>428.5</ele>
        <time>2022-10-01T09:31:52Z</time>
      </trkpt>
      <trkpt lat="47.17353" lon="7.42451">
        <ele>428.5</ele>
        <time>2022-10-01T09:31:53Z</time>
      </trkpt>
      <trkpt lat="47.17355" lon="7.42455">
        <ele>428.5</ele>
        <time>2022-10-01T09:31:54Z</time>
      </trkpt>
      <trkpt lat="47.17356" lon="7.4246">
        <ele>428.5</ele>
        <time>2022-10-01T09:31:55Z</time>
      </trkpt>
      <trkpt lat="47.17357" lon="7.42465">
        <ele>428.5</ele>
        <time>2022-10-01T09:31:56Z</time>
      </trkpt>
      <trkpt lat="47.17358" lon="7.4247">
        <ele>428.5</ele>
        <time>2022-10-01T09:31:57Z</time>
      </trkpt>
      <trkpt lat="47.1736" lon="7.42474">
        <ele>428.5</ele>
        <time>2022-10-01T09:31:58Z</time>
      </trkpt>
      <trkpt lat="47.17361" lon="7.4248">
        <ele>428.5</ele>
        <time>2022-10-01T09:31:59Z</time>
      </trkpt>
      <trkpt lat="47.17363" lon="7.42486">
        <ele>428.5</ele>
        <time>2022-10-01T09:32:00Z</time>
      </trkpt>
      <trkpt lat="47.17364" lon="7.42492">
        <ele>428.5</ele>
        <time>2022-10-01T09:32:01Z</time>
      </trkpt>
      <trkpt lat="47.17366" lon="7.42497">
        <ele>428.5</ele>
        <time>2022-10-01T09:32:02Z</time>
      </trkpt>
      <trkpt lat="47.17367" lon="7.42503">
        <ele>428.5</ele>
        <time>2022-10-01T09:32:03Z</time>
      </trkpt>
      <trkpt lat="47.17368" lon="7.42509">
        <ele>428.5</ele>
        <time>2022-10-01T09:32:04Z</time>
      </trkpt>
      <trkpt lat="47.1737" lon="7.42513">
        <ele>428.5</ele>
        <time>2022-10-01T09:32:05Z</time>
      </trkpt>
      <trkpt lat="47.17372" lon="7.42519">
        <ele>428.5</ele>
        <time>2022-10-01T09:32:06Z</time>
      </trkpt>
      <trkpt lat="47.17373" lon="7.42526">
        <ele>428.5</ele>
        <time>2022-10-01T09:32:07Z</time>
      </trkpt>
      <trkpt lat="47.17374" lon="7.42533">
        <ele>428.5</ele>
        <time>2022-10-01T09:32:08Z</time>
      </trkpt>
      <trkpt lat="47.17376" lon="7.42539">
        <ele>428.5</ele>
        <time>2022-10-01T09:32:09Z</time>
      </trkpt>
      <trkpt lat="47.17378" lon="7.42545">
        <ele>428.5</ele>
        <time>2022-10-01T09:32:10Z</time>
      </trkpt>
      <trkpt lat="47.17379" lon="7.42552">
        <ele>428.5</ele>
        <time>2022-10-01T09:32:11Z</time>
      </trkpt>
      <trkpt lat="47.1738" lon="7.42559">
        <ele>428.5</ele>
        <time>2022-10-01T09:32:12Z</time>
      </trkpt>
      <trkpt lat="47.17381" lon="7.42564">
        <ele>428.5</ele>
        <time>2022-10-01T09:32:13Z</time>
      </trkpt>
      <trkpt lat="47.17384" lon="7.42572">
        <ele>428.5</ele>
        <time>2022-10-01T09:32:14Z</time>
      </trkpt>
      <trkpt lat="47.17385" lon="7.42579">
        <ele>428.5</ele>
        <time>2022-10-01T09:32:15Z</time>
      </trkpt>
      <trkpt lat="47.17386" lon="7.42586">
        <ele>428.4</ele>
        <time>2022-10-01T09:32:16Z</time>
      </trkpt>
      <trkpt lat="47.17388" lon="7.42593">
        <ele>428.4</ele>
        <time>2022-10-01T09:32:17Z</time>
      </trkpt>
      <trkpt lat="47.1739" lon="7.426">
        <ele>428.4</ele>
        <time>2022-10-01T09:32:18Z</time>
      </trkpt>
      <trkpt lat="47.17391" lon="7.42607">
        <ele>428.4</ele>
        <time>2022-10-01T09:32:19Z</time>
      </trkpt>
      <trkpt lat="47.17393" lon="7.42614">
        <ele>428.4</ele>
        <time>2022-10-01T09:32:20Z</time>
      </trkpt>
      <trkpt lat="47.17395" lon="7.42622">
        <ele>428.4</ele>
        <time>2022-10-01T09:32:21Z</time>
      </trkpt>
      <trkpt lat="47.17396" lon="7.42628">
        <ele>428.4</ele>
        <time>2022-10-01T09:32:22Z</time>
      </trkpt>
      <trkpt lat="47.17398" lon="7.42636">
        <ele>428.4</ele>
        <time>2022-10-01T09:32:23Z</time>
      </trkpt>
      <trkpt lat="47.17399" lon="7.42643">
        <ele>428.4</ele>
        <time>2022-10-01T09:32:24Z</time>
      </trkpt>
      <trkpt lat="47.17401" lon="7.4265">
        <ele>428.4</ele>
        <time>2022-10-01T09:32:25Z</time>
      </trkpt>
      <trkpt lat="47.17403" lon="7.42657">
        <ele>428.3</ele>
        <time>2022-10-01T09:32:26Z</time>
      </trkpt>
      <trkpt lat="47.17405" lon="7.42665">
        <ele>428.3</ele>
        <time>2022-10-01T09:32:27Z</time>
      </trkpt>
      <trkpt lat="47.17407" lon="7.42672">
        <ele>428.3</ele>
        <time>2022-10-01T09:32:28Z</time>
      </trkpt>
      <trkpt lat="47.17409" lon="7.42679">
        <ele>428.3</ele>
        <time>2022-10-01T09:32:29Z</time>
      </trkpt>
      <trkpt lat="47.17411" lon="7.42686">
        <ele>428.3</ele>
        <time>2022-10-01T09:32:30Z</time>
      </trkpt>
      <trkpt lat="47.17412" lon="7.42693">
        <ele>428.3</ele>
        <time>2022-10-01T09:32:31Z</time>
      </trkpt>
      <trkpt lat="47.17415" lon="7.42701">
        <ele>428.3</ele>
        <time>2022-10-01T09:32:32Z</time>
      </trkpt>
      <trkpt lat="47.17417" lon="7.42709">
        <ele>428.2</ele>
        <time>2022-10-01T09:32:33Z</time>
      </trkpt>
      <trkpt lat="47.1742" lon="7.42716">
        <ele>428.2</ele>
        <time>2022-10-01T09:32:34Z</time>
      </trkpt>
      <trkpt lat="47.17423" lon="7.42723">
        <ele>428.2</ele>
        <time>2022-10-01T09:32:35Z</time>
      </trkpt>
      <trkpt lat="47.17425" lon="7.42729">
        <ele>428.1</ele>
        <time>2022-10-01T09:32:36Z</time>
      </trkpt>
      <trkpt lat="47.17429" lon="7.42737">
        <ele>428.1</ele>
        <time>2022-10-01T09:32:37Z</time>
      </trkpt>
      <trkpt lat="47.17432" lon="7.42744">
        <ele>428.1</ele>
        <time>2022-10-01T09:32:38Z</time>
      </trkpt>
      <trkpt lat="47.17436" lon="7.42751">
        <ele>428.1</ele>
        <time>2022-10-01T09:32:39Z</time>
      </trkpt>
      <trkpt lat="47.17438" lon="7.42759">
        <ele>428.1</ele>
        <time>2022-10-01T09:32:40Z</time>
      </trkpt>
      <trkpt lat="47.17442" lon="7.42767">
        <ele>428</ele>
        <time>2022-10-01T09:32:41Z</time>
      </trkpt>
      <trkpt lat="47.17445" lon="7.42774">
        <ele>428</ele>
        <time>2022-10-01T09:32:42Z</time>
      </trkpt>
      <trkpt lat="47.17448" lon="7.42781">
        <ele>428</ele>
        <time>2022-10-01T09:32:43Z</time>
      </trkpt>
      <trkpt lat="47.17451" lon="7.42789">
        <ele>428</ele>
        <time>2022-10-01T09:32:44Z</time>
      </trkpt>
      <trkpt lat="47.17455" lon="7.42797">
        <ele>428</ele>
        <time>2022-10-01T09:32:45Z</time>
      </trkpt>
      <trkpt lat="47.17458" lon="7.42803">
        <ele>428</ele>
        <time>2022-10-01T09:32:46Z</time>
      </trkpt>
      <trkpt lat="47.17461" lon="7.4281">
        <ele>428.1</ele>
        <time>2022-10-01T09:32:47Z</time>
      </trkpt>
      <trkpt lat="47.17464" lon="7.42817">
        <ele>428.1</ele>
        <time>2022-10-01T09:32:48Z</time>
      </trkpt>
      <trkpt lat="47.17468" lon="7.42823">
        <ele>428</ele>
        <time>2022-10-01T09:32:49Z</time>
      </trkpt>
      <trkpt lat="47.17471" lon="7.42829">
        <ele>428</ele>
        <time>2022-10-01T09:32:50Z</time>
      </trkpt>
      <trkpt lat="47.17474" lon="7.42837">
        <ele>428</ele>
        <time>2022-10-01T09:32:51Z</time>
      </trkpt>
      <trkpt lat="47.17478" lon="7.42843">
        <ele>428</ele>
        <time>2022-10-01T09:32:52Z</time>
      </trkpt>
      <trkpt lat="47.17482" lon="7.4285">
        <ele>427.9</ele>
        <time>2022-10-01T09:32:53Z</time>
      </trkpt>
      <trkpt lat="47.17485" lon="7.42856">
        <ele>427.9</ele>
        <time>2022-10-01T09:32:54Z</time>
      </trkpt>
      <trkpt lat="47.17489" lon="7.42863">
        <ele>427.8</ele>
        <time>2022-10-01T09:32:55Z</time>
      </trkpt>
      <trkpt lat="47.17493" lon="7.4287">
        <ele>427.8</ele>
        <time>2022-10-01T09:32:56Z</time>
      </trkpt>
      <trkpt lat="47.17496" lon="7.42876">
        <ele>427.8</ele>
        <time>2022-10-01T09:32:57Z</time>
      </trkpt>
      <trkpt lat="47.175" lon="7.42884">
        <ele>427.8</ele>
        <time>2022-10-01T09:32:58Z</time>
      </trkpt>
      <trkpt lat="47.17503" lon="7.4289">
        <ele>427.8</ele>
        <time>2022-10-01T09:32:59Z</time>
      </trkpt>
      <trkpt lat="47.17507" lon="7.42897">
        <ele>427.8</ele>
        <time>2022-10-01T09:33:00Z</time>
      </trkpt>
      <trkpt lat="47.1751" lon="7.42904">
        <ele>427.7</ele>
        <time>2022-10-01T09:33:01Z</time>
      </trkpt>
      <trkpt lat="47.17513" lon="7.42911">
        <ele>427.7</ele>
        <time>2022-10-01T09:33:02Z</time>
      </trkpt>
      <trkpt lat="47.17518" lon="7.42918">
        <ele>427.7</ele>
        <time>2022-10-01T09:33:03Z</time>
      </trkpt>
      <trkpt lat="47.17522" lon="7.42924">
        <ele>427.6</ele>
        <time>2022-10-01T09:33:04Z</time>
      </trkpt>
      <trkpt lat="47.17526" lon="7.42931">
        <ele>427.6</ele>
        <time>2022-10-01T09:33:05Z</time>
      </trkpt>
      <trkpt lat="47.1753" lon="7.42937">
        <ele>427.5</ele>
        <time>2022-10-01T09:33:06Z</time>
      </trkpt>
      <trkpt lat="47.17534" lon="7.42942">
        <ele>427.5</ele>
        <time>2022-10-01T09:33:07Z</time>
      </trkpt>
      <trkpt lat="47.17539" lon="7.42948">
        <ele>427.5</ele>
        <time>2022-10-01T09:33:08Z</time>
      </trkpt>
      <trkpt lat="47.17543" lon="7.42953">
        <ele>427.4</ele>
        <time>2022-10-01T09:33:09Z</time>
      </trkpt>
      <trkpt lat="47.17548" lon="7.4296">
        <ele>427.4</ele>
        <time>2022-10-01T09:33:10Z</time>
      </trkpt>
      <trkpt lat="47.17552" lon="7.42965">
        <ele>427.4</ele>
        <time>2022-10-01T09:33:11Z</time>
      </trkpt>
      <trkpt lat="47.17557" lon="7.4297">
        <ele>427.4</ele>
        <time>2022-10-01T09:33:12Z</time>
      </trkpt>
      <trkpt lat="47.17562" lon="7.42976">
        <ele>427.3</ele>
        <time>2022-10-01T09:33:13Z</time>
      </trkpt>
      <trkpt lat="47.17566" lon="7.42981">
        <ele>427.3</ele>
        <time>2022-10-01T09:33:14Z</time>
      </trkpt>
      <trkpt lat="47.17571" lon="7.42987">
        <ele>427.3</ele>
        <time>2022-10-01T09:33:15Z</time>
      </trkpt>
      <trkpt lat="47.17575" lon="7.42991">
        <ele>427.3</ele>
        <time>2022-10-01T09:33:16Z</time>
      </trkpt>
      <trkpt lat="47.1758" lon="7.42995">
        <ele>427.3</ele>
        <time>2022-10-01T09:33:17Z</time>
      </trkpt>
      <trkpt lat="47.17585" lon="7.43">
        <ele>427.3</ele>
        <time>2022-10-01T09:33:18Z</time>
      </trkpt>
      <trkpt lat="47.17588" lon="7.43002">
        <ele>427.4</ele>
        <time>2022-10-01T09:33:19Z</time>
      </trkpt>
      <trkpt lat="47.17592" lon="7.43006">
        <ele>427.4</ele>
        <time>2022-10-01T09:33:20Z</time>
      </trkpt>
      <trkpt lat="47.17596" lon="7.4301">
        <ele>427.4</ele>
        <time>2022-10-01T09:33:21Z</time>
      </trkpt>
      <trkpt lat="47.176" lon="7.43013">
        <ele>427.4</ele>
        <time>2022-10-01T09:33:22Z</time>
      </trkpt>
      <trkpt lat="47.17605" lon="7.43016">
        <ele>427.4</ele>
        <time>2022-10-01T09:33:23Z</time>
      </trkpt>
      <trkpt lat="47.17608" lon="7.43018">
        <ele>427.4</ele>
        <time>2022-10-01T09:33:24Z</time>
      </trkpt>
      <trkpt lat="47.17613" lon="7.43019">
        <ele>427.4</ele>
        <time>2022-10-01T09:33:25Z</time>
      </trkpt>
      <trkpt lat="47.17618" lon="7.43019">
        <ele>427.4</ele>
        <time>2022-10-01T09:33:26Z</time>
      </trkpt>
      <trkpt lat="47.17623" lon="7.43019">
        <ele>427.4</ele>
        <time>2022-10-01T09:33:27Z</time>
      </trkpt>
      <trkpt lat="47.17626" lon="7.43018">
        <ele>427.4</ele>
        <time>2022-10-01T09:33:28Z</time>
      </trkpt>
      <trkpt lat="47.17631" lon="7.43019">
        <ele>427.4</ele>
        <time>2022-10-01T09:33:29Z</time>
      </trkpt>
      <trkpt lat="47.17635" lon="7.43018">
        <ele>427.4</ele>
        <time>2022-10-01T09:33:30Z</time>
      </trkpt>
      <trkpt lat="47.17639" lon="7.43018">
        <ele>427.3</ele>
        <time>2022-10-01T09:33:31Z</time>
      </trkpt>
      <trkpt lat="47.17642" lon="7.43016">
        <ele>427.3</ele>
        <time>2022-10-01T09:33:32Z</time>
      </trkpt>
      <trkpt lat="47.17647" lon="7.43017">
        <ele>427.2</ele>
        <time>2022-10-01T09:33:33Z</time>
      </trkpt>
      <trkpt lat="47.1765" lon="7.43017">
        <ele>427.1</ele>
        <time>2022-10-01T09:33:34Z</time>
      </trkpt>
      <trkpt lat="47.17654" lon="7.43017">
        <ele>427.1</ele>
        <time>2022-10-01T09:33:35Z</time>
      </trkpt>
      <trkpt lat="47.17659" lon="7.43018">
        <ele>427.1</ele>
        <time>2022-10-01T09:33:36Z</time>
      </trkpt>
      <trkpt lat="47.17662" lon="7.43019">
        <ele>427.1</ele>
        <time>2022-10-01T09:33:37Z</time>
      </trkpt>
      <trkpt lat="47.17667" lon="7.43018">
        <ele>427.1</ele>
        <time>2022-10-01T09:33:38Z</time>
      </trkpt>
      <trkpt lat="47.17672" lon="7.43017">
        <ele>427</ele>
        <time>2022-10-01T09:33:39Z</time>
      </trkpt>
      <trkpt lat="47.17675" lon="7.43016">
        <ele>427</ele>
        <time>2022-10-01T09:33:40Z</time>
      </trkpt>
      <trkpt lat="47.17677" lon="7.43016">
        <ele>427</ele>
        <time>2022-10-01T09:33:41Z</time>
      </trkpt>
      <trkpt lat="47.1768" lon="7.43015">
        <ele>427</ele>
        <time>2022-10-01T09:33:42Z</time>
      </trkpt>
      <trkpt lat="47.17684" lon="7.43015">
        <ele>427</ele>
        <time>2022-10-01T09:33:43Z</time>
      </trkpt>
      <trkpt lat="47.17687" lon="7.43014">
        <ele>427</ele>
        <time>2022-10-01T09:33:44Z</time>
      </trkpt>
      <trkpt lat="47.17692" lon="7.43015">
        <ele>427</ele>
        <time>2022-10-01T09:33:45Z</time>
      </trkpt>
      <trkpt lat="47.17695" lon="7.43015">
        <ele>427.1</ele>
        <time>2022-10-01T09:33:46Z</time>
      </trkpt>
      <trkpt lat="47.17698" lon="7.43016">
        <ele>427.1</ele>
        <time>2022-10-01T09:33:47Z</time>
      </trkpt>
      <trkpt lat="47.177" lon="7.43014">
        <ele>427.1</ele>
        <time>2022-10-01T09:33:48Z</time>
      </trkpt>
      <trkpt lat="47.17703" lon="7.43015">
        <ele>427.1</ele>
        <time>2022-10-01T09:33:49Z</time>
      </trkpt>
      <trkpt lat="47.17705" lon="7.43015">
        <ele>427.1</ele>
        <time>2022-10-01T09:33:50Z</time>
      </trkpt>
      <trkpt lat="47.17707" lon="7.43015">
        <ele>427.1</ele>
        <time>2022-10-01T09:33:51Z</time>
      </trkpt>
      <trkpt lat="47.17711" lon="7.43013">
        <ele>427.2</ele>
        <time>2022-10-01T09:33:52Z</time>
      </trkpt>
      <trkpt lat="47.17712" lon="7.43013">
        <ele>427.2</ele>
        <time>2022-10-01T09:33:53Z</time>
      </trkpt>
      <trkpt lat="47.17716" lon="7.43012">
        <ele>427.2</ele>
        <time>2022-10-01T09:33:54Z</time>
      </trkpt>
      <trkpt lat="47.17717" lon="7.43012">
        <ele>427.2</ele>
        <time>2022-10-01T09:33:55Z</time>
      </trkpt>
      <trkpt lat="47.1772" lon="7.43012">
        <ele>427.2</ele>
        <time>2022-10-01T09:33:56Z</time>
      </trkpt>
      <trkpt lat="47.17723" lon="7.43013">
        <ele>427.2</ele>
        <time>2022-10-01T09:33:57Z</time>
      </trkpt>
      <trkpt lat="47.17726" lon="7.43014">
        <ele>427.2</ele>
        <time>2022-10-01T09:33:58Z</time>
      </trkpt>
      <trkpt lat="47.17729" lon="7.43017">
        <ele>427.2</ele>
        <time>2022-10-01T09:33:59Z</time>
      </trkpt>
      <trkpt lat="47.17731" lon="7.4302">
        <ele>427.2</ele>
        <time>2022-10-01T09:34:00Z</time>
      </trkpt>
      <trkpt lat="47.17734" lon="7.43025">
        <ele>427.2</ele>
        <time>2022-10-01T09:34:01Z</time>
      </trkpt>
      <trkpt lat="47.17736" lon="7.43029">
        <ele>427.2</ele>
        <time>2022-10-01T09:34:02Z</time>
      </trkpt>
      <trkpt lat="47.17738" lon="7.43032">
        <ele>427.2</ele>
        <time>2022-10-01T09:34:03Z</time>
      </trkpt>
      <trkpt lat="47.17741" lon="7.43035">
        <ele>427.2</ele>
        <time>2022-10-01T09:34:04Z</time>
      </trkpt>
      <trkpt lat="47.17743" lon="7.43039">
        <ele>427.2</ele>
        <time>2022-10-01T09:34:05Z</time>
      </trkpt>
      <trkpt lat="47.17745" lon="7.43043">
        <ele>427.2</ele>
        <time>2022-10-01T09:34:06Z</time>
      </trkpt>
      <trkpt lat="47.17747" lon="7.43047">
        <ele>427.2</ele>
        <time>2022-10-01T09:34:07Z</time>
      </trkpt>
      <trkpt lat="47.17751" lon="7.43051">
        <ele>427.2</ele>
        <time>2022-10-01T09:34:08Z</time>
      </trkpt>
      <trkpt lat="47.17754" lon="7.43053">
        <ele>427.2</ele>
        <time>2022-10-01T09:34:09Z</time>
      </trkpt>
      <trkpt lat="47.17758" lon="7.43055">
        <ele>427.2</ele>
        <time>2022-10-01T09:34:10Z</time>
      </trkpt>
      <trkpt lat="47.17762" lon="7.43057">
        <ele>427.2</ele>
        <time>2022-10-01T09:34:11Z</time>
      </trkpt>
      <trkpt lat="47.17765" lon="7.43057">
        <ele>427.1</ele>
        <time>2022-10-01T09:34:12Z</time>
      </trkpt>
      <trkpt lat="47.17769" lon="7.43058">
        <ele>427.1</ele>
        <time>2022-10-01T09:34:13Z</time>
      </trkpt>
      <trkpt lat="47.17773" lon="7.43059">
        <ele>427.1</ele>
        <time>2022-10-01T09:34:14Z</time>
      </trkpt>
      <trkpt lat="47.17776" lon="7.43059">
        <ele>427.1</ele>
        <time>2022-10-01T09:34:15Z</time>
      </trkpt>
      <trkpt lat="47.17778" lon="7.43059">
        <ele>427.1</ele>
        <time>2022-10-01T09:34:16Z</time>
      </trkpt>
      <trkpt lat="47.17781" lon="7.4306">
        <ele>427.1</ele>
        <time>2022-10-01T09:34:17Z</time>
      </trkpt>
      <trkpt lat="47.17784" lon="7.4306">
        <ele>427.1</ele>
        <time>2022-10-01T09:34:18Z</time>
      </trkpt>
      <trkpt lat="47.17788" lon="7.43061">
        <ele>427.1</ele>
        <time>2022-10-01T09:34:19Z</time>
      </trkpt>
      <trkpt lat="47.17791" lon="7.43061">
        <ele>427.1</ele>
        <time>2022-10-01T09:34:20Z</time>
      </trkpt>
      <trkpt lat="47.17795" lon="7.43061">
        <ele>427.1</ele>
        <time>2022-10-01T09:34:21Z</time>
      </trkpt>
      <trkpt lat="47.17798" lon="7.43062">
        <ele>427.1</ele>
        <time>2022-10-01T09:34:22Z</time>
      </trkpt>
      <trkpt lat="47.17802" lon="7.43062">
        <ele>427.1</ele>
        <time>2022-10-01T09:34:23Z</time>
      </trkpt>
      <trkpt lat="47.17806" lon="7.43061">
        <ele>427.1</ele>
        <time>2022-10-01T09:34:24Z</time>
      </trkpt>
      <trkpt lat="47.1781" lon="7.43061">
        <ele>427.1</ele>
        <time>2022-10-01T09:34:25Z</time>
      </trkpt>
      <trkpt lat="47.17814" lon="7.4306">
        <ele>427.1</ele>
        <time>2022-10-01T09:34:26Z</time>
      </trkpt>
      <trkpt lat="47.17817" lon="7.4306">
        <ele>427</ele>
        <time>2022-10-01T09:34:27Z</time>
      </trkpt>
      <trkpt lat="47.1782" lon="7.4306">
        <ele>427</ele>
        <time>2022-10-01T09:34:28Z</time>
      </trkpt>
      <trkpt lat="47.17824" lon="7.43059">
        <ele>427</ele>
        <time>2022-10-01T09:34:29Z</time>
      </trkpt>
      <trkpt lat="47.17828" lon="7.43058">
        <ele>427</ele>
        <time>2022-10-01T09:34:30Z</time>
      </trkpt>
      <trkpt lat="47.17831" lon="7.43056">
        <ele>427</ele>
        <time>2022-10-01T09:34:31Z</time>
      </trkpt>
      <trkpt lat="47.17835" lon="7.43055">
        <ele>427</ele>
        <time>2022-10-01T09:34:32Z</time>
      </trkpt>
      <trkpt lat="47.17839" lon="7.43054">
        <ele>427</ele>
        <time>2022-10-01T09:34:33Z</time>
      </trkpt>
      <trkpt lat="47.17843" lon="7.43052">
        <ele>427</ele>
        <time>2022-10-01T09:34:34Z</time>
      </trkpt>
      <trkpt lat="47.17847" lon="7.43051">
        <ele>427</ele>
        <time>2022-10-01T09:34:35Z</time>
      </trkpt>
      <trkpt lat="47.1785" lon="7.4305">
        <ele>427</ele>
        <time>2022-10-01T09:34:36Z</time>
      </trkpt>
      <trkpt lat="47.17854" lon="7.4305">
        <ele>427</ele>
        <time>2022-10-01T09:34:37Z</time>
      </trkpt>
      <trkpt lat="47.17858" lon="7.43048">
        <ele>427</ele>
        <time>2022-10-01T09:34:38Z</time>
      </trkpt>
      <trkpt lat="47.17862" lon="7.43046">
        <ele>427</ele>
        <time>2022-10-01T09:34:39Z</time>
      </trkpt>
      <trkpt lat="47.17866" lon="7.43045">
        <ele>427</ele>
        <time>2022-10-01T09:34:40Z</time>
      </trkpt>
      <trkpt lat="47.1787" lon="7.43044">
        <ele>427</ele>
        <time>2022-10-01T09:34:41Z</time>
      </trkpt>
      <trkpt lat="47.17874" lon="7.43043">
        <ele>427</ele>
        <time>2022-10-01T09:34:42Z</time>
      </trkpt>
      <trkpt lat="47.17878" lon="7.43042">
        <ele>427</ele>
        <time>2022-10-01T09:34:43Z</time>
      </trkpt>
      <trkpt lat="47.17882" lon="7.4304">
        <ele>427</ele>
        <time>2022-10-01T09:34:44Z</time>
      </trkpt>
      <trkpt lat="47.17885" lon="7.43039">
        <ele>426.9</ele>
        <time>2022-10-01T09:34:45Z</time>
      </trkpt>
      <trkpt lat="47.17888" lon="7.43038">
        <ele>426.9</ele>
        <time>2022-10-01T09:34:46Z</time>
      </trkpt>
      <trkpt lat="47.17891" lon="7.43038">
        <ele>426.9</ele>
        <time>2022-10-01T09:34:47Z</time>
      </trkpt>
      <trkpt lat="47.17894" lon="7.43037">
        <ele>426.9</ele>
        <time>2022-10-01T09:34:48Z</time>
      </trkpt>
      <trkpt lat="47.17897" lon="7.43036">
        <ele>426.9</ele>
        <time>2022-10-01T09:34:49Z</time>
      </trkpt>
      <trkpt lat="47.17901" lon="7.43034">
        <ele>426.9</ele>
        <time>2022-10-01T09:34:50Z</time>
      </trkpt>
      <trkpt lat="47.17905" lon="7.43033">
        <ele>426.9</ele>
        <time>2022-10-01T09:34:51Z</time>
      </trkpt>
      <trkpt lat="47.17908" lon="7.43032">
        <ele>426.9</ele>
        <time>2022-10-01T09:34:52Z</time>
      </trkpt>
      <trkpt lat="47.17912" lon="7.4303">
        <ele>426.9</ele>
        <time>2022-10-01T09:34:53Z</time>
      </trkpt>
      <trkpt lat="47.17915" lon="7.43029">
        <ele>426.9</ele>
        <time>2022-10-01T09:34:54Z</time>
      </trkpt>
      <trkpt lat="47.17919" lon="7.43028">
        <ele>426.9</ele>
        <time>2022-10-01T09:34:55Z</time>
      </trkpt>
      <trkpt lat="47.17923" lon="7.43026">
        <ele>426.9</ele>
        <time>2022-10-01T09:34:56Z</time>
      </trkpt>
      <trkpt lat="47.17927" lon="7.43025">
        <ele>426.9</ele>
        <time>2022-10-01T09:34:57Z</time>
      </trkpt>
      <trkpt lat="47.1793" lon="7.43024">
        <ele>426.9</ele>
        <time>2022-10-01T09:34:58Z</time>
      </trkpt>
      <trkpt lat="47.17934" lon="7.43024">
        <ele>427</ele>
        <time>2022-10-01T09:34:59Z</time>
      </trkpt>
      <trkpt lat="47.17938" lon="7.43022">
        <ele>427</ele>
        <time>2022-10-01T09:35:00Z</time>
      </trkpt>
      <trkpt lat="47.17941" lon="7.4302">
        <ele>427</ele>
        <time>2022-10-01T09:35:01Z</time>
      </trkpt>
      <trkpt lat="47.17943" lon="7.43019">
        <ele>427</ele>
        <time>2022-10-01T09:35:02Z</time>
      </trkpt>
      <trkpt lat="47.17948" lon="7.43017">
        <ele>427</ele>
        <time>2022-10-01T09:35:03Z</time>
      </trkpt>
      <trkpt lat="47.17952" lon="7.43016">
        <ele>427</ele>
        <time>2022-10-01T09:35:04Z</time>
      </trkpt>
      <trkpt lat="47.17955" lon="7.43015">
        <ele>427</ele>
        <time>2022-10-01T09:35:05Z</time>
      </trkpt>
      <trkpt lat="47.17959" lon="7.43013">
        <ele>427</ele>
        <time>2022-10-01T09:35:06Z</time>
      </trkpt>
      <trkpt lat="47.17963" lon="7.43011">
        <ele>427</ele>
        <time>2022-10-01T09:35:07Z</time>
      </trkpt>
      <trkpt lat="47.17967" lon="7.4301">
        <ele>427</ele>
        <time>2022-10-01T09:35:08Z</time>
      </trkpt>
      <trkpt lat="47.17971" lon="7.43008">
        <ele>427</ele>
        <time>2022-10-01T09:35:09Z</time>
      </trkpt>
      <trkpt lat="47.17976" lon="7.43007">
        <ele>427</ele>
        <time>2022-10-01T09:35:10Z</time>
      </trkpt>
      <trkpt lat="47.1798" lon="7.43006">
        <ele>427</ele>
        <time>2022-10-01T09:35:11Z</time>
      </trkpt>
      <trkpt lat="47.17984" lon="7.43003">
        <ele>427</ele>
        <time>2022-10-01T09:35:12Z</time>
      </trkpt>
      <trkpt lat="47.17989" lon="7.43002">
        <ele>427</ele>
        <time>2022-10-01T09:35:13Z</time>
      </trkpt>
      <trkpt lat="47.17993" lon="7.43">
        <ele>427</ele>
        <time>2022-10-01T09:35:14Z</time>
      </trkpt>
      <trkpt lat="47.17997" lon="7.42999">
        <ele>427</ele>
        <time>2022-10-01T09:35:15Z</time>
      </trkpt>
      <trkpt lat="47.18002" lon="7.42997">
        <ele>427</ele>
        <time>2022-10-01T09:35:16Z</time>
      </trkpt>
      <trkpt lat="47.18006" lon="7.42996">
        <ele>427</ele>
        <time>2022-10-01T09:35:17Z</time>
      </trkpt>
      <trkpt lat="47.1801" lon="7.42995">
        <ele>427</ele>
        <time>2022-10-01T09:35:18Z</time>
      </trkpt>
      <trkpt lat="47.18015" lon="7.42993">
        <ele>427</ele>
        <time>2022-10-01T09:35:19Z</time>
      </trkpt>
      <trkpt lat="47.18018" lon="7.42991">
        <ele>427</ele>
        <time>2022-10-01T09:35:20Z</time>
      </trkpt>
      <trkpt lat="47.18022" lon="7.4299">
        <ele>427</ele>
        <time>2022-10-01T09:35:21Z</time>
      </trkpt>
      <trkpt lat="47.18026" lon="7.42988">
        <ele>427</ele>
        <time>2022-10-01T09:35:22Z</time>
      </trkpt>
      <trkpt lat="47.1803" lon="7.42987">
        <ele>427</ele>
        <time>2022-10-01T09:35:23Z</time>
      </trkpt>
      <trkpt lat="47.18035" lon="7.42986">
        <ele>427</ele>
        <time>2022-10-01T09:35:24Z</time>
      </trkpt>
      <trkpt lat="47.18039" lon="7.42984">
        <ele>427.1</ele>
        <time>2022-10-01T09:35:25Z</time>
      </trkpt>
      <trkpt lat="47.18043" lon="7.42983">
        <ele>427.1</ele>
        <time>2022-10-01T09:35:26Z</time>
      </trkpt>
      <trkpt lat="47.18047" lon="7.42982">
        <ele>427.1</ele>
        <time>2022-10-01T09:35:27Z</time>
      </trkpt>
      <trkpt lat="47.18051" lon="7.4298">
        <ele>427.1</ele>
        <time>2022-10-01T09:35:28Z</time>
      </trkpt>
      <trkpt lat="47.18054" lon="7.4298">
        <ele>427.1</ele>
        <time>2022-10-01T09:35:29Z</time>
      </trkpt>
      <trkpt lat="47.18055" lon="7.4298">
        <ele>427.1</ele>
        <time>2022-10-01T09:35:30Z</time>
      </trkpt>
      <trkpt lat="47.18056" lon="7.42981">
        <ele>427.1</ele>
        <time>2022-10-01T09:35:31Z</time>
      </trkpt>
      <trkpt lat="47.18056" lon="7.42982">
        <ele>427.2</ele>
        <time>2022-10-01T09:35:32Z</time>
      </trkpt>
      <trkpt lat="47.18056" lon="7.42981">
        <ele>427.2</ele>
        <time>2022-10-01T09:35:33Z</time>
      </trkpt>
      <trkpt lat="47.18056" lon="7.42981">
        <ele>427.2</ele>
        <time>2022-10-01T09:35:34Z</time>
      </trkpt>
      <trkpt lat="47.18056" lon="7.42981">
        <ele>427.2</ele>
        <time>2022-10-01T09:35:35Z</time>
      </trkpt>
      <trkpt lat="47.18056" lon="7.42981">
        <ele>427.2</ele>
        <time>2022-10-01T09:35:36Z</time>
      </trkpt>
      <trkpt lat="47.18056" lon="7.42982">
        <ele>427.2</ele>
        <time>2022-10-01T09:35:37Z</time>
      </trkpt>
      <trkpt lat="47.18057" lon="7.42982">
        <ele>427.2</ele>
        <time>2022-10-01T09:35:38Z</time>
      </trkpt>
      <trkpt lat="47.18057" lon="7.42982">
        <ele>427.2</ele>
        <time>2022-10-01T09:35:39Z</time>
      </trkpt>
      <trkpt lat="47.18057" lon="7.42982">
        <ele>427.2</ele>
        <time>2022-10-01T09:35:40Z</time>
      </trkpt>
      <trkpt lat="47.18057" lon="7.42981">
        <ele>427.2</ele>
        <time>2022-10-01T09:35:41Z</time>
      </trkpt>
      <trkpt lat="47.18057" lon="7.42981">
        <ele>427.2</ele>
        <time>2022-10-01T09:35:42Z</time>
      </trkpt>
      <trkpt lat="47.18057" lon="7.42981">
        <ele>427.2</ele>
        <time>2022-10-01T09:35:43Z</time>
      </trkpt>
      <trkpt lat="47.18058" lon="7.42981">
        <ele>427.2</ele>
        <time>2022-10-01T09:35:44Z</time>
      </trkpt>
      <trkpt lat="47.18058" lon="7.42981">
        <ele>427.2</ele>
        <time>2022-10-01T09:35:45Z</time>
      </trkpt>
      <trkpt lat="47.18058" lon="7.4298">
        <ele>427.2</ele>
        <time>2022-10-01T09:35:46Z</time>
      </trkpt>
      <trkpt lat="47.18058" lon="7.4298">
        <ele>427.2</ele>
        <time>2022-10-01T09:35:47Z</time>
      </trkpt>
      <trkpt lat="47.18058" lon="7.4298">
        <ele>427.2</ele>
        <time>2022-10-01T09:39:04Z</time>
      </trkpt>
      <trkpt lat="47.18058" lon="7.4298">
        <ele>427.2</ele>
        <time>2022-10-01T09:39:05Z</time>
      </trkpt>
      <trkpt lat="47.18059" lon="7.42979">
        <ele>427.2</ele>
        <time>2022-10-01T09:39:06Z</time>
      </trkpt>
      <trkpt lat="47.18059" lon="7.42979">
        <ele>427.2</ele>
        <time>2022-10-01T09:39:07Z</time>
      </trkpt>
      <trkpt lat="47.18059" lon="7.42979">
        <ele>427.2</ele>
        <time>2022-10-01T09:39:08Z</time>
      </trkpt>
      <trkpt lat="47.18059" lon="7.42979">
        <ele>427.2</ele>
        <time>2022-10-01T09:39:09Z</time>
      </trkpt>
      <trkpt lat="47.18059" lon="7.42979">
        <ele>427.2</ele>
        <time>2022-10-01T09:39:10Z</time>
      </trkpt>
      <trkpt lat="47.1806" lon="7.42978">
        <ele>427.2</ele>
        <time>2022-10-01T09:39:11Z</time>
      </trkpt>
      <trkpt lat="47.1806" lon="7.42978">
        <ele>427.2</ele>
        <time>2022-10-01T09:39:12Z</time>
      </trkpt>
      <trkpt lat="47.1806" lon="7.42978">
        <ele>427.2</ele>
        <time>2022-10-01T09:39:13Z</time>
      </trkpt>
      <trkpt lat="47.1806" lon="7.42978">
        <ele>427.2</ele>
        <time>2022-10-01T09:41:23Z</time>
      </trkpt>
      <trkpt lat="47.1806" lon="7.42977">
        <ele>427.2</ele>
        <time>2022-10-01T09:41:24Z</time>
      </trkpt>
      <trkpt lat="47.1806" lon="7.42977">
        <ele>427.2</ele>
        <time>2022-10-01T09:41:25Z</time>
      </trkpt>
      <trkpt lat="47.18061" lon="7.42977">
        <ele>427.2</ele>
        <time>2022-10-01T09:41:26Z</time>
      </trkpt>
      <trkpt lat="47.18061" lon="7.42977">
        <ele>427.2</ele>
        <time>2022-10-01T09:41:27Z</time>
      </trkpt>
      <trkpt lat="47.18061" lon="7.42976">
        <ele>427.2</ele>
        <time>2022-10-01T09:41:28Z</time>
      </trkpt>
      <trkpt lat="47.18061" lon="7.42976">
        <ele>427.2</ele>
        <time>2022-10-01T09:41:29Z</time>
      </trkpt>
      <trkpt lat="47.18061" lon="7.42976">
        <ele>427.2</ele>
        <time>2022-10-01T09:41:30Z</time>
      </trkpt>
      <trkpt lat="47.18062" lon="7.42976">
        <ele>427.2</ele>
        <time>2022-10-01T09:41:31Z</time>
      </trkpt>
      <trkpt lat="47.18062" lon="7.42976">
        <ele>427.2</ele>
        <time>2022-10-01T09:41:32Z</time>
      </trkpt>
      <trkpt lat="47.18063" lon="7.42974">
        <ele>427.3</ele>
        <time>2022-10-01T09:41:33Z</time>
      </trkpt>
      <trkpt lat="47.18064" lon="7.42972">
        <ele>427.3</ele>
        <time>2022-10-01T09:41:34Z</time>
      </trkpt>
      <trkpt lat="47.18067" lon="7.42969">
        <ele>427.3</ele>
        <time>2022-10-01T09:41:35Z</time>
      </trkpt>
      <trkpt lat="47.18068" lon="7.42968">
        <ele>427.3</ele>
        <time>2022-10-01T09:41:36Z</time>
      </trkpt>
      <trkpt lat="47.1807" lon="7.42963">
        <ele>427.4</ele>
        <time>2022-10-01T09:41:37Z</time>
      </trkpt>
      <trkpt lat="47.1807" lon="7.42962">
        <ele>427.4</ele>
        <time>2022-10-01T09:41:38Z</time>
      </trkpt>
      <trkpt lat="47.18071" lon="7.42958">
        <ele>427.4</ele>
        <time>2022-10-01T09:41:39Z</time>
      </trkpt>
      <trkpt lat="47.1807" lon="7.42953">
        <ele>427.4</ele>
        <time>2022-10-01T09:41:40Z</time>
      </trkpt>
      <trkpt lat="47.1807" lon="7.42948">
        <ele>427.4</ele>
        <time>2022-10-01T09:41:41Z</time>
      </trkpt>
      <trkpt lat="47.1807" lon="7.42943">
        <ele>427.5</ele>
        <time>2022-10-01T09:41:42Z</time>
      </trkpt>
      <trkpt lat="47.18069" lon="7.42939">
        <ele>427.5</ele>
        <time>2022-10-01T09:41:43Z</time>
      </trkpt>
      <trkpt lat="47.18069" lon="7.42934">
        <ele>427.5</ele>
        <time>2022-10-01T09:41:44Z</time>
      </trkpt>
      <trkpt lat="47.18069" lon="7.42928">
        <ele>427.5</ele>
        <time>2022-10-01T09:41:45Z</time>
      </trkpt>
      <trkpt lat="47.18068" lon="7.42923">
        <ele>427.5</ele>
        <time>2022-10-01T09:41:46Z</time>
      </trkpt>
      <trkpt lat="47.18068" lon="7.42918">
        <ele>427.6</ele>
        <time>2022-10-01T09:41:47Z</time>
      </trkpt>
      <trkpt lat="47.18068" lon="7.42913">
        <ele>427.6</ele>
        <time>2022-10-01T09:41:48Z</time>
      </trkpt>
      <trkpt lat="47.18068" lon="7.42908">
        <ele>427.6</ele>
        <time>2022-10-01T09:41:50Z</time>
      </trkpt>
      <trkpt lat="47.18067" lon="7.42903">
        <ele>427.6</ele>
        <time>2022-10-01T09:41:51Z</time>
      </trkpt>
      <trkpt lat="47.18066" lon="7.42899">
        <ele>427.6</ele>
        <time>2022-10-01T09:41:52Z</time>
      </trkpt>
      <trkpt lat="47.18066" lon="7.42894">
        <ele>427.7</ele>
        <time>2022-10-01T09:41:53Z</time>
      </trkpt>
      <trkpt lat="47.18066" lon="7.4289">
        <ele>427.7</ele>
        <time>2022-10-01T09:41:54Z</time>
      </trkpt>
      <trkpt lat="47.18064" lon="7.42881">
        <ele>427.8</ele>
        <time>2022-10-01T09:41:55Z</time>
      </trkpt>
      <trkpt lat="47.18064" lon="7.42876">
        <ele>427.9</ele>
        <time>2022-10-01T09:41:56Z</time>
      </trkpt>
      <trkpt lat="47.18064" lon="7.42874">
        <ele>427.9</ele>
        <time>2022-10-01T09:41:57Z</time>
      </trkpt>
      <trkpt lat="47.18064" lon="7.4287">
        <ele>428</ele>
        <time>2022-10-01T09:41:58Z</time>
      </trkpt>
      <trkpt lat="47.18065" lon="7.42869">
        <ele>428</ele>
        <time>2022-10-01T09:41:59Z</time>
      </trkpt>
      <trkpt lat="47.18068" lon="7.42867">
        <ele>428.1</ele>
        <time>2022-10-01T09:42:00Z</time>
      </trkpt>
      <trkpt lat="47.18069" lon="7.42867">
        <ele>428.1</ele>
        <time>2022-10-01T09:42:01Z</time>
      </trkpt>
      <trkpt lat="47.18073" lon="7.42867">
        <ele>428.2</ele>
        <time>2022-10-01T09:42:02Z</time>
      </trkpt>
      <trkpt lat="47.18074" lon="7.42867">
        <ele>428.2</ele>
        <time>2022-10-01T09:42:03Z</time>
      </trkpt>
      <trkpt lat="47.18075" lon="7.42866">
        <ele>428.2</ele>
        <time>2022-10-01T09:42:04Z</time>
      </trkpt>
      <trkpt lat="47.18077" lon="7.42866">
        <ele>428.2</ele>
        <time>2022-10-01T09:42:05Z</time>
      </trkpt>
      <trkpt lat="47.18077" lon="7.42866">
        <ele>428.2</ele>
        <time>2022-10-01T09:42:06Z</time>
      </trkpt>
      <trkpt lat="47.1808" lon="7.42866">
        <ele>428.2</ele>
        <time>2022-10-01T09:42:07Z</time>
      </trkpt>
      <trkpt lat="47.18081" lon="7.42867">
        <ele>428.2</ele>
        <time>2022-10-01T09:42:08Z</time>
      </trkpt>
      <trkpt lat="47.18083" lon="7.42868">
        <ele>428.2</ele>
        <time>2022-10-01T09:42:09Z</time>
      </trkpt>
      <trkpt lat="47.18087" lon="7.42868">
        <ele>428.2</ele>
        <time>2022-10-01T09:42:10Z</time>
      </trkpt>
      <trkpt lat="47.18088" lon="7.42868">
        <ele>428.2</ele>
        <time>2022-10-01T09:42:11Z</time>
      </trkpt>
      <trkpt lat="47.18091" lon="7.42867">
        <ele>428.2</ele>
        <time>2022-10-01T09:42:12Z</time>
      </trkpt>
      <trkpt lat="47.18092" lon="7.42867">
        <ele>428.2</ele>
        <time>2022-10-01T09:42:13Z</time>
      </trkpt>
      <trkpt lat="47.18095" lon="7.42864">
        <ele>428.1</ele>
        <time>2022-10-01T09:42:14Z</time>
      </trkpt>
      <trkpt lat="47.18096" lon="7.42864">
        <ele>428.1</ele>
        <time>2022-10-01T09:42:15Z</time>
      </trkpt>
      <trkpt lat="47.18099" lon="7.4286">
        <ele>428</ele>
        <time>2022-10-01T09:42:16Z</time>
      </trkpt>
      <trkpt lat="47.18102" lon="7.42857">
        <ele>427.9</ele>
        <time>2022-10-01T09:42:17Z</time>
      </trkpt>
      <trkpt lat="47.18105" lon="7.42855">
        <ele>427.8</ele>
        <time>2022-10-01T09:42:18Z</time>
      </trkpt>
      <trkpt lat="47.18109" lon="7.42852">
        <ele>427.8</ele>
        <time>2022-10-01T09:42:19Z</time>
      </trkpt>
      <trkpt lat="47.18111" lon="7.42851">
        <ele>427.8</ele>
        <time>2022-10-01T09:42:20Z</time>
      </trkpt>
      <trkpt lat="47.18114" lon="7.42849">
        <ele>427.7</ele>
        <time>2022-10-01T09:42:21Z</time>
      </trkpt>
      <trkpt lat="47.18116" lon="7.42848">
        <ele>427.7</ele>
        <time>2022-10-01T09:42:22Z</time>
      </trkpt>
      <trkpt lat="47.18116" lon="7.42847">
        <ele>427.7</ele>
        <time>2022-10-01T09:42:23Z</time>
      </trkpt>
      <trkpt lat="47.18117" lon="7.42847">
        <ele>427.7</ele>
        <time>2022-10-01T09:42:24Z</time>
      </trkpt>
      <trkpt lat="47.18118" lon="7.42846">
        <ele>427.7</ele>
        <time>2022-10-01T09:42:25Z</time>
      </trkpt>
      <trkpt lat="47.18118" lon="7.42846">
        <ele>427.7</ele>
        <time>2022-10-01T09:42:26Z</time>
      </trkpt>
      <trkpt lat="47.18119" lon="7.42845">
        <ele>427.7</ele>
        <time>2022-10-01T09:42:27Z</time>
      </trkpt>
      <trkpt lat="47.1812" lon="7.42845">
        <ele>427.7</ele>
        <time>2022-10-01T09:42:28Z</time>
      </trkpt>
      <trkpt lat="47.1812" lon="7.42844">
        <ele>427.7</ele>
        <time>2022-10-01T09:42:29Z</time>
      </trkpt>
      <trkpt lat="47.18121" lon="7.42844">
        <ele>427.7</ele>
        <time>2022-10-01T09:42:30Z</time>
      </trkpt>
      <trkpt lat="47.18122" lon="7.42843">
        <ele>427.7</ele>
        <time>2022-10-01T09:42:31Z</time>
      </trkpt>
      <trkpt lat="47.18123" lon="7.42843">
        <ele>427.7</ele>
        <time>2022-10-01T09:42:32Z</time>
      </trkpt>
      <trkpt lat="47.18123" lon="7.42842">
        <ele>427.7</ele>
        <time>2022-10-01T09:42:47Z</time>
      </trkpt>
      <trkpt lat="47.18124" lon="7.42842">
        <ele>427.7</ele>
        <time>2022-10-01T09:42:48Z</time>
      </trkpt>
      <trkpt lat="47.18125" lon="7.42841">
        <ele>427.7</ele>
        <time>2022-10-01T09:42:49Z</time>
      </trkpt>
      <trkpt lat="47.18128" lon="7.42838">
        <ele>427.7</ele>
        <time>2022-10-01T09:42:50Z</time>
      </trkpt>
      <trkpt lat="47.18129" lon="7.42838">
        <ele>427.7</ele>
        <time>2022-10-01T09:42:51Z</time>
      </trkpt>
      <trkpt lat="47.18132" lon="7.42835">
        <ele>427.7</ele>
        <time>2022-10-01T09:42:52Z</time>
      </trkpt>
      <trkpt lat="47.18133" lon="7.42834">
        <ele>427.7</ele>
        <time>2022-10-01T09:42:53Z</time>
      </trkpt>
      <trkpt lat="47.18136" lon="7.42832">
        <ele>427.7</ele>
        <time>2022-10-01T09:42:54Z</time>
      </trkpt>
      <trkpt lat="47.18139" lon="7.4283">
        <ele>427.7</ele>
        <time>2022-10-01T09:42:55Z</time>
      </trkpt>
      <trkpt lat="47.18142" lon="7.42828">
        <ele>427.7</ele>
        <time>2022-10-01T09:42:56Z</time>
      </trkpt>
      <trkpt lat="47.18144" lon="7.42825">
        <ele>427.7</ele>
        <time>2022-10-01T09:42:57Z</time>
      </trkpt>
      <trkpt lat="47.18147" lon="7.42823">
        <ele>427.7</ele>
        <time>2022-10-01T09:42:58Z</time>
      </trkpt>
      <trkpt lat="47.1815" lon="7.42821">
        <ele>427.7</ele>
        <time>2022-10-01T09:42:59Z</time>
      </trkpt>
      <trkpt lat="47.18153" lon="7.42818">
        <ele>427.7</ele>
        <time>2022-10-01T09:43:00Z</time>
      </trkpt>
      <trkpt lat="47.18156" lon="7.42816">
        <ele>427.7</ele>
        <time>2022-10-01T09:43:01Z</time>
      </trkpt>
      <trkpt lat="47.18159" lon="7.42815">
        <ele>427.7</ele>
        <time>2022-10-01T09:43:02Z</time>
      </trkpt>
      <trkpt lat="47.18163" lon="7.42813">
        <ele>427.7</ele>
        <time>2022-10-01T09:43:03Z</time>
      </trkpt>
      <trkpt lat="47.18166" lon="7.42811">
        <ele>427.7</ele>
        <time>2022-10-01T09:43:04Z</time>
      </trkpt>
      <trkpt lat="47.18169" lon="7.42808">
        <ele>427.8</ele>
        <time>2022-10-01T09:43:05Z</time>
      </trkpt>
      <trkpt lat="47.18172" lon="7.42806">
        <ele>427.8</ele>
        <time>2022-10-01T09:43:06Z</time>
      </trkpt>
      <trkpt lat="47.18175" lon="7.42804">
        <ele>427.8</ele>
        <time>2022-10-01T09:43:07Z</time>
      </trkpt>
      <trkpt lat="47.18178" lon="7.42802">
        <ele>427.8</ele>
        <time>2022-10-01T09:43:08Z</time>
      </trkpt>
      <trkpt lat="47.18181" lon="7.42799">
        <ele>427.8</ele>
        <time>2022-10-01T09:43:09Z</time>
      </trkpt>
      <trkpt lat="47.18184" lon="7.42797">
        <ele>427.8</ele>
        <time>2022-10-01T09:43:10Z</time>
      </trkpt>
      <trkpt lat="47.18187" lon="7.42795">
        <ele>427.8</ele>
        <time>2022-10-01T09:43:11Z</time>
      </trkpt>
      <trkpt lat="47.1819" lon="7.42792">
        <ele>427.8</ele>
        <time>2022-10-01T09:43:12Z</time>
      </trkpt>
      <trkpt lat="47.18193" lon="7.4279">
        <ele>427.9</ele>
        <time>2022-10-01T09:43:13Z</time>
      </trkpt>
      <trkpt lat="47.18196" lon="7.42788">
        <ele>427.9</ele>
        <time>2022-10-01T09:43:14Z</time>
      </trkpt>
      <trkpt lat="47.18199" lon="7.42785">
        <ele>427.9</ele>
        <time>2022-10-01T09:43:15Z</time>
      </trkpt>
      <trkpt lat="47.18203" lon="7.42783">
        <ele>427.9</ele>
        <time>2022-10-01T09:43:16Z</time>
      </trkpt>
      <trkpt lat="47.18206" lon="7.4278">
        <ele>427.9</ele>
        <time>2022-10-01T09:43:17Z</time>
      </trkpt>
      <trkpt lat="47.18209" lon="7.42778">
        <ele>427.9</ele>
        <time>2022-10-01T09:43:18Z</time>
      </trkpt>
      <trkpt lat="47.18212" lon="7.42775">
        <ele>427.9</ele>
        <time>2022-10-01T09:43:19Z</time>
      </trkpt>
      <trkpt lat="47.18215" lon="7.42773">
        <ele>427.8</ele>
        <time>2022-10-01T09:43:20Z</time>
      </trkpt>
      <trkpt lat="47.18218" lon="7.4277">
        <ele>427.8</ele>
        <time>2022-10-01T09:43:21Z</time>
      </trkpt>
      <trkpt lat="47.18222" lon="7.42768">
        <ele>427.8</ele>
        <time>2022-10-01T09:43:22Z</time>
      </trkpt>
      <trkpt lat="47.18226" lon="7.42765">
        <ele>427.8</ele>
        <time>2022-10-01T09:43:23Z</time>
      </trkpt>
      <trkpt lat="47.1823" lon="7.42763">
        <ele>427.8</ele>
        <time>2022-10-01T09:43:24Z</time>
      </trkpt>
      <trkpt lat="47.18234" lon="7.4276">
        <ele>427.8</ele>
        <time>2022-10-01T09:43:25Z</time>
      </trkpt>
      <trkpt lat="47.18238" lon="7.42757">
        <ele>427.8</ele>
        <time>2022-10-01T09:43:26Z</time>
      </trkpt>
      <trkpt lat="47.18242" lon="7.42754">
        <ele>427.8</ele>
        <time>2022-10-01T09:43:27Z</time>
      </trkpt>
      <trkpt lat="47.18246" lon="7.42751">
        <ele>427.8</ele>
        <time>2022-10-01T09:43:28Z</time>
      </trkpt>
      <trkpt lat="47.1825" lon="7.42748">
        <ele>427.8</ele>
        <time>2022-10-01T09:43:29Z</time>
      </trkpt>
      <trkpt lat="47.18254" lon="7.42745">
        <ele>427.8</ele>
        <time>2022-10-01T09:43:30Z</time>
      </trkpt>
      <trkpt lat="47.18258" lon="7.42743">
        <ele>427.8</ele>
        <time>2022-10-01T09:43:31Z</time>
      </trkpt>
      <trkpt lat="47.18261" lon="7.4274">
        <ele>427.8</ele>
        <time>2022-10-01T09:43:32Z</time>
      </trkpt>
      <trkpt lat="47.18265" lon="7.42736">
        <ele>427.8</ele>
        <time>2022-10-01T09:43:33Z</time>
      </trkpt>
      <trkpt lat="47.18269" lon="7.42734">
        <ele>427.9</ele>
        <time>2022-10-01T09:43:34Z</time>
      </trkpt>
      <trkpt lat="47.18274" lon="7.42731">
        <ele>427.9</ele>
        <time>2022-10-01T09:43:35Z</time>
      </trkpt>
      <trkpt lat="47.18277" lon="7.42728">
        <ele>428</ele>
        <time>2022-10-01T09:43:36Z</time>
      </trkpt>
      <trkpt lat="47.18281" lon="7.42726">
        <ele>428</ele>
        <time>2022-10-01T09:43:37Z</time>
      </trkpt>
      <trkpt lat="47.18284" lon="7.42725">
        <ele>428.1</ele>
        <time>2022-10-01T09:43:38Z</time>
      </trkpt>
      <trkpt lat="47.18285" lon="7.42725">
        <ele>428.1</ele>
        <time>2022-10-01T09:43:39Z</time>
      </trkpt>
      <trkpt lat="47.18287" lon="7.42729">
        <ele>428.1</ele>
        <time>2022-10-01T09:43:40Z</time>
      </trkpt>
      <trkpt lat="47.18287" lon="7.42731">
        <ele>428</ele>
        <time>2022-10-01T09:43:41Z</time>
      </trkpt>
      <trkpt lat="47.18287" lon="7.42735">
        <ele>428</ele>
        <time>2022-10-01T09:43:42Z</time>
      </trkpt>
      <trkpt lat="47.18288" lon="7.4274">
        <ele>428</ele>
        <time>2022-10-01T09:43:43Z</time>
      </trkpt>
      <trkpt lat="47.18289" lon="7.42745">
        <ele>427.9</ele>
        <time>2022-10-01T09:43:44Z</time>
      </trkpt>
      <trkpt lat="47.1829" lon="7.4275">
        <ele>427.9</ele>
        <time>2022-10-01T09:43:45Z</time>
      </trkpt>
      <trkpt lat="47.18291" lon="7.42755">
        <ele>427.9</ele>
        <time>2022-10-01T09:43:46Z</time>
      </trkpt>
      <trkpt lat="47.18292" lon="7.42761">
        <ele>427.8</ele>
        <time>2022-10-01T09:43:47Z</time>
      </trkpt>
      <trkpt lat="47.18294" lon="7.42766">
        <ele>427.8</ele>
        <time>2022-10-01T09:43:48Z</time>
      </trkpt>
      <trkpt lat="47.18295" lon="7.42772">
        <ele>427.8</ele>
        <time>2022-10-01T09:43:49Z</time>
      </trkpt>
      <trkpt lat="47.18297" lon="7.42777">
        <ele>427.8</ele>
        <time>2022-10-01T09:43:50Z</time>
      </trkpt>
      <trkpt lat="47.18299" lon="7.42784">
        <ele>427.8</ele>
        <time>2022-10-01T09:43:51Z</time>
      </trkpt>
      <trkpt lat="47.183" lon="7.42789">
        <ele>427.9</ele>
        <time>2022-10-01T09:43:52Z</time>
      </trkpt>
      <trkpt lat="47.18301" lon="7.42796">
        <ele>427.9</ele>
        <time>2022-10-01T09:43:53Z</time>
      </trkpt>
      <trkpt lat="47.18303" lon="7.42802">
        <ele>427.9</ele>
        <time>2022-10-01T09:43:54Z</time>
      </trkpt>
      <trkpt lat="47.18304" lon="7.42806">
        <ele>427.9</ele>
        <time>2022-10-01T09:43:56Z</time>
      </trkpt>
      <trkpt lat="47.18305" lon="7.42813">
        <ele>427.9</ele>
        <time>2022-10-01T09:43:57Z</time>
      </trkpt>
      <trkpt lat="47.18307" lon="7.42819">
        <ele>427.9</ele>
        <time>2022-10-01T09:43:58Z</time>
      </trkpt>
      <trkpt lat="47.18308" lon="7.42825">
        <ele>427.9</ele>
        <time>2022-10-01T09:43:59Z</time>
      </trkpt>
      <trkpt lat="47.1831" lon="7.42832">
        <ele>427.9</ele>
        <time>2022-10-01T09:44:00Z</time>
      </trkpt>
      <trkpt lat="47.18313" lon="7.42845">
        <ele>428</ele>
        <time>2022-10-01T09:44:01Z</time>
      </trkpt>
      <trkpt lat="47.18315" lon="7.42851">
        <ele>428</ele>
        <time>2022-10-01T09:44:02Z</time>
      </trkpt>
      <trkpt lat="47.18316" lon="7.42857">
        <ele>428</ele>
        <time>2022-10-01T09:44:04Z</time>
      </trkpt>
      <trkpt lat="47.1832" lon="7.42871">
        <ele>428</ele>
        <time>2022-10-01T09:44:05Z</time>
      </trkpt>
      <trkpt lat="47.18321" lon="7.42879">
        <ele>428</ele>
        <time>2022-10-01T09:44:06Z</time>
      </trkpt>
      <trkpt lat="47.18323" lon="7.42885">
        <ele>428</ele>
        <time>2022-10-01T09:44:07Z</time>
      </trkpt>
      <trkpt lat="47.18325" lon="7.42892">
        <ele>428</ele>
        <time>2022-10-01T09:44:08Z</time>
      </trkpt>
      <trkpt lat="47.18326" lon="7.42899">
        <ele>428</ele>
        <time>2022-10-01T09:44:09Z</time>
      </trkpt>
      <trkpt lat="47.18328" lon="7.42906">
        <ele>428</ele>
        <time>2022-10-01T09:44:10Z</time>
      </trkpt>
      <trkpt lat="47.1833" lon="7.42913">
        <ele>428</ele>
        <time>2022-10-01T09:44:11Z</time>
      </trkpt>
      <trkpt lat="47.18332" lon="7.4292">
        <ele>428.1</ele>
        <time>2022-10-01T09:44:12Z</time>
      </trkpt>
      <trkpt lat="47.18333" lon="7.42927">
        <ele>428.1</ele>
        <time>2022-10-01T09:44:13Z</time>
      </trkpt>
      <trkpt lat="47.18335" lon="7.42934">
        <ele>428.2</ele>
        <time>2022-10-01T09:44:14Z</time>
      </trkpt>
      <trkpt lat="47.18337" lon="7.42941">
        <ele>428.2</ele>
        <time>2022-10-01T09:44:15Z</time>
      </trkpt>
      <trkpt lat="47.18339" lon="7.42949">
        <ele>428.2</ele>
        <time>2022-10-01T09:44:16Z</time>
      </trkpt>
      <trkpt lat="47.18341" lon="7.42956">
        <ele>428.2</ele>
        <time>2022-10-01T09:44:17Z</time>
      </trkpt>
      <trkpt lat="47.18343" lon="7.42964">
        <ele>428.2</ele>
        <time>2022-10-01T09:44:18Z</time>
      </trkpt>
      <trkpt lat="47.18344" lon="7.4297">
        <ele>428.2</ele>
        <time>2022-10-01T09:44:19Z</time>
      </trkpt>
      <trkpt lat="47.18347" lon="7.42977">
        <ele>428.2</ele>
        <time>2022-10-01T09:44:20Z</time>
      </trkpt>
      <trkpt lat="47.18349" lon="7.42984">
        <ele>428.2</ele>
        <time>2022-10-01T09:44:21Z</time>
      </trkpt>
      <trkpt lat="47.18352" lon="7.4299">
        <ele>428.2</ele>
        <time>2022-10-01T09:44:22Z</time>
      </trkpt>
      <trkpt lat="47.18354" lon="7.42996">
        <ele>428.2</ele>
        <time>2022-10-01T09:44:23Z</time>
      </trkpt>
      <trkpt lat="47.18357" lon="7.43001">
        <ele>428.2</ele>
        <time>2022-10-01T09:44:24Z</time>
      </trkpt>
      <trkpt lat="47.18361" lon="7.43006">
        <ele>428.2</ele>
        <time>2022-10-01T09:44:25Z</time>
      </trkpt>
      <trkpt lat="47.18364" lon="7.4301">
        <ele>428.2</ele>
        <time>2022-10-01T09:44:26Z</time>
      </trkpt>
      <trkpt lat="47.18368" lon="7.43014">
        <ele>428.2</ele>
        <time>2022-10-01T09:44:27Z</time>
      </trkpt>
      <trkpt lat="47.18372" lon="7.43018">
        <ele>428.2</ele>
        <time>2022-10-01T09:44:28Z</time>
      </trkpt>
      <trkpt lat="47.18376" lon="7.43021">
        <ele>428.2</ele>
        <time>2022-10-01T09:44:29Z</time>
      </trkpt>
      <trkpt lat="47.18381" lon="7.43024">
        <ele>428.2</ele>
        <time>2022-10-01T09:44:30Z</time>
      </trkpt>
      <trkpt lat="47.18386" lon="7.43027">
        <ele>428.2</ele>
        <time>2022-10-01T09:44:31Z</time>
      </trkpt>
      <trkpt lat="47.1839" lon="7.4303">
        <ele>428.2</ele>
        <time>2022-10-01T09:44:32Z</time>
      </trkpt>
      <trkpt lat="47.18394" lon="7.43033">
        <ele>428.2</ele>
        <time>2022-10-01T09:44:33Z</time>
      </trkpt>
      <trkpt lat="47.18398" lon="7.43034">
        <ele>428.2</ele>
        <time>2022-10-01T09:44:34Z</time>
      </trkpt>
      <trkpt lat="47.18401" lon="7.43037">
        <ele>428.2</ele>
        <time>2022-10-01T09:44:35Z</time>
      </trkpt>
      <trkpt lat="47.18405" lon="7.4304">
        <ele>428.1</ele>
        <time>2022-10-01T09:44:36Z</time>
      </trkpt>
      <trkpt lat="47.18408" lon="7.43042">
        <ele>428.1</ele>
        <time>2022-10-01T09:44:37Z</time>
      </trkpt>
      <trkpt lat="47.18411" lon="7.43047">
        <ele>428.1</ele>
        <time>2022-10-01T09:44:38Z</time>
      </trkpt>
      <trkpt lat="47.18414" lon="7.43052">
        <ele>428.1</ele>
        <time>2022-10-01T09:44:39Z</time>
      </trkpt>
      <trkpt lat="47.18418" lon="7.43053">
        <ele>428.1</ele>
        <time>2022-10-01T09:44:40Z</time>
      </trkpt>
      <trkpt lat="47.1842" lon="7.43058">
        <ele>428.1</ele>
        <time>2022-10-01T09:44:41Z</time>
      </trkpt>
      <trkpt lat="47.18424" lon="7.43062">
        <ele>428.1</ele>
        <time>2022-10-01T09:44:42Z</time>
      </trkpt>
      <trkpt lat="47.18428" lon="7.43067">
        <ele>428</ele>
        <time>2022-10-01T09:44:43Z</time>
      </trkpt>
      <trkpt lat="47.18431" lon="7.43072">
        <ele>428</ele>
        <time>2022-10-01T09:44:44Z</time>
      </trkpt>
      <trkpt lat="47.18436" lon="7.43079">
        <ele>428</ele>
        <time>2022-10-01T09:44:45Z</time>
      </trkpt>
      <trkpt lat="47.18439" lon="7.43084">
        <ele>427.9</ele>
        <time>2022-10-01T09:44:46Z</time>
      </trkpt>
      <trkpt lat="47.18443" lon="7.43089">
        <ele>427.9</ele>
        <time>2022-10-01T09:44:47Z</time>
      </trkpt>
      <trkpt lat="47.18447" lon="7.43096">
        <ele>427.9</ele>
        <time>2022-10-01T09:44:48Z</time>
      </trkpt>
      <trkpt lat="47.1845" lon="7.43103">
        <ele>427.8</ele>
        <time>2022-10-01T09:44:49Z</time>
      </trkpt>
      <trkpt lat="47.18453" lon="7.43111">
        <ele>427.8</ele>
        <time>2022-10-01T09:44:50Z</time>
      </trkpt>
      <trkpt lat="47.18456" lon="7.43118">
        <ele>427.8</ele>
        <time>2022-10-01T09:44:51Z</time>
      </trkpt>
      <trkpt lat="47.1846" lon="7.43125">
        <ele>427.7</ele>
        <time>2022-10-01T09:44:52Z</time>
      </trkpt>
      <trkpt lat="47.18463" lon="7.43132">
        <ele>427.7</ele>
        <time>2022-10-01T09:44:53Z</time>
      </trkpt>
      <trkpt lat="47.18466" lon="7.43139">
        <ele>427.7</ele>
        <time>2022-10-01T09:44:54Z</time>
      </trkpt>
      <trkpt lat="47.1847" lon="7.43146">
        <ele>427.7</ele>
        <time>2022-10-01T09:44:55Z</time>
      </trkpt>
      <trkpt lat="47.18473" lon="7.43153">
        <ele>427.7</ele>
        <time>2022-10-01T09:44:56Z</time>
      </trkpt>
      <trkpt lat="47.18476" lon="7.43159">
        <ele>427.7</ele>
        <time>2022-10-01T09:44:57Z</time>
      </trkpt>
      <trkpt lat="47.18479" lon="7.43166">
        <ele>427.7</ele>
        <time>2022-10-01T09:44:58Z</time>
      </trkpt>
      <trkpt lat="47.18482" lon="7.43173">
        <ele>427.7</ele>
        <time>2022-10-01T09:44:59Z</time>
      </trkpt>
      <trkpt lat="47.18486" lon="7.4318">
        <ele>427.7</ele>
        <time>2022-10-01T09:45:00Z</time>
      </trkpt>
      <trkpt lat="47.18489" lon="7.43187">
        <ele>427.7</ele>
        <time>2022-10-01T09:45:01Z</time>
      </trkpt>
      <trkpt lat="47.18493" lon="7.43193">
        <ele>427.7</ele>
        <time>2022-10-01T09:45:02Z</time>
      </trkpt>
      <trkpt lat="47.18496" lon="7.43201">
        <ele>427.7</ele>
        <time>2022-10-01T09:45:03Z</time>
      </trkpt>
      <trkpt lat="47.18499" lon="7.43209">
        <ele>427.7</ele>
        <time>2022-10-01T09:45:04Z</time>
      </trkpt>
      <trkpt lat="47.18502" lon="7.43216">
        <ele>427.7</ele>
        <time>2022-10-01T09:45:05Z</time>
      </trkpt>
      <trkpt lat="47.18505" lon="7.43223">
        <ele>427.7</ele>
        <time>2022-10-01T09:45:06Z</time>
      </trkpt>
      <trkpt lat="47.18509" lon="7.43229">
        <ele>427.7</ele>
        <time>2022-10-01T09:45:07Z</time>
      </trkpt>
      <trkpt lat="47.18512" lon="7.43237">
        <ele>427.8</ele>
        <time>2022-10-01T09:45:08Z</time>
      </trkpt>
      <trkpt lat="47.18515" lon="7.43244">
        <ele>427.8</ele>
        <time>2022-10-01T09:45:09Z</time>
      </trkpt>
      <trkpt lat="47.18518" lon="7.43251">
        <ele>427.8</ele>
        <time>2022-10-01T09:45:10Z</time>
      </trkpt>
      <trkpt lat="47.18521" lon="7.43257">
        <ele>427.9</ele>
        <time>2022-10-01T09:45:11Z</time>
      </trkpt>
      <trkpt lat="47.18525" lon="7.43264">
        <ele>427.9</ele>
        <time>2022-10-01T09:45:12Z</time>
      </trkpt>
      <trkpt lat="47.18528" lon="7.43272">
        <ele>428</ele>
        <time>2022-10-01T09:45:13Z</time>
      </trkpt>
      <trkpt lat="47.18531" lon="7.43279">
        <ele>428.1</ele>
        <time>2022-10-01T09:45:14Z</time>
      </trkpt>
      <trkpt lat="47.18534" lon="7.43286">
        <ele>428.1</ele>
        <time>2022-10-01T09:45:15Z</time>
      </trkpt>
      <trkpt lat="47.18537" lon="7.43292">
        <ele>428.2</ele>
        <time>2022-10-01T09:45:16Z</time>
      </trkpt>
      <trkpt lat="47.18541" lon="7.43298">
        <ele>428.3</ele>
        <time>2022-10-01T09:45:17Z</time>
      </trkpt>
      <trkpt lat="47.18544" lon="7.43304">
        <ele>428.4</ele>
        <time>2022-10-01T09:45:18Z</time>
      </trkpt>
      <trkpt lat="47.18547" lon="7.43308">
        <ele>428.4</ele>
        <time>2022-10-01T09:45:19Z</time>
      </trkpt>
      <trkpt lat="47.18551" lon="7.43311">
        <ele>428.4</ele>
        <time>2022-10-01T09:45:20Z</time>
      </trkpt>
      <trkpt lat="47.18554" lon="7.43313">
        <ele>428.5</ele>
        <time>2022-10-01T09:45:21Z</time>
      </trkpt>
      <trkpt lat="47.18558" lon="7.43314">
        <ele>428.5</ele>
        <time>2022-10-01T09:45:22Z</time>
      </trkpt>
      <trkpt lat="47.18562" lon="7.43315">
        <ele>428.5</ele>
        <time>2022-10-01T09:45:23Z</time>
      </trkpt>
      <trkpt lat="47.18565" lon="7.43313">
        <ele>428.6</ele>
        <time>2022-10-01T09:45:24Z</time>
      </trkpt>
      <trkpt lat="47.18569" lon="7.43312">
        <ele>428.6</ele>
        <time>2022-10-01T09:45:25Z</time>
      </trkpt>
      <trkpt lat="47.18572" lon="7.4331">
        <ele>428.7</ele>
        <time>2022-10-01T09:45:26Z</time>
      </trkpt>
      <trkpt lat="47.18575" lon="7.43308">
        <ele>428.7</ele>
        <time>2022-10-01T09:45:27Z</time>
      </trkpt>
      <trkpt lat="47.18578" lon="7.43305">
        <ele>428.7</ele>
        <time>2022-10-01T09:45:28Z</time>
      </trkpt>
      <trkpt lat="47.18582" lon="7.43302">
        <ele>428.8</ele>
        <time>2022-10-01T09:45:29Z</time>
      </trkpt>
      <trkpt lat="47.18585" lon="7.43298">
        <ele>428.8</ele>
        <time>2022-10-01T09:45:30Z</time>
      </trkpt>
      <trkpt lat="47.18588" lon="7.43295">
        <ele>428.9</ele>
        <time>2022-10-01T09:45:31Z</time>
      </trkpt>
      <trkpt lat="47.1859" lon="7.43292">
        <ele>428.9</ele>
        <time>2022-10-01T09:45:32Z</time>
      </trkpt>
      <trkpt lat="47.18593" lon="7.43288">
        <ele>428.9</ele>
        <time>2022-10-01T09:45:33Z</time>
      </trkpt>
      <trkpt lat="47.18595" lon="7.43285">
        <ele>428.9</ele>
        <time>2022-10-01T09:45:34Z</time>
      </trkpt>
      <trkpt lat="47.18597" lon="7.43282">
        <ele>429</ele>
        <time>2022-10-01T09:45:35Z</time>
      </trkpt>
      <trkpt lat="47.18601" lon="7.43278">
        <ele>429</ele>
        <time>2022-10-01T09:45:36Z</time>
      </trkpt>
      <trkpt lat="47.18603" lon="7.43274">
        <ele>429</ele>
        <time>2022-10-01T09:45:37Z</time>
      </trkpt>
      <trkpt lat="47.18606" lon="7.4327">
        <ele>429</ele>
        <time>2022-10-01T09:45:38Z</time>
      </trkpt>
      <trkpt lat="47.18607" lon="7.43266">
        <ele>429</ele>
        <time>2022-10-01T09:45:39Z</time>
      </trkpt>
      <trkpt lat="47.18609" lon="7.43262">
        <ele>429</ele>
        <time>2022-10-01T09:45:40Z</time>
      </trkpt>
      <trkpt lat="47.18611" lon="7.43259">
        <ele>429</ele>
        <time>2022-10-01T09:45:41Z</time>
      </trkpt>
      <trkpt lat="47.18614" lon="7.43255">
        <ele>429.1</ele>
        <time>2022-10-01T09:45:42Z</time>
      </trkpt>
      <trkpt lat="47.18617" lon="7.43251">
        <ele>429.1</ele>
        <time>2022-10-01T09:45:43Z</time>
      </trkpt>
      <trkpt lat="47.18619" lon="7.43248">
        <ele>429.1</ele>
        <time>2022-10-01T09:45:44Z</time>
      </trkpt>
      <trkpt lat="47.18621" lon="7.43243">
        <ele>429.1</ele>
        <time>2022-10-01T09:45:45Z</time>
      </trkpt>
      <trkpt lat="47.18624" lon="7.4324">
        <ele>429.1</ele>
        <time>2022-10-01T09:45:46Z</time>
      </trkpt>
      <trkpt lat="47.18626" lon="7.43236">
        <ele>429.1</ele>
        <time>2022-10-01T09:45:47Z</time>
      </trkpt>
      <trkpt lat="47.18629" lon="7.43233">
        <ele>429.1</ele>
        <time>2022-10-01T09:45:48Z</time>
      </trkpt>
      <trkpt lat="47.18631" lon="7.43229">
        <ele>429.1</ele>
        <time>2022-10-01T09:45:49Z</time>
      </trkpt>
      <trkpt lat="47.18634" lon="7.43225">
        <ele>429.1</ele>
        <time>2022-10-01T09:45:50Z</time>
      </trkpt>
      <trkpt lat="47.18637" lon="7.43221">
        <ele>429.1</ele>
        <time>2022-10-01T09:45:51Z</time>
      </trkpt>
      <trkpt lat="47.18639" lon="7.43218">
        <ele>429.2</ele>
        <time>2022-10-01T09:45:52Z</time>
      </trkpt>
      <trkpt lat="47.18642" lon="7.43214">
        <ele>429.2</ele>
        <time>2022-10-01T09:45:53Z</time>
      </trkpt>
      <trkpt lat="47.18644" lon="7.4321">
        <ele>429.2</ele>
        <time>2022-10-01T09:45:54Z</time>
      </trkpt>
      <trkpt lat="47.18646" lon="7.43206">
        <ele>429.2</ele>
        <time>2022-10-01T09:45:55Z</time>
      </trkpt>
      <trkpt lat="47.18649" lon="7.43203">
        <ele>429.2</ele>
        <time>2022-10-01T09:45:56Z</time>
      </trkpt>
      <trkpt lat="47.18652" lon="7.43199">
        <ele>429.3</ele>
        <time>2022-10-01T09:45:57Z</time>
      </trkpt>
      <trkpt lat="47.18655" lon="7.43195">
        <ele>429.3</ele>
        <time>2022-10-01T09:45:58Z</time>
      </trkpt>
      <trkpt lat="47.18657" lon="7.43191">
        <ele>429.4</ele>
        <time>2022-10-01T09:45:59Z</time>
      </trkpt>
      <trkpt lat="47.1866" lon="7.43187">
        <ele>429.4</ele>
        <time>2022-10-01T09:46:00Z</time>
      </trkpt>
      <trkpt lat="47.18663" lon="7.43184">
        <ele>429.5</ele>
        <time>2022-10-01T09:46:01Z</time>
      </trkpt>
      <trkpt lat="47.18666" lon="7.43181">
        <ele>429.6</ele>
        <time>2022-10-01T09:46:02Z</time>
      </trkpt>
      <trkpt lat="47.18669" lon="7.43178">
        <ele>429.7</ele>
        <time>2022-10-01T09:46:04Z</time>
      </trkpt>
      <trkpt lat="47.18672" lon="7.43177">
        <ele>429.8</ele>
        <time>2022-10-01T09:46:05Z</time>
      </trkpt>
      <trkpt lat="47.18675" lon="7.43177">
        <ele>429.9</ele>
        <time>2022-10-01T09:46:06Z</time>
      </trkpt>
      <trkpt lat="47.18679" lon="7.43181">
        <ele>430</ele>
        <time>2022-10-01T09:46:07Z</time>
      </trkpt>
      <trkpt lat="47.1868" lon="7.43184">
        <ele>430</ele>
        <time>2022-10-01T09:46:08Z</time>
      </trkpt>
      <trkpt lat="47.1868" lon="7.43189">
        <ele>429.9</ele>
        <time>2022-10-01T09:46:09Z</time>
      </trkpt>
      <trkpt lat="47.18679" lon="7.43191">
        <ele>429.9</ele>
        <time>2022-10-01T09:46:10Z</time>
      </trkpt>
      <trkpt lat="47.18676" lon="7.43196">
        <ele>429.8</ele>
        <time>2022-10-01T09:46:11Z</time>
      </trkpt>
      <trkpt lat="47.18673" lon="7.43199">
        <ele>429.7</ele>
        <time>2022-10-01T09:46:12Z</time>
      </trkpt>
      <trkpt lat="47.1867" lon="7.43202">
        <ele>429.7</ele>
        <time>2022-10-01T09:46:13Z</time>
      </trkpt>
      <trkpt lat="47.18668" lon="7.43206">
        <ele>429.6</ele>
        <time>2022-10-01T09:46:14Z</time>
      </trkpt>
      <trkpt lat="47.18665" lon="7.4321">
        <ele>429.6</ele>
        <time>2022-10-01T09:46:16Z</time>
      </trkpt>
      <trkpt lat="47.18659" lon="7.43219">
        <ele>429.5</ele>
        <time>2022-10-01T09:46:17Z</time>
      </trkpt>
      <trkpt lat="47.18656" lon="7.43223">
        <ele>429.5</ele>
        <time>2022-10-01T09:46:18Z</time>
      </trkpt>
      <trkpt lat="47.18653" lon="7.43227">
        <ele>429.5</ele>
        <time>2022-10-01T09:46:20Z</time>
      </trkpt>
      <trkpt lat="47.1865" lon="7.43231">
        <ele>429.5</ele>
        <time>2022-10-01T09:46:21Z</time>
      </trkpt>
      <trkpt lat="47.18647" lon="7.43236">
        <ele>429.5</ele>
        <time>2022-10-01T09:46:22Z</time>
      </trkpt>
      <trkpt lat="47.18645" lon="7.43241">
        <ele>429.5</ele>
        <time>2022-10-01T09:46:23Z</time>
      </trkpt>
      <trkpt lat="47.18642" lon="7.43248">
        <ele>429.5</ele>
        <time>2022-10-01T09:46:24Z</time>
      </trkpt>
      <trkpt lat="47.18638" lon="7.4325">
        <ele>429.5</ele>
        <time>2022-10-01T09:46:25Z</time>
      </trkpt>
      <trkpt lat="47.18635" lon="7.43254">
        <ele>429.4</ele>
        <time>2022-10-01T09:46:26Z</time>
      </trkpt>
      <trkpt lat="47.18632" lon="7.43258">
        <ele>429.4</ele>
        <time>2022-10-01T09:46:27Z</time>
      </trkpt>
      <trkpt lat="47.18629" lon="7.43265">
        <ele>429.4</ele>
        <time>2022-10-01T09:46:28Z</time>
      </trkpt>
      <trkpt lat="47.18626" lon="7.4327">
        <ele>429.4</ele>
        <time>2022-10-01T09:46:29Z</time>
      </trkpt>
      <trkpt lat="47.18623" lon="7.43276">
        <ele>429.3</ele>
        <time>2022-10-01T09:46:30Z</time>
      </trkpt>
      <trkpt lat="47.1862" lon="7.43282">
        <ele>429.3</ele>
        <time>2022-10-01T09:46:31Z</time>
      </trkpt>
      <trkpt lat="47.18616" lon="7.43286">
        <ele>429.3</ele>
        <time>2022-10-01T09:46:32Z</time>
      </trkpt>
      <trkpt lat="47.18613" lon="7.4329">
        <ele>429.2</ele>
        <time>2022-10-01T09:46:33Z</time>
      </trkpt>
      <trkpt lat="47.1861" lon="7.43296">
        <ele>429.2</ele>
        <time>2022-10-01T09:46:34Z</time>
      </trkpt>
      <trkpt lat="47.18606" lon="7.43302">
        <ele>429.2</ele>
        <time>2022-10-01T09:46:35Z</time>
      </trkpt>
      <trkpt lat="47.18603" lon="7.43306">
        <ele>429.1</ele>
        <time>2022-10-01T09:46:36Z</time>
      </trkpt>
      <trkpt lat="47.186" lon="7.43311">
        <ele>429.1</ele>
        <time>2022-10-01T09:46:37Z</time>
      </trkpt>
      <trkpt lat="47.18596" lon="7.43315">
        <ele>429.1</ele>
        <time>2022-10-01T09:46:38Z</time>
      </trkpt>
      <trkpt lat="47.18591" lon="7.43319">
        <ele>429.1</ele>
        <time>2022-10-01T09:46:39Z</time>
      </trkpt>
      <trkpt lat="47.18587" lon="7.43324">
        <ele>429</ele>
        <time>2022-10-01T09:46:40Z</time>
      </trkpt>
      <trkpt lat="47.18583" lon="7.43328">
        <ele>429</ele>
        <time>2022-10-01T09:46:41Z</time>
      </trkpt>
      <trkpt lat="47.18579" lon="7.43333">
        <ele>429</ele>
        <time>2022-10-01T09:46:42Z</time>
      </trkpt>
      <trkpt lat="47.18575" lon="7.43337">
        <ele>429</ele>
        <time>2022-10-01T09:46:43Z</time>
      </trkpt>
      <trkpt lat="47.18572" lon="7.43341">
        <ele>429</ele>
        <time>2022-10-01T09:46:44Z</time>
      </trkpt>
      <trkpt lat="47.18569" lon="7.43345">
        <ele>429</ele>
        <time>2022-10-01T09:46:45Z</time>
      </trkpt>
      <trkpt lat="47.18567" lon="7.43351">
        <ele>429</ele>
        <time>2022-10-01T09:46:46Z</time>
      </trkpt>
      <trkpt lat="47.18566" lon="7.43356">
        <ele>428.9</ele>
        <time>2022-10-01T09:46:47Z</time>
      </trkpt>
      <trkpt lat="47.18568" lon="7.43368">
        <ele>428.9</ele>
        <time>2022-10-01T09:46:48Z</time>
      </trkpt>
      <trkpt lat="47.18569" lon="7.43373">
        <ele>428.9</ele>
        <time>2022-10-01T09:46:49Z</time>
      </trkpt>
      <trkpt lat="47.18571" lon="7.43378">
        <ele>428.9</ele>
        <time>2022-10-01T09:46:50Z</time>
      </trkpt>
      <trkpt lat="47.18573" lon="7.43384">
        <ele>428.9</ele>
        <time>2022-10-01T09:46:51Z</time>
      </trkpt>
      <trkpt lat="47.18575" lon="7.4339">
        <ele>428.8</ele>
        <time>2022-10-01T09:46:52Z</time>
      </trkpt>
      <trkpt lat="47.18576" lon="7.43396">
        <ele>428.8</ele>
        <time>2022-10-01T09:46:53Z</time>
      </trkpt>
      <trkpt lat="47.18578" lon="7.43402">
        <ele>428.8</ele>
        <time>2022-10-01T09:46:54Z</time>
      </trkpt>
      <trkpt lat="47.18579" lon="7.43409">
        <ele>428.8</ele>
        <time>2022-10-01T09:46:55Z</time>
      </trkpt>
      <trkpt lat="47.18582" lon="7.43415">
        <ele>428.8</ele>
        <time>2022-10-01T09:46:56Z</time>
      </trkpt>
      <trkpt lat="47.18582" lon="7.4342">
        <ele>428.8</ele>
        <time>2022-10-01T09:46:57Z</time>
      </trkpt>
      <trkpt lat="47.18583" lon="7.43427">
        <ele>428.8</ele>
        <time>2022-10-01T09:46:58Z</time>
      </trkpt>
      <trkpt lat="47.18585" lon="7.43434">
        <ele>428.8</ele>
        <time>2022-10-01T09:46:59Z</time>
      </trkpt>
      <trkpt lat="47.18587" lon="7.4344">
        <ele>428.8</ele>
        <time>2022-10-01T09:47:00Z</time>
      </trkpt>
      <trkpt lat="47.18588" lon="7.43447">
        <ele>428.8</ele>
        <time>2022-10-01T09:47:01Z</time>
      </trkpt>
      <trkpt lat="47.18589" lon="7.43453">
        <ele>428.8</ele>
        <time>2022-10-01T09:47:02Z</time>
      </trkpt>
      <trkpt lat="47.18589" lon="7.43461">
        <ele>428.8</ele>
        <time>2022-10-01T09:47:03Z</time>
      </trkpt>
      <trkpt lat="47.18591" lon="7.43467">
        <ele>428.8</ele>
        <time>2022-10-01T09:47:04Z</time>
      </trkpt>
      <trkpt lat="47.18591" lon="7.43475">
        <ele>428.8</ele>
        <time>2022-10-01T09:47:05Z</time>
      </trkpt>
      <trkpt lat="47.18592" lon="7.43481">
        <ele>428.8</ele>
        <time>2022-10-01T09:47:06Z</time>
      </trkpt>
      <trkpt lat="47.18593" lon="7.43489">
        <ele>428.8</ele>
        <time>2022-10-01T09:47:07Z</time>
      </trkpt>
      <trkpt lat="47.18594" lon="7.43496">
        <ele>428.8</ele>
        <time>2022-10-01T09:47:08Z</time>
      </trkpt>
      <trkpt lat="47.18594" lon="7.43503">
        <ele>428.8</ele>
        <time>2022-10-01T09:47:09Z</time>
      </trkpt>
      <trkpt lat="47.18594" lon="7.43511">
        <ele>428.8</ele>
        <time>2022-10-01T09:47:10Z</time>
      </trkpt>
      <trkpt lat="47.18594" lon="7.43517">
        <ele>428.8</ele>
        <time>2022-10-01T09:47:11Z</time>
      </trkpt>
      <trkpt lat="47.18595" lon="7.43524">
        <ele>428.8</ele>
        <time>2022-10-01T09:47:12Z</time>
      </trkpt>
      <trkpt lat="47.18595" lon="7.43531">
        <ele>428.8</ele>
        <time>2022-10-01T09:47:13Z</time>
      </trkpt>
      <trkpt lat="47.18595" lon="7.43539">
        <ele>428.8</ele>
        <time>2022-10-01T09:47:14Z</time>
      </trkpt>
      <trkpt lat="47.18595" lon="7.43545">
        <ele>428.8</ele>
        <time>2022-10-01T09:47:15Z</time>
      </trkpt>
      <trkpt lat="47.18596" lon="7.43552">
        <ele>428.8</ele>
        <time>2022-10-01T09:47:16Z</time>
      </trkpt>
      <trkpt lat="47.18596" lon="7.4356">
        <ele>428.8</ele>
        <time>2022-10-01T09:47:17Z</time>
      </trkpt>
      <trkpt lat="47.18596" lon="7.43568">
        <ele>428.8</ele>
        <time>2022-10-01T09:47:18Z</time>
      </trkpt>
      <trkpt lat="47.18596" lon="7.43575">
        <ele>428.8</ele>
        <time>2022-10-01T09:47:19Z</time>
      </trkpt>
      <trkpt lat="47.18596" lon="7.43583">
        <ele>428.8</ele>
        <time>2022-10-01T09:47:20Z</time>
      </trkpt>
      <trkpt lat="47.18595" lon="7.4359">
        <ele>428.8</ele>
        <time>2022-10-01T09:47:21Z</time>
      </trkpt>
      <trkpt lat="47.18596" lon="7.43597">
        <ele>428.8</ele>
        <time>2022-10-01T09:47:22Z</time>
      </trkpt>
      <trkpt lat="47.18595" lon="7.43605">
        <ele>428.8</ele>
        <time>2022-10-01T09:47:23Z</time>
      </trkpt>
      <trkpt lat="47.18595" lon="7.43612">
        <ele>428.7</ele>
        <time>2022-10-01T09:47:24Z</time>
      </trkpt>
      <trkpt lat="47.18594" lon="7.4362">
        <ele>428.7</ele>
        <time>2022-10-01T09:47:25Z</time>
      </trkpt>
      <trkpt lat="47.18595" lon="7.43627">
        <ele>428.7</ele>
        <time>2022-10-01T09:47:26Z</time>
      </trkpt>
      <trkpt lat="47.18594" lon="7.43635">
        <ele>428.7</ele>
        <time>2022-10-01T09:47:27Z</time>
      </trkpt>
      <trkpt lat="47.18594" lon="7.43641">
        <ele>428.7</ele>
        <time>2022-10-01T09:47:28Z</time>
      </trkpt>
      <trkpt lat="47.18594" lon="7.43648">
        <ele>428.6</ele>
        <time>2022-10-01T09:47:29Z</time>
      </trkpt>
      <trkpt lat="47.18594" lon="7.43656">
        <ele>428.6</ele>
        <time>2022-10-01T09:47:30Z</time>
      </trkpt>
      <trkpt lat="47.18594" lon="7.43663">
        <ele>428.6</ele>
        <time>2022-10-01T09:47:31Z</time>
      </trkpt>
      <trkpt lat="47.18595" lon="7.43671">
        <ele>428.6</ele>
        <time>2022-10-01T09:47:32Z</time>
      </trkpt>
      <trkpt lat="47.18596" lon="7.43676">
        <ele>428.6</ele>
        <time>2022-10-01T09:47:33Z</time>
      </trkpt>
      <trkpt lat="47.18596" lon="7.43683">
        <ele>428.6</ele>
        <time>2022-10-01T09:47:34Z</time>
      </trkpt>
      <trkpt lat="47.18596" lon="7.4369">
        <ele>428.6</ele>
        <time>2022-10-01T09:47:35Z</time>
      </trkpt>
      <trkpt lat="47.18595" lon="7.43696">
        <ele>428.6</ele>
        <time>2022-10-01T09:47:36Z</time>
      </trkpt>
      <trkpt lat="47.18595" lon="7.43701">
        <ele>428.6</ele>
        <time>2022-10-01T09:47:37Z</time>
      </trkpt>
      <trkpt lat="47.18593" lon="7.43708">
        <ele>428.6</ele>
        <time>2022-10-01T09:47:38Z</time>
      </trkpt>
      <trkpt lat="47.18592" lon="7.43711">
        <ele>428.6</ele>
        <time>2022-10-01T09:47:39Z</time>
      </trkpt>
      <trkpt lat="47.18591" lon="7.43719">
        <ele>428.6</ele>
        <time>2022-10-01T09:47:40Z</time>
      </trkpt>
      <trkpt lat="47.1859" lon="7.43725">
        <ele>428.6</ele>
        <time>2022-10-01T09:47:41Z</time>
      </trkpt>
      <trkpt lat="47.18591" lon="7.43731">
        <ele>428.6</ele>
        <time>2022-10-01T09:47:42Z</time>
      </trkpt>
      <trkpt lat="47.18591" lon="7.43739">
        <ele>428.6</ele>
        <time>2022-10-01T09:47:43Z</time>
      </trkpt>
      <trkpt lat="47.18591" lon="7.43745">
        <ele>428.6</ele>
        <time>2022-10-01T09:47:44Z</time>
      </trkpt>
      <trkpt lat="47.18593" lon="7.43752">
        <ele>428.6</ele>
        <time>2022-10-01T09:47:45Z</time>
      </trkpt>
      <trkpt lat="47.18595" lon="7.43759">
        <ele>428.6</ele>
        <time>2022-10-01T09:47:46Z</time>
      </trkpt>
      <trkpt lat="47.18596" lon="7.43765">
        <ele>428.6</ele>
        <time>2022-10-01T09:47:47Z</time>
      </trkpt>
      <trkpt lat="47.18598" lon="7.43772">
        <ele>428.6</ele>
        <time>2022-10-01T09:47:48Z</time>
      </trkpt>
      <trkpt lat="47.186" lon="7.43779">
        <ele>428.5</ele>
        <time>2022-10-01T09:47:49Z</time>
      </trkpt>
      <trkpt lat="47.18602" lon="7.43785">
        <ele>428.5</ele>
        <time>2022-10-01T09:47:50Z</time>
      </trkpt>
      <trkpt lat="47.18604" lon="7.43792">
        <ele>428.5</ele>
        <time>2022-10-01T09:47:51Z</time>
      </trkpt>
      <trkpt lat="47.18606" lon="7.43799">
        <ele>428.5</ele>
        <time>2022-10-01T09:47:52Z</time>
      </trkpt>
      <trkpt lat="47.18608" lon="7.43805">
        <ele>428.5</ele>
        <time>2022-10-01T09:47:53Z</time>
      </trkpt>
      <trkpt lat="47.18609" lon="7.43812">
        <ele>428.5</ele>
        <time>2022-10-01T09:47:54Z</time>
      </trkpt>
      <trkpt lat="47.18611" lon="7.43819">
        <ele>428.5</ele>
        <time>2022-10-01T09:47:55Z</time>
      </trkpt>
      <trkpt lat="47.18613" lon="7.43825">
        <ele>428.5</ele>
        <time>2022-10-01T09:47:56Z</time>
      </trkpt>
      <trkpt lat="47.18615" lon="7.43832">
        <ele>428.5</ele>
        <time>2022-10-01T09:47:57Z</time>
      </trkpt>
      <trkpt lat="47.18618" lon="7.43838">
        <ele>428.5</ele>
        <time>2022-10-01T09:47:58Z</time>
      </trkpt>
      <trkpt lat="47.18619" lon="7.43845">
        <ele>428.5</ele>
        <time>2022-10-01T09:47:59Z</time>
      </trkpt>
      <trkpt lat="47.18621" lon="7.43852">
        <ele>428.5</ele>
        <time>2022-10-01T09:48:00Z</time>
      </trkpt>
      <trkpt lat="47.18623" lon="7.43858">
        <ele>428.5</ele>
        <time>2022-10-01T09:48:01Z</time>
      </trkpt>
      <trkpt lat="47.18626" lon="7.43865">
        <ele>428.5</ele>
        <time>2022-10-01T09:48:02Z</time>
      </trkpt>
      <trkpt lat="47.18628" lon="7.43872">
        <ele>428.4</ele>
        <time>2022-10-01T09:48:03Z</time>
      </trkpt>
      <trkpt lat="47.1863" lon="7.43879">
        <ele>428.4</ele>
        <time>2022-10-01T09:48:04Z</time>
      </trkpt>
      <trkpt lat="47.18632" lon="7.43886">
        <ele>428.4</ele>
        <time>2022-10-01T09:48:05Z</time>
      </trkpt>
      <trkpt lat="47.18634" lon="7.43892">
        <ele>428.4</ele>
        <time>2022-10-01T09:48:06Z</time>
      </trkpt>
      <trkpt lat="47.18636" lon="7.43899">
        <ele>428.4</ele>
        <time>2022-10-01T09:48:07Z</time>
      </trkpt>
      <trkpt lat="47.18639" lon="7.43906">
        <ele>428.4</ele>
        <time>2022-10-01T09:48:08Z</time>
      </trkpt>
      <trkpt lat="47.18641" lon="7.43913">
        <ele>428.4</ele>
        <time>2022-10-01T09:48:10Z</time>
      </trkpt>
      <trkpt lat="47.18643" lon="7.43921">
        <ele>428.4</ele>
        <time>2022-10-01T09:48:11Z</time>
      </trkpt>
      <trkpt lat="47.18645" lon="7.43928">
        <ele>428.4</ele>
        <time>2022-10-01T09:48:12Z</time>
      </trkpt>
      <trkpt lat="47.18648" lon="7.43935">
        <ele>428.4</ele>
        <time>2022-10-01T09:48:13Z</time>
      </trkpt>
      <trkpt lat="47.1865" lon="7.43942">
        <ele>428.4</ele>
        <time>2022-10-01T09:48:14Z</time>
      </trkpt>
      <trkpt lat="47.18655" lon="7.43956">
        <ele>428.4</ele>
        <time>2022-10-01T09:48:15Z</time>
      </trkpt>
      <trkpt lat="47.18657" lon="7.43963">
        <ele>428.4</ele>
        <time>2022-10-01T09:48:16Z</time>
      </trkpt>
      <trkpt lat="47.18659" lon="7.4397">
        <ele>428.4</ele>
        <time>2022-10-01T09:48:18Z</time>
      </trkpt>
      <trkpt lat="47.18661" lon="7.43978">
        <ele>428.4</ele>
        <time>2022-10-01T09:48:19Z</time>
      </trkpt>
      <trkpt lat="47.18664" lon="7.43984">
        <ele>428.3</ele>
        <time>2022-10-01T09:48:20Z</time>
      </trkpt>
      <trkpt lat="47.18668" lon="7.43999">
        <ele>428.3</ele>
        <time>2022-10-01T09:48:21Z</time>
      </trkpt>
      <trkpt lat="47.18671" lon="7.44005">
        <ele>428.3</ele>
        <time>2022-10-01T09:48:22Z</time>
      </trkpt>
      <trkpt lat="47.18673" lon="7.44012">
        <ele>428.3</ele>
        <time>2022-10-01T09:48:23Z</time>
      </trkpt>
      <trkpt lat="47.18675" lon="7.44018">
        <ele>428.3</ele>
        <time>2022-10-01T09:48:24Z</time>
      </trkpt>
      <trkpt lat="47.18677" lon="7.44025">
        <ele>428.3</ele>
        <time>2022-10-01T09:48:25Z</time>
      </trkpt>
      <trkpt lat="47.1868" lon="7.44032">
        <ele>428.3</ele>
        <time>2022-10-01T09:48:26Z</time>
      </trkpt>
      <trkpt lat="47.18682" lon="7.44039">
        <ele>428.3</ele>
        <time>2022-10-01T09:48:27Z</time>
      </trkpt>
      <trkpt lat="47.18684" lon="7.44046">
        <ele>428.3</ele>
        <time>2022-10-01T09:48:28Z</time>
      </trkpt>
      <trkpt lat="47.18686" lon="7.44053">
        <ele>428.3</ele>
        <time>2022-10-01T09:48:29Z</time>
      </trkpt>
      <trkpt lat="47.18688" lon="7.4406">
        <ele>428.3</ele>
        <time>2022-10-01T09:48:30Z</time>
      </trkpt>
      <trkpt lat="47.1869" lon="7.44067">
        <ele>428.3</ele>
        <time>2022-10-01T09:48:31Z</time>
      </trkpt>
      <trkpt lat="47.18692" lon="7.44074">
        <ele>428.3</ele>
        <time>2022-10-01T09:48:32Z</time>
      </trkpt>
      <trkpt lat="47.18694" lon="7.44081">
        <ele>428.3</ele>
        <time>2022-10-01T09:48:33Z</time>
      </trkpt>
      <trkpt lat="47.18697" lon="7.44088">
        <ele>428.3</ele>
        <time>2022-10-01T09:48:34Z</time>
      </trkpt>
      <trkpt lat="47.18699" lon="7.44095">
        <ele>428.3</ele>
        <time>2022-10-01T09:48:35Z</time>
      </trkpt>
      <trkpt lat="47.18702" lon="7.44103">
        <ele>428.3</ele>
        <time>2022-10-01T09:48:36Z</time>
      </trkpt>
      <trkpt lat="47.18704" lon="7.4411">
        <ele>428.3</ele>
        <time>2022-10-01T09:48:37Z</time>
      </trkpt>
      <trkpt lat="47.18706" lon="7.44116">
        <ele>428.3</ele>
        <time>2022-10-01T09:48:38Z</time>
      </trkpt>
      <trkpt lat="47.18709" lon="7.44124">
        <ele>428.3</ele>
        <time>2022-10-01T09:48:39Z</time>
      </trkpt>
      <trkpt lat="47.18711" lon="7.44131">
        <ele>428.3</ele>
        <time>2022-10-01T09:48:40Z</time>
      </trkpt>
      <trkpt lat="47.18713" lon="7.44139">
        <ele>428.3</ele>
        <time>2022-10-01T09:48:41Z</time>
      </trkpt>
      <trkpt lat="47.18715" lon="7.44146">
        <ele>428.3</ele>
        <time>2022-10-01T09:48:42Z</time>
      </trkpt>
      <trkpt lat="47.18718" lon="7.44153">
        <ele>428.3</ele>
        <time>2022-10-01T09:48:43Z</time>
      </trkpt>
      <trkpt lat="47.1872" lon="7.4416">
        <ele>428.3</ele>
        <time>2022-10-01T09:48:44Z</time>
      </trkpt>
      <trkpt lat="47.18722" lon="7.44166">
        <ele>428.3</ele>
        <time>2022-10-01T09:48:45Z</time>
      </trkpt>
      <trkpt lat="47.18724" lon="7.44174">
        <ele>428.3</ele>
        <time>2022-10-01T09:48:46Z</time>
      </trkpt>
      <trkpt lat="47.18726" lon="7.44181">
        <ele>428.3</ele>
        <time>2022-10-01T09:48:47Z</time>
      </trkpt>
      <trkpt lat="47.18729" lon="7.44189">
        <ele>428.3</ele>
        <time>2022-10-01T09:48:48Z</time>
      </trkpt>
      <trkpt lat="47.18731" lon="7.44195">
        <ele>428.3</ele>
        <time>2022-10-01T09:48:49Z</time>
      </trkpt>
      <trkpt lat="47.18733" lon="7.44203">
        <ele>428.3</ele>
        <time>2022-10-01T09:48:50Z</time>
      </trkpt>
      <trkpt lat="47.18735" lon="7.44209">
        <ele>428.3</ele>
        <time>2022-10-01T09:48:51Z</time>
      </trkpt>
      <trkpt lat="47.18738" lon="7.44217">
        <ele>428.2</ele>
        <time>2022-10-01T09:48:52Z</time>
      </trkpt>
      <trkpt lat="47.1874" lon="7.44224">
        <ele>428.2</ele>
        <time>2022-10-01T09:48:53Z</time>
      </trkpt>
      <trkpt lat="47.18742" lon="7.4423">
        <ele>428.2</ele>
        <time>2022-10-01T09:48:54Z</time>
      </trkpt>
      <trkpt lat="47.18744" lon="7.44237">
        <ele>428.2</ele>
        <time>2022-10-01T09:48:55Z</time>
      </trkpt>
      <trkpt lat="47.18746" lon="7.44244">
        <ele>428.2</ele>
        <time>2022-10-01T09:48:56Z</time>
      </trkpt>
      <trkpt lat="47.18748" lon="7.4425">
        <ele>428.2</ele>
        <time>2022-10-01T09:48:57Z</time>
      </trkpt>
      <trkpt lat="47.1875" lon="7.44255">
        <ele>428.2</ele>
        <time>2022-10-01T09:48:58Z</time>
      </trkpt>
      <trkpt lat="47.18752" lon="7.44261">
        <ele>428.2</ele>
        <time>2022-10-01T09:48:59Z</time>
      </trkpt>
      <trkpt lat="47.18754" lon="7.44268">
        <ele>428.2</ele>
        <time>2022-10-01T09:49:00Z</time>
      </trkpt>
      <trkpt lat="47.18756" lon="7.44274">
        <ele>428.1</ele>
        <time>2022-10-01T09:49:01Z</time>
      </trkpt>
      <trkpt lat="47.18758" lon="7.4428">
        <ele>428.1</ele>
        <time>2022-10-01T09:49:02Z</time>
      </trkpt>
      <trkpt lat="47.1876" lon="7.44288">
        <ele>428.1</ele>
        <time>2022-10-01T09:49:03Z</time>
      </trkpt>
      <trkpt lat="47.18762" lon="7.44294">
        <ele>428.1</ele>
        <time>2022-10-01T09:49:04Z</time>
      </trkpt>
      <trkpt lat="47.18764" lon="7.44301">
        <ele>428.1</ele>
        <time>2022-10-01T09:49:05Z</time>
      </trkpt>
      <trkpt lat="47.18767" lon="7.44308">
        <ele>428.1</ele>
        <time>2022-10-01T09:49:06Z</time>
      </trkpt>
      <trkpt lat="47.18769" lon="7.44315">
        <ele>428.1</ele>
        <time>2022-10-01T09:49:07Z</time>
      </trkpt>
      <trkpt lat="47.18771" lon="7.44322">
        <ele>428.1</ele>
        <time>2022-10-01T09:49:08Z</time>
      </trkpt>
      <trkpt lat="47.18773" lon="7.4433">
        <ele>428.1</ele>
        <time>2022-10-01T09:49:09Z</time>
      </trkpt>
      <trkpt lat="47.18776" lon="7.44336">
        <ele>428.1</ele>
        <time>2022-10-01T09:49:10Z</time>
      </trkpt>
      <trkpt lat="47.18778" lon="7.44343">
        <ele>428.1</ele>
        <time>2022-10-01T09:49:11Z</time>
      </trkpt>
      <trkpt lat="47.1878" lon="7.4435">
        <ele>428.1</ele>
        <time>2022-10-01T09:49:12Z</time>
      </trkpt>
      <trkpt lat="47.18782" lon="7.44357">
        <ele>428.1</ele>
        <time>2022-10-01T09:49:13Z</time>
      </trkpt>
      <trkpt lat="47.18784" lon="7.44364">
        <ele>428.1</ele>
        <time>2022-10-01T09:49:14Z</time>
      </trkpt>
      <trkpt lat="47.18786" lon="7.44371">
        <ele>428.1</ele>
        <time>2022-10-01T09:49:15Z</time>
      </trkpt>
      <trkpt lat="47.18789" lon="7.44378">
        <ele>428</ele>
        <time>2022-10-01T09:49:16Z</time>
      </trkpt>
      <trkpt lat="47.18791" lon="7.44386">
        <ele>428</ele>
        <time>2022-10-01T09:49:17Z</time>
      </trkpt>
      <trkpt lat="47.18793" lon="7.44393">
        <ele>428</ele>
        <time>2022-10-01T09:49:18Z</time>
      </trkpt>
      <trkpt lat="47.18796" lon="7.44401">
        <ele>428</ele>
        <time>2022-10-01T09:49:19Z</time>
      </trkpt>
      <trkpt lat="47.18798" lon="7.44408">
        <ele>428</ele>
        <time>2022-10-01T09:49:20Z</time>
      </trkpt>
      <trkpt lat="47.188" lon="7.44415">
        <ele>428</ele>
        <time>2022-10-01T09:49:21Z</time>
      </trkpt>
      <trkpt lat="47.18802" lon="7.44423">
        <ele>428</ele>
        <time>2022-10-01T09:49:22Z</time>
      </trkpt>
      <trkpt lat="47.18805" lon="7.4443">
        <ele>428</ele>
        <time>2022-10-01T09:49:23Z</time>
      </trkpt>
      <trkpt lat="47.18807" lon="7.44437">
        <ele>428</ele>
        <time>2022-10-01T09:49:24Z</time>
      </trkpt>
      <trkpt lat="47.18809" lon="7.44444">
        <ele>428</ele>
        <time>2022-10-01T09:49:25Z</time>
      </trkpt>
      <trkpt lat="47.18812" lon="7.44451">
        <ele>428</ele>
        <time>2022-10-01T09:49:26Z</time>
      </trkpt>
      <trkpt lat="47.18814" lon="7.44459">
        <ele>428</ele>
        <time>2022-10-01T09:49:27Z</time>
      </trkpt>
      <trkpt lat="47.18817" lon="7.44466">
        <ele>428</ele>
        <time>2022-10-01T09:49:28Z</time>
      </trkpt>
      <trkpt lat="47.18819" lon="7.44474">
        <ele>427.9</ele>
        <time>2022-10-01T09:49:29Z</time>
      </trkpt>
      <trkpt lat="47.18822" lon="7.44481">
        <ele>427.9</ele>
        <time>2022-10-01T09:49:30Z</time>
      </trkpt>
      <trkpt lat="47.18824" lon="7.44488">
        <ele>427.9</ele>
        <time>2022-10-01T09:49:31Z</time>
      </trkpt>
      <trkpt lat="47.18826" lon="7.44495">
        <ele>427.9</ele>
        <time>2022-10-01T09:49:32Z</time>
      </trkpt>
      <trkpt lat="47.18828" lon="7.44502">
        <ele>428</ele>
        <time>2022-10-01T09:49:33Z</time>
      </trkpt>
      <trkpt lat="47.1883" lon="7.44508">
        <ele>428</ele>
        <time>2022-10-01T09:49:34Z</time>
      </trkpt>
      <trkpt lat="47.18833" lon="7.44514">
        <ele>428</ele>
        <time>2022-10-01T09:49:35Z</time>
      </trkpt>
      <trkpt lat="47.18835" lon="7.44521">
        <ele>428</ele>
        <time>2022-10-01T09:49:36Z</time>
      </trkpt>
      <trkpt lat="47.18837" lon="7.44526">
        <ele>427.9</ele>
        <time>2022-10-01T09:49:37Z</time>
      </trkpt>
      <trkpt lat="47.1884" lon="7.44532">
        <ele>427.9</ele>
        <time>2022-10-01T09:49:38Z</time>
      </trkpt>
      <trkpt lat="47.18843" lon="7.44538">
        <ele>427.9</ele>
        <time>2022-10-01T09:49:39Z</time>
      </trkpt>
      <trkpt lat="47.18846" lon="7.44543">
        <ele>427.9</ele>
        <time>2022-10-01T09:49:40Z</time>
      </trkpt>
      <trkpt lat="47.1885" lon="7.44549">
        <ele>427.9</ele>
        <time>2022-10-01T09:49:41Z</time>
      </trkpt>
      <trkpt lat="47.18854" lon="7.44553">
        <ele>427.9</ele>
        <time>2022-10-01T09:49:42Z</time>
      </trkpt>
      <trkpt lat="47.18857" lon="7.44558">
        <ele>427.9</ele>
        <time>2022-10-01T09:49:43Z</time>
      </trkpt>
      <trkpt lat="47.18861" lon="7.44563">
        <ele>427.9</ele>
        <time>2022-10-01T09:49:44Z</time>
      </trkpt>
      <trkpt lat="47.18865" lon="7.44567">
        <ele>427.9</ele>
        <time>2022-10-01T09:49:45Z</time>
      </trkpt>
      <trkpt lat="47.18869" lon="7.44572">
        <ele>427.9</ele>
        <time>2022-10-01T09:49:46Z</time>
      </trkpt>
      <trkpt lat="47.18873" lon="7.44578">
        <ele>427.9</ele>
        <time>2022-10-01T09:49:47Z</time>
      </trkpt>
      <trkpt lat="47.18878" lon="7.44582">
        <ele>427.9</ele>
        <time>2022-10-01T09:49:48Z</time>
      </trkpt>
      <trkpt lat="47.18883" lon="7.44587">
        <ele>427.9</ele>
        <time>2022-10-01T09:49:49Z</time>
      </trkpt>
      <trkpt lat="47.18887" lon="7.44592">
        <ele>427.9</ele>
        <time>2022-10-01T09:49:50Z</time>
      </trkpt>
      <trkpt lat="47.18891" lon="7.44597">
        <ele>427.9</ele>
        <time>2022-10-01T09:49:51Z</time>
      </trkpt>
      <trkpt lat="47.18895" lon="7.44602">
        <ele>427.9</ele>
        <time>2022-10-01T09:49:52Z</time>
      </trkpt>
      <trkpt lat="47.189" lon="7.44607">
        <ele>427.9</ele>
        <time>2022-10-01T09:49:53Z</time>
      </trkpt>
      <trkpt lat="47.18903" lon="7.44611">
        <ele>428</ele>
        <time>2022-10-01T09:49:54Z</time>
      </trkpt>
      <trkpt lat="47.18907" lon="7.44615">
        <ele>428</ele>
        <time>2022-10-01T09:49:55Z</time>
      </trkpt>
      <trkpt lat="47.18911" lon="7.4462">
        <ele>428</ele>
        <time>2022-10-01T09:49:56Z</time>
      </trkpt>
      <trkpt lat="47.18916" lon="7.44624">
        <ele>428</ele>
        <time>2022-10-01T09:49:57Z</time>
      </trkpt>
      <trkpt lat="47.1892" lon="7.44629">
        <ele>428</ele>
        <time>2022-10-01T09:49:58Z</time>
      </trkpt>
      <trkpt lat="47.18924" lon="7.44634">
        <ele>428</ele>
        <time>2022-10-01T09:49:59Z</time>
      </trkpt>
      <trkpt lat="47.18928" lon="7.44638">
        <ele>428</ele>
        <time>2022-10-01T09:50:00Z</time>
      </trkpt>
      <trkpt lat="47.18932" lon="7.44643">
        <ele>428.1</ele>
        <time>2022-10-01T09:50:01Z</time>
      </trkpt>
      <trkpt lat="47.18936" lon="7.44647">
        <ele>428.1</ele>
        <time>2022-10-01T09:50:02Z</time>
      </trkpt>
      <trkpt lat="47.1894" lon="7.44652">
        <ele>428.1</ele>
        <time>2022-10-01T09:50:03Z</time>
      </trkpt>
      <trkpt lat="47.18944" lon="7.44656">
        <ele>428.1</ele>
        <time>2022-10-01T09:50:04Z</time>
      </trkpt>
      <trkpt lat="47.18948" lon="7.4466">
        <ele>428.1</ele>
        <time>2022-10-01T09:50:05Z</time>
      </trkpt>
      <trkpt lat="47.18953" lon="7.44664">
        <ele>428.1</ele>
        <time>2022-10-01T09:50:06Z</time>
      </trkpt>
      <trkpt lat="47.18957" lon="7.44669">
        <ele>428.1</ele>
        <time>2022-10-01T09:50:07Z</time>
      </trkpt>
      <trkpt lat="47.18961" lon="7.44673">
        <ele>428.2</ele>
        <time>2022-10-01T09:50:08Z</time>
      </trkpt>
      <trkpt lat="47.18965" lon="7.44677">
        <ele>428.2</ele>
        <time>2022-10-01T09:50:09Z</time>
      </trkpt>
      <trkpt lat="47.18968" lon="7.44681">
        <ele>428.2</ele>
        <time>2022-10-01T09:50:10Z</time>
      </trkpt>
      <trkpt lat="47.18971" lon="7.44686">
        <ele>428.2</ele>
        <time>2022-10-01T09:50:11Z</time>
      </trkpt>
      <trkpt lat="47.18975" lon="7.4469">
        <ele>428.2</ele>
        <time>2022-10-01T09:50:12Z</time>
      </trkpt>
      <trkpt lat="47.18979" lon="7.44694">
        <ele>428.2</ele>
        <time>2022-10-01T09:50:14Z</time>
      </trkpt>
      <trkpt lat="47.18982" lon="7.44698">
        <ele>428.3</ele>
        <time>2022-10-01T09:50:15Z</time>
      </trkpt>
      <trkpt lat="47.18986" lon="7.44701">
        <ele>428.3</ele>
        <time>2022-10-01T09:50:16Z</time>
      </trkpt>
      <trkpt lat="47.18989" lon="7.44705">
        <ele>428.3</ele>
        <time>2022-10-01T09:50:17Z</time>
      </trkpt>
      <trkpt lat="47.18993" lon="7.44708">
        <ele>428.3</ele>
        <time>2022-10-01T09:50:18Z</time>
      </trkpt>
      <trkpt lat="47.18997" lon="7.44712">
        <ele>428.3</ele>
        <time>2022-10-01T09:50:19Z</time>
      </trkpt>
      <trkpt lat="47.19" lon="7.44718">
        <ele>428.3</ele>
        <time>2022-10-01T09:50:20Z</time>
      </trkpt>
      <trkpt lat="47.19004" lon="7.44724">
        <ele>428.3</ele>
        <time>2022-10-01T09:50:21Z</time>
      </trkpt>
      <trkpt lat="47.19009" lon="7.44728">
        <ele>428.4</ele>
        <time>2022-10-01T09:50:22Z</time>
      </trkpt>
      <trkpt lat="47.19018" lon="7.44737">
        <ele>428.4</ele>
        <time>2022-10-01T09:50:23Z</time>
      </trkpt>
      <trkpt lat="47.19022" lon="7.44743">
        <ele>428.4</ele>
        <time>2022-10-01T09:50:24Z</time>
      </trkpt>
      <trkpt lat="47.19026" lon="7.44748">
        <ele>428.4</ele>
        <time>2022-10-01T09:50:25Z</time>
      </trkpt>
      <trkpt lat="47.19031" lon="7.44752">
        <ele>428.4</ele>
        <time>2022-10-01T09:50:26Z</time>
      </trkpt>
      <trkpt lat="47.19035" lon="7.44758">
        <ele>428.5</ele>
        <time>2022-10-01T09:50:27Z</time>
      </trkpt>
      <trkpt lat="47.1904" lon="7.44763">
        <ele>428.5</ele>
        <time>2022-10-01T09:50:28Z</time>
      </trkpt>
      <trkpt lat="47.19045" lon="7.44769">
        <ele>428.5</ele>
        <time>2022-10-01T09:50:29Z</time>
      </trkpt>
      <trkpt lat="47.19049" lon="7.44773">
        <ele>428.5</ele>
        <time>2022-10-01T09:50:30Z</time>
      </trkpt>
      <trkpt lat="47.19053" lon="7.44777">
        <ele>428.5</ele>
        <time>2022-10-01T09:50:31Z</time>
      </trkpt>
      <trkpt lat="47.19057" lon="7.44781">
        <ele>428.5</ele>
        <time>2022-10-01T09:50:32Z</time>
      </trkpt>
      <trkpt lat="47.19062" lon="7.44786">
        <ele>428.5</ele>
        <time>2022-10-01T09:50:33Z</time>
      </trkpt>
      <trkpt lat="47.19065" lon="7.4479">
        <ele>428.5</ele>
        <time>2022-10-01T09:50:34Z</time>
      </trkpt>
      <trkpt lat="47.19069" lon="7.44795">
        <ele>428.4</ele>
        <time>2022-10-01T09:50:35Z</time>
      </trkpt>
      <trkpt lat="47.19074" lon="7.44801">
        <ele>428.4</ele>
        <time>2022-10-01T09:50:36Z</time>
      </trkpt>
      <trkpt lat="47.19078" lon="7.44805">
        <ele>428.4</ele>
        <time>2022-10-01T09:50:37Z</time>
      </trkpt>
      <trkpt lat="47.19083" lon="7.4481">
        <ele>428.4</ele>
        <time>2022-10-01T09:50:38Z</time>
      </trkpt>
      <trkpt lat="47.19087" lon="7.44817">
        <ele>428.3</ele>
        <time>2022-10-01T09:50:39Z</time>
      </trkpt>
      <trkpt lat="47.19092" lon="7.44822">
        <ele>428.3</ele>
        <time>2022-10-01T09:50:40Z</time>
      </trkpt>
      <trkpt lat="47.19096" lon="7.44827">
        <ele>428.3</ele>
        <time>2022-10-01T09:50:41Z</time>
      </trkpt>
      <trkpt lat="47.19101" lon="7.44832">
        <ele>428.3</ele>
        <time>2022-10-01T09:50:42Z</time>
      </trkpt>
      <trkpt lat="47.19105" lon="7.44837">
        <ele>428.3</ele>
        <time>2022-10-01T09:50:43Z</time>
      </trkpt>
      <trkpt lat="47.19109" lon="7.44843">
        <ele>428.3</ele>
        <time>2022-10-01T09:50:44Z</time>
      </trkpt>
      <trkpt lat="47.19113" lon="7.44848">
        <ele>428.3</ele>
        <time>2022-10-01T09:50:45Z</time>
      </trkpt>
      <trkpt lat="47.19118" lon="7.44853">
        <ele>428.3</ele>
        <time>2022-10-01T09:50:46Z</time>
      </trkpt>
      <trkpt lat="47.19122" lon="7.44857">
        <ele>428.4</ele>
        <time>2022-10-01T09:50:47Z</time>
      </trkpt>
      <trkpt lat="47.19127" lon="7.44861">
        <ele>428.4</ele>
        <time>2022-10-01T09:50:48Z</time>
      </trkpt>
      <trkpt lat="47.1913" lon="7.44865">
        <ele>428.4</ele>
        <time>2022-10-01T09:50:49Z</time>
      </trkpt>
      <trkpt lat="47.19134" lon="7.44868">
        <ele>428.4</ele>
        <time>2022-10-01T09:50:50Z</time>
      </trkpt>
      <trkpt lat="47.19138" lon="7.44869">
        <ele>428.4</ele>
        <time>2022-10-01T09:50:51Z</time>
      </trkpt>
      <trkpt lat="47.19141" lon="7.44869">
        <ele>428.4</ele>
        <time>2022-10-01T09:50:52Z</time>
      </trkpt>
      <trkpt lat="47.19146" lon="7.44868">
        <ele>428.4</ele>
        <time>2022-10-01T09:50:53Z</time>
      </trkpt>
      <trkpt lat="47.19151" lon="7.44866">
        <ele>428.4</ele>
        <time>2022-10-01T09:50:54Z</time>
      </trkpt>
      <trkpt lat="47.19155" lon="7.44865">
        <ele>428.4</ele>
        <time>2022-10-01T09:50:55Z</time>
      </trkpt>
      <trkpt lat="47.19159" lon="7.44866">
        <ele>428.4</ele>
        <time>2022-10-01T09:50:56Z</time>
      </trkpt>
      <trkpt lat="47.19163" lon="7.44868">
        <ele>428.3</ele>
        <time>2022-10-01T09:50:57Z</time>
      </trkpt>
      <trkpt lat="47.19166" lon="7.44873">
        <ele>428.3</ele>
        <time>2022-10-01T09:50:58Z</time>
      </trkpt>
      <trkpt lat="47.1917" lon="7.44878">
        <ele>428.3</ele>
        <time>2022-10-01T09:50:59Z</time>
      </trkpt>
      <trkpt lat="47.19171" lon="7.44885">
        <ele>428.3</ele>
        <time>2022-10-01T09:51:00Z</time>
      </trkpt>
      <trkpt lat="47.19174" lon="7.44891">
        <ele>428.3</ele>
        <time>2022-10-01T09:51:01Z</time>
      </trkpt>
      <trkpt lat="47.19178" lon="7.44895">
        <ele>428.2</ele>
        <time>2022-10-01T09:51:02Z</time>
      </trkpt>
      <trkpt lat="47.1918" lon="7.44901">
        <ele>428.2</ele>
        <time>2022-10-01T09:51:03Z</time>
      </trkpt>
      <trkpt lat="47.19182" lon="7.44907">
        <ele>428.2</ele>
        <time>2022-10-01T09:51:04Z</time>
      </trkpt>
      <trkpt lat="47.19184" lon="7.44911">
        <ele>428.2</ele>
        <time>2022-10-01T09:51:05Z</time>
      </trkpt>
      <trkpt lat="47.19187" lon="7.44914">
        <ele>428.2</ele>
        <time>2022-10-01T09:51:06Z</time>
      </trkpt>
      <trkpt lat="47.19191" lon="7.44916">
        <ele>428.2</ele>
        <time>2022-10-01T09:51:07Z</time>
      </trkpt>
      <trkpt lat="47.19195" lon="7.44918">
        <ele>428.2</ele>
        <time>2022-10-01T09:51:08Z</time>
      </trkpt>
      <trkpt lat="47.19198" lon="7.44918">
        <ele>428.2</ele>
        <time>2022-10-01T09:51:09Z</time>
      </trkpt>
      <trkpt lat="47.19202" lon="7.44917">
        <ele>428.3</ele>
        <time>2022-10-01T09:51:10Z</time>
      </trkpt>
      <trkpt lat="47.19206" lon="7.44915">
        <ele>428.3</ele>
        <time>2022-10-01T09:51:11Z</time>
      </trkpt>
      <trkpt lat="47.1921" lon="7.44912">
        <ele>428.3</ele>
        <time>2022-10-01T09:51:12Z</time>
      </trkpt>
      <trkpt lat="47.19214" lon="7.44908">
        <ele>428.3</ele>
        <time>2022-10-01T09:51:13Z</time>
      </trkpt>
      <trkpt lat="47.19217" lon="7.44905">
        <ele>428.4</ele>
        <time>2022-10-01T09:51:14Z</time>
      </trkpt>
      <trkpt lat="47.19221" lon="7.44901">
        <ele>428.4</ele>
        <time>2022-10-01T09:51:15Z</time>
      </trkpt>
      <trkpt lat="47.19224" lon="7.44896">
        <ele>428.4</ele>
        <time>2022-10-01T09:51:16Z</time>
      </trkpt>
      <trkpt lat="47.19227" lon="7.44893">
        <ele>428.5</ele>
        <time>2022-10-01T09:51:17Z</time>
      </trkpt>
      <trkpt lat="47.19231" lon="7.44888">
        <ele>428.5</ele>
        <time>2022-10-01T09:51:18Z</time>
      </trkpt>
      <trkpt lat="47.19235" lon="7.44884">
        <ele>428.5</ele>
        <time>2022-10-01T09:51:19Z</time>
      </trkpt>
      <trkpt lat="47.19238" lon="7.4488">
        <ele>428.5</ele>
        <time>2022-10-01T09:51:20Z</time>
      </trkpt>
      <trkpt lat="47.19241" lon="7.44876">
        <ele>428.5</ele>
        <time>2022-10-01T09:51:21Z</time>
      </trkpt>
      <trkpt lat="47.19244" lon="7.44872">
        <ele>428.5</ele>
        <time>2022-10-01T09:51:22Z</time>
      </trkpt>
      <trkpt lat="47.19247" lon="7.44869">
        <ele>428.5</ele>
        <time>2022-10-01T09:51:23Z</time>
      </trkpt>
      <trkpt lat="47.19251" lon="7.44868">
        <ele>428.5</ele>
        <time>2022-10-01T09:51:24Z</time>
      </trkpt>
      <trkpt lat="47.19255" lon="7.44866">
        <ele>428.5</ele>
        <time>2022-10-01T09:51:25Z</time>
      </trkpt>
      <trkpt lat="47.19258" lon="7.44865">
        <ele>428.5</ele>
        <time>2022-10-01T09:51:26Z</time>
      </trkpt>
      <trkpt lat="47.19262" lon="7.44865">
        <ele>428.5</ele>
        <time>2022-10-01T09:51:27Z</time>
      </trkpt>
      <trkpt lat="47.19266" lon="7.44866">
        <ele>428.5</ele>
        <time>2022-10-01T09:51:28Z</time>
      </trkpt>
      <trkpt lat="47.19271" lon="7.44866">
        <ele>428.5</ele>
        <time>2022-10-01T09:51:29Z</time>
      </trkpt>
      <trkpt lat="47.19275" lon="7.44865">
        <ele>428.5</ele>
        <time>2022-10-01T09:51:30Z</time>
      </trkpt>
      <trkpt lat="47.19278" lon="7.44864">
        <ele>428.5</ele>
        <time>2022-10-01T09:51:31Z</time>
      </trkpt>
      <trkpt lat="47.19281" lon="7.44865">
        <ele>428.6</ele>
        <time>2022-10-01T09:51:32Z</time>
      </trkpt>
      <trkpt lat="47.19286" lon="7.44863">
        <ele>428.6</ele>
        <time>2022-10-01T09:51:33Z</time>
      </trkpt>
      <trkpt lat="47.19291" lon="7.44862">
        <ele>428.6</ele>
        <time>2022-10-01T09:51:34Z</time>
      </trkpt>
      <trkpt lat="47.19296" lon="7.44863">
        <ele>428.6</ele>
        <time>2022-10-01T09:51:35Z</time>
      </trkpt>
      <trkpt lat="47.193" lon="7.44864">
        <ele>428.7</ele>
        <time>2022-10-01T09:51:36Z</time>
      </trkpt>
      <trkpt lat="47.19305" lon="7.44866">
        <ele>428.7</ele>
        <time>2022-10-01T09:51:37Z</time>
      </trkpt>
      <trkpt lat="47.1931" lon="7.44867">
        <ele>428.7</ele>
        <time>2022-10-01T09:51:38Z</time>
      </trkpt>
      <trkpt lat="47.19315" lon="7.44867">
        <ele>428.7</ele>
        <time>2022-10-01T09:51:39Z</time>
      </trkpt>
      <trkpt lat="47.1932" lon="7.44867">
        <ele>428.8</ele>
        <time>2022-10-01T09:51:40Z</time>
      </trkpt>
      <trkpt lat="47.19324" lon="7.44867">
        <ele>428.8</ele>
        <time>2022-10-01T09:51:41Z</time>
      </trkpt>
      <trkpt lat="47.19328" lon="7.44868">
        <ele>428.8</ele>
        <time>2022-10-01T09:51:42Z</time>
      </trkpt>
      <trkpt lat="47.19332" lon="7.44869">
        <ele>428.8</ele>
        <time>2022-10-01T09:51:43Z</time>
      </trkpt>
      <trkpt lat="47.19337" lon="7.4487">
        <ele>428.8</ele>
        <time>2022-10-01T09:51:44Z</time>
      </trkpt>
      <trkpt lat="47.19342" lon="7.44869">
        <ele>428.9</ele>
        <time>2022-10-01T09:51:45Z</time>
      </trkpt>
      <trkpt lat="47.19347" lon="7.44869">
        <ele>428.9</ele>
        <time>2022-10-01T09:51:46Z</time>
      </trkpt>
      <trkpt lat="47.19351" lon="7.44869">
        <ele>428.9</ele>
        <time>2022-10-01T09:51:47Z</time>
      </trkpt>
      <trkpt lat="47.19357" lon="7.4487">
        <ele>428.9</ele>
        <time>2022-10-01T09:51:48Z</time>
      </trkpt>
      <trkpt lat="47.19363" lon="7.44871">
        <ele>428.9</ele>
        <time>2022-10-01T09:51:49Z</time>
      </trkpt>
      <trkpt lat="47.19369" lon="7.4487">
        <ele>428.9</ele>
        <time>2022-10-01T09:51:50Z</time>
      </trkpt>
      <trkpt lat="47.19375" lon="7.4487">
        <ele>428.9</ele>
        <time>2022-10-01T09:51:51Z</time>
      </trkpt>
      <trkpt lat="47.19379" lon="7.44868">
        <ele>428.9</ele>
        <time>2022-10-01T09:51:52Z</time>
      </trkpt>
      <trkpt lat="47.19384" lon="7.44868">
        <ele>428.9</ele>
        <time>2022-10-01T09:51:53Z</time>
      </trkpt>
      <trkpt lat="47.19389" lon="7.44866">
        <ele>428.9</ele>
        <time>2022-10-01T09:51:54Z</time>
      </trkpt>
      <trkpt lat="47.19395" lon="7.44864">
        <ele>429</ele>
        <time>2022-10-01T09:51:55Z</time>
      </trkpt>
      <trkpt lat="47.19399" lon="7.44862">
        <ele>429</ele>
        <time>2022-10-01T09:51:56Z</time>
      </trkpt>
      <trkpt lat="47.19404" lon="7.44859">
        <ele>429</ele>
        <time>2022-10-01T09:51:57Z</time>
      </trkpt>
      <trkpt lat="47.19409" lon="7.44857">
        <ele>429.1</ele>
        <time>2022-10-01T09:51:58Z</time>
      </trkpt>
      <trkpt lat="47.19413" lon="7.44854">
        <ele>429.1</ele>
        <time>2022-10-01T09:51:59Z</time>
      </trkpt>
      <trkpt lat="47.19418" lon="7.4485">
        <ele>429.1</ele>
        <time>2022-10-01T09:52:00Z</time>
      </trkpt>
      <trkpt lat="47.19421" lon="7.44848">
        <ele>429.2</ele>
        <time>2022-10-01T09:52:01Z</time>
      </trkpt>
      <trkpt lat="47.19425" lon="7.44844">
        <ele>429.2</ele>
        <time>2022-10-01T09:52:02Z</time>
      </trkpt>
      <trkpt lat="47.19429" lon="7.44842">
        <ele>429.2</ele>
        <time>2022-10-01T09:52:03Z</time>
      </trkpt>
      <trkpt lat="47.19433" lon="7.4484">
        <ele>429.3</ele>
        <time>2022-10-01T09:52:04Z</time>
      </trkpt>
      <trkpt lat="47.19437" lon="7.44837">
        <ele>429.3</ele>
        <time>2022-10-01T09:52:05Z</time>
      </trkpt>
      <trkpt lat="47.19441" lon="7.44834">
        <ele>429.3</ele>
        <time>2022-10-01T09:52:06Z</time>
      </trkpt>
      <trkpt lat="47.19446" lon="7.44829">
        <ele>429.4</ele>
        <time>2022-10-01T09:52:07Z</time>
      </trkpt>
      <trkpt lat="47.19451" lon="7.44826">
        <ele>429.4</ele>
        <time>2022-10-01T09:52:08Z</time>
      </trkpt>
      <trkpt lat="47.19454" lon="7.44823">
        <ele>429.5</ele>
        <time>2022-10-01T09:52:09Z</time>
      </trkpt>
      <trkpt lat="47.19458" lon="7.4482">
        <ele>429.5</ele>
        <time>2022-10-01T09:52:10Z</time>
      </trkpt>
      <trkpt lat="47.19462" lon="7.44818">
        <ele>429.6</ele>
        <time>2022-10-01T09:52:11Z</time>
      </trkpt>
      <trkpt lat="47.19468" lon="7.44814">
        <ele>429.6</ele>
        <time>2022-10-01T09:52:12Z</time>
      </trkpt>
      <trkpt lat="47.19472" lon="7.44811">
        <ele>429.7</ele>
        <time>2022-10-01T09:52:13Z</time>
      </trkpt>
      <trkpt lat="47.19477" lon="7.44807">
        <ele>429.7</ele>
        <time>2022-10-01T09:52:14Z</time>
      </trkpt>
      <trkpt lat="47.19481" lon="7.44804">
        <ele>429.8</ele>
        <time>2022-10-01T09:52:15Z</time>
      </trkpt>
      <trkpt lat="47.19485" lon="7.44801">
        <ele>429.8</ele>
        <time>2022-10-01T09:52:16Z</time>
      </trkpt>
      <trkpt lat="47.1949" lon="7.44799">
        <ele>429.9</ele>
        <time>2022-10-01T09:52:17Z</time>
      </trkpt>
      <trkpt lat="47.19494" lon="7.44796">
        <ele>429.9</ele>
        <time>2022-10-01T09:52:18Z</time>
      </trkpt>
      <trkpt lat="47.19498" lon="7.44793">
        <ele>430</ele>
        <time>2022-10-01T09:52:19Z</time>
      </trkpt>
      <trkpt lat="47.19504" lon="7.44792">
        <ele>430</ele>
        <time>2022-10-01T09:52:20Z</time>
      </trkpt>
      <trkpt lat="47.19508" lon="7.4479">
        <ele>430.1</ele>
        <time>2022-10-01T09:52:22Z</time>
      </trkpt>
      <trkpt lat="47.19511" lon="7.44787">
        <ele>430.1</ele>
        <time>2022-10-01T09:52:23Z</time>
      </trkpt>
      <trkpt lat="47.19516" lon="7.44785">
        <ele>430.2</ele>
        <time>2022-10-01T09:52:24Z</time>
      </trkpt>
      <trkpt lat="47.19521" lon="7.44782">
        <ele>430.2</ele>
        <time>2022-10-01T09:52:25Z</time>
      </trkpt>
      <trkpt lat="47.19525" lon="7.4478">
        <ele>430.2</ele>
        <time>2022-10-01T09:52:26Z</time>
      </trkpt>
      <trkpt lat="47.1953" lon="7.44776">
        <ele>430.3</ele>
        <time>2022-10-01T09:52:27Z</time>
      </trkpt>
      <trkpt lat="47.19535" lon="7.44773">
        <ele>430.3</ele>
        <time>2022-10-01T09:52:28Z</time>
      </trkpt>
      <trkpt lat="47.19539" lon="7.4477">
        <ele>430.4</ele>
        <time>2022-10-01T09:52:29Z</time>
      </trkpt>
      <trkpt lat="47.19543" lon="7.44768">
        <ele>430.4</ele>
        <time>2022-10-01T09:52:30Z</time>
      </trkpt>
      <trkpt lat="47.19548" lon="7.44765">
        <ele>430.4</ele>
        <time>2022-10-01T09:52:31Z</time>
      </trkpt>
      <trkpt lat="47.19552" lon="7.44763">
        <ele>430.5</ele>
        <time>2022-10-01T09:52:32Z</time>
      </trkpt>
      <trkpt lat="47.19557" lon="7.4476">
        <ele>430.5</ele>
        <time>2022-10-01T09:52:33Z</time>
      </trkpt>
      <trkpt lat="47.19562" lon="7.44758">
        <ele>430.5</ele>
        <time>2022-10-01T09:52:34Z</time>
      </trkpt>
      <trkpt lat="47.1957" lon="7.44755">
        <ele>430.6</ele>
        <time>2022-10-01T09:52:35Z</time>
      </trkpt>
      <trkpt lat="47.19576" lon="7.44752">
        <ele>430.7</ele>
        <time>2022-10-01T09:52:36Z</time>
      </trkpt>
      <trkpt lat="47.1958" lon="7.44751">
        <ele>430.7</ele>
        <time>2022-10-01T09:52:37Z</time>
      </trkpt>
      <trkpt lat="47.19584" lon="7.44749">
        <ele>430.8</ele>
        <time>2022-10-01T09:52:38Z</time>
      </trkpt>
      <trkpt lat="47.19589" lon="7.44746">
        <ele>430.8</ele>
        <time>2022-10-01T09:52:39Z</time>
      </trkpt>
      <trkpt lat="47.19594" lon="7.44745">
        <ele>430.9</ele>
        <time>2022-10-01T09:52:40Z</time>
      </trkpt>
      <trkpt lat="47.19597" lon="7.44743">
        <ele>430.9</ele>
        <time>2022-10-01T09:52:41Z</time>
      </trkpt>
      <trkpt lat="47.19601" lon="7.4474">
        <ele>431</ele>
        <time>2022-10-01T09:52:42Z</time>
      </trkpt>
      <trkpt lat="47.19605" lon="7.4474">
        <ele>431</ele>
        <time>2022-10-01T09:52:43Z</time>
      </trkpt>
      <trkpt lat="47.1961" lon="7.44739">
        <ele>431.1</ele>
        <time>2022-10-01T09:52:44Z</time>
      </trkpt>
      <trkpt lat="47.19615" lon="7.44738">
        <ele>431.1</ele>
        <time>2022-10-01T09:52:45Z</time>
      </trkpt>
      <trkpt lat="47.19619" lon="7.44736">
        <ele>431.2</ele>
        <time>2022-10-01T09:52:46Z</time>
      </trkpt>
      <trkpt lat="47.19623" lon="7.44734">
        <ele>431.2</ele>
        <time>2022-10-01T09:52:47Z</time>
      </trkpt>
      <trkpt lat="47.19627" lon="7.44732">
        <ele>431.3</ele>
        <time>2022-10-01T09:52:48Z</time>
      </trkpt>
      <trkpt lat="47.19631" lon="7.44731">
        <ele>431.3</ele>
        <time>2022-10-01T09:52:49Z</time>
      </trkpt>
      <trkpt lat="47.19635" lon="7.4473">
        <ele>431.4</ele>
        <time>2022-10-01T09:52:50Z</time>
      </trkpt>
      <trkpt lat="47.1964" lon="7.44729">
        <ele>431.4</ele>
        <time>2022-10-01T09:52:51Z</time>
      </trkpt>
      <trkpt lat="47.19644" lon="7.44728">
        <ele>431.5</ele>
        <time>2022-10-01T09:52:52Z</time>
      </trkpt>
      <trkpt lat="47.19649" lon="7.44726">
        <ele>431.6</ele>
        <time>2022-10-01T09:52:53Z</time>
      </trkpt>
      <trkpt lat="47.19654" lon="7.44726">
        <ele>431.7</ele>
        <time>2022-10-01T09:52:54Z</time>
      </trkpt>
      <trkpt lat="47.19658" lon="7.44725">
        <ele>431.7</ele>
        <time>2022-10-01T09:52:55Z</time>
      </trkpt>
      <trkpt lat="47.19663" lon="7.44725">
        <ele>431.8</ele>
        <time>2022-10-01T09:52:56Z</time>
      </trkpt>
      <trkpt lat="47.19667" lon="7.44725">
        <ele>431.8</ele>
        <time>2022-10-01T09:52:57Z</time>
      </trkpt>
      <trkpt lat="47.19671" lon="7.44725">
        <ele>431.9</ele>
        <time>2022-10-01T09:52:58Z</time>
      </trkpt>
      <trkpt lat="47.19675" lon="7.44727">
        <ele>432</ele>
        <time>2022-10-01T09:52:59Z</time>
      </trkpt>
      <trkpt lat="47.19679" lon="7.44727">
        <ele>432</ele>
        <time>2022-10-01T09:53:00Z</time>
      </trkpt>
      <trkpt lat="47.19684" lon="7.44728">
        <ele>432.1</ele>
        <time>2022-10-01T09:53:01Z</time>
      </trkpt>
      <trkpt lat="47.19688" lon="7.44728">
        <ele>432.1</ele>
        <time>2022-10-01T09:53:02Z</time>
      </trkpt>
      <trkpt lat="47.19691" lon="7.4473">
        <ele>432.2</ele>
        <time>2022-10-01T09:53:03Z</time>
      </trkpt>
      <trkpt lat="47.19695" lon="7.44731">
        <ele>432.3</ele>
        <time>2022-10-01T09:53:04Z</time>
      </trkpt>
      <trkpt lat="47.19699" lon="7.44733">
        <ele>432.4</ele>
        <time>2022-10-01T09:53:05Z</time>
      </trkpt>
      <trkpt lat="47.19701" lon="7.44735">
        <ele>432.4</ele>
        <time>2022-10-01T09:53:06Z</time>
      </trkpt>
      <trkpt lat="47.19705" lon="7.44736">
        <ele>432.5</ele>
        <time>2022-10-01T09:53:07Z</time>
      </trkpt>
      <trkpt lat="47.19706" lon="7.44737">
        <ele>432.6</ele>
        <time>2022-10-01T09:53:08Z</time>
      </trkpt>
      <trkpt lat="47.19708" lon="7.44738">
        <ele>432.6</ele>
        <time>2022-10-01T09:53:09Z</time>
      </trkpt>
      <trkpt lat="47.1971" lon="7.44741">
        <ele>432.7</ele>
        <time>2022-10-01T09:53:10Z</time>
      </trkpt>
      <trkpt lat="47.19712" lon="7.44745">
        <ele>432.8</ele>
        <time>2022-10-01T09:53:11Z</time>
      </trkpt>
      <trkpt lat="47.19713" lon="7.44747">
        <ele>432.8</ele>
        <time>2022-10-01T09:53:12Z</time>
      </trkpt>
      <trkpt lat="47.19714" lon="7.44751">
        <ele>432.8</ele>
        <time>2022-10-01T09:53:13Z</time>
      </trkpt>
      <trkpt lat="47.19714" lon="7.44757">
        <ele>432.8</ele>
        <time>2022-10-01T09:53:14Z</time>
      </trkpt>
      <trkpt lat="47.19714" lon="7.44759">
        <ele>432.8</ele>
        <time>2022-10-01T09:53:15Z</time>
      </trkpt>
      <trkpt lat="47.19715" lon="7.44763">
        <ele>432.8</ele>
        <time>2022-10-01T09:53:16Z</time>
      </trkpt>
      <trkpt lat="47.19716" lon="7.44768">
        <ele>432.8</ele>
        <time>2022-10-01T09:53:17Z</time>
      </trkpt>
      <trkpt lat="47.19717" lon="7.44773">
        <ele>432.7</ele>
        <time>2022-10-01T09:53:18Z</time>
      </trkpt>
      <trkpt lat="47.19718" lon="7.44779">
        <ele>432.7</ele>
        <time>2022-10-01T09:53:19Z</time>
      </trkpt>
      <trkpt lat="47.1972" lon="7.44786">
        <ele>432.7</ele>
        <time>2022-10-01T09:53:20Z</time>
      </trkpt>
      <trkpt lat="47.19721" lon="7.44793">
        <ele>432.7</ele>
        <time>2022-10-01T09:53:21Z</time>
      </trkpt>
      <trkpt lat="47.19722" lon="7.44799">
        <ele>432.7</ele>
        <time>2022-10-01T09:53:22Z</time>
      </trkpt>
      <trkpt lat="47.19724" lon="7.44806">
        <ele>432.7</ele>
        <time>2022-10-01T09:53:23Z</time>
      </trkpt>
      <trkpt lat="47.19726" lon="7.44811">
        <ele>432.7</ele>
        <time>2022-10-01T09:53:24Z</time>
      </trkpt>
      <trkpt lat="47.19726" lon="7.44819">
        <ele>432.7</ele>
        <time>2022-10-01T09:53:25Z</time>
      </trkpt>
      <trkpt lat="47.19728" lon="7.44825">
        <ele>432.7</ele>
        <time>2022-10-01T09:53:26Z</time>
      </trkpt>
      <trkpt lat="47.19729" lon="7.44832">
        <ele>432.7</ele>
        <time>2022-10-01T09:53:27Z</time>
      </trkpt>
      <trkpt lat="47.1973" lon="7.44839">
        <ele>432.7</ele>
        <time>2022-10-01T09:53:28Z</time>
      </trkpt>
      <trkpt lat="47.19733" lon="7.44846">
        <ele>432.7</ele>
        <time>2022-10-01T09:53:29Z</time>
      </trkpt>
      <trkpt lat="47.19734" lon="7.44854">
        <ele>432.8</ele>
        <time>2022-10-01T09:53:30Z</time>
      </trkpt>
      <trkpt lat="47.19736" lon="7.4486">
        <ele>432.8</ele>
        <time>2022-10-01T09:53:31Z</time>
      </trkpt>
      <trkpt lat="47.19737" lon="7.44869">
        <ele>432.8</ele>
        <time>2022-10-01T09:53:32Z</time>
      </trkpt>
      <trkpt lat="47.19739" lon="7.44877">
        <ele>432.9</ele>
        <time>2022-10-01T09:53:33Z</time>
      </trkpt>
      <trkpt lat="47.19739" lon="7.44883">
        <ele>432.9</ele>
        <time>2022-10-01T09:53:34Z</time>
      </trkpt>
      <trkpt lat="47.1974" lon="7.4489">
        <ele>432.9</ele>
        <time>2022-10-01T09:53:35Z</time>
      </trkpt>
      <trkpt lat="47.19744" lon="7.44899">
        <ele>432.9</ele>
        <time>2022-10-01T09:53:36Z</time>
      </trkpt>
      <trkpt lat="47.19745" lon="7.44907">
        <ele>432.9</ele>
        <time>2022-10-01T09:53:37Z</time>
      </trkpt>
      <trkpt lat="47.19747" lon="7.44915">
        <ele>432.9</ele>
        <time>2022-10-01T09:53:38Z</time>
      </trkpt>
      <trkpt lat="47.19749" lon="7.44922">
        <ele>432.9</ele>
        <time>2022-10-01T09:53:39Z</time>
      </trkpt>
      <trkpt lat="47.1975" lon="7.4493">
        <ele>432.9</ele>
        <time>2022-10-01T09:53:40Z</time>
      </trkpt>
      <trkpt lat="47.19751" lon="7.44937">
        <ele>432.9</ele>
        <time>2022-10-01T09:53:41Z</time>
      </trkpt>
      <trkpt lat="47.19753" lon="7.44945">
        <ele>432.9</ele>
        <time>2022-10-01T09:53:42Z</time>
      </trkpt>
      <trkpt lat="47.19755" lon="7.44953">
        <ele>432.9</ele>
        <time>2022-10-01T09:53:43Z</time>
      </trkpt>
      <trkpt lat="47.19757" lon="7.44961">
        <ele>432.9</ele>
        <time>2022-10-01T09:53:44Z</time>
      </trkpt>
      <trkpt lat="47.19758" lon="7.44968">
        <ele>432.9</ele>
        <time>2022-10-01T09:53:45Z</time>
      </trkpt>
      <trkpt lat="47.1976" lon="7.44975">
        <ele>432.9</ele>
        <time>2022-10-01T09:53:46Z</time>
      </trkpt>
      <trkpt lat="47.19761" lon="7.44983">
        <ele>432.9</ele>
        <time>2022-10-01T09:53:47Z</time>
      </trkpt>
      <trkpt lat="47.19763" lon="7.44991">
        <ele>432.9</ele>
        <time>2022-10-01T09:53:48Z</time>
      </trkpt>
      <trkpt lat="47.19765" lon="7.44999">
        <ele>432.9</ele>
        <time>2022-10-01T09:53:49Z</time>
      </trkpt>
      <trkpt lat="47.19766" lon="7.45007">
        <ele>432.9</ele>
        <time>2022-10-01T09:53:50Z</time>
      </trkpt>
      <trkpt lat="47.19768" lon="7.45014">
        <ele>432.9</ele>
        <time>2022-10-01T09:53:51Z</time>
      </trkpt>
      <trkpt lat="47.1977" lon="7.45022">
        <ele>432.9</ele>
        <time>2022-10-01T09:53:52Z</time>
      </trkpt>
      <trkpt lat="47.19771" lon="7.4503">
        <ele>432.9</ele>
        <time>2022-10-01T09:53:53Z</time>
      </trkpt>
      <trkpt lat="47.19772" lon="7.45038">
        <ele>432.9</ele>
        <time>2022-10-01T09:53:54Z</time>
      </trkpt>
      <trkpt lat="47.19774" lon="7.45045">
        <ele>433</ele>
        <time>2022-10-01T09:53:55Z</time>
      </trkpt>
      <trkpt lat="47.19775" lon="7.45052">
        <ele>433</ele>
        <time>2022-10-01T09:53:56Z</time>
      </trkpt>
      <trkpt lat="47.19777" lon="7.4506">
        <ele>433.1</ele>
        <time>2022-10-01T09:53:57Z</time>
      </trkpt>
      <trkpt lat="47.19778" lon="7.45067">
        <ele>433.1</ele>
        <time>2022-10-01T09:53:58Z</time>
      </trkpt>
      <trkpt lat="47.1978" lon="7.45074">
        <ele>433.1</ele>
        <time>2022-10-01T09:53:59Z</time>
      </trkpt>
      <trkpt lat="47.19781" lon="7.45082">
        <ele>433.2</ele>
        <time>2022-10-01T09:54:00Z</time>
      </trkpt>
      <trkpt lat="47.19783" lon="7.45089">
        <ele>433.2</ele>
        <time>2022-10-01T09:54:01Z</time>
      </trkpt>
      <trkpt lat="47.19785" lon="7.45097">
        <ele>433.2</ele>
        <time>2022-10-01T09:54:02Z</time>
      </trkpt>
      <trkpt lat="47.19786" lon="7.45103">
        <ele>433.2</ele>
        <time>2022-10-01T09:54:03Z</time>
      </trkpt>
      <trkpt lat="47.19787" lon="7.4511">
        <ele>433.2</ele>
        <time>2022-10-01T09:54:04Z</time>
      </trkpt>
      <trkpt lat="47.19789" lon="7.45119">
        <ele>433.2</ele>
        <time>2022-10-01T09:54:05Z</time>
      </trkpt>
      <trkpt lat="47.1979" lon="7.45126">
        <ele>433.2</ele>
        <time>2022-10-01T09:54:06Z</time>
      </trkpt>
      <trkpt lat="47.19791" lon="7.45133">
        <ele>433.2</ele>
        <time>2022-10-01T09:54:07Z</time>
      </trkpt>
      <trkpt lat="47.19793" lon="7.45141">
        <ele>433.3</ele>
        <time>2022-10-01T09:54:08Z</time>
      </trkpt>
      <trkpt lat="47.19794" lon="7.45148">
        <ele>433.3</ele>
        <time>2022-10-01T09:54:09Z</time>
      </trkpt>
      <trkpt lat="47.19796" lon="7.45156">
        <ele>433.3</ele>
        <time>2022-10-01T09:54:10Z</time>
      </trkpt>
      <trkpt lat="47.19797" lon="7.45163">
        <ele>433.3</ele>
        <time>2022-10-01T09:54:11Z</time>
      </trkpt>
      <trkpt lat="47.19799" lon="7.45171">
        <ele>433.3</ele>
        <time>2022-10-01T09:54:12Z</time>
      </trkpt>
      <trkpt lat="47.198" lon="7.45178">
        <ele>433.3</ele>
        <time>2022-10-01T09:54:13Z</time>
      </trkpt>
      <trkpt lat="47.19802" lon="7.45186">
        <ele>433.3</ele>
        <time>2022-10-01T09:54:14Z</time>
      </trkpt>
      <trkpt lat="47.19803" lon="7.45193">
        <ele>433.3</ele>
        <time>2022-10-01T09:54:15Z</time>
      </trkpt>
      <trkpt lat="47.19805" lon="7.45201">
        <ele>433.3</ele>
        <time>2022-10-01T09:54:16Z</time>
      </trkpt>
      <trkpt lat="47.19806" lon="7.45208">
        <ele>433.4</ele>
        <time>2022-10-01T09:54:17Z</time>
      </trkpt>
      <trkpt lat="47.19808" lon="7.45216">
        <ele>433.4</ele>
        <time>2022-10-01T09:54:18Z</time>
      </trkpt>
      <trkpt lat="47.19809" lon="7.45223">
        <ele>433.4</ele>
        <time>2022-10-01T09:54:19Z</time>
      </trkpt>
      <trkpt lat="47.19811" lon="7.45231">
        <ele>433.4</ele>
        <time>2022-10-01T09:54:20Z</time>
      </trkpt>
      <trkpt lat="47.19813" lon="7.45239">
        <ele>433.4</ele>
        <time>2022-10-01T09:54:21Z</time>
      </trkpt>
      <trkpt lat="47.19814" lon="7.45248">
        <ele>433.4</ele>
        <time>2022-10-01T09:54:22Z</time>
      </trkpt>
      <trkpt lat="47.19815" lon="7.45255">
        <ele>433.4</ele>
        <time>2022-10-01T09:54:23Z</time>
      </trkpt>
      <trkpt lat="47.19817" lon="7.45263">
        <ele>433.5</ele>
        <time>2022-10-01T09:54:24Z</time>
      </trkpt>
      <trkpt lat="47.19818" lon="7.4527">
        <ele>433.5</ele>
        <time>2022-10-01T09:54:25Z</time>
      </trkpt>
      <trkpt lat="47.1982" lon="7.45278">
        <ele>433.5</ele>
        <time>2022-10-01T09:54:26Z</time>
      </trkpt>
      <trkpt lat="47.19822" lon="7.45284">
        <ele>433.5</ele>
        <time>2022-10-01T09:54:28Z</time>
      </trkpt>
      <trkpt lat="47.19823" lon="7.45291">
        <ele>433.6</ele>
        <time>2022-10-01T09:54:29Z</time>
      </trkpt>
      <trkpt lat="47.19825" lon="7.45297">
        <ele>433.6</ele>
        <time>2022-10-01T09:54:30Z</time>
      </trkpt>
      <trkpt lat="47.19828" lon="7.45312">
        <ele>433.6</ele>
        <time>2022-10-01T09:54:31Z</time>
      </trkpt>
      <trkpt lat="47.19829" lon="7.45319">
        <ele>433.6</ele>
        <time>2022-10-01T09:54:32Z</time>
      </trkpt>
      <trkpt lat="47.1983" lon="7.45327">
        <ele>433.6</ele>
        <time>2022-10-01T09:54:33Z</time>
      </trkpt>
      <trkpt lat="47.19833" lon="7.45333">
        <ele>433.6</ele>
        <time>2022-10-01T09:54:34Z</time>
      </trkpt>
      <trkpt lat="47.19834" lon="7.45341">
        <ele>433.6</ele>
        <time>2022-10-01T09:54:36Z</time>
      </trkpt>
      <trkpt lat="47.19838" lon="7.45355">
        <ele>433.7</ele>
        <time>2022-10-01T09:54:37Z</time>
      </trkpt>
      <trkpt lat="47.19839" lon="7.45363">
        <ele>433.7</ele>
        <time>2022-10-01T09:54:38Z</time>
      </trkpt>
      <trkpt lat="47.19841" lon="7.45371">
        <ele>433.7</ele>
        <time>2022-10-01T09:54:39Z</time>
      </trkpt>
      <trkpt lat="47.19842" lon="7.45378">
        <ele>433.7</ele>
        <time>2022-10-01T09:54:40Z</time>
      </trkpt>
      <trkpt lat="47.19843" lon="7.45386">
        <ele>433.7</ele>
        <time>2022-10-01T09:54:41Z</time>
      </trkpt>
      <trkpt lat="47.19844" lon="7.45394">
        <ele>433.7</ele>
        <time>2022-10-01T09:54:42Z</time>
      </trkpt>
      <trkpt lat="47.19847" lon="7.45401">
        <ele>433.7</ele>
        <time>2022-10-01T09:54:44Z</time>
      </trkpt>
      <trkpt lat="47.19848" lon="7.4541">
        <ele>433.7</ele>
        <time>2022-10-01T09:54:45Z</time>
      </trkpt>
      <trkpt lat="47.19849" lon="7.45419">
        <ele>433.7</ele>
        <time>2022-10-01T09:54:46Z</time>
      </trkpt>
      <trkpt lat="47.19851" lon="7.45427">
        <ele>433.7</ele>
        <time>2022-10-01T09:54:47Z</time>
      </trkpt>
      <trkpt lat="47.19852" lon="7.45436">
        <ele>433.7</ele>
        <time>2022-10-01T09:54:48Z</time>
      </trkpt>
      <trkpt lat="47.19854" lon="7.45444">
        <ele>433.6</ele>
        <time>2022-10-01T09:54:49Z</time>
      </trkpt>
      <trkpt lat="47.19856" lon="7.45453">
        <ele>433.6</ele>
        <time>2022-10-01T09:54:50Z</time>
      </trkpt>
      <trkpt lat="47.19858" lon="7.45463">
        <ele>433.6</ele>
        <time>2022-10-01T09:54:51Z</time>
      </trkpt>
      <trkpt lat="47.1986" lon="7.45472">
        <ele>433.6</ele>
        <time>2022-10-01T09:54:52Z</time>
      </trkpt>
      <trkpt lat="47.19862" lon="7.45481">
        <ele>433.6</ele>
        <time>2022-10-01T09:54:53Z</time>
      </trkpt>
      <trkpt lat="47.19864" lon="7.45491">
        <ele>433.5</ele>
        <time>2022-10-01T09:54:54Z</time>
      </trkpt>
      <trkpt lat="47.19866" lon="7.45502">
        <ele>433.5</ele>
        <time>2022-10-01T09:54:55Z</time>
      </trkpt>
      <trkpt lat="47.1987" lon="7.45522">
        <ele>433.5</ele>
        <time>2022-10-01T09:54:56Z</time>
      </trkpt>
      <trkpt lat="47.19872" lon="7.45532">
        <ele>433.6</ele>
        <time>2022-10-01T09:54:57Z</time>
      </trkpt>
      <trkpt lat="47.19874" lon="7.45543">
        <ele>433.6</ele>
        <time>2022-10-01T09:54:58Z</time>
      </trkpt>
      <trkpt lat="47.19876" lon="7.45553">
        <ele>433.6</ele>
        <time>2022-10-01T09:54:59Z</time>
      </trkpt>
      <trkpt lat="47.19878" lon="7.45563">
        <ele>433.6</ele>
        <time>2022-10-01T09:55:00Z</time>
      </trkpt>
      <trkpt lat="47.1988" lon="7.45574">
        <ele>433.7</ele>
        <time>2022-10-01T09:55:01Z</time>
      </trkpt>
      <trkpt lat="47.19883" lon="7.45585">
        <ele>433.7</ele>
        <time>2022-10-01T09:55:02Z</time>
      </trkpt>
      <trkpt lat="47.19885" lon="7.45596">
        <ele>433.7</ele>
        <time>2022-10-01T09:55:03Z</time>
      </trkpt>
      <trkpt lat="47.19887" lon="7.45606">
        <ele>433.7</ele>
        <time>2022-10-01T09:55:04Z</time>
      </trkpt>
      <trkpt lat="47.19889" lon="7.45617">
        <ele>433.6</ele>
        <time>2022-10-01T09:55:05Z</time>
      </trkpt>
      <trkpt lat="47.19891" lon="7.45628">
        <ele>433.6</ele>
        <time>2022-10-01T09:55:06Z</time>
      </trkpt>
      <trkpt lat="47.19894" lon="7.4564">
        <ele>433.5</ele>
        <time>2022-10-01T09:55:07Z</time>
      </trkpt>
      <trkpt lat="47.19896" lon="7.45651">
        <ele>433.5</ele>
        <time>2022-10-01T09:55:08Z</time>
      </trkpt>
      <trkpt lat="47.19898" lon="7.45661">
        <ele>433.4</ele>
        <time>2022-10-01T09:55:09Z</time>
      </trkpt>
      <trkpt lat="47.199" lon="7.45672">
        <ele>433.4</ele>
        <time>2022-10-01T09:55:10Z</time>
      </trkpt>
      <trkpt lat="47.19903" lon="7.45683">
        <ele>433.4</ele>
        <time>2022-10-01T09:55:11Z</time>
      </trkpt>
      <trkpt lat="47.19905" lon="7.45695">
        <ele>433.3</ele>
        <time>2022-10-01T09:55:12Z</time>
      </trkpt>
      <trkpt lat="47.19907" lon="7.45707">
        <ele>433.2</ele>
        <time>2022-10-01T09:55:13Z</time>
      </trkpt>
      <trkpt lat="47.19909" lon="7.45718">
        <ele>433.2</ele>
        <time>2022-10-01T09:55:14Z</time>
      </trkpt>
      <trkpt lat="47.19911" lon="7.45729">
        <ele>433.1</ele>
        <time>2022-10-01T09:55:15Z</time>
      </trkpt>
      <trkpt lat="47.19914" lon="7.4574">
        <ele>433.1</ele>
        <time>2022-10-01T09:55:16Z</time>
      </trkpt>
      <trkpt lat="47.19916" lon="7.45751">
        <ele>433</ele>
        <time>2022-10-01T09:55:17Z</time>
      </trkpt>
      <trkpt lat="47.19919" lon="7.45763">
        <ele>433</ele>
        <time>2022-10-01T09:55:18Z</time>
      </trkpt>
      <trkpt lat="47.19921" lon="7.45774">
        <ele>432.9</ele>
        <time>2022-10-01T09:55:19Z</time>
      </trkpt>
      <trkpt lat="47.19922" lon="7.45786">
        <ele>432.9</ele>
        <time>2022-10-01T09:55:20Z</time>
      </trkpt>
      <trkpt lat="47.19924" lon="7.45798">
        <ele>432.8</ele>
        <time>2022-10-01T09:55:21Z</time>
      </trkpt>
      <trkpt lat="47.19927" lon="7.45808">
        <ele>432.8</ele>
        <time>2022-10-01T09:55:22Z</time>
      </trkpt>
      <trkpt lat="47.19929" lon="7.4582">
        <ele>432.7</ele>
        <time>2022-10-01T09:55:23Z</time>
      </trkpt>
      <trkpt lat="47.19931" lon="7.45831">
        <ele>432.7</ele>
        <time>2022-10-01T09:55:24Z</time>
      </trkpt>
      <trkpt lat="47.19934" lon="7.45842">
        <ele>432.6</ele>
        <time>2022-10-01T09:55:25Z</time>
      </trkpt>
      <trkpt lat="47.19936" lon="7.45853">
        <ele>432.6</ele>
        <time>2022-10-01T09:55:26Z</time>
      </trkpt>
      <trkpt lat="47.19939" lon="7.45864">
        <ele>432.6</ele>
        <time>2022-10-01T09:55:27Z</time>
      </trkpt>
      <trkpt lat="47.19941" lon="7.45875">
        <ele>432.7</ele>
        <time>2022-10-01T09:55:28Z</time>
      </trkpt>
      <trkpt lat="47.19943" lon="7.45886">
        <ele>432.7</ele>
        <time>2022-10-01T09:55:29Z</time>
      </trkpt>
      <trkpt lat="47.19945" lon="7.45896">
        <ele>432.7</ele>
        <time>2022-10-01T09:55:30Z</time>
      </trkpt>
      <trkpt lat="47.19947" lon="7.45907">
        <ele>432.7</ele>
        <time>2022-10-01T09:55:31Z</time>
      </trkpt>
      <trkpt lat="47.19949" lon="7.45917">
        <ele>432.8</ele>
        <time>2022-10-01T09:55:32Z</time>
      </trkpt>
      <trkpt lat="47.19951" lon="7.45927">
        <ele>432.8</ele>
        <time>2022-10-01T09:55:33Z</time>
      </trkpt>
      <trkpt lat="47.19953" lon="7.45938">
        <ele>432.8</ele>
        <time>2022-10-01T09:55:34Z</time>
      </trkpt>
      <trkpt lat="47.19954" lon="7.45948">
        <ele>432.8</ele>
        <time>2022-10-01T09:55:35Z</time>
      </trkpt>
      <trkpt lat="47.19956" lon="7.45958">
        <ele>432.8</ele>
        <time>2022-10-01T09:55:36Z</time>
      </trkpt>
      <trkpt lat="47.19958" lon="7.45968">
        <ele>432.8</ele>
        <time>2022-10-01T09:55:37Z</time>
      </trkpt>
      <trkpt lat="47.1996" lon="7.45978">
        <ele>432.7</ele>
        <time>2022-10-01T09:55:38Z</time>
      </trkpt>
      <trkpt lat="47.19962" lon="7.45989">
        <ele>432.6</ele>
        <time>2022-10-01T09:55:39Z</time>
      </trkpt>
      <trkpt lat="47.19964" lon="7.45999">
        <ele>432.4</ele>
        <time>2022-10-01T09:55:40Z</time>
      </trkpt>
      <trkpt lat="47.19967" lon="7.4601">
        <ele>432.2</ele>
        <time>2022-10-01T09:55:41Z</time>
      </trkpt>
      <trkpt lat="47.19968" lon="7.46021">
        <ele>432</ele>
        <time>2022-10-01T09:55:42Z</time>
      </trkpt>
      <trkpt lat="47.1997" lon="7.46032">
        <ele>431.8</ele>
        <time>2022-10-01T09:55:43Z</time>
      </trkpt>
      <trkpt lat="47.19973" lon="7.46044">
        <ele>431.7</ele>
        <time>2022-10-01T09:55:44Z</time>
      </trkpt>
      <trkpt lat="47.19975" lon="7.46056">
        <ele>431.5</ele>
        <time>2022-10-01T09:55:45Z</time>
      </trkpt>
      <trkpt lat="47.19977" lon="7.46068">
        <ele>431.3</ele>
        <time>2022-10-01T09:55:46Z</time>
      </trkpt>
      <trkpt lat="47.1998" lon="7.4608">
        <ele>431.2</ele>
        <time>2022-10-01T09:55:47Z</time>
      </trkpt>
      <trkpt lat="47.19982" lon="7.46093">
        <ele>431</ele>
        <time>2022-10-01T09:55:48Z</time>
      </trkpt>
      <trkpt lat="47.19984" lon="7.46105">
        <ele>430.9</ele>
        <time>2022-10-01T09:55:49Z</time>
      </trkpt>
      <trkpt lat="47.19987" lon="7.46116">
        <ele>430.8</ele>
        <time>2022-10-01T09:55:50Z</time>
      </trkpt>
      <trkpt lat="47.19989" lon="7.46128">
        <ele>430.8</ele>
        <time>2022-10-01T09:55:51Z</time>
      </trkpt>
      <trkpt lat="47.19992" lon="7.46139">
        <ele>430.7</ele>
        <time>2022-10-01T09:55:52Z</time>
      </trkpt>
      <trkpt lat="47.19994" lon="7.46149">
        <ele>430.7</ele>
        <time>2022-10-01T09:55:53Z</time>
      </trkpt>
      <trkpt lat="47.19996" lon="7.46158">
        <ele>430.7</ele>
        <time>2022-10-01T09:55:54Z</time>
      </trkpt>
      <trkpt lat="47.19998" lon="7.46167">
        <ele>430.7</ele>
        <time>2022-10-01T09:55:55Z</time>
      </trkpt>
      <trkpt lat="47.2" lon="7.46177">
        <ele>430.7</ele>
        <time>2022-10-01T09:55:56Z</time>
      </trkpt>
      <trkpt lat="47.20002" lon="7.46186">
        <ele>430.6</ele>
        <time>2022-10-01T09:55:57Z</time>
      </trkpt>
      <trkpt lat="47.20004" lon="7.46196">
        <ele>430.6</ele>
        <time>2022-10-01T09:55:58Z</time>
      </trkpt>
      <trkpt lat="47.20006" lon="7.46206">
        <ele>430.5</ele>
        <time>2022-10-01T09:55:59Z</time>
      </trkpt>
      <trkpt lat="47.20008" lon="7.46216">
        <ele>430.5</ele>
        <time>2022-10-01T09:56:00Z</time>
      </trkpt>
      <trkpt lat="47.2001" lon="7.46226">
        <ele>430.5</ele>
        <time>2022-10-01T09:56:01Z</time>
      </trkpt>
      <trkpt lat="47.20012" lon="7.46236">
        <ele>430.5</ele>
        <time>2022-10-01T09:56:02Z</time>
      </trkpt>
      <trkpt lat="47.20014" lon="7.46246">
        <ele>430.4</ele>
        <time>2022-10-01T09:56:03Z</time>
      </trkpt>
      <trkpt lat="47.20016" lon="7.46256">
        <ele>430.3</ele>
        <time>2022-10-01T09:56:04Z</time>
      </trkpt>
      <trkpt lat="47.20018" lon="7.46267">
        <ele>430.3</ele>
        <time>2022-10-01T09:56:05Z</time>
      </trkpt>
      <trkpt lat="47.2002" lon="7.46277">
        <ele>430.2</ele>
        <time>2022-10-01T09:56:06Z</time>
      </trkpt>
      <trkpt lat="47.20022" lon="7.46288">
        <ele>430.1</ele>
        <time>2022-10-01T09:56:07Z</time>
      </trkpt>
      <trkpt lat="47.20024" lon="7.46299">
        <ele>430.1</ele>
        <time>2022-10-01T09:56:08Z</time>
      </trkpt>
      <trkpt lat="47.20027" lon="7.4631">
        <ele>430</ele>
        <time>2022-10-01T09:56:09Z</time>
      </trkpt>
      <trkpt lat="47.20028" lon="7.46321">
        <ele>429.9</ele>
        <time>2022-10-01T09:56:10Z</time>
      </trkpt>
      <trkpt lat="47.20031" lon="7.46332">
        <ele>429.8</ele>
        <time>2022-10-01T09:56:11Z</time>
      </trkpt>
      <trkpt lat="47.20033" lon="7.46344">
        <ele>429.8</ele>
        <time>2022-10-01T09:56:12Z</time>
      </trkpt>
      <trkpt lat="47.20036" lon="7.46355">
        <ele>429.7</ele>
        <time>2022-10-01T09:56:13Z</time>
      </trkpt>
      <trkpt lat="47.20038" lon="7.46367">
        <ele>429.6</ele>
        <time>2022-10-01T09:56:14Z</time>
      </trkpt>
      <trkpt lat="47.2004" lon="7.46379">
        <ele>429.5</ele>
        <time>2022-10-01T09:56:15Z</time>
      </trkpt>
      <trkpt lat="47.20042" lon="7.46392">
        <ele>429.4</ele>
        <time>2022-10-01T09:56:16Z</time>
      </trkpt>
      <trkpt lat="47.20045" lon="7.46404">
        <ele>429.4</ele>
        <time>2022-10-01T09:56:17Z</time>
      </trkpt>
      <trkpt lat="47.20048" lon="7.46416">
        <ele>429.3</ele>
        <time>2022-10-01T09:56:18Z</time>
      </trkpt>
      <trkpt lat="47.2005" lon="7.46429">
        <ele>429.3</ele>
        <time>2022-10-01T09:56:19Z</time>
      </trkpt>
      <trkpt lat="47.20052" lon="7.46442">
        <ele>429.2</ele>
        <time>2022-10-01T09:56:20Z</time>
      </trkpt>
      <trkpt lat="47.20055" lon="7.46454">
        <ele>429.2</ele>
        <time>2022-10-01T09:56:21Z</time>
      </trkpt>
      <trkpt lat="47.20057" lon="7.46466">
        <ele>429.2</ele>
        <time>2022-10-01T09:56:22Z</time>
      </trkpt>
      <trkpt lat="47.2006" lon="7.46478">
        <ele>429.1</ele>
        <time>2022-10-01T09:56:23Z</time>
      </trkpt>
      <trkpt lat="47.20062" lon="7.46491">
        <ele>429.1</ele>
        <time>2022-10-01T09:56:24Z</time>
      </trkpt>
      <trkpt lat="47.20065" lon="7.46503">
        <ele>429.1</ele>
        <time>2022-10-01T09:56:25Z</time>
      </trkpt>
      <trkpt lat="47.20067" lon="7.46514">
        <ele>429.1</ele>
        <time>2022-10-01T09:56:26Z</time>
      </trkpt>
      <trkpt lat="47.2007" lon="7.46526">
        <ele>429.1</ele>
        <time>2022-10-01T09:56:27Z</time>
      </trkpt>
      <trkpt lat="47.20072" lon="7.46538">
        <ele>429.1</ele>
        <time>2022-10-01T09:56:28Z</time>
      </trkpt>
      <trkpt lat="47.20075" lon="7.46549">
        <ele>429.2</ele>
        <time>2022-10-01T09:56:29Z</time>
      </trkpt>
      <trkpt lat="47.20076" lon="7.46561">
        <ele>429.2</ele>
        <time>2022-10-01T09:56:30Z</time>
      </trkpt>
      <trkpt lat="47.20079" lon="7.46572">
        <ele>429.1</ele>
        <time>2022-10-01T09:56:32Z</time>
      </trkpt>
      <trkpt lat="47.20081" lon="7.46582">
        <ele>429.1</ele>
        <time>2022-10-01T09:56:33Z</time>
      </trkpt>
      <trkpt lat="47.20084" lon="7.46592">
        <ele>429.1</ele>
        <time>2022-10-01T09:56:34Z</time>
      </trkpt>
      <trkpt lat="47.20086" lon="7.46603">
        <ele>429.1</ele>
        <time>2022-10-01T09:56:35Z</time>
      </trkpt>
      <trkpt lat="47.20087" lon="7.46615">
        <ele>429</ele>
        <time>2022-10-01T09:56:36Z</time>
      </trkpt>
      <trkpt lat="47.2009" lon="7.46626">
        <ele>429</ele>
        <time>2022-10-01T09:56:37Z</time>
      </trkpt>
      <trkpt lat="47.20092" lon="7.46637">
        <ele>429</ele>
        <time>2022-10-01T09:56:38Z</time>
      </trkpt>
      <trkpt lat="47.20094" lon="7.46648">
        <ele>428.9</ele>
        <time>2022-10-01T09:56:39Z</time>
      </trkpt>
      <trkpt lat="47.20097" lon="7.4666">
        <ele>428.9</ele>
        <time>2022-10-01T09:56:40Z</time>
      </trkpt>
      <trkpt lat="47.20099" lon="7.46671">
        <ele>428.9</ele>
        <time>2022-10-01T09:56:41Z</time>
      </trkpt>
      <trkpt lat="47.20101" lon="7.46683">
        <ele>428.9</ele>
        <time>2022-10-01T09:56:42Z</time>
      </trkpt>
      <trkpt lat="47.20103" lon="7.46694">
        <ele>428.9</ele>
        <time>2022-10-01T09:56:43Z</time>
      </trkpt>
      <trkpt lat="47.20106" lon="7.46705">
        <ele>428.9</ele>
        <time>2022-10-01T09:56:44Z</time>
      </trkpt>
      <trkpt lat="47.20108" lon="7.46717">
        <ele>428.9</ele>
        <time>2022-10-01T09:56:45Z</time>
      </trkpt>
      <trkpt lat="47.20111" lon="7.46728">
        <ele>428.8</ele>
        <time>2022-10-01T09:56:46Z</time>
      </trkpt>
      <trkpt lat="47.20113" lon="7.46739">
        <ele>428.8</ele>
        <time>2022-10-01T09:56:47Z</time>
      </trkpt>
      <trkpt lat="47.20115" lon="7.4675">
        <ele>428.8</ele>
        <time>2022-10-01T09:56:48Z</time>
      </trkpt>
      <trkpt lat="47.20117" lon="7.46762">
        <ele>428.8</ele>
        <time>2022-10-01T09:56:49Z</time>
      </trkpt>
      <trkpt lat="47.20119" lon="7.46773">
        <ele>428.7</ele>
        <time>2022-10-01T09:56:50Z</time>
      </trkpt>
      <trkpt lat="47.20122" lon="7.46784">
        <ele>428.7</ele>
        <time>2022-10-01T09:56:51Z</time>
      </trkpt>
      <trkpt lat="47.20124" lon="7.46795">
        <ele>428.7</ele>
        <time>2022-10-01T09:56:52Z</time>
      </trkpt>
      <trkpt lat="47.20127" lon="7.46807">
        <ele>428.7</ele>
        <time>2022-10-01T09:56:53Z</time>
      </trkpt>
      <trkpt lat="47.20131" lon="7.4683">
        <ele>428.6</ele>
        <time>2022-10-01T09:56:54Z</time>
      </trkpt>
      <trkpt lat="47.20133" lon="7.46842">
        <ele>428.6</ele>
        <time>2022-10-01T09:56:55Z</time>
      </trkpt>
      <trkpt lat="47.20135" lon="7.46853">
        <ele>428.6</ele>
        <time>2022-10-01T09:56:56Z</time>
      </trkpt>
      <trkpt lat="47.20138" lon="7.46865">
        <ele>428.5</ele>
        <time>2022-10-01T09:56:57Z</time>
      </trkpt>
      <trkpt lat="47.2014" lon="7.46877">
        <ele>428.5</ele>
        <time>2022-10-01T09:56:58Z</time>
      </trkpt>
      <trkpt lat="47.20143" lon="7.46889">
        <ele>428.5</ele>
        <time>2022-10-01T09:56:59Z</time>
      </trkpt>
      <trkpt lat="47.20145" lon="7.46901">
        <ele>428.5</ele>
        <time>2022-10-01T09:57:00Z</time>
      </trkpt>
      <trkpt lat="47.20147" lon="7.46912">
        <ele>428.5</ele>
        <time>2022-10-01T09:57:01Z</time>
      </trkpt>
      <trkpt lat="47.2015" lon="7.46924">
        <ele>428.5</ele>
        <time>2022-10-01T09:57:02Z</time>
      </trkpt>
      <trkpt lat="47.20152" lon="7.46936">
        <ele>428.5</ele>
        <time>2022-10-01T09:57:03Z</time>
      </trkpt>
      <trkpt lat="47.20155" lon="7.46948">
        <ele>428.4</ele>
        <time>2022-10-01T09:57:04Z</time>
      </trkpt>
      <trkpt lat="47.20157" lon="7.4696">
        <ele>428.4</ele>
        <time>2022-10-01T09:57:05Z</time>
      </trkpt>
      <trkpt lat="47.2016" lon="7.46971">
        <ele>428.4</ele>
        <time>2022-10-01T09:57:06Z</time>
      </trkpt>
      <trkpt lat="47.20162" lon="7.46983">
        <ele>428.4</ele>
        <time>2022-10-01T09:57:07Z</time>
      </trkpt>
      <trkpt lat="47.20164" lon="7.46994">
        <ele>428.3</ele>
        <time>2022-10-01T09:57:08Z</time>
      </trkpt>
      <trkpt lat="47.20167" lon="7.47006">
        <ele>428.3</ele>
        <time>2022-10-01T09:57:09Z</time>
      </trkpt>
      <trkpt lat="47.20169" lon="7.47017">
        <ele>428.2</ele>
        <time>2022-10-01T09:57:10Z</time>
      </trkpt>
      <trkpt lat="47.20171" lon="7.47029">
        <ele>428.2</ele>
        <time>2022-10-01T09:57:11Z</time>
      </trkpt>
      <trkpt lat="47.20174" lon="7.4704">
        <ele>428.2</ele>
        <time>2022-10-01T09:57:12Z</time>
      </trkpt>
      <trkpt lat="47.20176" lon="7.47052">
        <ele>428.2</ele>
        <time>2022-10-01T09:57:13Z</time>
      </trkpt>
      <trkpt lat="47.20178" lon="7.47063">
        <ele>428.2</ele>
        <time>2022-10-01T09:57:14Z</time>
      </trkpt>
      <trkpt lat="47.20181" lon="7.47074">
        <ele>428.1</ele>
        <time>2022-10-01T09:57:15Z</time>
      </trkpt>
      <trkpt lat="47.20183" lon="7.47086">
        <ele>428.1</ele>
        <time>2022-10-01T09:57:16Z</time>
      </trkpt>
      <trkpt lat="47.20186" lon="7.47098">
        <ele>428.1</ele>
        <time>2022-10-01T09:57:17Z</time>
      </trkpt>
      <trkpt lat="47.20188" lon="7.47109">
        <ele>428.1</ele>
        <time>2022-10-01T09:57:18Z</time>
      </trkpt>
      <trkpt lat="47.2019" lon="7.47121">
        <ele>428.1</ele>
        <time>2022-10-01T09:57:19Z</time>
      </trkpt>
      <trkpt lat="47.20193" lon="7.47132">
        <ele>428.1</ele>
        <time>2022-10-01T09:57:20Z</time>
      </trkpt>
      <trkpt lat="47.20194" lon="7.47143">
        <ele>428</ele>
        <time>2022-10-01T09:57:21Z</time>
      </trkpt>
      <trkpt lat="47.20196" lon="7.47155">
        <ele>428</ele>
        <time>2022-10-01T09:57:22Z</time>
      </trkpt>
      <trkpt lat="47.20199" lon="7.47166">
        <ele>428</ele>
        <time>2022-10-01T09:57:23Z</time>
      </trkpt>
      <trkpt lat="47.20201" lon="7.47177">
        <ele>428</ele>
        <time>2022-10-01T09:57:24Z</time>
      </trkpt>
      <trkpt lat="47.20203" lon="7.47188">
        <ele>428</ele>
        <time>2022-10-01T09:57:25Z</time>
      </trkpt>
      <trkpt lat="47.20205" lon="7.47199">
        <ele>428</ele>
        <time>2022-10-01T09:57:26Z</time>
      </trkpt>
      <trkpt lat="47.20207" lon="7.47211">
        <ele>428</ele>
        <time>2022-10-01T09:57:27Z</time>
      </trkpt>
      <trkpt lat="47.2021" lon="7.47221">
        <ele>427.9</ele>
        <time>2022-10-01T09:57:28Z</time>
      </trkpt>
      <trkpt lat="47.20212" lon="7.47231">
        <ele>427.9</ele>
        <time>2022-10-01T09:57:29Z</time>
      </trkpt>
      <trkpt lat="47.20215" lon="7.47242">
        <ele>427.8</ele>
        <time>2022-10-01T09:57:30Z</time>
      </trkpt>
      <trkpt lat="47.20217" lon="7.47251">
        <ele>427.8</ele>
        <time>2022-10-01T09:57:31Z</time>
      </trkpt>
      <trkpt lat="47.20219" lon="7.4726">
        <ele>427.7</ele>
        <time>2022-10-01T09:57:32Z</time>
      </trkpt>
      <trkpt lat="47.2022" lon="7.47268">
        <ele>427.7</ele>
        <time>2022-10-01T09:57:33Z</time>
      </trkpt>
      <trkpt lat="47.20221" lon="7.47275">
        <ele>427.7</ele>
        <time>2022-10-01T09:57:34Z</time>
      </trkpt>
      <trkpt lat="47.20222" lon="7.47282">
        <ele>427.6</ele>
        <time>2022-10-01T09:57:35Z</time>
      </trkpt>
      <trkpt lat="47.20224" lon="7.47288">
        <ele>427.6</ele>
        <time>2022-10-01T09:57:36Z</time>
      </trkpt>
      <trkpt lat="47.20225" lon="7.47295">
        <ele>427.5</ele>
        <time>2022-10-01T09:57:37Z</time>
      </trkpt>
      <trkpt lat="47.20226" lon="7.47302">
        <ele>427.5</ele>
        <time>2022-10-01T09:57:38Z</time>
      </trkpt>
      <trkpt lat="47.20227" lon="7.47309">
        <ele>427.4</ele>
        <time>2022-10-01T09:57:39Z</time>
      </trkpt>
      <trkpt lat="47.20229" lon="7.47316">
        <ele>427.4</ele>
        <time>2022-10-01T09:57:40Z</time>
      </trkpt>
      <trkpt lat="47.2023" lon="7.47323">
        <ele>427.4</ele>
        <time>2022-10-01T09:57:41Z</time>
      </trkpt>
      <trkpt lat="47.20232" lon="7.4733">
        <ele>427.3</ele>
        <time>2022-10-01T09:57:42Z</time>
      </trkpt>
      <trkpt lat="47.20234" lon="7.47338">
        <ele>427.3</ele>
        <time>2022-10-01T09:57:43Z</time>
      </trkpt>
      <trkpt lat="47.20235" lon="7.47345">
        <ele>427.3</ele>
        <time>2022-10-01T09:57:44Z</time>
      </trkpt>
      <trkpt lat="47.20236" lon="7.47353">
        <ele>427.3</ele>
        <time>2022-10-01T09:57:45Z</time>
      </trkpt>
      <trkpt lat="47.20238" lon="7.4736">
        <ele>427.3</ele>
        <time>2022-10-01T09:57:46Z</time>
      </trkpt>
      <trkpt lat="47.2024" lon="7.47369">
        <ele>427.3</ele>
        <time>2022-10-01T09:57:47Z</time>
      </trkpt>
      <trkpt lat="47.20242" lon="7.47377">
        <ele>427.2</ele>
        <time>2022-10-01T09:57:48Z</time>
      </trkpt>
      <trkpt lat="47.20242" lon="7.47386">
        <ele>427.2</ele>
        <time>2022-10-01T09:57:49Z</time>
      </trkpt>
      <trkpt lat="47.20244" lon="7.47394">
        <ele>427.2</ele>
        <time>2022-10-01T09:57:50Z</time>
      </trkpt>
      <trkpt lat="47.20245" lon="7.47403">
        <ele>427.2</ele>
        <time>2022-10-01T09:57:51Z</time>
      </trkpt>
      <trkpt lat="47.20247" lon="7.47411">
        <ele>427.2</ele>
        <time>2022-10-01T09:57:52Z</time>
      </trkpt>
      <trkpt lat="47.20249" lon="7.47419">
        <ele>427.2</ele>
        <time>2022-10-01T09:57:53Z</time>
      </trkpt>
      <trkpt lat="47.2025" lon="7.47427">
        <ele>427.1</ele>
        <time>2022-10-01T09:57:54Z</time>
      </trkpt>
      <trkpt lat="47.20253" lon="7.47435">
        <ele>427.1</ele>
        <time>2022-10-01T09:57:55Z</time>
      </trkpt>
      <trkpt lat="47.20254" lon="7.47443">
        <ele>427.1</ele>
        <time>2022-10-01T09:57:56Z</time>
      </trkpt>
      <trkpt lat="47.20256" lon="7.47451">
        <ele>427.1</ele>
        <time>2022-10-01T09:57:57Z</time>
      </trkpt>
      <trkpt lat="47.20258" lon="7.4746">
        <ele>427.1</ele>
        <time>2022-10-01T09:57:58Z</time>
      </trkpt>
      <trkpt lat="47.20259" lon="7.47468">
        <ele>427</ele>
        <time>2022-10-01T09:57:59Z</time>
      </trkpt>
      <trkpt lat="47.20261" lon="7.47476">
        <ele>427</ele>
        <time>2022-10-01T09:58:00Z</time>
      </trkpt>
      <trkpt lat="47.20263" lon="7.47484">
        <ele>427</ele>
        <time>2022-10-01T09:58:01Z</time>
      </trkpt>
      <trkpt lat="47.20264" lon="7.47492">
        <ele>427</ele>
        <time>2022-10-01T09:58:02Z</time>
      </trkpt>
      <trkpt lat="47.20266" lon="7.47501">
        <ele>427</ele>
        <time>2022-10-01T09:58:03Z</time>
      </trkpt>
      <trkpt lat="47.20268" lon="7.47509">
        <ele>427</ele>
        <time>2022-10-01T09:58:04Z</time>
      </trkpt>
      <trkpt lat="47.2027" lon="7.47518">
        <ele>427</ele>
        <time>2022-10-01T09:58:05Z</time>
      </trkpt>
      <trkpt lat="47.20271" lon="7.47526">
        <ele>427</ele>
        <time>2022-10-01T09:58:06Z</time>
      </trkpt>
      <trkpt lat="47.20273" lon="7.47534">
        <ele>427</ele>
        <time>2022-10-01T09:58:07Z</time>
      </trkpt>
      <trkpt lat="47.20274" lon="7.47543">
        <ele>427</ele>
        <time>2022-10-01T09:58:08Z</time>
      </trkpt>
      <trkpt lat="47.20276" lon="7.47552">
        <ele>427</ele>
        <time>2022-10-01T09:58:09Z</time>
      </trkpt>
      <trkpt lat="47.20277" lon="7.47561">
        <ele>427</ele>
        <time>2022-10-01T09:58:10Z</time>
      </trkpt>
      <trkpt lat="47.20279" lon="7.4757">
        <ele>427</ele>
        <time>2022-10-01T09:58:11Z</time>
      </trkpt>
      <trkpt lat="47.20281" lon="7.47578">
        <ele>427</ele>
        <time>2022-10-01T09:58:12Z</time>
      </trkpt>
      <trkpt lat="47.20282" lon="7.47586">
        <ele>427</ele>
        <time>2022-10-01T09:58:13Z</time>
      </trkpt>
      <trkpt lat="47.20284" lon="7.47593">
        <ele>427</ele>
        <time>2022-10-01T09:58:14Z</time>
      </trkpt>
      <trkpt lat="47.20286" lon="7.47602">
        <ele>426.9</ele>
        <time>2022-10-01T09:58:15Z</time>
      </trkpt>
      <trkpt lat="47.20288" lon="7.4761">
        <ele>426.9</ele>
        <time>2022-10-01T09:58:16Z</time>
      </trkpt>
      <trkpt lat="47.20289" lon="7.47618">
        <ele>426.9</ele>
        <time>2022-10-01T09:58:17Z</time>
      </trkpt>
      <trkpt lat="47.20291" lon="7.47626">
        <ele>426.9</ele>
        <time>2022-10-01T09:58:18Z</time>
      </trkpt>
      <trkpt lat="47.20293" lon="7.47635">
        <ele>426.9</ele>
        <time>2022-10-01T09:58:19Z</time>
      </trkpt>
      <trkpt lat="47.20295" lon="7.47643">
        <ele>426.9</ele>
        <time>2022-10-01T09:58:20Z</time>
      </trkpt>
      <trkpt lat="47.20296" lon="7.47652">
        <ele>427</ele>
        <time>2022-10-01T09:58:21Z</time>
      </trkpt>
      <trkpt lat="47.20298" lon="7.47661">
        <ele>427</ele>
        <time>2022-10-01T09:58:22Z</time>
      </trkpt>
      <trkpt lat="47.203" lon="7.47669">
        <ele>427</ele>
        <time>2022-10-01T09:58:23Z</time>
      </trkpt>
      <trkpt lat="47.20301" lon="7.47677">
        <ele>427</ele>
        <time>2022-10-01T09:58:24Z</time>
      </trkpt>
      <trkpt lat="47.20303" lon="7.47684">
        <ele>427</ele>
        <time>2022-10-01T09:58:25Z</time>
      </trkpt>
      <trkpt lat="47.20304" lon="7.47693">
        <ele>427</ele>
        <time>2022-10-01T09:58:26Z</time>
      </trkpt>
      <trkpt lat="47.20306" lon="7.477">
        <ele>427</ele>
        <time>2022-10-01T09:58:27Z</time>
      </trkpt>
      <trkpt lat="47.20307" lon="7.47708">
        <ele>427</ele>
        <time>2022-10-01T09:58:28Z</time>
      </trkpt>
      <trkpt lat="47.20309" lon="7.47716">
        <ele>427</ele>
        <time>2022-10-01T09:58:29Z</time>
      </trkpt>
      <trkpt lat="47.2031" lon="7.47725">
        <ele>427</ele>
        <time>2022-10-01T09:58:30Z</time>
      </trkpt>
      <trkpt lat="47.20312" lon="7.47733">
        <ele>427.1</ele>
        <time>2022-10-01T09:58:31Z</time>
      </trkpt>
      <trkpt lat="47.20314" lon="7.47741">
        <ele>427.1</ele>
        <time>2022-10-01T09:58:32Z</time>
      </trkpt>
      <trkpt lat="47.20315" lon="7.47748">
        <ele>427.1</ele>
        <time>2022-10-01T09:58:33Z</time>
      </trkpt>
      <trkpt lat="47.20317" lon="7.47757">
        <ele>427.1</ele>
        <time>2022-10-01T09:58:34Z</time>
      </trkpt>
      <trkpt lat="47.20319" lon="7.47765">
        <ele>427.1</ele>
        <time>2022-10-01T09:58:35Z</time>
      </trkpt>
      <trkpt lat="47.20321" lon="7.47773">
        <ele>427.2</ele>
        <time>2022-10-01T09:58:36Z</time>
      </trkpt>
      <trkpt lat="47.20322" lon="7.47781">
        <ele>427.2</ele>
        <time>2022-10-01T09:58:37Z</time>
      </trkpt>
      <trkpt lat="47.20324" lon="7.47789">
        <ele>427.2</ele>
        <time>2022-10-01T09:58:38Z</time>
      </trkpt>
      <trkpt lat="47.20326" lon="7.47796">
        <ele>427.2</ele>
        <time>2022-10-01T09:58:39Z</time>
      </trkpt>
      <trkpt lat="47.20327" lon="7.47803">
        <ele>427.3</ele>
        <time>2022-10-01T09:58:40Z</time>
      </trkpt>
      <trkpt lat="47.20328" lon="7.4781">
        <ele>427.3</ele>
        <time>2022-10-01T09:58:41Z</time>
      </trkpt>
      <trkpt lat="47.20329" lon="7.47819">
        <ele>427.3</ele>
        <time>2022-10-01T09:58:42Z</time>
      </trkpt>
      <trkpt lat="47.20331" lon="7.47828">
        <ele>427.4</ele>
        <time>2022-10-01T09:58:43Z</time>
      </trkpt>
      <trkpt lat="47.20333" lon="7.47836">
        <ele>427.4</ele>
        <time>2022-10-01T09:58:44Z</time>
      </trkpt>
      <trkpt lat="47.20334" lon="7.47844">
        <ele>427.4</ele>
        <time>2022-10-01T09:58:45Z</time>
      </trkpt>
      <trkpt lat="47.20336" lon="7.47852">
        <ele>427.4</ele>
        <time>2022-10-01T09:58:46Z</time>
      </trkpt>
      <trkpt lat="47.20338" lon="7.4786">
        <ele>427.5</ele>
        <time>2022-10-01T09:58:47Z</time>
      </trkpt>
      <trkpt lat="47.20339" lon="7.47869">
        <ele>427.5</ele>
        <time>2022-10-01T09:58:48Z</time>
      </trkpt>
      <trkpt lat="47.20341" lon="7.47877">
        <ele>427.5</ele>
        <time>2022-10-01T09:58:49Z</time>
      </trkpt>
      <trkpt lat="47.20343" lon="7.47885">
        <ele>427.5</ele>
        <time>2022-10-01T09:58:50Z</time>
      </trkpt>
      <trkpt lat="47.20344" lon="7.47894">
        <ele>427.6</ele>
        <time>2022-10-01T09:58:51Z</time>
      </trkpt>
      <trkpt lat="47.20346" lon="7.47903">
        <ele>427.6</ele>
        <time>2022-10-01T09:58:52Z</time>
      </trkpt>
      <trkpt lat="47.20348" lon="7.47911">
        <ele>427.6</ele>
        <time>2022-10-01T09:58:53Z</time>
      </trkpt>
      <trkpt lat="47.2035" lon="7.4792">
        <ele>427.6</ele>
        <time>2022-10-01T09:58:54Z</time>
      </trkpt>
      <trkpt lat="47.20352" lon="7.47927">
        <ele>427.6</ele>
        <time>2022-10-01T09:58:55Z</time>
      </trkpt>
      <trkpt lat="47.20353" lon="7.47936">
        <ele>427.7</ele>
        <time>2022-10-01T09:58:56Z</time>
      </trkpt>
      <trkpt lat="47.20355" lon="7.47944">
        <ele>427.7</ele>
        <time>2022-10-01T09:58:57Z</time>
      </trkpt>
      <trkpt lat="47.20357" lon="7.47952">
        <ele>427.7</ele>
        <time>2022-10-01T09:58:58Z</time>
      </trkpt>
      <trkpt lat="47.20358" lon="7.47959">
        <ele>427.8</ele>
        <time>2022-10-01T09:58:59Z</time>
      </trkpt>
      <trkpt lat="47.2036" lon="7.47967">
        <ele>427.8</ele>
        <time>2022-10-01T09:59:00Z</time>
      </trkpt>
      <trkpt lat="47.20362" lon="7.47974">
        <ele>427.9</ele>
        <time>2022-10-01T09:59:01Z</time>
      </trkpt>
      <trkpt lat="47.20363" lon="7.47981">
        <ele>427.9</ele>
        <time>2022-10-01T09:59:02Z</time>
      </trkpt>
      <trkpt lat="47.20364" lon="7.47987">
        <ele>428</ele>
        <time>2022-10-01T09:59:03Z</time>
      </trkpt>
      <trkpt lat="47.20365" lon="7.47992">
        <ele>428</ele>
        <time>2022-10-01T09:59:04Z</time>
      </trkpt>
      <trkpt lat="47.20366" lon="7.47997">
        <ele>428</ele>
        <time>2022-10-01T09:59:05Z</time>
      </trkpt>
      <trkpt lat="47.20366" lon="7.48004">
        <ele>428</ele>
        <time>2022-10-01T09:59:06Z</time>
      </trkpt>
      <trkpt lat="47.20365" lon="7.48007">
        <ele>428</ele>
        <time>2022-10-01T09:59:07Z</time>
      </trkpt>
      <trkpt lat="47.20362" lon="7.48009">
        <ele>428</ele>
        <time>2022-10-01T09:59:08Z</time>
      </trkpt>
      <trkpt lat="47.2036" lon="7.48011">
        <ele>428</ele>
        <time>2022-10-01T09:59:09Z</time>
      </trkpt>
      <trkpt lat="47.20357" lon="7.48013">
        <ele>428</ele>
        <time>2022-10-01T09:59:10Z</time>
      </trkpt>
      <trkpt lat="47.20355" lon="7.48015">
        <ele>427.9</ele>
        <time>2022-10-01T09:59:11Z</time>
      </trkpt>
      <trkpt lat="47.20352" lon="7.48018">
        <ele>427.9</ele>
        <time>2022-10-01T09:59:12Z</time>
      </trkpt>
      <trkpt lat="47.20351" lon="7.48022">
        <ele>427.9</ele>
        <time>2022-10-01T09:59:13Z</time>
      </trkpt>
      <trkpt lat="47.20349" lon="7.48025">
        <ele>427.9</ele>
        <time>2022-10-01T09:59:14Z</time>
      </trkpt>
      <trkpt lat="47.20346" lon="7.4803">
        <ele>427.9</ele>
        <time>2022-10-01T09:59:15Z</time>
      </trkpt>
      <trkpt lat="47.20343" lon="7.48033">
        <ele>427.9</ele>
        <time>2022-10-01T09:59:16Z</time>
      </trkpt>
      <trkpt lat="47.20342" lon="7.48033">
        <ele>427.9</ele>
        <time>2022-10-01T09:59:17Z</time>
      </trkpt>
      <trkpt lat="47.2034" lon="7.48036">
        <ele>427.9</ele>
        <time>2022-10-01T09:59:18Z</time>
      </trkpt>
      <trkpt lat="47.20338" lon="7.4804">
        <ele>427.9</ele>
        <time>2022-10-01T09:59:19Z</time>
      </trkpt>
      <trkpt lat="47.20336" lon="7.48043">
        <ele>427.9</ele>
        <time>2022-10-01T09:59:20Z</time>
      </trkpt>
      <trkpt lat="47.20333" lon="7.48048">
        <ele>427.9</ele>
        <time>2022-10-01T09:59:21Z</time>
      </trkpt>
      <trkpt lat="47.20332" lon="7.48051">
        <ele>427.9</ele>
        <time>2022-10-01T09:59:22Z</time>
      </trkpt>
      <trkpt lat="47.20329" lon="7.48056">
        <ele>427.9</ele>
        <time>2022-10-01T09:59:23Z</time>
      </trkpt>
      <trkpt lat="47.20327" lon="7.4806">
        <ele>427.9</ele>
        <time>2022-10-01T09:59:24Z</time>
      </trkpt>
      <trkpt lat="47.20324" lon="7.48065">
        <ele>427.9</ele>
        <time>2022-10-01T09:59:25Z</time>
      </trkpt>
      <trkpt lat="47.20322" lon="7.48071">
        <ele>427.9</ele>
        <time>2022-10-01T09:59:26Z</time>
      </trkpt>
      <trkpt lat="47.20319" lon="7.48076">
        <ele>427.9</ele>
        <time>2022-10-01T09:59:27Z</time>
      </trkpt>
      <trkpt lat="47.20317" lon="7.48081">
        <ele>427.9</ele>
        <time>2022-10-01T09:59:28Z</time>
      </trkpt>
      <trkpt lat="47.20314" lon="7.48086">
        <ele>427.9</ele>
        <time>2022-10-01T09:59:29Z</time>
      </trkpt>
      <trkpt lat="47.20313" lon="7.48087">
        <ele>427.9</ele>
        <time>2022-10-01T09:59:30Z</time>
      </trkpt>
      <trkpt lat="47.20312" lon="7.48091">
        <ele>427.9</ele>
        <time>2022-10-01T09:59:31Z</time>
      </trkpt>
      <trkpt lat="47.2031" lon="7.48095">
        <ele>427.9</ele>
        <time>2022-10-01T09:59:32Z</time>
      </trkpt>
      <trkpt lat="47.20307" lon="7.48101">
        <ele>427.9</ele>
        <time>2022-10-01T09:59:33Z</time>
      </trkpt>
      <trkpt lat="47.20305" lon="7.48105">
        <ele>427.9</ele>
        <time>2022-10-01T09:59:34Z</time>
      </trkpt>
      <trkpt lat="47.20303" lon="7.48109">
        <ele>427.9</ele>
        <time>2022-10-01T09:59:35Z</time>
      </trkpt>
      <trkpt lat="47.20301" lon="7.48113">
        <ele>427.9</ele>
        <time>2022-10-01T09:59:36Z</time>
      </trkpt>
      <trkpt lat="47.20298" lon="7.48118">
        <ele>427.9</ele>
        <time>2022-10-01T09:59:37Z</time>
      </trkpt>
      <trkpt lat="47.20295" lon="7.48122">
        <ele>427.9</ele>
        <time>2022-10-01T09:59:38Z</time>
      </trkpt>
      <trkpt lat="47.20293" lon="7.48127">
        <ele>427.9</ele>
        <time>2022-10-01T09:59:39Z</time>
      </trkpt>
      <trkpt lat="47.2029" lon="7.48132">
        <ele>427.9</ele>
        <time>2022-10-01T09:59:40Z</time>
      </trkpt>
      <trkpt lat="47.20287" lon="7.48138">
        <ele>428</ele>
        <time>2022-10-01T09:59:41Z</time>
      </trkpt>
      <trkpt lat="47.20284" lon="7.48143">
        <ele>428</ele>
        <time>2022-10-01T09:59:42Z</time>
      </trkpt>
      <trkpt lat="47.20281" lon="7.48148">
        <ele>428</ele>
        <time>2022-10-01T09:59:43Z</time>
      </trkpt>
      <trkpt lat="47.2028" lon="7.48153">
        <ele>428</ele>
        <time>2022-10-01T09:59:44Z</time>
      </trkpt>
      <trkpt lat="47.20279" lon="7.4816">
        <ele>428</ele>
        <time>2022-10-01T09:59:45Z</time>
      </trkpt>
      <trkpt lat="47.20277" lon="7.48166">
        <ele>428</ele>
        <time>2022-10-01T09:59:46Z</time>
      </trkpt>
      <trkpt lat="47.20275" lon="7.48171">
        <ele>428</ele>
        <time>2022-10-01T09:59:47Z</time>
      </trkpt>
      <trkpt lat="47.20274" lon="7.48177">
        <ele>428</ele>
        <time>2022-10-01T09:59:48Z</time>
      </trkpt>
      <trkpt lat="47.20273" lon="7.48181">
        <ele>428</ele>
        <time>2022-10-01T09:59:49Z</time>
      </trkpt>
      <trkpt lat="47.20272" lon="7.48186">
        <ele>428</ele>
        <time>2022-10-01T09:59:50Z</time>
      </trkpt>
      <trkpt lat="47.20272" lon="7.48191">
        <ele>428</ele>
        <time>2022-10-01T09:59:51Z</time>
      </trkpt>
      <trkpt lat="47.20271" lon="7.48197">
        <ele>428.1</ele>
        <time>2022-10-01T09:59:52Z</time>
      </trkpt>
      <trkpt lat="47.2027" lon="7.48203">
        <ele>428.1</ele>
        <time>2022-10-01T09:59:53Z</time>
      </trkpt>
      <trkpt lat="47.2027" lon="7.48209">
        <ele>428.1</ele>
        <time>2022-10-01T09:59:54Z</time>
      </trkpt>
      <trkpt lat="47.20269" lon="7.48214">
        <ele>428.1</ele>
        <time>2022-10-01T09:59:55Z</time>
      </trkpt>
      <trkpt lat="47.20269" lon="7.48219">
        <ele>428.1</ele>
        <time>2022-10-01T09:59:56Z</time>
      </trkpt>
      <trkpt lat="47.20268" lon="7.48225">
        <ele>428.1</ele>
        <time>2022-10-01T09:59:57Z</time>
      </trkpt>
      <trkpt lat="47.20268" lon="7.4823">
        <ele>428.1</ele>
        <time>2022-10-01T09:59:58Z</time>
      </trkpt>
      <trkpt lat="47.20266" lon="7.48235">
        <ele>428.1</ele>
        <time>2022-10-01T09:59:59Z</time>
      </trkpt>
      <trkpt lat="47.20266" lon="7.48242">
        <ele>428.1</ele>
        <time>2022-10-01T10:00:00Z</time>
      </trkpt>
      <trkpt lat="47.20266" lon="7.48247">
        <ele>428.1</ele>
        <time>2022-10-01T10:00:01Z</time>
      </trkpt>
      <trkpt lat="47.20265" lon="7.48252">
        <ele>428.1</ele>
        <time>2022-10-01T10:00:02Z</time>
      </trkpt>
      <trkpt lat="47.20264" lon="7.48259">
        <ele>428.1</ele>
        <time>2022-10-01T10:00:03Z</time>
      </trkpt>
      <trkpt lat="47.20263" lon="7.48265">
        <ele>428.2</ele>
        <time>2022-10-01T10:00:04Z</time>
      </trkpt>
      <trkpt lat="47.20262" lon="7.48271">
        <ele>428.2</ele>
        <time>2022-10-01T10:00:05Z</time>
      </trkpt>
      <trkpt lat="47.20262" lon="7.48276">
        <ele>428.2</ele>
        <time>2022-10-01T10:00:06Z</time>
      </trkpt>
      <trkpt lat="47.20261" lon="7.48281">
        <ele>428.2</ele>
        <time>2022-10-01T10:00:07Z</time>
      </trkpt>
      <trkpt lat="47.20261" lon="7.48287">
        <ele>428.2</ele>
        <time>2022-10-01T10:00:08Z</time>
      </trkpt>
      <trkpt lat="47.20261" lon="7.48294">
        <ele>428.2</ele>
        <time>2022-10-01T10:00:09Z</time>
      </trkpt>
      <trkpt lat="47.2026" lon="7.483">
        <ele>428.2</ele>
        <time>2022-10-01T10:00:10Z</time>
      </trkpt>
      <trkpt lat="47.20258" lon="7.48306">
        <ele>428.2</ele>
        <time>2022-10-01T10:00:11Z</time>
      </trkpt>
      <trkpt lat="47.20257" lon="7.48312">
        <ele>428.2</ele>
        <time>2022-10-01T10:00:12Z</time>
      </trkpt>
      <trkpt lat="47.20256" lon="7.48317">
        <ele>428.2</ele>
        <time>2022-10-01T10:00:13Z</time>
      </trkpt>
      <trkpt lat="47.20256" lon="7.48323">
        <ele>428.2</ele>
        <time>2022-10-01T10:00:14Z</time>
      </trkpt>
      <trkpt lat="47.20256" lon="7.48328">
        <ele>428.2</ele>
        <time>2022-10-01T10:00:15Z</time>
      </trkpt>
      <trkpt lat="47.20256" lon="7.48334">
        <ele>428.2</ele>
        <time>2022-10-01T10:00:16Z</time>
      </trkpt>
      <trkpt lat="47.20258" lon="7.48342">
        <ele>428.2</ele>
        <time>2022-10-01T10:00:17Z</time>
      </trkpt>
      <trkpt lat="47.20258" lon="7.48346">
        <ele>428.2</ele>
        <time>2022-10-01T10:00:18Z</time>
      </trkpt>
      <trkpt lat="47.20261" lon="7.48348">
        <ele>428.2</ele>
        <time>2022-10-01T10:00:19Z</time>
      </trkpt>
      <trkpt lat="47.20265" lon="7.48352">
        <ele>428.2</ele>
        <time>2022-10-01T10:00:20Z</time>
      </trkpt>
      <trkpt lat="47.20266" lon="7.48354">
        <ele>428.2</ele>
        <time>2022-10-01T10:00:21Z</time>
      </trkpt>
      <trkpt lat="47.20269" lon="7.48356">
        <ele>428.2</ele>
        <time>2022-10-01T10:00:22Z</time>
      </trkpt>
      <trkpt lat="47.20272" lon="7.4836">
        <ele>428.2</ele>
        <time>2022-10-01T10:00:23Z</time>
      </trkpt>
      <trkpt lat="47.20275" lon="7.48362">
        <ele>428.2</ele>
        <time>2022-10-01T10:00:24Z</time>
      </trkpt>
      <trkpt lat="47.20279" lon="7.48365">
        <ele>428.2</ele>
        <time>2022-10-01T10:00:25Z</time>
      </trkpt>
      <trkpt lat="47.20282" lon="7.48368">
        <ele>428.2</ele>
        <time>2022-10-01T10:00:26Z</time>
      </trkpt>
      <trkpt lat="47.20285" lon="7.48371">
        <ele>428.2</ele>
        <time>2022-10-01T10:00:27Z</time>
      </trkpt>
      <trkpt lat="47.20289" lon="7.48373">
        <ele>428.2</ele>
        <time>2022-10-01T10:00:28Z</time>
      </trkpt>
      <trkpt lat="47.20292" lon="7.48375">
        <ele>428.2</ele>
        <time>2022-10-01T10:00:29Z</time>
      </trkpt>
      <trkpt lat="47.20295" lon="7.48378">
        <ele>428.2</ele>
        <time>2022-10-01T10:00:30Z</time>
      </trkpt>
      <trkpt lat="47.20299" lon="7.48381">
        <ele>428.2</ele>
        <time>2022-10-01T10:00:31Z</time>
      </trkpt>
      <trkpt lat="47.20303" lon="7.48385">
        <ele>428.1</ele>
        <time>2022-10-01T10:00:32Z</time>
      </trkpt>
      <trkpt lat="47.20306" lon="7.48387">
        <ele>428.1</ele>
        <time>2022-10-01T10:00:33Z</time>
      </trkpt>
      <trkpt lat="47.2031" lon="7.4839">
        <ele>428.1</ele>
        <time>2022-10-01T10:00:34Z</time>
      </trkpt>
      <trkpt lat="47.20313" lon="7.48394">
        <ele>428.1</ele>
        <time>2022-10-01T10:00:35Z</time>
      </trkpt>
      <trkpt lat="47.20316" lon="7.48397">
        <ele>428.1</ele>
        <time>2022-10-01T10:00:36Z</time>
      </trkpt>
      <trkpt lat="47.2032" lon="7.48399">
        <ele>428.1</ele>
        <time>2022-10-01T10:00:37Z</time>
      </trkpt>
      <trkpt lat="47.20323" lon="7.48403">
        <ele>428.1</ele>
        <time>2022-10-01T10:00:38Z</time>
      </trkpt>
      <trkpt lat="47.20326" lon="7.48408">
        <ele>428.1</ele>
        <time>2022-10-01T10:00:39Z</time>
      </trkpt>
      <trkpt lat="47.20329" lon="7.48412">
        <ele>428.1</ele>
        <time>2022-10-01T10:00:40Z</time>
      </trkpt>
      <trkpt lat="47.20333" lon="7.48417">
        <ele>428.1</ele>
        <time>2022-10-01T10:00:41Z</time>
      </trkpt>
      <trkpt lat="47.20337" lon="7.48421">
        <ele>428.1</ele>
        <time>2022-10-01T10:00:42Z</time>
      </trkpt>
      <trkpt lat="47.20341" lon="7.48425">
        <ele>428.1</ele>
        <time>2022-10-01T10:00:43Z</time>
      </trkpt>
      <trkpt lat="47.20345" lon="7.4843">
        <ele>428.1</ele>
        <time>2022-10-01T10:00:44Z</time>
      </trkpt>
      <trkpt lat="47.20348" lon="7.48434">
        <ele>428.1</ele>
        <time>2022-10-01T10:00:45Z</time>
      </trkpt>
      <trkpt lat="47.20351" lon="7.48438">
        <ele>428.1</ele>
        <time>2022-10-01T10:00:46Z</time>
      </trkpt>
      <trkpt lat="47.20353" lon="7.48441">
        <ele>428.1</ele>
        <time>2022-10-01T10:00:47Z</time>
      </trkpt>
      <trkpt lat="47.20357" lon="7.48446">
        <ele>428.2</ele>
        <time>2022-10-01T10:00:48Z</time>
      </trkpt>
      <trkpt lat="47.20361" lon="7.48451">
        <ele>428.2</ele>
        <time>2022-10-01T10:00:49Z</time>
      </trkpt>
      <trkpt lat="47.20364" lon="7.48456">
        <ele>428.2</ele>
        <time>2022-10-01T10:00:50Z</time>
      </trkpt>
      <trkpt lat="47.20368" lon="7.48461">
        <ele>428.2</ele>
        <time>2022-10-01T10:00:51Z</time>
      </trkpt>
      <trkpt lat="47.20371" lon="7.48467">
        <ele>428.2</ele>
        <time>2022-10-01T10:00:52Z</time>
      </trkpt>
      <trkpt lat="47.20373" lon="7.48473">
        <ele>428.2</ele>
        <time>2022-10-01T10:00:53Z</time>
      </trkpt>
      <trkpt lat="47.20376" lon="7.48479">
        <ele>428.2</ele>
        <time>2022-10-01T10:00:54Z</time>
      </trkpt>
      <trkpt lat="47.2038" lon="7.48485">
        <ele>428.2</ele>
        <time>2022-10-01T10:00:55Z</time>
      </trkpt>
      <trkpt lat="47.20382" lon="7.4849">
        <ele>428.2</ele>
        <time>2022-10-01T10:00:56Z</time>
      </trkpt>
      <trkpt lat="47.20386" lon="7.48497">
        <ele>428.2</ele>
        <time>2022-10-01T10:00:57Z</time>
      </trkpt>
      <trkpt lat="47.2039" lon="7.48503">
        <ele>428.1</ele>
        <time>2022-10-01T10:00:58Z</time>
      </trkpt>
      <trkpt lat="47.20392" lon="7.48509">
        <ele>428.1</ele>
        <time>2022-10-01T10:00:59Z</time>
      </trkpt>
      <trkpt lat="47.20396" lon="7.48515">
        <ele>428.1</ele>
        <time>2022-10-01T10:01:00Z</time>
      </trkpt>
      <trkpt lat="47.20399" lon="7.4852">
        <ele>428.1</ele>
        <time>2022-10-01T10:01:01Z</time>
      </trkpt>
      <trkpt lat="47.20402" lon="7.48527">
        <ele>428.1</ele>
        <time>2022-10-01T10:01:02Z</time>
      </trkpt>
      <trkpt lat="47.20405" lon="7.48533">
        <ele>428.1</ele>
        <time>2022-10-01T10:01:03Z</time>
      </trkpt>
      <trkpt lat="47.20409" lon="7.48539">
        <ele>428.1</ele>
        <time>2022-10-01T10:01:04Z</time>
      </trkpt>
      <trkpt lat="47.20412" lon="7.48546">
        <ele>428.1</ele>
        <time>2022-10-01T10:01:05Z</time>
      </trkpt>
      <trkpt lat="47.20416" lon="7.48552">
        <ele>428</ele>
        <time>2022-10-01T10:01:06Z</time>
      </trkpt>
      <trkpt lat="47.20419" lon="7.48558">
        <ele>428</ele>
        <time>2022-10-01T10:01:07Z</time>
      </trkpt>
      <trkpt lat="47.20423" lon="7.48565">
        <ele>428</ele>
        <time>2022-10-01T10:01:08Z</time>
      </trkpt>
      <trkpt lat="47.20426" lon="7.48571">
        <ele>428</ele>
        <time>2022-10-01T10:01:09Z</time>
      </trkpt>
      <trkpt lat="47.2043" lon="7.48578">
        <ele>427.9</ele>
        <time>2022-10-01T10:01:10Z</time>
      </trkpt>
      <trkpt lat="47.20433" lon="7.48585">
        <ele>427.9</ele>
        <time>2022-10-01T10:01:11Z</time>
      </trkpt>
      <trkpt lat="47.20437" lon="7.48591">
        <ele>427.9</ele>
        <time>2022-10-01T10:01:12Z</time>
      </trkpt>
      <trkpt lat="47.2044" lon="7.48597">
        <ele>427.9</ele>
        <time>2022-10-01T10:01:13Z</time>
      </trkpt>
      <trkpt lat="47.20443" lon="7.48603">
        <ele>427.8</ele>
        <time>2022-10-01T10:01:14Z</time>
      </trkpt>
      <trkpt lat="47.20446" lon="7.48609">
        <ele>427.8</ele>
        <time>2022-10-01T10:01:15Z</time>
      </trkpt>
      <trkpt lat="47.20449" lon="7.48615">
        <ele>427.8</ele>
        <time>2022-10-01T10:01:16Z</time>
      </trkpt>
      <trkpt lat="47.20452" lon="7.48622">
        <ele>427.8</ele>
        <time>2022-10-01T10:01:17Z</time>
      </trkpt>
      <trkpt lat="47.20455" lon="7.48628">
        <ele>427.8</ele>
        <time>2022-10-01T10:01:18Z</time>
      </trkpt>
      <trkpt lat="47.20459" lon="7.48636">
        <ele>427.8</ele>
        <time>2022-10-01T10:01:19Z</time>
      </trkpt>
      <trkpt lat="47.20462" lon="7.48642">
        <ele>427.8</ele>
        <time>2022-10-01T10:01:20Z</time>
      </trkpt>
      <trkpt lat="47.20465" lon="7.48648">
        <ele>427.8</ele>
        <time>2022-10-01T10:01:21Z</time>
      </trkpt>
      <trkpt lat="47.20468" lon="7.48654">
        <ele>427.8</ele>
        <time>2022-10-01T10:01:22Z</time>
      </trkpt>
      <trkpt lat="47.20471" lon="7.48661">
        <ele>427.8</ele>
        <time>2022-10-01T10:01:23Z</time>
      </trkpt>
      <trkpt lat="47.20474" lon="7.48668">
        <ele>427.8</ele>
        <time>2022-10-01T10:01:24Z</time>
      </trkpt>
      <trkpt lat="47.20477" lon="7.48675">
        <ele>427.8</ele>
        <time>2022-10-01T10:01:25Z</time>
      </trkpt>
      <trkpt lat="47.2048" lon="7.48682">
        <ele>427.8</ele>
        <time>2022-10-01T10:01:26Z</time>
      </trkpt>
      <trkpt lat="47.20483" lon="7.48689">
        <ele>427.8</ele>
        <time>2022-10-01T10:01:27Z</time>
      </trkpt>
      <trkpt lat="47.20485" lon="7.48695">
        <ele>427.7</ele>
        <time>2022-10-01T10:01:28Z</time>
      </trkpt>
      <trkpt lat="47.20488" lon="7.48702">
        <ele>427.7</ele>
        <time>2022-10-01T10:01:29Z</time>
      </trkpt>
      <trkpt lat="47.20491" lon="7.48709">
        <ele>427.7</ele>
        <time>2022-10-01T10:01:30Z</time>
      </trkpt>
      <trkpt lat="47.20494" lon="7.48717">
        <ele>427.7</ele>
        <time>2022-10-01T10:01:31Z</time>
      </trkpt>
      <trkpt lat="47.20496" lon="7.48724">
        <ele>427.7</ele>
        <time>2022-10-01T10:01:32Z</time>
      </trkpt>
      <trkpt lat="47.20498" lon="7.48732">
        <ele>427.7</ele>
        <time>2022-10-01T10:01:33Z</time>
      </trkpt>
      <trkpt lat="47.20501" lon="7.4874">
        <ele>427.7</ele>
        <time>2022-10-01T10:01:34Z</time>
      </trkpt>
      <trkpt lat="47.20504" lon="7.48748">
        <ele>427.7</ele>
        <time>2022-10-01T10:01:35Z</time>
      </trkpt>
      <trkpt lat="47.20506" lon="7.48756">
        <ele>427.7</ele>
        <time>2022-10-01T10:01:36Z</time>
      </trkpt>
      <trkpt lat="47.20508" lon="7.48763">
        <ele>427.7</ele>
        <time>2022-10-01T10:01:37Z</time>
      </trkpt>
      <trkpt lat="47.20511" lon="7.48771">
        <ele>427.7</ele>
        <time>2022-10-01T10:01:38Z</time>
      </trkpt>
      <trkpt lat="47.20513" lon="7.48778">
        <ele>427.7</ele>
        <time>2022-10-01T10:01:39Z</time>
      </trkpt>
      <trkpt lat="47.20515" lon="7.48786">
        <ele>427.7</ele>
        <time>2022-10-01T10:01:40Z</time>
      </trkpt>
      <trkpt lat="47.20517" lon="7.48794">
        <ele>427.6</ele>
        <time>2022-10-01T10:01:41Z</time>
      </trkpt>
      <trkpt lat="47.2052" lon="7.48802">
        <ele>427.6</ele>
        <time>2022-10-01T10:01:42Z</time>
      </trkpt>
      <trkpt lat="47.20523" lon="7.48813">
        <ele>427.6</ele>
        <time>2022-10-01T10:01:43Z</time>
      </trkpt>
      <trkpt lat="47.20525" lon="7.48821">
        <ele>427.6</ele>
        <time>2022-10-01T10:01:44Z</time>
      </trkpt>
      <trkpt lat="47.20527" lon="7.48829">
        <ele>427.6</ele>
        <time>2022-10-01T10:01:45Z</time>
      </trkpt>
      <trkpt lat="47.20529" lon="7.48836">
        <ele>427.6</ele>
        <time>2022-10-01T10:01:46Z</time>
      </trkpt>
      <trkpt lat="47.20531" lon="7.48844">
        <ele>427.6</ele>
        <time>2022-10-01T10:01:47Z</time>
      </trkpt>
      <trkpt lat="47.20533" lon="7.48852">
        <ele>427.6</ele>
        <time>2022-10-01T10:01:48Z</time>
      </trkpt>
      <trkpt lat="47.20534" lon="7.48859">
        <ele>427.6</ele>
        <time>2022-10-01T10:01:49Z</time>
      </trkpt>
      <trkpt lat="47.20536" lon="7.48867">
        <ele>427.6</ele>
        <time>2022-10-01T10:01:50Z</time>
      </trkpt>
      <trkpt lat="47.20537" lon="7.48875">
        <ele>427.6</ele>
        <time>2022-10-01T10:01:51Z</time>
      </trkpt>
      <trkpt lat="47.20539" lon="7.48882">
        <ele>427.6</ele>
        <time>2022-10-01T10:01:52Z</time>
      </trkpt>
      <trkpt lat="47.2054" lon="7.4889">
        <ele>427.6</ele>
        <time>2022-10-01T10:01:53Z</time>
      </trkpt>
      <trkpt lat="47.20542" lon="7.48897">
        <ele>427.6</ele>
        <time>2022-10-01T10:01:54Z</time>
      </trkpt>
      <trkpt lat="47.20543" lon="7.48904">
        <ele>427.6</ele>
        <time>2022-10-01T10:01:55Z</time>
      </trkpt>
      <trkpt lat="47.20544" lon="7.48911">
        <ele>427.6</ele>
        <time>2022-10-01T10:01:56Z</time>
      </trkpt>
      <trkpt lat="47.20545" lon="7.48918">
        <ele>427.5</ele>
        <time>2022-10-01T10:01:57Z</time>
      </trkpt>
      <trkpt lat="47.20546" lon="7.48924">
        <ele>427.5</ele>
        <time>2022-10-01T10:01:58Z</time>
      </trkpt>
      <trkpt lat="47.20547" lon="7.48931">
        <ele>427.5</ele>
        <time>2022-10-01T10:01:59Z</time>
      </trkpt>
      <trkpt lat="47.20548" lon="7.48936">
        <ele>427.5</ele>
        <time>2022-10-01T10:02:00Z</time>
      </trkpt>
      <trkpt lat="47.20549" lon="7.48943">
        <ele>427.5</ele>
        <time>2022-10-01T10:02:01Z</time>
      </trkpt>
      <trkpt lat="47.2055" lon="7.48949">
        <ele>427.4</ele>
        <time>2022-10-01T10:02:02Z</time>
      </trkpt>
      <trkpt lat="47.2055" lon="7.48955">
        <ele>427.4</ele>
        <time>2022-10-01T10:02:03Z</time>
      </trkpt>
      <trkpt lat="47.20551" lon="7.48962">
        <ele>427.4</ele>
        <time>2022-10-01T10:02:04Z</time>
      </trkpt>
      <trkpt lat="47.20552" lon="7.48969">
        <ele>427.4</ele>
        <time>2022-10-01T10:02:05Z</time>
      </trkpt>
      <trkpt lat="47.20553" lon="7.48976">
        <ele>427.4</ele>
        <time>2022-10-01T10:02:06Z</time>
      </trkpt>
      <trkpt lat="47.20553" lon="7.48983">
        <ele>427.4</ele>
        <time>2022-10-01T10:02:07Z</time>
      </trkpt>
      <trkpt lat="47.20553" lon="7.48989">
        <ele>427.3</ele>
        <time>2022-10-01T10:02:08Z</time>
      </trkpt>
      <trkpt lat="47.20555" lon="7.48996">
        <ele>427.3</ele>
        <time>2022-10-01T10:02:09Z</time>
      </trkpt>
      <trkpt lat="47.20555" lon="7.49003">
        <ele>427.3</ele>
        <time>2022-10-01T10:02:10Z</time>
      </trkpt>
      <trkpt lat="47.20555" lon="7.4901">
        <ele>427.3</ele>
        <time>2022-10-01T10:02:11Z</time>
      </trkpt>
      <trkpt lat="47.20556" lon="7.49017">
        <ele>427.3</ele>
        <time>2022-10-01T10:02:12Z</time>
      </trkpt>
      <trkpt lat="47.20557" lon="7.49023">
        <ele>427.4</ele>
        <time>2022-10-01T10:02:13Z</time>
      </trkpt>
      <trkpt lat="47.20557" lon="7.4903">
        <ele>427.4</ele>
        <time>2022-10-01T10:02:14Z</time>
      </trkpt>
      <trkpt lat="47.20558" lon="7.49037">
        <ele>427.4</ele>
        <time>2022-10-01T10:02:15Z</time>
      </trkpt>
      <trkpt lat="47.20558" lon="7.49043">
        <ele>427.4</ele>
        <time>2022-10-01T10:02:16Z</time>
      </trkpt>
      <trkpt lat="47.20557" lon="7.4905">
        <ele>427.4</ele>
        <time>2022-10-01T10:02:17Z</time>
      </trkpt>
      <trkpt lat="47.20556" lon="7.49055">
        <ele>427.4</ele>
        <time>2022-10-01T10:02:18Z</time>
      </trkpt>
      <trkpt lat="47.20556" lon="7.4906">
        <ele>427.4</ele>
        <time>2022-10-01T10:02:19Z</time>
      </trkpt>
      <trkpt lat="47.20556" lon="7.49066">
        <ele>427.4</ele>
        <time>2022-10-01T10:02:20Z</time>
      </trkpt>
      <trkpt lat="47.20556" lon="7.49072">
        <ele>427.4</ele>
        <time>2022-10-01T10:02:21Z</time>
      </trkpt>
      <trkpt lat="47.20555" lon="7.49078">
        <ele>427.4</ele>
        <time>2022-10-01T10:02:22Z</time>
      </trkpt>
      <trkpt lat="47.20555" lon="7.49084">
        <ele>427.4</ele>
        <time>2022-10-01T10:02:23Z</time>
      </trkpt>
      <trkpt lat="47.20555" lon="7.4909">
        <ele>427.4</ele>
        <time>2022-10-01T10:02:24Z</time>
      </trkpt>
      <trkpt lat="47.20555" lon="7.49096">
        <ele>427.4</ele>
        <time>2022-10-01T10:02:25Z</time>
      </trkpt>
      <trkpt lat="47.20555" lon="7.49103">
        <ele>427.4</ele>
        <time>2022-10-01T10:02:26Z</time>
      </trkpt>
      <trkpt lat="47.20555" lon="7.49109">
        <ele>427.4</ele>
        <time>2022-10-01T10:02:27Z</time>
      </trkpt>
      <trkpt lat="47.20554" lon="7.49115">
        <ele>427.4</ele>
        <time>2022-10-01T10:02:28Z</time>
      </trkpt>
      <trkpt lat="47.20554" lon="7.49122">
        <ele>427.4</ele>
        <time>2022-10-01T10:02:29Z</time>
      </trkpt>
      <trkpt lat="47.20553" lon="7.49127">
        <ele>427.4</ele>
        <time>2022-10-01T10:02:30Z</time>
      </trkpt>
      <trkpt lat="47.20553" lon="7.49133">
        <ele>427.4</ele>
        <time>2022-10-01T10:02:31Z</time>
      </trkpt>
      <trkpt lat="47.20552" lon="7.4914">
        <ele>427.4</ele>
        <time>2022-10-01T10:02:32Z</time>
      </trkpt>
      <trkpt lat="47.20551" lon="7.49146">
        <ele>427.4</ele>
        <time>2022-10-01T10:02:33Z</time>
      </trkpt>
      <trkpt lat="47.20551" lon="7.49151">
        <ele>427.4</ele>
        <time>2022-10-01T10:02:34Z</time>
      </trkpt>
      <trkpt lat="47.20551" lon="7.49157">
        <ele>427.4</ele>
        <time>2022-10-01T10:02:35Z</time>
      </trkpt>
      <trkpt lat="47.2055" lon="7.49165">
        <ele>427.4</ele>
        <time>2022-10-01T10:02:36Z</time>
      </trkpt>
      <trkpt lat="47.20549" lon="7.49171">
        <ele>427.4</ele>
        <time>2022-10-01T10:02:37Z</time>
      </trkpt>
      <trkpt lat="47.20548" lon="7.49178">
        <ele>427.4</ele>
        <time>2022-10-01T10:02:38Z</time>
      </trkpt>
      <trkpt lat="47.20547" lon="7.49184">
        <ele>427.4</ele>
        <time>2022-10-01T10:02:39Z</time>
      </trkpt>
      <trkpt lat="47.20546" lon="7.49191">
        <ele>427.4</ele>
        <time>2022-10-01T10:02:40Z</time>
      </trkpt>
      <trkpt lat="47.20545" lon="7.49198">
        <ele>427.4</ele>
        <time>2022-10-01T10:02:41Z</time>
      </trkpt>
      <trkpt lat="47.20544" lon="7.49205">
        <ele>427.4</ele>
        <time>2022-10-01T10:02:42Z</time>
      </trkpt>
      <trkpt lat="47.20543" lon="7.49212">
        <ele>427.4</ele>
        <time>2022-10-01T10:02:43Z</time>
      </trkpt>
      <trkpt lat="47.20542" lon="7.49217">
        <ele>427.4</ele>
        <time>2022-10-01T10:02:44Z</time>
      </trkpt>
      <trkpt lat="47.20541" lon="7.49224">
        <ele>427.4</ele>
        <time>2022-10-01T10:02:45Z</time>
      </trkpt>
      <trkpt lat="47.2054" lon="7.49229">
        <ele>427.4</ele>
        <time>2022-10-01T10:02:46Z</time>
      </trkpt>
      <trkpt lat="47.2054" lon="7.49233">
        <ele>427.4</ele>
        <time>2022-10-01T10:02:47Z</time>
      </trkpt>
      <trkpt lat="47.20539" lon="7.49238">
        <ele>427.4</ele>
        <time>2022-10-01T10:02:48Z</time>
      </trkpt>
      <trkpt lat="47.20539" lon="7.49243">
        <ele>427.4</ele>
        <time>2022-10-01T10:02:49Z</time>
      </trkpt>
      <trkpt lat="47.20538" lon="7.49248">
        <ele>427.4</ele>
        <time>2022-10-01T10:02:50Z</time>
      </trkpt>
      <trkpt lat="47.20537" lon="7.49251">
        <ele>427.4</ele>
        <time>2022-10-01T10:02:51Z</time>
      </trkpt>
      <trkpt lat="47.20535" lon="7.49257">
        <ele>427.4</ele>
        <time>2022-10-01T10:02:52Z</time>
      </trkpt>
      <trkpt lat="47.20533" lon="7.49264">
        <ele>427.4</ele>
        <time>2022-10-01T10:02:53Z</time>
      </trkpt>
      <trkpt lat="47.20531" lon="7.49267">
        <ele>427.4</ele>
        <time>2022-10-01T10:02:54Z</time>
      </trkpt>
      <trkpt lat="47.20529" lon="7.49271">
        <ele>427.4</ele>
        <time>2022-10-01T10:02:55Z</time>
      </trkpt>
      <trkpt lat="47.20528" lon="7.49276">
        <ele>427.4</ele>
        <time>2022-10-01T10:02:56Z</time>
      </trkpt>
      <trkpt lat="47.20527" lon="7.49281">
        <ele>427.4</ele>
        <time>2022-10-01T10:02:57Z</time>
      </trkpt>
      <trkpt lat="47.20526" lon="7.49285">
        <ele>427.4</ele>
        <time>2022-10-01T10:02:58Z</time>
      </trkpt>
      <trkpt lat="47.20524" lon="7.49291">
        <ele>427.4</ele>
        <time>2022-10-01T10:02:59Z</time>
      </trkpt>
      <trkpt lat="47.20523" lon="7.49295">
        <ele>427.4</ele>
        <time>2022-10-01T10:03:00Z</time>
      </trkpt>
      <trkpt lat="47.20521" lon="7.49302">
        <ele>427.4</ele>
        <time>2022-10-01T10:03:01Z</time>
      </trkpt>
      <trkpt lat="47.20519" lon="7.49306">
        <ele>427.4</ele>
        <time>2022-10-01T10:03:02Z</time>
      </trkpt>
      <trkpt lat="47.20517" lon="7.49312">
        <ele>427.4</ele>
        <time>2022-10-01T10:03:03Z</time>
      </trkpt>
      <trkpt lat="47.20515" lon="7.49316">
        <ele>427.4</ele>
        <time>2022-10-01T10:03:04Z</time>
      </trkpt>
      <trkpt lat="47.20513" lon="7.49323">
        <ele>427.4</ele>
        <time>2022-10-01T10:03:05Z</time>
      </trkpt>
      <trkpt lat="47.20512" lon="7.49326">
        <ele>427.4</ele>
        <time>2022-10-01T10:03:06Z</time>
      </trkpt>
      <trkpt lat="47.2051" lon="7.49332">
        <ele>427.4</ele>
        <time>2022-10-01T10:03:07Z</time>
      </trkpt>
      <trkpt lat="47.20508" lon="7.49337">
        <ele>427.4</ele>
        <time>2022-10-01T10:03:08Z</time>
      </trkpt>
      <trkpt lat="47.20506" lon="7.49342">
        <ele>427.4</ele>
        <time>2022-10-01T10:03:09Z</time>
      </trkpt>
      <trkpt lat="47.20505" lon="7.49346">
        <ele>427.4</ele>
        <time>2022-10-01T10:03:10Z</time>
      </trkpt>
      <trkpt lat="47.20503" lon="7.49351">
        <ele>427.4</ele>
        <time>2022-10-01T10:03:11Z</time>
      </trkpt>
      <trkpt lat="47.20502" lon="7.49356">
        <ele>427.4</ele>
        <time>2022-10-01T10:03:12Z</time>
      </trkpt>
      <trkpt lat="47.205" lon="7.49361">
        <ele>427.5</ele>
        <time>2022-10-01T10:03:13Z</time>
      </trkpt>
      <trkpt lat="47.20498" lon="7.49367">
        <ele>427.5</ele>
        <time>2022-10-01T10:03:14Z</time>
      </trkpt>
      <trkpt lat="47.20496" lon="7.49374">
        <ele>427.5</ele>
        <time>2022-10-01T10:03:15Z</time>
      </trkpt>
      <trkpt lat="47.20494" lon="7.49379">
        <ele>427.5</ele>
        <time>2022-10-01T10:03:16Z</time>
      </trkpt>
      <trkpt lat="47.20492" lon="7.49385">
        <ele>427.5</ele>
        <time>2022-10-01T10:03:17Z</time>
      </trkpt>
      <trkpt lat="47.20489" lon="7.49391">
        <ele>427.5</ele>
        <time>2022-10-01T10:03:18Z</time>
      </trkpt>
      <trkpt lat="47.20488" lon="7.49395">
        <ele>427.5</ele>
        <time>2022-10-01T10:03:19Z</time>
      </trkpt>
      <trkpt lat="47.20486" lon="7.494">
        <ele>427.5</ele>
        <time>2022-10-01T10:03:20Z</time>
      </trkpt>
      <trkpt lat="47.20484" lon="7.49406">
        <ele>427.6</ele>
        <time>2022-10-01T10:03:21Z</time>
      </trkpt>
      <trkpt lat="47.20482" lon="7.49412">
        <ele>427.6</ele>
        <time>2022-10-01T10:03:22Z</time>
      </trkpt>
      <trkpt lat="47.20482" lon="7.49414">
        <ele>427.6</ele>
        <time>2022-10-01T10:03:23Z</time>
      </trkpt>
      <trkpt lat="47.20482" lon="7.49413">
        <ele>427.6</ele>
        <time>2022-10-01T10:03:24Z</time>
      </trkpt>
      <trkpt lat="47.20482" lon="7.49413">
        <ele>427.6</ele>
        <time>2022-10-01T10:03:25Z</time>
      </trkpt>
      <trkpt lat="47.20482" lon="7.49416">
        <ele>427.6</ele>
        <time>2022-10-01T10:03:26Z</time>
      </trkpt>
      <trkpt lat="47.20482" lon="7.49417">
        <ele>427.6</ele>
        <time>2022-10-01T10:03:27Z</time>
      </trkpt>
      <trkpt lat="47.20481" lon="7.49417">
        <ele>427.6</ele>
        <time>2022-10-01T10:03:28Z</time>
      </trkpt>
      <trkpt lat="47.20481" lon="7.49417">
        <ele>427.6</ele>
        <time>2022-10-01T10:03:29Z</time>
      </trkpt>
      <trkpt lat="47.20481" lon="7.49417">
        <ele>427.6</ele>
        <time>2022-10-01T10:03:30Z</time>
      </trkpt>
      <trkpt lat="47.20481" lon="7.49418">
        <ele>427.6</ele>
        <time>2022-10-01T10:03:31Z</time>
      </trkpt>
      <trkpt lat="47.2048" lon="7.49419">
        <ele>427.6</ele>
        <time>2022-10-01T10:03:32Z</time>
      </trkpt>
      <trkpt lat="47.20481" lon="7.49421">
        <ele>427.6</ele>
        <time>2022-10-01T10:03:33Z</time>
      </trkpt>
      <trkpt lat="47.2048" lon="7.49422">
        <ele>427.6</ele>
        <time>2022-10-01T10:04:11Z</time>
      </trkpt>
      <trkpt lat="47.2048" lon="7.49424">
        <ele>427.6</ele>
        <time>2022-10-01T10:04:12Z</time>
      </trkpt>
      <trkpt lat="47.2048" lon="7.49426">
        <ele>427.7</ele>
        <time>2022-10-01T10:04:13Z</time>
      </trkpt>
      <trkpt lat="47.2048" lon="7.49428">
        <ele>427.7</ele>
        <time>2022-10-01T10:04:14Z</time>
      </trkpt>
      <trkpt lat="47.2048" lon="7.49429">
        <ele>427.7</ele>
        <time>2022-10-01T10:04:15Z</time>
      </trkpt>
      <trkpt lat="47.20479" lon="7.49431">
        <ele>427.7</ele>
        <time>2022-10-01T10:04:16Z</time>
      </trkpt>
      <trkpt lat="47.20479" lon="7.49433">
        <ele>427.7</ele>
        <time>2022-10-01T10:04:17Z</time>
      </trkpt>
      <trkpt lat="47.20479" lon="7.49434">
        <ele>427.7</ele>
        <time>2022-10-01T10:04:18Z</time>
      </trkpt>
      <trkpt lat="47.20478" lon="7.49435">
        <ele>427.7</ele>
        <time>2022-10-01T10:04:19Z</time>
      </trkpt>
      <trkpt lat="47.20477" lon="7.49436">
        <ele>427.7</ele>
        <time>2022-10-01T10:04:20Z</time>
      </trkpt>
      <trkpt lat="47.20476" lon="7.49436">
        <ele>427.7</ele>
        <time>2022-10-01T10:04:32Z</time>
      </trkpt>
      <trkpt lat="47.20475" lon="7.49436">
        <ele>427.7</ele>
        <time>2022-10-01T10:04:33Z</time>
      </trkpt>
      <trkpt lat="47.20473" lon="7.4944">
        <ele>427.8</ele>
        <time>2022-10-01T10:04:34Z</time>
      </trkpt>
      <trkpt lat="47.20472" lon="7.49442">
        <ele>427.8</ele>
        <time>2022-10-01T10:04:35Z</time>
      </trkpt>
      <trkpt lat="47.2047" lon="7.49445">
        <ele>427.8</ele>
        <time>2022-10-01T10:04:36Z</time>
      </trkpt>
      <trkpt lat="47.20469" lon="7.49447">
        <ele>427.8</ele>
        <time>2022-10-01T10:04:37Z</time>
      </trkpt>
      <trkpt lat="47.20468" lon="7.4945">
        <ele>427.9</ele>
        <time>2022-10-01T10:04:38Z</time>
      </trkpt>
      <trkpt lat="47.20467" lon="7.49454">
        <ele>427.9</ele>
        <time>2022-10-01T10:04:39Z</time>
      </trkpt>
      <trkpt lat="47.20467" lon="7.49459">
        <ele>427.9</ele>
        <time>2022-10-01T10:04:40Z</time>
      </trkpt>
      <trkpt lat="47.20468" lon="7.49463">
        <ele>427.9</ele>
        <time>2022-10-01T10:04:41Z</time>
      </trkpt>
      <trkpt lat="47.20468" lon="7.49465">
        <ele>427.9</ele>
        <time>2022-10-01T10:04:42Z</time>
      </trkpt>
      <trkpt lat="47.20469" lon="7.4947">
        <ele>428</ele>
        <time>2022-10-01T10:04:43Z</time>
      </trkpt>
      <trkpt lat="47.20469" lon="7.49472">
        <ele>428</ele>
        <time>2022-10-01T10:04:44Z</time>
      </trkpt>
      <trkpt lat="47.20469" lon="7.49476">
        <ele>428</ele>
        <time>2022-10-01T10:04:45Z</time>
      </trkpt>
      <trkpt lat="47.20469" lon="7.49478">
        <ele>428</ele>
        <time>2022-10-01T10:04:46Z</time>
      </trkpt>
      <trkpt lat="47.20469" lon="7.4948">
        <ele>428</ele>
        <time>2022-10-01T10:04:47Z</time>
      </trkpt>
      <trkpt lat="47.20469" lon="7.49483">
        <ele>428</ele>
        <time>2022-10-01T10:04:48Z</time>
      </trkpt>
      <trkpt lat="47.20468" lon="7.49484">
        <ele>428</ele>
        <time>2022-10-01T10:04:49Z</time>
      </trkpt>
      <trkpt lat="47.20466" lon="7.49485">
        <ele>428</ele>
        <time>2022-10-01T10:04:50Z</time>
      </trkpt>
      <trkpt lat="47.20463" lon="7.49483">
        <ele>428</ele>
        <time>2022-10-01T10:04:51Z</time>
      </trkpt>
      <trkpt lat="47.20461" lon="7.49483">
        <ele>428</ele>
        <time>2022-10-01T10:04:52Z</time>
      </trkpt>
      <trkpt lat="47.20457" lon="7.49484">
        <ele>428</ele>
        <time>2022-10-01T10:04:53Z</time>
      </trkpt>
      <trkpt lat="47.20454" lon="7.49484">
        <ele>428</ele>
        <time>2022-10-01T10:04:54Z</time>
      </trkpt>
      <trkpt lat="47.2045" lon="7.49484">
        <ele>428</ele>
        <time>2022-10-01T10:04:55Z</time>
      </trkpt>
      <trkpt lat="47.20449" lon="7.49485">
        <ele>428</ele>
        <time>2022-10-01T10:04:56Z</time>
      </trkpt>
      <trkpt lat="47.20446" lon="7.49486">
        <ele>428</ele>
        <time>2022-10-01T10:04:57Z</time>
      </trkpt>
      <trkpt lat="47.20444" lon="7.49487">
        <ele>428</ele>
        <time>2022-10-01T10:04:58Z</time>
      </trkpt>
      <trkpt lat="47.2044" lon="7.49489">
        <ele>428</ele>
        <time>2022-10-01T10:04:59Z</time>
      </trkpt>
      <trkpt lat="47.20438" lon="7.49491">
        <ele>428</ele>
        <time>2022-10-01T10:05:00Z</time>
      </trkpt>
      <trkpt lat="47.20436" lon="7.49494">
        <ele>428</ele>
        <time>2022-10-01T10:05:01Z</time>
      </trkpt>
      <trkpt lat="47.20434" lon="7.49498">
        <ele>428</ele>
        <time>2022-10-01T10:05:02Z</time>
      </trkpt>
      <trkpt lat="47.20432" lon="7.49502">
        <ele>428</ele>
        <time>2022-10-01T10:05:03Z</time>
      </trkpt>
      <trkpt lat="47.2043" lon="7.49506">
        <ele>428</ele>
        <time>2022-10-01T10:05:04Z</time>
      </trkpt>
      <trkpt lat="47.20428" lon="7.49512">
        <ele>427.9</ele>
        <time>2022-10-01T10:05:05Z</time>
      </trkpt>
      <trkpt lat="47.20426" lon="7.49516">
        <ele>427.9</ele>
        <time>2022-10-01T10:05:06Z</time>
      </trkpt>
      <trkpt lat="47.20424" lon="7.49521">
        <ele>427.9</ele>
        <time>2022-10-01T10:05:07Z</time>
      </trkpt>
      <trkpt lat="47.20421" lon="7.49527">
        <ele>427.9</ele>
        <time>2022-10-01T10:05:08Z</time>
      </trkpt>
      <trkpt lat="47.20419" lon="7.49532">
        <ele>427.9</ele>
        <time>2022-10-01T10:05:09Z</time>
      </trkpt>
      <trkpt lat="47.20417" lon="7.49537">
        <ele>427.9</ele>
        <time>2022-10-01T10:05:10Z</time>
      </trkpt>
      <trkpt lat="47.20415" lon="7.49542">
        <ele>427.9</ele>
        <time>2022-10-01T10:05:11Z</time>
      </trkpt>
      <trkpt lat="47.20413" lon="7.49546">
        <ele>428</ele>
        <time>2022-10-01T10:05:12Z</time>
      </trkpt>
      <trkpt lat="47.20411" lon="7.49551">
        <ele>428</ele>
        <time>2022-10-01T10:05:13Z</time>
      </trkpt>
      <trkpt lat="47.2041" lon="7.49555">
        <ele>428</ele>
        <time>2022-10-01T10:05:14Z</time>
      </trkpt>
      <trkpt lat="47.20407" lon="7.49561">
        <ele>428</ele>
        <time>2022-10-01T10:05:15Z</time>
      </trkpt>
      <trkpt lat="47.20405" lon="7.49567">
        <ele>428</ele>
        <time>2022-10-01T10:05:16Z</time>
      </trkpt>
      <trkpt lat="47.20404" lon="7.49572">
        <ele>428</ele>
        <time>2022-10-01T10:05:17Z</time>
      </trkpt>
      <trkpt lat="47.204" lon="7.49578">
        <ele>428</ele>
        <time>2022-10-01T10:05:18Z</time>
      </trkpt>
      <trkpt lat="47.20399" lon="7.49583">
        <ele>428</ele>
        <time>2022-10-01T10:05:19Z</time>
      </trkpt>
      <trkpt lat="47.20396" lon="7.49588">
        <ele>428</ele>
        <time>2022-10-01T10:05:20Z</time>
      </trkpt>
      <trkpt lat="47.20394" lon="7.49592">
        <ele>428</ele>
        <time>2022-10-01T10:05:21Z</time>
      </trkpt>
      <trkpt lat="47.20393" lon="7.49596">
        <ele>428</ele>
        <time>2022-10-01T10:05:22Z</time>
      </trkpt>
      <trkpt lat="47.2039" lon="7.496">
        <ele>428</ele>
        <time>2022-10-01T10:05:23Z</time>
      </trkpt>
      <trkpt lat="47.20387" lon="7.49605">
        <ele>428</ele>
        <time>2022-10-01T10:05:24Z</time>
      </trkpt>
      <trkpt lat="47.20385" lon="7.49609">
        <ele>428</ele>
        <time>2022-10-01T10:05:25Z</time>
      </trkpt>
      <trkpt lat="47.20383" lon="7.49612">
        <ele>428</ele>
        <time>2022-10-01T10:05:26Z</time>
      </trkpt>
      <trkpt lat="47.20381" lon="7.49616">
        <ele>427.9</ele>
        <time>2022-10-01T10:05:27Z</time>
      </trkpt>
      <trkpt lat="47.20379" lon="7.49619">
        <ele>427.9</ele>
        <time>2022-10-01T10:05:28Z</time>
      </trkpt>
      <trkpt lat="47.20377" lon="7.49623">
        <ele>427.9</ele>
        <time>2022-10-01T10:05:29Z</time>
      </trkpt>
      <trkpt lat="47.20374" lon="7.49626">
        <ele>427.9</ele>
        <time>2022-10-01T10:05:30Z</time>
      </trkpt>
      <trkpt lat="47.20371" lon="7.49631">
        <ele>427.9</ele>
        <time>2022-10-01T10:05:31Z</time>
      </trkpt>
      <trkpt lat="47.20368" lon="7.49636">
        <ele>427.9</ele>
        <time>2022-10-01T10:05:32Z</time>
      </trkpt>
      <trkpt lat="47.20365" lon="7.4964">
        <ele>427.9</ele>
        <time>2022-10-01T10:05:33Z</time>
      </trkpt>
      <trkpt lat="47.20362" lon="7.49645">
        <ele>427.9</ele>
        <time>2022-10-01T10:05:34Z</time>
      </trkpt>
      <trkpt lat="47.20359" lon="7.4965">
        <ele>427.9</ele>
        <time>2022-10-01T10:05:35Z</time>
      </trkpt>
      <trkpt lat="47.20356" lon="7.49654">
        <ele>427.9</ele>
        <time>2022-10-01T10:05:36Z</time>
      </trkpt>
      <trkpt lat="47.20352" lon="7.49659">
        <ele>427.9</ele>
        <time>2022-10-01T10:05:37Z</time>
      </trkpt>
      <trkpt lat="47.20349" lon="7.49664">
        <ele>427.9</ele>
        <time>2022-10-01T10:05:38Z</time>
      </trkpt>
      <trkpt lat="47.20346" lon="7.49668">
        <ele>427.9</ele>
        <time>2022-10-01T10:05:39Z</time>
      </trkpt>
      <trkpt lat="47.20343" lon="7.49673">
        <ele>427.9</ele>
        <time>2022-10-01T10:05:40Z</time>
      </trkpt>
      <trkpt lat="47.20339" lon="7.49678">
        <ele>427.9</ele>
        <time>2022-10-01T10:05:41Z</time>
      </trkpt>
      <trkpt lat="47.20336" lon="7.49682">
        <ele>428</ele>
        <time>2022-10-01T10:05:42Z</time>
      </trkpt>
      <trkpt lat="47.20333" lon="7.49686">
        <ele>428</ele>
        <time>2022-10-01T10:05:43Z</time>
      </trkpt>
      <trkpt lat="47.2033" lon="7.4969">
        <ele>428</ele>
        <time>2022-10-01T10:05:44Z</time>
      </trkpt>
      <trkpt lat="47.20327" lon="7.49694">
        <ele>428</ele>
        <time>2022-10-01T10:05:45Z</time>
      </trkpt>
      <trkpt lat="47.20324" lon="7.49697">
        <ele>428</ele>
        <time>2022-10-01T10:05:46Z</time>
      </trkpt>
      <trkpt lat="47.2032" lon="7.49702">
        <ele>428</ele>
        <time>2022-10-01T10:05:47Z</time>
      </trkpt>
      <trkpt lat="47.20317" lon="7.49706">
        <ele>428</ele>
        <time>2022-10-01T10:05:48Z</time>
      </trkpt>
      <trkpt lat="47.20314" lon="7.4971">
        <ele>428</ele>
        <time>2022-10-01T10:05:49Z</time>
      </trkpt>
      <trkpt lat="47.20311" lon="7.49714">
        <ele>428</ele>
        <time>2022-10-01T10:05:50Z</time>
      </trkpt>
      <trkpt lat="47.20307" lon="7.49717">
        <ele>428</ele>
        <time>2022-10-01T10:05:51Z</time>
      </trkpt>
      <trkpt lat="47.20303" lon="7.49722">
        <ele>428</ele>
        <time>2022-10-01T10:05:52Z</time>
      </trkpt>
      <trkpt lat="47.203" lon="7.49727">
        <ele>428</ele>
        <time>2022-10-01T10:05:53Z</time>
      </trkpt>
      <trkpt lat="47.20296" lon="7.49731">
        <ele>428</ele>
        <time>2022-10-01T10:05:54Z</time>
      </trkpt>
      <trkpt lat="47.20292" lon="7.49735">
        <ele>428</ele>
        <time>2022-10-01T10:05:55Z</time>
      </trkpt>
      <trkpt lat="47.20289" lon="7.49741">
        <ele>428</ele>
        <time>2022-10-01T10:05:56Z</time>
      </trkpt>
      <trkpt lat="47.20285" lon="7.49745">
        <ele>428</ele>
        <time>2022-10-01T10:05:57Z</time>
      </trkpt>
      <trkpt lat="47.20281" lon="7.4975">
        <ele>428</ele>
        <time>2022-10-01T10:05:58Z</time>
      </trkpt>
      <trkpt lat="47.20278" lon="7.49753">
        <ele>428</ele>
        <time>2022-10-01T10:05:59Z</time>
      </trkpt>
      <trkpt lat="47.20275" lon="7.49757">
        <ele>428</ele>
        <time>2022-10-01T10:06:00Z</time>
      </trkpt>
      <trkpt lat="47.20272" lon="7.49761">
        <ele>428</ele>
        <time>2022-10-01T10:06:01Z</time>
      </trkpt>
      <trkpt lat="47.20269" lon="7.49764">
        <ele>428</ele>
        <time>2022-10-01T10:06:02Z</time>
      </trkpt>
      <trkpt lat="47.20264" lon="7.49769">
        <ele>428</ele>
        <time>2022-10-01T10:06:03Z</time>
      </trkpt>
      <trkpt lat="47.20261" lon="7.49773">
        <ele>428</ele>
        <time>2022-10-01T10:06:04Z</time>
      </trkpt>
      <trkpt lat="47.20258" lon="7.49777">
        <ele>428</ele>
        <time>2022-10-01T10:06:05Z</time>
      </trkpt>
      <trkpt lat="47.20254" lon="7.49782">
        <ele>428</ele>
        <time>2022-10-01T10:06:06Z</time>
      </trkpt>
      <trkpt lat="47.2025" lon="7.49786">
        <ele>428</ele>
        <time>2022-10-01T10:06:07Z</time>
      </trkpt>
      <trkpt lat="47.20247" lon="7.4979">
        <ele>428</ele>
        <time>2022-10-01T10:06:08Z</time>
      </trkpt>
      <trkpt lat="47.20244" lon="7.49794">
        <ele>428</ele>
        <time>2022-10-01T10:06:09Z</time>
      </trkpt>
      <trkpt lat="47.20241" lon="7.49798">
        <ele>428</ele>
        <time>2022-10-01T10:06:10Z</time>
      </trkpt>
      <trkpt lat="47.20237" lon="7.49802">
        <ele>428</ele>
        <time>2022-10-01T10:06:11Z</time>
      </trkpt>
      <trkpt lat="47.20233" lon="7.49806">
        <ele>428</ele>
        <time>2022-10-01T10:06:12Z</time>
      </trkpt>
      <trkpt lat="47.2023" lon="7.4981">
        <ele>428</ele>
        <time>2022-10-01T10:06:13Z</time>
      </trkpt>
      <trkpt lat="47.20226" lon="7.49815">
        <ele>428</ele>
        <time>2022-10-01T10:06:14Z</time>
      </trkpt>
      <trkpt lat="47.20223" lon="7.49818">
        <ele>428</ele>
        <time>2022-10-01T10:06:15Z</time>
      </trkpt>
      <trkpt lat="47.2022" lon="7.49823">
        <ele>428</ele>
        <time>2022-10-01T10:06:16Z</time>
      </trkpt>
      <trkpt lat="47.20216" lon="7.49827">
        <ele>428.1</ele>
        <time>2022-10-01T10:06:17Z</time>
      </trkpt>
      <trkpt lat="47.20213" lon="7.49831">
        <ele>428.1</ele>
        <time>2022-10-01T10:06:18Z</time>
      </trkpt>
      <trkpt lat="47.2021" lon="7.49834">
        <ele>428.1</ele>
        <time>2022-10-01T10:06:19Z</time>
      </trkpt>
      <trkpt lat="47.20206" lon="7.49837">
        <ele>428.2</ele>
        <time>2022-10-01T10:06:20Z</time>
      </trkpt>
      <trkpt lat="47.20203" lon="7.4984">
        <ele>428.2</ele>
        <time>2022-10-01T10:06:21Z</time>
      </trkpt>
      <trkpt lat="47.202" lon="7.49844">
        <ele>428.3</ele>
        <time>2022-10-01T10:06:22Z</time>
      </trkpt>
      <trkpt lat="47.20197" lon="7.49847">
        <ele>428.3</ele>
        <time>2022-10-01T10:06:23Z</time>
      </trkpt>
      <trkpt lat="47.20193" lon="7.4985">
        <ele>428.3</ele>
        <time>2022-10-01T10:06:24Z</time>
      </trkpt>
      <trkpt lat="47.2019" lon="7.49853">
        <ele>428.4</ele>
        <time>2022-10-01T10:06:25Z</time>
      </trkpt>
      <trkpt lat="47.20187" lon="7.49856">
        <ele>428.4</ele>
        <time>2022-10-01T10:06:26Z</time>
      </trkpt>
      <trkpt lat="47.20184" lon="7.49859">
        <ele>428.4</ele>
        <time>2022-10-01T10:06:27Z</time>
      </trkpt>
      <trkpt lat="47.20181" lon="7.49862">
        <ele>428.4</ele>
        <time>2022-10-01T10:06:28Z</time>
      </trkpt>
      <trkpt lat="47.20177" lon="7.49866">
        <ele>428.4</ele>
        <time>2022-10-01T10:06:29Z</time>
      </trkpt>
      <trkpt lat="47.20174" lon="7.49869">
        <ele>428.4</ele>
        <time>2022-10-01T10:06:30Z</time>
      </trkpt>
      <trkpt lat="47.20171" lon="7.49872">
        <ele>428.4</ele>
        <time>2022-10-01T10:06:31Z</time>
      </trkpt>
      <trkpt lat="47.20168" lon="7.49875">
        <ele>428.4</ele>
        <time>2022-10-01T10:06:32Z</time>
      </trkpt>
      <trkpt lat="47.20164" lon="7.49879">
        <ele>428.4</ele>
        <time>2022-10-01T10:06:33Z</time>
      </trkpt>
      <trkpt lat="47.20161" lon="7.49884">
        <ele>428.4</ele>
        <time>2022-10-01T10:06:34Z</time>
      </trkpt>
      <trkpt lat="47.20157" lon="7.49888">
        <ele>428.4</ele>
        <time>2022-10-01T10:06:35Z</time>
      </trkpt>
      <trkpt lat="47.20154" lon="7.49892">
        <ele>428.4</ele>
        <time>2022-10-01T10:06:36Z</time>
      </trkpt>
      <trkpt lat="47.2015" lon="7.49896">
        <ele>428.3</ele>
        <time>2022-10-01T10:06:37Z</time>
      </trkpt>
      <trkpt lat="47.20146" lon="7.49901">
        <ele>428.3</ele>
        <time>2022-10-01T10:06:38Z</time>
      </trkpt>
      <trkpt lat="47.20142" lon="7.49905">
        <ele>428.3</ele>
        <time>2022-10-01T10:06:39Z</time>
      </trkpt>
      <trkpt lat="47.20138" lon="7.49911">
        <ele>428.3</ele>
        <time>2022-10-01T10:06:40Z</time>
      </trkpt>
      <trkpt lat="47.20134" lon="7.49915">
        <ele>428.2</ele>
        <time>2022-10-01T10:06:41Z</time>
      </trkpt>
      <trkpt lat="47.2013" lon="7.4992">
        <ele>428.2</ele>
        <time>2022-10-01T10:06:42Z</time>
      </trkpt>
      <trkpt lat="47.20127" lon="7.49924">
        <ele>428.2</ele>
        <time>2022-10-01T10:06:43Z</time>
      </trkpt>
      <trkpt lat="47.20124" lon="7.49929">
        <ele>428.2</ele>
        <time>2022-10-01T10:06:44Z</time>
      </trkpt>
      <trkpt lat="47.2012" lon="7.49934">
        <ele>428.2</ele>
        <time>2022-10-01T10:06:45Z</time>
      </trkpt>
      <trkpt lat="47.20116" lon="7.49939">
        <ele>428.2</ele>
        <time>2022-10-01T10:06:46Z</time>
      </trkpt>
      <trkpt lat="47.20114" lon="7.49943">
        <ele>428.2</ele>
        <time>2022-10-01T10:06:47Z</time>
      </trkpt>
      <trkpt lat="47.2011" lon="7.49947">
        <ele>428.2</ele>
        <time>2022-10-01T10:06:48Z</time>
      </trkpt>
      <trkpt lat="47.20106" lon="7.49951">
        <ele>428.2</ele>
        <time>2022-10-01T10:06:49Z</time>
      </trkpt>
      <trkpt lat="47.20101" lon="7.49957">
        <ele>428.2</ele>
        <time>2022-10-01T10:06:50Z</time>
      </trkpt>
      <trkpt lat="47.20098" lon="7.49961">
        <ele>428.2</ele>
        <time>2022-10-01T10:06:51Z</time>
      </trkpt>
      <trkpt lat="47.20096" lon="7.49965">
        <ele>428.2</ele>
        <time>2022-10-01T10:06:52Z</time>
      </trkpt>
      <trkpt lat="47.20093" lon="7.49969">
        <ele>428.2</ele>
        <time>2022-10-01T10:06:53Z</time>
      </trkpt>
      <trkpt lat="47.20089" lon="7.49974">
        <ele>428.3</ele>
        <time>2022-10-01T10:06:54Z</time>
      </trkpt>
      <trkpt lat="47.20087" lon="7.49977">
        <ele>428.3</ele>
        <time>2022-10-01T10:06:55Z</time>
      </trkpt>
      <trkpt lat="47.20083" lon="7.49982">
        <ele>428.3</ele>
        <time>2022-10-01T10:06:56Z</time>
      </trkpt>
      <trkpt lat="47.2008" lon="7.49988">
        <ele>428.3</ele>
        <time>2022-10-01T10:06:57Z</time>
      </trkpt>
      <trkpt lat="47.20077" lon="7.49991">
        <ele>428.3</ele>
        <time>2022-10-01T10:06:58Z</time>
      </trkpt>
      <trkpt lat="47.20074" lon="7.49995">
        <ele>428.3</ele>
        <time>2022-10-01T10:06:59Z</time>
      </trkpt>
      <trkpt lat="47.20071" lon="7.49999">
        <ele>428.3</ele>
        <time>2022-10-01T10:07:00Z</time>
      </trkpt>
      <trkpt lat="47.20068" lon="7.50003">
        <ele>428.3</ele>
        <time>2022-10-01T10:07:01Z</time>
      </trkpt>
      <trkpt lat="47.20065" lon="7.50007">
        <ele>428.3</ele>
        <time>2022-10-01T10:07:02Z</time>
      </trkpt>
      <trkpt lat="47.20061" lon="7.50012">
        <ele>428.3</ele>
        <time>2022-10-01T10:07:03Z</time>
      </trkpt>
      <trkpt lat="47.20058" lon="7.50016">
        <ele>428.3</ele>
        <time>2022-10-01T10:07:04Z</time>
      </trkpt>
      <trkpt lat="47.20055" lon="7.50021">
        <ele>428.3</ele>
        <time>2022-10-01T10:07:05Z</time>
      </trkpt>
      <trkpt lat="47.20052" lon="7.50025">
        <ele>428.3</ele>
        <time>2022-10-01T10:07:06Z</time>
      </trkpt>
      <trkpt lat="47.20048" lon="7.50029">
        <ele>428.3</ele>
        <time>2022-10-01T10:07:07Z</time>
      </trkpt>
      <trkpt lat="47.20045" lon="7.50033">
        <ele>428.3</ele>
        <time>2022-10-01T10:07:08Z</time>
      </trkpt>
      <trkpt lat="47.20042" lon="7.50038">
        <ele>428.3</ele>
        <time>2022-10-01T10:07:09Z</time>
      </trkpt>
      <trkpt lat="47.20039" lon="7.50041">
        <ele>428.3</ele>
        <time>2022-10-01T10:07:10Z</time>
      </trkpt>
      <trkpt lat="47.20036" lon="7.50046">
        <ele>428.3</ele>
        <time>2022-10-01T10:07:11Z</time>
      </trkpt>
      <trkpt lat="47.20032" lon="7.5005">
        <ele>428.3</ele>
        <time>2022-10-01T10:07:12Z</time>
      </trkpt>
      <trkpt lat="47.20029" lon="7.50054">
        <ele>428.3</ele>
        <time>2022-10-01T10:07:13Z</time>
      </trkpt>
      <trkpt lat="47.20026" lon="7.50058">
        <ele>428.3</ele>
        <time>2022-10-01T10:07:14Z</time>
      </trkpt>
      <trkpt lat="47.20022" lon="7.50062">
        <ele>428.3</ele>
        <time>2022-10-01T10:07:15Z</time>
      </trkpt>
      <trkpt lat="47.20018" lon="7.50067">
        <ele>428.2</ele>
        <time>2022-10-01T10:07:16Z</time>
      </trkpt>
      <trkpt lat="47.20014" lon="7.50072">
        <ele>428.2</ele>
        <time>2022-10-01T10:07:17Z</time>
      </trkpt>
      <trkpt lat="47.20011" lon="7.50076">
        <ele>428.2</ele>
        <time>2022-10-01T10:07:18Z</time>
      </trkpt>
      <trkpt lat="47.20007" lon="7.50081">
        <ele>428.2</ele>
        <time>2022-10-01T10:07:19Z</time>
      </trkpt>
      <trkpt lat="47.20003" lon="7.50085">
        <ele>428.2</ele>
        <time>2022-10-01T10:07:20Z</time>
      </trkpt>
      <trkpt lat="47.19999" lon="7.5009">
        <ele>428.2</ele>
        <time>2022-10-01T10:07:21Z</time>
      </trkpt>
      <trkpt lat="47.19996" lon="7.50093">
        <ele>428.1</ele>
        <time>2022-10-01T10:07:22Z</time>
      </trkpt>
      <trkpt lat="47.19993" lon="7.50098">
        <ele>428.1</ele>
        <time>2022-10-01T10:07:23Z</time>
      </trkpt>
      <trkpt lat="47.19989" lon="7.50102">
        <ele>428.1</ele>
        <time>2022-10-01T10:07:24Z</time>
      </trkpt>
      <trkpt lat="47.19986" lon="7.50106">
        <ele>428.1</ele>
        <time>2022-10-01T10:07:25Z</time>
      </trkpt>
      <trkpt lat="47.19982" lon="7.5011">
        <ele>428.1</ele>
        <time>2022-10-01T10:07:26Z</time>
      </trkpt>
      <trkpt lat="47.19979" lon="7.50114">
        <ele>428.1</ele>
        <time>2022-10-01T10:07:27Z</time>
      </trkpt>
      <trkpt lat="47.19976" lon="7.50117">
        <ele>428.1</ele>
        <time>2022-10-01T10:07:28Z</time>
      </trkpt>
      <trkpt lat="47.19972" lon="7.50121">
        <ele>428.2</ele>
        <time>2022-10-01T10:07:29Z</time>
      </trkpt>
      <trkpt lat="47.19968" lon="7.50125">
        <ele>428.2</ele>
        <time>2022-10-01T10:07:30Z</time>
      </trkpt>
      <trkpt lat="47.19964" lon="7.50129">
        <ele>428.2</ele>
        <time>2022-10-01T10:07:31Z</time>
      </trkpt>
      <trkpt lat="47.1996" lon="7.50133">
        <ele>428.2</ele>
        <time>2022-10-01T10:07:32Z</time>
      </trkpt>
      <trkpt lat="47.19957" lon="7.50136">
        <ele>428.2</ele>
        <time>2022-10-01T10:07:33Z</time>
      </trkpt>
      <trkpt lat="47.19953" lon="7.50141">
        <ele>428.2</ele>
        <time>2022-10-01T10:07:34Z</time>
      </trkpt>
      <trkpt lat="47.1995" lon="7.50144">
        <ele>428.2</ele>
        <time>2022-10-01T10:07:35Z</time>
      </trkpt>
      <trkpt lat="47.19946" lon="7.50148">
        <ele>428.2</ele>
        <time>2022-10-01T10:07:36Z</time>
      </trkpt>
      <trkpt lat="47.19943" lon="7.50151">
        <ele>428.2</ele>
        <time>2022-10-01T10:07:37Z</time>
      </trkpt>
      <trkpt lat="47.1994" lon="7.50155">
        <ele>428.2</ele>
        <time>2022-10-01T10:07:38Z</time>
      </trkpt>
      <trkpt lat="47.19936" lon="7.50157">
        <ele>428.2</ele>
        <time>2022-10-01T10:07:39Z</time>
      </trkpt>
      <trkpt lat="47.19933" lon="7.50162">
        <ele>428.2</ele>
        <time>2022-10-01T10:07:40Z</time>
      </trkpt>
      <trkpt lat="47.19929" lon="7.50166">
        <ele>428.2</ele>
        <time>2022-10-01T10:07:41Z</time>
      </trkpt>
      <trkpt lat="47.19925" lon="7.50169">
        <ele>428.3</ele>
        <time>2022-10-01T10:07:42Z</time>
      </trkpt>
      <trkpt lat="47.19922" lon="7.50173">
        <ele>428.3</ele>
        <time>2022-10-01T10:07:43Z</time>
      </trkpt>
      <trkpt lat="47.19918" lon="7.50177">
        <ele>428.3</ele>
        <time>2022-10-01T10:07:44Z</time>
      </trkpt>
      <trkpt lat="47.19914" lon="7.50181">
        <ele>428.3</ele>
        <time>2022-10-01T10:07:45Z</time>
      </trkpt>
      <trkpt lat="47.19911" lon="7.50185">
        <ele>428.3</ele>
        <time>2022-10-01T10:07:46Z</time>
      </trkpt>
      <trkpt lat="47.19907" lon="7.50189">
        <ele>428.3</ele>
        <time>2022-10-01T10:07:47Z</time>
      </trkpt>
      <trkpt lat="47.19904" lon="7.50193">
        <ele>428.3</ele>
        <time>2022-10-01T10:07:48Z</time>
      </trkpt>
      <trkpt lat="47.19901" lon="7.50197">
        <ele>428.3</ele>
        <time>2022-10-01T10:07:49Z</time>
      </trkpt>
      <trkpt lat="47.19897" lon="7.50202">
        <ele>428.3</ele>
        <time>2022-10-01T10:07:50Z</time>
      </trkpt>
      <trkpt lat="47.19894" lon="7.50205">
        <ele>428.3</ele>
        <time>2022-10-01T10:07:51Z</time>
      </trkpt>
      <trkpt lat="47.19891" lon="7.50208">
        <ele>428.3</ele>
        <time>2022-10-01T10:07:52Z</time>
      </trkpt>
      <trkpt lat="47.19887" lon="7.50213">
        <ele>428.3</ele>
        <time>2022-10-01T10:07:53Z</time>
      </trkpt>
      <trkpt lat="47.19883" lon="7.50216">
        <ele>428.3</ele>
        <time>2022-10-01T10:07:54Z</time>
      </trkpt>
      <trkpt lat="47.1988" lon="7.5022">
        <ele>428.3</ele>
        <time>2022-10-01T10:07:55Z</time>
      </trkpt>
      <trkpt lat="47.19876" lon="7.50225">
        <ele>428.3</ele>
        <time>2022-10-01T10:07:56Z</time>
      </trkpt>
      <trkpt lat="47.19872" lon="7.50229">
        <ele>428.2</ele>
        <time>2022-10-01T10:07:57Z</time>
      </trkpt>
      <trkpt lat="47.19869" lon="7.50234">
        <ele>428.2</ele>
        <time>2022-10-01T10:07:58Z</time>
      </trkpt>
      <trkpt lat="47.19865" lon="7.50239">
        <ele>428.2</ele>
        <time>2022-10-01T10:07:59Z</time>
      </trkpt>
      <trkpt lat="47.19862" lon="7.50244">
        <ele>428.2</ele>
        <time>2022-10-01T10:08:00Z</time>
      </trkpt>
      <trkpt lat="47.19858" lon="7.50249">
        <ele>428.2</ele>
        <time>2022-10-01T10:08:01Z</time>
      </trkpt>
      <trkpt lat="47.19856" lon="7.50255">
        <ele>428.2</ele>
        <time>2022-10-01T10:08:02Z</time>
      </trkpt>
      <trkpt lat="47.19853" lon="7.50259">
        <ele>428.2</ele>
        <time>2022-10-01T10:08:03Z</time>
      </trkpt>
      <trkpt lat="47.19849" lon="7.50264">
        <ele>428.2</ele>
        <time>2022-10-01T10:08:04Z</time>
      </trkpt>
      <trkpt lat="47.19845" lon="7.50268">
        <ele>428.2</ele>
        <time>2022-10-01T10:08:05Z</time>
      </trkpt>
      <trkpt lat="47.19842" lon="7.50273">
        <ele>428.2</ele>
        <time>2022-10-01T10:08:06Z</time>
      </trkpt>
      <trkpt lat="47.19839" lon="7.50278">
        <ele>428.2</ele>
        <time>2022-10-01T10:08:07Z</time>
      </trkpt>
      <trkpt lat="47.19836" lon="7.50282">
        <ele>428.2</ele>
        <time>2022-10-01T10:08:08Z</time>
      </trkpt>
      <trkpt lat="47.19833" lon="7.50287">
        <ele>428.2</ele>
        <time>2022-10-01T10:08:09Z</time>
      </trkpt>
      <trkpt lat="47.19829" lon="7.5029">
        <ele>428.2</ele>
        <time>2022-10-01T10:08:10Z</time>
      </trkpt>
      <trkpt lat="47.19826" lon="7.50295">
        <ele>428.2</ele>
        <time>2022-10-01T10:08:11Z</time>
      </trkpt>
      <trkpt lat="47.19823" lon="7.50299">
        <ele>428.2</ele>
        <time>2022-10-01T10:08:12Z</time>
      </trkpt>
      <trkpt lat="47.1982" lon="7.50304">
        <ele>428.2</ele>
        <time>2022-10-01T10:08:13Z</time>
      </trkpt>
      <trkpt lat="47.19817" lon="7.50309">
        <ele>428.1</ele>
        <time>2022-10-01T10:08:14Z</time>
      </trkpt>
      <trkpt lat="47.19814" lon="7.50314">
        <ele>428.1</ele>
        <time>2022-10-01T10:08:15Z</time>
      </trkpt>
      <trkpt lat="47.1981" lon="7.50318">
        <ele>428.1</ele>
        <time>2022-10-01T10:08:16Z</time>
      </trkpt>
      <trkpt lat="47.19807" lon="7.50323">
        <ele>428.1</ele>
        <time>2022-10-01T10:08:17Z</time>
      </trkpt>
      <trkpt lat="47.19804" lon="7.50328">
        <ele>428</ele>
        <time>2022-10-01T10:08:18Z</time>
      </trkpt>
      <trkpt lat="47.19801" lon="7.50333">
        <ele>428</ele>
        <time>2022-10-01T10:08:19Z</time>
      </trkpt>
      <trkpt lat="47.19797" lon="7.50338">
        <ele>428</ele>
        <time>2022-10-01T10:08:20Z</time>
      </trkpt>
      <trkpt lat="47.19795" lon="7.50342">
        <ele>428</ele>
        <time>2022-10-01T10:08:21Z</time>
      </trkpt>
      <trkpt lat="47.19792" lon="7.50347">
        <ele>428</ele>
        <time>2022-10-01T10:08:22Z</time>
      </trkpt>
      <trkpt lat="47.19789" lon="7.50351">
        <ele>428</ele>
        <time>2022-10-01T10:08:23Z</time>
      </trkpt>
      <trkpt lat="47.19786" lon="7.50356">
        <ele>428</ele>
        <time>2022-10-01T10:08:24Z</time>
      </trkpt>
      <trkpt lat="47.19784" lon="7.50359">
        <ele>428</ele>
        <time>2022-10-01T10:08:25Z</time>
      </trkpt>
      <trkpt lat="47.19781" lon="7.50364">
        <ele>428</ele>
        <time>2022-10-01T10:08:26Z</time>
      </trkpt>
      <trkpt lat="47.19778" lon="7.50369">
        <ele>428</ele>
        <time>2022-10-01T10:08:27Z</time>
      </trkpt>
      <trkpt lat="47.19775" lon="7.50374">
        <ele>428</ele>
        <time>2022-10-01T10:08:28Z</time>
      </trkpt>
      <trkpt lat="47.19772" lon="7.5038">
        <ele>428</ele>
        <time>2022-10-01T10:08:29Z</time>
      </trkpt>
      <trkpt lat="47.19769" lon="7.50386">
        <ele>428</ele>
        <time>2022-10-01T10:08:30Z</time>
      </trkpt>
      <trkpt lat="47.19767" lon="7.50391">
        <ele>428</ele>
        <time>2022-10-01T10:08:31Z</time>
      </trkpt>
      <trkpt lat="47.19764" lon="7.50398">
        <ele>428</ele>
        <time>2022-10-01T10:08:32Z</time>
      </trkpt>
      <trkpt lat="47.1976" lon="7.50403">
        <ele>428</ele>
        <time>2022-10-01T10:08:33Z</time>
      </trkpt>
      <trkpt lat="47.19758" lon="7.50409">
        <ele>428</ele>
        <time>2022-10-01T10:08:34Z</time>
      </trkpt>
      <trkpt lat="47.19756" lon="7.50415">
        <ele>428</ele>
        <time>2022-10-01T10:08:35Z</time>
      </trkpt>
      <trkpt lat="47.19753" lon="7.50422">
        <ele>428</ele>
        <time>2022-10-01T10:08:36Z</time>
      </trkpt>
      <trkpt lat="47.19751" lon="7.50427">
        <ele>428</ele>
        <time>2022-10-01T10:08:37Z</time>
      </trkpt>
      <trkpt lat="47.19749" lon="7.50432">
        <ele>428</ele>
        <time>2022-10-01T10:08:38Z</time>
      </trkpt>
      <trkpt lat="47.19747" lon="7.50438">
        <ele>428.1</ele>
        <time>2022-10-01T10:08:39Z</time>
      </trkpt>
      <trkpt lat="47.19745" lon="7.50442">
        <ele>428.1</ele>
        <time>2022-10-01T10:08:40Z</time>
      </trkpt>
      <trkpt lat="47.19743" lon="7.50448">
        <ele>428.1</ele>
        <time>2022-10-01T10:08:41Z</time>
      </trkpt>
      <trkpt lat="47.19741" lon="7.50452">
        <ele>428.1</ele>
        <time>2022-10-01T10:08:42Z</time>
      </trkpt>
      <trkpt lat="47.19739" lon="7.50457">
        <ele>428.1</ele>
        <time>2022-10-01T10:08:43Z</time>
      </trkpt>
      <trkpt lat="47.19737" lon="7.50462">
        <ele>428</ele>
        <time>2022-10-01T10:08:44Z</time>
      </trkpt>
      <trkpt lat="47.19736" lon="7.50466">
        <ele>428</ele>
        <time>2022-10-01T10:08:45Z</time>
      </trkpt>
      <trkpt lat="47.19733" lon="7.50472">
        <ele>428</ele>
        <time>2022-10-01T10:08:46Z</time>
      </trkpt>
      <trkpt lat="47.1973" lon="7.50479">
        <ele>428</ele>
        <time>2022-10-01T10:08:47Z</time>
      </trkpt>
      <trkpt lat="47.19728" lon="7.50485">
        <ele>428</ele>
        <time>2022-10-01T10:08:48Z</time>
      </trkpt>
      <trkpt lat="47.19726" lon="7.50491">
        <ele>428</ele>
        <time>2022-10-01T10:08:49Z</time>
      </trkpt>
      <trkpt lat="47.19723" lon="7.50497">
        <ele>428</ele>
        <time>2022-10-01T10:08:50Z</time>
      </trkpt>
      <trkpt lat="47.19722" lon="7.50502">
        <ele>428</ele>
        <time>2022-10-01T10:08:51Z</time>
      </trkpt>
      <trkpt lat="47.1972" lon="7.50508">
        <ele>428</ele>
        <time>2022-10-01T10:08:52Z</time>
      </trkpt>
      <trkpt lat="47.19719" lon="7.50513">
        <ele>428</ele>
        <time>2022-10-01T10:08:53Z</time>
      </trkpt>
      <trkpt lat="47.19716" lon="7.5052">
        <ele>428</ele>
        <time>2022-10-01T10:08:54Z</time>
      </trkpt>
      <trkpt lat="47.19715" lon="7.50526">
        <ele>428</ele>
        <time>2022-10-01T10:08:55Z</time>
      </trkpt>
      <trkpt lat="47.19714" lon="7.50533">
        <ele>428</ele>
        <time>2022-10-01T10:08:56Z</time>
      </trkpt>
      <trkpt lat="47.19713" lon="7.50539">
        <ele>428</ele>
        <time>2022-10-01T10:08:57Z</time>
      </trkpt>
      <trkpt lat="47.19712" lon="7.50546">
        <ele>428</ele>
        <time>2022-10-01T10:08:58Z</time>
      </trkpt>
      <trkpt lat="47.19711" lon="7.50552">
        <ele>428</ele>
        <time>2022-10-01T10:08:59Z</time>
      </trkpt>
      <trkpt lat="47.1971" lon="7.50558">
        <ele>428</ele>
        <time>2022-10-01T10:09:00Z</time>
      </trkpt>
      <trkpt lat="47.1971" lon="7.50565">
        <ele>428</ele>
        <time>2022-10-01T10:09:01Z</time>
      </trkpt>
      <trkpt lat="47.19708" lon="7.50571">
        <ele>427.9</ele>
        <time>2022-10-01T10:09:02Z</time>
      </trkpt>
      <trkpt lat="47.19707" lon="7.50577">
        <ele>427.9</ele>
        <time>2022-10-01T10:09:03Z</time>
      </trkpt>
      <trkpt lat="47.19705" lon="7.50584">
        <ele>427.9</ele>
        <time>2022-10-01T10:09:04Z</time>
      </trkpt>
      <trkpt lat="47.19703" lon="7.50591">
        <ele>427.9</ele>
        <time>2022-10-01T10:09:05Z</time>
      </trkpt>
      <trkpt lat="47.19702" lon="7.50598">
        <ele>427.9</ele>
        <time>2022-10-01T10:09:06Z</time>
      </trkpt>
      <trkpt lat="47.19701" lon="7.50605">
        <ele>427.9</ele>
        <time>2022-10-01T10:09:08Z</time>
      </trkpt>
      <trkpt lat="47.19699" lon="7.50611">
        <ele>427.9</ele>
        <time>2022-10-01T10:09:09Z</time>
      </trkpt>
      <trkpt lat="47.19698" lon="7.50618">
        <ele>427.9</ele>
        <time>2022-10-01T10:09:10Z</time>
      </trkpt>
      <trkpt lat="47.19697" lon="7.50624">
        <ele>427.9</ele>
        <time>2022-10-01T10:09:11Z</time>
      </trkpt>
      <trkpt lat="47.19696" lon="7.5063">
        <ele>427.9</ele>
        <time>2022-10-01T10:09:12Z</time>
      </trkpt>
      <trkpt lat="47.19696" lon="7.50636">
        <ele>427.9</ele>
        <time>2022-10-01T10:09:13Z</time>
      </trkpt>
      <trkpt lat="47.19695" lon="7.50643">
        <ele>427.8</ele>
        <time>2022-10-01T10:09:14Z</time>
      </trkpt>
      <trkpt lat="47.19694" lon="7.50649">
        <ele>427.8</ele>
        <time>2022-10-01T10:09:15Z</time>
      </trkpt>
      <trkpt lat="47.19693" lon="7.50657">
        <ele>427.8</ele>
        <time>2022-10-01T10:09:16Z</time>
      </trkpt>
      <trkpt lat="47.19692" lon="7.50664">
        <ele>427.8</ele>
        <time>2022-10-01T10:09:17Z</time>
      </trkpt>
      <trkpt lat="47.19691" lon="7.50671">
        <ele>427.8</ele>
        <time>2022-10-01T10:09:18Z</time>
      </trkpt>
      <trkpt lat="47.19689" lon="7.50678">
        <ele>427.8</ele>
        <time>2022-10-01T10:09:19Z</time>
      </trkpt>
      <trkpt lat="47.19689" lon="7.50685">
        <ele>427.7</ele>
        <time>2022-10-01T10:09:20Z</time>
      </trkpt>
      <trkpt lat="47.19689" lon="7.50692">
        <ele>427.7</ele>
        <time>2022-10-01T10:09:21Z</time>
      </trkpt>
      <trkpt lat="47.1969" lon="7.50699">
        <ele>427.7</ele>
        <time>2022-10-01T10:09:22Z</time>
      </trkpt>
      <trkpt lat="47.1969" lon="7.50706">
        <ele>427.7</ele>
        <time>2022-10-01T10:09:23Z</time>
      </trkpt>
      <trkpt lat="47.1969" lon="7.50712">
        <ele>427.7</ele>
        <time>2022-10-01T10:09:24Z</time>
      </trkpt>
      <trkpt lat="47.19691" lon="7.50717">
        <ele>427.7</ele>
        <time>2022-10-01T10:09:25Z</time>
      </trkpt>
      <trkpt lat="47.19689" lon="7.50723">
        <ele>427.7</ele>
        <time>2022-10-01T10:09:26Z</time>
      </trkpt>
      <trkpt lat="47.19689" lon="7.50731">
        <ele>427.7</ele>
        <time>2022-10-01T10:09:27Z</time>
      </trkpt>
      <trkpt lat="47.19689" lon="7.50738">
        <ele>427.7</ele>
        <time>2022-10-01T10:09:28Z</time>
      </trkpt>
      <trkpt lat="47.19689" lon="7.50746">
        <ele>427.7</ele>
        <time>2022-10-01T10:09:29Z</time>
      </trkpt>
      <trkpt lat="47.1969" lon="7.50752">
        <ele>427.7</ele>
        <time>2022-10-01T10:09:30Z</time>
      </trkpt>
      <trkpt lat="47.1969" lon="7.50759">
        <ele>427.7</ele>
        <time>2022-10-01T10:09:31Z</time>
      </trkpt>
      <trkpt lat="47.1969" lon="7.50766">
        <ele>427.7</ele>
        <time>2022-10-01T10:09:32Z</time>
      </trkpt>
      <trkpt lat="47.19692" lon="7.50779">
        <ele>427.7</ele>
        <time>2022-10-01T10:09:33Z</time>
      </trkpt>
      <trkpt lat="47.19692" lon="7.50785">
        <ele>427.7</ele>
        <time>2022-10-01T10:09:34Z</time>
      </trkpt>
      <trkpt lat="47.19693" lon="7.50791">
        <ele>427.7</ele>
        <time>2022-10-01T10:09:35Z</time>
      </trkpt>
      <trkpt lat="47.19694" lon="7.50796">
        <ele>427.7</ele>
        <time>2022-10-01T10:09:36Z</time>
      </trkpt>
      <trkpt lat="47.19694" lon="7.50801">
        <ele>427.7</ele>
        <time>2022-10-01T10:09:37Z</time>
      </trkpt>
      <trkpt lat="47.19696" lon="7.50805">
        <ele>427.7</ele>
        <time>2022-10-01T10:09:38Z</time>
      </trkpt>
      <trkpt lat="47.19698" lon="7.50808">
        <ele>427.7</ele>
        <time>2022-10-01T10:09:39Z</time>
      </trkpt>
      <trkpt lat="47.19698" lon="7.50809">
        <ele>427.7</ele>
        <time>2022-10-01T10:09:40Z</time>
      </trkpt>
      <trkpt lat="47.19701" lon="7.5081">
        <ele>427.7</ele>
        <time>2022-10-01T10:09:41Z</time>
      </trkpt>
      <trkpt lat="47.19702" lon="7.50811">
        <ele>427.7</ele>
        <time>2022-10-01T10:09:42Z</time>
      </trkpt>
      <trkpt lat="47.19703" lon="7.5081">
        <ele>427.7</ele>
        <time>2022-10-01T10:09:43Z</time>
      </trkpt>
      <trkpt lat="47.19704" lon="7.50809">
        <ele>427.7</ele>
        <time>2022-10-01T10:09:44Z</time>
      </trkpt>
      <trkpt lat="47.19704" lon="7.50809">
        <ele>427.7</ele>
        <time>2022-10-01T10:09:45Z</time>
      </trkpt>
      <trkpt lat="47.19705" lon="7.50809">
        <ele>427.7</ele>
        <time>2022-10-01T10:09:46Z</time>
      </trkpt>
      <trkpt lat="47.19705" lon="7.50808">
        <ele>427.7</ele>
        <time>2022-10-01T10:09:47Z</time>
      </trkpt>
      <trkpt lat="47.19708" lon="7.50804">
        <ele>427.7</ele>
        <time>2022-10-01T10:09:48Z</time>
      </trkpt>
      <trkpt lat="47.19708" lon="7.50802">
        <ele>427.7</ele>
        <time>2022-10-01T10:09:49Z</time>
      </trkpt>
      <trkpt lat="47.19712" lon="7.50802">
        <ele>427.7</ele>
        <time>2022-10-01T10:09:50Z</time>
      </trkpt>
      <trkpt lat="47.19714" lon="7.50802">
        <ele>427.7</ele>
        <time>2022-10-01T10:09:51Z</time>
      </trkpt>
      <trkpt lat="47.19719" lon="7.50802">
        <ele>427.7</ele>
        <time>2022-10-01T10:09:52Z</time>
      </trkpt>
      <trkpt lat="47.19725" lon="7.50804">
        <ele>427.7</ele>
        <time>2022-10-01T10:09:53Z</time>
      </trkpt>
      <trkpt lat="47.19728" lon="7.5081">
        <ele>427.6</ele>
        <time>2022-10-01T10:09:54Z</time>
      </trkpt>
      <trkpt lat="47.1973" lon="7.50817">
        <ele>427.6</ele>
        <time>2022-10-01T10:09:55Z</time>
      </trkpt>
      <trkpt lat="47.19728" lon="7.50826">
        <ele>427.6</ele>
        <time>2022-10-01T10:09:56Z</time>
      </trkpt>
      <trkpt lat="47.1973" lon="7.50831">
        <ele>427.5</ele>
        <time>2022-10-01T10:09:57Z</time>
      </trkpt>
      <trkpt lat="47.19733" lon="7.50836">
        <ele>427.5</ele>
        <time>2022-10-01T10:09:58Z</time>
      </trkpt>
      <trkpt lat="47.19734" lon="7.50842">
        <ele>427.5</ele>
        <time>2022-10-01T10:09:59Z</time>
      </trkpt>
      <trkpt lat="47.19736" lon="7.50848">
        <ele>427.4</ele>
        <time>2022-10-01T10:10:00Z</time>
      </trkpt>
      <trkpt lat="47.19737" lon="7.50854">
        <ele>427.4</ele>
        <time>2022-10-01T10:10:01Z</time>
      </trkpt>
      <trkpt lat="47.19739" lon="7.50859">
        <ele>427.4</ele>
        <time>2022-10-01T10:10:02Z</time>
      </trkpt>
      <trkpt lat="47.19743" lon="7.50866">
        <ele>427.4</ele>
        <time>2022-10-01T10:10:03Z</time>
      </trkpt>
      <trkpt lat="47.19745" lon="7.50872">
        <ele>427.4</ele>
        <time>2022-10-01T10:10:04Z</time>
      </trkpt>
      <trkpt lat="47.19747" lon="7.50879">
        <ele>427.4</ele>
        <time>2022-10-01T10:10:05Z</time>
      </trkpt>
      <trkpt lat="47.19749" lon="7.50886">
        <ele>427.4</ele>
        <time>2022-10-01T10:10:06Z</time>
      </trkpt>
      <trkpt lat="47.19751" lon="7.50892">
        <ele>427.5</ele>
        <time>2022-10-01T10:10:07Z</time>
      </trkpt>
      <trkpt lat="47.19753" lon="7.50897">
        <ele>427.5</ele>
        <time>2022-10-01T10:10:08Z</time>
      </trkpt>
      <trkpt lat="47.19755" lon="7.50903">
        <ele>427.5</ele>
        <time>2022-10-01T10:10:09Z</time>
      </trkpt>
      <trkpt lat="47.19758" lon="7.5091">
        <ele>427.6</ele>
        <time>2022-10-01T10:10:10Z</time>
      </trkpt>
      <trkpt lat="47.1976" lon="7.50917">
        <ele>427.6</ele>
        <time>2022-10-01T10:10:11Z</time>
      </trkpt>
      <trkpt lat="47.19763" lon="7.50923">
        <ele>427.7</ele>
        <time>2022-10-01T10:10:12Z</time>
      </trkpt>
      <trkpt lat="47.19765" lon="7.50929">
        <ele>427.7</ele>
        <time>2022-10-01T10:10:13Z</time>
      </trkpt>
      <trkpt lat="47.19768" lon="7.50936">
        <ele>427.7</ele>
        <time>2022-10-01T10:10:14Z</time>
      </trkpt>
      <trkpt lat="47.1977" lon="7.50942">
        <ele>427.8</ele>
        <time>2022-10-01T10:10:15Z</time>
      </trkpt>
      <trkpt lat="47.19772" lon="7.50948">
        <ele>427.8</ele>
        <time>2022-10-01T10:10:16Z</time>
      </trkpt>
      <trkpt lat="47.19776" lon="7.50954">
        <ele>427.8</ele>
        <time>2022-10-01T10:10:17Z</time>
      </trkpt>
      <trkpt lat="47.1978" lon="7.5096">
        <ele>427.8</ele>
        <time>2022-10-01T10:10:18Z</time>
      </trkpt>
      <trkpt lat="47.19785" lon="7.50965">
        <ele>427.8</ele>
        <time>2022-10-01T10:10:19Z</time>
      </trkpt>
      <trkpt lat="47.19789" lon="7.50971">
        <ele>427.8</ele>
        <time>2022-10-01T10:10:20Z</time>
      </trkpt>
      <trkpt lat="47.19792" lon="7.50977">
        <ele>427.8</ele>
        <time>2022-10-01T10:10:21Z</time>
      </trkpt>
      <trkpt lat="47.19796" lon="7.50983">
        <ele>427.8</ele>
        <time>2022-10-01T10:10:22Z</time>
      </trkpt>
      <trkpt lat="47.19799" lon="7.50989">
        <ele>427.8</ele>
        <time>2022-10-01T10:10:23Z</time>
      </trkpt>
      <trkpt lat="47.19803" lon="7.50994">
        <ele>427.8</ele>
        <time>2022-10-01T10:10:24Z</time>
      </trkpt>
      <trkpt lat="47.19806" lon="7.50999">
        <ele>427.8</ele>
        <time>2022-10-01T10:10:25Z</time>
      </trkpt>
      <trkpt lat="47.1981" lon="7.51005">
        <ele>427.8</ele>
        <time>2022-10-01T10:10:26Z</time>
      </trkpt>
      <trkpt lat="47.19813" lon="7.51011">
        <ele>427.8</ele>
        <time>2022-10-01T10:10:27Z</time>
      </trkpt>
      <trkpt lat="47.19815" lon="7.51017">
        <ele>427.8</ele>
        <time>2022-10-01T10:10:28Z</time>
      </trkpt>
      <trkpt lat="47.19817" lon="7.51024">
        <ele>427.8</ele>
        <time>2022-10-01T10:10:29Z</time>
      </trkpt>
      <trkpt lat="47.19819" lon="7.51031">
        <ele>427.8</ele>
        <time>2022-10-01T10:10:30Z</time>
      </trkpt>
      <trkpt lat="47.19821" lon="7.51038">
        <ele>427.9</ele>
        <time>2022-10-01T10:10:31Z</time>
      </trkpt>
      <trkpt lat="47.19822" lon="7.51046">
        <ele>427.9</ele>
        <time>2022-10-01T10:10:32Z</time>
      </trkpt>
      <trkpt lat="47.19823" lon="7.51053">
        <ele>427.9</ele>
        <time>2022-10-01T10:10:33Z</time>
      </trkpt>
      <trkpt lat="47.19823" lon="7.5106">
        <ele>427.9</ele>
        <time>2022-10-01T10:10:34Z</time>
      </trkpt>
      <trkpt lat="47.19825" lon="7.51066">
        <ele>427.9</ele>
        <time>2022-10-01T10:10:35Z</time>
      </trkpt>
      <trkpt lat="47.19827" lon="7.51072">
        <ele>428</ele>
        <time>2022-10-01T10:10:36Z</time>
      </trkpt>
      <trkpt lat="47.19829" lon="7.51079">
        <ele>428</ele>
        <time>2022-10-01T10:10:37Z</time>
      </trkpt>
      <trkpt lat="47.19831" lon="7.51084">
        <ele>428</ele>
        <time>2022-10-01T10:10:38Z</time>
      </trkpt>
      <trkpt lat="47.19833" lon="7.5109">
        <ele>428</ele>
        <time>2022-10-01T10:10:39Z</time>
      </trkpt>
      <trkpt lat="47.19835" lon="7.51095">
        <ele>428</ele>
        <time>2022-10-01T10:10:40Z</time>
      </trkpt>
      <trkpt lat="47.19838" lon="7.51099">
        <ele>428.1</ele>
        <time>2022-10-01T10:10:41Z</time>
      </trkpt>
      <trkpt lat="47.19839" lon="7.51103">
        <ele>428.1</ele>
        <time>2022-10-01T10:10:42Z</time>
      </trkpt>
      <trkpt lat="47.1984" lon="7.51107">
        <ele>428.1</ele>
        <time>2022-10-01T10:10:43Z</time>
      </trkpt>
      <trkpt lat="47.19841" lon="7.51112">
        <ele>428.1</ele>
        <time>2022-10-01T10:10:44Z</time>
      </trkpt>
      <trkpt lat="47.19839" lon="7.51116">
        <ele>428.1</ele>
        <time>2022-10-01T10:10:45Z</time>
      </trkpt>
      <trkpt lat="47.19837" lon="7.5112">
        <ele>428.2</ele>
        <time>2022-10-01T10:10:46Z</time>
      </trkpt>
      <trkpt lat="47.19836" lon="7.51122">
        <ele>428.2</ele>
        <time>2022-10-01T10:10:47Z</time>
      </trkpt>
      <trkpt lat="47.19836" lon="7.51126">
        <ele>428.2</ele>
        <time>2022-10-01T10:10:48Z</time>
      </trkpt>
      <trkpt lat="47.19836" lon="7.51131">
        <ele>428.2</ele>
        <time>2022-10-01T10:10:49Z</time>
      </trkpt>
      <trkpt lat="47.19837" lon="7.51136">
        <ele>428.2</ele>
        <time>2022-10-01T10:10:50Z</time>
      </trkpt>
      <trkpt lat="47.19837" lon="7.51143">
        <ele>428.2</ele>
        <time>2022-10-01T10:10:51Z</time>
      </trkpt>
      <trkpt lat="47.19836" lon="7.5115">
        <ele>428.1</ele>
        <time>2022-10-01T10:10:52Z</time>
      </trkpt>
      <trkpt lat="47.19836" lon="7.51156">
        <ele>428.1</ele>
        <time>2022-10-01T10:10:53Z</time>
      </trkpt>
      <trkpt lat="47.19836" lon="7.51164">
        <ele>428.1</ele>
        <time>2022-10-01T10:10:54Z</time>
      </trkpt>
      <trkpt lat="47.19837" lon="7.51172">
        <ele>428</ele>
        <time>2022-10-01T10:10:55Z</time>
      </trkpt>
      <trkpt lat="47.19837" lon="7.5118">
        <ele>428</ele>
        <time>2022-10-01T10:10:56Z</time>
      </trkpt>
      <trkpt lat="47.19837" lon="7.51188">
        <ele>428</ele>
        <time>2022-10-01T10:10:57Z</time>
      </trkpt>
      <trkpt lat="47.19838" lon="7.51196">
        <ele>427.9</ele>
        <time>2022-10-01T10:10:58Z</time>
      </trkpt>
      <trkpt lat="47.19838" lon="7.51204">
        <ele>427.9</ele>
        <time>2022-10-01T10:10:59Z</time>
      </trkpt>
      <trkpt lat="47.19838" lon="7.51212">
        <ele>427.8</ele>
        <time>2022-10-01T10:11:00Z</time>
      </trkpt>
      <trkpt lat="47.19839" lon="7.5122">
        <ele>427.8</ele>
        <time>2022-10-01T10:11:01Z</time>
      </trkpt>
      <trkpt lat="47.19839" lon="7.51229">
        <ele>427.7</ele>
        <time>2022-10-01T10:11:02Z</time>
      </trkpt>
      <trkpt lat="47.1984" lon="7.51238">
        <ele>427.7</ele>
        <time>2022-10-01T10:11:03Z</time>
      </trkpt>
      <trkpt lat="47.1984" lon="7.51247">
        <ele>427.7</ele>
        <time>2022-10-01T10:11:04Z</time>
      </trkpt>
      <trkpt lat="47.19841" lon="7.51256">
        <ele>427.7</ele>
        <time>2022-10-01T10:11:05Z</time>
      </trkpt>
      <trkpt lat="47.19841" lon="7.51265">
        <ele>427.6</ele>
        <time>2022-10-01T10:11:06Z</time>
      </trkpt>
      <trkpt lat="47.19842" lon="7.51274">
        <ele>427.6</ele>
        <time>2022-10-01T10:11:07Z</time>
      </trkpt>
      <trkpt lat="47.19842" lon="7.51282">
        <ele>427.6</ele>
        <time>2022-10-01T10:11:08Z</time>
      </trkpt>
      <trkpt lat="47.1984" lon="7.51292">
        <ele>427.6</ele>
        <time>2022-10-01T10:11:09Z</time>
      </trkpt>
      <trkpt lat="47.1984" lon="7.51301">
        <ele>427.6</ele>
        <time>2022-10-01T10:11:10Z</time>
      </trkpt>
      <trkpt lat="47.19841" lon="7.5131">
        <ele>427.6</ele>
        <time>2022-10-01T10:11:11Z</time>
      </trkpt>
      <trkpt lat="47.19842" lon="7.51318">
        <ele>427.6</ele>
        <time>2022-10-01T10:11:12Z</time>
      </trkpt>
      <trkpt lat="47.19843" lon="7.51326">
        <ele>427.6</ele>
        <time>2022-10-01T10:11:14Z</time>
      </trkpt>
      <trkpt lat="47.19843" lon="7.51335">
        <ele>427.6</ele>
        <time>2022-10-01T10:11:15Z</time>
      </trkpt>
      <trkpt lat="47.19844" lon="7.51343">
        <ele>427.6</ele>
        <time>2022-10-01T10:11:16Z</time>
      </trkpt>
      <trkpt lat="47.19844" lon="7.51352">
        <ele>427.6</ele>
        <time>2022-10-01T10:11:17Z</time>
      </trkpt>
      <trkpt lat="47.19845" lon="7.5136">
        <ele>427.7</ele>
        <time>2022-10-01T10:11:18Z</time>
      </trkpt>
      <trkpt lat="47.19845" lon="7.5137">
        <ele>427.7</ele>
        <time>2022-10-01T10:11:19Z</time>
      </trkpt>
      <trkpt lat="47.19846" lon="7.51379">
        <ele>427.7</ele>
        <time>2022-10-01T10:11:20Z</time>
      </trkpt>
      <trkpt lat="47.19847" lon="7.51389">
        <ele>427.7</ele>
        <time>2022-10-01T10:11:21Z</time>
      </trkpt>
      <trkpt lat="47.19847" lon="7.51399">
        <ele>427.7</ele>
        <time>2022-10-01T10:11:22Z</time>
      </trkpt>
      <trkpt lat="47.19849" lon="7.51418">
        <ele>427.7</ele>
        <time>2022-10-01T10:11:23Z</time>
      </trkpt>
      <trkpt lat="47.19849" lon="7.51427">
        <ele>427.7</ele>
        <time>2022-10-01T10:11:24Z</time>
      </trkpt>
      <trkpt lat="47.1985" lon="7.51437">
        <ele>427.7</ele>
        <time>2022-10-01T10:11:25Z</time>
      </trkpt>
      <trkpt lat="47.1985" lon="7.51447">
        <ele>427.7</ele>
        <time>2022-10-01T10:11:26Z</time>
      </trkpt>
      <trkpt lat="47.19851" lon="7.51456">
        <ele>427.7</ele>
        <time>2022-10-01T10:11:27Z</time>
      </trkpt>
      <trkpt lat="47.19852" lon="7.51466">
        <ele>427.8</ele>
        <time>2022-10-01T10:11:28Z</time>
      </trkpt>
      <trkpt lat="47.19853" lon="7.51475">
        <ele>427.8</ele>
        <time>2022-10-01T10:11:29Z</time>
      </trkpt>
      <trkpt lat="47.19853" lon="7.51486">
        <ele>427.8</ele>
        <time>2022-10-01T10:11:30Z</time>
      </trkpt>
      <trkpt lat="47.19853" lon="7.51496">
        <ele>427.8</ele>
        <time>2022-10-01T10:11:31Z</time>
      </trkpt>
      <trkpt lat="47.19852" lon="7.51506">
        <ele>427.7</ele>
        <time>2022-10-01T10:11:32Z</time>
      </trkpt>
      <trkpt lat="47.19851" lon="7.51517">
        <ele>427.7</ele>
        <time>2022-10-01T10:11:33Z</time>
      </trkpt>
      <trkpt lat="47.19849" lon="7.51529">
        <ele>427.7</ele>
        <time>2022-10-01T10:11:34Z</time>
      </trkpt>
      <trkpt lat="47.19846" lon="7.51542">
        <ele>427.7</ele>
        <time>2022-10-01T10:11:35Z</time>
      </trkpt>
      <trkpt lat="47.19839" lon="7.51557">
        <ele>427.6</ele>
        <time>2022-10-01T10:11:36Z</time>
      </trkpt>
      <trkpt lat="47.19832" lon="7.51572">
        <ele>427.6</ele>
        <time>2022-10-01T10:11:37Z</time>
      </trkpt>
      <trkpt lat="47.19825" lon="7.51589">
        <ele>427.7</ele>
        <time>2022-10-01T10:11:38Z</time>
      </trkpt>
      <trkpt lat="47.19862" lon="7.5158">
        <ele>428</ele>
        <time>2022-10-01T10:11:39Z</time>
      </trkpt>
      <trkpt lat="47.19862" lon="7.51585">
        <ele>428</ele>
        <time>2022-10-01T10:11:40Z</time>
      </trkpt>
      <trkpt lat="47.1986" lon="7.51595">
        <ele>428</ele>
        <time>2022-10-01T10:11:41Z</time>
      </trkpt>
      <trkpt lat="47.1986" lon="7.51604">
        <ele>428.1</ele>
        <time>2022-10-01T10:11:42Z</time>
      </trkpt>
      <trkpt lat="47.1986" lon="7.51613">
        <ele>428.1</ele>
        <time>2022-10-01T10:11:43Z</time>
      </trkpt>
      <trkpt lat="47.19861" lon="7.51623">
        <ele>428.1</ele>
        <time>2022-10-01T10:11:44Z</time>
      </trkpt>
      <trkpt lat="47.19862" lon="7.51632">
        <ele>428.1</ele>
        <time>2022-10-01T10:11:45Z</time>
      </trkpt>
      <trkpt lat="47.19862" lon="7.51642">
        <ele>428.1</ele>
        <time>2022-10-01T10:11:46Z</time>
      </trkpt>
      <trkpt lat="47.19863" lon="7.51651">
        <ele>428.1</ele>
        <time>2022-10-01T10:11:47Z</time>
      </trkpt>
      <trkpt lat="47.19863" lon="7.5166">
        <ele>428.1</ele>
        <time>2022-10-01T10:11:48Z</time>
      </trkpt>
      <trkpt lat="47.19864" lon="7.51669">
        <ele>428.1</ele>
        <time>2022-10-01T10:11:49Z</time>
      </trkpt>
      <trkpt lat="47.19865" lon="7.51678">
        <ele>428.1</ele>
        <time>2022-10-01T10:11:50Z</time>
      </trkpt>
      <trkpt lat="47.19865" lon="7.51686">
        <ele>428.1</ele>
        <time>2022-10-01T10:11:51Z</time>
      </trkpt>
      <trkpt lat="47.19866" lon="7.51696">
        <ele>428.1</ele>
        <time>2022-10-01T10:11:52Z</time>
      </trkpt>
      <trkpt lat="47.19866" lon="7.51705">
        <ele>428.1</ele>
        <time>2022-10-01T10:11:53Z</time>
      </trkpt>
      <trkpt lat="47.19867" lon="7.51714">
        <ele>428.1</ele>
        <time>2022-10-01T10:11:54Z</time>
      </trkpt>
      <trkpt lat="47.19867" lon="7.51723">
        <ele>428.1</ele>
        <time>2022-10-01T10:11:55Z</time>
      </trkpt>
      <trkpt lat="47.19868" lon="7.51733">
        <ele>428</ele>
        <time>2022-10-01T10:11:56Z</time>
      </trkpt>
      <trkpt lat="47.19869" lon="7.51742">
        <ele>428</ele>
        <time>2022-10-01T10:11:57Z</time>
      </trkpt>
      <trkpt lat="47.19869" lon="7.51751">
        <ele>428</ele>
        <time>2022-10-01T10:11:58Z</time>
      </trkpt>
      <trkpt lat="47.1987" lon="7.5176">
        <ele>428</ele>
        <time>2022-10-01T10:11:59Z</time>
      </trkpt>
      <trkpt lat="47.19871" lon="7.51769">
        <ele>427.9</ele>
        <time>2022-10-01T10:12:00Z</time>
      </trkpt>
      <trkpt lat="47.19871" lon="7.51778">
        <ele>427.9</ele>
        <time>2022-10-01T10:12:01Z</time>
      </trkpt>
      <trkpt lat="47.19872" lon="7.51786">
        <ele>427.9</ele>
        <time>2022-10-01T10:12:02Z</time>
      </trkpt>
      <trkpt lat="47.19871" lon="7.51794">
        <ele>427.8</ele>
        <time>2022-10-01T10:12:03Z</time>
      </trkpt>
      <trkpt lat="47.19872" lon="7.51802">
        <ele>427.8</ele>
        <time>2022-10-01T10:12:04Z</time>
      </trkpt>
      <trkpt lat="47.19873" lon="7.51809">
        <ele>427.7</ele>
        <time>2022-10-01T10:12:05Z</time>
      </trkpt>
      <trkpt lat="47.19874" lon="7.51818">
        <ele>427.7</ele>
        <time>2022-10-01T10:12:06Z</time>
      </trkpt>
      <trkpt lat="47.19874" lon="7.51828">
        <ele>427.6</ele>
        <time>2022-10-01T10:12:07Z</time>
      </trkpt>
      <trkpt lat="47.19875" lon="7.51836">
        <ele>427.6</ele>
        <time>2022-10-01T10:12:08Z</time>
      </trkpt>
      <trkpt lat="47.19876" lon="7.51845">
        <ele>427.6</ele>
        <time>2022-10-01T10:12:09Z</time>
      </trkpt>
      <trkpt lat="47.19877" lon="7.51854">
        <ele>427.6</ele>
        <time>2022-10-01T10:12:10Z</time>
      </trkpt>
      <trkpt lat="47.19877" lon="7.51863">
        <ele>427.6</ele>
        <time>2022-10-01T10:12:11Z</time>
      </trkpt>
      <trkpt lat="47.19879" lon="7.51872">
        <ele>427.6</ele>
        <time>2022-10-01T10:12:12Z</time>
      </trkpt>
      <trkpt lat="47.1988" lon="7.51881">
        <ele>427.6</ele>
        <time>2022-10-01T10:12:13Z</time>
      </trkpt>
      <trkpt lat="47.19881" lon="7.51891">
        <ele>427.6</ele>
        <time>2022-10-01T10:12:14Z</time>
      </trkpt>
      <trkpt lat="47.19881" lon="7.519">
        <ele>427.6</ele>
        <time>2022-10-01T10:12:15Z</time>
      </trkpt>
      <trkpt lat="47.19882" lon="7.51909">
        <ele>427.6</ele>
        <time>2022-10-01T10:12:16Z</time>
      </trkpt>
      <trkpt lat="47.19883" lon="7.51918">
        <ele>427.6</ele>
        <time>2022-10-01T10:12:17Z</time>
      </trkpt>
      <trkpt lat="47.19884" lon="7.51928">
        <ele>427.6</ele>
        <time>2022-10-01T10:12:18Z</time>
      </trkpt>
      <trkpt lat="47.19884" lon="7.51938">
        <ele>427.6</ele>
        <time>2022-10-01T10:12:19Z</time>
      </trkpt>
      <trkpt lat="47.19886" lon="7.51947">
        <ele>427.6</ele>
        <time>2022-10-01T10:12:20Z</time>
      </trkpt>
      <trkpt lat="47.19887" lon="7.51956">
        <ele>427.7</ele>
        <time>2022-10-01T10:12:21Z</time>
      </trkpt>
      <trkpt lat="47.19888" lon="7.51965">
        <ele>427.7</ele>
        <time>2022-10-01T10:12:22Z</time>
      </trkpt>
      <trkpt lat="47.19889" lon="7.51975">
        <ele>427.7</ele>
        <time>2022-10-01T10:12:23Z</time>
      </trkpt>
      <trkpt lat="47.1989" lon="7.51983">
        <ele>427.6</ele>
        <time>2022-10-01T10:12:24Z</time>
      </trkpt>
      <trkpt lat="47.19891" lon="7.51992">
        <ele>427.6</ele>
        <time>2022-10-01T10:12:25Z</time>
      </trkpt>
      <trkpt lat="47.19892" lon="7.52002">
        <ele>427.6</ele>
        <time>2022-10-01T10:12:26Z</time>
      </trkpt>
      <trkpt lat="47.19893" lon="7.52012">
        <ele>427.6</ele>
        <time>2022-10-01T10:12:27Z</time>
      </trkpt>
      <trkpt lat="47.19894" lon="7.52022">
        <ele>427.6</ele>
        <time>2022-10-01T10:12:28Z</time>
      </trkpt>
      <trkpt lat="47.19895" lon="7.52031">
        <ele>427.6</ele>
        <time>2022-10-01T10:12:29Z</time>
      </trkpt>
      <trkpt lat="47.19896" lon="7.52041">
        <ele>427.6</ele>
        <time>2022-10-01T10:12:30Z</time>
      </trkpt>
      <trkpt lat="47.19897" lon="7.5205">
        <ele>427.6</ele>
        <time>2022-10-01T10:12:31Z</time>
      </trkpt>
      <trkpt lat="47.19898" lon="7.5206">
        <ele>427.6</ele>
        <time>2022-10-01T10:12:32Z</time>
      </trkpt>
      <trkpt lat="47.19899" lon="7.5207">
        <ele>427.6</ele>
        <time>2022-10-01T10:12:33Z</time>
      </trkpt>
      <trkpt lat="47.199" lon="7.5208">
        <ele>427.6</ele>
        <time>2022-10-01T10:12:34Z</time>
      </trkpt>
      <trkpt lat="47.199" lon="7.5209">
        <ele>427.7</ele>
        <time>2022-10-01T10:12:35Z</time>
      </trkpt>
      <trkpt lat="47.19901" lon="7.521">
        <ele>427.7</ele>
        <time>2022-10-01T10:12:36Z</time>
      </trkpt>
      <trkpt lat="47.19902" lon="7.5211">
        <ele>427.8</ele>
        <time>2022-10-01T10:12:37Z</time>
      </trkpt>
      <trkpt lat="47.19903" lon="7.52119">
        <ele>427.9</ele>
        <time>2022-10-01T10:12:38Z</time>
      </trkpt>
      <trkpt lat="47.19904" lon="7.52129">
        <ele>427.9</ele>
        <time>2022-10-01T10:12:39Z</time>
      </trkpt>
      <trkpt lat="47.19905" lon="7.52139">
        <ele>428</ele>
        <time>2022-10-01T10:12:40Z</time>
      </trkpt>
      <trkpt lat="47.19906" lon="7.52149">
        <ele>428</ele>
        <time>2022-10-01T10:12:41Z</time>
      </trkpt>
      <trkpt lat="47.19907" lon="7.52158">
        <ele>428.1</ele>
        <time>2022-10-01T10:12:42Z</time>
      </trkpt>
      <trkpt lat="47.19908" lon="7.52168">
        <ele>428.1</ele>
        <time>2022-10-01T10:12:43Z</time>
      </trkpt>
      <trkpt lat="47.19909" lon="7.52177">
        <ele>428.1</ele>
        <time>2022-10-01T10:12:44Z</time>
      </trkpt>
      <trkpt lat="47.1991" lon="7.52187">
        <ele>428.1</ele>
        <time>2022-10-01T10:12:45Z</time>
      </trkpt>
      <trkpt lat="47.1991" lon="7.52196">
        <ele>428.1</ele>
        <time>2022-10-01T10:12:46Z</time>
      </trkpt>
      <trkpt lat="47.19911" lon="7.52206">
        <ele>428.1</ele>
        <time>2022-10-01T10:12:47Z</time>
      </trkpt>
      <trkpt lat="47.19912" lon="7.52216">
        <ele>428.1</ele>
        <time>2022-10-01T10:12:48Z</time>
      </trkpt>
      <trkpt lat="47.19913" lon="7.52225">
        <ele>428.1</ele>
        <time>2022-10-01T10:12:49Z</time>
      </trkpt>
      <trkpt lat="47.19914" lon="7.52235">
        <ele>428.1</ele>
        <time>2022-10-01T10:12:50Z</time>
      </trkpt>
      <trkpt lat="47.19915" lon="7.52244">
        <ele>428.1</ele>
        <time>2022-10-01T10:12:51Z</time>
      </trkpt>
      <trkpt lat="47.19916" lon="7.52253">
        <ele>428.1</ele>
        <time>2022-10-01T10:12:52Z</time>
      </trkpt>
      <trkpt lat="47.19916" lon="7.52262">
        <ele>428.1</ele>
        <time>2022-10-01T10:12:53Z</time>
      </trkpt>
      <trkpt lat="47.19917" lon="7.5227">
        <ele>428.1</ele>
        <time>2022-10-01T10:12:54Z</time>
      </trkpt>
      <trkpt lat="47.19918" lon="7.52279">
        <ele>428.2</ele>
        <time>2022-10-01T10:12:55Z</time>
      </trkpt>
      <trkpt lat="47.19919" lon="7.52287">
        <ele>428.2</ele>
        <time>2022-10-01T10:12:56Z</time>
      </trkpt>
      <trkpt lat="47.1992" lon="7.52296">
        <ele>428.3</ele>
        <time>2022-10-01T10:12:57Z</time>
      </trkpt>
      <trkpt lat="47.19921" lon="7.52305">
        <ele>428.3</ele>
        <time>2022-10-01T10:12:58Z</time>
      </trkpt>
      <trkpt lat="47.19922" lon="7.52313">
        <ele>428.3</ele>
        <time>2022-10-01T10:12:59Z</time>
      </trkpt>
      <trkpt lat="47.19922" lon="7.52321">
        <ele>428.4</ele>
        <time>2022-10-01T10:13:00Z</time>
      </trkpt>
      <trkpt lat="47.19923" lon="7.52329">
        <ele>428.4</ele>
        <time>2022-10-01T10:13:01Z</time>
      </trkpt>
      <trkpt lat="47.19924" lon="7.52337">
        <ele>428.4</ele>
        <time>2022-10-01T10:13:02Z</time>
      </trkpt>
      <trkpt lat="47.19925" lon="7.52345">
        <ele>428.5</ele>
        <time>2022-10-01T10:13:03Z</time>
      </trkpt>
      <trkpt lat="47.19926" lon="7.5235">
        <ele>428.5</ele>
        <time>2022-10-01T10:13:04Z</time>
      </trkpt>
      <trkpt lat="47.19927" lon="7.52358">
        <ele>428.5</ele>
        <time>2022-10-01T10:13:05Z</time>
      </trkpt>
      <trkpt lat="47.19927" lon="7.52363">
        <ele>428.5</ele>
        <time>2022-10-01T10:13:06Z</time>
      </trkpt>
      <trkpt lat="47.19928" lon="7.5237">
        <ele>428.5</ele>
        <time>2022-10-01T10:13:07Z</time>
      </trkpt>
      <trkpt lat="47.19929" lon="7.52378">
        <ele>428.6</ele>
        <time>2022-10-01T10:13:08Z</time>
      </trkpt>
      <trkpt lat="47.19931" lon="7.52385">
        <ele>428.6</ele>
        <time>2022-10-01T10:13:09Z</time>
      </trkpt>
      <trkpt lat="47.19932" lon="7.52392">
        <ele>428.6</ele>
        <time>2022-10-01T10:13:10Z</time>
      </trkpt>
      <trkpt lat="47.19933" lon="7.52399">
        <ele>428.6</ele>
        <time>2022-10-01T10:13:11Z</time>
      </trkpt>
      <trkpt lat="47.19934" lon="7.52406">
        <ele>428.6</ele>
        <time>2022-10-01T10:13:12Z</time>
      </trkpt>
      <trkpt lat="47.19936" lon="7.52413">
        <ele>428.7</ele>
        <time>2022-10-01T10:13:13Z</time>
      </trkpt>
      <trkpt lat="47.19937" lon="7.52419">
        <ele>428.7</ele>
        <time>2022-10-01T10:13:14Z</time>
      </trkpt>
      <trkpt lat="47.19939" lon="7.52424">
        <ele>428.7</ele>
        <time>2022-10-01T10:13:15Z</time>
      </trkpt>
      <trkpt lat="47.19941" lon="7.5243">
        <ele>428.7</ele>
        <time>2022-10-01T10:13:16Z</time>
      </trkpt>
      <trkpt lat="47.19944" lon="7.52436">
        <ele>428.7</ele>
        <time>2022-10-01T10:13:17Z</time>
      </trkpt>
      <trkpt lat="47.19946" lon="7.52441">
        <ele>428.7</ele>
        <time>2022-10-01T10:13:18Z</time>
      </trkpt>
      <trkpt lat="47.19948" lon="7.52447">
        <ele>428.7</ele>
        <time>2022-10-01T10:13:20Z</time>
      </trkpt>
      <trkpt lat="47.19951" lon="7.52453">
        <ele>428.7</ele>
        <time>2022-10-01T10:13:21Z</time>
      </trkpt>
      <trkpt lat="47.19953" lon="7.5246">
        <ele>428.7</ele>
        <time>2022-10-01T10:13:22Z</time>
      </trkpt>
      <trkpt lat="47.19955" lon="7.52466">
        <ele>428.7</ele>
        <time>2022-10-01T10:13:23Z</time>
      </trkpt>
      <trkpt lat="47.19957" lon="7.52473">
        <ele>428.7</ele>
        <time>2022-10-01T10:13:24Z</time>
      </trkpt>
      <trkpt lat="47.19959" lon="7.52479">
        <ele>428.7</ele>
        <time>2022-10-01T10:13:25Z</time>
      </trkpt>
      <trkpt lat="47.19962" lon="7.52485">
        <ele>428.7</ele>
        <time>2022-10-01T10:13:26Z</time>
      </trkpt>
      <trkpt lat="47.19964" lon="7.52492">
        <ele>428.7</ele>
        <time>2022-10-01T10:13:27Z</time>
      </trkpt>
      <trkpt lat="47.19966" lon="7.525">
        <ele>428.7</ele>
        <time>2022-10-01T10:13:28Z</time>
      </trkpt>
      <trkpt lat="47.19969" lon="7.52506">
        <ele>428.7</ele>
        <time>2022-10-01T10:13:29Z</time>
      </trkpt>
      <trkpt lat="47.19971" lon="7.52513">
        <ele>428.7</ele>
        <time>2022-10-01T10:13:30Z</time>
      </trkpt>
      <trkpt lat="47.19974" lon="7.5252">
        <ele>428.7</ele>
        <time>2022-10-01T10:13:31Z</time>
      </trkpt>
      <trkpt lat="47.19976" lon="7.52528">
        <ele>428.7</ele>
        <time>2022-10-01T10:13:32Z</time>
      </trkpt>
      <trkpt lat="47.19978" lon="7.52535">
        <ele>428.7</ele>
        <time>2022-10-01T10:13:33Z</time>
      </trkpt>
      <trkpt lat="47.19979" lon="7.52542">
        <ele>428.7</ele>
        <time>2022-10-01T10:13:34Z</time>
      </trkpt>
      <trkpt lat="47.1998" lon="7.52548">
        <ele>428.7</ele>
        <time>2022-10-01T10:13:35Z</time>
      </trkpt>
      <trkpt lat="47.19981" lon="7.52552">
        <ele>428.6</ele>
        <time>2022-10-01T10:13:36Z</time>
      </trkpt>
      <trkpt lat="47.19981" lon="7.52557">
        <ele>428.6</ele>
        <time>2022-10-01T10:13:37Z</time>
      </trkpt>
      <trkpt lat="47.19982" lon="7.5256">
        <ele>428.6</ele>
        <time>2022-10-01T10:13:38Z</time>
      </trkpt>
      <trkpt lat="47.19982" lon="7.52562">
        <ele>428.6</ele>
        <time>2022-10-01T10:13:39Z</time>
      </trkpt>
      <trkpt lat="47.19984" lon="7.52563">
        <ele>428.6</ele>
        <time>2022-10-01T10:13:40Z</time>
      </trkpt>
      <trkpt lat="47.19984" lon="7.52564">
        <ele>428.6</ele>
        <time>2022-10-01T10:13:41Z</time>
      </trkpt>
      <trkpt lat="47.19985" lon="7.52565">
        <ele>428.6</ele>
        <time>2022-10-01T10:13:42Z</time>
      </trkpt>
      <trkpt lat="47.19985" lon="7.52565">
        <ele>428.6</ele>
        <time>2022-10-01T10:13:43Z</time>
      </trkpt>
      <trkpt lat="47.19985" lon="7.52565">
        <ele>428.6</ele>
        <time>2022-10-01T10:13:44Z</time>
      </trkpt>
      <trkpt lat="47.19985" lon="7.52566">
        <ele>428.6</ele>
        <time>2022-10-01T10:13:45Z</time>
      </trkpt>
      <trkpt lat="47.19985" lon="7.52566">
        <ele>428.6</ele>
        <time>2022-10-01T10:13:46Z</time>
      </trkpt>
      <trkpt lat="47.19985" lon="7.52566">
        <ele>428.6</ele>
        <time>2022-10-01T10:13:47Z</time>
      </trkpt>
      <trkpt lat="47.19985" lon="7.52566">
        <ele>428.6</ele>
        <time>2022-10-01T10:13:48Z</time>
      </trkpt>
      <trkpt lat="47.19985" lon="7.52567">
        <ele>428.6</ele>
        <time>2022-10-01T10:13:49Z</time>
      </trkpt>
      <trkpt lat="47.19986" lon="7.52567">
        <ele>428.6</ele>
        <time>2022-10-01T10:13:50Z</time>
      </trkpt>
      <trkpt lat="47.19979" lon="7.52586">
        <ele>428.6</ele>
        <time>2022-10-01T10:14:48Z</time>
      </trkpt>
      <trkpt lat="47.19976" lon="7.52587">
        <ele>428.6</ele>
        <time>2022-10-01T10:14:49Z</time>
      </trkpt>
      <trkpt lat="47.19973" lon="7.52589">
        <ele>428.6</ele>
        <time>2022-10-01T10:14:50Z</time>
      </trkpt>
      <trkpt lat="47.19971" lon="7.52592">
        <ele>428.6</ele>
        <time>2022-10-01T10:14:51Z</time>
      </trkpt>
      <trkpt lat="47.19967" lon="7.52595">
        <ele>428.6</ele>
        <time>2022-10-01T10:14:52Z</time>
      </trkpt>
      <trkpt lat="47.19964" lon="7.52599">
        <ele>428.5</ele>
        <time>2022-10-01T10:14:53Z</time>
      </trkpt>
      <trkpt lat="47.19961" lon="7.52603">
        <ele>428.5</ele>
        <time>2022-10-01T10:14:54Z</time>
      </trkpt>
      <trkpt lat="47.19958" lon="7.52606">
        <ele>428.5</ele>
        <time>2022-10-01T10:14:55Z</time>
      </trkpt>
      <trkpt lat="47.19955" lon="7.52609">
        <ele>428.5</ele>
        <time>2022-10-01T10:14:56Z</time>
      </trkpt>
      <trkpt lat="47.19952" lon="7.52612">
        <ele>428.5</ele>
        <time>2022-10-01T10:14:57Z</time>
      </trkpt>
      <trkpt lat="47.19947" lon="7.52615">
        <ele>428.5</ele>
        <time>2022-10-01T10:14:58Z</time>
      </trkpt>
      <trkpt lat="47.19943" lon="7.52619">
        <ele>428.5</ele>
        <time>2022-10-01T10:14:59Z</time>
      </trkpt>
      <trkpt lat="47.1994" lon="7.52622">
        <ele>428.5</ele>
        <time>2022-10-01T10:15:00Z</time>
      </trkpt>
      <trkpt lat="47.19936" lon="7.52626">
        <ele>428.5</ele>
        <time>2022-10-01T10:15:01Z</time>
      </trkpt>
      <trkpt lat="47.19933" lon="7.5263">
        <ele>428.6</ele>
        <time>2022-10-01T10:15:02Z</time>
      </trkpt>
      <trkpt lat="47.1993" lon="7.52633">
        <ele>428.6</ele>
        <time>2022-10-01T10:15:03Z</time>
      </trkpt>
      <trkpt lat="47.19927" lon="7.52637">
        <ele>428.6</ele>
        <time>2022-10-01T10:15:04Z</time>
      </trkpt>
      <trkpt lat="47.19924" lon="7.52642">
        <ele>428.6</ele>
        <time>2022-10-01T10:15:05Z</time>
      </trkpt>
      <trkpt lat="47.19922" lon="7.52647">
        <ele>428.6</ele>
        <time>2022-10-01T10:15:06Z</time>
      </trkpt>
      <trkpt lat="47.19921" lon="7.52653">
        <ele>428.5</ele>
        <time>2022-10-01T10:15:07Z</time>
      </trkpt>
      <trkpt lat="47.19921" lon="7.52657">
        <ele>428.5</ele>
        <time>2022-10-01T10:15:08Z</time>
      </trkpt>
      <trkpt lat="47.19923" lon="7.52662">
        <ele>428.5</ele>
        <time>2022-10-01T10:15:09Z</time>
      </trkpt>
      <trkpt lat="47.19925" lon="7.52668">
        <ele>428.4</ele>
        <time>2022-10-01T10:15:10Z</time>
      </trkpt>
      <trkpt lat="47.19926" lon="7.52669">
        <ele>428.4</ele>
        <time>2022-10-01T10:15:11Z</time>
      </trkpt>
      <trkpt lat="47.19928" lon="7.52673">
        <ele>428.4</ele>
        <time>2022-10-01T10:15:12Z</time>
      </trkpt>
      <trkpt lat="47.1993" lon="7.52679">
        <ele>428.4</ele>
        <time>2022-10-01T10:15:13Z</time>
      </trkpt>
      <trkpt lat="47.19932" lon="7.52683">
        <ele>428.3</ele>
        <time>2022-10-01T10:15:14Z</time>
      </trkpt>
      <trkpt lat="47.19934" lon="7.52688">
        <ele>428.3</ele>
        <time>2022-10-01T10:15:15Z</time>
      </trkpt>
      <trkpt lat="47.19937" lon="7.52693">
        <ele>428.3</ele>
        <time>2022-10-01T10:15:16Z</time>
      </trkpt>
      <trkpt lat="47.19939" lon="7.52698">
        <ele>428.3</ele>
        <time>2022-10-01T10:15:17Z</time>
      </trkpt>
      <trkpt lat="47.19941" lon="7.52703">
        <ele>428.3</ele>
        <time>2022-10-01T10:15:18Z</time>
      </trkpt>
      <trkpt lat="47.19942" lon="7.52708">
        <ele>428.3</ele>
        <time>2022-10-01T10:15:19Z</time>
      </trkpt>
      <trkpt lat="47.19945" lon="7.52714">
        <ele>428.3</ele>
        <time>2022-10-01T10:15:20Z</time>
      </trkpt>
      <trkpt lat="47.19949" lon="7.52719">
        <ele>428.3</ele>
        <time>2022-10-01T10:15:21Z</time>
      </trkpt>
      <trkpt lat="47.19951" lon="7.52725">
        <ele>428.3</ele>
        <time>2022-10-01T10:15:22Z</time>
      </trkpt>
      <trkpt lat="47.19954" lon="7.52731">
        <ele>428.3</ele>
        <time>2022-10-01T10:15:23Z</time>
      </trkpt>
      <trkpt lat="47.19957" lon="7.52737">
        <ele>428.3</ele>
        <time>2022-10-01T10:15:24Z</time>
      </trkpt>
      <trkpt lat="47.1996" lon="7.52743">
        <ele>428.4</ele>
        <time>2022-10-01T10:15:26Z</time>
      </trkpt>
      <trkpt lat="47.19962" lon="7.52749">
        <ele>428.4</ele>
        <time>2022-10-01T10:15:27Z</time>
      </trkpt>
      <trkpt lat="47.19964" lon="7.52754">
        <ele>428.5</ele>
        <time>2022-10-01T10:15:28Z</time>
      </trkpt>
      <trkpt lat="47.19965" lon="7.52759">
        <ele>428.5</ele>
        <time>2022-10-01T10:15:29Z</time>
      </trkpt>
      <trkpt lat="47.19965" lon="7.52764">
        <ele>428.5</ele>
        <time>2022-10-01T10:15:30Z</time>
      </trkpt>
      <trkpt lat="47.19963" lon="7.52769">
        <ele>428.6</ele>
        <time>2022-10-01T10:15:31Z</time>
      </trkpt>
      <trkpt lat="47.19961" lon="7.52773">
        <ele>428.6</ele>
        <time>2022-10-01T10:15:32Z</time>
      </trkpt>
      <trkpt lat="47.19958" lon="7.52776">
        <ele>428.6</ele>
        <time>2022-10-01T10:15:33Z</time>
      </trkpt>
      <trkpt lat="47.19955" lon="7.52779">
        <ele>428.6</ele>
        <time>2022-10-01T10:15:34Z</time>
      </trkpt>
      <trkpt lat="47.19952" lon="7.52782">
        <ele>428.6</ele>
        <time>2022-10-01T10:15:35Z</time>
      </trkpt>
      <trkpt lat="47.19949" lon="7.52786">
        <ele>428.6</ele>
        <time>2022-10-01T10:15:36Z</time>
      </trkpt>
      <trkpt lat="47.19946" lon="7.52789">
        <ele>428.6</ele>
        <time>2022-10-01T10:15:37Z</time>
      </trkpt>
      <trkpt lat="47.19942" lon="7.52793">
        <ele>428.6</ele>
        <time>2022-10-01T10:15:38Z</time>
      </trkpt>
      <trkpt lat="47.19939" lon="7.52797">
        <ele>428.6</ele>
        <time>2022-10-01T10:15:39Z</time>
      </trkpt>
      <trkpt lat="47.19937" lon="7.52801">
        <ele>428.6</ele>
        <time>2022-10-01T10:15:40Z</time>
      </trkpt>
      <trkpt lat="47.19935" lon="7.52805">
        <ele>428.6</ele>
        <time>2022-10-01T10:15:41Z</time>
      </trkpt>
      <trkpt lat="47.19935" lon="7.5281">
        <ele>428.6</ele>
        <time>2022-10-01T10:15:42Z</time>
      </trkpt>
      <trkpt lat="47.19935" lon="7.52814">
        <ele>428.6</ele>
        <time>2022-10-01T10:15:43Z</time>
      </trkpt>
      <trkpt lat="47.19936" lon="7.52818">
        <ele>428.6</ele>
        <time>2022-10-01T10:15:44Z</time>
      </trkpt>
      <trkpt lat="47.19938" lon="7.52822">
        <ele>428.6</ele>
        <time>2022-10-01T10:15:45Z</time>
      </trkpt>
      <trkpt lat="47.19941" lon="7.52826">
        <ele>428.6</ele>
        <time>2022-10-01T10:15:46Z</time>
      </trkpt>
      <trkpt lat="47.19943" lon="7.52829">
        <ele>428.6</ele>
        <time>2022-10-01T10:15:47Z</time>
      </trkpt>
      <trkpt lat="47.19946" lon="7.52834">
        <ele>428.6</ele>
        <time>2022-10-01T10:15:48Z</time>
      </trkpt>
      <trkpt lat="47.19949" lon="7.52838">
        <ele>428.6</ele>
        <time>2022-10-01T10:15:49Z</time>
      </trkpt>
      <trkpt lat="47.19952" lon="7.52842">
        <ele>428.6</ele>
        <time>2022-10-01T10:15:50Z</time>
      </trkpt>
      <trkpt lat="47.19955" lon="7.52846">
        <ele>428.6</ele>
        <time>2022-10-01T10:15:51Z</time>
      </trkpt>
      <trkpt lat="47.19958" lon="7.52851">
        <ele>428.6</ele>
        <time>2022-10-01T10:15:52Z</time>
      </trkpt>
      <trkpt lat="47.19961" lon="7.52855">
        <ele>428.5</ele>
        <time>2022-10-01T10:15:53Z</time>
      </trkpt>
      <trkpt lat="47.19967" lon="7.52863">
        <ele>428.5</ele>
        <time>2022-10-01T10:15:54Z</time>
      </trkpt>
      <trkpt lat="47.19971" lon="7.52869">
        <ele>428.5</ele>
        <time>2022-10-01T10:15:55Z</time>
      </trkpt>
      <trkpt lat="47.19974" lon="7.52874">
        <ele>428.5</ele>
        <time>2022-10-01T10:15:56Z</time>
      </trkpt>
      <trkpt lat="47.19977" lon="7.5288">
        <ele>428.5</ele>
        <time>2022-10-01T10:15:57Z</time>
      </trkpt>
      <trkpt lat="47.19981" lon="7.52885">
        <ele>428.5</ele>
        <time>2022-10-01T10:15:58Z</time>
      </trkpt>
      <trkpt lat="47.19984" lon="7.5289">
        <ele>428.5</ele>
        <time>2022-10-01T10:15:59Z</time>
      </trkpt>
      <trkpt lat="47.19988" lon="7.52894">
        <ele>428.5</ele>
        <time>2022-10-01T10:16:00Z</time>
      </trkpt>
      <trkpt lat="47.19991" lon="7.52899">
        <ele>428.5</ele>
        <time>2022-10-01T10:16:01Z</time>
      </trkpt>
      <trkpt lat="47.19994" lon="7.52903">
        <ele>428.5</ele>
        <time>2022-10-01T10:16:02Z</time>
      </trkpt>
      <trkpt lat="47.19997" lon="7.52908">
        <ele>428.5</ele>
        <time>2022-10-01T10:16:03Z</time>
      </trkpt>
      <trkpt lat="47.2" lon="7.52913">
        <ele>428.6</ele>
        <time>2022-10-01T10:16:04Z</time>
      </trkpt>
      <trkpt lat="47.20003" lon="7.52917">
        <ele>428.6</ele>
        <time>2022-10-01T10:16:05Z</time>
      </trkpt>
      <trkpt lat="47.20005" lon="7.52922">
        <ele>428.6</ele>
        <time>2022-10-01T10:16:06Z</time>
      </trkpt>
      <trkpt lat="47.20006" lon="7.52923">
        <ele>428.6</ele>
        <time>2022-10-01T10:16:07Z</time>
      </trkpt>
      <trkpt lat="47.20008" lon="7.52927">
        <ele>428.6</ele>
        <time>2022-10-01T10:16:08Z</time>
      </trkpt>
      <trkpt lat="47.20009" lon="7.52931">
        <ele>428.6</ele>
        <time>2022-10-01T10:16:09Z</time>
      </trkpt>
      <trkpt lat="47.20009" lon="7.52932">
        <ele>428.6</ele>
        <time>2022-10-01T10:16:10Z</time>
      </trkpt>
      <trkpt lat="47.2001" lon="7.52933">
        <ele>428.6</ele>
        <time>2022-10-01T10:16:11Z</time>
      </trkpt>
      <trkpt lat="47.2001" lon="7.52933">
        <ele>428.6</ele>
        <time>2022-10-01T10:16:12Z</time>
      </trkpt>
      <trkpt lat="47.2001" lon="7.52934">
        <ele>428.7</ele>
        <time>2022-10-01T10:16:13Z</time>
      </trkpt>
      <trkpt lat="47.20011" lon="7.52934">
        <ele>428.7</ele>
        <time>2022-10-01T10:16:14Z</time>
      </trkpt>
      <trkpt lat="47.20011" lon="7.52934">
        <ele>428.7</ele>
        <time>2022-10-01T10:16:15Z</time>
      </trkpt>
      <trkpt lat="47.20012" lon="7.52934">
        <ele>428.7</ele>
        <time>2022-10-01T10:16:16Z</time>
      </trkpt>
      <trkpt lat="47.20013" lon="7.52935">
        <ele>428.7</ele>
        <time>2022-10-01T10:16:17Z</time>
      </trkpt>
      <trkpt lat="47.20013" lon="7.52935">
        <ele>428.7</ele>
        <time>2022-10-01T10:16:18Z</time>
      </trkpt>
      <trkpt lat="47.20013" lon="7.52935">
        <ele>428.7</ele>
        <time>2022-10-01T10:16:19Z</time>
      </trkpt>
      <trkpt lat="47.20013" lon="7.52936">
        <ele>428.7</ele>
        <time>2022-10-01T10:17:53Z</time>
      </trkpt>
      <trkpt lat="47.20013" lon="7.52936">
        <ele>428.7</ele>
        <time>2022-10-01T10:17:54Z</time>
      </trkpt>
      <trkpt lat="47.20014" lon="7.52936">
        <ele>428.7</ele>
        <time>2022-10-01T10:17:55Z</time>
      </trkpt>
      <trkpt lat="47.20014" lon="7.52936">
        <ele>428.7</ele>
        <time>2022-10-01T10:17:56Z</time>
      </trkpt>
      <trkpt lat="47.20014" lon="7.52937">
        <ele>428.7</ele>
        <time>2022-10-01T10:17:57Z</time>
      </trkpt>
      <trkpt lat="47.20014" lon="7.52937">
        <ele>428.7</ele>
        <time>2022-10-01T10:17:58Z</time>
      </trkpt>
      <trkpt lat="47.20015" lon="7.52937">
        <ele>428.7</ele>
        <time>2022-10-01T10:17:59Z</time>
      </trkpt>
      <trkpt lat="47.20015" lon="7.52938">
        <ele>428.7</ele>
        <time>2022-10-01T10:18:00Z</time>
      </trkpt>
      <trkpt lat="47.20015" lon="7.52938">
        <ele>428.7</ele>
        <time>2022-10-01T10:18:01Z</time>
      </trkpt>
      <trkpt lat="47.20015" lon="7.52938">
        <ele>428.7</ele>
        <time>2022-10-01T10:18:02Z</time>
      </trkpt>
      <trkpt lat="47.20015" lon="7.52938">
        <ele>428.7</ele>
        <time>2022-10-01T10:35:08Z</time>
      </trkpt>
      <trkpt lat="47.20016" lon="7.52939">
        <ele>428.7</ele>
        <time>2022-10-01T10:35:09Z</time>
      </trkpt>
      <trkpt lat="47.20016" lon="7.52939">
        <ele>428.7</ele>
        <time>2022-10-01T10:35:10Z</time>
      </trkpt>
      <trkpt lat="47.20016" lon="7.52939">
        <ele>428.7</ele>
        <time>2022-10-01T10:35:11Z</time>
      </trkpt>
      <trkpt lat="47.20016" lon="7.5294">
        <ele>428.7</ele>
        <time>2022-10-01T10:35:12Z</time>
      </trkpt>
      <trkpt lat="47.20016" lon="7.5294">
        <ele>428.7</ele>
        <time>2022-10-01T10:35:13Z</time>
      </trkpt>
      <trkpt lat="47.20017" lon="7.5294">
        <ele>428.7</ele>
        <time>2022-10-01T10:35:14Z</time>
      </trkpt>
      <trkpt lat="47.20017" lon="7.5294">
        <ele>428.7</ele>
        <time>2022-10-01T10:35:15Z</time>
      </trkpt>
      <trkpt lat="47.20017" lon="7.52941">
        <ele>428.7</ele>
        <time>2022-10-01T10:35:16Z</time>
      </trkpt>
      <trkpt lat="47.20017" lon="7.52941">
        <ele>428.7</ele>
        <time>2022-10-01T10:35:17Z</time>
      </trkpt>
      <trkpt lat="47.20018" lon="7.52941">
        <ele>428.7</ele>
        <time>2022-10-01T10:35:18Z</time>
      </trkpt>
      <trkpt lat="47.20018" lon="7.52942">
        <ele>428.7</ele>
        <time>2022-10-01T10:35:19Z</time>
      </trkpt>
      <trkpt lat="47.20018" lon="7.52942">
        <ele>428.7</ele>
        <time>2022-10-01T10:36:38Z</time>
      </trkpt>
      <trkpt lat="47.20018" lon="7.52942">
        <ele>428.7</ele>
        <time>2022-10-01T10:36:40Z</time>
      </trkpt>
      <trkpt lat="47.20018" lon="7.52943">
        <ele>428.7</ele>
        <time>2022-10-01T10:36:41Z</time>
      </trkpt>
      <trkpt lat="47.20019" lon="7.52943">
        <ele>428.7</ele>
        <time>2022-10-01T10:36:42Z</time>
      </trkpt>
      <trkpt lat="47.20019" lon="7.52943">
        <ele>428.7</ele>
        <time>2022-10-01T10:36:44Z</time>
      </trkpt>
      <trkpt lat="47.20019" lon="7.52943">
        <ele>428.7</ele>
        <time>2022-10-01T10:36:45Z</time>
      </trkpt>
      <trkpt lat="47.20019" lon="7.52944">
        <ele>428.7</ele>
        <time>2022-10-01T10:36:46Z</time>
      </trkpt>
      <trkpt lat="47.2002" lon="7.52944">
        <ele>428.7</ele>
        <time>2022-10-01T10:36:47Z</time>
      </trkpt>
      <trkpt lat="47.2002" lon="7.52944">
        <ele>428.7</ele>
        <time>2022-10-01T10:36:48Z</time>
      </trkpt>
      <trkpt lat="47.2002" lon="7.52945">
        <ele>428.7</ele>
        <time>2022-10-01T10:36:49Z</time>
      </trkpt>
      <trkpt lat="47.2002" lon="7.52945">
        <ele>428.7</ele>
        <time>2022-10-01T10:36:50Z</time>
      </trkpt>
      <trkpt lat="47.2002" lon="7.52945">
        <ele>428.7</ele>
        <time>2022-10-01T10:36:52Z</time>
      </trkpt>
      <trkpt lat="47.20021" lon="7.52945">
        <ele>428.7</ele>
        <time>2022-10-01T10:36:53Z</time>
      </trkpt>
      <trkpt lat="47.20021" lon="7.52946">
        <ele>428.7</ele>
        <time>2022-10-01T10:36:54Z</time>
      </trkpt>
      <trkpt lat="47.20021" lon="7.52946">
        <ele>428.7</ele>
        <time>2022-10-01T10:36:55Z</time>
      </trkpt>
      <trkpt lat="47.20021" lon="7.52946">
        <ele>428.7</ele>
        <time>2022-10-01T10:36:56Z</time>
      </trkpt>
      <trkpt lat="47.20023" lon="7.52948">
        <ele>428.8</ele>
        <time>2022-10-01T10:36:57Z</time>
      </trkpt>
      <trkpt lat="47.20024" lon="7.52949">
        <ele>428.8</ele>
        <time>2022-10-01T10:36:58Z</time>
      </trkpt>
      <trkpt lat="47.20025" lon="7.5295">
        <ele>428.8</ele>
        <time>2022-10-01T10:36:59Z</time>
      </trkpt>
      <trkpt lat="47.20026" lon="7.52953">
        <ele>428.8</ele>
        <time>2022-10-01T10:37:00Z</time>
      </trkpt>
      <trkpt lat="47.20027" lon="7.52955">
        <ele>428.8</ele>
        <time>2022-10-01T10:37:01Z</time>
      </trkpt>
      <trkpt lat="47.20029" lon="7.52959">
        <ele>428.8</ele>
        <time>2022-10-01T10:37:02Z</time>
      </trkpt>
      <trkpt lat="47.2003" lon="7.52961">
        <ele>428.9</ele>
        <time>2022-10-01T10:37:03Z</time>
      </trkpt>
      <trkpt lat="47.20032" lon="7.52964">
        <ele>428.9</ele>
        <time>2022-10-01T10:37:04Z</time>
      </trkpt>
      <trkpt lat="47.20034" lon="7.52967">
        <ele>428.9</ele>
        <time>2022-10-01T10:37:05Z</time>
      </trkpt>
      <trkpt lat="47.20036" lon="7.52971">
        <ele>428.9</ele>
        <time>2022-10-01T10:37:06Z</time>
      </trkpt>
      <trkpt lat="47.20039" lon="7.52974">
        <ele>429</ele>
        <time>2022-10-01T10:37:07Z</time>
      </trkpt>
      <trkpt lat="47.2004" lon="7.52976">
        <ele>429</ele>
        <time>2022-10-01T10:37:08Z</time>
      </trkpt>
      <trkpt lat="47.20042" lon="7.5298">
        <ele>429</ele>
        <time>2022-10-01T10:37:09Z</time>
      </trkpt>
      <trkpt lat="47.20044" lon="7.52984">
        <ele>429</ele>
        <time>2022-10-01T10:37:10Z</time>
      </trkpt>
      <trkpt lat="47.20046" lon="7.52988">
        <ele>429.1</ele>
        <time>2022-10-01T10:37:11Z</time>
      </trkpt>
      <trkpt lat="47.20049" lon="7.52992">
        <ele>429.1</ele>
        <time>2022-10-01T10:37:12Z</time>
      </trkpt>
      <trkpt lat="47.20052" lon="7.52994">
        <ele>429.2</ele>
        <time>2022-10-01T10:37:13Z</time>
      </trkpt>
      <trkpt lat="47.20055" lon="7.52997">
        <ele>429.2</ele>
        <time>2022-10-01T10:37:14Z</time>
      </trkpt>
      <trkpt lat="47.20057" lon="7.53004">
        <ele>429.3</ele>
        <time>2022-10-01T10:37:15Z</time>
      </trkpt>
      <trkpt lat="47.2006" lon="7.53009">
        <ele>429.4</ele>
        <time>2022-10-01T10:37:16Z</time>
      </trkpt>
      <trkpt lat="47.20062" lon="7.53014">
        <ele>429.6</ele>
        <time>2022-10-01T10:37:17Z</time>
      </trkpt>
      <trkpt lat="47.20064" lon="7.53019">
        <ele>429.7</ele>
        <time>2022-10-01T10:37:18Z</time>
      </trkpt>
      <trkpt lat="47.20068" lon="7.53023">
        <ele>429.9</ele>
        <time>2022-10-01T10:37:19Z</time>
      </trkpt>
      <trkpt lat="47.2007" lon="7.53028">
        <ele>430</ele>
        <time>2022-10-01T10:37:20Z</time>
      </trkpt>
      <trkpt lat="47.20072" lon="7.53032">
        <ele>430.2</ele>
        <time>2022-10-01T10:37:21Z</time>
      </trkpt>
      <trkpt lat="47.20073" lon="7.53033">
        <ele>430.3</ele>
        <time>2022-10-01T10:37:22Z</time>
      </trkpt>
      <trkpt lat="47.20075" lon="7.53036">
        <ele>430.4</ele>
        <time>2022-10-01T10:37:23Z</time>
      </trkpt>
      <trkpt lat="47.20079" lon="7.5304">
        <ele>430.3</ele>
        <time>2022-10-01T10:37:24Z</time>
      </trkpt>
      <trkpt lat="47.2008" lon="7.53041">
        <ele>430.3</ele>
        <time>2022-10-01T10:37:25Z</time>
      </trkpt>
      <trkpt lat="47.20083" lon="7.53043">
        <ele>430.2</ele>
        <time>2022-10-01T10:37:26Z</time>
      </trkpt>
      <trkpt lat="47.20086" lon="7.53048">
        <ele>430</ele>
        <time>2022-10-01T10:37:27Z</time>
      </trkpt>
      <trkpt lat="47.20095" lon="7.53055">
        <ele>429.7</ele>
        <time>2022-10-01T10:37:28Z</time>
      </trkpt>
      <trkpt lat="47.201" lon="7.53058">
        <ele>429.6</ele>
        <time>2022-10-01T10:37:29Z</time>
      </trkpt>
      <trkpt lat="47.20104" lon="7.53061">
        <ele>429.5</ele>
        <time>2022-10-01T10:37:30Z</time>
      </trkpt>
      <trkpt lat="47.20109" lon="7.53064">
        <ele>429.5</ele>
        <time>2022-10-01T10:37:31Z</time>
      </trkpt>
      <trkpt lat="47.20114" lon="7.53067">
        <ele>429.5</ele>
        <time>2022-10-01T10:37:32Z</time>
      </trkpt>
      <trkpt lat="47.20118" lon="7.53073">
        <ele>429.5</ele>
        <time>2022-10-01T10:37:33Z</time>
      </trkpt>
      <trkpt lat="47.20121" lon="7.53077">
        <ele>429.5</ele>
        <time>2022-10-01T10:37:34Z</time>
      </trkpt>
      <trkpt lat="47.20125" lon="7.5308">
        <ele>429.5</ele>
        <time>2022-10-01T10:37:35Z</time>
      </trkpt>
      <trkpt lat="47.20128" lon="7.53085">
        <ele>429.5</ele>
        <time>2022-10-01T10:37:36Z</time>
      </trkpt>
      <trkpt lat="47.20132" lon="7.53088">
        <ele>429.5</ele>
        <time>2022-10-01T10:37:37Z</time>
      </trkpt>
      <trkpt lat="47.20138" lon="7.53092">
        <ele>429.5</ele>
        <time>2022-10-01T10:37:38Z</time>
      </trkpt>
      <trkpt lat="47.20143" lon="7.53094">
        <ele>429.5</ele>
        <time>2022-10-01T10:37:39Z</time>
      </trkpt>
      <trkpt lat="47.20147" lon="7.53097">
        <ele>429.5</ele>
        <time>2022-10-01T10:37:40Z</time>
      </trkpt>
      <trkpt lat="47.20151" lon="7.53102">
        <ele>429.5</ele>
        <time>2022-10-01T10:37:41Z</time>
      </trkpt>
      <trkpt lat="47.20156" lon="7.53106">
        <ele>429.5</ele>
        <time>2022-10-01T10:37:42Z</time>
      </trkpt>
      <trkpt lat="47.20161" lon="7.53111">
        <ele>429.5</ele>
        <time>2022-10-01T10:37:43Z</time>
      </trkpt>
      <trkpt lat="47.20166" lon="7.53115">
        <ele>429.5</ele>
        <time>2022-10-01T10:37:44Z</time>
      </trkpt>
      <trkpt lat="47.2017" lon="7.53119">
        <ele>429.5</ele>
        <time>2022-10-01T10:37:45Z</time>
      </trkpt>
      <trkpt lat="47.20174" lon="7.53124">
        <ele>429.5</ele>
        <time>2022-10-01T10:37:46Z</time>
      </trkpt>
      <trkpt lat="47.20178" lon="7.53127">
        <ele>429.4</ele>
        <time>2022-10-01T10:37:47Z</time>
      </trkpt>
      <trkpt lat="47.20182" lon="7.53131">
        <ele>429.4</ele>
        <time>2022-10-01T10:37:48Z</time>
      </trkpt>
      <trkpt lat="47.20188" lon="7.53135">
        <ele>429.4</ele>
        <time>2022-10-01T10:37:49Z</time>
      </trkpt>
      <trkpt lat="47.20192" lon="7.53138">
        <ele>429.4</ele>
        <time>2022-10-01T10:37:50Z</time>
      </trkpt>
      <trkpt lat="47.20197" lon="7.53142">
        <ele>429.4</ele>
        <time>2022-10-01T10:37:51Z</time>
      </trkpt>
      <trkpt lat="47.20202" lon="7.53146">
        <ele>429.4</ele>
        <time>2022-10-01T10:37:52Z</time>
      </trkpt>
      <trkpt lat="47.20207" lon="7.5315">
        <ele>429.3</ele>
        <time>2022-10-01T10:37:53Z</time>
      </trkpt>
      <trkpt lat="47.20213" lon="7.53155">
        <ele>429.3</ele>
        <time>2022-10-01T10:37:54Z</time>
      </trkpt>
      <trkpt lat="47.20217" lon="7.53157">
        <ele>429.3</ele>
        <time>2022-10-01T10:37:55Z</time>
      </trkpt>
      <trkpt lat="47.20221" lon="7.53161">
        <ele>429.3</ele>
        <time>2022-10-01T10:37:56Z</time>
      </trkpt>
      <trkpt lat="47.20227" lon="7.53165">
        <ele>429.3</ele>
        <time>2022-10-01T10:37:57Z</time>
      </trkpt>
      <trkpt lat="47.20231" lon="7.53166">
        <ele>429.3</ele>
        <time>2022-10-01T10:37:58Z</time>
      </trkpt>
      <trkpt lat="47.20236" lon="7.53167">
        <ele>429.3</ele>
        <time>2022-10-01T10:37:59Z</time>
      </trkpt>
      <trkpt lat="47.20239" lon="7.5317">
        <ele>429.3</ele>
        <time>2022-10-01T10:38:00Z</time>
      </trkpt>
      <trkpt lat="47.20245" lon="7.53173">
        <ele>429.4</ele>
        <time>2022-10-01T10:38:01Z</time>
      </trkpt>
      <trkpt lat="47.20251" lon="7.53174">
        <ele>429.4</ele>
        <time>2022-10-01T10:38:02Z</time>
      </trkpt>
      <trkpt lat="47.20255" lon="7.53176">
        <ele>429.4</ele>
        <time>2022-10-01T10:38:03Z</time>
      </trkpt>
      <trkpt lat="47.2026" lon="7.53178">
        <ele>429.4</ele>
        <time>2022-10-01T10:38:04Z</time>
      </trkpt>
      <trkpt lat="47.20265" lon="7.53183">
        <ele>429.4</ele>
        <time>2022-10-01T10:38:05Z</time>
      </trkpt>
      <trkpt lat="47.20269" lon="7.53187">
        <ele>429.4</ele>
        <time>2022-10-01T10:38:06Z</time>
      </trkpt>
      <trkpt lat="47.20274" lon="7.53189">
        <ele>429.4</ele>
        <time>2022-10-01T10:38:07Z</time>
      </trkpt>
      <trkpt lat="47.20278" lon="7.53193">
        <ele>429.4</ele>
        <time>2022-10-01T10:38:08Z</time>
      </trkpt>
      <trkpt lat="47.20283" lon="7.53194">
        <ele>429.4</ele>
        <time>2022-10-01T10:38:09Z</time>
      </trkpt>
      <trkpt lat="47.20287" lon="7.53197">
        <ele>429.3</ele>
        <time>2022-10-01T10:38:10Z</time>
      </trkpt>
      <trkpt lat="47.20292" lon="7.53201">
        <ele>429.3</ele>
        <time>2022-10-01T10:38:11Z</time>
      </trkpt>
      <trkpt lat="47.20296" lon="7.532">
        <ele>429.4</ele>
        <time>2022-10-01T10:38:12Z</time>
      </trkpt>
      <trkpt lat="47.20303" lon="7.53203">
        <ele>429.4</ele>
        <time>2022-10-01T10:38:13Z</time>
      </trkpt>
      <trkpt lat="47.20308" lon="7.53206">
        <ele>429.4</ele>
        <time>2022-10-01T10:38:14Z</time>
      </trkpt>
      <trkpt lat="47.20315" lon="7.53213">
        <ele>429.4</ele>
        <time>2022-10-01T10:38:15Z</time>
      </trkpt>
      <trkpt lat="47.2032" lon="7.53215">
        <ele>429.4</ele>
        <time>2022-10-01T10:38:16Z</time>
      </trkpt>
      <trkpt lat="47.20326" lon="7.53219">
        <ele>429.4</ele>
        <time>2022-10-01T10:38:17Z</time>
      </trkpt>
      <trkpt lat="47.20331" lon="7.53223">
        <ele>429.5</ele>
        <time>2022-10-01T10:38:18Z</time>
      </trkpt>
      <trkpt lat="47.20337" lon="7.53227">
        <ele>429.5</ele>
        <time>2022-10-01T10:38:19Z</time>
      </trkpt>
      <trkpt lat="47.20342" lon="7.53231">
        <ele>429.5</ele>
        <time>2022-10-01T10:38:20Z</time>
      </trkpt>
      <trkpt lat="47.20347" lon="7.53236">
        <ele>429.5</ele>
        <time>2022-10-01T10:38:21Z</time>
      </trkpt>
      <trkpt lat="47.2035" lon="7.53239">
        <ele>429.5</ele>
        <time>2022-10-01T10:38:22Z</time>
      </trkpt>
      <trkpt lat="47.20354" lon="7.53241">
        <ele>429.5</ele>
        <time>2022-10-01T10:38:23Z</time>
      </trkpt>
      <trkpt lat="47.20357" lon="7.5324">
        <ele>429.5</ele>
        <time>2022-10-01T10:38:24Z</time>
      </trkpt>
      <trkpt lat="47.20361" lon="7.53243">
        <ele>429.5</ele>
        <time>2022-10-01T10:38:25Z</time>
      </trkpt>
      <trkpt lat="47.20365" lon="7.53246">
        <ele>429.5</ele>
        <time>2022-10-01T10:38:26Z</time>
      </trkpt>
      <trkpt lat="47.20371" lon="7.53249">
        <ele>429.5</ele>
        <time>2022-10-01T10:38:27Z</time>
      </trkpt>
      <trkpt lat="47.20377" lon="7.53252">
        <ele>429.4</ele>
        <time>2022-10-01T10:38:28Z</time>
      </trkpt>
      <trkpt lat="47.20382" lon="7.53254">
        <ele>429.4</ele>
        <time>2022-10-01T10:38:29Z</time>
      </trkpt>
      <trkpt lat="47.20386" lon="7.53257">
        <ele>429.4</ele>
        <time>2022-10-01T10:38:30Z</time>
      </trkpt>
      <trkpt lat="47.20393" lon="7.53258">
        <ele>429.4</ele>
        <time>2022-10-01T10:38:31Z</time>
      </trkpt>
      <trkpt lat="47.20398" lon="7.53258">
        <ele>429.4</ele>
        <time>2022-10-01T10:38:32Z</time>
      </trkpt>
      <trkpt lat="47.20405" lon="7.53258">
        <ele>429.3</ele>
        <time>2022-10-01T10:38:33Z</time>
      </trkpt>
      <trkpt lat="47.2041" lon="7.53259">
        <ele>429.3</ele>
        <time>2022-10-01T10:38:34Z</time>
      </trkpt>
      <trkpt lat="47.20417" lon="7.53262">
        <ele>429.3</ele>
        <time>2022-10-01T10:38:35Z</time>
      </trkpt>
      <trkpt lat="47.20423" lon="7.53262">
        <ele>429.4</ele>
        <time>2022-10-01T10:38:36Z</time>
      </trkpt>
      <trkpt lat="47.20428" lon="7.53263">
        <ele>429.4</ele>
        <time>2022-10-01T10:38:37Z</time>
      </trkpt>
      <trkpt lat="47.20432" lon="7.53263">
        <ele>429.4</ele>
        <time>2022-10-01T10:38:38Z</time>
      </trkpt>
      <trkpt lat="47.20435" lon="7.53262">
        <ele>429.4</ele>
        <time>2022-10-01T10:38:39Z</time>
      </trkpt>
      <trkpt lat="47.20439" lon="7.53263">
        <ele>429.4</ele>
        <time>2022-10-01T10:38:40Z</time>
      </trkpt>
      <trkpt lat="47.20442" lon="7.53265">
        <ele>429.4</ele>
        <time>2022-10-01T10:38:41Z</time>
      </trkpt>
      <trkpt lat="47.20444" lon="7.53269">
        <ele>429.4</ele>
        <time>2022-10-01T10:38:42Z</time>
      </trkpt>
      <trkpt lat="47.20449" lon="7.53272">
        <ele>429.4</ele>
        <time>2022-10-01T10:38:43Z</time>
      </trkpt>
      <trkpt lat="47.20453" lon="7.53276">
        <ele>429.4</ele>
        <time>2022-10-01T10:38:44Z</time>
      </trkpt>
      <trkpt lat="47.20457" lon="7.53279">
        <ele>429.4</ele>
        <time>2022-10-01T10:38:45Z</time>
      </trkpt>
      <trkpt lat="47.20461" lon="7.53283">
        <ele>429.4</ele>
        <time>2022-10-01T10:38:46Z</time>
      </trkpt>
      <trkpt lat="47.20465" lon="7.53287">
        <ele>429.4</ele>
        <time>2022-10-01T10:38:47Z</time>
      </trkpt>
      <trkpt lat="47.20468" lon="7.53291">
        <ele>429.4</ele>
        <time>2022-10-01T10:38:48Z</time>
      </trkpt>
      <trkpt lat="47.20472" lon="7.53294">
        <ele>429.4</ele>
        <time>2022-10-01T10:38:49Z</time>
      </trkpt>
      <trkpt lat="47.20477" lon="7.53298">
        <ele>429.4</ele>
        <time>2022-10-01T10:38:50Z</time>
      </trkpt>
      <trkpt lat="47.20481" lon="7.53303">
        <ele>429.4</ele>
        <time>2022-10-01T10:38:51Z</time>
      </trkpt>
      <trkpt lat="47.20484" lon="7.53308">
        <ele>429.4</ele>
        <time>2022-10-01T10:38:52Z</time>
      </trkpt>
      <trkpt lat="47.20487" lon="7.53313">
        <ele>429.4</ele>
        <time>2022-10-01T10:38:53Z</time>
      </trkpt>
      <trkpt lat="47.20491" lon="7.53319">
        <ele>429.4</ele>
        <time>2022-10-01T10:38:54Z</time>
      </trkpt>
      <trkpt lat="47.20494" lon="7.53324">
        <ele>429.4</ele>
        <time>2022-10-01T10:38:55Z</time>
      </trkpt>
      <trkpt lat="47.20499" lon="7.53329">
        <ele>429.4</ele>
        <time>2022-10-01T10:38:56Z</time>
      </trkpt>
      <trkpt lat="47.20503" lon="7.53334">
        <ele>429.3</ele>
        <time>2022-10-01T10:38:57Z</time>
      </trkpt>
      <trkpt lat="47.20503" lon="7.53341">
        <ele>429.3</ele>
        <time>2022-10-01T10:38:58Z</time>
      </trkpt>
      <trkpt lat="47.20506" lon="7.53347">
        <ele>429.3</ele>
        <time>2022-10-01T10:38:59Z</time>
      </trkpt>
      <trkpt lat="47.2051" lon="7.53352">
        <ele>429.3</ele>
        <time>2022-10-01T10:39:00Z</time>
      </trkpt>
      <trkpt lat="47.20513" lon="7.53356">
        <ele>429.3</ele>
        <time>2022-10-01T10:39:01Z</time>
      </trkpt>
      <trkpt lat="47.20516" lon="7.53361">
        <ele>429.3</ele>
        <time>2022-10-01T10:39:02Z</time>
      </trkpt>
      <trkpt lat="47.20519" lon="7.53365">
        <ele>429.3</ele>
        <time>2022-10-01T10:39:03Z</time>
      </trkpt>
      <trkpt lat="47.20522" lon="7.53368">
        <ele>429.3</ele>
        <time>2022-10-01T10:39:04Z</time>
      </trkpt>
      <trkpt lat="47.20525" lon="7.53374">
        <ele>429.3</ele>
        <time>2022-10-01T10:39:05Z</time>
      </trkpt>
      <trkpt lat="47.20528" lon="7.53378">
        <ele>429.4</ele>
        <time>2022-10-01T10:39:06Z</time>
      </trkpt>
      <trkpt lat="47.20528" lon="7.53383">
        <ele>429.4</ele>
        <time>2022-10-01T10:39:07Z</time>
      </trkpt>
      <trkpt lat="47.20531" lon="7.53387">
        <ele>429.4</ele>
        <time>2022-10-01T10:39:08Z</time>
      </trkpt>
      <trkpt lat="47.20534" lon="7.53393">
        <ele>429.4</ele>
        <time>2022-10-01T10:39:09Z</time>
      </trkpt>
      <trkpt lat="47.20537" lon="7.53398">
        <ele>429.4</ele>
        <time>2022-10-01T10:39:10Z</time>
      </trkpt>
      <trkpt lat="47.20541" lon="7.53402">
        <ele>429.5</ele>
        <time>2022-10-01T10:39:11Z</time>
      </trkpt>
      <trkpt lat="47.20544" lon="7.53405">
        <ele>429.5</ele>
        <time>2022-10-01T10:39:12Z</time>
      </trkpt>
      <trkpt lat="47.20548" lon="7.53411">
        <ele>429.6</ele>
        <time>2022-10-01T10:39:13Z</time>
      </trkpt>
      <trkpt lat="47.20552" lon="7.53417">
        <ele>429.7</ele>
        <time>2022-10-01T10:39:14Z</time>
      </trkpt>
      <trkpt lat="47.20555" lon="7.53422">
        <ele>429.8</ele>
        <time>2022-10-01T10:39:15Z</time>
      </trkpt>
      <trkpt lat="47.20558" lon="7.53427">
        <ele>429.8</ele>
        <time>2022-10-01T10:39:16Z</time>
      </trkpt>
      <trkpt lat="47.20561" lon="7.53432">
        <ele>429.8</ele>
        <time>2022-10-01T10:39:17Z</time>
      </trkpt>
      <trkpt lat="47.20563" lon="7.53438">
        <ele>430</ele>
        <time>2022-10-01T10:39:18Z</time>
      </trkpt>
      <trkpt lat="47.20566" lon="7.53443">
        <ele>430.1</ele>
        <time>2022-10-01T10:39:19Z</time>
      </trkpt>
      <trkpt lat="47.20568" lon="7.53448">
        <ele>430.2</ele>
        <time>2022-10-01T10:39:20Z</time>
      </trkpt>
      <trkpt lat="47.2057" lon="7.53451">
        <ele>430.3</ele>
        <time>2022-10-01T10:39:21Z</time>
      </trkpt>
      <trkpt lat="47.20572" lon="7.53458">
        <ele>430.4</ele>
        <time>2022-10-01T10:39:22Z</time>
      </trkpt>
      <trkpt lat="47.20574" lon="7.53462">
        <ele>430.5</ele>
        <time>2022-10-01T10:39:23Z</time>
      </trkpt>
      <trkpt lat="47.20576" lon="7.53467">
        <ele>430.6</ele>
        <time>2022-10-01T10:39:24Z</time>
      </trkpt>
      <trkpt lat="47.20577" lon="7.53471">
        <ele>430.7</ele>
        <time>2022-10-01T10:39:25Z</time>
      </trkpt>
      <trkpt lat="47.2058" lon="7.53476">
        <ele>430.9</ele>
        <time>2022-10-01T10:39:26Z</time>
      </trkpt>
      <trkpt lat="47.20582" lon="7.53482">
        <ele>431</ele>
        <time>2022-10-01T10:39:27Z</time>
      </trkpt>
      <trkpt lat="47.20583" lon="7.53487">
        <ele>431</ele>
        <time>2022-10-01T10:39:28Z</time>
      </trkpt>
      <trkpt lat="47.20585" lon="7.53492">
        <ele>431.1</ele>
        <time>2022-10-01T10:39:29Z</time>
      </trkpt>
      <trkpt lat="47.20585" lon="7.53497">
        <ele>431.2</ele>
        <time>2022-10-01T10:39:30Z</time>
      </trkpt>
      <trkpt lat="47.20587" lon="7.53502">
        <ele>431.3</ele>
        <time>2022-10-01T10:39:31Z</time>
      </trkpt>
      <trkpt lat="47.20587" lon="7.53504">
        <ele>431.4</ele>
        <time>2022-10-01T10:39:32Z</time>
      </trkpt>
      <trkpt lat="47.20589" lon="7.53509">
        <ele>431.4</ele>
        <time>2022-10-01T10:39:33Z</time>
      </trkpt>
      <trkpt lat="47.2059" lon="7.53515">
        <ele>431.4</ele>
        <time>2022-10-01T10:39:34Z</time>
      </trkpt>
      <trkpt lat="47.20591" lon="7.53521">
        <ele>431.4</ele>
        <time>2022-10-01T10:39:35Z</time>
      </trkpt>
      <trkpt lat="47.20592" lon="7.53526">
        <ele>431.4</ele>
        <time>2022-10-01T10:39:36Z</time>
      </trkpt>
      <trkpt lat="47.20593" lon="7.53531">
        <ele>431.4</ele>
        <time>2022-10-01T10:39:37Z</time>
      </trkpt>
      <trkpt lat="47.20593" lon="7.53537">
        <ele>431.4</ele>
        <time>2022-10-01T10:39:38Z</time>
      </trkpt>
      <trkpt lat="47.20594" lon="7.53542">
        <ele>431.4</ele>
        <time>2022-10-01T10:39:39Z</time>
      </trkpt>
      <trkpt lat="47.20595" lon="7.53547">
        <ele>431.4</ele>
        <time>2022-10-01T10:39:40Z</time>
      </trkpt>
      <trkpt lat="47.20595" lon="7.53552">
        <ele>431.5</ele>
        <time>2022-10-01T10:39:41Z</time>
      </trkpt>
      <trkpt lat="47.20597" lon="7.53558">
        <ele>431.4</ele>
        <time>2022-10-01T10:39:42Z</time>
      </trkpt>
      <trkpt lat="47.20598" lon="7.53561">
        <ele>431.3</ele>
        <time>2022-10-01T10:39:43Z</time>
      </trkpt>
      <trkpt lat="47.206" lon="7.53565">
        <ele>431.2</ele>
        <time>2022-10-01T10:39:44Z</time>
      </trkpt>
      <trkpt lat="47.206" lon="7.5357">
        <ele>431.1</ele>
        <time>2022-10-01T10:39:45Z</time>
      </trkpt>
      <trkpt lat="47.20601" lon="7.53576">
        <ele>431</ele>
        <time>2022-10-01T10:39:46Z</time>
      </trkpt>
      <trkpt lat="47.20602" lon="7.53581">
        <ele>430.8</ele>
        <time>2022-10-01T10:39:47Z</time>
      </trkpt>
      <trkpt lat="47.20604" lon="7.53586">
        <ele>430.6</ele>
        <time>2022-10-01T10:39:48Z</time>
      </trkpt>
      <trkpt lat="47.20606" lon="7.53593">
        <ele>430.4</ele>
        <time>2022-10-01T10:39:49Z</time>
      </trkpt>
      <trkpt lat="47.20608" lon="7.536">
        <ele>430.2</ele>
        <time>2022-10-01T10:39:50Z</time>
      </trkpt>
      <trkpt lat="47.2061" lon="7.53607">
        <ele>430</ele>
        <time>2022-10-01T10:39:51Z</time>
      </trkpt>
      <trkpt lat="47.20611" lon="7.53614">
        <ele>429.8</ele>
        <time>2022-10-01T10:39:52Z</time>
      </trkpt>
      <trkpt lat="47.20613" lon="7.53623">
        <ele>429.6</ele>
        <time>2022-10-01T10:39:53Z</time>
      </trkpt>
      <trkpt lat="47.20616" lon="7.53632">
        <ele>429.4</ele>
        <time>2022-10-01T10:39:54Z</time>
      </trkpt>
      <trkpt lat="47.2062" lon="7.53638">
        <ele>429.3</ele>
        <time>2022-10-01T10:39:55Z</time>
      </trkpt>
      <trkpt lat="47.20623" lon="7.53645">
        <ele>429.3</ele>
        <time>2022-10-01T10:39:56Z</time>
      </trkpt>
      <trkpt lat="47.20626" lon="7.53653">
        <ele>429.2</ele>
        <time>2022-10-01T10:39:57Z</time>
      </trkpt>
      <trkpt lat="47.20628" lon="7.53659">
        <ele>429.2</ele>
        <time>2022-10-01T10:39:58Z</time>
      </trkpt>
      <trkpt lat="47.20631" lon="7.53666">
        <ele>429.2</ele>
        <time>2022-10-01T10:39:59Z</time>
      </trkpt>
      <trkpt lat="47.20634" lon="7.53674">
        <ele>429.1</ele>
        <time>2022-10-01T10:40:00Z</time>
      </trkpt>
      <trkpt lat="47.20637" lon="7.53681">
        <ele>429.1</ele>
        <time>2022-10-01T10:40:01Z</time>
      </trkpt>
      <trkpt lat="47.20639" lon="7.53687">
        <ele>429.1</ele>
        <time>2022-10-01T10:40:02Z</time>
      </trkpt>
      <trkpt lat="47.20642" lon="7.53693">
        <ele>429.1</ele>
        <time>2022-10-01T10:40:03Z</time>
      </trkpt>
      <trkpt lat="47.20644" lon="7.53699">
        <ele>429.1</ele>
        <time>2022-10-01T10:40:04Z</time>
      </trkpt>
      <trkpt lat="47.20647" lon="7.53705">
        <ele>429.2</ele>
        <time>2022-10-01T10:40:05Z</time>
      </trkpt>
      <trkpt lat="47.2065" lon="7.5371">
        <ele>429.2</ele>
        <time>2022-10-01T10:40:06Z</time>
      </trkpt>
      <trkpt lat="47.20652" lon="7.53715">
        <ele>429.2</ele>
        <time>2022-10-01T10:40:07Z</time>
      </trkpt>
      <trkpt lat="47.20655" lon="7.53721">
        <ele>429.2</ele>
        <time>2022-10-01T10:40:08Z</time>
      </trkpt>
      <trkpt lat="47.20656" lon="7.53727">
        <ele>429.2</ele>
        <time>2022-10-01T10:40:09Z</time>
      </trkpt>
      <trkpt lat="47.20658" lon="7.53733">
        <ele>429.2</ele>
        <time>2022-10-01T10:40:10Z</time>
      </trkpt>
      <trkpt lat="47.20659" lon="7.53739">
        <ele>429.2</ele>
        <time>2022-10-01T10:40:11Z</time>
      </trkpt>
      <trkpt lat="47.20661" lon="7.53743">
        <ele>429.2</ele>
        <time>2022-10-01T10:40:12Z</time>
      </trkpt>
      <trkpt lat="47.20663" lon="7.53747">
        <ele>429.2</ele>
        <time>2022-10-01T10:40:13Z</time>
      </trkpt>
      <trkpt lat="47.20664" lon="7.53751">
        <ele>429.2</ele>
        <time>2022-10-01T10:40:14Z</time>
      </trkpt>
      <trkpt lat="47.20664" lon="7.53753">
        <ele>429.2</ele>
        <time>2022-10-01T10:40:15Z</time>
      </trkpt>
      <trkpt lat="47.20665" lon="7.53759">
        <ele>429.2</ele>
        <time>2022-10-01T10:40:16Z</time>
      </trkpt>
      <trkpt lat="47.20666" lon="7.53763">
        <ele>429.2</ele>
        <time>2022-10-01T10:40:17Z</time>
      </trkpt>
      <trkpt lat="47.20669" lon="7.53766">
        <ele>429.2</ele>
        <time>2022-10-01T10:40:18Z</time>
      </trkpt>
      <trkpt lat="47.2067" lon="7.53771">
        <ele>429.2</ele>
        <time>2022-10-01T10:40:19Z</time>
      </trkpt>
      <trkpt lat="47.20671" lon="7.53776">
        <ele>429.2</ele>
        <time>2022-10-01T10:40:20Z</time>
      </trkpt>
      <trkpt lat="47.20674" lon="7.53781">
        <ele>429.2</ele>
        <time>2022-10-01T10:40:21Z</time>
      </trkpt>
      <trkpt lat="47.20675" lon="7.53786">
        <ele>429.2</ele>
        <time>2022-10-01T10:40:22Z</time>
      </trkpt>
      <trkpt lat="47.20677" lon="7.5379">
        <ele>429.2</ele>
        <time>2022-10-01T10:40:23Z</time>
      </trkpt>
      <trkpt lat="47.2068" lon="7.53795">
        <ele>429.2</ele>
        <time>2022-10-01T10:40:24Z</time>
      </trkpt>
      <trkpt lat="47.20681" lon="7.538">
        <ele>429.2</ele>
        <time>2022-10-01T10:40:25Z</time>
      </trkpt>
      <trkpt lat="47.20681" lon="7.53802">
        <ele>429.3</ele>
        <time>2022-10-01T10:40:26Z</time>
      </trkpt>
      <trkpt lat="47.20682" lon="7.53806">
        <ele>429.3</ele>
        <time>2022-10-01T10:40:27Z</time>
      </trkpt>
      <trkpt lat="47.20684" lon="7.53811">
        <ele>429.3</ele>
        <time>2022-10-01T10:40:28Z</time>
      </trkpt>
      <trkpt lat="47.20686" lon="7.53816">
        <ele>429.4</ele>
        <time>2022-10-01T10:40:29Z</time>
      </trkpt>
      <trkpt lat="47.20687" lon="7.53818">
        <ele>429.4</ele>
        <time>2022-10-01T10:40:30Z</time>
      </trkpt>
      <trkpt lat="47.20689" lon="7.53823">
        <ele>429.4</ele>
        <time>2022-10-01T10:40:31Z</time>
      </trkpt>
      <trkpt lat="47.2069" lon="7.53826">
        <ele>429.5</ele>
        <time>2022-10-01T10:40:32Z</time>
      </trkpt>
      <trkpt lat="47.20692" lon="7.5383">
        <ele>429.5</ele>
        <time>2022-10-01T10:40:33Z</time>
      </trkpt>
      <trkpt lat="47.20693" lon="7.53835">
        <ele>429.5</ele>
        <time>2022-10-01T10:40:34Z</time>
      </trkpt>
      <trkpt lat="47.20696" lon="7.53838">
        <ele>429.5</ele>
        <time>2022-10-01T10:40:35Z</time>
      </trkpt>
      <trkpt lat="47.20698" lon="7.53842">
        <ele>429.6</ele>
        <time>2022-10-01T10:40:36Z</time>
      </trkpt>
      <trkpt lat="47.20699" lon="7.53848">
        <ele>429.6</ele>
        <time>2022-10-01T10:40:37Z</time>
      </trkpt>
      <trkpt lat="47.20702" lon="7.53853">
        <ele>429.6</ele>
        <time>2022-10-01T10:40:38Z</time>
      </trkpt>
      <trkpt lat="47.20704" lon="7.53857">
        <ele>429.6</ele>
        <time>2022-10-01T10:40:39Z</time>
      </trkpt>
      <trkpt lat="47.20706" lon="7.53862">
        <ele>429.7</ele>
        <time>2022-10-01T10:40:40Z</time>
      </trkpt>
      <trkpt lat="47.20707" lon="7.5387">
        <ele>429.7</ele>
        <time>2022-10-01T10:40:41Z</time>
      </trkpt>
      <trkpt lat="47.20708" lon="7.53875">
        <ele>429.7</ele>
        <time>2022-10-01T10:40:42Z</time>
      </trkpt>
      <trkpt lat="47.2071" lon="7.53879">
        <ele>429.7</ele>
        <time>2022-10-01T10:40:44Z</time>
      </trkpt>
      <trkpt lat="47.2071" lon="7.5388">
        <ele>429.8</ele>
        <time>2022-10-01T10:40:45Z</time>
      </trkpt>
      <trkpt lat="47.20711" lon="7.53882">
        <ele>429.8</ele>
        <time>2022-10-01T10:40:46Z</time>
      </trkpt>
      <trkpt lat="47.2071" lon="7.53885">
        <ele>429.8</ele>
        <time>2022-10-01T10:40:47Z</time>
      </trkpt>
      <trkpt lat="47.20711" lon="7.53888">
        <ele>429.8</ele>
        <time>2022-10-01T10:40:48Z</time>
      </trkpt>
      <trkpt lat="47.20713" lon="7.53888">
        <ele>430.1</ele>
        <time>2022-10-01T10:40:49Z</time>
      </trkpt>
      <trkpt lat="47.20714" lon="7.53891">
        <ele>430.2</ele>
        <time>2022-10-01T10:40:50Z</time>
      </trkpt>
      <trkpt lat="47.20714" lon="7.53892">
        <ele>430.2</ele>
        <time>2022-10-01T10:40:51Z</time>
      </trkpt>
      <trkpt lat="47.20714" lon="7.53893">
        <ele>430.2</ele>
        <time>2022-10-01T10:40:52Z</time>
      </trkpt>
      <trkpt lat="47.20716" lon="7.53891">
        <ele>430.3</ele>
        <time>2022-10-01T10:40:53Z</time>
      </trkpt>
      <trkpt lat="47.20717" lon="7.53891">
        <ele>430.3</ele>
        <time>2022-10-01T10:40:54Z</time>
      </trkpt>
      <trkpt lat="47.2072" lon="7.53891">
        <ele>430.4</ele>
        <time>2022-10-01T10:40:55Z</time>
      </trkpt>
      <trkpt lat="47.20721" lon="7.53891">
        <ele>430.4</ele>
        <time>2022-10-01T10:40:56Z</time>
      </trkpt>
      <trkpt lat="47.20721" lon="7.53892">
        <ele>430.4</ele>
        <time>2022-10-01T10:40:57Z</time>
      </trkpt>
      <trkpt lat="47.20721" lon="7.53892">
        <ele>430.4</ele>
        <time>2022-10-01T10:40:58Z</time>
      </trkpt>
      <trkpt lat="47.20721" lon="7.53893">
        <ele>430.4</ele>
        <time>2022-10-01T10:40:59Z</time>
      </trkpt>
      <trkpt lat="47.20722" lon="7.53892">
        <ele>430.4</ele>
        <time>2022-10-01T10:41:00Z</time>
      </trkpt>
      <trkpt lat="47.20722" lon="7.53892">
        <ele>430.4</ele>
        <time>2022-10-01T10:41:01Z</time>
      </trkpt>
      <trkpt lat="47.20723" lon="7.53893">
        <ele>430.5</ele>
        <time>2022-10-01T10:41:02Z</time>
      </trkpt>
      <trkpt lat="47.20725" lon="7.53894">
        <ele>430.5</ele>
        <time>2022-10-01T10:41:03Z</time>
      </trkpt>
      <trkpt lat="47.20726" lon="7.53894">
        <ele>430.5</ele>
        <time>2022-10-01T10:41:04Z</time>
      </trkpt>
      <trkpt lat="47.20727" lon="7.53894">
        <ele>430.5</ele>
        <time>2022-10-01T10:41:05Z</time>
      </trkpt>
      <trkpt lat="47.20727" lon="7.53894">
        <ele>430.6</ele>
        <time>2022-10-01T10:41:06Z</time>
      </trkpt>
      <trkpt lat="47.20727" lon="7.53894">
        <ele>430.6</ele>
        <time>2022-10-01T10:41:07Z</time>
      </trkpt>
      <trkpt lat="47.20727" lon="7.53894">
        <ele>430.6</ele>
        <time>2022-10-01T10:41:08Z</time>
      </trkpt>
      <trkpt lat="47.20727" lon="7.53894">
        <ele>430.6</ele>
        <time>2022-10-01T10:41:09Z</time>
      </trkpt>
      <trkpt lat="47.20729" lon="7.53896">
        <ele>430.6</ele>
        <time>2022-10-01T10:41:10Z</time>
      </trkpt>
      <trkpt lat="47.20729" lon="7.53895">
        <ele>430.6</ele>
        <time>2022-10-01T10:41:11Z</time>
      </trkpt>
      <trkpt lat="47.2073" lon="7.53896">
        <ele>430.7</ele>
        <time>2022-10-01T10:41:12Z</time>
      </trkpt>
      <trkpt lat="47.2073" lon="7.53896">
        <ele>430.7</ele>
        <time>2022-10-01T10:41:13Z</time>
      </trkpt>
      <trkpt lat="47.21441" lon="7.5741">
        <ele>431.6</ele>
        <time>2022-10-01T11:20:42Z</time>
      </trkpt>
      <trkpt lat="47.21442" lon="7.57412">
        <ele>431.6</ele>
        <time>2022-10-01T11:20:43Z</time>
      </trkpt>
      <trkpt lat="47.21443" lon="7.57413">
        <ele>431.6</ele>
        <time>2022-10-01T11:20:44Z</time>
      </trkpt>
      <trkpt lat="47.21443" lon="7.57413">
        <ele>431.6</ele>
        <time>2022-10-01T11:20:45Z</time>
      </trkpt>
      <trkpt lat="47.21444" lon="7.57414">
        <ele>431.6</ele>
        <time>2022-10-01T11:20:46Z</time>
      </trkpt>
      <trkpt lat="47.21445" lon="7.57415">
        <ele>431.5</ele>
        <time>2022-10-01T11:20:47Z</time>
      </trkpt>
      <trkpt lat="47.21445" lon="7.57416">
        <ele>431.5</ele>
        <time>2022-10-01T11:20:48Z</time>
      </trkpt>
      <trkpt lat="47.21446" lon="7.57416">
        <ele>431.5</ele>
        <time>2022-10-01T11:20:49Z</time>
      </trkpt>
      <trkpt lat="47.21446" lon="7.57417">
        <ele>431.5</ele>
        <time>2022-10-01T11:20:50Z</time>
      </trkpt>
      <trkpt lat="47.21447" lon="7.57418">
        <ele>431.5</ele>
        <time>2022-10-01T11:20:51Z</time>
      </trkpt>
      <trkpt lat="47.21447" lon="7.57419">
        <ele>431.5</ele>
        <time>2022-10-01T11:20:56Z</time>
      </trkpt>
      <trkpt lat="47.21448" lon="7.57419">
        <ele>431.5</ele>
        <time>2022-10-01T11:20:57Z</time>
      </trkpt>
      <trkpt lat="47.21448" lon="7.57424">
        <ele>431.4</ele>
        <time>2022-10-01T11:20:58Z</time>
      </trkpt>
      <trkpt lat="47.21449" lon="7.57428">
        <ele>431.3</ele>
        <time>2022-10-01T11:20:59Z</time>
      </trkpt>
      <trkpt lat="47.2145" lon="7.57433">
        <ele>431.3</ele>
        <time>2022-10-01T11:21:00Z</time>
      </trkpt>
      <trkpt lat="47.21452" lon="7.57438">
        <ele>431.3</ele>
        <time>2022-10-01T11:21:01Z</time>
      </trkpt>
      <trkpt lat="47.21453" lon="7.57443">
        <ele>431.2</ele>
        <time>2022-10-01T11:21:02Z</time>
      </trkpt>
      <trkpt lat="47.21454" lon="7.57448">
        <ele>431.1</ele>
        <time>2022-10-01T11:21:03Z</time>
      </trkpt>
      <trkpt lat="47.21455" lon="7.57453">
        <ele>431.1</ele>
        <time>2022-10-01T11:21:04Z</time>
      </trkpt>
      <trkpt lat="47.21457" lon="7.5746">
        <ele>431</ele>
        <time>2022-10-01T11:21:05Z</time>
      </trkpt>
      <trkpt lat="47.21458" lon="7.57465">
        <ele>430.9</ele>
        <time>2022-10-01T11:21:06Z</time>
      </trkpt>
      <trkpt lat="47.2146" lon="7.57472">
        <ele>430.8</ele>
        <time>2022-10-01T11:21:07Z</time>
      </trkpt>
      <trkpt lat="47.21463" lon="7.57476">
        <ele>430.7</ele>
        <time>2022-10-01T11:21:08Z</time>
      </trkpt>
      <trkpt lat="47.21464" lon="7.57483">
        <ele>430.6</ele>
        <time>2022-10-01T11:21:09Z</time>
      </trkpt>
      <trkpt lat="47.21466" lon="7.57488">
        <ele>430.4</ele>
        <time>2022-10-01T11:21:10Z</time>
      </trkpt>
      <trkpt lat="47.21468" lon="7.57495">
        <ele>430.3</ele>
        <time>2022-10-01T11:21:11Z</time>
      </trkpt>
      <trkpt lat="47.21468" lon="7.57501">
        <ele>430.1</ele>
        <time>2022-10-01T11:21:12Z</time>
      </trkpt>
      <trkpt lat="47.21469" lon="7.57507">
        <ele>430</ele>
        <time>2022-10-01T11:21:13Z</time>
      </trkpt>
      <trkpt lat="47.2147" lon="7.57512">
        <ele>429.9</ele>
        <time>2022-10-01T11:21:14Z</time>
      </trkpt>
      <trkpt lat="47.21472" lon="7.57517">
        <ele>429.7</ele>
        <time>2022-10-01T11:21:15Z</time>
      </trkpt>
      <trkpt lat="47.21473" lon="7.57522">
        <ele>429.6</ele>
        <time>2022-10-01T11:21:16Z</time>
      </trkpt>
      <trkpt lat="47.21474" lon="7.57527">
        <ele>429.5</ele>
        <time>2022-10-01T11:21:17Z</time>
      </trkpt>
      <trkpt lat="47.21476" lon="7.57533">
        <ele>429.3</ele>
        <time>2022-10-01T11:21:18Z</time>
      </trkpt>
      <trkpt lat="47.21479" lon="7.57539">
        <ele>429.1</ele>
        <time>2022-10-01T11:21:19Z</time>
      </trkpt>
      <trkpt lat="47.21481" lon="7.57545">
        <ele>429</ele>
        <time>2022-10-01T11:21:20Z</time>
      </trkpt>
      <trkpt lat="47.21485" lon="7.5755">
        <ele>428.8</ele>
        <time>2022-10-01T11:21:21Z</time>
      </trkpt>
      <trkpt lat="47.21488" lon="7.57557">
        <ele>428.8</ele>
        <time>2022-10-01T11:21:22Z</time>
      </trkpt>
      <trkpt lat="47.2149" lon="7.57562">
        <ele>428.8</ele>
        <time>2022-10-01T11:21:23Z</time>
      </trkpt>
      <trkpt lat="47.21493" lon="7.57569">
        <ele>428.7</ele>
        <time>2022-10-01T11:21:24Z</time>
      </trkpt>
      <trkpt lat="47.21496" lon="7.57575">
        <ele>428.7</ele>
        <time>2022-10-01T11:21:25Z</time>
      </trkpt>
      <trkpt lat="47.21498" lon="7.57582">
        <ele>428.7</ele>
        <time>2022-10-01T11:21:26Z</time>
      </trkpt>
      <trkpt lat="47.215" lon="7.57591">
        <ele>428.6</ele>
        <time>2022-10-01T11:21:27Z</time>
      </trkpt>
      <trkpt lat="47.21501" lon="7.57598">
        <ele>428.6</ele>
        <time>2022-10-01T11:21:28Z</time>
      </trkpt>
      <trkpt lat="47.21503" lon="7.57606">
        <ele>428.5</ele>
        <time>2022-10-01T11:21:29Z</time>
      </trkpt>
      <trkpt lat="47.21505" lon="7.57613">
        <ele>428.5</ele>
        <time>2022-10-01T11:21:30Z</time>
      </trkpt>
      <trkpt lat="47.21507" lon="7.5762">
        <ele>428.5</ele>
        <time>2022-10-01T11:21:31Z</time>
      </trkpt>
      <trkpt lat="47.21509" lon="7.57628">
        <ele>428.5</ele>
        <time>2022-10-01T11:21:32Z</time>
      </trkpt>
      <trkpt lat="47.21511" lon="7.57635">
        <ele>428.5</ele>
        <time>2022-10-01T11:21:33Z</time>
      </trkpt>
      <trkpt lat="47.21512" lon="7.57642">
        <ele>428.5</ele>
        <time>2022-10-01T11:21:34Z</time>
      </trkpt>
      <trkpt lat="47.21514" lon="7.5765">
        <ele>428.5</ele>
        <time>2022-10-01T11:21:35Z</time>
      </trkpt>
      <trkpt lat="47.21516" lon="7.57658">
        <ele>428.5</ele>
        <time>2022-10-01T11:21:36Z</time>
      </trkpt>
      <trkpt lat="47.21517" lon="7.57666">
        <ele>428.5</ele>
        <time>2022-10-01T11:21:37Z</time>
      </trkpt>
      <trkpt lat="47.21519" lon="7.57674">
        <ele>428.5</ele>
        <time>2022-10-01T11:21:38Z</time>
      </trkpt>
      <trkpt lat="47.21521" lon="7.57682">
        <ele>428.5</ele>
        <time>2022-10-01T11:21:39Z</time>
      </trkpt>
      <trkpt lat="47.21523" lon="7.5769">
        <ele>428.6</ele>
        <time>2022-10-01T11:21:40Z</time>
      </trkpt>
      <trkpt lat="47.21525" lon="7.57698">
        <ele>428.6</ele>
        <time>2022-10-01T11:21:41Z</time>
      </trkpt>
      <trkpt lat="47.21526" lon="7.57705">
        <ele>428.6</ele>
        <time>2022-10-01T11:21:42Z</time>
      </trkpt>
      <trkpt lat="47.21527" lon="7.57714">
        <ele>428.6</ele>
        <time>2022-10-01T11:21:43Z</time>
      </trkpt>
      <trkpt lat="47.21529" lon="7.57721">
        <ele>428.6</ele>
        <time>2022-10-01T11:21:44Z</time>
      </trkpt>
      <trkpt lat="47.2153" lon="7.57729">
        <ele>428.7</ele>
        <time>2022-10-01T11:21:45Z</time>
      </trkpt>
      <trkpt lat="47.21532" lon="7.57737">
        <ele>428.7</ele>
        <time>2022-10-01T11:21:46Z</time>
      </trkpt>
      <trkpt lat="47.21534" lon="7.57745">
        <ele>428.7</ele>
        <time>2022-10-01T11:21:47Z</time>
      </trkpt>
      <trkpt lat="47.21536" lon="7.57753">
        <ele>428.7</ele>
        <time>2022-10-01T11:21:48Z</time>
      </trkpt>
      <trkpt lat="47.21537" lon="7.57761">
        <ele>428.7</ele>
        <time>2022-10-01T11:21:49Z</time>
      </trkpt>
      <trkpt lat="47.21539" lon="7.57769">
        <ele>428.7</ele>
        <time>2022-10-01T11:21:50Z</time>
      </trkpt>
      <trkpt lat="47.21541" lon="7.57777">
        <ele>428.7</ele>
        <time>2022-10-01T11:21:51Z</time>
      </trkpt>
      <trkpt lat="47.21543" lon="7.57785">
        <ele>428.8</ele>
        <time>2022-10-01T11:21:52Z</time>
      </trkpt>
      <trkpt lat="47.21546" lon="7.57793">
        <ele>428.8</ele>
        <time>2022-10-01T11:21:53Z</time>
      </trkpt>
      <trkpt lat="47.21547" lon="7.57802">
        <ele>428.8</ele>
        <time>2022-10-01T11:21:54Z</time>
      </trkpt>
      <trkpt lat="47.21551" lon="7.57809">
        <ele>428.8</ele>
        <time>2022-10-01T11:21:55Z</time>
      </trkpt>
      <trkpt lat="47.21553" lon="7.57816">
        <ele>428.8</ele>
        <time>2022-10-01T11:21:56Z</time>
      </trkpt>
      <trkpt lat="47.21557" lon="7.57823">
        <ele>428.8</ele>
        <time>2022-10-01T11:21:57Z</time>
      </trkpt>
      <trkpt lat="47.21558" lon="7.5783">
        <ele>428.8</ele>
        <time>2022-10-01T11:21:58Z</time>
      </trkpt>
      <trkpt lat="47.21561" lon="7.57837">
        <ele>428.8</ele>
        <time>2022-10-01T11:21:59Z</time>
      </trkpt>
      <trkpt lat="47.21565" lon="7.57843">
        <ele>428.8</ele>
        <time>2022-10-01T11:22:00Z</time>
      </trkpt>
      <trkpt lat="47.21568" lon="7.57849">
        <ele>428.8</ele>
        <time>2022-10-01T11:22:01Z</time>
      </trkpt>
      <trkpt lat="47.21571" lon="7.57855">
        <ele>428.8</ele>
        <time>2022-10-01T11:22:02Z</time>
      </trkpt>
      <trkpt lat="47.21573" lon="7.57861">
        <ele>428.8</ele>
        <time>2022-10-01T11:22:03Z</time>
      </trkpt>
      <trkpt lat="47.21576" lon="7.57868">
        <ele>428.7</ele>
        <time>2022-10-01T11:22:04Z</time>
      </trkpt>
      <trkpt lat="47.21578" lon="7.57873">
        <ele>428.7</ele>
        <time>2022-10-01T11:22:05Z</time>
      </trkpt>
      <trkpt lat="47.21581" lon="7.57877">
        <ele>428.7</ele>
        <time>2022-10-01T11:22:06Z</time>
      </trkpt>
      <trkpt lat="47.21583" lon="7.57881">
        <ele>428.7</ele>
        <time>2022-10-01T11:22:07Z</time>
      </trkpt>
      <trkpt lat="47.21584" lon="7.57886">
        <ele>428.7</ele>
        <time>2022-10-01T11:22:08Z</time>
      </trkpt>
      <trkpt lat="47.21585" lon="7.5789">
        <ele>428.7</ele>
        <time>2022-10-01T11:22:09Z</time>
      </trkpt>
      <trkpt lat="47.21587" lon="7.57894">
        <ele>428.7</ele>
        <time>2022-10-01T11:22:10Z</time>
      </trkpt>
      <trkpt lat="47.21588" lon="7.57895">
        <ele>428.7</ele>
        <time>2022-10-01T11:22:11Z</time>
      </trkpt>
      <trkpt lat="47.2159" lon="7.57898">
        <ele>428.7</ele>
        <time>2022-10-01T11:22:12Z</time>
      </trkpt>
      <trkpt lat="47.21594" lon="7.57901">
        <ele>428.6</ele>
        <time>2022-10-01T11:22:13Z</time>
      </trkpt>
      <trkpt lat="47.21595" lon="7.57902">
        <ele>428.6</ele>
        <time>2022-10-01T11:22:14Z</time>
      </trkpt>
      <trkpt lat="47.21598" lon="7.57901">
        <ele>428.5</ele>
        <time>2022-10-01T11:22:15Z</time>
      </trkpt>
      <trkpt lat="47.21601" lon="7.57899">
        <ele>428.5</ele>
        <time>2022-10-01T11:22:16Z</time>
      </trkpt>
      <trkpt lat="47.21604" lon="7.57896">
        <ele>428.4</ele>
        <time>2022-10-01T11:22:17Z</time>
      </trkpt>
      <trkpt lat="47.21607" lon="7.57893">
        <ele>428.3</ele>
        <time>2022-10-01T11:22:18Z</time>
      </trkpt>
      <trkpt lat="47.2161" lon="7.5789">
        <ele>428.2</ele>
        <time>2022-10-01T11:22:19Z</time>
      </trkpt>
      <trkpt lat="47.21614" lon="7.57886">
        <ele>428.2</ele>
        <time>2022-10-01T11:22:20Z</time>
      </trkpt>
      <trkpt lat="47.21617" lon="7.57883">
        <ele>428.1</ele>
        <time>2022-10-01T11:22:21Z</time>
      </trkpt>
      <trkpt lat="47.21621" lon="7.57879">
        <ele>428.1</ele>
        <time>2022-10-01T11:22:22Z</time>
      </trkpt>
      <trkpt lat="47.21624" lon="7.57876">
        <ele>428</ele>
        <time>2022-10-01T11:22:23Z</time>
      </trkpt>
      <trkpt lat="47.21628" lon="7.57873">
        <ele>428</ele>
        <time>2022-10-01T11:22:24Z</time>
      </trkpt>
      <trkpt lat="47.21632" lon="7.5787">
        <ele>428</ele>
        <time>2022-10-01T11:22:25Z</time>
      </trkpt>
      <trkpt lat="47.21636" lon="7.57867">
        <ele>427.9</ele>
        <time>2022-10-01T11:22:26Z</time>
      </trkpt>
      <trkpt lat="47.2164" lon="7.57864">
        <ele>427.9</ele>
        <time>2022-10-01T11:22:27Z</time>
      </trkpt>
      <trkpt lat="47.21644" lon="7.5786">
        <ele>427.9</ele>
        <time>2022-10-01T11:22:28Z</time>
      </trkpt>
      <trkpt lat="47.21649" lon="7.57857">
        <ele>427.8</ele>
        <time>2022-10-01T11:22:29Z</time>
      </trkpt>
      <trkpt lat="47.21652" lon="7.57854">
        <ele>427.8</ele>
        <time>2022-10-01T11:22:30Z</time>
      </trkpt>
      <trkpt lat="47.21656" lon="7.5785">
        <ele>427.8</ele>
        <time>2022-10-01T11:22:31Z</time>
      </trkpt>
      <trkpt lat="47.21661" lon="7.57846">
        <ele>427.8</ele>
        <time>2022-10-01T11:22:32Z</time>
      </trkpt>
      <trkpt lat="47.21665" lon="7.57842">
        <ele>427.8</ele>
        <time>2022-10-01T11:22:33Z</time>
      </trkpt>
      <trkpt lat="47.2167" lon="7.57837">
        <ele>427.8</ele>
        <time>2022-10-01T11:22:34Z</time>
      </trkpt>
      <trkpt lat="47.21674" lon="7.57834">
        <ele>427.7</ele>
        <time>2022-10-01T11:22:35Z</time>
      </trkpt>
      <trkpt lat="47.21678" lon="7.5783">
        <ele>427.7</ele>
        <time>2022-10-01T11:22:36Z</time>
      </trkpt>
      <trkpt lat="47.21683" lon="7.57825">
        <ele>427.7</ele>
        <time>2022-10-01T11:22:37Z</time>
      </trkpt>
      <trkpt lat="47.21687" lon="7.57821">
        <ele>427.7</ele>
        <time>2022-10-01T11:22:38Z</time>
      </trkpt>
      <trkpt lat="47.21692" lon="7.57817">
        <ele>427.7</ele>
        <time>2022-10-01T11:22:39Z</time>
      </trkpt>
      <trkpt lat="47.21696" lon="7.57813">
        <ele>427.7</ele>
        <time>2022-10-01T11:22:40Z</time>
      </trkpt>
      <trkpt lat="47.21701" lon="7.57808">
        <ele>427.7</ele>
        <time>2022-10-01T11:22:41Z</time>
      </trkpt>
      <trkpt lat="47.21705" lon="7.57803">
        <ele>427.7</ele>
        <time>2022-10-01T11:22:42Z</time>
      </trkpt>
      <trkpt lat="47.21708" lon="7.57799">
        <ele>427.7</ele>
        <time>2022-10-01T11:22:43Z</time>
      </trkpt>
      <trkpt lat="47.21713" lon="7.57795">
        <ele>427.7</ele>
        <time>2022-10-01T11:22:44Z</time>
      </trkpt>
      <trkpt lat="47.21717" lon="7.5779">
        <ele>427.7</ele>
        <time>2022-10-01T11:22:45Z</time>
      </trkpt>
      <trkpt lat="47.21721" lon="7.57785">
        <ele>427.7</ele>
        <time>2022-10-01T11:22:46Z</time>
      </trkpt>
      <trkpt lat="47.21725" lon="7.5778">
        <ele>427.7</ele>
        <time>2022-10-01T11:22:47Z</time>
      </trkpt>
      <trkpt lat="47.21729" lon="7.57775">
        <ele>427.7</ele>
        <time>2022-10-01T11:22:48Z</time>
      </trkpt>
      <trkpt lat="47.21732" lon="7.5777">
        <ele>427.7</ele>
        <time>2022-10-01T11:22:49Z</time>
      </trkpt>
      <trkpt lat="47.21735" lon="7.57766">
        <ele>427.7</ele>
        <time>2022-10-01T11:22:50Z</time>
      </trkpt>
      <trkpt lat="47.21738" lon="7.57762">
        <ele>427.7</ele>
        <time>2022-10-01T11:22:51Z</time>
      </trkpt>
      <trkpt lat="47.21742" lon="7.57758">
        <ele>427.6</ele>
        <time>2022-10-01T11:22:52Z</time>
      </trkpt>
      <trkpt lat="47.21745" lon="7.57754">
        <ele>427.6</ele>
        <time>2022-10-01T11:22:53Z</time>
      </trkpt>
      <trkpt lat="47.21749" lon="7.5775">
        <ele>427.6</ele>
        <time>2022-10-01T11:22:54Z</time>
      </trkpt>
      <trkpt lat="47.21753" lon="7.57745">
        <ele>427.6</ele>
        <time>2022-10-01T11:22:55Z</time>
      </trkpt>
      <trkpt lat="47.21756" lon="7.57741">
        <ele>427.6</ele>
        <time>2022-10-01T11:22:56Z</time>
      </trkpt>
      <trkpt lat="47.2176" lon="7.57736">
        <ele>427.6</ele>
        <time>2022-10-01T11:22:57Z</time>
      </trkpt>
      <trkpt lat="47.21763" lon="7.5773">
        <ele>427.6</ele>
        <time>2022-10-01T11:22:58Z</time>
      </trkpt>
      <trkpt lat="47.21768" lon="7.57725">
        <ele>427.6</ele>
        <time>2022-10-01T11:22:59Z</time>
      </trkpt>
      <trkpt lat="47.21771" lon="7.5772">
        <ele>427.5</ele>
        <time>2022-10-01T11:23:00Z</time>
      </trkpt>
      <trkpt lat="47.21776" lon="7.57715">
        <ele>427.5</ele>
        <time>2022-10-01T11:23:01Z</time>
      </trkpt>
      <trkpt lat="47.2178" lon="7.5771">
        <ele>427.5</ele>
        <time>2022-10-01T11:23:02Z</time>
      </trkpt>
      <trkpt lat="47.21784" lon="7.57704">
        <ele>427.5</ele>
        <time>2022-10-01T11:23:03Z</time>
      </trkpt>
      <trkpt lat="47.21788" lon="7.57698">
        <ele>427.5</ele>
        <time>2022-10-01T11:23:04Z</time>
      </trkpt>
      <trkpt lat="47.21793" lon="7.57694">
        <ele>427.4</ele>
        <time>2022-10-01T11:23:05Z</time>
      </trkpt>
      <trkpt lat="47.21798" lon="7.57689">
        <ele>427.4</ele>
        <time>2022-10-01T11:23:06Z</time>
      </trkpt>
      <trkpt lat="47.21802" lon="7.57683">
        <ele>427.4</ele>
        <time>2022-10-01T11:23:07Z</time>
      </trkpt>
      <trkpt lat="47.21806" lon="7.57677">
        <ele>427.4</ele>
        <time>2022-10-01T11:23:08Z</time>
      </trkpt>
      <trkpt lat="47.2181" lon="7.57672">
        <ele>427.4</ele>
        <time>2022-10-01T11:23:09Z</time>
      </trkpt>
      <trkpt lat="47.21814" lon="7.57666">
        <ele>427.4</ele>
        <time>2022-10-01T11:23:10Z</time>
      </trkpt>
      <trkpt lat="47.21818" lon="7.57661">
        <ele>427.3</ele>
        <time>2022-10-01T11:23:11Z</time>
      </trkpt>
      <trkpt lat="47.21822" lon="7.57656">
        <ele>427.3</ele>
        <time>2022-10-01T11:23:12Z</time>
      </trkpt>
      <trkpt lat="47.21827" lon="7.57651">
        <ele>427.3</ele>
        <time>2022-10-01T11:23:13Z</time>
      </trkpt>
      <trkpt lat="47.21831" lon="7.57646">
        <ele>427.3</ele>
        <time>2022-10-01T11:23:14Z</time>
      </trkpt>
      <trkpt lat="47.21834" lon="7.57641">
        <ele>427.3</ele>
        <time>2022-10-01T11:23:15Z</time>
      </trkpt>
      <trkpt lat="47.21838" lon="7.57635">
        <ele>427.3</ele>
        <time>2022-10-01T11:23:16Z</time>
      </trkpt>
      <trkpt lat="47.21841" lon="7.5763">
        <ele>427.3</ele>
        <time>2022-10-01T11:23:17Z</time>
      </trkpt>
      <trkpt lat="47.21845" lon="7.57626">
        <ele>427.3</ele>
        <time>2022-10-01T11:23:18Z</time>
      </trkpt>
      <trkpt lat="47.21849" lon="7.5762">
        <ele>427.3</ele>
        <time>2022-10-01T11:23:19Z</time>
      </trkpt>
      <trkpt lat="47.21852" lon="7.57615">
        <ele>427.3</ele>
        <time>2022-10-01T11:23:20Z</time>
      </trkpt>
      <trkpt lat="47.21856" lon="7.5761">
        <ele>427.3</ele>
        <time>2022-10-01T11:23:21Z</time>
      </trkpt>
      <trkpt lat="47.2186" lon="7.57607">
        <ele>427.3</ele>
        <time>2022-10-01T11:23:22Z</time>
      </trkpt>
      <trkpt lat="47.21864" lon="7.57602">
        <ele>427.3</ele>
        <time>2022-10-01T11:23:23Z</time>
      </trkpt>
      <trkpt lat="47.21867" lon="7.57597">
        <ele>427.3</ele>
        <time>2022-10-01T11:23:24Z</time>
      </trkpt>
      <trkpt lat="47.21871" lon="7.57593">
        <ele>427.2</ele>
        <time>2022-10-01T11:23:25Z</time>
      </trkpt>
      <trkpt lat="47.21875" lon="7.57588">
        <ele>427.2</ele>
        <time>2022-10-01T11:23:26Z</time>
      </trkpt>
      <trkpt lat="47.21878" lon="7.57584">
        <ele>427.2</ele>
        <time>2022-10-01T11:23:27Z</time>
      </trkpt>
      <trkpt lat="47.21882" lon="7.57579">
        <ele>427.2</ele>
        <time>2022-10-01T11:23:28Z</time>
      </trkpt>
      <trkpt lat="47.21886" lon="7.57574">
        <ele>427.2</ele>
        <time>2022-10-01T11:23:29Z</time>
      </trkpt>
      <trkpt lat="47.21889" lon="7.5757">
        <ele>427.2</ele>
        <time>2022-10-01T11:23:30Z</time>
      </trkpt>
      <trkpt lat="47.21892" lon="7.57565">
        <ele>427.1</ele>
        <time>2022-10-01T11:23:31Z</time>
      </trkpt>
      <trkpt lat="47.21896" lon="7.5756">
        <ele>427.1</ele>
        <time>2022-10-01T11:23:32Z</time>
      </trkpt>
      <trkpt lat="47.219" lon="7.57555">
        <ele>427.1</ele>
        <time>2022-10-01T11:23:33Z</time>
      </trkpt>
      <trkpt lat="47.21904" lon="7.5755">
        <ele>427</ele>
        <time>2022-10-01T11:23:34Z</time>
      </trkpt>
      <trkpt lat="47.21909" lon="7.57545">
        <ele>427</ele>
        <time>2022-10-01T11:23:35Z</time>
      </trkpt>
      <trkpt lat="47.21913" lon="7.5754">
        <ele>427</ele>
        <time>2022-10-01T11:23:36Z</time>
      </trkpt>
      <trkpt lat="47.21917" lon="7.57535">
        <ele>426.9</ele>
        <time>2022-10-01T11:23:37Z</time>
      </trkpt>
      <trkpt lat="47.2192" lon="7.5753">
        <ele>426.9</ele>
        <time>2022-10-01T11:23:38Z</time>
      </trkpt>
      <trkpt lat="47.21924" lon="7.57525">
        <ele>426.9</ele>
        <time>2022-10-01T11:23:39Z</time>
      </trkpt>
      <trkpt lat="47.21928" lon="7.5752">
        <ele>426.9</ele>
        <time>2022-10-01T11:23:40Z</time>
      </trkpt>
      <trkpt lat="47.21933" lon="7.57516">
        <ele>426.9</ele>
        <time>2022-10-01T11:23:41Z</time>
      </trkpt>
      <trkpt lat="47.21936" lon="7.57511">
        <ele>426.9</ele>
        <time>2022-10-01T11:23:42Z</time>
      </trkpt>
      <trkpt lat="47.2194" lon="7.57504">
        <ele>426.8</ele>
        <time>2022-10-01T11:23:43Z</time>
      </trkpt>
      <trkpt lat="47.21945" lon="7.575">
        <ele>426.8</ele>
        <time>2022-10-01T11:23:44Z</time>
      </trkpt>
      <trkpt lat="47.21948" lon="7.57495">
        <ele>426.8</ele>
        <time>2022-10-01T11:23:45Z</time>
      </trkpt>
      <trkpt lat="47.21952" lon="7.5749">
        <ele>426.8</ele>
        <time>2022-10-01T11:23:46Z</time>
      </trkpt>
      <trkpt lat="47.21956" lon="7.57485">
        <ele>426.8</ele>
        <time>2022-10-01T11:23:47Z</time>
      </trkpt>
      <trkpt lat="47.2196" lon="7.5748">
        <ele>426.8</ele>
        <time>2022-10-01T11:23:48Z</time>
      </trkpt>
      <trkpt lat="47.21964" lon="7.57473">
        <ele>426.8</ele>
        <time>2022-10-01T11:23:49Z</time>
      </trkpt>
      <trkpt lat="47.21967" lon="7.57468">
        <ele>426.8</ele>
        <time>2022-10-01T11:23:50Z</time>
      </trkpt>
      <trkpt lat="47.21971" lon="7.57463">
        <ele>426.8</ele>
        <time>2022-10-01T11:23:51Z</time>
      </trkpt>
      <trkpt lat="47.21975" lon="7.57458">
        <ele>426.8</ele>
        <time>2022-10-01T11:23:52Z</time>
      </trkpt>
      <trkpt lat="47.21979" lon="7.57453">
        <ele>426.9</ele>
        <time>2022-10-01T11:23:53Z</time>
      </trkpt>
      <trkpt lat="47.21983" lon="7.57448">
        <ele>426.9</ele>
        <time>2022-10-01T11:23:54Z</time>
      </trkpt>
      <trkpt lat="47.21987" lon="7.57443">
        <ele>426.9</ele>
        <time>2022-10-01T11:23:55Z</time>
      </trkpt>
      <trkpt lat="47.21989" lon="7.57439">
        <ele>426.9</ele>
        <time>2022-10-01T11:23:56Z</time>
      </trkpt>
      <trkpt lat="47.21993" lon="7.57435">
        <ele>426.9</ele>
        <time>2022-10-01T11:23:57Z</time>
      </trkpt>
      <trkpt lat="47.21996" lon="7.57432">
        <ele>426.9</ele>
        <time>2022-10-01T11:23:58Z</time>
      </trkpt>
      <trkpt lat="47.22" lon="7.5743">
        <ele>426.9</ele>
        <time>2022-10-01T11:23:59Z</time>
      </trkpt>
      <trkpt lat="47.22003" lon="7.57426">
        <ele>426.9</ele>
        <time>2022-10-01T11:24:00Z</time>
      </trkpt>
      <trkpt lat="47.22007" lon="7.57421">
        <ele>426.9</ele>
        <time>2022-10-01T11:24:01Z</time>
      </trkpt>
      <trkpt lat="47.22009" lon="7.57415">
        <ele>426.9</ele>
        <time>2022-10-01T11:24:02Z</time>
      </trkpt>
      <trkpt lat="47.22013" lon="7.5741">
        <ele>426.9</ele>
        <time>2022-10-01T11:24:03Z</time>
      </trkpt>
      <trkpt lat="47.22016" lon="7.57405">
        <ele>426.9</ele>
        <time>2022-10-01T11:24:04Z</time>
      </trkpt>
      <trkpt lat="47.2202" lon="7.574">
        <ele>426.9</ele>
        <time>2022-10-01T11:24:05Z</time>
      </trkpt>
      <trkpt lat="47.22023" lon="7.57397">
        <ele>426.9</ele>
        <time>2022-10-01T11:24:06Z</time>
      </trkpt>
      <trkpt lat="47.22027" lon="7.57392">
        <ele>426.9</ele>
        <time>2022-10-01T11:24:07Z</time>
      </trkpt>
      <trkpt lat="47.2203" lon="7.57388">
        <ele>427</ele>
        <time>2022-10-01T11:24:08Z</time>
      </trkpt>
      <trkpt lat="47.22034" lon="7.57384">
        <ele>427</ele>
        <time>2022-10-01T11:24:09Z</time>
      </trkpt>
      <trkpt lat="47.22037" lon="7.57381">
        <ele>427</ele>
        <time>2022-10-01T11:24:10Z</time>
      </trkpt>
      <trkpt lat="47.2204" lon="7.57378">
        <ele>427</ele>
        <time>2022-10-01T11:24:11Z</time>
      </trkpt>
      <trkpt lat="47.22044" lon="7.57375">
        <ele>427</ele>
        <time>2022-10-01T11:24:12Z</time>
      </trkpt>
      <trkpt lat="47.22046" lon="7.57371">
        <ele>427</ele>
        <time>2022-10-01T11:24:13Z</time>
      </trkpt>
      <trkpt lat="47.22049" lon="7.57368">
        <ele>427</ele>
        <time>2022-10-01T11:24:14Z</time>
      </trkpt>
      <trkpt lat="47.2205" lon="7.57368">
        <ele>427</ele>
        <time>2022-10-01T11:24:15Z</time>
      </trkpt>
      <trkpt lat="47.22053" lon="7.57368">
        <ele>427</ele>
        <time>2022-10-01T11:24:16Z</time>
      </trkpt>
      <trkpt lat="47.22054" lon="7.57368">
        <ele>427</ele>
        <time>2022-10-01T11:24:17Z</time>
      </trkpt>
      <trkpt lat="47.22056" lon="7.57372">
        <ele>427</ele>
        <time>2022-10-01T11:24:18Z</time>
      </trkpt>
      <trkpt lat="47.22056" lon="7.57373">
        <ele>427</ele>
        <time>2022-10-01T11:24:19Z</time>
      </trkpt>
      <trkpt lat="47.22059" lon="7.57375">
        <ele>427</ele>
        <time>2022-10-01T11:24:20Z</time>
      </trkpt>
      <trkpt lat="47.22061" lon="7.57378">
        <ele>427</ele>
        <time>2022-10-01T11:24:21Z</time>
      </trkpt>
      <trkpt lat="47.22064" lon="7.57381">
        <ele>427</ele>
        <time>2022-10-01T11:24:22Z</time>
      </trkpt>
      <trkpt lat="47.22067" lon="7.57383">
        <ele>427</ele>
        <time>2022-10-01T11:24:23Z</time>
      </trkpt>
      <trkpt lat="47.22069" lon="7.57386">
        <ele>427</ele>
        <time>2022-10-01T11:24:24Z</time>
      </trkpt>
      <trkpt lat="47.22072" lon="7.5739">
        <ele>427</ele>
        <time>2022-10-01T11:24:25Z</time>
      </trkpt>
      <trkpt lat="47.22075" lon="7.57393">
        <ele>427</ele>
        <time>2022-10-01T11:24:26Z</time>
      </trkpt>
      <trkpt lat="47.22078" lon="7.57396">
        <ele>427</ele>
        <time>2022-10-01T11:24:27Z</time>
      </trkpt>
      <trkpt lat="47.22081" lon="7.57399">
        <ele>427.1</ele>
        <time>2022-10-01T11:24:28Z</time>
      </trkpt>
      <trkpt lat="47.22084" lon="7.57402">
        <ele>427.1</ele>
        <time>2022-10-01T11:24:29Z</time>
      </trkpt>
      <trkpt lat="47.22087" lon="7.57406">
        <ele>427.1</ele>
        <time>2022-10-01T11:24:30Z</time>
      </trkpt>
      <trkpt lat="47.2209" lon="7.57409">
        <ele>427.1</ele>
        <time>2022-10-01T11:24:31Z</time>
      </trkpt>
      <trkpt lat="47.22094" lon="7.57413">
        <ele>427.1</ele>
        <time>2022-10-01T11:24:32Z</time>
      </trkpt>
      <trkpt lat="47.22097" lon="7.57415">
        <ele>427.1</ele>
        <time>2022-10-01T11:24:33Z</time>
      </trkpt>
      <trkpt lat="47.221" lon="7.5742">
        <ele>427.2</ele>
        <time>2022-10-01T11:24:34Z</time>
      </trkpt>
      <trkpt lat="47.22103" lon="7.57423">
        <ele>427.2</ele>
        <time>2022-10-01T11:24:35Z</time>
      </trkpt>
      <trkpt lat="47.22107" lon="7.57427">
        <ele>427.2</ele>
        <time>2022-10-01T11:24:36Z</time>
      </trkpt>
      <trkpt lat="47.2211" lon="7.57431">
        <ele>427.2</ele>
        <time>2022-10-01T11:24:37Z</time>
      </trkpt>
      <trkpt lat="47.22114" lon="7.57434">
        <ele>427.2</ele>
        <time>2022-10-01T11:24:38Z</time>
      </trkpt>
      <trkpt lat="47.22117" lon="7.57438">
        <ele>427.2</ele>
        <time>2022-10-01T11:24:39Z</time>
      </trkpt>
      <trkpt lat="47.2212" lon="7.57441">
        <ele>427.2</ele>
        <time>2022-10-01T11:24:40Z</time>
      </trkpt>
      <trkpt lat="47.22123" lon="7.57445">
        <ele>427.3</ele>
        <time>2022-10-01T11:24:41Z</time>
      </trkpt>
      <trkpt lat="47.22127" lon="7.57449">
        <ele>427.3</ele>
        <time>2022-10-01T11:24:42Z</time>
      </trkpt>
      <trkpt lat="47.22131" lon="7.57452">
        <ele>427.3</ele>
        <time>2022-10-01T11:24:43Z</time>
      </trkpt>
      <trkpt lat="47.22133" lon="7.57456">
        <ele>427.4</ele>
        <time>2022-10-01T11:24:44Z</time>
      </trkpt>
      <trkpt lat="47.22138" lon="7.5746">
        <ele>427.4</ele>
        <time>2022-10-01T11:24:45Z</time>
      </trkpt>
      <trkpt lat="47.22141" lon="7.57464">
        <ele>427.4</ele>
        <time>2022-10-01T11:24:46Z</time>
      </trkpt>
      <trkpt lat="47.22144" lon="7.57468">
        <ele>427.5</ele>
        <time>2022-10-01T11:24:47Z</time>
      </trkpt>
      <trkpt lat="47.22148" lon="7.57472">
        <ele>427.5</ele>
        <time>2022-10-01T11:24:48Z</time>
      </trkpt>
      <trkpt lat="47.22151" lon="7.57475">
        <ele>427.5</ele>
        <time>2022-10-01T11:24:49Z</time>
      </trkpt>
      <trkpt lat="47.22155" lon="7.57479">
        <ele>427.5</ele>
        <time>2022-10-01T11:24:50Z</time>
      </trkpt>
      <trkpt lat="47.22157" lon="7.57483">
        <ele>427.6</ele>
        <time>2022-10-01T11:24:51Z</time>
      </trkpt>
      <trkpt lat="47.22161" lon="7.57486">
        <ele>427.6</ele>
        <time>2022-10-01T11:24:52Z</time>
      </trkpt>
      <trkpt lat="47.22164" lon="7.5749">
        <ele>427.6</ele>
        <time>2022-10-01T11:24:53Z</time>
      </trkpt>
      <trkpt lat="47.22168" lon="7.57494">
        <ele>427.6</ele>
        <time>2022-10-01T11:24:54Z</time>
      </trkpt>
      <trkpt lat="47.22172" lon="7.57498">
        <ele>427.7</ele>
        <time>2022-10-01T11:24:55Z</time>
      </trkpt>
      <trkpt lat="47.22175" lon="7.57501">
        <ele>427.7</ele>
        <time>2022-10-01T11:24:56Z</time>
      </trkpt>
      <trkpt lat="47.22179" lon="7.57505">
        <ele>427.7</ele>
        <time>2022-10-01T11:24:57Z</time>
      </trkpt>
      <trkpt lat="47.22182" lon="7.57509">
        <ele>427.7</ele>
        <time>2022-10-01T11:24:58Z</time>
      </trkpt>
      <trkpt lat="47.22186" lon="7.57513">
        <ele>427.7</ele>
        <time>2022-10-01T11:24:59Z</time>
      </trkpt>
      <trkpt lat="47.22189" lon="7.57517">
        <ele>427.7</ele>
        <time>2022-10-01T11:25:00Z</time>
      </trkpt>
      <trkpt lat="47.22193" lon="7.57521">
        <ele>427.7</ele>
        <time>2022-10-01T11:25:01Z</time>
      </trkpt>
      <trkpt lat="47.22197" lon="7.57525">
        <ele>427.8</ele>
        <time>2022-10-01T11:25:02Z</time>
      </trkpt>
      <trkpt lat="47.222" lon="7.57529">
        <ele>427.8</ele>
        <time>2022-10-01T11:25:03Z</time>
      </trkpt>
      <trkpt lat="47.22204" lon="7.57533">
        <ele>427.9</ele>
        <time>2022-10-01T11:25:04Z</time>
      </trkpt>
      <trkpt lat="47.22207" lon="7.57537">
        <ele>427.9</ele>
        <time>2022-10-01T11:25:05Z</time>
      </trkpt>
      <trkpt lat="47.22211" lon="7.57541">
        <ele>428</ele>
        <time>2022-10-01T11:25:06Z</time>
      </trkpt>
      <trkpt lat="47.22215" lon="7.57545">
        <ele>428</ele>
        <time>2022-10-01T11:25:07Z</time>
      </trkpt>
      <trkpt lat="47.22218" lon="7.57549">
        <ele>428.1</ele>
        <time>2022-10-01T11:25:08Z</time>
      </trkpt>
      <trkpt lat="47.22222" lon="7.57553">
        <ele>428.1</ele>
        <time>2022-10-01T11:25:09Z</time>
      </trkpt>
      <trkpt lat="47.22226" lon="7.57557">
        <ele>428.2</ele>
        <time>2022-10-01T11:25:10Z</time>
      </trkpt>
      <trkpt lat="47.22229" lon="7.5756">
        <ele>428.2</ele>
        <time>2022-10-01T11:25:11Z</time>
      </trkpt>
      <trkpt lat="47.22232" lon="7.57564">
        <ele>428.2</ele>
        <time>2022-10-01T11:25:12Z</time>
      </trkpt>
      <trkpt lat="47.22236" lon="7.57568">
        <ele>428.2</ele>
        <time>2022-10-01T11:25:13Z</time>
      </trkpt>
      <trkpt lat="47.22239" lon="7.57572">
        <ele>428.2</ele>
        <time>2022-10-01T11:25:14Z</time>
      </trkpt>
      <trkpt lat="47.22243" lon="7.57576">
        <ele>428.2</ele>
        <time>2022-10-01T11:25:15Z</time>
      </trkpt>
      <trkpt lat="47.22246" lon="7.5758">
        <ele>428.2</ele>
        <time>2022-10-01T11:25:16Z</time>
      </trkpt>
      <trkpt lat="47.2225" lon="7.57584">
        <ele>428.2</ele>
        <time>2022-10-01T11:25:17Z</time>
      </trkpt>
      <trkpt lat="47.22253" lon="7.57588">
        <ele>428.2</ele>
        <time>2022-10-01T11:25:18Z</time>
      </trkpt>
      <trkpt lat="47.22257" lon="7.57592">
        <ele>428.2</ele>
        <time>2022-10-01T11:25:19Z</time>
      </trkpt>
      <trkpt lat="47.22261" lon="7.57596">
        <ele>428.2</ele>
        <time>2022-10-01T11:25:20Z</time>
      </trkpt>
      <trkpt lat="47.22265" lon="7.576">
        <ele>428.2</ele>
        <time>2022-10-01T11:25:21Z</time>
      </trkpt>
      <trkpt lat="47.22268" lon="7.57604">
        <ele>428.2</ele>
        <time>2022-10-01T11:25:22Z</time>
      </trkpt>
      <trkpt lat="47.22271" lon="7.57608">
        <ele>428.2</ele>
        <time>2022-10-01T11:25:23Z</time>
      </trkpt>
      <trkpt lat="47.22275" lon="7.57612">
        <ele>428.2</ele>
        <time>2022-10-01T11:25:24Z</time>
      </trkpt>
      <trkpt lat="47.22279" lon="7.57616">
        <ele>428.2</ele>
        <time>2022-10-01T11:25:25Z</time>
      </trkpt>
      <trkpt lat="47.22283" lon="7.5762">
        <ele>428.2</ele>
        <time>2022-10-01T11:25:26Z</time>
      </trkpt>
      <trkpt lat="47.22287" lon="7.57625">
        <ele>428.1</ele>
        <time>2022-10-01T11:25:27Z</time>
      </trkpt>
      <trkpt lat="47.22291" lon="7.57629">
        <ele>428.1</ele>
        <time>2022-10-01T11:25:28Z</time>
      </trkpt>
      <trkpt lat="47.22294" lon="7.57633">
        <ele>428.1</ele>
        <time>2022-10-01T11:25:29Z</time>
      </trkpt>
      <trkpt lat="47.22298" lon="7.57637">
        <ele>428.1</ele>
        <time>2022-10-01T11:25:30Z</time>
      </trkpt>
      <trkpt lat="47.22302" lon="7.57641">
        <ele>428.1</ele>
        <time>2022-10-01T11:25:31Z</time>
      </trkpt>
      <trkpt lat="47.22306" lon="7.57645">
        <ele>428.1</ele>
        <time>2022-10-01T11:25:32Z</time>
      </trkpt>
      <trkpt lat="47.22309" lon="7.57649">
        <ele>428.2</ele>
        <time>2022-10-01T11:25:33Z</time>
      </trkpt>
      <trkpt lat="47.22314" lon="7.57654">
        <ele>428.2</ele>
        <time>2022-10-01T11:25:34Z</time>
      </trkpt>
      <trkpt lat="47.22317" lon="7.57658">
        <ele>428.2</ele>
        <time>2022-10-01T11:25:35Z</time>
      </trkpt>
      <trkpt lat="47.22322" lon="7.57662">
        <ele>428.2</ele>
        <time>2022-10-01T11:25:36Z</time>
      </trkpt>
      <trkpt lat="47.22325" lon="7.57666">
        <ele>428.2</ele>
        <time>2022-10-01T11:25:37Z</time>
      </trkpt>
      <trkpt lat="47.22329" lon="7.57671">
        <ele>428.2</ele>
        <time>2022-10-01T11:25:38Z</time>
      </trkpt>
      <trkpt lat="47.22333" lon="7.57675">
        <ele>428.2</ele>
        <time>2022-10-01T11:25:39Z</time>
      </trkpt>
      <trkpt lat="47.22336" lon="7.5768">
        <ele>428.2</ele>
        <time>2022-10-01T11:25:40Z</time>
      </trkpt>
      <trkpt lat="47.22339" lon="7.57685">
        <ele>428.3</ele>
        <time>2022-10-01T11:25:41Z</time>
      </trkpt>
      <trkpt lat="47.22342" lon="7.5769">
        <ele>428.3</ele>
        <time>2022-10-01T11:25:42Z</time>
      </trkpt>
      <trkpt lat="47.22346" lon="7.57694">
        <ele>428.3</ele>
        <time>2022-10-01T11:25:43Z</time>
      </trkpt>
      <trkpt lat="47.22349" lon="7.57698">
        <ele>428.3</ele>
        <time>2022-10-01T11:25:44Z</time>
      </trkpt>
      <trkpt lat="47.22353" lon="7.57703">
        <ele>428.3</ele>
        <time>2022-10-01T11:25:45Z</time>
      </trkpt>
      <trkpt lat="47.22356" lon="7.57708">
        <ele>428.4</ele>
        <time>2022-10-01T11:25:46Z</time>
      </trkpt>
      <trkpt lat="47.22359" lon="7.57712">
        <ele>428.4</ele>
        <time>2022-10-01T11:25:47Z</time>
      </trkpt>
      <trkpt lat="47.22362" lon="7.57717">
        <ele>428.4</ele>
        <time>2022-10-01T11:25:48Z</time>
      </trkpt>
      <trkpt lat="47.22365" lon="7.57722">
        <ele>428.4</ele>
        <time>2022-10-01T11:25:49Z</time>
      </trkpt>
      <trkpt lat="47.22368" lon="7.57727">
        <ele>428.4</ele>
        <time>2022-10-01T11:25:50Z</time>
      </trkpt>
      <trkpt lat="47.22371" lon="7.57733">
        <ele>428.4</ele>
        <time>2022-10-01T11:25:51Z</time>
      </trkpt>
      <trkpt lat="47.22374" lon="7.57738">
        <ele>428.4</ele>
        <time>2022-10-01T11:25:52Z</time>
      </trkpt>
      <trkpt lat="47.22376" lon="7.57743">
        <ele>428.4</ele>
        <time>2022-10-01T11:25:53Z</time>
      </trkpt>
      <trkpt lat="47.22379" lon="7.57749">
        <ele>428.4</ele>
        <time>2022-10-01T11:25:54Z</time>
      </trkpt>
      <trkpt lat="47.22382" lon="7.57754">
        <ele>428.4</ele>
        <time>2022-10-01T11:25:55Z</time>
      </trkpt>
      <trkpt lat="47.22384" lon="7.5776">
        <ele>428.4</ele>
        <time>2022-10-01T11:25:56Z</time>
      </trkpt>
      <trkpt lat="47.22386" lon="7.57765">
        <ele>428.5</ele>
        <time>2022-10-01T11:25:57Z</time>
      </trkpt>
      <trkpt lat="47.22389" lon="7.57771">
        <ele>428.5</ele>
        <time>2022-10-01T11:25:58Z</time>
      </trkpt>
      <trkpt lat="47.22391" lon="7.57776">
        <ele>428.5</ele>
        <time>2022-10-01T11:25:59Z</time>
      </trkpt>
      <trkpt lat="47.22393" lon="7.57782">
        <ele>428.5</ele>
        <time>2022-10-01T11:26:00Z</time>
      </trkpt>
      <trkpt lat="47.22396" lon="7.57787">
        <ele>428.6</ele>
        <time>2022-10-01T11:26:01Z</time>
      </trkpt>
      <trkpt lat="47.22398" lon="7.57793">
        <ele>428.6</ele>
        <time>2022-10-01T11:26:02Z</time>
      </trkpt>
      <trkpt lat="47.224" lon="7.57799">
        <ele>428.6</ele>
        <time>2022-10-01T11:26:03Z</time>
      </trkpt>
      <trkpt lat="47.22402" lon="7.57805">
        <ele>428.6</ele>
        <time>2022-10-01T11:26:04Z</time>
      </trkpt>
      <trkpt lat="47.22404" lon="7.57811">
        <ele>428.6</ele>
        <time>2022-10-01T11:26:05Z</time>
      </trkpt>
      <trkpt lat="47.22406" lon="7.57817">
        <ele>428.6</ele>
        <time>2022-10-01T11:26:06Z</time>
      </trkpt>
      <trkpt lat="47.22408" lon="7.57823">
        <ele>428.7</ele>
        <time>2022-10-01T11:26:07Z</time>
      </trkpt>
      <trkpt lat="47.22409" lon="7.5783">
        <ele>428.7</ele>
        <time>2022-10-01T11:26:08Z</time>
      </trkpt>
      <trkpt lat="47.22411" lon="7.57836">
        <ele>428.7</ele>
        <time>2022-10-01T11:26:09Z</time>
      </trkpt>
      <trkpt lat="47.22412" lon="7.57843">
        <ele>428.7</ele>
        <time>2022-10-01T11:26:10Z</time>
      </trkpt>
      <trkpt lat="47.22414" lon="7.57849">
        <ele>428.7</ele>
        <time>2022-10-01T11:26:11Z</time>
      </trkpt>
      <trkpt lat="47.22416" lon="7.57855">
        <ele>428.7</ele>
        <time>2022-10-01T11:26:12Z</time>
      </trkpt>
      <trkpt lat="47.22418" lon="7.57862">
        <ele>428.7</ele>
        <time>2022-10-01T11:26:13Z</time>
      </trkpt>
      <trkpt lat="47.2242" lon="7.57869">
        <ele>428.6</ele>
        <time>2022-10-01T11:26:14Z</time>
      </trkpt>
      <trkpt lat="47.22421" lon="7.57875">
        <ele>428.6</ele>
        <time>2022-10-01T11:26:15Z</time>
      </trkpt>
      <trkpt lat="47.22423" lon="7.57881">
        <ele>428.6</ele>
        <time>2022-10-01T11:26:16Z</time>
      </trkpt>
      <trkpt lat="47.22425" lon="7.57888">
        <ele>428.6</ele>
        <time>2022-10-01T11:26:17Z</time>
      </trkpt>
      <trkpt lat="47.22427" lon="7.57895">
        <ele>428.6</ele>
        <time>2022-10-01T11:26:18Z</time>
      </trkpt>
      <trkpt lat="47.22429" lon="7.57901">
        <ele>428.6</ele>
        <time>2022-10-01T11:26:19Z</time>
      </trkpt>
      <trkpt lat="47.22431" lon="7.57906">
        <ele>428.6</ele>
        <time>2022-10-01T11:26:20Z</time>
      </trkpt>
      <trkpt lat="47.22433" lon="7.57912">
        <ele>428.6</ele>
        <time>2022-10-01T11:26:21Z</time>
      </trkpt>
      <trkpt lat="47.22434" lon="7.57918">
        <ele>428.6</ele>
        <time>2022-10-01T11:26:22Z</time>
      </trkpt>
      <trkpt lat="47.22435" lon="7.57923">
        <ele>428.6</ele>
        <time>2022-10-01T11:26:23Z</time>
      </trkpt>
      <trkpt lat="47.22437" lon="7.57927">
        <ele>428.6</ele>
        <time>2022-10-01T11:26:24Z</time>
      </trkpt>
      <trkpt lat="47.22438" lon="7.57932">
        <ele>428.6</ele>
        <time>2022-10-01T11:26:25Z</time>
      </trkpt>
      <trkpt lat="47.2244" lon="7.57936">
        <ele>428.6</ele>
        <time>2022-10-01T11:26:26Z</time>
      </trkpt>
      <trkpt lat="47.22442" lon="7.57941">
        <ele>428.6</ele>
        <time>2022-10-01T11:26:27Z</time>
      </trkpt>
      <trkpt lat="47.22442" lon="7.57943">
        <ele>428.6</ele>
        <time>2022-10-01T11:26:28Z</time>
      </trkpt>
      <trkpt lat="47.22443" lon="7.57947">
        <ele>428.6</ele>
        <time>2022-10-01T11:26:29Z</time>
      </trkpt>
      <trkpt lat="47.22445" lon="7.57952">
        <ele>428.6</ele>
        <time>2022-10-01T11:26:30Z</time>
      </trkpt>
      <trkpt lat="47.22446" lon="7.57957">
        <ele>428.6</ele>
        <time>2022-10-01T11:26:31Z</time>
      </trkpt>
      <trkpt lat="47.22448" lon="7.57962">
        <ele>428.6</ele>
        <time>2022-10-01T11:26:32Z</time>
      </trkpt>
      <trkpt lat="47.2245" lon="7.57966">
        <ele>428.6</ele>
        <time>2022-10-01T11:26:33Z</time>
      </trkpt>
      <trkpt lat="47.22451" lon="7.5797">
        <ele>428.6</ele>
        <time>2022-10-01T11:26:34Z</time>
      </trkpt>
      <trkpt lat="47.22452" lon="7.57974">
        <ele>428.6</ele>
        <time>2022-10-01T11:26:35Z</time>
      </trkpt>
      <trkpt lat="47.22454" lon="7.57979">
        <ele>428.6</ele>
        <time>2022-10-01T11:26:36Z</time>
      </trkpt>
      <trkpt lat="47.22455" lon="7.57983">
        <ele>428.6</ele>
        <time>2022-10-01T11:26:37Z</time>
      </trkpt>
      <trkpt lat="47.22456" lon="7.57988">
        <ele>428.6</ele>
        <time>2022-10-01T11:26:38Z</time>
      </trkpt>
      <trkpt lat="47.22458" lon="7.57993">
        <ele>428.5</ele>
        <time>2022-10-01T11:26:39Z</time>
      </trkpt>
      <trkpt lat="47.22459" lon="7.57998">
        <ele>428.5</ele>
        <time>2022-10-01T11:26:40Z</time>
      </trkpt>
      <trkpt lat="47.2246" lon="7.58004">
        <ele>428.4</ele>
        <time>2022-10-01T11:26:41Z</time>
      </trkpt>
      <trkpt lat="47.22461" lon="7.5801">
        <ele>428.4</ele>
        <time>2022-10-01T11:26:42Z</time>
      </trkpt>
      <trkpt lat="47.22463" lon="7.58016">
        <ele>428.3</ele>
        <time>2022-10-01T11:26:43Z</time>
      </trkpt>
      <trkpt lat="47.22465" lon="7.58022">
        <ele>428.2</ele>
        <time>2022-10-01T11:26:44Z</time>
      </trkpt>
      <trkpt lat="47.22466" lon="7.58028">
        <ele>428.1</ele>
        <time>2022-10-01T11:26:45Z</time>
      </trkpt>
      <trkpt lat="47.22468" lon="7.58034">
        <ele>428</ele>
        <time>2022-10-01T11:26:46Z</time>
      </trkpt>
      <trkpt lat="47.22469" lon="7.58041">
        <ele>427.9</ele>
        <time>2022-10-01T11:26:47Z</time>
      </trkpt>
      <trkpt lat="47.22472" lon="7.58049">
        <ele>427.8</ele>
        <time>2022-10-01T11:26:48Z</time>
      </trkpt>
      <trkpt lat="47.22474" lon="7.58056">
        <ele>427.7</ele>
        <time>2022-10-01T11:26:49Z</time>
      </trkpt>
      <trkpt lat="47.22476" lon="7.58063">
        <ele>427.6</ele>
        <time>2022-10-01T11:26:50Z</time>
      </trkpt>
      <trkpt lat="47.22479" lon="7.58071">
        <ele>427.6</ele>
        <time>2022-10-01T11:26:51Z</time>
      </trkpt>
      <trkpt lat="47.22482" lon="7.58078">
        <ele>427.6</ele>
        <time>2022-10-01T11:26:52Z</time>
      </trkpt>
      <trkpt lat="47.22484" lon="7.58085">
        <ele>427.6</ele>
        <time>2022-10-01T11:26:53Z</time>
      </trkpt>
      <trkpt lat="47.22487" lon="7.58092">
        <ele>427.6</ele>
        <time>2022-10-01T11:26:54Z</time>
      </trkpt>
      <trkpt lat="47.2249" lon="7.58099">
        <ele>427.6</ele>
        <time>2022-10-01T11:26:55Z</time>
      </trkpt>
      <trkpt lat="47.22493" lon="7.58106">
        <ele>427.6</ele>
        <time>2022-10-01T11:26:56Z</time>
      </trkpt>
      <trkpt lat="47.22495" lon="7.58114">
        <ele>427.6</ele>
        <time>2022-10-01T11:26:57Z</time>
      </trkpt>
      <trkpt lat="47.22498" lon="7.58121">
        <ele>427.6</ele>
        <time>2022-10-01T11:26:58Z</time>
      </trkpt>
      <trkpt lat="47.225" lon="7.58129">
        <ele>427.5</ele>
        <time>2022-10-01T11:27:00Z</time>
      </trkpt>
      <trkpt lat="47.22502" lon="7.58136">
        <ele>427.5</ele>
        <time>2022-10-01T11:27:01Z</time>
      </trkpt>
      <trkpt lat="47.22505" lon="7.58144">
        <ele>427.5</ele>
        <time>2022-10-01T11:27:02Z</time>
      </trkpt>
      <trkpt lat="47.22507" lon="7.58151">
        <ele>427.5</ele>
        <time>2022-10-01T11:27:03Z</time>
      </trkpt>
      <trkpt lat="47.22509" lon="7.58159">
        <ele>427.5</ele>
        <time>2022-10-01T11:27:04Z</time>
      </trkpt>
      <trkpt lat="47.22512" lon="7.58166">
        <ele>427.5</ele>
        <time>2022-10-01T11:27:05Z</time>
      </trkpt>
      <trkpt lat="47.22514" lon="7.58174">
        <ele>427.5</ele>
        <time>2022-10-01T11:27:06Z</time>
      </trkpt>
      <trkpt lat="47.22516" lon="7.58181">
        <ele>427.4</ele>
        <time>2022-10-01T11:27:07Z</time>
      </trkpt>
      <trkpt lat="47.22518" lon="7.5819">
        <ele>427.4</ele>
        <time>2022-10-01T11:27:08Z</time>
      </trkpt>
      <trkpt lat="47.2252" lon="7.58197">
        <ele>427.3</ele>
        <time>2022-10-01T11:27:09Z</time>
      </trkpt>
      <trkpt lat="47.22522" lon="7.58204">
        <ele>427.3</ele>
        <time>2022-10-01T11:27:10Z</time>
      </trkpt>
      <trkpt lat="47.22525" lon="7.58212">
        <ele>427.2</ele>
        <time>2022-10-01T11:27:11Z</time>
      </trkpt>
      <trkpt lat="47.22527" lon="7.58219">
        <ele>427.2</ele>
        <time>2022-10-01T11:27:12Z</time>
      </trkpt>
      <trkpt lat="47.22529" lon="7.58227">
        <ele>427.1</ele>
        <time>2022-10-01T11:27:13Z</time>
      </trkpt>
      <trkpt lat="47.22531" lon="7.58235">
        <ele>427.1</ele>
        <time>2022-10-01T11:27:14Z</time>
      </trkpt>
      <trkpt lat="47.22533" lon="7.58243">
        <ele>427.1</ele>
        <time>2022-10-01T11:27:15Z</time>
      </trkpt>
      <trkpt lat="47.22536" lon="7.58251">
        <ele>427.1</ele>
        <time>2022-10-01T11:27:16Z</time>
      </trkpt>
      <trkpt lat="47.22538" lon="7.58258">
        <ele>427.1</ele>
        <time>2022-10-01T11:27:17Z</time>
      </trkpt>
      <trkpt lat="47.2254" lon="7.58266">
        <ele>427.1</ele>
        <time>2022-10-01T11:27:18Z</time>
      </trkpt>
      <trkpt lat="47.22545" lon="7.58281">
        <ele>427.1</ele>
        <time>2022-10-01T11:27:19Z</time>
      </trkpt>
      <trkpt lat="47.22547" lon="7.58289">
        <ele>427.2</ele>
        <time>2022-10-01T11:27:20Z</time>
      </trkpt>
      <trkpt lat="47.22549" lon="7.58296">
        <ele>427.3</ele>
        <time>2022-10-01T11:27:21Z</time>
      </trkpt>
      <trkpt lat="47.22551" lon="7.58304">
        <ele>427.4</ele>
        <time>2022-10-01T11:27:22Z</time>
      </trkpt>
      <trkpt lat="47.22553" lon="7.58311">
        <ele>427.5</ele>
        <time>2022-10-01T11:27:23Z</time>
      </trkpt>
      <trkpt lat="47.22556" lon="7.58318">
        <ele>427.6</ele>
        <time>2022-10-01T11:27:24Z</time>
      </trkpt>
      <trkpt lat="47.22558" lon="7.58324">
        <ele>427.7</ele>
        <time>2022-10-01T11:27:25Z</time>
      </trkpt>
      <trkpt lat="47.22561" lon="7.5833">
        <ele>427.7</ele>
        <time>2022-10-01T11:27:26Z</time>
      </trkpt>
      <trkpt lat="47.22563" lon="7.58336">
        <ele>427.8</ele>
        <time>2022-10-01T11:27:27Z</time>
      </trkpt>
      <trkpt lat="47.22567" lon="7.58341">
        <ele>427.8</ele>
        <time>2022-10-01T11:27:28Z</time>
      </trkpt>
      <trkpt lat="47.2257" lon="7.58346">
        <ele>427.8</ele>
        <time>2022-10-01T11:27:29Z</time>
      </trkpt>
      <trkpt lat="47.22573" lon="7.58351">
        <ele>427.9</ele>
        <time>2022-10-01T11:27:30Z</time>
      </trkpt>
      <trkpt lat="47.22578" lon="7.58355">
        <ele>427.9</ele>
        <time>2022-10-01T11:27:31Z</time>
      </trkpt>
      <trkpt lat="47.22582" lon="7.58361">
        <ele>427.9</ele>
        <time>2022-10-01T11:27:32Z</time>
      </trkpt>
      <trkpt lat="47.22585" lon="7.58365">
        <ele>427.8</ele>
        <time>2022-10-01T11:27:33Z</time>
      </trkpt>
      <trkpt lat="47.22588" lon="7.5837">
        <ele>427.8</ele>
        <time>2022-10-01T11:27:34Z</time>
      </trkpt>
      <trkpt lat="47.22592" lon="7.58376">
        <ele>427.8</ele>
        <time>2022-10-01T11:27:35Z</time>
      </trkpt>
      <trkpt lat="47.22596" lon="7.5838">
        <ele>427.8</ele>
        <time>2022-10-01T11:27:36Z</time>
      </trkpt>
      <trkpt lat="47.226" lon="7.58385">
        <ele>427.8</ele>
        <time>2022-10-01T11:27:37Z</time>
      </trkpt>
      <trkpt lat="47.22604" lon="7.58391">
        <ele>427.7</ele>
        <time>2022-10-01T11:27:38Z</time>
      </trkpt>
      <trkpt lat="47.22607" lon="7.58395">
        <ele>427.7</ele>
        <time>2022-10-01T11:27:39Z</time>
      </trkpt>
      <trkpt lat="47.22611" lon="7.584">
        <ele>427.7</ele>
        <time>2022-10-01T11:27:40Z</time>
      </trkpt>
      <trkpt lat="47.22616" lon="7.58405">
        <ele>427.7</ele>
        <time>2022-10-01T11:27:41Z</time>
      </trkpt>
      <trkpt lat="47.2262" lon="7.58409">
        <ele>427.7</ele>
        <time>2022-10-01T11:27:42Z</time>
      </trkpt>
      <trkpt lat="47.22624" lon="7.58413">
        <ele>427.7</ele>
        <time>2022-10-01T11:27:43Z</time>
      </trkpt>
      <trkpt lat="47.22627" lon="7.58415">
        <ele>427.7</ele>
        <time>2022-10-01T11:27:44Z</time>
      </trkpt>
      <trkpt lat="47.22631" lon="7.58417">
        <ele>427.7</ele>
        <time>2022-10-01T11:27:45Z</time>
      </trkpt>
      <trkpt lat="47.22633" lon="7.5842">
        <ele>427.6</ele>
        <time>2022-10-01T11:27:46Z</time>
      </trkpt>
      <trkpt lat="47.22634" lon="7.58421">
        <ele>427.6</ele>
        <time>2022-10-01T11:27:47Z</time>
      </trkpt>
      <trkpt lat="47.22636" lon="7.58425">
        <ele>427.6</ele>
        <time>2022-10-01T11:27:48Z</time>
      </trkpt>
      <trkpt lat="47.22639" lon="7.58428">
        <ele>427.6</ele>
        <time>2022-10-01T11:27:49Z</time>
      </trkpt>
      <trkpt lat="47.22641" lon="7.58432">
        <ele>427.5</ele>
        <time>2022-10-01T11:27:50Z</time>
      </trkpt>
      <trkpt lat="47.22643" lon="7.58436">
        <ele>427.4</ele>
        <time>2022-10-01T11:27:51Z</time>
      </trkpt>
      <trkpt lat="47.22645" lon="7.58439">
        <ele>427.3</ele>
        <time>2022-10-01T11:27:52Z</time>
      </trkpt>
      <trkpt lat="47.22646" lon="7.58444">
        <ele>427.2</ele>
        <time>2022-10-01T11:27:53Z</time>
      </trkpt>
      <trkpt lat="47.22647" lon="7.58446">
        <ele>427.1</ele>
        <time>2022-10-01T11:27:54Z</time>
      </trkpt>
      <trkpt lat="47.22649" lon="7.58451">
        <ele>427</ele>
        <time>2022-10-01T11:27:55Z</time>
      </trkpt>
      <trkpt lat="47.2265" lon="7.58456">
        <ele>426.9</ele>
        <time>2022-10-01T11:27:56Z</time>
      </trkpt>
      <trkpt lat="47.22652" lon="7.58461">
        <ele>426.9</ele>
        <time>2022-10-01T11:27:57Z</time>
      </trkpt>
      <trkpt lat="47.22653" lon="7.58468">
        <ele>426.8</ele>
        <time>2022-10-01T11:27:58Z</time>
      </trkpt>
      <trkpt lat="47.22655" lon="7.58473">
        <ele>426.8</ele>
        <time>2022-10-01T11:27:59Z</time>
      </trkpt>
      <trkpt lat="47.22656" lon="7.58478">
        <ele>426.7</ele>
        <time>2022-10-01T11:28:00Z</time>
      </trkpt>
      <trkpt lat="47.22659" lon="7.58484">
        <ele>426.7</ele>
        <time>2022-10-01T11:28:01Z</time>
      </trkpt>
      <trkpt lat="47.2266" lon="7.5849">
        <ele>426.7</ele>
        <time>2022-10-01T11:28:02Z</time>
      </trkpt>
      <trkpt lat="47.22662" lon="7.58496">
        <ele>426.7</ele>
        <time>2022-10-01T11:28:03Z</time>
      </trkpt>
      <trkpt lat="47.22665" lon="7.58501">
        <ele>426.7</ele>
        <time>2022-10-01T11:28:04Z</time>
      </trkpt>
      <trkpt lat="47.22667" lon="7.58509">
        <ele>426.7</ele>
        <time>2022-10-01T11:28:05Z</time>
      </trkpt>
      <trkpt lat="47.22668" lon="7.58515">
        <ele>426.7</ele>
        <time>2022-10-01T11:28:06Z</time>
      </trkpt>
      <trkpt lat="47.2267" lon="7.5852">
        <ele>426.7</ele>
        <time>2022-10-01T11:28:07Z</time>
      </trkpt>
      <trkpt lat="47.22672" lon="7.58527">
        <ele>426.7</ele>
        <time>2022-10-01T11:28:08Z</time>
      </trkpt>
      <trkpt lat="47.22673" lon="7.58533">
        <ele>426.7</ele>
        <time>2022-10-01T11:28:09Z</time>
      </trkpt>
      <trkpt lat="47.22674" lon="7.5854">
        <ele>426.7</ele>
        <time>2022-10-01T11:28:10Z</time>
      </trkpt>
      <trkpt lat="47.22676" lon="7.58545">
        <ele>426.7</ele>
        <time>2022-10-01T11:28:11Z</time>
      </trkpt>
      <trkpt lat="47.22678" lon="7.58551">
        <ele>426.7</ele>
        <time>2022-10-01T11:28:12Z</time>
      </trkpt>
      <trkpt lat="47.22681" lon="7.58557">
        <ele>426.7</ele>
        <time>2022-10-01T11:28:13Z</time>
      </trkpt>
      <trkpt lat="47.22682" lon="7.58563">
        <ele>426.8</ele>
        <time>2022-10-01T11:28:14Z</time>
      </trkpt>
      <trkpt lat="47.22684" lon="7.58569">
        <ele>426.8</ele>
        <time>2022-10-01T11:28:15Z</time>
      </trkpt>
      <trkpt lat="47.22685" lon="7.58575">
        <ele>426.8</ele>
        <time>2022-10-01T11:28:16Z</time>
      </trkpt>
      <trkpt lat="47.22687" lon="7.58581">
        <ele>426.8</ele>
        <time>2022-10-01T11:28:17Z</time>
      </trkpt>
      <trkpt lat="47.2269" lon="7.58587">
        <ele>426.8</ele>
        <time>2022-10-01T11:28:18Z</time>
      </trkpt>
      <trkpt lat="47.22691" lon="7.58593">
        <ele>426.8</ele>
        <time>2022-10-01T11:28:19Z</time>
      </trkpt>
      <trkpt lat="47.22692" lon="7.58598">
        <ele>426.7</ele>
        <time>2022-10-01T11:28:20Z</time>
      </trkpt>
      <trkpt lat="47.22694" lon="7.58604">
        <ele>426.7</ele>
        <time>2022-10-01T11:28:21Z</time>
      </trkpt>
      <trkpt lat="47.22695" lon="7.5861">
        <ele>426.7</ele>
        <time>2022-10-01T11:28:22Z</time>
      </trkpt>
      <trkpt lat="47.22696" lon="7.58614">
        <ele>426.7</ele>
        <time>2022-10-01T11:28:23Z</time>
      </trkpt>
      <trkpt lat="47.22697" lon="7.58621">
        <ele>426.6</ele>
        <time>2022-10-01T11:28:24Z</time>
      </trkpt>
      <trkpt lat="47.22698" lon="7.58627">
        <ele>426.6</ele>
        <time>2022-10-01T11:28:25Z</time>
      </trkpt>
      <trkpt lat="47.227" lon="7.58634">
        <ele>426.5</ele>
        <time>2022-10-01T11:28:26Z</time>
      </trkpt>
      <trkpt lat="47.227" lon="7.58641">
        <ele>426.5</ele>
        <time>2022-10-01T11:28:27Z</time>
      </trkpt>
      <trkpt lat="47.22701" lon="7.58648">
        <ele>426.5</ele>
        <time>2022-10-01T11:28:28Z</time>
      </trkpt>
      <trkpt lat="47.22702" lon="7.58653">
        <ele>426.5</ele>
        <time>2022-10-01T11:28:29Z</time>
      </trkpt>
      <trkpt lat="47.22703" lon="7.58658">
        <ele>426.5</ele>
        <time>2022-10-01T11:28:30Z</time>
      </trkpt>
      <trkpt lat="47.22705" lon="7.58662">
        <ele>426.5</ele>
        <time>2022-10-01T11:28:31Z</time>
      </trkpt>
      <trkpt lat="47.22706" lon="7.58667">
        <ele>426.5</ele>
        <time>2022-10-01T11:28:32Z</time>
      </trkpt>
      <trkpt lat="47.22708" lon="7.58671">
        <ele>426.5</ele>
        <time>2022-10-01T11:28:33Z</time>
      </trkpt>
      <trkpt lat="47.22709" lon="7.58676">
        <ele>426.5</ele>
        <time>2022-10-01T11:28:34Z</time>
      </trkpt>
      <trkpt lat="47.22711" lon="7.5868">
        <ele>426.5</ele>
        <time>2022-10-01T11:28:35Z</time>
      </trkpt>
      <trkpt lat="47.22713" lon="7.58685">
        <ele>426.4</ele>
        <time>2022-10-01T11:28:36Z</time>
      </trkpt>
      <trkpt lat="47.22714" lon="7.5869">
        <ele>426.4</ele>
        <time>2022-10-01T11:28:37Z</time>
      </trkpt>
      <trkpt lat="47.22716" lon="7.58694">
        <ele>426.4</ele>
        <time>2022-10-01T11:28:38Z</time>
      </trkpt>
      <trkpt lat="47.22718" lon="7.587">
        <ele>426.4</ele>
        <time>2022-10-01T11:28:39Z</time>
      </trkpt>
      <trkpt lat="47.22719" lon="7.58705">
        <ele>426.4</ele>
        <time>2022-10-01T11:28:40Z</time>
      </trkpt>
      <trkpt lat="47.22722" lon="7.5871">
        <ele>426.4</ele>
        <time>2022-10-01T11:28:41Z</time>
      </trkpt>
      <trkpt lat="47.22724" lon="7.58716">
        <ele>426.4</ele>
        <time>2022-10-01T11:28:42Z</time>
      </trkpt>
      <trkpt lat="47.22725" lon="7.58722">
        <ele>426.4</ele>
        <time>2022-10-01T11:28:43Z</time>
      </trkpt>
      <trkpt lat="47.22727" lon="7.58728">
        <ele>426.4</ele>
        <time>2022-10-01T11:28:44Z</time>
      </trkpt>
      <trkpt lat="47.22729" lon="7.58732">
        <ele>426.4</ele>
        <time>2022-10-01T11:28:45Z</time>
      </trkpt>
      <trkpt lat="47.22731" lon="7.58737">
        <ele>426.4</ele>
        <time>2022-10-01T11:28:46Z</time>
      </trkpt>
      <trkpt lat="47.22732" lon="7.58742">
        <ele>426.4</ele>
        <time>2022-10-01T11:28:47Z</time>
      </trkpt>
      <trkpt lat="47.22733" lon="7.58746">
        <ele>426.4</ele>
        <time>2022-10-01T11:28:48Z</time>
      </trkpt>
      <trkpt lat="47.22733" lon="7.58747">
        <ele>426.4</ele>
        <time>2022-10-01T11:28:49Z</time>
      </trkpt>
      <trkpt lat="47.22734" lon="7.58754">
        <ele>426.5</ele>
        <time>2022-10-01T11:28:50Z</time>
      </trkpt>
      <trkpt lat="47.22736" lon="7.5876">
        <ele>426.5</ele>
        <time>2022-10-01T11:28:51Z</time>
      </trkpt>
      <trkpt lat="47.22737" lon="7.58764">
        <ele>426.5</ele>
        <time>2022-10-01T11:28:52Z</time>
      </trkpt>
      <trkpt lat="47.22738" lon="7.58772">
        <ele>426.6</ele>
        <time>2022-10-01T11:28:53Z</time>
      </trkpt>
      <trkpt lat="47.22738" lon="7.58777">
        <ele>426.6</ele>
        <time>2022-10-01T11:28:54Z</time>
      </trkpt>
      <trkpt lat="47.22738" lon="7.58783">
        <ele>426.6</ele>
        <time>2022-10-01T11:28:55Z</time>
      </trkpt>
      <trkpt lat="47.22738" lon="7.58789">
        <ele>426.7</ele>
        <time>2022-10-01T11:28:56Z</time>
      </trkpt>
      <trkpt lat="47.22739" lon="7.58794">
        <ele>426.7</ele>
        <time>2022-10-01T11:28:57Z</time>
      </trkpt>
      <trkpt lat="47.22741" lon="7.58799">
        <ele>426.6</ele>
        <time>2022-10-01T11:28:58Z</time>
      </trkpt>
      <trkpt lat="47.22743" lon="7.58804">
        <ele>426.6</ele>
        <time>2022-10-01T11:28:59Z</time>
      </trkpt>
      <trkpt lat="47.22744" lon="7.5881">
        <ele>426.6</ele>
        <time>2022-10-01T11:29:00Z</time>
      </trkpt>
      <trkpt lat="47.22745" lon="7.58814">
        <ele>426.6</ele>
        <time>2022-10-01T11:29:01Z</time>
      </trkpt>
      <trkpt lat="47.22747" lon="7.58819">
        <ele>426.6</ele>
        <time>2022-10-01T11:29:02Z</time>
      </trkpt>
      <trkpt lat="47.22749" lon="7.58823">
        <ele>426.6</ele>
        <time>2022-10-01T11:29:03Z</time>
      </trkpt>
      <trkpt lat="47.22751" lon="7.58827">
        <ele>426.5</ele>
        <time>2022-10-01T11:29:04Z</time>
      </trkpt>
      <trkpt lat="47.22753" lon="7.58831">
        <ele>426.5</ele>
        <time>2022-10-01T11:29:06Z</time>
      </trkpt>
      <trkpt lat="47.22756" lon="7.58835">
        <ele>426.5</ele>
        <time>2022-10-01T11:29:07Z</time>
      </trkpt>
      <trkpt lat="47.22759" lon="7.58839">
        <ele>426.5</ele>
        <time>2022-10-01T11:29:08Z</time>
      </trkpt>
      <trkpt lat="47.22762" lon="7.58843">
        <ele>426.5</ele>
        <time>2022-10-01T11:29:09Z</time>
      </trkpt>
      <trkpt lat="47.22765" lon="7.58846">
        <ele>426.5</ele>
        <time>2022-10-01T11:29:10Z</time>
      </trkpt>
      <trkpt lat="47.22768" lon="7.5885">
        <ele>426.5</ele>
        <time>2022-10-01T11:29:11Z</time>
      </trkpt>
      <trkpt lat="47.22771" lon="7.58854">
        <ele>426.5</ele>
        <time>2022-10-01T11:29:12Z</time>
      </trkpt>
      <trkpt lat="47.22774" lon="7.58858">
        <ele>426.5</ele>
        <time>2022-10-01T11:29:13Z</time>
      </trkpt>
      <trkpt lat="47.22777" lon="7.58862">
        <ele>426.5</ele>
        <time>2022-10-01T11:29:14Z</time>
      </trkpt>
      <trkpt lat="47.2278" lon="7.58867">
        <ele>426.4</ele>
        <time>2022-10-01T11:29:15Z</time>
      </trkpt>
      <trkpt lat="47.22784" lon="7.58871">
        <ele>426.4</ele>
        <time>2022-10-01T11:29:16Z</time>
      </trkpt>
      <trkpt lat="47.22786" lon="7.58876">
        <ele>426.4</ele>
        <time>2022-10-01T11:29:17Z</time>
      </trkpt>
      <trkpt lat="47.22788" lon="7.58882">
        <ele>426.4</ele>
        <time>2022-10-01T11:29:18Z</time>
      </trkpt>
      <trkpt lat="47.22791" lon="7.58888">
        <ele>426.4</ele>
        <time>2022-10-01T11:29:19Z</time>
      </trkpt>
      <trkpt lat="47.22793" lon="7.58893">
        <ele>426.4</ele>
        <time>2022-10-01T11:29:20Z</time>
      </trkpt>
      <trkpt lat="47.22796" lon="7.58899">
        <ele>426.3</ele>
        <time>2022-10-01T11:29:21Z</time>
      </trkpt>
      <trkpt lat="47.22799" lon="7.58904">
        <ele>426.3</ele>
        <time>2022-10-01T11:29:22Z</time>
      </trkpt>
      <trkpt lat="47.22801" lon="7.58909">
        <ele>426.3</ele>
        <time>2022-10-01T11:29:23Z</time>
      </trkpt>
      <trkpt lat="47.22803" lon="7.58915">
        <ele>426.3</ele>
        <time>2022-10-01T11:29:24Z</time>
      </trkpt>
      <trkpt lat="47.22805" lon="7.58921">
        <ele>426.3</ele>
        <time>2022-10-01T11:29:25Z</time>
      </trkpt>
      <trkpt lat="47.22808" lon="7.58927">
        <ele>426.3</ele>
        <time>2022-10-01T11:29:26Z</time>
      </trkpt>
      <trkpt lat="47.22811" lon="7.58933">
        <ele>426.3</ele>
        <time>2022-10-01T11:29:27Z</time>
      </trkpt>
      <trkpt lat="47.22814" lon="7.58939">
        <ele>426.3</ele>
        <time>2022-10-01T11:29:28Z</time>
      </trkpt>
      <trkpt lat="47.22817" lon="7.58945">
        <ele>426.3</ele>
        <time>2022-10-01T11:29:29Z</time>
      </trkpt>
      <trkpt lat="47.2282" lon="7.58951">
        <ele>426.3</ele>
        <time>2022-10-01T11:29:30Z</time>
      </trkpt>
      <trkpt lat="47.22824" lon="7.58966">
        <ele>426.1</ele>
        <time>2022-10-01T11:29:31Z</time>
      </trkpt>
      <trkpt lat="47.22827" lon="7.58972">
        <ele>426.1</ele>
        <time>2022-10-01T11:29:32Z</time>
      </trkpt>
      <trkpt lat="47.22829" lon="7.5898">
        <ele>426</ele>
        <time>2022-10-01T11:29:33Z</time>
      </trkpt>
      <trkpt lat="47.22832" lon="7.58987">
        <ele>425.9</ele>
        <time>2022-10-01T11:29:34Z</time>
      </trkpt>
      <trkpt lat="47.22834" lon="7.58993">
        <ele>425.9</ele>
        <time>2022-10-01T11:29:35Z</time>
      </trkpt>
      <trkpt lat="47.22836" lon="7.58999">
        <ele>425.8</ele>
        <time>2022-10-01T11:29:36Z</time>
      </trkpt>
      <trkpt lat="47.22838" lon="7.59006">
        <ele>425.8</ele>
        <time>2022-10-01T11:29:37Z</time>
      </trkpt>
      <trkpt lat="47.2284" lon="7.59012">
        <ele>425.7</ele>
        <time>2022-10-01T11:29:38Z</time>
      </trkpt>
      <trkpt lat="47.2284" lon="7.59018">
        <ele>425.7</ele>
        <time>2022-10-01T11:29:39Z</time>
      </trkpt>
      <trkpt lat="47.22841" lon="7.59023">
        <ele>425.7</ele>
        <time>2022-10-01T11:29:40Z</time>
      </trkpt>
      <trkpt lat="47.22841" lon="7.59029">
        <ele>425.7</ele>
        <time>2022-10-01T11:29:41Z</time>
      </trkpt>
      <trkpt lat="47.22841" lon="7.59033">
        <ele>425.7</ele>
        <time>2022-10-01T11:29:42Z</time>
      </trkpt>
      <trkpt lat="47.22842" lon="7.59038">
        <ele>425.7</ele>
        <time>2022-10-01T11:29:43Z</time>
      </trkpt>
      <trkpt lat="47.22842" lon="7.5904">
        <ele>425.7</ele>
        <time>2022-10-01T11:29:44Z</time>
      </trkpt>
      <trkpt lat="47.22843" lon="7.59041">
        <ele>425.7</ele>
        <time>2022-10-01T11:29:45Z</time>
      </trkpt>
      <trkpt lat="47.22843" lon="7.5904">
        <ele>425.7</ele>
        <time>2022-10-01T11:29:46Z</time>
      </trkpt>
      <trkpt lat="47.22842" lon="7.59039">
        <ele>425.7</ele>
        <time>2022-10-01T11:29:47Z</time>
      </trkpt>
      <trkpt lat="47.22842" lon="7.59038">
        <ele>425.7</ele>
        <time>2022-10-01T11:29:48Z</time>
      </trkpt>
      <trkpt lat="47.22842" lon="7.59037">
        <ele>425.7</ele>
        <time>2022-10-01T11:29:49Z</time>
      </trkpt>
      <trkpt lat="47.22842" lon="7.59036">
        <ele>425.7</ele>
        <time>2022-10-01T11:29:50Z</time>
      </trkpt>
      <trkpt lat="47.22842" lon="7.59035">
        <ele>425.7</ele>
        <time>2022-10-01T11:29:51Z</time>
      </trkpt>
      <trkpt lat="47.22842" lon="7.59035">
        <ele>425.7</ele>
        <time>2022-10-01T11:29:52Z</time>
      </trkpt>
      <trkpt lat="47.22842" lon="7.59034">
        <ele>425.7</ele>
        <time>2022-10-01T11:29:53Z</time>
      </trkpt>
      <trkpt lat="47.22842" lon="7.59033">
        <ele>425.7</ele>
        <time>2022-10-01T11:29:54Z</time>
      </trkpt>
      <trkpt lat="47.22842" lon="7.59032">
        <ele>425.7</ele>
        <time>2022-10-01T11:29:55Z</time>
      </trkpt>
      <trkpt lat="47.22842" lon="7.59031">
        <ele>425.7</ele>
        <time>2022-10-01T11:29:56Z</time>
      </trkpt>
      <trkpt lat="47.22842" lon="7.5903">
        <ele>425.7</ele>
        <time>2022-10-01T11:30:32Z</time>
      </trkpt>
      <trkpt lat="47.22842" lon="7.59029">
        <ele>425.8</ele>
        <time>2022-10-01T11:30:33Z</time>
      </trkpt>
      <trkpt lat="47.22841" lon="7.59025">
        <ele>425.8</ele>
        <time>2022-10-01T11:30:34Z</time>
      </trkpt>
      <trkpt lat="47.22841" lon="7.59023">
        <ele>425.8</ele>
        <time>2022-10-01T11:30:35Z</time>
      </trkpt>
      <trkpt lat="47.22842" lon="7.59017">
        <ele>425.8</ele>
        <time>2022-10-01T11:30:36Z</time>
      </trkpt>
      <trkpt lat="47.22843" lon="7.59015">
        <ele>425.8</ele>
        <time>2022-10-01T11:30:37Z</time>
      </trkpt>
      <trkpt lat="47.22841" lon="7.59011">
        <ele>425.8</ele>
        <time>2022-10-01T11:30:38Z</time>
      </trkpt>
      <trkpt lat="47.2284" lon="7.59006">
        <ele>425.8</ele>
        <time>2022-10-01T11:30:39Z</time>
      </trkpt>
      <trkpt lat="47.22838" lon="7.59001">
        <ele>425.9</ele>
        <time>2022-10-01T11:30:40Z</time>
      </trkpt>
      <trkpt lat="47.22837" lon="7.58998">
        <ele>425.9</ele>
        <time>2022-10-01T11:30:41Z</time>
      </trkpt>
      <trkpt lat="47.22836" lon="7.58994">
        <ele>425.9</ele>
        <time>2022-10-01T11:30:42Z</time>
      </trkpt>
      <trkpt lat="47.22834" lon="7.58988">
        <ele>425.9</ele>
        <time>2022-10-01T11:30:43Z</time>
      </trkpt>
      <trkpt lat="47.22834" lon="7.58986">
        <ele>426</ele>
        <time>2022-10-01T11:30:44Z</time>
      </trkpt>
      <trkpt lat="47.22832" lon="7.58981">
        <ele>426</ele>
        <time>2022-10-01T11:30:45Z</time>
      </trkpt>
      <trkpt lat="47.2283" lon="7.58977">
        <ele>426</ele>
        <time>2022-10-01T11:30:46Z</time>
      </trkpt>
      <trkpt lat="47.22829" lon="7.58973">
        <ele>426.1</ele>
        <time>2022-10-01T11:30:47Z</time>
      </trkpt>
      <trkpt lat="47.22828" lon="7.58969">
        <ele>426.1</ele>
        <time>2022-10-01T11:30:48Z</time>
      </trkpt>
      <trkpt lat="47.22826" lon="7.58965">
        <ele>426.1</ele>
        <time>2022-10-01T11:30:49Z</time>
      </trkpt>
      <trkpt lat="47.22824" lon="7.58963">
        <ele>426.1</ele>
        <time>2022-10-01T11:30:50Z</time>
      </trkpt>
      <trkpt lat="47.22821" lon="7.58962">
        <ele>426.2</ele>
        <time>2022-10-01T11:30:51Z</time>
      </trkpt>
      <trkpt lat="47.22818" lon="7.58962">
        <ele>426.1</ele>
        <time>2022-10-01T11:30:52Z</time>
      </trkpt>
      <trkpt lat="47.22815" lon="7.58963">
        <ele>426</ele>
        <time>2022-10-01T11:30:53Z</time>
      </trkpt>
      <trkpt lat="47.22811" lon="7.58966">
        <ele>425.9</ele>
        <time>2022-10-01T11:30:54Z</time>
      </trkpt>
      <trkpt lat="47.2281" lon="7.58967">
        <ele>425.8</ele>
        <time>2022-10-01T11:30:55Z</time>
      </trkpt>
      <trkpt lat="47.22808" lon="7.58971">
        <ele>425.7</ele>
        <time>2022-10-01T11:30:56Z</time>
      </trkpt>
      <trkpt lat="47.22807" lon="7.58972">
        <ele>425.7</ele>
        <time>2022-10-01T11:30:57Z</time>
      </trkpt>
      <trkpt lat="47.22805" lon="7.58976">
        <ele>425.6</ele>
        <time>2022-10-01T11:30:58Z</time>
      </trkpt>
      <trkpt lat="47.22804" lon="7.5898">
        <ele>425.5</ele>
        <time>2022-10-01T11:30:59Z</time>
      </trkpt>
      <trkpt lat="47.22804" lon="7.58984">
        <ele>425.4</ele>
        <time>2022-10-01T11:31:00Z</time>
      </trkpt>
      <trkpt lat="47.22804" lon="7.58989">
        <ele>425.2</ele>
        <time>2022-10-01T11:31:01Z</time>
      </trkpt>
      <trkpt lat="47.22804" lon="7.58995">
        <ele>425.1</ele>
        <time>2022-10-01T11:31:02Z</time>
      </trkpt>
      <trkpt lat="47.22804" lon="7.58998">
        <ele>425</ele>
        <time>2022-10-01T11:31:03Z</time>
      </trkpt>
      <trkpt lat="47.22805" lon="7.59004">
        <ele>424.8</ele>
        <time>2022-10-01T11:31:04Z</time>
      </trkpt>
      <trkpt lat="47.22806" lon="7.59006">
        <ele>424.7</ele>
        <time>2022-10-01T11:31:05Z</time>
      </trkpt>
      <trkpt lat="47.22807" lon="7.59011">
        <ele>424.6</ele>
        <time>2022-10-01T11:31:06Z</time>
      </trkpt>
      <trkpt lat="47.22808" lon="7.59016">
        <ele>424.4</ele>
        <time>2022-10-01T11:31:07Z</time>
      </trkpt>
      <trkpt lat="47.2281" lon="7.59021">
        <ele>424.3</ele>
        <time>2022-10-01T11:31:08Z</time>
      </trkpt>
      <trkpt lat="47.22812" lon="7.59025">
        <ele>424.1</ele>
        <time>2022-10-01T11:31:09Z</time>
      </trkpt>
      <trkpt lat="47.22813" lon="7.5903">
        <ele>424</ele>
        <time>2022-10-01T11:31:10Z</time>
      </trkpt>
      <trkpt lat="47.22815" lon="7.59035">
        <ele>423.8</ele>
        <time>2022-10-01T11:31:12Z</time>
      </trkpt>
      <trkpt lat="47.22817" lon="7.5904">
        <ele>423.7</ele>
        <time>2022-10-01T11:31:13Z</time>
      </trkpt>
      <trkpt lat="47.22818" lon="7.59044">
        <ele>423.5</ele>
        <time>2022-10-01T11:31:14Z</time>
      </trkpt>
      <trkpt lat="47.2282" lon="7.59047">
        <ele>423.4</ele>
        <time>2022-10-01T11:31:15Z</time>
      </trkpt>
      <trkpt lat="47.22823" lon="7.59051">
        <ele>423.3</ele>
        <time>2022-10-01T11:31:16Z</time>
      </trkpt>
      <trkpt lat="47.22824" lon="7.59053">
        <ele>423.3</ele>
        <time>2022-10-01T11:31:17Z</time>
      </trkpt>
      <trkpt lat="47.22826" lon="7.59056">
        <ele>423.2</ele>
        <time>2022-10-01T11:31:18Z</time>
      </trkpt>
      <trkpt lat="47.2283" lon="7.59058">
        <ele>423.1</ele>
        <time>2022-10-01T11:31:19Z</time>
      </trkpt>
      <trkpt lat="47.22832" lon="7.59059">
        <ele>423</ele>
        <time>2022-10-01T11:31:20Z</time>
      </trkpt>
      <trkpt lat="47.22835" lon="7.5906">
        <ele>422.9</ele>
        <time>2022-10-01T11:31:21Z</time>
      </trkpt>
      <trkpt lat="47.22839" lon="7.5906">
        <ele>422.8</ele>
        <time>2022-10-01T11:31:22Z</time>
      </trkpt>
      <trkpt lat="47.22843" lon="7.59061">
        <ele>422.7</ele>
        <time>2022-10-01T11:31:23Z</time>
      </trkpt>
      <trkpt lat="47.22847" lon="7.59067">
        <ele>422.6</ele>
        <time>2022-10-01T11:31:24Z</time>
      </trkpt>
      <trkpt lat="47.22851" lon="7.59071">
        <ele>422.5</ele>
        <time>2022-10-01T11:31:25Z</time>
      </trkpt>
      <trkpt lat="47.22853" lon="7.59076">
        <ele>422.4</ele>
        <time>2022-10-01T11:31:26Z</time>
      </trkpt>
      <trkpt lat="47.22856" lon="7.59082">
        <ele>422.4</ele>
        <time>2022-10-01T11:31:27Z</time>
      </trkpt>
      <trkpt lat="47.22859" lon="7.59086">
        <ele>422.3</ele>
        <time>2022-10-01T11:31:28Z</time>
      </trkpt>
      <trkpt lat="47.22862" lon="7.59091">
        <ele>422.3</ele>
        <time>2022-10-01T11:31:29Z</time>
      </trkpt>
      <trkpt lat="47.22864" lon="7.59097">
        <ele>422.2</ele>
        <time>2022-10-01T11:31:30Z</time>
      </trkpt>
      <trkpt lat="47.22867" lon="7.59102">
        <ele>422.2</ele>
        <time>2022-10-01T11:31:31Z</time>
      </trkpt>
      <trkpt lat="47.22868" lon="7.59108">
        <ele>422.2</ele>
        <time>2022-10-01T11:31:32Z</time>
      </trkpt>
      <trkpt lat="47.22871" lon="7.59114">
        <ele>422.2</ele>
        <time>2022-10-01T11:31:33Z</time>
      </trkpt>
      <trkpt lat="47.22873" lon="7.5912">
        <ele>422.1</ele>
        <time>2022-10-01T11:31:34Z</time>
      </trkpt>
      <trkpt lat="47.22875" lon="7.59124">
        <ele>422.1</ele>
        <time>2022-10-01T11:31:35Z</time>
      </trkpt>
      <trkpt lat="47.22877" lon="7.59137">
        <ele>422.1</ele>
        <time>2022-10-01T11:31:36Z</time>
      </trkpt>
      <trkpt lat="47.22878" lon="7.59143">
        <ele>422.1</ele>
        <time>2022-10-01T11:31:37Z</time>
      </trkpt>
      <trkpt lat="47.22879" lon="7.5915">
        <ele>422.1</ele>
        <time>2022-10-01T11:31:38Z</time>
      </trkpt>
      <trkpt lat="47.2288" lon="7.59156">
        <ele>422.1</ele>
        <time>2022-10-01T11:31:39Z</time>
      </trkpt>
      <trkpt lat="47.22881" lon="7.59161">
        <ele>422.1</ele>
        <time>2022-10-01T11:31:40Z</time>
      </trkpt>
      <trkpt lat="47.22883" lon="7.59168">
        <ele>422.1</ele>
        <time>2022-10-01T11:31:41Z</time>
      </trkpt>
      <trkpt lat="47.22885" lon="7.59175">
        <ele>422.1</ele>
        <time>2022-10-01T11:31:42Z</time>
      </trkpt>
      <trkpt lat="47.22886" lon="7.59181">
        <ele>422.1</ele>
        <time>2022-10-01T11:31:43Z</time>
      </trkpt>
      <trkpt lat="47.22887" lon="7.59187">
        <ele>422.1</ele>
        <time>2022-10-01T11:31:44Z</time>
      </trkpt>
      <trkpt lat="47.22889" lon="7.59194">
        <ele>422.1</ele>
        <time>2022-10-01T11:31:45Z</time>
      </trkpt>
      <trkpt lat="47.2289" lon="7.592">
        <ele>422.1</ele>
        <time>2022-10-01T11:31:46Z</time>
      </trkpt>
      <trkpt lat="47.22891" lon="7.59206">
        <ele>422.1</ele>
        <time>2022-10-01T11:31:47Z</time>
      </trkpt>
      <trkpt lat="47.22893" lon="7.59212">
        <ele>422.1</ele>
        <time>2022-10-01T11:31:48Z</time>
      </trkpt>
      <trkpt lat="47.22895" lon="7.59218">
        <ele>422.2</ele>
        <time>2022-10-01T11:31:49Z</time>
      </trkpt>
      <trkpt lat="47.22896" lon="7.59224">
        <ele>422.2</ele>
        <time>2022-10-01T11:31:50Z</time>
      </trkpt>
      <trkpt lat="47.22897" lon="7.5923">
        <ele>422.2</ele>
        <time>2022-10-01T11:31:51Z</time>
      </trkpt>
      <trkpt lat="47.22899" lon="7.59236">
        <ele>422.2</ele>
        <time>2022-10-01T11:31:52Z</time>
      </trkpt>
      <trkpt lat="47.22901" lon="7.59242">
        <ele>422.2</ele>
        <time>2022-10-01T11:31:53Z</time>
      </trkpt>
      <trkpt lat="47.22902" lon="7.59247">
        <ele>422.2</ele>
        <time>2022-10-01T11:31:54Z</time>
      </trkpt>
      <trkpt lat="47.22904" lon="7.59253">
        <ele>422.2</ele>
        <time>2022-10-01T11:31:55Z</time>
      </trkpt>
      <trkpt lat="47.22906" lon="7.59259">
        <ele>422.2</ele>
        <time>2022-10-01T11:31:56Z</time>
      </trkpt>
      <trkpt lat="47.22907" lon="7.59265">
        <ele>422.3</ele>
        <time>2022-10-01T11:31:57Z</time>
      </trkpt>
      <trkpt lat="47.2291" lon="7.59271">
        <ele>422.3</ele>
        <time>2022-10-01T11:31:58Z</time>
      </trkpt>
      <trkpt lat="47.22912" lon="7.59278">
        <ele>422.3</ele>
        <time>2022-10-01T11:31:59Z</time>
      </trkpt>
      <trkpt lat="47.22913" lon="7.59284">
        <ele>422.3</ele>
        <time>2022-10-01T11:32:00Z</time>
      </trkpt>
      <trkpt lat="47.22915" lon="7.5929">
        <ele>422.3</ele>
        <time>2022-10-01T11:32:01Z</time>
      </trkpt>
      <trkpt lat="47.22917" lon="7.59296">
        <ele>422.3</ele>
        <time>2022-10-01T11:32:02Z</time>
      </trkpt>
      <trkpt lat="47.22919" lon="7.59303">
        <ele>422.3</ele>
        <time>2022-10-01T11:32:03Z</time>
      </trkpt>
      <trkpt lat="47.22922" lon="7.59308">
        <ele>422.3</ele>
        <time>2022-10-01T11:32:04Z</time>
      </trkpt>
      <trkpt lat="47.22922" lon="7.59316">
        <ele>422.3</ele>
        <time>2022-10-01T11:32:05Z</time>
      </trkpt>
      <trkpt lat="47.22925" lon="7.59321">
        <ele>422.3</ele>
        <time>2022-10-01T11:32:06Z</time>
      </trkpt>
      <trkpt lat="47.22927" lon="7.59327">
        <ele>422.3</ele>
        <time>2022-10-01T11:32:07Z</time>
      </trkpt>
      <trkpt lat="47.22928" lon="7.59333">
        <ele>422.3</ele>
        <time>2022-10-01T11:32:08Z</time>
      </trkpt>
      <trkpt lat="47.2293" lon="7.59339">
        <ele>422.3</ele>
        <time>2022-10-01T11:32:09Z</time>
      </trkpt>
      <trkpt lat="47.22933" lon="7.59346">
        <ele>422.3</ele>
        <time>2022-10-01T11:32:10Z</time>
      </trkpt>
      <trkpt lat="47.22935" lon="7.59351">
        <ele>422.3</ele>
        <time>2022-10-01T11:32:11Z</time>
      </trkpt>
      <trkpt lat="47.22936" lon="7.59357">
        <ele>422.2</ele>
        <time>2022-10-01T11:32:12Z</time>
      </trkpt>
      <trkpt lat="47.22938" lon="7.59363">
        <ele>422.2</ele>
        <time>2022-10-01T11:32:13Z</time>
      </trkpt>
      <trkpt lat="47.22939" lon="7.59369">
        <ele>422.2</ele>
        <time>2022-10-01T11:32:14Z</time>
      </trkpt>
      <trkpt lat="47.2294" lon="7.59375">
        <ele>422.2</ele>
        <time>2022-10-01T11:32:15Z</time>
      </trkpt>
      <trkpt lat="47.22943" lon="7.59381">
        <ele>422.2</ele>
        <time>2022-10-01T11:32:16Z</time>
      </trkpt>
      <trkpt lat="47.22945" lon="7.59388">
        <ele>422.2</ele>
        <time>2022-10-01T11:32:17Z</time>
      </trkpt>
      <trkpt lat="47.22946" lon="7.59394">
        <ele>422.2</ele>
        <time>2022-10-01T11:32:18Z</time>
      </trkpt>
      <trkpt lat="47.22948" lon="7.59399">
        <ele>422.2</ele>
        <time>2022-10-01T11:32:19Z</time>
      </trkpt>
      <trkpt lat="47.2295" lon="7.59406">
        <ele>422.2</ele>
        <time>2022-10-01T11:32:20Z</time>
      </trkpt>
      <trkpt lat="47.22952" lon="7.59413">
        <ele>422.1</ele>
        <time>2022-10-01T11:32:21Z</time>
      </trkpt>
      <trkpt lat="47.22954" lon="7.5942">
        <ele>422.1</ele>
        <time>2022-10-01T11:32:22Z</time>
      </trkpt>
      <trkpt lat="47.22955" lon="7.59426">
        <ele>422.1</ele>
        <time>2022-10-01T11:32:23Z</time>
      </trkpt>
      <trkpt lat="47.22957" lon="7.59433">
        <ele>422.1</ele>
        <time>2022-10-01T11:32:24Z</time>
      </trkpt>
      <trkpt lat="47.2296" lon="7.59438">
        <ele>422</ele>
        <time>2022-10-01T11:32:25Z</time>
      </trkpt>
      <trkpt lat="47.22962" lon="7.59445">
        <ele>422</ele>
        <time>2022-10-01T11:32:26Z</time>
      </trkpt>
      <trkpt lat="47.22963" lon="7.59451">
        <ele>422</ele>
        <time>2022-10-01T11:32:27Z</time>
      </trkpt>
      <trkpt lat="47.22965" lon="7.59458">
        <ele>422</ele>
        <time>2022-10-01T11:32:28Z</time>
      </trkpt>
      <trkpt lat="47.22967" lon="7.59464">
        <ele>422</ele>
        <time>2022-10-01T11:32:29Z</time>
      </trkpt>
      <trkpt lat="47.22969" lon="7.59471">
        <ele>422</ele>
        <time>2022-10-01T11:32:30Z</time>
      </trkpt>
      <trkpt lat="47.22971" lon="7.59477">
        <ele>421.9</ele>
        <time>2022-10-01T11:32:31Z</time>
      </trkpt>
      <trkpt lat="47.22973" lon="7.59484">
        <ele>421.9</ele>
        <time>2022-10-01T11:32:32Z</time>
      </trkpt>
      <trkpt lat="47.22974" lon="7.59491">
        <ele>421.9</ele>
        <time>2022-10-01T11:32:33Z</time>
      </trkpt>
      <trkpt lat="47.22977" lon="7.59496">
        <ele>421.9</ele>
        <time>2022-10-01T11:32:34Z</time>
      </trkpt>
      <trkpt lat="47.22978" lon="7.59503">
        <ele>421.9</ele>
        <time>2022-10-01T11:32:35Z</time>
      </trkpt>
      <trkpt lat="47.2298" lon="7.5951">
        <ele>421.9</ele>
        <time>2022-10-01T11:32:36Z</time>
      </trkpt>
      <trkpt lat="47.22982" lon="7.59516">
        <ele>421.9</ele>
        <time>2022-10-01T11:32:37Z</time>
      </trkpt>
      <trkpt lat="47.22984" lon="7.59524">
        <ele>422</ele>
        <time>2022-10-01T11:32:38Z</time>
      </trkpt>
      <trkpt lat="47.22984" lon="7.59529">
        <ele>422</ele>
        <time>2022-10-01T11:32:39Z</time>
      </trkpt>
      <trkpt lat="47.22986" lon="7.59536">
        <ele>422</ele>
        <time>2022-10-01T11:32:40Z</time>
      </trkpt>
      <trkpt lat="47.22988" lon="7.59543">
        <ele>421.9</ele>
        <time>2022-10-01T11:32:41Z</time>
      </trkpt>
      <trkpt lat="47.2299" lon="7.5955">
        <ele>421.9</ele>
        <time>2022-10-01T11:32:42Z</time>
      </trkpt>
      <trkpt lat="47.22991" lon="7.59557">
        <ele>421.9</ele>
        <time>2022-10-01T11:32:43Z</time>
      </trkpt>
      <trkpt lat="47.22993" lon="7.59564">
        <ele>421.9</ele>
        <time>2022-10-01T11:32:44Z</time>
      </trkpt>
      <trkpt lat="47.22995" lon="7.59571">
        <ele>421.9</ele>
        <time>2022-10-01T11:32:45Z</time>
      </trkpt>
      <trkpt lat="47.22997" lon="7.59578">
        <ele>421.9</ele>
        <time>2022-10-01T11:32:46Z</time>
      </trkpt>
      <trkpt lat="47.22998" lon="7.59585">
        <ele>421.9</ele>
        <time>2022-10-01T11:32:47Z</time>
      </trkpt>
      <trkpt lat="47.23" lon="7.59589">
        <ele>421.9</ele>
        <time>2022-10-01T11:32:48Z</time>
      </trkpt>
      <trkpt lat="47.23002" lon="7.59597">
        <ele>421.9</ele>
        <time>2022-10-01T11:32:49Z</time>
      </trkpt>
      <trkpt lat="47.23002" lon="7.59603">
        <ele>421.9</ele>
        <time>2022-10-01T11:32:50Z</time>
      </trkpt>
      <trkpt lat="47.23004" lon="7.5961">
        <ele>421.9</ele>
        <time>2022-10-01T11:32:51Z</time>
      </trkpt>
      <trkpt lat="47.23006" lon="7.59617">
        <ele>421.9</ele>
        <time>2022-10-01T11:32:52Z</time>
      </trkpt>
      <trkpt lat="47.23007" lon="7.59623">
        <ele>421.9</ele>
        <time>2022-10-01T11:32:53Z</time>
      </trkpt>
      <trkpt lat="47.23008" lon="7.59631">
        <ele>421.9</ele>
        <time>2022-10-01T11:32:54Z</time>
      </trkpt>
      <trkpt lat="47.2301" lon="7.59638">
        <ele>421.9</ele>
        <time>2022-10-01T11:32:55Z</time>
      </trkpt>
      <trkpt lat="47.2301" lon="7.59645">
        <ele>421.9</ele>
        <time>2022-10-01T11:32:56Z</time>
      </trkpt>
      <trkpt lat="47.23012" lon="7.59651">
        <ele>421.9</ele>
        <time>2022-10-01T11:32:57Z</time>
      </trkpt>
      <trkpt lat="47.23013" lon="7.59658">
        <ele>422</ele>
        <time>2022-10-01T11:32:58Z</time>
      </trkpt>
      <trkpt lat="47.23013" lon="7.59666">
        <ele>422</ele>
        <time>2022-10-01T11:32:59Z</time>
      </trkpt>
      <trkpt lat="47.23015" lon="7.59672">
        <ele>422</ele>
        <time>2022-10-01T11:33:00Z</time>
      </trkpt>
      <trkpt lat="47.23016" lon="7.59677">
        <ele>422.1</ele>
        <time>2022-10-01T11:33:01Z</time>
      </trkpt>
      <trkpt lat="47.23016" lon="7.59685">
        <ele>422.1</ele>
        <time>2022-10-01T11:33:02Z</time>
      </trkpt>
      <trkpt lat="47.23017" lon="7.59691">
        <ele>422.1</ele>
        <time>2022-10-01T11:33:03Z</time>
      </trkpt>
      <trkpt lat="47.23018" lon="7.59698">
        <ele>422.2</ele>
        <time>2022-10-01T11:33:04Z</time>
      </trkpt>
      <trkpt lat="47.23019" lon="7.59704">
        <ele>422.2</ele>
        <time>2022-10-01T11:33:05Z</time>
      </trkpt>
      <trkpt lat="47.2302" lon="7.5971">
        <ele>422.2</ele>
        <time>2022-10-01T11:33:06Z</time>
      </trkpt>
      <trkpt lat="47.23021" lon="7.59718">
        <ele>422.2</ele>
        <time>2022-10-01T11:33:07Z</time>
      </trkpt>
      <trkpt lat="47.23023" lon="7.59724">
        <ele>422.2</ele>
        <time>2022-10-01T11:33:08Z</time>
      </trkpt>
      <trkpt lat="47.23024" lon="7.59731">
        <ele>422.1</ele>
        <time>2022-10-01T11:33:09Z</time>
      </trkpt>
      <trkpt lat="47.23023" lon="7.59736">
        <ele>422.1</ele>
        <time>2022-10-01T11:33:10Z</time>
      </trkpt>
      <trkpt lat="47.23026" lon="7.59742">
        <ele>422.1</ele>
        <time>2022-10-01T11:33:11Z</time>
      </trkpt>
      <trkpt lat="47.23026" lon="7.59749">
        <ele>422.1</ele>
        <time>2022-10-01T11:33:12Z</time>
      </trkpt>
      <trkpt lat="47.23027" lon="7.59756">
        <ele>422</ele>
        <time>2022-10-01T11:33:13Z</time>
      </trkpt>
      <trkpt lat="47.23027" lon="7.59763">
        <ele>422</ele>
        <time>2022-10-01T11:33:14Z</time>
      </trkpt>
      <trkpt lat="47.23029" lon="7.59769">
        <ele>421.9</ele>
        <time>2022-10-01T11:33:15Z</time>
      </trkpt>
      <trkpt lat="47.23028" lon="7.59775">
        <ele>421.9</ele>
        <time>2022-10-01T11:33:16Z</time>
      </trkpt>
      <trkpt lat="47.2303" lon="7.59782">
        <ele>421.8</ele>
        <time>2022-10-01T11:33:18Z</time>
      </trkpt>
      <trkpt lat="47.23031" lon="7.59788">
        <ele>421.7</ele>
        <time>2022-10-01T11:33:19Z</time>
      </trkpt>
      <trkpt lat="47.23032" lon="7.59796">
        <ele>421.7</ele>
        <time>2022-10-01T11:33:20Z</time>
      </trkpt>
      <trkpt lat="47.23033" lon="7.59803">
        <ele>421.6</ele>
        <time>2022-10-01T11:33:21Z</time>
      </trkpt>
      <trkpt lat="47.23035" lon="7.59809">
        <ele>421.5</ele>
        <time>2022-10-01T11:33:22Z</time>
      </trkpt>
      <trkpt lat="47.23036" lon="7.59816">
        <ele>421.4</ele>
        <time>2022-10-01T11:33:23Z</time>
      </trkpt>
      <trkpt lat="47.23037" lon="7.59823">
        <ele>421.4</ele>
        <time>2022-10-01T11:33:24Z</time>
      </trkpt>
      <trkpt lat="47.23037" lon="7.5983">
        <ele>421.3</ele>
        <time>2022-10-01T11:33:25Z</time>
      </trkpt>
      <trkpt lat="47.23038" lon="7.59837">
        <ele>421.3</ele>
        <time>2022-10-01T11:33:26Z</time>
      </trkpt>
      <trkpt lat="47.23038" lon="7.59844">
        <ele>421.2</ele>
        <time>2022-10-01T11:33:27Z</time>
      </trkpt>
      <trkpt lat="47.23038" lon="7.5985">
        <ele>421.2</ele>
        <time>2022-10-01T11:33:28Z</time>
      </trkpt>
      <trkpt lat="47.23038" lon="7.59858">
        <ele>421.2</ele>
        <time>2022-10-01T11:33:29Z</time>
      </trkpt>
      <trkpt lat="47.23038" lon="7.59873">
        <ele>421.2</ele>
        <time>2022-10-01T11:33:30Z</time>
      </trkpt>
      <trkpt lat="47.23038" lon="7.5988">
        <ele>421.2</ele>
        <time>2022-10-01T11:33:31Z</time>
      </trkpt>
      <trkpt lat="47.23038" lon="7.59886">
        <ele>421.2</ele>
        <time>2022-10-01T11:33:32Z</time>
      </trkpt>
      <trkpt lat="47.23038" lon="7.59893">
        <ele>421.2</ele>
        <time>2022-10-01T11:33:34Z</time>
      </trkpt>
      <trkpt lat="47.23039" lon="7.599">
        <ele>421.2</ele>
        <time>2022-10-01T11:33:35Z</time>
      </trkpt>
      <trkpt lat="47.23039" lon="7.59907">
        <ele>421.2</ele>
        <time>2022-10-01T11:33:36Z</time>
      </trkpt>
      <trkpt lat="47.23039" lon="7.59914">
        <ele>421.3</ele>
        <time>2022-10-01T11:33:37Z</time>
      </trkpt>
      <trkpt lat="47.23039" lon="7.5992">
        <ele>421.3</ele>
        <time>2022-10-01T11:33:38Z</time>
      </trkpt>
      <trkpt lat="47.23041" lon="7.59927">
        <ele>421.3</ele>
        <time>2022-10-01T11:33:39Z</time>
      </trkpt>
      <trkpt lat="47.23043" lon="7.59934">
        <ele>421.3</ele>
        <time>2022-10-01T11:33:40Z</time>
      </trkpt>
      <trkpt lat="47.23045" lon="7.59939">
        <ele>421.3</ele>
        <time>2022-10-01T11:33:41Z</time>
      </trkpt>
      <trkpt lat="47.23047" lon="7.59947">
        <ele>421.3</ele>
        <time>2022-10-01T11:33:42Z</time>
      </trkpt>
      <trkpt lat="47.23048" lon="7.59953">
        <ele>421.3</ele>
        <time>2022-10-01T11:33:43Z</time>
      </trkpt>
      <trkpt lat="47.23049" lon="7.59959">
        <ele>421.3</ele>
        <time>2022-10-01T11:33:44Z</time>
      </trkpt>
      <trkpt lat="47.23052" lon="7.59965">
        <ele>421.3</ele>
        <time>2022-10-01T11:33:45Z</time>
      </trkpt>
      <trkpt lat="47.23053" lon="7.59972">
        <ele>421.2</ele>
        <time>2022-10-01T11:33:46Z</time>
      </trkpt>
      <trkpt lat="47.23055" lon="7.59979">
        <ele>421.2</ele>
        <time>2022-10-01T11:33:47Z</time>
      </trkpt>
      <trkpt lat="47.23056" lon="7.59986">
        <ele>421.2</ele>
        <time>2022-10-01T11:33:48Z</time>
      </trkpt>
      <trkpt lat="47.23057" lon="7.59993">
        <ele>421.2</ele>
        <time>2022-10-01T11:33:49Z</time>
      </trkpt>
      <trkpt lat="47.23059" lon="7.60001">
        <ele>421.1</ele>
        <time>2022-10-01T11:33:50Z</time>
      </trkpt>
      <trkpt lat="47.2306" lon="7.60008">
        <ele>421.1</ele>
        <time>2022-10-01T11:33:51Z</time>
      </trkpt>
      <trkpt lat="47.2306" lon="7.60015">
        <ele>421.1</ele>
        <time>2022-10-01T11:33:52Z</time>
      </trkpt>
      <trkpt lat="47.2306" lon="7.60022">
        <ele>421.1</ele>
        <time>2022-10-01T11:33:53Z</time>
      </trkpt>
      <trkpt lat="47.2306" lon="7.60029">
        <ele>421.1</ele>
        <time>2022-10-01T11:33:54Z</time>
      </trkpt>
      <trkpt lat="47.2306" lon="7.60036">
        <ele>421.1</ele>
        <time>2022-10-01T11:33:55Z</time>
      </trkpt>
      <trkpt lat="47.23059" lon="7.60043">
        <ele>421.1</ele>
        <time>2022-10-01T11:33:56Z</time>
      </trkpt>
      <trkpt lat="47.23059" lon="7.6005">
        <ele>421.1</ele>
        <time>2022-10-01T11:33:57Z</time>
      </trkpt>
      <trkpt lat="47.2306" lon="7.60057">
        <ele>421.2</ele>
        <time>2022-10-01T11:33:58Z</time>
      </trkpt>
      <trkpt lat="47.2306" lon="7.60064">
        <ele>421.2</ele>
        <time>2022-10-01T11:33:59Z</time>
      </trkpt>
      <trkpt lat="47.23061" lon="7.60071">
        <ele>421.2</ele>
        <time>2022-10-01T11:34:00Z</time>
      </trkpt>
      <trkpt lat="47.23062" lon="7.60077">
        <ele>421.2</ele>
        <time>2022-10-01T11:34:01Z</time>
      </trkpt>
      <trkpt lat="47.23063" lon="7.60084">
        <ele>421.2</ele>
        <time>2022-10-01T11:34:02Z</time>
      </trkpt>
      <trkpt lat="47.23064" lon="7.60091">
        <ele>421.2</ele>
        <time>2022-10-01T11:34:03Z</time>
      </trkpt>
      <trkpt lat="47.23065" lon="7.60098">
        <ele>421.2</ele>
        <time>2022-10-01T11:34:04Z</time>
      </trkpt>
      <trkpt lat="47.23065" lon="7.60106">
        <ele>421.2</ele>
        <time>2022-10-01T11:34:05Z</time>
      </trkpt>
      <trkpt lat="47.23065" lon="7.60112">
        <ele>421.2</ele>
        <time>2022-10-01T11:34:06Z</time>
      </trkpt>
      <trkpt lat="47.23066" lon="7.60119">
        <ele>421.2</ele>
        <time>2022-10-01T11:34:07Z</time>
      </trkpt>
      <trkpt lat="47.23066" lon="7.60127">
        <ele>421.2</ele>
        <time>2022-10-01T11:34:08Z</time>
      </trkpt>
      <trkpt lat="47.23067" lon="7.60132">
        <ele>421.2</ele>
        <time>2022-10-01T11:34:09Z</time>
      </trkpt>
      <trkpt lat="47.23068" lon="7.60144">
        <ele>421.2</ele>
        <time>2022-10-01T11:34:10Z</time>
      </trkpt>
      <trkpt lat="47.23068" lon="7.60151">
        <ele>421.2</ele>
        <time>2022-10-01T11:34:11Z</time>
      </trkpt>
      <trkpt lat="47.23068" lon="7.60158">
        <ele>421.1</ele>
        <time>2022-10-01T11:34:12Z</time>
      </trkpt>
      <trkpt lat="47.23069" lon="7.60164">
        <ele>421.1</ele>
        <time>2022-10-01T11:34:13Z</time>
      </trkpt>
      <trkpt lat="47.23069" lon="7.60171">
        <ele>421</ele>
        <time>2022-10-01T11:34:14Z</time>
      </trkpt>
      <trkpt lat="47.2307" lon="7.60178">
        <ele>421</ele>
        <time>2022-10-01T11:34:15Z</time>
      </trkpt>
      <trkpt lat="47.23071" lon="7.60184">
        <ele>420.9</ele>
        <time>2022-10-01T11:34:16Z</time>
      </trkpt>
      <trkpt lat="47.23072" lon="7.60192">
        <ele>420.9</ele>
        <time>2022-10-01T11:34:17Z</time>
      </trkpt>
      <trkpt lat="47.23071" lon="7.602">
        <ele>420.9</ele>
        <time>2022-10-01T11:34:18Z</time>
      </trkpt>
      <trkpt lat="47.23072" lon="7.60208">
        <ele>420.8</ele>
        <time>2022-10-01T11:34:19Z</time>
      </trkpt>
      <trkpt lat="47.23072" lon="7.60215">
        <ele>420.8</ele>
        <time>2022-10-01T11:34:20Z</time>
      </trkpt>
      <trkpt lat="47.23073" lon="7.60223">
        <ele>420.8</ele>
        <time>2022-10-01T11:34:21Z</time>
      </trkpt>
      <trkpt lat="47.23074" lon="7.60229">
        <ele>420.8</ele>
        <time>2022-10-01T11:34:22Z</time>
      </trkpt>
      <trkpt lat="47.23074" lon="7.60236">
        <ele>420.8</ele>
        <time>2022-10-01T11:34:23Z</time>
      </trkpt>
      <trkpt lat="47.23075" lon="7.60244">
        <ele>420.8</ele>
        <time>2022-10-01T11:34:24Z</time>
      </trkpt>
      <trkpt lat="47.23076" lon="7.60252">
        <ele>420.7</ele>
        <time>2022-10-01T11:34:25Z</time>
      </trkpt>
      <trkpt lat="47.23075" lon="7.60259">
        <ele>420.7</ele>
        <time>2022-10-01T11:34:26Z</time>
      </trkpt>
      <trkpt lat="47.23076" lon="7.60268">
        <ele>420.7</ele>
        <time>2022-10-01T11:34:27Z</time>
      </trkpt>
      <trkpt lat="47.23076" lon="7.60275">
        <ele>420.7</ele>
        <time>2022-10-01T11:34:28Z</time>
      </trkpt>
      <trkpt lat="47.23077" lon="7.60283">
        <ele>420.7</ele>
        <time>2022-10-01T11:34:29Z</time>
      </trkpt>
      <trkpt lat="47.23078" lon="7.60289">
        <ele>420.7</ele>
        <time>2022-10-01T11:34:30Z</time>
      </trkpt>
      <trkpt lat="47.2308" lon="7.60296">
        <ele>420.7</ele>
        <time>2022-10-01T11:34:31Z</time>
      </trkpt>
      <trkpt lat="47.23081" lon="7.60302">
        <ele>420.7</ele>
        <time>2022-10-01T11:34:32Z</time>
      </trkpt>
      <trkpt lat="47.2308" lon="7.60309">
        <ele>420.8</ele>
        <time>2022-10-01T11:34:33Z</time>
      </trkpt>
      <trkpt lat="47.2308" lon="7.60315">
        <ele>420.9</ele>
        <time>2022-10-01T11:34:34Z</time>
      </trkpt>
      <trkpt lat="47.2308" lon="7.60322">
        <ele>420.9</ele>
        <time>2022-10-01T11:34:35Z</time>
      </trkpt>
      <trkpt lat="47.2308" lon="7.60327">
        <ele>421</ele>
        <time>2022-10-01T11:34:36Z</time>
      </trkpt>
      <trkpt lat="47.2308" lon="7.60333">
        <ele>421.1</ele>
        <time>2022-10-01T11:34:37Z</time>
      </trkpt>
      <trkpt lat="47.2308" lon="7.60338">
        <ele>421.2</ele>
        <time>2022-10-01T11:34:38Z</time>
      </trkpt>
      <trkpt lat="47.2308" lon="7.60343">
        <ele>421.3</ele>
        <time>2022-10-01T11:34:39Z</time>
      </trkpt>
      <trkpt lat="47.2308" lon="7.60348">
        <ele>421.4</ele>
        <time>2022-10-01T11:34:40Z</time>
      </trkpt>
      <trkpt lat="47.23081" lon="7.60353">
        <ele>421.5</ele>
        <time>2022-10-01T11:34:41Z</time>
      </trkpt>
      <trkpt lat="47.23081" lon="7.60359">
        <ele>421.6</ele>
        <time>2022-10-01T11:34:42Z</time>
      </trkpt>
      <trkpt lat="47.2308" lon="7.60365">
        <ele>421.7</ele>
        <time>2022-10-01T11:34:43Z</time>
      </trkpt>
      <trkpt lat="47.23081" lon="7.60368">
        <ele>421.7</ele>
        <time>2022-10-01T11:34:44Z</time>
      </trkpt>
      <trkpt lat="47.23081" lon="7.60373">
        <ele>421.8</ele>
        <time>2022-10-01T11:34:45Z</time>
      </trkpt>
      <trkpt lat="47.2308" lon="7.60377">
        <ele>421.9</ele>
        <time>2022-10-01T11:34:46Z</time>
      </trkpt>
      <trkpt lat="47.23082" lon="7.60382">
        <ele>422</ele>
        <time>2022-10-01T11:34:47Z</time>
      </trkpt>
      <trkpt lat="47.23082" lon="7.60387">
        <ele>422.1</ele>
        <time>2022-10-01T11:34:48Z</time>
      </trkpt>
      <trkpt lat="47.23082" lon="7.60392">
        <ele>422.2</ele>
        <time>2022-10-01T11:34:49Z</time>
      </trkpt>
      <trkpt lat="47.23082" lon="7.60397">
        <ele>422.3</ele>
        <time>2022-10-01T11:34:50Z</time>
      </trkpt>
      <trkpt lat="47.23082" lon="7.60401">
        <ele>422.3</ele>
        <time>2022-10-01T11:34:51Z</time>
      </trkpt>
      <trkpt lat="47.23081" lon="7.60406">
        <ele>422.4</ele>
        <time>2022-10-01T11:34:52Z</time>
      </trkpt>
      <trkpt lat="47.2308" lon="7.60413">
        <ele>422.5</ele>
        <time>2022-10-01T11:34:53Z</time>
      </trkpt>
      <trkpt lat="47.2308" lon="7.60415">
        <ele>422.5</ele>
        <time>2022-10-01T11:34:54Z</time>
      </trkpt>
      <trkpt lat="47.23078" lon="7.6042">
        <ele>422.6</ele>
        <time>2022-10-01T11:34:55Z</time>
      </trkpt>
      <trkpt lat="47.23077" lon="7.60422">
        <ele>422.6</ele>
        <time>2022-10-01T11:34:56Z</time>
      </trkpt>
      <trkpt lat="47.23075" lon="7.60428">
        <ele>422.7</ele>
        <time>2022-10-01T11:34:57Z</time>
      </trkpt>
      <trkpt lat="47.23075" lon="7.6043">
        <ele>422.7</ele>
        <time>2022-10-01T11:34:58Z</time>
      </trkpt>
      <trkpt lat="47.23076" lon="7.60434">
        <ele>422.8</ele>
        <time>2022-10-01T11:34:59Z</time>
      </trkpt>
      <trkpt lat="47.23077" lon="7.60439">
        <ele>422.8</ele>
        <time>2022-10-01T11:35:00Z</time>
      </trkpt>
      <trkpt lat="47.23079" lon="7.60443">
        <ele>422.9</ele>
        <time>2022-10-01T11:35:01Z</time>
      </trkpt>
      <trkpt lat="47.2308" lon="7.60445">
        <ele>422.9</ele>
        <time>2022-10-01T11:35:02Z</time>
      </trkpt>
      <trkpt lat="47.2308" lon="7.6045">
        <ele>422.9</ele>
        <time>2022-10-01T11:35:03Z</time>
      </trkpt>
      <trkpt lat="47.2308" lon="7.60452">
        <ele>423</ele>
        <time>2022-10-01T11:35:04Z</time>
      </trkpt>
      <trkpt lat="47.2308" lon="7.60456">
        <ele>423</ele>
        <time>2022-10-01T11:35:05Z</time>
      </trkpt>
      <trkpt lat="47.23081" lon="7.60461">
        <ele>423</ele>
        <time>2022-10-01T11:35:06Z</time>
      </trkpt>
      <trkpt lat="47.23082" lon="7.60464">
        <ele>423.1</ele>
        <time>2022-10-01T11:35:07Z</time>
      </trkpt>
      <trkpt lat="47.23083" lon="7.60469">
        <ele>423.1</ele>
        <time>2022-10-01T11:35:08Z</time>
      </trkpt>
      <trkpt lat="47.23084" lon="7.60475">
        <ele>423.1</ele>
        <time>2022-10-01T11:35:09Z</time>
      </trkpt>
      <trkpt lat="47.23084" lon="7.60477">
        <ele>423.1</ele>
        <time>2022-10-01T11:35:10Z</time>
      </trkpt>
      <trkpt lat="47.23086" lon="7.60484">
        <ele>423.1</ele>
        <time>2022-10-01T11:35:11Z</time>
      </trkpt>
      <trkpt lat="47.23086" lon="7.6049">
        <ele>423</ele>
        <time>2022-10-01T11:35:12Z</time>
      </trkpt>
      <trkpt lat="47.23086" lon="7.60496">
        <ele>423</ele>
        <time>2022-10-01T11:35:13Z</time>
      </trkpt>
      <trkpt lat="47.23087" lon="7.60502">
        <ele>423</ele>
        <time>2022-10-01T11:35:14Z</time>
      </trkpt>
      <trkpt lat="47.23088" lon="7.60508">
        <ele>423</ele>
        <time>2022-10-01T11:35:15Z</time>
      </trkpt>
      <trkpt lat="47.23088" lon="7.60514">
        <ele>423</ele>
        <time>2022-10-01T11:35:16Z</time>
      </trkpt>
      <trkpt lat="47.23088" lon="7.6052">
        <ele>423</ele>
        <time>2022-10-01T11:35:17Z</time>
      </trkpt>
      <trkpt lat="47.23088" lon="7.60526">
        <ele>423</ele>
        <time>2022-10-01T11:35:18Z</time>
      </trkpt>
      <trkpt lat="47.23089" lon="7.60533">
        <ele>423</ele>
        <time>2022-10-01T11:35:19Z</time>
      </trkpt>
      <trkpt lat="47.2309" lon="7.60537">
        <ele>423</ele>
        <time>2022-10-01T11:35:20Z</time>
      </trkpt>
      <trkpt lat="47.23089" lon="7.60543">
        <ele>423</ele>
        <time>2022-10-01T11:35:21Z</time>
      </trkpt>
      <trkpt lat="47.23089" lon="7.60549">
        <ele>423</ele>
        <time>2022-10-01T11:35:22Z</time>
      </trkpt>
      <trkpt lat="47.23088" lon="7.60556">
        <ele>423</ele>
        <time>2022-10-01T11:35:24Z</time>
      </trkpt>
      <trkpt lat="47.23089" lon="7.60562">
        <ele>423</ele>
        <time>2022-10-01T11:35:25Z</time>
      </trkpt>
      <trkpt lat="47.2309" lon="7.60567">
        <ele>422.9</ele>
        <time>2022-10-01T11:35:26Z</time>
      </trkpt>
      <trkpt lat="47.2309" lon="7.60574">
        <ele>422.9</ele>
        <time>2022-10-01T11:35:27Z</time>
      </trkpt>
      <trkpt lat="47.2309" lon="7.60581">
        <ele>422.9</ele>
        <time>2022-10-01T11:35:28Z</time>
      </trkpt>
      <trkpt lat="47.23091" lon="7.60588">
        <ele>422.9</ele>
        <time>2022-10-01T11:35:29Z</time>
      </trkpt>
      <trkpt lat="47.2309" lon="7.60595">
        <ele>422.9</ele>
        <time>2022-10-01T11:35:30Z</time>
      </trkpt>
      <trkpt lat="47.2309" lon="7.60602">
        <ele>422.9</ele>
        <time>2022-10-01T11:35:31Z</time>
      </trkpt>
      <trkpt lat="47.2309" lon="7.60609">
        <ele>422.9</ele>
        <time>2022-10-01T11:35:32Z</time>
      </trkpt>
      <trkpt lat="47.2309" lon="7.60615">
        <ele>422.9</ele>
        <time>2022-10-01T11:35:33Z</time>
      </trkpt>
      <trkpt lat="47.23091" lon="7.60619">
        <ele>422.9</ele>
        <time>2022-10-01T11:35:34Z</time>
      </trkpt>
      <trkpt lat="47.2309" lon="7.60629">
        <ele>423</ele>
        <time>2022-10-01T11:35:35Z</time>
      </trkpt>
      <trkpt lat="47.23091" lon="7.60634">
        <ele>423</ele>
        <time>2022-10-01T11:35:36Z</time>
      </trkpt>
      <trkpt lat="47.23091" lon="7.60639">
        <ele>423</ele>
        <time>2022-10-01T11:35:38Z</time>
      </trkpt>
      <trkpt lat="47.23091" lon="7.60644">
        <ele>423</ele>
        <time>2022-10-01T11:35:39Z</time>
      </trkpt>
      <trkpt lat="47.23092" lon="7.60648">
        <ele>423</ele>
        <time>2022-10-01T11:35:40Z</time>
      </trkpt>
      <trkpt lat="47.23091" lon="7.60653">
        <ele>423</ele>
        <time>2022-10-01T11:35:41Z</time>
      </trkpt>
      <trkpt lat="47.23092" lon="7.60658">
        <ele>423</ele>
        <time>2022-10-01T11:35:42Z</time>
      </trkpt>
      <trkpt lat="47.23091" lon="7.60666">
        <ele>422.9</ele>
        <time>2022-10-01T11:35:43Z</time>
      </trkpt>
      <trkpt lat="47.23092" lon="7.60672">
        <ele>422.9</ele>
        <time>2022-10-01T11:35:44Z</time>
      </trkpt>
      <trkpt lat="47.23092" lon="7.60678">
        <ele>422.9</ele>
        <time>2022-10-01T11:35:45Z</time>
      </trkpt>
      <trkpt lat="47.23091" lon="7.60683">
        <ele>422.9</ele>
        <time>2022-10-01T11:35:46Z</time>
      </trkpt>
      <trkpt lat="47.2309" lon="7.60691">
        <ele>422.9</ele>
        <time>2022-10-01T11:35:47Z</time>
      </trkpt>
      <trkpt lat="47.2309" lon="7.60697">
        <ele>422.8</ele>
        <time>2022-10-01T11:35:48Z</time>
      </trkpt>
      <trkpt lat="47.2309" lon="7.60703">
        <ele>422.8</ele>
        <time>2022-10-01T11:35:49Z</time>
      </trkpt>
      <trkpt lat="47.2309" lon="7.60709">
        <ele>422.8</ele>
        <time>2022-10-01T11:35:50Z</time>
      </trkpt>
      <trkpt lat="47.2309" lon="7.60717">
        <ele>422.8</ele>
        <time>2022-10-01T11:35:51Z</time>
      </trkpt>
      <trkpt lat="47.2309" lon="7.60724">
        <ele>422.8</ele>
        <time>2022-10-01T11:35:52Z</time>
      </trkpt>
      <trkpt lat="47.2309" lon="7.6073">
        <ele>422.7</ele>
        <time>2022-10-01T11:35:53Z</time>
      </trkpt>
      <trkpt lat="47.2309" lon="7.60737">
        <ele>422.7</ele>
        <time>2022-10-01T11:35:54Z</time>
      </trkpt>
      <trkpt lat="47.2309" lon="7.60744">
        <ele>422.7</ele>
        <time>2022-10-01T11:35:55Z</time>
      </trkpt>
      <trkpt lat="47.2309" lon="7.6075">
        <ele>422.7</ele>
        <time>2022-10-01T11:35:56Z</time>
      </trkpt>
      <trkpt lat="47.23089" lon="7.60757">
        <ele>422.7</ele>
        <time>2022-10-01T11:35:57Z</time>
      </trkpt>
      <trkpt lat="47.23089" lon="7.60764">
        <ele>422.7</ele>
        <time>2022-10-01T11:35:58Z</time>
      </trkpt>
      <trkpt lat="47.23089" lon="7.6077">
        <ele>422.7</ele>
        <time>2022-10-01T11:35:59Z</time>
      </trkpt>
      <trkpt lat="47.23087" lon="7.60778">
        <ele>422.7</ele>
        <time>2022-10-01T11:36:00Z</time>
      </trkpt>
      <trkpt lat="47.23085" lon="7.6079">
        <ele>422.7</ele>
        <time>2022-10-01T11:36:01Z</time>
      </trkpt>
      <trkpt lat="47.23085" lon="7.60797">
        <ele>422.7</ele>
        <time>2022-10-01T11:36:02Z</time>
      </trkpt>
      <trkpt lat="47.23085" lon="7.60802">
        <ele>422.7</ele>
        <time>2022-10-01T11:36:03Z</time>
      </trkpt>
      <trkpt lat="47.23085" lon="7.60806">
        <ele>422.7</ele>
        <time>2022-10-01T11:36:04Z</time>
      </trkpt>
      <trkpt lat="47.23084" lon="7.60811">
        <ele>422.8</ele>
        <time>2022-10-01T11:36:05Z</time>
      </trkpt>
      <trkpt lat="47.23083" lon="7.60817">
        <ele>422.8</ele>
        <time>2022-10-01T11:36:06Z</time>
      </trkpt>
      <trkpt lat="47.23083" lon="7.60819">
        <ele>422.8</ele>
        <time>2022-10-01T11:36:07Z</time>
      </trkpt>
      <trkpt lat="47.23082" lon="7.60826">
        <ele>422.8</ele>
        <time>2022-10-01T11:36:08Z</time>
      </trkpt>
      <trkpt lat="47.23081" lon="7.6083">
        <ele>422.9</ele>
        <time>2022-10-01T11:36:09Z</time>
      </trkpt>
      <trkpt lat="47.2308" lon="7.60836">
        <ele>422.9</ele>
        <time>2022-10-01T11:36:10Z</time>
      </trkpt>
      <trkpt lat="47.2308" lon="7.60841">
        <ele>422.9</ele>
        <time>2022-10-01T11:36:11Z</time>
      </trkpt>
      <trkpt lat="47.23078" lon="7.60847">
        <ele>422.9</ele>
        <time>2022-10-01T11:36:12Z</time>
      </trkpt>
      <trkpt lat="47.23078" lon="7.60851">
        <ele>422.9</ele>
        <time>2022-10-01T11:36:13Z</time>
      </trkpt>
      <trkpt lat="47.23077" lon="7.60856">
        <ele>422.8</ele>
        <time>2022-10-01T11:36:14Z</time>
      </trkpt>
      <trkpt lat="47.23076" lon="7.60862">
        <ele>422.8</ele>
        <time>2022-10-01T11:36:15Z</time>
      </trkpt>
      <trkpt lat="47.23074" lon="7.60868">
        <ele>422.8</ele>
        <time>2022-10-01T11:36:16Z</time>
      </trkpt>
      <trkpt lat="47.23073" lon="7.60873">
        <ele>422.8</ele>
        <time>2022-10-01T11:36:17Z</time>
      </trkpt>
      <trkpt lat="47.23072" lon="7.60879">
        <ele>422.8</ele>
        <time>2022-10-01T11:36:18Z</time>
      </trkpt>
      <trkpt lat="47.23072" lon="7.60884">
        <ele>422.8</ele>
        <time>2022-10-01T11:36:19Z</time>
      </trkpt>
      <trkpt lat="47.2307" lon="7.6089">
        <ele>422.7</ele>
        <time>2022-10-01T11:36:20Z</time>
      </trkpt>
      <trkpt lat="47.23069" lon="7.60894">
        <ele>422.7</ele>
        <time>2022-10-01T11:36:21Z</time>
      </trkpt>
      <trkpt lat="47.23067" lon="7.60899">
        <ele>422.7</ele>
        <time>2022-10-01T11:36:22Z</time>
      </trkpt>
      <trkpt lat="47.23065" lon="7.60903">
        <ele>422.7</ele>
        <time>2022-10-01T11:36:23Z</time>
      </trkpt>
      <trkpt lat="47.23063" lon="7.60908">
        <ele>422.6</ele>
        <time>2022-10-01T11:36:24Z</time>
      </trkpt>
      <trkpt lat="47.23061" lon="7.60911">
        <ele>422.6</ele>
        <time>2022-10-01T11:36:25Z</time>
      </trkpt>
      <trkpt lat="47.23059" lon="7.60914">
        <ele>422.6</ele>
        <time>2022-10-01T11:36:26Z</time>
      </trkpt>
      <trkpt lat="47.23056" lon="7.60918">
        <ele>422.6</ele>
        <time>2022-10-01T11:36:27Z</time>
      </trkpt>
      <trkpt lat="47.23054" lon="7.60921">
        <ele>422.6</ele>
        <time>2022-10-01T11:36:28Z</time>
      </trkpt>
      <trkpt lat="47.23052" lon="7.60925">
        <ele>422.5</ele>
        <time>2022-10-01T11:36:29Z</time>
      </trkpt>
      <trkpt lat="47.23051" lon="7.60927">
        <ele>422.5</ele>
        <time>2022-10-01T11:36:30Z</time>
      </trkpt>
      <trkpt lat="47.23049" lon="7.60931">
        <ele>422.5</ele>
        <time>2022-10-01T11:36:31Z</time>
      </trkpt>
      <trkpt lat="47.23047" lon="7.60935">
        <ele>422.4</ele>
        <time>2022-10-01T11:36:32Z</time>
      </trkpt>
      <trkpt lat="47.23046" lon="7.60939">
        <ele>422.4</ele>
        <time>2022-10-01T11:36:33Z</time>
      </trkpt>
      <trkpt lat="47.23045" lon="7.60943">
        <ele>422.4</ele>
        <time>2022-10-01T11:36:34Z</time>
      </trkpt>
      <trkpt lat="47.23044" lon="7.60945">
        <ele>422.4</ele>
        <time>2022-10-01T11:36:35Z</time>
      </trkpt>
      <trkpt lat="47.23044" lon="7.60949">
        <ele>422.4</ele>
        <time>2022-10-01T11:36:36Z</time>
      </trkpt>
      <trkpt lat="47.23042" lon="7.60954">
        <ele>422.4</ele>
        <time>2022-10-01T11:36:37Z</time>
      </trkpt>
      <trkpt lat="47.23041" lon="7.60957">
        <ele>422.4</ele>
        <time>2022-10-01T11:36:38Z</time>
      </trkpt>
      <trkpt lat="47.2304" lon="7.60962">
        <ele>422.4</ele>
        <time>2022-10-01T11:36:39Z</time>
      </trkpt>
      <trkpt lat="47.23041" lon="7.60969">
        <ele>422.4</ele>
        <time>2022-10-01T11:36:40Z</time>
      </trkpt>
      <trkpt lat="47.2304" lon="7.60972">
        <ele>422.4</ele>
        <time>2022-10-01T11:36:41Z</time>
      </trkpt>
      <trkpt lat="47.23042" lon="7.60977">
        <ele>422.4</ele>
        <time>2022-10-01T11:36:42Z</time>
      </trkpt>
      <trkpt lat="47.23044" lon="7.60981">
        <ele>422.4</ele>
        <time>2022-10-01T11:36:43Z</time>
      </trkpt>
      <trkpt lat="47.23046" lon="7.60985">
        <ele>422.4</ele>
        <time>2022-10-01T11:36:44Z</time>
      </trkpt>
      <trkpt lat="47.23047" lon="7.60986">
        <ele>422.4</ele>
        <time>2022-10-01T11:36:45Z</time>
      </trkpt>
      <trkpt lat="47.23048" lon="7.60991">
        <ele>422.4</ele>
        <time>2022-10-01T11:36:46Z</time>
      </trkpt>
      <trkpt lat="47.23048" lon="7.60992">
        <ele>422.4</ele>
        <time>2022-10-01T11:36:47Z</time>
      </trkpt>
      <trkpt lat="47.23049" lon="7.60996">
        <ele>422.4</ele>
        <time>2022-10-01T11:36:48Z</time>
      </trkpt>
      <trkpt lat="47.2305" lon="7.61001">
        <ele>422.4</ele>
        <time>2022-10-01T11:36:49Z</time>
      </trkpt>
      <trkpt lat="47.2305" lon="7.61003">
        <ele>422.4</ele>
        <time>2022-10-01T11:36:50Z</time>
      </trkpt>
      <trkpt lat="47.23049" lon="7.61009">
        <ele>422.5</ele>
        <time>2022-10-01T11:36:51Z</time>
      </trkpt>
      <trkpt lat="47.23048" lon="7.61014">
        <ele>422.5</ele>
        <time>2022-10-01T11:36:52Z</time>
      </trkpt>
      <trkpt lat="47.23048" lon="7.61017">
        <ele>422.5</ele>
        <time>2022-10-01T11:36:53Z</time>
      </trkpt>
      <trkpt lat="47.23048" lon="7.61022">
        <ele>422.5</ele>
        <time>2022-10-01T11:36:54Z</time>
      </trkpt>
      <trkpt lat="47.23048" lon="7.61028">
        <ele>422.5</ele>
        <time>2022-10-01T11:36:55Z</time>
      </trkpt>
      <trkpt lat="47.23047" lon="7.6103">
        <ele>422.6</ele>
        <time>2022-10-01T11:36:56Z</time>
      </trkpt>
      <trkpt lat="47.23047" lon="7.61034">
        <ele>422.6</ele>
        <time>2022-10-01T11:36:57Z</time>
      </trkpt>
      <trkpt lat="47.23046" lon="7.6104">
        <ele>422.6</ele>
        <time>2022-10-01T11:36:58Z</time>
      </trkpt>
      <trkpt lat="47.23045" lon="7.61044">
        <ele>422.6</ele>
        <time>2022-10-01T11:36:59Z</time>
      </trkpt>
      <trkpt lat="47.23044" lon="7.61051">
        <ele>422.6</ele>
        <time>2022-10-01T11:37:00Z</time>
      </trkpt>
      <trkpt lat="47.23044" lon="7.61056">
        <ele>422.6</ele>
        <time>2022-10-01T11:37:01Z</time>
      </trkpt>
      <trkpt lat="47.23043" lon="7.61063">
        <ele>422.5</ele>
        <time>2022-10-01T11:37:02Z</time>
      </trkpt>
      <trkpt lat="47.23042" lon="7.6107">
        <ele>422.5</ele>
        <time>2022-10-01T11:37:03Z</time>
      </trkpt>
      <trkpt lat="47.23041" lon="7.61075">
        <ele>422.5</ele>
        <time>2022-10-01T11:37:04Z</time>
      </trkpt>
      <trkpt lat="47.2304" lon="7.61081">
        <ele>422.5</ele>
        <time>2022-10-01T11:37:05Z</time>
      </trkpt>
      <trkpt lat="47.23039" lon="7.61087">
        <ele>422.5</ele>
        <time>2022-10-01T11:37:06Z</time>
      </trkpt>
      <trkpt lat="47.23038" lon="7.61093">
        <ele>422.5</ele>
        <time>2022-10-01T11:37:07Z</time>
      </trkpt>
      <trkpt lat="47.23038" lon="7.61099">
        <ele>422.5</ele>
        <time>2022-10-01T11:37:08Z</time>
      </trkpt>
      <trkpt lat="47.23038" lon="7.61105">
        <ele>422.5</ele>
        <time>2022-10-01T11:37:09Z</time>
      </trkpt>
      <trkpt lat="47.23037" lon="7.61112">
        <ele>422.5</ele>
        <time>2022-10-01T11:37:10Z</time>
      </trkpt>
      <trkpt lat="47.23036" lon="7.61118">
        <ele>422.5</ele>
        <time>2022-10-01T11:37:11Z</time>
      </trkpt>
      <trkpt lat="47.23035" lon="7.61125">
        <ele>422.5</ele>
        <time>2022-10-01T11:37:12Z</time>
      </trkpt>
      <trkpt lat="47.23034" lon="7.61131">
        <ele>422.5</ele>
        <time>2022-10-01T11:37:13Z</time>
      </trkpt>
      <trkpt lat="47.23034" lon="7.61136">
        <ele>422.5</ele>
        <time>2022-10-01T11:37:14Z</time>
      </trkpt>
      <trkpt lat="47.23034" lon="7.61143">
        <ele>422.5</ele>
        <time>2022-10-01T11:37:15Z</time>
      </trkpt>
      <trkpt lat="47.23033" lon="7.61148">
        <ele>422.5</ele>
        <time>2022-10-01T11:37:16Z</time>
      </trkpt>
      <trkpt lat="47.23033" lon="7.61155">
        <ele>422.5</ele>
        <time>2022-10-01T11:37:17Z</time>
      </trkpt>
      <trkpt lat="47.23031" lon="7.61161">
        <ele>422.5</ele>
        <time>2022-10-01T11:37:18Z</time>
      </trkpt>
      <trkpt lat="47.2303" lon="7.61167">
        <ele>422.5</ele>
        <time>2022-10-01T11:37:19Z</time>
      </trkpt>
      <trkpt lat="47.2303" lon="7.61171">
        <ele>422.5</ele>
        <time>2022-10-01T11:37:20Z</time>
      </trkpt>
      <trkpt lat="47.2303" lon="7.61177">
        <ele>422.4</ele>
        <time>2022-10-01T11:37:21Z</time>
      </trkpt>
      <trkpt lat="47.23029" lon="7.61182">
        <ele>422.4</ele>
        <time>2022-10-01T11:37:22Z</time>
      </trkpt>
      <trkpt lat="47.23027" lon="7.61187">
        <ele>422.2</ele>
        <time>2022-10-01T11:37:23Z</time>
      </trkpt>
      <trkpt lat="47.23026" lon="7.61192">
        <ele>422.1</ele>
        <time>2022-10-01T11:37:24Z</time>
      </trkpt>
      <trkpt lat="47.23025" lon="7.61193">
        <ele>422.1</ele>
        <time>2022-10-01T11:37:25Z</time>
      </trkpt>
      <trkpt lat="47.23023" lon="7.61198">
        <ele>421.9</ele>
        <time>2022-10-01T11:37:26Z</time>
      </trkpt>
      <trkpt lat="47.23022" lon="7.612">
        <ele>421.9</ele>
        <time>2022-10-01T11:37:27Z</time>
      </trkpt>
      <trkpt lat="47.23021" lon="7.61203">
        <ele>421.8</ele>
        <time>2022-10-01T11:37:28Z</time>
      </trkpt>
      <trkpt lat="47.23019" lon="7.61207">
        <ele>421.6</ele>
        <time>2022-10-01T11:37:30Z</time>
      </trkpt>
      <trkpt lat="47.23015" lon="7.61211">
        <ele>421.5</ele>
        <time>2022-10-01T11:37:31Z</time>
      </trkpt>
      <trkpt lat="47.23014" lon="7.61212">
        <ele>421.3</ele>
        <time>2022-10-01T11:37:32Z</time>
      </trkpt>
      <trkpt lat="47.23011" lon="7.61213">
        <ele>421.3</ele>
        <time>2022-10-01T11:37:33Z</time>
      </trkpt>
      <trkpt lat="47.2301" lon="7.61214">
        <ele>421.4</ele>
        <time>2022-10-01T11:37:34Z</time>
      </trkpt>
      <trkpt lat="47.23007" lon="7.61213">
        <ele>421.4</ele>
        <time>2022-10-01T11:37:35Z</time>
      </trkpt>
      <trkpt lat="47.23006" lon="7.61213">
        <ele>421.4</ele>
        <time>2022-10-01T11:37:36Z</time>
      </trkpt>
      <trkpt lat="47.23004" lon="7.6121">
        <ele>421.4</ele>
        <time>2022-10-01T11:37:37Z</time>
      </trkpt>
      <trkpt lat="47.23003" lon="7.61209">
        <ele>421.4</ele>
        <time>2022-10-01T11:37:38Z</time>
      </trkpt>
      <trkpt lat="47.23" lon="7.61206">
        <ele>421.5</ele>
        <time>2022-10-01T11:37:39Z</time>
      </trkpt>
      <trkpt lat="47.22998" lon="7.61205">
        <ele>421.5</ele>
        <time>2022-10-01T11:37:40Z</time>
      </trkpt>
      <trkpt lat="47.22994" lon="7.61204">
        <ele>421.6</ele>
        <time>2022-10-01T11:37:41Z</time>
      </trkpt>
      <trkpt lat="47.22993" lon="7.61203">
        <ele>421.6</ele>
        <time>2022-10-01T11:37:42Z</time>
      </trkpt>
      <trkpt lat="47.2299" lon="7.61201">
        <ele>421.6</ele>
        <time>2022-10-01T11:37:43Z</time>
      </trkpt>
      <trkpt lat="47.22989" lon="7.612">
        <ele>421.7</ele>
        <time>2022-10-01T11:37:44Z</time>
      </trkpt>
      <trkpt lat="47.22985" lon="7.61199">
        <ele>421.7</ele>
        <time>2022-10-01T11:37:45Z</time>
      </trkpt>
      <trkpt lat="47.22984" lon="7.61198">
        <ele>421.8</ele>
        <time>2022-10-01T11:37:46Z</time>
      </trkpt>
      <trkpt lat="47.22981" lon="7.61196">
        <ele>421.8</ele>
        <time>2022-10-01T11:37:47Z</time>
      </trkpt>
      <trkpt lat="47.22979" lon="7.61196">
        <ele>421.9</ele>
        <time>2022-10-01T11:37:48Z</time>
      </trkpt>
      <trkpt lat="47.22977" lon="7.61196">
        <ele>421.9</ele>
        <time>2022-10-01T11:37:49Z</time>
      </trkpt>
      <trkpt lat="47.22975" lon="7.61195">
        <ele>421.9</ele>
        <time>2022-10-01T11:37:50Z</time>
      </trkpt>
      <trkpt lat="47.22973" lon="7.61193">
        <ele>422</ele>
        <time>2022-10-01T11:37:51Z</time>
      </trkpt>
      <trkpt lat="47.22972" lon="7.61192">
        <ele>422</ele>
        <time>2022-10-01T11:37:52Z</time>
      </trkpt>
      <trkpt lat="47.22968" lon="7.61192">
        <ele>422.1</ele>
        <time>2022-10-01T11:37:53Z</time>
      </trkpt>
      <trkpt lat="47.22967" lon="7.61191">
        <ele>422.1</ele>
        <time>2022-10-01T11:37:54Z</time>
      </trkpt>
      <trkpt lat="47.22962" lon="7.61191">
        <ele>422.1</ele>
        <time>2022-10-01T11:37:55Z</time>
      </trkpt>
      <trkpt lat="47.2296" lon="7.6119">
        <ele>422.2</ele>
        <time>2022-10-01T11:37:56Z</time>
      </trkpt>
      <trkpt lat="47.22956" lon="7.6119">
        <ele>422.2</ele>
        <time>2022-10-01T11:37:57Z</time>
      </trkpt>
      <trkpt lat="47.22954" lon="7.61189">
        <ele>422.2</ele>
        <time>2022-10-01T11:37:58Z</time>
      </trkpt>
      <trkpt lat="47.22952" lon="7.61188">
        <ele>422.2</ele>
        <time>2022-10-01T11:37:59Z</time>
      </trkpt>
      <trkpt lat="47.22948" lon="7.61188">
        <ele>422.2</ele>
        <time>2022-10-01T11:38:00Z</time>
      </trkpt>
      <trkpt lat="47.22945" lon="7.61187">
        <ele>422.2</ele>
        <time>2022-10-01T11:38:01Z</time>
      </trkpt>
      <trkpt lat="47.22941" lon="7.61187">
        <ele>422.2</ele>
        <time>2022-10-01T11:38:02Z</time>
      </trkpt>
      <trkpt lat="47.22938" lon="7.61186">
        <ele>422.2</ele>
        <time>2022-10-01T11:38:03Z</time>
      </trkpt>
      <trkpt lat="47.22935" lon="7.61185">
        <ele>422.2</ele>
        <time>2022-10-01T11:38:04Z</time>
      </trkpt>
      <trkpt lat="47.22931" lon="7.61184">
        <ele>422.2</ele>
        <time>2022-10-01T11:38:05Z</time>
      </trkpt>
      <trkpt lat="47.22924" lon="7.61183">
        <ele>422.2</ele>
        <time>2022-10-01T11:38:06Z</time>
      </trkpt>
      <trkpt lat="47.22921" lon="7.61181">
        <ele>422.2</ele>
        <time>2022-10-01T11:38:07Z</time>
      </trkpt>
      <trkpt lat="47.22917" lon="7.61181">
        <ele>422.2</ele>
        <time>2022-10-01T11:38:08Z</time>
      </trkpt>
      <trkpt lat="47.22912" lon="7.6118">
        <ele>422.2</ele>
        <time>2022-10-01T11:38:09Z</time>
      </trkpt>
      <trkpt lat="47.2291" lon="7.61178">
        <ele>422.2</ele>
        <time>2022-10-01T11:38:10Z</time>
      </trkpt>
      <trkpt lat="47.22906" lon="7.61178">
        <ele>422.2</ele>
        <time>2022-10-01T11:38:11Z</time>
      </trkpt>
      <trkpt lat="47.22903" lon="7.61178">
        <ele>422.2</ele>
        <time>2022-10-01T11:38:12Z</time>
      </trkpt>
      <trkpt lat="47.22899" lon="7.61177">
        <ele>422.2</ele>
        <time>2022-10-01T11:38:13Z</time>
      </trkpt>
      <trkpt lat="47.22894" lon="7.61176">
        <ele>422.2</ele>
        <time>2022-10-01T11:38:14Z</time>
      </trkpt>
      <trkpt lat="47.2289" lon="7.61177">
        <ele>422.1</ele>
        <time>2022-10-01T11:38:15Z</time>
      </trkpt>
      <trkpt lat="47.22885" lon="7.61174">
        <ele>422.1</ele>
        <time>2022-10-01T11:38:16Z</time>
      </trkpt>
      <trkpt lat="47.22882" lon="7.61173">
        <ele>422.1</ele>
        <time>2022-10-01T11:38:17Z</time>
      </trkpt>
      <trkpt lat="47.22877" lon="7.61172">
        <ele>422</ele>
        <time>2022-10-01T11:38:18Z</time>
      </trkpt>
      <trkpt lat="47.22873" lon="7.61173">
        <ele>422</ele>
        <time>2022-10-01T11:38:19Z</time>
      </trkpt>
      <trkpt lat="47.22868" lon="7.6117">
        <ele>422</ele>
        <time>2022-10-01T11:38:20Z</time>
      </trkpt>
      <trkpt lat="47.22865" lon="7.61168">
        <ele>421.9</ele>
        <time>2022-10-01T11:38:21Z</time>
      </trkpt>
      <trkpt lat="47.22861" lon="7.61167">
        <ele>421.9</ele>
        <time>2022-10-01T11:38:22Z</time>
      </trkpt>
      <trkpt lat="47.22856" lon="7.61166">
        <ele>421.9</ele>
        <time>2022-10-01T11:38:23Z</time>
      </trkpt>
      <trkpt lat="47.22854" lon="7.61165">
        <ele>421.9</ele>
        <time>2022-10-01T11:38:24Z</time>
      </trkpt>
      <trkpt lat="47.22849" lon="7.61164">
        <ele>421.9</ele>
        <time>2022-10-01T11:38:25Z</time>
      </trkpt>
      <trkpt lat="47.22845" lon="7.61163">
        <ele>421.9</ele>
        <time>2022-10-01T11:38:26Z</time>
      </trkpt>
      <trkpt lat="47.22841" lon="7.61161">
        <ele>421.9</ele>
        <time>2022-10-01T11:38:27Z</time>
      </trkpt>
      <trkpt lat="47.22837" lon="7.61159">
        <ele>421.9</ele>
        <time>2022-10-01T11:38:28Z</time>
      </trkpt>
      <trkpt lat="47.22834" lon="7.61157">
        <ele>421.9</ele>
        <time>2022-10-01T11:38:29Z</time>
      </trkpt>
      <trkpt lat="47.2283" lon="7.61156">
        <ele>421.9</ele>
        <time>2022-10-01T11:38:30Z</time>
      </trkpt>
      <trkpt lat="47.22826" lon="7.61154">
        <ele>421.9</ele>
        <time>2022-10-01T11:38:31Z</time>
      </trkpt>
      <trkpt lat="47.22823" lon="7.61151">
        <ele>421.8</ele>
        <time>2022-10-01T11:38:32Z</time>
      </trkpt>
      <trkpt lat="47.22818" lon="7.61149">
        <ele>421.8</ele>
        <time>2022-10-01T11:38:33Z</time>
      </trkpt>
      <trkpt lat="47.22814" lon="7.61147">
        <ele>421.8</ele>
        <time>2022-10-01T11:38:34Z</time>
      </trkpt>
      <trkpt lat="47.2281" lon="7.61144">
        <ele>421.8</ele>
        <time>2022-10-01T11:38:35Z</time>
      </trkpt>
      <trkpt lat="47.22805" lon="7.61142">
        <ele>421.7</ele>
        <time>2022-10-01T11:38:36Z</time>
      </trkpt>
      <trkpt lat="47.228" lon="7.6114">
        <ele>421.7</ele>
        <time>2022-10-01T11:38:37Z</time>
      </trkpt>
      <trkpt lat="47.22796" lon="7.61138">
        <ele>421.7</ele>
        <time>2022-10-01T11:38:38Z</time>
      </trkpt>
      <trkpt lat="47.22791" lon="7.61136">
        <ele>421.7</ele>
        <time>2022-10-01T11:38:39Z</time>
      </trkpt>
      <trkpt lat="47.22786" lon="7.61134">
        <ele>421.7</ele>
        <time>2022-10-01T11:38:40Z</time>
      </trkpt>
      <trkpt lat="47.22782" lon="7.61132">
        <ele>421.7</ele>
        <time>2022-10-01T11:38:41Z</time>
      </trkpt>
      <trkpt lat="47.22777" lon="7.61131">
        <ele>421.7</ele>
        <time>2022-10-01T11:38:42Z</time>
      </trkpt>
      <trkpt lat="47.22773" lon="7.61129">
        <ele>421.7</ele>
        <time>2022-10-01T11:38:43Z</time>
      </trkpt>
      <trkpt lat="47.22769" lon="7.61128">
        <ele>421.8</ele>
        <time>2022-10-01T11:38:44Z</time>
      </trkpt>
      <trkpt lat="47.22765" lon="7.61128">
        <ele>421.8</ele>
        <time>2022-10-01T11:38:45Z</time>
      </trkpt>
      <trkpt lat="47.22761" lon="7.61129">
        <ele>421.8</ele>
        <time>2022-10-01T11:38:46Z</time>
      </trkpt>
      <trkpt lat="47.22757" lon="7.61128">
        <ele>421.8</ele>
        <time>2022-10-01T11:38:47Z</time>
      </trkpt>
      <trkpt lat="47.22752" lon="7.6113">
        <ele>421.9</ele>
        <time>2022-10-01T11:38:48Z</time>
      </trkpt>
      <trkpt lat="47.22748" lon="7.61132">
        <ele>421.9</ele>
        <time>2022-10-01T11:38:49Z</time>
      </trkpt>
      <trkpt lat="47.22745" lon="7.61132">
        <ele>421.9</ele>
        <time>2022-10-01T11:38:50Z</time>
      </trkpt>
      <trkpt lat="47.22741" lon="7.61131">
        <ele>421.9</ele>
        <time>2022-10-01T11:38:51Z</time>
      </trkpt>
      <trkpt lat="47.22737" lon="7.61129">
        <ele>421.9</ele>
        <time>2022-10-01T11:38:52Z</time>
      </trkpt>
      <trkpt lat="47.22733" lon="7.61128">
        <ele>421.9</ele>
        <time>2022-10-01T11:38:53Z</time>
      </trkpt>
      <trkpt lat="47.2273" lon="7.61126">
        <ele>421.9</ele>
        <time>2022-10-01T11:38:54Z</time>
      </trkpt>
      <trkpt lat="47.22726" lon="7.61122">
        <ele>421.9</ele>
        <time>2022-10-01T11:38:55Z</time>
      </trkpt>
      <trkpt lat="47.22723" lon="7.61117">
        <ele>421.9</ele>
        <time>2022-10-01T11:38:56Z</time>
      </trkpt>
      <trkpt lat="47.22719" lon="7.61114">
        <ele>421.9</ele>
        <time>2022-10-01T11:38:57Z</time>
      </trkpt>
      <trkpt lat="47.22715" lon="7.61112">
        <ele>421.9</ele>
        <time>2022-10-01T11:38:58Z</time>
      </trkpt>
      <trkpt lat="47.2271" lon="7.6111">
        <ele>421.9</ele>
        <time>2022-10-01T11:38:59Z</time>
      </trkpt>
      <trkpt lat="47.22706" lon="7.61106">
        <ele>421.9</ele>
        <time>2022-10-01T11:39:00Z</time>
      </trkpt>
      <trkpt lat="47.22702" lon="7.61103">
        <ele>422</ele>
        <time>2022-10-01T11:39:01Z</time>
      </trkpt>
      <trkpt lat="47.22699" lon="7.61101">
        <ele>422</ele>
        <time>2022-10-01T11:39:02Z</time>
      </trkpt>
      <trkpt lat="47.22695" lon="7.611">
        <ele>422</ele>
        <time>2022-10-01T11:39:03Z</time>
      </trkpt>
      <trkpt lat="47.22691" lon="7.61099">
        <ele>422</ele>
        <time>2022-10-01T11:39:04Z</time>
      </trkpt>
      <trkpt lat="47.22688" lon="7.611">
        <ele>421.9</ele>
        <time>2022-10-01T11:39:05Z</time>
      </trkpt>
      <trkpt lat="47.22685" lon="7.61103">
        <ele>421.9</ele>
        <time>2022-10-01T11:39:06Z</time>
      </trkpt>
      <trkpt lat="47.22683" lon="7.61106">
        <ele>421.9</ele>
        <time>2022-10-01T11:39:07Z</time>
      </trkpt>
      <trkpt lat="47.22682" lon="7.61111">
        <ele>421.9</ele>
        <time>2022-10-01T11:39:08Z</time>
      </trkpt>
      <trkpt lat="47.22681" lon="7.61116">
        <ele>421.8</ele>
        <time>2022-10-01T11:39:09Z</time>
      </trkpt>
      <trkpt lat="47.22679" lon="7.61121">
        <ele>421.8</ele>
        <time>2022-10-01T11:39:10Z</time>
      </trkpt>
      <trkpt lat="47.22677" lon="7.61127">
        <ele>421.8</ele>
        <time>2022-10-01T11:39:11Z</time>
      </trkpt>
      <trkpt lat="47.22674" lon="7.61132">
        <ele>421.7</ele>
        <time>2022-10-01T11:39:12Z</time>
      </trkpt>
      <trkpt lat="47.22671" lon="7.61136">
        <ele>421.7</ele>
        <time>2022-10-01T11:39:13Z</time>
      </trkpt>
      <trkpt lat="47.22667" lon="7.61139">
        <ele>421.7</ele>
        <time>2022-10-01T11:39:14Z</time>
      </trkpt>
      <trkpt lat="47.22663" lon="7.61143">
        <ele>421.6</ele>
        <time>2022-10-01T11:39:15Z</time>
      </trkpt>
      <trkpt lat="47.22659" lon="7.61144">
        <ele>421.6</ele>
        <time>2022-10-01T11:39:16Z</time>
      </trkpt>
      <trkpt lat="47.22655" lon="7.61147">
        <ele>421.6</ele>
        <time>2022-10-01T11:39:17Z</time>
      </trkpt>
      <trkpt lat="47.2265" lon="7.61149">
        <ele>421.6</ele>
        <time>2022-10-01T11:39:18Z</time>
      </trkpt>
      <trkpt lat="47.22645" lon="7.61151">
        <ele>421.6</ele>
        <time>2022-10-01T11:39:19Z</time>
      </trkpt>
      <trkpt lat="47.22641" lon="7.61153">
        <ele>421.6</ele>
        <time>2022-10-01T11:39:20Z</time>
      </trkpt>
      <trkpt lat="47.22636" lon="7.61156">
        <ele>421.6</ele>
        <time>2022-10-01T11:39:21Z</time>
      </trkpt>
      <trkpt lat="47.22632" lon="7.61158">
        <ele>421.6</ele>
        <time>2022-10-01T11:39:22Z</time>
      </trkpt>
      <trkpt lat="47.22628" lon="7.61159">
        <ele>421.6</ele>
        <time>2022-10-01T11:39:23Z</time>
      </trkpt>
      <trkpt lat="47.22624" lon="7.61161">
        <ele>421.7</ele>
        <time>2022-10-01T11:39:24Z</time>
      </trkpt>
      <trkpt lat="47.2262" lon="7.61163">
        <ele>421.7</ele>
        <time>2022-10-01T11:39:25Z</time>
      </trkpt>
      <trkpt lat="47.22616" lon="7.61166">
        <ele>421.8</ele>
        <time>2022-10-01T11:39:26Z</time>
      </trkpt>
      <trkpt lat="47.22612" lon="7.61167">
        <ele>421.8</ele>
        <time>2022-10-01T11:39:27Z</time>
      </trkpt>
      <trkpt lat="47.22609" lon="7.61171">
        <ele>421.9</ele>
        <time>2022-10-01T11:39:28Z</time>
      </trkpt>
      <trkpt lat="47.22607" lon="7.61177">
        <ele>421.9</ele>
        <time>2022-10-01T11:39:29Z</time>
      </trkpt>
      <trkpt lat="47.22605" lon="7.61182">
        <ele>422</ele>
        <time>2022-10-01T11:39:30Z</time>
      </trkpt>
      <trkpt lat="47.22605" lon="7.61188">
        <ele>422</ele>
        <time>2022-10-01T11:39:31Z</time>
      </trkpt>
      <trkpt lat="47.22606" lon="7.61194">
        <ele>422</ele>
        <time>2022-10-01T11:39:32Z</time>
      </trkpt>
      <trkpt lat="47.22606" lon="7.612">
        <ele>422</ele>
        <time>2022-10-01T11:39:33Z</time>
      </trkpt>
      <trkpt lat="47.22607" lon="7.61207">
        <ele>422.1</ele>
        <time>2022-10-01T11:39:34Z</time>
      </trkpt>
      <trkpt lat="47.22608" lon="7.61213">
        <ele>422.1</ele>
        <time>2022-10-01T11:39:36Z</time>
      </trkpt>
      <trkpt lat="47.22609" lon="7.61219">
        <ele>422.1</ele>
        <time>2022-10-01T11:39:37Z</time>
      </trkpt>
      <trkpt lat="47.2261" lon="7.61225">
        <ele>422.2</ele>
        <time>2022-10-01T11:39:38Z</time>
      </trkpt>
      <trkpt lat="47.22611" lon="7.61231">
        <ele>422.2</ele>
        <time>2022-10-01T11:39:39Z</time>
      </trkpt>
      <trkpt lat="47.22612" lon="7.61238">
        <ele>422.3</ele>
        <time>2022-10-01T11:39:40Z</time>
      </trkpt>
      <trkpt lat="47.22613" lon="7.61245">
        <ele>422.4</ele>
        <time>2022-10-01T11:39:41Z</time>
      </trkpt>
      <trkpt lat="47.22615" lon="7.61251">
        <ele>422.5</ele>
        <time>2022-10-01T11:39:42Z</time>
      </trkpt>
      <trkpt lat="47.22615" lon="7.61258">
        <ele>422.6</ele>
        <time>2022-10-01T11:39:43Z</time>
      </trkpt>
      <trkpt lat="47.22616" lon="7.61264">
        <ele>422.7</ele>
        <time>2022-10-01T11:39:44Z</time>
      </trkpt>
      <trkpt lat="47.22616" lon="7.61269">
        <ele>422.8</ele>
        <time>2022-10-01T11:39:45Z</time>
      </trkpt>
      <trkpt lat="47.22615" lon="7.61274">
        <ele>423</ele>
        <time>2022-10-01T11:39:46Z</time>
      </trkpt>
      <trkpt lat="47.22613" lon="7.61279">
        <ele>423.1</ele>
        <time>2022-10-01T11:39:47Z</time>
      </trkpt>
      <trkpt lat="47.22611" lon="7.61282">
        <ele>423.3</ele>
        <time>2022-10-01T11:39:48Z</time>
      </trkpt>
      <trkpt lat="47.22607" lon="7.61284">
        <ele>423.4</ele>
        <time>2022-10-01T11:39:49Z</time>
      </trkpt>
      <trkpt lat="47.22606" lon="7.61285">
        <ele>423.5</ele>
        <time>2022-10-01T11:39:50Z</time>
      </trkpt>
      <trkpt lat="47.22603" lon="7.61287">
        <ele>423.6</ele>
        <time>2022-10-01T11:39:51Z</time>
      </trkpt>
      <trkpt lat="47.226" lon="7.61288">
        <ele>423.8</ele>
        <time>2022-10-01T11:39:52Z</time>
      </trkpt>
      <trkpt lat="47.22598" lon="7.61288">
        <ele>423.9</ele>
        <time>2022-10-01T11:39:53Z</time>
      </trkpt>
      <trkpt lat="47.22595" lon="7.61289">
        <ele>424.1</ele>
        <time>2022-10-01T11:39:54Z</time>
      </trkpt>
      <trkpt lat="47.22592" lon="7.61289">
        <ele>424.2</ele>
        <time>2022-10-01T11:39:55Z</time>
      </trkpt>
      <trkpt lat="47.22587" lon="7.61291">
        <ele>424.5</ele>
        <time>2022-10-01T11:39:56Z</time>
      </trkpt>
      <trkpt lat="47.22584" lon="7.61292">
        <ele>424.7</ele>
        <time>2022-10-01T11:39:57Z</time>
      </trkpt>
      <trkpt lat="47.22582" lon="7.61293">
        <ele>424.8</ele>
        <time>2022-10-01T11:39:58Z</time>
      </trkpt>
      <trkpt lat="47.22579" lon="7.61295">
        <ele>425</ele>
        <time>2022-10-01T11:39:59Z</time>
      </trkpt>
      <trkpt lat="47.22578" lon="7.61296">
        <ele>425.1</ele>
        <time>2022-10-01T11:40:00Z</time>
      </trkpt>
      <trkpt lat="47.22574" lon="7.61297">
        <ele>425.3</ele>
        <time>2022-10-01T11:40:01Z</time>
      </trkpt>
      <trkpt lat="47.22573" lon="7.61297">
        <ele>425.4</ele>
        <time>2022-10-01T11:40:02Z</time>
      </trkpt>
      <trkpt lat="47.2257" lon="7.61298">
        <ele>425.6</ele>
        <time>2022-10-01T11:40:03Z</time>
      </trkpt>
      <trkpt lat="47.22569" lon="7.61298">
        <ele>425.6</ele>
        <time>2022-10-01T11:40:04Z</time>
      </trkpt>
      <trkpt lat="47.22566" lon="7.61299">
        <ele>425.9</ele>
        <time>2022-10-01T11:40:05Z</time>
      </trkpt>
      <trkpt lat="47.22564" lon="7.61299">
        <ele>425.9</ele>
        <time>2022-10-01T11:40:06Z</time>
      </trkpt>
      <trkpt lat="47.22561" lon="7.61301">
        <ele>426.1</ele>
        <time>2022-10-01T11:40:07Z</time>
      </trkpt>
      <trkpt lat="47.22561" lon="7.61301">
        <ele>426.2</ele>
        <time>2022-10-01T11:40:08Z</time>
      </trkpt>
      <trkpt lat="47.22558" lon="7.61303">
        <ele>426.4</ele>
        <time>2022-10-01T11:40:09Z</time>
      </trkpt>
      <trkpt lat="47.22557" lon="7.61304">
        <ele>426.4</ele>
        <time>2022-10-01T11:40:10Z</time>
      </trkpt>
      <trkpt lat="47.22554" lon="7.61306">
        <ele>426.6</ele>
        <time>2022-10-01T11:40:11Z</time>
      </trkpt>
      <trkpt lat="47.22553" lon="7.61306">
        <ele>426.7</ele>
        <time>2022-10-01T11:40:12Z</time>
      </trkpt>
      <trkpt lat="47.22549" lon="7.61307">
        <ele>426.9</ele>
        <time>2022-10-01T11:40:13Z</time>
      </trkpt>
      <trkpt lat="47.22548" lon="7.61308">
        <ele>426.9</ele>
        <time>2022-10-01T11:40:14Z</time>
      </trkpt>
      <trkpt lat="47.22545" lon="7.61309">
        <ele>427.1</ele>
        <time>2022-10-01T11:40:15Z</time>
      </trkpt>
      <trkpt lat="47.22544" lon="7.61309">
        <ele>427.2</ele>
        <time>2022-10-01T11:40:16Z</time>
      </trkpt>
      <trkpt lat="47.22542" lon="7.61309">
        <ele>427.3</ele>
        <time>2022-10-01T11:40:17Z</time>
      </trkpt>
      <trkpt lat="47.22541" lon="7.6131">
        <ele>427.4</ele>
        <time>2022-10-01T11:40:18Z</time>
      </trkpt>
      <trkpt lat="47.2254" lon="7.6131">
        <ele>427.4</ele>
        <time>2022-10-01T11:40:19Z</time>
      </trkpt>
      <trkpt lat="47.22538" lon="7.61311">
        <ele>427.5</ele>
        <time>2022-10-01T11:40:20Z</time>
      </trkpt>
      <trkpt lat="47.22535" lon="7.61312">
        <ele>427.7</ele>
        <time>2022-10-01T11:40:21Z</time>
      </trkpt>
      <trkpt lat="47.22534" lon="7.61313">
        <ele>427.7</ele>
        <time>2022-10-01T11:40:22Z</time>
      </trkpt>
      <trkpt lat="47.22533" lon="7.61315">
        <ele>427.8</ele>
        <time>2022-10-01T11:40:23Z</time>
      </trkpt>
      <trkpt lat="47.22531" lon="7.61316">
        <ele>427.9</ele>
        <time>2022-10-01T11:40:24Z</time>
      </trkpt>
      <trkpt lat="47.22528" lon="7.61317">
        <ele>428</ele>
        <time>2022-10-01T11:40:25Z</time>
      </trkpt>
      <trkpt lat="47.22527" lon="7.61317">
        <ele>428</ele>
        <time>2022-10-01T11:40:26Z</time>
      </trkpt>
      <trkpt lat="47.22524" lon="7.61319">
        <ele>428.1</ele>
        <time>2022-10-01T11:40:27Z</time>
      </trkpt>
      <trkpt lat="47.22523" lon="7.6132">
        <ele>428.1</ele>
        <time>2022-10-01T11:40:28Z</time>
      </trkpt>
      <trkpt lat="47.22521" lon="7.61322">
        <ele>428.1</ele>
        <time>2022-10-01T11:40:29Z</time>
      </trkpt>
      <trkpt lat="47.2252" lon="7.61323">
        <ele>428.2</ele>
        <time>2022-10-01T11:40:30Z</time>
      </trkpt>
      <trkpt lat="47.22516" lon="7.61324">
        <ele>428.2</ele>
        <time>2022-10-01T11:40:31Z</time>
      </trkpt>
      <trkpt lat="47.22515" lon="7.61325">
        <ele>428.2</ele>
        <time>2022-10-01T11:40:32Z</time>
      </trkpt>
      <trkpt lat="47.22512" lon="7.61326">
        <ele>428.2</ele>
        <time>2022-10-01T11:40:33Z</time>
      </trkpt>
      <trkpt lat="47.22509" lon="7.61328">
        <ele>428.2</ele>
        <time>2022-10-01T11:40:34Z</time>
      </trkpt>
      <trkpt lat="47.22507" lon="7.61328">
        <ele>428.2</ele>
        <time>2022-10-01T11:40:35Z</time>
      </trkpt>
      <trkpt lat="47.22505" lon="7.6133">
        <ele>428.2</ele>
        <time>2022-10-01T11:40:36Z</time>
      </trkpt>
      <trkpt lat="47.22502" lon="7.61331">
        <ele>428.1</ele>
        <time>2022-10-01T11:40:37Z</time>
      </trkpt>
      <trkpt lat="47.22499" lon="7.61332">
        <ele>428.1</ele>
        <time>2022-10-01T11:40:38Z</time>
      </trkpt>
      <trkpt lat="47.22496" lon="7.61334">
        <ele>428</ele>
        <time>2022-10-01T11:40:39Z</time>
      </trkpt>
      <trkpt lat="47.22494" lon="7.61336">
        <ele>427.9</ele>
        <time>2022-10-01T11:40:40Z</time>
      </trkpt>
      <trkpt lat="47.22491" lon="7.61338">
        <ele>427.8</ele>
        <time>2022-10-01T11:40:41Z</time>
      </trkpt>
      <trkpt lat="47.22488" lon="7.6134">
        <ele>427.7</ele>
        <time>2022-10-01T11:40:42Z</time>
      </trkpt>
      <trkpt lat="47.22485" lon="7.61342">
        <ele>427.5</ele>
        <time>2022-10-01T11:40:43Z</time>
      </trkpt>
      <trkpt lat="47.22482" lon="7.61344">
        <ele>427.3</ele>
        <time>2022-10-01T11:40:44Z</time>
      </trkpt>
      <trkpt lat="47.22477" lon="7.61346">
        <ele>427</ele>
        <time>2022-10-01T11:40:45Z</time>
      </trkpt>
      <trkpt lat="47.22473" lon="7.61348">
        <ele>426.8</ele>
        <time>2022-10-01T11:40:46Z</time>
      </trkpt>
      <trkpt lat="47.22469" lon="7.61351">
        <ele>426.5</ele>
        <time>2022-10-01T11:40:47Z</time>
      </trkpt>
      <trkpt lat="47.22463" lon="7.61354">
        <ele>426.2</ele>
        <time>2022-10-01T11:40:48Z</time>
      </trkpt>
      <trkpt lat="47.22458" lon="7.61357">
        <ele>425.9</ele>
        <time>2022-10-01T11:40:49Z</time>
      </trkpt>
      <trkpt lat="47.22452" lon="7.61359">
        <ele>425.6</ele>
        <time>2022-10-01T11:40:50Z</time>
      </trkpt>
      <trkpt lat="47.22446" lon="7.61362">
        <ele>425.2</ele>
        <time>2022-10-01T11:40:51Z</time>
      </trkpt>
      <trkpt lat="47.2244" lon="7.61365">
        <ele>424.9</ele>
        <time>2022-10-01T11:40:52Z</time>
      </trkpt>
      <trkpt lat="47.22434" lon="7.61368">
        <ele>424.6</ele>
        <time>2022-10-01T11:40:53Z</time>
      </trkpt>
      <trkpt lat="47.22427" lon="7.61371">
        <ele>424.4</ele>
        <time>2022-10-01T11:40:54Z</time>
      </trkpt>
      <trkpt lat="47.22421" lon="7.61374">
        <ele>424.1</ele>
        <time>2022-10-01T11:40:55Z</time>
      </trkpt>
      <trkpt lat="47.22415" lon="7.61377">
        <ele>423.9</ele>
        <time>2022-10-01T11:40:56Z</time>
      </trkpt>
      <trkpt lat="47.22408" lon="7.61381">
        <ele>423.7</ele>
        <time>2022-10-01T11:40:57Z</time>
      </trkpt>
      <trkpt lat="47.22401" lon="7.61384">
        <ele>423.6</ele>
        <time>2022-10-01T11:40:58Z</time>
      </trkpt>
      <trkpt lat="47.22395" lon="7.61387">
        <ele>423.5</ele>
        <time>2022-10-01T11:40:59Z</time>
      </trkpt>
      <trkpt lat="47.22389" lon="7.6139">
        <ele>423.5</ele>
        <time>2022-10-01T11:41:00Z</time>
      </trkpt>
      <trkpt lat="47.22383" lon="7.61392">
        <ele>423.4</ele>
        <time>2022-10-01T11:41:01Z</time>
      </trkpt>
      <trkpt lat="47.22377" lon="7.61394">
        <ele>423.4</ele>
        <time>2022-10-01T11:41:02Z</time>
      </trkpt>
      <trkpt lat="47.22371" lon="7.61396">
        <ele>423.4</ele>
        <time>2022-10-01T11:41:03Z</time>
      </trkpt>
      <trkpt lat="47.22365" lon="7.61399">
        <ele>423.4</ele>
        <time>2022-10-01T11:41:04Z</time>
      </trkpt>
      <trkpt lat="47.2236" lon="7.61401">
        <ele>423.4</ele>
        <time>2022-10-01T11:41:05Z</time>
      </trkpt>
      <trkpt lat="47.22355" lon="7.61403">
        <ele>423.4</ele>
        <time>2022-10-01T11:41:06Z</time>
      </trkpt>
      <trkpt lat="47.22349" lon="7.61405">
        <ele>423.4</ele>
        <time>2022-10-01T11:41:07Z</time>
      </trkpt>
      <trkpt lat="47.22344" lon="7.61407">
        <ele>423.4</ele>
        <time>2022-10-01T11:41:08Z</time>
      </trkpt>
      <trkpt lat="47.22339" lon="7.61409">
        <ele>423.4</ele>
        <time>2022-10-01T11:41:09Z</time>
      </trkpt>
      <trkpt lat="47.22334" lon="7.61411">
        <ele>423.5</ele>
        <time>2022-10-01T11:41:10Z</time>
      </trkpt>
      <trkpt lat="47.22329" lon="7.61413">
        <ele>423.5</ele>
        <time>2022-10-01T11:41:11Z</time>
      </trkpt>
      <trkpt lat="47.22325" lon="7.61414">
        <ele>423.5</ele>
        <time>2022-10-01T11:41:12Z</time>
      </trkpt>
      <trkpt lat="47.22319" lon="7.61416">
        <ele>423.6</ele>
        <time>2022-10-01T11:41:13Z</time>
      </trkpt>
      <trkpt lat="47.22315" lon="7.61417">
        <ele>423.6</ele>
        <time>2022-10-01T11:41:14Z</time>
      </trkpt>
      <trkpt lat="47.2231" lon="7.61418">
        <ele>423.6</ele>
        <time>2022-10-01T11:41:15Z</time>
      </trkpt>
      <trkpt lat="47.22305" lon="7.61419">
        <ele>423.7</ele>
        <time>2022-10-01T11:41:16Z</time>
      </trkpt>
      <trkpt lat="47.22301" lon="7.6142">
        <ele>423.7</ele>
        <time>2022-10-01T11:41:17Z</time>
      </trkpt>
      <trkpt lat="47.22296" lon="7.61421">
        <ele>423.7</ele>
        <time>2022-10-01T11:41:18Z</time>
      </trkpt>
      <trkpt lat="47.22291" lon="7.61421">
        <ele>423.8</ele>
        <time>2022-10-01T11:41:19Z</time>
      </trkpt>
      <trkpt lat="47.22287" lon="7.61423">
        <ele>423.8</ele>
        <time>2022-10-01T11:41:20Z</time>
      </trkpt>
      <trkpt lat="47.22282" lon="7.61424">
        <ele>423.8</ele>
        <time>2022-10-01T11:41:21Z</time>
      </trkpt>
      <trkpt lat="47.22277" lon="7.61426">
        <ele>423.8</ele>
        <time>2022-10-01T11:41:22Z</time>
      </trkpt>
      <trkpt lat="47.22272" lon="7.61427">
        <ele>423.8</ele>
        <time>2022-10-01T11:41:23Z</time>
      </trkpt>
      <trkpt lat="47.22267" lon="7.61428">
        <ele>423.8</ele>
        <time>2022-10-01T11:41:24Z</time>
      </trkpt>
      <trkpt lat="47.22262" lon="7.6143">
        <ele>423.8</ele>
        <time>2022-10-01T11:41:25Z</time>
      </trkpt>
      <trkpt lat="47.22256" lon="7.6143">
        <ele>423.9</ele>
        <time>2022-10-01T11:41:26Z</time>
      </trkpt>
      <trkpt lat="47.22251" lon="7.61431">
        <ele>423.9</ele>
        <time>2022-10-01T11:41:27Z</time>
      </trkpt>
      <trkpt lat="47.22247" lon="7.61432">
        <ele>423.9</ele>
        <time>2022-10-01T11:41:28Z</time>
      </trkpt>
      <trkpt lat="47.22241" lon="7.61433">
        <ele>424</ele>
        <time>2022-10-01T11:41:29Z</time>
      </trkpt>
      <trkpt lat="47.22236" lon="7.61435">
        <ele>424</ele>
        <time>2022-10-01T11:41:30Z</time>
      </trkpt>
      <trkpt lat="47.22231" lon="7.61436">
        <ele>424.1</ele>
        <time>2022-10-01T11:41:31Z</time>
      </trkpt>
      <trkpt lat="47.22226" lon="7.61438">
        <ele>424.1</ele>
        <time>2022-10-01T11:41:32Z</time>
      </trkpt>
      <trkpt lat="47.22223" lon="7.6144">
        <ele>424.1</ele>
        <time>2022-10-01T11:41:33Z</time>
      </trkpt>
      <trkpt lat="47.2222" lon="7.61443">
        <ele>424.2</ele>
        <time>2022-10-01T11:41:34Z</time>
      </trkpt>
      <trkpt lat="47.22219" lon="7.61445">
        <ele>424.2</ele>
        <time>2022-10-01T11:41:35Z</time>
      </trkpt>
      <trkpt lat="47.22219" lon="7.61447">
        <ele>424.2</ele>
        <time>2022-10-01T11:41:36Z</time>
      </trkpt>
      <trkpt lat="47.22219" lon="7.61449">
        <ele>424.3</ele>
        <time>2022-10-01T11:41:37Z</time>
      </trkpt>
      <trkpt lat="47.22219" lon="7.61449">
        <ele>424.3</ele>
        <time>2022-10-01T11:41:38Z</time>
      </trkpt>
      <trkpt lat="47.22219" lon="7.6145">
        <ele>424.3</ele>
        <time>2022-10-01T11:41:39Z</time>
      </trkpt>
      <trkpt lat="47.22219" lon="7.6145">
        <ele>424.3</ele>
        <time>2022-10-01T11:41:40Z</time>
      </trkpt>
      <trkpt lat="47.22219" lon="7.6145">
        <ele>424.3</ele>
        <time>2022-10-01T11:41:41Z</time>
      </trkpt>
      <trkpt lat="47.22219" lon="7.61451">
        <ele>424.3</ele>
        <time>2022-10-01T11:41:42Z</time>
      </trkpt>
      <trkpt lat="47.22219" lon="7.61451">
        <ele>424.3</ele>
        <time>2022-10-01T11:41:43Z</time>
      </trkpt>
      <trkpt lat="47.22219" lon="7.61451">
        <ele>424.3</ele>
        <time>2022-10-01T11:41:44Z</time>
      </trkpt>
      <trkpt lat="47.22219" lon="7.61452">
        <ele>424.3</ele>
        <time>2022-10-01T11:41:45Z</time>
      </trkpt>
      <trkpt lat="47.22219" lon="7.61452">
        <ele>424.2</ele>
        <time>2022-10-01T11:41:46Z</time>
      </trkpt>
      <trkpt lat="47.22219" lon="7.61454">
        <ele>424.2</ele>
        <time>2022-10-01T11:41:47Z</time>
      </trkpt>
      <trkpt lat="47.22219" lon="7.61456">
        <ele>424.2</ele>
        <time>2022-10-01T11:41:48Z</time>
      </trkpt>
      <trkpt lat="47.22221" lon="7.6146">
        <ele>424.2</ele>
        <time>2022-10-01T11:41:49Z</time>
      </trkpt>
      <trkpt lat="47.22222" lon="7.61461">
        <ele>424.2</ele>
        <time>2022-10-01T11:41:50Z</time>
      </trkpt>
      <trkpt lat="47.22224" lon="7.61463">
        <ele>424.2</ele>
        <time>2022-10-01T11:41:51Z</time>
      </trkpt>
      <trkpt lat="47.22227" lon="7.61466">
        <ele>424.2</ele>
        <time>2022-10-01T11:41:52Z</time>
      </trkpt>
      <trkpt lat="47.22228" lon="7.61467">
        <ele>424.2</ele>
        <time>2022-10-01T11:41:53Z</time>
      </trkpt>
      <trkpt lat="47.22231" lon="7.61469">
        <ele>424.1</ele>
        <time>2022-10-01T11:41:54Z</time>
      </trkpt>
      <trkpt lat="47.22234" lon="7.61472">
        <ele>424.1</ele>
        <time>2022-10-01T11:41:55Z</time>
      </trkpt>
      <trkpt lat="47.22236" lon="7.61474">
        <ele>424.1</ele>
        <time>2022-10-01T11:41:56Z</time>
      </trkpt>
      <trkpt lat="47.22239" lon="7.61477">
        <ele>424.1</ele>
        <time>2022-10-01T11:41:57Z</time>
      </trkpt>
      <trkpt lat="47.22242" lon="7.61479">
        <ele>424.1</ele>
        <time>2022-10-01T11:41:58Z</time>
      </trkpt>
      <trkpt lat="47.22246" lon="7.61482">
        <ele>424.1</ele>
        <time>2022-10-01T11:41:59Z</time>
      </trkpt>
      <trkpt lat="47.2225" lon="7.61485">
        <ele>424</ele>
        <time>2022-10-01T11:42:00Z</time>
      </trkpt>
      <trkpt lat="47.22254" lon="7.61489">
        <ele>424</ele>
        <time>2022-10-01T11:42:01Z</time>
      </trkpt>
      <trkpt lat="47.22258" lon="7.61492">
        <ele>424</ele>
        <time>2022-10-01T11:42:02Z</time>
      </trkpt>
      <trkpt lat="47.22262" lon="7.61495">
        <ele>424</ele>
        <time>2022-10-01T11:42:03Z</time>
      </trkpt>
      <trkpt lat="47.22266" lon="7.61499">
        <ele>424</ele>
        <time>2022-10-01T11:42:04Z</time>
      </trkpt>
      <trkpt lat="47.2227" lon="7.61503">
        <ele>424</ele>
        <time>2022-10-01T11:42:05Z</time>
      </trkpt>
      <trkpt lat="47.22274" lon="7.61507">
        <ele>424</ele>
        <time>2022-10-01T11:42:06Z</time>
      </trkpt>
      <trkpt lat="47.22278" lon="7.61511">
        <ele>424</ele>
        <time>2022-10-01T11:42:07Z</time>
      </trkpt>
      <trkpt lat="47.22282" lon="7.61514">
        <ele>424</ele>
        <time>2022-10-01T11:42:08Z</time>
      </trkpt>
      <trkpt lat="47.22286" lon="7.61519">
        <ele>424</ele>
        <time>2022-10-01T11:42:09Z</time>
      </trkpt>
      <trkpt lat="47.2229" lon="7.61523">
        <ele>424</ele>
        <time>2022-10-01T11:42:10Z</time>
      </trkpt>
      <trkpt lat="47.22294" lon="7.61528">
        <ele>424</ele>
        <time>2022-10-01T11:42:11Z</time>
      </trkpt>
      <trkpt lat="47.22298" lon="7.61532">
        <ele>424</ele>
        <time>2022-10-01T11:42:12Z</time>
      </trkpt>
      <trkpt lat="47.22302" lon="7.61537">
        <ele>424</ele>
        <time>2022-10-01T11:42:13Z</time>
      </trkpt>
      <trkpt lat="47.22306" lon="7.61542">
        <ele>424</ele>
        <time>2022-10-01T11:42:14Z</time>
      </trkpt>
      <trkpt lat="47.22309" lon="7.61548">
        <ele>424</ele>
        <time>2022-10-01T11:42:15Z</time>
      </trkpt>
      <trkpt lat="47.22313" lon="7.61554">
        <ele>424</ele>
        <time>2022-10-01T11:42:16Z</time>
      </trkpt>
      <trkpt lat="47.22317" lon="7.61559">
        <ele>424</ele>
        <time>2022-10-01T11:42:17Z</time>
      </trkpt>
      <trkpt lat="47.22321" lon="7.61564">
        <ele>424</ele>
        <time>2022-10-01T11:42:18Z</time>
      </trkpt>
      <trkpt lat="47.22325" lon="7.61569">
        <ele>424</ele>
        <time>2022-10-01T11:42:19Z</time>
      </trkpt>
      <trkpt lat="47.22329" lon="7.61573">
        <ele>424</ele>
        <time>2022-10-01T11:42:20Z</time>
      </trkpt>
      <trkpt lat="47.22334" lon="7.61577">
        <ele>424</ele>
        <time>2022-10-01T11:42:21Z</time>
      </trkpt>
      <trkpt lat="47.22339" lon="7.61582">
        <ele>423.9</ele>
        <time>2022-10-01T11:42:22Z</time>
      </trkpt>
      <trkpt lat="47.22343" lon="7.61585">
        <ele>423.9</ele>
        <time>2022-10-01T11:42:23Z</time>
      </trkpt>
      <trkpt lat="47.22348" lon="7.61589">
        <ele>423.9</ele>
        <time>2022-10-01T11:42:24Z</time>
      </trkpt>
      <trkpt lat="47.22354" lon="7.61593">
        <ele>423.9</ele>
        <time>2022-10-01T11:42:25Z</time>
      </trkpt>
      <trkpt lat="47.22359" lon="7.61597">
        <ele>423.9</ele>
        <time>2022-10-01T11:42:26Z</time>
      </trkpt>
      <trkpt lat="47.22364" lon="7.61601">
        <ele>423.9</ele>
        <time>2022-10-01T11:42:27Z</time>
      </trkpt>
      <trkpt lat="47.22368" lon="7.61605">
        <ele>423.9</ele>
        <time>2022-10-01T11:42:28Z</time>
      </trkpt>
      <trkpt lat="47.22373" lon="7.61609">
        <ele>423.9</ele>
        <time>2022-10-01T11:42:29Z</time>
      </trkpt>
      <trkpt lat="47.22378" lon="7.61613">
        <ele>423.9</ele>
        <time>2022-10-01T11:42:30Z</time>
      </trkpt>
      <trkpt lat="47.22383" lon="7.61616">
        <ele>423.9</ele>
        <time>2022-10-01T11:42:31Z</time>
      </trkpt>
      <trkpt lat="47.22388" lon="7.61619">
        <ele>423.9</ele>
        <time>2022-10-01T11:42:32Z</time>
      </trkpt>
      <trkpt lat="47.22393" lon="7.6162">
        <ele>423.9</ele>
        <time>2022-10-01T11:42:33Z</time>
      </trkpt>
      <trkpt lat="47.22398" lon="7.61622">
        <ele>423.9</ele>
        <time>2022-10-01T11:42:34Z</time>
      </trkpt>
      <trkpt lat="47.22403" lon="7.61624">
        <ele>423.9</ele>
        <time>2022-10-01T11:42:35Z</time>
      </trkpt>
      <trkpt lat="47.22408" lon="7.61625">
        <ele>423.9</ele>
        <time>2022-10-01T11:42:36Z</time>
      </trkpt>
      <trkpt lat="47.22414" lon="7.61627">
        <ele>423.9</ele>
        <time>2022-10-01T11:42:37Z</time>
      </trkpt>
      <trkpt lat="47.22419" lon="7.61628">
        <ele>423.9</ele>
        <time>2022-10-01T11:42:38Z</time>
      </trkpt>
      <trkpt lat="47.22424" lon="7.6163">
        <ele>423.8</ele>
        <time>2022-10-01T11:42:39Z</time>
      </trkpt>
      <trkpt lat="47.2243" lon="7.61631">
        <ele>423.8</ele>
        <time>2022-10-01T11:42:40Z</time>
      </trkpt>
      <trkpt lat="47.22435" lon="7.61632">
        <ele>423.8</ele>
        <time>2022-10-01T11:42:41Z</time>
      </trkpt>
      <trkpt lat="47.22439" lon="7.61633">
        <ele>423.8</ele>
        <time>2022-10-01T11:42:42Z</time>
      </trkpt>
      <trkpt lat="47.22444" lon="7.61634">
        <ele>423.8</ele>
        <time>2022-10-01T11:42:43Z</time>
      </trkpt>
      <trkpt lat="47.22449" lon="7.61635">
        <ele>423.8</ele>
        <time>2022-10-01T11:42:44Z</time>
      </trkpt>
      <trkpt lat="47.22454" lon="7.61634">
        <ele>423.8</ele>
        <time>2022-10-01T11:42:45Z</time>
      </trkpt>
      <trkpt lat="47.22459" lon="7.61635">
        <ele>423.7</ele>
        <time>2022-10-01T11:42:46Z</time>
      </trkpt>
      <trkpt lat="47.22463" lon="7.61636">
        <ele>423.7</ele>
        <time>2022-10-01T11:42:47Z</time>
      </trkpt>
      <trkpt lat="47.22469" lon="7.61637">
        <ele>423.6</ele>
        <time>2022-10-01T11:42:48Z</time>
      </trkpt>
      <trkpt lat="47.22473" lon="7.6164">
        <ele>423.5</ele>
        <time>2022-10-01T11:42:49Z</time>
      </trkpt>
      <trkpt lat="47.22479" lon="7.61642">
        <ele>423.5</ele>
        <time>2022-10-01T11:42:50Z</time>
      </trkpt>
      <trkpt lat="47.22484" lon="7.61644">
        <ele>423.4</ele>
        <time>2022-10-01T11:42:51Z</time>
      </trkpt>
      <trkpt lat="47.22489" lon="7.61649">
        <ele>423.4</ele>
        <time>2022-10-01T11:42:52Z</time>
      </trkpt>
      <trkpt lat="47.22494" lon="7.61654">
        <ele>423.4</ele>
        <time>2022-10-01T11:42:53Z</time>
      </trkpt>
      <trkpt lat="47.22499" lon="7.61658">
        <ele>423.3</ele>
        <time>2022-10-01T11:42:54Z</time>
      </trkpt>
      <trkpt lat="47.22503" lon="7.61663">
        <ele>423.3</ele>
        <time>2022-10-01T11:42:55Z</time>
      </trkpt>
      <trkpt lat="47.22507" lon="7.61668">
        <ele>423.2</ele>
        <time>2022-10-01T11:42:56Z</time>
      </trkpt>
      <trkpt lat="47.22511" lon="7.61672">
        <ele>423.2</ele>
        <time>2022-10-01T11:42:57Z</time>
      </trkpt>
      <trkpt lat="47.22516" lon="7.61677">
        <ele>423.2</ele>
        <time>2022-10-01T11:42:58Z</time>
      </trkpt>
      <trkpt lat="47.2252" lon="7.61681">
        <ele>423.2</ele>
        <time>2022-10-01T11:42:59Z</time>
      </trkpt>
      <trkpt lat="47.22524" lon="7.61686">
        <ele>423.2</ele>
        <time>2022-10-01T11:43:00Z</time>
      </trkpt>
      <trkpt lat="47.22528" lon="7.61691">
        <ele>423.2</ele>
        <time>2022-10-01T11:43:01Z</time>
      </trkpt>
      <trkpt lat="47.22533" lon="7.61696">
        <ele>423.2</ele>
        <time>2022-10-01T11:43:02Z</time>
      </trkpt>
      <trkpt lat="47.22538" lon="7.61699">
        <ele>423.1</ele>
        <time>2022-10-01T11:43:03Z</time>
      </trkpt>
      <trkpt lat="47.22543" lon="7.61705">
        <ele>423.1</ele>
        <time>2022-10-01T11:43:04Z</time>
      </trkpt>
      <trkpt lat="47.22548" lon="7.61711">
        <ele>423.1</ele>
        <time>2022-10-01T11:43:05Z</time>
      </trkpt>
      <trkpt lat="47.22552" lon="7.61716">
        <ele>423.1</ele>
        <time>2022-10-01T11:43:06Z</time>
      </trkpt>
      <trkpt lat="47.22558" lon="7.61722">
        <ele>423</ele>
        <time>2022-10-01T11:43:07Z</time>
      </trkpt>
      <trkpt lat="47.22563" lon="7.61728">
        <ele>423</ele>
        <time>2022-10-01T11:43:08Z</time>
      </trkpt>
      <trkpt lat="47.22567" lon="7.61733">
        <ele>423</ele>
        <time>2022-10-01T11:43:09Z</time>
      </trkpt>
      <trkpt lat="47.22572" lon="7.61738">
        <ele>423</ele>
        <time>2022-10-01T11:43:10Z</time>
      </trkpt>
      <trkpt lat="47.22577" lon="7.61743">
        <ele>422.9</ele>
        <time>2022-10-01T11:43:11Z</time>
      </trkpt>
      <trkpt lat="47.22581" lon="7.61749">
        <ele>422.9</ele>
        <time>2022-10-01T11:43:12Z</time>
      </trkpt>
      <trkpt lat="47.22586" lon="7.61755">
        <ele>422.9</ele>
        <time>2022-10-01T11:43:13Z</time>
      </trkpt>
      <trkpt lat="47.22591" lon="7.61761">
        <ele>422.9</ele>
        <time>2022-10-01T11:43:14Z</time>
      </trkpt>
      <trkpt lat="47.22595" lon="7.61766">
        <ele>422.9</ele>
        <time>2022-10-01T11:43:15Z</time>
      </trkpt>
      <trkpt lat="47.226" lon="7.61771">
        <ele>422.8</ele>
        <time>2022-10-01T11:43:16Z</time>
      </trkpt>
      <trkpt lat="47.22604" lon="7.61776">
        <ele>422.8</ele>
        <time>2022-10-01T11:43:17Z</time>
      </trkpt>
      <trkpt lat="47.22609" lon="7.61781">
        <ele>422.8</ele>
        <time>2022-10-01T11:43:18Z</time>
      </trkpt>
      <trkpt lat="47.22614" lon="7.61787">
        <ele>422.8</ele>
        <time>2022-10-01T11:43:19Z</time>
      </trkpt>
      <trkpt lat="47.22618" lon="7.61792">
        <ele>422.7</ele>
        <time>2022-10-01T11:43:20Z</time>
      </trkpt>
      <trkpt lat="47.22623" lon="7.61798">
        <ele>422.7</ele>
        <time>2022-10-01T11:43:21Z</time>
      </trkpt>
      <trkpt lat="47.22628" lon="7.61803">
        <ele>422.7</ele>
        <time>2022-10-01T11:43:22Z</time>
      </trkpt>
      <trkpt lat="47.22632" lon="7.61808">
        <ele>422.7</ele>
        <time>2022-10-01T11:43:23Z</time>
      </trkpt>
      <trkpt lat="47.22637" lon="7.61814">
        <ele>422.7</ele>
        <time>2022-10-01T11:43:24Z</time>
      </trkpt>
      <trkpt lat="47.22641" lon="7.61818">
        <ele>422.7</ele>
        <time>2022-10-01T11:43:25Z</time>
      </trkpt>
      <trkpt lat="47.22646" lon="7.61823">
        <ele>422.6</ele>
        <time>2022-10-01T11:43:26Z</time>
      </trkpt>
      <trkpt lat="47.22651" lon="7.61829">
        <ele>422.6</ele>
        <time>2022-10-01T11:43:27Z</time>
      </trkpt>
      <trkpt lat="47.22655" lon="7.61834">
        <ele>422.6</ele>
        <time>2022-10-01T11:43:28Z</time>
      </trkpt>
      <trkpt lat="47.2266" lon="7.6184">
        <ele>422.6</ele>
        <time>2022-10-01T11:43:29Z</time>
      </trkpt>
      <trkpt lat="47.22665" lon="7.61845">
        <ele>422.6</ele>
        <time>2022-10-01T11:43:30Z</time>
      </trkpt>
      <trkpt lat="47.2267" lon="7.61849">
        <ele>422.6</ele>
        <time>2022-10-01T11:43:31Z</time>
      </trkpt>
      <trkpt lat="47.22674" lon="7.61855">
        <ele>422.6</ele>
        <time>2022-10-01T11:43:32Z</time>
      </trkpt>
      <trkpt lat="47.22679" lon="7.6186">
        <ele>422.6</ele>
        <time>2022-10-01T11:43:33Z</time>
      </trkpt>
      <trkpt lat="47.22683" lon="7.61865">
        <ele>422.6</ele>
        <time>2022-10-01T11:43:34Z</time>
      </trkpt>
      <trkpt lat="47.22688" lon="7.61871">
        <ele>422.6</ele>
        <time>2022-10-01T11:43:35Z</time>
      </trkpt>
      <trkpt lat="47.22693" lon="7.61877">
        <ele>422.6</ele>
        <time>2022-10-01T11:43:36Z</time>
      </trkpt>
      <trkpt lat="47.22697" lon="7.61882">
        <ele>422.6</ele>
        <time>2022-10-01T11:43:37Z</time>
      </trkpt>
      <trkpt lat="47.22701" lon="7.6189">
        <ele>422.6</ele>
        <time>2022-10-01T11:43:38Z</time>
      </trkpt>
      <trkpt lat="47.22705" lon="7.61896">
        <ele>422.6</ele>
        <time>2022-10-01T11:43:39Z</time>
      </trkpt>
      <trkpt lat="47.22709" lon="7.61903">
        <ele>422.6</ele>
        <time>2022-10-01T11:43:40Z</time>
      </trkpt>
      <trkpt lat="47.22713" lon="7.6191">
        <ele>422.6</ele>
        <time>2022-10-01T11:43:41Z</time>
      </trkpt>
      <trkpt lat="47.22716" lon="7.61917">
        <ele>422.6</ele>
        <time>2022-10-01T11:43:42Z</time>
      </trkpt>
      <trkpt lat="47.2272" lon="7.61924">
        <ele>422.6</ele>
        <time>2022-10-01T11:43:43Z</time>
      </trkpt>
      <trkpt lat="47.22724" lon="7.61931">
        <ele>422.7</ele>
        <time>2022-10-01T11:43:44Z</time>
      </trkpt>
      <trkpt lat="47.22727" lon="7.61939">
        <ele>422.7</ele>
        <time>2022-10-01T11:43:45Z</time>
      </trkpt>
      <trkpt lat="47.2273" lon="7.61946">
        <ele>422.7</ele>
        <time>2022-10-01T11:43:46Z</time>
      </trkpt>
      <trkpt lat="47.22732" lon="7.61954">
        <ele>422.7</ele>
        <time>2022-10-01T11:43:47Z</time>
      </trkpt>
      <trkpt lat="47.22735" lon="7.61962">
        <ele>422.6</ele>
        <time>2022-10-01T11:43:48Z</time>
      </trkpt>
      <trkpt lat="47.22738" lon="7.6197">
        <ele>422.6</ele>
        <time>2022-10-01T11:43:50Z</time>
      </trkpt>
      <trkpt lat="47.22743" lon="7.61985">
        <ele>422.6</ele>
        <time>2022-10-01T11:43:51Z</time>
      </trkpt>
      <trkpt lat="47.22747" lon="7.61993">
        <ele>422.6</ele>
        <time>2022-10-01T11:43:52Z</time>
      </trkpt>
      <trkpt lat="47.22749" lon="7.62001">
        <ele>422.6</ele>
        <time>2022-10-01T11:43:53Z</time>
      </trkpt>
      <trkpt lat="47.22752" lon="7.62009">
        <ele>422.6</ele>
        <time>2022-10-01T11:43:54Z</time>
      </trkpt>
      <trkpt lat="47.22755" lon="7.62016">
        <ele>422.5</ele>
        <time>2022-10-01T11:43:56Z</time>
      </trkpt>
      <trkpt lat="47.22761" lon="7.62032">
        <ele>422.5</ele>
        <time>2022-10-01T11:43:57Z</time>
      </trkpt>
      <trkpt lat="47.22763" lon="7.6204">
        <ele>422.5</ele>
        <time>2022-10-01T11:43:58Z</time>
      </trkpt>
      <trkpt lat="47.22766" lon="7.62049">
        <ele>422.5</ele>
        <time>2022-10-01T11:43:59Z</time>
      </trkpt>
      <trkpt lat="47.22769" lon="7.62056">
        <ele>422.5</ele>
        <time>2022-10-01T11:44:00Z</time>
      </trkpt>
      <trkpt lat="47.22772" lon="7.62065">
        <ele>422.5</ele>
        <time>2022-10-01T11:44:01Z</time>
      </trkpt>
      <trkpt lat="47.22775" lon="7.62073">
        <ele>422.5</ele>
        <time>2022-10-01T11:44:02Z</time>
      </trkpt>
      <trkpt lat="47.22778" lon="7.62082">
        <ele>422.5</ele>
        <time>2022-10-01T11:44:04Z</time>
      </trkpt>
      <trkpt lat="47.22781" lon="7.6209">
        <ele>422.5</ele>
        <time>2022-10-01T11:44:05Z</time>
      </trkpt>
      <trkpt lat="47.22784" lon="7.62097">
        <ele>422.5</ele>
        <time>2022-10-01T11:44:06Z</time>
      </trkpt>
      <trkpt lat="47.22787" lon="7.62106">
        <ele>422.5</ele>
        <time>2022-10-01T11:44:07Z</time>
      </trkpt>
      <trkpt lat="47.2279" lon="7.62114">
        <ele>422.6</ele>
        <time>2022-10-01T11:44:08Z</time>
      </trkpt>
      <trkpt lat="47.22793" lon="7.62123">
        <ele>422.6</ele>
        <time>2022-10-01T11:44:09Z</time>
      </trkpt>
      <trkpt lat="47.22795" lon="7.62131">
        <ele>422.7</ele>
        <time>2022-10-01T11:44:10Z</time>
      </trkpt>
      <trkpt lat="47.22799" lon="7.62138">
        <ele>422.7</ele>
        <time>2022-10-01T11:44:11Z</time>
      </trkpt>
      <trkpt lat="47.22801" lon="7.62146">
        <ele>422.8</ele>
        <time>2022-10-01T11:44:12Z</time>
      </trkpt>
      <trkpt lat="47.22804" lon="7.62153">
        <ele>422.8</ele>
        <time>2022-10-01T11:44:13Z</time>
      </trkpt>
      <trkpt lat="47.22807" lon="7.6216">
        <ele>422.8</ele>
        <time>2022-10-01T11:44:14Z</time>
      </trkpt>
      <trkpt lat="47.2281" lon="7.62169">
        <ele>422.8</ele>
        <time>2022-10-01T11:44:15Z</time>
      </trkpt>
      <trkpt lat="47.22813" lon="7.62176">
        <ele>422.8</ele>
        <time>2022-10-01T11:44:16Z</time>
      </trkpt>
      <trkpt lat="47.22816" lon="7.62184">
        <ele>422.8</ele>
        <time>2022-10-01T11:44:17Z</time>
      </trkpt>
      <trkpt lat="47.22819" lon="7.62192">
        <ele>422.7</ele>
        <time>2022-10-01T11:44:18Z</time>
      </trkpt>
      <trkpt lat="47.22822" lon="7.622">
        <ele>422.7</ele>
        <time>2022-10-01T11:44:19Z</time>
      </trkpt>
      <trkpt lat="47.22825" lon="7.62208">
        <ele>422.7</ele>
        <time>2022-10-01T11:44:20Z</time>
      </trkpt>
      <trkpt lat="47.22828" lon="7.62216">
        <ele>422.7</ele>
        <time>2022-10-01T11:44:21Z</time>
      </trkpt>
      <trkpt lat="47.22834" lon="7.62232">
        <ele>422.6</ele>
        <time>2022-10-01T11:44:22Z</time>
      </trkpt>
      <trkpt lat="47.22838" lon="7.6224">
        <ele>422.6</ele>
        <time>2022-10-01T11:44:23Z</time>
      </trkpt>
      <trkpt lat="47.22841" lon="7.62249">
        <ele>422.6</ele>
        <time>2022-10-01T11:44:24Z</time>
      </trkpt>
      <trkpt lat="47.22845" lon="7.62257">
        <ele>422.6</ele>
        <time>2022-10-01T11:44:25Z</time>
      </trkpt>
      <trkpt lat="47.22848" lon="7.62266">
        <ele>422.5</ele>
        <time>2022-10-01T11:44:26Z</time>
      </trkpt>
      <trkpt lat="47.22851" lon="7.62274">
        <ele>422.5</ele>
        <time>2022-10-01T11:44:27Z</time>
      </trkpt>
      <trkpt lat="47.22855" lon="7.62283">
        <ele>422.5</ele>
        <time>2022-10-01T11:44:28Z</time>
      </trkpt>
      <trkpt lat="47.22858" lon="7.62291">
        <ele>422.5</ele>
        <time>2022-10-01T11:44:29Z</time>
      </trkpt>
      <trkpt lat="47.22862" lon="7.62299">
        <ele>422.5</ele>
        <time>2022-10-01T11:44:30Z</time>
      </trkpt>
      <trkpt lat="47.22865" lon="7.62308">
        <ele>422.5</ele>
        <time>2022-10-01T11:44:31Z</time>
      </trkpt>
      <trkpt lat="47.22868" lon="7.62317">
        <ele>422.5</ele>
        <time>2022-10-01T11:44:32Z</time>
      </trkpt>
      <trkpt lat="47.22872" lon="7.62325">
        <ele>422.5</ele>
        <time>2022-10-01T11:44:33Z</time>
      </trkpt>
      <trkpt lat="47.22875" lon="7.62334">
        <ele>422.5</ele>
        <time>2022-10-01T11:44:34Z</time>
      </trkpt>
      <trkpt lat="47.22879" lon="7.62342">
        <ele>422.5</ele>
        <time>2022-10-01T11:44:35Z</time>
      </trkpt>
      <trkpt lat="47.22883" lon="7.62351">
        <ele>422.5</ele>
        <time>2022-10-01T11:44:36Z</time>
      </trkpt>
      <trkpt lat="47.22886" lon="7.62359">
        <ele>422.6</ele>
        <time>2022-10-01T11:44:37Z</time>
      </trkpt>
      <trkpt lat="47.2289" lon="7.62367">
        <ele>422.6</ele>
        <time>2022-10-01T11:44:38Z</time>
      </trkpt>
      <trkpt lat="47.22893" lon="7.62375">
        <ele>422.6</ele>
        <time>2022-10-01T11:44:39Z</time>
      </trkpt>
      <trkpt lat="47.22897" lon="7.62382">
        <ele>422.7</ele>
        <time>2022-10-01T11:44:40Z</time>
      </trkpt>
      <trkpt lat="47.229" lon="7.62391">
        <ele>422.7</ele>
        <time>2022-10-01T11:44:41Z</time>
      </trkpt>
      <trkpt lat="47.22904" lon="7.62399">
        <ele>422.7</ele>
        <time>2022-10-01T11:44:42Z</time>
      </trkpt>
      <trkpt lat="47.22907" lon="7.62407">
        <ele>422.6</ele>
        <time>2022-10-01T11:44:43Z</time>
      </trkpt>
      <trkpt lat="47.22911" lon="7.62415">
        <ele>422.6</ele>
        <time>2022-10-01T11:44:44Z</time>
      </trkpt>
      <trkpt lat="47.22915" lon="7.62423">
        <ele>422.5</ele>
        <time>2022-10-01T11:44:45Z</time>
      </trkpt>
      <trkpt lat="47.22918" lon="7.62431">
        <ele>422.5</ele>
        <time>2022-10-01T11:44:46Z</time>
      </trkpt>
      <trkpt lat="47.22922" lon="7.62439">
        <ele>422.4</ele>
        <time>2022-10-01T11:44:47Z</time>
      </trkpt>
      <trkpt lat="47.22926" lon="7.62448">
        <ele>422.4</ele>
        <time>2022-10-01T11:44:48Z</time>
      </trkpt>
      <trkpt lat="47.22929" lon="7.62456">
        <ele>422.4</ele>
        <time>2022-10-01T11:44:49Z</time>
      </trkpt>
      <trkpt lat="47.22933" lon="7.62464">
        <ele>422.4</ele>
        <time>2022-10-01T11:44:50Z</time>
      </trkpt>
      <trkpt lat="47.22937" lon="7.62473">
        <ele>422.4</ele>
        <time>2022-10-01T11:44:51Z</time>
      </trkpt>
      <trkpt lat="47.2294" lon="7.62481">
        <ele>422.4</ele>
        <time>2022-10-01T11:44:52Z</time>
      </trkpt>
      <trkpt lat="47.22944" lon="7.62489">
        <ele>422.3</ele>
        <time>2022-10-01T11:44:53Z</time>
      </trkpt>
      <trkpt lat="47.22948" lon="7.62497">
        <ele>422.3</ele>
        <time>2022-10-01T11:44:54Z</time>
      </trkpt>
      <trkpt lat="47.22952" lon="7.62506">
        <ele>422.3</ele>
        <time>2022-10-01T11:44:55Z</time>
      </trkpt>
      <trkpt lat="47.22955" lon="7.62514">
        <ele>422.3</ele>
        <time>2022-10-01T11:44:56Z</time>
      </trkpt>
      <trkpt lat="47.22959" lon="7.62522">
        <ele>422.3</ele>
        <time>2022-10-01T11:44:57Z</time>
      </trkpt>
      <trkpt lat="47.22963" lon="7.6253">
        <ele>422.3</ele>
        <time>2022-10-01T11:44:58Z</time>
      </trkpt>
      <trkpt lat="47.22967" lon="7.62538">
        <ele>422.3</ele>
        <time>2022-10-01T11:44:59Z</time>
      </trkpt>
      <trkpt lat="47.2297" lon="7.62546">
        <ele>422.3</ele>
        <time>2022-10-01T11:45:00Z</time>
      </trkpt>
      <trkpt lat="47.22975" lon="7.62553">
        <ele>422.3</ele>
        <time>2022-10-01T11:45:01Z</time>
      </trkpt>
      <trkpt lat="47.22978" lon="7.62561">
        <ele>422.3</ele>
        <time>2022-10-01T11:45:02Z</time>
      </trkpt>
      <trkpt lat="47.22982" lon="7.62569">
        <ele>422.3</ele>
        <time>2022-10-01T11:45:03Z</time>
      </trkpt>
      <trkpt lat="47.22986" lon="7.62576">
        <ele>422.3</ele>
        <time>2022-10-01T11:45:04Z</time>
      </trkpt>
      <trkpt lat="47.2299" lon="7.62584">
        <ele>422.3</ele>
        <time>2022-10-01T11:45:05Z</time>
      </trkpt>
      <trkpt lat="47.22994" lon="7.62591">
        <ele>422.3</ele>
        <time>2022-10-01T11:45:06Z</time>
      </trkpt>
      <trkpt lat="47.22998" lon="7.62599">
        <ele>422.3</ele>
        <time>2022-10-01T11:45:07Z</time>
      </trkpt>
      <trkpt lat="47.23002" lon="7.62606">
        <ele>422.3</ele>
        <time>2022-10-01T11:45:08Z</time>
      </trkpt>
      <trkpt lat="47.23006" lon="7.62613">
        <ele>422.4</ele>
        <time>2022-10-01T11:45:09Z</time>
      </trkpt>
      <trkpt lat="47.2301" lon="7.6262">
        <ele>422.4</ele>
        <time>2022-10-01T11:45:10Z</time>
      </trkpt>
      <trkpt lat="47.23014" lon="7.62628">
        <ele>422.4</ele>
        <time>2022-10-01T11:45:11Z</time>
      </trkpt>
      <trkpt lat="47.23017" lon="7.62635">
        <ele>422.4</ele>
        <time>2022-10-01T11:45:12Z</time>
      </trkpt>
      <trkpt lat="47.2302" lon="7.62643">
        <ele>422.3</ele>
        <time>2022-10-01T11:45:13Z</time>
      </trkpt>
      <trkpt lat="47.23025" lon="7.62651">
        <ele>422.3</ele>
        <time>2022-10-01T11:45:14Z</time>
      </trkpt>
      <trkpt lat="47.23028" lon="7.62658">
        <ele>422.3</ele>
        <time>2022-10-01T11:45:15Z</time>
      </trkpt>
      <trkpt lat="47.23032" lon="7.62666">
        <ele>422.3</ele>
        <time>2022-10-01T11:45:16Z</time>
      </trkpt>
      <trkpt lat="47.23036" lon="7.62673">
        <ele>422.3</ele>
        <time>2022-10-01T11:45:17Z</time>
      </trkpt>
      <trkpt lat="47.23041" lon="7.6268">
        <ele>422.3</ele>
        <time>2022-10-01T11:45:18Z</time>
      </trkpt>
      <trkpt lat="47.23045" lon="7.62688">
        <ele>422.3</ele>
        <time>2022-10-01T11:45:19Z</time>
      </trkpt>
      <trkpt lat="47.23049" lon="7.62695">
        <ele>422.3</ele>
        <time>2022-10-01T11:45:20Z</time>
      </trkpt>
      <trkpt lat="47.23053" lon="7.62702">
        <ele>422.4</ele>
        <time>2022-10-01T11:45:21Z</time>
      </trkpt>
      <trkpt lat="47.23057" lon="7.62711">
        <ele>422.4</ele>
        <time>2022-10-01T11:45:22Z</time>
      </trkpt>
      <trkpt lat="47.23061" lon="7.62718">
        <ele>422.5</ele>
        <time>2022-10-01T11:45:23Z</time>
      </trkpt>
      <trkpt lat="47.23065" lon="7.62726">
        <ele>422.5</ele>
        <time>2022-10-01T11:45:24Z</time>
      </trkpt>
      <trkpt lat="47.23069" lon="7.62733">
        <ele>422.6</ele>
        <time>2022-10-01T11:45:25Z</time>
      </trkpt>
      <trkpt lat="47.23073" lon="7.6274">
        <ele>422.7</ele>
        <time>2022-10-01T11:45:26Z</time>
      </trkpt>
      <trkpt lat="47.23077" lon="7.62747">
        <ele>422.7</ele>
        <time>2022-10-01T11:45:27Z</time>
      </trkpt>
      <trkpt lat="47.23081" lon="7.62753">
        <ele>422.8</ele>
        <time>2022-10-01T11:45:28Z</time>
      </trkpt>
      <trkpt lat="47.23085" lon="7.6276">
        <ele>422.9</ele>
        <time>2022-10-01T11:45:29Z</time>
      </trkpt>
      <trkpt lat="47.23089" lon="7.62766">
        <ele>422.9</ele>
        <time>2022-10-01T11:45:30Z</time>
      </trkpt>
      <trkpt lat="47.23093" lon="7.62773">
        <ele>423</ele>
        <time>2022-10-01T11:45:31Z</time>
      </trkpt>
      <trkpt lat="47.23097" lon="7.6278">
        <ele>423.1</ele>
        <time>2022-10-01T11:45:32Z</time>
      </trkpt>
      <trkpt lat="47.23101" lon="7.62786">
        <ele>423.2</ele>
        <time>2022-10-01T11:45:33Z</time>
      </trkpt>
      <trkpt lat="47.23105" lon="7.62792">
        <ele>423.2</ele>
        <time>2022-10-01T11:45:34Z</time>
      </trkpt>
      <trkpt lat="47.23109" lon="7.62798">
        <ele>423.3</ele>
        <time>2022-10-01T11:45:35Z</time>
      </trkpt>
      <trkpt lat="47.23112" lon="7.62804">
        <ele>423.4</ele>
        <time>2022-10-01T11:45:36Z</time>
      </trkpt>
      <trkpt lat="47.23116" lon="7.62809">
        <ele>423.4</ele>
        <time>2022-10-01T11:45:37Z</time>
      </trkpt>
      <trkpt lat="47.23119" lon="7.62815">
        <ele>423.4</ele>
        <time>2022-10-01T11:45:38Z</time>
      </trkpt>
      <trkpt lat="47.23123" lon="7.6282">
        <ele>423.5</ele>
        <time>2022-10-01T11:45:39Z</time>
      </trkpt>
      <trkpt lat="47.23126" lon="7.62825">
        <ele>423.5</ele>
        <time>2022-10-01T11:45:40Z</time>
      </trkpt>
      <trkpt lat="47.2313" lon="7.62831">
        <ele>423.5</ele>
        <time>2022-10-01T11:45:41Z</time>
      </trkpt>
      <trkpt lat="47.23134" lon="7.62837">
        <ele>423.6</ele>
        <time>2022-10-01T11:45:42Z</time>
      </trkpt>
      <trkpt lat="47.23137" lon="7.62842">
        <ele>423.6</ele>
        <time>2022-10-01T11:45:43Z</time>
      </trkpt>
      <trkpt lat="47.23141" lon="7.62847">
        <ele>423.6</ele>
        <time>2022-10-01T11:45:44Z</time>
      </trkpt>
      <trkpt lat="47.23144" lon="7.62853">
        <ele>423.6</ele>
        <time>2022-10-01T11:45:45Z</time>
      </trkpt>
      <trkpt lat="47.23148" lon="7.62859">
        <ele>423.6</ele>
        <time>2022-10-01T11:45:46Z</time>
      </trkpt>
      <trkpt lat="47.23152" lon="7.62864">
        <ele>423.6</ele>
        <time>2022-10-01T11:45:47Z</time>
      </trkpt>
      <trkpt lat="47.23155" lon="7.62871">
        <ele>423.5</ele>
        <time>2022-10-01T11:45:48Z</time>
      </trkpt>
      <trkpt lat="47.23159" lon="7.62876">
        <ele>423.5</ele>
        <time>2022-10-01T11:45:49Z</time>
      </trkpt>
      <trkpt lat="47.23163" lon="7.62882">
        <ele>423.5</ele>
        <time>2022-10-01T11:45:50Z</time>
      </trkpt>
      <trkpt lat="47.23167" lon="7.62888">
        <ele>423.4</ele>
        <time>2022-10-01T11:45:51Z</time>
      </trkpt>
      <trkpt lat="47.2317" lon="7.62895">
        <ele>423.4</ele>
        <time>2022-10-01T11:45:52Z</time>
      </trkpt>
      <trkpt lat="47.23175" lon="7.62901">
        <ele>423.3</ele>
        <time>2022-10-01T11:45:54Z</time>
      </trkpt>
      <trkpt lat="47.23179" lon="7.62907">
        <ele>423.2</ele>
        <time>2022-10-01T11:45:55Z</time>
      </trkpt>
      <trkpt lat="47.23183" lon="7.62914">
        <ele>423</ele>
        <time>2022-10-01T11:45:56Z</time>
      </trkpt>
      <trkpt lat="47.23187" lon="7.62921">
        <ele>422.9</ele>
        <time>2022-10-01T11:45:57Z</time>
      </trkpt>
      <trkpt lat="47.23192" lon="7.62927">
        <ele>422.8</ele>
        <time>2022-10-01T11:45:58Z</time>
      </trkpt>
      <trkpt lat="47.23196" lon="7.62935">
        <ele>422.6</ele>
        <time>2022-10-01T11:45:59Z</time>
      </trkpt>
      <trkpt lat="47.232" lon="7.62942">
        <ele>422.5</ele>
        <time>2022-10-01T11:46:00Z</time>
      </trkpt>
      <trkpt lat="47.23204" lon="7.62949">
        <ele>422.3</ele>
        <time>2022-10-01T11:46:01Z</time>
      </trkpt>
      <trkpt lat="47.23208" lon="7.62956">
        <ele>422.3</ele>
        <time>2022-10-01T11:46:02Z</time>
      </trkpt>
      <trkpt lat="47.23213" lon="7.6297">
        <ele>422.4</ele>
        <time>2022-10-01T11:46:03Z</time>
      </trkpt>
      <trkpt lat="47.23215" lon="7.62977">
        <ele>422.5</ele>
        <time>2022-10-01T11:46:04Z</time>
      </trkpt>
      <trkpt lat="47.23215" lon="7.62985">
        <ele>422.5</ele>
        <time>2022-10-01T11:46:05Z</time>
      </trkpt>
      <trkpt lat="47.23215" lon="7.62993">
        <ele>422.6</ele>
        <time>2022-10-01T11:46:06Z</time>
      </trkpt>
      <trkpt lat="47.23216" lon="7.63">
        <ele>422.7</ele>
        <time>2022-10-01T11:46:07Z</time>
      </trkpt>
      <trkpt lat="47.23217" lon="7.63006">
        <ele>422.7</ele>
        <time>2022-10-01T11:46:08Z</time>
      </trkpt>
      <trkpt lat="47.2322" lon="7.63012">
        <ele>422.8</ele>
        <time>2022-10-01T11:46:09Z</time>
      </trkpt>
      <trkpt lat="47.23221" lon="7.63019">
        <ele>422.9</ele>
        <time>2022-10-01T11:46:10Z</time>
      </trkpt>
      <trkpt lat="47.23222" lon="7.63025">
        <ele>423</ele>
        <time>2022-10-01T11:46:11Z</time>
      </trkpt>
      <trkpt lat="47.23223" lon="7.63033">
        <ele>423</ele>
        <time>2022-10-01T11:46:12Z</time>
      </trkpt>
      <trkpt lat="47.23224" lon="7.63039">
        <ele>423.1</ele>
        <time>2022-10-01T11:46:13Z</time>
      </trkpt>
      <trkpt lat="47.23226" lon="7.63046">
        <ele>423.2</ele>
        <time>2022-10-01T11:46:14Z</time>
      </trkpt>
      <trkpt lat="47.23227" lon="7.63052">
        <ele>423.3</ele>
        <time>2022-10-01T11:46:15Z</time>
      </trkpt>
      <trkpt lat="47.23228" lon="7.63058">
        <ele>423.3</ele>
        <time>2022-10-01T11:46:16Z</time>
      </trkpt>
      <trkpt lat="47.23228" lon="7.63065">
        <ele>423.4</ele>
        <time>2022-10-01T11:46:17Z</time>
      </trkpt>
      <trkpt lat="47.23228" lon="7.63072">
        <ele>423.4</ele>
        <time>2022-10-01T11:46:18Z</time>
      </trkpt>
      <trkpt lat="47.2323" lon="7.63078">
        <ele>423.4</ele>
        <time>2022-10-01T11:46:19Z</time>
      </trkpt>
      <trkpt lat="47.2323" lon="7.63085">
        <ele>423.4</ele>
        <time>2022-10-01T11:46:20Z</time>
      </trkpt>
      <trkpt lat="47.23231" lon="7.63092">
        <ele>423.4</ele>
        <time>2022-10-01T11:46:21Z</time>
      </trkpt>
      <trkpt lat="47.23232" lon="7.63099">
        <ele>423.4</ele>
        <time>2022-10-01T11:46:22Z</time>
      </trkpt>
      <trkpt lat="47.23233" lon="7.63106">
        <ele>423.4</ele>
        <time>2022-10-01T11:46:23Z</time>
      </trkpt>
      <trkpt lat="47.23234" lon="7.63114">
        <ele>423.3</ele>
        <time>2022-10-01T11:46:24Z</time>
      </trkpt>
      <trkpt lat="47.23236" lon="7.63121">
        <ele>423.3</ele>
        <time>2022-10-01T11:46:25Z</time>
      </trkpt>
      <trkpt lat="47.23236" lon="7.63127">
        <ele>423.2</ele>
        <time>2022-10-01T11:46:26Z</time>
      </trkpt>
      <trkpt lat="47.23237" lon="7.63135">
        <ele>423.2</ele>
        <time>2022-10-01T11:46:27Z</time>
      </trkpt>
      <trkpt lat="47.23238" lon="7.63144">
        <ele>423.1</ele>
        <time>2022-10-01T11:46:28Z</time>
      </trkpt>
      <trkpt lat="47.23239" lon="7.63152">
        <ele>423</ele>
        <time>2022-10-01T11:46:29Z</time>
      </trkpt>
      <trkpt lat="47.23239" lon="7.63161">
        <ele>422.9</ele>
        <time>2022-10-01T11:46:30Z</time>
      </trkpt>
      <trkpt lat="47.2324" lon="7.63169">
        <ele>422.7</ele>
        <time>2022-10-01T11:46:31Z</time>
      </trkpt>
      <trkpt lat="47.2324" lon="7.63177">
        <ele>422.7</ele>
        <time>2022-10-01T11:46:32Z</time>
      </trkpt>
      <trkpt lat="47.2324" lon="7.63187">
        <ele>422.5</ele>
        <time>2022-10-01T11:46:33Z</time>
      </trkpt>
      <trkpt lat="47.2324" lon="7.63195">
        <ele>422.5</ele>
        <time>2022-10-01T11:46:34Z</time>
      </trkpt>
      <trkpt lat="47.2324" lon="7.63203">
        <ele>422.5</ele>
        <time>2022-10-01T11:46:35Z</time>
      </trkpt>
      <trkpt lat="47.23241" lon="7.6321">
        <ele>422.4</ele>
        <time>2022-10-01T11:46:36Z</time>
      </trkpt>
      <trkpt lat="47.23241" lon="7.6322">
        <ele>422.4</ele>
        <time>2022-10-01T11:46:37Z</time>
      </trkpt>
      <trkpt lat="47.23243" lon="7.63227">
        <ele>422.4</ele>
        <time>2022-10-01T11:46:38Z</time>
      </trkpt>
      <trkpt lat="47.23245" lon="7.63234">
        <ele>422.3</ele>
        <time>2022-10-01T11:46:39Z</time>
      </trkpt>
      <trkpt lat="47.23246" lon="7.63242">
        <ele>422.3</ele>
        <time>2022-10-01T11:46:40Z</time>
      </trkpt>
      <trkpt lat="47.23247" lon="7.63249">
        <ele>422.3</ele>
        <time>2022-10-01T11:46:41Z</time>
      </trkpt>
      <trkpt lat="47.23249" lon="7.63257">
        <ele>422.2</ele>
        <time>2022-10-01T11:46:42Z</time>
      </trkpt>
      <trkpt lat="47.23252" lon="7.63264">
        <ele>422.2</ele>
        <time>2022-10-01T11:46:43Z</time>
      </trkpt>
      <trkpt lat="47.23255" lon="7.6327">
        <ele>422.2</ele>
        <time>2022-10-01T11:46:44Z</time>
      </trkpt>
      <trkpt lat="47.23257" lon="7.63277">
        <ele>422.1</ele>
        <time>2022-10-01T11:46:45Z</time>
      </trkpt>
      <trkpt lat="47.2326" lon="7.63282">
        <ele>422.1</ele>
        <time>2022-10-01T11:46:46Z</time>
      </trkpt>
      <trkpt lat="47.23265" lon="7.63289">
        <ele>422.1</ele>
        <time>2022-10-01T11:46:47Z</time>
      </trkpt>
      <trkpt lat="47.23268" lon="7.63293">
        <ele>422.1</ele>
        <time>2022-10-01T11:46:48Z</time>
      </trkpt>
      <trkpt lat="47.23272" lon="7.633">
        <ele>422</ele>
        <time>2022-10-01T11:46:49Z</time>
      </trkpt>
      <trkpt lat="47.23276" lon="7.63306">
        <ele>422</ele>
        <time>2022-10-01T11:46:50Z</time>
      </trkpt>
      <trkpt lat="47.2328" lon="7.63313">
        <ele>422</ele>
        <time>2022-10-01T11:46:51Z</time>
      </trkpt>
      <trkpt lat="47.23283" lon="7.63321">
        <ele>421.9</ele>
        <time>2022-10-01T11:46:52Z</time>
      </trkpt>
      <trkpt lat="47.23287" lon="7.63327">
        <ele>421.9</ele>
        <time>2022-10-01T11:46:53Z</time>
      </trkpt>
      <trkpt lat="47.2329" lon="7.63333">
        <ele>421.8</ele>
        <time>2022-10-01T11:46:54Z</time>
      </trkpt>
      <trkpt lat="47.23293" lon="7.63341">
        <ele>421.8</ele>
        <time>2022-10-01T11:46:55Z</time>
      </trkpt>
      <trkpt lat="47.23297" lon="7.63348">
        <ele>421.7</ele>
        <time>2022-10-01T11:46:56Z</time>
      </trkpt>
      <trkpt lat="47.233" lon="7.63354">
        <ele>421.7</ele>
        <time>2022-10-01T11:46:57Z</time>
      </trkpt>
      <trkpt lat="47.23303" lon="7.63361">
        <ele>421.7</ele>
        <time>2022-10-01T11:46:58Z</time>
      </trkpt>
      <trkpt lat="47.23307" lon="7.63367">
        <ele>421.6</ele>
        <time>2022-10-01T11:46:59Z</time>
      </trkpt>
      <trkpt lat="47.2331" lon="7.63374">
        <ele>421.6</ele>
        <time>2022-10-01T11:47:00Z</time>
      </trkpt>
      <trkpt lat="47.23313" lon="7.6338">
        <ele>421.6</ele>
        <time>2022-10-01T11:47:01Z</time>
      </trkpt>
      <trkpt lat="47.23316" lon="7.63386">
        <ele>421.6</ele>
        <time>2022-10-01T11:47:02Z</time>
      </trkpt>
      <trkpt lat="47.23318" lon="7.63393">
        <ele>421.6</ele>
        <time>2022-10-01T11:47:03Z</time>
      </trkpt>
      <trkpt lat="47.23322" lon="7.63399">
        <ele>421.6</ele>
        <time>2022-10-01T11:47:04Z</time>
      </trkpt>
      <trkpt lat="47.23325" lon="7.63405">
        <ele>421.6</ele>
        <time>2022-10-01T11:47:05Z</time>
      </trkpt>
      <trkpt lat="47.23328" lon="7.63412">
        <ele>421.6</ele>
        <time>2022-10-01T11:47:06Z</time>
      </trkpt>
      <trkpt lat="47.23331" lon="7.63417">
        <ele>421.6</ele>
        <time>2022-10-01T11:47:07Z</time>
      </trkpt>
      <trkpt lat="47.23334" lon="7.63423">
        <ele>421.6</ele>
        <time>2022-10-01T11:47:08Z</time>
      </trkpt>
      <trkpt lat="47.23337" lon="7.63429">
        <ele>421.7</ele>
        <time>2022-10-01T11:47:09Z</time>
      </trkpt>
      <trkpt lat="47.2334" lon="7.63435">
        <ele>421.7</ele>
        <time>2022-10-01T11:47:10Z</time>
      </trkpt>
      <trkpt lat="47.23343" lon="7.63441">
        <ele>421.7</ele>
        <time>2022-10-01T11:47:11Z</time>
      </trkpt>
      <trkpt lat="47.23346" lon="7.63446">
        <ele>421.7</ele>
        <time>2022-10-01T11:47:12Z</time>
      </trkpt>
      <trkpt lat="47.23349" lon="7.63451">
        <ele>421.8</ele>
        <time>2022-10-01T11:47:13Z</time>
      </trkpt>
      <trkpt lat="47.23352" lon="7.63457">
        <ele>421.8</ele>
        <time>2022-10-01T11:47:14Z</time>
      </trkpt>
      <trkpt lat="47.23355" lon="7.63461">
        <ele>421.8</ele>
        <time>2022-10-01T11:47:15Z</time>
      </trkpt>
      <trkpt lat="47.23357" lon="7.63466">
        <ele>421.9</ele>
        <time>2022-10-01T11:47:16Z</time>
      </trkpt>
      <trkpt lat="47.23359" lon="7.63472">
        <ele>421.9</ele>
        <time>2022-10-01T11:47:17Z</time>
      </trkpt>
      <trkpt lat="47.23361" lon="7.63477">
        <ele>421.9</ele>
        <time>2022-10-01T11:47:18Z</time>
      </trkpt>
      <trkpt lat="47.23365" lon="7.63481">
        <ele>422</ele>
        <time>2022-10-01T11:47:19Z</time>
      </trkpt>
      <trkpt lat="47.23368" lon="7.63484">
        <ele>422</ele>
        <time>2022-10-01T11:47:20Z</time>
      </trkpt>
      <trkpt lat="47.23371" lon="7.63489">
        <ele>422.1</ele>
        <time>2022-10-01T11:47:21Z</time>
      </trkpt>
      <trkpt lat="47.23373" lon="7.63493">
        <ele>422.1</ele>
        <time>2022-10-01T11:47:22Z</time>
      </trkpt>
      <trkpt lat="47.23375" lon="7.63498">
        <ele>422.1</ele>
        <time>2022-10-01T11:47:23Z</time>
      </trkpt>
      <trkpt lat="47.23377" lon="7.63503">
        <ele>422.2</ele>
        <time>2022-10-01T11:47:24Z</time>
      </trkpt>
      <trkpt lat="47.23379" lon="7.63508">
        <ele>422.2</ele>
        <time>2022-10-01T11:47:25Z</time>
      </trkpt>
      <trkpt lat="47.2338" lon="7.63512">
        <ele>422.2</ele>
        <time>2022-10-01T11:47:26Z</time>
      </trkpt>
      <trkpt lat="47.23381" lon="7.63518">
        <ele>422.2</ele>
        <time>2022-10-01T11:47:27Z</time>
      </trkpt>
      <trkpt lat="47.23383" lon="7.63524">
        <ele>422.2</ele>
        <time>2022-10-01T11:47:28Z</time>
      </trkpt>
      <trkpt lat="47.23385" lon="7.63529">
        <ele>422.2</ele>
        <time>2022-10-01T11:47:29Z</time>
      </trkpt>
      <trkpt lat="47.23386" lon="7.63535">
        <ele>422.2</ele>
        <time>2022-10-01T11:47:30Z</time>
      </trkpt>
      <trkpt lat="47.23386" lon="7.63541">
        <ele>422.2</ele>
        <time>2022-10-01T11:47:31Z</time>
      </trkpt>
      <trkpt lat="47.23386" lon="7.63547">
        <ele>422.2</ele>
        <time>2022-10-01T11:47:32Z</time>
      </trkpt>
      <trkpt lat="47.23388" lon="7.63554">
        <ele>422.2</ele>
        <time>2022-10-01T11:47:33Z</time>
      </trkpt>
      <trkpt lat="47.23389" lon="7.6356">
        <ele>422.2</ele>
        <time>2022-10-01T11:47:34Z</time>
      </trkpt>
      <trkpt lat="47.2339" lon="7.63567">
        <ele>422.2</ele>
        <time>2022-10-01T11:47:35Z</time>
      </trkpt>
      <trkpt lat="47.23391" lon="7.63573">
        <ele>422.2</ele>
        <time>2022-10-01T11:47:36Z</time>
      </trkpt>
      <trkpt lat="47.23392" lon="7.63579">
        <ele>422.2</ele>
        <time>2022-10-01T11:47:37Z</time>
      </trkpt>
      <trkpt lat="47.23393" lon="7.63585">
        <ele>422.2</ele>
        <time>2022-10-01T11:47:38Z</time>
      </trkpt>
      <trkpt lat="47.23394" lon="7.63591">
        <ele>422.2</ele>
        <time>2022-10-01T11:47:39Z</time>
      </trkpt>
      <trkpt lat="47.23395" lon="7.63596">
        <ele>422.2</ele>
        <time>2022-10-01T11:47:40Z</time>
      </trkpt>
      <trkpt lat="47.23396" lon="7.63603">
        <ele>422.1</ele>
        <time>2022-10-01T11:47:41Z</time>
      </trkpt>
      <trkpt lat="47.23397" lon="7.63609">
        <ele>422.1</ele>
        <time>2022-10-01T11:47:42Z</time>
      </trkpt>
      <trkpt lat="47.23399" lon="7.63615">
        <ele>422.1</ele>
        <time>2022-10-01T11:47:43Z</time>
      </trkpt>
      <trkpt lat="47.23401" lon="7.63621">
        <ele>422.1</ele>
        <time>2022-10-01T11:47:44Z</time>
      </trkpt>
      <trkpt lat="47.23402" lon="7.63628">
        <ele>422</ele>
        <time>2022-10-01T11:47:45Z</time>
      </trkpt>
      <trkpt lat="47.23404" lon="7.63635">
        <ele>422</ele>
        <time>2022-10-01T11:47:46Z</time>
      </trkpt>
      <trkpt lat="47.23406" lon="7.63642">
        <ele>421.9</ele>
        <time>2022-10-01T11:47:47Z</time>
      </trkpt>
      <trkpt lat="47.23408" lon="7.63647">
        <ele>421.9</ele>
        <time>2022-10-01T11:47:48Z</time>
      </trkpt>
      <trkpt lat="47.2341" lon="7.63653">
        <ele>421.8</ele>
        <time>2022-10-01T11:47:49Z</time>
      </trkpt>
      <trkpt lat="47.23413" lon="7.63659">
        <ele>421.8</ele>
        <time>2022-10-01T11:47:50Z</time>
      </trkpt>
      <trkpt lat="47.23415" lon="7.63665">
        <ele>421.7</ele>
        <time>2022-10-01T11:47:51Z</time>
      </trkpt>
      <trkpt lat="47.23418" lon="7.63672">
        <ele>421.6</ele>
        <time>2022-10-01T11:47:52Z</time>
      </trkpt>
      <trkpt lat="47.23421" lon="7.63677">
        <ele>421.6</ele>
        <time>2022-10-01T11:47:53Z</time>
      </trkpt>
      <trkpt lat="47.23424" lon="7.63684">
        <ele>421.5</ele>
        <time>2022-10-01T11:47:54Z</time>
      </trkpt>
      <trkpt lat="47.23428" lon="7.63691">
        <ele>421.5</ele>
        <time>2022-10-01T11:47:55Z</time>
      </trkpt>
      <trkpt lat="47.23431" lon="7.63697">
        <ele>421.4</ele>
        <time>2022-10-01T11:47:56Z</time>
      </trkpt>
      <trkpt lat="47.23434" lon="7.63705">
        <ele>421.3</ele>
        <time>2022-10-01T11:47:57Z</time>
      </trkpt>
      <trkpt lat="47.23436" lon="7.63713">
        <ele>421.3</ele>
        <time>2022-10-01T11:47:58Z</time>
      </trkpt>
      <trkpt lat="47.23438" lon="7.63721">
        <ele>421.2</ele>
        <time>2022-10-01T11:48:00Z</time>
      </trkpt>
      <trkpt lat="47.23442" lon="7.63738">
        <ele>421.1</ele>
        <time>2022-10-01T11:48:01Z</time>
      </trkpt>
      <trkpt lat="47.23444" lon="7.63747">
        <ele>421</ele>
        <time>2022-10-01T11:48:02Z</time>
      </trkpt>
      <trkpt lat="47.23447" lon="7.63756">
        <ele>421</ele>
        <time>2022-10-01T11:48:03Z</time>
      </trkpt>
      <trkpt lat="47.23449" lon="7.63765">
        <ele>420.9</ele>
        <time>2022-10-01T11:48:04Z</time>
      </trkpt>
      <trkpt lat="47.23451" lon="7.63775">
        <ele>420.9</ele>
        <time>2022-10-01T11:48:05Z</time>
      </trkpt>
      <trkpt lat="47.23453" lon="7.63784">
        <ele>420.9</ele>
        <time>2022-10-01T11:48:06Z</time>
      </trkpt>
      <trkpt lat="47.23455" lon="7.63793">
        <ele>420.8</ele>
        <time>2022-10-01T11:48:07Z</time>
      </trkpt>
      <trkpt lat="47.23457" lon="7.63802">
        <ele>420.8</ele>
        <time>2022-10-01T11:48:08Z</time>
      </trkpt>
      <trkpt lat="47.23459" lon="7.63811">
        <ele>420.7</ele>
        <time>2022-10-01T11:48:09Z</time>
      </trkpt>
      <trkpt lat="47.2346" lon="7.63821">
        <ele>420.6</ele>
        <time>2022-10-01T11:48:10Z</time>
      </trkpt>
      <trkpt lat="47.23462" lon="7.6383">
        <ele>420.6</ele>
        <time>2022-10-01T11:48:11Z</time>
      </trkpt>
      <trkpt lat="47.23465" lon="7.6384">
        <ele>420.6</ele>
        <time>2022-10-01T11:48:12Z</time>
      </trkpt>
      <trkpt lat="47.23467" lon="7.63849">
        <ele>420.6</ele>
        <time>2022-10-01T11:48:13Z</time>
      </trkpt>
      <trkpt lat="47.23469" lon="7.63859">
        <ele>420.6</ele>
        <time>2022-10-01T11:48:14Z</time>
      </trkpt>
      <trkpt lat="47.23471" lon="7.63868">
        <ele>420.6</ele>
        <time>2022-10-01T11:48:16Z</time>
      </trkpt>
      <trkpt lat="47.23476" lon="7.63888">
        <ele>420.5</ele>
        <time>2022-10-01T11:48:17Z</time>
      </trkpt>
      <trkpt lat="47.23478" lon="7.63898">
        <ele>420.5</ele>
        <time>2022-10-01T11:48:18Z</time>
      </trkpt>
      <trkpt lat="47.2348" lon="7.63907">
        <ele>420.5</ele>
        <time>2022-10-01T11:48:19Z</time>
      </trkpt>
      <trkpt lat="47.23483" lon="7.63917">
        <ele>420.5</ele>
        <time>2022-10-01T11:48:20Z</time>
      </trkpt>
      <trkpt lat="47.23485" lon="7.63927">
        <ele>420.5</ele>
        <time>2022-10-01T11:48:21Z</time>
      </trkpt>
      <trkpt lat="47.23487" lon="7.63937">
        <ele>420.4</ele>
        <time>2022-10-01T11:48:22Z</time>
      </trkpt>
      <trkpt lat="47.23489" lon="7.63947">
        <ele>420.4</ele>
        <time>2022-10-01T11:48:23Z</time>
      </trkpt>
      <trkpt lat="47.23491" lon="7.63957">
        <ele>420.4</ele>
        <time>2022-10-01T11:48:24Z</time>
      </trkpt>
      <trkpt lat="47.23493" lon="7.63966">
        <ele>420.4</ele>
        <time>2022-10-01T11:48:25Z</time>
      </trkpt>
      <trkpt lat="47.23495" lon="7.63976">
        <ele>420.4</ele>
        <time>2022-10-01T11:48:26Z</time>
      </trkpt>
      <trkpt lat="47.23497" lon="7.63986">
        <ele>420.4</ele>
        <time>2022-10-01T11:48:27Z</time>
      </trkpt>
      <trkpt lat="47.23499" lon="7.63995">
        <ele>420.4</ele>
        <time>2022-10-01T11:48:28Z</time>
      </trkpt>
      <trkpt lat="47.23501" lon="7.64003">
        <ele>420.4</ele>
        <time>2022-10-01T11:48:29Z</time>
      </trkpt>
      <trkpt lat="47.23504" lon="7.64011">
        <ele>420.4</ele>
        <time>2022-10-01T11:48:30Z</time>
      </trkpt>
      <trkpt lat="47.23506" lon="7.6402">
        <ele>420.4</ele>
        <time>2022-10-01T11:48:31Z</time>
      </trkpt>
      <trkpt lat="47.23508" lon="7.64028">
        <ele>420.4</ele>
        <time>2022-10-01T11:48:32Z</time>
      </trkpt>
      <trkpt lat="47.23511" lon="7.64036">
        <ele>420.4</ele>
        <time>2022-10-01T11:48:33Z</time>
      </trkpt>
      <trkpt lat="47.23513" lon="7.64044">
        <ele>420.4</ele>
        <time>2022-10-01T11:48:34Z</time>
      </trkpt>
      <trkpt lat="47.23516" lon="7.64052">
        <ele>420.4</ele>
        <time>2022-10-01T11:48:35Z</time>
      </trkpt>
      <trkpt lat="47.23518" lon="7.64059">
        <ele>420.4</ele>
        <time>2022-10-01T11:48:36Z</time>
      </trkpt>
      <trkpt lat="47.23521" lon="7.64065">
        <ele>420.4</ele>
        <time>2022-10-01T11:48:37Z</time>
      </trkpt>
      <trkpt lat="47.23525" lon="7.64073">
        <ele>420.4</ele>
        <time>2022-10-01T11:48:38Z</time>
      </trkpt>
      <trkpt lat="47.23527" lon="7.64082">
        <ele>420.3</ele>
        <time>2022-10-01T11:48:39Z</time>
      </trkpt>
      <trkpt lat="47.23531" lon="7.6409">
        <ele>420.3</ele>
        <time>2022-10-01T11:48:40Z</time>
      </trkpt>
      <trkpt lat="47.23534" lon="7.64098">
        <ele>420.3</ele>
        <time>2022-10-01T11:48:41Z</time>
      </trkpt>
      <trkpt lat="47.23537" lon="7.64107">
        <ele>420.3</ele>
        <time>2022-10-01T11:48:42Z</time>
      </trkpt>
      <trkpt lat="47.2354" lon="7.64115">
        <ele>420.3</ele>
        <time>2022-10-01T11:48:43Z</time>
      </trkpt>
      <trkpt lat="47.23543" lon="7.64124">
        <ele>420.2</ele>
        <time>2022-10-01T11:48:44Z</time>
      </trkpt>
      <trkpt lat="47.23545" lon="7.64132">
        <ele>420.2</ele>
        <time>2022-10-01T11:48:45Z</time>
      </trkpt>
      <trkpt lat="47.23547" lon="7.64141">
        <ele>420.2</ele>
        <time>2022-10-01T11:48:46Z</time>
      </trkpt>
      <trkpt lat="47.23549" lon="7.64149">
        <ele>420.3</ele>
        <time>2022-10-01T11:48:47Z</time>
      </trkpt>
      <trkpt lat="47.2355" lon="7.64158">
        <ele>420.3</ele>
        <time>2022-10-01T11:48:48Z</time>
      </trkpt>
      <trkpt lat="47.23551" lon="7.64167">
        <ele>420.3</ele>
        <time>2022-10-01T11:48:49Z</time>
      </trkpt>
      <trkpt lat="47.23552" lon="7.64175">
        <ele>420.3</ele>
        <time>2022-10-01T11:48:50Z</time>
      </trkpt>
      <trkpt lat="47.23553" lon="7.64184">
        <ele>420.3</ele>
        <time>2022-10-01T11:48:51Z</time>
      </trkpt>
      <trkpt lat="47.23553" lon="7.64193">
        <ele>420.3</ele>
        <time>2022-10-01T11:48:52Z</time>
      </trkpt>
      <trkpt lat="47.23552" lon="7.64202">
        <ele>420.3</ele>
        <time>2022-10-01T11:48:53Z</time>
      </trkpt>
      <trkpt lat="47.23552" lon="7.6421">
        <ele>420.3</ele>
        <time>2022-10-01T11:48:54Z</time>
      </trkpt>
      <trkpt lat="47.23552" lon="7.64219">
        <ele>420.3</ele>
        <time>2022-10-01T11:48:55Z</time>
      </trkpt>
      <trkpt lat="47.23552" lon="7.64227">
        <ele>420.4</ele>
        <time>2022-10-01T11:48:56Z</time>
      </trkpt>
      <trkpt lat="47.23551" lon="7.64236">
        <ele>420.4</ele>
        <time>2022-10-01T11:48:57Z</time>
      </trkpt>
      <trkpt lat="47.2355" lon="7.64246">
        <ele>420.4</ele>
        <time>2022-10-01T11:48:58Z</time>
      </trkpt>
      <trkpt lat="47.2355" lon="7.64255">
        <ele>420.4</ele>
        <time>2022-10-01T11:48:59Z</time>
      </trkpt>
      <trkpt lat="47.2355" lon="7.64264">
        <ele>420.4</ele>
        <time>2022-10-01T11:49:00Z</time>
      </trkpt>
      <trkpt lat="47.23549" lon="7.64272">
        <ele>420.4</ele>
        <time>2022-10-01T11:49:01Z</time>
      </trkpt>
      <trkpt lat="47.23549" lon="7.64281">
        <ele>420.4</ele>
        <time>2022-10-01T11:49:02Z</time>
      </trkpt>
      <trkpt lat="47.23549" lon="7.6429">
        <ele>420.4</ele>
        <time>2022-10-01T11:49:03Z</time>
      </trkpt>
      <trkpt lat="47.23548" lon="7.64299">
        <ele>420.4</ele>
        <time>2022-10-01T11:49:04Z</time>
      </trkpt>
      <trkpt lat="47.23548" lon="7.64308">
        <ele>420.4</ele>
        <time>2022-10-01T11:49:05Z</time>
      </trkpt>
      <trkpt lat="47.23549" lon="7.64317">
        <ele>420.4</ele>
        <time>2022-10-01T11:49:06Z</time>
      </trkpt>
      <trkpt lat="47.23549" lon="7.64326">
        <ele>420.4</ele>
        <time>2022-10-01T11:49:07Z</time>
      </trkpt>
      <trkpt lat="47.2355" lon="7.64334">
        <ele>420.4</ele>
        <time>2022-10-01T11:49:08Z</time>
      </trkpt>
      <trkpt lat="47.23551" lon="7.64344">
        <ele>420.4</ele>
        <time>2022-10-01T11:49:09Z</time>
      </trkpt>
      <trkpt lat="47.23552" lon="7.64352">
        <ele>420.4</ele>
        <time>2022-10-01T11:49:10Z</time>
      </trkpt>
      <trkpt lat="47.23552" lon="7.64361">
        <ele>420.4</ele>
        <time>2022-10-01T11:49:11Z</time>
      </trkpt>
      <trkpt lat="47.23553" lon="7.6437">
        <ele>420.4</ele>
        <time>2022-10-01T11:49:12Z</time>
      </trkpt>
      <trkpt lat="47.23554" lon="7.64379">
        <ele>420.4</ele>
        <time>2022-10-01T11:49:13Z</time>
      </trkpt>
      <trkpt lat="47.23555" lon="7.64388">
        <ele>420.4</ele>
        <time>2022-10-01T11:49:14Z</time>
      </trkpt>
      <trkpt lat="47.23555" lon="7.64398">
        <ele>420.4</ele>
        <time>2022-10-01T11:49:15Z</time>
      </trkpt>
      <trkpt lat="47.23556" lon="7.64407">
        <ele>420.3</ele>
        <time>2022-10-01T11:49:16Z</time>
      </trkpt>
      <trkpt lat="47.23558" lon="7.64417">
        <ele>420.3</ele>
        <time>2022-10-01T11:49:17Z</time>
      </trkpt>
      <trkpt lat="47.23559" lon="7.64426">
        <ele>420.3</ele>
        <time>2022-10-01T11:49:18Z</time>
      </trkpt>
      <trkpt lat="47.2356" lon="7.64436">
        <ele>420.3</ele>
        <time>2022-10-01T11:49:19Z</time>
      </trkpt>
      <trkpt lat="47.23561" lon="7.64445">
        <ele>420.3</ele>
        <time>2022-10-01T11:49:20Z</time>
      </trkpt>
      <trkpt lat="47.23562" lon="7.64454">
        <ele>420.3</ele>
        <time>2022-10-01T11:49:21Z</time>
      </trkpt>
      <trkpt lat="47.23563" lon="7.64463">
        <ele>420.3</ele>
        <time>2022-10-01T11:49:22Z</time>
      </trkpt>
      <trkpt lat="47.23563" lon="7.64472">
        <ele>420.2</ele>
        <time>2022-10-01T11:49:23Z</time>
      </trkpt>
      <trkpt lat="47.23565" lon="7.6448">
        <ele>420.2</ele>
        <time>2022-10-01T11:49:24Z</time>
      </trkpt>
      <trkpt lat="47.23566" lon="7.6449">
        <ele>420.2</ele>
        <time>2022-10-01T11:49:25Z</time>
      </trkpt>
      <trkpt lat="47.23567" lon="7.64499">
        <ele>420.2</ele>
        <time>2022-10-01T11:49:26Z</time>
      </trkpt>
      <trkpt lat="47.23568" lon="7.64509">
        <ele>420.2</ele>
        <time>2022-10-01T11:49:27Z</time>
      </trkpt>
      <trkpt lat="47.23569" lon="7.64518">
        <ele>420.2</ele>
        <time>2022-10-01T11:49:28Z</time>
      </trkpt>
      <trkpt lat="47.2357" lon="7.64527">
        <ele>420.2</ele>
        <time>2022-10-01T11:49:29Z</time>
      </trkpt>
      <trkpt lat="47.23571" lon="7.64536">
        <ele>420.2</ele>
        <time>2022-10-01T11:49:30Z</time>
      </trkpt>
      <trkpt lat="47.23573" lon="7.64545">
        <ele>420.2</ele>
        <time>2022-10-01T11:49:31Z</time>
      </trkpt>
      <trkpt lat="47.23574" lon="7.64554">
        <ele>420.2</ele>
        <time>2022-10-01T11:49:32Z</time>
      </trkpt>
      <trkpt lat="47.23575" lon="7.64563">
        <ele>420.2</ele>
        <time>2022-10-01T11:49:33Z</time>
      </trkpt>
      <trkpt lat="47.23575" lon="7.64572">
        <ele>420.1</ele>
        <time>2022-10-01T11:49:34Z</time>
      </trkpt>
      <trkpt lat="47.23576" lon="7.6458">
        <ele>420.1</ele>
        <time>2022-10-01T11:49:35Z</time>
      </trkpt>
      <trkpt lat="47.23578" lon="7.64588">
        <ele>420.1</ele>
        <time>2022-10-01T11:49:36Z</time>
      </trkpt>
      <trkpt lat="47.23579" lon="7.64597">
        <ele>420.1</ele>
        <time>2022-10-01T11:49:37Z</time>
      </trkpt>
      <trkpt lat="47.2358" lon="7.64605">
        <ele>420.1</ele>
        <time>2022-10-01T11:49:38Z</time>
      </trkpt>
      <trkpt lat="47.23581" lon="7.64613">
        <ele>420.1</ele>
        <time>2022-10-01T11:49:39Z</time>
      </trkpt>
      <trkpt lat="47.23582" lon="7.64621">
        <ele>420.1</ele>
        <time>2022-10-01T11:49:40Z</time>
      </trkpt>
      <trkpt lat="47.23582" lon="7.64629">
        <ele>420.1</ele>
        <time>2022-10-01T11:49:41Z</time>
      </trkpt>
      <trkpt lat="47.23582" lon="7.64637">
        <ele>420</ele>
        <time>2022-10-01T11:49:42Z</time>
      </trkpt>
      <trkpt lat="47.23583" lon="7.64645">
        <ele>420</ele>
        <time>2022-10-01T11:49:43Z</time>
      </trkpt>
      <trkpt lat="47.23584" lon="7.64652">
        <ele>420</ele>
        <time>2022-10-01T11:49:44Z</time>
      </trkpt>
      <trkpt lat="47.23586" lon="7.6466">
        <ele>420</ele>
        <time>2022-10-01T11:49:45Z</time>
      </trkpt>
      <trkpt lat="47.23586" lon="7.64668">
        <ele>420</ele>
        <time>2022-10-01T11:49:46Z</time>
      </trkpt>
      <trkpt lat="47.23586" lon="7.64675">
        <ele>420</ele>
        <time>2022-10-01T11:49:47Z</time>
      </trkpt>
      <trkpt lat="47.23587" lon="7.64684">
        <ele>419.9</ele>
        <time>2022-10-01T11:49:48Z</time>
      </trkpt>
      <trkpt lat="47.23587" lon="7.64692">
        <ele>419.9</ele>
        <time>2022-10-01T11:49:49Z</time>
      </trkpt>
      <trkpt lat="47.23588" lon="7.647">
        <ele>419.9</ele>
        <time>2022-10-01T11:49:50Z</time>
      </trkpt>
      <trkpt lat="47.23588" lon="7.64708">
        <ele>419.9</ele>
        <time>2022-10-01T11:49:51Z</time>
      </trkpt>
      <trkpt lat="47.23589" lon="7.64717">
        <ele>419.8</ele>
        <time>2022-10-01T11:49:52Z</time>
      </trkpt>
      <trkpt lat="47.23589" lon="7.64726">
        <ele>419.8</ele>
        <time>2022-10-01T11:49:53Z</time>
      </trkpt>
      <trkpt lat="47.2359" lon="7.64734">
        <ele>419.8</ele>
        <time>2022-10-01T11:49:54Z</time>
      </trkpt>
      <trkpt lat="47.2359" lon="7.64743">
        <ele>419.7</ele>
        <time>2022-10-01T11:49:55Z</time>
      </trkpt>
      <trkpt lat="47.2359" lon="7.64752">
        <ele>419.7</ele>
        <time>2022-10-01T11:49:56Z</time>
      </trkpt>
      <trkpt lat="47.2359" lon="7.6476">
        <ele>419.7</ele>
        <time>2022-10-01T11:49:57Z</time>
      </trkpt>
      <trkpt lat="47.2359" lon="7.64768">
        <ele>419.6</ele>
        <time>2022-10-01T11:49:58Z</time>
      </trkpt>
      <trkpt lat="47.2359" lon="7.64777">
        <ele>419.6</ele>
        <time>2022-10-01T11:49:59Z</time>
      </trkpt>
      <trkpt lat="47.2359" lon="7.64786">
        <ele>419.5</ele>
        <time>2022-10-01T11:50:00Z</time>
      </trkpt>
      <trkpt lat="47.23589" lon="7.64795">
        <ele>419.5</ele>
        <time>2022-10-01T11:50:01Z</time>
      </trkpt>
      <trkpt lat="47.23589" lon="7.64803">
        <ele>419.5</ele>
        <time>2022-10-01T11:50:02Z</time>
      </trkpt>
      <trkpt lat="47.23589" lon="7.64811">
        <ele>419.5</ele>
        <time>2022-10-01T11:50:03Z</time>
      </trkpt>
      <trkpt lat="47.23588" lon="7.6482">
        <ele>419.5</ele>
        <time>2022-10-01T11:50:04Z</time>
      </trkpt>
      <trkpt lat="47.23588" lon="7.64828">
        <ele>419.5</ele>
        <time>2022-10-01T11:50:06Z</time>
      </trkpt>
      <trkpt lat="47.23588" lon="7.64837">
        <ele>419.5</ele>
        <time>2022-10-01T11:50:07Z</time>
      </trkpt>
      <trkpt lat="47.23588" lon="7.64845">
        <ele>419.5</ele>
        <time>2022-10-01T11:50:08Z</time>
      </trkpt>
      <trkpt lat="47.23588" lon="7.64853">
        <ele>419.5</ele>
        <time>2022-10-01T11:50:09Z</time>
      </trkpt>
      <trkpt lat="47.23588" lon="7.64862">
        <ele>419.5</ele>
        <time>2022-10-01T11:50:10Z</time>
      </trkpt>
      <trkpt lat="47.23588" lon="7.6487">
        <ele>419.4</ele>
        <time>2022-10-01T11:50:11Z</time>
      </trkpt>
      <trkpt lat="47.23587" lon="7.64878">
        <ele>419.4</ele>
        <time>2022-10-01T11:50:12Z</time>
      </trkpt>
      <trkpt lat="47.23587" lon="7.64887">
        <ele>419.4</ele>
        <time>2022-10-01T11:50:13Z</time>
      </trkpt>
      <trkpt lat="47.23587" lon="7.64895">
        <ele>419.4</ele>
        <time>2022-10-01T11:50:14Z</time>
      </trkpt>
      <trkpt lat="47.23587" lon="7.64913">
        <ele>419.4</ele>
        <time>2022-10-01T11:50:15Z</time>
      </trkpt>
      <trkpt lat="47.23587" lon="7.64924">
        <ele>419.4</ele>
        <time>2022-10-01T11:50:16Z</time>
      </trkpt>
      <trkpt lat="47.23587" lon="7.64931">
        <ele>419.4</ele>
        <time>2022-10-01T11:50:17Z</time>
      </trkpt>
      <trkpt lat="47.23586" lon="7.64939">
        <ele>419.4</ele>
        <time>2022-10-01T11:50:18Z</time>
      </trkpt>
      <trkpt lat="47.23586" lon="7.6495">
        <ele>419.4</ele>
        <time>2022-10-01T11:50:20Z</time>
      </trkpt>
      <trkpt lat="47.23586" lon="7.64967">
        <ele>419.4</ele>
        <time>2022-10-01T11:50:21Z</time>
      </trkpt>
      <trkpt lat="47.23586" lon="7.64976">
        <ele>419.4</ele>
        <time>2022-10-01T11:50:22Z</time>
      </trkpt>
      <trkpt lat="47.23586" lon="7.64986">
        <ele>419.4</ele>
        <time>2022-10-01T11:50:24Z</time>
      </trkpt>
      <trkpt lat="47.23586" lon="7.64995">
        <ele>419.4</ele>
        <time>2022-10-01T11:50:25Z</time>
      </trkpt>
      <trkpt lat="47.23586" lon="7.65003">
        <ele>419.5</ele>
        <time>2022-10-01T11:50:26Z</time>
      </trkpt>
      <trkpt lat="47.23587" lon="7.65013">
        <ele>419.5</ele>
        <time>2022-10-01T11:50:27Z</time>
      </trkpt>
      <trkpt lat="47.23587" lon="7.65022">
        <ele>419.5</ele>
        <time>2022-10-01T11:50:28Z</time>
      </trkpt>
      <trkpt lat="47.23587" lon="7.65031">
        <ele>419.5</ele>
        <time>2022-10-01T11:50:29Z</time>
      </trkpt>
      <trkpt lat="47.23587" lon="7.65039">
        <ele>419.5</ele>
        <time>2022-10-01T11:50:30Z</time>
      </trkpt>
      <trkpt lat="47.23587" lon="7.65048">
        <ele>419.5</ele>
        <time>2022-10-01T11:50:31Z</time>
      </trkpt>
      <trkpt lat="47.23587" lon="7.65056">
        <ele>419.6</ele>
        <time>2022-10-01T11:50:32Z</time>
      </trkpt>
      <trkpt lat="47.23587" lon="7.65065">
        <ele>419.6</ele>
        <time>2022-10-01T11:50:33Z</time>
      </trkpt>
      <trkpt lat="47.23586" lon="7.65072">
        <ele>419.6</ele>
        <time>2022-10-01T11:50:34Z</time>
      </trkpt>
      <trkpt lat="47.23585" lon="7.65079">
        <ele>419.6</ele>
        <time>2022-10-01T11:50:35Z</time>
      </trkpt>
      <trkpt lat="47.23583" lon="7.65086">
        <ele>419.6</ele>
        <time>2022-10-01T11:50:36Z</time>
      </trkpt>
      <trkpt lat="47.23581" lon="7.65093">
        <ele>419.7</ele>
        <time>2022-10-01T11:50:37Z</time>
      </trkpt>
      <trkpt lat="47.23578" lon="7.651">
        <ele>419.7</ele>
        <time>2022-10-01T11:50:38Z</time>
      </trkpt>
      <trkpt lat="47.23575" lon="7.65107">
        <ele>419.7</ele>
        <time>2022-10-01T11:50:39Z</time>
      </trkpt>
      <trkpt lat="47.23572" lon="7.65114">
        <ele>419.7</ele>
        <time>2022-10-01T11:50:40Z</time>
      </trkpt>
      <trkpt lat="47.23569" lon="7.6512">
        <ele>419.7</ele>
        <time>2022-10-01T11:50:41Z</time>
      </trkpt>
      <trkpt lat="47.23565" lon="7.65127">
        <ele>419.8</ele>
        <time>2022-10-01T11:50:42Z</time>
      </trkpt>
      <trkpt lat="47.23561" lon="7.65132">
        <ele>419.8</ele>
        <time>2022-10-01T11:50:43Z</time>
      </trkpt>
      <trkpt lat="47.23557" lon="7.65138">
        <ele>419.8</ele>
        <time>2022-10-01T11:50:44Z</time>
      </trkpt>
      <trkpt lat="47.23553" lon="7.65145">
        <ele>419.8</ele>
        <time>2022-10-01T11:50:45Z</time>
      </trkpt>
      <trkpt lat="47.23549" lon="7.6515">
        <ele>419.8</ele>
        <time>2022-10-01T11:50:46Z</time>
      </trkpt>
      <trkpt lat="47.23546" lon="7.65156">
        <ele>419.8</ele>
        <time>2022-10-01T11:50:47Z</time>
      </trkpt>
      <trkpt lat="47.23541" lon="7.65162">
        <ele>419.9</ele>
        <time>2022-10-01T11:50:48Z</time>
      </trkpt>
      <trkpt lat="47.23538" lon="7.65168">
        <ele>419.9</ele>
        <time>2022-10-01T11:50:49Z</time>
      </trkpt>
      <trkpt lat="47.23534" lon="7.65174">
        <ele>419.9</ele>
        <time>2022-10-01T11:50:50Z</time>
      </trkpt>
      <trkpt lat="47.2353" lon="7.65181">
        <ele>419.9</ele>
        <time>2022-10-01T11:50:51Z</time>
      </trkpt>
      <trkpt lat="47.23526" lon="7.65187">
        <ele>420</ele>
        <time>2022-10-01T11:50:52Z</time>
      </trkpt>
      <trkpt lat="47.23522" lon="7.65192">
        <ele>420</ele>
        <time>2022-10-01T11:50:53Z</time>
      </trkpt>
      <trkpt lat="47.23518" lon="7.65198">
        <ele>420</ele>
        <time>2022-10-01T11:50:54Z</time>
      </trkpt>
      <trkpt lat="47.23514" lon="7.65204">
        <ele>420</ele>
        <time>2022-10-01T11:50:55Z</time>
      </trkpt>
      <trkpt lat="47.2351" lon="7.65209">
        <ele>420</ele>
        <time>2022-10-01T11:50:56Z</time>
      </trkpt>
      <trkpt lat="47.23507" lon="7.65214">
        <ele>420</ele>
        <time>2022-10-01T11:50:57Z</time>
      </trkpt>
      <trkpt lat="47.235" lon="7.65225">
        <ele>420</ele>
        <time>2022-10-01T11:50:58Z</time>
      </trkpt>
      <trkpt lat="47.23497" lon="7.65232">
        <ele>420</ele>
        <time>2022-10-01T11:50:59Z</time>
      </trkpt>
      <trkpt lat="47.23494" lon="7.65238">
        <ele>420.1</ele>
        <time>2022-10-01T11:51:00Z</time>
      </trkpt>
      <trkpt lat="47.23491" lon="7.65244">
        <ele>420.1</ele>
        <time>2022-10-01T11:51:01Z</time>
      </trkpt>
      <trkpt lat="47.2349" lon="7.65252">
        <ele>420.1</ele>
        <time>2022-10-01T11:51:02Z</time>
      </trkpt>
      <trkpt lat="47.23489" lon="7.6526">
        <ele>420.1</ele>
        <time>2022-10-01T11:51:03Z</time>
      </trkpt>
      <trkpt lat="47.23488" lon="7.65267">
        <ele>420.1</ele>
        <time>2022-10-01T11:51:04Z</time>
      </trkpt>
      <trkpt lat="47.23486" lon="7.65275">
        <ele>420</ele>
        <time>2022-10-01T11:51:05Z</time>
      </trkpt>
      <trkpt lat="47.23485" lon="7.65281">
        <ele>420</ele>
        <time>2022-10-01T11:51:06Z</time>
      </trkpt>
      <trkpt lat="47.23485" lon="7.65288">
        <ele>420</ele>
        <time>2022-10-01T11:51:07Z</time>
      </trkpt>
      <trkpt lat="47.23485" lon="7.65296">
        <ele>420</ele>
        <time>2022-10-01T11:51:08Z</time>
      </trkpt>
      <trkpt lat="47.23485" lon="7.65304">
        <ele>420</ele>
        <time>2022-10-01T11:51:09Z</time>
      </trkpt>
      <trkpt lat="47.23484" lon="7.65313">
        <ele>420</ele>
        <time>2022-10-01T11:51:10Z</time>
      </trkpt>
      <trkpt lat="47.23484" lon="7.65321">
        <ele>420</ele>
        <time>2022-10-01T11:51:11Z</time>
      </trkpt>
      <trkpt lat="47.23483" lon="7.6533">
        <ele>419.9</ele>
        <time>2022-10-01T11:51:12Z</time>
      </trkpt>
      <trkpt lat="47.23482" lon="7.65339">
        <ele>419.9</ele>
        <time>2022-10-01T11:51:13Z</time>
      </trkpt>
      <trkpt lat="47.23482" lon="7.65348">
        <ele>419.8</ele>
        <time>2022-10-01T11:51:14Z</time>
      </trkpt>
      <trkpt lat="47.23482" lon="7.65356">
        <ele>419.8</ele>
        <time>2022-10-01T11:51:15Z</time>
      </trkpt>
      <trkpt lat="47.23482" lon="7.65365">
        <ele>419.8</ele>
        <time>2022-10-01T11:51:16Z</time>
      </trkpt>
      <trkpt lat="47.23481" lon="7.65373">
        <ele>419.7</ele>
        <time>2022-10-01T11:51:17Z</time>
      </trkpt>
      <trkpt lat="47.23482" lon="7.65382">
        <ele>419.7</ele>
        <time>2022-10-01T11:51:18Z</time>
      </trkpt>
      <trkpt lat="47.23481" lon="7.65391">
        <ele>419.7</ele>
        <time>2022-10-01T11:51:19Z</time>
      </trkpt>
      <trkpt lat="47.23481" lon="7.65399">
        <ele>419.7</ele>
        <time>2022-10-01T11:51:20Z</time>
      </trkpt>
      <trkpt lat="47.2348" lon="7.65408">
        <ele>419.7</ele>
        <time>2022-10-01T11:51:21Z</time>
      </trkpt>
      <trkpt lat="47.2348" lon="7.65416">
        <ele>419.6</ele>
        <time>2022-10-01T11:51:22Z</time>
      </trkpt>
      <trkpt lat="47.2348" lon="7.65425">
        <ele>419.6</ele>
        <time>2022-10-01T11:51:23Z</time>
      </trkpt>
      <trkpt lat="47.2348" lon="7.65433">
        <ele>419.6</ele>
        <time>2022-10-01T11:51:24Z</time>
      </trkpt>
      <trkpt lat="47.2348" lon="7.65441">
        <ele>419.6</ele>
        <time>2022-10-01T11:51:25Z</time>
      </trkpt>
      <trkpt lat="47.2348" lon="7.6545">
        <ele>419.6</ele>
        <time>2022-10-01T11:51:26Z</time>
      </trkpt>
      <trkpt lat="47.23478" lon="7.65458">
        <ele>419.6</ele>
        <time>2022-10-01T11:51:27Z</time>
      </trkpt>
      <trkpt lat="47.23478" lon="7.65464">
        <ele>419.6</ele>
        <time>2022-10-01T11:51:28Z</time>
      </trkpt>
      <trkpt lat="47.23478" lon="7.65472">
        <ele>419.6</ele>
        <time>2022-10-01T11:51:29Z</time>
      </trkpt>
      <trkpt lat="47.23478" lon="7.65478">
        <ele>419.6</ele>
        <time>2022-10-01T11:51:30Z</time>
      </trkpt>
      <trkpt lat="47.23477" lon="7.65485">
        <ele>419.6</ele>
        <time>2022-10-01T11:51:31Z</time>
      </trkpt>
      <trkpt lat="47.23477" lon="7.65489">
        <ele>419.5</ele>
        <time>2022-10-01T11:51:32Z</time>
      </trkpt>
      <trkpt lat="47.23477" lon="7.65495">
        <ele>419.5</ele>
        <time>2022-10-01T11:51:33Z</time>
      </trkpt>
      <trkpt lat="47.23477" lon="7.65497">
        <ele>419.5</ele>
        <time>2022-10-01T11:51:34Z</time>
      </trkpt>
      <trkpt lat="47.23478" lon="7.65501">
        <ele>419.5</ele>
        <time>2022-10-01T11:51:35Z</time>
      </trkpt>
      <trkpt lat="47.23481" lon="7.65505">
        <ele>419.5</ele>
        <time>2022-10-01T11:51:36Z</time>
      </trkpt>
      <trkpt lat="47.23481" lon="7.65506">
        <ele>419.5</ele>
        <time>2022-10-01T11:51:37Z</time>
      </trkpt>
      <trkpt lat="47.23483" lon="7.65508">
        <ele>419.5</ele>
        <time>2022-10-01T11:51:38Z</time>
      </trkpt>
      <trkpt lat="47.23483" lon="7.65509">
        <ele>419.5</ele>
        <time>2022-10-01T11:51:39Z</time>
      </trkpt>
      <trkpt lat="47.23482" lon="7.6551">
        <ele>419.5</ele>
        <time>2022-10-01T11:51:40Z</time>
      </trkpt>
      <trkpt lat="47.2348" lon="7.65513">
        <ele>419.6</ele>
        <time>2022-10-01T11:51:41Z</time>
      </trkpt>
      <trkpt lat="47.23479" lon="7.65514">
        <ele>419.6</ele>
        <time>2022-10-01T11:51:42Z</time>
      </trkpt>
      <trkpt lat="47.23476" lon="7.65517">
        <ele>419.6</ele>
        <time>2022-10-01T11:51:43Z</time>
      </trkpt>
      <trkpt lat="47.23473" lon="7.6552">
        <ele>419.6</ele>
        <time>2022-10-01T11:51:44Z</time>
      </trkpt>
      <trkpt lat="47.23472" lon="7.65521">
        <ele>419.6</ele>
        <time>2022-10-01T11:51:45Z</time>
      </trkpt>
      <trkpt lat="47.2347" lon="7.65525">
        <ele>419.6</ele>
        <time>2022-10-01T11:51:46Z</time>
      </trkpt>
      <trkpt lat="47.23468" lon="7.65529">
        <ele>419.6</ele>
        <time>2022-10-01T11:51:47Z</time>
      </trkpt>
      <trkpt lat="47.23466" lon="7.65534">
        <ele>419.6</ele>
        <time>2022-10-01T11:51:48Z</time>
      </trkpt>
      <trkpt lat="47.23464" lon="7.65538">
        <ele>419.7</ele>
        <time>2022-10-01T11:51:49Z</time>
      </trkpt>
      <trkpt lat="47.2346" lon="7.65543">
        <ele>419.7</ele>
        <time>2022-10-01T11:51:50Z</time>
      </trkpt>
      <trkpt lat="47.23459" lon="7.65548">
        <ele>419.7</ele>
        <time>2022-10-01T11:51:51Z</time>
      </trkpt>
      <trkpt lat="47.23458" lon="7.65553">
        <ele>419.8</ele>
        <time>2022-10-01T11:51:52Z</time>
      </trkpt>
      <trkpt lat="47.23458" lon="7.65557">
        <ele>419.8</ele>
        <time>2022-10-01T11:51:53Z</time>
      </trkpt>
      <trkpt lat="47.23458" lon="7.65562">
        <ele>419.8</ele>
        <time>2022-10-01T11:51:54Z</time>
      </trkpt>
      <trkpt lat="47.23458" lon="7.65566">
        <ele>419.8</ele>
        <time>2022-10-01T11:51:55Z</time>
      </trkpt>
      <trkpt lat="47.23459" lon="7.65571">
        <ele>419.7</ele>
        <time>2022-10-01T11:51:56Z</time>
      </trkpt>
      <trkpt lat="47.23458" lon="7.65575">
        <ele>419.7</ele>
        <time>2022-10-01T11:51:57Z</time>
      </trkpt>
      <trkpt lat="47.23457" lon="7.6558">
        <ele>419.7</ele>
        <time>2022-10-01T11:51:58Z</time>
      </trkpt>
      <trkpt lat="47.23455" lon="7.65583">
        <ele>419.6</ele>
        <time>2022-10-01T11:51:59Z</time>
      </trkpt>
      <trkpt lat="47.23454" lon="7.65584">
        <ele>419.6</ele>
        <time>2022-10-01T11:52:00Z</time>
      </trkpt>
      <trkpt lat="47.23452" lon="7.65584">
        <ele>419.6</ele>
        <time>2022-10-01T11:52:01Z</time>
      </trkpt>
      <trkpt lat="47.23451" lon="7.65585">
        <ele>419.6</ele>
        <time>2022-10-01T11:52:02Z</time>
      </trkpt>
      <trkpt lat="47.2345" lon="7.65585">
        <ele>419.6</ele>
        <time>2022-10-01T11:52:03Z</time>
      </trkpt>
      <trkpt lat="47.23448" lon="7.65585">
        <ele>419.6</ele>
        <time>2022-10-01T11:52:04Z</time>
      </trkpt>
      <trkpt lat="47.23448" lon="7.65586">
        <ele>419.6</ele>
        <time>2022-10-01T11:52:05Z</time>
      </trkpt>
      <trkpt lat="47.23447" lon="7.65587">
        <ele>419.6</ele>
        <time>2022-10-01T11:52:06Z</time>
      </trkpt>
      <trkpt lat="47.23447" lon="7.65589">
        <ele>419.6</ele>
        <time>2022-10-01T11:52:07Z</time>
      </trkpt>
      <trkpt lat="47.23447" lon="7.65591">
        <ele>419.6</ele>
        <time>2022-10-01T11:52:08Z</time>
      </trkpt>
      <trkpt lat="47.23447" lon="7.65592">
        <ele>419.6</ele>
        <time>2022-10-01T11:52:09Z</time>
      </trkpt>
      <trkpt lat="47.23447" lon="7.65592">
        <ele>419.6</ele>
        <time>2022-10-01T11:52:10Z</time>
      </trkpt>
      <trkpt lat="47.23448" lon="7.65592">
        <ele>419.6</ele>
        <time>2022-10-01T11:52:11Z</time>
      </trkpt>
      <trkpt lat="47.23448" lon="7.65592">
        <ele>419.6</ele>
        <time>2022-10-01T11:52:12Z</time>
      </trkpt>
      <trkpt lat="47.23448" lon="7.65592">
        <ele>419.6</ele>
        <time>2022-10-01T11:52:13Z</time>
      </trkpt>
      <trkpt lat="47.23448" lon="7.65592">
        <ele>419.6</ele>
        <time>2022-10-01T11:52:14Z</time>
      </trkpt>
      <trkpt lat="47.23448" lon="7.65592">
        <ele>419.6</ele>
        <time>2022-10-01T11:52:15Z</time>
      </trkpt>
      <trkpt lat="47.23448" lon="7.65594">
        <ele>419.6</ele>
        <time>2022-10-01T11:52:16Z</time>
      </trkpt>
      <trkpt lat="47.23449" lon="7.65594">
        <ele>419.6</ele>
        <time>2022-10-01T11:52:17Z</time>
      </trkpt>
      <trkpt lat="47.23449" lon="7.65594">
        <ele>419.6</ele>
        <time>2022-10-01T11:52:18Z</time>
      </trkpt>
      <trkpt lat="47.23449" lon="7.65594">
        <ele>419.6</ele>
        <time>2022-10-01T11:52:19Z</time>
      </trkpt>
      <trkpt lat="47.2345" lon="7.656">
        <ele>419.6</ele>
        <time>2022-10-01T11:52:44Z</time>
      </trkpt>
      <trkpt lat="47.2345" lon="7.656">
        <ele>419.6</ele>
        <time>2022-10-01T11:52:45Z</time>
      </trkpt>
      <trkpt lat="47.2345" lon="7.656">
        <ele>419.6</ele>
        <time>2022-10-01T11:52:46Z</time>
      </trkpt>
      <trkpt lat="47.2345" lon="7.65599">
        <ele>419.6</ele>
        <time>2022-10-01T11:52:47Z</time>
      </trkpt>
      <trkpt lat="47.2345" lon="7.65599">
        <ele>419.6</ele>
        <time>2022-10-01T11:52:48Z</time>
      </trkpt>
      <trkpt lat="47.23451" lon="7.65598">
        <ele>419.6</ele>
        <time>2022-10-01T11:52:49Z</time>
      </trkpt>
      <trkpt lat="47.23451" lon="7.65598">
        <ele>419.6</ele>
        <time>2022-10-01T11:52:50Z</time>
      </trkpt>
      <trkpt lat="47.23452" lon="7.65597">
        <ele>419.6</ele>
        <time>2022-10-01T11:52:51Z</time>
      </trkpt>
      <trkpt lat="47.23452" lon="7.65597">
        <ele>419.6</ele>
        <time>2022-10-01T11:52:52Z</time>
      </trkpt>
      <trkpt lat="47.23452" lon="7.65597">
        <ele>419.6</ele>
        <time>2022-10-01T11:52:53Z</time>
      </trkpt>
      <trkpt lat="47.23452" lon="7.65597">
        <ele>419.6</ele>
        <time>2022-10-01T11:52:54Z</time>
      </trkpt>
      <trkpt lat="47.23447" lon="7.65588">
        <ele>419.6</ele>
        <time>2022-10-01T11:56:22Z</time>
      </trkpt>
      <trkpt lat="47.23445" lon="7.65587">
        <ele>419.6</ele>
        <time>2022-10-01T11:56:24Z</time>
      </trkpt>
      <trkpt lat="47.23444" lon="7.65587">
        <ele>419.6</ele>
        <time>2022-10-01T11:56:25Z</time>
      </trkpt>
      <trkpt lat="47.23442" lon="7.65587">
        <ele>419.6</ele>
        <time>2022-10-01T11:56:26Z</time>
      </trkpt>
      <trkpt lat="47.23439" lon="7.65586">
        <ele>419.6</ele>
        <time>2022-10-01T11:56:27Z</time>
      </trkpt>
      <trkpt lat="47.23439" lon="7.65586">
        <ele>419.6</ele>
        <time>2022-10-01T11:56:28Z</time>
      </trkpt>
      <trkpt lat="47.23438" lon="7.65586">
        <ele>419.6</ele>
        <time>2022-10-01T11:56:30Z</time>
      </trkpt>
      <trkpt lat="47.23438" lon="7.65586">
        <ele>419.6</ele>
        <time>2022-10-01T11:56:31Z</time>
      </trkpt>
      <trkpt lat="47.23439" lon="7.65586">
        <ele>419.6</ele>
        <time>2022-10-01T11:56:32Z</time>
      </trkpt>
      <trkpt lat="47.23439" lon="7.65586">
        <ele>419.6</ele>
        <time>2022-10-01T11:56:33Z</time>
      </trkpt>
      <trkpt lat="47.23439" lon="7.65586">
        <ele>419.6</ele>
        <time>2022-10-01T11:56:34Z</time>
      </trkpt>
      <trkpt lat="47.23439" lon="7.65586">
        <ele>419.6</ele>
        <time>2022-10-01T11:56:35Z</time>
      </trkpt>
      <trkpt lat="47.23439" lon="7.65587">
        <ele>419.6</ele>
        <time>2022-10-01T11:56:36Z</time>
      </trkpt>
      <trkpt lat="47.23439" lon="7.65587">
        <ele>419.6</ele>
        <time>2022-10-01T11:56:37Z</time>
      </trkpt>
      <trkpt lat="47.23439" lon="7.65587">
        <ele>419.6</ele>
        <time>2022-10-01T11:56:38Z</time>
      </trkpt>
      <trkpt lat="47.23439" lon="7.65587">
        <ele>419.6</ele>
        <time>2022-10-01T12:04:11Z</time>
      </trkpt>
      <trkpt lat="47.23439" lon="7.65587">
        <ele>419.6</ele>
        <time>2022-10-01T12:04:12Z</time>
      </trkpt>
      <trkpt lat="47.2344" lon="7.65587">
        <ele>419.6</ele>
        <time>2022-10-01T12:04:13Z</time>
      </trkpt>
      <trkpt lat="47.2344" lon="7.65587">
        <ele>419.6</ele>
        <time>2022-10-01T12:04:14Z</time>
      </trkpt>
      <trkpt lat="47.2344" lon="7.65588">
        <ele>419.6</ele>
        <time>2022-10-01T12:04:15Z</time>
      </trkpt>
      <trkpt lat="47.2344" lon="7.65588">
        <ele>419.6</ele>
        <time>2022-10-01T12:04:16Z</time>
      </trkpt>
      <trkpt lat="47.2344" lon="7.65588">
        <ele>419.6</ele>
        <time>2022-10-01T12:04:17Z</time>
      </trkpt>
      <trkpt lat="47.2344" lon="7.65588">
        <ele>419.6</ele>
        <time>2022-10-01T12:04:18Z</time>
      </trkpt>
      <trkpt lat="47.2344" lon="7.65588">
        <ele>419.6</ele>
        <time>2022-10-01T12:04:19Z</time>
      </trkpt>
      <trkpt lat="47.2344" lon="7.65588">
        <ele>419.6</ele>
        <time>2022-10-01T12:04:20Z</time>
      </trkpt>
      <trkpt lat="47.23441" lon="7.65589">
        <ele>419.6</ele>
        <time>2022-10-01T12:04:21Z</time>
      </trkpt>
      <trkpt lat="47.23441" lon="7.65589">
        <ele>419.6</ele>
        <time>2022-10-01T12:04:22Z</time>
      </trkpt>
      <trkpt lat="47.23441" lon="7.65589">
        <ele>419.6</ele>
        <time>2022-10-01T12:04:23Z</time>
      </trkpt>
      <trkpt lat="47.23441" lon="7.65589">
        <ele>419.6</ele>
        <time>2022-10-01T12:04:24Z</time>
      </trkpt>
      <trkpt lat="47.23441" lon="7.65589">
        <ele>419.6</ele>
        <time>2022-10-01T12:04:25Z</time>
      </trkpt>
      <trkpt lat="47.23441" lon="7.65589">
        <ele>419.6</ele>
        <time>2022-10-01T12:04:26Z</time>
      </trkpt>
      <trkpt lat="47.23441" lon="7.6559">
        <ele>419.6</ele>
        <time>2022-10-01T12:04:27Z</time>
      </trkpt>
      <trkpt lat="47.23441" lon="7.6559">
        <ele>419.6</ele>
        <time>2022-10-01T12:04:28Z</time>
      </trkpt>
      <trkpt lat="47.23441" lon="7.6559">
        <ele>419.6</ele>
        <time>2022-10-01T12:04:29Z</time>
      </trkpt>
      <trkpt lat="47.23442" lon="7.6559">
        <ele>419.6</ele>
        <time>2022-10-01T12:04:39Z</time>
      </trkpt>
      <trkpt lat="47.23442" lon="7.6559">
        <ele>419.6</ele>
        <time>2022-10-01T12:04:40Z</time>
      </trkpt>
      <trkpt lat="47.23444" lon="7.65588">
        <ele>419.6</ele>
        <time>2022-10-01T12:04:41Z</time>
      </trkpt>
      <trkpt lat="47.23445" lon="7.65587">
        <ele>419.6</ele>
        <time>2022-10-01T12:04:42Z</time>
      </trkpt>
      <trkpt lat="47.23446" lon="7.65586">
        <ele>419.6</ele>
        <time>2022-10-01T12:04:43Z</time>
      </trkpt>
      <trkpt lat="47.23446" lon="7.65588">
        <ele>419.6</ele>
        <time>2022-10-01T12:04:44Z</time>
      </trkpt>
      <trkpt lat="47.23448" lon="7.65591">
        <ele>419.6</ele>
        <time>2022-10-01T12:04:45Z</time>
      </trkpt>
      <trkpt lat="47.23449" lon="7.65593">
        <ele>419.6</ele>
        <time>2022-10-01T12:04:46Z</time>
      </trkpt>
      <trkpt lat="47.23449" lon="7.65594">
        <ele>419.6</ele>
        <time>2022-10-01T12:04:48Z</time>
      </trkpt>
      <trkpt lat="47.23449" lon="7.65596">
        <ele>419.6</ele>
        <time>2022-10-01T12:04:49Z</time>
      </trkpt>
      <trkpt lat="47.23449" lon="7.65598">
        <ele>419.6</ele>
        <time>2022-10-01T12:04:50Z</time>
      </trkpt>
      <trkpt lat="47.23449" lon="7.65599">
        <ele>419.6</ele>
        <time>2022-10-01T12:04:51Z</time>
      </trkpt>
      <trkpt lat="47.2345" lon="7.65598">
        <ele>419.6</ele>
        <time>2022-10-01T12:04:52Z</time>
      </trkpt>
      <trkpt lat="47.2345" lon="7.65598">
        <ele>419.6</ele>
        <time>2022-10-01T12:04:53Z</time>
      </trkpt>
      <trkpt lat="47.23451" lon="7.65597">
        <ele>419.6</ele>
        <time>2022-10-01T12:04:54Z</time>
      </trkpt>
      <trkpt lat="47.23451" lon="7.65597">
        <ele>419.6</ele>
        <time>2022-10-01T12:04:55Z</time>
      </trkpt>
      <trkpt lat="47.23451" lon="7.65596">
        <ele>419.6</ele>
        <time>2022-10-01T12:04:56Z</time>
      </trkpt>
      <trkpt lat="47.23452" lon="7.65596">
        <ele>419.6</ele>
        <time>2022-10-01T12:04:57Z</time>
      </trkpt>
      <trkpt lat="47.23452" lon="7.65595">
        <ele>419.6</ele>
        <time>2022-10-01T12:04:58Z</time>
      </trkpt>
      <trkpt lat="47.23452" lon="7.65595">
        <ele>419.6</ele>
        <time>2022-10-01T12:04:59Z</time>
      </trkpt>
      <trkpt lat="47.23453" lon="7.65594">
        <ele>419.6</ele>
        <time>2022-10-01T12:05:00Z</time>
      </trkpt>
      <trkpt lat="47.23453" lon="7.65594">
        <ele>419.6</ele>
        <time>2022-10-01T12:09:44Z</time>
      </trkpt>
      <trkpt lat="47.23453" lon="7.65594">
        <ele>419.6</ele>
        <time>2022-10-01T12:09:45Z</time>
      </trkpt>
      <trkpt lat="47.23454" lon="7.65593">
        <ele>419.6</ele>
        <time>2022-10-01T12:09:46Z</time>
      </trkpt>
      <trkpt lat="47.23454" lon="7.65593">
        <ele>419.6</ele>
        <time>2022-10-01T12:09:47Z</time>
      </trkpt>
      <trkpt lat="47.23454" lon="7.65592">
        <ele>419.6</ele>
        <time>2022-10-01T12:09:48Z</time>
      </trkpt>
      <trkpt lat="47.23454" lon="7.65592">
        <ele>419.6</ele>
        <time>2022-10-01T12:09:49Z</time>
      </trkpt>
      <trkpt lat="47.23455" lon="7.65591">
        <ele>419.6</ele>
        <time>2022-10-01T12:09:50Z</time>
      </trkpt>
      <trkpt lat="47.23455" lon="7.65591">
        <ele>419.6</ele>
        <time>2022-10-01T12:09:51Z</time>
      </trkpt>
      <trkpt lat="47.23455" lon="7.65591">
        <ele>419.6</ele>
        <time>2022-10-01T12:09:52Z</time>
      </trkpt>
      <trkpt lat="47.23456" lon="7.6559">
        <ele>419.6</ele>
        <time>2022-10-01T12:09:53Z</time>
      </trkpt>
      <trkpt lat="47.23456" lon="7.6559">
        <ele>419.6</ele>
        <time>2022-10-01T12:10:06Z</time>
      </trkpt>
      <trkpt lat="47.23456" lon="7.65589">
        <ele>419.6</ele>
        <time>2022-10-01T12:10:07Z</time>
      </trkpt>
      <trkpt lat="47.23454" lon="7.65588">
        <ele>419.6</ele>
        <time>2022-10-01T12:10:08Z</time>
      </trkpt>
      <trkpt lat="47.23453" lon="7.65587">
        <ele>419.6</ele>
        <time>2022-10-01T12:10:09Z</time>
      </trkpt>
      <trkpt lat="47.23451" lon="7.65586">
        <ele>419.6</ele>
        <time>2022-10-01T12:10:10Z</time>
      </trkpt>
      <trkpt lat="47.23451" lon="7.65584">
        <ele>419.6</ele>
        <time>2022-10-01T12:10:11Z</time>
      </trkpt>
      <trkpt lat="47.2345" lon="7.65584">
        <ele>419.6</ele>
        <time>2022-10-01T12:10:12Z</time>
      </trkpt>
      <trkpt lat="47.23451" lon="7.65583">
        <ele>419.6</ele>
        <time>2022-10-01T12:10:13Z</time>
      </trkpt>
      <trkpt lat="47.23452" lon="7.65583">
        <ele>419.6</ele>
        <time>2022-10-01T12:10:14Z</time>
      </trkpt>
      <trkpt lat="47.23453" lon="7.65583">
        <ele>419.6</ele>
        <time>2022-10-01T12:10:15Z</time>
      </trkpt>
      <trkpt lat="47.23454" lon="7.65583">
        <ele>419.6</ele>
        <time>2022-10-01T12:10:16Z</time>
      </trkpt>
      <trkpt lat="47.23454" lon="7.65583">
        <ele>419.6</ele>
        <time>2022-10-01T12:10:17Z</time>
      </trkpt>
      <trkpt lat="47.23456" lon="7.65582">
        <ele>419.6</ele>
        <time>2022-10-01T12:10:18Z</time>
      </trkpt>
      <trkpt lat="47.23457" lon="7.65582">
        <ele>419.6</ele>
        <time>2022-10-01T12:10:19Z</time>
      </trkpt>
      <trkpt lat="47.23458" lon="7.65581">
        <ele>419.6</ele>
        <time>2022-10-01T12:10:20Z</time>
      </trkpt>
      <trkpt lat="47.23459" lon="7.65581">
        <ele>419.7</ele>
        <time>2022-10-01T12:10:21Z</time>
      </trkpt>
      <trkpt lat="47.23459" lon="7.6558">
        <ele>419.7</ele>
        <time>2022-10-01T12:10:22Z</time>
      </trkpt>
      <trkpt lat="47.2346" lon="7.65579">
        <ele>419.7</ele>
        <time>2022-10-01T12:10:23Z</time>
      </trkpt>
      <trkpt lat="47.23461" lon="7.65579">
        <ele>419.7</ele>
        <time>2022-10-01T12:10:24Z</time>
      </trkpt>
      <trkpt lat="47.23462" lon="7.65578">
        <ele>419.7</ele>
        <time>2022-10-01T12:10:25Z</time>
      </trkpt>
      <trkpt lat="47.23463" lon="7.65578">
        <ele>419.7</ele>
        <time>2022-10-01T12:10:26Z</time>
      </trkpt>
      <trkpt lat="47.23464" lon="7.65578">
        <ele>419.7</ele>
        <time>2022-10-01T12:10:27Z</time>
      </trkpt>
      <trkpt lat="47.23465" lon="7.65577">
        <ele>419.7</ele>
        <time>2022-10-01T12:10:28Z</time>
      </trkpt>
      <trkpt lat="47.23465" lon="7.65577">
        <ele>419.7</ele>
        <time>2022-10-01T12:10:29Z</time>
      </trkpt>
      <trkpt lat="47.23466" lon="7.65576">
        <ele>419.7</ele>
        <time>2022-10-01T12:10:30Z</time>
      </trkpt>
      <trkpt lat="47.23467" lon="7.65573">
        <ele>419.7</ele>
        <time>2022-10-01T12:10:31Z</time>
      </trkpt>
      <trkpt lat="47.23467" lon="7.65572">
        <ele>419.7</ele>
        <time>2022-10-01T12:10:32Z</time>
      </trkpt>
      <trkpt lat="47.23467" lon="7.65571">
        <ele>419.7</ele>
        <time>2022-10-01T12:10:33Z</time>
      </trkpt>
      <trkpt lat="47.23467" lon="7.65569">
        <ele>419.7</ele>
        <time>2022-10-01T12:10:34Z</time>
      </trkpt>
      <trkpt lat="47.23467" lon="7.65567">
        <ele>419.7</ele>
        <time>2022-10-01T12:10:35Z</time>
      </trkpt>
      <trkpt lat="47.23467" lon="7.65566">
        <ele>419.8</ele>
        <time>2022-10-01T12:10:36Z</time>
      </trkpt>
      <trkpt lat="47.23467" lon="7.65563">
        <ele>419.8</ele>
        <time>2022-10-01T12:10:37Z</time>
      </trkpt>
      <trkpt lat="47.23467" lon="7.65561">
        <ele>419.8</ele>
        <time>2022-10-01T12:10:38Z</time>
      </trkpt>
      <trkpt lat="47.23468" lon="7.65559">
        <ele>419.8</ele>
        <time>2022-10-01T12:10:39Z</time>
      </trkpt>
      <trkpt lat="47.23468" lon="7.65557">
        <ele>419.7</ele>
        <time>2022-10-01T12:10:40Z</time>
      </trkpt>
      <trkpt lat="47.23468" lon="7.65555">
        <ele>419.7</ele>
        <time>2022-10-01T12:10:41Z</time>
      </trkpt>
      <trkpt lat="47.23469" lon="7.65553">
        <ele>419.7</ele>
        <time>2022-10-01T12:10:42Z</time>
      </trkpt>
      <trkpt lat="47.2347" lon="7.65551">
        <ele>419.7</ele>
        <time>2022-10-01T12:10:43Z</time>
      </trkpt>
      <trkpt lat="47.23471" lon="7.65548">
        <ele>419.7</ele>
        <time>2022-10-01T12:10:44Z</time>
      </trkpt>
      <trkpt lat="47.23472" lon="7.65547">
        <ele>419.7</ele>
        <time>2022-10-01T12:10:45Z</time>
      </trkpt>
      <trkpt lat="47.23474" lon="7.65544">
        <ele>419.7</ele>
        <time>2022-10-01T12:10:46Z</time>
      </trkpt>
      <trkpt lat="47.23475" lon="7.65544">
        <ele>419.7</ele>
        <time>2022-10-01T12:10:47Z</time>
      </trkpt>
      <trkpt lat="47.23476" lon="7.65543">
        <ele>419.6</ele>
        <time>2022-10-01T12:10:48Z</time>
      </trkpt>
      <trkpt lat="47.23477" lon="7.65541">
        <ele>419.6</ele>
        <time>2022-10-01T12:10:49Z</time>
      </trkpt>
      <trkpt lat="47.23478" lon="7.65539">
        <ele>419.6</ele>
        <time>2022-10-01T12:10:50Z</time>
      </trkpt>
      <trkpt lat="47.23479" lon="7.65537">
        <ele>419.6</ele>
        <time>2022-10-01T12:10:51Z</time>
      </trkpt>
      <trkpt lat="47.2348" lon="7.65536">
        <ele>419.6</ele>
        <time>2022-10-01T12:10:52Z</time>
      </trkpt>
      <trkpt lat="47.23481" lon="7.65534">
        <ele>419.6</ele>
        <time>2022-10-01T12:10:53Z</time>
      </trkpt>
      <trkpt lat="47.23482" lon="7.65532">
        <ele>419.6</ele>
        <time>2022-10-01T12:10:54Z</time>
      </trkpt>
      <trkpt lat="47.23483" lon="7.65531">
        <ele>419.6</ele>
        <time>2022-10-01T12:10:55Z</time>
      </trkpt>
      <trkpt lat="47.23484" lon="7.65529">
        <ele>419.6</ele>
        <time>2022-10-01T12:10:56Z</time>
      </trkpt>
      <trkpt lat="47.23485" lon="7.65528">
        <ele>419.6</ele>
        <time>2022-10-01T12:10:57Z</time>
      </trkpt>
      <trkpt lat="47.23485" lon="7.65527">
        <ele>419.6</ele>
        <time>2022-10-01T12:10:58Z</time>
      </trkpt>
      <trkpt lat="47.23487" lon="7.65525">
        <ele>419.6</ele>
        <time>2022-10-01T12:10:59Z</time>
      </trkpt>
      <trkpt lat="47.23487" lon="7.65523">
        <ele>419.6</ele>
        <time>2022-10-01T12:11:00Z</time>
      </trkpt>
      <trkpt lat="47.23488" lon="7.65522">
        <ele>419.6</ele>
        <time>2022-10-01T12:11:01Z</time>
      </trkpt>
      <trkpt lat="47.23489" lon="7.65518">
        <ele>419.5</ele>
        <time>2022-10-01T12:11:02Z</time>
      </trkpt>
      <trkpt lat="47.23489" lon="7.65517">
        <ele>419.5</ele>
        <time>2022-10-01T12:11:03Z</time>
      </trkpt>
      <trkpt lat="47.2349" lon="7.65516">
        <ele>419.5</ele>
        <time>2022-10-01T12:11:04Z</time>
      </trkpt>
      <trkpt lat="47.23492" lon="7.65515">
        <ele>419.5</ele>
        <time>2022-10-01T12:11:06Z</time>
      </trkpt>
      <trkpt lat="47.23493" lon="7.65514">
        <ele>419.5</ele>
        <time>2022-10-01T12:11:07Z</time>
      </trkpt>
      <trkpt lat="47.23495" lon="7.65514">
        <ele>419.5</ele>
        <time>2022-10-01T12:11:08Z</time>
      </trkpt>
      <trkpt lat="47.23497" lon="7.65512">
        <ele>419.5</ele>
        <time>2022-10-01T12:11:09Z</time>
      </trkpt>
      <trkpt lat="47.23499" lon="7.65512">
        <ele>419.5</ele>
        <time>2022-10-01T12:11:10Z</time>
      </trkpt>
      <trkpt lat="47.23501" lon="7.65511">
        <ele>419.6</ele>
        <time>2022-10-01T12:11:11Z</time>
      </trkpt>
      <trkpt lat="47.23503" lon="7.65509">
        <ele>419.6</ele>
        <time>2022-10-01T12:11:12Z</time>
      </trkpt>
      <trkpt lat="47.23504" lon="7.65508">
        <ele>419.6</ele>
        <time>2022-10-01T12:11:13Z</time>
      </trkpt>
      <trkpt lat="47.23506" lon="7.65507">
        <ele>419.6</ele>
        <time>2022-10-01T12:11:14Z</time>
      </trkpt>
      <trkpt lat="47.23506" lon="7.65507">
        <ele>419.6</ele>
        <time>2022-10-01T12:11:15Z</time>
      </trkpt>
      <trkpt lat="47.23507" lon="7.65506">
        <ele>419.6</ele>
        <time>2022-10-01T12:11:16Z</time>
      </trkpt>
      <trkpt lat="47.23507" lon="7.65506">
        <ele>419.6</ele>
        <time>2022-10-01T12:11:17Z</time>
      </trkpt>
      <trkpt lat="47.23507" lon="7.65506">
        <ele>419.6</ele>
        <time>2022-10-01T12:11:18Z</time>
      </trkpt>
      <trkpt lat="47.23507" lon="7.65505">
        <ele>419.6</ele>
        <time>2022-10-01T12:11:19Z</time>
      </trkpt>
      <trkpt lat="47.23507" lon="7.65504">
        <ele>419.6</ele>
        <time>2022-10-01T12:11:20Z</time>
      </trkpt>
      <trkpt lat="47.23507" lon="7.65503">
        <ele>419.6</ele>
        <time>2022-10-01T12:11:21Z</time>
      </trkpt>
      <trkpt lat="47.23507" lon="7.65502">
        <ele>419.6</ele>
        <time>2022-10-01T12:11:22Z</time>
      </trkpt>
      <trkpt lat="47.23508" lon="7.65503">
        <ele>419.6</ele>
        <time>2022-10-01T12:11:23Z</time>
      </trkpt>
      <trkpt lat="47.23508" lon="7.65503">
        <ele>419.6</ele>
        <time>2022-10-01T12:11:24Z</time>
      </trkpt>
      <trkpt lat="47.23509" lon="7.65502">
        <ele>419.6</ele>
        <time>2022-10-01T12:11:25Z</time>
      </trkpt>
      <trkpt lat="47.2351" lon="7.65502">
        <ele>419.6</ele>
        <time>2022-10-01T12:11:26Z</time>
      </trkpt>
      <trkpt lat="47.2351" lon="7.65502">
        <ele>419.6</ele>
        <time>2022-10-01T12:11:27Z</time>
      </trkpt>
      <trkpt lat="47.23512" lon="7.65501">
        <ele>419.6</ele>
        <time>2022-10-01T12:11:28Z</time>
      </trkpt>
      <trkpt lat="47.23513" lon="7.65501">
        <ele>419.6</ele>
        <time>2022-10-01T12:11:29Z</time>
      </trkpt>
      <trkpt lat="47.23514" lon="7.65501">
        <ele>419.6</ele>
        <time>2022-10-01T12:11:30Z</time>
      </trkpt>
      <trkpt lat="47.23515" lon="7.65501">
        <ele>419.6</ele>
        <time>2022-10-01T12:11:38Z</time>
      </trkpt>
      <trkpt lat="47.23516" lon="7.655">
        <ele>419.6</ele>
        <time>2022-10-01T12:11:39Z</time>
      </trkpt>
      <trkpt lat="47.23517" lon="7.655">
        <ele>419.6</ele>
        <time>2022-10-01T12:11:40Z</time>
      </trkpt>
      <trkpt lat="47.23518" lon="7.655">
        <ele>419.6</ele>
        <time>2022-10-01T12:11:41Z</time>
      </trkpt>
      <trkpt lat="47.23519" lon="7.655">
        <ele>419.7</ele>
        <time>2022-10-01T12:11:42Z</time>
      </trkpt>
      <trkpt lat="47.2352" lon="7.655">
        <ele>419.7</ele>
        <time>2022-10-01T12:11:43Z</time>
      </trkpt>
      <trkpt lat="47.23521" lon="7.65499">
        <ele>419.7</ele>
        <time>2022-10-01T12:11:44Z</time>
      </trkpt>
      <trkpt lat="47.23522" lon="7.65498">
        <ele>419.7</ele>
        <time>2022-10-01T12:11:45Z</time>
      </trkpt>
      <trkpt lat="47.23524" lon="7.65498">
        <ele>419.7</ele>
        <time>2022-10-01T12:11:46Z</time>
      </trkpt>
      <trkpt lat="47.23525" lon="7.65497">
        <ele>419.7</ele>
        <time>2022-10-01T12:11:47Z</time>
      </trkpt>
      <trkpt lat="47.23526" lon="7.65496">
        <ele>419.7</ele>
        <time>2022-10-01T12:11:48Z</time>
      </trkpt>
      <trkpt lat="47.23528" lon="7.65495">
        <ele>419.7</ele>
        <time>2022-10-01T12:11:49Z</time>
      </trkpt>
      <trkpt lat="47.23529" lon="7.65494">
        <ele>419.7</ele>
        <time>2022-10-01T12:11:50Z</time>
      </trkpt>
      <trkpt lat="47.23531" lon="7.65494">
        <ele>419.7</ele>
        <time>2022-10-01T12:11:51Z</time>
      </trkpt>
      <trkpt lat="47.23532" lon="7.65493">
        <ele>419.6</ele>
        <time>2022-10-01T12:11:52Z</time>
      </trkpt>
      <trkpt lat="47.23533" lon="7.65492">
        <ele>419.6</ele>
        <time>2022-10-01T12:11:57Z</time>
      </trkpt>
      <trkpt lat="47.23535" lon="7.65491">
        <ele>419.6</ele>
        <time>2022-10-01T12:11:58Z</time>
      </trkpt>
      <trkpt lat="47.23538" lon="7.6549">
        <ele>419.6</ele>
        <time>2022-10-01T12:11:59Z</time>
      </trkpt>
      <trkpt lat="47.2354" lon="7.65488">
        <ele>419.6</ele>
        <time>2022-10-01T12:12:00Z</time>
      </trkpt>
      <trkpt lat="47.23541" lon="7.65488">
        <ele>419.6</ele>
        <time>2022-10-01T12:12:01Z</time>
      </trkpt>
      <trkpt lat="47.23543" lon="7.65488">
        <ele>419.6</ele>
        <time>2022-10-01T12:12:02Z</time>
      </trkpt>
      <trkpt lat="47.23546" lon="7.65487">
        <ele>419.6</ele>
        <time>2022-10-01T12:12:03Z</time>
      </trkpt>
      <trkpt lat="47.23547" lon="7.65487">
        <ele>419.6</ele>
        <time>2022-10-01T12:12:04Z</time>
      </trkpt>
      <trkpt lat="47.23549" lon="7.65485">
        <ele>419.6</ele>
        <time>2022-10-01T12:12:05Z</time>
      </trkpt>
      <trkpt lat="47.23549" lon="7.65485">
        <ele>419.6</ele>
        <time>2022-10-01T12:12:06Z</time>
      </trkpt>
      <trkpt lat="47.2355" lon="7.65484">
        <ele>419.6</ele>
        <time>2022-10-01T12:12:07Z</time>
      </trkpt>
      <trkpt lat="47.23553" lon="7.65483">
        <ele>419.6</ele>
        <time>2022-10-01T12:12:08Z</time>
      </trkpt>
      <trkpt lat="47.23553" lon="7.65483">
        <ele>419.6</ele>
        <time>2022-10-01T12:12:09Z</time>
      </trkpt>
      <trkpt lat="47.23554" lon="7.65482">
        <ele>419.6</ele>
        <time>2022-10-01T12:12:10Z</time>
      </trkpt>
      <trkpt lat="47.23555" lon="7.65483">
        <ele>419.6</ele>
        <time>2022-10-01T12:12:11Z</time>
      </trkpt>
      <trkpt lat="47.23556" lon="7.65482">
        <ele>419.6</ele>
        <time>2022-10-01T12:12:12Z</time>
      </trkpt>
      <trkpt lat="47.23557" lon="7.65482">
        <ele>419.6</ele>
        <time>2022-10-01T12:12:13Z</time>
      </trkpt>
      <trkpt lat="47.23558" lon="7.65483">
        <ele>419.6</ele>
        <time>2022-10-01T12:12:14Z</time>
      </trkpt>
      <trkpt lat="47.23558" lon="7.65483">
        <ele>419.6</ele>
        <time>2022-10-01T12:12:15Z</time>
      </trkpt>
      <trkpt lat="47.23559" lon="7.65483">
        <ele>419.6</ele>
        <time>2022-10-01T12:12:16Z</time>
      </trkpt>
      <trkpt lat="47.2356" lon="7.65483">
        <ele>419.6</ele>
        <time>2022-10-01T12:12:17Z</time>
      </trkpt>
      <trkpt lat="47.2356" lon="7.65483">
        <ele>419.6</ele>
        <time>2022-10-01T12:12:18Z</time>
      </trkpt>
      <trkpt lat="47.2356" lon="7.65484">
        <ele>419.6</ele>
        <time>2022-10-01T12:12:19Z</time>
      </trkpt>
      <trkpt lat="47.2356" lon="7.65484">
        <ele>419.6</ele>
        <time>2022-10-01T12:12:20Z</time>
      </trkpt>
      <trkpt lat="47.23561" lon="7.65484">
        <ele>419.6</ele>
        <time>2022-10-01T12:12:21Z</time>
      </trkpt>
      <trkpt lat="47.23562" lon="7.65484">
        <ele>419.6</ele>
        <time>2022-10-01T12:12:22Z</time>
      </trkpt>
      <trkpt lat="47.23561" lon="7.65485">
        <ele>419.6</ele>
        <time>2022-10-01T12:12:23Z</time>
      </trkpt>
      <trkpt lat="47.23561" lon="7.65486">
        <ele>419.6</ele>
        <time>2022-10-01T12:12:24Z</time>
      </trkpt>
      <trkpt lat="47.23562" lon="7.65486">
        <ele>419.6</ele>
        <time>2022-10-01T12:12:25Z</time>
      </trkpt>
      <trkpt lat="47.23562" lon="7.65487">
        <ele>419.6</ele>
        <time>2022-10-01T12:12:26Z</time>
      </trkpt>
      <trkpt lat="47.23565" lon="7.65485">
        <ele>419.6</ele>
        <time>2022-10-01T12:12:27Z</time>
      </trkpt>
      <trkpt lat="47.23566" lon="7.65485">
        <ele>419.6</ele>
        <time>2022-10-01T12:12:29Z</time>
      </trkpt>
      <trkpt lat="47.23566" lon="7.65485">
        <ele>419.6</ele>
        <time>2022-10-01T12:12:30Z</time>
      </trkpt>
      <trkpt lat="47.23567" lon="7.65485">
        <ele>419.6</ele>
        <time>2022-10-01T12:12:31Z</time>
      </trkpt>
      <trkpt lat="47.23567" lon="7.65485">
        <ele>419.6</ele>
        <time>2022-10-01T12:12:32Z</time>
      </trkpt>
      <trkpt lat="47.23568" lon="7.65485">
        <ele>419.6</ele>
        <time>2022-10-01T12:12:33Z</time>
      </trkpt>
      <trkpt lat="47.23568" lon="7.65485">
        <ele>419.6</ele>
        <time>2022-10-01T12:12:34Z</time>
      </trkpt>
      <trkpt lat="47.23569" lon="7.65485">
        <ele>419.6</ele>
        <time>2022-10-01T12:12:35Z</time>
      </trkpt>
      <trkpt lat="47.2357" lon="7.65484">
        <ele>419.6</ele>
        <time>2022-10-01T12:12:36Z</time>
      </trkpt>
      <trkpt lat="47.2357" lon="7.65484">
        <ele>419.6</ele>
        <time>2022-10-01T12:12:37Z</time>
      </trkpt>
      <trkpt lat="47.23571" lon="7.65482">
        <ele>419.6</ele>
        <time>2022-10-01T12:12:38Z</time>
      </trkpt>
      <trkpt lat="47.23574" lon="7.65481">
        <ele>419.6</ele>
        <time>2022-10-01T12:12:39Z</time>
      </trkpt>
      <trkpt lat="47.23575" lon="7.65481">
        <ele>419.6</ele>
        <time>2022-10-01T12:12:40Z</time>
      </trkpt>
      <trkpt lat="47.23577" lon="7.65481">
        <ele>419.6</ele>
        <time>2022-10-01T12:12:41Z</time>
      </trkpt>
      <trkpt lat="47.23577" lon="7.65482">
        <ele>419.6</ele>
        <time>2022-10-01T12:12:42Z</time>
      </trkpt>
      <trkpt lat="47.23579" lon="7.65481">
        <ele>419.6</ele>
        <time>2022-10-01T12:12:43Z</time>
      </trkpt>
      <trkpt lat="47.2358" lon="7.65481">
        <ele>419.6</ele>
        <time>2022-10-01T12:12:44Z</time>
      </trkpt>
      <trkpt lat="47.23583" lon="7.6548">
        <ele>419.6</ele>
        <time>2022-10-01T12:12:45Z</time>
      </trkpt>
      <trkpt lat="47.23584" lon="7.6548">
        <ele>419.6</ele>
        <time>2022-10-01T12:12:46Z</time>
      </trkpt>
      <trkpt lat="47.23585" lon="7.6548">
        <ele>419.6</ele>
        <time>2022-10-01T12:12:47Z</time>
      </trkpt>
      <trkpt lat="47.23586" lon="7.6548">
        <ele>419.6</ele>
        <time>2022-10-01T12:12:48Z</time>
      </trkpt>
      <trkpt lat="47.23587" lon="7.65479">
        <ele>419.6</ele>
        <time>2022-10-01T12:12:49Z</time>
      </trkpt>
      <trkpt lat="47.23586" lon="7.6548">
        <ele>419.6</ele>
        <time>2022-10-01T12:12:50Z</time>
      </trkpt>
      <trkpt lat="47.23585" lon="7.65481">
        <ele>419.6</ele>
        <time>2022-10-01T12:12:51Z</time>
      </trkpt>
      <trkpt lat="47.23583" lon="7.65481">
        <ele>419.6</ele>
        <time>2022-10-01T12:13:04Z</time>
      </trkpt>
      <trkpt lat="47.23582" lon="7.65482">
        <ele>419.6</ele>
        <time>2022-10-01T12:13:05Z</time>
      </trkpt>
      <trkpt lat="47.23581" lon="7.65483">
        <ele>419.6</ele>
        <time>2022-10-01T12:13:06Z</time>
      </trkpt>
      <trkpt lat="47.2358" lon="7.65483">
        <ele>419.6</ele>
        <time>2022-10-01T12:13:07Z</time>
      </trkpt>
      <trkpt lat="47.23579" lon="7.65484">
        <ele>419.6</ele>
        <time>2022-10-01T12:13:08Z</time>
      </trkpt>
      <trkpt lat="47.2358" lon="7.65484">
        <ele>419.6</ele>
        <time>2022-10-01T12:13:09Z</time>
      </trkpt>
      <trkpt lat="47.23578" lon="7.65485">
        <ele>419.6</ele>
        <time>2022-10-01T12:13:10Z</time>
      </trkpt>
      <trkpt lat="47.23578" lon="7.65485">
        <ele>419.6</ele>
        <time>2022-10-01T12:13:12Z</time>
      </trkpt>
      <trkpt lat="47.23578" lon="7.65484">
        <ele>419.6</ele>
        <time>2022-10-01T12:13:13Z</time>
      </trkpt>
      <trkpt lat="47.23578" lon="7.65484">
        <ele>419.6</ele>
        <time>2022-10-01T12:13:14Z</time>
      </trkpt>
      <trkpt lat="47.23578" lon="7.65486">
        <ele>419.6</ele>
        <time>2022-10-01T12:13:15Z</time>
      </trkpt>
      <trkpt lat="47.23578" lon="7.65486">
        <ele>419.6</ele>
        <time>2022-10-01T12:13:16Z</time>
      </trkpt>
      <trkpt lat="47.23578" lon="7.65486">
        <ele>419.6</ele>
        <time>2022-10-01T12:13:17Z</time>
      </trkpt>
      <trkpt lat="47.23577" lon="7.65486">
        <ele>419.6</ele>
        <time>2022-10-01T12:34:26Z</time>
      </trkpt>
      <trkpt lat="47.23577" lon="7.65486">
        <ele>419.6</ele>
        <time>2022-10-01T12:34:27Z</time>
      </trkpt>
      <trkpt lat="47.23577" lon="7.65487">
        <ele>419.6</ele>
        <time>2022-10-01T12:34:28Z</time>
      </trkpt>
      <trkpt lat="47.23576" lon="7.65487">
        <ele>419.6</ele>
        <time>2022-10-01T12:34:29Z</time>
      </trkpt>
      <trkpt lat="47.23576" lon="7.65487">
        <ele>419.6</ele>
        <time>2022-10-01T12:34:30Z</time>
      </trkpt>
      <trkpt lat="47.23575" lon="7.65487">
        <ele>419.6</ele>
        <time>2022-10-01T12:34:31Z</time>
      </trkpt>
      <trkpt lat="47.23575" lon="7.65487">
        <ele>419.6</ele>
        <time>2022-10-01T12:34:32Z</time>
      </trkpt>
      <trkpt lat="47.23575" lon="7.65488">
        <ele>419.6</ele>
        <time>2022-10-01T12:34:33Z</time>
      </trkpt>
      <trkpt lat="47.23574" lon="7.65488">
        <ele>419.6</ele>
        <time>2022-10-01T12:34:34Z</time>
      </trkpt>
      <trkpt lat="47.23574" lon="7.65488">
        <ele>419.6</ele>
        <time>2022-10-01T12:34:35Z</time>
      </trkpt>
      <trkpt lat="47.23573" lon="7.65488">
        <ele>419.6</ele>
        <time>2022-10-01T12:34:36Z</time>
      </trkpt>
      <trkpt lat="47.23573" lon="7.65488">
        <ele>419.6</ele>
        <time>2022-10-01T12:34:37Z</time>
      </trkpt>
      <trkpt lat="47.23573" lon="7.65488">
        <ele>419.6</ele>
        <time>2022-10-01T12:34:38Z</time>
      </trkpt>
      <trkpt lat="47.23572" lon="7.65488">
        <ele>419.6</ele>
        <time>2022-10-01T12:34:39Z</time>
      </trkpt>
      <trkpt lat="47.23572" lon="7.65488">
        <ele>419.6</ele>
        <time>2022-10-01T12:34:40Z</time>
      </trkpt>
      <trkpt lat="47.23571" lon="7.65488">
        <ele>419.6</ele>
        <time>2022-10-01T12:34:41Z</time>
      </trkpt>
      <trkpt lat="47.23571" lon="7.65488">
        <ele>419.6</ele>
        <time>2022-10-01T12:34:42Z</time>
      </trkpt>
      <trkpt lat="47.2357" lon="7.65488">
        <ele>419.6</ele>
        <time>2022-10-01T12:34:43Z</time>
      </trkpt>
      <trkpt lat="47.2357" lon="7.65489">
        <ele>419.6</ele>
        <time>2022-10-01T12:34:44Z</time>
      </trkpt>
      <trkpt lat="47.23569" lon="7.65489">
        <ele>419.6</ele>
        <time>2022-10-01T12:34:45Z</time>
      </trkpt>
      <trkpt lat="47.23566" lon="7.6549">
        <ele>419.6</ele>
        <time>2022-10-01T12:34:46Z</time>
      </trkpt>
      <trkpt lat="47.23565" lon="7.6549">
        <ele>419.6</ele>
        <time>2022-10-01T12:34:47Z</time>
      </trkpt>
      <trkpt lat="47.23561" lon="7.65491">
        <ele>419.6</ele>
        <time>2022-10-01T12:34:48Z</time>
      </trkpt>
      <trkpt lat="47.2356" lon="7.65491">
        <ele>419.6</ele>
        <time>2022-10-01T12:34:49Z</time>
      </trkpt>
      <trkpt lat="47.23557" lon="7.65493">
        <ele>419.6</ele>
        <time>2022-10-01T12:34:50Z</time>
      </trkpt>
      <trkpt lat="47.23554" lon="7.65493">
        <ele>419.6</ele>
        <time>2022-10-01T12:34:51Z</time>
      </trkpt>
      <trkpt lat="47.23553" lon="7.65493">
        <ele>419.6</ele>
        <time>2022-10-01T12:34:52Z</time>
      </trkpt>
      <trkpt lat="47.23549" lon="7.65494">
        <ele>419.6</ele>
        <time>2022-10-01T12:34:53Z</time>
      </trkpt>
      <trkpt lat="47.23548" lon="7.65494">
        <ele>419.6</ele>
        <time>2022-10-01T12:34:54Z</time>
      </trkpt>
      <trkpt lat="47.23544" lon="7.65494">
        <ele>419.6</ele>
        <time>2022-10-01T12:34:55Z</time>
      </trkpt>
      <trkpt lat="47.23541" lon="7.65495">
        <ele>419.6</ele>
        <time>2022-10-01T12:34:56Z</time>
      </trkpt>
      <trkpt lat="47.23537" lon="7.65495">
        <ele>419.6</ele>
        <time>2022-10-01T12:34:57Z</time>
      </trkpt>
      <trkpt lat="47.23531" lon="7.65496">
        <ele>419.6</ele>
        <time>2022-10-01T12:34:58Z</time>
      </trkpt>
      <trkpt lat="47.23528" lon="7.65497">
        <ele>419.7</ele>
        <time>2022-10-01T12:34:59Z</time>
      </trkpt>
      <trkpt lat="47.23525" lon="7.65498">
        <ele>419.7</ele>
        <time>2022-10-01T12:35:00Z</time>
      </trkpt>
      <trkpt lat="47.2352" lon="7.655">
        <ele>419.7</ele>
        <time>2022-10-01T12:35:01Z</time>
      </trkpt>
      <trkpt lat="47.23518" lon="7.65503">
        <ele>419.7</ele>
        <time>2022-10-01T12:35:02Z</time>
      </trkpt>
      <trkpt lat="47.23513" lon="7.65499">
        <ele>419.6</ele>
        <time>2022-10-01T12:35:03Z</time>
      </trkpt>
      <trkpt lat="47.23509" lon="7.65496">
        <ele>419.6</ele>
        <time>2022-10-01T12:35:04Z</time>
      </trkpt>
      <trkpt lat="47.23505" lon="7.65496">
        <ele>419.6</ele>
        <time>2022-10-01T12:35:05Z</time>
      </trkpt>
      <trkpt lat="47.23501" lon="7.65496">
        <ele>419.6</ele>
        <time>2022-10-01T12:35:06Z</time>
      </trkpt>
      <trkpt lat="47.23497" lon="7.65496">
        <ele>419.5</ele>
        <time>2022-10-01T12:35:07Z</time>
      </trkpt>
      <trkpt lat="47.23494" lon="7.65496">
        <ele>419.5</ele>
        <time>2022-10-01T12:35:08Z</time>
      </trkpt>
      <trkpt lat="47.23491" lon="7.65498">
        <ele>419.5</ele>
        <time>2022-10-01T12:35:09Z</time>
      </trkpt>
      <trkpt lat="47.2349" lon="7.655">
        <ele>419.5</ele>
        <time>2022-10-01T12:35:10Z</time>
      </trkpt>
      <trkpt lat="47.23491" lon="7.65503">
        <ele>419.5</ele>
        <time>2022-10-01T12:35:11Z</time>
      </trkpt>
      <trkpt lat="47.23492" lon="7.65509">
        <ele>419.4</ele>
        <time>2022-10-01T12:35:12Z</time>
      </trkpt>
      <trkpt lat="47.23494" lon="7.65514">
        <ele>419.4</ele>
        <time>2022-10-01T12:35:13Z</time>
      </trkpt>
      <trkpt lat="47.23496" lon="7.65519">
        <ele>419.3</ele>
        <time>2022-10-01T12:35:14Z</time>
      </trkpt>
      <trkpt lat="47.23497" lon="7.65523">
        <ele>419.3</ele>
        <time>2022-10-01T12:35:15Z</time>
      </trkpt>
      <trkpt lat="47.23498" lon="7.65528">
        <ele>419.3</ele>
        <time>2022-10-01T12:35:16Z</time>
      </trkpt>
      <trkpt lat="47.23498" lon="7.65534">
        <ele>419.3</ele>
        <time>2022-10-01T12:35:17Z</time>
      </trkpt>
      <trkpt lat="47.23499" lon="7.6554">
        <ele>419.2</ele>
        <time>2022-10-01T12:35:18Z</time>
      </trkpt>
      <trkpt lat="47.23503" lon="7.65544">
        <ele>419.2</ele>
        <time>2022-10-01T12:35:19Z</time>
      </trkpt>
      <trkpt lat="47.23507" lon="7.65548">
        <ele>419.2</ele>
        <time>2022-10-01T12:35:20Z</time>
      </trkpt>
      <trkpt lat="47.23509" lon="7.65558">
        <ele>419.2</ele>
        <time>2022-10-01T12:35:21Z</time>
      </trkpt>
      <trkpt lat="47.23512" lon="7.65563">
        <ele>419.2</ele>
        <time>2022-10-01T12:35:22Z</time>
      </trkpt>
      <trkpt lat="47.23516" lon="7.65568">
        <ele>419.2</ele>
        <time>2022-10-01T12:35:23Z</time>
      </trkpt>
      <trkpt lat="47.23518" lon="7.65573">
        <ele>419.2</ele>
        <time>2022-10-01T12:35:24Z</time>
      </trkpt>
      <trkpt lat="47.23521" lon="7.65577">
        <ele>419.2</ele>
        <time>2022-10-01T12:35:25Z</time>
      </trkpt>
      <trkpt lat="47.23525" lon="7.65579">
        <ele>419.2</ele>
        <time>2022-10-01T12:35:26Z</time>
      </trkpt>
      <trkpt lat="47.2353" lon="7.65582">
        <ele>419.2</ele>
        <time>2022-10-01T12:35:27Z</time>
      </trkpt>
      <trkpt lat="47.23534" lon="7.65583">
        <ele>419.2</ele>
        <time>2022-10-01T12:35:28Z</time>
      </trkpt>
      <trkpt lat="47.23538" lon="7.65585">
        <ele>419.1</ele>
        <time>2022-10-01T12:35:29Z</time>
      </trkpt>
      <trkpt lat="47.23544" lon="7.65585">
        <ele>419.1</ele>
        <time>2022-10-01T12:35:30Z</time>
      </trkpt>
      <trkpt lat="47.23549" lon="7.65584">
        <ele>419.1</ele>
        <time>2022-10-01T12:35:31Z</time>
      </trkpt>
      <trkpt lat="47.23553" lon="7.65582">
        <ele>419</ele>
        <time>2022-10-01T12:35:32Z</time>
      </trkpt>
      <trkpt lat="47.23558" lon="7.6558">
        <ele>419</ele>
        <time>2022-10-01T12:35:33Z</time>
      </trkpt>
      <trkpt lat="47.23564" lon="7.65576">
        <ele>419</ele>
        <time>2022-10-01T12:35:34Z</time>
      </trkpt>
      <trkpt lat="47.23568" lon="7.65576">
        <ele>419</ele>
        <time>2022-10-01T12:35:35Z</time>
      </trkpt>
      <trkpt lat="47.23572" lon="7.65573">
        <ele>419.1</ele>
        <time>2022-10-01T12:35:36Z</time>
      </trkpt>
      <trkpt lat="47.23577" lon="7.65569">
        <ele>419.1</ele>
        <time>2022-10-01T12:35:37Z</time>
      </trkpt>
      <trkpt lat="47.23582" lon="7.65569">
        <ele>419.1</ele>
        <time>2022-10-01T12:35:38Z</time>
      </trkpt>
      <trkpt lat="47.23586" lon="7.65567">
        <ele>419.1</ele>
        <time>2022-10-01T12:35:39Z</time>
      </trkpt>
      <trkpt lat="47.23591" lon="7.65566">
        <ele>419.1</ele>
        <time>2022-10-01T12:35:40Z</time>
      </trkpt>
      <trkpt lat="47.23595" lon="7.65565">
        <ele>419.1</ele>
        <time>2022-10-01T12:35:41Z</time>
      </trkpt>
      <trkpt lat="47.23598" lon="7.65565">
        <ele>419.2</ele>
        <time>2022-10-01T12:35:42Z</time>
      </trkpt>
      <trkpt lat="47.23602" lon="7.65564">
        <ele>419.2</ele>
        <time>2022-10-01T12:35:43Z</time>
      </trkpt>
      <trkpt lat="47.23606" lon="7.65563">
        <ele>419.2</ele>
        <time>2022-10-01T12:35:44Z</time>
      </trkpt>
      <trkpt lat="47.23608" lon="7.65563">
        <ele>419.2</ele>
        <time>2022-10-01T12:35:45Z</time>
      </trkpt>
      <trkpt lat="47.2361" lon="7.65563">
        <ele>419.1</ele>
        <time>2022-10-01T12:35:46Z</time>
      </trkpt>
      <trkpt lat="47.23614" lon="7.65561">
        <ele>419.1</ele>
        <time>2022-10-01T12:35:47Z</time>
      </trkpt>
      <trkpt lat="47.23616" lon="7.6556">
        <ele>419.1</ele>
        <time>2022-10-01T12:35:48Z</time>
      </trkpt>
      <trkpt lat="47.23619" lon="7.65561">
        <ele>419.1</ele>
        <time>2022-10-01T12:35:49Z</time>
      </trkpt>
      <trkpt lat="47.23623" lon="7.6556">
        <ele>419.1</ele>
        <time>2022-10-01T12:35:50Z</time>
      </trkpt>
      <trkpt lat="47.23627" lon="7.6556">
        <ele>419.1</ele>
        <time>2022-10-01T12:35:51Z</time>
      </trkpt>
      <trkpt lat="47.23629" lon="7.6556">
        <ele>419</ele>
        <time>2022-10-01T12:35:52Z</time>
      </trkpt>
      <trkpt lat="47.23632" lon="7.65561">
        <ele>419</ele>
        <time>2022-10-01T12:35:53Z</time>
      </trkpt>
      <trkpt lat="47.23636" lon="7.65562">
        <ele>419</ele>
        <time>2022-10-01T12:35:54Z</time>
      </trkpt>
      <trkpt lat="47.23637" lon="7.65563">
        <ele>419</ele>
        <time>2022-10-01T12:35:55Z</time>
      </trkpt>
      <trkpt lat="47.23641" lon="7.65563">
        <ele>418.8</ele>
        <time>2022-10-01T12:35:56Z</time>
      </trkpt>
      <trkpt lat="47.23643" lon="7.65564">
        <ele>418.7</ele>
        <time>2022-10-01T12:35:57Z</time>
      </trkpt>
      <trkpt lat="47.23646" lon="7.65563">
        <ele>418.5</ele>
        <time>2022-10-01T12:35:58Z</time>
      </trkpt>
      <trkpt lat="47.23647" lon="7.65563">
        <ele>418.5</ele>
        <time>2022-10-01T12:35:59Z</time>
      </trkpt>
      <trkpt lat="47.23649" lon="7.65562">
        <ele>418.3</ele>
        <time>2022-10-01T12:36:00Z</time>
      </trkpt>
      <trkpt lat="47.23649" lon="7.65562">
        <ele>418.2</ele>
        <time>2022-10-01T12:36:01Z</time>
      </trkpt>
      <trkpt lat="47.23649" lon="7.65562">
        <ele>418.2</ele>
        <time>2022-10-01T12:36:02Z</time>
      </trkpt>
      <trkpt lat="47.23649" lon="7.65561">
        <ele>418.2</ele>
        <time>2022-10-01T12:36:03Z</time>
      </trkpt>
      <trkpt lat="47.2365" lon="7.65562">
        <ele>418.1</ele>
        <time>2022-10-01T12:36:04Z</time>
      </trkpt>
      <trkpt lat="47.23651" lon="7.65563">
        <ele>418</ele>
        <time>2022-10-01T12:36:05Z</time>
      </trkpt>
      <trkpt lat="47.23652" lon="7.65563">
        <ele>417.3</ele>
        <time>2022-10-01T12:36:06Z</time>
      </trkpt>
      <trkpt lat="47.23653" lon="7.65563">
        <ele>417.3</ele>
        <time>2022-10-01T12:36:07Z</time>
      </trkpt>
      <trkpt lat="47.23653" lon="7.65563">
        <ele>417.3</ele>
        <time>2022-10-01T12:36:08Z</time>
      </trkpt>
      <trkpt lat="47.23655" lon="7.65563">
        <ele>417.3</ele>
        <time>2022-10-01T12:36:09Z</time>
      </trkpt>
      <trkpt lat="47.23656" lon="7.65563">
        <ele>417.4</ele>
        <time>2022-10-01T12:36:10Z</time>
      </trkpt>
      <trkpt lat="47.23657" lon="7.65564">
        <ele>417.4</ele>
        <time>2022-10-01T12:36:11Z</time>
      </trkpt>
      <trkpt lat="47.23658" lon="7.65565">
        <ele>417.4</ele>
        <time>2022-10-01T12:36:12Z</time>
      </trkpt>
      <trkpt lat="47.23658" lon="7.65565">
        <ele>417.4</ele>
        <time>2022-10-01T12:36:13Z</time>
      </trkpt>
      <trkpt lat="47.23657" lon="7.65566">
        <ele>417.4</ele>
        <time>2022-10-01T12:36:14Z</time>
      </trkpt>
      <trkpt lat="47.23657" lon="7.65566">
        <ele>417.4</ele>
        <time>2022-10-01T12:36:15Z</time>
      </trkpt>
      <trkpt lat="47.23657" lon="7.65567">
        <ele>417.4</ele>
        <time>2022-10-01T12:36:16Z</time>
      </trkpt>
      <trkpt lat="47.23657" lon="7.65567">
        <ele>417.4</ele>
        <time>2022-10-01T12:36:17Z</time>
      </trkpt>
      <trkpt lat="47.23657" lon="7.65567">
        <ele>417.4</ele>
        <time>2022-10-01T12:36:18Z</time>
      </trkpt>
      <trkpt lat="47.23656" lon="7.65567">
        <ele>417.4</ele>
        <time>2022-10-01T12:36:19Z</time>
      </trkpt>
      <trkpt lat="47.23656" lon="7.65568">
        <ele>417.4</ele>
        <time>2022-10-01T12:36:20Z</time>
      </trkpt>
      <trkpt lat="47.23656" lon="7.6557">
        <ele>417.4</ele>
        <time>2022-10-01T12:36:21Z</time>
      </trkpt>
      <trkpt lat="47.23656" lon="7.65572">
        <ele>417.5</ele>
        <time>2022-10-01T12:36:22Z</time>
      </trkpt>
      <trkpt lat="47.23654" lon="7.65577">
        <ele>417.5</ele>
        <time>2022-10-01T12:36:23Z</time>
      </trkpt>
      <trkpt lat="47.23653" lon="7.65579">
        <ele>417.5</ele>
        <time>2022-10-01T12:36:24Z</time>
      </trkpt>
      <trkpt lat="47.23652" lon="7.65584">
        <ele>417.6</ele>
        <time>2022-10-01T12:36:25Z</time>
      </trkpt>
      <trkpt lat="47.23649" lon="7.65588">
        <ele>417.6</ele>
        <time>2022-10-01T12:36:26Z</time>
      </trkpt>
      <trkpt lat="47.23648" lon="7.65593">
        <ele>417.7</ele>
        <time>2022-10-01T12:36:28Z</time>
      </trkpt>
      <trkpt lat="47.23646" lon="7.65598">
        <ele>417.7</ele>
        <time>2022-10-01T12:36:29Z</time>
      </trkpt>
      <trkpt lat="47.23644" lon="7.65603">
        <ele>417.8</ele>
        <time>2022-10-01T12:36:30Z</time>
      </trkpt>
      <trkpt lat="47.23642" lon="7.65609">
        <ele>417.8</ele>
        <time>2022-10-01T12:36:31Z</time>
      </trkpt>
      <trkpt lat="47.2364" lon="7.65614">
        <ele>417.9</ele>
        <time>2022-10-01T12:36:32Z</time>
      </trkpt>
      <trkpt lat="47.23638" lon="7.6562">
        <ele>417.9</ele>
        <time>2022-10-01T12:36:33Z</time>
      </trkpt>
      <trkpt lat="47.23636" lon="7.65626">
        <ele>418</ele>
        <time>2022-10-01T12:36:34Z</time>
      </trkpt>
      <trkpt lat="47.23634" lon="7.65631">
        <ele>418</ele>
        <time>2022-10-01T12:36:35Z</time>
      </trkpt>
      <trkpt lat="47.23632" lon="7.65637">
        <ele>418</ele>
        <time>2022-10-01T12:36:36Z</time>
      </trkpt>
      <trkpt lat="47.23631" lon="7.65642">
        <ele>418</ele>
        <time>2022-10-01T12:36:37Z</time>
      </trkpt>
      <trkpt lat="47.23628" lon="7.65649">
        <ele>418</ele>
        <time>2022-10-01T12:36:38Z</time>
      </trkpt>
      <trkpt lat="47.23626" lon="7.65655">
        <ele>418</ele>
        <time>2022-10-01T12:36:39Z</time>
      </trkpt>
      <trkpt lat="47.23624" lon="7.65661">
        <ele>418</ele>
        <time>2022-10-01T12:36:40Z</time>
      </trkpt>
      <trkpt lat="47.23621" lon="7.65667">
        <ele>418</ele>
        <time>2022-10-01T12:36:41Z</time>
      </trkpt>
      <trkpt lat="47.23618" lon="7.65674">
        <ele>418</ele>
        <time>2022-10-01T12:36:42Z</time>
      </trkpt>
      <trkpt lat="47.23615" lon="7.65681">
        <ele>418</ele>
        <time>2022-10-01T12:36:43Z</time>
      </trkpt>
      <trkpt lat="47.23613" lon="7.65688">
        <ele>418</ele>
        <time>2022-10-01T12:36:44Z</time>
      </trkpt>
      <trkpt lat="47.23611" lon="7.65694">
        <ele>418</ele>
        <time>2022-10-01T12:36:45Z</time>
      </trkpt>
      <trkpt lat="47.23608" lon="7.65701">
        <ele>418</ele>
        <time>2022-10-01T12:36:46Z</time>
      </trkpt>
      <trkpt lat="47.23605" lon="7.65709">
        <ele>418</ele>
        <time>2022-10-01T12:36:47Z</time>
      </trkpt>
      <trkpt lat="47.23602" lon="7.65715">
        <ele>418</ele>
        <time>2022-10-01T12:36:48Z</time>
      </trkpt>
      <trkpt lat="47.23599" lon="7.6572">
        <ele>418</ele>
        <time>2022-10-01T12:36:49Z</time>
      </trkpt>
      <trkpt lat="47.23596" lon="7.65726">
        <ele>418</ele>
        <time>2022-10-01T12:36:50Z</time>
      </trkpt>
      <trkpt lat="47.2359" lon="7.65739">
        <ele>418</ele>
        <time>2022-10-01T12:36:51Z</time>
      </trkpt>
      <trkpt lat="47.23586" lon="7.65744">
        <ele>418</ele>
        <time>2022-10-01T12:36:52Z</time>
      </trkpt>
      <trkpt lat="47.23584" lon="7.65751">
        <ele>418</ele>
        <time>2022-10-01T12:36:53Z</time>
      </trkpt>
      <trkpt lat="47.23581" lon="7.65758">
        <ele>418</ele>
        <time>2022-10-01T12:36:54Z</time>
      </trkpt>
      <trkpt lat="47.2358" lon="7.65766">
        <ele>418</ele>
        <time>2022-10-01T12:36:55Z</time>
      </trkpt>
      <trkpt lat="47.23579" lon="7.65774">
        <ele>418</ele>
        <time>2022-10-01T12:36:56Z</time>
      </trkpt>
      <trkpt lat="47.23577" lon="7.65782">
        <ele>418</ele>
        <time>2022-10-01T12:36:57Z</time>
      </trkpt>
      <trkpt lat="47.23575" lon="7.65788">
        <ele>418</ele>
        <time>2022-10-01T12:36:58Z</time>
      </trkpt>
      <trkpt lat="47.23573" lon="7.65796">
        <ele>418</ele>
        <time>2022-10-01T12:36:59Z</time>
      </trkpt>
      <trkpt lat="47.23571" lon="7.65804">
        <ele>418</ele>
        <time>2022-10-01T12:37:00Z</time>
      </trkpt>
      <trkpt lat="47.23569" lon="7.65811">
        <ele>418.1</ele>
        <time>2022-10-01T12:37:01Z</time>
      </trkpt>
      <trkpt lat="47.23567" lon="7.65819">
        <ele>418.1</ele>
        <time>2022-10-01T12:37:02Z</time>
      </trkpt>
      <trkpt lat="47.23565" lon="7.65827">
        <ele>418.1</ele>
        <time>2022-10-01T12:37:03Z</time>
      </trkpt>
      <trkpt lat="47.23563" lon="7.65835">
        <ele>418</ele>
        <time>2022-10-01T12:37:04Z</time>
      </trkpt>
      <trkpt lat="47.23561" lon="7.65843">
        <ele>418</ele>
        <time>2022-10-01T12:37:05Z</time>
      </trkpt>
      <trkpt lat="47.2356" lon="7.6585">
        <ele>418</ele>
        <time>2022-10-01T12:37:06Z</time>
      </trkpt>
      <trkpt lat="47.23558" lon="7.65858">
        <ele>418</ele>
        <time>2022-10-01T12:37:07Z</time>
      </trkpt>
      <trkpt lat="47.23556" lon="7.65866">
        <ele>418</ele>
        <time>2022-10-01T12:37:08Z</time>
      </trkpt>
      <trkpt lat="47.23554" lon="7.65874">
        <ele>418</ele>
        <time>2022-10-01T12:37:09Z</time>
      </trkpt>
      <trkpt lat="47.23551" lon="7.65882">
        <ele>418</ele>
        <time>2022-10-01T12:37:10Z</time>
      </trkpt>
      <trkpt lat="47.23549" lon="7.6589">
        <ele>418</ele>
        <time>2022-10-01T12:37:11Z</time>
      </trkpt>
      <trkpt lat="47.23546" lon="7.65898">
        <ele>418</ele>
        <time>2022-10-01T12:37:12Z</time>
      </trkpt>
      <trkpt lat="47.23544" lon="7.65906">
        <ele>418</ele>
        <time>2022-10-01T12:37:13Z</time>
      </trkpt>
      <trkpt lat="47.23541" lon="7.65914">
        <ele>418</ele>
        <time>2022-10-01T12:37:14Z</time>
      </trkpt>
      <trkpt lat="47.23538" lon="7.65923">
        <ele>418</ele>
        <time>2022-10-01T12:37:15Z</time>
      </trkpt>
      <trkpt lat="47.23536" lon="7.6593">
        <ele>418</ele>
        <time>2022-10-01T12:37:16Z</time>
      </trkpt>
      <trkpt lat="47.23533" lon="7.65937">
        <ele>418.1</ele>
        <time>2022-10-01T12:37:17Z</time>
      </trkpt>
      <trkpt lat="47.23532" lon="7.65944">
        <ele>418.1</ele>
        <time>2022-10-01T12:37:18Z</time>
      </trkpt>
      <trkpt lat="47.23529" lon="7.65951">
        <ele>418.1</ele>
        <time>2022-10-01T12:37:19Z</time>
      </trkpt>
      <trkpt lat="47.23526" lon="7.65958">
        <ele>418.1</ele>
        <time>2022-10-01T12:37:20Z</time>
      </trkpt>
      <trkpt lat="47.23524" lon="7.65966">
        <ele>418.2</ele>
        <time>2022-10-01T12:37:21Z</time>
      </trkpt>
      <trkpt lat="47.23522" lon="7.65974">
        <ele>418.2</ele>
        <time>2022-10-01T12:37:22Z</time>
      </trkpt>
      <trkpt lat="47.23521" lon="7.65981">
        <ele>418.2</ele>
        <time>2022-10-01T12:37:23Z</time>
      </trkpt>
      <trkpt lat="47.23519" lon="7.65989">
        <ele>418.2</ele>
        <time>2022-10-01T12:37:24Z</time>
      </trkpt>
      <trkpt lat="47.23517" lon="7.65997">
        <ele>418.1</ele>
        <time>2022-10-01T12:37:25Z</time>
      </trkpt>
      <trkpt lat="47.23516" lon="7.66003">
        <ele>418.1</ele>
        <time>2022-10-01T12:37:26Z</time>
      </trkpt>
      <trkpt lat="47.23514" lon="7.66011">
        <ele>418.1</ele>
        <time>2022-10-01T12:37:27Z</time>
      </trkpt>
      <trkpt lat="47.23513" lon="7.66018">
        <ele>418.1</ele>
        <time>2022-10-01T12:37:28Z</time>
      </trkpt>
      <trkpt lat="47.23512" lon="7.66025">
        <ele>418.1</ele>
        <time>2022-10-01T12:37:29Z</time>
      </trkpt>
      <trkpt lat="47.2351" lon="7.66031">
        <ele>418.1</ele>
        <time>2022-10-01T12:37:30Z</time>
      </trkpt>
      <trkpt lat="47.23509" lon="7.66037">
        <ele>418.1</ele>
        <time>2022-10-01T12:37:31Z</time>
      </trkpt>
      <trkpt lat="47.23507" lon="7.66044">
        <ele>418.1</ele>
        <time>2022-10-01T12:37:32Z</time>
      </trkpt>
      <trkpt lat="47.23505" lon="7.66049">
        <ele>418</ele>
        <time>2022-10-01T12:37:33Z</time>
      </trkpt>
      <trkpt lat="47.23502" lon="7.66056">
        <ele>418</ele>
        <time>2022-10-01T12:37:34Z</time>
      </trkpt>
      <trkpt lat="47.23499" lon="7.66063">
        <ele>418</ele>
        <time>2022-10-01T12:37:35Z</time>
      </trkpt>
      <trkpt lat="47.23495" lon="7.6607">
        <ele>418</ele>
        <time>2022-10-01T12:37:36Z</time>
      </trkpt>
      <trkpt lat="47.23493" lon="7.66076">
        <ele>418.1</ele>
        <time>2022-10-01T12:37:37Z</time>
      </trkpt>
      <trkpt lat="47.23491" lon="7.66082">
        <ele>418.1</ele>
        <time>2022-10-01T12:37:38Z</time>
      </trkpt>
      <trkpt lat="47.2349" lon="7.66091">
        <ele>418.1</ele>
        <time>2022-10-01T12:37:39Z</time>
      </trkpt>
      <trkpt lat="47.23489" lon="7.66098">
        <ele>418.1</ele>
        <time>2022-10-01T12:37:40Z</time>
      </trkpt>
      <trkpt lat="47.23489" lon="7.66105">
        <ele>418.1</ele>
        <time>2022-10-01T12:37:41Z</time>
      </trkpt>
      <trkpt lat="47.23489" lon="7.66112">
        <ele>418.2</ele>
        <time>2022-10-01T12:37:42Z</time>
      </trkpt>
      <trkpt lat="47.2349" lon="7.6612">
        <ele>418.2</ele>
        <time>2022-10-01T12:37:43Z</time>
      </trkpt>
      <trkpt lat="47.23491" lon="7.66128">
        <ele>418.2</ele>
        <time>2022-10-01T12:37:44Z</time>
      </trkpt>
      <trkpt lat="47.2349" lon="7.66135">
        <ele>418.2</ele>
        <time>2022-10-01T12:37:45Z</time>
      </trkpt>
      <trkpt lat="47.23489" lon="7.66144">
        <ele>418.2</ele>
        <time>2022-10-01T12:37:46Z</time>
      </trkpt>
      <trkpt lat="47.23489" lon="7.66153">
        <ele>418.2</ele>
        <time>2022-10-01T12:37:47Z</time>
      </trkpt>
      <trkpt lat="47.23487" lon="7.66162">
        <ele>418.2</ele>
        <time>2022-10-01T12:37:48Z</time>
      </trkpt>
      <trkpt lat="47.23487" lon="7.6617">
        <ele>418.2</ele>
        <time>2022-10-01T12:37:49Z</time>
      </trkpt>
      <trkpt lat="47.23485" lon="7.66179">
        <ele>418.2</ele>
        <time>2022-10-01T12:37:50Z</time>
      </trkpt>
      <trkpt lat="47.23485" lon="7.66187">
        <ele>418.2</ele>
        <time>2022-10-01T12:37:51Z</time>
      </trkpt>
      <trkpt lat="47.23485" lon="7.66195">
        <ele>418.2</ele>
        <time>2022-10-01T12:37:52Z</time>
      </trkpt>
      <trkpt lat="47.23484" lon="7.66204">
        <ele>418.1</ele>
        <time>2022-10-01T12:37:53Z</time>
      </trkpt>
      <trkpt lat="47.23483" lon="7.66213">
        <ele>418.1</ele>
        <time>2022-10-01T12:37:54Z</time>
      </trkpt>
      <trkpt lat="47.23482" lon="7.66221">
        <ele>418</ele>
        <time>2022-10-01T12:37:55Z</time>
      </trkpt>
      <trkpt lat="47.23482" lon="7.66229">
        <ele>418</ele>
        <time>2022-10-01T12:37:56Z</time>
      </trkpt>
      <trkpt lat="47.23483" lon="7.66239">
        <ele>418</ele>
        <time>2022-10-01T12:37:57Z</time>
      </trkpt>
      <trkpt lat="47.23483" lon="7.66246">
        <ele>418</ele>
        <time>2022-10-01T12:37:58Z</time>
      </trkpt>
      <trkpt lat="47.23484" lon="7.66256">
        <ele>418</ele>
        <time>2022-10-01T12:37:59Z</time>
      </trkpt>
      <trkpt lat="47.23482" lon="7.66264">
        <ele>418</ele>
        <time>2022-10-01T12:38:00Z</time>
      </trkpt>
      <trkpt lat="47.23482" lon="7.66275">
        <ele>418</ele>
        <time>2022-10-01T12:38:01Z</time>
      </trkpt>
      <trkpt lat="47.23481" lon="7.66281">
        <ele>417.9</ele>
        <time>2022-10-01T12:38:02Z</time>
      </trkpt>
      <trkpt lat="47.23481" lon="7.6629">
        <ele>417.9</ele>
        <time>2022-10-01T12:38:03Z</time>
      </trkpt>
      <trkpt lat="47.2348" lon="7.66298">
        <ele>417.9</ele>
        <time>2022-10-01T12:38:04Z</time>
      </trkpt>
      <trkpt lat="47.2348" lon="7.66308">
        <ele>417.9</ele>
        <time>2022-10-01T12:38:05Z</time>
      </trkpt>
      <trkpt lat="47.2348" lon="7.66315">
        <ele>417.8</ele>
        <time>2022-10-01T12:38:06Z</time>
      </trkpt>
      <trkpt lat="47.23479" lon="7.66325">
        <ele>417.8</ele>
        <time>2022-10-01T12:38:07Z</time>
      </trkpt>
      <trkpt lat="47.23479" lon="7.66334">
        <ele>417.8</ele>
        <time>2022-10-01T12:38:08Z</time>
      </trkpt>
      <trkpt lat="47.23479" lon="7.66343">
        <ele>417.8</ele>
        <time>2022-10-01T12:38:09Z</time>
      </trkpt>
      <trkpt lat="47.23478" lon="7.66352">
        <ele>417.7</ele>
        <time>2022-10-01T12:38:10Z</time>
      </trkpt>
      <trkpt lat="47.23478" lon="7.66362">
        <ele>417.7</ele>
        <time>2022-10-01T12:38:11Z</time>
      </trkpt>
      <trkpt lat="47.23478" lon="7.66371">
        <ele>417.7</ele>
        <time>2022-10-01T12:38:12Z</time>
      </trkpt>
      <trkpt lat="47.23478" lon="7.66381">
        <ele>417.7</ele>
        <time>2022-10-01T12:38:13Z</time>
      </trkpt>
      <trkpt lat="47.23478" lon="7.6639">
        <ele>417.7</ele>
        <time>2022-10-01T12:38:14Z</time>
      </trkpt>
      <trkpt lat="47.23478" lon="7.66399">
        <ele>417.7</ele>
        <time>2022-10-01T12:38:15Z</time>
      </trkpt>
      <trkpt lat="47.23478" lon="7.66408">
        <ele>417.8</ele>
        <time>2022-10-01T12:38:16Z</time>
      </trkpt>
      <trkpt lat="47.23478" lon="7.66416">
        <ele>417.8</ele>
        <time>2022-10-01T12:38:17Z</time>
      </trkpt>
      <trkpt lat="47.23478" lon="7.66424">
        <ele>417.8</ele>
        <time>2022-10-01T12:38:18Z</time>
      </trkpt>
      <trkpt lat="47.23478" lon="7.66431">
        <ele>417.8</ele>
        <time>2022-10-01T12:38:19Z</time>
      </trkpt>
      <trkpt lat="47.23476" lon="7.66435">
        <ele>417.9</ele>
        <time>2022-10-01T12:38:20Z</time>
      </trkpt>
      <trkpt lat="47.23472" lon="7.6644">
        <ele>417.9</ele>
        <time>2022-10-01T12:38:21Z</time>
      </trkpt>
      <trkpt lat="47.23469" lon="7.66443">
        <ele>417.9</ele>
        <time>2022-10-01T12:38:22Z</time>
      </trkpt>
      <trkpt lat="47.23465" lon="7.66444">
        <ele>417.8</ele>
        <time>2022-10-01T12:38:23Z</time>
      </trkpt>
      <trkpt lat="47.23461" lon="7.66446">
        <ele>417.8</ele>
        <time>2022-10-01T12:38:24Z</time>
      </trkpt>
      <trkpt lat="47.23457" lon="7.66449">
        <ele>417.8</ele>
        <time>2022-10-01T12:38:25Z</time>
      </trkpt>
      <trkpt lat="47.23452" lon="7.66451">
        <ele>417.8</ele>
        <time>2022-10-01T12:38:26Z</time>
      </trkpt>
      <trkpt lat="47.23448" lon="7.66455">
        <ele>417.8</ele>
        <time>2022-10-01T12:38:27Z</time>
      </trkpt>
      <trkpt lat="47.23444" lon="7.66458">
        <ele>417.8</ele>
        <time>2022-10-01T12:38:28Z</time>
      </trkpt>
      <trkpt lat="47.23441" lon="7.66463">
        <ele>417.8</ele>
        <time>2022-10-01T12:38:29Z</time>
      </trkpt>
      <trkpt lat="47.23439" lon="7.66469">
        <ele>417.8</ele>
        <time>2022-10-01T12:38:30Z</time>
      </trkpt>
      <trkpt lat="47.23437" lon="7.66475">
        <ele>417.7</ele>
        <time>2022-10-01T12:38:31Z</time>
      </trkpt>
      <trkpt lat="47.23437" lon="7.66482">
        <ele>417.6</ele>
        <time>2022-10-01T12:38:32Z</time>
      </trkpt>
      <trkpt lat="47.23437" lon="7.6649">
        <ele>417.6</ele>
        <time>2022-10-01T12:38:34Z</time>
      </trkpt>
      <trkpt lat="47.23438" lon="7.66497">
        <ele>417.5</ele>
        <time>2022-10-01T12:38:35Z</time>
      </trkpt>
      <trkpt lat="47.23439" lon="7.66505">
        <ele>417.5</ele>
        <time>2022-10-01T12:38:36Z</time>
      </trkpt>
      <trkpt lat="47.2344" lon="7.66512">
        <ele>417.4</ele>
        <time>2022-10-01T12:38:37Z</time>
      </trkpt>
      <trkpt lat="47.23441" lon="7.66521">
        <ele>417.4</ele>
        <time>2022-10-01T12:38:38Z</time>
      </trkpt>
      <trkpt lat="47.23442" lon="7.66529">
        <ele>417.4</ele>
        <time>2022-10-01T12:38:39Z</time>
      </trkpt>
      <trkpt lat="47.23442" lon="7.66537">
        <ele>417.3</ele>
        <time>2022-10-01T12:38:40Z</time>
      </trkpt>
      <trkpt lat="47.23443" lon="7.66546">
        <ele>417.3</ele>
        <time>2022-10-01T12:38:41Z</time>
      </trkpt>
      <trkpt lat="47.23444" lon="7.66555">
        <ele>417.3</ele>
        <time>2022-10-01T12:38:42Z</time>
      </trkpt>
      <trkpt lat="47.23445" lon="7.66563">
        <ele>417.3</ele>
        <time>2022-10-01T12:38:43Z</time>
      </trkpt>
      <trkpt lat="47.23446" lon="7.66572">
        <ele>417.3</ele>
        <time>2022-10-01T12:38:44Z</time>
      </trkpt>
      <trkpt lat="47.23448" lon="7.66581">
        <ele>417.3</ele>
        <time>2022-10-01T12:38:45Z</time>
      </trkpt>
      <trkpt lat="47.23448" lon="7.6659">
        <ele>417.3</ele>
        <time>2022-10-01T12:38:46Z</time>
      </trkpt>
      <trkpt lat="47.2345" lon="7.666">
        <ele>417.3</ele>
        <time>2022-10-01T12:38:47Z</time>
      </trkpt>
      <trkpt lat="47.23451" lon="7.66608">
        <ele>417.3</ele>
        <time>2022-10-01T12:38:48Z</time>
      </trkpt>
      <trkpt lat="47.23452" lon="7.66618">
        <ele>417.3</ele>
        <time>2022-10-01T12:38:49Z</time>
      </trkpt>
      <trkpt lat="47.23454" lon="7.66627">
        <ele>417.3</ele>
        <time>2022-10-01T12:38:50Z</time>
      </trkpt>
      <trkpt lat="47.23455" lon="7.66636">
        <ele>417.3</ele>
        <time>2022-10-01T12:38:51Z</time>
      </trkpt>
      <trkpt lat="47.23456" lon="7.66645">
        <ele>417.3</ele>
        <time>2022-10-01T12:38:52Z</time>
      </trkpt>
      <trkpt lat="47.23457" lon="7.66654">
        <ele>417.3</ele>
        <time>2022-10-01T12:38:53Z</time>
      </trkpt>
      <trkpt lat="47.23458" lon="7.66664">
        <ele>417.3</ele>
        <time>2022-10-01T12:38:54Z</time>
      </trkpt>
      <trkpt lat="47.23461" lon="7.66682">
        <ele>417.4</ele>
        <time>2022-10-01T12:38:55Z</time>
      </trkpt>
      <trkpt lat="47.23462" lon="7.66692">
        <ele>417.4</ele>
        <time>2022-10-01T12:38:56Z</time>
      </trkpt>
      <trkpt lat="47.23464" lon="7.66701">
        <ele>417.5</ele>
        <time>2022-10-01T12:38:57Z</time>
      </trkpt>
      <trkpt lat="47.23465" lon="7.6671">
        <ele>417.5</ele>
        <time>2022-10-01T12:38:58Z</time>
      </trkpt>
      <trkpt lat="47.23466" lon="7.66719">
        <ele>417.5</ele>
        <time>2022-10-01T12:38:59Z</time>
      </trkpt>
      <trkpt lat="47.23466" lon="7.66728">
        <ele>417.6</ele>
        <time>2022-10-01T12:39:00Z</time>
      </trkpt>
      <trkpt lat="47.23467" lon="7.66738">
        <ele>417.6</ele>
        <time>2022-10-01T12:39:01Z</time>
      </trkpt>
      <trkpt lat="47.23467" lon="7.66747">
        <ele>417.6</ele>
        <time>2022-10-01T12:39:02Z</time>
      </trkpt>
      <trkpt lat="47.23467" lon="7.66757">
        <ele>417.6</ele>
        <time>2022-10-01T12:39:03Z</time>
      </trkpt>
      <trkpt lat="47.23468" lon="7.66765">
        <ele>417.6</ele>
        <time>2022-10-01T12:39:04Z</time>
      </trkpt>
      <trkpt lat="47.23468" lon="7.66774">
        <ele>417.6</ele>
        <time>2022-10-01T12:39:05Z</time>
      </trkpt>
      <trkpt lat="47.23468" lon="7.66784">
        <ele>417.6</ele>
        <time>2022-10-01T12:39:06Z</time>
      </trkpt>
      <trkpt lat="47.23468" lon="7.66793">
        <ele>417.6</ele>
        <time>2022-10-01T12:39:07Z</time>
      </trkpt>
      <trkpt lat="47.23468" lon="7.66802">
        <ele>417.7</ele>
        <time>2022-10-01T12:39:08Z</time>
      </trkpt>
      <trkpt lat="47.23468" lon="7.66811">
        <ele>417.7</ele>
        <time>2022-10-01T12:39:09Z</time>
      </trkpt>
      <trkpt lat="47.23469" lon="7.6682">
        <ele>417.8</ele>
        <time>2022-10-01T12:39:10Z</time>
      </trkpt>
      <trkpt lat="47.23469" lon="7.66829">
        <ele>417.8</ele>
        <time>2022-10-01T12:39:11Z</time>
      </trkpt>
      <trkpt lat="47.23469" lon="7.66838">
        <ele>417.8</ele>
        <time>2022-10-01T12:39:12Z</time>
      </trkpt>
      <trkpt lat="47.23469" lon="7.66847">
        <ele>417.8</ele>
        <time>2022-10-01T12:39:13Z</time>
      </trkpt>
      <trkpt lat="47.2347" lon="7.66856">
        <ele>417.8</ele>
        <time>2022-10-01T12:39:14Z</time>
      </trkpt>
      <trkpt lat="47.2347" lon="7.66864">
        <ele>417.8</ele>
        <time>2022-10-01T12:39:15Z</time>
      </trkpt>
      <trkpt lat="47.2347" lon="7.66874">
        <ele>417.8</ele>
        <time>2022-10-01T12:39:16Z</time>
      </trkpt>
      <trkpt lat="47.2347" lon="7.66882">
        <ele>417.7</ele>
        <time>2022-10-01T12:39:17Z</time>
      </trkpt>
      <trkpt lat="47.2347" lon="7.66892">
        <ele>417.7</ele>
        <time>2022-10-01T12:39:18Z</time>
      </trkpt>
      <trkpt lat="47.23471" lon="7.66901">
        <ele>417.7</ele>
        <time>2022-10-01T12:39:19Z</time>
      </trkpt>
      <trkpt lat="47.23472" lon="7.6691">
        <ele>417.7</ele>
        <time>2022-10-01T12:39:20Z</time>
      </trkpt>
      <trkpt lat="47.23471" lon="7.6692">
        <ele>417.6</ele>
        <time>2022-10-01T12:39:21Z</time>
      </trkpt>
      <trkpt lat="47.23472" lon="7.6693">
        <ele>417.6</ele>
        <time>2022-10-01T12:39:22Z</time>
      </trkpt>
      <trkpt lat="47.23471" lon="7.6694">
        <ele>417.6</ele>
        <time>2022-10-01T12:39:23Z</time>
      </trkpt>
      <trkpt lat="47.23472" lon="7.6695">
        <ele>417.6</ele>
        <time>2022-10-01T12:39:24Z</time>
      </trkpt>
      <trkpt lat="47.23473" lon="7.66959">
        <ele>417.5</ele>
        <time>2022-10-01T12:39:25Z</time>
      </trkpt>
      <trkpt lat="47.23474" lon="7.66969">
        <ele>417.5</ele>
        <time>2022-10-01T12:39:26Z</time>
      </trkpt>
      <trkpt lat="47.23475" lon="7.66978">
        <ele>417.5</ele>
        <time>2022-10-01T12:39:27Z</time>
      </trkpt>
      <trkpt lat="47.23478" lon="7.66988">
        <ele>417.5</ele>
        <time>2022-10-01T12:39:28Z</time>
      </trkpt>
      <trkpt lat="47.2348" lon="7.66997">
        <ele>417.4</ele>
        <time>2022-10-01T12:39:29Z</time>
      </trkpt>
      <trkpt lat="47.23482" lon="7.67006">
        <ele>417.4</ele>
        <time>2022-10-01T12:39:30Z</time>
      </trkpt>
      <trkpt lat="47.23484" lon="7.67014">
        <ele>417.4</ele>
        <time>2022-10-01T12:39:31Z</time>
      </trkpt>
      <trkpt lat="47.23486" lon="7.67024">
        <ele>417.3</ele>
        <time>2022-10-01T12:39:32Z</time>
      </trkpt>
      <trkpt lat="47.23488" lon="7.67032">
        <ele>417.3</ele>
        <time>2022-10-01T12:39:33Z</time>
      </trkpt>
      <trkpt lat="47.23489" lon="7.67041">
        <ele>417.3</ele>
        <time>2022-10-01T12:39:34Z</time>
      </trkpt>
      <trkpt lat="47.23491" lon="7.67049">
        <ele>417.2</ele>
        <time>2022-10-01T12:39:35Z</time>
      </trkpt>
      <trkpt lat="47.23492" lon="7.67057">
        <ele>417.2</ele>
        <time>2022-10-01T12:39:36Z</time>
      </trkpt>
      <trkpt lat="47.23494" lon="7.67065">
        <ele>417.2</ele>
        <time>2022-10-01T12:39:37Z</time>
      </trkpt>
      <trkpt lat="47.23496" lon="7.67074">
        <ele>417.2</ele>
        <time>2022-10-01T12:39:38Z</time>
      </trkpt>
      <trkpt lat="47.23495" lon="7.67082">
        <ele>417.1</ele>
        <time>2022-10-01T12:39:39Z</time>
      </trkpt>
      <trkpt lat="47.23495" lon="7.6709">
        <ele>417.1</ele>
        <time>2022-10-01T12:39:40Z</time>
      </trkpt>
      <trkpt lat="47.23496" lon="7.67099">
        <ele>417.1</ele>
        <time>2022-10-01T12:39:41Z</time>
      </trkpt>
      <trkpt lat="47.23495" lon="7.67107">
        <ele>417</ele>
        <time>2022-10-01T12:39:42Z</time>
      </trkpt>
      <trkpt lat="47.23495" lon="7.67116">
        <ele>417</ele>
        <time>2022-10-01T12:39:43Z</time>
      </trkpt>
      <trkpt lat="47.23496" lon="7.67124">
        <ele>417</ele>
        <time>2022-10-01T12:39:44Z</time>
      </trkpt>
      <trkpt lat="47.23495" lon="7.67132">
        <ele>417</ele>
        <time>2022-10-01T12:39:45Z</time>
      </trkpt>
      <trkpt lat="47.23495" lon="7.67142">
        <ele>417</ele>
        <time>2022-10-01T12:39:46Z</time>
      </trkpt>
      <trkpt lat="47.23494" lon="7.67151">
        <ele>417</ele>
        <time>2022-10-01T12:39:47Z</time>
      </trkpt>
      <trkpt lat="47.23495" lon="7.67161">
        <ele>417</ele>
        <time>2022-10-01T12:39:48Z</time>
      </trkpt>
      <trkpt lat="47.23496" lon="7.6717">
        <ele>417</ele>
        <time>2022-10-01T12:39:49Z</time>
      </trkpt>
      <trkpt lat="47.23497" lon="7.67179">
        <ele>417</ele>
        <time>2022-10-01T12:39:50Z</time>
      </trkpt>
      <trkpt lat="47.23498" lon="7.67188">
        <ele>417.1</ele>
        <time>2022-10-01T12:39:51Z</time>
      </trkpt>
      <trkpt lat="47.235" lon="7.67197">
        <ele>417.1</ele>
        <time>2022-10-01T12:39:52Z</time>
      </trkpt>
      <trkpt lat="47.23502" lon="7.67207">
        <ele>417.2</ele>
        <time>2022-10-01T12:39:53Z</time>
      </trkpt>
      <trkpt lat="47.23503" lon="7.67216">
        <ele>417.1</ele>
        <time>2022-10-01T12:39:54Z</time>
      </trkpt>
      <trkpt lat="47.23505" lon="7.67225">
        <ele>417.1</ele>
        <time>2022-10-01T12:39:55Z</time>
      </trkpt>
      <trkpt lat="47.23508" lon="7.67234">
        <ele>417.1</ele>
        <time>2022-10-01T12:39:56Z</time>
      </trkpt>
      <trkpt lat="47.23509" lon="7.67244">
        <ele>417.1</ele>
        <time>2022-10-01T12:39:57Z</time>
      </trkpt>
      <trkpt lat="47.23511" lon="7.67253">
        <ele>417.1</ele>
        <time>2022-10-01T12:39:58Z</time>
      </trkpt>
      <trkpt lat="47.23513" lon="7.67262">
        <ele>417.1</ele>
        <time>2022-10-01T12:39:59Z</time>
      </trkpt>
      <trkpt lat="47.23513" lon="7.6727">
        <ele>417.1</ele>
        <time>2022-10-01T12:40:00Z</time>
      </trkpt>
      <trkpt lat="47.23514" lon="7.6728">
        <ele>417.2</ele>
        <time>2022-10-01T12:40:01Z</time>
      </trkpt>
      <trkpt lat="47.23516" lon="7.67289">
        <ele>417.2</ele>
        <time>2022-10-01T12:40:02Z</time>
      </trkpt>
      <trkpt lat="47.23518" lon="7.67298">
        <ele>417.2</ele>
        <time>2022-10-01T12:40:03Z</time>
      </trkpt>
      <trkpt lat="47.2352" lon="7.67307">
        <ele>417.2</ele>
        <time>2022-10-01T12:40:04Z</time>
      </trkpt>
      <trkpt lat="47.23522" lon="7.67316">
        <ele>417.2</ele>
        <time>2022-10-01T12:40:05Z</time>
      </trkpt>
      <trkpt lat="47.23525" lon="7.67324">
        <ele>417.3</ele>
        <time>2022-10-01T12:40:06Z</time>
      </trkpt>
      <trkpt lat="47.23527" lon="7.67333">
        <ele>417.4</ele>
        <time>2022-10-01T12:40:07Z</time>
      </trkpt>
      <trkpt lat="47.23531" lon="7.67341">
        <ele>417.4</ele>
        <time>2022-10-01T12:40:08Z</time>
      </trkpt>
      <trkpt lat="47.23534" lon="7.67348">
        <ele>417.5</ele>
        <time>2022-10-01T12:40:09Z</time>
      </trkpt>
      <trkpt lat="47.23537" lon="7.67357">
        <ele>417.6</ele>
        <time>2022-10-01T12:40:10Z</time>
      </trkpt>
      <trkpt lat="47.2354" lon="7.67365">
        <ele>417.6</ele>
        <time>2022-10-01T12:40:11Z</time>
      </trkpt>
      <trkpt lat="47.23543" lon="7.67372">
        <ele>417.7</ele>
        <time>2022-10-01T12:40:12Z</time>
      </trkpt>
      <trkpt lat="47.23545" lon="7.6738">
        <ele>417.7</ele>
        <time>2022-10-01T12:40:13Z</time>
      </trkpt>
      <trkpt lat="47.23548" lon="7.67388">
        <ele>417.8</ele>
        <time>2022-10-01T12:40:14Z</time>
      </trkpt>
      <trkpt lat="47.23551" lon="7.67395">
        <ele>417.8</ele>
        <time>2022-10-01T12:40:15Z</time>
      </trkpt>
      <trkpt lat="47.23553" lon="7.67403">
        <ele>417.9</ele>
        <time>2022-10-01T12:40:16Z</time>
      </trkpt>
      <trkpt lat="47.23554" lon="7.67412">
        <ele>417.9</ele>
        <time>2022-10-01T12:40:17Z</time>
      </trkpt>
      <trkpt lat="47.23556" lon="7.67421">
        <ele>418</ele>
        <time>2022-10-01T12:40:18Z</time>
      </trkpt>
      <trkpt lat="47.23558" lon="7.6743">
        <ele>418.1</ele>
        <time>2022-10-01T12:40:19Z</time>
      </trkpt>
      <trkpt lat="47.23559" lon="7.67439">
        <ele>418.2</ele>
        <time>2022-10-01T12:40:20Z</time>
      </trkpt>
      <trkpt lat="47.2356" lon="7.67448">
        <ele>418.3</ele>
        <time>2022-10-01T12:40:21Z</time>
      </trkpt>
      <trkpt lat="47.23561" lon="7.67457">
        <ele>418.4</ele>
        <time>2022-10-01T12:40:22Z</time>
      </trkpt>
      <trkpt lat="47.2356" lon="7.67466">
        <ele>418.5</ele>
        <time>2022-10-01T12:40:23Z</time>
      </trkpt>
      <trkpt lat="47.23559" lon="7.67474">
        <ele>418.7</ele>
        <time>2022-10-01T12:40:24Z</time>
      </trkpt>
      <trkpt lat="47.23559" lon="7.67482">
        <ele>418.8</ele>
        <time>2022-10-01T12:40:25Z</time>
      </trkpt>
      <trkpt lat="47.23558" lon="7.6749">
        <ele>419</ele>
        <time>2022-10-01T12:40:26Z</time>
      </trkpt>
      <trkpt lat="47.23558" lon="7.67498">
        <ele>419.2</ele>
        <time>2022-10-01T12:40:27Z</time>
      </trkpt>
      <trkpt lat="47.23556" lon="7.67506">
        <ele>419.3</ele>
        <time>2022-10-01T12:40:28Z</time>
      </trkpt>
      <trkpt lat="47.23556" lon="7.67512">
        <ele>419.5</ele>
        <time>2022-10-01T12:40:29Z</time>
      </trkpt>
      <trkpt lat="47.23554" lon="7.67518">
        <ele>419.7</ele>
        <time>2022-10-01T12:40:30Z</time>
      </trkpt>
      <trkpt lat="47.23553" lon="7.67525">
        <ele>419.8</ele>
        <time>2022-10-01T12:40:31Z</time>
      </trkpt>
      <trkpt lat="47.23553" lon="7.67532">
        <ele>420</ele>
        <time>2022-10-01T12:40:32Z</time>
      </trkpt>
      <trkpt lat="47.23552" lon="7.67538">
        <ele>420.1</ele>
        <time>2022-10-01T12:40:33Z</time>
      </trkpt>
      <trkpt lat="47.23551" lon="7.67545">
        <ele>420.3</ele>
        <time>2022-10-01T12:40:34Z</time>
      </trkpt>
      <trkpt lat="47.23551" lon="7.67551">
        <ele>420.4</ele>
        <time>2022-10-01T12:40:35Z</time>
      </trkpt>
      <trkpt lat="47.23551" lon="7.67556">
        <ele>420.6</ele>
        <time>2022-10-01T12:40:36Z</time>
      </trkpt>
      <trkpt lat="47.2355" lon="7.6756">
        <ele>420.7</ele>
        <time>2022-10-01T12:40:37Z</time>
      </trkpt>
      <trkpt lat="47.2355" lon="7.67568">
        <ele>420.8</ele>
        <time>2022-10-01T12:40:38Z</time>
      </trkpt>
      <trkpt lat="47.2355" lon="7.67574">
        <ele>421</ele>
        <time>2022-10-01T12:40:40Z</time>
      </trkpt>
      <trkpt lat="47.23548" lon="7.67581">
        <ele>421.2</ele>
        <time>2022-10-01T12:40:41Z</time>
      </trkpt>
      <trkpt lat="47.23547" lon="7.67587">
        <ele>421.3</ele>
        <time>2022-10-01T12:40:42Z</time>
      </trkpt>
      <trkpt lat="47.23546" lon="7.67599">
        <ele>421.7</ele>
        <time>2022-10-01T12:40:43Z</time>
      </trkpt>
      <trkpt lat="47.23545" lon="7.67606">
        <ele>421.9</ele>
        <time>2022-10-01T12:40:44Z</time>
      </trkpt>
      <trkpt lat="47.23546" lon="7.67612">
        <ele>422</ele>
        <time>2022-10-01T12:40:45Z</time>
      </trkpt>
      <trkpt lat="47.23547" lon="7.67618">
        <ele>422.3</ele>
        <time>2022-10-01T12:40:46Z</time>
      </trkpt>
      <trkpt lat="47.2355" lon="7.67626">
        <ele>422.3</ele>
        <time>2022-10-01T12:40:48Z</time>
      </trkpt>
      <trkpt lat="47.23554" lon="7.67627">
        <ele>422.3</ele>
        <time>2022-10-01T12:40:50Z</time>
      </trkpt>
      <trkpt lat="47.23556" lon="7.67627">
        <ele>422.3</ele>
        <time>2022-10-01T12:40:51Z</time>
      </trkpt>
      <trkpt lat="47.23557" lon="7.67628">
        <ele>422.3</ele>
        <time>2022-10-01T12:40:52Z</time>
      </trkpt>
      <trkpt lat="47.2356" lon="7.67629">
        <ele>422.4</ele>
        <time>2022-10-01T12:40:53Z</time>
      </trkpt>
      <trkpt lat="47.23563" lon="7.67631">
        <ele>422.5</ele>
        <time>2022-10-01T12:40:54Z</time>
      </trkpt>
      <trkpt lat="47.23566" lon="7.67634">
        <ele>422.5</ele>
        <time>2022-10-01T12:40:55Z</time>
      </trkpt>
      <trkpt lat="47.23567" lon="7.67635">
        <ele>422.6</ele>
        <time>2022-10-01T12:40:56Z</time>
      </trkpt>
      <trkpt lat="47.2357" lon="7.67635">
        <ele>422.6</ele>
        <time>2022-10-01T12:40:57Z</time>
      </trkpt>
      <trkpt lat="47.23573" lon="7.67637">
        <ele>422.7</ele>
        <time>2022-10-01T12:40:58Z</time>
      </trkpt>
      <trkpt lat="47.23576" lon="7.6764">
        <ele>422.8</ele>
        <time>2022-10-01T12:40:59Z</time>
      </trkpt>
      <trkpt lat="47.23582" lon="7.67643">
        <ele>422.9</ele>
        <time>2022-10-01T12:41:00Z</time>
      </trkpt>
      <trkpt lat="47.23585" lon="7.67645">
        <ele>422.9</ele>
        <time>2022-10-01T12:41:01Z</time>
      </trkpt>
      <trkpt lat="47.23588" lon="7.67646">
        <ele>423</ele>
        <time>2022-10-01T12:41:02Z</time>
      </trkpt>
      <trkpt lat="47.23592" lon="7.67649">
        <ele>423.1</ele>
        <time>2022-10-01T12:41:03Z</time>
      </trkpt>
      <trkpt lat="47.23595" lon="7.67651">
        <ele>423.1</ele>
        <time>2022-10-01T12:41:04Z</time>
      </trkpt>
      <trkpt lat="47.23598" lon="7.67652">
        <ele>423.2</ele>
        <time>2022-10-01T12:41:05Z</time>
      </trkpt>
      <trkpt lat="47.23602" lon="7.67654">
        <ele>423.2</ele>
        <time>2022-10-01T12:41:06Z</time>
      </trkpt>
      <trkpt lat="47.23605" lon="7.67656">
        <ele>423.2</ele>
        <time>2022-10-01T12:41:07Z</time>
      </trkpt>
      <trkpt lat="47.23608" lon="7.67658">
        <ele>423.2</ele>
        <time>2022-10-01T12:41:08Z</time>
      </trkpt>
      <trkpt lat="47.23612" lon="7.6766">
        <ele>423.3</ele>
        <time>2022-10-01T12:41:09Z</time>
      </trkpt>
      <trkpt lat="47.23616" lon="7.67662">
        <ele>423.3</ele>
        <time>2022-10-01T12:41:10Z</time>
      </trkpt>
      <trkpt lat="47.2362" lon="7.67663">
        <ele>423.2</ele>
        <time>2022-10-01T12:41:11Z</time>
      </trkpt>
      <trkpt lat="47.23624" lon="7.67665">
        <ele>423.2</ele>
        <time>2022-10-01T12:41:12Z</time>
      </trkpt>
      <trkpt lat="47.23627" lon="7.67667">
        <ele>423.2</ele>
        <time>2022-10-01T12:41:13Z</time>
      </trkpt>
      <trkpt lat="47.23631" lon="7.67669">
        <ele>423.1</ele>
        <time>2022-10-01T12:41:14Z</time>
      </trkpt>
      <trkpt lat="47.23636" lon="7.67672">
        <ele>423</ele>
        <time>2022-10-01T12:41:15Z</time>
      </trkpt>
      <trkpt lat="47.2364" lon="7.67674">
        <ele>422.9</ele>
        <time>2022-10-01T12:41:16Z</time>
      </trkpt>
      <trkpt lat="47.23645" lon="7.67677">
        <ele>422.8</ele>
        <time>2022-10-01T12:41:17Z</time>
      </trkpt>
      <trkpt lat="47.23649" lon="7.6768">
        <ele>422.7</ele>
        <time>2022-10-01T12:41:18Z</time>
      </trkpt>
      <trkpt lat="47.23654" lon="7.67682">
        <ele>422.6</ele>
        <time>2022-10-01T12:41:19Z</time>
      </trkpt>
      <trkpt lat="47.23659" lon="7.67685">
        <ele>422.5</ele>
        <time>2022-10-01T12:41:20Z</time>
      </trkpt>
      <trkpt lat="47.23664" lon="7.67688">
        <ele>422.3</ele>
        <time>2022-10-01T12:41:21Z</time>
      </trkpt>
      <trkpt lat="47.23668" lon="7.6769">
        <ele>422.2</ele>
        <time>2022-10-01T12:41:22Z</time>
      </trkpt>
      <trkpt lat="47.23673" lon="7.67693">
        <ele>422.1</ele>
        <time>2022-10-01T12:41:23Z</time>
      </trkpt>
      <trkpt lat="47.23676" lon="7.67695">
        <ele>422</ele>
        <time>2022-10-01T12:41:24Z</time>
      </trkpt>
      <trkpt lat="47.2368" lon="7.67697">
        <ele>422</ele>
        <time>2022-10-01T12:41:25Z</time>
      </trkpt>
      <trkpt lat="47.23683" lon="7.67699">
        <ele>421.9</ele>
        <time>2022-10-01T12:41:26Z</time>
      </trkpt>
      <trkpt lat="47.23686" lon="7.677">
        <ele>421.8</ele>
        <time>2022-10-01T12:41:27Z</time>
      </trkpt>
      <trkpt lat="47.23689" lon="7.677">
        <ele>421.8</ele>
        <time>2022-10-01T12:41:28Z</time>
      </trkpt>
      <trkpt lat="47.23694" lon="7.67702">
        <ele>421.5</ele>
        <time>2022-10-01T12:41:29Z</time>
      </trkpt>
      <trkpt lat="47.23699" lon="7.67706">
        <ele>421.2</ele>
        <time>2022-10-01T12:41:30Z</time>
      </trkpt>
      <trkpt lat="47.23703" lon="7.6771">
        <ele>420.8</ele>
        <time>2022-10-01T12:41:31Z</time>
      </trkpt>
      <trkpt lat="47.23709" lon="7.67713">
        <ele>420.5</ele>
        <time>2022-10-01T12:41:32Z</time>
      </trkpt>
      <trkpt lat="47.23714" lon="7.67717">
        <ele>420.2</ele>
        <time>2022-10-01T12:41:33Z</time>
      </trkpt>
      <trkpt lat="47.2372" lon="7.67722">
        <ele>419.9</ele>
        <time>2022-10-01T12:41:34Z</time>
      </trkpt>
      <trkpt lat="47.23726" lon="7.67726">
        <ele>419.6</ele>
        <time>2022-10-01T12:41:35Z</time>
      </trkpt>
      <trkpt lat="47.23732" lon="7.6773">
        <ele>419.3</ele>
        <time>2022-10-01T12:41:36Z</time>
      </trkpt>
      <trkpt lat="47.23737" lon="7.67734">
        <ele>419</ele>
        <time>2022-10-01T12:41:37Z</time>
      </trkpt>
      <trkpt lat="47.23743" lon="7.67736">
        <ele>418.8</ele>
        <time>2022-10-01T12:41:38Z</time>
      </trkpt>
      <trkpt lat="47.2375" lon="7.67739">
        <ele>418.6</ele>
        <time>2022-10-01T12:41:39Z</time>
      </trkpt>
      <trkpt lat="47.23756" lon="7.67741">
        <ele>418.5</ele>
        <time>2022-10-01T12:41:40Z</time>
      </trkpt>
      <trkpt lat="47.23762" lon="7.67743">
        <ele>418.4</ele>
        <time>2022-10-01T12:41:41Z</time>
      </trkpt>
      <trkpt lat="47.23767" lon="7.67746">
        <ele>418.3</ele>
        <time>2022-10-01T12:41:42Z</time>
      </trkpt>
      <trkpt lat="47.23773" lon="7.67747">
        <ele>418.1</ele>
        <time>2022-10-01T12:41:43Z</time>
      </trkpt>
      <trkpt lat="47.23779" lon="7.67749">
        <ele>418</ele>
        <time>2022-10-01T12:41:44Z</time>
      </trkpt>
      <trkpt lat="47.23783" lon="7.67751">
        <ele>417.9</ele>
        <time>2022-10-01T12:41:45Z</time>
      </trkpt>
      <trkpt lat="47.23786" lon="7.67754">
        <ele>417.8</ele>
        <time>2022-10-01T12:41:46Z</time>
      </trkpt>
      <trkpt lat="47.23789" lon="7.67757">
        <ele>417.7</ele>
        <time>2022-10-01T12:41:47Z</time>
      </trkpt>
      <trkpt lat="47.2379" lon="7.67761">
        <ele>417.7</ele>
        <time>2022-10-01T12:41:48Z</time>
      </trkpt>
      <trkpt lat="47.23792" lon="7.67766">
        <ele>417.6</ele>
        <time>2022-10-01T12:41:49Z</time>
      </trkpt>
      <trkpt lat="47.23794" lon="7.67771">
        <ele>417.5</ele>
        <time>2022-10-01T12:41:50Z</time>
      </trkpt>
      <trkpt lat="47.23796" lon="7.67776">
        <ele>417.4</ele>
        <time>2022-10-01T12:41:51Z</time>
      </trkpt>
      <trkpt lat="47.23796" lon="7.67783">
        <ele>417.3</ele>
        <time>2022-10-01T12:41:52Z</time>
      </trkpt>
      <trkpt lat="47.23796" lon="7.6779">
        <ele>417.2</ele>
        <time>2022-10-01T12:41:53Z</time>
      </trkpt>
      <trkpt lat="47.23794" lon="7.67795">
        <ele>417.1</ele>
        <time>2022-10-01T12:41:54Z</time>
      </trkpt>
      <trkpt lat="47.23793" lon="7.67802">
        <ele>417.1</ele>
        <time>2022-10-01T12:41:55Z</time>
      </trkpt>
      <trkpt lat="47.23792" lon="7.67811">
        <ele>417</ele>
        <time>2022-10-01T12:41:56Z</time>
      </trkpt>
      <trkpt lat="47.23791" lon="7.67818">
        <ele>416.9</ele>
        <time>2022-10-01T12:41:57Z</time>
      </trkpt>
      <trkpt lat="47.2379" lon="7.67825">
        <ele>416.9</ele>
        <time>2022-10-01T12:41:58Z</time>
      </trkpt>
      <trkpt lat="47.2379" lon="7.67832">
        <ele>416.8</ele>
        <time>2022-10-01T12:41:59Z</time>
      </trkpt>
      <trkpt lat="47.23789" lon="7.6784">
        <ele>416.8</ele>
        <time>2022-10-01T12:42:00Z</time>
      </trkpt>
      <trkpt lat="47.23788" lon="7.67848">
        <ele>416.7</ele>
        <time>2022-10-01T12:42:01Z</time>
      </trkpt>
      <trkpt lat="47.23789" lon="7.67856">
        <ele>416.7</ele>
        <time>2022-10-01T12:42:02Z</time>
      </trkpt>
      <trkpt lat="47.23788" lon="7.67864">
        <ele>416.7</ele>
        <time>2022-10-01T12:42:03Z</time>
      </trkpt>
      <trkpt lat="47.23787" lon="7.67873">
        <ele>416.7</ele>
        <time>2022-10-01T12:42:04Z</time>
      </trkpt>
      <trkpt lat="47.23786" lon="7.67881">
        <ele>416.6</ele>
        <time>2022-10-01T12:42:05Z</time>
      </trkpt>
      <trkpt lat="47.23786" lon="7.67889">
        <ele>416.6</ele>
        <time>2022-10-01T12:42:06Z</time>
      </trkpt>
      <trkpt lat="47.23785" lon="7.67897">
        <ele>416.7</ele>
        <time>2022-10-01T12:42:07Z</time>
      </trkpt>
      <trkpt lat="47.23784" lon="7.67905">
        <ele>416.7</ele>
        <time>2022-10-01T12:42:08Z</time>
      </trkpt>
      <trkpt lat="47.23783" lon="7.67913">
        <ele>416.7</ele>
        <time>2022-10-01T12:42:09Z</time>
      </trkpt>
      <trkpt lat="47.23782" lon="7.67922">
        <ele>416.7</ele>
        <time>2022-10-01T12:42:10Z</time>
      </trkpt>
      <trkpt lat="47.23781" lon="7.67929">
        <ele>416.7</ele>
        <time>2022-10-01T12:42:11Z</time>
      </trkpt>
      <trkpt lat="47.2378" lon="7.67938">
        <ele>416.8</ele>
        <time>2022-10-01T12:42:12Z</time>
      </trkpt>
      <trkpt lat="47.2378" lon="7.67946">
        <ele>416.8</ele>
        <time>2022-10-01T12:42:13Z</time>
      </trkpt>
      <trkpt lat="47.23779" lon="7.67954">
        <ele>416.8</ele>
        <time>2022-10-01T12:42:14Z</time>
      </trkpt>
      <trkpt lat="47.23779" lon="7.67962">
        <ele>416.8</ele>
        <time>2022-10-01T12:42:15Z</time>
      </trkpt>
      <trkpt lat="47.23778" lon="7.67968">
        <ele>416.8</ele>
        <time>2022-10-01T12:42:16Z</time>
      </trkpt>
      <trkpt lat="47.23777" lon="7.67977">
        <ele>416.9</ele>
        <time>2022-10-01T12:42:17Z</time>
      </trkpt>
      <trkpt lat="47.23776" lon="7.67985">
        <ele>416.9</ele>
        <time>2022-10-01T12:42:18Z</time>
      </trkpt>
      <trkpt lat="47.23775" lon="7.67993">
        <ele>416.9</ele>
        <time>2022-10-01T12:42:19Z</time>
      </trkpt>
      <trkpt lat="47.23773" lon="7.68001">
        <ele>416.9</ele>
        <time>2022-10-01T12:42:20Z</time>
      </trkpt>
      <trkpt lat="47.23772" lon="7.68009">
        <ele>417</ele>
        <time>2022-10-01T12:42:21Z</time>
      </trkpt>
      <trkpt lat="47.2377" lon="7.68018">
        <ele>417</ele>
        <time>2022-10-01T12:42:22Z</time>
      </trkpt>
      <trkpt lat="47.23769" lon="7.68025">
        <ele>417</ele>
        <time>2022-10-01T12:42:23Z</time>
      </trkpt>
      <trkpt lat="47.23768" lon="7.68033">
        <ele>417</ele>
        <time>2022-10-01T12:42:24Z</time>
      </trkpt>
      <trkpt lat="47.23767" lon="7.68042">
        <ele>417.1</ele>
        <time>2022-10-01T12:42:25Z</time>
      </trkpt>
      <trkpt lat="47.23765" lon="7.68051">
        <ele>417.1</ele>
        <time>2022-10-01T12:42:26Z</time>
      </trkpt>
      <trkpt lat="47.23764" lon="7.68059">
        <ele>417.1</ele>
        <time>2022-10-01T12:42:27Z</time>
      </trkpt>
      <trkpt lat="47.23762" lon="7.68067">
        <ele>417.1</ele>
        <time>2022-10-01T12:42:28Z</time>
      </trkpt>
      <trkpt lat="47.23761" lon="7.68076">
        <ele>417.1</ele>
        <time>2022-10-01T12:42:29Z</time>
      </trkpt>
      <trkpt lat="47.2376" lon="7.68084">
        <ele>417.1</ele>
        <time>2022-10-01T12:42:30Z</time>
      </trkpt>
      <trkpt lat="47.23758" lon="7.68093">
        <ele>417.1</ele>
        <time>2022-10-01T12:42:31Z</time>
      </trkpt>
      <trkpt lat="47.23757" lon="7.68103">
        <ele>417.1</ele>
        <time>2022-10-01T12:42:32Z</time>
      </trkpt>
      <trkpt lat="47.23756" lon="7.6811">
        <ele>417.1</ele>
        <time>2022-10-01T12:42:33Z</time>
      </trkpt>
      <trkpt lat="47.23755" lon="7.68119">
        <ele>417.1</ele>
        <time>2022-10-01T12:42:34Z</time>
      </trkpt>
      <trkpt lat="47.23755" lon="7.68129">
        <ele>417.1</ele>
        <time>2022-10-01T12:42:35Z</time>
      </trkpt>
      <trkpt lat="47.23755" lon="7.68137">
        <ele>417.1</ele>
        <time>2022-10-01T12:42:36Z</time>
      </trkpt>
      <trkpt lat="47.23755" lon="7.68145">
        <ele>417.1</ele>
        <time>2022-10-01T12:42:37Z</time>
      </trkpt>
      <trkpt lat="47.23756" lon="7.68155">
        <ele>417</ele>
        <time>2022-10-01T12:42:38Z</time>
      </trkpt>
      <trkpt lat="47.23756" lon="7.68164">
        <ele>417</ele>
        <time>2022-10-01T12:42:39Z</time>
      </trkpt>
      <trkpt lat="47.23757" lon="7.68173">
        <ele>416.9</ele>
        <time>2022-10-01T12:42:40Z</time>
      </trkpt>
      <trkpt lat="47.23758" lon="7.68182">
        <ele>416.9</ele>
        <time>2022-10-01T12:42:41Z</time>
      </trkpt>
      <trkpt lat="47.23759" lon="7.68192">
        <ele>416.8</ele>
        <time>2022-10-01T12:42:42Z</time>
      </trkpt>
      <trkpt lat="47.23761" lon="7.68201">
        <ele>416.8</ele>
        <time>2022-10-01T12:42:43Z</time>
      </trkpt>
      <trkpt lat="47.23762" lon="7.6821">
        <ele>416.8</ele>
        <time>2022-10-01T12:42:44Z</time>
      </trkpt>
      <trkpt lat="47.23763" lon="7.68219">
        <ele>416.8</ele>
        <time>2022-10-01T12:42:46Z</time>
      </trkpt>
      <trkpt lat="47.23764" lon="7.68228">
        <ele>416.8</ele>
        <time>2022-10-01T12:42:47Z</time>
      </trkpt>
      <trkpt lat="47.23764" lon="7.68237">
        <ele>416.8</ele>
        <time>2022-10-01T12:42:48Z</time>
      </trkpt>
      <trkpt lat="47.23764" lon="7.68255">
        <ele>416.9</ele>
        <time>2022-10-01T12:42:49Z</time>
      </trkpt>
      <trkpt lat="47.23764" lon="7.68264">
        <ele>416.9</ele>
        <time>2022-10-01T12:42:50Z</time>
      </trkpt>
      <trkpt lat="47.23763" lon="7.68272">
        <ele>417</ele>
        <time>2022-10-01T12:42:51Z</time>
      </trkpt>
      <trkpt lat="47.23763" lon="7.6828">
        <ele>417</ele>
        <time>2022-10-01T12:42:52Z</time>
      </trkpt>
      <trkpt lat="47.23762" lon="7.68288">
        <ele>417.1</ele>
        <time>2022-10-01T12:42:53Z</time>
      </trkpt>
      <trkpt lat="47.23761" lon="7.68296">
        <ele>417.2</ele>
        <time>2022-10-01T12:42:54Z</time>
      </trkpt>
      <trkpt lat="47.23759" lon="7.68303">
        <ele>417.3</ele>
        <time>2022-10-01T12:42:55Z</time>
      </trkpt>
      <trkpt lat="47.23757" lon="7.6831">
        <ele>417.3</ele>
        <time>2022-10-01T12:42:56Z</time>
      </trkpt>
      <trkpt lat="47.23755" lon="7.68317">
        <ele>417.4</ele>
        <time>2022-10-01T12:42:57Z</time>
      </trkpt>
      <trkpt lat="47.23754" lon="7.68324">
        <ele>417.4</ele>
        <time>2022-10-01T12:42:58Z</time>
      </trkpt>
      <trkpt lat="47.23751" lon="7.6833">
        <ele>417.5</ele>
        <time>2022-10-01T12:42:59Z</time>
      </trkpt>
      <trkpt lat="47.23748" lon="7.68335">
        <ele>417.5</ele>
        <time>2022-10-01T12:43:00Z</time>
      </trkpt>
      <trkpt lat="47.23745" lon="7.68341">
        <ele>417.7</ele>
        <time>2022-10-01T12:43:02Z</time>
      </trkpt>
      <trkpt lat="47.23742" lon="7.68346">
        <ele>417.8</ele>
        <time>2022-10-01T12:43:03Z</time>
      </trkpt>
      <trkpt lat="47.23739" lon="7.68351">
        <ele>418</ele>
        <time>2022-10-01T12:43:04Z</time>
      </trkpt>
      <trkpt lat="47.23735" lon="7.68357">
        <ele>418.2</ele>
        <time>2022-10-01T12:43:05Z</time>
      </trkpt>
      <trkpt lat="47.23731" lon="7.68361">
        <ele>418.3</ele>
        <time>2022-10-01T12:43:06Z</time>
      </trkpt>
      <trkpt lat="47.23728" lon="7.68365">
        <ele>418.4</ele>
        <time>2022-10-01T12:43:07Z</time>
      </trkpt>
      <trkpt lat="47.23725" lon="7.68369">
        <ele>418.6</ele>
        <time>2022-10-01T12:43:08Z</time>
      </trkpt>
      <trkpt lat="47.23722" lon="7.68374">
        <ele>418.7</ele>
        <time>2022-10-01T12:43:09Z</time>
      </trkpt>
      <trkpt lat="47.23719" lon="7.68378">
        <ele>418.8</ele>
        <time>2022-10-01T12:43:10Z</time>
      </trkpt>
      <trkpt lat="47.23717" lon="7.68382">
        <ele>418.9</ele>
        <time>2022-10-01T12:43:11Z</time>
      </trkpt>
      <trkpt lat="47.23714" lon="7.68386">
        <ele>419.1</ele>
        <time>2022-10-01T12:43:12Z</time>
      </trkpt>
      <trkpt lat="47.2371" lon="7.68391">
        <ele>419.2</ele>
        <time>2022-10-01T12:43:13Z</time>
      </trkpt>
      <trkpt lat="47.23707" lon="7.68395">
        <ele>419.4</ele>
        <time>2022-10-01T12:43:14Z</time>
      </trkpt>
      <trkpt lat="47.23704" lon="7.684">
        <ele>419.5</ele>
        <time>2022-10-01T12:43:15Z</time>
      </trkpt>
      <trkpt lat="47.23701" lon="7.68405">
        <ele>419.7</ele>
        <time>2022-10-01T12:43:16Z</time>
      </trkpt>
      <trkpt lat="47.23698" lon="7.68409">
        <ele>419.7</ele>
        <time>2022-10-01T12:43:17Z</time>
      </trkpt>
      <trkpt lat="47.23695" lon="7.68414">
        <ele>419.7</ele>
        <time>2022-10-01T12:43:18Z</time>
      </trkpt>
      <trkpt lat="47.23691" lon="7.68419">
        <ele>419.8</ele>
        <time>2022-10-01T12:43:19Z</time>
      </trkpt>
      <trkpt lat="47.23687" lon="7.68423">
        <ele>419.9</ele>
        <time>2022-10-01T12:43:20Z</time>
      </trkpt>
      <trkpt lat="47.23683" lon="7.68429">
        <ele>419.9</ele>
        <time>2022-10-01T12:43:21Z</time>
      </trkpt>
      <trkpt lat="47.23679" lon="7.68433">
        <ele>420</ele>
        <time>2022-10-01T12:43:22Z</time>
      </trkpt>
      <trkpt lat="47.23676" lon="7.68438">
        <ele>420.1</ele>
        <time>2022-10-01T12:43:23Z</time>
      </trkpt>
      <trkpt lat="47.23671" lon="7.68442">
        <ele>420.2</ele>
        <time>2022-10-01T12:43:24Z</time>
      </trkpt>
      <trkpt lat="47.23668" lon="7.68447">
        <ele>420.3</ele>
        <time>2022-10-01T12:43:25Z</time>
      </trkpt>
      <trkpt lat="47.23665" lon="7.68452">
        <ele>420.4</ele>
        <time>2022-10-01T12:43:26Z</time>
      </trkpt>
      <trkpt lat="47.23662" lon="7.68457">
        <ele>420.4</ele>
        <time>2022-10-01T12:43:27Z</time>
      </trkpt>
      <trkpt lat="47.23658" lon="7.68461">
        <ele>420.5</ele>
        <time>2022-10-01T12:43:28Z</time>
      </trkpt>
      <trkpt lat="47.23655" lon="7.68466">
        <ele>420.6</ele>
        <time>2022-10-01T12:43:29Z</time>
      </trkpt>
      <trkpt lat="47.23651" lon="7.6847">
        <ele>420.7</ele>
        <time>2022-10-01T12:43:30Z</time>
      </trkpt>
      <trkpt lat="47.23648" lon="7.68474">
        <ele>420.7</ele>
        <time>2022-10-01T12:43:31Z</time>
      </trkpt>
      <trkpt lat="47.23645" lon="7.6848">
        <ele>420.8</ele>
        <time>2022-10-01T12:43:32Z</time>
      </trkpt>
      <trkpt lat="47.23642" lon="7.68486">
        <ele>420.9</ele>
        <time>2022-10-01T12:43:33Z</time>
      </trkpt>
      <trkpt lat="47.23638" lon="7.68492">
        <ele>421</ele>
        <time>2022-10-01T12:43:34Z</time>
      </trkpt>
      <trkpt lat="47.23636" lon="7.68497">
        <ele>421</ele>
        <time>2022-10-01T12:43:35Z</time>
      </trkpt>
      <trkpt lat="47.23633" lon="7.68503">
        <ele>421.1</ele>
        <time>2022-10-01T12:43:36Z</time>
      </trkpt>
      <trkpt lat="47.2363" lon="7.68509">
        <ele>421.2</ele>
        <time>2022-10-01T12:43:37Z</time>
      </trkpt>
      <trkpt lat="47.23628" lon="7.68516">
        <ele>421.3</ele>
        <time>2022-10-01T12:43:38Z</time>
      </trkpt>
      <trkpt lat="47.23623" lon="7.68528">
        <ele>421.5</ele>
        <time>2022-10-01T12:43:39Z</time>
      </trkpt>
      <trkpt lat="47.23621" lon="7.68535">
        <ele>421.5</ele>
        <time>2022-10-01T12:43:40Z</time>
      </trkpt>
      <trkpt lat="47.23619" lon="7.68541">
        <ele>421.6</ele>
        <time>2022-10-01T12:43:41Z</time>
      </trkpt>
      <trkpt lat="47.23617" lon="7.68547">
        <ele>421.7</ele>
        <time>2022-10-01T12:43:42Z</time>
      </trkpt>
      <trkpt lat="47.23616" lon="7.68553">
        <ele>421.8</ele>
        <time>2022-10-01T12:43:43Z</time>
      </trkpt>
      <trkpt lat="47.23615" lon="7.68559">
        <ele>421.9</ele>
        <time>2022-10-01T12:43:44Z</time>
      </trkpt>
      <trkpt lat="47.23615" lon="7.68565">
        <ele>422</ele>
        <time>2022-10-01T12:43:45Z</time>
      </trkpt>
      <trkpt lat="47.23614" lon="7.68571">
        <ele>422.1</ele>
        <time>2022-10-01T12:43:46Z</time>
      </trkpt>
      <trkpt lat="47.23614" lon="7.68578">
        <ele>422.2</ele>
        <time>2022-10-01T12:43:47Z</time>
      </trkpt>
      <trkpt lat="47.23614" lon="7.68583">
        <ele>422.3</ele>
        <time>2022-10-01T12:43:48Z</time>
      </trkpt>
      <trkpt lat="47.23614" lon="7.68589">
        <ele>422.4</ele>
        <time>2022-10-01T12:43:49Z</time>
      </trkpt>
      <trkpt lat="47.23614" lon="7.68594">
        <ele>422.5</ele>
        <time>2022-10-01T12:43:50Z</time>
      </trkpt>
      <trkpt lat="47.23614" lon="7.686">
        <ele>422.7</ele>
        <time>2022-10-01T12:43:51Z</time>
      </trkpt>
      <trkpt lat="47.23614" lon="7.68606">
        <ele>422.8</ele>
        <time>2022-10-01T12:43:52Z</time>
      </trkpt>
      <trkpt lat="47.23614" lon="7.68611">
        <ele>422.9</ele>
        <time>2022-10-01T12:43:53Z</time>
      </trkpt>
      <trkpt lat="47.23614" lon="7.68617">
        <ele>423</ele>
        <time>2022-10-01T12:43:54Z</time>
      </trkpt>
      <trkpt lat="47.23613" lon="7.68622">
        <ele>423.2</ele>
        <time>2022-10-01T12:43:55Z</time>
      </trkpt>
      <trkpt lat="47.23613" lon="7.68627">
        <ele>423.3</ele>
        <time>2022-10-01T12:43:56Z</time>
      </trkpt>
      <trkpt lat="47.23612" lon="7.68632">
        <ele>423.4</ele>
        <time>2022-10-01T12:43:57Z</time>
      </trkpt>
      <trkpt lat="47.23611" lon="7.68637">
        <ele>423.5</ele>
        <time>2022-10-01T12:43:58Z</time>
      </trkpt>
      <trkpt lat="47.23611" lon="7.68642">
        <ele>423.6</ele>
        <time>2022-10-01T12:43:59Z</time>
      </trkpt>
      <trkpt lat="47.2361" lon="7.68647">
        <ele>423.8</ele>
        <time>2022-10-01T12:44:00Z</time>
      </trkpt>
      <trkpt lat="47.23609" lon="7.68652">
        <ele>423.9</ele>
        <time>2022-10-01T12:44:01Z</time>
      </trkpt>
      <trkpt lat="47.23607" lon="7.68657">
        <ele>424</ele>
        <time>2022-10-01T12:44:02Z</time>
      </trkpt>
      <trkpt lat="47.23606" lon="7.68662">
        <ele>424.2</ele>
        <time>2022-10-01T12:44:03Z</time>
      </trkpt>
      <trkpt lat="47.23605" lon="7.68667">
        <ele>424.3</ele>
        <time>2022-10-01T12:44:04Z</time>
      </trkpt>
      <trkpt lat="47.23604" lon="7.68672">
        <ele>424.4</ele>
        <time>2022-10-01T12:44:05Z</time>
      </trkpt>
      <trkpt lat="47.23603" lon="7.68677">
        <ele>424.5</ele>
        <time>2022-10-01T12:44:06Z</time>
      </trkpt>
      <trkpt lat="47.23601" lon="7.68682">
        <ele>424.7</ele>
        <time>2022-10-01T12:44:07Z</time>
      </trkpt>
      <trkpt lat="47.23601" lon="7.68685">
        <ele>424.8</ele>
        <time>2022-10-01T12:44:08Z</time>
      </trkpt>
      <trkpt lat="47.236" lon="7.6869">
        <ele>424.9</ele>
        <time>2022-10-01T12:44:09Z</time>
      </trkpt>
      <trkpt lat="47.23599" lon="7.68695">
        <ele>425.1</ele>
        <time>2022-10-01T12:44:10Z</time>
      </trkpt>
      <trkpt lat="47.23598" lon="7.687">
        <ele>425.2</ele>
        <time>2022-10-01T12:44:11Z</time>
      </trkpt>
      <trkpt lat="47.23596" lon="7.68705">
        <ele>425.4</ele>
        <time>2022-10-01T12:44:12Z</time>
      </trkpt>
      <trkpt lat="47.23594" lon="7.6871">
        <ele>425.5</ele>
        <time>2022-10-01T12:44:13Z</time>
      </trkpt>
      <trkpt lat="47.23594" lon="7.68716">
        <ele>425.7</ele>
        <time>2022-10-01T12:44:14Z</time>
      </trkpt>
      <trkpt lat="47.23592" lon="7.68721">
        <ele>425.8</ele>
        <time>2022-10-01T12:44:15Z</time>
      </trkpt>
      <trkpt lat="47.23591" lon="7.68725">
        <ele>426</ele>
        <time>2022-10-01T12:44:16Z</time>
      </trkpt>
      <trkpt lat="47.23591" lon="7.68731">
        <ele>426.1</ele>
        <time>2022-10-01T12:44:17Z</time>
      </trkpt>
      <trkpt lat="47.23589" lon="7.68736">
        <ele>426.3</ele>
        <time>2022-10-01T12:44:18Z</time>
      </trkpt>
      <trkpt lat="47.23588" lon="7.68741">
        <ele>426.4</ele>
        <time>2022-10-01T12:44:19Z</time>
      </trkpt>
      <trkpt lat="47.23588" lon="7.68745">
        <ele>426.6</ele>
        <time>2022-10-01T12:44:20Z</time>
      </trkpt>
      <trkpt lat="47.23587" lon="7.6875">
        <ele>426.8</ele>
        <time>2022-10-01T12:44:21Z</time>
      </trkpt>
      <trkpt lat="47.23586" lon="7.68755">
        <ele>426.9</ele>
        <time>2022-10-01T12:44:22Z</time>
      </trkpt>
      <trkpt lat="47.23586" lon="7.68759">
        <ele>427.1</ele>
        <time>2022-10-01T12:44:23Z</time>
      </trkpt>
      <trkpt lat="47.23586" lon="7.68764">
        <ele>427.2</ele>
        <time>2022-10-01T12:44:24Z</time>
      </trkpt>
      <trkpt lat="47.23586" lon="7.68769">
        <ele>427.4</ele>
        <time>2022-10-01T12:44:25Z</time>
      </trkpt>
      <trkpt lat="47.23585" lon="7.68775">
        <ele>427.6</ele>
        <time>2022-10-01T12:44:26Z</time>
      </trkpt>
      <trkpt lat="47.23585" lon="7.68779">
        <ele>427.8</ele>
        <time>2022-10-01T12:44:27Z</time>
      </trkpt>
      <trkpt lat="47.23586" lon="7.68784">
        <ele>428</ele>
        <time>2022-10-01T12:44:28Z</time>
      </trkpt>
      <trkpt lat="47.23586" lon="7.68789">
        <ele>428.1</ele>
        <time>2022-10-01T12:44:29Z</time>
      </trkpt>
      <trkpt lat="47.23586" lon="7.68793">
        <ele>428.3</ele>
        <time>2022-10-01T12:44:30Z</time>
      </trkpt>
      <trkpt lat="47.23586" lon="7.68798">
        <ele>428.5</ele>
        <time>2022-10-01T12:44:31Z</time>
      </trkpt>
      <trkpt lat="47.23585" lon="7.68804">
        <ele>428.7</ele>
        <time>2022-10-01T12:44:32Z</time>
      </trkpt>
      <trkpt lat="47.23586" lon="7.6881">
        <ele>428.9</ele>
        <time>2022-10-01T12:44:33Z</time>
      </trkpt>
      <trkpt lat="47.23585" lon="7.68813">
        <ele>429</ele>
        <time>2022-10-01T12:44:34Z</time>
      </trkpt>
      <trkpt lat="47.23586" lon="7.68819">
        <ele>429.2</ele>
        <time>2022-10-01T12:44:35Z</time>
      </trkpt>
      <trkpt lat="47.23586" lon="7.68821">
        <ele>429.3</ele>
        <time>2022-10-01T12:44:36Z</time>
      </trkpt>
      <trkpt lat="47.23586" lon="7.68825">
        <ele>429.4</ele>
        <time>2022-10-01T12:44:37Z</time>
      </trkpt>
      <trkpt lat="47.23586" lon="7.68831">
        <ele>429.6</ele>
        <time>2022-10-01T12:44:38Z</time>
      </trkpt>
      <trkpt lat="47.23586" lon="7.68836">
        <ele>429.8</ele>
        <time>2022-10-01T12:44:39Z</time>
      </trkpt>
      <trkpt lat="47.23586" lon="7.68839">
        <ele>429.9</ele>
        <time>2022-10-01T12:44:40Z</time>
      </trkpt>
      <trkpt lat="47.23586" lon="7.68843">
        <ele>430.1</ele>
        <time>2022-10-01T12:44:41Z</time>
      </trkpt>
      <trkpt lat="47.23586" lon="7.68848">
        <ele>430.3</ele>
        <time>2022-10-01T12:44:42Z</time>
      </trkpt>
      <trkpt lat="47.23585" lon="7.68853">
        <ele>430.4</ele>
        <time>2022-10-01T12:44:43Z</time>
      </trkpt>
      <trkpt lat="47.23586" lon="7.68856">
        <ele>430.6</ele>
        <time>2022-10-01T12:44:44Z</time>
      </trkpt>
      <trkpt lat="47.23586" lon="7.68861">
        <ele>430.7</ele>
        <time>2022-10-01T12:44:45Z</time>
      </trkpt>
      <trkpt lat="47.23586" lon="7.68865">
        <ele>430.9</ele>
        <time>2022-10-01T12:44:46Z</time>
      </trkpt>
      <trkpt lat="47.23586" lon="7.68869">
        <ele>431.1</ele>
        <time>2022-10-01T12:44:47Z</time>
      </trkpt>
      <trkpt lat="47.23585" lon="7.68874">
        <ele>431.2</ele>
        <time>2022-10-01T12:44:48Z</time>
      </trkpt>
      <trkpt lat="47.23585" lon="7.68878">
        <ele>431.4</ele>
        <time>2022-10-01T12:44:49Z</time>
      </trkpt>
      <trkpt lat="47.23585" lon="7.68881">
        <ele>431.5</ele>
        <time>2022-10-01T12:44:50Z</time>
      </trkpt>
      <trkpt lat="47.23585" lon="7.68886">
        <ele>431.7</ele>
        <time>2022-10-01T12:44:52Z</time>
      </trkpt>
      <trkpt lat="47.23585" lon="7.6889">
        <ele>431.8</ele>
        <time>2022-10-01T12:44:53Z</time>
      </trkpt>
      <trkpt lat="47.23586" lon="7.68896">
        <ele>432</ele>
        <time>2022-10-01T12:44:54Z</time>
      </trkpt>
      <trkpt lat="47.23586" lon="7.68898">
        <ele>432.1</ele>
        <time>2022-10-01T12:44:55Z</time>
      </trkpt>
      <trkpt lat="47.23586" lon="7.68902">
        <ele>432.2</ele>
        <time>2022-10-01T12:44:56Z</time>
      </trkpt>
      <trkpt lat="47.23586" lon="7.68908">
        <ele>432.4</ele>
        <time>2022-10-01T12:44:57Z</time>
      </trkpt>
      <trkpt lat="47.23586" lon="7.6891">
        <ele>432.5</ele>
        <time>2022-10-01T12:44:58Z</time>
      </trkpt>
      <trkpt lat="47.23586" lon="7.68915">
        <ele>432.7</ele>
        <time>2022-10-01T12:44:59Z</time>
      </trkpt>
      <trkpt lat="47.23587" lon="7.68919">
        <ele>432.8</ele>
        <time>2022-10-01T12:45:00Z</time>
      </trkpt>
      <trkpt lat="47.23587" lon="7.68923">
        <ele>432.9</ele>
        <time>2022-10-01T12:45:01Z</time>
      </trkpt>
      <trkpt lat="47.23588" lon="7.68928">
        <ele>433</ele>
        <time>2022-10-01T12:45:02Z</time>
      </trkpt>
      <trkpt lat="47.23588" lon="7.68932">
        <ele>433.1</ele>
        <time>2022-10-01T12:45:03Z</time>
      </trkpt>
      <trkpt lat="47.23588" lon="7.68941">
        <ele>433.2</ele>
        <time>2022-10-01T12:45:04Z</time>
      </trkpt>
      <trkpt lat="47.23589" lon="7.68945">
        <ele>433.3</ele>
        <time>2022-10-01T12:45:05Z</time>
      </trkpt>
      <trkpt lat="47.23589" lon="7.6895">
        <ele>433.3</ele>
        <time>2022-10-01T12:45:06Z</time>
      </trkpt>
      <trkpt lat="47.23589" lon="7.68959">
        <ele>433.5</ele>
        <time>2022-10-01T12:45:08Z</time>
      </trkpt>
      <trkpt lat="47.2359" lon="7.68963">
        <ele>433.5</ele>
        <time>2022-10-01T12:45:09Z</time>
      </trkpt>
      <trkpt lat="47.2359" lon="7.68967">
        <ele>433.6</ele>
        <time>2022-10-01T12:45:10Z</time>
      </trkpt>
      <trkpt lat="47.2359" lon="7.68971">
        <ele>433.7</ele>
        <time>2022-10-01T12:45:11Z</time>
      </trkpt>
      <trkpt lat="47.2359" lon="7.68976">
        <ele>433.7</ele>
        <time>2022-10-01T12:45:12Z</time>
      </trkpt>
      <trkpt lat="47.2359" lon="7.6898">
        <ele>433.8</ele>
        <time>2022-10-01T12:45:13Z</time>
      </trkpt>
      <trkpt lat="47.23592" lon="7.68985">
        <ele>433.8</ele>
        <time>2022-10-01T12:45:14Z</time>
      </trkpt>
      <trkpt lat="47.23592" lon="7.68991">
        <ele>433.8</ele>
        <time>2022-10-01T12:45:15Z</time>
      </trkpt>
      <trkpt lat="47.23591" lon="7.68996">
        <ele>433.9</ele>
        <time>2022-10-01T12:45:16Z</time>
      </trkpt>
      <trkpt lat="47.23591" lon="7.69002">
        <ele>433.9</ele>
        <time>2022-10-01T12:45:17Z</time>
      </trkpt>
      <trkpt lat="47.23592" lon="7.69008">
        <ele>433.9</ele>
        <time>2022-10-01T12:45:18Z</time>
      </trkpt>
      <trkpt lat="47.23592" lon="7.69015">
        <ele>433.9</ele>
        <time>2022-10-01T12:45:19Z</time>
      </trkpt>
      <trkpt lat="47.23592" lon="7.69022">
        <ele>433.9</ele>
        <time>2022-10-01T12:45:20Z</time>
      </trkpt>
      <trkpt lat="47.23593" lon="7.69028">
        <ele>433.9</ele>
        <time>2022-10-01T12:45:21Z</time>
      </trkpt>
      <trkpt lat="47.23593" lon="7.69035">
        <ele>433.9</ele>
        <time>2022-10-01T12:45:22Z</time>
      </trkpt>
      <trkpt lat="47.23594" lon="7.69041">
        <ele>433.9</ele>
        <time>2022-10-01T12:45:23Z</time>
      </trkpt>
      <trkpt lat="47.23594" lon="7.69049">
        <ele>433.9</ele>
        <time>2022-10-01T12:45:24Z</time>
      </trkpt>
      <trkpt lat="47.23595" lon="7.69055">
        <ele>433.9</ele>
        <time>2022-10-01T12:45:25Z</time>
      </trkpt>
      <trkpt lat="47.23595" lon="7.69063">
        <ele>433.9</ele>
        <time>2022-10-01T12:45:26Z</time>
      </trkpt>
      <trkpt lat="47.23596" lon="7.6907">
        <ele>433.9</ele>
        <time>2022-10-01T12:45:27Z</time>
      </trkpt>
      <trkpt lat="47.23596" lon="7.69077">
        <ele>433.9</ele>
        <time>2022-10-01T12:45:28Z</time>
      </trkpt>
      <trkpt lat="47.23596" lon="7.69084">
        <ele>433.9</ele>
        <time>2022-10-01T12:45:29Z</time>
      </trkpt>
      <trkpt lat="47.23597" lon="7.69091">
        <ele>433.9</ele>
        <time>2022-10-01T12:45:30Z</time>
      </trkpt>
      <trkpt lat="47.23597" lon="7.69098">
        <ele>433.9</ele>
        <time>2022-10-01T12:45:31Z</time>
      </trkpt>
      <trkpt lat="47.23598" lon="7.69105">
        <ele>433.9</ele>
        <time>2022-10-01T12:45:32Z</time>
      </trkpt>
      <trkpt lat="47.23598" lon="7.69112">
        <ele>433.9</ele>
        <time>2022-10-01T12:45:33Z</time>
      </trkpt>
      <trkpt lat="47.23598" lon="7.69118">
        <ele>433.9</ele>
        <time>2022-10-01T12:45:34Z</time>
      </trkpt>
      <trkpt lat="47.23599" lon="7.69124">
        <ele>433.9</ele>
        <time>2022-10-01T12:45:35Z</time>
      </trkpt>
      <trkpt lat="47.236" lon="7.69131">
        <ele>433.8</ele>
        <time>2022-10-01T12:45:36Z</time>
      </trkpt>
      <trkpt lat="47.236" lon="7.69138">
        <ele>433.8</ele>
        <time>2022-10-01T12:45:37Z</time>
      </trkpt>
      <trkpt lat="47.236" lon="7.69146">
        <ele>433.7</ele>
        <time>2022-10-01T12:45:38Z</time>
      </trkpt>
      <trkpt lat="47.236" lon="7.69154">
        <ele>433.7</ele>
        <time>2022-10-01T12:45:39Z</time>
      </trkpt>
      <trkpt lat="47.236" lon="7.69162">
        <ele>433.6</ele>
        <time>2022-10-01T12:45:40Z</time>
      </trkpt>
      <trkpt lat="47.23599" lon="7.69171">
        <ele>433.6</ele>
        <time>2022-10-01T12:45:41Z</time>
      </trkpt>
      <trkpt lat="47.23598" lon="7.69179">
        <ele>433.4</ele>
        <time>2022-10-01T12:45:42Z</time>
      </trkpt>
      <trkpt lat="47.23597" lon="7.69187">
        <ele>433.1</ele>
        <time>2022-10-01T12:45:43Z</time>
      </trkpt>
      <trkpt lat="47.23597" lon="7.69196">
        <ele>432.9</ele>
        <time>2022-10-01T12:45:44Z</time>
      </trkpt>
      <trkpt lat="47.23595" lon="7.69205">
        <ele>432.6</ele>
        <time>2022-10-01T12:45:45Z</time>
      </trkpt>
      <trkpt lat="47.23594" lon="7.69215">
        <ele>432.3</ele>
        <time>2022-10-01T12:45:46Z</time>
      </trkpt>
      <trkpt lat="47.23593" lon="7.69225">
        <ele>432</ele>
        <time>2022-10-01T12:45:47Z</time>
      </trkpt>
      <trkpt lat="47.23592" lon="7.69235">
        <ele>431.7</ele>
        <time>2022-10-01T12:45:48Z</time>
      </trkpt>
      <trkpt lat="47.23591" lon="7.69245">
        <ele>431.3</ele>
        <time>2022-10-01T12:45:49Z</time>
      </trkpt>
      <trkpt lat="47.23589" lon="7.69256">
        <ele>431</ele>
        <time>2022-10-01T12:45:50Z</time>
      </trkpt>
      <trkpt lat="47.23588" lon="7.69266">
        <ele>430.7</ele>
        <time>2022-10-01T12:45:51Z</time>
      </trkpt>
      <trkpt lat="47.23586" lon="7.69277">
        <ele>430.3</ele>
        <time>2022-10-01T12:45:52Z</time>
      </trkpt>
      <trkpt lat="47.23585" lon="7.69287">
        <ele>430</ele>
        <time>2022-10-01T12:45:53Z</time>
      </trkpt>
      <trkpt lat="47.23582" lon="7.69297">
        <ele>429.6</ele>
        <time>2022-10-01T12:45:54Z</time>
      </trkpt>
      <trkpt lat="47.23579" lon="7.69306">
        <ele>429.3</ele>
        <time>2022-10-01T12:45:55Z</time>
      </trkpt>
      <trkpt lat="47.23576" lon="7.69316">
        <ele>429</ele>
        <time>2022-10-01T12:45:56Z</time>
      </trkpt>
      <trkpt lat="47.23574" lon="7.69325">
        <ele>428.7</ele>
        <time>2022-10-01T12:45:57Z</time>
      </trkpt>
      <trkpt lat="47.2357" lon="7.69336">
        <ele>428.3</ele>
        <time>2022-10-01T12:45:58Z</time>
      </trkpt>
      <trkpt lat="47.23566" lon="7.69345">
        <ele>428</ele>
        <time>2022-10-01T12:45:59Z</time>
      </trkpt>
      <trkpt lat="47.23563" lon="7.69355">
        <ele>427.7</ele>
        <time>2022-10-01T12:46:00Z</time>
      </trkpt>
      <trkpt lat="47.2356" lon="7.69365">
        <ele>427.3</ele>
        <time>2022-10-01T12:46:01Z</time>
      </trkpt>
      <trkpt lat="47.23556" lon="7.69376">
        <ele>427</ele>
        <time>2022-10-01T12:46:02Z</time>
      </trkpt>
      <trkpt lat="47.23552" lon="7.69386">
        <ele>426.7</ele>
        <time>2022-10-01T12:46:03Z</time>
      </trkpt>
      <trkpt lat="47.23549" lon="7.69397">
        <ele>426.3</ele>
        <time>2022-10-01T12:46:04Z</time>
      </trkpt>
      <trkpt lat="47.23545" lon="7.69407">
        <ele>425.9</ele>
        <time>2022-10-01T12:46:05Z</time>
      </trkpt>
      <trkpt lat="47.23541" lon="7.69418">
        <ele>425.6</ele>
        <time>2022-10-01T12:46:06Z</time>
      </trkpt>
      <trkpt lat="47.23537" lon="7.69429">
        <ele>425.2</ele>
        <time>2022-10-01T12:46:07Z</time>
      </trkpt>
      <trkpt lat="47.23533" lon="7.6944">
        <ele>424.8</ele>
        <time>2022-10-01T12:46:08Z</time>
      </trkpt>
      <trkpt lat="47.23529" lon="7.69451">
        <ele>424.5</ele>
        <time>2022-10-01T12:46:09Z</time>
      </trkpt>
      <trkpt lat="47.23525" lon="7.69462">
        <ele>424.2</ele>
        <time>2022-10-01T12:46:10Z</time>
      </trkpt>
      <trkpt lat="47.23522" lon="7.69474">
        <ele>423.9</ele>
        <time>2022-10-01T12:46:11Z</time>
      </trkpt>
      <trkpt lat="47.23518" lon="7.69485">
        <ele>423.6</ele>
        <time>2022-10-01T12:46:12Z</time>
      </trkpt>
      <trkpt lat="47.23515" lon="7.69496">
        <ele>423.3</ele>
        <time>2022-10-01T12:46:13Z</time>
      </trkpt>
      <trkpt lat="47.23512" lon="7.69508">
        <ele>423.1</ele>
        <time>2022-10-01T12:46:14Z</time>
      </trkpt>
      <trkpt lat="47.2351" lon="7.6952">
        <ele>422.8</ele>
        <time>2022-10-01T12:46:15Z</time>
      </trkpt>
      <trkpt lat="47.23508" lon="7.69532">
        <ele>422.5</ele>
        <time>2022-10-01T12:46:16Z</time>
      </trkpt>
      <trkpt lat="47.23506" lon="7.69545">
        <ele>422.3</ele>
        <time>2022-10-01T12:46:17Z</time>
      </trkpt>
      <trkpt lat="47.23505" lon="7.69557">
        <ele>422.1</ele>
        <time>2022-10-01T12:46:18Z</time>
      </trkpt>
      <trkpt lat="47.23504" lon="7.6957">
        <ele>421.9</ele>
        <time>2022-10-01T12:46:19Z</time>
      </trkpt>
      <trkpt lat="47.23503" lon="7.69582">
        <ele>421.8</ele>
        <time>2022-10-01T12:46:20Z</time>
      </trkpt>
      <trkpt lat="47.23502" lon="7.69594">
        <ele>421.7</ele>
        <time>2022-10-01T12:46:21Z</time>
      </trkpt>
      <trkpt lat="47.23501" lon="7.69605">
        <ele>421.6</ele>
        <time>2022-10-01T12:46:22Z</time>
      </trkpt>
      <trkpt lat="47.235" lon="7.69617">
        <ele>421.6</ele>
        <time>2022-10-01T12:46:23Z</time>
      </trkpt>
      <trkpt lat="47.23499" lon="7.69629">
        <ele>421.5</ele>
        <time>2022-10-01T12:46:24Z</time>
      </trkpt>
      <trkpt lat="47.23498" lon="7.6964">
        <ele>421.5</ele>
        <time>2022-10-01T12:46:25Z</time>
      </trkpt>
      <trkpt lat="47.23497" lon="7.69651">
        <ele>421.4</ele>
        <time>2022-10-01T12:46:26Z</time>
      </trkpt>
      <trkpt lat="47.23496" lon="7.69662">
        <ele>421.3</ele>
        <time>2022-10-01T12:46:27Z</time>
      </trkpt>
      <trkpt lat="47.23494" lon="7.69673">
        <ele>421.3</ele>
        <time>2022-10-01T12:46:28Z</time>
      </trkpt>
      <trkpt lat="47.23493" lon="7.69684">
        <ele>421.3</ele>
        <time>2022-10-01T12:46:29Z</time>
      </trkpt>
      <trkpt lat="47.23492" lon="7.69695">
        <ele>421.3</ele>
        <time>2022-10-01T12:46:30Z</time>
      </trkpt>
      <trkpt lat="47.23491" lon="7.69705">
        <ele>421.3</ele>
        <time>2022-10-01T12:46:31Z</time>
      </trkpt>
      <trkpt lat="47.2349" lon="7.69716">
        <ele>421.4</ele>
        <time>2022-10-01T12:46:32Z</time>
      </trkpt>
      <trkpt lat="47.23488" lon="7.69727">
        <ele>421.4</ele>
        <time>2022-10-01T12:46:33Z</time>
      </trkpt>
      <trkpt lat="47.23487" lon="7.69737">
        <ele>421.5</ele>
        <time>2022-10-01T12:46:34Z</time>
      </trkpt>
      <trkpt lat="47.23486" lon="7.69747">
        <ele>421.5</ele>
        <time>2022-10-01T12:46:35Z</time>
      </trkpt>
      <trkpt lat="47.23484" lon="7.69757">
        <ele>421.6</ele>
        <time>2022-10-01T12:46:36Z</time>
      </trkpt>
      <trkpt lat="47.23483" lon="7.69767">
        <ele>421.6</ele>
        <time>2022-10-01T12:46:37Z</time>
      </trkpt>
      <trkpt lat="47.23482" lon="7.69777">
        <ele>421.7</ele>
        <time>2022-10-01T12:46:38Z</time>
      </trkpt>
      <trkpt lat="47.2348" lon="7.69786">
        <ele>421.7</ele>
        <time>2022-10-01T12:46:39Z</time>
      </trkpt>
      <trkpt lat="47.23478" lon="7.69795">
        <ele>421.8</ele>
        <time>2022-10-01T12:46:40Z</time>
      </trkpt>
      <trkpt lat="47.23477" lon="7.69803">
        <ele>421.9</ele>
        <time>2022-10-01T12:46:41Z</time>
      </trkpt>
      <trkpt lat="47.23475" lon="7.69812">
        <ele>421.9</ele>
        <time>2022-10-01T12:46:42Z</time>
      </trkpt>
      <trkpt lat="47.23474" lon="7.6982">
        <ele>422</ele>
        <time>2022-10-01T12:46:43Z</time>
      </trkpt>
      <trkpt lat="47.23474" lon="7.69829">
        <ele>422</ele>
        <time>2022-10-01T12:46:44Z</time>
      </trkpt>
      <trkpt lat="47.23473" lon="7.69837">
        <ele>422</ele>
        <time>2022-10-01T12:46:45Z</time>
      </trkpt>
      <trkpt lat="47.23472" lon="7.69844">
        <ele>422</ele>
        <time>2022-10-01T12:46:46Z</time>
      </trkpt>
      <trkpt lat="47.23471" lon="7.69851">
        <ele>422</ele>
        <time>2022-10-01T12:46:47Z</time>
      </trkpt>
      <trkpt lat="47.23471" lon="7.69856">
        <ele>422</ele>
        <time>2022-10-01T12:46:48Z</time>
      </trkpt>
      <trkpt lat="47.2347" lon="7.6986">
        <ele>422</ele>
        <time>2022-10-01T12:46:49Z</time>
      </trkpt>
      <trkpt lat="47.2347" lon="7.69863">
        <ele>422</ele>
        <time>2022-10-01T12:46:50Z</time>
      </trkpt>
      <trkpt lat="47.2347" lon="7.69864">
        <ele>422</ele>
        <time>2022-10-01T12:46:51Z</time>
      </trkpt>
      <trkpt lat="47.2347" lon="7.69865">
        <ele>422</ele>
        <time>2022-10-01T12:46:52Z</time>
      </trkpt>
      <trkpt lat="47.2347" lon="7.69866">
        <ele>422</ele>
        <time>2022-10-01T12:46:53Z</time>
      </trkpt>
      <trkpt lat="47.23471" lon="7.69867">
        <ele>422</ele>
        <time>2022-10-01T12:46:54Z</time>
      </trkpt>
      <trkpt lat="47.23471" lon="7.69868">
        <ele>422</ele>
        <time>2022-10-01T12:46:55Z</time>
      </trkpt>
      <trkpt lat="47.23471" lon="7.69869">
        <ele>422</ele>
        <time>2022-10-01T12:46:56Z</time>
      </trkpt>
      <trkpt lat="47.23471" lon="7.6987">
        <ele>422</ele>
        <time>2022-10-01T12:46:58Z</time>
      </trkpt>
      <trkpt lat="47.23471" lon="7.69871">
        <ele>422</ele>
        <time>2022-10-01T12:46:59Z</time>
      </trkpt>
      <trkpt lat="47.23471" lon="7.69872">
        <ele>422</ele>
        <time>2022-10-01T12:47:00Z</time>
      </trkpt>
      <trkpt lat="47.23472" lon="7.69872">
        <ele>422</ele>
        <time>2022-10-01T12:47:36Z</time>
      </trkpt>
      <trkpt lat="47.23472" lon="7.69873">
        <ele>422</ele>
        <time>2022-10-01T12:47:37Z</time>
      </trkpt>
      <trkpt lat="47.23472" lon="7.69877">
        <ele>422</ele>
        <time>2022-10-01T12:47:38Z</time>
      </trkpt>
      <trkpt lat="47.23473" lon="7.69882">
        <ele>422</ele>
        <time>2022-10-01T12:47:39Z</time>
      </trkpt>
      <trkpt lat="47.23472" lon="7.69886">
        <ele>422</ele>
        <time>2022-10-01T12:47:40Z</time>
      </trkpt>
      <trkpt lat="47.23472" lon="7.69892">
        <ele>422</ele>
        <time>2022-10-01T12:47:41Z</time>
      </trkpt>
      <trkpt lat="47.23471" lon="7.69898">
        <ele>422</ele>
        <time>2022-10-01T12:47:42Z</time>
      </trkpt>
      <trkpt lat="47.23471" lon="7.69904">
        <ele>422</ele>
        <time>2022-10-01T12:47:43Z</time>
      </trkpt>
      <trkpt lat="47.2347" lon="7.6991">
        <ele>422</ele>
        <time>2022-10-01T12:47:44Z</time>
      </trkpt>
      <trkpt lat="47.2347" lon="7.69917">
        <ele>422</ele>
        <time>2022-10-01T12:47:45Z</time>
      </trkpt>
      <trkpt lat="47.2347" lon="7.69924">
        <ele>422</ele>
        <time>2022-10-01T12:47:46Z</time>
      </trkpt>
      <trkpt lat="47.2347" lon="7.69931">
        <ele>422.1</ele>
        <time>2022-10-01T12:47:47Z</time>
      </trkpt>
      <trkpt lat="47.2347" lon="7.69938">
        <ele>422.1</ele>
        <time>2022-10-01T12:47:48Z</time>
      </trkpt>
      <trkpt lat="47.2347" lon="7.69946">
        <ele>422.1</ele>
        <time>2022-10-01T12:47:49Z</time>
      </trkpt>
      <trkpt lat="47.2347" lon="7.69953">
        <ele>422.1</ele>
        <time>2022-10-01T12:47:50Z</time>
      </trkpt>
      <trkpt lat="47.23469" lon="7.6996">
        <ele>422.1</ele>
        <time>2022-10-01T12:47:51Z</time>
      </trkpt>
      <trkpt lat="47.23469" lon="7.69966">
        <ele>422.1</ele>
        <time>2022-10-01T12:47:52Z</time>
      </trkpt>
      <trkpt lat="47.23469" lon="7.69973">
        <ele>422.1</ele>
        <time>2022-10-01T12:47:53Z</time>
      </trkpt>
      <trkpt lat="47.23469" lon="7.6998">
        <ele>422.1</ele>
        <time>2022-10-01T12:47:54Z</time>
      </trkpt>
      <trkpt lat="47.23469" lon="7.69987">
        <ele>422.2</ele>
        <time>2022-10-01T12:47:55Z</time>
      </trkpt>
      <trkpt lat="47.23469" lon="7.69996">
        <ele>422.2</ele>
        <time>2022-10-01T12:47:56Z</time>
      </trkpt>
      <trkpt lat="47.23469" lon="7.70003">
        <ele>422.2</ele>
        <time>2022-10-01T12:47:57Z</time>
      </trkpt>
      <trkpt lat="47.23469" lon="7.70011">
        <ele>422.2</ele>
        <time>2022-10-01T12:47:58Z</time>
      </trkpt>
      <trkpt lat="47.23468" lon="7.70018">
        <ele>422.2</ele>
        <time>2022-10-01T12:47:59Z</time>
      </trkpt>
      <trkpt lat="47.23468" lon="7.70027">
        <ele>422.2</ele>
        <time>2022-10-01T12:48:00Z</time>
      </trkpt>
      <trkpt lat="47.23467" lon="7.70035">
        <ele>422.2</ele>
        <time>2022-10-01T12:48:01Z</time>
      </trkpt>
      <trkpt lat="47.23466" lon="7.70043">
        <ele>422.2</ele>
        <time>2022-10-01T12:48:02Z</time>
      </trkpt>
      <trkpt lat="47.23464" lon="7.7005">
        <ele>422.2</ele>
        <time>2022-10-01T12:48:03Z</time>
      </trkpt>
      <trkpt lat="47.23462" lon="7.70059">
        <ele>422.2</ele>
        <time>2022-10-01T12:48:04Z</time>
      </trkpt>
      <trkpt lat="47.2346" lon="7.70067">
        <ele>422.2</ele>
        <time>2022-10-01T12:48:05Z</time>
      </trkpt>
      <trkpt lat="47.23458" lon="7.70075">
        <ele>422.2</ele>
        <time>2022-10-01T12:48:06Z</time>
      </trkpt>
      <trkpt lat="47.23455" lon="7.70083">
        <ele>422.2</ele>
        <time>2022-10-01T12:48:07Z</time>
      </trkpt>
      <trkpt lat="47.23452" lon="7.70091">
        <ele>422.2</ele>
        <time>2022-10-01T12:48:08Z</time>
      </trkpt>
      <trkpt lat="47.23449" lon="7.70098">
        <ele>422.2</ele>
        <time>2022-10-01T12:48:09Z</time>
      </trkpt>
      <trkpt lat="47.23446" lon="7.70106">
        <ele>422.2</ele>
        <time>2022-10-01T12:48:10Z</time>
      </trkpt>
      <trkpt lat="47.23443" lon="7.70113">
        <ele>422.1</ele>
        <time>2022-10-01T12:48:11Z</time>
      </trkpt>
      <trkpt lat="47.2344" lon="7.7012">
        <ele>422.1</ele>
        <time>2022-10-01T12:48:12Z</time>
      </trkpt>
      <trkpt lat="47.23437" lon="7.70128">
        <ele>422.1</ele>
        <time>2022-10-01T12:48:13Z</time>
      </trkpt>
      <trkpt lat="47.23434" lon="7.70135">
        <ele>422.1</ele>
        <time>2022-10-01T12:48:14Z</time>
      </trkpt>
      <trkpt lat="47.23431" lon="7.70143">
        <ele>422.1</ele>
        <time>2022-10-01T12:48:15Z</time>
      </trkpt>
      <trkpt lat="47.23428" lon="7.70151">
        <ele>422.1</ele>
        <time>2022-10-01T12:48:16Z</time>
      </trkpt>
      <trkpt lat="47.23424" lon="7.70159">
        <ele>422.1</ele>
        <time>2022-10-01T12:48:17Z</time>
      </trkpt>
      <trkpt lat="47.23421" lon="7.70167">
        <ele>422.1</ele>
        <time>2022-10-01T12:48:18Z</time>
      </trkpt>
      <trkpt lat="47.23418" lon="7.70175">
        <ele>422.1</ele>
        <time>2022-10-01T12:48:19Z</time>
      </trkpt>
      <trkpt lat="47.23415" lon="7.70183">
        <ele>422.1</ele>
        <time>2022-10-01T12:48:20Z</time>
      </trkpt>
      <trkpt lat="47.23412" lon="7.70191">
        <ele>422.1</ele>
        <time>2022-10-01T12:48:21Z</time>
      </trkpt>
      <trkpt lat="47.23408" lon="7.702">
        <ele>422.1</ele>
        <time>2022-10-01T12:48:22Z</time>
      </trkpt>
      <trkpt lat="47.23405" lon="7.70208">
        <ele>422.1</ele>
        <time>2022-10-01T12:48:23Z</time>
      </trkpt>
      <trkpt lat="47.23402" lon="7.70217">
        <ele>422.1</ele>
        <time>2022-10-01T12:48:24Z</time>
      </trkpt>
      <trkpt lat="47.23399" lon="7.70225">
        <ele>422.1</ele>
        <time>2022-10-01T12:48:25Z</time>
      </trkpt>
      <trkpt lat="47.23396" lon="7.70234">
        <ele>422.1</ele>
        <time>2022-10-01T12:48:26Z</time>
      </trkpt>
      <trkpt lat="47.23393" lon="7.70243">
        <ele>422.1</ele>
        <time>2022-10-01T12:48:27Z</time>
      </trkpt>
      <trkpt lat="47.23389" lon="7.70251">
        <ele>422.1</ele>
        <time>2022-10-01T12:48:28Z</time>
      </trkpt>
      <trkpt lat="47.23386" lon="7.70259">
        <ele>422.1</ele>
        <time>2022-10-01T12:48:29Z</time>
      </trkpt>
      <trkpt lat="47.23383" lon="7.70268">
        <ele>422.1</ele>
        <time>2022-10-01T12:48:30Z</time>
      </trkpt>
      <trkpt lat="47.2338" lon="7.70276">
        <ele>422.2</ele>
        <time>2022-10-01T12:48:31Z</time>
      </trkpt>
      <trkpt lat="47.23376" lon="7.70284">
        <ele>422.2</ele>
        <time>2022-10-01T12:48:32Z</time>
      </trkpt>
      <trkpt lat="47.23373" lon="7.70292">
        <ele>422.2</ele>
        <time>2022-10-01T12:48:33Z</time>
      </trkpt>
      <trkpt lat="47.2337" lon="7.70301">
        <ele>422.3</ele>
        <time>2022-10-01T12:48:34Z</time>
      </trkpt>
      <trkpt lat="47.23367" lon="7.70309">
        <ele>422.4</ele>
        <time>2022-10-01T12:48:35Z</time>
      </trkpt>
      <trkpt lat="47.23364" lon="7.70317">
        <ele>422.4</ele>
        <time>2022-10-01T12:48:36Z</time>
      </trkpt>
      <trkpt lat="47.23361" lon="7.70325">
        <ele>422.5</ele>
        <time>2022-10-01T12:48:37Z</time>
      </trkpt>
      <trkpt lat="47.23359" lon="7.70332">
        <ele>422.5</ele>
        <time>2022-10-01T12:48:38Z</time>
      </trkpt>
      <trkpt lat="47.23356" lon="7.70341">
        <ele>422.5</ele>
        <time>2022-10-01T12:48:39Z</time>
      </trkpt>
      <trkpt lat="47.23353" lon="7.7035">
        <ele>422.6</ele>
        <time>2022-10-01T12:48:40Z</time>
      </trkpt>
      <trkpt lat="47.2335" lon="7.70358">
        <ele>422.6</ele>
        <time>2022-10-01T12:48:41Z</time>
      </trkpt>
      <trkpt lat="47.23347" lon="7.70366">
        <ele>422.7</ele>
        <time>2022-10-01T12:48:42Z</time>
      </trkpt>
      <trkpt lat="47.23343" lon="7.70373">
        <ele>422.7</ele>
        <time>2022-10-01T12:48:43Z</time>
      </trkpt>
      <trkpt lat="47.23341" lon="7.70381">
        <ele>422.8</ele>
        <time>2022-10-01T12:48:44Z</time>
      </trkpt>
      <trkpt lat="47.23338" lon="7.7039">
        <ele>422.8</ele>
        <time>2022-10-01T12:48:45Z</time>
      </trkpt>
      <trkpt lat="47.23335" lon="7.70398">
        <ele>422.9</ele>
        <time>2022-10-01T12:48:46Z</time>
      </trkpt>
      <trkpt lat="47.23333" lon="7.70406">
        <ele>422.9</ele>
        <time>2022-10-01T12:48:47Z</time>
      </trkpt>
      <trkpt lat="47.2333" lon="7.70415">
        <ele>422.9</ele>
        <time>2022-10-01T12:48:48Z</time>
      </trkpt>
      <trkpt lat="47.23327" lon="7.70424">
        <ele>423</ele>
        <time>2022-10-01T12:48:49Z</time>
      </trkpt>
      <trkpt lat="47.23325" lon="7.70432">
        <ele>423.1</ele>
        <time>2022-10-01T12:48:50Z</time>
      </trkpt>
      <trkpt lat="47.23322" lon="7.70441">
        <ele>423.1</ele>
        <time>2022-10-01T12:48:51Z</time>
      </trkpt>
      <trkpt lat="47.23319" lon="7.7045">
        <ele>423.2</ele>
        <time>2022-10-01T12:48:52Z</time>
      </trkpt>
      <trkpt lat="47.23317" lon="7.70458">
        <ele>423.2</ele>
        <time>2022-10-01T12:48:53Z</time>
      </trkpt>
      <trkpt lat="47.23314" lon="7.70467">
        <ele>423.3</ele>
        <time>2022-10-01T12:48:54Z</time>
      </trkpt>
      <trkpt lat="47.23311" lon="7.70475">
        <ele>423.3</ele>
        <time>2022-10-01T12:48:55Z</time>
      </trkpt>
      <trkpt lat="47.23309" lon="7.70484">
        <ele>423.4</ele>
        <time>2022-10-01T12:48:56Z</time>
      </trkpt>
      <trkpt lat="47.23306" lon="7.70492">
        <ele>423.4</ele>
        <time>2022-10-01T12:48:57Z</time>
      </trkpt>
      <trkpt lat="47.23304" lon="7.705">
        <ele>423.5</ele>
        <time>2022-10-01T12:48:58Z</time>
      </trkpt>
      <trkpt lat="47.23302" lon="7.70509">
        <ele>423.5</ele>
        <time>2022-10-01T12:48:59Z</time>
      </trkpt>
      <trkpt lat="47.23299" lon="7.70518">
        <ele>423.5</ele>
        <time>2022-10-01T12:49:00Z</time>
      </trkpt>
      <trkpt lat="47.23297" lon="7.70527">
        <ele>423.5</ele>
        <time>2022-10-01T12:49:01Z</time>
      </trkpt>
      <trkpt lat="47.23295" lon="7.70536">
        <ele>423.5</ele>
        <time>2022-10-01T12:49:02Z</time>
      </trkpt>
      <trkpt lat="47.23294" lon="7.70546">
        <ele>423.6</ele>
        <time>2022-10-01T12:49:04Z</time>
      </trkpt>
      <trkpt lat="47.23292" lon="7.70556">
        <ele>423.6</ele>
        <time>2022-10-01T12:49:05Z</time>
      </trkpt>
      <trkpt lat="47.23291" lon="7.70565">
        <ele>423.6</ele>
        <time>2022-10-01T12:49:06Z</time>
      </trkpt>
      <trkpt lat="47.23289" lon="7.70575">
        <ele>423.6</ele>
        <time>2022-10-01T12:49:07Z</time>
      </trkpt>
      <trkpt lat="47.23287" lon="7.70584">
        <ele>423.6</ele>
        <time>2022-10-01T12:49:08Z</time>
      </trkpt>
      <trkpt lat="47.23285" lon="7.70593">
        <ele>423.6</ele>
        <time>2022-10-01T12:49:09Z</time>
      </trkpt>
      <trkpt lat="47.23283" lon="7.70603">
        <ele>423.7</ele>
        <time>2022-10-01T12:49:10Z</time>
      </trkpt>
      <trkpt lat="47.23281" lon="7.70612">
        <ele>423.7</ele>
        <time>2022-10-01T12:49:11Z</time>
      </trkpt>
      <trkpt lat="47.23279" lon="7.7062">
        <ele>423.7</ele>
        <time>2022-10-01T12:49:12Z</time>
      </trkpt>
      <trkpt lat="47.23277" lon="7.70629">
        <ele>423.7</ele>
        <time>2022-10-01T12:49:13Z</time>
      </trkpt>
      <trkpt lat="47.23274" lon="7.70638">
        <ele>423.8</ele>
        <time>2022-10-01T12:49:14Z</time>
      </trkpt>
      <trkpt lat="47.23272" lon="7.70646">
        <ele>423.8</ele>
        <time>2022-10-01T12:49:15Z</time>
      </trkpt>
      <trkpt lat="47.2327" lon="7.70653">
        <ele>423.9</ele>
        <time>2022-10-01T12:49:16Z</time>
      </trkpt>
      <trkpt lat="47.23267" lon="7.70661">
        <ele>423.9</ele>
        <time>2022-10-01T12:49:17Z</time>
      </trkpt>
      <trkpt lat="47.23265" lon="7.70669">
        <ele>424</ele>
        <time>2022-10-01T12:49:18Z</time>
      </trkpt>
      <trkpt lat="47.23262" lon="7.70675">
        <ele>424.1</ele>
        <time>2022-10-01T12:49:19Z</time>
      </trkpt>
      <trkpt lat="47.2326" lon="7.70682">
        <ele>424.2</ele>
        <time>2022-10-01T12:49:20Z</time>
      </trkpt>
      <trkpt lat="47.23258" lon="7.70687">
        <ele>424.3</ele>
        <time>2022-10-01T12:49:21Z</time>
      </trkpt>
      <trkpt lat="47.23255" lon="7.7069">
        <ele>424.3</ele>
        <time>2022-10-01T12:49:22Z</time>
      </trkpt>
      <trkpt lat="47.23252" lon="7.70693">
        <ele>424.3</ele>
        <time>2022-10-01T12:49:23Z</time>
      </trkpt>
      <trkpt lat="47.23249" lon="7.70693">
        <ele>424.2</ele>
        <time>2022-10-01T12:49:24Z</time>
      </trkpt>
      <trkpt lat="47.2324" lon="7.70692">
        <ele>424</ele>
        <time>2022-10-01T12:49:25Z</time>
      </trkpt>
      <trkpt lat="47.23236" lon="7.7069">
        <ele>423.9</ele>
        <time>2022-10-01T12:49:26Z</time>
      </trkpt>
      <trkpt lat="47.23231" lon="7.70686">
        <ele>423.8</ele>
        <time>2022-10-01T12:49:27Z</time>
      </trkpt>
      <trkpt lat="47.23226" lon="7.70684">
        <ele>423.6</ele>
        <time>2022-10-01T12:49:28Z</time>
      </trkpt>
      <trkpt lat="47.2322" lon="7.70682">
        <ele>423.5</ele>
        <time>2022-10-01T12:49:29Z</time>
      </trkpt>
      <trkpt lat="47.23215" lon="7.7068">
        <ele>423.4</ele>
        <time>2022-10-01T12:49:30Z</time>
      </trkpt>
      <trkpt lat="47.23209" lon="7.70678">
        <ele>423.3</ele>
        <time>2022-10-01T12:49:31Z</time>
      </trkpt>
      <trkpt lat="47.23203" lon="7.70675">
        <ele>423.1</ele>
        <time>2022-10-01T12:49:32Z</time>
      </trkpt>
      <trkpt lat="47.23198" lon="7.70672">
        <ele>422.9</ele>
        <time>2022-10-01T12:49:33Z</time>
      </trkpt>
      <trkpt lat="47.23191" lon="7.70669">
        <ele>422.7</ele>
        <time>2022-10-01T12:49:34Z</time>
      </trkpt>
      <trkpt lat="47.23186" lon="7.70667">
        <ele>422.5</ele>
        <time>2022-10-01T12:49:35Z</time>
      </trkpt>
      <trkpt lat="47.2318" lon="7.70664">
        <ele>422.3</ele>
        <time>2022-10-01T12:49:36Z</time>
      </trkpt>
      <trkpt lat="47.23174" lon="7.70662">
        <ele>422.1</ele>
        <time>2022-10-01T12:49:37Z</time>
      </trkpt>
      <trkpt lat="47.23168" lon="7.70659">
        <ele>422</ele>
        <time>2022-10-01T12:49:38Z</time>
      </trkpt>
      <trkpt lat="47.23163" lon="7.70656">
        <ele>422.1</ele>
        <time>2022-10-01T12:49:39Z</time>
      </trkpt>
      <trkpt lat="47.23158" lon="7.70654">
        <ele>422.1</ele>
        <time>2022-10-01T12:49:40Z</time>
      </trkpt>
      <trkpt lat="47.23152" lon="7.70651">
        <ele>422.1</ele>
        <time>2022-10-01T12:49:41Z</time>
      </trkpt>
      <trkpt lat="47.23147" lon="7.70648">
        <ele>422.1</ele>
        <time>2022-10-01T12:49:42Z</time>
      </trkpt>
      <trkpt lat="47.23142" lon="7.70646">
        <ele>422.1</ele>
        <time>2022-10-01T12:49:43Z</time>
      </trkpt>
      <trkpt lat="47.23136" lon="7.70643">
        <ele>422</ele>
        <time>2022-10-01T12:49:44Z</time>
      </trkpt>
      <trkpt lat="47.23131" lon="7.70641">
        <ele>421.9</ele>
        <time>2022-10-01T12:49:45Z</time>
      </trkpt>
      <trkpt lat="47.23125" lon="7.70639">
        <ele>421.9</ele>
        <time>2022-10-01T12:49:46Z</time>
      </trkpt>
      <trkpt lat="47.2312" lon="7.70637">
        <ele>421.8</ele>
        <time>2022-10-01T12:49:47Z</time>
      </trkpt>
      <trkpt lat="47.23114" lon="7.70634">
        <ele>421.7</ele>
        <time>2022-10-01T12:49:48Z</time>
      </trkpt>
      <trkpt lat="47.23109" lon="7.70631">
        <ele>421.7</ele>
        <time>2022-10-01T12:49:49Z</time>
      </trkpt>
      <trkpt lat="47.23103" lon="7.70629">
        <ele>421.6</ele>
        <time>2022-10-01T12:49:50Z</time>
      </trkpt>
      <trkpt lat="47.23098" lon="7.70626">
        <ele>421.5</ele>
        <time>2022-10-01T12:49:51Z</time>
      </trkpt>
      <trkpt lat="47.23093" lon="7.70624">
        <ele>421.5</ele>
        <time>2022-10-01T12:49:52Z</time>
      </trkpt>
      <trkpt lat="47.23088" lon="7.70622">
        <ele>421.4</ele>
        <time>2022-10-01T12:49:53Z</time>
      </trkpt>
      <trkpt lat="47.23083" lon="7.7062">
        <ele>421.4</ele>
        <time>2022-10-01T12:49:54Z</time>
      </trkpt>
      <trkpt lat="47.23078" lon="7.70618">
        <ele>421.3</ele>
        <time>2022-10-01T12:49:55Z</time>
      </trkpt>
      <trkpt lat="47.23074" lon="7.70616">
        <ele>421.3</ele>
        <time>2022-10-01T12:49:56Z</time>
      </trkpt>
      <trkpt lat="47.2307" lon="7.70614">
        <ele>421.2</ele>
        <time>2022-10-01T12:49:57Z</time>
      </trkpt>
      <trkpt lat="47.23066" lon="7.70612">
        <ele>421.2</ele>
        <time>2022-10-01T12:49:58Z</time>
      </trkpt>
      <trkpt lat="47.23063" lon="7.70611">
        <ele>421.1</ele>
        <time>2022-10-01T12:49:59Z</time>
      </trkpt>
      <trkpt lat="47.2306" lon="7.7061">
        <ele>421.1</ele>
        <time>2022-10-01T12:50:00Z</time>
      </trkpt>
      <trkpt lat="47.23058" lon="7.7061">
        <ele>421.1</ele>
        <time>2022-10-01T12:50:01Z</time>
      </trkpt>
      <trkpt lat="47.23055" lon="7.70612">
        <ele>420.9</ele>
        <time>2022-10-01T12:50:02Z</time>
      </trkpt>
      <trkpt lat="47.23052" lon="7.70615">
        <ele>420.9</ele>
        <time>2022-10-01T12:50:03Z</time>
      </trkpt>
      <trkpt lat="47.2305" lon="7.70619">
        <ele>420.8</ele>
        <time>2022-10-01T12:50:04Z</time>
      </trkpt>
      <trkpt lat="47.23047" lon="7.70625">
        <ele>420.8</ele>
        <time>2022-10-01T12:50:05Z</time>
      </trkpt>
      <trkpt lat="47.23045" lon="7.70631">
        <ele>420.7</ele>
        <time>2022-10-01T12:50:06Z</time>
      </trkpt>
      <trkpt lat="47.23043" lon="7.70637">
        <ele>420.7</ele>
        <time>2022-10-01T12:50:07Z</time>
      </trkpt>
      <trkpt lat="47.23041" lon="7.70644">
        <ele>420.6</ele>
        <time>2022-10-01T12:50:08Z</time>
      </trkpt>
      <trkpt lat="47.23038" lon="7.70651">
        <ele>420.5</ele>
        <time>2022-10-01T12:50:09Z</time>
      </trkpt>
      <trkpt lat="47.23036" lon="7.70659">
        <ele>420.5</ele>
        <time>2022-10-01T12:50:10Z</time>
      </trkpt>
      <trkpt lat="47.23033" lon="7.70667">
        <ele>420.4</ele>
        <time>2022-10-01T12:50:11Z</time>
      </trkpt>
      <trkpt lat="47.2303" lon="7.70674">
        <ele>420.4</ele>
        <time>2022-10-01T12:50:12Z</time>
      </trkpt>
      <trkpt lat="47.23027" lon="7.70681">
        <ele>420.3</ele>
        <time>2022-10-01T12:50:13Z</time>
      </trkpt>
      <trkpt lat="47.23023" lon="7.70689">
        <ele>420.3</ele>
        <time>2022-10-01T12:50:14Z</time>
      </trkpt>
      <trkpt lat="47.23019" lon="7.70697">
        <ele>420.2</ele>
        <time>2022-10-01T12:50:15Z</time>
      </trkpt>
      <trkpt lat="47.23016" lon="7.70705">
        <ele>420.2</ele>
        <time>2022-10-01T12:50:16Z</time>
      </trkpt>
      <trkpt lat="47.23012" lon="7.70713">
        <ele>420.1</ele>
        <time>2022-10-01T12:50:17Z</time>
      </trkpt>
      <trkpt lat="47.23008" lon="7.70722">
        <ele>420.1</ele>
        <time>2022-10-01T12:50:18Z</time>
      </trkpt>
      <trkpt lat="47.23004" lon="7.70729">
        <ele>420.1</ele>
        <time>2022-10-01T12:50:19Z</time>
      </trkpt>
      <trkpt lat="47.23" lon="7.70737">
        <ele>420.1</ele>
        <time>2022-10-01T12:50:20Z</time>
      </trkpt>
      <trkpt lat="47.22995" lon="7.70745">
        <ele>420.1</ele>
        <time>2022-10-01T12:50:21Z</time>
      </trkpt>
      <trkpt lat="47.2299" lon="7.70753">
        <ele>420.1</ele>
        <time>2022-10-01T12:50:22Z</time>
      </trkpt>
      <trkpt lat="47.22985" lon="7.7076">
        <ele>420.1</ele>
        <time>2022-10-01T12:50:23Z</time>
      </trkpt>
      <trkpt lat="47.2298" lon="7.70767">
        <ele>420.1</ele>
        <time>2022-10-01T12:50:24Z</time>
      </trkpt>
      <trkpt lat="47.22976" lon="7.70775">
        <ele>420.1</ele>
        <time>2022-10-01T12:50:25Z</time>
      </trkpt>
      <trkpt lat="47.22972" lon="7.70782">
        <ele>420.1</ele>
        <time>2022-10-01T12:50:26Z</time>
      </trkpt>
      <trkpt lat="47.22967" lon="7.7079">
        <ele>420.1</ele>
        <time>2022-10-01T12:50:27Z</time>
      </trkpt>
      <trkpt lat="47.22962" lon="7.70796">
        <ele>420.1</ele>
        <time>2022-10-01T12:50:28Z</time>
      </trkpt>
      <trkpt lat="47.22958" lon="7.70804">
        <ele>420.1</ele>
        <time>2022-10-01T12:50:29Z</time>
      </trkpt>
      <trkpt lat="47.22953" lon="7.70811">
        <ele>420.2</ele>
        <time>2022-10-01T12:50:30Z</time>
      </trkpt>
      <trkpt lat="47.22948" lon="7.70817">
        <ele>420.2</ele>
        <time>2022-10-01T12:50:31Z</time>
      </trkpt>
      <trkpt lat="47.22944" lon="7.70824">
        <ele>420.2</ele>
        <time>2022-10-01T12:50:32Z</time>
      </trkpt>
      <trkpt lat="47.22939" lon="7.7083">
        <ele>420.2</ele>
        <time>2022-10-01T12:50:33Z</time>
      </trkpt>
      <trkpt lat="47.22934" lon="7.70836">
        <ele>420.2</ele>
        <time>2022-10-01T12:50:34Z</time>
      </trkpt>
      <trkpt lat="47.22929" lon="7.70842">
        <ele>420.2</ele>
        <time>2022-10-01T12:50:35Z</time>
      </trkpt>
      <trkpt lat="47.22923" lon="7.70847">
        <ele>420.2</ele>
        <time>2022-10-01T12:50:36Z</time>
      </trkpt>
      <trkpt lat="47.22918" lon="7.70851">
        <ele>420.2</ele>
        <time>2022-10-01T12:50:37Z</time>
      </trkpt>
      <trkpt lat="47.22913" lon="7.70855">
        <ele>420.2</ele>
        <time>2022-10-01T12:50:38Z</time>
      </trkpt>
      <trkpt lat="47.22907" lon="7.70859">
        <ele>420.2</ele>
        <time>2022-10-01T12:50:39Z</time>
      </trkpt>
      <trkpt lat="47.22902" lon="7.70863">
        <ele>420.3</ele>
        <time>2022-10-01T12:50:40Z</time>
      </trkpt>
      <trkpt lat="47.22896" lon="7.70867">
        <ele>420.3</ele>
        <time>2022-10-01T12:50:41Z</time>
      </trkpt>
      <trkpt lat="47.22891" lon="7.70872">
        <ele>420.3</ele>
        <time>2022-10-01T12:50:42Z</time>
      </trkpt>
      <trkpt lat="47.22886" lon="7.70875">
        <ele>420.3</ele>
        <time>2022-10-01T12:50:43Z</time>
      </trkpt>
      <trkpt lat="47.2288" lon="7.7088">
        <ele>420.2</ele>
        <time>2022-10-01T12:50:44Z</time>
      </trkpt>
      <trkpt lat="47.22875" lon="7.70885">
        <ele>420.2</ele>
        <time>2022-10-01T12:50:45Z</time>
      </trkpt>
      <trkpt lat="47.22869" lon="7.70888">
        <ele>420.2</ele>
        <time>2022-10-01T12:50:46Z</time>
      </trkpt>
      <trkpt lat="47.22864" lon="7.70893">
        <ele>420.2</ele>
        <time>2022-10-01T12:50:47Z</time>
      </trkpt>
      <trkpt lat="47.22858" lon="7.70898">
        <ele>420.3</ele>
        <time>2022-10-01T12:50:48Z</time>
      </trkpt>
      <trkpt lat="47.22853" lon="7.70902">
        <ele>420.3</ele>
        <time>2022-10-01T12:50:49Z</time>
      </trkpt>
      <trkpt lat="47.22847" lon="7.70907">
        <ele>420.2</ele>
        <time>2022-10-01T12:50:50Z</time>
      </trkpt>
      <trkpt lat="47.22842" lon="7.70911">
        <ele>420.2</ele>
        <time>2022-10-01T12:50:51Z</time>
      </trkpt>
      <trkpt lat="47.22836" lon="7.70915">
        <ele>420.2</ele>
        <time>2022-10-01T12:50:52Z</time>
      </trkpt>
      <trkpt lat="47.2283" lon="7.7092">
        <ele>420.2</ele>
        <time>2022-10-01T12:50:53Z</time>
      </trkpt>
      <trkpt lat="47.22824" lon="7.70925">
        <ele>420.2</ele>
        <time>2022-10-01T12:50:54Z</time>
      </trkpt>
      <trkpt lat="47.22819" lon="7.7093">
        <ele>420.2</ele>
        <time>2022-10-01T12:50:55Z</time>
      </trkpt>
      <trkpt lat="47.22813" lon="7.70934">
        <ele>420.2</ele>
        <time>2022-10-01T12:50:56Z</time>
      </trkpt>
      <trkpt lat="47.22808" lon="7.70939">
        <ele>420.2</ele>
        <time>2022-10-01T12:50:57Z</time>
      </trkpt>
      <trkpt lat="47.22802" lon="7.70943">
        <ele>420.2</ele>
        <time>2022-10-01T12:50:58Z</time>
      </trkpt>
      <trkpt lat="47.22797" lon="7.70948">
        <ele>420.2</ele>
        <time>2022-10-01T12:50:59Z</time>
      </trkpt>
      <trkpt lat="47.22791" lon="7.70952">
        <ele>420.2</ele>
        <time>2022-10-01T12:51:00Z</time>
      </trkpt>
      <trkpt lat="47.22786" lon="7.70957">
        <ele>420.2</ele>
        <time>2022-10-01T12:51:01Z</time>
      </trkpt>
      <trkpt lat="47.22781" lon="7.70963">
        <ele>420.2</ele>
        <time>2022-10-01T12:51:02Z</time>
      </trkpt>
      <trkpt lat="47.22777" lon="7.7097">
        <ele>420.2</ele>
        <time>2022-10-01T12:51:03Z</time>
      </trkpt>
      <trkpt lat="47.22772" lon="7.70976">
        <ele>420.2</ele>
        <time>2022-10-01T12:51:04Z</time>
      </trkpt>
      <trkpt lat="47.22768" lon="7.70983">
        <ele>420.1</ele>
        <time>2022-10-01T12:51:05Z</time>
      </trkpt>
      <trkpt lat="47.22763" lon="7.7099">
        <ele>420.1</ele>
        <time>2022-10-01T12:51:06Z</time>
      </trkpt>
      <trkpt lat="47.22759" lon="7.70997">
        <ele>420.1</ele>
        <time>2022-10-01T12:51:07Z</time>
      </trkpt>
      <trkpt lat="47.22756" lon="7.71005">
        <ele>420.1</ele>
        <time>2022-10-01T12:51:08Z</time>
      </trkpt>
      <trkpt lat="47.22752" lon="7.71013">
        <ele>420.1</ele>
        <time>2022-10-01T12:51:09Z</time>
      </trkpt>
      <trkpt lat="47.2275" lon="7.71021">
        <ele>420</ele>
        <time>2022-10-01T12:51:10Z</time>
      </trkpt>
      <trkpt lat="47.22747" lon="7.71029">
        <ele>420</ele>
        <time>2022-10-01T12:51:11Z</time>
      </trkpt>
      <trkpt lat="47.22744" lon="7.71037">
        <ele>420</ele>
        <time>2022-10-01T12:51:12Z</time>
      </trkpt>
      <trkpt lat="47.22742" lon="7.71045">
        <ele>420</ele>
        <time>2022-10-01T12:51:13Z</time>
      </trkpt>
      <trkpt lat="47.22741" lon="7.71054">
        <ele>420</ele>
        <time>2022-10-01T12:51:14Z</time>
      </trkpt>
      <trkpt lat="47.22739" lon="7.71062">
        <ele>420.1</ele>
        <time>2022-10-01T12:51:15Z</time>
      </trkpt>
      <trkpt lat="47.22738" lon="7.71071">
        <ele>420.1</ele>
        <time>2022-10-01T12:51:16Z</time>
      </trkpt>
      <trkpt lat="47.22737" lon="7.71081">
        <ele>420.1</ele>
        <time>2022-10-01T12:51:17Z</time>
      </trkpt>
      <trkpt lat="47.22737" lon="7.7109">
        <ele>420.1</ele>
        <time>2022-10-01T12:51:18Z</time>
      </trkpt>
      <trkpt lat="47.22736" lon="7.711">
        <ele>420</ele>
        <time>2022-10-01T12:51:19Z</time>
      </trkpt>
      <trkpt lat="47.22735" lon="7.7111">
        <ele>420</ele>
        <time>2022-10-01T12:51:20Z</time>
      </trkpt>
      <trkpt lat="47.22735" lon="7.71119">
        <ele>419.9</ele>
        <time>2022-10-01T12:51:21Z</time>
      </trkpt>
      <trkpt lat="47.22735" lon="7.71129">
        <ele>419.9</ele>
        <time>2022-10-01T12:51:22Z</time>
      </trkpt>
      <trkpt lat="47.22734" lon="7.71139">
        <ele>419.9</ele>
        <time>2022-10-01T12:51:23Z</time>
      </trkpt>
      <trkpt lat="47.22733" lon="7.71148">
        <ele>419.8</ele>
        <time>2022-10-01T12:51:24Z</time>
      </trkpt>
      <trkpt lat="47.22732" lon="7.71158">
        <ele>419.8</ele>
        <time>2022-10-01T12:51:25Z</time>
      </trkpt>
      <trkpt lat="47.22731" lon="7.71168">
        <ele>419.7</ele>
        <time>2022-10-01T12:51:26Z</time>
      </trkpt>
      <trkpt lat="47.2273" lon="7.71178">
        <ele>419.7</ele>
        <time>2022-10-01T12:51:27Z</time>
      </trkpt>
      <trkpt lat="47.22728" lon="7.71188">
        <ele>419.7</ele>
        <time>2022-10-01T12:51:28Z</time>
      </trkpt>
      <trkpt lat="47.22727" lon="7.71198">
        <ele>419.6</ele>
        <time>2022-10-01T12:51:29Z</time>
      </trkpt>
      <trkpt lat="47.22726" lon="7.71208">
        <ele>419.6</ele>
        <time>2022-10-01T12:51:30Z</time>
      </trkpt>
      <trkpt lat="47.22724" lon="7.71218">
        <ele>419.6</ele>
        <time>2022-10-01T12:51:31Z</time>
      </trkpt>
      <trkpt lat="47.22722" lon="7.71228">
        <ele>419.5</ele>
        <time>2022-10-01T12:51:32Z</time>
      </trkpt>
      <trkpt lat="47.2272" lon="7.71238">
        <ele>419.5</ele>
        <time>2022-10-01T12:51:33Z</time>
      </trkpt>
      <trkpt lat="47.22719" lon="7.71248">
        <ele>419.4</ele>
        <time>2022-10-01T12:51:34Z</time>
      </trkpt>
      <trkpt lat="47.22717" lon="7.71258">
        <ele>419.4</ele>
        <time>2022-10-01T12:51:35Z</time>
      </trkpt>
      <trkpt lat="47.22715" lon="7.71268">
        <ele>419.3</ele>
        <time>2022-10-01T12:51:36Z</time>
      </trkpt>
      <trkpt lat="47.22713" lon="7.71278">
        <ele>419.3</ele>
        <time>2022-10-01T12:51:37Z</time>
      </trkpt>
      <trkpt lat="47.22711" lon="7.71289">
        <ele>419.2</ele>
        <time>2022-10-01T12:51:38Z</time>
      </trkpt>
      <trkpt lat="47.22709" lon="7.71299">
        <ele>419.2</ele>
        <time>2022-10-01T12:51:39Z</time>
      </trkpt>
      <trkpt lat="47.22707" lon="7.71309">
        <ele>419.1</ele>
        <time>2022-10-01T12:51:40Z</time>
      </trkpt>
      <trkpt lat="47.22705" lon="7.7132">
        <ele>419.1</ele>
        <time>2022-10-01T12:51:41Z</time>
      </trkpt>
      <trkpt lat="47.22702" lon="7.7133">
        <ele>419.1</ele>
        <time>2022-10-01T12:51:42Z</time>
      </trkpt>
      <trkpt lat="47.227" lon="7.7134">
        <ele>419.1</ele>
        <time>2022-10-01T12:51:43Z</time>
      </trkpt>
      <trkpt lat="47.22697" lon="7.71349">
        <ele>419.2</ele>
        <time>2022-10-01T12:51:44Z</time>
      </trkpt>
      <trkpt lat="47.22694" lon="7.71359">
        <ele>419.2</ele>
        <time>2022-10-01T12:51:45Z</time>
      </trkpt>
      <trkpt lat="47.22691" lon="7.71368">
        <ele>419.2</ele>
        <time>2022-10-01T12:51:46Z</time>
      </trkpt>
      <trkpt lat="47.22688" lon="7.71377">
        <ele>419.2</ele>
        <time>2022-10-01T12:51:47Z</time>
      </trkpt>
      <trkpt lat="47.22685" lon="7.71386">
        <ele>419.2</ele>
        <time>2022-10-01T12:51:48Z</time>
      </trkpt>
      <trkpt lat="47.22682" lon="7.71396">
        <ele>419.2</ele>
        <time>2022-10-01T12:51:49Z</time>
      </trkpt>
      <trkpt lat="47.22679" lon="7.71405">
        <ele>419.1</ele>
        <time>2022-10-01T12:51:50Z</time>
      </trkpt>
      <trkpt lat="47.22676" lon="7.71414">
        <ele>419.1</ele>
        <time>2022-10-01T12:51:51Z</time>
      </trkpt>
      <trkpt lat="47.22673" lon="7.71423">
        <ele>419.1</ele>
        <time>2022-10-01T12:51:52Z</time>
      </trkpt>
      <trkpt lat="47.22671" lon="7.71432">
        <ele>419.1</ele>
        <time>2022-10-01T12:51:53Z</time>
      </trkpt>
      <trkpt lat="47.22668" lon="7.71441">
        <ele>419.1</ele>
        <time>2022-10-01T12:51:54Z</time>
      </trkpt>
      <trkpt lat="47.22665" lon="7.7145">
        <ele>419.1</ele>
        <time>2022-10-01T12:51:55Z</time>
      </trkpt>
      <trkpt lat="47.22663" lon="7.7146">
        <ele>419.1</ele>
        <time>2022-10-01T12:51:56Z</time>
      </trkpt>
      <trkpt lat="47.22661" lon="7.71469">
        <ele>419.1</ele>
        <time>2022-10-01T12:51:57Z</time>
      </trkpt>
      <trkpt lat="47.22659" lon="7.71478">
        <ele>419</ele>
        <time>2022-10-01T12:51:58Z</time>
      </trkpt>
      <trkpt lat="47.22656" lon="7.71488">
        <ele>419</ele>
        <time>2022-10-01T12:51:59Z</time>
      </trkpt>
      <trkpt lat="47.22654" lon="7.71497">
        <ele>419</ele>
        <time>2022-10-01T12:52:00Z</time>
      </trkpt>
      <trkpt lat="47.22651" lon="7.71506">
        <ele>419</ele>
        <time>2022-10-01T12:52:01Z</time>
      </trkpt>
      <trkpt lat="47.22648" lon="7.71515">
        <ele>419</ele>
        <time>2022-10-01T12:52:02Z</time>
      </trkpt>
      <trkpt lat="47.22645" lon="7.71524">
        <ele>418.9</ele>
        <time>2022-10-01T12:52:03Z</time>
      </trkpt>
      <trkpt lat="47.22641" lon="7.71533">
        <ele>418.9</ele>
        <time>2022-10-01T12:52:04Z</time>
      </trkpt>
      <trkpt lat="47.22638" lon="7.71541">
        <ele>418.9</ele>
        <time>2022-10-01T12:52:05Z</time>
      </trkpt>
      <trkpt lat="47.22635" lon="7.7155">
        <ele>418.9</ele>
        <time>2022-10-01T12:52:06Z</time>
      </trkpt>
      <trkpt lat="47.22631" lon="7.71558">
        <ele>418.9</ele>
        <time>2022-10-01T12:52:07Z</time>
      </trkpt>
      <trkpt lat="47.22628" lon="7.71566">
        <ele>418.9</ele>
        <time>2022-10-01T12:52:08Z</time>
      </trkpt>
      <trkpt lat="47.22624" lon="7.71575">
        <ele>418.9</ele>
        <time>2022-10-01T12:52:09Z</time>
      </trkpt>
      <trkpt lat="47.22621" lon="7.71583">
        <ele>418.9</ele>
        <time>2022-10-01T12:52:10Z</time>
      </trkpt>
      <trkpt lat="47.22617" lon="7.71592">
        <ele>418.9</ele>
        <time>2022-10-01T12:52:11Z</time>
      </trkpt>
      <trkpt lat="47.22613" lon="7.71601">
        <ele>418.9</ele>
        <time>2022-10-01T12:52:12Z</time>
      </trkpt>
      <trkpt lat="47.2261" lon="7.71611">
        <ele>418.9</ele>
        <time>2022-10-01T12:52:13Z</time>
      </trkpt>
      <trkpt lat="47.22606" lon="7.7162">
        <ele>418.9</ele>
        <time>2022-10-01T12:52:14Z</time>
      </trkpt>
      <trkpt lat="47.22603" lon="7.71629">
        <ele>418.8</ele>
        <time>2022-10-01T12:52:15Z</time>
      </trkpt>
      <trkpt lat="47.22599" lon="7.71638">
        <ele>418.8</ele>
        <time>2022-10-01T12:52:16Z</time>
      </trkpt>
      <trkpt lat="47.22595" lon="7.71647">
        <ele>418.8</ele>
        <time>2022-10-01T12:52:17Z</time>
      </trkpt>
      <trkpt lat="47.22591" lon="7.71656">
        <ele>418.8</ele>
        <time>2022-10-01T12:52:18Z</time>
      </trkpt>
      <trkpt lat="47.22588" lon="7.71665">
        <ele>418.8</ele>
        <time>2022-10-01T12:52:19Z</time>
      </trkpt>
      <trkpt lat="47.22584" lon="7.71674">
        <ele>418.8</ele>
        <time>2022-10-01T12:52:20Z</time>
      </trkpt>
      <trkpt lat="47.22581" lon="7.71683">
        <ele>418.8</ele>
        <time>2022-10-01T12:52:21Z</time>
      </trkpt>
      <trkpt lat="47.22578" lon="7.71693">
        <ele>418.8</ele>
        <time>2022-10-01T12:52:22Z</time>
      </trkpt>
      <trkpt lat="47.22574" lon="7.71702">
        <ele>418.8</ele>
        <time>2022-10-01T12:52:23Z</time>
      </trkpt>
      <trkpt lat="47.2257" lon="7.7171">
        <ele>418.8</ele>
        <time>2022-10-01T12:52:24Z</time>
      </trkpt>
      <trkpt lat="47.22567" lon="7.71719">
        <ele>418.8</ele>
        <time>2022-10-01T12:52:25Z</time>
      </trkpt>
      <trkpt lat="47.22564" lon="7.71728">
        <ele>418.9</ele>
        <time>2022-10-01T12:52:26Z</time>
      </trkpt>
      <trkpt lat="47.2256" lon="7.71736">
        <ele>418.9</ele>
        <time>2022-10-01T12:52:27Z</time>
      </trkpt>
      <trkpt lat="47.22556" lon="7.71744">
        <ele>418.9</ele>
        <time>2022-10-01T12:52:28Z</time>
      </trkpt>
      <trkpt lat="47.22553" lon="7.71753">
        <ele>419</ele>
        <time>2022-10-01T12:52:29Z</time>
      </trkpt>
      <trkpt lat="47.22549" lon="7.71761">
        <ele>419</ele>
        <time>2022-10-01T12:52:30Z</time>
      </trkpt>
      <trkpt lat="47.22545" lon="7.71768">
        <ele>419</ele>
        <time>2022-10-01T12:52:31Z</time>
      </trkpt>
      <trkpt lat="47.22541" lon="7.71776">
        <ele>419</ele>
        <time>2022-10-01T12:52:32Z</time>
      </trkpt>
      <trkpt lat="47.22536" lon="7.71783">
        <ele>419.1</ele>
        <time>2022-10-01T12:52:33Z</time>
      </trkpt>
      <trkpt lat="47.22532" lon="7.71791">
        <ele>419.1</ele>
        <time>2022-10-01T12:52:34Z</time>
      </trkpt>
      <trkpt lat="47.22528" lon="7.71798">
        <ele>419.1</ele>
        <time>2022-10-01T12:52:35Z</time>
      </trkpt>
      <trkpt lat="47.22524" lon="7.71804">
        <ele>419.1</ele>
        <time>2022-10-01T12:52:36Z</time>
      </trkpt>
      <trkpt lat="47.2252" lon="7.7181">
        <ele>419.2</ele>
        <time>2022-10-01T12:52:37Z</time>
      </trkpt>
      <trkpt lat="47.22515" lon="7.71816">
        <ele>419.2</ele>
        <time>2022-10-01T12:52:38Z</time>
      </trkpt>
      <trkpt lat="47.2251" lon="7.71822">
        <ele>419.2</ele>
        <time>2022-10-01T12:52:39Z</time>
      </trkpt>
      <trkpt lat="47.22506" lon="7.71827">
        <ele>419.3</ele>
        <time>2022-10-01T12:52:40Z</time>
      </trkpt>
      <trkpt lat="47.22501" lon="7.71833">
        <ele>419.3</ele>
        <time>2022-10-01T12:52:41Z</time>
      </trkpt>
      <trkpt lat="47.22496" lon="7.71837">
        <ele>419.3</ele>
        <time>2022-10-01T12:52:42Z</time>
      </trkpt>
      <trkpt lat="47.22491" lon="7.7184">
        <ele>419.3</ele>
        <time>2022-10-01T12:52:43Z</time>
      </trkpt>
      <trkpt lat="47.22487" lon="7.71844">
        <ele>419.4</ele>
        <time>2022-10-01T12:52:44Z</time>
      </trkpt>
      <trkpt lat="47.22482" lon="7.71849">
        <ele>419.4</ele>
        <time>2022-10-01T12:52:45Z</time>
      </trkpt>
      <trkpt lat="47.22477" lon="7.71853">
        <ele>419.4</ele>
        <time>2022-10-01T12:52:46Z</time>
      </trkpt>
      <trkpt lat="47.22472" lon="7.71857">
        <ele>419.4</ele>
        <time>2022-10-01T12:52:47Z</time>
      </trkpt>
      <trkpt lat="47.22466" lon="7.71861">
        <ele>419.5</ele>
        <time>2022-10-01T12:52:48Z</time>
      </trkpt>
      <trkpt lat="47.22461" lon="7.71865">
        <ele>419.5</ele>
        <time>2022-10-01T12:52:49Z</time>
      </trkpt>
      <trkpt lat="47.22456" lon="7.71868">
        <ele>419.5</ele>
        <time>2022-10-01T12:52:50Z</time>
      </trkpt>
      <trkpt lat="47.22451" lon="7.71871">
        <ele>419.6</ele>
        <time>2022-10-01T12:52:51Z</time>
      </trkpt>
      <trkpt lat="47.22446" lon="7.71874">
        <ele>419.6</ele>
        <time>2022-10-01T12:52:52Z</time>
      </trkpt>
      <trkpt lat="47.22441" lon="7.71877">
        <ele>419.7</ele>
        <time>2022-10-01T12:52:53Z</time>
      </trkpt>
      <trkpt lat="47.22436" lon="7.71881">
        <ele>419.8</ele>
        <time>2022-10-01T12:52:54Z</time>
      </trkpt>
      <trkpt lat="47.22431" lon="7.71884">
        <ele>419.8</ele>
        <time>2022-10-01T12:52:55Z</time>
      </trkpt>
      <trkpt lat="47.22426" lon="7.71887">
        <ele>419.8</ele>
        <time>2022-10-01T12:52:56Z</time>
      </trkpt>
      <trkpt lat="47.22422" lon="7.7189">
        <ele>419.9</ele>
        <time>2022-10-01T12:52:57Z</time>
      </trkpt>
      <trkpt lat="47.22418" lon="7.71893">
        <ele>420</ele>
        <time>2022-10-01T12:52:58Z</time>
      </trkpt>
      <trkpt lat="47.22414" lon="7.71896">
        <ele>420</ele>
        <time>2022-10-01T12:52:59Z</time>
      </trkpt>
      <trkpt lat="47.2241" lon="7.71899">
        <ele>420.1</ele>
        <time>2022-10-01T12:53:00Z</time>
      </trkpt>
      <trkpt lat="47.22406" lon="7.71902">
        <ele>420.2</ele>
        <time>2022-10-01T12:53:01Z</time>
      </trkpt>
      <trkpt lat="47.22402" lon="7.71905">
        <ele>420.3</ele>
        <time>2022-10-01T12:53:02Z</time>
      </trkpt>
      <trkpt lat="47.22399" lon="7.71908">
        <ele>420.4</ele>
        <time>2022-10-01T12:53:03Z</time>
      </trkpt>
      <trkpt lat="47.22395" lon="7.7191">
        <ele>420.4</ele>
        <time>2022-10-01T12:53:04Z</time>
      </trkpt>
      <trkpt lat="47.22392" lon="7.71913">
        <ele>420.5</ele>
        <time>2022-10-01T12:53:05Z</time>
      </trkpt>
      <trkpt lat="47.22389" lon="7.71916">
        <ele>420.6</ele>
        <time>2022-10-01T12:53:06Z</time>
      </trkpt>
      <trkpt lat="47.22386" lon="7.7192">
        <ele>420.7</ele>
        <time>2022-10-01T12:53:07Z</time>
      </trkpt>
      <trkpt lat="47.22384" lon="7.71924">
        <ele>420.8</ele>
        <time>2022-10-01T12:53:08Z</time>
      </trkpt>
      <trkpt lat="47.22382" lon="7.71929">
        <ele>420.8</ele>
        <time>2022-10-01T12:53:09Z</time>
      </trkpt>
      <trkpt lat="47.22381" lon="7.71936">
        <ele>420.8</ele>
        <time>2022-10-01T12:53:10Z</time>
      </trkpt>
      <trkpt lat="47.2238" lon="7.71943">
        <ele>420.9</ele>
        <time>2022-10-01T12:53:11Z</time>
      </trkpt>
      <trkpt lat="47.22379" lon="7.71949">
        <ele>420.9</ele>
        <time>2022-10-01T12:53:12Z</time>
      </trkpt>
      <trkpt lat="47.22378" lon="7.71956">
        <ele>420.9</ele>
        <time>2022-10-01T12:53:13Z</time>
      </trkpt>
      <trkpt lat="47.22377" lon="7.71962">
        <ele>420.9</ele>
        <time>2022-10-01T12:53:14Z</time>
      </trkpt>
      <trkpt lat="47.22377" lon="7.71968">
        <ele>420.9</ele>
        <time>2022-10-01T12:53:15Z</time>
      </trkpt>
      <trkpt lat="47.22376" lon="7.71973">
        <ele>420.9</ele>
        <time>2022-10-01T12:53:16Z</time>
      </trkpt>
      <trkpt lat="47.22377" lon="7.71978">
        <ele>420.9</ele>
        <time>2022-10-01T12:53:17Z</time>
      </trkpt>
      <trkpt lat="47.22378" lon="7.71982">
        <ele>420.7</ele>
        <time>2022-10-01T12:53:18Z</time>
      </trkpt>
      <trkpt lat="47.2238" lon="7.71985">
        <ele>420.6</ele>
        <time>2022-10-01T12:53:19Z</time>
      </trkpt>
      <trkpt lat="47.22383" lon="7.71987">
        <ele>420.5</ele>
        <time>2022-10-01T12:53:20Z</time>
      </trkpt>
      <trkpt lat="47.22388" lon="7.71989">
        <ele>420.4</ele>
        <time>2022-10-01T12:53:21Z</time>
      </trkpt>
      <trkpt lat="47.22392" lon="7.71989">
        <ele>420.3</ele>
        <time>2022-10-01T12:53:22Z</time>
      </trkpt>
      <trkpt lat="47.22397" lon="7.71989">
        <ele>420.2</ele>
        <time>2022-10-01T12:53:23Z</time>
      </trkpt>
      <trkpt lat="47.22402" lon="7.71987">
        <ele>420.1</ele>
        <time>2022-10-01T12:53:24Z</time>
      </trkpt>
      <trkpt lat="47.22406" lon="7.71984">
        <ele>420.1</ele>
        <time>2022-10-01T12:53:25Z</time>
      </trkpt>
      <trkpt lat="47.2241" lon="7.71981">
        <ele>420.1</ele>
        <time>2022-10-01T12:53:26Z</time>
      </trkpt>
      <trkpt lat="47.22414" lon="7.71979">
        <ele>420.1</ele>
        <time>2022-10-01T12:53:27Z</time>
      </trkpt>
      <trkpt lat="47.22417" lon="7.71975">
        <ele>420.1</ele>
        <time>2022-10-01T12:53:28Z</time>
      </trkpt>
      <trkpt lat="47.2242" lon="7.71973">
        <ele>420.1</ele>
        <time>2022-10-01T12:53:29Z</time>
      </trkpt>
      <trkpt lat="47.22422" lon="7.7197">
        <ele>420.1</ele>
        <time>2022-10-01T12:53:30Z</time>
      </trkpt>
      <trkpt lat="47.22425" lon="7.71968">
        <ele>420.1</ele>
        <time>2022-10-01T12:53:31Z</time>
      </trkpt>
      <trkpt lat="47.22427" lon="7.71966">
        <ele>420.1</ele>
        <time>2022-10-01T12:53:32Z</time>
      </trkpt>
      <trkpt lat="47.2243" lon="7.71964">
        <ele>420.1</ele>
        <time>2022-10-01T12:53:33Z</time>
      </trkpt>
      <trkpt lat="47.22433" lon="7.71962">
        <ele>420.1</ele>
        <time>2022-10-01T12:53:34Z</time>
      </trkpt>
      <trkpt lat="47.22435" lon="7.71961">
        <ele>420.1</ele>
        <time>2022-10-01T12:53:35Z</time>
      </trkpt>
      <trkpt lat="47.22438" lon="7.7196">
        <ele>420.1</ele>
        <time>2022-10-01T12:53:36Z</time>
      </trkpt>
      <trkpt lat="47.2244" lon="7.7196">
        <ele>420.1</ele>
        <time>2022-10-01T12:53:37Z</time>
      </trkpt>
      <trkpt lat="47.22443" lon="7.71959">
        <ele>420.1</ele>
        <time>2022-10-01T12:53:38Z</time>
      </trkpt>
      <trkpt lat="47.22446" lon="7.71959">
        <ele>420.1</ele>
        <time>2022-10-01T12:53:39Z</time>
      </trkpt>
      <trkpt lat="47.22449" lon="7.71958">
        <ele>420.1</ele>
        <time>2022-10-01T12:53:40Z</time>
      </trkpt>
      <trkpt lat="47.22453" lon="7.71958">
        <ele>420.1</ele>
        <time>2022-10-01T12:53:41Z</time>
      </trkpt>
      <trkpt lat="47.22456" lon="7.71959">
        <ele>420.1</ele>
        <time>2022-10-01T12:53:42Z</time>
      </trkpt>
      <trkpt lat="47.2246" lon="7.71959">
        <ele>420.1</ele>
        <time>2022-10-01T12:53:43Z</time>
      </trkpt>
      <trkpt lat="47.22464" lon="7.71959">
        <ele>420.1</ele>
        <time>2022-10-01T12:53:44Z</time>
      </trkpt>
      <trkpt lat="47.22468" lon="7.7196">
        <ele>420.1</ele>
        <time>2022-10-01T12:53:45Z</time>
      </trkpt>
      <trkpt lat="47.22472" lon="7.7196">
        <ele>420.1</ele>
        <time>2022-10-01T12:53:46Z</time>
      </trkpt>
      <trkpt lat="47.22475" lon="7.71961">
        <ele>420.1</ele>
        <time>2022-10-01T12:53:47Z</time>
      </trkpt>
      <trkpt lat="47.22479" lon="7.71962">
        <ele>420</ele>
        <time>2022-10-01T12:53:48Z</time>
      </trkpt>
      <trkpt lat="47.22482" lon="7.71962">
        <ele>420</ele>
        <time>2022-10-01T12:53:49Z</time>
      </trkpt>
      <trkpt lat="47.22486" lon="7.71963">
        <ele>420</ele>
        <time>2022-10-01T12:53:50Z</time>
      </trkpt>
      <trkpt lat="47.22489" lon="7.71964">
        <ele>420</ele>
        <time>2022-10-01T12:53:51Z</time>
      </trkpt>
      <trkpt lat="47.22493" lon="7.71965">
        <ele>420</ele>
        <time>2022-10-01T12:53:52Z</time>
      </trkpt>
      <trkpt lat="47.22496" lon="7.71966">
        <ele>420</ele>
        <time>2022-10-01T12:53:53Z</time>
      </trkpt>
      <trkpt lat="47.22499" lon="7.71966">
        <ele>420</ele>
        <time>2022-10-01T12:53:54Z</time>
      </trkpt>
      <trkpt lat="47.22501" lon="7.71968">
        <ele>420</ele>
        <time>2022-10-01T12:53:55Z</time>
      </trkpt>
      <trkpt lat="47.22505" lon="7.7197">
        <ele>420</ele>
        <time>2022-10-01T12:53:56Z</time>
      </trkpt>
      <trkpt lat="47.22506" lon="7.7197">
        <ele>420</ele>
        <time>2022-10-01T12:53:57Z</time>
      </trkpt>
      <trkpt lat="47.2251" lon="7.71971">
        <ele>420</ele>
        <time>2022-10-01T12:53:58Z</time>
      </trkpt>
      <trkpt lat="47.22513" lon="7.71973">
        <ele>420</ele>
        <time>2022-10-01T12:53:59Z</time>
      </trkpt>
      <trkpt lat="47.22516" lon="7.71975">
        <ele>420</ele>
        <time>2022-10-01T12:54:00Z</time>
      </trkpt>
      <trkpt lat="47.2252" lon="7.71978">
        <ele>420</ele>
        <time>2022-10-01T12:54:01Z</time>
      </trkpt>
      <trkpt lat="47.22523" lon="7.7198">
        <ele>420</ele>
        <time>2022-10-01T12:54:02Z</time>
      </trkpt>
      <trkpt lat="47.22527" lon="7.71983">
        <ele>420</ele>
        <time>2022-10-01T12:54:03Z</time>
      </trkpt>
      <trkpt lat="47.2253" lon="7.71985">
        <ele>420</ele>
        <time>2022-10-01T12:54:04Z</time>
      </trkpt>
      <trkpt lat="47.22534" lon="7.71988">
        <ele>420</ele>
        <time>2022-10-01T12:54:05Z</time>
      </trkpt>
      <trkpt lat="47.22537" lon="7.7199">
        <ele>419.9</ele>
        <time>2022-10-01T12:54:06Z</time>
      </trkpt>
      <trkpt lat="47.2254" lon="7.71992">
        <ele>419.9</ele>
        <time>2022-10-01T12:54:07Z</time>
      </trkpt>
      <trkpt lat="47.22543" lon="7.71994">
        <ele>419.9</ele>
        <time>2022-10-01T12:54:08Z</time>
      </trkpt>
      <trkpt lat="47.22546" lon="7.71997">
        <ele>419.8</ele>
        <time>2022-10-01T12:54:09Z</time>
      </trkpt>
      <trkpt lat="47.22548" lon="7.72">
        <ele>419.8</ele>
        <time>2022-10-01T12:54:10Z</time>
      </trkpt>
      <trkpt lat="47.22551" lon="7.72003">
        <ele>419.7</ele>
        <time>2022-10-01T12:54:11Z</time>
      </trkpt>
      <trkpt lat="47.22554" lon="7.72007">
        <ele>419.6</ele>
        <time>2022-10-01T12:54:12Z</time>
      </trkpt>
      <trkpt lat="47.22555" lon="7.72008">
        <ele>419.6</ele>
        <time>2022-10-01T12:54:13Z</time>
      </trkpt>
      <trkpt lat="47.22558" lon="7.72011">
        <ele>419.5</ele>
        <time>2022-10-01T12:54:14Z</time>
      </trkpt>
      <trkpt lat="47.22559" lon="7.72012">
        <ele>419.5</ele>
        <time>2022-10-01T12:54:15Z</time>
      </trkpt>
      <trkpt lat="47.2256" lon="7.72013">
        <ele>419.5</ele>
        <time>2022-10-01T12:54:16Z</time>
      </trkpt>
      <trkpt lat="47.22561" lon="7.72013">
        <ele>419.4</ele>
        <time>2022-10-01T12:54:17Z</time>
      </trkpt>
      <trkpt lat="47.22562" lon="7.72014">
        <ele>419.4</ele>
        <time>2022-10-01T12:54:18Z</time>
      </trkpt>
      <trkpt lat="47.22562" lon="7.72014">
        <ele>419.4</ele>
        <time>2022-10-01T12:54:19Z</time>
      </trkpt>
      <trkpt lat="47.22562" lon="7.72014">
        <ele>419.4</ele>
        <time>2022-10-01T12:54:20Z</time>
      </trkpt>
      <trkpt lat="47.22563" lon="7.72014">
        <ele>419.4</ele>
        <time>2022-10-01T12:54:21Z</time>
      </trkpt>
      <trkpt lat="47.22563" lon="7.72014">
        <ele>419.4</ele>
        <time>2022-10-01T12:54:22Z</time>
      </trkpt>
      <trkpt lat="47.22564" lon="7.72014">
        <ele>419.4</ele>
        <time>2022-10-01T12:54:23Z</time>
      </trkpt>
      <trkpt lat="47.22564" lon="7.72015">
        <ele>419.3</ele>
        <time>2022-10-01T12:54:24Z</time>
      </trkpt>
      <trkpt lat="47.22565" lon="7.72016">
        <ele>419.3</ele>
        <time>2022-10-01T12:54:25Z</time>
      </trkpt>
      <trkpt lat="47.22565" lon="7.72017">
        <ele>419.3</ele>
        <time>2022-10-01T12:57:59Z</time>
      </trkpt>
      <trkpt lat="47.22565" lon="7.72017">
        <ele>419.3</ele>
        <time>2022-10-01T12:58:00Z</time>
      </trkpt>
      <trkpt lat="47.22565" lon="7.72018">
        <ele>419.3</ele>
        <time>2022-10-01T12:58:01Z</time>
      </trkpt>
      <trkpt lat="47.22565" lon="7.72018">
        <ele>419.3</ele>
        <time>2022-10-01T12:58:02Z</time>
      </trkpt>
      <trkpt lat="47.22565" lon="7.72019">
        <ele>419.3</ele>
        <time>2022-10-01T12:58:03Z</time>
      </trkpt>
      <trkpt lat="47.22565" lon="7.7202">
        <ele>419.2</ele>
        <time>2022-10-01T12:58:04Z</time>
      </trkpt>
      <trkpt lat="47.22565" lon="7.7202">
        <ele>419.2</ele>
        <time>2022-10-01T12:58:05Z</time>
      </trkpt>
      <trkpt lat="47.22565" lon="7.72021">
        <ele>419.2</ele>
        <time>2022-10-01T12:58:06Z</time>
      </trkpt>
      <trkpt lat="47.22565" lon="7.72022">
        <ele>419.2</ele>
        <time>2022-10-01T12:58:07Z</time>
      </trkpt>
      <trkpt lat="47.22565" lon="7.72022">
        <ele>419.2</ele>
        <time>2022-10-01T12:58:08Z</time>
      </trkpt>
      <trkpt lat="47.22565" lon="7.72023">
        <ele>419.2</ele>
        <time>2022-10-01T12:58:09Z</time>
      </trkpt>
      <trkpt lat="47.22565" lon="7.72023">
        <ele>419.2</ele>
        <time>2022-10-01T12:58:10Z</time>
      </trkpt>
      <trkpt lat="47.22565" lon="7.72024">
        <ele>419.2</ele>
        <time>2022-10-01T12:58:11Z</time>
      </trkpt>
      <trkpt lat="47.22565" lon="7.72025">
        <ele>419.1</ele>
        <time>2022-10-01T12:59:28Z</time>
      </trkpt>
      <trkpt lat="47.22565" lon="7.72025">
        <ele>419.1</ele>
        <time>2022-10-01T12:59:29Z</time>
      </trkpt>
      <trkpt lat="47.22565" lon="7.72026">
        <ele>419.1</ele>
        <time>2022-10-01T12:59:30Z</time>
      </trkpt>
      <trkpt lat="47.22565" lon="7.72027">
        <ele>419.1</ele>
        <time>2022-10-01T12:59:31Z</time>
      </trkpt>
      <trkpt lat="47.22565" lon="7.72027">
        <ele>419.1</ele>
        <time>2022-10-01T12:59:32Z</time>
      </trkpt>
      <trkpt lat="47.22565" lon="7.72028">
        <ele>419.1</ele>
        <time>2022-10-01T12:59:33Z</time>
      </trkpt>
      <trkpt lat="47.22565" lon="7.72028">
        <ele>419.1</ele>
        <time>2022-10-01T12:59:34Z</time>
      </trkpt>
      <trkpt lat="47.22565" lon="7.72029">
        <ele>419</ele>
        <time>2022-10-01T12:59:35Z</time>
      </trkpt>
      <trkpt lat="47.22565" lon="7.7203">
        <ele>419</ele>
        <time>2022-10-01T12:59:36Z</time>
      </trkpt>
      <trkpt lat="47.22565" lon="7.7203">
        <ele>419</ele>
        <time>2022-10-01T12:59:37Z</time>
      </trkpt>
      <trkpt lat="47.22565" lon="7.72031">
        <ele>419</ele>
        <time>2022-10-01T13:07:40Z</time>
      </trkpt>
      <trkpt lat="47.22565" lon="7.72032">
        <ele>419</ele>
        <time>2022-10-01T13:07:41Z</time>
      </trkpt>
      <trkpt lat="47.22565" lon="7.72032">
        <ele>419</ele>
        <time>2022-10-01T13:07:42Z</time>
      </trkpt>
      <trkpt lat="47.22565" lon="7.72033">
        <ele>419</ele>
        <time>2022-10-01T13:07:43Z</time>
      </trkpt>
      <trkpt lat="47.22565" lon="7.72033">
        <ele>419</ele>
        <time>2022-10-01T13:07:44Z</time>
      </trkpt>
      <trkpt lat="47.22565" lon="7.72034">
        <ele>418.9</ele>
        <time>2022-10-01T13:07:45Z</time>
      </trkpt>
      <trkpt lat="47.22565" lon="7.72035">
        <ele>418.9</ele>
        <time>2022-10-01T13:07:46Z</time>
      </trkpt>
      <trkpt lat="47.22565" lon="7.72035">
        <ele>418.9</ele>
        <time>2022-10-01T13:07:47Z</time>
      </trkpt>
      <trkpt lat="47.22565" lon="7.72036">
        <ele>418.9</ele>
        <time>2022-10-01T13:07:48Z</time>
      </trkpt>
      <trkpt lat="47.22565" lon="7.72037">
        <ele>418.9</ele>
        <time>2022-10-01T13:07:49Z</time>
      </trkpt>
      <trkpt lat="47.22565" lon="7.72037">
        <ele>418.9</ele>
        <time>2022-10-01T13:07:50Z</time>
      </trkpt>
      <trkpt lat="47.22565" lon="7.72038">
        <ele>418.9</ele>
        <time>2022-10-01T13:08:02Z</time>
      </trkpt>
      <trkpt lat="47.22565" lon="7.72038">
        <ele>418.9</ele>
        <time>2022-10-01T13:08:03Z</time>
      </trkpt>
      <trkpt lat="47.22566" lon="7.72044">
        <ele>418.8</ele>
        <time>2022-10-01T13:08:04Z</time>
      </trkpt>
      <trkpt lat="47.22566" lon="7.72046">
        <ele>418.7</ele>
        <time>2022-10-01T13:08:05Z</time>
      </trkpt>
      <trkpt lat="47.22567" lon="7.72051">
        <ele>418.7</ele>
        <time>2022-10-01T13:08:06Z</time>
      </trkpt>
      <trkpt lat="47.22567" lon="7.72057">
        <ele>418.6</ele>
        <time>2022-10-01T13:08:07Z</time>
      </trkpt>
      <trkpt lat="47.22568" lon="7.72061">
        <ele>418.5</ele>
        <time>2022-10-01T13:08:08Z</time>
      </trkpt>
      <trkpt lat="47.22568" lon="7.72066">
        <ele>418.5</ele>
        <time>2022-10-01T13:08:09Z</time>
      </trkpt>
      <trkpt lat="47.22568" lon="7.7207">
        <ele>418.5</ele>
        <time>2022-10-01T13:08:10Z</time>
      </trkpt>
      <trkpt lat="47.2257" lon="7.72076">
        <ele>418.4</ele>
        <time>2022-10-01T13:08:11Z</time>
      </trkpt>
      <trkpt lat="47.2257" lon="7.72082">
        <ele>418.4</ele>
        <time>2022-10-01T13:08:12Z</time>
      </trkpt>
      <trkpt lat="47.2257" lon="7.72087">
        <ele>418.4</ele>
        <time>2022-10-01T13:08:13Z</time>
      </trkpt>
      <trkpt lat="47.22571" lon="7.72092">
        <ele>418.4</ele>
        <time>2022-10-01T13:08:14Z</time>
      </trkpt>
      <trkpt lat="47.22572" lon="7.72097">
        <ele>418.4</ele>
        <time>2022-10-01T13:08:15Z</time>
      </trkpt>
      <trkpt lat="47.22573" lon="7.72101">
        <ele>418.4</ele>
        <time>2022-10-01T13:08:16Z</time>
      </trkpt>
      <trkpt lat="47.22573" lon="7.72106">
        <ele>418.4</ele>
        <time>2022-10-01T13:08:17Z</time>
      </trkpt>
      <trkpt lat="47.22574" lon="7.72111">
        <ele>418.4</ele>
        <time>2022-10-01T13:08:18Z</time>
      </trkpt>
      <trkpt lat="47.22575" lon="7.72116">
        <ele>418.3</ele>
        <time>2022-10-01T13:08:19Z</time>
      </trkpt>
      <trkpt lat="47.22575" lon="7.72122">
        <ele>418.3</ele>
        <time>2022-10-01T13:08:20Z</time>
      </trkpt>
      <trkpt lat="47.22576" lon="7.72128">
        <ele>418.3</ele>
        <time>2022-10-01T13:08:21Z</time>
      </trkpt>
      <trkpt lat="47.22577" lon="7.72133">
        <ele>418.3</ele>
        <time>2022-10-01T13:08:22Z</time>
      </trkpt>
      <trkpt lat="47.22578" lon="7.72138">
        <ele>418.3</ele>
        <time>2022-10-01T13:08:23Z</time>
      </trkpt>
      <trkpt lat="47.22578" lon="7.72144">
        <ele>418.3</ele>
        <time>2022-10-01T13:08:24Z</time>
      </trkpt>
      <trkpt lat="47.22579" lon="7.72148">
        <ele>418.3</ele>
        <time>2022-10-01T13:08:25Z</time>
      </trkpt>
      <trkpt lat="47.2258" lon="7.72153">
        <ele>418.3</ele>
        <time>2022-10-01T13:08:26Z</time>
      </trkpt>
      <trkpt lat="47.2258" lon="7.72158">
        <ele>418.3</ele>
        <time>2022-10-01T13:08:27Z</time>
      </trkpt>
      <trkpt lat="47.22581" lon="7.72163">
        <ele>418.3</ele>
        <time>2022-10-01T13:08:28Z</time>
      </trkpt>
      <trkpt lat="47.22581" lon="7.72168">
        <ele>418.3</ele>
        <time>2022-10-01T13:08:29Z</time>
      </trkpt>
      <trkpt lat="47.22582" lon="7.72174">
        <ele>418.3</ele>
        <time>2022-10-01T13:08:30Z</time>
      </trkpt>
      <trkpt lat="47.22582" lon="7.72178">
        <ele>418.3</ele>
        <time>2022-10-01T13:08:31Z</time>
      </trkpt>
      <trkpt lat="47.22583" lon="7.72183">
        <ele>418.3</ele>
        <time>2022-10-01T13:08:32Z</time>
      </trkpt>
      <trkpt lat="47.22584" lon="7.72188">
        <ele>418.3</ele>
        <time>2022-10-01T13:08:33Z</time>
      </trkpt>
      <trkpt lat="47.22585" lon="7.72192">
        <ele>418.3</ele>
        <time>2022-10-01T13:08:34Z</time>
      </trkpt>
      <trkpt lat="47.22585" lon="7.72197">
        <ele>418.3</ele>
        <time>2022-10-01T13:08:35Z</time>
      </trkpt>
      <trkpt lat="47.22587" lon="7.72201">
        <ele>418.3</ele>
        <time>2022-10-01T13:08:36Z</time>
      </trkpt>
      <trkpt lat="47.22587" lon="7.72206">
        <ele>418.3</ele>
        <time>2022-10-01T13:08:37Z</time>
      </trkpt>
      <trkpt lat="47.22588" lon="7.7221">
        <ele>418.3</ele>
        <time>2022-10-01T13:08:38Z</time>
      </trkpt>
      <trkpt lat="47.22588" lon="7.72215">
        <ele>418.3</ele>
        <time>2022-10-01T13:08:39Z</time>
      </trkpt>
      <trkpt lat="47.22589" lon="7.7222">
        <ele>418.3</ele>
        <time>2022-10-01T13:08:40Z</time>
      </trkpt>
      <trkpt lat="47.2259" lon="7.72225">
        <ele>418.3</ele>
        <time>2022-10-01T13:08:41Z</time>
      </trkpt>
      <trkpt lat="47.22591" lon="7.72231">
        <ele>418.3</ele>
        <time>2022-10-01T13:08:42Z</time>
      </trkpt>
      <trkpt lat="47.22592" lon="7.72235">
        <ele>418.4</ele>
        <time>2022-10-01T13:08:43Z</time>
      </trkpt>
      <trkpt lat="47.22593" lon="7.7224">
        <ele>418.4</ele>
        <time>2022-10-01T13:08:44Z</time>
      </trkpt>
      <trkpt lat="47.22594" lon="7.72243">
        <ele>418.4</ele>
        <time>2022-10-01T13:08:45Z</time>
      </trkpt>
      <trkpt lat="47.22595" lon="7.72247">
        <ele>418.4</ele>
        <time>2022-10-01T13:08:46Z</time>
      </trkpt>
      <trkpt lat="47.22595" lon="7.72252">
        <ele>418.4</ele>
        <time>2022-10-01T13:08:47Z</time>
      </trkpt>
      <trkpt lat="47.22596" lon="7.72257">
        <ele>418.4</ele>
        <time>2022-10-01T13:08:48Z</time>
      </trkpt>
      <trkpt lat="47.22597" lon="7.72263">
        <ele>418.4</ele>
        <time>2022-10-01T13:08:49Z</time>
      </trkpt>
      <trkpt lat="47.22598" lon="7.72269">
        <ele>418.4</ele>
        <time>2022-10-01T13:08:50Z</time>
      </trkpt>
      <trkpt lat="47.22599" lon="7.72274">
        <ele>418.4</ele>
        <time>2022-10-01T13:08:51Z</time>
      </trkpt>
      <trkpt lat="47.226" lon="7.72279">
        <ele>418.4</ele>
        <time>2022-10-01T13:08:52Z</time>
      </trkpt>
      <trkpt lat="47.22601" lon="7.72285">
        <ele>418.4</ele>
        <time>2022-10-01T13:08:53Z</time>
      </trkpt>
      <trkpt lat="47.22603" lon="7.72289">
        <ele>418.4</ele>
        <time>2022-10-01T13:08:54Z</time>
      </trkpt>
      <trkpt lat="47.22604" lon="7.72295">
        <ele>418.5</ele>
        <time>2022-10-01T13:08:55Z</time>
      </trkpt>
      <trkpt lat="47.22604" lon="7.723">
        <ele>418.5</ele>
        <time>2022-10-01T13:08:56Z</time>
      </trkpt>
      <trkpt lat="47.22605" lon="7.72306">
        <ele>418.5</ele>
        <time>2022-10-01T13:08:57Z</time>
      </trkpt>
      <trkpt lat="47.22606" lon="7.72311">
        <ele>418.5</ele>
        <time>2022-10-01T13:08:58Z</time>
      </trkpt>
      <trkpt lat="47.22607" lon="7.72316">
        <ele>418.5</ele>
        <time>2022-10-01T13:08:59Z</time>
      </trkpt>
      <trkpt lat="47.22608" lon="7.72321">
        <ele>418.6</ele>
        <time>2022-10-01T13:09:00Z</time>
      </trkpt>
      <trkpt lat="47.22609" lon="7.72326">
        <ele>418.6</ele>
        <time>2022-10-01T13:09:01Z</time>
      </trkpt>
      <trkpt lat="47.2261" lon="7.72331">
        <ele>418.6</ele>
        <time>2022-10-01T13:09:02Z</time>
      </trkpt>
      <trkpt lat="47.22611" lon="7.72335">
        <ele>418.6</ele>
        <time>2022-10-01T13:09:03Z</time>
      </trkpt>
      <trkpt lat="47.22612" lon="7.72341">
        <ele>418.6</ele>
        <time>2022-10-01T13:09:04Z</time>
      </trkpt>
      <trkpt lat="47.22612" lon="7.72346">
        <ele>418.6</ele>
        <time>2022-10-01T13:09:05Z</time>
      </trkpt>
      <trkpt lat="47.22614" lon="7.72351">
        <ele>418.7</ele>
        <time>2022-10-01T13:09:06Z</time>
      </trkpt>
      <trkpt lat="47.22615" lon="7.72356">
        <ele>418.7</ele>
        <time>2022-10-01T13:09:07Z</time>
      </trkpt>
      <trkpt lat="47.22616" lon="7.72361">
        <ele>418.7</ele>
        <time>2022-10-01T13:09:08Z</time>
      </trkpt>
      <trkpt lat="47.22617" lon="7.72365">
        <ele>418.7</ele>
        <time>2022-10-01T13:09:09Z</time>
      </trkpt>
      <trkpt lat="47.22618" lon="7.72371">
        <ele>418.7</ele>
        <time>2022-10-01T13:09:10Z</time>
      </trkpt>
      <trkpt lat="47.22619" lon="7.72375">
        <ele>418.7</ele>
        <time>2022-10-01T13:09:11Z</time>
      </trkpt>
      <trkpt lat="47.22621" lon="7.72382">
        <ele>418.7</ele>
        <time>2022-10-01T13:09:12Z</time>
      </trkpt>
      <trkpt lat="47.22622" lon="7.72388">
        <ele>418.7</ele>
        <time>2022-10-01T13:09:13Z</time>
      </trkpt>
      <trkpt lat="47.22623" lon="7.72395">
        <ele>418.6</ele>
        <time>2022-10-01T13:09:14Z</time>
      </trkpt>
      <trkpt lat="47.22624" lon="7.72399">
        <ele>418.6</ele>
        <time>2022-10-01T13:09:15Z</time>
      </trkpt>
      <trkpt lat="47.22626" lon="7.72405">
        <ele>418.6</ele>
        <time>2022-10-01T13:09:16Z</time>
      </trkpt>
      <trkpt lat="47.22627" lon="7.72411">
        <ele>418.6</ele>
        <time>2022-10-01T13:09:17Z</time>
      </trkpt>
      <trkpt lat="47.22629" lon="7.72417">
        <ele>418.6</ele>
        <time>2022-10-01T13:09:18Z</time>
      </trkpt>
      <trkpt lat="47.2263" lon="7.72422">
        <ele>418.6</ele>
        <time>2022-10-01T13:09:19Z</time>
      </trkpt>
      <trkpt lat="47.2263" lon="7.72427">
        <ele>418.6</ele>
        <time>2022-10-01T13:09:20Z</time>
      </trkpt>
      <trkpt lat="47.22632" lon="7.72433">
        <ele>418.6</ele>
        <time>2022-10-01T13:09:21Z</time>
      </trkpt>
      <trkpt lat="47.22633" lon="7.72438">
        <ele>418.6</ele>
        <time>2022-10-01T13:09:22Z</time>
      </trkpt>
      <trkpt lat="47.22634" lon="7.72443">
        <ele>418.6</ele>
        <time>2022-10-01T13:09:23Z</time>
      </trkpt>
      <trkpt lat="47.22634" lon="7.7245">
        <ele>418.6</ele>
        <time>2022-10-01T13:09:24Z</time>
      </trkpt>
      <trkpt lat="47.22636" lon="7.72456">
        <ele>418.6</ele>
        <time>2022-10-01T13:09:25Z</time>
      </trkpt>
      <trkpt lat="47.22637" lon="7.72462">
        <ele>418.6</ele>
        <time>2022-10-01T13:09:26Z</time>
      </trkpt>
      <trkpt lat="47.22637" lon="7.72467">
        <ele>418.6</ele>
        <time>2022-10-01T13:09:27Z</time>
      </trkpt>
      <trkpt lat="47.22638" lon="7.72474">
        <ele>418.6</ele>
        <time>2022-10-01T13:09:28Z</time>
      </trkpt>
      <trkpt lat="47.22639" lon="7.72479">
        <ele>418.6</ele>
        <time>2022-10-01T13:09:29Z</time>
      </trkpt>
      <trkpt lat="47.22639" lon="7.72485">
        <ele>418.6</ele>
        <time>2022-10-01T13:09:30Z</time>
      </trkpt>
      <trkpt lat="47.2264" lon="7.72491">
        <ele>418.6</ele>
        <time>2022-10-01T13:09:31Z</time>
      </trkpt>
      <trkpt lat="47.22641" lon="7.72497">
        <ele>418.6</ele>
        <time>2022-10-01T13:09:32Z</time>
      </trkpt>
      <trkpt lat="47.22642" lon="7.72504">
        <ele>418.6</ele>
        <time>2022-10-01T13:09:33Z</time>
      </trkpt>
      <trkpt lat="47.22643" lon="7.72509">
        <ele>418.7</ele>
        <time>2022-10-01T13:09:34Z</time>
      </trkpt>
      <trkpt lat="47.22644" lon="7.72515">
        <ele>418.7</ele>
        <time>2022-10-01T13:09:35Z</time>
      </trkpt>
      <trkpt lat="47.22645" lon="7.72521">
        <ele>418.7</ele>
        <time>2022-10-01T13:09:36Z</time>
      </trkpt>
      <trkpt lat="47.22645" lon="7.72527">
        <ele>418.7</ele>
        <time>2022-10-01T13:09:37Z</time>
      </trkpt>
      <trkpt lat="47.22646" lon="7.72532">
        <ele>418.7</ele>
        <time>2022-10-01T13:09:38Z</time>
      </trkpt>
      <trkpt lat="47.22647" lon="7.72537">
        <ele>418.7</ele>
        <time>2022-10-01T13:09:39Z</time>
      </trkpt>
      <trkpt lat="47.22647" lon="7.72541">
        <ele>418.7</ele>
        <time>2022-10-01T13:09:40Z</time>
      </trkpt>
      <trkpt lat="47.22647" lon="7.72546">
        <ele>418.7</ele>
        <time>2022-10-01T13:09:41Z</time>
      </trkpt>
      <trkpt lat="47.22647" lon="7.72551">
        <ele>418.7</ele>
        <time>2022-10-01T13:09:42Z</time>
      </trkpt>
      <trkpt lat="47.22648" lon="7.72555">
        <ele>418.7</ele>
        <time>2022-10-01T13:09:43Z</time>
      </trkpt>
      <trkpt lat="47.22649" lon="7.72561">
        <ele>418.7</ele>
        <time>2022-10-01T13:09:44Z</time>
      </trkpt>
      <trkpt lat="47.22649" lon="7.72563">
        <ele>418.7</ele>
        <time>2022-10-01T13:09:45Z</time>
      </trkpt>
      <trkpt lat="47.22649" lon="7.72568">
        <ele>418.7</ele>
        <time>2022-10-01T13:09:46Z</time>
      </trkpt>
      <trkpt lat="47.22649" lon="7.72573">
        <ele>418.7</ele>
        <time>2022-10-01T13:09:47Z</time>
      </trkpt>
      <trkpt lat="47.2265" lon="7.72574">
        <ele>418.7</ele>
        <time>2022-10-01T13:09:48Z</time>
      </trkpt>
      <trkpt lat="47.2265" lon="7.7258">
        <ele>418.7</ele>
        <time>2022-10-01T13:09:49Z</time>
      </trkpt>
      <trkpt lat="47.2265" lon="7.72582">
        <ele>418.7</ele>
        <time>2022-10-01T13:09:50Z</time>
      </trkpt>
      <trkpt lat="47.2265" lon="7.72587">
        <ele>418.7</ele>
        <time>2022-10-01T13:09:51Z</time>
      </trkpt>
      <trkpt lat="47.2265" lon="7.72589">
        <ele>418.7</ele>
        <time>2022-10-01T13:09:52Z</time>
      </trkpt>
      <trkpt lat="47.2265" lon="7.72593">
        <ele>418.7</ele>
        <time>2022-10-01T13:09:53Z</time>
      </trkpt>
      <trkpt lat="47.2265" lon="7.72595">
        <ele>418.7</ele>
        <time>2022-10-01T13:09:54Z</time>
      </trkpt>
      <trkpt lat="47.2265" lon="7.72595">
        <ele>418.7</ele>
        <time>2022-10-01T13:09:55Z</time>
      </trkpt>
      <trkpt lat="47.2265" lon="7.72596">
        <ele>418.7</ele>
        <time>2022-10-01T13:09:56Z</time>
      </trkpt>
      <trkpt lat="47.22651" lon="7.72595">
        <ele>418.7</ele>
        <time>2022-10-01T13:09:57Z</time>
      </trkpt>
      <trkpt lat="47.22651" lon="7.72595">
        <ele>418.7</ele>
        <time>2022-10-01T13:09:58Z</time>
      </trkpt>
      <trkpt lat="47.22651" lon="7.72596">
        <ele>418.7</ele>
        <time>2022-10-01T13:09:59Z</time>
      </trkpt>
      <trkpt lat="47.22652" lon="7.72596">
        <ele>418.7</ele>
        <time>2022-10-01T13:10:00Z</time>
      </trkpt>
      <trkpt lat="47.22652" lon="7.72595">
        <ele>418.7</ele>
        <time>2022-10-01T13:10:01Z</time>
      </trkpt>
      <trkpt lat="47.22653" lon="7.72594">
        <ele>418.7</ele>
        <time>2022-10-01T13:10:02Z</time>
      </trkpt>
      <trkpt lat="47.22653" lon="7.72593">
        <ele>418.7</ele>
        <time>2022-10-01T13:10:03Z</time>
      </trkpt>
      <trkpt lat="47.22653" lon="7.72593">
        <ele>418.7</ele>
        <time>2022-10-01T13:10:04Z</time>
      </trkpt>
      <trkpt lat="47.22653" lon="7.72593">
        <ele>418.7</ele>
        <time>2022-10-01T13:10:05Z</time>
      </trkpt>
      <trkpt lat="47.22653" lon="7.72593">
        <ele>418.7</ele>
        <time>2022-10-01T13:10:06Z</time>
      </trkpt>
      <trkpt lat="47.22653" lon="7.72593">
        <ele>418.7</ele>
        <time>2022-10-01T13:10:07Z</time>
      </trkpt>
      <trkpt lat="47.22653" lon="7.72593">
        <ele>418.7</ele>
        <time>2022-10-01T13:10:08Z</time>
      </trkpt>
      <trkpt lat="47.22652" lon="7.72593">
        <ele>418.7</ele>
        <time>2022-10-01T13:10:09Z</time>
      </trkpt>
      <trkpt lat="47.22652" lon="7.72593">
        <ele>418.7</ele>
        <time>2022-10-01T13:10:10Z</time>
      </trkpt>
      <trkpt lat="47.22652" lon="7.72593">
        <ele>418.7</ele>
        <time>2022-10-01T13:10:11Z</time>
      </trkpt>
      <trkpt lat="47.22652" lon="7.72594">
        <ele>418.7</ele>
        <time>2022-10-01T13:10:12Z</time>
      </trkpt>
      <trkpt lat="47.22652" lon="7.72583">
        <ele>418.7</ele>
        <time>2022-10-01T13:10:22Z</time>
      </trkpt>
      <trkpt lat="47.22652" lon="7.72582">
        <ele>418.7</ele>
        <time>2022-10-01T13:10:23Z</time>
      </trkpt>
      <trkpt lat="47.22653" lon="7.72583">
        <ele>418.7</ele>
        <time>2022-10-01T13:10:24Z</time>
      </trkpt>
      <trkpt lat="47.22653" lon="7.72583">
        <ele>418.7</ele>
        <time>2022-10-01T13:10:25Z</time>
      </trkpt>
      <trkpt lat="47.22653" lon="7.72583">
        <ele>418.7</ele>
        <time>2022-10-01T13:10:26Z</time>
      </trkpt>
      <trkpt lat="47.22653" lon="7.72583">
        <ele>418.7</ele>
        <time>2022-10-01T13:10:27Z</time>
      </trkpt>
      <trkpt lat="47.22653" lon="7.72583">
        <ele>418.7</ele>
        <time>2022-10-01T13:10:28Z</time>
      </trkpt>
      <trkpt lat="47.22653" lon="7.72583">
        <ele>418.7</ele>
        <time>2022-10-01T13:10:29Z</time>
      </trkpt>
      <trkpt lat="47.22653" lon="7.72582">
        <ele>418.7</ele>
        <time>2022-10-01T13:10:30Z</time>
      </trkpt>
      <trkpt lat="47.22653" lon="7.72582">
        <ele>418.7</ele>
        <time>2022-10-01T13:10:31Z</time>
      </trkpt>
      <trkpt lat="47.22653" lon="7.72582">
        <ele>418.7</ele>
        <time>2022-10-01T13:10:32Z</time>
      </trkpt>
      <trkpt lat="47.22653" lon="7.72581">
        <ele>418.7</ele>
        <time>2022-10-01T13:10:33Z</time>
      </trkpt>
      <trkpt lat="47.22651" lon="7.72594">
        <ele>418.7</ele>
        <time>2022-10-01T13:20:26Z</time>
      </trkpt>
      <trkpt lat="47.2265" lon="7.72597">
        <ele>418.7</ele>
        <time>2022-10-01T13:20:27Z</time>
      </trkpt>
      <trkpt lat="47.22651" lon="7.72602">
        <ele>418.7</ele>
        <time>2022-10-01T13:20:28Z</time>
      </trkpt>
      <trkpt lat="47.22651" lon="7.72604">
        <ele>418.7</ele>
        <time>2022-10-01T13:20:29Z</time>
      </trkpt>
      <trkpt lat="47.22652" lon="7.72609">
        <ele>418.7</ele>
        <time>2022-10-01T13:20:30Z</time>
      </trkpt>
      <trkpt lat="47.22652" lon="7.72611">
        <ele>418.7</ele>
        <time>2022-10-01T13:20:31Z</time>
      </trkpt>
      <trkpt lat="47.22651" lon="7.72615">
        <ele>418.7</ele>
        <time>2022-10-01T13:20:32Z</time>
      </trkpt>
      <trkpt lat="47.22652" lon="7.7262">
        <ele>418.7</ele>
        <time>2022-10-01T13:20:33Z</time>
      </trkpt>
      <trkpt lat="47.22651" lon="7.72624">
        <ele>418.7</ele>
        <time>2022-10-01T13:20:34Z</time>
      </trkpt>
      <trkpt lat="47.22651" lon="7.72628">
        <ele>418.7</ele>
        <time>2022-10-01T13:20:35Z</time>
      </trkpt>
      <trkpt lat="47.22652" lon="7.72634">
        <ele>418.7</ele>
        <time>2022-10-01T13:20:36Z</time>
      </trkpt>
      <trkpt lat="47.22652" lon="7.72639">
        <ele>418.7</ele>
        <time>2022-10-01T13:20:37Z</time>
      </trkpt>
      <trkpt lat="47.22652" lon="7.72645">
        <ele>418.7</ele>
        <time>2022-10-01T13:20:38Z</time>
      </trkpt>
      <trkpt lat="47.22653" lon="7.72647">
        <ele>418.7</ele>
        <time>2022-10-01T13:20:39Z</time>
      </trkpt>
      <trkpt lat="47.22653" lon="7.72653">
        <ele>418.7</ele>
        <time>2022-10-01T13:20:40Z</time>
      </trkpt>
      <trkpt lat="47.22653" lon="7.72659">
        <ele>418.7</ele>
        <time>2022-10-01T13:20:41Z</time>
      </trkpt>
      <trkpt lat="47.22653" lon="7.72666">
        <ele>418.7</ele>
        <time>2022-10-01T13:20:42Z</time>
      </trkpt>
      <trkpt lat="47.22653" lon="7.72669">
        <ele>418.7</ele>
        <time>2022-10-01T13:20:43Z</time>
      </trkpt>
      <trkpt lat="47.22654" lon="7.72675">
        <ele>418.7</ele>
        <time>2022-10-01T13:20:44Z</time>
      </trkpt>
      <trkpt lat="47.22654" lon="7.72682">
        <ele>418.7</ele>
        <time>2022-10-01T13:20:45Z</time>
      </trkpt>
      <trkpt lat="47.22654" lon="7.72687">
        <ele>418.7</ele>
        <time>2022-10-01T13:20:46Z</time>
      </trkpt>
      <trkpt lat="47.22654" lon="7.72693">
        <ele>418.7</ele>
        <time>2022-10-01T13:20:47Z</time>
      </trkpt>
      <trkpt lat="47.22654" lon="7.727">
        <ele>418.7</ele>
        <time>2022-10-01T13:20:48Z</time>
      </trkpt>
      <trkpt lat="47.22654" lon="7.72706">
        <ele>418.7</ele>
        <time>2022-10-01T13:20:49Z</time>
      </trkpt>
      <trkpt lat="47.22654" lon="7.72713">
        <ele>418.7</ele>
        <time>2022-10-01T13:20:50Z</time>
      </trkpt>
      <trkpt lat="47.22655" lon="7.72718">
        <ele>418.7</ele>
        <time>2022-10-01T13:20:51Z</time>
      </trkpt>
      <trkpt lat="47.22654" lon="7.72724">
        <ele>418.7</ele>
        <time>2022-10-01T13:20:52Z</time>
      </trkpt>
      <trkpt lat="47.22654" lon="7.7273">
        <ele>418.7</ele>
        <time>2022-10-01T13:20:53Z</time>
      </trkpt>
      <trkpt lat="47.22654" lon="7.72735">
        <ele>418.7</ele>
        <time>2022-10-01T13:20:54Z</time>
      </trkpt>
      <trkpt lat="47.22654" lon="7.7274">
        <ele>418.7</ele>
        <time>2022-10-01T13:20:55Z</time>
      </trkpt>
      <trkpt lat="47.22655" lon="7.72745">
        <ele>418.7</ele>
        <time>2022-10-01T13:20:56Z</time>
      </trkpt>
      <trkpt lat="47.22655" lon="7.7275">
        <ele>418.7</ele>
        <time>2022-10-01T13:20:57Z</time>
      </trkpt>
      <trkpt lat="47.22655" lon="7.72756">
        <ele>418.7</ele>
        <time>2022-10-01T13:20:58Z</time>
      </trkpt>
      <trkpt lat="47.22656" lon="7.72759">
        <ele>418.7</ele>
        <time>2022-10-01T13:20:59Z</time>
      </trkpt>
      <trkpt lat="47.22655" lon="7.72764">
        <ele>418.7</ele>
        <time>2022-10-01T13:21:00Z</time>
      </trkpt>
      <trkpt lat="47.22655" lon="7.7277">
        <ele>418.7</ele>
        <time>2022-10-01T13:21:01Z</time>
      </trkpt>
      <trkpt lat="47.22655" lon="7.72774">
        <ele>418.7</ele>
        <time>2022-10-01T13:21:02Z</time>
      </trkpt>
      <trkpt lat="47.22655" lon="7.72779">
        <ele>418.7</ele>
        <time>2022-10-01T13:21:03Z</time>
      </trkpt>
      <trkpt lat="47.22655" lon="7.72786">
        <ele>418.7</ele>
        <time>2022-10-01T13:21:04Z</time>
      </trkpt>
      <trkpt lat="47.22656" lon="7.72791">
        <ele>418.7</ele>
        <time>2022-10-01T13:21:05Z</time>
      </trkpt>
      <trkpt lat="47.22656" lon="7.72796">
        <ele>418.7</ele>
        <time>2022-10-01T13:21:06Z</time>
      </trkpt>
      <trkpt lat="47.22657" lon="7.72803">
        <ele>418.7</ele>
        <time>2022-10-01T13:21:07Z</time>
      </trkpt>
      <trkpt lat="47.22657" lon="7.72809">
        <ele>418.7</ele>
        <time>2022-10-01T13:21:08Z</time>
      </trkpt>
      <trkpt lat="47.22657" lon="7.72815">
        <ele>418.7</ele>
        <time>2022-10-01T13:21:09Z</time>
      </trkpt>
      <trkpt lat="47.22658" lon="7.72821">
        <ele>418.6</ele>
        <time>2022-10-01T13:21:10Z</time>
      </trkpt>
      <trkpt lat="47.22658" lon="7.72825">
        <ele>418.6</ele>
        <time>2022-10-01T13:21:11Z</time>
      </trkpt>
      <trkpt lat="47.22658" lon="7.72831">
        <ele>418.6</ele>
        <time>2022-10-01T13:21:12Z</time>
      </trkpt>
      <trkpt lat="47.22659" lon="7.72836">
        <ele>418.6</ele>
        <time>2022-10-01T13:21:13Z</time>
      </trkpt>
      <trkpt lat="47.22659" lon="7.72841">
        <ele>418.6</ele>
        <time>2022-10-01T13:21:14Z</time>
      </trkpt>
      <trkpt lat="47.22659" lon="7.72846">
        <ele>418.6</ele>
        <time>2022-10-01T13:21:15Z</time>
      </trkpt>
      <trkpt lat="47.22659" lon="7.72854">
        <ele>418.5</ele>
        <time>2022-10-01T13:21:16Z</time>
      </trkpt>
      <trkpt lat="47.2266" lon="7.7286">
        <ele>418.5</ele>
        <time>2022-10-01T13:21:17Z</time>
      </trkpt>
      <trkpt lat="47.22661" lon="7.72866">
        <ele>418.5</ele>
        <time>2022-10-01T13:21:18Z</time>
      </trkpt>
      <trkpt lat="47.22662" lon="7.72871">
        <ele>418.5</ele>
        <time>2022-10-01T13:21:19Z</time>
      </trkpt>
      <trkpt lat="47.22661" lon="7.72876">
        <ele>418.5</ele>
        <time>2022-10-01T13:21:20Z</time>
      </trkpt>
      <trkpt lat="47.22662" lon="7.72882">
        <ele>418.5</ele>
        <time>2022-10-01T13:21:21Z</time>
      </trkpt>
      <trkpt lat="47.22662" lon="7.72888">
        <ele>418.5</ele>
        <time>2022-10-01T13:21:22Z</time>
      </trkpt>
      <trkpt lat="47.22663" lon="7.72895">
        <ele>418.5</ele>
        <time>2022-10-01T13:21:23Z</time>
      </trkpt>
      <trkpt lat="47.22664" lon="7.72902">
        <ele>418.5</ele>
        <time>2022-10-01T13:21:24Z</time>
      </trkpt>
      <trkpt lat="47.22663" lon="7.72907">
        <ele>418.5</ele>
        <time>2022-10-01T13:21:25Z</time>
      </trkpt>
      <trkpt lat="47.22663" lon="7.72911">
        <ele>418.5</ele>
        <time>2022-10-01T13:21:26Z</time>
      </trkpt>
      <trkpt lat="47.22665" lon="7.72917">
        <ele>418.5</ele>
        <time>2022-10-01T13:21:27Z</time>
      </trkpt>
      <trkpt lat="47.22666" lon="7.72923">
        <ele>418.5</ele>
        <time>2022-10-01T13:21:28Z</time>
      </trkpt>
      <trkpt lat="47.22666" lon="7.72928">
        <ele>418.6</ele>
        <time>2022-10-01T13:21:29Z</time>
      </trkpt>
      <trkpt lat="47.22667" lon="7.72935">
        <ele>418.6</ele>
        <time>2022-10-01T13:21:30Z</time>
      </trkpt>
      <trkpt lat="47.22667" lon="7.72942">
        <ele>418.6</ele>
        <time>2022-10-01T13:21:31Z</time>
      </trkpt>
      <trkpt lat="47.22669" lon="7.72946">
        <ele>418.5</ele>
        <time>2022-10-01T13:21:32Z</time>
      </trkpt>
      <trkpt lat="47.22669" lon="7.72951">
        <ele>418.5</ele>
        <time>2022-10-01T13:21:33Z</time>
      </trkpt>
      <trkpt lat="47.2267" lon="7.72956">
        <ele>418.5</ele>
        <time>2022-10-01T13:21:34Z</time>
      </trkpt>
      <trkpt lat="47.22671" lon="7.72963">
        <ele>418.5</ele>
        <time>2022-10-01T13:21:35Z</time>
      </trkpt>
      <trkpt lat="47.22672" lon="7.72969">
        <ele>418.5</ele>
        <time>2022-10-01T13:21:36Z</time>
      </trkpt>
      <trkpt lat="47.22673" lon="7.72976">
        <ele>418.5</ele>
        <time>2022-10-01T13:21:37Z</time>
      </trkpt>
      <trkpt lat="47.22674" lon="7.72982">
        <ele>418.5</ele>
        <time>2022-10-01T13:21:38Z</time>
      </trkpt>
      <trkpt lat="47.22674" lon="7.7299">
        <ele>418.5</ele>
        <time>2022-10-01T13:21:39Z</time>
      </trkpt>
      <trkpt lat="47.22675" lon="7.72997">
        <ele>418.5</ele>
        <time>2022-10-01T13:21:40Z</time>
      </trkpt>
      <trkpt lat="47.22676" lon="7.73003">
        <ele>418.5</ele>
        <time>2022-10-01T13:21:41Z</time>
      </trkpt>
      <trkpt lat="47.22677" lon="7.7301">
        <ele>418.5</ele>
        <time>2022-10-01T13:21:42Z</time>
      </trkpt>
      <trkpt lat="47.22679" lon="7.73017">
        <ele>418.5</ele>
        <time>2022-10-01T13:21:43Z</time>
      </trkpt>
      <trkpt lat="47.2268" lon="7.73024">
        <ele>418.5</ele>
        <time>2022-10-01T13:21:44Z</time>
      </trkpt>
      <trkpt lat="47.22681" lon="7.73029">
        <ele>418.5</ele>
        <time>2022-10-01T13:21:45Z</time>
      </trkpt>
      <trkpt lat="47.22683" lon="7.73034">
        <ele>418.5</ele>
        <time>2022-10-01T13:21:46Z</time>
      </trkpt>
      <trkpt lat="47.22685" lon="7.73041">
        <ele>418.5</ele>
        <time>2022-10-01T13:21:47Z</time>
      </trkpt>
      <trkpt lat="47.22686" lon="7.73046">
        <ele>418.5</ele>
        <time>2022-10-01T13:21:48Z</time>
      </trkpt>
      <trkpt lat="47.22687" lon="7.73053">
        <ele>418.5</ele>
        <time>2022-10-01T13:21:49Z</time>
      </trkpt>
      <trkpt lat="47.22689" lon="7.7306">
        <ele>418.5</ele>
        <time>2022-10-01T13:21:50Z</time>
      </trkpt>
      <trkpt lat="47.2269" lon="7.73066">
        <ele>418.6</ele>
        <time>2022-10-01T13:21:51Z</time>
      </trkpt>
      <trkpt lat="47.22692" lon="7.73072">
        <ele>418.6</ele>
        <time>2022-10-01T13:21:52Z</time>
      </trkpt>
      <trkpt lat="47.22694" lon="7.73078">
        <ele>418.6</ele>
        <time>2022-10-01T13:21:53Z</time>
      </trkpt>
      <trkpt lat="47.22696" lon="7.73085">
        <ele>418.6</ele>
        <time>2022-10-01T13:21:54Z</time>
      </trkpt>
      <trkpt lat="47.22697" lon="7.7309">
        <ele>418.6</ele>
        <time>2022-10-01T13:21:55Z</time>
      </trkpt>
      <trkpt lat="47.22699" lon="7.73096">
        <ele>418.6</ele>
        <time>2022-10-01T13:21:56Z</time>
      </trkpt>
      <trkpt lat="47.22701" lon="7.73102">
        <ele>418.6</ele>
        <time>2022-10-01T13:21:57Z</time>
      </trkpt>
      <trkpt lat="47.22704" lon="7.73108">
        <ele>418.6</ele>
        <time>2022-10-01T13:21:58Z</time>
      </trkpt>
      <trkpt lat="47.22706" lon="7.73113">
        <ele>418.6</ele>
        <time>2022-10-01T13:21:59Z</time>
      </trkpt>
      <trkpt lat="47.22708" lon="7.73119">
        <ele>418.6</ele>
        <time>2022-10-01T13:22:00Z</time>
      </trkpt>
      <trkpt lat="47.22711" lon="7.73124">
        <ele>418.6</ele>
        <time>2022-10-01T13:22:01Z</time>
      </trkpt>
      <trkpt lat="47.22713" lon="7.73131">
        <ele>418.6</ele>
        <time>2022-10-01T13:22:02Z</time>
      </trkpt>
      <trkpt lat="47.22715" lon="7.73136">
        <ele>418.6</ele>
        <time>2022-10-01T13:22:03Z</time>
      </trkpt>
      <trkpt lat="47.22718" lon="7.73142">
        <ele>418.6</ele>
        <time>2022-10-01T13:22:04Z</time>
      </trkpt>
      <trkpt lat="47.22721" lon="7.73147">
        <ele>418.6</ele>
        <time>2022-10-01T13:22:05Z</time>
      </trkpt>
      <trkpt lat="47.22723" lon="7.73154">
        <ele>418.6</ele>
        <time>2022-10-01T13:22:06Z</time>
      </trkpt>
      <trkpt lat="47.22726" lon="7.73159">
        <ele>418.6</ele>
        <time>2022-10-01T13:22:07Z</time>
      </trkpt>
      <trkpt lat="47.22729" lon="7.73165">
        <ele>418.6</ele>
        <time>2022-10-01T13:22:08Z</time>
      </trkpt>
      <trkpt lat="47.22732" lon="7.73171">
        <ele>418.5</ele>
        <time>2022-10-01T13:22:09Z</time>
      </trkpt>
      <trkpt lat="47.22735" lon="7.73176">
        <ele>418.5</ele>
        <time>2022-10-01T13:22:10Z</time>
      </trkpt>
      <trkpt lat="47.22738" lon="7.7318">
        <ele>418.5</ele>
        <time>2022-10-01T13:22:11Z</time>
      </trkpt>
      <trkpt lat="47.2274" lon="7.73185">
        <ele>418.5</ele>
        <time>2022-10-01T13:22:12Z</time>
      </trkpt>
      <trkpt lat="47.22743" lon="7.73191">
        <ele>418.5</ele>
        <time>2022-10-01T13:22:13Z</time>
      </trkpt>
      <trkpt lat="47.22746" lon="7.73197">
        <ele>418.5</ele>
        <time>2022-10-01T13:22:14Z</time>
      </trkpt>
      <trkpt lat="47.22748" lon="7.73203">
        <ele>418.5</ele>
        <time>2022-10-01T13:22:15Z</time>
      </trkpt>
      <trkpt lat="47.22751" lon="7.73209">
        <ele>418.5</ele>
        <time>2022-10-01T13:22:16Z</time>
      </trkpt>
      <trkpt lat="47.22754" lon="7.73215">
        <ele>418.4</ele>
        <time>2022-10-01T13:22:17Z</time>
      </trkpt>
      <trkpt lat="47.22757" lon="7.73221">
        <ele>418.4</ele>
        <time>2022-10-01T13:22:18Z</time>
      </trkpt>
      <trkpt lat="47.22759" lon="7.73227">
        <ele>418.4</ele>
        <time>2022-10-01T13:22:19Z</time>
      </trkpt>
      <trkpt lat="47.22762" lon="7.73231">
        <ele>418.4</ele>
        <time>2022-10-01T13:22:20Z</time>
      </trkpt>
      <trkpt lat="47.22764" lon="7.73237">
        <ele>418.4</ele>
        <time>2022-10-01T13:22:21Z</time>
      </trkpt>
      <trkpt lat="47.22766" lon="7.73242">
        <ele>418.4</ele>
        <time>2022-10-01T13:22:22Z</time>
      </trkpt>
      <trkpt lat="47.22769" lon="7.73248">
        <ele>418.4</ele>
        <time>2022-10-01T13:22:23Z</time>
      </trkpt>
      <trkpt lat="47.22771" lon="7.73253">
        <ele>418.5</ele>
        <time>2022-10-01T13:22:24Z</time>
      </trkpt>
      <trkpt lat="47.22775" lon="7.73258">
        <ele>418.5</ele>
        <time>2022-10-01T13:22:25Z</time>
      </trkpt>
      <trkpt lat="47.22778" lon="7.73264">
        <ele>418.5</ele>
        <time>2022-10-01T13:22:26Z</time>
      </trkpt>
      <trkpt lat="47.22781" lon="7.7327">
        <ele>418.5</ele>
        <time>2022-10-01T13:22:27Z</time>
      </trkpt>
      <trkpt lat="47.22785" lon="7.73274">
        <ele>418.5</ele>
        <time>2022-10-01T13:22:28Z</time>
      </trkpt>
      <trkpt lat="47.22789" lon="7.73279">
        <ele>418.5</ele>
        <time>2022-10-01T13:22:29Z</time>
      </trkpt>
      <trkpt lat="47.22792" lon="7.73284">
        <ele>418.5</ele>
        <time>2022-10-01T13:22:30Z</time>
      </trkpt>
      <trkpt lat="47.22795" lon="7.73289">
        <ele>418.6</ele>
        <time>2022-10-01T13:22:31Z</time>
      </trkpt>
      <trkpt lat="47.22799" lon="7.73292">
        <ele>418.6</ele>
        <time>2022-10-01T13:22:32Z</time>
      </trkpt>
      <trkpt lat="47.22803" lon="7.73295">
        <ele>418.6</ele>
        <time>2022-10-01T13:22:33Z</time>
      </trkpt>
      <trkpt lat="47.22807" lon="7.73297">
        <ele>418.6</ele>
        <time>2022-10-01T13:22:34Z</time>
      </trkpt>
      <trkpt lat="47.22811" lon="7.73299">
        <ele>418.6</ele>
        <time>2022-10-01T13:22:35Z</time>
      </trkpt>
      <trkpt lat="47.22816" lon="7.733">
        <ele>418.7</ele>
        <time>2022-10-01T13:22:36Z</time>
      </trkpt>
      <trkpt lat="47.2282" lon="7.73301">
        <ele>418.7</ele>
        <time>2022-10-01T13:22:37Z</time>
      </trkpt>
      <trkpt lat="47.22824" lon="7.73303">
        <ele>418.8</ele>
        <time>2022-10-01T13:22:38Z</time>
      </trkpt>
      <trkpt lat="47.22829" lon="7.73304">
        <ele>418.9</ele>
        <time>2022-10-01T13:22:39Z</time>
      </trkpt>
      <trkpt lat="47.22832" lon="7.73307">
        <ele>418.9</ele>
        <time>2022-10-01T13:22:40Z</time>
      </trkpt>
      <trkpt lat="47.22834" lon="7.73309">
        <ele>419</ele>
        <time>2022-10-01T13:22:41Z</time>
      </trkpt>
      <trkpt lat="47.22837" lon="7.73311">
        <ele>419</ele>
        <time>2022-10-01T13:22:42Z</time>
      </trkpt>
      <trkpt lat="47.2284" lon="7.73312">
        <ele>419.1</ele>
        <time>2022-10-01T13:22:43Z</time>
      </trkpt>
      <trkpt lat="47.22843" lon="7.73314">
        <ele>419.2</ele>
        <time>2022-10-01T13:22:44Z</time>
      </trkpt>
      <trkpt lat="47.22847" lon="7.73315">
        <ele>419.2</ele>
        <time>2022-10-01T13:22:45Z</time>
      </trkpt>
      <trkpt lat="47.2285" lon="7.73316">
        <ele>419.3</ele>
        <time>2022-10-01T13:22:46Z</time>
      </trkpt>
      <trkpt lat="47.22854" lon="7.73316">
        <ele>419.3</ele>
        <time>2022-10-01T13:22:47Z</time>
      </trkpt>
      <trkpt lat="47.22858" lon="7.73317">
        <ele>419.4</ele>
        <time>2022-10-01T13:22:48Z</time>
      </trkpt>
      <trkpt lat="47.22862" lon="7.73317">
        <ele>419.4</ele>
        <time>2022-10-01T13:22:49Z</time>
      </trkpt>
      <trkpt lat="47.22865" lon="7.73316">
        <ele>419.4</ele>
        <time>2022-10-01T13:22:50Z</time>
      </trkpt>
      <trkpt lat="47.22869" lon="7.73317">
        <ele>419.5</ele>
        <time>2022-10-01T13:22:51Z</time>
      </trkpt>
      <trkpt lat="47.22874" lon="7.73316">
        <ele>419.5</ele>
        <time>2022-10-01T13:22:52Z</time>
      </trkpt>
      <trkpt lat="47.22878" lon="7.73315">
        <ele>419.6</ele>
        <time>2022-10-01T13:22:53Z</time>
      </trkpt>
      <trkpt lat="47.22881" lon="7.73316">
        <ele>419.6</ele>
        <time>2022-10-01T13:22:54Z</time>
      </trkpt>
      <trkpt lat="47.22885" lon="7.73317">
        <ele>419.7</ele>
        <time>2022-10-01T13:22:55Z</time>
      </trkpt>
      <trkpt lat="47.22889" lon="7.73318">
        <ele>419.7</ele>
        <time>2022-10-01T13:22:56Z</time>
      </trkpt>
      <trkpt lat="47.22892" lon="7.73318">
        <ele>419.7</ele>
        <time>2022-10-01T13:22:57Z</time>
      </trkpt>
      <trkpt lat="47.22896" lon="7.7332">
        <ele>419.8</ele>
        <time>2022-10-01T13:22:58Z</time>
      </trkpt>
      <trkpt lat="47.22897" lon="7.73321">
        <ele>419.8</ele>
        <time>2022-10-01T13:22:59Z</time>
      </trkpt>
      <trkpt lat="47.229" lon="7.73323">
        <ele>419.8</ele>
        <time>2022-10-01T13:23:00Z</time>
      </trkpt>
      <trkpt lat="47.22901" lon="7.73324">
        <ele>419.9</ele>
        <time>2022-10-01T13:23:01Z</time>
      </trkpt>
      <trkpt lat="47.22903" lon="7.73329">
        <ele>419.9</ele>
        <time>2022-10-01T13:23:02Z</time>
      </trkpt>
      <trkpt lat="47.22903" lon="7.7333">
        <ele>419.9</ele>
        <time>2022-10-01T13:23:03Z</time>
      </trkpt>
      <trkpt lat="47.22903" lon="7.73335">
        <ele>419.9</ele>
        <time>2022-10-01T13:23:04Z</time>
      </trkpt>
      <trkpt lat="47.22901" lon="7.73338">
        <ele>419.8</ele>
        <time>2022-10-01T13:23:05Z</time>
      </trkpt>
      <trkpt lat="47.22898" lon="7.73341">
        <ele>419.8</ele>
        <time>2022-10-01T13:23:06Z</time>
      </trkpt>
      <trkpt lat="47.22895" lon="7.73343">
        <ele>419.8</ele>
        <time>2022-10-01T13:23:07Z</time>
      </trkpt>
      <trkpt lat="47.22892" lon="7.73345">
        <ele>419.8</ele>
        <time>2022-10-01T13:23:08Z</time>
      </trkpt>
      <trkpt lat="47.22889" lon="7.73347">
        <ele>419.7</ele>
        <time>2022-10-01T13:23:09Z</time>
      </trkpt>
      <trkpt lat="47.22886" lon="7.7335">
        <ele>419.7</ele>
        <time>2022-10-01T13:23:10Z</time>
      </trkpt>
      <trkpt lat="47.22882" lon="7.73351">
        <ele>419.7</ele>
        <time>2022-10-01T13:23:11Z</time>
      </trkpt>
      <trkpt lat="47.22877" lon="7.73353">
        <ele>419.6</ele>
        <time>2022-10-01T13:23:12Z</time>
      </trkpt>
      <trkpt lat="47.22875" lon="7.73354">
        <ele>419.6</ele>
        <time>2022-10-01T13:23:13Z</time>
      </trkpt>
      <trkpt lat="47.22871" lon="7.73356">
        <ele>419.6</ele>
        <time>2022-10-01T13:23:14Z</time>
      </trkpt>
      <trkpt lat="47.22867" lon="7.73358">
        <ele>419.6</ele>
        <time>2022-10-01T13:23:15Z</time>
      </trkpt>
      <trkpt lat="47.22863" lon="7.7336">
        <ele>419.6</ele>
        <time>2022-10-01T13:23:16Z</time>
      </trkpt>
      <trkpt lat="47.22859" lon="7.73361">
        <ele>419.6</ele>
        <time>2022-10-01T13:23:17Z</time>
      </trkpt>
      <trkpt lat="47.22856" lon="7.73362">
        <ele>419.6</ele>
        <time>2022-10-01T13:23:18Z</time>
      </trkpt>
      <trkpt lat="47.22853" lon="7.73364">
        <ele>419.6</ele>
        <time>2022-10-01T13:23:19Z</time>
      </trkpt>
      <trkpt lat="47.22849" lon="7.73365">
        <ele>419.7</ele>
        <time>2022-10-01T13:23:20Z</time>
      </trkpt>
      <trkpt lat="47.22846" lon="7.73367">
        <ele>419.7</ele>
        <time>2022-10-01T13:23:21Z</time>
      </trkpt>
      <trkpt lat="47.22843" lon="7.73369">
        <ele>419.7</ele>
        <time>2022-10-01T13:23:22Z</time>
      </trkpt>
      <trkpt lat="47.2284" lon="7.73371">
        <ele>419.7</ele>
        <time>2022-10-01T13:23:23Z</time>
      </trkpt>
      <trkpt lat="47.22839" lon="7.73372">
        <ele>419.7</ele>
        <time>2022-10-01T13:23:24Z</time>
      </trkpt>
      <trkpt lat="47.22836" lon="7.73374">
        <ele>419.7</ele>
        <time>2022-10-01T13:23:25Z</time>
      </trkpt>
      <trkpt lat="47.22835" lon="7.73374">
        <ele>419.7</ele>
        <time>2022-10-01T13:23:26Z</time>
      </trkpt>
      <trkpt lat="47.22832" lon="7.73376">
        <ele>419.8</ele>
        <time>2022-10-01T13:23:27Z</time>
      </trkpt>
      <trkpt lat="47.22831" lon="7.73377">
        <ele>419.8</ele>
        <time>2022-10-01T13:23:28Z</time>
      </trkpt>
      <trkpt lat="47.2283" lon="7.73379">
        <ele>419.8</ele>
        <time>2022-10-01T13:23:29Z</time>
      </trkpt>
      <trkpt lat="47.22829" lon="7.73381">
        <ele>419.9</ele>
        <time>2022-10-01T13:23:30Z</time>
      </trkpt>
      <trkpt lat="47.22829" lon="7.73386">
        <ele>420</ele>
        <time>2022-10-01T13:23:31Z</time>
      </trkpt>
      <trkpt lat="47.2283" lon="7.73389">
        <ele>420</ele>
        <time>2022-10-01T13:23:32Z</time>
      </trkpt>
      <trkpt lat="47.22832" lon="7.73392">
        <ele>420.1</ele>
        <time>2022-10-01T13:23:33Z</time>
      </trkpt>
      <trkpt lat="47.22834" lon="7.73395">
        <ele>420.1</ele>
        <time>2022-10-01T13:23:34Z</time>
      </trkpt>
      <trkpt lat="47.22837" lon="7.73399">
        <ele>420.2</ele>
        <time>2022-10-01T13:23:35Z</time>
      </trkpt>
      <trkpt lat="47.22841" lon="7.73401">
        <ele>420.3</ele>
        <time>2022-10-01T13:23:36Z</time>
      </trkpt>
      <trkpt lat="47.22844" lon="7.73404">
        <ele>420.5</ele>
        <time>2022-10-01T13:23:37Z</time>
      </trkpt>
      <trkpt lat="47.22846" lon="7.73408">
        <ele>420.7</ele>
        <time>2022-10-01T13:23:38Z</time>
      </trkpt>
      <trkpt lat="47.22849" lon="7.73411">
        <ele>420.9</ele>
        <time>2022-10-01T13:23:39Z</time>
      </trkpt>
      <trkpt lat="47.22852" lon="7.73414">
        <ele>421.1</ele>
        <time>2022-10-01T13:23:40Z</time>
      </trkpt>
      <trkpt lat="47.22856" lon="7.73417">
        <ele>421.4</ele>
        <time>2022-10-01T13:23:41Z</time>
      </trkpt>
      <trkpt lat="47.22859" lon="7.73419">
        <ele>421.6</ele>
        <time>2022-10-01T13:23:42Z</time>
      </trkpt>
      <trkpt lat="47.22862" lon="7.73421">
        <ele>422</ele>
        <time>2022-10-01T13:23:43Z</time>
      </trkpt>
      <trkpt lat="47.22865" lon="7.73424">
        <ele>422.3</ele>
        <time>2022-10-01T13:23:44Z</time>
      </trkpt>
      <trkpt lat="47.22866" lon="7.73425">
        <ele>422.5</ele>
        <time>2022-10-01T13:23:45Z</time>
      </trkpt>
      <trkpt lat="47.22869" lon="7.73427">
        <ele>422.9</ele>
        <time>2022-10-01T13:23:46Z</time>
      </trkpt>
      <trkpt lat="47.2287" lon="7.73427">
        <ele>422.9</ele>
        <time>2022-10-01T13:23:47Z</time>
      </trkpt>
      <trkpt lat="47.22871" lon="7.7343">
        <ele>423.2</ele>
        <time>2022-10-01T13:23:48Z</time>
      </trkpt>
      <trkpt lat="47.22872" lon="7.73431">
        <ele>423.4</ele>
        <time>2022-10-01T13:23:49Z</time>
      </trkpt>
      <trkpt lat="47.22873" lon="7.73432">
        <ele>423.5</ele>
        <time>2022-10-01T13:23:50Z</time>
      </trkpt>
      <trkpt lat="47.22875" lon="7.73432">
        <ele>423.7</ele>
        <time>2022-10-01T13:23:51Z</time>
      </trkpt>
      <trkpt lat="47.22876" lon="7.73433">
        <ele>423.9</ele>
        <time>2022-10-01T13:23:52Z</time>
      </trkpt>
      <trkpt lat="47.22877" lon="7.73435">
        <ele>424.1</ele>
        <time>2022-10-01T13:23:53Z</time>
      </trkpt>
      <trkpt lat="47.22879" lon="7.73436">
        <ele>424.3</ele>
        <time>2022-10-01T13:23:54Z</time>
      </trkpt>
      <trkpt lat="47.2288" lon="7.73437">
        <ele>424.5</ele>
        <time>2022-10-01T13:23:55Z</time>
      </trkpt>
      <trkpt lat="47.22881" lon="7.73438">
        <ele>424.8</ele>
        <time>2022-10-01T13:23:56Z</time>
      </trkpt>
      <trkpt lat="47.22882" lon="7.73439">
        <ele>425</ele>
        <time>2022-10-01T13:23:57Z</time>
      </trkpt>
      <trkpt lat="47.22884" lon="7.73442">
        <ele>425.4</ele>
        <time>2022-10-01T13:23:58Z</time>
      </trkpt>
      <trkpt lat="47.22885" lon="7.73443">
        <ele>425.6</ele>
        <time>2022-10-01T13:23:59Z</time>
      </trkpt>
      <trkpt lat="47.22886" lon="7.73446">
        <ele>425.9</ele>
        <time>2022-10-01T13:24:00Z</time>
      </trkpt>
      <trkpt lat="47.22887" lon="7.73447">
        <ele>426.1</ele>
        <time>2022-10-01T13:24:01Z</time>
      </trkpt>
      <trkpt lat="47.22888" lon="7.73448">
        <ele>426.2</ele>
        <time>2022-10-01T13:24:02Z</time>
      </trkpt>
      <trkpt lat="47.22889" lon="7.7345">
        <ele>426.6</ele>
        <time>2022-10-01T13:24:03Z</time>
      </trkpt>
      <trkpt lat="47.2289" lon="7.73451">
        <ele>426.7</ele>
        <time>2022-10-01T13:24:04Z</time>
      </trkpt>
      <trkpt lat="47.22891" lon="7.73452">
        <ele>426.8</ele>
        <time>2022-10-01T13:24:05Z</time>
      </trkpt>
      <trkpt lat="47.22893" lon="7.73455">
        <ele>427.3</ele>
        <time>2022-10-01T13:24:06Z</time>
      </trkpt>
      <trkpt lat="47.22893" lon="7.73456">
        <ele>427.5</ele>
        <time>2022-10-01T13:24:07Z</time>
      </trkpt>
      <trkpt lat="47.22894" lon="7.73458">
        <ele>427.7</ele>
        <time>2022-10-01T13:24:08Z</time>
      </trkpt>
      <trkpt lat="47.22895" lon="7.7346">
        <ele>428</ele>
        <time>2022-10-01T13:24:09Z</time>
      </trkpt>
      <trkpt lat="47.22897" lon="7.73462">
        <ele>428.5</ele>
        <time>2022-10-01T13:24:10Z</time>
      </trkpt>
      <trkpt lat="47.22898" lon="7.73463">
        <ele>428.6</ele>
        <time>2022-10-01T13:24:11Z</time>
      </trkpt>
      <trkpt lat="47.229" lon="7.73465">
        <ele>429</ele>
        <time>2022-10-01T13:24:12Z</time>
      </trkpt>
      <trkpt lat="47.229" lon="7.73467">
        <ele>429.2</ele>
        <time>2022-10-01T13:24:13Z</time>
      </trkpt>
      <trkpt lat="47.22901" lon="7.73468">
        <ele>429.4</ele>
        <time>2022-10-01T13:24:14Z</time>
      </trkpt>
      <trkpt lat="47.22901" lon="7.7347">
        <ele>429.6</ele>
        <time>2022-10-01T13:24:15Z</time>
      </trkpt>
      <trkpt lat="47.22903" lon="7.73473">
        <ele>430</ele>
        <time>2022-10-01T13:24:16Z</time>
      </trkpt>
      <trkpt lat="47.22903" lon="7.73474">
        <ele>430.2</ele>
        <time>2022-10-01T13:24:17Z</time>
      </trkpt>
      <trkpt lat="47.22904" lon="7.73477">
        <ele>430.5</ele>
        <time>2022-10-01T13:24:18Z</time>
      </trkpt>
      <trkpt lat="47.22905" lon="7.73478">
        <ele>430.7</ele>
        <time>2022-10-01T13:24:19Z</time>
      </trkpt>
      <trkpt lat="47.22906" lon="7.7348">
        <ele>431</ele>
        <time>2022-10-01T13:24:20Z</time>
      </trkpt>
      <trkpt lat="47.22907" lon="7.73482">
        <ele>431.2</ele>
        <time>2022-10-01T13:24:21Z</time>
      </trkpt>
      <trkpt lat="47.22908" lon="7.73483">
        <ele>431.4</ele>
        <time>2022-10-01T13:24:22Z</time>
      </trkpt>
      <trkpt lat="47.22909" lon="7.73487">
        <ele>431.9</ele>
        <time>2022-10-01T13:24:23Z</time>
      </trkpt>
      <trkpt lat="47.2291" lon="7.73488">
        <ele>432</ele>
        <time>2022-10-01T13:24:24Z</time>
      </trkpt>
      <trkpt lat="47.22911" lon="7.73491">
        <ele>432.3</ele>
        <time>2022-10-01T13:24:25Z</time>
      </trkpt>
      <trkpt lat="47.22911" lon="7.73492">
        <ele>432.5</ele>
        <time>2022-10-01T13:24:26Z</time>
      </trkpt>
      <trkpt lat="47.22912" lon="7.73493">
        <ele>432.6</ele>
        <time>2022-10-01T13:24:27Z</time>
      </trkpt>
      <trkpt lat="47.22913" lon="7.73496">
        <ele>433</ele>
        <time>2022-10-01T13:24:28Z</time>
      </trkpt>
      <trkpt lat="47.22914" lon="7.73498">
        <ele>433.1</ele>
        <time>2022-10-01T13:24:29Z</time>
      </trkpt>
      <trkpt lat="47.22915" lon="7.73499">
        <ele>433.3</ele>
        <time>2022-10-01T13:24:30Z</time>
      </trkpt>
      <trkpt lat="47.22915" lon="7.73502">
        <ele>433.6</ele>
        <time>2022-10-01T13:24:31Z</time>
      </trkpt>
      <trkpt lat="47.22916" lon="7.73505">
        <ele>433.9</ele>
        <time>2022-10-01T13:24:32Z</time>
      </trkpt>
      <trkpt lat="47.22917" lon="7.73506">
        <ele>434</ele>
        <time>2022-10-01T13:24:33Z</time>
      </trkpt>
      <trkpt lat="47.22918" lon="7.73509">
        <ele>434.4</ele>
        <time>2022-10-01T13:24:34Z</time>
      </trkpt>
      <trkpt lat="47.22919" lon="7.7351">
        <ele>434.5</ele>
        <time>2022-10-01T13:24:35Z</time>
      </trkpt>
      <trkpt lat="47.2292" lon="7.73513">
        <ele>434.8</ele>
        <time>2022-10-01T13:24:36Z</time>
      </trkpt>
      <trkpt lat="47.2292" lon="7.73514">
        <ele>435</ele>
        <time>2022-10-01T13:24:37Z</time>
      </trkpt>
      <trkpt lat="47.22921" lon="7.73517">
        <ele>435.2</ele>
        <time>2022-10-01T13:24:38Z</time>
      </trkpt>
      <trkpt lat="47.22922" lon="7.73518">
        <ele>435.4</ele>
        <time>2022-10-01T13:24:39Z</time>
      </trkpt>
      <trkpt lat="47.22923" lon="7.7352">
        <ele>435.6</ele>
        <time>2022-10-01T13:24:40Z</time>
      </trkpt>
      <trkpt lat="47.22924" lon="7.73523">
        <ele>435.8</ele>
        <time>2022-10-01T13:24:41Z</time>
      </trkpt>
      <trkpt lat="47.22924" lon="7.73524">
        <ele>435.9</ele>
        <time>2022-10-01T13:24:42Z</time>
      </trkpt>
      <trkpt lat="47.22924" lon="7.73526">
        <ele>436.1</ele>
        <time>2022-10-01T13:24:43Z</time>
      </trkpt>
      <trkpt lat="47.22925" lon="7.73529">
        <ele>436.4</ele>
        <time>2022-10-01T13:24:44Z</time>
      </trkpt>
      <trkpt lat="47.22926" lon="7.73531">
        <ele>436.6</ele>
        <time>2022-10-01T13:24:45Z</time>
      </trkpt>
      <trkpt lat="47.22927" lon="7.73534">
        <ele>436.9</ele>
        <time>2022-10-01T13:24:46Z</time>
      </trkpt>
      <trkpt lat="47.22927" lon="7.73535">
        <ele>437</ele>
        <time>2022-10-01T13:24:47Z</time>
      </trkpt>
      <trkpt lat="47.22928" lon="7.73538">
        <ele>437.3</ele>
        <time>2022-10-01T13:24:48Z</time>
      </trkpt>
      <trkpt lat="47.22929" lon="7.7354">
        <ele>437.5</ele>
        <time>2022-10-01T13:24:49Z</time>
      </trkpt>
      <trkpt lat="47.2293" lon="7.73543">
        <ele>437.8</ele>
        <time>2022-10-01T13:24:50Z</time>
      </trkpt>
      <trkpt lat="47.2293" lon="7.73544">
        <ele>437.9</ele>
        <time>2022-10-01T13:24:51Z</time>
      </trkpt>
      <trkpt lat="47.22931" lon="7.73546">
        <ele>438.1</ele>
        <time>2022-10-01T13:24:52Z</time>
      </trkpt>
      <trkpt lat="47.22932" lon="7.73549">
        <ele>438.3</ele>
        <time>2022-10-01T13:24:53Z</time>
      </trkpt>
      <trkpt lat="47.22933" lon="7.73552">
        <ele>438.6</ele>
        <time>2022-10-01T13:24:54Z</time>
      </trkpt>
      <trkpt lat="47.22934" lon="7.73553">
        <ele>438.8</ele>
        <time>2022-10-01T13:24:55Z</time>
      </trkpt>
      <trkpt lat="47.22934" lon="7.73554">
        <ele>438.9</ele>
        <time>2022-10-01T13:24:56Z</time>
      </trkpt>
      <trkpt lat="47.22936" lon="7.73558">
        <ele>439.2</ele>
        <time>2022-10-01T13:24:57Z</time>
      </trkpt>
      <trkpt lat="47.22936" lon="7.73559">
        <ele>439.3</ele>
        <time>2022-10-01T13:24:58Z</time>
      </trkpt>
      <trkpt lat="47.22937" lon="7.73561">
        <ele>439.6</ele>
        <time>2022-10-01T13:24:59Z</time>
      </trkpt>
      <trkpt lat="47.22938" lon="7.73562">
        <ele>439.7</ele>
        <time>2022-10-01T13:25:00Z</time>
      </trkpt>
      <trkpt lat="47.22938" lon="7.73564">
        <ele>439.8</ele>
        <time>2022-10-01T13:25:01Z</time>
      </trkpt>
      <trkpt lat="47.22939" lon="7.73566">
        <ele>440</ele>
        <time>2022-10-01T13:25:02Z</time>
      </trkpt>
      <trkpt lat="47.22939" lon="7.73568">
        <ele>440.1</ele>
        <time>2022-10-01T13:25:03Z</time>
      </trkpt>
      <trkpt lat="47.22941" lon="7.73571">
        <ele>440.4</ele>
        <time>2022-10-01T13:25:04Z</time>
      </trkpt>
      <trkpt lat="47.22941" lon="7.73573">
        <ele>440.5</ele>
        <time>2022-10-01T13:25:05Z</time>
      </trkpt>
      <trkpt lat="47.22942" lon="7.73576">
        <ele>440.8</ele>
        <time>2022-10-01T13:25:06Z</time>
      </trkpt>
      <trkpt lat="47.22943" lon="7.73578">
        <ele>440.9</ele>
        <time>2022-10-01T13:25:07Z</time>
      </trkpt>
      <trkpt lat="47.22943" lon="7.73581">
        <ele>441</ele>
        <time>2022-10-01T13:25:08Z</time>
      </trkpt>
      <trkpt lat="47.22944" lon="7.73582">
        <ele>441.1</ele>
        <time>2022-10-01T13:25:09Z</time>
      </trkpt>
      <trkpt lat="47.22945" lon="7.73585">
        <ele>441.3</ele>
        <time>2022-10-01T13:25:10Z</time>
      </trkpt>
      <trkpt lat="47.22945" lon="7.73586">
        <ele>441.4</ele>
        <time>2022-10-01T13:25:11Z</time>
      </trkpt>
      <trkpt lat="47.22946" lon="7.73587">
        <ele>441.5</ele>
        <time>2022-10-01T13:25:12Z</time>
      </trkpt>
      <trkpt lat="47.22947" lon="7.73589">
        <ele>441.7</ele>
        <time>2022-10-01T13:25:13Z</time>
      </trkpt>
      <trkpt lat="47.22948" lon="7.73592">
        <ele>441.8</ele>
        <time>2022-10-01T13:25:14Z</time>
      </trkpt>
      <trkpt lat="47.22949" lon="7.73593">
        <ele>441.9</ele>
        <time>2022-10-01T13:25:15Z</time>
      </trkpt>
      <trkpt lat="47.22949" lon="7.73595">
        <ele>442</ele>
        <time>2022-10-01T13:25:16Z</time>
      </trkpt>
      <trkpt lat="47.22949" lon="7.73597">
        <ele>442.1</ele>
        <time>2022-10-01T13:25:17Z</time>
      </trkpt>
      <trkpt lat="47.2295" lon="7.73599">
        <ele>442.2</ele>
        <time>2022-10-01T13:25:18Z</time>
      </trkpt>
      <trkpt lat="47.22951" lon="7.73602">
        <ele>442.3</ele>
        <time>2022-10-01T13:25:19Z</time>
      </trkpt>
      <trkpt lat="47.22952" lon="7.73603">
        <ele>442.4</ele>
        <time>2022-10-01T13:25:20Z</time>
      </trkpt>
      <trkpt lat="47.22953" lon="7.73605">
        <ele>442.5</ele>
        <time>2022-10-01T13:25:21Z</time>
      </trkpt>
      <trkpt lat="47.22954" lon="7.73607">
        <ele>442.6</ele>
        <time>2022-10-01T13:25:22Z</time>
      </trkpt>
      <trkpt lat="47.22955" lon="7.73609">
        <ele>442.7</ele>
        <time>2022-10-01T13:25:23Z</time>
      </trkpt>
      <trkpt lat="47.22955" lon="7.73611">
        <ele>442.8</ele>
        <time>2022-10-01T13:25:24Z</time>
      </trkpt>
      <trkpt lat="47.22956" lon="7.73613">
        <ele>442.9</ele>
        <time>2022-10-01T13:25:25Z</time>
      </trkpt>
      <trkpt lat="47.22957" lon="7.73615">
        <ele>443</ele>
        <time>2022-10-01T13:25:26Z</time>
      </trkpt>
      <trkpt lat="47.22958" lon="7.73617">
        <ele>443.1</ele>
        <time>2022-10-01T13:25:27Z</time>
      </trkpt>
      <trkpt lat="47.22958" lon="7.7362">
        <ele>443.1</ele>
        <time>2022-10-01T13:25:28Z</time>
      </trkpt>
      <trkpt lat="47.22959" lon="7.73622">
        <ele>443.2</ele>
        <time>2022-10-01T13:25:29Z</time>
      </trkpt>
      <trkpt lat="47.2296" lon="7.73624">
        <ele>443.2</ele>
        <time>2022-10-01T13:25:30Z</time>
      </trkpt>
      <trkpt lat="47.22961" lon="7.73626">
        <ele>443.2</ele>
        <time>2022-10-01T13:25:31Z</time>
      </trkpt>
      <trkpt lat="47.22962" lon="7.73628">
        <ele>443.2</ele>
        <time>2022-10-01T13:25:32Z</time>
      </trkpt>
      <trkpt lat="47.22963" lon="7.7363">
        <ele>443.3</ele>
        <time>2022-10-01T13:25:33Z</time>
      </trkpt>
      <trkpt lat="47.22964" lon="7.73632">
        <ele>443.3</ele>
        <time>2022-10-01T13:25:34Z</time>
      </trkpt>
      <trkpt lat="47.22966" lon="7.73635">
        <ele>443.3</ele>
        <time>2022-10-01T13:25:35Z</time>
      </trkpt>
      <trkpt lat="47.22966" lon="7.73636">
        <ele>443.3</ele>
        <time>2022-10-01T13:25:36Z</time>
      </trkpt>
      <trkpt lat="47.22968" lon="7.73638">
        <ele>443.3</ele>
        <time>2022-10-01T13:25:37Z</time>
      </trkpt>
      <trkpt lat="47.22968" lon="7.7364">
        <ele>443.3</ele>
        <time>2022-10-01T13:25:38Z</time>
      </trkpt>
      <trkpt lat="47.22969" lon="7.73642">
        <ele>443.3</ele>
        <time>2022-10-01T13:25:39Z</time>
      </trkpt>
      <trkpt lat="47.2297" lon="7.73644">
        <ele>443.4</ele>
        <time>2022-10-01T13:25:40Z</time>
      </trkpt>
      <trkpt lat="47.22972" lon="7.73647">
        <ele>443.4</ele>
        <time>2022-10-01T13:25:41Z</time>
      </trkpt>
      <trkpt lat="47.22973" lon="7.73648">
        <ele>443.4</ele>
        <time>2022-10-01T13:25:42Z</time>
      </trkpt>
      <trkpt lat="47.22974" lon="7.73652">
        <ele>443.5</ele>
        <time>2022-10-01T13:25:43Z</time>
      </trkpt>
      <trkpt lat="47.22975" lon="7.73653">
        <ele>443.5</ele>
        <time>2022-10-01T13:25:44Z</time>
      </trkpt>
      <trkpt lat="47.22977" lon="7.73658">
        <ele>443.5</ele>
        <time>2022-10-01T13:25:45Z</time>
      </trkpt>
      <trkpt lat="47.22978" lon="7.7366">
        <ele>443.5</ele>
        <time>2022-10-01T13:25:46Z</time>
      </trkpt>
      <trkpt lat="47.2298" lon="7.73663">
        <ele>443.6</ele>
        <time>2022-10-01T13:25:47Z</time>
      </trkpt>
      <trkpt lat="47.22981" lon="7.73666">
        <ele>443.6</ele>
        <time>2022-10-01T13:25:48Z</time>
      </trkpt>
      <trkpt lat="47.22983" lon="7.73669">
        <ele>443.6</ele>
        <time>2022-10-01T13:25:49Z</time>
      </trkpt>
      <trkpt lat="47.22985" lon="7.73673">
        <ele>443.6</ele>
        <time>2022-10-01T13:25:50Z</time>
      </trkpt>
      <trkpt lat="47.22988" lon="7.73677">
        <ele>443.6</ele>
        <time>2022-10-01T13:25:51Z</time>
      </trkpt>
      <trkpt lat="47.2299" lon="7.73681">
        <ele>443.7</ele>
        <time>2022-10-01T13:25:52Z</time>
      </trkpt>
      <trkpt lat="47.22992" lon="7.73684">
        <ele>443.7</ele>
        <time>2022-10-01T13:25:53Z</time>
      </trkpt>
      <trkpt lat="47.22994" lon="7.73689">
        <ele>443.7</ele>
        <time>2022-10-01T13:25:54Z</time>
      </trkpt>
      <trkpt lat="47.22997" lon="7.73693">
        <ele>443.7</ele>
        <time>2022-10-01T13:25:55Z</time>
      </trkpt>
      <trkpt lat="47.23" lon="7.73698">
        <ele>443.7</ele>
        <time>2022-10-01T13:25:56Z</time>
      </trkpt>
      <trkpt lat="47.23002" lon="7.73702">
        <ele>443.7</ele>
        <time>2022-10-01T13:25:57Z</time>
      </trkpt>
      <trkpt lat="47.23005" lon="7.73705">
        <ele>443.6</ele>
        <time>2022-10-01T13:25:58Z</time>
      </trkpt>
      <trkpt lat="47.23007" lon="7.7371">
        <ele>443.6</ele>
        <time>2022-10-01T13:25:59Z</time>
      </trkpt>
      <trkpt lat="47.2301" lon="7.73714">
        <ele>443.5</ele>
        <time>2022-10-01T13:26:00Z</time>
      </trkpt>
      <trkpt lat="47.23012" lon="7.73719">
        <ele>443.5</ele>
        <time>2022-10-01T13:26:01Z</time>
      </trkpt>
      <trkpt lat="47.23014" lon="7.73723">
        <ele>443.4</ele>
        <time>2022-10-01T13:26:02Z</time>
      </trkpt>
      <trkpt lat="47.23017" lon="7.73728">
        <ele>443.3</ele>
        <time>2022-10-01T13:26:03Z</time>
      </trkpt>
      <trkpt lat="47.2302" lon="7.73733">
        <ele>443.2</ele>
        <time>2022-10-01T13:26:04Z</time>
      </trkpt>
      <trkpt lat="47.23022" lon="7.73738">
        <ele>443.1</ele>
        <time>2022-10-01T13:26:05Z</time>
      </trkpt>
      <trkpt lat="47.23024" lon="7.73742">
        <ele>442.9</ele>
        <time>2022-10-01T13:26:06Z</time>
      </trkpt>
      <trkpt lat="47.23025" lon="7.73748">
        <ele>442.8</ele>
        <time>2022-10-01T13:26:07Z</time>
      </trkpt>
      <trkpt lat="47.23027" lon="7.73753">
        <ele>442.6</ele>
        <time>2022-10-01T13:26:08Z</time>
      </trkpt>
      <trkpt lat="47.23029" lon="7.7376">
        <ele>442.5</ele>
        <time>2022-10-01T13:26:09Z</time>
      </trkpt>
      <trkpt lat="47.23031" lon="7.73765">
        <ele>442.3</ele>
        <time>2022-10-01T13:26:10Z</time>
      </trkpt>
      <trkpt lat="47.23032" lon="7.73771">
        <ele>442.1</ele>
        <time>2022-10-01T13:26:11Z</time>
      </trkpt>
      <trkpt lat="47.23034" lon="7.73779">
        <ele>442</ele>
        <time>2022-10-01T13:26:12Z</time>
      </trkpt>
      <trkpt lat="47.23036" lon="7.73786">
        <ele>441.8</ele>
        <time>2022-10-01T13:26:13Z</time>
      </trkpt>
      <trkpt lat="47.23039" lon="7.73793">
        <ele>441.6</ele>
        <time>2022-10-01T13:26:14Z</time>
      </trkpt>
      <trkpt lat="47.23041" lon="7.73802">
        <ele>441.5</ele>
        <time>2022-10-01T13:26:15Z</time>
      </trkpt>
      <trkpt lat="47.23043" lon="7.73809">
        <ele>441.3</ele>
        <time>2022-10-01T13:26:16Z</time>
      </trkpt>
      <trkpt lat="47.23046" lon="7.73817">
        <ele>441.3</ele>
        <time>2022-10-01T13:26:17Z</time>
      </trkpt>
      <trkpt lat="47.2305" lon="7.73825">
        <ele>441.2</ele>
        <time>2022-10-01T13:26:18Z</time>
      </trkpt>
      <trkpt lat="47.23052" lon="7.7383">
        <ele>441.2</ele>
        <time>2022-10-01T13:26:19Z</time>
      </trkpt>
      <trkpt lat="47.23054" lon="7.73837">
        <ele>441.2</ele>
        <time>2022-10-01T13:26:20Z</time>
      </trkpt>
      <trkpt lat="47.23058" lon="7.73843">
        <ele>441.2</ele>
        <time>2022-10-01T13:26:21Z</time>
      </trkpt>
      <trkpt lat="47.23061" lon="7.73849">
        <ele>441.2</ele>
        <time>2022-10-01T13:26:22Z</time>
      </trkpt>
      <trkpt lat="47.23062" lon="7.73853">
        <ele>441.2</ele>
        <time>2022-10-01T13:26:23Z</time>
      </trkpt>
      <trkpt lat="47.23065" lon="7.73859">
        <ele>441.2</ele>
        <time>2022-10-01T13:26:24Z</time>
      </trkpt>
      <trkpt lat="47.23068" lon="7.73866">
        <ele>441.3</ele>
        <time>2022-10-01T13:26:25Z</time>
      </trkpt>
      <trkpt lat="47.23071" lon="7.73871">
        <ele>441.3</ele>
        <time>2022-10-01T13:26:26Z</time>
      </trkpt>
      <trkpt lat="47.23074" lon="7.73877">
        <ele>441.4</ele>
        <time>2022-10-01T13:26:27Z</time>
      </trkpt>
      <trkpt lat="47.23077" lon="7.73883">
        <ele>441.5</ele>
        <time>2022-10-01T13:26:28Z</time>
      </trkpt>
      <trkpt lat="47.2308" lon="7.73889">
        <ele>441.6</ele>
        <time>2022-10-01T13:26:29Z</time>
      </trkpt>
      <trkpt lat="47.23083" lon="7.73896">
        <ele>441.7</ele>
        <time>2022-10-01T13:26:30Z</time>
      </trkpt>
      <trkpt lat="47.23086" lon="7.73902">
        <ele>441.8</ele>
        <time>2022-10-01T13:26:31Z</time>
      </trkpt>
      <trkpt lat="47.23089" lon="7.73907">
        <ele>441.9</ele>
        <time>2022-10-01T13:26:32Z</time>
      </trkpt>
      <trkpt lat="47.23091" lon="7.73912">
        <ele>441.9</ele>
        <time>2022-10-01T13:26:33Z</time>
      </trkpt>
      <trkpt lat="47.23093" lon="7.73917">
        <ele>442</ele>
        <time>2022-10-01T13:26:34Z</time>
      </trkpt>
      <trkpt lat="47.23095" lon="7.73922">
        <ele>442</ele>
        <time>2022-10-01T13:26:35Z</time>
      </trkpt>
      <trkpt lat="47.23096" lon="7.73927">
        <ele>442</ele>
        <time>2022-10-01T13:26:36Z</time>
      </trkpt>
      <trkpt lat="47.23097" lon="7.73932">
        <ele>442</ele>
        <time>2022-10-01T13:26:37Z</time>
      </trkpt>
      <trkpt lat="47.23098" lon="7.73937">
        <ele>442</ele>
        <time>2022-10-01T13:26:38Z</time>
      </trkpt>
      <trkpt lat="47.23099" lon="7.73943">
        <ele>442.1</ele>
        <time>2022-10-01T13:26:39Z</time>
      </trkpt>
      <trkpt lat="47.231" lon="7.73947">
        <ele>442.1</ele>
        <time>2022-10-01T13:26:40Z</time>
      </trkpt>
      <trkpt lat="47.23101" lon="7.73953">
        <ele>442.1</ele>
        <time>2022-10-01T13:26:41Z</time>
      </trkpt>
      <trkpt lat="47.23101" lon="7.7396">
        <ele>442.2</ele>
        <time>2022-10-01T13:26:42Z</time>
      </trkpt>
      <trkpt lat="47.231" lon="7.73965">
        <ele>442.2</ele>
        <time>2022-10-01T13:26:43Z</time>
      </trkpt>
      <trkpt lat="47.23101" lon="7.73971">
        <ele>442.2</ele>
        <time>2022-10-01T13:26:44Z</time>
      </trkpt>
      <trkpt lat="47.23102" lon="7.73977">
        <ele>442.2</ele>
        <time>2022-10-01T13:26:45Z</time>
      </trkpt>
      <trkpt lat="47.23103" lon="7.73984">
        <ele>442.3</ele>
        <time>2022-10-01T13:26:46Z</time>
      </trkpt>
      <trkpt lat="47.23103" lon="7.7399">
        <ele>442.3</ele>
        <time>2022-10-01T13:26:47Z</time>
      </trkpt>
      <trkpt lat="47.23104" lon="7.73997">
        <ele>442.3</ele>
        <time>2022-10-01T13:26:48Z</time>
      </trkpt>
      <trkpt lat="47.23105" lon="7.74004">
        <ele>442.3</ele>
        <time>2022-10-01T13:26:49Z</time>
      </trkpt>
      <trkpt lat="47.23106" lon="7.7401">
        <ele>442.3</ele>
        <time>2022-10-01T13:26:50Z</time>
      </trkpt>
      <trkpt lat="47.23107" lon="7.74016">
        <ele>442.3</ele>
        <time>2022-10-01T13:26:52Z</time>
      </trkpt>
      <trkpt lat="47.23108" lon="7.74022">
        <ele>442.3</ele>
        <time>2022-10-01T13:26:53Z</time>
      </trkpt>
      <trkpt lat="47.23109" lon="7.7403">
        <ele>442.3</ele>
        <time>2022-10-01T13:26:54Z</time>
      </trkpt>
      <trkpt lat="47.23112" lon="7.74036">
        <ele>442.3</ele>
        <time>2022-10-01T13:26:55Z</time>
      </trkpt>
      <trkpt lat="47.23113" lon="7.74043">
        <ele>442.3</ele>
        <time>2022-10-01T13:26:56Z</time>
      </trkpt>
      <trkpt lat="47.23114" lon="7.7405">
        <ele>442.4</ele>
        <time>2022-10-01T13:26:57Z</time>
      </trkpt>
      <trkpt lat="47.23115" lon="7.74058">
        <ele>442.4</ele>
        <time>2022-10-01T13:26:58Z</time>
      </trkpt>
      <trkpt lat="47.23117" lon="7.74065">
        <ele>442.4</ele>
        <time>2022-10-01T13:26:59Z</time>
      </trkpt>
      <trkpt lat="47.23119" lon="7.74071">
        <ele>442.4</ele>
        <time>2022-10-01T13:27:00Z</time>
      </trkpt>
      <trkpt lat="47.23121" lon="7.74078">
        <ele>442.4</ele>
        <time>2022-10-01T13:27:01Z</time>
      </trkpt>
      <trkpt lat="47.23123" lon="7.74085">
        <ele>442.4</ele>
        <time>2022-10-01T13:27:02Z</time>
      </trkpt>
      <trkpt lat="47.23125" lon="7.74092">
        <ele>442.4</ele>
        <time>2022-10-01T13:27:03Z</time>
      </trkpt>
      <trkpt lat="47.23127" lon="7.74099">
        <ele>442.5</ele>
        <time>2022-10-01T13:27:04Z</time>
      </trkpt>
      <trkpt lat="47.23129" lon="7.74106">
        <ele>442.5</ele>
        <time>2022-10-01T13:27:05Z</time>
      </trkpt>
      <trkpt lat="47.23131" lon="7.74113">
        <ele>442.5</ele>
        <time>2022-10-01T13:27:06Z</time>
      </trkpt>
      <trkpt lat="47.23132" lon="7.7412">
        <ele>442.5</ele>
        <time>2022-10-01T13:27:07Z</time>
      </trkpt>
      <trkpt lat="47.23134" lon="7.74128">
        <ele>442.5</ele>
        <time>2022-10-01T13:27:08Z</time>
      </trkpt>
      <trkpt lat="47.23136" lon="7.74135">
        <ele>442.5</ele>
        <time>2022-10-01T13:27:09Z</time>
      </trkpt>
      <trkpt lat="47.23138" lon="7.74142">
        <ele>442.5</ele>
        <time>2022-10-01T13:27:10Z</time>
      </trkpt>
      <trkpt lat="47.2314" lon="7.74149">
        <ele>442.5</ele>
        <time>2022-10-01T13:27:11Z</time>
      </trkpt>
      <trkpt lat="47.23142" lon="7.74156">
        <ele>442.5</ele>
        <time>2022-10-01T13:27:12Z</time>
      </trkpt>
      <trkpt lat="47.23144" lon="7.74163">
        <ele>442.5</ele>
        <time>2022-10-01T13:27:13Z</time>
      </trkpt>
      <trkpt lat="47.23145" lon="7.74171">
        <ele>442.5</ele>
        <time>2022-10-01T13:27:14Z</time>
      </trkpt>
      <trkpt lat="47.23147" lon="7.74179">
        <ele>442.5</ele>
        <time>2022-10-01T13:27:15Z</time>
      </trkpt>
      <trkpt lat="47.23149" lon="7.74186">
        <ele>442.5</ele>
        <time>2022-10-01T13:27:16Z</time>
      </trkpt>
      <trkpt lat="47.2315" lon="7.74193">
        <ele>442.4</ele>
        <time>2022-10-01T13:27:17Z</time>
      </trkpt>
      <trkpt lat="47.23152" lon="7.742">
        <ele>442.4</ele>
        <time>2022-10-01T13:27:18Z</time>
      </trkpt>
      <trkpt lat="47.23153" lon="7.74207">
        <ele>442.4</ele>
        <time>2022-10-01T13:27:19Z</time>
      </trkpt>
      <trkpt lat="47.23155" lon="7.74215">
        <ele>442.3</ele>
        <time>2022-10-01T13:27:20Z</time>
      </trkpt>
      <trkpt lat="47.23156" lon="7.74223">
        <ele>442.3</ele>
        <time>2022-10-01T13:27:21Z</time>
      </trkpt>
      <trkpt lat="47.23158" lon="7.74232">
        <ele>442.3</ele>
        <time>2022-10-01T13:27:22Z</time>
      </trkpt>
      <trkpt lat="47.23159" lon="7.7424">
        <ele>442.2</ele>
        <time>2022-10-01T13:27:23Z</time>
      </trkpt>
      <trkpt lat="47.23161" lon="7.74248">
        <ele>442.2</ele>
        <time>2022-10-01T13:27:24Z</time>
      </trkpt>
      <trkpt lat="47.23163" lon="7.74257">
        <ele>442.2</ele>
        <time>2022-10-01T13:27:25Z</time>
      </trkpt>
      <trkpt lat="47.23165" lon="7.74265">
        <ele>442.2</ele>
        <time>2022-10-01T13:27:26Z</time>
      </trkpt>
      <trkpt lat="47.23167" lon="7.74273">
        <ele>442.2</ele>
        <time>2022-10-01T13:27:27Z</time>
      </trkpt>
      <trkpt lat="47.23169" lon="7.74282">
        <ele>442.2</ele>
        <time>2022-10-01T13:27:28Z</time>
      </trkpt>
      <trkpt lat="47.23171" lon="7.74291">
        <ele>442.2</ele>
        <time>2022-10-01T13:27:29Z</time>
      </trkpt>
      <trkpt lat="47.23173" lon="7.74299">
        <ele>442.2</ele>
        <time>2022-10-01T13:27:30Z</time>
      </trkpt>
      <trkpt lat="47.23176" lon="7.74308">
        <ele>442.2</ele>
        <time>2022-10-01T13:27:31Z</time>
      </trkpt>
      <trkpt lat="47.23178" lon="7.74317">
        <ele>442.1</ele>
        <time>2022-10-01T13:27:32Z</time>
      </trkpt>
      <trkpt lat="47.23181" lon="7.74326">
        <ele>442.1</ele>
        <time>2022-10-01T13:27:33Z</time>
      </trkpt>
      <trkpt lat="47.23183" lon="7.74335">
        <ele>442.1</ele>
        <time>2022-10-01T13:27:34Z</time>
      </trkpt>
      <trkpt lat="47.23186" lon="7.74343">
        <ele>442.1</ele>
        <time>2022-10-01T13:27:35Z</time>
      </trkpt>
      <trkpt lat="47.23188" lon="7.74351">
        <ele>442.1</ele>
        <time>2022-10-01T13:27:36Z</time>
      </trkpt>
      <trkpt lat="47.23191" lon="7.7436">
        <ele>442.1</ele>
        <time>2022-10-01T13:27:37Z</time>
      </trkpt>
      <trkpt lat="47.23193" lon="7.74369">
        <ele>442</ele>
        <time>2022-10-01T13:27:38Z</time>
      </trkpt>
      <trkpt lat="47.23196" lon="7.74378">
        <ele>442</ele>
        <time>2022-10-01T13:27:39Z</time>
      </trkpt>
      <trkpt lat="47.23199" lon="7.74386">
        <ele>442.1</ele>
        <time>2022-10-01T13:27:40Z</time>
      </trkpt>
      <trkpt lat="47.23201" lon="7.74394">
        <ele>442.1</ele>
        <time>2022-10-01T13:27:41Z</time>
      </trkpt>
      <trkpt lat="47.23203" lon="7.74402">
        <ele>442.1</ele>
        <time>2022-10-01T13:27:42Z</time>
      </trkpt>
      <trkpt lat="47.23206" lon="7.7441">
        <ele>442.1</ele>
        <time>2022-10-01T13:27:43Z</time>
      </trkpt>
      <trkpt lat="47.23208" lon="7.74417">
        <ele>442.1</ele>
        <time>2022-10-01T13:27:44Z</time>
      </trkpt>
      <trkpt lat="47.23211" lon="7.74424">
        <ele>442.1</ele>
        <time>2022-10-01T13:27:45Z</time>
      </trkpt>
      <trkpt lat="47.23213" lon="7.74431">
        <ele>442.1</ele>
        <time>2022-10-01T13:27:46Z</time>
      </trkpt>
      <trkpt lat="47.23215" lon="7.74439">
        <ele>442.1</ele>
        <time>2022-10-01T13:27:47Z</time>
      </trkpt>
      <trkpt lat="47.23218" lon="7.74447">
        <ele>442.1</ele>
        <time>2022-10-01T13:27:48Z</time>
      </trkpt>
      <trkpt lat="47.2322" lon="7.74453">
        <ele>442.1</ele>
        <time>2022-10-01T13:27:49Z</time>
      </trkpt>
      <trkpt lat="47.23223" lon="7.7446">
        <ele>442.1</ele>
        <time>2022-10-01T13:27:50Z</time>
      </trkpt>
      <trkpt lat="47.23225" lon="7.74468">
        <ele>442</ele>
        <time>2022-10-01T13:27:51Z</time>
      </trkpt>
      <trkpt lat="47.23227" lon="7.74475">
        <ele>442</ele>
        <time>2022-10-01T13:27:52Z</time>
      </trkpt>
      <trkpt lat="47.23232" lon="7.7449">
        <ele>441.9</ele>
        <time>2022-10-01T13:27:53Z</time>
      </trkpt>
      <trkpt lat="47.23235" lon="7.74497">
        <ele>441.9</ele>
        <time>2022-10-01T13:27:54Z</time>
      </trkpt>
      <trkpt lat="47.23237" lon="7.74504">
        <ele>441.9</ele>
        <time>2022-10-01T13:27:55Z</time>
      </trkpt>
      <trkpt lat="47.2324" lon="7.74512">
        <ele>441.8</ele>
        <time>2022-10-01T13:27:56Z</time>
      </trkpt>
      <trkpt lat="47.23242" lon="7.74519">
        <ele>441.7</ele>
        <time>2022-10-01T13:27:57Z</time>
      </trkpt>
      <trkpt lat="47.23245" lon="7.74527">
        <ele>441.7</ele>
        <time>2022-10-01T13:27:58Z</time>
      </trkpt>
      <trkpt lat="47.23247" lon="7.74534">
        <ele>441.6</ele>
        <time>2022-10-01T13:27:59Z</time>
      </trkpt>
      <trkpt lat="47.23249" lon="7.74542">
        <ele>441.5</ele>
        <time>2022-10-01T13:28:00Z</time>
      </trkpt>
      <trkpt lat="47.23252" lon="7.7455">
        <ele>441.5</ele>
        <time>2022-10-01T13:28:01Z</time>
      </trkpt>
      <trkpt lat="47.23255" lon="7.74558">
        <ele>441.4</ele>
        <time>2022-10-01T13:28:02Z</time>
      </trkpt>
      <trkpt lat="47.23257" lon="7.74566">
        <ele>441.3</ele>
        <time>2022-10-01T13:28:03Z</time>
      </trkpt>
      <trkpt lat="47.2326" lon="7.74574">
        <ele>441.1</ele>
        <time>2022-10-01T13:28:04Z</time>
      </trkpt>
      <trkpt lat="47.23263" lon="7.74581">
        <ele>441</ele>
        <time>2022-10-01T13:28:05Z</time>
      </trkpt>
      <trkpt lat="47.23265" lon="7.74589">
        <ele>440.9</ele>
        <time>2022-10-01T13:28:06Z</time>
      </trkpt>
      <trkpt lat="47.23269" lon="7.74597">
        <ele>440.7</ele>
        <time>2022-10-01T13:28:07Z</time>
      </trkpt>
      <trkpt lat="47.23271" lon="7.74607">
        <ele>440.6</ele>
        <time>2022-10-01T13:28:08Z</time>
      </trkpt>
      <trkpt lat="47.23274" lon="7.74615">
        <ele>440.4</ele>
        <time>2022-10-01T13:28:09Z</time>
      </trkpt>
      <trkpt lat="47.23277" lon="7.74624">
        <ele>440.2</ele>
        <time>2022-10-01T13:28:10Z</time>
      </trkpt>
      <trkpt lat="47.2328" lon="7.74633">
        <ele>440.1</ele>
        <time>2022-10-01T13:28:11Z</time>
      </trkpt>
      <trkpt lat="47.23283" lon="7.74642">
        <ele>440</ele>
        <time>2022-10-01T13:28:12Z</time>
      </trkpt>
      <trkpt lat="47.23286" lon="7.74651">
        <ele>439.8</ele>
        <time>2022-10-01T13:28:13Z</time>
      </trkpt>
      <trkpt lat="47.23289" lon="7.74659">
        <ele>439.7</ele>
        <time>2022-10-01T13:28:14Z</time>
      </trkpt>
      <trkpt lat="47.23292" lon="7.74668">
        <ele>439.6</ele>
        <time>2022-10-01T13:28:15Z</time>
      </trkpt>
      <trkpt lat="47.23296" lon="7.74677">
        <ele>439.6</ele>
        <time>2022-10-01T13:28:16Z</time>
      </trkpt>
      <trkpt lat="47.23299" lon="7.74686">
        <ele>439.5</ele>
        <time>2022-10-01T13:28:17Z</time>
      </trkpt>
      <trkpt lat="47.23301" lon="7.74695">
        <ele>439.5</ele>
        <time>2022-10-01T13:28:18Z</time>
      </trkpt>
      <trkpt lat="47.23304" lon="7.74704">
        <ele>439.4</ele>
        <time>2022-10-01T13:28:19Z</time>
      </trkpt>
      <trkpt lat="47.23307" lon="7.74713">
        <ele>439.4</ele>
        <time>2022-10-01T13:28:20Z</time>
      </trkpt>
      <trkpt lat="47.2331" lon="7.74722">
        <ele>439.3</ele>
        <time>2022-10-01T13:28:21Z</time>
      </trkpt>
      <trkpt lat="47.23313" lon="7.74731">
        <ele>439.3</ele>
        <time>2022-10-01T13:28:22Z</time>
      </trkpt>
      <trkpt lat="47.23316" lon="7.74739">
        <ele>439.2</ele>
        <time>2022-10-01T13:28:23Z</time>
      </trkpt>
      <trkpt lat="47.23319" lon="7.74748">
        <ele>439.2</ele>
        <time>2022-10-01T13:28:24Z</time>
      </trkpt>
      <trkpt lat="47.23322" lon="7.74757">
        <ele>439.2</ele>
        <time>2022-10-01T13:28:25Z</time>
      </trkpt>
      <trkpt lat="47.23325" lon="7.74766">
        <ele>439.2</ele>
        <time>2022-10-01T13:28:26Z</time>
      </trkpt>
      <trkpt lat="47.23329" lon="7.74775">
        <ele>439.2</ele>
        <time>2022-10-01T13:28:27Z</time>
      </trkpt>
      <trkpt lat="47.23331" lon="7.74784">
        <ele>439.2</ele>
        <time>2022-10-01T13:28:28Z</time>
      </trkpt>
      <trkpt lat="47.23334" lon="7.74792">
        <ele>439.2</ele>
        <time>2022-10-01T13:28:29Z</time>
      </trkpt>
      <trkpt lat="47.23338" lon="7.74801">
        <ele>439.2</ele>
        <time>2022-10-01T13:28:30Z</time>
      </trkpt>
      <trkpt lat="47.2334" lon="7.7481">
        <ele>439.2</ele>
        <time>2022-10-01T13:28:31Z</time>
      </trkpt>
      <trkpt lat="47.23343" lon="7.74818">
        <ele>439.3</ele>
        <time>2022-10-01T13:28:32Z</time>
      </trkpt>
      <trkpt lat="47.23347" lon="7.74827">
        <ele>439.4</ele>
        <time>2022-10-01T13:28:33Z</time>
      </trkpt>
      <trkpt lat="47.23349" lon="7.74835">
        <ele>439.4</ele>
        <time>2022-10-01T13:28:34Z</time>
      </trkpt>
      <trkpt lat="47.23352" lon="7.74844">
        <ele>439.4</ele>
        <time>2022-10-01T13:28:35Z</time>
      </trkpt>
      <trkpt lat="47.23355" lon="7.74852">
        <ele>439.4</ele>
        <time>2022-10-01T13:28:36Z</time>
      </trkpt>
      <trkpt lat="47.23358" lon="7.7486">
        <ele>439.4</ele>
        <time>2022-10-01T13:28:37Z</time>
      </trkpt>
      <trkpt lat="47.23361" lon="7.74869">
        <ele>439.5</ele>
        <time>2022-10-01T13:28:38Z</time>
      </trkpt>
      <trkpt lat="47.23364" lon="7.74877">
        <ele>439.5</ele>
        <time>2022-10-01T13:28:39Z</time>
      </trkpt>
      <trkpt lat="47.23367" lon="7.74885">
        <ele>439.6</ele>
        <time>2022-10-01T13:28:40Z</time>
      </trkpt>
      <trkpt lat="47.2337" lon="7.74894">
        <ele>439.6</ele>
        <time>2022-10-01T13:28:41Z</time>
      </trkpt>
      <trkpt lat="47.23373" lon="7.74902">
        <ele>439.6</ele>
        <time>2022-10-01T13:28:42Z</time>
      </trkpt>
      <trkpt lat="47.23376" lon="7.7491">
        <ele>439.7</ele>
        <time>2022-10-01T13:28:43Z</time>
      </trkpt>
      <trkpt lat="47.23379" lon="7.74919">
        <ele>439.7</ele>
        <time>2022-10-01T13:28:44Z</time>
      </trkpt>
      <trkpt lat="47.23382" lon="7.74927">
        <ele>439.7</ele>
        <time>2022-10-01T13:28:45Z</time>
      </trkpt>
      <trkpt lat="47.23385" lon="7.74935">
        <ele>439.7</ele>
        <time>2022-10-01T13:28:46Z</time>
      </trkpt>
      <trkpt lat="47.23388" lon="7.74943">
        <ele>439.7</ele>
        <time>2022-10-01T13:28:47Z</time>
      </trkpt>
      <trkpt lat="47.23391" lon="7.74951">
        <ele>439.6</ele>
        <time>2022-10-01T13:28:48Z</time>
      </trkpt>
      <trkpt lat="47.23394" lon="7.74959">
        <ele>439.6</ele>
        <time>2022-10-01T13:28:49Z</time>
      </trkpt>
      <trkpt lat="47.23397" lon="7.74967">
        <ele>439.5</ele>
        <time>2022-10-01T13:28:50Z</time>
      </trkpt>
      <trkpt lat="47.234" lon="7.74976">
        <ele>439.4</ele>
        <time>2022-10-01T13:28:51Z</time>
      </trkpt>
      <trkpt lat="47.23403" lon="7.74985">
        <ele>439.4</ele>
        <time>2022-10-01T13:28:52Z</time>
      </trkpt>
      <trkpt lat="47.23406" lon="7.74994">
        <ele>439.3</ele>
        <time>2022-10-01T13:28:53Z</time>
      </trkpt>
      <trkpt lat="47.23409" lon="7.75003">
        <ele>439.2</ele>
        <time>2022-10-01T13:28:54Z</time>
      </trkpt>
      <trkpt lat="47.23413" lon="7.75012">
        <ele>439.2</ele>
        <time>2022-10-01T13:28:55Z</time>
      </trkpt>
      <trkpt lat="47.23416" lon="7.75021">
        <ele>439.1</ele>
        <time>2022-10-01T13:28:56Z</time>
      </trkpt>
      <trkpt lat="47.23419" lon="7.7503">
        <ele>439.1</ele>
        <time>2022-10-01T13:28:58Z</time>
      </trkpt>
      <trkpt lat="47.23423" lon="7.75039">
        <ele>439.1</ele>
        <time>2022-10-01T13:28:59Z</time>
      </trkpt>
      <trkpt lat="47.23426" lon="7.75048">
        <ele>439.1</ele>
        <time>2022-10-01T13:29:00Z</time>
      </trkpt>
      <trkpt lat="47.23429" lon="7.75056">
        <ele>439</ele>
        <time>2022-10-01T13:29:01Z</time>
      </trkpt>
      <trkpt lat="47.23432" lon="7.75067">
        <ele>439.1</ele>
        <time>2022-10-01T13:29:02Z</time>
      </trkpt>
      <trkpt lat="47.23435" lon="7.75074">
        <ele>439.1</ele>
        <time>2022-10-01T13:29:03Z</time>
      </trkpt>
      <trkpt lat="47.23437" lon="7.75083">
        <ele>439.2</ele>
        <time>2022-10-01T13:29:04Z</time>
      </trkpt>
      <trkpt lat="47.23441" lon="7.75091">
        <ele>439.2</ele>
        <time>2022-10-01T13:29:05Z</time>
      </trkpt>
      <trkpt lat="47.23444" lon="7.751">
        <ele>439.2</ele>
        <time>2022-10-01T13:29:06Z</time>
      </trkpt>
      <trkpt lat="47.23446" lon="7.75107">
        <ele>439.2</ele>
        <time>2022-10-01T13:29:07Z</time>
      </trkpt>
      <trkpt lat="47.23449" lon="7.75115">
        <ele>439.3</ele>
        <time>2022-10-01T13:29:08Z</time>
      </trkpt>
      <trkpt lat="47.23453" lon="7.75124">
        <ele>439.3</ele>
        <time>2022-10-01T13:29:09Z</time>
      </trkpt>
      <trkpt lat="47.23456" lon="7.75133">
        <ele>439.3</ele>
        <time>2022-10-01T13:29:10Z</time>
      </trkpt>
      <trkpt lat="47.23458" lon="7.75141">
        <ele>439.3</ele>
        <time>2022-10-01T13:29:11Z</time>
      </trkpt>
      <trkpt lat="47.23461" lon="7.75149">
        <ele>439.3</ele>
        <time>2022-10-01T13:29:12Z</time>
      </trkpt>
      <trkpt lat="47.23464" lon="7.75157">
        <ele>439.3</ele>
        <time>2022-10-01T13:29:13Z</time>
      </trkpt>
      <trkpt lat="47.23467" lon="7.75166">
        <ele>439.3</ele>
        <time>2022-10-01T13:29:14Z</time>
      </trkpt>
      <trkpt lat="47.2347" lon="7.75175">
        <ele>439.3</ele>
        <time>2022-10-01T13:29:15Z</time>
      </trkpt>
      <trkpt lat="47.23472" lon="7.75183">
        <ele>439.3</ele>
        <time>2022-10-01T13:29:16Z</time>
      </trkpt>
      <trkpt lat="47.23475" lon="7.7519">
        <ele>439.3</ele>
        <time>2022-10-01T13:29:17Z</time>
      </trkpt>
      <trkpt lat="47.23478" lon="7.75199">
        <ele>439.2</ele>
        <time>2022-10-01T13:29:18Z</time>
      </trkpt>
      <trkpt lat="47.23482" lon="7.75207">
        <ele>439.2</ele>
        <time>2022-10-01T13:29:19Z</time>
      </trkpt>
      <trkpt lat="47.23485" lon="7.75216">
        <ele>439.1</ele>
        <time>2022-10-01T13:29:20Z</time>
      </trkpt>
      <trkpt lat="47.23487" lon="7.75224">
        <ele>439</ele>
        <time>2022-10-01T13:29:21Z</time>
      </trkpt>
      <trkpt lat="47.2349" lon="7.75233">
        <ele>438.8</ele>
        <time>2022-10-01T13:29:22Z</time>
      </trkpt>
      <trkpt lat="47.23493" lon="7.75242">
        <ele>438.7</ele>
        <time>2022-10-01T13:29:23Z</time>
      </trkpt>
      <trkpt lat="47.23496" lon="7.75251">
        <ele>438.5</ele>
        <time>2022-10-01T13:29:24Z</time>
      </trkpt>
      <trkpt lat="47.23499" lon="7.7526">
        <ele>438.2</ele>
        <time>2022-10-01T13:29:25Z</time>
      </trkpt>
      <trkpt lat="47.23503" lon="7.75269">
        <ele>438</ele>
        <time>2022-10-01T13:29:26Z</time>
      </trkpt>
      <trkpt lat="47.23506" lon="7.75278">
        <ele>437.7</ele>
        <time>2022-10-01T13:29:27Z</time>
      </trkpt>
      <trkpt lat="47.23509" lon="7.75288">
        <ele>437.5</ele>
        <time>2022-10-01T13:29:28Z</time>
      </trkpt>
      <trkpt lat="47.23513" lon="7.75298">
        <ele>437.2</ele>
        <time>2022-10-01T13:29:29Z</time>
      </trkpt>
      <trkpt lat="47.23517" lon="7.75308">
        <ele>436.9</ele>
        <time>2022-10-01T13:29:30Z</time>
      </trkpt>
      <trkpt lat="47.2352" lon="7.75318">
        <ele>436.7</ele>
        <time>2022-10-01T13:29:31Z</time>
      </trkpt>
      <trkpt lat="47.23524" lon="7.75329">
        <ele>436.4</ele>
        <time>2022-10-01T13:29:32Z</time>
      </trkpt>
      <trkpt lat="47.23527" lon="7.75339">
        <ele>436.2</ele>
        <time>2022-10-01T13:29:33Z</time>
      </trkpt>
      <trkpt lat="47.2353" lon="7.75349">
        <ele>436.1</ele>
        <time>2022-10-01T13:29:34Z</time>
      </trkpt>
      <trkpt lat="47.23533" lon="7.75358">
        <ele>436.1</ele>
        <time>2022-10-01T13:29:35Z</time>
      </trkpt>
      <trkpt lat="47.23537" lon="7.75365">
        <ele>436</ele>
        <time>2022-10-01T13:29:36Z</time>
      </trkpt>
      <trkpt lat="47.23539" lon="7.75373">
        <ele>436</ele>
        <time>2022-10-01T13:29:37Z</time>
      </trkpt>
      <trkpt lat="47.23542" lon="7.75378">
        <ele>436</ele>
        <time>2022-10-01T13:29:38Z</time>
      </trkpt>
      <trkpt lat="47.23545" lon="7.75383">
        <ele>435.9</ele>
        <time>2022-10-01T13:29:39Z</time>
      </trkpt>
      <trkpt lat="47.23548" lon="7.75385">
        <ele>435.9</ele>
        <time>2022-10-01T13:29:40Z</time>
      </trkpt>
      <trkpt lat="47.23552" lon="7.75387">
        <ele>435.8</ele>
        <time>2022-10-01T13:29:41Z</time>
      </trkpt>
      <trkpt lat="47.23555" lon="7.75387">
        <ele>435.8</ele>
        <time>2022-10-01T13:29:42Z</time>
      </trkpt>
      <trkpt lat="47.23558" lon="7.75385">
        <ele>435.8</ele>
        <time>2022-10-01T13:29:43Z</time>
      </trkpt>
      <trkpt lat="47.2356" lon="7.75384">
        <ele>435.8</ele>
        <time>2022-10-01T13:29:44Z</time>
      </trkpt>
      <trkpt lat="47.23561" lon="7.75384">
        <ele>435.8</ele>
        <time>2022-10-01T13:29:45Z</time>
      </trkpt>
      <trkpt lat="47.23562" lon="7.75384">
        <ele>435.7</ele>
        <time>2022-10-01T13:29:46Z</time>
      </trkpt>
      <trkpt lat="47.23563" lon="7.75384">
        <ele>435.7</ele>
        <time>2022-10-01T13:29:47Z</time>
      </trkpt>
      <trkpt lat="47.23564" lon="7.75384">
        <ele>435.7</ele>
        <time>2022-10-01T13:29:48Z</time>
      </trkpt>
      <trkpt lat="47.23565" lon="7.75384">
        <ele>435.7</ele>
        <time>2022-10-01T13:29:49Z</time>
      </trkpt>
      <trkpt lat="47.23566" lon="7.75384">
        <ele>435.7</ele>
        <time>2022-10-01T13:29:50Z</time>
      </trkpt>
      <trkpt lat="47.23567" lon="7.75384">
        <ele>435.7</ele>
        <time>2022-10-01T13:29:51Z</time>
      </trkpt>
      <trkpt lat="47.23568" lon="7.75384">
        <ele>435.7</ele>
        <time>2022-10-01T13:29:52Z</time>
      </trkpt>
      <trkpt lat="47.23569" lon="7.75384">
        <ele>435.7</ele>
        <time>2022-10-01T13:29:53Z</time>
      </trkpt>
      <trkpt lat="47.2357" lon="7.75384">
        <ele>435.7</ele>
        <time>2022-10-01T13:30:27Z</time>
      </trkpt>
      <trkpt lat="47.23571" lon="7.75383">
        <ele>435.7</ele>
        <time>2022-10-01T13:30:28Z</time>
      </trkpt>
      <trkpt lat="47.23575" lon="7.75382">
        <ele>435.7</ele>
        <time>2022-10-01T13:30:29Z</time>
      </trkpt>
      <trkpt lat="47.23576" lon="7.75382">
        <ele>435.7</ele>
        <time>2022-10-01T13:30:30Z</time>
      </trkpt>
      <trkpt lat="47.23579" lon="7.7538">
        <ele>435.7</ele>
        <time>2022-10-01T13:30:31Z</time>
      </trkpt>
      <trkpt lat="47.2358" lon="7.75379">
        <ele>435.7</ele>
        <time>2022-10-01T13:30:32Z</time>
      </trkpt>
      <trkpt lat="47.23583" lon="7.75378">
        <ele>435.7</ele>
        <time>2022-10-01T13:30:33Z</time>
      </trkpt>
      <trkpt lat="47.23585" lon="7.75377">
        <ele>435.7</ele>
        <time>2022-10-01T13:30:34Z</time>
      </trkpt>
      <trkpt lat="47.23588" lon="7.75376">
        <ele>435.7</ele>
        <time>2022-10-01T13:30:35Z</time>
      </trkpt>
      <trkpt lat="47.23591" lon="7.75375">
        <ele>435.7</ele>
        <time>2022-10-01T13:30:36Z</time>
      </trkpt>
      <trkpt lat="47.23594" lon="7.75374">
        <ele>435.7</ele>
        <time>2022-10-01T13:30:37Z</time>
      </trkpt>
      <trkpt lat="47.23597" lon="7.75373">
        <ele>435.8</ele>
        <time>2022-10-01T13:30:38Z</time>
      </trkpt>
      <trkpt lat="47.236" lon="7.75372">
        <ele>435.8</ele>
        <time>2022-10-01T13:30:39Z</time>
      </trkpt>
      <trkpt lat="47.23603" lon="7.7537">
        <ele>435.8</ele>
        <time>2022-10-01T13:30:40Z</time>
      </trkpt>
      <trkpt lat="47.23607" lon="7.75369">
        <ele>435.8</ele>
        <time>2022-10-01T13:30:41Z</time>
      </trkpt>
      <trkpt lat="47.2361" lon="7.75368">
        <ele>435.9</ele>
        <time>2022-10-01T13:30:42Z</time>
      </trkpt>
      <trkpt lat="47.23613" lon="7.75366">
        <ele>435.9</ele>
        <time>2022-10-01T13:30:43Z</time>
      </trkpt>
      <trkpt lat="47.23616" lon="7.75365">
        <ele>435.9</ele>
        <time>2022-10-01T13:30:44Z</time>
      </trkpt>
      <trkpt lat="47.23619" lon="7.75364">
        <ele>436</ele>
        <time>2022-10-01T13:30:45Z</time>
      </trkpt>
      <trkpt lat="47.23623" lon="7.75362">
        <ele>436</ele>
        <time>2022-10-01T13:30:46Z</time>
      </trkpt>
      <trkpt lat="47.23626" lon="7.75361">
        <ele>436.1</ele>
        <time>2022-10-01T13:30:47Z</time>
      </trkpt>
      <trkpt lat="47.23629" lon="7.75359">
        <ele>436.1</ele>
        <time>2022-10-01T13:30:48Z</time>
      </trkpt>
      <trkpt lat="47.23633" lon="7.75358">
        <ele>436.1</ele>
        <time>2022-10-01T13:30:49Z</time>
      </trkpt>
      <trkpt lat="47.23636" lon="7.75356">
        <ele>436.2</ele>
        <time>2022-10-01T13:30:50Z</time>
      </trkpt>
      <trkpt lat="47.2364" lon="7.75355">
        <ele>436.2</ele>
        <time>2022-10-01T13:30:51Z</time>
      </trkpt>
      <trkpt lat="47.23644" lon="7.75353">
        <ele>436.3</ele>
        <time>2022-10-01T13:30:52Z</time>
      </trkpt>
      <trkpt lat="47.23647" lon="7.75352">
        <ele>436.3</ele>
        <time>2022-10-01T13:30:53Z</time>
      </trkpt>
      <trkpt lat="47.2365" lon="7.7535">
        <ele>436.3</ele>
        <time>2022-10-01T13:30:54Z</time>
      </trkpt>
      <trkpt lat="47.23654" lon="7.75349">
        <ele>436.3</ele>
        <time>2022-10-01T13:30:55Z</time>
      </trkpt>
      <trkpt lat="47.23657" lon="7.75348">
        <ele>436.4</ele>
        <time>2022-10-01T13:30:56Z</time>
      </trkpt>
      <trkpt lat="47.2366" lon="7.75347">
        <ele>436.4</ele>
        <time>2022-10-01T13:30:57Z</time>
      </trkpt>
      <trkpt lat="47.23664" lon="7.75345">
        <ele>436.4</ele>
        <time>2022-10-01T13:30:58Z</time>
      </trkpt>
      <trkpt lat="47.23668" lon="7.75344">
        <ele>436.5</ele>
        <time>2022-10-01T13:30:59Z</time>
      </trkpt>
      <trkpt lat="47.23671" lon="7.75344">
        <ele>436.5</ele>
        <time>2022-10-01T13:31:00Z</time>
      </trkpt>
      <trkpt lat="47.23675" lon="7.75343">
        <ele>436.5</ele>
        <time>2022-10-01T13:31:01Z</time>
      </trkpt>
      <trkpt lat="47.23678" lon="7.75343">
        <ele>436.6</ele>
        <time>2022-10-01T13:31:02Z</time>
      </trkpt>
      <trkpt lat="47.23682" lon="7.75343">
        <ele>436.6</ele>
        <time>2022-10-01T13:31:04Z</time>
      </trkpt>
      <trkpt lat="47.23685" lon="7.75343">
        <ele>436.6</ele>
        <time>2022-10-01T13:31:05Z</time>
      </trkpt>
      <trkpt lat="47.23689" lon="7.75343">
        <ele>436.6</ele>
        <time>2022-10-01T13:31:06Z</time>
      </trkpt>
      <trkpt lat="47.23691" lon="7.75343">
        <ele>436.7</ele>
        <time>2022-10-01T13:31:07Z</time>
      </trkpt>
      <trkpt lat="47.23695" lon="7.75344">
        <ele>436.7</ele>
        <time>2022-10-01T13:31:08Z</time>
      </trkpt>
      <trkpt lat="47.23698" lon="7.75345">
        <ele>436.7</ele>
        <time>2022-10-01T13:31:09Z</time>
      </trkpt>
      <trkpt lat="47.23701" lon="7.75346">
        <ele>436.7</ele>
        <time>2022-10-01T13:31:10Z</time>
      </trkpt>
      <trkpt lat="47.23704" lon="7.75348">
        <ele>436.8</ele>
        <time>2022-10-01T13:31:11Z</time>
      </trkpt>
      <trkpt lat="47.23708" lon="7.75349">
        <ele>436.8</ele>
        <time>2022-10-01T13:31:12Z</time>
      </trkpt>
      <trkpt lat="47.23712" lon="7.7535">
        <ele>436.8</ele>
        <time>2022-10-01T13:31:13Z</time>
      </trkpt>
      <trkpt lat="47.23715" lon="7.75352">
        <ele>436.9</ele>
        <time>2022-10-01T13:31:14Z</time>
      </trkpt>
      <trkpt lat="47.23718" lon="7.75353">
        <ele>436.9</ele>
        <time>2022-10-01T13:31:15Z</time>
      </trkpt>
      <trkpt lat="47.23721" lon="7.75353">
        <ele>436.9</ele>
        <time>2022-10-01T13:31:16Z</time>
      </trkpt>
      <trkpt lat="47.23724" lon="7.75354">
        <ele>436.9</ele>
        <time>2022-10-01T13:31:17Z</time>
      </trkpt>
      <trkpt lat="47.23727" lon="7.75354">
        <ele>437</ele>
        <time>2022-10-01T13:31:18Z</time>
      </trkpt>
      <trkpt lat="47.23731" lon="7.75354">
        <ele>437</ele>
        <time>2022-10-01T13:31:19Z</time>
      </trkpt>
      <trkpt lat="47.23734" lon="7.75355">
        <ele>437.1</ele>
        <time>2022-10-01T13:31:20Z</time>
      </trkpt>
      <trkpt lat="47.23737" lon="7.75355">
        <ele>437.1</ele>
        <time>2022-10-01T13:31:21Z</time>
      </trkpt>
      <trkpt lat="47.2374" lon="7.75355">
        <ele>437.2</ele>
        <time>2022-10-01T13:31:22Z</time>
      </trkpt>
      <trkpt lat="47.23744" lon="7.75355">
        <ele>437.3</ele>
        <time>2022-10-01T13:31:23Z</time>
      </trkpt>
      <trkpt lat="47.23745" lon="7.75355">
        <ele>437.3</ele>
        <time>2022-10-01T13:31:24Z</time>
      </trkpt>
      <trkpt lat="47.23749" lon="7.75355">
        <ele>437.3</ele>
        <time>2022-10-01T13:31:25Z</time>
      </trkpt>
      <trkpt lat="47.2375" lon="7.75355">
        <ele>437.4</ele>
        <time>2022-10-01T13:31:26Z</time>
      </trkpt>
      <trkpt lat="47.23754" lon="7.75354">
        <ele>437.4</ele>
        <time>2022-10-01T13:31:27Z</time>
      </trkpt>
      <trkpt lat="47.23755" lon="7.75354">
        <ele>437.5</ele>
        <time>2022-10-01T13:31:28Z</time>
      </trkpt>
      <trkpt lat="47.23758" lon="7.75354">
        <ele>437.5</ele>
        <time>2022-10-01T13:31:29Z</time>
      </trkpt>
      <trkpt lat="47.23761" lon="7.75352">
        <ele>437.5</ele>
        <time>2022-10-01T13:31:30Z</time>
      </trkpt>
      <trkpt lat="47.23764" lon="7.75352">
        <ele>437.6</ele>
        <time>2022-10-01T13:31:31Z</time>
      </trkpt>
      <trkpt lat="47.23767" lon="7.75351">
        <ele>437.6</ele>
        <time>2022-10-01T13:31:32Z</time>
      </trkpt>
      <trkpt lat="47.2377" lon="7.7535">
        <ele>437.6</ele>
        <time>2022-10-01T13:31:33Z</time>
      </trkpt>
      <trkpt lat="47.23774" lon="7.75349">
        <ele>437.6</ele>
        <time>2022-10-01T13:31:34Z</time>
      </trkpt>
      <trkpt lat="47.23777" lon="7.75349">
        <ele>437.7</ele>
        <time>2022-10-01T13:31:35Z</time>
      </trkpt>
      <trkpt lat="47.2378" lon="7.75348">
        <ele>437.7</ele>
        <time>2022-10-01T13:31:36Z</time>
      </trkpt>
      <trkpt lat="47.23784" lon="7.75348">
        <ele>437.7</ele>
        <time>2022-10-01T13:31:37Z</time>
      </trkpt>
      <trkpt lat="47.23787" lon="7.75349">
        <ele>437.7</ele>
        <time>2022-10-01T13:31:38Z</time>
      </trkpt>
      <trkpt lat="47.23788" lon="7.7535">
        <ele>437.7</ele>
        <time>2022-10-01T13:31:39Z</time>
      </trkpt>
      <trkpt lat="47.2379" lon="7.7535">
        <ele>437.7</ele>
        <time>2022-10-01T13:31:40Z</time>
      </trkpt>
      <trkpt lat="47.23791" lon="7.7535">
        <ele>437.7</ele>
        <time>2022-10-01T13:31:41Z</time>
      </trkpt>
      <trkpt lat="47.23792" lon="7.75351">
        <ele>437.7</ele>
        <time>2022-10-01T13:31:42Z</time>
      </trkpt>
      <trkpt lat="47.23794" lon="7.75351">
        <ele>437.7</ele>
        <time>2022-10-01T13:31:43Z</time>
      </trkpt>
      <trkpt lat="47.23797" lon="7.7535">
        <ele>437.7</ele>
        <time>2022-10-01T13:31:44Z</time>
      </trkpt>
      <trkpt lat="47.23799" lon="7.7535">
        <ele>437.7</ele>
        <time>2022-10-01T13:31:45Z</time>
      </trkpt>
      <trkpt lat="47.23801" lon="7.7535">
        <ele>437.7</ele>
        <time>2022-10-01T13:31:46Z</time>
      </trkpt>
      <trkpt lat="47.23808" lon="7.7535">
        <ele>437.7</ele>
        <time>2022-10-01T13:31:47Z</time>
      </trkpt>
      <trkpt lat="47.23814" lon="7.7535">
        <ele>437.7</ele>
        <time>2022-10-01T13:33:12Z</time>
      </trkpt>
      <trkpt lat="47.23819" lon="7.7535">
        <ele>437.7</ele>
        <time>2022-10-01T13:33:13Z</time>
      </trkpt>
      <trkpt lat="47.23825" lon="7.7535">
        <ele>437.7</ele>
        <time>2022-10-01T13:33:14Z</time>
      </trkpt>
      <trkpt lat="47.23828" lon="7.7535">
        <ele>437.7</ele>
        <time>2022-10-01T13:33:15Z</time>
      </trkpt>
      <trkpt lat="47.23831" lon="7.7535">
        <ele>437.7</ele>
        <time>2022-10-01T13:33:16Z</time>
      </trkpt>
      <trkpt lat="47.23834" lon="7.75351">
        <ele>437.7</ele>
        <time>2022-10-01T13:33:17Z</time>
      </trkpt>
      <trkpt lat="47.23835" lon="7.75351">
        <ele>437.7</ele>
        <time>2022-10-01T13:33:18Z</time>
      </trkpt>
      <trkpt lat="47.23838" lon="7.75351">
        <ele>437.6</ele>
        <time>2022-10-01T13:33:19Z</time>
      </trkpt>
      <trkpt lat="47.23842" lon="7.75352">
        <ele>437.6</ele>
        <time>2022-10-01T13:33:20Z</time>
      </trkpt>
      <trkpt lat="47.23845" lon="7.75352">
        <ele>437.6</ele>
        <time>2022-10-01T13:33:21Z</time>
      </trkpt>
      <trkpt lat="47.23849" lon="7.75353">
        <ele>437.6</ele>
        <time>2022-10-01T13:33:22Z</time>
      </trkpt>
      <trkpt lat="47.23853" lon="7.75354">
        <ele>437.5</ele>
        <time>2022-10-01T13:33:23Z</time>
      </trkpt>
      <trkpt lat="47.23856" lon="7.75353">
        <ele>437.5</ele>
        <time>2022-10-01T13:33:24Z</time>
      </trkpt>
      <trkpt lat="47.2386" lon="7.75353">
        <ele>437.5</ele>
        <time>2022-10-01T13:33:25Z</time>
      </trkpt>
      <trkpt lat="47.23865" lon="7.75354">
        <ele>437.5</ele>
        <time>2022-10-01T13:33:26Z</time>
      </trkpt>
      <trkpt lat="47.2387" lon="7.75356">
        <ele>437.4</ele>
        <time>2022-10-01T13:33:27Z</time>
      </trkpt>
      <trkpt lat="47.23875" lon="7.75357">
        <ele>437.4</ele>
        <time>2022-10-01T13:33:28Z</time>
      </trkpt>
      <trkpt lat="47.2388" lon="7.75359">
        <ele>437.4</ele>
        <time>2022-10-01T13:33:29Z</time>
      </trkpt>
      <trkpt lat="47.23885" lon="7.7536">
        <ele>437.3</ele>
        <time>2022-10-01T13:33:30Z</time>
      </trkpt>
      <trkpt lat="47.23891" lon="7.75361">
        <ele>437.3</ele>
        <time>2022-10-01T13:33:31Z</time>
      </trkpt>
      <trkpt lat="47.23896" lon="7.75363">
        <ele>437.3</ele>
        <time>2022-10-01T13:33:32Z</time>
      </trkpt>
      <trkpt lat="47.23901" lon="7.75363">
        <ele>437.3</ele>
        <time>2022-10-01T13:33:33Z</time>
      </trkpt>
      <trkpt lat="47.23907" lon="7.75365">
        <ele>437.3</ele>
        <time>2022-10-01T13:33:34Z</time>
      </trkpt>
      <trkpt lat="47.23912" lon="7.75365">
        <ele>437.3</ele>
        <time>2022-10-01T13:33:35Z</time>
      </trkpt>
      <trkpt lat="47.23917" lon="7.75366">
        <ele>437.3</ele>
        <time>2022-10-01T13:33:36Z</time>
      </trkpt>
      <trkpt lat="47.23922" lon="7.75367">
        <ele>437.3</ele>
        <time>2022-10-01T13:33:37Z</time>
      </trkpt>
      <trkpt lat="47.23927" lon="7.75366">
        <ele>437.3</ele>
        <time>2022-10-01T13:33:38Z</time>
      </trkpt>
      <trkpt lat="47.23931" lon="7.75367">
        <ele>437.3</ele>
        <time>2022-10-01T13:33:39Z</time>
      </trkpt>
      <trkpt lat="47.23936" lon="7.75367">
        <ele>437.3</ele>
        <time>2022-10-01T13:33:40Z</time>
      </trkpt>
      <trkpt lat="47.23941" lon="7.75368">
        <ele>437.3</ele>
        <time>2022-10-01T13:33:41Z</time>
      </trkpt>
      <trkpt lat="47.23946" lon="7.75369">
        <ele>437.3</ele>
        <time>2022-10-01T13:33:42Z</time>
      </trkpt>
      <trkpt lat="47.23951" lon="7.7537">
        <ele>437.3</ele>
        <time>2022-10-01T13:33:43Z</time>
      </trkpt>
      <trkpt lat="47.23956" lon="7.7537">
        <ele>437.3</ele>
        <time>2022-10-01T13:33:44Z</time>
      </trkpt>
      <trkpt lat="47.2396" lon="7.7537">
        <ele>437.3</ele>
        <time>2022-10-01T13:33:45Z</time>
      </trkpt>
      <trkpt lat="47.23965" lon="7.75371">
        <ele>437.3</ele>
        <time>2022-10-01T13:33:46Z</time>
      </trkpt>
      <trkpt lat="47.23969" lon="7.75372">
        <ele>437.3</ele>
        <time>2022-10-01T13:33:47Z</time>
      </trkpt>
      <trkpt lat="47.23974" lon="7.75372">
        <ele>437.3</ele>
        <time>2022-10-01T13:33:48Z</time>
      </trkpt>
      <trkpt lat="47.23978" lon="7.75373">
        <ele>437.3</ele>
        <time>2022-10-01T13:33:49Z</time>
      </trkpt>
      <trkpt lat="47.23983" lon="7.75375">
        <ele>437.3</ele>
        <time>2022-10-01T13:33:50Z</time>
      </trkpt>
      <trkpt lat="47.23988" lon="7.75376">
        <ele>437.2</ele>
        <time>2022-10-01T13:33:51Z</time>
      </trkpt>
      <trkpt lat="47.23992" lon="7.75377">
        <ele>437.2</ele>
        <time>2022-10-01T13:33:52Z</time>
      </trkpt>
      <trkpt lat="47.23997" lon="7.75378">
        <ele>437.2</ele>
        <time>2022-10-01T13:33:53Z</time>
      </trkpt>
      <trkpt lat="47.24002" lon="7.75379">
        <ele>437.3</ele>
        <time>2022-10-01T13:33:54Z</time>
      </trkpt>
      <trkpt lat="47.24007" lon="7.75379">
        <ele>437.3</ele>
        <time>2022-10-01T13:33:55Z</time>
      </trkpt>
      <trkpt lat="47.24012" lon="7.7538">
        <ele>437.4</ele>
        <time>2022-10-01T13:33:56Z</time>
      </trkpt>
      <trkpt lat="47.24017" lon="7.7538">
        <ele>437.5</ele>
        <time>2022-10-01T13:33:57Z</time>
      </trkpt>
      <trkpt lat="47.24022" lon="7.75381">
        <ele>437.5</ele>
        <time>2022-10-01T13:33:58Z</time>
      </trkpt>
      <trkpt lat="47.24026" lon="7.75381">
        <ele>437.6</ele>
        <time>2022-10-01T13:33:59Z</time>
      </trkpt>
      <trkpt lat="47.2403" lon="7.75381">
        <ele>437.7</ele>
        <time>2022-10-01T13:34:00Z</time>
      </trkpt>
      <trkpt lat="47.24035" lon="7.75382">
        <ele>437.7</ele>
        <time>2022-10-01T13:34:01Z</time>
      </trkpt>
      <trkpt lat="47.24039" lon="7.75383">
        <ele>437.8</ele>
        <time>2022-10-01T13:34:02Z</time>
      </trkpt>
      <trkpt lat="47.24048" lon="7.75381">
        <ele>437.8</ele>
        <time>2022-10-01T13:34:03Z</time>
      </trkpt>
      <trkpt lat="47.24052" lon="7.75381">
        <ele>437.9</ele>
        <time>2022-10-01T13:34:04Z</time>
      </trkpt>
      <trkpt lat="47.24056" lon="7.7538">
        <ele>437.9</ele>
        <time>2022-10-01T13:34:05Z</time>
      </trkpt>
      <trkpt lat="47.24061" lon="7.7538">
        <ele>437.9</ele>
        <time>2022-10-01T13:34:06Z</time>
      </trkpt>
      <trkpt lat="47.24065" lon="7.75379">
        <ele>437.9</ele>
        <time>2022-10-01T13:34:07Z</time>
      </trkpt>
      <trkpt lat="47.2407" lon="7.7538">
        <ele>438</ele>
        <time>2022-10-01T13:34:08Z</time>
      </trkpt>
      <trkpt lat="47.24073" lon="7.75378">
        <ele>438</ele>
        <time>2022-10-01T13:34:09Z</time>
      </trkpt>
      <trkpt lat="47.24079" lon="7.75379">
        <ele>438</ele>
        <time>2022-10-01T13:34:10Z</time>
      </trkpt>
      <trkpt lat="47.24083" lon="7.75379">
        <ele>438</ele>
        <time>2022-10-01T13:34:11Z</time>
      </trkpt>
      <trkpt lat="47.24087" lon="7.75378">
        <ele>438</ele>
        <time>2022-10-01T13:34:12Z</time>
      </trkpt>
      <trkpt lat="47.24093" lon="7.75379">
        <ele>437.9</ele>
        <time>2022-10-01T13:34:13Z</time>
      </trkpt>
      <trkpt lat="47.24097" lon="7.75378">
        <ele>437.9</ele>
        <time>2022-10-01T13:34:14Z</time>
      </trkpt>
      <trkpt lat="47.24101" lon="7.75378">
        <ele>437.8</ele>
        <time>2022-10-01T13:34:15Z</time>
      </trkpt>
      <trkpt lat="47.24106" lon="7.75378">
        <ele>437.8</ele>
        <time>2022-10-01T13:34:16Z</time>
      </trkpt>
      <trkpt lat="47.24112" lon="7.75377">
        <ele>437.7</ele>
        <time>2022-10-01T13:34:17Z</time>
      </trkpt>
      <trkpt lat="47.24116" lon="7.75378">
        <ele>437.6</ele>
        <time>2022-10-01T13:34:18Z</time>
      </trkpt>
      <trkpt lat="47.24121" lon="7.75378">
        <ele>437.5</ele>
        <time>2022-10-01T13:34:19Z</time>
      </trkpt>
      <trkpt lat="47.24127" lon="7.75378">
        <ele>437.4</ele>
        <time>2022-10-01T13:34:20Z</time>
      </trkpt>
      <trkpt lat="47.24131" lon="7.75377">
        <ele>437.4</ele>
        <time>2022-10-01T13:34:21Z</time>
      </trkpt>
      <trkpt lat="47.24136" lon="7.75377">
        <ele>437.3</ele>
        <time>2022-10-01T13:34:22Z</time>
      </trkpt>
      <trkpt lat="47.24141" lon="7.75377">
        <ele>437.2</ele>
        <time>2022-10-01T13:34:23Z</time>
      </trkpt>
      <trkpt lat="47.24145" lon="7.75378">
        <ele>437.2</ele>
        <time>2022-10-01T13:34:24Z</time>
      </trkpt>
      <trkpt lat="47.24149" lon="7.75377">
        <ele>437.1</ele>
        <time>2022-10-01T13:34:25Z</time>
      </trkpt>
      <trkpt lat="47.24153" lon="7.75376">
        <ele>437</ele>
        <time>2022-10-01T13:34:26Z</time>
      </trkpt>
      <trkpt lat="47.24156" lon="7.75375">
        <ele>437</ele>
        <time>2022-10-01T13:34:27Z</time>
      </trkpt>
      <trkpt lat="47.24159" lon="7.75375">
        <ele>436.9</ele>
        <time>2022-10-01T13:34:28Z</time>
      </trkpt>
      <trkpt lat="47.2416" lon="7.75375">
        <ele>436.9</ele>
        <time>2022-10-01T13:34:29Z</time>
      </trkpt>
      <trkpt lat="47.24163" lon="7.75374">
        <ele>436.8</ele>
        <time>2022-10-01T13:34:30Z</time>
      </trkpt>
      <trkpt lat="47.24165" lon="7.75373">
        <ele>436.8</ele>
        <time>2022-10-01T13:34:31Z</time>
      </trkpt>
      <trkpt lat="47.24169" lon="7.75372">
        <ele>436.7</ele>
        <time>2022-10-01T13:34:32Z</time>
      </trkpt>
      <trkpt lat="47.2417" lon="7.75372">
        <ele>436.7</ele>
        <time>2022-10-01T13:34:33Z</time>
      </trkpt>
      <trkpt lat="47.24174" lon="7.75373">
        <ele>436.6</ele>
        <time>2022-10-01T13:34:34Z</time>
      </trkpt>
      <trkpt lat="47.24176" lon="7.75373">
        <ele>436.5</ele>
        <time>2022-10-01T13:34:35Z</time>
      </trkpt>
      <trkpt lat="47.2418" lon="7.75374">
        <ele>436.3</ele>
        <time>2022-10-01T13:34:36Z</time>
      </trkpt>
      <trkpt lat="47.24184" lon="7.75376">
        <ele>436.2</ele>
        <time>2022-10-01T13:34:37Z</time>
      </trkpt>
      <trkpt lat="47.24187" lon="7.75379">
        <ele>436.1</ele>
        <time>2022-10-01T13:34:38Z</time>
      </trkpt>
      <trkpt lat="47.2419" lon="7.75379">
        <ele>435.9</ele>
        <time>2022-10-01T13:34:39Z</time>
      </trkpt>
      <trkpt lat="47.24192" lon="7.75382">
        <ele>435.8</ele>
        <time>2022-10-01T13:34:40Z</time>
      </trkpt>
      <trkpt lat="47.24192" lon="7.75382">
        <ele>435.8</ele>
        <time>2022-10-01T13:34:41Z</time>
      </trkpt>
      <trkpt lat="47.24191" lon="7.75381">
        <ele>435.8</ele>
        <time>2022-10-01T13:34:42Z</time>
      </trkpt>
      <trkpt lat="47.24192" lon="7.7538">
        <ele>435.7</ele>
        <time>2022-10-01T13:34:43Z</time>
      </trkpt>
      <trkpt lat="47.24191" lon="7.7538">
        <ele>435.7</ele>
        <time>2022-10-01T13:34:44Z</time>
      </trkpt>
      <trkpt lat="47.24193" lon="7.75379">
        <ele>435.6</ele>
        <time>2022-10-01T13:34:45Z</time>
      </trkpt>
      <trkpt lat="47.24193" lon="7.75378">
        <ele>435.5</ele>
        <time>2022-10-01T13:34:46Z</time>
      </trkpt>
      <trkpt lat="47.24192" lon="7.75376">
        <ele>435.5</ele>
        <time>2022-10-01T13:34:47Z</time>
      </trkpt>
      <trkpt lat="47.24192" lon="7.75374">
        <ele>435.4</ele>
        <time>2022-10-01T13:34:48Z</time>
      </trkpt>
      <trkpt lat="47.24191" lon="7.75373">
        <ele>435.4</ele>
        <time>2022-10-01T13:34:49Z</time>
      </trkpt>
      <trkpt lat="47.24191" lon="7.75373">
        <ele>435.4</ele>
        <time>2022-10-01T13:34:50Z</time>
      </trkpt>
      <trkpt lat="47.24192" lon="7.75372">
        <ele>435.3</ele>
        <time>2022-10-01T13:34:51Z</time>
      </trkpt>
      <trkpt lat="47.24192" lon="7.75371">
        <ele>435.3</ele>
        <time>2022-10-01T13:34:52Z</time>
      </trkpt>
      <trkpt lat="47.24193" lon="7.7537">
        <ele>435.3</ele>
        <time>2022-10-01T13:34:53Z</time>
      </trkpt>
      <trkpt lat="47.24193" lon="7.75371">
        <ele>435.3</ele>
        <time>2022-10-01T13:34:54Z</time>
      </trkpt>
      <trkpt lat="47.24193" lon="7.75371">
        <ele>435.2</ele>
        <time>2022-10-01T13:34:55Z</time>
      </trkpt>
      <trkpt lat="47.24193" lon="7.7537">
        <ele>435.2</ele>
        <time>2022-10-01T13:34:56Z</time>
      </trkpt>
      <trkpt lat="47.24194" lon="7.75372">
        <ele>435.2</ele>
        <time>2022-10-01T13:34:57Z</time>
      </trkpt>
      <trkpt lat="47.24194" lon="7.75373">
        <ele>435.1</ele>
        <time>2022-10-01T13:34:58Z</time>
      </trkpt>
      <trkpt lat="47.24194" lon="7.75374">
        <ele>435.1</ele>
        <time>2022-10-01T13:34:59Z</time>
      </trkpt>
      <trkpt lat="47.24195" lon="7.75375">
        <ele>435.1</ele>
        <time>2022-10-01T13:35:00Z</time>
      </trkpt>
      <trkpt lat="47.24195" lon="7.75376">
        <ele>435</ele>
        <time>2022-10-01T13:35:01Z</time>
      </trkpt>
      <trkpt lat="47.24195" lon="7.75377">
        <ele>435</ele>
        <time>2022-10-01T13:35:02Z</time>
      </trkpt>
      <trkpt lat="47.24196" lon="7.75378">
        <ele>435</ele>
        <time>2022-10-01T13:36:55Z</time>
      </trkpt>
      <trkpt lat="47.24196" lon="7.75379">
        <ele>434.9</ele>
        <time>2022-10-01T13:36:56Z</time>
      </trkpt>
      <trkpt lat="47.24196" lon="7.75381">
        <ele>434.9</ele>
        <time>2022-10-01T13:36:57Z</time>
      </trkpt>
      <trkpt lat="47.24196" lon="7.75382">
        <ele>434.8</ele>
        <time>2022-10-01T13:36:58Z</time>
      </trkpt>
      <trkpt lat="47.24197" lon="7.75383">
        <ele>434.8</ele>
        <time>2022-10-01T13:36:59Z</time>
      </trkpt>
      <trkpt lat="47.24197" lon="7.75384">
        <ele>434.8</ele>
        <time>2022-10-01T13:37:00Z</time>
      </trkpt>
      <trkpt lat="47.24197" lon="7.75385">
        <ele>434.7</ele>
        <time>2022-10-01T13:37:01Z</time>
      </trkpt>
      <trkpt lat="47.24198" lon="7.75386">
        <ele>434.7</ele>
        <time>2022-10-01T13:37:02Z</time>
      </trkpt>
      <trkpt lat="47.24198" lon="7.75387">
        <ele>434.7</ele>
        <time>2022-10-01T13:37:03Z</time>
      </trkpt>
      <trkpt lat="47.24198" lon="7.75388">
        <ele>434.6</ele>
        <time>2022-10-01T13:37:04Z</time>
      </trkpt>
      <trkpt lat="47.24198" lon="7.75389">
        <ele>434.6</ele>
        <time>2022-10-01T13:44:05Z</time>
      </trkpt>
      <trkpt lat="47.24199" lon="7.75391">
        <ele>434.6</ele>
        <time>2022-10-01T13:44:06Z</time>
      </trkpt>
      <trkpt lat="47.24201" lon="7.75395">
        <ele>434.4</ele>
        <time>2022-10-01T13:44:07Z</time>
      </trkpt>
      <trkpt lat="47.24203" lon="7.75399">
        <ele>434.2</ele>
        <time>2022-10-01T13:44:08Z</time>
      </trkpt>
      <trkpt lat="47.24206" lon="7.75405">
        <ele>434</ele>
        <time>2022-10-01T13:44:09Z</time>
      </trkpt>
      <trkpt lat="47.24207" lon="7.75412">
        <ele>433.8</ele>
        <time>2022-10-01T13:44:10Z</time>
      </trkpt>
      <trkpt lat="47.24209" lon="7.75419">
        <ele>433.6</ele>
        <time>2022-10-01T13:44:11Z</time>
      </trkpt>
      <trkpt lat="47.2421" lon="7.75426">
        <ele>433.4</ele>
        <time>2022-10-01T13:44:12Z</time>
      </trkpt>
      <trkpt lat="47.24212" lon="7.75434">
        <ele>433.2</ele>
        <time>2022-10-01T13:44:13Z</time>
      </trkpt>
      <trkpt lat="47.24216" lon="7.7545">
        <ele>432.8</ele>
        <time>2022-10-01T13:44:14Z</time>
      </trkpt>
      <trkpt lat="47.24219" lon="7.75458">
        <ele>432.6</ele>
        <time>2022-10-01T13:44:15Z</time>
      </trkpt>
      <trkpt lat="47.24221" lon="7.75466">
        <ele>432.4</ele>
        <time>2022-10-01T13:44:16Z</time>
      </trkpt>
      <trkpt lat="47.24224" lon="7.75474">
        <ele>432.2</ele>
        <time>2022-10-01T13:44:17Z</time>
      </trkpt>
      <trkpt lat="47.24226" lon="7.75481">
        <ele>432</ele>
        <time>2022-10-01T13:44:18Z</time>
      </trkpt>
      <trkpt lat="47.24229" lon="7.75488">
        <ele>431.9</ele>
        <time>2022-10-01T13:44:19Z</time>
      </trkpt>
      <trkpt lat="47.24232" lon="7.75496">
        <ele>431.7</ele>
        <time>2022-10-01T13:44:20Z</time>
      </trkpt>
      <trkpt lat="47.24235" lon="7.75503">
        <ele>431.6</ele>
        <time>2022-10-01T13:44:21Z</time>
      </trkpt>
      <trkpt lat="47.24237" lon="7.7551">
        <ele>431.5</ele>
        <time>2022-10-01T13:44:22Z</time>
      </trkpt>
      <trkpt lat="47.24239" lon="7.75518">
        <ele>431.4</ele>
        <time>2022-10-01T13:44:23Z</time>
      </trkpt>
      <trkpt lat="47.24241" lon="7.75525">
        <ele>431.3</ele>
        <time>2022-10-01T13:44:24Z</time>
      </trkpt>
      <trkpt lat="47.24243" lon="7.75533">
        <ele>431.1</ele>
        <time>2022-10-01T13:44:25Z</time>
      </trkpt>
      <trkpt lat="47.24245" lon="7.75541">
        <ele>431.1</ele>
        <time>2022-10-01T13:44:26Z</time>
      </trkpt>
      <trkpt lat="47.24247" lon="7.75549">
        <ele>431</ele>
        <time>2022-10-01T13:44:27Z</time>
      </trkpt>
      <trkpt lat="47.24248" lon="7.75558">
        <ele>430.9</ele>
        <time>2022-10-01T13:44:28Z</time>
      </trkpt>
      <trkpt lat="47.24249" lon="7.75566">
        <ele>430.8</ele>
        <time>2022-10-01T13:44:29Z</time>
      </trkpt>
      <trkpt lat="47.24251" lon="7.75575">
        <ele>430.7</ele>
        <time>2022-10-01T13:44:30Z</time>
      </trkpt>
      <trkpt lat="47.24252" lon="7.75584">
        <ele>430.6</ele>
        <time>2022-10-01T13:44:31Z</time>
      </trkpt>
      <trkpt lat="47.24254" lon="7.75593">
        <ele>430.5</ele>
        <time>2022-10-01T13:44:32Z</time>
      </trkpt>
      <trkpt lat="47.24256" lon="7.75602">
        <ele>430.4</ele>
        <time>2022-10-01T13:44:33Z</time>
      </trkpt>
      <trkpt lat="47.24258" lon="7.7561">
        <ele>430.3</ele>
        <time>2022-10-01T13:44:34Z</time>
      </trkpt>
      <trkpt lat="47.2426" lon="7.75619">
        <ele>430.2</ele>
        <time>2022-10-01T13:44:35Z</time>
      </trkpt>
      <trkpt lat="47.24263" lon="7.75628">
        <ele>430.1</ele>
        <time>2022-10-01T13:44:36Z</time>
      </trkpt>
      <trkpt lat="47.24266" lon="7.75636">
        <ele>430</ele>
        <time>2022-10-01T13:44:37Z</time>
      </trkpt>
      <trkpt lat="47.24268" lon="7.75644">
        <ele>429.9</ele>
        <time>2022-10-01T13:44:38Z</time>
      </trkpt>
      <trkpt lat="47.24271" lon="7.75653">
        <ele>429.8</ele>
        <time>2022-10-01T13:44:39Z</time>
      </trkpt>
      <trkpt lat="47.24274" lon="7.75662">
        <ele>429.7</ele>
        <time>2022-10-01T13:44:40Z</time>
      </trkpt>
      <trkpt lat="47.24277" lon="7.7567">
        <ele>429.7</ele>
        <time>2022-10-01T13:44:41Z</time>
      </trkpt>
      <trkpt lat="47.24279" lon="7.75678">
        <ele>429.7</ele>
        <time>2022-10-01T13:44:42Z</time>
      </trkpt>
      <trkpt lat="47.24282" lon="7.75684">
        <ele>429.6</ele>
        <time>2022-10-01T13:44:43Z</time>
      </trkpt>
      <trkpt lat="47.24284" lon="7.75691">
        <ele>429.6</ele>
        <time>2022-10-01T13:44:44Z</time>
      </trkpt>
      <trkpt lat="47.24286" lon="7.75699">
        <ele>429.6</ele>
        <time>2022-10-01T13:44:45Z</time>
      </trkpt>
      <trkpt lat="47.24289" lon="7.75707">
        <ele>429.6</ele>
        <time>2022-10-01T13:44:46Z</time>
      </trkpt>
      <trkpt lat="47.24291" lon="7.75714">
        <ele>429.6</ele>
        <time>2022-10-01T13:44:47Z</time>
      </trkpt>
      <trkpt lat="47.24293" lon="7.75721">
        <ele>429.7</ele>
        <time>2022-10-01T13:44:48Z</time>
      </trkpt>
      <trkpt lat="47.24294" lon="7.75729">
        <ele>429.7</ele>
        <time>2022-10-01T13:44:49Z</time>
      </trkpt>
      <trkpt lat="47.24296" lon="7.75737">
        <ele>429.7</ele>
        <time>2022-10-01T13:44:50Z</time>
      </trkpt>
      <trkpt lat="47.24297" lon="7.75746">
        <ele>429.6</ele>
        <time>2022-10-01T13:44:51Z</time>
      </trkpt>
      <trkpt lat="47.24299" lon="7.75753">
        <ele>429.6</ele>
        <time>2022-10-01T13:44:52Z</time>
      </trkpt>
      <trkpt lat="47.243" lon="7.75761">
        <ele>429.5</ele>
        <time>2022-10-01T13:44:53Z</time>
      </trkpt>
      <trkpt lat="47.24302" lon="7.75769">
        <ele>429.4</ele>
        <time>2022-10-01T13:44:54Z</time>
      </trkpt>
      <trkpt lat="47.24303" lon="7.75778">
        <ele>429.3</ele>
        <time>2022-10-01T13:44:55Z</time>
      </trkpt>
      <trkpt lat="47.24305" lon="7.75786">
        <ele>429.2</ele>
        <time>2022-10-01T13:44:56Z</time>
      </trkpt>
      <trkpt lat="47.24306" lon="7.75794">
        <ele>429.1</ele>
        <time>2022-10-01T13:44:57Z</time>
      </trkpt>
      <trkpt lat="47.24308" lon="7.75803">
        <ele>428.9</ele>
        <time>2022-10-01T13:44:58Z</time>
      </trkpt>
      <trkpt lat="47.24308" lon="7.75811">
        <ele>428.8</ele>
        <time>2022-10-01T13:44:59Z</time>
      </trkpt>
      <trkpt lat="47.24309" lon="7.7582">
        <ele>428.6</ele>
        <time>2022-10-01T13:45:00Z</time>
      </trkpt>
      <trkpt lat="47.24311" lon="7.7583">
        <ele>428.4</ele>
        <time>2022-10-01T13:45:01Z</time>
      </trkpt>
      <trkpt lat="47.24313" lon="7.7584">
        <ele>428.1</ele>
        <time>2022-10-01T13:45:02Z</time>
      </trkpt>
      <trkpt lat="47.24315" lon="7.75849">
        <ele>427.9</ele>
        <time>2022-10-01T13:45:03Z</time>
      </trkpt>
      <trkpt lat="47.24316" lon="7.75859">
        <ele>427.6</ele>
        <time>2022-10-01T13:45:04Z</time>
      </trkpt>
      <trkpt lat="47.24318" lon="7.75869">
        <ele>427.4</ele>
        <time>2022-10-01T13:45:05Z</time>
      </trkpt>
      <trkpt lat="47.2432" lon="7.75878">
        <ele>427.1</ele>
        <time>2022-10-01T13:45:06Z</time>
      </trkpt>
      <trkpt lat="47.24322" lon="7.75887">
        <ele>426.8</ele>
        <time>2022-10-01T13:45:07Z</time>
      </trkpt>
      <trkpt lat="47.24323" lon="7.75897">
        <ele>426.5</ele>
        <time>2022-10-01T13:45:08Z</time>
      </trkpt>
      <trkpt lat="47.24326" lon="7.75906">
        <ele>426.2</ele>
        <time>2022-10-01T13:45:09Z</time>
      </trkpt>
      <trkpt lat="47.24329" lon="7.75915">
        <ele>425.8</ele>
        <time>2022-10-01T13:45:10Z</time>
      </trkpt>
      <trkpt lat="47.24332" lon="7.75923">
        <ele>425.4</ele>
        <time>2022-10-01T13:45:11Z</time>
      </trkpt>
      <trkpt lat="47.24335" lon="7.75932">
        <ele>425</ele>
        <time>2022-10-01T13:45:12Z</time>
      </trkpt>
      <trkpt lat="47.24339" lon="7.75942">
        <ele>424.5</ele>
        <time>2022-10-01T13:45:13Z</time>
      </trkpt>
      <trkpt lat="47.24342" lon="7.75951">
        <ele>424</ele>
        <time>2022-10-01T13:45:14Z</time>
      </trkpt>
      <trkpt lat="47.24345" lon="7.75961">
        <ele>423.6</ele>
        <time>2022-10-01T13:45:15Z</time>
      </trkpt>
      <trkpt lat="47.24348" lon="7.75971">
        <ele>423.2</ele>
        <time>2022-10-01T13:45:16Z</time>
      </trkpt>
      <trkpt lat="47.24351" lon="7.75982">
        <ele>422.8</ele>
        <time>2022-10-01T13:45:17Z</time>
      </trkpt>
      <trkpt lat="47.24353" lon="7.75992">
        <ele>422.5</ele>
        <time>2022-10-01T13:45:18Z</time>
      </trkpt>
      <trkpt lat="47.24355" lon="7.76003">
        <ele>422.1</ele>
        <time>2022-10-01T13:45:19Z</time>
      </trkpt>
      <trkpt lat="47.24358" lon="7.76014">
        <ele>421.8</ele>
        <time>2022-10-01T13:45:20Z</time>
      </trkpt>
      <trkpt lat="47.2436" lon="7.76025">
        <ele>421.6</ele>
        <time>2022-10-01T13:45:21Z</time>
      </trkpt>
      <trkpt lat="47.24362" lon="7.76036">
        <ele>421.3</ele>
        <time>2022-10-01T13:45:22Z</time>
      </trkpt>
      <trkpt lat="47.24365" lon="7.76046">
        <ele>421.1</ele>
        <time>2022-10-01T13:45:23Z</time>
      </trkpt>
      <trkpt lat="47.24367" lon="7.76056">
        <ele>420.9</ele>
        <time>2022-10-01T13:45:24Z</time>
      </trkpt>
      <trkpt lat="47.24368" lon="7.76066">
        <ele>420.7</ele>
        <time>2022-10-01T13:45:25Z</time>
      </trkpt>
      <trkpt lat="47.2437" lon="7.76077">
        <ele>420.5</ele>
        <time>2022-10-01T13:45:26Z</time>
      </trkpt>
      <trkpt lat="47.24371" lon="7.76087">
        <ele>420.3</ele>
        <time>2022-10-01T13:45:27Z</time>
      </trkpt>
      <trkpt lat="47.24373" lon="7.76098">
        <ele>420.1</ele>
        <time>2022-10-01T13:45:28Z</time>
      </trkpt>
      <trkpt lat="47.24375" lon="7.76109">
        <ele>419.8</ele>
        <time>2022-10-01T13:45:29Z</time>
      </trkpt>
      <trkpt lat="47.24377" lon="7.76119">
        <ele>419.6</ele>
        <time>2022-10-01T13:45:30Z</time>
      </trkpt>
      <trkpt lat="47.24379" lon="7.7613">
        <ele>419.3</ele>
        <time>2022-10-01T13:45:31Z</time>
      </trkpt>
      <trkpt lat="47.24381" lon="7.7614">
        <ele>419.1</ele>
        <time>2022-10-01T13:45:32Z</time>
      </trkpt>
      <trkpt lat="47.24384" lon="7.76151">
        <ele>419</ele>
        <time>2022-10-01T13:45:33Z</time>
      </trkpt>
      <trkpt lat="47.24386" lon="7.76162">
        <ele>418.9</ele>
        <time>2022-10-01T13:45:34Z</time>
      </trkpt>
      <trkpt lat="47.24388" lon="7.76171">
        <ele>418.7</ele>
        <time>2022-10-01T13:45:35Z</time>
      </trkpt>
      <trkpt lat="47.2439" lon="7.7618">
        <ele>418.5</ele>
        <time>2022-10-01T13:45:36Z</time>
      </trkpt>
      <trkpt lat="47.24392" lon="7.76189">
        <ele>418.3</ele>
        <time>2022-10-01T13:45:37Z</time>
      </trkpt>
      <trkpt lat="47.24394" lon="7.76199">
        <ele>418.1</ele>
        <time>2022-10-01T13:45:38Z</time>
      </trkpt>
      <trkpt lat="47.24398" lon="7.76208">
        <ele>417.8</ele>
        <time>2022-10-01T13:45:39Z</time>
      </trkpt>
      <trkpt lat="47.24403" lon="7.76216">
        <ele>417.6</ele>
        <time>2022-10-01T13:45:40Z</time>
      </trkpt>
      <trkpt lat="47.24407" lon="7.76224">
        <ele>417.4</ele>
        <time>2022-10-01T13:45:41Z</time>
      </trkpt>
      <trkpt lat="47.24411" lon="7.76231">
        <ele>417.2</ele>
        <time>2022-10-01T13:45:42Z</time>
      </trkpt>
      <trkpt lat="47.24415" lon="7.76239">
        <ele>417.1</ele>
        <time>2022-10-01T13:45:43Z</time>
      </trkpt>
      <trkpt lat="47.24419" lon="7.76247">
        <ele>416.9</ele>
        <time>2022-10-01T13:45:44Z</time>
      </trkpt>
      <trkpt lat="47.24423" lon="7.76256">
        <ele>416.8</ele>
        <time>2022-10-01T13:45:46Z</time>
      </trkpt>
      <trkpt lat="47.24426" lon="7.76265">
        <ele>416.6</ele>
        <time>2022-10-01T13:45:47Z</time>
      </trkpt>
      <trkpt lat="47.24428" lon="7.76274">
        <ele>416.5</ele>
        <time>2022-10-01T13:45:48Z</time>
      </trkpt>
      <trkpt lat="47.24429" lon="7.76284">
        <ele>416.4</ele>
        <time>2022-10-01T13:45:49Z</time>
      </trkpt>
      <trkpt lat="47.24431" lon="7.76293">
        <ele>416.3</ele>
        <time>2022-10-01T13:45:50Z</time>
      </trkpt>
      <trkpt lat="47.24433" lon="7.76303">
        <ele>416.2</ele>
        <time>2022-10-01T13:45:51Z</time>
      </trkpt>
      <trkpt lat="47.24435" lon="7.76312">
        <ele>416.1</ele>
        <time>2022-10-01T13:45:52Z</time>
      </trkpt>
      <trkpt lat="47.24436" lon="7.76322">
        <ele>416</ele>
        <time>2022-10-01T13:45:53Z</time>
      </trkpt>
      <trkpt lat="47.24438" lon="7.7633">
        <ele>415.9</ele>
        <time>2022-10-01T13:45:54Z</time>
      </trkpt>
      <trkpt lat="47.2444" lon="7.76339">
        <ele>415.8</ele>
        <time>2022-10-01T13:45:55Z</time>
      </trkpt>
      <trkpt lat="47.24441" lon="7.76348">
        <ele>415.8</ele>
        <time>2022-10-01T13:45:56Z</time>
      </trkpt>
      <trkpt lat="47.24444" lon="7.76356">
        <ele>415.7</ele>
        <time>2022-10-01T13:45:57Z</time>
      </trkpt>
      <trkpt lat="47.24446" lon="7.76364">
        <ele>415.7</ele>
        <time>2022-10-01T13:45:58Z</time>
      </trkpt>
      <trkpt lat="47.24448" lon="7.76371">
        <ele>415.7</ele>
        <time>2022-10-01T13:45:59Z</time>
      </trkpt>
      <trkpt lat="47.2445" lon="7.76379">
        <ele>415.8</ele>
        <time>2022-10-01T13:46:00Z</time>
      </trkpt>
      <trkpt lat="47.24452" lon="7.76385">
        <ele>415.8</ele>
        <time>2022-10-01T13:46:01Z</time>
      </trkpt>
      <trkpt lat="47.24455" lon="7.76391">
        <ele>415.8</ele>
        <time>2022-10-01T13:46:02Z</time>
      </trkpt>
      <trkpt lat="47.24456" lon="7.76395">
        <ele>415.8</ele>
        <time>2022-10-01T13:46:03Z</time>
      </trkpt>
      <trkpt lat="47.24458" lon="7.76398">
        <ele>415.8</ele>
        <time>2022-10-01T13:46:04Z</time>
      </trkpt>
      <trkpt lat="47.24459" lon="7.76399">
        <ele>415.8</ele>
        <time>2022-10-01T13:46:05Z</time>
      </trkpt>
      <trkpt lat="47.24461" lon="7.764">
        <ele>415.8</ele>
        <time>2022-10-01T13:46:06Z</time>
      </trkpt>
      <trkpt lat="47.24463" lon="7.764">
        <ele>415.8</ele>
        <time>2022-10-01T13:46:07Z</time>
      </trkpt>
      <trkpt lat="47.24465" lon="7.76399">
        <ele>415.8</ele>
        <time>2022-10-01T13:46:08Z</time>
      </trkpt>
      <trkpt lat="47.24468" lon="7.76397">
        <ele>415.7</ele>
        <time>2022-10-01T13:46:09Z</time>
      </trkpt>
      <trkpt lat="47.24472" lon="7.76395">
        <ele>415.7</ele>
        <time>2022-10-01T13:46:10Z</time>
      </trkpt>
      <trkpt lat="47.24475" lon="7.76392">
        <ele>415.6</ele>
        <time>2022-10-01T13:46:11Z</time>
      </trkpt>
      <trkpt lat="47.24478" lon="7.76391">
        <ele>415.6</ele>
        <time>2022-10-01T13:46:12Z</time>
      </trkpt>
      <trkpt lat="47.24481" lon="7.7639">
        <ele>415.6</ele>
        <time>2022-10-01T13:46:13Z</time>
      </trkpt>
      <trkpt lat="47.24482" lon="7.76391">
        <ele>415.5</ele>
        <time>2022-10-01T13:46:14Z</time>
      </trkpt>
      <trkpt lat="47.24486" lon="7.76393">
        <ele>415.5</ele>
        <time>2022-10-01T13:46:15Z</time>
      </trkpt>
      <trkpt lat="47.24487" lon="7.76394">
        <ele>415.5</ele>
        <time>2022-10-01T13:46:16Z</time>
      </trkpt>
      <trkpt lat="47.24489" lon="7.76397">
        <ele>415.5</ele>
        <time>2022-10-01T13:46:17Z</time>
      </trkpt>
      <trkpt lat="47.24492" lon="7.76401">
        <ele>415.5</ele>
        <time>2022-10-01T13:46:18Z</time>
      </trkpt>
      <trkpt lat="47.24494" lon="7.76405">
        <ele>415.5</ele>
        <time>2022-10-01T13:46:19Z</time>
      </trkpt>
      <trkpt lat="47.24497" lon="7.76407">
        <ele>415.5</ele>
        <time>2022-10-01T13:46:20Z</time>
      </trkpt>
      <trkpt lat="47.24498" lon="7.76408">
        <ele>415.5</ele>
        <time>2022-10-01T13:46:21Z</time>
      </trkpt>
      <trkpt lat="47.245" lon="7.76408">
        <ele>415.5</ele>
        <time>2022-10-01T13:46:22Z</time>
      </trkpt>
      <trkpt lat="47.24501" lon="7.76409">
        <ele>415.5</ele>
        <time>2022-10-01T13:46:23Z</time>
      </trkpt>
      <trkpt lat="47.24502" lon="7.76409">
        <ele>415.5</ele>
        <time>2022-10-01T13:46:24Z</time>
      </trkpt>
      <trkpt lat="47.24503" lon="7.7641">
        <ele>415.5</ele>
        <time>2022-10-01T13:46:25Z</time>
      </trkpt>
      <trkpt lat="47.24504" lon="7.76411">
        <ele>415.5</ele>
        <time>2022-10-01T13:46:26Z</time>
      </trkpt>
      <trkpt lat="47.24504" lon="7.76411">
        <ele>415.5</ele>
        <time>2022-10-01T13:46:27Z</time>
      </trkpt>
      <trkpt lat="47.24504" lon="7.76411">
        <ele>415.5</ele>
        <time>2022-10-01T13:46:28Z</time>
      </trkpt>
      <trkpt lat="47.24505" lon="7.76412">
        <ele>415.5</ele>
        <time>2022-10-01T13:46:29Z</time>
      </trkpt>
      <trkpt lat="47.24506" lon="7.76412">
        <ele>415.5</ele>
        <time>2022-10-01T13:46:30Z</time>
      </trkpt>
      <trkpt lat="47.24506" lon="7.76412">
        <ele>415.5</ele>
        <time>2022-10-01T13:46:31Z</time>
      </trkpt>
      <trkpt lat="47.24507" lon="7.76412">
        <ele>415.5</ele>
        <time>2022-10-01T13:46:32Z</time>
      </trkpt>
      <trkpt lat="47.24508" lon="7.76412">
        <ele>415.5</ele>
        <time>2022-10-01T13:46:33Z</time>
      </trkpt>
      <trkpt lat="47.24508" lon="7.76412">
        <ele>415.5</ele>
        <time>2022-10-01T13:46:34Z</time>
      </trkpt>
      <trkpt lat="47.24511" lon="7.76411">
        <ele>415.5</ele>
        <time>2022-10-01T13:46:35Z</time>
      </trkpt>
      <trkpt lat="47.24512" lon="7.7641">
        <ele>415.5</ele>
        <time>2022-10-01T13:46:36Z</time>
      </trkpt>
      <trkpt lat="47.24515" lon="7.76408">
        <ele>415.1</ele>
        <time>2022-10-01T13:46:37Z</time>
      </trkpt>
      <trkpt lat="47.24517" lon="7.76405">
        <ele>415</ele>
        <time>2022-10-01T13:46:38Z</time>
      </trkpt>
      <trkpt lat="47.24518" lon="7.76399">
        <ele>414.9</ele>
        <time>2022-10-01T13:46:39Z</time>
      </trkpt>
      <trkpt lat="47.24519" lon="7.76398">
        <ele>414.8</ele>
        <time>2022-10-01T13:46:40Z</time>
      </trkpt>
      <trkpt lat="47.24522" lon="7.76386">
        <ele>414.5</ele>
        <time>2022-10-01T13:46:41Z</time>
      </trkpt>
      <trkpt lat="47.24523" lon="7.7638">
        <ele>414.3</ele>
        <time>2022-10-01T13:46:42Z</time>
      </trkpt>
      <trkpt lat="47.24525" lon="7.76375">
        <ele>414.2</ele>
        <time>2022-10-01T13:46:43Z</time>
      </trkpt>
      <trkpt lat="47.24527" lon="7.76369">
        <ele>414.1</ele>
        <time>2022-10-01T13:46:44Z</time>
      </trkpt>
      <trkpt lat="47.2453" lon="7.76363">
        <ele>413.9</ele>
        <time>2022-10-01T13:46:45Z</time>
      </trkpt>
      <trkpt lat="47.24533" lon="7.76357">
        <ele>413.8</ele>
        <time>2022-10-01T13:46:46Z</time>
      </trkpt>
      <trkpt lat="47.24536" lon="7.7635">
        <ele>413.7</ele>
        <time>2022-10-01T13:46:47Z</time>
      </trkpt>
      <trkpt lat="47.2454" lon="7.76344">
        <ele>413.6</ele>
        <time>2022-10-01T13:46:48Z</time>
      </trkpt>
      <trkpt lat="47.24543" lon="7.76337">
        <ele>413.5</ele>
        <time>2022-10-01T13:46:49Z</time>
      </trkpt>
      <trkpt lat="47.24546" lon="7.76331">
        <ele>413.5</ele>
        <time>2022-10-01T13:46:50Z</time>
      </trkpt>
      <trkpt lat="47.2455" lon="7.76325">
        <ele>413.4</ele>
        <time>2022-10-01T13:46:51Z</time>
      </trkpt>
      <trkpt lat="47.24554" lon="7.76319">
        <ele>413.3</ele>
        <time>2022-10-01T13:46:52Z</time>
      </trkpt>
      <trkpt lat="47.24558" lon="7.76315">
        <ele>413.3</ele>
        <time>2022-10-01T13:46:53Z</time>
      </trkpt>
      <trkpt lat="47.24563" lon="7.7631">
        <ele>413.2</ele>
        <time>2022-10-01T13:46:54Z</time>
      </trkpt>
      <trkpt lat="47.24568" lon="7.76304">
        <ele>413.2</ele>
        <time>2022-10-01T13:46:55Z</time>
      </trkpt>
      <trkpt lat="47.24572" lon="7.763">
        <ele>413.2</ele>
        <time>2022-10-01T13:46:56Z</time>
      </trkpt>
      <trkpt lat="47.24577" lon="7.76295">
        <ele>413.1</ele>
        <time>2022-10-01T13:46:57Z</time>
      </trkpt>
      <trkpt lat="47.24582" lon="7.76291">
        <ele>413.1</ele>
        <time>2022-10-01T13:46:58Z</time>
      </trkpt>
      <trkpt lat="47.24587" lon="7.76286">
        <ele>413</ele>
        <time>2022-10-01T13:46:59Z</time>
      </trkpt>
      <trkpt lat="47.24593" lon="7.76282">
        <ele>413</ele>
        <time>2022-10-01T13:47:00Z</time>
      </trkpt>
      <trkpt lat="47.24598" lon="7.76278">
        <ele>412.9</ele>
        <time>2022-10-01T13:47:01Z</time>
      </trkpt>
      <trkpt lat="47.24603" lon="7.76273">
        <ele>412.9</ele>
        <time>2022-10-01T13:47:02Z</time>
      </trkpt>
      <trkpt lat="47.24608" lon="7.76269">
        <ele>412.9</ele>
        <time>2022-10-01T13:47:03Z</time>
      </trkpt>
      <trkpt lat="47.24613" lon="7.76265">
        <ele>412.9</ele>
        <time>2022-10-01T13:47:04Z</time>
      </trkpt>
      <trkpt lat="47.24618" lon="7.76261">
        <ele>412.9</ele>
        <time>2022-10-01T13:47:05Z</time>
      </trkpt>
      <trkpt lat="47.24623" lon="7.76258">
        <ele>413</ele>
        <time>2022-10-01T13:47:06Z</time>
      </trkpt>
      <trkpt lat="47.24627" lon="7.76254">
        <ele>413</ele>
        <time>2022-10-01T13:47:07Z</time>
      </trkpt>
      <trkpt lat="47.24632" lon="7.76249">
        <ele>413</ele>
        <time>2022-10-01T13:47:08Z</time>
      </trkpt>
      <trkpt lat="47.24636" lon="7.76246">
        <ele>413.1</ele>
        <time>2022-10-01T13:47:09Z</time>
      </trkpt>
      <trkpt lat="47.2464" lon="7.76243">
        <ele>413.2</ele>
        <time>2022-10-01T13:47:10Z</time>
      </trkpt>
      <trkpt lat="47.24645" lon="7.76239">
        <ele>413.2</ele>
        <time>2022-10-01T13:47:11Z</time>
      </trkpt>
      <trkpt lat="47.24649" lon="7.76236">
        <ele>413.3</ele>
        <time>2022-10-01T13:47:12Z</time>
      </trkpt>
      <trkpt lat="47.24652" lon="7.76233">
        <ele>413.4</ele>
        <time>2022-10-01T13:47:13Z</time>
      </trkpt>
      <trkpt lat="47.24655" lon="7.7623">
        <ele>413.4</ele>
        <time>2022-10-01T13:47:14Z</time>
      </trkpt>
      <trkpt lat="47.24658" lon="7.76227">
        <ele>413.4</ele>
        <time>2022-10-01T13:47:15Z</time>
      </trkpt>
      <trkpt lat="47.24661" lon="7.76225">
        <ele>413.4</ele>
        <time>2022-10-01T13:47:16Z</time>
      </trkpt>
      <trkpt lat="47.24663" lon="7.76226">
        <ele>413.4</ele>
        <time>2022-10-01T13:47:17Z</time>
      </trkpt>
      <trkpt lat="47.24666" lon="7.76227">
        <ele>413.3</ele>
        <time>2022-10-01T13:47:18Z</time>
      </trkpt>
      <trkpt lat="47.24668" lon="7.7623">
        <ele>413.3</ele>
        <time>2022-10-01T13:47:19Z</time>
      </trkpt>
      <trkpt lat="47.24671" lon="7.76235">
        <ele>413.2</ele>
        <time>2022-10-01T13:47:20Z</time>
      </trkpt>
      <trkpt lat="47.24672" lon="7.76237">
        <ele>413.2</ele>
        <time>2022-10-01T13:47:21Z</time>
      </trkpt>
      <trkpt lat="47.24674" lon="7.76242">
        <ele>413.2</ele>
        <time>2022-10-01T13:47:22Z</time>
      </trkpt>
      <trkpt lat="47.24677" lon="7.76246">
        <ele>413.2</ele>
        <time>2022-10-01T13:47:23Z</time>
      </trkpt>
      <trkpt lat="47.2468" lon="7.7625">
        <ele>413.1</ele>
        <time>2022-10-01T13:47:24Z</time>
      </trkpt>
      <trkpt lat="47.24684" lon="7.76254">
        <ele>413.1</ele>
        <time>2022-10-01T13:47:25Z</time>
      </trkpt>
      <trkpt lat="47.24687" lon="7.76258">
        <ele>413.1</ele>
        <time>2022-10-01T13:47:26Z</time>
      </trkpt>
      <trkpt lat="47.24689" lon="7.76262">
        <ele>413.1</ele>
        <time>2022-10-01T13:47:27Z</time>
      </trkpt>
      <trkpt lat="47.24691" lon="7.76267">
        <ele>413</ele>
        <time>2022-10-01T13:47:28Z</time>
      </trkpt>
      <trkpt lat="47.24694" lon="7.76271">
        <ele>413</ele>
        <time>2022-10-01T13:47:29Z</time>
      </trkpt>
      <trkpt lat="47.24697" lon="7.76277">
        <ele>413</ele>
        <time>2022-10-01T13:47:30Z</time>
      </trkpt>
      <trkpt lat="47.24701" lon="7.76282">
        <ele>413</ele>
        <time>2022-10-01T13:47:31Z</time>
      </trkpt>
      <trkpt lat="47.24703" lon="7.76287">
        <ele>412.9</ele>
        <time>2022-10-01T13:47:32Z</time>
      </trkpt>
      <trkpt lat="47.24706" lon="7.76293">
        <ele>412.9</ele>
        <time>2022-10-01T13:47:33Z</time>
      </trkpt>
      <trkpt lat="47.2471" lon="7.763">
        <ele>413</ele>
        <time>2022-10-01T13:47:34Z</time>
      </trkpt>
      <trkpt lat="47.24713" lon="7.76307">
        <ele>413</ele>
        <time>2022-10-01T13:47:35Z</time>
      </trkpt>
      <trkpt lat="47.24716" lon="7.76313">
        <ele>413</ele>
        <time>2022-10-01T13:47:36Z</time>
      </trkpt>
      <trkpt lat="47.24719" lon="7.7632">
        <ele>413</ele>
        <time>2022-10-01T13:47:37Z</time>
      </trkpt>
      <trkpt lat="47.24723" lon="7.76326">
        <ele>413</ele>
        <time>2022-10-01T13:47:38Z</time>
      </trkpt>
      <trkpt lat="47.24727" lon="7.76333">
        <ele>413.1</ele>
        <time>2022-10-01T13:47:39Z</time>
      </trkpt>
      <trkpt lat="47.2473" lon="7.7634">
        <ele>413.1</ele>
        <time>2022-10-01T13:47:40Z</time>
      </trkpt>
      <trkpt lat="47.24734" lon="7.76347">
        <ele>413.1</ele>
        <time>2022-10-01T13:47:41Z</time>
      </trkpt>
      <trkpt lat="47.24737" lon="7.76354">
        <ele>413.1</ele>
        <time>2022-10-01T13:47:42Z</time>
      </trkpt>
      <trkpt lat="47.24741" lon="7.7636">
        <ele>413.1</ele>
        <time>2022-10-01T13:47:43Z</time>
      </trkpt>
      <trkpt lat="47.24744" lon="7.76367">
        <ele>413.2</ele>
        <time>2022-10-01T13:47:44Z</time>
      </trkpt>
      <trkpt lat="47.24747" lon="7.76372">
        <ele>413.2</ele>
        <time>2022-10-01T13:47:45Z</time>
      </trkpt>
      <trkpt lat="47.24751" lon="7.76378">
        <ele>413.2</ele>
        <time>2022-10-01T13:47:46Z</time>
      </trkpt>
      <trkpt lat="47.24755" lon="7.76384">
        <ele>413.3</ele>
        <time>2022-10-01T13:47:47Z</time>
      </trkpt>
      <trkpt lat="47.24759" lon="7.76388">
        <ele>413.3</ele>
        <time>2022-10-01T13:47:48Z</time>
      </trkpt>
      <trkpt lat="47.24763" lon="7.76393">
        <ele>413.3</ele>
        <time>2022-10-01T13:47:49Z</time>
      </trkpt>
      <trkpt lat="47.24767" lon="7.76398">
        <ele>413.4</ele>
        <time>2022-10-01T13:47:50Z</time>
      </trkpt>
      <trkpt lat="47.24772" lon="7.76404">
        <ele>413.4</ele>
        <time>2022-10-01T13:47:52Z</time>
      </trkpt>
      <trkpt lat="47.24775" lon="7.7641">
        <ele>413.5</ele>
        <time>2022-10-01T13:47:53Z</time>
      </trkpt>
      <trkpt lat="47.2478" lon="7.76415">
        <ele>413.5</ele>
        <time>2022-10-01T13:47:54Z</time>
      </trkpt>
      <trkpt lat="47.24785" lon="7.76419">
        <ele>413.6</ele>
        <time>2022-10-01T13:47:55Z</time>
      </trkpt>
      <trkpt lat="47.24791" lon="7.76423">
        <ele>413.6</ele>
        <time>2022-10-01T13:47:56Z</time>
      </trkpt>
      <trkpt lat="47.24796" lon="7.76428">
        <ele>413.7</ele>
        <time>2022-10-01T13:47:57Z</time>
      </trkpt>
      <trkpt lat="47.24801" lon="7.76432">
        <ele>413.8</ele>
        <time>2022-10-01T13:47:58Z</time>
      </trkpt>
      <trkpt lat="47.24806" lon="7.76436">
        <ele>413.8</ele>
        <time>2022-10-01T13:47:59Z</time>
      </trkpt>
      <trkpt lat="47.24811" lon="7.7644">
        <ele>413.9</ele>
        <time>2022-10-01T13:48:00Z</time>
      </trkpt>
      <trkpt lat="47.24816" lon="7.76444">
        <ele>413.9</ele>
        <time>2022-10-01T13:48:01Z</time>
      </trkpt>
      <trkpt lat="47.24821" lon="7.76448">
        <ele>413.9</ele>
        <time>2022-10-01T13:48:02Z</time>
      </trkpt>
      <trkpt lat="47.24826" lon="7.76452">
        <ele>413.9</ele>
        <time>2022-10-01T13:48:03Z</time>
      </trkpt>
      <trkpt lat="47.2483" lon="7.76457">
        <ele>414</ele>
        <time>2022-10-01T13:48:04Z</time>
      </trkpt>
      <trkpt lat="47.24835" lon="7.76461">
        <ele>414</ele>
        <time>2022-10-01T13:48:05Z</time>
      </trkpt>
      <trkpt lat="47.2484" lon="7.76465">
        <ele>414.1</ele>
        <time>2022-10-01T13:48:06Z</time>
      </trkpt>
      <trkpt lat="47.24844" lon="7.76469">
        <ele>414.1</ele>
        <time>2022-10-01T13:48:07Z</time>
      </trkpt>
      <trkpt lat="47.24849" lon="7.76473">
        <ele>414.2</ele>
        <time>2022-10-01T13:48:08Z</time>
      </trkpt>
      <trkpt lat="47.24853" lon="7.76476">
        <ele>414.2</ele>
        <time>2022-10-01T13:48:09Z</time>
      </trkpt>
      <trkpt lat="47.24857" lon="7.7648">
        <ele>414.3</ele>
        <time>2022-10-01T13:48:10Z</time>
      </trkpt>
      <trkpt lat="47.24861" lon="7.76483">
        <ele>414.3</ele>
        <time>2022-10-01T13:48:11Z</time>
      </trkpt>
      <trkpt lat="47.24865" lon="7.76487">
        <ele>414.3</ele>
        <time>2022-10-01T13:48:12Z</time>
      </trkpt>
      <trkpt lat="47.24869" lon="7.7649">
        <ele>414.4</ele>
        <time>2022-10-01T13:48:13Z</time>
      </trkpt>
      <trkpt lat="47.24873" lon="7.76494">
        <ele>414.4</ele>
        <time>2022-10-01T13:48:14Z</time>
      </trkpt>
      <trkpt lat="47.24877" lon="7.76497">
        <ele>414.4</ele>
        <time>2022-10-01T13:48:15Z</time>
      </trkpt>
      <trkpt lat="47.24881" lon="7.76501">
        <ele>414.5</ele>
        <time>2022-10-01T13:48:16Z</time>
      </trkpt>
      <trkpt lat="47.24885" lon="7.76504">
        <ele>414.5</ele>
        <time>2022-10-01T13:48:17Z</time>
      </trkpt>
      <trkpt lat="47.24889" lon="7.76507">
        <ele>414.5</ele>
        <time>2022-10-01T13:48:18Z</time>
      </trkpt>
      <trkpt lat="47.24893" lon="7.76511">
        <ele>414.5</ele>
        <time>2022-10-01T13:48:19Z</time>
      </trkpt>
      <trkpt lat="47.24897" lon="7.76514">
        <ele>414.6</ele>
        <time>2022-10-01T13:48:20Z</time>
      </trkpt>
      <trkpt lat="47.24901" lon="7.76518">
        <ele>414.6</ele>
        <time>2022-10-01T13:48:21Z</time>
      </trkpt>
      <trkpt lat="47.24905" lon="7.76521">
        <ele>414.6</ele>
        <time>2022-10-01T13:48:22Z</time>
      </trkpt>
      <trkpt lat="47.24909" lon="7.76525">
        <ele>414.7</ele>
        <time>2022-10-01T13:48:23Z</time>
      </trkpt>
      <trkpt lat="47.24913" lon="7.76528">
        <ele>414.8</ele>
        <time>2022-10-01T13:48:24Z</time>
      </trkpt>
      <trkpt lat="47.24918" lon="7.76532">
        <ele>414.9</ele>
        <time>2022-10-01T13:48:25Z</time>
      </trkpt>
      <trkpt lat="47.24922" lon="7.76535">
        <ele>415</ele>
        <time>2022-10-01T13:48:26Z</time>
      </trkpt>
      <trkpt lat="47.24926" lon="7.76538">
        <ele>415</ele>
        <time>2022-10-01T13:48:27Z</time>
      </trkpt>
      <trkpt lat="47.2493" lon="7.76542">
        <ele>415.1</ele>
        <time>2022-10-01T13:48:28Z</time>
      </trkpt>
      <trkpt lat="47.24933" lon="7.76546">
        <ele>415.2</ele>
        <time>2022-10-01T13:48:29Z</time>
      </trkpt>
      <trkpt lat="47.24941" lon="7.76552">
        <ele>415.5</ele>
        <time>2022-10-01T13:48:30Z</time>
      </trkpt>
      <trkpt lat="47.24945" lon="7.76555">
        <ele>415.6</ele>
        <time>2022-10-01T13:48:31Z</time>
      </trkpt>
      <trkpt lat="47.24949" lon="7.76559">
        <ele>415.8</ele>
        <time>2022-10-01T13:48:32Z</time>
      </trkpt>
      <trkpt lat="47.24952" lon="7.76562">
        <ele>415.9</ele>
        <time>2022-10-01T13:48:33Z</time>
      </trkpt>
      <trkpt lat="47.24956" lon="7.76565">
        <ele>416.1</ele>
        <time>2022-10-01T13:48:34Z</time>
      </trkpt>
      <trkpt lat="47.2496" lon="7.76568">
        <ele>416.3</ele>
        <time>2022-10-01T13:48:35Z</time>
      </trkpt>
      <trkpt lat="47.24964" lon="7.76572">
        <ele>416.5</ele>
        <time>2022-10-01T13:48:36Z</time>
      </trkpt>
      <trkpt lat="47.24968" lon="7.76575">
        <ele>416.7</ele>
        <time>2022-10-01T13:48:37Z</time>
      </trkpt>
      <trkpt lat="47.24971" lon="7.76578">
        <ele>416.9</ele>
        <time>2022-10-01T13:48:38Z</time>
      </trkpt>
      <trkpt lat="47.24974" lon="7.7658">
        <ele>417.2</ele>
        <time>2022-10-01T13:48:39Z</time>
      </trkpt>
      <trkpt lat="47.24978" lon="7.76583">
        <ele>417.4</ele>
        <time>2022-10-01T13:48:40Z</time>
      </trkpt>
      <trkpt lat="47.24981" lon="7.76585">
        <ele>417.6</ele>
        <time>2022-10-01T13:48:41Z</time>
      </trkpt>
      <trkpt lat="47.24983" lon="7.76588">
        <ele>417.8</ele>
        <time>2022-10-01T13:48:42Z</time>
      </trkpt>
      <trkpt lat="47.24986" lon="7.7659">
        <ele>418</ele>
        <time>2022-10-01T13:48:43Z</time>
      </trkpt>
      <trkpt lat="47.24988" lon="7.76592">
        <ele>418.2</ele>
        <time>2022-10-01T13:48:44Z</time>
      </trkpt>
      <trkpt lat="47.24992" lon="7.76595">
        <ele>418.5</ele>
        <time>2022-10-01T13:48:45Z</time>
      </trkpt>
      <trkpt lat="47.24993" lon="7.76596">
        <ele>418.6</ele>
        <time>2022-10-01T13:48:46Z</time>
      </trkpt>
      <trkpt lat="47.24996" lon="7.76599">
        <ele>418.9</ele>
        <time>2022-10-01T13:48:47Z</time>
      </trkpt>
      <trkpt lat="47.24997" lon="7.76599">
        <ele>419</ele>
        <time>2022-10-01T13:48:48Z</time>
      </trkpt>
      <trkpt lat="47.25" lon="7.76602">
        <ele>419.2</ele>
        <time>2022-10-01T13:48:49Z</time>
      </trkpt>
      <trkpt lat="47.25" lon="7.76603">
        <ele>419.3</ele>
        <time>2022-10-01T13:48:50Z</time>
      </trkpt>
      <trkpt lat="47.25003" lon="7.76605">
        <ele>419.6</ele>
        <time>2022-10-01T13:48:51Z</time>
      </trkpt>
      <trkpt lat="47.25004" lon="7.76605">
        <ele>419.7</ele>
        <time>2022-10-01T13:48:52Z</time>
      </trkpt>
      <trkpt lat="47.25007" lon="7.76606">
        <ele>419.9</ele>
        <time>2022-10-01T13:48:53Z</time>
      </trkpt>
      <trkpt lat="47.25008" lon="7.76607">
        <ele>420</ele>
        <time>2022-10-01T13:48:54Z</time>
      </trkpt>
      <trkpt lat="47.25009" lon="7.76608">
        <ele>420.2</ele>
        <time>2022-10-01T13:48:55Z</time>
      </trkpt>
      <trkpt lat="47.25011" lon="7.76609">
        <ele>420.3</ele>
        <time>2022-10-01T13:48:56Z</time>
      </trkpt>
      <trkpt lat="47.25014" lon="7.76611">
        <ele>420.6</ele>
        <time>2022-10-01T13:48:57Z</time>
      </trkpt>
      <trkpt lat="47.25014" lon="7.76611">
        <ele>420.6</ele>
        <time>2022-10-01T13:48:58Z</time>
      </trkpt>
      <trkpt lat="47.25015" lon="7.76612">
        <ele>420.7</ele>
        <time>2022-10-01T13:48:59Z</time>
      </trkpt>
      <trkpt lat="47.25017" lon="7.76613">
        <ele>420.9</ele>
        <time>2022-10-01T13:49:00Z</time>
      </trkpt>
      <trkpt lat="47.25018" lon="7.76613">
        <ele>421</ele>
        <time>2022-10-01T13:49:01Z</time>
      </trkpt>
      <trkpt lat="47.2502" lon="7.76615">
        <ele>421.2</ele>
        <time>2022-10-01T13:49:02Z</time>
      </trkpt>
      <trkpt lat="47.25021" lon="7.76615">
        <ele>421.3</ele>
        <time>2022-10-01T13:49:03Z</time>
      </trkpt>
      <trkpt lat="47.25023" lon="7.76617">
        <ele>421.5</ele>
        <time>2022-10-01T13:49:04Z</time>
      </trkpt>
      <trkpt lat="47.25024" lon="7.76618">
        <ele>421.6</ele>
        <time>2022-10-01T13:49:05Z</time>
      </trkpt>
      <trkpt lat="47.25026" lon="7.76619">
        <ele>421.9</ele>
        <time>2022-10-01T13:49:06Z</time>
      </trkpt>
      <trkpt lat="47.25027" lon="7.76619">
        <ele>422</ele>
        <time>2022-10-01T13:49:07Z</time>
      </trkpt>
      <trkpt lat="47.25029" lon="7.7662">
        <ele>422.2</ele>
        <time>2022-10-01T13:49:08Z</time>
      </trkpt>
      <trkpt lat="47.2503" lon="7.7662">
        <ele>422.3</ele>
        <time>2022-10-01T13:49:09Z</time>
      </trkpt>
      <trkpt lat="47.25032" lon="7.76622">
        <ele>422.5</ele>
        <time>2022-10-01T13:49:10Z</time>
      </trkpt>
      <trkpt lat="47.25034" lon="7.76625">
        <ele>422.8</ele>
        <time>2022-10-01T13:49:11Z</time>
      </trkpt>
      <trkpt lat="47.25035" lon="7.76626">
        <ele>422.9</ele>
        <time>2022-10-01T13:49:12Z</time>
      </trkpt>
      <trkpt lat="47.25036" lon="7.76627">
        <ele>423</ele>
        <time>2022-10-01T13:49:13Z</time>
      </trkpt>
      <trkpt lat="47.25038" lon="7.76628">
        <ele>423.2</ele>
        <time>2022-10-01T13:49:14Z</time>
      </trkpt>
      <trkpt lat="47.2504" lon="7.76631">
        <ele>423.5</ele>
        <time>2022-10-01T13:49:15Z</time>
      </trkpt>
      <trkpt lat="47.25041" lon="7.76632">
        <ele>423.6</ele>
        <time>2022-10-01T13:49:16Z</time>
      </trkpt>
      <trkpt lat="47.25044" lon="7.76634">
        <ele>423.9</ele>
        <time>2022-10-01T13:49:17Z</time>
      </trkpt>
      <trkpt lat="47.25045" lon="7.76634">
        <ele>424</ele>
        <time>2022-10-01T13:49:18Z</time>
      </trkpt>
      <trkpt lat="47.25047" lon="7.76636">
        <ele>424.3</ele>
        <time>2022-10-01T13:49:19Z</time>
      </trkpt>
      <trkpt lat="47.25048" lon="7.76637">
        <ele>424.4</ele>
        <time>2022-10-01T13:49:20Z</time>
      </trkpt>
      <trkpt lat="47.25051" lon="7.76639">
        <ele>424.7</ele>
        <time>2022-10-01T13:49:21Z</time>
      </trkpt>
      <trkpt lat="47.25052" lon="7.7664">
        <ele>424.8</ele>
        <time>2022-10-01T13:49:22Z</time>
      </trkpt>
      <trkpt lat="47.25055" lon="7.76642">
        <ele>425.1</ele>
        <time>2022-10-01T13:49:23Z</time>
      </trkpt>
      <trkpt lat="47.25056" lon="7.76642">
        <ele>425.2</ele>
        <time>2022-10-01T13:49:24Z</time>
      </trkpt>
      <trkpt lat="47.25058" lon="7.76645">
        <ele>425.4</ele>
        <time>2022-10-01T13:49:25Z</time>
      </trkpt>
      <trkpt lat="47.25059" lon="7.76646">
        <ele>425.5</ele>
        <time>2022-10-01T13:49:26Z</time>
      </trkpt>
      <trkpt lat="47.25061" lon="7.76649">
        <ele>425.8</ele>
        <time>2022-10-01T13:49:27Z</time>
      </trkpt>
      <trkpt lat="47.25062" lon="7.7665">
        <ele>425.9</ele>
        <time>2022-10-01T13:49:28Z</time>
      </trkpt>
      <trkpt lat="47.25065" lon="7.76652">
        <ele>426.2</ele>
        <time>2022-10-01T13:49:29Z</time>
      </trkpt>
      <trkpt lat="47.25065" lon="7.76654">
        <ele>426.2</ele>
        <time>2022-10-01T13:49:30Z</time>
      </trkpt>
      <trkpt lat="47.25066" lon="7.76656">
        <ele>426.4</ele>
        <time>2022-10-01T13:49:31Z</time>
      </trkpt>
      <trkpt lat="47.25067" lon="7.76658">
        <ele>426.6</ele>
        <time>2022-10-01T13:49:32Z</time>
      </trkpt>
      <trkpt lat="47.25068" lon="7.76662">
        <ele>426.8</ele>
        <time>2022-10-01T13:49:33Z</time>
      </trkpt>
      <trkpt lat="47.25068" lon="7.76664">
        <ele>427.3</ele>
        <time>2022-10-01T13:49:34Z</time>
      </trkpt>
      <trkpt lat="47.25068" lon="7.76665">
        <ele>427.3</ele>
        <time>2022-10-01T13:49:35Z</time>
      </trkpt>
      <trkpt lat="47.25069" lon="7.76668">
        <ele>427.4</ele>
        <time>2022-10-01T13:49:36Z</time>
      </trkpt>
      <trkpt lat="47.25071" lon="7.76672">
        <ele>427.4</ele>
        <time>2022-10-01T13:49:37Z</time>
      </trkpt>
      <trkpt lat="47.25071" lon="7.76674">
        <ele>427.5</ele>
        <time>2022-10-01T13:49:38Z</time>
      </trkpt>
      <trkpt lat="47.25072" lon="7.76678">
        <ele>427.5</ele>
        <time>2022-10-01T13:49:39Z</time>
      </trkpt>
      <trkpt lat="47.25072" lon="7.7668">
        <ele>427.5</ele>
        <time>2022-10-01T13:49:40Z</time>
      </trkpt>
      <trkpt lat="47.25073" lon="7.76684">
        <ele>427.5</ele>
        <time>2022-10-01T13:49:41Z</time>
      </trkpt>
      <trkpt lat="47.25073" lon="7.76686">
        <ele>427.5</ele>
        <time>2022-10-01T13:49:42Z</time>
      </trkpt>
      <trkpt lat="47.25073" lon="7.76692">
        <ele>427.5</ele>
        <time>2022-10-01T13:49:43Z</time>
      </trkpt>
      <trkpt lat="47.25074" lon="7.76699">
        <ele>427.6</ele>
        <time>2022-10-01T13:49:44Z</time>
      </trkpt>
      <trkpt lat="47.25076" lon="7.76704">
        <ele>427.6</ele>
        <time>2022-10-01T13:49:45Z</time>
      </trkpt>
      <trkpt lat="47.25077" lon="7.76709">
        <ele>427.6</ele>
        <time>2022-10-01T13:49:46Z</time>
      </trkpt>
      <trkpt lat="47.25078" lon="7.76713">
        <ele>427.6</ele>
        <time>2022-10-01T13:49:47Z</time>
      </trkpt>
      <trkpt lat="47.25078" lon="7.76719">
        <ele>427.6</ele>
        <time>2022-10-01T13:49:48Z</time>
      </trkpt>
      <trkpt lat="47.25078" lon="7.76725">
        <ele>427.6</ele>
        <time>2022-10-01T13:49:49Z</time>
      </trkpt>
      <trkpt lat="47.25079" lon="7.76731">
        <ele>427.7</ele>
        <time>2022-10-01T13:49:50Z</time>
      </trkpt>
      <trkpt lat="47.2508" lon="7.76738">
        <ele>427.7</ele>
        <time>2022-10-01T13:49:51Z</time>
      </trkpt>
      <trkpt lat="47.25081" lon="7.76745">
        <ele>427.7</ele>
        <time>2022-10-01T13:49:52Z</time>
      </trkpt>
      <trkpt lat="47.25082" lon="7.76752">
        <ele>427.8</ele>
        <time>2022-10-01T13:49:53Z</time>
      </trkpt>
      <trkpt lat="47.25083" lon="7.76758">
        <ele>427.8</ele>
        <time>2022-10-01T13:49:54Z</time>
      </trkpt>
      <trkpt lat="47.25083" lon="7.76764">
        <ele>427.8</ele>
        <time>2022-10-01T13:49:55Z</time>
      </trkpt>
      <trkpt lat="47.25084" lon="7.76772">
        <ele>427.9</ele>
        <time>2022-10-01T13:49:56Z</time>
      </trkpt>
      <trkpt lat="47.25084" lon="7.76779">
        <ele>427.9</ele>
        <time>2022-10-01T13:49:58Z</time>
      </trkpt>
      <trkpt lat="47.25087" lon="7.76793">
        <ele>428</ele>
        <time>2022-10-01T13:49:59Z</time>
      </trkpt>
      <trkpt lat="47.25087" lon="7.768">
        <ele>428</ele>
        <time>2022-10-01T13:50:00Z</time>
      </trkpt>
      <trkpt lat="47.25088" lon="7.76807">
        <ele>428.1</ele>
        <time>2022-10-01T13:50:01Z</time>
      </trkpt>
      <trkpt lat="47.25089" lon="7.76814">
        <ele>428.1</ele>
        <time>2022-10-01T13:50:02Z</time>
      </trkpt>
      <trkpt lat="47.2509" lon="7.76821">
        <ele>428.2</ele>
        <time>2022-10-01T13:50:03Z</time>
      </trkpt>
      <trkpt lat="47.2509" lon="7.76828">
        <ele>428.3</ele>
        <time>2022-10-01T13:50:04Z</time>
      </trkpt>
      <trkpt lat="47.25091" lon="7.76834">
        <ele>428.3</ele>
        <time>2022-10-01T13:50:05Z</time>
      </trkpt>
      <trkpt lat="47.25092" lon="7.76841">
        <ele>428.4</ele>
        <time>2022-10-01T13:50:06Z</time>
      </trkpt>
      <trkpt lat="47.25092" lon="7.76847">
        <ele>428.4</ele>
        <time>2022-10-01T13:50:07Z</time>
      </trkpt>
      <trkpt lat="47.25093" lon="7.76854">
        <ele>428.3</ele>
        <time>2022-10-01T13:50:08Z</time>
      </trkpt>
      <trkpt lat="47.25093" lon="7.7686">
        <ele>428.3</ele>
        <time>2022-10-01T13:50:09Z</time>
      </trkpt>
      <trkpt lat="47.25094" lon="7.76867">
        <ele>428.3</ele>
        <time>2022-10-01T13:50:10Z</time>
      </trkpt>
      <trkpt lat="47.25094" lon="7.76873">
        <ele>428.3</ele>
        <time>2022-10-01T13:50:11Z</time>
      </trkpt>
      <trkpt lat="47.25095" lon="7.76881">
        <ele>428.3</ele>
        <time>2022-10-01T13:50:12Z</time>
      </trkpt>
      <trkpt lat="47.25096" lon="7.76887">
        <ele>428.3</ele>
        <time>2022-10-01T13:50:13Z</time>
      </trkpt>
      <trkpt lat="47.25098" lon="7.76894">
        <ele>428.3</ele>
        <time>2022-10-01T13:50:14Z</time>
      </trkpt>
      <trkpt lat="47.25099" lon="7.76901">
        <ele>428.3</ele>
        <time>2022-10-01T13:50:15Z</time>
      </trkpt>
      <trkpt lat="47.251" lon="7.76909">
        <ele>428.3</ele>
        <time>2022-10-01T13:50:16Z</time>
      </trkpt>
      <trkpt lat="47.25101" lon="7.76916">
        <ele>428.2</ele>
        <time>2022-10-01T13:50:17Z</time>
      </trkpt>
      <trkpt lat="47.25103" lon="7.76922">
        <ele>428.2</ele>
        <time>2022-10-01T13:50:18Z</time>
      </trkpt>
      <trkpt lat="47.25105" lon="7.7693">
        <ele>428.2</ele>
        <time>2022-10-01T13:50:19Z</time>
      </trkpt>
      <trkpt lat="47.25106" lon="7.76937">
        <ele>428.2</ele>
        <time>2022-10-01T13:50:20Z</time>
      </trkpt>
      <trkpt lat="47.25108" lon="7.76944">
        <ele>428.2</ele>
        <time>2022-10-01T13:50:21Z</time>
      </trkpt>
      <trkpt lat="47.25109" lon="7.76951">
        <ele>428.2</ele>
        <time>2022-10-01T13:50:22Z</time>
      </trkpt>
      <trkpt lat="47.25111" lon="7.76959">
        <ele>428.2</ele>
        <time>2022-10-01T13:50:23Z</time>
      </trkpt>
      <trkpt lat="47.25112" lon="7.76966">
        <ele>428.2</ele>
        <time>2022-10-01T13:50:24Z</time>
      </trkpt>
      <trkpt lat="47.25114" lon="7.76973">
        <ele>428.2</ele>
        <time>2022-10-01T13:50:25Z</time>
      </trkpt>
      <trkpt lat="47.25115" lon="7.7698">
        <ele>428.2</ele>
        <time>2022-10-01T13:50:26Z</time>
      </trkpt>
      <trkpt lat="47.25117" lon="7.76988">
        <ele>428.3</ele>
        <time>2022-10-01T13:50:27Z</time>
      </trkpt>
      <trkpt lat="47.25118" lon="7.76996">
        <ele>428.3</ele>
        <time>2022-10-01T13:50:28Z</time>
      </trkpt>
      <trkpt lat="47.25119" lon="7.77002">
        <ele>428.3</ele>
        <time>2022-10-01T13:50:29Z</time>
      </trkpt>
      <trkpt lat="47.2512" lon="7.7701">
        <ele>428.3</ele>
        <time>2022-10-01T13:50:30Z</time>
      </trkpt>
      <trkpt lat="47.25122" lon="7.77018">
        <ele>428.4</ele>
        <time>2022-10-01T13:50:31Z</time>
      </trkpt>
      <trkpt lat="47.25124" lon="7.77024">
        <ele>428.4</ele>
        <time>2022-10-01T13:50:32Z</time>
      </trkpt>
      <trkpt lat="47.25125" lon="7.77032">
        <ele>428.4</ele>
        <time>2022-10-01T13:50:33Z</time>
      </trkpt>
      <trkpt lat="47.25127" lon="7.77039">
        <ele>428.5</ele>
        <time>2022-10-01T13:50:34Z</time>
      </trkpt>
      <trkpt lat="47.25128" lon="7.77046">
        <ele>428.5</ele>
        <time>2022-10-01T13:50:35Z</time>
      </trkpt>
      <trkpt lat="47.2513" lon="7.77053">
        <ele>428.5</ele>
        <time>2022-10-01T13:50:36Z</time>
      </trkpt>
      <trkpt lat="47.25131" lon="7.77059">
        <ele>428.6</ele>
        <time>2022-10-01T13:50:37Z</time>
      </trkpt>
      <trkpt lat="47.25132" lon="7.77066">
        <ele>428.6</ele>
        <time>2022-10-01T13:50:38Z</time>
      </trkpt>
      <trkpt lat="47.25134" lon="7.77073">
        <ele>428.7</ele>
        <time>2022-10-01T13:50:39Z</time>
      </trkpt>
      <trkpt lat="47.25135" lon="7.77082">
        <ele>428.7</ele>
        <time>2022-10-01T13:50:40Z</time>
      </trkpt>
      <trkpt lat="47.25137" lon="7.77089">
        <ele>428.8</ele>
        <time>2022-10-01T13:50:41Z</time>
      </trkpt>
      <trkpt lat="47.25138" lon="7.77096">
        <ele>428.8</ele>
        <time>2022-10-01T13:50:42Z</time>
      </trkpt>
      <trkpt lat="47.2514" lon="7.77103">
        <ele>428.9</ele>
        <time>2022-10-01T13:50:43Z</time>
      </trkpt>
      <trkpt lat="47.25142" lon="7.77111">
        <ele>428.9</ele>
        <time>2022-10-01T13:50:44Z</time>
      </trkpt>
      <trkpt lat="47.25143" lon="7.77118">
        <ele>429</ele>
        <time>2022-10-01T13:50:45Z</time>
      </trkpt>
      <trkpt lat="47.25145" lon="7.77125">
        <ele>429</ele>
        <time>2022-10-01T13:50:46Z</time>
      </trkpt>
      <trkpt lat="47.25147" lon="7.77132">
        <ele>429.1</ele>
        <time>2022-10-01T13:50:47Z</time>
      </trkpt>
      <trkpt lat="47.25149" lon="7.77139">
        <ele>429.1</ele>
        <time>2022-10-01T13:50:48Z</time>
      </trkpt>
      <trkpt lat="47.25152" lon="7.77147">
        <ele>429.2</ele>
        <time>2022-10-01T13:50:49Z</time>
      </trkpt>
      <trkpt lat="47.25154" lon="7.77154">
        <ele>429.2</ele>
        <time>2022-10-01T13:50:50Z</time>
      </trkpt>
      <trkpt lat="47.25156" lon="7.7716">
        <ele>429.2</ele>
        <time>2022-10-01T13:50:51Z</time>
      </trkpt>
      <trkpt lat="47.25158" lon="7.77167">
        <ele>429.3</ele>
        <time>2022-10-01T13:50:52Z</time>
      </trkpt>
      <trkpt lat="47.2516" lon="7.77174">
        <ele>429.3</ele>
        <time>2022-10-01T13:50:53Z</time>
      </trkpt>
      <trkpt lat="47.25163" lon="7.77182">
        <ele>429.3</ele>
        <time>2022-10-01T13:50:54Z</time>
      </trkpt>
      <trkpt lat="47.25165" lon="7.77188">
        <ele>429.4</ele>
        <time>2022-10-01T13:50:55Z</time>
      </trkpt>
      <trkpt lat="47.25167" lon="7.77196">
        <ele>429.4</ele>
        <time>2022-10-01T13:50:56Z</time>
      </trkpt>
      <trkpt lat="47.2517" lon="7.77202">
        <ele>429.5</ele>
        <time>2022-10-01T13:50:57Z</time>
      </trkpt>
      <trkpt lat="47.25171" lon="7.7721">
        <ele>429.5</ele>
        <time>2022-10-01T13:50:58Z</time>
      </trkpt>
      <trkpt lat="47.25173" lon="7.77217">
        <ele>429.6</ele>
        <time>2022-10-01T13:50:59Z</time>
      </trkpt>
      <trkpt lat="47.25176" lon="7.77224">
        <ele>429.7</ele>
        <time>2022-10-01T13:51:00Z</time>
      </trkpt>
      <trkpt lat="47.25179" lon="7.77231">
        <ele>429.7</ele>
        <time>2022-10-01T13:51:01Z</time>
      </trkpt>
      <trkpt lat="47.25181" lon="7.77238">
        <ele>429.8</ele>
        <time>2022-10-01T13:51:02Z</time>
      </trkpt>
      <trkpt lat="47.25183" lon="7.77245">
        <ele>429.9</ele>
        <time>2022-10-01T13:51:03Z</time>
      </trkpt>
      <trkpt lat="47.25185" lon="7.77252">
        <ele>429.9</ele>
        <time>2022-10-01T13:51:04Z</time>
      </trkpt>
      <trkpt lat="47.25188" lon="7.77259">
        <ele>430</ele>
        <time>2022-10-01T13:51:05Z</time>
      </trkpt>
      <trkpt lat="47.25191" lon="7.77266">
        <ele>430.1</ele>
        <time>2022-10-01T13:51:06Z</time>
      </trkpt>
      <trkpt lat="47.25192" lon="7.77273">
        <ele>430.1</ele>
        <time>2022-10-01T13:51:07Z</time>
      </trkpt>
      <trkpt lat="47.25195" lon="7.7728">
        <ele>430.2</ele>
        <time>2022-10-01T13:51:08Z</time>
      </trkpt>
      <trkpt lat="47.25198" lon="7.77287">
        <ele>430.3</ele>
        <time>2022-10-01T13:51:09Z</time>
      </trkpt>
      <trkpt lat="47.25199" lon="7.77294">
        <ele>430.3</ele>
        <time>2022-10-01T13:51:10Z</time>
      </trkpt>
      <trkpt lat="47.25202" lon="7.773">
        <ele>430.4</ele>
        <time>2022-10-01T13:51:11Z</time>
      </trkpt>
      <trkpt lat="47.25204" lon="7.77307">
        <ele>430.5</ele>
        <time>2022-10-01T13:51:12Z</time>
      </trkpt>
      <trkpt lat="47.25206" lon="7.77314">
        <ele>430.5</ele>
        <time>2022-10-01T13:51:13Z</time>
      </trkpt>
      <trkpt lat="47.25208" lon="7.7732">
        <ele>430.6</ele>
        <time>2022-10-01T13:51:14Z</time>
      </trkpt>
      <trkpt lat="47.2521" lon="7.77326">
        <ele>430.7</ele>
        <time>2022-10-01T13:51:15Z</time>
      </trkpt>
      <trkpt lat="47.25212" lon="7.77333">
        <ele>430.7</ele>
        <time>2022-10-01T13:51:16Z</time>
      </trkpt>
      <trkpt lat="47.25214" lon="7.77339">
        <ele>430.8</ele>
        <time>2022-10-01T13:51:17Z</time>
      </trkpt>
      <trkpt lat="47.25217" lon="7.77345">
        <ele>430.8</ele>
        <time>2022-10-01T13:51:18Z</time>
      </trkpt>
      <trkpt lat="47.25219" lon="7.77352">
        <ele>430.8</ele>
        <time>2022-10-01T13:51:19Z</time>
      </trkpt>
      <trkpt lat="47.2522" lon="7.77358">
        <ele>430.8</ele>
        <time>2022-10-01T13:51:20Z</time>
      </trkpt>
      <trkpt lat="47.25222" lon="7.77364">
        <ele>430.8</ele>
        <time>2022-10-01T13:51:21Z</time>
      </trkpt>
      <trkpt lat="47.25224" lon="7.7737">
        <ele>430.7</ele>
        <time>2022-10-01T13:51:22Z</time>
      </trkpt>
      <trkpt lat="47.25225" lon="7.77376">
        <ele>430.7</ele>
        <time>2022-10-01T13:51:23Z</time>
      </trkpt>
      <trkpt lat="47.25226" lon="7.77383">
        <ele>430.7</ele>
        <time>2022-10-01T13:51:24Z</time>
      </trkpt>
      <trkpt lat="47.25228" lon="7.77389">
        <ele>430.6</ele>
        <time>2022-10-01T13:51:25Z</time>
      </trkpt>
      <trkpt lat="47.2523" lon="7.77396">
        <ele>430.5</ele>
        <time>2022-10-01T13:51:26Z</time>
      </trkpt>
      <trkpt lat="47.25231" lon="7.77403">
        <ele>430.4</ele>
        <time>2022-10-01T13:51:27Z</time>
      </trkpt>
      <trkpt lat="47.25232" lon="7.77408">
        <ele>430.4</ele>
        <time>2022-10-01T13:51:28Z</time>
      </trkpt>
      <trkpt lat="47.25232" lon="7.77415">
        <ele>430.3</ele>
        <time>2022-10-01T13:51:29Z</time>
      </trkpt>
      <trkpt lat="47.25233" lon="7.77421">
        <ele>430.2</ele>
        <time>2022-10-01T13:51:30Z</time>
      </trkpt>
      <trkpt lat="47.25234" lon="7.77427">
        <ele>430.1</ele>
        <time>2022-10-01T13:51:31Z</time>
      </trkpt>
      <trkpt lat="47.25234" lon="7.77432">
        <ele>429.9</ele>
        <time>2022-10-01T13:51:32Z</time>
      </trkpt>
      <trkpt lat="47.25235" lon="7.77437">
        <ele>429.8</ele>
        <time>2022-10-01T13:51:33Z</time>
      </trkpt>
      <trkpt lat="47.25235" lon="7.77443">
        <ele>429.6</ele>
        <time>2022-10-01T13:51:34Z</time>
      </trkpt>
      <trkpt lat="47.25235" lon="7.7745">
        <ele>429.2</ele>
        <time>2022-10-01T13:51:35Z</time>
      </trkpt>
      <trkpt lat="47.25235" lon="7.77456">
        <ele>428.9</ele>
        <time>2022-10-01T13:51:36Z</time>
      </trkpt>
      <trkpt lat="47.25236" lon="7.77461">
        <ele>428.5</ele>
        <time>2022-10-01T13:51:37Z</time>
      </trkpt>
      <trkpt lat="47.25236" lon="7.77466">
        <ele>428.1</ele>
        <time>2022-10-01T13:51:38Z</time>
      </trkpt>
      <trkpt lat="47.25236" lon="7.77472">
        <ele>427.7</ele>
        <time>2022-10-01T13:51:39Z</time>
      </trkpt>
      <trkpt lat="47.25236" lon="7.77477">
        <ele>427.3</ele>
        <time>2022-10-01T13:51:40Z</time>
      </trkpt>
      <trkpt lat="47.25237" lon="7.77481">
        <ele>426.9</ele>
        <time>2022-10-01T13:51:41Z</time>
      </trkpt>
      <trkpt lat="47.25237" lon="7.77487">
        <ele>426.5</ele>
        <time>2022-10-01T13:51:42Z</time>
      </trkpt>
      <trkpt lat="47.25237" lon="7.77493">
        <ele>426.1</ele>
        <time>2022-10-01T13:51:43Z</time>
      </trkpt>
      <trkpt lat="47.25238" lon="7.77498">
        <ele>425.7</ele>
        <time>2022-10-01T13:51:44Z</time>
      </trkpt>
      <trkpt lat="47.25239" lon="7.77503">
        <ele>425.2</ele>
        <time>2022-10-01T13:51:45Z</time>
      </trkpt>
      <trkpt lat="47.2524" lon="7.77508">
        <ele>424.9</ele>
        <time>2022-10-01T13:51:46Z</time>
      </trkpt>
      <trkpt lat="47.25241" lon="7.77513">
        <ele>424.5</ele>
        <time>2022-10-01T13:51:47Z</time>
      </trkpt>
      <trkpt lat="47.25242" lon="7.77518">
        <ele>424.1</ele>
        <time>2022-10-01T13:51:48Z</time>
      </trkpt>
      <trkpt lat="47.25243" lon="7.77523">
        <ele>423.7</ele>
        <time>2022-10-01T13:51:49Z</time>
      </trkpt>
      <trkpt lat="47.25244" lon="7.7753">
        <ele>423.2</ele>
        <time>2022-10-01T13:51:50Z</time>
      </trkpt>
      <trkpt lat="47.25244" lon="7.77536">
        <ele>422.8</ele>
        <time>2022-10-01T13:51:51Z</time>
      </trkpt>
      <trkpt lat="47.25244" lon="7.77542">
        <ele>422.4</ele>
        <time>2022-10-01T13:51:52Z</time>
      </trkpt>
      <trkpt lat="47.25245" lon="7.77549">
        <ele>422</ele>
        <time>2022-10-01T13:51:53Z</time>
      </trkpt>
      <trkpt lat="47.25245" lon="7.77555">
        <ele>421.7</ele>
        <time>2022-10-01T13:51:54Z</time>
      </trkpt>
      <trkpt lat="47.25245" lon="7.77561">
        <ele>421.3</ele>
        <time>2022-10-01T13:51:55Z</time>
      </trkpt>
      <trkpt lat="47.25245" lon="7.77567">
        <ele>421</ele>
        <time>2022-10-01T13:51:56Z</time>
      </trkpt>
      <trkpt lat="47.25245" lon="7.77571">
        <ele>420.8</ele>
        <time>2022-10-01T13:51:57Z</time>
      </trkpt>
      <trkpt lat="47.25245" lon="7.77577">
        <ele>420.5</ele>
        <time>2022-10-01T13:51:58Z</time>
      </trkpt>
      <trkpt lat="47.25245" lon="7.77583">
        <ele>420.2</ele>
        <time>2022-10-01T13:51:59Z</time>
      </trkpt>
      <trkpt lat="47.25245" lon="7.7759">
        <ele>419.9</ele>
        <time>2022-10-01T13:52:00Z</time>
      </trkpt>
      <trkpt lat="47.25246" lon="7.77596">
        <ele>419.7</ele>
        <time>2022-10-01T13:52:01Z</time>
      </trkpt>
      <trkpt lat="47.25247" lon="7.77603">
        <ele>419.5</ele>
        <time>2022-10-01T13:52:02Z</time>
      </trkpt>
      <trkpt lat="47.25249" lon="7.7761">
        <ele>419.4</ele>
        <time>2022-10-01T13:52:03Z</time>
      </trkpt>
      <trkpt lat="47.25251" lon="7.77618">
        <ele>419.2</ele>
        <time>2022-10-01T13:52:04Z</time>
      </trkpt>
      <trkpt lat="47.25254" lon="7.77625">
        <ele>419.1</ele>
        <time>2022-10-01T13:52:06Z</time>
      </trkpt>
      <trkpt lat="47.25258" lon="7.77638">
        <ele>418.9</ele>
        <time>2022-10-01T13:52:07Z</time>
      </trkpt>
      <trkpt lat="47.2526" lon="7.77645">
        <ele>418.8</ele>
        <time>2022-10-01T13:52:08Z</time>
      </trkpt>
      <trkpt lat="47.25261" lon="7.77651">
        <ele>418.7</ele>
        <time>2022-10-01T13:52:09Z</time>
      </trkpt>
      <trkpt lat="47.25263" lon="7.77657">
        <ele>418.7</ele>
        <time>2022-10-01T13:52:10Z</time>
      </trkpt>
      <trkpt lat="47.25265" lon="7.77662">
        <ele>418.6</ele>
        <time>2022-10-01T13:52:11Z</time>
      </trkpt>
      <trkpt lat="47.25268" lon="7.77666">
        <ele>418.6</ele>
        <time>2022-10-01T13:52:12Z</time>
      </trkpt>
      <trkpt lat="47.2527" lon="7.77672">
        <ele>418.6</ele>
        <time>2022-10-01T13:52:14Z</time>
      </trkpt>
      <trkpt lat="47.25272" lon="7.77678">
        <ele>418.7</ele>
        <time>2022-10-01T13:52:15Z</time>
      </trkpt>
      <trkpt lat="47.25275" lon="7.77681">
        <ele>418.7</ele>
        <time>2022-10-01T13:52:16Z</time>
      </trkpt>
      <trkpt lat="47.25279" lon="7.77688">
        <ele>418.8</ele>
        <time>2022-10-01T13:52:17Z</time>
      </trkpt>
      <trkpt lat="47.25281" lon="7.77693">
        <ele>418.9</ele>
        <time>2022-10-01T13:52:18Z</time>
      </trkpt>
      <trkpt lat="47.25282" lon="7.77698">
        <ele>418.9</ele>
        <time>2022-10-01T13:52:20Z</time>
      </trkpt>
      <trkpt lat="47.25283" lon="7.77707">
        <ele>419.2</ele>
        <time>2022-10-01T13:52:21Z</time>
      </trkpt>
      <trkpt lat="47.25283" lon="7.77709">
        <ele>419.3</ele>
        <time>2022-10-01T13:52:22Z</time>
      </trkpt>
      <trkpt lat="47.25282" lon="7.77715">
        <ele>419.4</ele>
        <time>2022-10-01T13:52:23Z</time>
      </trkpt>
      <trkpt lat="47.25281" lon="7.77717">
        <ele>419.5</ele>
        <time>2022-10-01T13:52:24Z</time>
      </trkpt>
      <trkpt lat="47.25281" lon="7.77723">
        <ele>419.7</ele>
        <time>2022-10-01T13:52:25Z</time>
      </trkpt>
      <trkpt lat="47.25281" lon="7.77725">
        <ele>419.7</ele>
        <time>2022-10-01T13:52:26Z</time>
      </trkpt>
      <trkpt lat="47.25281" lon="7.77729">
        <ele>419.9</ele>
        <time>2022-10-01T13:52:27Z</time>
      </trkpt>
      <trkpt lat="47.2528" lon="7.77734">
        <ele>420</ele>
        <time>2022-10-01T13:52:28Z</time>
      </trkpt>
      <trkpt lat="47.2528" lon="7.77736">
        <ele>420.1</ele>
        <time>2022-10-01T13:52:29Z</time>
      </trkpt>
      <trkpt lat="47.25281" lon="7.77741">
        <ele>420.2</ele>
        <time>2022-10-01T13:52:30Z</time>
      </trkpt>
      <trkpt lat="47.25282" lon="7.77746">
        <ele>420.4</ele>
        <time>2022-10-01T13:52:31Z</time>
      </trkpt>
      <trkpt lat="47.25283" lon="7.77748">
        <ele>420.4</ele>
        <time>2022-10-01T13:52:32Z</time>
      </trkpt>
      <trkpt lat="47.25284" lon="7.77752">
        <ele>420.5</ele>
        <time>2022-10-01T13:52:33Z</time>
      </trkpt>
      <trkpt lat="47.25286" lon="7.77757">
        <ele>420.7</ele>
        <time>2022-10-01T13:52:34Z</time>
      </trkpt>
      <trkpt lat="47.25286" lon="7.77759">
        <ele>420.7</ele>
        <time>2022-10-01T13:52:35Z</time>
      </trkpt>
      <trkpt lat="47.25289" lon="7.77763">
        <ele>420.9</ele>
        <time>2022-10-01T13:52:36Z</time>
      </trkpt>
      <trkpt lat="47.25291" lon="7.77764">
        <ele>420.9</ele>
        <time>2022-10-01T13:52:37Z</time>
      </trkpt>
      <trkpt lat="47.25292" lon="7.77767">
        <ele>421</ele>
        <time>2022-10-01T13:52:38Z</time>
      </trkpt>
      <trkpt lat="47.25294" lon="7.77771">
        <ele>421.1</ele>
        <time>2022-10-01T13:52:39Z</time>
      </trkpt>
      <trkpt lat="47.25296" lon="7.77775">
        <ele>421.2</ele>
        <time>2022-10-01T13:52:40Z</time>
      </trkpt>
      <trkpt lat="47.25297" lon="7.77776">
        <ele>421.2</ele>
        <time>2022-10-01T13:52:41Z</time>
      </trkpt>
      <trkpt lat="47.253" lon="7.77779">
        <ele>421.3</ele>
        <time>2022-10-01T13:52:42Z</time>
      </trkpt>
      <trkpt lat="47.25302" lon="7.77783">
        <ele>421.3</ele>
        <time>2022-10-01T13:52:43Z</time>
      </trkpt>
      <trkpt lat="47.25305" lon="7.77788">
        <ele>421.4</ele>
        <time>2022-10-01T13:52:44Z</time>
      </trkpt>
      <trkpt lat="47.25307" lon="7.77793">
        <ele>421.4</ele>
        <time>2022-10-01T13:52:45Z</time>
      </trkpt>
      <trkpt lat="47.2531" lon="7.77797">
        <ele>421.5</ele>
        <time>2022-10-01T13:52:46Z</time>
      </trkpt>
      <trkpt lat="47.25313" lon="7.77801">
        <ele>421.5</ele>
        <time>2022-10-01T13:52:47Z</time>
      </trkpt>
      <trkpt lat="47.25315" lon="7.77804">
        <ele>421.5</ele>
        <time>2022-10-01T13:52:48Z</time>
      </trkpt>
      <trkpt lat="47.25316" lon="7.77809">
        <ele>421.5</ele>
        <time>2022-10-01T13:52:49Z</time>
      </trkpt>
      <trkpt lat="47.2532" lon="7.77815">
        <ele>421.4</ele>
        <time>2022-10-01T13:52:50Z</time>
      </trkpt>
      <trkpt lat="47.25322" lon="7.7782">
        <ele>421.4</ele>
        <time>2022-10-01T13:52:51Z</time>
      </trkpt>
      <trkpt lat="47.25326" lon="7.77824">
        <ele>421.3</ele>
        <time>2022-10-01T13:52:52Z</time>
      </trkpt>
      <trkpt lat="47.25328" lon="7.7783">
        <ele>421.3</ele>
        <time>2022-10-01T13:52:53Z</time>
      </trkpt>
      <trkpt lat="47.25331" lon="7.77835">
        <ele>421.2</ele>
        <time>2022-10-01T13:52:54Z</time>
      </trkpt>
      <trkpt lat="47.25334" lon="7.7784">
        <ele>421.1</ele>
        <time>2022-10-01T13:52:55Z</time>
      </trkpt>
      <trkpt lat="47.25337" lon="7.77845">
        <ele>421</ele>
        <time>2022-10-01T13:52:56Z</time>
      </trkpt>
      <trkpt lat="47.2534" lon="7.77851">
        <ele>420.9</ele>
        <time>2022-10-01T13:52:57Z</time>
      </trkpt>
      <trkpt lat="47.25342" lon="7.77858">
        <ele>420.8</ele>
        <time>2022-10-01T13:52:58Z</time>
      </trkpt>
      <trkpt lat="47.25345" lon="7.77864">
        <ele>420.7</ele>
        <time>2022-10-01T13:52:59Z</time>
      </trkpt>
      <trkpt lat="47.25347" lon="7.77871">
        <ele>420.5</ele>
        <time>2022-10-01T13:53:00Z</time>
      </trkpt>
      <trkpt lat="47.2535" lon="7.77877">
        <ele>420.4</ele>
        <time>2022-10-01T13:53:01Z</time>
      </trkpt>
      <trkpt lat="47.25352" lon="7.77885">
        <ele>420.2</ele>
        <time>2022-10-01T13:53:02Z</time>
      </trkpt>
      <trkpt lat="47.25354" lon="7.7789">
        <ele>420.1</ele>
        <time>2022-10-01T13:53:03Z</time>
      </trkpt>
      <trkpt lat="47.25356" lon="7.77898">
        <ele>419.9</ele>
        <time>2022-10-01T13:53:04Z</time>
      </trkpt>
      <trkpt lat="47.2536" lon="7.77905">
        <ele>419.7</ele>
        <time>2022-10-01T13:53:05Z</time>
      </trkpt>
      <trkpt lat="47.25364" lon="7.77912">
        <ele>419.5</ele>
        <time>2022-10-01T13:53:06Z</time>
      </trkpt>
      <trkpt lat="47.25368" lon="7.77921">
        <ele>419.3</ele>
        <time>2022-10-01T13:53:07Z</time>
      </trkpt>
      <trkpt lat="47.25372" lon="7.77929">
        <ele>419.2</ele>
        <time>2022-10-01T13:53:08Z</time>
      </trkpt>
      <trkpt lat="47.25376" lon="7.77936">
        <ele>419</ele>
        <time>2022-10-01T13:53:09Z</time>
      </trkpt>
      <trkpt lat="47.2538" lon="7.77944">
        <ele>418.8</ele>
        <time>2022-10-01T13:53:10Z</time>
      </trkpt>
      <trkpt lat="47.25384" lon="7.77953">
        <ele>418.6</ele>
        <time>2022-10-01T13:53:11Z</time>
      </trkpt>
      <trkpt lat="47.25387" lon="7.7796">
        <ele>418.5</ele>
        <time>2022-10-01T13:53:12Z</time>
      </trkpt>
      <trkpt lat="47.25392" lon="7.77968">
        <ele>418.3</ele>
        <time>2022-10-01T13:53:13Z</time>
      </trkpt>
      <trkpt lat="47.25397" lon="7.77978">
        <ele>418.1</ele>
        <time>2022-10-01T13:53:14Z</time>
      </trkpt>
      <trkpt lat="47.254" lon="7.77986">
        <ele>418</ele>
        <time>2022-10-01T13:53:15Z</time>
      </trkpt>
      <trkpt lat="47.25404" lon="7.77994">
        <ele>417.9</ele>
        <time>2022-10-01T13:53:16Z</time>
      </trkpt>
      <trkpt lat="47.25407" lon="7.78002">
        <ele>417.8</ele>
        <time>2022-10-01T13:53:17Z</time>
      </trkpt>
      <trkpt lat="47.25411" lon="7.78011">
        <ele>417.7</ele>
        <time>2022-10-01T13:53:18Z</time>
      </trkpt>
      <trkpt lat="47.25413" lon="7.78019">
        <ele>417.6</ele>
        <time>2022-10-01T13:53:19Z</time>
      </trkpt>
      <trkpt lat="47.25418" lon="7.78026">
        <ele>417.5</ele>
        <time>2022-10-01T13:53:20Z</time>
      </trkpt>
      <trkpt lat="47.25423" lon="7.78033">
        <ele>417.4</ele>
        <time>2022-10-01T13:53:21Z</time>
      </trkpt>
      <trkpt lat="47.25427" lon="7.78041">
        <ele>417.3</ele>
        <time>2022-10-01T13:53:22Z</time>
      </trkpt>
      <trkpt lat="47.25431" lon="7.78048">
        <ele>417.2</ele>
        <time>2022-10-01T13:53:23Z</time>
      </trkpt>
      <trkpt lat="47.25436" lon="7.78056">
        <ele>417.1</ele>
        <time>2022-10-01T13:53:24Z</time>
      </trkpt>
      <trkpt lat="47.2544" lon="7.78063">
        <ele>417</ele>
        <time>2022-10-01T13:53:25Z</time>
      </trkpt>
      <trkpt lat="47.25445" lon="7.7807">
        <ele>416.9</ele>
        <time>2022-10-01T13:53:26Z</time>
      </trkpt>
      <trkpt lat="47.2545" lon="7.78077">
        <ele>416.8</ele>
        <time>2022-10-01T13:53:27Z</time>
      </trkpt>
      <trkpt lat="47.25455" lon="7.78085">
        <ele>416.7</ele>
        <time>2022-10-01T13:53:28Z</time>
      </trkpt>
      <trkpt lat="47.2546" lon="7.78093">
        <ele>416.6</ele>
        <time>2022-10-01T13:53:29Z</time>
      </trkpt>
      <trkpt lat="47.25464" lon="7.781">
        <ele>416.6</ele>
        <time>2022-10-01T13:53:30Z</time>
      </trkpt>
      <trkpt lat="47.25469" lon="7.78107">
        <ele>416.5</ele>
        <time>2022-10-01T13:53:31Z</time>
      </trkpt>
      <trkpt lat="47.25474" lon="7.78115">
        <ele>416.4</ele>
        <time>2022-10-01T13:53:32Z</time>
      </trkpt>
      <trkpt lat="47.25479" lon="7.78122">
        <ele>416.4</ele>
        <time>2022-10-01T13:53:33Z</time>
      </trkpt>
      <trkpt lat="47.25484" lon="7.7813">
        <ele>416.3</ele>
        <time>2022-10-01T13:53:34Z</time>
      </trkpt>
      <trkpt lat="47.25489" lon="7.78138">
        <ele>416.2</ele>
        <time>2022-10-01T13:53:35Z</time>
      </trkpt>
      <trkpt lat="47.25494" lon="7.78145">
        <ele>416.2</ele>
        <time>2022-10-01T13:53:36Z</time>
      </trkpt>
      <trkpt lat="47.25498" lon="7.78152">
        <ele>416.2</ele>
        <time>2022-10-01T13:53:37Z</time>
      </trkpt>
      <trkpt lat="47.25503" lon="7.78159">
        <ele>416.1</ele>
        <time>2022-10-01T13:53:38Z</time>
      </trkpt>
      <trkpt lat="47.25508" lon="7.78168">
        <ele>416.1</ele>
        <time>2022-10-01T13:53:39Z</time>
      </trkpt>
      <trkpt lat="47.25514" lon="7.78175">
        <ele>416.1</ele>
        <time>2022-10-01T13:53:40Z</time>
      </trkpt>
      <trkpt lat="47.25518" lon="7.78183">
        <ele>416.1</ele>
        <time>2022-10-01T13:53:41Z</time>
      </trkpt>
      <trkpt lat="47.25523" lon="7.7819">
        <ele>416.1</ele>
        <time>2022-10-01T13:53:42Z</time>
      </trkpt>
      <trkpt lat="47.25528" lon="7.78197">
        <ele>416</ele>
        <time>2022-10-01T13:53:43Z</time>
      </trkpt>
      <trkpt lat="47.25533" lon="7.78204">
        <ele>416</ele>
        <time>2022-10-01T13:53:44Z</time>
      </trkpt>
      <trkpt lat="47.25538" lon="7.78211">
        <ele>416</ele>
        <time>2022-10-01T13:53:45Z</time>
      </trkpt>
      <trkpt lat="47.25543" lon="7.78218">
        <ele>416</ele>
        <time>2022-10-01T13:53:46Z</time>
      </trkpt>
      <trkpt lat="47.25547" lon="7.78224">
        <ele>416</ele>
        <time>2022-10-01T13:53:47Z</time>
      </trkpt>
      <trkpt lat="47.25552" lon="7.7823">
        <ele>416.1</ele>
        <time>2022-10-01T13:53:48Z</time>
      </trkpt>
      <trkpt lat="47.25557" lon="7.78236">
        <ele>416.1</ele>
        <time>2022-10-01T13:53:49Z</time>
      </trkpt>
      <trkpt lat="47.25562" lon="7.78241">
        <ele>416.1</ele>
        <time>2022-10-01T13:53:50Z</time>
      </trkpt>
      <trkpt lat="47.25567" lon="7.78246">
        <ele>416.1</ele>
        <time>2022-10-01T13:53:51Z</time>
      </trkpt>
      <trkpt lat="47.25572" lon="7.78251">
        <ele>416.1</ele>
        <time>2022-10-01T13:53:52Z</time>
      </trkpt>
      <trkpt lat="47.25577" lon="7.78256">
        <ele>416.1</ele>
        <time>2022-10-01T13:53:53Z</time>
      </trkpt>
      <trkpt lat="47.25582" lon="7.78261">
        <ele>416.1</ele>
        <time>2022-10-01T13:53:54Z</time>
      </trkpt>
      <trkpt lat="47.25587" lon="7.78265">
        <ele>416.1</ele>
        <time>2022-10-01T13:53:55Z</time>
      </trkpt>
      <trkpt lat="47.25592" lon="7.7827">
        <ele>416.2</ele>
        <time>2022-10-01T13:53:56Z</time>
      </trkpt>
      <trkpt lat="47.25597" lon="7.78273">
        <ele>416.3</ele>
        <time>2022-10-01T13:53:57Z</time>
      </trkpt>
      <trkpt lat="47.25601" lon="7.78273">
        <ele>416.3</ele>
        <time>2022-10-01T13:53:58Z</time>
      </trkpt>
      <trkpt lat="47.25603" lon="7.78279">
        <ele>416.4</ele>
        <time>2022-10-01T13:53:59Z</time>
      </trkpt>
      <trkpt lat="47.25608" lon="7.78284">
        <ele>416.5</ele>
        <time>2022-10-01T13:54:00Z</time>
      </trkpt>
      <trkpt lat="47.25612" lon="7.7829">
        <ele>416.6</ele>
        <time>2022-10-01T13:54:01Z</time>
      </trkpt>
      <trkpt lat="47.25616" lon="7.78294">
        <ele>416.6</ele>
        <time>2022-10-01T13:54:02Z</time>
      </trkpt>
      <trkpt lat="47.25619" lon="7.78297">
        <ele>416.6</ele>
        <time>2022-10-01T13:54:03Z</time>
      </trkpt>
      <trkpt lat="47.25623" lon="7.78301">
        <ele>416.7</ele>
        <time>2022-10-01T13:54:04Z</time>
      </trkpt>
      <trkpt lat="47.25626" lon="7.78305">
        <ele>416.7</ele>
        <time>2022-10-01T13:54:05Z</time>
      </trkpt>
      <trkpt lat="47.2563" lon="7.7831">
        <ele>416.8</ele>
        <time>2022-10-01T13:54:06Z</time>
      </trkpt>
      <trkpt lat="47.25634" lon="7.78314">
        <ele>416.8</ele>
        <time>2022-10-01T13:54:07Z</time>
      </trkpt>
      <trkpt lat="47.25638" lon="7.78319">
        <ele>416.9</ele>
        <time>2022-10-01T13:54:08Z</time>
      </trkpt>
      <trkpt lat="47.25641" lon="7.78323">
        <ele>416.9</ele>
        <time>2022-10-01T13:54:10Z</time>
      </trkpt>
      <trkpt lat="47.25644" lon="7.78328">
        <ele>416.9</ele>
        <time>2022-10-01T13:54:11Z</time>
      </trkpt>
      <trkpt lat="47.25648" lon="7.78333">
        <ele>416.9</ele>
        <time>2022-10-01T13:54:12Z</time>
      </trkpt>
      <trkpt lat="47.25652" lon="7.78338">
        <ele>416.9</ele>
        <time>2022-10-01T13:54:13Z</time>
      </trkpt>
      <trkpt lat="47.25656" lon="7.78343">
        <ele>416.8</ele>
        <time>2022-10-01T13:54:14Z</time>
      </trkpt>
      <trkpt lat="47.25661" lon="7.78348">
        <ele>416.8</ele>
        <time>2022-10-01T13:54:15Z</time>
      </trkpt>
      <trkpt lat="47.25665" lon="7.78354">
        <ele>416.7</ele>
        <time>2022-10-01T13:54:16Z</time>
      </trkpt>
      <trkpt lat="47.2567" lon="7.78359">
        <ele>416.7</ele>
        <time>2022-10-01T13:54:17Z</time>
      </trkpt>
      <trkpt lat="47.25674" lon="7.78365">
        <ele>416.6</ele>
        <time>2022-10-01T13:54:18Z</time>
      </trkpt>
      <trkpt lat="47.25679" lon="7.7837">
        <ele>416.6</ele>
        <time>2022-10-01T13:54:19Z</time>
      </trkpt>
      <trkpt lat="47.25684" lon="7.78375">
        <ele>416.5</ele>
        <time>2022-10-01T13:54:20Z</time>
      </trkpt>
      <trkpt lat="47.25688" lon="7.78382">
        <ele>416.5</ele>
        <time>2022-10-01T13:54:21Z</time>
      </trkpt>
      <trkpt lat="47.25694" lon="7.78387">
        <ele>416.4</ele>
        <time>2022-10-01T13:54:22Z</time>
      </trkpt>
      <trkpt lat="47.25703" lon="7.78399">
        <ele>416.3</ele>
        <time>2022-10-01T13:54:23Z</time>
      </trkpt>
      <trkpt lat="47.25707" lon="7.78405">
        <ele>416.2</ele>
        <time>2022-10-01T13:54:24Z</time>
      </trkpt>
      <trkpt lat="47.25712" lon="7.78411">
        <ele>416.1</ele>
        <time>2022-10-01T13:54:25Z</time>
      </trkpt>
      <trkpt lat="47.25716" lon="7.78417">
        <ele>416.1</ele>
        <time>2022-10-01T13:54:26Z</time>
      </trkpt>
      <trkpt lat="47.2572" lon="7.78423">
        <ele>416</ele>
        <time>2022-10-01T13:54:28Z</time>
      </trkpt>
      <trkpt lat="47.25724" lon="7.78429">
        <ele>415.9</ele>
        <time>2022-10-01T13:54:29Z</time>
      </trkpt>
      <trkpt lat="47.25728" lon="7.78435">
        <ele>415.9</ele>
        <time>2022-10-01T13:54:30Z</time>
      </trkpt>
      <trkpt lat="47.25731" lon="7.78441">
        <ele>415.8</ele>
        <time>2022-10-01T13:54:31Z</time>
      </trkpt>
      <trkpt lat="47.25735" lon="7.78448">
        <ele>415.8</ele>
        <time>2022-10-01T13:54:32Z</time>
      </trkpt>
      <trkpt lat="47.25738" lon="7.78455">
        <ele>415.7</ele>
        <time>2022-10-01T13:54:33Z</time>
      </trkpt>
      <trkpt lat="47.25742" lon="7.78462">
        <ele>415.6</ele>
        <time>2022-10-01T13:54:34Z</time>
      </trkpt>
      <trkpt lat="47.25745" lon="7.7847">
        <ele>415.5</ele>
        <time>2022-10-01T13:54:35Z</time>
      </trkpt>
      <trkpt lat="47.25748" lon="7.78476">
        <ele>415.4</ele>
        <time>2022-10-01T13:54:36Z</time>
      </trkpt>
      <trkpt lat="47.25751" lon="7.78482">
        <ele>415.4</ele>
        <time>2022-10-01T13:54:37Z</time>
      </trkpt>
      <trkpt lat="47.25754" lon="7.78489">
        <ele>415.3</ele>
        <time>2022-10-01T13:54:38Z</time>
      </trkpt>
      <trkpt lat="47.25757" lon="7.78496">
        <ele>415.3</ele>
        <time>2022-10-01T13:54:39Z</time>
      </trkpt>
      <trkpt lat="47.2576" lon="7.78504">
        <ele>415.2</ele>
        <time>2022-10-01T13:54:40Z</time>
      </trkpt>
      <trkpt lat="47.25764" lon="7.78511">
        <ele>415.2</ele>
        <time>2022-10-01T13:54:41Z</time>
      </trkpt>
      <trkpt lat="47.25767" lon="7.78518">
        <ele>415.1</ele>
        <time>2022-10-01T13:54:42Z</time>
      </trkpt>
      <trkpt lat="47.25771" lon="7.78525">
        <ele>415.1</ele>
        <time>2022-10-01T13:54:43Z</time>
      </trkpt>
      <trkpt lat="47.25775" lon="7.78531">
        <ele>415.1</ele>
        <time>2022-10-01T13:54:44Z</time>
      </trkpt>
      <trkpt lat="47.25783" lon="7.78545">
        <ele>415</ele>
        <time>2022-10-01T13:54:45Z</time>
      </trkpt>
      <trkpt lat="47.25786" lon="7.78551">
        <ele>415</ele>
        <time>2022-10-01T13:54:46Z</time>
      </trkpt>
      <trkpt lat="47.2579" lon="7.78558">
        <ele>414.9</ele>
        <time>2022-10-01T13:54:47Z</time>
      </trkpt>
      <trkpt lat="47.25795" lon="7.78564">
        <ele>414.9</ele>
        <time>2022-10-01T13:54:48Z</time>
      </trkpt>
      <trkpt lat="47.25799" lon="7.78571">
        <ele>414.9</ele>
        <time>2022-10-01T13:54:49Z</time>
      </trkpt>
      <trkpt lat="47.25803" lon="7.78577">
        <ele>414.8</ele>
        <time>2022-10-01T13:54:50Z</time>
      </trkpt>
      <trkpt lat="47.25808" lon="7.78584">
        <ele>414.8</ele>
        <time>2022-10-01T13:54:51Z</time>
      </trkpt>
      <trkpt lat="47.25812" lon="7.7859">
        <ele>414.7</ele>
        <time>2022-10-01T13:54:52Z</time>
      </trkpt>
      <trkpt lat="47.25816" lon="7.78597">
        <ele>414.7</ele>
        <time>2022-10-01T13:54:53Z</time>
      </trkpt>
      <trkpt lat="47.25821" lon="7.78603">
        <ele>414.6</ele>
        <time>2022-10-01T13:54:54Z</time>
      </trkpt>
      <trkpt lat="47.25825" lon="7.7861">
        <ele>414.6</ele>
        <time>2022-10-01T13:54:55Z</time>
      </trkpt>
      <trkpt lat="47.25829" lon="7.78617">
        <ele>414.5</ele>
        <time>2022-10-01T13:54:56Z</time>
      </trkpt>
      <trkpt lat="47.25832" lon="7.78623">
        <ele>414.5</ele>
        <time>2022-10-01T13:54:57Z</time>
      </trkpt>
      <trkpt lat="47.25835" lon="7.7863">
        <ele>414.4</ele>
        <time>2022-10-01T13:54:58Z</time>
      </trkpt>
      <trkpt lat="47.25837" lon="7.78638">
        <ele>414.4</ele>
        <time>2022-10-01T13:54:59Z</time>
      </trkpt>
      <trkpt lat="47.2584" lon="7.78646">
        <ele>414.4</ele>
        <time>2022-10-01T13:55:00Z</time>
      </trkpt>
      <trkpt lat="47.25843" lon="7.78653">
        <ele>414.3</ele>
        <time>2022-10-01T13:55:01Z</time>
      </trkpt>
      <trkpt lat="47.25846" lon="7.7866">
        <ele>414.3</ele>
        <time>2022-10-01T13:55:02Z</time>
      </trkpt>
      <trkpt lat="47.2585" lon="7.78666">
        <ele>414.3</ele>
        <time>2022-10-01T13:55:03Z</time>
      </trkpt>
      <trkpt lat="47.25853" lon="7.78672">
        <ele>414.3</ele>
        <time>2022-10-01T13:55:04Z</time>
      </trkpt>
      <trkpt lat="47.25857" lon="7.78679">
        <ele>414.3</ele>
        <time>2022-10-01T13:55:05Z</time>
      </trkpt>
      <trkpt lat="47.25861" lon="7.78685">
        <ele>414.2</ele>
        <time>2022-10-01T13:55:06Z</time>
      </trkpt>
      <trkpt lat="47.25866" lon="7.78691">
        <ele>414.2</ele>
        <time>2022-10-01T13:55:07Z</time>
      </trkpt>
      <trkpt lat="47.2587" lon="7.78696">
        <ele>414.2</ele>
        <time>2022-10-01T13:55:08Z</time>
      </trkpt>
      <trkpt lat="47.25875" lon="7.78702">
        <ele>414.2</ele>
        <time>2022-10-01T13:55:09Z</time>
      </trkpt>
      <trkpt lat="47.25879" lon="7.78707">
        <ele>414.2</ele>
        <time>2022-10-01T13:55:10Z</time>
      </trkpt>
      <trkpt lat="47.25884" lon="7.78713">
        <ele>414.2</ele>
        <time>2022-10-01T13:55:11Z</time>
      </trkpt>
      <trkpt lat="47.25888" lon="7.78718">
        <ele>414.3</ele>
        <time>2022-10-01T13:55:12Z</time>
      </trkpt>
      <trkpt lat="47.25892" lon="7.78723">
        <ele>414.3</ele>
        <time>2022-10-01T13:55:13Z</time>
      </trkpt>
      <trkpt lat="47.25895" lon="7.78729">
        <ele>414.3</ele>
        <time>2022-10-01T13:55:14Z</time>
      </trkpt>
      <trkpt lat="47.25899" lon="7.78734">
        <ele>414.3</ele>
        <time>2022-10-01T13:55:15Z</time>
      </trkpt>
      <trkpt lat="47.25902" lon="7.78739">
        <ele>414.3</ele>
        <time>2022-10-01T13:55:16Z</time>
      </trkpt>
      <trkpt lat="47.25905" lon="7.78745">
        <ele>414.3</ele>
        <time>2022-10-01T13:55:17Z</time>
      </trkpt>
      <trkpt lat="47.25909" lon="7.7875">
        <ele>414.3</ele>
        <time>2022-10-01T13:55:18Z</time>
      </trkpt>
      <trkpt lat="47.25912" lon="7.78756">
        <ele>414.3</ele>
        <time>2022-10-01T13:55:19Z</time>
      </trkpt>
      <trkpt lat="47.25915" lon="7.78762">
        <ele>414.3</ele>
        <time>2022-10-01T13:55:20Z</time>
      </trkpt>
      <trkpt lat="47.25918" lon="7.78768">
        <ele>414.3</ele>
        <time>2022-10-01T13:55:21Z</time>
      </trkpt>
      <trkpt lat="47.25921" lon="7.78774">
        <ele>414.3</ele>
        <time>2022-10-01T13:55:22Z</time>
      </trkpt>
      <trkpt lat="47.25924" lon="7.78779">
        <ele>414.3</ele>
        <time>2022-10-01T13:55:23Z</time>
      </trkpt>
      <trkpt lat="47.25926" lon="7.78784">
        <ele>414.3</ele>
        <time>2022-10-01T13:55:24Z</time>
      </trkpt>
      <trkpt lat="47.25929" lon="7.7879">
        <ele>414.2</ele>
        <time>2022-10-01T13:55:25Z</time>
      </trkpt>
      <trkpt lat="47.25933" lon="7.78795">
        <ele>414.2</ele>
        <time>2022-10-01T13:55:26Z</time>
      </trkpt>
      <trkpt lat="47.25935" lon="7.78801">
        <ele>414.2</ele>
        <time>2022-10-01T13:55:27Z</time>
      </trkpt>
      <trkpt lat="47.25939" lon="7.78806">
        <ele>414.2</ele>
        <time>2022-10-01T13:55:28Z</time>
      </trkpt>
      <trkpt lat="47.25942" lon="7.78813">
        <ele>414.2</ele>
        <time>2022-10-01T13:55:29Z</time>
      </trkpt>
      <trkpt lat="47.25945" lon="7.78818">
        <ele>414.2</ele>
        <time>2022-10-01T13:55:30Z</time>
      </trkpt>
      <trkpt lat="47.25949" lon="7.78825">
        <ele>414.3</ele>
        <time>2022-10-01T13:55:31Z</time>
      </trkpt>
      <trkpt lat="47.25952" lon="7.78831">
        <ele>414.3</ele>
        <time>2022-10-01T13:55:32Z</time>
      </trkpt>
      <trkpt lat="47.25955" lon="7.78837">
        <ele>414.3</ele>
        <time>2022-10-01T13:55:33Z</time>
      </trkpt>
      <trkpt lat="47.25957" lon="7.78843">
        <ele>414.3</ele>
        <time>2022-10-01T13:55:34Z</time>
      </trkpt>
      <trkpt lat="47.2596" lon="7.78849">
        <ele>414.4</ele>
        <time>2022-10-01T13:55:35Z</time>
      </trkpt>
      <trkpt lat="47.25962" lon="7.78855">
        <ele>414.4</ele>
        <time>2022-10-01T13:55:36Z</time>
      </trkpt>
      <trkpt lat="47.25965" lon="7.78861">
        <ele>414.4</ele>
        <time>2022-10-01T13:55:37Z</time>
      </trkpt>
      <trkpt lat="47.25968" lon="7.78868">
        <ele>414.4</ele>
        <time>2022-10-01T13:55:38Z</time>
      </trkpt>
      <trkpt lat="47.25971" lon="7.78874">
        <ele>414.4</ele>
        <time>2022-10-01T13:55:39Z</time>
      </trkpt>
      <trkpt lat="47.25973" lon="7.7888">
        <ele>414.4</ele>
        <time>2022-10-01T13:55:40Z</time>
      </trkpt>
      <trkpt lat="47.25976" lon="7.78887">
        <ele>414.4</ele>
        <time>2022-10-01T13:55:41Z</time>
      </trkpt>
      <trkpt lat="47.25978" lon="7.78894">
        <ele>414.4</ele>
        <time>2022-10-01T13:55:42Z</time>
      </trkpt>
      <trkpt lat="47.25981" lon="7.789">
        <ele>414.4</ele>
        <time>2022-10-01T13:55:43Z</time>
      </trkpt>
      <trkpt lat="47.25984" lon="7.78906">
        <ele>414.4</ele>
        <time>2022-10-01T13:55:44Z</time>
      </trkpt>
      <trkpt lat="47.25987" lon="7.78913">
        <ele>414.4</ele>
        <time>2022-10-01T13:55:45Z</time>
      </trkpt>
      <trkpt lat="47.25989" lon="7.78919">
        <ele>414.5</ele>
        <time>2022-10-01T13:55:46Z</time>
      </trkpt>
      <trkpt lat="47.25992" lon="7.78925">
        <ele>414.5</ele>
        <time>2022-10-01T13:55:47Z</time>
      </trkpt>
      <trkpt lat="47.25995" lon="7.78931">
        <ele>414.5</ele>
        <time>2022-10-01T13:55:48Z</time>
      </trkpt>
      <trkpt lat="47.25998" lon="7.78938">
        <ele>414.5</ele>
        <time>2022-10-01T13:55:49Z</time>
      </trkpt>
      <trkpt lat="47.26001" lon="7.78944">
        <ele>414.5</ele>
        <time>2022-10-01T13:55:50Z</time>
      </trkpt>
      <trkpt lat="47.26004" lon="7.7895">
        <ele>414.5</ele>
        <time>2022-10-01T13:55:51Z</time>
      </trkpt>
      <trkpt lat="47.26007" lon="7.78957">
        <ele>414.5</ele>
        <time>2022-10-01T13:55:52Z</time>
      </trkpt>
      <trkpt lat="47.2601" lon="7.78963">
        <ele>414.5</ele>
        <time>2022-10-01T13:55:53Z</time>
      </trkpt>
      <trkpt lat="47.26014" lon="7.78969">
        <ele>414.5</ele>
        <time>2022-10-01T13:55:54Z</time>
      </trkpt>
      <trkpt lat="47.26017" lon="7.78974">
        <ele>414.5</ele>
        <time>2022-10-01T13:55:55Z</time>
      </trkpt>
      <trkpt lat="47.2602" lon="7.7898">
        <ele>414.6</ele>
        <time>2022-10-01T13:55:56Z</time>
      </trkpt>
      <trkpt lat="47.26024" lon="7.78987">
        <ele>414.6</ele>
        <time>2022-10-01T13:55:57Z</time>
      </trkpt>
      <trkpt lat="47.26027" lon="7.78993">
        <ele>414.6</ele>
        <time>2022-10-01T13:55:58Z</time>
      </trkpt>
      <trkpt lat="47.26031" lon="7.78999">
        <ele>414.6</ele>
        <time>2022-10-01T13:55:59Z</time>
      </trkpt>
      <trkpt lat="47.26035" lon="7.79005">
        <ele>414.6</ele>
        <time>2022-10-01T13:56:00Z</time>
      </trkpt>
      <trkpt lat="47.26038" lon="7.79011">
        <ele>414.6</ele>
        <time>2022-10-01T13:56:01Z</time>
      </trkpt>
      <trkpt lat="47.26042" lon="7.79017">
        <ele>414.6</ele>
        <time>2022-10-01T13:56:02Z</time>
      </trkpt>
      <trkpt lat="47.26046" lon="7.79023">
        <ele>414.6</ele>
        <time>2022-10-01T13:56:03Z</time>
      </trkpt>
      <trkpt lat="47.2605" lon="7.79029">
        <ele>414.6</ele>
        <time>2022-10-01T13:56:04Z</time>
      </trkpt>
      <trkpt lat="47.26054" lon="7.79034">
        <ele>414.6</ele>
        <time>2022-10-01T13:56:05Z</time>
      </trkpt>
      <trkpt lat="47.26058" lon="7.7904">
        <ele>414.5</ele>
        <time>2022-10-01T13:56:06Z</time>
      </trkpt>
      <trkpt lat="47.26062" lon="7.79045">
        <ele>414.4</ele>
        <time>2022-10-01T13:56:07Z</time>
      </trkpt>
      <trkpt lat="47.26067" lon="7.7905">
        <ele>414.3</ele>
        <time>2022-10-01T13:56:08Z</time>
      </trkpt>
      <trkpt lat="47.26071" lon="7.79056">
        <ele>414.2</ele>
        <time>2022-10-01T13:56:09Z</time>
      </trkpt>
      <trkpt lat="47.26076" lon="7.79061">
        <ele>414.1</ele>
        <time>2022-10-01T13:56:10Z</time>
      </trkpt>
      <trkpt lat="47.2608" lon="7.79067">
        <ele>414</ele>
        <time>2022-10-01T13:56:11Z</time>
      </trkpt>
      <trkpt lat="47.26084" lon="7.79074">
        <ele>413.9</ele>
        <time>2022-10-01T13:56:12Z</time>
      </trkpt>
      <trkpt lat="47.26089" lon="7.7908">
        <ele>413.8</ele>
        <time>2022-10-01T13:56:13Z</time>
      </trkpt>
      <trkpt lat="47.26092" lon="7.79087">
        <ele>413.7</ele>
        <time>2022-10-01T13:56:14Z</time>
      </trkpt>
      <trkpt lat="47.26096" lon="7.79094">
        <ele>413.6</ele>
        <time>2022-10-01T13:56:15Z</time>
      </trkpt>
      <trkpt lat="47.261" lon="7.79102">
        <ele>413.6</ele>
        <time>2022-10-01T13:56:16Z</time>
      </trkpt>
      <trkpt lat="47.26104" lon="7.79109">
        <ele>413.5</ele>
        <time>2022-10-01T13:56:17Z</time>
      </trkpt>
      <trkpt lat="47.26108" lon="7.79117">
        <ele>413.4</ele>
        <time>2022-10-01T13:56:18Z</time>
      </trkpt>
      <trkpt lat="47.26112" lon="7.79125">
        <ele>413.4</ele>
        <time>2022-10-01T13:56:19Z</time>
      </trkpt>
      <trkpt lat="47.26116" lon="7.79133">
        <ele>413.3</ele>
        <time>2022-10-01T13:56:20Z</time>
      </trkpt>
      <trkpt lat="47.26119" lon="7.79141">
        <ele>413.3</ele>
        <time>2022-10-01T13:56:21Z</time>
      </trkpt>
      <trkpt lat="47.26124" lon="7.79149">
        <ele>413.3</ele>
        <time>2022-10-01T13:56:22Z</time>
      </trkpt>
      <trkpt lat="47.26128" lon="7.79157">
        <ele>413.2</ele>
        <time>2022-10-01T13:56:23Z</time>
      </trkpt>
      <trkpt lat="47.26132" lon="7.79164">
        <ele>413.2</ele>
        <time>2022-10-01T13:56:24Z</time>
      </trkpt>
      <trkpt lat="47.26135" lon="7.79172">
        <ele>413.1</ele>
        <time>2022-10-01T13:56:25Z</time>
      </trkpt>
      <trkpt lat="47.2614" lon="7.79179">
        <ele>413.1</ele>
        <time>2022-10-01T13:56:26Z</time>
      </trkpt>
      <trkpt lat="47.26144" lon="7.79187">
        <ele>413.1</ele>
        <time>2022-10-01T13:56:27Z</time>
      </trkpt>
      <trkpt lat="47.26148" lon="7.79195">
        <ele>413.1</ele>
        <time>2022-10-01T13:56:28Z</time>
      </trkpt>
      <trkpt lat="47.26152" lon="7.79201">
        <ele>413.1</ele>
        <time>2022-10-01T13:56:30Z</time>
      </trkpt>
      <trkpt lat="47.26157" lon="7.79209">
        <ele>413.2</ele>
        <time>2022-10-01T13:56:31Z</time>
      </trkpt>
      <trkpt lat="47.26161" lon="7.79216">
        <ele>413.2</ele>
        <time>2022-10-01T13:56:32Z</time>
      </trkpt>
      <trkpt lat="47.26171" lon="7.79229">
        <ele>413.1</ele>
        <time>2022-10-01T13:56:33Z</time>
      </trkpt>
      <trkpt lat="47.26176" lon="7.79236">
        <ele>413.1</ele>
        <time>2022-10-01T13:56:34Z</time>
      </trkpt>
      <trkpt lat="47.2618" lon="7.79242">
        <ele>413</ele>
        <time>2022-10-01T13:56:35Z</time>
      </trkpt>
      <trkpt lat="47.26185" lon="7.79249">
        <ele>413</ele>
        <time>2022-10-01T13:56:36Z</time>
      </trkpt>
      <trkpt lat="47.2619" lon="7.79256">
        <ele>412.9</ele>
        <time>2022-10-01T13:56:37Z</time>
      </trkpt>
      <trkpt lat="47.26195" lon="7.79262">
        <ele>412.9</ele>
        <time>2022-10-01T13:56:38Z</time>
      </trkpt>
      <trkpt lat="47.262" lon="7.79268">
        <ele>412.8</ele>
        <time>2022-10-01T13:56:39Z</time>
      </trkpt>
      <trkpt lat="47.26206" lon="7.79274">
        <ele>412.7</ele>
        <time>2022-10-01T13:56:40Z</time>
      </trkpt>
      <trkpt lat="47.2621" lon="7.79281">
        <ele>412.7</ele>
        <time>2022-10-01T13:56:41Z</time>
      </trkpt>
      <trkpt lat="47.26215" lon="7.79287">
        <ele>412.6</ele>
        <time>2022-10-01T13:56:42Z</time>
      </trkpt>
      <trkpt lat="47.2622" lon="7.79294">
        <ele>412.5</ele>
        <time>2022-10-01T13:56:43Z</time>
      </trkpt>
      <trkpt lat="47.26225" lon="7.793">
        <ele>412.5</ele>
        <time>2022-10-01T13:56:44Z</time>
      </trkpt>
      <trkpt lat="47.2623" lon="7.79305">
        <ele>412.4</ele>
        <time>2022-10-01T13:56:45Z</time>
      </trkpt>
      <trkpt lat="47.26235" lon="7.79311">
        <ele>412.4</ele>
        <time>2022-10-01T13:56:46Z</time>
      </trkpt>
      <trkpt lat="47.2624" lon="7.79316">
        <ele>412.3</ele>
        <time>2022-10-01T13:56:47Z</time>
      </trkpt>
      <trkpt lat="47.26244" lon="7.79318">
        <ele>412.3</ele>
        <time>2022-10-01T13:56:48Z</time>
      </trkpt>
      <trkpt lat="47.26248" lon="7.79323">
        <ele>412.3</ele>
        <time>2022-10-01T13:56:49Z</time>
      </trkpt>
      <trkpt lat="47.26252" lon="7.79329">
        <ele>412.3</ele>
        <time>2022-10-01T13:56:50Z</time>
      </trkpt>
      <trkpt lat="47.26257" lon="7.79333">
        <ele>412.3</ele>
        <time>2022-10-01T13:56:51Z</time>
      </trkpt>
      <trkpt lat="47.26261" lon="7.79338">
        <ele>412.3</ele>
        <time>2022-10-01T13:56:52Z</time>
      </trkpt>
      <trkpt lat="47.26266" lon="7.79343">
        <ele>412.3</ele>
        <time>2022-10-01T13:56:53Z</time>
      </trkpt>
      <trkpt lat="47.2627" lon="7.79348">
        <ele>412.3</ele>
        <time>2022-10-01T13:56:54Z</time>
      </trkpt>
      <trkpt lat="47.26274" lon="7.79352">
        <ele>412.3</ele>
        <time>2022-10-01T13:56:55Z</time>
      </trkpt>
      <trkpt lat="47.26278" lon="7.79357">
        <ele>412.2</ele>
        <time>2022-10-01T13:56:56Z</time>
      </trkpt>
      <trkpt lat="47.26283" lon="7.79362">
        <ele>412.2</ele>
        <time>2022-10-01T13:56:57Z</time>
      </trkpt>
      <trkpt lat="47.26287" lon="7.79367">
        <ele>412.2</ele>
        <time>2022-10-01T13:56:58Z</time>
      </trkpt>
      <trkpt lat="47.26292" lon="7.79372">
        <ele>412.1</ele>
        <time>2022-10-01T13:56:59Z</time>
      </trkpt>
      <trkpt lat="47.26296" lon="7.79378">
        <ele>412.1</ele>
        <time>2022-10-01T13:57:00Z</time>
      </trkpt>
      <trkpt lat="47.26301" lon="7.79383">
        <ele>412</ele>
        <time>2022-10-01T13:57:01Z</time>
      </trkpt>
      <trkpt lat="47.26306" lon="7.79388">
        <ele>412</ele>
        <time>2022-10-01T13:57:02Z</time>
      </trkpt>
      <trkpt lat="47.26311" lon="7.79393">
        <ele>412</ele>
        <time>2022-10-01T13:57:03Z</time>
      </trkpt>
      <trkpt lat="47.26315" lon="7.79399">
        <ele>411.9</ele>
        <time>2022-10-01T13:57:04Z</time>
      </trkpt>
      <trkpt lat="47.26319" lon="7.79404">
        <ele>411.9</ele>
        <time>2022-10-01T13:57:05Z</time>
      </trkpt>
      <trkpt lat="47.26324" lon="7.7941">
        <ele>411.8</ele>
        <time>2022-10-01T13:57:06Z</time>
      </trkpt>
      <trkpt lat="47.26328" lon="7.79415">
        <ele>411.8</ele>
        <time>2022-10-01T13:57:07Z</time>
      </trkpt>
      <trkpt lat="47.26333" lon="7.79421">
        <ele>411.7</ele>
        <time>2022-10-01T13:57:08Z</time>
      </trkpt>
      <trkpt lat="47.26338" lon="7.79427">
        <ele>411.7</ele>
        <time>2022-10-01T13:57:09Z</time>
      </trkpt>
      <trkpt lat="47.26342" lon="7.79433">
        <ele>411.7</ele>
        <time>2022-10-01T13:57:10Z</time>
      </trkpt>
      <trkpt lat="47.26347" lon="7.79438">
        <ele>411.6</ele>
        <time>2022-10-01T13:57:11Z</time>
      </trkpt>
      <trkpt lat="47.26351" lon="7.79443">
        <ele>411.6</ele>
        <time>2022-10-01T13:57:12Z</time>
      </trkpt>
      <trkpt lat="47.26355" lon="7.79447">
        <ele>411.5</ele>
        <time>2022-10-01T13:57:13Z</time>
      </trkpt>
      <trkpt lat="47.26359" lon="7.79453">
        <ele>411.5</ele>
        <time>2022-10-01T13:57:14Z</time>
      </trkpt>
      <trkpt lat="47.26364" lon="7.79459">
        <ele>411.4</ele>
        <time>2022-10-01T13:57:15Z</time>
      </trkpt>
      <trkpt lat="47.26368" lon="7.79464">
        <ele>411.4</ele>
        <time>2022-10-01T13:57:16Z</time>
      </trkpt>
      <trkpt lat="47.26372" lon="7.79468">
        <ele>411.3</ele>
        <time>2022-10-01T13:57:17Z</time>
      </trkpt>
      <trkpt lat="47.26376" lon="7.79475">
        <ele>411.3</ele>
        <time>2022-10-01T13:57:18Z</time>
      </trkpt>
      <trkpt lat="47.26381" lon="7.7948">
        <ele>411.2</ele>
        <time>2022-10-01T13:57:19Z</time>
      </trkpt>
      <trkpt lat="47.26386" lon="7.79485">
        <ele>411.2</ele>
        <time>2022-10-01T13:57:20Z</time>
      </trkpt>
      <trkpt lat="47.2639" lon="7.79491">
        <ele>411.2</ele>
        <time>2022-10-01T13:57:21Z</time>
      </trkpt>
      <trkpt lat="47.26394" lon="7.79497">
        <ele>411.2</ele>
        <time>2022-10-01T13:57:22Z</time>
      </trkpt>
      <trkpt lat="47.26399" lon="7.79503">
        <ele>411.2</ele>
        <time>2022-10-01T13:57:23Z</time>
      </trkpt>
      <trkpt lat="47.26403" lon="7.79508">
        <ele>411.1</ele>
        <time>2022-10-01T13:57:24Z</time>
      </trkpt>
      <trkpt lat="47.26408" lon="7.79514">
        <ele>411.1</ele>
        <time>2022-10-01T13:57:25Z</time>
      </trkpt>
      <trkpt lat="47.26412" lon="7.79519">
        <ele>411.1</ele>
        <time>2022-10-01T13:57:26Z</time>
      </trkpt>
      <trkpt lat="47.26416" lon="7.79526">
        <ele>411.1</ele>
        <time>2022-10-01T13:57:27Z</time>
      </trkpt>
      <trkpt lat="47.26421" lon="7.79532">
        <ele>411.1</ele>
        <time>2022-10-01T13:57:28Z</time>
      </trkpt>
      <trkpt lat="47.26426" lon="7.79538">
        <ele>411.1</ele>
        <time>2022-10-01T13:57:29Z</time>
      </trkpt>
      <trkpt lat="47.2643" lon="7.79544">
        <ele>411.2</ele>
        <time>2022-10-01T13:57:30Z</time>
      </trkpt>
      <trkpt lat="47.26435" lon="7.7955">
        <ele>411.2</ele>
        <time>2022-10-01T13:57:31Z</time>
      </trkpt>
      <trkpt lat="47.2644" lon="7.79556">
        <ele>411.2</ele>
        <time>2022-10-01T13:57:32Z</time>
      </trkpt>
      <trkpt lat="47.26445" lon="7.79562">
        <ele>411.2</ele>
        <time>2022-10-01T13:57:33Z</time>
      </trkpt>
      <trkpt lat="47.2645" lon="7.79567">
        <ele>411.3</ele>
        <time>2022-10-01T13:57:34Z</time>
      </trkpt>
      <trkpt lat="47.26455" lon="7.79572">
        <ele>411.3</ele>
        <time>2022-10-01T13:57:35Z</time>
      </trkpt>
      <trkpt lat="47.26459" lon="7.79577">
        <ele>411.3</ele>
        <time>2022-10-01T13:57:36Z</time>
      </trkpt>
      <trkpt lat="47.26463" lon="7.7958">
        <ele>411.4</ele>
        <time>2022-10-01T13:57:37Z</time>
      </trkpt>
      <trkpt lat="47.26468" lon="7.79582">
        <ele>411.4</ele>
        <time>2022-10-01T13:57:38Z</time>
      </trkpt>
      <trkpt lat="47.26471" lon="7.79585">
        <ele>411.4</ele>
        <time>2022-10-01T13:57:39Z</time>
      </trkpt>
      <trkpt lat="47.26475" lon="7.79588">
        <ele>411.5</ele>
        <time>2022-10-01T13:57:40Z</time>
      </trkpt>
      <trkpt lat="47.26479" lon="7.79591">
        <ele>411.5</ele>
        <time>2022-10-01T13:57:41Z</time>
      </trkpt>
      <trkpt lat="47.26483" lon="7.79593">
        <ele>411.5</ele>
        <time>2022-10-01T13:57:42Z</time>
      </trkpt>
      <trkpt lat="47.26487" lon="7.79596">
        <ele>411.6</ele>
        <time>2022-10-01T13:57:43Z</time>
      </trkpt>
      <trkpt lat="47.26491" lon="7.79598">
        <ele>411.6</ele>
        <time>2022-10-01T13:57:44Z</time>
      </trkpt>
      <trkpt lat="47.26492" lon="7.79601">
        <ele>411.6</ele>
        <time>2022-10-01T13:57:45Z</time>
      </trkpt>
      <trkpt lat="47.26492" lon="7.79601">
        <ele>411.6</ele>
        <time>2022-10-01T13:57:46Z</time>
      </trkpt>
      <trkpt lat="47.26492" lon="7.79601">
        <ele>411.6</ele>
        <time>2022-10-01T13:57:47Z</time>
      </trkpt>
      <trkpt lat="47.26493" lon="7.79602">
        <ele>411.6</ele>
        <time>2022-10-01T13:57:48Z</time>
      </trkpt>
      <trkpt lat="47.26493" lon="7.79602">
        <ele>411.6</ele>
        <time>2022-10-01T13:57:49Z</time>
      </trkpt>
      <trkpt lat="47.26494" lon="7.79603">
        <ele>411.6</ele>
        <time>2022-10-01T13:57:50Z</time>
      </trkpt>
      <trkpt lat="47.26495" lon="7.79603">
        <ele>411.7</ele>
        <time>2022-10-01T13:57:51Z</time>
      </trkpt>
      <trkpt lat="47.26496" lon="7.79604">
        <ele>411.7</ele>
        <time>2022-10-01T13:57:52Z</time>
      </trkpt>
      <trkpt lat="47.26497" lon="7.79604">
        <ele>411.7</ele>
        <time>2022-10-01T13:57:53Z</time>
      </trkpt>
      <trkpt lat="47.26497" lon="7.79605">
        <ele>411.7</ele>
        <time>2022-10-01T13:57:54Z</time>
      </trkpt>
      <trkpt lat="47.26498" lon="7.79605">
        <ele>411.7</ele>
        <time>2022-10-01T13:57:55Z</time>
      </trkpt>
      <trkpt lat="47.26499" lon="7.79606">
        <ele>411.7</ele>
        <time>2022-10-01T13:57:56Z</time>
      </trkpt>
      <trkpt lat="47.265" lon="7.79606">
        <ele>411.7</ele>
        <time>2022-10-01T13:58:16Z</time>
      </trkpt>
      <trkpt lat="47.26501" lon="7.79607">
        <ele>411.7</ele>
        <time>2022-10-01T13:58:17Z</time>
      </trkpt>
      <trkpt lat="47.26501" lon="7.79607">
        <ele>411.7</ele>
        <time>2022-10-01T13:58:18Z</time>
      </trkpt>
      <trkpt lat="47.26503" lon="7.79608">
        <ele>411.7</ele>
        <time>2022-10-01T13:58:19Z</time>
      </trkpt>
      <trkpt lat="47.26504" lon="7.7961">
        <ele>411.7</ele>
        <time>2022-10-01T13:58:20Z</time>
      </trkpt>
      <trkpt lat="47.26505" lon="7.79611">
        <ele>411.7</ele>
        <time>2022-10-01T13:58:21Z</time>
      </trkpt>
      <trkpt lat="47.26508" lon="7.79615">
        <ele>411.8</ele>
        <time>2022-10-01T13:58:22Z</time>
      </trkpt>
      <trkpt lat="47.26509" lon="7.79616">
        <ele>411.8</ele>
        <time>2022-10-01T13:58:23Z</time>
      </trkpt>
      <trkpt lat="47.26511" lon="7.79621">
        <ele>411.8</ele>
        <time>2022-10-01T13:58:24Z</time>
      </trkpt>
      <trkpt lat="47.26511" lon="7.79622">
        <ele>411.8</ele>
        <time>2022-10-01T13:58:25Z</time>
      </trkpt>
      <trkpt lat="47.26514" lon="7.79626">
        <ele>411.8</ele>
        <time>2022-10-01T13:58:26Z</time>
      </trkpt>
      <trkpt lat="47.26516" lon="7.79629">
        <ele>411.8</ele>
        <time>2022-10-01T13:58:27Z</time>
      </trkpt>
      <trkpt lat="47.26519" lon="7.79632">
        <ele>411.8</ele>
        <time>2022-10-01T13:58:28Z</time>
      </trkpt>
      <trkpt lat="47.26522" lon="7.79635">
        <ele>411.9</ele>
        <time>2022-10-01T13:58:29Z</time>
      </trkpt>
      <trkpt lat="47.26525" lon="7.79638">
        <ele>411.9</ele>
        <time>2022-10-01T13:58:30Z</time>
      </trkpt>
      <trkpt lat="47.26528" lon="7.79642">
        <ele>411.9</ele>
        <time>2022-10-01T13:58:31Z</time>
      </trkpt>
      <trkpt lat="47.26531" lon="7.79646">
        <ele>411.9</ele>
        <time>2022-10-01T13:58:32Z</time>
      </trkpt>
      <trkpt lat="47.26535" lon="7.79649">
        <ele>411.9</ele>
        <time>2022-10-01T13:58:34Z</time>
      </trkpt>
      <trkpt lat="47.26541" lon="7.79656">
        <ele>412</ele>
        <time>2022-10-01T13:58:35Z</time>
      </trkpt>
      <trkpt lat="47.26545" lon="7.7966">
        <ele>412</ele>
        <time>2022-10-01T13:58:36Z</time>
      </trkpt>
      <trkpt lat="47.26549" lon="7.79664">
        <ele>412</ele>
        <time>2022-10-01T13:58:38Z</time>
      </trkpt>
      <trkpt lat="47.26557" lon="7.7967">
        <ele>412.1</ele>
        <time>2022-10-01T13:58:39Z</time>
      </trkpt>
      <trkpt lat="47.2656" lon="7.79674">
        <ele>412.1</ele>
        <time>2022-10-01T13:58:40Z</time>
      </trkpt>
      <trkpt lat="47.26564" lon="7.79677">
        <ele>412.1</ele>
        <time>2022-10-01T13:58:41Z</time>
      </trkpt>
      <trkpt lat="47.26568" lon="7.79681">
        <ele>412.2</ele>
        <time>2022-10-01T13:58:42Z</time>
      </trkpt>
      <trkpt lat="47.26572" lon="7.79684">
        <ele>412.2</ele>
        <time>2022-10-01T13:58:43Z</time>
      </trkpt>
      <trkpt lat="47.26575" lon="7.79688">
        <ele>412.2</ele>
        <time>2022-10-01T13:58:44Z</time>
      </trkpt>
      <trkpt lat="47.26579" lon="7.79691">
        <ele>412.2</ele>
        <time>2022-10-01T13:58:45Z</time>
      </trkpt>
      <trkpt lat="47.26583" lon="7.79694">
        <ele>412.2</ele>
        <time>2022-10-01T13:58:46Z</time>
      </trkpt>
      <trkpt lat="47.26586" lon="7.79697">
        <ele>412.3</ele>
        <time>2022-10-01T13:58:47Z</time>
      </trkpt>
      <trkpt lat="47.2659" lon="7.797">
        <ele>412.3</ele>
        <time>2022-10-01T13:58:48Z</time>
      </trkpt>
      <trkpt lat="47.26593" lon="7.79703">
        <ele>412.3</ele>
        <time>2022-10-01T13:58:49Z</time>
      </trkpt>
      <trkpt lat="47.26597" lon="7.79706">
        <ele>412.3</ele>
        <time>2022-10-01T13:58:50Z</time>
      </trkpt>
      <trkpt lat="47.266" lon="7.79709">
        <ele>412.3</ele>
        <time>2022-10-01T13:58:51Z</time>
      </trkpt>
      <trkpt lat="47.26604" lon="7.79712">
        <ele>412.4</ele>
        <time>2022-10-01T13:58:52Z</time>
      </trkpt>
      <trkpt lat="47.26609" lon="7.79717">
        <ele>412.4</ele>
        <time>2022-10-01T13:58:53Z</time>
      </trkpt>
      <trkpt lat="47.26612" lon="7.7972">
        <ele>412.4</ele>
        <time>2022-10-01T13:58:54Z</time>
      </trkpt>
      <trkpt lat="47.26616" lon="7.79723">
        <ele>412.4</ele>
        <time>2022-10-01T13:58:55Z</time>
      </trkpt>
      <trkpt lat="47.26619" lon="7.79727">
        <ele>412.4</ele>
        <time>2022-10-01T13:58:56Z</time>
      </trkpt>
      <trkpt lat="47.26623" lon="7.79731">
        <ele>412.4</ele>
        <time>2022-10-01T13:58:57Z</time>
      </trkpt>
      <trkpt lat="47.26626" lon="7.79735">
        <ele>412.4</ele>
        <time>2022-10-01T13:58:58Z</time>
      </trkpt>
      <trkpt lat="47.26631" lon="7.79738">
        <ele>412.4</ele>
        <time>2022-10-01T13:58:59Z</time>
      </trkpt>
      <trkpt lat="47.26634" lon="7.79741">
        <ele>412.5</ele>
        <time>2022-10-01T13:59:00Z</time>
      </trkpt>
      <trkpt lat="47.26638" lon="7.79745">
        <ele>412.5</ele>
        <time>2022-10-01T13:59:01Z</time>
      </trkpt>
      <trkpt lat="47.26642" lon="7.79749">
        <ele>412.5</ele>
        <time>2022-10-01T13:59:02Z</time>
      </trkpt>
      <trkpt lat="47.26646" lon="7.79754">
        <ele>412.5</ele>
        <time>2022-10-01T13:59:03Z</time>
      </trkpt>
      <trkpt lat="47.26649" lon="7.79759">
        <ele>412.5</ele>
        <time>2022-10-01T13:59:04Z</time>
      </trkpt>
      <trkpt lat="47.26653" lon="7.79762">
        <ele>412.6</ele>
        <time>2022-10-01T13:59:05Z</time>
      </trkpt>
      <trkpt lat="47.26657" lon="7.79767">
        <ele>412.6</ele>
        <time>2022-10-01T13:59:06Z</time>
      </trkpt>
      <trkpt lat="47.26662" lon="7.7977">
        <ele>412.6</ele>
        <time>2022-10-01T13:59:07Z</time>
      </trkpt>
      <trkpt lat="47.26665" lon="7.79773">
        <ele>412.7</ele>
        <time>2022-10-01T13:59:08Z</time>
      </trkpt>
      <trkpt lat="47.26668" lon="7.79776">
        <ele>412.7</ele>
        <time>2022-10-01T13:59:09Z</time>
      </trkpt>
      <trkpt lat="47.26673" lon="7.79777">
        <ele>412.7</ele>
        <time>2022-10-01T13:59:10Z</time>
      </trkpt>
      <trkpt lat="47.26676" lon="7.79777">
        <ele>412.7</ele>
        <time>2022-10-01T13:59:11Z</time>
      </trkpt>
      <trkpt lat="47.2668" lon="7.79776">
        <ele>412.7</ele>
        <time>2022-10-01T13:59:12Z</time>
      </trkpt>
      <trkpt lat="47.26685" lon="7.79774">
        <ele>412.8</ele>
        <time>2022-10-01T13:59:13Z</time>
      </trkpt>
      <trkpt lat="47.26689" lon="7.79772">
        <ele>412.8</ele>
        <time>2022-10-01T13:59:14Z</time>
      </trkpt>
      <trkpt lat="47.26695" lon="7.79772">
        <ele>412.8</ele>
        <time>2022-10-01T13:59:15Z</time>
      </trkpt>
      <trkpt lat="47.26701" lon="7.79771">
        <ele>412.8</ele>
        <time>2022-10-01T13:59:16Z</time>
      </trkpt>
      <trkpt lat="47.26707" lon="7.7977">
        <ele>412.9</ele>
        <time>2022-10-01T13:59:17Z</time>
      </trkpt>
      <trkpt lat="47.26711" lon="7.7977">
        <ele>412.9</ele>
        <time>2022-10-01T13:59:18Z</time>
      </trkpt>
      <trkpt lat="47.26717" lon="7.79769">
        <ele>412.9</ele>
        <time>2022-10-01T13:59:19Z</time>
      </trkpt>
      <trkpt lat="47.26723" lon="7.79768">
        <ele>412.9</ele>
        <time>2022-10-01T13:59:20Z</time>
      </trkpt>
      <trkpt lat="47.26729" lon="7.79769">
        <ele>413</ele>
        <time>2022-10-01T13:59:21Z</time>
      </trkpt>
      <trkpt lat="47.26734" lon="7.7977">
        <ele>413</ele>
        <time>2022-10-01T13:59:22Z</time>
      </trkpt>
      <trkpt lat="47.26739" lon="7.79772">
        <ele>413.1</ele>
        <time>2022-10-01T13:59:23Z</time>
      </trkpt>
      <trkpt lat="47.26744" lon="7.79772">
        <ele>413.1</ele>
        <time>2022-10-01T13:59:24Z</time>
      </trkpt>
      <trkpt lat="47.26751" lon="7.79773">
        <ele>413.1</ele>
        <time>2022-10-01T13:59:25Z</time>
      </trkpt>
      <trkpt lat="47.26757" lon="7.79774">
        <ele>413.2</ele>
        <time>2022-10-01T13:59:26Z</time>
      </trkpt>
      <trkpt lat="47.2676" lon="7.79775">
        <ele>413.2</ele>
        <time>2022-10-01T13:59:27Z</time>
      </trkpt>
      <trkpt lat="47.26767" lon="7.79776">
        <ele>413.3</ele>
        <time>2022-10-01T13:59:28Z</time>
      </trkpt>
      <trkpt lat="47.26772" lon="7.79777">
        <ele>413.4</ele>
        <time>2022-10-01T13:59:29Z</time>
      </trkpt>
      <trkpt lat="47.26776" lon="7.79775">
        <ele>413.4</ele>
        <time>2022-10-01T13:59:30Z</time>
      </trkpt>
      <trkpt lat="47.26781" lon="7.79775">
        <ele>413.5</ele>
        <time>2022-10-01T13:59:31Z</time>
      </trkpt>
      <trkpt lat="47.26785" lon="7.79773">
        <ele>413.6</ele>
        <time>2022-10-01T13:59:32Z</time>
      </trkpt>
      <trkpt lat="47.26789" lon="7.79773">
        <ele>413.7</ele>
        <time>2022-10-01T13:59:33Z</time>
      </trkpt>
      <trkpt lat="47.26794" lon="7.79773">
        <ele>413.8</ele>
        <time>2022-10-01T13:59:34Z</time>
      </trkpt>
      <trkpt lat="47.26798" lon="7.79771">
        <ele>413.9</ele>
        <time>2022-10-01T13:59:35Z</time>
      </trkpt>
      <trkpt lat="47.26802" lon="7.79771">
        <ele>414</ele>
        <time>2022-10-01T13:59:36Z</time>
      </trkpt>
      <trkpt lat="47.26807" lon="7.79771">
        <ele>414.1</ele>
        <time>2022-10-01T13:59:37Z</time>
      </trkpt>
      <trkpt lat="47.2681" lon="7.7977">
        <ele>414.3</ele>
        <time>2022-10-01T13:59:38Z</time>
      </trkpt>
      <trkpt lat="47.26814" lon="7.7977">
        <ele>414.4</ele>
        <time>2022-10-01T13:59:39Z</time>
      </trkpt>
      <trkpt lat="47.26818" lon="7.7977">
        <ele>414.5</ele>
        <time>2022-10-01T13:59:40Z</time>
      </trkpt>
      <trkpt lat="47.26821" lon="7.79769">
        <ele>414.6</ele>
        <time>2022-10-01T13:59:41Z</time>
      </trkpt>
      <trkpt lat="47.26824" lon="7.79771">
        <ele>414.8</ele>
        <time>2022-10-01T13:59:42Z</time>
      </trkpt>
      <trkpt lat="47.26828" lon="7.7977">
        <ele>414.9</ele>
        <time>2022-10-01T13:59:43Z</time>
      </trkpt>
      <trkpt lat="47.26831" lon="7.79774">
        <ele>415.1</ele>
        <time>2022-10-01T13:59:44Z</time>
      </trkpt>
      <trkpt lat="47.26834" lon="7.79777">
        <ele>415.3</ele>
        <time>2022-10-01T13:59:45Z</time>
      </trkpt>
      <trkpt lat="47.26836" lon="7.79779">
        <ele>415.4</ele>
        <time>2022-10-01T13:59:46Z</time>
      </trkpt>
      <trkpt lat="47.2684" lon="7.79782">
        <ele>415.7</ele>
        <time>2022-10-01T13:59:47Z</time>
      </trkpt>
      <trkpt lat="47.26841" lon="7.79783">
        <ele>415.8</ele>
        <time>2022-10-01T13:59:48Z</time>
      </trkpt>
      <trkpt lat="47.26843" lon="7.79785">
        <ele>415.9</ele>
        <time>2022-10-01T13:59:49Z</time>
      </trkpt>
      <trkpt lat="47.26846" lon="7.79788">
        <ele>416.1</ele>
        <time>2022-10-01T13:59:50Z</time>
      </trkpt>
      <trkpt lat="47.26849" lon="7.79792">
        <ele>416.3</ele>
        <time>2022-10-01T13:59:51Z</time>
      </trkpt>
      <trkpt lat="47.2685" lon="7.79793">
        <ele>416.4</ele>
        <time>2022-10-01T13:59:52Z</time>
      </trkpt>
      <trkpt lat="47.26853" lon="7.79796">
        <ele>416.6</ele>
        <time>2022-10-01T13:59:53Z</time>
      </trkpt>
      <trkpt lat="47.26854" lon="7.79797">
        <ele>416.7</ele>
        <time>2022-10-01T13:59:54Z</time>
      </trkpt>
      <trkpt lat="47.26857" lon="7.798">
        <ele>417</ele>
        <time>2022-10-01T13:59:55Z</time>
      </trkpt>
      <trkpt lat="47.26858" lon="7.79801">
        <ele>417</ele>
        <time>2022-10-01T13:59:56Z</time>
      </trkpt>
      <trkpt lat="47.26861" lon="7.79803">
        <ele>417.2</ele>
        <time>2022-10-01T13:59:57Z</time>
      </trkpt>
      <trkpt lat="47.26862" lon="7.79803">
        <ele>417.3</ele>
        <time>2022-10-01T13:59:58Z</time>
      </trkpt>
      <trkpt lat="47.26865" lon="7.79805">
        <ele>417.5</ele>
        <time>2022-10-01T13:59:59Z</time>
      </trkpt>
      <trkpt lat="47.26867" lon="7.79806">
        <ele>417.6</ele>
        <time>2022-10-01T14:00:00Z</time>
      </trkpt>
      <trkpt lat="47.26869" lon="7.79808">
        <ele>417.8</ele>
        <time>2022-10-01T14:00:01Z</time>
      </trkpt>
      <trkpt lat="47.2687" lon="7.79809">
        <ele>417.9</ele>
        <time>2022-10-01T14:00:02Z</time>
      </trkpt>
      <trkpt lat="47.26872" lon="7.7981">
        <ele>417.9</ele>
        <time>2022-10-01T14:00:03Z</time>
      </trkpt>
      <trkpt lat="47.26873" lon="7.79811">
        <ele>418</ele>
        <time>2022-10-01T14:00:04Z</time>
      </trkpt>
      <trkpt lat="47.26875" lon="7.79814">
        <ele>418.2</ele>
        <time>2022-10-01T14:00:05Z</time>
      </trkpt>
      <trkpt lat="47.26875" lon="7.79815">
        <ele>418.3</ele>
        <time>2022-10-01T14:00:06Z</time>
      </trkpt>
      <trkpt lat="47.26877" lon="7.79817">
        <ele>418.3</ele>
        <time>2022-10-01T14:00:07Z</time>
      </trkpt>
      <trkpt lat="47.26878" lon="7.79818">
        <ele>418.4</ele>
        <time>2022-10-01T14:00:08Z</time>
      </trkpt>
      <trkpt lat="47.2688" lon="7.7982">
        <ele>418.5</ele>
        <time>2022-10-01T14:00:09Z</time>
      </trkpt>
      <trkpt lat="47.26881" lon="7.79821">
        <ele>418.6</ele>
        <time>2022-10-01T14:00:10Z</time>
      </trkpt>
      <trkpt lat="47.26882" lon="7.79823">
        <ele>418.7</ele>
        <time>2022-10-01T14:00:11Z</time>
      </trkpt>
      <trkpt lat="47.26882" lon="7.79824">
        <ele>418.7</ele>
        <time>2022-10-01T14:00:12Z</time>
      </trkpt>
      <trkpt lat="47.26884" lon="7.79827">
        <ele>418.8</ele>
        <time>2022-10-01T14:00:13Z</time>
      </trkpt>
      <trkpt lat="47.26886" lon="7.79831">
        <ele>419</ele>
        <time>2022-10-01T14:00:14Z</time>
      </trkpt>
      <trkpt lat="47.26887" lon="7.79833">
        <ele>419</ele>
        <time>2022-10-01T14:00:15Z</time>
      </trkpt>
      <trkpt lat="47.26888" lon="7.79837">
        <ele>419.1</ele>
        <time>2022-10-01T14:00:16Z</time>
      </trkpt>
      <trkpt lat="47.2689" lon="7.79842">
        <ele>419.2</ele>
        <time>2022-10-01T14:00:17Z</time>
      </trkpt>
      <trkpt lat="47.26891" lon="7.79845">
        <ele>419.3</ele>
        <time>2022-10-01T14:00:18Z</time>
      </trkpt>
      <trkpt lat="47.26894" lon="7.79849">
        <ele>419.4</ele>
        <time>2022-10-01T14:00:19Z</time>
      </trkpt>
      <trkpt lat="47.26895" lon="7.79854">
        <ele>419.5</ele>
        <time>2022-10-01T14:00:20Z</time>
      </trkpt>
      <trkpt lat="47.26897" lon="7.79859">
        <ele>419.6</ele>
        <time>2022-10-01T14:00:21Z</time>
      </trkpt>
      <trkpt lat="47.26898" lon="7.79863">
        <ele>419.7</ele>
        <time>2022-10-01T14:00:22Z</time>
      </trkpt>
      <trkpt lat="47.26901" lon="7.79869">
        <ele>419.8</ele>
        <time>2022-10-01T14:00:23Z</time>
      </trkpt>
      <trkpt lat="47.26902" lon="7.79873">
        <ele>419.9</ele>
        <time>2022-10-01T14:00:24Z</time>
      </trkpt>
      <trkpt lat="47.26903" lon="7.79878">
        <ele>419.9</ele>
        <time>2022-10-01T14:00:25Z</time>
      </trkpt>
      <trkpt lat="47.26905" lon="7.79884">
        <ele>420</ele>
        <time>2022-10-01T14:00:26Z</time>
      </trkpt>
      <trkpt lat="47.26907" lon="7.79889">
        <ele>420.1</ele>
        <time>2022-10-01T14:00:28Z</time>
      </trkpt>
      <trkpt lat="47.26909" lon="7.79893">
        <ele>420.2</ele>
        <time>2022-10-01T14:00:29Z</time>
      </trkpt>
      <trkpt lat="47.26911" lon="7.79898">
        <ele>420.3</ele>
        <time>2022-10-01T14:00:30Z</time>
      </trkpt>
      <trkpt lat="47.26913" lon="7.79903">
        <ele>420.4</ele>
        <time>2022-10-01T14:00:31Z</time>
      </trkpt>
      <trkpt lat="47.26916" lon="7.79907">
        <ele>420.4</ele>
        <time>2022-10-01T14:00:32Z</time>
      </trkpt>
      <trkpt lat="47.26918" lon="7.79911">
        <ele>420.5</ele>
        <time>2022-10-01T14:00:33Z</time>
      </trkpt>
      <trkpt lat="47.26921" lon="7.79916">
        <ele>420.6</ele>
        <time>2022-10-01T14:00:34Z</time>
      </trkpt>
      <trkpt lat="47.26922" lon="7.7992">
        <ele>420.7</ele>
        <time>2022-10-01T14:00:35Z</time>
      </trkpt>
      <trkpt lat="47.26925" lon="7.79924">
        <ele>420.8</ele>
        <time>2022-10-01T14:00:36Z</time>
      </trkpt>
      <trkpt lat="47.26927" lon="7.79929">
        <ele>420.9</ele>
        <time>2022-10-01T14:00:37Z</time>
      </trkpt>
      <trkpt lat="47.2693" lon="7.79933">
        <ele>421</ele>
        <time>2022-10-01T14:00:38Z</time>
      </trkpt>
      <trkpt lat="47.26932" lon="7.79937">
        <ele>421.1</ele>
        <time>2022-10-01T14:00:39Z</time>
      </trkpt>
      <trkpt lat="47.26934" lon="7.79941">
        <ele>421.2</ele>
        <time>2022-10-01T14:00:40Z</time>
      </trkpt>
      <trkpt lat="47.26937" lon="7.79949">
        <ele>421.4</ele>
        <time>2022-10-01T14:00:41Z</time>
      </trkpt>
      <trkpt lat="47.2694" lon="7.79954">
        <ele>421.5</ele>
        <time>2022-10-01T14:00:42Z</time>
      </trkpt>
      <trkpt lat="47.26941" lon="7.79958">
        <ele>421.6</ele>
        <time>2022-10-01T14:00:43Z</time>
      </trkpt>
      <trkpt lat="47.26943" lon="7.79962">
        <ele>421.7</ele>
        <time>2022-10-01T14:00:44Z</time>
      </trkpt>
      <trkpt lat="47.26944" lon="7.79966">
        <ele>421.8</ele>
        <time>2022-10-01T14:00:45Z</time>
      </trkpt>
      <trkpt lat="47.26946" lon="7.7997">
        <ele>422</ele>
        <time>2022-10-01T14:00:46Z</time>
      </trkpt>
      <trkpt lat="47.26947" lon="7.79974">
        <ele>422.1</ele>
        <time>2022-10-01T14:00:47Z</time>
      </trkpt>
      <trkpt lat="47.26949" lon="7.79978">
        <ele>422.2</ele>
        <time>2022-10-01T14:00:48Z</time>
      </trkpt>
      <trkpt lat="47.26951" lon="7.79982">
        <ele>422.4</ele>
        <time>2022-10-01T14:00:49Z</time>
      </trkpt>
      <trkpt lat="47.26953" lon="7.79987">
        <ele>422.6</ele>
        <time>2022-10-01T14:00:50Z</time>
      </trkpt>
      <trkpt lat="47.26953" lon="7.79989">
        <ele>422.6</ele>
        <time>2022-10-01T14:00:51Z</time>
      </trkpt>
      <trkpt lat="47.26955" lon="7.79992">
        <ele>422.8</ele>
        <time>2022-10-01T14:00:52Z</time>
      </trkpt>
      <trkpt lat="47.26958" lon="7.79995">
        <ele>422.9</ele>
        <time>2022-10-01T14:00:53Z</time>
      </trkpt>
      <trkpt lat="47.26959" lon="7.79996">
        <ele>423</ele>
        <time>2022-10-01T14:00:54Z</time>
      </trkpt>
      <trkpt lat="47.26962" lon="7.79997">
        <ele>423.1</ele>
        <time>2022-10-01T14:00:55Z</time>
      </trkpt>
      <trkpt lat="47.26963" lon="7.79997">
        <ele>423.7</ele>
        <time>2022-10-01T14:00:56Z</time>
      </trkpt>
      <trkpt lat="47.26967" lon="7.79997">
        <ele>423.8</ele>
        <time>2022-10-01T14:00:57Z</time>
      </trkpt>
      <trkpt lat="47.26968" lon="7.79996">
        <ele>423.9</ele>
        <time>2022-10-01T14:00:58Z</time>
      </trkpt>
      <trkpt lat="47.26972" lon="7.79994">
        <ele>424</ele>
        <time>2022-10-01T14:00:59Z</time>
      </trkpt>
      <trkpt lat="47.26973" lon="7.79993">
        <ele>424</ele>
        <time>2022-10-01T14:01:00Z</time>
      </trkpt>
      <trkpt lat="47.26975" lon="7.7999">
        <ele>424.1</ele>
        <time>2022-10-01T14:01:01Z</time>
      </trkpt>
      <trkpt lat="47.26976" lon="7.79989">
        <ele>424.2</ele>
        <time>2022-10-01T14:01:02Z</time>
      </trkpt>
      <trkpt lat="47.26979" lon="7.79986">
        <ele>424.3</ele>
        <time>2022-10-01T14:01:03Z</time>
      </trkpt>
      <trkpt lat="47.2698" lon="7.79985">
        <ele>424.3</ele>
        <time>2022-10-01T14:01:04Z</time>
      </trkpt>
      <trkpt lat="47.26982" lon="7.79985">
        <ele>424.4</ele>
        <time>2022-10-01T14:01:05Z</time>
      </trkpt>
      <trkpt lat="47.26983" lon="7.79984">
        <ele>425</ele>
        <time>2022-10-01T14:01:06Z</time>
      </trkpt>
      <trkpt lat="47.26986" lon="7.79984">
        <ele>425.2</ele>
        <time>2022-10-01T14:01:07Z</time>
      </trkpt>
      <trkpt lat="47.26987" lon="7.79984">
        <ele>425.2</ele>
        <time>2022-10-01T14:01:08Z</time>
      </trkpt>
      <trkpt lat="47.2699" lon="7.79986">
        <ele>425.3</ele>
        <time>2022-10-01T14:01:09Z</time>
      </trkpt>
      <trkpt lat="47.26991" lon="7.79986">
        <ele>425.4</ele>
        <time>2022-10-01T14:01:10Z</time>
      </trkpt>
      <trkpt lat="47.26993" lon="7.79989">
        <ele>425.5</ele>
        <time>2022-10-01T14:01:11Z</time>
      </trkpt>
      <trkpt lat="47.26994" lon="7.7999">
        <ele>425.6</ele>
        <time>2022-10-01T14:01:12Z</time>
      </trkpt>
      <trkpt lat="47.26995" lon="7.79991">
        <ele>425.7</ele>
        <time>2022-10-01T14:01:13Z</time>
      </trkpt>
      <trkpt lat="47.26996" lon="7.79992">
        <ele>425.7</ele>
        <time>2022-10-01T14:01:14Z</time>
      </trkpt>
      <trkpt lat="47.26998" lon="7.79994">
        <ele>425.8</ele>
        <time>2022-10-01T14:01:15Z</time>
      </trkpt>
      <trkpt lat="47.26999" lon="7.79995">
        <ele>425.9</ele>
        <time>2022-10-01T14:01:16Z</time>
      </trkpt>
      <trkpt lat="47.27002" lon="7.79997">
        <ele>426</ele>
        <time>2022-10-01T14:01:17Z</time>
      </trkpt>
      <trkpt lat="47.27002" lon="7.79998">
        <ele>426.1</ele>
        <time>2022-10-01T14:01:18Z</time>
      </trkpt>
      <trkpt lat="47.27004" lon="7.79999">
        <ele>426.2</ele>
        <time>2022-10-01T14:01:19Z</time>
      </trkpt>
      <trkpt lat="47.27005" lon="7.8">
        <ele>426.2</ele>
        <time>2022-10-01T14:01:20Z</time>
      </trkpt>
      <trkpt lat="47.27008" lon="7.80001">
        <ele>426.4</ele>
        <time>2022-10-01T14:01:21Z</time>
      </trkpt>
      <trkpt lat="47.27008" lon="7.80002">
        <ele>426.4</ele>
        <time>2022-10-01T14:01:22Z</time>
      </trkpt>
      <trkpt lat="47.27011" lon="7.80005">
        <ele>426.6</ele>
        <time>2022-10-01T14:01:23Z</time>
      </trkpt>
      <trkpt lat="47.27012" lon="7.80006">
        <ele>426.7</ele>
        <time>2022-10-01T14:01:24Z</time>
      </trkpt>
      <trkpt lat="47.27014" lon="7.80006">
        <ele>426.8</ele>
        <time>2022-10-01T14:01:25Z</time>
      </trkpt>
      <trkpt lat="47.27016" lon="7.80007">
        <ele>426.9</ele>
        <time>2022-10-01T14:01:26Z</time>
      </trkpt>
      <trkpt lat="47.27019" lon="7.80006">
        <ele>427</ele>
        <time>2022-10-01T14:01:27Z</time>
      </trkpt>
      <trkpt lat="47.2702" lon="7.80006">
        <ele>427.1</ele>
        <time>2022-10-01T14:01:28Z</time>
      </trkpt>
      <trkpt lat="47.27023" lon="7.80007">
        <ele>427.2</ele>
        <time>2022-10-01T14:01:29Z</time>
      </trkpt>
      <trkpt lat="47.27023" lon="7.80007">
        <ele>427.3</ele>
        <time>2022-10-01T14:01:30Z</time>
      </trkpt>
      <trkpt lat="47.27027" lon="7.80007">
        <ele>427.4</ele>
        <time>2022-10-01T14:01:31Z</time>
      </trkpt>
      <trkpt lat="47.27028" lon="7.80007">
        <ele>427.5</ele>
        <time>2022-10-01T14:01:32Z</time>
      </trkpt>
      <trkpt lat="47.27031" lon="7.80008">
        <ele>427.7</ele>
        <time>2022-10-01T14:01:33Z</time>
      </trkpt>
      <trkpt lat="47.27032" lon="7.80008">
        <ele>427.7</ele>
        <time>2022-10-01T14:01:34Z</time>
      </trkpt>
      <trkpt lat="47.27036" lon="7.80008">
        <ele>427.9</ele>
        <time>2022-10-01T14:01:35Z</time>
      </trkpt>
      <trkpt lat="47.27038" lon="7.80008">
        <ele>428</ele>
        <time>2022-10-01T14:01:36Z</time>
      </trkpt>
      <trkpt lat="47.27042" lon="7.80009">
        <ele>428.1</ele>
        <time>2022-10-01T14:01:37Z</time>
      </trkpt>
      <trkpt lat="47.27043" lon="7.80009">
        <ele>428.1</ele>
        <time>2022-10-01T14:01:38Z</time>
      </trkpt>
      <trkpt lat="47.27047" lon="7.80008">
        <ele>428.3</ele>
        <time>2022-10-01T14:01:39Z</time>
      </trkpt>
      <trkpt lat="47.27048" lon="7.80008">
        <ele>428.3</ele>
        <time>2022-10-01T14:01:40Z</time>
      </trkpt>
      <trkpt lat="47.27051" lon="7.80008">
        <ele>428.4</ele>
        <time>2022-10-01T14:01:41Z</time>
      </trkpt>
      <trkpt lat="47.27054" lon="7.80007">
        <ele>428.5</ele>
        <time>2022-10-01T14:01:42Z</time>
      </trkpt>
      <trkpt lat="47.27058" lon="7.80007">
        <ele>428.5</ele>
        <time>2022-10-01T14:01:43Z</time>
      </trkpt>
      <trkpt lat="47.27061" lon="7.80007">
        <ele>428.6</ele>
        <time>2022-10-01T14:01:44Z</time>
      </trkpt>
      <trkpt lat="47.27064" lon="7.80007">
        <ele>428.7</ele>
        <time>2022-10-01T14:01:45Z</time>
      </trkpt>
      <trkpt lat="47.27067" lon="7.80005">
        <ele>428.8</ele>
        <time>2022-10-01T14:01:46Z</time>
      </trkpt>
      <trkpt lat="47.2707" lon="7.80004">
        <ele>428.9</ele>
        <time>2022-10-01T14:01:47Z</time>
      </trkpt>
      <trkpt lat="47.27074" lon="7.80003">
        <ele>428.9</ele>
        <time>2022-10-01T14:01:48Z</time>
      </trkpt>
      <trkpt lat="47.27077" lon="7.80002">
        <ele>429</ele>
        <time>2022-10-01T14:01:49Z</time>
      </trkpt>
      <trkpt lat="47.2708" lon="7.80001">
        <ele>429</ele>
        <time>2022-10-01T14:01:50Z</time>
      </trkpt>
      <trkpt lat="47.27083" lon="7.8">
        <ele>429.1</ele>
        <time>2022-10-01T14:01:51Z</time>
      </trkpt>
      <trkpt lat="47.27087" lon="7.79998">
        <ele>429.1</ele>
        <time>2022-10-01T14:01:52Z</time>
      </trkpt>
      <trkpt lat="47.27089" lon="7.79996">
        <ele>429.2</ele>
        <time>2022-10-01T14:01:53Z</time>
      </trkpt>
      <trkpt lat="47.27092" lon="7.79994">
        <ele>429.2</ele>
        <time>2022-10-01T14:01:54Z</time>
      </trkpt>
      <trkpt lat="47.27096" lon="7.79992">
        <ele>429.3</ele>
        <time>2022-10-01T14:01:55Z</time>
      </trkpt>
      <trkpt lat="47.27099" lon="7.7999">
        <ele>429.3</ele>
        <time>2022-10-01T14:01:56Z</time>
      </trkpt>
      <trkpt lat="47.27102" lon="7.79988">
        <ele>429.3</ele>
        <time>2022-10-01T14:01:57Z</time>
      </trkpt>
      <trkpt lat="47.27105" lon="7.79986">
        <ele>429.4</ele>
        <time>2022-10-01T14:01:58Z</time>
      </trkpt>
      <trkpt lat="47.27109" lon="7.79985">
        <ele>429.4</ele>
        <time>2022-10-01T14:01:59Z</time>
      </trkpt>
      <trkpt lat="47.27112" lon="7.79982">
        <ele>429.4</ele>
        <time>2022-10-01T14:02:00Z</time>
      </trkpt>
      <trkpt lat="47.27116" lon="7.7998">
        <ele>429.5</ele>
        <time>2022-10-01T14:02:01Z</time>
      </trkpt>
      <trkpt lat="47.27119" lon="7.79978">
        <ele>429.5</ele>
        <time>2022-10-01T14:02:02Z</time>
      </trkpt>
      <trkpt lat="47.27122" lon="7.79976">
        <ele>429.5</ele>
        <time>2022-10-01T14:02:03Z</time>
      </trkpt>
      <trkpt lat="47.27125" lon="7.79974">
        <ele>429.5</ele>
        <time>2022-10-01T14:02:04Z</time>
      </trkpt>
      <trkpt lat="47.27129" lon="7.79972">
        <ele>429.6</ele>
        <time>2022-10-01T14:02:05Z</time>
      </trkpt>
      <trkpt lat="47.27132" lon="7.7997">
        <ele>429.6</ele>
        <time>2022-10-01T14:02:06Z</time>
      </trkpt>
      <trkpt lat="47.27136" lon="7.79968">
        <ele>429.6</ele>
        <time>2022-10-01T14:02:07Z</time>
      </trkpt>
      <trkpt lat="47.27139" lon="7.79966">
        <ele>429.6</ele>
        <time>2022-10-01T14:02:08Z</time>
      </trkpt>
      <trkpt lat="47.27141" lon="7.79963">
        <ele>429.7</ele>
        <time>2022-10-01T14:02:09Z</time>
      </trkpt>
      <trkpt lat="47.27144" lon="7.7996">
        <ele>429.7</ele>
        <time>2022-10-01T14:02:10Z</time>
      </trkpt>
      <trkpt lat="47.27148" lon="7.79958">
        <ele>429.7</ele>
        <time>2022-10-01T14:02:11Z</time>
      </trkpt>
      <trkpt lat="47.27151" lon="7.79954">
        <ele>429.7</ele>
        <time>2022-10-01T14:02:12Z</time>
      </trkpt>
      <trkpt lat="47.27155" lon="7.79951">
        <ele>429.7</ele>
        <time>2022-10-01T14:02:13Z</time>
      </trkpt>
      <trkpt lat="47.27158" lon="7.79948">
        <ele>429.7</ele>
        <time>2022-10-01T14:02:14Z</time>
      </trkpt>
      <trkpt lat="47.27161" lon="7.79945">
        <ele>429.7</ele>
        <time>2022-10-01T14:02:15Z</time>
      </trkpt>
      <trkpt lat="47.27164" lon="7.79939">
        <ele>429.7</ele>
        <time>2022-10-01T14:02:16Z</time>
      </trkpt>
      <trkpt lat="47.27168" lon="7.79936">
        <ele>429.7</ele>
        <time>2022-10-01T14:02:17Z</time>
      </trkpt>
      <trkpt lat="47.27172" lon="7.79933">
        <ele>429.7</ele>
        <time>2022-10-01T14:02:18Z</time>
      </trkpt>
      <trkpt lat="47.27175" lon="7.79928">
        <ele>429.6</ele>
        <time>2022-10-01T14:02:19Z</time>
      </trkpt>
      <trkpt lat="47.27179" lon="7.79924">
        <ele>429.6</ele>
        <time>2022-10-01T14:02:20Z</time>
      </trkpt>
      <trkpt lat="47.27182" lon="7.79919">
        <ele>429.6</ele>
        <time>2022-10-01T14:02:21Z</time>
      </trkpt>
      <trkpt lat="47.27186" lon="7.79914">
        <ele>429.5</ele>
        <time>2022-10-01T14:02:22Z</time>
      </trkpt>
      <trkpt lat="47.27189" lon="7.79909">
        <ele>429.5</ele>
        <time>2022-10-01T14:02:23Z</time>
      </trkpt>
      <trkpt lat="47.27192" lon="7.79904">
        <ele>429.4</ele>
        <time>2022-10-01T14:02:24Z</time>
      </trkpt>
      <trkpt lat="47.27196" lon="7.79899">
        <ele>429.3</ele>
        <time>2022-10-01T14:02:25Z</time>
      </trkpt>
      <trkpt lat="47.27199" lon="7.79893">
        <ele>429.2</ele>
        <time>2022-10-01T14:02:26Z</time>
      </trkpt>
      <trkpt lat="47.27202" lon="7.79888">
        <ele>429.1</ele>
        <time>2022-10-01T14:02:27Z</time>
      </trkpt>
      <trkpt lat="47.27205" lon="7.79882">
        <ele>429</ele>
        <time>2022-10-01T14:02:28Z</time>
      </trkpt>
      <trkpt lat="47.27208" lon="7.79876">
        <ele>428.8</ele>
        <time>2022-10-01T14:02:29Z</time>
      </trkpt>
      <trkpt lat="47.27211" lon="7.79869">
        <ele>428.7</ele>
        <time>2022-10-01T14:02:30Z</time>
      </trkpt>
      <trkpt lat="47.27214" lon="7.79863">
        <ele>428.6</ele>
        <time>2022-10-01T14:02:31Z</time>
      </trkpt>
      <trkpt lat="47.27217" lon="7.79856">
        <ele>428.4</ele>
        <time>2022-10-01T14:02:32Z</time>
      </trkpt>
      <trkpt lat="47.27219" lon="7.7985">
        <ele>428.3</ele>
        <time>2022-10-01T14:02:34Z</time>
      </trkpt>
      <trkpt lat="47.27222" lon="7.79844">
        <ele>428.1</ele>
        <time>2022-10-01T14:02:35Z</time>
      </trkpt>
      <trkpt lat="47.27225" lon="7.79838">
        <ele>428</ele>
        <time>2022-10-01T14:02:36Z</time>
      </trkpt>
      <trkpt lat="47.27226" lon="7.79832">
        <ele>427.8</ele>
        <time>2022-10-01T14:02:37Z</time>
      </trkpt>
      <trkpt lat="47.27227" lon="7.79825">
        <ele>427.7</ele>
        <time>2022-10-01T14:02:38Z</time>
      </trkpt>
      <trkpt lat="47.27231" lon="7.79812">
        <ele>427.4</ele>
        <time>2022-10-01T14:02:39Z</time>
      </trkpt>
      <trkpt lat="47.27232" lon="7.79805">
        <ele>427.2</ele>
        <time>2022-10-01T14:02:40Z</time>
      </trkpt>
      <trkpt lat="47.27234" lon="7.79798">
        <ele>427</ele>
        <time>2022-10-01T14:02:41Z</time>
      </trkpt>
      <trkpt lat="47.27236" lon="7.7979">
        <ele>426.8</ele>
        <time>2022-10-01T14:02:42Z</time>
      </trkpt>
      <trkpt lat="47.27238" lon="7.79783">
        <ele>426.7</ele>
        <time>2022-10-01T14:02:43Z</time>
      </trkpt>
      <trkpt lat="47.27239" lon="7.79777">
        <ele>426.5</ele>
        <time>2022-10-01T14:02:44Z</time>
      </trkpt>
      <trkpt lat="47.27242" lon="7.79771">
        <ele>426.4</ele>
        <time>2022-10-01T14:02:45Z</time>
      </trkpt>
      <trkpt lat="47.27244" lon="7.79765">
        <ele>426.2</ele>
        <time>2022-10-01T14:02:46Z</time>
      </trkpt>
      <trkpt lat="47.27248" lon="7.79759">
        <ele>426.1</ele>
        <time>2022-10-01T14:02:47Z</time>
      </trkpt>
      <trkpt lat="47.27251" lon="7.79752">
        <ele>426</ele>
        <time>2022-10-01T14:02:48Z</time>
      </trkpt>
      <trkpt lat="47.27256" lon="7.79747">
        <ele>426</ele>
        <time>2022-10-01T14:02:49Z</time>
      </trkpt>
      <trkpt lat="47.2726" lon="7.79743">
        <ele>425.9</ele>
        <time>2022-10-01T14:02:50Z</time>
      </trkpt>
      <trkpt lat="47.27265" lon="7.7974">
        <ele>425.8</ele>
        <time>2022-10-01T14:02:51Z</time>
      </trkpt>
      <trkpt lat="47.27271" lon="7.79736">
        <ele>425.7</ele>
        <time>2022-10-01T14:02:52Z</time>
      </trkpt>
      <trkpt lat="47.27276" lon="7.79734">
        <ele>425.6</ele>
        <time>2022-10-01T14:02:53Z</time>
      </trkpt>
      <trkpt lat="47.27281" lon="7.79733">
        <ele>425.6</ele>
        <time>2022-10-01T14:02:54Z</time>
      </trkpt>
      <trkpt lat="47.27286" lon="7.79733">
        <ele>425.5</ele>
        <time>2022-10-01T14:02:55Z</time>
      </trkpt>
      <trkpt lat="47.27291" lon="7.79733">
        <ele>425.4</ele>
        <time>2022-10-01T14:02:56Z</time>
      </trkpt>
      <trkpt lat="47.27296" lon="7.79734">
        <ele>425.4</ele>
        <time>2022-10-01T14:02:57Z</time>
      </trkpt>
      <trkpt lat="47.27301" lon="7.79734">
        <ele>425.3</ele>
        <time>2022-10-01T14:02:58Z</time>
      </trkpt>
      <trkpt lat="47.27306" lon="7.79734">
        <ele>425.3</ele>
        <time>2022-10-01T14:02:59Z</time>
      </trkpt>
      <trkpt lat="47.27311" lon="7.79734">
        <ele>425.2</ele>
        <time>2022-10-01T14:03:00Z</time>
      </trkpt>
      <trkpt lat="47.27315" lon="7.79734">
        <ele>425.2</ele>
        <time>2022-10-01T14:03:01Z</time>
      </trkpt>
      <trkpt lat="47.2732" lon="7.79734">
        <ele>425.2</ele>
        <time>2022-10-01T14:03:02Z</time>
      </trkpt>
      <trkpt lat="47.27325" lon="7.79735">
        <ele>425.2</ele>
        <time>2022-10-01T14:03:03Z</time>
      </trkpt>
      <trkpt lat="47.27329" lon="7.79735">
        <ele>425.2</ele>
        <time>2022-10-01T14:03:04Z</time>
      </trkpt>
      <trkpt lat="47.27334" lon="7.79735">
        <ele>425.2</ele>
        <time>2022-10-01T14:03:05Z</time>
      </trkpt>
      <trkpt lat="47.27338" lon="7.79735">
        <ele>425.2</ele>
        <time>2022-10-01T14:03:06Z</time>
      </trkpt>
      <trkpt lat="47.27343" lon="7.79735">
        <ele>425.2</ele>
        <time>2022-10-01T14:03:07Z</time>
      </trkpt>
      <trkpt lat="47.27347" lon="7.79735">
        <ele>425.2</ele>
        <time>2022-10-01T14:03:08Z</time>
      </trkpt>
      <trkpt lat="47.27352" lon="7.79733">
        <ele>425.3</ele>
        <time>2022-10-01T14:03:09Z</time>
      </trkpt>
      <trkpt lat="47.27357" lon="7.79732">
        <ele>425.3</ele>
        <time>2022-10-01T14:03:10Z</time>
      </trkpt>
      <trkpt lat="47.27362" lon="7.79731">
        <ele>425.4</ele>
        <time>2022-10-01T14:03:11Z</time>
      </trkpt>
      <trkpt lat="47.27366" lon="7.7973">
        <ele>425.4</ele>
        <time>2022-10-01T14:03:12Z</time>
      </trkpt>
      <trkpt lat="47.27371" lon="7.79728">
        <ele>425.5</ele>
        <time>2022-10-01T14:03:13Z</time>
      </trkpt>
      <trkpt lat="47.27375" lon="7.79726">
        <ele>425.6</ele>
        <time>2022-10-01T14:03:14Z</time>
      </trkpt>
      <trkpt lat="47.2738" lon="7.79724">
        <ele>425.6</ele>
        <time>2022-10-01T14:03:15Z</time>
      </trkpt>
      <trkpt lat="47.27384" lon="7.79722">
        <ele>425.7</ele>
        <time>2022-10-01T14:03:16Z</time>
      </trkpt>
      <trkpt lat="47.27388" lon="7.79721">
        <ele>425.8</ele>
        <time>2022-10-01T14:03:17Z</time>
      </trkpt>
      <trkpt lat="47.27392" lon="7.79719">
        <ele>425.9</ele>
        <time>2022-10-01T14:03:18Z</time>
      </trkpt>
      <trkpt lat="47.27397" lon="7.79718">
        <ele>426</ele>
        <time>2022-10-01T14:03:19Z</time>
      </trkpt>
      <trkpt lat="47.27401" lon="7.79717">
        <ele>426.1</ele>
        <time>2022-10-01T14:03:20Z</time>
      </trkpt>
      <trkpt lat="47.27405" lon="7.79715">
        <ele>426.3</ele>
        <time>2022-10-01T14:03:21Z</time>
      </trkpt>
      <trkpt lat="47.27409" lon="7.79714">
        <ele>426.3</ele>
        <time>2022-10-01T14:03:22Z</time>
      </trkpt>
      <trkpt lat="47.27412" lon="7.79713">
        <ele>426.4</ele>
        <time>2022-10-01T14:03:23Z</time>
      </trkpt>
      <trkpt lat="47.27416" lon="7.79712">
        <ele>426.4</ele>
        <time>2022-10-01T14:03:24Z</time>
      </trkpt>
      <trkpt lat="47.2742" lon="7.79711">
        <ele>426.5</ele>
        <time>2022-10-01T14:03:25Z</time>
      </trkpt>
      <trkpt lat="47.27422" lon="7.79712">
        <ele>426.5</ele>
        <time>2022-10-01T14:03:26Z</time>
      </trkpt>
      <trkpt lat="47.27426" lon="7.79712">
        <ele>426.6</ele>
        <time>2022-10-01T14:03:27Z</time>
      </trkpt>
      <trkpt lat="47.2743" lon="7.79712">
        <ele>426.7</ele>
        <time>2022-10-01T14:03:28Z</time>
      </trkpt>
      <trkpt lat="47.27433" lon="7.79712">
        <ele>426.8</ele>
        <time>2022-10-01T14:03:29Z</time>
      </trkpt>
      <trkpt lat="47.27437" lon="7.79712">
        <ele>426.9</ele>
        <time>2022-10-01T14:03:30Z</time>
      </trkpt>
      <trkpt lat="47.2744" lon="7.79712">
        <ele>426.9</ele>
        <time>2022-10-01T14:03:31Z</time>
      </trkpt>
      <trkpt lat="47.27444" lon="7.79712">
        <ele>427</ele>
        <time>2022-10-01T14:03:32Z</time>
      </trkpt>
      <trkpt lat="47.27448" lon="7.79713">
        <ele>427.1</ele>
        <time>2022-10-01T14:03:33Z</time>
      </trkpt>
      <trkpt lat="47.27451" lon="7.79714">
        <ele>427.1</ele>
        <time>2022-10-01T14:03:34Z</time>
      </trkpt>
      <trkpt lat="47.27455" lon="7.79715">
        <ele>427.2</ele>
        <time>2022-10-01T14:03:35Z</time>
      </trkpt>
      <trkpt lat="47.27456" lon="7.79715">
        <ele>427.3</ele>
        <time>2022-10-01T14:03:36Z</time>
      </trkpt>
      <trkpt lat="47.27461" lon="7.79716">
        <ele>427.3</ele>
        <time>2022-10-01T14:03:37Z</time>
      </trkpt>
      <trkpt lat="47.27464" lon="7.79717">
        <ele>427.4</ele>
        <time>2022-10-01T14:03:38Z</time>
      </trkpt>
      <trkpt lat="47.27468" lon="7.79718">
        <ele>427.5</ele>
        <time>2022-10-01T14:03:39Z</time>
      </trkpt>
      <trkpt lat="47.27472" lon="7.7972">
        <ele>427.5</ele>
        <time>2022-10-01T14:03:40Z</time>
      </trkpt>
      <trkpt lat="47.27476" lon="7.79721">
        <ele>427.6</ele>
        <time>2022-10-01T14:03:41Z</time>
      </trkpt>
      <trkpt lat="47.27481" lon="7.79723">
        <ele>427.6</ele>
        <time>2022-10-01T14:03:42Z</time>
      </trkpt>
      <trkpt lat="47.27485" lon="7.79725">
        <ele>427.7</ele>
        <time>2022-10-01T14:03:43Z</time>
      </trkpt>
      <trkpt lat="47.27489" lon="7.79727">
        <ele>427.7</ele>
        <time>2022-10-01T14:03:44Z</time>
      </trkpt>
      <trkpt lat="47.27494" lon="7.79728">
        <ele>427.8</ele>
        <time>2022-10-01T14:03:45Z</time>
      </trkpt>
      <trkpt lat="47.27498" lon="7.7973">
        <ele>427.8</ele>
        <time>2022-10-01T14:03:46Z</time>
      </trkpt>
      <trkpt lat="47.27502" lon="7.79732">
        <ele>427.9</ele>
        <time>2022-10-01T14:03:47Z</time>
      </trkpt>
      <trkpt lat="47.27506" lon="7.79734">
        <ele>427.9</ele>
        <time>2022-10-01T14:03:48Z</time>
      </trkpt>
      <trkpt lat="47.2751" lon="7.79736">
        <ele>428</ele>
        <time>2022-10-01T14:03:49Z</time>
      </trkpt>
      <trkpt lat="47.27514" lon="7.79738">
        <ele>428</ele>
        <time>2022-10-01T14:03:50Z</time>
      </trkpt>
      <trkpt lat="47.27519" lon="7.7974">
        <ele>428.1</ele>
        <time>2022-10-01T14:03:51Z</time>
      </trkpt>
      <trkpt lat="47.27523" lon="7.79743">
        <ele>428.1</ele>
        <time>2022-10-01T14:03:52Z</time>
      </trkpt>
      <trkpt lat="47.27527" lon="7.79746">
        <ele>428.2</ele>
        <time>2022-10-01T14:03:53Z</time>
      </trkpt>
      <trkpt lat="47.2753" lon="7.79747">
        <ele>428.2</ele>
        <time>2022-10-01T14:03:54Z</time>
      </trkpt>
      <trkpt lat="47.27533" lon="7.79749">
        <ele>428.2</ele>
        <time>2022-10-01T14:03:55Z</time>
      </trkpt>
      <trkpt lat="47.27537" lon="7.7975">
        <ele>428.3</ele>
        <time>2022-10-01T14:03:56Z</time>
      </trkpt>
      <trkpt lat="47.27542" lon="7.79752">
        <ele>428.3</ele>
        <time>2022-10-01T14:03:57Z</time>
      </trkpt>
      <trkpt lat="47.27547" lon="7.79755">
        <ele>428.4</ele>
        <time>2022-10-01T14:03:58Z</time>
      </trkpt>
      <trkpt lat="47.2755" lon="7.79757">
        <ele>428.4</ele>
        <time>2022-10-01T14:03:59Z</time>
      </trkpt>
      <trkpt lat="47.27555" lon="7.79758">
        <ele>428.5</ele>
        <time>2022-10-01T14:04:00Z</time>
      </trkpt>
      <trkpt lat="47.27558" lon="7.7976">
        <ele>428.5</ele>
        <time>2022-10-01T14:04:01Z</time>
      </trkpt>
      <trkpt lat="47.2756" lon="7.79762">
        <ele>428.6</ele>
        <time>2022-10-01T14:04:02Z</time>
      </trkpt>
      <trkpt lat="47.27563" lon="7.79766">
        <ele>428.6</ele>
        <time>2022-10-01T14:04:03Z</time>
      </trkpt>
      <trkpt lat="47.27563" lon="7.79767">
        <ele>428.6</ele>
        <time>2022-10-01T14:04:04Z</time>
      </trkpt>
      <trkpt lat="47.27565" lon="7.79769">
        <ele>428.8</ele>
        <time>2022-10-01T14:04:05Z</time>
      </trkpt>
      <trkpt lat="47.27566" lon="7.79771">
        <ele>428.8</ele>
        <time>2022-10-01T14:04:06Z</time>
      </trkpt>
      <trkpt lat="47.27568" lon="7.79774">
        <ele>428.9</ele>
        <time>2022-10-01T14:04:07Z</time>
      </trkpt>
      <trkpt lat="47.2757" lon="7.79779">
        <ele>429</ele>
        <time>2022-10-01T14:04:08Z</time>
      </trkpt>
      <trkpt lat="47.27571" lon="7.79782">
        <ele>429.1</ele>
        <time>2022-10-01T14:04:09Z</time>
      </trkpt>
      <trkpt lat="47.27573" lon="7.79787">
        <ele>429.2</ele>
        <time>2022-10-01T14:04:10Z</time>
      </trkpt>
      <trkpt lat="47.27573" lon="7.79791">
        <ele>429.3</ele>
        <time>2022-10-01T14:04:11Z</time>
      </trkpt>
      <trkpt lat="47.27574" lon="7.79795">
        <ele>429.3</ele>
        <time>2022-10-01T14:04:12Z</time>
      </trkpt>
      <trkpt lat="47.27575" lon="7.79799">
        <ele>429.4</ele>
        <time>2022-10-01T14:04:13Z</time>
      </trkpt>
      <trkpt lat="47.27577" lon="7.79803">
        <ele>429.5</ele>
        <time>2022-10-01T14:04:14Z</time>
      </trkpt>
      <trkpt lat="47.27577" lon="7.79805">
        <ele>429.5</ele>
        <time>2022-10-01T14:04:15Z</time>
      </trkpt>
      <trkpt lat="47.27578" lon="7.7981">
        <ele>429.5</ele>
        <time>2022-10-01T14:04:16Z</time>
      </trkpt>
      <trkpt lat="47.27578" lon="7.79811">
        <ele>429.6</ele>
        <time>2022-10-01T14:04:17Z</time>
      </trkpt>
      <trkpt lat="47.27579" lon="7.79814">
        <ele>429.6</ele>
        <time>2022-10-01T14:04:18Z</time>
      </trkpt>
      <trkpt lat="47.2758" lon="7.79815">
        <ele>429.6</ele>
        <time>2022-10-01T14:04:19Z</time>
      </trkpt>
      <trkpt lat="47.27581" lon="7.79819">
        <ele>429.6</ele>
        <time>2022-10-01T14:04:20Z</time>
      </trkpt>
      <trkpt lat="47.27582" lon="7.79821">
        <ele>429.7</ele>
        <time>2022-10-01T14:04:21Z</time>
      </trkpt>
      <trkpt lat="47.27583" lon="7.79827">
        <ele>429.7</ele>
        <time>2022-10-01T14:04:22Z</time>
      </trkpt>
      <trkpt lat="47.27584" lon="7.79829">
        <ele>429.7</ele>
        <time>2022-10-01T14:04:23Z</time>
      </trkpt>
      <trkpt lat="47.27585" lon="7.79834">
        <ele>429.7</ele>
        <time>2022-10-01T14:04:24Z</time>
      </trkpt>
      <trkpt lat="47.27586" lon="7.79837">
        <ele>429.8</ele>
        <time>2022-10-01T14:04:25Z</time>
      </trkpt>
      <trkpt lat="47.27589" lon="7.79842">
        <ele>429.8</ele>
        <time>2022-10-01T14:04:26Z</time>
      </trkpt>
      <trkpt lat="47.27591" lon="7.79846">
        <ele>429.8</ele>
        <time>2022-10-01T14:04:27Z</time>
      </trkpt>
      <trkpt lat="47.27592" lon="7.79851">
        <ele>429.9</ele>
        <time>2022-10-01T14:04:28Z</time>
      </trkpt>
      <trkpt lat="47.27594" lon="7.79856">
        <ele>429.9</ele>
        <time>2022-10-01T14:04:29Z</time>
      </trkpt>
      <trkpt lat="47.27595" lon="7.79859">
        <ele>429.9</ele>
        <time>2022-10-01T14:04:30Z</time>
      </trkpt>
      <trkpt lat="47.27597" lon="7.79864">
        <ele>429.9</ele>
        <time>2022-10-01T14:04:31Z</time>
      </trkpt>
      <trkpt lat="47.27599" lon="7.79868">
        <ele>429.9</ele>
        <time>2022-10-01T14:04:32Z</time>
      </trkpt>
      <trkpt lat="47.276" lon="7.79873">
        <ele>429.9</ele>
        <time>2022-10-01T14:04:33Z</time>
      </trkpt>
      <trkpt lat="47.27603" lon="7.79879">
        <ele>429.9</ele>
        <time>2022-10-01T14:04:34Z</time>
      </trkpt>
      <trkpt lat="47.27605" lon="7.79882">
        <ele>430</ele>
        <time>2022-10-01T14:04:35Z</time>
      </trkpt>
      <trkpt lat="47.27607" lon="7.79886">
        <ele>430</ele>
        <time>2022-10-01T14:04:36Z</time>
      </trkpt>
      <trkpt lat="47.27609" lon="7.79891">
        <ele>430</ele>
        <time>2022-10-01T14:04:37Z</time>
      </trkpt>
      <trkpt lat="47.27611" lon="7.79896">
        <ele>430</ele>
        <time>2022-10-01T14:04:38Z</time>
      </trkpt>
      <trkpt lat="47.27614" lon="7.79901">
        <ele>430</ele>
        <time>2022-10-01T14:04:39Z</time>
      </trkpt>
      <trkpt lat="47.27616" lon="7.79905">
        <ele>430</ele>
        <time>2022-10-01T14:04:40Z</time>
      </trkpt>
      <trkpt lat="47.27618" lon="7.7991">
        <ele>430</ele>
        <time>2022-10-01T14:04:41Z</time>
      </trkpt>
      <trkpt lat="47.27621" lon="7.79914">
        <ele>430</ele>
        <time>2022-10-01T14:04:42Z</time>
      </trkpt>
      <trkpt lat="47.27624" lon="7.79919">
        <ele>430</ele>
        <time>2022-10-01T14:04:43Z</time>
      </trkpt>
      <trkpt lat="47.27625" lon="7.79922">
        <ele>430</ele>
        <time>2022-10-01T14:04:44Z</time>
      </trkpt>
      <trkpt lat="47.27628" lon="7.79928">
        <ele>430.1</ele>
        <time>2022-10-01T14:04:45Z</time>
      </trkpt>
      <trkpt lat="47.27631" lon="7.79933">
        <ele>430.1</ele>
        <time>2022-10-01T14:04:46Z</time>
      </trkpt>
      <trkpt lat="47.27633" lon="7.79938">
        <ele>430.1</ele>
        <time>2022-10-01T14:04:47Z</time>
      </trkpt>
      <trkpt lat="47.27636" lon="7.79942">
        <ele>430.1</ele>
        <time>2022-10-01T14:04:48Z</time>
      </trkpt>
      <trkpt lat="47.27639" lon="7.79947">
        <ele>430.1</ele>
        <time>2022-10-01T14:04:49Z</time>
      </trkpt>
      <trkpt lat="47.2764" lon="7.7995">
        <ele>430.1</ele>
        <time>2022-10-01T14:04:50Z</time>
      </trkpt>
      <trkpt lat="47.27642" lon="7.79956">
        <ele>430.1</ele>
        <time>2022-10-01T14:04:51Z</time>
      </trkpt>
      <trkpt lat="47.27645" lon="7.7996">
        <ele>430.1</ele>
        <time>2022-10-01T14:04:52Z</time>
      </trkpt>
      <trkpt lat="47.27647" lon="7.79964">
        <ele>430.1</ele>
        <time>2022-10-01T14:04:53Z</time>
      </trkpt>
      <trkpt lat="47.27649" lon="7.79969">
        <ele>430.1</ele>
        <time>2022-10-01T14:04:54Z</time>
      </trkpt>
      <trkpt lat="47.27651" lon="7.79974">
        <ele>430.1</ele>
        <time>2022-10-01T14:04:55Z</time>
      </trkpt>
      <trkpt lat="47.27652" lon="7.79979">
        <ele>430.1</ele>
        <time>2022-10-01T14:04:56Z</time>
      </trkpt>
      <trkpt lat="47.27654" lon="7.79984">
        <ele>430.1</ele>
        <time>2022-10-01T14:04:57Z</time>
      </trkpt>
      <trkpt lat="47.27655" lon="7.79989">
        <ele>430.1</ele>
        <time>2022-10-01T14:04:58Z</time>
      </trkpt>
      <trkpt lat="47.27657" lon="7.79995">
        <ele>430.1</ele>
        <time>2022-10-01T14:04:59Z</time>
      </trkpt>
      <trkpt lat="47.27658" lon="7.79998">
        <ele>430.1</ele>
        <time>2022-10-01T14:05:00Z</time>
      </trkpt>
      <trkpt lat="47.27659" lon="7.80002">
        <ele>430.1</ele>
        <time>2022-10-01T14:05:01Z</time>
      </trkpt>
      <trkpt lat="47.27661" lon="7.80006">
        <ele>430.1</ele>
        <time>2022-10-01T14:05:02Z</time>
      </trkpt>
      <trkpt lat="47.27663" lon="7.8001">
        <ele>430.1</ele>
        <time>2022-10-01T14:05:03Z</time>
      </trkpt>
      <trkpt lat="47.27663" lon="7.80014">
        <ele>430.1</ele>
        <time>2022-10-01T14:05:04Z</time>
      </trkpt>
      <trkpt lat="47.27666" lon="7.80018">
        <ele>430.1</ele>
        <time>2022-10-01T14:05:05Z</time>
      </trkpt>
      <trkpt lat="47.27669" lon="7.80024">
        <ele>430.1</ele>
        <time>2022-10-01T14:05:06Z</time>
      </trkpt>
      <trkpt lat="47.27671" lon="7.80029">
        <ele>430.1</ele>
        <time>2022-10-01T14:05:07Z</time>
      </trkpt>
      <trkpt lat="47.27672" lon="7.80033">
        <ele>430.2</ele>
        <time>2022-10-01T14:05:08Z</time>
      </trkpt>
      <trkpt lat="47.27674" lon="7.80036">
        <ele>430.2</ele>
        <time>2022-10-01T14:05:09Z</time>
      </trkpt>
      <trkpt lat="47.27677" lon="7.8004">
        <ele>430.2</ele>
        <time>2022-10-01T14:05:10Z</time>
      </trkpt>
      <trkpt lat="47.27679" lon="7.80043">
        <ele>430.2</ele>
        <time>2022-10-01T14:05:11Z</time>
      </trkpt>
      <trkpt lat="47.27681" lon="7.80047">
        <ele>430.2</ele>
        <time>2022-10-01T14:05:12Z</time>
      </trkpt>
      <trkpt lat="47.27683" lon="7.80053">
        <ele>430.2</ele>
        <time>2022-10-01T14:05:13Z</time>
      </trkpt>
      <trkpt lat="47.27685" lon="7.80055">
        <ele>430.2</ele>
        <time>2022-10-01T14:05:14Z</time>
      </trkpt>
      <trkpt lat="47.27687" lon="7.80059">
        <ele>430.1</ele>
        <time>2022-10-01T14:05:15Z</time>
      </trkpt>
      <trkpt lat="47.27688" lon="7.80062">
        <ele>430.1</ele>
        <time>2022-10-01T14:05:16Z</time>
      </trkpt>
      <trkpt lat="47.27691" lon="7.80066">
        <ele>430.1</ele>
        <time>2022-10-01T14:05:17Z</time>
      </trkpt>
      <trkpt lat="47.27692" lon="7.80071">
        <ele>430.1</ele>
        <time>2022-10-01T14:05:18Z</time>
      </trkpt>
      <trkpt lat="47.27695" lon="7.80075">
        <ele>430.1</ele>
        <time>2022-10-01T14:05:19Z</time>
      </trkpt>
      <trkpt lat="47.27696" lon="7.8008">
        <ele>430.1</ele>
        <time>2022-10-01T14:05:20Z</time>
      </trkpt>
      <trkpt lat="47.27698" lon="7.80086">
        <ele>430.1</ele>
        <time>2022-10-01T14:05:21Z</time>
      </trkpt>
      <trkpt lat="47.277" lon="7.80091">
        <ele>430.1</ele>
        <time>2022-10-01T14:05:22Z</time>
      </trkpt>
      <trkpt lat="47.27702" lon="7.80096">
        <ele>430.1</ele>
        <time>2022-10-01T14:05:23Z</time>
      </trkpt>
      <trkpt lat="47.27704" lon="7.80101">
        <ele>430.1</ele>
        <time>2022-10-01T14:05:24Z</time>
      </trkpt>
      <trkpt lat="47.27705" lon="7.80105">
        <ele>430.1</ele>
        <time>2022-10-01T14:05:25Z</time>
      </trkpt>
      <trkpt lat="47.27707" lon="7.80111">
        <ele>430.1</ele>
        <time>2022-10-01T14:05:26Z</time>
      </trkpt>
      <trkpt lat="47.27709" lon="7.80117">
        <ele>430</ele>
        <time>2022-10-01T14:05:27Z</time>
      </trkpt>
      <trkpt lat="47.27711" lon="7.80121">
        <ele>430</ele>
        <time>2022-10-01T14:05:28Z</time>
      </trkpt>
      <trkpt lat="47.27712" lon="7.80126">
        <ele>430</ele>
        <time>2022-10-01T14:05:29Z</time>
      </trkpt>
      <trkpt lat="47.27713" lon="7.80132">
        <ele>430</ele>
        <time>2022-10-01T14:05:30Z</time>
      </trkpt>
      <trkpt lat="47.27715" lon="7.80139">
        <ele>429.9</ele>
        <time>2022-10-01T14:05:31Z</time>
      </trkpt>
      <trkpt lat="47.27717" lon="7.80145">
        <ele>429.9</ele>
        <time>2022-10-01T14:05:32Z</time>
      </trkpt>
      <trkpt lat="47.27719" lon="7.80152">
        <ele>429.9</ele>
        <time>2022-10-01T14:05:33Z</time>
      </trkpt>
      <trkpt lat="47.27721" lon="7.80158">
        <ele>429.9</ele>
        <time>2022-10-01T14:05:34Z</time>
      </trkpt>
      <trkpt lat="47.27723" lon="7.80164">
        <ele>429.8</ele>
        <time>2022-10-01T14:05:35Z</time>
      </trkpt>
      <trkpt lat="47.27725" lon="7.80169">
        <ele>429.8</ele>
        <time>2022-10-01T14:05:36Z</time>
      </trkpt>
      <trkpt lat="47.27727" lon="7.80175">
        <ele>429.8</ele>
        <time>2022-10-01T14:05:37Z</time>
      </trkpt>
      <trkpt lat="47.2773" lon="7.80182">
        <ele>429.8</ele>
        <time>2022-10-01T14:05:38Z</time>
      </trkpt>
      <trkpt lat="47.27731" lon="7.80185">
        <ele>429.7</ele>
        <time>2022-10-01T14:05:39Z</time>
      </trkpt>
      <trkpt lat="47.27733" lon="7.80191">
        <ele>429.7</ele>
        <time>2022-10-01T14:05:40Z</time>
      </trkpt>
      <trkpt lat="47.27735" lon="7.80197">
        <ele>429.7</ele>
        <time>2022-10-01T14:05:41Z</time>
      </trkpt>
      <trkpt lat="47.27737" lon="7.80202">
        <ele>429.6</ele>
        <time>2022-10-01T14:05:42Z</time>
      </trkpt>
      <trkpt lat="47.2774" lon="7.80208">
        <ele>429.6</ele>
        <time>2022-10-01T14:05:43Z</time>
      </trkpt>
      <trkpt lat="47.27743" lon="7.80215">
        <ele>429.5</ele>
        <time>2022-10-01T14:05:44Z</time>
      </trkpt>
      <trkpt lat="47.27746" lon="7.80222">
        <ele>429.5</ele>
        <time>2022-10-01T14:05:45Z</time>
      </trkpt>
      <trkpt lat="47.27749" lon="7.80227">
        <ele>429.5</ele>
        <time>2022-10-01T14:05:46Z</time>
      </trkpt>
      <trkpt lat="47.27752" lon="7.80233">
        <ele>429.5</ele>
        <time>2022-10-01T14:05:47Z</time>
      </trkpt>
      <trkpt lat="47.27755" lon="7.80239">
        <ele>429.4</ele>
        <time>2022-10-01T14:05:48Z</time>
      </trkpt>
      <trkpt lat="47.27758" lon="7.80245">
        <ele>429.4</ele>
        <time>2022-10-01T14:05:49Z</time>
      </trkpt>
      <trkpt lat="47.27761" lon="7.80251">
        <ele>429.4</ele>
        <time>2022-10-01T14:05:50Z</time>
      </trkpt>
      <trkpt lat="47.27764" lon="7.80257">
        <ele>429.4</ele>
        <time>2022-10-01T14:05:51Z</time>
      </trkpt>
      <trkpt lat="47.27767" lon="7.80262">
        <ele>429.4</ele>
        <time>2022-10-01T14:05:52Z</time>
      </trkpt>
      <trkpt lat="47.27771" lon="7.80267">
        <ele>429.3</ele>
        <time>2022-10-01T14:05:53Z</time>
      </trkpt>
      <trkpt lat="47.27775" lon="7.80274">
        <ele>429.3</ele>
        <time>2022-10-01T14:05:54Z</time>
      </trkpt>
      <trkpt lat="47.27778" lon="7.8028">
        <ele>429.3</ele>
        <time>2022-10-01T14:05:55Z</time>
      </trkpt>
      <trkpt lat="47.27781" lon="7.80284">
        <ele>429.3</ele>
        <time>2022-10-01T14:05:56Z</time>
      </trkpt>
      <trkpt lat="47.27785" lon="7.80288">
        <ele>429.3</ele>
        <time>2022-10-01T14:05:57Z</time>
      </trkpt>
      <trkpt lat="47.27787" lon="7.80291">
        <ele>429.3</ele>
        <time>2022-10-01T14:05:58Z</time>
      </trkpt>
      <trkpt lat="47.27791" lon="7.80295">
        <ele>429.3</ele>
        <time>2022-10-01T14:05:59Z</time>
      </trkpt>
      <trkpt lat="47.27794" lon="7.803">
        <ele>429.3</ele>
        <time>2022-10-01T14:06:00Z</time>
      </trkpt>
      <trkpt lat="47.27797" lon="7.80304">
        <ele>429.3</ele>
        <time>2022-10-01T14:06:01Z</time>
      </trkpt>
      <trkpt lat="47.27799" lon="7.80307">
        <ele>429.2</ele>
        <time>2022-10-01T14:06:02Z</time>
      </trkpt>
      <trkpt lat="47.27802" lon="7.80311">
        <ele>429.2</ele>
        <time>2022-10-01T14:06:03Z</time>
      </trkpt>
      <trkpt lat="47.27805" lon="7.80315">
        <ele>429.2</ele>
        <time>2022-10-01T14:06:04Z</time>
      </trkpt>
      <trkpt lat="47.27807" lon="7.80318">
        <ele>429.2</ele>
        <time>2022-10-01T14:06:05Z</time>
      </trkpt>
      <trkpt lat="47.27809" lon="7.8032">
        <ele>429.2</ele>
        <time>2022-10-01T14:06:06Z</time>
      </trkpt>
      <trkpt lat="47.27811" lon="7.80324">
        <ele>429.2</ele>
        <time>2022-10-01T14:06:07Z</time>
      </trkpt>
      <trkpt lat="47.27813" lon="7.80328">
        <ele>429.2</ele>
        <time>2022-10-01T14:06:08Z</time>
      </trkpt>
      <trkpt lat="47.27813" lon="7.8033">
        <ele>429.2</ele>
        <time>2022-10-01T14:06:09Z</time>
      </trkpt>
      <trkpt lat="47.27815" lon="7.80334">
        <ele>429.2</ele>
        <time>2022-10-01T14:06:10Z</time>
      </trkpt>
      <trkpt lat="47.27817" lon="7.80338">
        <ele>429.2</ele>
        <time>2022-10-01T14:06:11Z</time>
      </trkpt>
      <trkpt lat="47.27818" lon="7.80342">
        <ele>429.2</ele>
        <time>2022-10-01T14:06:12Z</time>
      </trkpt>
      <trkpt lat="47.2782" lon="7.80347">
        <ele>429.2</ele>
        <time>2022-10-01T14:06:13Z</time>
      </trkpt>
      <trkpt lat="47.27822" lon="7.80352">
        <ele>429.2</ele>
        <time>2022-10-01T14:06:14Z</time>
      </trkpt>
      <trkpt lat="47.27822" lon="7.80354">
        <ele>429.2</ele>
        <time>2022-10-01T14:06:15Z</time>
      </trkpt>
      <trkpt lat="47.27825" lon="7.80358">
        <ele>429.2</ele>
        <time>2022-10-01T14:06:16Z</time>
      </trkpt>
      <trkpt lat="47.27826" lon="7.80361">
        <ele>429.1</ele>
        <time>2022-10-01T14:06:17Z</time>
      </trkpt>
      <trkpt lat="47.27828" lon="7.80366">
        <ele>429.1</ele>
        <time>2022-10-01T14:06:18Z</time>
      </trkpt>
      <trkpt lat="47.27829" lon="7.80368">
        <ele>429.1</ele>
        <time>2022-10-01T14:06:19Z</time>
      </trkpt>
      <trkpt lat="47.27832" lon="7.80372">
        <ele>429.1</ele>
        <time>2022-10-01T14:06:20Z</time>
      </trkpt>
      <trkpt lat="47.27833" lon="7.80377">
        <ele>429.1</ele>
        <time>2022-10-01T14:06:21Z</time>
      </trkpt>
      <trkpt lat="47.27834" lon="7.80381">
        <ele>429.1</ele>
        <time>2022-10-01T14:06:22Z</time>
      </trkpt>
      <trkpt lat="47.27836" lon="7.80386">
        <ele>429</ele>
        <time>2022-10-01T14:06:23Z</time>
      </trkpt>
      <trkpt lat="47.27837" lon="7.8039">
        <ele>429</ele>
        <time>2022-10-01T14:06:24Z</time>
      </trkpt>
      <trkpt lat="47.27839" lon="7.80395">
        <ele>428.9</ele>
        <time>2022-10-01T14:06:25Z</time>
      </trkpt>
      <trkpt lat="47.2784" lon="7.804">
        <ele>428.9</ele>
        <time>2022-10-01T14:06:26Z</time>
      </trkpt>
      <trkpt lat="47.27841" lon="7.80403">
        <ele>428.8</ele>
        <time>2022-10-01T14:06:27Z</time>
      </trkpt>
      <trkpt lat="47.27842" lon="7.80408">
        <ele>428.8</ele>
        <time>2022-10-01T14:06:28Z</time>
      </trkpt>
      <trkpt lat="47.27842" lon="7.80412">
        <ele>428.7</ele>
        <time>2022-10-01T14:06:29Z</time>
      </trkpt>
      <trkpt lat="47.27843" lon="7.80418">
        <ele>428.6</ele>
        <time>2022-10-01T14:06:30Z</time>
      </trkpt>
      <trkpt lat="47.27845" lon="7.80426">
        <ele>428.4</ele>
        <time>2022-10-01T14:06:31Z</time>
      </trkpt>
      <trkpt lat="47.27846" lon="7.80432">
        <ele>428.2</ele>
        <time>2022-10-01T14:06:32Z</time>
      </trkpt>
      <trkpt lat="47.27847" lon="7.8044">
        <ele>428</ele>
        <time>2022-10-01T14:06:33Z</time>
      </trkpt>
      <trkpt lat="47.27848" lon="7.80443">
        <ele>427.9</ele>
        <time>2022-10-01T14:06:34Z</time>
      </trkpt>
      <trkpt lat="47.27849" lon="7.8045">
        <ele>427.8</ele>
        <time>2022-10-01T14:06:35Z</time>
      </trkpt>
      <trkpt lat="47.2785" lon="7.80457">
        <ele>427.6</ele>
        <time>2022-10-01T14:06:36Z</time>
      </trkpt>
      <trkpt lat="47.27852" lon="7.80462">
        <ele>427.6</ele>
        <time>2022-10-01T14:06:37Z</time>
      </trkpt>
      <trkpt lat="47.27853" lon="7.80467">
        <ele>427.5</ele>
        <time>2022-10-01T14:06:38Z</time>
      </trkpt>
      <trkpt lat="47.27856" lon="7.80472">
        <ele>427.4</ele>
        <time>2022-10-01T14:06:39Z</time>
      </trkpt>
      <trkpt lat="47.27858" lon="7.80479">
        <ele>427.3</ele>
        <time>2022-10-01T14:06:40Z</time>
      </trkpt>
      <trkpt lat="47.27859" lon="7.80485">
        <ele>427.2</ele>
        <time>2022-10-01T14:06:41Z</time>
      </trkpt>
      <trkpt lat="47.27861" lon="7.80491">
        <ele>427.2</ele>
        <time>2022-10-01T14:06:42Z</time>
      </trkpt>
      <trkpt lat="47.27863" lon="7.80498">
        <ele>427.1</ele>
        <time>2022-10-01T14:06:43Z</time>
      </trkpt>
      <trkpt lat="47.27864" lon="7.80505">
        <ele>427</ele>
        <time>2022-10-01T14:06:44Z</time>
      </trkpt>
      <trkpt lat="47.27865" lon="7.80511">
        <ele>427</ele>
        <time>2022-10-01T14:06:46Z</time>
      </trkpt>
      <trkpt lat="47.27867" lon="7.80517">
        <ele>426.9</ele>
        <time>2022-10-01T14:06:47Z</time>
      </trkpt>
      <trkpt lat="47.27869" lon="7.80524">
        <ele>426.9</ele>
        <time>2022-10-01T14:06:48Z</time>
      </trkpt>
      <trkpt lat="47.27871" lon="7.8053">
        <ele>426.8</ele>
        <time>2022-10-01T14:06:49Z</time>
      </trkpt>
      <trkpt lat="47.27873" lon="7.80538">
        <ele>426.8</ele>
        <time>2022-10-01T14:06:50Z</time>
      </trkpt>
      <trkpt lat="47.27875" lon="7.80544">
        <ele>426.7</ele>
        <time>2022-10-01T14:06:51Z</time>
      </trkpt>
      <trkpt lat="47.27876" lon="7.80552">
        <ele>426.7</ele>
        <time>2022-10-01T14:06:52Z</time>
      </trkpt>
      <trkpt lat="47.27877" lon="7.80558">
        <ele>426.6</ele>
        <time>2022-10-01T14:06:53Z</time>
      </trkpt>
      <trkpt lat="47.27878" lon="7.80564">
        <ele>426.6</ele>
        <time>2022-10-01T14:06:54Z</time>
      </trkpt>
      <trkpt lat="47.2788" lon="7.80574">
        <ele>426.5</ele>
        <time>2022-10-01T14:06:55Z</time>
      </trkpt>
      <trkpt lat="47.27881" lon="7.80581">
        <ele>426.4</ele>
        <time>2022-10-01T14:06:56Z</time>
      </trkpt>
      <trkpt lat="47.27882" lon="7.80589">
        <ele>426.2</ele>
        <time>2022-10-01T14:06:57Z</time>
      </trkpt>
      <trkpt lat="47.27882" lon="7.80593">
        <ele>426.2</ele>
        <time>2022-10-01T14:06:58Z</time>
      </trkpt>
      <trkpt lat="47.27883" lon="7.80601">
        <ele>426</ele>
        <time>2022-10-01T14:07:00Z</time>
      </trkpt>
      <trkpt lat="47.27885" lon="7.80614">
        <ele>425.9</ele>
        <time>2022-10-01T14:07:01Z</time>
      </trkpt>
      <trkpt lat="47.27886" lon="7.80621">
        <ele>425.8</ele>
        <time>2022-10-01T14:07:02Z</time>
      </trkpt>
      <trkpt lat="47.27886" lon="7.80628">
        <ele>425.7</ele>
        <time>2022-10-01T14:07:04Z</time>
      </trkpt>
      <trkpt lat="47.27889" lon="7.80642">
        <ele>425.6</ele>
        <time>2022-10-01T14:07:05Z</time>
      </trkpt>
      <trkpt lat="47.2789" lon="7.80647">
        <ele>425.5</ele>
        <time>2022-10-01T14:07:06Z</time>
      </trkpt>
      <trkpt lat="47.27892" lon="7.80655">
        <ele>425.5</ele>
        <time>2022-10-01T14:07:07Z</time>
      </trkpt>
      <trkpt lat="47.27893" lon="7.80663">
        <ele>425.5</ele>
        <time>2022-10-01T14:07:08Z</time>
      </trkpt>
      <trkpt lat="47.27895" lon="7.80669">
        <ele>425.5</ele>
        <time>2022-10-01T14:07:09Z</time>
      </trkpt>
      <trkpt lat="47.27896" lon="7.80675">
        <ele>425.5</ele>
        <time>2022-10-01T14:07:10Z</time>
      </trkpt>
      <trkpt lat="47.27897" lon="7.80678">
        <ele>425.5</ele>
        <time>2022-10-01T14:07:11Z</time>
      </trkpt>
      <trkpt lat="47.27898" lon="7.80684">
        <ele>425.5</ele>
        <time>2022-10-01T14:07:12Z</time>
      </trkpt>
      <trkpt lat="47.27899" lon="7.80688">
        <ele>425.5</ele>
        <time>2022-10-01T14:07:13Z</time>
      </trkpt>
      <trkpt lat="47.279" lon="7.80692">
        <ele>425.5</ele>
        <time>2022-10-01T14:07:14Z</time>
      </trkpt>
      <trkpt lat="47.27902" lon="7.80696">
        <ele>425.6</ele>
        <time>2022-10-01T14:07:15Z</time>
      </trkpt>
      <trkpt lat="47.27903" lon="7.80701">
        <ele>425.6</ele>
        <time>2022-10-01T14:07:16Z</time>
      </trkpt>
      <trkpt lat="47.27905" lon="7.80707">
        <ele>425.6</ele>
        <time>2022-10-01T14:07:17Z</time>
      </trkpt>
      <trkpt lat="47.27905" lon="7.80712">
        <ele>425.6</ele>
        <time>2022-10-01T14:07:18Z</time>
      </trkpt>
      <trkpt lat="47.27907" lon="7.80717">
        <ele>425.7</ele>
        <time>2022-10-01T14:07:19Z</time>
      </trkpt>
      <trkpt lat="47.2791" lon="7.80724">
        <ele>425.7</ele>
        <time>2022-10-01T14:07:20Z</time>
      </trkpt>
      <trkpt lat="47.27911" lon="7.80729">
        <ele>425.7</ele>
        <time>2022-10-01T14:07:21Z</time>
      </trkpt>
      <trkpt lat="47.27912" lon="7.80734">
        <ele>425.8</ele>
        <time>2022-10-01T14:07:22Z</time>
      </trkpt>
      <trkpt lat="47.27913" lon="7.80741">
        <ele>425.8</ele>
        <time>2022-10-01T14:07:23Z</time>
      </trkpt>
      <trkpt lat="47.27913" lon="7.80744">
        <ele>425.8</ele>
        <time>2022-10-01T14:07:24Z</time>
      </trkpt>
      <trkpt lat="47.27914" lon="7.8075">
        <ele>425.9</ele>
        <time>2022-10-01T14:07:25Z</time>
      </trkpt>
      <trkpt lat="47.27915" lon="7.80756">
        <ele>425.9</ele>
        <time>2022-10-01T14:07:26Z</time>
      </trkpt>
      <trkpt lat="47.27916" lon="7.80762">
        <ele>425.9</ele>
        <time>2022-10-01T14:07:27Z</time>
      </trkpt>
      <trkpt lat="47.27918" lon="7.80769">
        <ele>426</ele>
        <time>2022-10-01T14:07:28Z</time>
      </trkpt>
      <trkpt lat="47.27918" lon="7.80775">
        <ele>426</ele>
        <time>2022-10-01T14:07:29Z</time>
      </trkpt>
      <trkpt lat="47.27919" lon="7.80781">
        <ele>426.1</ele>
        <time>2022-10-01T14:07:30Z</time>
      </trkpt>
      <trkpt lat="47.27919" lon="7.80786">
        <ele>426.1</ele>
        <time>2022-10-01T14:07:31Z</time>
      </trkpt>
      <trkpt lat="47.2792" lon="7.8079">
        <ele>426.2</ele>
        <time>2022-10-01T14:07:32Z</time>
      </trkpt>
      <trkpt lat="47.2792" lon="7.80795">
        <ele>426.2</ele>
        <time>2022-10-01T14:07:33Z</time>
      </trkpt>
      <trkpt lat="47.27921" lon="7.80799">
        <ele>426.2</ele>
        <time>2022-10-01T14:07:34Z</time>
      </trkpt>
      <trkpt lat="47.27921" lon="7.80803">
        <ele>426.3</ele>
        <time>2022-10-01T14:07:35Z</time>
      </trkpt>
      <trkpt lat="47.27922" lon="7.80809">
        <ele>426.3</ele>
        <time>2022-10-01T14:07:36Z</time>
      </trkpt>
      <trkpt lat="47.27923" lon="7.80815">
        <ele>426.4</ele>
        <time>2022-10-01T14:07:37Z</time>
      </trkpt>
      <trkpt lat="47.27924" lon="7.8082">
        <ele>426.4</ele>
        <time>2022-10-01T14:07:38Z</time>
      </trkpt>
      <trkpt lat="47.27924" lon="7.80826">
        <ele>426.4</ele>
        <time>2022-10-01T14:07:39Z</time>
      </trkpt>
      <trkpt lat="47.27924" lon="7.80831">
        <ele>426.5</ele>
        <time>2022-10-01T14:07:40Z</time>
      </trkpt>
      <trkpt lat="47.27924" lon="7.80838">
        <ele>426.5</ele>
        <time>2022-10-01T14:07:41Z</time>
      </trkpt>
      <trkpt lat="47.27924" lon="7.80842">
        <ele>426.5</ele>
        <time>2022-10-01T14:07:42Z</time>
      </trkpt>
      <trkpt lat="47.27924" lon="7.80846">
        <ele>426.5</ele>
        <time>2022-10-01T14:07:43Z</time>
      </trkpt>
      <trkpt lat="47.27924" lon="7.80854">
        <ele>426.6</ele>
        <time>2022-10-01T14:07:44Z</time>
      </trkpt>
      <trkpt lat="47.27924" lon="7.8086">
        <ele>426.6</ele>
        <time>2022-10-01T14:07:45Z</time>
      </trkpt>
      <trkpt lat="47.27924" lon="7.80867">
        <ele>426.6</ele>
        <time>2022-10-01T14:07:46Z</time>
      </trkpt>
      <trkpt lat="47.27925" lon="7.80874">
        <ele>426.6</ele>
        <time>2022-10-01T14:07:47Z</time>
      </trkpt>
      <trkpt lat="47.27926" lon="7.80879">
        <ele>426.5</ele>
        <time>2022-10-01T14:07:48Z</time>
      </trkpt>
      <trkpt lat="47.27925" lon="7.80885">
        <ele>426.5</ele>
        <time>2022-10-01T14:07:49Z</time>
      </trkpt>
      <trkpt lat="47.27926" lon="7.80892">
        <ele>426.5</ele>
        <time>2022-10-01T14:07:50Z</time>
      </trkpt>
      <trkpt lat="47.27926" lon="7.80899">
        <ele>426.5</ele>
        <time>2022-10-01T14:07:51Z</time>
      </trkpt>
      <trkpt lat="47.27929" lon="7.80904">
        <ele>426.5</ele>
        <time>2022-10-01T14:07:52Z</time>
      </trkpt>
      <trkpt lat="47.2793" lon="7.80908">
        <ele>426.5</ele>
        <time>2022-10-01T14:07:53Z</time>
      </trkpt>
      <trkpt lat="47.2793" lon="7.80915">
        <ele>426.5</ele>
        <time>2022-10-01T14:07:54Z</time>
      </trkpt>
      <trkpt lat="47.27932" lon="7.80924">
        <ele>426.5</ele>
        <time>2022-10-01T14:07:55Z</time>
      </trkpt>
      <trkpt lat="47.27933" lon="7.80929">
        <ele>426.5</ele>
        <time>2022-10-01T14:07:56Z</time>
      </trkpt>
      <trkpt lat="47.27934" lon="7.80934">
        <ele>426.5</ele>
        <time>2022-10-01T14:07:57Z</time>
      </trkpt>
      <trkpt lat="47.27934" lon="7.80936">
        <ele>426.5</ele>
        <time>2022-10-01T14:07:58Z</time>
      </trkpt>
      <trkpt lat="47.27936" lon="7.80941">
        <ele>426.5</ele>
        <time>2022-10-01T14:07:59Z</time>
      </trkpt>
      <trkpt lat="47.27936" lon="7.80943">
        <ele>426.5</ele>
        <time>2022-10-01T14:08:00Z</time>
      </trkpt>
      <trkpt lat="47.27936" lon="7.8095">
        <ele>426.5</ele>
        <time>2022-10-01T14:08:01Z</time>
      </trkpt>
      <trkpt lat="47.27939" lon="7.80954">
        <ele>426.5</ele>
        <time>2022-10-01T14:08:02Z</time>
      </trkpt>
      <trkpt lat="47.2794" lon="7.80959">
        <ele>426.6</ele>
        <time>2022-10-01T14:08:03Z</time>
      </trkpt>
      <trkpt lat="47.27941" lon="7.80961">
        <ele>426.6</ele>
        <time>2022-10-01T14:08:04Z</time>
      </trkpt>
      <trkpt lat="47.27943" lon="7.80965">
        <ele>426.6</ele>
        <time>2022-10-01T14:08:05Z</time>
      </trkpt>
      <trkpt lat="47.27944" lon="7.8097">
        <ele>426.6</ele>
        <time>2022-10-01T14:08:06Z</time>
      </trkpt>
      <trkpt lat="47.27947" lon="7.80975">
        <ele>426.5</ele>
        <time>2022-10-01T14:08:07Z</time>
      </trkpt>
      <trkpt lat="47.27948" lon="7.8098">
        <ele>426.5</ele>
        <time>2022-10-01T14:08:08Z</time>
      </trkpt>
      <trkpt lat="47.2795" lon="7.80984">
        <ele>426.5</ele>
        <time>2022-10-01T14:08:09Z</time>
      </trkpt>
      <trkpt lat="47.27952" lon="7.80988">
        <ele>426.5</ele>
        <time>2022-10-01T14:08:10Z</time>
      </trkpt>
      <trkpt lat="47.27954" lon="7.80991">
        <ele>426.5</ele>
        <time>2022-10-01T14:08:11Z</time>
      </trkpt>
      <trkpt lat="47.27955" lon="7.80995">
        <ele>426.5</ele>
        <time>2022-10-01T14:08:12Z</time>
      </trkpt>
      <trkpt lat="47.27956" lon="7.81">
        <ele>426.5</ele>
        <time>2022-10-01T14:08:13Z</time>
      </trkpt>
      <trkpt lat="47.27958" lon="7.81004">
        <ele>426.4</ele>
        <time>2022-10-01T14:08:14Z</time>
      </trkpt>
      <trkpt lat="47.27959" lon="7.81006">
        <ele>426.4</ele>
        <time>2022-10-01T14:08:15Z</time>
      </trkpt>
      <trkpt lat="47.2796" lon="7.81009">
        <ele>426.4</ele>
        <time>2022-10-01T14:08:16Z</time>
      </trkpt>
      <trkpt lat="47.27962" lon="7.81015">
        <ele>426.4</ele>
        <time>2022-10-01T14:08:17Z</time>
      </trkpt>
      <trkpt lat="47.27963" lon="7.81017">
        <ele>426.3</ele>
        <time>2022-10-01T14:08:18Z</time>
      </trkpt>
      <trkpt lat="47.27965" lon="7.81021">
        <ele>426.3</ele>
        <time>2022-10-01T14:08:19Z</time>
      </trkpt>
      <trkpt lat="47.27967" lon="7.81026">
        <ele>426.3</ele>
        <time>2022-10-01T14:08:20Z</time>
      </trkpt>
      <trkpt lat="47.27969" lon="7.8103">
        <ele>426.2</ele>
        <time>2022-10-01T14:08:21Z</time>
      </trkpt>
      <trkpt lat="47.27971" lon="7.81034">
        <ele>426.2</ele>
        <time>2022-10-01T14:08:22Z</time>
      </trkpt>
      <trkpt lat="47.27973" lon="7.81038">
        <ele>426.1</ele>
        <time>2022-10-01T14:08:23Z</time>
      </trkpt>
      <trkpt lat="47.27976" lon="7.81043">
        <ele>426.1</ele>
        <time>2022-10-01T14:08:24Z</time>
      </trkpt>
      <trkpt lat="47.27977" lon="7.81046">
        <ele>426</ele>
        <time>2022-10-01T14:08:25Z</time>
      </trkpt>
      <trkpt lat="47.27979" lon="7.81049">
        <ele>426</ele>
        <time>2022-10-01T14:08:26Z</time>
      </trkpt>
      <trkpt lat="47.27983" lon="7.81053">
        <ele>425.9</ele>
        <time>2022-10-01T14:08:27Z</time>
      </trkpt>
      <trkpt lat="47.27985" lon="7.81056">
        <ele>425.8</ele>
        <time>2022-10-01T14:08:28Z</time>
      </trkpt>
      <trkpt lat="47.27988" lon="7.81061">
        <ele>425.8</ele>
        <time>2022-10-01T14:08:29Z</time>
      </trkpt>
      <trkpt lat="47.27989" lon="7.81063">
        <ele>425.8</ele>
        <time>2022-10-01T14:08:30Z</time>
      </trkpt>
      <trkpt lat="47.27992" lon="7.81068">
        <ele>425.7</ele>
        <time>2022-10-01T14:08:31Z</time>
      </trkpt>
      <trkpt lat="47.27993" lon="7.81069">
        <ele>425.7</ele>
        <time>2022-10-01T14:08:32Z</time>
      </trkpt>
      <trkpt lat="47.27996" lon="7.81073">
        <ele>425.6</ele>
        <time>2022-10-01T14:08:33Z</time>
      </trkpt>
      <trkpt lat="47.27998" lon="7.81075">
        <ele>425.6</ele>
        <time>2022-10-01T14:08:34Z</time>
      </trkpt>
      <trkpt lat="47.28001" lon="7.81078">
        <ele>425.5</ele>
        <time>2022-10-01T14:08:35Z</time>
      </trkpt>
      <trkpt lat="47.28004" lon="7.81085">
        <ele>425.4</ele>
        <time>2022-10-01T14:08:36Z</time>
      </trkpt>
      <trkpt lat="47.28006" lon="7.81089">
        <ele>425.4</ele>
        <time>2022-10-01T14:08:37Z</time>
      </trkpt>
      <trkpt lat="47.28006" lon="7.81091">
        <ele>425.3</ele>
        <time>2022-10-01T14:08:38Z</time>
      </trkpt>
      <trkpt lat="47.28008" lon="7.81095">
        <ele>425.3</ele>
        <time>2022-10-01T14:08:39Z</time>
      </trkpt>
      <trkpt lat="47.28011" lon="7.81099">
        <ele>425.2</ele>
        <time>2022-10-01T14:08:40Z</time>
      </trkpt>
      <trkpt lat="47.28014" lon="7.81105">
        <ele>425.1</ele>
        <time>2022-10-01T14:08:41Z</time>
      </trkpt>
      <trkpt lat="47.28017" lon="7.81111">
        <ele>425</ele>
        <time>2022-10-01T14:08:42Z</time>
      </trkpt>
      <trkpt lat="47.28018" lon="7.81116">
        <ele>425</ele>
        <time>2022-10-01T14:08:43Z</time>
      </trkpt>
      <trkpt lat="47.2802" lon="7.81122">
        <ele>424.9</ele>
        <time>2022-10-01T14:08:44Z</time>
      </trkpt>
      <trkpt lat="47.28022" lon="7.81131">
        <ele>424.9</ele>
        <time>2022-10-01T14:08:45Z</time>
      </trkpt>
      <trkpt lat="47.28023" lon="7.81136">
        <ele>424.9</ele>
        <time>2022-10-01T14:08:46Z</time>
      </trkpt>
      <trkpt lat="47.28023" lon="7.81142">
        <ele>424.9</ele>
        <time>2022-10-01T14:08:47Z</time>
      </trkpt>
      <trkpt lat="47.28024" lon="7.81149">
        <ele>424.8</ele>
        <time>2022-10-01T14:08:48Z</time>
      </trkpt>
      <trkpt lat="47.28024" lon="7.81155">
        <ele>424.9</ele>
        <time>2022-10-01T14:08:49Z</time>
      </trkpt>
      <trkpt lat="47.28024" lon="7.81161">
        <ele>424.9</ele>
        <time>2022-10-01T14:08:50Z</time>
      </trkpt>
      <trkpt lat="47.28024" lon="7.81166">
        <ele>424.9</ele>
        <time>2022-10-01T14:08:51Z</time>
      </trkpt>
      <trkpt lat="47.28024" lon="7.81171">
        <ele>424.9</ele>
        <time>2022-10-01T14:08:52Z</time>
      </trkpt>
      <trkpt lat="47.28024" lon="7.81176">
        <ele>424.9</ele>
        <time>2022-10-01T14:08:53Z</time>
      </trkpt>
      <trkpt lat="47.28024" lon="7.81181">
        <ele>424.9</ele>
        <time>2022-10-01T14:08:54Z</time>
      </trkpt>
      <trkpt lat="47.28024" lon="7.81183">
        <ele>424.9</ele>
        <time>2022-10-01T14:08:55Z</time>
      </trkpt>
      <trkpt lat="47.28023" lon="7.81188">
        <ele>424.9</ele>
        <time>2022-10-01T14:08:56Z</time>
      </trkpt>
      <trkpt lat="47.28022" lon="7.81194">
        <ele>424.9</ele>
        <time>2022-10-01T14:08:57Z</time>
      </trkpt>
      <trkpt lat="47.28022" lon="7.81199">
        <ele>424.9</ele>
        <time>2022-10-01T14:08:58Z</time>
      </trkpt>
      <trkpt lat="47.28022" lon="7.81204">
        <ele>424.9</ele>
        <time>2022-10-01T14:08:59Z</time>
      </trkpt>
      <trkpt lat="47.28021" lon="7.81209">
        <ele>424.9</ele>
        <time>2022-10-01T14:09:00Z</time>
      </trkpt>
      <trkpt lat="47.28021" lon="7.81212">
        <ele>424.9</ele>
        <time>2022-10-01T14:09:01Z</time>
      </trkpt>
      <trkpt lat="47.2802" lon="7.81218">
        <ele>424.8</ele>
        <time>2022-10-01T14:09:02Z</time>
      </trkpt>
      <trkpt lat="47.28017" lon="7.81223">
        <ele>424.8</ele>
        <time>2022-10-01T14:09:03Z</time>
      </trkpt>
      <trkpt lat="47.28017" lon="7.81228">
        <ele>424.8</ele>
        <time>2022-10-01T14:09:04Z</time>
      </trkpt>
      <trkpt lat="47.28015" lon="7.81232">
        <ele>424.8</ele>
        <time>2022-10-01T14:09:05Z</time>
      </trkpt>
      <trkpt lat="47.28014" lon="7.81238">
        <ele>424.8</ele>
        <time>2022-10-01T14:09:06Z</time>
      </trkpt>
      <trkpt lat="47.28014" lon="7.81239">
        <ele>424.8</ele>
        <time>2022-10-01T14:09:07Z</time>
      </trkpt>
      <trkpt lat="47.28013" lon="7.81244">
        <ele>424.9</ele>
        <time>2022-10-01T14:09:08Z</time>
      </trkpt>
      <trkpt lat="47.28013" lon="7.81246">
        <ele>424.9</ele>
        <time>2022-10-01T14:09:09Z</time>
      </trkpt>
      <trkpt lat="47.28012" lon="7.81251">
        <ele>424.9</ele>
        <time>2022-10-01T14:09:10Z</time>
      </trkpt>
      <trkpt lat="47.28012" lon="7.81257">
        <ele>425</ele>
        <time>2022-10-01T14:09:11Z</time>
      </trkpt>
      <trkpt lat="47.28011" lon="7.81259">
        <ele>425</ele>
        <time>2022-10-01T14:09:12Z</time>
      </trkpt>
      <trkpt lat="47.2801" lon="7.81264">
        <ele>425.1</ele>
        <time>2022-10-01T14:09:13Z</time>
      </trkpt>
      <trkpt lat="47.28009" lon="7.81266">
        <ele>425.1</ele>
        <time>2022-10-01T14:09:14Z</time>
      </trkpt>
      <trkpt lat="47.28008" lon="7.81271">
        <ele>425.2</ele>
        <time>2022-10-01T14:09:15Z</time>
      </trkpt>
      <trkpt lat="47.28007" lon="7.81276">
        <ele>425.3</ele>
        <time>2022-10-01T14:09:16Z</time>
      </trkpt>
      <trkpt lat="47.28007" lon="7.81279">
        <ele>425.3</ele>
        <time>2022-10-01T14:09:17Z</time>
      </trkpt>
      <trkpt lat="47.28006" lon="7.81283">
        <ele>425.4</ele>
        <time>2022-10-01T14:09:18Z</time>
      </trkpt>
      <trkpt lat="47.28005" lon="7.81287">
        <ele>425.6</ele>
        <time>2022-10-01T14:09:19Z</time>
      </trkpt>
      <trkpt lat="47.28005" lon="7.81292">
        <ele>425.7</ele>
        <time>2022-10-01T14:09:20Z</time>
      </trkpt>
      <trkpt lat="47.28005" lon="7.81296">
        <ele>425.8</ele>
        <time>2022-10-01T14:09:21Z</time>
      </trkpt>
      <trkpt lat="47.28005" lon="7.81298">
        <ele>425.9</ele>
        <time>2022-10-01T14:09:22Z</time>
      </trkpt>
      <trkpt lat="47.28003" lon="7.81303">
        <ele>426</ele>
        <time>2022-10-01T14:09:23Z</time>
      </trkpt>
      <trkpt lat="47.28003" lon="7.81308">
        <ele>426.2</ele>
        <time>2022-10-01T14:09:24Z</time>
      </trkpt>
      <trkpt lat="47.28003" lon="7.81313">
        <ele>426.4</ele>
        <time>2022-10-01T14:09:25Z</time>
      </trkpt>
      <trkpt lat="47.28002" lon="7.81315">
        <ele>426.5</ele>
        <time>2022-10-01T14:09:26Z</time>
      </trkpt>
      <trkpt lat="47.28002" lon="7.8132">
        <ele>426.7</ele>
        <time>2022-10-01T14:09:27Z</time>
      </trkpt>
      <trkpt lat="47.28002" lon="7.81321">
        <ele>426.8</ele>
        <time>2022-10-01T14:09:28Z</time>
      </trkpt>
      <trkpt lat="47.28001" lon="7.81326">
        <ele>427</ele>
        <time>2022-10-01T14:09:29Z</time>
      </trkpt>
      <trkpt lat="47.28001" lon="7.81328">
        <ele>427.1</ele>
        <time>2022-10-01T14:09:30Z</time>
      </trkpt>
      <trkpt lat="47.28" lon="7.81332">
        <ele>427.3</ele>
        <time>2022-10-01T14:09:31Z</time>
      </trkpt>
      <trkpt lat="47.28" lon="7.81333">
        <ele>427.4</ele>
        <time>2022-10-01T14:09:32Z</time>
      </trkpt>
      <trkpt lat="47.28" lon="7.81338">
        <ele>427.7</ele>
        <time>2022-10-01T14:09:33Z</time>
      </trkpt>
      <trkpt lat="47.28" lon="7.8134">
        <ele>427.8</ele>
        <time>2022-10-01T14:09:34Z</time>
      </trkpt>
      <trkpt lat="47.28" lon="7.81345">
        <ele>428.1</ele>
        <time>2022-10-01T14:09:35Z</time>
      </trkpt>
      <trkpt lat="47.28" lon="7.81346">
        <ele>428.1</ele>
        <time>2022-10-01T14:09:36Z</time>
      </trkpt>
      <trkpt lat="47.27999" lon="7.81351">
        <ele>428.4</ele>
        <time>2022-10-01T14:09:37Z</time>
      </trkpt>
      <trkpt lat="47.27999" lon="7.81355">
        <ele>428.7</ele>
        <time>2022-10-01T14:09:38Z</time>
      </trkpt>
      <trkpt lat="47.27999" lon="7.81357">
        <ele>428.8</ele>
        <time>2022-10-01T14:09:39Z</time>
      </trkpt>
      <trkpt lat="47.27999" lon="7.81361">
        <ele>429</ele>
        <time>2022-10-01T14:09:40Z</time>
      </trkpt>
      <trkpt lat="47.27998" lon="7.81364">
        <ele>429.2</ele>
        <time>2022-10-01T14:09:41Z</time>
      </trkpt>
      <trkpt lat="47.27997" lon="7.81366">
        <ele>429.3</ele>
        <time>2022-10-01T14:09:42Z</time>
      </trkpt>
      <trkpt lat="47.27997" lon="7.8137">
        <ele>429.6</ele>
        <time>2022-10-01T14:09:43Z</time>
      </trkpt>
      <trkpt lat="47.27998" lon="7.81374">
        <ele>429.8</ele>
        <time>2022-10-01T14:09:44Z</time>
      </trkpt>
      <trkpt lat="47.27997" lon="7.81376">
        <ele>429.9</ele>
        <time>2022-10-01T14:09:45Z</time>
      </trkpt>
      <trkpt lat="47.27997" lon="7.8138">
        <ele>430.2</ele>
        <time>2022-10-01T14:09:46Z</time>
      </trkpt>
      <trkpt lat="47.27997" lon="7.81382">
        <ele>430.3</ele>
        <time>2022-10-01T14:09:47Z</time>
      </trkpt>
      <trkpt lat="47.27996" lon="7.81387">
        <ele>430.6</ele>
        <time>2022-10-01T14:09:48Z</time>
      </trkpt>
      <trkpt lat="47.27996" lon="7.81388">
        <ele>430.7</ele>
        <time>2022-10-01T14:09:49Z</time>
      </trkpt>
      <trkpt lat="47.27996" lon="7.81392">
        <ele>430.9</ele>
        <time>2022-10-01T14:09:50Z</time>
      </trkpt>
      <trkpt lat="47.27996" lon="7.81393">
        <ele>431</ele>
        <time>2022-10-01T14:09:51Z</time>
      </trkpt>
      <trkpt lat="47.27996" lon="7.81395">
        <ele>431</ele>
        <time>2022-10-01T14:09:52Z</time>
      </trkpt>
      <trkpt lat="47.27996" lon="7.81397">
        <ele>431.2</ele>
        <time>2022-10-01T14:09:53Z</time>
      </trkpt>
      <trkpt lat="47.27996" lon="7.814">
        <ele>431.3</ele>
        <time>2022-10-01T14:09:54Z</time>
      </trkpt>
      <trkpt lat="47.27998" lon="7.81404">
        <ele>431.5</ele>
        <time>2022-10-01T14:09:55Z</time>
      </trkpt>
      <trkpt lat="47.27998" lon="7.81405">
        <ele>431.6</ele>
        <time>2022-10-01T14:09:56Z</time>
      </trkpt>
      <trkpt lat="47.27998" lon="7.81407">
        <ele>431.7</ele>
        <time>2022-10-01T14:09:57Z</time>
      </trkpt>
      <trkpt lat="47.27999" lon="7.8141">
        <ele>431.8</ele>
        <time>2022-10-01T14:09:58Z</time>
      </trkpt>
      <trkpt lat="47.27999" lon="7.81413">
        <ele>432</ele>
        <time>2022-10-01T14:09:59Z</time>
      </trkpt>
      <trkpt lat="47.27999" lon="7.81415">
        <ele>432</ele>
        <time>2022-10-01T14:10:00Z</time>
      </trkpt>
      <trkpt lat="47.27999" lon="7.81416">
        <ele>432.1</ele>
        <time>2022-10-01T14:10:01Z</time>
      </trkpt>
      <trkpt lat="47.28" lon="7.8142">
        <ele>432.3</ele>
        <time>2022-10-01T14:10:02Z</time>
      </trkpt>
      <trkpt lat="47.28001" lon="7.81422">
        <ele>432.3</ele>
        <time>2022-10-01T14:10:03Z</time>
      </trkpt>
      <trkpt lat="47.28002" lon="7.81425">
        <ele>432.3</ele>
        <time>2022-10-01T14:10:04Z</time>
      </trkpt>
      <trkpt lat="47.28004" lon="7.8143">
        <ele>432.3</ele>
        <time>2022-10-01T14:10:05Z</time>
      </trkpt>
      <trkpt lat="47.28004" lon="7.81432">
        <ele>432.3</ele>
        <time>2022-10-01T14:10:06Z</time>
      </trkpt>
      <trkpt lat="47.28005" lon="7.81436">
        <ele>432.3</ele>
        <time>2022-10-01T14:10:07Z</time>
      </trkpt>
      <trkpt lat="47.28006" lon="7.8144">
        <ele>432.3</ele>
        <time>2022-10-01T14:10:08Z</time>
      </trkpt>
      <trkpt lat="47.28006" lon="7.81444">
        <ele>432.3</ele>
        <time>2022-10-01T14:10:09Z</time>
      </trkpt>
      <trkpt lat="47.28006" lon="7.81449">
        <ele>432.3</ele>
        <time>2022-10-01T14:10:10Z</time>
      </trkpt>
      <trkpt lat="47.28006" lon="7.81455">
        <ele>432.3</ele>
        <time>2022-10-01T14:10:11Z</time>
      </trkpt>
      <trkpt lat="47.28006" lon="7.8146">
        <ele>432.3</ele>
        <time>2022-10-01T14:10:12Z</time>
      </trkpt>
      <trkpt lat="47.28004" lon="7.81466">
        <ele>432.3</ele>
        <time>2022-10-01T14:10:13Z</time>
      </trkpt>
      <trkpt lat="47.28002" lon="7.81471">
        <ele>432.3</ele>
        <time>2022-10-01T14:10:14Z</time>
      </trkpt>
      <trkpt lat="47.28001" lon="7.81476">
        <ele>432.3</ele>
        <time>2022-10-01T14:10:15Z</time>
      </trkpt>
      <trkpt lat="47.27999" lon="7.81482">
        <ele>432.3</ele>
        <time>2022-10-01T14:10:16Z</time>
      </trkpt>
      <trkpt lat="47.27997" lon="7.81488">
        <ele>432.3</ele>
        <time>2022-10-01T14:10:17Z</time>
      </trkpt>
      <trkpt lat="47.27995" lon="7.81493">
        <ele>432.2</ele>
        <time>2022-10-01T14:10:18Z</time>
      </trkpt>
      <trkpt lat="47.27993" lon="7.81498">
        <ele>432.2</ele>
        <time>2022-10-01T14:10:19Z</time>
      </trkpt>
      <trkpt lat="47.27993" lon="7.81505">
        <ele>432.2</ele>
        <time>2022-10-01T14:10:20Z</time>
      </trkpt>
      <trkpt lat="47.27991" lon="7.81511">
        <ele>432.2</ele>
        <time>2022-10-01T14:10:21Z</time>
      </trkpt>
      <trkpt lat="47.2799" lon="7.81516">
        <ele>432.2</ele>
        <time>2022-10-01T14:10:22Z</time>
      </trkpt>
      <trkpt lat="47.27988" lon="7.81523">
        <ele>432.2</ele>
        <time>2022-10-01T14:10:23Z</time>
      </trkpt>
      <trkpt lat="47.27985" lon="7.81527">
        <ele>432.2</ele>
        <time>2022-10-01T14:10:24Z</time>
      </trkpt>
      <trkpt lat="47.27982" lon="7.81532">
        <ele>432.2</ele>
        <time>2022-10-01T14:10:25Z</time>
      </trkpt>
      <trkpt lat="47.27982" lon="7.81538">
        <ele>432.2</ele>
        <time>2022-10-01T14:10:26Z</time>
      </trkpt>
      <trkpt lat="47.27981" lon="7.81543">
        <ele>432.2</ele>
        <time>2022-10-01T14:10:27Z</time>
      </trkpt>
      <trkpt lat="47.27979" lon="7.81548">
        <ele>432.2</ele>
        <time>2022-10-01T14:10:28Z</time>
      </trkpt>
      <trkpt lat="47.27978" lon="7.81553">
        <ele>432.2</ele>
        <time>2022-10-01T14:10:29Z</time>
      </trkpt>
      <trkpt lat="47.27976" lon="7.81556">
        <ele>432.2</ele>
        <time>2022-10-01T14:10:30Z</time>
      </trkpt>
      <trkpt lat="47.27975" lon="7.81557">
        <ele>432.2</ele>
        <time>2022-10-01T14:10:31Z</time>
      </trkpt>
      <trkpt lat="47.27975" lon="7.81559">
        <ele>432.2</ele>
        <time>2022-10-01T14:10:32Z</time>
      </trkpt>
      <trkpt lat="47.27975" lon="7.8156">
        <ele>432.2</ele>
        <time>2022-10-01T14:10:33Z</time>
      </trkpt>
      <trkpt lat="47.27975" lon="7.81561">
        <ele>432.2</ele>
        <time>2022-10-01T14:10:34Z</time>
      </trkpt>
      <trkpt lat="47.27975" lon="7.81561">
        <ele>432.2</ele>
        <time>2022-10-01T14:10:35Z</time>
      </trkpt>
      <trkpt lat="47.27975" lon="7.81562">
        <ele>432.2</ele>
        <time>2022-10-01T14:10:36Z</time>
      </trkpt>
      <trkpt lat="47.27974" lon="7.81562">
        <ele>432.2</ele>
        <time>2022-10-01T14:10:37Z</time>
      </trkpt>
      <trkpt lat="47.27974" lon="7.81563">
        <ele>432.2</ele>
        <time>2022-10-01T14:10:38Z</time>
      </trkpt>
      <trkpt lat="47.27973" lon="7.81567">
        <ele>432.2</ele>
        <time>2022-10-01T14:10:39Z</time>
      </trkpt>
      <trkpt lat="47.27972" lon="7.8157">
        <ele>432.2</ele>
        <time>2022-10-01T14:10:40Z</time>
      </trkpt>
      <trkpt lat="47.27972" lon="7.81574">
        <ele>432.1</ele>
        <time>2022-10-01T14:10:41Z</time>
      </trkpt>
      <trkpt lat="47.27971" lon="7.81577">
        <ele>432.1</ele>
        <time>2022-10-01T14:11:33Z</time>
      </trkpt>
      <trkpt lat="47.2797" lon="7.8158">
        <ele>432.1</ele>
        <time>2022-10-01T14:11:34Z</time>
      </trkpt>
      <trkpt lat="47.27967" lon="7.81585">
        <ele>432.1</ele>
        <time>2022-10-01T14:11:35Z</time>
      </trkpt>
      <trkpt lat="47.27967" lon="7.81586">
        <ele>432.1</ele>
        <time>2022-10-01T14:11:36Z</time>
      </trkpt>
      <trkpt lat="47.27965" lon="7.81589">
        <ele>432.1</ele>
        <time>2022-10-01T14:11:37Z</time>
      </trkpt>
      <trkpt lat="47.27963" lon="7.81592">
        <ele>432.1</ele>
        <time>2022-10-01T14:11:38Z</time>
      </trkpt>
      <trkpt lat="47.27961" lon="7.81597">
        <ele>432.1</ele>
        <time>2022-10-01T14:11:39Z</time>
      </trkpt>
      <trkpt lat="47.27961" lon="7.81599">
        <ele>432.1</ele>
        <time>2022-10-01T14:11:40Z</time>
      </trkpt>
      <trkpt lat="47.27959" lon="7.81604">
        <ele>432.1</ele>
        <time>2022-10-01T14:11:41Z</time>
      </trkpt>
      <trkpt lat="47.27957" lon="7.81609">
        <ele>432.1</ele>
        <time>2022-10-01T14:11:42Z</time>
      </trkpt>
      <trkpt lat="47.27954" lon="7.81613">
        <ele>432.1</ele>
        <time>2022-10-01T14:11:43Z</time>
      </trkpt>
      <trkpt lat="47.27952" lon="7.81618">
        <ele>432.1</ele>
        <time>2022-10-01T14:11:44Z</time>
      </trkpt>
      <trkpt lat="47.2795" lon="7.81623">
        <ele>432.1</ele>
        <time>2022-10-01T14:11:45Z</time>
      </trkpt>
      <trkpt lat="47.27948" lon="7.81628">
        <ele>432.1</ele>
        <time>2022-10-01T14:11:46Z</time>
      </trkpt>
      <trkpt lat="47.27946" lon="7.81634">
        <ele>432</ele>
        <time>2022-10-01T14:11:47Z</time>
      </trkpt>
      <trkpt lat="47.27943" lon="7.81639">
        <ele>432</ele>
        <time>2022-10-01T14:11:48Z</time>
      </trkpt>
      <trkpt lat="47.27941" lon="7.81645">
        <ele>432</ele>
        <time>2022-10-01T14:11:49Z</time>
      </trkpt>
      <trkpt lat="47.27938" lon="7.8165">
        <ele>432</ele>
        <time>2022-10-01T14:11:50Z</time>
      </trkpt>
      <trkpt lat="47.27936" lon="7.81656">
        <ele>432</ele>
        <time>2022-10-01T14:11:51Z</time>
      </trkpt>
      <trkpt lat="47.27933" lon="7.81661">
        <ele>432</ele>
        <time>2022-10-01T14:11:52Z</time>
      </trkpt>
      <trkpt lat="47.27931" lon="7.81666">
        <ele>432</ele>
        <time>2022-10-01T14:11:53Z</time>
      </trkpt>
      <trkpt lat="47.27928" lon="7.81672">
        <ele>432</ele>
        <time>2022-10-01T14:11:54Z</time>
      </trkpt>
      <trkpt lat="47.27926" lon="7.81676">
        <ele>432.1</ele>
        <time>2022-10-01T14:11:55Z</time>
      </trkpt>
      <trkpt lat="47.27923" lon="7.81682">
        <ele>432.1</ele>
        <time>2022-10-01T14:11:56Z</time>
      </trkpt>
      <trkpt lat="47.2792" lon="7.81688">
        <ele>432.1</ele>
        <time>2022-10-01T14:11:57Z</time>
      </trkpt>
      <trkpt lat="47.27918" lon="7.81693">
        <ele>432.1</ele>
        <time>2022-10-01T14:11:58Z</time>
      </trkpt>
      <trkpt lat="47.27915" lon="7.81698">
        <ele>432.1</ele>
        <time>2022-10-01T14:11:59Z</time>
      </trkpt>
      <trkpt lat="47.27913" lon="7.81704">
        <ele>432.2</ele>
        <time>2022-10-01T14:12:00Z</time>
      </trkpt>
      <trkpt lat="47.27911" lon="7.81708">
        <ele>432.2</ele>
        <time>2022-10-01T14:12:01Z</time>
      </trkpt>
      <trkpt lat="47.27908" lon="7.81714">
        <ele>432.2</ele>
        <time>2022-10-01T14:12:02Z</time>
      </trkpt>
      <trkpt lat="47.27906" lon="7.81719">
        <ele>432.3</ele>
        <time>2022-10-01T14:12:03Z</time>
      </trkpt>
      <trkpt lat="47.27904" lon="7.81725">
        <ele>432.3</ele>
        <time>2022-10-01T14:12:04Z</time>
      </trkpt>
      <trkpt lat="47.27902" lon="7.8173">
        <ele>432.3</ele>
        <time>2022-10-01T14:12:05Z</time>
      </trkpt>
      <trkpt lat="47.27899" lon="7.81735">
        <ele>432.3</ele>
        <time>2022-10-01T14:12:06Z</time>
      </trkpt>
      <trkpt lat="47.27896" lon="7.8174">
        <ele>432.3</ele>
        <time>2022-10-01T14:12:07Z</time>
      </trkpt>
      <trkpt lat="47.27893" lon="7.81746">
        <ele>432.3</ele>
        <time>2022-10-01T14:12:08Z</time>
      </trkpt>
      <trkpt lat="47.2789" lon="7.8175">
        <ele>432.3</ele>
        <time>2022-10-01T14:12:09Z</time>
      </trkpt>
      <trkpt lat="47.27888" lon="7.81755">
        <ele>432.3</ele>
        <time>2022-10-01T14:12:10Z</time>
      </trkpt>
      <trkpt lat="47.27885" lon="7.81761">
        <ele>432.3</ele>
        <time>2022-10-01T14:12:11Z</time>
      </trkpt>
      <trkpt lat="47.27881" lon="7.81766">
        <ele>432.3</ele>
        <time>2022-10-01T14:12:12Z</time>
      </trkpt>
      <trkpt lat="47.27878" lon="7.8177">
        <ele>432.3</ele>
        <time>2022-10-01T14:12:13Z</time>
      </trkpt>
      <trkpt lat="47.27875" lon="7.81775">
        <ele>432.3</ele>
        <time>2022-10-01T14:12:14Z</time>
      </trkpt>
      <trkpt lat="47.27872" lon="7.8178">
        <ele>432.3</ele>
        <time>2022-10-01T14:12:15Z</time>
      </trkpt>
      <trkpt lat="47.27869" lon="7.81785">
        <ele>432.3</ele>
        <time>2022-10-01T14:12:16Z</time>
      </trkpt>
      <trkpt lat="47.27866" lon="7.8179">
        <ele>432.3</ele>
        <time>2022-10-01T14:12:17Z</time>
      </trkpt>
      <trkpt lat="47.27862" lon="7.81795">
        <ele>432.3</ele>
        <time>2022-10-01T14:12:18Z</time>
      </trkpt>
      <trkpt lat="47.27859" lon="7.81801">
        <ele>432.2</ele>
        <time>2022-10-01T14:12:19Z</time>
      </trkpt>
      <trkpt lat="47.27856" lon="7.81805">
        <ele>432.2</ele>
        <time>2022-10-01T14:12:20Z</time>
      </trkpt>
      <trkpt lat="47.27853" lon="7.8181">
        <ele>432.2</ele>
        <time>2022-10-01T14:12:21Z</time>
      </trkpt>
      <trkpt lat="47.2785" lon="7.81816">
        <ele>432.2</ele>
        <time>2022-10-01T14:12:22Z</time>
      </trkpt>
      <trkpt lat="47.27846" lon="7.8182">
        <ele>432.2</ele>
        <time>2022-10-01T14:12:23Z</time>
      </trkpt>
      <trkpt lat="47.27843" lon="7.81825">
        <ele>432.2</ele>
        <time>2022-10-01T14:12:24Z</time>
      </trkpt>
      <trkpt lat="47.2784" lon="7.81829">
        <ele>432.2</ele>
        <time>2022-10-01T14:12:25Z</time>
      </trkpt>
      <trkpt lat="47.27837" lon="7.81833">
        <ele>432.2</ele>
        <time>2022-10-01T14:12:26Z</time>
      </trkpt>
      <trkpt lat="47.27834" lon="7.81836">
        <ele>432.2</ele>
        <time>2022-10-01T14:12:27Z</time>
      </trkpt>
      <trkpt lat="47.27832" lon="7.8184">
        <ele>432.2</ele>
        <time>2022-10-01T14:12:28Z</time>
      </trkpt>
      <trkpt lat="47.27831" lon="7.81845">
        <ele>432.2</ele>
        <time>2022-10-01T14:12:29Z</time>
      </trkpt>
      <trkpt lat="47.2783" lon="7.81849">
        <ele>432.2</ele>
        <time>2022-10-01T14:12:30Z</time>
      </trkpt>
      <trkpt lat="47.2783" lon="7.81853">
        <ele>432.1</ele>
        <time>2022-10-01T14:12:31Z</time>
      </trkpt>
      <trkpt lat="47.2783" lon="7.81857">
        <ele>432</ele>
        <time>2022-10-01T14:12:32Z</time>
      </trkpt>
      <trkpt lat="47.27831" lon="7.81861">
        <ele>431.9</ele>
        <time>2022-10-01T14:12:33Z</time>
      </trkpt>
      <trkpt lat="47.27832" lon="7.81866">
        <ele>431.8</ele>
        <time>2022-10-01T14:12:34Z</time>
      </trkpt>
      <trkpt lat="47.27834" lon="7.81871">
        <ele>431.7</ele>
        <time>2022-10-01T14:12:35Z</time>
      </trkpt>
      <trkpt lat="47.27835" lon="7.81875">
        <ele>431.7</ele>
        <time>2022-10-01T14:12:36Z</time>
      </trkpt>
      <trkpt lat="47.27837" lon="7.8188">
        <ele>431.6</ele>
        <time>2022-10-01T14:12:37Z</time>
      </trkpt>
      <trkpt lat="47.27839" lon="7.81885">
        <ele>431.4</ele>
        <time>2022-10-01T14:12:38Z</time>
      </trkpt>
      <trkpt lat="47.27841" lon="7.8189">
        <ele>431.3</ele>
        <time>2022-10-01T14:12:39Z</time>
      </trkpt>
      <trkpt lat="47.27843" lon="7.81895">
        <ele>431.3</ele>
        <time>2022-10-01T14:12:40Z</time>
      </trkpt>
      <trkpt lat="47.27846" lon="7.81901">
        <ele>431.2</ele>
        <time>2022-10-01T14:12:41Z</time>
      </trkpt>
      <trkpt lat="47.27847" lon="7.81906">
        <ele>431.1</ele>
        <time>2022-10-01T14:12:42Z</time>
      </trkpt>
      <trkpt lat="47.2785" lon="7.81912">
        <ele>431</ele>
        <time>2022-10-01T14:12:43Z</time>
      </trkpt>
      <trkpt lat="47.27852" lon="7.81917">
        <ele>430.9</ele>
        <time>2022-10-01T14:12:44Z</time>
      </trkpt>
      <trkpt lat="47.27854" lon="7.81923">
        <ele>430.9</ele>
        <time>2022-10-01T14:12:45Z</time>
      </trkpt>
      <trkpt lat="47.27857" lon="7.81929">
        <ele>430.8</ele>
        <time>2022-10-01T14:12:46Z</time>
      </trkpt>
      <trkpt lat="47.27859" lon="7.81934">
        <ele>430.7</ele>
        <time>2022-10-01T14:12:47Z</time>
      </trkpt>
      <trkpt lat="47.27861" lon="7.8194">
        <ele>430.7</ele>
        <time>2022-10-01T14:12:48Z</time>
      </trkpt>
      <trkpt lat="47.27864" lon="7.81945">
        <ele>430.7</ele>
        <time>2022-10-01T14:12:49Z</time>
      </trkpt>
      <trkpt lat="47.27867" lon="7.8195">
        <ele>430.6</ele>
        <time>2022-10-01T14:12:50Z</time>
      </trkpt>
      <trkpt lat="47.27869" lon="7.81957">
        <ele>430.6</ele>
        <time>2022-10-01T14:12:51Z</time>
      </trkpt>
      <trkpt lat="47.27871" lon="7.81963">
        <ele>430.5</ele>
        <time>2022-10-01T14:12:52Z</time>
      </trkpt>
      <trkpt lat="47.27874" lon="7.8197">
        <ele>430.5</ele>
        <time>2022-10-01T14:12:53Z</time>
      </trkpt>
      <trkpt lat="47.27877" lon="7.81976">
        <ele>430.4</ele>
        <time>2022-10-01T14:12:54Z</time>
      </trkpt>
      <trkpt lat="47.2788" lon="7.81983">
        <ele>430.4</ele>
        <time>2022-10-01T14:12:55Z</time>
      </trkpt>
      <trkpt lat="47.27883" lon="7.81989">
        <ele>430.4</ele>
        <time>2022-10-01T14:12:56Z</time>
      </trkpt>
      <trkpt lat="47.27886" lon="7.81996">
        <ele>430.3</ele>
        <time>2022-10-01T14:12:57Z</time>
      </trkpt>
      <trkpt lat="47.27889" lon="7.82004">
        <ele>430.3</ele>
        <time>2022-10-01T14:12:58Z</time>
      </trkpt>
      <trkpt lat="47.27892" lon="7.82011">
        <ele>430.3</ele>
        <time>2022-10-01T14:12:59Z</time>
      </trkpt>
      <trkpt lat="47.27895" lon="7.82018">
        <ele>430.3</ele>
        <time>2022-10-01T14:13:00Z</time>
      </trkpt>
      <trkpt lat="47.27898" lon="7.82026">
        <ele>430.3</ele>
        <time>2022-10-01T14:13:01Z</time>
      </trkpt>
      <trkpt lat="47.27901" lon="7.82033">
        <ele>430.3</ele>
        <time>2022-10-01T14:13:02Z</time>
      </trkpt>
      <trkpt lat="47.27905" lon="7.82041">
        <ele>430.2</ele>
        <time>2022-10-01T14:13:03Z</time>
      </trkpt>
      <trkpt lat="47.27908" lon="7.82049">
        <ele>430.1</ele>
        <time>2022-10-01T14:13:04Z</time>
      </trkpt>
      <trkpt lat="47.27912" lon="7.82057">
        <ele>430.1</ele>
        <time>2022-10-01T14:13:06Z</time>
      </trkpt>
      <trkpt lat="47.27918" lon="7.82073">
        <ele>429.9</ele>
        <time>2022-10-01T14:13:07Z</time>
      </trkpt>
      <trkpt lat="47.27922" lon="7.82081">
        <ele>429.9</ele>
        <time>2022-10-01T14:13:08Z</time>
      </trkpt>
      <trkpt lat="47.27926" lon="7.82088">
        <ele>429.8</ele>
        <time>2022-10-01T14:13:09Z</time>
      </trkpt>
      <trkpt lat="47.27929" lon="7.82096">
        <ele>429.8</ele>
        <time>2022-10-01T14:13:10Z</time>
      </trkpt>
      <trkpt lat="47.27932" lon="7.82104">
        <ele>429.7</ele>
        <time>2022-10-01T14:13:11Z</time>
      </trkpt>
      <trkpt lat="47.27936" lon="7.82112">
        <ele>429.7</ele>
        <time>2022-10-01T14:13:12Z</time>
      </trkpt>
      <trkpt lat="47.27939" lon="7.82118">
        <ele>429.7</ele>
        <time>2022-10-01T14:13:13Z</time>
      </trkpt>
      <trkpt lat="47.27943" lon="7.82128">
        <ele>429.7</ele>
        <time>2022-10-01T14:13:14Z</time>
      </trkpt>
      <trkpt lat="47.27946" lon="7.82135">
        <ele>429.7</ele>
        <time>2022-10-01T14:13:15Z</time>
      </trkpt>
      <trkpt lat="47.27948" lon="7.82143">
        <ele>429.8</ele>
        <time>2022-10-01T14:13:16Z</time>
      </trkpt>
      <trkpt lat="47.27951" lon="7.82151">
        <ele>429.8</ele>
        <time>2022-10-01T14:13:17Z</time>
      </trkpt>
      <trkpt lat="47.27953" lon="7.82158">
        <ele>429.8</ele>
        <time>2022-10-01T14:13:18Z</time>
      </trkpt>
      <trkpt lat="47.27956" lon="7.82166">
        <ele>429.9</ele>
        <time>2022-10-01T14:13:20Z</time>
      </trkpt>
      <trkpt lat="47.27962" lon="7.82183">
        <ele>429.9</ele>
        <time>2022-10-01T14:13:21Z</time>
      </trkpt>
      <trkpt lat="47.27965" lon="7.8219">
        <ele>430</ele>
        <time>2022-10-01T14:13:22Z</time>
      </trkpt>
      <trkpt lat="47.27968" lon="7.82198">
        <ele>430</ele>
        <time>2022-10-01T14:13:23Z</time>
      </trkpt>
      <trkpt lat="47.27971" lon="7.82206">
        <ele>430</ele>
        <time>2022-10-01T14:13:24Z</time>
      </trkpt>
      <trkpt lat="47.27974" lon="7.82214">
        <ele>430.1</ele>
        <time>2022-10-01T14:13:25Z</time>
      </trkpt>
      <trkpt lat="47.27977" lon="7.82221">
        <ele>430.1</ele>
        <time>2022-10-01T14:13:26Z</time>
      </trkpt>
      <trkpt lat="47.2798" lon="7.82229">
        <ele>430.2</ele>
        <time>2022-10-01T14:13:27Z</time>
      </trkpt>
      <trkpt lat="47.27983" lon="7.82237">
        <ele>430.2</ele>
        <time>2022-10-01T14:13:28Z</time>
      </trkpt>
      <trkpt lat="47.27986" lon="7.82245">
        <ele>430.2</ele>
        <time>2022-10-01T14:13:29Z</time>
      </trkpt>
      <trkpt lat="47.27989" lon="7.82252">
        <ele>430.3</ele>
        <time>2022-10-01T14:13:30Z</time>
      </trkpt>
      <trkpt lat="47.27992" lon="7.8226">
        <ele>430.3</ele>
        <time>2022-10-01T14:13:31Z</time>
      </trkpt>
      <trkpt lat="47.27996" lon="7.82268">
        <ele>430.4</ele>
        <time>2022-10-01T14:13:32Z</time>
      </trkpt>
      <trkpt lat="47.27999" lon="7.82275">
        <ele>430.4</ele>
        <time>2022-10-01T14:13:33Z</time>
      </trkpt>
      <trkpt lat="47.28002" lon="7.82283">
        <ele>430.4</ele>
        <time>2022-10-01T14:13:34Z</time>
      </trkpt>
      <trkpt lat="47.28005" lon="7.8229">
        <ele>430.5</ele>
        <time>2022-10-01T14:13:35Z</time>
      </trkpt>
      <trkpt lat="47.28008" lon="7.82298">
        <ele>430.5</ele>
        <time>2022-10-01T14:13:36Z</time>
      </trkpt>
      <trkpt lat="47.28011" lon="7.82306">
        <ele>430.6</ele>
        <time>2022-10-01T14:13:37Z</time>
      </trkpt>
      <trkpt lat="47.28014" lon="7.82314">
        <ele>430.6</ele>
        <time>2022-10-01T14:13:38Z</time>
      </trkpt>
      <trkpt lat="47.28018" lon="7.82321">
        <ele>430.7</ele>
        <time>2022-10-01T14:13:39Z</time>
      </trkpt>
      <trkpt lat="47.28021" lon="7.82329">
        <ele>430.7</ele>
        <time>2022-10-01T14:13:40Z</time>
      </trkpt>
      <trkpt lat="47.28024" lon="7.82337">
        <ele>430.8</ele>
        <time>2022-10-01T14:13:41Z</time>
      </trkpt>
      <trkpt lat="47.28027" lon="7.82345">
        <ele>430.9</ele>
        <time>2022-10-01T14:13:42Z</time>
      </trkpt>
      <trkpt lat="47.2803" lon="7.82353">
        <ele>431</ele>
        <time>2022-10-01T14:13:43Z</time>
      </trkpt>
      <trkpt lat="47.28033" lon="7.8236">
        <ele>431.1</ele>
        <time>2022-10-01T14:13:44Z</time>
      </trkpt>
      <trkpt lat="47.28036" lon="7.82368">
        <ele>431.2</ele>
        <time>2022-10-01T14:13:45Z</time>
      </trkpt>
      <trkpt lat="47.28039" lon="7.82375">
        <ele>431.2</ele>
        <time>2022-10-01T14:13:46Z</time>
      </trkpt>
      <trkpt lat="47.28042" lon="7.82383">
        <ele>431.3</ele>
        <time>2022-10-01T14:13:47Z</time>
      </trkpt>
      <trkpt lat="47.28045" lon="7.8239">
        <ele>431.4</ele>
        <time>2022-10-01T14:13:48Z</time>
      </trkpt>
      <trkpt lat="47.28048" lon="7.82397">
        <ele>431.4</ele>
        <time>2022-10-01T14:13:49Z</time>
      </trkpt>
      <trkpt lat="47.28051" lon="7.82405">
        <ele>431.4</ele>
        <time>2022-10-01T14:13:50Z</time>
      </trkpt>
      <trkpt lat="47.28054" lon="7.82412">
        <ele>431.4</ele>
        <time>2022-10-01T14:13:51Z</time>
      </trkpt>
      <trkpt lat="47.28057" lon="7.82419">
        <ele>431.4</ele>
        <time>2022-10-01T14:13:52Z</time>
      </trkpt>
      <trkpt lat="47.28061" lon="7.82426">
        <ele>431.3</ele>
        <time>2022-10-01T14:13:53Z</time>
      </trkpt>
      <trkpt lat="47.28064" lon="7.82434">
        <ele>431.2</ele>
        <time>2022-10-01T14:13:54Z</time>
      </trkpt>
      <trkpt lat="47.28067" lon="7.82442">
        <ele>431.2</ele>
        <time>2022-10-01T14:13:55Z</time>
      </trkpt>
      <trkpt lat="47.28071" lon="7.8245">
        <ele>431.1</ele>
        <time>2022-10-01T14:13:56Z</time>
      </trkpt>
      <trkpt lat="47.28074" lon="7.82458">
        <ele>431.1</ele>
        <time>2022-10-01T14:13:57Z</time>
      </trkpt>
      <trkpt lat="47.28077" lon="7.82465">
        <ele>431.2</ele>
        <time>2022-10-01T14:13:58Z</time>
      </trkpt>
      <trkpt lat="47.2808" lon="7.82473">
        <ele>431.2</ele>
        <time>2022-10-01T14:13:59Z</time>
      </trkpt>
      <trkpt lat="47.28084" lon="7.8248">
        <ele>431.2</ele>
        <time>2022-10-01T14:14:00Z</time>
      </trkpt>
      <trkpt lat="47.28087" lon="7.82488">
        <ele>431.2</ele>
        <time>2022-10-01T14:14:01Z</time>
      </trkpt>
      <trkpt lat="47.2809" lon="7.82495">
        <ele>431.2</ele>
        <time>2022-10-01T14:14:02Z</time>
      </trkpt>
      <trkpt lat="47.28093" lon="7.82503">
        <ele>431.2</ele>
        <time>2022-10-01T14:14:03Z</time>
      </trkpt>
      <trkpt lat="47.28096" lon="7.82509">
        <ele>431.2</ele>
        <time>2022-10-01T14:14:04Z</time>
      </trkpt>
      <trkpt lat="47.28099" lon="7.82516">
        <ele>431.1</ele>
        <time>2022-10-01T14:14:05Z</time>
      </trkpt>
      <trkpt lat="47.28102" lon="7.82524">
        <ele>431.1</ele>
        <time>2022-10-01T14:14:06Z</time>
      </trkpt>
      <trkpt lat="47.28105" lon="7.82531">
        <ele>431.1</ele>
        <time>2022-10-01T14:14:07Z</time>
      </trkpt>
      <trkpt lat="47.28108" lon="7.82538">
        <ele>431.1</ele>
        <time>2022-10-01T14:14:08Z</time>
      </trkpt>
      <trkpt lat="47.28111" lon="7.82545">
        <ele>431.1</ele>
        <time>2022-10-01T14:14:09Z</time>
      </trkpt>
      <trkpt lat="47.28114" lon="7.82552">
        <ele>431.1</ele>
        <time>2022-10-01T14:14:10Z</time>
      </trkpt>
      <trkpt lat="47.28117" lon="7.8256">
        <ele>431</ele>
        <time>2022-10-01T14:14:11Z</time>
      </trkpt>
      <trkpt lat="47.2812" lon="7.82567">
        <ele>431</ele>
        <time>2022-10-01T14:14:12Z</time>
      </trkpt>
      <trkpt lat="47.28123" lon="7.82574">
        <ele>431</ele>
        <time>2022-10-01T14:14:13Z</time>
      </trkpt>
      <trkpt lat="47.28126" lon="7.82581">
        <ele>431</ele>
        <time>2022-10-01T14:14:14Z</time>
      </trkpt>
      <trkpt lat="47.28129" lon="7.82588">
        <ele>431</ele>
        <time>2022-10-01T14:14:15Z</time>
      </trkpt>
      <trkpt lat="47.28132" lon="7.82594">
        <ele>431</ele>
        <time>2022-10-01T14:14:16Z</time>
      </trkpt>
      <trkpt lat="47.28135" lon="7.82601">
        <ele>431</ele>
        <time>2022-10-01T14:14:17Z</time>
      </trkpt>
      <trkpt lat="47.28138" lon="7.82607">
        <ele>431</ele>
        <time>2022-10-01T14:14:18Z</time>
      </trkpt>
      <trkpt lat="47.28141" lon="7.82613">
        <ele>431</ele>
        <time>2022-10-01T14:14:19Z</time>
      </trkpt>
      <trkpt lat="47.28144" lon="7.8262">
        <ele>431</ele>
        <time>2022-10-01T14:14:20Z</time>
      </trkpt>
      <trkpt lat="47.28147" lon="7.82627">
        <ele>431</ele>
        <time>2022-10-01T14:14:21Z</time>
      </trkpt>
      <trkpt lat="47.2815" lon="7.82634">
        <ele>430.9</ele>
        <time>2022-10-01T14:14:22Z</time>
      </trkpt>
      <trkpt lat="47.28153" lon="7.8264">
        <ele>430.9</ele>
        <time>2022-10-01T14:14:23Z</time>
      </trkpt>
      <trkpt lat="47.28156" lon="7.82647">
        <ele>430.9</ele>
        <time>2022-10-01T14:14:24Z</time>
      </trkpt>
      <trkpt lat="47.28158" lon="7.82654">
        <ele>430.9</ele>
        <time>2022-10-01T14:14:25Z</time>
      </trkpt>
      <trkpt lat="47.28162" lon="7.82661">
        <ele>430.8</ele>
        <time>2022-10-01T14:14:26Z</time>
      </trkpt>
      <trkpt lat="47.28165" lon="7.82668">
        <ele>430.8</ele>
        <time>2022-10-01T14:14:27Z</time>
      </trkpt>
      <trkpt lat="47.28167" lon="7.82675">
        <ele>430.8</ele>
        <time>2022-10-01T14:14:28Z</time>
      </trkpt>
      <trkpt lat="47.28171" lon="7.82683">
        <ele>430.7</ele>
        <time>2022-10-01T14:14:29Z</time>
      </trkpt>
      <trkpt lat="47.28174" lon="7.8269">
        <ele>430.7</ele>
        <time>2022-10-01T14:14:30Z</time>
      </trkpt>
      <trkpt lat="47.28177" lon="7.82697">
        <ele>430.6</ele>
        <time>2022-10-01T14:14:31Z</time>
      </trkpt>
      <trkpt lat="47.2818" lon="7.82704">
        <ele>430.6</ele>
        <time>2022-10-01T14:14:32Z</time>
      </trkpt>
      <trkpt lat="47.28183" lon="7.82711">
        <ele>430.5</ele>
        <time>2022-10-01T14:14:33Z</time>
      </trkpt>
      <trkpt lat="47.28186" lon="7.82717">
        <ele>430.5</ele>
        <time>2022-10-01T14:14:34Z</time>
      </trkpt>
      <trkpt lat="47.28189" lon="7.82723">
        <ele>430.5</ele>
        <time>2022-10-01T14:14:35Z</time>
      </trkpt>
      <trkpt lat="47.28193" lon="7.82729">
        <ele>430.4</ele>
        <time>2022-10-01T14:14:36Z</time>
      </trkpt>
      <trkpt lat="47.28196" lon="7.82736">
        <ele>430.4</ele>
        <time>2022-10-01T14:14:37Z</time>
      </trkpt>
      <trkpt lat="47.28198" lon="7.82742">
        <ele>430.4</ele>
        <time>2022-10-01T14:14:38Z</time>
      </trkpt>
      <trkpt lat="47.28203" lon="7.8275">
        <ele>430.3</ele>
        <time>2022-10-01T14:14:39Z</time>
      </trkpt>
      <trkpt lat="47.28204" lon="7.82757">
        <ele>430.3</ele>
        <time>2022-10-01T14:14:40Z</time>
      </trkpt>
      <trkpt lat="47.28207" lon="7.82764">
        <ele>430.3</ele>
        <time>2022-10-01T14:14:41Z</time>
      </trkpt>
      <trkpt lat="47.28209" lon="7.82772">
        <ele>430.3</ele>
        <time>2022-10-01T14:14:42Z</time>
      </trkpt>
      <trkpt lat="47.2821" lon="7.82779">
        <ele>430.2</ele>
        <time>2022-10-01T14:14:43Z</time>
      </trkpt>
      <trkpt lat="47.28212" lon="7.82788">
        <ele>430.2</ele>
        <time>2022-10-01T14:14:44Z</time>
      </trkpt>
      <trkpt lat="47.28212" lon="7.82797">
        <ele>430.2</ele>
        <time>2022-10-01T14:14:45Z</time>
      </trkpt>
      <trkpt lat="47.28213" lon="7.82805">
        <ele>430.2</ele>
        <time>2022-10-01T14:14:46Z</time>
      </trkpt>
      <trkpt lat="47.28214" lon="7.82813">
        <ele>430.1</ele>
        <time>2022-10-01T14:14:47Z</time>
      </trkpt>
      <trkpt lat="47.28215" lon="7.82821">
        <ele>430.1</ele>
        <time>2022-10-01T14:14:48Z</time>
      </trkpt>
      <trkpt lat="47.28216" lon="7.8283">
        <ele>430.1</ele>
        <time>2022-10-01T14:14:49Z</time>
      </trkpt>
      <trkpt lat="47.28217" lon="7.82838">
        <ele>430.1</ele>
        <time>2022-10-01T14:14:50Z</time>
      </trkpt>
      <trkpt lat="47.28218" lon="7.82846">
        <ele>430.2</ele>
        <time>2022-10-01T14:14:51Z</time>
      </trkpt>
      <trkpt lat="47.28219" lon="7.82854">
        <ele>430.2</ele>
        <time>2022-10-01T14:14:52Z</time>
      </trkpt>
      <trkpt lat="47.2822" lon="7.82862">
        <ele>430.2</ele>
        <time>2022-10-01T14:14:53Z</time>
      </trkpt>
      <trkpt lat="47.28221" lon="7.8287">
        <ele>430.3</ele>
        <time>2022-10-01T14:14:54Z</time>
      </trkpt>
      <trkpt lat="47.28221" lon="7.82878">
        <ele>430.3</ele>
        <time>2022-10-01T14:14:55Z</time>
      </trkpt>
      <trkpt lat="47.28223" lon="7.82886">
        <ele>430.4</ele>
        <time>2022-10-01T14:14:56Z</time>
      </trkpt>
      <trkpt lat="47.28223" lon="7.82894">
        <ele>430.4</ele>
        <time>2022-10-01T14:14:57Z</time>
      </trkpt>
      <trkpt lat="47.28224" lon="7.82901">
        <ele>430.4</ele>
        <time>2022-10-01T14:14:58Z</time>
      </trkpt>
      <trkpt lat="47.28225" lon="7.82909">
        <ele>430.4</ele>
        <time>2022-10-01T14:14:59Z</time>
      </trkpt>
      <trkpt lat="47.28225" lon="7.82916">
        <ele>430.5</ele>
        <time>2022-10-01T14:15:00Z</time>
      </trkpt>
      <trkpt lat="47.28226" lon="7.82924">
        <ele>430.5</ele>
        <time>2022-10-01T14:15:01Z</time>
      </trkpt>
      <trkpt lat="47.28227" lon="7.82931">
        <ele>430.5</ele>
        <time>2022-10-01T14:15:02Z</time>
      </trkpt>
      <trkpt lat="47.28228" lon="7.82939">
        <ele>430.5</ele>
        <time>2022-10-01T14:15:03Z</time>
      </trkpt>
      <trkpt lat="47.28229" lon="7.82946">
        <ele>430.6</ele>
        <time>2022-10-01T14:15:04Z</time>
      </trkpt>
      <trkpt lat="47.28229" lon="7.82954">
        <ele>430.6</ele>
        <time>2022-10-01T14:15:05Z</time>
      </trkpt>
      <trkpt lat="47.2823" lon="7.82961">
        <ele>430.6</ele>
        <time>2022-10-01T14:15:06Z</time>
      </trkpt>
      <trkpt lat="47.28231" lon="7.82969">
        <ele>430.5</ele>
        <time>2022-10-01T14:15:07Z</time>
      </trkpt>
      <trkpt lat="47.28231" lon="7.82976">
        <ele>430.4</ele>
        <time>2022-10-01T14:15:08Z</time>
      </trkpt>
      <trkpt lat="47.28231" lon="7.82985">
        <ele>430.3</ele>
        <time>2022-10-01T14:15:10Z</time>
      </trkpt>
      <trkpt lat="47.28232" lon="7.82992">
        <ele>430.2</ele>
        <time>2022-10-01T14:15:11Z</time>
      </trkpt>
      <trkpt lat="47.28233" lon="7.83">
        <ele>430.1</ele>
        <time>2022-10-01T14:15:12Z</time>
      </trkpt>
      <trkpt lat="47.28233" lon="7.83008">
        <ele>430</ele>
        <time>2022-10-01T14:15:13Z</time>
      </trkpt>
      <trkpt lat="47.28233" lon="7.83016">
        <ele>429.9</ele>
        <time>2022-10-01T14:15:14Z</time>
      </trkpt>
      <trkpt lat="47.28234" lon="7.83023">
        <ele>429.8</ele>
        <time>2022-10-01T14:15:15Z</time>
      </trkpt>
      <trkpt lat="47.28235" lon="7.83028">
        <ele>429.8</ele>
        <time>2022-10-01T14:15:16Z</time>
      </trkpt>
      <trkpt lat="47.28235" lon="7.83033">
        <ele>429.8</ele>
        <time>2022-10-01T14:15:17Z</time>
      </trkpt>
      <trkpt lat="47.28234" lon="7.83038">
        <ele>429.7</ele>
        <time>2022-10-01T14:15:18Z</time>
      </trkpt>
      <trkpt lat="47.28235" lon="7.83042">
        <ele>429.7</ele>
        <time>2022-10-01T14:15:19Z</time>
      </trkpt>
      <trkpt lat="47.28236" lon="7.83048">
        <ele>429.6</ele>
        <time>2022-10-01T14:15:20Z</time>
      </trkpt>
      <trkpt lat="47.28236" lon="7.8305">
        <ele>429.6</ele>
        <time>2022-10-01T14:15:21Z</time>
      </trkpt>
      <trkpt lat="47.28235" lon="7.83051">
        <ele>429.6</ele>
        <time>2022-10-01T14:15:22Z</time>
      </trkpt>
      <trkpt lat="47.28235" lon="7.83052">
        <ele>429.6</ele>
        <time>2022-10-01T14:15:23Z</time>
      </trkpt>
      <trkpt lat="47.28235" lon="7.83054">
        <ele>429.6</ele>
        <time>2022-10-01T14:15:24Z</time>
      </trkpt>
      <trkpt lat="47.28235" lon="7.83055">
        <ele>429.6</ele>
        <time>2022-10-01T14:15:25Z</time>
      </trkpt>
      <trkpt lat="47.28234" lon="7.83056">
        <ele>429.6</ele>
        <time>2022-10-01T14:15:26Z</time>
      </trkpt>
      <trkpt lat="47.28234" lon="7.83056">
        <ele>429.6</ele>
        <time>2022-10-01T14:15:27Z</time>
      </trkpt>
      <trkpt lat="47.28234" lon="7.83057">
        <ele>429.6</ele>
        <time>2022-10-01T14:15:28Z</time>
      </trkpt>
      <trkpt lat="47.28234" lon="7.83058">
        <ele>429.6</ele>
        <time>2022-10-01T14:15:29Z</time>
      </trkpt>
      <trkpt lat="47.28231" lon="7.8306">
        <ele>429.6</ele>
        <time>2022-10-01T14:15:30Z</time>
      </trkpt>
      <trkpt lat="47.28229" lon="7.8306">
        <ele>429.6</ele>
        <time>2022-10-01T14:15:31Z</time>
      </trkpt>
      <trkpt lat="47.28226" lon="7.8306">
        <ele>429.6</ele>
        <time>2022-10-01T14:15:32Z</time>
      </trkpt>
      <trkpt lat="47.28224" lon="7.8306">
        <ele>429.6</ele>
        <time>2022-10-01T14:15:33Z</time>
      </trkpt>
      <trkpt lat="47.2822" lon="7.8306">
        <ele>429.6</ele>
        <time>2022-10-01T14:15:34Z</time>
      </trkpt>
      <trkpt lat="47.28219" lon="7.83059">
        <ele>429.5</ele>
        <time>2022-10-01T14:15:35Z</time>
      </trkpt>
      <trkpt lat="47.28216" lon="7.83059">
        <ele>429.5</ele>
        <time>2022-10-01T14:15:36Z</time>
      </trkpt>
      <trkpt lat="47.28212" lon="7.83061">
        <ele>429.5</ele>
        <time>2022-10-01T14:15:37Z</time>
      </trkpt>
      <trkpt lat="47.28208" lon="7.83061">
        <ele>429.5</ele>
        <time>2022-10-01T14:15:38Z</time>
      </trkpt>
      <trkpt lat="47.28205" lon="7.8306">
        <ele>429.5</ele>
        <time>2022-10-01T14:15:39Z</time>
      </trkpt>
      <trkpt lat="47.28201" lon="7.83061">
        <ele>429.5</ele>
        <time>2022-10-01T14:15:40Z</time>
      </trkpt>
      <trkpt lat="47.28197" lon="7.83061">
        <ele>429.5</ele>
        <time>2022-10-01T14:15:41Z</time>
      </trkpt>
      <trkpt lat="47.28194" lon="7.83062">
        <ele>429.5</ele>
        <time>2022-10-01T14:15:42Z</time>
      </trkpt>
      <trkpt lat="47.2819" lon="7.83062">
        <ele>429.4</ele>
        <time>2022-10-01T14:15:43Z</time>
      </trkpt>
      <trkpt lat="47.28185" lon="7.83062">
        <ele>429.4</ele>
        <time>2022-10-01T14:15:44Z</time>
      </trkpt>
      <trkpt lat="47.28181" lon="7.83063">
        <ele>429.4</ele>
        <time>2022-10-01T14:15:45Z</time>
      </trkpt>
      <trkpt lat="47.28177" lon="7.83063">
        <ele>429.3</ele>
        <time>2022-10-01T14:15:46Z</time>
      </trkpt>
      <trkpt lat="47.28172" lon="7.83063">
        <ele>429.3</ele>
        <time>2022-10-01T14:15:47Z</time>
      </trkpt>
      <trkpt lat="47.28167" lon="7.83063">
        <ele>429.3</ele>
        <time>2022-10-01T14:15:48Z</time>
      </trkpt>
      <trkpt lat="47.28163" lon="7.83064">
        <ele>429.2</ele>
        <time>2022-10-01T14:15:49Z</time>
      </trkpt>
      <trkpt lat="47.28159" lon="7.83064">
        <ele>429.2</ele>
        <time>2022-10-01T14:15:50Z</time>
      </trkpt>
      <trkpt lat="47.28154" lon="7.83064">
        <ele>429.1</ele>
        <time>2022-10-01T14:15:51Z</time>
      </trkpt>
      <trkpt lat="47.28151" lon="7.83065">
        <ele>429.1</ele>
        <time>2022-10-01T14:15:52Z</time>
      </trkpt>
      <trkpt lat="47.28148" lon="7.83065">
        <ele>429.1</ele>
        <time>2022-10-01T14:15:53Z</time>
      </trkpt>
      <trkpt lat="47.28145" lon="7.83065">
        <ele>429.1</ele>
        <time>2022-10-01T14:15:54Z</time>
      </trkpt>
      <trkpt lat="47.28141" lon="7.83065">
        <ele>429</ele>
        <time>2022-10-01T14:15:55Z</time>
      </trkpt>
      <trkpt lat="47.28138" lon="7.83067">
        <ele>429</ele>
        <time>2022-10-01T14:15:56Z</time>
      </trkpt>
      <trkpt lat="47.28137" lon="7.83071">
        <ele>429</ele>
        <time>2022-10-01T14:15:57Z</time>
      </trkpt>
      <trkpt lat="47.28135" lon="7.83076">
        <ele>428.6</ele>
        <time>2022-10-01T14:15:58Z</time>
      </trkpt>
      <trkpt lat="47.28135" lon="7.83078">
        <ele>428.6</ele>
        <time>2022-10-01T14:15:59Z</time>
      </trkpt>
      <trkpt lat="47.28136" lon="7.83083">
        <ele>428.5</ele>
        <time>2022-10-01T14:16:00Z</time>
      </trkpt>
      <trkpt lat="47.28137" lon="7.83087">
        <ele>428.4</ele>
        <time>2022-10-01T14:16:01Z</time>
      </trkpt>
      <trkpt lat="47.28139" lon="7.83092">
        <ele>428.2</ele>
        <time>2022-10-01T14:16:02Z</time>
      </trkpt>
      <trkpt lat="47.2814" lon="7.83096">
        <ele>428.2</ele>
        <time>2022-10-01T14:16:03Z</time>
      </trkpt>
      <trkpt lat="47.28141" lon="7.83101">
        <ele>428</ele>
        <time>2022-10-01T14:16:04Z</time>
      </trkpt>
      <trkpt lat="47.28143" lon="7.83108">
        <ele>428</ele>
        <time>2022-10-01T14:16:05Z</time>
      </trkpt>
      <trkpt lat="47.28144" lon="7.83114">
        <ele>427.9</ele>
        <time>2022-10-01T14:16:06Z</time>
      </trkpt>
      <trkpt lat="47.28145" lon="7.8312">
        <ele>427.8</ele>
        <time>2022-10-01T14:16:07Z</time>
      </trkpt>
      <trkpt lat="47.28145" lon="7.83126">
        <ele>427.7</ele>
        <time>2022-10-01T14:16:08Z</time>
      </trkpt>
      <trkpt lat="47.28146" lon="7.83132">
        <ele>427.7</ele>
        <time>2022-10-01T14:16:09Z</time>
      </trkpt>
      <trkpt lat="47.28146" lon="7.83138">
        <ele>427.6</ele>
        <time>2022-10-01T14:16:10Z</time>
      </trkpt>
      <trkpt lat="47.28147" lon="7.83144">
        <ele>427.5</ele>
        <time>2022-10-01T14:16:11Z</time>
      </trkpt>
      <trkpt lat="47.28148" lon="7.83151">
        <ele>427.5</ele>
        <time>2022-10-01T14:16:12Z</time>
      </trkpt>
      <trkpt lat="47.28148" lon="7.83157">
        <ele>427.4</ele>
        <time>2022-10-01T14:16:13Z</time>
      </trkpt>
      <trkpt lat="47.28149" lon="7.83162">
        <ele>427.3</ele>
        <time>2022-10-01T14:16:14Z</time>
      </trkpt>
      <trkpt lat="47.2815" lon="7.83168">
        <ele>427.3</ele>
        <time>2022-10-01T14:16:15Z</time>
      </trkpt>
      <trkpt lat="47.28151" lon="7.83172">
        <ele>427.3</ele>
        <time>2022-10-01T14:16:16Z</time>
      </trkpt>
      <trkpt lat="47.28152" lon="7.83176">
        <ele>427.2</ele>
        <time>2022-10-01T14:16:17Z</time>
      </trkpt>
      <trkpt lat="47.28154" lon="7.8318">
        <ele>427.2</ele>
        <time>2022-10-01T14:16:18Z</time>
      </trkpt>
      <trkpt lat="47.28155" lon="7.83184">
        <ele>427.2</ele>
        <time>2022-10-01T14:16:19Z</time>
      </trkpt>
      <trkpt lat="47.28156" lon="7.83189">
        <ele>427.2</ele>
        <time>2022-10-01T14:16:20Z</time>
      </trkpt>
      <trkpt lat="47.28157" lon="7.83193">
        <ele>427.2</ele>
        <time>2022-10-01T14:16:21Z</time>
      </trkpt>
      <trkpt lat="47.28159" lon="7.83198">
        <ele>427.2</ele>
        <time>2022-10-01T14:16:22Z</time>
      </trkpt>
      <trkpt lat="47.28161" lon="7.83203">
        <ele>427.2</ele>
        <time>2022-10-01T14:16:23Z</time>
      </trkpt>
      <trkpt lat="47.28163" lon="7.83208">
        <ele>427.1</ele>
        <time>2022-10-01T14:16:24Z</time>
      </trkpt>
      <trkpt lat="47.28165" lon="7.83213">
        <ele>427.1</ele>
        <time>2022-10-01T14:16:25Z</time>
      </trkpt>
      <trkpt lat="47.28168" lon="7.83218">
        <ele>427.2</ele>
        <time>2022-10-01T14:16:26Z</time>
      </trkpt>
      <trkpt lat="47.2817" lon="7.83223">
        <ele>427.2</ele>
        <time>2022-10-01T14:16:27Z</time>
      </trkpt>
      <trkpt lat="47.28173" lon="7.83229">
        <ele>427.2</ele>
        <time>2022-10-01T14:16:28Z</time>
      </trkpt>
      <trkpt lat="47.28175" lon="7.83234">
        <ele>427.2</ele>
        <time>2022-10-01T14:16:29Z</time>
      </trkpt>
      <trkpt lat="47.28177" lon="7.83239">
        <ele>427.2</ele>
        <time>2022-10-01T14:16:30Z</time>
      </trkpt>
      <trkpt lat="47.2818" lon="7.83244">
        <ele>427.2</ele>
        <time>2022-10-01T14:16:31Z</time>
      </trkpt>
      <trkpt lat="47.28182" lon="7.83248">
        <ele>427.2</ele>
        <time>2022-10-01T14:16:32Z</time>
      </trkpt>
      <trkpt lat="47.28185" lon="7.83253">
        <ele>427.2</ele>
        <time>2022-10-01T14:16:33Z</time>
      </trkpt>
      <trkpt lat="47.28188" lon="7.83259">
        <ele>427.3</ele>
        <time>2022-10-01T14:16:34Z</time>
      </trkpt>
      <trkpt lat="47.28191" lon="7.83263">
        <ele>427.3</ele>
        <time>2022-10-01T14:16:35Z</time>
      </trkpt>
      <trkpt lat="47.28193" lon="7.83269">
        <ele>427.3</ele>
        <time>2022-10-01T14:16:36Z</time>
      </trkpt>
      <trkpt lat="47.28196" lon="7.83273">
        <ele>427.3</ele>
        <time>2022-10-01T14:16:37Z</time>
      </trkpt>
      <trkpt lat="47.28199" lon="7.83278">
        <ele>427.4</ele>
        <time>2022-10-01T14:16:38Z</time>
      </trkpt>
      <trkpt lat="47.28202" lon="7.83283">
        <ele>427.4</ele>
        <time>2022-10-01T14:16:39Z</time>
      </trkpt>
      <trkpt lat="47.28205" lon="7.83288">
        <ele>427.4</ele>
        <time>2022-10-01T14:16:40Z</time>
      </trkpt>
      <trkpt lat="47.28208" lon="7.83293">
        <ele>427.4</ele>
        <time>2022-10-01T14:16:41Z</time>
      </trkpt>
      <trkpt lat="47.28211" lon="7.83299">
        <ele>427.4</ele>
        <time>2022-10-01T14:16:42Z</time>
      </trkpt>
      <trkpt lat="47.28215" lon="7.83303">
        <ele>427.5</ele>
        <time>2022-10-01T14:16:43Z</time>
      </trkpt>
      <trkpt lat="47.28218" lon="7.83308">
        <ele>427.5</ele>
        <time>2022-10-01T14:16:44Z</time>
      </trkpt>
      <trkpt lat="47.28221" lon="7.83313">
        <ele>427.5</ele>
        <time>2022-10-01T14:16:45Z</time>
      </trkpt>
      <trkpt lat="47.28224" lon="7.83318">
        <ele>427.5</ele>
        <time>2022-10-01T14:16:46Z</time>
      </trkpt>
      <trkpt lat="47.28227" lon="7.83323">
        <ele>427.5</ele>
        <time>2022-10-01T14:16:47Z</time>
      </trkpt>
      <trkpt lat="47.28231" lon="7.83328">
        <ele>427.5</ele>
        <time>2022-10-01T14:16:48Z</time>
      </trkpt>
      <trkpt lat="47.28234" lon="7.83333">
        <ele>427.6</ele>
        <time>2022-10-01T14:16:49Z</time>
      </trkpt>
      <trkpt lat="47.28237" lon="7.83339">
        <ele>427.6</ele>
        <time>2022-10-01T14:16:50Z</time>
      </trkpt>
      <trkpt lat="47.2824" lon="7.83344">
        <ele>427.6</ele>
        <time>2022-10-01T14:16:51Z</time>
      </trkpt>
      <trkpt lat="47.28243" lon="7.8335">
        <ele>427.7</ele>
        <time>2022-10-01T14:16:52Z</time>
      </trkpt>
      <trkpt lat="47.28245" lon="7.83355">
        <ele>427.7</ele>
        <time>2022-10-01T14:16:53Z</time>
      </trkpt>
      <trkpt lat="47.28248" lon="7.8336">
        <ele>427.8</ele>
        <time>2022-10-01T14:16:54Z</time>
      </trkpt>
      <trkpt lat="47.2825" lon="7.83366">
        <ele>427.8</ele>
        <time>2022-10-01T14:16:55Z</time>
      </trkpt>
      <trkpt lat="47.28252" lon="7.83371">
        <ele>427.9</ele>
        <time>2022-10-01T14:16:56Z</time>
      </trkpt>
      <trkpt lat="47.28254" lon="7.83376">
        <ele>427.9</ele>
        <time>2022-10-01T14:16:57Z</time>
      </trkpt>
      <trkpt lat="47.28256" lon="7.83382">
        <ele>428</ele>
        <time>2022-10-01T14:16:58Z</time>
      </trkpt>
      <trkpt lat="47.28258" lon="7.83387">
        <ele>428</ele>
        <time>2022-10-01T14:16:59Z</time>
      </trkpt>
      <trkpt lat="47.2826" lon="7.83393">
        <ele>428</ele>
        <time>2022-10-01T14:17:00Z</time>
      </trkpt>
      <trkpt lat="47.28263" lon="7.83398">
        <ele>428</ele>
        <time>2022-10-01T14:17:01Z</time>
      </trkpt>
      <trkpt lat="47.28265" lon="7.83404">
        <ele>428</ele>
        <time>2022-10-01T14:17:02Z</time>
      </trkpt>
      <trkpt lat="47.28267" lon="7.83409">
        <ele>428.1</ele>
        <time>2022-10-01T14:17:03Z</time>
      </trkpt>
      <trkpt lat="47.28269" lon="7.83414">
        <ele>428.1</ele>
        <time>2022-10-01T14:17:04Z</time>
      </trkpt>
      <trkpt lat="47.28271" lon="7.8342">
        <ele>428.1</ele>
        <time>2022-10-01T14:17:05Z</time>
      </trkpt>
      <trkpt lat="47.28274" lon="7.83426">
        <ele>428</ele>
        <time>2022-10-01T14:17:06Z</time>
      </trkpt>
      <trkpt lat="47.28276" lon="7.83431">
        <ele>428</ele>
        <time>2022-10-01T14:17:07Z</time>
      </trkpt>
      <trkpt lat="47.28278" lon="7.83438">
        <ele>428</ele>
        <time>2022-10-01T14:17:08Z</time>
      </trkpt>
      <trkpt lat="47.28281" lon="7.83443">
        <ele>428</ele>
        <time>2022-10-01T14:17:09Z</time>
      </trkpt>
      <trkpt lat="47.28283" lon="7.8345">
        <ele>428</ele>
        <time>2022-10-01T14:17:10Z</time>
      </trkpt>
      <trkpt lat="47.28285" lon="7.83455">
        <ele>428</ele>
        <time>2022-10-01T14:17:11Z</time>
      </trkpt>
      <trkpt lat="47.28287" lon="7.83461">
        <ele>428</ele>
        <time>2022-10-01T14:17:12Z</time>
      </trkpt>
      <trkpt lat="47.2829" lon="7.83467">
        <ele>428</ele>
        <time>2022-10-01T14:17:13Z</time>
      </trkpt>
      <trkpt lat="47.28292" lon="7.83473">
        <ele>428</ele>
        <time>2022-10-01T14:17:14Z</time>
      </trkpt>
      <trkpt lat="47.28294" lon="7.83479">
        <ele>428.1</ele>
        <time>2022-10-01T14:17:15Z</time>
      </trkpt>
      <trkpt lat="47.28297" lon="7.83485">
        <ele>428.1</ele>
        <time>2022-10-01T14:17:16Z</time>
      </trkpt>
      <trkpt lat="47.28299" lon="7.83491">
        <ele>428.2</ele>
        <time>2022-10-01T14:17:17Z</time>
      </trkpt>
      <trkpt lat="47.28301" lon="7.83497">
        <ele>428.2</ele>
        <time>2022-10-01T14:17:18Z</time>
      </trkpt>
      <trkpt lat="47.28303" lon="7.83503">
        <ele>428.3</ele>
        <time>2022-10-01T14:17:19Z</time>
      </trkpt>
      <trkpt lat="47.28306" lon="7.83509">
        <ele>428.3</ele>
        <time>2022-10-01T14:17:20Z</time>
      </trkpt>
      <trkpt lat="47.28308" lon="7.83515">
        <ele>428.4</ele>
        <time>2022-10-01T14:17:21Z</time>
      </trkpt>
      <trkpt lat="47.2831" lon="7.8352">
        <ele>428.4</ele>
        <time>2022-10-01T14:17:22Z</time>
      </trkpt>
      <trkpt lat="47.28312" lon="7.83526">
        <ele>428.4</ele>
        <time>2022-10-01T14:17:23Z</time>
      </trkpt>
      <trkpt lat="47.28314" lon="7.83531">
        <ele>428.4</ele>
        <time>2022-10-01T14:17:24Z</time>
      </trkpt>
      <trkpt lat="47.28316" lon="7.83537">
        <ele>428.5</ele>
        <time>2022-10-01T14:17:25Z</time>
      </trkpt>
      <trkpt lat="47.28318" lon="7.83543">
        <ele>428.5</ele>
        <time>2022-10-01T14:17:26Z</time>
      </trkpt>
      <trkpt lat="47.2832" lon="7.83549">
        <ele>428.5</ele>
        <time>2022-10-01T14:17:27Z</time>
      </trkpt>
      <trkpt lat="47.28321" lon="7.83555">
        <ele>428.5</ele>
        <time>2022-10-01T14:17:28Z</time>
      </trkpt>
      <trkpt lat="47.28323" lon="7.83561">
        <ele>428.4</ele>
        <time>2022-10-01T14:17:29Z</time>
      </trkpt>
      <trkpt lat="47.28325" lon="7.83568">
        <ele>428.4</ele>
        <time>2022-10-01T14:17:30Z</time>
      </trkpt>
      <trkpt lat="47.28327" lon="7.83574">
        <ele>428.4</ele>
        <time>2022-10-01T14:17:31Z</time>
      </trkpt>
      <trkpt lat="47.28329" lon="7.8358">
        <ele>428.3</ele>
        <time>2022-10-01T14:17:32Z</time>
      </trkpt>
      <trkpt lat="47.28332" lon="7.83586">
        <ele>428.3</ele>
        <time>2022-10-01T14:17:33Z</time>
      </trkpt>
      <trkpt lat="47.28334" lon="7.83592">
        <ele>428.2</ele>
        <time>2022-10-01T14:17:34Z</time>
      </trkpt>
      <trkpt lat="47.28337" lon="7.83598">
        <ele>428.2</ele>
        <time>2022-10-01T14:17:35Z</time>
      </trkpt>
      <trkpt lat="47.28339" lon="7.83604">
        <ele>428.2</ele>
        <time>2022-10-01T14:17:36Z</time>
      </trkpt>
      <trkpt lat="47.28342" lon="7.83609">
        <ele>428.1</ele>
        <time>2022-10-01T14:17:37Z</time>
      </trkpt>
      <trkpt lat="47.28344" lon="7.83615">
        <ele>428.1</ele>
        <time>2022-10-01T14:17:38Z</time>
      </trkpt>
      <trkpt lat="47.28348" lon="7.8362">
        <ele>428.1</ele>
        <time>2022-10-01T14:17:39Z</time>
      </trkpt>
      <trkpt lat="47.28351" lon="7.83625">
        <ele>428.2</ele>
        <time>2022-10-01T14:17:40Z</time>
      </trkpt>
      <trkpt lat="47.28354" lon="7.83631">
        <ele>428.2</ele>
        <time>2022-10-01T14:17:41Z</time>
      </trkpt>
      <trkpt lat="47.28357" lon="7.83636">
        <ele>428.3</ele>
        <time>2022-10-01T14:17:42Z</time>
      </trkpt>
      <trkpt lat="47.2836" lon="7.83642">
        <ele>428.3</ele>
        <time>2022-10-01T14:17:43Z</time>
      </trkpt>
      <trkpt lat="47.28363" lon="7.83648">
        <ele>428.4</ele>
        <time>2022-10-01T14:17:44Z</time>
      </trkpt>
      <trkpt lat="47.28365" lon="7.83654">
        <ele>428.5</ele>
        <time>2022-10-01T14:17:45Z</time>
      </trkpt>
      <trkpt lat="47.28367" lon="7.8366">
        <ele>428.6</ele>
        <time>2022-10-01T14:17:46Z</time>
      </trkpt>
      <trkpt lat="47.28368" lon="7.83666">
        <ele>428.7</ele>
        <time>2022-10-01T14:17:47Z</time>
      </trkpt>
      <trkpt lat="47.28369" lon="7.8367">
        <ele>428.7</ele>
        <time>2022-10-01T14:17:48Z</time>
      </trkpt>
      <trkpt lat="47.2837" lon="7.83674">
        <ele>428.8</ele>
        <time>2022-10-01T14:17:49Z</time>
      </trkpt>
      <trkpt lat="47.2837" lon="7.83676">
        <ele>428.8</ele>
        <time>2022-10-01T14:17:50Z</time>
      </trkpt>
      <trkpt lat="47.28372" lon="7.83679">
        <ele>428.9</ele>
        <time>2022-10-01T14:17:51Z</time>
      </trkpt>
      <trkpt lat="47.28375" lon="7.8368">
        <ele>428.9</ele>
        <time>2022-10-01T14:17:52Z</time>
      </trkpt>
      <trkpt lat="47.28378" lon="7.8368">
        <ele>428.9</ele>
        <time>2022-10-01T14:17:53Z</time>
      </trkpt>
      <trkpt lat="47.28381" lon="7.83679">
        <ele>428.9</ele>
        <time>2022-10-01T14:17:54Z</time>
      </trkpt>
      <trkpt lat="47.28385" lon="7.83679">
        <ele>428.9</ele>
        <time>2022-10-01T14:17:55Z</time>
      </trkpt>
      <trkpt lat="47.28389" lon="7.83679">
        <ele>428.9</ele>
        <time>2022-10-01T14:17:56Z</time>
      </trkpt>
      <trkpt lat="47.28392" lon="7.83679">
        <ele>428.9</ele>
        <time>2022-10-01T14:17:57Z</time>
      </trkpt>
      <trkpt lat="47.28397" lon="7.83679">
        <ele>428.9</ele>
        <time>2022-10-01T14:17:58Z</time>
      </trkpt>
      <trkpt lat="47.28401" lon="7.83679">
        <ele>428.9</ele>
        <time>2022-10-01T14:17:59Z</time>
      </trkpt>
      <trkpt lat="47.28406" lon="7.83679">
        <ele>428.9</ele>
        <time>2022-10-01T14:18:00Z</time>
      </trkpt>
      <trkpt lat="47.2841" lon="7.83679">
        <ele>428.9</ele>
        <time>2022-10-01T14:18:01Z</time>
      </trkpt>
      <trkpt lat="47.28415" lon="7.83678">
        <ele>428.8</ele>
        <time>2022-10-01T14:18:02Z</time>
      </trkpt>
      <trkpt lat="47.2842" lon="7.83678">
        <ele>428.8</ele>
        <time>2022-10-01T14:18:03Z</time>
      </trkpt>
      <trkpt lat="47.28425" lon="7.83678">
        <ele>428.8</ele>
        <time>2022-10-01T14:18:04Z</time>
      </trkpt>
      <trkpt lat="47.2843" lon="7.83678">
        <ele>428.8</ele>
        <time>2022-10-01T14:18:05Z</time>
      </trkpt>
      <trkpt lat="47.28435" lon="7.83678">
        <ele>428.8</ele>
        <time>2022-10-01T14:18:06Z</time>
      </trkpt>
      <trkpt lat="47.2844" lon="7.83678">
        <ele>428.7</ele>
        <time>2022-10-01T14:18:07Z</time>
      </trkpt>
      <trkpt lat="47.28445" lon="7.83678">
        <ele>428.7</ele>
        <time>2022-10-01T14:18:08Z</time>
      </trkpt>
      <trkpt lat="47.2845" lon="7.83678">
        <ele>428.7</ele>
        <time>2022-10-01T14:18:09Z</time>
      </trkpt>
      <trkpt lat="47.28455" lon="7.83679">
        <ele>428.7</ele>
        <time>2022-10-01T14:18:10Z</time>
      </trkpt>
      <trkpt lat="47.2846" lon="7.8368">
        <ele>428.7</ele>
        <time>2022-10-01T14:18:11Z</time>
      </trkpt>
      <trkpt lat="47.28464" lon="7.83681">
        <ele>428.7</ele>
        <time>2022-10-01T14:18:12Z</time>
      </trkpt>
      <trkpt lat="47.28469" lon="7.83682">
        <ele>428.7</ele>
        <time>2022-10-01T14:18:13Z</time>
      </trkpt>
      <trkpt lat="47.28472" lon="7.83683">
        <ele>428.7</ele>
        <time>2022-10-01T14:18:14Z</time>
      </trkpt>
      <trkpt lat="47.28476" lon="7.83684">
        <ele>428.7</ele>
        <time>2022-10-01T14:18:15Z</time>
      </trkpt>
      <trkpt lat="47.28479" lon="7.83684">
        <ele>428.7</ele>
        <time>2022-10-01T14:18:16Z</time>
      </trkpt>
      <trkpt lat="47.28483" lon="7.83686">
        <ele>428.7</ele>
        <time>2022-10-01T14:18:17Z</time>
      </trkpt>
      <trkpt lat="47.28485" lon="7.83686">
        <ele>428.7</ele>
        <time>2022-10-01T14:18:18Z</time>
      </trkpt>
      <trkpt lat="47.28488" lon="7.83686">
        <ele>428.8</ele>
        <time>2022-10-01T14:18:19Z</time>
      </trkpt>
      <trkpt lat="47.2849" lon="7.83686">
        <ele>428.8</ele>
        <time>2022-10-01T14:18:20Z</time>
      </trkpt>
      <trkpt lat="47.28493" lon="7.83686">
        <ele>428.8</ele>
        <time>2022-10-01T14:18:21Z</time>
      </trkpt>
      <trkpt lat="47.28494" lon="7.83686">
        <ele>428.8</ele>
        <time>2022-10-01T14:18:22Z</time>
      </trkpt>
      <trkpt lat="47.28497" lon="7.83687">
        <ele>428.8</ele>
        <time>2022-10-01T14:18:23Z</time>
      </trkpt>
      <trkpt lat="47.28498" lon="7.83687">
        <ele>428.8</ele>
        <time>2022-10-01T14:18:24Z</time>
      </trkpt>
      <trkpt lat="47.28502" lon="7.83689">
        <ele>428.8</ele>
        <time>2022-10-01T14:18:25Z</time>
      </trkpt>
      <trkpt lat="47.28503" lon="7.83689">
        <ele>428.8</ele>
        <time>2022-10-01T14:18:26Z</time>
      </trkpt>
      <trkpt lat="47.28505" lon="7.8369">
        <ele>428.8</ele>
        <time>2022-10-01T14:18:27Z</time>
      </trkpt>
      <trkpt lat="47.28509" lon="7.83691">
        <ele>428.8</ele>
        <time>2022-10-01T14:18:28Z</time>
      </trkpt>
      <trkpt lat="47.28511" lon="7.83691">
        <ele>428.8</ele>
        <time>2022-10-01T14:18:29Z</time>
      </trkpt>
      <trkpt lat="47.28515" lon="7.83693">
        <ele>428.8</ele>
        <time>2022-10-01T14:18:30Z</time>
      </trkpt>
      <trkpt lat="47.28518" lon="7.83694">
        <ele>428.8</ele>
        <time>2022-10-01T14:18:31Z</time>
      </trkpt>
      <trkpt lat="47.28522" lon="7.83696">
        <ele>428.8</ele>
        <time>2022-10-01T14:18:32Z</time>
      </trkpt>
      <trkpt lat="47.28523" lon="7.83697">
        <ele>428.8</ele>
        <time>2022-10-01T14:18:33Z</time>
      </trkpt>
      <trkpt lat="47.28526" lon="7.83698">
        <ele>428.8</ele>
        <time>2022-10-01T14:18:34Z</time>
      </trkpt>
      <trkpt lat="47.28529" lon="7.837">
        <ele>428.8</ele>
        <time>2022-10-01T14:18:35Z</time>
      </trkpt>
      <trkpt lat="47.28535" lon="7.83703">
        <ele>428.8</ele>
        <time>2022-10-01T14:18:36Z</time>
      </trkpt>
      <trkpt lat="47.28538" lon="7.83704">
        <ele>428.7</ele>
        <time>2022-10-01T14:18:37Z</time>
      </trkpt>
      <trkpt lat="47.28542" lon="7.83706">
        <ele>428.7</ele>
        <time>2022-10-01T14:18:38Z</time>
      </trkpt>
      <trkpt lat="47.28544" lon="7.83706">
        <ele>428.7</ele>
        <time>2022-10-01T14:18:39Z</time>
      </trkpt>
      <trkpt lat="47.28547" lon="7.83708">
        <ele>428.7</ele>
        <time>2022-10-01T14:18:40Z</time>
      </trkpt>
      <trkpt lat="47.2855" lon="7.8371">
        <ele>428.6</ele>
        <time>2022-10-01T14:18:41Z</time>
      </trkpt>
      <trkpt lat="47.28554" lon="7.83711">
        <ele>428.6</ele>
        <time>2022-10-01T14:18:42Z</time>
      </trkpt>
      <trkpt lat="47.28558" lon="7.83713">
        <ele>428.6</ele>
        <time>2022-10-01T14:18:43Z</time>
      </trkpt>
      <trkpt lat="47.28564" lon="7.83717">
        <ele>428.5</ele>
        <time>2022-10-01T14:18:44Z</time>
      </trkpt>
      <trkpt lat="47.28569" lon="7.8372">
        <ele>428.5</ele>
        <time>2022-10-01T14:18:45Z</time>
      </trkpt>
      <trkpt lat="47.28573" lon="7.83722">
        <ele>428.5</ele>
        <time>2022-10-01T14:18:46Z</time>
      </trkpt>
      <trkpt lat="47.28576" lon="7.83726">
        <ele>428.4</ele>
        <time>2022-10-01T14:18:47Z</time>
      </trkpt>
      <trkpt lat="47.28581" lon="7.83729">
        <ele>428.4</ele>
        <time>2022-10-01T14:18:48Z</time>
      </trkpt>
      <trkpt lat="47.28585" lon="7.83729">
        <ele>428.4</ele>
        <time>2022-10-01T14:18:49Z</time>
      </trkpt>
      <trkpt lat="47.2859" lon="7.83732">
        <ele>428.3</ele>
        <time>2022-10-01T14:18:50Z</time>
      </trkpt>
      <trkpt lat="47.28595" lon="7.83735">
        <ele>428.3</ele>
        <time>2022-10-01T14:18:51Z</time>
      </trkpt>
      <trkpt lat="47.28599" lon="7.83736">
        <ele>428.3</ele>
        <time>2022-10-01T14:18:52Z</time>
      </trkpt>
      <trkpt lat="47.28604" lon="7.83737">
        <ele>428.3</ele>
        <time>2022-10-01T14:18:53Z</time>
      </trkpt>
      <trkpt lat="47.28608" lon="7.83741">
        <ele>428.3</ele>
        <time>2022-10-01T14:18:54Z</time>
      </trkpt>
      <trkpt lat="47.28612" lon="7.83743">
        <ele>428.3</ele>
        <time>2022-10-01T14:18:55Z</time>
      </trkpt>
      <trkpt lat="47.28616" lon="7.83746">
        <ele>428.3</ele>
        <time>2022-10-01T14:18:56Z</time>
      </trkpt>
      <trkpt lat="47.28621" lon="7.83748">
        <ele>428.3</ele>
        <time>2022-10-01T14:18:57Z</time>
      </trkpt>
      <trkpt lat="47.28626" lon="7.8375">
        <ele>428.3</ele>
        <time>2022-10-01T14:18:58Z</time>
      </trkpt>
      <trkpt lat="47.28631" lon="7.83753">
        <ele>428.3</ele>
        <time>2022-10-01T14:18:59Z</time>
      </trkpt>
      <trkpt lat="47.28636" lon="7.83756">
        <ele>428.3</ele>
        <time>2022-10-01T14:19:00Z</time>
      </trkpt>
      <trkpt lat="47.28641" lon="7.83759">
        <ele>428.3</ele>
        <time>2022-10-01T14:19:01Z</time>
      </trkpt>
      <trkpt lat="47.28645" lon="7.83763">
        <ele>428.3</ele>
        <time>2022-10-01T14:19:02Z</time>
      </trkpt>
      <trkpt lat="47.28649" lon="7.83765">
        <ele>428.3</ele>
        <time>2022-10-01T14:19:03Z</time>
      </trkpt>
      <trkpt lat="47.28654" lon="7.83768">
        <ele>428.3</ele>
        <time>2022-10-01T14:19:04Z</time>
      </trkpt>
      <trkpt lat="47.28659" lon="7.83772">
        <ele>428.3</ele>
        <time>2022-10-01T14:19:05Z</time>
      </trkpt>
      <trkpt lat="47.28664" lon="7.83774">
        <ele>428.3</ele>
        <time>2022-10-01T14:19:06Z</time>
      </trkpt>
      <trkpt lat="47.28668" lon="7.83776">
        <ele>428.3</ele>
        <time>2022-10-01T14:19:07Z</time>
      </trkpt>
      <trkpt lat="47.28674" lon="7.83781">
        <ele>428.2</ele>
        <time>2022-10-01T14:19:08Z</time>
      </trkpt>
      <trkpt lat="47.28679" lon="7.83786">
        <ele>428.2</ele>
        <time>2022-10-01T14:19:09Z</time>
      </trkpt>
      <trkpt lat="47.28685" lon="7.83789">
        <ele>428.2</ele>
        <time>2022-10-01T14:19:10Z</time>
      </trkpt>
      <trkpt lat="47.28691" lon="7.83792">
        <ele>428.2</ele>
        <time>2022-10-01T14:19:11Z</time>
      </trkpt>
      <trkpt lat="47.28696" lon="7.83794">
        <ele>428.2</ele>
        <time>2022-10-01T14:19:12Z</time>
      </trkpt>
      <trkpt lat="47.28701" lon="7.83796">
        <ele>428.2</ele>
        <time>2022-10-01T14:19:13Z</time>
      </trkpt>
      <trkpt lat="47.28704" lon="7.838">
        <ele>428.2</ele>
        <time>2022-10-01T14:19:14Z</time>
      </trkpt>
      <trkpt lat="47.2871" lon="7.83803">
        <ele>428.2</ele>
        <time>2022-10-01T14:19:15Z</time>
      </trkpt>
      <trkpt lat="47.28714" lon="7.83806">
        <ele>428.2</ele>
        <time>2022-10-01T14:19:16Z</time>
      </trkpt>
      <trkpt lat="47.28719" lon="7.83809">
        <ele>428.2</ele>
        <time>2022-10-01T14:19:17Z</time>
      </trkpt>
      <trkpt lat="47.28723" lon="7.83811">
        <ele>428.2</ele>
        <time>2022-10-01T14:19:18Z</time>
      </trkpt>
      <trkpt lat="47.28729" lon="7.83814">
        <ele>428.2</ele>
        <time>2022-10-01T14:19:19Z</time>
      </trkpt>
      <trkpt lat="47.28733" lon="7.83817">
        <ele>428.2</ele>
        <time>2022-10-01T14:19:20Z</time>
      </trkpt>
      <trkpt lat="47.28738" lon="7.8382">
        <ele>428.2</ele>
        <time>2022-10-01T14:19:21Z</time>
      </trkpt>
      <trkpt lat="47.28742" lon="7.83823">
        <ele>428.2</ele>
        <time>2022-10-01T14:19:22Z</time>
      </trkpt>
      <trkpt lat="47.28746" lon="7.83827">
        <ele>428.2</ele>
        <time>2022-10-01T14:19:23Z</time>
      </trkpt>
      <trkpt lat="47.2875" lon="7.8383">
        <ele>428.2</ele>
        <time>2022-10-01T14:19:24Z</time>
      </trkpt>
      <trkpt lat="47.28755" lon="7.83832">
        <ele>428.2</ele>
        <time>2022-10-01T14:19:25Z</time>
      </trkpt>
      <trkpt lat="47.2876" lon="7.83835">
        <ele>428.2</ele>
        <time>2022-10-01T14:19:26Z</time>
      </trkpt>
      <trkpt lat="47.28764" lon="7.83838">
        <ele>428.2</ele>
        <time>2022-10-01T14:19:27Z</time>
      </trkpt>
      <trkpt lat="47.28768" lon="7.8384">
        <ele>428.2</ele>
        <time>2022-10-01T14:19:28Z</time>
      </trkpt>
      <trkpt lat="47.28772" lon="7.83841">
        <ele>428.2</ele>
        <time>2022-10-01T14:19:29Z</time>
      </trkpt>
      <trkpt lat="47.28775" lon="7.83842">
        <ele>428.2</ele>
        <time>2022-10-01T14:19:30Z</time>
      </trkpt>
      <trkpt lat="47.28779" lon="7.83843">
        <ele>428.3</ele>
        <time>2022-10-01T14:19:31Z</time>
      </trkpt>
      <trkpt lat="47.2878" lon="7.83843">
        <ele>428.3</ele>
        <time>2022-10-01T14:19:32Z</time>
      </trkpt>
      <trkpt lat="47.28784" lon="7.83845">
        <ele>428.3</ele>
        <time>2022-10-01T14:19:33Z</time>
      </trkpt>
      <trkpt lat="47.28787" lon="7.83847">
        <ele>428.3</ele>
        <time>2022-10-01T14:19:34Z</time>
      </trkpt>
      <trkpt lat="47.28791" lon="7.83848">
        <ele>428.4</ele>
        <time>2022-10-01T14:19:35Z</time>
      </trkpt>
      <trkpt lat="47.28796" lon="7.8385">
        <ele>428.4</ele>
        <time>2022-10-01T14:19:36Z</time>
      </trkpt>
      <trkpt lat="47.28799" lon="7.83851">
        <ele>428.4</ele>
        <time>2022-10-01T14:19:37Z</time>
      </trkpt>
      <trkpt lat="47.28803" lon="7.83853">
        <ele>428.5</ele>
        <time>2022-10-01T14:19:38Z</time>
      </trkpt>
      <trkpt lat="47.28806" lon="7.83855">
        <ele>428.5</ele>
        <time>2022-10-01T14:19:39Z</time>
      </trkpt>
      <trkpt lat="47.28807" lon="7.83855">
        <ele>428.5</ele>
        <time>2022-10-01T14:19:40Z</time>
      </trkpt>
      <trkpt lat="47.28811" lon="7.83855">
        <ele>428.5</ele>
        <time>2022-10-01T14:19:41Z</time>
      </trkpt>
      <trkpt lat="47.28814" lon="7.83857">
        <ele>428.6</ele>
        <time>2022-10-01T14:19:42Z</time>
      </trkpt>
      <trkpt lat="47.28819" lon="7.8386">
        <ele>428.6</ele>
        <time>2022-10-01T14:19:43Z</time>
      </trkpt>
      <trkpt lat="47.28823" lon="7.8386">
        <ele>428.6</ele>
        <time>2022-10-01T14:19:44Z</time>
      </trkpt>
      <trkpt lat="47.28826" lon="7.8386">
        <ele>428.6</ele>
        <time>2022-10-01T14:19:45Z</time>
      </trkpt>
      <trkpt lat="47.2883" lon="7.83862">
        <ele>428.6</ele>
        <time>2022-10-01T14:19:46Z</time>
      </trkpt>
      <trkpt lat="47.28835" lon="7.83865">
        <ele>428.6</ele>
        <time>2022-10-01T14:19:47Z</time>
      </trkpt>
      <trkpt lat="47.28839" lon="7.83867">
        <ele>428.6</ele>
        <time>2022-10-01T14:19:48Z</time>
      </trkpt>
      <trkpt lat="47.28843" lon="7.83868">
        <ele>428.6</ele>
        <time>2022-10-01T14:19:49Z</time>
      </trkpt>
      <trkpt lat="47.28846" lon="7.83869">
        <ele>428.6</ele>
        <time>2022-10-01T14:19:50Z</time>
      </trkpt>
      <trkpt lat="47.28851" lon="7.8387">
        <ele>428.6</ele>
        <time>2022-10-01T14:19:51Z</time>
      </trkpt>
      <trkpt lat="47.28857" lon="7.83872">
        <ele>428.6</ele>
        <time>2022-10-01T14:19:52Z</time>
      </trkpt>
      <trkpt lat="47.28862" lon="7.83873">
        <ele>428.6</ele>
        <time>2022-10-01T14:19:53Z</time>
      </trkpt>
      <trkpt lat="47.28866" lon="7.83875">
        <ele>428.5</ele>
        <time>2022-10-01T14:19:54Z</time>
      </trkpt>
      <trkpt lat="47.2887" lon="7.83878">
        <ele>428.5</ele>
        <time>2022-10-01T14:19:55Z</time>
      </trkpt>
      <trkpt lat="47.28874" lon="7.8388">
        <ele>428.5</ele>
        <time>2022-10-01T14:19:56Z</time>
      </trkpt>
      <trkpt lat="47.28877" lon="7.83882">
        <ele>428.6</ele>
        <time>2022-10-01T14:19:57Z</time>
      </trkpt>
      <trkpt lat="47.28881" lon="7.83883">
        <ele>428.6</ele>
        <time>2022-10-01T14:19:58Z</time>
      </trkpt>
      <trkpt lat="47.28884" lon="7.83887">
        <ele>428.6</ele>
        <time>2022-10-01T14:19:59Z</time>
      </trkpt>
      <trkpt lat="47.28888" lon="7.83889">
        <ele>428.6</ele>
        <time>2022-10-01T14:20:00Z</time>
      </trkpt>
      <trkpt lat="47.28893" lon="7.83892">
        <ele>428.6</ele>
        <time>2022-10-01T14:20:01Z</time>
      </trkpt>
      <trkpt lat="47.28897" lon="7.83894">
        <ele>428.6</ele>
        <time>2022-10-01T14:20:02Z</time>
      </trkpt>
      <trkpt lat="47.28902" lon="7.83897">
        <ele>428.6</ele>
        <time>2022-10-01T14:20:03Z</time>
      </trkpt>
      <trkpt lat="47.28906" lon="7.83898">
        <ele>428.6</ele>
        <time>2022-10-01T14:20:04Z</time>
      </trkpt>
      <trkpt lat="47.2891" lon="7.839">
        <ele>428.6</ele>
        <time>2022-10-01T14:20:05Z</time>
      </trkpt>
      <trkpt lat="47.28915" lon="7.83902">
        <ele>428.6</ele>
        <time>2022-10-01T14:20:06Z</time>
      </trkpt>
      <trkpt lat="47.28918" lon="7.83906">
        <ele>428.5</ele>
        <time>2022-10-01T14:20:07Z</time>
      </trkpt>
      <trkpt lat="47.28922" lon="7.83906">
        <ele>428.5</ele>
        <time>2022-10-01T14:20:08Z</time>
      </trkpt>
      <trkpt lat="47.28926" lon="7.83909">
        <ele>428.5</ele>
        <time>2022-10-01T14:20:09Z</time>
      </trkpt>
      <trkpt lat="47.28928" lon="7.83913">
        <ele>428.5</ele>
        <time>2022-10-01T14:20:10Z</time>
      </trkpt>
      <trkpt lat="47.28931" lon="7.83915">
        <ele>428.5</ele>
        <time>2022-10-01T14:20:11Z</time>
      </trkpt>
      <trkpt lat="47.28934" lon="7.83917">
        <ele>428.5</ele>
        <time>2022-10-01T14:20:12Z</time>
      </trkpt>
      <trkpt lat="47.28939" lon="7.83915">
        <ele>428.4</ele>
        <time>2022-10-01T14:20:13Z</time>
      </trkpt>
      <trkpt lat="47.2894" lon="7.83919">
        <ele>428.4</ele>
        <time>2022-10-01T14:20:14Z</time>
      </trkpt>
      <trkpt lat="47.28942" lon="7.83921">
        <ele>428.4</ele>
        <time>2022-10-01T14:20:15Z</time>
      </trkpt>
      <trkpt lat="47.28947" lon="7.83922">
        <ele>428.3</ele>
        <time>2022-10-01T14:20:16Z</time>
      </trkpt>
      <trkpt lat="47.28949" lon="7.83923">
        <ele>428.3</ele>
        <time>2022-10-01T14:20:17Z</time>
      </trkpt>
      <trkpt lat="47.28952" lon="7.83925">
        <ele>428.3</ele>
        <time>2022-10-01T14:20:18Z</time>
      </trkpt>
      <trkpt lat="47.28953" lon="7.83926">
        <ele>428.3</ele>
        <time>2022-10-01T14:20:19Z</time>
      </trkpt>
      <trkpt lat="47.28953" lon="7.83926">
        <ele>428.2</ele>
        <time>2022-10-01T14:20:20Z</time>
      </trkpt>
      <trkpt lat="47.28953" lon="7.83926">
        <ele>428.2</ele>
        <time>2022-10-01T14:20:21Z</time>
      </trkpt>
      <trkpt lat="47.28954" lon="7.83927">
        <ele>428.2</ele>
        <time>2022-10-01T14:20:22Z</time>
      </trkpt>
      <trkpt lat="47.28955" lon="7.83927">
        <ele>428.2</ele>
        <time>2022-10-01T14:20:23Z</time>
      </trkpt>
      <trkpt lat="47.28954" lon="7.83928">
        <ele>428.2</ele>
        <time>2022-10-01T14:20:24Z</time>
      </trkpt>
      <trkpt lat="47.28953" lon="7.8393">
        <ele>428.2</ele>
        <time>2022-10-01T14:20:25Z</time>
      </trkpt>
      <trkpt lat="47.28952" lon="7.83931">
        <ele>428.2</ele>
        <time>2022-10-01T14:20:26Z</time>
      </trkpt>
      <trkpt lat="47.28951" lon="7.83933">
        <ele>428.2</ele>
        <time>2022-10-01T14:20:27Z</time>
      </trkpt>
      <trkpt lat="47.2895" lon="7.83935">
        <ele>428.2</ele>
        <time>2022-10-01T14:20:28Z</time>
      </trkpt>
      <trkpt lat="47.28949" lon="7.83936">
        <ele>428.2</ele>
        <time>2022-10-01T14:21:15Z</time>
      </trkpt>
      <trkpt lat="47.28948" lon="7.83938">
        <ele>428.2</ele>
        <time>2022-10-01T14:21:16Z</time>
      </trkpt>
      <trkpt lat="47.28951" lon="7.83936">
        <ele>428.2</ele>
        <time>2022-10-01T14:21:17Z</time>
      </trkpt>
      <trkpt lat="47.28952" lon="7.83933">
        <ele>428.2</ele>
        <time>2022-10-01T14:21:18Z</time>
      </trkpt>
      <trkpt lat="47.28953" lon="7.83931">
        <ele>428.2</ele>
        <time>2022-10-01T14:21:19Z</time>
      </trkpt>
      <trkpt lat="47.28954" lon="7.8393">
        <ele>428.1</ele>
        <time>2022-10-01T14:21:20Z</time>
      </trkpt>
      <trkpt lat="47.28954" lon="7.83929">
        <ele>428.1</ele>
        <time>2022-10-01T14:21:21Z</time>
      </trkpt>
      <trkpt lat="47.28954" lon="7.83929">
        <ele>428.1</ele>
        <time>2022-10-01T14:21:22Z</time>
      </trkpt>
      <trkpt lat="47.28954" lon="7.83928">
        <ele>428.1</ele>
        <time>2022-10-01T14:21:23Z</time>
      </trkpt>
      <trkpt lat="47.28955" lon="7.83928">
        <ele>428.1</ele>
        <time>2022-10-01T14:21:24Z</time>
      </trkpt>
      <trkpt lat="47.28955" lon="7.83927">
        <ele>428.1</ele>
        <time>2022-10-01T14:21:25Z</time>
      </trkpt>
      <trkpt lat="47.28955" lon="7.83927">
        <ele>428.1</ele>
        <time>2022-10-01T14:21:26Z</time>
      </trkpt>
      <trkpt lat="47.28955" lon="7.83926">
        <ele>428.1</ele>
        <time>2022-10-01T14:21:27Z</time>
      </trkpt>
      <trkpt lat="47.28956" lon="7.83926">
        <ele>428.1</ele>
        <time>2022-10-01T14:21:28Z</time>
      </trkpt>
      <trkpt lat="47.28956" lon="7.83925">
        <ele>428.1</ele>
        <time>2022-10-01T14:21:29Z</time>
      </trkpt>
      <trkpt lat="47.28956" lon="7.83925">
        <ele>428.1</ele>
        <time>2022-10-01T14:21:30Z</time>
      </trkpt>
      <trkpt lat="47.28957" lon="7.83924">
        <ele>428.1</ele>
        <time>2022-10-01T14:21:31Z</time>
      </trkpt>
      <trkpt lat="47.28957" lon="7.83924">
        <ele>428.1</ele>
        <time>2022-10-01T14:24:37Z</time>
      </trkpt>
      <trkpt lat="47.28957" lon="7.83923">
        <ele>428.1</ele>
        <time>2022-10-01T14:24:38Z</time>
      </trkpt>
      <trkpt lat="47.28957" lon="7.83923">
        <ele>428.1</ele>
        <time>2022-10-01T14:24:39Z</time>
      </trkpt>
      <trkpt lat="47.28958" lon="7.83922">
        <ele>428.1</ele>
        <time>2022-10-01T14:24:40Z</time>
      </trkpt>
      <trkpt lat="47.28958" lon="7.83921">
        <ele>428.1</ele>
        <time>2022-10-01T14:24:41Z</time>
      </trkpt>
      <trkpt lat="47.28958" lon="7.83921">
        <ele>428.1</ele>
        <time>2022-10-01T14:24:42Z</time>
      </trkpt>
      <trkpt lat="47.28959" lon="7.8392">
        <ele>428.1</ele>
        <time>2022-10-01T14:24:43Z</time>
      </trkpt>
      <trkpt lat="47.28959" lon="7.8392">
        <ele>428.1</ele>
        <time>2022-10-01T14:24:44Z</time>
      </trkpt>
      <trkpt lat="47.28959" lon="7.83919">
        <ele>428.1</ele>
        <time>2022-10-01T14:24:45Z</time>
      </trkpt>
      <trkpt lat="47.28959" lon="7.83921">
        <ele>428.1</ele>
        <time>2022-10-01T14:24:46Z</time>
      </trkpt>
      <trkpt lat="47.28957" lon="7.8392">
        <ele>428.1</ele>
        <time>2022-10-01T14:24:47Z</time>
      </trkpt>
      <trkpt lat="47.28958" lon="7.8392">
        <ele>428.1</ele>
        <time>2022-10-01T14:24:48Z</time>
      </trkpt>
      <trkpt lat="47.28958" lon="7.83919">
        <ele>428.1</ele>
        <time>2022-10-01T14:24:49Z</time>
      </trkpt>
      <trkpt lat="47.28957" lon="7.83919">
        <ele>428.1</ele>
        <time>2022-10-01T14:24:50Z</time>
      </trkpt>
      <trkpt lat="47.28958" lon="7.83919">
        <ele>428.1</ele>
        <time>2022-10-01T14:24:51Z</time>
      </trkpt>
      <trkpt lat="47.28956" lon="7.8392">
        <ele>428</ele>
        <time>2022-10-01T14:24:52Z</time>
      </trkpt>
      <trkpt lat="47.28956" lon="7.83919">
        <ele>428</ele>
        <time>2022-10-01T14:24:53Z</time>
      </trkpt>
      <trkpt lat="47.28954" lon="7.83918">
        <ele>428</ele>
        <time>2022-10-01T14:24:54Z</time>
      </trkpt>
      <trkpt lat="47.28953" lon="7.83918">
        <ele>428</ele>
        <time>2022-10-01T14:24:55Z</time>
      </trkpt>
      <trkpt lat="47.28953" lon="7.83918">
        <ele>428</ele>
        <time>2022-10-01T14:24:56Z</time>
      </trkpt>
      <trkpt lat="47.28954" lon="7.83917">
        <ele>428</ele>
        <time>2022-10-01T14:24:57Z</time>
      </trkpt>
      <trkpt lat="47.28954" lon="7.83917">
        <ele>428</ele>
        <time>2022-10-01T14:24:58Z</time>
      </trkpt>
      <trkpt lat="47.28954" lon="7.83917">
        <ele>428</ele>
        <time>2022-10-01T14:24:59Z</time>
      </trkpt>
      <trkpt lat="47.28955" lon="7.83916">
        <ele>428</ele>
        <time>2022-10-01T14:25:00Z</time>
      </trkpt>
      <trkpt lat="47.28955" lon="7.83916">
        <ele>428</ele>
        <time>2022-10-01T14:25:01Z</time>
      </trkpt>
      <trkpt lat="47.28956" lon="7.83916">
        <ele>428</ele>
        <time>2022-10-01T14:25:02Z</time>
      </trkpt>
      <trkpt lat="47.28956" lon="7.83916">
        <ele>428</ele>
        <time>2022-10-01T14:25:03Z</time>
      </trkpt>
      <trkpt lat="47.28957" lon="7.83917">
        <ele>428</ele>
        <time>2022-10-01T14:25:04Z</time>
      </trkpt>
      <trkpt lat="47.28957" lon="7.83918">
        <ele>428</ele>
        <time>2022-10-01T14:25:05Z</time>
      </trkpt>
      <trkpt lat="47.28957" lon="7.83919">
        <ele>428</ele>
        <time>2022-10-01T14:25:14Z</time>
      </trkpt>
      <trkpt lat="47.28957" lon="7.8392">
        <ele>428</ele>
        <time>2022-10-01T14:25:15Z</time>
      </trkpt>
      <trkpt lat="47.28957" lon="7.83922">
        <ele>428</ele>
        <time>2022-10-01T14:25:16Z</time>
      </trkpt>
      <trkpt lat="47.28957" lon="7.83923">
        <ele>428</ele>
        <time>2022-10-01T14:25:17Z</time>
      </trkpt>
      <trkpt lat="47.28957" lon="7.83924">
        <ele>428</ele>
        <time>2022-10-01T14:25:18Z</time>
      </trkpt>
      <trkpt lat="47.28957" lon="7.83925">
        <ele>428</ele>
        <time>2022-10-01T14:25:19Z</time>
      </trkpt>
      <trkpt lat="47.28958" lon="7.83927">
        <ele>428</ele>
        <time>2022-10-01T14:25:20Z</time>
      </trkpt>
      <trkpt lat="47.28958" lon="7.83927">
        <ele>428</ele>
        <time>2022-10-01T14:25:21Z</time>
      </trkpt>
      <trkpt lat="47.28958" lon="7.83928">
        <ele>428</ele>
        <time>2022-10-01T14:25:22Z</time>
      </trkpt>
      <trkpt lat="47.28958" lon="7.83928">
        <ele>428</ele>
        <time>2022-10-01T14:59:56Z</time>
      </trkpt>
      <trkpt lat="47.28958" lon="7.83928">
        <ele>428</ele>
        <time>2022-10-01T14:59:57Z</time>
      </trkpt>
      <trkpt lat="47.28958" lon="7.83929">
        <ele>428</ele>
        <time>2022-10-01T14:59:58Z</time>
      </trkpt>
      <trkpt lat="47.28958" lon="7.8393">
        <ele>428</ele>
        <time>2022-10-01T14:59:59Z</time>
      </trkpt>
      <trkpt lat="47.28958" lon="7.8393">
        <ele>428</ele>
        <time>2022-10-01T15:00:00Z</time>
      </trkpt>
      <trkpt lat="47.28959" lon="7.83933">
        <ele>427.9</ele>
        <time>2022-10-01T15:00:01Z</time>
      </trkpt>
      <trkpt lat="47.2896" lon="7.83934">
        <ele>427.9</ele>
        <time>2022-10-01T15:00:02Z</time>
      </trkpt>
      <trkpt lat="47.2896" lon="7.83933">
        <ele>427.9</ele>
        <time>2022-10-01T15:00:06Z</time>
      </trkpt>
      <trkpt lat="47.2896" lon="7.83932">
        <ele>427.9</ele>
        <time>2022-10-01T15:00:07Z</time>
      </trkpt>
      <trkpt lat="47.2896" lon="7.83932">
        <ele>427.9</ele>
        <time>2022-10-01T15:00:08Z</time>
      </trkpt>
      <trkpt lat="47.2896" lon="7.83931">
        <ele>427.9</ele>
        <time>2022-10-01T15:00:09Z</time>
      </trkpt>
      <trkpt lat="47.2896" lon="7.8393">
        <ele>427.9</ele>
        <time>2022-10-01T15:00:10Z</time>
      </trkpt>
      <trkpt lat="47.2896" lon="7.83929">
        <ele>427.9</ele>
        <time>2022-10-01T15:00:11Z</time>
      </trkpt>
      <trkpt lat="47.2896" lon="7.83929">
        <ele>427.9</ele>
        <time>2022-10-01T15:00:12Z</time>
      </trkpt>
      <trkpt lat="47.2896" lon="7.83928">
        <ele>427.9</ele>
        <time>2022-10-01T15:00:13Z</time>
      </trkpt>
      <trkpt lat="47.2896" lon="7.83927">
        <ele>427.9</ele>
        <time>2022-10-01T15:00:14Z</time>
      </trkpt>
      <trkpt lat="47.2896" lon="7.83926">
        <ele>427.9</ele>
        <time>2022-10-01T15:00:15Z</time>
      </trkpt>
      <trkpt lat="47.2896" lon="7.83926">
        <ele>427.9</ele>
        <time>2022-10-01T15:00:16Z</time>
      </trkpt>
      <trkpt lat="47.2896" lon="7.83925">
        <ele>427.9</ele>
        <time>2022-10-01T15:00:17Z</time>
      </trkpt>
      <trkpt lat="47.2896" lon="7.83924">
        <ele>427.9</ele>
        <time>2022-10-01T15:00:18Z</time>
      </trkpt>
      <trkpt lat="47.28962" lon="7.83923">
        <ele>427.9</ele>
        <time>2022-10-01T15:00:19Z</time>
      </trkpt>
      <trkpt lat="47.28963" lon="7.83923">
        <ele>427.9</ele>
        <time>2022-10-01T15:00:20Z</time>
      </trkpt>
      <trkpt lat="47.28964" lon="7.83923">
        <ele>427.9</ele>
        <time>2022-10-01T15:00:21Z</time>
      </trkpt>
      <trkpt lat="47.28967" lon="7.83924">
        <ele>427.9</ele>
        <time>2022-10-01T15:00:22Z</time>
      </trkpt>
      <trkpt lat="47.28968" lon="7.83924">
        <ele>427.9</ele>
        <time>2022-10-01T15:00:23Z</time>
      </trkpt>
      <trkpt lat="47.28974" lon="7.83925">
        <ele>427.9</ele>
        <time>2022-10-01T15:00:24Z</time>
      </trkpt>
      <trkpt lat="47.28977" lon="7.83925">
        <ele>427.8</ele>
        <time>2022-10-01T15:00:25Z</time>
      </trkpt>
      <trkpt lat="47.28982" lon="7.83925">
        <ele>427.8</ele>
        <time>2022-10-01T15:00:26Z</time>
      </trkpt>
      <trkpt lat="47.28986" lon="7.83925">
        <ele>427.8</ele>
        <time>2022-10-01T15:00:27Z</time>
      </trkpt>
      <trkpt lat="47.28992" lon="7.83923">
        <ele>427.8</ele>
        <time>2022-10-01T15:00:28Z</time>
      </trkpt>
      <trkpt lat="47.28996" lon="7.83923">
        <ele>427.8</ele>
        <time>2022-10-01T15:00:29Z</time>
      </trkpt>
      <trkpt lat="47.29" lon="7.83924">
        <ele>427.7</ele>
        <time>2022-10-01T15:00:30Z</time>
      </trkpt>
      <trkpt lat="47.29004" lon="7.83924">
        <ele>427.7</ele>
        <time>2022-10-01T15:00:31Z</time>
      </trkpt>
      <trkpt lat="47.29008" lon="7.83925">
        <ele>427.7</ele>
        <time>2022-10-01T15:00:32Z</time>
      </trkpt>
      <trkpt lat="47.29013" lon="7.83925">
        <ele>427.6</ele>
        <time>2022-10-01T15:00:33Z</time>
      </trkpt>
      <trkpt lat="47.29019" lon="7.83926">
        <ele>427.6</ele>
        <time>2022-10-01T15:00:34Z</time>
      </trkpt>
      <trkpt lat="47.29024" lon="7.83927">
        <ele>427.6</ele>
        <time>2022-10-01T15:00:35Z</time>
      </trkpt>
      <trkpt lat="47.29028" lon="7.83926">
        <ele>427.5</ele>
        <time>2022-10-01T15:00:36Z</time>
      </trkpt>
      <trkpt lat="47.29032" lon="7.83926">
        <ele>427.5</ele>
        <time>2022-10-01T15:00:37Z</time>
      </trkpt>
      <trkpt lat="47.29035" lon="7.83926">
        <ele>427.5</ele>
        <time>2022-10-01T15:00:38Z</time>
      </trkpt>
      <trkpt lat="47.2904" lon="7.83926">
        <ele>427.5</ele>
        <time>2022-10-01T15:00:39Z</time>
      </trkpt>
      <trkpt lat="47.29045" lon="7.83927">
        <ele>427.4</ele>
        <time>2022-10-01T15:00:40Z</time>
      </trkpt>
      <trkpt lat="47.29048" lon="7.83928">
        <ele>427.4</ele>
        <time>2022-10-01T15:00:41Z</time>
      </trkpt>
      <trkpt lat="47.29051" lon="7.83928">
        <ele>427.4</ele>
        <time>2022-10-01T15:00:42Z</time>
      </trkpt>
      <trkpt lat="47.29056" lon="7.83927">
        <ele>427.3</ele>
        <time>2022-10-01T15:00:43Z</time>
      </trkpt>
      <trkpt lat="47.29061" lon="7.83928">
        <ele>427.3</ele>
        <time>2022-10-01T15:00:44Z</time>
      </trkpt>
      <trkpt lat="47.29065" lon="7.83927">
        <ele>427.3</ele>
        <time>2022-10-01T15:00:45Z</time>
      </trkpt>
      <trkpt lat="47.29069" lon="7.83926">
        <ele>427.3</ele>
        <time>2022-10-01T15:00:46Z</time>
      </trkpt>
      <trkpt lat="47.29073" lon="7.83926">
        <ele>427.3</ele>
        <time>2022-10-01T15:00:47Z</time>
      </trkpt>
      <trkpt lat="47.29076" lon="7.83925">
        <ele>427.3</ele>
        <time>2022-10-01T15:00:48Z</time>
      </trkpt>
      <trkpt lat="47.2908" lon="7.83925">
        <ele>427.3</ele>
        <time>2022-10-01T15:00:49Z</time>
      </trkpt>
      <trkpt lat="47.29084" lon="7.83924">
        <ele>427.3</ele>
        <time>2022-10-01T15:00:50Z</time>
      </trkpt>
      <trkpt lat="47.29088" lon="7.83923">
        <ele>427.3</ele>
        <time>2022-10-01T15:00:51Z</time>
      </trkpt>
      <trkpt lat="47.29093" lon="7.83922">
        <ele>427.3</ele>
        <time>2022-10-01T15:00:52Z</time>
      </trkpt>
      <trkpt lat="47.29096" lon="7.83922">
        <ele>427.3</ele>
        <time>2022-10-01T15:00:53Z</time>
      </trkpt>
      <trkpt lat="47.29101" lon="7.83922">
        <ele>427.3</ele>
        <time>2022-10-01T15:00:54Z</time>
      </trkpt>
      <trkpt lat="47.29106" lon="7.83922">
        <ele>427.3</ele>
        <time>2022-10-01T15:00:55Z</time>
      </trkpt>
      <trkpt lat="47.2911" lon="7.83921">
        <ele>427.3</ele>
        <time>2022-10-01T15:00:56Z</time>
      </trkpt>
      <trkpt lat="47.29113" lon="7.83921">
        <ele>427.3</ele>
        <time>2022-10-01T15:00:57Z</time>
      </trkpt>
      <trkpt lat="47.29116" lon="7.8392">
        <ele>427.3</ele>
        <time>2022-10-01T15:00:58Z</time>
      </trkpt>
      <trkpt lat="47.2912" lon="7.8392">
        <ele>427.3</ele>
        <time>2022-10-01T15:00:59Z</time>
      </trkpt>
      <trkpt lat="47.29121" lon="7.8392">
        <ele>427.4</ele>
        <time>2022-10-01T15:01:00Z</time>
      </trkpt>
      <trkpt lat="47.29124" lon="7.83922">
        <ele>427.4</ele>
        <time>2022-10-01T15:01:01Z</time>
      </trkpt>
      <trkpt lat="47.29127" lon="7.83923">
        <ele>427.4</ele>
        <time>2022-10-01T15:01:02Z</time>
      </trkpt>
      <trkpt lat="47.29131" lon="7.83927">
        <ele>427.4</ele>
        <time>2022-10-01T15:01:03Z</time>
      </trkpt>
      <trkpt lat="47.29133" lon="7.83929">
        <ele>427.4</ele>
        <time>2022-10-01T15:01:04Z</time>
      </trkpt>
      <trkpt lat="47.29136" lon="7.83932">
        <ele>427.5</ele>
        <time>2022-10-01T15:01:05Z</time>
      </trkpt>
      <trkpt lat="47.29138" lon="7.83935">
        <ele>427.5</ele>
        <time>2022-10-01T15:01:06Z</time>
      </trkpt>
      <trkpt lat="47.29142" lon="7.83938">
        <ele>427.5</ele>
        <time>2022-10-01T15:01:07Z</time>
      </trkpt>
      <trkpt lat="47.29143" lon="7.83941">
        <ele>427.4</ele>
        <time>2022-10-01T15:01:08Z</time>
      </trkpt>
      <trkpt lat="47.29147" lon="7.83944">
        <ele>427.4</ele>
        <time>2022-10-01T15:01:09Z</time>
      </trkpt>
      <trkpt lat="47.29151" lon="7.83946">
        <ele>427.4</ele>
        <time>2022-10-01T15:01:10Z</time>
      </trkpt>
      <trkpt lat="47.29153" lon="7.8395">
        <ele>427.4</ele>
        <time>2022-10-01T15:01:11Z</time>
      </trkpt>
      <trkpt lat="47.29154" lon="7.83951">
        <ele>427.4</ele>
        <time>2022-10-01T15:01:12Z</time>
      </trkpt>
      <trkpt lat="47.29158" lon="7.83957">
        <ele>427.4</ele>
        <time>2022-10-01T15:01:13Z</time>
      </trkpt>
      <trkpt lat="47.29161" lon="7.8396">
        <ele>427.3</ele>
        <time>2022-10-01T15:01:14Z</time>
      </trkpt>
      <trkpt lat="47.29165" lon="7.83965">
        <ele>427.3</ele>
        <time>2022-10-01T15:01:15Z</time>
      </trkpt>
      <trkpt lat="47.29168" lon="7.8397">
        <ele>427.3</ele>
        <time>2022-10-01T15:01:16Z</time>
      </trkpt>
      <trkpt lat="47.2917" lon="7.83974">
        <ele>427.3</ele>
        <time>2022-10-01T15:01:17Z</time>
      </trkpt>
      <trkpt lat="47.29174" lon="7.8398">
        <ele>427.2</ele>
        <time>2022-10-01T15:01:18Z</time>
      </trkpt>
      <trkpt lat="47.29178" lon="7.83986">
        <ele>427.2</ele>
        <time>2022-10-01T15:01:19Z</time>
      </trkpt>
      <trkpt lat="47.29183" lon="7.83991">
        <ele>427.1</ele>
        <time>2022-10-01T15:01:20Z</time>
      </trkpt>
      <trkpt lat="47.29187" lon="7.83996">
        <ele>427.1</ele>
        <time>2022-10-01T15:01:21Z</time>
      </trkpt>
      <trkpt lat="47.29191" lon="7.84002">
        <ele>427.1</ele>
        <time>2022-10-01T15:01:22Z</time>
      </trkpt>
      <trkpt lat="47.29193" lon="7.84007">
        <ele>427.1</ele>
        <time>2022-10-01T15:01:23Z</time>
      </trkpt>
      <trkpt lat="47.29197" lon="7.84012">
        <ele>427</ele>
        <time>2022-10-01T15:01:24Z</time>
      </trkpt>
      <trkpt lat="47.29201" lon="7.84018">
        <ele>427</ele>
        <time>2022-10-01T15:01:25Z</time>
      </trkpt>
      <trkpt lat="47.29204" lon="7.84022">
        <ele>427</ele>
        <time>2022-10-01T15:01:26Z</time>
      </trkpt>
      <trkpt lat="47.29208" lon="7.84028">
        <ele>427</ele>
        <time>2022-10-01T15:01:27Z</time>
      </trkpt>
      <trkpt lat="47.2921" lon="7.84033">
        <ele>427</ele>
        <time>2022-10-01T15:01:28Z</time>
      </trkpt>
      <trkpt lat="47.29215" lon="7.84039">
        <ele>427</ele>
        <time>2022-10-01T15:01:29Z</time>
      </trkpt>
      <trkpt lat="47.29218" lon="7.84043">
        <ele>427</ele>
        <time>2022-10-01T15:01:30Z</time>
      </trkpt>
      <trkpt lat="47.29221" lon="7.84049">
        <ele>427</ele>
        <time>2022-10-01T15:01:31Z</time>
      </trkpt>
      <trkpt lat="47.29225" lon="7.84054">
        <ele>427</ele>
        <time>2022-10-01T15:01:32Z</time>
      </trkpt>
      <trkpt lat="47.29229" lon="7.8406">
        <ele>427</ele>
        <time>2022-10-01T15:01:33Z</time>
      </trkpt>
      <trkpt lat="47.29233" lon="7.84066">
        <ele>427</ele>
        <time>2022-10-01T15:01:34Z</time>
      </trkpt>
      <trkpt lat="47.29238" lon="7.84072">
        <ele>427</ele>
        <time>2022-10-01T15:01:35Z</time>
      </trkpt>
      <trkpt lat="47.29241" lon="7.8408">
        <ele>427</ele>
        <time>2022-10-01T15:01:36Z</time>
      </trkpt>
      <trkpt lat="47.29243" lon="7.84084">
        <ele>427</ele>
        <time>2022-10-01T15:01:37Z</time>
      </trkpt>
      <trkpt lat="47.29247" lon="7.84089">
        <ele>427</ele>
        <time>2022-10-01T15:01:38Z</time>
      </trkpt>
      <trkpt lat="47.29251" lon="7.84094">
        <ele>427</ele>
        <time>2022-10-01T15:01:39Z</time>
      </trkpt>
      <trkpt lat="47.29254" lon="7.84099">
        <ele>427</ele>
        <time>2022-10-01T15:01:40Z</time>
      </trkpt>
      <trkpt lat="47.29257" lon="7.84103">
        <ele>427</ele>
        <time>2022-10-01T15:01:41Z</time>
      </trkpt>
      <trkpt lat="47.29259" lon="7.84105">
        <ele>427</ele>
        <time>2022-10-01T15:01:42Z</time>
      </trkpt>
      <trkpt lat="47.29262" lon="7.84112">
        <ele>427</ele>
        <time>2022-10-01T15:01:43Z</time>
      </trkpt>
      <trkpt lat="47.29265" lon="7.84116">
        <ele>427</ele>
        <time>2022-10-01T15:01:44Z</time>
      </trkpt>
      <trkpt lat="47.29268" lon="7.8412">
        <ele>427</ele>
        <time>2022-10-01T15:01:45Z</time>
      </trkpt>
      <trkpt lat="47.2927" lon="7.84125">
        <ele>427.1</ele>
        <time>2022-10-01T15:01:46Z</time>
      </trkpt>
      <trkpt lat="47.29273" lon="7.84129">
        <ele>427.1</ele>
        <time>2022-10-01T15:01:47Z</time>
      </trkpt>
      <trkpt lat="47.29275" lon="7.84134">
        <ele>427.1</ele>
        <time>2022-10-01T15:01:48Z</time>
      </trkpt>
      <trkpt lat="47.29279" lon="7.84139">
        <ele>427.1</ele>
        <time>2022-10-01T15:01:49Z</time>
      </trkpt>
      <trkpt lat="47.29282" lon="7.84145">
        <ele>427.1</ele>
        <time>2022-10-01T15:01:50Z</time>
      </trkpt>
      <trkpt lat="47.29284" lon="7.8415">
        <ele>427.1</ele>
        <time>2022-10-01T15:01:51Z</time>
      </trkpt>
      <trkpt lat="47.29287" lon="7.84155">
        <ele>427.1</ele>
        <time>2022-10-01T15:01:52Z</time>
      </trkpt>
      <trkpt lat="47.2929" lon="7.8416">
        <ele>427.1</ele>
        <time>2022-10-01T15:01:53Z</time>
      </trkpt>
      <trkpt lat="47.29293" lon="7.84164">
        <ele>427</ele>
        <time>2022-10-01T15:01:54Z</time>
      </trkpt>
      <trkpt lat="47.29296" lon="7.8417">
        <ele>427</ele>
        <time>2022-10-01T15:01:55Z</time>
      </trkpt>
      <trkpt lat="47.29299" lon="7.84175">
        <ele>427</ele>
        <time>2022-10-01T15:01:56Z</time>
      </trkpt>
      <trkpt lat="47.29303" lon="7.84181">
        <ele>426.9</ele>
        <time>2022-10-01T15:01:57Z</time>
      </trkpt>
      <trkpt lat="47.29307" lon="7.84187">
        <ele>426.9</ele>
        <time>2022-10-01T15:01:58Z</time>
      </trkpt>
      <trkpt lat="47.29311" lon="7.84193">
        <ele>426.8</ele>
        <time>2022-10-01T15:01:59Z</time>
      </trkpt>
      <trkpt lat="47.29314" lon="7.84197">
        <ele>426.7</ele>
        <time>2022-10-01T15:02:00Z</time>
      </trkpt>
      <trkpt lat="47.29317" lon="7.84202">
        <ele>426.7</ele>
        <time>2022-10-01T15:02:01Z</time>
      </trkpt>
      <trkpt lat="47.2932" lon="7.84207">
        <ele>426.6</ele>
        <time>2022-10-01T15:02:02Z</time>
      </trkpt>
      <trkpt lat="47.29321" lon="7.84212">
        <ele>426.6</ele>
        <time>2022-10-01T15:02:03Z</time>
      </trkpt>
      <trkpt lat="47.29324" lon="7.84217">
        <ele>426.5</ele>
        <time>2022-10-01T15:02:04Z</time>
      </trkpt>
      <trkpt lat="47.29326" lon="7.84221">
        <ele>426.5</ele>
        <time>2022-10-01T15:02:05Z</time>
      </trkpt>
      <trkpt lat="47.29326" lon="7.84227">
        <ele>426.5</ele>
        <time>2022-10-01T15:02:06Z</time>
      </trkpt>
      <trkpt lat="47.29326" lon="7.84232">
        <ele>426.3</ele>
        <time>2022-10-01T15:02:07Z</time>
      </trkpt>
      <trkpt lat="47.29324" lon="7.84236">
        <ele>426.3</ele>
        <time>2022-10-01T15:02:08Z</time>
      </trkpt>
      <trkpt lat="47.29323" lon="7.84238">
        <ele>426.3</ele>
        <time>2022-10-01T15:02:09Z</time>
      </trkpt>
      <trkpt lat="47.29322" lon="7.84242">
        <ele>426.3</ele>
        <time>2022-10-01T15:02:10Z</time>
      </trkpt>
      <trkpt lat="47.29321" lon="7.84247">
        <ele>426.3</ele>
        <time>2022-10-01T15:02:11Z</time>
      </trkpt>
      <trkpt lat="47.2932" lon="7.84249">
        <ele>426.2</ele>
        <time>2022-10-01T15:02:12Z</time>
      </trkpt>
      <trkpt lat="47.29318" lon="7.84255">
        <ele>426.2</ele>
        <time>2022-10-01T15:02:13Z</time>
      </trkpt>
      <trkpt lat="47.29317" lon="7.84256">
        <ele>426.2</ele>
        <time>2022-10-01T15:02:14Z</time>
      </trkpt>
      <trkpt lat="47.29314" lon="7.8426">
        <ele>426.2</ele>
        <time>2022-10-01T15:02:15Z</time>
      </trkpt>
      <trkpt lat="47.29312" lon="7.84266">
        <ele>426.2</ele>
        <time>2022-10-01T15:02:16Z</time>
      </trkpt>
      <trkpt lat="47.29309" lon="7.84271">
        <ele>426.2</ele>
        <time>2022-10-01T15:02:17Z</time>
      </trkpt>
      <trkpt lat="47.29307" lon="7.84275">
        <ele>426.2</ele>
        <time>2022-10-01T15:02:18Z</time>
      </trkpt>
      <trkpt lat="47.29304" lon="7.8428">
        <ele>426.2</ele>
        <time>2022-10-01T15:02:19Z</time>
      </trkpt>
      <trkpt lat="47.29301" lon="7.84284">
        <ele>426.2</ele>
        <time>2022-10-01T15:02:20Z</time>
      </trkpt>
      <trkpt lat="47.29298" lon="7.84289">
        <ele>426.2</ele>
        <time>2022-10-01T15:02:21Z</time>
      </trkpt>
      <trkpt lat="47.29295" lon="7.84294">
        <ele>426.2</ele>
        <time>2022-10-01T15:02:22Z</time>
      </trkpt>
      <trkpt lat="47.29291" lon="7.84299">
        <ele>426.2</ele>
        <time>2022-10-01T15:02:23Z</time>
      </trkpt>
      <trkpt lat="47.29289" lon="7.84304">
        <ele>426.2</ele>
        <time>2022-10-01T15:02:24Z</time>
      </trkpt>
      <trkpt lat="47.29286" lon="7.84311">
        <ele>426.2</ele>
        <time>2022-10-01T15:02:25Z</time>
      </trkpt>
      <trkpt lat="47.29284" lon="7.84314">
        <ele>426.2</ele>
        <time>2022-10-01T15:02:26Z</time>
      </trkpt>
      <trkpt lat="47.2928" lon="7.8432">
        <ele>426.2</ele>
        <time>2022-10-01T15:02:27Z</time>
      </trkpt>
      <trkpt lat="47.29278" lon="7.84324">
        <ele>426.2</ele>
        <time>2022-10-01T15:02:28Z</time>
      </trkpt>
      <trkpt lat="47.29275" lon="7.84329">
        <ele>426.2</ele>
        <time>2022-10-01T15:02:29Z</time>
      </trkpt>
      <trkpt lat="47.29272" lon="7.84332">
        <ele>426.2</ele>
        <time>2022-10-01T15:02:30Z</time>
      </trkpt>
      <trkpt lat="47.2927" lon="7.84339">
        <ele>426.2</ele>
        <time>2022-10-01T15:02:31Z</time>
      </trkpt>
      <trkpt lat="47.29267" lon="7.84345">
        <ele>426.3</ele>
        <time>2022-10-01T15:02:32Z</time>
      </trkpt>
      <trkpt lat="47.29265" lon="7.8435">
        <ele>426.3</ele>
        <time>2022-10-01T15:02:33Z</time>
      </trkpt>
      <trkpt lat="47.29261" lon="7.84355">
        <ele>426.3</ele>
        <time>2022-10-01T15:02:34Z</time>
      </trkpt>
      <trkpt lat="47.29258" lon="7.8436">
        <ele>426.3</ele>
        <time>2022-10-01T15:02:35Z</time>
      </trkpt>
      <trkpt lat="47.29255" lon="7.84365">
        <ele>426.3</ele>
        <time>2022-10-01T15:02:36Z</time>
      </trkpt>
      <trkpt lat="47.29252" lon="7.84371">
        <ele>426.3</ele>
        <time>2022-10-01T15:02:37Z</time>
      </trkpt>
      <trkpt lat="47.2925" lon="7.84375">
        <ele>426.4</ele>
        <time>2022-10-01T15:02:38Z</time>
      </trkpt>
      <trkpt lat="47.29245" lon="7.8438">
        <ele>426.4</ele>
        <time>2022-10-01T15:02:39Z</time>
      </trkpt>
      <trkpt lat="47.29242" lon="7.84384">
        <ele>426.4</ele>
        <time>2022-10-01T15:02:40Z</time>
      </trkpt>
      <trkpt lat="47.29239" lon="7.8439">
        <ele>426.4</ele>
        <time>2022-10-01T15:02:41Z</time>
      </trkpt>
      <trkpt lat="47.29235" lon="7.84395">
        <ele>426.4</ele>
        <time>2022-10-01T15:02:42Z</time>
      </trkpt>
      <trkpt lat="47.29233" lon="7.844">
        <ele>426.4</ele>
        <time>2022-10-01T15:02:43Z</time>
      </trkpt>
      <trkpt lat="47.2923" lon="7.84404">
        <ele>426.4</ele>
        <time>2022-10-01T15:02:44Z</time>
      </trkpt>
      <trkpt lat="47.29227" lon="7.84408">
        <ele>426.4</ele>
        <time>2022-10-01T15:02:45Z</time>
      </trkpt>
      <trkpt lat="47.29224" lon="7.84413">
        <ele>426.4</ele>
        <time>2022-10-01T15:02:46Z</time>
      </trkpt>
      <trkpt lat="47.29221" lon="7.84419">
        <ele>426.4</ele>
        <time>2022-10-01T15:02:47Z</time>
      </trkpt>
      <trkpt lat="47.29217" lon="7.84424">
        <ele>426.4</ele>
        <time>2022-10-01T15:02:48Z</time>
      </trkpt>
      <trkpt lat="47.29214" lon="7.84429">
        <ele>426.4</ele>
        <time>2022-10-01T15:02:49Z</time>
      </trkpt>
      <trkpt lat="47.29211" lon="7.84433">
        <ele>426.4</ele>
        <time>2022-10-01T15:02:50Z</time>
      </trkpt>
      <trkpt lat="47.29207" lon="7.84438">
        <ele>426.4</ele>
        <time>2022-10-01T15:02:51Z</time>
      </trkpt>
      <trkpt lat="47.29205" lon="7.84443">
        <ele>426.3</ele>
        <time>2022-10-01T15:02:52Z</time>
      </trkpt>
      <trkpt lat="47.292" lon="7.84448">
        <ele>426.3</ele>
        <time>2022-10-01T15:02:53Z</time>
      </trkpt>
      <trkpt lat="47.29198" lon="7.84451">
        <ele>426.3</ele>
        <time>2022-10-01T15:02:54Z</time>
      </trkpt>
      <trkpt lat="47.29196" lon="7.84456">
        <ele>426.2</ele>
        <time>2022-10-01T15:02:55Z</time>
      </trkpt>
      <trkpt lat="47.29193" lon="7.8446">
        <ele>426.1</ele>
        <time>2022-10-01T15:02:56Z</time>
      </trkpt>
      <trkpt lat="47.29189" lon="7.84463">
        <ele>426.1</ele>
        <time>2022-10-01T15:02:57Z</time>
      </trkpt>
      <trkpt lat="47.29186" lon="7.84468">
        <ele>426</ele>
        <time>2022-10-01T15:02:58Z</time>
      </trkpt>
      <trkpt lat="47.29182" lon="7.84473">
        <ele>425.8</ele>
        <time>2022-10-01T15:02:59Z</time>
      </trkpt>
      <trkpt lat="47.29178" lon="7.84479">
        <ele>425.7</ele>
        <time>2022-10-01T15:03:00Z</time>
      </trkpt>
      <trkpt lat="47.29175" lon="7.84484">
        <ele>425.5</ele>
        <time>2022-10-01T15:03:01Z</time>
      </trkpt>
      <trkpt lat="47.29172" lon="7.84489">
        <ele>425.3</ele>
        <time>2022-10-01T15:03:02Z</time>
      </trkpt>
      <trkpt lat="47.29168" lon="7.84492">
        <ele>425.2</ele>
        <time>2022-10-01T15:03:03Z</time>
      </trkpt>
      <trkpt lat="47.29166" lon="7.84496">
        <ele>425.1</ele>
        <time>2022-10-01T15:03:04Z</time>
      </trkpt>
      <trkpt lat="47.29163" lon="7.84499">
        <ele>424.9</ele>
        <time>2022-10-01T15:03:05Z</time>
      </trkpt>
      <trkpt lat="47.29161" lon="7.84502">
        <ele>424.8</ele>
        <time>2022-10-01T15:03:06Z</time>
      </trkpt>
      <trkpt lat="47.29157" lon="7.84505">
        <ele>424.6</ele>
        <time>2022-10-01T15:03:07Z</time>
      </trkpt>
      <trkpt lat="47.29156" lon="7.84508">
        <ele>424.5</ele>
        <time>2022-10-01T15:03:08Z</time>
      </trkpt>
      <trkpt lat="47.29154" lon="7.84512">
        <ele>424.4</ele>
        <time>2022-10-01T15:03:09Z</time>
      </trkpt>
      <trkpt lat="47.29152" lon="7.84515">
        <ele>424.3</ele>
        <time>2022-10-01T15:03:10Z</time>
      </trkpt>
      <trkpt lat="47.29151" lon="7.84517">
        <ele>424.2</ele>
        <time>2022-10-01T15:03:11Z</time>
      </trkpt>
      <trkpt lat="47.2915" lon="7.84519">
        <ele>424.1</ele>
        <time>2022-10-01T15:03:12Z</time>
      </trkpt>
      <trkpt lat="47.29148" lon="7.8452">
        <ele>424.1</ele>
        <time>2022-10-01T15:03:13Z</time>
      </trkpt>
      <trkpt lat="47.29146" lon="7.84523">
        <ele>423.9</ele>
        <time>2022-10-01T15:03:14Z</time>
      </trkpt>
      <trkpt lat="47.29143" lon="7.84525">
        <ele>423.8</ele>
        <time>2022-10-01T15:03:15Z</time>
      </trkpt>
      <trkpt lat="47.29141" lon="7.84528">
        <ele>423.7</ele>
        <time>2022-10-01T15:03:16Z</time>
      </trkpt>
      <trkpt lat="47.2914" lon="7.8453">
        <ele>423.6</ele>
        <time>2022-10-01T15:03:17Z</time>
      </trkpt>
      <trkpt lat="47.29138" lon="7.84534">
        <ele>423.5</ele>
        <time>2022-10-01T15:03:18Z</time>
      </trkpt>
      <trkpt lat="47.29135" lon="7.84536">
        <ele>423.4</ele>
        <time>2022-10-01T15:03:19Z</time>
      </trkpt>
      <trkpt lat="47.29135" lon="7.84537">
        <ele>423.4</ele>
        <time>2022-10-01T15:03:20Z</time>
      </trkpt>
      <trkpt lat="47.29132" lon="7.84542">
        <ele>423.2</ele>
        <time>2022-10-01T15:03:21Z</time>
      </trkpt>
      <trkpt lat="47.29131" lon="7.84543">
        <ele>423.2</ele>
        <time>2022-10-01T15:03:22Z</time>
      </trkpt>
      <trkpt lat="47.29128" lon="7.84547">
        <ele>423.1</ele>
        <time>2022-10-01T15:03:23Z</time>
      </trkpt>
      <trkpt lat="47.29125" lon="7.84549">
        <ele>423</ele>
        <time>2022-10-01T15:03:24Z</time>
      </trkpt>
      <trkpt lat="47.29124" lon="7.84555">
        <ele>422.9</ele>
        <time>2022-10-01T15:03:25Z</time>
      </trkpt>
      <trkpt lat="47.29124" lon="7.84557">
        <ele>422.9</ele>
        <time>2022-10-01T15:03:26Z</time>
      </trkpt>
      <trkpt lat="47.29122" lon="7.84562">
        <ele>422.9</ele>
        <time>2022-10-01T15:03:27Z</time>
      </trkpt>
      <trkpt lat="47.29121" lon="7.84563">
        <ele>422.9</ele>
        <time>2022-10-01T15:03:28Z</time>
      </trkpt>
      <trkpt lat="47.2912" lon="7.84567">
        <ele>422.9</ele>
        <time>2022-10-01T15:03:29Z</time>
      </trkpt>
      <trkpt lat="47.29121" lon="7.84571">
        <ele>422.8</ele>
        <time>2022-10-01T15:03:30Z</time>
      </trkpt>
      <trkpt lat="47.29122" lon="7.84575">
        <ele>422.5</ele>
        <time>2022-10-01T15:03:31Z</time>
      </trkpt>
      <trkpt lat="47.29124" lon="7.84579">
        <ele>422.4</ele>
        <time>2022-10-01T15:03:32Z</time>
      </trkpt>
      <trkpt lat="47.29125" lon="7.84581">
        <ele>422.4</ele>
        <time>2022-10-01T15:03:33Z</time>
      </trkpt>
      <trkpt lat="47.29126" lon="7.84585">
        <ele>422.3</ele>
        <time>2022-10-01T15:03:34Z</time>
      </trkpt>
      <trkpt lat="47.29128" lon="7.84589">
        <ele>422.3</ele>
        <time>2022-10-01T15:03:35Z</time>
      </trkpt>
      <trkpt lat="47.29131" lon="7.84593">
        <ele>422.2</ele>
        <time>2022-10-01T15:03:36Z</time>
      </trkpt>
      <trkpt lat="47.29134" lon="7.84595">
        <ele>422.2</ele>
        <time>2022-10-01T15:03:37Z</time>
      </trkpt>
      <trkpt lat="47.29135" lon="7.846">
        <ele>422.1</ele>
        <time>2022-10-01T15:03:38Z</time>
      </trkpt>
      <trkpt lat="47.29138" lon="7.84603">
        <ele>422.1</ele>
        <time>2022-10-01T15:03:39Z</time>
      </trkpt>
      <trkpt lat="47.29141" lon="7.84607">
        <ele>422</ele>
        <time>2022-10-01T15:03:40Z</time>
      </trkpt>
      <trkpt lat="47.29143" lon="7.84611">
        <ele>422</ele>
        <time>2022-10-01T15:03:41Z</time>
      </trkpt>
      <trkpt lat="47.29145" lon="7.84614">
        <ele>422</ele>
        <time>2022-10-01T15:03:42Z</time>
      </trkpt>
      <trkpt lat="47.29148" lon="7.84618">
        <ele>422</ele>
        <time>2022-10-01T15:03:43Z</time>
      </trkpt>
      <trkpt lat="47.29151" lon="7.84622">
        <ele>421.9</ele>
        <time>2022-10-01T15:03:44Z</time>
      </trkpt>
      <trkpt lat="47.29154" lon="7.84627">
        <ele>421.9</ele>
        <time>2022-10-01T15:03:45Z</time>
      </trkpt>
      <trkpt lat="47.29157" lon="7.84632">
        <ele>421.9</ele>
        <time>2022-10-01T15:03:46Z</time>
      </trkpt>
      <trkpt lat="47.2916" lon="7.84635">
        <ele>421.9</ele>
        <time>2022-10-01T15:03:47Z</time>
      </trkpt>
      <trkpt lat="47.29164" lon="7.84639">
        <ele>421.9</ele>
        <time>2022-10-01T15:03:48Z</time>
      </trkpt>
      <trkpt lat="47.29167" lon="7.84643">
        <ele>421.8</ele>
        <time>2022-10-01T15:03:49Z</time>
      </trkpt>
      <trkpt lat="47.29171" lon="7.84648">
        <ele>421.8</ele>
        <time>2022-10-01T15:03:50Z</time>
      </trkpt>
      <trkpt lat="47.29175" lon="7.84652">
        <ele>421.8</ele>
        <time>2022-10-01T15:03:51Z</time>
      </trkpt>
      <trkpt lat="47.29178" lon="7.84656">
        <ele>421.8</ele>
        <time>2022-10-01T15:03:52Z</time>
      </trkpt>
      <trkpt lat="47.29181" lon="7.84659">
        <ele>421.8</ele>
        <time>2022-10-01T15:03:53Z</time>
      </trkpt>
      <trkpt lat="47.29184" lon="7.84663">
        <ele>421.8</ele>
        <time>2022-10-01T15:03:54Z</time>
      </trkpt>
      <trkpt lat="47.29187" lon="7.84666">
        <ele>421.8</ele>
        <time>2022-10-01T15:03:55Z</time>
      </trkpt>
      <trkpt lat="47.29191" lon="7.84668">
        <ele>421.8</ele>
        <time>2022-10-01T15:03:56Z</time>
      </trkpt>
      <trkpt lat="47.29194" lon="7.84673">
        <ele>421.8</ele>
        <time>2022-10-01T15:03:57Z</time>
      </trkpt>
      <trkpt lat="47.29195" lon="7.84675">
        <ele>421.8</ele>
        <time>2022-10-01T15:03:58Z</time>
      </trkpt>
      <trkpt lat="47.29198" lon="7.84678">
        <ele>421.8</ele>
        <time>2022-10-01T15:03:59Z</time>
      </trkpt>
      <trkpt lat="47.29201" lon="7.84681">
        <ele>421.9</ele>
        <time>2022-10-01T15:04:00Z</time>
      </trkpt>
      <trkpt lat="47.29204" lon="7.84685">
        <ele>421.9</ele>
        <time>2022-10-01T15:04:01Z</time>
      </trkpt>
      <trkpt lat="47.29207" lon="7.84689">
        <ele>421.9</ele>
        <time>2022-10-01T15:04:02Z</time>
      </trkpt>
      <trkpt lat="47.2921" lon="7.84692">
        <ele>421.9</ele>
        <time>2022-10-01T15:04:03Z</time>
      </trkpt>
      <trkpt lat="47.29213" lon="7.84697">
        <ele>421.9</ele>
        <time>2022-10-01T15:04:04Z</time>
      </trkpt>
      <trkpt lat="47.29216" lon="7.84702">
        <ele>421.9</ele>
        <time>2022-10-01T15:04:05Z</time>
      </trkpt>
      <trkpt lat="47.29219" lon="7.84706">
        <ele>421.9</ele>
        <time>2022-10-01T15:04:06Z</time>
      </trkpt>
      <trkpt lat="47.29221" lon="7.8471">
        <ele>421.9</ele>
        <time>2022-10-01T15:04:07Z</time>
      </trkpt>
      <trkpt lat="47.29224" lon="7.84713">
        <ele>421.9</ele>
        <time>2022-10-01T15:04:08Z</time>
      </trkpt>
      <trkpt lat="47.29227" lon="7.84716">
        <ele>421.9</ele>
        <time>2022-10-01T15:04:09Z</time>
      </trkpt>
      <trkpt lat="47.29229" lon="7.84719">
        <ele>422</ele>
        <time>2022-10-01T15:04:10Z</time>
      </trkpt>
      <trkpt lat="47.29233" lon="7.84724">
        <ele>422</ele>
        <time>2022-10-01T15:04:11Z</time>
      </trkpt>
      <trkpt lat="47.29237" lon="7.84729">
        <ele>422</ele>
        <time>2022-10-01T15:04:12Z</time>
      </trkpt>
      <trkpt lat="47.2924" lon="7.84733">
        <ele>422</ele>
        <time>2022-10-01T15:04:13Z</time>
      </trkpt>
      <trkpt lat="47.29243" lon="7.84737">
        <ele>422</ele>
        <time>2022-10-01T15:04:14Z</time>
      </trkpt>
      <trkpt lat="47.29247" lon="7.84741">
        <ele>422</ele>
        <time>2022-10-01T15:04:15Z</time>
      </trkpt>
      <trkpt lat="47.29253" lon="7.84744">
        <ele>422</ele>
        <time>2022-10-01T15:04:16Z</time>
      </trkpt>
      <trkpt lat="47.29256" lon="7.84748">
        <ele>422.1</ele>
        <time>2022-10-01T15:04:17Z</time>
      </trkpt>
      <trkpt lat="47.29259" lon="7.84753">
        <ele>422.1</ele>
        <time>2022-10-01T15:04:18Z</time>
      </trkpt>
      <trkpt lat="47.29262" lon="7.84757">
        <ele>422.1</ele>
        <time>2022-10-01T15:04:19Z</time>
      </trkpt>
      <trkpt lat="47.29265" lon="7.84762">
        <ele>422.1</ele>
        <time>2022-10-01T15:04:20Z</time>
      </trkpt>
      <trkpt lat="47.29269" lon="7.84767">
        <ele>422.2</ele>
        <time>2022-10-01T15:04:21Z</time>
      </trkpt>
      <trkpt lat="47.29272" lon="7.8477">
        <ele>422.2</ele>
        <time>2022-10-01T15:04:22Z</time>
      </trkpt>
      <trkpt lat="47.29275" lon="7.84775">
        <ele>422.3</ele>
        <time>2022-10-01T15:04:23Z</time>
      </trkpt>
      <trkpt lat="47.29279" lon="7.84778">
        <ele>422.3</ele>
        <time>2022-10-01T15:04:24Z</time>
      </trkpt>
      <trkpt lat="47.29282" lon="7.8478">
        <ele>422.3</ele>
        <time>2022-10-01T15:04:25Z</time>
      </trkpt>
      <trkpt lat="47.29286" lon="7.84784">
        <ele>422.4</ele>
        <time>2022-10-01T15:04:26Z</time>
      </trkpt>
      <trkpt lat="47.2929" lon="7.84786">
        <ele>422.4</ele>
        <time>2022-10-01T15:04:27Z</time>
      </trkpt>
      <trkpt lat="47.29294" lon="7.84788">
        <ele>422.4</ele>
        <time>2022-10-01T15:04:28Z</time>
      </trkpt>
      <trkpt lat="47.29298" lon="7.84791">
        <ele>422.3</ele>
        <time>2022-10-01T15:04:29Z</time>
      </trkpt>
      <trkpt lat="47.29302" lon="7.84794">
        <ele>422.3</ele>
        <time>2022-10-01T15:04:30Z</time>
      </trkpt>
      <trkpt lat="47.29307" lon="7.84799">
        <ele>422.3</ele>
        <time>2022-10-01T15:04:31Z</time>
      </trkpt>
      <trkpt lat="47.29313" lon="7.84801">
        <ele>422.2</ele>
        <time>2022-10-01T15:04:32Z</time>
      </trkpt>
      <trkpt lat="47.29317" lon="7.84805">
        <ele>422.2</ele>
        <time>2022-10-01T15:04:33Z</time>
      </trkpt>
      <trkpt lat="47.29321" lon="7.84808">
        <ele>422.2</ele>
        <time>2022-10-01T15:04:34Z</time>
      </trkpt>
      <trkpt lat="47.29326" lon="7.84812">
        <ele>422.2</ele>
        <time>2022-10-01T15:04:35Z</time>
      </trkpt>
      <trkpt lat="47.2933" lon="7.84814">
        <ele>422.2</ele>
        <time>2022-10-01T15:04:36Z</time>
      </trkpt>
      <trkpt lat="47.29335" lon="7.84817">
        <ele>422.1</ele>
        <time>2022-10-01T15:04:37Z</time>
      </trkpt>
      <trkpt lat="47.29339" lon="7.8482">
        <ele>422.1</ele>
        <time>2022-10-01T15:04:38Z</time>
      </trkpt>
      <trkpt lat="47.29343" lon="7.84823">
        <ele>422.1</ele>
        <time>2022-10-01T15:04:39Z</time>
      </trkpt>
      <trkpt lat="47.29347" lon="7.84827">
        <ele>422.1</ele>
        <time>2022-10-01T15:04:40Z</time>
      </trkpt>
      <trkpt lat="47.29351" lon="7.8483">
        <ele>422.1</ele>
        <time>2022-10-01T15:04:41Z</time>
      </trkpt>
      <trkpt lat="47.29355" lon="7.84833">
        <ele>422.1</ele>
        <time>2022-10-01T15:04:42Z</time>
      </trkpt>
      <trkpt lat="47.2936" lon="7.84837">
        <ele>422</ele>
        <time>2022-10-01T15:04:43Z</time>
      </trkpt>
      <trkpt lat="47.29365" lon="7.8484">
        <ele>422</ele>
        <time>2022-10-01T15:04:44Z</time>
      </trkpt>
      <trkpt lat="47.2937" lon="7.84845">
        <ele>422</ele>
        <time>2022-10-01T15:04:45Z</time>
      </trkpt>
      <trkpt lat="47.29374" lon="7.84848">
        <ele>422</ele>
        <time>2022-10-01T15:04:46Z</time>
      </trkpt>
      <trkpt lat="47.29378" lon="7.8485">
        <ele>422</ele>
        <time>2022-10-01T15:04:47Z</time>
      </trkpt>
      <trkpt lat="47.29381" lon="7.84852">
        <ele>422.1</ele>
        <time>2022-10-01T15:04:48Z</time>
      </trkpt>
      <trkpt lat="47.29385" lon="7.84855">
        <ele>422.1</ele>
        <time>2022-10-01T15:04:49Z</time>
      </trkpt>
      <trkpt lat="47.2939" lon="7.84858">
        <ele>422.1</ele>
        <time>2022-10-01T15:04:50Z</time>
      </trkpt>
      <trkpt lat="47.29393" lon="7.84861">
        <ele>422.1</ele>
        <time>2022-10-01T15:04:51Z</time>
      </trkpt>
      <trkpt lat="47.29397" lon="7.84863">
        <ele>422.1</ele>
        <time>2022-10-01T15:04:52Z</time>
      </trkpt>
      <trkpt lat="47.29401" lon="7.84866">
        <ele>422.1</ele>
        <time>2022-10-01T15:04:53Z</time>
      </trkpt>
      <trkpt lat="47.29404" lon="7.84867">
        <ele>422.1</ele>
        <time>2022-10-01T15:04:54Z</time>
      </trkpt>
      <trkpt lat="47.29409" lon="7.84869">
        <ele>422.2</ele>
        <time>2022-10-01T15:04:55Z</time>
      </trkpt>
      <trkpt lat="47.29411" lon="7.84871">
        <ele>422.2</ele>
        <time>2022-10-01T15:04:56Z</time>
      </trkpt>
      <trkpt lat="47.29415" lon="7.84873">
        <ele>422.2</ele>
        <time>2022-10-01T15:04:57Z</time>
      </trkpt>
      <trkpt lat="47.29419" lon="7.84877">
        <ele>422.2</ele>
        <time>2022-10-01T15:04:58Z</time>
      </trkpt>
      <trkpt lat="47.29422" lon="7.84878">
        <ele>422.2</ele>
        <time>2022-10-01T15:04:59Z</time>
      </trkpt>
      <trkpt lat="47.29427" lon="7.8488">
        <ele>422.2</ele>
        <time>2022-10-01T15:05:00Z</time>
      </trkpt>
      <trkpt lat="47.29431" lon="7.84881">
        <ele>422.2</ele>
        <time>2022-10-01T15:05:01Z</time>
      </trkpt>
      <trkpt lat="47.29433" lon="7.84882">
        <ele>422.3</ele>
        <time>2022-10-01T15:05:02Z</time>
      </trkpt>
      <trkpt lat="47.29437" lon="7.84883">
        <ele>422.3</ele>
        <time>2022-10-01T15:05:03Z</time>
      </trkpt>
      <trkpt lat="47.29441" lon="7.84885">
        <ele>422.3</ele>
        <time>2022-10-01T15:05:04Z</time>
      </trkpt>
      <trkpt lat="47.29444" lon="7.84885">
        <ele>422.3</ele>
        <time>2022-10-01T15:05:05Z</time>
      </trkpt>
      <trkpt lat="47.29448" lon="7.84885">
        <ele>422.3</ele>
        <time>2022-10-01T15:05:06Z</time>
      </trkpt>
      <trkpt lat="47.29452" lon="7.84887">
        <ele>422.3</ele>
        <time>2022-10-01T15:05:07Z</time>
      </trkpt>
      <trkpt lat="47.29456" lon="7.84888">
        <ele>422.3</ele>
        <time>2022-10-01T15:05:08Z</time>
      </trkpt>
      <trkpt lat="47.29459" lon="7.84888">
        <ele>422.3</ele>
        <time>2022-10-01T15:05:09Z</time>
      </trkpt>
      <trkpt lat="47.29462" lon="7.84888">
        <ele>422.3</ele>
        <time>2022-10-01T15:05:10Z</time>
      </trkpt>
      <trkpt lat="47.29468" lon="7.84888">
        <ele>422.3</ele>
        <time>2022-10-01T15:05:11Z</time>
      </trkpt>
      <trkpt lat="47.29473" lon="7.84887">
        <ele>422.3</ele>
        <time>2022-10-01T15:05:12Z</time>
      </trkpt>
      <trkpt lat="47.29478" lon="7.84886">
        <ele>422.3</ele>
        <time>2022-10-01T15:05:13Z</time>
      </trkpt>
      <trkpt lat="47.29482" lon="7.84885">
        <ele>422.3</ele>
        <time>2022-10-01T15:05:14Z</time>
      </trkpt>
      <trkpt lat="47.29485" lon="7.84884">
        <ele>422.3</ele>
        <time>2022-10-01T15:05:15Z</time>
      </trkpt>
      <trkpt lat="47.29487" lon="7.84884">
        <ele>422.3</ele>
        <time>2022-10-01T15:05:16Z</time>
      </trkpt>
      <trkpt lat="47.2949" lon="7.84883">
        <ele>422.3</ele>
        <time>2022-10-01T15:05:17Z</time>
      </trkpt>
      <trkpt lat="47.29494" lon="7.84882">
        <ele>422.3</ele>
        <time>2022-10-01T15:05:18Z</time>
      </trkpt>
      <trkpt lat="47.29498" lon="7.84881">
        <ele>422.3</ele>
        <time>2022-10-01T15:05:19Z</time>
      </trkpt>
      <trkpt lat="47.29501" lon="7.84881">
        <ele>422.3</ele>
        <time>2022-10-01T15:05:20Z</time>
      </trkpt>
      <trkpt lat="47.29505" lon="7.84881">
        <ele>422.3</ele>
        <time>2022-10-01T15:05:21Z</time>
      </trkpt>
      <trkpt lat="47.29509" lon="7.8488">
        <ele>422.3</ele>
        <time>2022-10-01T15:05:22Z</time>
      </trkpt>
      <trkpt lat="47.29513" lon="7.8488">
        <ele>422.3</ele>
        <time>2022-10-01T15:05:23Z</time>
      </trkpt>
      <trkpt lat="47.29517" lon="7.8488">
        <ele>422.4</ele>
        <time>2022-10-01T15:05:24Z</time>
      </trkpt>
      <trkpt lat="47.29521" lon="7.8488">
        <ele>422.4</ele>
        <time>2022-10-01T15:05:25Z</time>
      </trkpt>
      <trkpt lat="47.29524" lon="7.84881">
        <ele>422.4</ele>
        <time>2022-10-01T15:05:26Z</time>
      </trkpt>
      <trkpt lat="47.29528" lon="7.8488">
        <ele>422.4</ele>
        <time>2022-10-01T15:05:27Z</time>
      </trkpt>
      <trkpt lat="47.29531" lon="7.8488">
        <ele>422.4</ele>
        <time>2022-10-01T15:05:28Z</time>
      </trkpt>
      <trkpt lat="47.29535" lon="7.8488">
        <ele>422.4</ele>
        <time>2022-10-01T15:05:29Z</time>
      </trkpt>
      <trkpt lat="47.29539" lon="7.84879">
        <ele>422.4</ele>
        <time>2022-10-01T15:05:30Z</time>
      </trkpt>
      <trkpt lat="47.29544" lon="7.84877">
        <ele>422.4</ele>
        <time>2022-10-01T15:05:31Z</time>
      </trkpt>
      <trkpt lat="47.29545" lon="7.84876">
        <ele>422.4</ele>
        <time>2022-10-01T15:05:32Z</time>
      </trkpt>
      <trkpt lat="47.29549" lon="7.84874">
        <ele>422.3</ele>
        <time>2022-10-01T15:05:33Z</time>
      </trkpt>
      <trkpt lat="47.29552" lon="7.84872">
        <ele>422.3</ele>
        <time>2022-10-01T15:05:34Z</time>
      </trkpt>
      <trkpt lat="47.29556" lon="7.8487">
        <ele>422.2</ele>
        <time>2022-10-01T15:05:35Z</time>
      </trkpt>
      <trkpt lat="47.2956" lon="7.84867">
        <ele>422.1</ele>
        <time>2022-10-01T15:05:36Z</time>
      </trkpt>
      <trkpt lat="47.29564" lon="7.84866">
        <ele>422.1</ele>
        <time>2022-10-01T15:05:37Z</time>
      </trkpt>
      <trkpt lat="47.29568" lon="7.84864">
        <ele>422</ele>
        <time>2022-10-01T15:05:38Z</time>
      </trkpt>
      <trkpt lat="47.29571" lon="7.84863">
        <ele>421.9</ele>
        <time>2022-10-01T15:05:39Z</time>
      </trkpt>
      <trkpt lat="47.29574" lon="7.84862">
        <ele>421.8</ele>
        <time>2022-10-01T15:05:40Z</time>
      </trkpt>
      <trkpt lat="47.29579" lon="7.84861">
        <ele>421.7</ele>
        <time>2022-10-01T15:05:41Z</time>
      </trkpt>
      <trkpt lat="47.29582" lon="7.84861">
        <ele>421.7</ele>
        <time>2022-10-01T15:05:42Z</time>
      </trkpt>
      <trkpt lat="47.29588" lon="7.84861">
        <ele>421.5</ele>
        <time>2022-10-01T15:05:43Z</time>
      </trkpt>
      <trkpt lat="47.29592" lon="7.84861">
        <ele>421.4</ele>
        <time>2022-10-01T15:05:44Z</time>
      </trkpt>
      <trkpt lat="47.29596" lon="7.84861">
        <ele>421.4</ele>
        <time>2022-10-01T15:05:45Z</time>
      </trkpt>
      <trkpt lat="47.29599" lon="7.84861">
        <ele>421.3</ele>
        <time>2022-10-01T15:05:46Z</time>
      </trkpt>
      <trkpt lat="47.29603" lon="7.84861">
        <ele>421.3</ele>
        <time>2022-10-01T15:05:47Z</time>
      </trkpt>
      <trkpt lat="47.29606" lon="7.84859">
        <ele>421.2</ele>
        <time>2022-10-01T15:05:48Z</time>
      </trkpt>
      <trkpt lat="47.29608" lon="7.84857">
        <ele>421.2</ele>
        <time>2022-10-01T15:05:49Z</time>
      </trkpt>
      <trkpt lat="47.29611" lon="7.84854">
        <ele>421.2</ele>
        <time>2022-10-01T15:05:50Z</time>
      </trkpt>
      <trkpt lat="47.29612" lon="7.84853">
        <ele>421.2</ele>
        <time>2022-10-01T15:05:51Z</time>
      </trkpt>
      <trkpt lat="47.29613" lon="7.84851">
        <ele>421.1</ele>
        <time>2022-10-01T15:05:52Z</time>
      </trkpt>
      <trkpt lat="47.29614" lon="7.84848">
        <ele>421.1</ele>
        <time>2022-10-01T15:05:53Z</time>
      </trkpt>
      <trkpt lat="47.29615" lon="7.84845">
        <ele>421.1</ele>
        <time>2022-10-01T15:05:54Z</time>
      </trkpt>
      <trkpt lat="47.29617" lon="7.84841">
        <ele>421.1</ele>
        <time>2022-10-01T15:05:55Z</time>
      </trkpt>
      <trkpt lat="47.29617" lon="7.84836">
        <ele>421</ele>
        <time>2022-10-01T15:05:56Z</time>
      </trkpt>
      <trkpt lat="47.29617" lon="7.84834">
        <ele>421</ele>
        <time>2022-10-01T15:05:57Z</time>
      </trkpt>
      <trkpt lat="47.29619" lon="7.8483">
        <ele>421</ele>
        <time>2022-10-01T15:05:58Z</time>
      </trkpt>
      <trkpt lat="47.29619" lon="7.84825">
        <ele>420.9</ele>
        <time>2022-10-01T15:05:59Z</time>
      </trkpt>
      <trkpt lat="47.29619" lon="7.84822">
        <ele>420.9</ele>
        <time>2022-10-01T15:06:00Z</time>
      </trkpt>
      <trkpt lat="47.2962" lon="7.84818">
        <ele>420.9</ele>
        <time>2022-10-01T15:06:01Z</time>
      </trkpt>
      <trkpt lat="47.29621" lon="7.84816">
        <ele>420.9</ele>
        <time>2022-10-01T15:06:02Z</time>
      </trkpt>
      <trkpt lat="47.29621" lon="7.84812">
        <ele>420.9</ele>
        <time>2022-10-01T15:06:03Z</time>
      </trkpt>
      <trkpt lat="47.29621" lon="7.84811">
        <ele>420.9</ele>
        <time>2022-10-01T15:06:04Z</time>
      </trkpt>
      <trkpt lat="47.29621" lon="7.84808">
        <ele>420.9</ele>
        <time>2022-10-01T15:06:05Z</time>
      </trkpt>
      <trkpt lat="47.29622" lon="7.84806">
        <ele>420.9</ele>
        <time>2022-10-01T15:06:06Z</time>
      </trkpt>
      <trkpt lat="47.29622" lon="7.84802">
        <ele>420.9</ele>
        <time>2022-10-01T15:06:07Z</time>
      </trkpt>
      <trkpt lat="47.29623" lon="7.848">
        <ele>420.9</ele>
        <time>2022-10-01T15:06:08Z</time>
      </trkpt>
      <trkpt lat="47.29624" lon="7.84796">
        <ele>420.9</ele>
        <time>2022-10-01T15:06:09Z</time>
      </trkpt>
      <trkpt lat="47.29625" lon="7.84792">
        <ele>420.9</ele>
        <time>2022-10-01T15:06:10Z</time>
      </trkpt>
      <trkpt lat="47.29626" lon="7.84787">
        <ele>421</ele>
        <time>2022-10-01T15:06:11Z</time>
      </trkpt>
      <trkpt lat="47.29626" lon="7.84783">
        <ele>421</ele>
        <time>2022-10-01T15:06:12Z</time>
      </trkpt>
      <trkpt lat="47.29627" lon="7.84779">
        <ele>421</ele>
        <time>2022-10-01T15:06:13Z</time>
      </trkpt>
      <trkpt lat="47.29629" lon="7.84774">
        <ele>421</ele>
        <time>2022-10-01T15:06:14Z</time>
      </trkpt>
      <trkpt lat="47.29629" lon="7.84772">
        <ele>421</ele>
        <time>2022-10-01T15:06:15Z</time>
      </trkpt>
      <trkpt lat="47.2963" lon="7.84768">
        <ele>421.1</ele>
        <time>2022-10-01T15:06:16Z</time>
      </trkpt>
      <trkpt lat="47.29631" lon="7.84763">
        <ele>421.1</ele>
        <time>2022-10-01T15:06:17Z</time>
      </trkpt>
      <trkpt lat="47.29632" lon="7.84758">
        <ele>421.2</ele>
        <time>2022-10-01T15:06:18Z</time>
      </trkpt>
      <trkpt lat="47.29634" lon="7.84753">
        <ele>421.2</ele>
        <time>2022-10-01T15:06:19Z</time>
      </trkpt>
      <trkpt lat="47.29635" lon="7.84749">
        <ele>421.2</ele>
        <time>2022-10-01T15:06:20Z</time>
      </trkpt>
      <trkpt lat="47.29636" lon="7.84745">
        <ele>421.3</ele>
        <time>2022-10-01T15:06:21Z</time>
      </trkpt>
      <trkpt lat="47.29639" lon="7.8474">
        <ele>421.4</ele>
        <time>2022-10-01T15:06:22Z</time>
      </trkpt>
      <trkpt lat="47.29639" lon="7.84737">
        <ele>421.4</ele>
        <time>2022-10-01T15:06:23Z</time>
      </trkpt>
      <trkpt lat="47.29641" lon="7.84733">
        <ele>421.5</ele>
        <time>2022-10-01T15:06:24Z</time>
      </trkpt>
      <trkpt lat="47.29642" lon="7.84732">
        <ele>421.5</ele>
        <time>2022-10-01T15:06:25Z</time>
      </trkpt>
      <trkpt lat="47.29642" lon="7.8473">
        <ele>421.5</ele>
        <time>2022-10-01T15:06:26Z</time>
      </trkpt>
      <trkpt lat="47.29643" lon="7.84728">
        <ele>421.6</ele>
        <time>2022-10-01T15:06:27Z</time>
      </trkpt>
      <trkpt lat="47.29644" lon="7.84727">
        <ele>421.6</ele>
        <time>2022-10-01T15:06:28Z</time>
      </trkpt>
      <trkpt lat="47.29645" lon="7.84724">
        <ele>421.7</ele>
        <time>2022-10-01T15:06:29Z</time>
      </trkpt>
      <trkpt lat="47.29645" lon="7.84721">
        <ele>421.7</ele>
        <time>2022-10-01T15:06:30Z</time>
      </trkpt>
      <trkpt lat="47.29646" lon="7.84719">
        <ele>421.8</ele>
        <time>2022-10-01T15:06:31Z</time>
      </trkpt>
      <trkpt lat="47.29647" lon="7.84716">
        <ele>421.8</ele>
        <time>2022-10-01T15:06:32Z</time>
      </trkpt>
      <trkpt lat="47.29648" lon="7.84715">
        <ele>421.9</ele>
        <time>2022-10-01T15:06:33Z</time>
      </trkpt>
      <trkpt lat="47.29649" lon="7.84711">
        <ele>422</ele>
        <time>2022-10-01T15:06:34Z</time>
      </trkpt>
      <trkpt lat="47.2965" lon="7.8471">
        <ele>422</ele>
        <time>2022-10-01T15:06:35Z</time>
      </trkpt>
      <trkpt lat="47.2965" lon="7.84708">
        <ele>422</ele>
        <time>2022-10-01T15:06:36Z</time>
      </trkpt>
      <trkpt lat="47.29653" lon="7.84707">
        <ele>422.1</ele>
        <time>2022-10-01T15:06:37Z</time>
      </trkpt>
      <trkpt lat="47.29653" lon="7.84706">
        <ele>422.2</ele>
        <time>2022-10-01T15:06:38Z</time>
      </trkpt>
      <trkpt lat="47.29654" lon="7.84703">
        <ele>422.2</ele>
        <time>2022-10-01T15:06:39Z</time>
      </trkpt>
      <trkpt lat="47.29655" lon="7.84701">
        <ele>422.3</ele>
        <time>2022-10-01T15:06:40Z</time>
      </trkpt>
      <trkpt lat="47.29657" lon="7.847">
        <ele>422.3</ele>
        <time>2022-10-01T15:06:41Z</time>
      </trkpt>
      <trkpt lat="47.29659" lon="7.84696">
        <ele>422.5</ele>
        <time>2022-10-01T15:06:42Z</time>
      </trkpt>
      <trkpt lat="47.2966" lon="7.84694">
        <ele>422.5</ele>
        <time>2022-10-01T15:06:43Z</time>
      </trkpt>
      <trkpt lat="47.29662" lon="7.8469">
        <ele>422.6</ele>
        <time>2022-10-01T15:06:44Z</time>
      </trkpt>
      <trkpt lat="47.29663" lon="7.84689">
        <ele>422.7</ele>
        <time>2022-10-01T15:06:45Z</time>
      </trkpt>
      <trkpt lat="47.29664" lon="7.84684">
        <ele>422.8</ele>
        <time>2022-10-01T15:06:46Z</time>
      </trkpt>
      <trkpt lat="47.29664" lon="7.84682">
        <ele>422.8</ele>
        <time>2022-10-01T15:06:47Z</time>
      </trkpt>
      <trkpt lat="47.29665" lon="7.84677">
        <ele>422.9</ele>
        <time>2022-10-01T15:06:48Z</time>
      </trkpt>
      <trkpt lat="47.29666" lon="7.84676">
        <ele>423</ele>
        <time>2022-10-01T15:06:49Z</time>
      </trkpt>
      <trkpt lat="47.29668" lon="7.8467">
        <ele>423.1</ele>
        <time>2022-10-01T15:06:50Z</time>
      </trkpt>
      <trkpt lat="47.29668" lon="7.84667">
        <ele>423.2</ele>
        <time>2022-10-01T15:06:51Z</time>
      </trkpt>
      <trkpt lat="47.29669" lon="7.84662">
        <ele>423.3</ele>
        <time>2022-10-01T15:06:52Z</time>
      </trkpt>
      <trkpt lat="47.29669" lon="7.84658">
        <ele>423.3</ele>
        <time>2022-10-01T15:06:53Z</time>
      </trkpt>
      <trkpt lat="47.29671" lon="7.84653">
        <ele>423.4</ele>
        <time>2022-10-01T15:06:54Z</time>
      </trkpt>
      <trkpt lat="47.29671" lon="7.84649">
        <ele>423.5</ele>
        <time>2022-10-01T15:06:55Z</time>
      </trkpt>
      <trkpt lat="47.29672" lon="7.84644">
        <ele>423.6</ele>
        <time>2022-10-01T15:06:56Z</time>
      </trkpt>
      <trkpt lat="47.29673" lon="7.84639">
        <ele>423.6</ele>
        <time>2022-10-01T15:06:57Z</time>
      </trkpt>
      <trkpt lat="47.29673" lon="7.84637">
        <ele>423.7</ele>
        <time>2022-10-01T15:06:58Z</time>
      </trkpt>
      <trkpt lat="47.29675" lon="7.84632">
        <ele>423.7</ele>
        <time>2022-10-01T15:06:59Z</time>
      </trkpt>
      <trkpt lat="47.29676" lon="7.84627">
        <ele>423.8</ele>
        <time>2022-10-01T15:07:00Z</time>
      </trkpt>
      <trkpt lat="47.29676" lon="7.84623">
        <ele>423.8</ele>
        <time>2022-10-01T15:07:01Z</time>
      </trkpt>
      <trkpt lat="47.29678" lon="7.84619">
        <ele>423.9</ele>
        <time>2022-10-01T15:07:02Z</time>
      </trkpt>
      <trkpt lat="47.29679" lon="7.84614">
        <ele>423.9</ele>
        <time>2022-10-01T15:07:03Z</time>
      </trkpt>
      <trkpt lat="47.29681" lon="7.84609">
        <ele>423.9</ele>
        <time>2022-10-01T15:07:04Z</time>
      </trkpt>
      <trkpt lat="47.29682" lon="7.84605">
        <ele>424</ele>
        <time>2022-10-01T15:07:05Z</time>
      </trkpt>
      <trkpt lat="47.29683" lon="7.84601">
        <ele>424</ele>
        <time>2022-10-01T15:07:06Z</time>
      </trkpt>
      <trkpt lat="47.29685" lon="7.84595">
        <ele>424.1</ele>
        <time>2022-10-01T15:07:07Z</time>
      </trkpt>
      <trkpt lat="47.29687" lon="7.8459">
        <ele>424.1</ele>
        <time>2022-10-01T15:07:08Z</time>
      </trkpt>
      <trkpt lat="47.29688" lon="7.84585">
        <ele>424.2</ele>
        <time>2022-10-01T15:07:09Z</time>
      </trkpt>
      <trkpt lat="47.2969" lon="7.8458">
        <ele>424.2</ele>
        <time>2022-10-01T15:07:10Z</time>
      </trkpt>
      <trkpt lat="47.29692" lon="7.84575">
        <ele>424.3</ele>
        <time>2022-10-01T15:07:11Z</time>
      </trkpt>
      <trkpt lat="47.29694" lon="7.84571">
        <ele>424.4</ele>
        <time>2022-10-01T15:07:12Z</time>
      </trkpt>
      <trkpt lat="47.29696" lon="7.84566">
        <ele>424.5</ele>
        <time>2022-10-01T15:07:13Z</time>
      </trkpt>
      <trkpt lat="47.29698" lon="7.84562">
        <ele>424.6</ele>
        <time>2022-10-01T15:07:14Z</time>
      </trkpt>
      <trkpt lat="47.297" lon="7.84559">
        <ele>424.7</ele>
        <time>2022-10-01T15:07:15Z</time>
      </trkpt>
      <trkpt lat="47.29703" lon="7.84557">
        <ele>424.8</ele>
        <time>2022-10-01T15:07:16Z</time>
      </trkpt>
      <trkpt lat="47.29705" lon="7.84556">
        <ele>424.8</ele>
        <time>2022-10-01T15:07:17Z</time>
      </trkpt>
      <trkpt lat="47.29708" lon="7.84553">
        <ele>424.9</ele>
        <time>2022-10-01T15:07:18Z</time>
      </trkpt>
      <trkpt lat="47.29709" lon="7.84553">
        <ele>424.9</ele>
        <time>2022-10-01T15:07:19Z</time>
      </trkpt>
      <trkpt lat="47.29711" lon="7.84551">
        <ele>425</ele>
        <time>2022-10-01T15:07:20Z</time>
      </trkpt>
      <trkpt lat="47.29712" lon="7.8455">
        <ele>425</ele>
        <time>2022-10-01T15:07:21Z</time>
      </trkpt>
      <trkpt lat="47.29716" lon="7.84549">
        <ele>425.1</ele>
        <time>2022-10-01T15:07:22Z</time>
      </trkpt>
      <trkpt lat="47.29719" lon="7.84548">
        <ele>425.1</ele>
        <time>2022-10-01T15:07:23Z</time>
      </trkpt>
      <trkpt lat="47.29722" lon="7.84549">
        <ele>425.1</ele>
        <time>2022-10-01T15:07:24Z</time>
      </trkpt>
      <trkpt lat="47.29725" lon="7.84547">
        <ele>425.2</ele>
        <time>2022-10-01T15:07:25Z</time>
      </trkpt>
      <trkpt lat="47.29727" lon="7.84547">
        <ele>425.2</ele>
        <time>2022-10-01T15:07:26Z</time>
      </trkpt>
      <trkpt lat="47.29729" lon="7.84547">
        <ele>425.2</ele>
        <time>2022-10-01T15:07:27Z</time>
      </trkpt>
      <trkpt lat="47.29733" lon="7.84547">
        <ele>425.2</ele>
        <time>2022-10-01T15:07:28Z</time>
      </trkpt>
      <trkpt lat="47.29736" lon="7.84547">
        <ele>425.2</ele>
        <time>2022-10-01T15:07:29Z</time>
      </trkpt>
      <trkpt lat="47.2974" lon="7.84547">
        <ele>425.1</ele>
        <time>2022-10-01T15:07:30Z</time>
      </trkpt>
      <trkpt lat="47.29744" lon="7.84546">
        <ele>425</ele>
        <time>2022-10-01T15:07:31Z</time>
      </trkpt>
      <trkpt lat="47.29747" lon="7.84546">
        <ele>424.9</ele>
        <time>2022-10-01T15:07:32Z</time>
      </trkpt>
      <trkpt lat="47.29752" lon="7.84547">
        <ele>424.6</ele>
        <time>2022-10-01T15:07:33Z</time>
      </trkpt>
      <trkpt lat="47.29756" lon="7.84547">
        <ele>424.4</ele>
        <time>2022-10-01T15:07:34Z</time>
      </trkpt>
      <trkpt lat="47.29759" lon="7.84548">
        <ele>424.1</ele>
        <time>2022-10-01T15:07:35Z</time>
      </trkpt>
      <trkpt lat="47.29762" lon="7.84548">
        <ele>423.9</ele>
        <time>2022-10-01T15:07:36Z</time>
      </trkpt>
      <trkpt lat="47.29765" lon="7.84548">
        <ele>423.7</ele>
        <time>2022-10-01T15:07:37Z</time>
      </trkpt>
      <trkpt lat="47.29768" lon="7.84548">
        <ele>423.4</ele>
        <time>2022-10-01T15:07:38Z</time>
      </trkpt>
      <trkpt lat="47.29771" lon="7.84549">
        <ele>423.2</ele>
        <time>2022-10-01T15:07:39Z</time>
      </trkpt>
      <trkpt lat="47.29774" lon="7.8455">
        <ele>422.8</ele>
        <time>2022-10-01T15:07:40Z</time>
      </trkpt>
      <trkpt lat="47.29776" lon="7.8455">
        <ele>422.7</ele>
        <time>2022-10-01T15:07:41Z</time>
      </trkpt>
      <trkpt lat="47.29779" lon="7.84552">
        <ele>422.4</ele>
        <time>2022-10-01T15:07:42Z</time>
      </trkpt>
      <trkpt lat="47.29783" lon="7.84552">
        <ele>422</ele>
        <time>2022-10-01T15:07:43Z</time>
      </trkpt>
      <trkpt lat="47.29785" lon="7.84553">
        <ele>421.9</ele>
        <time>2022-10-01T15:07:44Z</time>
      </trkpt>
      <trkpt lat="47.29788" lon="7.84553">
        <ele>421.5</ele>
        <time>2022-10-01T15:07:45Z</time>
      </trkpt>
      <trkpt lat="47.29791" lon="7.84553">
        <ele>421.2</ele>
        <time>2022-10-01T15:07:46Z</time>
      </trkpt>
      <trkpt lat="47.29795" lon="7.84553">
        <ele>420.9</ele>
        <time>2022-10-01T15:07:47Z</time>
      </trkpt>
      <trkpt lat="47.29798" lon="7.84554">
        <ele>420.5</ele>
        <time>2022-10-01T15:07:48Z</time>
      </trkpt>
      <trkpt lat="47.29802" lon="7.84553">
        <ele>420.1</ele>
        <time>2022-10-01T15:07:49Z</time>
      </trkpt>
      <trkpt lat="47.29805" lon="7.84554">
        <ele>419.9</ele>
        <time>2022-10-01T15:07:50Z</time>
      </trkpt>
      <trkpt lat="47.29809" lon="7.84553">
        <ele>419.5</ele>
        <time>2022-10-01T15:07:51Z</time>
      </trkpt>
      <trkpt lat="47.29813" lon="7.84553">
        <ele>419</ele>
        <time>2022-10-01T15:07:52Z</time>
      </trkpt>
      <trkpt lat="47.29816" lon="7.84552">
        <ele>418.7</ele>
        <time>2022-10-01T15:07:53Z</time>
      </trkpt>
      <trkpt lat="47.29822" lon="7.84553">
        <ele>418.1</ele>
        <time>2022-10-01T15:07:54Z</time>
      </trkpt>
      <trkpt lat="47.29826" lon="7.84553">
        <ele>417.7</ele>
        <time>2022-10-01T15:07:55Z</time>
      </trkpt>
      <trkpt lat="47.29831" lon="7.84553">
        <ele>417.3</ele>
        <time>2022-10-01T15:07:56Z</time>
      </trkpt>
      <trkpt lat="47.29835" lon="7.84553">
        <ele>416.9</ele>
        <time>2022-10-01T15:07:57Z</time>
      </trkpt>
      <trkpt lat="47.29839" lon="7.84554">
        <ele>416.7</ele>
        <time>2022-10-01T15:07:58Z</time>
      </trkpt>
      <trkpt lat="47.29842" lon="7.84553">
        <ele>416.5</ele>
        <time>2022-10-01T15:07:59Z</time>
      </trkpt>
      <trkpt lat="47.29846" lon="7.84552">
        <ele>416.3</ele>
        <time>2022-10-01T15:08:00Z</time>
      </trkpt>
      <trkpt lat="47.2985" lon="7.84551">
        <ele>416.1</ele>
        <time>2022-10-01T15:08:01Z</time>
      </trkpt>
      <trkpt lat="47.29856" lon="7.84551">
        <ele>415.9</ele>
        <time>2022-10-01T15:08:02Z</time>
      </trkpt>
      <trkpt lat="47.2986" lon="7.84551">
        <ele>415.8</ele>
        <time>2022-10-01T15:08:03Z</time>
      </trkpt>
      <trkpt lat="47.29864" lon="7.8455">
        <ele>415.7</ele>
        <time>2022-10-01T15:08:04Z</time>
      </trkpt>
      <trkpt lat="47.2987" lon="7.8455">
        <ele>415.6</ele>
        <time>2022-10-01T15:08:05Z</time>
      </trkpt>
      <trkpt lat="47.29875" lon="7.8455">
        <ele>415.6</ele>
        <time>2022-10-01T15:08:06Z</time>
      </trkpt>
      <trkpt lat="47.2988" lon="7.84551">
        <ele>415.5</ele>
        <time>2022-10-01T15:08:07Z</time>
      </trkpt>
      <trkpt lat="47.29885" lon="7.84549">
        <ele>415.5</ele>
        <time>2022-10-01T15:08:08Z</time>
      </trkpt>
      <trkpt lat="47.2989" lon="7.84549">
        <ele>415.5</ele>
        <time>2022-10-01T15:08:09Z</time>
      </trkpt>
      <trkpt lat="47.29897" lon="7.84549">
        <ele>415.4</ele>
        <time>2022-10-01T15:08:10Z</time>
      </trkpt>
      <trkpt lat="47.29903" lon="7.8455">
        <ele>415.4</ele>
        <time>2022-10-01T15:08:11Z</time>
      </trkpt>
      <trkpt lat="47.29909" lon="7.84549">
        <ele>415.4</ele>
        <time>2022-10-01T15:08:12Z</time>
      </trkpt>
      <trkpt lat="47.29914" lon="7.84549">
        <ele>415.4</ele>
        <time>2022-10-01T15:08:13Z</time>
      </trkpt>
      <trkpt lat="47.29919" lon="7.84549">
        <ele>415.4</ele>
        <time>2022-10-01T15:08:14Z</time>
      </trkpt>
      <trkpt lat="47.29925" lon="7.84549">
        <ele>415.4</ele>
        <time>2022-10-01T15:08:15Z</time>
      </trkpt>
      <trkpt lat="47.29931" lon="7.84549">
        <ele>415.5</ele>
        <time>2022-10-01T15:08:16Z</time>
      </trkpt>
      <trkpt lat="47.29937" lon="7.84547">
        <ele>415.5</ele>
        <time>2022-10-01T15:08:17Z</time>
      </trkpt>
      <trkpt lat="47.29942" lon="7.84546">
        <ele>415.6</ele>
        <time>2022-10-01T15:08:18Z</time>
      </trkpt>
      <trkpt lat="47.29947" lon="7.84547">
        <ele>415.6</ele>
        <time>2022-10-01T15:08:19Z</time>
      </trkpt>
      <trkpt lat="47.29953" lon="7.84546">
        <ele>415.7</ele>
        <time>2022-10-01T15:08:20Z</time>
      </trkpt>
      <trkpt lat="47.29958" lon="7.84546">
        <ele>415.8</ele>
        <time>2022-10-01T15:08:21Z</time>
      </trkpt>
      <trkpt lat="47.29963" lon="7.84547">
        <ele>415.9</ele>
        <time>2022-10-01T15:08:22Z</time>
      </trkpt>
      <trkpt lat="47.29968" lon="7.84547">
        <ele>415.9</ele>
        <time>2022-10-01T15:08:23Z</time>
      </trkpt>
      <trkpt lat="47.29973" lon="7.84547">
        <ele>416</ele>
        <time>2022-10-01T15:08:24Z</time>
      </trkpt>
      <trkpt lat="47.29977" lon="7.84546">
        <ele>416.1</ele>
        <time>2022-10-01T15:08:25Z</time>
      </trkpt>
      <trkpt lat="47.29982" lon="7.84546">
        <ele>416.1</ele>
        <time>2022-10-01T15:08:26Z</time>
      </trkpt>
      <trkpt lat="47.29985" lon="7.84545">
        <ele>416.2</ele>
        <time>2022-10-01T15:08:27Z</time>
      </trkpt>
      <trkpt lat="47.2999" lon="7.84544">
        <ele>416.2</ele>
        <time>2022-10-01T15:08:28Z</time>
      </trkpt>
      <trkpt lat="47.29994" lon="7.84543">
        <ele>416.2</ele>
        <time>2022-10-01T15:08:29Z</time>
      </trkpt>
      <trkpt lat="47.3" lon="7.84544">
        <ele>416.3</ele>
        <time>2022-10-01T15:08:30Z</time>
      </trkpt>
      <trkpt lat="47.30006" lon="7.84544">
        <ele>416.3</ele>
        <time>2022-10-01T15:08:31Z</time>
      </trkpt>
      <trkpt lat="47.3001" lon="7.84543">
        <ele>416.3</ele>
        <time>2022-10-01T15:08:32Z</time>
      </trkpt>
      <trkpt lat="47.30015" lon="7.84544">
        <ele>416.3</ele>
        <time>2022-10-01T15:08:33Z</time>
      </trkpt>
      <trkpt lat="47.3002" lon="7.84544">
        <ele>416.3</ele>
        <time>2022-10-01T15:08:34Z</time>
      </trkpt>
      <trkpt lat="47.30023" lon="7.84544">
        <ele>416.3</ele>
        <time>2022-10-01T15:08:35Z</time>
      </trkpt>
      <trkpt lat="47.30026" lon="7.84544">
        <ele>416.3</ele>
        <time>2022-10-01T15:08:36Z</time>
      </trkpt>
      <trkpt lat="47.30031" lon="7.84544">
        <ele>416.3</ele>
        <time>2022-10-01T15:08:37Z</time>
      </trkpt>
      <trkpt lat="47.30034" lon="7.84544">
        <ele>416.3</ele>
        <time>2022-10-01T15:08:38Z</time>
      </trkpt>
      <trkpt lat="47.3004" lon="7.84544">
        <ele>416.3</ele>
        <time>2022-10-01T15:08:39Z</time>
      </trkpt>
      <trkpt lat="47.30045" lon="7.84544">
        <ele>416.3</ele>
        <time>2022-10-01T15:08:40Z</time>
      </trkpt>
      <trkpt lat="47.30049" lon="7.84543">
        <ele>416.3</ele>
        <time>2022-10-01T15:08:41Z</time>
      </trkpt>
      <trkpt lat="47.30055" lon="7.84542">
        <ele>416.3</ele>
        <time>2022-10-01T15:08:42Z</time>
      </trkpt>
      <trkpt lat="47.3006" lon="7.84542">
        <ele>416.3</ele>
        <time>2022-10-01T15:08:43Z</time>
      </trkpt>
      <trkpt lat="47.30065" lon="7.84541">
        <ele>416.3</ele>
        <time>2022-10-01T15:08:44Z</time>
      </trkpt>
      <trkpt lat="47.3007" lon="7.8454">
        <ele>416.3</ele>
        <time>2022-10-01T15:08:45Z</time>
      </trkpt>
      <trkpt lat="47.30074" lon="7.84539">
        <ele>416.3</ele>
        <time>2022-10-01T15:08:46Z</time>
      </trkpt>
      <trkpt lat="47.30078" lon="7.84538">
        <ele>416.3</ele>
        <time>2022-10-01T15:08:47Z</time>
      </trkpt>
      <trkpt lat="47.30083" lon="7.84538">
        <ele>416.3</ele>
        <time>2022-10-01T15:08:48Z</time>
      </trkpt>
      <trkpt lat="47.30089" lon="7.84537">
        <ele>416.3</ele>
        <time>2022-10-01T15:08:49Z</time>
      </trkpt>
      <trkpt lat="47.30093" lon="7.84536">
        <ele>416.3</ele>
        <time>2022-10-01T15:08:50Z</time>
      </trkpt>
      <trkpt lat="47.30099" lon="7.84535">
        <ele>416.3</ele>
        <time>2022-10-01T15:08:51Z</time>
      </trkpt>
      <trkpt lat="47.30103" lon="7.84534">
        <ele>416.3</ele>
        <time>2022-10-01T15:08:52Z</time>
      </trkpt>
      <trkpt lat="47.30108" lon="7.84534">
        <ele>416.3</ele>
        <time>2022-10-01T15:08:53Z</time>
      </trkpt>
      <trkpt lat="47.30112" lon="7.84533">
        <ele>416.3</ele>
        <time>2022-10-01T15:08:54Z</time>
      </trkpt>
      <trkpt lat="47.30117" lon="7.84532">
        <ele>416.3</ele>
        <time>2022-10-01T15:08:55Z</time>
      </trkpt>
      <trkpt lat="47.30121" lon="7.84531">
        <ele>416.3</ele>
        <time>2022-10-01T15:08:56Z</time>
      </trkpt>
      <trkpt lat="47.30126" lon="7.8453">
        <ele>416.3</ele>
        <time>2022-10-01T15:08:57Z</time>
      </trkpt>
      <trkpt lat="47.30131" lon="7.8453">
        <ele>416.3</ele>
        <time>2022-10-01T15:08:58Z</time>
      </trkpt>
      <trkpt lat="47.30135" lon="7.84529">
        <ele>416.3</ele>
        <time>2022-10-01T15:08:59Z</time>
      </trkpt>
      <trkpt lat="47.3014" lon="7.84528">
        <ele>416.3</ele>
        <time>2022-10-01T15:09:00Z</time>
      </trkpt>
      <trkpt lat="47.30144" lon="7.84527">
        <ele>416.3</ele>
        <time>2022-10-01T15:09:01Z</time>
      </trkpt>
      <trkpt lat="47.30149" lon="7.84527">
        <ele>416.3</ele>
        <time>2022-10-01T15:09:02Z</time>
      </trkpt>
      <trkpt lat="47.30153" lon="7.84526">
        <ele>416.3</ele>
        <time>2022-10-01T15:09:03Z</time>
      </trkpt>
      <trkpt lat="47.30158" lon="7.84526">
        <ele>416.3</ele>
        <time>2022-10-01T15:09:04Z</time>
      </trkpt>
      <trkpt lat="47.30163" lon="7.84525">
        <ele>416.3</ele>
        <time>2022-10-01T15:09:05Z</time>
      </trkpt>
      <trkpt lat="47.30167" lon="7.84524">
        <ele>416.3</ele>
        <time>2022-10-01T15:09:06Z</time>
      </trkpt>
      <trkpt lat="47.30171" lon="7.84524">
        <ele>416.3</ele>
        <time>2022-10-01T15:09:07Z</time>
      </trkpt>
      <trkpt lat="47.30174" lon="7.84524">
        <ele>416.3</ele>
        <time>2022-10-01T15:09:08Z</time>
      </trkpt>
      <trkpt lat="47.30178" lon="7.84523">
        <ele>416.3</ele>
        <time>2022-10-01T15:09:09Z</time>
      </trkpt>
      <trkpt lat="47.30182" lon="7.84523">
        <ele>416.2</ele>
        <time>2022-10-01T15:09:10Z</time>
      </trkpt>
      <trkpt lat="47.30186" lon="7.84524">
        <ele>416.2</ele>
        <time>2022-10-01T15:09:11Z</time>
      </trkpt>
      <trkpt lat="47.30191" lon="7.84523">
        <ele>416.2</ele>
        <time>2022-10-01T15:09:12Z</time>
      </trkpt>
      <trkpt lat="47.30196" lon="7.84522">
        <ele>416.2</ele>
        <time>2022-10-01T15:09:13Z</time>
      </trkpt>
      <trkpt lat="47.302" lon="7.84521">
        <ele>416.2</ele>
        <time>2022-10-01T15:09:14Z</time>
      </trkpt>
      <trkpt lat="47.30205" lon="7.84521">
        <ele>416.1</ele>
        <time>2022-10-01T15:09:15Z</time>
      </trkpt>
      <trkpt lat="47.30209" lon="7.84521">
        <ele>416.1</ele>
        <time>2022-10-01T15:09:16Z</time>
      </trkpt>
      <trkpt lat="47.30214" lon="7.84521">
        <ele>416.1</ele>
        <time>2022-10-01T15:09:17Z</time>
      </trkpt>
      <trkpt lat="47.30219" lon="7.84521">
        <ele>416.1</ele>
        <time>2022-10-01T15:09:18Z</time>
      </trkpt>
      <trkpt lat="47.30224" lon="7.84519">
        <ele>416</ele>
        <time>2022-10-01T15:09:19Z</time>
      </trkpt>
      <trkpt lat="47.30228" lon="7.8452">
        <ele>416</ele>
        <time>2022-10-01T15:09:20Z</time>
      </trkpt>
      <trkpt lat="47.30233" lon="7.84519">
        <ele>416</ele>
        <time>2022-10-01T15:09:21Z</time>
      </trkpt>
      <trkpt lat="47.30237" lon="7.84518">
        <ele>416</ele>
        <time>2022-10-01T15:09:22Z</time>
      </trkpt>
      <trkpt lat="47.30242" lon="7.84518">
        <ele>416</ele>
        <time>2022-10-01T15:09:23Z</time>
      </trkpt>
      <trkpt lat="47.30247" lon="7.84517">
        <ele>415.9</ele>
        <time>2022-10-01T15:09:24Z</time>
      </trkpt>
      <trkpt lat="47.30251" lon="7.84517">
        <ele>415.9</ele>
        <time>2022-10-01T15:09:25Z</time>
      </trkpt>
      <trkpt lat="47.30256" lon="7.84516">
        <ele>415.9</ele>
        <time>2022-10-01T15:09:26Z</time>
      </trkpt>
      <trkpt lat="47.30261" lon="7.84516">
        <ele>415.9</ele>
        <time>2022-10-01T15:09:27Z</time>
      </trkpt>
      <trkpt lat="47.30265" lon="7.84516">
        <ele>415.9</ele>
        <time>2022-10-01T15:09:28Z</time>
      </trkpt>
      <trkpt lat="47.3027" lon="7.84515">
        <ele>415.9</ele>
        <time>2022-10-01T15:09:29Z</time>
      </trkpt>
      <trkpt lat="47.30275" lon="7.84514">
        <ele>415.9</ele>
        <time>2022-10-01T15:09:30Z</time>
      </trkpt>
      <trkpt lat="47.30279" lon="7.84514">
        <ele>415.9</ele>
        <time>2022-10-01T15:09:31Z</time>
      </trkpt>
      <trkpt lat="47.30284" lon="7.84514">
        <ele>415.9</ele>
        <time>2022-10-01T15:09:32Z</time>
      </trkpt>
      <trkpt lat="47.30289" lon="7.84513">
        <ele>415.9</ele>
        <time>2022-10-01T15:09:33Z</time>
      </trkpt>
      <trkpt lat="47.30293" lon="7.84511">
        <ele>415.9</ele>
        <time>2022-10-01T15:09:34Z</time>
      </trkpt>
      <trkpt lat="47.30297" lon="7.84511">
        <ele>416</ele>
        <time>2022-10-01T15:09:35Z</time>
      </trkpt>
      <trkpt lat="47.30301" lon="7.84511">
        <ele>416</ele>
        <time>2022-10-01T15:09:36Z</time>
      </trkpt>
      <trkpt lat="47.30305" lon="7.84511">
        <ele>416.1</ele>
        <time>2022-10-01T15:09:37Z</time>
      </trkpt>
      <trkpt lat="47.30309" lon="7.8451">
        <ele>416.2</ele>
        <time>2022-10-01T15:09:38Z</time>
      </trkpt>
      <trkpt lat="47.30313" lon="7.84511">
        <ele>416.3</ele>
        <time>2022-10-01T15:09:39Z</time>
      </trkpt>
      <trkpt lat="47.30317" lon="7.8451">
        <ele>416.4</ele>
        <time>2022-10-01T15:09:40Z</time>
      </trkpt>
      <trkpt lat="47.3032" lon="7.8451">
        <ele>416.5</ele>
        <time>2022-10-01T15:09:41Z</time>
      </trkpt>
      <trkpt lat="47.30324" lon="7.8451">
        <ele>416.7</ele>
        <time>2022-10-01T15:09:42Z</time>
      </trkpt>
      <trkpt lat="47.30326" lon="7.8451">
        <ele>416.8</ele>
        <time>2022-10-01T15:09:43Z</time>
      </trkpt>
      <trkpt lat="47.3033" lon="7.84509">
        <ele>416.9</ele>
        <time>2022-10-01T15:09:44Z</time>
      </trkpt>
      <trkpt lat="47.30331" lon="7.84509">
        <ele>417</ele>
        <time>2022-10-01T15:09:45Z</time>
      </trkpt>
      <trkpt lat="47.30332" lon="7.84509">
        <ele>417</ele>
        <time>2022-10-01T15:09:46Z</time>
      </trkpt>
      <trkpt lat="47.30334" lon="7.84509">
        <ele>417.2</ele>
        <time>2022-10-01T15:09:47Z</time>
      </trkpt>
      <trkpt lat="47.30338" lon="7.84509">
        <ele>417.4</ele>
        <time>2022-10-01T15:09:48Z</time>
      </trkpt>
      <trkpt lat="47.30339" lon="7.84508">
        <ele>417.5</ele>
        <time>2022-10-01T15:09:49Z</time>
      </trkpt>
      <trkpt lat="47.30342" lon="7.84507">
        <ele>417.7</ele>
        <time>2022-10-01T15:09:50Z</time>
      </trkpt>
      <trkpt lat="47.30343" lon="7.84507">
        <ele>417.8</ele>
        <time>2022-10-01T15:09:51Z</time>
      </trkpt>
      <trkpt lat="47.30347" lon="7.84507">
        <ele>418.1</ele>
        <time>2022-10-01T15:09:52Z</time>
      </trkpt>
      <trkpt lat="47.30349" lon="7.84507">
        <ele>418.2</ele>
        <time>2022-10-01T15:09:53Z</time>
      </trkpt>
      <trkpt lat="47.3035" lon="7.84505">
        <ele>418.3</ele>
        <time>2022-10-01T15:09:54Z</time>
      </trkpt>
      <trkpt lat="47.30351" lon="7.84505">
        <ele>418.4</ele>
        <time>2022-10-01T15:09:55Z</time>
      </trkpt>
      <trkpt lat="47.30353" lon="7.84504">
        <ele>418.6</ele>
        <time>2022-10-01T15:09:56Z</time>
      </trkpt>
      <trkpt lat="47.30354" lon="7.84503">
        <ele>418.7</ele>
        <time>2022-10-01T15:09:57Z</time>
      </trkpt>
      <trkpt lat="47.30356" lon="7.84503">
        <ele>418.9</ele>
        <time>2022-10-01T15:09:58Z</time>
      </trkpt>
      <trkpt lat="47.30357" lon="7.84503">
        <ele>419</ele>
        <time>2022-10-01T15:09:59Z</time>
      </trkpt>
      <trkpt lat="47.30359" lon="7.84503">
        <ele>419.2</ele>
        <time>2022-10-01T15:10:00Z</time>
      </trkpt>
      <trkpt lat="47.30361" lon="7.84503">
        <ele>419.4</ele>
        <time>2022-10-01T15:10:01Z</time>
      </trkpt>
      <trkpt lat="47.30362" lon="7.84503">
        <ele>419.5</ele>
        <time>2022-10-01T15:10:02Z</time>
      </trkpt>
      <trkpt lat="47.30364" lon="7.84502">
        <ele>419.7</ele>
        <time>2022-10-01T15:10:03Z</time>
      </trkpt>
      <trkpt lat="47.30365" lon="7.84502">
        <ele>419.8</ele>
        <time>2022-10-01T15:10:04Z</time>
      </trkpt>
      <trkpt lat="47.30366" lon="7.84501">
        <ele>419.9</ele>
        <time>2022-10-01T15:10:05Z</time>
      </trkpt>
      <trkpt lat="47.30367" lon="7.84501">
        <ele>420.1</ele>
        <time>2022-10-01T15:10:06Z</time>
      </trkpt>
      <trkpt lat="47.3037" lon="7.84501">
        <ele>420.4</ele>
        <time>2022-10-01T15:10:07Z</time>
      </trkpt>
      <trkpt lat="47.30371" lon="7.84501">
        <ele>420.5</ele>
        <time>2022-10-01T15:10:08Z</time>
      </trkpt>
      <trkpt lat="47.30372" lon="7.845">
        <ele>420.6</ele>
        <time>2022-10-01T15:10:09Z</time>
      </trkpt>
      <trkpt lat="47.30374" lon="7.84499">
        <ele>420.8</ele>
        <time>2022-10-01T15:10:10Z</time>
      </trkpt>
      <trkpt lat="47.30375" lon="7.84499">
        <ele>420.9</ele>
        <time>2022-10-01T15:10:11Z</time>
      </trkpt>
      <trkpt lat="47.30377" lon="7.84498">
        <ele>421.1</ele>
        <time>2022-10-01T15:10:12Z</time>
      </trkpt>
      <trkpt lat="47.30378" lon="7.84498">
        <ele>421.2</ele>
        <time>2022-10-01T15:10:13Z</time>
      </trkpt>
      <trkpt lat="47.30379" lon="7.84499">
        <ele>421.4</ele>
        <time>2022-10-01T15:10:14Z</time>
      </trkpt>
      <trkpt lat="47.30381" lon="7.84498">
        <ele>421.6</ele>
        <time>2022-10-01T15:10:15Z</time>
      </trkpt>
      <trkpt lat="47.30382" lon="7.84497">
        <ele>421.7</ele>
        <time>2022-10-01T15:10:16Z</time>
      </trkpt>
      <trkpt lat="47.30384" lon="7.84497">
        <ele>421.9</ele>
        <time>2022-10-01T15:10:17Z</time>
      </trkpt>
      <trkpt lat="47.30385" lon="7.84497">
        <ele>422</ele>
        <time>2022-10-01T15:10:18Z</time>
      </trkpt>
      <trkpt lat="47.30387" lon="7.84497">
        <ele>422.2</ele>
        <time>2022-10-01T15:10:19Z</time>
      </trkpt>
      <trkpt lat="47.30391" lon="7.84498">
        <ele>422.4</ele>
        <time>2022-10-01T15:10:20Z</time>
      </trkpt>
      <trkpt lat="47.30393" lon="7.84496">
        <ele>422.6</ele>
        <time>2022-10-01T15:10:21Z</time>
      </trkpt>
      <trkpt lat="47.30395" lon="7.84495">
        <ele>422.8</ele>
        <time>2022-10-01T15:10:22Z</time>
      </trkpt>
      <trkpt lat="47.30399" lon="7.84495">
        <ele>422.8</ele>
        <time>2022-10-01T15:10:23Z</time>
      </trkpt>
      <trkpt lat="47.30403" lon="7.84493">
        <ele>422.8</ele>
        <time>2022-10-01T15:10:24Z</time>
      </trkpt>
      <trkpt lat="47.30408" lon="7.84492">
        <ele>422.8</ele>
        <time>2022-10-01T15:10:25Z</time>
      </trkpt>
      <trkpt lat="47.30411" lon="7.84492">
        <ele>422.8</ele>
        <time>2022-10-01T15:10:26Z</time>
      </trkpt>
      <trkpt lat="47.30412" lon="7.84492">
        <ele>422.8</ele>
        <time>2022-10-01T15:10:27Z</time>
      </trkpt>
      <trkpt lat="47.30415" lon="7.84492">
        <ele>422.8</ele>
        <time>2022-10-01T15:10:28Z</time>
      </trkpt>
      <trkpt lat="47.3042" lon="7.84492">
        <ele>422.9</ele>
        <time>2022-10-01T15:10:29Z</time>
      </trkpt>
      <trkpt lat="47.30422" lon="7.84491">
        <ele>422.9</ele>
        <time>2022-10-01T15:10:30Z</time>
      </trkpt>
      <trkpt lat="47.30426" lon="7.8449">
        <ele>422.9</ele>
        <time>2022-10-01T15:10:31Z</time>
      </trkpt>
      <trkpt lat="47.30427" lon="7.8449">
        <ele>422.9</ele>
        <time>2022-10-01T15:10:32Z</time>
      </trkpt>
      <trkpt lat="47.3043" lon="7.8449">
        <ele>423</ele>
        <time>2022-10-01T15:10:33Z</time>
      </trkpt>
      <trkpt lat="47.30431" lon="7.8449">
        <ele>423</ele>
        <time>2022-10-01T15:10:34Z</time>
      </trkpt>
      <trkpt lat="47.30435" lon="7.8449">
        <ele>423</ele>
        <time>2022-10-01T15:10:35Z</time>
      </trkpt>
      <trkpt lat="47.30436" lon="7.8449">
        <ele>423</ele>
        <time>2022-10-01T15:10:36Z</time>
      </trkpt>
      <trkpt lat="47.30439" lon="7.8449">
        <ele>423.1</ele>
        <time>2022-10-01T15:10:37Z</time>
      </trkpt>
      <trkpt lat="47.30441" lon="7.84491">
        <ele>423.1</ele>
        <time>2022-10-01T15:10:38Z</time>
      </trkpt>
      <trkpt lat="47.30444" lon="7.84491">
        <ele>423.1</ele>
        <time>2022-10-01T15:10:39Z</time>
      </trkpt>
      <trkpt lat="47.30445" lon="7.84491">
        <ele>423.1</ele>
        <time>2022-10-01T15:10:40Z</time>
      </trkpt>
      <trkpt lat="47.30449" lon="7.84491">
        <ele>423.2</ele>
        <time>2022-10-01T15:10:41Z</time>
      </trkpt>
      <trkpt lat="47.30452" lon="7.84491">
        <ele>423.2</ele>
        <time>2022-10-01T15:10:42Z</time>
      </trkpt>
      <trkpt lat="47.30455" lon="7.8449">
        <ele>423.3</ele>
        <time>2022-10-01T15:10:43Z</time>
      </trkpt>
      <trkpt lat="47.30458" lon="7.84489">
        <ele>423.3</ele>
        <time>2022-10-01T15:10:44Z</time>
      </trkpt>
      <trkpt lat="47.30462" lon="7.84491">
        <ele>423.4</ele>
        <time>2022-10-01T15:10:45Z</time>
      </trkpt>
      <trkpt lat="47.30463" lon="7.84491">
        <ele>423.4</ele>
        <time>2022-10-01T15:10:46Z</time>
      </trkpt>
      <trkpt lat="47.30467" lon="7.84492">
        <ele>423.4</ele>
        <time>2022-10-01T15:10:47Z</time>
      </trkpt>
      <trkpt lat="47.30469" lon="7.84492">
        <ele>423.4</ele>
        <time>2022-10-01T15:10:48Z</time>
      </trkpt>
      <trkpt lat="47.30472" lon="7.84494">
        <ele>423.4</ele>
        <time>2022-10-01T15:10:49Z</time>
      </trkpt>
      <trkpt lat="47.30474" lon="7.84494">
        <ele>423.4</ele>
        <time>2022-10-01T15:10:50Z</time>
      </trkpt>
      <trkpt lat="47.30477" lon="7.84494">
        <ele>423.5</ele>
        <time>2022-10-01T15:10:51Z</time>
      </trkpt>
      <trkpt lat="47.3048" lon="7.84495">
        <ele>423.5</ele>
        <time>2022-10-01T15:10:52Z</time>
      </trkpt>
      <trkpt lat="47.30484" lon="7.84494">
        <ele>423.5</ele>
        <time>2022-10-01T15:10:53Z</time>
      </trkpt>
      <trkpt lat="47.30488" lon="7.84494">
        <ele>423.5</ele>
        <time>2022-10-01T15:10:54Z</time>
      </trkpt>
      <trkpt lat="47.3049" lon="7.84494">
        <ele>423.5</ele>
        <time>2022-10-01T15:10:55Z</time>
      </trkpt>
      <trkpt lat="47.30493" lon="7.84494">
        <ele>423.6</ele>
        <time>2022-10-01T15:10:56Z</time>
      </trkpt>
      <trkpt lat="47.30497" lon="7.84494">
        <ele>423.6</ele>
        <time>2022-10-01T15:10:57Z</time>
      </trkpt>
      <trkpt lat="47.30498" lon="7.84495">
        <ele>423.6</ele>
        <time>2022-10-01T15:10:58Z</time>
      </trkpt>
      <trkpt lat="47.30502" lon="7.84495">
        <ele>423.7</ele>
        <time>2022-10-01T15:10:59Z</time>
      </trkpt>
      <trkpt lat="47.30507" lon="7.84495">
        <ele>423.7</ele>
        <time>2022-10-01T15:11:00Z</time>
      </trkpt>
      <trkpt lat="47.30508" lon="7.84495">
        <ele>423.8</ele>
        <time>2022-10-01T15:11:01Z</time>
      </trkpt>
      <trkpt lat="47.30512" lon="7.84495">
        <ele>423.8</ele>
        <time>2022-10-01T15:11:02Z</time>
      </trkpt>
      <trkpt lat="47.30515" lon="7.84495">
        <ele>423.9</ele>
        <time>2022-10-01T15:11:03Z</time>
      </trkpt>
      <trkpt lat="47.30518" lon="7.84495">
        <ele>423.9</ele>
        <time>2022-10-01T15:11:04Z</time>
      </trkpt>
      <trkpt lat="47.3052" lon="7.84495">
        <ele>424</ele>
        <time>2022-10-01T15:11:05Z</time>
      </trkpt>
      <trkpt lat="47.30523" lon="7.84496">
        <ele>424</ele>
        <time>2022-10-01T15:11:06Z</time>
      </trkpt>
      <trkpt lat="47.30524" lon="7.84496">
        <ele>424</ele>
        <time>2022-10-01T15:11:07Z</time>
      </trkpt>
      <trkpt lat="47.30528" lon="7.84499">
        <ele>424.1</ele>
        <time>2022-10-01T15:11:08Z</time>
      </trkpt>
      <trkpt lat="47.30533" lon="7.84499">
        <ele>424.1</ele>
        <time>2022-10-01T15:11:09Z</time>
      </trkpt>
      <trkpt lat="47.30536" lon="7.84499">
        <ele>424.1</ele>
        <time>2022-10-01T15:11:10Z</time>
      </trkpt>
      <trkpt lat="47.30539" lon="7.84501">
        <ele>424.1</ele>
        <time>2022-10-01T15:11:11Z</time>
      </trkpt>
      <trkpt lat="47.30543" lon="7.84502">
        <ele>424.1</ele>
        <time>2022-10-01T15:11:12Z</time>
      </trkpt>
      <trkpt lat="47.30547" lon="7.84503">
        <ele>424.1</ele>
        <time>2022-10-01T15:11:13Z</time>
      </trkpt>
      <trkpt lat="47.3055" lon="7.84505">
        <ele>424.1</ele>
        <time>2022-10-01T15:11:14Z</time>
      </trkpt>
      <trkpt lat="47.30553" lon="7.84505">
        <ele>424.1</ele>
        <time>2022-10-01T15:11:15Z</time>
      </trkpt>
      <trkpt lat="47.30558" lon="7.84506">
        <ele>424.1</ele>
        <time>2022-10-01T15:11:16Z</time>
      </trkpt>
      <trkpt lat="47.30562" lon="7.84506">
        <ele>424.1</ele>
        <time>2022-10-01T15:11:17Z</time>
      </trkpt>
      <trkpt lat="47.30563" lon="7.84507">
        <ele>424.1</ele>
        <time>2022-10-01T15:11:18Z</time>
      </trkpt>
      <trkpt lat="47.30566" lon="7.84506">
        <ele>424.1</ele>
        <time>2022-10-01T15:11:19Z</time>
      </trkpt>
      <trkpt lat="47.3057" lon="7.84506">
        <ele>424.1</ele>
        <time>2022-10-01T15:11:20Z</time>
      </trkpt>
      <trkpt lat="47.3057" lon="7.84506">
        <ele>424.1</ele>
        <time>2022-10-01T15:11:21Z</time>
      </trkpt>
      <trkpt lat="47.30572" lon="7.84505">
        <ele>424.1</ele>
        <time>2022-10-01T15:11:22Z</time>
      </trkpt>
      <trkpt lat="47.30573" lon="7.84505">
        <ele>424.1</ele>
        <time>2022-10-01T15:11:23Z</time>
      </trkpt>
      <trkpt lat="47.30573" lon="7.84504">
        <ele>424.1</ele>
        <time>2022-10-01T15:11:24Z</time>
      </trkpt>
      <trkpt lat="47.30574" lon="7.84504">
        <ele>424.1</ele>
        <time>2022-10-01T15:11:25Z</time>
      </trkpt>
      <trkpt lat="47.30575" lon="7.84504">
        <ele>424.1</ele>
        <time>2022-10-01T15:11:26Z</time>
      </trkpt>
      <trkpt lat="47.30576" lon="7.84504">
        <ele>424.1</ele>
        <time>2022-10-01T15:11:27Z</time>
      </trkpt>
      <trkpt lat="47.30577" lon="7.84504">
        <ele>424.1</ele>
        <time>2022-10-01T15:11:28Z</time>
      </trkpt>
      <trkpt lat="47.30582" lon="7.84507">
        <ele>424.1</ele>
        <time>2022-10-01T15:11:29Z</time>
      </trkpt>
      <trkpt lat="47.30587" lon="7.84509">
        <ele>424.1</ele>
        <time>2022-10-01T15:11:30Z</time>
      </trkpt>
      <trkpt lat="47.30592" lon="7.84511">
        <ele>424.1</ele>
        <time>2022-10-01T15:11:31Z</time>
      </trkpt>
      <trkpt lat="47.30596" lon="7.84513">
        <ele>424.1</ele>
        <time>2022-10-01T15:12:32Z</time>
      </trkpt>
      <trkpt lat="47.30601" lon="7.84515">
        <ele>424.1</ele>
        <time>2022-10-01T15:12:33Z</time>
      </trkpt>
      <trkpt lat="47.306" lon="7.8452">
        <ele>424</ele>
        <time>2022-10-01T15:12:34Z</time>
      </trkpt>
      <trkpt lat="47.306" lon="7.84521">
        <ele>424</ele>
        <time>2022-10-01T15:12:35Z</time>
      </trkpt>
      <trkpt lat="47.30599" lon="7.84525">
        <ele>424</ele>
        <time>2022-10-01T15:12:36Z</time>
      </trkpt>
      <trkpt lat="47.30599" lon="7.84527">
        <ele>424</ele>
        <time>2022-10-01T15:12:37Z</time>
      </trkpt>
      <trkpt lat="47.30599" lon="7.8453">
        <ele>424</ele>
        <time>2022-10-01T15:12:38Z</time>
      </trkpt>
      <trkpt lat="47.30598" lon="7.84532">
        <ele>424</ele>
        <time>2022-10-01T15:12:39Z</time>
      </trkpt>
      <trkpt lat="47.30598" lon="7.84537">
        <ele>424</ele>
        <time>2022-10-01T15:12:40Z</time>
      </trkpt>
      <trkpt lat="47.30597" lon="7.84539">
        <ele>424</ele>
        <time>2022-10-01T15:12:41Z</time>
      </trkpt>
      <trkpt lat="47.30595" lon="7.84543">
        <ele>423.9</ele>
        <time>2022-10-01T15:12:42Z</time>
      </trkpt>
      <trkpt lat="47.30595" lon="7.84545">
        <ele>423.9</ele>
        <time>2022-10-01T15:12:43Z</time>
      </trkpt>
      <trkpt lat="47.30595" lon="7.84549">
        <ele>423.9</ele>
        <time>2022-10-01T15:12:44Z</time>
      </trkpt>
      <trkpt lat="47.30595" lon="7.8455">
        <ele>423.9</ele>
        <time>2022-10-01T15:12:45Z</time>
      </trkpt>
      <trkpt lat="47.30594" lon="7.84555">
        <ele>423.9</ele>
        <time>2022-10-01T15:12:46Z</time>
      </trkpt>
      <trkpt lat="47.30593" lon="7.8456">
        <ele>423.9</ele>
        <time>2022-10-01T15:12:47Z</time>
      </trkpt>
      <trkpt lat="47.30593" lon="7.84562">
        <ele>423.9</ele>
        <time>2022-10-01T15:12:48Z</time>
      </trkpt>
      <trkpt lat="47.30592" lon="7.84568">
        <ele>423.9</ele>
        <time>2022-10-01T15:12:49Z</time>
      </trkpt>
      <trkpt lat="47.30592" lon="7.84574">
        <ele>423.9</ele>
        <time>2022-10-01T15:12:50Z</time>
      </trkpt>
      <trkpt lat="47.3059" lon="7.8458">
        <ele>423.8</ele>
        <time>2022-10-01T15:12:51Z</time>
      </trkpt>
      <trkpt lat="47.3059" lon="7.84586">
        <ele>423.8</ele>
        <time>2022-10-01T15:12:52Z</time>
      </trkpt>
      <trkpt lat="47.3059" lon="7.84591">
        <ele>423.8</ele>
        <time>2022-10-01T15:12:53Z</time>
      </trkpt>
      <trkpt lat="47.3059" lon="7.84599">
        <ele>423.7</ele>
        <time>2022-10-01T15:12:54Z</time>
      </trkpt>
      <trkpt lat="47.30589" lon="7.84605">
        <ele>423.7</ele>
        <time>2022-10-01T15:12:55Z</time>
      </trkpt>
      <trkpt lat="47.30589" lon="7.84612">
        <ele>423.7</ele>
        <time>2022-10-01T15:12:56Z</time>
      </trkpt>
      <trkpt lat="47.30589" lon="7.84619">
        <ele>423.7</ele>
        <time>2022-10-01T15:12:57Z</time>
      </trkpt>
      <trkpt lat="47.30588" lon="7.84626">
        <ele>423.6</ele>
        <time>2022-10-01T15:12:58Z</time>
      </trkpt>
      <trkpt lat="47.30588" lon="7.84631">
        <ele>423.6</ele>
        <time>2022-10-01T15:12:59Z</time>
      </trkpt>
      <trkpt lat="47.30587" lon="7.84636">
        <ele>423.6</ele>
        <time>2022-10-01T15:13:00Z</time>
      </trkpt>
      <trkpt lat="47.30588" lon="7.84643">
        <ele>423.6</ele>
        <time>2022-10-01T15:13:01Z</time>
      </trkpt>
      <trkpt lat="47.30588" lon="7.84649">
        <ele>423.6</ele>
        <time>2022-10-01T15:13:02Z</time>
      </trkpt>
      <trkpt lat="47.30589" lon="7.84655">
        <ele>423.6</ele>
        <time>2022-10-01T15:13:03Z</time>
      </trkpt>
      <trkpt lat="47.3059" lon="7.84663">
        <ele>423.5</ele>
        <time>2022-10-01T15:13:04Z</time>
      </trkpt>
      <trkpt lat="47.3059" lon="7.84669">
        <ele>423.5</ele>
        <time>2022-10-01T15:13:05Z</time>
      </trkpt>
      <trkpt lat="47.3059" lon="7.84675">
        <ele>423.4</ele>
        <time>2022-10-01T15:13:06Z</time>
      </trkpt>
      <trkpt lat="47.3059" lon="7.84682">
        <ele>423.3</ele>
        <time>2022-10-01T15:13:07Z</time>
      </trkpt>
      <trkpt lat="47.30589" lon="7.84688">
        <ele>423.2</ele>
        <time>2022-10-01T15:13:08Z</time>
      </trkpt>
      <trkpt lat="47.3059" lon="7.84701">
        <ele>423</ele>
        <time>2022-10-01T15:13:09Z</time>
      </trkpt>
      <trkpt lat="47.3059" lon="7.84708">
        <ele>422.9</ele>
        <time>2022-10-01T15:13:10Z</time>
      </trkpt>
      <trkpt lat="47.3059" lon="7.84716">
        <ele>422.7</ele>
        <time>2022-10-01T15:13:11Z</time>
      </trkpt>
      <trkpt lat="47.30592" lon="7.84723">
        <ele>422.5</ele>
        <time>2022-10-01T15:13:12Z</time>
      </trkpt>
      <trkpt lat="47.30593" lon="7.84728">
        <ele>422.4</ele>
        <time>2022-10-01T15:13:13Z</time>
      </trkpt>
      <trkpt lat="47.30594" lon="7.84734">
        <ele>422.3</ele>
        <time>2022-10-01T15:13:14Z</time>
      </trkpt>
      <trkpt lat="47.30595" lon="7.84737">
        <ele>422.2</ele>
        <time>2022-10-01T15:13:15Z</time>
      </trkpt>
      <trkpt lat="47.30595" lon="7.84741">
        <ele>422.1</ele>
        <time>2022-10-01T15:13:16Z</time>
      </trkpt>
      <trkpt lat="47.30597" lon="7.84746">
        <ele>422</ele>
        <time>2022-10-01T15:13:17Z</time>
      </trkpt>
      <trkpt lat="47.30597" lon="7.84751">
        <ele>421.9</ele>
        <time>2022-10-01T15:13:18Z</time>
      </trkpt>
      <trkpt lat="47.30598" lon="7.84757">
        <ele>421.7</ele>
        <time>2022-10-01T15:13:19Z</time>
      </trkpt>
      <trkpt lat="47.306" lon="7.84763">
        <ele>421.4</ele>
        <time>2022-10-01T15:13:20Z</time>
      </trkpt>
      <trkpt lat="47.30601" lon="7.84765">
        <ele>421.3</ele>
        <time>2022-10-01T15:13:21Z</time>
      </trkpt>
      <trkpt lat="47.30602" lon="7.8477">
        <ele>421.1</ele>
        <time>2022-10-01T15:13:22Z</time>
      </trkpt>
      <trkpt lat="47.30603" lon="7.84775">
        <ele>420.8</ele>
        <time>2022-10-01T15:13:23Z</time>
      </trkpt>
      <trkpt lat="47.30605" lon="7.84779">
        <ele>420.6</ele>
        <time>2022-10-01T15:13:24Z</time>
      </trkpt>
      <trkpt lat="47.30606" lon="7.84784">
        <ele>420.4</ele>
        <time>2022-10-01T15:13:25Z</time>
      </trkpt>
      <trkpt lat="47.30608" lon="7.84789">
        <ele>420.2</ele>
        <time>2022-10-01T15:13:26Z</time>
      </trkpt>
      <trkpt lat="47.30609" lon="7.84794">
        <ele>420</ele>
        <time>2022-10-01T15:13:27Z</time>
      </trkpt>
      <trkpt lat="47.3061" lon="7.848">
        <ele>419.8</ele>
        <time>2022-10-01T15:13:28Z</time>
      </trkpt>
      <trkpt lat="47.30612" lon="7.84806">
        <ele>419.6</ele>
        <time>2022-10-01T15:13:29Z</time>
      </trkpt>
      <trkpt lat="47.30613" lon="7.84812">
        <ele>419.4</ele>
        <time>2022-10-01T15:13:30Z</time>
      </trkpt>
      <trkpt lat="47.30615" lon="7.84819">
        <ele>419.2</ele>
        <time>2022-10-01T15:13:31Z</time>
      </trkpt>
      <trkpt lat="47.30617" lon="7.84825">
        <ele>419.1</ele>
        <time>2022-10-01T15:13:32Z</time>
      </trkpt>
      <trkpt lat="47.30618" lon="7.84833">
        <ele>419</ele>
        <time>2022-10-01T15:13:33Z</time>
      </trkpt>
      <trkpt lat="47.30619" lon="7.8484">
        <ele>418.8</ele>
        <time>2022-10-01T15:13:34Z</time>
      </trkpt>
      <trkpt lat="47.30621" lon="7.84846">
        <ele>418.7</ele>
        <time>2022-10-01T15:13:35Z</time>
      </trkpt>
      <trkpt lat="47.30622" lon="7.84854">
        <ele>418.6</ele>
        <time>2022-10-01T15:13:36Z</time>
      </trkpt>
      <trkpt lat="47.30624" lon="7.8486">
        <ele>418.5</ele>
        <time>2022-10-01T15:13:37Z</time>
      </trkpt>
      <trkpt lat="47.30625" lon="7.84867">
        <ele>418.4</ele>
        <time>2022-10-01T15:13:38Z</time>
      </trkpt>
      <trkpt lat="47.30628" lon="7.84872">
        <ele>418.3</ele>
        <time>2022-10-01T15:13:39Z</time>
      </trkpt>
      <trkpt lat="47.30628" lon="7.84878">
        <ele>418.2</ele>
        <time>2022-10-01T15:13:40Z</time>
      </trkpt>
      <trkpt lat="47.30629" lon="7.84881">
        <ele>418.2</ele>
        <time>2022-10-01T15:13:41Z</time>
      </trkpt>
      <trkpt lat="47.30632" lon="7.84887">
        <ele>418.1</ele>
        <time>2022-10-01T15:13:42Z</time>
      </trkpt>
      <trkpt lat="47.30635" lon="7.84894">
        <ele>418</ele>
        <time>2022-10-01T15:13:43Z</time>
      </trkpt>
      <trkpt lat="47.30639" lon="7.84902">
        <ele>417.9</ele>
        <time>2022-10-01T15:13:44Z</time>
      </trkpt>
      <trkpt lat="47.30642" lon="7.84908">
        <ele>417.9</ele>
        <time>2022-10-01T15:13:45Z</time>
      </trkpt>
      <trkpt lat="47.30644" lon="7.84913">
        <ele>417.8</ele>
        <time>2022-10-01T15:13:46Z</time>
      </trkpt>
      <trkpt lat="47.30646" lon="7.84919">
        <ele>417.8</ele>
        <time>2022-10-01T15:13:47Z</time>
      </trkpt>
      <trkpt lat="47.30647" lon="7.84925">
        <ele>417.7</ele>
        <time>2022-10-01T15:13:48Z</time>
      </trkpt>
      <trkpt lat="47.30649" lon="7.84931">
        <ele>417.6</ele>
        <time>2022-10-01T15:13:49Z</time>
      </trkpt>
      <trkpt lat="47.30651" lon="7.84935">
        <ele>417.6</ele>
        <time>2022-10-01T15:13:50Z</time>
      </trkpt>
      <trkpt lat="47.30653" lon="7.8494">
        <ele>417.5</ele>
        <time>2022-10-01T15:13:51Z</time>
      </trkpt>
      <trkpt lat="47.30655" lon="7.84946">
        <ele>417.5</ele>
        <time>2022-10-01T15:13:52Z</time>
      </trkpt>
      <trkpt lat="47.30657" lon="7.84952">
        <ele>417.4</ele>
        <time>2022-10-01T15:13:53Z</time>
      </trkpt>
      <trkpt lat="47.30657" lon="7.8496">
        <ele>417.3</ele>
        <time>2022-10-01T15:13:54Z</time>
      </trkpt>
      <trkpt lat="47.30657" lon="7.84966">
        <ele>417.3</ele>
        <time>2022-10-01T15:13:55Z</time>
      </trkpt>
      <trkpt lat="47.30658" lon="7.84973">
        <ele>417.1</ele>
        <time>2022-10-01T15:13:56Z</time>
      </trkpt>
      <trkpt lat="47.30658" lon="7.8498">
        <ele>417</ele>
        <time>2022-10-01T15:13:57Z</time>
      </trkpt>
      <trkpt lat="47.30658" lon="7.84986">
        <ele>417</ele>
        <time>2022-10-01T15:13:58Z</time>
      </trkpt>
      <trkpt lat="47.30659" lon="7.84992">
        <ele>416.9</ele>
        <time>2022-10-01T15:13:59Z</time>
      </trkpt>
      <trkpt lat="47.30659" lon="7.84999">
        <ele>416.8</ele>
        <time>2022-10-01T15:14:00Z</time>
      </trkpt>
      <trkpt lat="47.3066" lon="7.85004">
        <ele>416.7</ele>
        <time>2022-10-01T15:14:01Z</time>
      </trkpt>
      <trkpt lat="47.3066" lon="7.8501">
        <ele>416.7</ele>
        <time>2022-10-01T15:14:02Z</time>
      </trkpt>
      <trkpt lat="47.30659" lon="7.85015">
        <ele>416.6</ele>
        <time>2022-10-01T15:14:03Z</time>
      </trkpt>
      <trkpt lat="47.30658" lon="7.85017">
        <ele>416.6</ele>
        <time>2022-10-01T15:14:04Z</time>
      </trkpt>
      <trkpt lat="47.30658" lon="7.85022">
        <ele>416.5</ele>
        <time>2022-10-01T15:14:05Z</time>
      </trkpt>
      <trkpt lat="47.30658" lon="7.85024">
        <ele>416.5</ele>
        <time>2022-10-01T15:14:06Z</time>
      </trkpt>
      <trkpt lat="47.30657" lon="7.85029">
        <ele>416.5</ele>
        <time>2022-10-01T15:14:07Z</time>
      </trkpt>
      <trkpt lat="47.30657" lon="7.85031">
        <ele>416.4</ele>
        <time>2022-10-01T15:14:08Z</time>
      </trkpt>
      <trkpt lat="47.30657" lon="7.85035">
        <ele>416.4</ele>
        <time>2022-10-01T15:14:09Z</time>
      </trkpt>
      <trkpt lat="47.30657" lon="7.85041">
        <ele>416.3</ele>
        <time>2022-10-01T15:14:10Z</time>
      </trkpt>
      <trkpt lat="47.30656" lon="7.85043">
        <ele>416.3</ele>
        <time>2022-10-01T15:14:11Z</time>
      </trkpt>
      <trkpt lat="47.30657" lon="7.85048">
        <ele>416.3</ele>
        <time>2022-10-01T15:14:12Z</time>
      </trkpt>
      <trkpt lat="47.30657" lon="7.8505">
        <ele>416.2</ele>
        <time>2022-10-01T15:14:13Z</time>
      </trkpt>
      <trkpt lat="47.30656" lon="7.85054">
        <ele>416.2</ele>
        <time>2022-10-01T15:14:14Z</time>
      </trkpt>
      <trkpt lat="47.30657" lon="7.8506">
        <ele>416.1</ele>
        <time>2022-10-01T15:14:15Z</time>
      </trkpt>
      <trkpt lat="47.30657" lon="7.85065">
        <ele>416.1</ele>
        <time>2022-10-01T15:14:16Z</time>
      </trkpt>
      <trkpt lat="47.30656" lon="7.85071">
        <ele>416</ele>
        <time>2022-10-01T15:14:17Z</time>
      </trkpt>
      <trkpt lat="47.30655" lon="7.85074">
        <ele>416</ele>
        <time>2022-10-01T15:14:18Z</time>
      </trkpt>
      <trkpt lat="47.30654" lon="7.85078">
        <ele>416</ele>
        <time>2022-10-01T15:14:19Z</time>
      </trkpt>
      <trkpt lat="47.30653" lon="7.85083">
        <ele>416</ele>
        <time>2022-10-01T15:14:20Z</time>
      </trkpt>
      <trkpt lat="47.30653" lon="7.8509">
        <ele>416</ele>
        <time>2022-10-01T15:14:21Z</time>
      </trkpt>
      <trkpt lat="47.30653" lon="7.85098">
        <ele>415.9</ele>
        <time>2022-10-01T15:14:22Z</time>
      </trkpt>
      <trkpt lat="47.30653" lon="7.85104">
        <ele>415.9</ele>
        <time>2022-10-01T15:14:23Z</time>
      </trkpt>
      <trkpt lat="47.30653" lon="7.8511">
        <ele>415.9</ele>
        <time>2022-10-01T15:14:24Z</time>
      </trkpt>
      <trkpt lat="47.30653" lon="7.85116">
        <ele>415.9</ele>
        <time>2022-10-01T15:14:25Z</time>
      </trkpt>
      <trkpt lat="47.30653" lon="7.85123">
        <ele>415.9</ele>
        <time>2022-10-01T15:14:26Z</time>
      </trkpt>
      <trkpt lat="47.30652" lon="7.8513">
        <ele>415.8</ele>
        <time>2022-10-01T15:14:27Z</time>
      </trkpt>
      <trkpt lat="47.30652" lon="7.85137">
        <ele>415.8</ele>
        <time>2022-10-01T15:14:28Z</time>
      </trkpt>
      <trkpt lat="47.30652" lon="7.85142">
        <ele>415.7</ele>
        <time>2022-10-01T15:14:29Z</time>
      </trkpt>
      <trkpt lat="47.30651" lon="7.85148">
        <ele>415.7</ele>
        <time>2022-10-01T15:14:30Z</time>
      </trkpt>
      <trkpt lat="47.3065" lon="7.85153">
        <ele>415.6</ele>
        <time>2022-10-01T15:14:31Z</time>
      </trkpt>
      <trkpt lat="47.3065" lon="7.85159">
        <ele>415.5</ele>
        <time>2022-10-01T15:14:32Z</time>
      </trkpt>
      <trkpt lat="47.30651" lon="7.85166">
        <ele>415.4</ele>
        <time>2022-10-01T15:14:33Z</time>
      </trkpt>
      <trkpt lat="47.30652" lon="7.85172">
        <ele>415.3</ele>
        <time>2022-10-01T15:14:34Z</time>
      </trkpt>
      <trkpt lat="47.30653" lon="7.85178">
        <ele>415.1</ele>
        <time>2022-10-01T15:14:35Z</time>
      </trkpt>
      <trkpt lat="47.30653" lon="7.85186">
        <ele>415</ele>
        <time>2022-10-01T15:14:36Z</time>
      </trkpt>
      <trkpt lat="47.30653" lon="7.85194">
        <ele>414.9</ele>
        <time>2022-10-01T15:14:37Z</time>
      </trkpt>
      <trkpt lat="47.30654" lon="7.85203">
        <ele>414.8</ele>
        <time>2022-10-01T15:14:38Z</time>
      </trkpt>
      <trkpt lat="47.30655" lon="7.85211">
        <ele>414.6</ele>
        <time>2022-10-01T15:14:39Z</time>
      </trkpt>
      <trkpt lat="47.30656" lon="7.8522">
        <ele>414.5</ele>
        <time>2022-10-01T15:14:40Z</time>
      </trkpt>
      <trkpt lat="47.30656" lon="7.85231">
        <ele>414.4</ele>
        <time>2022-10-01T15:14:41Z</time>
      </trkpt>
      <trkpt lat="47.30658" lon="7.85239">
        <ele>414.3</ele>
        <time>2022-10-01T15:14:42Z</time>
      </trkpt>
      <trkpt lat="47.30659" lon="7.85248">
        <ele>414.2</ele>
        <time>2022-10-01T15:14:43Z</time>
      </trkpt>
      <trkpt lat="47.3066" lon="7.85257">
        <ele>414.2</ele>
        <time>2022-10-01T15:14:44Z</time>
      </trkpt>
      <trkpt lat="47.30662" lon="7.85265">
        <ele>414.1</ele>
        <time>2022-10-01T15:14:45Z</time>
      </trkpt>
      <trkpt lat="47.30663" lon="7.85274">
        <ele>414.1</ele>
        <time>2022-10-01T15:14:46Z</time>
      </trkpt>
      <trkpt lat="47.30666" lon="7.85282">
        <ele>414</ele>
        <time>2022-10-01T15:14:47Z</time>
      </trkpt>
      <trkpt lat="47.30668" lon="7.85291">
        <ele>414</ele>
        <time>2022-10-01T15:14:48Z</time>
      </trkpt>
      <trkpt lat="47.30668" lon="7.853">
        <ele>414</ele>
        <time>2022-10-01T15:14:49Z</time>
      </trkpt>
      <trkpt lat="47.30669" lon="7.85309">
        <ele>413.9</ele>
        <time>2022-10-01T15:14:50Z</time>
      </trkpt>
      <trkpt lat="47.30671" lon="7.85316">
        <ele>413.9</ele>
        <time>2022-10-01T15:14:51Z</time>
      </trkpt>
      <trkpt lat="47.30672" lon="7.85324">
        <ele>413.9</ele>
        <time>2022-10-01T15:14:52Z</time>
      </trkpt>
      <trkpt lat="47.30674" lon="7.85334">
        <ele>413.9</ele>
        <time>2022-10-01T15:14:53Z</time>
      </trkpt>
      <trkpt lat="47.30676" lon="7.85342">
        <ele>413.9</ele>
        <time>2022-10-01T15:14:54Z</time>
      </trkpt>
      <trkpt lat="47.30677" lon="7.85351">
        <ele>413.9</ele>
        <time>2022-10-01T15:14:55Z</time>
      </trkpt>
      <trkpt lat="47.30679" lon="7.85359">
        <ele>413.9</ele>
        <time>2022-10-01T15:14:56Z</time>
      </trkpt>
      <trkpt lat="47.30681" lon="7.85366">
        <ele>413.9</ele>
        <time>2022-10-01T15:14:57Z</time>
      </trkpt>
      <trkpt lat="47.30682" lon="7.85375">
        <ele>413.9</ele>
        <time>2022-10-01T15:14:58Z</time>
      </trkpt>
      <trkpt lat="47.30684" lon="7.85382">
        <ele>413.9</ele>
        <time>2022-10-01T15:14:59Z</time>
      </trkpt>
      <trkpt lat="47.30685" lon="7.85389">
        <ele>413.9</ele>
        <time>2022-10-01T15:15:00Z</time>
      </trkpt>
      <trkpt lat="47.30687" lon="7.85396">
        <ele>414</ele>
        <time>2022-10-01T15:15:01Z</time>
      </trkpt>
      <trkpt lat="47.30689" lon="7.85403">
        <ele>414</ele>
        <time>2022-10-01T15:15:02Z</time>
      </trkpt>
      <trkpt lat="47.30691" lon="7.85411">
        <ele>414</ele>
        <time>2022-10-01T15:15:03Z</time>
      </trkpt>
      <trkpt lat="47.30692" lon="7.85419">
        <ele>414</ele>
        <time>2022-10-01T15:15:04Z</time>
      </trkpt>
      <trkpt lat="47.30695" lon="7.85427">
        <ele>414</ele>
        <time>2022-10-01T15:15:05Z</time>
      </trkpt>
      <trkpt lat="47.30697" lon="7.85434">
        <ele>414</ele>
        <time>2022-10-01T15:15:06Z</time>
      </trkpt>
      <trkpt lat="47.30698" lon="7.85441">
        <ele>413.9</ele>
        <time>2022-10-01T15:15:07Z</time>
      </trkpt>
      <trkpt lat="47.30699" lon="7.85448">
        <ele>413.9</ele>
        <time>2022-10-01T15:15:08Z</time>
      </trkpt>
      <trkpt lat="47.30701" lon="7.85456">
        <ele>413.9</ele>
        <time>2022-10-01T15:15:09Z</time>
      </trkpt>
      <trkpt lat="47.30702" lon="7.85465">
        <ele>413.9</ele>
        <time>2022-10-01T15:15:10Z</time>
      </trkpt>
      <trkpt lat="47.30704" lon="7.85473">
        <ele>413.9</ele>
        <time>2022-10-01T15:15:11Z</time>
      </trkpt>
      <trkpt lat="47.30706" lon="7.85481">
        <ele>413.8</ele>
        <time>2022-10-01T15:15:12Z</time>
      </trkpt>
      <trkpt lat="47.30706" lon="7.85489">
        <ele>413.8</ele>
        <time>2022-10-01T15:15:13Z</time>
      </trkpt>
      <trkpt lat="47.30707" lon="7.85498">
        <ele>413.8</ele>
        <time>2022-10-01T15:15:14Z</time>
      </trkpt>
      <trkpt lat="47.30708" lon="7.85505">
        <ele>413.7</ele>
        <time>2022-10-01T15:15:15Z</time>
      </trkpt>
      <trkpt lat="47.30708" lon="7.85515">
        <ele>413.7</ele>
        <time>2022-10-01T15:15:16Z</time>
      </trkpt>
      <trkpt lat="47.30708" lon="7.85523">
        <ele>413.7</ele>
        <time>2022-10-01T15:15:17Z</time>
      </trkpt>
      <trkpt lat="47.30708" lon="7.85531">
        <ele>413.7</ele>
        <time>2022-10-01T15:15:18Z</time>
      </trkpt>
      <trkpt lat="47.30708" lon="7.85541">
        <ele>413.6</ele>
        <time>2022-10-01T15:15:19Z</time>
      </trkpt>
      <trkpt lat="47.30707" lon="7.8555">
        <ele>413.6</ele>
        <time>2022-10-01T15:15:20Z</time>
      </trkpt>
      <trkpt lat="47.30708" lon="7.85557">
        <ele>413.6</ele>
        <time>2022-10-01T15:15:21Z</time>
      </trkpt>
      <trkpt lat="47.30707" lon="7.85565">
        <ele>413.6</ele>
        <time>2022-10-01T15:15:22Z</time>
      </trkpt>
      <trkpt lat="47.30705" lon="7.85574">
        <ele>413.5</ele>
        <time>2022-10-01T15:15:23Z</time>
      </trkpt>
      <trkpt lat="47.30705" lon="7.85582">
        <ele>413.5</ele>
        <time>2022-10-01T15:15:24Z</time>
      </trkpt>
      <trkpt lat="47.30704" lon="7.85588">
        <ele>413.4</ele>
        <time>2022-10-01T15:15:25Z</time>
      </trkpt>
      <trkpt lat="47.30703" lon="7.85594">
        <ele>413.4</ele>
        <time>2022-10-01T15:15:26Z</time>
      </trkpt>
      <trkpt lat="47.30702" lon="7.85601">
        <ele>413.3</ele>
        <time>2022-10-01T15:15:27Z</time>
      </trkpt>
      <trkpt lat="47.307" lon="7.85607">
        <ele>413.2</ele>
        <time>2022-10-01T15:15:28Z</time>
      </trkpt>
      <trkpt lat="47.30697" lon="7.85612">
        <ele>413.2</ele>
        <time>2022-10-01T15:15:29Z</time>
      </trkpt>
      <trkpt lat="47.30694" lon="7.85618">
        <ele>413.1</ele>
        <time>2022-10-01T15:15:30Z</time>
      </trkpt>
      <trkpt lat="47.30691" lon="7.85622">
        <ele>413</ele>
        <time>2022-10-01T15:15:31Z</time>
      </trkpt>
      <trkpt lat="47.30687" lon="7.85626">
        <ele>413</ele>
        <time>2022-10-01T15:15:32Z</time>
      </trkpt>
      <trkpt lat="47.30683" lon="7.8563">
        <ele>413</ele>
        <time>2022-10-01T15:15:33Z</time>
      </trkpt>
      <trkpt lat="47.30679" lon="7.85632">
        <ele>412.9</ele>
        <time>2022-10-01T15:15:34Z</time>
      </trkpt>
      <trkpt lat="47.30674" lon="7.85633">
        <ele>412.9</ele>
        <time>2022-10-01T15:15:35Z</time>
      </trkpt>
      <trkpt lat="47.30672" lon="7.85637">
        <ele>412.9</ele>
        <time>2022-10-01T15:15:36Z</time>
      </trkpt>
      <trkpt lat="47.30669" lon="7.85639">
        <ele>412.8</ele>
        <time>2022-10-01T15:15:37Z</time>
      </trkpt>
      <trkpt lat="47.30667" lon="7.85641">
        <ele>412.9</ele>
        <time>2022-10-01T15:15:38Z</time>
      </trkpt>
      <trkpt lat="47.30667" lon="7.85647">
        <ele>412.9</ele>
        <time>2022-10-01T15:15:39Z</time>
      </trkpt>
      <trkpt lat="47.30667" lon="7.8565">
        <ele>412.9</ele>
        <time>2022-10-01T15:15:40Z</time>
      </trkpt>
      <trkpt lat="47.30667" lon="7.85654">
        <ele>412.9</ele>
        <time>2022-10-01T15:15:41Z</time>
      </trkpt>
      <trkpt lat="47.30665" lon="7.85659">
        <ele>412.9</ele>
        <time>2022-10-01T15:15:42Z</time>
      </trkpt>
      <trkpt lat="47.30664" lon="7.85665">
        <ele>412.9</ele>
        <time>2022-10-01T15:15:43Z</time>
      </trkpt>
      <trkpt lat="47.30663" lon="7.85671">
        <ele>412.9</ele>
        <time>2022-10-01T15:15:44Z</time>
      </trkpt>
      <trkpt lat="47.30664" lon="7.85678">
        <ele>413</ele>
        <time>2022-10-01T15:15:45Z</time>
      </trkpt>
      <trkpt lat="47.30665" lon="7.85684">
        <ele>413</ele>
        <time>2022-10-01T15:15:46Z</time>
      </trkpt>
      <trkpt lat="47.30666" lon="7.8569">
        <ele>413</ele>
        <time>2022-10-01T15:15:47Z</time>
      </trkpt>
      <trkpt lat="47.30667" lon="7.85695">
        <ele>413</ele>
        <time>2022-10-01T15:15:48Z</time>
      </trkpt>
      <trkpt lat="47.30669" lon="7.85701">
        <ele>413</ele>
        <time>2022-10-01T15:15:49Z</time>
      </trkpt>
      <trkpt lat="47.30671" lon="7.85706">
        <ele>413</ele>
        <time>2022-10-01T15:15:50Z</time>
      </trkpt>
      <trkpt lat="47.30673" lon="7.85712">
        <ele>412.9</ele>
        <time>2022-10-01T15:15:51Z</time>
      </trkpt>
      <trkpt lat="47.30675" lon="7.85718">
        <ele>412.9</ele>
        <time>2022-10-01T15:15:52Z</time>
      </trkpt>
      <trkpt lat="47.30677" lon="7.85725">
        <ele>412.8</ele>
        <time>2022-10-01T15:15:53Z</time>
      </trkpt>
      <trkpt lat="47.30679" lon="7.8573">
        <ele>412.8</ele>
        <time>2022-10-01T15:15:54Z</time>
      </trkpt>
      <trkpt lat="47.30681" lon="7.85736">
        <ele>412.8</ele>
        <time>2022-10-01T15:15:55Z</time>
      </trkpt>
      <trkpt lat="47.30683" lon="7.85744">
        <ele>412.7</ele>
        <time>2022-10-01T15:15:56Z</time>
      </trkpt>
      <trkpt lat="47.30686" lon="7.8575">
        <ele>412.6</ele>
        <time>2022-10-01T15:15:57Z</time>
      </trkpt>
      <trkpt lat="47.30688" lon="7.85757">
        <ele>412.6</ele>
        <time>2022-10-01T15:15:58Z</time>
      </trkpt>
      <trkpt lat="47.3069" lon="7.85764">
        <ele>412.5</ele>
        <time>2022-10-01T15:15:59Z</time>
      </trkpt>
      <trkpt lat="47.30692" lon="7.85771">
        <ele>412.4</ele>
        <time>2022-10-01T15:16:00Z</time>
      </trkpt>
      <trkpt lat="47.30693" lon="7.85778">
        <ele>412.3</ele>
        <time>2022-10-01T15:16:01Z</time>
      </trkpt>
      <trkpt lat="47.30695" lon="7.85784">
        <ele>412.3</ele>
        <time>2022-10-01T15:16:02Z</time>
      </trkpt>
      <trkpt lat="47.30698" lon="7.85791">
        <ele>412.2</ele>
        <time>2022-10-01T15:16:03Z</time>
      </trkpt>
      <trkpt lat="47.30699" lon="7.85799">
        <ele>412.1</ele>
        <time>2022-10-01T15:16:04Z</time>
      </trkpt>
      <trkpt lat="47.30701" lon="7.85806">
        <ele>412.1</ele>
        <time>2022-10-01T15:16:05Z</time>
      </trkpt>
      <trkpt lat="47.30703" lon="7.85815">
        <ele>412</ele>
        <time>2022-10-01T15:16:06Z</time>
      </trkpt>
      <trkpt lat="47.30706" lon="7.85821">
        <ele>411.9</ele>
        <time>2022-10-01T15:16:07Z</time>
      </trkpt>
      <trkpt lat="47.30707" lon="7.85828">
        <ele>411.8</ele>
        <time>2022-10-01T15:16:08Z</time>
      </trkpt>
      <trkpt lat="47.30709" lon="7.85835">
        <ele>411.7</ele>
        <time>2022-10-01T15:16:09Z</time>
      </trkpt>
      <trkpt lat="47.30709" lon="7.85843">
        <ele>411.6</ele>
        <time>2022-10-01T15:16:10Z</time>
      </trkpt>
      <trkpt lat="47.3071" lon="7.85851">
        <ele>411.5</ele>
        <time>2022-10-01T15:16:11Z</time>
      </trkpt>
      <trkpt lat="47.3071" lon="7.85859">
        <ele>411.4</ele>
        <time>2022-10-01T15:16:12Z</time>
      </trkpt>
      <trkpt lat="47.30709" lon="7.85867">
        <ele>411.3</ele>
        <time>2022-10-01T15:16:13Z</time>
      </trkpt>
      <trkpt lat="47.30708" lon="7.85874">
        <ele>411.2</ele>
        <time>2022-10-01T15:16:14Z</time>
      </trkpt>
      <trkpt lat="47.30707" lon="7.85881">
        <ele>411.1</ele>
        <time>2022-10-01T15:16:15Z</time>
      </trkpt>
      <trkpt lat="47.30705" lon="7.85887">
        <ele>411</ele>
        <time>2022-10-01T15:16:16Z</time>
      </trkpt>
      <trkpt lat="47.30701" lon="7.85893">
        <ele>410.9</ele>
        <time>2022-10-01T15:16:17Z</time>
      </trkpt>
      <trkpt lat="47.30698" lon="7.859">
        <ele>410.7</ele>
        <time>2022-10-01T15:16:18Z</time>
      </trkpt>
      <trkpt lat="47.30694" lon="7.85907">
        <ele>410.6</ele>
        <time>2022-10-01T15:16:19Z</time>
      </trkpt>
      <trkpt lat="47.30691" lon="7.85914">
        <ele>410.4</ele>
        <time>2022-10-01T15:16:20Z</time>
      </trkpt>
      <trkpt lat="47.30687" lon="7.85921">
        <ele>410.3</ele>
        <time>2022-10-01T15:16:21Z</time>
      </trkpt>
      <trkpt lat="47.30684" lon="7.85928">
        <ele>410.1</ele>
        <time>2022-10-01T15:16:22Z</time>
      </trkpt>
      <trkpt lat="47.3068" lon="7.85935">
        <ele>410</ele>
        <time>2022-10-01T15:16:23Z</time>
      </trkpt>
      <trkpt lat="47.30676" lon="7.85942">
        <ele>409.8</ele>
        <time>2022-10-01T15:16:24Z</time>
      </trkpt>
      <trkpt lat="47.30674" lon="7.8595">
        <ele>409.7</ele>
        <time>2022-10-01T15:16:25Z</time>
      </trkpt>
      <trkpt lat="47.30671" lon="7.85956">
        <ele>409.5</ele>
        <time>2022-10-01T15:16:26Z</time>
      </trkpt>
      <trkpt lat="47.3067" lon="7.85963">
        <ele>409.4</ele>
        <time>2022-10-01T15:16:27Z</time>
      </trkpt>
      <trkpt lat="47.3067" lon="7.85971">
        <ele>409.2</ele>
        <time>2022-10-01T15:16:28Z</time>
      </trkpt>
      <trkpt lat="47.3067" lon="7.85977">
        <ele>409.1</ele>
        <time>2022-10-01T15:16:29Z</time>
      </trkpt>
      <trkpt lat="47.30671" lon="7.85984">
        <ele>409</ele>
        <time>2022-10-01T15:16:30Z</time>
      </trkpt>
      <trkpt lat="47.30675" lon="7.85988">
        <ele>408.8</ele>
        <time>2022-10-01T15:16:31Z</time>
      </trkpt>
      <trkpt lat="47.30677" lon="7.85991">
        <ele>408.7</ele>
        <time>2022-10-01T15:16:32Z</time>
      </trkpt>
      <trkpt lat="47.30679" lon="7.86001">
        <ele>408.4</ele>
        <time>2022-10-01T15:16:33Z</time>
      </trkpt>
      <trkpt lat="47.30682" lon="7.86008">
        <ele>408</ele>
        <time>2022-10-01T15:16:34Z</time>
      </trkpt>
      <trkpt lat="47.30685" lon="7.86015">
        <ele>407.6</ele>
        <time>2022-10-01T15:16:35Z</time>
      </trkpt>
      <trkpt lat="47.30689" lon="7.86021">
        <ele>407.2</ele>
        <time>2022-10-01T15:16:36Z</time>
      </trkpt>
      <trkpt lat="47.30692" lon="7.86028">
        <ele>406.7</ele>
        <time>2022-10-01T15:16:37Z</time>
      </trkpt>
      <trkpt lat="47.30696" lon="7.86036">
        <ele>406.1</ele>
        <time>2022-10-01T15:16:38Z</time>
      </trkpt>
      <trkpt lat="47.30701" lon="7.86044">
        <ele>405.5</ele>
        <time>2022-10-01T15:16:39Z</time>
      </trkpt>
      <trkpt lat="47.30705" lon="7.86052">
        <ele>404.9</ele>
        <time>2022-10-01T15:16:40Z</time>
      </trkpt>
      <trkpt lat="47.30709" lon="7.86061">
        <ele>404.4</ele>
        <time>2022-10-01T15:16:41Z</time>
      </trkpt>
      <trkpt lat="47.30712" lon="7.8607">
        <ele>403.9</ele>
        <time>2022-10-01T15:16:42Z</time>
      </trkpt>
      <trkpt lat="47.30714" lon="7.86078">
        <ele>403.6</ele>
        <time>2022-10-01T15:16:43Z</time>
      </trkpt>
      <trkpt lat="47.30717" lon="7.86088">
        <ele>403.3</ele>
        <time>2022-10-01T15:16:44Z</time>
      </trkpt>
      <trkpt lat="47.30718" lon="7.86096">
        <ele>403.1</ele>
        <time>2022-10-01T15:16:45Z</time>
      </trkpt>
      <trkpt lat="47.3072" lon="7.86104">
        <ele>403</ele>
        <time>2022-10-01T15:16:46Z</time>
      </trkpt>
      <trkpt lat="47.30722" lon="7.8611">
        <ele>402.9</ele>
        <time>2022-10-01T15:16:47Z</time>
      </trkpt>
      <trkpt lat="47.30724" lon="7.86115">
        <ele>402.9</ele>
        <time>2022-10-01T15:16:48Z</time>
      </trkpt>
      <trkpt lat="47.30725" lon="7.86122">
        <ele>402.9</ele>
        <time>2022-10-01T15:16:49Z</time>
      </trkpt>
      <trkpt lat="47.30727" lon="7.8613">
        <ele>402.9</ele>
        <time>2022-10-01T15:16:50Z</time>
      </trkpt>
      <trkpt lat="47.30728" lon="7.86137">
        <ele>402.8</ele>
        <time>2022-10-01T15:16:51Z</time>
      </trkpt>
      <trkpt lat="47.30731" lon="7.86145">
        <ele>402.8</ele>
        <time>2022-10-01T15:16:52Z</time>
      </trkpt>
      <trkpt lat="47.30733" lon="7.86152">
        <ele>402.8</ele>
        <time>2022-10-01T15:16:53Z</time>
      </trkpt>
      <trkpt lat="47.30736" lon="7.86157">
        <ele>402.8</ele>
        <time>2022-10-01T15:16:54Z</time>
      </trkpt>
      <trkpt lat="47.30738" lon="7.86164">
        <ele>402.7</ele>
        <time>2022-10-01T15:16:55Z</time>
      </trkpt>
      <trkpt lat="47.3074" lon="7.8617">
        <ele>402.7</ele>
        <time>2022-10-01T15:16:56Z</time>
      </trkpt>
      <trkpt lat="47.30743" lon="7.86176">
        <ele>402.7</ele>
        <time>2022-10-01T15:16:57Z</time>
      </trkpt>
      <trkpt lat="47.30745" lon="7.86183">
        <ele>402.6</ele>
        <time>2022-10-01T15:16:58Z</time>
      </trkpt>
      <trkpt lat="47.30748" lon="7.86189">
        <ele>402.6</ele>
        <time>2022-10-01T15:16:59Z</time>
      </trkpt>
      <trkpt lat="47.3075" lon="7.86195">
        <ele>402.6</ele>
        <time>2022-10-01T15:17:00Z</time>
      </trkpt>
      <trkpt lat="47.30753" lon="7.86202">
        <ele>402.6</ele>
        <time>2022-10-01T15:17:01Z</time>
      </trkpt>
      <trkpt lat="47.30756" lon="7.86208">
        <ele>402.6</ele>
        <time>2022-10-01T15:17:02Z</time>
      </trkpt>
      <trkpt lat="47.3076" lon="7.86214">
        <ele>402.6</ele>
        <time>2022-10-01T15:17:03Z</time>
      </trkpt>
      <trkpt lat="47.30763" lon="7.8622">
        <ele>402.6</ele>
        <time>2022-10-01T15:17:04Z</time>
      </trkpt>
      <trkpt lat="47.30767" lon="7.86227">
        <ele>402.6</ele>
        <time>2022-10-01T15:17:05Z</time>
      </trkpt>
      <trkpt lat="47.30769" lon="7.86234">
        <ele>402.6</ele>
        <time>2022-10-01T15:17:06Z</time>
      </trkpt>
      <trkpt lat="47.30771" lon="7.86239">
        <ele>402.6</ele>
        <time>2022-10-01T15:17:07Z</time>
      </trkpt>
      <trkpt lat="47.30774" lon="7.86244">
        <ele>402.6</ele>
        <time>2022-10-01T15:17:08Z</time>
      </trkpt>
      <trkpt lat="47.30777" lon="7.86249">
        <ele>402.6</ele>
        <time>2022-10-01T15:17:09Z</time>
      </trkpt>
      <trkpt lat="47.3078" lon="7.86255">
        <ele>402.6</ele>
        <time>2022-10-01T15:17:10Z</time>
      </trkpt>
      <trkpt lat="47.30783" lon="7.8626">
        <ele>402.6</ele>
        <time>2022-10-01T15:17:11Z</time>
      </trkpt>
      <trkpt lat="47.30786" lon="7.86267">
        <ele>402.6</ele>
        <time>2022-10-01T15:17:12Z</time>
      </trkpt>
      <trkpt lat="47.30788" lon="7.86272">
        <ele>402.6</ele>
        <time>2022-10-01T15:17:13Z</time>
      </trkpt>
      <trkpt lat="47.30791" lon="7.86278">
        <ele>402.6</ele>
        <time>2022-10-01T15:17:14Z</time>
      </trkpt>
      <trkpt lat="47.30793" lon="7.86284">
        <ele>402.6</ele>
        <time>2022-10-01T15:17:15Z</time>
      </trkpt>
      <trkpt lat="47.30795" lon="7.86288">
        <ele>402.6</ele>
        <time>2022-10-01T15:17:16Z</time>
      </trkpt>
      <trkpt lat="47.30798" lon="7.86295">
        <ele>402.6</ele>
        <time>2022-10-01T15:17:17Z</time>
      </trkpt>
      <trkpt lat="47.308" lon="7.86302">
        <ele>402.6</ele>
        <time>2022-10-01T15:17:18Z</time>
      </trkpt>
      <trkpt lat="47.30803" lon="7.86309">
        <ele>402.6</ele>
        <time>2022-10-01T15:17:19Z</time>
      </trkpt>
      <trkpt lat="47.30806" lon="7.86314">
        <ele>402.6</ele>
        <time>2022-10-01T15:17:20Z</time>
      </trkpt>
      <trkpt lat="47.30807" lon="7.8632">
        <ele>402.6</ele>
        <time>2022-10-01T15:17:21Z</time>
      </trkpt>
      <trkpt lat="47.30808" lon="7.86325">
        <ele>402.6</ele>
        <time>2022-10-01T15:17:22Z</time>
      </trkpt>
      <trkpt lat="47.30811" lon="7.86333">
        <ele>402.6</ele>
        <time>2022-10-01T15:17:23Z</time>
      </trkpt>
      <trkpt lat="47.30815" lon="7.8634">
        <ele>402.6</ele>
        <time>2022-10-01T15:17:24Z</time>
      </trkpt>
      <trkpt lat="47.30817" lon="7.86346">
        <ele>402.7</ele>
        <time>2022-10-01T15:17:25Z</time>
      </trkpt>
      <trkpt lat="47.30818" lon="7.86352">
        <ele>402.7</ele>
        <time>2022-10-01T15:17:26Z</time>
      </trkpt>
      <trkpt lat="47.30821" lon="7.86357">
        <ele>402.7</ele>
        <time>2022-10-01T15:17:27Z</time>
      </trkpt>
      <trkpt lat="47.30824" lon="7.86365">
        <ele>402.7</ele>
        <time>2022-10-01T15:17:28Z</time>
      </trkpt>
      <trkpt lat="47.30826" lon="7.86372">
        <ele>402.7</ele>
        <time>2022-10-01T15:17:29Z</time>
      </trkpt>
      <trkpt lat="47.30828" lon="7.86377">
        <ele>402.7</ele>
        <time>2022-10-01T15:17:30Z</time>
      </trkpt>
      <trkpt lat="47.30831" lon="7.86384">
        <ele>402.7</ele>
        <time>2022-10-01T15:17:31Z</time>
      </trkpt>
      <trkpt lat="47.30835" lon="7.86391">
        <ele>402.7</ele>
        <time>2022-10-01T15:17:32Z</time>
      </trkpt>
      <trkpt lat="47.30836" lon="7.86397">
        <ele>402.7</ele>
        <time>2022-10-01T15:17:33Z</time>
      </trkpt>
      <trkpt lat="47.30839" lon="7.86404">
        <ele>402.6</ele>
        <time>2022-10-01T15:17:34Z</time>
      </trkpt>
      <trkpt lat="47.30842" lon="7.86411">
        <ele>402.6</ele>
        <time>2022-10-01T15:17:35Z</time>
      </trkpt>
      <trkpt lat="47.30844" lon="7.86418">
        <ele>402.6</ele>
        <time>2022-10-01T15:17:36Z</time>
      </trkpt>
      <trkpt lat="47.30847" lon="7.86425">
        <ele>402.6</ele>
        <time>2022-10-01T15:17:37Z</time>
      </trkpt>
      <trkpt lat="47.30849" lon="7.8643">
        <ele>402.6</ele>
        <time>2022-10-01T15:17:38Z</time>
      </trkpt>
      <trkpt lat="47.30852" lon="7.86438">
        <ele>402.6</ele>
        <time>2022-10-01T15:17:39Z</time>
      </trkpt>
      <trkpt lat="47.30856" lon="7.86446">
        <ele>402.5</ele>
        <time>2022-10-01T15:17:40Z</time>
      </trkpt>
      <trkpt lat="47.30858" lon="7.86452">
        <ele>402.5</ele>
        <time>2022-10-01T15:17:41Z</time>
      </trkpt>
      <trkpt lat="47.30859" lon="7.8646">
        <ele>402.5</ele>
        <time>2022-10-01T15:17:42Z</time>
      </trkpt>
      <trkpt lat="47.30862" lon="7.86467">
        <ele>402.5</ele>
        <time>2022-10-01T15:17:43Z</time>
      </trkpt>
      <trkpt lat="47.30865" lon="7.86474">
        <ele>402.5</ele>
        <time>2022-10-01T15:17:44Z</time>
      </trkpt>
      <trkpt lat="47.30866" lon="7.86481">
        <ele>402.4</ele>
        <time>2022-10-01T15:17:45Z</time>
      </trkpt>
      <trkpt lat="47.30869" lon="7.86487">
        <ele>402.4</ele>
        <time>2022-10-01T15:17:46Z</time>
      </trkpt>
      <trkpt lat="47.30871" lon="7.86495">
        <ele>402.4</ele>
        <time>2022-10-01T15:17:47Z</time>
      </trkpt>
      <trkpt lat="47.30873" lon="7.86501">
        <ele>402.4</ele>
        <time>2022-10-01T15:17:48Z</time>
      </trkpt>
      <trkpt lat="47.30873" lon="7.86505">
        <ele>402.4</ele>
        <time>2022-10-01T15:17:49Z</time>
      </trkpt>
      <trkpt lat="47.30876" lon="7.86512">
        <ele>402.4</ele>
        <time>2022-10-01T15:17:50Z</time>
      </trkpt>
      <trkpt lat="47.30879" lon="7.8652">
        <ele>402.3</ele>
        <time>2022-10-01T15:17:51Z</time>
      </trkpt>
      <trkpt lat="47.3088" lon="7.86528">
        <ele>402.2</ele>
        <time>2022-10-01T15:17:52Z</time>
      </trkpt>
      <trkpt lat="47.30883" lon="7.86536">
        <ele>402.2</ele>
        <time>2022-10-01T15:17:53Z</time>
      </trkpt>
      <trkpt lat="47.30884" lon="7.86544">
        <ele>402.1</ele>
        <time>2022-10-01T15:17:54Z</time>
      </trkpt>
      <trkpt lat="47.30887" lon="7.86552">
        <ele>402</ele>
        <time>2022-10-01T15:17:55Z</time>
      </trkpt>
      <trkpt lat="47.30888" lon="7.86561">
        <ele>401.9</ele>
        <time>2022-10-01T15:17:56Z</time>
      </trkpt>
      <trkpt lat="47.3089" lon="7.86569">
        <ele>401.7</ele>
        <time>2022-10-01T15:17:57Z</time>
      </trkpt>
      <trkpt lat="47.30892" lon="7.86578">
        <ele>401.6</ele>
        <time>2022-10-01T15:17:58Z</time>
      </trkpt>
      <trkpt lat="47.30894" lon="7.86587">
        <ele>401.5</ele>
        <time>2022-10-01T15:17:59Z</time>
      </trkpt>
      <trkpt lat="47.30895" lon="7.86595">
        <ele>401.3</ele>
        <time>2022-10-01T15:18:00Z</time>
      </trkpt>
      <trkpt lat="47.30897" lon="7.86603">
        <ele>401.3</ele>
        <time>2022-10-01T15:18:01Z</time>
      </trkpt>
      <trkpt lat="47.30898" lon="7.86612">
        <ele>401.2</ele>
        <time>2022-10-01T15:18:02Z</time>
      </trkpt>
      <trkpt lat="47.30901" lon="7.86619">
        <ele>401.2</ele>
        <time>2022-10-01T15:18:03Z</time>
      </trkpt>
      <trkpt lat="47.30904" lon="7.86625">
        <ele>401.1</ele>
        <time>2022-10-01T15:18:04Z</time>
      </trkpt>
      <trkpt lat="47.30906" lon="7.86632">
        <ele>401.1</ele>
        <time>2022-10-01T15:18:05Z</time>
      </trkpt>
      <trkpt lat="47.30909" lon="7.86639">
        <ele>401.1</ele>
        <time>2022-10-01T15:18:06Z</time>
      </trkpt>
      <trkpt lat="47.3091" lon="7.86648">
        <ele>401</ele>
        <time>2022-10-01T15:18:07Z</time>
      </trkpt>
      <trkpt lat="47.30912" lon="7.86655">
        <ele>401</ele>
        <time>2022-10-01T15:18:08Z</time>
      </trkpt>
      <trkpt lat="47.30914" lon="7.86661">
        <ele>401</ele>
        <time>2022-10-01T15:18:09Z</time>
      </trkpt>
      <trkpt lat="47.30916" lon="7.86669">
        <ele>401</ele>
        <time>2022-10-01T15:18:10Z</time>
      </trkpt>
      <trkpt lat="47.30919" lon="7.86676">
        <ele>401</ele>
        <time>2022-10-01T15:18:11Z</time>
      </trkpt>
      <trkpt lat="47.30921" lon="7.86683">
        <ele>401</ele>
        <time>2022-10-01T15:18:12Z</time>
      </trkpt>
      <trkpt lat="47.30923" lon="7.8669">
        <ele>401</ele>
        <time>2022-10-01T15:18:13Z</time>
      </trkpt>
      <trkpt lat="47.30927" lon="7.86697">
        <ele>401</ele>
        <time>2022-10-01T15:18:14Z</time>
      </trkpt>
      <trkpt lat="47.3093" lon="7.86704">
        <ele>401</ele>
        <time>2022-10-01T15:18:15Z</time>
      </trkpt>
      <trkpt lat="47.30933" lon="7.8671">
        <ele>401</ele>
        <time>2022-10-01T15:18:16Z</time>
      </trkpt>
      <trkpt lat="47.30936" lon="7.86717">
        <ele>401</ele>
        <time>2022-10-01T15:18:17Z</time>
      </trkpt>
      <trkpt lat="47.30939" lon="7.86724">
        <ele>401</ele>
        <time>2022-10-01T15:18:18Z</time>
      </trkpt>
      <trkpt lat="47.30942" lon="7.8673">
        <ele>401</ele>
        <time>2022-10-01T15:18:19Z</time>
      </trkpt>
      <trkpt lat="47.30946" lon="7.86737">
        <ele>401</ele>
        <time>2022-10-01T15:18:20Z</time>
      </trkpt>
      <trkpt lat="47.3095" lon="7.86742">
        <ele>401</ele>
        <time>2022-10-01T15:18:21Z</time>
      </trkpt>
      <trkpt lat="47.30953" lon="7.86748">
        <ele>401</ele>
        <time>2022-10-01T15:18:22Z</time>
      </trkpt>
      <trkpt lat="47.30956" lon="7.86754">
        <ele>401</ele>
        <time>2022-10-01T15:18:23Z</time>
      </trkpt>
      <trkpt lat="47.30958" lon="7.86759">
        <ele>401</ele>
        <time>2022-10-01T15:18:24Z</time>
      </trkpt>
      <trkpt lat="47.30961" lon="7.86766">
        <ele>401</ele>
        <time>2022-10-01T15:18:25Z</time>
      </trkpt>
      <trkpt lat="47.30964" lon="7.86771">
        <ele>401</ele>
        <time>2022-10-01T15:18:26Z</time>
      </trkpt>
      <trkpt lat="47.30967" lon="7.86777">
        <ele>401</ele>
        <time>2022-10-01T15:18:27Z</time>
      </trkpt>
      <trkpt lat="47.30971" lon="7.86782">
        <ele>401</ele>
        <time>2022-10-01T15:18:28Z</time>
      </trkpt>
      <trkpt lat="47.30974" lon="7.86788">
        <ele>400.9</ele>
        <time>2022-10-01T15:18:29Z</time>
      </trkpt>
      <trkpt lat="47.30978" lon="7.86793">
        <ele>400.9</ele>
        <time>2022-10-01T15:18:30Z</time>
      </trkpt>
      <trkpt lat="47.30981" lon="7.86799">
        <ele>400.9</ele>
        <time>2022-10-01T15:18:31Z</time>
      </trkpt>
      <trkpt lat="47.30984" lon="7.86805">
        <ele>400.9</ele>
        <time>2022-10-01T15:18:32Z</time>
      </trkpt>
      <trkpt lat="47.30988" lon="7.86811">
        <ele>400.9</ele>
        <time>2022-10-01T15:18:33Z</time>
      </trkpt>
      <trkpt lat="47.30992" lon="7.86816">
        <ele>400.9</ele>
        <time>2022-10-01T15:18:34Z</time>
      </trkpt>
      <trkpt lat="47.30994" lon="7.86823">
        <ele>400.9</ele>
        <time>2022-10-01T15:18:35Z</time>
      </trkpt>
      <trkpt lat="47.30997" lon="7.86829">
        <ele>400.9</ele>
        <time>2022-10-01T15:18:36Z</time>
      </trkpt>
      <trkpt lat="47.31" lon="7.86835">
        <ele>400.9</ele>
        <time>2022-10-01T15:18:37Z</time>
      </trkpt>
      <trkpt lat="47.31004" lon="7.8684">
        <ele>400.9</ele>
        <time>2022-10-01T15:18:38Z</time>
      </trkpt>
      <trkpt lat="47.31008" lon="7.86846">
        <ele>400.9</ele>
        <time>2022-10-01T15:18:39Z</time>
      </trkpt>
      <trkpt lat="47.31011" lon="7.86852">
        <ele>400.9</ele>
        <time>2022-10-01T15:18:40Z</time>
      </trkpt>
      <trkpt lat="47.31014" lon="7.86858">
        <ele>401</ele>
        <time>2022-10-01T15:18:41Z</time>
      </trkpt>
      <trkpt lat="47.31017" lon="7.86865">
        <ele>401</ele>
        <time>2022-10-01T15:18:42Z</time>
      </trkpt>
      <trkpt lat="47.3102" lon="7.8687">
        <ele>401</ele>
        <time>2022-10-01T15:18:43Z</time>
      </trkpt>
      <trkpt lat="47.31024" lon="7.86875">
        <ele>401</ele>
        <time>2022-10-01T15:18:44Z</time>
      </trkpt>
      <trkpt lat="47.31028" lon="7.86881">
        <ele>401</ele>
        <time>2022-10-01T15:18:45Z</time>
      </trkpt>
      <trkpt lat="47.31031" lon="7.86888">
        <ele>401</ele>
        <time>2022-10-01T15:18:46Z</time>
      </trkpt>
      <trkpt lat="47.31034" lon="7.86893">
        <ele>401</ele>
        <time>2022-10-01T15:18:47Z</time>
      </trkpt>
      <trkpt lat="47.31038" lon="7.869">
        <ele>401</ele>
        <time>2022-10-01T15:18:48Z</time>
      </trkpt>
      <trkpt lat="47.31041" lon="7.86906">
        <ele>401</ele>
        <time>2022-10-01T15:18:49Z</time>
      </trkpt>
      <trkpt lat="47.31044" lon="7.86913">
        <ele>401</ele>
        <time>2022-10-01T15:18:50Z</time>
      </trkpt>
      <trkpt lat="47.31046" lon="7.86919">
        <ele>401</ele>
        <time>2022-10-01T15:18:51Z</time>
      </trkpt>
      <trkpt lat="47.31049" lon="7.86925">
        <ele>401</ele>
        <time>2022-10-01T15:18:52Z</time>
      </trkpt>
      <trkpt lat="47.31052" lon="7.8693">
        <ele>401.1</ele>
        <time>2022-10-01T15:18:53Z</time>
      </trkpt>
      <trkpt lat="47.31054" lon="7.86935">
        <ele>401.1</ele>
        <time>2022-10-01T15:18:54Z</time>
      </trkpt>
      <trkpt lat="47.31057" lon="7.86938">
        <ele>401.1</ele>
        <time>2022-10-01T15:18:55Z</time>
      </trkpt>
      <trkpt lat="47.31061" lon="7.8694">
        <ele>401.1</ele>
        <time>2022-10-01T15:18:56Z</time>
      </trkpt>
      <trkpt lat="47.31065" lon="7.8694">
        <ele>401.1</ele>
        <time>2022-10-01T15:18:57Z</time>
      </trkpt>
      <trkpt lat="47.31069" lon="7.86941">
        <ele>401.1</ele>
        <time>2022-10-01T15:18:58Z</time>
      </trkpt>
      <trkpt lat="47.31073" lon="7.86942">
        <ele>401.1</ele>
        <time>2022-10-01T15:18:59Z</time>
      </trkpt>
      <trkpt lat="47.31077" lon="7.86942">
        <ele>401.1</ele>
        <time>2022-10-01T15:19:00Z</time>
      </trkpt>
      <trkpt lat="47.31081" lon="7.86942">
        <ele>401.1</ele>
        <time>2022-10-01T15:19:01Z</time>
      </trkpt>
      <trkpt lat="47.31085" lon="7.86942">
        <ele>401.2</ele>
        <time>2022-10-01T15:19:02Z</time>
      </trkpt>
      <trkpt lat="47.31089" lon="7.86943">
        <ele>401.2</ele>
        <time>2022-10-01T15:19:03Z</time>
      </trkpt>
      <trkpt lat="47.31092" lon="7.86943">
        <ele>401.2</ele>
        <time>2022-10-01T15:19:04Z</time>
      </trkpt>
      <trkpt lat="47.31096" lon="7.86944">
        <ele>401.2</ele>
        <time>2022-10-01T15:19:05Z</time>
      </trkpt>
      <trkpt lat="47.311" lon="7.86944">
        <ele>401.2</ele>
        <time>2022-10-01T15:19:06Z</time>
      </trkpt>
      <trkpt lat="47.31105" lon="7.86944">
        <ele>401.3</ele>
        <time>2022-10-01T15:19:07Z</time>
      </trkpt>
      <trkpt lat="47.31108" lon="7.86944">
        <ele>401.3</ele>
        <time>2022-10-01T15:19:08Z</time>
      </trkpt>
      <trkpt lat="47.31112" lon="7.86945">
        <ele>401.3</ele>
        <time>2022-10-01T15:19:09Z</time>
      </trkpt>
      <trkpt lat="47.31116" lon="7.86945">
        <ele>401.4</ele>
        <time>2022-10-01T15:19:10Z</time>
      </trkpt>
      <trkpt lat="47.31119" lon="7.86945">
        <ele>401.4</ele>
        <time>2022-10-01T15:19:11Z</time>
      </trkpt>
      <trkpt lat="47.31124" lon="7.86946">
        <ele>401.5</ele>
        <time>2022-10-01T15:19:12Z</time>
      </trkpt>
      <trkpt lat="47.31129" lon="7.86946">
        <ele>401.6</ele>
        <time>2022-10-01T15:19:13Z</time>
      </trkpt>
      <trkpt lat="47.31133" lon="7.86946">
        <ele>401.7</ele>
        <time>2022-10-01T15:19:14Z</time>
      </trkpt>
      <trkpt lat="47.31137" lon="7.86946">
        <ele>401.8</ele>
        <time>2022-10-01T15:19:15Z</time>
      </trkpt>
      <trkpt lat="47.31141" lon="7.86946">
        <ele>401.9</ele>
        <time>2022-10-01T15:19:16Z</time>
      </trkpt>
      <trkpt lat="47.31145" lon="7.86946">
        <ele>402</ele>
        <time>2022-10-01T15:19:17Z</time>
      </trkpt>
      <trkpt lat="47.3115" lon="7.86946">
        <ele>402.1</ele>
        <time>2022-10-01T15:19:18Z</time>
      </trkpt>
      <trkpt lat="47.31154" lon="7.86947">
        <ele>402.2</ele>
        <time>2022-10-01T15:19:19Z</time>
      </trkpt>
      <trkpt lat="47.31158" lon="7.86948">
        <ele>402.5</ele>
        <time>2022-10-01T15:19:20Z</time>
      </trkpt>
      <trkpt lat="47.31161" lon="7.86949">
        <ele>402.7</ele>
        <time>2022-10-01T15:19:21Z</time>
      </trkpt>
      <trkpt lat="47.31163" lon="7.86952">
        <ele>402.9</ele>
        <time>2022-10-01T15:19:22Z</time>
      </trkpt>
      <trkpt lat="47.31163" lon="7.86954">
        <ele>403</ele>
        <time>2022-10-01T15:19:23Z</time>
      </trkpt>
      <trkpt lat="47.31164" lon="7.86955">
        <ele>403</ele>
        <time>2022-10-01T15:19:24Z</time>
      </trkpt>
      <trkpt lat="47.31165" lon="7.86956">
        <ele>403.2</ele>
        <time>2022-10-01T15:19:25Z</time>
      </trkpt>
      <trkpt lat="47.31164" lon="7.86959">
        <ele>403.3</ele>
        <time>2022-10-01T15:19:26Z</time>
      </trkpt>
      <trkpt lat="47.31165" lon="7.86962">
        <ele>403.5</ele>
        <time>2022-10-01T15:19:27Z</time>
      </trkpt>
      <trkpt lat="47.31165" lon="7.86963">
        <ele>403.6</ele>
        <time>2022-10-01T15:19:28Z</time>
      </trkpt>
      <trkpt lat="47.31165" lon="7.86964">
        <ele>403.6</ele>
        <time>2022-10-01T15:19:29Z</time>
      </trkpt>
      <trkpt lat="47.31165" lon="7.86965">
        <ele>403.7</ele>
        <time>2022-10-01T15:19:30Z</time>
      </trkpt>
      <trkpt lat="47.31165" lon="7.86966">
        <ele>403.8</ele>
        <time>2022-10-01T15:19:31Z</time>
      </trkpt>
      <trkpt lat="47.31165" lon="7.86967">
        <ele>403.8</ele>
        <time>2022-10-01T15:19:32Z</time>
      </trkpt>
      <trkpt lat="47.31165" lon="7.86969">
        <ele>403.9</ele>
        <time>2022-10-01T15:19:33Z</time>
      </trkpt>
      <trkpt lat="47.31165" lon="7.8697">
        <ele>404</ele>
        <time>2022-10-01T15:19:34Z</time>
      </trkpt>
      <trkpt lat="47.31165" lon="7.86971">
        <ele>404</ele>
        <time>2022-10-01T15:19:35Z</time>
      </trkpt>
      <trkpt lat="47.31165" lon="7.86972">
        <ele>404.1</ele>
        <time>2022-10-01T15:19:36Z</time>
      </trkpt>
      <trkpt lat="47.31165" lon="7.86973">
        <ele>404.2</ele>
        <time>2022-10-01T15:19:37Z</time>
      </trkpt>
      <trkpt lat="47.31166" lon="7.86975">
        <ele>404.2</ele>
        <time>2022-10-01T15:19:38Z</time>
      </trkpt>
      <trkpt lat="47.31166" lon="7.86976">
        <ele>404.3</ele>
        <time>2022-10-01T15:20:03Z</time>
      </trkpt>
      <trkpt lat="47.31166" lon="7.86977">
        <ele>404.4</ele>
        <time>2022-10-01T15:20:04Z</time>
      </trkpt>
      <trkpt lat="47.31165" lon="7.86979">
        <ele>404.5</ele>
        <time>2022-10-01T15:20:05Z</time>
      </trkpt>
      <trkpt lat="47.31165" lon="7.86979">
        <ele>404.5</ele>
        <time>2022-10-01T15:20:06Z</time>
      </trkpt>
      <trkpt lat="47.31165" lon="7.86982">
        <ele>404.6</ele>
        <time>2022-10-01T15:20:07Z</time>
      </trkpt>
      <trkpt lat="47.31164" lon="7.86983">
        <ele>404.7</ele>
        <time>2022-10-01T15:20:08Z</time>
      </trkpt>
      <trkpt lat="47.31163" lon="7.86984">
        <ele>404.8</ele>
        <time>2022-10-01T15:20:09Z</time>
      </trkpt>
      <trkpt lat="47.31163" lon="7.86986">
        <ele>404.9</ele>
        <time>2022-10-01T15:20:10Z</time>
      </trkpt>
      <trkpt lat="47.31162" lon="7.86987">
        <ele>405</ele>
        <time>2022-10-01T15:20:11Z</time>
      </trkpt>
      <trkpt lat="47.31162" lon="7.8699">
        <ele>405.1</ele>
        <time>2022-10-01T15:20:12Z</time>
      </trkpt>
      <trkpt lat="47.31161" lon="7.86993">
        <ele>405.3</ele>
        <time>2022-10-01T15:20:13Z</time>
      </trkpt>
      <trkpt lat="47.31161" lon="7.86995">
        <ele>405.4</ele>
        <time>2022-10-01T15:20:14Z</time>
      </trkpt>
      <trkpt lat="47.31161" lon="7.86997">
        <ele>405.5</ele>
        <time>2022-10-01T15:20:15Z</time>
      </trkpt>
      <trkpt lat="47.3116" lon="7.86999">
        <ele>405.6</ele>
        <time>2022-10-01T15:20:16Z</time>
      </trkpt>
      <trkpt lat="47.3116" lon="7.87001">
        <ele>405.7</ele>
        <time>2022-10-01T15:20:17Z</time>
      </trkpt>
      <trkpt lat="47.3116" lon="7.87003">
        <ele>405.8</ele>
        <time>2022-10-01T15:20:18Z</time>
      </trkpt>
      <trkpt lat="47.3116" lon="7.87005">
        <ele>405.9</ele>
        <time>2022-10-01T15:20:19Z</time>
      </trkpt>
      <trkpt lat="47.3116" lon="7.87006">
        <ele>406</ele>
        <time>2022-10-01T15:20:20Z</time>
      </trkpt>
      <trkpt lat="47.3116" lon="7.87007">
        <ele>406</ele>
        <time>2022-10-01T15:20:21Z</time>
      </trkpt>
      <trkpt lat="47.3116" lon="7.87009">
        <ele>406.1</ele>
        <time>2022-10-01T15:20:22Z</time>
      </trkpt>
      <trkpt lat="47.3116" lon="7.87011">
        <ele>406.2</ele>
        <time>2022-10-01T15:20:23Z</time>
      </trkpt>
      <trkpt lat="47.3116" lon="7.87012">
        <ele>406.3</ele>
        <time>2022-10-01T15:20:24Z</time>
      </trkpt>
      <trkpt lat="47.3116" lon="7.87013">
        <ele>406.3</ele>
        <time>2022-10-01T15:20:25Z</time>
      </trkpt>
      <trkpt lat="47.31159" lon="7.87015">
        <ele>406.4</ele>
        <time>2022-10-01T15:20:26Z</time>
      </trkpt>
      <trkpt lat="47.3116" lon="7.87018">
        <ele>406.6</ele>
        <time>2022-10-01T15:20:27Z</time>
      </trkpt>
      <trkpt lat="47.31159" lon="7.87019">
        <ele>406.6</ele>
        <time>2022-10-01T15:20:28Z</time>
      </trkpt>
      <trkpt lat="47.31159" lon="7.8702">
        <ele>406.7</ele>
        <time>2022-10-01T15:20:29Z</time>
      </trkpt>
      <trkpt lat="47.31159" lon="7.87021">
        <ele>406.7</ele>
        <time>2022-10-01T15:20:30Z</time>
      </trkpt>
      <trkpt lat="47.31159" lon="7.87023">
        <ele>406.8</ele>
        <time>2022-10-01T15:20:31Z</time>
      </trkpt>
      <trkpt lat="47.31159" lon="7.87024">
        <ele>406.9</ele>
        <time>2022-10-01T15:20:32Z</time>
      </trkpt>
      <trkpt lat="47.31159" lon="7.87026">
        <ele>406.9</ele>
        <time>2022-10-01T15:20:33Z</time>
      </trkpt>
      <trkpt lat="47.31159" lon="7.87028">
        <ele>407</ele>
        <time>2022-10-01T15:20:34Z</time>
      </trkpt>
      <trkpt lat="47.31159" lon="7.87029">
        <ele>407</ele>
        <time>2022-10-01T15:20:35Z</time>
      </trkpt>
      <trkpt lat="47.31159" lon="7.87031">
        <ele>407.1</ele>
        <time>2022-10-01T15:20:36Z</time>
      </trkpt>
      <trkpt lat="47.3116" lon="7.87034">
        <ele>407.2</ele>
        <time>2022-10-01T15:20:37Z</time>
      </trkpt>
      <trkpt lat="47.3116" lon="7.87036">
        <ele>407.3</ele>
        <time>2022-10-01T15:20:38Z</time>
      </trkpt>
      <trkpt lat="47.3116" lon="7.87039">
        <ele>407.3</ele>
        <time>2022-10-01T15:20:39Z</time>
      </trkpt>
      <trkpt lat="47.31161" lon="7.87041">
        <ele>407.4</ele>
        <time>2022-10-01T15:20:40Z</time>
      </trkpt>
      <trkpt lat="47.31161" lon="7.87044">
        <ele>407.4</ele>
        <time>2022-10-01T15:20:41Z</time>
      </trkpt>
      <trkpt lat="47.31161" lon="7.87046">
        <ele>407.5</ele>
        <time>2022-10-01T15:20:42Z</time>
      </trkpt>
      <trkpt lat="47.31162" lon="7.87049">
        <ele>407.5</ele>
        <time>2022-10-01T15:20:43Z</time>
      </trkpt>
      <trkpt lat="47.31162" lon="7.87051">
        <ele>407.5</ele>
        <time>2022-10-01T15:20:44Z</time>
      </trkpt>
      <trkpt lat="47.31162" lon="7.87054">
        <ele>407.6</ele>
        <time>2022-10-01T15:20:45Z</time>
      </trkpt>
      <trkpt lat="47.31163" lon="7.87057">
        <ele>407.6</ele>
        <time>2022-10-01T15:21:24Z</time>
      </trkpt>
      <trkpt lat="47.31163" lon="7.87059">
        <ele>407.6</ele>
        <time>2022-10-01T15:21:25Z</time>
      </trkpt>
      <trkpt lat="47.31164" lon="7.87063">
        <ele>407.6</ele>
        <time>2022-10-01T15:21:26Z</time>
      </trkpt>
      <trkpt lat="47.31165" lon="7.87064">
        <ele>407.6</ele>
        <time>2022-10-01T15:21:27Z</time>
      </trkpt>
      <trkpt lat="47.31167" lon="7.87069">
        <ele>407.6</ele>
        <time>2022-10-01T15:21:28Z</time>
      </trkpt>
      <trkpt lat="47.31167" lon="7.87071">
        <ele>407.6</ele>
        <time>2022-10-01T15:21:29Z</time>
      </trkpt>
      <trkpt lat="47.31168" lon="7.87075">
        <ele>407.5</ele>
        <time>2022-10-01T15:21:30Z</time>
      </trkpt>
      <trkpt lat="47.31169" lon="7.87081">
        <ele>407.5</ele>
        <time>2022-10-01T15:21:31Z</time>
      </trkpt>
      <trkpt lat="47.31169" lon="7.87084">
        <ele>407.5</ele>
        <time>2022-10-01T15:21:32Z</time>
      </trkpt>
      <trkpt lat="47.31171" lon="7.87089">
        <ele>407.5</ele>
        <time>2022-10-01T15:21:33Z</time>
      </trkpt>
      <trkpt lat="47.31173" lon="7.87093">
        <ele>407.4</ele>
        <time>2022-10-01T15:21:34Z</time>
      </trkpt>
      <trkpt lat="47.31175" lon="7.87099">
        <ele>407.4</ele>
        <time>2022-10-01T15:21:35Z</time>
      </trkpt>
      <trkpt lat="47.31177" lon="7.87103">
        <ele>407.4</ele>
        <time>2022-10-01T15:21:36Z</time>
      </trkpt>
      <trkpt lat="47.31179" lon="7.87108">
        <ele>407.3</ele>
        <time>2022-10-01T15:21:37Z</time>
      </trkpt>
      <trkpt lat="47.31182" lon="7.87113">
        <ele>407.3</ele>
        <time>2022-10-01T15:21:38Z</time>
      </trkpt>
      <trkpt lat="47.31184" lon="7.87119">
        <ele>407.2</ele>
        <time>2022-10-01T15:21:39Z</time>
      </trkpt>
      <trkpt lat="47.31186" lon="7.87124">
        <ele>407.2</ele>
        <time>2022-10-01T15:21:40Z</time>
      </trkpt>
      <trkpt lat="47.31187" lon="7.87131">
        <ele>407.2</ele>
        <time>2022-10-01T15:21:41Z</time>
      </trkpt>
      <trkpt lat="47.3119" lon="7.87136">
        <ele>407.1</ele>
        <time>2022-10-01T15:21:42Z</time>
      </trkpt>
      <trkpt lat="47.31192" lon="7.87141">
        <ele>407.1</ele>
        <time>2022-10-01T15:21:43Z</time>
      </trkpt>
      <trkpt lat="47.31195" lon="7.87146">
        <ele>407.1</ele>
        <time>2022-10-01T15:21:44Z</time>
      </trkpt>
      <trkpt lat="47.31196" lon="7.87152">
        <ele>407.1</ele>
        <time>2022-10-01T15:21:45Z</time>
      </trkpt>
      <trkpt lat="47.31199" lon="7.87158">
        <ele>407.1</ele>
        <time>2022-10-01T15:21:46Z</time>
      </trkpt>
      <trkpt lat="47.31201" lon="7.87163">
        <ele>407.1</ele>
        <time>2022-10-01T15:21:47Z</time>
      </trkpt>
      <trkpt lat="47.31202" lon="7.87169">
        <ele>407.1</ele>
        <time>2022-10-01T15:21:48Z</time>
      </trkpt>
      <trkpt lat="47.31204" lon="7.87175">
        <ele>407.1</ele>
        <time>2022-10-01T15:21:49Z</time>
      </trkpt>
      <trkpt lat="47.31207" lon="7.8718">
        <ele>407.1</ele>
        <time>2022-10-01T15:21:50Z</time>
      </trkpt>
      <trkpt lat="47.31208" lon="7.87185">
        <ele>407.1</ele>
        <time>2022-10-01T15:21:51Z</time>
      </trkpt>
      <trkpt lat="47.3121" lon="7.87191">
        <ele>407.1</ele>
        <time>2022-10-01T15:21:52Z</time>
      </trkpt>
      <trkpt lat="47.31213" lon="7.87196">
        <ele>407.1</ele>
        <time>2022-10-01T15:21:53Z</time>
      </trkpt>
      <trkpt lat="47.31214" lon="7.87202">
        <ele>407.1</ele>
        <time>2022-10-01T15:21:54Z</time>
      </trkpt>
      <trkpt lat="47.31216" lon="7.87207">
        <ele>407.1</ele>
        <time>2022-10-01T15:21:55Z</time>
      </trkpt>
      <trkpt lat="47.31218" lon="7.87212">
        <ele>407.1</ele>
        <time>2022-10-01T15:21:56Z</time>
      </trkpt>
      <trkpt lat="47.3122" lon="7.87217">
        <ele>407.1</ele>
        <time>2022-10-01T15:21:57Z</time>
      </trkpt>
      <trkpt lat="47.31222" lon="7.87222">
        <ele>407.1</ele>
        <time>2022-10-01T15:21:58Z</time>
      </trkpt>
      <trkpt lat="47.31224" lon="7.87227">
        <ele>407.1</ele>
        <time>2022-10-01T15:21:59Z</time>
      </trkpt>
      <trkpt lat="47.31225" lon="7.87232">
        <ele>407</ele>
        <time>2022-10-01T15:22:00Z</time>
      </trkpt>
      <trkpt lat="47.31227" lon="7.87237">
        <ele>407</ele>
        <time>2022-10-01T15:22:01Z</time>
      </trkpt>
      <trkpt lat="47.31229" lon="7.87241">
        <ele>407</ele>
        <time>2022-10-01T15:22:02Z</time>
      </trkpt>
      <trkpt lat="47.3123" lon="7.87246">
        <ele>407</ele>
        <time>2022-10-01T15:22:03Z</time>
      </trkpt>
      <trkpt lat="47.31232" lon="7.8725">
        <ele>407</ele>
        <time>2022-10-01T15:22:04Z</time>
      </trkpt>
      <trkpt lat="47.31233" lon="7.87255">
        <ele>407</ele>
        <time>2022-10-01T15:22:05Z</time>
      </trkpt>
      <trkpt lat="47.31234" lon="7.87258">
        <ele>407</ele>
        <time>2022-10-01T15:22:06Z</time>
      </trkpt>
      <trkpt lat="47.31235" lon="7.87262">
        <ele>406.9</ele>
        <time>2022-10-01T15:22:07Z</time>
      </trkpt>
      <trkpt lat="47.31237" lon="7.87266">
        <ele>406.9</ele>
        <time>2022-10-01T15:22:08Z</time>
      </trkpt>
      <trkpt lat="47.31238" lon="7.8727">
        <ele>406.9</ele>
        <time>2022-10-01T15:22:09Z</time>
      </trkpt>
      <trkpt lat="47.31239" lon="7.87275">
        <ele>406.8</ele>
        <time>2022-10-01T15:22:10Z</time>
      </trkpt>
      <trkpt lat="47.3124" lon="7.87278">
        <ele>406.8</ele>
        <time>2022-10-01T15:22:11Z</time>
      </trkpt>
      <trkpt lat="47.31242" lon="7.87283">
        <ele>406.8</ele>
        <time>2022-10-01T15:22:12Z</time>
      </trkpt>
      <trkpt lat="47.31243" lon="7.87288">
        <ele>406.7</ele>
        <time>2022-10-01T15:22:13Z</time>
      </trkpt>
      <trkpt lat="47.31244" lon="7.87294">
        <ele>406.7</ele>
        <time>2022-10-01T15:22:14Z</time>
      </trkpt>
      <trkpt lat="47.31245" lon="7.873">
        <ele>406.6</ele>
        <time>2022-10-01T15:22:15Z</time>
      </trkpt>
      <trkpt lat="47.31247" lon="7.87306">
        <ele>406.6</ele>
        <time>2022-10-01T15:22:16Z</time>
      </trkpt>
      <trkpt lat="47.31247" lon="7.87313">
        <ele>406.5</ele>
        <time>2022-10-01T15:22:17Z</time>
      </trkpt>
      <trkpt lat="47.31249" lon="7.87319">
        <ele>406.5</ele>
        <time>2022-10-01T15:22:18Z</time>
      </trkpt>
      <trkpt lat="47.3125" lon="7.87325">
        <ele>406.5</ele>
        <time>2022-10-01T15:22:19Z</time>
      </trkpt>
      <trkpt lat="47.31251" lon="7.87332">
        <ele>406.4</ele>
        <time>2022-10-01T15:22:20Z</time>
      </trkpt>
      <trkpt lat="47.31252" lon="7.87339">
        <ele>406.4</ele>
        <time>2022-10-01T15:22:21Z</time>
      </trkpt>
      <trkpt lat="47.31253" lon="7.87347">
        <ele>406.3</ele>
        <time>2022-10-01T15:22:22Z</time>
      </trkpt>
      <trkpt lat="47.31254" lon="7.87354">
        <ele>406.3</ele>
        <time>2022-10-01T15:22:23Z</time>
      </trkpt>
      <trkpt lat="47.31255" lon="7.87361">
        <ele>406.2</ele>
        <time>2022-10-01T15:22:24Z</time>
      </trkpt>
      <trkpt lat="47.31255" lon="7.87369">
        <ele>406.2</ele>
        <time>2022-10-01T15:22:25Z</time>
      </trkpt>
      <trkpt lat="47.31256" lon="7.87376">
        <ele>406.1</ele>
        <time>2022-10-01T15:22:26Z</time>
      </trkpt>
      <trkpt lat="47.31257" lon="7.87384">
        <ele>406.1</ele>
        <time>2022-10-01T15:22:27Z</time>
      </trkpt>
      <trkpt lat="47.31258" lon="7.87393">
        <ele>406</ele>
        <time>2022-10-01T15:22:28Z</time>
      </trkpt>
      <trkpt lat="47.3126" lon="7.87401">
        <ele>405.9</ele>
        <time>2022-10-01T15:22:29Z</time>
      </trkpt>
      <trkpt lat="47.31261" lon="7.87407">
        <ele>405.9</ele>
        <time>2022-10-01T15:22:30Z</time>
      </trkpt>
      <trkpt lat="47.31262" lon="7.87415">
        <ele>405.8</ele>
        <time>2022-10-01T15:22:31Z</time>
      </trkpt>
      <trkpt lat="47.31263" lon="7.87424">
        <ele>405.8</ele>
        <time>2022-10-01T15:22:32Z</time>
      </trkpt>
      <trkpt lat="47.31264" lon="7.87433">
        <ele>405.7</ele>
        <time>2022-10-01T15:22:33Z</time>
      </trkpt>
      <trkpt lat="47.31264" lon="7.8744">
        <ele>405.6</ele>
        <time>2022-10-01T15:22:34Z</time>
      </trkpt>
      <trkpt lat="47.31265" lon="7.87448">
        <ele>405.5</ele>
        <time>2022-10-01T15:22:35Z</time>
      </trkpt>
      <trkpt lat="47.31266" lon="7.87457">
        <ele>405.5</ele>
        <time>2022-10-01T15:22:36Z</time>
      </trkpt>
      <trkpt lat="47.31266" lon="7.87465">
        <ele>405.4</ele>
        <time>2022-10-01T15:22:37Z</time>
      </trkpt>
      <trkpt lat="47.31267" lon="7.8747">
        <ele>405.4</ele>
        <time>2022-10-01T15:22:38Z</time>
      </trkpt>
      <trkpt lat="47.31267" lon="7.87476">
        <ele>405.4</ele>
        <time>2022-10-01T15:22:39Z</time>
      </trkpt>
      <trkpt lat="47.31267" lon="7.87482">
        <ele>405.3</ele>
        <time>2022-10-01T15:22:40Z</time>
      </trkpt>
      <trkpt lat="47.31266" lon="7.87487">
        <ele>405.1</ele>
        <time>2022-10-01T15:22:41Z</time>
      </trkpt>
      <trkpt lat="47.31266" lon="7.87492">
        <ele>404.8</ele>
        <time>2022-10-01T15:22:42Z</time>
      </trkpt>
      <trkpt lat="47.31266" lon="7.875">
        <ele>404.5</ele>
        <time>2022-10-01T15:22:43Z</time>
      </trkpt>
      <trkpt lat="47.31266" lon="7.87507">
        <ele>404.2</ele>
        <time>2022-10-01T15:22:44Z</time>
      </trkpt>
      <trkpt lat="47.31267" lon="7.87516">
        <ele>403.9</ele>
        <time>2022-10-01T15:22:45Z</time>
      </trkpt>
      <trkpt lat="47.31267" lon="7.87524">
        <ele>403.5</ele>
        <time>2022-10-01T15:22:46Z</time>
      </trkpt>
      <trkpt lat="47.31268" lon="7.87532">
        <ele>403.3</ele>
        <time>2022-10-01T15:22:47Z</time>
      </trkpt>
      <trkpt lat="47.31268" lon="7.87539">
        <ele>403.1</ele>
        <time>2022-10-01T15:22:48Z</time>
      </trkpt>
      <trkpt lat="47.31268" lon="7.87545">
        <ele>402.9</ele>
        <time>2022-10-01T15:22:49Z</time>
      </trkpt>
      <trkpt lat="47.31268" lon="7.87551">
        <ele>402.7</ele>
        <time>2022-10-01T15:22:50Z</time>
      </trkpt>
      <trkpt lat="47.31266" lon="7.87554">
        <ele>402.6</ele>
        <time>2022-10-01T15:22:51Z</time>
      </trkpt>
      <trkpt lat="47.31264" lon="7.87558">
        <ele>402.5</ele>
        <time>2022-10-01T15:22:52Z</time>
      </trkpt>
      <trkpt lat="47.31261" lon="7.87563">
        <ele>402.4</ele>
        <time>2022-10-01T15:22:53Z</time>
      </trkpt>
      <trkpt lat="47.31259" lon="7.87567">
        <ele>402.2</ele>
        <time>2022-10-01T15:22:54Z</time>
      </trkpt>
      <trkpt lat="47.31256" lon="7.87572">
        <ele>402.1</ele>
        <time>2022-10-01T15:22:55Z</time>
      </trkpt>
      <trkpt lat="47.31254" lon="7.87578">
        <ele>402.1</ele>
        <time>2022-10-01T15:22:56Z</time>
      </trkpt>
      <trkpt lat="47.31253" lon="7.87581">
        <ele>402.1</ele>
        <time>2022-10-01T15:22:57Z</time>
      </trkpt>
      <trkpt lat="47.31252" lon="7.87587">
        <ele>402</ele>
        <time>2022-10-01T15:22:58Z</time>
      </trkpt>
      <trkpt lat="47.31253" lon="7.87589">
        <ele>402</ele>
        <time>2022-10-01T15:22:59Z</time>
      </trkpt>
      <trkpt lat="47.31253" lon="7.87593">
        <ele>401.9</ele>
        <time>2022-10-01T15:23:00Z</time>
      </trkpt>
      <trkpt lat="47.31253" lon="7.87599">
        <ele>401.9</ele>
        <time>2022-10-01T15:23:01Z</time>
      </trkpt>
      <trkpt lat="47.31254" lon="7.87604">
        <ele>401.8</ele>
        <time>2022-10-01T15:23:02Z</time>
      </trkpt>
      <trkpt lat="47.31253" lon="7.87609">
        <ele>401.8</ele>
        <time>2022-10-01T15:23:03Z</time>
      </trkpt>
      <trkpt lat="47.31253" lon="7.87614">
        <ele>401.8</ele>
        <time>2022-10-01T15:23:04Z</time>
      </trkpt>
      <trkpt lat="47.31253" lon="7.87619">
        <ele>401.7</ele>
        <time>2022-10-01T15:23:05Z</time>
      </trkpt>
      <trkpt lat="47.31253" lon="7.87626">
        <ele>401.7</ele>
        <time>2022-10-01T15:23:06Z</time>
      </trkpt>
      <trkpt lat="47.31253" lon="7.87631">
        <ele>401.7</ele>
        <time>2022-10-01T15:23:07Z</time>
      </trkpt>
      <trkpt lat="47.31253" lon="7.87637">
        <ele>401.7</ele>
        <time>2022-10-01T15:23:08Z</time>
      </trkpt>
      <trkpt lat="47.31253" lon="7.87642">
        <ele>401.7</ele>
        <time>2022-10-01T15:23:09Z</time>
      </trkpt>
      <trkpt lat="47.31253" lon="7.8765">
        <ele>401.7</ele>
        <time>2022-10-01T15:23:10Z</time>
      </trkpt>
      <trkpt lat="47.31253" lon="7.87656">
        <ele>401.7</ele>
        <time>2022-10-01T15:23:11Z</time>
      </trkpt>
      <trkpt lat="47.31253" lon="7.87662">
        <ele>401.6</ele>
        <time>2022-10-01T15:23:12Z</time>
      </trkpt>
      <trkpt lat="47.31252" lon="7.87668">
        <ele>401.6</ele>
        <time>2022-10-01T15:23:13Z</time>
      </trkpt>
      <trkpt lat="47.31252" lon="7.87673">
        <ele>401.6</ele>
        <time>2022-10-01T15:23:14Z</time>
      </trkpt>
      <trkpt lat="47.31253" lon="7.8768">
        <ele>401.6</ele>
        <time>2022-10-01T15:23:15Z</time>
      </trkpt>
      <trkpt lat="47.31254" lon="7.87684">
        <ele>401.6</ele>
        <time>2022-10-01T15:23:16Z</time>
      </trkpt>
      <trkpt lat="47.31255" lon="7.87691">
        <ele>401.6</ele>
        <time>2022-10-01T15:23:17Z</time>
      </trkpt>
      <trkpt lat="47.31256" lon="7.87696">
        <ele>401.6</ele>
        <time>2022-10-01T15:23:18Z</time>
      </trkpt>
      <trkpt lat="47.31258" lon="7.87702">
        <ele>401.6</ele>
        <time>2022-10-01T15:23:19Z</time>
      </trkpt>
      <trkpt lat="47.3126" lon="7.87708">
        <ele>401.6</ele>
        <time>2022-10-01T15:23:20Z</time>
      </trkpt>
      <trkpt lat="47.31262" lon="7.87713">
        <ele>401.6</ele>
        <time>2022-10-01T15:23:21Z</time>
      </trkpt>
      <trkpt lat="47.31263" lon="7.87718">
        <ele>401.6</ele>
        <time>2022-10-01T15:23:22Z</time>
      </trkpt>
      <trkpt lat="47.31265" lon="7.87724">
        <ele>401.6</ele>
        <time>2022-10-01T15:23:23Z</time>
      </trkpt>
      <trkpt lat="47.31266" lon="7.8773">
        <ele>401.5</ele>
        <time>2022-10-01T15:23:24Z</time>
      </trkpt>
      <trkpt lat="47.31267" lon="7.87736">
        <ele>401.5</ele>
        <time>2022-10-01T15:23:25Z</time>
      </trkpt>
      <trkpt lat="47.31268" lon="7.87742">
        <ele>401.4</ele>
        <time>2022-10-01T15:23:26Z</time>
      </trkpt>
      <trkpt lat="47.31269" lon="7.87748">
        <ele>401.3</ele>
        <time>2022-10-01T15:23:27Z</time>
      </trkpt>
      <trkpt lat="47.31269" lon="7.87753">
        <ele>401.2</ele>
        <time>2022-10-01T15:23:28Z</time>
      </trkpt>
      <trkpt lat="47.31269" lon="7.87758">
        <ele>401.1</ele>
        <time>2022-10-01T15:23:29Z</time>
      </trkpt>
      <trkpt lat="47.31269" lon="7.87763">
        <ele>401.1</ele>
        <time>2022-10-01T15:23:30Z</time>
      </trkpt>
      <trkpt lat="47.31269" lon="7.87767">
        <ele>400.9</ele>
        <time>2022-10-01T15:23:31Z</time>
      </trkpt>
      <trkpt lat="47.31269" lon="7.87774">
        <ele>400.7</ele>
        <time>2022-10-01T15:23:32Z</time>
      </trkpt>
      <trkpt lat="47.31269" lon="7.8778">
        <ele>400.5</ele>
        <time>2022-10-01T15:23:33Z</time>
      </trkpt>
      <trkpt lat="47.31268" lon="7.87786">
        <ele>400.3</ele>
        <time>2022-10-01T15:23:34Z</time>
      </trkpt>
      <trkpt lat="47.31268" lon="7.87793">
        <ele>400.1</ele>
        <time>2022-10-01T15:23:35Z</time>
      </trkpt>
      <trkpt lat="47.31267" lon="7.87799">
        <ele>400</ele>
        <time>2022-10-01T15:23:36Z</time>
      </trkpt>
      <trkpt lat="47.31266" lon="7.87805">
        <ele>399.8</ele>
        <time>2022-10-01T15:23:37Z</time>
      </trkpt>
      <trkpt lat="47.31266" lon="7.87811">
        <ele>399.7</ele>
        <time>2022-10-01T15:23:38Z</time>
      </trkpt>
      <trkpt lat="47.31265" lon="7.87816">
        <ele>399.7</ele>
        <time>2022-10-01T15:23:39Z</time>
      </trkpt>
      <trkpt lat="47.31265" lon="7.87821">
        <ele>399.6</ele>
        <time>2022-10-01T15:23:40Z</time>
      </trkpt>
      <trkpt lat="47.31263" lon="7.87826">
        <ele>399.6</ele>
        <time>2022-10-01T15:23:41Z</time>
      </trkpt>
      <trkpt lat="47.31261" lon="7.8783">
        <ele>399.6</ele>
        <time>2022-10-01T15:23:42Z</time>
      </trkpt>
      <trkpt lat="47.31259" lon="7.87836">
        <ele>399.7</ele>
        <time>2022-10-01T15:23:43Z</time>
      </trkpt>
      <trkpt lat="47.31258" lon="7.87838">
        <ele>399.7</ele>
        <time>2022-10-01T15:23:44Z</time>
      </trkpt>
      <trkpt lat="47.31257" lon="7.87843">
        <ele>399.7</ele>
        <time>2022-10-01T15:23:45Z</time>
      </trkpt>
      <trkpt lat="47.31255" lon="7.87849">
        <ele>399.8</ele>
        <time>2022-10-01T15:23:46Z</time>
      </trkpt>
      <trkpt lat="47.31254" lon="7.87854">
        <ele>399.8</ele>
        <time>2022-10-01T15:23:47Z</time>
      </trkpt>
      <trkpt lat="47.31254" lon="7.87859">
        <ele>399.8</ele>
        <time>2022-10-01T15:23:48Z</time>
      </trkpt>
      <trkpt lat="47.31254" lon="7.87865">
        <ele>399.8</ele>
        <time>2022-10-01T15:23:49Z</time>
      </trkpt>
      <trkpt lat="47.31254" lon="7.87871">
        <ele>399.8</ele>
        <time>2022-10-01T15:23:50Z</time>
      </trkpt>
      <trkpt lat="47.31253" lon="7.87877">
        <ele>399.8</ele>
        <time>2022-10-01T15:23:51Z</time>
      </trkpt>
      <trkpt lat="47.31253" lon="7.87884">
        <ele>399.9</ele>
        <time>2022-10-01T15:23:52Z</time>
      </trkpt>
      <trkpt lat="47.31252" lon="7.87889">
        <ele>399.9</ele>
        <time>2022-10-01T15:23:53Z</time>
      </trkpt>
      <trkpt lat="47.31252" lon="7.87896">
        <ele>399.9</ele>
        <time>2022-10-01T15:23:54Z</time>
      </trkpt>
      <trkpt lat="47.31253" lon="7.87901">
        <ele>400</ele>
        <time>2022-10-01T15:23:55Z</time>
      </trkpt>
      <trkpt lat="47.31252" lon="7.87908">
        <ele>400</ele>
        <time>2022-10-01T15:23:56Z</time>
      </trkpt>
      <trkpt lat="47.31252" lon="7.87915">
        <ele>400.1</ele>
        <time>2022-10-01T15:23:57Z</time>
      </trkpt>
      <trkpt lat="47.31252" lon="7.87922">
        <ele>400.1</ele>
        <time>2022-10-01T15:23:58Z</time>
      </trkpt>
      <trkpt lat="47.31252" lon="7.87928">
        <ele>400.2</ele>
        <time>2022-10-01T15:23:59Z</time>
      </trkpt>
      <trkpt lat="47.31251" lon="7.87935">
        <ele>400.3</ele>
        <time>2022-10-01T15:24:00Z</time>
      </trkpt>
      <trkpt lat="47.31251" lon="7.87941">
        <ele>400.3</ele>
        <time>2022-10-01T15:24:01Z</time>
      </trkpt>
      <trkpt lat="47.3125" lon="7.87948">
        <ele>400.4</ele>
        <time>2022-10-01T15:24:02Z</time>
      </trkpt>
      <trkpt lat="47.3125" lon="7.87955">
        <ele>400.5</ele>
        <time>2022-10-01T15:24:03Z</time>
      </trkpt>
      <trkpt lat="47.3125" lon="7.87962">
        <ele>400.6</ele>
        <time>2022-10-01T15:24:04Z</time>
      </trkpt>
      <trkpt lat="47.31251" lon="7.87968">
        <ele>400.7</ele>
        <time>2022-10-01T15:24:05Z</time>
      </trkpt>
      <trkpt lat="47.31253" lon="7.87974">
        <ele>400.8</ele>
        <time>2022-10-01T15:24:06Z</time>
      </trkpt>
      <trkpt lat="47.31255" lon="7.8798">
        <ele>400.9</ele>
        <time>2022-10-01T15:24:07Z</time>
      </trkpt>
      <trkpt lat="47.31257" lon="7.87985">
        <ele>401</ele>
        <time>2022-10-01T15:24:08Z</time>
      </trkpt>
      <trkpt lat="47.31259" lon="7.87989">
        <ele>401.1</ele>
        <time>2022-10-01T15:24:09Z</time>
      </trkpt>
      <trkpt lat="47.31262" lon="7.87993">
        <ele>401.2</ele>
        <time>2022-10-01T15:24:10Z</time>
      </trkpt>
      <trkpt lat="47.31264" lon="7.87996">
        <ele>401.3</ele>
        <time>2022-10-01T15:24:11Z</time>
      </trkpt>
      <trkpt lat="47.31266" lon="7.88">
        <ele>401.3</ele>
        <time>2022-10-01T15:24:12Z</time>
      </trkpt>
      <trkpt lat="47.31267" lon="7.88004">
        <ele>401.2</ele>
        <time>2022-10-01T15:24:13Z</time>
      </trkpt>
      <trkpt lat="47.31267" lon="7.8801">
        <ele>401.2</ele>
        <time>2022-10-01T15:24:14Z</time>
      </trkpt>
      <trkpt lat="47.31267" lon="7.88012">
        <ele>401.2</ele>
        <time>2022-10-01T15:24:15Z</time>
      </trkpt>
      <trkpt lat="47.31268" lon="7.88017">
        <ele>401.1</ele>
        <time>2022-10-01T15:24:16Z</time>
      </trkpt>
      <trkpt lat="47.31268" lon="7.8802">
        <ele>401.1</ele>
        <time>2022-10-01T15:24:17Z</time>
      </trkpt>
      <trkpt lat="47.31267" lon="7.88024">
        <ele>401.1</ele>
        <time>2022-10-01T15:24:18Z</time>
      </trkpt>
      <trkpt lat="47.31267" lon="7.8803">
        <ele>401</ele>
        <time>2022-10-01T15:24:19Z</time>
      </trkpt>
      <trkpt lat="47.31267" lon="7.88035">
        <ele>401</ele>
        <time>2022-10-01T15:24:20Z</time>
      </trkpt>
      <trkpt lat="47.31268" lon="7.88042">
        <ele>400.9</ele>
        <time>2022-10-01T15:24:21Z</time>
      </trkpt>
      <trkpt lat="47.31267" lon="7.88049">
        <ele>400.9</ele>
        <time>2022-10-01T15:24:22Z</time>
      </trkpt>
      <trkpt lat="47.31267" lon="7.88055">
        <ele>400.8</ele>
        <time>2022-10-01T15:24:23Z</time>
      </trkpt>
      <trkpt lat="47.31267" lon="7.8806">
        <ele>400.8</ele>
        <time>2022-10-01T15:24:24Z</time>
      </trkpt>
      <trkpt lat="47.31267" lon="7.88067">
        <ele>400.8</ele>
        <time>2022-10-01T15:24:25Z</time>
      </trkpt>
      <trkpt lat="47.31267" lon="7.88072">
        <ele>400.8</ele>
        <time>2022-10-01T15:24:26Z</time>
      </trkpt>
      <trkpt lat="47.31267" lon="7.88078">
        <ele>400.8</ele>
        <time>2022-10-01T15:24:27Z</time>
      </trkpt>
      <trkpt lat="47.31267" lon="7.88084">
        <ele>400.8</ele>
        <time>2022-10-01T15:24:28Z</time>
      </trkpt>
      <trkpt lat="47.31267" lon="7.88091">
        <ele>400.8</ele>
        <time>2022-10-01T15:24:29Z</time>
      </trkpt>
      <trkpt lat="47.31267" lon="7.88096">
        <ele>400.8</ele>
        <time>2022-10-01T15:24:30Z</time>
      </trkpt>
      <trkpt lat="47.31267" lon="7.881">
        <ele>400.8</ele>
        <time>2022-10-01T15:24:31Z</time>
      </trkpt>
      <trkpt lat="47.31268" lon="7.88105">
        <ele>400.8</ele>
        <time>2022-10-01T15:24:32Z</time>
      </trkpt>
      <trkpt lat="47.31268" lon="7.88106">
        <ele>400.8</ele>
        <time>2022-10-01T15:24:33Z</time>
      </trkpt>
      <trkpt lat="47.3127" lon="7.88111">
        <ele>400.8</ele>
        <time>2022-10-01T15:24:34Z</time>
      </trkpt>
      <trkpt lat="47.31271" lon="7.88112">
        <ele>400.8</ele>
        <time>2022-10-01T15:24:35Z</time>
      </trkpt>
      <trkpt lat="47.31274" lon="7.88115">
        <ele>400.8</ele>
        <time>2022-10-01T15:24:36Z</time>
      </trkpt>
      <trkpt lat="47.31275" lon="7.88117">
        <ele>400.8</ele>
        <time>2022-10-01T15:24:37Z</time>
      </trkpt>
      <trkpt lat="47.31277" lon="7.88122">
        <ele>400.8</ele>
        <time>2022-10-01T15:24:38Z</time>
      </trkpt>
      <trkpt lat="47.31278" lon="7.88123">
        <ele>400.8</ele>
        <time>2022-10-01T15:24:39Z</time>
      </trkpt>
      <trkpt lat="47.3128" lon="7.88127">
        <ele>400.8</ele>
        <time>2022-10-01T15:24:40Z</time>
      </trkpt>
      <trkpt lat="47.31281" lon="7.88132">
        <ele>400.7</ele>
        <time>2022-10-01T15:24:41Z</time>
      </trkpt>
      <trkpt lat="47.31281" lon="7.88134">
        <ele>400.7</ele>
        <time>2022-10-01T15:24:42Z</time>
      </trkpt>
      <trkpt lat="47.31281" lon="7.88139">
        <ele>400.7</ele>
        <time>2022-10-01T15:24:43Z</time>
      </trkpt>
      <trkpt lat="47.31281" lon="7.88143">
        <ele>400.6</ele>
        <time>2022-10-01T15:24:44Z</time>
      </trkpt>
      <trkpt lat="47.3128" lon="7.88149">
        <ele>400.6</ele>
        <time>2022-10-01T15:24:45Z</time>
      </trkpt>
      <trkpt lat="47.31279" lon="7.88154">
        <ele>400.5</ele>
        <time>2022-10-01T15:24:46Z</time>
      </trkpt>
      <trkpt lat="47.31277" lon="7.88159">
        <ele>400.5</ele>
        <time>2022-10-01T15:24:47Z</time>
      </trkpt>
      <trkpt lat="47.31275" lon="7.88165">
        <ele>400.4</ele>
        <time>2022-10-01T15:24:48Z</time>
      </trkpt>
      <trkpt lat="47.31274" lon="7.88171">
        <ele>400.4</ele>
        <time>2022-10-01T15:24:49Z</time>
      </trkpt>
      <trkpt lat="47.31272" lon="7.88177">
        <ele>400.3</ele>
        <time>2022-10-01T15:24:50Z</time>
      </trkpt>
      <trkpt lat="47.31271" lon="7.88183">
        <ele>400.3</ele>
        <time>2022-10-01T15:24:51Z</time>
      </trkpt>
      <trkpt lat="47.31271" lon="7.88188">
        <ele>400.2</ele>
        <time>2022-10-01T15:24:52Z</time>
      </trkpt>
      <trkpt lat="47.3127" lon="7.88193">
        <ele>400.2</ele>
        <time>2022-10-01T15:24:53Z</time>
      </trkpt>
      <trkpt lat="47.3127" lon="7.88198">
        <ele>400.2</ele>
        <time>2022-10-01T15:24:54Z</time>
      </trkpt>
      <trkpt lat="47.3127" lon="7.88203">
        <ele>400.2</ele>
        <time>2022-10-01T15:24:55Z</time>
      </trkpt>
      <trkpt lat="47.3127" lon="7.88209">
        <ele>400.2</ele>
        <time>2022-10-01T15:24:56Z</time>
      </trkpt>
      <trkpt lat="47.31271" lon="7.88214">
        <ele>400.2</ele>
        <time>2022-10-01T15:24:57Z</time>
      </trkpt>
      <trkpt lat="47.31271" lon="7.88221">
        <ele>400.1</ele>
        <time>2022-10-01T15:24:58Z</time>
      </trkpt>
      <trkpt lat="47.31271" lon="7.88226">
        <ele>400.1</ele>
        <time>2022-10-01T15:24:59Z</time>
      </trkpt>
      <trkpt lat="47.3127" lon="7.88232">
        <ele>400.1</ele>
        <time>2022-10-01T15:25:00Z</time>
      </trkpt>
      <trkpt lat="47.3127" lon="7.88238">
        <ele>400.1</ele>
        <time>2022-10-01T15:25:01Z</time>
      </trkpt>
      <trkpt lat="47.31271" lon="7.88245">
        <ele>400.1</ele>
        <time>2022-10-01T15:25:02Z</time>
      </trkpt>
      <trkpt lat="47.31271" lon="7.88251">
        <ele>400.1</ele>
        <time>2022-10-01T15:25:03Z</time>
      </trkpt>
      <trkpt lat="47.31271" lon="7.88257">
        <ele>400.1</ele>
        <time>2022-10-01T15:25:04Z</time>
      </trkpt>
      <trkpt lat="47.31271" lon="7.88262">
        <ele>400.1</ele>
        <time>2022-10-01T15:25:05Z</time>
      </trkpt>
      <trkpt lat="47.31272" lon="7.88268">
        <ele>400.1</ele>
        <time>2022-10-01T15:25:06Z</time>
      </trkpt>
      <trkpt lat="47.31272" lon="7.88274">
        <ele>400.2</ele>
        <time>2022-10-01T15:25:07Z</time>
      </trkpt>
      <trkpt lat="47.31272" lon="7.88281">
        <ele>400.2</ele>
        <time>2022-10-01T15:25:08Z</time>
      </trkpt>
      <trkpt lat="47.31272" lon="7.88288">
        <ele>400.2</ele>
        <time>2022-10-01T15:25:09Z</time>
      </trkpt>
      <trkpt lat="47.31272" lon="7.88295">
        <ele>400.2</ele>
        <time>2022-10-01T15:25:10Z</time>
      </trkpt>
      <trkpt lat="47.31272" lon="7.88301">
        <ele>400.2</ele>
        <time>2022-10-01T15:25:11Z</time>
      </trkpt>
      <trkpt lat="47.31272" lon="7.88308">
        <ele>400.2</ele>
        <time>2022-10-01T15:25:12Z</time>
      </trkpt>
      <trkpt lat="47.31272" lon="7.88315">
        <ele>400.2</ele>
        <time>2022-10-01T15:25:13Z</time>
      </trkpt>
      <trkpt lat="47.31272" lon="7.88323">
        <ele>400.2</ele>
        <time>2022-10-01T15:25:14Z</time>
      </trkpt>
      <trkpt lat="47.31272" lon="7.8833">
        <ele>400.2</ele>
        <time>2022-10-01T15:25:15Z</time>
      </trkpt>
      <trkpt lat="47.31272" lon="7.88337">
        <ele>400.2</ele>
        <time>2022-10-01T15:25:16Z</time>
      </trkpt>
      <trkpt lat="47.31272" lon="7.88345">
        <ele>400.2</ele>
        <time>2022-10-01T15:25:17Z</time>
      </trkpt>
      <trkpt lat="47.31272" lon="7.88352">
        <ele>400.2</ele>
        <time>2022-10-01T15:25:18Z</time>
      </trkpt>
      <trkpt lat="47.31272" lon="7.88359">
        <ele>400.2</ele>
        <time>2022-10-01T15:25:19Z</time>
      </trkpt>
      <trkpt lat="47.31272" lon="7.88366">
        <ele>400.2</ele>
        <time>2022-10-01T15:25:20Z</time>
      </trkpt>
      <trkpt lat="47.31273" lon="7.88373">
        <ele>400.2</ele>
        <time>2022-10-01T15:25:21Z</time>
      </trkpt>
      <trkpt lat="47.31273" lon="7.88379">
        <ele>400.2</ele>
        <time>2022-10-01T15:25:22Z</time>
      </trkpt>
      <trkpt lat="47.31272" lon="7.88387">
        <ele>400.2</ele>
        <time>2022-10-01T15:25:23Z</time>
      </trkpt>
      <trkpt lat="47.31272" lon="7.88394">
        <ele>400.2</ele>
        <time>2022-10-01T15:25:24Z</time>
      </trkpt>
      <trkpt lat="47.31273" lon="7.88401">
        <ele>400.2</ele>
        <time>2022-10-01T15:25:25Z</time>
      </trkpt>
      <trkpt lat="47.31272" lon="7.88409">
        <ele>400.2</ele>
        <time>2022-10-01T15:25:26Z</time>
      </trkpt>
      <trkpt lat="47.31273" lon="7.88417">
        <ele>400.2</ele>
        <time>2022-10-01T15:25:27Z</time>
      </trkpt>
      <trkpt lat="47.31273" lon="7.88426">
        <ele>400.2</ele>
        <time>2022-10-01T15:25:28Z</time>
      </trkpt>
      <trkpt lat="47.31273" lon="7.88432">
        <ele>400.2</ele>
        <time>2022-10-01T15:25:29Z</time>
      </trkpt>
      <trkpt lat="47.31274" lon="7.88439">
        <ele>400.2</ele>
        <time>2022-10-01T15:25:30Z</time>
      </trkpt>
      <trkpt lat="47.31274" lon="7.88446">
        <ele>400.2</ele>
        <time>2022-10-01T15:25:31Z</time>
      </trkpt>
      <trkpt lat="47.31274" lon="7.88452">
        <ele>400.1</ele>
        <time>2022-10-01T15:25:32Z</time>
      </trkpt>
      <trkpt lat="47.31275" lon="7.88458">
        <ele>400.1</ele>
        <time>2022-10-01T15:25:33Z</time>
      </trkpt>
      <trkpt lat="47.31275" lon="7.88466">
        <ele>400.1</ele>
        <time>2022-10-01T15:25:34Z</time>
      </trkpt>
      <trkpt lat="47.31275" lon="7.88473">
        <ele>400.1</ele>
        <time>2022-10-01T15:25:35Z</time>
      </trkpt>
      <trkpt lat="47.31276" lon="7.88479">
        <ele>400.1</ele>
        <time>2022-10-01T15:25:36Z</time>
      </trkpt>
      <trkpt lat="47.31277" lon="7.88484">
        <ele>400.1</ele>
        <time>2022-10-01T15:25:37Z</time>
      </trkpt>
      <trkpt lat="47.31277" lon="7.88491">
        <ele>400.1</ele>
        <time>2022-10-01T15:25:38Z</time>
      </trkpt>
      <trkpt lat="47.31277" lon="7.88499">
        <ele>400</ele>
        <time>2022-10-01T15:25:39Z</time>
      </trkpt>
      <trkpt lat="47.31277" lon="7.88506">
        <ele>400</ele>
        <time>2022-10-01T15:25:40Z</time>
      </trkpt>
      <trkpt lat="47.31278" lon="7.88512">
        <ele>400</ele>
        <time>2022-10-01T15:25:41Z</time>
      </trkpt>
      <trkpt lat="47.31278" lon="7.88518">
        <ele>400</ele>
        <time>2022-10-01T15:25:42Z</time>
      </trkpt>
      <trkpt lat="47.31279" lon="7.88526">
        <ele>399.9</ele>
        <time>2022-10-01T15:25:43Z</time>
      </trkpt>
      <trkpt lat="47.3128" lon="7.88533">
        <ele>399.9</ele>
        <time>2022-10-01T15:25:44Z</time>
      </trkpt>
      <trkpt lat="47.31281" lon="7.88537">
        <ele>399.9</ele>
        <time>2022-10-01T15:25:45Z</time>
      </trkpt>
      <trkpt lat="47.31281" lon="7.88543">
        <ele>399.8</ele>
        <time>2022-10-01T15:25:46Z</time>
      </trkpt>
      <trkpt lat="47.31283" lon="7.88549">
        <ele>399.8</ele>
        <time>2022-10-01T15:25:47Z</time>
      </trkpt>
      <trkpt lat="47.31284" lon="7.88551">
        <ele>399.8</ele>
        <time>2022-10-01T15:25:48Z</time>
      </trkpt>
      <trkpt lat="47.31284" lon="7.88555">
        <ele>399.8</ele>
        <time>2022-10-01T15:25:49Z</time>
      </trkpt>
      <trkpt lat="47.31286" lon="7.88559">
        <ele>399.8</ele>
        <time>2022-10-01T15:25:50Z</time>
      </trkpt>
      <trkpt lat="47.31287" lon="7.88564">
        <ele>399.8</ele>
        <time>2022-10-01T15:25:51Z</time>
      </trkpt>
      <trkpt lat="47.31288" lon="7.88566">
        <ele>399.8</ele>
        <time>2022-10-01T15:25:52Z</time>
      </trkpt>
      <trkpt lat="47.3129" lon="7.88571">
        <ele>399.8</ele>
        <time>2022-10-01T15:25:53Z</time>
      </trkpt>
      <trkpt lat="47.31291" lon="7.88575">
        <ele>399.8</ele>
        <time>2022-10-01T15:25:54Z</time>
      </trkpt>
      <trkpt lat="47.31293" lon="7.8858">
        <ele>399.8</ele>
        <time>2022-10-01T15:25:55Z</time>
      </trkpt>
      <trkpt lat="47.31295" lon="7.88584">
        <ele>399.8</ele>
        <time>2022-10-01T15:25:56Z</time>
      </trkpt>
      <trkpt lat="47.31297" lon="7.88589">
        <ele>399.8</ele>
        <time>2022-10-01T15:25:57Z</time>
      </trkpt>
      <trkpt lat="47.31298" lon="7.88593">
        <ele>399.8</ele>
        <time>2022-10-01T15:25:58Z</time>
      </trkpt>
      <trkpt lat="47.313" lon="7.88597">
        <ele>399.8</ele>
        <time>2022-10-01T15:25:59Z</time>
      </trkpt>
      <trkpt lat="47.31301" lon="7.88601">
        <ele>399.7</ele>
        <time>2022-10-01T15:26:00Z</time>
      </trkpt>
      <trkpt lat="47.31303" lon="7.88605">
        <ele>399.7</ele>
        <time>2022-10-01T15:26:01Z</time>
      </trkpt>
      <trkpt lat="47.31304" lon="7.88609">
        <ele>399.7</ele>
        <time>2022-10-01T15:26:02Z</time>
      </trkpt>
      <trkpt lat="47.31306" lon="7.88613">
        <ele>399.7</ele>
        <time>2022-10-01T15:26:03Z</time>
      </trkpt>
      <trkpt lat="47.31308" lon="7.88617">
        <ele>399.7</ele>
        <time>2022-10-01T15:26:04Z</time>
      </trkpt>
      <trkpt lat="47.31311" lon="7.8862">
        <ele>399.7</ele>
        <time>2022-10-01T15:26:05Z</time>
      </trkpt>
      <trkpt lat="47.31311" lon="7.88621">
        <ele>399.7</ele>
        <time>2022-10-01T15:26:06Z</time>
      </trkpt>
      <trkpt lat="47.31314" lon="7.88625">
        <ele>399.7</ele>
        <time>2022-10-01T15:26:07Z</time>
      </trkpt>
      <trkpt lat="47.31314" lon="7.88626">
        <ele>399.7</ele>
        <time>2022-10-01T15:26:08Z</time>
      </trkpt>
      <trkpt lat="47.31316" lon="7.8863">
        <ele>399.7</ele>
        <time>2022-10-01T15:26:09Z</time>
      </trkpt>
      <trkpt lat="47.31319" lon="7.88633">
        <ele>399.7</ele>
        <time>2022-10-01T15:26:10Z</time>
      </trkpt>
      <trkpt lat="47.3132" lon="7.88634">
        <ele>399.7</ele>
        <time>2022-10-01T15:26:11Z</time>
      </trkpt>
      <trkpt lat="47.31322" lon="7.88639">
        <ele>399.7</ele>
        <time>2022-10-01T15:26:12Z</time>
      </trkpt>
      <trkpt lat="47.31323" lon="7.88641">
        <ele>399.7</ele>
        <time>2022-10-01T15:26:13Z</time>
      </trkpt>
      <trkpt lat="47.31325" lon="7.88645">
        <ele>399.7</ele>
        <time>2022-10-01T15:26:14Z</time>
      </trkpt>
      <trkpt lat="47.31327" lon="7.88647">
        <ele>399.7</ele>
        <time>2022-10-01T15:26:15Z</time>
      </trkpt>
      <trkpt lat="47.31329" lon="7.88654">
        <ele>399.7</ele>
        <time>2022-10-01T15:26:16Z</time>
      </trkpt>
      <trkpt lat="47.31332" lon="7.88659">
        <ele>399.8</ele>
        <time>2022-10-01T15:26:17Z</time>
      </trkpt>
      <trkpt lat="47.31334" lon="7.88663">
        <ele>399.8</ele>
        <time>2022-10-01T15:26:18Z</time>
      </trkpt>
      <trkpt lat="47.31339" lon="7.88666">
        <ele>399.8</ele>
        <time>2022-10-01T15:26:19Z</time>
      </trkpt>
      <trkpt lat="47.31343" lon="7.8867">
        <ele>399.7</ele>
        <time>2022-10-01T15:26:20Z</time>
      </trkpt>
      <trkpt lat="47.31346" lon="7.88673">
        <ele>399.7</ele>
        <time>2022-10-01T15:26:21Z</time>
      </trkpt>
      <trkpt lat="47.31349" lon="7.88675">
        <ele>399.7</ele>
        <time>2022-10-01T15:26:22Z</time>
      </trkpt>
      <trkpt lat="47.31352" lon="7.88678">
        <ele>399.7</ele>
        <time>2022-10-01T15:26:23Z</time>
      </trkpt>
      <trkpt lat="47.31356" lon="7.88682">
        <ele>399.7</ele>
        <time>2022-10-01T15:26:24Z</time>
      </trkpt>
      <trkpt lat="47.31358" lon="7.88684">
        <ele>399.7</ele>
        <time>2022-10-01T15:26:25Z</time>
      </trkpt>
      <trkpt lat="47.31362" lon="7.88688">
        <ele>399.7</ele>
        <time>2022-10-01T15:26:26Z</time>
      </trkpt>
      <trkpt lat="47.31365" lon="7.88691">
        <ele>399.7</ele>
        <time>2022-10-01T15:26:27Z</time>
      </trkpt>
      <trkpt lat="47.31368" lon="7.88693">
        <ele>399.7</ele>
        <time>2022-10-01T15:26:28Z</time>
      </trkpt>
      <trkpt lat="47.31371" lon="7.88697">
        <ele>399.7</ele>
        <time>2022-10-01T15:26:29Z</time>
      </trkpt>
      <trkpt lat="47.31374" lon="7.887">
        <ele>399.7</ele>
        <time>2022-10-01T15:26:30Z</time>
      </trkpt>
      <trkpt lat="47.31377" lon="7.88704">
        <ele>399.7</ele>
        <time>2022-10-01T15:26:31Z</time>
      </trkpt>
      <trkpt lat="47.3138" lon="7.88707">
        <ele>399.7</ele>
        <time>2022-10-01T15:26:32Z</time>
      </trkpt>
      <trkpt lat="47.31383" lon="7.88711">
        <ele>399.7</ele>
        <time>2022-10-01T15:26:33Z</time>
      </trkpt>
      <trkpt lat="47.31386" lon="7.88715">
        <ele>399.7</ele>
        <time>2022-10-01T15:26:34Z</time>
      </trkpt>
      <trkpt lat="47.31388" lon="7.88719">
        <ele>399.7</ele>
        <time>2022-10-01T15:26:35Z</time>
      </trkpt>
      <trkpt lat="47.3139" lon="7.88724">
        <ele>399.7</ele>
        <time>2022-10-01T15:26:36Z</time>
      </trkpt>
      <trkpt lat="47.31392" lon="7.88727">
        <ele>399.7</ele>
        <time>2022-10-01T15:26:37Z</time>
      </trkpt>
      <trkpt lat="47.31394" lon="7.88731">
        <ele>399.7</ele>
        <time>2022-10-01T15:26:38Z</time>
      </trkpt>
      <trkpt lat="47.31397" lon="7.88735">
        <ele>399.7</ele>
        <time>2022-10-01T15:26:39Z</time>
      </trkpt>
      <trkpt lat="47.314" lon="7.8874">
        <ele>399.7</ele>
        <time>2022-10-01T15:26:40Z</time>
      </trkpt>
      <trkpt lat="47.31404" lon="7.88744">
        <ele>399.7</ele>
        <time>2022-10-01T15:26:41Z</time>
      </trkpt>
      <trkpt lat="47.31405" lon="7.88749">
        <ele>399.7</ele>
        <time>2022-10-01T15:26:42Z</time>
      </trkpt>
      <trkpt lat="47.31409" lon="7.88754">
        <ele>399.7</ele>
        <time>2022-10-01T15:26:43Z</time>
      </trkpt>
      <trkpt lat="47.31412" lon="7.88758">
        <ele>399.7</ele>
        <time>2022-10-01T15:26:44Z</time>
      </trkpt>
      <trkpt lat="47.31415" lon="7.88764">
        <ele>399.7</ele>
        <time>2022-10-01T15:26:45Z</time>
      </trkpt>
      <trkpt lat="47.31418" lon="7.88768">
        <ele>399.7</ele>
        <time>2022-10-01T15:26:46Z</time>
      </trkpt>
      <trkpt lat="47.31421" lon="7.88771">
        <ele>399.7</ele>
        <time>2022-10-01T15:26:47Z</time>
      </trkpt>
      <trkpt lat="47.31422" lon="7.88772">
        <ele>399.7</ele>
        <time>2022-10-01T15:26:48Z</time>
      </trkpt>
      <trkpt lat="47.31425" lon="7.88773">
        <ele>399.7</ele>
        <time>2022-10-01T15:26:49Z</time>
      </trkpt>
      <trkpt lat="47.31428" lon="7.88777">
        <ele>399.7</ele>
        <time>2022-10-01T15:26:50Z</time>
      </trkpt>
      <trkpt lat="47.3143" lon="7.8878">
        <ele>399.7</ele>
        <time>2022-10-01T15:26:51Z</time>
      </trkpt>
      <trkpt lat="47.31433" lon="7.88782">
        <ele>399.6</ele>
        <time>2022-10-01T15:26:52Z</time>
      </trkpt>
      <trkpt lat="47.31435" lon="7.88786">
        <ele>399.6</ele>
        <time>2022-10-01T15:26:53Z</time>
      </trkpt>
      <trkpt lat="47.31439" lon="7.88788">
        <ele>399.6</ele>
        <time>2022-10-01T15:26:54Z</time>
      </trkpt>
      <trkpt lat="47.31443" lon="7.88794">
        <ele>399.5</ele>
        <time>2022-10-01T15:26:55Z</time>
      </trkpt>
      <trkpt lat="47.31447" lon="7.88798">
        <ele>399.5</ele>
        <time>2022-10-01T15:26:56Z</time>
      </trkpt>
      <trkpt lat="47.3145" lon="7.88804">
        <ele>399.5</ele>
        <time>2022-10-01T15:26:57Z</time>
      </trkpt>
      <trkpt lat="47.31453" lon="7.88809">
        <ele>399.4</ele>
        <time>2022-10-01T15:26:58Z</time>
      </trkpt>
      <trkpt lat="47.31456" lon="7.88813">
        <ele>399.4</ele>
        <time>2022-10-01T15:26:59Z</time>
      </trkpt>
      <trkpt lat="47.31459" lon="7.88816">
        <ele>399.4</ele>
        <time>2022-10-01T15:27:00Z</time>
      </trkpt>
      <trkpt lat="47.31462" lon="7.8882">
        <ele>399.4</ele>
        <time>2022-10-01T15:27:01Z</time>
      </trkpt>
      <trkpt lat="47.31465" lon="7.88825">
        <ele>399.4</ele>
        <time>2022-10-01T15:27:02Z</time>
      </trkpt>
      <trkpt lat="47.31469" lon="7.8883">
        <ele>399.3</ele>
        <time>2022-10-01T15:27:03Z</time>
      </trkpt>
      <trkpt lat="47.31473" lon="7.88836">
        <ele>399.3</ele>
        <time>2022-10-01T15:27:04Z</time>
      </trkpt>
      <trkpt lat="47.31475" lon="7.8884">
        <ele>399.3</ele>
        <time>2022-10-01T15:27:05Z</time>
      </trkpt>
      <trkpt lat="47.31478" lon="7.88846">
        <ele>399.4</ele>
        <time>2022-10-01T15:27:06Z</time>
      </trkpt>
      <trkpt lat="47.31482" lon="7.88849">
        <ele>399.4</ele>
        <time>2022-10-01T15:27:07Z</time>
      </trkpt>
      <trkpt lat="47.31485" lon="7.88852">
        <ele>399.5</ele>
        <time>2022-10-01T15:27:08Z</time>
      </trkpt>
      <trkpt lat="47.31488" lon="7.88853">
        <ele>399.6</ele>
        <time>2022-10-01T15:27:09Z</time>
      </trkpt>
      <trkpt lat="47.31491" lon="7.88854">
        <ele>399.7</ele>
        <time>2022-10-01T15:27:10Z</time>
      </trkpt>
      <trkpt lat="47.31491" lon="7.88853">
        <ele>399.7</ele>
        <time>2022-10-01T15:27:11Z</time>
      </trkpt>
      <trkpt lat="47.31495" lon="7.88854">
        <ele>399.9</ele>
        <time>2022-10-01T15:27:12Z</time>
      </trkpt>
      <trkpt lat="47.31496" lon="7.88854">
        <ele>399.9</ele>
        <time>2022-10-01T15:27:13Z</time>
      </trkpt>
      <trkpt lat="47.31497" lon="7.88854">
        <ele>399.9</ele>
        <time>2022-10-01T15:27:14Z</time>
      </trkpt>
      <trkpt lat="47.31498" lon="7.88854">
        <ele>400</ele>
        <time>2022-10-01T15:27:15Z</time>
      </trkpt>
      <trkpt lat="47.31499" lon="7.88855">
        <ele>400.1</ele>
        <time>2022-10-01T15:27:16Z</time>
      </trkpt>
      <trkpt lat="47.31501" lon="7.88856">
        <ele>400.1</ele>
        <time>2022-10-01T15:27:17Z</time>
      </trkpt>
      <trkpt lat="47.31502" lon="7.88857">
        <ele>400.2</ele>
        <time>2022-10-01T15:27:18Z</time>
      </trkpt>
      <trkpt lat="47.31504" lon="7.88859">
        <ele>400.3</ele>
        <time>2022-10-01T15:27:19Z</time>
      </trkpt>
      <trkpt lat="47.31505" lon="7.88859">
        <ele>400.4</ele>
        <time>2022-10-01T15:27:20Z</time>
      </trkpt>
      <trkpt lat="47.31505" lon="7.8886">
        <ele>400.4</ele>
        <time>2022-10-01T15:27:21Z</time>
      </trkpt>
      <trkpt lat="47.31507" lon="7.88861">
        <ele>400.5</ele>
        <time>2022-10-01T15:27:22Z</time>
      </trkpt>
      <trkpt lat="47.31508" lon="7.88863">
        <ele>400.6</ele>
        <time>2022-10-01T15:27:23Z</time>
      </trkpt>
      <trkpt lat="47.31509" lon="7.88864">
        <ele>400.7</ele>
        <time>2022-10-01T15:27:24Z</time>
      </trkpt>
      <trkpt lat="47.3151" lon="7.88866">
        <ele>400.8</ele>
        <time>2022-10-01T15:27:25Z</time>
      </trkpt>
      <trkpt lat="47.31511" lon="7.8887">
        <ele>400.7</ele>
        <time>2022-10-01T15:27:26Z</time>
      </trkpt>
      <trkpt lat="47.31512" lon="7.88871">
        <ele>400.7</ele>
        <time>2022-10-01T15:27:27Z</time>
      </trkpt>
      <trkpt lat="47.31513" lon="7.88876">
        <ele>400.7</ele>
        <time>2022-10-01T15:27:28Z</time>
      </trkpt>
      <trkpt lat="47.31514" lon="7.88877">
        <ele>400.7</ele>
        <time>2022-10-01T15:27:29Z</time>
      </trkpt>
      <trkpt lat="47.31516" lon="7.88882">
        <ele>400.6</ele>
        <time>2022-10-01T15:27:30Z</time>
      </trkpt>
      <trkpt lat="47.31516" lon="7.88884">
        <ele>400.6</ele>
        <time>2022-10-01T15:27:31Z</time>
      </trkpt>
      <trkpt lat="47.31517" lon="7.88888">
        <ele>400.6</ele>
        <time>2022-10-01T15:27:32Z</time>
      </trkpt>
      <trkpt lat="47.31518" lon="7.88893">
        <ele>400.5</ele>
        <time>2022-10-01T15:27:33Z</time>
      </trkpt>
      <trkpt lat="47.31519" lon="7.88898">
        <ele>400.4</ele>
        <time>2022-10-01T15:27:34Z</time>
      </trkpt>
      <trkpt lat="47.3152" lon="7.88902">
        <ele>400.4</ele>
        <time>2022-10-01T15:27:35Z</time>
      </trkpt>
      <trkpt lat="47.31521" lon="7.88906">
        <ele>400.4</ele>
        <time>2022-10-01T15:27:36Z</time>
      </trkpt>
      <trkpt lat="47.31522" lon="7.88912">
        <ele>400.3</ele>
        <time>2022-10-01T15:27:37Z</time>
      </trkpt>
      <trkpt lat="47.31524" lon="7.88918">
        <ele>400.2</ele>
        <time>2022-10-01T15:27:38Z</time>
      </trkpt>
      <trkpt lat="47.31526" lon="7.88924">
        <ele>400.2</ele>
        <time>2022-10-01T15:27:39Z</time>
      </trkpt>
      <trkpt lat="47.31527" lon="7.88931">
        <ele>400.1</ele>
        <time>2022-10-01T15:27:40Z</time>
      </trkpt>
      <trkpt lat="47.31529" lon="7.88938">
        <ele>400</ele>
        <time>2022-10-01T15:27:41Z</time>
      </trkpt>
      <trkpt lat="47.31531" lon="7.88944">
        <ele>400</ele>
        <time>2022-10-01T15:27:42Z</time>
      </trkpt>
      <trkpt lat="47.31534" lon="7.8895">
        <ele>399.9</ele>
        <time>2022-10-01T15:27:43Z</time>
      </trkpt>
      <trkpt lat="47.31537" lon="7.88956">
        <ele>399.9</ele>
        <time>2022-10-01T15:27:44Z</time>
      </trkpt>
      <trkpt lat="47.31539" lon="7.88964">
        <ele>399.8</ele>
        <time>2022-10-01T15:27:45Z</time>
      </trkpt>
      <trkpt lat="47.31542" lon="7.88972">
        <ele>399.7</ele>
        <time>2022-10-01T15:27:46Z</time>
      </trkpt>
      <trkpt lat="47.31544" lon="7.88979">
        <ele>399.7</ele>
        <time>2022-10-01T15:27:47Z</time>
      </trkpt>
      <trkpt lat="47.31547" lon="7.88987">
        <ele>399.6</ele>
        <time>2022-10-01T15:27:48Z</time>
      </trkpt>
      <trkpt lat="47.31551" lon="7.88994">
        <ele>399.5</ele>
        <time>2022-10-01T15:27:49Z</time>
      </trkpt>
      <trkpt lat="47.31554" lon="7.89002">
        <ele>399.5</ele>
        <time>2022-10-01T15:27:50Z</time>
      </trkpt>
      <trkpt lat="47.31557" lon="7.89009">
        <ele>399.4</ele>
        <time>2022-10-01T15:27:51Z</time>
      </trkpt>
      <trkpt lat="47.31559" lon="7.89017">
        <ele>399.4</ele>
        <time>2022-10-01T15:27:52Z</time>
      </trkpt>
      <trkpt lat="47.31562" lon="7.89024">
        <ele>399.3</ele>
        <time>2022-10-01T15:27:53Z</time>
      </trkpt>
      <trkpt lat="47.31566" lon="7.89032">
        <ele>399.3</ele>
        <time>2022-10-01T15:27:54Z</time>
      </trkpt>
      <trkpt lat="47.31569" lon="7.89039">
        <ele>399.2</ele>
        <time>2022-10-01T15:27:55Z</time>
      </trkpt>
      <trkpt lat="47.31572" lon="7.89046">
        <ele>399.2</ele>
        <time>2022-10-01T15:27:56Z</time>
      </trkpt>
      <trkpt lat="47.31574" lon="7.89052">
        <ele>399.2</ele>
        <time>2022-10-01T15:27:57Z</time>
      </trkpt>
      <trkpt lat="47.31578" lon="7.89059">
        <ele>399.1</ele>
        <time>2022-10-01T15:27:58Z</time>
      </trkpt>
      <trkpt lat="47.31581" lon="7.89066">
        <ele>399.1</ele>
        <time>2022-10-01T15:27:59Z</time>
      </trkpt>
      <trkpt lat="47.31584" lon="7.89073">
        <ele>399.1</ele>
        <time>2022-10-01T15:28:00Z</time>
      </trkpt>
      <trkpt lat="47.31587" lon="7.89081">
        <ele>399.1</ele>
        <time>2022-10-01T15:28:01Z</time>
      </trkpt>
      <trkpt lat="47.3159" lon="7.89088">
        <ele>399.1</ele>
        <time>2022-10-01T15:28:02Z</time>
      </trkpt>
      <trkpt lat="47.31593" lon="7.89095">
        <ele>399.1</ele>
        <time>2022-10-01T15:28:03Z</time>
      </trkpt>
      <trkpt lat="47.31596" lon="7.89102">
        <ele>399.1</ele>
        <time>2022-10-01T15:28:04Z</time>
      </trkpt>
      <trkpt lat="47.31599" lon="7.89108">
        <ele>399.1</ele>
        <time>2022-10-01T15:28:05Z</time>
      </trkpt>
      <trkpt lat="47.31602" lon="7.89115">
        <ele>399.1</ele>
        <time>2022-10-01T15:28:06Z</time>
      </trkpt>
      <trkpt lat="47.31605" lon="7.89121">
        <ele>399.2</ele>
        <time>2022-10-01T15:28:07Z</time>
      </trkpt>
      <trkpt lat="47.31608" lon="7.89127">
        <ele>399.2</ele>
        <time>2022-10-01T15:28:08Z</time>
      </trkpt>
      <trkpt lat="47.31611" lon="7.89133">
        <ele>399.3</ele>
        <time>2022-10-01T15:28:09Z</time>
      </trkpt>
      <trkpt lat="47.31614" lon="7.89138">
        <ele>399.3</ele>
        <time>2022-10-01T15:28:10Z</time>
      </trkpt>
      <trkpt lat="47.31616" lon="7.89144">
        <ele>399.3</ele>
        <time>2022-10-01T15:28:11Z</time>
      </trkpt>
      <trkpt lat="47.31619" lon="7.8915">
        <ele>399.4</ele>
        <time>2022-10-01T15:28:12Z</time>
      </trkpt>
      <trkpt lat="47.31622" lon="7.89156">
        <ele>399.4</ele>
        <time>2022-10-01T15:28:13Z</time>
      </trkpt>
      <trkpt lat="47.31625" lon="7.89161">
        <ele>399.4</ele>
        <time>2022-10-01T15:28:14Z</time>
      </trkpt>
      <trkpt lat="47.31627" lon="7.89167">
        <ele>399.4</ele>
        <time>2022-10-01T15:28:15Z</time>
      </trkpt>
      <trkpt lat="47.3163" lon="7.89172">
        <ele>399.5</ele>
        <time>2022-10-01T15:28:16Z</time>
      </trkpt>
      <trkpt lat="47.31633" lon="7.89177">
        <ele>399.5</ele>
        <time>2022-10-01T15:28:17Z</time>
      </trkpt>
      <trkpt lat="47.31635" lon="7.89182">
        <ele>399.5</ele>
        <time>2022-10-01T15:28:18Z</time>
      </trkpt>
      <trkpt lat="47.3164" lon="7.89188">
        <ele>399.5</ele>
        <time>2022-10-01T15:28:19Z</time>
      </trkpt>
      <trkpt lat="47.31643" lon="7.89195">
        <ele>399.5</ele>
        <time>2022-10-01T15:28:20Z</time>
      </trkpt>
      <trkpt lat="47.31647" lon="7.89201">
        <ele>399.5</ele>
        <time>2022-10-01T15:28:21Z</time>
      </trkpt>
      <trkpt lat="47.31649" lon="7.89207">
        <ele>399.4</ele>
        <time>2022-10-01T15:28:22Z</time>
      </trkpt>
      <trkpt lat="47.31653" lon="7.89212">
        <ele>399.4</ele>
        <time>2022-10-01T15:28:23Z</time>
      </trkpt>
      <trkpt lat="47.31656" lon="7.89218">
        <ele>399.3</ele>
        <time>2022-10-01T15:28:24Z</time>
      </trkpt>
      <trkpt lat="47.3166" lon="7.89224">
        <ele>399.3</ele>
        <time>2022-10-01T15:28:25Z</time>
      </trkpt>
      <trkpt lat="47.31663" lon="7.8923">
        <ele>399.2</ele>
        <time>2022-10-01T15:28:26Z</time>
      </trkpt>
      <trkpt lat="47.31667" lon="7.89236">
        <ele>399.1</ele>
        <time>2022-10-01T15:28:27Z</time>
      </trkpt>
      <trkpt lat="47.31671" lon="7.89243">
        <ele>399</ele>
        <time>2022-10-01T15:28:28Z</time>
      </trkpt>
      <trkpt lat="47.31675" lon="7.89249">
        <ele>398.9</ele>
        <time>2022-10-01T15:28:29Z</time>
      </trkpt>
      <trkpt lat="47.31678" lon="7.89254">
        <ele>398.8</ele>
        <time>2022-10-01T15:28:30Z</time>
      </trkpt>
      <trkpt lat="47.31683" lon="7.89259">
        <ele>398.6</ele>
        <time>2022-10-01T15:28:31Z</time>
      </trkpt>
      <trkpt lat="47.31686" lon="7.89265">
        <ele>398.6</ele>
        <time>2022-10-01T15:28:32Z</time>
      </trkpt>
      <trkpt lat="47.3169" lon="7.89271">
        <ele>398.5</ele>
        <time>2022-10-01T15:28:33Z</time>
      </trkpt>
      <trkpt lat="47.31695" lon="7.89277">
        <ele>398.4</ele>
        <time>2022-10-01T15:28:34Z</time>
      </trkpt>
      <trkpt lat="47.31699" lon="7.89284">
        <ele>398.2</ele>
        <time>2022-10-01T15:28:35Z</time>
      </trkpt>
      <trkpt lat="47.31704" lon="7.89289">
        <ele>398.1</ele>
        <time>2022-10-01T15:28:36Z</time>
      </trkpt>
      <trkpt lat="47.31708" lon="7.89294">
        <ele>398</ele>
        <time>2022-10-01T15:28:37Z</time>
      </trkpt>
      <trkpt lat="47.31713" lon="7.89299">
        <ele>397.9</ele>
        <time>2022-10-01T15:28:38Z</time>
      </trkpt>
      <trkpt lat="47.31716" lon="7.89305">
        <ele>397.9</ele>
        <time>2022-10-01T15:28:39Z</time>
      </trkpt>
      <trkpt lat="47.31722" lon="7.8931">
        <ele>397.8</ele>
        <time>2022-10-01T15:28:40Z</time>
      </trkpt>
      <trkpt lat="47.31726" lon="7.89316">
        <ele>397.8</ele>
        <time>2022-10-01T15:28:41Z</time>
      </trkpt>
      <trkpt lat="47.31731" lon="7.89322">
        <ele>397.8</ele>
        <time>2022-10-01T15:28:42Z</time>
      </trkpt>
      <trkpt lat="47.31736" lon="7.89329">
        <ele>397.7</ele>
        <time>2022-10-01T15:28:43Z</time>
      </trkpt>
      <trkpt lat="47.31741" lon="7.89334">
        <ele>397.7</ele>
        <time>2022-10-01T15:28:44Z</time>
      </trkpt>
      <trkpt lat="47.31746" lon="7.89338">
        <ele>397.6</ele>
        <time>2022-10-01T15:28:45Z</time>
      </trkpt>
      <trkpt lat="47.3175" lon="7.89342">
        <ele>397.6</ele>
        <time>2022-10-01T15:28:46Z</time>
      </trkpt>
      <trkpt lat="47.31754" lon="7.89348">
        <ele>397.6</ele>
        <time>2022-10-01T15:28:47Z</time>
      </trkpt>
      <trkpt lat="47.31759" lon="7.89353">
        <ele>397.7</ele>
        <time>2022-10-01T15:28:48Z</time>
      </trkpt>
      <trkpt lat="47.31764" lon="7.89357">
        <ele>397.7</ele>
        <time>2022-10-01T15:28:49Z</time>
      </trkpt>
      <trkpt lat="47.31768" lon="7.89361">
        <ele>397.8</ele>
        <time>2022-10-01T15:28:50Z</time>
      </trkpt>
      <trkpt lat="47.31771" lon="7.89366">
        <ele>397.9</ele>
        <time>2022-10-01T15:28:51Z</time>
      </trkpt>
      <trkpt lat="47.31775" lon="7.89371">
        <ele>398</ele>
        <time>2022-10-01T15:28:52Z</time>
      </trkpt>
      <trkpt lat="47.31778" lon="7.89374">
        <ele>398</ele>
        <time>2022-10-01T15:28:53Z</time>
      </trkpt>
      <trkpt lat="47.3178" lon="7.89378">
        <ele>398.1</ele>
        <time>2022-10-01T15:28:54Z</time>
      </trkpt>
      <trkpt lat="47.31783" lon="7.8938">
        <ele>398.2</ele>
        <time>2022-10-01T15:28:55Z</time>
      </trkpt>
      <trkpt lat="47.31785" lon="7.89383">
        <ele>398.3</ele>
        <time>2022-10-01T15:28:56Z</time>
      </trkpt>
      <trkpt lat="47.31789" lon="7.89387">
        <ele>398.4</ele>
        <time>2022-10-01T15:28:57Z</time>
      </trkpt>
      <trkpt lat="47.31791" lon="7.89389">
        <ele>398.5</ele>
        <time>2022-10-01T15:28:58Z</time>
      </trkpt>
      <trkpt lat="47.31795" lon="7.89393">
        <ele>398.7</ele>
        <time>2022-10-01T15:28:59Z</time>
      </trkpt>
      <trkpt lat="47.31797" lon="7.89395">
        <ele>398.7</ele>
        <time>2022-10-01T15:29:00Z</time>
      </trkpt>
      <trkpt lat="47.318" lon="7.89398">
        <ele>398.8</ele>
        <time>2022-10-01T15:29:01Z</time>
      </trkpt>
      <trkpt lat="47.31804" lon="7.89401">
        <ele>399</ele>
        <time>2022-10-01T15:29:02Z</time>
      </trkpt>
      <trkpt lat="47.31806" lon="7.89403">
        <ele>399.1</ele>
        <time>2022-10-01T15:29:03Z</time>
      </trkpt>
      <trkpt lat="47.3181" lon="7.89408">
        <ele>399.2</ele>
        <time>2022-10-01T15:29:04Z</time>
      </trkpt>
      <trkpt lat="47.31812" lon="7.89411">
        <ele>399.3</ele>
        <time>2022-10-01T15:29:05Z</time>
      </trkpt>
      <trkpt lat="47.31816" lon="7.89414">
        <ele>399.5</ele>
        <time>2022-10-01T15:29:06Z</time>
      </trkpt>
      <trkpt lat="47.31818" lon="7.89417">
        <ele>399.6</ele>
        <time>2022-10-01T15:29:07Z</time>
      </trkpt>
      <trkpt lat="47.31821" lon="7.89422">
        <ele>399.7</ele>
        <time>2022-10-01T15:29:08Z</time>
      </trkpt>
      <trkpt lat="47.31825" lon="7.89426">
        <ele>399.9</ele>
        <time>2022-10-01T15:29:09Z</time>
      </trkpt>
      <trkpt lat="47.31828" lon="7.89429">
        <ele>400</ele>
        <time>2022-10-01T15:29:10Z</time>
      </trkpt>
      <trkpt lat="47.31831" lon="7.89433">
        <ele>400.1</ele>
        <time>2022-10-01T15:29:11Z</time>
      </trkpt>
      <trkpt lat="47.31834" lon="7.89437">
        <ele>400.2</ele>
        <time>2022-10-01T15:29:12Z</time>
      </trkpt>
      <trkpt lat="47.31837" lon="7.89441">
        <ele>400.4</ele>
        <time>2022-10-01T15:29:13Z</time>
      </trkpt>
      <trkpt lat="47.31841" lon="7.89445">
        <ele>400.5</ele>
        <time>2022-10-01T15:29:14Z</time>
      </trkpt>
      <trkpt lat="47.31842" lon="7.89447">
        <ele>400.5</ele>
        <time>2022-10-01T15:29:15Z</time>
      </trkpt>
      <trkpt lat="47.31844" lon="7.8945">
        <ele>400.6</ele>
        <time>2022-10-01T15:29:16Z</time>
      </trkpt>
      <trkpt lat="47.31846" lon="7.89453">
        <ele>400.7</ele>
        <time>2022-10-01T15:29:17Z</time>
      </trkpt>
      <trkpt lat="47.31849" lon="7.89457">
        <ele>400.8</ele>
        <time>2022-10-01T15:29:18Z</time>
      </trkpt>
      <trkpt lat="47.31852" lon="7.89461">
        <ele>400.9</ele>
        <time>2022-10-01T15:29:19Z</time>
      </trkpt>
      <trkpt lat="47.31854" lon="7.89464">
        <ele>401</ele>
        <time>2022-10-01T15:29:20Z</time>
      </trkpt>
      <trkpt lat="47.31857" lon="7.89468">
        <ele>401.1</ele>
        <time>2022-10-01T15:29:21Z</time>
      </trkpt>
      <trkpt lat="47.31859" lon="7.89471">
        <ele>401.2</ele>
        <time>2022-10-01T15:29:22Z</time>
      </trkpt>
      <trkpt lat="47.31861" lon="7.89474">
        <ele>401.3</ele>
        <time>2022-10-01T15:29:23Z</time>
      </trkpt>
      <trkpt lat="47.31864" lon="7.89478">
        <ele>401.5</ele>
        <time>2022-10-01T15:29:24Z</time>
      </trkpt>
      <trkpt lat="47.31867" lon="7.89482">
        <ele>401.6</ele>
        <time>2022-10-01T15:29:25Z</time>
      </trkpt>
      <trkpt lat="47.3187" lon="7.89485">
        <ele>401.7</ele>
        <time>2022-10-01T15:29:26Z</time>
      </trkpt>
      <trkpt lat="47.31872" lon="7.89489">
        <ele>401.8</ele>
        <time>2022-10-01T15:29:27Z</time>
      </trkpt>
      <trkpt lat="47.31874" lon="7.89493">
        <ele>401.9</ele>
        <time>2022-10-01T15:29:28Z</time>
      </trkpt>
      <trkpt lat="47.31875" lon="7.89497">
        <ele>402</ele>
        <time>2022-10-01T15:29:29Z</time>
      </trkpt>
      <trkpt lat="47.31878" lon="7.89501">
        <ele>402.1</ele>
        <time>2022-10-01T15:29:30Z</time>
      </trkpt>
      <trkpt lat="47.31881" lon="7.89504">
        <ele>402.2</ele>
        <time>2022-10-01T15:29:31Z</time>
      </trkpt>
      <trkpt lat="47.31883" lon="7.89508">
        <ele>402.4</ele>
        <time>2022-10-01T15:29:32Z</time>
      </trkpt>
      <trkpt lat="47.31885" lon="7.89512">
        <ele>402.5</ele>
        <time>2022-10-01T15:29:33Z</time>
      </trkpt>
      <trkpt lat="47.31887" lon="7.89515">
        <ele>402.6</ele>
        <time>2022-10-01T15:29:34Z</time>
      </trkpt>
      <trkpt lat="47.3189" lon="7.89518">
        <ele>402.7</ele>
        <time>2022-10-01T15:29:35Z</time>
      </trkpt>
      <trkpt lat="47.31892" lon="7.89522">
        <ele>402.8</ele>
        <time>2022-10-01T15:29:36Z</time>
      </trkpt>
      <trkpt lat="47.31895" lon="7.89526">
        <ele>402.9</ele>
        <time>2022-10-01T15:29:37Z</time>
      </trkpt>
      <trkpt lat="47.31896" lon="7.89528">
        <ele>403</ele>
        <time>2022-10-01T15:29:38Z</time>
      </trkpt>
      <trkpt lat="47.31898" lon="7.8953">
        <ele>403.1</ele>
        <time>2022-10-01T15:29:39Z</time>
      </trkpt>
      <trkpt lat="47.319" lon="7.89533">
        <ele>403.2</ele>
        <time>2022-10-01T15:29:40Z</time>
      </trkpt>
      <trkpt lat="47.31903" lon="7.89537">
        <ele>403.3</ele>
        <time>2022-10-01T15:29:41Z</time>
      </trkpt>
      <trkpt lat="47.31905" lon="7.89539">
        <ele>403.4</ele>
        <time>2022-10-01T15:29:42Z</time>
      </trkpt>
      <trkpt lat="47.31907" lon="7.89543">
        <ele>403.5</ele>
        <time>2022-10-01T15:29:43Z</time>
      </trkpt>
      <trkpt lat="47.3191" lon="7.89546">
        <ele>403.6</ele>
        <time>2022-10-01T15:29:44Z</time>
      </trkpt>
      <trkpt lat="47.31912" lon="7.8955">
        <ele>403.8</ele>
        <time>2022-10-01T15:29:45Z</time>
      </trkpt>
      <trkpt lat="47.31914" lon="7.89554">
        <ele>403.9</ele>
        <time>2022-10-01T15:29:46Z</time>
      </trkpt>
      <trkpt lat="47.31916" lon="7.89557">
        <ele>404</ele>
        <time>2022-10-01T15:29:47Z</time>
      </trkpt>
      <trkpt lat="47.31918" lon="7.8956">
        <ele>404.1</ele>
        <time>2022-10-01T15:29:48Z</time>
      </trkpt>
      <trkpt lat="47.3192" lon="7.89565">
        <ele>404.3</ele>
        <time>2022-10-01T15:29:49Z</time>
      </trkpt>
      <trkpt lat="47.31921" lon="7.89566">
        <ele>404.4</ele>
        <time>2022-10-01T15:29:50Z</time>
      </trkpt>
      <trkpt lat="47.31923" lon="7.8957">
        <ele>404.5</ele>
        <time>2022-10-01T15:29:51Z</time>
      </trkpt>
      <trkpt lat="47.31925" lon="7.89573">
        <ele>404.6</ele>
        <time>2022-10-01T15:29:52Z</time>
      </trkpt>
      <trkpt lat="47.31926" lon="7.89575">
        <ele>404.6</ele>
        <time>2022-10-01T15:29:53Z</time>
      </trkpt>
      <trkpt lat="47.31928" lon="7.89579">
        <ele>404.8</ele>
        <time>2022-10-01T15:29:54Z</time>
      </trkpt>
      <trkpt lat="47.31929" lon="7.8958">
        <ele>404.8</ele>
        <time>2022-10-01T15:29:55Z</time>
      </trkpt>
      <trkpt lat="47.31931" lon="7.89584">
        <ele>405</ele>
        <time>2022-10-01T15:29:56Z</time>
      </trkpt>
      <trkpt lat="47.31932" lon="7.89585">
        <ele>405</ele>
        <time>2022-10-01T15:29:57Z</time>
      </trkpt>
      <trkpt lat="47.31934" lon="7.89589">
        <ele>405.1</ele>
        <time>2022-10-01T15:29:58Z</time>
      </trkpt>
      <trkpt lat="47.31934" lon="7.8959">
        <ele>405.2</ele>
        <time>2022-10-01T15:29:59Z</time>
      </trkpt>
      <trkpt lat="47.31937" lon="7.89594">
        <ele>405.3</ele>
        <time>2022-10-01T15:30:00Z</time>
      </trkpt>
      <trkpt lat="47.31937" lon="7.89595">
        <ele>405.3</ele>
        <time>2022-10-01T15:30:01Z</time>
      </trkpt>
      <trkpt lat="47.31939" lon="7.89599">
        <ele>405.4</ele>
        <time>2022-10-01T15:30:02Z</time>
      </trkpt>
      <trkpt lat="47.3194" lon="7.896">
        <ele>405.4</ele>
        <time>2022-10-01T15:30:03Z</time>
      </trkpt>
      <trkpt lat="47.31942" lon="7.89604">
        <ele>405.5</ele>
        <time>2022-10-01T15:30:04Z</time>
      </trkpt>
      <trkpt lat="47.31943" lon="7.89605">
        <ele>405.6</ele>
        <time>2022-10-01T15:30:05Z</time>
      </trkpt>
      <trkpt lat="47.31945" lon="7.89608">
        <ele>405.6</ele>
        <time>2022-10-01T15:30:06Z</time>
      </trkpt>
      <trkpt lat="47.31947" lon="7.89612">
        <ele>405.7</ele>
        <time>2022-10-01T15:30:07Z</time>
      </trkpt>
      <trkpt lat="47.31948" lon="7.89614">
        <ele>405.8</ele>
        <time>2022-10-01T15:30:08Z</time>
      </trkpt>
      <trkpt lat="47.31951" lon="7.89618">
        <ele>405.9</ele>
        <time>2022-10-01T15:30:09Z</time>
      </trkpt>
      <trkpt lat="47.31952" lon="7.89619">
        <ele>405.9</ele>
        <time>2022-10-01T15:30:10Z</time>
      </trkpt>
      <trkpt lat="47.31954" lon="7.89623">
        <ele>406</ele>
        <time>2022-10-01T15:30:11Z</time>
      </trkpt>
      <trkpt lat="47.31957" lon="7.89627">
        <ele>406.1</ele>
        <time>2022-10-01T15:30:12Z</time>
      </trkpt>
      <trkpt lat="47.31958" lon="7.89628">
        <ele>406.1</ele>
        <time>2022-10-01T15:30:13Z</time>
      </trkpt>
      <trkpt lat="47.3196" lon="7.89632">
        <ele>406.2</ele>
        <time>2022-10-01T15:30:14Z</time>
      </trkpt>
      <trkpt lat="47.31962" lon="7.89635">
        <ele>406.2</ele>
        <time>2022-10-01T15:30:15Z</time>
      </trkpt>
      <trkpt lat="47.31964" lon="7.89639">
        <ele>406.3</ele>
        <time>2022-10-01T15:30:16Z</time>
      </trkpt>
      <trkpt lat="47.31965" lon="7.89641">
        <ele>406.3</ele>
        <time>2022-10-01T15:30:17Z</time>
      </trkpt>
      <trkpt lat="47.31967" lon="7.89643">
        <ele>406.3</ele>
        <time>2022-10-01T15:30:18Z</time>
      </trkpt>
      <trkpt lat="47.3197" lon="7.89646">
        <ele>406.3</ele>
        <time>2022-10-01T15:30:19Z</time>
      </trkpt>
      <trkpt lat="47.31972" lon="7.8965">
        <ele>406.4</ele>
        <time>2022-10-01T15:30:20Z</time>
      </trkpt>
      <trkpt lat="47.31974" lon="7.89652">
        <ele>406.4</ele>
        <time>2022-10-01T15:30:21Z</time>
      </trkpt>
      <trkpt lat="47.31977" lon="7.89655">
        <ele>406.4</ele>
        <time>2022-10-01T15:30:22Z</time>
      </trkpt>
      <trkpt lat="47.3198" lon="7.89659">
        <ele>406.4</ele>
        <time>2022-10-01T15:30:23Z</time>
      </trkpt>
      <trkpt lat="47.31982" lon="7.89662">
        <ele>406.4</ele>
        <time>2022-10-01T15:30:24Z</time>
      </trkpt>
      <trkpt lat="47.31985" lon="7.89664">
        <ele>406.4</ele>
        <time>2022-10-01T15:30:25Z</time>
      </trkpt>
      <trkpt lat="47.31987" lon="7.89667">
        <ele>406.3</ele>
        <time>2022-10-01T15:30:26Z</time>
      </trkpt>
      <trkpt lat="47.3199" lon="7.8967">
        <ele>406.3</ele>
        <time>2022-10-01T15:30:27Z</time>
      </trkpt>
      <trkpt lat="47.31992" lon="7.89672">
        <ele>406.3</ele>
        <time>2022-10-01T15:30:28Z</time>
      </trkpt>
      <trkpt lat="47.31995" lon="7.89674">
        <ele>406.2</ele>
        <time>2022-10-01T15:30:29Z</time>
      </trkpt>
      <trkpt lat="47.31996" lon="7.89674">
        <ele>406.2</ele>
        <time>2022-10-01T15:30:30Z</time>
      </trkpt>
      <trkpt lat="47.32" lon="7.89674">
        <ele>406.2</ele>
        <time>2022-10-01T15:30:31Z</time>
      </trkpt>
      <trkpt lat="47.32002" lon="7.89673">
        <ele>406.1</ele>
        <time>2022-10-01T15:30:32Z</time>
      </trkpt>
      <trkpt lat="47.32004" lon="7.89672">
        <ele>406.1</ele>
        <time>2022-10-01T15:30:33Z</time>
      </trkpt>
      <trkpt lat="47.32007" lon="7.89667">
        <ele>406.2</ele>
        <time>2022-10-01T15:30:34Z</time>
      </trkpt>
      <trkpt lat="47.32008" lon="7.89666">
        <ele>406.3</ele>
        <time>2022-10-01T15:30:35Z</time>
      </trkpt>
      <trkpt lat="47.32009" lon="7.89661">
        <ele>406.4</ele>
        <time>2022-10-01T15:30:36Z</time>
      </trkpt>
      <trkpt lat="47.3201" lon="7.89659">
        <ele>406.5</ele>
        <time>2022-10-01T15:30:37Z</time>
      </trkpt>
      <trkpt lat="47.3201" lon="7.89655">
        <ele>406.6</ele>
        <time>2022-10-01T15:30:38Z</time>
      </trkpt>
      <trkpt lat="47.32012" lon="7.8965">
        <ele>406.7</ele>
        <time>2022-10-01T15:30:39Z</time>
      </trkpt>
      <trkpt lat="47.32012" lon="7.89648">
        <ele>406.7</ele>
        <time>2022-10-01T15:30:40Z</time>
      </trkpt>
      <trkpt lat="47.32013" lon="7.89643">
        <ele>406.8</ele>
        <time>2022-10-01T15:30:41Z</time>
      </trkpt>
      <trkpt lat="47.32013" lon="7.89641">
        <ele>406.8</ele>
        <time>2022-10-01T15:30:42Z</time>
      </trkpt>
      <trkpt lat="47.32014" lon="7.89636">
        <ele>407</ele>
        <time>2022-10-01T15:30:43Z</time>
      </trkpt>
      <trkpt lat="47.32015" lon="7.89634">
        <ele>407</ele>
        <time>2022-10-01T15:30:44Z</time>
      </trkpt>
      <trkpt lat="47.32017" lon="7.89629">
        <ele>407.1</ele>
        <time>2022-10-01T15:30:45Z</time>
      </trkpt>
      <trkpt lat="47.32017" lon="7.89627">
        <ele>407.2</ele>
        <time>2022-10-01T15:30:46Z</time>
      </trkpt>
      <trkpt lat="47.32018" lon="7.89621">
        <ele>407.3</ele>
        <time>2022-10-01T15:30:47Z</time>
      </trkpt>
      <trkpt lat="47.32019" lon="7.89619">
        <ele>407.4</ele>
        <time>2022-10-01T15:30:48Z</time>
      </trkpt>
      <trkpt lat="47.3202" lon="7.89614">
        <ele>407.5</ele>
        <time>2022-10-01T15:30:49Z</time>
      </trkpt>
      <trkpt lat="47.32021" lon="7.8961">
        <ele>407.6</ele>
        <time>2022-10-01T15:30:50Z</time>
      </trkpt>
      <trkpt lat="47.32023" lon="7.89606">
        <ele>407.7</ele>
        <time>2022-10-01T15:30:51Z</time>
      </trkpt>
      <trkpt lat="47.32024" lon="7.89602">
        <ele>407.8</ele>
        <time>2022-10-01T15:30:52Z</time>
      </trkpt>
      <trkpt lat="47.32025" lon="7.89598">
        <ele>407.9</ele>
        <time>2022-10-01T15:30:53Z</time>
      </trkpt>
      <trkpt lat="47.32027" lon="7.89594">
        <ele>408</ele>
        <time>2022-10-01T15:30:54Z</time>
      </trkpt>
      <trkpt lat="47.32028" lon="7.8959">
        <ele>408.2</ele>
        <time>2022-10-01T15:30:55Z</time>
      </trkpt>
      <trkpt lat="47.3203" lon="7.89587">
        <ele>408.3</ele>
        <time>2022-10-01T15:30:56Z</time>
      </trkpt>
      <trkpt lat="47.32033" lon="7.89583">
        <ele>408.4</ele>
        <time>2022-10-01T15:30:57Z</time>
      </trkpt>
      <trkpt lat="47.32034" lon="7.8958">
        <ele>408.5</ele>
        <time>2022-10-01T15:30:58Z</time>
      </trkpt>
      <trkpt lat="47.32037" lon="7.89576">
        <ele>408.6</ele>
        <time>2022-10-01T15:30:59Z</time>
      </trkpt>
      <trkpt lat="47.32039" lon="7.89574">
        <ele>408.8</ele>
        <time>2022-10-01T15:31:00Z</time>
      </trkpt>
      <trkpt lat="47.32042" lon="7.89571">
        <ele>408.9</ele>
        <time>2022-10-01T15:31:01Z</time>
      </trkpt>
      <trkpt lat="47.32045" lon="7.89569">
        <ele>409</ele>
        <time>2022-10-01T15:31:02Z</time>
      </trkpt>
      <trkpt lat="47.32047" lon="7.89566">
        <ele>409.1</ele>
        <time>2022-10-01T15:31:03Z</time>
      </trkpt>
      <trkpt lat="47.3205" lon="7.89564">
        <ele>409.3</ele>
        <time>2022-10-01T15:31:04Z</time>
      </trkpt>
      <trkpt lat="47.32052" lon="7.89562">
        <ele>409.4</ele>
        <time>2022-10-01T15:31:05Z</time>
      </trkpt>
      <trkpt lat="47.32055" lon="7.8956">
        <ele>409.5</ele>
        <time>2022-10-01T15:31:06Z</time>
      </trkpt>
      <trkpt lat="47.32059" lon="7.89557">
        <ele>409.7</ele>
        <time>2022-10-01T15:31:07Z</time>
      </trkpt>
      <trkpt lat="47.3206" lon="7.89555">
        <ele>409.7</ele>
        <time>2022-10-01T15:31:08Z</time>
      </trkpt>
      <trkpt lat="47.32063" lon="7.89553">
        <ele>409.8</ele>
        <time>2022-10-01T15:31:09Z</time>
      </trkpt>
      <trkpt lat="47.32066" lon="7.89552">
        <ele>409.9</ele>
        <time>2022-10-01T15:31:10Z</time>
      </trkpt>
      <trkpt lat="47.32068" lon="7.8955">
        <ele>410.1</ele>
        <time>2022-10-01T15:31:11Z</time>
      </trkpt>
      <trkpt lat="47.32071" lon="7.89549">
        <ele>410.2</ele>
        <time>2022-10-01T15:31:12Z</time>
      </trkpt>
      <trkpt lat="47.32074" lon="7.89547">
        <ele>410.3</ele>
        <time>2022-10-01T15:31:13Z</time>
      </trkpt>
      <trkpt lat="47.32077" lon="7.89546">
        <ele>410.4</ele>
        <time>2022-10-01T15:31:14Z</time>
      </trkpt>
      <trkpt lat="47.3208" lon="7.89545">
        <ele>410.5</ele>
        <time>2022-10-01T15:31:15Z</time>
      </trkpt>
      <trkpt lat="47.32083" lon="7.89544">
        <ele>410.5</ele>
        <time>2022-10-01T15:31:16Z</time>
      </trkpt>
      <trkpt lat="47.32087" lon="7.89543">
        <ele>410.6</ele>
        <time>2022-10-01T15:31:17Z</time>
      </trkpt>
      <trkpt lat="47.32089" lon="7.89542">
        <ele>410.7</ele>
        <time>2022-10-01T15:31:18Z</time>
      </trkpt>
      <trkpt lat="47.32093" lon="7.89541">
        <ele>410.7</ele>
        <time>2022-10-01T15:31:19Z</time>
      </trkpt>
      <trkpt lat="47.32096" lon="7.89541">
        <ele>410.7</ele>
        <time>2022-10-01T15:31:20Z</time>
      </trkpt>
      <trkpt lat="47.32099" lon="7.8954">
        <ele>410.7</ele>
        <time>2022-10-01T15:31:21Z</time>
      </trkpt>
      <trkpt lat="47.32102" lon="7.8954">
        <ele>410.7</ele>
        <time>2022-10-01T15:31:22Z</time>
      </trkpt>
      <trkpt lat="47.32105" lon="7.89539">
        <ele>410.6</ele>
        <time>2022-10-01T15:31:23Z</time>
      </trkpt>
      <trkpt lat="47.32108" lon="7.89539">
        <ele>410.5</ele>
        <time>2022-10-01T15:31:24Z</time>
      </trkpt>
      <trkpt lat="47.32111" lon="7.89538">
        <ele>410.4</ele>
        <time>2022-10-01T15:31:25Z</time>
      </trkpt>
      <trkpt lat="47.32115" lon="7.89537">
        <ele>410.3</ele>
        <time>2022-10-01T15:31:26Z</time>
      </trkpt>
      <trkpt lat="47.32119" lon="7.89537">
        <ele>410.1</ele>
        <time>2022-10-01T15:31:27Z</time>
      </trkpt>
      <trkpt lat="47.32124" lon="7.89537">
        <ele>409.8</ele>
        <time>2022-10-01T15:31:28Z</time>
      </trkpt>
      <trkpt lat="47.32128" lon="7.89537">
        <ele>409.5</ele>
        <time>2022-10-01T15:31:29Z</time>
      </trkpt>
      <trkpt lat="47.32133" lon="7.89537">
        <ele>409.3</ele>
        <time>2022-10-01T15:31:30Z</time>
      </trkpt>
      <trkpt lat="47.32136" lon="7.89538">
        <ele>409</ele>
        <time>2022-10-01T15:31:31Z</time>
      </trkpt>
      <trkpt lat="47.32141" lon="7.89539">
        <ele>408.8</ele>
        <time>2022-10-01T15:31:32Z</time>
      </trkpt>
      <trkpt lat="47.32144" lon="7.89539">
        <ele>408.6</ele>
        <time>2022-10-01T15:31:33Z</time>
      </trkpt>
      <trkpt lat="47.32148" lon="7.89538">
        <ele>408.3</ele>
        <time>2022-10-01T15:31:34Z</time>
      </trkpt>
      <trkpt lat="47.32149" lon="7.89538">
        <ele>408.2</ele>
        <time>2022-10-01T15:31:35Z</time>
      </trkpt>
      <trkpt lat="47.32152" lon="7.89538">
        <ele>408</ele>
        <time>2022-10-01T15:31:36Z</time>
      </trkpt>
      <trkpt lat="47.32153" lon="7.89537">
        <ele>408</ele>
        <time>2022-10-01T15:31:37Z</time>
      </trkpt>
      <trkpt lat="47.32156" lon="7.8954">
        <ele>407.7</ele>
        <time>2022-10-01T15:31:38Z</time>
      </trkpt>
      <trkpt lat="47.3216" lon="7.89541">
        <ele>407.5</ele>
        <time>2022-10-01T15:31:39Z</time>
      </trkpt>
      <trkpt lat="47.32163" lon="7.89541">
        <ele>407.2</ele>
        <time>2022-10-01T15:31:40Z</time>
      </trkpt>
      <trkpt lat="47.32168" lon="7.89542">
        <ele>406.9</ele>
        <time>2022-10-01T15:31:41Z</time>
      </trkpt>
      <trkpt lat="47.32174" lon="7.89542">
        <ele>406.3</ele>
        <time>2022-10-01T15:31:42Z</time>
      </trkpt>
      <trkpt lat="47.32179" lon="7.89543">
        <ele>406</ele>
        <time>2022-10-01T15:31:43Z</time>
      </trkpt>
      <trkpt lat="47.32185" lon="7.89545">
        <ele>405.5</ele>
        <time>2022-10-01T15:31:44Z</time>
      </trkpt>
      <trkpt lat="47.32191" lon="7.89544">
        <ele>405.1</ele>
        <time>2022-10-01T15:31:45Z</time>
      </trkpt>
      <trkpt lat="47.32197" lon="7.89546">
        <ele>404.6</ele>
        <time>2022-10-01T15:31:46Z</time>
      </trkpt>
      <trkpt lat="47.32204" lon="7.89546">
        <ele>404.1</ele>
        <time>2022-10-01T15:31:47Z</time>
      </trkpt>
      <trkpt lat="47.32212" lon="7.8955">
        <ele>403.4</ele>
        <time>2022-10-01T15:31:48Z</time>
      </trkpt>
      <trkpt lat="47.32218" lon="7.89552">
        <ele>403</ele>
        <time>2022-10-01T15:31:49Z</time>
      </trkpt>
      <trkpt lat="47.32226" lon="7.89547">
        <ele>402.5</ele>
        <time>2022-10-01T15:31:50Z</time>
      </trkpt>
      <trkpt lat="47.32232" lon="7.89548">
        <ele>402.1</ele>
        <time>2022-10-01T15:31:51Z</time>
      </trkpt>
      <trkpt lat="47.32239" lon="7.89548">
        <ele>401.7</ele>
        <time>2022-10-01T15:31:52Z</time>
      </trkpt>
      <trkpt lat="47.32245" lon="7.8955">
        <ele>401.4</ele>
        <time>2022-10-01T15:31:53Z</time>
      </trkpt>
      <trkpt lat="47.32254" lon="7.89551">
        <ele>401</ele>
        <time>2022-10-01T15:31:54Z</time>
      </trkpt>
      <trkpt lat="47.3226" lon="7.89552">
        <ele>400.8</ele>
        <time>2022-10-01T15:31:55Z</time>
      </trkpt>
      <trkpt lat="47.32266" lon="7.89552">
        <ele>400.6</ele>
        <time>2022-10-01T15:31:56Z</time>
      </trkpt>
      <trkpt lat="47.32272" lon="7.89553">
        <ele>400.4</ele>
        <time>2022-10-01T15:31:57Z</time>
      </trkpt>
      <trkpt lat="47.32278" lon="7.89554">
        <ele>400.3</ele>
        <time>2022-10-01T15:31:58Z</time>
      </trkpt>
      <trkpt lat="47.32284" lon="7.89555">
        <ele>400.1</ele>
        <time>2022-10-01T15:31:59Z</time>
      </trkpt>
      <trkpt lat="47.3229" lon="7.89555">
        <ele>400</ele>
        <time>2022-10-01T15:32:00Z</time>
      </trkpt>
      <trkpt lat="47.32294" lon="7.89556">
        <ele>399.9</ele>
        <time>2022-10-01T15:32:01Z</time>
      </trkpt>
      <trkpt lat="47.32299" lon="7.89557">
        <ele>399.8</ele>
        <time>2022-10-01T15:32:02Z</time>
      </trkpt>
      <trkpt lat="47.32304" lon="7.89556">
        <ele>399.7</ele>
        <time>2022-10-01T15:32:03Z</time>
      </trkpt>
      <trkpt lat="47.32308" lon="7.89555">
        <ele>399.7</ele>
        <time>2022-10-01T15:32:04Z</time>
      </trkpt>
      <trkpt lat="47.32313" lon="7.89555">
        <ele>399.6</ele>
        <time>2022-10-01T15:32:05Z</time>
      </trkpt>
      <trkpt lat="47.32318" lon="7.89557">
        <ele>399.4</ele>
        <time>2022-10-01T15:32:06Z</time>
      </trkpt>
      <trkpt lat="47.32323" lon="7.89555">
        <ele>399.3</ele>
        <time>2022-10-01T15:32:07Z</time>
      </trkpt>
      <trkpt lat="47.32329" lon="7.89556">
        <ele>399.2</ele>
        <time>2022-10-01T15:32:08Z</time>
      </trkpt>
      <trkpt lat="47.32334" lon="7.89554">
        <ele>399.1</ele>
        <time>2022-10-01T15:32:09Z</time>
      </trkpt>
      <trkpt lat="47.32341" lon="7.89554">
        <ele>398.9</ele>
        <time>2022-10-01T15:32:10Z</time>
      </trkpt>
      <trkpt lat="47.32346" lon="7.89553">
        <ele>398.8</ele>
        <time>2022-10-01T15:32:11Z</time>
      </trkpt>
      <trkpt lat="47.32351" lon="7.89552">
        <ele>398.7</ele>
        <time>2022-10-01T15:32:12Z</time>
      </trkpt>
      <trkpt lat="47.32356" lon="7.89552">
        <ele>398.6</ele>
        <time>2022-10-01T15:32:13Z</time>
      </trkpt>
      <trkpt lat="47.32363" lon="7.89553">
        <ele>398.4</ele>
        <time>2022-10-01T15:32:14Z</time>
      </trkpt>
      <trkpt lat="47.3237" lon="7.89553">
        <ele>398.3</ele>
        <time>2022-10-01T15:32:15Z</time>
      </trkpt>
      <trkpt lat="47.32376" lon="7.89553">
        <ele>398.2</ele>
        <time>2022-10-01T15:32:16Z</time>
      </trkpt>
      <trkpt lat="47.3238" lon="7.89552">
        <ele>398.1</ele>
        <time>2022-10-01T15:32:17Z</time>
      </trkpt>
      <trkpt lat="47.32384" lon="7.89552">
        <ele>398.1</ele>
        <time>2022-10-01T15:32:18Z</time>
      </trkpt>
      <trkpt lat="47.3239" lon="7.89552">
        <ele>398</ele>
        <time>2022-10-01T15:32:19Z</time>
      </trkpt>
      <trkpt lat="47.32395" lon="7.89552">
        <ele>398</ele>
        <time>2022-10-01T15:32:20Z</time>
      </trkpt>
      <trkpt lat="47.324" lon="7.89551">
        <ele>397.9</ele>
        <time>2022-10-01T15:32:21Z</time>
      </trkpt>
      <trkpt lat="47.32403" lon="7.89551">
        <ele>397.9</ele>
        <time>2022-10-01T15:32:22Z</time>
      </trkpt>
      <trkpt lat="47.32407" lon="7.89551">
        <ele>397.9</ele>
        <time>2022-10-01T15:32:23Z</time>
      </trkpt>
      <trkpt lat="47.32414" lon="7.89552">
        <ele>397.9</ele>
        <time>2022-10-01T15:32:24Z</time>
      </trkpt>
      <trkpt lat="47.3242" lon="7.89555">
        <ele>397.9</ele>
        <time>2022-10-01T15:32:25Z</time>
      </trkpt>
      <trkpt lat="47.32425" lon="7.89555">
        <ele>397.8</ele>
        <time>2022-10-01T15:32:26Z</time>
      </trkpt>
      <trkpt lat="47.32429" lon="7.89556">
        <ele>397.8</ele>
        <time>2022-10-01T15:32:27Z</time>
      </trkpt>
      <trkpt lat="47.32434" lon="7.89557">
        <ele>397.8</ele>
        <time>2022-10-01T15:32:28Z</time>
      </trkpt>
      <trkpt lat="47.32441" lon="7.89558">
        <ele>397.9</ele>
        <time>2022-10-01T15:32:29Z</time>
      </trkpt>
      <trkpt lat="47.32446" lon="7.89558">
        <ele>397.9</ele>
        <time>2022-10-01T15:32:30Z</time>
      </trkpt>
      <trkpt lat="47.3245" lon="7.89559">
        <ele>397.9</ele>
        <time>2022-10-01T15:32:31Z</time>
      </trkpt>
      <trkpt lat="47.32455" lon="7.89559">
        <ele>397.9</ele>
        <time>2022-10-01T15:32:32Z</time>
      </trkpt>
      <trkpt lat="47.32459" lon="7.8956">
        <ele>397.9</ele>
        <time>2022-10-01T15:32:33Z</time>
      </trkpt>
      <trkpt lat="47.32465" lon="7.89559">
        <ele>397.9</ele>
        <time>2022-10-01T15:32:34Z</time>
      </trkpt>
      <trkpt lat="47.32471" lon="7.89562">
        <ele>397.9</ele>
        <time>2022-10-01T15:32:35Z</time>
      </trkpt>
      <trkpt lat="47.32475" lon="7.89564">
        <ele>397.8</ele>
        <time>2022-10-01T15:32:36Z</time>
      </trkpt>
      <trkpt lat="47.3248" lon="7.89566">
        <ele>397.7</ele>
        <time>2022-10-01T15:32:37Z</time>
      </trkpt>
      <trkpt lat="47.32486" lon="7.89568">
        <ele>397.5</ele>
        <time>2022-10-01T15:32:38Z</time>
      </trkpt>
      <trkpt lat="47.3249" lon="7.8957">
        <ele>397.4</ele>
        <time>2022-10-01T15:32:39Z</time>
      </trkpt>
      <trkpt lat="47.32495" lon="7.8957">
        <ele>397.3</ele>
        <time>2022-10-01T15:32:40Z</time>
      </trkpt>
      <trkpt lat="47.325" lon="7.89571">
        <ele>397.1</ele>
        <time>2022-10-01T15:32:41Z</time>
      </trkpt>
      <trkpt lat="47.32506" lon="7.89571">
        <ele>396.9</ele>
        <time>2022-10-01T15:32:42Z</time>
      </trkpt>
      <trkpt lat="47.32512" lon="7.89574">
        <ele>396.7</ele>
        <time>2022-10-01T15:32:43Z</time>
      </trkpt>
      <trkpt lat="47.3252" lon="7.89574">
        <ele>396.5</ele>
        <time>2022-10-01T15:32:44Z</time>
      </trkpt>
      <trkpt lat="47.32526" lon="7.89576">
        <ele>396.3</ele>
        <time>2022-10-01T15:32:45Z</time>
      </trkpt>
      <trkpt lat="47.32532" lon="7.89577">
        <ele>396.2</ele>
        <time>2022-10-01T15:32:46Z</time>
      </trkpt>
      <trkpt lat="47.32538" lon="7.89579">
        <ele>396.1</ele>
        <time>2022-10-01T15:32:47Z</time>
      </trkpt>
      <trkpt lat="47.32544" lon="7.89579">
        <ele>395.9</ele>
        <time>2022-10-01T15:32:48Z</time>
      </trkpt>
      <trkpt lat="47.32548" lon="7.89578">
        <ele>395.9</ele>
        <time>2022-10-01T15:32:49Z</time>
      </trkpt>
      <trkpt lat="47.32554" lon="7.8958">
        <ele>395.8</ele>
        <time>2022-10-01T15:32:50Z</time>
      </trkpt>
      <trkpt lat="47.32559" lon="7.89582">
        <ele>395.7</ele>
        <time>2022-10-01T15:32:51Z</time>
      </trkpt>
      <trkpt lat="47.32565" lon="7.89583">
        <ele>395.7</ele>
        <time>2022-10-01T15:32:52Z</time>
      </trkpt>
      <trkpt lat="47.32572" lon="7.89586">
        <ele>395.6</ele>
        <time>2022-10-01T15:32:53Z</time>
      </trkpt>
      <trkpt lat="47.32578" lon="7.89587">
        <ele>395.6</ele>
        <time>2022-10-01T15:32:54Z</time>
      </trkpt>
      <trkpt lat="47.32583" lon="7.89587">
        <ele>395.6</ele>
        <time>2022-10-01T15:32:55Z</time>
      </trkpt>
      <trkpt lat="47.32588" lon="7.89588">
        <ele>395.5</ele>
        <time>2022-10-01T15:32:56Z</time>
      </trkpt>
      <trkpt lat="47.32594" lon="7.89589">
        <ele>395.5</ele>
        <time>2022-10-01T15:32:57Z</time>
      </trkpt>
      <trkpt lat="47.326" lon="7.8959">
        <ele>395.5</ele>
        <time>2022-10-01T15:32:58Z</time>
      </trkpt>
      <trkpt lat="47.32605" lon="7.89589">
        <ele>395.5</ele>
        <time>2022-10-01T15:32:59Z</time>
      </trkpt>
      <trkpt lat="47.32609" lon="7.89589">
        <ele>395.5</ele>
        <time>2022-10-01T15:33:00Z</time>
      </trkpt>
      <trkpt lat="47.32613" lon="7.8959">
        <ele>395.6</ele>
        <time>2022-10-01T15:33:01Z</time>
      </trkpt>
      <trkpt lat="47.32619" lon="7.89592">
        <ele>395.6</ele>
        <time>2022-10-01T15:33:02Z</time>
      </trkpt>
      <trkpt lat="47.32626" lon="7.89593">
        <ele>395.6</ele>
        <time>2022-10-01T15:33:03Z</time>
      </trkpt>
      <trkpt lat="47.3263" lon="7.89593">
        <ele>395.6</ele>
        <time>2022-10-01T15:33:04Z</time>
      </trkpt>
      <trkpt lat="47.32637" lon="7.89595">
        <ele>395.5</ele>
        <time>2022-10-01T15:33:05Z</time>
      </trkpt>
      <trkpt lat="47.32643" lon="7.89596">
        <ele>395.5</ele>
        <time>2022-10-01T15:33:06Z</time>
      </trkpt>
      <trkpt lat="47.32649" lon="7.89597">
        <ele>395.6</ele>
        <time>2022-10-01T15:33:07Z</time>
      </trkpt>
      <trkpt lat="47.32655" lon="7.89598">
        <ele>395.6</ele>
        <time>2022-10-01T15:33:08Z</time>
      </trkpt>
      <trkpt lat="47.32659" lon="7.89597">
        <ele>395.6</ele>
        <time>2022-10-01T15:33:09Z</time>
      </trkpt>
      <trkpt lat="47.32665" lon="7.89598">
        <ele>395.6</ele>
        <time>2022-10-01T15:33:10Z</time>
      </trkpt>
      <trkpt lat="47.32671" lon="7.89599">
        <ele>395.6</ele>
        <time>2022-10-01T15:33:11Z</time>
      </trkpt>
      <trkpt lat="47.32676" lon="7.89599">
        <ele>395.6</ele>
        <time>2022-10-01T15:33:12Z</time>
      </trkpt>
      <trkpt lat="47.32681" lon="7.89601">
        <ele>395.7</ele>
        <time>2022-10-01T15:33:13Z</time>
      </trkpt>
      <trkpt lat="47.32687" lon="7.89603">
        <ele>395.7</ele>
        <time>2022-10-01T15:33:14Z</time>
      </trkpt>
      <trkpt lat="47.3269" lon="7.89603">
        <ele>395.7</ele>
        <time>2022-10-01T15:33:15Z</time>
      </trkpt>
      <trkpt lat="47.32697" lon="7.89604">
        <ele>395.7</ele>
        <time>2022-10-01T15:33:16Z</time>
      </trkpt>
      <trkpt lat="47.32703" lon="7.89606">
        <ele>395.7</ele>
        <time>2022-10-01T15:33:17Z</time>
      </trkpt>
      <trkpt lat="47.32708" lon="7.89608">
        <ele>395.7</ele>
        <time>2022-10-01T15:33:18Z</time>
      </trkpt>
      <trkpt lat="47.32713" lon="7.89608">
        <ele>395.7</ele>
        <time>2022-10-01T15:33:19Z</time>
      </trkpt>
      <trkpt lat="47.32717" lon="7.89608">
        <ele>395.7</ele>
        <time>2022-10-01T15:33:20Z</time>
      </trkpt>
      <trkpt lat="47.32721" lon="7.89609">
        <ele>395.7</ele>
        <time>2022-10-01T15:33:21Z</time>
      </trkpt>
      <trkpt lat="47.32725" lon="7.89611">
        <ele>395.8</ele>
        <time>2022-10-01T15:33:22Z</time>
      </trkpt>
      <trkpt lat="47.32729" lon="7.89613">
        <ele>395.8</ele>
        <time>2022-10-01T15:33:23Z</time>
      </trkpt>
      <trkpt lat="47.32733" lon="7.89613">
        <ele>395.9</ele>
        <time>2022-10-01T15:33:24Z</time>
      </trkpt>
      <trkpt lat="47.32738" lon="7.89615">
        <ele>395.9</ele>
        <time>2022-10-01T15:33:25Z</time>
      </trkpt>
      <trkpt lat="47.32744" lon="7.89619">
        <ele>396.1</ele>
        <time>2022-10-01T15:33:26Z</time>
      </trkpt>
      <trkpt lat="47.32749" lon="7.89621">
        <ele>396.2</ele>
        <time>2022-10-01T15:33:27Z</time>
      </trkpt>
      <trkpt lat="47.32755" lon="7.89623">
        <ele>396.3</ele>
        <time>2022-10-01T15:33:28Z</time>
      </trkpt>
      <trkpt lat="47.32758" lon="7.89624">
        <ele>396.4</ele>
        <time>2022-10-01T15:33:29Z</time>
      </trkpt>
      <trkpt lat="47.32763" lon="7.89625">
        <ele>396.5</ele>
        <time>2022-10-01T15:33:30Z</time>
      </trkpt>
      <trkpt lat="47.32767" lon="7.89625">
        <ele>396.6</ele>
        <time>2022-10-01T15:33:31Z</time>
      </trkpt>
      <trkpt lat="47.32769" lon="7.89625">
        <ele>396.6</ele>
        <time>2022-10-01T15:33:32Z</time>
      </trkpt>
      <trkpt lat="47.32773" lon="7.89628">
        <ele>396.7</ele>
        <time>2022-10-01T15:33:33Z</time>
      </trkpt>
      <trkpt lat="47.32776" lon="7.89629">
        <ele>396.8</ele>
        <time>2022-10-01T15:33:34Z</time>
      </trkpt>
      <trkpt lat="47.32782" lon="7.89632">
        <ele>396.9</ele>
        <time>2022-10-01T15:33:35Z</time>
      </trkpt>
      <trkpt lat="47.32786" lon="7.89633">
        <ele>397</ele>
        <time>2022-10-01T15:33:36Z</time>
      </trkpt>
      <trkpt lat="47.32789" lon="7.89634">
        <ele>397</ele>
        <time>2022-10-01T15:33:37Z</time>
      </trkpt>
      <trkpt lat="47.32793" lon="7.89637">
        <ele>397</ele>
        <time>2022-10-01T15:33:38Z</time>
      </trkpt>
      <trkpt lat="47.32796" lon="7.89639">
        <ele>397.1</ele>
        <time>2022-10-01T15:33:39Z</time>
      </trkpt>
      <trkpt lat="47.32799" lon="7.89639">
        <ele>397.1</ele>
        <time>2022-10-01T15:33:40Z</time>
      </trkpt>
      <trkpt lat="47.32803" lon="7.89639">
        <ele>397.1</ele>
        <time>2022-10-01T15:33:41Z</time>
      </trkpt>
      <trkpt lat="47.32806" lon="7.89641">
        <ele>397</ele>
        <time>2022-10-01T15:33:42Z</time>
      </trkpt>
      <trkpt lat="47.3281" lon="7.89644">
        <ele>397</ele>
        <time>2022-10-01T15:33:43Z</time>
      </trkpt>
      <trkpt lat="47.32814" lon="7.89647">
        <ele>396.9</ele>
        <time>2022-10-01T15:33:44Z</time>
      </trkpt>
      <trkpt lat="47.32818" lon="7.8965">
        <ele>396.8</ele>
        <time>2022-10-01T15:33:45Z</time>
      </trkpt>
      <trkpt lat="47.32821" lon="7.89653">
        <ele>396.8</ele>
        <time>2022-10-01T15:33:46Z</time>
      </trkpt>
      <trkpt lat="47.32826" lon="7.89657">
        <ele>396.6</ele>
        <time>2022-10-01T15:33:47Z</time>
      </trkpt>
      <trkpt lat="47.32832" lon="7.89661">
        <ele>396.5</ele>
        <time>2022-10-01T15:33:48Z</time>
      </trkpt>
      <trkpt lat="47.32837" lon="7.89665">
        <ele>396.3</ele>
        <time>2022-10-01T15:33:49Z</time>
      </trkpt>
      <trkpt lat="47.32842" lon="7.8967">
        <ele>396.2</ele>
        <time>2022-10-01T15:33:50Z</time>
      </trkpt>
      <trkpt lat="47.32846" lon="7.89675">
        <ele>396</ele>
        <time>2022-10-01T15:33:51Z</time>
      </trkpt>
      <trkpt lat="47.32853" lon="7.89678">
        <ele>395.9</ele>
        <time>2022-10-01T15:33:52Z</time>
      </trkpt>
      <trkpt lat="47.32859" lon="7.89682">
        <ele>395.7</ele>
        <time>2022-10-01T15:33:53Z</time>
      </trkpt>
      <trkpt lat="47.32865" lon="7.8969">
        <ele>395.6</ele>
        <time>2022-10-01T15:33:54Z</time>
      </trkpt>
      <trkpt lat="47.32867" lon="7.89695">
        <ele>395.5</ele>
        <time>2022-10-01T15:33:55Z</time>
      </trkpt>
      <trkpt lat="47.32871" lon="7.89699">
        <ele>395.5</ele>
        <time>2022-10-01T15:33:56Z</time>
      </trkpt>
      <trkpt lat="47.32875" lon="7.89702">
        <ele>395.4</ele>
        <time>2022-10-01T15:33:57Z</time>
      </trkpt>
      <trkpt lat="47.32878" lon="7.89707">
        <ele>395.4</ele>
        <time>2022-10-01T15:33:58Z</time>
      </trkpt>
      <trkpt lat="47.32883" lon="7.89712">
        <ele>395.3</ele>
        <time>2022-10-01T15:33:59Z</time>
      </trkpt>
      <trkpt lat="47.32888" lon="7.89717">
        <ele>395.3</ele>
        <time>2022-10-01T15:34:00Z</time>
      </trkpt>
      <trkpt lat="47.32892" lon="7.89722">
        <ele>395.2</ele>
        <time>2022-10-01T15:34:01Z</time>
      </trkpt>
      <trkpt lat="47.32896" lon="7.89725">
        <ele>395.2</ele>
        <time>2022-10-01T15:34:02Z</time>
      </trkpt>
      <trkpt lat="47.32899" lon="7.89727">
        <ele>395.2</ele>
        <time>2022-10-01T15:34:03Z</time>
      </trkpt>
      <trkpt lat="47.32906" lon="7.89731">
        <ele>395.2</ele>
        <time>2022-10-01T15:34:04Z</time>
      </trkpt>
      <trkpt lat="47.32912" lon="7.89737">
        <ele>395.2</ele>
        <time>2022-10-01T15:34:05Z</time>
      </trkpt>
      <trkpt lat="47.32918" lon="7.89741">
        <ele>395.1</ele>
        <time>2022-10-01T15:34:06Z</time>
      </trkpt>
      <trkpt lat="47.32924" lon="7.89744">
        <ele>395.1</ele>
        <time>2022-10-01T15:34:07Z</time>
      </trkpt>
      <trkpt lat="47.32929" lon="7.89746">
        <ele>395.1</ele>
        <time>2022-10-01T15:34:08Z</time>
      </trkpt>
      <trkpt lat="47.32933" lon="7.89748">
        <ele>395.1</ele>
        <time>2022-10-01T15:34:09Z</time>
      </trkpt>
      <trkpt lat="47.32936" lon="7.8975">
        <ele>395.1</ele>
        <time>2022-10-01T15:34:10Z</time>
      </trkpt>
      <trkpt lat="47.32941" lon="7.89752">
        <ele>395.1</ele>
        <time>2022-10-01T15:34:11Z</time>
      </trkpt>
      <trkpt lat="47.32947" lon="7.89756">
        <ele>395.1</ele>
        <time>2022-10-01T15:34:12Z</time>
      </trkpt>
      <trkpt lat="47.32952" lon="7.8976">
        <ele>395.1</ele>
        <time>2022-10-01T15:34:13Z</time>
      </trkpt>
      <trkpt lat="47.32958" lon="7.89762">
        <ele>395.1</ele>
        <time>2022-10-01T15:34:14Z</time>
      </trkpt>
      <trkpt lat="47.32963" lon="7.89765">
        <ele>395.1</ele>
        <time>2022-10-01T15:34:15Z</time>
      </trkpt>
      <trkpt lat="47.32968" lon="7.89768">
        <ele>395.2</ele>
        <time>2022-10-01T15:34:16Z</time>
      </trkpt>
      <trkpt lat="47.32974" lon="7.8977">
        <ele>395.3</ele>
        <time>2022-10-01T15:34:17Z</time>
      </trkpt>
      <trkpt lat="47.32979" lon="7.89771">
        <ele>395.4</ele>
        <time>2022-10-01T15:34:18Z</time>
      </trkpt>
      <trkpt lat="47.32983" lon="7.89774">
        <ele>395.4</ele>
        <time>2022-10-01T15:34:19Z</time>
      </trkpt>
      <trkpt lat="47.32988" lon="7.89777">
        <ele>395.6</ele>
        <time>2022-10-01T15:34:20Z</time>
      </trkpt>
      <trkpt lat="47.32993" lon="7.89778">
        <ele>395.7</ele>
        <time>2022-10-01T15:34:21Z</time>
      </trkpt>
      <trkpt lat="47.32997" lon="7.89779">
        <ele>395.7</ele>
        <time>2022-10-01T15:34:22Z</time>
      </trkpt>
      <trkpt lat="47.33002" lon="7.89782">
        <ele>395.8</ele>
        <time>2022-10-01T15:34:23Z</time>
      </trkpt>
      <trkpt lat="47.33007" lon="7.89786">
        <ele>396</ele>
        <time>2022-10-01T15:34:24Z</time>
      </trkpt>
      <trkpt lat="47.3301" lon="7.8979">
        <ele>396.1</ele>
        <time>2022-10-01T15:34:25Z</time>
      </trkpt>
      <trkpt lat="47.33015" lon="7.89793">
        <ele>396.2</ele>
        <time>2022-10-01T15:34:26Z</time>
      </trkpt>
      <trkpt lat="47.33019" lon="7.89796">
        <ele>396.3</ele>
        <time>2022-10-01T15:34:27Z</time>
      </trkpt>
      <trkpt lat="47.33023" lon="7.89799">
        <ele>396.4</ele>
        <time>2022-10-01T15:34:28Z</time>
      </trkpt>
      <trkpt lat="47.33026" lon="7.89801">
        <ele>396.5</ele>
        <time>2022-10-01T15:34:29Z</time>
      </trkpt>
      <trkpt lat="47.3303" lon="7.89804">
        <ele>396.6</ele>
        <time>2022-10-01T15:34:30Z</time>
      </trkpt>
      <trkpt lat="47.33034" lon="7.89806">
        <ele>396.7</ele>
        <time>2022-10-01T15:34:31Z</time>
      </trkpt>
      <trkpt lat="47.33038" lon="7.89808">
        <ele>396.7</ele>
        <time>2022-10-01T15:34:32Z</time>
      </trkpt>
      <trkpt lat="47.33042" lon="7.89812">
        <ele>396.8</ele>
        <time>2022-10-01T15:34:33Z</time>
      </trkpt>
      <trkpt lat="47.33046" lon="7.89815">
        <ele>396.9</ele>
        <time>2022-10-01T15:34:34Z</time>
      </trkpt>
      <trkpt lat="47.3305" lon="7.89818">
        <ele>396.9</ele>
        <time>2022-10-01T15:34:35Z</time>
      </trkpt>
      <trkpt lat="47.33053" lon="7.89821">
        <ele>397</ele>
        <time>2022-10-01T15:34:36Z</time>
      </trkpt>
      <trkpt lat="47.33059" lon="7.89825">
        <ele>397</ele>
        <time>2022-10-01T15:34:37Z</time>
      </trkpt>
      <trkpt lat="47.33065" lon="7.89829">
        <ele>397.1</ele>
        <time>2022-10-01T15:34:38Z</time>
      </trkpt>
      <trkpt lat="47.33068" lon="7.89833">
        <ele>397.1</ele>
        <time>2022-10-01T15:34:39Z</time>
      </trkpt>
      <trkpt lat="47.33073" lon="7.89836">
        <ele>397.2</ele>
        <time>2022-10-01T15:34:40Z</time>
      </trkpt>
      <trkpt lat="47.33077" lon="7.8984">
        <ele>397.2</ele>
        <time>2022-10-01T15:34:41Z</time>
      </trkpt>
      <trkpt lat="47.33081" lon="7.89842">
        <ele>397.2</ele>
        <time>2022-10-01T15:34:42Z</time>
      </trkpt>
      <trkpt lat="47.33086" lon="7.89847">
        <ele>397.3</ele>
        <time>2022-10-01T15:34:43Z</time>
      </trkpt>
      <trkpt lat="47.33092" lon="7.89851">
        <ele>397.3</ele>
        <time>2022-10-01T15:34:44Z</time>
      </trkpt>
      <trkpt lat="47.33095" lon="7.89853">
        <ele>397.3</ele>
        <time>2022-10-01T15:34:45Z</time>
      </trkpt>
      <trkpt lat="47.33099" lon="7.89855">
        <ele>397.4</ele>
        <time>2022-10-01T15:34:46Z</time>
      </trkpt>
      <trkpt lat="47.33104" lon="7.89859">
        <ele>397.4</ele>
        <time>2022-10-01T15:34:47Z</time>
      </trkpt>
      <trkpt lat="47.33109" lon="7.89862">
        <ele>397.5</ele>
        <time>2022-10-01T15:34:48Z</time>
      </trkpt>
      <trkpt lat="47.33112" lon="7.89866">
        <ele>397.5</ele>
        <time>2022-10-01T15:34:49Z</time>
      </trkpt>
      <trkpt lat="47.33117" lon="7.8987">
        <ele>397.6</ele>
        <time>2022-10-01T15:34:50Z</time>
      </trkpt>
      <trkpt lat="47.33122" lon="7.89873">
        <ele>397.6</ele>
        <time>2022-10-01T15:34:51Z</time>
      </trkpt>
      <trkpt lat="47.33126" lon="7.89877">
        <ele>397.6</ele>
        <time>2022-10-01T15:34:52Z</time>
      </trkpt>
      <trkpt lat="47.3313" lon="7.8988">
        <ele>397.6</ele>
        <time>2022-10-01T15:34:53Z</time>
      </trkpt>
      <trkpt lat="47.33134" lon="7.89884">
        <ele>397.7</ele>
        <time>2022-10-01T15:34:54Z</time>
      </trkpt>
      <trkpt lat="47.33138" lon="7.89888">
        <ele>397.7</ele>
        <time>2022-10-01T15:34:55Z</time>
      </trkpt>
      <trkpt lat="47.33143" lon="7.89892">
        <ele>397.7</ele>
        <time>2022-10-01T15:34:56Z</time>
      </trkpt>
      <trkpt lat="47.33147" lon="7.89895">
        <ele>397.7</ele>
        <time>2022-10-01T15:34:57Z</time>
      </trkpt>
      <trkpt lat="47.33151" lon="7.89899">
        <ele>397.7</ele>
        <time>2022-10-01T15:34:58Z</time>
      </trkpt>
      <trkpt lat="47.33155" lon="7.89902">
        <ele>397.7</ele>
        <time>2022-10-01T15:34:59Z</time>
      </trkpt>
      <trkpt lat="47.33159" lon="7.89906">
        <ele>397.8</ele>
        <time>2022-10-01T15:35:00Z</time>
      </trkpt>
      <trkpt lat="47.3316" lon="7.89907">
        <ele>397.8</ele>
        <time>2022-10-01T15:35:01Z</time>
      </trkpt>
      <trkpt lat="47.33166" lon="7.89911">
        <ele>397.8</ele>
        <time>2022-10-01T15:35:02Z</time>
      </trkpt>
      <trkpt lat="47.3317" lon="7.89915">
        <ele>397.8</ele>
        <time>2022-10-01T15:35:03Z</time>
      </trkpt>
      <trkpt lat="47.33174" lon="7.89919">
        <ele>397.7</ele>
        <time>2022-10-01T15:35:04Z</time>
      </trkpt>
      <trkpt lat="47.33178" lon="7.89922">
        <ele>397.7</ele>
        <time>2022-10-01T15:35:05Z</time>
      </trkpt>
      <trkpt lat="47.33182" lon="7.89925">
        <ele>397.7</ele>
        <time>2022-10-01T15:35:06Z</time>
      </trkpt>
      <trkpt lat="47.33186" lon="7.89929">
        <ele>397.7</ele>
        <time>2022-10-01T15:35:07Z</time>
      </trkpt>
      <trkpt lat="47.33191" lon="7.89933">
        <ele>397.7</ele>
        <time>2022-10-01T15:35:08Z</time>
      </trkpt>
      <trkpt lat="47.33196" lon="7.89938">
        <ele>397.7</ele>
        <time>2022-10-01T15:35:09Z</time>
      </trkpt>
      <trkpt lat="47.33201" lon="7.89942">
        <ele>397.7</ele>
        <time>2022-10-01T15:35:10Z</time>
      </trkpt>
      <trkpt lat="47.33204" lon="7.89944">
        <ele>397.7</ele>
        <time>2022-10-01T15:35:11Z</time>
      </trkpt>
      <trkpt lat="47.33208" lon="7.89949">
        <ele>397.7</ele>
        <time>2022-10-01T15:35:12Z</time>
      </trkpt>
      <trkpt lat="47.33212" lon="7.89952">
        <ele>397.7</ele>
        <time>2022-10-01T15:35:13Z</time>
      </trkpt>
      <trkpt lat="47.33216" lon="7.89954">
        <ele>397.8</ele>
        <time>2022-10-01T15:35:14Z</time>
      </trkpt>
      <trkpt lat="47.33221" lon="7.89958">
        <ele>397.8</ele>
        <time>2022-10-01T15:35:15Z</time>
      </trkpt>
      <trkpt lat="47.33225" lon="7.89962">
        <ele>397.8</ele>
        <time>2022-10-01T15:35:16Z</time>
      </trkpt>
      <trkpt lat="47.33229" lon="7.89966">
        <ele>397.8</ele>
        <time>2022-10-01T15:35:17Z</time>
      </trkpt>
      <trkpt lat="47.33233" lon="7.89968">
        <ele>397.8</ele>
        <time>2022-10-01T15:35:18Z</time>
      </trkpt>
      <trkpt lat="47.33237" lon="7.89971">
        <ele>397.8</ele>
        <time>2022-10-01T15:35:19Z</time>
      </trkpt>
      <trkpt lat="47.33244" lon="7.89976">
        <ele>397.7</ele>
        <time>2022-10-01T15:35:20Z</time>
      </trkpt>
      <trkpt lat="47.33249" lon="7.89981">
        <ele>397.7</ele>
        <time>2022-10-01T15:35:21Z</time>
      </trkpt>
      <trkpt lat="47.33254" lon="7.89986">
        <ele>397.7</ele>
        <time>2022-10-01T15:35:22Z</time>
      </trkpt>
      <trkpt lat="47.33259" lon="7.8999">
        <ele>397.7</ele>
        <time>2022-10-01T15:35:23Z</time>
      </trkpt>
      <trkpt lat="47.33263" lon="7.89994">
        <ele>397.7</ele>
        <time>2022-10-01T15:35:24Z</time>
      </trkpt>
      <trkpt lat="47.33267" lon="7.89998">
        <ele>397.7</ele>
        <time>2022-10-01T15:35:25Z</time>
      </trkpt>
      <trkpt lat="47.33273" lon="7.90003">
        <ele>397.7</ele>
        <time>2022-10-01T15:35:26Z</time>
      </trkpt>
      <trkpt lat="47.33278" lon="7.90007">
        <ele>397.7</ele>
        <time>2022-10-01T15:35:27Z</time>
      </trkpt>
      <trkpt lat="47.33282" lon="7.90012">
        <ele>397.6</ele>
        <time>2022-10-01T15:35:28Z</time>
      </trkpt>
      <trkpt lat="47.33286" lon="7.90016">
        <ele>397.6</ele>
        <time>2022-10-01T15:35:29Z</time>
      </trkpt>
      <trkpt lat="47.33291" lon="7.9002">
        <ele>397.6</ele>
        <time>2022-10-01T15:35:30Z</time>
      </trkpt>
      <trkpt lat="47.33295" lon="7.90024">
        <ele>397.6</ele>
        <time>2022-10-01T15:35:31Z</time>
      </trkpt>
      <trkpt lat="47.33299" lon="7.90027">
        <ele>397.6</ele>
        <time>2022-10-01T15:35:32Z</time>
      </trkpt>
      <trkpt lat="47.33303" lon="7.90031">
        <ele>397.6</ele>
        <time>2022-10-01T15:35:33Z</time>
      </trkpt>
      <trkpt lat="47.33308" lon="7.90034">
        <ele>397.6</ele>
        <time>2022-10-01T15:35:34Z</time>
      </trkpt>
      <trkpt lat="47.33313" lon="7.9004">
        <ele>397.5</ele>
        <time>2022-10-01T15:35:35Z</time>
      </trkpt>
      <trkpt lat="47.33319" lon="7.90045">
        <ele>397.5</ele>
        <time>2022-10-01T15:35:36Z</time>
      </trkpt>
      <trkpt lat="47.33324" lon="7.90051">
        <ele>397.5</ele>
        <time>2022-10-01T15:35:37Z</time>
      </trkpt>
      <trkpt lat="47.33329" lon="7.90055">
        <ele>397.4</ele>
        <time>2022-10-01T15:35:38Z</time>
      </trkpt>
      <trkpt lat="47.33332" lon="7.90057">
        <ele>397.4</ele>
        <time>2022-10-01T15:35:39Z</time>
      </trkpt>
      <trkpt lat="47.33335" lon="7.90059">
        <ele>397.4</ele>
        <time>2022-10-01T15:35:40Z</time>
      </trkpt>
      <trkpt lat="47.3334" lon="7.90063">
        <ele>397.4</ele>
        <time>2022-10-01T15:35:41Z</time>
      </trkpt>
      <trkpt lat="47.33346" lon="7.90067">
        <ele>397.4</ele>
        <time>2022-10-01T15:35:42Z</time>
      </trkpt>
      <trkpt lat="47.33351" lon="7.90072">
        <ele>397.4</ele>
        <time>2022-10-01T15:35:43Z</time>
      </trkpt>
      <trkpt lat="47.33355" lon="7.90076">
        <ele>397.4</ele>
        <time>2022-10-01T15:35:44Z</time>
      </trkpt>
      <trkpt lat="47.3336" lon="7.90079">
        <ele>397.4</ele>
        <time>2022-10-01T15:35:45Z</time>
      </trkpt>
      <trkpt lat="47.33365" lon="7.90083">
        <ele>397.4</ele>
        <time>2022-10-01T15:35:46Z</time>
      </trkpt>
      <trkpt lat="47.33369" lon="7.90087">
        <ele>397.4</ele>
        <time>2022-10-01T15:35:47Z</time>
      </trkpt>
      <trkpt lat="47.33375" lon="7.90092">
        <ele>397.3</ele>
        <time>2022-10-01T15:35:48Z</time>
      </trkpt>
      <trkpt lat="47.33381" lon="7.90096">
        <ele>397.3</ele>
        <time>2022-10-01T15:35:49Z</time>
      </trkpt>
      <trkpt lat="47.33386" lon="7.901">
        <ele>397.3</ele>
        <time>2022-10-01T15:35:50Z</time>
      </trkpt>
      <trkpt lat="47.33391" lon="7.90104">
        <ele>397.2</ele>
        <time>2022-10-01T15:35:51Z</time>
      </trkpt>
      <trkpt lat="47.33397" lon="7.90109">
        <ele>397.2</ele>
        <time>2022-10-01T15:35:52Z</time>
      </trkpt>
      <trkpt lat="47.33401" lon="7.90112">
        <ele>397.2</ele>
        <time>2022-10-01T15:35:53Z</time>
      </trkpt>
      <trkpt lat="47.33406" lon="7.90116">
        <ele>397.2</ele>
        <time>2022-10-01T15:35:54Z</time>
      </trkpt>
      <trkpt lat="47.33411" lon="7.90121">
        <ele>397.2</ele>
        <time>2022-10-01T15:35:55Z</time>
      </trkpt>
      <trkpt lat="47.33416" lon="7.90125">
        <ele>397.2</ele>
        <time>2022-10-01T15:35:56Z</time>
      </trkpt>
      <trkpt lat="47.33421" lon="7.90128">
        <ele>397.2</ele>
        <time>2022-10-01T15:35:57Z</time>
      </trkpt>
      <trkpt lat="47.33426" lon="7.90132">
        <ele>397.3</ele>
        <time>2022-10-01T15:35:58Z</time>
      </trkpt>
      <trkpt lat="47.3343" lon="7.90136">
        <ele>397.3</ele>
        <time>2022-10-01T15:35:59Z</time>
      </trkpt>
      <trkpt lat="47.33434" lon="7.90141">
        <ele>397.3</ele>
        <time>2022-10-01T15:36:00Z</time>
      </trkpt>
      <trkpt lat="47.3344" lon="7.90145">
        <ele>397.3</ele>
        <time>2022-10-01T15:36:01Z</time>
      </trkpt>
      <trkpt lat="47.33443" lon="7.90148">
        <ele>397.3</ele>
        <time>2022-10-01T15:36:02Z</time>
      </trkpt>
      <trkpt lat="47.33447" lon="7.90151">
        <ele>397.3</ele>
        <time>2022-10-01T15:36:03Z</time>
      </trkpt>
      <trkpt lat="47.33452" lon="7.90155">
        <ele>397.3</ele>
        <time>2022-10-01T15:36:04Z</time>
      </trkpt>
      <trkpt lat="47.33458" lon="7.90161">
        <ele>397.3</ele>
        <time>2022-10-01T15:36:05Z</time>
      </trkpt>
      <trkpt lat="47.33462" lon="7.90164">
        <ele>397.2</ele>
        <time>2022-10-01T15:36:06Z</time>
      </trkpt>
      <trkpt lat="47.33468" lon="7.90169">
        <ele>397.2</ele>
        <time>2022-10-01T15:36:07Z</time>
      </trkpt>
      <trkpt lat="47.33474" lon="7.90174">
        <ele>397.2</ele>
        <time>2022-10-01T15:36:08Z</time>
      </trkpt>
      <trkpt lat="47.33479" lon="7.90178">
        <ele>397.2</ele>
        <time>2022-10-01T15:36:09Z</time>
      </trkpt>
      <trkpt lat="47.33483" lon="7.90183">
        <ele>397.2</ele>
        <time>2022-10-01T15:36:10Z</time>
      </trkpt>
      <trkpt lat="47.33489" lon="7.90186">
        <ele>397.2</ele>
        <time>2022-10-01T15:36:11Z</time>
      </trkpt>
      <trkpt lat="47.33494" lon="7.90191">
        <ele>397.2</ele>
        <time>2022-10-01T15:36:12Z</time>
      </trkpt>
      <trkpt lat="47.33499" lon="7.90194">
        <ele>397.2</ele>
        <time>2022-10-01T15:36:13Z</time>
      </trkpt>
      <trkpt lat="47.33504" lon="7.90199">
        <ele>397.2</ele>
        <time>2022-10-01T15:36:14Z</time>
      </trkpt>
      <trkpt lat="47.33508" lon="7.90203">
        <ele>397.1</ele>
        <time>2022-10-01T15:36:15Z</time>
      </trkpt>
      <trkpt lat="47.33513" lon="7.90208">
        <ele>397.1</ele>
        <time>2022-10-01T15:36:16Z</time>
      </trkpt>
      <trkpt lat="47.33518" lon="7.90212">
        <ele>397.1</ele>
        <time>2022-10-01T15:36:17Z</time>
      </trkpt>
      <trkpt lat="47.33523" lon="7.90215">
        <ele>397.1</ele>
        <time>2022-10-01T15:36:18Z</time>
      </trkpt>
      <trkpt lat="47.33527" lon="7.90219">
        <ele>397.1</ele>
        <time>2022-10-01T15:36:19Z</time>
      </trkpt>
      <trkpt lat="47.33532" lon="7.90223">
        <ele>397</ele>
        <time>2022-10-01T15:36:20Z</time>
      </trkpt>
      <trkpt lat="47.33537" lon="7.90227">
        <ele>397</ele>
        <time>2022-10-01T15:36:21Z</time>
      </trkpt>
      <trkpt lat="47.33541" lon="7.90231">
        <ele>397</ele>
        <time>2022-10-01T15:36:22Z</time>
      </trkpt>
      <trkpt lat="47.33547" lon="7.90236">
        <ele>397</ele>
        <time>2022-10-01T15:36:23Z</time>
      </trkpt>
      <trkpt lat="47.33552" lon="7.90241">
        <ele>397</ele>
        <time>2022-10-01T15:36:24Z</time>
      </trkpt>
      <trkpt lat="47.33556" lon="7.90245">
        <ele>396.9</ele>
        <time>2022-10-01T15:36:25Z</time>
      </trkpt>
      <trkpt lat="47.33562" lon="7.9025">
        <ele>396.9</ele>
        <time>2022-10-01T15:36:26Z</time>
      </trkpt>
      <trkpt lat="47.33567" lon="7.90255">
        <ele>396.8</ele>
        <time>2022-10-01T15:36:27Z</time>
      </trkpt>
      <trkpt lat="47.33572" lon="7.9026">
        <ele>396.8</ele>
        <time>2022-10-01T15:36:28Z</time>
      </trkpt>
      <trkpt lat="47.33578" lon="7.90264">
        <ele>396.7</ele>
        <time>2022-10-01T15:36:29Z</time>
      </trkpt>
      <trkpt lat="47.33583" lon="7.90269">
        <ele>396.7</ele>
        <time>2022-10-01T15:36:30Z</time>
      </trkpt>
      <trkpt lat="47.33588" lon="7.90273">
        <ele>396.6</ele>
        <time>2022-10-01T15:36:31Z</time>
      </trkpt>
      <trkpt lat="47.33593" lon="7.90276">
        <ele>396.6</ele>
        <time>2022-10-01T15:36:32Z</time>
      </trkpt>
      <trkpt lat="47.33599" lon="7.90283">
        <ele>396.5</ele>
        <time>2022-10-01T15:36:33Z</time>
      </trkpt>
      <trkpt lat="47.33604" lon="7.90288">
        <ele>396.4</ele>
        <time>2022-10-01T15:36:34Z</time>
      </trkpt>
      <trkpt lat="47.33609" lon="7.90292">
        <ele>396.4</ele>
        <time>2022-10-01T15:36:35Z</time>
      </trkpt>
      <trkpt lat="47.33614" lon="7.90297">
        <ele>396.3</ele>
        <time>2022-10-01T15:36:36Z</time>
      </trkpt>
      <trkpt lat="47.3362" lon="7.90303">
        <ele>396.3</ele>
        <time>2022-10-01T15:36:37Z</time>
      </trkpt>
      <trkpt lat="47.33625" lon="7.90308">
        <ele>396.3</ele>
        <time>2022-10-01T15:36:38Z</time>
      </trkpt>
      <trkpt lat="47.3363" lon="7.90312">
        <ele>396.2</ele>
        <time>2022-10-01T15:36:39Z</time>
      </trkpt>
      <trkpt lat="47.33634" lon="7.90316">
        <ele>396.2</ele>
        <time>2022-10-01T15:36:40Z</time>
      </trkpt>
      <trkpt lat="47.3364" lon="7.90322">
        <ele>396.2</ele>
        <time>2022-10-01T15:36:41Z</time>
      </trkpt>
      <trkpt lat="47.33645" lon="7.90327">
        <ele>396.1</ele>
        <time>2022-10-01T15:36:42Z</time>
      </trkpt>
      <trkpt lat="47.33651" lon="7.90329">
        <ele>396.1</ele>
        <time>2022-10-01T15:36:43Z</time>
      </trkpt>
      <trkpt lat="47.33657" lon="7.90335">
        <ele>396</ele>
        <time>2022-10-01T15:36:44Z</time>
      </trkpt>
      <trkpt lat="47.33662" lon="7.9034">
        <ele>396</ele>
        <time>2022-10-01T15:36:45Z</time>
      </trkpt>
      <trkpt lat="47.33667" lon="7.90347">
        <ele>396</ele>
        <time>2022-10-01T15:36:46Z</time>
      </trkpt>
      <trkpt lat="47.33673" lon="7.90351">
        <ele>395.9</ele>
        <time>2022-10-01T15:36:47Z</time>
      </trkpt>
      <trkpt lat="47.3368" lon="7.90355">
        <ele>395.9</ele>
        <time>2022-10-01T15:36:48Z</time>
      </trkpt>
      <trkpt lat="47.33685" lon="7.90361">
        <ele>395.9</ele>
        <time>2022-10-01T15:36:49Z</time>
      </trkpt>
      <trkpt lat="47.33689" lon="7.90366">
        <ele>395.9</ele>
        <time>2022-10-01T15:36:50Z</time>
      </trkpt>
      <trkpt lat="47.33694" lon="7.90371">
        <ele>395.9</ele>
        <time>2022-10-01T15:36:51Z</time>
      </trkpt>
      <trkpt lat="47.33698" lon="7.90377">
        <ele>396</ele>
        <time>2022-10-01T15:36:52Z</time>
      </trkpt>
      <trkpt lat="47.33703" lon="7.90382">
        <ele>395.9</ele>
        <time>2022-10-01T15:36:53Z</time>
      </trkpt>
      <trkpt lat="47.33708" lon="7.90386">
        <ele>395.9</ele>
        <time>2022-10-01T15:36:54Z</time>
      </trkpt>
      <trkpt lat="47.33711" lon="7.90391">
        <ele>395.9</ele>
        <time>2022-10-01T15:36:55Z</time>
      </trkpt>
      <trkpt lat="47.33716" lon="7.90397">
        <ele>395.8</ele>
        <time>2022-10-01T15:36:56Z</time>
      </trkpt>
      <trkpt lat="47.3372" lon="7.90403">
        <ele>395.7</ele>
        <time>2022-10-01T15:36:57Z</time>
      </trkpt>
      <trkpt lat="47.33725" lon="7.90409">
        <ele>395.6</ele>
        <time>2022-10-01T15:36:58Z</time>
      </trkpt>
      <trkpt lat="47.33729" lon="7.90415">
        <ele>395.4</ele>
        <time>2022-10-01T15:36:59Z</time>
      </trkpt>
      <trkpt lat="47.33734" lon="7.9042">
        <ele>395.2</ele>
        <time>2022-10-01T15:37:00Z</time>
      </trkpt>
      <trkpt lat="47.33739" lon="7.90426">
        <ele>395.1</ele>
        <time>2022-10-01T15:37:01Z</time>
      </trkpt>
      <trkpt lat="47.33743" lon="7.90433">
        <ele>395.2</ele>
        <time>2022-10-01T15:37:02Z</time>
      </trkpt>
      <trkpt lat="47.33748" lon="7.9044">
        <ele>395.2</ele>
        <time>2022-10-01T15:37:03Z</time>
      </trkpt>
      <trkpt lat="47.33752" lon="7.90445">
        <ele>395.3</ele>
        <time>2022-10-01T15:37:04Z</time>
      </trkpt>
      <trkpt lat="47.33756" lon="7.90452">
        <ele>395.5</ele>
        <time>2022-10-01T15:37:05Z</time>
      </trkpt>
      <trkpt lat="47.3376" lon="7.90457">
        <ele>395.6</ele>
        <time>2022-10-01T15:37:06Z</time>
      </trkpt>
      <trkpt lat="47.33764" lon="7.90462">
        <ele>395.7</ele>
        <time>2022-10-01T15:37:07Z</time>
      </trkpt>
      <trkpt lat="47.33768" lon="7.90467">
        <ele>395.8</ele>
        <time>2022-10-01T15:37:08Z</time>
      </trkpt>
      <trkpt lat="47.33771" lon="7.90471">
        <ele>395.9</ele>
        <time>2022-10-01T15:37:09Z</time>
      </trkpt>
      <trkpt lat="47.33774" lon="7.90475">
        <ele>396</ele>
        <time>2022-10-01T15:37:10Z</time>
      </trkpt>
      <trkpt lat="47.33778" lon="7.9048">
        <ele>396</ele>
        <time>2022-10-01T15:37:11Z</time>
      </trkpt>
      <trkpt lat="47.33782" lon="7.90485">
        <ele>396.1</ele>
        <time>2022-10-01T15:37:12Z</time>
      </trkpt>
      <trkpt lat="47.33786" lon="7.9049">
        <ele>396.1</ele>
        <time>2022-10-01T15:37:13Z</time>
      </trkpt>
      <trkpt lat="47.3379" lon="7.90496">
        <ele>396.1</ele>
        <time>2022-10-01T15:37:14Z</time>
      </trkpt>
      <trkpt lat="47.33794" lon="7.90502">
        <ele>396.1</ele>
        <time>2022-10-01T15:37:15Z</time>
      </trkpt>
      <trkpt lat="47.33798" lon="7.90508">
        <ele>396.1</ele>
        <time>2022-10-01T15:37:16Z</time>
      </trkpt>
      <trkpt lat="47.33802" lon="7.90513">
        <ele>396</ele>
        <time>2022-10-01T15:37:17Z</time>
      </trkpt>
      <trkpt lat="47.33807" lon="7.90519">
        <ele>396</ele>
        <time>2022-10-01T15:37:18Z</time>
      </trkpt>
      <trkpt lat="47.33811" lon="7.90524">
        <ele>396</ele>
        <time>2022-10-01T15:37:19Z</time>
      </trkpt>
      <trkpt lat="47.33816" lon="7.90529">
        <ele>396</ele>
        <time>2022-10-01T15:37:20Z</time>
      </trkpt>
      <trkpt lat="47.3382" lon="7.90534">
        <ele>396</ele>
        <time>2022-10-01T15:37:21Z</time>
      </trkpt>
      <trkpt lat="47.33824" lon="7.90539">
        <ele>395.9</ele>
        <time>2022-10-01T15:37:22Z</time>
      </trkpt>
      <trkpt lat="47.33829" lon="7.90543">
        <ele>395.9</ele>
        <time>2022-10-01T15:37:23Z</time>
      </trkpt>
      <trkpt lat="47.33834" lon="7.90547">
        <ele>395.9</ele>
        <time>2022-10-01T15:37:24Z</time>
      </trkpt>
      <trkpt lat="47.33839" lon="7.90551">
        <ele>395.9</ele>
        <time>2022-10-01T15:37:25Z</time>
      </trkpt>
      <trkpt lat="47.33843" lon="7.90557">
        <ele>395.9</ele>
        <time>2022-10-01T15:37:26Z</time>
      </trkpt>
      <trkpt lat="47.33848" lon="7.90561">
        <ele>396</ele>
        <time>2022-10-01T15:37:27Z</time>
      </trkpt>
      <trkpt lat="47.33852" lon="7.90565">
        <ele>396</ele>
        <time>2022-10-01T15:37:28Z</time>
      </trkpt>
      <trkpt lat="47.33856" lon="7.90569">
        <ele>396</ele>
        <time>2022-10-01T15:37:29Z</time>
      </trkpt>
      <trkpt lat="47.33861" lon="7.90572">
        <ele>396</ele>
        <time>2022-10-01T15:37:30Z</time>
      </trkpt>
      <trkpt lat="47.33866" lon="7.90576">
        <ele>396.1</ele>
        <time>2022-10-01T15:37:31Z</time>
      </trkpt>
      <trkpt lat="47.3387" lon="7.9058">
        <ele>396.1</ele>
        <time>2022-10-01T15:37:32Z</time>
      </trkpt>
      <trkpt lat="47.33875" lon="7.90584">
        <ele>396.1</ele>
        <time>2022-10-01T15:37:33Z</time>
      </trkpt>
      <trkpt lat="47.33879" lon="7.90588">
        <ele>396.2</ele>
        <time>2022-10-01T15:37:34Z</time>
      </trkpt>
      <trkpt lat="47.33884" lon="7.90591">
        <ele>396.2</ele>
        <time>2022-10-01T15:37:35Z</time>
      </trkpt>
      <trkpt lat="47.33889" lon="7.90594">
        <ele>396.2</ele>
        <time>2022-10-01T15:37:36Z</time>
      </trkpt>
      <trkpt lat="47.33895" lon="7.90598">
        <ele>396.2</ele>
        <time>2022-10-01T15:37:37Z</time>
      </trkpt>
      <trkpt lat="47.33901" lon="7.90601">
        <ele>396.2</ele>
        <time>2022-10-01T15:37:38Z</time>
      </trkpt>
      <trkpt lat="47.33906" lon="7.90605">
        <ele>396.2</ele>
        <time>2022-10-01T15:37:39Z</time>
      </trkpt>
      <trkpt lat="47.3391" lon="7.90609">
        <ele>396.2</ele>
        <time>2022-10-01T15:37:40Z</time>
      </trkpt>
      <trkpt lat="47.33914" lon="7.90611">
        <ele>396.2</ele>
        <time>2022-10-01T15:37:41Z</time>
      </trkpt>
      <trkpt lat="47.33916" lon="7.90613">
        <ele>396.1</ele>
        <time>2022-10-01T15:37:42Z</time>
      </trkpt>
      <trkpt lat="47.3392" lon="7.90616">
        <ele>396.1</ele>
        <time>2022-10-01T15:37:43Z</time>
      </trkpt>
      <trkpt lat="47.33923" lon="7.90618">
        <ele>396.1</ele>
        <time>2022-10-01T15:37:44Z</time>
      </trkpt>
      <trkpt lat="47.33932" lon="7.90621">
        <ele>396.1</ele>
        <time>2022-10-01T15:37:45Z</time>
      </trkpt>
      <trkpt lat="47.33942" lon="7.90622">
        <ele>396.3</ele>
        <time>2022-10-01T15:37:46Z</time>
      </trkpt>
      <trkpt lat="47.33948" lon="7.90622">
        <ele>396.4</ele>
        <time>2022-10-01T15:37:47Z</time>
      </trkpt>
      <trkpt lat="47.33953" lon="7.90622">
        <ele>396.6</ele>
        <time>2022-10-01T15:37:48Z</time>
      </trkpt>
      <trkpt lat="47.33958" lon="7.90621">
        <ele>396.8</ele>
        <time>2022-10-01T15:37:49Z</time>
      </trkpt>
      <trkpt lat="47.33963" lon="7.90621">
        <ele>397</ele>
        <time>2022-10-01T15:37:50Z</time>
      </trkpt>
      <trkpt lat="47.33966" lon="7.90621">
        <ele>397.1</ele>
        <time>2022-10-01T15:37:51Z</time>
      </trkpt>
      <trkpt lat="47.3397" lon="7.90622">
        <ele>397.3</ele>
        <time>2022-10-01T15:37:52Z</time>
      </trkpt>
      <trkpt lat="47.33973" lon="7.90624">
        <ele>397.4</ele>
        <time>2022-10-01T15:37:53Z</time>
      </trkpt>
      <trkpt lat="47.33977" lon="7.90622">
        <ele>397.6</ele>
        <time>2022-10-01T15:37:54Z</time>
      </trkpt>
      <trkpt lat="47.3398" lon="7.90625">
        <ele>397.7</ele>
        <time>2022-10-01T15:37:55Z</time>
      </trkpt>
      <trkpt lat="47.33983" lon="7.90626">
        <ele>397.9</ele>
        <time>2022-10-01T15:37:56Z</time>
      </trkpt>
      <trkpt lat="47.33986" lon="7.90627">
        <ele>398</ele>
        <time>2022-10-01T15:37:57Z</time>
      </trkpt>
      <trkpt lat="47.33988" lon="7.90627">
        <ele>398</ele>
        <time>2022-10-01T15:37:58Z</time>
      </trkpt>
      <trkpt lat="47.3399" lon="7.90628">
        <ele>398.1</ele>
        <time>2022-10-01T15:37:59Z</time>
      </trkpt>
      <trkpt lat="47.33994" lon="7.90629">
        <ele>398.2</ele>
        <time>2022-10-01T15:38:00Z</time>
      </trkpt>
      <trkpt lat="47.33995" lon="7.90629">
        <ele>398.2</ele>
        <time>2022-10-01T15:38:01Z</time>
      </trkpt>
      <trkpt lat="47.33998" lon="7.9063">
        <ele>398.3</ele>
        <time>2022-10-01T15:38:02Z</time>
      </trkpt>
      <trkpt lat="47.34001" lon="7.90631">
        <ele>398.4</ele>
        <time>2022-10-01T15:38:03Z</time>
      </trkpt>
      <trkpt lat="47.34005" lon="7.90632">
        <ele>398.5</ele>
        <time>2022-10-01T15:38:04Z</time>
      </trkpt>
      <trkpt lat="47.34008" lon="7.90631">
        <ele>398.6</ele>
        <time>2022-10-01T15:38:05Z</time>
      </trkpt>
      <trkpt lat="47.34011" lon="7.90631">
        <ele>398.7</ele>
        <time>2022-10-01T15:38:06Z</time>
      </trkpt>
      <trkpt lat="47.34014" lon="7.90631">
        <ele>398.8</ele>
        <time>2022-10-01T15:38:07Z</time>
      </trkpt>
      <trkpt lat="47.34018" lon="7.90633">
        <ele>398.9</ele>
        <time>2022-10-01T15:38:08Z</time>
      </trkpt>
      <trkpt lat="47.34021" lon="7.90634">
        <ele>398.9</ele>
        <time>2022-10-01T15:38:09Z</time>
      </trkpt>
      <trkpt lat="47.34025" lon="7.90636">
        <ele>399.1</ele>
        <time>2022-10-01T15:38:10Z</time>
      </trkpt>
      <trkpt lat="47.34027" lon="7.90637">
        <ele>399.1</ele>
        <time>2022-10-01T15:38:11Z</time>
      </trkpt>
      <trkpt lat="47.3403" lon="7.90638">
        <ele>399.2</ele>
        <time>2022-10-01T15:38:12Z</time>
      </trkpt>
      <trkpt lat="47.34034" lon="7.9064">
        <ele>399.3</ele>
        <time>2022-10-01T15:38:13Z</time>
      </trkpt>
      <trkpt lat="47.34037" lon="7.90643">
        <ele>399.4</ele>
        <time>2022-10-01T15:38:14Z</time>
      </trkpt>
      <trkpt lat="47.3404" lon="7.90645">
        <ele>399.4</ele>
        <time>2022-10-01T15:38:15Z</time>
      </trkpt>
      <trkpt lat="47.34044" lon="7.90647">
        <ele>399.5</ele>
        <time>2022-10-01T15:38:16Z</time>
      </trkpt>
      <trkpt lat="47.34047" lon="7.90649">
        <ele>399.6</ele>
        <time>2022-10-01T15:38:17Z</time>
      </trkpt>
      <trkpt lat="47.3405" lon="7.90651">
        <ele>399.7</ele>
        <time>2022-10-01T15:38:18Z</time>
      </trkpt>
      <trkpt lat="47.34054" lon="7.90653">
        <ele>399.7</ele>
        <time>2022-10-01T15:38:19Z</time>
      </trkpt>
      <trkpt lat="47.34057" lon="7.90654">
        <ele>399.8</ele>
        <time>2022-10-01T15:38:20Z</time>
      </trkpt>
      <trkpt lat="47.3406" lon="7.90656">
        <ele>399.9</ele>
        <time>2022-10-01T15:38:21Z</time>
      </trkpt>
      <trkpt lat="47.34064" lon="7.90657">
        <ele>400</ele>
        <time>2022-10-01T15:38:22Z</time>
      </trkpt>
      <trkpt lat="47.34067" lon="7.9066">
        <ele>400.1</ele>
        <time>2022-10-01T15:38:23Z</time>
      </trkpt>
      <trkpt lat="47.34072" lon="7.9066">
        <ele>400.3</ele>
        <time>2022-10-01T15:38:24Z</time>
      </trkpt>
      <trkpt lat="47.34075" lon="7.90663">
        <ele>400.3</ele>
        <time>2022-10-01T15:38:25Z</time>
      </trkpt>
      <trkpt lat="47.34079" lon="7.90664">
        <ele>400.5</ele>
        <time>2022-10-01T15:38:26Z</time>
      </trkpt>
      <trkpt lat="47.34083" lon="7.90665">
        <ele>400.6</ele>
        <time>2022-10-01T15:38:27Z</time>
      </trkpt>
      <trkpt lat="47.34087" lon="7.90666">
        <ele>400.8</ele>
        <time>2022-10-01T15:38:28Z</time>
      </trkpt>
      <trkpt lat="47.34091" lon="7.90667">
        <ele>401</ele>
        <time>2022-10-01T15:38:29Z</time>
      </trkpt>
      <trkpt lat="47.34094" lon="7.90667">
        <ele>401.2</ele>
        <time>2022-10-01T15:38:30Z</time>
      </trkpt>
      <trkpt lat="47.34098" lon="7.90668">
        <ele>401.4</ele>
        <time>2022-10-01T15:38:31Z</time>
      </trkpt>
      <trkpt lat="47.34101" lon="7.90665">
        <ele>401.6</ele>
        <time>2022-10-01T15:38:32Z</time>
      </trkpt>
      <trkpt lat="47.34104" lon="7.90664">
        <ele>401.8</ele>
        <time>2022-10-01T15:38:33Z</time>
      </trkpt>
      <trkpt lat="47.34107" lon="7.90662">
        <ele>402</ele>
        <time>2022-10-01T15:38:34Z</time>
      </trkpt>
      <trkpt lat="47.3411" lon="7.9066">
        <ele>402.3</ele>
        <time>2022-10-01T15:38:35Z</time>
      </trkpt>
      <trkpt lat="47.3411" lon="7.90659">
        <ele>402.4</ele>
        <time>2022-10-01T15:38:36Z</time>
      </trkpt>
      <trkpt lat="47.34111" lon="7.90657">
        <ele>402.5</ele>
        <time>2022-10-01T15:38:37Z</time>
      </trkpt>
      <trkpt lat="47.34113" lon="7.90655">
        <ele>402.6</ele>
        <time>2022-10-01T15:38:38Z</time>
      </trkpt>
      <trkpt lat="47.34115" lon="7.90654">
        <ele>402.8</ele>
        <time>2022-10-01T15:38:39Z</time>
      </trkpt>
      <trkpt lat="47.34115" lon="7.90654">
        <ele>402.9</ele>
        <time>2022-10-01T15:38:40Z</time>
      </trkpt>
      <trkpt lat="47.34117" lon="7.90653">
        <ele>403</ele>
        <time>2022-10-01T15:38:41Z</time>
      </trkpt>
      <trkpt lat="47.34118" lon="7.90651">
        <ele>403.1</ele>
        <time>2022-10-01T15:38:42Z</time>
      </trkpt>
      <trkpt lat="47.34118" lon="7.9065">
        <ele>403.2</ele>
        <time>2022-10-01T15:38:43Z</time>
      </trkpt>
      <trkpt lat="47.3412" lon="7.90648">
        <ele>403.4</ele>
        <time>2022-10-01T15:38:44Z</time>
      </trkpt>
      <trkpt lat="47.34121" lon="7.90647">
        <ele>403.5</ele>
        <time>2022-10-01T15:38:45Z</time>
      </trkpt>
      <trkpt lat="47.34122" lon="7.90645">
        <ele>403.6</ele>
        <time>2022-10-01T15:38:46Z</time>
      </trkpt>
      <trkpt lat="47.34123" lon="7.90644">
        <ele>403.7</ele>
        <time>2022-10-01T15:38:47Z</time>
      </trkpt>
      <trkpt lat="47.34125" lon="7.90643">
        <ele>403.8</ele>
        <time>2022-10-01T15:38:48Z</time>
      </trkpt>
      <trkpt lat="47.34127" lon="7.90641">
        <ele>404.1</ele>
        <time>2022-10-01T15:38:49Z</time>
      </trkpt>
      <trkpt lat="47.34128" lon="7.9064">
        <ele>404.2</ele>
        <time>2022-10-01T15:38:50Z</time>
      </trkpt>
      <trkpt lat="47.3413" lon="7.90639">
        <ele>404.4</ele>
        <time>2022-10-01T15:38:51Z</time>
      </trkpt>
      <trkpt lat="47.34131" lon="7.90637">
        <ele>404.5</ele>
        <time>2022-10-01T15:38:52Z</time>
      </trkpt>
      <trkpt lat="47.34132" lon="7.90636">
        <ele>404.6</ele>
        <time>2022-10-01T15:38:53Z</time>
      </trkpt>
      <trkpt lat="47.34133" lon="7.90635">
        <ele>404.7</ele>
        <time>2022-10-01T15:38:54Z</time>
      </trkpt>
      <trkpt lat="47.34135" lon="7.90633">
        <ele>404.9</ele>
        <time>2022-10-01T15:38:55Z</time>
      </trkpt>
      <trkpt lat="47.34136" lon="7.90632">
        <ele>405</ele>
        <time>2022-10-01T15:38:56Z</time>
      </trkpt>
      <trkpt lat="47.34137" lon="7.9063">
        <ele>405.2</ele>
        <time>2022-10-01T15:38:57Z</time>
      </trkpt>
      <trkpt lat="47.34139" lon="7.90629">
        <ele>405.3</ele>
        <time>2022-10-01T15:38:58Z</time>
      </trkpt>
      <trkpt lat="47.3414" lon="7.90627">
        <ele>405.5</ele>
        <time>2022-10-01T15:38:59Z</time>
      </trkpt>
      <trkpt lat="47.34141" lon="7.90625">
        <ele>405.6</ele>
        <time>2022-10-01T15:39:00Z</time>
      </trkpt>
      <trkpt lat="47.34143" lon="7.90624">
        <ele>405.8</ele>
        <time>2022-10-01T15:39:01Z</time>
      </trkpt>
      <trkpt lat="47.34144" lon="7.90623">
        <ele>406</ele>
        <time>2022-10-01T15:39:02Z</time>
      </trkpt>
      <trkpt lat="47.34145" lon="7.90622">
        <ele>406.1</ele>
        <time>2022-10-01T15:39:03Z</time>
      </trkpt>
      <trkpt lat="47.34147" lon="7.9062">
        <ele>406.3</ele>
        <time>2022-10-01T15:39:04Z</time>
      </trkpt>
      <trkpt lat="47.34148" lon="7.90618">
        <ele>406.4</ele>
        <time>2022-10-01T15:39:05Z</time>
      </trkpt>
      <trkpt lat="47.34151" lon="7.90615">
        <ele>406.8</ele>
        <time>2022-10-01T15:39:06Z</time>
      </trkpt>
      <trkpt lat="47.34152" lon="7.90613">
        <ele>406.9</ele>
        <time>2022-10-01T15:39:07Z</time>
      </trkpt>
      <trkpt lat="47.34154" lon="7.9061">
        <ele>407.2</ele>
        <time>2022-10-01T15:39:08Z</time>
      </trkpt>
      <trkpt lat="47.34154" lon="7.90609">
        <ele>407.2</ele>
        <time>2022-10-01T15:39:09Z</time>
      </trkpt>
      <trkpt lat="47.34156" lon="7.90608">
        <ele>407.5</ele>
        <time>2022-10-01T15:39:10Z</time>
      </trkpt>
      <trkpt lat="47.34157" lon="7.90607">
        <ele>407.5</ele>
        <time>2022-10-01T15:39:11Z</time>
      </trkpt>
      <trkpt lat="47.34157" lon="7.90607">
        <ele>407.6</ele>
        <time>2022-10-01T15:39:12Z</time>
      </trkpt>
      <trkpt lat="47.34159" lon="7.90605">
        <ele>407.7</ele>
        <time>2022-10-01T15:39:13Z</time>
      </trkpt>
      <trkpt lat="47.34161" lon="7.90605">
        <ele>407.9</ele>
        <time>2022-10-01T15:39:14Z</time>
      </trkpt>
      <trkpt lat="47.34163" lon="7.90604">
        <ele>408.1</ele>
        <time>2022-10-01T15:39:15Z</time>
      </trkpt>
      <trkpt lat="47.34164" lon="7.90603">
        <ele>408.2</ele>
        <time>2022-10-01T15:39:16Z</time>
      </trkpt>
      <trkpt lat="47.34166" lon="7.90601">
        <ele>408.4</ele>
        <time>2022-10-01T15:39:17Z</time>
      </trkpt>
      <trkpt lat="47.34167" lon="7.906">
        <ele>408.5</ele>
        <time>2022-10-01T15:39:18Z</time>
      </trkpt>
      <trkpt lat="47.34168" lon="7.90599">
        <ele>408.6</ele>
        <time>2022-10-01T15:39:19Z</time>
      </trkpt>
      <trkpt lat="47.3417" lon="7.90597">
        <ele>408.8</ele>
        <time>2022-10-01T15:39:20Z</time>
      </trkpt>
      <trkpt lat="47.34171" lon="7.90596">
        <ele>409</ele>
        <time>2022-10-01T15:39:21Z</time>
      </trkpt>
      <trkpt lat="47.34172" lon="7.90594">
        <ele>409.1</ele>
        <time>2022-10-01T15:39:22Z</time>
      </trkpt>
      <trkpt lat="47.34175" lon="7.90593">
        <ele>409.3</ele>
        <time>2022-10-01T15:39:23Z</time>
      </trkpt>
      <trkpt lat="47.34175" lon="7.90592">
        <ele>409.4</ele>
        <time>2022-10-01T15:39:24Z</time>
      </trkpt>
      <trkpt lat="47.34177" lon="7.90592">
        <ele>409.5</ele>
        <time>2022-10-01T15:39:25Z</time>
      </trkpt>
      <trkpt lat="47.34178" lon="7.9059">
        <ele>409.6</ele>
        <time>2022-10-01T15:39:26Z</time>
      </trkpt>
      <trkpt lat="47.3418" lon="7.90589">
        <ele>409.8</ele>
        <time>2022-10-01T15:39:27Z</time>
      </trkpt>
      <trkpt lat="47.34181" lon="7.90588">
        <ele>409.9</ele>
        <time>2022-10-01T15:39:28Z</time>
      </trkpt>
      <trkpt lat="47.34183" lon="7.90586">
        <ele>410.1</ele>
        <time>2022-10-01T15:39:29Z</time>
      </trkpt>
      <trkpt lat="47.34184" lon="7.90585">
        <ele>410.1</ele>
        <time>2022-10-01T15:39:30Z</time>
      </trkpt>
      <trkpt lat="47.34187" lon="7.90582">
        <ele>410.4</ele>
        <time>2022-10-01T15:39:31Z</time>
      </trkpt>
      <trkpt lat="47.34187" lon="7.90581">
        <ele>410.4</ele>
        <time>2022-10-01T15:39:32Z</time>
      </trkpt>
      <trkpt lat="47.34189" lon="7.90579">
        <ele>410.6</ele>
        <time>2022-10-01T15:39:33Z</time>
      </trkpt>
      <trkpt lat="47.3419" lon="7.90578">
        <ele>410.7</ele>
        <time>2022-10-01T15:39:34Z</time>
      </trkpt>
      <trkpt lat="47.34192" lon="7.90577">
        <ele>410.8</ele>
        <time>2022-10-01T15:39:35Z</time>
      </trkpt>
      <trkpt lat="47.34193" lon="7.90576">
        <ele>410.9</ele>
        <time>2022-10-01T15:39:36Z</time>
      </trkpt>
      <trkpt lat="47.34194" lon="7.90576">
        <ele>410.9</ele>
        <time>2022-10-01T15:39:37Z</time>
      </trkpt>
      <trkpt lat="47.34195" lon="7.90574">
        <ele>411</ele>
        <time>2022-10-01T15:39:38Z</time>
      </trkpt>
      <trkpt lat="47.34196" lon="7.90573">
        <ele>411.1</ele>
        <time>2022-10-01T15:39:39Z</time>
      </trkpt>
      <trkpt lat="47.34198" lon="7.90572">
        <ele>411.2</ele>
        <time>2022-10-01T15:39:40Z</time>
      </trkpt>
      <trkpt lat="47.34199" lon="7.9057">
        <ele>411.3</ele>
        <time>2022-10-01T15:39:41Z</time>
      </trkpt>
      <trkpt lat="47.342" lon="7.90568">
        <ele>411.5</ele>
        <time>2022-10-01T15:39:42Z</time>
      </trkpt>
      <trkpt lat="47.34201" lon="7.90566">
        <ele>411.5</ele>
        <time>2022-10-01T15:39:43Z</time>
      </trkpt>
      <trkpt lat="47.34202" lon="7.90565">
        <ele>411.6</ele>
        <time>2022-10-01T15:39:44Z</time>
      </trkpt>
      <trkpt lat="47.34203" lon="7.90564">
        <ele>411.7</ele>
        <time>2022-10-01T15:39:45Z</time>
      </trkpt>
      <trkpt lat="47.34204" lon="7.90563">
        <ele>411.8</ele>
        <time>2022-10-01T15:39:46Z</time>
      </trkpt>
      <trkpt lat="47.34207" lon="7.9056">
        <ele>412</ele>
        <time>2022-10-01T15:39:47Z</time>
      </trkpt>
      <trkpt lat="47.3421" lon="7.90558">
        <ele>412.2</ele>
        <time>2022-10-01T15:39:48Z</time>
      </trkpt>
      <trkpt lat="47.34211" lon="7.90557">
        <ele>412.2</ele>
        <time>2022-10-01T15:39:49Z</time>
      </trkpt>
      <trkpt lat="47.34214" lon="7.90555">
        <ele>412.4</ele>
        <time>2022-10-01T15:39:50Z</time>
      </trkpt>
      <trkpt lat="47.34214" lon="7.90554">
        <ele>412.4</ele>
        <time>2022-10-01T15:39:51Z</time>
      </trkpt>
      <trkpt lat="47.34216" lon="7.90553">
        <ele>412.5</ele>
        <time>2022-10-01T15:39:52Z</time>
      </trkpt>
      <trkpt lat="47.34217" lon="7.90552">
        <ele>412.6</ele>
        <time>2022-10-01T15:39:53Z</time>
      </trkpt>
      <trkpt lat="47.3422" lon="7.90548">
        <ele>412.8</ele>
        <time>2022-10-01T15:39:54Z</time>
      </trkpt>
      <trkpt lat="47.34221" lon="7.90547">
        <ele>412.8</ele>
        <time>2022-10-01T15:39:55Z</time>
      </trkpt>
      <trkpt lat="47.34223" lon="7.90544">
        <ele>413</ele>
        <time>2022-10-01T15:39:56Z</time>
      </trkpt>
      <trkpt lat="47.34225" lon="7.90542">
        <ele>413.1</ele>
        <time>2022-10-01T15:39:57Z</time>
      </trkpt>
      <trkpt lat="47.34226" lon="7.90541">
        <ele>413.2</ele>
        <time>2022-10-01T15:39:58Z</time>
      </trkpt>
      <trkpt lat="47.34227" lon="7.90538">
        <ele>413.3</ele>
        <time>2022-10-01T15:39:59Z</time>
      </trkpt>
      <trkpt lat="47.34228" lon="7.90537">
        <ele>413.3</ele>
        <time>2022-10-01T15:40:00Z</time>
      </trkpt>
      <trkpt lat="47.34231" lon="7.90533">
        <ele>413.4</ele>
        <time>2022-10-01T15:40:01Z</time>
      </trkpt>
      <trkpt lat="47.34232" lon="7.90532">
        <ele>413.4</ele>
        <time>2022-10-01T15:40:02Z</time>
      </trkpt>
      <trkpt lat="47.34234" lon="7.90528">
        <ele>413.5</ele>
        <time>2022-10-01T15:40:03Z</time>
      </trkpt>
      <trkpt lat="47.34235" lon="7.90527">
        <ele>413.5</ele>
        <time>2022-10-01T15:40:04Z</time>
      </trkpt>
      <trkpt lat="47.34237" lon="7.90523">
        <ele>413.6</ele>
        <time>2022-10-01T15:40:05Z</time>
      </trkpt>
      <trkpt lat="47.34238" lon="7.90522">
        <ele>413.6</ele>
        <time>2022-10-01T15:40:06Z</time>
      </trkpt>
      <trkpt lat="47.34241" lon="7.90519">
        <ele>413.7</ele>
        <time>2022-10-01T15:40:07Z</time>
      </trkpt>
      <trkpt lat="47.34243" lon="7.90518">
        <ele>413.7</ele>
        <time>2022-10-01T15:40:08Z</time>
      </trkpt>
      <trkpt lat="47.34245" lon="7.90516">
        <ele>413.8</ele>
        <time>2022-10-01T15:40:09Z</time>
      </trkpt>
      <trkpt lat="47.34248" lon="7.90514">
        <ele>413.9</ele>
        <time>2022-10-01T15:40:10Z</time>
      </trkpt>
      <trkpt lat="47.3425" lon="7.90512">
        <ele>413.9</ele>
        <time>2022-10-01T15:40:11Z</time>
      </trkpt>
      <trkpt lat="47.34253" lon="7.90511">
        <ele>413.9</ele>
        <time>2022-10-01T15:40:12Z</time>
      </trkpt>
      <trkpt lat="47.34255" lon="7.90508">
        <ele>414</ele>
        <time>2022-10-01T15:40:13Z</time>
      </trkpt>
      <trkpt lat="47.34256" lon="7.90507">
        <ele>414</ele>
        <time>2022-10-01T15:40:14Z</time>
      </trkpt>
      <trkpt lat="47.3426" lon="7.90505">
        <ele>414</ele>
        <time>2022-10-01T15:40:15Z</time>
      </trkpt>
      <trkpt lat="47.34261" lon="7.90504">
        <ele>414.1</ele>
        <time>2022-10-01T15:40:16Z</time>
      </trkpt>
      <trkpt lat="47.34264" lon="7.90501">
        <ele>414.1</ele>
        <time>2022-10-01T15:40:17Z</time>
      </trkpt>
      <trkpt lat="47.34268" lon="7.90499">
        <ele>414.2</ele>
        <time>2022-10-01T15:40:18Z</time>
      </trkpt>
      <trkpt lat="47.3427" lon="7.90497">
        <ele>414.2</ele>
        <time>2022-10-01T15:40:19Z</time>
      </trkpt>
      <trkpt lat="47.34273" lon="7.90495">
        <ele>414.2</ele>
        <time>2022-10-01T15:40:20Z</time>
      </trkpt>
      <trkpt lat="47.34276" lon="7.90494">
        <ele>414.2</ele>
        <time>2022-10-01T15:40:21Z</time>
      </trkpt>
      <trkpt lat="47.34281" lon="7.90492">
        <ele>414.3</ele>
        <time>2022-10-01T15:40:22Z</time>
      </trkpt>
      <trkpt lat="47.34285" lon="7.90489">
        <ele>414.3</ele>
        <time>2022-10-01T15:40:23Z</time>
      </trkpt>
      <trkpt lat="47.34288" lon="7.90487">
        <ele>414.3</ele>
        <time>2022-10-01T15:40:24Z</time>
      </trkpt>
      <trkpt lat="47.34293" lon="7.90485">
        <ele>414.3</ele>
        <time>2022-10-01T15:40:25Z</time>
      </trkpt>
      <trkpt lat="47.34298" lon="7.90482">
        <ele>414.3</ele>
        <time>2022-10-01T15:40:26Z</time>
      </trkpt>
      <trkpt lat="47.34302" lon="7.9048">
        <ele>414.4</ele>
        <time>2022-10-01T15:40:27Z</time>
      </trkpt>
      <trkpt lat="47.34307" lon="7.90477">
        <ele>414.4</ele>
        <time>2022-10-01T15:40:28Z</time>
      </trkpt>
      <trkpt lat="47.34312" lon="7.90475">
        <ele>414.4</ele>
        <time>2022-10-01T15:40:29Z</time>
      </trkpt>
      <trkpt lat="47.34316" lon="7.90472">
        <ele>414.4</ele>
        <time>2022-10-01T15:40:30Z</time>
      </trkpt>
      <trkpt lat="47.34321" lon="7.90469">
        <ele>414.4</ele>
        <time>2022-10-01T15:40:31Z</time>
      </trkpt>
      <trkpt lat="47.34324" lon="7.90467">
        <ele>414.4</ele>
        <time>2022-10-01T15:40:32Z</time>
      </trkpt>
      <trkpt lat="47.3433" lon="7.90464">
        <ele>414.5</ele>
        <time>2022-10-01T15:40:33Z</time>
      </trkpt>
      <trkpt lat="47.34334" lon="7.90462">
        <ele>414.5</ele>
        <time>2022-10-01T15:40:34Z</time>
      </trkpt>
      <trkpt lat="47.34338" lon="7.9046">
        <ele>414.5</ele>
        <time>2022-10-01T15:40:35Z</time>
      </trkpt>
      <trkpt lat="47.34343" lon="7.90457">
        <ele>414.5</ele>
        <time>2022-10-01T15:40:36Z</time>
      </trkpt>
      <trkpt lat="47.34348" lon="7.90455">
        <ele>414.5</ele>
        <time>2022-10-01T15:40:37Z</time>
      </trkpt>
      <trkpt lat="47.34353" lon="7.90452">
        <ele>414.5</ele>
        <time>2022-10-01T15:40:38Z</time>
      </trkpt>
      <trkpt lat="47.34357" lon="7.90449">
        <ele>414.5</ele>
        <time>2022-10-01T15:40:39Z</time>
      </trkpt>
      <trkpt lat="47.34362" lon="7.90446">
        <ele>414.5</ele>
        <time>2022-10-01T15:40:40Z</time>
      </trkpt>
      <trkpt lat="47.34366" lon="7.90443">
        <ele>414.5</ele>
        <time>2022-10-01T15:40:41Z</time>
      </trkpt>
      <trkpt lat="47.34371" lon="7.90441">
        <ele>414.5</ele>
        <time>2022-10-01T15:40:42Z</time>
      </trkpt>
      <trkpt lat="47.34376" lon="7.90439">
        <ele>414.5</ele>
        <time>2022-10-01T15:40:43Z</time>
      </trkpt>
      <trkpt lat="47.3438" lon="7.90436">
        <ele>414.6</ele>
        <time>2022-10-01T15:40:44Z</time>
      </trkpt>
      <trkpt lat="47.34384" lon="7.90435">
        <ele>414.6</ele>
        <time>2022-10-01T15:40:45Z</time>
      </trkpt>
      <trkpt lat="47.34389" lon="7.90433">
        <ele>414.6</ele>
        <time>2022-10-01T15:40:46Z</time>
      </trkpt>
      <trkpt lat="47.34393" lon="7.9043">
        <ele>414.6</ele>
        <time>2022-10-01T15:40:47Z</time>
      </trkpt>
      <trkpt lat="47.34397" lon="7.90427">
        <ele>414.6</ele>
        <time>2022-10-01T15:40:48Z</time>
      </trkpt>
      <trkpt lat="47.34402" lon="7.90426">
        <ele>414.6</ele>
        <time>2022-10-01T15:40:49Z</time>
      </trkpt>
      <trkpt lat="47.34406" lon="7.90423">
        <ele>414.7</ele>
        <time>2022-10-01T15:40:50Z</time>
      </trkpt>
      <trkpt lat="47.34411" lon="7.90421">
        <ele>414.7</ele>
        <time>2022-10-01T15:40:51Z</time>
      </trkpt>
      <trkpt lat="47.34416" lon="7.9042">
        <ele>414.7</ele>
        <time>2022-10-01T15:40:52Z</time>
      </trkpt>
      <trkpt lat="47.3442" lon="7.90417">
        <ele>414.7</ele>
        <time>2022-10-01T15:40:53Z</time>
      </trkpt>
      <trkpt lat="47.34424" lon="7.90414">
        <ele>414.7</ele>
        <time>2022-10-01T15:40:54Z</time>
      </trkpt>
      <trkpt lat="47.3443" lon="7.90413">
        <ele>414.7</ele>
        <time>2022-10-01T15:40:55Z</time>
      </trkpt>
      <trkpt lat="47.34434" lon="7.90411">
        <ele>414.8</ele>
        <time>2022-10-01T15:40:56Z</time>
      </trkpt>
      <trkpt lat="47.3444" lon="7.90409">
        <ele>414.8</ele>
        <time>2022-10-01T15:40:57Z</time>
      </trkpt>
      <trkpt lat="47.34444" lon="7.90406">
        <ele>414.8</ele>
        <time>2022-10-01T15:40:58Z</time>
      </trkpt>
      <trkpt lat="47.34449" lon="7.90403">
        <ele>414.9</ele>
        <time>2022-10-01T15:40:59Z</time>
      </trkpt>
      <trkpt lat="47.34453" lon="7.904">
        <ele>414.9</ele>
        <time>2022-10-01T15:41:00Z</time>
      </trkpt>
      <trkpt lat="47.34458" lon="7.90396">
        <ele>414.9</ele>
        <time>2022-10-01T15:41:01Z</time>
      </trkpt>
      <trkpt lat="47.34462" lon="7.90394">
        <ele>415</ele>
        <time>2022-10-01T15:41:02Z</time>
      </trkpt>
      <trkpt lat="47.34466" lon="7.90393">
        <ele>415</ele>
        <time>2022-10-01T15:41:03Z</time>
      </trkpt>
      <trkpt lat="47.34471" lon="7.90389">
        <ele>415</ele>
        <time>2022-10-01T15:41:04Z</time>
      </trkpt>
      <trkpt lat="47.34476" lon="7.90386">
        <ele>415</ele>
        <time>2022-10-01T15:41:05Z</time>
      </trkpt>
      <trkpt lat="47.3448" lon="7.90383">
        <ele>415</ele>
        <time>2022-10-01T15:41:06Z</time>
      </trkpt>
      <trkpt lat="47.34484" lon="7.9038">
        <ele>415.1</ele>
        <time>2022-10-01T15:41:07Z</time>
      </trkpt>
      <trkpt lat="47.34488" lon="7.90376">
        <ele>415.1</ele>
        <time>2022-10-01T15:41:08Z</time>
      </trkpt>
      <trkpt lat="47.34491" lon="7.90373">
        <ele>415.1</ele>
        <time>2022-10-01T15:41:09Z</time>
      </trkpt>
      <trkpt lat="47.34495" lon="7.90369">
        <ele>415.1</ele>
        <time>2022-10-01T15:41:10Z</time>
      </trkpt>
      <trkpt lat="47.34498" lon="7.90366">
        <ele>415.1</ele>
        <time>2022-10-01T15:41:11Z</time>
      </trkpt>
      <trkpt lat="47.34502" lon="7.90363">
        <ele>415</ele>
        <time>2022-10-01T15:41:12Z</time>
      </trkpt>
      <trkpt lat="47.34506" lon="7.90359">
        <ele>415</ele>
        <time>2022-10-01T15:41:13Z</time>
      </trkpt>
      <trkpt lat="47.34509" lon="7.90356">
        <ele>415</ele>
        <time>2022-10-01T15:41:14Z</time>
      </trkpt>
      <trkpt lat="47.34512" lon="7.90353">
        <ele>415</ele>
        <time>2022-10-01T15:41:15Z</time>
      </trkpt>
      <trkpt lat="47.34514" lon="7.9035">
        <ele>415</ele>
        <time>2022-10-01T15:41:16Z</time>
      </trkpt>
      <trkpt lat="47.34517" lon="7.90348">
        <ele>415</ele>
        <time>2022-10-01T15:41:17Z</time>
      </trkpt>
      <trkpt lat="47.34519" lon="7.90346">
        <ele>414.9</ele>
        <time>2022-10-01T15:41:18Z</time>
      </trkpt>
      <trkpt lat="47.34521" lon="7.90345">
        <ele>414.9</ele>
        <time>2022-10-01T15:41:19Z</time>
      </trkpt>
      <trkpt lat="47.34524" lon="7.90344">
        <ele>414.6</ele>
        <time>2022-10-01T15:41:20Z</time>
      </trkpt>
      <trkpt lat="47.34528" lon="7.90344">
        <ele>414.5</ele>
        <time>2022-10-01T15:41:21Z</time>
      </trkpt>
      <trkpt lat="47.34531" lon="7.90346">
        <ele>414.4</ele>
        <time>2022-10-01T15:41:22Z</time>
      </trkpt>
      <trkpt lat="47.34533" lon="7.90346">
        <ele>414.3</ele>
        <time>2022-10-01T15:41:23Z</time>
      </trkpt>
      <trkpt lat="47.34538" lon="7.90347">
        <ele>414.2</ele>
        <time>2022-10-01T15:41:24Z</time>
      </trkpt>
      <trkpt lat="47.34541" lon="7.90347">
        <ele>414.1</ele>
        <time>2022-10-01T15:41:25Z</time>
      </trkpt>
      <trkpt lat="47.34545" lon="7.90346">
        <ele>413.9</ele>
        <time>2022-10-01T15:41:26Z</time>
      </trkpt>
      <trkpt lat="47.3455" lon="7.90346">
        <ele>413.6</ele>
        <time>2022-10-01T15:41:27Z</time>
      </trkpt>
      <trkpt lat="47.34555" lon="7.90345">
        <ele>413.3</ele>
        <time>2022-10-01T15:41:28Z</time>
      </trkpt>
      <trkpt lat="47.3456" lon="7.90345">
        <ele>413</ele>
        <time>2022-10-01T15:41:29Z</time>
      </trkpt>
      <trkpt lat="47.34566" lon="7.90344">
        <ele>412.7</ele>
        <time>2022-10-01T15:41:30Z</time>
      </trkpt>
      <trkpt lat="47.3457" lon="7.9034">
        <ele>412.3</ele>
        <time>2022-10-01T15:41:31Z</time>
      </trkpt>
      <trkpt lat="47.34577" lon="7.90339">
        <ele>411.9</ele>
        <time>2022-10-01T15:41:32Z</time>
      </trkpt>
      <trkpt lat="47.34582" lon="7.90338">
        <ele>411.4</ele>
        <time>2022-10-01T15:41:33Z</time>
      </trkpt>
      <trkpt lat="47.34588" lon="7.90334">
        <ele>410.9</ele>
        <time>2022-10-01T15:41:34Z</time>
      </trkpt>
      <trkpt lat="47.34594" lon="7.90331">
        <ele>410.4</ele>
        <time>2022-10-01T15:41:35Z</time>
      </trkpt>
      <trkpt lat="47.34599" lon="7.90329">
        <ele>410.1</ele>
        <time>2022-10-01T15:41:36Z</time>
      </trkpt>
      <trkpt lat="47.34604" lon="7.90326">
        <ele>409.9</ele>
        <time>2022-10-01T15:41:37Z</time>
      </trkpt>
      <trkpt lat="47.34609" lon="7.90322">
        <ele>409.5</ele>
        <time>2022-10-01T15:41:38Z</time>
      </trkpt>
      <trkpt lat="47.34615" lon="7.90318">
        <ele>409</ele>
        <time>2022-10-01T15:41:39Z</time>
      </trkpt>
      <trkpt lat="47.3462" lon="7.90315">
        <ele>408.6</ele>
        <time>2022-10-01T15:41:40Z</time>
      </trkpt>
      <trkpt lat="47.34626" lon="7.90313">
        <ele>408.1</ele>
        <time>2022-10-01T15:41:41Z</time>
      </trkpt>
      <trkpt lat="47.34632" lon="7.9031">
        <ele>407.5</ele>
        <time>2022-10-01T15:41:42Z</time>
      </trkpt>
      <trkpt lat="47.34638" lon="7.90307">
        <ele>406.8</ele>
        <time>2022-10-01T15:41:43Z</time>
      </trkpt>
      <trkpt lat="47.34643" lon="7.90303">
        <ele>406.3</ele>
        <time>2022-10-01T15:41:44Z</time>
      </trkpt>
      <trkpt lat="47.34649" lon="7.90299">
        <ele>405.7</ele>
        <time>2022-10-01T15:41:45Z</time>
      </trkpt>
      <trkpt lat="47.34654" lon="7.90297">
        <ele>405.1</ele>
        <time>2022-10-01T15:41:46Z</time>
      </trkpt>
      <trkpt lat="47.3466" lon="7.90293">
        <ele>404.6</ele>
        <time>2022-10-01T15:41:47Z</time>
      </trkpt>
      <trkpt lat="47.34664" lon="7.9029">
        <ele>404.2</ele>
        <time>2022-10-01T15:41:48Z</time>
      </trkpt>
      <trkpt lat="47.34668" lon="7.90287">
        <ele>403.8</ele>
        <time>2022-10-01T15:41:49Z</time>
      </trkpt>
      <trkpt lat="47.34673" lon="7.90284">
        <ele>403.4</ele>
        <time>2022-10-01T15:41:50Z</time>
      </trkpt>
      <trkpt lat="47.34678" lon="7.90281">
        <ele>403.2</ele>
        <time>2022-10-01T15:41:51Z</time>
      </trkpt>
      <trkpt lat="47.34683" lon="7.90277">
        <ele>403.1</ele>
        <time>2022-10-01T15:41:52Z</time>
      </trkpt>
      <trkpt lat="47.34687" lon="7.90274">
        <ele>403.1</ele>
        <time>2022-10-01T15:41:53Z</time>
      </trkpt>
      <trkpt lat="47.34692" lon="7.90269">
        <ele>402.8</ele>
        <time>2022-10-01T15:41:54Z</time>
      </trkpt>
      <trkpt lat="47.34696" lon="7.90266">
        <ele>402.5</ele>
        <time>2022-10-01T15:41:55Z</time>
      </trkpt>
      <trkpt lat="47.347" lon="7.90262">
        <ele>402.2</ele>
        <time>2022-10-01T15:41:56Z</time>
      </trkpt>
      <trkpt lat="47.34705" lon="7.90258">
        <ele>401.8</ele>
        <time>2022-10-01T15:41:57Z</time>
      </trkpt>
      <trkpt lat="47.3471" lon="7.90254">
        <ele>401.5</ele>
        <time>2022-10-01T15:41:58Z</time>
      </trkpt>
      <trkpt lat="47.34713" lon="7.9025">
        <ele>401.2</ele>
        <time>2022-10-01T15:41:59Z</time>
      </trkpt>
      <trkpt lat="47.34717" lon="7.90246">
        <ele>400.9</ele>
        <time>2022-10-01T15:42:00Z</time>
      </trkpt>
      <trkpt lat="47.34721" lon="7.90243">
        <ele>400.5</ele>
        <time>2022-10-01T15:42:01Z</time>
      </trkpt>
      <trkpt lat="47.34726" lon="7.90238">
        <ele>400.1</ele>
        <time>2022-10-01T15:42:02Z</time>
      </trkpt>
      <trkpt lat="47.3473" lon="7.90234">
        <ele>399.7</ele>
        <time>2022-10-01T15:42:03Z</time>
      </trkpt>
      <trkpt lat="47.34734" lon="7.9023">
        <ele>399.3</ele>
        <time>2022-10-01T15:42:04Z</time>
      </trkpt>
      <trkpt lat="47.34739" lon="7.90227">
        <ele>398.9</ele>
        <time>2022-10-01T15:42:05Z</time>
      </trkpt>
      <trkpt lat="47.34741" lon="7.90223">
        <ele>398.6</ele>
        <time>2022-10-01T15:42:06Z</time>
      </trkpt>
      <trkpt lat="47.34744" lon="7.90221">
        <ele>398.3</ele>
        <time>2022-10-01T15:42:07Z</time>
      </trkpt>
      <trkpt lat="47.3475" lon="7.90217">
        <ele>397.8</ele>
        <time>2022-10-01T15:42:08Z</time>
      </trkpt>
      <trkpt lat="47.34754" lon="7.90215">
        <ele>397.4</ele>
        <time>2022-10-01T15:42:09Z</time>
      </trkpt>
      <trkpt lat="47.34759" lon="7.90212">
        <ele>396.9</ele>
        <time>2022-10-01T15:42:10Z</time>
      </trkpt>
      <trkpt lat="47.34764" lon="7.9021">
        <ele>396.5</ele>
        <time>2022-10-01T15:42:11Z</time>
      </trkpt>
      <trkpt lat="47.34768" lon="7.90209">
        <ele>396.1</ele>
        <time>2022-10-01T15:42:12Z</time>
      </trkpt>
      <trkpt lat="47.34772" lon="7.90206">
        <ele>395.7</ele>
        <time>2022-10-01T15:42:13Z</time>
      </trkpt>
      <trkpt lat="47.34777" lon="7.90204">
        <ele>395.4</ele>
        <time>2022-10-01T15:42:14Z</time>
      </trkpt>
      <trkpt lat="47.34781" lon="7.90203">
        <ele>395</ele>
        <time>2022-10-01T15:42:15Z</time>
      </trkpt>
      <trkpt lat="47.34786" lon="7.90201">
        <ele>394.7</ele>
        <time>2022-10-01T15:42:16Z</time>
      </trkpt>
      <trkpt lat="47.3479" lon="7.90199">
        <ele>394.3</ele>
        <time>2022-10-01T15:42:17Z</time>
      </trkpt>
      <trkpt lat="47.34795" lon="7.90197">
        <ele>394.1</ele>
        <time>2022-10-01T15:42:18Z</time>
      </trkpt>
      <trkpt lat="47.348" lon="7.90196">
        <ele>393.7</ele>
        <time>2022-10-01T15:42:19Z</time>
      </trkpt>
      <trkpt lat="47.34804" lon="7.90196">
        <ele>393.6</ele>
        <time>2022-10-01T15:42:20Z</time>
      </trkpt>
      <trkpt lat="47.34807" lon="7.90196">
        <ele>393.6</ele>
        <time>2022-10-01T15:42:21Z</time>
      </trkpt>
      <trkpt lat="47.34812" lon="7.90195">
        <ele>393.5</ele>
        <time>2022-10-01T15:42:22Z</time>
      </trkpt>
      <trkpt lat="47.34815" lon="7.90195">
        <ele>393.4</ele>
        <time>2022-10-01T15:42:23Z</time>
      </trkpt>
      <trkpt lat="47.34816" lon="7.90194">
        <ele>393.3</ele>
        <time>2022-10-01T15:42:24Z</time>
      </trkpt>
      <trkpt lat="47.3482" lon="7.90195">
        <ele>393.2</ele>
        <time>2022-10-01T15:42:25Z</time>
      </trkpt>
      <trkpt lat="47.34821" lon="7.90196">
        <ele>393.1</ele>
        <time>2022-10-01T15:42:26Z</time>
      </trkpt>
      <trkpt lat="47.34823" lon="7.90196">
        <ele>393.1</ele>
        <time>2022-10-01T15:42:27Z</time>
      </trkpt>
      <trkpt lat="47.34824" lon="7.90197">
        <ele>393</ele>
        <time>2022-10-01T15:42:28Z</time>
      </trkpt>
      <trkpt lat="47.34824" lon="7.90198">
        <ele>393</ele>
        <time>2022-10-01T15:42:29Z</time>
      </trkpt>
      <trkpt lat="47.34826" lon="7.90198">
        <ele>393</ele>
        <time>2022-10-01T15:42:30Z</time>
      </trkpt>
      <trkpt lat="47.34827" lon="7.90198">
        <ele>393</ele>
        <time>2022-10-01T15:42:31Z</time>
      </trkpt>
      <trkpt lat="47.34826" lon="7.90199">
        <ele>393</ele>
        <time>2022-10-01T15:42:32Z</time>
      </trkpt>
      <trkpt lat="47.34827" lon="7.90199">
        <ele>393</ele>
        <time>2022-10-01T15:42:33Z</time>
      </trkpt>
      <trkpt lat="47.34829" lon="7.902">
        <ele>392.9</ele>
        <time>2022-10-01T15:42:34Z</time>
      </trkpt>
      <trkpt lat="47.34832" lon="7.90201">
        <ele>392.9</ele>
        <time>2022-10-01T15:42:35Z</time>
      </trkpt>
      <trkpt lat="47.34834" lon="7.90202">
        <ele>392.9</ele>
        <time>2022-10-01T15:42:36Z</time>
      </trkpt>
      <trkpt lat="47.34836" lon="7.90203">
        <ele>392.8</ele>
        <time>2022-10-01T15:42:37Z</time>
      </trkpt>
      <trkpt lat="47.34838" lon="7.90204">
        <ele>392.8</ele>
        <time>2022-10-01T15:42:38Z</time>
      </trkpt>
      <trkpt lat="47.34841" lon="7.90204">
        <ele>392.7</ele>
        <time>2022-10-01T15:42:39Z</time>
      </trkpt>
      <trkpt lat="47.34843" lon="7.90205">
        <ele>392.7</ele>
        <time>2022-10-01T15:42:40Z</time>
      </trkpt>
      <trkpt lat="47.34845" lon="7.90206">
        <ele>392.6</ele>
        <time>2022-10-01T15:42:41Z</time>
      </trkpt>
      <trkpt lat="47.34847" lon="7.90207">
        <ele>392.6</ele>
        <time>2022-10-01T15:43:53Z</time>
      </trkpt>
      <trkpt lat="47.3485" lon="7.90208">
        <ele>392.6</ele>
        <time>2022-10-01T15:43:54Z</time>
      </trkpt>
      <trkpt lat="47.34852" lon="7.90209">
        <ele>392.6</ele>
        <time>2022-10-01T15:43:55Z</time>
      </trkpt>
      <trkpt lat="47.34852" lon="7.9021">
        <ele>392.6</ele>
        <time>2022-10-01T15:43:56Z</time>
      </trkpt>
      <trkpt lat="47.34856" lon="7.90212">
        <ele>392.5</ele>
        <time>2022-10-01T15:43:57Z</time>
      </trkpt>
      <trkpt lat="47.34857" lon="7.90214">
        <ele>392.5</ele>
        <time>2022-10-01T15:43:58Z</time>
      </trkpt>
      <trkpt lat="47.3486" lon="7.90217">
        <ele>392.5</ele>
        <time>2022-10-01T15:43:59Z</time>
      </trkpt>
      <trkpt lat="47.34861" lon="7.90218">
        <ele>392.5</ele>
        <time>2022-10-01T15:44:00Z</time>
      </trkpt>
      <trkpt lat="47.34864" lon="7.90221">
        <ele>392.5</ele>
        <time>2022-10-01T15:44:01Z</time>
      </trkpt>
      <trkpt lat="47.34866" lon="7.90225">
        <ele>392.5</ele>
        <time>2022-10-01T15:44:02Z</time>
      </trkpt>
      <trkpt lat="47.34866" lon="7.90229">
        <ele>392.5</ele>
        <time>2022-10-01T15:44:03Z</time>
      </trkpt>
      <trkpt lat="47.34868" lon="7.90234">
        <ele>392.5</ele>
        <time>2022-10-01T15:44:04Z</time>
      </trkpt>
      <trkpt lat="47.3487" lon="7.90238">
        <ele>392.5</ele>
        <time>2022-10-01T15:44:05Z</time>
      </trkpt>
      <trkpt lat="47.34871" lon="7.90242">
        <ele>392.6</ele>
        <time>2022-10-01T15:44:06Z</time>
      </trkpt>
      <trkpt lat="47.34872" lon="7.90246">
        <ele>392.6</ele>
        <time>2022-10-01T15:44:07Z</time>
      </trkpt>
      <trkpt lat="47.34872" lon="7.90251">
        <ele>392.6</ele>
        <time>2022-10-01T15:44:08Z</time>
      </trkpt>
      <trkpt lat="47.34875" lon="7.90256">
        <ele>392.6</ele>
        <time>2022-10-01T15:44:09Z</time>
      </trkpt>
      <trkpt lat="47.34877" lon="7.9026">
        <ele>392.7</ele>
        <time>2022-10-01T15:44:10Z</time>
      </trkpt>
      <trkpt lat="47.34878" lon="7.90265">
        <ele>392.7</ele>
        <time>2022-10-01T15:44:11Z</time>
      </trkpt>
      <trkpt lat="47.34881" lon="7.9027">
        <ele>392.8</ele>
        <time>2022-10-01T15:44:12Z</time>
      </trkpt>
      <trkpt lat="47.34883" lon="7.90274">
        <ele>392.8</ele>
        <time>2022-10-01T15:44:13Z</time>
      </trkpt>
      <trkpt lat="47.34885" lon="7.90279">
        <ele>392.9</ele>
        <time>2022-10-01T15:44:14Z</time>
      </trkpt>
      <trkpt lat="47.34887" lon="7.90283">
        <ele>393</ele>
        <time>2022-10-01T15:44:15Z</time>
      </trkpt>
      <trkpt lat="47.3489" lon="7.90285">
        <ele>393.1</ele>
        <time>2022-10-01T15:44:16Z</time>
      </trkpt>
      <trkpt lat="47.34893" lon="7.90287">
        <ele>393.2</ele>
        <time>2022-10-01T15:44:17Z</time>
      </trkpt>
      <trkpt lat="47.34897" lon="7.90288">
        <ele>393.5</ele>
        <time>2022-10-01T15:44:18Z</time>
      </trkpt>
      <trkpt lat="47.34898" lon="7.90288">
        <ele>393.6</ele>
        <time>2022-10-01T15:44:19Z</time>
      </trkpt>
      <trkpt lat="47.34901" lon="7.90288">
        <ele>393.7</ele>
        <time>2022-10-01T15:44:20Z</time>
      </trkpt>
      <trkpt lat="47.34903" lon="7.90288">
        <ele>393.7</ele>
        <time>2022-10-01T15:44:21Z</time>
      </trkpt>
      <trkpt lat="47.34906" lon="7.90289">
        <ele>393.9</ele>
        <time>2022-10-01T15:44:22Z</time>
      </trkpt>
      <trkpt lat="47.34908" lon="7.90289">
        <ele>393.9</ele>
        <time>2022-10-01T15:44:23Z</time>
      </trkpt>
      <trkpt lat="47.34911" lon="7.90291">
        <ele>394</ele>
        <time>2022-10-01T15:44:24Z</time>
      </trkpt>
      <trkpt lat="47.34913" lon="7.90291">
        <ele>394.1</ele>
        <time>2022-10-01T15:44:25Z</time>
      </trkpt>
      <trkpt lat="47.34916" lon="7.90292">
        <ele>394.2</ele>
        <time>2022-10-01T15:44:26Z</time>
      </trkpt>
      <trkpt lat="47.34917" lon="7.90292">
        <ele>394.1</ele>
        <time>2022-10-01T15:44:27Z</time>
      </trkpt>
      <trkpt lat="47.34919" lon="7.90295">
        <ele>394</ele>
        <time>2022-10-01T15:44:28Z</time>
      </trkpt>
      <trkpt lat="47.34919" lon="7.90296">
        <ele>393.9</ele>
        <time>2022-10-01T15:44:29Z</time>
      </trkpt>
      <trkpt lat="47.3492" lon="7.90298">
        <ele>393.9</ele>
        <time>2022-10-01T15:44:30Z</time>
      </trkpt>
      <trkpt lat="47.3492" lon="7.90304">
        <ele>393.7</ele>
        <time>2022-10-01T15:44:31Z</time>
      </trkpt>
      <trkpt lat="47.3492" lon="7.90306">
        <ele>393.7</ele>
        <time>2022-10-01T15:44:32Z</time>
      </trkpt>
      <trkpt lat="47.34921" lon="7.90312">
        <ele>393.5</ele>
        <time>2022-10-01T15:44:33Z</time>
      </trkpt>
      <trkpt lat="47.34921" lon="7.90317">
        <ele>393.5</ele>
        <time>2022-10-01T15:44:34Z</time>
      </trkpt>
      <trkpt lat="47.34921" lon="7.90322">
        <ele>393.4</ele>
        <time>2022-10-01T15:44:35Z</time>
      </trkpt>
      <trkpt lat="47.34921" lon="7.90328">
        <ele>393.3</ele>
        <time>2022-10-01T15:44:36Z</time>
      </trkpt>
      <trkpt lat="47.3492" lon="7.90333">
        <ele>393.2</ele>
        <time>2022-10-01T15:44:37Z</time>
      </trkpt>
      <trkpt lat="47.34919" lon="7.9034">
        <ele>393.2</ele>
        <time>2022-10-01T15:44:38Z</time>
      </trkpt>
      <trkpt lat="47.34918" lon="7.90347">
        <ele>393.1</ele>
        <time>2022-10-01T15:44:39Z</time>
      </trkpt>
      <trkpt lat="47.34918" lon="7.90353">
        <ele>393</ele>
        <time>2022-10-01T15:44:40Z</time>
      </trkpt>
      <trkpt lat="47.34917" lon="7.90358">
        <ele>392.9</ele>
        <time>2022-10-01T15:44:41Z</time>
      </trkpt>
      <trkpt lat="47.34916" lon="7.90364">
        <ele>392.9</ele>
        <time>2022-10-01T15:44:42Z</time>
      </trkpt>
      <trkpt lat="47.34914" lon="7.90371">
        <ele>392.8</ele>
        <time>2022-10-01T15:44:43Z</time>
      </trkpt>
      <trkpt lat="47.34914" lon="7.90379">
        <ele>392.8</ele>
        <time>2022-10-01T15:44:44Z</time>
      </trkpt>
      <trkpt lat="47.34914" lon="7.90385">
        <ele>392.8</ele>
        <time>2022-10-01T15:44:45Z</time>
      </trkpt>
      <trkpt lat="47.34915" lon="7.90391">
        <ele>392.9</ele>
        <time>2022-10-01T15:44:46Z</time>
      </trkpt>
      <trkpt lat="47.34915" lon="7.90397">
        <ele>392.9</ele>
        <time>2022-10-01T15:44:47Z</time>
      </trkpt>
      <trkpt lat="47.34915" lon="7.90402">
        <ele>392.9</ele>
        <time>2022-10-01T15:44:48Z</time>
      </trkpt>
      <trkpt lat="47.34916" lon="7.90409">
        <ele>392.9</ele>
        <time>2022-10-01T15:44:49Z</time>
      </trkpt>
      <trkpt lat="47.34917" lon="7.90412">
        <ele>393</ele>
        <time>2022-10-01T15:44:50Z</time>
      </trkpt>
      <trkpt lat="47.34919" lon="7.90418">
        <ele>393</ele>
        <time>2022-10-01T15:44:51Z</time>
      </trkpt>
      <trkpt lat="47.34922" lon="7.90422">
        <ele>393.1</ele>
        <time>2022-10-01T15:44:52Z</time>
      </trkpt>
      <trkpt lat="47.34925" lon="7.90425">
        <ele>393.1</ele>
        <time>2022-10-01T15:44:53Z</time>
      </trkpt>
      <trkpt lat="47.34929" lon="7.9043">
        <ele>393.2</ele>
        <time>2022-10-01T15:44:54Z</time>
      </trkpt>
      <trkpt lat="47.34933" lon="7.90434">
        <ele>393.3</ele>
        <time>2022-10-01T15:44:55Z</time>
      </trkpt>
      <trkpt lat="47.34936" lon="7.90438">
        <ele>393.5</ele>
        <time>2022-10-01T15:44:56Z</time>
      </trkpt>
      <trkpt lat="47.34937" lon="7.9044">
        <ele>393.6</ele>
        <time>2022-10-01T15:44:57Z</time>
      </trkpt>
      <trkpt lat="47.3494" lon="7.90443">
        <ele>393.8</ele>
        <time>2022-10-01T15:44:58Z</time>
      </trkpt>
      <trkpt lat="47.34944" lon="7.90446">
        <ele>394.1</ele>
        <time>2022-10-01T15:44:59Z</time>
      </trkpt>
      <trkpt lat="47.34946" lon="7.90449">
        <ele>394.4</ele>
        <time>2022-10-01T15:45:00Z</time>
      </trkpt>
      <trkpt lat="47.34949" lon="7.90451">
        <ele>394.7</ele>
        <time>2022-10-01T15:45:01Z</time>
      </trkpt>
      <trkpt lat="47.3495" lon="7.90451">
        <ele>394.8</ele>
        <time>2022-10-01T15:45:02Z</time>
      </trkpt>
      <trkpt lat="47.34951" lon="7.90454">
        <ele>395</ele>
        <time>2022-10-01T15:45:03Z</time>
      </trkpt>
      <trkpt lat="47.34953" lon="7.90454">
        <ele>395.2</ele>
        <time>2022-10-01T15:45:04Z</time>
      </trkpt>
      <trkpt lat="47.34955" lon="7.90454">
        <ele>395.4</ele>
        <time>2022-10-01T15:45:05Z</time>
      </trkpt>
      <trkpt lat="47.34957" lon="7.90455">
        <ele>395.7</ele>
        <time>2022-10-01T15:45:06Z</time>
      </trkpt>
      <trkpt lat="47.34958" lon="7.90456">
        <ele>395.8</ele>
        <time>2022-10-01T15:45:07Z</time>
      </trkpt>
      <trkpt lat="47.34959" lon="7.90457">
        <ele>396</ele>
        <time>2022-10-01T15:45:08Z</time>
      </trkpt>
      <trkpt lat="47.3496" lon="7.90457">
        <ele>396.1</ele>
        <time>2022-10-01T15:45:09Z</time>
      </trkpt>
      <trkpt lat="47.34962" lon="7.90457">
        <ele>396.3</ele>
        <time>2022-10-01T15:45:10Z</time>
      </trkpt>
      <trkpt lat="47.34964" lon="7.90457">
        <ele>396.6</ele>
        <time>2022-10-01T15:45:11Z</time>
      </trkpt>
      <trkpt lat="47.34965" lon="7.90457">
        <ele>396.6</ele>
        <time>2022-10-01T15:45:12Z</time>
      </trkpt>
      <trkpt lat="47.34965" lon="7.90457">
        <ele>396.6</ele>
        <time>2022-10-01T15:45:13Z</time>
      </trkpt>
      <trkpt lat="47.34966" lon="7.90455">
        <ele>396.7</ele>
        <time>2022-10-01T15:45:14Z</time>
      </trkpt>
      <trkpt lat="47.34967" lon="7.90452">
        <ele>396.8</ele>
        <time>2022-10-01T15:45:15Z</time>
      </trkpt>
      <trkpt lat="47.34968" lon="7.90449">
        <ele>396.8</ele>
        <time>2022-10-01T15:45:16Z</time>
      </trkpt>
      <trkpt lat="47.34969" lon="7.90448">
        <ele>396.9</ele>
        <time>2022-10-01T15:45:17Z</time>
      </trkpt>
      <trkpt lat="47.34969" lon="7.90447">
        <ele>396.9</ele>
        <time>2022-10-01T15:45:18Z</time>
      </trkpt>
      <trkpt lat="47.34971" lon="7.90445">
        <ele>397</ele>
        <time>2022-10-01T15:45:19Z</time>
      </trkpt>
      <trkpt lat="47.34971" lon="7.90444">
        <ele>397.1</ele>
        <time>2022-10-01T15:45:20Z</time>
      </trkpt>
      <trkpt lat="47.34972" lon="7.90444">
        <ele>397.2</ele>
        <time>2022-10-01T15:45:21Z</time>
      </trkpt>
      <trkpt lat="47.34974" lon="7.90445">
        <ele>397.2</ele>
        <time>2022-10-01T15:45:22Z</time>
      </trkpt>
      <trkpt lat="47.34976" lon="7.90445">
        <ele>397.3</ele>
        <time>2022-10-01T15:45:23Z</time>
      </trkpt>
      <trkpt lat="47.34977" lon="7.90445">
        <ele>397.3</ele>
        <time>2022-10-01T15:45:24Z</time>
      </trkpt>
      <trkpt lat="47.34978" lon="7.90445">
        <ele>397.4</ele>
        <time>2022-10-01T15:45:25Z</time>
      </trkpt>
      <trkpt lat="47.34981" lon="7.90447">
        <ele>397.5</ele>
        <time>2022-10-01T15:45:26Z</time>
      </trkpt>
      <trkpt lat="47.34982" lon="7.90448">
        <ele>397.6</ele>
        <time>2022-10-01T15:45:27Z</time>
      </trkpt>
      <trkpt lat="47.34985" lon="7.9045">
        <ele>397.7</ele>
        <time>2022-10-01T15:45:28Z</time>
      </trkpt>
      <trkpt lat="47.34986" lon="7.90451">
        <ele>397.8</ele>
        <time>2022-10-01T15:45:29Z</time>
      </trkpt>
      <trkpt lat="47.34988" lon="7.90451">
        <ele>397.9</ele>
        <time>2022-10-01T15:45:30Z</time>
      </trkpt>
      <trkpt lat="47.34989" lon="7.90452">
        <ele>397.9</ele>
        <time>2022-10-01T15:45:31Z</time>
      </trkpt>
      <trkpt lat="47.3499" lon="7.90452">
        <ele>397.9</ele>
        <time>2022-10-01T15:45:32Z</time>
      </trkpt>
      <trkpt lat="47.34991" lon="7.90452">
        <ele>398</ele>
        <time>2022-10-01T15:45:33Z</time>
      </trkpt>
      <trkpt lat="47.34992" lon="7.90452">
        <ele>398</ele>
        <time>2022-10-01T15:45:34Z</time>
      </trkpt>
      <trkpt lat="47.34993" lon="7.90453">
        <ele>398</ele>
        <time>2022-10-01T15:45:35Z</time>
      </trkpt>
      <trkpt lat="47.34994" lon="7.90452">
        <ele>398.1</ele>
        <time>2022-10-01T15:45:36Z</time>
      </trkpt>
      <trkpt lat="47.34997" lon="7.90452">
        <ele>398.2</ele>
        <time>2022-10-01T15:45:37Z</time>
      </trkpt>
      <trkpt lat="47.35" lon="7.90453">
        <ele>398.3</ele>
        <time>2022-10-01T15:45:38Z</time>
      </trkpt>
      <trkpt lat="47.35001" lon="7.90453">
        <ele>398.3</ele>
        <time>2022-10-01T15:45:39Z</time>
      </trkpt>
      <trkpt lat="47.35004" lon="7.90456">
        <ele>398.4</ele>
        <time>2022-10-01T15:45:40Z</time>
      </trkpt>
      <trkpt lat="47.35004" lon="7.90457">
        <ele>398.4</ele>
        <time>2022-10-01T15:45:41Z</time>
      </trkpt>
      <trkpt lat="47.35007" lon="7.90459">
        <ele>398.5</ele>
        <time>2022-10-01T15:45:42Z</time>
      </trkpt>
      <trkpt lat="47.35008" lon="7.9046">
        <ele>398.5</ele>
        <time>2022-10-01T15:45:43Z</time>
      </trkpt>
      <trkpt lat="47.3501" lon="7.90463">
        <ele>398.6</ele>
        <time>2022-10-01T15:45:44Z</time>
      </trkpt>
      <trkpt lat="47.35011" lon="7.90464">
        <ele>398.6</ele>
        <time>2022-10-01T15:45:45Z</time>
      </trkpt>
      <trkpt lat="47.35014" lon="7.90465">
        <ele>398.6</ele>
        <time>2022-10-01T15:45:46Z</time>
      </trkpt>
      <trkpt lat="47.35016" lon="7.90466">
        <ele>398.6</ele>
        <time>2022-10-01T15:45:47Z</time>
      </trkpt>
      <trkpt lat="47.35019" lon="7.90468">
        <ele>398.7</ele>
        <time>2022-10-01T15:45:48Z</time>
      </trkpt>
      <trkpt lat="47.3502" lon="7.90469">
        <ele>398.7</ele>
        <time>2022-10-01T15:45:49Z</time>
      </trkpt>
      <trkpt lat="47.35023" lon="7.90471">
        <ele>398.7</ele>
        <time>2022-10-01T15:45:50Z</time>
      </trkpt>
      <trkpt lat="47.35025" lon="7.90471">
        <ele>398.7</ele>
        <time>2022-10-01T15:45:51Z</time>
      </trkpt>
      <trkpt lat="47.35028" lon="7.9047">
        <ele>398.7</ele>
        <time>2022-10-01T15:45:52Z</time>
      </trkpt>
      <trkpt lat="47.35031" lon="7.90467">
        <ele>398.8</ele>
        <time>2022-10-01T15:45:53Z</time>
      </trkpt>
      <trkpt lat="47.35034" lon="7.90464">
        <ele>398.8</ele>
        <time>2022-10-01T15:45:54Z</time>
      </trkpt>
      <trkpt lat="47.35036" lon="7.90463">
        <ele>398.8</ele>
        <time>2022-10-01T15:45:55Z</time>
      </trkpt>
      <trkpt lat="47.35037" lon="7.90463">
        <ele>398.8</ele>
        <time>2022-10-01T15:45:56Z</time>
      </trkpt>
      <trkpt lat="47.3504" lon="7.90459">
        <ele>398.9</ele>
        <time>2022-10-01T15:45:57Z</time>
      </trkpt>
      <trkpt lat="47.35041" lon="7.90458">
        <ele>398.9</ele>
        <time>2022-10-01T15:45:58Z</time>
      </trkpt>
      <trkpt lat="47.35044" lon="7.90457">
        <ele>398.9</ele>
        <time>2022-10-01T15:45:59Z</time>
      </trkpt>
      <trkpt lat="47.35045" lon="7.90456">
        <ele>398.9</ele>
        <time>2022-10-01T15:46:00Z</time>
      </trkpt>
      <trkpt lat="47.35049" lon="7.90457">
        <ele>398.9</ele>
        <time>2022-10-01T15:46:01Z</time>
      </trkpt>
      <trkpt lat="47.3505" lon="7.90458">
        <ele>398.9</ele>
        <time>2022-10-01T15:46:02Z</time>
      </trkpt>
      <trkpt lat="47.35053" lon="7.90458">
        <ele>398.9</ele>
        <time>2022-10-01T15:46:03Z</time>
      </trkpt>
      <trkpt lat="47.35054" lon="7.90458">
        <ele>398.9</ele>
        <time>2022-10-01T15:46:04Z</time>
      </trkpt>
      <trkpt lat="47.35058" lon="7.90458">
        <ele>398.8</ele>
        <time>2022-10-01T15:46:05Z</time>
      </trkpt>
      <trkpt lat="47.35059" lon="7.90458">
        <ele>398.8</ele>
        <time>2022-10-01T15:46:06Z</time>
      </trkpt>
      <trkpt lat="47.35062" lon="7.90457">
        <ele>398.7</ele>
        <time>2022-10-01T15:46:07Z</time>
      </trkpt>
      <trkpt lat="47.35065" lon="7.90456">
        <ele>398.7</ele>
        <time>2022-10-01T15:46:08Z</time>
      </trkpt>
      <trkpt lat="47.35068" lon="7.90457">
        <ele>398.7</ele>
        <time>2022-10-01T15:46:09Z</time>
      </trkpt>
      <trkpt lat="47.35071" lon="7.90457">
        <ele>398.6</ele>
        <time>2022-10-01T15:46:10Z</time>
      </trkpt>
      <trkpt lat="47.35074" lon="7.90457">
        <ele>398.5</ele>
        <time>2022-10-01T15:46:11Z</time>
      </trkpt>
      <trkpt lat="47.35078" lon="7.90458">
        <ele>398.5</ele>
        <time>2022-10-01T15:46:12Z</time>
      </trkpt>
      <trkpt lat="47.35081" lon="7.90458">
        <ele>398.4</ele>
        <time>2022-10-01T15:46:13Z</time>
      </trkpt>
      <trkpt lat="47.35084" lon="7.90459">
        <ele>398.4</ele>
        <time>2022-10-01T15:46:14Z</time>
      </trkpt>
      <trkpt lat="47.35089" lon="7.9046">
        <ele>398.3</ele>
        <time>2022-10-01T15:46:15Z</time>
      </trkpt>
      <trkpt lat="47.35093" lon="7.90461">
        <ele>398.3</ele>
        <time>2022-10-01T15:46:16Z</time>
      </trkpt>
      <trkpt lat="47.35098" lon="7.90462">
        <ele>398.2</ele>
        <time>2022-10-01T15:46:17Z</time>
      </trkpt>
      <trkpt lat="47.35102" lon="7.90462">
        <ele>398.1</ele>
        <time>2022-10-01T15:46:18Z</time>
      </trkpt>
      <trkpt lat="47.35107" lon="7.90463">
        <ele>398.1</ele>
        <time>2022-10-01T15:46:19Z</time>
      </trkpt>
      <trkpt lat="47.35111" lon="7.90464">
        <ele>398</ele>
        <time>2022-10-01T15:46:20Z</time>
      </trkpt>
      <trkpt lat="47.35116" lon="7.90464">
        <ele>398</ele>
        <time>2022-10-01T15:46:21Z</time>
      </trkpt>
      <trkpt lat="47.35119" lon="7.90464">
        <ele>398</ele>
        <time>2022-10-01T15:46:22Z</time>
      </trkpt>
      <trkpt lat="47.35123" lon="7.90465">
        <ele>397.9</ele>
        <time>2022-10-01T15:46:23Z</time>
      </trkpt>
      <trkpt lat="47.35128" lon="7.90466">
        <ele>397.9</ele>
        <time>2022-10-01T15:46:24Z</time>
      </trkpt>
      <trkpt lat="47.35132" lon="7.90468">
        <ele>397.9</ele>
        <time>2022-10-01T15:46:25Z</time>
      </trkpt>
      <trkpt lat="47.35137" lon="7.90468">
        <ele>397.8</ele>
        <time>2022-10-01T15:46:26Z</time>
      </trkpt>
      <trkpt lat="47.35141" lon="7.9047">
        <ele>397.8</ele>
        <time>2022-10-01T15:46:27Z</time>
      </trkpt>
      <trkpt lat="47.35145" lon="7.9047">
        <ele>397.7</ele>
        <time>2022-10-01T15:46:28Z</time>
      </trkpt>
      <trkpt lat="47.35149" lon="7.90472">
        <ele>397.7</ele>
        <time>2022-10-01T15:46:29Z</time>
      </trkpt>
      <trkpt lat="47.35153" lon="7.90471">
        <ele>397.7</ele>
        <time>2022-10-01T15:46:30Z</time>
      </trkpt>
      <trkpt lat="47.35156" lon="7.90473">
        <ele>397.6</ele>
        <time>2022-10-01T15:46:31Z</time>
      </trkpt>
      <trkpt lat="47.35161" lon="7.90474">
        <ele>397.6</ele>
        <time>2022-10-01T15:46:32Z</time>
      </trkpt>
      <trkpt lat="47.35165" lon="7.90474">
        <ele>397.6</ele>
        <time>2022-10-01T15:46:33Z</time>
      </trkpt>
      <trkpt lat="47.35167" lon="7.90474">
        <ele>397.6</ele>
        <time>2022-10-01T15:46:34Z</time>
      </trkpt>
      <trkpt lat="47.3517" lon="7.90477">
        <ele>397.6</ele>
        <time>2022-10-01T15:46:35Z</time>
      </trkpt>
      <trkpt lat="47.35173" lon="7.90477">
        <ele>397.6</ele>
        <time>2022-10-01T15:46:36Z</time>
      </trkpt>
      <trkpt lat="47.35173" lon="7.90477">
        <ele>397.6</ele>
        <time>2022-10-01T15:46:37Z</time>
      </trkpt>
      <trkpt lat="47.35173" lon="7.90477">
        <ele>397.6</ele>
        <time>2022-10-01T15:46:38Z</time>
      </trkpt>
      <trkpt lat="47.35174" lon="7.90476">
        <ele>397.6</ele>
        <time>2022-10-01T15:46:39Z</time>
      </trkpt>
      <trkpt lat="47.35174" lon="7.90476">
        <ele>397.6</ele>
        <time>2022-10-01T15:46:40Z</time>
      </trkpt>
      <trkpt lat="47.35174" lon="7.90476">
        <ele>397.6</ele>
        <time>2022-10-01T15:46:41Z</time>
      </trkpt>
      <trkpt lat="47.35174" lon="7.90475">
        <ele>397.6</ele>
        <time>2022-10-01T15:46:42Z</time>
      </trkpt>
      <trkpt lat="47.35174" lon="7.90475">
        <ele>397.6</ele>
        <time>2022-10-01T15:46:43Z</time>
      </trkpt>
      <trkpt lat="47.35175" lon="7.90474">
        <ele>397.6</ele>
        <time>2022-10-01T15:46:44Z</time>
      </trkpt>
      <trkpt lat="47.35175" lon="7.90474">
        <ele>397.6</ele>
        <time>2022-10-01T15:46:45Z</time>
      </trkpt>
      <trkpt lat="47.35175" lon="7.90473">
        <ele>397.6</ele>
        <time>2022-10-01T15:46:46Z</time>
      </trkpt>
      <trkpt lat="47.35175" lon="7.90473">
        <ele>397.6</ele>
        <time>2022-10-01T15:46:47Z</time>
      </trkpt>
      <trkpt lat="47.35175" lon="7.90472">
        <ele>397.6</ele>
        <time>2022-10-01T15:46:48Z</time>
      </trkpt>
      <trkpt lat="47.35175" lon="7.90472">
        <ele>397.6</ele>
        <time>2022-10-01T15:46:49Z</time>
      </trkpt>
      <trkpt lat="47.35176" lon="7.90471">
        <ele>397.6</ele>
        <time>2022-10-01T15:46:50Z</time>
      </trkpt>
      <trkpt lat="47.35176" lon="7.90471">
        <ele>397.6</ele>
        <time>2022-10-01T15:46:51Z</time>
      </trkpt>
      <trkpt lat="47.35176" lon="7.9047">
        <ele>397.6</ele>
        <time>2022-10-01T15:47:46Z</time>
      </trkpt>
      <trkpt lat="47.35176" lon="7.9047">
        <ele>397.6</ele>
        <time>2022-10-01T15:47:47Z</time>
      </trkpt>
      <trkpt lat="47.35176" lon="7.9047">
        <ele>397.6</ele>
        <time>2022-10-01T15:47:48Z</time>
      </trkpt>
      <trkpt lat="47.35173" lon="7.90469">
        <ele>397.6</ele>
        <time>2022-10-01T15:47:49Z</time>
      </trkpt>
      <trkpt lat="47.35169" lon="7.90468">
        <ele>397.6</ele>
        <time>2022-10-01T15:47:50Z</time>
      </trkpt>
      <trkpt lat="47.35167" lon="7.90468">
        <ele>397.6</ele>
        <time>2022-10-01T15:47:51Z</time>
      </trkpt>
      <trkpt lat="47.35163" lon="7.90467">
        <ele>397.6</ele>
        <time>2022-10-01T15:47:52Z</time>
      </trkpt>
      <trkpt lat="47.35162" lon="7.90467">
        <ele>397.6</ele>
        <time>2022-10-01T15:47:53Z</time>
      </trkpt>
      <trkpt lat="47.35159" lon="7.90466">
        <ele>397.6</ele>
        <time>2022-10-01T15:47:54Z</time>
      </trkpt>
      <trkpt lat="47.35157" lon="7.90466">
        <ele>397.6</ele>
        <time>2022-10-01T15:47:55Z</time>
      </trkpt>
      <trkpt lat="47.35153" lon="7.90464">
        <ele>397.7</ele>
        <time>2022-10-01T15:47:56Z</time>
      </trkpt>
      <trkpt lat="47.3515" lon="7.90463">
        <ele>397.7</ele>
        <time>2022-10-01T15:47:57Z</time>
      </trkpt>
      <trkpt lat="47.35146" lon="7.90461">
        <ele>397.7</ele>
        <time>2022-10-01T15:47:58Z</time>
      </trkpt>
      <trkpt lat="47.35144" lon="7.9046">
        <ele>397.8</ele>
        <time>2022-10-01T15:47:59Z</time>
      </trkpt>
      <trkpt lat="47.35139" lon="7.9046">
        <ele>397.8</ele>
        <time>2022-10-01T15:48:00Z</time>
      </trkpt>
      <trkpt lat="47.35135" lon="7.90461">
        <ele>397.8</ele>
        <time>2022-10-01T15:48:01Z</time>
      </trkpt>
      <trkpt lat="47.35131" lon="7.9046">
        <ele>397.9</ele>
        <time>2022-10-01T15:48:02Z</time>
      </trkpt>
      <trkpt lat="47.35128" lon="7.90461">
        <ele>397.9</ele>
        <time>2022-10-01T15:48:03Z</time>
      </trkpt>
      <trkpt lat="47.35124" lon="7.90461">
        <ele>397.9</ele>
        <time>2022-10-01T15:48:04Z</time>
      </trkpt>
      <trkpt lat="47.3512" lon="7.90459">
        <ele>398</ele>
        <time>2022-10-01T15:48:05Z</time>
      </trkpt>
      <trkpt lat="47.35117" lon="7.90458">
        <ele>398</ele>
        <time>2022-10-01T15:48:06Z</time>
      </trkpt>
      <trkpt lat="47.35114" lon="7.90458">
        <ele>398</ele>
        <time>2022-10-01T15:48:07Z</time>
      </trkpt>
      <trkpt lat="47.3511" lon="7.90457">
        <ele>398.1</ele>
        <time>2022-10-01T15:48:08Z</time>
      </trkpt>
      <trkpt lat="47.35106" lon="7.90457">
        <ele>398.1</ele>
        <time>2022-10-01T15:48:09Z</time>
      </trkpt>
      <trkpt lat="47.35103" lon="7.90456">
        <ele>398.1</ele>
        <time>2022-10-01T15:48:10Z</time>
      </trkpt>
      <trkpt lat="47.35098" lon="7.90455">
        <ele>398.2</ele>
        <time>2022-10-01T15:48:11Z</time>
      </trkpt>
      <trkpt lat="47.35094" lon="7.90455">
        <ele>398.2</ele>
        <time>2022-10-01T15:48:12Z</time>
      </trkpt>
      <trkpt lat="47.35091" lon="7.90454">
        <ele>398.3</ele>
        <time>2022-10-01T15:48:13Z</time>
      </trkpt>
      <trkpt lat="47.35087" lon="7.90453">
        <ele>398.3</ele>
        <time>2022-10-01T15:48:14Z</time>
      </trkpt>
      <trkpt lat="47.35082" lon="7.90452">
        <ele>398.4</ele>
        <time>2022-10-01T15:48:15Z</time>
      </trkpt>
      <trkpt lat="47.35081" lon="7.90451">
        <ele>398.4</ele>
        <time>2022-10-01T15:48:16Z</time>
      </trkpt>
      <trkpt lat="47.35077" lon="7.90452">
        <ele>398.5</ele>
        <time>2022-10-01T15:48:17Z</time>
      </trkpt>
      <trkpt lat="47.35073" lon="7.90451">
        <ele>398.6</ele>
        <time>2022-10-01T15:48:18Z</time>
      </trkpt>
      <trkpt lat="47.3507" lon="7.9045">
        <ele>398.6</ele>
        <time>2022-10-01T15:48:19Z</time>
      </trkpt>
      <trkpt lat="47.35066" lon="7.9045">
        <ele>398.7</ele>
        <time>2022-10-01T15:48:20Z</time>
      </trkpt>
      <trkpt lat="47.35063" lon="7.90449">
        <ele>398.7</ele>
        <time>2022-10-01T15:48:21Z</time>
      </trkpt>
      <trkpt lat="47.3506" lon="7.90448">
        <ele>398.8</ele>
        <time>2022-10-01T15:48:22Z</time>
      </trkpt>
      <trkpt lat="47.35057" lon="7.90447">
        <ele>398.8</ele>
        <time>2022-10-01T15:48:23Z</time>
      </trkpt>
      <trkpt lat="47.35054" lon="7.90448">
        <ele>398.9</ele>
        <time>2022-10-01T15:48:24Z</time>
      </trkpt>
      <trkpt lat="47.35051" lon="7.9045">
        <ele>398.9</ele>
        <time>2022-10-01T15:48:25Z</time>
      </trkpt>
      <trkpt lat="47.35048" lon="7.90452">
        <ele>399</ele>
        <time>2022-10-01T15:48:26Z</time>
      </trkpt>
      <trkpt lat="47.35046" lon="7.90455">
        <ele>398.9</ele>
        <time>2022-10-01T15:48:27Z</time>
      </trkpt>
      <trkpt lat="47.35043" lon="7.90458">
        <ele>398.9</ele>
        <time>2022-10-01T15:48:28Z</time>
      </trkpt>
      <trkpt lat="47.3504" lon="7.9046">
        <ele>398.9</ele>
        <time>2022-10-01T15:48:29Z</time>
      </trkpt>
      <trkpt lat="47.35037" lon="7.90462">
        <ele>398.8</ele>
        <time>2022-10-01T15:48:30Z</time>
      </trkpt>
      <trkpt lat="47.35035" lon="7.90464">
        <ele>398.8</ele>
        <time>2022-10-01T15:48:31Z</time>
      </trkpt>
      <trkpt lat="47.35031" lon="7.90464">
        <ele>398.8</ele>
        <time>2022-10-01T15:48:32Z</time>
      </trkpt>
      <trkpt lat="47.35027" lon="7.90464">
        <ele>398.7</ele>
        <time>2022-10-01T15:48:33Z</time>
      </trkpt>
      <trkpt lat="47.35025" lon="7.90463">
        <ele>398.7</ele>
        <time>2022-10-01T15:48:34Z</time>
      </trkpt>
      <trkpt lat="47.35022" lon="7.90461">
        <ele>398.7</ele>
        <time>2022-10-01T15:48:35Z</time>
      </trkpt>
      <trkpt lat="47.35019" lon="7.90459">
        <ele>398.6</ele>
        <time>2022-10-01T15:48:36Z</time>
      </trkpt>
      <trkpt lat="47.35016" lon="7.90458">
        <ele>398.6</ele>
        <time>2022-10-01T15:48:37Z</time>
      </trkpt>
      <trkpt lat="47.35014" lon="7.90457">
        <ele>398.6</ele>
        <time>2022-10-01T15:48:38Z</time>
      </trkpt>
      <trkpt lat="47.3501" lon="7.90456">
        <ele>398.5</ele>
        <time>2022-10-01T15:48:39Z</time>
      </trkpt>
      <trkpt lat="47.35006" lon="7.90457">
        <ele>398.4</ele>
        <time>2022-10-01T15:48:40Z</time>
      </trkpt>
      <trkpt lat="47.35004" lon="7.90457">
        <ele>398.4</ele>
        <time>2022-10-01T15:48:41Z</time>
      </trkpt>
      <trkpt lat="47.35002" lon="7.90454">
        <ele>398.3</ele>
        <time>2022-10-01T15:48:42Z</time>
      </trkpt>
      <trkpt lat="47.34999" lon="7.90451">
        <ele>398.2</ele>
        <time>2022-10-01T15:48:43Z</time>
      </trkpt>
      <trkpt lat="47.34995" lon="7.90449">
        <ele>398.1</ele>
        <time>2022-10-01T15:48:44Z</time>
      </trkpt>
      <trkpt lat="47.34994" lon="7.90448">
        <ele>398.1</ele>
        <time>2022-10-01T15:48:45Z</time>
      </trkpt>
      <trkpt lat="47.3499" lon="7.90445">
        <ele>397.9</ele>
        <time>2022-10-01T15:48:46Z</time>
      </trkpt>
      <trkpt lat="47.34989" lon="7.90444">
        <ele>397.8</ele>
        <time>2022-10-01T15:48:47Z</time>
      </trkpt>
      <trkpt lat="47.34984" lon="7.90441">
        <ele>397.5</ele>
        <time>2022-10-01T15:48:48Z</time>
      </trkpt>
      <trkpt lat="47.34981" lon="7.90442">
        <ele>397.5</ele>
        <time>2022-10-01T15:48:49Z</time>
      </trkpt>
      <trkpt lat="47.34979" lon="7.90442">
        <ele>397.5</ele>
        <time>2022-10-01T15:48:50Z</time>
      </trkpt>
      <trkpt lat="47.34976" lon="7.90443">
        <ele>397.5</ele>
        <time>2022-10-01T15:48:51Z</time>
      </trkpt>
      <trkpt lat="47.34973" lon="7.90442">
        <ele>397</ele>
        <time>2022-10-01T15:48:52Z</time>
      </trkpt>
      <trkpt lat="47.34972" lon="7.90446">
        <ele>397</ele>
        <time>2022-10-01T15:48:53Z</time>
      </trkpt>
      <trkpt lat="47.34971" lon="7.90451">
        <ele>396.9</ele>
        <time>2022-10-01T15:48:54Z</time>
      </trkpt>
      <trkpt lat="47.34971" lon="7.90452">
        <ele>396.9</ele>
        <time>2022-10-01T15:48:55Z</time>
      </trkpt>
      <trkpt lat="47.34968" lon="7.90456">
        <ele>396.6</ele>
        <time>2022-10-01T15:48:56Z</time>
      </trkpt>
      <trkpt lat="47.34967" lon="7.90459">
        <ele>396.5</ele>
        <time>2022-10-01T15:48:57Z</time>
      </trkpt>
      <trkpt lat="47.34966" lon="7.9046">
        <ele>396.5</ele>
        <time>2022-10-01T15:48:58Z</time>
      </trkpt>
      <trkpt lat="47.34963" lon="7.9046">
        <ele>396.5</ele>
        <time>2022-10-01T15:48:59Z</time>
      </trkpt>
      <trkpt lat="47.34962" lon="7.90462">
        <ele>396.4</ele>
        <time>2022-10-01T15:49:00Z</time>
      </trkpt>
      <trkpt lat="47.34961" lon="7.90465">
        <ele>396.4</ele>
        <time>2022-10-01T15:49:01Z</time>
      </trkpt>
      <trkpt lat="47.34961" lon="7.90467">
        <ele>396.4</ele>
        <time>2022-10-01T15:49:02Z</time>
      </trkpt>
      <trkpt lat="47.34959" lon="7.90472">
        <ele>396.3</ele>
        <time>2022-10-01T15:49:03Z</time>
      </trkpt>
      <trkpt lat="47.34958" lon="7.90474">
        <ele>396.3</ele>
        <time>2022-10-01T15:49:04Z</time>
      </trkpt>
      <trkpt lat="47.34957" lon="7.90478">
        <ele>396.3</ele>
        <time>2022-10-01T15:49:05Z</time>
      </trkpt>
      <trkpt lat="47.34956" lon="7.90482">
        <ele>396.2</ele>
        <time>2022-10-01T15:49:06Z</time>
      </trkpt>
      <trkpt lat="47.34955" lon="7.90488">
        <ele>396.2</ele>
        <time>2022-10-01T15:49:07Z</time>
      </trkpt>
      <trkpt lat="47.34954" lon="7.90492">
        <ele>396.2</ele>
        <time>2022-10-01T15:49:08Z</time>
      </trkpt>
      <trkpt lat="47.34952" lon="7.90495">
        <ele>396.1</ele>
        <time>2022-10-01T15:49:09Z</time>
      </trkpt>
      <trkpt lat="47.34952" lon="7.905">
        <ele>396.1</ele>
        <time>2022-10-01T15:49:10Z</time>
      </trkpt>
      <trkpt lat="47.34951" lon="7.90505">
        <ele>396.1</ele>
        <time>2022-10-01T15:49:11Z</time>
      </trkpt>
      <trkpt lat="47.3495" lon="7.9051">
        <ele>396</ele>
        <time>2022-10-01T15:49:12Z</time>
      </trkpt>
      <trkpt lat="47.3495" lon="7.90514">
        <ele>396</ele>
        <time>2022-10-01T15:49:13Z</time>
      </trkpt>
      <trkpt lat="47.3495" lon="7.9052">
        <ele>396</ele>
        <time>2022-10-01T15:49:14Z</time>
      </trkpt>
      <trkpt lat="47.34949" lon="7.90525">
        <ele>395.9</ele>
        <time>2022-10-01T15:49:15Z</time>
      </trkpt>
      <trkpt lat="47.34948" lon="7.90526">
        <ele>395.9</ele>
        <time>2022-10-01T15:49:16Z</time>
      </trkpt>
      <trkpt lat="47.34946" lon="7.9053">
        <ele>395.9</ele>
        <time>2022-10-01T15:49:17Z</time>
      </trkpt>
      <trkpt lat="47.34944" lon="7.90537">
        <ele>395.9</ele>
        <time>2022-10-01T15:49:18Z</time>
      </trkpt>
      <trkpt lat="47.34943" lon="7.90544">
        <ele>395.8</ele>
        <time>2022-10-01T15:49:19Z</time>
      </trkpt>
      <trkpt lat="47.34941" lon="7.90551">
        <ele>395.8</ele>
        <time>2022-10-01T15:49:20Z</time>
      </trkpt>
      <trkpt lat="47.34942" lon="7.90559">
        <ele>395.8</ele>
        <time>2022-10-01T15:49:21Z</time>
      </trkpt>
      <trkpt lat="47.34941" lon="7.90568">
        <ele>395.8</ele>
        <time>2022-10-01T15:49:22Z</time>
      </trkpt>
      <trkpt lat="47.3494" lon="7.90573">
        <ele>395.8</ele>
        <time>2022-10-01T15:49:23Z</time>
      </trkpt>
      <trkpt lat="47.34939" lon="7.90576">
        <ele>395.8</ele>
        <time>2022-10-01T15:49:24Z</time>
      </trkpt>
      <trkpt lat="47.3494" lon="7.90578">
        <ele>395.8</ele>
        <time>2022-10-01T15:49:25Z</time>
      </trkpt>
      <trkpt lat="47.3494" lon="7.90578">
        <ele>395.8</ele>
        <time>2022-10-01T15:49:26Z</time>
      </trkpt>
      <trkpt lat="47.3494" lon="7.90579">
        <ele>395.8</ele>
        <time>2022-10-01T15:49:27Z</time>
      </trkpt>
      <trkpt lat="47.3494" lon="7.9058">
        <ele>395.7</ele>
        <time>2022-10-01T15:49:28Z</time>
      </trkpt>
      <trkpt lat="47.3494" lon="7.90582">
        <ele>395.7</ele>
        <time>2022-10-01T15:49:29Z</time>
      </trkpt>
      <trkpt lat="47.3494" lon="7.90583">
        <ele>395.6</ele>
        <time>2022-10-01T15:49:30Z</time>
      </trkpt>
      <trkpt lat="47.3494" lon="7.90584">
        <ele>395.6</ele>
        <time>2022-10-01T15:49:31Z</time>
      </trkpt>
      <trkpt lat="47.3494" lon="7.90585">
        <ele>395.6</ele>
        <time>2022-10-01T15:49:32Z</time>
      </trkpt>
      <trkpt lat="47.3494" lon="7.90586">
        <ele>395.6</ele>
        <time>2022-10-01T15:49:33Z</time>
      </trkpt>
      <trkpt lat="47.3494" lon="7.90587">
        <ele>395.5</ele>
        <time>2022-10-01T15:49:34Z</time>
      </trkpt>
      <trkpt lat="47.3494" lon="7.90588">
        <ele>395.5</ele>
        <time>2022-10-01T15:50:14Z</time>
      </trkpt>
      <trkpt lat="47.3494" lon="7.9059">
        <ele>395.5</ele>
        <time>2022-10-01T15:50:15Z</time>
      </trkpt>
      <trkpt lat="47.3494" lon="7.90591">
        <ele>395.5</ele>
        <time>2022-10-01T15:50:16Z</time>
      </trkpt>
      <trkpt lat="47.3494" lon="7.90592">
        <ele>395.5</ele>
        <time>2022-10-01T15:50:17Z</time>
      </trkpt>
      <trkpt lat="47.3494" lon="7.90593">
        <ele>395.5</ele>
        <time>2022-10-01T15:50:18Z</time>
      </trkpt>
      <trkpt lat="47.3494" lon="7.90594">
        <ele>395.4</ele>
        <time>2022-10-01T15:50:19Z</time>
      </trkpt>
      <trkpt lat="47.3494" lon="7.90595">
        <ele>395.4</ele>
        <time>2022-10-01T15:50:20Z</time>
      </trkpt>
      <trkpt lat="47.3494" lon="7.90596">
        <ele>395.4</ele>
        <time>2022-10-01T15:50:21Z</time>
      </trkpt>
      <trkpt lat="47.3494" lon="7.90597">
        <ele>395.4</ele>
        <time>2022-10-01T15:50:22Z</time>
      </trkpt>
      <trkpt lat="47.3494" lon="7.90599">
        <ele>395.4</ele>
        <time>2022-10-01T15:50:23Z</time>
      </trkpt>
      <trkpt lat="47.3494" lon="7.906">
        <ele>395.4</ele>
        <time>2022-10-01T15:50:24Z</time>
      </trkpt>
      <trkpt lat="47.34939" lon="7.90601">
        <ele>395.3</ele>
        <time>2022-10-01T15:50:25Z</time>
      </trkpt>
      <trkpt lat="47.34939" lon="7.90602">
        <ele>395.3</ele>
        <time>2022-10-01T15:50:35Z</time>
      </trkpt>
      <trkpt lat="47.34939" lon="7.90603">
        <ele>395.3</ele>
        <time>2022-10-01T15:50:36Z</time>
      </trkpt>
      <trkpt lat="47.3494" lon="7.90606">
        <ele>395.3</ele>
        <time>2022-10-01T15:50:37Z</time>
      </trkpt>
      <trkpt lat="47.34939" lon="7.90608">
        <ele>395.2</ele>
        <time>2022-10-01T15:50:38Z</time>
      </trkpt>
      <trkpt lat="47.3494" lon="7.90612">
        <ele>395.2</ele>
        <time>2022-10-01T15:50:39Z</time>
      </trkpt>
      <trkpt lat="47.3494" lon="7.90614">
        <ele>395.2</ele>
        <time>2022-10-01T15:50:40Z</time>
      </trkpt>
      <trkpt lat="47.3494" lon="7.90618">
        <ele>395.2</ele>
        <time>2022-10-01T15:50:41Z</time>
      </trkpt>
      <trkpt lat="47.34941" lon="7.90624">
        <ele>395.2</ele>
        <time>2022-10-01T15:50:42Z</time>
      </trkpt>
      <trkpt lat="47.34943" lon="7.90629">
        <ele>394.8</ele>
        <time>2022-10-01T15:50:43Z</time>
      </trkpt>
      <trkpt lat="47.34943" lon="7.90634">
        <ele>394.7</ele>
        <time>2022-10-01T15:50:44Z</time>
      </trkpt>
      <trkpt lat="47.34944" lon="7.90639">
        <ele>394.6</ele>
        <time>2022-10-01T15:50:45Z</time>
      </trkpt>
      <trkpt lat="47.34945" lon="7.90644">
        <ele>394.5</ele>
        <time>2022-10-01T15:50:46Z</time>
      </trkpt>
      <trkpt lat="47.34946" lon="7.90651">
        <ele>394.3</ele>
        <time>2022-10-01T15:50:47Z</time>
      </trkpt>
      <trkpt lat="47.34946" lon="7.90658">
        <ele>394.1</ele>
        <time>2022-10-01T15:50:48Z</time>
      </trkpt>
      <trkpt lat="47.34946" lon="7.90664">
        <ele>394</ele>
        <time>2022-10-01T15:50:49Z</time>
      </trkpt>
      <trkpt lat="47.34947" lon="7.90671">
        <ele>393.8</ele>
        <time>2022-10-01T15:50:50Z</time>
      </trkpt>
      <trkpt lat="47.34948" lon="7.90679">
        <ele>393.6</ele>
        <time>2022-10-01T15:50:51Z</time>
      </trkpt>
      <trkpt lat="47.34948" lon="7.90687">
        <ele>393.5</ele>
        <time>2022-10-01T15:50:52Z</time>
      </trkpt>
      <trkpt lat="47.34948" lon="7.90694">
        <ele>393.3</ele>
        <time>2022-10-01T15:50:53Z</time>
      </trkpt>
      <trkpt lat="47.34947" lon="7.90701">
        <ele>393.2</ele>
        <time>2022-10-01T15:50:54Z</time>
      </trkpt>
      <trkpt lat="47.34947" lon="7.90711">
        <ele>393</ele>
        <time>2022-10-01T15:50:55Z</time>
      </trkpt>
      <trkpt lat="47.34946" lon="7.90719">
        <ele>392.9</ele>
        <time>2022-10-01T15:50:56Z</time>
      </trkpt>
      <trkpt lat="47.34946" lon="7.90727">
        <ele>392.9</ele>
        <time>2022-10-01T15:50:57Z</time>
      </trkpt>
      <trkpt lat="47.34947" lon="7.90734">
        <ele>392.9</ele>
        <time>2022-10-01T15:50:58Z</time>
      </trkpt>
      <trkpt lat="47.34949" lon="7.9074">
        <ele>392.9</ele>
        <time>2022-10-01T15:50:59Z</time>
      </trkpt>
      <trkpt lat="47.34949" lon="7.90743">
        <ele>392.9</ele>
        <time>2022-10-01T15:51:00Z</time>
      </trkpt>
      <trkpt lat="47.3495" lon="7.90752">
        <ele>392.9</ele>
        <time>2022-10-01T15:51:01Z</time>
      </trkpt>
      <trkpt lat="47.3495" lon="7.90763">
        <ele>392.9</ele>
        <time>2022-10-01T15:51:02Z</time>
      </trkpt>
      <trkpt lat="47.3495" lon="7.90772">
        <ele>393</ele>
        <time>2022-10-01T15:51:03Z</time>
      </trkpt>
      <trkpt lat="47.34947" lon="7.90785">
        <ele>393</ele>
        <time>2022-10-01T15:51:04Z</time>
      </trkpt>
      <trkpt lat="47.34945" lon="7.90792">
        <ele>393.1</ele>
        <time>2022-10-01T15:51:05Z</time>
      </trkpt>
      <trkpt lat="47.34945" lon="7.90798">
        <ele>393.3</ele>
        <time>2022-10-01T15:51:06Z</time>
      </trkpt>
      <trkpt lat="47.34945" lon="7.90804">
        <ele>393.5</ele>
        <time>2022-10-01T15:51:07Z</time>
      </trkpt>
      <trkpt lat="47.34945" lon="7.90809">
        <ele>393.6</ele>
        <time>2022-10-01T15:51:08Z</time>
      </trkpt>
      <trkpt lat="47.34944" lon="7.90816">
        <ele>393.8</ele>
        <time>2022-10-01T15:51:09Z</time>
      </trkpt>
      <trkpt lat="47.34944" lon="7.9082">
        <ele>393.8</ele>
        <time>2022-10-01T15:51:10Z</time>
      </trkpt>
      <trkpt lat="47.34944" lon="7.90825">
        <ele>394</ele>
        <time>2022-10-01T15:51:11Z</time>
      </trkpt>
      <trkpt lat="47.34943" lon="7.9083">
        <ele>394.1</ele>
        <time>2022-10-01T15:51:12Z</time>
      </trkpt>
      <trkpt lat="47.34942" lon="7.90835">
        <ele>394.2</ele>
        <time>2022-10-01T15:51:13Z</time>
      </trkpt>
      <trkpt lat="47.34941" lon="7.9084">
        <ele>394.3</ele>
        <time>2022-10-01T15:51:14Z</time>
      </trkpt>
      <trkpt lat="47.34939" lon="7.90843">
        <ele>394.4</ele>
        <time>2022-10-01T15:51:15Z</time>
      </trkpt>
      <trkpt lat="47.34938" lon="7.90847">
        <ele>394.5</ele>
        <time>2022-10-01T15:51:16Z</time>
      </trkpt>
      <trkpt lat="47.34937" lon="7.90852">
        <ele>394.7</ele>
        <time>2022-10-01T15:51:17Z</time>
      </trkpt>
      <trkpt lat="47.34937" lon="7.90854">
        <ele>394.8</ele>
        <time>2022-10-01T15:51:18Z</time>
      </trkpt>
      <trkpt lat="47.34939" lon="7.90858">
        <ele>394.9</ele>
        <time>2022-10-01T15:51:19Z</time>
      </trkpt>
      <trkpt lat="47.34939" lon="7.90861">
        <ele>395.1</ele>
        <time>2022-10-01T15:51:20Z</time>
      </trkpt>
      <trkpt lat="47.34939" lon="7.90868">
        <ele>395.3</ele>
        <time>2022-10-01T15:51:21Z</time>
      </trkpt>
      <trkpt lat="47.34941" lon="7.90873">
        <ele>395.5</ele>
        <time>2022-10-01T15:51:22Z</time>
      </trkpt>
      <trkpt lat="47.34941" lon="7.90875">
        <ele>395.5</ele>
        <time>2022-10-01T15:51:23Z</time>
      </trkpt>
      <trkpt lat="47.3494" lon="7.90881">
        <ele>395.7</ele>
        <time>2022-10-01T15:51:24Z</time>
      </trkpt>
      <trkpt lat="47.3494" lon="7.90884">
        <ele>395.9</ele>
        <time>2022-10-01T15:51:25Z</time>
      </trkpt>
      <trkpt lat="47.3494" lon="7.90888">
        <ele>396</ele>
        <time>2022-10-01T15:51:26Z</time>
      </trkpt>
      <trkpt lat="47.3494" lon="7.90892">
        <ele>396.1</ele>
        <time>2022-10-01T15:51:27Z</time>
      </trkpt>
      <trkpt lat="47.3494" lon="7.90896">
        <ele>396.3</ele>
        <time>2022-10-01T15:51:28Z</time>
      </trkpt>
      <trkpt lat="47.34939" lon="7.90902">
        <ele>396.5</ele>
        <time>2022-10-01T15:51:29Z</time>
      </trkpt>
      <trkpt lat="47.34939" lon="7.90904">
        <ele>396.6</ele>
        <time>2022-10-01T15:51:30Z</time>
      </trkpt>
      <trkpt lat="47.34939" lon="7.9091">
        <ele>396.8</ele>
        <time>2022-10-01T15:51:31Z</time>
      </trkpt>
      <trkpt lat="47.34939" lon="7.90912">
        <ele>396.9</ele>
        <time>2022-10-01T15:51:32Z</time>
      </trkpt>
      <trkpt lat="47.3494" lon="7.90916">
        <ele>397</ele>
        <time>2022-10-01T15:51:33Z</time>
      </trkpt>
      <trkpt lat="47.34939" lon="7.90921">
        <ele>397.2</ele>
        <time>2022-10-01T15:51:34Z</time>
      </trkpt>
      <trkpt lat="47.3494" lon="7.90923">
        <ele>397.3</ele>
        <time>2022-10-01T15:51:35Z</time>
      </trkpt>
      <trkpt lat="47.34939" lon="7.90927">
        <ele>397.4</ele>
        <time>2022-10-01T15:51:36Z</time>
      </trkpt>
      <trkpt lat="47.3494" lon="7.90931">
        <ele>397.6</ele>
        <time>2022-10-01T15:51:37Z</time>
      </trkpt>
      <trkpt lat="47.34938" lon="7.90935">
        <ele>397.8</ele>
        <time>2022-10-01T15:51:38Z</time>
      </trkpt>
      <trkpt lat="47.34938" lon="7.9094">
        <ele>397.9</ele>
        <time>2022-10-01T15:51:39Z</time>
      </trkpt>
      <trkpt lat="47.34938" lon="7.90944">
        <ele>398.1</ele>
        <time>2022-10-01T15:51:40Z</time>
      </trkpt>
      <trkpt lat="47.34938" lon="7.90945">
        <ele>398.1</ele>
        <time>2022-10-01T15:51:41Z</time>
      </trkpt>
      <trkpt lat="47.34938" lon="7.90949">
        <ele>398.3</ele>
        <time>2022-10-01T15:51:42Z</time>
      </trkpt>
      <trkpt lat="47.34939" lon="7.90956">
        <ele>398.5</ele>
        <time>2022-10-01T15:51:43Z</time>
      </trkpt>
      <trkpt lat="47.34939" lon="7.90958">
        <ele>398.6</ele>
        <time>2022-10-01T15:51:44Z</time>
      </trkpt>
      <trkpt lat="47.34939" lon="7.90962">
        <ele>398.7</ele>
        <time>2022-10-01T15:51:45Z</time>
      </trkpt>
      <trkpt lat="47.3494" lon="7.90966">
        <ele>398.8</ele>
        <time>2022-10-01T15:51:46Z</time>
      </trkpt>
      <trkpt lat="47.3494" lon="7.90968">
        <ele>398.9</ele>
        <time>2022-10-01T15:51:47Z</time>
      </trkpt>
      <trkpt lat="47.34938" lon="7.90971">
        <ele>399.1</ele>
        <time>2022-10-01T15:51:48Z</time>
      </trkpt>
      <trkpt lat="47.34936" lon="7.90977">
        <ele>399.2</ele>
        <time>2022-10-01T15:51:49Z</time>
      </trkpt>
      <trkpt lat="47.34936" lon="7.90978">
        <ele>399.3</ele>
        <time>2022-10-01T15:51:50Z</time>
      </trkpt>
      <trkpt lat="47.34936" lon="7.90983">
        <ele>399.5</ele>
        <time>2022-10-01T15:51:51Z</time>
      </trkpt>
      <trkpt lat="47.34936" lon="7.90985">
        <ele>399.5</ele>
        <time>2022-10-01T15:51:52Z</time>
      </trkpt>
      <trkpt lat="47.34936" lon="7.90989">
        <ele>399.6</ele>
        <time>2022-10-01T15:51:53Z</time>
      </trkpt>
      <trkpt lat="47.34936" lon="7.90994">
        <ele>399.7</ele>
        <time>2022-10-01T15:51:54Z</time>
      </trkpt>
      <trkpt lat="47.34936" lon="7.90997">
        <ele>399.8</ele>
        <time>2022-10-01T15:51:55Z</time>
      </trkpt>
      <trkpt lat="47.34935" lon="7.91003">
        <ele>400</ele>
        <time>2022-10-01T15:51:56Z</time>
      </trkpt>
      <trkpt lat="47.34935" lon="7.91004">
        <ele>400</ele>
        <time>2022-10-01T15:51:57Z</time>
      </trkpt>
      <trkpt lat="47.34934" lon="7.91009">
        <ele>400.1</ele>
        <time>2022-10-01T15:51:58Z</time>
      </trkpt>
      <trkpt lat="47.34934" lon="7.91013">
        <ele>400.2</ele>
        <time>2022-10-01T15:51:59Z</time>
      </trkpt>
      <trkpt lat="47.34934" lon="7.91017">
        <ele>400.3</ele>
        <time>2022-10-01T15:52:00Z</time>
      </trkpt>
      <trkpt lat="47.34933" lon="7.91021">
        <ele>400.4</ele>
        <time>2022-10-01T15:52:01Z</time>
      </trkpt>
      <trkpt lat="47.34933" lon="7.91025">
        <ele>400.5</ele>
        <time>2022-10-01T15:52:02Z</time>
      </trkpt>
      <trkpt lat="47.34931" lon="7.9103">
        <ele>400.6</ele>
        <time>2022-10-01T15:52:03Z</time>
      </trkpt>
      <trkpt lat="47.34931" lon="7.91032">
        <ele>400.6</ele>
        <time>2022-10-01T15:52:04Z</time>
      </trkpt>
      <trkpt lat="47.34929" lon="7.91037">
        <ele>400.7</ele>
        <time>2022-10-01T15:52:05Z</time>
      </trkpt>
      <trkpt lat="47.34928" lon="7.91039">
        <ele>400.8</ele>
        <time>2022-10-01T15:52:06Z</time>
      </trkpt>
      <trkpt lat="47.34925" lon="7.91043">
        <ele>400.9</ele>
        <time>2022-10-01T15:52:07Z</time>
      </trkpt>
      <trkpt lat="47.34924" lon="7.91043">
        <ele>400.9</ele>
        <time>2022-10-01T15:52:08Z</time>
      </trkpt>
      <trkpt lat="47.34923" lon="7.91048">
        <ele>401</ele>
        <time>2022-10-01T15:52:09Z</time>
      </trkpt>
      <trkpt lat="47.34922" lon="7.91052">
        <ele>401.1</ele>
        <time>2022-10-01T15:52:10Z</time>
      </trkpt>
      <trkpt lat="47.34919" lon="7.91057">
        <ele>401.2</ele>
        <time>2022-10-01T15:52:11Z</time>
      </trkpt>
      <trkpt lat="47.34918" lon="7.91058">
        <ele>401.3</ele>
        <time>2022-10-01T15:52:12Z</time>
      </trkpt>
      <trkpt lat="47.34917" lon="7.91062">
        <ele>401.4</ele>
        <time>2022-10-01T15:52:13Z</time>
      </trkpt>
      <trkpt lat="47.34915" lon="7.91068">
        <ele>401.5</ele>
        <time>2022-10-01T15:52:14Z</time>
      </trkpt>
      <trkpt lat="47.34915" lon="7.9107">
        <ele>401.5</ele>
        <time>2022-10-01T15:52:15Z</time>
      </trkpt>
      <trkpt lat="47.34915" lon="7.91075">
        <ele>401.6</ele>
        <time>2022-10-01T15:52:16Z</time>
      </trkpt>
      <trkpt lat="47.34914" lon="7.9108">
        <ele>401.7</ele>
        <time>2022-10-01T15:52:17Z</time>
      </trkpt>
      <trkpt lat="47.34913" lon="7.91084">
        <ele>401.8</ele>
        <time>2022-10-01T15:52:18Z</time>
      </trkpt>
      <trkpt lat="47.34911" lon="7.91089">
        <ele>401.9</ele>
        <time>2022-10-01T15:52:19Z</time>
      </trkpt>
      <trkpt lat="47.3491" lon="7.91092">
        <ele>401.9</ele>
        <time>2022-10-01T15:52:20Z</time>
      </trkpt>
      <trkpt lat="47.34906" lon="7.91092">
        <ele>402.1</ele>
        <time>2022-10-01T15:52:21Z</time>
      </trkpt>
      <trkpt lat="47.34903" lon="7.91094">
        <ele>402.2</ele>
        <time>2022-10-01T15:52:22Z</time>
      </trkpt>
      <trkpt lat="47.349" lon="7.91096">
        <ele>402.3</ele>
        <time>2022-10-01T15:52:23Z</time>
      </trkpt>
      <trkpt lat="47.34897" lon="7.911">
        <ele>402.4</ele>
        <time>2022-10-01T15:52:24Z</time>
      </trkpt>
      <trkpt lat="47.34895" lon="7.91101">
        <ele>402.4</ele>
        <time>2022-10-01T15:52:25Z</time>
      </trkpt>
      <trkpt lat="47.34894" lon="7.91104">
        <ele>402.5</ele>
        <time>2022-10-01T15:52:26Z</time>
      </trkpt>
      <trkpt lat="47.34892" lon="7.91108">
        <ele>402.6</ele>
        <time>2022-10-01T15:52:27Z</time>
      </trkpt>
      <trkpt lat="47.3489" lon="7.91113">
        <ele>402.7</ele>
        <time>2022-10-01T15:52:28Z</time>
      </trkpt>
      <trkpt lat="47.3489" lon="7.91114">
        <ele>402.7</ele>
        <time>2022-10-01T15:52:29Z</time>
      </trkpt>
      <trkpt lat="47.34887" lon="7.91118">
        <ele>402.8</ele>
        <time>2022-10-01T15:52:30Z</time>
      </trkpt>
      <trkpt lat="47.34886" lon="7.9112">
        <ele>402.8</ele>
        <time>2022-10-01T15:52:31Z</time>
      </trkpt>
      <trkpt lat="47.34884" lon="7.91124">
        <ele>403</ele>
        <time>2022-10-01T15:52:32Z</time>
      </trkpt>
      <trkpt lat="47.34883" lon="7.91126">
        <ele>403</ele>
        <time>2022-10-01T15:52:33Z</time>
      </trkpt>
      <trkpt lat="47.3488" lon="7.9113">
        <ele>403.1</ele>
        <time>2022-10-01T15:52:34Z</time>
      </trkpt>
      <trkpt lat="47.34879" lon="7.91131">
        <ele>403.1</ele>
        <time>2022-10-01T15:52:35Z</time>
      </trkpt>
      <trkpt lat="47.34877" lon="7.91134">
        <ele>403.1</ele>
        <time>2022-10-01T15:52:36Z</time>
      </trkpt>
      <trkpt lat="47.34874" lon="7.91138">
        <ele>403.2</ele>
        <time>2022-10-01T15:52:37Z</time>
      </trkpt>
      <trkpt lat="47.34874" lon="7.91139">
        <ele>403.2</ele>
        <time>2022-10-01T15:52:38Z</time>
      </trkpt>
      <trkpt lat="47.34872" lon="7.91142">
        <ele>403.2</ele>
        <time>2022-10-01T15:52:39Z</time>
      </trkpt>
      <trkpt lat="47.34871" lon="7.91143">
        <ele>403.2</ele>
        <time>2022-10-01T15:52:40Z</time>
      </trkpt>
      <trkpt lat="47.3487" lon="7.91143">
        <ele>403.2</ele>
        <time>2022-10-01T15:52:41Z</time>
      </trkpt>
      <trkpt lat="47.3487" lon="7.91143">
        <ele>403.2</ele>
        <time>2022-10-01T15:52:42Z</time>
      </trkpt>
      <trkpt lat="47.34869" lon="7.91142">
        <ele>403.2</ele>
        <time>2022-10-01T15:52:43Z</time>
      </trkpt>
      <trkpt lat="47.34869" lon="7.91141">
        <ele>403.2</ele>
        <time>2022-10-01T15:52:44Z</time>
      </trkpt>
      <trkpt lat="47.34869" lon="7.91141">
        <ele>403.2</ele>
        <time>2022-10-01T15:52:45Z</time>
      </trkpt>
      <trkpt lat="47.34868" lon="7.9114">
        <ele>403.2</ele>
        <time>2022-10-01T15:52:46Z</time>
      </trkpt>
      <trkpt lat="47.34869" lon="7.91139">
        <ele>403.2</ele>
        <time>2022-10-01T15:52:47Z</time>
      </trkpt>
      <trkpt lat="47.34871" lon="7.9114">
        <ele>403.2</ele>
        <time>2022-10-01T15:52:48Z</time>
      </trkpt>
      <trkpt lat="47.34871" lon="7.91138">
        <ele>403.2</ele>
        <time>2022-10-01T15:52:49Z</time>
      </trkpt>
      <trkpt lat="47.34873" lon="7.91141">
        <ele>403.3</ele>
        <time>2022-10-01T15:52:50Z</time>
      </trkpt>
      <trkpt lat="47.34874" lon="7.91142">
        <ele>403.3</ele>
        <time>2022-10-01T15:52:51Z</time>
      </trkpt>
      <trkpt lat="47.34876" lon="7.91144">
        <ele>403.3</ele>
        <time>2022-10-01T15:52:52Z</time>
      </trkpt>
      <trkpt lat="47.34876" lon="7.91145">
        <ele>403.3</ele>
        <time>2022-10-01T15:52:53Z</time>
      </trkpt>
      <trkpt lat="47.34877" lon="7.91146">
        <ele>403.3</ele>
        <time>2022-10-01T15:52:54Z</time>
      </trkpt>
      <trkpt lat="47.3488" lon="7.9115">
        <ele>403.5</ele>
        <time>2022-10-01T15:52:55Z</time>
      </trkpt>
      <trkpt lat="47.34882" lon="7.91151">
        <ele>403.5</ele>
        <time>2022-10-01T15:52:56Z</time>
      </trkpt>
      <trkpt lat="47.34883" lon="7.91152">
        <ele>403.5</ele>
        <time>2022-10-01T15:52:57Z</time>
      </trkpt>
      <trkpt lat="47.34885" lon="7.91153">
        <ele>403.5</ele>
        <time>2022-10-01T15:52:58Z</time>
      </trkpt>
      <trkpt lat="47.34886" lon="7.91154">
        <ele>403.5</ele>
        <time>2022-10-01T15:52:59Z</time>
      </trkpt>
      <trkpt lat="47.34888" lon="7.91155">
        <ele>403.5</ele>
        <time>2022-10-01T15:53:12Z</time>
      </trkpt>
      <trkpt lat="47.34889" lon="7.91156">
        <ele>403.4</ele>
        <time>2022-10-01T15:53:13Z</time>
      </trkpt>
      <trkpt lat="47.34889" lon="7.91156">
        <ele>403.4</ele>
        <time>2022-10-01T15:53:14Z</time>
      </trkpt>
      <trkpt lat="47.34888" lon="7.91156">
        <ele>403.4</ele>
        <time>2022-10-01T15:53:15Z</time>
      </trkpt>
      <trkpt lat="47.34888" lon="7.91156">
        <ele>403.4</ele>
        <time>2022-10-01T15:53:16Z</time>
      </trkpt>
      <trkpt lat="47.34888" lon="7.91156">
        <ele>403.4</ele>
        <time>2022-10-01T15:53:17Z</time>
      </trkpt>
      <trkpt lat="47.34888" lon="7.91156">
        <ele>403.4</ele>
        <time>2022-10-01T15:53:18Z</time>
      </trkpt>
      <trkpt lat="47.34886" lon="7.91154">
        <ele>403.4</ele>
        <time>2022-10-01T15:53:19Z</time>
      </trkpt>
      <trkpt lat="47.34885" lon="7.91154">
        <ele>403.4</ele>
        <time>2022-10-01T15:53:20Z</time>
      </trkpt>
      <trkpt lat="47.34884" lon="7.91154">
        <ele>403.4</ele>
        <time>2022-10-01T15:53:21Z</time>
      </trkpt>
      <trkpt lat="47.34882" lon="7.91154">
        <ele>403.4</ele>
        <time>2022-10-01T15:53:39Z</time>
      </trkpt>
      <trkpt lat="47.34881" lon="7.91154">
        <ele>403.4</ele>
        <time>2022-10-01T15:53:40Z</time>
      </trkpt>
      <trkpt lat="47.3488" lon="7.91154">
        <ele>403.4</ele>
        <time>2022-10-01T15:53:41Z</time>
      </trkpt>
      <trkpt lat="47.34879" lon="7.91154">
        <ele>403.4</ele>
        <time>2022-10-01T15:53:42Z</time>
      </trkpt>
      <trkpt lat="47.34878" lon="7.91154">
        <ele>403.3</ele>
        <time>2022-10-01T15:53:43Z</time>
      </trkpt>
      <trkpt lat="47.34877" lon="7.91153">
        <ele>403.3</ele>
        <time>2022-10-01T15:53:44Z</time>
      </trkpt>
      <trkpt lat="47.34875" lon="7.91154">
        <ele>403.3</ele>
        <time>2022-10-01T15:53:45Z</time>
      </trkpt>
      <trkpt lat="47.34875" lon="7.91154">
        <ele>403.3</ele>
        <time>2022-10-01T15:53:46Z</time>
      </trkpt>
      <trkpt lat="47.34874" lon="7.91154">
        <ele>403.3</ele>
        <time>2022-10-01T15:53:47Z</time>
      </trkpt>
      <trkpt lat="47.34873" lon="7.91154">
        <ele>403.3</ele>
        <time>2022-10-01T15:53:48Z</time>
      </trkpt>
      <trkpt lat="47.34872" lon="7.91154">
        <ele>403.3</ele>
        <time>2022-10-01T15:53:49Z</time>
      </trkpt>
      <trkpt lat="47.34872" lon="7.91154">
        <ele>403.3</ele>
        <time>2022-10-01T15:53:50Z</time>
      </trkpt>
      <trkpt lat="47.34871" lon="7.91154">
        <ele>403.3</ele>
        <time>2022-10-01T15:53:51Z</time>
      </trkpt>
      <trkpt lat="47.3487" lon="7.91155">
        <ele>403.3</ele>
        <time>2022-10-01T15:53:52Z</time>
      </trkpt>
      <trkpt lat="47.34869" lon="7.91154">
        <ele>403.3</ele>
        <time>2022-10-01T15:53:53Z</time>
      </trkpt>
      <trkpt lat="47.34868" lon="7.91154">
        <ele>403.3</ele>
        <time>2022-10-01T15:53:54Z</time>
      </trkpt>
      <trkpt lat="47.34867" lon="7.91154">
        <ele>403.3</ele>
        <time>2022-10-01T15:53:55Z</time>
      </trkpt>
      <trkpt lat="47.34867" lon="7.91152">
        <ele>403.2</ele>
        <time>2022-10-01T15:53:56Z</time>
      </trkpt>
      <trkpt lat="47.34866" lon="7.91151">
        <ele>403.2</ele>
        <time>2022-10-01T15:53:57Z</time>
      </trkpt>
      <trkpt lat="47.34866" lon="7.9115">
        <ele>403.2</ele>
        <time>2022-10-01T15:53:58Z</time>
      </trkpt>
      <trkpt lat="47.34865" lon="7.91149">
        <ele>403.2</ele>
        <time>2022-10-01T15:53:59Z</time>
      </trkpt>
      <trkpt lat="47.34864" lon="7.91149">
        <ele>403.2</ele>
        <time>2022-10-01T15:54:00Z</time>
      </trkpt>
      <trkpt lat="47.34863" lon="7.91148">
        <ele>403.2</ele>
        <time>2022-10-01T15:54:01Z</time>
      </trkpt>
      <trkpt lat="47.34863" lon="7.91148">
        <ele>403.2</ele>
        <time>2022-10-01T15:54:02Z</time>
      </trkpt>
      <trkpt lat="47.34862" lon="7.91147">
        <ele>403.2</ele>
        <time>2022-10-01T15:54:03Z</time>
      </trkpt>
      <trkpt lat="47.34861" lon="7.91147">
        <ele>403.2</ele>
        <time>2022-10-01T15:54:04Z</time>
      </trkpt>
      <trkpt lat="47.34861" lon="7.91147">
        <ele>403.2</ele>
        <time>2022-10-01T15:54:05Z</time>
      </trkpt>
      <trkpt lat="47.3486" lon="7.91146">
        <ele>403.2</ele>
        <time>2022-10-01T15:54:06Z</time>
      </trkpt>
      <trkpt lat="47.3486" lon="7.91146">
        <ele>403.2</ele>
        <time>2022-10-01T15:54:07Z</time>
      </trkpt>
      <trkpt lat="47.34857" lon="7.91144">
        <ele>403.1</ele>
        <time>2022-10-01T15:54:08Z</time>
      </trkpt>
      <trkpt lat="47.34856" lon="7.91143">
        <ele>403.1</ele>
        <time>2022-10-01T15:54:09Z</time>
      </trkpt>
      <trkpt lat="47.34854" lon="7.91142">
        <ele>403.1</ele>
        <time>2022-10-01T15:54:10Z</time>
      </trkpt>
      <trkpt lat="47.34852" lon="7.91141">
        <ele>403.1</ele>
        <time>2022-10-01T15:54:15Z</time>
      </trkpt>
      <trkpt lat="47.3485" lon="7.91139">
        <ele>403.1</ele>
        <time>2022-10-01T15:54:16Z</time>
      </trkpt>
      <trkpt lat="47.34849" lon="7.9114">
        <ele>403.1</ele>
        <time>2022-10-01T15:54:17Z</time>
      </trkpt>
      <trkpt lat="47.34849" lon="7.91143">
        <ele>403.1</ele>
        <time>2022-10-01T15:54:18Z</time>
      </trkpt>
      <trkpt lat="47.34849" lon="7.91145">
        <ele>403.1</ele>
        <time>2022-10-01T15:54:19Z</time>
      </trkpt>
      <trkpt lat="47.34848" lon="7.91148">
        <ele>403.1</ele>
        <time>2022-10-01T15:54:20Z</time>
      </trkpt>
      <trkpt lat="47.34846" lon="7.91152">
        <ele>403.2</ele>
        <time>2022-10-01T15:54:21Z</time>
      </trkpt>
      <trkpt lat="47.34846" lon="7.91154">
        <ele>403.2</ele>
        <time>2022-10-01T15:54:22Z</time>
      </trkpt>
      <trkpt lat="47.34845" lon="7.91159">
        <ele>403.2</ele>
        <time>2022-10-01T15:54:23Z</time>
      </trkpt>
      <trkpt lat="47.34845" lon="7.9116">
        <ele>403.2</ele>
        <time>2022-10-01T15:54:24Z</time>
      </trkpt>
      <trkpt lat="47.34842" lon="7.91165">
        <ele>403.3</ele>
        <time>2022-10-01T15:54:25Z</time>
      </trkpt>
      <trkpt lat="47.34839" lon="7.91168">
        <ele>403.3</ele>
        <time>2022-10-01T15:54:26Z</time>
      </trkpt>
      <trkpt lat="47.34838" lon="7.9117">
        <ele>403.4</ele>
        <time>2022-10-01T15:54:27Z</time>
      </trkpt>
      <trkpt lat="47.34836" lon="7.91175">
        <ele>403.4</ele>
        <time>2022-10-01T15:54:28Z</time>
      </trkpt>
      <trkpt lat="47.34835" lon="7.91179">
        <ele>403.5</ele>
        <time>2022-10-01T15:54:29Z</time>
      </trkpt>
      <trkpt lat="47.34833" lon="7.91183">
        <ele>403.5</ele>
        <time>2022-10-01T15:54:30Z</time>
      </trkpt>
      <trkpt lat="47.34832" lon="7.91184">
        <ele>403.5</ele>
        <time>2022-10-01T15:54:31Z</time>
      </trkpt>
      <trkpt lat="47.34831" lon="7.91189">
        <ele>403.6</ele>
        <time>2022-10-01T15:54:32Z</time>
      </trkpt>
      <trkpt lat="47.3483" lon="7.9119">
        <ele>403.6</ele>
        <time>2022-10-01T15:54:33Z</time>
      </trkpt>
      <trkpt lat="47.34828" lon="7.91194">
        <ele>403.7</ele>
        <time>2022-10-01T15:54:34Z</time>
      </trkpt>
      <trkpt lat="47.34827" lon="7.91197">
        <ele>403.7</ele>
        <time>2022-10-01T15:54:35Z</time>
      </trkpt>
      <trkpt lat="47.34825" lon="7.912">
        <ele>403.8</ele>
        <time>2022-10-01T15:54:36Z</time>
      </trkpt>
      <trkpt lat="47.34823" lon="7.91204">
        <ele>403.8</ele>
        <time>2022-10-01T15:54:37Z</time>
      </trkpt>
      <trkpt lat="47.34822" lon="7.91208">
        <ele>403.8</ele>
        <time>2022-10-01T15:54:38Z</time>
      </trkpt>
      <trkpt lat="47.34821" lon="7.91211">
        <ele>403.9</ele>
        <time>2022-10-01T15:54:39Z</time>
      </trkpt>
      <trkpt lat="47.34819" lon="7.91215">
        <ele>404</ele>
        <time>2022-10-01T15:54:40Z</time>
      </trkpt>
      <trkpt lat="47.34817" lon="7.91219">
        <ele>404</ele>
        <time>2022-10-01T15:54:41Z</time>
      </trkpt>
      <trkpt lat="47.34815" lon="7.91223">
        <ele>404.1</ele>
        <time>2022-10-01T15:54:42Z</time>
      </trkpt>
      <trkpt lat="47.34814" lon="7.91224">
        <ele>404.1</ele>
        <time>2022-10-01T15:54:43Z</time>
      </trkpt>
      <trkpt lat="47.34813" lon="7.91228">
        <ele>404.2</ele>
        <time>2022-10-01T15:54:44Z</time>
      </trkpt>
      <trkpt lat="47.34812" lon="7.91232">
        <ele>404.3</ele>
        <time>2022-10-01T15:54:45Z</time>
      </trkpt>
      <trkpt lat="47.3481" lon="7.91238">
        <ele>404.4</ele>
        <time>2022-10-01T15:54:46Z</time>
      </trkpt>
      <trkpt lat="47.3481" lon="7.9124">
        <ele>404.4</ele>
        <time>2022-10-01T15:54:47Z</time>
      </trkpt>
      <trkpt lat="47.34808" lon="7.91244">
        <ele>404.5</ele>
        <time>2022-10-01T15:54:48Z</time>
      </trkpt>
      <trkpt lat="47.34806" lon="7.91248">
        <ele>404.6</ele>
        <time>2022-10-01T15:54:49Z</time>
      </trkpt>
      <trkpt lat="47.34805" lon="7.91249">
        <ele>404.6</ele>
        <time>2022-10-01T15:54:50Z</time>
      </trkpt>
      <trkpt lat="47.34802" lon="7.91252">
        <ele>404.7</ele>
        <time>2022-10-01T15:54:51Z</time>
      </trkpt>
      <trkpt lat="47.348" lon="7.91257">
        <ele>404.8</ele>
        <time>2022-10-01T15:54:52Z</time>
      </trkpt>
      <trkpt lat="47.34799" lon="7.91258">
        <ele>404.8</ele>
        <time>2022-10-01T15:54:53Z</time>
      </trkpt>
      <trkpt lat="47.34797" lon="7.91263">
        <ele>404.9</ele>
        <time>2022-10-01T15:54:54Z</time>
      </trkpt>
      <trkpt lat="47.34796" lon="7.91264">
        <ele>404.9</ele>
        <time>2022-10-01T15:54:55Z</time>
      </trkpt>
      <trkpt lat="47.34794" lon="7.91268">
        <ele>405</ele>
        <time>2022-10-01T15:54:56Z</time>
      </trkpt>
      <trkpt lat="47.34791" lon="7.91272">
        <ele>405.1</ele>
        <time>2022-10-01T15:54:57Z</time>
      </trkpt>
      <trkpt lat="47.3479" lon="7.91274">
        <ele>405.1</ele>
        <time>2022-10-01T15:54:58Z</time>
      </trkpt>
      <trkpt lat="47.34789" lon="7.91277">
        <ele>405.1</ele>
        <time>2022-10-01T15:54:59Z</time>
      </trkpt>
      <trkpt lat="47.34787" lon="7.91282">
        <ele>405.3</ele>
        <time>2022-10-01T15:55:00Z</time>
      </trkpt>
      <trkpt lat="47.34786" lon="7.91283">
        <ele>405.3</ele>
        <time>2022-10-01T15:55:01Z</time>
      </trkpt>
      <trkpt lat="47.34785" lon="7.91287">
        <ele>405.4</ele>
        <time>2022-10-01T15:55:02Z</time>
      </trkpt>
      <trkpt lat="47.34783" lon="7.91291">
        <ele>405.6</ele>
        <time>2022-10-01T15:55:03Z</time>
      </trkpt>
      <trkpt lat="47.34782" lon="7.91293">
        <ele>405.6</ele>
        <time>2022-10-01T15:55:04Z</time>
      </trkpt>
      <trkpt lat="47.34779" lon="7.91297">
        <ele>405.8</ele>
        <time>2022-10-01T15:55:05Z</time>
      </trkpt>
      <trkpt lat="47.34778" lon="7.91298">
        <ele>405.8</ele>
        <time>2022-10-01T15:55:06Z</time>
      </trkpt>
      <trkpt lat="47.34777" lon="7.91303">
        <ele>406</ele>
        <time>2022-10-01T15:55:07Z</time>
      </trkpt>
      <trkpt lat="47.34776" lon="7.91304">
        <ele>406</ele>
        <time>2022-10-01T15:55:08Z</time>
      </trkpt>
      <trkpt lat="47.34775" lon="7.91308">
        <ele>406.1</ele>
        <time>2022-10-01T15:55:09Z</time>
      </trkpt>
      <trkpt lat="47.34774" lon="7.9131">
        <ele>406.2</ele>
        <time>2022-10-01T15:55:10Z</time>
      </trkpt>
      <trkpt lat="47.34772" lon="7.91315">
        <ele>406.3</ele>
        <time>2022-10-01T15:55:11Z</time>
      </trkpt>
      <trkpt lat="47.34772" lon="7.91317">
        <ele>406.4</ele>
        <time>2022-10-01T15:55:12Z</time>
      </trkpt>
      <trkpt lat="47.3477" lon="7.91321">
        <ele>406.5</ele>
        <time>2022-10-01T15:55:13Z</time>
      </trkpt>
      <trkpt lat="47.34769" lon="7.91323">
        <ele>406.6</ele>
        <time>2022-10-01T15:55:14Z</time>
      </trkpt>
      <trkpt lat="47.34768" lon="7.91327">
        <ele>406.7</ele>
        <time>2022-10-01T15:55:15Z</time>
      </trkpt>
      <trkpt lat="47.34767" lon="7.91329">
        <ele>406.8</ele>
        <time>2022-10-01T15:55:16Z</time>
      </trkpt>
      <trkpt lat="47.34765" lon="7.91332">
        <ele>406.9</ele>
        <time>2022-10-01T15:55:17Z</time>
      </trkpt>
      <trkpt lat="47.34764" lon="7.91334">
        <ele>407</ele>
        <time>2022-10-01T15:55:18Z</time>
      </trkpt>
      <trkpt lat="47.34762" lon="7.91337">
        <ele>407.1</ele>
        <time>2022-10-01T15:55:19Z</time>
      </trkpt>
      <trkpt lat="47.34761" lon="7.91338">
        <ele>407.2</ele>
        <time>2022-10-01T15:55:20Z</time>
      </trkpt>
      <trkpt lat="47.34759" lon="7.91342">
        <ele>407.3</ele>
        <time>2022-10-01T15:55:21Z</time>
      </trkpt>
      <trkpt lat="47.34759" lon="7.91343">
        <ele>407.3</ele>
        <time>2022-10-01T15:55:22Z</time>
      </trkpt>
      <trkpt lat="47.34757" lon="7.91346">
        <ele>407.4</ele>
        <time>2022-10-01T15:55:23Z</time>
      </trkpt>
      <trkpt lat="47.34756" lon="7.91348">
        <ele>407.5</ele>
        <time>2022-10-01T15:55:24Z</time>
      </trkpt>
      <trkpt lat="47.34755" lon="7.9135">
        <ele>407.6</ele>
        <time>2022-10-01T15:55:25Z</time>
      </trkpt>
      <trkpt lat="47.34753" lon="7.91353">
        <ele>407.7</ele>
        <time>2022-10-01T15:55:26Z</time>
      </trkpt>
      <trkpt lat="47.34751" lon="7.91357">
        <ele>407.9</ele>
        <time>2022-10-01T15:55:27Z</time>
      </trkpt>
      <trkpt lat="47.34751" lon="7.91359">
        <ele>408</ele>
        <time>2022-10-01T15:55:28Z</time>
      </trkpt>
      <trkpt lat="47.34749" lon="7.91362">
        <ele>408.1</ele>
        <time>2022-10-01T15:55:29Z</time>
      </trkpt>
      <trkpt lat="47.34749" lon="7.91363">
        <ele>408.2</ele>
        <time>2022-10-01T15:55:30Z</time>
      </trkpt>
      <trkpt lat="47.34747" lon="7.91368">
        <ele>408.3</ele>
        <time>2022-10-01T15:55:31Z</time>
      </trkpt>
      <trkpt lat="47.34746" lon="7.91369">
        <ele>408.4</ele>
        <time>2022-10-01T15:55:32Z</time>
      </trkpt>
      <trkpt lat="47.34744" lon="7.91373">
        <ele>408.6</ele>
        <time>2022-10-01T15:55:33Z</time>
      </trkpt>
      <trkpt lat="47.34744" lon="7.91374">
        <ele>408.6</ele>
        <time>2022-10-01T15:55:34Z</time>
      </trkpt>
      <trkpt lat="47.34741" lon="7.91378">
        <ele>408.8</ele>
        <time>2022-10-01T15:55:35Z</time>
      </trkpt>
      <trkpt lat="47.34741" lon="7.9138">
        <ele>408.9</ele>
        <time>2022-10-01T15:55:36Z</time>
      </trkpt>
      <trkpt lat="47.34739" lon="7.91384">
        <ele>409.1</ele>
        <time>2022-10-01T15:55:37Z</time>
      </trkpt>
      <trkpt lat="47.34738" lon="7.91385">
        <ele>409.1</ele>
        <time>2022-10-01T15:55:38Z</time>
      </trkpt>
      <trkpt lat="47.34736" lon="7.91388">
        <ele>409.3</ele>
        <time>2022-10-01T15:55:39Z</time>
      </trkpt>
      <trkpt lat="47.34735" lon="7.91389">
        <ele>409.4</ele>
        <time>2022-10-01T15:55:40Z</time>
      </trkpt>
      <trkpt lat="47.34734" lon="7.91393">
        <ele>409.6</ele>
        <time>2022-10-01T15:55:41Z</time>
      </trkpt>
      <trkpt lat="47.34733" lon="7.91395">
        <ele>409.6</ele>
        <time>2022-10-01T15:55:42Z</time>
      </trkpt>
      <trkpt lat="47.34732" lon="7.91399">
        <ele>409.8</ele>
        <time>2022-10-01T15:55:43Z</time>
      </trkpt>
      <trkpt lat="47.34731" lon="7.914">
        <ele>409.9</ele>
        <time>2022-10-01T15:55:44Z</time>
      </trkpt>
      <trkpt lat="47.34731" lon="7.91405">
        <ele>410</ele>
        <time>2022-10-01T15:55:45Z</time>
      </trkpt>
      <trkpt lat="47.34731" lon="7.91406">
        <ele>410.1</ele>
        <time>2022-10-01T15:55:46Z</time>
      </trkpt>
      <trkpt lat="47.34731" lon="7.9141">
        <ele>410.2</ele>
        <time>2022-10-01T15:55:47Z</time>
      </trkpt>
      <trkpt lat="47.34733" lon="7.91414">
        <ele>410.4</ele>
        <time>2022-10-01T15:55:48Z</time>
      </trkpt>
      <trkpt lat="47.34736" lon="7.91418">
        <ele>410.8</ele>
        <time>2022-10-01T15:55:49Z</time>
      </trkpt>
      <trkpt lat="47.34738" lon="7.91422">
        <ele>411.2</ele>
        <time>2022-10-01T15:55:50Z</time>
      </trkpt>
      <trkpt lat="47.3474" lon="7.91425">
        <ele>411.5</ele>
        <time>2022-10-01T15:55:51Z</time>
      </trkpt>
      <trkpt lat="47.34742" lon="7.91428">
        <ele>411.8</ele>
        <time>2022-10-01T15:55:52Z</time>
      </trkpt>
      <trkpt lat="47.34744" lon="7.91431">
        <ele>412.1</ele>
        <time>2022-10-01T15:55:53Z</time>
      </trkpt>
      <trkpt lat="47.34745" lon="7.91435">
        <ele>412.4</ele>
        <time>2022-10-01T15:55:54Z</time>
      </trkpt>
      <trkpt lat="47.34746" lon="7.91437">
        <ele>412.5</ele>
        <time>2022-10-01T15:55:55Z</time>
      </trkpt>
      <trkpt lat="47.34747" lon="7.91441">
        <ele>413.3</ele>
        <time>2022-10-01T15:55:56Z</time>
      </trkpt>
      <trkpt lat="47.34748" lon="7.91443">
        <ele>413.3</ele>
        <time>2022-10-01T15:55:57Z</time>
      </trkpt>
      <trkpt lat="47.34748" lon="7.91445">
        <ele>413.4</ele>
        <time>2022-10-01T15:55:58Z</time>
      </trkpt>
      <trkpt lat="47.34749" lon="7.91447">
        <ele>413.4</ele>
        <time>2022-10-01T15:55:59Z</time>
      </trkpt>
      <trkpt lat="47.34748" lon="7.91451">
        <ele>413.4</ele>
        <time>2022-10-01T15:56:00Z</time>
      </trkpt>
      <trkpt lat="47.34747" lon="7.91452">
        <ele>413.5</ele>
        <time>2022-10-01T15:56:01Z</time>
      </trkpt>
      <trkpt lat="47.34744" lon="7.91455">
        <ele>413.5</ele>
        <time>2022-10-01T15:56:02Z</time>
      </trkpt>
      <trkpt lat="47.34743" lon="7.91456">
        <ele>413.6</ele>
        <time>2022-10-01T15:56:03Z</time>
      </trkpt>
      <trkpt lat="47.34741" lon="7.91459">
        <ele>413.6</ele>
        <time>2022-10-01T15:56:04Z</time>
      </trkpt>
      <trkpt lat="47.3474" lon="7.91461">
        <ele>413.7</ele>
        <time>2022-10-01T15:56:05Z</time>
      </trkpt>
      <trkpt lat="47.34738" lon="7.91464">
        <ele>413.7</ele>
        <time>2022-10-01T15:56:06Z</time>
      </trkpt>
      <trkpt lat="47.34735" lon="7.91467">
        <ele>413.8</ele>
        <time>2022-10-01T15:56:07Z</time>
      </trkpt>
      <trkpt lat="47.34733" lon="7.91471">
        <ele>413.9</ele>
        <time>2022-10-01T15:56:08Z</time>
      </trkpt>
      <trkpt lat="47.34732" lon="7.91472">
        <ele>413.9</ele>
        <time>2022-10-01T15:56:09Z</time>
      </trkpt>
      <trkpt lat="47.34729" lon="7.91474">
        <ele>414</ele>
        <time>2022-10-01T15:56:10Z</time>
      </trkpt>
      <trkpt lat="47.34726" lon="7.91477">
        <ele>414</ele>
        <time>2022-10-01T15:56:11Z</time>
      </trkpt>
      <trkpt lat="47.34725" lon="7.91479">
        <ele>414.1</ele>
        <time>2022-10-01T15:56:12Z</time>
      </trkpt>
      <trkpt lat="47.34722" lon="7.91481">
        <ele>414.1</ele>
        <time>2022-10-01T15:56:13Z</time>
      </trkpt>
      <trkpt lat="47.34719" lon="7.91485">
        <ele>414.2</ele>
        <time>2022-10-01T15:56:14Z</time>
      </trkpt>
      <trkpt lat="47.34718" lon="7.91486">
        <ele>414.2</ele>
        <time>2022-10-01T15:56:15Z</time>
      </trkpt>
      <trkpt lat="47.34716" lon="7.91488">
        <ele>414.3</ele>
        <time>2022-10-01T15:56:16Z</time>
      </trkpt>
      <trkpt lat="47.34713" lon="7.91492">
        <ele>414.4</ele>
        <time>2022-10-01T15:56:17Z</time>
      </trkpt>
      <trkpt lat="47.34711" lon="7.91493">
        <ele>414.4</ele>
        <time>2022-10-01T15:56:18Z</time>
      </trkpt>
      <trkpt lat="47.34708" lon="7.91497">
        <ele>414.5</ele>
        <time>2022-10-01T15:56:19Z</time>
      </trkpt>
      <trkpt lat="47.34707" lon="7.91498">
        <ele>414.6</ele>
        <time>2022-10-01T15:56:20Z</time>
      </trkpt>
      <trkpt lat="47.34705" lon="7.915">
        <ele>414.6</ele>
        <time>2022-10-01T15:56:21Z</time>
      </trkpt>
      <trkpt lat="47.34702" lon="7.91503">
        <ele>414.7</ele>
        <time>2022-10-01T15:56:22Z</time>
      </trkpt>
      <trkpt lat="47.34699" lon="7.91506">
        <ele>414.8</ele>
        <time>2022-10-01T15:56:23Z</time>
      </trkpt>
      <trkpt lat="47.34698" lon="7.91507">
        <ele>414.8</ele>
        <time>2022-10-01T15:56:24Z</time>
      </trkpt>
      <trkpt lat="47.34695" lon="7.91511">
        <ele>414.8</ele>
        <time>2022-10-01T15:56:25Z</time>
      </trkpt>
      <trkpt lat="47.34694" lon="7.91513">
        <ele>414.9</ele>
        <time>2022-10-01T15:56:26Z</time>
      </trkpt>
      <trkpt lat="47.34691" lon="7.91516">
        <ele>414.9</ele>
        <time>2022-10-01T15:56:27Z</time>
      </trkpt>
      <trkpt lat="47.3469" lon="7.91517">
        <ele>415</ele>
        <time>2022-10-01T15:56:28Z</time>
      </trkpt>
      <trkpt lat="47.34687" lon="7.91521">
        <ele>415</ele>
        <time>2022-10-01T15:56:29Z</time>
      </trkpt>
      <trkpt lat="47.34686" lon="7.91522">
        <ele>415.1</ele>
        <time>2022-10-01T15:56:30Z</time>
      </trkpt>
      <trkpt lat="47.34684" lon="7.91524">
        <ele>415.1</ele>
        <time>2022-10-01T15:56:31Z</time>
      </trkpt>
      <trkpt lat="47.34681" lon="7.91529">
        <ele>415.2</ele>
        <time>2022-10-01T15:56:32Z</time>
      </trkpt>
      <trkpt lat="47.3468" lon="7.9153">
        <ele>415.2</ele>
        <time>2022-10-01T15:56:33Z</time>
      </trkpt>
      <trkpt lat="47.34677" lon="7.91534">
        <ele>415.3</ele>
        <time>2022-10-01T15:56:34Z</time>
      </trkpt>
      <trkpt lat="47.34676" lon="7.91536">
        <ele>415.3</ele>
        <time>2022-10-01T15:56:35Z</time>
      </trkpt>
      <trkpt lat="47.34673" lon="7.91539">
        <ele>415.4</ele>
        <time>2022-10-01T15:56:36Z</time>
      </trkpt>
      <trkpt lat="47.34671" lon="7.91541">
        <ele>415.4</ele>
        <time>2022-10-01T15:56:37Z</time>
      </trkpt>
      <trkpt lat="47.34668" lon="7.91543">
        <ele>415.5</ele>
        <time>2022-10-01T15:56:38Z</time>
      </trkpt>
      <trkpt lat="47.34667" lon="7.91547">
        <ele>415.5</ele>
        <time>2022-10-01T15:56:39Z</time>
      </trkpt>
      <trkpt lat="47.34664" lon="7.91551">
        <ele>415.6</ele>
        <time>2022-10-01T15:56:40Z</time>
      </trkpt>
      <trkpt lat="47.34662" lon="7.91555">
        <ele>415.7</ele>
        <time>2022-10-01T15:56:41Z</time>
      </trkpt>
      <trkpt lat="47.3466" lon="7.91558">
        <ele>415.7</ele>
        <time>2022-10-01T15:56:42Z</time>
      </trkpt>
      <trkpt lat="47.34658" lon="7.91561">
        <ele>415.8</ele>
        <time>2022-10-01T15:56:43Z</time>
      </trkpt>
      <trkpt lat="47.34656" lon="7.91565">
        <ele>415.8</ele>
        <time>2022-10-01T15:56:44Z</time>
      </trkpt>
      <trkpt lat="47.34653" lon="7.91569">
        <ele>415.9</ele>
        <time>2022-10-01T15:56:45Z</time>
      </trkpt>
      <trkpt lat="47.34651" lon="7.91572">
        <ele>415.9</ele>
        <time>2022-10-01T15:56:46Z</time>
      </trkpt>
      <trkpt lat="47.34649" lon="7.91576">
        <ele>416</ele>
        <time>2022-10-01T15:56:47Z</time>
      </trkpt>
      <trkpt lat="47.34647" lon="7.91579">
        <ele>416</ele>
        <time>2022-10-01T15:56:48Z</time>
      </trkpt>
      <trkpt lat="47.34645" lon="7.91582">
        <ele>416</ele>
        <time>2022-10-01T15:56:49Z</time>
      </trkpt>
      <trkpt lat="47.34641" lon="7.91587">
        <ele>416.1</ele>
        <time>2022-10-01T15:56:50Z</time>
      </trkpt>
      <trkpt lat="47.3464" lon="7.91589">
        <ele>416.1</ele>
        <time>2022-10-01T15:56:51Z</time>
      </trkpt>
      <trkpt lat="47.34638" lon="7.91592">
        <ele>416.2</ele>
        <time>2022-10-01T15:56:52Z</time>
      </trkpt>
      <trkpt lat="47.34635" lon="7.91595">
        <ele>416.2</ele>
        <time>2022-10-01T15:56:53Z</time>
      </trkpt>
      <trkpt lat="47.34633" lon="7.91598">
        <ele>416.3</ele>
        <time>2022-10-01T15:56:54Z</time>
      </trkpt>
      <trkpt lat="47.3463" lon="7.91602">
        <ele>416.3</ele>
        <time>2022-10-01T15:56:55Z</time>
      </trkpt>
      <trkpt lat="47.34628" lon="7.91605">
        <ele>416.4</ele>
        <time>2022-10-01T15:56:56Z</time>
      </trkpt>
      <trkpt lat="47.34626" lon="7.91608">
        <ele>416.4</ele>
        <time>2022-10-01T15:56:57Z</time>
      </trkpt>
      <trkpt lat="47.34623" lon="7.91611">
        <ele>416.5</ele>
        <time>2022-10-01T15:56:58Z</time>
      </trkpt>
      <trkpt lat="47.34621" lon="7.91613">
        <ele>416.5</ele>
        <time>2022-10-01T15:56:59Z</time>
      </trkpt>
      <trkpt lat="47.34619" lon="7.91616">
        <ele>416.6</ele>
        <time>2022-10-01T15:57:00Z</time>
      </trkpt>
      <trkpt lat="47.34617" lon="7.9162">
        <ele>416.6</ele>
        <time>2022-10-01T15:57:01Z</time>
      </trkpt>
      <trkpt lat="47.34615" lon="7.91623">
        <ele>416.7</ele>
        <time>2022-10-01T15:57:02Z</time>
      </trkpt>
      <trkpt lat="47.34612" lon="7.91626">
        <ele>416.8</ele>
        <time>2022-10-01T15:57:03Z</time>
      </trkpt>
      <trkpt lat="47.3461" lon="7.91629">
        <ele>416.8</ele>
        <time>2022-10-01T15:57:04Z</time>
      </trkpt>
      <trkpt lat="47.34607" lon="7.91631">
        <ele>416.9</ele>
        <time>2022-10-01T15:57:05Z</time>
      </trkpt>
      <trkpt lat="47.34605" lon="7.91635">
        <ele>417</ele>
        <time>2022-10-01T15:57:06Z</time>
      </trkpt>
      <trkpt lat="47.34603" lon="7.91638">
        <ele>417</ele>
        <time>2022-10-01T15:57:07Z</time>
      </trkpt>
      <trkpt lat="47.34601" lon="7.91641">
        <ele>417.1</ele>
        <time>2022-10-01T15:57:08Z</time>
      </trkpt>
      <trkpt lat="47.34598" lon="7.91644">
        <ele>417.2</ele>
        <time>2022-10-01T15:57:09Z</time>
      </trkpt>
      <trkpt lat="47.34595" lon="7.91646">
        <ele>417.2</ele>
        <time>2022-10-01T15:57:10Z</time>
      </trkpt>
      <trkpt lat="47.34594" lon="7.9165">
        <ele>417.3</ele>
        <time>2022-10-01T15:57:11Z</time>
      </trkpt>
      <trkpt lat="47.34591" lon="7.91653">
        <ele>417.4</ele>
        <time>2022-10-01T15:57:12Z</time>
      </trkpt>
      <trkpt lat="47.34589" lon="7.91657">
        <ele>417.5</ele>
        <time>2022-10-01T15:57:13Z</time>
      </trkpt>
      <trkpt lat="47.34586" lon="7.9166">
        <ele>417.6</ele>
        <time>2022-10-01T15:57:14Z</time>
      </trkpt>
      <trkpt lat="47.34585" lon="7.91663">
        <ele>417.6</ele>
        <time>2022-10-01T15:57:15Z</time>
      </trkpt>
      <trkpt lat="47.34581" lon="7.91665">
        <ele>417.8</ele>
        <time>2022-10-01T15:57:16Z</time>
      </trkpt>
      <trkpt lat="47.34579" lon="7.91669">
        <ele>417.9</ele>
        <time>2022-10-01T15:57:17Z</time>
      </trkpt>
      <trkpt lat="47.34576" lon="7.91672">
        <ele>418</ele>
        <time>2022-10-01T15:57:18Z</time>
      </trkpt>
      <trkpt lat="47.34573" lon="7.91676">
        <ele>418.1</ele>
        <time>2022-10-01T15:57:19Z</time>
      </trkpt>
      <trkpt lat="47.34572" lon="7.91676">
        <ele>418.2</ele>
        <time>2022-10-01T15:57:20Z</time>
      </trkpt>
      <trkpt lat="47.34571" lon="7.91681">
        <ele>418.3</ele>
        <time>2022-10-01T15:57:21Z</time>
      </trkpt>
      <trkpt lat="47.34568" lon="7.91683">
        <ele>418.4</ele>
        <time>2022-10-01T15:57:22Z</time>
      </trkpt>
      <trkpt lat="47.34566" lon="7.91686">
        <ele>418.6</ele>
        <time>2022-10-01T15:57:23Z</time>
      </trkpt>
      <trkpt lat="47.34563" lon="7.91688">
        <ele>418.7</ele>
        <time>2022-10-01T15:57:24Z</time>
      </trkpt>
      <trkpt lat="47.34561" lon="7.91691">
        <ele>418.8</ele>
        <time>2022-10-01T15:57:25Z</time>
      </trkpt>
      <trkpt lat="47.34558" lon="7.91694">
        <ele>419</ele>
        <time>2022-10-01T15:57:26Z</time>
      </trkpt>
      <trkpt lat="47.34557" lon="7.91696">
        <ele>419.1</ele>
        <time>2022-10-01T15:57:27Z</time>
      </trkpt>
      <trkpt lat="47.34555" lon="7.917">
        <ele>419.3</ele>
        <time>2022-10-01T15:57:28Z</time>
      </trkpt>
      <trkpt lat="47.34554" lon="7.91701">
        <ele>419.4</ele>
        <time>2022-10-01T15:57:29Z</time>
      </trkpt>
      <trkpt lat="47.34551" lon="7.91702">
        <ele>419.6</ele>
        <time>2022-10-01T15:57:30Z</time>
      </trkpt>
      <trkpt lat="47.34548" lon="7.91704">
        <ele>419.8</ele>
        <time>2022-10-01T15:57:31Z</time>
      </trkpt>
      <trkpt lat="47.34546" lon="7.91705">
        <ele>419.8</ele>
        <time>2022-10-01T15:57:32Z</time>
      </trkpt>
      <trkpt lat="47.34544" lon="7.91708">
        <ele>420</ele>
        <time>2022-10-01T15:57:33Z</time>
      </trkpt>
      <trkpt lat="47.34544" lon="7.91709">
        <ele>420.1</ele>
        <time>2022-10-01T15:57:34Z</time>
      </trkpt>
      <trkpt lat="47.3454" lon="7.91712">
        <ele>420.3</ele>
        <time>2022-10-01T15:57:35Z</time>
      </trkpt>
      <trkpt lat="47.34539" lon="7.91713">
        <ele>420.4</ele>
        <time>2022-10-01T15:57:36Z</time>
      </trkpt>
      <trkpt lat="47.34537" lon="7.91716">
        <ele>420.6</ele>
        <time>2022-10-01T15:57:37Z</time>
      </trkpt>
      <trkpt lat="47.34536" lon="7.91717">
        <ele>420.6</ele>
        <time>2022-10-01T15:57:38Z</time>
      </trkpt>
      <trkpt lat="47.34534" lon="7.9172">
        <ele>420.8</ele>
        <time>2022-10-01T15:57:39Z</time>
      </trkpt>
      <trkpt lat="47.34533" lon="7.91721">
        <ele>420.9</ele>
        <time>2022-10-01T15:57:40Z</time>
      </trkpt>
      <trkpt lat="47.34531" lon="7.91723">
        <ele>421.1</ele>
        <time>2022-10-01T15:57:41Z</time>
      </trkpt>
      <trkpt lat="47.3453" lon="7.91724">
        <ele>421.2</ele>
        <time>2022-10-01T15:57:42Z</time>
      </trkpt>
      <trkpt lat="47.34527" lon="7.91727">
        <ele>421.4</ele>
        <time>2022-10-01T15:57:43Z</time>
      </trkpt>
      <trkpt lat="47.34526" lon="7.91727">
        <ele>421.5</ele>
        <time>2022-10-01T15:57:44Z</time>
      </trkpt>
      <trkpt lat="47.34524" lon="7.9173">
        <ele>421.7</ele>
        <time>2022-10-01T15:57:45Z</time>
      </trkpt>
      <trkpt lat="47.34523" lon="7.91731">
        <ele>421.7</ele>
        <time>2022-10-01T15:57:46Z</time>
      </trkpt>
      <trkpt lat="47.34522" lon="7.91732">
        <ele>421.8</ele>
        <time>2022-10-01T15:57:47Z</time>
      </trkpt>
      <trkpt lat="47.3452" lon="7.91734">
        <ele>421.9</ele>
        <time>2022-10-01T15:57:48Z</time>
      </trkpt>
      <trkpt lat="47.34518" lon="7.91736">
        <ele>422</ele>
        <time>2022-10-01T15:57:49Z</time>
      </trkpt>
      <trkpt lat="47.34518" lon="7.91737">
        <ele>422</ele>
        <time>2022-10-01T15:57:50Z</time>
      </trkpt>
      <trkpt lat="47.34516" lon="7.9174">
        <ele>422.1</ele>
        <time>2022-10-01T15:57:51Z</time>
      </trkpt>
      <trkpt lat="47.34515" lon="7.91741">
        <ele>422.2</ele>
        <time>2022-10-01T15:57:52Z</time>
      </trkpt>
      <trkpt lat="47.34514" lon="7.91743">
        <ele>422.3</ele>
        <time>2022-10-01T15:57:53Z</time>
      </trkpt>
      <trkpt lat="47.34514" lon="7.91745">
        <ele>422.4</ele>
        <time>2022-10-01T15:57:54Z</time>
      </trkpt>
      <trkpt lat="47.34512" lon="7.91748">
        <ele>422.5</ele>
        <time>2022-10-01T15:57:55Z</time>
      </trkpt>
      <trkpt lat="47.34511" lon="7.91749">
        <ele>422.5</ele>
        <time>2022-10-01T15:57:56Z</time>
      </trkpt>
      <trkpt lat="47.3451" lon="7.91751">
        <ele>422.7</ele>
        <time>2022-10-01T15:57:57Z</time>
      </trkpt>
      <trkpt lat="47.34509" lon="7.91752">
        <ele>422.7</ele>
        <time>2022-10-01T15:57:58Z</time>
      </trkpt>
      <trkpt lat="47.34507" lon="7.91756">
        <ele>422.9</ele>
        <time>2022-10-01T15:57:59Z</time>
      </trkpt>
      <trkpt lat="47.34505" lon="7.9176">
        <ele>423.1</ele>
        <time>2022-10-01T15:58:00Z</time>
      </trkpt>
      <trkpt lat="47.34504" lon="7.91761">
        <ele>423.2</ele>
        <time>2022-10-01T15:58:01Z</time>
      </trkpt>
      <trkpt lat="47.34503" lon="7.91765">
        <ele>423.3</ele>
        <time>2022-10-01T15:58:02Z</time>
      </trkpt>
      <trkpt lat="47.34503" lon="7.91767">
        <ele>423.5</ele>
        <time>2022-10-01T15:58:03Z</time>
      </trkpt>
      <trkpt lat="47.34501" lon="7.9177">
        <ele>423.7</ele>
        <time>2022-10-01T15:58:04Z</time>
      </trkpt>
      <trkpt lat="47.345" lon="7.91771">
        <ele>423.7</ele>
        <time>2022-10-01T15:58:05Z</time>
      </trkpt>
      <trkpt lat="47.345" lon="7.91773">
        <ele>423.9</ele>
        <time>2022-10-01T15:58:06Z</time>
      </trkpt>
      <trkpt lat="47.34499" lon="7.91775">
        <ele>424</ele>
        <time>2022-10-01T15:58:07Z</time>
      </trkpt>
      <trkpt lat="47.34498" lon="7.91778">
        <ele>424.1</ele>
        <time>2022-10-01T15:58:08Z</time>
      </trkpt>
      <trkpt lat="47.34498" lon="7.9178">
        <ele>424.2</ele>
        <time>2022-10-01T15:58:09Z</time>
      </trkpt>
      <trkpt lat="47.34498" lon="7.91782">
        <ele>424.3</ele>
        <time>2022-10-01T15:58:10Z</time>
      </trkpt>
      <trkpt lat="47.34498" lon="7.91785">
        <ele>424.5</ele>
        <time>2022-10-01T15:58:11Z</time>
      </trkpt>
      <trkpt lat="47.34497" lon="7.91787">
        <ele>424.6</ele>
        <time>2022-10-01T15:58:12Z</time>
      </trkpt>
      <trkpt lat="47.34497" lon="7.91789">
        <ele>424.7</ele>
        <time>2022-10-01T15:58:13Z</time>
      </trkpt>
      <trkpt lat="47.34496" lon="7.91791">
        <ele>424.8</ele>
        <time>2022-10-01T15:58:14Z</time>
      </trkpt>
      <trkpt lat="47.34496" lon="7.91793">
        <ele>424.9</ele>
        <time>2022-10-01T15:58:15Z</time>
      </trkpt>
      <trkpt lat="47.34495" lon="7.91798">
        <ele>425.1</ele>
        <time>2022-10-01T15:58:16Z</time>
      </trkpt>
      <trkpt lat="47.34495" lon="7.91799">
        <ele>425.2</ele>
        <time>2022-10-01T15:58:17Z</time>
      </trkpt>
      <trkpt lat="47.34495" lon="7.91801">
        <ele>425.2</ele>
        <time>2022-10-01T15:58:18Z</time>
      </trkpt>
      <trkpt lat="47.34494" lon="7.91803">
        <ele>425.2</ele>
        <time>2022-10-01T15:58:19Z</time>
      </trkpt>
      <trkpt lat="47.34494" lon="7.91805">
        <ele>425.3</ele>
        <time>2022-10-01T15:58:20Z</time>
      </trkpt>
      <trkpt lat="47.34494" lon="7.91808">
        <ele>425.3</ele>
        <time>2022-10-01T15:58:21Z</time>
      </trkpt>
      <trkpt lat="47.34494" lon="7.9181">
        <ele>425.3</ele>
        <time>2022-10-01T15:58:22Z</time>
      </trkpt>
      <trkpt lat="47.34493" lon="7.91809">
        <ele>425.3</ele>
        <time>2022-10-01T15:58:23Z</time>
      </trkpt>
      <trkpt lat="47.34493" lon="7.91809">
        <ele>425.3</ele>
        <time>2022-10-01T15:58:24Z</time>
      </trkpt>
      <trkpt lat="47.34494" lon="7.9181">
        <ele>425.3</ele>
        <time>2022-10-01T15:58:25Z</time>
      </trkpt>
      <trkpt lat="47.34494" lon="7.9181">
        <ele>425.3</ele>
        <time>2022-10-01T15:58:26Z</time>
      </trkpt>
      <trkpt lat="47.34495" lon="7.9181">
        <ele>425.3</ele>
        <time>2022-10-01T15:58:27Z</time>
      </trkpt>
      <trkpt lat="47.34495" lon="7.9181">
        <ele>425.3</ele>
        <time>2022-10-01T15:58:28Z</time>
      </trkpt>
      <trkpt lat="47.34494" lon="7.91811">
        <ele>425.3</ele>
        <time>2022-10-01T15:58:29Z</time>
      </trkpt>
      <trkpt lat="47.34495" lon="7.91812">
        <ele>425.3</ele>
        <time>2022-10-01T15:58:30Z</time>
      </trkpt>
      <trkpt lat="47.34494" lon="7.91811">
        <ele>425.3</ele>
        <time>2022-10-01T15:58:31Z</time>
      </trkpt>
      <trkpt lat="47.34494" lon="7.91812">
        <ele>425.3</ele>
        <time>2022-10-01T15:58:32Z</time>
      </trkpt>
      <trkpt lat="47.34552" lon="7.91705">
        <ele>419.5</ele>
        <time>2022-10-02T07:48:42Z</time>
      </trkpt>
      <trkpt lat="47.34555" lon="7.91693">
        <ele>419.2</ele>
        <time>2022-10-02T07:48:44Z</time>
      </trkpt>
      <trkpt lat="47.34555" lon="7.91693">
        <ele>419.2</ele>
        <time>2022-10-02T07:48:45Z</time>
      </trkpt>
      <trkpt lat="47.34552" lon="7.91689">
        <ele>419</ele>
        <time>2022-10-02T07:48:46Z</time>
      </trkpt>
      <trkpt lat="47.3455" lon="7.9169">
        <ele>418.9</ele>
        <time>2022-10-02T07:48:47Z</time>
      </trkpt>
      <trkpt lat="47.3455" lon="7.91693">
        <ele>418.9</ele>
        <time>2022-10-02T07:48:48Z</time>
      </trkpt>
      <trkpt lat="47.3455" lon="7.91695">
        <ele>418.8</ele>
        <time>2022-10-02T07:48:49Z</time>
      </trkpt>
      <trkpt lat="47.34552" lon="7.91694">
        <ele>418.7</ele>
        <time>2022-10-02T07:48:50Z</time>
      </trkpt>
      <trkpt lat="47.34565" lon="7.91693">
        <ele>418.3</ele>
        <time>2022-10-02T07:48:51Z</time>
      </trkpt>
      <trkpt lat="47.34565" lon="7.91692">
        <ele>418.3</ele>
        <time>2022-10-02T07:48:52Z</time>
      </trkpt>
      <trkpt lat="47.34566" lon="7.91688">
        <ele>418.2</ele>
        <time>2022-10-02T07:48:53Z</time>
      </trkpt>
      <trkpt lat="47.34567" lon="7.91686">
        <ele>418.1</ele>
        <time>2022-10-02T07:48:54Z</time>
      </trkpt>
      <trkpt lat="47.34568" lon="7.91685">
        <ele>418.1</ele>
        <time>2022-10-02T07:48:55Z</time>
      </trkpt>
      <trkpt lat="47.34569" lon="7.91684">
        <ele>418</ele>
        <time>2022-10-02T07:48:56Z</time>
      </trkpt>
      <trkpt lat="47.34572" lon="7.91684">
        <ele>418</ele>
        <time>2022-10-02T07:48:57Z</time>
      </trkpt>
      <trkpt lat="47.34575" lon="7.91681">
        <ele>417.9</ele>
        <time>2022-10-02T07:48:58Z</time>
      </trkpt>
      <trkpt lat="47.34578" lon="7.91677">
        <ele>417.8</ele>
        <time>2022-10-02T07:48:59Z</time>
      </trkpt>
      <trkpt lat="47.34582" lon="7.91675">
        <ele>417.7</ele>
        <time>2022-10-02T07:49:00Z</time>
      </trkpt>
      <trkpt lat="47.34584" lon="7.91672">
        <ele>417.6</ele>
        <time>2022-10-02T07:49:01Z</time>
      </trkpt>
      <trkpt lat="47.34587" lon="7.91667">
        <ele>417.5</ele>
        <time>2022-10-02T07:49:02Z</time>
      </trkpt>
      <trkpt lat="47.34587" lon="7.9166">
        <ele>417.4</ele>
        <time>2022-10-02T07:49:03Z</time>
      </trkpt>
      <trkpt lat="47.34593" lon="7.91656">
        <ele>417.3</ele>
        <time>2022-10-02T07:49:04Z</time>
      </trkpt>
      <trkpt lat="47.346" lon="7.91653">
        <ele>417.2</ele>
        <time>2022-10-02T07:49:05Z</time>
      </trkpt>
      <trkpt lat="47.34603" lon="7.91645">
        <ele>417.1</ele>
        <time>2022-10-02T07:49:06Z</time>
      </trkpt>
      <trkpt lat="47.34607" lon="7.9164">
        <ele>417</ele>
        <time>2022-10-02T07:49:07Z</time>
      </trkpt>
      <trkpt lat="47.3461" lon="7.91636">
        <ele>416.9</ele>
        <time>2022-10-02T07:49:08Z</time>
      </trkpt>
      <trkpt lat="47.34614" lon="7.91631">
        <ele>416.8</ele>
        <time>2022-10-02T07:49:09Z</time>
      </trkpt>
      <trkpt lat="47.34618" lon="7.91626">
        <ele>416.7</ele>
        <time>2022-10-02T07:49:10Z</time>
      </trkpt>
      <trkpt lat="47.34621" lon="7.91621">
        <ele>416.6</ele>
        <time>2022-10-02T07:49:11Z</time>
      </trkpt>
      <trkpt lat="47.34625" lon="7.91616">
        <ele>416.5</ele>
        <time>2022-10-02T07:49:12Z</time>
      </trkpt>
      <trkpt lat="47.3463" lon="7.91611">
        <ele>416.4</ele>
        <time>2022-10-02T07:49:13Z</time>
      </trkpt>
      <trkpt lat="47.34632" lon="7.91606">
        <ele>416.3</ele>
        <time>2022-10-02T07:49:14Z</time>
      </trkpt>
      <trkpt lat="47.34636" lon="7.916">
        <ele>416.2</ele>
        <time>2022-10-02T07:49:15Z</time>
      </trkpt>
      <trkpt lat="47.3464" lon="7.91595">
        <ele>416.1</ele>
        <time>2022-10-02T07:49:16Z</time>
      </trkpt>
      <trkpt lat="47.34643" lon="7.91589">
        <ele>416.1</ele>
        <time>2022-10-02T07:49:17Z</time>
      </trkpt>
      <trkpt lat="47.34647" lon="7.91584">
        <ele>416</ele>
        <time>2022-10-02T07:49:18Z</time>
      </trkpt>
      <trkpt lat="47.34651" lon="7.91579">
        <ele>416</ele>
        <time>2022-10-02T07:49:19Z</time>
      </trkpt>
      <trkpt lat="47.34656" lon="7.91574">
        <ele>415.9</ele>
        <time>2022-10-02T07:49:20Z</time>
      </trkpt>
      <trkpt lat="47.34661" lon="7.91568">
        <ele>415.8</ele>
        <time>2022-10-02T07:49:21Z</time>
      </trkpt>
      <trkpt lat="47.34665" lon="7.91562">
        <ele>415.7</ele>
        <time>2022-10-02T07:49:22Z</time>
      </trkpt>
      <trkpt lat="47.34667" lon="7.91556">
        <ele>415.6</ele>
        <time>2022-10-02T07:49:23Z</time>
      </trkpt>
      <trkpt lat="47.34672" lon="7.9155">
        <ele>415.5</ele>
        <time>2022-10-02T07:49:24Z</time>
      </trkpt>
      <trkpt lat="47.34677" lon="7.91544">
        <ele>415.4</ele>
        <time>2022-10-02T07:49:25Z</time>
      </trkpt>
      <trkpt lat="47.34681" lon="7.91539">
        <ele>415.3</ele>
        <time>2022-10-02T07:49:26Z</time>
      </trkpt>
      <trkpt lat="47.34684" lon="7.91534">
        <ele>415.2</ele>
        <time>2022-10-02T07:49:27Z</time>
      </trkpt>
      <trkpt lat="47.34688" lon="7.91528">
        <ele>415.1</ele>
        <time>2022-10-02T07:49:28Z</time>
      </trkpt>
      <trkpt lat="47.34692" lon="7.91523">
        <ele>415</ele>
        <time>2022-10-02T07:49:29Z</time>
      </trkpt>
      <trkpt lat="47.34695" lon="7.9152">
        <ele>414.9</ele>
        <time>2022-10-02T07:49:30Z</time>
      </trkpt>
      <trkpt lat="47.34695" lon="7.91519">
        <ele>414.9</ele>
        <time>2022-10-02T07:49:31Z</time>
      </trkpt>
      <trkpt lat="47.34696" lon="7.91517">
        <ele>414.9</ele>
        <time>2022-10-02T07:49:32Z</time>
      </trkpt>
      <trkpt lat="47.34697" lon="7.91515">
        <ele>414.9</ele>
        <time>2022-10-02T07:49:33Z</time>
      </trkpt>
      <trkpt lat="47.34698" lon="7.91513">
        <ele>414.8</ele>
        <time>2022-10-02T07:49:34Z</time>
      </trkpt>
      <trkpt lat="47.34701" lon="7.91512">
        <ele>414.8</ele>
        <time>2022-10-02T07:49:35Z</time>
      </trkpt>
      <trkpt lat="47.34705" lon="7.91509">
        <ele>414.7</ele>
        <time>2022-10-02T07:49:36Z</time>
      </trkpt>
      <trkpt lat="47.34711" lon="7.91498">
        <ele>414.5</ele>
        <time>2022-10-02T07:49:37Z</time>
      </trkpt>
      <trkpt lat="47.34714" lon="7.91496">
        <ele>414.4</ele>
        <time>2022-10-02T07:49:38Z</time>
      </trkpt>
      <trkpt lat="47.34717" lon="7.91491">
        <ele>414.3</ele>
        <time>2022-10-02T07:49:39Z</time>
      </trkpt>
      <trkpt lat="47.34721" lon="7.91487">
        <ele>414.2</ele>
        <time>2022-10-02T07:49:40Z</time>
      </trkpt>
      <trkpt lat="47.34725" lon="7.91483">
        <ele>414.1</ele>
        <time>2022-10-02T07:49:41Z</time>
      </trkpt>
      <trkpt lat="47.34729" lon="7.91478">
        <ele>414</ele>
        <time>2022-10-02T07:49:42Z</time>
      </trkpt>
      <trkpt lat="47.34734" lon="7.91473">
        <ele>413.9</ele>
        <time>2022-10-02T07:49:43Z</time>
      </trkpt>
      <trkpt lat="47.34737" lon="7.91468">
        <ele>413.7</ele>
        <time>2022-10-02T07:49:44Z</time>
      </trkpt>
      <trkpt lat="47.34741" lon="7.91462">
        <ele>413.6</ele>
        <time>2022-10-02T07:49:45Z</time>
      </trkpt>
      <trkpt lat="47.34744" lon="7.91459">
        <ele>413.5</ele>
        <time>2022-10-02T07:49:46Z</time>
      </trkpt>
      <trkpt lat="47.34748" lon="7.91454">
        <ele>413.4</ele>
        <time>2022-10-02T07:49:47Z</time>
      </trkpt>
      <trkpt lat="47.34751" lon="7.9145">
        <ele>413.3</ele>
        <time>2022-10-02T07:49:48Z</time>
      </trkpt>
      <trkpt lat="47.34752" lon="7.9145">
        <ele>413.2</ele>
        <time>2022-10-02T07:49:49Z</time>
      </trkpt>
      <trkpt lat="47.34751" lon="7.91444">
        <ele>412.9</ele>
        <time>2022-10-02T07:49:50Z</time>
      </trkpt>
      <trkpt lat="47.34751" lon="7.91442">
        <ele>412.8</ele>
        <time>2022-10-02T07:49:51Z</time>
      </trkpt>
      <trkpt lat="47.3475" lon="7.91439">
        <ele>412.6</ele>
        <time>2022-10-02T07:49:52Z</time>
      </trkpt>
      <trkpt lat="47.34749" lon="7.91435">
        <ele>412.4</ele>
        <time>2022-10-02T07:49:53Z</time>
      </trkpt>
      <trkpt lat="47.34747" lon="7.9143">
        <ele>412.1</ele>
        <time>2022-10-02T07:49:54Z</time>
      </trkpt>
      <trkpt lat="47.34746" lon="7.91428">
        <ele>411.9</ele>
        <time>2022-10-02T07:49:55Z</time>
      </trkpt>
      <trkpt lat="47.34744" lon="7.91423">
        <ele>411.6</ele>
        <time>2022-10-02T07:49:56Z</time>
      </trkpt>
      <trkpt lat="47.34741" lon="7.91418">
        <ele>411.3</ele>
        <time>2022-10-02T07:49:57Z</time>
      </trkpt>
      <trkpt lat="47.34741" lon="7.91412">
        <ele>410</ele>
        <time>2022-10-02T07:49:58Z</time>
      </trkpt>
      <trkpt lat="47.34741" lon="7.91407">
        <ele>409.8</ele>
        <time>2022-10-02T07:49:59Z</time>
      </trkpt>
      <trkpt lat="47.34744" lon="7.91402">
        <ele>409.5</ele>
        <time>2022-10-02T07:50:00Z</time>
      </trkpt>
      <trkpt lat="47.34748" lon="7.91397">
        <ele>409.3</ele>
        <time>2022-10-02T07:50:01Z</time>
      </trkpt>
      <trkpt lat="47.3475" lon="7.9139">
        <ele>409</ele>
        <time>2022-10-02T07:50:02Z</time>
      </trkpt>
      <trkpt lat="47.34753" lon="7.91383">
        <ele>408.6</ele>
        <time>2022-10-02T07:50:03Z</time>
      </trkpt>
      <trkpt lat="47.34756" lon="7.91376">
        <ele>408.3</ele>
        <time>2022-10-02T07:50:04Z</time>
      </trkpt>
      <trkpt lat="47.34759" lon="7.91367">
        <ele>408</ele>
        <time>2022-10-02T07:50:05Z</time>
      </trkpt>
      <trkpt lat="47.34762" lon="7.91361">
        <ele>407.7</ele>
        <time>2022-10-02T07:50:06Z</time>
      </trkpt>
      <trkpt lat="47.34766" lon="7.91354">
        <ele>407.4</ele>
        <time>2022-10-02T07:50:07Z</time>
      </trkpt>
      <trkpt lat="47.3477" lon="7.91345">
        <ele>407.1</ele>
        <time>2022-10-02T07:50:08Z</time>
      </trkpt>
      <trkpt lat="47.34772" lon="7.91337">
        <ele>406.9</ele>
        <time>2022-10-02T07:50:09Z</time>
      </trkpt>
      <trkpt lat="47.34776" lon="7.91328">
        <ele>406.6</ele>
        <time>2022-10-02T07:50:10Z</time>
      </trkpt>
      <trkpt lat="47.3478" lon="7.91324">
        <ele>406.4</ele>
        <time>2022-10-02T07:50:11Z</time>
      </trkpt>
      <trkpt lat="47.34782" lon="7.91316">
        <ele>406.1</ele>
        <time>2022-10-02T07:50:12Z</time>
      </trkpt>
      <trkpt lat="47.34786" lon="7.91307">
        <ele>405.9</ele>
        <time>2022-10-02T07:50:13Z</time>
      </trkpt>
      <trkpt lat="47.3479" lon="7.913">
        <ele>405.6</ele>
        <time>2022-10-02T07:50:14Z</time>
      </trkpt>
      <trkpt lat="47.34794" lon="7.91293">
        <ele>405.4</ele>
        <time>2022-10-02T07:50:15Z</time>
      </trkpt>
      <trkpt lat="47.34797" lon="7.91287">
        <ele>405.2</ele>
        <time>2022-10-02T07:50:16Z</time>
      </trkpt>
      <trkpt lat="47.348" lon="7.91279">
        <ele>405</ele>
        <time>2022-10-02T07:50:17Z</time>
      </trkpt>
      <trkpt lat="47.34804" lon="7.91272">
        <ele>404.9</ele>
        <time>2022-10-02T07:50:18Z</time>
      </trkpt>
      <trkpt lat="47.34806" lon="7.91264">
        <ele>404.8</ele>
        <time>2022-10-02T07:50:19Z</time>
      </trkpt>
      <trkpt lat="47.3481" lon="7.91257">
        <ele>404.6</ele>
        <time>2022-10-02T07:50:20Z</time>
      </trkpt>
      <trkpt lat="47.34813" lon="7.91249">
        <ele>404.5</ele>
        <time>2022-10-02T07:50:21Z</time>
      </trkpt>
      <trkpt lat="47.34817" lon="7.91242">
        <ele>404.3</ele>
        <time>2022-10-02T07:50:22Z</time>
      </trkpt>
      <trkpt lat="47.34821" lon="7.91236">
        <ele>404.2</ele>
        <time>2022-10-02T07:50:23Z</time>
      </trkpt>
      <trkpt lat="47.34824" lon="7.91228">
        <ele>404.1</ele>
        <time>2022-10-02T07:50:24Z</time>
      </trkpt>
      <trkpt lat="47.34828" lon="7.91221">
        <ele>403.9</ele>
        <time>2022-10-02T07:50:25Z</time>
      </trkpt>
      <trkpt lat="47.34832" lon="7.91213">
        <ele>403.8</ele>
        <time>2022-10-02T07:50:26Z</time>
      </trkpt>
      <trkpt lat="47.34834" lon="7.91207">
        <ele>403.7</ele>
        <time>2022-10-02T07:50:27Z</time>
      </trkpt>
      <trkpt lat="47.34837" lon="7.912">
        <ele>403.6</ele>
        <time>2022-10-02T07:50:28Z</time>
      </trkpt>
      <trkpt lat="47.3484" lon="7.91196">
        <ele>403.6</ele>
        <time>2022-10-02T07:50:29Z</time>
      </trkpt>
      <trkpt lat="47.34843" lon="7.91191">
        <ele>403.5</ele>
        <time>2022-10-02T07:50:30Z</time>
      </trkpt>
      <trkpt lat="47.34844" lon="7.91187">
        <ele>403.5</ele>
        <time>2022-10-02T07:50:31Z</time>
      </trkpt>
      <trkpt lat="47.34845" lon="7.9118">
        <ele>403.4</ele>
        <time>2022-10-02T07:50:32Z</time>
      </trkpt>
      <trkpt lat="47.34845" lon="7.91176">
        <ele>403.3</ele>
        <time>2022-10-02T07:50:33Z</time>
      </trkpt>
      <trkpt lat="47.34848" lon="7.91173">
        <ele>403.3</ele>
        <time>2022-10-02T07:50:34Z</time>
      </trkpt>
      <trkpt lat="47.34849" lon="7.91171">
        <ele>403.2</ele>
        <time>2022-10-02T07:50:35Z</time>
      </trkpt>
      <trkpt lat="47.34852" lon="7.91168">
        <ele>403.2</ele>
        <time>2022-10-02T07:50:36Z</time>
      </trkpt>
      <trkpt lat="47.34855" lon="7.91166">
        <ele>403.1</ele>
        <time>2022-10-02T07:50:37Z</time>
      </trkpt>
      <trkpt lat="47.34857" lon="7.91164">
        <ele>403.1</ele>
        <time>2022-10-02T07:50:38Z</time>
      </trkpt>
      <trkpt lat="47.3486" lon="7.91165">
        <ele>403.2</ele>
        <time>2022-10-02T07:50:39Z</time>
      </trkpt>
      <trkpt lat="47.34862" lon="7.91166">
        <ele>403.3</ele>
        <time>2022-10-02T07:50:40Z</time>
      </trkpt>
      <trkpt lat="47.34865" lon="7.91167">
        <ele>403.3</ele>
        <time>2022-10-02T07:50:41Z</time>
      </trkpt>
      <trkpt lat="47.34865" lon="7.91168">
        <ele>403.3</ele>
        <time>2022-10-02T07:50:42Z</time>
      </trkpt>
      <trkpt lat="47.34866" lon="7.91168">
        <ele>403.3</ele>
        <time>2022-10-02T07:50:43Z</time>
      </trkpt>
      <trkpt lat="47.34866" lon="7.91168">
        <ele>403.4</ele>
        <time>2022-10-02T07:50:44Z</time>
      </trkpt>
      <trkpt lat="47.34867" lon="7.91169">
        <ele>403.4</ele>
        <time>2022-10-02T07:50:45Z</time>
      </trkpt>
      <trkpt lat="47.34867" lon="7.91169">
        <ele>403.4</ele>
        <time>2022-10-02T07:50:46Z</time>
      </trkpt>
      <trkpt lat="47.34867" lon="7.91169">
        <ele>403.4</ele>
        <time>2022-10-02T07:50:47Z</time>
      </trkpt>
      <trkpt lat="47.34867" lon="7.91169">
        <ele>403.4</ele>
        <time>2022-10-02T07:50:48Z</time>
      </trkpt>
      <trkpt lat="47.34867" lon="7.91169">
        <ele>403.4</ele>
        <time>2022-10-02T07:50:49Z</time>
      </trkpt>
      <trkpt lat="47.34868" lon="7.91169">
        <ele>403.4</ele>
        <time>2022-10-02T07:50:50Z</time>
      </trkpt>
      <trkpt lat="47.34869" lon="7.91169">
        <ele>403.4</ele>
        <time>2022-10-02T07:50:51Z</time>
      </trkpt>
      <trkpt lat="47.34871" lon="7.91169">
        <ele>403.5</ele>
        <time>2022-10-02T07:50:52Z</time>
      </trkpt>
      <trkpt lat="47.34872" lon="7.91169">
        <ele>403.5</ele>
        <time>2022-10-02T07:50:53Z</time>
      </trkpt>
      <trkpt lat="47.34873" lon="7.91169">
        <ele>403.5</ele>
        <time>2022-10-02T07:50:55Z</time>
      </trkpt>
      <trkpt lat="47.34874" lon="7.91169">
        <ele>403.5</ele>
        <time>2022-10-02T07:50:56Z</time>
      </trkpt>
      <trkpt lat="47.34876" lon="7.91169">
        <ele>403.5</ele>
        <time>2022-10-02T07:50:57Z</time>
      </trkpt>
      <trkpt lat="47.34879" lon="7.91168">
        <ele>403.5</ele>
        <time>2022-10-02T07:50:58Z</time>
      </trkpt>
      <trkpt lat="47.3488" lon="7.91167">
        <ele>403.4</ele>
        <time>2022-10-02T07:50:59Z</time>
      </trkpt>
      <trkpt lat="47.34883" lon="7.91165">
        <ele>403.4</ele>
        <time>2022-10-02T07:51:00Z</time>
      </trkpt>
      <trkpt lat="47.34886" lon="7.91161">
        <ele>403.3</ele>
        <time>2022-10-02T07:51:01Z</time>
      </trkpt>
      <trkpt lat="47.34888" lon="7.91156">
        <ele>403.3</ele>
        <time>2022-10-02T07:51:02Z</time>
      </trkpt>
      <trkpt lat="47.3489" lon="7.91151">
        <ele>403.2</ele>
        <time>2022-10-02T07:51:03Z</time>
      </trkpt>
      <trkpt lat="47.34893" lon="7.91146">
        <ele>403.1</ele>
        <time>2022-10-02T07:51:04Z</time>
      </trkpt>
      <trkpt lat="47.34895" lon="7.9114">
        <ele>403</ele>
        <time>2022-10-02T07:51:05Z</time>
      </trkpt>
      <trkpt lat="47.34896" lon="7.91137">
        <ele>403</ele>
        <time>2022-10-02T07:51:06Z</time>
      </trkpt>
      <trkpt lat="47.34897" lon="7.91133">
        <ele>402.9</ele>
        <time>2022-10-02T07:51:07Z</time>
      </trkpt>
      <trkpt lat="47.34901" lon="7.91124">
        <ele>402.7</ele>
        <time>2022-10-02T07:51:09Z</time>
      </trkpt>
      <trkpt lat="47.34908" lon="7.9111">
        <ele>402.4</ele>
        <time>2022-10-02T07:51:10Z</time>
      </trkpt>
      <trkpt lat="47.3491" lon="7.91103">
        <ele>402.2</ele>
        <time>2022-10-02T07:51:11Z</time>
      </trkpt>
      <trkpt lat="47.34913" lon="7.91095">
        <ele>402</ele>
        <time>2022-10-02T07:51:12Z</time>
      </trkpt>
      <trkpt lat="47.34917" lon="7.91088">
        <ele>401.8</ele>
        <time>2022-10-02T07:51:13Z</time>
      </trkpt>
      <trkpt lat="47.3492" lon="7.91077">
        <ele>401.6</ele>
        <time>2022-10-02T07:51:14Z</time>
      </trkpt>
      <trkpt lat="47.34922" lon="7.91068">
        <ele>401.4</ele>
        <time>2022-10-02T07:51:15Z</time>
      </trkpt>
      <trkpt lat="47.34925" lon="7.91059">
        <ele>401.2</ele>
        <time>2022-10-02T07:51:16Z</time>
      </trkpt>
      <trkpt lat="47.34927" lon="7.91049">
        <ele>401</ele>
        <time>2022-10-02T07:51:17Z</time>
      </trkpt>
      <trkpt lat="47.3493" lon="7.91041">
        <ele>400.9</ele>
        <time>2022-10-02T07:51:18Z</time>
      </trkpt>
      <trkpt lat="47.3493" lon="7.91033">
        <ele>400.7</ele>
        <time>2022-10-02T07:51:19Z</time>
      </trkpt>
      <trkpt lat="47.34932" lon="7.91027">
        <ele>400.6</ele>
        <time>2022-10-02T07:51:20Z</time>
      </trkpt>
      <trkpt lat="47.34935" lon="7.91019">
        <ele>400.4</ele>
        <time>2022-10-02T07:51:21Z</time>
      </trkpt>
      <trkpt lat="47.34936" lon="7.91011">
        <ele>400.2</ele>
        <time>2022-10-02T07:51:22Z</time>
      </trkpt>
      <trkpt lat="47.34937" lon="7.91004">
        <ele>400</ele>
        <time>2022-10-02T07:51:23Z</time>
      </trkpt>
      <trkpt lat="47.34937" lon="7.90998">
        <ele>399.8</ele>
        <time>2022-10-02T07:51:24Z</time>
      </trkpt>
      <trkpt lat="47.34939" lon="7.90993">
        <ele>399.5</ele>
        <time>2022-10-02T07:51:25Z</time>
      </trkpt>
      <trkpt lat="47.34941" lon="7.90991">
        <ele>399.5</ele>
        <time>2022-10-02T07:51:26Z</time>
      </trkpt>
      <trkpt lat="47.34941" lon="7.90991">
        <ele>399.6</ele>
        <time>2022-10-02T07:51:27Z</time>
      </trkpt>
      <trkpt lat="47.3494" lon="7.90989">
        <ele>399.6</ele>
        <time>2022-10-02T07:51:28Z</time>
      </trkpt>
      <trkpt lat="47.34942" lon="7.90991">
        <ele>399.6</ele>
        <time>2022-10-02T07:51:29Z</time>
      </trkpt>
      <trkpt lat="47.34943" lon="7.90992">
        <ele>399.7</ele>
        <time>2022-10-02T07:51:30Z</time>
      </trkpt>
      <trkpt lat="47.34948" lon="7.90993">
        <ele>399.8</ele>
        <time>2022-10-02T07:51:31Z</time>
      </trkpt>
      <trkpt lat="47.34951" lon="7.90994">
        <ele>399.9</ele>
        <time>2022-10-02T07:51:32Z</time>
      </trkpt>
      <trkpt lat="47.34955" lon="7.90992">
        <ele>400</ele>
        <time>2022-10-02T07:51:33Z</time>
      </trkpt>
      <trkpt lat="47.34958" lon="7.90992">
        <ele>400.1</ele>
        <time>2022-10-02T07:51:34Z</time>
      </trkpt>
      <trkpt lat="47.34961" lon="7.90993">
        <ele>400.2</ele>
        <time>2022-10-02T07:51:35Z</time>
      </trkpt>
      <trkpt lat="47.34964" lon="7.90994">
        <ele>400.3</ele>
        <time>2022-10-02T07:51:36Z</time>
      </trkpt>
      <trkpt lat="47.34969" lon="7.9099">
        <ele>400.4</ele>
        <time>2022-10-02T07:51:37Z</time>
      </trkpt>
      <trkpt lat="47.34974" lon="7.90989">
        <ele>400.5</ele>
        <time>2022-10-02T07:51:38Z</time>
      </trkpt>
      <trkpt lat="47.34977" lon="7.90988">
        <ele>400.5</ele>
        <time>2022-10-02T07:51:39Z</time>
      </trkpt>
      <trkpt lat="47.34981" lon="7.90988">
        <ele>400.5</ele>
        <time>2022-10-02T07:51:40Z</time>
      </trkpt>
      <trkpt lat="47.34982" lon="7.90988">
        <ele>400.6</ele>
        <time>2022-10-02T07:51:41Z</time>
      </trkpt>
      <trkpt lat="47.34987" lon="7.90988">
        <ele>400.6</ele>
        <time>2022-10-02T07:51:42Z</time>
      </trkpt>
      <trkpt lat="47.3499" lon="7.9099">
        <ele>400.6</ele>
        <time>2022-10-02T07:51:43Z</time>
      </trkpt>
      <trkpt lat="47.34994" lon="7.90991">
        <ele>400.6</ele>
        <time>2022-10-02T07:51:44Z</time>
      </trkpt>
      <trkpt lat="47.34998" lon="7.90989">
        <ele>400.7</ele>
        <time>2022-10-02T07:51:45Z</time>
      </trkpt>
      <trkpt lat="47.35003" lon="7.90989">
        <ele>400.7</ele>
        <time>2022-10-02T07:51:46Z</time>
      </trkpt>
      <trkpt lat="47.35007" lon="7.9099">
        <ele>400.7</ele>
        <time>2022-10-02T07:51:47Z</time>
      </trkpt>
      <trkpt lat="47.3501" lon="7.9099">
        <ele>400.7</ele>
        <time>2022-10-02T07:51:48Z</time>
      </trkpt>
      <trkpt lat="47.35014" lon="7.9099">
        <ele>400.8</ele>
        <time>2022-10-02T07:51:49Z</time>
      </trkpt>
      <trkpt lat="47.35021" lon="7.90992">
        <ele>400.8</ele>
        <time>2022-10-02T07:51:50Z</time>
      </trkpt>
      <trkpt lat="47.35024" lon="7.9099">
        <ele>400.8</ele>
        <time>2022-10-02T07:51:51Z</time>
      </trkpt>
      <trkpt lat="47.35028" lon="7.9099">
        <ele>400.8</ele>
        <time>2022-10-02T07:51:52Z</time>
      </trkpt>
      <trkpt lat="47.35033" lon="7.90989">
        <ele>400.8</ele>
        <time>2022-10-02T07:51:53Z</time>
      </trkpt>
      <trkpt lat="47.35038" lon="7.9099">
        <ele>400.8</ele>
        <time>2022-10-02T07:51:54Z</time>
      </trkpt>
      <trkpt lat="47.35043" lon="7.90992">
        <ele>400.9</ele>
        <time>2022-10-02T07:51:55Z</time>
      </trkpt>
      <trkpt lat="47.35048" lon="7.90992">
        <ele>400.9</ele>
        <time>2022-10-02T07:51:56Z</time>
      </trkpt>
      <trkpt lat="47.35054" lon="7.9099">
        <ele>400.9</ele>
        <time>2022-10-02T07:51:57Z</time>
      </trkpt>
      <trkpt lat="47.35059" lon="7.9099">
        <ele>400.9</ele>
        <time>2022-10-02T07:51:58Z</time>
      </trkpt>
      <trkpt lat="47.35065" lon="7.9099">
        <ele>400.9</ele>
        <time>2022-10-02T07:51:59Z</time>
      </trkpt>
      <trkpt lat="47.35071" lon="7.9099">
        <ele>400.9</ele>
        <time>2022-10-02T07:52:00Z</time>
      </trkpt>
      <trkpt lat="47.35074" lon="7.90991">
        <ele>400.9</ele>
        <time>2022-10-02T07:52:01Z</time>
      </trkpt>
      <trkpt lat="47.35077" lon="7.90992">
        <ele>400.9</ele>
        <time>2022-10-02T07:52:02Z</time>
      </trkpt>
      <trkpt lat="47.35082" lon="7.90989">
        <ele>400.9</ele>
        <time>2022-10-02T07:52:03Z</time>
      </trkpt>
      <trkpt lat="47.35087" lon="7.90988">
        <ele>400.9</ele>
        <time>2022-10-02T07:52:04Z</time>
      </trkpt>
      <trkpt lat="47.35094" lon="7.90988">
        <ele>400.9</ele>
        <time>2022-10-02T07:52:05Z</time>
      </trkpt>
      <trkpt lat="47.35097" lon="7.90989">
        <ele>400.9</ele>
        <time>2022-10-02T07:52:06Z</time>
      </trkpt>
      <trkpt lat="47.35102" lon="7.90992">
        <ele>400.9</ele>
        <time>2022-10-02T07:52:07Z</time>
      </trkpt>
      <trkpt lat="47.35106" lon="7.90992">
        <ele>400.9</ele>
        <time>2022-10-02T07:52:08Z</time>
      </trkpt>
      <trkpt lat="47.35111" lon="7.90992">
        <ele>400.9</ele>
        <time>2022-10-02T07:52:09Z</time>
      </trkpt>
      <trkpt lat="47.35115" lon="7.90991">
        <ele>400.9</ele>
        <time>2022-10-02T07:52:10Z</time>
      </trkpt>
      <trkpt lat="47.35118" lon="7.90989">
        <ele>400.9</ele>
        <time>2022-10-02T07:52:11Z</time>
      </trkpt>
      <trkpt lat="47.35122" lon="7.90986">
        <ele>400.9</ele>
        <time>2022-10-02T07:52:12Z</time>
      </trkpt>
      <trkpt lat="47.35125" lon="7.90985">
        <ele>400.9</ele>
        <time>2022-10-02T07:52:13Z</time>
      </trkpt>
      <trkpt lat="47.35129" lon="7.90979">
        <ele>400.8</ele>
        <time>2022-10-02T07:52:14Z</time>
      </trkpt>
      <trkpt lat="47.35134" lon="7.90976">
        <ele>400.8</ele>
        <time>2022-10-02T07:52:15Z</time>
      </trkpt>
      <trkpt lat="47.35139" lon="7.90972">
        <ele>400.7</ele>
        <time>2022-10-02T07:52:16Z</time>
      </trkpt>
      <trkpt lat="47.35143" lon="7.90967">
        <ele>400.7</ele>
        <time>2022-10-02T07:52:17Z</time>
      </trkpt>
      <trkpt lat="47.35147" lon="7.90962">
        <ele>400.7</ele>
        <time>2022-10-02T07:52:18Z</time>
      </trkpt>
      <trkpt lat="47.35152" lon="7.90957">
        <ele>400.7</ele>
        <time>2022-10-02T07:52:19Z</time>
      </trkpt>
      <trkpt lat="47.35155" lon="7.90955">
        <ele>400.7</ele>
        <time>2022-10-02T07:52:20Z</time>
      </trkpt>
      <trkpt lat="47.3516" lon="7.90951">
        <ele>400.7</ele>
        <time>2022-10-02T07:52:21Z</time>
      </trkpt>
      <trkpt lat="47.35164" lon="7.90948">
        <ele>400.7</ele>
        <time>2022-10-02T07:52:22Z</time>
      </trkpt>
      <trkpt lat="47.35168" lon="7.90942">
        <ele>400.8</ele>
        <time>2022-10-02T07:52:23Z</time>
      </trkpt>
      <trkpt lat="47.35173" lon="7.90937">
        <ele>400.8</ele>
        <time>2022-10-02T07:52:24Z</time>
      </trkpt>
      <trkpt lat="47.35177" lon="7.90933">
        <ele>400.8</ele>
        <time>2022-10-02T07:52:25Z</time>
      </trkpt>
      <trkpt lat="47.35182" lon="7.9093">
        <ele>400.8</ele>
        <time>2022-10-02T07:52:26Z</time>
      </trkpt>
      <trkpt lat="47.35187" lon="7.90926">
        <ele>400.8</ele>
        <time>2022-10-02T07:52:27Z</time>
      </trkpt>
      <trkpt lat="47.35192" lon="7.90923">
        <ele>400.8</ele>
        <time>2022-10-02T07:52:28Z</time>
      </trkpt>
      <trkpt lat="47.35195" lon="7.90921">
        <ele>400.8</ele>
        <time>2022-10-02T07:52:29Z</time>
      </trkpt>
      <trkpt lat="47.35199" lon="7.90916">
        <ele>400.8</ele>
        <time>2022-10-02T07:52:30Z</time>
      </trkpt>
      <trkpt lat="47.35205" lon="7.9091">
        <ele>400.7</ele>
        <time>2022-10-02T07:52:31Z</time>
      </trkpt>
      <trkpt lat="47.35211" lon="7.90905">
        <ele>400.7</ele>
        <time>2022-10-02T07:52:32Z</time>
      </trkpt>
      <trkpt lat="47.35216" lon="7.90901">
        <ele>400.7</ele>
        <time>2022-10-02T07:52:33Z</time>
      </trkpt>
      <trkpt lat="47.35222" lon="7.909">
        <ele>400.6</ele>
        <time>2022-10-02T07:52:34Z</time>
      </trkpt>
      <trkpt lat="47.35228" lon="7.90896">
        <ele>400.6</ele>
        <time>2022-10-02T07:52:35Z</time>
      </trkpt>
      <trkpt lat="47.35232" lon="7.90891">
        <ele>400.6</ele>
        <time>2022-10-02T07:52:36Z</time>
      </trkpt>
      <trkpt lat="47.35237" lon="7.90887">
        <ele>400.5</ele>
        <time>2022-10-02T07:52:37Z</time>
      </trkpt>
      <trkpt lat="47.3524" lon="7.90883">
        <ele>400.5</ele>
        <time>2022-10-02T07:52:38Z</time>
      </trkpt>
      <trkpt lat="47.35244" lon="7.90877">
        <ele>400.4</ele>
        <time>2022-10-02T07:52:39Z</time>
      </trkpt>
      <trkpt lat="47.35248" lon="7.90873">
        <ele>400.2</ele>
        <time>2022-10-02T07:52:40Z</time>
      </trkpt>
      <trkpt lat="47.35253" lon="7.90868">
        <ele>400.2</ele>
        <time>2022-10-02T07:52:41Z</time>
      </trkpt>
      <trkpt lat="47.35257" lon="7.90865">
        <ele>400.2</ele>
        <time>2022-10-02T07:52:42Z</time>
      </trkpt>
      <trkpt lat="47.35262" lon="7.90864">
        <ele>400.3</ele>
        <time>2022-10-02T07:52:43Z</time>
      </trkpt>
      <trkpt lat="47.35266" lon="7.90865">
        <ele>400.3</ele>
        <time>2022-10-02T07:52:44Z</time>
      </trkpt>
      <trkpt lat="47.3527" lon="7.90865">
        <ele>400.3</ele>
        <time>2022-10-02T07:52:45Z</time>
      </trkpt>
      <trkpt lat="47.35274" lon="7.90867">
        <ele>400.4</ele>
        <time>2022-10-02T07:52:46Z</time>
      </trkpt>
      <trkpt lat="47.35278" lon="7.90868">
        <ele>400.4</ele>
        <time>2022-10-02T07:52:47Z</time>
      </trkpt>
      <trkpt lat="47.35283" lon="7.90868">
        <ele>400.5</ele>
        <time>2022-10-02T07:52:48Z</time>
      </trkpt>
      <trkpt lat="47.35288" lon="7.9087">
        <ele>400.5</ele>
        <time>2022-10-02T07:52:49Z</time>
      </trkpt>
      <trkpt lat="47.35293" lon="7.90869">
        <ele>400.6</ele>
        <time>2022-10-02T07:52:50Z</time>
      </trkpt>
      <trkpt lat="47.35299" lon="7.9087">
        <ele>400.6</ele>
        <time>2022-10-02T07:52:51Z</time>
      </trkpt>
      <trkpt lat="47.35304" lon="7.90871">
        <ele>400.7</ele>
        <time>2022-10-02T07:52:52Z</time>
      </trkpt>
      <trkpt lat="47.35309" lon="7.90871">
        <ele>400.7</ele>
        <time>2022-10-02T07:52:53Z</time>
      </trkpt>
      <trkpt lat="47.35313" lon="7.90872">
        <ele>400.8</ele>
        <time>2022-10-02T07:52:54Z</time>
      </trkpt>
      <trkpt lat="47.35318" lon="7.90873">
        <ele>400.8</ele>
        <time>2022-10-02T07:52:55Z</time>
      </trkpt>
      <trkpt lat="47.35323" lon="7.90873">
        <ele>400.8</ele>
        <time>2022-10-02T07:52:56Z</time>
      </trkpt>
      <trkpt lat="47.35329" lon="7.90873">
        <ele>400.8</ele>
        <time>2022-10-02T07:52:57Z</time>
      </trkpt>
      <trkpt lat="47.35334" lon="7.90873">
        <ele>400.8</ele>
        <time>2022-10-02T07:52:58Z</time>
      </trkpt>
      <trkpt lat="47.3534" lon="7.90874">
        <ele>400.8</ele>
        <time>2022-10-02T07:52:59Z</time>
      </trkpt>
      <trkpt lat="47.35344" lon="7.90875">
        <ele>400.8</ele>
        <time>2022-10-02T07:53:01Z</time>
      </trkpt>
      <trkpt lat="47.35351" lon="7.90876">
        <ele>400.8</ele>
        <time>2022-10-02T07:53:02Z</time>
      </trkpt>
      <trkpt lat="47.35354" lon="7.90877">
        <ele>400.8</ele>
        <time>2022-10-02T07:53:03Z</time>
      </trkpt>
      <trkpt lat="47.35357" lon="7.90878">
        <ele>400.7</ele>
        <time>2022-10-02T07:53:05Z</time>
      </trkpt>
      <trkpt lat="47.35363" lon="7.9088">
        <ele>400.7</ele>
        <time>2022-10-02T07:53:06Z</time>
      </trkpt>
      <trkpt lat="47.35368" lon="7.90882">
        <ele>400.7</ele>
        <time>2022-10-02T07:53:07Z</time>
      </trkpt>
      <trkpt lat="47.35371" lon="7.90883">
        <ele>400.7</ele>
        <time>2022-10-02T07:53:08Z</time>
      </trkpt>
      <trkpt lat="47.35375" lon="7.90883">
        <ele>400.7</ele>
        <time>2022-10-02T07:53:09Z</time>
      </trkpt>
      <trkpt lat="47.35381" lon="7.90881">
        <ele>400.7</ele>
        <time>2022-10-02T07:53:10Z</time>
      </trkpt>
      <trkpt lat="47.35382" lon="7.90882">
        <ele>400.7</ele>
        <time>2022-10-02T07:53:11Z</time>
      </trkpt>
      <trkpt lat="47.35382" lon="7.90882">
        <ele>400.7</ele>
        <time>2022-10-02T07:53:12Z</time>
      </trkpt>
      <trkpt lat="47.35382" lon="7.90882">
        <ele>400.7</ele>
        <time>2022-10-02T07:53:13Z</time>
      </trkpt>
      <trkpt lat="47.35382" lon="7.90881">
        <ele>400.7</ele>
        <time>2022-10-02T07:53:15Z</time>
      </trkpt>
      <trkpt lat="47.35383" lon="7.9088">
        <ele>400.7</ele>
        <time>2022-10-02T07:53:16Z</time>
      </trkpt>
      <trkpt lat="47.35383" lon="7.9088">
        <ele>400.7</ele>
        <time>2022-10-02T07:53:17Z</time>
      </trkpt>
      <trkpt lat="47.35382" lon="7.9088">
        <ele>400.7</ele>
        <time>2022-10-02T07:53:18Z</time>
      </trkpt>
      <trkpt lat="47.35381" lon="7.90879">
        <ele>400.7</ele>
        <time>2022-10-02T07:53:19Z</time>
      </trkpt>
      <trkpt lat="47.35381" lon="7.90879">
        <ele>400.7</ele>
        <time>2022-10-02T07:53:20Z</time>
      </trkpt>
      <trkpt lat="47.3538" lon="7.90879">
        <ele>400.7</ele>
        <time>2022-10-02T07:53:21Z</time>
      </trkpt>
      <trkpt lat="47.35379" lon="7.90878">
        <ele>400.7</ele>
        <time>2022-10-02T07:53:22Z</time>
      </trkpt>
      <trkpt lat="47.35378" lon="7.90878">
        <ele>400.7</ele>
        <time>2022-10-02T07:53:23Z</time>
      </trkpt>
      <trkpt lat="47.35377" lon="7.90877">
        <ele>400.7</ele>
        <time>2022-10-02T07:53:24Z</time>
      </trkpt>
      <trkpt lat="47.35376" lon="7.90877">
        <ele>400.7</ele>
        <time>2022-10-02T07:53:25Z</time>
      </trkpt>
      <trkpt lat="47.35376" lon="7.90877">
        <ele>400.7</ele>
        <time>2022-10-02T07:53:26Z</time>
      </trkpt>
      <trkpt lat="47.35375" lon="7.90876">
        <ele>400.7</ele>
        <time>2022-10-02T07:53:27Z</time>
      </trkpt>
      <trkpt lat="47.35374" lon="7.90876">
        <ele>400.7</ele>
        <time>2022-10-02T07:53:58Z</time>
      </trkpt>
      <trkpt lat="47.35373" lon="7.90876">
        <ele>400.7</ele>
        <time>2022-10-02T07:53:59Z</time>
      </trkpt>
      <trkpt lat="47.3537" lon="7.90876">
        <ele>400.7</ele>
        <time>2022-10-02T07:54:00Z</time>
      </trkpt>
      <trkpt lat="47.35367" lon="7.90875">
        <ele>400.7</ele>
        <time>2022-10-02T07:54:01Z</time>
      </trkpt>
      <trkpt lat="47.35363" lon="7.90876">
        <ele>400.7</ele>
        <time>2022-10-02T07:54:02Z</time>
      </trkpt>
      <trkpt lat="47.35361" lon="7.90876">
        <ele>400.7</ele>
        <time>2022-10-02T07:54:03Z</time>
      </trkpt>
      <trkpt lat="47.35359" lon="7.90878">
        <ele>400.7</ele>
        <time>2022-10-02T07:54:04Z</time>
      </trkpt>
      <trkpt lat="47.35355" lon="7.90877">
        <ele>400.8</ele>
        <time>2022-10-02T07:54:05Z</time>
      </trkpt>
      <trkpt lat="47.35351" lon="7.90875">
        <ele>400.8</ele>
        <time>2022-10-02T07:54:06Z</time>
      </trkpt>
      <trkpt lat="47.35348" lon="7.90873">
        <ele>400.8</ele>
        <time>2022-10-02T07:54:07Z</time>
      </trkpt>
      <trkpt lat="47.35344" lon="7.90872">
        <ele>400.8</ele>
        <time>2022-10-02T07:54:08Z</time>
      </trkpt>
      <trkpt lat="47.3534" lon="7.90871">
        <ele>400.8</ele>
        <time>2022-10-02T07:54:09Z</time>
      </trkpt>
      <trkpt lat="47.35337" lon="7.90869">
        <ele>400.8</ele>
        <time>2022-10-02T07:54:10Z</time>
      </trkpt>
      <trkpt lat="47.35333" lon="7.90869">
        <ele>400.8</ele>
        <time>2022-10-02T07:54:11Z</time>
      </trkpt>
      <trkpt lat="47.35328" lon="7.90868">
        <ele>400.8</ele>
        <time>2022-10-02T07:54:12Z</time>
      </trkpt>
      <trkpt lat="47.35324" lon="7.90866">
        <ele>400.8</ele>
        <time>2022-10-02T07:54:13Z</time>
      </trkpt>
      <trkpt lat="47.3532" lon="7.90866">
        <ele>400.8</ele>
        <time>2022-10-02T07:54:14Z</time>
      </trkpt>
      <trkpt lat="47.35316" lon="7.90864">
        <ele>400.8</ele>
        <time>2022-10-02T07:54:15Z</time>
      </trkpt>
      <trkpt lat="47.35312" lon="7.90863">
        <ele>400.8</ele>
        <time>2022-10-02T07:54:16Z</time>
      </trkpt>
      <trkpt lat="47.35308" lon="7.90861">
        <ele>400.7</ele>
        <time>2022-10-02T07:54:17Z</time>
      </trkpt>
      <trkpt lat="47.35303" lon="7.9086">
        <ele>400.7</ele>
        <time>2022-10-02T07:54:18Z</time>
      </trkpt>
      <trkpt lat="47.35299" lon="7.90859">
        <ele>400.6</ele>
        <time>2022-10-02T07:54:19Z</time>
      </trkpt>
      <trkpt lat="47.35294" lon="7.90858">
        <ele>400.6</ele>
        <time>2022-10-02T07:54:20Z</time>
      </trkpt>
      <trkpt lat="47.35289" lon="7.90857">
        <ele>400.5</ele>
        <time>2022-10-02T07:54:21Z</time>
      </trkpt>
      <trkpt lat="47.35284" lon="7.90856">
        <ele>400.5</ele>
        <time>2022-10-02T07:54:22Z</time>
      </trkpt>
      <trkpt lat="47.3528" lon="7.90854">
        <ele>400.4</ele>
        <time>2022-10-02T07:54:23Z</time>
      </trkpt>
      <trkpt lat="47.35275" lon="7.90855">
        <ele>400.4</ele>
        <time>2022-10-02T07:54:24Z</time>
      </trkpt>
      <trkpt lat="47.35269" lon="7.90854">
        <ele>400.3</ele>
        <time>2022-10-02T07:54:25Z</time>
      </trkpt>
      <trkpt lat="47.35264" lon="7.90853">
        <ele>400.3</ele>
        <time>2022-10-02T07:54:26Z</time>
      </trkpt>
      <trkpt lat="47.35259" lon="7.90853">
        <ele>400.2</ele>
        <time>2022-10-02T07:54:27Z</time>
      </trkpt>
      <trkpt lat="47.35253" lon="7.90853">
        <ele>400.2</ele>
        <time>2022-10-02T07:54:28Z</time>
      </trkpt>
      <trkpt lat="47.35247" lon="7.9085">
        <ele>400.1</ele>
        <time>2022-10-02T07:54:29Z</time>
      </trkpt>
      <trkpt lat="47.35243" lon="7.90849">
        <ele>400</ele>
        <time>2022-10-02T07:54:30Z</time>
      </trkpt>
      <trkpt lat="47.35237" lon="7.90848">
        <ele>400</ele>
        <time>2022-10-02T07:54:31Z</time>
      </trkpt>
      <trkpt lat="47.35231" lon="7.90848">
        <ele>399.9</ele>
        <time>2022-10-02T07:54:32Z</time>
      </trkpt>
      <trkpt lat="47.35226" lon="7.90848">
        <ele>399.8</ele>
        <time>2022-10-02T07:54:33Z</time>
      </trkpt>
      <trkpt lat="47.3522" lon="7.90846">
        <ele>399.7</ele>
        <time>2022-10-02T07:54:34Z</time>
      </trkpt>
      <trkpt lat="47.35215" lon="7.90844">
        <ele>399.6</ele>
        <time>2022-10-02T07:54:35Z</time>
      </trkpt>
      <trkpt lat="47.3521" lon="7.90843">
        <ele>399.6</ele>
        <time>2022-10-02T07:54:36Z</time>
      </trkpt>
      <trkpt lat="47.35204" lon="7.90843">
        <ele>399.5</ele>
        <time>2022-10-02T07:54:37Z</time>
      </trkpt>
      <trkpt lat="47.35198" lon="7.90843">
        <ele>399.4</ele>
        <time>2022-10-02T07:54:38Z</time>
      </trkpt>
      <trkpt lat="47.35192" lon="7.90844">
        <ele>399.4</ele>
        <time>2022-10-02T07:54:39Z</time>
      </trkpt>
      <trkpt lat="47.35188" lon="7.90843">
        <ele>399.3</ele>
        <time>2022-10-02T07:54:40Z</time>
      </trkpt>
      <trkpt lat="47.35182" lon="7.90842">
        <ele>399.2</ele>
        <time>2022-10-02T07:54:41Z</time>
      </trkpt>
      <trkpt lat="47.35176" lon="7.90843">
        <ele>399.2</ele>
        <time>2022-10-02T07:54:42Z</time>
      </trkpt>
      <trkpt lat="47.35172" lon="7.90843">
        <ele>399.1</ele>
        <time>2022-10-02T07:54:43Z</time>
      </trkpt>
      <trkpt lat="47.35167" lon="7.90842">
        <ele>399.1</ele>
        <time>2022-10-02T07:54:44Z</time>
      </trkpt>
      <trkpt lat="47.35162" lon="7.90841">
        <ele>399.1</ele>
        <time>2022-10-02T07:54:45Z</time>
      </trkpt>
      <trkpt lat="47.35156" lon="7.9084">
        <ele>399</ele>
        <time>2022-10-02T07:54:46Z</time>
      </trkpt>
      <trkpt lat="47.3515" lon="7.90839">
        <ele>399</ele>
        <time>2022-10-02T07:54:47Z</time>
      </trkpt>
      <trkpt lat="47.35145" lon="7.90837">
        <ele>399</ele>
        <time>2022-10-02T07:54:48Z</time>
      </trkpt>
      <trkpt lat="47.35139" lon="7.90838">
        <ele>399.1</ele>
        <time>2022-10-02T07:54:49Z</time>
      </trkpt>
      <trkpt lat="47.35135" lon="7.90837">
        <ele>399.1</ele>
        <time>2022-10-02T07:54:50Z</time>
      </trkpt>
      <trkpt lat="47.35129" lon="7.90836">
        <ele>399.2</ele>
        <time>2022-10-02T07:54:51Z</time>
      </trkpt>
      <trkpt lat="47.35124" lon="7.90832">
        <ele>399.2</ele>
        <time>2022-10-02T07:54:52Z</time>
      </trkpt>
      <trkpt lat="47.35119" lon="7.90831">
        <ele>399.2</ele>
        <time>2022-10-02T07:54:53Z</time>
      </trkpt>
      <trkpt lat="47.35115" lon="7.90829">
        <ele>399.2</ele>
        <time>2022-10-02T07:54:54Z</time>
      </trkpt>
      <trkpt lat="47.3511" lon="7.90827">
        <ele>399.2</ele>
        <time>2022-10-02T07:54:55Z</time>
      </trkpt>
      <trkpt lat="47.35104" lon="7.90828">
        <ele>399.2</ele>
        <time>2022-10-02T07:54:56Z</time>
      </trkpt>
      <trkpt lat="47.351" lon="7.90828">
        <ele>399.2</ele>
        <time>2022-10-02T07:54:57Z</time>
      </trkpt>
      <trkpt lat="47.35095" lon="7.90827">
        <ele>399.2</ele>
        <time>2022-10-02T07:54:58Z</time>
      </trkpt>
      <trkpt lat="47.35089" lon="7.90824">
        <ele>399.2</ele>
        <time>2022-10-02T07:54:59Z</time>
      </trkpt>
      <trkpt lat="47.35084" lon="7.90823">
        <ele>399.2</ele>
        <time>2022-10-02T07:55:00Z</time>
      </trkpt>
      <trkpt lat="47.35081" lon="7.90824">
        <ele>399.2</ele>
        <time>2022-10-02T07:55:01Z</time>
      </trkpt>
      <trkpt lat="47.35077" lon="7.90822">
        <ele>399.2</ele>
        <time>2022-10-02T07:55:02Z</time>
      </trkpt>
      <trkpt lat="47.35073" lon="7.90823">
        <ele>399.2</ele>
        <time>2022-10-02T07:55:03Z</time>
      </trkpt>
      <trkpt lat="47.35066" lon="7.90821">
        <ele>399.2</ele>
        <time>2022-10-02T07:55:04Z</time>
      </trkpt>
      <trkpt lat="47.35062" lon="7.9082">
        <ele>399.1</ele>
        <time>2022-10-02T07:55:05Z</time>
      </trkpt>
      <trkpt lat="47.35059" lon="7.90821">
        <ele>399.1</ele>
        <time>2022-10-02T07:55:06Z</time>
      </trkpt>
      <trkpt lat="47.35055" lon="7.90822">
        <ele>399.1</ele>
        <time>2022-10-02T07:55:07Z</time>
      </trkpt>
      <trkpt lat="47.3505" lon="7.90821">
        <ele>399.1</ele>
        <time>2022-10-02T07:55:08Z</time>
      </trkpt>
      <trkpt lat="47.35045" lon="7.90819">
        <ele>399.1</ele>
        <time>2022-10-02T07:55:09Z</time>
      </trkpt>
      <trkpt lat="47.35039" lon="7.90817">
        <ele>399.1</ele>
        <time>2022-10-02T07:55:10Z</time>
      </trkpt>
      <trkpt lat="47.3503" lon="7.90815">
        <ele>399</ele>
        <time>2022-10-02T07:55:12Z</time>
      </trkpt>
      <trkpt lat="47.35024" lon="7.90812">
        <ele>399</ele>
        <time>2022-10-02T07:55:13Z</time>
      </trkpt>
      <trkpt lat="47.35018" lon="7.90809">
        <ele>399</ele>
        <time>2022-10-02T07:55:14Z</time>
      </trkpt>
      <trkpt lat="47.35013" lon="7.90806">
        <ele>399</ele>
        <time>2022-10-02T07:55:15Z</time>
      </trkpt>
      <trkpt lat="47.35008" lon="7.90804">
        <ele>398.9</ele>
        <time>2022-10-02T07:55:16Z</time>
      </trkpt>
      <trkpt lat="47.35003" lon="7.90803">
        <ele>398.9</ele>
        <time>2022-10-02T07:55:17Z</time>
      </trkpt>
      <trkpt lat="47.34998" lon="7.90802">
        <ele>398.9</ele>
        <time>2022-10-02T07:55:18Z</time>
      </trkpt>
      <trkpt lat="47.34993" lon="7.90802">
        <ele>398.9</ele>
        <time>2022-10-02T07:55:19Z</time>
      </trkpt>
      <trkpt lat="47.34983" lon="7.90799">
        <ele>398.8</ele>
        <time>2022-10-02T07:55:21Z</time>
      </trkpt>
      <trkpt lat="47.34978" lon="7.90799">
        <ele>398.8</ele>
        <time>2022-10-02T07:55:22Z</time>
      </trkpt>
      <trkpt lat="47.34974" lon="7.90798">
        <ele>398.7</ele>
        <time>2022-10-02T07:55:23Z</time>
      </trkpt>
      <trkpt lat="47.34963" lon="7.90796">
        <ele>398.6</ele>
        <time>2022-10-02T07:55:25Z</time>
      </trkpt>
      <trkpt lat="47.34959" lon="7.90795">
        <ele>398.6</ele>
        <time>2022-10-02T07:55:26Z</time>
      </trkpt>
      <trkpt lat="47.34953" lon="7.90796">
        <ele>398.6</ele>
        <time>2022-10-02T07:55:27Z</time>
      </trkpt>
      <trkpt lat="47.34948" lon="7.90796">
        <ele>398.5</ele>
        <time>2022-10-02T07:55:28Z</time>
      </trkpt>
      <trkpt lat="47.34945" lon="7.90794">
        <ele>398.5</ele>
        <time>2022-10-02T07:55:29Z</time>
      </trkpt>
      <trkpt lat="47.34939" lon="7.90792">
        <ele>398.4</ele>
        <time>2022-10-02T07:55:30Z</time>
      </trkpt>
      <trkpt lat="47.34936" lon="7.90788">
        <ele>398.4</ele>
        <time>2022-10-02T07:55:31Z</time>
      </trkpt>
      <trkpt lat="47.34933" lon="7.90789">
        <ele>398.4</ele>
        <time>2022-10-02T07:55:32Z</time>
      </trkpt>
      <trkpt lat="47.34929" lon="7.90789">
        <ele>398.3</ele>
        <time>2022-10-02T07:55:33Z</time>
      </trkpt>
      <trkpt lat="47.34923" lon="7.90789">
        <ele>398.3</ele>
        <time>2022-10-02T07:55:34Z</time>
      </trkpt>
      <trkpt lat="47.34919" lon="7.90789">
        <ele>398.2</ele>
        <time>2022-10-02T07:55:35Z</time>
      </trkpt>
      <trkpt lat="47.34915" lon="7.90787">
        <ele>398.1</ele>
        <time>2022-10-02T07:55:36Z</time>
      </trkpt>
      <trkpt lat="47.34911" lon="7.90785">
        <ele>398.1</ele>
        <time>2022-10-02T07:55:37Z</time>
      </trkpt>
      <trkpt lat="47.34906" lon="7.90784">
        <ele>398</ele>
        <time>2022-10-02T07:55:38Z</time>
      </trkpt>
      <trkpt lat="47.34902" lon="7.90781">
        <ele>397.9</ele>
        <time>2022-10-02T07:55:39Z</time>
      </trkpt>
      <trkpt lat="47.34899" lon="7.90777">
        <ele>397.9</ele>
        <time>2022-10-02T07:55:40Z</time>
      </trkpt>
      <trkpt lat="47.34894" lon="7.90776">
        <ele>397.8</ele>
        <time>2022-10-02T07:55:41Z</time>
      </trkpt>
      <trkpt lat="47.34889" lon="7.90775">
        <ele>397.8</ele>
        <time>2022-10-02T07:55:42Z</time>
      </trkpt>
      <trkpt lat="47.34885" lon="7.90775">
        <ele>397.8</ele>
        <time>2022-10-02T07:55:43Z</time>
      </trkpt>
      <trkpt lat="47.34882" lon="7.90777">
        <ele>397.8</ele>
        <time>2022-10-02T07:55:44Z</time>
      </trkpt>
      <trkpt lat="47.3488" lon="7.90781">
        <ele>397.8</ele>
        <time>2022-10-02T07:55:45Z</time>
      </trkpt>
      <trkpt lat="47.3488" lon="7.90788">
        <ele>397.8</ele>
        <time>2022-10-02T07:55:46Z</time>
      </trkpt>
      <trkpt lat="47.3488" lon="7.90793">
        <ele>397.9</ele>
        <time>2022-10-02T07:55:47Z</time>
      </trkpt>
      <trkpt lat="47.34879" lon="7.90796">
        <ele>397.9</ele>
        <time>2022-10-02T07:55:48Z</time>
      </trkpt>
      <trkpt lat="47.34879" lon="7.90802">
        <ele>398</ele>
        <time>2022-10-02T07:55:49Z</time>
      </trkpt>
      <trkpt lat="47.34878" lon="7.90808">
        <ele>398</ele>
        <time>2022-10-02T07:55:50Z</time>
      </trkpt>
      <trkpt lat="47.34877" lon="7.90813">
        <ele>398.1</ele>
        <time>2022-10-02T07:55:51Z</time>
      </trkpt>
      <trkpt lat="47.34876" lon="7.90818">
        <ele>398.1</ele>
        <time>2022-10-02T07:55:52Z</time>
      </trkpt>
      <trkpt lat="47.34874" lon="7.90824">
        <ele>398.2</ele>
        <time>2022-10-02T07:55:53Z</time>
      </trkpt>
      <trkpt lat="47.34873" lon="7.90826">
        <ele>398.3</ele>
        <time>2022-10-02T07:55:54Z</time>
      </trkpt>
      <trkpt lat="47.34868" lon="7.90831">
        <ele>398.4</ele>
        <time>2022-10-02T07:55:55Z</time>
      </trkpt>
      <trkpt lat="47.34864" lon="7.90828">
        <ele>398.5</ele>
        <time>2022-10-02T07:55:56Z</time>
      </trkpt>
      <trkpt lat="47.34862" lon="7.90827">
        <ele>398.5</ele>
        <time>2022-10-02T07:55:57Z</time>
      </trkpt>
      <trkpt lat="47.34858" lon="7.90826">
        <ele>398.6</ele>
        <time>2022-10-02T07:55:58Z</time>
      </trkpt>
      <trkpt lat="47.34854" lon="7.90828">
        <ele>398.6</ele>
        <time>2022-10-02T07:55:59Z</time>
      </trkpt>
      <trkpt lat="47.3485" lon="7.90828">
        <ele>398.7</ele>
        <time>2022-10-02T07:56:00Z</time>
      </trkpt>
      <trkpt lat="47.34846" lon="7.90827">
        <ele>398.8</ele>
        <time>2022-10-02T07:56:01Z</time>
      </trkpt>
      <trkpt lat="47.34842" lon="7.90827">
        <ele>398.8</ele>
        <time>2022-10-02T07:56:02Z</time>
      </trkpt>
      <trkpt lat="47.34838" lon="7.90827">
        <ele>398.9</ele>
        <time>2022-10-02T07:56:03Z</time>
      </trkpt>
      <trkpt lat="47.34834" lon="7.90828">
        <ele>398.9</ele>
        <time>2022-10-02T07:56:04Z</time>
      </trkpt>
      <trkpt lat="47.3483" lon="7.90827">
        <ele>399</ele>
        <time>2022-10-02T07:56:05Z</time>
      </trkpt>
      <trkpt lat="47.34826" lon="7.90827">
        <ele>399</ele>
        <time>2022-10-02T07:56:06Z</time>
      </trkpt>
      <trkpt lat="47.34821" lon="7.90826">
        <ele>399.1</ele>
        <time>2022-10-02T07:56:07Z</time>
      </trkpt>
      <trkpt lat="47.34819" lon="7.90825">
        <ele>399.1</ele>
        <time>2022-10-02T07:56:08Z</time>
      </trkpt>
      <trkpt lat="47.34814" lon="7.90821">
        <ele>399.2</ele>
        <time>2022-10-02T07:56:09Z</time>
      </trkpt>
      <trkpt lat="47.34812" lon="7.90819">
        <ele>399.2</ele>
        <time>2022-10-02T07:56:10Z</time>
      </trkpt>
      <trkpt lat="47.34808" lon="7.90818">
        <ele>399.3</ele>
        <time>2022-10-02T07:56:11Z</time>
      </trkpt>
      <trkpt lat="47.34804" lon="7.90816">
        <ele>399.3</ele>
        <time>2022-10-02T07:56:12Z</time>
      </trkpt>
      <trkpt lat="47.34799" lon="7.90816">
        <ele>399.4</ele>
        <time>2022-10-02T07:56:13Z</time>
      </trkpt>
      <trkpt lat="47.34796" lon="7.90816">
        <ele>399.4</ele>
        <time>2022-10-02T07:56:14Z</time>
      </trkpt>
      <trkpt lat="47.34792" lon="7.90817">
        <ele>399.4</ele>
        <time>2022-10-02T07:56:15Z</time>
      </trkpt>
      <trkpt lat="47.34788" lon="7.90817">
        <ele>399.5</ele>
        <time>2022-10-02T07:56:16Z</time>
      </trkpt>
      <trkpt lat="47.34785" lon="7.90817">
        <ele>399.5</ele>
        <time>2022-10-02T07:56:17Z</time>
      </trkpt>
      <trkpt lat="47.34781" lon="7.90818">
        <ele>399.5</ele>
        <time>2022-10-02T07:56:18Z</time>
      </trkpt>
      <trkpt lat="47.34778" lon="7.9082">
        <ele>399.5</ele>
        <time>2022-10-02T07:56:19Z</time>
      </trkpt>
      <trkpt lat="47.34774" lon="7.90819">
        <ele>399.6</ele>
        <time>2022-10-02T07:56:20Z</time>
      </trkpt>
      <trkpt lat="47.34772" lon="7.9082">
        <ele>399.6</ele>
        <time>2022-10-02T07:56:21Z</time>
      </trkpt>
      <trkpt lat="47.34769" lon="7.9082">
        <ele>399.6</ele>
        <time>2022-10-02T07:56:22Z</time>
      </trkpt>
      <trkpt lat="47.34766" lon="7.90819">
        <ele>399.6</ele>
        <time>2022-10-02T07:56:23Z</time>
      </trkpt>
      <trkpt lat="47.34762" lon="7.9082">
        <ele>399.6</ele>
        <time>2022-10-02T07:56:24Z</time>
      </trkpt>
      <trkpt lat="47.34758" lon="7.9082">
        <ele>399.6</ele>
        <time>2022-10-02T07:56:25Z</time>
      </trkpt>
      <trkpt lat="47.34754" lon="7.9082">
        <ele>399.6</ele>
        <time>2022-10-02T07:56:26Z</time>
      </trkpt>
      <trkpt lat="47.3475" lon="7.90819">
        <ele>399.5</ele>
        <time>2022-10-02T07:56:27Z</time>
      </trkpt>
      <trkpt lat="47.34747" lon="7.90818">
        <ele>399.5</ele>
        <time>2022-10-02T07:56:28Z</time>
      </trkpt>
      <trkpt lat="47.34742" lon="7.90817">
        <ele>399.4</ele>
        <time>2022-10-02T07:56:29Z</time>
      </trkpt>
      <trkpt lat="47.34737" lon="7.90819">
        <ele>399.4</ele>
        <time>2022-10-02T07:56:30Z</time>
      </trkpt>
      <trkpt lat="47.34732" lon="7.90819">
        <ele>399.3</ele>
        <time>2022-10-02T07:56:31Z</time>
      </trkpt>
      <trkpt lat="47.34727" lon="7.9082">
        <ele>399.3</ele>
        <time>2022-10-02T07:56:32Z</time>
      </trkpt>
      <trkpt lat="47.34724" lon="7.90821">
        <ele>399.2</ele>
        <time>2022-10-02T07:56:33Z</time>
      </trkpt>
      <trkpt lat="47.3472" lon="7.90821">
        <ele>399.2</ele>
        <time>2022-10-02T07:56:34Z</time>
      </trkpt>
      <trkpt lat="47.34716" lon="7.90819">
        <ele>399.1</ele>
        <time>2022-10-02T07:56:35Z</time>
      </trkpt>
      <trkpt lat="47.34712" lon="7.90819">
        <ele>398.9</ele>
        <time>2022-10-02T07:56:36Z</time>
      </trkpt>
      <trkpt lat="47.34708" lon="7.9082">
        <ele>398.8</ele>
        <time>2022-10-02T07:56:37Z</time>
      </trkpt>
      <trkpt lat="47.34703" lon="7.90821">
        <ele>398.6</ele>
        <time>2022-10-02T07:56:38Z</time>
      </trkpt>
      <trkpt lat="47.34697" lon="7.90822">
        <ele>398.3</ele>
        <time>2022-10-02T07:56:39Z</time>
      </trkpt>
      <trkpt lat="47.34691" lon="7.90824">
        <ele>398.1</ele>
        <time>2022-10-02T07:56:40Z</time>
      </trkpt>
      <trkpt lat="47.34686" lon="7.90827">
        <ele>397.9</ele>
        <time>2022-10-02T07:56:41Z</time>
      </trkpt>
      <trkpt lat="47.34679" lon="7.90828">
        <ele>397.7</ele>
        <time>2022-10-02T07:56:42Z</time>
      </trkpt>
      <trkpt lat="47.34673" lon="7.90828">
        <ele>397.5</ele>
        <time>2022-10-02T07:56:43Z</time>
      </trkpt>
      <trkpt lat="47.34668" lon="7.90828">
        <ele>397.4</ele>
        <time>2022-10-02T07:56:44Z</time>
      </trkpt>
      <trkpt lat="47.34662" lon="7.90829">
        <ele>397.4</ele>
        <time>2022-10-02T07:56:45Z</time>
      </trkpt>
      <trkpt lat="47.34657" lon="7.9083">
        <ele>397.4</ele>
        <time>2022-10-02T07:56:46Z</time>
      </trkpt>
      <trkpt lat="47.34652" lon="7.90828">
        <ele>397.4</ele>
        <time>2022-10-02T07:56:47Z</time>
      </trkpt>
      <trkpt lat="47.34647" lon="7.90827">
        <ele>397.4</ele>
        <time>2022-10-02T07:56:48Z</time>
      </trkpt>
      <trkpt lat="47.34642" lon="7.90826">
        <ele>397.4</ele>
        <time>2022-10-02T07:56:49Z</time>
      </trkpt>
      <trkpt lat="47.34638" lon="7.90824">
        <ele>397.4</ele>
        <time>2022-10-02T07:56:50Z</time>
      </trkpt>
      <trkpt lat="47.34635" lon="7.90826">
        <ele>397.4</ele>
        <time>2022-10-02T07:56:51Z</time>
      </trkpt>
      <trkpt lat="47.34634" lon="7.90826">
        <ele>397.4</ele>
        <time>2022-10-02T07:56:52Z</time>
      </trkpt>
      <trkpt lat="47.34631" lon="7.90823">
        <ele>397.4</ele>
        <time>2022-10-02T07:56:53Z</time>
      </trkpt>
      <trkpt lat="47.34629" lon="7.90822">
        <ele>397.4</ele>
        <time>2022-10-02T07:56:54Z</time>
      </trkpt>
      <trkpt lat="47.34629" lon="7.90818">
        <ele>397.4</ele>
        <time>2022-10-02T07:56:55Z</time>
      </trkpt>
      <trkpt lat="47.34628" lon="7.90814">
        <ele>397.3</ele>
        <time>2022-10-02T07:56:56Z</time>
      </trkpt>
      <trkpt lat="47.34627" lon="7.90811">
        <ele>397.3</ele>
        <time>2022-10-02T07:56:57Z</time>
      </trkpt>
      <trkpt lat="47.34625" lon="7.90806">
        <ele>397.2</ele>
        <time>2022-10-02T07:56:58Z</time>
      </trkpt>
      <trkpt lat="47.34624" lon="7.90805">
        <ele>397.2</ele>
        <time>2022-10-02T07:56:59Z</time>
      </trkpt>
      <trkpt lat="47.34621" lon="7.90803">
        <ele>397.1</ele>
        <time>2022-10-02T07:57:00Z</time>
      </trkpt>
      <trkpt lat="47.34618" lon="7.90803">
        <ele>397</ele>
        <time>2022-10-02T07:57:01Z</time>
      </trkpt>
      <trkpt lat="47.34614" lon="7.90804">
        <ele>396.9</ele>
        <time>2022-10-02T07:57:02Z</time>
      </trkpt>
      <trkpt lat="47.34612" lon="7.90805">
        <ele>396.7</ele>
        <time>2022-10-02T07:57:03Z</time>
      </trkpt>
      <trkpt lat="47.34609" lon="7.90806">
        <ele>396.6</ele>
        <time>2022-10-02T07:57:04Z</time>
      </trkpt>
      <trkpt lat="47.34607" lon="7.90806">
        <ele>396.6</ele>
        <time>2022-10-02T07:57:05Z</time>
      </trkpt>
      <trkpt lat="47.34605" lon="7.90808">
        <ele>396.5</ele>
        <time>2022-10-02T07:57:06Z</time>
      </trkpt>
      <trkpt lat="47.34602" lon="7.90811">
        <ele>396.4</ele>
        <time>2022-10-02T07:57:07Z</time>
      </trkpt>
      <trkpt lat="47.346" lon="7.90812">
        <ele>396.3</ele>
        <time>2022-10-02T07:57:08Z</time>
      </trkpt>
      <trkpt lat="47.34598" lon="7.90814">
        <ele>396.2</ele>
        <time>2022-10-02T07:57:09Z</time>
      </trkpt>
      <trkpt lat="47.34595" lon="7.90817">
        <ele>396</ele>
        <time>2022-10-02T07:57:10Z</time>
      </trkpt>
      <trkpt lat="47.34592" lon="7.9082">
        <ele>395.8</ele>
        <time>2022-10-02T07:57:11Z</time>
      </trkpt>
      <trkpt lat="47.34589" lon="7.90824">
        <ele>395.6</ele>
        <time>2022-10-02T07:57:13Z</time>
      </trkpt>
      <trkpt lat="47.34585" lon="7.90828">
        <ele>395.3</ele>
        <time>2022-10-02T07:57:14Z</time>
      </trkpt>
      <trkpt lat="47.34583" lon="7.90832">
        <ele>395.1</ele>
        <time>2022-10-02T07:57:15Z</time>
      </trkpt>
      <trkpt lat="47.3458" lon="7.90836">
        <ele>394.9</ele>
        <time>2022-10-02T07:57:16Z</time>
      </trkpt>
      <trkpt lat="47.34577" lon="7.9084">
        <ele>394.7</ele>
        <time>2022-10-02T07:57:17Z</time>
      </trkpt>
      <trkpt lat="47.34573" lon="7.90843">
        <ele>394.6</ele>
        <time>2022-10-02T07:57:18Z</time>
      </trkpt>
      <trkpt lat="47.34567" lon="7.90843">
        <ele>394.4</ele>
        <time>2022-10-02T07:57:19Z</time>
      </trkpt>
      <trkpt lat="47.34563" lon="7.90841">
        <ele>394.3</ele>
        <time>2022-10-02T07:57:20Z</time>
      </trkpt>
      <trkpt lat="47.34559" lon="7.9084">
        <ele>394.2</ele>
        <time>2022-10-02T07:57:21Z</time>
      </trkpt>
      <trkpt lat="47.34556" lon="7.90839">
        <ele>394.2</ele>
        <time>2022-10-02T07:57:22Z</time>
      </trkpt>
      <trkpt lat="47.34554" lon="7.90834">
        <ele>394.1</ele>
        <time>2022-10-02T07:57:23Z</time>
      </trkpt>
      <trkpt lat="47.34554" lon="7.90832">
        <ele>394.1</ele>
        <time>2022-10-02T07:57:24Z</time>
      </trkpt>
      <trkpt lat="47.34554" lon="7.90828">
        <ele>394</ele>
        <time>2022-10-02T07:57:25Z</time>
      </trkpt>
      <trkpt lat="47.34554" lon="7.90826">
        <ele>394</ele>
        <time>2022-10-02T07:57:27Z</time>
      </trkpt>
      <trkpt lat="47.34554" lon="7.90823">
        <ele>394</ele>
        <time>2022-10-02T07:57:28Z</time>
      </trkpt>
      <trkpt lat="47.34555" lon="7.90821">
        <ele>393.2</ele>
        <time>2022-10-02T07:57:29Z</time>
      </trkpt>
      <trkpt lat="47.34555" lon="7.90817">
        <ele>393.1</ele>
        <time>2022-10-02T07:57:30Z</time>
      </trkpt>
      <trkpt lat="47.34558" lon="7.90811">
        <ele>392.9</ele>
        <time>2022-10-02T07:57:31Z</time>
      </trkpt>
      <trkpt lat="47.34561" lon="7.90804">
        <ele>392.7</ele>
        <time>2022-10-02T07:57:32Z</time>
      </trkpt>
      <trkpt lat="47.34564" lon="7.90798">
        <ele>392.6</ele>
        <time>2022-10-02T07:57:33Z</time>
      </trkpt>
      <trkpt lat="47.34567" lon="7.90791">
        <ele>392.4</ele>
        <time>2022-10-02T07:57:34Z</time>
      </trkpt>
      <trkpt lat="47.3457" lon="7.90783">
        <ele>392.3</ele>
        <time>2022-10-02T07:57:35Z</time>
      </trkpt>
      <trkpt lat="47.34572" lon="7.90774">
        <ele>392.2</ele>
        <time>2022-10-02T07:57:36Z</time>
      </trkpt>
      <trkpt lat="47.34576" lon="7.90756">
        <ele>392.2</ele>
        <time>2022-10-02T07:57:37Z</time>
      </trkpt>
      <trkpt lat="47.34577" lon="7.90748">
        <ele>392.3</ele>
        <time>2022-10-02T07:57:38Z</time>
      </trkpt>
      <trkpt lat="47.34576" lon="7.90738">
        <ele>392.5</ele>
        <time>2022-10-02T07:57:39Z</time>
      </trkpt>
      <trkpt lat="47.34577" lon="7.90726">
        <ele>392.7</ele>
        <time>2022-10-02T07:57:40Z</time>
      </trkpt>
      <trkpt lat="47.34579" lon="7.90731">
        <ele>392.8</ele>
        <time>2022-10-02T07:57:41Z</time>
      </trkpt>
      <trkpt lat="47.3458" lon="7.90724">
        <ele>393</ele>
        <time>2022-10-02T07:57:42Z</time>
      </trkpt>
      <trkpt lat="47.34581" lon="7.90721">
        <ele>393.1</ele>
        <time>2022-10-02T07:57:43Z</time>
      </trkpt>
      <trkpt lat="47.34581" lon="7.90716">
        <ele>393.2</ele>
        <time>2022-10-02T07:57:44Z</time>
      </trkpt>
      <trkpt lat="47.34583" lon="7.90713">
        <ele>393.3</ele>
        <time>2022-10-02T07:57:45Z</time>
      </trkpt>
      <trkpt lat="47.34584" lon="7.90712">
        <ele>393.3</ele>
        <time>2022-10-02T07:57:46Z</time>
      </trkpt>
      <trkpt lat="47.34585" lon="7.90709">
        <ele>393.3</ele>
        <time>2022-10-02T07:57:47Z</time>
      </trkpt>
      <trkpt lat="47.34586" lon="7.90708">
        <ele>393.4</ele>
        <time>2022-10-02T07:57:48Z</time>
      </trkpt>
      <trkpt lat="47.34586" lon="7.90705">
        <ele>393.4</ele>
        <time>2022-10-02T07:57:49Z</time>
      </trkpt>
      <trkpt lat="47.34587" lon="7.90704">
        <ele>393.5</ele>
        <time>2022-10-02T07:57:50Z</time>
      </trkpt>
      <trkpt lat="47.34588" lon="7.907">
        <ele>393.5</ele>
        <time>2022-10-02T07:57:51Z</time>
      </trkpt>
      <trkpt lat="47.34589" lon="7.90699">
        <ele>393.5</ele>
        <time>2022-10-02T07:57:52Z</time>
      </trkpt>
      <trkpt lat="47.34591" lon="7.90696">
        <ele>393.5</ele>
        <time>2022-10-02T07:57:53Z</time>
      </trkpt>
      <trkpt lat="47.34592" lon="7.90696">
        <ele>393.5</ele>
        <time>2022-10-02T07:57:54Z</time>
      </trkpt>
      <trkpt lat="47.34593" lon="7.90695">
        <ele>393.5</ele>
        <time>2022-10-02T07:57:55Z</time>
      </trkpt>
      <trkpt lat="47.34595" lon="7.90695">
        <ele>393.5</ele>
        <time>2022-10-02T07:57:56Z</time>
      </trkpt>
      <trkpt lat="47.34596" lon="7.90694">
        <ele>393.5</ele>
        <time>2022-10-02T07:57:57Z</time>
      </trkpt>
      <trkpt lat="47.34597" lon="7.90694">
        <ele>393.5</ele>
        <time>2022-10-02T07:57:58Z</time>
      </trkpt>
      <trkpt lat="47.34597" lon="7.90692">
        <ele>393.5</ele>
        <time>2022-10-02T07:57:59Z</time>
      </trkpt>
      <trkpt lat="47.34597" lon="7.90691">
        <ele>393.5</ele>
        <time>2022-10-02T07:58:00Z</time>
      </trkpt>
      <trkpt lat="47.34597" lon="7.9069">
        <ele>393.5</ele>
        <time>2022-10-02T07:58:01Z</time>
      </trkpt>
      <trkpt lat="47.34597" lon="7.90688">
        <ele>393.5</ele>
        <time>2022-10-02T07:58:02Z</time>
      </trkpt>
      <trkpt lat="47.34596" lon="7.90687">
        <ele>393.5</ele>
        <time>2022-10-02T07:58:03Z</time>
      </trkpt>
      <trkpt lat="47.34596" lon="7.90686">
        <ele>393.5</ele>
        <time>2022-10-02T07:58:04Z</time>
      </trkpt>
      <trkpt lat="47.34596" lon="7.90685">
        <ele>393.4</ele>
        <time>2022-10-02T07:58:05Z</time>
      </trkpt>
      <trkpt lat="47.34596" lon="7.90683">
        <ele>393.4</ele>
        <time>2022-10-02T07:58:06Z</time>
      </trkpt>
      <trkpt lat="47.34596" lon="7.90682">
        <ele>393.4</ele>
        <time>2022-10-02T07:58:07Z</time>
      </trkpt>
      <trkpt lat="47.34595" lon="7.90681">
        <ele>393.4</ele>
        <time>2022-10-02T07:58:08Z</time>
      </trkpt>
      <trkpt lat="47.34595" lon="7.90679">
        <ele>393.4</ele>
        <time>2022-10-02T07:59:05Z</time>
      </trkpt>
      <trkpt lat="47.34595" lon="7.90678">
        <ele>393.4</ele>
        <time>2022-10-02T07:59:06Z</time>
      </trkpt>
      <trkpt lat="47.34594" lon="7.90675">
        <ele>393.4</ele>
        <time>2022-10-02T07:59:07Z</time>
      </trkpt>
      <trkpt lat="47.34594" lon="7.90673">
        <ele>393.4</ele>
        <time>2022-10-02T07:59:08Z</time>
      </trkpt>
      <trkpt lat="47.34595" lon="7.90669">
        <ele>393.4</ele>
        <time>2022-10-02T07:59:09Z</time>
      </trkpt>
      <trkpt lat="47.34595" lon="7.90668">
        <ele>393.4</ele>
        <time>2022-10-02T07:59:10Z</time>
      </trkpt>
      <trkpt lat="47.34597" lon="7.90664">
        <ele>393.4</ele>
        <time>2022-10-02T07:59:11Z</time>
      </trkpt>
      <trkpt lat="47.34598" lon="7.90664">
        <ele>393.5</ele>
        <time>2022-10-02T07:59:12Z</time>
      </trkpt>
      <trkpt lat="47.34599" lon="7.9066">
        <ele>393.5</ele>
        <time>2022-10-02T07:59:13Z</time>
      </trkpt>
      <trkpt lat="47.34599" lon="7.90658">
        <ele>393.5</ele>
        <time>2022-10-02T07:59:14Z</time>
      </trkpt>
      <trkpt lat="47.34596" lon="7.90655">
        <ele>393.5</ele>
        <time>2022-10-02T07:59:15Z</time>
      </trkpt>
      <trkpt lat="47.34595" lon="7.90653">
        <ele>393.5</ele>
        <time>2022-10-02T07:59:16Z</time>
      </trkpt>
      <trkpt lat="47.34591" lon="7.9065">
        <ele>393.5</ele>
        <time>2022-10-02T07:59:17Z</time>
      </trkpt>
      <trkpt lat="47.34588" lon="7.90647">
        <ele>393.5</ele>
        <time>2022-10-02T07:59:19Z</time>
      </trkpt>
      <trkpt lat="47.34585" lon="7.90645">
        <ele>393.5</ele>
        <time>2022-10-02T07:59:20Z</time>
      </trkpt>
      <trkpt lat="47.34582" lon="7.90643">
        <ele>393.5</ele>
        <time>2022-10-02T07:59:21Z</time>
      </trkpt>
      <trkpt lat="47.34577" lon="7.90642">
        <ele>393.6</ele>
        <time>2022-10-02T07:59:22Z</time>
      </trkpt>
      <trkpt lat="47.34574" lon="7.90642">
        <ele>393.6</ele>
        <time>2022-10-02T07:59:23Z</time>
      </trkpt>
      <trkpt lat="47.3457" lon="7.90642">
        <ele>393.6</ele>
        <time>2022-10-02T07:59:24Z</time>
      </trkpt>
      <trkpt lat="47.34567" lon="7.90643">
        <ele>393.6</ele>
        <time>2022-10-02T07:59:25Z</time>
      </trkpt>
      <trkpt lat="47.34563" lon="7.90644">
        <ele>393.6</ele>
        <time>2022-10-02T07:59:26Z</time>
      </trkpt>
      <trkpt lat="47.34562" lon="7.90645">
        <ele>393.6</ele>
        <time>2022-10-02T07:59:27Z</time>
      </trkpt>
      <trkpt lat="47.34558" lon="7.90647">
        <ele>393.6</ele>
        <time>2022-10-02T07:59:28Z</time>
      </trkpt>
      <trkpt lat="47.34556" lon="7.90647">
        <ele>393.6</ele>
        <time>2022-10-02T07:59:29Z</time>
      </trkpt>
      <trkpt lat="47.34553" lon="7.9065">
        <ele>393.7</ele>
        <time>2022-10-02T07:59:30Z</time>
      </trkpt>
      <trkpt lat="47.34552" lon="7.90654">
        <ele>393.7</ele>
        <time>2022-10-02T07:59:31Z</time>
      </trkpt>
      <trkpt lat="47.34553" lon="7.90658">
        <ele>393.7</ele>
        <time>2022-10-02T07:59:32Z</time>
      </trkpt>
      <trkpt lat="47.34553" lon="7.90659">
        <ele>393.7</ele>
        <time>2022-10-02T07:59:33Z</time>
      </trkpt>
      <trkpt lat="47.34554" lon="7.9066">
        <ele>393.7</ele>
        <time>2022-10-02T07:59:34Z</time>
      </trkpt>
      <trkpt lat="47.34555" lon="7.90662">
        <ele>393.7</ele>
        <time>2022-10-02T07:59:35Z</time>
      </trkpt>
      <trkpt lat="47.34557" lon="7.90664">
        <ele>393.7</ele>
        <time>2022-10-02T07:59:36Z</time>
      </trkpt>
      <trkpt lat="47.34557" lon="7.90665">
        <ele>393.7</ele>
        <time>2022-10-02T07:59:37Z</time>
      </trkpt>
      <trkpt lat="47.34558" lon="7.90667">
        <ele>393.7</ele>
        <time>2022-10-02T07:59:38Z</time>
      </trkpt>
      <trkpt lat="47.34558" lon="7.90668">
        <ele>393.7</ele>
        <time>2022-10-02T07:59:39Z</time>
      </trkpt>
      <trkpt lat="47.34558" lon="7.9067">
        <ele>393.7</ele>
        <time>2022-10-02T07:59:40Z</time>
      </trkpt>
      <trkpt lat="47.34557" lon="7.90672">
        <ele>393.7</ele>
        <time>2022-10-02T07:59:41Z</time>
      </trkpt>
      <trkpt lat="47.34557" lon="7.90674">
        <ele>393.7</ele>
        <time>2022-10-02T07:59:42Z</time>
      </trkpt>
      <trkpt lat="47.34557" lon="7.90675">
        <ele>393.7</ele>
        <time>2022-10-02T07:59:43Z</time>
      </trkpt>
      <trkpt lat="47.34556" lon="7.90676">
        <ele>393.7</ele>
        <time>2022-10-02T07:59:44Z</time>
      </trkpt>
      <trkpt lat="47.34555" lon="7.90677">
        <ele>393.7</ele>
        <time>2022-10-02T07:59:45Z</time>
      </trkpt>
      <trkpt lat="47.34555" lon="7.90677">
        <ele>393.7</ele>
        <time>2022-10-02T07:59:46Z</time>
      </trkpt>
      <trkpt lat="47.34554" lon="7.90678">
        <ele>393.7</ele>
        <time>2022-10-02T07:59:47Z</time>
      </trkpt>
      <trkpt lat="47.34554" lon="7.90678">
        <ele>393.7</ele>
        <time>2022-10-02T07:59:48Z</time>
      </trkpt>
      <trkpt lat="47.34553" lon="7.90679">
        <ele>393.7</ele>
        <time>2022-10-02T07:59:49Z</time>
      </trkpt>
      <trkpt lat="47.34553" lon="7.9068">
        <ele>393.7</ele>
        <time>2022-10-02T07:59:50Z</time>
      </trkpt>
      <trkpt lat="47.34554" lon="7.90681">
        <ele>393.7</ele>
        <time>2022-10-02T07:59:51Z</time>
      </trkpt>
      <trkpt lat="47.34554" lon="7.90681">
        <ele>393.7</ele>
        <time>2022-10-02T07:59:52Z</time>
      </trkpt>
      <trkpt lat="47.34554" lon="7.90681">
        <ele>393.7</ele>
        <time>2022-10-02T07:59:53Z</time>
      </trkpt>
      <trkpt lat="47.34555" lon="7.90682">
        <ele>393.7</ele>
        <time>2022-10-02T07:59:54Z</time>
      </trkpt>
      <trkpt lat="47.34557" lon="7.90685">
        <ele>393.7</ele>
        <time>2022-10-02T07:59:55Z</time>
      </trkpt>
      <trkpt lat="47.34558" lon="7.90689">
        <ele>393.7</ele>
        <time>2022-10-02T08:00:27Z</time>
      </trkpt>
      <trkpt lat="47.3456" lon="7.90693">
        <ele>393.7</ele>
        <time>2022-10-02T08:00:28Z</time>
      </trkpt>
      <trkpt lat="47.34561" lon="7.90697">
        <ele>393.7</ele>
        <time>2022-10-02T08:00:29Z</time>
      </trkpt>
      <trkpt lat="47.34561" lon="7.90699">
        <ele>393.7</ele>
        <time>2022-10-02T08:00:30Z</time>
      </trkpt>
      <trkpt lat="47.34564" lon="7.90701">
        <ele>393.6</ele>
        <time>2022-10-02T08:00:31Z</time>
      </trkpt>
      <trkpt lat="47.34567" lon="7.90702">
        <ele>393.6</ele>
        <time>2022-10-02T08:00:32Z</time>
      </trkpt>
      <trkpt lat="47.3457" lon="7.90704">
        <ele>393.6</ele>
        <time>2022-10-02T08:00:33Z</time>
      </trkpt>
      <trkpt lat="47.34573" lon="7.90704">
        <ele>393.6</ele>
        <time>2022-10-02T08:00:34Z</time>
      </trkpt>
      <trkpt lat="47.34577" lon="7.90703">
        <ele>393.5</ele>
        <time>2022-10-02T08:00:35Z</time>
      </trkpt>
      <trkpt lat="47.34581" lon="7.90702">
        <ele>393.5</ele>
        <time>2022-10-02T08:00:36Z</time>
      </trkpt>
      <trkpt lat="47.34585" lon="7.90699">
        <ele>393.5</ele>
        <time>2022-10-02T08:00:37Z</time>
      </trkpt>
      <trkpt lat="47.34587" lon="7.90696">
        <ele>393.5</ele>
        <time>2022-10-02T08:00:38Z</time>
      </trkpt>
      <trkpt lat="47.34591" lon="7.90692">
        <ele>393.5</ele>
        <time>2022-10-02T08:00:39Z</time>
      </trkpt>
      <trkpt lat="47.34594" lon="7.9069">
        <ele>393.4</ele>
        <time>2022-10-02T08:00:40Z</time>
      </trkpt>
      <trkpt lat="47.34598" lon="7.90687">
        <ele>393.3</ele>
        <time>2022-10-02T08:00:41Z</time>
      </trkpt>
      <trkpt lat="47.34601" lon="7.90684">
        <ele>393.3</ele>
        <time>2022-10-02T08:00:42Z</time>
      </trkpt>
      <trkpt lat="47.34605" lon="7.90681">
        <ele>393.3</ele>
        <time>2022-10-02T08:00:43Z</time>
      </trkpt>
      <trkpt lat="47.34609" lon="7.90679">
        <ele>393.3</ele>
        <time>2022-10-02T08:00:44Z</time>
      </trkpt>
      <trkpt lat="47.34613" lon="7.90676">
        <ele>393.2</ele>
        <time>2022-10-02T08:00:45Z</time>
      </trkpt>
      <trkpt lat="47.34617" lon="7.90674">
        <ele>393.2</ele>
        <time>2022-10-02T08:00:46Z</time>
      </trkpt>
      <trkpt lat="47.34621" lon="7.90673">
        <ele>393.2</ele>
        <time>2022-10-02T08:00:47Z</time>
      </trkpt>
      <trkpt lat="47.34625" lon="7.90673">
        <ele>393.2</ele>
        <time>2022-10-02T08:00:48Z</time>
      </trkpt>
      <trkpt lat="47.34629" lon="7.9067">
        <ele>393.2</ele>
        <time>2022-10-02T08:00:49Z</time>
      </trkpt>
      <trkpt lat="47.34633" lon="7.90667">
        <ele>393.2</ele>
        <time>2022-10-02T08:00:50Z</time>
      </trkpt>
      <trkpt lat="47.34637" lon="7.90663">
        <ele>393.2</ele>
        <time>2022-10-02T08:00:51Z</time>
      </trkpt>
      <trkpt lat="47.34641" lon="7.90661">
        <ele>393.2</ele>
        <time>2022-10-02T08:00:52Z</time>
      </trkpt>
      <trkpt lat="47.34645" lon="7.90659">
        <ele>393.2</ele>
        <time>2022-10-02T08:00:53Z</time>
      </trkpt>
      <trkpt lat="47.34649" lon="7.90656">
        <ele>393.2</ele>
        <time>2022-10-02T08:00:54Z</time>
      </trkpt>
      <trkpt lat="47.34654" lon="7.90653">
        <ele>393.2</ele>
        <time>2022-10-02T08:00:55Z</time>
      </trkpt>
      <trkpt lat="47.34658" lon="7.90652">
        <ele>393.2</ele>
        <time>2022-10-02T08:00:56Z</time>
      </trkpt>
      <trkpt lat="47.34662" lon="7.90649">
        <ele>393.2</ele>
        <time>2022-10-02T08:00:57Z</time>
      </trkpt>
      <trkpt lat="47.34666" lon="7.90647">
        <ele>393.2</ele>
        <time>2022-10-02T08:00:58Z</time>
      </trkpt>
      <trkpt lat="47.34669" lon="7.90646">
        <ele>393.3</ele>
        <time>2022-10-02T08:00:59Z</time>
      </trkpt>
      <trkpt lat="47.34673" lon="7.90644">
        <ele>393.3</ele>
        <time>2022-10-02T08:01:00Z</time>
      </trkpt>
      <trkpt lat="47.34675" lon="7.90642">
        <ele>393.3</ele>
        <time>2022-10-02T08:01:01Z</time>
      </trkpt>
      <trkpt lat="47.34679" lon="7.9064">
        <ele>393.4</ele>
        <time>2022-10-02T08:01:02Z</time>
      </trkpt>
      <trkpt lat="47.3468" lon="7.90639">
        <ele>393.4</ele>
        <time>2022-10-02T08:01:03Z</time>
      </trkpt>
      <trkpt lat="47.34683" lon="7.90638">
        <ele>393.4</ele>
        <time>2022-10-02T08:01:04Z</time>
      </trkpt>
      <trkpt lat="47.34684" lon="7.90638">
        <ele>393.4</ele>
        <time>2022-10-02T08:01:05Z</time>
      </trkpt>
      <trkpt lat="47.34685" lon="7.90635">
        <ele>393.4</ele>
        <time>2022-10-02T08:01:06Z</time>
      </trkpt>
      <trkpt lat="47.34683" lon="7.9063">
        <ele>393.5</ele>
        <time>2022-10-02T08:01:07Z</time>
      </trkpt>
      <trkpt lat="47.34682" lon="7.90628">
        <ele>393.5</ele>
        <time>2022-10-02T08:01:08Z</time>
      </trkpt>
      <trkpt lat="47.3468" lon="7.90625">
        <ele>393.5</ele>
        <time>2022-10-02T08:01:09Z</time>
      </trkpt>
      <trkpt lat="47.34677" lon="7.90622">
        <ele>393.5</ele>
        <time>2022-10-02T08:01:10Z</time>
      </trkpt>
      <trkpt lat="47.34676" lon="7.90621">
        <ele>393.5</ele>
        <time>2022-10-02T08:01:11Z</time>
      </trkpt>
      <trkpt lat="47.34675" lon="7.90623">
        <ele>393.6</ele>
        <time>2022-10-02T08:01:12Z</time>
      </trkpt>
      <trkpt lat="47.34673" lon="7.90622">
        <ele>393.6</ele>
        <time>2022-10-02T08:01:13Z</time>
      </trkpt>
      <trkpt lat="47.3467" lon="7.90623">
        <ele>393.6</ele>
        <time>2022-10-02T08:01:14Z</time>
      </trkpt>
      <trkpt lat="47.3467" lon="7.90622">
        <ele>393.6</ele>
        <time>2022-10-02T08:01:15Z</time>
      </trkpt>
      <trkpt lat="47.34669" lon="7.90621">
        <ele>393.6</ele>
        <time>2022-10-02T08:01:16Z</time>
      </trkpt>
      <trkpt lat="47.34668" lon="7.90617">
        <ele>393.7</ele>
        <time>2022-10-02T08:01:17Z</time>
      </trkpt>
      <trkpt lat="47.34668" lon="7.90614">
        <ele>393.7</ele>
        <time>2022-10-02T08:01:18Z</time>
      </trkpt>
      <trkpt lat="47.34666" lon="7.9061">
        <ele>393.8</ele>
        <time>2022-10-02T08:01:19Z</time>
      </trkpt>
      <trkpt lat="47.34666" lon="7.90605">
        <ele>394</ele>
        <time>2022-10-02T08:01:20Z</time>
      </trkpt>
      <trkpt lat="47.34665" lon="7.90603">
        <ele>394</ele>
        <time>2022-10-02T08:01:21Z</time>
      </trkpt>
      <trkpt lat="47.34664" lon="7.90599">
        <ele>394.2</ele>
        <time>2022-10-02T08:01:22Z</time>
      </trkpt>
      <trkpt lat="47.34664" lon="7.90597">
        <ele>394.2</ele>
        <time>2022-10-02T08:01:23Z</time>
      </trkpt>
      <trkpt lat="47.34662" lon="7.90593">
        <ele>394.4</ele>
        <time>2022-10-02T08:01:25Z</time>
      </trkpt>
      <trkpt lat="47.34661" lon="7.90591">
        <ele>394.5</ele>
        <time>2022-10-02T08:01:26Z</time>
      </trkpt>
      <trkpt lat="47.3466" lon="7.90587">
        <ele>394.6</ele>
        <time>2022-10-02T08:01:27Z</time>
      </trkpt>
      <trkpt lat="47.34659" lon="7.90585">
        <ele>394.7</ele>
        <time>2022-10-02T08:01:28Z</time>
      </trkpt>
      <trkpt lat="47.34659" lon="7.90583">
        <ele>394.7</ele>
        <time>2022-10-02T08:01:29Z</time>
      </trkpt>
      <trkpt lat="47.34656" lon="7.90577">
        <ele>394.9</ele>
        <time>2022-10-02T08:01:30Z</time>
      </trkpt>
      <trkpt lat="47.34655" lon="7.90575">
        <ele>394.9</ele>
        <time>2022-10-02T08:01:31Z</time>
      </trkpt>
      <trkpt lat="47.34653" lon="7.90569">
        <ele>395</ele>
        <time>2022-10-02T08:01:33Z</time>
      </trkpt>
      <trkpt lat="47.34652" lon="7.90566">
        <ele>395</ele>
        <time>2022-10-02T08:01:34Z</time>
      </trkpt>
      <trkpt lat="47.34651" lon="7.90563">
        <ele>395</ele>
        <time>2022-10-02T08:01:35Z</time>
      </trkpt>
      <trkpt lat="47.34649" lon="7.90558">
        <ele>395</ele>
        <time>2022-10-02T08:01:36Z</time>
      </trkpt>
      <trkpt lat="47.34649" lon="7.90557">
        <ele>395</ele>
        <time>2022-10-02T08:01:37Z</time>
      </trkpt>
      <trkpt lat="47.34647" lon="7.90553">
        <ele>395</ele>
        <time>2022-10-02T08:01:38Z</time>
      </trkpt>
      <trkpt lat="47.34645" lon="7.90549">
        <ele>395</ele>
        <time>2022-10-02T08:01:39Z</time>
      </trkpt>
      <trkpt lat="47.34643" lon="7.90543">
        <ele>394.9</ele>
        <time>2022-10-02T08:01:40Z</time>
      </trkpt>
      <trkpt lat="47.34642" lon="7.90541">
        <ele>394.9</ele>
        <time>2022-10-02T08:01:41Z</time>
      </trkpt>
      <trkpt lat="47.3464" lon="7.90536">
        <ele>394.9</ele>
        <time>2022-10-02T08:01:42Z</time>
      </trkpt>
      <trkpt lat="47.34638" lon="7.90531">
        <ele>394.8</ele>
        <time>2022-10-02T08:01:43Z</time>
      </trkpt>
      <trkpt lat="47.34636" lon="7.90525">
        <ele>394.8</ele>
        <time>2022-10-02T08:01:44Z</time>
      </trkpt>
      <trkpt lat="47.34635" lon="7.90521">
        <ele>394.7</ele>
        <time>2022-10-02T08:01:45Z</time>
      </trkpt>
      <trkpt lat="47.34634" lon="7.90518">
        <ele>394.7</ele>
        <time>2022-10-02T08:01:46Z</time>
      </trkpt>
      <trkpt lat="47.34631" lon="7.90514">
        <ele>394.7</ele>
        <time>2022-10-02T08:01:47Z</time>
      </trkpt>
      <trkpt lat="47.34629" lon="7.90512">
        <ele>394.7</ele>
        <time>2022-10-02T08:01:48Z</time>
      </trkpt>
      <trkpt lat="47.34625" lon="7.90511">
        <ele>394.7</ele>
        <time>2022-10-02T08:01:49Z</time>
      </trkpt>
      <trkpt lat="47.34621" lon="7.90511">
        <ele>394.7</ele>
        <time>2022-10-02T08:01:50Z</time>
      </trkpt>
      <trkpt lat="47.34618" lon="7.90511">
        <ele>394.7</ele>
        <time>2022-10-02T08:01:51Z</time>
      </trkpt>
      <trkpt lat="47.34614" lon="7.9051">
        <ele>395.1</ele>
        <time>2022-10-02T08:01:52Z</time>
      </trkpt>
      <trkpt lat="47.34611" lon="7.9051">
        <ele>395.3</ele>
        <time>2022-10-02T08:01:53Z</time>
      </trkpt>
      <trkpt lat="47.34609" lon="7.9051">
        <ele>395.5</ele>
        <time>2022-10-02T08:01:54Z</time>
      </trkpt>
      <trkpt lat="47.34605" lon="7.90511">
        <ele>395.8</ele>
        <time>2022-10-02T08:01:55Z</time>
      </trkpt>
      <trkpt lat="47.34603" lon="7.90511">
        <ele>396.1</ele>
        <time>2022-10-02T08:01:56Z</time>
      </trkpt>
      <trkpt lat="47.34601" lon="7.90511">
        <ele>396.2</ele>
        <time>2022-10-02T08:01:57Z</time>
      </trkpt>
      <trkpt lat="47.34598" lon="7.90513">
        <ele>396.6</ele>
        <time>2022-10-02T08:01:58Z</time>
      </trkpt>
      <trkpt lat="47.34597" lon="7.90513">
        <ele>396.8</ele>
        <time>2022-10-02T08:01:59Z</time>
      </trkpt>
      <trkpt lat="47.34594" lon="7.90515">
        <ele>397.1</ele>
        <time>2022-10-02T08:02:00Z</time>
      </trkpt>
      <trkpt lat="47.34593" lon="7.90515">
        <ele>397.3</ele>
        <time>2022-10-02T08:02:01Z</time>
      </trkpt>
      <trkpt lat="47.34592" lon="7.90515">
        <ele>397.4</ele>
        <time>2022-10-02T08:02:02Z</time>
      </trkpt>
      <trkpt lat="47.3459" lon="7.90515">
        <ele>397.7</ele>
        <time>2022-10-02T08:02:03Z</time>
      </trkpt>
      <trkpt lat="47.34588" lon="7.90515">
        <ele>397.9</ele>
        <time>2022-10-02T08:02:04Z</time>
      </trkpt>
      <trkpt lat="47.34586" lon="7.90516">
        <ele>398.1</ele>
        <time>2022-10-02T08:02:05Z</time>
      </trkpt>
      <trkpt lat="47.34584" lon="7.90515">
        <ele>398.5</ele>
        <time>2022-10-02T08:02:06Z</time>
      </trkpt>
      <trkpt lat="47.34583" lon="7.90515">
        <ele>398.7</ele>
        <time>2022-10-02T08:02:07Z</time>
      </trkpt>
      <trkpt lat="47.3458" lon="7.90515">
        <ele>399</ele>
        <time>2022-10-02T08:02:08Z</time>
      </trkpt>
      <trkpt lat="47.34579" lon="7.90514">
        <ele>399.1</ele>
        <time>2022-10-02T08:02:09Z</time>
      </trkpt>
      <trkpt lat="47.34578" lon="7.90514">
        <ele>399.4</ele>
        <time>2022-10-02T08:02:10Z</time>
      </trkpt>
      <trkpt lat="47.34576" lon="7.90512">
        <ele>399.6</ele>
        <time>2022-10-02T08:02:11Z</time>
      </trkpt>
      <trkpt lat="47.34574" lon="7.9051">
        <ele>400</ele>
        <time>2022-10-02T08:02:12Z</time>
      </trkpt>
      <trkpt lat="47.34573" lon="7.90509">
        <ele>400.1</ele>
        <time>2022-10-02T08:02:13Z</time>
      </trkpt>
      <trkpt lat="47.34572" lon="7.90507">
        <ele>400.4</ele>
        <time>2022-10-02T08:02:14Z</time>
      </trkpt>
      <trkpt lat="47.34572" lon="7.90504">
        <ele>400.4</ele>
        <time>2022-10-02T08:02:15Z</time>
      </trkpt>
      <trkpt lat="47.34572" lon="7.905">
        <ele>400.6</ele>
        <time>2022-10-02T08:02:16Z</time>
      </trkpt>
      <trkpt lat="47.34572" lon="7.90498">
        <ele>400.6</ele>
        <time>2022-10-02T08:02:17Z</time>
      </trkpt>
      <trkpt lat="47.34572" lon="7.90497">
        <ele>400.7</ele>
        <time>2022-10-02T08:02:18Z</time>
      </trkpt>
      <trkpt lat="47.34571" lon="7.90494">
        <ele>400.8</ele>
        <time>2022-10-02T08:02:19Z</time>
      </trkpt>
      <trkpt lat="47.34572" lon="7.90492">
        <ele>400.8</ele>
        <time>2022-10-02T08:02:20Z</time>
      </trkpt>
      <trkpt lat="47.34572" lon="7.9049">
        <ele>400.9</ele>
        <time>2022-10-02T08:02:21Z</time>
      </trkpt>
      <trkpt lat="47.34572" lon="7.90489">
        <ele>400.9</ele>
        <time>2022-10-02T08:02:22Z</time>
      </trkpt>
      <trkpt lat="47.34571" lon="7.90486">
        <ele>401</ele>
        <time>2022-10-02T08:02:23Z</time>
      </trkpt>
      <trkpt lat="47.34571" lon="7.90485">
        <ele>401</ele>
        <time>2022-10-02T08:02:24Z</time>
      </trkpt>
      <trkpt lat="47.34571" lon="7.90483">
        <ele>401</ele>
        <time>2022-10-02T08:02:25Z</time>
      </trkpt>
      <trkpt lat="47.34571" lon="7.90481">
        <ele>401.1</ele>
        <time>2022-10-02T08:02:26Z</time>
      </trkpt>
      <trkpt lat="47.34573" lon="7.90481">
        <ele>401.1</ele>
        <time>2022-10-02T08:02:27Z</time>
      </trkpt>
      <trkpt lat="47.34574" lon="7.90481">
        <ele>401.1</ele>
        <time>2022-10-02T08:02:28Z</time>
      </trkpt>
      <trkpt lat="47.34574" lon="7.9048">
        <ele>401.1</ele>
        <time>2022-10-02T08:02:29Z</time>
      </trkpt>
      <trkpt lat="47.34574" lon="7.9048">
        <ele>401.1</ele>
        <time>2022-10-02T08:02:30Z</time>
      </trkpt>
      <trkpt lat="47.34574" lon="7.90479">
        <ele>401.1</ele>
        <time>2022-10-02T08:02:31Z</time>
      </trkpt>
      <trkpt lat="47.34574" lon="7.90479">
        <ele>401.1</ele>
        <time>2022-10-02T08:02:32Z</time>
      </trkpt>
      <trkpt lat="47.34573" lon="7.90479">
        <ele>401.1</ele>
        <time>2022-10-02T08:02:33Z</time>
      </trkpt>
      <trkpt lat="47.34573" lon="7.90478">
        <ele>401.2</ele>
        <time>2022-10-02T08:02:34Z</time>
      </trkpt>
      <trkpt lat="47.34573" lon="7.90478">
        <ele>401.2</ele>
        <time>2022-10-02T08:02:35Z</time>
      </trkpt>
      <trkpt lat="47.34573" lon="7.90477">
        <ele>401.2</ele>
        <time>2022-10-02T08:02:36Z</time>
      </trkpt>
      <trkpt lat="47.34573" lon="7.90477">
        <ele>401.2</ele>
        <time>2022-10-02T08:02:37Z</time>
      </trkpt>
      <trkpt lat="47.34573" lon="7.90477">
        <ele>401.2</ele>
        <time>2022-10-02T08:02:55Z</time>
      </trkpt>
      <trkpt lat="47.34573" lon="7.90476">
        <ele>401.2</ele>
        <time>2022-10-02T08:02:56Z</time>
      </trkpt>
      <trkpt lat="47.34573" lon="7.90476">
        <ele>401.2</ele>
        <time>2022-10-02T08:02:57Z</time>
      </trkpt>
      <trkpt lat="47.34573" lon="7.90475">
        <ele>401.2</ele>
        <time>2022-10-02T08:02:58Z</time>
      </trkpt>
      <trkpt lat="47.34572" lon="7.90475">
        <ele>401.2</ele>
        <time>2022-10-02T08:02:59Z</time>
      </trkpt>
      <trkpt lat="47.34572" lon="7.90474">
        <ele>401.2</ele>
        <time>2022-10-02T08:03:00Z</time>
      </trkpt>
      <trkpt lat="47.34572" lon="7.90474">
        <ele>401.2</ele>
        <time>2022-10-02T08:03:01Z</time>
      </trkpt>
      <trkpt lat="47.34572" lon="7.90474">
        <ele>401.2</ele>
        <time>2022-10-02T08:03:02Z</time>
      </trkpt>
      <trkpt lat="47.34571" lon="7.90469">
        <ele>401.3</ele>
        <time>2022-10-02T08:03:03Z</time>
      </trkpt>
      <trkpt lat="47.34571" lon="7.90468">
        <ele>401.3</ele>
        <time>2022-10-02T08:03:04Z</time>
      </trkpt>
      <trkpt lat="47.3457" lon="7.90464">
        <ele>401.3</ele>
        <time>2022-10-02T08:03:05Z</time>
      </trkpt>
      <trkpt lat="47.3457" lon="7.90462">
        <ele>401.4</ele>
        <time>2022-10-02T08:03:06Z</time>
      </trkpt>
      <trkpt lat="47.34568" lon="7.90459">
        <ele>401.4</ele>
        <time>2022-10-02T08:03:07Z</time>
      </trkpt>
      <trkpt lat="47.34568" lon="7.90458">
        <ele>401.4</ele>
        <time>2022-10-02T08:03:08Z</time>
      </trkpt>
      <trkpt lat="47.34567" lon="7.90454">
        <ele>401.5</ele>
        <time>2022-10-02T08:03:09Z</time>
      </trkpt>
      <trkpt lat="47.34567" lon="7.90452">
        <ele>401.5</ele>
        <time>2022-10-02T08:03:10Z</time>
      </trkpt>
      <trkpt lat="47.34566" lon="7.90448">
        <ele>401.6</ele>
        <time>2022-10-02T08:03:11Z</time>
      </trkpt>
      <trkpt lat="47.34565" lon="7.90443">
        <ele>401.6</ele>
        <time>2022-10-02T08:03:12Z</time>
      </trkpt>
      <trkpt lat="47.34565" lon="7.90441">
        <ele>401.7</ele>
        <time>2022-10-02T08:03:13Z</time>
      </trkpt>
      <trkpt lat="47.34563" lon="7.90436">
        <ele>401.8</ele>
        <time>2022-10-02T08:03:14Z</time>
      </trkpt>
      <trkpt lat="47.34563" lon="7.90435">
        <ele>401.8</ele>
        <time>2022-10-02T08:03:15Z</time>
      </trkpt>
      <trkpt lat="47.3456" lon="7.90431">
        <ele>401.9</ele>
        <time>2022-10-02T08:03:16Z</time>
      </trkpt>
      <trkpt lat="47.34558" lon="7.90428">
        <ele>401.9</ele>
        <time>2022-10-02T08:03:17Z</time>
      </trkpt>
      <trkpt lat="47.34557" lon="7.90427">
        <ele>402</ele>
        <time>2022-10-02T08:03:18Z</time>
      </trkpt>
      <trkpt lat="47.34553" lon="7.90428">
        <ele>402</ele>
        <time>2022-10-02T08:03:19Z</time>
      </trkpt>
      <trkpt lat="47.34552" lon="7.90428">
        <ele>402</ele>
        <time>2022-10-02T08:03:20Z</time>
      </trkpt>
      <trkpt lat="47.34548" lon="7.90429">
        <ele>402.1</ele>
        <time>2022-10-02T08:03:21Z</time>
      </trkpt>
      <trkpt lat="47.34547" lon="7.9043">
        <ele>402.1</ele>
        <time>2022-10-02T08:03:22Z</time>
      </trkpt>
      <trkpt lat="47.34544" lon="7.90431">
        <ele>402.1</ele>
        <time>2022-10-02T08:03:23Z</time>
      </trkpt>
      <trkpt lat="47.34541" lon="7.90432">
        <ele>402.1</ele>
        <time>2022-10-02T08:03:24Z</time>
      </trkpt>
      <trkpt lat="47.34537" lon="7.90433">
        <ele>402.1</ele>
        <time>2022-10-02T08:03:25Z</time>
      </trkpt>
      <trkpt lat="47.34534" lon="7.90435">
        <ele>402.1</ele>
        <time>2022-10-02T08:03:26Z</time>
      </trkpt>
      <trkpt lat="47.34531" lon="7.90436">
        <ele>402.1</ele>
        <time>2022-10-02T08:03:27Z</time>
      </trkpt>
      <trkpt lat="47.34528" lon="7.90438">
        <ele>402.2</ele>
        <time>2022-10-02T08:03:28Z</time>
      </trkpt>
      <trkpt lat="47.34525" lon="7.9044">
        <ele>402.2</ele>
        <time>2022-10-02T08:03:29Z</time>
      </trkpt>
      <trkpt lat="47.34518" lon="7.90443">
        <ele>402.3</ele>
        <time>2022-10-02T08:03:31Z</time>
      </trkpt>
      <trkpt lat="47.34515" lon="7.90445">
        <ele>402.3</ele>
        <time>2022-10-02T08:03:32Z</time>
      </trkpt>
      <trkpt lat="47.34512" lon="7.90446">
        <ele>402.4</ele>
        <time>2022-10-02T08:03:33Z</time>
      </trkpt>
      <trkpt lat="47.34509" lon="7.90447">
        <ele>402.7</ele>
        <time>2022-10-02T08:03:35Z</time>
      </trkpt>
      <trkpt lat="47.34507" lon="7.90445">
        <ele>402.8</ele>
        <time>2022-10-02T08:03:36Z</time>
      </trkpt>
      <trkpt lat="47.34505" lon="7.90441">
        <ele>402.8</ele>
        <time>2022-10-02T08:03:37Z</time>
      </trkpt>
      <trkpt lat="47.34504" lon="7.90433">
        <ele>403</ele>
        <time>2022-10-02T08:03:38Z</time>
      </trkpt>
      <trkpt lat="47.34505" lon="7.90428">
        <ele>403.1</ele>
        <time>2022-10-02T08:03:39Z</time>
      </trkpt>
      <trkpt lat="47.34506" lon="7.90424">
        <ele>403.1</ele>
        <time>2022-10-02T08:03:41Z</time>
      </trkpt>
      <trkpt lat="47.34508" lon="7.90419">
        <ele>403.3</ele>
        <time>2022-10-02T08:03:42Z</time>
      </trkpt>
      <trkpt lat="47.3451" lon="7.90417">
        <ele>403.4</ele>
        <time>2022-10-02T08:03:43Z</time>
      </trkpt>
      <trkpt lat="47.34513" lon="7.90415">
        <ele>403.6</ele>
        <time>2022-10-02T08:03:45Z</time>
      </trkpt>
      <trkpt lat="47.34516" lon="7.90411">
        <ele>403.8</ele>
        <time>2022-10-02T08:03:46Z</time>
      </trkpt>
      <trkpt lat="47.34519" lon="7.90408">
        <ele>404</ele>
        <time>2022-10-02T08:03:47Z</time>
      </trkpt>
      <trkpt lat="47.3452" lon="7.90407">
        <ele>404.1</ele>
        <time>2022-10-02T08:03:48Z</time>
      </trkpt>
      <trkpt lat="47.34523" lon="7.90405">
        <ele>404.3</ele>
        <time>2022-10-02T08:03:49Z</time>
      </trkpt>
      <trkpt lat="47.34524" lon="7.90404">
        <ele>404.3</ele>
        <time>2022-10-02T08:03:50Z</time>
      </trkpt>
      <trkpt lat="47.34526" lon="7.90402">
        <ele>404.5</ele>
        <time>2022-10-02T08:03:51Z</time>
      </trkpt>
      <trkpt lat="47.34527" lon="7.90401">
        <ele>404.6</ele>
        <time>2022-10-02T08:03:52Z</time>
      </trkpt>
      <trkpt lat="47.34529" lon="7.90399">
        <ele>404.8</ele>
        <time>2022-10-02T08:03:53Z</time>
      </trkpt>
      <trkpt lat="47.3453" lon="7.90398">
        <ele>404.8</ele>
        <time>2022-10-02T08:03:54Z</time>
      </trkpt>
      <trkpt lat="47.34533" lon="7.90396">
        <ele>405</ele>
        <time>2022-10-02T08:03:55Z</time>
      </trkpt>
      <trkpt lat="47.34534" lon="7.90396">
        <ele>405.1</ele>
        <time>2022-10-02T08:03:56Z</time>
      </trkpt>
      <trkpt lat="47.34537" lon="7.90394">
        <ele>405.3</ele>
        <time>2022-10-02T08:03:57Z</time>
      </trkpt>
      <trkpt lat="47.34538" lon="7.90394">
        <ele>405.4</ele>
        <time>2022-10-02T08:03:58Z</time>
      </trkpt>
      <trkpt lat="47.3454" lon="7.90392">
        <ele>405.5</ele>
        <time>2022-10-02T08:03:59Z</time>
      </trkpt>
      <trkpt lat="47.34541" lon="7.90391">
        <ele>405.6</ele>
        <time>2022-10-02T08:04:00Z</time>
      </trkpt>
      <trkpt lat="47.34544" lon="7.90389">
        <ele>405.8</ele>
        <time>2022-10-02T08:04:01Z</time>
      </trkpt>
      <trkpt lat="47.34545" lon="7.90388">
        <ele>405.9</ele>
        <time>2022-10-02T08:04:02Z</time>
      </trkpt>
      <trkpt lat="47.34546" lon="7.90386">
        <ele>406</ele>
        <time>2022-10-02T08:04:03Z</time>
      </trkpt>
      <trkpt lat="47.34548" lon="7.90385">
        <ele>406.1</ele>
        <time>2022-10-02T08:04:04Z</time>
      </trkpt>
      <trkpt lat="47.3455" lon="7.90383">
        <ele>406.3</ele>
        <time>2022-10-02T08:04:05Z</time>
      </trkpt>
      <trkpt lat="47.34551" lon="7.90383">
        <ele>406.3</ele>
        <time>2022-10-02T08:04:06Z</time>
      </trkpt>
      <trkpt lat="47.34554" lon="7.9038">
        <ele>406.5</ele>
        <time>2022-10-02T08:04:07Z</time>
      </trkpt>
      <trkpt lat="47.34555" lon="7.9038">
        <ele>406.6</ele>
        <time>2022-10-02T08:04:08Z</time>
      </trkpt>
      <trkpt lat="47.34558" lon="7.90377">
        <ele>406.7</ele>
        <time>2022-10-02T08:04:09Z</time>
      </trkpt>
      <trkpt lat="47.34559" lon="7.90377">
        <ele>406.8</ele>
        <time>2022-10-02T08:04:10Z</time>
      </trkpt>
      <trkpt lat="47.34561" lon="7.90374">
        <ele>407</ele>
        <time>2022-10-02T08:04:11Z</time>
      </trkpt>
      <trkpt lat="47.34562" lon="7.90373">
        <ele>407</ele>
        <time>2022-10-02T08:04:12Z</time>
      </trkpt>
      <trkpt lat="47.34563" lon="7.90371">
        <ele>407.1</ele>
        <time>2022-10-02T08:04:13Z</time>
      </trkpt>
      <trkpt lat="47.34564" lon="7.9037">
        <ele>407.2</ele>
        <time>2022-10-02T08:04:14Z</time>
      </trkpt>
      <trkpt lat="47.34567" lon="7.90367">
        <ele>407.4</ele>
        <time>2022-10-02T08:04:15Z</time>
      </trkpt>
      <trkpt lat="47.34568" lon="7.90367">
        <ele>407.4</ele>
        <time>2022-10-02T08:04:16Z</time>
      </trkpt>
      <trkpt lat="47.3457" lon="7.90365">
        <ele>407.6</ele>
        <time>2022-10-02T08:04:17Z</time>
      </trkpt>
      <trkpt lat="47.34571" lon="7.90364">
        <ele>407.7</ele>
        <time>2022-10-02T08:04:18Z</time>
      </trkpt>
      <trkpt lat="47.34574" lon="7.90362">
        <ele>407.9</ele>
        <time>2022-10-02T08:04:19Z</time>
      </trkpt>
      <trkpt lat="47.34575" lon="7.90361">
        <ele>407.9</ele>
        <time>2022-10-02T08:04:20Z</time>
      </trkpt>
      <trkpt lat="47.34576" lon="7.90359">
        <ele>408</ele>
        <time>2022-10-02T08:04:21Z</time>
      </trkpt>
      <trkpt lat="47.34577" lon="7.90357">
        <ele>408.1</ele>
        <time>2022-10-02T08:04:22Z</time>
      </trkpt>
      <trkpt lat="47.3458" lon="7.90355">
        <ele>408.4</ele>
        <time>2022-10-02T08:04:23Z</time>
      </trkpt>
      <trkpt lat="47.34581" lon="7.90354">
        <ele>408.4</ele>
        <time>2022-10-02T08:04:24Z</time>
      </trkpt>
      <trkpt lat="47.34582" lon="7.90353">
        <ele>408.5</ele>
        <time>2022-10-02T08:04:25Z</time>
      </trkpt>
      <trkpt lat="47.34583" lon="7.90352">
        <ele>408.6</ele>
        <time>2022-10-02T08:04:26Z</time>
      </trkpt>
      <trkpt lat="47.34585" lon="7.9035">
        <ele>408.8</ele>
        <time>2022-10-02T08:04:27Z</time>
      </trkpt>
      <trkpt lat="47.34586" lon="7.90349">
        <ele>408.9</ele>
        <time>2022-10-02T08:04:28Z</time>
      </trkpt>
      <trkpt lat="47.34588" lon="7.90348">
        <ele>409</ele>
        <time>2022-10-02T08:04:29Z</time>
      </trkpt>
      <trkpt lat="47.34589" lon="7.90346">
        <ele>409.1</ele>
        <time>2022-10-02T08:04:30Z</time>
      </trkpt>
      <trkpt lat="47.3459" lon="7.90345">
        <ele>409.2</ele>
        <time>2022-10-02T08:04:31Z</time>
      </trkpt>
      <trkpt lat="47.34591" lon="7.90344">
        <ele>409.3</ele>
        <time>2022-10-02T08:04:32Z</time>
      </trkpt>
      <trkpt lat="47.34593" lon="7.90343">
        <ele>409.4</ele>
        <time>2022-10-02T08:04:33Z</time>
      </trkpt>
      <trkpt lat="47.34594" lon="7.90341">
        <ele>409.6</ele>
        <time>2022-10-02T08:04:34Z</time>
      </trkpt>
      <trkpt lat="47.34597" lon="7.90337">
        <ele>409.8</ele>
        <time>2022-10-02T08:04:35Z</time>
      </trkpt>
      <trkpt lat="47.34598" lon="7.90336">
        <ele>409.9</ele>
        <time>2022-10-02T08:04:36Z</time>
      </trkpt>
      <trkpt lat="47.346" lon="7.90332">
        <ele>410.1</ele>
        <time>2022-10-02T08:04:37Z</time>
      </trkpt>
      <trkpt lat="47.34603" lon="7.90329">
        <ele>410</ele>
        <time>2022-10-02T08:04:38Z</time>
      </trkpt>
      <trkpt lat="47.34606" lon="7.90326">
        <ele>409.8</ele>
        <time>2022-10-02T08:04:39Z</time>
      </trkpt>
      <trkpt lat="47.34609" lon="7.90323">
        <ele>409.5</ele>
        <time>2022-10-02T08:04:40Z</time>
      </trkpt>
      <trkpt lat="47.34614" lon="7.90322">
        <ele>409.2</ele>
        <time>2022-10-02T08:04:41Z</time>
      </trkpt>
      <trkpt lat="47.34618" lon="7.90319">
        <ele>408.8</ele>
        <time>2022-10-02T08:04:42Z</time>
      </trkpt>
      <trkpt lat="47.34622" lon="7.90317">
        <ele>408.5</ele>
        <time>2022-10-02T08:04:43Z</time>
      </trkpt>
      <trkpt lat="47.34627" lon="7.90313">
        <ele>408</ele>
        <time>2022-10-02T08:04:44Z</time>
      </trkpt>
      <trkpt lat="47.34632" lon="7.90311">
        <ele>407.5</ele>
        <time>2022-10-02T08:04:45Z</time>
      </trkpt>
      <trkpt lat="47.34638" lon="7.90307">
        <ele>406.9</ele>
        <time>2022-10-02T08:04:46Z</time>
      </trkpt>
      <trkpt lat="47.34644" lon="7.90305">
        <ele>406.2</ele>
        <time>2022-10-02T08:04:47Z</time>
      </trkpt>
      <trkpt lat="47.34649" lon="7.90301">
        <ele>405.7</ele>
        <time>2022-10-02T08:04:48Z</time>
      </trkpt>
      <trkpt lat="47.34654" lon="7.90297">
        <ele>405.1</ele>
        <time>2022-10-02T08:04:49Z</time>
      </trkpt>
      <trkpt lat="47.34659" lon="7.90293">
        <ele>404.6</ele>
        <time>2022-10-02T08:04:50Z</time>
      </trkpt>
      <trkpt lat="47.34663" lon="7.90291">
        <ele>404.3</ele>
        <time>2022-10-02T08:04:51Z</time>
      </trkpt>
      <trkpt lat="47.34667" lon="7.9029">
        <ele>403.9</ele>
        <time>2022-10-02T08:04:52Z</time>
      </trkpt>
      <trkpt lat="47.34673" lon="7.90287">
        <ele>403.4</ele>
        <time>2022-10-02T08:04:53Z</time>
      </trkpt>
      <trkpt lat="47.34678" lon="7.90283">
        <ele>403.2</ele>
        <time>2022-10-02T08:04:54Z</time>
      </trkpt>
      <trkpt lat="47.34682" lon="7.90279">
        <ele>403.1</ele>
        <time>2022-10-02T08:04:55Z</time>
      </trkpt>
      <trkpt lat="47.34687" lon="7.90274">
        <ele>403.1</ele>
        <time>2022-10-02T08:04:56Z</time>
      </trkpt>
      <trkpt lat="47.34691" lon="7.9027">
        <ele>402.8</ele>
        <time>2022-10-02T08:04:57Z</time>
      </trkpt>
      <trkpt lat="47.34697" lon="7.90266">
        <ele>402.5</ele>
        <time>2022-10-02T08:04:58Z</time>
      </trkpt>
      <trkpt lat="47.34701" lon="7.90261">
        <ele>402.1</ele>
        <time>2022-10-02T08:04:59Z</time>
      </trkpt>
      <trkpt lat="47.34706" lon="7.90255">
        <ele>401.7</ele>
        <time>2022-10-02T08:05:00Z</time>
      </trkpt>
      <trkpt lat="47.34711" lon="7.9025">
        <ele>401.3</ele>
        <time>2022-10-02T08:05:01Z</time>
      </trkpt>
      <trkpt lat="47.34716" lon="7.90245">
        <ele>400.9</ele>
        <time>2022-10-02T08:05:02Z</time>
      </trkpt>
      <trkpt lat="47.34721" lon="7.90241">
        <ele>400.5</ele>
        <time>2022-10-02T08:05:03Z</time>
      </trkpt>
      <trkpt lat="47.34725" lon="7.90237">
        <ele>400.2</ele>
        <time>2022-10-02T08:05:04Z</time>
      </trkpt>
      <trkpt lat="47.3473" lon="7.90234">
        <ele>399.7</ele>
        <time>2022-10-02T08:05:05Z</time>
      </trkpt>
      <trkpt lat="47.34734" lon="7.9023">
        <ele>399.3</ele>
        <time>2022-10-02T08:05:06Z</time>
      </trkpt>
      <trkpt lat="47.34738" lon="7.90226">
        <ele>399</ele>
        <time>2022-10-02T08:05:07Z</time>
      </trkpt>
      <trkpt lat="47.34742" lon="7.90223">
        <ele>398.6</ele>
        <time>2022-10-02T08:05:08Z</time>
      </trkpt>
      <trkpt lat="47.34745" lon="7.9022">
        <ele>398.2</ele>
        <time>2022-10-02T08:05:09Z</time>
      </trkpt>
      <trkpt lat="47.3475" lon="7.90217">
        <ele>397.8</ele>
        <time>2022-10-02T08:05:10Z</time>
      </trkpt>
      <trkpt lat="47.34754" lon="7.90214">
        <ele>397.3</ele>
        <time>2022-10-02T08:05:11Z</time>
      </trkpt>
      <trkpt lat="47.34758" lon="7.9021">
        <ele>397</ele>
        <time>2022-10-02T08:05:12Z</time>
      </trkpt>
      <trkpt lat="47.34763" lon="7.90208">
        <ele>396.5</ele>
        <time>2022-10-02T08:05:13Z</time>
      </trkpt>
      <trkpt lat="47.34768" lon="7.90206">
        <ele>396</ele>
        <time>2022-10-02T08:05:14Z</time>
      </trkpt>
      <trkpt lat="47.34774" lon="7.90203">
        <ele>395.5</ele>
        <time>2022-10-02T08:05:15Z</time>
      </trkpt>
      <trkpt lat="47.3478" lon="7.90202">
        <ele>395.1</ele>
        <time>2022-10-02T08:05:16Z</time>
      </trkpt>
      <trkpt lat="47.34786" lon="7.90199">
        <ele>394.7</ele>
        <time>2022-10-02T08:05:17Z</time>
      </trkpt>
      <trkpt lat="47.34791" lon="7.90197">
        <ele>394.3</ele>
        <time>2022-10-02T08:05:18Z</time>
      </trkpt>
      <trkpt lat="47.34795" lon="7.90196">
        <ele>394</ele>
        <time>2022-10-02T08:05:19Z</time>
      </trkpt>
      <trkpt lat="47.348" lon="7.90195">
        <ele>393.7</ele>
        <time>2022-10-02T08:05:20Z</time>
      </trkpt>
      <trkpt lat="47.34806" lon="7.90195">
        <ele>393.6</ele>
        <time>2022-10-02T08:05:21Z</time>
      </trkpt>
      <trkpt lat="47.3481" lon="7.90193">
        <ele>393.5</ele>
        <time>2022-10-02T08:05:22Z</time>
      </trkpt>
      <trkpt lat="47.34814" lon="7.90196">
        <ele>393.4</ele>
        <time>2022-10-02T08:05:23Z</time>
      </trkpt>
      <trkpt lat="47.34821" lon="7.90194">
        <ele>393.2</ele>
        <time>2022-10-02T08:05:24Z</time>
      </trkpt>
      <trkpt lat="47.34826" lon="7.90195">
        <ele>393</ele>
        <time>2022-10-02T08:05:25Z</time>
      </trkpt>
      <trkpt lat="47.34831" lon="7.90195">
        <ele>392.9</ele>
        <time>2022-10-02T08:05:26Z</time>
      </trkpt>
      <trkpt lat="47.34836" lon="7.90197">
        <ele>392.8</ele>
        <time>2022-10-02T08:05:27Z</time>
      </trkpt>
      <trkpt lat="47.3484" lon="7.90199">
        <ele>392.7</ele>
        <time>2022-10-02T08:05:28Z</time>
      </trkpt>
      <trkpt lat="47.34845" lon="7.90202">
        <ele>392.7</ele>
        <time>2022-10-02T08:05:29Z</time>
      </trkpt>
      <trkpt lat="47.34849" lon="7.90203">
        <ele>392.6</ele>
        <time>2022-10-02T08:05:30Z</time>
      </trkpt>
      <trkpt lat="47.34853" lon="7.90206">
        <ele>392.6</ele>
        <time>2022-10-02T08:05:31Z</time>
      </trkpt>
      <trkpt lat="47.3486" lon="7.90211">
        <ele>392.5</ele>
        <time>2022-10-02T08:05:32Z</time>
      </trkpt>
      <trkpt lat="47.34863" lon="7.90215">
        <ele>392.5</ele>
        <time>2022-10-02T08:05:33Z</time>
      </trkpt>
      <trkpt lat="47.34866" lon="7.90221">
        <ele>392.5</ele>
        <time>2022-10-02T08:05:34Z</time>
      </trkpt>
      <trkpt lat="47.3487" lon="7.90227">
        <ele>392.5</ele>
        <time>2022-10-02T08:05:35Z</time>
      </trkpt>
      <trkpt lat="47.34873" lon="7.90234">
        <ele>392.5</ele>
        <time>2022-10-02T08:05:36Z</time>
      </trkpt>
      <trkpt lat="47.34875" lon="7.9024">
        <ele>392.6</ele>
        <time>2022-10-02T08:05:37Z</time>
      </trkpt>
      <trkpt lat="47.34877" lon="7.90247">
        <ele>392.6</ele>
        <time>2022-10-02T08:05:38Z</time>
      </trkpt>
      <trkpt lat="47.34879" lon="7.90253">
        <ele>392.6</ele>
        <time>2022-10-02T08:05:39Z</time>
      </trkpt>
      <trkpt lat="47.34882" lon="7.90261">
        <ele>392.7</ele>
        <time>2022-10-02T08:05:40Z</time>
      </trkpt>
      <trkpt lat="47.34883" lon="7.90268">
        <ele>392.8</ele>
        <time>2022-10-02T08:05:41Z</time>
      </trkpt>
      <trkpt lat="47.34885" lon="7.90274">
        <ele>392.8</ele>
        <time>2022-10-02T08:05:42Z</time>
      </trkpt>
      <trkpt lat="47.34888" lon="7.90279">
        <ele>393</ele>
        <time>2022-10-02T08:05:43Z</time>
      </trkpt>
      <trkpt lat="47.34891" lon="7.90283">
        <ele>393.1</ele>
        <time>2022-10-02T08:05:44Z</time>
      </trkpt>
      <trkpt lat="47.34894" lon="7.90287">
        <ele>393.3</ele>
        <time>2022-10-02T08:05:45Z</time>
      </trkpt>
      <trkpt lat="47.34898" lon="7.90289">
        <ele>393.5</ele>
        <time>2022-10-02T08:05:46Z</time>
      </trkpt>
      <trkpt lat="47.34902" lon="7.90289">
        <ele>393.7</ele>
        <time>2022-10-02T08:05:47Z</time>
      </trkpt>
      <trkpt lat="47.34905" lon="7.90289">
        <ele>393.8</ele>
        <time>2022-10-02T08:05:48Z</time>
      </trkpt>
      <trkpt lat="47.34908" lon="7.90289">
        <ele>393.9</ele>
        <time>2022-10-02T08:05:49Z</time>
      </trkpt>
      <trkpt lat="47.34912" lon="7.90289">
        <ele>394</ele>
        <time>2022-10-02T08:05:51Z</time>
      </trkpt>
      <trkpt lat="47.34917" lon="7.9029">
        <ele>394.2</ele>
        <time>2022-10-02T08:05:52Z</time>
      </trkpt>
      <trkpt lat="47.34919" lon="7.90293">
        <ele>394</ele>
        <time>2022-10-02T08:05:53Z</time>
      </trkpt>
      <trkpt lat="47.3492" lon="7.90294">
        <ele>394</ele>
        <time>2022-10-02T08:05:54Z</time>
      </trkpt>
      <trkpt lat="47.34921" lon="7.90298">
        <ele>393.9</ele>
        <time>2022-10-02T08:05:55Z</time>
      </trkpt>
      <trkpt lat="47.34921" lon="7.90303">
        <ele>393.8</ele>
        <time>2022-10-02T08:05:56Z</time>
      </trkpt>
      <trkpt lat="47.34921" lon="7.90309">
        <ele>393.6</ele>
        <time>2022-10-02T08:05:57Z</time>
      </trkpt>
      <trkpt lat="47.34922" lon="7.90314">
        <ele>393.5</ele>
        <time>2022-10-02T08:05:58Z</time>
      </trkpt>
      <trkpt lat="47.34922" lon="7.90319">
        <ele>393.4</ele>
        <time>2022-10-02T08:05:59Z</time>
      </trkpt>
      <trkpt lat="47.34922" lon="7.90325">
        <ele>393.3</ele>
        <time>2022-10-02T08:06:00Z</time>
      </trkpt>
      <trkpt lat="47.34921" lon="7.90332">
        <ele>393.2</ele>
        <time>2022-10-02T08:06:01Z</time>
      </trkpt>
      <trkpt lat="47.3492" lon="7.90338">
        <ele>393.2</ele>
        <time>2022-10-02T08:06:02Z</time>
      </trkpt>
      <trkpt lat="47.3492" lon="7.90344">
        <ele>393.1</ele>
        <time>2022-10-02T08:06:03Z</time>
      </trkpt>
      <trkpt lat="47.3492" lon="7.9035">
        <ele>393</ele>
        <time>2022-10-02T08:06:04Z</time>
      </trkpt>
      <trkpt lat="47.34919" lon="7.90355">
        <ele>393</ele>
        <time>2022-10-02T08:06:05Z</time>
      </trkpt>
      <trkpt lat="47.34919" lon="7.90362">
        <ele>392.9</ele>
        <time>2022-10-02T08:06:06Z</time>
      </trkpt>
      <trkpt lat="47.34918" lon="7.90369">
        <ele>392.8</ele>
        <time>2022-10-02T08:06:07Z</time>
      </trkpt>
      <trkpt lat="47.34916" lon="7.90375">
        <ele>392.8</ele>
        <time>2022-10-02T08:06:08Z</time>
      </trkpt>
      <trkpt lat="47.34915" lon="7.90382">
        <ele>392.8</ele>
        <time>2022-10-02T08:06:09Z</time>
      </trkpt>
      <trkpt lat="47.34915" lon="7.90388">
        <ele>392.8</ele>
        <time>2022-10-02T08:06:10Z</time>
      </trkpt>
      <trkpt lat="47.34916" lon="7.90394">
        <ele>392.9</ele>
        <time>2022-10-02T08:06:11Z</time>
      </trkpt>
      <trkpt lat="47.34917" lon="7.904">
        <ele>392.9</ele>
        <time>2022-10-02T08:06:12Z</time>
      </trkpt>
      <trkpt lat="47.34917" lon="7.90405">
        <ele>392.9</ele>
        <time>2022-10-02T08:06:13Z</time>
      </trkpt>
      <trkpt lat="47.34919" lon="7.90409">
        <ele>393</ele>
        <time>2022-10-02T08:06:14Z</time>
      </trkpt>
      <trkpt lat="47.34921" lon="7.90415">
        <ele>393</ele>
        <time>2022-10-02T08:06:15Z</time>
      </trkpt>
      <trkpt lat="47.34923" lon="7.90421">
        <ele>393.1</ele>
        <time>2022-10-02T08:06:16Z</time>
      </trkpt>
      <trkpt lat="47.34926" lon="7.90424">
        <ele>393.1</ele>
        <time>2022-10-02T08:06:17Z</time>
      </trkpt>
      <trkpt lat="47.3493" lon="7.90428">
        <ele>393.2</ele>
        <time>2022-10-02T08:06:18Z</time>
      </trkpt>
      <trkpt lat="47.34933" lon="7.90431">
        <ele>393.3</ele>
        <time>2022-10-02T08:06:19Z</time>
      </trkpt>
      <trkpt lat="47.34936" lon="7.90435">
        <ele>393.5</ele>
        <time>2022-10-02T08:06:20Z</time>
      </trkpt>
      <trkpt lat="47.34939" lon="7.90436">
        <ele>393.7</ele>
        <time>2022-10-02T08:06:21Z</time>
      </trkpt>
      <trkpt lat="47.34943" lon="7.90439">
        <ele>394</ele>
        <time>2022-10-02T08:06:22Z</time>
      </trkpt>
      <trkpt lat="47.34946" lon="7.90442">
        <ele>394.3</ele>
        <time>2022-10-02T08:06:23Z</time>
      </trkpt>
      <trkpt lat="47.34949" lon="7.90443">
        <ele>394.6</ele>
        <time>2022-10-02T08:06:24Z</time>
      </trkpt>
      <trkpt lat="47.34951" lon="7.90446">
        <ele>395</ele>
        <time>2022-10-02T08:06:25Z</time>
      </trkpt>
      <trkpt lat="47.34952" lon="7.90446">
        <ele>395.1</ele>
        <time>2022-10-02T08:06:26Z</time>
      </trkpt>
      <trkpt lat="47.34954" lon="7.90448">
        <ele>395.4</ele>
        <time>2022-10-02T08:06:27Z</time>
      </trkpt>
      <trkpt lat="47.34955" lon="7.90448">
        <ele>395.6</ele>
        <time>2022-10-02T08:06:28Z</time>
      </trkpt>
      <trkpt lat="47.34956" lon="7.90449">
        <ele>395.7</ele>
        <time>2022-10-02T08:06:29Z</time>
      </trkpt>
      <trkpt lat="47.34958" lon="7.90449">
        <ele>395.8</ele>
        <time>2022-10-02T08:06:30Z</time>
      </trkpt>
      <trkpt lat="47.34959" lon="7.90449">
        <ele>396.1</ele>
        <time>2022-10-02T08:06:31Z</time>
      </trkpt>
      <trkpt lat="47.34961" lon="7.9045">
        <ele>396.3</ele>
        <time>2022-10-02T08:06:32Z</time>
      </trkpt>
      <trkpt lat="47.34962" lon="7.9045">
        <ele>396.7</ele>
        <time>2022-10-02T08:06:33Z</time>
      </trkpt>
      <trkpt lat="47.34962" lon="7.90451">
        <ele>396.7</ele>
        <time>2022-10-02T08:06:34Z</time>
      </trkpt>
      <trkpt lat="47.34963" lon="7.90452">
        <ele>396.8</ele>
        <time>2022-10-02T08:06:35Z</time>
      </trkpt>
      <trkpt lat="47.34964" lon="7.90451">
        <ele>396.8</ele>
        <time>2022-10-02T08:06:36Z</time>
      </trkpt>
      <trkpt lat="47.34965" lon="7.90449">
        <ele>396.9</ele>
        <time>2022-10-02T08:06:37Z</time>
      </trkpt>
      <trkpt lat="47.34967" lon="7.90448">
        <ele>396.9</ele>
        <time>2022-10-02T08:06:38Z</time>
      </trkpt>
      <trkpt lat="47.34968" lon="7.90446">
        <ele>397</ele>
        <time>2022-10-02T08:06:39Z</time>
      </trkpt>
      <trkpt lat="47.34968" lon="7.90443">
        <ele>397.1</ele>
        <time>2022-10-02T08:06:40Z</time>
      </trkpt>
      <trkpt lat="47.34969" lon="7.90441">
        <ele>397.1</ele>
        <time>2022-10-02T08:06:41Z</time>
      </trkpt>
      <trkpt lat="47.3497" lon="7.9044">
        <ele>397.2</ele>
        <time>2022-10-02T08:06:42Z</time>
      </trkpt>
      <trkpt lat="47.3497" lon="7.9044">
        <ele>397.2</ele>
        <time>2022-10-02T08:06:43Z</time>
      </trkpt>
      <trkpt lat="47.34972" lon="7.90439">
        <ele>397.2</ele>
        <time>2022-10-02T08:06:44Z</time>
      </trkpt>
      <trkpt lat="47.34974" lon="7.90439">
        <ele>397.2</ele>
        <time>2022-10-02T08:06:45Z</time>
      </trkpt>
      <trkpt lat="47.34975" lon="7.90441">
        <ele>397.3</ele>
        <time>2022-10-02T08:06:46Z</time>
      </trkpt>
      <trkpt lat="47.34976" lon="7.90441">
        <ele>397.5</ele>
        <time>2022-10-02T08:06:47Z</time>
      </trkpt>
      <trkpt lat="47.34977" lon="7.9044">
        <ele>397.5</ele>
        <time>2022-10-02T08:06:48Z</time>
      </trkpt>
      <trkpt lat="47.34977" lon="7.90441">
        <ele>397.5</ele>
        <time>2022-10-02T08:06:49Z</time>
      </trkpt>
      <trkpt lat="47.34978" lon="7.90444">
        <ele>397.6</ele>
        <time>2022-10-02T08:06:50Z</time>
      </trkpt>
      <trkpt lat="47.34978" lon="7.90444">
        <ele>397.6</ele>
        <time>2022-10-02T08:06:51Z</time>
      </trkpt>
      <trkpt lat="47.34979" lon="7.90444">
        <ele>397.6</ele>
        <time>2022-10-02T08:06:52Z</time>
      </trkpt>
      <trkpt lat="47.3498" lon="7.90445">
        <ele>397.7</ele>
        <time>2022-10-02T08:06:53Z</time>
      </trkpt>
      <trkpt lat="47.34981" lon="7.90445">
        <ele>397.7</ele>
        <time>2022-10-02T08:06:54Z</time>
      </trkpt>
      <trkpt lat="47.34983" lon="7.90446">
        <ele>397.8</ele>
        <time>2022-10-02T08:06:55Z</time>
      </trkpt>
      <trkpt lat="47.34984" lon="7.90448">
        <ele>397.8</ele>
        <time>2022-10-02T08:06:56Z</time>
      </trkpt>
      <trkpt lat="47.34986" lon="7.90449">
        <ele>397.8</ele>
        <time>2022-10-02T08:06:57Z</time>
      </trkpt>
      <trkpt lat="47.34988" lon="7.9045">
        <ele>397.9</ele>
        <time>2022-10-02T08:06:58Z</time>
      </trkpt>
      <trkpt lat="47.34989" lon="7.90447">
        <ele>398</ele>
        <time>2022-10-02T08:06:59Z</time>
      </trkpt>
      <trkpt lat="47.3499" lon="7.90448">
        <ele>398</ele>
        <time>2022-10-02T08:07:00Z</time>
      </trkpt>
      <trkpt lat="47.34991" lon="7.90449">
        <ele>398</ele>
        <time>2022-10-02T08:07:01Z</time>
      </trkpt>
      <trkpt lat="47.34995" lon="7.90449">
        <ele>398.1</ele>
        <time>2022-10-02T08:07:02Z</time>
      </trkpt>
      <trkpt lat="47.34998" lon="7.9045">
        <ele>398.2</ele>
        <time>2022-10-02T08:07:03Z</time>
      </trkpt>
      <trkpt lat="47.35" lon="7.90452">
        <ele>398.3</ele>
        <time>2022-10-02T08:07:04Z</time>
      </trkpt>
      <trkpt lat="47.35001" lon="7.90456">
        <ele>398.4</ele>
        <time>2022-10-02T08:07:05Z</time>
      </trkpt>
      <trkpt lat="47.35004" lon="7.9046">
        <ele>398.4</ele>
        <time>2022-10-02T08:07:06Z</time>
      </trkpt>
      <trkpt lat="47.35005" lon="7.90463">
        <ele>398.5</ele>
        <time>2022-10-02T08:07:07Z</time>
      </trkpt>
      <trkpt lat="47.35007" lon="7.90465">
        <ele>398.5</ele>
        <time>2022-10-02T08:07:08Z</time>
      </trkpt>
      <trkpt lat="47.3501" lon="7.90467">
        <ele>398.6</ele>
        <time>2022-10-02T08:07:09Z</time>
      </trkpt>
      <trkpt lat="47.35014" lon="7.90466">
        <ele>398.6</ele>
        <time>2022-10-02T08:07:10Z</time>
      </trkpt>
      <trkpt lat="47.35016" lon="7.90471">
        <ele>398.6</ele>
        <time>2022-10-02T08:07:11Z</time>
      </trkpt>
      <trkpt lat="47.35021" lon="7.90469">
        <ele>398.7</ele>
        <time>2022-10-02T08:07:12Z</time>
      </trkpt>
      <trkpt lat="47.35025" lon="7.90468">
        <ele>398.7</ele>
        <time>2022-10-02T08:07:13Z</time>
      </trkpt>
      <trkpt lat="47.35029" lon="7.90464">
        <ele>398.8</ele>
        <time>2022-10-02T08:07:14Z</time>
      </trkpt>
      <trkpt lat="47.35033" lon="7.90463">
        <ele>398.8</ele>
        <time>2022-10-02T08:07:15Z</time>
      </trkpt>
      <trkpt lat="47.35035" lon="7.90461">
        <ele>398.8</ele>
        <time>2022-10-02T08:07:16Z</time>
      </trkpt>
      <trkpt lat="47.35039" lon="7.90459">
        <ele>398.9</ele>
        <time>2022-10-02T08:07:17Z</time>
      </trkpt>
      <trkpt lat="47.35042" lon="7.90457">
        <ele>398.9</ele>
        <time>2022-10-02T08:07:18Z</time>
      </trkpt>
      <trkpt lat="47.35046" lon="7.90457">
        <ele>398.9</ele>
        <time>2022-10-02T08:07:19Z</time>
      </trkpt>
      <trkpt lat="47.35051" lon="7.90456">
        <ele>398.9</ele>
        <time>2022-10-02T08:07:20Z</time>
      </trkpt>
      <trkpt lat="47.35053" lon="7.90455">
        <ele>398.9</ele>
        <time>2022-10-02T08:07:21Z</time>
      </trkpt>
      <trkpt lat="47.35057" lon="7.90455">
        <ele>398.8</ele>
        <time>2022-10-02T08:07:22Z</time>
      </trkpt>
      <trkpt lat="47.35061" lon="7.90455">
        <ele>398.8</ele>
        <time>2022-10-02T08:07:23Z</time>
      </trkpt>
      <trkpt lat="47.35065" lon="7.90456">
        <ele>398.7</ele>
        <time>2022-10-02T08:07:24Z</time>
      </trkpt>
      <trkpt lat="47.35067" lon="7.90456">
        <ele>398.7</ele>
        <time>2022-10-02T08:07:25Z</time>
      </trkpt>
      <trkpt lat="47.35071" lon="7.90457">
        <ele>398.6</ele>
        <time>2022-10-02T08:07:26Z</time>
      </trkpt>
      <trkpt lat="47.35075" lon="7.90457">
        <ele>398.5</ele>
        <time>2022-10-02T08:07:27Z</time>
      </trkpt>
      <trkpt lat="47.35078" lon="7.90458">
        <ele>398.5</ele>
        <time>2022-10-02T08:07:28Z</time>
      </trkpt>
      <trkpt lat="47.35082" lon="7.90458">
        <ele>398.4</ele>
        <time>2022-10-02T08:07:29Z</time>
      </trkpt>
      <trkpt lat="47.35086" lon="7.90458">
        <ele>398.4</ele>
        <time>2022-10-02T08:07:30Z</time>
      </trkpt>
      <trkpt lat="47.3509" lon="7.90459">
        <ele>398.3</ele>
        <time>2022-10-02T08:07:31Z</time>
      </trkpt>
      <trkpt lat="47.35094" lon="7.9046">
        <ele>398.2</ele>
        <time>2022-10-02T08:07:32Z</time>
      </trkpt>
      <trkpt lat="47.35099" lon="7.90461">
        <ele>398.2</ele>
        <time>2022-10-02T08:07:33Z</time>
      </trkpt>
      <trkpt lat="47.35104" lon="7.90462">
        <ele>398.1</ele>
        <time>2022-10-02T08:07:34Z</time>
      </trkpt>
      <trkpt lat="47.3511" lon="7.90462">
        <ele>398</ele>
        <time>2022-10-02T08:07:35Z</time>
      </trkpt>
      <trkpt lat="47.35113" lon="7.90462">
        <ele>398</ele>
        <time>2022-10-02T08:07:36Z</time>
      </trkpt>
      <trkpt lat="47.35116" lon="7.90464">
        <ele>398</ele>
        <time>2022-10-02T08:07:37Z</time>
      </trkpt>
      <trkpt lat="47.35121" lon="7.90464">
        <ele>398</ele>
        <time>2022-10-02T08:07:38Z</time>
      </trkpt>
      <trkpt lat="47.35126" lon="7.90464">
        <ele>397.9</ele>
        <time>2022-10-02T08:07:39Z</time>
      </trkpt>
      <trkpt lat="47.35132" lon="7.90466">
        <ele>397.9</ele>
        <time>2022-10-02T08:07:40Z</time>
      </trkpt>
      <trkpt lat="47.35136" lon="7.90467">
        <ele>397.8</ele>
        <time>2022-10-02T08:07:41Z</time>
      </trkpt>
      <trkpt lat="47.35142" lon="7.90468">
        <ele>397.8</ele>
        <time>2022-10-02T08:07:43Z</time>
      </trkpt>
      <trkpt lat="47.35147" lon="7.9047">
        <ele>397.7</ele>
        <time>2022-10-02T08:07:44Z</time>
      </trkpt>
      <trkpt lat="47.35153" lon="7.90469">
        <ele>397.7</ele>
        <time>2022-10-02T08:07:45Z</time>
      </trkpt>
      <trkpt lat="47.35157" lon="7.90471">
        <ele>397.6</ele>
        <time>2022-10-02T08:07:46Z</time>
      </trkpt>
      <trkpt lat="47.35162" lon="7.90471">
        <ele>397.6</ele>
        <time>2022-10-02T08:07:47Z</time>
      </trkpt>
      <trkpt lat="47.35166" lon="7.90471">
        <ele>397.6</ele>
        <time>2022-10-02T08:07:48Z</time>
      </trkpt>
      <trkpt lat="47.35171" lon="7.90471">
        <ele>397.6</ele>
        <time>2022-10-02T08:07:49Z</time>
      </trkpt>
      <trkpt lat="47.35176" lon="7.90473">
        <ele>397.6</ele>
        <time>2022-10-02T08:07:50Z</time>
      </trkpt>
      <trkpt lat="47.35178" lon="7.90474">
        <ele>397.5</ele>
        <time>2022-10-02T08:07:51Z</time>
      </trkpt>
      <trkpt lat="47.35179" lon="7.90475">
        <ele>397.5</ele>
        <time>2022-10-02T08:07:52Z</time>
      </trkpt>
      <trkpt lat="47.35184" lon="7.90475">
        <ele>397.5</ele>
        <time>2022-10-02T08:07:53Z</time>
      </trkpt>
      <trkpt lat="47.35187" lon="7.90476">
        <ele>397.5</ele>
        <time>2022-10-02T08:07:54Z</time>
      </trkpt>
      <trkpt lat="47.3519" lon="7.90476">
        <ele>397.5</ele>
        <time>2022-10-02T08:07:55Z</time>
      </trkpt>
      <trkpt lat="47.35191" lon="7.90476">
        <ele>397.5</ele>
        <time>2022-10-02T08:07:56Z</time>
      </trkpt>
      <trkpt lat="47.3519" lon="7.90477">
        <ele>397.5</ele>
        <time>2022-10-02T08:07:57Z</time>
      </trkpt>
      <trkpt lat="47.3519" lon="7.90477">
        <ele>397.5</ele>
        <time>2022-10-02T08:07:58Z</time>
      </trkpt>
      <trkpt lat="47.3519" lon="7.90477">
        <ele>397.5</ele>
        <time>2022-10-02T08:07:59Z</time>
      </trkpt>
      <trkpt lat="47.3519" lon="7.90477">
        <ele>397.5</ele>
        <time>2022-10-02T08:08:00Z</time>
      </trkpt>
      <trkpt lat="47.3519" lon="7.90477">
        <ele>397.5</ele>
        <time>2022-10-02T08:08:01Z</time>
      </trkpt>
      <trkpt lat="47.35194" lon="7.90478">
        <ele>397.5</ele>
        <time>2022-10-02T08:08:02Z</time>
      </trkpt>
      <trkpt lat="47.35197" lon="7.90479">
        <ele>397.5</ele>
        <time>2022-10-02T08:08:03Z</time>
      </trkpt>
      <trkpt lat="47.352" lon="7.9048">
        <ele>397.5</ele>
        <time>2022-10-02T08:08:04Z</time>
      </trkpt>
      <trkpt lat="47.35203" lon="7.90481">
        <ele>397.6</ele>
        <time>2022-10-02T08:08:05Z</time>
      </trkpt>
      <trkpt lat="47.35205" lon="7.90482">
        <ele>397.6</ele>
        <time>2022-10-02T08:08:06Z</time>
      </trkpt>
      <trkpt lat="47.35208" lon="7.90483">
        <ele>397.6</ele>
        <time>2022-10-02T08:08:44Z</time>
      </trkpt>
      <trkpt lat="47.35211" lon="7.90484">
        <ele>397.6</ele>
        <time>2022-10-02T08:08:45Z</time>
      </trkpt>
      <trkpt lat="47.35214" lon="7.90485">
        <ele>397.7</ele>
        <time>2022-10-02T08:08:46Z</time>
      </trkpt>
      <trkpt lat="47.35216" lon="7.90488">
        <ele>397.7</ele>
        <time>2022-10-02T08:08:47Z</time>
      </trkpt>
      <trkpt lat="47.35219" lon="7.90491">
        <ele>397.7</ele>
        <time>2022-10-02T08:08:48Z</time>
      </trkpt>
      <trkpt lat="47.35221" lon="7.90493">
        <ele>397.7</ele>
        <time>2022-10-02T08:08:49Z</time>
      </trkpt>
      <trkpt lat="47.35224" lon="7.90493">
        <ele>397.8</ele>
        <time>2022-10-02T08:08:50Z</time>
      </trkpt>
      <trkpt lat="47.35226" lon="7.90491">
        <ele>397.8</ele>
        <time>2022-10-02T08:08:51Z</time>
      </trkpt>
      <trkpt lat="47.35229" lon="7.90491">
        <ele>397.8</ele>
        <time>2022-10-02T08:08:52Z</time>
      </trkpt>
      <trkpt lat="47.35233" lon="7.90491">
        <ele>397.7</ele>
        <time>2022-10-02T08:08:53Z</time>
      </trkpt>
      <trkpt lat="47.35238" lon="7.90492">
        <ele>397.6</ele>
        <time>2022-10-02T08:08:54Z</time>
      </trkpt>
      <trkpt lat="47.35241" lon="7.90495">
        <ele>397.5</ele>
        <time>2022-10-02T08:08:55Z</time>
      </trkpt>
      <trkpt lat="47.35247" lon="7.90497">
        <ele>397.4</ele>
        <time>2022-10-02T08:08:56Z</time>
      </trkpt>
      <trkpt lat="47.35252" lon="7.90497">
        <ele>397.4</ele>
        <time>2022-10-02T08:08:57Z</time>
      </trkpt>
      <trkpt lat="47.35257" lon="7.90497">
        <ele>397.3</ele>
        <time>2022-10-02T08:08:58Z</time>
      </trkpt>
      <trkpt lat="47.35262" lon="7.90498">
        <ele>397.2</ele>
        <time>2022-10-02T08:08:59Z</time>
      </trkpt>
      <trkpt lat="47.35267" lon="7.905">
        <ele>397.2</ele>
        <time>2022-10-02T08:09:00Z</time>
      </trkpt>
      <trkpt lat="47.3527" lon="7.90503">
        <ele>397.1</ele>
        <time>2022-10-02T08:09:01Z</time>
      </trkpt>
      <trkpt lat="47.35272" lon="7.90504">
        <ele>397.1</ele>
        <time>2022-10-02T08:09:02Z</time>
      </trkpt>
      <trkpt lat="47.35278" lon="7.90504">
        <ele>397</ele>
        <time>2022-10-02T08:09:03Z</time>
      </trkpt>
      <trkpt lat="47.35283" lon="7.90508">
        <ele>397</ele>
        <time>2022-10-02T08:09:04Z</time>
      </trkpt>
      <trkpt lat="47.35289" lon="7.9051">
        <ele>396.9</ele>
        <time>2022-10-02T08:09:05Z</time>
      </trkpt>
      <trkpt lat="47.35294" lon="7.90513">
        <ele>396.8</ele>
        <time>2022-10-02T08:09:06Z</time>
      </trkpt>
      <trkpt lat="47.353" lon="7.90515">
        <ele>396.8</ele>
        <time>2022-10-02T08:09:07Z</time>
      </trkpt>
      <trkpt lat="47.35304" lon="7.90517">
        <ele>396.7</ele>
        <time>2022-10-02T08:09:08Z</time>
      </trkpt>
      <trkpt lat="47.35309" lon="7.90519">
        <ele>396.7</ele>
        <time>2022-10-02T08:09:09Z</time>
      </trkpt>
      <trkpt lat="47.35314" lon="7.90521">
        <ele>396.6</ele>
        <time>2022-10-02T08:09:10Z</time>
      </trkpt>
      <trkpt lat="47.35319" lon="7.90522">
        <ele>396.6</ele>
        <time>2022-10-02T08:09:11Z</time>
      </trkpt>
      <trkpt lat="47.35325" lon="7.90522">
        <ele>396.6</ele>
        <time>2022-10-02T08:09:12Z</time>
      </trkpt>
      <trkpt lat="47.3533" lon="7.90525">
        <ele>396.5</ele>
        <time>2022-10-02T08:09:13Z</time>
      </trkpt>
      <trkpt lat="47.35335" lon="7.90525">
        <ele>396.5</ele>
        <time>2022-10-02T08:09:14Z</time>
      </trkpt>
      <trkpt lat="47.35339" lon="7.90526">
        <ele>396.5</ele>
        <time>2022-10-02T08:09:15Z</time>
      </trkpt>
      <trkpt lat="47.35344" lon="7.90527">
        <ele>396.4</ele>
        <time>2022-10-02T08:09:16Z</time>
      </trkpt>
      <trkpt lat="47.35348" lon="7.9053">
        <ele>396.4</ele>
        <time>2022-10-02T08:09:17Z</time>
      </trkpt>
      <trkpt lat="47.35353" lon="7.90532">
        <ele>396.3</ele>
        <time>2022-10-02T08:09:18Z</time>
      </trkpt>
      <trkpt lat="47.35359" lon="7.90533">
        <ele>396.3</ele>
        <time>2022-10-02T08:09:19Z</time>
      </trkpt>
      <trkpt lat="47.35365" lon="7.90535">
        <ele>396.2</ele>
        <time>2022-10-02T08:09:20Z</time>
      </trkpt>
      <trkpt lat="47.35369" lon="7.90536">
        <ele>396.2</ele>
        <time>2022-10-02T08:09:21Z</time>
      </trkpt>
      <trkpt lat="47.35373" lon="7.90538">
        <ele>396.2</ele>
        <time>2022-10-02T08:09:22Z</time>
      </trkpt>
      <trkpt lat="47.35378" lon="7.9054">
        <ele>396.1</ele>
        <time>2022-10-02T08:09:23Z</time>
      </trkpt>
      <trkpt lat="47.35383" lon="7.90541">
        <ele>396.1</ele>
        <time>2022-10-02T08:09:24Z</time>
      </trkpt>
      <trkpt lat="47.35388" lon="7.90544">
        <ele>396</ele>
        <time>2022-10-02T08:09:25Z</time>
      </trkpt>
      <trkpt lat="47.35393" lon="7.90544">
        <ele>395.9</ele>
        <time>2022-10-02T08:09:26Z</time>
      </trkpt>
      <trkpt lat="47.35399" lon="7.90546">
        <ele>395.9</ele>
        <time>2022-10-02T08:09:27Z</time>
      </trkpt>
      <trkpt lat="47.35406" lon="7.90547">
        <ele>395.8</ele>
        <time>2022-10-02T08:09:28Z</time>
      </trkpt>
      <trkpt lat="47.35412" lon="7.90549">
        <ele>395.8</ele>
        <time>2022-10-02T08:09:29Z</time>
      </trkpt>
      <trkpt lat="47.35416" lon="7.90552">
        <ele>395.7</ele>
        <time>2022-10-02T08:09:30Z</time>
      </trkpt>
      <trkpt lat="47.35423" lon="7.90553">
        <ele>395.6</ele>
        <time>2022-10-02T08:09:31Z</time>
      </trkpt>
      <trkpt lat="47.3543" lon="7.90554">
        <ele>395.6</ele>
        <time>2022-10-02T08:09:32Z</time>
      </trkpt>
      <trkpt lat="47.35435" lon="7.90557">
        <ele>395.5</ele>
        <time>2022-10-02T08:09:33Z</time>
      </trkpt>
      <trkpt lat="47.3544" lon="7.90558">
        <ele>395.5</ele>
        <time>2022-10-02T08:09:34Z</time>
      </trkpt>
      <trkpt lat="47.35444" lon="7.9056">
        <ele>395.4</ele>
        <time>2022-10-02T08:09:35Z</time>
      </trkpt>
      <trkpt lat="47.3545" lon="7.90562">
        <ele>395.4</ele>
        <time>2022-10-02T08:09:36Z</time>
      </trkpt>
      <trkpt lat="47.35455" lon="7.90561">
        <ele>395.3</ele>
        <time>2022-10-02T08:09:37Z</time>
      </trkpt>
      <trkpt lat="47.35461" lon="7.90563">
        <ele>395.3</ele>
        <time>2022-10-02T08:09:38Z</time>
      </trkpt>
      <trkpt lat="47.35466" lon="7.90566">
        <ele>395.3</ele>
        <time>2022-10-02T08:09:39Z</time>
      </trkpt>
      <trkpt lat="47.3547" lon="7.90568">
        <ele>395.2</ele>
        <time>2022-10-02T08:09:40Z</time>
      </trkpt>
      <trkpt lat="47.35477" lon="7.90567">
        <ele>395.2</ele>
        <time>2022-10-02T08:09:41Z</time>
      </trkpt>
      <trkpt lat="47.35482" lon="7.90569">
        <ele>395.1</ele>
        <time>2022-10-02T08:09:42Z</time>
      </trkpt>
      <trkpt lat="47.35488" lon="7.90569">
        <ele>395.1</ele>
        <time>2022-10-02T08:09:43Z</time>
      </trkpt>
      <trkpt lat="47.35494" lon="7.9057">
        <ele>395.1</ele>
        <time>2022-10-02T08:09:44Z</time>
      </trkpt>
      <trkpt lat="47.35498" lon="7.90573">
        <ele>395</ele>
        <time>2022-10-02T08:09:45Z</time>
      </trkpt>
      <trkpt lat="47.35502" lon="7.90574">
        <ele>395</ele>
        <time>2022-10-02T08:09:46Z</time>
      </trkpt>
      <trkpt lat="47.35505" lon="7.90574">
        <ele>395</ele>
        <time>2022-10-02T08:09:47Z</time>
      </trkpt>
      <trkpt lat="47.35512" lon="7.90573">
        <ele>395</ele>
        <time>2022-10-02T08:09:49Z</time>
      </trkpt>
      <trkpt lat="47.35517" lon="7.90577">
        <ele>395</ele>
        <time>2022-10-02T08:09:50Z</time>
      </trkpt>
      <trkpt lat="47.35524" lon="7.90576">
        <ele>394.9</ele>
        <time>2022-10-02T08:09:51Z</time>
      </trkpt>
      <trkpt lat="47.35535" lon="7.90578">
        <ele>394.9</ele>
        <time>2022-10-02T08:09:52Z</time>
      </trkpt>
      <trkpt lat="47.35539" lon="7.90579">
        <ele>394.9</ele>
        <time>2022-10-02T08:09:53Z</time>
      </trkpt>
      <trkpt lat="47.35543" lon="7.90579">
        <ele>395</ele>
        <time>2022-10-02T08:09:54Z</time>
      </trkpt>
      <trkpt lat="47.35546" lon="7.90578">
        <ele>395</ele>
        <time>2022-10-02T08:09:55Z</time>
      </trkpt>
      <trkpt lat="47.35552" lon="7.90579">
        <ele>395</ele>
        <time>2022-10-02T08:09:57Z</time>
      </trkpt>
      <trkpt lat="47.35565" lon="7.90581">
        <ele>395</ele>
        <time>2022-10-02T08:09:58Z</time>
      </trkpt>
      <trkpt lat="47.35571" lon="7.90581">
        <ele>395</ele>
        <time>2022-10-02T08:09:59Z</time>
      </trkpt>
      <trkpt lat="47.35578" lon="7.90583">
        <ele>395</ele>
        <time>2022-10-02T08:10:00Z</time>
      </trkpt>
      <trkpt lat="47.35586" lon="7.90584">
        <ele>395</ele>
        <time>2022-10-02T08:10:01Z</time>
      </trkpt>
      <trkpt lat="47.35594" lon="7.90585">
        <ele>395</ele>
        <time>2022-10-02T08:10:02Z</time>
      </trkpt>
      <trkpt lat="47.35599" lon="7.90585">
        <ele>395</ele>
        <time>2022-10-02T08:10:03Z</time>
      </trkpt>
      <trkpt lat="47.35605" lon="7.90586">
        <ele>394.9</ele>
        <time>2022-10-02T08:10:04Z</time>
      </trkpt>
      <trkpt lat="47.35612" lon="7.90586">
        <ele>394.9</ele>
        <time>2022-10-02T08:10:05Z</time>
      </trkpt>
      <trkpt lat="47.35619" lon="7.90586">
        <ele>395</ele>
        <time>2022-10-02T08:10:06Z</time>
      </trkpt>
      <trkpt lat="47.35624" lon="7.90587">
        <ele>395</ele>
        <time>2022-10-02T08:10:07Z</time>
      </trkpt>
      <trkpt lat="47.35629" lon="7.90586">
        <ele>395</ele>
        <time>2022-10-02T08:10:08Z</time>
      </trkpt>
      <trkpt lat="47.35633" lon="7.90585">
        <ele>395</ele>
        <time>2022-10-02T08:10:09Z</time>
      </trkpt>
      <trkpt lat="47.35638" lon="7.90586">
        <ele>395</ele>
        <time>2022-10-02T08:10:10Z</time>
      </trkpt>
      <trkpt lat="47.35643" lon="7.90586">
        <ele>395</ele>
        <time>2022-10-02T08:10:11Z</time>
      </trkpt>
      <trkpt lat="47.35649" lon="7.90587">
        <ele>395</ele>
        <time>2022-10-02T08:10:12Z</time>
      </trkpt>
      <trkpt lat="47.35653" lon="7.90588">
        <ele>395</ele>
        <time>2022-10-02T08:10:13Z</time>
      </trkpt>
      <trkpt lat="47.35659" lon="7.9059">
        <ele>395.1</ele>
        <time>2022-10-02T08:10:14Z</time>
      </trkpt>
      <trkpt lat="47.35665" lon="7.9059">
        <ele>395.1</ele>
        <time>2022-10-02T08:10:15Z</time>
      </trkpt>
      <trkpt lat="47.35669" lon="7.90592">
        <ele>395.2</ele>
        <time>2022-10-02T08:10:16Z</time>
      </trkpt>
      <trkpt lat="47.35674" lon="7.90593">
        <ele>395.2</ele>
        <time>2022-10-02T08:10:17Z</time>
      </trkpt>
      <trkpt lat="47.3568" lon="7.90596">
        <ele>395.2</ele>
        <time>2022-10-02T08:10:18Z</time>
      </trkpt>
      <trkpt lat="47.35686" lon="7.90598">
        <ele>395.3</ele>
        <time>2022-10-02T08:10:19Z</time>
      </trkpt>
      <trkpt lat="47.35692" lon="7.90599">
        <ele>395.3</ele>
        <time>2022-10-02T08:10:20Z</time>
      </trkpt>
      <trkpt lat="47.35697" lon="7.90602">
        <ele>395.4</ele>
        <time>2022-10-02T08:10:21Z</time>
      </trkpt>
      <trkpt lat="47.35702" lon="7.90603">
        <ele>395.4</ele>
        <time>2022-10-02T08:10:22Z</time>
      </trkpt>
      <trkpt lat="47.35707" lon="7.90604">
        <ele>395.4</ele>
        <time>2022-10-02T08:10:23Z</time>
      </trkpt>
      <trkpt lat="47.35713" lon="7.90606">
        <ele>395.5</ele>
        <time>2022-10-02T08:10:24Z</time>
      </trkpt>
      <trkpt lat="47.35717" lon="7.90607">
        <ele>395.6</ele>
        <time>2022-10-02T08:10:25Z</time>
      </trkpt>
      <trkpt lat="47.35723" lon="7.90609">
        <ele>395.6</ele>
        <time>2022-10-02T08:10:26Z</time>
      </trkpt>
      <trkpt lat="47.35727" lon="7.90611">
        <ele>395.7</ele>
        <time>2022-10-02T08:10:27Z</time>
      </trkpt>
      <trkpt lat="47.35732" lon="7.90611">
        <ele>395.8</ele>
        <time>2022-10-02T08:10:28Z</time>
      </trkpt>
      <trkpt lat="47.35736" lon="7.90614">
        <ele>395.8</ele>
        <time>2022-10-02T08:10:29Z</time>
      </trkpt>
      <trkpt lat="47.35741" lon="7.90618">
        <ele>395.9</ele>
        <time>2022-10-02T08:10:30Z</time>
      </trkpt>
      <trkpt lat="47.35745" lon="7.9062">
        <ele>396</ele>
        <time>2022-10-02T08:10:31Z</time>
      </trkpt>
      <trkpt lat="47.35749" lon="7.90622">
        <ele>396.1</ele>
        <time>2022-10-02T08:10:32Z</time>
      </trkpt>
      <trkpt lat="47.35754" lon="7.90624">
        <ele>396.2</ele>
        <time>2022-10-02T08:10:33Z</time>
      </trkpt>
      <trkpt lat="47.35758" lon="7.90625">
        <ele>396.2</ele>
        <time>2022-10-02T08:10:34Z</time>
      </trkpt>
      <trkpt lat="47.35764" lon="7.90627">
        <ele>396.3</ele>
        <time>2022-10-02T08:10:35Z</time>
      </trkpt>
      <trkpt lat="47.35769" lon="7.90629">
        <ele>396.4</ele>
        <time>2022-10-02T08:10:36Z</time>
      </trkpt>
      <trkpt lat="47.35773" lon="7.90631">
        <ele>396.4</ele>
        <time>2022-10-02T08:10:37Z</time>
      </trkpt>
      <trkpt lat="47.35776" lon="7.90635">
        <ele>396.5</ele>
        <time>2022-10-02T08:10:38Z</time>
      </trkpt>
      <trkpt lat="47.3578" lon="7.90636">
        <ele>396.5</ele>
        <time>2022-10-02T08:10:39Z</time>
      </trkpt>
      <trkpt lat="47.35782" lon="7.90634">
        <ele>396.6</ele>
        <time>2022-10-02T08:10:40Z</time>
      </trkpt>
      <trkpt lat="47.35785" lon="7.90636">
        <ele>396.6</ele>
        <time>2022-10-02T08:10:41Z</time>
      </trkpt>
      <trkpt lat="47.3579" lon="7.90639">
        <ele>396.7</ele>
        <time>2022-10-02T08:10:42Z</time>
      </trkpt>
      <trkpt lat="47.35794" lon="7.90641">
        <ele>396.7</ele>
        <time>2022-10-02T08:10:43Z</time>
      </trkpt>
      <trkpt lat="47.35798" lon="7.90644">
        <ele>396.8</ele>
        <time>2022-10-02T08:10:44Z</time>
      </trkpt>
      <trkpt lat="47.35802" lon="7.90644">
        <ele>396.9</ele>
        <time>2022-10-02T08:10:45Z</time>
      </trkpt>
      <trkpt lat="47.35805" lon="7.90645">
        <ele>397</ele>
        <time>2022-10-02T08:10:46Z</time>
      </trkpt>
      <trkpt lat="47.35809" lon="7.90646">
        <ele>397.1</ele>
        <time>2022-10-02T08:10:47Z</time>
      </trkpt>
      <trkpt lat="47.35813" lon="7.90647">
        <ele>397.2</ele>
        <time>2022-10-02T08:10:48Z</time>
      </trkpt>
      <trkpt lat="47.35817" lon="7.9065">
        <ele>397.3</ele>
        <time>2022-10-02T08:10:49Z</time>
      </trkpt>
      <trkpt lat="47.35821" lon="7.90652">
        <ele>397.4</ele>
        <time>2022-10-02T08:10:50Z</time>
      </trkpt>
      <trkpt lat="47.35824" lon="7.90653">
        <ele>397.5</ele>
        <time>2022-10-02T08:10:51Z</time>
      </trkpt>
      <trkpt lat="47.35827" lon="7.90654">
        <ele>397.6</ele>
        <time>2022-10-02T08:10:52Z</time>
      </trkpt>
      <trkpt lat="47.35829" lon="7.90655">
        <ele>397.6</ele>
        <time>2022-10-02T08:10:53Z</time>
      </trkpt>
      <trkpt lat="47.35831" lon="7.90657">
        <ele>397.7</ele>
        <time>2022-10-02T08:10:54Z</time>
      </trkpt>
      <trkpt lat="47.35834" lon="7.9066">
        <ele>397.7</ele>
        <time>2022-10-02T08:10:55Z</time>
      </trkpt>
      <trkpt lat="47.35837" lon="7.90661">
        <ele>397.6</ele>
        <time>2022-10-02T08:10:56Z</time>
      </trkpt>
      <trkpt lat="47.35843" lon="7.90664">
        <ele>397.4</ele>
        <time>2022-10-02T08:10:57Z</time>
      </trkpt>
      <trkpt lat="47.35846" lon="7.90664">
        <ele>397.3</ele>
        <time>2022-10-02T08:10:58Z</time>
      </trkpt>
      <trkpt lat="47.3585" lon="7.90665">
        <ele>397.2</ele>
        <time>2022-10-02T08:10:59Z</time>
      </trkpt>
      <trkpt lat="47.35853" lon="7.90665">
        <ele>397.1</ele>
        <time>2022-10-02T08:11:00Z</time>
      </trkpt>
      <trkpt lat="47.35857" lon="7.90667">
        <ele>396.9</ele>
        <time>2022-10-02T08:11:01Z</time>
      </trkpt>
      <trkpt lat="47.35861" lon="7.90669">
        <ele>396.7</ele>
        <time>2022-10-02T08:11:02Z</time>
      </trkpt>
      <trkpt lat="47.35867" lon="7.90671">
        <ele>396.5</ele>
        <time>2022-10-02T08:11:03Z</time>
      </trkpt>
      <trkpt lat="47.35872" lon="7.90674">
        <ele>396.3</ele>
        <time>2022-10-02T08:11:04Z</time>
      </trkpt>
      <trkpt lat="47.35878" lon="7.90677">
        <ele>396.1</ele>
        <time>2022-10-02T08:11:05Z</time>
      </trkpt>
      <trkpt lat="47.35884" lon="7.9068">
        <ele>395.8</ele>
        <time>2022-10-02T08:11:06Z</time>
      </trkpt>
      <trkpt lat="47.35889" lon="7.90683">
        <ele>395.6</ele>
        <time>2022-10-02T08:11:07Z</time>
      </trkpt>
      <trkpt lat="47.35895" lon="7.90687">
        <ele>395.4</ele>
        <time>2022-10-02T08:11:08Z</time>
      </trkpt>
      <trkpt lat="47.359" lon="7.90689">
        <ele>395.2</ele>
        <time>2022-10-02T08:11:09Z</time>
      </trkpt>
      <trkpt lat="47.35906" lon="7.90692">
        <ele>395</ele>
        <time>2022-10-02T08:11:10Z</time>
      </trkpt>
      <trkpt lat="47.35912" lon="7.90695">
        <ele>394.9</ele>
        <time>2022-10-02T08:11:11Z</time>
      </trkpt>
      <trkpt lat="47.35917" lon="7.90698">
        <ele>394.8</ele>
        <time>2022-10-02T08:11:12Z</time>
      </trkpt>
      <trkpt lat="47.35924" lon="7.90701">
        <ele>394.8</ele>
        <time>2022-10-02T08:11:13Z</time>
      </trkpt>
      <trkpt lat="47.3593" lon="7.90705">
        <ele>394.8</ele>
        <time>2022-10-02T08:11:14Z</time>
      </trkpt>
      <trkpt lat="47.35935" lon="7.90709">
        <ele>395</ele>
        <time>2022-10-02T08:11:15Z</time>
      </trkpt>
      <trkpt lat="47.3594" lon="7.90712">
        <ele>395.1</ele>
        <time>2022-10-02T08:11:16Z</time>
      </trkpt>
      <trkpt lat="47.35945" lon="7.90715">
        <ele>395.3</ele>
        <time>2022-10-02T08:11:17Z</time>
      </trkpt>
      <trkpt lat="47.35951" lon="7.90717">
        <ele>395.5</ele>
        <time>2022-10-02T08:11:18Z</time>
      </trkpt>
      <trkpt lat="47.35955" lon="7.90719">
        <ele>395.7</ele>
        <time>2022-10-02T08:11:19Z</time>
      </trkpt>
      <trkpt lat="47.35958" lon="7.9072">
        <ele>395.8</ele>
        <time>2022-10-02T08:11:20Z</time>
      </trkpt>
      <trkpt lat="47.3596" lon="7.90721">
        <ele>395.9</ele>
        <time>2022-10-02T08:11:21Z</time>
      </trkpt>
      <trkpt lat="47.35963" lon="7.90723">
        <ele>396</ele>
        <time>2022-10-02T08:11:22Z</time>
      </trkpt>
      <trkpt lat="47.35966" lon="7.90725">
        <ele>396.2</ele>
        <time>2022-10-02T08:11:23Z</time>
      </trkpt>
      <trkpt lat="47.3597" lon="7.90725">
        <ele>396.4</ele>
        <time>2022-10-02T08:11:24Z</time>
      </trkpt>
      <trkpt lat="47.35972" lon="7.90726">
        <ele>396.5</ele>
        <time>2022-10-02T08:11:25Z</time>
      </trkpt>
      <trkpt lat="47.35975" lon="7.90728">
        <ele>396.6</ele>
        <time>2022-10-02T08:11:26Z</time>
      </trkpt>
      <trkpt lat="47.35979" lon="7.90729">
        <ele>396.8</ele>
        <time>2022-10-02T08:11:27Z</time>
      </trkpt>
      <trkpt lat="47.35982" lon="7.9073">
        <ele>397</ele>
        <time>2022-10-02T08:11:28Z</time>
      </trkpt>
      <trkpt lat="47.35983" lon="7.9073">
        <ele>397</ele>
        <time>2022-10-02T08:11:29Z</time>
      </trkpt>
      <trkpt lat="47.35987" lon="7.90732">
        <ele>397.2</ele>
        <time>2022-10-02T08:11:30Z</time>
      </trkpt>
      <trkpt lat="47.35988" lon="7.90732">
        <ele>397.3</ele>
        <time>2022-10-02T08:11:31Z</time>
      </trkpt>
      <trkpt lat="47.35991" lon="7.90734">
        <ele>397.4</ele>
        <time>2022-10-02T08:11:32Z</time>
      </trkpt>
      <trkpt lat="47.35994" lon="7.90736">
        <ele>397.6</ele>
        <time>2022-10-02T08:11:33Z</time>
      </trkpt>
      <trkpt lat="47.35997" lon="7.90736">
        <ele>397.8</ele>
        <time>2022-10-02T08:11:34Z</time>
      </trkpt>
      <trkpt lat="47.35999" lon="7.90736">
        <ele>397.8</ele>
        <time>2022-10-02T08:11:35Z</time>
      </trkpt>
      <trkpt lat="47.36002" lon="7.90737">
        <ele>398</ele>
        <time>2022-10-02T08:11:36Z</time>
      </trkpt>
      <trkpt lat="47.36003" lon="7.90738">
        <ele>398.1</ele>
        <time>2022-10-02T08:11:37Z</time>
      </trkpt>
      <trkpt lat="47.36006" lon="7.90741">
        <ele>398.2</ele>
        <time>2022-10-02T08:11:38Z</time>
      </trkpt>
      <trkpt lat="47.36007" lon="7.90742">
        <ele>398.2</ele>
        <time>2022-10-02T08:11:39Z</time>
      </trkpt>
      <trkpt lat="47.3601" lon="7.90742">
        <ele>398.4</ele>
        <time>2022-10-02T08:11:40Z</time>
      </trkpt>
      <trkpt lat="47.36011" lon="7.90743">
        <ele>398.4</ele>
        <time>2022-10-02T08:11:41Z</time>
      </trkpt>
      <trkpt lat="47.36015" lon="7.90745">
        <ele>398.6</ele>
        <time>2022-10-02T08:11:42Z</time>
      </trkpt>
      <trkpt lat="47.36016" lon="7.90746">
        <ele>398.6</ele>
        <time>2022-10-02T08:11:43Z</time>
      </trkpt>
      <trkpt lat="47.36019" lon="7.90748">
        <ele>398.7</ele>
        <time>2022-10-02T08:11:44Z</time>
      </trkpt>
      <trkpt lat="47.36021" lon="7.90748">
        <ele>398.8</ele>
        <time>2022-10-02T08:11:45Z</time>
      </trkpt>
      <trkpt lat="47.36023" lon="7.9075">
        <ele>398.8</ele>
        <time>2022-10-02T08:11:46Z</time>
      </trkpt>
      <trkpt lat="47.36026" lon="7.90752">
        <ele>398.9</ele>
        <time>2022-10-02T08:11:47Z</time>
      </trkpt>
      <trkpt lat="47.36029" lon="7.90754">
        <ele>399</ele>
        <time>2022-10-02T08:11:48Z</time>
      </trkpt>
      <trkpt lat="47.3603" lon="7.90755">
        <ele>399</ele>
        <time>2022-10-02T08:11:49Z</time>
      </trkpt>
      <trkpt lat="47.36033" lon="7.90756">
        <ele>399.1</ele>
        <time>2022-10-02T08:11:50Z</time>
      </trkpt>
      <trkpt lat="47.36036" lon="7.90758">
        <ele>399.1</ele>
        <time>2022-10-02T08:11:51Z</time>
      </trkpt>
      <trkpt lat="47.36038" lon="7.9076">
        <ele>399.2</ele>
        <time>2022-10-02T08:11:52Z</time>
      </trkpt>
      <trkpt lat="47.36041" lon="7.90763">
        <ele>399.2</ele>
        <time>2022-10-02T08:11:53Z</time>
      </trkpt>
      <trkpt lat="47.36045" lon="7.90765">
        <ele>399.2</ele>
        <time>2022-10-02T08:11:54Z</time>
      </trkpt>
      <trkpt lat="47.36048" lon="7.90767">
        <ele>399.3</ele>
        <time>2022-10-02T08:11:55Z</time>
      </trkpt>
      <trkpt lat="47.36051" lon="7.9077">
        <ele>399.3</ele>
        <time>2022-10-02T08:11:57Z</time>
      </trkpt>
      <trkpt lat="47.36055" lon="7.90771">
        <ele>399.3</ele>
        <time>2022-10-02T08:11:58Z</time>
      </trkpt>
      <trkpt lat="47.36058" lon="7.90774">
        <ele>399.3</ele>
        <time>2022-10-02T08:11:59Z</time>
      </trkpt>
      <trkpt lat="47.36062" lon="7.90777">
        <ele>399.4</ele>
        <time>2022-10-02T08:12:00Z</time>
      </trkpt>
      <trkpt lat="47.36066" lon="7.9078">
        <ele>399.4</ele>
        <time>2022-10-02T08:12:01Z</time>
      </trkpt>
      <trkpt lat="47.3607" lon="7.90782">
        <ele>399.4</ele>
        <time>2022-10-02T08:12:02Z</time>
      </trkpt>
      <trkpt lat="47.36073" lon="7.90785">
        <ele>399.4</ele>
        <time>2022-10-02T08:12:03Z</time>
      </trkpt>
      <trkpt lat="47.36081" lon="7.9079">
        <ele>399.4</ele>
        <time>2022-10-02T08:12:04Z</time>
      </trkpt>
      <trkpt lat="47.36084" lon="7.90792">
        <ele>399.5</ele>
        <time>2022-10-02T08:12:05Z</time>
      </trkpt>
      <trkpt lat="47.36088" lon="7.90796">
        <ele>399.5</ele>
        <time>2022-10-02T08:12:06Z</time>
      </trkpt>
      <trkpt lat="47.36092" lon="7.90797">
        <ele>399.5</ele>
        <time>2022-10-02T08:12:07Z</time>
      </trkpt>
      <trkpt lat="47.36095" lon="7.908">
        <ele>399.5</ele>
        <time>2022-10-02T08:12:08Z</time>
      </trkpt>
      <trkpt lat="47.36099" lon="7.90802">
        <ele>399.5</ele>
        <time>2022-10-02T08:12:09Z</time>
      </trkpt>
      <trkpt lat="47.36103" lon="7.90806">
        <ele>399.5</ele>
        <time>2022-10-02T08:12:10Z</time>
      </trkpt>
      <trkpt lat="47.36107" lon="7.90809">
        <ele>399.5</ele>
        <time>2022-10-02T08:12:11Z</time>
      </trkpt>
      <trkpt lat="47.36111" lon="7.90812">
        <ele>399.5</ele>
        <time>2022-10-02T08:12:12Z</time>
      </trkpt>
      <trkpt lat="47.36115" lon="7.90814">
        <ele>399.6</ele>
        <time>2022-10-02T08:12:13Z</time>
      </trkpt>
      <trkpt lat="47.3612" lon="7.90816">
        <ele>399.6</ele>
        <time>2022-10-02T08:12:14Z</time>
      </trkpt>
      <trkpt lat="47.36124" lon="7.90821">
        <ele>399.6</ele>
        <time>2022-10-02T08:12:15Z</time>
      </trkpt>
      <trkpt lat="47.36128" lon="7.90824">
        <ele>399.6</ele>
        <time>2022-10-02T08:12:16Z</time>
      </trkpt>
      <trkpt lat="47.36131" lon="7.90826">
        <ele>399.6</ele>
        <time>2022-10-02T08:12:17Z</time>
      </trkpt>
      <trkpt lat="47.36135" lon="7.90829">
        <ele>399.6</ele>
        <time>2022-10-02T08:12:18Z</time>
      </trkpt>
      <trkpt lat="47.36139" lon="7.90831">
        <ele>399.6</ele>
        <time>2022-10-02T08:12:19Z</time>
      </trkpt>
      <trkpt lat="47.36144" lon="7.90836">
        <ele>399.6</ele>
        <time>2022-10-02T08:12:20Z</time>
      </trkpt>
      <trkpt lat="47.36148" lon="7.90839">
        <ele>399.5</ele>
        <time>2022-10-02T08:12:21Z</time>
      </trkpt>
      <trkpt lat="47.36152" lon="7.90842">
        <ele>399.5</ele>
        <time>2022-10-02T08:12:22Z</time>
      </trkpt>
      <trkpt lat="47.36156" lon="7.90845">
        <ele>399.5</ele>
        <time>2022-10-02T08:12:23Z</time>
      </trkpt>
      <trkpt lat="47.36161" lon="7.90848">
        <ele>399.5</ele>
        <time>2022-10-02T08:12:24Z</time>
      </trkpt>
      <trkpt lat="47.36163" lon="7.90851">
        <ele>399.5</ele>
        <time>2022-10-02T08:12:25Z</time>
      </trkpt>
      <trkpt lat="47.36166" lon="7.90855">
        <ele>399.5</ele>
        <time>2022-10-02T08:12:26Z</time>
      </trkpt>
      <trkpt lat="47.36171" lon="7.90858">
        <ele>399.5</ele>
        <time>2022-10-02T08:12:27Z</time>
      </trkpt>
      <trkpt lat="47.36175" lon="7.90861">
        <ele>399.5</ele>
        <time>2022-10-02T08:12:28Z</time>
      </trkpt>
      <trkpt lat="47.3618" lon="7.90866">
        <ele>399.5</ele>
        <time>2022-10-02T08:12:29Z</time>
      </trkpt>
      <trkpt lat="47.36184" lon="7.90869">
        <ele>399.5</ele>
        <time>2022-10-02T08:12:30Z</time>
      </trkpt>
      <trkpt lat="47.3619" lon="7.90874">
        <ele>399.4</ele>
        <time>2022-10-02T08:12:31Z</time>
      </trkpt>
      <trkpt lat="47.36194" lon="7.90879">
        <ele>399.4</ele>
        <time>2022-10-02T08:12:32Z</time>
      </trkpt>
      <trkpt lat="47.36199" lon="7.90884">
        <ele>399.4</ele>
        <time>2022-10-02T08:12:33Z</time>
      </trkpt>
      <trkpt lat="47.36204" lon="7.90888">
        <ele>399.4</ele>
        <time>2022-10-02T08:12:34Z</time>
      </trkpt>
      <trkpt lat="47.36208" lon="7.90892">
        <ele>399.3</ele>
        <time>2022-10-02T08:12:35Z</time>
      </trkpt>
      <trkpt lat="47.36213" lon="7.90897">
        <ele>399.3</ele>
        <time>2022-10-02T08:12:36Z</time>
      </trkpt>
      <trkpt lat="47.36218" lon="7.90901">
        <ele>399.3</ele>
        <time>2022-10-02T08:12:37Z</time>
      </trkpt>
      <trkpt lat="47.36222" lon="7.90905">
        <ele>399.3</ele>
        <time>2022-10-02T08:12:38Z</time>
      </trkpt>
      <trkpt lat="47.36226" lon="7.90909">
        <ele>399.3</ele>
        <time>2022-10-02T08:12:39Z</time>
      </trkpt>
      <trkpt lat="47.3623" lon="7.90913">
        <ele>399.3</ele>
        <time>2022-10-02T08:12:40Z</time>
      </trkpt>
      <trkpt lat="47.36234" lon="7.90917">
        <ele>399.3</ele>
        <time>2022-10-02T08:12:41Z</time>
      </trkpt>
      <trkpt lat="47.36238" lon="7.90922">
        <ele>399.3</ele>
        <time>2022-10-02T08:12:42Z</time>
      </trkpt>
      <trkpt lat="47.36243" lon="7.90926">
        <ele>399.2</ele>
        <time>2022-10-02T08:12:43Z</time>
      </trkpt>
      <trkpt lat="47.36247" lon="7.9093">
        <ele>399.2</ele>
        <time>2022-10-02T08:12:44Z</time>
      </trkpt>
      <trkpt lat="47.36251" lon="7.90935">
        <ele>399.2</ele>
        <time>2022-10-02T08:12:45Z</time>
      </trkpt>
      <trkpt lat="47.36257" lon="7.90939">
        <ele>399.2</ele>
        <time>2022-10-02T08:12:46Z</time>
      </trkpt>
      <trkpt lat="47.36261" lon="7.90943">
        <ele>399.2</ele>
        <time>2022-10-02T08:12:47Z</time>
      </trkpt>
      <trkpt lat="47.36267" lon="7.90947">
        <ele>399.1</ele>
        <time>2022-10-02T08:12:48Z</time>
      </trkpt>
      <trkpt lat="47.36272" lon="7.90952">
        <ele>399.1</ele>
        <time>2022-10-02T08:12:49Z</time>
      </trkpt>
      <trkpt lat="47.36277" lon="7.90957">
        <ele>399.1</ele>
        <time>2022-10-02T08:12:50Z</time>
      </trkpt>
      <trkpt lat="47.36281" lon="7.90961">
        <ele>399.1</ele>
        <time>2022-10-02T08:12:51Z</time>
      </trkpt>
      <trkpt lat="47.36286" lon="7.90965">
        <ele>399.2</ele>
        <time>2022-10-02T08:12:52Z</time>
      </trkpt>
      <trkpt lat="47.3629" lon="7.90969">
        <ele>399.2</ele>
        <time>2022-10-02T08:12:53Z</time>
      </trkpt>
      <trkpt lat="47.36295" lon="7.90974">
        <ele>399.2</ele>
        <time>2022-10-02T08:12:54Z</time>
      </trkpt>
      <trkpt lat="47.36299" lon="7.90979">
        <ele>399.2</ele>
        <time>2022-10-02T08:12:55Z</time>
      </trkpt>
      <trkpt lat="47.36304" lon="7.90983">
        <ele>399.1</ele>
        <time>2022-10-02T08:12:56Z</time>
      </trkpt>
      <trkpt lat="47.36308" lon="7.90988">
        <ele>399.1</ele>
        <time>2022-10-02T08:12:57Z</time>
      </trkpt>
      <trkpt lat="47.36312" lon="7.90991">
        <ele>399.1</ele>
        <time>2022-10-02T08:12:58Z</time>
      </trkpt>
      <trkpt lat="47.36318" lon="7.90997">
        <ele>399.1</ele>
        <time>2022-10-02T08:12:59Z</time>
      </trkpt>
      <trkpt lat="47.36324" lon="7.91002">
        <ele>399</ele>
        <time>2022-10-02T08:13:00Z</time>
      </trkpt>
      <trkpt lat="47.3633" lon="7.91008">
        <ele>399</ele>
        <time>2022-10-02T08:13:01Z</time>
      </trkpt>
      <trkpt lat="47.36335" lon="7.91013">
        <ele>399</ele>
        <time>2022-10-02T08:13:02Z</time>
      </trkpt>
      <trkpt lat="47.36341" lon="7.91018">
        <ele>399</ele>
        <time>2022-10-02T08:13:03Z</time>
      </trkpt>
      <trkpt lat="47.36346" lon="7.91024">
        <ele>399</ele>
        <time>2022-10-02T08:13:04Z</time>
      </trkpt>
      <trkpt lat="47.36352" lon="7.91029">
        <ele>399</ele>
        <time>2022-10-02T08:13:05Z</time>
      </trkpt>
      <trkpt lat="47.36356" lon="7.91034">
        <ele>399</ele>
        <time>2022-10-02T08:13:06Z</time>
      </trkpt>
      <trkpt lat="47.36361" lon="7.91037">
        <ele>399</ele>
        <time>2022-10-02T08:13:07Z</time>
      </trkpt>
      <trkpt lat="47.36367" lon="7.91043">
        <ele>399</ele>
        <time>2022-10-02T08:13:08Z</time>
      </trkpt>
      <trkpt lat="47.36372" lon="7.91049">
        <ele>399</ele>
        <time>2022-10-02T08:13:09Z</time>
      </trkpt>
      <trkpt lat="47.36379" lon="7.91053">
        <ele>399</ele>
        <time>2022-10-02T08:13:10Z</time>
      </trkpt>
      <trkpt lat="47.36385" lon="7.91059">
        <ele>399</ele>
        <time>2022-10-02T08:13:11Z</time>
      </trkpt>
      <trkpt lat="47.36389" lon="7.91063">
        <ele>399</ele>
        <time>2022-10-02T08:13:12Z</time>
      </trkpt>
      <trkpt lat="47.36393" lon="7.91068">
        <ele>399</ele>
        <time>2022-10-02T08:13:13Z</time>
      </trkpt>
      <trkpt lat="47.36398" lon="7.91072">
        <ele>399</ele>
        <time>2022-10-02T08:13:14Z</time>
      </trkpt>
      <trkpt lat="47.36405" lon="7.91077">
        <ele>399</ele>
        <time>2022-10-02T08:13:15Z</time>
      </trkpt>
      <trkpt lat="47.36411" lon="7.91083">
        <ele>399</ele>
        <time>2022-10-02T08:13:16Z</time>
      </trkpt>
      <trkpt lat="47.36415" lon="7.91088">
        <ele>398.9</ele>
        <time>2022-10-02T08:13:17Z</time>
      </trkpt>
      <trkpt lat="47.36419" lon="7.91094">
        <ele>398.9</ele>
        <time>2022-10-02T08:13:18Z</time>
      </trkpt>
      <trkpt lat="47.36422" lon="7.91099">
        <ele>398.9</ele>
        <time>2022-10-02T08:13:19Z</time>
      </trkpt>
      <trkpt lat="47.36429" lon="7.91104">
        <ele>398.9</ele>
        <time>2022-10-02T08:13:20Z</time>
      </trkpt>
      <trkpt lat="47.36436" lon="7.91109">
        <ele>398.8</ele>
        <time>2022-10-02T08:13:21Z</time>
      </trkpt>
      <trkpt lat="47.36442" lon="7.91114">
        <ele>398.8</ele>
        <time>2022-10-02T08:13:22Z</time>
      </trkpt>
      <trkpt lat="47.36447" lon="7.91118">
        <ele>398.8</ele>
        <time>2022-10-02T08:13:23Z</time>
      </trkpt>
      <trkpt lat="47.36452" lon="7.91124">
        <ele>398.8</ele>
        <time>2022-10-02T08:13:24Z</time>
      </trkpt>
      <trkpt lat="47.36458" lon="7.91129">
        <ele>398.8</ele>
        <time>2022-10-02T08:13:25Z</time>
      </trkpt>
      <trkpt lat="47.36463" lon="7.91134">
        <ele>398.8</ele>
        <time>2022-10-02T08:13:26Z</time>
      </trkpt>
      <trkpt lat="47.36469" lon="7.91139">
        <ele>398.7</ele>
        <time>2022-10-02T08:13:27Z</time>
      </trkpt>
      <trkpt lat="47.36475" lon="7.91143">
        <ele>398.7</ele>
        <time>2022-10-02T08:13:28Z</time>
      </trkpt>
      <trkpt lat="47.3648" lon="7.91149">
        <ele>398.7</ele>
        <time>2022-10-02T08:13:29Z</time>
      </trkpt>
      <trkpt lat="47.36485" lon="7.91154">
        <ele>398.6</ele>
        <time>2022-10-02T08:13:30Z</time>
      </trkpt>
      <trkpt lat="47.36491" lon="7.91159">
        <ele>398.5</ele>
        <time>2022-10-02T08:13:31Z</time>
      </trkpt>
      <trkpt lat="47.36496" lon="7.91164">
        <ele>398.5</ele>
        <time>2022-10-02T08:13:32Z</time>
      </trkpt>
      <trkpt lat="47.365" lon="7.91169">
        <ele>398.5</ele>
        <time>2022-10-02T08:13:33Z</time>
      </trkpt>
      <trkpt lat="47.36505" lon="7.91174">
        <ele>398.5</ele>
        <time>2022-10-02T08:13:34Z</time>
      </trkpt>
      <trkpt lat="47.3651" lon="7.91181">
        <ele>398.5</ele>
        <time>2022-10-02T08:13:35Z</time>
      </trkpt>
      <trkpt lat="47.36516" lon="7.91186">
        <ele>398.5</ele>
        <time>2022-10-02T08:13:36Z</time>
      </trkpt>
      <trkpt lat="47.36521" lon="7.9119">
        <ele>398.5</ele>
        <time>2022-10-02T08:13:37Z</time>
      </trkpt>
      <trkpt lat="47.36526" lon="7.91196">
        <ele>398.5</ele>
        <time>2022-10-02T08:13:38Z</time>
      </trkpt>
      <trkpt lat="47.3653" lon="7.91201">
        <ele>398.5</ele>
        <time>2022-10-02T08:13:39Z</time>
      </trkpt>
      <trkpt lat="47.36536" lon="7.91206">
        <ele>398.4</ele>
        <time>2022-10-02T08:13:40Z</time>
      </trkpt>
      <trkpt lat="47.36543" lon="7.91212">
        <ele>398.4</ele>
        <time>2022-10-02T08:13:41Z</time>
      </trkpt>
      <trkpt lat="47.36547" lon="7.91218">
        <ele>398.4</ele>
        <time>2022-10-02T08:13:42Z</time>
      </trkpt>
      <trkpt lat="47.36553" lon="7.91223">
        <ele>398.4</ele>
        <time>2022-10-02T08:13:43Z</time>
      </trkpt>
      <trkpt lat="47.36558" lon="7.91228">
        <ele>398.4</ele>
        <time>2022-10-02T08:13:44Z</time>
      </trkpt>
      <trkpt lat="47.36562" lon="7.91234">
        <ele>398.3</ele>
        <time>2022-10-02T08:13:45Z</time>
      </trkpt>
      <trkpt lat="47.36566" lon="7.91238">
        <ele>398.3</ele>
        <time>2022-10-02T08:13:46Z</time>
      </trkpt>
      <trkpt lat="47.36572" lon="7.91244">
        <ele>398.3</ele>
        <time>2022-10-02T08:13:47Z</time>
      </trkpt>
      <trkpt lat="47.36577" lon="7.91249">
        <ele>398.2</ele>
        <time>2022-10-02T08:13:48Z</time>
      </trkpt>
      <trkpt lat="47.36581" lon="7.91253">
        <ele>398.2</ele>
        <time>2022-10-02T08:13:49Z</time>
      </trkpt>
      <trkpt lat="47.36587" lon="7.91259">
        <ele>398.2</ele>
        <time>2022-10-02T08:13:50Z</time>
      </trkpt>
      <trkpt lat="47.36592" lon="7.91264">
        <ele>398.1</ele>
        <time>2022-10-02T08:13:51Z</time>
      </trkpt>
      <trkpt lat="47.36596" lon="7.91269">
        <ele>398.1</ele>
        <time>2022-10-02T08:13:52Z</time>
      </trkpt>
      <trkpt lat="47.36601" lon="7.91274">
        <ele>398.1</ele>
        <time>2022-10-02T08:13:53Z</time>
      </trkpt>
      <trkpt lat="47.36606" lon="7.9128">
        <ele>398</ele>
        <time>2022-10-02T08:13:54Z</time>
      </trkpt>
      <trkpt lat="47.3661" lon="7.91286">
        <ele>398</ele>
        <time>2022-10-02T08:13:55Z</time>
      </trkpt>
      <trkpt lat="47.36614" lon="7.9129">
        <ele>398</ele>
        <time>2022-10-02T08:13:56Z</time>
      </trkpt>
      <trkpt lat="47.36619" lon="7.91295">
        <ele>398</ele>
        <time>2022-10-02T08:13:57Z</time>
      </trkpt>
      <trkpt lat="47.36623" lon="7.91301">
        <ele>398</ele>
        <time>2022-10-02T08:13:58Z</time>
      </trkpt>
      <trkpt lat="47.36628" lon="7.91306">
        <ele>398</ele>
        <time>2022-10-02T08:13:59Z</time>
      </trkpt>
      <trkpt lat="47.36633" lon="7.9131">
        <ele>398</ele>
        <time>2022-10-02T08:14:00Z</time>
      </trkpt>
      <trkpt lat="47.36636" lon="7.91315">
        <ele>398</ele>
        <time>2022-10-02T08:14:01Z</time>
      </trkpt>
      <trkpt lat="47.36641" lon="7.9132">
        <ele>398</ele>
        <time>2022-10-02T08:14:03Z</time>
      </trkpt>
      <trkpt lat="47.36645" lon="7.91325">
        <ele>397.9</ele>
        <time>2022-10-02T08:14:04Z</time>
      </trkpt>
      <trkpt lat="47.36649" lon="7.9133">
        <ele>397.9</ele>
        <time>2022-10-02T08:14:05Z</time>
      </trkpt>
      <trkpt lat="47.36653" lon="7.91335">
        <ele>397.9</ele>
        <time>2022-10-02T08:14:06Z</time>
      </trkpt>
      <trkpt lat="47.36657" lon="7.9134">
        <ele>397.9</ele>
        <time>2022-10-02T08:14:07Z</time>
      </trkpt>
      <trkpt lat="47.36665" lon="7.91349">
        <ele>397.8</ele>
        <time>2022-10-02T08:14:08Z</time>
      </trkpt>
      <trkpt lat="47.36669" lon="7.91353">
        <ele>397.8</ele>
        <time>2022-10-02T08:14:09Z</time>
      </trkpt>
      <trkpt lat="47.36673" lon="7.91356">
        <ele>397.8</ele>
        <time>2022-10-02T08:14:10Z</time>
      </trkpt>
      <trkpt lat="47.36679" lon="7.9136">
        <ele>397.8</ele>
        <time>2022-10-02T08:14:11Z</time>
      </trkpt>
      <trkpt lat="47.36683" lon="7.91363">
        <ele>397.9</ele>
        <time>2022-10-02T08:14:13Z</time>
      </trkpt>
      <trkpt lat="47.36693" lon="7.91366">
        <ele>397.9</ele>
        <time>2022-10-02T08:14:14Z</time>
      </trkpt>
      <trkpt lat="47.36697" lon="7.91366">
        <ele>397.9</ele>
        <time>2022-10-02T08:14:15Z</time>
      </trkpt>
      <trkpt lat="47.36701" lon="7.91366">
        <ele>397.9</ele>
        <time>2022-10-02T08:14:16Z</time>
      </trkpt>
      <trkpt lat="47.36705" lon="7.91364">
        <ele>397.9</ele>
        <time>2022-10-02T08:14:17Z</time>
      </trkpt>
      <trkpt lat="47.36709" lon="7.91362">
        <ele>397.9</ele>
        <time>2022-10-02T08:14:18Z</time>
      </trkpt>
      <trkpt lat="47.36714" lon="7.91359">
        <ele>397.8</ele>
        <time>2022-10-02T08:14:19Z</time>
      </trkpt>
      <trkpt lat="47.36721" lon="7.91355">
        <ele>397.7</ele>
        <time>2022-10-02T08:14:20Z</time>
      </trkpt>
      <trkpt lat="47.36725" lon="7.91352">
        <ele>397.7</ele>
        <time>2022-10-02T08:14:21Z</time>
      </trkpt>
      <trkpt lat="47.3673" lon="7.91346">
        <ele>397.6</ele>
        <time>2022-10-02T08:14:22Z</time>
      </trkpt>
      <trkpt lat="47.36734" lon="7.91342">
        <ele>397.5</ele>
        <time>2022-10-02T08:14:23Z</time>
      </trkpt>
      <trkpt lat="47.36738" lon="7.91337">
        <ele>397.4</ele>
        <time>2022-10-02T08:14:24Z</time>
      </trkpt>
      <trkpt lat="47.36741" lon="7.9133">
        <ele>397.3</ele>
        <time>2022-10-02T08:14:25Z</time>
      </trkpt>
      <trkpt lat="47.36745" lon="7.91326">
        <ele>397.2</ele>
        <time>2022-10-02T08:14:26Z</time>
      </trkpt>
      <trkpt lat="47.3675" lon="7.9132">
        <ele>397.1</ele>
        <time>2022-10-02T08:14:27Z</time>
      </trkpt>
      <trkpt lat="47.36755" lon="7.91314">
        <ele>397</ele>
        <time>2022-10-02T08:14:28Z</time>
      </trkpt>
      <trkpt lat="47.36759" lon="7.91308">
        <ele>396.9</ele>
        <time>2022-10-02T08:14:29Z</time>
      </trkpt>
      <trkpt lat="47.36764" lon="7.91302">
        <ele>396.8</ele>
        <time>2022-10-02T08:14:30Z</time>
      </trkpt>
      <trkpt lat="47.36768" lon="7.91296">
        <ele>396.8</ele>
        <time>2022-10-02T08:14:31Z</time>
      </trkpt>
      <trkpt lat="47.36771" lon="7.91291">
        <ele>396.8</ele>
        <time>2022-10-02T08:14:32Z</time>
      </trkpt>
      <trkpt lat="47.36774" lon="7.91286">
        <ele>396.9</ele>
        <time>2022-10-02T08:14:33Z</time>
      </trkpt>
      <trkpt lat="47.3678" lon="7.91279">
        <ele>397</ele>
        <time>2022-10-02T08:14:34Z</time>
      </trkpt>
      <trkpt lat="47.36784" lon="7.91274">
        <ele>397.1</ele>
        <time>2022-10-02T08:14:35Z</time>
      </trkpt>
      <trkpt lat="47.36787" lon="7.91269">
        <ele>397.2</ele>
        <time>2022-10-02T08:14:36Z</time>
      </trkpt>
      <trkpt lat="47.3679" lon="7.91264">
        <ele>397.3</ele>
        <time>2022-10-02T08:14:37Z</time>
      </trkpt>
      <trkpt lat="47.36793" lon="7.91259">
        <ele>397.5</ele>
        <time>2022-10-02T08:14:38Z</time>
      </trkpt>
      <trkpt lat="47.36796" lon="7.91256">
        <ele>397.6</ele>
        <time>2022-10-02T08:14:39Z</time>
      </trkpt>
      <trkpt lat="47.36799" lon="7.91251">
        <ele>397.8</ele>
        <time>2022-10-02T08:14:40Z</time>
      </trkpt>
      <trkpt lat="47.36801" lon="7.91248">
        <ele>397.9</ele>
        <time>2022-10-02T08:14:41Z</time>
      </trkpt>
      <trkpt lat="47.36804" lon="7.91245">
        <ele>398.1</ele>
        <time>2022-10-02T08:14:42Z</time>
      </trkpt>
      <trkpt lat="47.36807" lon="7.91241">
        <ele>398.2</ele>
        <time>2022-10-02T08:14:43Z</time>
      </trkpt>
      <trkpt lat="47.3681" lon="7.91239">
        <ele>398.4</ele>
        <time>2022-10-02T08:14:44Z</time>
      </trkpt>
      <trkpt lat="47.36813" lon="7.91237">
        <ele>398.5</ele>
        <time>2022-10-02T08:14:45Z</time>
      </trkpt>
      <trkpt lat="47.36816" lon="7.91236">
        <ele>399.1</ele>
        <time>2022-10-02T08:14:46Z</time>
      </trkpt>
      <trkpt lat="47.36818" lon="7.91235">
        <ele>399.1</ele>
        <time>2022-10-02T08:14:47Z</time>
      </trkpt>
      <trkpt lat="47.36821" lon="7.91239">
        <ele>399.1</ele>
        <time>2022-10-02T08:14:48Z</time>
      </trkpt>
      <trkpt lat="47.36822" lon="7.9124">
        <ele>399.1</ele>
        <time>2022-10-02T08:14:49Z</time>
      </trkpt>
      <trkpt lat="47.36824" lon="7.91244">
        <ele>399.1</ele>
        <time>2022-10-02T08:14:50Z</time>
      </trkpt>
      <trkpt lat="47.36827" lon="7.91247">
        <ele>399.1</ele>
        <time>2022-10-02T08:14:51Z</time>
      </trkpt>
      <trkpt lat="47.3683" lon="7.91252">
        <ele>399.1</ele>
        <time>2022-10-02T08:14:52Z</time>
      </trkpt>
      <trkpt lat="47.36833" lon="7.91256">
        <ele>399.1</ele>
        <time>2022-10-02T08:14:53Z</time>
      </trkpt>
      <trkpt lat="47.36835" lon="7.91261">
        <ele>399.1</ele>
        <time>2022-10-02T08:14:54Z</time>
      </trkpt>
      <trkpt lat="47.36836" lon="7.91267">
        <ele>399</ele>
        <time>2022-10-02T08:14:55Z</time>
      </trkpt>
      <trkpt lat="47.36838" lon="7.91273">
        <ele>399</ele>
        <time>2022-10-02T08:14:56Z</time>
      </trkpt>
      <trkpt lat="47.36841" lon="7.91278">
        <ele>399</ele>
        <time>2022-10-02T08:14:57Z</time>
      </trkpt>
      <trkpt lat="47.36844" lon="7.91284">
        <ele>399</ele>
        <time>2022-10-02T08:14:58Z</time>
      </trkpt>
      <trkpt lat="47.36846" lon="7.91289">
        <ele>398.9</ele>
        <time>2022-10-02T08:14:59Z</time>
      </trkpt>
      <trkpt lat="47.36847" lon="7.91296">
        <ele>398.9</ele>
        <time>2022-10-02T08:15:00Z</time>
      </trkpt>
      <trkpt lat="47.36848" lon="7.91303">
        <ele>398.9</ele>
        <time>2022-10-02T08:15:01Z</time>
      </trkpt>
      <trkpt lat="47.36851" lon="7.91309">
        <ele>398.9</ele>
        <time>2022-10-02T08:15:02Z</time>
      </trkpt>
      <trkpt lat="47.36853" lon="7.91316">
        <ele>398.9</ele>
        <time>2022-10-02T08:15:03Z</time>
      </trkpt>
      <trkpt lat="47.36855" lon="7.91323">
        <ele>398.8</ele>
        <time>2022-10-02T08:15:04Z</time>
      </trkpt>
      <trkpt lat="47.36856" lon="7.9133">
        <ele>398.8</ele>
        <time>2022-10-02T08:15:05Z</time>
      </trkpt>
      <trkpt lat="47.36858" lon="7.91336">
        <ele>398.8</ele>
        <time>2022-10-02T08:15:06Z</time>
      </trkpt>
      <trkpt lat="47.3686" lon="7.91342">
        <ele>398.8</ele>
        <time>2022-10-02T08:15:07Z</time>
      </trkpt>
      <trkpt lat="47.36862" lon="7.91349">
        <ele>398.8</ele>
        <time>2022-10-02T08:15:08Z</time>
      </trkpt>
      <trkpt lat="47.36864" lon="7.91356">
        <ele>398.8</ele>
        <time>2022-10-02T08:15:09Z</time>
      </trkpt>
      <trkpt lat="47.36866" lon="7.91364">
        <ele>398.8</ele>
        <time>2022-10-02T08:15:10Z</time>
      </trkpt>
      <trkpt lat="47.36868" lon="7.91371">
        <ele>398.8</ele>
        <time>2022-10-02T08:15:11Z</time>
      </trkpt>
      <trkpt lat="47.3687" lon="7.91378">
        <ele>398.8</ele>
        <time>2022-10-02T08:15:12Z</time>
      </trkpt>
      <trkpt lat="47.36872" lon="7.91385">
        <ele>398.8</ele>
        <time>2022-10-02T08:15:13Z</time>
      </trkpt>
      <trkpt lat="47.36875" lon="7.91392">
        <ele>398.8</ele>
        <time>2022-10-02T08:15:14Z</time>
      </trkpt>
      <trkpt lat="47.36877" lon="7.91399">
        <ele>398.8</ele>
        <time>2022-10-02T08:15:15Z</time>
      </trkpt>
      <trkpt lat="47.36878" lon="7.91406">
        <ele>398.7</ele>
        <time>2022-10-02T08:15:16Z</time>
      </trkpt>
      <trkpt lat="47.3688" lon="7.91413">
        <ele>398.7</ele>
        <time>2022-10-02T08:15:17Z</time>
      </trkpt>
      <trkpt lat="47.36883" lon="7.91421">
        <ele>398.7</ele>
        <time>2022-10-02T08:15:18Z</time>
      </trkpt>
      <trkpt lat="47.36885" lon="7.91429">
        <ele>398.6</ele>
        <time>2022-10-02T08:15:19Z</time>
      </trkpt>
      <trkpt lat="47.36886" lon="7.91436">
        <ele>398.6</ele>
        <time>2022-10-02T08:15:20Z</time>
      </trkpt>
      <trkpt lat="47.36888" lon="7.91443">
        <ele>398.6</ele>
        <time>2022-10-02T08:15:21Z</time>
      </trkpt>
      <trkpt lat="47.36889" lon="7.9145">
        <ele>398.6</ele>
        <time>2022-10-02T08:15:22Z</time>
      </trkpt>
      <trkpt lat="47.36891" lon="7.91458">
        <ele>398.5</ele>
        <time>2022-10-02T08:15:23Z</time>
      </trkpt>
      <trkpt lat="47.36893" lon="7.91464">
        <ele>398.5</ele>
        <time>2022-10-02T08:15:24Z</time>
      </trkpt>
      <trkpt lat="47.36895" lon="7.91471">
        <ele>398.5</ele>
        <time>2022-10-02T08:15:25Z</time>
      </trkpt>
      <trkpt lat="47.36896" lon="7.91477">
        <ele>398.4</ele>
        <time>2022-10-02T08:15:26Z</time>
      </trkpt>
      <trkpt lat="47.36898" lon="7.91484">
        <ele>398.4</ele>
        <time>2022-10-02T08:15:27Z</time>
      </trkpt>
      <trkpt lat="47.36899" lon="7.91489">
        <ele>398.3</ele>
        <time>2022-10-02T08:15:28Z</time>
      </trkpt>
      <trkpt lat="47.369" lon="7.91497">
        <ele>398.3</ele>
        <time>2022-10-02T08:15:29Z</time>
      </trkpt>
      <trkpt lat="47.36901" lon="7.91505">
        <ele>398.2</ele>
        <time>2022-10-02T08:15:30Z</time>
      </trkpt>
      <trkpt lat="47.36903" lon="7.91511">
        <ele>398.2</ele>
        <time>2022-10-02T08:15:31Z</time>
      </trkpt>
      <trkpt lat="47.36905" lon="7.91518">
        <ele>398.1</ele>
        <time>2022-10-02T08:15:32Z</time>
      </trkpt>
      <trkpt lat="47.36906" lon="7.91525">
        <ele>398</ele>
        <time>2022-10-02T08:15:33Z</time>
      </trkpt>
      <trkpt lat="47.36907" lon="7.91532">
        <ele>397.9</ele>
        <time>2022-10-02T08:15:34Z</time>
      </trkpt>
      <trkpt lat="47.36909" lon="7.91539">
        <ele>397.9</ele>
        <time>2022-10-02T08:15:35Z</time>
      </trkpt>
      <trkpt lat="47.3691" lon="7.91546">
        <ele>397.8</ele>
        <time>2022-10-02T08:15:36Z</time>
      </trkpt>
      <trkpt lat="47.36912" lon="7.91555">
        <ele>397.7</ele>
        <time>2022-10-02T08:15:37Z</time>
      </trkpt>
      <trkpt lat="47.36913" lon="7.91563">
        <ele>397.7</ele>
        <time>2022-10-02T08:15:38Z</time>
      </trkpt>
      <trkpt lat="47.36914" lon="7.91571">
        <ele>397.5</ele>
        <time>2022-10-02T08:15:39Z</time>
      </trkpt>
      <trkpt lat="47.36915" lon="7.91579">
        <ele>397.4</ele>
        <time>2022-10-02T08:15:40Z</time>
      </trkpt>
      <trkpt lat="47.36916" lon="7.91587">
        <ele>397.2</ele>
        <time>2022-10-02T08:15:41Z</time>
      </trkpt>
      <trkpt lat="47.36918" lon="7.91596">
        <ele>397.1</ele>
        <time>2022-10-02T08:15:42Z</time>
      </trkpt>
      <trkpt lat="47.3692" lon="7.91606">
        <ele>396.9</ele>
        <time>2022-10-02T08:15:43Z</time>
      </trkpt>
      <trkpt lat="47.36921" lon="7.91615">
        <ele>396.7</ele>
        <time>2022-10-02T08:15:44Z</time>
      </trkpt>
      <trkpt lat="47.36922" lon="7.91626">
        <ele>396.6</ele>
        <time>2022-10-02T08:15:45Z</time>
      </trkpt>
      <trkpt lat="47.36924" lon="7.91635">
        <ele>396.5</ele>
        <time>2022-10-02T08:15:46Z</time>
      </trkpt>
      <trkpt lat="47.36926" lon="7.91645">
        <ele>396.4</ele>
        <time>2022-10-02T08:15:47Z</time>
      </trkpt>
      <trkpt lat="47.36928" lon="7.91653">
        <ele>396.4</ele>
        <time>2022-10-02T08:15:48Z</time>
      </trkpt>
      <trkpt lat="47.36931" lon="7.91661">
        <ele>396.5</ele>
        <time>2022-10-02T08:15:49Z</time>
      </trkpt>
      <trkpt lat="47.36932" lon="7.91671">
        <ele>396.5</ele>
        <time>2022-10-02T08:15:50Z</time>
      </trkpt>
      <trkpt lat="47.36934" lon="7.91684">
        <ele>396.7</ele>
        <time>2022-10-02T08:15:51Z</time>
      </trkpt>
      <trkpt lat="47.36935" lon="7.91694">
        <ele>396.8</ele>
        <time>2022-10-02T08:15:52Z</time>
      </trkpt>
      <trkpt lat="47.36937" lon="7.91703">
        <ele>397</ele>
        <time>2022-10-02T08:15:53Z</time>
      </trkpt>
      <trkpt lat="47.36938" lon="7.91712">
        <ele>397.2</ele>
        <time>2022-10-02T08:15:54Z</time>
      </trkpt>
      <trkpt lat="47.3694" lon="7.9172">
        <ele>397.3</ele>
        <time>2022-10-02T08:15:55Z</time>
      </trkpt>
      <trkpt lat="47.36941" lon="7.91728">
        <ele>397.5</ele>
        <time>2022-10-02T08:15:56Z</time>
      </trkpt>
      <trkpt lat="47.36943" lon="7.91734">
        <ele>397.7</ele>
        <time>2022-10-02T08:15:57Z</time>
      </trkpt>
      <trkpt lat="47.36944" lon="7.9174">
        <ele>397.8</ele>
        <time>2022-10-02T08:15:58Z</time>
      </trkpt>
      <trkpt lat="47.36946" lon="7.91748">
        <ele>398</ele>
        <time>2022-10-02T08:15:59Z</time>
      </trkpt>
      <trkpt lat="47.36948" lon="7.91753">
        <ele>398.2</ele>
        <time>2022-10-02T08:16:00Z</time>
      </trkpt>
      <trkpt lat="47.36949" lon="7.91759">
        <ele>398.3</ele>
        <time>2022-10-02T08:16:01Z</time>
      </trkpt>
      <trkpt lat="47.36952" lon="7.91764">
        <ele>398.5</ele>
        <time>2022-10-02T08:16:02Z</time>
      </trkpt>
      <trkpt lat="47.36953" lon="7.9177">
        <ele>398.7</ele>
        <time>2022-10-02T08:16:03Z</time>
      </trkpt>
      <trkpt lat="47.36955" lon="7.91775">
        <ele>398.9</ele>
        <time>2022-10-02T08:16:04Z</time>
      </trkpt>
      <trkpt lat="47.36957" lon="7.9178">
        <ele>399</ele>
        <time>2022-10-02T08:16:05Z</time>
      </trkpt>
      <trkpt lat="47.36959" lon="7.91784">
        <ele>399.1</ele>
        <time>2022-10-02T08:16:06Z</time>
      </trkpt>
      <trkpt lat="47.3696" lon="7.91788">
        <ele>399.3</ele>
        <time>2022-10-02T08:16:07Z</time>
      </trkpt>
      <trkpt lat="47.36963" lon="7.91793">
        <ele>399.4</ele>
        <time>2022-10-02T08:16:09Z</time>
      </trkpt>
      <trkpt lat="47.36964" lon="7.91797">
        <ele>399.5</ele>
        <time>2022-10-02T08:16:10Z</time>
      </trkpt>
      <trkpt lat="47.36966" lon="7.91801">
        <ele>399.6</ele>
        <time>2022-10-02T08:16:11Z</time>
      </trkpt>
      <trkpt lat="47.36967" lon="7.91805">
        <ele>399.7</ele>
        <time>2022-10-02T08:16:12Z</time>
      </trkpt>
      <trkpt lat="47.36968" lon="7.91809">
        <ele>399.9</ele>
        <time>2022-10-02T08:16:13Z</time>
      </trkpt>
      <trkpt lat="47.3697" lon="7.91814">
        <ele>400</ele>
        <time>2022-10-02T08:16:14Z</time>
      </trkpt>
      <trkpt lat="47.36971" lon="7.91815">
        <ele>400.1</ele>
        <time>2022-10-02T08:16:15Z</time>
      </trkpt>
      <trkpt lat="47.36973" lon="7.91823">
        <ele>400.3</ele>
        <time>2022-10-02T08:16:16Z</time>
      </trkpt>
      <trkpt lat="47.36973" lon="7.91827">
        <ele>400.4</ele>
        <time>2022-10-02T08:16:17Z</time>
      </trkpt>
      <trkpt lat="47.36974" lon="7.91831">
        <ele>400.5</ele>
        <time>2022-10-02T08:16:18Z</time>
      </trkpt>
      <trkpt lat="47.36975" lon="7.91835">
        <ele>400.7</ele>
        <time>2022-10-02T08:16:19Z</time>
      </trkpt>
      <trkpt lat="47.36977" lon="7.91839">
        <ele>400.8</ele>
        <time>2022-10-02T08:16:21Z</time>
      </trkpt>
      <trkpt lat="47.36978" lon="7.91847">
        <ele>401</ele>
        <time>2022-10-02T08:16:22Z</time>
      </trkpt>
      <trkpt lat="47.36979" lon="7.91851">
        <ele>401.2</ele>
        <time>2022-10-02T08:16:23Z</time>
      </trkpt>
      <trkpt lat="47.36979" lon="7.91854">
        <ele>401.3</ele>
        <time>2022-10-02T08:16:24Z</time>
      </trkpt>
      <trkpt lat="47.36981" lon="7.9186">
        <ele>401.4</ele>
        <time>2022-10-02T08:16:25Z</time>
      </trkpt>
      <trkpt lat="47.36981" lon="7.91861">
        <ele>401.5</ele>
        <time>2022-10-02T08:16:26Z</time>
      </trkpt>
      <trkpt lat="47.36982" lon="7.91866">
        <ele>401.6</ele>
        <time>2022-10-02T08:16:27Z</time>
      </trkpt>
      <trkpt lat="47.36982" lon="7.91868">
        <ele>401.6</ele>
        <time>2022-10-02T08:16:28Z</time>
      </trkpt>
      <trkpt lat="47.36982" lon="7.91873">
        <ele>401.8</ele>
        <time>2022-10-02T08:16:29Z</time>
      </trkpt>
      <trkpt lat="47.36982" lon="7.91875">
        <ele>401.8</ele>
        <time>2022-10-02T08:16:30Z</time>
      </trkpt>
      <trkpt lat="47.36982" lon="7.91879">
        <ele>401.9</ele>
        <time>2022-10-02T08:16:31Z</time>
      </trkpt>
      <trkpt lat="47.36983" lon="7.9188">
        <ele>401.9</ele>
        <time>2022-10-02T08:16:32Z</time>
      </trkpt>
      <trkpt lat="47.36983" lon="7.91883">
        <ele>402</ele>
        <time>2022-10-02T08:16:33Z</time>
      </trkpt>
      <trkpt lat="47.36983" lon="7.91885">
        <ele>402.1</ele>
        <time>2022-10-02T08:16:34Z</time>
      </trkpt>
      <trkpt lat="47.36983" lon="7.91891">
        <ele>402.2</ele>
        <time>2022-10-02T08:16:35Z</time>
      </trkpt>
      <trkpt lat="47.36983" lon="7.91893">
        <ele>402.2</ele>
        <time>2022-10-02T08:16:36Z</time>
      </trkpt>
      <trkpt lat="47.36982" lon="7.91898">
        <ele>402.3</ele>
        <time>2022-10-02T08:16:37Z</time>
      </trkpt>
      <trkpt lat="47.36982" lon="7.919">
        <ele>402.3</ele>
        <time>2022-10-02T08:16:38Z</time>
      </trkpt>
      <trkpt lat="47.36982" lon="7.91905">
        <ele>402.4</ele>
        <time>2022-10-02T08:16:39Z</time>
      </trkpt>
      <trkpt lat="47.36982" lon="7.91906">
        <ele>402.4</ele>
        <time>2022-10-02T08:16:40Z</time>
      </trkpt>
      <trkpt lat="47.36982" lon="7.91912">
        <ele>402.5</ele>
        <time>2022-10-02T08:16:41Z</time>
      </trkpt>
      <trkpt lat="47.36982" lon="7.91914">
        <ele>402.5</ele>
        <time>2022-10-02T08:16:42Z</time>
      </trkpt>
      <trkpt lat="47.36981" lon="7.9192">
        <ele>402.6</ele>
        <time>2022-10-02T08:16:43Z</time>
      </trkpt>
      <trkpt lat="47.3698" lon="7.91922">
        <ele>402.6</ele>
        <time>2022-10-02T08:16:44Z</time>
      </trkpt>
      <trkpt lat="47.36979" lon="7.91928">
        <ele>402.6</ele>
        <time>2022-10-02T08:16:45Z</time>
      </trkpt>
      <trkpt lat="47.36979" lon="7.9193">
        <ele>402.6</ele>
        <time>2022-10-02T08:16:46Z</time>
      </trkpt>
      <trkpt lat="47.36978" lon="7.91936">
        <ele>402.7</ele>
        <time>2022-10-02T08:16:47Z</time>
      </trkpt>
      <trkpt lat="47.36977" lon="7.91938">
        <ele>402.7</ele>
        <time>2022-10-02T08:16:48Z</time>
      </trkpt>
      <trkpt lat="47.36976" lon="7.91942">
        <ele>402.7</ele>
        <time>2022-10-02T08:16:49Z</time>
      </trkpt>
      <trkpt lat="47.36975" lon="7.91945">
        <ele>402.7</ele>
        <time>2022-10-02T08:16:50Z</time>
      </trkpt>
      <trkpt lat="47.36973" lon="7.91949">
        <ele>402.6</ele>
        <time>2022-10-02T08:16:51Z</time>
      </trkpt>
      <trkpt lat="47.36971" lon="7.91954">
        <ele>402.6</ele>
        <time>2022-10-02T08:16:52Z</time>
      </trkpt>
      <trkpt lat="47.36969" lon="7.91959">
        <ele>402.6</ele>
        <time>2022-10-02T08:16:53Z</time>
      </trkpt>
      <trkpt lat="47.36966" lon="7.91964">
        <ele>402.5</ele>
        <time>2022-10-02T08:16:54Z</time>
      </trkpt>
      <trkpt lat="47.36963" lon="7.91969">
        <ele>402.4</ele>
        <time>2022-10-02T08:16:55Z</time>
      </trkpt>
      <trkpt lat="47.3696" lon="7.91973">
        <ele>402.3</ele>
        <time>2022-10-02T08:16:56Z</time>
      </trkpt>
      <trkpt lat="47.36957" lon="7.91979">
        <ele>402.2</ele>
        <time>2022-10-02T08:16:57Z</time>
      </trkpt>
      <trkpt lat="47.36953" lon="7.91983">
        <ele>402.1</ele>
        <time>2022-10-02T08:16:58Z</time>
      </trkpt>
      <trkpt lat="47.36949" lon="7.91988">
        <ele>401.9</ele>
        <time>2022-10-02T08:16:59Z</time>
      </trkpt>
      <trkpt lat="47.36945" lon="7.91993">
        <ele>401.8</ele>
        <time>2022-10-02T08:17:00Z</time>
      </trkpt>
      <trkpt lat="47.36941" lon="7.91998">
        <ele>401.7</ele>
        <time>2022-10-02T08:17:01Z</time>
      </trkpt>
      <trkpt lat="47.36937" lon="7.92004">
        <ele>401.5</ele>
        <time>2022-10-02T08:17:02Z</time>
      </trkpt>
      <trkpt lat="47.36931" lon="7.9201">
        <ele>401.4</ele>
        <time>2022-10-02T08:17:03Z</time>
      </trkpt>
      <trkpt lat="47.36925" lon="7.92016">
        <ele>401.3</ele>
        <time>2022-10-02T08:17:04Z</time>
      </trkpt>
      <trkpt lat="47.36921" lon="7.92021">
        <ele>401.3</ele>
        <time>2022-10-02T08:17:05Z</time>
      </trkpt>
      <trkpt lat="47.36915" lon="7.92028">
        <ele>401.2</ele>
        <time>2022-10-02T08:17:06Z</time>
      </trkpt>
      <trkpt lat="47.36911" lon="7.92033">
        <ele>401.2</ele>
        <time>2022-10-02T08:17:07Z</time>
      </trkpt>
      <trkpt lat="47.36906" lon="7.9204">
        <ele>401.2</ele>
        <time>2022-10-02T08:17:08Z</time>
      </trkpt>
      <trkpt lat="47.36899" lon="7.92044">
        <ele>401.2</ele>
        <time>2022-10-02T08:17:09Z</time>
      </trkpt>
      <trkpt lat="47.36895" lon="7.9205">
        <ele>401.2</ele>
        <time>2022-10-02T08:17:10Z</time>
      </trkpt>
      <trkpt lat="47.3689" lon="7.92055">
        <ele>401.2</ele>
        <time>2022-10-02T08:17:11Z</time>
      </trkpt>
      <trkpt lat="47.36887" lon="7.92059">
        <ele>401.2</ele>
        <time>2022-10-02T08:17:12Z</time>
      </trkpt>
      <trkpt lat="47.36884" lon="7.92064">
        <ele>401</ele>
        <time>2022-10-02T08:17:13Z</time>
      </trkpt>
      <trkpt lat="47.36883" lon="7.92065">
        <ele>400.8</ele>
        <time>2022-10-02T08:17:14Z</time>
      </trkpt>
      <trkpt lat="47.36883" lon="7.92064">
        <ele>400.8</ele>
        <time>2022-10-02T08:17:15Z</time>
      </trkpt>
      <trkpt lat="47.36883" lon="7.92064">
        <ele>400.7</ele>
        <time>2022-10-02T08:17:16Z</time>
      </trkpt>
      <trkpt lat="47.36883" lon="7.92064">
        <ele>400.7</ele>
        <time>2022-10-02T08:17:17Z</time>
      </trkpt>
      <trkpt lat="47.36883" lon="7.92064">
        <ele>400.7</ele>
        <time>2022-10-02T08:17:18Z</time>
      </trkpt>
      <trkpt lat="47.36883" lon="7.92064">
        <ele>400.7</ele>
        <time>2022-10-02T08:17:19Z</time>
      </trkpt>
      <trkpt lat="47.36883" lon="7.92064">
        <ele>400.7</ele>
        <time>2022-10-02T08:17:20Z</time>
      </trkpt>
      <trkpt lat="47.36883" lon="7.92064">
        <ele>400.7</ele>
        <time>2022-10-02T08:17:21Z</time>
      </trkpt>
      <trkpt lat="47.36883" lon="7.92063">
        <ele>400.6</ele>
        <time>2022-10-02T08:17:22Z</time>
      </trkpt>
      <trkpt lat="47.36883" lon="7.92063">
        <ele>400.6</ele>
        <time>2022-10-02T08:17:23Z</time>
      </trkpt>
      <trkpt lat="47.36884" lon="7.92062">
        <ele>400.4</ele>
        <time>2022-10-02T08:17:24Z</time>
      </trkpt>
      <trkpt lat="47.36884" lon="7.9206">
        <ele>400.3</ele>
        <time>2022-10-02T08:17:28Z</time>
      </trkpt>
      <trkpt lat="47.36883" lon="7.92061">
        <ele>400.2</ele>
        <time>2022-10-02T08:17:29Z</time>
      </trkpt>
      <trkpt lat="47.36882" lon="7.9206">
        <ele>400.1</ele>
        <time>2022-10-02T08:17:30Z</time>
      </trkpt>
      <trkpt lat="47.36882" lon="7.92061">
        <ele>400.1</ele>
        <time>2022-10-02T08:17:31Z</time>
      </trkpt>
      <trkpt lat="47.36882" lon="7.92061">
        <ele>400</ele>
        <time>2022-10-02T08:17:32Z</time>
      </trkpt>
      <trkpt lat="47.36881" lon="7.9206">
        <ele>400</ele>
        <time>2022-10-02T08:17:33Z</time>
      </trkpt>
      <trkpt lat="47.36881" lon="7.9206">
        <ele>399.9</ele>
        <time>2022-10-02T08:17:34Z</time>
      </trkpt>
      <trkpt lat="47.36881" lon="7.9206">
        <ele>399.8</ele>
        <time>2022-10-02T08:17:35Z</time>
      </trkpt>
      <trkpt lat="47.3688" lon="7.92059">
        <ele>399.7</ele>
        <time>2022-10-02T08:17:36Z</time>
      </trkpt>
      <trkpt lat="47.36879" lon="7.92059">
        <ele>399.6</ele>
        <time>2022-10-02T08:17:37Z</time>
      </trkpt>
      <trkpt lat="47.36878" lon="7.92061">
        <ele>399.3</ele>
        <time>2022-10-02T08:17:38Z</time>
      </trkpt>
      <trkpt lat="47.36877" lon="7.92061">
        <ele>399.2</ele>
        <time>2022-10-02T08:17:39Z</time>
      </trkpt>
      <trkpt lat="47.36876" lon="7.92062">
        <ele>399</ele>
        <time>2022-10-02T08:17:40Z</time>
      </trkpt>
      <trkpt lat="47.36876" lon="7.92061">
        <ele>399</ele>
        <time>2022-10-02T08:17:41Z</time>
      </trkpt>
      <trkpt lat="47.36875" lon="7.92061">
        <ele>398.9</ele>
        <time>2022-10-02T08:17:42Z</time>
      </trkpt>
      <trkpt lat="47.36875" lon="7.92061">
        <ele>398.8</ele>
        <time>2022-10-02T08:17:43Z</time>
      </trkpt>
      <trkpt lat="47.36874" lon="7.9206">
        <ele>398.7</ele>
        <time>2022-10-02T08:17:44Z</time>
      </trkpt>
      <trkpt lat="47.36873" lon="7.9206">
        <ele>398.5</ele>
        <time>2022-10-02T08:17:45Z</time>
      </trkpt>
      <trkpt lat="47.36872" lon="7.9206">
        <ele>398.3</ele>
        <time>2022-10-02T08:17:46Z</time>
      </trkpt>
      <trkpt lat="47.36871" lon="7.9206">
        <ele>398.2</ele>
        <time>2022-10-02T08:17:47Z</time>
      </trkpt>
      <trkpt lat="47.36871" lon="7.9206">
        <ele>398</ele>
        <time>2022-10-02T08:17:48Z</time>
      </trkpt>
      <trkpt lat="47.3687" lon="7.92061">
        <ele>397.8</ele>
        <time>2022-10-02T08:17:49Z</time>
      </trkpt>
      <trkpt lat="47.36869" lon="7.9206">
        <ele>397.6</ele>
        <time>2022-10-02T08:17:50Z</time>
      </trkpt>
      <trkpt lat="47.36867" lon="7.9206">
        <ele>397.3</ele>
        <time>2022-10-02T08:17:51Z</time>
      </trkpt>
      <trkpt lat="47.36866" lon="7.9206">
        <ele>397.2</ele>
        <time>2022-10-02T08:17:52Z</time>
      </trkpt>
      <trkpt lat="47.36865" lon="7.92061">
        <ele>396.9</ele>
        <time>2022-10-02T08:17:53Z</time>
      </trkpt>
      <trkpt lat="47.36864" lon="7.92061">
        <ele>396.7</ele>
        <time>2022-10-02T08:17:54Z</time>
      </trkpt>
      <trkpt lat="47.36863" lon="7.92061">
        <ele>396.6</ele>
        <time>2022-10-02T08:17:55Z</time>
      </trkpt>
      <trkpt lat="47.36862" lon="7.92061">
        <ele>396.4</ele>
        <time>2022-10-02T08:17:56Z</time>
      </trkpt>
      <trkpt lat="47.36861" lon="7.92062">
        <ele>396.2</ele>
        <time>2022-10-02T08:17:57Z</time>
      </trkpt>
      <trkpt lat="47.3686" lon="7.92062">
        <ele>396</ele>
        <time>2022-10-02T08:17:58Z</time>
      </trkpt>
      <trkpt lat="47.36859" lon="7.92062">
        <ele>395.8</ele>
        <time>2022-10-02T08:17:59Z</time>
      </trkpt>
      <trkpt lat="47.36857" lon="7.92062">
        <ele>395.5</ele>
        <time>2022-10-02T08:18:00Z</time>
      </trkpt>
      <trkpt lat="47.36856" lon="7.92063">
        <ele>395.3</ele>
        <time>2022-10-02T08:18:01Z</time>
      </trkpt>
      <trkpt lat="47.36854" lon="7.92063">
        <ele>395.1</ele>
        <time>2022-10-02T08:18:02Z</time>
      </trkpt>
      <trkpt lat="47.36853" lon="7.92064">
        <ele>394.9</ele>
        <time>2022-10-02T08:18:03Z</time>
      </trkpt>
      <trkpt lat="47.36852" lon="7.92066">
        <ele>394.7</ele>
        <time>2022-10-02T08:18:04Z</time>
      </trkpt>
      <trkpt lat="47.36851" lon="7.92067">
        <ele>394.4</ele>
        <time>2022-10-02T08:18:05Z</time>
      </trkpt>
      <trkpt lat="47.36849" lon="7.92068">
        <ele>394.2</ele>
        <time>2022-10-02T08:18:06Z</time>
      </trkpt>
      <trkpt lat="47.36849" lon="7.9207">
        <ele>394</ele>
        <time>2022-10-02T08:18:07Z</time>
      </trkpt>
      <trkpt lat="47.36848" lon="7.92071">
        <ele>393.9</ele>
        <time>2022-10-02T08:18:08Z</time>
      </trkpt>
      <trkpt lat="47.36847" lon="7.92072">
        <ele>393.7</ele>
        <time>2022-10-02T08:18:09Z</time>
      </trkpt>
      <trkpt lat="47.36846" lon="7.92074">
        <ele>393.5</ele>
        <time>2022-10-02T08:18:10Z</time>
      </trkpt>
      <trkpt lat="47.36845" lon="7.92076">
        <ele>393.3</ele>
        <time>2022-10-02T08:18:11Z</time>
      </trkpt>
      <trkpt lat="47.36843" lon="7.9208">
        <ele>393</ele>
        <time>2022-10-02T08:18:13Z</time>
      </trkpt>
      <trkpt lat="47.36842" lon="7.92081">
        <ele>392.8</ele>
        <time>2022-10-02T08:18:14Z</time>
      </trkpt>
      <trkpt lat="47.36842" lon="7.92083">
        <ele>392.7</ele>
        <time>2022-10-02T08:18:15Z</time>
      </trkpt>
      <trkpt lat="47.36841" lon="7.92084">
        <ele>392.6</ele>
        <time>2022-10-02T08:18:16Z</time>
      </trkpt>
      <trkpt lat="47.36841" lon="7.92085">
        <ele>392.5</ele>
        <time>2022-10-02T08:18:17Z</time>
      </trkpt>
      <trkpt lat="47.36841" lon="7.92086">
        <ele>392.5</ele>
        <time>2022-10-02T08:18:18Z</time>
      </trkpt>
      <trkpt lat="47.3684" lon="7.92087">
        <ele>392.4</ele>
        <time>2022-10-02T08:18:19Z</time>
      </trkpt>
      <trkpt lat="47.3684" lon="7.92088">
        <ele>392.3</ele>
        <time>2022-10-02T08:18:20Z</time>
      </trkpt>
      <trkpt lat="47.3684" lon="7.92089">
        <ele>392.3</ele>
        <time>2022-10-02T08:18:21Z</time>
      </trkpt>
      <trkpt lat="47.36839" lon="7.92091">
        <ele>392.2</ele>
        <time>2022-10-02T08:18:22Z</time>
      </trkpt>
      <trkpt lat="47.36838" lon="7.92093">
        <ele>392.2</ele>
        <time>2022-10-02T08:18:23Z</time>
      </trkpt>
      <trkpt lat="47.36838" lon="7.92093">
        <ele>392.2</ele>
        <time>2022-10-02T08:18:25Z</time>
      </trkpt>
      <trkpt lat="47.36836" lon="7.92094">
        <ele>392.1</ele>
        <time>2022-10-02T08:18:26Z</time>
      </trkpt>
      <trkpt lat="47.36836" lon="7.92094">
        <ele>392.1</ele>
        <time>2022-10-02T08:18:27Z</time>
      </trkpt>
      <trkpt lat="47.36833" lon="7.92095">
        <ele>392</ele>
        <time>2022-10-02T08:18:28Z</time>
      </trkpt>
      <trkpt lat="47.36831" lon="7.92097">
        <ele>391.9</ele>
        <time>2022-10-02T08:18:29Z</time>
      </trkpt>
      <trkpt lat="47.36829" lon="7.92098">
        <ele>391.8</ele>
        <time>2022-10-02T08:18:30Z</time>
      </trkpt>
      <trkpt lat="47.36827" lon="7.92099">
        <ele>391.8</ele>
        <time>2022-10-02T08:18:31Z</time>
      </trkpt>
      <trkpt lat="47.36825" lon="7.92101">
        <ele>391.7</ele>
        <time>2022-10-02T08:18:32Z</time>
      </trkpt>
      <trkpt lat="47.36823" lon="7.92102">
        <ele>391.7</ele>
        <time>2022-10-02T08:18:33Z</time>
      </trkpt>
      <trkpt lat="47.36821" lon="7.92104">
        <ele>391.6</ele>
        <time>2022-10-02T08:18:34Z</time>
      </trkpt>
      <trkpt lat="47.36819" lon="7.92105">
        <ele>391.6</ele>
        <time>2022-10-02T08:19:03Z</time>
      </trkpt>
      <trkpt lat="47.36817" lon="7.92107">
        <ele>391.5</ele>
        <time>2022-10-02T08:19:04Z</time>
      </trkpt>
      <trkpt lat="47.36814" lon="7.92107">
        <ele>391.5</ele>
        <time>2022-10-02T08:19:05Z</time>
      </trkpt>
      <trkpt lat="47.36813" lon="7.92107">
        <ele>391.4</ele>
        <time>2022-10-02T08:19:06Z</time>
      </trkpt>
      <trkpt lat="47.3681" lon="7.9211">
        <ele>391.4</ele>
        <time>2022-10-02T08:19:07Z</time>
      </trkpt>
      <trkpt lat="47.36808" lon="7.92112">
        <ele>391.3</ele>
        <time>2022-10-02T08:19:08Z</time>
      </trkpt>
      <trkpt lat="47.36806" lon="7.92113">
        <ele>391.3</ele>
        <time>2022-10-02T08:19:09Z</time>
      </trkpt>
      <trkpt lat="47.36804" lon="7.92116">
        <ele>391.3</ele>
        <time>2022-10-02T08:19:10Z</time>
      </trkpt>
      <trkpt lat="47.368" lon="7.92119">
        <ele>391.2</ele>
        <time>2022-10-02T08:19:11Z</time>
      </trkpt>
      <trkpt lat="47.36799" lon="7.9212">
        <ele>391.2</ele>
        <time>2022-10-02T08:19:12Z</time>
      </trkpt>
      <trkpt lat="47.36797" lon="7.92123">
        <ele>391.2</ele>
        <time>2022-10-02T08:19:13Z</time>
      </trkpt>
      <trkpt lat="47.36794" lon="7.92126">
        <ele>391.2</ele>
        <time>2022-10-02T08:19:14Z</time>
      </trkpt>
      <trkpt lat="47.36791" lon="7.92129">
        <ele>391.1</ele>
        <time>2022-10-02T08:19:15Z</time>
      </trkpt>
      <trkpt lat="47.36787" lon="7.92134">
        <ele>391.1</ele>
        <time>2022-10-02T08:19:16Z</time>
      </trkpt>
      <trkpt lat="47.36785" lon="7.92137">
        <ele>391.1</ele>
        <time>2022-10-02T08:19:17Z</time>
      </trkpt>
      <trkpt lat="47.36782" lon="7.9214">
        <ele>391</ele>
        <time>2022-10-02T08:19:18Z</time>
      </trkpt>
      <trkpt lat="47.36779" lon="7.92144">
        <ele>391</ele>
        <time>2022-10-02T08:19:19Z</time>
      </trkpt>
      <trkpt lat="47.36776" lon="7.92148">
        <ele>391</ele>
        <time>2022-10-02T08:19:20Z</time>
      </trkpt>
      <trkpt lat="47.36773" lon="7.92151">
        <ele>391</ele>
        <time>2022-10-02T08:19:21Z</time>
      </trkpt>
      <trkpt lat="47.3677" lon="7.92155">
        <ele>390.9</ele>
        <time>2022-10-02T08:19:22Z</time>
      </trkpt>
      <trkpt lat="47.36767" lon="7.92159">
        <ele>390.9</ele>
        <time>2022-10-02T08:19:23Z</time>
      </trkpt>
      <trkpt lat="47.36763" lon="7.92162">
        <ele>390.9</ele>
        <time>2022-10-02T08:19:24Z</time>
      </trkpt>
      <trkpt lat="47.36759" lon="7.92165">
        <ele>390.8</ele>
        <time>2022-10-02T08:19:25Z</time>
      </trkpt>
      <trkpt lat="47.36755" lon="7.92169">
        <ele>390.8</ele>
        <time>2022-10-02T08:19:26Z</time>
      </trkpt>
      <trkpt lat="47.36751" lon="7.92172">
        <ele>390.8</ele>
        <time>2022-10-02T08:19:27Z</time>
      </trkpt>
      <trkpt lat="47.36748" lon="7.92176">
        <ele>390.8</ele>
        <time>2022-10-02T08:19:28Z</time>
      </trkpt>
      <trkpt lat="47.36744" lon="7.92179">
        <ele>390.8</ele>
        <time>2022-10-02T08:19:29Z</time>
      </trkpt>
      <trkpt lat="47.36741" lon="7.92182">
        <ele>390.8</ele>
        <time>2022-10-02T08:19:30Z</time>
      </trkpt>
      <trkpt lat="47.36737" lon="7.92185">
        <ele>390.7</ele>
        <time>2022-10-02T08:19:31Z</time>
      </trkpt>
      <trkpt lat="47.36733" lon="7.9219">
        <ele>390.7</ele>
        <time>2022-10-02T08:19:32Z</time>
      </trkpt>
      <trkpt lat="47.3673" lon="7.92192">
        <ele>390.7</ele>
        <time>2022-10-02T08:19:33Z</time>
      </trkpt>
      <trkpt lat="47.36727" lon="7.92195">
        <ele>390.7</ele>
        <time>2022-10-02T08:19:34Z</time>
      </trkpt>
      <trkpt lat="47.36722" lon="7.92195">
        <ele>390.7</ele>
        <time>2022-10-02T08:19:35Z</time>
      </trkpt>
      <trkpt lat="47.36718" lon="7.92198">
        <ele>390.7</ele>
        <time>2022-10-02T08:19:36Z</time>
      </trkpt>
      <trkpt lat="47.36714" lon="7.92201">
        <ele>390.7</ele>
        <time>2022-10-02T08:19:37Z</time>
      </trkpt>
      <trkpt lat="47.3671" lon="7.92204">
        <ele>390.7</ele>
        <time>2022-10-02T08:19:38Z</time>
      </trkpt>
      <trkpt lat="47.36706" lon="7.92207">
        <ele>390.7</ele>
        <time>2022-10-02T08:19:39Z</time>
      </trkpt>
      <trkpt lat="47.36703" lon="7.9221">
        <ele>390.7</ele>
        <time>2022-10-02T08:19:40Z</time>
      </trkpt>
      <trkpt lat="47.36699" lon="7.92212">
        <ele>390.7</ele>
        <time>2022-10-02T08:19:41Z</time>
      </trkpt>
      <trkpt lat="47.36694" lon="7.92215">
        <ele>390.7</ele>
        <time>2022-10-02T08:19:42Z</time>
      </trkpt>
      <trkpt lat="47.36689" lon="7.92217">
        <ele>390.6</ele>
        <time>2022-10-02T08:19:43Z</time>
      </trkpt>
      <trkpt lat="47.36685" lon="7.92219">
        <ele>390.6</ele>
        <time>2022-10-02T08:19:44Z</time>
      </trkpt>
      <trkpt lat="47.36681" lon="7.92221">
        <ele>390.6</ele>
        <time>2022-10-02T08:19:45Z</time>
      </trkpt>
      <trkpt lat="47.36677" lon="7.92223">
        <ele>390.6</ele>
        <time>2022-10-02T08:19:46Z</time>
      </trkpt>
      <trkpt lat="47.36673" lon="7.92226">
        <ele>390.6</ele>
        <time>2022-10-02T08:19:47Z</time>
      </trkpt>
      <trkpt lat="47.36669" lon="7.92227">
        <ele>390.6</ele>
        <time>2022-10-02T08:19:48Z</time>
      </trkpt>
      <trkpt lat="47.36666" lon="7.92229">
        <ele>390.7</ele>
        <time>2022-10-02T08:19:49Z</time>
      </trkpt>
      <trkpt lat="47.36661" lon="7.92231">
        <ele>390.7</ele>
        <time>2022-10-02T08:19:50Z</time>
      </trkpt>
      <trkpt lat="47.36658" lon="7.92232">
        <ele>390.7</ele>
        <time>2022-10-02T08:19:51Z</time>
      </trkpt>
      <trkpt lat="47.36654" lon="7.92234">
        <ele>390.7</ele>
        <time>2022-10-02T08:19:52Z</time>
      </trkpt>
      <trkpt lat="47.3665" lon="7.92236">
        <ele>390.7</ele>
        <time>2022-10-02T08:19:53Z</time>
      </trkpt>
      <trkpt lat="47.36645" lon="7.92238">
        <ele>390.7</ele>
        <time>2022-10-02T08:19:54Z</time>
      </trkpt>
      <trkpt lat="47.36641" lon="7.92239">
        <ele>390.7</ele>
        <time>2022-10-02T08:19:55Z</time>
      </trkpt>
      <trkpt lat="47.36638" lon="7.9224">
        <ele>390.7</ele>
        <time>2022-10-02T08:19:56Z</time>
      </trkpt>
      <trkpt lat="47.36633" lon="7.92241">
        <ele>390.7</ele>
        <time>2022-10-02T08:19:57Z</time>
      </trkpt>
      <trkpt lat="47.36629" lon="7.92243">
        <ele>390.7</ele>
        <time>2022-10-02T08:19:58Z</time>
      </trkpt>
      <trkpt lat="47.36625" lon="7.92244">
        <ele>390.7</ele>
        <time>2022-10-02T08:19:59Z</time>
      </trkpt>
      <trkpt lat="47.3662" lon="7.92245">
        <ele>390.7</ele>
        <time>2022-10-02T08:20:00Z</time>
      </trkpt>
      <trkpt lat="47.36616" lon="7.92246">
        <ele>390.7</ele>
        <time>2022-10-02T08:20:01Z</time>
      </trkpt>
      <trkpt lat="47.36611" lon="7.92247">
        <ele>390.7</ele>
        <time>2022-10-02T08:20:02Z</time>
      </trkpt>
      <trkpt lat="47.36608" lon="7.92249">
        <ele>390.7</ele>
        <time>2022-10-02T08:20:03Z</time>
      </trkpt>
      <trkpt lat="47.36604" lon="7.92252">
        <ele>390.7</ele>
        <time>2022-10-02T08:20:04Z</time>
      </trkpt>
      <trkpt lat="47.366" lon="7.92255">
        <ele>390.7</ele>
        <time>2022-10-02T08:20:05Z</time>
      </trkpt>
      <trkpt lat="47.36597" lon="7.92258">
        <ele>390.7</ele>
        <time>2022-10-02T08:20:06Z</time>
      </trkpt>
      <trkpt lat="47.36594" lon="7.92263">
        <ele>390.7</ele>
        <time>2022-10-02T08:20:07Z</time>
      </trkpt>
      <trkpt lat="47.36594" lon="7.92265">
        <ele>390.7</ele>
        <time>2022-10-02T08:20:08Z</time>
      </trkpt>
      <trkpt lat="47.36592" lon="7.92271">
        <ele>390.6</ele>
        <time>2022-10-02T08:20:09Z</time>
      </trkpt>
      <trkpt lat="47.36591" lon="7.92274">
        <ele>390.6</ele>
        <time>2022-10-02T08:20:10Z</time>
      </trkpt>
      <trkpt lat="47.36589" lon="7.92279">
        <ele>390.6</ele>
        <time>2022-10-02T08:20:11Z</time>
      </trkpt>
      <trkpt lat="47.36589" lon="7.92284">
        <ele>390.6</ele>
        <time>2022-10-02T08:20:12Z</time>
      </trkpt>
      <trkpt lat="47.36588" lon="7.92289">
        <ele>390.6</ele>
        <time>2022-10-02T08:20:13Z</time>
      </trkpt>
      <trkpt lat="47.36585" lon="7.92292">
        <ele>390.6</ele>
        <time>2022-10-02T08:20:14Z</time>
      </trkpt>
      <trkpt lat="47.36583" lon="7.92298">
        <ele>390.6</ele>
        <time>2022-10-02T08:20:15Z</time>
      </trkpt>
      <trkpt lat="47.36581" lon="7.92304">
        <ele>390.6</ele>
        <time>2022-10-02T08:20:16Z</time>
      </trkpt>
      <trkpt lat="47.36579" lon="7.92309">
        <ele>390.6</ele>
        <time>2022-10-02T08:20:17Z</time>
      </trkpt>
      <trkpt lat="47.36575" lon="7.9232">
        <ele>390.5</ele>
        <time>2022-10-02T08:20:19Z</time>
      </trkpt>
      <trkpt lat="47.36572" lon="7.92326">
        <ele>390.5</ele>
        <time>2022-10-02T08:20:20Z</time>
      </trkpt>
      <trkpt lat="47.3657" lon="7.92332">
        <ele>390.5</ele>
        <time>2022-10-02T08:20:21Z</time>
      </trkpt>
      <trkpt lat="47.36568" lon="7.92338">
        <ele>390.5</ele>
        <time>2022-10-02T08:20:23Z</time>
      </trkpt>
      <trkpt lat="47.36561" lon="7.9235">
        <ele>390.5</ele>
        <time>2022-10-02T08:20:24Z</time>
      </trkpt>
      <trkpt lat="47.36559" lon="7.92356">
        <ele>390.4</ele>
        <time>2022-10-02T08:20:25Z</time>
      </trkpt>
      <trkpt lat="47.36557" lon="7.92361">
        <ele>390.4</ele>
        <time>2022-10-02T08:20:26Z</time>
      </trkpt>
      <trkpt lat="47.36554" lon="7.92368">
        <ele>390.4</ele>
        <time>2022-10-02T08:20:27Z</time>
      </trkpt>
      <trkpt lat="47.36551" lon="7.92373">
        <ele>390.4</ele>
        <time>2022-10-02T08:20:28Z</time>
      </trkpt>
      <trkpt lat="47.36546" lon="7.92379">
        <ele>390.4</ele>
        <time>2022-10-02T08:20:29Z</time>
      </trkpt>
      <trkpt lat="47.36545" lon="7.92385">
        <ele>390.3</ele>
        <time>2022-10-02T08:20:30Z</time>
      </trkpt>
      <trkpt lat="47.36543" lon="7.9239">
        <ele>390.3</ele>
        <time>2022-10-02T08:20:31Z</time>
      </trkpt>
      <trkpt lat="47.3654" lon="7.92395">
        <ele>390.3</ele>
        <time>2022-10-02T08:20:33Z</time>
      </trkpt>
      <trkpt lat="47.36538" lon="7.92402">
        <ele>390.3</ele>
        <time>2022-10-02T08:20:34Z</time>
      </trkpt>
      <trkpt lat="47.36535" lon="7.92405">
        <ele>390.3</ele>
        <time>2022-10-02T08:20:35Z</time>
      </trkpt>
      <trkpt lat="47.36529" lon="7.92418">
        <ele>390.3</ele>
        <time>2022-10-02T08:20:36Z</time>
      </trkpt>
      <trkpt lat="47.36526" lon="7.92425">
        <ele>390.3</ele>
        <time>2022-10-02T08:20:37Z</time>
      </trkpt>
      <trkpt lat="47.36524" lon="7.92431">
        <ele>390.3</ele>
        <time>2022-10-02T08:20:38Z</time>
      </trkpt>
      <trkpt lat="47.36521" lon="7.92437">
        <ele>390.3</ele>
        <time>2022-10-02T08:20:39Z</time>
      </trkpt>
      <trkpt lat="47.36518" lon="7.92444">
        <ele>390.3</ele>
        <time>2022-10-02T08:20:40Z</time>
      </trkpt>
      <trkpt lat="47.36515" lon="7.9245">
        <ele>390.3</ele>
        <time>2022-10-02T08:20:41Z</time>
      </trkpt>
      <trkpt lat="47.36513" lon="7.92456">
        <ele>390.3</ele>
        <time>2022-10-02T08:20:42Z</time>
      </trkpt>
      <trkpt lat="47.3651" lon="7.92462">
        <ele>390.3</ele>
        <time>2022-10-02T08:20:43Z</time>
      </trkpt>
      <trkpt lat="47.36507" lon="7.92468">
        <ele>390.3</ele>
        <time>2022-10-02T08:20:44Z</time>
      </trkpt>
      <trkpt lat="47.36504" lon="7.92474">
        <ele>390.3</ele>
        <time>2022-10-02T08:20:45Z</time>
      </trkpt>
      <trkpt lat="47.36502" lon="7.9248">
        <ele>390.3</ele>
        <time>2022-10-02T08:20:46Z</time>
      </trkpt>
      <trkpt lat="47.36499" lon="7.92485">
        <ele>390.3</ele>
        <time>2022-10-02T08:20:47Z</time>
      </trkpt>
      <trkpt lat="47.36496" lon="7.92492">
        <ele>390.3</ele>
        <time>2022-10-02T08:20:48Z</time>
      </trkpt>
      <trkpt lat="47.36493" lon="7.92497">
        <ele>390.4</ele>
        <time>2022-10-02T08:20:49Z</time>
      </trkpt>
      <trkpt lat="47.36491" lon="7.92503">
        <ele>390.4</ele>
        <time>2022-10-02T08:20:50Z</time>
      </trkpt>
      <trkpt lat="47.36488" lon="7.92509">
        <ele>390.4</ele>
        <time>2022-10-02T08:20:51Z</time>
      </trkpt>
      <trkpt lat="47.36486" lon="7.92514">
        <ele>390.4</ele>
        <time>2022-10-02T08:20:52Z</time>
      </trkpt>
      <trkpt lat="47.36484" lon="7.92518">
        <ele>390.4</ele>
        <time>2022-10-02T08:20:53Z</time>
      </trkpt>
      <trkpt lat="47.36482" lon="7.92523">
        <ele>390.4</ele>
        <time>2022-10-02T08:20:54Z</time>
      </trkpt>
      <trkpt lat="47.36479" lon="7.92527">
        <ele>390.4</ele>
        <time>2022-10-02T08:20:55Z</time>
      </trkpt>
      <trkpt lat="47.36477" lon="7.92532">
        <ele>390.4</ele>
        <time>2022-10-02T08:20:56Z</time>
      </trkpt>
      <trkpt lat="47.36475" lon="7.92536">
        <ele>390.4</ele>
        <time>2022-10-02T08:20:57Z</time>
      </trkpt>
      <trkpt lat="47.36473" lon="7.92539">
        <ele>390.4</ele>
        <time>2022-10-02T08:20:58Z</time>
      </trkpt>
      <trkpt lat="47.36471" lon="7.92544">
        <ele>390.5</ele>
        <time>2022-10-02T08:20:59Z</time>
      </trkpt>
      <trkpt lat="47.36471" lon="7.92545">
        <ele>390.5</ele>
        <time>2022-10-02T08:21:00Z</time>
      </trkpt>
      <trkpt lat="47.36469" lon="7.9255">
        <ele>390.5</ele>
        <time>2022-10-02T08:21:01Z</time>
      </trkpt>
      <trkpt lat="47.36468" lon="7.92551">
        <ele>390.5</ele>
        <time>2022-10-02T08:21:02Z</time>
      </trkpt>
      <trkpt lat="47.36467" lon="7.92555">
        <ele>390.5</ele>
        <time>2022-10-02T08:21:03Z</time>
      </trkpt>
      <trkpt lat="47.36465" lon="7.92559">
        <ele>390.6</ele>
        <time>2022-10-02T08:21:04Z</time>
      </trkpt>
      <trkpt lat="47.36463" lon="7.92563">
        <ele>390.7</ele>
        <time>2022-10-02T08:21:05Z</time>
      </trkpt>
      <trkpt lat="47.36461" lon="7.92567">
        <ele>390.7</ele>
        <time>2022-10-02T08:21:06Z</time>
      </trkpt>
      <trkpt lat="47.3646" lon="7.9257">
        <ele>390.8</ele>
        <time>2022-10-02T08:21:07Z</time>
      </trkpt>
      <trkpt lat="47.36458" lon="7.92574">
        <ele>390.9</ele>
        <time>2022-10-02T08:21:08Z</time>
      </trkpt>
      <trkpt lat="47.36457" lon="7.92576">
        <ele>390.9</ele>
        <time>2022-10-02T08:21:09Z</time>
      </trkpt>
      <trkpt lat="47.36455" lon="7.9258">
        <ele>391.1</ele>
        <time>2022-10-02T08:21:10Z</time>
      </trkpt>
      <trkpt lat="47.36454" lon="7.92582">
        <ele>391.1</ele>
        <time>2022-10-02T08:21:11Z</time>
      </trkpt>
      <trkpt lat="47.36452" lon="7.92582">
        <ele>391.2</ele>
        <time>2022-10-02T08:21:12Z</time>
      </trkpt>
      <trkpt lat="47.36451" lon="7.92582">
        <ele>391.3</ele>
        <time>2022-10-02T08:21:13Z</time>
      </trkpt>
      <trkpt lat="47.3645" lon="7.92582">
        <ele>391.3</ele>
        <time>2022-10-02T08:21:14Z</time>
      </trkpt>
      <trkpt lat="47.36447" lon="7.92581">
        <ele>391.4</ele>
        <time>2022-10-02T08:21:15Z</time>
      </trkpt>
      <trkpt lat="47.36446" lon="7.9258">
        <ele>391.4</ele>
        <time>2022-10-02T08:21:16Z</time>
      </trkpt>
      <trkpt lat="47.36444" lon="7.92578">
        <ele>391.4</ele>
        <time>2022-10-02T08:21:17Z</time>
      </trkpt>
      <trkpt lat="47.36443" lon="7.92578">
        <ele>391.4</ele>
        <time>2022-10-02T08:21:18Z</time>
      </trkpt>
      <trkpt lat="47.36441" lon="7.92575">
        <ele>391.4</ele>
        <time>2022-10-02T08:21:19Z</time>
      </trkpt>
      <trkpt lat="47.3644" lon="7.92574">
        <ele>391.4</ele>
        <time>2022-10-02T08:21:20Z</time>
      </trkpt>
      <trkpt lat="47.36437" lon="7.9257">
        <ele>391.4</ele>
        <time>2022-10-02T08:21:21Z</time>
      </trkpt>
      <trkpt lat="47.36436" lon="7.92569">
        <ele>391.4</ele>
        <time>2022-10-02T08:21:22Z</time>
      </trkpt>
      <trkpt lat="47.36433" lon="7.92567">
        <ele>391.3</ele>
        <time>2022-10-02T08:21:23Z</time>
      </trkpt>
      <trkpt lat="47.36432" lon="7.92566">
        <ele>391.3</ele>
        <time>2022-10-02T08:21:24Z</time>
      </trkpt>
      <trkpt lat="47.3643" lon="7.92563">
        <ele>391.3</ele>
        <time>2022-10-02T08:21:25Z</time>
      </trkpt>
      <trkpt lat="47.36427" lon="7.92561">
        <ele>391.2</ele>
        <time>2022-10-02T08:21:26Z</time>
      </trkpt>
      <trkpt lat="47.36425" lon="7.92558">
        <ele>391.2</ele>
        <time>2022-10-02T08:21:27Z</time>
      </trkpt>
      <trkpt lat="47.36423" lon="7.92556">
        <ele>391.1</ele>
        <time>2022-10-02T08:21:28Z</time>
      </trkpt>
      <trkpt lat="47.3642" lon="7.92553">
        <ele>391.1</ele>
        <time>2022-10-02T08:21:29Z</time>
      </trkpt>
      <trkpt lat="47.36417" lon="7.9255">
        <ele>391</ele>
        <time>2022-10-02T08:21:30Z</time>
      </trkpt>
      <trkpt lat="47.36414" lon="7.92547">
        <ele>390.9</ele>
        <time>2022-10-02T08:21:31Z</time>
      </trkpt>
      <trkpt lat="47.36411" lon="7.92544">
        <ele>390.8</ele>
        <time>2022-10-02T08:21:32Z</time>
      </trkpt>
      <trkpt lat="47.36407" lon="7.92542">
        <ele>390.7</ele>
        <time>2022-10-02T08:21:33Z</time>
      </trkpt>
      <trkpt lat="47.36404" lon="7.9254">
        <ele>390.6</ele>
        <time>2022-10-02T08:21:34Z</time>
      </trkpt>
      <trkpt lat="47.364" lon="7.92538">
        <ele>390.4</ele>
        <time>2022-10-02T08:21:35Z</time>
      </trkpt>
      <trkpt lat="47.36398" lon="7.92539">
        <ele>390.3</ele>
        <time>2022-10-02T08:21:36Z</time>
      </trkpt>
      <trkpt lat="47.36393" lon="7.9254">
        <ele>390.2</ele>
        <time>2022-10-02T08:21:37Z</time>
      </trkpt>
      <trkpt lat="47.3639" lon="7.92543">
        <ele>389.7</ele>
        <time>2022-10-02T08:21:38Z</time>
      </trkpt>
      <trkpt lat="47.36387" lon="7.92546">
        <ele>389.6</ele>
        <time>2022-10-02T08:21:39Z</time>
      </trkpt>
      <trkpt lat="47.36385" lon="7.92552">
        <ele>389.5</ele>
        <time>2022-10-02T08:21:40Z</time>
      </trkpt>
      <trkpt lat="47.36382" lon="7.92558">
        <ele>389.4</ele>
        <time>2022-10-02T08:21:41Z</time>
      </trkpt>
      <trkpt lat="47.3638" lon="7.92563">
        <ele>389.2</ele>
        <time>2022-10-02T08:21:42Z</time>
      </trkpt>
      <trkpt lat="47.36377" lon="7.92568">
        <ele>389.1</ele>
        <time>2022-10-02T08:21:43Z</time>
      </trkpt>
      <trkpt lat="47.36375" lon="7.92575">
        <ele>388.9</ele>
        <time>2022-10-02T08:21:44Z</time>
      </trkpt>
      <trkpt lat="47.36373" lon="7.92583">
        <ele>388.8</ele>
        <time>2022-10-02T08:21:45Z</time>
      </trkpt>
      <trkpt lat="47.3637" lon="7.9259">
        <ele>388.6</ele>
        <time>2022-10-02T08:21:46Z</time>
      </trkpt>
      <trkpt lat="47.36367" lon="7.92597">
        <ele>388.5</ele>
        <time>2022-10-02T08:21:47Z</time>
      </trkpt>
      <trkpt lat="47.36364" lon="7.92605">
        <ele>388.4</ele>
        <time>2022-10-02T08:21:48Z</time>
      </trkpt>
      <trkpt lat="47.36359" lon="7.92613">
        <ele>388.3</ele>
        <time>2022-10-02T08:21:49Z</time>
      </trkpt>
      <trkpt lat="47.36357" lon="7.92621">
        <ele>388.2</ele>
        <time>2022-10-02T08:21:50Z</time>
      </trkpt>
      <trkpt lat="47.36353" lon="7.92627">
        <ele>388.2</ele>
        <time>2022-10-02T08:21:51Z</time>
      </trkpt>
      <trkpt lat="47.36349" lon="7.92635">
        <ele>388.1</ele>
        <time>2022-10-02T08:21:52Z</time>
      </trkpt>
      <trkpt lat="47.36346" lon="7.92642">
        <ele>388.1</ele>
        <time>2022-10-02T08:21:53Z</time>
      </trkpt>
      <trkpt lat="47.36344" lon="7.9265">
        <ele>388.1</ele>
        <time>2022-10-02T08:21:54Z</time>
      </trkpt>
      <trkpt lat="47.36341" lon="7.92657">
        <ele>388</ele>
        <time>2022-10-02T08:21:55Z</time>
      </trkpt>
      <trkpt lat="47.36337" lon="7.92665">
        <ele>388</ele>
        <time>2022-10-02T08:21:56Z</time>
      </trkpt>
      <trkpt lat="47.36333" lon="7.92672">
        <ele>388</ele>
        <time>2022-10-02T08:21:57Z</time>
      </trkpt>
      <trkpt lat="47.36329" lon="7.92679">
        <ele>388</ele>
        <time>2022-10-02T08:21:58Z</time>
      </trkpt>
      <trkpt lat="47.36325" lon="7.92687">
        <ele>388</ele>
        <time>2022-10-02T08:21:59Z</time>
      </trkpt>
      <trkpt lat="47.36323" lon="7.92693">
        <ele>388</ele>
        <time>2022-10-02T08:22:00Z</time>
      </trkpt>
      <trkpt lat="47.3632" lon="7.927">
        <ele>388</ele>
        <time>2022-10-02T08:22:01Z</time>
      </trkpt>
      <trkpt lat="47.36316" lon="7.92707">
        <ele>388</ele>
        <time>2022-10-02T08:22:02Z</time>
      </trkpt>
      <trkpt lat="47.36313" lon="7.92714">
        <ele>388</ele>
        <time>2022-10-02T08:22:03Z</time>
      </trkpt>
      <trkpt lat="47.3631" lon="7.9272">
        <ele>388</ele>
        <time>2022-10-02T08:22:04Z</time>
      </trkpt>
      <trkpt lat="47.36306" lon="7.92728">
        <ele>388</ele>
        <time>2022-10-02T08:22:05Z</time>
      </trkpt>
      <trkpt lat="47.36303" lon="7.92735">
        <ele>388</ele>
        <time>2022-10-02T08:22:06Z</time>
      </trkpt>
      <trkpt lat="47.363" lon="7.92741">
        <ele>388</ele>
        <time>2022-10-02T08:22:07Z</time>
      </trkpt>
      <trkpt lat="47.36298" lon="7.92748">
        <ele>388</ele>
        <time>2022-10-02T08:22:08Z</time>
      </trkpt>
      <trkpt lat="47.36294" lon="7.92754">
        <ele>388</ele>
        <time>2022-10-02T08:22:09Z</time>
      </trkpt>
      <trkpt lat="47.36291" lon="7.9276">
        <ele>388</ele>
        <time>2022-10-02T08:22:10Z</time>
      </trkpt>
      <trkpt lat="47.36288" lon="7.92767">
        <ele>388</ele>
        <time>2022-10-02T08:22:11Z</time>
      </trkpt>
      <trkpt lat="47.36285" lon="7.92774">
        <ele>388.1</ele>
        <time>2022-10-02T08:22:12Z</time>
      </trkpt>
      <trkpt lat="47.36282" lon="7.92781">
        <ele>388.1</ele>
        <time>2022-10-02T08:22:13Z</time>
      </trkpt>
      <trkpt lat="47.36279" lon="7.92787">
        <ele>388.1</ele>
        <time>2022-10-02T08:22:14Z</time>
      </trkpt>
      <trkpt lat="47.36276" lon="7.92794">
        <ele>388.1</ele>
        <time>2022-10-02T08:22:15Z</time>
      </trkpt>
      <trkpt lat="47.36272" lon="7.928">
        <ele>388.1</ele>
        <time>2022-10-02T08:22:16Z</time>
      </trkpt>
      <trkpt lat="47.36269" lon="7.92807">
        <ele>388.1</ele>
        <time>2022-10-02T08:22:17Z</time>
      </trkpt>
      <trkpt lat="47.36266" lon="7.92814">
        <ele>388.2</ele>
        <time>2022-10-02T08:22:18Z</time>
      </trkpt>
      <trkpt lat="47.36263" lon="7.9282">
        <ele>388.2</ele>
        <time>2022-10-02T08:22:19Z</time>
      </trkpt>
      <trkpt lat="47.3626" lon="7.92827">
        <ele>388.2</ele>
        <time>2022-10-02T08:22:20Z</time>
      </trkpt>
      <trkpt lat="47.36256" lon="7.92834">
        <ele>388.2</ele>
        <time>2022-10-02T08:22:21Z</time>
      </trkpt>
      <trkpt lat="47.36253" lon="7.92841">
        <ele>388.2</ele>
        <time>2022-10-02T08:22:22Z</time>
      </trkpt>
      <trkpt lat="47.3625" lon="7.92848">
        <ele>388.2</ele>
        <time>2022-10-02T08:22:23Z</time>
      </trkpt>
      <trkpt lat="47.36247" lon="7.92855">
        <ele>388.2</ele>
        <time>2022-10-02T08:22:25Z</time>
      </trkpt>
      <trkpt lat="47.36243" lon="7.92862">
        <ele>388.2</ele>
        <time>2022-10-02T08:22:26Z</time>
      </trkpt>
      <trkpt lat="47.3624" lon="7.92869">
        <ele>388.2</ele>
        <time>2022-10-02T08:22:27Z</time>
      </trkpt>
      <trkpt lat="47.36237" lon="7.92875">
        <ele>388.2</ele>
        <time>2022-10-02T08:22:28Z</time>
      </trkpt>
      <trkpt lat="47.36234" lon="7.92882">
        <ele>388.3</ele>
        <time>2022-10-02T08:22:29Z</time>
      </trkpt>
      <trkpt lat="47.36229" lon="7.92889">
        <ele>388.3</ele>
        <time>2022-10-02T08:22:30Z</time>
      </trkpt>
      <trkpt lat="47.36227" lon="7.92897">
        <ele>388.4</ele>
        <time>2022-10-02T08:22:31Z</time>
      </trkpt>
      <trkpt lat="47.36225" lon="7.92903">
        <ele>388.4</ele>
        <time>2022-10-02T08:22:32Z</time>
      </trkpt>
      <trkpt lat="47.36221" lon="7.9291">
        <ele>388.4</ele>
        <time>2022-10-02T08:22:33Z</time>
      </trkpt>
      <trkpt lat="47.36216" lon="7.92917">
        <ele>388.5</ele>
        <time>2022-10-02T08:22:34Z</time>
      </trkpt>
      <trkpt lat="47.36214" lon="7.92923">
        <ele>388.6</ele>
        <time>2022-10-02T08:22:35Z</time>
      </trkpt>
      <trkpt lat="47.36208" lon="7.92936">
        <ele>388.7</ele>
        <time>2022-10-02T08:22:36Z</time>
      </trkpt>
      <trkpt lat="47.36205" lon="7.92942">
        <ele>388.8</ele>
        <time>2022-10-02T08:22:37Z</time>
      </trkpt>
      <trkpt lat="47.36201" lon="7.92949">
        <ele>388.9</ele>
        <time>2022-10-02T08:22:38Z</time>
      </trkpt>
      <trkpt lat="47.36199" lon="7.92954">
        <ele>389</ele>
        <time>2022-10-02T08:22:39Z</time>
      </trkpt>
      <trkpt lat="47.36196" lon="7.9296">
        <ele>389.1</ele>
        <time>2022-10-02T08:22:40Z</time>
      </trkpt>
      <trkpt lat="47.36193" lon="7.92965">
        <ele>389.2</ele>
        <time>2022-10-02T08:22:41Z</time>
      </trkpt>
      <trkpt lat="47.36192" lon="7.9297">
        <ele>389.3</ele>
        <time>2022-10-02T08:22:42Z</time>
      </trkpt>
      <trkpt lat="47.3619" lon="7.92975">
        <ele>389.5</ele>
        <time>2022-10-02T08:22:43Z</time>
      </trkpt>
      <trkpt lat="47.36187" lon="7.9298">
        <ele>389.6</ele>
        <time>2022-10-02T08:22:44Z</time>
      </trkpt>
      <trkpt lat="47.36186" lon="7.92985">
        <ele>389.7</ele>
        <time>2022-10-02T08:22:45Z</time>
      </trkpt>
      <trkpt lat="47.36184" lon="7.9299">
        <ele>389.8</ele>
        <time>2022-10-02T08:22:46Z</time>
      </trkpt>
      <trkpt lat="47.36182" lon="7.92994">
        <ele>389.9</ele>
        <time>2022-10-02T08:22:47Z</time>
      </trkpt>
      <trkpt lat="47.36181" lon="7.92998">
        <ele>390</ele>
        <time>2022-10-02T08:22:48Z</time>
      </trkpt>
      <trkpt lat="47.36179" lon="7.93001">
        <ele>390.1</ele>
        <time>2022-10-02T08:22:49Z</time>
      </trkpt>
      <trkpt lat="47.36176" lon="7.93006">
        <ele>390</ele>
        <time>2022-10-02T08:22:50Z</time>
      </trkpt>
      <trkpt lat="47.36175" lon="7.93008">
        <ele>389.9</ele>
        <time>2022-10-02T08:22:51Z</time>
      </trkpt>
      <trkpt lat="47.36172" lon="7.93012">
        <ele>389.8</ele>
        <time>2022-10-02T08:22:52Z</time>
      </trkpt>
      <trkpt lat="47.36169" lon="7.93017">
        <ele>389.7</ele>
        <time>2022-10-02T08:22:53Z</time>
      </trkpt>
      <trkpt lat="47.36166" lon="7.93022">
        <ele>389.5</ele>
        <time>2022-10-02T08:22:54Z</time>
      </trkpt>
      <trkpt lat="47.36163" lon="7.93027">
        <ele>389.4</ele>
        <time>2022-10-02T08:22:55Z</time>
      </trkpt>
      <trkpt lat="47.36161" lon="7.93034">
        <ele>389.3</ele>
        <time>2022-10-02T08:22:56Z</time>
      </trkpt>
      <trkpt lat="47.36157" lon="7.9304">
        <ele>389.1</ele>
        <time>2022-10-02T08:22:57Z</time>
      </trkpt>
      <trkpt lat="47.36155" lon="7.93047">
        <ele>389</ele>
        <time>2022-10-02T08:22:58Z</time>
      </trkpt>
      <trkpt lat="47.36151" lon="7.93055">
        <ele>388.8</ele>
        <time>2022-10-02T08:22:59Z</time>
      </trkpt>
      <trkpt lat="47.36148" lon="7.93061">
        <ele>388.8</ele>
        <time>2022-10-02T08:23:00Z</time>
      </trkpt>
      <trkpt lat="47.36145" lon="7.93069">
        <ele>388.7</ele>
        <time>2022-10-02T08:23:01Z</time>
      </trkpt>
      <trkpt lat="47.36142" lon="7.93076">
        <ele>388.6</ele>
        <time>2022-10-02T08:23:02Z</time>
      </trkpt>
      <trkpt lat="47.36138" lon="7.93083">
        <ele>388.6</ele>
        <time>2022-10-02T08:23:03Z</time>
      </trkpt>
      <trkpt lat="47.36136" lon="7.9309">
        <ele>388.5</ele>
        <time>2022-10-02T08:23:04Z</time>
      </trkpt>
      <trkpt lat="47.36132" lon="7.93096">
        <ele>388.4</ele>
        <time>2022-10-02T08:23:05Z</time>
      </trkpt>
      <trkpt lat="47.36129" lon="7.93103">
        <ele>388.4</ele>
        <time>2022-10-02T08:23:06Z</time>
      </trkpt>
      <trkpt lat="47.36126" lon="7.9311">
        <ele>388.3</ele>
        <time>2022-10-02T08:23:07Z</time>
      </trkpt>
      <trkpt lat="47.36122" lon="7.93117">
        <ele>388.2</ele>
        <time>2022-10-02T08:23:08Z</time>
      </trkpt>
      <trkpt lat="47.36119" lon="7.93124">
        <ele>388.1</ele>
        <time>2022-10-02T08:23:09Z</time>
      </trkpt>
      <trkpt lat="47.36115" lon="7.93132">
        <ele>388</ele>
        <time>2022-10-02T08:23:10Z</time>
      </trkpt>
      <trkpt lat="47.36112" lon="7.9314">
        <ele>387.8</ele>
        <time>2022-10-02T08:23:11Z</time>
      </trkpt>
      <trkpt lat="47.36108" lon="7.93148">
        <ele>387.7</ele>
        <time>2022-10-02T08:23:12Z</time>
      </trkpt>
      <trkpt lat="47.36104" lon="7.93156">
        <ele>387.6</ele>
        <time>2022-10-02T08:23:13Z</time>
      </trkpt>
      <trkpt lat="47.361" lon="7.93163">
        <ele>387.5</ele>
        <time>2022-10-02T08:23:14Z</time>
      </trkpt>
      <trkpt lat="47.36097" lon="7.93171">
        <ele>387.4</ele>
        <time>2022-10-02T08:23:15Z</time>
      </trkpt>
      <trkpt lat="47.36092" lon="7.93181">
        <ele>387.3</ele>
        <time>2022-10-02T08:23:16Z</time>
      </trkpt>
      <trkpt lat="47.36089" lon="7.93189">
        <ele>387.2</ele>
        <time>2022-10-02T08:23:17Z</time>
      </trkpt>
      <trkpt lat="47.36086" lon="7.93196">
        <ele>387.2</ele>
        <time>2022-10-02T08:23:18Z</time>
      </trkpt>
      <trkpt lat="47.36082" lon="7.93205">
        <ele>387.2</ele>
        <time>2022-10-02T08:23:19Z</time>
      </trkpt>
      <trkpt lat="47.36078" lon="7.93213">
        <ele>387.2</ele>
        <time>2022-10-02T08:23:20Z</time>
      </trkpt>
      <trkpt lat="47.36075" lon="7.93222">
        <ele>387.2</ele>
        <time>2022-10-02T08:23:21Z</time>
      </trkpt>
      <trkpt lat="47.36072" lon="7.9323">
        <ele>387.2</ele>
        <time>2022-10-02T08:23:22Z</time>
      </trkpt>
      <trkpt lat="47.36069" lon="7.93237">
        <ele>387.1</ele>
        <time>2022-10-02T08:23:23Z</time>
      </trkpt>
      <trkpt lat="47.36066" lon="7.93246">
        <ele>387.1</ele>
        <time>2022-10-02T08:23:24Z</time>
      </trkpt>
      <trkpt lat="47.36063" lon="7.93254">
        <ele>387</ele>
        <time>2022-10-02T08:23:25Z</time>
      </trkpt>
      <trkpt lat="47.3606" lon="7.93263">
        <ele>387</ele>
        <time>2022-10-02T08:23:26Z</time>
      </trkpt>
      <trkpt lat="47.36057" lon="7.93271">
        <ele>386.9</ele>
        <time>2022-10-02T08:23:27Z</time>
      </trkpt>
      <trkpt lat="47.36055" lon="7.93279">
        <ele>386.8</ele>
        <time>2022-10-02T08:23:28Z</time>
      </trkpt>
      <trkpt lat="47.36052" lon="7.93288">
        <ele>386.8</ele>
        <time>2022-10-02T08:23:29Z</time>
      </trkpt>
      <trkpt lat="47.36049" lon="7.93297">
        <ele>386.7</ele>
        <time>2022-10-02T08:23:30Z</time>
      </trkpt>
      <trkpt lat="47.36047" lon="7.93306">
        <ele>386.7</ele>
        <time>2022-10-02T08:23:31Z</time>
      </trkpt>
      <trkpt lat="47.36044" lon="7.93314">
        <ele>386.7</ele>
        <time>2022-10-02T08:23:32Z</time>
      </trkpt>
      <trkpt lat="47.36042" lon="7.93323">
        <ele>386.7</ele>
        <time>2022-10-02T08:23:33Z</time>
      </trkpt>
      <trkpt lat="47.36039" lon="7.93332">
        <ele>386.6</ele>
        <time>2022-10-02T08:23:34Z</time>
      </trkpt>
      <trkpt lat="47.36036" lon="7.93341">
        <ele>386.6</ele>
        <time>2022-10-02T08:23:35Z</time>
      </trkpt>
      <trkpt lat="47.36034" lon="7.9335">
        <ele>386.6</ele>
        <time>2022-10-02T08:23:36Z</time>
      </trkpt>
      <trkpt lat="47.36032" lon="7.93359">
        <ele>386.6</ele>
        <time>2022-10-02T08:23:37Z</time>
      </trkpt>
      <trkpt lat="47.3603" lon="7.93368">
        <ele>386.6</ele>
        <time>2022-10-02T08:23:38Z</time>
      </trkpt>
      <trkpt lat="47.36027" lon="7.93377">
        <ele>386.6</ele>
        <time>2022-10-02T08:23:39Z</time>
      </trkpt>
      <trkpt lat="47.36025" lon="7.93386">
        <ele>386.6</ele>
        <time>2022-10-02T08:23:40Z</time>
      </trkpt>
      <trkpt lat="47.36023" lon="7.93395">
        <ele>386.5</ele>
        <time>2022-10-02T08:23:41Z</time>
      </trkpt>
      <trkpt lat="47.36021" lon="7.93404">
        <ele>386.5</ele>
        <time>2022-10-02T08:23:42Z</time>
      </trkpt>
      <trkpt lat="47.36018" lon="7.93413">
        <ele>386.4</ele>
        <time>2022-10-02T08:23:43Z</time>
      </trkpt>
      <trkpt lat="47.36016" lon="7.93421">
        <ele>386.4</ele>
        <time>2022-10-02T08:23:44Z</time>
      </trkpt>
      <trkpt lat="47.36014" lon="7.9343">
        <ele>386.3</ele>
        <time>2022-10-02T08:23:45Z</time>
      </trkpt>
      <trkpt lat="47.36012" lon="7.93437">
        <ele>386.3</ele>
        <time>2022-10-02T08:23:46Z</time>
      </trkpt>
      <trkpt lat="47.3601" lon="7.93443">
        <ele>386.2</ele>
        <time>2022-10-02T08:23:47Z</time>
      </trkpt>
      <trkpt lat="47.36009" lon="7.93448">
        <ele>386.2</ele>
        <time>2022-10-02T08:23:48Z</time>
      </trkpt>
      <trkpt lat="47.36008" lon="7.93453">
        <ele>386.1</ele>
        <time>2022-10-02T08:23:49Z</time>
      </trkpt>
      <trkpt lat="47.36008" lon="7.93455">
        <ele>386.1</ele>
        <time>2022-10-02T08:23:50Z</time>
      </trkpt>
      <trkpt lat="47.36008" lon="7.93457">
        <ele>386.1</ele>
        <time>2022-10-02T08:23:51Z</time>
      </trkpt>
      <trkpt lat="47.36008" lon="7.93458">
        <ele>386.1</ele>
        <time>2022-10-02T08:23:52Z</time>
      </trkpt>
      <trkpt lat="47.36007" lon="7.9346">
        <ele>386.1</ele>
        <time>2022-10-02T08:23:53Z</time>
      </trkpt>
      <trkpt lat="47.36007" lon="7.93462">
        <ele>386.1</ele>
        <time>2022-10-02T08:23:54Z</time>
      </trkpt>
      <trkpt lat="47.36007" lon="7.93464">
        <ele>386</ele>
        <time>2022-10-02T08:23:55Z</time>
      </trkpt>
      <trkpt lat="47.36007" lon="7.93466">
        <ele>386</ele>
        <time>2022-10-02T08:23:56Z</time>
      </trkpt>
      <trkpt lat="47.36007" lon="7.93468">
        <ele>386</ele>
        <time>2022-10-02T08:23:57Z</time>
      </trkpt>
      <trkpt lat="47.36007" lon="7.9347">
        <ele>386</ele>
        <time>2022-10-02T08:23:58Z</time>
      </trkpt>
      <trkpt lat="47.36006" lon="7.93472">
        <ele>386</ele>
        <time>2022-10-02T08:23:59Z</time>
      </trkpt>
      <trkpt lat="47.36006" lon="7.93474">
        <ele>386</ele>
        <time>2022-10-02T08:24:00Z</time>
      </trkpt>
      <trkpt lat="47.36006" lon="7.93476">
        <ele>386</ele>
        <time>2022-10-02T08:24:50Z</time>
      </trkpt>
      <trkpt lat="47.36006" lon="7.93478">
        <ele>385.9</ele>
        <time>2022-10-02T08:24:51Z</time>
      </trkpt>
      <trkpt lat="47.36005" lon="7.93482">
        <ele>385.9</ele>
        <time>2022-10-02T08:24:52Z</time>
      </trkpt>
      <trkpt lat="47.36004" lon="7.93485">
        <ele>385.9</ele>
        <time>2022-10-02T08:24:53Z</time>
      </trkpt>
      <trkpt lat="47.36004" lon="7.9349">
        <ele>385.9</ele>
        <time>2022-10-02T08:24:54Z</time>
      </trkpt>
      <trkpt lat="47.36004" lon="7.93495">
        <ele>385.8</ele>
        <time>2022-10-02T08:24:55Z</time>
      </trkpt>
      <trkpt lat="47.36003" lon="7.93499">
        <ele>385.8</ele>
        <time>2022-10-02T08:24:56Z</time>
      </trkpt>
      <trkpt lat="47.36003" lon="7.93504">
        <ele>385.8</ele>
        <time>2022-10-02T08:24:57Z</time>
      </trkpt>
      <trkpt lat="47.36003" lon="7.9351">
        <ele>385.8</ele>
        <time>2022-10-02T08:24:58Z</time>
      </trkpt>
      <trkpt lat="47.36002" lon="7.93515">
        <ele>385.7</ele>
        <time>2022-10-02T08:24:59Z</time>
      </trkpt>
      <trkpt lat="47.36001" lon="7.93521">
        <ele>385.7</ele>
        <time>2022-10-02T08:25:00Z</time>
      </trkpt>
      <trkpt lat="47.36" lon="7.93527">
        <ele>385.7</ele>
        <time>2022-10-02T08:25:01Z</time>
      </trkpt>
      <trkpt lat="47.35999" lon="7.93533">
        <ele>385.7</ele>
        <time>2022-10-02T08:25:02Z</time>
      </trkpt>
      <trkpt lat="47.35999" lon="7.93539">
        <ele>385.7</ele>
        <time>2022-10-02T08:25:03Z</time>
      </trkpt>
      <trkpt lat="47.35999" lon="7.93546">
        <ele>385.7</ele>
        <time>2022-10-02T08:25:04Z</time>
      </trkpt>
      <trkpt lat="47.35998" lon="7.93554">
        <ele>385.7</ele>
        <time>2022-10-02T08:25:05Z</time>
      </trkpt>
      <trkpt lat="47.35998" lon="7.93559">
        <ele>385.7</ele>
        <time>2022-10-02T08:25:06Z</time>
      </trkpt>
      <trkpt lat="47.35997" lon="7.93565">
        <ele>385.7</ele>
        <time>2022-10-02T08:25:07Z</time>
      </trkpt>
      <trkpt lat="47.35997" lon="7.93573">
        <ele>385.7</ele>
        <time>2022-10-02T08:25:08Z</time>
      </trkpt>
      <trkpt lat="47.35997" lon="7.9358">
        <ele>385.7</ele>
        <time>2022-10-02T08:25:09Z</time>
      </trkpt>
      <trkpt lat="47.35997" lon="7.93587">
        <ele>385.7</ele>
        <time>2022-10-02T08:25:10Z</time>
      </trkpt>
      <trkpt lat="47.35997" lon="7.93594">
        <ele>385.7</ele>
        <time>2022-10-02T08:25:11Z</time>
      </trkpt>
      <trkpt lat="47.35997" lon="7.93601">
        <ele>385.7</ele>
        <time>2022-10-02T08:25:12Z</time>
      </trkpt>
      <trkpt lat="47.35997" lon="7.93608">
        <ele>385.8</ele>
        <time>2022-10-02T08:25:13Z</time>
      </trkpt>
      <trkpt lat="47.35997" lon="7.93616">
        <ele>385.8</ele>
        <time>2022-10-02T08:25:14Z</time>
      </trkpt>
      <trkpt lat="47.35998" lon="7.93623">
        <ele>385.9</ele>
        <time>2022-10-02T08:25:15Z</time>
      </trkpt>
      <trkpt lat="47.35999" lon="7.9363">
        <ele>385.9</ele>
        <time>2022-10-02T08:25:16Z</time>
      </trkpt>
      <trkpt lat="47.36" lon="7.93637">
        <ele>386</ele>
        <time>2022-10-02T08:25:17Z</time>
      </trkpt>
      <trkpt lat="47.36002" lon="7.93644">
        <ele>386.2</ele>
        <time>2022-10-02T08:25:18Z</time>
      </trkpt>
      <trkpt lat="47.36004" lon="7.93652">
        <ele>386.4</ele>
        <time>2022-10-02T08:25:19Z</time>
      </trkpt>
      <trkpt lat="47.36006" lon="7.93658">
        <ele>386.5</ele>
        <time>2022-10-02T08:25:20Z</time>
      </trkpt>
      <trkpt lat="47.36006" lon="7.93664">
        <ele>386.7</ele>
        <time>2022-10-02T08:25:21Z</time>
      </trkpt>
      <trkpt lat="47.36007" lon="7.93669">
        <ele>386.9</ele>
        <time>2022-10-02T08:25:22Z</time>
      </trkpt>
      <trkpt lat="47.36008" lon="7.93675">
        <ele>387.1</ele>
        <time>2022-10-02T08:25:23Z</time>
      </trkpt>
      <trkpt lat="47.36007" lon="7.93677">
        <ele>387.2</ele>
        <time>2022-10-02T08:25:24Z</time>
      </trkpt>
      <trkpt lat="47.36009" lon="7.93682">
        <ele>387.4</ele>
        <time>2022-10-02T08:25:25Z</time>
      </trkpt>
      <trkpt lat="47.36009" lon="7.93684">
        <ele>387.5</ele>
        <time>2022-10-02T08:25:26Z</time>
      </trkpt>
      <trkpt lat="47.36009" lon="7.9369">
        <ele>387.7</ele>
        <time>2022-10-02T08:25:27Z</time>
      </trkpt>
      <trkpt lat="47.3601" lon="7.93691">
        <ele>387.8</ele>
        <time>2022-10-02T08:25:28Z</time>
      </trkpt>
      <trkpt lat="47.3601" lon="7.93696">
        <ele>388</ele>
        <time>2022-10-02T08:25:29Z</time>
      </trkpt>
      <trkpt lat="47.3601" lon="7.93698">
        <ele>388</ele>
        <time>2022-10-02T08:25:30Z</time>
      </trkpt>
      <trkpt lat="47.36011" lon="7.93702">
        <ele>388.2</ele>
        <time>2022-10-02T08:25:31Z</time>
      </trkpt>
      <trkpt lat="47.36011" lon="7.93704">
        <ele>388.3</ele>
        <time>2022-10-02T08:25:32Z</time>
      </trkpt>
      <trkpt lat="47.36011" lon="7.93707">
        <ele>388.4</ele>
        <time>2022-10-02T08:25:33Z</time>
      </trkpt>
      <trkpt lat="47.36011" lon="7.93709">
        <ele>388.5</ele>
        <time>2022-10-02T08:25:34Z</time>
      </trkpt>
      <trkpt lat="47.36012" lon="7.93713">
        <ele>388.7</ele>
        <time>2022-10-02T08:25:35Z</time>
      </trkpt>
      <trkpt lat="47.36012" lon="7.93714">
        <ele>388.8</ele>
        <time>2022-10-02T08:25:36Z</time>
      </trkpt>
      <trkpt lat="47.36012" lon="7.93717">
        <ele>388.9</ele>
        <time>2022-10-02T08:25:37Z</time>
      </trkpt>
      <trkpt lat="47.36012" lon="7.93719">
        <ele>389</ele>
        <time>2022-10-02T08:25:38Z</time>
      </trkpt>
      <trkpt lat="47.36012" lon="7.93722">
        <ele>389.1</ele>
        <time>2022-10-02T08:25:39Z</time>
      </trkpt>
      <trkpt lat="47.36012" lon="7.93724">
        <ele>389.2</ele>
        <time>2022-10-02T08:25:40Z</time>
      </trkpt>
      <trkpt lat="47.36013" lon="7.93726">
        <ele>389.4</ele>
        <time>2022-10-02T08:25:41Z</time>
      </trkpt>
      <trkpt lat="47.36014" lon="7.93728">
        <ele>389.5</ele>
        <time>2022-10-02T08:25:42Z</time>
      </trkpt>
      <trkpt lat="47.36014" lon="7.93733">
        <ele>389.6</ele>
        <time>2022-10-02T08:25:43Z</time>
      </trkpt>
      <trkpt lat="47.36014" lon="7.93734">
        <ele>389.7</ele>
        <time>2022-10-02T08:25:44Z</time>
      </trkpt>
      <trkpt lat="47.36014" lon="7.93737">
        <ele>389.7</ele>
        <time>2022-10-02T08:25:45Z</time>
      </trkpt>
      <trkpt lat="47.36014" lon="7.93739">
        <ele>389.8</ele>
        <time>2022-10-02T08:25:46Z</time>
      </trkpt>
      <trkpt lat="47.36013" lon="7.93742">
        <ele>389.8</ele>
        <time>2022-10-02T08:25:47Z</time>
      </trkpt>
      <trkpt lat="47.36013" lon="7.93743">
        <ele>389.9</ele>
        <time>2022-10-02T08:25:48Z</time>
      </trkpt>
      <trkpt lat="47.36012" lon="7.93745">
        <ele>389.9</ele>
        <time>2022-10-02T08:25:49Z</time>
      </trkpt>
      <trkpt lat="47.36011" lon="7.93748">
        <ele>390</ele>
        <time>2022-10-02T08:25:50Z</time>
      </trkpt>
      <trkpt lat="47.3601" lon="7.93753">
        <ele>390.1</ele>
        <time>2022-10-02T08:25:51Z</time>
      </trkpt>
      <trkpt lat="47.36009" lon="7.93754">
        <ele>390.1</ele>
        <time>2022-10-02T08:25:52Z</time>
      </trkpt>
      <trkpt lat="47.36009" lon="7.93758">
        <ele>390.2</ele>
        <time>2022-10-02T08:25:53Z</time>
      </trkpt>
      <trkpt lat="47.36009" lon="7.9376">
        <ele>390.2</ele>
        <time>2022-10-02T08:25:54Z</time>
      </trkpt>
      <trkpt lat="47.36008" lon="7.93761">
        <ele>390.2</ele>
        <time>2022-10-02T08:25:55Z</time>
      </trkpt>
      <trkpt lat="47.36007" lon="7.93764">
        <ele>390.3</ele>
        <time>2022-10-02T08:25:56Z</time>
      </trkpt>
      <trkpt lat="47.36007" lon="7.93768">
        <ele>390.4</ele>
        <time>2022-10-02T08:25:57Z</time>
      </trkpt>
      <trkpt lat="47.36007" lon="7.9377">
        <ele>390.4</ele>
        <time>2022-10-02T08:25:58Z</time>
      </trkpt>
      <trkpt lat="47.36008" lon="7.93774">
        <ele>390.5</ele>
        <time>2022-10-02T08:25:59Z</time>
      </trkpt>
      <trkpt lat="47.36009" lon="7.93775">
        <ele>390.5</ele>
        <time>2022-10-02T08:26:00Z</time>
      </trkpt>
      <trkpt lat="47.36011" lon="7.93777">
        <ele>390.5</ele>
        <time>2022-10-02T08:26:01Z</time>
      </trkpt>
      <trkpt lat="47.36012" lon="7.93778">
        <ele>390.4</ele>
        <time>2022-10-02T08:26:02Z</time>
      </trkpt>
      <trkpt lat="47.36014" lon="7.93782">
        <ele>390.4</ele>
        <time>2022-10-02T08:26:03Z</time>
      </trkpt>
      <trkpt lat="47.36015" lon="7.93783">
        <ele>390.4</ele>
        <time>2022-10-02T08:26:04Z</time>
      </trkpt>
      <trkpt lat="47.36015" lon="7.93788">
        <ele>390.3</ele>
        <time>2022-10-02T08:26:05Z</time>
      </trkpt>
      <trkpt lat="47.36016" lon="7.93792">
        <ele>390.3</ele>
        <time>2022-10-02T08:26:06Z</time>
      </trkpt>
      <trkpt lat="47.36017" lon="7.93797">
        <ele>390.2</ele>
        <time>2022-10-02T08:26:07Z</time>
      </trkpt>
      <trkpt lat="47.36019" lon="7.93801">
        <ele>390.2</ele>
        <time>2022-10-02T08:26:08Z</time>
      </trkpt>
      <trkpt lat="47.36021" lon="7.93806">
        <ele>390.1</ele>
        <time>2022-10-02T08:26:09Z</time>
      </trkpt>
      <trkpt lat="47.36022" lon="7.93812">
        <ele>390.1</ele>
        <time>2022-10-02T08:26:10Z</time>
      </trkpt>
      <trkpt lat="47.36023" lon="7.93818">
        <ele>390</ele>
        <time>2022-10-02T08:26:11Z</time>
      </trkpt>
      <trkpt lat="47.36024" lon="7.93824">
        <ele>390</ele>
        <time>2022-10-02T08:26:12Z</time>
      </trkpt>
      <trkpt lat="47.36024" lon="7.9383">
        <ele>389.9</ele>
        <time>2022-10-02T08:26:13Z</time>
      </trkpt>
      <trkpt lat="47.36024" lon="7.93835">
        <ele>389.9</ele>
        <time>2022-10-02T08:26:14Z</time>
      </trkpt>
      <trkpt lat="47.36024" lon="7.93841">
        <ele>389.9</ele>
        <time>2022-10-02T08:26:15Z</time>
      </trkpt>
      <trkpt lat="47.36025" lon="7.93847">
        <ele>389.9</ele>
        <time>2022-10-02T08:26:16Z</time>
      </trkpt>
      <trkpt lat="47.36025" lon="7.93854">
        <ele>389.9</ele>
        <time>2022-10-02T08:26:17Z</time>
      </trkpt>
      <trkpt lat="47.36025" lon="7.9386">
        <ele>389.9</ele>
        <time>2022-10-02T08:26:18Z</time>
      </trkpt>
      <trkpt lat="47.36025" lon="7.93867">
        <ele>389.9</ele>
        <time>2022-10-02T08:26:19Z</time>
      </trkpt>
      <trkpt lat="47.36025" lon="7.93873">
        <ele>389.9</ele>
        <time>2022-10-02T08:26:20Z</time>
      </trkpt>
      <trkpt lat="47.36026" lon="7.9388">
        <ele>389.9</ele>
        <time>2022-10-02T08:26:21Z</time>
      </trkpt>
      <trkpt lat="47.36025" lon="7.93885">
        <ele>389.9</ele>
        <time>2022-10-02T08:26:22Z</time>
      </trkpt>
      <trkpt lat="47.36025" lon="7.93891">
        <ele>389.9</ele>
        <time>2022-10-02T08:26:23Z</time>
      </trkpt>
      <trkpt lat="47.36025" lon="7.93898">
        <ele>389.9</ele>
        <time>2022-10-02T08:26:24Z</time>
      </trkpt>
      <trkpt lat="47.36026" lon="7.93901">
        <ele>389.9</ele>
        <time>2022-10-02T08:26:25Z</time>
      </trkpt>
      <trkpt lat="47.36026" lon="7.93907">
        <ele>389.9</ele>
        <time>2022-10-02T08:26:26Z</time>
      </trkpt>
      <trkpt lat="47.36027" lon="7.93913">
        <ele>389.8</ele>
        <time>2022-10-02T08:26:27Z</time>
      </trkpt>
      <trkpt lat="47.36027" lon="7.9392">
        <ele>389.8</ele>
        <time>2022-10-02T08:26:28Z</time>
      </trkpt>
      <trkpt lat="47.36027" lon="7.93925">
        <ele>389.8</ele>
        <time>2022-10-02T08:26:29Z</time>
      </trkpt>
      <trkpt lat="47.36027" lon="7.93933">
        <ele>389.8</ele>
        <time>2022-10-02T08:26:30Z</time>
      </trkpt>
      <trkpt lat="47.36027" lon="7.9394">
        <ele>389.8</ele>
        <time>2022-10-02T08:26:31Z</time>
      </trkpt>
      <trkpt lat="47.36028" lon="7.93947">
        <ele>389.8</ele>
        <time>2022-10-02T08:26:32Z</time>
      </trkpt>
      <trkpt lat="47.36029" lon="7.93951">
        <ele>389.8</ele>
        <time>2022-10-02T08:26:33Z</time>
      </trkpt>
      <trkpt lat="47.36028" lon="7.93959">
        <ele>389.7</ele>
        <time>2022-10-02T08:26:34Z</time>
      </trkpt>
      <trkpt lat="47.36028" lon="7.93965">
        <ele>389.7</ele>
        <time>2022-10-02T08:26:35Z</time>
      </trkpt>
      <trkpt lat="47.36028" lon="7.93972">
        <ele>389.7</ele>
        <time>2022-10-02T08:26:37Z</time>
      </trkpt>
      <trkpt lat="47.36029" lon="7.93979">
        <ele>389.7</ele>
        <time>2022-10-02T08:26:38Z</time>
      </trkpt>
      <trkpt lat="47.36029" lon="7.93985">
        <ele>389.7</ele>
        <time>2022-10-02T08:26:39Z</time>
      </trkpt>
      <trkpt lat="47.36029" lon="7.93992">
        <ele>389.7</ele>
        <time>2022-10-02T08:26:40Z</time>
      </trkpt>
      <trkpt lat="47.36029" lon="7.93999">
        <ele>389.7</ele>
        <time>2022-10-02T08:26:41Z</time>
      </trkpt>
      <trkpt lat="47.36029" lon="7.94006">
        <ele>389.7</ele>
        <time>2022-10-02T08:26:42Z</time>
      </trkpt>
      <trkpt lat="47.3603" lon="7.94013">
        <ele>389.7</ele>
        <time>2022-10-02T08:26:43Z</time>
      </trkpt>
      <trkpt lat="47.3603" lon="7.9402">
        <ele>389.7</ele>
        <time>2022-10-02T08:26:44Z</time>
      </trkpt>
      <trkpt lat="47.36029" lon="7.94027">
        <ele>389.7</ele>
        <time>2022-10-02T08:26:45Z</time>
      </trkpt>
      <trkpt lat="47.3603" lon="7.94034">
        <ele>389.7</ele>
        <time>2022-10-02T08:26:46Z</time>
      </trkpt>
      <trkpt lat="47.3603" lon="7.94041">
        <ele>389.7</ele>
        <time>2022-10-02T08:26:47Z</time>
      </trkpt>
      <trkpt lat="47.3603" lon="7.94048">
        <ele>389.7</ele>
        <time>2022-10-02T08:26:48Z</time>
      </trkpt>
      <trkpt lat="47.3603" lon="7.94054">
        <ele>389.7</ele>
        <time>2022-10-02T08:26:49Z</time>
      </trkpt>
      <trkpt lat="47.36031" lon="7.94062">
        <ele>389.7</ele>
        <time>2022-10-02T08:26:50Z</time>
      </trkpt>
      <trkpt lat="47.36031" lon="7.94069">
        <ele>389.8</ele>
        <time>2022-10-02T08:26:51Z</time>
      </trkpt>
      <trkpt lat="47.36031" lon="7.94075">
        <ele>389.8</ele>
        <time>2022-10-02T08:26:52Z</time>
      </trkpt>
      <trkpt lat="47.36031" lon="7.94083">
        <ele>389.8</ele>
        <time>2022-10-02T08:26:53Z</time>
      </trkpt>
      <trkpt lat="47.36031" lon="7.9409">
        <ele>389.8</ele>
        <time>2022-10-02T08:26:54Z</time>
      </trkpt>
      <trkpt lat="47.3603" lon="7.94096">
        <ele>389.8</ele>
        <time>2022-10-02T08:26:55Z</time>
      </trkpt>
      <trkpt lat="47.36031" lon="7.94104">
        <ele>389.8</ele>
        <time>2022-10-02T08:26:56Z</time>
      </trkpt>
      <trkpt lat="47.36031" lon="7.94111">
        <ele>389.9</ele>
        <time>2022-10-02T08:26:57Z</time>
      </trkpt>
      <trkpt lat="47.36031" lon="7.94118">
        <ele>389.9</ele>
        <time>2022-10-02T08:26:58Z</time>
      </trkpt>
      <trkpt lat="47.36031" lon="7.94125">
        <ele>389.9</ele>
        <time>2022-10-02T08:26:59Z</time>
      </trkpt>
      <trkpt lat="47.36032" lon="7.94131">
        <ele>389.9</ele>
        <time>2022-10-02T08:27:00Z</time>
      </trkpt>
      <trkpt lat="47.36032" lon="7.94139">
        <ele>389.9</ele>
        <time>2022-10-02T08:27:01Z</time>
      </trkpt>
      <trkpt lat="47.36032" lon="7.94146">
        <ele>389.9</ele>
        <time>2022-10-02T08:27:02Z</time>
      </trkpt>
      <trkpt lat="47.36032" lon="7.94154">
        <ele>390</ele>
        <time>2022-10-02T08:27:03Z</time>
      </trkpt>
      <trkpt lat="47.36033" lon="7.94161">
        <ele>390</ele>
        <time>2022-10-02T08:27:04Z</time>
      </trkpt>
      <trkpt lat="47.36033" lon="7.94169">
        <ele>390</ele>
        <time>2022-10-02T08:27:05Z</time>
      </trkpt>
      <trkpt lat="47.36033" lon="7.94176">
        <ele>390</ele>
        <time>2022-10-02T08:27:06Z</time>
      </trkpt>
      <trkpt lat="47.36033" lon="7.94183">
        <ele>390</ele>
        <time>2022-10-02T08:27:07Z</time>
      </trkpt>
      <trkpt lat="47.36033" lon="7.94191">
        <ele>390</ele>
        <time>2022-10-02T08:27:08Z</time>
      </trkpt>
      <trkpt lat="47.36033" lon="7.94198">
        <ele>390</ele>
        <time>2022-10-02T08:27:09Z</time>
      </trkpt>
      <trkpt lat="47.36034" lon="7.94206">
        <ele>390.1</ele>
        <time>2022-10-02T08:27:10Z</time>
      </trkpt>
      <trkpt lat="47.36035" lon="7.94221">
        <ele>390.1</ele>
        <time>2022-10-02T08:27:11Z</time>
      </trkpt>
      <trkpt lat="47.36034" lon="7.94228">
        <ele>390.1</ele>
        <time>2022-10-02T08:27:12Z</time>
      </trkpt>
      <trkpt lat="47.36034" lon="7.94235">
        <ele>390.1</ele>
        <time>2022-10-02T08:27:13Z</time>
      </trkpt>
      <trkpt lat="47.36035" lon="7.94242">
        <ele>390.1</ele>
        <time>2022-10-02T08:27:14Z</time>
      </trkpt>
      <trkpt lat="47.36035" lon="7.94249">
        <ele>390.2</ele>
        <time>2022-10-02T08:27:15Z</time>
      </trkpt>
      <trkpt lat="47.36035" lon="7.94257">
        <ele>390.2</ele>
        <time>2022-10-02T08:27:16Z</time>
      </trkpt>
      <trkpt lat="47.36035" lon="7.94263">
        <ele>390.2</ele>
        <time>2022-10-02T08:27:17Z</time>
      </trkpt>
      <trkpt lat="47.36035" lon="7.9427">
        <ele>390.2</ele>
        <time>2022-10-02T08:27:18Z</time>
      </trkpt>
      <trkpt lat="47.36035" lon="7.94276">
        <ele>390.2</ele>
        <time>2022-10-02T08:27:19Z</time>
      </trkpt>
      <trkpt lat="47.36037" lon="7.94284">
        <ele>390.2</ele>
        <time>2022-10-02T08:27:20Z</time>
      </trkpt>
      <trkpt lat="47.36037" lon="7.94291">
        <ele>390.2</ele>
        <time>2022-10-02T08:27:21Z</time>
      </trkpt>
      <trkpt lat="47.36037" lon="7.94298">
        <ele>390.2</ele>
        <time>2022-10-02T08:27:22Z</time>
      </trkpt>
      <trkpt lat="47.36037" lon="7.94304">
        <ele>390.2</ele>
        <time>2022-10-02T08:27:23Z</time>
      </trkpt>
      <trkpt lat="47.36037" lon="7.94309">
        <ele>390.2</ele>
        <time>2022-10-02T08:27:24Z</time>
      </trkpt>
      <trkpt lat="47.36037" lon="7.94316">
        <ele>390.2</ele>
        <time>2022-10-02T08:27:25Z</time>
      </trkpt>
      <trkpt lat="47.36037" lon="7.94321">
        <ele>390.2</ele>
        <time>2022-10-02T08:27:26Z</time>
      </trkpt>
      <trkpt lat="47.36037" lon="7.94327">
        <ele>390.2</ele>
        <time>2022-10-02T08:27:27Z</time>
      </trkpt>
      <trkpt lat="47.36037" lon="7.94334">
        <ele>390.2</ele>
        <time>2022-10-02T08:27:28Z</time>
      </trkpt>
      <trkpt lat="47.36037" lon="7.94341">
        <ele>390.2</ele>
        <time>2022-10-02T08:27:29Z</time>
      </trkpt>
      <trkpt lat="47.36037" lon="7.94346">
        <ele>390.2</ele>
        <time>2022-10-02T08:27:30Z</time>
      </trkpt>
      <trkpt lat="47.36037" lon="7.94353">
        <ele>390.2</ele>
        <time>2022-10-02T08:27:31Z</time>
      </trkpt>
      <trkpt lat="47.36037" lon="7.94359">
        <ele>390.2</ele>
        <time>2022-10-02T08:27:32Z</time>
      </trkpt>
      <trkpt lat="47.36037" lon="7.94366">
        <ele>390.2</ele>
        <time>2022-10-02T08:27:33Z</time>
      </trkpt>
      <trkpt lat="47.36039" lon="7.94373">
        <ele>390.2</ele>
        <time>2022-10-02T08:27:34Z</time>
      </trkpt>
      <trkpt lat="47.36038" lon="7.94379">
        <ele>390.2</ele>
        <time>2022-10-02T08:27:35Z</time>
      </trkpt>
      <trkpt lat="47.36038" lon="7.94386">
        <ele>390.2</ele>
        <time>2022-10-02T08:27:36Z</time>
      </trkpt>
      <trkpt lat="47.36039" lon="7.94392">
        <ele>390.2</ele>
        <time>2022-10-02T08:27:37Z</time>
      </trkpt>
      <trkpt lat="47.3604" lon="7.94399">
        <ele>390.1</ele>
        <time>2022-10-02T08:27:38Z</time>
      </trkpt>
      <trkpt lat="47.36039" lon="7.94405">
        <ele>390.1</ele>
        <time>2022-10-02T08:27:39Z</time>
      </trkpt>
      <trkpt lat="47.36039" lon="7.9441">
        <ele>390.1</ele>
        <time>2022-10-02T08:27:40Z</time>
      </trkpt>
      <trkpt lat="47.3604" lon="7.94414">
        <ele>390.1</ele>
        <time>2022-10-02T08:27:41Z</time>
      </trkpt>
      <trkpt lat="47.3604" lon="7.94421">
        <ele>390.1</ele>
        <time>2022-10-02T08:27:42Z</time>
      </trkpt>
      <trkpt lat="47.3604" lon="7.94427">
        <ele>390.1</ele>
        <time>2022-10-02T08:27:43Z</time>
      </trkpt>
      <trkpt lat="47.3604" lon="7.94433">
        <ele>390.1</ele>
        <time>2022-10-02T08:27:44Z</time>
      </trkpt>
      <trkpt lat="47.3604" lon="7.94439">
        <ele>390.1</ele>
        <time>2022-10-02T08:27:45Z</time>
      </trkpt>
      <trkpt lat="47.36041" lon="7.94446">
        <ele>390.1</ele>
        <time>2022-10-02T08:27:46Z</time>
      </trkpt>
      <trkpt lat="47.3604" lon="7.94452">
        <ele>390.1</ele>
        <time>2022-10-02T08:27:47Z</time>
      </trkpt>
      <trkpt lat="47.36041" lon="7.94458">
        <ele>390.1</ele>
        <time>2022-10-02T08:27:48Z</time>
      </trkpt>
      <trkpt lat="47.36041" lon="7.94465">
        <ele>390.1</ele>
        <time>2022-10-02T08:27:49Z</time>
      </trkpt>
      <trkpt lat="47.36041" lon="7.94472">
        <ele>390.1</ele>
        <time>2022-10-02T08:27:50Z</time>
      </trkpt>
      <trkpt lat="47.36041" lon="7.94478">
        <ele>390.1</ele>
        <time>2022-10-02T08:27:51Z</time>
      </trkpt>
      <trkpt lat="47.36042" lon="7.94484">
        <ele>390.1</ele>
        <time>2022-10-02T08:27:52Z</time>
      </trkpt>
      <trkpt lat="47.36042" lon="7.94491">
        <ele>390.1</ele>
        <time>2022-10-02T08:27:53Z</time>
      </trkpt>
      <trkpt lat="47.36042" lon="7.94498">
        <ele>390.1</ele>
        <time>2022-10-02T08:27:54Z</time>
      </trkpt>
      <trkpt lat="47.36042" lon="7.94503">
        <ele>390.1</ele>
        <time>2022-10-02T08:27:55Z</time>
      </trkpt>
      <trkpt lat="47.36042" lon="7.94509">
        <ele>390.1</ele>
        <time>2022-10-02T08:27:56Z</time>
      </trkpt>
      <trkpt lat="47.36042" lon="7.94516">
        <ele>390.1</ele>
        <time>2022-10-02T08:27:57Z</time>
      </trkpt>
      <trkpt lat="47.36042" lon="7.94522">
        <ele>390.1</ele>
        <time>2022-10-02T08:27:58Z</time>
      </trkpt>
      <trkpt lat="47.36042" lon="7.94528">
        <ele>390.1</ele>
        <time>2022-10-02T08:27:59Z</time>
      </trkpt>
      <trkpt lat="47.36042" lon="7.94534">
        <ele>390.1</ele>
        <time>2022-10-02T08:28:00Z</time>
      </trkpt>
      <trkpt lat="47.36043" lon="7.94539">
        <ele>390.1</ele>
        <time>2022-10-02T08:28:01Z</time>
      </trkpt>
      <trkpt lat="47.36043" lon="7.94547">
        <ele>390.1</ele>
        <time>2022-10-02T08:28:02Z</time>
      </trkpt>
      <trkpt lat="47.36043" lon="7.94553">
        <ele>390.1</ele>
        <time>2022-10-02T08:28:03Z</time>
      </trkpt>
      <trkpt lat="47.36042" lon="7.9456">
        <ele>390.1</ele>
        <time>2022-10-02T08:28:04Z</time>
      </trkpt>
      <trkpt lat="47.36043" lon="7.94566">
        <ele>390.1</ele>
        <time>2022-10-02T08:28:05Z</time>
      </trkpt>
      <trkpt lat="47.36043" lon="7.94572">
        <ele>390.1</ele>
        <time>2022-10-02T08:28:06Z</time>
      </trkpt>
      <trkpt lat="47.36043" lon="7.94578">
        <ele>390.1</ele>
        <time>2022-10-02T08:28:07Z</time>
      </trkpt>
      <trkpt lat="47.36044" lon="7.94584">
        <ele>390.1</ele>
        <time>2022-10-02T08:28:08Z</time>
      </trkpt>
      <trkpt lat="47.36044" lon="7.9459">
        <ele>390.1</ele>
        <time>2022-10-02T08:28:09Z</time>
      </trkpt>
      <trkpt lat="47.36045" lon="7.94597">
        <ele>390.1</ele>
        <time>2022-10-02T08:28:10Z</time>
      </trkpt>
      <trkpt lat="47.36045" lon="7.94603">
        <ele>390.1</ele>
        <time>2022-10-02T08:28:11Z</time>
      </trkpt>
      <trkpt lat="47.36045" lon="7.9461">
        <ele>390.1</ele>
        <time>2022-10-02T08:28:12Z</time>
      </trkpt>
      <trkpt lat="47.36045" lon="7.94615">
        <ele>390.1</ele>
        <time>2022-10-02T08:28:13Z</time>
      </trkpt>
      <trkpt lat="47.36045" lon="7.9462">
        <ele>390.1</ele>
        <time>2022-10-02T08:28:14Z</time>
      </trkpt>
      <trkpt lat="47.36045" lon="7.94625">
        <ele>390.1</ele>
        <time>2022-10-02T08:28:15Z</time>
      </trkpt>
      <trkpt lat="47.36046" lon="7.94631">
        <ele>390.1</ele>
        <time>2022-10-02T08:28:16Z</time>
      </trkpt>
      <trkpt lat="47.36046" lon="7.94636">
        <ele>390.1</ele>
        <time>2022-10-02T08:28:17Z</time>
      </trkpt>
      <trkpt lat="47.36046" lon="7.94641">
        <ele>390.1</ele>
        <time>2022-10-02T08:28:18Z</time>
      </trkpt>
      <trkpt lat="47.36046" lon="7.94645">
        <ele>390.1</ele>
        <time>2022-10-02T08:28:19Z</time>
      </trkpt>
      <trkpt lat="47.36046" lon="7.94652">
        <ele>390.1</ele>
        <time>2022-10-02T08:28:20Z</time>
      </trkpt>
      <trkpt lat="47.36045" lon="7.94657">
        <ele>390.1</ele>
        <time>2022-10-02T08:28:21Z</time>
      </trkpt>
      <trkpt lat="47.36046" lon="7.94663">
        <ele>390.1</ele>
        <time>2022-10-02T08:28:22Z</time>
      </trkpt>
      <trkpt lat="47.36046" lon="7.94668">
        <ele>390.1</ele>
        <time>2022-10-02T08:28:23Z</time>
      </trkpt>
      <trkpt lat="47.36046" lon="7.94673">
        <ele>390.1</ele>
        <time>2022-10-02T08:28:24Z</time>
      </trkpt>
      <trkpt lat="47.36046" lon="7.94679">
        <ele>390.1</ele>
        <time>2022-10-02T08:28:25Z</time>
      </trkpt>
      <trkpt lat="47.36047" lon="7.94685">
        <ele>390.1</ele>
        <time>2022-10-02T08:28:26Z</time>
      </trkpt>
      <trkpt lat="47.36047" lon="7.94691">
        <ele>390.1</ele>
        <time>2022-10-02T08:28:27Z</time>
      </trkpt>
      <trkpt lat="47.36048" lon="7.94696">
        <ele>390.1</ele>
        <time>2022-10-02T08:28:28Z</time>
      </trkpt>
      <trkpt lat="47.36049" lon="7.94702">
        <ele>390.1</ele>
        <time>2022-10-02T08:28:29Z</time>
      </trkpt>
      <trkpt lat="47.36048" lon="7.94709">
        <ele>390.1</ele>
        <time>2022-10-02T08:28:30Z</time>
      </trkpt>
      <trkpt lat="47.36048" lon="7.94714">
        <ele>390.1</ele>
        <time>2022-10-02T08:28:31Z</time>
      </trkpt>
      <trkpt lat="47.36049" lon="7.9472">
        <ele>390.1</ele>
        <time>2022-10-02T08:28:32Z</time>
      </trkpt>
      <trkpt lat="47.36049" lon="7.94726">
        <ele>390.1</ele>
        <time>2022-10-02T08:28:33Z</time>
      </trkpt>
      <trkpt lat="47.3605" lon="7.94731">
        <ele>390.1</ele>
        <time>2022-10-02T08:28:34Z</time>
      </trkpt>
      <trkpt lat="47.3605" lon="7.94738">
        <ele>390.1</ele>
        <time>2022-10-02T08:28:35Z</time>
      </trkpt>
      <trkpt lat="47.3605" lon="7.94743">
        <ele>390.1</ele>
        <time>2022-10-02T08:28:36Z</time>
      </trkpt>
      <trkpt lat="47.3605" lon="7.94748">
        <ele>390.1</ele>
        <time>2022-10-02T08:28:37Z</time>
      </trkpt>
      <trkpt lat="47.36051" lon="7.94754">
        <ele>390.1</ele>
        <time>2022-10-02T08:28:38Z</time>
      </trkpt>
      <trkpt lat="47.36051" lon="7.94759">
        <ele>390.1</ele>
        <time>2022-10-02T08:28:39Z</time>
      </trkpt>
      <trkpt lat="47.36051" lon="7.94765">
        <ele>390.1</ele>
        <time>2022-10-02T08:28:40Z</time>
      </trkpt>
      <trkpt lat="47.36052" lon="7.9477">
        <ele>390.1</ele>
        <time>2022-10-02T08:28:41Z</time>
      </trkpt>
      <trkpt lat="47.36052" lon="7.94775">
        <ele>390.1</ele>
        <time>2022-10-02T08:28:42Z</time>
      </trkpt>
      <trkpt lat="47.36053" lon="7.9478">
        <ele>390.1</ele>
        <time>2022-10-02T08:28:43Z</time>
      </trkpt>
      <trkpt lat="47.36053" lon="7.94786">
        <ele>390.1</ele>
        <time>2022-10-02T08:28:45Z</time>
      </trkpt>
      <trkpt lat="47.36054" lon="7.94791">
        <ele>390.1</ele>
        <time>2022-10-02T08:28:46Z</time>
      </trkpt>
      <trkpt lat="47.36053" lon="7.94798">
        <ele>390.1</ele>
        <time>2022-10-02T08:28:47Z</time>
      </trkpt>
      <trkpt lat="47.36055" lon="7.94809">
        <ele>390.1</ele>
        <time>2022-10-02T08:28:48Z</time>
      </trkpt>
      <trkpt lat="47.36057" lon="7.94815">
        <ele>390.1</ele>
        <time>2022-10-02T08:28:49Z</time>
      </trkpt>
      <trkpt lat="47.36057" lon="7.94821">
        <ele>390.1</ele>
        <time>2022-10-02T08:28:50Z</time>
      </trkpt>
      <trkpt lat="47.36057" lon="7.94827">
        <ele>390</ele>
        <time>2022-10-02T08:28:51Z</time>
      </trkpt>
      <trkpt lat="47.36059" lon="7.94832">
        <ele>390</ele>
        <time>2022-10-02T08:28:52Z</time>
      </trkpt>
      <trkpt lat="47.36059" lon="7.94839">
        <ele>390</ele>
        <time>2022-10-02T08:28:53Z</time>
      </trkpt>
      <trkpt lat="47.3606" lon="7.94845">
        <ele>390</ele>
        <time>2022-10-02T08:28:54Z</time>
      </trkpt>
      <trkpt lat="47.3606" lon="7.9485">
        <ele>390</ele>
        <time>2022-10-02T08:28:55Z</time>
      </trkpt>
      <trkpt lat="47.36061" lon="7.94856">
        <ele>390</ele>
        <time>2022-10-02T08:28:56Z</time>
      </trkpt>
      <trkpt lat="47.36062" lon="7.94861">
        <ele>390</ele>
        <time>2022-10-02T08:28:57Z</time>
      </trkpt>
      <trkpt lat="47.36063" lon="7.94867">
        <ele>390</ele>
        <time>2022-10-02T08:28:58Z</time>
      </trkpt>
      <trkpt lat="47.36064" lon="7.94872">
        <ele>390</ele>
        <time>2022-10-02T08:28:59Z</time>
      </trkpt>
      <trkpt lat="47.36065" lon="7.94878">
        <ele>390</ele>
        <time>2022-10-02T08:29:01Z</time>
      </trkpt>
      <trkpt lat="47.36066" lon="7.94885">
        <ele>390</ele>
        <time>2022-10-02T08:29:02Z</time>
      </trkpt>
      <trkpt lat="47.36066" lon="7.9489">
        <ele>390.1</ele>
        <time>2022-10-02T08:29:03Z</time>
      </trkpt>
      <trkpt lat="47.36067" lon="7.94896">
        <ele>390.1</ele>
        <time>2022-10-02T08:29:04Z</time>
      </trkpt>
      <trkpt lat="47.36067" lon="7.94898">
        <ele>390.1</ele>
        <time>2022-10-02T08:29:05Z</time>
      </trkpt>
      <trkpt lat="47.36067" lon="7.94904">
        <ele>390.1</ele>
        <time>2022-10-02T08:29:06Z</time>
      </trkpt>
      <trkpt lat="47.36068" lon="7.94908">
        <ele>390.1</ele>
        <time>2022-10-02T08:29:07Z</time>
      </trkpt>
      <trkpt lat="47.36069" lon="7.94913">
        <ele>390</ele>
        <time>2022-10-02T08:29:08Z</time>
      </trkpt>
      <trkpt lat="47.3607" lon="7.94918">
        <ele>390</ele>
        <time>2022-10-02T08:29:09Z</time>
      </trkpt>
      <trkpt lat="47.36071" lon="7.94924">
        <ele>390</ele>
        <time>2022-10-02T08:29:10Z</time>
      </trkpt>
      <trkpt lat="47.36073" lon="7.94929">
        <ele>390</ele>
        <time>2022-10-02T08:29:11Z</time>
      </trkpt>
      <trkpt lat="47.36074" lon="7.94934">
        <ele>390</ele>
        <time>2022-10-02T08:29:12Z</time>
      </trkpt>
      <trkpt lat="47.36075" lon="7.94939">
        <ele>390</ele>
        <time>2022-10-02T08:29:13Z</time>
      </trkpt>
      <trkpt lat="47.36075" lon="7.94944">
        <ele>390</ele>
        <time>2022-10-02T08:29:14Z</time>
      </trkpt>
      <trkpt lat="47.36076" lon="7.9495">
        <ele>390</ele>
        <time>2022-10-02T08:29:15Z</time>
      </trkpt>
      <trkpt lat="47.36077" lon="7.94955">
        <ele>390</ele>
        <time>2022-10-02T08:29:16Z</time>
      </trkpt>
      <trkpt lat="47.36078" lon="7.94961">
        <ele>390</ele>
        <time>2022-10-02T08:29:17Z</time>
      </trkpt>
      <trkpt lat="47.36079" lon="7.94971">
        <ele>389.9</ele>
        <time>2022-10-02T08:29:18Z</time>
      </trkpt>
      <trkpt lat="47.3608" lon="7.94975">
        <ele>389.9</ele>
        <time>2022-10-02T08:29:19Z</time>
      </trkpt>
      <trkpt lat="47.36081" lon="7.9498">
        <ele>389.9</ele>
        <time>2022-10-02T08:29:20Z</time>
      </trkpt>
      <trkpt lat="47.36082" lon="7.94984">
        <ele>389.9</ele>
        <time>2022-10-02T08:29:21Z</time>
      </trkpt>
      <trkpt lat="47.36083" lon="7.94989">
        <ele>389.9</ele>
        <time>2022-10-02T08:29:22Z</time>
      </trkpt>
      <trkpt lat="47.36084" lon="7.94993">
        <ele>389.9</ele>
        <time>2022-10-02T08:29:23Z</time>
      </trkpt>
      <trkpt lat="47.36085" lon="7.94998">
        <ele>389.9</ele>
        <time>2022-10-02T08:29:24Z</time>
      </trkpt>
      <trkpt lat="47.36086" lon="7.95003">
        <ele>389.8</ele>
        <time>2022-10-02T08:29:25Z</time>
      </trkpt>
      <trkpt lat="47.36087" lon="7.95008">
        <ele>389.8</ele>
        <time>2022-10-02T08:29:26Z</time>
      </trkpt>
      <trkpt lat="47.36088" lon="7.95012">
        <ele>389.8</ele>
        <time>2022-10-02T08:29:27Z</time>
      </trkpt>
      <trkpt lat="47.36089" lon="7.95017">
        <ele>389.8</ele>
        <time>2022-10-02T08:29:28Z</time>
      </trkpt>
      <trkpt lat="47.36089" lon="7.95022">
        <ele>389.8</ele>
        <time>2022-10-02T08:29:29Z</time>
      </trkpt>
      <trkpt lat="47.36091" lon="7.95027">
        <ele>389.8</ele>
        <time>2022-10-02T08:29:30Z</time>
      </trkpt>
      <trkpt lat="47.36092" lon="7.95029">
        <ele>389.8</ele>
        <time>2022-10-02T08:29:31Z</time>
      </trkpt>
      <trkpt lat="47.36092" lon="7.95033">
        <ele>389.8</ele>
        <time>2022-10-02T08:29:32Z</time>
      </trkpt>
      <trkpt lat="47.36093" lon="7.95038">
        <ele>389.8</ele>
        <time>2022-10-02T08:29:33Z</time>
      </trkpt>
      <trkpt lat="47.36094" lon="7.95042">
        <ele>389.8</ele>
        <time>2022-10-02T08:29:34Z</time>
      </trkpt>
      <trkpt lat="47.36095" lon="7.95046">
        <ele>389.8</ele>
        <time>2022-10-02T08:29:35Z</time>
      </trkpt>
      <trkpt lat="47.36097" lon="7.9505">
        <ele>389.8</ele>
        <time>2022-10-02T08:29:36Z</time>
      </trkpt>
      <trkpt lat="47.36097" lon="7.95052">
        <ele>389.8</ele>
        <time>2022-10-02T08:29:37Z</time>
      </trkpt>
      <trkpt lat="47.36098" lon="7.95056">
        <ele>389.8</ele>
        <time>2022-10-02T08:29:38Z</time>
      </trkpt>
      <trkpt lat="47.36098" lon="7.95061">
        <ele>389.8</ele>
        <time>2022-10-02T08:29:39Z</time>
      </trkpt>
      <trkpt lat="47.361" lon="7.95067">
        <ele>389.8</ele>
        <time>2022-10-02T08:29:40Z</time>
      </trkpt>
      <trkpt lat="47.361" lon="7.95069">
        <ele>389.8</ele>
        <time>2022-10-02T08:29:41Z</time>
      </trkpt>
      <trkpt lat="47.36102" lon="7.95073">
        <ele>389.8</ele>
        <time>2022-10-02T08:29:42Z</time>
      </trkpt>
      <trkpt lat="47.36103" lon="7.95079">
        <ele>389.8</ele>
        <time>2022-10-02T08:29:43Z</time>
      </trkpt>
      <trkpt lat="47.36104" lon="7.95082">
        <ele>389.8</ele>
        <time>2022-10-02T08:29:44Z</time>
      </trkpt>
      <trkpt lat="47.36105" lon="7.95087">
        <ele>389.8</ele>
        <time>2022-10-02T08:29:45Z</time>
      </trkpt>
      <trkpt lat="47.36106" lon="7.95091">
        <ele>389.8</ele>
        <time>2022-10-02T08:29:46Z</time>
      </trkpt>
      <trkpt lat="47.36107" lon="7.95095">
        <ele>389.7</ele>
        <time>2022-10-02T08:29:47Z</time>
      </trkpt>
      <trkpt lat="47.36108" lon="7.951">
        <ele>389.7</ele>
        <time>2022-10-02T08:29:48Z</time>
      </trkpt>
      <trkpt lat="47.3611" lon="7.95105">
        <ele>389.7</ele>
        <time>2022-10-02T08:29:49Z</time>
      </trkpt>
      <trkpt lat="47.36112" lon="7.9511">
        <ele>389.7</ele>
        <time>2022-10-02T08:29:50Z</time>
      </trkpt>
      <trkpt lat="47.36113" lon="7.95116">
        <ele>389.7</ele>
        <time>2022-10-02T08:29:51Z</time>
      </trkpt>
      <trkpt lat="47.36115" lon="7.95122">
        <ele>389.6</ele>
        <time>2022-10-02T08:29:52Z</time>
      </trkpt>
      <trkpt lat="47.36115" lon="7.95124">
        <ele>389.6</ele>
        <time>2022-10-02T08:29:53Z</time>
      </trkpt>
      <trkpt lat="47.36117" lon="7.9513">
        <ele>389.6</ele>
        <time>2022-10-02T08:29:54Z</time>
      </trkpt>
      <trkpt lat="47.36118" lon="7.95135">
        <ele>389.6</ele>
        <time>2022-10-02T08:29:55Z</time>
      </trkpt>
      <trkpt lat="47.3612" lon="7.95141">
        <ele>389.5</ele>
        <time>2022-10-02T08:29:56Z</time>
      </trkpt>
      <trkpt lat="47.36122" lon="7.95146">
        <ele>389.5</ele>
        <time>2022-10-02T08:29:57Z</time>
      </trkpt>
      <trkpt lat="47.36123" lon="7.95152">
        <ele>389.5</ele>
        <time>2022-10-02T08:29:58Z</time>
      </trkpt>
      <trkpt lat="47.36124" lon="7.95157">
        <ele>389.5</ele>
        <time>2022-10-02T08:29:59Z</time>
      </trkpt>
      <trkpt lat="47.36126" lon="7.95162">
        <ele>389.5</ele>
        <time>2022-10-02T08:30:00Z</time>
      </trkpt>
      <trkpt lat="47.36127" lon="7.95166">
        <ele>389.4</ele>
        <time>2022-10-02T08:30:01Z</time>
      </trkpt>
      <trkpt lat="47.36129" lon="7.95172">
        <ele>389.4</ele>
        <time>2022-10-02T08:30:02Z</time>
      </trkpt>
      <trkpt lat="47.3613" lon="7.95176">
        <ele>389.4</ele>
        <time>2022-10-02T08:30:03Z</time>
      </trkpt>
      <trkpt lat="47.36132" lon="7.95181">
        <ele>389.4</ele>
        <time>2022-10-02T08:30:04Z</time>
      </trkpt>
      <trkpt lat="47.36133" lon="7.95186">
        <ele>389.4</ele>
        <time>2022-10-02T08:30:05Z</time>
      </trkpt>
      <trkpt lat="47.36135" lon="7.9519">
        <ele>389.4</ele>
        <time>2022-10-02T08:30:06Z</time>
      </trkpt>
      <trkpt lat="47.36136" lon="7.95196">
        <ele>389.3</ele>
        <time>2022-10-02T08:30:07Z</time>
      </trkpt>
      <trkpt lat="47.36138" lon="7.95199">
        <ele>389.3</ele>
        <time>2022-10-02T08:30:08Z</time>
      </trkpt>
      <trkpt lat="47.36139" lon="7.95203">
        <ele>389.3</ele>
        <time>2022-10-02T08:30:09Z</time>
      </trkpt>
      <trkpt lat="47.36141" lon="7.95208">
        <ele>389.3</ele>
        <time>2022-10-02T08:30:10Z</time>
      </trkpt>
      <trkpt lat="47.36142" lon="7.95213">
        <ele>389.3</ele>
        <time>2022-10-02T08:30:11Z</time>
      </trkpt>
      <trkpt lat="47.36144" lon="7.95218">
        <ele>389.3</ele>
        <time>2022-10-02T08:30:12Z</time>
      </trkpt>
      <trkpt lat="47.36145" lon="7.9522">
        <ele>389.3</ele>
        <time>2022-10-02T08:30:13Z</time>
      </trkpt>
      <trkpt lat="47.36147" lon="7.95224">
        <ele>389.3</ele>
        <time>2022-10-02T08:30:14Z</time>
      </trkpt>
      <trkpt lat="47.36148" lon="7.9523">
        <ele>389.3</ele>
        <time>2022-10-02T08:30:15Z</time>
      </trkpt>
      <trkpt lat="47.36149" lon="7.95234">
        <ele>389.3</ele>
        <time>2022-10-02T08:30:16Z</time>
      </trkpt>
      <trkpt lat="47.36151" lon="7.95237">
        <ele>389.3</ele>
        <time>2022-10-02T08:30:17Z</time>
      </trkpt>
      <trkpt lat="47.36153" lon="7.9524">
        <ele>389.3</ele>
        <time>2022-10-02T08:30:18Z</time>
      </trkpt>
      <trkpt lat="47.36154" lon="7.95245">
        <ele>389.3</ele>
        <time>2022-10-02T08:30:19Z</time>
      </trkpt>
      <trkpt lat="47.36155" lon="7.9525">
        <ele>389.3</ele>
        <time>2022-10-02T08:30:20Z</time>
      </trkpt>
      <trkpt lat="47.36157" lon="7.95254">
        <ele>389.3</ele>
        <time>2022-10-02T08:30:21Z</time>
      </trkpt>
      <trkpt lat="47.36159" lon="7.95259">
        <ele>389.3</ele>
        <time>2022-10-02T08:30:22Z</time>
      </trkpt>
      <trkpt lat="47.36161" lon="7.95263">
        <ele>389.3</ele>
        <time>2022-10-02T08:30:23Z</time>
      </trkpt>
      <trkpt lat="47.36162" lon="7.95268">
        <ele>389.3</ele>
        <time>2022-10-02T08:30:24Z</time>
      </trkpt>
      <trkpt lat="47.36164" lon="7.95272">
        <ele>389.3</ele>
        <time>2022-10-02T08:30:25Z</time>
      </trkpt>
      <trkpt lat="47.36166" lon="7.95277">
        <ele>389.3</ele>
        <time>2022-10-02T08:30:26Z</time>
      </trkpt>
      <trkpt lat="47.36168" lon="7.95282">
        <ele>389.3</ele>
        <time>2022-10-02T08:30:27Z</time>
      </trkpt>
      <trkpt lat="47.3617" lon="7.95286">
        <ele>389.3</ele>
        <time>2022-10-02T08:30:28Z</time>
      </trkpt>
      <trkpt lat="47.36171" lon="7.95291">
        <ele>389.3</ele>
        <time>2022-10-02T08:30:29Z</time>
      </trkpt>
      <trkpt lat="47.36173" lon="7.95294">
        <ele>389.3</ele>
        <time>2022-10-02T08:30:30Z</time>
      </trkpt>
      <trkpt lat="47.36174" lon="7.953">
        <ele>389.3</ele>
        <time>2022-10-02T08:30:31Z</time>
      </trkpt>
      <trkpt lat="47.36176" lon="7.95305">
        <ele>389.3</ele>
        <time>2022-10-02T08:30:32Z</time>
      </trkpt>
      <trkpt lat="47.36178" lon="7.95309">
        <ele>389.4</ele>
        <time>2022-10-02T08:30:33Z</time>
      </trkpt>
      <trkpt lat="47.36179" lon="7.95314">
        <ele>389.4</ele>
        <time>2022-10-02T08:30:34Z</time>
      </trkpt>
      <trkpt lat="47.36181" lon="7.95317">
        <ele>389.4</ele>
        <time>2022-10-02T08:30:35Z</time>
      </trkpt>
      <trkpt lat="47.36182" lon="7.95322">
        <ele>389.5</ele>
        <time>2022-10-02T08:30:36Z</time>
      </trkpt>
      <trkpt lat="47.36184" lon="7.95326">
        <ele>389.6</ele>
        <time>2022-10-02T08:30:37Z</time>
      </trkpt>
      <trkpt lat="47.36185" lon="7.9533">
        <ele>389.6</ele>
        <time>2022-10-02T08:30:38Z</time>
      </trkpt>
      <trkpt lat="47.36187" lon="7.95334">
        <ele>389.7</ele>
        <time>2022-10-02T08:30:39Z</time>
      </trkpt>
      <trkpt lat="47.36189" lon="7.95338">
        <ele>389.8</ele>
        <time>2022-10-02T08:30:40Z</time>
      </trkpt>
      <trkpt lat="47.36191" lon="7.95343">
        <ele>389.9</ele>
        <time>2022-10-02T08:30:41Z</time>
      </trkpt>
      <trkpt lat="47.36191" lon="7.95344">
        <ele>389.9</ele>
        <time>2022-10-02T08:30:42Z</time>
      </trkpt>
      <trkpt lat="47.36192" lon="7.95347">
        <ele>390</ele>
        <time>2022-10-02T08:30:43Z</time>
      </trkpt>
      <trkpt lat="47.36192" lon="7.95348">
        <ele>390</ele>
        <time>2022-10-02T08:30:44Z</time>
      </trkpt>
      <trkpt lat="47.36193" lon="7.95349">
        <ele>390</ele>
        <time>2022-10-02T08:30:45Z</time>
      </trkpt>
      <trkpt lat="47.36193" lon="7.95354">
        <ele>390.1</ele>
        <time>2022-10-02T08:30:46Z</time>
      </trkpt>
      <trkpt lat="47.36194" lon="7.95356">
        <ele>390.1</ele>
        <time>2022-10-02T08:30:47Z</time>
      </trkpt>
      <trkpt lat="47.36197" lon="7.95359">
        <ele>390</ele>
        <time>2022-10-02T08:30:48Z</time>
      </trkpt>
      <trkpt lat="47.36198" lon="7.9536">
        <ele>390</ele>
        <time>2022-10-02T08:30:49Z</time>
      </trkpt>
      <trkpt lat="47.362" lon="7.95364">
        <ele>390</ele>
        <time>2022-10-02T08:30:50Z</time>
      </trkpt>
      <trkpt lat="47.36201" lon="7.95365">
        <ele>389.9</ele>
        <time>2022-10-02T08:30:51Z</time>
      </trkpt>
      <trkpt lat="47.36203" lon="7.9537">
        <ele>389.9</ele>
        <time>2022-10-02T08:30:52Z</time>
      </trkpt>
      <trkpt lat="47.36203" lon="7.95372">
        <ele>389.8</ele>
        <time>2022-10-02T08:30:53Z</time>
      </trkpt>
      <trkpt lat="47.36205" lon="7.95376">
        <ele>389.8</ele>
        <time>2022-10-02T08:30:54Z</time>
      </trkpt>
      <trkpt lat="47.36207" lon="7.9538">
        <ele>389.7</ele>
        <time>2022-10-02T08:30:55Z</time>
      </trkpt>
      <trkpt lat="47.3621" lon="7.95384">
        <ele>389.7</ele>
        <time>2022-10-02T08:30:56Z</time>
      </trkpt>
      <trkpt lat="47.36212" lon="7.95387">
        <ele>389.6</ele>
        <time>2022-10-02T08:30:57Z</time>
      </trkpt>
      <trkpt lat="47.36214" lon="7.95391">
        <ele>389.6</ele>
        <time>2022-10-02T08:30:58Z</time>
      </trkpt>
      <trkpt lat="47.36215" lon="7.95395">
        <ele>389.6</ele>
        <time>2022-10-02T08:30:59Z</time>
      </trkpt>
      <trkpt lat="47.36217" lon="7.954">
        <ele>389.6</ele>
        <time>2022-10-02T08:31:00Z</time>
      </trkpt>
      <trkpt lat="47.36218" lon="7.95401">
        <ele>389.6</ele>
        <time>2022-10-02T08:31:01Z</time>
      </trkpt>
      <trkpt lat="47.3622" lon="7.95404">
        <ele>389.6</ele>
        <time>2022-10-02T08:31:02Z</time>
      </trkpt>
      <trkpt lat="47.36222" lon="7.95408">
        <ele>389.6</ele>
        <time>2022-10-02T08:31:03Z</time>
      </trkpt>
      <trkpt lat="47.36223" lon="7.95409">
        <ele>389.6</ele>
        <time>2022-10-02T08:31:04Z</time>
      </trkpt>
      <trkpt lat="47.36225" lon="7.95414">
        <ele>389.6</ele>
        <time>2022-10-02T08:31:05Z</time>
      </trkpt>
      <trkpt lat="47.36226" lon="7.95416">
        <ele>389.6</ele>
        <time>2022-10-02T08:31:06Z</time>
      </trkpt>
      <trkpt lat="47.36228" lon="7.9542">
        <ele>389.6</ele>
        <time>2022-10-02T08:31:07Z</time>
      </trkpt>
      <trkpt lat="47.3623" lon="7.95423">
        <ele>389.6</ele>
        <time>2022-10-02T08:31:08Z</time>
      </trkpt>
      <trkpt lat="47.36232" lon="7.95427">
        <ele>389.7</ele>
        <time>2022-10-02T08:31:09Z</time>
      </trkpt>
      <trkpt lat="47.36234" lon="7.95431">
        <ele>389.7</ele>
        <time>2022-10-02T08:31:10Z</time>
      </trkpt>
      <trkpt lat="47.36235" lon="7.95435">
        <ele>389.7</ele>
        <time>2022-10-02T08:31:11Z</time>
      </trkpt>
      <trkpt lat="47.36237" lon="7.95438">
        <ele>389.7</ele>
        <time>2022-10-02T08:31:12Z</time>
      </trkpt>
      <trkpt lat="47.36239" lon="7.95441">
        <ele>389.7</ele>
        <time>2022-10-02T08:31:13Z</time>
      </trkpt>
      <trkpt lat="47.36241" lon="7.95445">
        <ele>389.8</ele>
        <time>2022-10-02T08:31:14Z</time>
      </trkpt>
      <trkpt lat="47.36243" lon="7.95449">
        <ele>389.8</ele>
        <time>2022-10-02T08:31:15Z</time>
      </trkpt>
      <trkpt lat="47.36246" lon="7.95452">
        <ele>389.8</ele>
        <time>2022-10-02T08:31:16Z</time>
      </trkpt>
      <trkpt lat="47.36248" lon="7.95455">
        <ele>389.8</ele>
        <time>2022-10-02T08:31:17Z</time>
      </trkpt>
      <trkpt lat="47.3625" lon="7.95459">
        <ele>389.8</ele>
        <time>2022-10-02T08:31:18Z</time>
      </trkpt>
      <trkpt lat="47.36252" lon="7.95462">
        <ele>389.9</ele>
        <time>2022-10-02T08:31:19Z</time>
      </trkpt>
      <trkpt lat="47.36254" lon="7.95466">
        <ele>389.9</ele>
        <time>2022-10-02T08:31:20Z</time>
      </trkpt>
      <trkpt lat="47.36255" lon="7.9547">
        <ele>389.9</ele>
        <time>2022-10-02T08:31:21Z</time>
      </trkpt>
      <trkpt lat="47.36257" lon="7.95473">
        <ele>389.9</ele>
        <time>2022-10-02T08:31:22Z</time>
      </trkpt>
      <trkpt lat="47.36259" lon="7.95476">
        <ele>390</ele>
        <time>2022-10-02T08:31:23Z</time>
      </trkpt>
      <trkpt lat="47.36261" lon="7.9548">
        <ele>390</ele>
        <time>2022-10-02T08:31:24Z</time>
      </trkpt>
      <trkpt lat="47.36263" lon="7.95483">
        <ele>390</ele>
        <time>2022-10-02T08:31:25Z</time>
      </trkpt>
      <trkpt lat="47.36265" lon="7.95487">
        <ele>390</ele>
        <time>2022-10-02T08:31:26Z</time>
      </trkpt>
      <trkpt lat="47.36267" lon="7.95489">
        <ele>390</ele>
        <time>2022-10-02T08:31:27Z</time>
      </trkpt>
      <trkpt lat="47.36268" lon="7.95491">
        <ele>390</ele>
        <time>2022-10-02T08:31:28Z</time>
      </trkpt>
      <trkpt lat="47.36267" lon="7.9549">
        <ele>390</ele>
        <time>2022-10-02T08:31:29Z</time>
      </trkpt>
      <trkpt lat="47.36267" lon="7.95489">
        <ele>390</ele>
        <time>2022-10-02T08:31:30Z</time>
      </trkpt>
      <trkpt lat="47.36268" lon="7.95489">
        <ele>390</ele>
        <time>2022-10-02T08:31:31Z</time>
      </trkpt>
      <trkpt lat="47.36268" lon="7.95489">
        <ele>390</ele>
        <time>2022-10-02T08:31:32Z</time>
      </trkpt>
      <trkpt lat="47.36267" lon="7.95489">
        <ele>390</ele>
        <time>2022-10-02T08:31:33Z</time>
      </trkpt>
      <trkpt lat="47.36267" lon="7.95489">
        <ele>390</ele>
        <time>2022-10-02T08:31:34Z</time>
      </trkpt>
      <trkpt lat="47.36267" lon="7.95488">
        <ele>390</ele>
        <time>2022-10-02T08:31:35Z</time>
      </trkpt>
      <trkpt lat="47.36266" lon="7.95488">
        <ele>390</ele>
        <time>2022-10-02T08:31:36Z</time>
      </trkpt>
      <trkpt lat="47.36266" lon="7.95487">
        <ele>390</ele>
        <time>2022-10-02T08:31:37Z</time>
      </trkpt>
      <trkpt lat="47.36266" lon="7.95486">
        <ele>390</ele>
        <time>2022-10-02T08:31:38Z</time>
      </trkpt>
      <trkpt lat="47.36269" lon="7.95491">
        <ele>390</ele>
        <time>2022-10-02T08:32:49Z</time>
      </trkpt>
      <trkpt lat="47.36269" lon="7.95492">
        <ele>390</ele>
        <time>2022-10-02T08:32:50Z</time>
      </trkpt>
      <trkpt lat="47.3627" lon="7.95493">
        <ele>390</ele>
        <time>2022-10-02T08:32:51Z</time>
      </trkpt>
      <trkpt lat="47.36272" lon="7.95496">
        <ele>390</ele>
        <time>2022-10-02T08:32:52Z</time>
      </trkpt>
      <trkpt lat="47.36273" lon="7.95499">
        <ele>390</ele>
        <time>2022-10-02T08:32:53Z</time>
      </trkpt>
      <trkpt lat="47.36274" lon="7.95501">
        <ele>390</ele>
        <time>2022-10-02T08:32:55Z</time>
      </trkpt>
      <trkpt lat="47.36275" lon="7.95503">
        <ele>390</ele>
        <time>2022-10-02T08:32:56Z</time>
      </trkpt>
      <trkpt lat="47.36275" lon="7.95505">
        <ele>390</ele>
        <time>2022-10-02T08:32:57Z</time>
      </trkpt>
      <trkpt lat="47.36278" lon="7.95509">
        <ele>389.9</ele>
        <time>2022-10-02T08:32:58Z</time>
      </trkpt>
      <trkpt lat="47.36279" lon="7.95511">
        <ele>389.9</ele>
        <time>2022-10-02T08:32:59Z</time>
      </trkpt>
      <trkpt lat="47.36281" lon="7.95515">
        <ele>389.9</ele>
        <time>2022-10-02T08:33:00Z</time>
      </trkpt>
      <trkpt lat="47.36282" lon="7.95516">
        <ele>389.9</ele>
        <time>2022-10-02T08:33:01Z</time>
      </trkpt>
      <trkpt lat="47.36285" lon="7.95519">
        <ele>389.9</ele>
        <time>2022-10-02T08:33:02Z</time>
      </trkpt>
      <trkpt lat="47.36288" lon="7.95524">
        <ele>389.9</ele>
        <time>2022-10-02T08:33:03Z</time>
      </trkpt>
      <trkpt lat="47.36289" lon="7.95525">
        <ele>389.9</ele>
        <time>2022-10-02T08:33:04Z</time>
      </trkpt>
      <trkpt lat="47.3629" lon="7.95529">
        <ele>389.9</ele>
        <time>2022-10-02T08:33:05Z</time>
      </trkpt>
      <trkpt lat="47.36293" lon="7.95534">
        <ele>389.9</ele>
        <time>2022-10-02T08:33:06Z</time>
      </trkpt>
      <trkpt lat="47.36294" lon="7.95535">
        <ele>389.9</ele>
        <time>2022-10-02T08:33:07Z</time>
      </trkpt>
      <trkpt lat="47.36296" lon="7.95538">
        <ele>389.9</ele>
        <time>2022-10-02T08:33:08Z</time>
      </trkpt>
      <trkpt lat="47.36299" lon="7.95542">
        <ele>389.9</ele>
        <time>2022-10-02T08:33:09Z</time>
      </trkpt>
      <trkpt lat="47.36301" lon="7.95545">
        <ele>389.9</ele>
        <time>2022-10-02T08:33:10Z</time>
      </trkpt>
      <trkpt lat="47.36304" lon="7.95549">
        <ele>389.9</ele>
        <time>2022-10-02T08:33:11Z</time>
      </trkpt>
      <trkpt lat="47.36309" lon="7.95556">
        <ele>389.9</ele>
        <time>2022-10-02T08:33:12Z</time>
      </trkpt>
      <trkpt lat="47.36311" lon="7.9556">
        <ele>389.9</ele>
        <time>2022-10-02T08:33:13Z</time>
      </trkpt>
      <trkpt lat="47.36314" lon="7.95564">
        <ele>389.9</ele>
        <time>2022-10-02T08:33:14Z</time>
      </trkpt>
      <trkpt lat="47.36317" lon="7.95567">
        <ele>389.9</ele>
        <time>2022-10-02T08:33:15Z</time>
      </trkpt>
      <trkpt lat="47.36319" lon="7.9557">
        <ele>389.9</ele>
        <time>2022-10-02T08:33:16Z</time>
      </trkpt>
      <trkpt lat="47.36321" lon="7.95575">
        <ele>389.9</ele>
        <time>2022-10-02T08:33:17Z</time>
      </trkpt>
      <trkpt lat="47.36324" lon="7.95579">
        <ele>389.9</ele>
        <time>2022-10-02T08:33:18Z</time>
      </trkpt>
      <trkpt lat="47.36326" lon="7.95582">
        <ele>389.9</ele>
        <time>2022-10-02T08:33:19Z</time>
      </trkpt>
      <trkpt lat="47.36329" lon="7.95586">
        <ele>389.9</ele>
        <time>2022-10-02T08:33:20Z</time>
      </trkpt>
      <trkpt lat="47.36332" lon="7.9559">
        <ele>389.9</ele>
        <time>2022-10-02T08:33:21Z</time>
      </trkpt>
      <trkpt lat="47.36334" lon="7.95594">
        <ele>389.9</ele>
        <time>2022-10-02T08:33:22Z</time>
      </trkpt>
      <trkpt lat="47.36337" lon="7.95597">
        <ele>389.9</ele>
        <time>2022-10-02T08:33:23Z</time>
      </trkpt>
      <trkpt lat="47.3634" lon="7.95601">
        <ele>389.9</ele>
        <time>2022-10-02T08:33:24Z</time>
      </trkpt>
      <trkpt lat="47.36343" lon="7.95605">
        <ele>389.9</ele>
        <time>2022-10-02T08:33:25Z</time>
      </trkpt>
      <trkpt lat="47.36345" lon="7.95608">
        <ele>389.9</ele>
        <time>2022-10-02T08:33:26Z</time>
      </trkpt>
      <trkpt lat="47.36347" lon="7.95612">
        <ele>389.9</ele>
        <time>2022-10-02T08:33:27Z</time>
      </trkpt>
      <trkpt lat="47.3635" lon="7.95615">
        <ele>389.9</ele>
        <time>2022-10-02T08:33:28Z</time>
      </trkpt>
      <trkpt lat="47.36353" lon="7.9562">
        <ele>389.9</ele>
        <time>2022-10-02T08:33:29Z</time>
      </trkpt>
      <trkpt lat="47.36356" lon="7.95623">
        <ele>389.9</ele>
        <time>2022-10-02T08:33:30Z</time>
      </trkpt>
      <trkpt lat="47.36359" lon="7.95628">
        <ele>389.9</ele>
        <time>2022-10-02T08:33:31Z</time>
      </trkpt>
      <trkpt lat="47.36362" lon="7.95632">
        <ele>389.9</ele>
        <time>2022-10-02T08:33:32Z</time>
      </trkpt>
      <trkpt lat="47.36365" lon="7.95636">
        <ele>389.9</ele>
        <time>2022-10-02T08:33:33Z</time>
      </trkpt>
      <trkpt lat="47.36368" lon="7.95639">
        <ele>389.9</ele>
        <time>2022-10-02T08:33:34Z</time>
      </trkpt>
      <trkpt lat="47.3637" lon="7.95642">
        <ele>389.9</ele>
        <time>2022-10-02T08:33:35Z</time>
      </trkpt>
      <trkpt lat="47.36374" lon="7.95646">
        <ele>389.9</ele>
        <time>2022-10-02T08:33:36Z</time>
      </trkpt>
      <trkpt lat="47.36376" lon="7.95651">
        <ele>389.9</ele>
        <time>2022-10-02T08:33:37Z</time>
      </trkpt>
      <trkpt lat="47.3638" lon="7.95654">
        <ele>389.9</ele>
        <time>2022-10-02T08:33:38Z</time>
      </trkpt>
      <trkpt lat="47.36383" lon="7.95658">
        <ele>389.9</ele>
        <time>2022-10-02T08:33:39Z</time>
      </trkpt>
      <trkpt lat="47.36386" lon="7.95661">
        <ele>389.9</ele>
        <time>2022-10-02T08:33:40Z</time>
      </trkpt>
      <trkpt lat="47.36389" lon="7.95665">
        <ele>389.9</ele>
        <time>2022-10-02T08:33:41Z</time>
      </trkpt>
      <trkpt lat="47.36392" lon="7.95669">
        <ele>389.9</ele>
        <time>2022-10-02T08:33:42Z</time>
      </trkpt>
      <trkpt lat="47.36396" lon="7.95673">
        <ele>389.9</ele>
        <time>2022-10-02T08:33:43Z</time>
      </trkpt>
      <trkpt lat="47.36399" lon="7.95677">
        <ele>389.9</ele>
        <time>2022-10-02T08:33:44Z</time>
      </trkpt>
      <trkpt lat="47.36402" lon="7.9568">
        <ele>389.9</ele>
        <time>2022-10-02T08:33:45Z</time>
      </trkpt>
      <trkpt lat="47.36405" lon="7.95684">
        <ele>389.9</ele>
        <time>2022-10-02T08:33:46Z</time>
      </trkpt>
      <trkpt lat="47.36408" lon="7.95687">
        <ele>389.9</ele>
        <time>2022-10-02T08:33:47Z</time>
      </trkpt>
      <trkpt lat="47.3641" lon="7.9569">
        <ele>389.9</ele>
        <time>2022-10-02T08:33:48Z</time>
      </trkpt>
      <trkpt lat="47.36414" lon="7.95694">
        <ele>389.9</ele>
        <time>2022-10-02T08:33:49Z</time>
      </trkpt>
      <trkpt lat="47.36416" lon="7.95697">
        <ele>389.9</ele>
        <time>2022-10-02T08:33:50Z</time>
      </trkpt>
      <trkpt lat="47.36419" lon="7.957">
        <ele>389.9</ele>
        <time>2022-10-02T08:33:51Z</time>
      </trkpt>
      <trkpt lat="47.36422" lon="7.95701">
        <ele>389.9</ele>
        <time>2022-10-02T08:33:52Z</time>
      </trkpt>
      <trkpt lat="47.36424" lon="7.95705">
        <ele>389.9</ele>
        <time>2022-10-02T08:33:53Z</time>
      </trkpt>
      <trkpt lat="47.36428" lon="7.95708">
        <ele>389.9</ele>
        <time>2022-10-02T08:33:54Z</time>
      </trkpt>
      <trkpt lat="47.3643" lon="7.95711">
        <ele>389.9</ele>
        <time>2022-10-02T08:33:55Z</time>
      </trkpt>
      <trkpt lat="47.36433" lon="7.95714">
        <ele>389.9</ele>
        <time>2022-10-02T08:33:56Z</time>
      </trkpt>
      <trkpt lat="47.36436" lon="7.95718">
        <ele>389.9</ele>
        <time>2022-10-02T08:33:57Z</time>
      </trkpt>
      <trkpt lat="47.36439" lon="7.9572">
        <ele>389.9</ele>
        <time>2022-10-02T08:33:58Z</time>
      </trkpt>
      <trkpt lat="47.36442" lon="7.95723">
        <ele>389.9</ele>
        <time>2022-10-02T08:33:59Z</time>
      </trkpt>
      <trkpt lat="47.36444" lon="7.95726">
        <ele>389.9</ele>
        <time>2022-10-02T08:34:00Z</time>
      </trkpt>
      <trkpt lat="47.36448" lon="7.9573">
        <ele>389.9</ele>
        <time>2022-10-02T08:34:01Z</time>
      </trkpt>
      <trkpt lat="47.36451" lon="7.95733">
        <ele>389.9</ele>
        <time>2022-10-02T08:34:02Z</time>
      </trkpt>
      <trkpt lat="47.36454" lon="7.95735">
        <ele>389.9</ele>
        <time>2022-10-02T08:34:03Z</time>
      </trkpt>
      <trkpt lat="47.36457" lon="7.95738">
        <ele>389.9</ele>
        <time>2022-10-02T08:34:04Z</time>
      </trkpt>
      <trkpt lat="47.36461" lon="7.95742">
        <ele>389.9</ele>
        <time>2022-10-02T08:34:05Z</time>
      </trkpt>
      <trkpt lat="47.36463" lon="7.95745">
        <ele>389.9</ele>
        <time>2022-10-02T08:34:06Z</time>
      </trkpt>
      <trkpt lat="47.36466" lon="7.95749">
        <ele>389.9</ele>
        <time>2022-10-02T08:34:07Z</time>
      </trkpt>
      <trkpt lat="47.3647" lon="7.95752">
        <ele>389.9</ele>
        <time>2022-10-02T08:34:08Z</time>
      </trkpt>
      <trkpt lat="47.36473" lon="7.95755">
        <ele>389.9</ele>
        <time>2022-10-02T08:34:09Z</time>
      </trkpt>
      <trkpt lat="47.36476" lon="7.95758">
        <ele>389.9</ele>
        <time>2022-10-02T08:34:10Z</time>
      </trkpt>
      <trkpt lat="47.36479" lon="7.95761">
        <ele>389.9</ele>
        <time>2022-10-02T08:34:11Z</time>
      </trkpt>
      <trkpt lat="47.36482" lon="7.95764">
        <ele>389.9</ele>
        <time>2022-10-02T08:34:12Z</time>
      </trkpt>
      <trkpt lat="47.36485" lon="7.95766">
        <ele>389.9</ele>
        <time>2022-10-02T08:34:13Z</time>
      </trkpt>
      <trkpt lat="47.36488" lon="7.95769">
        <ele>389.9</ele>
        <time>2022-10-02T08:34:14Z</time>
      </trkpt>
      <trkpt lat="47.36491" lon="7.95771">
        <ele>389.9</ele>
        <time>2022-10-02T08:34:15Z</time>
      </trkpt>
      <trkpt lat="47.36494" lon="7.95775">
        <ele>389.9</ele>
        <time>2022-10-02T08:34:16Z</time>
      </trkpt>
      <trkpt lat="47.36497" lon="7.95778">
        <ele>389.9</ele>
        <time>2022-10-02T08:34:17Z</time>
      </trkpt>
      <trkpt lat="47.365" lon="7.9578">
        <ele>389.9</ele>
        <time>2022-10-02T08:34:18Z</time>
      </trkpt>
      <trkpt lat="47.36503" lon="7.95783">
        <ele>389.9</ele>
        <time>2022-10-02T08:34:19Z</time>
      </trkpt>
      <trkpt lat="47.36506" lon="7.95786">
        <ele>389.9</ele>
        <time>2022-10-02T08:34:20Z</time>
      </trkpt>
      <trkpt lat="47.36509" lon="7.95789">
        <ele>389.9</ele>
        <time>2022-10-02T08:34:21Z</time>
      </trkpt>
      <trkpt lat="47.36512" lon="7.95791">
        <ele>389.9</ele>
        <time>2022-10-02T08:34:22Z</time>
      </trkpt>
      <trkpt lat="47.36515" lon="7.95794">
        <ele>390</ele>
        <time>2022-10-02T08:34:23Z</time>
      </trkpt>
      <trkpt lat="47.36518" lon="7.95798">
        <ele>390</ele>
        <time>2022-10-02T08:34:24Z</time>
      </trkpt>
      <trkpt lat="47.36521" lon="7.95801">
        <ele>390</ele>
        <time>2022-10-02T08:34:25Z</time>
      </trkpt>
      <trkpt lat="47.36524" lon="7.95803">
        <ele>390</ele>
        <time>2022-10-02T08:34:26Z</time>
      </trkpt>
      <trkpt lat="47.36527" lon="7.95807">
        <ele>390</ele>
        <time>2022-10-02T08:34:27Z</time>
      </trkpt>
      <trkpt lat="47.36528" lon="7.95808">
        <ele>390</ele>
        <time>2022-10-02T08:34:28Z</time>
      </trkpt>
      <trkpt lat="47.36531" lon="7.95811">
        <ele>390</ele>
        <time>2022-10-02T08:34:29Z</time>
      </trkpt>
      <trkpt lat="47.36532" lon="7.95812">
        <ele>390</ele>
        <time>2022-10-02T08:34:30Z</time>
      </trkpt>
      <trkpt lat="47.36535" lon="7.95814">
        <ele>390</ele>
        <time>2022-10-02T08:34:31Z</time>
      </trkpt>
      <trkpt lat="47.36538" lon="7.95818">
        <ele>390</ele>
        <time>2022-10-02T08:34:32Z</time>
      </trkpt>
      <trkpt lat="47.3654" lon="7.95819">
        <ele>390</ele>
        <time>2022-10-02T08:34:33Z</time>
      </trkpt>
      <trkpt lat="47.36542" lon="7.95821">
        <ele>390</ele>
        <time>2022-10-02T08:34:34Z</time>
      </trkpt>
      <trkpt lat="47.36545" lon="7.95824">
        <ele>390</ele>
        <time>2022-10-02T08:34:35Z</time>
      </trkpt>
      <trkpt lat="47.36548" lon="7.95826">
        <ele>390</ele>
        <time>2022-10-02T08:34:36Z</time>
      </trkpt>
      <trkpt lat="47.3655" lon="7.95828">
        <ele>390</ele>
        <time>2022-10-02T08:34:37Z</time>
      </trkpt>
      <trkpt lat="47.36553" lon="7.95831">
        <ele>390</ele>
        <time>2022-10-02T08:34:38Z</time>
      </trkpt>
      <trkpt lat="47.36556" lon="7.95834">
        <ele>390</ele>
        <time>2022-10-02T08:34:39Z</time>
      </trkpt>
      <trkpt lat="47.36559" lon="7.95837">
        <ele>390</ele>
        <time>2022-10-02T08:34:40Z</time>
      </trkpt>
      <trkpt lat="47.36561" lon="7.95839">
        <ele>390</ele>
        <time>2022-10-02T08:34:41Z</time>
      </trkpt>
      <trkpt lat="47.36564" lon="7.95842">
        <ele>390</ele>
        <time>2022-10-02T08:34:42Z</time>
      </trkpt>
      <trkpt lat="47.36567" lon="7.95845">
        <ele>390</ele>
        <time>2022-10-02T08:34:43Z</time>
      </trkpt>
      <trkpt lat="47.3657" lon="7.95848">
        <ele>390</ele>
        <time>2022-10-02T08:34:44Z</time>
      </trkpt>
      <trkpt lat="47.36573" lon="7.9585">
        <ele>390</ele>
        <time>2022-10-02T08:34:45Z</time>
      </trkpt>
      <trkpt lat="47.36576" lon="7.95853">
        <ele>390</ele>
        <time>2022-10-02T08:34:46Z</time>
      </trkpt>
      <trkpt lat="47.36579" lon="7.95857">
        <ele>390</ele>
        <time>2022-10-02T08:34:47Z</time>
      </trkpt>
      <trkpt lat="47.36583" lon="7.95859">
        <ele>390</ele>
        <time>2022-10-02T08:34:48Z</time>
      </trkpt>
      <trkpt lat="47.36586" lon="7.95862">
        <ele>390</ele>
        <time>2022-10-02T08:34:49Z</time>
      </trkpt>
      <trkpt lat="47.36588" lon="7.95866">
        <ele>390</ele>
        <time>2022-10-02T08:34:50Z</time>
      </trkpt>
      <trkpt lat="47.36591" lon="7.95868">
        <ele>390</ele>
        <time>2022-10-02T08:34:51Z</time>
      </trkpt>
      <trkpt lat="47.36594" lon="7.9587">
        <ele>390</ele>
        <time>2022-10-02T08:34:52Z</time>
      </trkpt>
      <trkpt lat="47.36598" lon="7.95875">
        <ele>390</ele>
        <time>2022-10-02T08:34:53Z</time>
      </trkpt>
      <trkpt lat="47.36599" lon="7.95877">
        <ele>390</ele>
        <time>2022-10-02T08:34:54Z</time>
      </trkpt>
      <trkpt lat="47.36602" lon="7.95879">
        <ele>390</ele>
        <time>2022-10-02T08:34:55Z</time>
      </trkpt>
      <trkpt lat="47.36605" lon="7.95881">
        <ele>390</ele>
        <time>2022-10-02T08:34:56Z</time>
      </trkpt>
      <trkpt lat="47.36608" lon="7.95884">
        <ele>390</ele>
        <time>2022-10-02T08:34:57Z</time>
      </trkpt>
      <trkpt lat="47.36611" lon="7.95888">
        <ele>390</ele>
        <time>2022-10-02T08:34:58Z</time>
      </trkpt>
      <trkpt lat="47.36613" lon="7.95891">
        <ele>390</ele>
        <time>2022-10-02T08:34:59Z</time>
      </trkpt>
      <trkpt lat="47.36617" lon="7.95892">
        <ele>390</ele>
        <time>2022-10-02T08:35:01Z</time>
      </trkpt>
      <trkpt lat="47.36619" lon="7.95895">
        <ele>390</ele>
        <time>2022-10-02T08:35:02Z</time>
      </trkpt>
      <trkpt lat="47.36622" lon="7.95899">
        <ele>390</ele>
        <time>2022-10-02T08:35:03Z</time>
      </trkpt>
      <trkpt lat="47.36624" lon="7.959">
        <ele>390</ele>
        <time>2022-10-02T08:35:04Z</time>
      </trkpt>
      <trkpt lat="47.36627" lon="7.95904">
        <ele>390</ele>
        <time>2022-10-02T08:35:05Z</time>
      </trkpt>
      <trkpt lat="47.3663" lon="7.95908">
        <ele>390</ele>
        <time>2022-10-02T08:35:06Z</time>
      </trkpt>
      <trkpt lat="47.36633" lon="7.95911">
        <ele>390</ele>
        <time>2022-10-02T08:35:07Z</time>
      </trkpt>
      <trkpt lat="47.3664" lon="7.95918">
        <ele>390</ele>
        <time>2022-10-02T08:35:08Z</time>
      </trkpt>
      <trkpt lat="47.36643" lon="7.95923">
        <ele>390</ele>
        <time>2022-10-02T08:35:09Z</time>
      </trkpt>
      <trkpt lat="47.36646" lon="7.95927">
        <ele>390</ele>
        <time>2022-10-02T08:35:10Z</time>
      </trkpt>
      <trkpt lat="47.3665" lon="7.95931">
        <ele>390.1</ele>
        <time>2022-10-02T08:35:11Z</time>
      </trkpt>
      <trkpt lat="47.36653" lon="7.95935">
        <ele>390.1</ele>
        <time>2022-10-02T08:35:13Z</time>
      </trkpt>
      <trkpt lat="47.36658" lon="7.95944">
        <ele>390.1</ele>
        <time>2022-10-02T08:35:14Z</time>
      </trkpt>
      <trkpt lat="47.36661" lon="7.95948">
        <ele>390.1</ele>
        <time>2022-10-02T08:35:15Z</time>
      </trkpt>
      <trkpt lat="47.36663" lon="7.95953">
        <ele>390.1</ele>
        <time>2022-10-02T08:35:16Z</time>
      </trkpt>
      <trkpt lat="47.36666" lon="7.95957">
        <ele>390.1</ele>
        <time>2022-10-02T08:35:17Z</time>
      </trkpt>
      <trkpt lat="47.36669" lon="7.95962">
        <ele>390.1</ele>
        <time>2022-10-02T08:35:18Z</time>
      </trkpt>
      <trkpt lat="47.36672" lon="7.95967">
        <ele>390.2</ele>
        <time>2022-10-02T08:35:19Z</time>
      </trkpt>
      <trkpt lat="47.36674" lon="7.95972">
        <ele>390.2</ele>
        <time>2022-10-02T08:35:20Z</time>
      </trkpt>
      <trkpt lat="47.36676" lon="7.95977">
        <ele>390.2</ele>
        <time>2022-10-02T08:35:21Z</time>
      </trkpt>
      <trkpt lat="47.36679" lon="7.95982">
        <ele>390.2</ele>
        <time>2022-10-02T08:35:22Z</time>
      </trkpt>
      <trkpt lat="47.36681" lon="7.95986">
        <ele>390.2</ele>
        <time>2022-10-02T08:35:23Z</time>
      </trkpt>
      <trkpt lat="47.36683" lon="7.95991">
        <ele>390.2</ele>
        <time>2022-10-02T08:35:24Z</time>
      </trkpt>
      <trkpt lat="47.36685" lon="7.95996">
        <ele>390.2</ele>
        <time>2022-10-02T08:35:25Z</time>
      </trkpt>
      <trkpt lat="47.36687" lon="7.96001">
        <ele>390.2</ele>
        <time>2022-10-02T08:35:26Z</time>
      </trkpt>
      <trkpt lat="47.36689" lon="7.96006">
        <ele>390.2</ele>
        <time>2022-10-02T08:35:27Z</time>
      </trkpt>
      <trkpt lat="47.36691" lon="7.96011">
        <ele>390.2</ele>
        <time>2022-10-02T08:35:28Z</time>
      </trkpt>
      <trkpt lat="47.36693" lon="7.96016">
        <ele>390.2</ele>
        <time>2022-10-02T08:35:29Z</time>
      </trkpt>
      <trkpt lat="47.36695" lon="7.96022">
        <ele>390.2</ele>
        <time>2022-10-02T08:35:30Z</time>
      </trkpt>
      <trkpt lat="47.36696" lon="7.96027">
        <ele>390.2</ele>
        <time>2022-10-02T08:35:31Z</time>
      </trkpt>
      <trkpt lat="47.36698" lon="7.96033">
        <ele>390.3</ele>
        <time>2022-10-02T08:35:32Z</time>
      </trkpt>
      <trkpt lat="47.36699" lon="7.96038">
        <ele>390.3</ele>
        <time>2022-10-02T08:35:33Z</time>
      </trkpt>
      <trkpt lat="47.36701" lon="7.96044">
        <ele>390.3</ele>
        <time>2022-10-02T08:35:34Z</time>
      </trkpt>
      <trkpt lat="47.36701" lon="7.96049">
        <ele>390.4</ele>
        <time>2022-10-02T08:35:35Z</time>
      </trkpt>
      <trkpt lat="47.36703" lon="7.96054">
        <ele>390.4</ele>
        <time>2022-10-02T08:35:36Z</time>
      </trkpt>
      <trkpt lat="47.36705" lon="7.96059">
        <ele>390.5</ele>
        <time>2022-10-02T08:35:37Z</time>
      </trkpt>
      <trkpt lat="47.36706" lon="7.96065">
        <ele>390.5</ele>
        <time>2022-10-02T08:35:38Z</time>
      </trkpt>
      <trkpt lat="47.36706" lon="7.96068">
        <ele>390.6</ele>
        <time>2022-10-02T08:35:39Z</time>
      </trkpt>
      <trkpt lat="47.36707" lon="7.96072">
        <ele>390.6</ele>
        <time>2022-10-02T08:35:40Z</time>
      </trkpt>
      <trkpt lat="47.36709" lon="7.96076">
        <ele>390.6</ele>
        <time>2022-10-02T08:35:41Z</time>
      </trkpt>
      <trkpt lat="47.36711" lon="7.96082">
        <ele>390.7</ele>
        <time>2022-10-02T08:35:42Z</time>
      </trkpt>
      <trkpt lat="47.36711" lon="7.96084">
        <ele>390.7</ele>
        <time>2022-10-02T08:35:43Z</time>
      </trkpt>
      <trkpt lat="47.36712" lon="7.96089">
        <ele>390.7</ele>
        <time>2022-10-02T08:35:44Z</time>
      </trkpt>
      <trkpt lat="47.36714" lon="7.96095">
        <ele>390.7</ele>
        <time>2022-10-02T08:35:45Z</time>
      </trkpt>
      <trkpt lat="47.36715" lon="7.96098">
        <ele>390.7</ele>
        <time>2022-10-02T08:35:46Z</time>
      </trkpt>
      <trkpt lat="47.36717" lon="7.96103">
        <ele>390.7</ele>
        <time>2022-10-02T08:35:47Z</time>
      </trkpt>
      <trkpt lat="47.36718" lon="7.96108">
        <ele>390.7</ele>
        <time>2022-10-02T08:35:48Z</time>
      </trkpt>
      <trkpt lat="47.36719" lon="7.96113">
        <ele>390.8</ele>
        <time>2022-10-02T08:35:49Z</time>
      </trkpt>
      <trkpt lat="47.3672" lon="7.96118">
        <ele>390.8</ele>
        <time>2022-10-02T08:35:50Z</time>
      </trkpt>
      <trkpt lat="47.36722" lon="7.96123">
        <ele>390.8</ele>
        <time>2022-10-02T08:35:51Z</time>
      </trkpt>
      <trkpt lat="47.36723" lon="7.96127">
        <ele>390.8</ele>
        <time>2022-10-02T08:35:52Z</time>
      </trkpt>
      <trkpt lat="47.36725" lon="7.96133">
        <ele>390.8</ele>
        <time>2022-10-02T08:35:53Z</time>
      </trkpt>
      <trkpt lat="47.36725" lon="7.96138">
        <ele>390.8</ele>
        <time>2022-10-02T08:35:54Z</time>
      </trkpt>
      <trkpt lat="47.36728" lon="7.96143">
        <ele>390.8</ele>
        <time>2022-10-02T08:35:55Z</time>
      </trkpt>
      <trkpt lat="47.36729" lon="7.96145">
        <ele>390.8</ele>
        <time>2022-10-02T08:35:56Z</time>
      </trkpt>
      <trkpt lat="47.3673" lon="7.9615">
        <ele>390.9</ele>
        <time>2022-10-02T08:35:57Z</time>
      </trkpt>
      <trkpt lat="47.36731" lon="7.96154">
        <ele>390.9</ele>
        <time>2022-10-02T08:35:58Z</time>
      </trkpt>
      <trkpt lat="47.36732" lon="7.96158">
        <ele>390.9</ele>
        <time>2022-10-02T08:35:59Z</time>
      </trkpt>
      <trkpt lat="47.36733" lon="7.96163">
        <ele>390.9</ele>
        <time>2022-10-02T08:36:00Z</time>
      </trkpt>
      <trkpt lat="47.36734" lon="7.96165">
        <ele>390.9</ele>
        <time>2022-10-02T08:36:01Z</time>
      </trkpt>
      <trkpt lat="47.36735" lon="7.9617">
        <ele>390.9</ele>
        <time>2022-10-02T08:36:02Z</time>
      </trkpt>
      <trkpt lat="47.36736" lon="7.96174">
        <ele>390.9</ele>
        <time>2022-10-02T08:36:03Z</time>
      </trkpt>
      <trkpt lat="47.36737" lon="7.96178">
        <ele>391</ele>
        <time>2022-10-02T08:36:04Z</time>
      </trkpt>
      <trkpt lat="47.36739" lon="7.96183">
        <ele>391</ele>
        <time>2022-10-02T08:36:05Z</time>
      </trkpt>
      <trkpt lat="47.3674" lon="7.96187">
        <ele>391</ele>
        <time>2022-10-02T08:36:06Z</time>
      </trkpt>
      <trkpt lat="47.36741" lon="7.96193">
        <ele>391</ele>
        <time>2022-10-02T08:36:07Z</time>
      </trkpt>
      <trkpt lat="47.36741" lon="7.96195">
        <ele>391</ele>
        <time>2022-10-02T08:36:08Z</time>
      </trkpt>
      <trkpt lat="47.36743" lon="7.96199">
        <ele>391</ele>
        <time>2022-10-02T08:36:09Z</time>
      </trkpt>
      <trkpt lat="47.36744" lon="7.96204">
        <ele>391</ele>
        <time>2022-10-02T08:36:10Z</time>
      </trkpt>
      <trkpt lat="47.36745" lon="7.96206">
        <ele>391</ele>
        <time>2022-10-02T08:36:11Z</time>
      </trkpt>
      <trkpt lat="47.36747" lon="7.96211">
        <ele>391</ele>
        <time>2022-10-02T08:36:12Z</time>
      </trkpt>
      <trkpt lat="47.36747" lon="7.96213">
        <ele>391.1</ele>
        <time>2022-10-02T08:36:13Z</time>
      </trkpt>
      <trkpt lat="47.36748" lon="7.96218">
        <ele>391.1</ele>
        <time>2022-10-02T08:36:14Z</time>
      </trkpt>
      <trkpt lat="47.36749" lon="7.96222">
        <ele>391.1</ele>
        <time>2022-10-02T08:36:15Z</time>
      </trkpt>
      <trkpt lat="47.3675" lon="7.96227">
        <ele>391.1</ele>
        <time>2022-10-02T08:36:16Z</time>
      </trkpt>
      <trkpt lat="47.36751" lon="7.96232">
        <ele>391.2</ele>
        <time>2022-10-02T08:36:17Z</time>
      </trkpt>
      <trkpt lat="47.36751" lon="7.96235">
        <ele>391.2</ele>
        <time>2022-10-02T08:36:18Z</time>
      </trkpt>
      <trkpt lat="47.36753" lon="7.96239">
        <ele>391.2</ele>
        <time>2022-10-02T08:36:19Z</time>
      </trkpt>
      <trkpt lat="47.36753" lon="7.96244">
        <ele>391.2</ele>
        <time>2022-10-02T08:36:20Z</time>
      </trkpt>
      <trkpt lat="47.36755" lon="7.96248">
        <ele>391.3</ele>
        <time>2022-10-02T08:36:21Z</time>
      </trkpt>
      <trkpt lat="47.36755" lon="7.96253">
        <ele>391.3</ele>
        <time>2022-10-02T08:36:22Z</time>
      </trkpt>
      <trkpt lat="47.36756" lon="7.96255">
        <ele>391.3</ele>
        <time>2022-10-02T08:36:23Z</time>
      </trkpt>
      <trkpt lat="47.36756" lon="7.96261">
        <ele>391.3</ele>
        <time>2022-10-02T08:36:24Z</time>
      </trkpt>
      <trkpt lat="47.36756" lon="7.96262">
        <ele>391.3</ele>
        <time>2022-10-02T08:36:25Z</time>
      </trkpt>
      <trkpt lat="47.36757" lon="7.96268">
        <ele>391.4</ele>
        <time>2022-10-02T08:36:26Z</time>
      </trkpt>
      <trkpt lat="47.36759" lon="7.96272">
        <ele>391.4</ele>
        <time>2022-10-02T08:36:27Z</time>
      </trkpt>
      <trkpt lat="47.3676" lon="7.96277">
        <ele>391.5</ele>
        <time>2022-10-02T08:36:28Z</time>
      </trkpt>
      <trkpt lat="47.3676" lon="7.96278">
        <ele>391.5</ele>
        <time>2022-10-02T08:36:29Z</time>
      </trkpt>
      <trkpt lat="47.36761" lon="7.96284">
        <ele>391.5</ele>
        <time>2022-10-02T08:36:30Z</time>
      </trkpt>
      <trkpt lat="47.36762" lon="7.96289">
        <ele>391.5</ele>
        <time>2022-10-02T08:36:31Z</time>
      </trkpt>
      <trkpt lat="47.36763" lon="7.96293">
        <ele>391.6</ele>
        <time>2022-10-02T08:36:32Z</time>
      </trkpt>
      <trkpt lat="47.36764" lon="7.96297">
        <ele>391.6</ele>
        <time>2022-10-02T08:36:33Z</time>
      </trkpt>
      <trkpt lat="47.36764" lon="7.96299">
        <ele>391.6</ele>
        <time>2022-10-02T08:36:34Z</time>
      </trkpt>
      <trkpt lat="47.36765" lon="7.96303">
        <ele>391.6</ele>
        <time>2022-10-02T08:36:35Z</time>
      </trkpt>
      <trkpt lat="47.36766" lon="7.96305">
        <ele>391.7</ele>
        <time>2022-10-02T08:36:36Z</time>
      </trkpt>
      <trkpt lat="47.36766" lon="7.96308">
        <ele>391.7</ele>
        <time>2022-10-02T08:36:37Z</time>
      </trkpt>
      <trkpt lat="47.36767" lon="7.96309">
        <ele>391.7</ele>
        <time>2022-10-02T08:36:38Z</time>
      </trkpt>
      <trkpt lat="47.36767" lon="7.9631">
        <ele>391.7</ele>
        <time>2022-10-02T08:36:39Z</time>
      </trkpt>
      <trkpt lat="47.36766" lon="7.96311">
        <ele>391.7</ele>
        <time>2022-10-02T08:36:40Z</time>
      </trkpt>
      <trkpt lat="47.36766" lon="7.96311">
        <ele>391.7</ele>
        <time>2022-10-02T08:36:41Z</time>
      </trkpt>
      <trkpt lat="47.36766" lon="7.96312">
        <ele>391.7</ele>
        <time>2022-10-02T08:36:42Z</time>
      </trkpt>
      <trkpt lat="47.36766" lon="7.96313">
        <ele>391.7</ele>
        <time>2022-10-02T08:36:43Z</time>
      </trkpt>
      <trkpt lat="47.36766" lon="7.96314">
        <ele>391.7</ele>
        <time>2022-10-02T08:36:44Z</time>
      </trkpt>
      <trkpt lat="47.36767" lon="7.96314">
        <ele>391.7</ele>
        <time>2022-10-02T08:36:45Z</time>
      </trkpt>
      <trkpt lat="47.36767" lon="7.96316">
        <ele>391.7</ele>
        <time>2022-10-02T08:36:46Z</time>
      </trkpt>
      <trkpt lat="47.36768" lon="7.9632">
        <ele>391.7</ele>
        <time>2022-10-02T08:36:47Z</time>
      </trkpt>
      <trkpt lat="47.36769" lon="7.96324">
        <ele>391.8</ele>
        <time>2022-10-02T08:38:01Z</time>
      </trkpt>
      <trkpt lat="47.36769" lon="7.96328">
        <ele>391.8</ele>
        <time>2022-10-02T08:38:02Z</time>
      </trkpt>
      <trkpt lat="47.3677" lon="7.9633">
        <ele>391.8</ele>
        <time>2022-10-02T08:38:03Z</time>
      </trkpt>
      <trkpt lat="47.3677" lon="7.96331">
        <ele>391.8</ele>
        <time>2022-10-02T08:38:04Z</time>
      </trkpt>
      <trkpt lat="47.3677" lon="7.96331">
        <ele>391.8</ele>
        <time>2022-10-02T08:38:05Z</time>
      </trkpt>
      <trkpt lat="47.3677" lon="7.96332">
        <ele>391.8</ele>
        <time>2022-10-02T08:38:06Z</time>
      </trkpt>
      <trkpt lat="47.3677" lon="7.96333">
        <ele>391.8</ele>
        <time>2022-10-02T08:38:07Z</time>
      </trkpt>
      <trkpt lat="47.3677" lon="7.96334">
        <ele>391.8</ele>
        <time>2022-10-02T08:38:08Z</time>
      </trkpt>
      <trkpt lat="47.3677" lon="7.96334">
        <ele>391.8</ele>
        <time>2022-10-02T08:38:09Z</time>
      </trkpt>
      <trkpt lat="47.3677" lon="7.96334">
        <ele>391.8</ele>
        <time>2022-10-02T08:38:10Z</time>
      </trkpt>
      <trkpt lat="47.3677" lon="7.96334">
        <ele>391.8</ele>
        <time>2022-10-02T08:38:11Z</time>
      </trkpt>
      <trkpt lat="47.3677" lon="7.96334">
        <ele>391.8</ele>
        <time>2022-10-02T08:38:12Z</time>
      </trkpt>
      <trkpt lat="47.3677" lon="7.96335">
        <ele>391.8</ele>
        <time>2022-10-02T08:38:13Z</time>
      </trkpt>
      <trkpt lat="47.3677" lon="7.96335">
        <ele>391.8</ele>
        <time>2022-10-02T08:38:14Z</time>
      </trkpt>
      <trkpt lat="47.36771" lon="7.96337">
        <ele>391.8</ele>
        <time>2022-10-02T08:38:15Z</time>
      </trkpt>
      <trkpt lat="47.36771" lon="7.96337">
        <ele>391.8</ele>
        <time>2022-10-02T08:38:16Z</time>
      </trkpt>
      <trkpt lat="47.36771" lon="7.96338">
        <ele>391.8</ele>
        <time>2022-10-02T08:38:17Z</time>
      </trkpt>
      <trkpt lat="47.36772" lon="7.96339">
        <ele>391.8</ele>
        <time>2022-10-02T08:38:18Z</time>
      </trkpt>
      <trkpt lat="47.36772" lon="7.9634">
        <ele>391.8</ele>
        <time>2022-10-02T08:38:19Z</time>
      </trkpt>
      <trkpt lat="47.36772" lon="7.96341">
        <ele>391.8</ele>
        <time>2022-10-02T08:38:20Z</time>
      </trkpt>
      <trkpt lat="47.36772" lon="7.96342">
        <ele>391.8</ele>
        <time>2022-10-02T08:38:21Z</time>
      </trkpt>
      <trkpt lat="47.36772" lon="7.96343">
        <ele>391.8</ele>
        <time>2022-10-02T08:38:22Z</time>
      </trkpt>
      <trkpt lat="47.36772" lon="7.96344">
        <ele>391.8</ele>
        <time>2022-10-02T08:38:23Z</time>
      </trkpt>
      <trkpt lat="47.36773" lon="7.96344">
        <ele>391.8</ele>
        <time>2022-10-02T08:38:24Z</time>
      </trkpt>
      <trkpt lat="47.36773" lon="7.96345">
        <ele>391.8</ele>
        <time>2022-10-02T08:38:25Z</time>
      </trkpt>
      <trkpt lat="47.36773" lon="7.96346">
        <ele>391.8</ele>
        <time>2022-10-02T08:38:26Z</time>
      </trkpt>
      <trkpt lat="47.36773" lon="7.96347">
        <ele>391.9</ele>
        <time>2022-10-02T08:38:28Z</time>
      </trkpt>
      <trkpt lat="47.36773" lon="7.96348">
        <ele>391.9</ele>
        <time>2022-10-02T08:38:29Z</time>
      </trkpt>
      <trkpt lat="47.36774" lon="7.96349">
        <ele>391.9</ele>
        <time>2022-10-02T08:38:30Z</time>
      </trkpt>
      <trkpt lat="47.36775" lon="7.96352">
        <ele>391.9</ele>
        <time>2022-10-02T08:38:31Z</time>
      </trkpt>
      <trkpt lat="47.36776" lon="7.96357">
        <ele>391.9</ele>
        <time>2022-10-02T08:38:32Z</time>
      </trkpt>
      <trkpt lat="47.36776" lon="7.96359">
        <ele>391.9</ele>
        <time>2022-10-02T08:38:33Z</time>
      </trkpt>
      <trkpt lat="47.36777" lon="7.96363">
        <ele>391.9</ele>
        <time>2022-10-02T08:38:34Z</time>
      </trkpt>
      <trkpt lat="47.36778" lon="7.96365">
        <ele>391.9</ele>
        <time>2022-10-02T08:38:35Z</time>
      </trkpt>
      <trkpt lat="47.36778" lon="7.96369">
        <ele>391.9</ele>
        <time>2022-10-02T08:38:36Z</time>
      </trkpt>
      <trkpt lat="47.36778" lon="7.96371">
        <ele>391.9</ele>
        <time>2022-10-02T08:38:37Z</time>
      </trkpt>
      <trkpt lat="47.3678" lon="7.96376">
        <ele>392</ele>
        <time>2022-10-02T08:38:38Z</time>
      </trkpt>
      <trkpt lat="47.3678" lon="7.96378">
        <ele>392</ele>
        <time>2022-10-02T08:38:39Z</time>
      </trkpt>
      <trkpt lat="47.36781" lon="7.96383">
        <ele>392</ele>
        <time>2022-10-02T08:38:40Z</time>
      </trkpt>
      <trkpt lat="47.36782" lon="7.96385">
        <ele>392</ele>
        <time>2022-10-02T08:38:41Z</time>
      </trkpt>
      <trkpt lat="47.36783" lon="7.9639">
        <ele>392</ele>
        <time>2022-10-02T08:38:42Z</time>
      </trkpt>
      <trkpt lat="47.36783" lon="7.96392">
        <ele>392</ele>
        <time>2022-10-02T08:38:43Z</time>
      </trkpt>
      <trkpt lat="47.36784" lon="7.96396">
        <ele>392.1</ele>
        <time>2022-10-02T08:38:44Z</time>
      </trkpt>
      <trkpt lat="47.36785" lon="7.96399">
        <ele>392.1</ele>
        <time>2022-10-02T08:38:45Z</time>
      </trkpt>
      <trkpt lat="47.36787" lon="7.96403">
        <ele>392.1</ele>
        <time>2022-10-02T08:38:46Z</time>
      </trkpt>
      <trkpt lat="47.36788" lon="7.96408">
        <ele>392.1</ele>
        <time>2022-10-02T08:38:47Z</time>
      </trkpt>
      <trkpt lat="47.36789" lon="7.96414">
        <ele>392.1</ele>
        <time>2022-10-02T08:38:48Z</time>
      </trkpt>
      <trkpt lat="47.3679" lon="7.96416">
        <ele>392.2</ele>
        <time>2022-10-02T08:38:49Z</time>
      </trkpt>
      <trkpt lat="47.3679" lon="7.96421">
        <ele>392.2</ele>
        <time>2022-10-02T08:38:50Z</time>
      </trkpt>
      <trkpt lat="47.36791" lon="7.96423">
        <ele>392.2</ele>
        <time>2022-10-02T08:38:51Z</time>
      </trkpt>
      <trkpt lat="47.36793" lon="7.96428">
        <ele>392.2</ele>
        <time>2022-10-02T08:38:52Z</time>
      </trkpt>
      <trkpt lat="47.36793" lon="7.96434">
        <ele>392.2</ele>
        <time>2022-10-02T08:38:53Z</time>
      </trkpt>
      <trkpt lat="47.36794" lon="7.9644">
        <ele>392.3</ele>
        <time>2022-10-02T08:38:54Z</time>
      </trkpt>
      <trkpt lat="47.36795" lon="7.96443">
        <ele>392.3</ele>
        <time>2022-10-02T08:38:55Z</time>
      </trkpt>
      <trkpt lat="47.36796" lon="7.96447">
        <ele>392.3</ele>
        <time>2022-10-02T08:38:56Z</time>
      </trkpt>
      <trkpt lat="47.36797" lon="7.96451">
        <ele>392.3</ele>
        <time>2022-10-02T08:38:57Z</time>
      </trkpt>
      <trkpt lat="47.36798" lon="7.96455">
        <ele>392.3</ele>
        <time>2022-10-02T08:38:58Z</time>
      </trkpt>
      <trkpt lat="47.36799" lon="7.96461">
        <ele>392.4</ele>
        <time>2022-10-02T08:38:59Z</time>
      </trkpt>
      <trkpt lat="47.368" lon="7.96467">
        <ele>392.4</ele>
        <time>2022-10-02T08:39:00Z</time>
      </trkpt>
      <trkpt lat="47.36801" lon="7.96471">
        <ele>392.4</ele>
        <time>2022-10-02T08:39:01Z</time>
      </trkpt>
      <trkpt lat="47.36802" lon="7.96476">
        <ele>392.5</ele>
        <time>2022-10-02T08:39:02Z</time>
      </trkpt>
      <trkpt lat="47.36803" lon="7.96481">
        <ele>392.5</ele>
        <time>2022-10-02T08:39:03Z</time>
      </trkpt>
      <trkpt lat="47.36803" lon="7.96486">
        <ele>392.5</ele>
        <time>2022-10-02T08:39:04Z</time>
      </trkpt>
      <trkpt lat="47.36803" lon="7.96492">
        <ele>392.5</ele>
        <time>2022-10-02T08:39:05Z</time>
      </trkpt>
      <trkpt lat="47.36804" lon="7.96494">
        <ele>392.6</ele>
        <time>2022-10-02T08:39:06Z</time>
      </trkpt>
      <trkpt lat="47.36805" lon="7.96499">
        <ele>392.6</ele>
        <time>2022-10-02T08:39:07Z</time>
      </trkpt>
      <trkpt lat="47.36806" lon="7.96503">
        <ele>392.6</ele>
        <time>2022-10-02T08:39:08Z</time>
      </trkpt>
      <trkpt lat="47.36806" lon="7.96508">
        <ele>392.7</ele>
        <time>2022-10-02T08:39:09Z</time>
      </trkpt>
      <trkpt lat="47.36807" lon="7.96514">
        <ele>392.7</ele>
        <time>2022-10-02T08:39:10Z</time>
      </trkpt>
      <trkpt lat="47.36807" lon="7.96518">
        <ele>392.7</ele>
        <time>2022-10-02T08:39:11Z</time>
      </trkpt>
      <trkpt lat="47.36808" lon="7.96522">
        <ele>392.8</ele>
        <time>2022-10-02T08:39:13Z</time>
      </trkpt>
      <trkpt lat="47.36808" lon="7.96529">
        <ele>392.8</ele>
        <time>2022-10-02T08:39:14Z</time>
      </trkpt>
      <trkpt lat="47.36808" lon="7.96535">
        <ele>392.8</ele>
        <time>2022-10-02T08:39:15Z</time>
      </trkpt>
      <trkpt lat="47.36808" lon="7.96537">
        <ele>392.8</ele>
        <time>2022-10-02T08:39:16Z</time>
      </trkpt>
      <trkpt lat="47.36807" lon="7.96543">
        <ele>392.8</ele>
        <time>2022-10-02T08:39:17Z</time>
      </trkpt>
      <trkpt lat="47.36807" lon="7.96548">
        <ele>392.8</ele>
        <time>2022-10-02T08:39:18Z</time>
      </trkpt>
      <trkpt lat="47.36807" lon="7.96553">
        <ele>392.8</ele>
        <time>2022-10-02T08:39:19Z</time>
      </trkpt>
      <trkpt lat="47.36806" lon="7.96559">
        <ele>392.7</ele>
        <time>2022-10-02T08:39:21Z</time>
      </trkpt>
      <trkpt lat="47.36806" lon="7.96565">
        <ele>392.6</ele>
        <time>2022-10-02T08:39:22Z</time>
      </trkpt>
      <trkpt lat="47.36805" lon="7.96571">
        <ele>392.6</ele>
        <time>2022-10-02T08:39:23Z</time>
      </trkpt>
      <trkpt lat="47.36806" lon="7.96582">
        <ele>392.5</ele>
        <time>2022-10-02T08:39:24Z</time>
      </trkpt>
      <trkpt lat="47.36807" lon="7.96589">
        <ele>392.4</ele>
        <time>2022-10-02T08:39:25Z</time>
      </trkpt>
      <trkpt lat="47.36809" lon="7.96594">
        <ele>392.4</ele>
        <time>2022-10-02T08:39:27Z</time>
      </trkpt>
      <trkpt lat="47.36814" lon="7.96605">
        <ele>392.1</ele>
        <time>2022-10-02T08:39:28Z</time>
      </trkpt>
      <trkpt lat="47.36815" lon="7.96611">
        <ele>392</ele>
        <time>2022-10-02T08:39:29Z</time>
      </trkpt>
      <trkpt lat="47.36817" lon="7.96616">
        <ele>391.8</ele>
        <time>2022-10-02T08:39:31Z</time>
      </trkpt>
      <trkpt lat="47.3682" lon="7.96622">
        <ele>391.6</ele>
        <time>2022-10-02T08:39:32Z</time>
      </trkpt>
      <trkpt lat="47.36823" lon="7.96629">
        <ele>391.3</ele>
        <time>2022-10-02T08:39:33Z</time>
      </trkpt>
      <trkpt lat="47.36827" lon="7.96636">
        <ele>391.1</ele>
        <time>2022-10-02T08:39:34Z</time>
      </trkpt>
      <trkpt lat="47.3683" lon="7.96642">
        <ele>391.1</ele>
        <time>2022-10-02T08:39:35Z</time>
      </trkpt>
      <trkpt lat="47.36832" lon="7.96647">
        <ele>391.1</ele>
        <time>2022-10-02T08:39:36Z</time>
      </trkpt>
      <trkpt lat="47.36834" lon="7.96654">
        <ele>391.2</ele>
        <time>2022-10-02T08:39:37Z</time>
      </trkpt>
      <trkpt lat="47.36837" lon="7.9666">
        <ele>391.3</ele>
        <time>2022-10-02T08:39:38Z</time>
      </trkpt>
      <trkpt lat="47.36839" lon="7.96665">
        <ele>391.4</ele>
        <time>2022-10-02T08:39:39Z</time>
      </trkpt>
      <trkpt lat="47.3684" lon="7.9667">
        <ele>391.5</ele>
        <time>2022-10-02T08:39:40Z</time>
      </trkpt>
      <trkpt lat="47.3684" lon="7.96676">
        <ele>391.7</ele>
        <time>2022-10-02T08:39:41Z</time>
      </trkpt>
      <trkpt lat="47.36843" lon="7.96682">
        <ele>391.8</ele>
        <time>2022-10-02T08:39:42Z</time>
      </trkpt>
      <trkpt lat="47.36845" lon="7.96687">
        <ele>392</ele>
        <time>2022-10-02T08:39:43Z</time>
      </trkpt>
      <trkpt lat="47.36846" lon="7.96693">
        <ele>392.1</ele>
        <time>2022-10-02T08:39:44Z</time>
      </trkpt>
      <trkpt lat="47.36847" lon="7.96699">
        <ele>392.2</ele>
        <time>2022-10-02T08:39:45Z</time>
      </trkpt>
      <trkpt lat="47.36849" lon="7.96704">
        <ele>392.3</ele>
        <time>2022-10-02T08:39:46Z</time>
      </trkpt>
      <trkpt lat="47.3685" lon="7.96709">
        <ele>392.4</ele>
        <time>2022-10-02T08:39:47Z</time>
      </trkpt>
      <trkpt lat="47.36851" lon="7.96714">
        <ele>392.4</ele>
        <time>2022-10-02T08:39:48Z</time>
      </trkpt>
      <trkpt lat="47.36852" lon="7.9672">
        <ele>392.5</ele>
        <time>2022-10-02T08:39:49Z</time>
      </trkpt>
      <trkpt lat="47.36853" lon="7.96726">
        <ele>392.5</ele>
        <time>2022-10-02T08:39:50Z</time>
      </trkpt>
      <trkpt lat="47.36854" lon="7.96732">
        <ele>392.6</ele>
        <time>2022-10-02T08:39:51Z</time>
      </trkpt>
      <trkpt lat="47.36855" lon="7.96737">
        <ele>392.6</ele>
        <time>2022-10-02T08:39:52Z</time>
      </trkpt>
      <trkpt lat="47.36857" lon="7.9675">
        <ele>392.6</ele>
        <time>2022-10-02T08:39:53Z</time>
      </trkpt>
      <trkpt lat="47.36856" lon="7.96756">
        <ele>392.5</ele>
        <time>2022-10-02T08:39:54Z</time>
      </trkpt>
      <trkpt lat="47.36857" lon="7.96763">
        <ele>392.5</ele>
        <time>2022-10-02T08:39:55Z</time>
      </trkpt>
      <trkpt lat="47.36857" lon="7.96771">
        <ele>392.4</ele>
        <time>2022-10-02T08:39:56Z</time>
      </trkpt>
      <trkpt lat="47.36858" lon="7.96778">
        <ele>392.4</ele>
        <time>2022-10-02T08:39:57Z</time>
      </trkpt>
      <trkpt lat="47.36858" lon="7.96786">
        <ele>392.3</ele>
        <time>2022-10-02T08:39:58Z</time>
      </trkpt>
      <trkpt lat="47.36859" lon="7.96793">
        <ele>392.2</ele>
        <time>2022-10-02T08:39:59Z</time>
      </trkpt>
      <trkpt lat="47.36859" lon="7.96802">
        <ele>392.1</ele>
        <time>2022-10-02T08:40:00Z</time>
      </trkpt>
      <trkpt lat="47.3686" lon="7.9681">
        <ele>392</ele>
        <time>2022-10-02T08:40:01Z</time>
      </trkpt>
      <trkpt lat="47.3686" lon="7.96818">
        <ele>391.9</ele>
        <time>2022-10-02T08:40:02Z</time>
      </trkpt>
      <trkpt lat="47.3686" lon="7.96827">
        <ele>391.8</ele>
        <time>2022-10-02T08:40:03Z</time>
      </trkpt>
      <trkpt lat="47.36861" lon="7.96836">
        <ele>391.7</ele>
        <time>2022-10-02T08:40:04Z</time>
      </trkpt>
      <trkpt lat="47.36862" lon="7.96844">
        <ele>391.7</ele>
        <time>2022-10-02T08:40:05Z</time>
      </trkpt>
      <trkpt lat="47.36862" lon="7.96853">
        <ele>391.7</ele>
        <time>2022-10-02T08:40:06Z</time>
      </trkpt>
      <trkpt lat="47.36862" lon="7.96861">
        <ele>391.7</ele>
        <time>2022-10-02T08:40:07Z</time>
      </trkpt>
      <trkpt lat="47.36863" lon="7.9687">
        <ele>391.7</ele>
        <time>2022-10-02T08:40:08Z</time>
      </trkpt>
      <trkpt lat="47.36863" lon="7.96879">
        <ele>391.7</ele>
        <time>2022-10-02T08:40:09Z</time>
      </trkpt>
      <trkpt lat="47.36864" lon="7.96886">
        <ele>391.7</ele>
        <time>2022-10-02T08:40:10Z</time>
      </trkpt>
      <trkpt lat="47.36864" lon="7.96895">
        <ele>391.7</ele>
        <time>2022-10-02T08:40:11Z</time>
      </trkpt>
      <trkpt lat="47.36865" lon="7.96904">
        <ele>391.8</ele>
        <time>2022-10-02T08:40:12Z</time>
      </trkpt>
      <trkpt lat="47.36865" lon="7.96912">
        <ele>391.8</ele>
        <time>2022-10-02T08:40:13Z</time>
      </trkpt>
      <trkpt lat="47.36866" lon="7.96919">
        <ele>391.9</ele>
        <time>2022-10-02T08:40:14Z</time>
      </trkpt>
      <trkpt lat="47.36866" lon="7.96926">
        <ele>391.9</ele>
        <time>2022-10-02T08:40:15Z</time>
      </trkpt>
      <trkpt lat="47.36867" lon="7.96934">
        <ele>392</ele>
        <time>2022-10-02T08:40:16Z</time>
      </trkpt>
      <trkpt lat="47.36866" lon="7.96942">
        <ele>392</ele>
        <time>2022-10-02T08:40:17Z</time>
      </trkpt>
      <trkpt lat="47.36868" lon="7.9695">
        <ele>392</ele>
        <time>2022-10-02T08:40:18Z</time>
      </trkpt>
      <trkpt lat="47.36869" lon="7.96958">
        <ele>392</ele>
        <time>2022-10-02T08:40:19Z</time>
      </trkpt>
      <trkpt lat="47.36869" lon="7.96965">
        <ele>392</ele>
        <time>2022-10-02T08:40:20Z</time>
      </trkpt>
      <trkpt lat="47.36868" lon="7.96973">
        <ele>392</ele>
        <time>2022-10-02T08:40:21Z</time>
      </trkpt>
      <trkpt lat="47.3687" lon="7.96981">
        <ele>391.9</ele>
        <time>2022-10-02T08:40:22Z</time>
      </trkpt>
      <trkpt lat="47.3687" lon="7.96989">
        <ele>391.9</ele>
        <time>2022-10-02T08:40:23Z</time>
      </trkpt>
      <trkpt lat="47.3687" lon="7.96998">
        <ele>391.9</ele>
        <time>2022-10-02T08:40:24Z</time>
      </trkpt>
      <trkpt lat="47.36869" lon="7.97007">
        <ele>391.8</ele>
        <time>2022-10-02T08:40:25Z</time>
      </trkpt>
      <trkpt lat="47.36869" lon="7.97015">
        <ele>391.8</ele>
        <time>2022-10-02T08:40:26Z</time>
      </trkpt>
      <trkpt lat="47.36868" lon="7.97023">
        <ele>391.7</ele>
        <time>2022-10-02T08:40:27Z</time>
      </trkpt>
      <trkpt lat="47.36868" lon="7.9703">
        <ele>391.7</ele>
        <time>2022-10-02T08:40:28Z</time>
      </trkpt>
      <trkpt lat="47.36868" lon="7.97038">
        <ele>391.6</ele>
        <time>2022-10-02T08:40:29Z</time>
      </trkpt>
      <trkpt lat="47.36866" lon="7.97046">
        <ele>391.5</ele>
        <time>2022-10-02T08:40:30Z</time>
      </trkpt>
      <trkpt lat="47.36866" lon="7.97053">
        <ele>391.4</ele>
        <time>2022-10-02T08:40:31Z</time>
      </trkpt>
      <trkpt lat="47.36865" lon="7.97059">
        <ele>391.3</ele>
        <time>2022-10-02T08:40:32Z</time>
      </trkpt>
      <trkpt lat="47.36866" lon="7.97066">
        <ele>391.3</ele>
        <time>2022-10-02T08:40:33Z</time>
      </trkpt>
      <trkpt lat="47.36865" lon="7.97075">
        <ele>391.2</ele>
        <time>2022-10-02T08:40:34Z</time>
      </trkpt>
      <trkpt lat="47.36862" lon="7.97083">
        <ele>391.1</ele>
        <time>2022-10-02T08:40:35Z</time>
      </trkpt>
      <trkpt lat="47.3686" lon="7.97092">
        <ele>391</ele>
        <time>2022-10-02T08:40:36Z</time>
      </trkpt>
      <trkpt lat="47.36859" lon="7.971">
        <ele>391</ele>
        <time>2022-10-02T08:40:37Z</time>
      </trkpt>
      <trkpt lat="47.36857" lon="7.97107">
        <ele>391</ele>
        <time>2022-10-02T08:40:38Z</time>
      </trkpt>
      <trkpt lat="47.36856" lon="7.97115">
        <ele>391</ele>
        <time>2022-10-02T08:40:39Z</time>
      </trkpt>
      <trkpt lat="47.36855" lon="7.97122">
        <ele>391</ele>
        <time>2022-10-02T08:40:40Z</time>
      </trkpt>
      <trkpt lat="47.36853" lon="7.97129">
        <ele>391</ele>
        <time>2022-10-02T08:40:41Z</time>
      </trkpt>
      <trkpt lat="47.36852" lon="7.97137">
        <ele>391.1</ele>
        <time>2022-10-02T08:40:42Z</time>
      </trkpt>
      <trkpt lat="47.36852" lon="7.97144">
        <ele>391.1</ele>
        <time>2022-10-02T08:40:43Z</time>
      </trkpt>
      <trkpt lat="47.36852" lon="7.97151">
        <ele>391.2</ele>
        <time>2022-10-02T08:40:44Z</time>
      </trkpt>
      <trkpt lat="47.36851" lon="7.97158">
        <ele>391.2</ele>
        <time>2022-10-02T08:40:45Z</time>
      </trkpt>
      <trkpt lat="47.3685" lon="7.97165">
        <ele>391.3</ele>
        <time>2022-10-02T08:40:46Z</time>
      </trkpt>
      <trkpt lat="47.3685" lon="7.97172">
        <ele>391.3</ele>
        <time>2022-10-02T08:40:47Z</time>
      </trkpt>
      <trkpt lat="47.3685" lon="7.97178">
        <ele>391.4</ele>
        <time>2022-10-02T08:40:48Z</time>
      </trkpt>
      <trkpt lat="47.3685" lon="7.97186">
        <ele>391.4</ele>
        <time>2022-10-02T08:40:49Z</time>
      </trkpt>
      <trkpt lat="47.3685" lon="7.97193">
        <ele>391.5</ele>
        <time>2022-10-02T08:40:50Z</time>
      </trkpt>
      <trkpt lat="47.3685" lon="7.97199">
        <ele>391.5</ele>
        <time>2022-10-02T08:40:51Z</time>
      </trkpt>
      <trkpt lat="47.36851" lon="7.97206">
        <ele>391.5</ele>
        <time>2022-10-02T08:40:52Z</time>
      </trkpt>
      <trkpt lat="47.36852" lon="7.97212">
        <ele>391.6</ele>
        <time>2022-10-02T08:40:53Z</time>
      </trkpt>
      <trkpt lat="47.36853" lon="7.97219">
        <ele>391.6</ele>
        <time>2022-10-02T08:40:54Z</time>
      </trkpt>
      <trkpt lat="47.36854" lon="7.97226">
        <ele>391.7</ele>
        <time>2022-10-02T08:40:55Z</time>
      </trkpt>
      <trkpt lat="47.36854" lon="7.97232">
        <ele>391.7</ele>
        <time>2022-10-02T08:40:56Z</time>
      </trkpt>
      <trkpt lat="47.36855" lon="7.97238">
        <ele>391.8</ele>
        <time>2022-10-02T08:40:57Z</time>
      </trkpt>
      <trkpt lat="47.36855" lon="7.97245">
        <ele>391.8</ele>
        <time>2022-10-02T08:40:58Z</time>
      </trkpt>
      <trkpt lat="47.36856" lon="7.97251">
        <ele>391.8</ele>
        <time>2022-10-02T08:40:59Z</time>
      </trkpt>
      <trkpt lat="47.36857" lon="7.97258">
        <ele>391.9</ele>
        <time>2022-10-02T08:41:00Z</time>
      </trkpt>
      <trkpt lat="47.36857" lon="7.97265">
        <ele>391.9</ele>
        <time>2022-10-02T08:41:01Z</time>
      </trkpt>
      <trkpt lat="47.36858" lon="7.97271">
        <ele>391.9</ele>
        <time>2022-10-02T08:41:02Z</time>
      </trkpt>
      <trkpt lat="47.36859" lon="7.97277">
        <ele>391.9</ele>
        <time>2022-10-02T08:41:03Z</time>
      </trkpt>
      <trkpt lat="47.36859" lon="7.97283">
        <ele>391.9</ele>
        <time>2022-10-02T08:41:04Z</time>
      </trkpt>
      <trkpt lat="47.36861" lon="7.97289">
        <ele>392</ele>
        <time>2022-10-02T08:41:05Z</time>
      </trkpt>
      <trkpt lat="47.36862" lon="7.97295">
        <ele>392</ele>
        <time>2022-10-02T08:41:06Z</time>
      </trkpt>
      <trkpt lat="47.36862" lon="7.97302">
        <ele>392</ele>
        <time>2022-10-02T08:41:07Z</time>
      </trkpt>
      <trkpt lat="47.36863" lon="7.97308">
        <ele>392</ele>
        <time>2022-10-02T08:41:08Z</time>
      </trkpt>
      <trkpt lat="47.36864" lon="7.97314">
        <ele>392</ele>
        <time>2022-10-02T08:41:09Z</time>
      </trkpt>
      <trkpt lat="47.36864" lon="7.9732">
        <ele>392.1</ele>
        <time>2022-10-02T08:41:10Z</time>
      </trkpt>
      <trkpt lat="47.36865" lon="7.97326">
        <ele>392.1</ele>
        <time>2022-10-02T08:41:11Z</time>
      </trkpt>
      <trkpt lat="47.36866" lon="7.97333">
        <ele>392.1</ele>
        <time>2022-10-02T08:41:12Z</time>
      </trkpt>
      <trkpt lat="47.36866" lon="7.9734">
        <ele>392.1</ele>
        <time>2022-10-02T08:41:13Z</time>
      </trkpt>
      <trkpt lat="47.36867" lon="7.97345">
        <ele>392.1</ele>
        <time>2022-10-02T08:41:14Z</time>
      </trkpt>
      <trkpt lat="47.36868" lon="7.97352">
        <ele>392.1</ele>
        <time>2022-10-02T08:41:15Z</time>
      </trkpt>
      <trkpt lat="47.36869" lon="7.97358">
        <ele>392.1</ele>
        <time>2022-10-02T08:41:16Z</time>
      </trkpt>
      <trkpt lat="47.36869" lon="7.97364">
        <ele>392.1</ele>
        <time>2022-10-02T08:41:17Z</time>
      </trkpt>
      <trkpt lat="47.36869" lon="7.9737">
        <ele>392.1</ele>
        <time>2022-10-02T08:41:19Z</time>
      </trkpt>
      <trkpt lat="47.3687" lon="7.97377">
        <ele>392.1</ele>
        <time>2022-10-02T08:41:20Z</time>
      </trkpt>
      <trkpt lat="47.36871" lon="7.97383">
        <ele>392.1</ele>
        <time>2022-10-02T08:41:21Z</time>
      </trkpt>
      <trkpt lat="47.36871" lon="7.97388">
        <ele>392</ele>
        <time>2022-10-02T08:41:22Z</time>
      </trkpt>
      <trkpt lat="47.36871" lon="7.97392">
        <ele>392</ele>
        <time>2022-10-02T08:41:23Z</time>
      </trkpt>
      <trkpt lat="47.36869" lon="7.97396">
        <ele>392</ele>
        <time>2022-10-02T08:41:24Z</time>
      </trkpt>
      <trkpt lat="47.36866" lon="7.97399">
        <ele>392</ele>
        <time>2022-10-02T08:41:25Z</time>
      </trkpt>
      <trkpt lat="47.36862" lon="7.97402">
        <ele>391.9</ele>
        <time>2022-10-02T08:41:26Z</time>
      </trkpt>
      <trkpt lat="47.36859" lon="7.97405">
        <ele>391.9</ele>
        <time>2022-10-02T08:41:27Z</time>
      </trkpt>
      <trkpt lat="47.36851" lon="7.97409">
        <ele>391.8</ele>
        <time>2022-10-02T08:41:28Z</time>
      </trkpt>
      <trkpt lat="47.36847" lon="7.97411">
        <ele>391.7</ele>
        <time>2022-10-02T08:41:29Z</time>
      </trkpt>
      <trkpt lat="47.36844" lon="7.97412">
        <ele>391.7</ele>
        <time>2022-10-02T08:41:30Z</time>
      </trkpt>
      <trkpt lat="47.3684" lon="7.97413">
        <ele>391.6</ele>
        <time>2022-10-02T08:41:31Z</time>
      </trkpt>
      <trkpt lat="47.36835" lon="7.97416">
        <ele>391.4</ele>
        <time>2022-10-02T08:41:32Z</time>
      </trkpt>
      <trkpt lat="47.3683" lon="7.97417">
        <ele>391.2</ele>
        <time>2022-10-02T08:41:33Z</time>
      </trkpt>
      <trkpt lat="47.36827" lon="7.97419">
        <ele>391</ele>
        <time>2022-10-02T08:41:34Z</time>
      </trkpt>
      <trkpt lat="47.36823" lon="7.97418">
        <ele>390.8</ele>
        <time>2022-10-02T08:41:35Z</time>
      </trkpt>
      <trkpt lat="47.36819" lon="7.97418">
        <ele>390.5</ele>
        <time>2022-10-02T08:41:37Z</time>
      </trkpt>
      <trkpt lat="47.36815" lon="7.97418">
        <ele>390.3</ele>
        <time>2022-10-02T08:41:38Z</time>
      </trkpt>
      <trkpt lat="47.36811" lon="7.97419">
        <ele>389.9</ele>
        <time>2022-10-02T08:41:39Z</time>
      </trkpt>
      <trkpt lat="47.36807" lon="7.97422">
        <ele>389.5</ele>
        <time>2022-10-02T08:41:40Z</time>
      </trkpt>
      <trkpt lat="47.36803" lon="7.97424">
        <ele>389.2</ele>
        <time>2022-10-02T08:41:41Z</time>
      </trkpt>
      <trkpt lat="47.36798" lon="7.97426">
        <ele>388.8</ele>
        <time>2022-10-02T08:41:42Z</time>
      </trkpt>
      <trkpt lat="47.36795" lon="7.97429">
        <ele>388.4</ele>
        <time>2022-10-02T08:41:43Z</time>
      </trkpt>
      <trkpt lat="47.36792" lon="7.97429">
        <ele>388</ele>
        <time>2022-10-02T08:41:44Z</time>
      </trkpt>
      <trkpt lat="47.36788" lon="7.97427">
        <ele>387.5</ele>
        <time>2022-10-02T08:41:45Z</time>
      </trkpt>
      <trkpt lat="47.36785" lon="7.9743">
        <ele>387</ele>
        <time>2022-10-02T08:41:46Z</time>
      </trkpt>
      <trkpt lat="47.36781" lon="7.97434">
        <ele>386.3</ele>
        <time>2022-10-02T08:41:47Z</time>
      </trkpt>
      <trkpt lat="47.36777" lon="7.97437">
        <ele>385.7</ele>
        <time>2022-10-02T08:41:48Z</time>
      </trkpt>
      <trkpt lat="47.36773" lon="7.9744">
        <ele>385.2</ele>
        <time>2022-10-02T08:41:49Z</time>
      </trkpt>
      <trkpt lat="47.3677" lon="7.97441">
        <ele>384.8</ele>
        <time>2022-10-02T08:41:50Z</time>
      </trkpt>
      <trkpt lat="47.36767" lon="7.97444">
        <ele>384.4</ele>
        <time>2022-10-02T08:41:51Z</time>
      </trkpt>
      <trkpt lat="47.36764" lon="7.97449">
        <ele>384.2</ele>
        <time>2022-10-02T08:41:52Z</time>
      </trkpt>
      <trkpt lat="47.36761" lon="7.97453">
        <ele>383.9</ele>
        <time>2022-10-02T08:41:53Z</time>
      </trkpt>
      <trkpt lat="47.36758" lon="7.97457">
        <ele>383.7</ele>
        <time>2022-10-02T08:41:54Z</time>
      </trkpt>
      <trkpt lat="47.36755" lon="7.97464">
        <ele>383.2</ele>
        <time>2022-10-02T08:41:55Z</time>
      </trkpt>
      <trkpt lat="47.36751" lon="7.97472">
        <ele>382.7</ele>
        <time>2022-10-02T08:41:56Z</time>
      </trkpt>
      <trkpt lat="47.36748" lon="7.9748">
        <ele>382.3</ele>
        <time>2022-10-02T08:41:57Z</time>
      </trkpt>
      <trkpt lat="47.36745" lon="7.97488">
        <ele>381.9</ele>
        <time>2022-10-02T08:41:58Z</time>
      </trkpt>
      <trkpt lat="47.36742" lon="7.97496">
        <ele>381.6</ele>
        <time>2022-10-02T08:41:59Z</time>
      </trkpt>
      <trkpt lat="47.36739" lon="7.97504">
        <ele>381.3</ele>
        <time>2022-10-02T08:42:00Z</time>
      </trkpt>
      <trkpt lat="47.36736" lon="7.97513">
        <ele>381.1</ele>
        <time>2022-10-02T08:42:01Z</time>
      </trkpt>
      <trkpt lat="47.36733" lon="7.97522">
        <ele>380.8</ele>
        <time>2022-10-02T08:42:02Z</time>
      </trkpt>
      <trkpt lat="47.36727" lon="7.97538">
        <ele>380.6</ele>
        <time>2022-10-02T08:42:03Z</time>
      </trkpt>
      <trkpt lat="47.36724" lon="7.97546">
        <ele>380.5</ele>
        <time>2022-10-02T08:42:04Z</time>
      </trkpt>
      <trkpt lat="47.36722" lon="7.97554">
        <ele>380.4</ele>
        <time>2022-10-02T08:42:05Z</time>
      </trkpt>
      <trkpt lat="47.36718" lon="7.97562">
        <ele>380.3</ele>
        <time>2022-10-02T08:42:06Z</time>
      </trkpt>
      <trkpt lat="47.36715" lon="7.97569">
        <ele>380.3</ele>
        <time>2022-10-02T08:42:07Z</time>
      </trkpt>
      <trkpt lat="47.36713" lon="7.97577">
        <ele>380.3</ele>
        <time>2022-10-02T08:42:08Z</time>
      </trkpt>
      <trkpt lat="47.3671" lon="7.97585">
        <ele>380.2</ele>
        <time>2022-10-02T08:42:09Z</time>
      </trkpt>
      <trkpt lat="47.36707" lon="7.97592">
        <ele>380.2</ele>
        <time>2022-10-02T08:42:10Z</time>
      </trkpt>
      <trkpt lat="47.36705" lon="7.976">
        <ele>380.1</ele>
        <time>2022-10-02T08:42:11Z</time>
      </trkpt>
      <trkpt lat="47.36703" lon="7.97608">
        <ele>380.1</ele>
        <time>2022-10-02T08:42:12Z</time>
      </trkpt>
      <trkpt lat="47.367" lon="7.97615">
        <ele>380.1</ele>
        <time>2022-10-02T08:42:13Z</time>
      </trkpt>
      <trkpt lat="47.36697" lon="7.97623">
        <ele>380.1</ele>
        <time>2022-10-02T08:42:14Z</time>
      </trkpt>
      <trkpt lat="47.36695" lon="7.97631">
        <ele>380.1</ele>
        <time>2022-10-02T08:42:15Z</time>
      </trkpt>
      <trkpt lat="47.36691" lon="7.97639">
        <ele>380.1</ele>
        <time>2022-10-02T08:42:16Z</time>
      </trkpt>
      <trkpt lat="47.36689" lon="7.97646">
        <ele>380.1</ele>
        <time>2022-10-02T08:42:17Z</time>
      </trkpt>
      <trkpt lat="47.36687" lon="7.97654">
        <ele>380.1</ele>
        <time>2022-10-02T08:42:18Z</time>
      </trkpt>
      <trkpt lat="47.36684" lon="7.97662">
        <ele>380.1</ele>
        <time>2022-10-02T08:42:19Z</time>
      </trkpt>
      <trkpt lat="47.36682" lon="7.97667">
        <ele>380.1</ele>
        <time>2022-10-02T08:42:20Z</time>
      </trkpt>
      <trkpt lat="47.36679" lon="7.97676">
        <ele>380.1</ele>
        <time>2022-10-02T08:42:21Z</time>
      </trkpt>
      <trkpt lat="47.36677" lon="7.97683">
        <ele>380.1</ele>
        <time>2022-10-02T08:42:22Z</time>
      </trkpt>
      <trkpt lat="47.36674" lon="7.97691">
        <ele>380.1</ele>
        <time>2022-10-02T08:42:23Z</time>
      </trkpt>
      <trkpt lat="47.36672" lon="7.97699">
        <ele>380.1</ele>
        <time>2022-10-02T08:42:24Z</time>
      </trkpt>
      <trkpt lat="47.36669" lon="7.97706">
        <ele>380.1</ele>
        <time>2022-10-02T08:42:25Z</time>
      </trkpt>
      <trkpt lat="47.36668" lon="7.97713">
        <ele>380.1</ele>
        <time>2022-10-02T08:42:26Z</time>
      </trkpt>
      <trkpt lat="47.36666" lon="7.9772">
        <ele>380.1</ele>
        <time>2022-10-02T08:42:27Z</time>
      </trkpt>
      <trkpt lat="47.36664" lon="7.97728">
        <ele>380.1</ele>
        <time>2022-10-02T08:42:28Z</time>
      </trkpt>
      <trkpt lat="47.36662" lon="7.97735">
        <ele>380.2</ele>
        <time>2022-10-02T08:42:29Z</time>
      </trkpt>
      <trkpt lat="47.3666" lon="7.97741">
        <ele>380.2</ele>
        <time>2022-10-02T08:42:30Z</time>
      </trkpt>
      <trkpt lat="47.36658" lon="7.9775">
        <ele>380.2</ele>
        <time>2022-10-02T08:42:31Z</time>
      </trkpt>
      <trkpt lat="47.36656" lon="7.97758">
        <ele>380.2</ele>
        <time>2022-10-02T08:42:32Z</time>
      </trkpt>
      <trkpt lat="47.36654" lon="7.97766">
        <ele>380.2</ele>
        <time>2022-10-02T08:42:33Z</time>
      </trkpt>
      <trkpt lat="47.36653" lon="7.97772">
        <ele>380.3</ele>
        <time>2022-10-02T08:42:34Z</time>
      </trkpt>
      <trkpt lat="47.36651" lon="7.97779">
        <ele>380.3</ele>
        <time>2022-10-02T08:42:35Z</time>
      </trkpt>
      <trkpt lat="47.36649" lon="7.97786">
        <ele>380.3</ele>
        <time>2022-10-02T08:42:36Z</time>
      </trkpt>
      <trkpt lat="47.36647" lon="7.97793">
        <ele>380.4</ele>
        <time>2022-10-02T08:42:37Z</time>
      </trkpt>
      <trkpt lat="47.36645" lon="7.978">
        <ele>380.4</ele>
        <time>2022-10-02T08:42:38Z</time>
      </trkpt>
      <trkpt lat="47.36643" lon="7.97806">
        <ele>380.5</ele>
        <time>2022-10-02T08:42:39Z</time>
      </trkpt>
      <trkpt lat="47.36642" lon="7.97811">
        <ele>380.6</ele>
        <time>2022-10-02T08:42:40Z</time>
      </trkpt>
      <trkpt lat="47.36642" lon="7.97816">
        <ele>380.6</ele>
        <time>2022-10-02T08:42:41Z</time>
      </trkpt>
      <trkpt lat="47.3664" lon="7.97819">
        <ele>380.7</ele>
        <time>2022-10-02T08:42:42Z</time>
      </trkpt>
      <trkpt lat="47.3664" lon="7.9782">
        <ele>380.7</ele>
        <time>2022-10-02T08:42:43Z</time>
      </trkpt>
      <trkpt lat="47.36639" lon="7.97823">
        <ele>380.7</ele>
        <time>2022-10-02T08:42:44Z</time>
      </trkpt>
      <trkpt lat="47.36638" lon="7.97824">
        <ele>380.8</ele>
        <time>2022-10-02T08:42:45Z</time>
      </trkpt>
      <trkpt lat="47.36638" lon="7.97828">
        <ele>380.8</ele>
        <time>2022-10-02T08:42:46Z</time>
      </trkpt>
      <trkpt lat="47.36638" lon="7.97829">
        <ele>380.8</ele>
        <time>2022-10-02T08:42:47Z</time>
      </trkpt>
      <trkpt lat="47.36638" lon="7.97831">
        <ele>380.8</ele>
        <time>2022-10-02T08:42:48Z</time>
      </trkpt>
      <trkpt lat="47.36637" lon="7.97835">
        <ele>380.8</ele>
        <time>2022-10-02T08:42:49Z</time>
      </trkpt>
      <trkpt lat="47.36637" lon="7.97837">
        <ele>380.8</ele>
        <time>2022-10-02T08:42:50Z</time>
      </trkpt>
      <trkpt lat="47.36635" lon="7.97841">
        <ele>380.7</ele>
        <time>2022-10-02T08:42:51Z</time>
      </trkpt>
      <trkpt lat="47.36634" lon="7.97842">
        <ele>380.7</ele>
        <time>2022-10-02T08:42:52Z</time>
      </trkpt>
      <trkpt lat="47.36633" lon="7.97847">
        <ele>380.7</ele>
        <time>2022-10-02T08:42:53Z</time>
      </trkpt>
      <trkpt lat="47.36631" lon="7.97853">
        <ele>380.7</ele>
        <time>2022-10-02T08:42:54Z</time>
      </trkpt>
      <trkpt lat="47.3663" lon="7.97857">
        <ele>380.7</ele>
        <time>2022-10-02T08:42:55Z</time>
      </trkpt>
      <trkpt lat="47.36628" lon="7.97863">
        <ele>380.7</ele>
        <time>2022-10-02T08:42:56Z</time>
      </trkpt>
      <trkpt lat="47.36626" lon="7.97867">
        <ele>380.6</ele>
        <time>2022-10-02T08:42:57Z</time>
      </trkpt>
      <trkpt lat="47.36625" lon="7.97874">
        <ele>380.6</ele>
        <time>2022-10-02T08:42:58Z</time>
      </trkpt>
      <trkpt lat="47.36623" lon="7.97877">
        <ele>380.6</ele>
        <time>2022-10-02T08:42:59Z</time>
      </trkpt>
      <trkpt lat="47.36623" lon="7.97884">
        <ele>380.6</ele>
        <time>2022-10-02T08:43:00Z</time>
      </trkpt>
      <trkpt lat="47.36621" lon="7.9789">
        <ele>380.6</ele>
        <time>2022-10-02T08:43:01Z</time>
      </trkpt>
      <trkpt lat="47.3662" lon="7.97895">
        <ele>380.6</ele>
        <time>2022-10-02T08:43:02Z</time>
      </trkpt>
      <trkpt lat="47.36618" lon="7.97901">
        <ele>380.6</ele>
        <time>2022-10-02T08:43:03Z</time>
      </trkpt>
      <trkpt lat="47.36616" lon="7.97907">
        <ele>380.6</ele>
        <time>2022-10-02T08:43:04Z</time>
      </trkpt>
      <trkpt lat="47.36614" lon="7.97913">
        <ele>380.6</ele>
        <time>2022-10-02T08:43:05Z</time>
      </trkpt>
      <trkpt lat="47.36613" lon="7.97919">
        <ele>380.6</ele>
        <time>2022-10-02T08:43:06Z</time>
      </trkpt>
      <trkpt lat="47.36612" lon="7.97923">
        <ele>380.5</ele>
        <time>2022-10-02T08:43:07Z</time>
      </trkpt>
      <trkpt lat="47.36611" lon="7.97928">
        <ele>380.5</ele>
        <time>2022-10-02T08:43:08Z</time>
      </trkpt>
      <trkpt lat="47.3661" lon="7.97933">
        <ele>380.5</ele>
        <time>2022-10-02T08:43:09Z</time>
      </trkpt>
      <trkpt lat="47.36608" lon="7.97938">
        <ele>380.5</ele>
        <time>2022-10-02T08:43:10Z</time>
      </trkpt>
      <trkpt lat="47.36606" lon="7.97944">
        <ele>380.5</ele>
        <time>2022-10-02T08:43:11Z</time>
      </trkpt>
      <trkpt lat="47.36604" lon="7.9795">
        <ele>380.4</ele>
        <time>2022-10-02T08:43:12Z</time>
      </trkpt>
      <trkpt lat="47.36602" lon="7.97956">
        <ele>380.4</ele>
        <time>2022-10-02T08:43:13Z</time>
      </trkpt>
      <trkpt lat="47.36601" lon="7.97962">
        <ele>380.4</ele>
        <time>2022-10-02T08:43:14Z</time>
      </trkpt>
      <trkpt lat="47.36599" lon="7.97968">
        <ele>380.4</ele>
        <time>2022-10-02T08:43:15Z</time>
      </trkpt>
      <trkpt lat="47.36597" lon="7.97973">
        <ele>380.3</ele>
        <time>2022-10-02T08:43:16Z</time>
      </trkpt>
      <trkpt lat="47.36596" lon="7.97978">
        <ele>380.3</ele>
        <time>2022-10-02T08:43:17Z</time>
      </trkpt>
      <trkpt lat="47.36594" lon="7.97983">
        <ele>380.3</ele>
        <time>2022-10-02T08:43:18Z</time>
      </trkpt>
      <trkpt lat="47.36592" lon="7.9799">
        <ele>380.3</ele>
        <time>2022-10-02T08:43:19Z</time>
      </trkpt>
      <trkpt lat="47.36591" lon="7.97995">
        <ele>380.3</ele>
        <time>2022-10-02T08:43:20Z</time>
      </trkpt>
      <trkpt lat="47.3659" lon="7.98">
        <ele>380.2</ele>
        <time>2022-10-02T08:43:21Z</time>
      </trkpt>
      <trkpt lat="47.36588" lon="7.98006">
        <ele>380.2</ele>
        <time>2022-10-02T08:43:22Z</time>
      </trkpt>
      <trkpt lat="47.36586" lon="7.98012">
        <ele>380.2</ele>
        <time>2022-10-02T08:43:23Z</time>
      </trkpt>
      <trkpt lat="47.36584" lon="7.98018">
        <ele>380.2</ele>
        <time>2022-10-02T08:43:25Z</time>
      </trkpt>
      <trkpt lat="47.36582" lon="7.98025">
        <ele>380.2</ele>
        <time>2022-10-02T08:43:26Z</time>
      </trkpt>
      <trkpt lat="47.36579" lon="7.98031">
        <ele>380.2</ele>
        <time>2022-10-02T08:43:27Z</time>
      </trkpt>
      <trkpt lat="47.36577" lon="7.98037">
        <ele>380.2</ele>
        <time>2022-10-02T08:43:28Z</time>
      </trkpt>
      <trkpt lat="47.36575" lon="7.98042">
        <ele>380.2</ele>
        <time>2022-10-02T08:43:29Z</time>
      </trkpt>
      <trkpt lat="47.36573" lon="7.98049">
        <ele>380.2</ele>
        <time>2022-10-02T08:43:30Z</time>
      </trkpt>
      <trkpt lat="47.3657" lon="7.98055">
        <ele>380.2</ele>
        <time>2022-10-02T08:43:31Z</time>
      </trkpt>
      <trkpt lat="47.36568" lon="7.9806">
        <ele>380.1</ele>
        <time>2022-10-02T08:43:32Z</time>
      </trkpt>
      <trkpt lat="47.36566" lon="7.98066">
        <ele>380.1</ele>
        <time>2022-10-02T08:43:33Z</time>
      </trkpt>
      <trkpt lat="47.36564" lon="7.98071">
        <ele>380.1</ele>
        <time>2022-10-02T08:43:34Z</time>
      </trkpt>
      <trkpt lat="47.36561" lon="7.98078">
        <ele>380.1</ele>
        <time>2022-10-02T08:43:35Z</time>
      </trkpt>
      <trkpt lat="47.36558" lon="7.98085">
        <ele>380.1</ele>
        <time>2022-10-02T08:43:36Z</time>
      </trkpt>
      <trkpt lat="47.36556" lon="7.98091">
        <ele>380</ele>
        <time>2022-10-02T08:43:37Z</time>
      </trkpt>
      <trkpt lat="47.36553" lon="7.98096">
        <ele>380</ele>
        <time>2022-10-02T08:43:38Z</time>
      </trkpt>
      <trkpt lat="47.36551" lon="7.98102">
        <ele>380</ele>
        <time>2022-10-02T08:43:39Z</time>
      </trkpt>
      <trkpt lat="47.36548" lon="7.98108">
        <ele>380</ele>
        <time>2022-10-02T08:43:40Z</time>
      </trkpt>
      <trkpt lat="47.36546" lon="7.98114">
        <ele>379.9</ele>
        <time>2022-10-02T08:43:41Z</time>
      </trkpt>
      <trkpt lat="47.36543" lon="7.98119">
        <ele>379.9</ele>
        <time>2022-10-02T08:43:42Z</time>
      </trkpt>
      <trkpt lat="47.36541" lon="7.98124">
        <ele>379.9</ele>
        <time>2022-10-02T08:43:43Z</time>
      </trkpt>
      <trkpt lat="47.36538" lon="7.9813">
        <ele>379.8</ele>
        <time>2022-10-02T08:43:44Z</time>
      </trkpt>
      <trkpt lat="47.36536" lon="7.98134">
        <ele>379.8</ele>
        <time>2022-10-02T08:43:45Z</time>
      </trkpt>
      <trkpt lat="47.36534" lon="7.9814">
        <ele>379.8</ele>
        <time>2022-10-02T08:43:46Z</time>
      </trkpt>
      <trkpt lat="47.36531" lon="7.98143">
        <ele>379.8</ele>
        <time>2022-10-02T08:43:47Z</time>
      </trkpt>
      <trkpt lat="47.3653" lon="7.98144">
        <ele>379.8</ele>
        <time>2022-10-02T08:43:48Z</time>
      </trkpt>
      <trkpt lat="47.3653" lon="7.98145">
        <ele>379.8</ele>
        <time>2022-10-02T08:43:49Z</time>
      </trkpt>
      <trkpt lat="47.3653" lon="7.98145">
        <ele>379.8</ele>
        <time>2022-10-02T08:43:50Z</time>
      </trkpt>
      <trkpt lat="47.36529" lon="7.98146">
        <ele>379.8</ele>
        <time>2022-10-02T08:43:51Z</time>
      </trkpt>
      <trkpt lat="47.36529" lon="7.98147">
        <ele>379.7</ele>
        <time>2022-10-02T08:43:52Z</time>
      </trkpt>
      <trkpt lat="47.36528" lon="7.98148">
        <ele>379.7</ele>
        <time>2022-10-02T08:43:53Z</time>
      </trkpt>
      <trkpt lat="47.36528" lon="7.98149">
        <ele>379.7</ele>
        <time>2022-10-02T08:43:54Z</time>
      </trkpt>
      <trkpt lat="47.36528" lon="7.9815">
        <ele>379.7</ele>
        <time>2022-10-02T08:43:55Z</time>
      </trkpt>
      <trkpt lat="47.36528" lon="7.9815">
        <ele>379.7</ele>
        <time>2022-10-02T08:43:56Z</time>
      </trkpt>
      <trkpt lat="47.36527" lon="7.98151">
        <ele>379.7</ele>
        <time>2022-10-02T08:43:57Z</time>
      </trkpt>
      <trkpt lat="47.36527" lon="7.98152">
        <ele>379.7</ele>
        <time>2022-10-02T08:49:13Z</time>
      </trkpt>
      <trkpt lat="47.36527" lon="7.98153">
        <ele>379.7</ele>
        <time>2022-10-02T08:49:14Z</time>
      </trkpt>
      <trkpt lat="47.36526" lon="7.98154">
        <ele>379.7</ele>
        <time>2022-10-02T08:49:15Z</time>
      </trkpt>
      <trkpt lat="47.36526" lon="7.98155">
        <ele>379.7</ele>
        <time>2022-10-02T08:49:16Z</time>
      </trkpt>
      <trkpt lat="47.36526" lon="7.98156">
        <ele>379.7</ele>
        <time>2022-10-02T08:49:17Z</time>
      </trkpt>
      <trkpt lat="47.36526" lon="7.98157">
        <ele>379.7</ele>
        <time>2022-10-02T08:49:18Z</time>
      </trkpt>
      <trkpt lat="47.36525" lon="7.98158">
        <ele>379.7</ele>
        <time>2022-10-02T08:49:19Z</time>
      </trkpt>
      <trkpt lat="47.36525" lon="7.98158">
        <ele>379.7</ele>
        <time>2022-10-02T08:49:20Z</time>
      </trkpt>
      <trkpt lat="47.36525" lon="7.98159">
        <ele>379.7</ele>
        <time>2022-10-02T08:49:21Z</time>
      </trkpt>
      <trkpt lat="47.36524" lon="7.9816">
        <ele>379.7</ele>
        <time>2022-10-02T08:49:22Z</time>
      </trkpt>
      <trkpt lat="47.36524" lon="7.98161">
        <ele>379.7</ele>
        <time>2022-10-02T08:49:39Z</time>
      </trkpt>
      <trkpt lat="47.36524" lon="7.98162">
        <ele>379.7</ele>
        <time>2022-10-02T08:49:40Z</time>
      </trkpt>
      <trkpt lat="47.36524" lon="7.98163">
        <ele>379.7</ele>
        <time>2022-10-02T08:49:41Z</time>
      </trkpt>
      <trkpt lat="47.36522" lon="7.98167">
        <ele>379.7</ele>
        <time>2022-10-02T08:49:43Z</time>
      </trkpt>
      <trkpt lat="47.36521" lon="7.98171">
        <ele>379.7</ele>
        <time>2022-10-02T08:49:44Z</time>
      </trkpt>
      <trkpt lat="47.3652" lon="7.98172">
        <ele>379.7</ele>
        <time>2022-10-02T08:49:45Z</time>
      </trkpt>
      <trkpt lat="47.36519" lon="7.98177">
        <ele>379.7</ele>
        <time>2022-10-02T08:49:46Z</time>
      </trkpt>
      <trkpt lat="47.36518" lon="7.98178">
        <ele>379.7</ele>
        <time>2022-10-02T08:49:47Z</time>
      </trkpt>
      <trkpt lat="47.36516" lon="7.98181">
        <ele>379.7</ele>
        <time>2022-10-02T08:49:48Z</time>
      </trkpt>
      <trkpt lat="47.36515" lon="7.98184">
        <ele>379.7</ele>
        <time>2022-10-02T08:49:49Z</time>
      </trkpt>
      <trkpt lat="47.36514" lon="7.98186">
        <ele>379.7</ele>
        <time>2022-10-02T08:49:50Z</time>
      </trkpt>
      <trkpt lat="47.36512" lon="7.9819">
        <ele>379.6</ele>
        <time>2022-10-02T08:49:51Z</time>
      </trkpt>
      <trkpt lat="47.36512" lon="7.98192">
        <ele>379.6</ele>
        <time>2022-10-02T08:49:52Z</time>
      </trkpt>
      <trkpt lat="47.36511" lon="7.98197">
        <ele>379.6</ele>
        <time>2022-10-02T08:49:53Z</time>
      </trkpt>
      <trkpt lat="47.36508" lon="7.98202">
        <ele>379.6</ele>
        <time>2022-10-02T08:49:54Z</time>
      </trkpt>
      <trkpt lat="47.36507" lon="7.98206">
        <ele>379.6</ele>
        <time>2022-10-02T08:49:55Z</time>
      </trkpt>
      <trkpt lat="47.36504" lon="7.98215">
        <ele>379.6</ele>
        <time>2022-10-02T08:49:56Z</time>
      </trkpt>
      <trkpt lat="47.36503" lon="7.9822">
        <ele>379.6</ele>
        <time>2022-10-02T08:49:57Z</time>
      </trkpt>
      <trkpt lat="47.365" lon="7.98227">
        <ele>379.6</ele>
        <time>2022-10-02T08:49:59Z</time>
      </trkpt>
      <trkpt lat="47.36499" lon="7.98231">
        <ele>379.6</ele>
        <time>2022-10-02T08:50:00Z</time>
      </trkpt>
      <trkpt lat="47.36498" lon="7.98234">
        <ele>379.6</ele>
        <time>2022-10-02T08:50:01Z</time>
      </trkpt>
      <trkpt lat="47.36497" lon="7.98239">
        <ele>379.6</ele>
        <time>2022-10-02T08:50:02Z</time>
      </trkpt>
      <trkpt lat="47.36495" lon="7.98244">
        <ele>379.6</ele>
        <time>2022-10-02T08:50:03Z</time>
      </trkpt>
      <trkpt lat="47.36493" lon="7.9825">
        <ele>379.6</ele>
        <time>2022-10-02T08:50:04Z</time>
      </trkpt>
      <trkpt lat="47.36491" lon="7.98255">
        <ele>379.6</ele>
        <time>2022-10-02T08:50:05Z</time>
      </trkpt>
      <trkpt lat="47.36489" lon="7.98261">
        <ele>379.6</ele>
        <time>2022-10-02T08:50:06Z</time>
      </trkpt>
      <trkpt lat="47.36487" lon="7.98266">
        <ele>379.6</ele>
        <time>2022-10-02T08:50:07Z</time>
      </trkpt>
      <trkpt lat="47.36485" lon="7.98271">
        <ele>379.6</ele>
        <time>2022-10-02T08:50:08Z</time>
      </trkpt>
      <trkpt lat="47.36483" lon="7.98276">
        <ele>379.6</ele>
        <time>2022-10-02T08:50:09Z</time>
      </trkpt>
      <trkpt lat="47.36482" lon="7.98281">
        <ele>379.6</ele>
        <time>2022-10-02T08:50:10Z</time>
      </trkpt>
      <trkpt lat="47.3648" lon="7.98286">
        <ele>379.6</ele>
        <time>2022-10-02T08:50:11Z</time>
      </trkpt>
      <trkpt lat="47.36477" lon="7.98293">
        <ele>379.6</ele>
        <time>2022-10-02T08:50:12Z</time>
      </trkpt>
      <trkpt lat="47.36475" lon="7.98299">
        <ele>379.6</ele>
        <time>2022-10-02T08:50:13Z</time>
      </trkpt>
      <trkpt lat="47.36473" lon="7.98304">
        <ele>379.6</ele>
        <time>2022-10-02T08:50:14Z</time>
      </trkpt>
      <trkpt lat="47.36469" lon="7.98316">
        <ele>379.6</ele>
        <time>2022-10-02T08:50:15Z</time>
      </trkpt>
      <trkpt lat="47.36467" lon="7.98322">
        <ele>379.6</ele>
        <time>2022-10-02T08:50:16Z</time>
      </trkpt>
      <trkpt lat="47.36465" lon="7.98328">
        <ele>379.6</ele>
        <time>2022-10-02T08:50:17Z</time>
      </trkpt>
      <trkpt lat="47.36463" lon="7.98335">
        <ele>379.5</ele>
        <time>2022-10-02T08:50:18Z</time>
      </trkpt>
      <trkpt lat="47.36462" lon="7.98341">
        <ele>379.5</ele>
        <time>2022-10-02T08:50:19Z</time>
      </trkpt>
      <trkpt lat="47.36459" lon="7.98348">
        <ele>379.4</ele>
        <time>2022-10-02T08:50:20Z</time>
      </trkpt>
      <trkpt lat="47.36457" lon="7.98354">
        <ele>379.4</ele>
        <time>2022-10-02T08:50:21Z</time>
      </trkpt>
      <trkpt lat="47.36454" lon="7.98361">
        <ele>379.4</ele>
        <time>2022-10-02T08:50:22Z</time>
      </trkpt>
      <trkpt lat="47.36452" lon="7.98367">
        <ele>379.3</ele>
        <time>2022-10-02T08:50:23Z</time>
      </trkpt>
      <trkpt lat="47.3645" lon="7.98375">
        <ele>379.3</ele>
        <time>2022-10-02T08:50:24Z</time>
      </trkpt>
      <trkpt lat="47.36447" lon="7.98382">
        <ele>379.2</ele>
        <time>2022-10-02T08:50:25Z</time>
      </trkpt>
      <trkpt lat="47.36445" lon="7.9839">
        <ele>379.2</ele>
        <time>2022-10-02T08:50:26Z</time>
      </trkpt>
      <trkpt lat="47.36442" lon="7.98398">
        <ele>379.1</ele>
        <time>2022-10-02T08:50:27Z</time>
      </trkpt>
      <trkpt lat="47.36439" lon="7.98405">
        <ele>379.1</ele>
        <time>2022-10-02T08:50:28Z</time>
      </trkpt>
      <trkpt lat="47.36437" lon="7.98412">
        <ele>379.1</ele>
        <time>2022-10-02T08:50:29Z</time>
      </trkpt>
      <trkpt lat="47.36434" lon="7.98418">
        <ele>379</ele>
        <time>2022-10-02T08:50:30Z</time>
      </trkpt>
      <trkpt lat="47.36432" lon="7.98425">
        <ele>379</ele>
        <time>2022-10-02T08:50:31Z</time>
      </trkpt>
      <trkpt lat="47.36429" lon="7.98433">
        <ele>379</ele>
        <time>2022-10-02T08:50:32Z</time>
      </trkpt>
      <trkpt lat="47.36427" lon="7.9844">
        <ele>378.9</ele>
        <time>2022-10-02T08:50:33Z</time>
      </trkpt>
      <trkpt lat="47.36425" lon="7.98446">
        <ele>378.9</ele>
        <time>2022-10-02T08:50:34Z</time>
      </trkpt>
      <trkpt lat="47.36422" lon="7.98453">
        <ele>378.9</ele>
        <time>2022-10-02T08:50:35Z</time>
      </trkpt>
      <trkpt lat="47.36419" lon="7.98459">
        <ele>378.8</ele>
        <time>2022-10-02T08:50:36Z</time>
      </trkpt>
      <trkpt lat="47.36416" lon="7.98467">
        <ele>378.8</ele>
        <time>2022-10-02T08:50:37Z</time>
      </trkpt>
      <trkpt lat="47.36414" lon="7.98473">
        <ele>378.7</ele>
        <time>2022-10-02T08:50:38Z</time>
      </trkpt>
      <trkpt lat="47.3641" lon="7.9848">
        <ele>378.7</ele>
        <time>2022-10-02T08:50:39Z</time>
      </trkpt>
      <trkpt lat="47.36409" lon="7.98485">
        <ele>378.6</ele>
        <time>2022-10-02T08:50:40Z</time>
      </trkpt>
      <trkpt lat="47.36406" lon="7.98494">
        <ele>378.6</ele>
        <time>2022-10-02T08:50:41Z</time>
      </trkpt>
      <trkpt lat="47.36403" lon="7.98498">
        <ele>378.5</ele>
        <time>2022-10-02T08:50:42Z</time>
      </trkpt>
      <trkpt lat="47.364" lon="7.98505">
        <ele>378.5</ele>
        <time>2022-10-02T08:50:43Z</time>
      </trkpt>
      <trkpt lat="47.36398" lon="7.9851">
        <ele>378.4</ele>
        <time>2022-10-02T08:50:44Z</time>
      </trkpt>
      <trkpt lat="47.36394" lon="7.98517">
        <ele>378.4</ele>
        <time>2022-10-02T08:50:45Z</time>
      </trkpt>
      <trkpt lat="47.36391" lon="7.98524">
        <ele>378.3</ele>
        <time>2022-10-02T08:50:46Z</time>
      </trkpt>
      <trkpt lat="47.36388" lon="7.9853">
        <ele>378.3</ele>
        <time>2022-10-02T08:50:47Z</time>
      </trkpt>
      <trkpt lat="47.36387" lon="7.98534">
        <ele>378.3</ele>
        <time>2022-10-02T08:50:48Z</time>
      </trkpt>
      <trkpt lat="47.36387" lon="7.98539">
        <ele>378.3</ele>
        <time>2022-10-02T08:50:49Z</time>
      </trkpt>
      <trkpt lat="47.36387" lon="7.98542">
        <ele>378.3</ele>
        <time>2022-10-02T08:50:50Z</time>
      </trkpt>
      <trkpt lat="47.36387" lon="7.98547">
        <ele>378.2</ele>
        <time>2022-10-02T08:50:51Z</time>
      </trkpt>
      <trkpt lat="47.36388" lon="7.98549">
        <ele>378.2</ele>
        <time>2022-10-02T08:50:52Z</time>
      </trkpt>
      <trkpt lat="47.36391" lon="7.98552">
        <ele>378.2</ele>
        <time>2022-10-02T08:50:53Z</time>
      </trkpt>
      <trkpt lat="47.36395" lon="7.98553">
        <ele>378.2</ele>
        <time>2022-10-02T08:50:54Z</time>
      </trkpt>
      <trkpt lat="47.36397" lon="7.98554">
        <ele>378.2</ele>
        <time>2022-10-02T08:50:55Z</time>
      </trkpt>
      <trkpt lat="47.36401" lon="7.98556">
        <ele>378.2</ele>
        <time>2022-10-02T08:50:56Z</time>
      </trkpt>
      <trkpt lat="47.36404" lon="7.98557">
        <ele>378.2</ele>
        <time>2022-10-02T08:50:57Z</time>
      </trkpt>
      <trkpt lat="47.36407" lon="7.98558">
        <ele>378.3</ele>
        <time>2022-10-02T08:50:58Z</time>
      </trkpt>
      <trkpt lat="47.3641" lon="7.9856">
        <ele>378.3</ele>
        <time>2022-10-02T08:50:59Z</time>
      </trkpt>
      <trkpt lat="47.36413" lon="7.98561">
        <ele>378.3</ele>
        <time>2022-10-02T08:51:00Z</time>
      </trkpt>
      <trkpt lat="47.36417" lon="7.98562">
        <ele>378.3</ele>
        <time>2022-10-02T08:51:01Z</time>
      </trkpt>
      <trkpt lat="47.3642" lon="7.98563">
        <ele>378.3</ele>
        <time>2022-10-02T08:51:02Z</time>
      </trkpt>
      <trkpt lat="47.36424" lon="7.98564">
        <ele>378.3</ele>
        <time>2022-10-02T08:51:03Z</time>
      </trkpt>
      <trkpt lat="47.36428" lon="7.98565">
        <ele>378.3</ele>
        <time>2022-10-02T08:51:04Z</time>
      </trkpt>
      <trkpt lat="47.36432" lon="7.98566">
        <ele>378.3</ele>
        <time>2022-10-02T08:51:05Z</time>
      </trkpt>
      <trkpt lat="47.36436" lon="7.98566">
        <ele>378.4</ele>
        <time>2022-10-02T08:51:06Z</time>
      </trkpt>
      <trkpt lat="47.3644" lon="7.98567">
        <ele>378.4</ele>
        <time>2022-10-02T08:51:07Z</time>
      </trkpt>
      <trkpt lat="47.36444" lon="7.98568">
        <ele>378.4</ele>
        <time>2022-10-02T08:51:08Z</time>
      </trkpt>
      <trkpt lat="47.36448" lon="7.98569">
        <ele>378.5</ele>
        <time>2022-10-02T08:51:09Z</time>
      </trkpt>
      <trkpt lat="47.36451" lon="7.9857">
        <ele>378.5</ele>
        <time>2022-10-02T08:51:10Z</time>
      </trkpt>
      <trkpt lat="47.36455" lon="7.98571">
        <ele>378.6</ele>
        <time>2022-10-02T08:51:11Z</time>
      </trkpt>
      <trkpt lat="47.36458" lon="7.98574">
        <ele>378.6</ele>
        <time>2022-10-02T08:51:12Z</time>
      </trkpt>
      <trkpt lat="47.3646" lon="7.98576">
        <ele>378.5</ele>
        <time>2022-10-02T08:51:13Z</time>
      </trkpt>
      <trkpt lat="47.36462" lon="7.98581">
        <ele>378.5</ele>
        <time>2022-10-02T08:51:14Z</time>
      </trkpt>
      <trkpt lat="47.36462" lon="7.98586">
        <ele>378.4</ele>
        <time>2022-10-02T08:51:15Z</time>
      </trkpt>
      <trkpt lat="47.36461" lon="7.9859">
        <ele>378.4</ele>
        <time>2022-10-02T08:51:16Z</time>
      </trkpt>
      <trkpt lat="47.3646" lon="7.98595">
        <ele>378.3</ele>
        <time>2022-10-02T08:51:17Z</time>
      </trkpt>
      <trkpt lat="47.36459" lon="7.98601">
        <ele>378.2</ele>
        <time>2022-10-02T08:51:18Z</time>
      </trkpt>
      <trkpt lat="47.36458" lon="7.98607">
        <ele>378.2</ele>
        <time>2022-10-02T08:51:19Z</time>
      </trkpt>
      <trkpt lat="47.36457" lon="7.98614">
        <ele>378.1</ele>
        <time>2022-10-02T08:51:20Z</time>
      </trkpt>
      <trkpt lat="47.36457" lon="7.98621">
        <ele>378</ele>
        <time>2022-10-02T08:51:21Z</time>
      </trkpt>
      <trkpt lat="47.36457" lon="7.98627">
        <ele>378</ele>
        <time>2022-10-02T08:51:22Z</time>
      </trkpt>
      <trkpt lat="47.36456" lon="7.98634">
        <ele>377.9</ele>
        <time>2022-10-02T08:51:23Z</time>
      </trkpt>
      <trkpt lat="47.36456" lon="7.98641">
        <ele>377.9</ele>
        <time>2022-10-02T08:51:24Z</time>
      </trkpt>
      <trkpt lat="47.36456" lon="7.98648">
        <ele>377.8</ele>
        <time>2022-10-02T08:51:25Z</time>
      </trkpt>
      <trkpt lat="47.36455" lon="7.98656">
        <ele>377.8</ele>
        <time>2022-10-02T08:51:26Z</time>
      </trkpt>
      <trkpt lat="47.36455" lon="7.98664">
        <ele>377.8</ele>
        <time>2022-10-02T08:51:27Z</time>
      </trkpt>
      <trkpt lat="47.36454" lon="7.98672">
        <ele>377.7</ele>
        <time>2022-10-02T08:51:28Z</time>
      </trkpt>
      <trkpt lat="47.36454" lon="7.98679">
        <ele>377.7</ele>
        <time>2022-10-02T08:51:29Z</time>
      </trkpt>
      <trkpt lat="47.36453" lon="7.98687">
        <ele>377.7</ele>
        <time>2022-10-02T08:51:30Z</time>
      </trkpt>
      <trkpt lat="47.36453" lon="7.98695">
        <ele>377.7</ele>
        <time>2022-10-02T08:51:31Z</time>
      </trkpt>
      <trkpt lat="47.36452" lon="7.98702">
        <ele>377.7</ele>
        <time>2022-10-02T08:51:32Z</time>
      </trkpt>
      <trkpt lat="47.36452" lon="7.9871">
        <ele>377.7</ele>
        <time>2022-10-02T08:51:33Z</time>
      </trkpt>
      <trkpt lat="47.36452" lon="7.98719">
        <ele>377.7</ele>
        <time>2022-10-02T08:51:34Z</time>
      </trkpt>
      <trkpt lat="47.36451" lon="7.98727">
        <ele>377.7</ele>
        <time>2022-10-02T08:51:35Z</time>
      </trkpt>
      <trkpt lat="47.36451" lon="7.98735">
        <ele>377.7</ele>
        <time>2022-10-02T08:51:36Z</time>
      </trkpt>
      <trkpt lat="47.36451" lon="7.98743">
        <ele>377.7</ele>
        <time>2022-10-02T08:51:37Z</time>
      </trkpt>
      <trkpt lat="47.3645" lon="7.98751">
        <ele>377.7</ele>
        <time>2022-10-02T08:51:38Z</time>
      </trkpt>
      <trkpt lat="47.3645" lon="7.98759">
        <ele>377.6</ele>
        <time>2022-10-02T08:51:39Z</time>
      </trkpt>
      <trkpt lat="47.3645" lon="7.98767">
        <ele>377.6</ele>
        <time>2022-10-02T08:51:40Z</time>
      </trkpt>
      <trkpt lat="47.3645" lon="7.98775">
        <ele>377.5</ele>
        <time>2022-10-02T08:51:41Z</time>
      </trkpt>
      <trkpt lat="47.3645" lon="7.98783">
        <ele>377.5</ele>
        <time>2022-10-02T08:51:42Z</time>
      </trkpt>
      <trkpt lat="47.3645" lon="7.98791">
        <ele>377.4</ele>
        <time>2022-10-02T08:51:43Z</time>
      </trkpt>
      <trkpt lat="47.3645" lon="7.98799">
        <ele>377.3</ele>
        <time>2022-10-02T08:51:44Z</time>
      </trkpt>
      <trkpt lat="47.3645" lon="7.98807">
        <ele>377.2</ele>
        <time>2022-10-02T08:51:45Z</time>
      </trkpt>
      <trkpt lat="47.3645" lon="7.98815">
        <ele>377.1</ele>
        <time>2022-10-02T08:51:46Z</time>
      </trkpt>
      <trkpt lat="47.36451" lon="7.98823">
        <ele>377.1</ele>
        <time>2022-10-02T08:51:47Z</time>
      </trkpt>
      <trkpt lat="47.36451" lon="7.98831">
        <ele>377</ele>
        <time>2022-10-02T08:51:49Z</time>
      </trkpt>
      <trkpt lat="47.3645" lon="7.98846">
        <ele>376.7</ele>
        <time>2022-10-02T08:51:50Z</time>
      </trkpt>
      <trkpt lat="47.3645" lon="7.98854">
        <ele>376.6</ele>
        <time>2022-10-02T08:51:51Z</time>
      </trkpt>
      <trkpt lat="47.3645" lon="7.98863">
        <ele>376.4</ele>
        <time>2022-10-02T08:51:52Z</time>
      </trkpt>
      <trkpt lat="47.36451" lon="7.98871">
        <ele>376.1</ele>
        <time>2022-10-02T08:51:53Z</time>
      </trkpt>
      <trkpt lat="47.36452" lon="7.98879">
        <ele>375.9</ele>
        <time>2022-10-02T08:51:54Z</time>
      </trkpt>
      <trkpt lat="47.36453" lon="7.98888">
        <ele>375.7</ele>
        <time>2022-10-02T08:51:55Z</time>
      </trkpt>
      <trkpt lat="47.36454" lon="7.98897">
        <ele>375.5</ele>
        <time>2022-10-02T08:51:56Z</time>
      </trkpt>
      <trkpt lat="47.36456" lon="7.98906">
        <ele>375.4</ele>
        <time>2022-10-02T08:51:57Z</time>
      </trkpt>
      <trkpt lat="47.36458" lon="7.98916">
        <ele>375.3</ele>
        <time>2022-10-02T08:51:58Z</time>
      </trkpt>
      <trkpt lat="47.3646" lon="7.98926">
        <ele>375.2</ele>
        <time>2022-10-02T08:51:59Z</time>
      </trkpt>
      <trkpt lat="47.36463" lon="7.98935">
        <ele>375.2</ele>
        <time>2022-10-02T08:52:00Z</time>
      </trkpt>
      <trkpt lat="47.36466" lon="7.98943">
        <ele>375.2</ele>
        <time>2022-10-02T08:52:01Z</time>
      </trkpt>
      <trkpt lat="47.36469" lon="7.98952">
        <ele>375.2</ele>
        <time>2022-10-02T08:52:02Z</time>
      </trkpt>
      <trkpt lat="47.36473" lon="7.9896">
        <ele>375.2</ele>
        <time>2022-10-02T08:52:03Z</time>
      </trkpt>
      <trkpt lat="47.36476" lon="7.98968">
        <ele>375.3</ele>
        <time>2022-10-02T08:52:04Z</time>
      </trkpt>
      <trkpt lat="47.3648" lon="7.98975">
        <ele>375.3</ele>
        <time>2022-10-02T08:52:05Z</time>
      </trkpt>
      <trkpt lat="47.36485" lon="7.98982">
        <ele>375.3</ele>
        <time>2022-10-02T08:52:06Z</time>
      </trkpt>
      <trkpt lat="47.36489" lon="7.98989">
        <ele>375.3</ele>
        <time>2022-10-02T08:52:07Z</time>
      </trkpt>
      <trkpt lat="47.36494" lon="7.98996">
        <ele>375.3</ele>
        <time>2022-10-02T08:52:08Z</time>
      </trkpt>
      <trkpt lat="47.36498" lon="7.99003">
        <ele>375.4</ele>
        <time>2022-10-02T08:52:09Z</time>
      </trkpt>
      <trkpt lat="47.36503" lon="7.99008">
        <ele>375.4</ele>
        <time>2022-10-02T08:52:10Z</time>
      </trkpt>
      <trkpt lat="47.36508" lon="7.99014">
        <ele>375.5</ele>
        <time>2022-10-02T08:52:11Z</time>
      </trkpt>
      <trkpt lat="47.36513" lon="7.9902">
        <ele>375.6</ele>
        <time>2022-10-02T08:52:12Z</time>
      </trkpt>
      <trkpt lat="47.36518" lon="7.99025">
        <ele>375.7</ele>
        <time>2022-10-02T08:52:13Z</time>
      </trkpt>
      <trkpt lat="47.36523" lon="7.99031">
        <ele>375.9</ele>
        <time>2022-10-02T08:52:14Z</time>
      </trkpt>
      <trkpt lat="47.36528" lon="7.99036">
        <ele>376</ele>
        <time>2022-10-02T08:52:15Z</time>
      </trkpt>
      <trkpt lat="47.36533" lon="7.99041">
        <ele>376.2</ele>
        <time>2022-10-02T08:52:16Z</time>
      </trkpt>
      <trkpt lat="47.36538" lon="7.99045">
        <ele>376.4</ele>
        <time>2022-10-02T08:52:17Z</time>
      </trkpt>
      <trkpt lat="47.36543" lon="7.99049">
        <ele>376.5</ele>
        <time>2022-10-02T08:52:18Z</time>
      </trkpt>
      <trkpt lat="47.36548" lon="7.99053">
        <ele>376.7</ele>
        <time>2022-10-02T08:52:19Z</time>
      </trkpt>
      <trkpt lat="47.36552" lon="7.99057">
        <ele>376.8</ele>
        <time>2022-10-02T08:52:20Z</time>
      </trkpt>
      <trkpt lat="47.36555" lon="7.9906">
        <ele>376.8</ele>
        <time>2022-10-02T08:52:21Z</time>
      </trkpt>
      <trkpt lat="47.3656" lon="7.99065">
        <ele>376.8</ele>
        <time>2022-10-02T08:52:22Z</time>
      </trkpt>
      <trkpt lat="47.36563" lon="7.99069">
        <ele>376.8</ele>
        <time>2022-10-02T08:52:23Z</time>
      </trkpt>
      <trkpt lat="47.36568" lon="7.99073">
        <ele>376.9</ele>
        <time>2022-10-02T08:52:24Z</time>
      </trkpt>
      <trkpt lat="47.36571" lon="7.99077">
        <ele>376.9</ele>
        <time>2022-10-02T08:52:25Z</time>
      </trkpt>
      <trkpt lat="47.36575" lon="7.99079">
        <ele>376.9</ele>
        <time>2022-10-02T08:52:26Z</time>
      </trkpt>
      <trkpt lat="47.36579" lon="7.99084">
        <ele>376.9</ele>
        <time>2022-10-02T08:52:27Z</time>
      </trkpt>
      <trkpt lat="47.36583" lon="7.99089">
        <ele>377</ele>
        <time>2022-10-02T08:52:28Z</time>
      </trkpt>
      <trkpt lat="47.36587" lon="7.99092">
        <ele>377</ele>
        <time>2022-10-02T08:52:29Z</time>
      </trkpt>
      <trkpt lat="47.36592" lon="7.99098">
        <ele>377</ele>
        <time>2022-10-02T08:52:30Z</time>
      </trkpt>
      <trkpt lat="47.36596" lon="7.99103">
        <ele>377</ele>
        <time>2022-10-02T08:52:31Z</time>
      </trkpt>
      <trkpt lat="47.36601" lon="7.99107">
        <ele>377.1</ele>
        <time>2022-10-02T08:52:32Z</time>
      </trkpt>
      <trkpt lat="47.36605" lon="7.99111">
        <ele>377.1</ele>
        <time>2022-10-02T08:52:33Z</time>
      </trkpt>
      <trkpt lat="47.36608" lon="7.99116">
        <ele>377.1</ele>
        <time>2022-10-02T08:52:34Z</time>
      </trkpt>
      <trkpt lat="47.36613" lon="7.9912">
        <ele>377.1</ele>
        <time>2022-10-02T08:52:35Z</time>
      </trkpt>
      <trkpt lat="47.36618" lon="7.99126">
        <ele>377.2</ele>
        <time>2022-10-02T08:52:36Z</time>
      </trkpt>
      <trkpt lat="47.36621" lon="7.9913">
        <ele>377.2</ele>
        <time>2022-10-02T08:52:37Z</time>
      </trkpt>
      <trkpt lat="47.36627" lon="7.99134">
        <ele>377.2</ele>
        <time>2022-10-02T08:52:38Z</time>
      </trkpt>
      <trkpt lat="47.36631" lon="7.99138">
        <ele>377.2</ele>
        <time>2022-10-02T08:52:39Z</time>
      </trkpt>
      <trkpt lat="47.36635" lon="7.99143">
        <ele>377.3</ele>
        <time>2022-10-02T08:52:40Z</time>
      </trkpt>
      <trkpt lat="47.36639" lon="7.99147">
        <ele>377.3</ele>
        <time>2022-10-02T08:52:41Z</time>
      </trkpt>
      <trkpt lat="47.36644" lon="7.99152">
        <ele>377.3</ele>
        <time>2022-10-02T08:52:42Z</time>
      </trkpt>
      <trkpt lat="47.36648" lon="7.99156">
        <ele>377.4</ele>
        <time>2022-10-02T08:52:43Z</time>
      </trkpt>
      <trkpt lat="47.36652" lon="7.9916">
        <ele>377.4</ele>
        <time>2022-10-02T08:52:44Z</time>
      </trkpt>
      <trkpt lat="47.36657" lon="7.99165">
        <ele>377.5</ele>
        <time>2022-10-02T08:52:45Z</time>
      </trkpt>
      <trkpt lat="47.36661" lon="7.99168">
        <ele>377.5</ele>
        <time>2022-10-02T08:52:46Z</time>
      </trkpt>
      <trkpt lat="47.36665" lon="7.99172">
        <ele>377.6</ele>
        <time>2022-10-02T08:52:47Z</time>
      </trkpt>
      <trkpt lat="47.3667" lon="7.99177">
        <ele>377.6</ele>
        <time>2022-10-02T08:52:48Z</time>
      </trkpt>
      <trkpt lat="47.36673" lon="7.99181">
        <ele>377.7</ele>
        <time>2022-10-02T08:52:49Z</time>
      </trkpt>
      <trkpt lat="47.36677" lon="7.99184">
        <ele>377.7</ele>
        <time>2022-10-02T08:52:50Z</time>
      </trkpt>
      <trkpt lat="47.3668" lon="7.99189">
        <ele>377.7</ele>
        <time>2022-10-02T08:52:51Z</time>
      </trkpt>
      <trkpt lat="47.36684" lon="7.99191">
        <ele>377.8</ele>
        <time>2022-10-02T08:52:52Z</time>
      </trkpt>
      <trkpt lat="47.36688" lon="7.99196">
        <ele>377.8</ele>
        <time>2022-10-02T08:52:53Z</time>
      </trkpt>
      <trkpt lat="47.3669" lon="7.99199">
        <ele>377.8</ele>
        <time>2022-10-02T08:52:54Z</time>
      </trkpt>
      <trkpt lat="47.36694" lon="7.99203">
        <ele>377.8</ele>
        <time>2022-10-02T08:52:55Z</time>
      </trkpt>
      <trkpt lat="47.36699" lon="7.99208">
        <ele>377.8</ele>
        <time>2022-10-02T08:52:56Z</time>
      </trkpt>
      <trkpt lat="47.36704" lon="7.99213">
        <ele>377.8</ele>
        <time>2022-10-02T08:52:57Z</time>
      </trkpt>
      <trkpt lat="47.36708" lon="7.99219">
        <ele>377.8</ele>
        <time>2022-10-02T08:52:58Z</time>
      </trkpt>
      <trkpt lat="47.36714" lon="7.99224">
        <ele>377.7</ele>
        <time>2022-10-02T08:52:59Z</time>
      </trkpt>
      <trkpt lat="47.36719" lon="7.99228">
        <ele>377.7</ele>
        <time>2022-10-02T08:53:00Z</time>
      </trkpt>
      <trkpt lat="47.36724" lon="7.99234">
        <ele>377.7</ele>
        <time>2022-10-02T08:53:01Z</time>
      </trkpt>
      <trkpt lat="47.36728" lon="7.9924">
        <ele>377.7</ele>
        <time>2022-10-02T08:53:02Z</time>
      </trkpt>
      <trkpt lat="47.36733" lon="7.99244">
        <ele>377.7</ele>
        <time>2022-10-02T08:53:03Z</time>
      </trkpt>
      <trkpt lat="47.36738" lon="7.99248">
        <ele>377.8</ele>
        <time>2022-10-02T08:53:04Z</time>
      </trkpt>
      <trkpt lat="47.36742" lon="7.99253">
        <ele>377.8</ele>
        <time>2022-10-02T08:53:05Z</time>
      </trkpt>
      <trkpt lat="47.36747" lon="7.99257">
        <ele>377.8</ele>
        <time>2022-10-02T08:53:06Z</time>
      </trkpt>
      <trkpt lat="47.36751" lon="7.99261">
        <ele>377.8</ele>
        <time>2022-10-02T08:53:07Z</time>
      </trkpt>
      <trkpt lat="47.36756" lon="7.99265">
        <ele>377.8</ele>
        <time>2022-10-02T08:53:08Z</time>
      </trkpt>
      <trkpt lat="47.36761" lon="7.99269">
        <ele>377.8</ele>
        <time>2022-10-02T08:53:09Z</time>
      </trkpt>
      <trkpt lat="47.36764" lon="7.99274">
        <ele>377.8</ele>
        <time>2022-10-02T08:53:10Z</time>
      </trkpt>
      <trkpt lat="47.36768" lon="7.99277">
        <ele>377.8</ele>
        <time>2022-10-02T08:53:11Z</time>
      </trkpt>
      <trkpt lat="47.36773" lon="7.99282">
        <ele>377.8</ele>
        <time>2022-10-02T08:53:12Z</time>
      </trkpt>
      <trkpt lat="47.36777" lon="7.99286">
        <ele>377.8</ele>
        <time>2022-10-02T08:53:13Z</time>
      </trkpt>
      <trkpt lat="47.36782" lon="7.9929">
        <ele>377.8</ele>
        <time>2022-10-02T08:53:14Z</time>
      </trkpt>
      <trkpt lat="47.36786" lon="7.99294">
        <ele>377.8</ele>
        <time>2022-10-02T08:53:15Z</time>
      </trkpt>
      <trkpt lat="47.3679" lon="7.99298">
        <ele>377.8</ele>
        <time>2022-10-02T08:53:16Z</time>
      </trkpt>
      <trkpt lat="47.36794" lon="7.99303">
        <ele>377.8</ele>
        <time>2022-10-02T08:53:17Z</time>
      </trkpt>
      <trkpt lat="47.36798" lon="7.99308">
        <ele>377.8</ele>
        <time>2022-10-02T08:53:18Z</time>
      </trkpt>
      <trkpt lat="47.36801" lon="7.99311">
        <ele>377.8</ele>
        <time>2022-10-02T08:53:19Z</time>
      </trkpt>
      <trkpt lat="47.36805" lon="7.99316">
        <ele>377.8</ele>
        <time>2022-10-02T08:53:20Z</time>
      </trkpt>
      <trkpt lat="47.36809" lon="7.99322">
        <ele>377.8</ele>
        <time>2022-10-02T08:53:21Z</time>
      </trkpt>
      <trkpt lat="47.36813" lon="7.99327">
        <ele>377.8</ele>
        <time>2022-10-02T08:53:22Z</time>
      </trkpt>
      <trkpt lat="47.36817" lon="7.99332">
        <ele>377.8</ele>
        <time>2022-10-02T08:53:23Z</time>
      </trkpt>
      <trkpt lat="47.36821" lon="7.99336">
        <ele>377.8</ele>
        <time>2022-10-02T08:53:24Z</time>
      </trkpt>
      <trkpt lat="47.36824" lon="7.9934">
        <ele>377.8</ele>
        <time>2022-10-02T08:53:25Z</time>
      </trkpt>
      <trkpt lat="47.36827" lon="7.99344">
        <ele>377.9</ele>
        <time>2022-10-02T08:53:26Z</time>
      </trkpt>
      <trkpt lat="47.36831" lon="7.99348">
        <ele>377.9</ele>
        <time>2022-10-02T08:53:27Z</time>
      </trkpt>
      <trkpt lat="47.36835" lon="7.9935">
        <ele>378</ele>
        <time>2022-10-02T08:53:28Z</time>
      </trkpt>
      <trkpt lat="47.36838" lon="7.99351">
        <ele>378</ele>
        <time>2022-10-02T08:53:29Z</time>
      </trkpt>
      <trkpt lat="47.36842" lon="7.99352">
        <ele>378.1</ele>
        <time>2022-10-02T08:53:30Z</time>
      </trkpt>
      <trkpt lat="47.36847" lon="7.99351">
        <ele>378.2</ele>
        <time>2022-10-02T08:53:31Z</time>
      </trkpt>
      <trkpt lat="47.36851" lon="7.9935">
        <ele>378.3</ele>
        <time>2022-10-02T08:53:32Z</time>
      </trkpt>
      <trkpt lat="47.36855" lon="7.9935">
        <ele>378.3</ele>
        <time>2022-10-02T08:53:33Z</time>
      </trkpt>
      <trkpt lat="47.36858" lon="7.9935">
        <ele>378.4</ele>
        <time>2022-10-02T08:53:34Z</time>
      </trkpt>
      <trkpt lat="47.36861" lon="7.99348">
        <ele>378.5</ele>
        <time>2022-10-02T08:53:35Z</time>
      </trkpt>
      <trkpt lat="47.36865" lon="7.99348">
        <ele>378.6</ele>
        <time>2022-10-02T08:53:36Z</time>
      </trkpt>
      <trkpt lat="47.36868" lon="7.99346">
        <ele>378.6</ele>
        <time>2022-10-02T08:53:37Z</time>
      </trkpt>
      <trkpt lat="47.36872" lon="7.99345">
        <ele>378.7</ele>
        <time>2022-10-02T08:53:38Z</time>
      </trkpt>
      <trkpt lat="47.36875" lon="7.99345">
        <ele>378.8</ele>
        <time>2022-10-02T08:53:39Z</time>
      </trkpt>
      <trkpt lat="47.36878" lon="7.99343">
        <ele>378.8</ele>
        <time>2022-10-02T08:53:40Z</time>
      </trkpt>
      <trkpt lat="47.36882" lon="7.99342">
        <ele>378.8</ele>
        <time>2022-10-02T08:53:41Z</time>
      </trkpt>
      <trkpt lat="47.36885" lon="7.9934">
        <ele>378.9</ele>
        <time>2022-10-02T08:53:42Z</time>
      </trkpt>
      <trkpt lat="47.36888" lon="7.99338">
        <ele>378.9</ele>
        <time>2022-10-02T08:53:43Z</time>
      </trkpt>
      <trkpt lat="47.36891" lon="7.99336">
        <ele>379</ele>
        <time>2022-10-02T08:53:44Z</time>
      </trkpt>
      <trkpt lat="47.36894" lon="7.99334">
        <ele>379</ele>
        <time>2022-10-02T08:53:45Z</time>
      </trkpt>
      <trkpt lat="47.36896" lon="7.99332">
        <ele>379.1</ele>
        <time>2022-10-02T08:53:46Z</time>
      </trkpt>
      <trkpt lat="47.36899" lon="7.9933">
        <ele>379.1</ele>
        <time>2022-10-02T08:53:47Z</time>
      </trkpt>
      <trkpt lat="47.36902" lon="7.99328">
        <ele>379.1</ele>
        <time>2022-10-02T08:53:48Z</time>
      </trkpt>
      <trkpt lat="47.36905" lon="7.99328">
        <ele>379.1</ele>
        <time>2022-10-02T08:53:49Z</time>
      </trkpt>
      <trkpt lat="47.36906" lon="7.99327">
        <ele>379.1</ele>
        <time>2022-10-02T08:53:50Z</time>
      </trkpt>
      <trkpt lat="47.36906" lon="7.99327">
        <ele>379.1</ele>
        <time>2022-10-02T08:53:51Z</time>
      </trkpt>
      <trkpt lat="47.36906" lon="7.99327">
        <ele>379.1</ele>
        <time>2022-10-02T08:53:52Z</time>
      </trkpt>
      <trkpt lat="47.36906" lon="7.99327">
        <ele>379.1</ele>
        <time>2022-10-02T08:53:53Z</time>
      </trkpt>
      <trkpt lat="47.36907" lon="7.99327">
        <ele>379.1</ele>
        <time>2022-10-02T08:53:55Z</time>
      </trkpt>
      <trkpt lat="47.36907" lon="7.99327">
        <ele>379.1</ele>
        <time>2022-10-02T08:53:56Z</time>
      </trkpt>
      <trkpt lat="47.36907" lon="7.99327">
        <ele>379.2</ele>
        <time>2022-10-02T08:53:57Z</time>
      </trkpt>
      <trkpt lat="47.36907" lon="7.99327">
        <ele>379.2</ele>
        <time>2022-10-02T08:53:58Z</time>
      </trkpt>
      <trkpt lat="47.36907" lon="7.99327">
        <ele>379.2</ele>
        <time>2022-10-02T08:53:59Z</time>
      </trkpt>
      <trkpt lat="47.36907" lon="7.99327">
        <ele>379.2</ele>
        <time>2022-10-02T08:54:00Z</time>
      </trkpt>
      <trkpt lat="47.36907" lon="7.9933">
        <ele>379.2</ele>
        <time>2022-10-02T08:54:12Z</time>
      </trkpt>
      <trkpt lat="47.36908" lon="7.99329">
        <ele>379.2</ele>
        <time>2022-10-02T08:54:13Z</time>
      </trkpt>
      <trkpt lat="47.36908" lon="7.99328">
        <ele>379.2</ele>
        <time>2022-10-02T08:54:14Z</time>
      </trkpt>
      <trkpt lat="47.36908" lon="7.99328">
        <ele>379.2</ele>
        <time>2022-10-02T08:54:15Z</time>
      </trkpt>
      <trkpt lat="47.36908" lon="7.99327">
        <ele>379.2</ele>
        <time>2022-10-02T08:54:16Z</time>
      </trkpt>
      <trkpt lat="47.36908" lon="7.99326">
        <ele>379.2</ele>
        <time>2022-10-02T08:54:17Z</time>
      </trkpt>
      <trkpt lat="47.36908" lon="7.99327">
        <ele>379.2</ele>
        <time>2022-10-02T08:54:18Z</time>
      </trkpt>
      <trkpt lat="47.36908" lon="7.99326">
        <ele>379.2</ele>
        <time>2022-10-02T08:54:19Z</time>
      </trkpt>
      <trkpt lat="47.36908" lon="7.99326">
        <ele>379.2</ele>
        <time>2022-10-02T08:54:20Z</time>
      </trkpt>
      <trkpt lat="47.36909" lon="7.99325">
        <ele>379.2</ele>
        <time>2022-10-02T08:54:21Z</time>
      </trkpt>
      <trkpt lat="47.3691" lon="7.99324">
        <ele>379.2</ele>
        <time>2022-10-02T08:54:22Z</time>
      </trkpt>
      <trkpt lat="47.36911" lon="7.99323">
        <ele>379.2</ele>
        <time>2022-10-02T08:54:25Z</time>
      </trkpt>
      <trkpt lat="47.36912" lon="7.99322">
        <ele>379.2</ele>
        <time>2022-10-02T08:54:26Z</time>
      </trkpt>
      <trkpt lat="47.36913" lon="7.99321">
        <ele>379.2</ele>
        <time>2022-10-02T08:54:27Z</time>
      </trkpt>
      <trkpt lat="47.36915" lon="7.99318">
        <ele>379.2</ele>
        <time>2022-10-02T08:54:28Z</time>
      </trkpt>
      <trkpt lat="47.36916" lon="7.99317">
        <ele>379.2</ele>
        <time>2022-10-02T08:54:29Z</time>
      </trkpt>
      <trkpt lat="47.36919" lon="7.99314">
        <ele>379.1</ele>
        <time>2022-10-02T08:54:30Z</time>
      </trkpt>
      <trkpt lat="47.3692" lon="7.99313">
        <ele>379.1</ele>
        <time>2022-10-02T08:54:31Z</time>
      </trkpt>
      <trkpt lat="47.36924" lon="7.9931">
        <ele>379.1</ele>
        <time>2022-10-02T08:54:32Z</time>
      </trkpt>
      <trkpt lat="47.36925" lon="7.99309">
        <ele>379.1</ele>
        <time>2022-10-02T08:54:33Z</time>
      </trkpt>
      <trkpt lat="47.36928" lon="7.99307">
        <ele>379.1</ele>
        <time>2022-10-02T08:54:34Z</time>
      </trkpt>
      <trkpt lat="47.36931" lon="7.99304">
        <ele>379</ele>
        <time>2022-10-02T08:54:35Z</time>
      </trkpt>
      <trkpt lat="47.36935" lon="7.99301">
        <ele>379</ele>
        <time>2022-10-02T08:54:36Z</time>
      </trkpt>
      <trkpt lat="47.36936" lon="7.993">
        <ele>378.9</ele>
        <time>2022-10-02T08:54:37Z</time>
      </trkpt>
      <trkpt lat="47.36939" lon="7.99297">
        <ele>378.9</ele>
        <time>2022-10-02T08:54:38Z</time>
      </trkpt>
      <trkpt lat="47.36942" lon="7.99295">
        <ele>378.9</ele>
        <time>2022-10-02T08:54:39Z</time>
      </trkpt>
      <trkpt lat="47.36943" lon="7.99295">
        <ele>378.9</ele>
        <time>2022-10-02T08:54:40Z</time>
      </trkpt>
      <trkpt lat="47.36944" lon="7.99297">
        <ele>378.7</ele>
        <time>2022-10-02T08:54:41Z</time>
      </trkpt>
      <trkpt lat="47.36946" lon="7.99298">
        <ele>378.7</ele>
        <time>2022-10-02T08:54:42Z</time>
      </trkpt>
      <trkpt lat="47.36948" lon="7.99302">
        <ele>378.6</ele>
        <time>2022-10-02T08:54:43Z</time>
      </trkpt>
      <trkpt lat="47.36949" lon="7.99303">
        <ele>378.5</ele>
        <time>2022-10-02T08:54:44Z</time>
      </trkpt>
      <trkpt lat="47.3695" lon="7.99307">
        <ele>378.4</ele>
        <time>2022-10-02T08:54:45Z</time>
      </trkpt>
      <trkpt lat="47.36952" lon="7.99311">
        <ele>378.3</ele>
        <time>2022-10-02T08:54:46Z</time>
      </trkpt>
      <trkpt lat="47.36955" lon="7.99323">
        <ele>378.1</ele>
        <time>2022-10-02T08:54:47Z</time>
      </trkpt>
      <trkpt lat="47.36957" lon="7.99328">
        <ele>378</ele>
        <time>2022-10-02T08:54:48Z</time>
      </trkpt>
      <trkpt lat="47.36959" lon="7.99334">
        <ele>378</ele>
        <time>2022-10-02T08:54:49Z</time>
      </trkpt>
      <trkpt lat="47.36962" lon="7.99341">
        <ele>377.9</ele>
        <time>2022-10-02T08:54:50Z</time>
      </trkpt>
      <trkpt lat="47.36964" lon="7.99348">
        <ele>377.8</ele>
        <time>2022-10-02T08:54:51Z</time>
      </trkpt>
      <trkpt lat="47.36967" lon="7.99354">
        <ele>377.8</ele>
        <time>2022-10-02T08:54:52Z</time>
      </trkpt>
      <trkpt lat="47.3697" lon="7.9936">
        <ele>377.8</ele>
        <time>2022-10-02T08:54:53Z</time>
      </trkpt>
      <trkpt lat="47.36972" lon="7.99366">
        <ele>377.7</ele>
        <time>2022-10-02T08:54:54Z</time>
      </trkpt>
      <trkpt lat="47.36975" lon="7.99372">
        <ele>377.7</ele>
        <time>2022-10-02T08:54:55Z</time>
      </trkpt>
      <trkpt lat="47.36978" lon="7.99378">
        <ele>377.7</ele>
        <time>2022-10-02T08:54:56Z</time>
      </trkpt>
      <trkpt lat="47.3698" lon="7.99383">
        <ele>377.7</ele>
        <time>2022-10-02T08:54:57Z</time>
      </trkpt>
      <trkpt lat="47.36983" lon="7.99391">
        <ele>377.7</ele>
        <time>2022-10-02T08:54:58Z</time>
      </trkpt>
      <trkpt lat="47.36986" lon="7.99398">
        <ele>377.7</ele>
        <time>2022-10-02T08:54:59Z</time>
      </trkpt>
      <trkpt lat="47.36989" lon="7.99404">
        <ele>377.6</ele>
        <time>2022-10-02T08:55:00Z</time>
      </trkpt>
      <trkpt lat="47.36993" lon="7.9941">
        <ele>377.6</ele>
        <time>2022-10-02T08:55:01Z</time>
      </trkpt>
      <trkpt lat="47.36995" lon="7.99417">
        <ele>377.6</ele>
        <time>2022-10-02T08:55:02Z</time>
      </trkpt>
      <trkpt lat="47.36998" lon="7.99422">
        <ele>377.6</ele>
        <time>2022-10-02T08:55:03Z</time>
      </trkpt>
      <trkpt lat="47.37001" lon="7.99429">
        <ele>377.5</ele>
        <time>2022-10-02T08:55:04Z</time>
      </trkpt>
      <trkpt lat="47.37005" lon="7.99435">
        <ele>377.5</ele>
        <time>2022-10-02T08:55:05Z</time>
      </trkpt>
      <trkpt lat="47.37008" lon="7.99441">
        <ele>377.5</ele>
        <time>2022-10-02T08:55:06Z</time>
      </trkpt>
      <trkpt lat="47.37011" lon="7.99448">
        <ele>377.4</ele>
        <time>2022-10-02T08:55:07Z</time>
      </trkpt>
      <trkpt lat="47.37014" lon="7.99454">
        <ele>377.4</ele>
        <time>2022-10-02T08:55:08Z</time>
      </trkpt>
      <trkpt lat="47.37017" lon="7.9946">
        <ele>377.3</ele>
        <time>2022-10-02T08:55:09Z</time>
      </trkpt>
      <trkpt lat="47.37021" lon="7.99466">
        <ele>377.3</ele>
        <time>2022-10-02T08:55:10Z</time>
      </trkpt>
      <trkpt lat="47.37024" lon="7.99472">
        <ele>377.2</ele>
        <time>2022-10-02T08:55:11Z</time>
      </trkpt>
      <trkpt lat="47.37028" lon="7.99478">
        <ele>377.1</ele>
        <time>2022-10-02T08:55:12Z</time>
      </trkpt>
      <trkpt lat="47.37031" lon="7.99484">
        <ele>377</ele>
        <time>2022-10-02T08:55:13Z</time>
      </trkpt>
      <trkpt lat="47.37034" lon="7.9949">
        <ele>376.9</ele>
        <time>2022-10-02T08:55:14Z</time>
      </trkpt>
      <trkpt lat="47.37038" lon="7.99495">
        <ele>376.8</ele>
        <time>2022-10-02T08:55:15Z</time>
      </trkpt>
      <trkpt lat="47.37043" lon="7.995">
        <ele>376.7</ele>
        <time>2022-10-02T08:55:16Z</time>
      </trkpt>
      <trkpt lat="47.37048" lon="7.99504">
        <ele>376.6</ele>
        <time>2022-10-02T08:55:17Z</time>
      </trkpt>
      <trkpt lat="47.37053" lon="7.99507">
        <ele>376.5</ele>
        <time>2022-10-02T08:55:18Z</time>
      </trkpt>
      <trkpt lat="47.37058" lon="7.99511">
        <ele>376.4</ele>
        <time>2022-10-02T08:55:19Z</time>
      </trkpt>
      <trkpt lat="47.37064" lon="7.99514">
        <ele>376.3</ele>
        <time>2022-10-02T08:55:20Z</time>
      </trkpt>
      <trkpt lat="47.3707" lon="7.99517">
        <ele>376.2</ele>
        <time>2022-10-02T08:55:21Z</time>
      </trkpt>
      <trkpt lat="47.37075" lon="7.99521">
        <ele>376.2</ele>
        <time>2022-10-02T08:55:22Z</time>
      </trkpt>
      <trkpt lat="47.37079" lon="7.99527">
        <ele>376.2</ele>
        <time>2022-10-02T08:55:23Z</time>
      </trkpt>
      <trkpt lat="47.37083" lon="7.99532">
        <ele>376.2</ele>
        <time>2022-10-02T08:55:24Z</time>
      </trkpt>
      <trkpt lat="47.37087" lon="7.99537">
        <ele>376.1</ele>
        <time>2022-10-02T08:55:25Z</time>
      </trkpt>
      <trkpt lat="47.37091" lon="7.99542">
        <ele>376.1</ele>
        <time>2022-10-02T08:55:26Z</time>
      </trkpt>
      <trkpt lat="47.37094" lon="7.9955">
        <ele>376.1</ele>
        <time>2022-10-02T08:55:27Z</time>
      </trkpt>
      <trkpt lat="47.37099" lon="7.99556">
        <ele>376.1</ele>
        <time>2022-10-02T08:55:28Z</time>
      </trkpt>
      <trkpt lat="47.37104" lon="7.99561">
        <ele>376.1</ele>
        <time>2022-10-02T08:55:29Z</time>
      </trkpt>
      <trkpt lat="47.37108" lon="7.99565">
        <ele>376.1</ele>
        <time>2022-10-02T08:55:30Z</time>
      </trkpt>
      <trkpt lat="47.37111" lon="7.99571">
        <ele>376.1</ele>
        <time>2022-10-02T08:55:31Z</time>
      </trkpt>
      <trkpt lat="47.37114" lon="7.99576">
        <ele>376.1</ele>
        <time>2022-10-02T08:55:32Z</time>
      </trkpt>
      <trkpt lat="47.37117" lon="7.99581">
        <ele>376.1</ele>
        <time>2022-10-02T08:55:33Z</time>
      </trkpt>
      <trkpt lat="47.3712" lon="7.99583">
        <ele>376.1</ele>
        <time>2022-10-02T08:55:34Z</time>
      </trkpt>
      <trkpt lat="47.37124" lon="7.99588">
        <ele>376.1</ele>
        <time>2022-10-02T08:55:35Z</time>
      </trkpt>
      <trkpt lat="47.37127" lon="7.99591">
        <ele>376.1</ele>
        <time>2022-10-02T08:55:36Z</time>
      </trkpt>
      <trkpt lat="47.37132" lon="7.99593">
        <ele>376.1</ele>
        <time>2022-10-02T08:55:37Z</time>
      </trkpt>
      <trkpt lat="47.37136" lon="7.99595">
        <ele>376.1</ele>
        <time>2022-10-02T08:55:38Z</time>
      </trkpt>
      <trkpt lat="47.37139" lon="7.99596">
        <ele>376.1</ele>
        <time>2022-10-02T08:55:39Z</time>
      </trkpt>
      <trkpt lat="47.37143" lon="7.99599">
        <ele>376.1</ele>
        <time>2022-10-02T08:55:40Z</time>
      </trkpt>
      <trkpt lat="47.37146" lon="7.99603">
        <ele>376.2</ele>
        <time>2022-10-02T08:55:41Z</time>
      </trkpt>
      <trkpt lat="47.37148" lon="7.99607">
        <ele>376.1</ele>
        <time>2022-10-02T08:55:42Z</time>
      </trkpt>
      <trkpt lat="47.37148" lon="7.9961">
        <ele>376</ele>
        <time>2022-10-02T08:55:43Z</time>
      </trkpt>
      <trkpt lat="47.37149" lon="7.99617">
        <ele>376</ele>
        <time>2022-10-02T08:55:44Z</time>
      </trkpt>
      <trkpt lat="47.37151" lon="7.99624">
        <ele>375.9</ele>
        <time>2022-10-02T08:55:45Z</time>
      </trkpt>
      <trkpt lat="47.37154" lon="7.99629">
        <ele>375.9</ele>
        <time>2022-10-02T08:55:46Z</time>
      </trkpt>
      <trkpt lat="47.37156" lon="7.99635">
        <ele>375.9</ele>
        <time>2022-10-02T08:55:47Z</time>
      </trkpt>
      <trkpt lat="47.37158" lon="7.9964">
        <ele>375.8</ele>
        <time>2022-10-02T08:55:48Z</time>
      </trkpt>
      <trkpt lat="47.37161" lon="7.99646">
        <ele>375.8</ele>
        <time>2022-10-02T08:55:49Z</time>
      </trkpt>
      <trkpt lat="47.37164" lon="7.99651">
        <ele>375.8</ele>
        <time>2022-10-02T08:55:50Z</time>
      </trkpt>
      <trkpt lat="47.37167" lon="7.99656">
        <ele>375.7</ele>
        <time>2022-10-02T08:55:51Z</time>
      </trkpt>
      <trkpt lat="47.3717" lon="7.99663">
        <ele>375.7</ele>
        <time>2022-10-02T08:55:52Z</time>
      </trkpt>
      <trkpt lat="47.37173" lon="7.99667">
        <ele>375.6</ele>
        <time>2022-10-02T08:55:53Z</time>
      </trkpt>
      <trkpt lat="47.37178" lon="7.99672">
        <ele>375.6</ele>
        <time>2022-10-02T08:55:54Z</time>
      </trkpt>
      <trkpt lat="47.37182" lon="7.99678">
        <ele>375.6</ele>
        <time>2022-10-02T08:55:55Z</time>
      </trkpt>
      <trkpt lat="47.37186" lon="7.99682">
        <ele>375.6</ele>
        <time>2022-10-02T08:55:56Z</time>
      </trkpt>
      <trkpt lat="47.37192" lon="7.99687">
        <ele>375.6</ele>
        <time>2022-10-02T08:55:57Z</time>
      </trkpt>
      <trkpt lat="47.37197" lon="7.99692">
        <ele>375.6</ele>
        <time>2022-10-02T08:55:58Z</time>
      </trkpt>
      <trkpt lat="47.37201" lon="7.99696">
        <ele>375.6</ele>
        <time>2022-10-02T08:55:59Z</time>
      </trkpt>
      <trkpt lat="47.37206" lon="7.99701">
        <ele>375.6</ele>
        <time>2022-10-02T08:56:01Z</time>
      </trkpt>
      <trkpt lat="47.37209" lon="7.99705">
        <ele>375.7</ele>
        <time>2022-10-02T08:56:02Z</time>
      </trkpt>
      <trkpt lat="47.37214" lon="7.99707">
        <ele>375.7</ele>
        <time>2022-10-02T08:56:03Z</time>
      </trkpt>
      <trkpt lat="47.37219" lon="7.99714">
        <ele>375.8</ele>
        <time>2022-10-02T08:56:04Z</time>
      </trkpt>
      <trkpt lat="47.37223" lon="7.99718">
        <ele>375.8</ele>
        <time>2022-10-02T08:56:05Z</time>
      </trkpt>
      <trkpt lat="47.37231" lon="7.99724">
        <ele>375.9</ele>
        <time>2022-10-02T08:56:06Z</time>
      </trkpt>
      <trkpt lat="47.37235" lon="7.99727">
        <ele>376</ele>
        <time>2022-10-02T08:56:07Z</time>
      </trkpt>
      <trkpt lat="47.3724" lon="7.9973">
        <ele>376.1</ele>
        <time>2022-10-02T08:56:08Z</time>
      </trkpt>
      <trkpt lat="47.37246" lon="7.99732">
        <ele>376.2</ele>
        <time>2022-10-02T08:56:09Z</time>
      </trkpt>
      <trkpt lat="47.37249" lon="7.99736">
        <ele>376.3</ele>
        <time>2022-10-02T08:56:11Z</time>
      </trkpt>
      <trkpt lat="47.37253" lon="7.99736">
        <ele>376.5</ele>
        <time>2022-10-02T08:56:12Z</time>
      </trkpt>
      <trkpt lat="47.37258" lon="7.99738">
        <ele>376.7</ele>
        <time>2022-10-02T08:56:13Z</time>
      </trkpt>
      <trkpt lat="47.37265" lon="7.99742">
        <ele>377</ele>
        <time>2022-10-02T08:56:14Z</time>
      </trkpt>
      <trkpt lat="47.37267" lon="7.99743">
        <ele>377.3</ele>
        <time>2022-10-02T08:56:15Z</time>
      </trkpt>
      <trkpt lat="47.37268" lon="7.99747">
        <ele>377.3</ele>
        <time>2022-10-02T08:56:16Z</time>
      </trkpt>
      <trkpt lat="47.37268" lon="7.99748">
        <ele>377.3</ele>
        <time>2022-10-02T08:56:17Z</time>
      </trkpt>
      <trkpt lat="47.37269" lon="7.99752">
        <ele>377.9</ele>
        <time>2022-10-02T08:56:18Z</time>
      </trkpt>
      <trkpt lat="47.37269" lon="7.99754">
        <ele>377.9</ele>
        <time>2022-10-02T08:56:19Z</time>
      </trkpt>
      <trkpt lat="47.37268" lon="7.99758">
        <ele>377.9</ele>
        <time>2022-10-02T08:56:20Z</time>
      </trkpt>
      <trkpt lat="47.37266" lon="7.99763">
        <ele>377.9</ele>
        <time>2022-10-02T08:56:21Z</time>
      </trkpt>
      <trkpt lat="47.37266" lon="7.99765">
        <ele>377.9</ele>
        <time>2022-10-02T08:56:22Z</time>
      </trkpt>
      <trkpt lat="47.37265" lon="7.99769">
        <ele>377.9</ele>
        <time>2022-10-02T08:56:23Z</time>
      </trkpt>
      <trkpt lat="47.37264" lon="7.99775">
        <ele>378</ele>
        <time>2022-10-02T08:56:24Z</time>
      </trkpt>
      <trkpt lat="47.37263" lon="7.99777">
        <ele>378</ele>
        <time>2022-10-02T08:56:25Z</time>
      </trkpt>
      <trkpt lat="47.37262" lon="7.99782">
        <ele>378</ele>
        <time>2022-10-02T08:56:26Z</time>
      </trkpt>
      <trkpt lat="47.3726" lon="7.99788">
        <ele>378</ele>
        <time>2022-10-02T08:56:27Z</time>
      </trkpt>
      <trkpt lat="47.3726" lon="7.99792">
        <ele>378</ele>
        <time>2022-10-02T08:56:28Z</time>
      </trkpt>
      <trkpt lat="47.37258" lon="7.99797">
        <ele>378.1</ele>
        <time>2022-10-02T08:56:29Z</time>
      </trkpt>
      <trkpt lat="47.37257" lon="7.99803">
        <ele>378.1</ele>
        <time>2022-10-02T08:56:30Z</time>
      </trkpt>
      <trkpt lat="47.37256" lon="7.99809">
        <ele>378.1</ele>
        <time>2022-10-02T08:56:31Z</time>
      </trkpt>
      <trkpt lat="47.37254" lon="7.99814">
        <ele>378.1</ele>
        <time>2022-10-02T08:56:32Z</time>
      </trkpt>
      <trkpt lat="47.37253" lon="7.9982">
        <ele>378.2</ele>
        <time>2022-10-02T08:56:33Z</time>
      </trkpt>
      <trkpt lat="47.37252" lon="7.99826">
        <ele>378.2</ele>
        <time>2022-10-02T08:56:34Z</time>
      </trkpt>
      <trkpt lat="47.37251" lon="7.99832">
        <ele>378.2</ele>
        <time>2022-10-02T08:56:35Z</time>
      </trkpt>
      <trkpt lat="47.37249" lon="7.99838">
        <ele>378.3</ele>
        <time>2022-10-02T08:56:36Z</time>
      </trkpt>
      <trkpt lat="47.37248" lon="7.99843">
        <ele>378.3</ele>
        <time>2022-10-02T08:56:37Z</time>
      </trkpt>
      <trkpt lat="47.37247" lon="7.99846">
        <ele>378.3</ele>
        <time>2022-10-02T08:56:38Z</time>
      </trkpt>
      <trkpt lat="47.37246" lon="7.99852">
        <ele>378.4</ele>
        <time>2022-10-02T08:56:39Z</time>
      </trkpt>
      <trkpt lat="47.37245" lon="7.99855">
        <ele>378.4</ele>
        <time>2022-10-02T08:56:40Z</time>
      </trkpt>
      <trkpt lat="47.37243" lon="7.99862">
        <ele>378.4</ele>
        <time>2022-10-02T08:56:41Z</time>
      </trkpt>
      <trkpt lat="47.37242" lon="7.99866">
        <ele>378.5</ele>
        <time>2022-10-02T08:56:42Z</time>
      </trkpt>
      <trkpt lat="47.3724" lon="7.99871">
        <ele>378.5</ele>
        <time>2022-10-02T08:56:43Z</time>
      </trkpt>
      <trkpt lat="47.37239" lon="7.99876">
        <ele>378.6</ele>
        <time>2022-10-02T08:56:44Z</time>
      </trkpt>
      <trkpt lat="47.37238" lon="7.99881">
        <ele>378.6</ele>
        <time>2022-10-02T08:56:45Z</time>
      </trkpt>
      <trkpt lat="47.37237" lon="7.99886">
        <ele>378.6</ele>
        <time>2022-10-02T08:56:46Z</time>
      </trkpt>
      <trkpt lat="47.37235" lon="7.99891">
        <ele>378.6</ele>
        <time>2022-10-02T08:56:47Z</time>
      </trkpt>
      <trkpt lat="47.37233" lon="7.99896">
        <ele>378.6</ele>
        <time>2022-10-02T08:56:48Z</time>
      </trkpt>
      <trkpt lat="47.37233" lon="7.99902">
        <ele>378.6</ele>
        <time>2022-10-02T08:56:49Z</time>
      </trkpt>
      <trkpt lat="47.37232" lon="7.99908">
        <ele>378.6</ele>
        <time>2022-10-02T08:56:50Z</time>
      </trkpt>
      <trkpt lat="47.3723" lon="7.99914">
        <ele>378.6</ele>
        <time>2022-10-02T08:56:51Z</time>
      </trkpt>
      <trkpt lat="47.37229" lon="7.9992">
        <ele>378.6</ele>
        <time>2022-10-02T08:56:52Z</time>
      </trkpt>
      <trkpt lat="47.37228" lon="7.99926">
        <ele>378.7</ele>
        <time>2022-10-02T08:56:53Z</time>
      </trkpt>
      <trkpt lat="47.37227" lon="7.99932">
        <ele>378.7</ele>
        <time>2022-10-02T08:56:54Z</time>
      </trkpt>
      <trkpt lat="47.37226" lon="7.99935">
        <ele>378.7</ele>
        <time>2022-10-02T08:56:55Z</time>
      </trkpt>
      <trkpt lat="47.37226" lon="7.99941">
        <ele>378.7</ele>
        <time>2022-10-02T08:56:56Z</time>
      </trkpt>
      <trkpt lat="47.37224" lon="7.99944">
        <ele>378.7</ele>
        <time>2022-10-02T08:56:57Z</time>
      </trkpt>
      <trkpt lat="47.37222" lon="7.99951">
        <ele>378.8</ele>
        <time>2022-10-02T08:56:58Z</time>
      </trkpt>
      <trkpt lat="47.37221" lon="7.99956">
        <ele>378.8</ele>
        <time>2022-10-02T08:56:59Z</time>
      </trkpt>
      <trkpt lat="47.37221" lon="7.99958">
        <ele>378.8</ele>
        <time>2022-10-02T08:57:00Z</time>
      </trkpt>
      <trkpt lat="47.37223" lon="7.99962">
        <ele>378.8</ele>
        <time>2022-10-02T08:57:01Z</time>
      </trkpt>
      <trkpt lat="47.37224" lon="7.99965">
        <ele>378.8</ele>
        <time>2022-10-02T08:57:02Z</time>
      </trkpt>
      <trkpt lat="47.37226" lon="7.9997">
        <ele>378.8</ele>
        <time>2022-10-02T08:57:03Z</time>
      </trkpt>
      <trkpt lat="47.3723" lon="7.99972">
        <ele>378.9</ele>
        <time>2022-10-02T08:57:04Z</time>
      </trkpt>
      <trkpt lat="47.37235" lon="7.99974">
        <ele>378.9</ele>
        <time>2022-10-02T08:57:05Z</time>
      </trkpt>
      <trkpt lat="47.37239" lon="7.99974">
        <ele>378.9</ele>
        <time>2022-10-02T08:57:06Z</time>
      </trkpt>
      <trkpt lat="47.37241" lon="7.99975">
        <ele>378.9</ele>
        <time>2022-10-02T08:57:07Z</time>
      </trkpt>
      <trkpt lat="47.37245" lon="7.99977">
        <ele>378.9</ele>
        <time>2022-10-02T08:57:08Z</time>
      </trkpt>
      <trkpt lat="47.37249" lon="7.99979">
        <ele>379</ele>
        <time>2022-10-02T08:57:09Z</time>
      </trkpt>
      <trkpt lat="47.37254" lon="7.99981">
        <ele>379</ele>
        <time>2022-10-02T08:57:10Z</time>
      </trkpt>
      <trkpt lat="47.37259" lon="7.99982">
        <ele>378.9</ele>
        <time>2022-10-02T08:57:11Z</time>
      </trkpt>
      <trkpt lat="47.37264" lon="7.99984">
        <ele>378.9</ele>
        <time>2022-10-02T08:57:12Z</time>
      </trkpt>
      <trkpt lat="47.37268" lon="7.99987">
        <ele>378.9</ele>
        <time>2022-10-02T08:57:13Z</time>
      </trkpt>
      <trkpt lat="47.37274" lon="7.9999">
        <ele>378.9</ele>
        <time>2022-10-02T08:57:14Z</time>
      </trkpt>
      <trkpt lat="47.37279" lon="7.99994">
        <ele>378.9</ele>
        <time>2022-10-02T08:57:15Z</time>
      </trkpt>
      <trkpt lat="47.37286" lon="7.99997">
        <ele>378.8</ele>
        <time>2022-10-02T08:57:16Z</time>
      </trkpt>
      <trkpt lat="47.37291" lon="8">
        <ele>378.8</ele>
        <time>2022-10-02T08:57:17Z</time>
      </trkpt>
      <trkpt lat="47.37296" lon="8.00002">
        <ele>378.8</ele>
        <time>2022-10-02T08:57:18Z</time>
      </trkpt>
      <trkpt lat="47.37301" lon="8.00003">
        <ele>378.7</ele>
        <time>2022-10-02T08:57:19Z</time>
      </trkpt>
      <trkpt lat="47.37304" lon="8.00003">
        <ele>378.7</ele>
        <time>2022-10-02T08:57:20Z</time>
      </trkpt>
      <trkpt lat="47.37309" lon="8.00005">
        <ele>378.7</ele>
        <time>2022-10-02T08:57:21Z</time>
      </trkpt>
      <trkpt lat="47.37314" lon="8.00006">
        <ele>378.6</ele>
        <time>2022-10-02T08:57:22Z</time>
      </trkpt>
      <trkpt lat="47.37321" lon="8.00012">
        <ele>378.6</ele>
        <time>2022-10-02T08:57:23Z</time>
      </trkpt>
      <trkpt lat="47.37327" lon="8.00017">
        <ele>378.5</ele>
        <time>2022-10-02T08:57:24Z</time>
      </trkpt>
      <trkpt lat="47.37332" lon="8.0002">
        <ele>378.5</ele>
        <time>2022-10-02T08:57:25Z</time>
      </trkpt>
      <trkpt lat="47.37338" lon="8.00024">
        <ele>378.4</ele>
        <time>2022-10-02T08:57:26Z</time>
      </trkpt>
      <trkpt lat="47.37345" lon="8.00029">
        <ele>378.4</ele>
        <time>2022-10-02T08:57:27Z</time>
      </trkpt>
      <trkpt lat="47.37351" lon="8.00031">
        <ele>378.3</ele>
        <time>2022-10-02T08:57:28Z</time>
      </trkpt>
      <trkpt lat="47.37357" lon="8.00035">
        <ele>378.2</ele>
        <time>2022-10-02T08:57:29Z</time>
      </trkpt>
      <trkpt lat="47.37362" lon="8.00039">
        <ele>378.2</ele>
        <time>2022-10-02T08:57:30Z</time>
      </trkpt>
      <trkpt lat="47.37368" lon="8.0004">
        <ele>378.1</ele>
        <time>2022-10-02T08:57:31Z</time>
      </trkpt>
      <trkpt lat="47.37372" lon="8.0004">
        <ele>378.1</ele>
        <time>2022-10-02T08:57:32Z</time>
      </trkpt>
      <trkpt lat="47.37377" lon="8.00044">
        <ele>378</ele>
        <time>2022-10-02T08:57:33Z</time>
      </trkpt>
      <trkpt lat="47.37385" lon="8.00049">
        <ele>378</ele>
        <time>2022-10-02T08:57:34Z</time>
      </trkpt>
      <trkpt lat="47.37389" lon="8.00053">
        <ele>377.9</ele>
        <time>2022-10-02T08:57:35Z</time>
      </trkpt>
      <trkpt lat="47.37395" lon="8.00058">
        <ele>377.8</ele>
        <time>2022-10-02T08:57:36Z</time>
      </trkpt>
      <trkpt lat="47.374" lon="8.00061">
        <ele>377.8</ele>
        <time>2022-10-02T08:57:37Z</time>
      </trkpt>
      <trkpt lat="47.37405" lon="8.00065">
        <ele>377.7</ele>
        <time>2022-10-02T08:57:38Z</time>
      </trkpt>
      <trkpt lat="47.37412" lon="8.00067">
        <ele>377.6</ele>
        <time>2022-10-02T08:57:39Z</time>
      </trkpt>
      <trkpt lat="47.37417" lon="8.00071">
        <ele>377.5</ele>
        <time>2022-10-02T08:57:40Z</time>
      </trkpt>
      <trkpt lat="47.37422" lon="8.00074">
        <ele>377.4</ele>
        <time>2022-10-02T08:57:41Z</time>
      </trkpt>
      <trkpt lat="47.37428" lon="8.00076">
        <ele>377.3</ele>
        <time>2022-10-02T08:57:42Z</time>
      </trkpt>
      <trkpt lat="47.37432" lon="8.00079">
        <ele>377.2</ele>
        <time>2022-10-02T08:57:43Z</time>
      </trkpt>
      <trkpt lat="47.37438" lon="8.00081">
        <ele>377.1</ele>
        <time>2022-10-02T08:57:44Z</time>
      </trkpt>
      <trkpt lat="47.37442" lon="8.00084">
        <ele>377</ele>
        <time>2022-10-02T08:57:45Z</time>
      </trkpt>
      <trkpt lat="47.37446" lon="8.00087">
        <ele>376.9</ele>
        <time>2022-10-02T08:57:46Z</time>
      </trkpt>
      <trkpt lat="47.37449" lon="8.00089">
        <ele>376.9</ele>
        <time>2022-10-02T08:57:47Z</time>
      </trkpt>
      <trkpt lat="47.37453" lon="8.00091">
        <ele>376.9</ele>
        <time>2022-10-02T08:57:48Z</time>
      </trkpt>
      <trkpt lat="47.37457" lon="8.00092">
        <ele>376.9</ele>
        <time>2022-10-02T08:57:49Z</time>
      </trkpt>
      <trkpt lat="47.37461" lon="8.00092">
        <ele>376.9</ele>
        <time>2022-10-02T08:57:50Z</time>
      </trkpt>
      <trkpt lat="47.37464" lon="8.00092">
        <ele>376.9</ele>
        <time>2022-10-02T08:57:51Z</time>
      </trkpt>
      <trkpt lat="47.37468" lon="8.00092">
        <ele>376.9</ele>
        <time>2022-10-02T08:57:52Z</time>
      </trkpt>
      <trkpt lat="47.37472" lon="8.00092">
        <ele>376.9</ele>
        <time>2022-10-02T08:57:53Z</time>
      </trkpt>
      <trkpt lat="47.37476" lon="8.00092">
        <ele>376.9</ele>
        <time>2022-10-02T08:57:54Z</time>
      </trkpt>
      <trkpt lat="47.3748" lon="8.00094">
        <ele>376.9</ele>
        <time>2022-10-02T08:57:55Z</time>
      </trkpt>
      <trkpt lat="47.37484" lon="8.00096">
        <ele>376.9</ele>
        <time>2022-10-02T08:57:56Z</time>
      </trkpt>
      <trkpt lat="47.37489" lon="8.00099">
        <ele>376.9</ele>
        <time>2022-10-02T08:57:57Z</time>
      </trkpt>
      <trkpt lat="47.37491" lon="8.001">
        <ele>376.9</ele>
        <time>2022-10-02T08:57:58Z</time>
      </trkpt>
      <trkpt lat="47.37497" lon="8.00103">
        <ele>376.8</ele>
        <time>2022-10-02T08:57:59Z</time>
      </trkpt>
      <trkpt lat="47.37501" lon="8.00107">
        <ele>376.8</ele>
        <time>2022-10-02T08:58:00Z</time>
      </trkpt>
      <trkpt lat="47.37507" lon="8.00108">
        <ele>376.8</ele>
        <time>2022-10-02T08:58:01Z</time>
      </trkpt>
      <trkpt lat="47.37513" lon="8.00111">
        <ele>376.8</ele>
        <time>2022-10-02T08:58:02Z</time>
      </trkpt>
      <trkpt lat="47.37517" lon="8.00114">
        <ele>376.8</ele>
        <time>2022-10-02T08:58:03Z</time>
      </trkpt>
      <trkpt lat="47.37522" lon="8.00116">
        <ele>376.9</ele>
        <time>2022-10-02T08:58:04Z</time>
      </trkpt>
      <trkpt lat="47.37527" lon="8.00119">
        <ele>376.9</ele>
        <time>2022-10-02T08:58:05Z</time>
      </trkpt>
      <trkpt lat="47.37532" lon="8.00122">
        <ele>376.9</ele>
        <time>2022-10-02T08:58:07Z</time>
      </trkpt>
      <trkpt lat="47.37537" lon="8.00125">
        <ele>376.9</ele>
        <time>2022-10-02T08:58:08Z</time>
      </trkpt>
      <trkpt lat="47.37542" lon="8.00127">
        <ele>376.9</ele>
        <time>2022-10-02T08:58:09Z</time>
      </trkpt>
      <trkpt lat="47.37546" lon="8.0013">
        <ele>377</ele>
        <time>2022-10-02T08:58:10Z</time>
      </trkpt>
      <trkpt lat="47.37551" lon="8.00132">
        <ele>377</ele>
        <time>2022-10-02T08:58:11Z</time>
      </trkpt>
      <trkpt lat="47.37555" lon="8.00135">
        <ele>377</ele>
        <time>2022-10-02T08:58:12Z</time>
      </trkpt>
      <trkpt lat="47.3756" lon="8.00138">
        <ele>377</ele>
        <time>2022-10-02T08:58:13Z</time>
      </trkpt>
      <trkpt lat="47.37565" lon="8.00141">
        <ele>377</ele>
        <time>2022-10-02T08:58:14Z</time>
      </trkpt>
      <trkpt lat="47.37571" lon="8.00144">
        <ele>377</ele>
        <time>2022-10-02T08:58:15Z</time>
      </trkpt>
      <trkpt lat="47.37576" lon="8.00146">
        <ele>377</ele>
        <time>2022-10-02T08:58:16Z</time>
      </trkpt>
      <trkpt lat="47.37581" lon="8.0015">
        <ele>377</ele>
        <time>2022-10-02T08:58:17Z</time>
      </trkpt>
      <trkpt lat="47.37586" lon="8.00155">
        <ele>377</ele>
        <time>2022-10-02T08:58:18Z</time>
      </trkpt>
      <trkpt lat="47.37592" lon="8.00158">
        <ele>377</ele>
        <time>2022-10-02T08:58:19Z</time>
      </trkpt>
      <trkpt lat="47.37597" lon="8.00161">
        <ele>377</ele>
        <time>2022-10-02T08:58:20Z</time>
      </trkpt>
      <trkpt lat="47.37602" lon="8.00163">
        <ele>377</ele>
        <time>2022-10-02T08:58:21Z</time>
      </trkpt>
      <trkpt lat="47.3761" lon="8.00161">
        <ele>376.9</ele>
        <time>2022-10-02T08:58:22Z</time>
      </trkpt>
      <trkpt lat="47.37615" lon="8.00159">
        <ele>376.9</ele>
        <time>2022-10-02T08:58:23Z</time>
      </trkpt>
      <trkpt lat="47.3762" lon="8.00155">
        <ele>376.9</ele>
        <time>2022-10-02T08:58:24Z</time>
      </trkpt>
      <trkpt lat="47.37625" lon="8.00151">
        <ele>376.9</ele>
        <time>2022-10-02T08:58:25Z</time>
      </trkpt>
      <trkpt lat="47.3763" lon="8.00148">
        <ele>376.9</ele>
        <time>2022-10-02T08:58:26Z</time>
      </trkpt>
      <trkpt lat="47.37634" lon="8.00145">
        <ele>376.9</ele>
        <time>2022-10-02T08:58:27Z</time>
      </trkpt>
      <trkpt lat="47.37639" lon="8.00142">
        <ele>376.9</ele>
        <time>2022-10-02T08:58:28Z</time>
      </trkpt>
      <trkpt lat="47.37643" lon="8.00138">
        <ele>376.9</ele>
        <time>2022-10-02T08:58:29Z</time>
      </trkpt>
      <trkpt lat="47.37647" lon="8.00134">
        <ele>376.9</ele>
        <time>2022-10-02T08:58:30Z</time>
      </trkpt>
      <trkpt lat="47.37651" lon="8.0013">
        <ele>376.9</ele>
        <time>2022-10-02T08:58:31Z</time>
      </trkpt>
      <trkpt lat="47.37655" lon="8.00127">
        <ele>376.9</ele>
        <time>2022-10-02T08:58:32Z</time>
      </trkpt>
      <trkpt lat="47.3766" lon="8.00123">
        <ele>376.9</ele>
        <time>2022-10-02T08:58:33Z</time>
      </trkpt>
      <trkpt lat="47.37664" lon="8.0012">
        <ele>376.9</ele>
        <time>2022-10-02T08:58:34Z</time>
      </trkpt>
      <trkpt lat="47.37669" lon="8.00116">
        <ele>376.8</ele>
        <time>2022-10-02T08:58:35Z</time>
      </trkpt>
      <trkpt lat="47.37673" lon="8.00113">
        <ele>376.8</ele>
        <time>2022-10-02T08:58:36Z</time>
      </trkpt>
      <trkpt lat="47.37678" lon="8.00111">
        <ele>376.8</ele>
        <time>2022-10-02T08:58:37Z</time>
      </trkpt>
      <trkpt lat="47.37682" lon="8.00107">
        <ele>376.8</ele>
        <time>2022-10-02T08:58:38Z</time>
      </trkpt>
      <trkpt lat="47.37687" lon="8.00104">
        <ele>376.8</ele>
        <time>2022-10-02T08:58:39Z</time>
      </trkpt>
      <trkpt lat="47.37691" lon="8.00102">
        <ele>376.8</ele>
        <time>2022-10-02T08:58:40Z</time>
      </trkpt>
      <trkpt lat="47.37695" lon="8.001">
        <ele>376.8</ele>
        <time>2022-10-02T08:58:41Z</time>
      </trkpt>
      <trkpt lat="47.377" lon="8.001">
        <ele>376.8</ele>
        <time>2022-10-02T08:58:42Z</time>
      </trkpt>
      <trkpt lat="47.37703" lon="8.001">
        <ele>376.8</ele>
        <time>2022-10-02T08:58:43Z</time>
      </trkpt>
      <trkpt lat="47.37707" lon="8.00104">
        <ele>376.8</ele>
        <time>2022-10-02T08:58:44Z</time>
      </trkpt>
      <trkpt lat="47.37711" lon="8.00108">
        <ele>376.8</ele>
        <time>2022-10-02T08:58:45Z</time>
      </trkpt>
      <trkpt lat="47.37713" lon="8.00115">
        <ele>376.7</ele>
        <time>2022-10-02T08:58:46Z</time>
      </trkpt>
      <trkpt lat="47.37715" lon="8.00121">
        <ele>376.7</ele>
        <time>2022-10-02T08:58:47Z</time>
      </trkpt>
      <trkpt lat="47.37717" lon="8.00127">
        <ele>376.7</ele>
        <time>2022-10-02T08:58:48Z</time>
      </trkpt>
      <trkpt lat="47.37719" lon="8.00133">
        <ele>376.6</ele>
        <time>2022-10-02T08:58:49Z</time>
      </trkpt>
      <trkpt lat="47.37722" lon="8.00138">
        <ele>376.6</ele>
        <time>2022-10-02T08:58:50Z</time>
      </trkpt>
      <trkpt lat="47.37724" lon="8.00143">
        <ele>376.6</ele>
        <time>2022-10-02T08:58:51Z</time>
      </trkpt>
      <trkpt lat="47.37727" lon="8.00149">
        <ele>376.6</ele>
        <time>2022-10-02T08:58:52Z</time>
      </trkpt>
      <trkpt lat="47.3773" lon="8.00153">
        <ele>376.5</ele>
        <time>2022-10-02T08:58:53Z</time>
      </trkpt>
      <trkpt lat="47.37733" lon="8.00155">
        <ele>376.3</ele>
        <time>2022-10-02T08:58:54Z</time>
      </trkpt>
      <trkpt lat="47.37737" lon="8.00157">
        <ele>376.1</ele>
        <time>2022-10-02T08:58:55Z</time>
      </trkpt>
      <trkpt lat="47.37741" lon="8.00155">
        <ele>375.9</ele>
        <time>2022-10-02T08:58:56Z</time>
      </trkpt>
      <trkpt lat="47.37744" lon="8.00154">
        <ele>375.7</ele>
        <time>2022-10-02T08:58:57Z</time>
      </trkpt>
      <trkpt lat="47.37749" lon="8.00154">
        <ele>375.4</ele>
        <time>2022-10-02T08:58:58Z</time>
      </trkpt>
      <trkpt lat="47.37754" lon="8.00154">
        <ele>375.1</ele>
        <time>2022-10-02T08:58:59Z</time>
      </trkpt>
      <trkpt lat="47.37759" lon="8.00155">
        <ele>374.9</ele>
        <time>2022-10-02T08:59:00Z</time>
      </trkpt>
      <trkpt lat="47.37763" lon="8.00158">
        <ele>374.8</ele>
        <time>2022-10-02T08:59:01Z</time>
      </trkpt>
      <trkpt lat="47.37767" lon="8.00162">
        <ele>374.6</ele>
        <time>2022-10-02T08:59:02Z</time>
      </trkpt>
      <trkpt lat="47.37773" lon="8.00165">
        <ele>374.5</ele>
        <time>2022-10-02T08:59:03Z</time>
      </trkpt>
      <trkpt lat="47.37778" lon="8.00169">
        <ele>374.4</ele>
        <time>2022-10-02T08:59:04Z</time>
      </trkpt>
      <trkpt lat="47.37783" lon="8.00172">
        <ele>374.3</ele>
        <time>2022-10-02T08:59:05Z</time>
      </trkpt>
      <trkpt lat="47.37789" lon="8.00174">
        <ele>374.3</ele>
        <time>2022-10-02T08:59:06Z</time>
      </trkpt>
      <trkpt lat="47.37792" lon="8.00178">
        <ele>374.3</ele>
        <time>2022-10-02T08:59:07Z</time>
      </trkpt>
      <trkpt lat="47.37797" lon="8.00181">
        <ele>374.2</ele>
        <time>2022-10-02T08:59:08Z</time>
      </trkpt>
      <trkpt lat="47.37802" lon="8.00186">
        <ele>374.2</ele>
        <time>2022-10-02T08:59:09Z</time>
      </trkpt>
      <trkpt lat="47.37807" lon="8.00192">
        <ele>374.2</ele>
        <time>2022-10-02T08:59:10Z</time>
      </trkpt>
      <trkpt lat="47.37812" lon="8.00196">
        <ele>374.2</ele>
        <time>2022-10-02T08:59:11Z</time>
      </trkpt>
      <trkpt lat="47.37817" lon="8.002">
        <ele>374.2</ele>
        <time>2022-10-02T08:59:12Z</time>
      </trkpt>
      <trkpt lat="47.37821" lon="8.00203">
        <ele>374.2</ele>
        <time>2022-10-02T08:59:13Z</time>
      </trkpt>
      <trkpt lat="47.37826" lon="8.00206">
        <ele>374.1</ele>
        <time>2022-10-02T08:59:14Z</time>
      </trkpt>
      <trkpt lat="47.37831" lon="8.00208">
        <ele>374.1</ele>
        <time>2022-10-02T08:59:15Z</time>
      </trkpt>
      <trkpt lat="47.37837" lon="8.00209">
        <ele>374.1</ele>
        <time>2022-10-02T08:59:16Z</time>
      </trkpt>
      <trkpt lat="47.37843" lon="8.00212">
        <ele>374.1</ele>
        <time>2022-10-02T08:59:17Z</time>
      </trkpt>
      <trkpt lat="47.37848" lon="8.00214">
        <ele>374.1</ele>
        <time>2022-10-02T08:59:18Z</time>
      </trkpt>
      <trkpt lat="47.37853" lon="8.00215">
        <ele>374.1</ele>
        <time>2022-10-02T08:59:19Z</time>
      </trkpt>
      <trkpt lat="47.37859" lon="8.00218">
        <ele>374.1</ele>
        <time>2022-10-02T08:59:20Z</time>
      </trkpt>
      <trkpt lat="47.37865" lon="8.0022">
        <ele>374.1</ele>
        <time>2022-10-02T08:59:21Z</time>
      </trkpt>
      <trkpt lat="47.3787" lon="8.00221">
        <ele>374.1</ele>
        <time>2022-10-02T08:59:22Z</time>
      </trkpt>
      <trkpt lat="47.37875" lon="8.00224">
        <ele>374.1</ele>
        <time>2022-10-02T08:59:23Z</time>
      </trkpt>
      <trkpt lat="47.3788" lon="8.00226">
        <ele>374.1</ele>
        <time>2022-10-02T08:59:24Z</time>
      </trkpt>
      <trkpt lat="47.37885" lon="8.00228">
        <ele>374.1</ele>
        <time>2022-10-02T08:59:25Z</time>
      </trkpt>
      <trkpt lat="47.3789" lon="8.0023">
        <ele>374.1</ele>
        <time>2022-10-02T08:59:26Z</time>
      </trkpt>
      <trkpt lat="47.37895" lon="8.00234">
        <ele>374.1</ele>
        <time>2022-10-02T08:59:27Z</time>
      </trkpt>
      <trkpt lat="47.379" lon="8.00237">
        <ele>374.1</ele>
        <time>2022-10-02T08:59:28Z</time>
      </trkpt>
      <trkpt lat="47.37905" lon="8.00241">
        <ele>374</ele>
        <time>2022-10-02T08:59:29Z</time>
      </trkpt>
      <trkpt lat="47.3791" lon="8.00244">
        <ele>374</ele>
        <time>2022-10-02T08:59:30Z</time>
      </trkpt>
      <trkpt lat="47.37915" lon="8.00246">
        <ele>374</ele>
        <time>2022-10-02T08:59:31Z</time>
      </trkpt>
      <trkpt lat="47.3792" lon="8.00247">
        <ele>374</ele>
        <time>2022-10-02T08:59:32Z</time>
      </trkpt>
      <trkpt lat="47.37924" lon="8.0025">
        <ele>374</ele>
        <time>2022-10-02T08:59:33Z</time>
      </trkpt>
      <trkpt lat="47.37929" lon="8.00254">
        <ele>374</ele>
        <time>2022-10-02T08:59:34Z</time>
      </trkpt>
      <trkpt lat="47.37933" lon="8.00259">
        <ele>374</ele>
        <time>2022-10-02T08:59:35Z</time>
      </trkpt>
      <trkpt lat="47.37936" lon="8.00266">
        <ele>374</ele>
        <time>2022-10-02T08:59:36Z</time>
      </trkpt>
      <trkpt lat="47.3794" lon="8.00271">
        <ele>373.9</ele>
        <time>2022-10-02T08:59:37Z</time>
      </trkpt>
      <trkpt lat="47.37942" lon="8.00278">
        <ele>373.9</ele>
        <time>2022-10-02T08:59:38Z</time>
      </trkpt>
      <trkpt lat="47.37945" lon="8.00285">
        <ele>373.9</ele>
        <time>2022-10-02T08:59:39Z</time>
      </trkpt>
      <trkpt lat="47.37948" lon="8.0029">
        <ele>373.9</ele>
        <time>2022-10-02T08:59:40Z</time>
      </trkpt>
      <trkpt lat="47.37951" lon="8.00298">
        <ele>373.9</ele>
        <time>2022-10-02T08:59:41Z</time>
      </trkpt>
      <trkpt lat="47.37954" lon="8.00305">
        <ele>373.9</ele>
        <time>2022-10-02T08:59:42Z</time>
      </trkpt>
      <trkpt lat="47.37957" lon="8.00309">
        <ele>373.8</ele>
        <time>2022-10-02T08:59:43Z</time>
      </trkpt>
      <trkpt lat="47.37961" lon="8.00315">
        <ele>373.8</ele>
        <time>2022-10-02T08:59:44Z</time>
      </trkpt>
      <trkpt lat="47.37964" lon="8.00322">
        <ele>373.8</ele>
        <time>2022-10-02T08:59:45Z</time>
      </trkpt>
      <trkpt lat="47.37967" lon="8.00329">
        <ele>373.8</ele>
        <time>2022-10-02T08:59:46Z</time>
      </trkpt>
      <trkpt lat="47.3797" lon="8.00334">
        <ele>373.8</ele>
        <time>2022-10-02T08:59:47Z</time>
      </trkpt>
      <trkpt lat="47.37974" lon="8.00341">
        <ele>373.8</ele>
        <time>2022-10-02T08:59:48Z</time>
      </trkpt>
      <trkpt lat="47.37977" lon="8.00347">
        <ele>373.8</ele>
        <time>2022-10-02T08:59:49Z</time>
      </trkpt>
      <trkpt lat="47.3798" lon="8.00353">
        <ele>373.8</ele>
        <time>2022-10-02T08:59:50Z</time>
      </trkpt>
      <trkpt lat="47.37983" lon="8.0036">
        <ele>373.7</ele>
        <time>2022-10-02T08:59:51Z</time>
      </trkpt>
      <trkpt lat="47.37985" lon="8.00366">
        <ele>373.7</ele>
        <time>2022-10-02T08:59:52Z</time>
      </trkpt>
      <trkpt lat="47.37987" lon="8.0037">
        <ele>373.7</ele>
        <time>2022-10-02T08:59:53Z</time>
      </trkpt>
      <trkpt lat="47.3799" lon="8.00376">
        <ele>373.7</ele>
        <time>2022-10-02T08:59:54Z</time>
      </trkpt>
      <trkpt lat="47.37993" lon="8.00384">
        <ele>373.7</ele>
        <time>2022-10-02T08:59:55Z</time>
      </trkpt>
      <trkpt lat="47.37996" lon="8.0039">
        <ele>373.7</ele>
        <time>2022-10-02T08:59:56Z</time>
      </trkpt>
      <trkpt lat="47.37999" lon="8.00396">
        <ele>373.7</ele>
        <time>2022-10-02T08:59:57Z</time>
      </trkpt>
      <trkpt lat="47.38002" lon="8.00401">
        <ele>373.7</ele>
        <time>2022-10-02T08:59:58Z</time>
      </trkpt>
      <trkpt lat="47.38004" lon="8.00406">
        <ele>373.8</ele>
        <time>2022-10-02T08:59:59Z</time>
      </trkpt>
      <trkpt lat="47.38007" lon="8.00411">
        <ele>373.8</ele>
        <time>2022-10-02T09:00:00Z</time>
      </trkpt>
      <trkpt lat="47.3801" lon="8.00416">
        <ele>373.8</ele>
        <time>2022-10-02T09:00:01Z</time>
      </trkpt>
      <trkpt lat="47.38013" lon="8.00419">
        <ele>373.9</ele>
        <time>2022-10-02T09:00:02Z</time>
      </trkpt>
      <trkpt lat="47.38014" lon="8.0042">
        <ele>373.9</ele>
        <time>2022-10-02T09:00:03Z</time>
      </trkpt>
      <trkpt lat="47.38017" lon="8.00422">
        <ele>374</ele>
        <time>2022-10-02T09:00:04Z</time>
      </trkpt>
      <trkpt lat="47.38018" lon="8.00422">
        <ele>374</ele>
        <time>2022-10-02T09:00:05Z</time>
      </trkpt>
      <trkpt lat="47.3802" lon="8.00423">
        <ele>374</ele>
        <time>2022-10-02T09:00:06Z</time>
      </trkpt>
      <trkpt lat="47.38022" lon="8.00424">
        <ele>374</ele>
        <time>2022-10-02T09:00:07Z</time>
      </trkpt>
      <trkpt lat="47.38023" lon="8.00426">
        <ele>374</ele>
        <time>2022-10-02T09:00:08Z</time>
      </trkpt>
      <trkpt lat="47.38025" lon="8.0043">
        <ele>374.1</ele>
        <time>2022-10-02T09:00:09Z</time>
      </trkpt>
      <trkpt lat="47.38026" lon="8.00431">
        <ele>374.2</ele>
        <time>2022-10-02T09:00:10Z</time>
      </trkpt>
      <trkpt lat="47.38027" lon="8.00434">
        <ele>374.2</ele>
        <time>2022-10-02T09:00:11Z</time>
      </trkpt>
      <trkpt lat="47.38029" lon="8.00437">
        <ele>374.2</ele>
        <time>2022-10-02T09:00:13Z</time>
      </trkpt>
      <trkpt lat="47.38031" lon="8.00441">
        <ele>374.2</ele>
        <time>2022-10-02T09:00:14Z</time>
      </trkpt>
      <trkpt lat="47.38032" lon="8.00446">
        <ele>374.2</ele>
        <time>2022-10-02T09:00:15Z</time>
      </trkpt>
      <trkpt lat="47.38033" lon="8.0045">
        <ele>374.2</ele>
        <time>2022-10-02T09:00:16Z</time>
      </trkpt>
      <trkpt lat="47.38034" lon="8.00455">
        <ele>374.2</ele>
        <time>2022-10-02T09:00:17Z</time>
      </trkpt>
      <trkpt lat="47.38036" lon="8.00459">
        <ele>374.2</ele>
        <time>2022-10-02T09:00:18Z</time>
      </trkpt>
      <trkpt lat="47.38038" lon="8.00464">
        <ele>374.2</ele>
        <time>2022-10-02T09:00:19Z</time>
      </trkpt>
      <trkpt lat="47.3804" lon="8.0047">
        <ele>374.2</ele>
        <time>2022-10-02T09:00:20Z</time>
      </trkpt>
      <trkpt lat="47.38042" lon="8.00475">
        <ele>374.2</ele>
        <time>2022-10-02T09:00:21Z</time>
      </trkpt>
      <trkpt lat="47.38043" lon="8.0048">
        <ele>374.2</ele>
        <time>2022-10-02T09:00:22Z</time>
      </trkpt>
      <trkpt lat="47.38046" lon="8.00486">
        <ele>374.2</ele>
        <time>2022-10-02T09:00:23Z</time>
      </trkpt>
      <trkpt lat="47.38048" lon="8.00491">
        <ele>374.2</ele>
        <time>2022-10-02T09:00:24Z</time>
      </trkpt>
      <trkpt lat="47.3805" lon="8.00497">
        <ele>374.2</ele>
        <time>2022-10-02T09:00:25Z</time>
      </trkpt>
      <trkpt lat="47.38052" lon="8.00504">
        <ele>374.2</ele>
        <time>2022-10-02T09:00:26Z</time>
      </trkpt>
      <trkpt lat="47.38054" lon="8.0051">
        <ele>374.2</ele>
        <time>2022-10-02T09:00:27Z</time>
      </trkpt>
      <trkpt lat="47.38058" lon="8.00522">
        <ele>374.2</ele>
        <time>2022-10-02T09:00:28Z</time>
      </trkpt>
      <trkpt lat="47.38061" lon="8.00528">
        <ele>374.2</ele>
        <time>2022-10-02T09:00:29Z</time>
      </trkpt>
      <trkpt lat="47.38063" lon="8.00536">
        <ele>374.2</ele>
        <time>2022-10-02T09:00:30Z</time>
      </trkpt>
      <trkpt lat="47.38065" lon="8.00542">
        <ele>374.2</ele>
        <time>2022-10-02T09:00:31Z</time>
      </trkpt>
      <trkpt lat="47.38068" lon="8.00549">
        <ele>374.2</ele>
        <time>2022-10-02T09:00:32Z</time>
      </trkpt>
      <trkpt lat="47.38069" lon="8.00555">
        <ele>374.2</ele>
        <time>2022-10-02T09:00:33Z</time>
      </trkpt>
      <trkpt lat="47.38072" lon="8.00563">
        <ele>374.2</ele>
        <time>2022-10-02T09:00:34Z</time>
      </trkpt>
      <trkpt lat="47.38074" lon="8.00571">
        <ele>374.2</ele>
        <time>2022-10-02T09:00:35Z</time>
      </trkpt>
      <trkpt lat="47.38076" lon="8.00578">
        <ele>374.1</ele>
        <time>2022-10-02T09:00:36Z</time>
      </trkpt>
      <trkpt lat="47.38079" lon="8.00586">
        <ele>374.1</ele>
        <time>2022-10-02T09:00:37Z</time>
      </trkpt>
      <trkpt lat="47.38082" lon="8.00593">
        <ele>374.1</ele>
        <time>2022-10-02T09:00:38Z</time>
      </trkpt>
      <trkpt lat="47.38084" lon="8.006">
        <ele>374.1</ele>
        <time>2022-10-02T09:00:39Z</time>
      </trkpt>
      <trkpt lat="47.38086" lon="8.00606">
        <ele>374.1</ele>
        <time>2022-10-02T09:00:40Z</time>
      </trkpt>
      <trkpt lat="47.38088" lon="8.00613">
        <ele>374.1</ele>
        <time>2022-10-02T09:00:41Z</time>
      </trkpt>
      <trkpt lat="47.38091" lon="8.0062">
        <ele>374.1</ele>
        <time>2022-10-02T09:00:42Z</time>
      </trkpt>
      <trkpt lat="47.38093" lon="8.00627">
        <ele>374.1</ele>
        <time>2022-10-02T09:00:43Z</time>
      </trkpt>
      <trkpt lat="47.38094" lon="8.00632">
        <ele>374.1</ele>
        <time>2022-10-02T09:00:44Z</time>
      </trkpt>
      <trkpt lat="47.38097" lon="8.0064">
        <ele>374.1</ele>
        <time>2022-10-02T09:00:45Z</time>
      </trkpt>
      <trkpt lat="47.381" lon="8.00647">
        <ele>374.1</ele>
        <time>2022-10-02T09:00:46Z</time>
      </trkpt>
      <trkpt lat="47.38102" lon="8.00654">
        <ele>374.1</ele>
        <time>2022-10-02T09:00:47Z</time>
      </trkpt>
      <trkpt lat="47.38105" lon="8.00661">
        <ele>374.1</ele>
        <time>2022-10-02T09:00:48Z</time>
      </trkpt>
      <trkpt lat="47.38106" lon="8.00667">
        <ele>374.1</ele>
        <time>2022-10-02T09:00:49Z</time>
      </trkpt>
      <trkpt lat="47.38108" lon="8.00674">
        <ele>374.1</ele>
        <time>2022-10-02T09:00:50Z</time>
      </trkpt>
      <trkpt lat="47.38111" lon="8.0068">
        <ele>374.1</ele>
        <time>2022-10-02T09:00:51Z</time>
      </trkpt>
      <trkpt lat="47.38112" lon="8.00687">
        <ele>374.1</ele>
        <time>2022-10-02T09:00:52Z</time>
      </trkpt>
      <trkpt lat="47.38114" lon="8.00693">
        <ele>374.1</ele>
        <time>2022-10-02T09:00:53Z</time>
      </trkpt>
      <trkpt lat="47.38117" lon="8.00699">
        <ele>374.1</ele>
        <time>2022-10-02T09:00:54Z</time>
      </trkpt>
      <trkpt lat="47.38119" lon="8.00706">
        <ele>374.1</ele>
        <time>2022-10-02T09:00:55Z</time>
      </trkpt>
      <trkpt lat="47.38121" lon="8.00713">
        <ele>374.1</ele>
        <time>2022-10-02T09:00:56Z</time>
      </trkpt>
      <trkpt lat="47.38123" lon="8.00719">
        <ele>374.1</ele>
        <time>2022-10-02T09:00:57Z</time>
      </trkpt>
      <trkpt lat="47.38126" lon="8.00725">
        <ele>374.1</ele>
        <time>2022-10-02T09:00:58Z</time>
      </trkpt>
      <trkpt lat="47.38128" lon="8.00731">
        <ele>374</ele>
        <time>2022-10-02T09:00:59Z</time>
      </trkpt>
      <trkpt lat="47.3813" lon="8.00737">
        <ele>374</ele>
        <time>2022-10-02T09:01:00Z</time>
      </trkpt>
      <trkpt lat="47.38132" lon="8.00743">
        <ele>374</ele>
        <time>2022-10-02T09:01:01Z</time>
      </trkpt>
      <trkpt lat="47.38134" lon="8.0075">
        <ele>374</ele>
        <time>2022-10-02T09:01:02Z</time>
      </trkpt>
      <trkpt lat="47.38135" lon="8.00756">
        <ele>374</ele>
        <time>2022-10-02T09:01:03Z</time>
      </trkpt>
      <trkpt lat="47.38138" lon="8.00762">
        <ele>374</ele>
        <time>2022-10-02T09:01:04Z</time>
      </trkpt>
      <trkpt lat="47.3814" lon="8.00769">
        <ele>374</ele>
        <time>2022-10-02T09:01:05Z</time>
      </trkpt>
      <trkpt lat="47.38142" lon="8.00774">
        <ele>374</ele>
        <time>2022-10-02T09:01:06Z</time>
      </trkpt>
      <trkpt lat="47.38145" lon="8.00781">
        <ele>374</ele>
        <time>2022-10-02T09:01:07Z</time>
      </trkpt>
      <trkpt lat="47.38147" lon="8.00787">
        <ele>374</ele>
        <time>2022-10-02T09:01:08Z</time>
      </trkpt>
      <trkpt lat="47.38149" lon="8.00793">
        <ele>374</ele>
        <time>2022-10-02T09:01:09Z</time>
      </trkpt>
      <trkpt lat="47.38151" lon="8.00799">
        <ele>374</ele>
        <time>2022-10-02T09:01:10Z</time>
      </trkpt>
      <trkpt lat="47.38153" lon="8.00806">
        <ele>374</ele>
        <time>2022-10-02T09:01:11Z</time>
      </trkpt>
      <trkpt lat="47.38155" lon="8.00812">
        <ele>374</ele>
        <time>2022-10-02T09:01:12Z</time>
      </trkpt>
      <trkpt lat="47.38157" lon="8.00817">
        <ele>374</ele>
        <time>2022-10-02T09:01:13Z</time>
      </trkpt>
      <trkpt lat="47.3816" lon="8.00823">
        <ele>374</ele>
        <time>2022-10-02T09:01:14Z</time>
      </trkpt>
      <trkpt lat="47.38162" lon="8.0083">
        <ele>374</ele>
        <time>2022-10-02T09:01:15Z</time>
      </trkpt>
      <trkpt lat="47.38164" lon="8.00836">
        <ele>374</ele>
        <time>2022-10-02T09:01:16Z</time>
      </trkpt>
      <trkpt lat="47.38166" lon="8.00843">
        <ele>373.9</ele>
        <time>2022-10-02T09:01:17Z</time>
      </trkpt>
      <trkpt lat="47.38168" lon="8.00848">
        <ele>373.9</ele>
        <time>2022-10-02T09:01:18Z</time>
      </trkpt>
      <trkpt lat="47.3817" lon="8.00853">
        <ele>373.9</ele>
        <time>2022-10-02T09:01:19Z</time>
      </trkpt>
      <trkpt lat="47.38172" lon="8.00859">
        <ele>373.9</ele>
        <time>2022-10-02T09:01:20Z</time>
      </trkpt>
      <trkpt lat="47.38174" lon="8.00866">
        <ele>373.9</ele>
        <time>2022-10-02T09:01:21Z</time>
      </trkpt>
      <trkpt lat="47.38176" lon="8.00872">
        <ele>373.8</ele>
        <time>2022-10-02T09:01:22Z</time>
      </trkpt>
      <trkpt lat="47.38178" lon="8.00879">
        <ele>373.8</ele>
        <time>2022-10-02T09:01:23Z</time>
      </trkpt>
      <trkpt lat="47.3818" lon="8.00884">
        <ele>373.8</ele>
        <time>2022-10-02T09:01:24Z</time>
      </trkpt>
      <trkpt lat="47.38181" lon="8.00889">
        <ele>373.8</ele>
        <time>2022-10-02T09:01:25Z</time>
      </trkpt>
      <trkpt lat="47.38182" lon="8.00895">
        <ele>373.8</ele>
        <time>2022-10-02T09:01:26Z</time>
      </trkpt>
      <trkpt lat="47.38183" lon="8.00902">
        <ele>373.8</ele>
        <time>2022-10-02T09:01:27Z</time>
      </trkpt>
      <trkpt lat="47.38183" lon="8.00909">
        <ele>373.8</ele>
        <time>2022-10-02T09:01:28Z</time>
      </trkpt>
      <trkpt lat="47.38184" lon="8.00915">
        <ele>373.8</ele>
        <time>2022-10-02T09:01:29Z</time>
      </trkpt>
      <trkpt lat="47.38185" lon="8.00919">
        <ele>373.8</ele>
        <time>2022-10-02T09:01:30Z</time>
      </trkpt>
      <trkpt lat="47.38188" lon="8.00924">
        <ele>373.8</ele>
        <time>2022-10-02T09:01:31Z</time>
      </trkpt>
      <trkpt lat="47.3819" lon="8.00928">
        <ele>373.9</ele>
        <time>2022-10-02T09:01:32Z</time>
      </trkpt>
      <trkpt lat="47.38194" lon="8.00934">
        <ele>373.9</ele>
        <time>2022-10-02T09:01:33Z</time>
      </trkpt>
      <trkpt lat="47.38195" lon="8.00938">
        <ele>373.9</ele>
        <time>2022-10-02T09:01:34Z</time>
      </trkpt>
      <trkpt lat="47.38196" lon="8.00943">
        <ele>374</ele>
        <time>2022-10-02T09:01:35Z</time>
      </trkpt>
      <trkpt lat="47.38198" lon="8.0095">
        <ele>374</ele>
        <time>2022-10-02T09:01:36Z</time>
      </trkpt>
      <trkpt lat="47.38202" lon="8.00958">
        <ele>374</ele>
        <time>2022-10-02T09:01:37Z</time>
      </trkpt>
      <trkpt lat="47.38203" lon="8.00965">
        <ele>373.9</ele>
        <time>2022-10-02T09:01:38Z</time>
      </trkpt>
      <trkpt lat="47.38205" lon="8.00973">
        <ele>373.9</ele>
        <time>2022-10-02T09:01:39Z</time>
      </trkpt>
      <trkpt lat="47.38207" lon="8.0098">
        <ele>373.9</ele>
        <time>2022-10-02T09:01:40Z</time>
      </trkpt>
      <trkpt lat="47.38209" lon="8.00987">
        <ele>373.9</ele>
        <time>2022-10-02T09:01:41Z</time>
      </trkpt>
      <trkpt lat="47.38212" lon="8.00995">
        <ele>373.9</ele>
        <time>2022-10-02T09:01:42Z</time>
      </trkpt>
      <trkpt lat="47.38213" lon="8.01001">
        <ele>373.8</ele>
        <time>2022-10-02T09:01:43Z</time>
      </trkpt>
      <trkpt lat="47.38216" lon="8.01007">
        <ele>373.8</ele>
        <time>2022-10-02T09:01:44Z</time>
      </trkpt>
      <trkpt lat="47.38218" lon="8.01012">
        <ele>373.8</ele>
        <time>2022-10-02T09:01:45Z</time>
      </trkpt>
      <trkpt lat="47.38221" lon="8.01018">
        <ele>373.8</ele>
        <time>2022-10-02T09:01:46Z</time>
      </trkpt>
      <trkpt lat="47.38224" lon="8.01022">
        <ele>373.7</ele>
        <time>2022-10-02T09:01:47Z</time>
      </trkpt>
      <trkpt lat="47.38227" lon="8.01026">
        <ele>373.7</ele>
        <time>2022-10-02T09:01:48Z</time>
      </trkpt>
      <trkpt lat="47.38231" lon="8.01029">
        <ele>373.7</ele>
        <time>2022-10-02T09:01:49Z</time>
      </trkpt>
      <trkpt lat="47.38233" lon="8.01031">
        <ele>373.7</ele>
        <time>2022-10-02T09:01:50Z</time>
      </trkpt>
      <trkpt lat="47.38236" lon="8.01033">
        <ele>373.6</ele>
        <time>2022-10-02T09:01:51Z</time>
      </trkpt>
      <trkpt lat="47.38241" lon="8.01037">
        <ele>373.5</ele>
        <time>2022-10-02T09:01:52Z</time>
      </trkpt>
      <trkpt lat="47.38243" lon="8.01042">
        <ele>373.5</ele>
        <time>2022-10-02T09:01:53Z</time>
      </trkpt>
      <trkpt lat="47.38249" lon="8.01044">
        <ele>373.4</ele>
        <time>2022-10-02T09:01:54Z</time>
      </trkpt>
      <trkpt lat="47.38253" lon="8.01047">
        <ele>373.4</ele>
        <time>2022-10-02T09:01:55Z</time>
      </trkpt>
      <trkpt lat="47.38255" lon="8.01048">
        <ele>373.4</ele>
        <time>2022-10-02T09:01:56Z</time>
      </trkpt>
      <trkpt lat="47.38259" lon="8.01053">
        <ele>373.3</ele>
        <time>2022-10-02T09:01:57Z</time>
      </trkpt>
      <trkpt lat="47.38262" lon="8.01057">
        <ele>373.3</ele>
        <time>2022-10-02T09:01:58Z</time>
      </trkpt>
      <trkpt lat="47.38267" lon="8.01061">
        <ele>373.2</ele>
        <time>2022-10-02T09:01:59Z</time>
      </trkpt>
      <trkpt lat="47.38271" lon="8.01065">
        <ele>373.1</ele>
        <time>2022-10-02T09:02:00Z</time>
      </trkpt>
      <trkpt lat="47.38276" lon="8.01068">
        <ele>373.1</ele>
        <time>2022-10-02T09:02:01Z</time>
      </trkpt>
      <trkpt lat="47.3828" lon="8.01072">
        <ele>373</ele>
        <time>2022-10-02T09:02:02Z</time>
      </trkpt>
      <trkpt lat="47.38285" lon="8.01076">
        <ele>373</ele>
        <time>2022-10-02T09:02:03Z</time>
      </trkpt>
      <trkpt lat="47.3829" lon="8.01082">
        <ele>373</ele>
        <time>2022-10-02T09:02:04Z</time>
      </trkpt>
      <trkpt lat="47.38294" lon="8.01085">
        <ele>373</ele>
        <time>2022-10-02T09:02:05Z</time>
      </trkpt>
      <trkpt lat="47.38298" lon="8.01088">
        <ele>373</ele>
        <time>2022-10-02T09:02:06Z</time>
      </trkpt>
      <trkpt lat="47.38302" lon="8.01092">
        <ele>373</ele>
        <time>2022-10-02T09:02:07Z</time>
      </trkpt>
      <trkpt lat="47.38307" lon="8.01096">
        <ele>373</ele>
        <time>2022-10-02T09:02:08Z</time>
      </trkpt>
      <trkpt lat="47.38311" lon="8.011">
        <ele>372.9</ele>
        <time>2022-10-02T09:02:09Z</time>
      </trkpt>
      <trkpt lat="47.38315" lon="8.01104">
        <ele>372.9</ele>
        <time>2022-10-02T09:02:10Z</time>
      </trkpt>
      <trkpt lat="47.38318" lon="8.01107">
        <ele>372.9</ele>
        <time>2022-10-02T09:02:11Z</time>
      </trkpt>
      <trkpt lat="47.38322" lon="8.01111">
        <ele>372.8</ele>
        <time>2022-10-02T09:02:12Z</time>
      </trkpt>
      <trkpt lat="47.38326" lon="8.01114">
        <ele>372.6</ele>
        <time>2022-10-02T09:02:13Z</time>
      </trkpt>
      <trkpt lat="47.38331" lon="8.01119">
        <ele>372.4</ele>
        <time>2022-10-02T09:02:14Z</time>
      </trkpt>
      <trkpt lat="47.38336" lon="8.01123">
        <ele>372.3</ele>
        <time>2022-10-02T09:02:15Z</time>
      </trkpt>
      <trkpt lat="47.3834" lon="8.01126">
        <ele>372.1</ele>
        <time>2022-10-02T09:02:16Z</time>
      </trkpt>
      <trkpt lat="47.38346" lon="8.01129">
        <ele>372</ele>
        <time>2022-10-02T09:02:17Z</time>
      </trkpt>
      <trkpt lat="47.38349" lon="8.01133">
        <ele>371.9</ele>
        <time>2022-10-02T09:02:18Z</time>
      </trkpt>
      <trkpt lat="47.38353" lon="8.01137">
        <ele>371.8</ele>
        <time>2022-10-02T09:02:19Z</time>
      </trkpt>
      <trkpt lat="47.38358" lon="8.01142">
        <ele>371.7</ele>
        <time>2022-10-02T09:02:21Z</time>
      </trkpt>
      <trkpt lat="47.38362" lon="8.01147">
        <ele>371.7</ele>
        <time>2022-10-02T09:02:22Z</time>
      </trkpt>
      <trkpt lat="47.38366" lon="8.01151">
        <ele>371.6</ele>
        <time>2022-10-02T09:02:23Z</time>
      </trkpt>
      <trkpt lat="47.38375" lon="8.01158">
        <ele>371.5</ele>
        <time>2022-10-02T09:02:24Z</time>
      </trkpt>
      <trkpt lat="47.3838" lon="8.01161">
        <ele>371.4</ele>
        <time>2022-10-02T09:02:25Z</time>
      </trkpt>
      <trkpt lat="47.38383" lon="8.01166">
        <ele>371.4</ele>
        <time>2022-10-02T09:02:26Z</time>
      </trkpt>
      <trkpt lat="47.38386" lon="8.01169">
        <ele>371.4</ele>
        <time>2022-10-02T09:02:27Z</time>
      </trkpt>
      <trkpt lat="47.3839" lon="8.01172">
        <ele>371.4</ele>
        <time>2022-10-02T09:02:29Z</time>
      </trkpt>
      <trkpt lat="47.38399" lon="8.01178">
        <ele>371.3</ele>
        <time>2022-10-02T09:02:30Z</time>
      </trkpt>
      <trkpt lat="47.38402" lon="8.01181">
        <ele>371.3</ele>
        <time>2022-10-02T09:02:31Z</time>
      </trkpt>
      <trkpt lat="47.38406" lon="8.01184">
        <ele>371.3</ele>
        <time>2022-10-02T09:02:33Z</time>
      </trkpt>
      <trkpt lat="47.38412" lon="8.01191">
        <ele>371.2</ele>
        <time>2022-10-02T09:02:34Z</time>
      </trkpt>
      <trkpt lat="47.38416" lon="8.01193">
        <ele>371.2</ele>
        <time>2022-10-02T09:02:35Z</time>
      </trkpt>
      <trkpt lat="47.38419" lon="8.01197">
        <ele>371.2</ele>
        <time>2022-10-02T09:02:36Z</time>
      </trkpt>
      <trkpt lat="47.38423" lon="8.012">
        <ele>371.2</ele>
        <time>2022-10-02T09:02:37Z</time>
      </trkpt>
      <trkpt lat="47.38426" lon="8.01202">
        <ele>371.1</ele>
        <time>2022-10-02T09:02:38Z</time>
      </trkpt>
      <trkpt lat="47.38428" lon="8.01205">
        <ele>371.1</ele>
        <time>2022-10-02T09:02:39Z</time>
      </trkpt>
      <trkpt lat="47.38431" lon="8.01207">
        <ele>371.1</ele>
        <time>2022-10-02T09:02:40Z</time>
      </trkpt>
      <trkpt lat="47.38433" lon="8.0121">
        <ele>371.1</ele>
        <time>2022-10-02T09:02:41Z</time>
      </trkpt>
      <trkpt lat="47.38435" lon="8.01214">
        <ele>371.1</ele>
        <time>2022-10-02T09:02:42Z</time>
      </trkpt>
      <trkpt lat="47.38439" lon="8.01216">
        <ele>371.1</ele>
        <time>2022-10-02T09:02:43Z</time>
      </trkpt>
      <trkpt lat="47.38442" lon="8.01218">
        <ele>371</ele>
        <time>2022-10-02T09:02:44Z</time>
      </trkpt>
      <trkpt lat="47.38445" lon="8.0122">
        <ele>371</ele>
        <time>2022-10-02T09:02:45Z</time>
      </trkpt>
      <trkpt lat="47.38447" lon="8.01223">
        <ele>370.9</ele>
        <time>2022-10-02T09:02:46Z</time>
      </trkpt>
      <trkpt lat="47.3845" lon="8.01226">
        <ele>370.9</ele>
        <time>2022-10-02T09:02:47Z</time>
      </trkpt>
      <trkpt lat="47.38452" lon="8.01227">
        <ele>370.9</ele>
        <time>2022-10-02T09:02:48Z</time>
      </trkpt>
      <trkpt lat="47.38455" lon="8.01229">
        <ele>368.7</ele>
        <time>2022-10-02T09:02:49Z</time>
      </trkpt>
      <trkpt lat="47.38458" lon="8.01232">
        <ele>369.1</ele>
        <time>2022-10-02T09:02:50Z</time>
      </trkpt>
      <trkpt lat="47.38461" lon="8.01235">
        <ele>369.1</ele>
        <time>2022-10-02T09:02:51Z</time>
      </trkpt>
      <trkpt lat="47.38464" lon="8.01238">
        <ele>368.6</ele>
        <time>2022-10-02T09:02:52Z</time>
      </trkpt>
      <trkpt lat="47.38467" lon="8.01242">
        <ele>368.6</ele>
        <time>2022-10-02T09:02:53Z</time>
      </trkpt>
      <trkpt lat="47.3847" lon="8.01244">
        <ele>368.6</ele>
        <time>2022-10-02T09:02:54Z</time>
      </trkpt>
      <trkpt lat="47.38473" lon="8.01247">
        <ele>368.3</ele>
        <time>2022-10-02T09:02:55Z</time>
      </trkpt>
      <trkpt lat="47.38476" lon="8.0125">
        <ele>368.3</ele>
        <time>2022-10-02T09:02:56Z</time>
      </trkpt>
      <trkpt lat="47.3848" lon="8.01255">
        <ele>368.3</ele>
        <time>2022-10-02T09:02:57Z</time>
      </trkpt>
      <trkpt lat="47.38483" lon="8.01258">
        <ele>368.3</ele>
        <time>2022-10-02T09:02:58Z</time>
      </trkpt>
      <trkpt lat="47.38486" lon="8.01262">
        <ele>368.3</ele>
        <time>2022-10-02T09:02:59Z</time>
      </trkpt>
      <trkpt lat="47.38489" lon="8.01265">
        <ele>368.1</ele>
        <time>2022-10-02T09:03:00Z</time>
      </trkpt>
      <trkpt lat="47.38493" lon="8.01268">
        <ele>368.1</ele>
        <time>2022-10-02T09:03:01Z</time>
      </trkpt>
      <trkpt lat="47.38495" lon="8.01271">
        <ele>368.1</ele>
        <time>2022-10-02T09:03:02Z</time>
      </trkpt>
      <trkpt lat="47.38498" lon="8.01275">
        <ele>368.2</ele>
        <time>2022-10-02T09:03:03Z</time>
      </trkpt>
      <trkpt lat="47.38502" lon="8.01278">
        <ele>368.6</ele>
        <time>2022-10-02T09:03:04Z</time>
      </trkpt>
      <trkpt lat="47.38505" lon="8.01281">
        <ele>368.2</ele>
        <time>2022-10-02T09:03:05Z</time>
      </trkpt>
      <trkpt lat="47.38508" lon="8.01285">
        <ele>368.2</ele>
        <time>2022-10-02T09:03:06Z</time>
      </trkpt>
      <trkpt lat="47.38511" lon="8.01288">
        <ele>368.2</ele>
        <time>2022-10-02T09:03:07Z</time>
      </trkpt>
      <trkpt lat="47.38514" lon="8.01292">
        <ele>368.2</ele>
        <time>2022-10-02T09:03:08Z</time>
      </trkpt>
      <trkpt lat="47.38516" lon="8.01294">
        <ele>368.2</ele>
        <time>2022-10-02T09:03:09Z</time>
      </trkpt>
      <trkpt lat="47.38519" lon="8.01297">
        <ele>368.7</ele>
        <time>2022-10-02T09:03:10Z</time>
      </trkpt>
      <trkpt lat="47.3852" lon="8.01297">
        <ele>368.9</ele>
        <time>2022-10-02T09:03:11Z</time>
      </trkpt>
      <trkpt lat="47.38522" lon="8.01299">
        <ele>369.3</ele>
        <time>2022-10-02T09:03:12Z</time>
      </trkpt>
      <trkpt lat="47.38522" lon="8.01302">
        <ele>369.5</ele>
        <time>2022-10-02T09:03:13Z</time>
      </trkpt>
      <trkpt lat="47.38524" lon="8.01305">
        <ele>370.1</ele>
        <time>2022-10-02T09:03:14Z</time>
      </trkpt>
      <trkpt lat="47.38526" lon="8.0131">
        <ele>370.7</ele>
        <time>2022-10-02T09:03:15Z</time>
      </trkpt>
      <trkpt lat="47.38528" lon="8.01316">
        <ele>371.5</ele>
        <time>2022-10-02T09:03:16Z</time>
      </trkpt>
      <trkpt lat="47.38529" lon="8.01322">
        <ele>372.1</ele>
        <time>2022-10-02T09:03:17Z</time>
      </trkpt>
      <trkpt lat="47.38532" lon="8.01327">
        <ele>372.9</ele>
        <time>2022-10-02T09:03:18Z</time>
      </trkpt>
      <trkpt lat="47.38534" lon="8.01333">
        <ele>372.9</ele>
        <time>2022-10-02T09:03:19Z</time>
      </trkpt>
      <trkpt lat="47.38535" lon="8.01339">
        <ele>372.8</ele>
        <time>2022-10-02T09:03:20Z</time>
      </trkpt>
      <trkpt lat="47.38537" lon="8.01345">
        <ele>372.8</ele>
        <time>2022-10-02T09:03:21Z</time>
      </trkpt>
      <trkpt lat="47.38537" lon="8.01352">
        <ele>372.7</ele>
        <time>2022-10-02T09:03:22Z</time>
      </trkpt>
      <trkpt lat="47.3854" lon="8.0136">
        <ele>372.6</ele>
        <time>2022-10-02T09:03:23Z</time>
      </trkpt>
      <trkpt lat="47.38542" lon="8.01367">
        <ele>372.6</ele>
        <time>2022-10-02T09:03:24Z</time>
      </trkpt>
      <trkpt lat="47.38543" lon="8.01372">
        <ele>372.5</ele>
        <time>2022-10-02T09:03:25Z</time>
      </trkpt>
      <trkpt lat="47.38546" lon="8.01379">
        <ele>372.5</ele>
        <time>2022-10-02T09:03:26Z</time>
      </trkpt>
      <trkpt lat="47.38547" lon="8.01386">
        <ele>372.5</ele>
        <time>2022-10-02T09:03:27Z</time>
      </trkpt>
      <trkpt lat="47.38548" lon="8.01392">
        <ele>372.5</ele>
        <time>2022-10-02T09:03:28Z</time>
      </trkpt>
      <trkpt lat="47.38548" lon="8.01398">
        <ele>372.4</ele>
        <time>2022-10-02T09:03:29Z</time>
      </trkpt>
      <trkpt lat="47.3855" lon="8.01406">
        <ele>372.4</ele>
        <time>2022-10-02T09:03:30Z</time>
      </trkpt>
      <trkpt lat="47.38552" lon="8.01413">
        <ele>372.4</ele>
        <time>2022-10-02T09:03:31Z</time>
      </trkpt>
      <trkpt lat="47.38552" lon="8.0142">
        <ele>372.3</ele>
        <time>2022-10-02T09:03:32Z</time>
      </trkpt>
      <trkpt lat="47.38554" lon="8.01428">
        <ele>372.3</ele>
        <time>2022-10-02T09:03:33Z</time>
      </trkpt>
      <trkpt lat="47.38555" lon="8.01435">
        <ele>372.3</ele>
        <time>2022-10-02T09:03:34Z</time>
      </trkpt>
      <trkpt lat="47.38556" lon="8.01443">
        <ele>372.3</ele>
        <time>2022-10-02T09:03:35Z</time>
      </trkpt>
      <trkpt lat="47.38558" lon="8.01451">
        <ele>372.2</ele>
        <time>2022-10-02T09:03:36Z</time>
      </trkpt>
      <trkpt lat="47.38559" lon="8.01457">
        <ele>372.2</ele>
        <time>2022-10-02T09:03:37Z</time>
      </trkpt>
      <trkpt lat="47.38561" lon="8.01465">
        <ele>372.2</ele>
        <time>2022-10-02T09:03:38Z</time>
      </trkpt>
      <trkpt lat="47.38562" lon="8.01473">
        <ele>372.2</ele>
        <time>2022-10-02T09:03:39Z</time>
      </trkpt>
      <trkpt lat="47.38564" lon="8.01481">
        <ele>372.2</ele>
        <time>2022-10-02T09:03:40Z</time>
      </trkpt>
      <trkpt lat="47.38564" lon="8.01488">
        <ele>372.2</ele>
        <time>2022-10-02T09:03:41Z</time>
      </trkpt>
      <trkpt lat="47.38566" lon="8.01496">
        <ele>372.2</ele>
        <time>2022-10-02T09:03:42Z</time>
      </trkpt>
      <trkpt lat="47.38568" lon="8.01504">
        <ele>372.2</ele>
        <time>2022-10-02T09:03:43Z</time>
      </trkpt>
      <trkpt lat="47.3857" lon="8.01512">
        <ele>372.2</ele>
        <time>2022-10-02T09:03:44Z</time>
      </trkpt>
      <trkpt lat="47.38571" lon="8.01519">
        <ele>372.2</ele>
        <time>2022-10-02T09:03:45Z</time>
      </trkpt>
      <trkpt lat="47.38572" lon="8.01527">
        <ele>372.2</ele>
        <time>2022-10-02T09:03:46Z</time>
      </trkpt>
      <trkpt lat="47.38574" lon="8.01535">
        <ele>372.2</ele>
        <time>2022-10-02T09:03:47Z</time>
      </trkpt>
      <trkpt lat="47.38576" lon="8.01543">
        <ele>372.2</ele>
        <time>2022-10-02T09:03:48Z</time>
      </trkpt>
      <trkpt lat="47.38577" lon="8.01551">
        <ele>372.2</ele>
        <time>2022-10-02T09:03:49Z</time>
      </trkpt>
      <trkpt lat="47.38579" lon="8.01559">
        <ele>372.2</ele>
        <time>2022-10-02T09:03:50Z</time>
      </trkpt>
      <trkpt lat="47.38581" lon="8.01566">
        <ele>372.2</ele>
        <time>2022-10-02T09:03:51Z</time>
      </trkpt>
      <trkpt lat="47.38582" lon="8.01574">
        <ele>372.2</ele>
        <time>2022-10-02T09:03:52Z</time>
      </trkpt>
      <trkpt lat="47.38584" lon="8.01582">
        <ele>372.2</ele>
        <time>2022-10-02T09:03:53Z</time>
      </trkpt>
      <trkpt lat="47.38585" lon="8.01589">
        <ele>372.2</ele>
        <time>2022-10-02T09:03:54Z</time>
      </trkpt>
      <trkpt lat="47.38587" lon="8.01598">
        <ele>372.2</ele>
        <time>2022-10-02T09:03:55Z</time>
      </trkpt>
      <trkpt lat="47.38589" lon="8.01605">
        <ele>372.3</ele>
        <time>2022-10-02T09:03:56Z</time>
      </trkpt>
      <trkpt lat="47.3859" lon="8.01613">
        <ele>372.3</ele>
        <time>2022-10-02T09:03:57Z</time>
      </trkpt>
      <trkpt lat="47.38593" lon="8.0162">
        <ele>372.3</ele>
        <time>2022-10-02T09:03:58Z</time>
      </trkpt>
      <trkpt lat="47.38595" lon="8.01628">
        <ele>372.3</ele>
        <time>2022-10-02T09:03:59Z</time>
      </trkpt>
      <trkpt lat="47.38597" lon="8.01635">
        <ele>372.3</ele>
        <time>2022-10-02T09:04:00Z</time>
      </trkpt>
      <trkpt lat="47.38599" lon="8.01643">
        <ele>372.3</ele>
        <time>2022-10-02T09:04:01Z</time>
      </trkpt>
      <trkpt lat="47.38602" lon="8.0165">
        <ele>372.3</ele>
        <time>2022-10-02T09:04:02Z</time>
      </trkpt>
      <trkpt lat="47.38604" lon="8.01657">
        <ele>372.3</ele>
        <time>2022-10-02T09:04:03Z</time>
      </trkpt>
      <trkpt lat="47.38607" lon="8.01664">
        <ele>372.2</ele>
        <time>2022-10-02T09:04:04Z</time>
      </trkpt>
      <trkpt lat="47.38609" lon="8.01671">
        <ele>372.2</ele>
        <time>2022-10-02T09:04:05Z</time>
      </trkpt>
      <trkpt lat="47.38612" lon="8.01678">
        <ele>372.2</ele>
        <time>2022-10-02T09:04:06Z</time>
      </trkpt>
      <trkpt lat="47.38614" lon="8.01685">
        <ele>372.2</ele>
        <time>2022-10-02T09:04:07Z</time>
      </trkpt>
      <trkpt lat="47.38617" lon="8.01691">
        <ele>372.2</ele>
        <time>2022-10-02T09:04:08Z</time>
      </trkpt>
      <trkpt lat="47.3862" lon="8.01697">
        <ele>372.2</ele>
        <time>2022-10-02T09:04:09Z</time>
      </trkpt>
      <trkpt lat="47.38623" lon="8.01705">
        <ele>372.2</ele>
        <time>2022-10-02T09:04:10Z</time>
      </trkpt>
      <trkpt lat="47.38626" lon="8.01711">
        <ele>372.2</ele>
        <time>2022-10-02T09:04:11Z</time>
      </trkpt>
      <trkpt lat="47.38629" lon="8.01716">
        <ele>372.2</ele>
        <time>2022-10-02T09:04:12Z</time>
      </trkpt>
      <trkpt lat="47.38632" lon="8.01723">
        <ele>372.3</ele>
        <time>2022-10-02T09:04:13Z</time>
      </trkpt>
      <trkpt lat="47.38635" lon="8.0173">
        <ele>372.3</ele>
        <time>2022-10-02T09:04:14Z</time>
      </trkpt>
      <trkpt lat="47.38638" lon="8.01736">
        <ele>372.3</ele>
        <time>2022-10-02T09:04:15Z</time>
      </trkpt>
      <trkpt lat="47.38642" lon="8.01741">
        <ele>372.3</ele>
        <time>2022-10-02T09:04:16Z</time>
      </trkpt>
      <trkpt lat="47.38646" lon="8.01747">
        <ele>372.3</ele>
        <time>2022-10-02T09:04:17Z</time>
      </trkpt>
      <trkpt lat="47.38649" lon="8.01753">
        <ele>372.3</ele>
        <time>2022-10-02T09:04:18Z</time>
      </trkpt>
      <trkpt lat="47.38653" lon="8.01759">
        <ele>372.3</ele>
        <time>2022-10-02T09:04:19Z</time>
      </trkpt>
      <trkpt lat="47.38657" lon="8.01765">
        <ele>372.3</ele>
        <time>2022-10-02T09:04:20Z</time>
      </trkpt>
      <trkpt lat="47.38661" lon="8.0177">
        <ele>372.3</ele>
        <time>2022-10-02T09:04:21Z</time>
      </trkpt>
      <trkpt lat="47.38665" lon="8.01774">
        <ele>372.3</ele>
        <time>2022-10-02T09:04:22Z</time>
      </trkpt>
      <trkpt lat="47.38669" lon="8.01779">
        <ele>372.3</ele>
        <time>2022-10-02T09:04:23Z</time>
      </trkpt>
      <trkpt lat="47.38673" lon="8.01784">
        <ele>372.3</ele>
        <time>2022-10-02T09:04:24Z</time>
      </trkpt>
      <trkpt lat="47.38677" lon="8.01789">
        <ele>372.3</ele>
        <time>2022-10-02T09:04:25Z</time>
      </trkpt>
      <trkpt lat="47.38681" lon="8.01793">
        <ele>372.3</ele>
        <time>2022-10-02T09:04:27Z</time>
      </trkpt>
      <trkpt lat="47.38684" lon="8.01797">
        <ele>372.3</ele>
        <time>2022-10-02T09:04:28Z</time>
      </trkpt>
      <trkpt lat="47.38688" lon="8.01801">
        <ele>372.3</ele>
        <time>2022-10-02T09:04:29Z</time>
      </trkpt>
      <trkpt lat="47.38692" lon="8.01804">
        <ele>372.3</ele>
        <time>2022-10-02T09:04:30Z</time>
      </trkpt>
      <trkpt lat="47.38695" lon="8.01806">
        <ele>372.3</ele>
        <time>2022-10-02T09:04:31Z</time>
      </trkpt>
      <trkpt lat="47.38698" lon="8.01809">
        <ele>372.3</ele>
        <time>2022-10-02T09:04:32Z</time>
      </trkpt>
      <trkpt lat="47.38701" lon="8.01813">
        <ele>372.3</ele>
        <time>2022-10-02T09:04:33Z</time>
      </trkpt>
      <trkpt lat="47.38705" lon="8.01817">
        <ele>372.4</ele>
        <time>2022-10-02T09:04:34Z</time>
      </trkpt>
      <trkpt lat="47.38708" lon="8.01821">
        <ele>372.4</ele>
        <time>2022-10-02T09:04:35Z</time>
      </trkpt>
      <trkpt lat="47.38712" lon="8.01825">
        <ele>372.4</ele>
        <time>2022-10-02T09:04:36Z</time>
      </trkpt>
      <trkpt lat="47.38716" lon="8.01828">
        <ele>372.4</ele>
        <time>2022-10-02T09:04:37Z</time>
      </trkpt>
      <trkpt lat="47.3872" lon="8.01832">
        <ele>372.4</ele>
        <time>2022-10-02T09:04:38Z</time>
      </trkpt>
      <trkpt lat="47.38725" lon="8.01836">
        <ele>372.4</ele>
        <time>2022-10-02T09:04:39Z</time>
      </trkpt>
      <trkpt lat="47.38729" lon="8.01841">
        <ele>372.4</ele>
        <time>2022-10-02T09:04:40Z</time>
      </trkpt>
      <trkpt lat="47.38734" lon="8.01845">
        <ele>372.5</ele>
        <time>2022-10-02T09:04:41Z</time>
      </trkpt>
      <trkpt lat="47.38743" lon="8.01852">
        <ele>372.5</ele>
        <time>2022-10-02T09:04:42Z</time>
      </trkpt>
      <trkpt lat="47.38747" lon="8.01855">
        <ele>372.5</ele>
        <time>2022-10-02T09:04:43Z</time>
      </trkpt>
      <trkpt lat="47.38752" lon="8.01859">
        <ele>372.5</ele>
        <time>2022-10-02T09:04:44Z</time>
      </trkpt>
      <trkpt lat="47.38757" lon="8.01862">
        <ele>372.4</ele>
        <time>2022-10-02T09:04:45Z</time>
      </trkpt>
      <trkpt lat="47.38761" lon="8.01866">
        <ele>372.4</ele>
        <time>2022-10-02T09:04:46Z</time>
      </trkpt>
      <trkpt lat="47.38766" lon="8.0187">
        <ele>372.4</ele>
        <time>2022-10-02T09:04:47Z</time>
      </trkpt>
      <trkpt lat="47.38771" lon="8.01874">
        <ele>372.4</ele>
        <time>2022-10-02T09:04:48Z</time>
      </trkpt>
      <trkpt lat="47.38776" lon="8.01878">
        <ele>372.4</ele>
        <time>2022-10-02T09:04:49Z</time>
      </trkpt>
      <trkpt lat="47.38781" lon="8.01882">
        <ele>372.5</ele>
        <time>2022-10-02T09:04:50Z</time>
      </trkpt>
      <trkpt lat="47.38785" lon="8.01885">
        <ele>372.5</ele>
        <time>2022-10-02T09:04:51Z</time>
      </trkpt>
      <trkpt lat="47.3879" lon="8.01889">
        <ele>372.5</ele>
        <time>2022-10-02T09:04:52Z</time>
      </trkpt>
      <trkpt lat="47.38794" lon="8.01893">
        <ele>372.5</ele>
        <time>2022-10-02T09:04:53Z</time>
      </trkpt>
      <trkpt lat="47.38799" lon="8.01897">
        <ele>372.5</ele>
        <time>2022-10-02T09:04:54Z</time>
      </trkpt>
      <trkpt lat="47.38804" lon="8.01901">
        <ele>372.5</ele>
        <time>2022-10-02T09:04:55Z</time>
      </trkpt>
      <trkpt lat="47.38808" lon="8.01905">
        <ele>372.5</ele>
        <time>2022-10-02T09:04:56Z</time>
      </trkpt>
      <trkpt lat="47.38813" lon="8.01908">
        <ele>372.5</ele>
        <time>2022-10-02T09:04:57Z</time>
      </trkpt>
      <trkpt lat="47.38817" lon="8.01911">
        <ele>372.5</ele>
        <time>2022-10-02T09:04:58Z</time>
      </trkpt>
      <trkpt lat="47.38822" lon="8.01916">
        <ele>372.5</ele>
        <time>2022-10-02T09:04:59Z</time>
      </trkpt>
      <trkpt lat="47.38826" lon="8.0192">
        <ele>372.4</ele>
        <time>2022-10-02T09:05:00Z</time>
      </trkpt>
      <trkpt lat="47.38831" lon="8.01923">
        <ele>372.4</ele>
        <time>2022-10-02T09:05:01Z</time>
      </trkpt>
      <trkpt lat="47.38836" lon="8.01927">
        <ele>372.4</ele>
        <time>2022-10-02T09:05:02Z</time>
      </trkpt>
      <trkpt lat="47.38841" lon="8.01931">
        <ele>372.4</ele>
        <time>2022-10-02T09:05:03Z</time>
      </trkpt>
      <trkpt lat="47.38845" lon="8.01935">
        <ele>372.4</ele>
        <time>2022-10-02T09:05:04Z</time>
      </trkpt>
      <trkpt lat="47.38849" lon="8.01938">
        <ele>372.4</ele>
        <time>2022-10-02T09:05:05Z</time>
      </trkpt>
      <trkpt lat="47.38854" lon="8.01942">
        <ele>372.4</ele>
        <time>2022-10-02T09:05:06Z</time>
      </trkpt>
      <trkpt lat="47.38858" lon="8.01946">
        <ele>372.4</ele>
        <time>2022-10-02T09:05:07Z</time>
      </trkpt>
      <trkpt lat="47.38864" lon="8.0195">
        <ele>372.4</ele>
        <time>2022-10-02T09:05:08Z</time>
      </trkpt>
      <trkpt lat="47.38868" lon="8.01954">
        <ele>372.4</ele>
        <time>2022-10-02T09:05:09Z</time>
      </trkpt>
      <trkpt lat="47.38873" lon="8.01957">
        <ele>372.4</ele>
        <time>2022-10-02T09:05:10Z</time>
      </trkpt>
      <trkpt lat="47.38878" lon="8.01961">
        <ele>372.4</ele>
        <time>2022-10-02T09:05:11Z</time>
      </trkpt>
      <trkpt lat="47.38883" lon="8.01964">
        <ele>372.4</ele>
        <time>2022-10-02T09:05:12Z</time>
      </trkpt>
      <trkpt lat="47.38888" lon="8.01969">
        <ele>372.4</ele>
        <time>2022-10-02T09:05:13Z</time>
      </trkpt>
      <trkpt lat="47.38892" lon="8.01972">
        <ele>372.4</ele>
        <time>2022-10-02T09:05:14Z</time>
      </trkpt>
      <trkpt lat="47.38897" lon="8.01977">
        <ele>372.5</ele>
        <time>2022-10-02T09:05:15Z</time>
      </trkpt>
      <trkpt lat="47.38902" lon="8.0198">
        <ele>372.5</ele>
        <time>2022-10-02T09:05:16Z</time>
      </trkpt>
      <trkpt lat="47.38906" lon="8.01983">
        <ele>372.5</ele>
        <time>2022-10-02T09:05:17Z</time>
      </trkpt>
      <trkpt lat="47.38911" lon="8.01988">
        <ele>372.4</ele>
        <time>2022-10-02T09:05:18Z</time>
      </trkpt>
      <trkpt lat="47.38916" lon="8.01992">
        <ele>372.4</ele>
        <time>2022-10-02T09:05:19Z</time>
      </trkpt>
      <trkpt lat="47.38921" lon="8.01995">
        <ele>372.4</ele>
        <time>2022-10-02T09:05:20Z</time>
      </trkpt>
      <trkpt lat="47.38925" lon="8.01999">
        <ele>372.4</ele>
        <time>2022-10-02T09:05:21Z</time>
      </trkpt>
      <trkpt lat="47.3893" lon="8.02003">
        <ele>372.4</ele>
        <time>2022-10-02T09:05:22Z</time>
      </trkpt>
      <trkpt lat="47.38935" lon="8.02006">
        <ele>372.4</ele>
        <time>2022-10-02T09:05:23Z</time>
      </trkpt>
      <trkpt lat="47.3894" lon="8.0201">
        <ele>372.4</ele>
        <time>2022-10-02T09:05:24Z</time>
      </trkpt>
      <trkpt lat="47.38944" lon="8.02015">
        <ele>372.4</ele>
        <time>2022-10-02T09:05:25Z</time>
      </trkpt>
      <trkpt lat="47.38949" lon="8.02018">
        <ele>372.4</ele>
        <time>2022-10-02T09:05:26Z</time>
      </trkpt>
      <trkpt lat="47.38954" lon="8.02022">
        <ele>372.4</ele>
        <time>2022-10-02T09:05:27Z</time>
      </trkpt>
      <trkpt lat="47.38957" lon="8.02025">
        <ele>372.4</ele>
        <time>2022-10-02T09:05:28Z</time>
      </trkpt>
      <trkpt lat="47.38962" lon="8.02029">
        <ele>372.4</ele>
        <time>2022-10-02T09:05:29Z</time>
      </trkpt>
      <trkpt lat="47.38967" lon="8.02032">
        <ele>372.4</ele>
        <time>2022-10-02T09:05:30Z</time>
      </trkpt>
      <trkpt lat="47.38971" lon="8.02036">
        <ele>372.4</ele>
        <time>2022-10-02T09:05:31Z</time>
      </trkpt>
      <trkpt lat="47.38976" lon="8.0204">
        <ele>372.4</ele>
        <time>2022-10-02T09:05:32Z</time>
      </trkpt>
      <trkpt lat="47.3898" lon="8.02045">
        <ele>372.5</ele>
        <time>2022-10-02T09:05:33Z</time>
      </trkpt>
      <trkpt lat="47.38984" lon="8.02048">
        <ele>372.5</ele>
        <time>2022-10-02T09:05:34Z</time>
      </trkpt>
      <trkpt lat="47.38988" lon="8.0205">
        <ele>372.5</ele>
        <time>2022-10-02T09:05:35Z</time>
      </trkpt>
      <trkpt lat="47.38992" lon="8.02053">
        <ele>372.5</ele>
        <time>2022-10-02T09:05:36Z</time>
      </trkpt>
      <trkpt lat="47.38996" lon="8.02056">
        <ele>372.5</ele>
        <time>2022-10-02T09:05:37Z</time>
      </trkpt>
      <trkpt lat="47.39" lon="8.02059">
        <ele>372.5</ele>
        <time>2022-10-02T09:05:38Z</time>
      </trkpt>
      <trkpt lat="47.39004" lon="8.02062">
        <ele>372.5</ele>
        <time>2022-10-02T09:05:39Z</time>
      </trkpt>
      <trkpt lat="47.39009" lon="8.02066">
        <ele>372.5</ele>
        <time>2022-10-02T09:05:40Z</time>
      </trkpt>
      <trkpt lat="47.39013" lon="8.02069">
        <ele>372.5</ele>
        <time>2022-10-02T09:05:41Z</time>
      </trkpt>
      <trkpt lat="47.39017" lon="8.02072">
        <ele>372.4</ele>
        <time>2022-10-02T09:05:42Z</time>
      </trkpt>
      <trkpt lat="47.39022" lon="8.02076">
        <ele>372.4</ele>
        <time>2022-10-02T09:05:43Z</time>
      </trkpt>
      <trkpt lat="47.39026" lon="8.0208">
        <ele>372.4</ele>
        <time>2022-10-02T09:05:44Z</time>
      </trkpt>
      <trkpt lat="47.39031" lon="8.02081">
        <ele>372.4</ele>
        <time>2022-10-02T09:05:45Z</time>
      </trkpt>
      <trkpt lat="47.39035" lon="8.02086">
        <ele>372.4</ele>
        <time>2022-10-02T09:05:46Z</time>
      </trkpt>
      <trkpt lat="47.3904" lon="8.02091">
        <ele>372.4</ele>
        <time>2022-10-02T09:05:47Z</time>
      </trkpt>
      <trkpt lat="47.39043" lon="8.02093">
        <ele>372.4</ele>
        <time>2022-10-02T09:05:48Z</time>
      </trkpt>
      <trkpt lat="47.39047" lon="8.02097">
        <ele>372.4</ele>
        <time>2022-10-02T09:05:49Z</time>
      </trkpt>
      <trkpt lat="47.39051" lon="8.021">
        <ele>372.4</ele>
        <time>2022-10-02T09:05:50Z</time>
      </trkpt>
      <trkpt lat="47.39056" lon="8.02105">
        <ele>372.4</ele>
        <time>2022-10-02T09:05:51Z</time>
      </trkpt>
      <trkpt lat="47.39059" lon="8.02108">
        <ele>372.4</ele>
        <time>2022-10-02T09:05:52Z</time>
      </trkpt>
      <trkpt lat="47.39063" lon="8.02112">
        <ele>372.4</ele>
        <time>2022-10-02T09:05:53Z</time>
      </trkpt>
      <trkpt lat="47.39069" lon="8.02115">
        <ele>372.4</ele>
        <time>2022-10-02T09:05:54Z</time>
      </trkpt>
      <trkpt lat="47.39073" lon="8.02119">
        <ele>372.4</ele>
        <time>2022-10-02T09:05:55Z</time>
      </trkpt>
      <trkpt lat="47.39077" lon="8.02123">
        <ele>372.4</ele>
        <time>2022-10-02T09:05:56Z</time>
      </trkpt>
      <trkpt lat="47.39081" lon="8.02126">
        <ele>372.4</ele>
        <time>2022-10-02T09:05:57Z</time>
      </trkpt>
      <trkpt lat="47.39086" lon="8.02128">
        <ele>372.4</ele>
        <time>2022-10-02T09:05:58Z</time>
      </trkpt>
      <trkpt lat="47.39091" lon="8.02131">
        <ele>372.5</ele>
        <time>2022-10-02T09:05:59Z</time>
      </trkpt>
      <trkpt lat="47.39096" lon="8.02135">
        <ele>372.5</ele>
        <time>2022-10-02T09:06:00Z</time>
      </trkpt>
      <trkpt lat="47.39099" lon="8.02139">
        <ele>372.5</ele>
        <time>2022-10-02T09:06:01Z</time>
      </trkpt>
      <trkpt lat="47.39105" lon="8.02142">
        <ele>372.5</ele>
        <time>2022-10-02T09:06:02Z</time>
      </trkpt>
      <trkpt lat="47.39109" lon="8.02145">
        <ele>372.5</ele>
        <time>2022-10-02T09:06:03Z</time>
      </trkpt>
      <trkpt lat="47.39114" lon="8.02149">
        <ele>372.5</ele>
        <time>2022-10-02T09:06:04Z</time>
      </trkpt>
      <trkpt lat="47.3912" lon="8.02154">
        <ele>372.5</ele>
        <time>2022-10-02T09:06:05Z</time>
      </trkpt>
      <trkpt lat="47.39125" lon="8.02158">
        <ele>372.5</ele>
        <time>2022-10-02T09:06:06Z</time>
      </trkpt>
      <trkpt lat="47.39129" lon="8.02163">
        <ele>372.5</ele>
        <time>2022-10-02T09:06:07Z</time>
      </trkpt>
      <trkpt lat="47.39135" lon="8.02167">
        <ele>372.5</ele>
        <time>2022-10-02T09:06:08Z</time>
      </trkpt>
      <trkpt lat="47.39141" lon="8.02173">
        <ele>372.5</ele>
        <time>2022-10-02T09:06:09Z</time>
      </trkpt>
      <trkpt lat="47.39147" lon="8.02178">
        <ele>372.5</ele>
        <time>2022-10-02T09:06:10Z</time>
      </trkpt>
      <trkpt lat="47.39152" lon="8.02183">
        <ele>372.5</ele>
        <time>2022-10-02T09:06:11Z</time>
      </trkpt>
      <trkpt lat="47.39157" lon="8.02187">
        <ele>372.5</ele>
        <time>2022-10-02T09:06:12Z</time>
      </trkpt>
      <trkpt lat="47.39162" lon="8.02193">
        <ele>372.5</ele>
        <time>2022-10-02T09:06:13Z</time>
      </trkpt>
      <trkpt lat="47.39166" lon="8.02197">
        <ele>372.5</ele>
        <time>2022-10-02T09:06:14Z</time>
      </trkpt>
      <trkpt lat="47.39171" lon="8.02202">
        <ele>372.5</ele>
        <time>2022-10-02T09:06:15Z</time>
      </trkpt>
      <trkpt lat="47.39176" lon="8.02207">
        <ele>372.5</ele>
        <time>2022-10-02T09:06:16Z</time>
      </trkpt>
      <trkpt lat="47.3918" lon="8.02212">
        <ele>372.5</ele>
        <time>2022-10-02T09:06:17Z</time>
      </trkpt>
      <trkpt lat="47.39185" lon="8.02217">
        <ele>372.6</ele>
        <time>2022-10-02T09:06:18Z</time>
      </trkpt>
      <trkpt lat="47.39189" lon="8.02222">
        <ele>372.6</ele>
        <time>2022-10-02T09:06:19Z</time>
      </trkpt>
      <trkpt lat="47.39193" lon="8.02228">
        <ele>372.6</ele>
        <time>2022-10-02T09:06:20Z</time>
      </trkpt>
      <trkpt lat="47.39198" lon="8.02233">
        <ele>372.6</ele>
        <time>2022-10-02T09:06:21Z</time>
      </trkpt>
      <trkpt lat="47.39202" lon="8.02238">
        <ele>372.6</ele>
        <time>2022-10-02T09:06:22Z</time>
      </trkpt>
      <trkpt lat="47.39206" lon="8.02244">
        <ele>372.6</ele>
        <time>2022-10-02T09:06:23Z</time>
      </trkpt>
      <trkpt lat="47.39212" lon="8.02249">
        <ele>372.6</ele>
        <time>2022-10-02T09:06:24Z</time>
      </trkpt>
      <trkpt lat="47.39215" lon="8.02255">
        <ele>372.6</ele>
        <time>2022-10-02T09:06:25Z</time>
      </trkpt>
      <trkpt lat="47.39219" lon="8.02261">
        <ele>372.6</ele>
        <time>2022-10-02T09:06:26Z</time>
      </trkpt>
      <trkpt lat="47.39223" lon="8.02267">
        <ele>372.6</ele>
        <time>2022-10-02T09:06:27Z</time>
      </trkpt>
      <trkpt lat="47.39228" lon="8.02272">
        <ele>372.6</ele>
        <time>2022-10-02T09:06:28Z</time>
      </trkpt>
      <trkpt lat="47.39232" lon="8.02277">
        <ele>372.6</ele>
        <time>2022-10-02T09:06:29Z</time>
      </trkpt>
      <trkpt lat="47.39236" lon="8.02284">
        <ele>372.5</ele>
        <time>2022-10-02T09:06:31Z</time>
      </trkpt>
      <trkpt lat="47.39239" lon="8.02288">
        <ele>372.5</ele>
        <time>2022-10-02T09:06:32Z</time>
      </trkpt>
      <trkpt lat="47.39243" lon="8.02294">
        <ele>372.5</ele>
        <time>2022-10-02T09:06:33Z</time>
      </trkpt>
      <trkpt lat="47.39247" lon="8.02301">
        <ele>372.5</ele>
        <time>2022-10-02T09:06:34Z</time>
      </trkpt>
      <trkpt lat="47.39251" lon="8.02307">
        <ele>372.5</ele>
        <time>2022-10-02T09:06:35Z</time>
      </trkpt>
      <trkpt lat="47.39254" lon="8.02313">
        <ele>372.5</ele>
        <time>2022-10-02T09:06:36Z</time>
      </trkpt>
      <trkpt lat="47.39258" lon="8.02318">
        <ele>372.5</ele>
        <time>2022-10-02T09:06:37Z</time>
      </trkpt>
      <trkpt lat="47.39262" lon="8.02324">
        <ele>372.5</ele>
        <time>2022-10-02T09:06:38Z</time>
      </trkpt>
      <trkpt lat="47.39266" lon="8.02331">
        <ele>372.5</ele>
        <time>2022-10-02T09:06:39Z</time>
      </trkpt>
      <trkpt lat="47.3927" lon="8.02338">
        <ele>372.5</ele>
        <time>2022-10-02T09:06:40Z</time>
      </trkpt>
      <trkpt lat="47.39273" lon="8.02344">
        <ele>372.5</ele>
        <time>2022-10-02T09:06:41Z</time>
      </trkpt>
      <trkpt lat="47.3928" lon="8.02357">
        <ele>372.5</ele>
        <time>2022-10-02T09:06:42Z</time>
      </trkpt>
      <trkpt lat="47.39283" lon="8.02364">
        <ele>372.5</ele>
        <time>2022-10-02T09:06:43Z</time>
      </trkpt>
      <trkpt lat="47.39287" lon="8.0237">
        <ele>372.5</ele>
        <time>2022-10-02T09:06:45Z</time>
      </trkpt>
      <trkpt lat="47.39289" lon="8.02377">
        <ele>372.5</ele>
        <time>2022-10-02T09:06:46Z</time>
      </trkpt>
      <trkpt lat="47.39293" lon="8.02383">
        <ele>372.5</ele>
        <time>2022-10-02T09:06:47Z</time>
      </trkpt>
      <trkpt lat="47.39296" lon="8.02389">
        <ele>372.5</ele>
        <time>2022-10-02T09:06:48Z</time>
      </trkpt>
      <trkpt lat="47.39299" lon="8.02397">
        <ele>372.5</ele>
        <time>2022-10-02T09:06:49Z</time>
      </trkpt>
      <trkpt lat="47.39302" lon="8.02403">
        <ele>372.4</ele>
        <time>2022-10-02T09:06:50Z</time>
      </trkpt>
      <trkpt lat="47.39305" lon="8.02409">
        <ele>372.4</ele>
        <time>2022-10-02T09:06:51Z</time>
      </trkpt>
      <trkpt lat="47.39308" lon="8.02416">
        <ele>372.4</ele>
        <time>2022-10-02T09:06:52Z</time>
      </trkpt>
      <trkpt lat="47.39311" lon="8.02421">
        <ele>372.4</ele>
        <time>2022-10-02T09:06:53Z</time>
      </trkpt>
      <trkpt lat="47.39313" lon="8.02429">
        <ele>372.4</ele>
        <time>2022-10-02T09:06:54Z</time>
      </trkpt>
      <trkpt lat="47.39318" lon="8.02435">
        <ele>372.4</ele>
        <time>2022-10-02T09:06:55Z</time>
      </trkpt>
      <trkpt lat="47.3932" lon="8.02443">
        <ele>372.4</ele>
        <time>2022-10-02T09:06:56Z</time>
      </trkpt>
      <trkpt lat="47.39322" lon="8.02449">
        <ele>372.4</ele>
        <time>2022-10-02T09:06:57Z</time>
      </trkpt>
      <trkpt lat="47.39325" lon="8.02456">
        <ele>372.4</ele>
        <time>2022-10-02T09:06:58Z</time>
      </trkpt>
      <trkpt lat="47.39328" lon="8.02462">
        <ele>372.4</ele>
        <time>2022-10-02T09:06:59Z</time>
      </trkpt>
      <trkpt lat="47.39331" lon="8.02469">
        <ele>372.4</ele>
        <time>2022-10-02T09:07:00Z</time>
      </trkpt>
      <trkpt lat="47.39333" lon="8.02475">
        <ele>372.4</ele>
        <time>2022-10-02T09:07:01Z</time>
      </trkpt>
      <trkpt lat="47.39335" lon="8.02483">
        <ele>372.4</ele>
        <time>2022-10-02T09:07:02Z</time>
      </trkpt>
      <trkpt lat="47.39338" lon="8.0249">
        <ele>372.5</ele>
        <time>2022-10-02T09:07:03Z</time>
      </trkpt>
      <trkpt lat="47.3934" lon="8.02498">
        <ele>372.5</ele>
        <time>2022-10-02T09:07:04Z</time>
      </trkpt>
      <trkpt lat="47.39342" lon="8.02504">
        <ele>372.5</ele>
        <time>2022-10-02T09:07:05Z</time>
      </trkpt>
      <trkpt lat="47.39345" lon="8.02512">
        <ele>372.5</ele>
        <time>2022-10-02T09:07:06Z</time>
      </trkpt>
      <trkpt lat="47.39347" lon="8.02519">
        <ele>372.5</ele>
        <time>2022-10-02T09:07:07Z</time>
      </trkpt>
      <trkpt lat="47.39349" lon="8.02526">
        <ele>372.5</ele>
        <time>2022-10-02T09:07:08Z</time>
      </trkpt>
      <trkpt lat="47.3935" lon="8.02534">
        <ele>372.5</ele>
        <time>2022-10-02T09:07:09Z</time>
      </trkpt>
      <trkpt lat="47.39353" lon="8.0254">
        <ele>372.5</ele>
        <time>2022-10-02T09:07:10Z</time>
      </trkpt>
      <trkpt lat="47.39355" lon="8.02547">
        <ele>372.4</ele>
        <time>2022-10-02T09:07:11Z</time>
      </trkpt>
      <trkpt lat="47.39357" lon="8.02562">
        <ele>372.4</ele>
        <time>2022-10-02T09:07:12Z</time>
      </trkpt>
      <trkpt lat="47.3936" lon="8.02569">
        <ele>372.4</ele>
        <time>2022-10-02T09:07:13Z</time>
      </trkpt>
      <trkpt lat="47.39361" lon="8.02576">
        <ele>372.4</ele>
        <time>2022-10-02T09:07:14Z</time>
      </trkpt>
      <trkpt lat="47.39364" lon="8.02583">
        <ele>372.4</ele>
        <time>2022-10-02T09:07:15Z</time>
      </trkpt>
      <trkpt lat="47.39365" lon="8.02589">
        <ele>372.4</ele>
        <time>2022-10-02T09:07:16Z</time>
      </trkpt>
      <trkpt lat="47.39367" lon="8.02597">
        <ele>372.4</ele>
        <time>2022-10-02T09:07:17Z</time>
      </trkpt>
      <trkpt lat="47.39368" lon="8.02603">
        <ele>372.4</ele>
        <time>2022-10-02T09:07:18Z</time>
      </trkpt>
      <trkpt lat="47.39369" lon="8.0261">
        <ele>372.4</ele>
        <time>2022-10-02T09:07:19Z</time>
      </trkpt>
      <trkpt lat="47.3937" lon="8.02616">
        <ele>372.4</ele>
        <time>2022-10-02T09:07:20Z</time>
      </trkpt>
      <trkpt lat="47.39371" lon="8.02624">
        <ele>372.4</ele>
        <time>2022-10-02T09:07:21Z</time>
      </trkpt>
      <trkpt lat="47.39372" lon="8.02631">
        <ele>372.4</ele>
        <time>2022-10-02T09:07:22Z</time>
      </trkpt>
      <trkpt lat="47.39373" lon="8.02637">
        <ele>372.4</ele>
        <time>2022-10-02T09:07:23Z</time>
      </trkpt>
      <trkpt lat="47.39374" lon="8.02643">
        <ele>372.5</ele>
        <time>2022-10-02T09:07:24Z</time>
      </trkpt>
      <trkpt lat="47.39376" lon="8.02651">
        <ele>372.5</ele>
        <time>2022-10-02T09:07:25Z</time>
      </trkpt>
      <trkpt lat="47.39377" lon="8.02658">
        <ele>372.5</ele>
        <time>2022-10-02T09:07:26Z</time>
      </trkpt>
      <trkpt lat="47.39378" lon="8.02666">
        <ele>372.5</ele>
        <time>2022-10-02T09:07:27Z</time>
      </trkpt>
      <trkpt lat="47.3938" lon="8.02673">
        <ele>372.5</ele>
        <time>2022-10-02T09:07:28Z</time>
      </trkpt>
      <trkpt lat="47.3938" lon="8.02681">
        <ele>372.5</ele>
        <time>2022-10-02T09:07:29Z</time>
      </trkpt>
      <trkpt lat="47.39381" lon="8.02688">
        <ele>372.5</ele>
        <time>2022-10-02T09:07:30Z</time>
      </trkpt>
      <trkpt lat="47.39383" lon="8.02695">
        <ele>372.5</ele>
        <time>2022-10-02T09:07:31Z</time>
      </trkpt>
      <trkpt lat="47.39383" lon="8.02702">
        <ele>372.5</ele>
        <time>2022-10-02T09:07:32Z</time>
      </trkpt>
      <trkpt lat="47.39383" lon="8.02709">
        <ele>372.5</ele>
        <time>2022-10-02T09:07:33Z</time>
      </trkpt>
      <trkpt lat="47.39384" lon="8.02714">
        <ele>372.5</ele>
        <time>2022-10-02T09:07:34Z</time>
      </trkpt>
      <trkpt lat="47.39385" lon="8.02721">
        <ele>372.5</ele>
        <time>2022-10-02T09:07:35Z</time>
      </trkpt>
      <trkpt lat="47.39385" lon="8.02728">
        <ele>372.5</ele>
        <time>2022-10-02T09:07:36Z</time>
      </trkpt>
      <trkpt lat="47.39385" lon="8.02733">
        <ele>372.5</ele>
        <time>2022-10-02T09:07:37Z</time>
      </trkpt>
      <trkpt lat="47.39385" lon="8.02739">
        <ele>372.5</ele>
        <time>2022-10-02T09:07:38Z</time>
      </trkpt>
      <trkpt lat="47.39385" lon="8.02745">
        <ele>372.5</ele>
        <time>2022-10-02T09:07:39Z</time>
      </trkpt>
      <trkpt lat="47.39385" lon="8.02749">
        <ele>372.5</ele>
        <time>2022-10-02T09:07:40Z</time>
      </trkpt>
      <trkpt lat="47.39385" lon="8.02756">
        <ele>372.5</ele>
        <time>2022-10-02T09:07:41Z</time>
      </trkpt>
      <trkpt lat="47.39386" lon="8.02762">
        <ele>372.5</ele>
        <time>2022-10-02T09:07:42Z</time>
      </trkpt>
      <trkpt lat="47.39387" lon="8.02766">
        <ele>372.5</ele>
        <time>2022-10-02T09:07:43Z</time>
      </trkpt>
      <trkpt lat="47.39387" lon="8.02772">
        <ele>372.4</ele>
        <time>2022-10-02T09:07:44Z</time>
      </trkpt>
      <trkpt lat="47.39388" lon="8.02779">
        <ele>372.4</ele>
        <time>2022-10-02T09:07:45Z</time>
      </trkpt>
      <trkpt lat="47.39388" lon="8.02785">
        <ele>372.4</ele>
        <time>2022-10-02T09:07:46Z</time>
      </trkpt>
      <trkpt lat="47.39388" lon="8.02791">
        <ele>372.4</ele>
        <time>2022-10-02T09:07:47Z</time>
      </trkpt>
      <trkpt lat="47.39389" lon="8.02799">
        <ele>372.3</ele>
        <time>2022-10-02T09:07:48Z</time>
      </trkpt>
      <trkpt lat="47.39389" lon="8.02805">
        <ele>372.3</ele>
        <time>2022-10-02T09:07:49Z</time>
      </trkpt>
      <trkpt lat="47.39388" lon="8.02813">
        <ele>372.3</ele>
        <time>2022-10-02T09:07:50Z</time>
      </trkpt>
      <trkpt lat="47.39389" lon="8.02819">
        <ele>372.3</ele>
        <time>2022-10-02T09:07:51Z</time>
      </trkpt>
      <trkpt lat="47.3939" lon="8.02825">
        <ele>372.3</ele>
        <time>2022-10-02T09:07:52Z</time>
      </trkpt>
      <trkpt lat="47.3939" lon="8.02833">
        <ele>372.3</ele>
        <time>2022-10-02T09:07:53Z</time>
      </trkpt>
      <trkpt lat="47.3939" lon="8.02838">
        <ele>372.3</ele>
        <time>2022-10-02T09:07:54Z</time>
      </trkpt>
      <trkpt lat="47.3939" lon="8.02845">
        <ele>372.3</ele>
        <time>2022-10-02T09:07:55Z</time>
      </trkpt>
      <trkpt lat="47.3939" lon="8.02852">
        <ele>372.3</ele>
        <time>2022-10-02T09:07:56Z</time>
      </trkpt>
      <trkpt lat="47.3939" lon="8.02858">
        <ele>372.3</ele>
        <time>2022-10-02T09:07:57Z</time>
      </trkpt>
      <trkpt lat="47.39391" lon="8.02864">
        <ele>372.3</ele>
        <time>2022-10-02T09:07:58Z</time>
      </trkpt>
      <trkpt lat="47.39393" lon="8.0287">
        <ele>372.3</ele>
        <time>2022-10-02T09:07:59Z</time>
      </trkpt>
      <trkpt lat="47.39393" lon="8.02876">
        <ele>372.3</ele>
        <time>2022-10-02T09:08:00Z</time>
      </trkpt>
      <trkpt lat="47.39393" lon="8.02882">
        <ele>372.3</ele>
        <time>2022-10-02T09:08:01Z</time>
      </trkpt>
      <trkpt lat="47.39394" lon="8.02889">
        <ele>372.3</ele>
        <time>2022-10-02T09:08:02Z</time>
      </trkpt>
      <trkpt lat="47.39393" lon="8.02898">
        <ele>372.3</ele>
        <time>2022-10-02T09:08:03Z</time>
      </trkpt>
      <trkpt lat="47.39395" lon="8.02904">
        <ele>372.3</ele>
        <time>2022-10-02T09:08:04Z</time>
      </trkpt>
      <trkpt lat="47.39394" lon="8.02909">
        <ele>372.3</ele>
        <time>2022-10-02T09:08:05Z</time>
      </trkpt>
      <trkpt lat="47.39395" lon="8.02918">
        <ele>372.3</ele>
        <time>2022-10-02T09:08:06Z</time>
      </trkpt>
      <trkpt lat="47.39396" lon="8.02924">
        <ele>372.3</ele>
        <time>2022-10-02T09:08:07Z</time>
      </trkpt>
      <trkpt lat="47.39396" lon="8.02931">
        <ele>372.3</ele>
        <time>2022-10-02T09:08:08Z</time>
      </trkpt>
      <trkpt lat="47.39398" lon="8.02938">
        <ele>372.3</ele>
        <time>2022-10-02T09:08:09Z</time>
      </trkpt>
      <trkpt lat="47.39398" lon="8.02943">
        <ele>372.3</ele>
        <time>2022-10-02T09:08:10Z</time>
      </trkpt>
      <trkpt lat="47.39397" lon="8.02951">
        <ele>372.3</ele>
        <time>2022-10-02T09:08:11Z</time>
      </trkpt>
      <trkpt lat="47.39398" lon="8.02959">
        <ele>372.3</ele>
        <time>2022-10-02T09:08:12Z</time>
      </trkpt>
      <trkpt lat="47.39398" lon="8.02964">
        <ele>372.4</ele>
        <time>2022-10-02T09:08:13Z</time>
      </trkpt>
      <trkpt lat="47.39398" lon="8.02971">
        <ele>372.4</ele>
        <time>2022-10-02T09:08:14Z</time>
      </trkpt>
      <trkpt lat="47.39399" lon="8.02979">
        <ele>372.4</ele>
        <time>2022-10-02T09:08:15Z</time>
      </trkpt>
      <trkpt lat="47.39398" lon="8.02984">
        <ele>372.4</ele>
        <time>2022-10-02T09:08:16Z</time>
      </trkpt>
      <trkpt lat="47.39399" lon="8.02992">
        <ele>372.4</ele>
        <time>2022-10-02T09:08:17Z</time>
      </trkpt>
      <trkpt lat="47.39399" lon="8.02998">
        <ele>372.4</ele>
        <time>2022-10-02T09:08:18Z</time>
      </trkpt>
      <trkpt lat="47.39399" lon="8.03001">
        <ele>372.4</ele>
        <time>2022-10-02T09:08:19Z</time>
      </trkpt>
      <trkpt lat="47.39399" lon="8.03004">
        <ele>372.4</ele>
        <time>2022-10-02T09:08:20Z</time>
      </trkpt>
      <trkpt lat="47.39399" lon="8.03004">
        <ele>372.4</ele>
        <time>2022-10-02T09:08:21Z</time>
      </trkpt>
      <trkpt lat="47.394" lon="8.03005">
        <ele>372.4</ele>
        <time>2022-10-02T09:08:22Z</time>
      </trkpt>
      <trkpt lat="47.39401" lon="8.03005">
        <ele>372.4</ele>
        <time>2022-10-02T09:08:23Z</time>
      </trkpt>
      <trkpt lat="47.39401" lon="8.03006">
        <ele>372.4</ele>
        <time>2022-10-02T09:08:24Z</time>
      </trkpt>
      <trkpt lat="47.39401" lon="8.03007">
        <ele>372.4</ele>
        <time>2022-10-02T09:08:25Z</time>
      </trkpt>
      <trkpt lat="47.39401" lon="8.03009">
        <ele>372.4</ele>
        <time>2022-10-02T09:08:26Z</time>
      </trkpt>
      <trkpt lat="47.39401" lon="8.03009">
        <ele>372.4</ele>
        <time>2022-10-02T09:08:27Z</time>
      </trkpt>
      <trkpt lat="47.39401" lon="8.03011">
        <ele>372.4</ele>
        <time>2022-10-02T09:08:28Z</time>
      </trkpt>
      <trkpt lat="47.39402" lon="8.03012">
        <ele>372.4</ele>
        <time>2022-10-02T09:08:29Z</time>
      </trkpt>
      <trkpt lat="47.39402" lon="8.03013">
        <ele>372.4</ele>
        <time>2022-10-02T09:08:30Z</time>
      </trkpt>
      <trkpt lat="47.39402" lon="8.03015">
        <ele>372.4</ele>
        <time>2022-10-02T09:09:50Z</time>
      </trkpt>
      <trkpt lat="47.39403" lon="8.03016">
        <ele>372.4</ele>
        <time>2022-10-02T09:09:51Z</time>
      </trkpt>
      <trkpt lat="47.39403" lon="8.03017">
        <ele>372.4</ele>
        <time>2022-10-02T09:09:52Z</time>
      </trkpt>
      <trkpt lat="47.39403" lon="8.03018">
        <ele>372.4</ele>
        <time>2022-10-02T09:09:53Z</time>
      </trkpt>
      <trkpt lat="47.39404" lon="8.03019">
        <ele>372.4</ele>
        <time>2022-10-02T09:09:54Z</time>
      </trkpt>
      <trkpt lat="47.39404" lon="8.0302">
        <ele>372.4</ele>
        <time>2022-10-02T09:09:55Z</time>
      </trkpt>
      <trkpt lat="47.39403" lon="8.0302">
        <ele>372.4</ele>
        <time>2022-10-02T09:09:56Z</time>
      </trkpt>
      <trkpt lat="47.39403" lon="8.03018">
        <ele>372.4</ele>
        <time>2022-10-02T09:09:57Z</time>
      </trkpt>
      <trkpt lat="47.39402" lon="8.03019">
        <ele>372.4</ele>
        <time>2022-10-02T09:09:58Z</time>
      </trkpt>
      <trkpt lat="47.39402" lon="8.03019">
        <ele>372.4</ele>
        <time>2022-10-02T09:09:59Z</time>
      </trkpt>
      <trkpt lat="47.39401" lon="8.03017">
        <ele>372.4</ele>
        <time>2022-10-02T09:10:00Z</time>
      </trkpt>
      <trkpt lat="47.39401" lon="8.03017">
        <ele>372.4</ele>
        <time>2022-10-02T09:10:01Z</time>
      </trkpt>
      <trkpt lat="47.39401" lon="8.03018">
        <ele>372.4</ele>
        <time>2022-10-02T09:10:02Z</time>
      </trkpt>
      <trkpt lat="47.39401" lon="8.03018">
        <ele>372.4</ele>
        <time>2022-10-02T09:10:03Z</time>
      </trkpt>
      <trkpt lat="47.39401" lon="8.03018">
        <ele>372.4</ele>
        <time>2022-10-02T09:10:04Z</time>
      </trkpt>
      <trkpt lat="47.39401" lon="8.03018">
        <ele>372.4</ele>
        <time>2022-10-02T09:10:05Z</time>
      </trkpt>
      <trkpt lat="47.39401" lon="8.03019">
        <ele>372.4</ele>
        <time>2022-10-02T09:10:06Z</time>
      </trkpt>
      <trkpt lat="47.39401" lon="8.03019">
        <ele>372.4</ele>
        <time>2022-10-02T09:10:07Z</time>
      </trkpt>
      <trkpt lat="47.39401" lon="8.03019">
        <ele>372.4</ele>
        <time>2022-10-02T09:10:08Z</time>
      </trkpt>
      <trkpt lat="47.39401" lon="8.03019">
        <ele>372.4</ele>
        <time>2022-10-02T09:17:34Z</time>
      </trkpt>
      <trkpt lat="47.39401" lon="8.0302">
        <ele>372.4</ele>
        <time>2022-10-02T09:17:35Z</time>
      </trkpt>
      <trkpt lat="47.39401" lon="8.0302">
        <ele>372.4</ele>
        <time>2022-10-02T09:17:36Z</time>
      </trkpt>
      <trkpt lat="47.39401" lon="8.0302">
        <ele>372.4</ele>
        <time>2022-10-02T09:17:37Z</time>
      </trkpt>
      <trkpt lat="47.39401" lon="8.0302">
        <ele>372.4</ele>
        <time>2022-10-02T09:17:38Z</time>
      </trkpt>
      <trkpt lat="47.39401" lon="8.03021">
        <ele>372.4</ele>
        <time>2022-10-02T09:17:39Z</time>
      </trkpt>
      <trkpt lat="47.39401" lon="8.03021">
        <ele>372.4</ele>
        <time>2022-10-02T09:17:40Z</time>
      </trkpt>
      <trkpt lat="47.39401" lon="8.03021">
        <ele>372.4</ele>
        <time>2022-10-02T09:17:41Z</time>
      </trkpt>
      <trkpt lat="47.39401" lon="8.03022">
        <ele>372.4</ele>
        <time>2022-10-02T09:17:42Z</time>
      </trkpt>
      <trkpt lat="47.39401" lon="8.03022">
        <ele>372.4</ele>
        <time>2022-10-02T09:17:43Z</time>
      </trkpt>
      <trkpt lat="47.39401" lon="8.03022">
        <ele>372.4</ele>
        <time>2022-10-02T09:20:06Z</time>
      </trkpt>
      <trkpt lat="47.39401" lon="8.03022">
        <ele>372.4</ele>
        <time>2022-10-02T09:20:07Z</time>
      </trkpt>
      <trkpt lat="47.39401" lon="8.03023">
        <ele>372.4</ele>
        <time>2022-10-02T09:20:08Z</time>
      </trkpt>
      <trkpt lat="47.39401" lon="8.03023">
        <ele>372.4</ele>
        <time>2022-10-02T09:20:09Z</time>
      </trkpt>
      <trkpt lat="47.39401" lon="8.03023">
        <ele>372.4</ele>
        <time>2022-10-02T09:20:10Z</time>
      </trkpt>
      <trkpt lat="47.39401" lon="8.03023">
        <ele>372.4</ele>
        <time>2022-10-02T09:20:11Z</time>
      </trkpt>
      <trkpt lat="47.39401" lon="8.03024">
        <ele>372.4</ele>
        <time>2022-10-02T09:20:12Z</time>
      </trkpt>
      <trkpt lat="47.39401" lon="8.03024">
        <ele>372.4</ele>
        <time>2022-10-02T09:20:13Z</time>
      </trkpt>
      <trkpt lat="47.39401" lon="8.03024">
        <ele>372.4</ele>
        <time>2022-10-02T09:20:14Z</time>
      </trkpt>
      <trkpt lat="47.39401" lon="8.03024">
        <ele>372.4</ele>
        <time>2022-10-02T09:20:15Z</time>
      </trkpt>
      <trkpt lat="47.39401" lon="8.03025">
        <ele>372.4</ele>
        <time>2022-10-02T09:20:16Z</time>
      </trkpt>
      <trkpt lat="47.39401" lon="8.03025">
        <ele>372.4</ele>
        <time>2022-10-02T09:20:17Z</time>
      </trkpt>
      <trkpt lat="47.39401" lon="8.03025">
        <ele>372.4</ele>
        <time>2022-10-02T09:20:18Z</time>
      </trkpt>
      <trkpt lat="47.39401" lon="8.03025">
        <ele>372.4</ele>
        <time>2022-10-02T09:20:19Z</time>
      </trkpt>
      <trkpt lat="47.39401" lon="8.03026">
        <ele>372.4</ele>
        <time>2022-10-02T09:20:20Z</time>
      </trkpt>
      <trkpt lat="47.39402" lon="8.03026">
        <ele>372.4</ele>
        <time>2022-10-02T09:20:21Z</time>
      </trkpt>
      <trkpt lat="47.39402" lon="8.03026">
        <ele>372.4</ele>
        <time>2022-10-02T09:20:22Z</time>
      </trkpt>
      <trkpt lat="47.39402" lon="8.03026">
        <ele>372.4</ele>
        <time>2022-10-02T09:20:23Z</time>
      </trkpt>
      <trkpt lat="47.39402" lon="8.03027">
        <ele>372.4</ele>
        <time>2022-10-02T09:20:44Z</time>
      </trkpt>
      <trkpt lat="47.39402" lon="8.03027">
        <ele>372.4</ele>
        <time>2022-10-02T09:20:45Z</time>
      </trkpt>
      <trkpt lat="47.39402" lon="8.03027">
        <ele>372.4</ele>
        <time>2022-10-02T09:20:46Z</time>
      </trkpt>
      <trkpt lat="47.39402" lon="8.03027">
        <ele>372.4</ele>
        <time>2022-10-02T09:20:47Z</time>
      </trkpt>
      <trkpt lat="47.39402" lon="8.03028">
        <ele>372.4</ele>
        <time>2022-10-02T09:20:48Z</time>
      </trkpt>
      <trkpt lat="47.39402" lon="8.03028">
        <ele>372.4</ele>
        <time>2022-10-02T09:20:49Z</time>
      </trkpt>
      <trkpt lat="47.39402" lon="8.03028">
        <ele>372.4</ele>
        <time>2022-10-02T09:20:50Z</time>
      </trkpt>
      <trkpt lat="47.39402" lon="8.03029">
        <ele>372.4</ele>
        <time>2022-10-02T09:20:51Z</time>
      </trkpt>
      <trkpt lat="47.39402" lon="8.03029">
        <ele>372.4</ele>
        <time>2022-10-02T09:20:52Z</time>
      </trkpt>
      <trkpt lat="47.39402" lon="8.03029">
        <ele>372.4</ele>
        <time>2022-10-02T09:20:53Z</time>
      </trkpt>
      <trkpt lat="47.39402" lon="8.03029">
        <ele>372.4</ele>
        <time>2022-10-02T09:20:54Z</time>
      </trkpt>
      <trkpt lat="47.39402" lon="8.0303">
        <ele>372.4</ele>
        <time>2022-10-02T09:20:55Z</time>
      </trkpt>
      <trkpt lat="47.39402" lon="8.0303">
        <ele>372.4</ele>
        <time>2022-10-02T09:20:56Z</time>
      </trkpt>
      <trkpt lat="47.39402" lon="8.0303">
        <ele>372.4</ele>
        <time>2022-10-02T09:20:57Z</time>
      </trkpt>
      <trkpt lat="47.39402" lon="8.0303">
        <ele>372.4</ele>
        <time>2022-10-02T09:20:58Z</time>
      </trkpt>
      <trkpt lat="47.39402" lon="8.03031">
        <ele>372.4</ele>
        <time>2022-10-02T09:49:30Z</time>
      </trkpt>
      <trkpt lat="47.39402" lon="8.03031">
        <ele>372.4</ele>
        <time>2022-10-02T09:49:31Z</time>
      </trkpt>
      <trkpt lat="47.39402" lon="8.03031">
        <ele>372.4</ele>
        <time>2022-10-02T09:49:32Z</time>
      </trkpt>
      <trkpt lat="47.39402" lon="8.03031">
        <ele>372.4</ele>
        <time>2022-10-02T09:49:33Z</time>
      </trkpt>
      <trkpt lat="47.39402" lon="8.03032">
        <ele>372.4</ele>
        <time>2022-10-02T09:49:34Z</time>
      </trkpt>
      <trkpt lat="47.39402" lon="8.03032">
        <ele>372.4</ele>
        <time>2022-10-02T09:49:35Z</time>
      </trkpt>
      <trkpt lat="47.39402" lon="8.03032">
        <ele>372.4</ele>
        <time>2022-10-02T09:49:36Z</time>
      </trkpt>
      <trkpt lat="47.39402" lon="8.03032">
        <ele>372.4</ele>
        <time>2022-10-02T09:49:37Z</time>
      </trkpt>
      <trkpt lat="47.39402" lon="8.03033">
        <ele>372.4</ele>
        <time>2022-10-02T09:49:38Z</time>
      </trkpt>
      <trkpt lat="47.39402" lon="8.03033">
        <ele>372.4</ele>
        <time>2022-10-02T09:49:39Z</time>
      </trkpt>
      <trkpt lat="47.39402" lon="8.03033">
        <ele>372.4</ele>
        <time>2022-10-02T09:53:56Z</time>
      </trkpt>
      <trkpt lat="47.39402" lon="8.03033">
        <ele>372.4</ele>
        <time>2022-10-02T09:53:57Z</time>
      </trkpt>
      <trkpt lat="47.39401" lon="8.03039">
        <ele>372.4</ele>
        <time>2022-10-02T09:53:58Z</time>
      </trkpt>
      <trkpt lat="47.39401" lon="8.03041">
        <ele>372.4</ele>
        <time>2022-10-02T09:53:59Z</time>
      </trkpt>
      <trkpt lat="47.394" lon="8.03047">
        <ele>372.3</ele>
        <time>2022-10-02T09:54:00Z</time>
      </trkpt>
      <trkpt lat="47.394" lon="8.0305">
        <ele>372.3</ele>
        <time>2022-10-02T09:54:01Z</time>
      </trkpt>
      <trkpt lat="47.39399" lon="8.03054">
        <ele>372.3</ele>
        <time>2022-10-02T09:54:02Z</time>
      </trkpt>
      <trkpt lat="47.39399" lon="8.03059">
        <ele>372.3</ele>
        <time>2022-10-02T09:54:03Z</time>
      </trkpt>
      <trkpt lat="47.39399" lon="8.03064">
        <ele>372.3</ele>
        <time>2022-10-02T09:54:04Z</time>
      </trkpt>
      <trkpt lat="47.39399" lon="8.03069">
        <ele>372.3</ele>
        <time>2022-10-02T09:54:05Z</time>
      </trkpt>
      <trkpt lat="47.394" lon="8.03075">
        <ele>372.3</ele>
        <time>2022-10-02T09:54:06Z</time>
      </trkpt>
      <trkpt lat="47.394" lon="8.03077">
        <ele>372.3</ele>
        <time>2022-10-02T09:54:07Z</time>
      </trkpt>
      <trkpt lat="47.39401" lon="8.03083">
        <ele>372.3</ele>
        <time>2022-10-02T09:54:08Z</time>
      </trkpt>
      <trkpt lat="47.39401" lon="8.03089">
        <ele>372.3</ele>
        <time>2022-10-02T09:54:09Z</time>
      </trkpt>
      <trkpt lat="47.39402" lon="8.03095">
        <ele>372.3</ele>
        <time>2022-10-02T09:54:10Z</time>
      </trkpt>
      <trkpt lat="47.39402" lon="8.031">
        <ele>372.3</ele>
        <time>2022-10-02T09:54:11Z</time>
      </trkpt>
      <trkpt lat="47.39402" lon="8.03106">
        <ele>372.3</ele>
        <time>2022-10-02T09:54:12Z</time>
      </trkpt>
      <trkpt lat="47.39402" lon="8.03113">
        <ele>372.3</ele>
        <time>2022-10-02T09:54:13Z</time>
      </trkpt>
      <trkpt lat="47.39403" lon="8.03121">
        <ele>372.3</ele>
        <time>2022-10-02T09:54:14Z</time>
      </trkpt>
      <trkpt lat="47.39403" lon="8.03127">
        <ele>372.3</ele>
        <time>2022-10-02T09:54:15Z</time>
      </trkpt>
      <trkpt lat="47.39403" lon="8.03133">
        <ele>372.3</ele>
        <time>2022-10-02T09:54:16Z</time>
      </trkpt>
      <trkpt lat="47.39403" lon="8.0314">
        <ele>372.3</ele>
        <time>2022-10-02T09:54:17Z</time>
      </trkpt>
      <trkpt lat="47.39403" lon="8.03147">
        <ele>372.3</ele>
        <time>2022-10-02T09:54:18Z</time>
      </trkpt>
      <trkpt lat="47.39404" lon="8.03153">
        <ele>372.3</ele>
        <time>2022-10-02T09:54:19Z</time>
      </trkpt>
      <trkpt lat="47.39404" lon="8.03159">
        <ele>372.3</ele>
        <time>2022-10-02T09:54:20Z</time>
      </trkpt>
      <trkpt lat="47.39405" lon="8.03165">
        <ele>372.3</ele>
        <time>2022-10-02T09:54:21Z</time>
      </trkpt>
      <trkpt lat="47.39405" lon="8.03171">
        <ele>372.3</ele>
        <time>2022-10-02T09:54:22Z</time>
      </trkpt>
      <trkpt lat="47.39405" lon="8.03177">
        <ele>372.4</ele>
        <time>2022-10-02T09:54:23Z</time>
      </trkpt>
      <trkpt lat="47.39405" lon="8.03182">
        <ele>372.4</ele>
        <time>2022-10-02T09:54:24Z</time>
      </trkpt>
      <trkpt lat="47.39405" lon="8.03188">
        <ele>372.4</ele>
        <time>2022-10-02T09:54:25Z</time>
      </trkpt>
      <trkpt lat="47.39405" lon="8.03195">
        <ele>372.4</ele>
        <time>2022-10-02T09:54:26Z</time>
      </trkpt>
      <trkpt lat="47.39405" lon="8.032">
        <ele>372.4</ele>
        <time>2022-10-02T09:54:27Z</time>
      </trkpt>
      <trkpt lat="47.39405" lon="8.03203">
        <ele>372.5</ele>
        <time>2022-10-02T09:54:28Z</time>
      </trkpt>
      <trkpt lat="47.39407" lon="8.03209">
        <ele>372.5</ele>
        <time>2022-10-02T09:54:29Z</time>
      </trkpt>
      <trkpt lat="47.39407" lon="8.03216">
        <ele>372.5</ele>
        <time>2022-10-02T09:54:30Z</time>
      </trkpt>
      <trkpt lat="47.39407" lon="8.03222">
        <ele>372.6</ele>
        <time>2022-10-02T09:54:31Z</time>
      </trkpt>
      <trkpt lat="47.39407" lon="8.03228">
        <ele>372.6</ele>
        <time>2022-10-02T09:54:32Z</time>
      </trkpt>
      <trkpt lat="47.39407" lon="8.03233">
        <ele>372.6</ele>
        <time>2022-10-02T09:54:33Z</time>
      </trkpt>
      <trkpt lat="47.39408" lon="8.03241">
        <ele>372.6</ele>
        <time>2022-10-02T09:54:34Z</time>
      </trkpt>
      <trkpt lat="47.39408" lon="8.03248">
        <ele>372.6</ele>
        <time>2022-10-02T09:54:35Z</time>
      </trkpt>
      <trkpt lat="47.39409" lon="8.03253">
        <ele>372.6</ele>
        <time>2022-10-02T09:54:36Z</time>
      </trkpt>
      <trkpt lat="47.39411" lon="8.03261">
        <ele>372.7</ele>
        <time>2022-10-02T09:54:37Z</time>
      </trkpt>
      <trkpt lat="47.3941" lon="8.03269">
        <ele>372.7</ele>
        <time>2022-10-02T09:54:38Z</time>
      </trkpt>
      <trkpt lat="47.39411" lon="8.03277">
        <ele>372.7</ele>
        <time>2022-10-02T09:54:39Z</time>
      </trkpt>
      <trkpt lat="47.39411" lon="8.03283">
        <ele>372.7</ele>
        <time>2022-10-02T09:54:40Z</time>
      </trkpt>
      <trkpt lat="47.39412" lon="8.0329">
        <ele>372.8</ele>
        <time>2022-10-02T09:54:41Z</time>
      </trkpt>
      <trkpt lat="47.39412" lon="8.03298">
        <ele>372.8</ele>
        <time>2022-10-02T09:54:42Z</time>
      </trkpt>
      <trkpt lat="47.39412" lon="8.03306">
        <ele>372.8</ele>
        <time>2022-10-02T09:54:43Z</time>
      </trkpt>
      <trkpt lat="47.39411" lon="8.03312">
        <ele>372.8</ele>
        <time>2022-10-02T09:54:44Z</time>
      </trkpt>
      <trkpt lat="47.39411" lon="8.03317">
        <ele>372.8</ele>
        <time>2022-10-02T09:54:45Z</time>
      </trkpt>
      <trkpt lat="47.39411" lon="8.03325">
        <ele>372.8</ele>
        <time>2022-10-02T09:54:46Z</time>
      </trkpt>
      <trkpt lat="47.39412" lon="8.03329">
        <ele>372.8</ele>
        <time>2022-10-02T09:54:47Z</time>
      </trkpt>
      <trkpt lat="47.39412" lon="8.03337">
        <ele>372.8</ele>
        <time>2022-10-02T09:54:48Z</time>
      </trkpt>
      <trkpt lat="47.39412" lon="8.03345">
        <ele>372.8</ele>
        <time>2022-10-02T09:54:49Z</time>
      </trkpt>
      <trkpt lat="47.39411" lon="8.03352">
        <ele>372.8</ele>
        <time>2022-10-02T09:54:50Z</time>
      </trkpt>
      <trkpt lat="47.3941" lon="8.0336">
        <ele>372.9</ele>
        <time>2022-10-02T09:54:51Z</time>
      </trkpt>
      <trkpt lat="47.39411" lon="8.03365">
        <ele>372.9</ele>
        <time>2022-10-02T09:54:52Z</time>
      </trkpt>
      <trkpt lat="47.39412" lon="8.03373">
        <ele>372.9</ele>
        <time>2022-10-02T09:54:53Z</time>
      </trkpt>
      <trkpt lat="47.39412" lon="8.03381">
        <ele>372.9</ele>
        <time>2022-10-02T09:54:54Z</time>
      </trkpt>
      <trkpt lat="47.39413" lon="8.03388">
        <ele>372.8</ele>
        <time>2022-10-02T09:54:55Z</time>
      </trkpt>
      <trkpt lat="47.39413" lon="8.03397">
        <ele>372.8</ele>
        <time>2022-10-02T09:54:56Z</time>
      </trkpt>
      <trkpt lat="47.39414" lon="8.03405">
        <ele>372.8</ele>
        <time>2022-10-02T09:54:57Z</time>
      </trkpt>
      <trkpt lat="47.39414" lon="8.03412">
        <ele>372.8</ele>
        <time>2022-10-02T09:54:58Z</time>
      </trkpt>
      <trkpt lat="47.39414" lon="8.03419">
        <ele>372.8</ele>
        <time>2022-10-02T09:54:59Z</time>
      </trkpt>
      <trkpt lat="47.39416" lon="8.0343">
        <ele>372.7</ele>
        <time>2022-10-02T09:55:00Z</time>
      </trkpt>
      <trkpt lat="47.39418" lon="8.03437">
        <ele>372.7</ele>
        <time>2022-10-02T09:55:01Z</time>
      </trkpt>
      <trkpt lat="47.39419" lon="8.03446">
        <ele>372.6</ele>
        <time>2022-10-02T09:55:02Z</time>
      </trkpt>
      <trkpt lat="47.3942" lon="8.03454">
        <ele>372.6</ele>
        <time>2022-10-02T09:55:03Z</time>
      </trkpt>
      <trkpt lat="47.39421" lon="8.03464">
        <ele>372.6</ele>
        <time>2022-10-02T09:55:04Z</time>
      </trkpt>
      <trkpt lat="47.39423" lon="8.03471">
        <ele>372.6</ele>
        <time>2022-10-02T09:55:05Z</time>
      </trkpt>
      <trkpt lat="47.39424" lon="8.03479">
        <ele>372.5</ele>
        <time>2022-10-02T09:55:06Z</time>
      </trkpt>
      <trkpt lat="47.39424" lon="8.03485">
        <ele>372.5</ele>
        <time>2022-10-02T09:55:07Z</time>
      </trkpt>
      <trkpt lat="47.39425" lon="8.03491">
        <ele>372.4</ele>
        <time>2022-10-02T09:55:08Z</time>
      </trkpt>
      <trkpt lat="47.39426" lon="8.03496">
        <ele>372.3</ele>
        <time>2022-10-02T09:55:09Z</time>
      </trkpt>
      <trkpt lat="47.3943" lon="8.035">
        <ele>372.4</ele>
        <time>2022-10-02T09:55:11Z</time>
      </trkpt>
      <trkpt lat="47.39431" lon="8.03501">
        <ele>372.4</ele>
        <time>2022-10-02T09:55:12Z</time>
      </trkpt>
      <trkpt lat="47.39434" lon="8.03503">
        <ele>372.5</ele>
        <time>2022-10-02T09:55:13Z</time>
      </trkpt>
      <trkpt lat="47.3944" lon="8.03505">
        <ele>372.5</ele>
        <time>2022-10-02T09:55:14Z</time>
      </trkpt>
      <trkpt lat="47.39444" lon="8.03506">
        <ele>372.6</ele>
        <time>2022-10-02T09:55:15Z</time>
      </trkpt>
      <trkpt lat="47.39451" lon="8.03506">
        <ele>372.6</ele>
        <time>2022-10-02T09:55:17Z</time>
      </trkpt>
      <trkpt lat="47.39454" lon="8.03506">
        <ele>372.6</ele>
        <time>2022-10-02T09:55:18Z</time>
      </trkpt>
      <trkpt lat="47.39459" lon="8.03505">
        <ele>372.6</ele>
        <time>2022-10-02T09:55:19Z</time>
      </trkpt>
      <trkpt lat="47.39463" lon="8.03505">
        <ele>372.6</ele>
        <time>2022-10-02T09:55:20Z</time>
      </trkpt>
      <trkpt lat="47.39466" lon="8.03504">
        <ele>372.6</ele>
        <time>2022-10-02T09:55:21Z</time>
      </trkpt>
      <trkpt lat="47.39471" lon="8.03505">
        <ele>372.6</ele>
        <time>2022-10-02T09:55:23Z</time>
      </trkpt>
      <trkpt lat="47.3948" lon="8.03505">
        <ele>372.7</ele>
        <time>2022-10-02T09:55:24Z</time>
      </trkpt>
      <trkpt lat="47.39486" lon="8.03503">
        <ele>372.8</ele>
        <time>2022-10-02T09:55:25Z</time>
      </trkpt>
      <trkpt lat="47.3949" lon="8.03502">
        <ele>372.8</ele>
        <time>2022-10-02T09:55:26Z</time>
      </trkpt>
      <trkpt lat="47.39494" lon="8.03502">
        <ele>372.8</ele>
        <time>2022-10-02T09:55:27Z</time>
      </trkpt>
      <trkpt lat="47.39498" lon="8.03501">
        <ele>372.9</ele>
        <time>2022-10-02T09:55:29Z</time>
      </trkpt>
      <trkpt lat="47.39502" lon="8.03501">
        <ele>372.9</ele>
        <time>2022-10-02T09:55:30Z</time>
      </trkpt>
      <trkpt lat="47.39507" lon="8.035">
        <ele>372.9</ele>
        <time>2022-10-02T09:55:31Z</time>
      </trkpt>
      <trkpt lat="47.39511" lon="8.035">
        <ele>372.8</ele>
        <time>2022-10-02T09:55:32Z</time>
      </trkpt>
      <trkpt lat="47.39516" lon="8.035">
        <ele>372.8</ele>
        <time>2022-10-02T09:55:33Z</time>
      </trkpt>
      <trkpt lat="47.39519" lon="8.03501">
        <ele>372.8</ele>
        <time>2022-10-02T09:55:34Z</time>
      </trkpt>
      <trkpt lat="47.39524" lon="8.03502">
        <ele>372.8</ele>
        <time>2022-10-02T09:55:35Z</time>
      </trkpt>
      <trkpt lat="47.39526" lon="8.03504">
        <ele>372.7</ele>
        <time>2022-10-02T09:55:36Z</time>
      </trkpt>
      <trkpt lat="47.39531" lon="8.03506">
        <ele>372.7</ele>
        <time>2022-10-02T09:55:37Z</time>
      </trkpt>
      <trkpt lat="47.39536" lon="8.03509">
        <ele>372.6</ele>
        <time>2022-10-02T09:55:38Z</time>
      </trkpt>
      <trkpt lat="47.39539" lon="8.03513">
        <ele>372.6</ele>
        <time>2022-10-02T09:55:39Z</time>
      </trkpt>
      <trkpt lat="47.39541" lon="8.03517">
        <ele>372.6</ele>
        <time>2022-10-02T09:55:40Z</time>
      </trkpt>
      <trkpt lat="47.39544" lon="8.03523">
        <ele>372.5</ele>
        <time>2022-10-02T09:55:41Z</time>
      </trkpt>
      <trkpt lat="47.39545" lon="8.03527">
        <ele>372.5</ele>
        <time>2022-10-02T09:55:42Z</time>
      </trkpt>
      <trkpt lat="47.39547" lon="8.03533">
        <ele>372.5</ele>
        <time>2022-10-02T09:55:43Z</time>
      </trkpt>
      <trkpt lat="47.39547" lon="8.03539">
        <ele>372.4</ele>
        <time>2022-10-02T09:55:44Z</time>
      </trkpt>
      <trkpt lat="47.39548" lon="8.03546">
        <ele>372.4</ele>
        <time>2022-10-02T09:55:45Z</time>
      </trkpt>
      <trkpt lat="47.39548" lon="8.03554">
        <ele>372.3</ele>
        <time>2022-10-02T09:55:46Z</time>
      </trkpt>
      <trkpt lat="47.39549" lon="8.03561">
        <ele>372.3</ele>
        <time>2022-10-02T09:55:47Z</time>
      </trkpt>
      <trkpt lat="47.39549" lon="8.03567">
        <ele>372.2</ele>
        <time>2022-10-02T09:55:48Z</time>
      </trkpt>
      <trkpt lat="47.39549" lon="8.03575">
        <ele>372.2</ele>
        <time>2022-10-02T09:55:49Z</time>
      </trkpt>
      <trkpt lat="47.3955" lon="8.03583">
        <ele>372.1</ele>
        <time>2022-10-02T09:55:50Z</time>
      </trkpt>
      <trkpt lat="47.39552" lon="8.03589">
        <ele>372</ele>
        <time>2022-10-02T09:55:51Z</time>
      </trkpt>
      <trkpt lat="47.39553" lon="8.03598">
        <ele>371.9</ele>
        <time>2022-10-02T09:55:52Z</time>
      </trkpt>
      <trkpt lat="47.39555" lon="8.03607">
        <ele>371.8</ele>
        <time>2022-10-02T09:55:53Z</time>
      </trkpt>
      <trkpt lat="47.39556" lon="8.03616">
        <ele>371.6</ele>
        <time>2022-10-02T09:55:54Z</time>
      </trkpt>
      <trkpt lat="47.39559" lon="8.03625">
        <ele>371.5</ele>
        <time>2022-10-02T09:55:55Z</time>
      </trkpt>
      <trkpt lat="47.3956" lon="8.03634">
        <ele>371.3</ele>
        <time>2022-10-02T09:55:56Z</time>
      </trkpt>
      <trkpt lat="47.39562" lon="8.03642">
        <ele>371.1</ele>
        <time>2022-10-02T09:55:57Z</time>
      </trkpt>
      <trkpt lat="47.39564" lon="8.0365">
        <ele>371</ele>
        <time>2022-10-02T09:55:58Z</time>
      </trkpt>
      <trkpt lat="47.39565" lon="8.03658">
        <ele>370.9</ele>
        <time>2022-10-02T09:55:59Z</time>
      </trkpt>
      <trkpt lat="47.39566" lon="8.03665">
        <ele>370.8</ele>
        <time>2022-10-02T09:56:00Z</time>
      </trkpt>
      <trkpt lat="47.39567" lon="8.03673">
        <ele>370.7</ele>
        <time>2022-10-02T09:56:01Z</time>
      </trkpt>
      <trkpt lat="47.39569" lon="8.03681">
        <ele>370.5</ele>
        <time>2022-10-02T09:56:02Z</time>
      </trkpt>
      <trkpt lat="47.39571" lon="8.03689">
        <ele>370.3</ele>
        <time>2022-10-02T09:56:03Z</time>
      </trkpt>
      <trkpt lat="47.39572" lon="8.03695">
        <ele>370.3</ele>
        <time>2022-10-02T09:56:04Z</time>
      </trkpt>
      <trkpt lat="47.39573" lon="8.03701">
        <ele>370.2</ele>
        <time>2022-10-02T09:56:05Z</time>
      </trkpt>
      <trkpt lat="47.39575" lon="8.03705">
        <ele>370.2</ele>
        <time>2022-10-02T09:56:06Z</time>
      </trkpt>
      <trkpt lat="47.39574" lon="8.0371">
        <ele>370.2</ele>
        <time>2022-10-02T09:56:07Z</time>
      </trkpt>
      <trkpt lat="47.39573" lon="8.03715">
        <ele>369.9</ele>
        <time>2022-10-02T09:56:08Z</time>
      </trkpt>
      <trkpt lat="47.39569" lon="8.03725">
        <ele>369.7</ele>
        <time>2022-10-02T09:56:09Z</time>
      </trkpt>
      <trkpt lat="47.39568" lon="8.03731">
        <ele>369.6</ele>
        <time>2022-10-02T09:56:10Z</time>
      </trkpt>
      <trkpt lat="47.39567" lon="8.03736">
        <ele>369.5</ele>
        <time>2022-10-02T09:56:11Z</time>
      </trkpt>
      <trkpt lat="47.39565" lon="8.03742">
        <ele>369.4</ele>
        <time>2022-10-02T09:56:12Z</time>
      </trkpt>
      <trkpt lat="47.39564" lon="8.03747">
        <ele>369.3</ele>
        <time>2022-10-02T09:56:13Z</time>
      </trkpt>
      <trkpt lat="47.39563" lon="8.03752">
        <ele>369.2</ele>
        <time>2022-10-02T09:56:14Z</time>
      </trkpt>
      <trkpt lat="47.39561" lon="8.0376">
        <ele>369.1</ele>
        <time>2022-10-02T09:56:15Z</time>
      </trkpt>
      <trkpt lat="47.3956" lon="8.03767">
        <ele>369</ele>
        <time>2022-10-02T09:56:16Z</time>
      </trkpt>
      <trkpt lat="47.39558" lon="8.03774">
        <ele>368.9</ele>
        <time>2022-10-02T09:56:17Z</time>
      </trkpt>
      <trkpt lat="47.39556" lon="8.03781">
        <ele>368.8</ele>
        <time>2022-10-02T09:56:18Z</time>
      </trkpt>
      <trkpt lat="47.39555" lon="8.03787">
        <ele>368.8</ele>
        <time>2022-10-02T09:56:19Z</time>
      </trkpt>
      <trkpt lat="47.39555" lon="8.03796">
        <ele>368.7</ele>
        <time>2022-10-02T09:56:20Z</time>
      </trkpt>
      <trkpt lat="47.39554" lon="8.03804">
        <ele>368.6</ele>
        <time>2022-10-02T09:56:21Z</time>
      </trkpt>
      <trkpt lat="47.39554" lon="8.03813">
        <ele>368.5</ele>
        <time>2022-10-02T09:56:22Z</time>
      </trkpt>
      <trkpt lat="47.39553" lon="8.03821">
        <ele>368.5</ele>
        <time>2022-10-02T09:56:23Z</time>
      </trkpt>
      <trkpt lat="47.39553" lon="8.03828">
        <ele>368.4</ele>
        <time>2022-10-02T09:56:24Z</time>
      </trkpt>
      <trkpt lat="47.39553" lon="8.03836">
        <ele>368.4</ele>
        <time>2022-10-02T09:56:25Z</time>
      </trkpt>
      <trkpt lat="47.39554" lon="8.03844">
        <ele>368.4</ele>
        <time>2022-10-02T09:56:26Z</time>
      </trkpt>
      <trkpt lat="47.39556" lon="8.03849">
        <ele>368.4</ele>
        <time>2022-10-02T09:56:27Z</time>
      </trkpt>
      <trkpt lat="47.39555" lon="8.03857">
        <ele>368.4</ele>
        <time>2022-10-02T09:56:28Z</time>
      </trkpt>
      <trkpt lat="47.39554" lon="8.03864">
        <ele>368.4</ele>
        <time>2022-10-02T09:56:29Z</time>
      </trkpt>
      <trkpt lat="47.39553" lon="8.03873">
        <ele>368.4</ele>
        <time>2022-10-02T09:56:30Z</time>
      </trkpt>
      <trkpt lat="47.39554" lon="8.03878">
        <ele>368.4</ele>
        <time>2022-10-02T09:56:31Z</time>
      </trkpt>
      <trkpt lat="47.39554" lon="8.03883">
        <ele>368.5</ele>
        <time>2022-10-02T09:56:32Z</time>
      </trkpt>
      <trkpt lat="47.39556" lon="8.03886">
        <ele>368.5</ele>
        <time>2022-10-02T09:56:33Z</time>
      </trkpt>
      <trkpt lat="47.39556" lon="8.03887">
        <ele>368.5</ele>
        <time>2022-10-02T09:56:34Z</time>
      </trkpt>
      <trkpt lat="47.39557" lon="8.03887">
        <ele>368.7</ele>
        <time>2022-10-02T09:56:35Z</time>
      </trkpt>
      <trkpt lat="47.39561" lon="8.03886">
        <ele>368.7</ele>
        <time>2022-10-02T09:56:36Z</time>
      </trkpt>
      <trkpt lat="47.39562" lon="8.03885">
        <ele>368.7</ele>
        <time>2022-10-02T09:56:37Z</time>
      </trkpt>
      <trkpt lat="47.39565" lon="8.03884">
        <ele>368.7</ele>
        <time>2022-10-02T09:56:38Z</time>
      </trkpt>
      <trkpt lat="47.39568" lon="8.03884">
        <ele>368.7</ele>
        <time>2022-10-02T09:56:39Z</time>
      </trkpt>
      <trkpt lat="47.39569" lon="8.03883">
        <ele>368.8</ele>
        <time>2022-10-02T09:56:40Z</time>
      </trkpt>
      <trkpt lat="47.39573" lon="8.03881">
        <ele>368.8</ele>
        <time>2022-10-02T09:56:41Z</time>
      </trkpt>
      <trkpt lat="47.39575" lon="8.0388">
        <ele>368.8</ele>
        <time>2022-10-02T09:56:42Z</time>
      </trkpt>
      <trkpt lat="47.39578" lon="8.0388">
        <ele>368.9</ele>
        <time>2022-10-02T09:56:43Z</time>
      </trkpt>
      <trkpt lat="47.39581" lon="8.03877">
        <ele>368.9</ele>
        <time>2022-10-02T09:56:44Z</time>
      </trkpt>
      <trkpt lat="47.39584" lon="8.03876">
        <ele>369</ele>
        <time>2022-10-02T09:56:45Z</time>
      </trkpt>
      <trkpt lat="47.39587" lon="8.03876">
        <ele>369</ele>
        <time>2022-10-02T09:56:46Z</time>
      </trkpt>
      <trkpt lat="47.3959" lon="8.03875">
        <ele>369.1</ele>
        <time>2022-10-02T09:56:47Z</time>
      </trkpt>
      <trkpt lat="47.39594" lon="8.03874">
        <ele>369.1</ele>
        <time>2022-10-02T09:56:48Z</time>
      </trkpt>
      <trkpt lat="47.39598" lon="8.03872">
        <ele>369.2</ele>
        <time>2022-10-02T09:56:49Z</time>
      </trkpt>
      <trkpt lat="47.39602" lon="8.03868">
        <ele>369.4</ele>
        <time>2022-10-02T09:56:50Z</time>
      </trkpt>
      <trkpt lat="47.39605" lon="8.03867">
        <ele>369.5</ele>
        <time>2022-10-02T09:56:51Z</time>
      </trkpt>
      <trkpt lat="47.39609" lon="8.03864">
        <ele>369.5</ele>
        <time>2022-10-02T09:56:52Z</time>
      </trkpt>
      <trkpt lat="47.39612" lon="8.03862">
        <ele>369.6</ele>
        <time>2022-10-02T09:56:53Z</time>
      </trkpt>
      <trkpt lat="47.39613" lon="8.03861">
        <ele>369.7</ele>
        <time>2022-10-02T09:56:54Z</time>
      </trkpt>
      <trkpt lat="47.39616" lon="8.03861">
        <ele>369.7</ele>
        <time>2022-10-02T09:56:55Z</time>
      </trkpt>
      <trkpt lat="47.39617" lon="8.03861">
        <ele>369.8</ele>
        <time>2022-10-02T09:56:56Z</time>
      </trkpt>
      <trkpt lat="47.39619" lon="8.03861">
        <ele>369.8</ele>
        <time>2022-10-02T09:56:57Z</time>
      </trkpt>
      <trkpt lat="47.39621" lon="8.03861">
        <ele>369.9</ele>
        <time>2022-10-02T09:56:58Z</time>
      </trkpt>
      <trkpt lat="47.39622" lon="8.03861">
        <ele>369.9</ele>
        <time>2022-10-02T09:56:59Z</time>
      </trkpt>
      <trkpt lat="47.39624" lon="8.03863">
        <ele>369.9</ele>
        <time>2022-10-02T09:57:00Z</time>
      </trkpt>
      <trkpt lat="47.39626" lon="8.03867">
        <ele>370.2</ele>
        <time>2022-10-02T09:57:01Z</time>
      </trkpt>
      <trkpt lat="47.39627" lon="8.0387">
        <ele>370.2</ele>
        <time>2022-10-02T09:57:02Z</time>
      </trkpt>
      <trkpt lat="47.39629" lon="8.03874">
        <ele>370.2</ele>
        <time>2022-10-02T09:57:03Z</time>
      </trkpt>
      <trkpt lat="47.39631" lon="8.03878">
        <ele>370.2</ele>
        <time>2022-10-02T09:57:04Z</time>
      </trkpt>
      <trkpt lat="47.39633" lon="8.03883">
        <ele>370.2</ele>
        <time>2022-10-02T09:57:05Z</time>
      </trkpt>
      <trkpt lat="47.39635" lon="8.03887">
        <ele>370.2</ele>
        <time>2022-10-02T09:57:06Z</time>
      </trkpt>
      <trkpt lat="47.39637" lon="8.03892">
        <ele>370.2</ele>
        <time>2022-10-02T09:57:07Z</time>
      </trkpt>
      <trkpt lat="47.39638" lon="8.03897">
        <ele>370.2</ele>
        <time>2022-10-02T09:57:08Z</time>
      </trkpt>
      <trkpt lat="47.39641" lon="8.03903">
        <ele>370.2</ele>
        <time>2022-10-02T09:57:09Z</time>
      </trkpt>
      <trkpt lat="47.39643" lon="8.03909">
        <ele>370.2</ele>
        <time>2022-10-02T09:57:10Z</time>
      </trkpt>
      <trkpt lat="47.39646" lon="8.03914">
        <ele>370.3</ele>
        <time>2022-10-02T09:57:11Z</time>
      </trkpt>
      <trkpt lat="47.39648" lon="8.03919">
        <ele>370.3</ele>
        <time>2022-10-02T09:57:12Z</time>
      </trkpt>
      <trkpt lat="47.3965" lon="8.03925">
        <ele>370.3</ele>
        <time>2022-10-02T09:57:13Z</time>
      </trkpt>
      <trkpt lat="47.39653" lon="8.03931">
        <ele>370.4</ele>
        <time>2022-10-02T09:57:14Z</time>
      </trkpt>
      <trkpt lat="47.39656" lon="8.03936">
        <ele>370.4</ele>
        <time>2022-10-02T09:57:15Z</time>
      </trkpt>
      <trkpt lat="47.39658" lon="8.03942">
        <ele>370.4</ele>
        <time>2022-10-02T09:57:17Z</time>
      </trkpt>
      <trkpt lat="47.3966" lon="8.03946">
        <ele>370.5</ele>
        <time>2022-10-02T09:57:18Z</time>
      </trkpt>
      <trkpt lat="47.39663" lon="8.03951">
        <ele>370.5</ele>
        <time>2022-10-02T09:57:19Z</time>
      </trkpt>
      <trkpt lat="47.39665" lon="8.03956">
        <ele>370.5</ele>
        <time>2022-10-02T09:57:20Z</time>
      </trkpt>
      <trkpt lat="47.39667" lon="8.03961">
        <ele>370.5</ele>
        <time>2022-10-02T09:57:21Z</time>
      </trkpt>
      <trkpt lat="47.39671" lon="8.03967">
        <ele>370.5</ele>
        <time>2022-10-02T09:57:22Z</time>
      </trkpt>
      <trkpt lat="47.39673" lon="8.03971">
        <ele>370.5</ele>
        <time>2022-10-02T09:57:23Z</time>
      </trkpt>
      <trkpt lat="47.39675" lon="8.03976">
        <ele>370.6</ele>
        <time>2022-10-02T09:57:24Z</time>
      </trkpt>
      <trkpt lat="47.39678" lon="8.03982">
        <ele>370.6</ele>
        <time>2022-10-02T09:57:25Z</time>
      </trkpt>
      <trkpt lat="47.3968" lon="8.03985">
        <ele>370.6</ele>
        <time>2022-10-02T09:57:26Z</time>
      </trkpt>
      <trkpt lat="47.39683" lon="8.03991">
        <ele>370.7</ele>
        <time>2022-10-02T09:57:27Z</time>
      </trkpt>
      <trkpt lat="47.39685" lon="8.03996">
        <ele>370.7</ele>
        <time>2022-10-02T09:57:28Z</time>
      </trkpt>
      <trkpt lat="47.39689" lon="8.04">
        <ele>370.8</ele>
        <time>2022-10-02T09:57:29Z</time>
      </trkpt>
      <trkpt lat="47.39692" lon="8.04005">
        <ele>370.8</ele>
        <time>2022-10-02T09:57:30Z</time>
      </trkpt>
      <trkpt lat="47.39694" lon="8.04011">
        <ele>370.9</ele>
        <time>2022-10-02T09:57:31Z</time>
      </trkpt>
      <trkpt lat="47.39697" lon="8.04015">
        <ele>370.9</ele>
        <time>2022-10-02T09:57:32Z</time>
      </trkpt>
      <trkpt lat="47.39699" lon="8.04021">
        <ele>371</ele>
        <time>2022-10-02T09:57:33Z</time>
      </trkpt>
      <trkpt lat="47.39702" lon="8.04025">
        <ele>371</ele>
        <time>2022-10-02T09:57:34Z</time>
      </trkpt>
      <trkpt lat="47.39704" lon="8.0403">
        <ele>371.1</ele>
        <time>2022-10-02T09:57:35Z</time>
      </trkpt>
      <trkpt lat="47.39705" lon="8.04034">
        <ele>371.1</ele>
        <time>2022-10-02T09:57:36Z</time>
      </trkpt>
      <trkpt lat="47.39707" lon="8.04038">
        <ele>371.2</ele>
        <time>2022-10-02T09:57:37Z</time>
      </trkpt>
      <trkpt lat="47.39709" lon="8.04041">
        <ele>371.2</ele>
        <time>2022-10-02T09:57:38Z</time>
      </trkpt>
      <trkpt lat="47.3971" lon="8.04043">
        <ele>371.2</ele>
        <time>2022-10-02T09:57:39Z</time>
      </trkpt>
      <trkpt lat="47.3971" lon="8.04046">
        <ele>371.3</ele>
        <time>2022-10-02T09:57:40Z</time>
      </trkpt>
      <trkpt lat="47.3971" lon="8.04049">
        <ele>371.2</ele>
        <time>2022-10-02T09:57:41Z</time>
      </trkpt>
      <trkpt lat="47.39709" lon="8.0405">
        <ele>371.2</ele>
        <time>2022-10-02T09:57:42Z</time>
      </trkpt>
      <trkpt lat="47.39709" lon="8.04052">
        <ele>371.2</ele>
        <time>2022-10-02T09:57:43Z</time>
      </trkpt>
      <trkpt lat="47.39709" lon="8.04053">
        <ele>371.2</ele>
        <time>2022-10-02T09:57:44Z</time>
      </trkpt>
      <trkpt lat="47.39709" lon="8.04054">
        <ele>371.2</ele>
        <time>2022-10-02T09:57:45Z</time>
      </trkpt>
      <trkpt lat="47.39709" lon="8.04055">
        <ele>371.2</ele>
        <time>2022-10-02T09:57:46Z</time>
      </trkpt>
      <trkpt lat="47.39709" lon="8.04056">
        <ele>371.2</ele>
        <time>2022-10-02T09:57:47Z</time>
      </trkpt>
      <trkpt lat="47.39709" lon="8.04057">
        <ele>371.2</ele>
        <time>2022-10-02T09:57:48Z</time>
      </trkpt>
      <trkpt lat="47.39709" lon="8.04058">
        <ele>371.2</ele>
        <time>2022-10-02T09:57:49Z</time>
      </trkpt>
      <trkpt lat="47.39709" lon="8.04059">
        <ele>371.2</ele>
        <time>2022-10-02T09:57:50Z</time>
      </trkpt>
      <trkpt lat="47.39709" lon="8.0406">
        <ele>371.2</ele>
        <time>2022-10-02T09:57:51Z</time>
      </trkpt>
      <trkpt lat="47.39709" lon="8.04061">
        <ele>371.2</ele>
        <time>2022-10-02T09:57:52Z</time>
      </trkpt>
      <trkpt lat="47.39709" lon="8.04062">
        <ele>371.1</ele>
        <time>2022-10-02T09:57:53Z</time>
      </trkpt>
      <trkpt lat="47.39709" lon="8.04063">
        <ele>371.1</ele>
        <time>2022-10-02T09:57:54Z</time>
      </trkpt>
      <trkpt lat="47.39709" lon="8.04064">
        <ele>371.1</ele>
        <time>2022-10-02T09:58:15Z</time>
      </trkpt>
      <trkpt lat="47.39709" lon="8.04066">
        <ele>371.1</ele>
        <time>2022-10-02T09:58:16Z</time>
      </trkpt>
      <trkpt lat="47.39707" lon="8.04068">
        <ele>371.1</ele>
        <time>2022-10-02T09:58:17Z</time>
      </trkpt>
      <trkpt lat="47.39706" lon="8.04069">
        <ele>371.1</ele>
        <time>2022-10-02T09:58:18Z</time>
      </trkpt>
      <trkpt lat="47.39704" lon="8.04072">
        <ele>371.1</ele>
        <time>2022-10-02T09:58:19Z</time>
      </trkpt>
      <trkpt lat="47.39703" lon="8.04073">
        <ele>371.1</ele>
        <time>2022-10-02T09:58:20Z</time>
      </trkpt>
      <trkpt lat="47.397" lon="8.04075">
        <ele>371</ele>
        <time>2022-10-02T09:58:21Z</time>
      </trkpt>
      <trkpt lat="47.39699" lon="8.04075">
        <ele>371</ele>
        <time>2022-10-02T09:58:22Z</time>
      </trkpt>
      <trkpt lat="47.39696" lon="8.04077">
        <ele>371</ele>
        <time>2022-10-02T09:58:23Z</time>
      </trkpt>
      <trkpt lat="47.39695" lon="8.04078">
        <ele>371</ele>
        <time>2022-10-02T09:58:24Z</time>
      </trkpt>
      <trkpt lat="47.39692" lon="8.0408">
        <ele>371</ele>
        <time>2022-10-02T09:58:25Z</time>
      </trkpt>
      <trkpt lat="47.39691" lon="8.0408">
        <ele>371</ele>
        <time>2022-10-02T09:58:26Z</time>
      </trkpt>
      <trkpt lat="47.39689" lon="8.04083">
        <ele>370.9</ele>
        <time>2022-10-02T09:58:27Z</time>
      </trkpt>
      <trkpt lat="47.39688" lon="8.04084">
        <ele>370.9</ele>
        <time>2022-10-02T09:58:28Z</time>
      </trkpt>
      <trkpt lat="47.39685" lon="8.04086">
        <ele>370.9</ele>
        <time>2022-10-02T09:58:29Z</time>
      </trkpt>
      <trkpt lat="47.39684" lon="8.04087">
        <ele>370.9</ele>
        <time>2022-10-02T09:58:30Z</time>
      </trkpt>
      <trkpt lat="47.39682" lon="8.04089">
        <ele>370.9</ele>
        <time>2022-10-02T09:58:31Z</time>
      </trkpt>
      <trkpt lat="47.39681" lon="8.0409">
        <ele>370.9</ele>
        <time>2022-10-02T09:58:32Z</time>
      </trkpt>
      <trkpt lat="47.3968" lon="8.04091">
        <ele>370.9</ele>
        <time>2022-10-02T09:58:33Z</time>
      </trkpt>
      <trkpt lat="47.39677" lon="8.04093">
        <ele>370.9</ele>
        <time>2022-10-02T09:58:34Z</time>
      </trkpt>
      <trkpt lat="47.39676" lon="8.04094">
        <ele>370.9</ele>
        <time>2022-10-02T09:58:35Z</time>
      </trkpt>
      <trkpt lat="47.39673" lon="8.04098">
        <ele>371</ele>
        <time>2022-10-02T09:58:36Z</time>
      </trkpt>
      <trkpt lat="47.39671" lon="8.04099">
        <ele>371</ele>
        <time>2022-10-02T09:58:37Z</time>
      </trkpt>
      <trkpt lat="47.39668" lon="8.04101">
        <ele>371.1</ele>
        <time>2022-10-02T09:58:38Z</time>
      </trkpt>
      <trkpt lat="47.39668" lon="8.04101">
        <ele>371.1</ele>
        <time>2022-10-02T09:58:39Z</time>
      </trkpt>
      <trkpt lat="47.39665" lon="8.04103">
        <ele>371</ele>
        <time>2022-10-02T09:58:40Z</time>
      </trkpt>
      <trkpt lat="47.39664" lon="8.04104">
        <ele>371</ele>
        <time>2022-10-02T09:58:41Z</time>
      </trkpt>
      <trkpt lat="47.3966" lon="8.04108">
        <ele>371</ele>
        <time>2022-10-02T09:58:42Z</time>
      </trkpt>
      <trkpt lat="47.39657" lon="8.0411">
        <ele>371</ele>
        <time>2022-10-02T09:58:43Z</time>
      </trkpt>
      <trkpt lat="47.39655" lon="8.04112">
        <ele>371</ele>
        <time>2022-10-02T09:58:44Z</time>
      </trkpt>
      <trkpt lat="47.39652" lon="8.04115">
        <ele>370.9</ele>
        <time>2022-10-02T09:58:45Z</time>
      </trkpt>
      <trkpt lat="47.39651" lon="8.04116">
        <ele>370.9</ele>
        <time>2022-10-02T09:58:46Z</time>
      </trkpt>
      <trkpt lat="47.39648" lon="8.04119">
        <ele>370.9</ele>
        <time>2022-10-02T09:58:47Z</time>
      </trkpt>
      <trkpt lat="47.39648" lon="8.04119">
        <ele>370.9</ele>
        <time>2022-10-02T09:58:48Z</time>
      </trkpt>
      <trkpt lat="47.39646" lon="8.04121">
        <ele>370.9</ele>
        <time>2022-10-02T09:58:49Z</time>
      </trkpt>
      <trkpt lat="47.39645" lon="8.04121">
        <ele>370.9</ele>
        <time>2022-10-02T09:58:50Z</time>
      </trkpt>
      <trkpt lat="47.39646" lon="8.04121">
        <ele>370.9</ele>
        <time>2022-10-02T09:58:51Z</time>
      </trkpt>
      <trkpt lat="47.39646" lon="8.04121">
        <ele>370.9</ele>
        <time>2022-10-02T09:58:52Z</time>
      </trkpt>
      <trkpt lat="47.39647" lon="8.0412">
        <ele>370.9</ele>
        <time>2022-10-02T09:58:53Z</time>
      </trkpt>
      <trkpt lat="47.39647" lon="8.0412">
        <ele>370.9</ele>
        <time>2022-10-02T09:58:54Z</time>
      </trkpt>
      <trkpt lat="47.39648" lon="8.0412">
        <ele>370.9</ele>
        <time>2022-10-02T09:58:55Z</time>
      </trkpt>
      <trkpt lat="47.39648" lon="8.04119">
        <ele>370.9</ele>
        <time>2022-10-02T09:58:56Z</time>
      </trkpt>
      <trkpt lat="47.39649" lon="8.04119">
        <ele>370.9</ele>
        <time>2022-10-02T09:58:57Z</time>
      </trkpt>
      <trkpt lat="47.39649" lon="8.04119">
        <ele>370.9</ele>
        <time>2022-10-02T09:58:58Z</time>
      </trkpt>
      <trkpt lat="47.3965" lon="8.04118">
        <ele>370.9</ele>
        <time>2022-10-02T09:58:59Z</time>
      </trkpt>
      <trkpt lat="47.3965" lon="8.04118">
        <ele>370.8</ele>
        <time>2022-10-02T09:59:00Z</time>
      </trkpt>
      <trkpt lat="47.39651" lon="8.04118">
        <ele>370.8</ele>
        <time>2022-10-02T09:59:01Z</time>
      </trkpt>
      <trkpt lat="47.39651" lon="8.04117">
        <ele>370.8</ele>
        <time>2022-10-02T09:59:02Z</time>
      </trkpt>
      <trkpt lat="47.39652" lon="8.04117">
        <ele>370.8</ele>
        <time>2022-10-02T09:59:47Z</time>
      </trkpt>
      <trkpt lat="47.39652" lon="8.04117">
        <ele>370.8</ele>
        <time>2022-10-02T09:59:48Z</time>
      </trkpt>
      <trkpt lat="47.39654" lon="8.04115">
        <ele>370.8</ele>
        <time>2022-10-02T09:59:49Z</time>
      </trkpt>
      <trkpt lat="47.39655" lon="8.04115">
        <ele>370.8</ele>
        <time>2022-10-02T09:59:50Z</time>
      </trkpt>
      <trkpt lat="47.39655" lon="8.04114">
        <ele>370.8</ele>
        <time>2022-10-02T09:59:51Z</time>
      </trkpt>
      <trkpt lat="47.39656" lon="8.04113">
        <ele>370.8</ele>
        <time>2022-10-02T09:59:52Z</time>
      </trkpt>
      <trkpt lat="47.39657" lon="8.04112">
        <ele>370.8</ele>
        <time>2022-10-02T09:59:53Z</time>
      </trkpt>
      <trkpt lat="47.39659" lon="8.04111">
        <ele>370.9</ele>
        <time>2022-10-02T09:59:54Z</time>
      </trkpt>
      <trkpt lat="47.3966" lon="8.0411">
        <ele>370.9</ele>
        <time>2022-10-02T09:59:55Z</time>
      </trkpt>
      <trkpt lat="47.39661" lon="8.04109">
        <ele>370.9</ele>
        <time>2022-10-02T09:59:56Z</time>
      </trkpt>
      <trkpt lat="47.39662" lon="8.04109">
        <ele>370.9</ele>
        <time>2022-10-02T09:59:57Z</time>
      </trkpt>
      <trkpt lat="47.39663" lon="8.04108">
        <ele>370.9</ele>
        <time>2022-10-02T09:59:58Z</time>
      </trkpt>
      <trkpt lat="47.39662" lon="8.04109">
        <ele>370.9</ele>
        <time>2022-10-02T09:59:59Z</time>
      </trkpt>
      <trkpt lat="47.39661" lon="8.0411">
        <ele>370.9</ele>
        <time>2022-10-02T10:00:00Z</time>
      </trkpt>
      <trkpt lat="47.39661" lon="8.04109">
        <ele>370.9</ele>
        <time>2022-10-02T10:00:01Z</time>
      </trkpt>
      <trkpt lat="47.39663" lon="8.0411">
        <ele>370.9</ele>
        <time>2022-10-02T10:00:02Z</time>
      </trkpt>
      <trkpt lat="47.39663" lon="8.04109">
        <ele>370.9</ele>
        <time>2022-10-02T10:00:03Z</time>
      </trkpt>
      <trkpt lat="47.39664" lon="8.04108">
        <ele>370.9</ele>
        <time>2022-10-02T10:00:04Z</time>
      </trkpt>
      <trkpt lat="47.39664" lon="8.04107">
        <ele>371</ele>
        <time>2022-10-02T10:00:05Z</time>
      </trkpt>
      <trkpt lat="47.39664" lon="8.04108">
        <ele>371</ele>
        <time>2022-10-02T10:00:06Z</time>
      </trkpt>
      <trkpt lat="47.39666" lon="8.04108">
        <ele>371</ele>
        <time>2022-10-02T10:00:07Z</time>
      </trkpt>
      <trkpt lat="47.39667" lon="8.04107">
        <ele>371</ele>
        <time>2022-10-02T10:00:08Z</time>
      </trkpt>
      <trkpt lat="47.39666" lon="8.04107">
        <ele>371</ele>
        <time>2022-10-02T10:00:09Z</time>
      </trkpt>
      <trkpt lat="47.39666" lon="8.04106">
        <ele>371</ele>
        <time>2022-10-02T10:00:10Z</time>
      </trkpt>
      <trkpt lat="47.39666" lon="8.04106">
        <ele>371</ele>
        <time>2022-10-02T10:00:11Z</time>
      </trkpt>
      <trkpt lat="47.39666" lon="8.04106">
        <ele>371</ele>
        <time>2022-10-02T10:00:12Z</time>
      </trkpt>
      <trkpt lat="47.39665" lon="8.04106">
        <ele>371</ele>
        <time>2022-10-02T10:00:13Z</time>
      </trkpt>
      <trkpt lat="47.39667" lon="8.04104">
        <ele>371</ele>
        <time>2022-10-02T10:00:14Z</time>
      </trkpt>
      <trkpt lat="47.39668" lon="8.04102">
        <ele>371</ele>
        <time>2022-10-02T10:00:15Z</time>
      </trkpt>
      <trkpt lat="47.39671" lon="8.041">
        <ele>371</ele>
        <time>2022-10-02T10:00:16Z</time>
      </trkpt>
      <trkpt lat="47.39672" lon="8.04099">
        <ele>371.1</ele>
        <time>2022-10-02T10:00:17Z</time>
      </trkpt>
      <trkpt lat="47.39674" lon="8.04097">
        <ele>371.1</ele>
        <time>2022-10-02T10:00:18Z</time>
      </trkpt>
      <trkpt lat="47.39675" lon="8.04097">
        <ele>371</ele>
        <time>2022-10-02T10:00:19Z</time>
      </trkpt>
      <trkpt lat="47.39676" lon="8.04096">
        <ele>370.9</ele>
        <time>2022-10-02T10:00:20Z</time>
      </trkpt>
      <trkpt lat="47.39677" lon="8.04095">
        <ele>370.9</ele>
        <time>2022-10-02T10:00:21Z</time>
      </trkpt>
      <trkpt lat="47.39679" lon="8.04094">
        <ele>370.9</ele>
        <time>2022-10-02T10:00:22Z</time>
      </trkpt>
      <trkpt lat="47.39681" lon="8.04096">
        <ele>370.9</ele>
        <time>2022-10-02T10:00:23Z</time>
      </trkpt>
      <trkpt lat="47.39682" lon="8.04097">
        <ele>370.9</ele>
        <time>2022-10-02T10:00:24Z</time>
      </trkpt>
      <trkpt lat="47.39683" lon="8.04099">
        <ele>370.8</ele>
        <time>2022-10-02T10:00:25Z</time>
      </trkpt>
      <trkpt lat="47.39683" lon="8.04101">
        <ele>370.8</ele>
        <time>2022-10-02T10:00:26Z</time>
      </trkpt>
      <trkpt lat="47.39684" lon="8.04103">
        <ele>370.8</ele>
        <time>2022-10-02T10:00:27Z</time>
      </trkpt>
      <trkpt lat="47.39684" lon="8.04105">
        <ele>370.8</ele>
        <time>2022-10-02T10:00:28Z</time>
      </trkpt>
      <trkpt lat="47.39684" lon="8.04106">
        <ele>370.8</ele>
        <time>2022-10-02T10:00:29Z</time>
      </trkpt>
      <trkpt lat="47.39685" lon="8.04108">
        <ele>370.7</ele>
        <time>2022-10-02T10:00:30Z</time>
      </trkpt>
      <trkpt lat="47.39685" lon="8.04109">
        <ele>370.7</ele>
        <time>2022-10-02T10:00:31Z</time>
      </trkpt>
      <trkpt lat="47.39686" lon="8.0411">
        <ele>370.7</ele>
        <time>2022-10-02T10:00:32Z</time>
      </trkpt>
      <trkpt lat="47.39686" lon="8.0411">
        <ele>370.7</ele>
        <time>2022-10-02T10:00:33Z</time>
      </trkpt>
      <trkpt lat="47.39687" lon="8.0411">
        <ele>370.7</ele>
        <time>2022-10-02T10:00:34Z</time>
      </trkpt>
      <trkpt lat="47.39688" lon="8.04111">
        <ele>370.7</ele>
        <time>2022-10-02T10:00:35Z</time>
      </trkpt>
      <trkpt lat="47.3969" lon="8.04113">
        <ele>370.6</ele>
        <time>2022-10-02T10:00:36Z</time>
      </trkpt>
      <trkpt lat="47.39691" lon="8.04115">
        <ele>370.5</ele>
        <time>2022-10-02T10:00:37Z</time>
      </trkpt>
      <trkpt lat="47.39692" lon="8.04117">
        <ele>370.4</ele>
        <time>2022-10-02T10:00:38Z</time>
      </trkpt>
      <trkpt lat="47.39693" lon="8.04119">
        <ele>370.4</ele>
        <time>2022-10-02T10:00:39Z</time>
      </trkpt>
      <trkpt lat="47.39694" lon="8.0412">
        <ele>370.3</ele>
        <time>2022-10-02T10:00:40Z</time>
      </trkpt>
      <trkpt lat="47.39695" lon="8.04122">
        <ele>370.3</ele>
        <time>2022-10-02T10:00:41Z</time>
      </trkpt>
      <trkpt lat="47.39698" lon="8.04126">
        <ele>370.1</ele>
        <time>2022-10-02T10:00:42Z</time>
      </trkpt>
      <trkpt lat="47.39702" lon="8.0413">
        <ele>370</ele>
        <time>2022-10-02T10:00:43Z</time>
      </trkpt>
      <trkpt lat="47.39704" lon="8.04135">
        <ele>369.8</ele>
        <time>2022-10-02T10:00:44Z</time>
      </trkpt>
      <trkpt lat="47.39705" lon="8.04137">
        <ele>369.8</ele>
        <time>2022-10-02T10:00:45Z</time>
      </trkpt>
      <trkpt lat="47.39706" lon="8.04143">
        <ele>369.7</ele>
        <time>2022-10-02T10:00:46Z</time>
      </trkpt>
      <trkpt lat="47.39709" lon="8.04146">
        <ele>369.6</ele>
        <time>2022-10-02T10:00:47Z</time>
      </trkpt>
      <trkpt lat="47.39711" lon="8.04149">
        <ele>369.5</ele>
        <time>2022-10-02T10:00:48Z</time>
      </trkpt>
      <trkpt lat="47.39712" lon="8.04152">
        <ele>369.4</ele>
        <time>2022-10-02T10:00:49Z</time>
      </trkpt>
      <trkpt lat="47.39713" lon="8.04157">
        <ele>369.3</ele>
        <time>2022-10-02T10:00:50Z</time>
      </trkpt>
      <trkpt lat="47.39715" lon="8.04161">
        <ele>369.2</ele>
        <time>2022-10-02T10:00:51Z</time>
      </trkpt>
      <trkpt lat="47.39716" lon="8.04164">
        <ele>369.1</ele>
        <time>2022-10-02T10:00:52Z</time>
      </trkpt>
      <trkpt lat="47.39715" lon="8.04166">
        <ele>369.1</ele>
        <time>2022-10-02T10:00:53Z</time>
      </trkpt>
      <trkpt lat="47.39714" lon="8.0417">
        <ele>369</ele>
        <time>2022-10-02T10:00:54Z</time>
      </trkpt>
      <trkpt lat="47.39712" lon="8.04174">
        <ele>368.9</ele>
        <time>2022-10-02T10:00:55Z</time>
      </trkpt>
      <trkpt lat="47.39709" lon="8.04177">
        <ele>368.9</ele>
        <time>2022-10-02T10:00:56Z</time>
      </trkpt>
      <trkpt lat="47.39706" lon="8.04179">
        <ele>368.8</ele>
        <time>2022-10-02T10:00:57Z</time>
      </trkpt>
      <trkpt lat="47.39703" lon="8.04182">
        <ele>368.8</ele>
        <time>2022-10-02T10:00:58Z</time>
      </trkpt>
      <trkpt lat="47.39699" lon="8.04184">
        <ele>368.7</ele>
        <time>2022-10-02T10:00:59Z</time>
      </trkpt>
      <trkpt lat="47.39696" lon="8.04186">
        <ele>368.7</ele>
        <time>2022-10-02T10:01:00Z</time>
      </trkpt>
      <trkpt lat="47.39693" lon="8.04187">
        <ele>368.7</ele>
        <time>2022-10-02T10:01:01Z</time>
      </trkpt>
      <trkpt lat="47.3969" lon="8.0419">
        <ele>368.7</ele>
        <time>2022-10-02T10:01:02Z</time>
      </trkpt>
      <trkpt lat="47.39686" lon="8.04193">
        <ele>368.6</ele>
        <time>2022-10-02T10:01:03Z</time>
      </trkpt>
      <trkpt lat="47.39683" lon="8.04196">
        <ele>368.6</ele>
        <time>2022-10-02T10:01:04Z</time>
      </trkpt>
      <trkpt lat="47.3968" lon="8.04198">
        <ele>368.6</ele>
        <time>2022-10-02T10:01:05Z</time>
      </trkpt>
      <trkpt lat="47.39676" lon="8.04203">
        <ele>368.6</ele>
        <time>2022-10-02T10:01:06Z</time>
      </trkpt>
      <trkpt lat="47.39674" lon="8.04206">
        <ele>368.6</ele>
        <time>2022-10-02T10:01:07Z</time>
      </trkpt>
      <trkpt lat="47.39671" lon="8.04208">
        <ele>368.6</ele>
        <time>2022-10-02T10:01:08Z</time>
      </trkpt>
      <trkpt lat="47.3967" lon="8.04209">
        <ele>368.6</ele>
        <time>2022-10-02T10:01:09Z</time>
      </trkpt>
      <trkpt lat="47.39668" lon="8.04208">
        <ele>368.6</ele>
        <time>2022-10-02T10:01:10Z</time>
      </trkpt>
      <trkpt lat="47.39667" lon="8.04208">
        <ele>368.6</ele>
        <time>2022-10-02T10:01:11Z</time>
      </trkpt>
      <trkpt lat="47.39666" lon="8.04208">
        <ele>368.6</ele>
        <time>2022-10-02T10:01:12Z</time>
      </trkpt>
      <trkpt lat="47.39666" lon="8.04208">
        <ele>368.6</ele>
        <time>2022-10-02T10:01:13Z</time>
      </trkpt>
      <trkpt lat="47.39665" lon="8.04207">
        <ele>368.7</ele>
        <time>2022-10-02T10:01:14Z</time>
      </trkpt>
      <trkpt lat="47.39665" lon="8.04205">
        <ele>368.7</ele>
        <time>2022-10-02T10:01:15Z</time>
      </trkpt>
      <trkpt lat="47.39664" lon="8.04204">
        <ele>368.7</ele>
        <time>2022-10-02T10:01:16Z</time>
      </trkpt>
      <trkpt lat="47.39664" lon="8.04199">
        <ele>368.7</ele>
        <time>2022-10-02T10:01:17Z</time>
      </trkpt>
      <trkpt lat="47.39664" lon="8.04197">
        <ele>368.7</ele>
        <time>2022-10-02T10:01:18Z</time>
      </trkpt>
      <trkpt lat="47.39663" lon="8.04194">
        <ele>368.7</ele>
        <time>2022-10-02T10:01:19Z</time>
      </trkpt>
      <trkpt lat="47.39662" lon="8.04195">
        <ele>368.7</ele>
        <time>2022-10-02T10:01:20Z</time>
      </trkpt>
      <trkpt lat="47.39661" lon="8.04195">
        <ele>368.7</ele>
        <time>2022-10-02T10:01:21Z</time>
      </trkpt>
      <trkpt lat="47.39661" lon="8.04195">
        <ele>368.7</ele>
        <time>2022-10-02T10:01:22Z</time>
      </trkpt>
      <trkpt lat="47.3966" lon="8.04195">
        <ele>368.7</ele>
        <time>2022-10-02T10:01:23Z</time>
      </trkpt>
      <trkpt lat="47.39656" lon="8.04197">
        <ele>368.7</ele>
        <time>2022-10-02T10:01:24Z</time>
      </trkpt>
      <trkpt lat="47.39654" lon="8.04197">
        <ele>368.7</ele>
        <time>2022-10-02T10:01:25Z</time>
      </trkpt>
      <trkpt lat="47.39651" lon="8.04199">
        <ele>368.7</ele>
        <time>2022-10-02T10:01:26Z</time>
      </trkpt>
      <trkpt lat="47.39648" lon="8.04199">
        <ele>368.8</ele>
        <time>2022-10-02T10:01:27Z</time>
      </trkpt>
      <trkpt lat="47.39645" lon="8.04201">
        <ele>368.8</ele>
        <time>2022-10-02T10:01:29Z</time>
      </trkpt>
      <trkpt lat="47.39642" lon="8.04202">
        <ele>368.8</ele>
        <time>2022-10-02T10:01:30Z</time>
      </trkpt>
      <trkpt lat="47.39638" lon="8.04205">
        <ele>368.8</ele>
        <time>2022-10-02T10:01:31Z</time>
      </trkpt>
      <trkpt lat="47.39635" lon="8.04207">
        <ele>368.9</ele>
        <time>2022-10-02T10:01:32Z</time>
      </trkpt>
      <trkpt lat="47.39631" lon="8.04211">
        <ele>368.9</ele>
        <time>2022-10-02T10:01:33Z</time>
      </trkpt>
      <trkpt lat="47.39627" lon="8.04214">
        <ele>369</ele>
        <time>2022-10-02T10:01:34Z</time>
      </trkpt>
      <trkpt lat="47.39624" lon="8.04216">
        <ele>369</ele>
        <time>2022-10-02T10:01:35Z</time>
      </trkpt>
      <trkpt lat="47.39621" lon="8.04217">
        <ele>369.1</ele>
        <time>2022-10-02T10:01:36Z</time>
      </trkpt>
      <trkpt lat="47.39617" lon="8.0422">
        <ele>369.1</ele>
        <time>2022-10-02T10:01:37Z</time>
      </trkpt>
      <trkpt lat="47.39614" lon="8.04222">
        <ele>369.2</ele>
        <time>2022-10-02T10:01:38Z</time>
      </trkpt>
      <trkpt lat="47.39611" lon="8.04225">
        <ele>369.3</ele>
        <time>2022-10-02T10:01:39Z</time>
      </trkpt>
      <trkpt lat="47.39608" lon="8.04227">
        <ele>369.3</ele>
        <time>2022-10-02T10:01:40Z</time>
      </trkpt>
      <trkpt lat="47.39605" lon="8.0423">
        <ele>369.3</ele>
        <time>2022-10-02T10:01:41Z</time>
      </trkpt>
      <trkpt lat="47.39604" lon="8.04232">
        <ele>369.4</ele>
        <time>2022-10-02T10:01:42Z</time>
      </trkpt>
      <trkpt lat="47.39603" lon="8.04233">
        <ele>369.4</ele>
        <time>2022-10-02T10:01:43Z</time>
      </trkpt>
      <trkpt lat="47.39602" lon="8.04236">
        <ele>369.4</ele>
        <time>2022-10-02T10:01:44Z</time>
      </trkpt>
      <trkpt lat="47.39601" lon="8.0424">
        <ele>369.4</ele>
        <time>2022-10-02T10:01:45Z</time>
      </trkpt>
      <trkpt lat="47.39602" lon="8.04245">
        <ele>369.4</ele>
        <time>2022-10-02T10:01:46Z</time>
      </trkpt>
      <trkpt lat="47.39602" lon="8.0425">
        <ele>369.4</ele>
        <time>2022-10-02T10:01:47Z</time>
      </trkpt>
      <trkpt lat="47.39603" lon="8.04255">
        <ele>369.3</ele>
        <time>2022-10-02T10:01:48Z</time>
      </trkpt>
      <trkpt lat="47.39605" lon="8.04259">
        <ele>369.3</ele>
        <time>2022-10-02T10:01:49Z</time>
      </trkpt>
      <trkpt lat="47.39607" lon="8.04263">
        <ele>369.3</ele>
        <time>2022-10-02T10:01:50Z</time>
      </trkpt>
      <trkpt lat="47.39609" lon="8.04269">
        <ele>369.2</ele>
        <time>2022-10-02T10:01:51Z</time>
      </trkpt>
      <trkpt lat="47.39611" lon="8.04273">
        <ele>369.2</ele>
        <time>2022-10-02T10:01:52Z</time>
      </trkpt>
      <trkpt lat="47.39613" lon="8.04278">
        <ele>369.1</ele>
        <time>2022-10-02T10:01:53Z</time>
      </trkpt>
      <trkpt lat="47.39616" lon="8.04284">
        <ele>369.1</ele>
        <time>2022-10-02T10:01:54Z</time>
      </trkpt>
      <trkpt lat="47.39618" lon="8.04291">
        <ele>369</ele>
        <time>2022-10-02T10:01:55Z</time>
      </trkpt>
      <trkpt lat="47.39621" lon="8.04298">
        <ele>368.9</ele>
        <time>2022-10-02T10:01:56Z</time>
      </trkpt>
      <trkpt lat="47.39623" lon="8.04304">
        <ele>368.9</ele>
        <time>2022-10-02T10:01:57Z</time>
      </trkpt>
      <trkpt lat="47.39626" lon="8.04311">
        <ele>368.8</ele>
        <time>2022-10-02T10:01:58Z</time>
      </trkpt>
      <trkpt lat="47.39628" lon="8.04318">
        <ele>368.8</ele>
        <time>2022-10-02T10:01:59Z</time>
      </trkpt>
      <trkpt lat="47.3963" lon="8.04325">
        <ele>368.8</ele>
        <time>2022-10-02T10:02:00Z</time>
      </trkpt>
      <trkpt lat="47.39634" lon="8.04332">
        <ele>368.7</ele>
        <time>2022-10-02T10:02:01Z</time>
      </trkpt>
      <trkpt lat="47.39636" lon="8.04337">
        <ele>368.7</ele>
        <time>2022-10-02T10:02:02Z</time>
      </trkpt>
      <trkpt lat="47.39639" lon="8.04344">
        <ele>368.7</ele>
        <time>2022-10-02T10:02:03Z</time>
      </trkpt>
      <trkpt lat="47.39643" lon="8.04349">
        <ele>368.6</ele>
        <time>2022-10-02T10:02:04Z</time>
      </trkpt>
      <trkpt lat="47.39645" lon="8.04357">
        <ele>368.6</ele>
        <time>2022-10-02T10:02:05Z</time>
      </trkpt>
      <trkpt lat="47.39647" lon="8.04363">
        <ele>368.6</ele>
        <time>2022-10-02T10:02:06Z</time>
      </trkpt>
      <trkpt lat="47.39649" lon="8.04368">
        <ele>368.6</ele>
        <time>2022-10-02T10:02:07Z</time>
      </trkpt>
      <trkpt lat="47.39652" lon="8.04374">
        <ele>368.5</ele>
        <time>2022-10-02T10:02:08Z</time>
      </trkpt>
      <trkpt lat="47.39654" lon="8.04382">
        <ele>368.5</ele>
        <time>2022-10-02T10:02:09Z</time>
      </trkpt>
      <trkpt lat="47.39657" lon="8.04388">
        <ele>368.5</ele>
        <time>2022-10-02T10:02:10Z</time>
      </trkpt>
      <trkpt lat="47.3966" lon="8.04393">
        <ele>368.5</ele>
        <time>2022-10-02T10:02:11Z</time>
      </trkpt>
      <trkpt lat="47.39662" lon="8.04398">
        <ele>368.4</ele>
        <time>2022-10-02T10:02:12Z</time>
      </trkpt>
      <trkpt lat="47.39666" lon="8.04404">
        <ele>368.4</ele>
        <time>2022-10-02T10:02:13Z</time>
      </trkpt>
      <trkpt lat="47.39669" lon="8.04407">
        <ele>368.4</ele>
        <time>2022-10-02T10:02:14Z</time>
      </trkpt>
      <trkpt lat="47.39671" lon="8.04415">
        <ele>368.3</ele>
        <time>2022-10-02T10:02:15Z</time>
      </trkpt>
      <trkpt lat="47.39673" lon="8.04423">
        <ele>368.3</ele>
        <time>2022-10-02T10:02:16Z</time>
      </trkpt>
      <trkpt lat="47.39674" lon="8.04429">
        <ele>368.3</ele>
        <time>2022-10-02T10:02:17Z</time>
      </trkpt>
      <trkpt lat="47.39678" lon="8.04435">
        <ele>368.3</ele>
        <time>2022-10-02T10:02:18Z</time>
      </trkpt>
      <trkpt lat="47.39681" lon="8.04444">
        <ele>368.2</ele>
        <time>2022-10-02T10:02:19Z</time>
      </trkpt>
      <trkpt lat="47.39683" lon="8.04451">
        <ele>368.2</ele>
        <time>2022-10-02T10:02:20Z</time>
      </trkpt>
      <trkpt lat="47.39685" lon="8.04458">
        <ele>368.2</ele>
        <time>2022-10-02T10:02:21Z</time>
      </trkpt>
      <trkpt lat="47.39686" lon="8.04464">
        <ele>368.2</ele>
        <time>2022-10-02T10:02:22Z</time>
      </trkpt>
      <trkpt lat="47.39688" lon="8.04472">
        <ele>368.2</ele>
        <time>2022-10-02T10:02:23Z</time>
      </trkpt>
      <trkpt lat="47.3969" lon="8.0448">
        <ele>368.1</ele>
        <time>2022-10-02T10:02:24Z</time>
      </trkpt>
      <trkpt lat="47.39691" lon="8.04488">
        <ele>368.1</ele>
        <time>2022-10-02T10:02:25Z</time>
      </trkpt>
      <trkpt lat="47.39692" lon="8.04497">
        <ele>368.1</ele>
        <time>2022-10-02T10:02:26Z</time>
      </trkpt>
      <trkpt lat="47.39694" lon="8.04504">
        <ele>368.1</ele>
        <time>2022-10-02T10:02:27Z</time>
      </trkpt>
      <trkpt lat="47.39695" lon="8.04511">
        <ele>368.1</ele>
        <time>2022-10-02T10:02:28Z</time>
      </trkpt>
      <trkpt lat="47.39695" lon="8.04519">
        <ele>368.1</ele>
        <time>2022-10-02T10:02:29Z</time>
      </trkpt>
      <trkpt lat="47.39697" lon="8.04524">
        <ele>368.1</ele>
        <time>2022-10-02T10:02:30Z</time>
      </trkpt>
      <trkpt lat="47.39698" lon="8.04532">
        <ele>368.1</ele>
        <time>2022-10-02T10:02:31Z</time>
      </trkpt>
      <trkpt lat="47.397" lon="8.04545">
        <ele>368</ele>
        <time>2022-10-02T10:02:32Z</time>
      </trkpt>
      <trkpt lat="47.397" lon="8.04557">
        <ele>368</ele>
        <time>2022-10-02T10:02:33Z</time>
      </trkpt>
      <trkpt lat="47.39701" lon="8.04563">
        <ele>367.9</ele>
        <time>2022-10-02T10:02:34Z</time>
      </trkpt>
      <trkpt lat="47.39701" lon="8.04571">
        <ele>367.9</ele>
        <time>2022-10-02T10:02:35Z</time>
      </trkpt>
      <trkpt lat="47.39704" lon="8.0458">
        <ele>367.9</ele>
        <time>2022-10-02T10:02:36Z</time>
      </trkpt>
      <trkpt lat="47.39706" lon="8.04587">
        <ele>367.9</ele>
        <time>2022-10-02T10:02:37Z</time>
      </trkpt>
      <trkpt lat="47.39708" lon="8.04594">
        <ele>367.9</ele>
        <time>2022-10-02T10:02:38Z</time>
      </trkpt>
      <trkpt lat="47.39709" lon="8.04601">
        <ele>367.9</ele>
        <time>2022-10-02T10:02:39Z</time>
      </trkpt>
      <trkpt lat="47.39711" lon="8.0461">
        <ele>367.9</ele>
        <time>2022-10-02T10:02:40Z</time>
      </trkpt>
      <trkpt lat="47.39714" lon="8.04618">
        <ele>367.9</ele>
        <time>2022-10-02T10:02:41Z</time>
      </trkpt>
      <trkpt lat="47.39717" lon="8.04626">
        <ele>367.8</ele>
        <time>2022-10-02T10:02:42Z</time>
      </trkpt>
      <trkpt lat="47.3972" lon="8.04634">
        <ele>367.8</ele>
        <time>2022-10-02T10:02:43Z</time>
      </trkpt>
      <trkpt lat="47.39725" lon="8.04641">
        <ele>367.7</ele>
        <time>2022-10-02T10:02:44Z</time>
      </trkpt>
      <trkpt lat="47.39729" lon="8.04649">
        <ele>367.7</ele>
        <time>2022-10-02T10:02:45Z</time>
      </trkpt>
      <trkpt lat="47.39734" lon="8.04656">
        <ele>367.7</ele>
        <time>2022-10-02T10:02:46Z</time>
      </trkpt>
      <trkpt lat="47.39738" lon="8.04662">
        <ele>367.6</ele>
        <time>2022-10-02T10:02:47Z</time>
      </trkpt>
      <trkpt lat="47.39743" lon="8.04668">
        <ele>367.6</ele>
        <time>2022-10-02T10:02:48Z</time>
      </trkpt>
      <trkpt lat="47.39747" lon="8.04675">
        <ele>367.6</ele>
        <time>2022-10-02T10:02:49Z</time>
      </trkpt>
      <trkpt lat="47.39751" lon="8.0468">
        <ele>367.7</ele>
        <time>2022-10-02T10:02:50Z</time>
      </trkpt>
      <trkpt lat="47.39756" lon="8.04687">
        <ele>367.7</ele>
        <time>2022-10-02T10:02:51Z</time>
      </trkpt>
      <trkpt lat="47.39759" lon="8.04695">
        <ele>367.7</ele>
        <time>2022-10-02T10:02:52Z</time>
      </trkpt>
      <trkpt lat="47.39764" lon="8.04699">
        <ele>367.7</ele>
        <time>2022-10-02T10:02:53Z</time>
      </trkpt>
      <trkpt lat="47.39768" lon="8.04704">
        <ele>367.7</ele>
        <time>2022-10-02T10:02:54Z</time>
      </trkpt>
      <trkpt lat="47.39772" lon="8.0471">
        <ele>367.7</ele>
        <time>2022-10-02T10:02:55Z</time>
      </trkpt>
      <trkpt lat="47.39776" lon="8.04716">
        <ele>367.7</ele>
        <time>2022-10-02T10:02:56Z</time>
      </trkpt>
      <trkpt lat="47.3978" lon="8.04721">
        <ele>367.7</ele>
        <time>2022-10-02T10:02:57Z</time>
      </trkpt>
      <trkpt lat="47.39784" lon="8.04725">
        <ele>367.7</ele>
        <time>2022-10-02T10:02:58Z</time>
      </trkpt>
      <trkpt lat="47.39787" lon="8.0473">
        <ele>367.8</ele>
        <time>2022-10-02T10:02:59Z</time>
      </trkpt>
      <trkpt lat="47.39792" lon="8.04735">
        <ele>367.7</ele>
        <time>2022-10-02T10:03:00Z</time>
      </trkpt>
      <trkpt lat="47.39796" lon="8.04741">
        <ele>367.7</ele>
        <time>2022-10-02T10:03:01Z</time>
      </trkpt>
      <trkpt lat="47.39799" lon="8.04747">
        <ele>367.6</ele>
        <time>2022-10-02T10:03:02Z</time>
      </trkpt>
      <trkpt lat="47.39803" lon="8.0475">
        <ele>367.6</ele>
        <time>2022-10-02T10:03:03Z</time>
      </trkpt>
      <trkpt lat="47.39807" lon="8.04756">
        <ele>367.6</ele>
        <time>2022-10-02T10:03:04Z</time>
      </trkpt>
      <trkpt lat="47.39811" lon="8.04762">
        <ele>367.5</ele>
        <time>2022-10-02T10:03:05Z</time>
      </trkpt>
      <trkpt lat="47.39815" lon="8.04769">
        <ele>367.5</ele>
        <time>2022-10-02T10:03:06Z</time>
      </trkpt>
      <trkpt lat="47.39819" lon="8.04776">
        <ele>367.5</ele>
        <time>2022-10-02T10:03:07Z</time>
      </trkpt>
      <trkpt lat="47.39823" lon="8.04782">
        <ele>367.5</ele>
        <time>2022-10-02T10:03:08Z</time>
      </trkpt>
      <trkpt lat="47.39827" lon="8.04787">
        <ele>367.4</ele>
        <time>2022-10-02T10:03:09Z</time>
      </trkpt>
      <trkpt lat="47.39832" lon="8.04793">
        <ele>367.4</ele>
        <time>2022-10-02T10:03:10Z</time>
      </trkpt>
      <trkpt lat="47.39837" lon="8.04798">
        <ele>367.4</ele>
        <time>2022-10-02T10:03:11Z</time>
      </trkpt>
      <trkpt lat="47.3984" lon="8.04804">
        <ele>367.5</ele>
        <time>2022-10-02T10:03:12Z</time>
      </trkpt>
      <trkpt lat="47.39845" lon="8.04809">
        <ele>367.5</ele>
        <time>2022-10-02T10:03:13Z</time>
      </trkpt>
      <trkpt lat="47.3985" lon="8.04814">
        <ele>367.5</ele>
        <time>2022-10-02T10:03:14Z</time>
      </trkpt>
      <trkpt lat="47.39855" lon="8.04819">
        <ele>367.5</ele>
        <time>2022-10-02T10:03:15Z</time>
      </trkpt>
      <trkpt lat="47.39859" lon="8.04824">
        <ele>367.5</ele>
        <time>2022-10-02T10:03:16Z</time>
      </trkpt>
      <trkpt lat="47.39865" lon="8.04828">
        <ele>367.5</ele>
        <time>2022-10-02T10:03:17Z</time>
      </trkpt>
      <trkpt lat="47.3987" lon="8.04832">
        <ele>367.5</ele>
        <time>2022-10-02T10:03:18Z</time>
      </trkpt>
      <trkpt lat="47.39875" lon="8.04837">
        <ele>367.5</ele>
        <time>2022-10-02T10:03:19Z</time>
      </trkpt>
      <trkpt lat="47.3988" lon="8.04842">
        <ele>367.5</ele>
        <time>2022-10-02T10:03:20Z</time>
      </trkpt>
      <trkpt lat="47.39885" lon="8.04847">
        <ele>367.5</ele>
        <time>2022-10-02T10:03:21Z</time>
      </trkpt>
      <trkpt lat="47.39889" lon="8.04852">
        <ele>367.5</ele>
        <time>2022-10-02T10:03:22Z</time>
      </trkpt>
      <trkpt lat="47.39894" lon="8.04856">
        <ele>367.5</ele>
        <time>2022-10-02T10:03:23Z</time>
      </trkpt>
      <trkpt lat="47.39898" lon="8.0486">
        <ele>367.5</ele>
        <time>2022-10-02T10:03:24Z</time>
      </trkpt>
      <trkpt lat="47.39903" lon="8.04864">
        <ele>367.5</ele>
        <time>2022-10-02T10:03:25Z</time>
      </trkpt>
      <trkpt lat="47.39908" lon="8.04868">
        <ele>367.5</ele>
        <time>2022-10-02T10:03:26Z</time>
      </trkpt>
      <trkpt lat="47.39912" lon="8.04871">
        <ele>367.5</ele>
        <time>2022-10-02T10:03:27Z</time>
      </trkpt>
      <trkpt lat="47.39915" lon="8.04874">
        <ele>367.5</ele>
        <time>2022-10-02T10:03:28Z</time>
      </trkpt>
      <trkpt lat="47.39919" lon="8.04876">
        <ele>367.5</ele>
        <time>2022-10-02T10:03:29Z</time>
      </trkpt>
      <trkpt lat="47.39923" lon="8.04876">
        <ele>367.5</ele>
        <time>2022-10-02T10:03:30Z</time>
      </trkpt>
      <trkpt lat="47.39926" lon="8.04877">
        <ele>367.5</ele>
        <time>2022-10-02T10:03:31Z</time>
      </trkpt>
      <trkpt lat="47.39931" lon="8.04878">
        <ele>367.5</ele>
        <time>2022-10-02T10:03:32Z</time>
      </trkpt>
      <trkpt lat="47.39936" lon="8.0488">
        <ele>367.5</ele>
        <time>2022-10-02T10:03:33Z</time>
      </trkpt>
      <trkpt lat="47.39939" lon="8.04883">
        <ele>367.5</ele>
        <time>2022-10-02T10:03:35Z</time>
      </trkpt>
      <trkpt lat="47.39944" lon="8.04885">
        <ele>367.5</ele>
        <time>2022-10-02T10:03:36Z</time>
      </trkpt>
      <trkpt lat="47.39948" lon="8.04888">
        <ele>367.5</ele>
        <time>2022-10-02T10:03:37Z</time>
      </trkpt>
      <trkpt lat="47.39952" lon="8.04891">
        <ele>367.5</ele>
        <time>2022-10-02T10:03:38Z</time>
      </trkpt>
      <trkpt lat="47.39956" lon="8.04895">
        <ele>367.5</ele>
        <time>2022-10-02T10:03:39Z</time>
      </trkpt>
      <trkpt lat="47.39962" lon="8.04896">
        <ele>367.5</ele>
        <time>2022-10-02T10:03:40Z</time>
      </trkpt>
      <trkpt lat="47.39967" lon="8.04899">
        <ele>367.5</ele>
        <time>2022-10-02T10:03:41Z</time>
      </trkpt>
      <trkpt lat="47.39972" lon="8.04902">
        <ele>367.5</ele>
        <time>2022-10-02T10:03:42Z</time>
      </trkpt>
      <trkpt lat="47.39977" lon="8.04906">
        <ele>367.5</ele>
        <time>2022-10-02T10:03:43Z</time>
      </trkpt>
      <trkpt lat="47.39982" lon="8.04908">
        <ele>367.5</ele>
        <time>2022-10-02T10:03:44Z</time>
      </trkpt>
      <trkpt lat="47.39986" lon="8.0491">
        <ele>367.5</ele>
        <time>2022-10-02T10:03:45Z</time>
      </trkpt>
      <trkpt lat="47.39992" lon="8.04912">
        <ele>367.5</ele>
        <time>2022-10-02T10:03:46Z</time>
      </trkpt>
      <trkpt lat="47.39997" lon="8.04915">
        <ele>367.5</ele>
        <time>2022-10-02T10:03:47Z</time>
      </trkpt>
      <trkpt lat="47.4" lon="8.04919">
        <ele>367.5</ele>
        <time>2022-10-02T10:03:48Z</time>
      </trkpt>
      <trkpt lat="47.40004" lon="8.04922">
        <ele>367.5</ele>
        <time>2022-10-02T10:03:49Z</time>
      </trkpt>
      <trkpt lat="47.40008" lon="8.04925">
        <ele>367.5</ele>
        <time>2022-10-02T10:03:50Z</time>
      </trkpt>
      <trkpt lat="47.40011" lon="8.04928">
        <ele>367.5</ele>
        <time>2022-10-02T10:03:51Z</time>
      </trkpt>
      <trkpt lat="47.40015" lon="8.0493">
        <ele>367.4</ele>
        <time>2022-10-02T10:03:52Z</time>
      </trkpt>
      <trkpt lat="47.40018" lon="8.04931">
        <ele>367.4</ele>
        <time>2022-10-02T10:03:53Z</time>
      </trkpt>
      <trkpt lat="47.40021" lon="8.04933">
        <ele>367.4</ele>
        <time>2022-10-02T10:03:54Z</time>
      </trkpt>
      <trkpt lat="47.40024" lon="8.04936">
        <ele>367.4</ele>
        <time>2022-10-02T10:03:55Z</time>
      </trkpt>
      <trkpt lat="47.40027" lon="8.04939">
        <ele>367.4</ele>
        <time>2022-10-02T10:03:56Z</time>
      </trkpt>
      <trkpt lat="47.4003" lon="8.04942">
        <ele>367.4</ele>
        <time>2022-10-02T10:03:57Z</time>
      </trkpt>
      <trkpt lat="47.40033" lon="8.04945">
        <ele>367.4</ele>
        <time>2022-10-02T10:03:58Z</time>
      </trkpt>
      <trkpt lat="47.40036" lon="8.04949">
        <ele>367.4</ele>
        <time>2022-10-02T10:03:59Z</time>
      </trkpt>
      <trkpt lat="47.40038" lon="8.04953">
        <ele>367.4</ele>
        <time>2022-10-02T10:04:00Z</time>
      </trkpt>
      <trkpt lat="47.4004" lon="8.04956">
        <ele>367.3</ele>
        <time>2022-10-02T10:04:01Z</time>
      </trkpt>
      <trkpt lat="47.40043" lon="8.04958">
        <ele>367.3</ele>
        <time>2022-10-02T10:04:02Z</time>
      </trkpt>
      <trkpt lat="47.4005" lon="8.04966">
        <ele>367.3</ele>
        <time>2022-10-02T10:04:03Z</time>
      </trkpt>
      <trkpt lat="47.40052" lon="8.04971">
        <ele>367.2</ele>
        <time>2022-10-02T10:04:04Z</time>
      </trkpt>
      <trkpt lat="47.40057" lon="8.0498">
        <ele>367.2</ele>
        <time>2022-10-02T10:04:06Z</time>
      </trkpt>
      <trkpt lat="47.4006" lon="8.04984">
        <ele>367.2</ele>
        <time>2022-10-02T10:04:07Z</time>
      </trkpt>
      <trkpt lat="47.40062" lon="8.0499">
        <ele>367.1</ele>
        <time>2022-10-02T10:04:08Z</time>
      </trkpt>
      <trkpt lat="47.40066" lon="8.04994">
        <ele>367.1</ele>
        <time>2022-10-02T10:04:09Z</time>
      </trkpt>
      <trkpt lat="47.40068" lon="8.05">
        <ele>367.1</ele>
        <time>2022-10-02T10:04:10Z</time>
      </trkpt>
      <trkpt lat="47.40071" lon="8.05004">
        <ele>367</ele>
        <time>2022-10-02T10:04:11Z</time>
      </trkpt>
      <trkpt lat="47.40074" lon="8.05007">
        <ele>367</ele>
        <time>2022-10-02T10:04:12Z</time>
      </trkpt>
      <trkpt lat="47.40078" lon="8.05013">
        <ele>367</ele>
        <time>2022-10-02T10:04:13Z</time>
      </trkpt>
      <trkpt lat="47.40082" lon="8.05017">
        <ele>366.9</ele>
        <time>2022-10-02T10:04:14Z</time>
      </trkpt>
      <trkpt lat="47.40085" lon="8.05022">
        <ele>366.9</ele>
        <time>2022-10-02T10:04:15Z</time>
      </trkpt>
      <trkpt lat="47.40088" lon="8.05026">
        <ele>366.8</ele>
        <time>2022-10-02T10:04:16Z</time>
      </trkpt>
      <trkpt lat="47.40092" lon="8.05029">
        <ele>366.8</ele>
        <time>2022-10-02T10:04:17Z</time>
      </trkpt>
      <trkpt lat="47.40097" lon="8.05033">
        <ele>366.8</ele>
        <time>2022-10-02T10:04:18Z</time>
      </trkpt>
      <trkpt lat="47.40101" lon="8.05037">
        <ele>366.7</ele>
        <time>2022-10-02T10:04:19Z</time>
      </trkpt>
      <trkpt lat="47.40105" lon="8.05041">
        <ele>366.7</ele>
        <time>2022-10-02T10:04:20Z</time>
      </trkpt>
      <trkpt lat="47.40109" lon="8.05044">
        <ele>366.7</ele>
        <time>2022-10-02T10:04:21Z</time>
      </trkpt>
      <trkpt lat="47.40113" lon="8.05048">
        <ele>366.6</ele>
        <time>2022-10-02T10:04:22Z</time>
      </trkpt>
      <trkpt lat="47.40117" lon="8.05052">
        <ele>366.6</ele>
        <time>2022-10-02T10:04:23Z</time>
      </trkpt>
      <trkpt lat="47.4012" lon="8.05054">
        <ele>366.6</ele>
        <time>2022-10-02T10:04:24Z</time>
      </trkpt>
      <trkpt lat="47.40123" lon="8.05056">
        <ele>366.6</ele>
        <time>2022-10-02T10:04:25Z</time>
      </trkpt>
      <trkpt lat="47.40126" lon="8.05059">
        <ele>366.5</ele>
        <time>2022-10-02T10:04:26Z</time>
      </trkpt>
      <trkpt lat="47.4013" lon="8.05063">
        <ele>366.5</ele>
        <time>2022-10-02T10:04:27Z</time>
      </trkpt>
      <trkpt lat="47.40133" lon="8.05066">
        <ele>366.5</ele>
        <time>2022-10-02T10:04:28Z</time>
      </trkpt>
      <trkpt lat="47.40137" lon="8.05068">
        <ele>366.5</ele>
        <time>2022-10-02T10:04:29Z</time>
      </trkpt>
      <trkpt lat="47.4014" lon="8.05072">
        <ele>366.5</ele>
        <time>2022-10-02T10:04:30Z</time>
      </trkpt>
      <trkpt lat="47.40144" lon="8.05075">
        <ele>366.4</ele>
        <time>2022-10-02T10:04:31Z</time>
      </trkpt>
      <trkpt lat="47.40147" lon="8.05079">
        <ele>366.4</ele>
        <time>2022-10-02T10:04:32Z</time>
      </trkpt>
      <trkpt lat="47.40151" lon="8.05083">
        <ele>366.4</ele>
        <time>2022-10-02T10:04:33Z</time>
      </trkpt>
      <trkpt lat="47.40154" lon="8.05087">
        <ele>366.4</ele>
        <time>2022-10-02T10:04:34Z</time>
      </trkpt>
      <trkpt lat="47.40158" lon="8.0509">
        <ele>366.4</ele>
        <time>2022-10-02T10:04:35Z</time>
      </trkpt>
      <trkpt lat="47.40161" lon="8.05094">
        <ele>366.4</ele>
        <time>2022-10-02T10:04:36Z</time>
      </trkpt>
      <trkpt lat="47.40164" lon="8.051">
        <ele>366.4</ele>
        <time>2022-10-02T10:04:37Z</time>
      </trkpt>
      <trkpt lat="47.40168" lon="8.05104">
        <ele>366.4</ele>
        <time>2022-10-02T10:04:38Z</time>
      </trkpt>
      <trkpt lat="47.40171" lon="8.05108">
        <ele>366.3</ele>
        <time>2022-10-02T10:04:39Z</time>
      </trkpt>
      <trkpt lat="47.40174" lon="8.05111">
        <ele>366.3</ele>
        <time>2022-10-02T10:04:40Z</time>
      </trkpt>
      <trkpt lat="47.40178" lon="8.05117">
        <ele>366.3</ele>
        <time>2022-10-02T10:04:41Z</time>
      </trkpt>
      <trkpt lat="47.40182" lon="8.05121">
        <ele>366.3</ele>
        <time>2022-10-02T10:04:42Z</time>
      </trkpt>
      <trkpt lat="47.40185" lon="8.05125">
        <ele>366.3</ele>
        <time>2022-10-02T10:04:43Z</time>
      </trkpt>
      <trkpt lat="47.40189" lon="8.05129">
        <ele>366.3</ele>
        <time>2022-10-02T10:04:44Z</time>
      </trkpt>
      <trkpt lat="47.40191" lon="8.05132">
        <ele>366.3</ele>
        <time>2022-10-02T10:04:45Z</time>
      </trkpt>
      <trkpt lat="47.40195" lon="8.05135">
        <ele>366.3</ele>
        <time>2022-10-02T10:04:46Z</time>
      </trkpt>
      <trkpt lat="47.40198" lon="8.05139">
        <ele>366.3</ele>
        <time>2022-10-02T10:04:47Z</time>
      </trkpt>
      <trkpt lat="47.40202" lon="8.05143">
        <ele>366.3</ele>
        <time>2022-10-02T10:04:48Z</time>
      </trkpt>
      <trkpt lat="47.40206" lon="8.05146">
        <ele>366.3</ele>
        <time>2022-10-02T10:04:49Z</time>
      </trkpt>
      <trkpt lat="47.40208" lon="8.0515">
        <ele>366.3</ele>
        <time>2022-10-02T10:04:50Z</time>
      </trkpt>
      <trkpt lat="47.4021" lon="8.05154">
        <ele>366.3</ele>
        <time>2022-10-02T10:04:51Z</time>
      </trkpt>
      <trkpt lat="47.40215" lon="8.05158">
        <ele>366.3</ele>
        <time>2022-10-02T10:04:52Z</time>
      </trkpt>
      <trkpt lat="47.40218" lon="8.05161">
        <ele>366.3</ele>
        <time>2022-10-02T10:04:53Z</time>
      </trkpt>
      <trkpt lat="47.40223" lon="8.05164">
        <ele>366.3</ele>
        <time>2022-10-02T10:04:54Z</time>
      </trkpt>
      <trkpt lat="47.40225" lon="8.05166">
        <ele>366.3</ele>
        <time>2022-10-02T10:04:55Z</time>
      </trkpt>
      <trkpt lat="47.40229" lon="8.0517">
        <ele>366.3</ele>
        <time>2022-10-02T10:04:56Z</time>
      </trkpt>
      <trkpt lat="47.40234" lon="8.05174">
        <ele>366.3</ele>
        <time>2022-10-02T10:04:57Z</time>
      </trkpt>
      <trkpt lat="47.40237" lon="8.05177">
        <ele>366.3</ele>
        <time>2022-10-02T10:04:58Z</time>
      </trkpt>
      <trkpt lat="47.40241" lon="8.0518">
        <ele>366.3</ele>
        <time>2022-10-02T10:04:59Z</time>
      </trkpt>
      <trkpt lat="47.40246" lon="8.05184">
        <ele>366.3</ele>
        <time>2022-10-02T10:05:00Z</time>
      </trkpt>
      <trkpt lat="47.4025" lon="8.05188">
        <ele>366.3</ele>
        <time>2022-10-02T10:05:01Z</time>
      </trkpt>
      <trkpt lat="47.40253" lon="8.05192">
        <ele>366.3</ele>
        <time>2022-10-02T10:05:02Z</time>
      </trkpt>
      <trkpt lat="47.40257" lon="8.05196">
        <ele>366.2</ele>
        <time>2022-10-02T10:05:03Z</time>
      </trkpt>
      <trkpt lat="47.40261" lon="8.052">
        <ele>366.2</ele>
        <time>2022-10-02T10:05:04Z</time>
      </trkpt>
      <trkpt lat="47.40265" lon="8.05206">
        <ele>366.2</ele>
        <time>2022-10-02T10:05:05Z</time>
      </trkpt>
      <trkpt lat="47.40269" lon="8.05209">
        <ele>366.1</ele>
        <time>2022-10-02T10:05:06Z</time>
      </trkpt>
      <trkpt lat="47.40273" lon="8.05213">
        <ele>366.1</ele>
        <time>2022-10-02T10:05:07Z</time>
      </trkpt>
      <trkpt lat="47.40278" lon="8.05218">
        <ele>366.1</ele>
        <time>2022-10-02T10:05:08Z</time>
      </trkpt>
      <trkpt lat="47.40282" lon="8.05221">
        <ele>366.1</ele>
        <time>2022-10-02T10:05:09Z</time>
      </trkpt>
      <trkpt lat="47.40286" lon="8.05225">
        <ele>366</ele>
        <time>2022-10-02T10:05:10Z</time>
      </trkpt>
      <trkpt lat="47.40291" lon="8.05229">
        <ele>366</ele>
        <time>2022-10-02T10:05:11Z</time>
      </trkpt>
      <trkpt lat="47.40294" lon="8.05231">
        <ele>366</ele>
        <time>2022-10-02T10:05:12Z</time>
      </trkpt>
      <trkpt lat="47.40298" lon="8.05234">
        <ele>366</ele>
        <time>2022-10-02T10:05:13Z</time>
      </trkpt>
      <trkpt lat="47.40301" lon="8.05239">
        <ele>366</ele>
        <time>2022-10-02T10:05:14Z</time>
      </trkpt>
      <trkpt lat="47.40306" lon="8.05244">
        <ele>366</ele>
        <time>2022-10-02T10:05:15Z</time>
      </trkpt>
      <trkpt lat="47.4031" lon="8.05249">
        <ele>366</ele>
        <time>2022-10-02T10:05:16Z</time>
      </trkpt>
      <trkpt lat="47.40313" lon="8.05252">
        <ele>366</ele>
        <time>2022-10-02T10:05:17Z</time>
      </trkpt>
      <trkpt lat="47.40317" lon="8.05256">
        <ele>365.9</ele>
        <time>2022-10-02T10:05:18Z</time>
      </trkpt>
      <trkpt lat="47.40321" lon="8.05259">
        <ele>365.9</ele>
        <time>2022-10-02T10:05:19Z</time>
      </trkpt>
      <trkpt lat="47.40325" lon="8.05263">
        <ele>365.9</ele>
        <time>2022-10-02T10:05:20Z</time>
      </trkpt>
      <trkpt lat="47.40328" lon="8.05266">
        <ele>365.9</ele>
        <time>2022-10-02T10:05:21Z</time>
      </trkpt>
      <trkpt lat="47.40332" lon="8.05271">
        <ele>365.9</ele>
        <time>2022-10-02T10:05:22Z</time>
      </trkpt>
      <trkpt lat="47.40337" lon="8.05274">
        <ele>365.9</ele>
        <time>2022-10-02T10:05:23Z</time>
      </trkpt>
      <trkpt lat="47.40339" lon="8.05276">
        <ele>365.9</ele>
        <time>2022-10-02T10:05:24Z</time>
      </trkpt>
      <trkpt lat="47.40343" lon="8.05282">
        <ele>365.9</ele>
        <time>2022-10-02T10:05:25Z</time>
      </trkpt>
      <trkpt lat="47.40347" lon="8.05287">
        <ele>365.9</ele>
        <time>2022-10-02T10:05:26Z</time>
      </trkpt>
      <trkpt lat="47.4035" lon="8.05291">
        <ele>365.9</ele>
        <time>2022-10-02T10:05:27Z</time>
      </trkpt>
      <trkpt lat="47.40353" lon="8.05296">
        <ele>365.9</ele>
        <time>2022-10-02T10:05:28Z</time>
      </trkpt>
      <trkpt lat="47.40357" lon="8.05299">
        <ele>365.9</ele>
        <time>2022-10-02T10:05:29Z</time>
      </trkpt>
      <trkpt lat="47.40361" lon="8.05301">
        <ele>365.9</ele>
        <time>2022-10-02T10:05:30Z</time>
      </trkpt>
      <trkpt lat="47.40363" lon="8.05304">
        <ele>365.9</ele>
        <time>2022-10-02T10:05:31Z</time>
      </trkpt>
      <trkpt lat="47.40368" lon="8.05308">
        <ele>365.9</ele>
        <time>2022-10-02T10:05:32Z</time>
      </trkpt>
      <trkpt lat="47.40372" lon="8.05311">
        <ele>365.9</ele>
        <time>2022-10-02T10:05:33Z</time>
      </trkpt>
      <trkpt lat="47.40376" lon="8.05313">
        <ele>365.9</ele>
        <time>2022-10-02T10:05:34Z</time>
      </trkpt>
      <trkpt lat="47.4038" lon="8.05318">
        <ele>365.9</ele>
        <time>2022-10-02T10:05:35Z</time>
      </trkpt>
      <trkpt lat="47.40384" lon="8.05322">
        <ele>365.9</ele>
        <time>2022-10-02T10:05:36Z</time>
      </trkpt>
      <trkpt lat="47.40389" lon="8.05323">
        <ele>365.9</ele>
        <time>2022-10-02T10:05:37Z</time>
      </trkpt>
      <trkpt lat="47.40391" lon="8.05324">
        <ele>365.9</ele>
        <time>2022-10-02T10:05:38Z</time>
      </trkpt>
      <trkpt lat="47.40395" lon="8.05326">
        <ele>365.9</ele>
        <time>2022-10-02T10:05:39Z</time>
      </trkpt>
      <trkpt lat="47.40399" lon="8.0533">
        <ele>365.9</ele>
        <time>2022-10-02T10:05:41Z</time>
      </trkpt>
      <trkpt lat="47.40404" lon="8.05331">
        <ele>365.9</ele>
        <time>2022-10-02T10:05:42Z</time>
      </trkpt>
      <trkpt lat="47.40406" lon="8.05332">
        <ele>365.8</ele>
        <time>2022-10-02T10:05:43Z</time>
      </trkpt>
      <trkpt lat="47.40411" lon="8.05334">
        <ele>365.8</ele>
        <time>2022-10-02T10:05:44Z</time>
      </trkpt>
      <trkpt lat="47.40416" lon="8.05336">
        <ele>365.8</ele>
        <time>2022-10-02T10:05:45Z</time>
      </trkpt>
      <trkpt lat="47.40422" lon="8.05339">
        <ele>365.8</ele>
        <time>2022-10-02T10:05:46Z</time>
      </trkpt>
      <trkpt lat="47.40426" lon="8.05344">
        <ele>365.8</ele>
        <time>2022-10-02T10:05:47Z</time>
      </trkpt>
      <trkpt lat="47.4043" lon="8.05346">
        <ele>365.8</ele>
        <time>2022-10-02T10:05:48Z</time>
      </trkpt>
      <trkpt lat="47.40436" lon="8.05349">
        <ele>365.8</ele>
        <time>2022-10-02T10:05:49Z</time>
      </trkpt>
      <trkpt lat="47.4044" lon="8.05352">
        <ele>365.8</ele>
        <time>2022-10-02T10:05:50Z</time>
      </trkpt>
      <trkpt lat="47.40445" lon="8.05355">
        <ele>365.7</ele>
        <time>2022-10-02T10:05:51Z</time>
      </trkpt>
      <trkpt lat="47.40448" lon="8.05356">
        <ele>365.7</ele>
        <time>2022-10-02T10:05:52Z</time>
      </trkpt>
      <trkpt lat="47.40451" lon="8.05359">
        <ele>365.7</ele>
        <time>2022-10-02T10:05:53Z</time>
      </trkpt>
      <trkpt lat="47.40454" lon="8.05361">
        <ele>365.7</ele>
        <time>2022-10-02T10:05:54Z</time>
      </trkpt>
      <trkpt lat="47.40457" lon="8.05365">
        <ele>365.7</ele>
        <time>2022-10-02T10:05:55Z</time>
      </trkpt>
      <trkpt lat="47.40461" lon="8.05367">
        <ele>365.7</ele>
        <time>2022-10-02T10:05:56Z</time>
      </trkpt>
      <trkpt lat="47.40465" lon="8.0537">
        <ele>365.7</ele>
        <time>2022-10-02T10:05:57Z</time>
      </trkpt>
      <trkpt lat="47.40468" lon="8.05373">
        <ele>365.7</ele>
        <time>2022-10-02T10:05:58Z</time>
      </trkpt>
      <trkpt lat="47.40471" lon="8.05377">
        <ele>365.7</ele>
        <time>2022-10-02T10:05:59Z</time>
      </trkpt>
      <trkpt lat="47.40474" lon="8.05381">
        <ele>365.7</ele>
        <time>2022-10-02T10:06:00Z</time>
      </trkpt>
      <trkpt lat="47.40476" lon="8.05386">
        <ele>365.7</ele>
        <time>2022-10-02T10:06:01Z</time>
      </trkpt>
      <trkpt lat="47.40479" lon="8.05389">
        <ele>365.8</ele>
        <time>2022-10-02T10:06:02Z</time>
      </trkpt>
      <trkpt lat="47.40482" lon="8.05393">
        <ele>365.8</ele>
        <time>2022-10-02T10:06:03Z</time>
      </trkpt>
      <trkpt lat="47.40485" lon="8.05398">
        <ele>365.8</ele>
        <time>2022-10-02T10:06:04Z</time>
      </trkpt>
      <trkpt lat="47.40488" lon="8.05403">
        <ele>365.8</ele>
        <time>2022-10-02T10:06:05Z</time>
      </trkpt>
      <trkpt lat="47.40491" lon="8.05407">
        <ele>365.8</ele>
        <time>2022-10-02T10:06:06Z</time>
      </trkpt>
      <trkpt lat="47.40494" lon="8.05411">
        <ele>365.8</ele>
        <time>2022-10-02T10:06:07Z</time>
      </trkpt>
      <trkpt lat="47.40498" lon="8.0542">
        <ele>365.8</ele>
        <time>2022-10-02T10:06:08Z</time>
      </trkpt>
      <trkpt lat="47.405" lon="8.05425">
        <ele>365.8</ele>
        <time>2022-10-02T10:06:09Z</time>
      </trkpt>
      <trkpt lat="47.40502" lon="8.05429">
        <ele>365.8</ele>
        <time>2022-10-02T10:06:10Z</time>
      </trkpt>
      <trkpt lat="47.40504" lon="8.05435">
        <ele>365.8</ele>
        <time>2022-10-02T10:06:11Z</time>
      </trkpt>
      <trkpt lat="47.40506" lon="8.0544">
        <ele>365.8</ele>
        <time>2022-10-02T10:06:12Z</time>
      </trkpt>
      <trkpt lat="47.40508" lon="8.05446">
        <ele>365.8</ele>
        <time>2022-10-02T10:06:13Z</time>
      </trkpt>
      <trkpt lat="47.40512" lon="8.05449">
        <ele>365.8</ele>
        <time>2022-10-02T10:06:14Z</time>
      </trkpt>
      <trkpt lat="47.40515" lon="8.05453">
        <ele>365.8</ele>
        <time>2022-10-02T10:06:15Z</time>
      </trkpt>
      <trkpt lat="47.40518" lon="8.05459">
        <ele>365.8</ele>
        <time>2022-10-02T10:06:16Z</time>
      </trkpt>
      <trkpt lat="47.40521" lon="8.05465">
        <ele>365.8</ele>
        <time>2022-10-02T10:06:17Z</time>
      </trkpt>
      <trkpt lat="47.40523" lon="8.05471">
        <ele>365.8</ele>
        <time>2022-10-02T10:06:18Z</time>
      </trkpt>
      <trkpt lat="47.40525" lon="8.05477">
        <ele>365.8</ele>
        <time>2022-10-02T10:06:19Z</time>
      </trkpt>
      <trkpt lat="47.40529" lon="8.05484">
        <ele>365.8</ele>
        <time>2022-10-02T10:06:20Z</time>
      </trkpt>
      <trkpt lat="47.40532" lon="8.0549">
        <ele>365.8</ele>
        <time>2022-10-02T10:06:21Z</time>
      </trkpt>
      <trkpt lat="47.40535" lon="8.05494">
        <ele>365.8</ele>
        <time>2022-10-02T10:06:22Z</time>
      </trkpt>
      <trkpt lat="47.40537" lon="8.05502">
        <ele>365.8</ele>
        <time>2022-10-02T10:06:23Z</time>
      </trkpt>
      <trkpt lat="47.40539" lon="8.05507">
        <ele>365.8</ele>
        <time>2022-10-02T10:06:24Z</time>
      </trkpt>
      <trkpt lat="47.40541" lon="8.05513">
        <ele>365.8</ele>
        <time>2022-10-02T10:06:25Z</time>
      </trkpt>
      <trkpt lat="47.40543" lon="8.05521">
        <ele>365.8</ele>
        <time>2022-10-02T10:06:26Z</time>
      </trkpt>
      <trkpt lat="47.40544" lon="8.05528">
        <ele>365.8</ele>
        <time>2022-10-02T10:06:27Z</time>
      </trkpt>
      <trkpt lat="47.40545" lon="8.05535">
        <ele>365.8</ele>
        <time>2022-10-02T10:06:28Z</time>
      </trkpt>
      <trkpt lat="47.40546" lon="8.05542">
        <ele>365.8</ele>
        <time>2022-10-02T10:06:29Z</time>
      </trkpt>
      <trkpt lat="47.40547" lon="8.05548">
        <ele>365.8</ele>
        <time>2022-10-02T10:06:30Z</time>
      </trkpt>
      <trkpt lat="47.40547" lon="8.05552">
        <ele>365.8</ele>
        <time>2022-10-02T10:06:31Z</time>
      </trkpt>
      <trkpt lat="47.40547" lon="8.05559">
        <ele>365.8</ele>
        <time>2022-10-02T10:06:32Z</time>
      </trkpt>
      <trkpt lat="47.40548" lon="8.05565">
        <ele>365.8</ele>
        <time>2022-10-02T10:06:33Z</time>
      </trkpt>
      <trkpt lat="47.40547" lon="8.0557">
        <ele>365.8</ele>
        <time>2022-10-02T10:06:34Z</time>
      </trkpt>
      <trkpt lat="47.40548" lon="8.05577">
        <ele>365.8</ele>
        <time>2022-10-02T10:06:35Z</time>
      </trkpt>
      <trkpt lat="47.4055" lon="8.05583">
        <ele>365.8</ele>
        <time>2022-10-02T10:06:36Z</time>
      </trkpt>
      <trkpt lat="47.40551" lon="8.0559">
        <ele>365.8</ele>
        <time>2022-10-02T10:06:37Z</time>
      </trkpt>
      <trkpt lat="47.40552" lon="8.05595">
        <ele>365.9</ele>
        <time>2022-10-02T10:06:38Z</time>
      </trkpt>
      <trkpt lat="47.40553" lon="8.056">
        <ele>365.9</ele>
        <time>2022-10-02T10:06:39Z</time>
      </trkpt>
      <trkpt lat="47.40554" lon="8.05606">
        <ele>365.9</ele>
        <time>2022-10-02T10:06:40Z</time>
      </trkpt>
      <trkpt lat="47.40555" lon="8.05614">
        <ele>365.9</ele>
        <time>2022-10-02T10:06:41Z</time>
      </trkpt>
      <trkpt lat="47.40554" lon="8.05622">
        <ele>365.9</ele>
        <time>2022-10-02T10:06:42Z</time>
      </trkpt>
      <trkpt lat="47.40556" lon="8.05626">
        <ele>365.9</ele>
        <time>2022-10-02T10:06:43Z</time>
      </trkpt>
      <trkpt lat="47.40556" lon="8.05631">
        <ele>365.9</ele>
        <time>2022-10-02T10:06:44Z</time>
      </trkpt>
      <trkpt lat="47.40557" lon="8.05636">
        <ele>365.9</ele>
        <time>2022-10-02T10:06:45Z</time>
      </trkpt>
      <trkpt lat="47.40556" lon="8.05642">
        <ele>365.9</ele>
        <time>2022-10-02T10:06:46Z</time>
      </trkpt>
      <trkpt lat="47.40556" lon="8.05649">
        <ele>366</ele>
        <time>2022-10-02T10:06:47Z</time>
      </trkpt>
      <trkpt lat="47.40558" lon="8.05654">
        <ele>366</ele>
        <time>2022-10-02T10:06:48Z</time>
      </trkpt>
      <trkpt lat="47.40558" lon="8.0566">
        <ele>366</ele>
        <time>2022-10-02T10:06:49Z</time>
      </trkpt>
      <trkpt lat="47.40559" lon="8.05667">
        <ele>366</ele>
        <time>2022-10-02T10:06:50Z</time>
      </trkpt>
      <trkpt lat="47.4056" lon="8.05672">
        <ele>366</ele>
        <time>2022-10-02T10:06:51Z</time>
      </trkpt>
      <trkpt lat="47.40561" lon="8.05678">
        <ele>366</ele>
        <time>2022-10-02T10:06:52Z</time>
      </trkpt>
      <trkpt lat="47.40562" lon="8.05684">
        <ele>365.9</ele>
        <time>2022-10-02T10:06:53Z</time>
      </trkpt>
      <trkpt lat="47.40563" lon="8.05691">
        <ele>365.9</ele>
        <time>2022-10-02T10:06:54Z</time>
      </trkpt>
      <trkpt lat="47.40563" lon="8.05697">
        <ele>365.8</ele>
        <time>2022-10-02T10:06:55Z</time>
      </trkpt>
      <trkpt lat="47.40565" lon="8.05705">
        <ele>365.8</ele>
        <time>2022-10-02T10:06:56Z</time>
      </trkpt>
      <trkpt lat="47.40568" lon="8.05712">
        <ele>365.7</ele>
        <time>2022-10-02T10:06:57Z</time>
      </trkpt>
      <trkpt lat="47.40567" lon="8.05719">
        <ele>365.6</ele>
        <time>2022-10-02T10:06:58Z</time>
      </trkpt>
      <trkpt lat="47.40568" lon="8.05726">
        <ele>365.6</ele>
        <time>2022-10-02T10:06:59Z</time>
      </trkpt>
      <trkpt lat="47.40569" lon="8.05733">
        <ele>365.5</ele>
        <time>2022-10-02T10:07:00Z</time>
      </trkpt>
      <trkpt lat="47.4057" lon="8.05742">
        <ele>365.4</ele>
        <time>2022-10-02T10:07:01Z</time>
      </trkpt>
      <trkpt lat="47.40571" lon="8.0575">
        <ele>365.3</ele>
        <time>2022-10-02T10:07:02Z</time>
      </trkpt>
      <trkpt lat="47.40572" lon="8.05758">
        <ele>365.3</ele>
        <time>2022-10-02T10:07:03Z</time>
      </trkpt>
      <trkpt lat="47.40573" lon="8.05766">
        <ele>365.2</ele>
        <time>2022-10-02T10:07:04Z</time>
      </trkpt>
      <trkpt lat="47.40573" lon="8.05774">
        <ele>365.2</ele>
        <time>2022-10-02T10:07:05Z</time>
      </trkpt>
      <trkpt lat="47.40572" lon="8.05781">
        <ele>365.2</ele>
        <time>2022-10-02T10:07:06Z</time>
      </trkpt>
      <trkpt lat="47.40573" lon="8.0579">
        <ele>365.1</ele>
        <time>2022-10-02T10:07:07Z</time>
      </trkpt>
      <trkpt lat="47.40576" lon="8.05796">
        <ele>365.1</ele>
        <time>2022-10-02T10:07:08Z</time>
      </trkpt>
      <trkpt lat="47.40578" lon="8.05805">
        <ele>365.1</ele>
        <time>2022-10-02T10:07:09Z</time>
      </trkpt>
      <trkpt lat="47.40579" lon="8.05813">
        <ele>365.1</ele>
        <time>2022-10-02T10:07:10Z</time>
      </trkpt>
      <trkpt lat="47.4058" lon="8.05819">
        <ele>365</ele>
        <time>2022-10-02T10:07:11Z</time>
      </trkpt>
      <trkpt lat="47.4058" lon="8.05825">
        <ele>365</ele>
        <time>2022-10-02T10:07:12Z</time>
      </trkpt>
      <trkpt lat="47.40582" lon="8.05833">
        <ele>365</ele>
        <time>2022-10-02T10:07:13Z</time>
      </trkpt>
      <trkpt lat="47.40584" lon="8.05841">
        <ele>365</ele>
        <time>2022-10-02T10:07:14Z</time>
      </trkpt>
      <trkpt lat="47.40584" lon="8.05848">
        <ele>364.9</ele>
        <time>2022-10-02T10:07:15Z</time>
      </trkpt>
      <trkpt lat="47.40585" lon="8.05855">
        <ele>364.9</ele>
        <time>2022-10-02T10:07:16Z</time>
      </trkpt>
      <trkpt lat="47.40587" lon="8.05864">
        <ele>364.8</ele>
        <time>2022-10-02T10:07:17Z</time>
      </trkpt>
      <trkpt lat="47.40588" lon="8.05871">
        <ele>364.8</ele>
        <time>2022-10-02T10:07:18Z</time>
      </trkpt>
      <trkpt lat="47.4059" lon="8.05879">
        <ele>364.8</ele>
        <time>2022-10-02T10:07:19Z</time>
      </trkpt>
      <trkpt lat="47.40591" lon="8.05885">
        <ele>364.7</ele>
        <time>2022-10-02T10:07:20Z</time>
      </trkpt>
      <trkpt lat="47.40594" lon="8.05893">
        <ele>364.7</ele>
        <time>2022-10-02T10:07:21Z</time>
      </trkpt>
      <trkpt lat="47.40595" lon="8.05901">
        <ele>364.7</ele>
        <time>2022-10-02T10:07:22Z</time>
      </trkpt>
      <trkpt lat="47.40597" lon="8.05908">
        <ele>364.7</ele>
        <time>2022-10-02T10:07:23Z</time>
      </trkpt>
      <trkpt lat="47.40599" lon="8.05914">
        <ele>364.7</ele>
        <time>2022-10-02T10:07:24Z</time>
      </trkpt>
      <trkpt lat="47.40602" lon="8.0592">
        <ele>364.7</ele>
        <time>2022-10-02T10:07:25Z</time>
      </trkpt>
      <trkpt lat="47.40604" lon="8.05925">
        <ele>364.7</ele>
        <time>2022-10-02T10:07:26Z</time>
      </trkpt>
      <trkpt lat="47.40606" lon="8.05931">
        <ele>364.7</ele>
        <time>2022-10-02T10:07:27Z</time>
      </trkpt>
      <trkpt lat="47.4061" lon="8.05936">
        <ele>364.7</ele>
        <time>2022-10-02T10:07:28Z</time>
      </trkpt>
      <trkpt lat="47.40612" lon="8.05942">
        <ele>364.7</ele>
        <time>2022-10-02T10:07:29Z</time>
      </trkpt>
      <trkpt lat="47.40614" lon="8.05946">
        <ele>364.7</ele>
        <time>2022-10-02T10:07:30Z</time>
      </trkpt>
      <trkpt lat="47.40616" lon="8.0595">
        <ele>364.7</ele>
        <time>2022-10-02T10:07:31Z</time>
      </trkpt>
      <trkpt lat="47.40618" lon="8.05957">
        <ele>364.7</ele>
        <time>2022-10-02T10:07:32Z</time>
      </trkpt>
      <trkpt lat="47.4062" lon="8.05964">
        <ele>364.6</ele>
        <time>2022-10-02T10:07:33Z</time>
      </trkpt>
      <trkpt lat="47.40621" lon="8.05972">
        <ele>364.6</ele>
        <time>2022-10-02T10:07:34Z</time>
      </trkpt>
      <trkpt lat="47.40623" lon="8.05979">
        <ele>364.6</ele>
        <time>2022-10-02T10:07:35Z</time>
      </trkpt>
      <trkpt lat="47.40625" lon="8.05986">
        <ele>364.6</ele>
        <time>2022-10-02T10:07:36Z</time>
      </trkpt>
      <trkpt lat="47.40627" lon="8.0599">
        <ele>364.6</ele>
        <time>2022-10-02T10:07:37Z</time>
      </trkpt>
      <trkpt lat="47.40629" lon="8.05996">
        <ele>364.6</ele>
        <time>2022-10-02T10:07:38Z</time>
      </trkpt>
      <trkpt lat="47.4063" lon="8.06003">
        <ele>364.5</ele>
        <time>2022-10-02T10:07:39Z</time>
      </trkpt>
      <trkpt lat="47.40632" lon="8.06009">
        <ele>364.5</ele>
        <time>2022-10-02T10:07:40Z</time>
      </trkpt>
      <trkpt lat="47.40634" lon="8.06017">
        <ele>364.5</ele>
        <time>2022-10-02T10:07:41Z</time>
      </trkpt>
      <trkpt lat="47.40635" lon="8.06024">
        <ele>364.4</ele>
        <time>2022-10-02T10:07:42Z</time>
      </trkpt>
      <trkpt lat="47.40637" lon="8.0603">
        <ele>364.4</ele>
        <time>2022-10-02T10:07:43Z</time>
      </trkpt>
      <trkpt lat="47.40639" lon="8.06036">
        <ele>364.4</ele>
        <time>2022-10-02T10:07:44Z</time>
      </trkpt>
      <trkpt lat="47.40642" lon="8.06041">
        <ele>364.4</ele>
        <time>2022-10-02T10:07:45Z</time>
      </trkpt>
      <trkpt lat="47.40644" lon="8.06047">
        <ele>364.3</ele>
        <time>2022-10-02T10:07:47Z</time>
      </trkpt>
      <trkpt lat="47.40647" lon="8.06051">
        <ele>364.3</ele>
        <time>2022-10-02T10:07:48Z</time>
      </trkpt>
      <trkpt lat="47.4065" lon="8.06055">
        <ele>364.3</ele>
        <time>2022-10-02T10:07:49Z</time>
      </trkpt>
      <trkpt lat="47.40653" lon="8.06061">
        <ele>364.3</ele>
        <time>2022-10-02T10:07:50Z</time>
      </trkpt>
      <trkpt lat="47.40656" lon="8.06065">
        <ele>364.3</ele>
        <time>2022-10-02T10:07:51Z</time>
      </trkpt>
      <trkpt lat="47.40657" lon="8.0607">
        <ele>364.3</ele>
        <time>2022-10-02T10:07:52Z</time>
      </trkpt>
      <trkpt lat="47.40658" lon="8.06074">
        <ele>364.3</ele>
        <time>2022-10-02T10:07:53Z</time>
      </trkpt>
      <trkpt lat="47.40661" lon="8.0608">
        <ele>364.3</ele>
        <time>2022-10-02T10:07:54Z</time>
      </trkpt>
      <trkpt lat="47.40662" lon="8.06085">
        <ele>364.3</ele>
        <time>2022-10-02T10:07:55Z</time>
      </trkpt>
      <trkpt lat="47.40665" lon="8.06091">
        <ele>364.3</ele>
        <time>2022-10-02T10:07:56Z</time>
      </trkpt>
      <trkpt lat="47.40667" lon="8.06094">
        <ele>364.3</ele>
        <time>2022-10-02T10:07:57Z</time>
      </trkpt>
      <trkpt lat="47.4067" lon="8.061">
        <ele>364.2</ele>
        <time>2022-10-02T10:07:58Z</time>
      </trkpt>
      <trkpt lat="47.40672" lon="8.06105">
        <ele>364.2</ele>
        <time>2022-10-02T10:07:59Z</time>
      </trkpt>
      <trkpt lat="47.40673" lon="8.06107">
        <ele>364.2</ele>
        <time>2022-10-02T10:08:00Z</time>
      </trkpt>
      <trkpt lat="47.40677" lon="8.06114">
        <ele>364.2</ele>
        <time>2022-10-02T10:08:01Z</time>
      </trkpt>
      <trkpt lat="47.40679" lon="8.06118">
        <ele>364.2</ele>
        <time>2022-10-02T10:08:02Z</time>
      </trkpt>
      <trkpt lat="47.40682" lon="8.06122">
        <ele>364.2</ele>
        <time>2022-10-02T10:08:03Z</time>
      </trkpt>
      <trkpt lat="47.40686" lon="8.06129">
        <ele>364.2</ele>
        <time>2022-10-02T10:08:04Z</time>
      </trkpt>
      <trkpt lat="47.40688" lon="8.06133">
        <ele>364.2</ele>
        <time>2022-10-02T10:08:05Z</time>
      </trkpt>
      <trkpt lat="47.40692" lon="8.06138">
        <ele>364.2</ele>
        <time>2022-10-02T10:08:06Z</time>
      </trkpt>
      <trkpt lat="47.40694" lon="8.06143">
        <ele>364.1</ele>
        <time>2022-10-02T10:08:07Z</time>
      </trkpt>
      <trkpt lat="47.40696" lon="8.06148">
        <ele>364.1</ele>
        <time>2022-10-02T10:08:08Z</time>
      </trkpt>
      <trkpt lat="47.40699" lon="8.06153">
        <ele>364.1</ele>
        <time>2022-10-02T10:08:09Z</time>
      </trkpt>
      <trkpt lat="47.40702" lon="8.06159">
        <ele>364.1</ele>
        <time>2022-10-02T10:08:10Z</time>
      </trkpt>
      <trkpt lat="47.40705" lon="8.06164">
        <ele>364.1</ele>
        <time>2022-10-02T10:08:11Z</time>
      </trkpt>
      <trkpt lat="47.40708" lon="8.06169">
        <ele>364.1</ele>
        <time>2022-10-02T10:08:12Z</time>
      </trkpt>
      <trkpt lat="47.4071" lon="8.06173">
        <ele>364.1</ele>
        <time>2022-10-02T10:08:13Z</time>
      </trkpt>
      <trkpt lat="47.40713" lon="8.06179">
        <ele>364.1</ele>
        <time>2022-10-02T10:08:14Z</time>
      </trkpt>
      <trkpt lat="47.40715" lon="8.06184">
        <ele>364.2</ele>
        <time>2022-10-02T10:08:15Z</time>
      </trkpt>
      <trkpt lat="47.40718" lon="8.06186">
        <ele>364.2</ele>
        <time>2022-10-02T10:08:16Z</time>
      </trkpt>
      <trkpt lat="47.4072" lon="8.06192">
        <ele>364.2</ele>
        <time>2022-10-02T10:08:17Z</time>
      </trkpt>
      <trkpt lat="47.40723" lon="8.06197">
        <ele>364.2</ele>
        <time>2022-10-02T10:08:18Z</time>
      </trkpt>
      <trkpt lat="47.40727" lon="8.06204">
        <ele>364.2</ele>
        <time>2022-10-02T10:08:19Z</time>
      </trkpt>
      <trkpt lat="47.40731" lon="8.06211">
        <ele>364.2</ele>
        <time>2022-10-02T10:08:20Z</time>
      </trkpt>
      <trkpt lat="47.40735" lon="8.06218">
        <ele>364.2</ele>
        <time>2022-10-02T10:08:21Z</time>
      </trkpt>
      <trkpt lat="47.40738" lon="8.06225">
        <ele>364.2</ele>
        <time>2022-10-02T10:08:22Z</time>
      </trkpt>
      <trkpt lat="47.40742" lon="8.0623">
        <ele>364.2</ele>
        <time>2022-10-02T10:08:23Z</time>
      </trkpt>
      <trkpt lat="47.40745" lon="8.06236">
        <ele>364.2</ele>
        <time>2022-10-02T10:08:24Z</time>
      </trkpt>
      <trkpt lat="47.40748" lon="8.06242">
        <ele>364.2</ele>
        <time>2022-10-02T10:08:25Z</time>
      </trkpt>
      <trkpt lat="47.40751" lon="8.06247">
        <ele>364.2</ele>
        <time>2022-10-02T10:08:26Z</time>
      </trkpt>
      <trkpt lat="47.40753" lon="8.06251">
        <ele>364.2</ele>
        <time>2022-10-02T10:08:27Z</time>
      </trkpt>
      <trkpt lat="47.40757" lon="8.06258">
        <ele>364.3</ele>
        <time>2022-10-02T10:08:28Z</time>
      </trkpt>
      <trkpt lat="47.4076" lon="8.06263">
        <ele>364.3</ele>
        <time>2022-10-02T10:08:29Z</time>
      </trkpt>
      <trkpt lat="47.40763" lon="8.06269">
        <ele>364.3</ele>
        <time>2022-10-02T10:08:30Z</time>
      </trkpt>
      <trkpt lat="47.40767" lon="8.06273">
        <ele>364.4</ele>
        <time>2022-10-02T10:08:31Z</time>
      </trkpt>
      <trkpt lat="47.40769" lon="8.06278">
        <ele>364.4</ele>
        <time>2022-10-02T10:08:32Z</time>
      </trkpt>
      <trkpt lat="47.40772" lon="8.06283">
        <ele>364.4</ele>
        <time>2022-10-02T10:08:33Z</time>
      </trkpt>
      <trkpt lat="47.40776" lon="8.06288">
        <ele>364.5</ele>
        <time>2022-10-02T10:08:34Z</time>
      </trkpt>
      <trkpt lat="47.40778" lon="8.06294">
        <ele>364.5</ele>
        <time>2022-10-02T10:08:35Z</time>
      </trkpt>
      <trkpt lat="47.40781" lon="8.06298">
        <ele>364.5</ele>
        <time>2022-10-02T10:08:36Z</time>
      </trkpt>
      <trkpt lat="47.40784" lon="8.06304">
        <ele>364.6</ele>
        <time>2022-10-02T10:08:37Z</time>
      </trkpt>
      <trkpt lat="47.40787" lon="8.0631">
        <ele>364.6</ele>
        <time>2022-10-02T10:08:38Z</time>
      </trkpt>
      <trkpt lat="47.4079" lon="8.06315">
        <ele>364.7</ele>
        <time>2022-10-02T10:08:39Z</time>
      </trkpt>
      <trkpt lat="47.40792" lon="8.06319">
        <ele>364.7</ele>
        <time>2022-10-02T10:08:40Z</time>
      </trkpt>
      <trkpt lat="47.40794" lon="8.06324">
        <ele>364.7</ele>
        <time>2022-10-02T10:08:41Z</time>
      </trkpt>
      <trkpt lat="47.40796" lon="8.0633">
        <ele>364.8</ele>
        <time>2022-10-02T10:08:42Z</time>
      </trkpt>
      <trkpt lat="47.40798" lon="8.06335">
        <ele>364.8</ele>
        <time>2022-10-02T10:08:43Z</time>
      </trkpt>
      <trkpt lat="47.40804" lon="8.06346">
        <ele>364.9</ele>
        <time>2022-10-02T10:08:44Z</time>
      </trkpt>
      <trkpt lat="47.40807" lon="8.06351">
        <ele>364.9</ele>
        <time>2022-10-02T10:08:45Z</time>
      </trkpt>
      <trkpt lat="47.4081" lon="8.06356">
        <ele>364.9</ele>
        <time>2022-10-02T10:08:46Z</time>
      </trkpt>
      <trkpt lat="47.40813" lon="8.06361">
        <ele>365</ele>
        <time>2022-10-02T10:08:47Z</time>
      </trkpt>
      <trkpt lat="47.40816" lon="8.06366">
        <ele>365</ele>
        <time>2022-10-02T10:08:48Z</time>
      </trkpt>
      <trkpt lat="47.40819" lon="8.0637">
        <ele>365</ele>
        <time>2022-10-02T10:08:49Z</time>
      </trkpt>
      <trkpt lat="47.40822" lon="8.06376">
        <ele>365.1</ele>
        <time>2022-10-02T10:08:50Z</time>
      </trkpt>
      <trkpt lat="47.40824" lon="8.06381">
        <ele>365.1</ele>
        <time>2022-10-02T10:08:51Z</time>
      </trkpt>
      <trkpt lat="47.40828" lon="8.06386">
        <ele>365.1</ele>
        <time>2022-10-02T10:08:52Z</time>
      </trkpt>
      <trkpt lat="47.40829" lon="8.0639">
        <ele>365.1</ele>
        <time>2022-10-02T10:08:53Z</time>
      </trkpt>
      <trkpt lat="47.40831" lon="8.06393">
        <ele>365.1</ele>
        <time>2022-10-02T10:08:54Z</time>
      </trkpt>
      <trkpt lat="47.40834" lon="8.06398">
        <ele>365.1</ele>
        <time>2022-10-02T10:08:55Z</time>
      </trkpt>
      <trkpt lat="47.40837" lon="8.06403">
        <ele>365.1</ele>
        <time>2022-10-02T10:08:56Z</time>
      </trkpt>
      <trkpt lat="47.4084" lon="8.06408">
        <ele>365.1</ele>
        <time>2022-10-02T10:08:57Z</time>
      </trkpt>
      <trkpt lat="47.40843" lon="8.06413">
        <ele>365.2</ele>
        <time>2022-10-02T10:08:58Z</time>
      </trkpt>
      <trkpt lat="47.40844" lon="8.06418">
        <ele>365.2</ele>
        <time>2022-10-02T10:08:59Z</time>
      </trkpt>
      <trkpt lat="47.40846" lon="8.06423">
        <ele>365.2</ele>
        <time>2022-10-02T10:09:00Z</time>
      </trkpt>
      <trkpt lat="47.40848" lon="8.06428">
        <ele>365.2</ele>
        <time>2022-10-02T10:09:01Z</time>
      </trkpt>
      <trkpt lat="47.40851" lon="8.06435">
        <ele>365.1</ele>
        <time>2022-10-02T10:09:02Z</time>
      </trkpt>
      <trkpt lat="47.40852" lon="8.06438">
        <ele>365.1</ele>
        <time>2022-10-02T10:09:03Z</time>
      </trkpt>
      <trkpt lat="47.40854" lon="8.06444">
        <ele>365.1</ele>
        <time>2022-10-02T10:09:04Z</time>
      </trkpt>
      <trkpt lat="47.40857" lon="8.06449">
        <ele>365</ele>
        <time>2022-10-02T10:09:05Z</time>
      </trkpt>
      <trkpt lat="47.40858" lon="8.06455">
        <ele>365</ele>
        <time>2022-10-02T10:09:06Z</time>
      </trkpt>
      <trkpt lat="47.40859" lon="8.06459">
        <ele>365</ele>
        <time>2022-10-02T10:09:07Z</time>
      </trkpt>
      <trkpt lat="47.4086" lon="8.06466">
        <ele>365</ele>
        <time>2022-10-02T10:09:08Z</time>
      </trkpt>
      <trkpt lat="47.40862" lon="8.0647">
        <ele>365</ele>
        <time>2022-10-02T10:09:09Z</time>
      </trkpt>
      <trkpt lat="47.40863" lon="8.06471">
        <ele>365</ele>
        <time>2022-10-02T10:09:10Z</time>
      </trkpt>
      <trkpt lat="47.40865" lon="8.06475">
        <ele>365</ele>
        <time>2022-10-02T10:09:11Z</time>
      </trkpt>
      <trkpt lat="47.40866" lon="8.0648">
        <ele>364.9</ele>
        <time>2022-10-02T10:09:12Z</time>
      </trkpt>
      <trkpt lat="47.40868" lon="8.06484">
        <ele>364.9</ele>
        <time>2022-10-02T10:09:13Z</time>
      </trkpt>
      <trkpt lat="47.40869" lon="8.0649">
        <ele>364.9</ele>
        <time>2022-10-02T10:09:14Z</time>
      </trkpt>
      <trkpt lat="47.40871" lon="8.06496">
        <ele>364.9</ele>
        <time>2022-10-02T10:09:15Z</time>
      </trkpt>
      <trkpt lat="47.40873" lon="8.06502">
        <ele>364.8</ele>
        <time>2022-10-02T10:09:16Z</time>
      </trkpt>
      <trkpt lat="47.40876" lon="8.06506">
        <ele>364.8</ele>
        <time>2022-10-02T10:09:17Z</time>
      </trkpt>
      <trkpt lat="47.40879" lon="8.06514">
        <ele>364.7</ele>
        <time>2022-10-02T10:09:18Z</time>
      </trkpt>
      <trkpt lat="47.40881" lon="8.06521">
        <ele>364.7</ele>
        <time>2022-10-02T10:09:19Z</time>
      </trkpt>
      <trkpt lat="47.40882" lon="8.06527">
        <ele>364.6</ele>
        <time>2022-10-02T10:09:20Z</time>
      </trkpt>
      <trkpt lat="47.40884" lon="8.06533">
        <ele>364.5</ele>
        <time>2022-10-02T10:09:21Z</time>
      </trkpt>
      <trkpt lat="47.40886" lon="8.06538">
        <ele>364.5</ele>
        <time>2022-10-02T10:09:22Z</time>
      </trkpt>
      <trkpt lat="47.40888" lon="8.06544">
        <ele>364.4</ele>
        <time>2022-10-02T10:09:23Z</time>
      </trkpt>
      <trkpt lat="47.40889" lon="8.06551">
        <ele>364.4</ele>
        <time>2022-10-02T10:09:24Z</time>
      </trkpt>
      <trkpt lat="47.40891" lon="8.06559">
        <ele>364.3</ele>
        <time>2022-10-02T10:09:25Z</time>
      </trkpt>
      <trkpt lat="47.40894" lon="8.06565">
        <ele>364.3</ele>
        <time>2022-10-02T10:09:26Z</time>
      </trkpt>
      <trkpt lat="47.40896" lon="8.06572">
        <ele>364.2</ele>
        <time>2022-10-02T10:09:27Z</time>
      </trkpt>
      <trkpt lat="47.40899" lon="8.06578">
        <ele>364.2</ele>
        <time>2022-10-02T10:09:28Z</time>
      </trkpt>
      <trkpt lat="47.40901" lon="8.06583">
        <ele>364.2</ele>
        <time>2022-10-02T10:09:29Z</time>
      </trkpt>
      <trkpt lat="47.40903" lon="8.06588">
        <ele>364.2</ele>
        <time>2022-10-02T10:09:30Z</time>
      </trkpt>
      <trkpt lat="47.40904" lon="8.06593">
        <ele>364.2</ele>
        <time>2022-10-02T10:09:31Z</time>
      </trkpt>
      <trkpt lat="47.40906" lon="8.06598">
        <ele>364.2</ele>
        <time>2022-10-02T10:09:32Z</time>
      </trkpt>
      <trkpt lat="47.40908" lon="8.06602">
        <ele>364.2</ele>
        <time>2022-10-02T10:09:33Z</time>
      </trkpt>
      <trkpt lat="47.4091" lon="8.06607">
        <ele>364.2</ele>
        <time>2022-10-02T10:09:34Z</time>
      </trkpt>
      <trkpt lat="47.40912" lon="8.06613">
        <ele>364.3</ele>
        <time>2022-10-02T10:09:35Z</time>
      </trkpt>
      <trkpt lat="47.40914" lon="8.06619">
        <ele>364.3</ele>
        <time>2022-10-02T10:09:36Z</time>
      </trkpt>
      <trkpt lat="47.40917" lon="8.06627">
        <ele>364.3</ele>
        <time>2022-10-02T10:09:37Z</time>
      </trkpt>
      <trkpt lat="47.4092" lon="8.06633">
        <ele>364.4</ele>
        <time>2022-10-02T10:09:38Z</time>
      </trkpt>
      <trkpt lat="47.40921" lon="8.06636">
        <ele>364.4</ele>
        <time>2022-10-02T10:09:39Z</time>
      </trkpt>
      <trkpt lat="47.40922" lon="8.0664">
        <ele>364.4</ele>
        <time>2022-10-02T10:09:40Z</time>
      </trkpt>
      <trkpt lat="47.40924" lon="8.06646">
        <ele>364.5</ele>
        <time>2022-10-02T10:09:41Z</time>
      </trkpt>
      <trkpt lat="47.40926" lon="8.06652">
        <ele>364.6</ele>
        <time>2022-10-02T10:09:42Z</time>
      </trkpt>
      <trkpt lat="47.40928" lon="8.06658">
        <ele>364.7</ele>
        <time>2022-10-02T10:09:43Z</time>
      </trkpt>
      <trkpt lat="47.40928" lon="8.06662">
        <ele>364.7</ele>
        <time>2022-10-02T10:09:44Z</time>
      </trkpt>
      <trkpt lat="47.4093" lon="8.06666">
        <ele>364.8</ele>
        <time>2022-10-02T10:09:45Z</time>
      </trkpt>
      <trkpt lat="47.4093" lon="8.06668">
        <ele>364.8</ele>
        <time>2022-10-02T10:09:46Z</time>
      </trkpt>
      <trkpt lat="47.40932" lon="8.06672">
        <ele>364.8</ele>
        <time>2022-10-02T10:09:47Z</time>
      </trkpt>
      <trkpt lat="47.40934" lon="8.06676">
        <ele>364.9</ele>
        <time>2022-10-02T10:09:48Z</time>
      </trkpt>
      <trkpt lat="47.40935" lon="8.06677">
        <ele>364.9</ele>
        <time>2022-10-02T10:09:49Z</time>
      </trkpt>
      <trkpt lat="47.40937" lon="8.06682">
        <ele>365</ele>
        <time>2022-10-02T10:09:50Z</time>
      </trkpt>
      <trkpt lat="47.40938" lon="8.06684">
        <ele>365</ele>
        <time>2022-10-02T10:09:51Z</time>
      </trkpt>
      <trkpt lat="47.4094" lon="8.06689">
        <ele>365</ele>
        <time>2022-10-02T10:09:53Z</time>
      </trkpt>
      <trkpt lat="47.40941" lon="8.06691">
        <ele>365</ele>
        <time>2022-10-02T10:09:54Z</time>
      </trkpt>
      <trkpt lat="47.40941" lon="8.06696">
        <ele>365</ele>
        <time>2022-10-02T10:09:55Z</time>
      </trkpt>
      <trkpt lat="47.40943" lon="8.06701">
        <ele>364.9</ele>
        <time>2022-10-02T10:09:56Z</time>
      </trkpt>
      <trkpt lat="47.40945" lon="8.06706">
        <ele>364.9</ele>
        <time>2022-10-02T10:09:57Z</time>
      </trkpt>
      <trkpt lat="47.40946" lon="8.06711">
        <ele>364.8</ele>
        <time>2022-10-02T10:09:58Z</time>
      </trkpt>
      <trkpt lat="47.40947" lon="8.06713">
        <ele>364.8</ele>
        <time>2022-10-02T10:09:59Z</time>
      </trkpt>
      <trkpt lat="47.40949" lon="8.0672">
        <ele>364.8</ele>
        <time>2022-10-02T10:10:00Z</time>
      </trkpt>
      <trkpt lat="47.40949" lon="8.06724">
        <ele>364.7</ele>
        <time>2022-10-02T10:10:01Z</time>
      </trkpt>
      <trkpt lat="47.40952" lon="8.06727">
        <ele>364.7</ele>
        <time>2022-10-02T10:10:02Z</time>
      </trkpt>
      <trkpt lat="47.40954" lon="8.06733">
        <ele>364.7</ele>
        <time>2022-10-02T10:10:03Z</time>
      </trkpt>
      <trkpt lat="47.40954" lon="8.06736">
        <ele>364.7</ele>
        <time>2022-10-02T10:10:04Z</time>
      </trkpt>
      <trkpt lat="47.40957" lon="8.0674">
        <ele>364.7</ele>
        <time>2022-10-02T10:10:05Z</time>
      </trkpt>
      <trkpt lat="47.40958" lon="8.06742">
        <ele>364.7</ele>
        <time>2022-10-02T10:10:06Z</time>
      </trkpt>
      <trkpt lat="47.4096" lon="8.06746">
        <ele>364.7</ele>
        <time>2022-10-02T10:10:07Z</time>
      </trkpt>
      <trkpt lat="47.40961" lon="8.06748">
        <ele>364.7</ele>
        <time>2022-10-02T10:10:08Z</time>
      </trkpt>
      <trkpt lat="47.40963" lon="8.06754">
        <ele>364.7</ele>
        <time>2022-10-02T10:10:09Z</time>
      </trkpt>
      <trkpt lat="47.40966" lon="8.06757">
        <ele>364.7</ele>
        <time>2022-10-02T10:10:10Z</time>
      </trkpt>
      <trkpt lat="47.40968" lon="8.0676">
        <ele>364.7</ele>
        <time>2022-10-02T10:10:11Z</time>
      </trkpt>
      <trkpt lat="47.40969" lon="8.06761">
        <ele>364.7</ele>
        <time>2022-10-02T10:10:12Z</time>
      </trkpt>
      <trkpt lat="47.40971" lon="8.06765">
        <ele>364.8</ele>
        <time>2022-10-02T10:10:13Z</time>
      </trkpt>
      <trkpt lat="47.40972" lon="8.06766">
        <ele>364.8</ele>
        <time>2022-10-02T10:10:14Z</time>
      </trkpt>
      <trkpt lat="47.40973" lon="8.0677">
        <ele>364.8</ele>
        <time>2022-10-02T10:10:15Z</time>
      </trkpt>
      <trkpt lat="47.40975" lon="8.06773">
        <ele>364.9</ele>
        <time>2022-10-02T10:10:16Z</time>
      </trkpt>
      <trkpt lat="47.40977" lon="8.06778">
        <ele>365</ele>
        <time>2022-10-02T10:10:17Z</time>
      </trkpt>
      <trkpt lat="47.40979" lon="8.06783">
        <ele>365</ele>
        <time>2022-10-02T10:10:18Z</time>
      </trkpt>
      <trkpt lat="47.4098" lon="8.06789">
        <ele>365.1</ele>
        <time>2022-10-02T10:10:19Z</time>
      </trkpt>
      <trkpt lat="47.40981" lon="8.06795">
        <ele>365.2</ele>
        <time>2022-10-02T10:10:20Z</time>
      </trkpt>
      <trkpt lat="47.40981" lon="8.068">
        <ele>365.2</ele>
        <time>2022-10-02T10:10:21Z</time>
      </trkpt>
      <trkpt lat="47.40983" lon="8.06806">
        <ele>365.2</ele>
        <time>2022-10-02T10:10:22Z</time>
      </trkpt>
      <trkpt lat="47.40983" lon="8.06809">
        <ele>365.2</ele>
        <time>2022-10-02T10:10:23Z</time>
      </trkpt>
      <trkpt lat="47.40986" lon="8.06816">
        <ele>365.2</ele>
        <time>2022-10-02T10:10:24Z</time>
      </trkpt>
      <trkpt lat="47.40987" lon="8.06821">
        <ele>365.2</ele>
        <time>2022-10-02T10:10:25Z</time>
      </trkpt>
      <trkpt lat="47.4099" lon="8.06828">
        <ele>365.2</ele>
        <time>2022-10-02T10:10:26Z</time>
      </trkpt>
      <trkpt lat="47.40993" lon="8.06832">
        <ele>365.2</ele>
        <time>2022-10-02T10:10:27Z</time>
      </trkpt>
      <trkpt lat="47.40996" lon="8.06833">
        <ele>365.2</ele>
        <time>2022-10-02T10:10:28Z</time>
      </trkpt>
      <trkpt lat="47.40999" lon="8.06837">
        <ele>365.2</ele>
        <time>2022-10-02T10:10:29Z</time>
      </trkpt>
      <trkpt lat="47.41001" lon="8.06845">
        <ele>365.2</ele>
        <time>2022-10-02T10:10:30Z</time>
      </trkpt>
      <trkpt lat="47.41004" lon="8.06849">
        <ele>365.2</ele>
        <time>2022-10-02T10:10:31Z</time>
      </trkpt>
      <trkpt lat="47.41007" lon="8.06855">
        <ele>365.3</ele>
        <time>2022-10-02T10:10:32Z</time>
      </trkpt>
      <trkpt lat="47.41009" lon="8.06859">
        <ele>365.3</ele>
        <time>2022-10-02T10:10:33Z</time>
      </trkpt>
      <trkpt lat="47.41011" lon="8.06863">
        <ele>365.3</ele>
        <time>2022-10-02T10:10:34Z</time>
      </trkpt>
      <trkpt lat="47.41013" lon="8.06867">
        <ele>365.4</ele>
        <time>2022-10-02T10:10:35Z</time>
      </trkpt>
      <trkpt lat="47.41014" lon="8.0687">
        <ele>365.4</ele>
        <time>2022-10-02T10:10:36Z</time>
      </trkpt>
      <trkpt lat="47.41017" lon="8.06873">
        <ele>365.4</ele>
        <time>2022-10-02T10:10:37Z</time>
      </trkpt>
      <trkpt lat="47.41019" lon="8.06877">
        <ele>365.5</ele>
        <time>2022-10-02T10:10:38Z</time>
      </trkpt>
      <trkpt lat="47.41021" lon="8.0688">
        <ele>365.5</ele>
        <time>2022-10-02T10:10:39Z</time>
      </trkpt>
      <trkpt lat="47.41023" lon="8.06885">
        <ele>365.5</ele>
        <time>2022-10-02T10:10:40Z</time>
      </trkpt>
      <trkpt lat="47.41028" lon="8.06892">
        <ele>365.5</ele>
        <time>2022-10-02T10:10:41Z</time>
      </trkpt>
      <trkpt lat="47.4103" lon="8.06897">
        <ele>365.6</ele>
        <time>2022-10-02T10:10:42Z</time>
      </trkpt>
      <trkpt lat="47.41032" lon="8.06904">
        <ele>365.6</ele>
        <time>2022-10-02T10:10:43Z</time>
      </trkpt>
      <trkpt lat="47.41034" lon="8.0691">
        <ele>365.6</ele>
        <time>2022-10-02T10:10:44Z</time>
      </trkpt>
      <trkpt lat="47.41037" lon="8.06913">
        <ele>365.6</ele>
        <time>2022-10-02T10:10:45Z</time>
      </trkpt>
      <trkpt lat="47.41038" lon="8.0692">
        <ele>365.6</ele>
        <time>2022-10-02T10:10:46Z</time>
      </trkpt>
      <trkpt lat="47.4104" lon="8.06927">
        <ele>365.6</ele>
        <time>2022-10-02T10:10:47Z</time>
      </trkpt>
      <trkpt lat="47.41043" lon="8.06933">
        <ele>365.6</ele>
        <time>2022-10-02T10:10:48Z</time>
      </trkpt>
      <trkpt lat="47.41045" lon="8.06939">
        <ele>365.6</ele>
        <time>2022-10-02T10:10:49Z</time>
      </trkpt>
      <trkpt lat="47.41048" lon="8.06946">
        <ele>365.6</ele>
        <time>2022-10-02T10:10:50Z</time>
      </trkpt>
      <trkpt lat="47.41051" lon="8.06953">
        <ele>365.6</ele>
        <time>2022-10-02T10:10:51Z</time>
      </trkpt>
      <trkpt lat="47.41053" lon="8.0696">
        <ele>365.5</ele>
        <time>2022-10-02T10:10:52Z</time>
      </trkpt>
      <trkpt lat="47.41055" lon="8.06966">
        <ele>365.5</ele>
        <time>2022-10-02T10:10:53Z</time>
      </trkpt>
      <trkpt lat="47.41058" lon="8.0697">
        <ele>365.5</ele>
        <time>2022-10-02T10:10:54Z</time>
      </trkpt>
      <trkpt lat="47.41061" lon="8.06979">
        <ele>365.5</ele>
        <time>2022-10-02T10:10:55Z</time>
      </trkpt>
      <trkpt lat="47.41063" lon="8.06986">
        <ele>365.5</ele>
        <time>2022-10-02T10:10:56Z</time>
      </trkpt>
      <trkpt lat="47.41066" lon="8.06992">
        <ele>365.5</ele>
        <time>2022-10-02T10:10:57Z</time>
      </trkpt>
      <trkpt lat="47.41067" lon="8.06998">
        <ele>365.5</ele>
        <time>2022-10-02T10:10:58Z</time>
      </trkpt>
      <trkpt lat="47.4107" lon="8.07005">
        <ele>365.5</ele>
        <time>2022-10-02T10:10:59Z</time>
      </trkpt>
      <trkpt lat="47.41071" lon="8.07012">
        <ele>365.5</ele>
        <time>2022-10-02T10:11:00Z</time>
      </trkpt>
      <trkpt lat="47.41073" lon="8.07017">
        <ele>365.5</ele>
        <time>2022-10-02T10:11:01Z</time>
      </trkpt>
      <trkpt lat="47.41075" lon="8.07023">
        <ele>365.5</ele>
        <time>2022-10-02T10:11:02Z</time>
      </trkpt>
      <trkpt lat="47.41078" lon="8.07028">
        <ele>365.5</ele>
        <time>2022-10-02T10:11:03Z</time>
      </trkpt>
      <trkpt lat="47.41079" lon="8.07035">
        <ele>365.5</ele>
        <time>2022-10-02T10:11:04Z</time>
      </trkpt>
      <trkpt lat="47.4108" lon="8.0704">
        <ele>365.5</ele>
        <time>2022-10-02T10:11:05Z</time>
      </trkpt>
      <trkpt lat="47.41082" lon="8.07047">
        <ele>365.5</ele>
        <time>2022-10-02T10:11:06Z</time>
      </trkpt>
      <trkpt lat="47.41083" lon="8.07053">
        <ele>365.5</ele>
        <time>2022-10-02T10:11:07Z</time>
      </trkpt>
      <trkpt lat="47.41084" lon="8.0706">
        <ele>365.5</ele>
        <time>2022-10-02T10:11:08Z</time>
      </trkpt>
      <trkpt lat="47.41087" lon="8.07067">
        <ele>365.5</ele>
        <time>2022-10-02T10:11:09Z</time>
      </trkpt>
      <trkpt lat="47.41088" lon="8.07073">
        <ele>365.5</ele>
        <time>2022-10-02T10:11:10Z</time>
      </trkpt>
      <trkpt lat="47.4109" lon="8.07081">
        <ele>365.5</ele>
        <time>2022-10-02T10:11:11Z</time>
      </trkpt>
      <trkpt lat="47.41092" lon="8.07087">
        <ele>365.5</ele>
        <time>2022-10-02T10:11:12Z</time>
      </trkpt>
      <trkpt lat="47.41092" lon="8.07094">
        <ele>365.5</ele>
        <time>2022-10-02T10:11:13Z</time>
      </trkpt>
      <trkpt lat="47.41094" lon="8.071">
        <ele>365.4</ele>
        <time>2022-10-02T10:11:14Z</time>
      </trkpt>
      <trkpt lat="47.41097" lon="8.07109">
        <ele>365.4</ele>
        <time>2022-10-02T10:11:15Z</time>
      </trkpt>
      <trkpt lat="47.41099" lon="8.07117">
        <ele>365.4</ele>
        <time>2022-10-02T10:11:16Z</time>
      </trkpt>
      <trkpt lat="47.41101" lon="8.07124">
        <ele>365.4</ele>
        <time>2022-10-02T10:11:17Z</time>
      </trkpt>
      <trkpt lat="47.41103" lon="8.07131">
        <ele>365.4</ele>
        <time>2022-10-02T10:11:18Z</time>
      </trkpt>
      <trkpt lat="47.41103" lon="8.07138">
        <ele>365.4</ele>
        <time>2022-10-02T10:11:19Z</time>
      </trkpt>
      <trkpt lat="47.41105" lon="8.07146">
        <ele>365.4</ele>
        <time>2022-10-02T10:11:20Z</time>
      </trkpt>
      <trkpt lat="47.41107" lon="8.07154">
        <ele>365.4</ele>
        <time>2022-10-02T10:11:21Z</time>
      </trkpt>
      <trkpt lat="47.41107" lon="8.07162">
        <ele>365.4</ele>
        <time>2022-10-02T10:11:22Z</time>
      </trkpt>
      <trkpt lat="47.41109" lon="8.0717">
        <ele>365.3</ele>
        <time>2022-10-02T10:11:23Z</time>
      </trkpt>
      <trkpt lat="47.4111" lon="8.07178">
        <ele>365.3</ele>
        <time>2022-10-02T10:11:24Z</time>
      </trkpt>
      <trkpt lat="47.4111" lon="8.07185">
        <ele>365.3</ele>
        <time>2022-10-02T10:11:25Z</time>
      </trkpt>
      <trkpt lat="47.41112" lon="8.07193">
        <ele>365.3</ele>
        <time>2022-10-02T10:11:26Z</time>
      </trkpt>
      <trkpt lat="47.41113" lon="8.07202">
        <ele>365.4</ele>
        <time>2022-10-02T10:11:27Z</time>
      </trkpt>
      <trkpt lat="47.41114" lon="8.0721">
        <ele>365.4</ele>
        <time>2022-10-02T10:11:28Z</time>
      </trkpt>
      <trkpt lat="47.41116" lon="8.07217">
        <ele>365.4</ele>
        <time>2022-10-02T10:11:29Z</time>
      </trkpt>
      <trkpt lat="47.41116" lon="8.07224">
        <ele>365.4</ele>
        <time>2022-10-02T10:11:30Z</time>
      </trkpt>
      <trkpt lat="47.41118" lon="8.07232">
        <ele>365.4</ele>
        <time>2022-10-02T10:11:31Z</time>
      </trkpt>
      <trkpt lat="47.41118" lon="8.07239">
        <ele>365.4</ele>
        <time>2022-10-02T10:11:32Z</time>
      </trkpt>
      <trkpt lat="47.41118" lon="8.07245">
        <ele>365.4</ele>
        <time>2022-10-02T10:11:33Z</time>
      </trkpt>
      <trkpt lat="47.41119" lon="8.07252">
        <ele>365.4</ele>
        <time>2022-10-02T10:11:34Z</time>
      </trkpt>
      <trkpt lat="47.4112" lon="8.07259">
        <ele>365.4</ele>
        <time>2022-10-02T10:11:35Z</time>
      </trkpt>
      <trkpt lat="47.41121" lon="8.07265">
        <ele>365.4</ele>
        <time>2022-10-02T10:11:36Z</time>
      </trkpt>
      <trkpt lat="47.41121" lon="8.07271">
        <ele>365.4</ele>
        <time>2022-10-02T10:11:37Z</time>
      </trkpt>
      <trkpt lat="47.41122" lon="8.07278">
        <ele>365.4</ele>
        <time>2022-10-02T10:11:38Z</time>
      </trkpt>
      <trkpt lat="47.41123" lon="8.07284">
        <ele>365.4</ele>
        <time>2022-10-02T10:11:39Z</time>
      </trkpt>
      <trkpt lat="47.41123" lon="8.07289">
        <ele>365.4</ele>
        <time>2022-10-02T10:11:40Z</time>
      </trkpt>
      <trkpt lat="47.41123" lon="8.07296">
        <ele>365.4</ele>
        <time>2022-10-02T10:11:41Z</time>
      </trkpt>
      <trkpt lat="47.41123" lon="8.07304">
        <ele>365.4</ele>
        <time>2022-10-02T10:11:42Z</time>
      </trkpt>
      <trkpt lat="47.41122" lon="8.0731">
        <ele>365.3</ele>
        <time>2022-10-02T10:11:43Z</time>
      </trkpt>
      <trkpt lat="47.41122" lon="8.07317">
        <ele>365.3</ele>
        <time>2022-10-02T10:11:44Z</time>
      </trkpt>
      <trkpt lat="47.41122" lon="8.07323">
        <ele>365.3</ele>
        <time>2022-10-02T10:11:45Z</time>
      </trkpt>
      <trkpt lat="47.41122" lon="8.07331">
        <ele>365.3</ele>
        <time>2022-10-02T10:11:46Z</time>
      </trkpt>
      <trkpt lat="47.41122" lon="8.07338">
        <ele>365.2</ele>
        <time>2022-10-02T10:11:47Z</time>
      </trkpt>
      <trkpt lat="47.41122" lon="8.07345">
        <ele>365.2</ele>
        <time>2022-10-02T10:11:48Z</time>
      </trkpt>
      <trkpt lat="47.41122" lon="8.07352">
        <ele>365.2</ele>
        <time>2022-10-02T10:11:49Z</time>
      </trkpt>
      <trkpt lat="47.41122" lon="8.0736">
        <ele>365.2</ele>
        <time>2022-10-02T10:11:50Z</time>
      </trkpt>
      <trkpt lat="47.41122" lon="8.07367">
        <ele>365.1</ele>
        <time>2022-10-02T10:11:51Z</time>
      </trkpt>
      <trkpt lat="47.41121" lon="8.07375">
        <ele>365.1</ele>
        <time>2022-10-02T10:11:52Z</time>
      </trkpt>
      <trkpt lat="47.41121" lon="8.07382">
        <ele>365.1</ele>
        <time>2022-10-02T10:11:53Z</time>
      </trkpt>
      <trkpt lat="47.41121" lon="8.07391">
        <ele>365.1</ele>
        <time>2022-10-02T10:11:54Z</time>
      </trkpt>
      <trkpt lat="47.4112" lon="8.07398">
        <ele>365.1</ele>
        <time>2022-10-02T10:11:55Z</time>
      </trkpt>
      <trkpt lat="47.41119" lon="8.07406">
        <ele>365.1</ele>
        <time>2022-10-02T10:11:56Z</time>
      </trkpt>
      <trkpt lat="47.41118" lon="8.07413">
        <ele>365.1</ele>
        <time>2022-10-02T10:11:57Z</time>
      </trkpt>
      <trkpt lat="47.41116" lon="8.0742">
        <ele>365.1</ele>
        <time>2022-10-02T10:11:58Z</time>
      </trkpt>
      <trkpt lat="47.41115" lon="8.07428">
        <ele>365.1</ele>
        <time>2022-10-02T10:11:59Z</time>
      </trkpt>
      <trkpt lat="47.41114" lon="8.07435">
        <ele>365.1</ele>
        <time>2022-10-02T10:12:01Z</time>
      </trkpt>
      <trkpt lat="47.41114" lon="8.07441">
        <ele>365.2</ele>
        <time>2022-10-02T10:12:02Z</time>
      </trkpt>
      <trkpt lat="47.41113" lon="8.07448">
        <ele>365.2</ele>
        <time>2022-10-02T10:12:03Z</time>
      </trkpt>
      <trkpt lat="47.41112" lon="8.07457">
        <ele>365.2</ele>
        <time>2022-10-02T10:12:04Z</time>
      </trkpt>
      <trkpt lat="47.41112" lon="8.07461">
        <ele>365.2</ele>
        <time>2022-10-02T10:12:05Z</time>
      </trkpt>
      <trkpt lat="47.41109" lon="8.07475">
        <ele>365.1</ele>
        <time>2022-10-02T10:12:06Z</time>
      </trkpt>
      <trkpt lat="47.41107" lon="8.07483">
        <ele>365.1</ele>
        <time>2022-10-02T10:12:07Z</time>
      </trkpt>
      <trkpt lat="47.41106" lon="8.0749">
        <ele>365.1</ele>
        <time>2022-10-02T10:12:08Z</time>
      </trkpt>
      <trkpt lat="47.41105" lon="8.07498">
        <ele>365.1</ele>
        <time>2022-10-02T10:12:09Z</time>
      </trkpt>
      <trkpt lat="47.41105" lon="8.07505">
        <ele>365.1</ele>
        <time>2022-10-02T10:12:10Z</time>
      </trkpt>
      <trkpt lat="47.41104" lon="8.07512">
        <ele>365.1</ele>
        <time>2022-10-02T10:12:11Z</time>
      </trkpt>
      <trkpt lat="47.41102" lon="8.07522">
        <ele>365.1</ele>
        <time>2022-10-02T10:12:12Z</time>
      </trkpt>
      <trkpt lat="47.41101" lon="8.07528">
        <ele>365.1</ele>
        <time>2022-10-02T10:12:13Z</time>
      </trkpt>
      <trkpt lat="47.411" lon="8.07534">
        <ele>365</ele>
        <time>2022-10-02T10:12:15Z</time>
      </trkpt>
      <trkpt lat="47.41098" lon="8.07548">
        <ele>365</ele>
        <time>2022-10-02T10:12:16Z</time>
      </trkpt>
      <trkpt lat="47.41097" lon="8.07557">
        <ele>365</ele>
        <time>2022-10-02T10:12:17Z</time>
      </trkpt>
      <trkpt lat="47.41095" lon="8.07567">
        <ele>365</ele>
        <time>2022-10-02T10:12:18Z</time>
      </trkpt>
      <trkpt lat="47.41095" lon="8.07574">
        <ele>365</ele>
        <time>2022-10-02T10:12:19Z</time>
      </trkpt>
      <trkpt lat="47.41094" lon="8.07583">
        <ele>365</ele>
        <time>2022-10-02T10:12:20Z</time>
      </trkpt>
      <trkpt lat="47.41092" lon="8.07592">
        <ele>365</ele>
        <time>2022-10-02T10:12:21Z</time>
      </trkpt>
      <trkpt lat="47.41093" lon="8.07599">
        <ele>365</ele>
        <time>2022-10-02T10:12:22Z</time>
      </trkpt>
      <trkpt lat="47.41091" lon="8.07608">
        <ele>365</ele>
        <time>2022-10-02T10:12:23Z</time>
      </trkpt>
      <trkpt lat="47.4109" lon="8.07617">
        <ele>365</ele>
        <time>2022-10-02T10:12:24Z</time>
      </trkpt>
      <trkpt lat="47.41089" lon="8.07626">
        <ele>365</ele>
        <time>2022-10-02T10:12:25Z</time>
      </trkpt>
      <trkpt lat="47.41087" lon="8.07634">
        <ele>365</ele>
        <time>2022-10-02T10:12:26Z</time>
      </trkpt>
      <trkpt lat="47.41085" lon="8.07641">
        <ele>365</ele>
        <time>2022-10-02T10:12:27Z</time>
      </trkpt>
      <trkpt lat="47.41084" lon="8.07649">
        <ele>365</ele>
        <time>2022-10-02T10:12:28Z</time>
      </trkpt>
      <trkpt lat="47.41083" lon="8.07656">
        <ele>365</ele>
        <time>2022-10-02T10:12:29Z</time>
      </trkpt>
      <trkpt lat="47.41082" lon="8.07662">
        <ele>365</ele>
        <time>2022-10-02T10:12:30Z</time>
      </trkpt>
      <trkpt lat="47.41081" lon="8.0767">
        <ele>365</ele>
        <time>2022-10-02T10:12:31Z</time>
      </trkpt>
      <trkpt lat="47.4108" lon="8.07678">
        <ele>364.9</ele>
        <time>2022-10-02T10:12:32Z</time>
      </trkpt>
      <trkpt lat="47.41077" lon="8.07686">
        <ele>364.9</ele>
        <time>2022-10-02T10:12:33Z</time>
      </trkpt>
      <trkpt lat="47.41077" lon="8.07695">
        <ele>364.9</ele>
        <time>2022-10-02T10:12:34Z</time>
      </trkpt>
      <trkpt lat="47.41076" lon="8.077">
        <ele>364.9</ele>
        <time>2022-10-02T10:12:35Z</time>
      </trkpt>
      <trkpt lat="47.41075" lon="8.07706">
        <ele>364.9</ele>
        <time>2022-10-02T10:12:36Z</time>
      </trkpt>
      <trkpt lat="47.41074" lon="8.07716">
        <ele>364.9</ele>
        <time>2022-10-02T10:12:37Z</time>
      </trkpt>
      <trkpt lat="47.41073" lon="8.07724">
        <ele>364.9</ele>
        <time>2022-10-02T10:12:38Z</time>
      </trkpt>
      <trkpt lat="47.41073" lon="8.0773">
        <ele>364.8</ele>
        <time>2022-10-02T10:12:39Z</time>
      </trkpt>
      <trkpt lat="47.41071" lon="8.07736">
        <ele>364.8</ele>
        <time>2022-10-02T10:12:40Z</time>
      </trkpt>
      <trkpt lat="47.41071" lon="8.07742">
        <ele>364.8</ele>
        <time>2022-10-02T10:12:41Z</time>
      </trkpt>
      <trkpt lat="47.41071" lon="8.07751">
        <ele>364.8</ele>
        <time>2022-10-02T10:12:42Z</time>
      </trkpt>
      <trkpt lat="47.41068" lon="8.0776">
        <ele>364.8</ele>
        <time>2022-10-02T10:12:43Z</time>
      </trkpt>
      <trkpt lat="47.41068" lon="8.07769">
        <ele>364.8</ele>
        <time>2022-10-02T10:12:44Z</time>
      </trkpt>
      <trkpt lat="47.41066" lon="8.07776">
        <ele>364.8</ele>
        <time>2022-10-02T10:12:45Z</time>
      </trkpt>
      <trkpt lat="47.41067" lon="8.07784">
        <ele>364.8</ele>
        <time>2022-10-02T10:12:46Z</time>
      </trkpt>
      <trkpt lat="47.41065" lon="8.07793">
        <ele>364.8</ele>
        <time>2022-10-02T10:12:47Z</time>
      </trkpt>
      <trkpt lat="47.41063" lon="8.07802">
        <ele>364.7</ele>
        <time>2022-10-02T10:12:48Z</time>
      </trkpt>
      <trkpt lat="47.41063" lon="8.07808">
        <ele>364.7</ele>
        <time>2022-10-02T10:12:49Z</time>
      </trkpt>
      <trkpt lat="47.41064" lon="8.07815">
        <ele>364.7</ele>
        <time>2022-10-02T10:12:50Z</time>
      </trkpt>
      <trkpt lat="47.41062" lon="8.07825">
        <ele>364.7</ele>
        <time>2022-10-02T10:12:51Z</time>
      </trkpt>
      <trkpt lat="47.41063" lon="8.07833">
        <ele>364.7</ele>
        <time>2022-10-02T10:12:52Z</time>
      </trkpt>
      <trkpt lat="47.41062" lon="8.07838">
        <ele>364.7</ele>
        <time>2022-10-02T10:12:53Z</time>
      </trkpt>
      <trkpt lat="47.41062" lon="8.07844">
        <ele>364.7</ele>
        <time>2022-10-02T10:12:54Z</time>
      </trkpt>
      <trkpt lat="47.41063" lon="8.07853">
        <ele>364.7</ele>
        <time>2022-10-02T10:12:55Z</time>
      </trkpt>
      <trkpt lat="47.41062" lon="8.07864">
        <ele>364.7</ele>
        <time>2022-10-02T10:12:56Z</time>
      </trkpt>
      <trkpt lat="47.41061" lon="8.07875">
        <ele>364.7</ele>
        <time>2022-10-02T10:12:57Z</time>
      </trkpt>
      <trkpt lat="47.41061" lon="8.07884">
        <ele>364.7</ele>
        <time>2022-10-02T10:12:58Z</time>
      </trkpt>
      <trkpt lat="47.41062" lon="8.07892">
        <ele>364.7</ele>
        <time>2022-10-02T10:12:59Z</time>
      </trkpt>
      <trkpt lat="47.41063" lon="8.07898">
        <ele>364.6</ele>
        <time>2022-10-02T10:13:00Z</time>
      </trkpt>
      <trkpt lat="47.41063" lon="8.07908">
        <ele>364.6</ele>
        <time>2022-10-02T10:13:01Z</time>
      </trkpt>
      <trkpt lat="47.41061" lon="8.07916">
        <ele>364.6</ele>
        <time>2022-10-02T10:13:02Z</time>
      </trkpt>
      <trkpt lat="47.41062" lon="8.07927">
        <ele>364.6</ele>
        <time>2022-10-02T10:13:03Z</time>
      </trkpt>
      <trkpt lat="47.41062" lon="8.07935">
        <ele>364.6</ele>
        <time>2022-10-02T10:13:04Z</time>
      </trkpt>
      <trkpt lat="47.41062" lon="8.07944">
        <ele>364.6</ele>
        <time>2022-10-02T10:13:05Z</time>
      </trkpt>
      <trkpt lat="47.41063" lon="8.07953">
        <ele>364.6</ele>
        <time>2022-10-02T10:13:06Z</time>
      </trkpt>
      <trkpt lat="47.41063" lon="8.07961">
        <ele>364.6</ele>
        <time>2022-10-02T10:13:07Z</time>
      </trkpt>
      <trkpt lat="47.41062" lon="8.0797">
        <ele>364.6</ele>
        <time>2022-10-02T10:13:08Z</time>
      </trkpt>
      <trkpt lat="47.41064" lon="8.07979">
        <ele>364.6</ele>
        <time>2022-10-02T10:13:09Z</time>
      </trkpt>
      <trkpt lat="47.41066" lon="8.07987">
        <ele>364.6</ele>
        <time>2022-10-02T10:13:10Z</time>
      </trkpt>
      <trkpt lat="47.41066" lon="8.07995">
        <ele>364.6</ele>
        <time>2022-10-02T10:13:11Z</time>
      </trkpt>
      <trkpt lat="47.41066" lon="8.08004">
        <ele>364.6</ele>
        <time>2022-10-02T10:13:12Z</time>
      </trkpt>
      <trkpt lat="47.41067" lon="8.08011">
        <ele>364.6</ele>
        <time>2022-10-02T10:13:13Z</time>
      </trkpt>
      <trkpt lat="47.41067" lon="8.08021">
        <ele>364.6</ele>
        <time>2022-10-02T10:13:14Z</time>
      </trkpt>
      <trkpt lat="47.41068" lon="8.08031">
        <ele>364.5</ele>
        <time>2022-10-02T10:13:15Z</time>
      </trkpt>
      <trkpt lat="47.41069" lon="8.0804">
        <ele>364.5</ele>
        <time>2022-10-02T10:13:16Z</time>
      </trkpt>
      <trkpt lat="47.4107" lon="8.08048">
        <ele>364.5</ele>
        <time>2022-10-02T10:13:17Z</time>
      </trkpt>
      <trkpt lat="47.4107" lon="8.08057">
        <ele>364.5</ele>
        <time>2022-10-02T10:13:18Z</time>
      </trkpt>
      <trkpt lat="47.41071" lon="8.08063">
        <ele>364.6</ele>
        <time>2022-10-02T10:13:19Z</time>
      </trkpt>
      <trkpt lat="47.41073" lon="8.08072">
        <ele>364.6</ele>
        <time>2022-10-02T10:13:20Z</time>
      </trkpt>
      <trkpt lat="47.41075" lon="8.0808">
        <ele>364.6</ele>
        <time>2022-10-02T10:13:21Z</time>
      </trkpt>
      <trkpt lat="47.41076" lon="8.08088">
        <ele>364.6</ele>
        <time>2022-10-02T10:13:22Z</time>
      </trkpt>
      <trkpt lat="47.41076" lon="8.08095">
        <ele>364.6</ele>
        <time>2022-10-02T10:13:23Z</time>
      </trkpt>
      <trkpt lat="47.41078" lon="8.08104">
        <ele>364.5</ele>
        <time>2022-10-02T10:13:24Z</time>
      </trkpt>
      <trkpt lat="47.41081" lon="8.08111">
        <ele>364.5</ele>
        <time>2022-10-02T10:13:25Z</time>
      </trkpt>
      <trkpt lat="47.41083" lon="8.08119">
        <ele>364.4</ele>
        <time>2022-10-02T10:13:26Z</time>
      </trkpt>
      <trkpt lat="47.41085" lon="8.08127">
        <ele>364.4</ele>
        <time>2022-10-02T10:13:27Z</time>
      </trkpt>
      <trkpt lat="47.41088" lon="8.08133">
        <ele>364.4</ele>
        <time>2022-10-02T10:13:28Z</time>
      </trkpt>
      <trkpt lat="47.41091" lon="8.0814">
        <ele>364.4</ele>
        <time>2022-10-02T10:13:29Z</time>
      </trkpt>
      <trkpt lat="47.41093" lon="8.08145">
        <ele>364.4</ele>
        <time>2022-10-02T10:13:30Z</time>
      </trkpt>
      <trkpt lat="47.41095" lon="8.08151">
        <ele>364.4</ele>
        <time>2022-10-02T10:13:31Z</time>
      </trkpt>
      <trkpt lat="47.41098" lon="8.08159">
        <ele>364.4</ele>
        <time>2022-10-02T10:13:32Z</time>
      </trkpt>
      <trkpt lat="47.41101" lon="8.08165">
        <ele>364.4</ele>
        <time>2022-10-02T10:13:33Z</time>
      </trkpt>
      <trkpt lat="47.41104" lon="8.08171">
        <ele>364.4</ele>
        <time>2022-10-02T10:13:34Z</time>
      </trkpt>
      <trkpt lat="47.41107" lon="8.08176">
        <ele>364.5</ele>
        <time>2022-10-02T10:13:35Z</time>
      </trkpt>
      <trkpt lat="47.4111" lon="8.0818">
        <ele>364.5</ele>
        <time>2022-10-02T10:13:36Z</time>
      </trkpt>
      <trkpt lat="47.41113" lon="8.08185">
        <ele>364.6</ele>
        <time>2022-10-02T10:13:37Z</time>
      </trkpt>
      <trkpt lat="47.41114" lon="8.08189">
        <ele>364.6</ele>
        <time>2022-10-02T10:13:38Z</time>
      </trkpt>
      <trkpt lat="47.41116" lon="8.08193">
        <ele>364.7</ele>
        <time>2022-10-02T10:13:39Z</time>
      </trkpt>
      <trkpt lat="47.4112" lon="8.08196">
        <ele>364.7</ele>
        <time>2022-10-02T10:13:40Z</time>
      </trkpt>
      <trkpt lat="47.41122" lon="8.082">
        <ele>364.8</ele>
        <time>2022-10-02T10:13:41Z</time>
      </trkpt>
      <trkpt lat="47.41123" lon="8.08204">
        <ele>364.8</ele>
        <time>2022-10-02T10:13:42Z</time>
      </trkpt>
      <trkpt lat="47.41124" lon="8.08209">
        <ele>364.9</ele>
        <time>2022-10-02T10:13:43Z</time>
      </trkpt>
      <trkpt lat="47.41126" lon="8.08212">
        <ele>364.9</ele>
        <time>2022-10-02T10:13:44Z</time>
      </trkpt>
      <trkpt lat="47.41129" lon="8.08217">
        <ele>364.8</ele>
        <time>2022-10-02T10:13:45Z</time>
      </trkpt>
      <trkpt lat="47.41131" lon="8.08221">
        <ele>364.8</ele>
        <time>2022-10-02T10:13:46Z</time>
      </trkpt>
      <trkpt lat="47.41135" lon="8.08225">
        <ele>364.6</ele>
        <time>2022-10-02T10:13:47Z</time>
      </trkpt>
      <trkpt lat="47.41138" lon="8.08229">
        <ele>364.6</ele>
        <time>2022-10-02T10:13:48Z</time>
      </trkpt>
      <trkpt lat="47.41141" lon="8.08234">
        <ele>364.5</ele>
        <time>2022-10-02T10:13:49Z</time>
      </trkpt>
      <trkpt lat="47.41144" lon="8.08239">
        <ele>364.4</ele>
        <time>2022-10-02T10:13:50Z</time>
      </trkpt>
      <trkpt lat="47.41146" lon="8.08243">
        <ele>364.3</ele>
        <time>2022-10-02T10:13:51Z</time>
      </trkpt>
      <trkpt lat="47.41149" lon="8.08249">
        <ele>364.3</ele>
        <time>2022-10-02T10:13:52Z</time>
      </trkpt>
      <trkpt lat="47.41152" lon="8.08253">
        <ele>364.3</ele>
        <time>2022-10-02T10:13:53Z</time>
      </trkpt>
      <trkpt lat="47.41154" lon="8.08257">
        <ele>364.2</ele>
        <time>2022-10-02T10:13:54Z</time>
      </trkpt>
      <trkpt lat="47.41156" lon="8.08259">
        <ele>364.2</ele>
        <time>2022-10-02T10:13:55Z</time>
      </trkpt>
      <trkpt lat="47.41157" lon="8.08263">
        <ele>364.2</ele>
        <time>2022-10-02T10:13:56Z</time>
      </trkpt>
      <trkpt lat="47.41159" lon="8.08265">
        <ele>364.2</ele>
        <time>2022-10-02T10:13:57Z</time>
      </trkpt>
      <trkpt lat="47.4116" lon="8.08266">
        <ele>364.2</ele>
        <time>2022-10-02T10:13:58Z</time>
      </trkpt>
      <trkpt lat="47.41162" lon="8.08269">
        <ele>364.1</ele>
        <time>2022-10-02T10:13:59Z</time>
      </trkpt>
      <trkpt lat="47.41163" lon="8.0827">
        <ele>364.1</ele>
        <time>2022-10-02T10:14:00Z</time>
      </trkpt>
      <trkpt lat="47.41165" lon="8.08273">
        <ele>364.1</ele>
        <time>2022-10-02T10:14:01Z</time>
      </trkpt>
      <trkpt lat="47.41167" lon="8.08277">
        <ele>364.1</ele>
        <time>2022-10-02T10:14:02Z</time>
      </trkpt>
      <trkpt lat="47.41169" lon="8.0828">
        <ele>364.1</ele>
        <time>2022-10-02T10:14:03Z</time>
      </trkpt>
      <trkpt lat="47.41172" lon="8.08284">
        <ele>364.1</ele>
        <time>2022-10-02T10:14:05Z</time>
      </trkpt>
      <trkpt lat="47.41174" lon="8.08288">
        <ele>364.1</ele>
        <time>2022-10-02T10:14:06Z</time>
      </trkpt>
      <trkpt lat="47.41175" lon="8.0829">
        <ele>364.1</ele>
        <time>2022-10-02T10:14:07Z</time>
      </trkpt>
      <trkpt lat="47.41177" lon="8.08295">
        <ele>364.1</ele>
        <time>2022-10-02T10:14:08Z</time>
      </trkpt>
      <trkpt lat="47.41179" lon="8.08297">
        <ele>364</ele>
        <time>2022-10-02T10:14:09Z</time>
      </trkpt>
      <trkpt lat="47.41181" lon="8.08301">
        <ele>364</ele>
        <time>2022-10-02T10:14:10Z</time>
      </trkpt>
      <trkpt lat="47.41182" lon="8.08304">
        <ele>364</ele>
        <time>2022-10-02T10:14:11Z</time>
      </trkpt>
      <trkpt lat="47.41184" lon="8.08308">
        <ele>364</ele>
        <time>2022-10-02T10:14:12Z</time>
      </trkpt>
      <trkpt lat="47.41187" lon="8.08314">
        <ele>364</ele>
        <time>2022-10-02T10:14:13Z</time>
      </trkpt>
      <trkpt lat="47.41191" lon="8.0832">
        <ele>364</ele>
        <time>2022-10-02T10:14:14Z</time>
      </trkpt>
      <trkpt lat="47.41192" lon="8.08325">
        <ele>364</ele>
        <time>2022-10-02T10:14:15Z</time>
      </trkpt>
      <trkpt lat="47.41194" lon="8.08329">
        <ele>364</ele>
        <time>2022-10-02T10:14:16Z</time>
      </trkpt>
      <trkpt lat="47.41195" lon="8.08333">
        <ele>364</ele>
        <time>2022-10-02T10:14:17Z</time>
      </trkpt>
      <trkpt lat="47.41198" lon="8.08338">
        <ele>364</ele>
        <time>2022-10-02T10:14:19Z</time>
      </trkpt>
      <trkpt lat="47.412" lon="8.08343">
        <ele>364</ele>
        <time>2022-10-02T10:14:20Z</time>
      </trkpt>
      <trkpt lat="47.41202" lon="8.08349">
        <ele>364</ele>
        <time>2022-10-02T10:14:21Z</time>
      </trkpt>
      <trkpt lat="47.41204" lon="8.08355">
        <ele>364</ele>
        <time>2022-10-02T10:14:22Z</time>
      </trkpt>
      <trkpt lat="47.41205" lon="8.08358">
        <ele>364</ele>
        <time>2022-10-02T10:14:23Z</time>
      </trkpt>
      <trkpt lat="47.41207" lon="8.08363">
        <ele>364</ele>
        <time>2022-10-02T10:14:24Z</time>
      </trkpt>
      <trkpt lat="47.41208" lon="8.08365">
        <ele>364</ele>
        <time>2022-10-02T10:14:25Z</time>
      </trkpt>
      <trkpt lat="47.4121" lon="8.08371">
        <ele>364.1</ele>
        <time>2022-10-02T10:14:26Z</time>
      </trkpt>
      <trkpt lat="47.41211" lon="8.08374">
        <ele>364.1</ele>
        <time>2022-10-02T10:14:27Z</time>
      </trkpt>
      <trkpt lat="47.41213" lon="8.0838">
        <ele>364.1</ele>
        <time>2022-10-02T10:14:28Z</time>
      </trkpt>
      <trkpt lat="47.41214" lon="8.08384">
        <ele>364.1</ele>
        <time>2022-10-02T10:14:29Z</time>
      </trkpt>
      <trkpt lat="47.41216" lon="8.0839">
        <ele>364.1</ele>
        <time>2022-10-02T10:14:30Z</time>
      </trkpt>
      <trkpt lat="47.41218" lon="8.08394">
        <ele>364.1</ele>
        <time>2022-10-02T10:14:31Z</time>
      </trkpt>
      <trkpt lat="47.4122" lon="8.084">
        <ele>364.1</ele>
        <time>2022-10-02T10:14:32Z</time>
      </trkpt>
      <trkpt lat="47.41221" lon="8.08405">
        <ele>364.1</ele>
        <time>2022-10-02T10:14:33Z</time>
      </trkpt>
      <trkpt lat="47.41222" lon="8.08409">
        <ele>364.2</ele>
        <time>2022-10-02T10:14:34Z</time>
      </trkpt>
      <trkpt lat="47.41223" lon="8.08414">
        <ele>364.2</ele>
        <time>2022-10-02T10:14:35Z</time>
      </trkpt>
      <trkpt lat="47.41223" lon="8.08419">
        <ele>364.2</ele>
        <time>2022-10-02T10:14:36Z</time>
      </trkpt>
      <trkpt lat="47.41225" lon="8.08424">
        <ele>364.2</ele>
        <time>2022-10-02T10:14:37Z</time>
      </trkpt>
      <trkpt lat="47.41226" lon="8.0843">
        <ele>364.2</ele>
        <time>2022-10-02T10:14:38Z</time>
      </trkpt>
      <trkpt lat="47.41226" lon="8.08433">
        <ele>364.2</ele>
        <time>2022-10-02T10:14:39Z</time>
      </trkpt>
      <trkpt lat="47.41228" lon="8.08436">
        <ele>364.2</ele>
        <time>2022-10-02T10:14:40Z</time>
      </trkpt>
      <trkpt lat="47.41229" lon="8.0844">
        <ele>364.1</ele>
        <time>2022-10-02T10:14:41Z</time>
      </trkpt>
      <trkpt lat="47.41231" lon="8.08444">
        <ele>364.1</ele>
        <time>2022-10-02T10:14:42Z</time>
      </trkpt>
      <trkpt lat="47.41232" lon="8.08449">
        <ele>364.1</ele>
        <time>2022-10-02T10:14:43Z</time>
      </trkpt>
      <trkpt lat="47.41232" lon="8.08455">
        <ele>364.1</ele>
        <time>2022-10-02T10:14:44Z</time>
      </trkpt>
      <trkpt lat="47.41233" lon="8.08461">
        <ele>364.1</ele>
        <time>2022-10-02T10:14:45Z</time>
      </trkpt>
      <trkpt lat="47.41235" lon="8.08466">
        <ele>364.1</ele>
        <time>2022-10-02T10:14:46Z</time>
      </trkpt>
      <trkpt lat="47.41236" lon="8.0847">
        <ele>364.1</ele>
        <time>2022-10-02T10:14:47Z</time>
      </trkpt>
      <trkpt lat="47.41238" lon="8.08475">
        <ele>364.1</ele>
        <time>2022-10-02T10:14:48Z</time>
      </trkpt>
      <trkpt lat="47.41238" lon="8.08481">
        <ele>364.1</ele>
        <time>2022-10-02T10:14:49Z</time>
      </trkpt>
      <trkpt lat="47.41238" lon="8.08484">
        <ele>364.1</ele>
        <time>2022-10-02T10:14:50Z</time>
      </trkpt>
      <trkpt lat="47.41237" lon="8.08488">
        <ele>364.1</ele>
        <time>2022-10-02T10:14:51Z</time>
      </trkpt>
      <trkpt lat="47.41239" lon="8.08493">
        <ele>364.1</ele>
        <time>2022-10-02T10:14:52Z</time>
      </trkpt>
      <trkpt lat="47.41239" lon="8.08501">
        <ele>364.1</ele>
        <time>2022-10-02T10:14:53Z</time>
      </trkpt>
      <trkpt lat="47.41239" lon="8.08506">
        <ele>364.1</ele>
        <time>2022-10-02T10:14:54Z</time>
      </trkpt>
      <trkpt lat="47.41239" lon="8.08511">
        <ele>364.1</ele>
        <time>2022-10-02T10:14:55Z</time>
      </trkpt>
      <trkpt lat="47.41238" lon="8.08517">
        <ele>364.2</ele>
        <time>2022-10-02T10:14:56Z</time>
      </trkpt>
      <trkpt lat="47.41238" lon="8.08521">
        <ele>364.2</ele>
        <time>2022-10-02T10:14:57Z</time>
      </trkpt>
      <trkpt lat="47.41238" lon="8.08531">
        <ele>364.2</ele>
        <time>2022-10-02T10:14:58Z</time>
      </trkpt>
      <trkpt lat="47.41237" lon="8.08537">
        <ele>364.2</ele>
        <time>2022-10-02T10:14:59Z</time>
      </trkpt>
      <trkpt lat="47.41238" lon="8.08543">
        <ele>364.2</ele>
        <time>2022-10-02T10:15:00Z</time>
      </trkpt>
      <trkpt lat="47.41239" lon="8.08553">
        <ele>364.2</ele>
        <time>2022-10-02T10:15:01Z</time>
      </trkpt>
      <trkpt lat="47.4124" lon="8.0856">
        <ele>364.2</ele>
        <time>2022-10-02T10:15:02Z</time>
      </trkpt>
      <trkpt lat="47.4124" lon="8.08567">
        <ele>364.2</ele>
        <time>2022-10-02T10:15:03Z</time>
      </trkpt>
      <trkpt lat="47.41241" lon="8.08573">
        <ele>364.2</ele>
        <time>2022-10-02T10:15:04Z</time>
      </trkpt>
      <trkpt lat="47.41241" lon="8.08579">
        <ele>364.1</ele>
        <time>2022-10-02T10:15:05Z</time>
      </trkpt>
      <trkpt lat="47.41241" lon="8.08587">
        <ele>364.1</ele>
        <time>2022-10-02T10:15:06Z</time>
      </trkpt>
      <trkpt lat="47.41242" lon="8.08595">
        <ele>364.1</ele>
        <time>2022-10-02T10:15:07Z</time>
      </trkpt>
      <trkpt lat="47.41242" lon="8.08599">
        <ele>364.1</ele>
        <time>2022-10-02T10:15:08Z</time>
      </trkpt>
      <trkpt lat="47.41244" lon="8.08608">
        <ele>364.1</ele>
        <time>2022-10-02T10:15:09Z</time>
      </trkpt>
      <trkpt lat="47.41245" lon="8.08613">
        <ele>364.1</ele>
        <time>2022-10-02T10:15:10Z</time>
      </trkpt>
      <trkpt lat="47.41246" lon="8.08621">
        <ele>364.1</ele>
        <time>2022-10-02T10:15:11Z</time>
      </trkpt>
      <trkpt lat="47.41245" lon="8.08625">
        <ele>364.1</ele>
        <time>2022-10-02T10:15:12Z</time>
      </trkpt>
      <trkpt lat="47.41246" lon="8.08633">
        <ele>364.1</ele>
        <time>2022-10-02T10:15:13Z</time>
      </trkpt>
      <trkpt lat="47.41245" lon="8.0864">
        <ele>364.1</ele>
        <time>2022-10-02T10:15:14Z</time>
      </trkpt>
      <trkpt lat="47.41245" lon="8.08647">
        <ele>364.1</ele>
        <time>2022-10-02T10:15:15Z</time>
      </trkpt>
      <trkpt lat="47.41246" lon="8.08652">
        <ele>364.1</ele>
        <time>2022-10-02T10:15:16Z</time>
      </trkpt>
      <trkpt lat="47.41246" lon="8.08657">
        <ele>364.1</ele>
        <time>2022-10-02T10:15:17Z</time>
      </trkpt>
      <trkpt lat="47.41246" lon="8.08665">
        <ele>364.2</ele>
        <time>2022-10-02T10:15:18Z</time>
      </trkpt>
      <trkpt lat="47.41247" lon="8.08673">
        <ele>364.2</ele>
        <time>2022-10-02T10:15:19Z</time>
      </trkpt>
      <trkpt lat="47.4125" lon="8.08682">
        <ele>364.2</ele>
        <time>2022-10-02T10:15:20Z</time>
      </trkpt>
      <trkpt lat="47.41252" lon="8.08689">
        <ele>364.2</ele>
        <time>2022-10-02T10:15:21Z</time>
      </trkpt>
      <trkpt lat="47.41253" lon="8.08694">
        <ele>364.2</ele>
        <time>2022-10-02T10:15:22Z</time>
      </trkpt>
      <trkpt lat="47.41256" lon="8.08699">
        <ele>364.2</ele>
        <time>2022-10-02T10:15:23Z</time>
      </trkpt>
      <trkpt lat="47.41256" lon="8.08706">
        <ele>364.2</ele>
        <time>2022-10-02T10:15:24Z</time>
      </trkpt>
      <trkpt lat="47.41258" lon="8.08711">
        <ele>364.2</ele>
        <time>2022-10-02T10:15:25Z</time>
      </trkpt>
      <trkpt lat="47.41259" lon="8.08717">
        <ele>364.2</ele>
        <time>2022-10-02T10:15:26Z</time>
      </trkpt>
      <trkpt lat="47.41259" lon="8.08721">
        <ele>364.2</ele>
        <time>2022-10-02T10:15:27Z</time>
      </trkpt>
      <trkpt lat="47.4126" lon="8.08728">
        <ele>364.2</ele>
        <time>2022-10-02T10:15:28Z</time>
      </trkpt>
      <trkpt lat="47.41261" lon="8.08733">
        <ele>364.3</ele>
        <time>2022-10-02T10:15:29Z</time>
      </trkpt>
      <trkpt lat="47.41261" lon="8.08741">
        <ele>364.3</ele>
        <time>2022-10-02T10:15:30Z</time>
      </trkpt>
      <trkpt lat="47.41262" lon="8.08748">
        <ele>364.3</ele>
        <time>2022-10-02T10:15:31Z</time>
      </trkpt>
      <trkpt lat="47.41262" lon="8.08753">
        <ele>364.3</ele>
        <time>2022-10-02T10:15:32Z</time>
      </trkpt>
      <trkpt lat="47.41261" lon="8.0876">
        <ele>364.3</ele>
        <time>2022-10-02T10:15:33Z</time>
      </trkpt>
      <trkpt lat="47.41262" lon="8.08768">
        <ele>364.3</ele>
        <time>2022-10-02T10:15:34Z</time>
      </trkpt>
      <trkpt lat="47.41262" lon="8.08775">
        <ele>364.3</ele>
        <time>2022-10-02T10:15:35Z</time>
      </trkpt>
      <trkpt lat="47.41262" lon="8.08781">
        <ele>364.3</ele>
        <time>2022-10-02T10:15:36Z</time>
      </trkpt>
      <trkpt lat="47.41263" lon="8.08785">
        <ele>364.3</ele>
        <time>2022-10-02T10:15:37Z</time>
      </trkpt>
      <trkpt lat="47.41262" lon="8.08793">
        <ele>364.3</ele>
        <time>2022-10-02T10:15:38Z</time>
      </trkpt>
      <trkpt lat="47.41262" lon="8.088">
        <ele>364.3</ele>
        <time>2022-10-02T10:15:39Z</time>
      </trkpt>
      <trkpt lat="47.41264" lon="8.08807">
        <ele>364.2</ele>
        <time>2022-10-02T10:15:40Z</time>
      </trkpt>
      <trkpt lat="47.41266" lon="8.08813">
        <ele>364.2</ele>
        <time>2022-10-02T10:15:41Z</time>
      </trkpt>
      <trkpt lat="47.41263" lon="8.08822">
        <ele>364.2</ele>
        <time>2022-10-02T10:15:42Z</time>
      </trkpt>
      <trkpt lat="47.41262" lon="8.08828">
        <ele>364.2</ele>
        <time>2022-10-02T10:15:43Z</time>
      </trkpt>
      <trkpt lat="47.41261" lon="8.08834">
        <ele>364.2</ele>
        <time>2022-10-02T10:15:44Z</time>
      </trkpt>
      <trkpt lat="47.41261" lon="8.08841">
        <ele>364.2</ele>
        <time>2022-10-02T10:15:45Z</time>
      </trkpt>
      <trkpt lat="47.41261" lon="8.08847">
        <ele>364.2</ele>
        <time>2022-10-02T10:15:46Z</time>
      </trkpt>
      <trkpt lat="47.41262" lon="8.08855">
        <ele>364.3</ele>
        <time>2022-10-02T10:15:47Z</time>
      </trkpt>
      <trkpt lat="47.41262" lon="8.08862">
        <ele>364.3</ele>
        <time>2022-10-02T10:15:48Z</time>
      </trkpt>
      <trkpt lat="47.41262" lon="8.08869">
        <ele>364.3</ele>
        <time>2022-10-02T10:15:49Z</time>
      </trkpt>
      <trkpt lat="47.41262" lon="8.08877">
        <ele>364.3</ele>
        <time>2022-10-02T10:15:50Z</time>
      </trkpt>
      <trkpt lat="47.41263" lon="8.08882">
        <ele>364.2</ele>
        <time>2022-10-02T10:15:51Z</time>
      </trkpt>
      <trkpt lat="47.41263" lon="8.08892">
        <ele>364.2</ele>
        <time>2022-10-02T10:15:52Z</time>
      </trkpt>
      <trkpt lat="47.41264" lon="8.08899">
        <ele>364.2</ele>
        <time>2022-10-02T10:15:53Z</time>
      </trkpt>
      <trkpt lat="47.41265" lon="8.08908">
        <ele>364.2</ele>
        <time>2022-10-02T10:15:54Z</time>
      </trkpt>
      <trkpt lat="47.41267" lon="8.08913">
        <ele>364.2</ele>
        <time>2022-10-02T10:15:55Z</time>
      </trkpt>
      <trkpt lat="47.41268" lon="8.08919">
        <ele>364.2</ele>
        <time>2022-10-02T10:15:56Z</time>
      </trkpt>
      <trkpt lat="47.41267" lon="8.08925">
        <ele>364.1</ele>
        <time>2022-10-02T10:15:57Z</time>
      </trkpt>
      <trkpt lat="47.41267" lon="8.08934">
        <ele>364.1</ele>
        <time>2022-10-02T10:15:58Z</time>
      </trkpt>
      <trkpt lat="47.41267" lon="8.08943">
        <ele>364.1</ele>
        <time>2022-10-02T10:15:59Z</time>
      </trkpt>
      <trkpt lat="47.41267" lon="8.08952">
        <ele>364.1</ele>
        <time>2022-10-02T10:16:00Z</time>
      </trkpt>
      <trkpt lat="47.41266" lon="8.08961">
        <ele>364.1</ele>
        <time>2022-10-02T10:16:01Z</time>
      </trkpt>
      <trkpt lat="47.41266" lon="8.08968">
        <ele>364.1</ele>
        <time>2022-10-02T10:16:02Z</time>
      </trkpt>
      <trkpt lat="47.41265" lon="8.08974">
        <ele>364.1</ele>
        <time>2022-10-02T10:16:03Z</time>
      </trkpt>
      <trkpt lat="47.41267" lon="8.08982">
        <ele>364.1</ele>
        <time>2022-10-02T10:16:04Z</time>
      </trkpt>
      <trkpt lat="47.41266" lon="8.08986">
        <ele>364.1</ele>
        <time>2022-10-02T10:16:05Z</time>
      </trkpt>
      <trkpt lat="47.41265" lon="8.08995">
        <ele>364.1</ele>
        <time>2022-10-02T10:16:06Z</time>
      </trkpt>
      <trkpt lat="47.41266" lon="8.09004">
        <ele>364.1</ele>
        <time>2022-10-02T10:16:07Z</time>
      </trkpt>
      <trkpt lat="47.41266" lon="8.09013">
        <ele>364.1</ele>
        <time>2022-10-02T10:16:08Z</time>
      </trkpt>
      <trkpt lat="47.41267" lon="8.0902">
        <ele>364.2</ele>
        <time>2022-10-02T10:16:09Z</time>
      </trkpt>
      <trkpt lat="47.41267" lon="8.09028">
        <ele>364.2</ele>
        <time>2022-10-02T10:16:11Z</time>
      </trkpt>
      <trkpt lat="47.41267" lon="8.09036">
        <ele>364.2</ele>
        <time>2022-10-02T10:16:12Z</time>
      </trkpt>
      <trkpt lat="47.41266" lon="8.09045">
        <ele>364.2</ele>
        <time>2022-10-02T10:16:13Z</time>
      </trkpt>
      <trkpt lat="47.41267" lon="8.09051">
        <ele>364.2</ele>
        <time>2022-10-02T10:16:14Z</time>
      </trkpt>
      <trkpt lat="47.41267" lon="8.09059">
        <ele>364.2</ele>
        <time>2022-10-02T10:16:15Z</time>
      </trkpt>
      <trkpt lat="47.41267" lon="8.09065">
        <ele>364.2</ele>
        <time>2022-10-02T10:16:16Z</time>
      </trkpt>
      <trkpt lat="47.41266" lon="8.09072">
        <ele>364.2</ele>
        <time>2022-10-02T10:16:17Z</time>
      </trkpt>
      <trkpt lat="47.41266" lon="8.0908">
        <ele>364.2</ele>
        <time>2022-10-02T10:16:18Z</time>
      </trkpt>
      <trkpt lat="47.41266" lon="8.09088">
        <ele>364.2</ele>
        <time>2022-10-02T10:16:19Z</time>
      </trkpt>
      <trkpt lat="47.41267" lon="8.09097">
        <ele>364.2</ele>
        <time>2022-10-02T10:16:20Z</time>
      </trkpt>
      <trkpt lat="47.41268" lon="8.09101">
        <ele>364.2</ele>
        <time>2022-10-02T10:16:21Z</time>
      </trkpt>
      <trkpt lat="47.41268" lon="8.0911">
        <ele>364.2</ele>
        <time>2022-10-02T10:16:22Z</time>
      </trkpt>
      <trkpt lat="47.41269" lon="8.09119">
        <ele>364.2</ele>
        <time>2022-10-02T10:16:23Z</time>
      </trkpt>
      <trkpt lat="47.41272" lon="8.09131">
        <ele>364.1</ele>
        <time>2022-10-02T10:16:24Z</time>
      </trkpt>
      <trkpt lat="47.41272" lon="8.09138">
        <ele>364.1</ele>
        <time>2022-10-02T10:16:25Z</time>
      </trkpt>
      <trkpt lat="47.41271" lon="8.09146">
        <ele>364.1</ele>
        <time>2022-10-02T10:16:26Z</time>
      </trkpt>
      <trkpt lat="47.4127" lon="8.09155">
        <ele>364.1</ele>
        <time>2022-10-02T10:16:27Z</time>
      </trkpt>
      <trkpt lat="47.41271" lon="8.09162">
        <ele>364.1</ele>
        <time>2022-10-02T10:16:29Z</time>
      </trkpt>
      <trkpt lat="47.41272" lon="8.0917">
        <ele>364.1</ele>
        <time>2022-10-02T10:16:30Z</time>
      </trkpt>
      <trkpt lat="47.41269" lon="8.09178">
        <ele>364.1</ele>
        <time>2022-10-02T10:16:31Z</time>
      </trkpt>
      <trkpt lat="47.41269" lon="8.09185">
        <ele>364.1</ele>
        <time>2022-10-02T10:16:32Z</time>
      </trkpt>
      <trkpt lat="47.4127" lon="8.09193">
        <ele>364.1</ele>
        <time>2022-10-02T10:16:33Z</time>
      </trkpt>
      <trkpt lat="47.41272" lon="8.09201">
        <ele>364.1</ele>
        <time>2022-10-02T10:16:34Z</time>
      </trkpt>
      <trkpt lat="47.4127" lon="8.09209">
        <ele>364.1</ele>
        <time>2022-10-02T10:16:35Z</time>
      </trkpt>
      <trkpt lat="47.41271" lon="8.09215">
        <ele>364.1</ele>
        <time>2022-10-02T10:16:36Z</time>
      </trkpt>
      <trkpt lat="47.41272" lon="8.09221">
        <ele>364.1</ele>
        <time>2022-10-02T10:16:37Z</time>
      </trkpt>
      <trkpt lat="47.41273" lon="8.09226">
        <ele>364.1</ele>
        <time>2022-10-02T10:16:38Z</time>
      </trkpt>
      <trkpt lat="47.41274" lon="8.09233">
        <ele>364.1</ele>
        <time>2022-10-02T10:16:39Z</time>
      </trkpt>
      <trkpt lat="47.41274" lon="8.09243">
        <ele>364.1</ele>
        <time>2022-10-02T10:16:40Z</time>
      </trkpt>
      <trkpt lat="47.41273" lon="8.09251">
        <ele>364.1</ele>
        <time>2022-10-02T10:16:41Z</time>
      </trkpt>
      <trkpt lat="47.41273" lon="8.09258">
        <ele>364</ele>
        <time>2022-10-02T10:16:42Z</time>
      </trkpt>
      <trkpt lat="47.41272" lon="8.09265">
        <ele>364</ele>
        <time>2022-10-02T10:16:43Z</time>
      </trkpt>
      <trkpt lat="47.41273" lon="8.09273">
        <ele>364</ele>
        <time>2022-10-02T10:16:44Z</time>
      </trkpt>
      <trkpt lat="47.41273" lon="8.09281">
        <ele>364.1</ele>
        <time>2022-10-02T10:16:45Z</time>
      </trkpt>
      <trkpt lat="47.41273" lon="8.0929">
        <ele>364.1</ele>
        <time>2022-10-02T10:16:46Z</time>
      </trkpt>
      <trkpt lat="47.41275" lon="8.09298">
        <ele>364.1</ele>
        <time>2022-10-02T10:16:47Z</time>
      </trkpt>
      <trkpt lat="47.41275" lon="8.09306">
        <ele>364</ele>
        <time>2022-10-02T10:16:48Z</time>
      </trkpt>
      <trkpt lat="47.41276" lon="8.09312">
        <ele>364</ele>
        <time>2022-10-02T10:16:49Z</time>
      </trkpt>
      <trkpt lat="47.41276" lon="8.09319">
        <ele>364</ele>
        <time>2022-10-02T10:16:50Z</time>
      </trkpt>
      <trkpt lat="47.41275" lon="8.09325">
        <ele>364</ele>
        <time>2022-10-02T10:16:51Z</time>
      </trkpt>
      <trkpt lat="47.41276" lon="8.09334">
        <ele>364</ele>
        <time>2022-10-02T10:16:52Z</time>
      </trkpt>
      <trkpt lat="47.41277" lon="8.0934">
        <ele>364</ele>
        <time>2022-10-02T10:16:53Z</time>
      </trkpt>
      <trkpt lat="47.41278" lon="8.09347">
        <ele>364</ele>
        <time>2022-10-02T10:16:54Z</time>
      </trkpt>
      <trkpt lat="47.41276" lon="8.09355">
        <ele>364</ele>
        <time>2022-10-02T10:16:55Z</time>
      </trkpt>
      <trkpt lat="47.41277" lon="8.09363">
        <ele>364</ele>
        <time>2022-10-02T10:16:56Z</time>
      </trkpt>
      <trkpt lat="47.41279" lon="8.09372">
        <ele>364</ele>
        <time>2022-10-02T10:16:57Z</time>
      </trkpt>
      <trkpt lat="47.41279" lon="8.09378">
        <ele>364</ele>
        <time>2022-10-02T10:16:58Z</time>
      </trkpt>
      <trkpt lat="47.4128" lon="8.09387">
        <ele>364</ele>
        <time>2022-10-02T10:16:59Z</time>
      </trkpt>
      <trkpt lat="47.4128" lon="8.09394">
        <ele>364</ele>
        <time>2022-10-02T10:17:00Z</time>
      </trkpt>
      <trkpt lat="47.4128" lon="8.09402">
        <ele>364</ele>
        <time>2022-10-02T10:17:01Z</time>
      </trkpt>
      <trkpt lat="47.4128" lon="8.09411">
        <ele>364</ele>
        <time>2022-10-02T10:17:02Z</time>
      </trkpt>
      <trkpt lat="47.4128" lon="8.09419">
        <ele>364</ele>
        <time>2022-10-02T10:17:03Z</time>
      </trkpt>
      <trkpt lat="47.4128" lon="8.09425">
        <ele>364</ele>
        <time>2022-10-02T10:17:04Z</time>
      </trkpt>
      <trkpt lat="47.41281" lon="8.09431">
        <ele>364</ele>
        <time>2022-10-02T10:17:05Z</time>
      </trkpt>
      <trkpt lat="47.4128" lon="8.09439">
        <ele>364</ele>
        <time>2022-10-02T10:17:06Z</time>
      </trkpt>
      <trkpt lat="47.4128" lon="8.09444">
        <ele>364</ele>
        <time>2022-10-02T10:17:07Z</time>
      </trkpt>
      <trkpt lat="47.41281" lon="8.09451">
        <ele>364</ele>
        <time>2022-10-02T10:17:08Z</time>
      </trkpt>
      <trkpt lat="47.41281" lon="8.09453">
        <ele>364</ele>
        <time>2022-10-02T10:17:09Z</time>
      </trkpt>
      <trkpt lat="47.41281" lon="8.09455">
        <ele>364</ele>
        <time>2022-10-02T10:17:10Z</time>
      </trkpt>
      <trkpt lat="47.4128" lon="8.09455">
        <ele>364</ele>
        <time>2022-10-02T10:17:11Z</time>
      </trkpt>
      <trkpt lat="47.41281" lon="8.09456">
        <ele>364</ele>
        <time>2022-10-02T10:17:12Z</time>
      </trkpt>
      <trkpt lat="47.41281" lon="8.09457">
        <ele>364</ele>
        <time>2022-10-02T10:17:13Z</time>
      </trkpt>
      <trkpt lat="47.41281" lon="8.09457">
        <ele>364</ele>
        <time>2022-10-02T10:17:14Z</time>
      </trkpt>
      <trkpt lat="47.41281" lon="8.09459">
        <ele>364</ele>
        <time>2022-10-02T10:17:15Z</time>
      </trkpt>
      <trkpt lat="47.4128" lon="8.0946">
        <ele>364</ele>
        <time>2022-10-02T10:17:16Z</time>
      </trkpt>
      <trkpt lat="47.4128" lon="8.09461">
        <ele>364</ele>
        <time>2022-10-02T10:17:17Z</time>
      </trkpt>
      <trkpt lat="47.41278" lon="8.09465">
        <ele>364</ele>
        <time>2022-10-02T10:17:18Z</time>
      </trkpt>
      <trkpt lat="47.41279" lon="8.09466">
        <ele>364</ele>
        <time>2022-10-02T10:17:19Z</time>
      </trkpt>
      <trkpt lat="47.41279" lon="8.09467">
        <ele>364</ele>
        <time>2022-10-02T10:17:20Z</time>
      </trkpt>
      <trkpt lat="47.41279" lon="8.09468">
        <ele>364</ele>
        <time>2022-10-02T10:17:21Z</time>
      </trkpt>
      <trkpt lat="47.41279" lon="8.0947">
        <ele>364</ele>
        <time>2022-10-02T10:17:22Z</time>
      </trkpt>
      <trkpt lat="47.41279" lon="8.09471">
        <ele>364</ele>
        <time>2022-10-02T10:17:23Z</time>
      </trkpt>
      <trkpt lat="47.41279" lon="8.09472">
        <ele>364</ele>
        <time>2022-10-02T10:17:24Z</time>
      </trkpt>
      <trkpt lat="47.41279" lon="8.09474">
        <ele>364</ele>
        <time>2022-10-02T10:17:25Z</time>
      </trkpt>
      <trkpt lat="47.41279" lon="8.09475">
        <ele>364</ele>
        <time>2022-10-02T10:17:26Z</time>
      </trkpt>
      <trkpt lat="47.41279" lon="8.09476">
        <ele>364</ele>
        <time>2022-10-02T10:17:27Z</time>
      </trkpt>
      <trkpt lat="47.41279" lon="8.09477">
        <ele>364</ele>
        <time>2022-10-02T10:17:28Z</time>
      </trkpt>
      <trkpt lat="47.41279" lon="8.09479">
        <ele>364</ele>
        <time>2022-10-02T10:18:39Z</time>
      </trkpt>
      <trkpt lat="47.41279" lon="8.0948">
        <ele>364</ele>
        <time>2022-10-02T10:18:40Z</time>
      </trkpt>
      <trkpt lat="47.41279" lon="8.09481">
        <ele>364</ele>
        <time>2022-10-02T10:18:41Z</time>
      </trkpt>
      <trkpt lat="47.41279" lon="8.09486">
        <ele>364</ele>
        <time>2022-10-02T10:18:42Z</time>
      </trkpt>
      <trkpt lat="47.41279" lon="8.09487">
        <ele>364</ele>
        <time>2022-10-02T10:18:43Z</time>
      </trkpt>
      <trkpt lat="47.41279" lon="8.09492">
        <ele>364</ele>
        <time>2022-10-02T10:18:44Z</time>
      </trkpt>
      <trkpt lat="47.41279" lon="8.09494">
        <ele>364</ele>
        <time>2022-10-02T10:18:45Z</time>
      </trkpt>
      <trkpt lat="47.41278" lon="8.09499">
        <ele>364</ele>
        <time>2022-10-02T10:18:46Z</time>
      </trkpt>
      <trkpt lat="47.41278" lon="8.09503">
        <ele>364</ele>
        <time>2022-10-02T10:18:47Z</time>
      </trkpt>
      <trkpt lat="47.41277" lon="8.09505">
        <ele>364</ele>
        <time>2022-10-02T10:18:48Z</time>
      </trkpt>
      <trkpt lat="47.41277" lon="8.0951">
        <ele>364</ele>
        <time>2022-10-02T10:18:49Z</time>
      </trkpt>
      <trkpt lat="47.41277" lon="8.09512">
        <ele>364</ele>
        <time>2022-10-02T10:18:50Z</time>
      </trkpt>
      <trkpt lat="47.41277" lon="8.09517">
        <ele>364</ele>
        <time>2022-10-02T10:18:51Z</time>
      </trkpt>
      <trkpt lat="47.41276" lon="8.09522">
        <ele>364</ele>
        <time>2022-10-02T10:18:52Z</time>
      </trkpt>
      <trkpt lat="47.41275" lon="8.09526">
        <ele>364</ele>
        <time>2022-10-02T10:18:53Z</time>
      </trkpt>
      <trkpt lat="47.41275" lon="8.09527">
        <ele>364</ele>
        <time>2022-10-02T10:18:54Z</time>
      </trkpt>
      <trkpt lat="47.41275" lon="8.09532">
        <ele>364.1</ele>
        <time>2022-10-02T10:18:55Z</time>
      </trkpt>
      <trkpt lat="47.41275" lon="8.09537">
        <ele>364.1</ele>
        <time>2022-10-02T10:18:56Z</time>
      </trkpt>
      <trkpt lat="47.41274" lon="8.09541">
        <ele>364.1</ele>
        <time>2022-10-02T10:18:57Z</time>
      </trkpt>
      <trkpt lat="47.41274" lon="8.09546">
        <ele>364.1</ele>
        <time>2022-10-02T10:18:58Z</time>
      </trkpt>
      <trkpt lat="47.41272" lon="8.09551">
        <ele>364.1</ele>
        <time>2022-10-02T10:18:59Z</time>
      </trkpt>
      <trkpt lat="47.41273" lon="8.09556">
        <ele>364.1</ele>
        <time>2022-10-02T10:19:00Z</time>
      </trkpt>
      <trkpt lat="47.41272" lon="8.09563">
        <ele>364.1</ele>
        <time>2022-10-02T10:19:01Z</time>
      </trkpt>
      <trkpt lat="47.41271" lon="8.09568">
        <ele>364.1</ele>
        <time>2022-10-02T10:19:02Z</time>
      </trkpt>
      <trkpt lat="47.41271" lon="8.09573">
        <ele>364.1</ele>
        <time>2022-10-02T10:19:03Z</time>
      </trkpt>
      <trkpt lat="47.4127" lon="8.09578">
        <ele>364.1</ele>
        <time>2022-10-02T10:19:04Z</time>
      </trkpt>
      <trkpt lat="47.41269" lon="8.09582">
        <ele>364.1</ele>
        <time>2022-10-02T10:19:05Z</time>
      </trkpt>
      <trkpt lat="47.41268" lon="8.09587">
        <ele>364.1</ele>
        <time>2022-10-02T10:19:06Z</time>
      </trkpt>
      <trkpt lat="47.41267" lon="8.09589">
        <ele>364.1</ele>
        <time>2022-10-02T10:19:07Z</time>
      </trkpt>
      <trkpt lat="47.41267" lon="8.09596">
        <ele>364.1</ele>
        <time>2022-10-02T10:19:08Z</time>
      </trkpt>
      <trkpt lat="47.41266" lon="8.09603">
        <ele>364</ele>
        <time>2022-10-02T10:19:09Z</time>
      </trkpt>
      <trkpt lat="47.41266" lon="8.09608">
        <ele>364</ele>
        <time>2022-10-02T10:19:10Z</time>
      </trkpt>
      <trkpt lat="47.41266" lon="8.09613">
        <ele>364</ele>
        <time>2022-10-02T10:19:11Z</time>
      </trkpt>
      <trkpt lat="47.41267" lon="8.09617">
        <ele>364</ele>
        <time>2022-10-02T10:19:12Z</time>
      </trkpt>
      <trkpt lat="47.41266" lon="8.09625">
        <ele>364</ele>
        <time>2022-10-02T10:19:13Z</time>
      </trkpt>
      <trkpt lat="47.41266" lon="8.09632">
        <ele>364</ele>
        <time>2022-10-02T10:19:14Z</time>
      </trkpt>
      <trkpt lat="47.41268" lon="8.09639">
        <ele>364</ele>
        <time>2022-10-02T10:19:15Z</time>
      </trkpt>
      <trkpt lat="47.41269" lon="8.09647">
        <ele>364</ele>
        <time>2022-10-02T10:19:16Z</time>
      </trkpt>
      <trkpt lat="47.41269" lon="8.09655">
        <ele>364</ele>
        <time>2022-10-02T10:19:17Z</time>
      </trkpt>
      <trkpt lat="47.4127" lon="8.09661">
        <ele>364</ele>
        <time>2022-10-02T10:19:18Z</time>
      </trkpt>
      <trkpt lat="47.4127" lon="8.09669">
        <ele>364</ele>
        <time>2022-10-02T10:19:19Z</time>
      </trkpt>
      <trkpt lat="47.41269" lon="8.09676">
        <ele>364</ele>
        <time>2022-10-02T10:19:20Z</time>
      </trkpt>
      <trkpt lat="47.41269" lon="8.09681">
        <ele>364</ele>
        <time>2022-10-02T10:19:21Z</time>
      </trkpt>
      <trkpt lat="47.41273" lon="8.09689">
        <ele>364</ele>
        <time>2022-10-02T10:19:22Z</time>
      </trkpt>
      <trkpt lat="47.41273" lon="8.09694">
        <ele>364</ele>
        <time>2022-10-02T10:19:23Z</time>
      </trkpt>
      <trkpt lat="47.41272" lon="8.09701">
        <ele>364</ele>
        <time>2022-10-02T10:19:24Z</time>
      </trkpt>
      <trkpt lat="47.41271" lon="8.09707">
        <ele>364</ele>
        <time>2022-10-02T10:19:25Z</time>
      </trkpt>
      <trkpt lat="47.41272" lon="8.09718">
        <ele>364</ele>
        <time>2022-10-02T10:19:26Z</time>
      </trkpt>
      <trkpt lat="47.41272" lon="8.09723">
        <ele>363.9</ele>
        <time>2022-10-02T10:19:27Z</time>
      </trkpt>
      <trkpt lat="47.41276" lon="8.09732">
        <ele>363.9</ele>
        <time>2022-10-02T10:19:28Z</time>
      </trkpt>
      <trkpt lat="47.41278" lon="8.09739">
        <ele>363.9</ele>
        <time>2022-10-02T10:19:29Z</time>
      </trkpt>
      <trkpt lat="47.41278" lon="8.09745">
        <ele>363.9</ele>
        <time>2022-10-02T10:19:30Z</time>
      </trkpt>
      <trkpt lat="47.41279" lon="8.09751">
        <ele>363.9</ele>
        <time>2022-10-02T10:19:31Z</time>
      </trkpt>
      <trkpt lat="47.41278" lon="8.09757">
        <ele>363.9</ele>
        <time>2022-10-02T10:19:32Z</time>
      </trkpt>
      <trkpt lat="47.4128" lon="8.09763">
        <ele>363.9</ele>
        <time>2022-10-02T10:19:33Z</time>
      </trkpt>
      <trkpt lat="47.41281" lon="8.09771">
        <ele>363.9</ele>
        <time>2022-10-02T10:19:34Z</time>
      </trkpt>
      <trkpt lat="47.41282" lon="8.09779">
        <ele>364</ele>
        <time>2022-10-02T10:19:35Z</time>
      </trkpt>
      <trkpt lat="47.41283" lon="8.09786">
        <ele>364</ele>
        <time>2022-10-02T10:19:36Z</time>
      </trkpt>
      <trkpt lat="47.41283" lon="8.09792">
        <ele>364</ele>
        <time>2022-10-02T10:19:37Z</time>
      </trkpt>
      <trkpt lat="47.41281" lon="8.09797">
        <ele>364</ele>
        <time>2022-10-02T10:19:38Z</time>
      </trkpt>
      <trkpt lat="47.41281" lon="8.09802">
        <ele>364</ele>
        <time>2022-10-02T10:19:39Z</time>
      </trkpt>
      <trkpt lat="47.4128" lon="8.0981">
        <ele>363.9</ele>
        <time>2022-10-02T10:19:40Z</time>
      </trkpt>
      <trkpt lat="47.4128" lon="8.09817">
        <ele>363.9</ele>
        <time>2022-10-02T10:19:41Z</time>
      </trkpt>
      <trkpt lat="47.41282" lon="8.09823">
        <ele>363.9</ele>
        <time>2022-10-02T10:19:42Z</time>
      </trkpt>
      <trkpt lat="47.41281" lon="8.09833">
        <ele>363.9</ele>
        <time>2022-10-02T10:19:43Z</time>
      </trkpt>
      <trkpt lat="47.41281" lon="8.09843">
        <ele>364</ele>
        <time>2022-10-02T10:19:44Z</time>
      </trkpt>
      <trkpt lat="47.41282" lon="8.0985">
        <ele>364</ele>
        <time>2022-10-02T10:19:45Z</time>
      </trkpt>
      <trkpt lat="47.41284" lon="8.0986">
        <ele>364</ele>
        <time>2022-10-02T10:19:46Z</time>
      </trkpt>
      <trkpt lat="47.41283" lon="8.09867">
        <ele>364</ele>
        <time>2022-10-02T10:19:47Z</time>
      </trkpt>
      <trkpt lat="47.41281" lon="8.09875">
        <ele>364</ele>
        <time>2022-10-02T10:19:48Z</time>
      </trkpt>
      <trkpt lat="47.41282" lon="8.0988">
        <ele>364.1</ele>
        <time>2022-10-02T10:19:49Z</time>
      </trkpt>
      <trkpt lat="47.41283" lon="8.09889">
        <ele>364.1</ele>
        <time>2022-10-02T10:19:50Z</time>
      </trkpt>
      <trkpt lat="47.41284" lon="8.09898">
        <ele>364.1</ele>
        <time>2022-10-02T10:19:51Z</time>
      </trkpt>
      <trkpt lat="47.41284" lon="8.09908">
        <ele>364.1</ele>
        <time>2022-10-02T10:19:52Z</time>
      </trkpt>
      <trkpt lat="47.41284" lon="8.09913">
        <ele>364.1</ele>
        <time>2022-10-02T10:19:53Z</time>
      </trkpt>
      <trkpt lat="47.41285" lon="8.09919">
        <ele>364.1</ele>
        <time>2022-10-02T10:19:54Z</time>
      </trkpt>
      <trkpt lat="47.41287" lon="8.09926">
        <ele>364.1</ele>
        <time>2022-10-02T10:19:55Z</time>
      </trkpt>
      <trkpt lat="47.41287" lon="8.09932">
        <ele>364.1</ele>
        <time>2022-10-02T10:19:56Z</time>
      </trkpt>
      <trkpt lat="47.41287" lon="8.09938">
        <ele>364.1</ele>
        <time>2022-10-02T10:19:57Z</time>
      </trkpt>
      <trkpt lat="47.41286" lon="8.09942">
        <ele>364.1</ele>
        <time>2022-10-02T10:19:58Z</time>
      </trkpt>
      <trkpt lat="47.41286" lon="8.09946">
        <ele>364.1</ele>
        <time>2022-10-02T10:19:59Z</time>
      </trkpt>
      <trkpt lat="47.41287" lon="8.09955">
        <ele>364.1</ele>
        <time>2022-10-02T10:20:00Z</time>
      </trkpt>
      <trkpt lat="47.41289" lon="8.09961">
        <ele>364</ele>
        <time>2022-10-02T10:20:01Z</time>
      </trkpt>
      <trkpt lat="47.4129" lon="8.09968">
        <ele>364</ele>
        <time>2022-10-02T10:20:02Z</time>
      </trkpt>
      <trkpt lat="47.41291" lon="8.09974">
        <ele>364</ele>
        <time>2022-10-02T10:20:03Z</time>
      </trkpt>
      <trkpt lat="47.41292" lon="8.09981">
        <ele>364</ele>
        <time>2022-10-02T10:20:04Z</time>
      </trkpt>
      <trkpt lat="47.41292" lon="8.09989">
        <ele>363.9</ele>
        <time>2022-10-02T10:20:05Z</time>
      </trkpt>
      <trkpt lat="47.41294" lon="8.10002">
        <ele>363.9</ele>
        <time>2022-10-02T10:20:06Z</time>
      </trkpt>
      <trkpt lat="47.41294" lon="8.10012">
        <ele>363.9</ele>
        <time>2022-10-02T10:20:07Z</time>
      </trkpt>
      <trkpt lat="47.41293" lon="8.10019">
        <ele>363.9</ele>
        <time>2022-10-02T10:20:08Z</time>
      </trkpt>
      <trkpt lat="47.41292" lon="8.10027">
        <ele>363.9</ele>
        <time>2022-10-02T10:20:09Z</time>
      </trkpt>
      <trkpt lat="47.41292" lon="8.10032">
        <ele>363.9</ele>
        <time>2022-10-02T10:20:10Z</time>
      </trkpt>
      <trkpt lat="47.41291" lon="8.10039">
        <ele>363.9</ele>
        <time>2022-10-02T10:20:11Z</time>
      </trkpt>
      <trkpt lat="47.41293" lon="8.10047">
        <ele>363.9</ele>
        <time>2022-10-02T10:20:12Z</time>
      </trkpt>
      <trkpt lat="47.41294" lon="8.10051">
        <ele>363.9</ele>
        <time>2022-10-02T10:20:13Z</time>
      </trkpt>
      <trkpt lat="47.41293" lon="8.10058">
        <ele>363.9</ele>
        <time>2022-10-02T10:20:14Z</time>
      </trkpt>
      <trkpt lat="47.41292" lon="8.10065">
        <ele>363.9</ele>
        <time>2022-10-02T10:20:15Z</time>
      </trkpt>
      <trkpt lat="47.41293" lon="8.10072">
        <ele>363.9</ele>
        <time>2022-10-02T10:20:16Z</time>
      </trkpt>
      <trkpt lat="47.41294" lon="8.10081">
        <ele>363.9</ele>
        <time>2022-10-02T10:20:17Z</time>
      </trkpt>
      <trkpt lat="47.41294" lon="8.10087">
        <ele>363.9</ele>
        <time>2022-10-02T10:20:18Z</time>
      </trkpt>
      <trkpt lat="47.41294" lon="8.10096">
        <ele>363.9</ele>
        <time>2022-10-02T10:20:19Z</time>
      </trkpt>
      <trkpt lat="47.41293" lon="8.10107">
        <ele>363.9</ele>
        <time>2022-10-02T10:20:20Z</time>
      </trkpt>
      <trkpt lat="47.41293" lon="8.10113">
        <ele>363.9</ele>
        <time>2022-10-02T10:20:21Z</time>
      </trkpt>
      <trkpt lat="47.41294" lon="8.10119">
        <ele>363.9</ele>
        <time>2022-10-02T10:20:23Z</time>
      </trkpt>
      <trkpt lat="47.41293" lon="8.10126">
        <ele>363.9</ele>
        <time>2022-10-02T10:20:24Z</time>
      </trkpt>
      <trkpt lat="47.41294" lon="8.10141">
        <ele>363.9</ele>
        <time>2022-10-02T10:20:25Z</time>
      </trkpt>
      <trkpt lat="47.41296" lon="8.1015">
        <ele>363.9</ele>
        <time>2022-10-02T10:20:27Z</time>
      </trkpt>
      <trkpt lat="47.41296" lon="8.10157">
        <ele>363.9</ele>
        <time>2022-10-02T10:20:28Z</time>
      </trkpt>
      <trkpt lat="47.41295" lon="8.10166">
        <ele>363.9</ele>
        <time>2022-10-02T10:20:29Z</time>
      </trkpt>
      <trkpt lat="47.41294" lon="8.10174">
        <ele>363.9</ele>
        <time>2022-10-02T10:20:30Z</time>
      </trkpt>
      <trkpt lat="47.41295" lon="8.10181">
        <ele>363.9</ele>
        <time>2022-10-02T10:20:31Z</time>
      </trkpt>
      <trkpt lat="47.41295" lon="8.10188">
        <ele>363.9</ele>
        <time>2022-10-02T10:20:32Z</time>
      </trkpt>
      <trkpt lat="47.41296" lon="8.10194">
        <ele>363.9</ele>
        <time>2022-10-02T10:20:33Z</time>
      </trkpt>
      <trkpt lat="47.41293" lon="8.10203">
        <ele>363.9</ele>
        <time>2022-10-02T10:20:34Z</time>
      </trkpt>
      <trkpt lat="47.41293" lon="8.10208">
        <ele>363.9</ele>
        <time>2022-10-02T10:20:35Z</time>
      </trkpt>
      <trkpt lat="47.41295" lon="8.10213">
        <ele>363.9</ele>
        <time>2022-10-02T10:20:36Z</time>
      </trkpt>
      <trkpt lat="47.41293" lon="8.10222">
        <ele>363.9</ele>
        <time>2022-10-02T10:20:37Z</time>
      </trkpt>
      <trkpt lat="47.41292" lon="8.1023">
        <ele>363.9</ele>
        <time>2022-10-02T10:20:38Z</time>
      </trkpt>
      <trkpt lat="47.41289" lon="8.10239">
        <ele>363.9</ele>
        <time>2022-10-02T10:20:39Z</time>
      </trkpt>
      <trkpt lat="47.4129" lon="8.10246">
        <ele>363.9</ele>
        <time>2022-10-02T10:20:40Z</time>
      </trkpt>
      <trkpt lat="47.41291" lon="8.10253">
        <ele>363.8</ele>
        <time>2022-10-02T10:20:41Z</time>
      </trkpt>
      <trkpt lat="47.4129" lon="8.10261">
        <ele>363.8</ele>
        <time>2022-10-02T10:20:42Z</time>
      </trkpt>
      <trkpt lat="47.41288" lon="8.10269">
        <ele>363.9</ele>
        <time>2022-10-02T10:20:43Z</time>
      </trkpt>
      <trkpt lat="47.41287" lon="8.10275">
        <ele>363.9</ele>
        <time>2022-10-02T10:20:44Z</time>
      </trkpt>
      <trkpt lat="47.41287" lon="8.10281">
        <ele>363.9</ele>
        <time>2022-10-02T10:20:45Z</time>
      </trkpt>
      <trkpt lat="47.41287" lon="8.10288">
        <ele>363.9</ele>
        <time>2022-10-02T10:20:46Z</time>
      </trkpt>
      <trkpt lat="47.41286" lon="8.10293">
        <ele>363.9</ele>
        <time>2022-10-02T10:20:47Z</time>
      </trkpt>
      <trkpt lat="47.41287" lon="8.10298">
        <ele>363.9</ele>
        <time>2022-10-02T10:20:48Z</time>
      </trkpt>
      <trkpt lat="47.41286" lon="8.10305">
        <ele>363.9</ele>
        <time>2022-10-02T10:20:49Z</time>
      </trkpt>
      <trkpt lat="47.41286" lon="8.10312">
        <ele>363.9</ele>
        <time>2022-10-02T10:20:50Z</time>
      </trkpt>
      <trkpt lat="47.41286" lon="8.10319">
        <ele>363.9</ele>
        <time>2022-10-02T10:20:51Z</time>
      </trkpt>
      <trkpt lat="47.41287" lon="8.10327">
        <ele>363.9</ele>
        <time>2022-10-02T10:20:52Z</time>
      </trkpt>
      <trkpt lat="47.41288" lon="8.10335">
        <ele>363.9</ele>
        <time>2022-10-02T10:20:53Z</time>
      </trkpt>
      <trkpt lat="47.41287" lon="8.10343">
        <ele>363.9</ele>
        <time>2022-10-02T10:20:54Z</time>
      </trkpt>
      <trkpt lat="47.41287" lon="8.1035">
        <ele>363.9</ele>
        <time>2022-10-02T10:20:55Z</time>
      </trkpt>
      <trkpt lat="47.41287" lon="8.10354">
        <ele>363.9</ele>
        <time>2022-10-02T10:20:56Z</time>
      </trkpt>
      <trkpt lat="47.41289" lon="8.10361">
        <ele>363.9</ele>
        <time>2022-10-02T10:20:57Z</time>
      </trkpt>
      <trkpt lat="47.4129" lon="8.10368">
        <ele>363.9</ele>
        <time>2022-10-02T10:20:58Z</time>
      </trkpt>
      <trkpt lat="47.41291" lon="8.10375">
        <ele>363.9</ele>
        <time>2022-10-02T10:20:59Z</time>
      </trkpt>
      <trkpt lat="47.41291" lon="8.10381">
        <ele>363.9</ele>
        <time>2022-10-02T10:21:00Z</time>
      </trkpt>
      <trkpt lat="47.41291" lon="8.1039">
        <ele>363.9</ele>
        <time>2022-10-02T10:21:01Z</time>
      </trkpt>
      <trkpt lat="47.41289" lon="8.10398">
        <ele>363.9</ele>
        <time>2022-10-02T10:21:02Z</time>
      </trkpt>
      <trkpt lat="47.41286" lon="8.10409">
        <ele>363.9</ele>
        <time>2022-10-02T10:21:03Z</time>
      </trkpt>
      <trkpt lat="47.41286" lon="8.10417">
        <ele>363.9</ele>
        <time>2022-10-02T10:21:04Z</time>
      </trkpt>
      <trkpt lat="47.41286" lon="8.10422">
        <ele>363.9</ele>
        <time>2022-10-02T10:21:05Z</time>
      </trkpt>
      <trkpt lat="47.41288" lon="8.10429">
        <ele>363.9</ele>
        <time>2022-10-02T10:21:06Z</time>
      </trkpt>
      <trkpt lat="47.41287" lon="8.10434">
        <ele>363.9</ele>
        <time>2022-10-02T10:21:07Z</time>
      </trkpt>
      <trkpt lat="47.41286" lon="8.10441">
        <ele>363.9</ele>
        <time>2022-10-02T10:21:08Z</time>
      </trkpt>
      <trkpt lat="47.41285" lon="8.1045">
        <ele>363.9</ele>
        <time>2022-10-02T10:21:09Z</time>
      </trkpt>
      <trkpt lat="47.41285" lon="8.10457">
        <ele>363.9</ele>
        <time>2022-10-02T10:21:10Z</time>
      </trkpt>
      <trkpt lat="47.41286" lon="8.10463">
        <ele>363.9</ele>
        <time>2022-10-02T10:21:11Z</time>
      </trkpt>
      <trkpt lat="47.41286" lon="8.10472">
        <ele>363.9</ele>
        <time>2022-10-02T10:21:12Z</time>
      </trkpt>
      <trkpt lat="47.41287" lon="8.10479">
        <ele>363.9</ele>
        <time>2022-10-02T10:21:13Z</time>
      </trkpt>
      <trkpt lat="47.41289" lon="8.10486">
        <ele>363.9</ele>
        <time>2022-10-02T10:21:14Z</time>
      </trkpt>
      <trkpt lat="47.41289" lon="8.10491">
        <ele>363.8</ele>
        <time>2022-10-02T10:21:15Z</time>
      </trkpt>
      <trkpt lat="47.4129" lon="8.10499">
        <ele>363.8</ele>
        <time>2022-10-02T10:21:16Z</time>
      </trkpt>
      <trkpt lat="47.41293" lon="8.10507">
        <ele>363.8</ele>
        <time>2022-10-02T10:21:17Z</time>
      </trkpt>
      <trkpt lat="47.41293" lon="8.10514">
        <ele>363.8</ele>
        <time>2022-10-02T10:21:18Z</time>
      </trkpt>
      <trkpt lat="47.41295" lon="8.1052">
        <ele>363.8</ele>
        <time>2022-10-02T10:21:19Z</time>
      </trkpt>
      <trkpt lat="47.41296" lon="8.10529">
        <ele>363.8</ele>
        <time>2022-10-02T10:21:20Z</time>
      </trkpt>
      <trkpt lat="47.41295" lon="8.10538">
        <ele>363.8</ele>
        <time>2022-10-02T10:21:21Z</time>
      </trkpt>
      <trkpt lat="47.41296" lon="8.10548">
        <ele>363.8</ele>
        <time>2022-10-02T10:21:22Z</time>
      </trkpt>
      <trkpt lat="47.41297" lon="8.10553">
        <ele>363.8</ele>
        <time>2022-10-02T10:21:23Z</time>
      </trkpt>
      <trkpt lat="47.41298" lon="8.10559">
        <ele>363.8</ele>
        <time>2022-10-02T10:21:24Z</time>
      </trkpt>
      <trkpt lat="47.41298" lon="8.10567">
        <ele>363.8</ele>
        <time>2022-10-02T10:21:25Z</time>
      </trkpt>
      <trkpt lat="47.41298" lon="8.10573">
        <ele>363.8</ele>
        <time>2022-10-02T10:21:26Z</time>
      </trkpt>
      <trkpt lat="47.41297" lon="8.10591">
        <ele>363.8</ele>
        <time>2022-10-02T10:21:27Z</time>
      </trkpt>
      <trkpt lat="47.41296" lon="8.10599">
        <ele>363.8</ele>
        <time>2022-10-02T10:21:28Z</time>
      </trkpt>
      <trkpt lat="47.41295" lon="8.10607">
        <ele>363.8</ele>
        <time>2022-10-02T10:21:29Z</time>
      </trkpt>
      <trkpt lat="47.41295" lon="8.10614">
        <ele>363.8</ele>
        <time>2022-10-02T10:21:30Z</time>
      </trkpt>
      <trkpt lat="47.41296" lon="8.10621">
        <ele>363.8</ele>
        <time>2022-10-02T10:21:31Z</time>
      </trkpt>
      <trkpt lat="47.41296" lon="8.10631">
        <ele>363.8</ele>
        <time>2022-10-02T10:21:32Z</time>
      </trkpt>
      <trkpt lat="47.41296" lon="8.10639">
        <ele>363.8</ele>
        <time>2022-10-02T10:21:33Z</time>
      </trkpt>
      <trkpt lat="47.41295" lon="8.10647">
        <ele>363.8</ele>
        <time>2022-10-02T10:21:34Z</time>
      </trkpt>
      <trkpt lat="47.41294" lon="8.10656">
        <ele>363.8</ele>
        <time>2022-10-02T10:21:35Z</time>
      </trkpt>
      <trkpt lat="47.41293" lon="8.1066">
        <ele>363.8</ele>
        <time>2022-10-02T10:21:36Z</time>
      </trkpt>
      <trkpt lat="47.41294" lon="8.10666">
        <ele>363.8</ele>
        <time>2022-10-02T10:21:37Z</time>
      </trkpt>
      <trkpt lat="47.41294" lon="8.10674">
        <ele>363.7</ele>
        <time>2022-10-02T10:21:38Z</time>
      </trkpt>
      <trkpt lat="47.41294" lon="8.10683">
        <ele>363.7</ele>
        <time>2022-10-02T10:21:39Z</time>
      </trkpt>
      <trkpt lat="47.41294" lon="8.10689">
        <ele>363.7</ele>
        <time>2022-10-02T10:21:40Z</time>
      </trkpt>
      <trkpt lat="47.41293" lon="8.10696">
        <ele>363.8</ele>
        <time>2022-10-02T10:21:41Z</time>
      </trkpt>
      <trkpt lat="47.41292" lon="8.10704">
        <ele>363.8</ele>
        <time>2022-10-02T10:21:42Z</time>
      </trkpt>
      <trkpt lat="47.41292" lon="8.10711">
        <ele>363.8</ele>
        <time>2022-10-02T10:21:43Z</time>
      </trkpt>
      <trkpt lat="47.41292" lon="8.10719">
        <ele>363.8</ele>
        <time>2022-10-02T10:21:44Z</time>
      </trkpt>
      <trkpt lat="47.41292" lon="8.10724">
        <ele>363.8</ele>
        <time>2022-10-02T10:21:45Z</time>
      </trkpt>
      <trkpt lat="47.41291" lon="8.1073">
        <ele>363.8</ele>
        <time>2022-10-02T10:21:46Z</time>
      </trkpt>
      <trkpt lat="47.41291" lon="8.10738">
        <ele>363.8</ele>
        <time>2022-10-02T10:21:47Z</time>
      </trkpt>
      <trkpt lat="47.41292" lon="8.10745">
        <ele>363.8</ele>
        <time>2022-10-02T10:21:48Z</time>
      </trkpt>
      <trkpt lat="47.41292" lon="8.10749">
        <ele>363.8</ele>
        <time>2022-10-02T10:21:49Z</time>
      </trkpt>
      <trkpt lat="47.41291" lon="8.10758">
        <ele>363.8</ele>
        <time>2022-10-02T10:21:50Z</time>
      </trkpt>
      <trkpt lat="47.41291" lon="8.10764">
        <ele>363.8</ele>
        <time>2022-10-02T10:21:51Z</time>
      </trkpt>
      <trkpt lat="47.4129" lon="8.10772">
        <ele>363.8</ele>
        <time>2022-10-02T10:21:52Z</time>
      </trkpt>
      <trkpt lat="47.41288" lon="8.1078">
        <ele>363.8</ele>
        <time>2022-10-02T10:21:53Z</time>
      </trkpt>
      <trkpt lat="47.41288" lon="8.10789">
        <ele>363.8</ele>
        <time>2022-10-02T10:21:54Z</time>
      </trkpt>
      <trkpt lat="47.41287" lon="8.10795">
        <ele>363.8</ele>
        <time>2022-10-02T10:21:55Z</time>
      </trkpt>
      <trkpt lat="47.41287" lon="8.10801">
        <ele>363.8</ele>
        <time>2022-10-02T10:21:56Z</time>
      </trkpt>
      <trkpt lat="47.41285" lon="8.10809">
        <ele>363.8</ele>
        <time>2022-10-02T10:21:57Z</time>
      </trkpt>
      <trkpt lat="47.41284" lon="8.10816">
        <ele>363.8</ele>
        <time>2022-10-02T10:21:58Z</time>
      </trkpt>
      <trkpt lat="47.41284" lon="8.10821">
        <ele>363.8</ele>
        <time>2022-10-02T10:21:59Z</time>
      </trkpt>
      <trkpt lat="47.41283" lon="8.10828">
        <ele>363.8</ele>
        <time>2022-10-02T10:22:00Z</time>
      </trkpt>
      <trkpt lat="47.41282" lon="8.10837">
        <ele>363.8</ele>
        <time>2022-10-02T10:22:01Z</time>
      </trkpt>
      <trkpt lat="47.41282" lon="8.10845">
        <ele>363.8</ele>
        <time>2022-10-02T10:22:02Z</time>
      </trkpt>
      <trkpt lat="47.41281" lon="8.10851">
        <ele>363.8</ele>
        <time>2022-10-02T10:22:03Z</time>
      </trkpt>
      <trkpt lat="47.4128" lon="8.1086">
        <ele>363.8</ele>
        <time>2022-10-02T10:22:04Z</time>
      </trkpt>
      <trkpt lat="47.41279" lon="8.10869">
        <ele>363.9</ele>
        <time>2022-10-02T10:22:05Z</time>
      </trkpt>
      <trkpt lat="47.4128" lon="8.10879">
        <ele>363.9</ele>
        <time>2022-10-02T10:22:06Z</time>
      </trkpt>
      <trkpt lat="47.4128" lon="8.10887">
        <ele>363.9</ele>
        <time>2022-10-02T10:22:07Z</time>
      </trkpt>
      <trkpt lat="47.4128" lon="8.10893">
        <ele>363.9</ele>
        <time>2022-10-02T10:22:08Z</time>
      </trkpt>
      <trkpt lat="47.4128" lon="8.10904">
        <ele>363.9</ele>
        <time>2022-10-02T10:22:09Z</time>
      </trkpt>
      <trkpt lat="47.4128" lon="8.10912">
        <ele>363.9</ele>
        <time>2022-10-02T10:22:10Z</time>
      </trkpt>
      <trkpt lat="47.4128" lon="8.1092">
        <ele>363.9</ele>
        <time>2022-10-02T10:22:11Z</time>
      </trkpt>
      <trkpt lat="47.41278" lon="8.10928">
        <ele>363.9</ele>
        <time>2022-10-02T10:22:12Z</time>
      </trkpt>
      <trkpt lat="47.41278" lon="8.10936">
        <ele>363.8</ele>
        <time>2022-10-02T10:22:13Z</time>
      </trkpt>
      <trkpt lat="47.41276" lon="8.10942">
        <ele>363.8</ele>
        <time>2022-10-02T10:22:14Z</time>
      </trkpt>
      <trkpt lat="47.41276" lon="8.10951">
        <ele>363.8</ele>
        <time>2022-10-02T10:22:15Z</time>
      </trkpt>
      <trkpt lat="47.41275" lon="8.10957">
        <ele>363.8</ele>
        <time>2022-10-02T10:22:16Z</time>
      </trkpt>
      <trkpt lat="47.41275" lon="8.10966">
        <ele>363.8</ele>
        <time>2022-10-02T10:22:17Z</time>
      </trkpt>
      <trkpt lat="47.41274" lon="8.10974">
        <ele>363.8</ele>
        <time>2022-10-02T10:22:18Z</time>
      </trkpt>
      <trkpt lat="47.41275" lon="8.10982">
        <ele>363.8</ele>
        <time>2022-10-02T10:22:19Z</time>
      </trkpt>
      <trkpt lat="47.41273" lon="8.10988">
        <ele>363.8</ele>
        <time>2022-10-02T10:22:20Z</time>
      </trkpt>
      <trkpt lat="47.41273" lon="8.10995">
        <ele>363.8</ele>
        <time>2022-10-02T10:22:21Z</time>
      </trkpt>
      <trkpt lat="47.41274" lon="8.11002">
        <ele>363.8</ele>
        <time>2022-10-02T10:22:22Z</time>
      </trkpt>
      <trkpt lat="47.41275" lon="8.11009">
        <ele>363.8</ele>
        <time>2022-10-02T10:22:23Z</time>
      </trkpt>
      <trkpt lat="47.41274" lon="8.11017">
        <ele>363.8</ele>
        <time>2022-10-02T10:22:24Z</time>
      </trkpt>
      <trkpt lat="47.41272" lon="8.11024">
        <ele>363.8</ele>
        <time>2022-10-02T10:22:25Z</time>
      </trkpt>
      <trkpt lat="47.41272" lon="8.11033">
        <ele>363.8</ele>
        <time>2022-10-02T10:22:26Z</time>
      </trkpt>
      <trkpt lat="47.41273" lon="8.11041">
        <ele>363.8</ele>
        <time>2022-10-02T10:22:27Z</time>
      </trkpt>
      <trkpt lat="47.41272" lon="8.11049">
        <ele>363.8</ele>
        <time>2022-10-02T10:22:29Z</time>
      </trkpt>
      <trkpt lat="47.4127" lon="8.11052">
        <ele>363.8</ele>
        <time>2022-10-02T10:22:30Z</time>
      </trkpt>
      <trkpt lat="47.41272" lon="8.11058">
        <ele>363.8</ele>
        <time>2022-10-02T10:22:31Z</time>
      </trkpt>
      <trkpt lat="47.41271" lon="8.11066">
        <ele>363.8</ele>
        <time>2022-10-02T10:22:32Z</time>
      </trkpt>
      <trkpt lat="47.4127" lon="8.11073">
        <ele>363.9</ele>
        <time>2022-10-02T10:22:33Z</time>
      </trkpt>
      <trkpt lat="47.4127" lon="8.1108">
        <ele>363.9</ele>
        <time>2022-10-02T10:22:34Z</time>
      </trkpt>
      <trkpt lat="47.41268" lon="8.11088">
        <ele>363.9</ele>
        <time>2022-10-02T10:22:35Z</time>
      </trkpt>
      <trkpt lat="47.41268" lon="8.11095">
        <ele>363.9</ele>
        <time>2022-10-02T10:22:36Z</time>
      </trkpt>
      <trkpt lat="47.41267" lon="8.11102">
        <ele>363.9</ele>
        <time>2022-10-02T10:22:37Z</time>
      </trkpt>
      <trkpt lat="47.41266" lon="8.11111">
        <ele>363.9</ele>
        <time>2022-10-02T10:22:38Z</time>
      </trkpt>
      <trkpt lat="47.41264" lon="8.1112">
        <ele>363.8</ele>
        <time>2022-10-02T10:22:39Z</time>
      </trkpt>
      <trkpt lat="47.41265" lon="8.11128">
        <ele>363.8</ele>
        <time>2022-10-02T10:22:40Z</time>
      </trkpt>
      <trkpt lat="47.41265" lon="8.11134">
        <ele>363.8</ele>
        <time>2022-10-02T10:22:41Z</time>
      </trkpt>
      <trkpt lat="47.41265" lon="8.11142">
        <ele>363.8</ele>
        <time>2022-10-02T10:22:42Z</time>
      </trkpt>
      <trkpt lat="47.41262" lon="8.11149">
        <ele>363.8</ele>
        <time>2022-10-02T10:22:43Z</time>
      </trkpt>
      <trkpt lat="47.41258" lon="8.11155">
        <ele>363.8</ele>
        <time>2022-10-02T10:22:44Z</time>
      </trkpt>
      <trkpt lat="47.41259" lon="8.11161">
        <ele>363.8</ele>
        <time>2022-10-02T10:22:45Z</time>
      </trkpt>
      <trkpt lat="47.41261" lon="8.11167">
        <ele>363.8</ele>
        <time>2022-10-02T10:22:46Z</time>
      </trkpt>
      <trkpt lat="47.4126" lon="8.11177">
        <ele>363.8</ele>
        <time>2022-10-02T10:22:47Z</time>
      </trkpt>
      <trkpt lat="47.41259" lon="8.11185">
        <ele>363.8</ele>
        <time>2022-10-02T10:22:48Z</time>
      </trkpt>
      <trkpt lat="47.41258" lon="8.11192">
        <ele>363.8</ele>
        <time>2022-10-02T10:22:49Z</time>
      </trkpt>
      <trkpt lat="47.41255" lon="8.11201">
        <ele>363.8</ele>
        <time>2022-10-02T10:22:50Z</time>
      </trkpt>
      <trkpt lat="47.41254" lon="8.11208">
        <ele>363.8</ele>
        <time>2022-10-02T10:22:51Z</time>
      </trkpt>
      <trkpt lat="47.41254" lon="8.11216">
        <ele>363.8</ele>
        <time>2022-10-02T10:22:52Z</time>
      </trkpt>
      <trkpt lat="47.41252" lon="8.11227">
        <ele>363.7</ele>
        <time>2022-10-02T10:22:53Z</time>
      </trkpt>
      <trkpt lat="47.4125" lon="8.11235">
        <ele>363.7</ele>
        <time>2022-10-02T10:22:54Z</time>
      </trkpt>
      <trkpt lat="47.4125" lon="8.11245">
        <ele>363.7</ele>
        <time>2022-10-02T10:22:55Z</time>
      </trkpt>
      <trkpt lat="47.41249" lon="8.11252">
        <ele>363.7</ele>
        <time>2022-10-02T10:22:56Z</time>
      </trkpt>
      <trkpt lat="47.41249" lon="8.11259">
        <ele>363.7</ele>
        <time>2022-10-02T10:22:57Z</time>
      </trkpt>
      <trkpt lat="47.41246" lon="8.11269">
        <ele>363.8</ele>
        <time>2022-10-02T10:22:58Z</time>
      </trkpt>
      <trkpt lat="47.41246" lon="8.11277">
        <ele>363.8</ele>
        <time>2022-10-02T10:22:59Z</time>
      </trkpt>
      <trkpt lat="47.41245" lon="8.11287">
        <ele>363.8</ele>
        <time>2022-10-02T10:23:00Z</time>
      </trkpt>
      <trkpt lat="47.41243" lon="8.11294">
        <ele>363.8</ele>
        <time>2022-10-02T10:23:01Z</time>
      </trkpt>
      <trkpt lat="47.41241" lon="8.11301">
        <ele>363.8</ele>
        <time>2022-10-02T10:23:02Z</time>
      </trkpt>
      <trkpt lat="47.41241" lon="8.1131">
        <ele>363.8</ele>
        <time>2022-10-02T10:23:03Z</time>
      </trkpt>
      <trkpt lat="47.4124" lon="8.11319">
        <ele>363.7</ele>
        <time>2022-10-02T10:23:04Z</time>
      </trkpt>
      <trkpt lat="47.4124" lon="8.11327">
        <ele>363.7</ele>
        <time>2022-10-02T10:23:05Z</time>
      </trkpt>
      <trkpt lat="47.4124" lon="8.11337">
        <ele>363.7</ele>
        <time>2022-10-02T10:23:06Z</time>
      </trkpt>
      <trkpt lat="47.41239" lon="8.11346">
        <ele>363.7</ele>
        <time>2022-10-02T10:23:07Z</time>
      </trkpt>
      <trkpt lat="47.41239" lon="8.11355">
        <ele>363.6</ele>
        <time>2022-10-02T10:23:08Z</time>
      </trkpt>
      <trkpt lat="47.41238" lon="8.11365">
        <ele>363.6</ele>
        <time>2022-10-02T10:23:09Z</time>
      </trkpt>
      <trkpt lat="47.41237" lon="8.11373">
        <ele>363.6</ele>
        <time>2022-10-02T10:23:10Z</time>
      </trkpt>
      <trkpt lat="47.41237" lon="8.11382">
        <ele>363.5</ele>
        <time>2022-10-02T10:23:11Z</time>
      </trkpt>
      <trkpt lat="47.41237" lon="8.11391">
        <ele>363.5</ele>
        <time>2022-10-02T10:23:12Z</time>
      </trkpt>
      <trkpt lat="47.41237" lon="8.11399">
        <ele>363.5</ele>
        <time>2022-10-02T10:23:13Z</time>
      </trkpt>
      <trkpt lat="47.41237" lon="8.11408">
        <ele>363.5</ele>
        <time>2022-10-02T10:23:14Z</time>
      </trkpt>
      <trkpt lat="47.41238" lon="8.11415">
        <ele>363.5</ele>
        <time>2022-10-02T10:23:15Z</time>
      </trkpt>
      <trkpt lat="47.41238" lon="8.11423">
        <ele>363.5</ele>
        <time>2022-10-02T10:23:16Z</time>
      </trkpt>
      <trkpt lat="47.41236" lon="8.11431">
        <ele>363.4</ele>
        <time>2022-10-02T10:23:17Z</time>
      </trkpt>
      <trkpt lat="47.41234" lon="8.11438">
        <ele>363.4</ele>
        <time>2022-10-02T10:23:18Z</time>
      </trkpt>
      <trkpt lat="47.41235" lon="8.11446">
        <ele>363.4</ele>
        <time>2022-10-02T10:23:19Z</time>
      </trkpt>
      <trkpt lat="47.41235" lon="8.11453">
        <ele>363.4</ele>
        <time>2022-10-02T10:23:20Z</time>
      </trkpt>
      <trkpt lat="47.41235" lon="8.11461">
        <ele>363.3</ele>
        <time>2022-10-02T10:23:21Z</time>
      </trkpt>
      <trkpt lat="47.41235" lon="8.1147">
        <ele>363.3</ele>
        <time>2022-10-02T10:23:22Z</time>
      </trkpt>
      <trkpt lat="47.41234" lon="8.11478">
        <ele>363.2</ele>
        <time>2022-10-02T10:23:23Z</time>
      </trkpt>
      <trkpt lat="47.41234" lon="8.11485">
        <ele>363.2</ele>
        <time>2022-10-02T10:23:24Z</time>
      </trkpt>
      <trkpt lat="47.41234" lon="8.11493">
        <ele>363.2</ele>
        <time>2022-10-02T10:23:25Z</time>
      </trkpt>
      <trkpt lat="47.41234" lon="8.11499">
        <ele>363.1</ele>
        <time>2022-10-02T10:23:26Z</time>
      </trkpt>
      <trkpt lat="47.41234" lon="8.11508">
        <ele>363.1</ele>
        <time>2022-10-02T10:23:27Z</time>
      </trkpt>
      <trkpt lat="47.41235" lon="8.11525">
        <ele>363</ele>
        <time>2022-10-02T10:23:28Z</time>
      </trkpt>
      <trkpt lat="47.41236" lon="8.11532">
        <ele>363</ele>
        <time>2022-10-02T10:23:29Z</time>
      </trkpt>
      <trkpt lat="47.41235" lon="8.11539">
        <ele>363</ele>
        <time>2022-10-02T10:23:30Z</time>
      </trkpt>
      <trkpt lat="47.41236" lon="8.11546">
        <ele>363</ele>
        <time>2022-10-02T10:23:31Z</time>
      </trkpt>
      <trkpt lat="47.41235" lon="8.11554">
        <ele>362.9</ele>
        <time>2022-10-02T10:23:32Z</time>
      </trkpt>
      <trkpt lat="47.41236" lon="8.11563">
        <ele>362.9</ele>
        <time>2022-10-02T10:23:33Z</time>
      </trkpt>
      <trkpt lat="47.41237" lon="8.11571">
        <ele>362.8</ele>
        <time>2022-10-02T10:23:34Z</time>
      </trkpt>
      <trkpt lat="47.41236" lon="8.1158">
        <ele>362.8</ele>
        <time>2022-10-02T10:23:35Z</time>
      </trkpt>
      <trkpt lat="47.41236" lon="8.11588">
        <ele>362.8</ele>
        <time>2022-10-02T10:23:36Z</time>
      </trkpt>
      <trkpt lat="47.41236" lon="8.11596">
        <ele>362.7</ele>
        <time>2022-10-02T10:23:37Z</time>
      </trkpt>
      <trkpt lat="47.41236" lon="8.11606">
        <ele>362.7</ele>
        <time>2022-10-02T10:23:38Z</time>
      </trkpt>
      <trkpt lat="47.41238" lon="8.11614">
        <ele>362.7</ele>
        <time>2022-10-02T10:23:39Z</time>
      </trkpt>
      <trkpt lat="47.41238" lon="8.11621">
        <ele>362.6</ele>
        <time>2022-10-02T10:23:40Z</time>
      </trkpt>
      <trkpt lat="47.41241" lon="8.11631">
        <ele>362.6</ele>
        <time>2022-10-02T10:23:41Z</time>
      </trkpt>
      <trkpt lat="47.41242" lon="8.11641">
        <ele>362.6</ele>
        <time>2022-10-02T10:23:42Z</time>
      </trkpt>
      <trkpt lat="47.41243" lon="8.1165">
        <ele>362.5</ele>
        <time>2022-10-02T10:23:43Z</time>
      </trkpt>
      <trkpt lat="47.41244" lon="8.11659">
        <ele>362.5</ele>
        <time>2022-10-02T10:23:44Z</time>
      </trkpt>
      <trkpt lat="47.41243" lon="8.11669">
        <ele>362.5</ele>
        <time>2022-10-02T10:23:45Z</time>
      </trkpt>
      <trkpt lat="47.41243" lon="8.11676">
        <ele>362.5</ele>
        <time>2022-10-02T10:23:46Z</time>
      </trkpt>
      <trkpt lat="47.41245" lon="8.11684">
        <ele>362.4</ele>
        <time>2022-10-02T10:23:47Z</time>
      </trkpt>
      <trkpt lat="47.41247" lon="8.11693">
        <ele>362.4</ele>
        <time>2022-10-02T10:23:48Z</time>
      </trkpt>
      <trkpt lat="47.41248" lon="8.117">
        <ele>362.4</ele>
        <time>2022-10-02T10:23:49Z</time>
      </trkpt>
      <trkpt lat="47.41247" lon="8.1171">
        <ele>362.3</ele>
        <time>2022-10-02T10:23:50Z</time>
      </trkpt>
      <trkpt lat="47.41249" lon="8.11721">
        <ele>362.3</ele>
        <time>2022-10-02T10:23:51Z</time>
      </trkpt>
      <trkpt lat="47.41251" lon="8.11728">
        <ele>362.2</ele>
        <time>2022-10-02T10:23:52Z</time>
      </trkpt>
      <trkpt lat="47.41253" lon="8.11738">
        <ele>362.2</ele>
        <time>2022-10-02T10:23:53Z</time>
      </trkpt>
      <trkpt lat="47.41254" lon="8.11747">
        <ele>362.1</ele>
        <time>2022-10-02T10:23:54Z</time>
      </trkpt>
      <trkpt lat="47.41255" lon="8.11758">
        <ele>362.1</ele>
        <time>2022-10-02T10:23:55Z</time>
      </trkpt>
      <trkpt lat="47.41257" lon="8.11767">
        <ele>362</ele>
        <time>2022-10-02T10:23:56Z</time>
      </trkpt>
      <trkpt lat="47.41257" lon="8.11776">
        <ele>362</ele>
        <time>2022-10-02T10:23:57Z</time>
      </trkpt>
      <trkpt lat="47.41259" lon="8.11787">
        <ele>362</ele>
        <time>2022-10-02T10:23:58Z</time>
      </trkpt>
      <trkpt lat="47.4126" lon="8.11795">
        <ele>361.9</ele>
        <time>2022-10-02T10:23:59Z</time>
      </trkpt>
      <trkpt lat="47.4126" lon="8.11804">
        <ele>361.9</ele>
        <time>2022-10-02T10:24:00Z</time>
      </trkpt>
      <trkpt lat="47.41261" lon="8.11813">
        <ele>361.9</ele>
        <time>2022-10-02T10:24:01Z</time>
      </trkpt>
      <trkpt lat="47.41263" lon="8.11822">
        <ele>361.8</ele>
        <time>2022-10-02T10:24:02Z</time>
      </trkpt>
      <trkpt lat="47.41264" lon="8.1183">
        <ele>361.8</ele>
        <time>2022-10-02T10:24:03Z</time>
      </trkpt>
      <trkpt lat="47.41264" lon="8.11837">
        <ele>361.8</ele>
        <time>2022-10-02T10:24:04Z</time>
      </trkpt>
      <trkpt lat="47.41265" lon="8.11847">
        <ele>361.8</ele>
        <time>2022-10-02T10:24:05Z</time>
      </trkpt>
      <trkpt lat="47.41265" lon="8.11854">
        <ele>361.7</ele>
        <time>2022-10-02T10:24:06Z</time>
      </trkpt>
      <trkpt lat="47.41267" lon="8.11863">
        <ele>361.7</ele>
        <time>2022-10-02T10:24:07Z</time>
      </trkpt>
      <trkpt lat="47.41267" lon="8.11873">
        <ele>361.7</ele>
        <time>2022-10-02T10:24:08Z</time>
      </trkpt>
      <trkpt lat="47.41268" lon="8.1188">
        <ele>361.7</ele>
        <time>2022-10-02T10:24:09Z</time>
      </trkpt>
      <trkpt lat="47.41269" lon="8.11889">
        <ele>361.6</ele>
        <time>2022-10-02T10:24:10Z</time>
      </trkpt>
      <trkpt lat="47.41271" lon="8.11898">
        <ele>361.6</ele>
        <time>2022-10-02T10:24:11Z</time>
      </trkpt>
      <trkpt lat="47.4127" lon="8.11907">
        <ele>361.6</ele>
        <time>2022-10-02T10:24:12Z</time>
      </trkpt>
      <trkpt lat="47.41272" lon="8.11915">
        <ele>361.5</ele>
        <time>2022-10-02T10:24:13Z</time>
      </trkpt>
      <trkpt lat="47.41273" lon="8.11924">
        <ele>361.5</ele>
        <time>2022-10-02T10:24:14Z</time>
      </trkpt>
      <trkpt lat="47.41273" lon="8.11934">
        <ele>361.4</ele>
        <time>2022-10-02T10:24:15Z</time>
      </trkpt>
      <trkpt lat="47.41275" lon="8.11944">
        <ele>361.4</ele>
        <time>2022-10-02T10:24:16Z</time>
      </trkpt>
      <trkpt lat="47.41276" lon="8.11953">
        <ele>361.3</ele>
        <time>2022-10-02T10:24:17Z</time>
      </trkpt>
      <trkpt lat="47.41278" lon="8.11962">
        <ele>361.3</ele>
        <time>2022-10-02T10:24:18Z</time>
      </trkpt>
      <trkpt lat="47.41279" lon="8.11971">
        <ele>361.3</ele>
        <time>2022-10-02T10:24:19Z</time>
      </trkpt>
      <trkpt lat="47.4128" lon="8.11977">
        <ele>361.2</ele>
        <time>2022-10-02T10:24:20Z</time>
      </trkpt>
      <trkpt lat="47.4128" lon="8.11986">
        <ele>361.2</ele>
        <time>2022-10-02T10:24:21Z</time>
      </trkpt>
      <trkpt lat="47.41281" lon="8.11996">
        <ele>361.2</ele>
        <time>2022-10-02T10:24:22Z</time>
      </trkpt>
      <trkpt lat="47.41282" lon="8.12004">
        <ele>361.1</ele>
        <time>2022-10-02T10:24:23Z</time>
      </trkpt>
      <trkpt lat="47.41283" lon="8.12013">
        <ele>361.1</ele>
        <time>2022-10-02T10:24:24Z</time>
      </trkpt>
      <trkpt lat="47.41285" lon="8.12022">
        <ele>361</ele>
        <time>2022-10-02T10:24:25Z</time>
      </trkpt>
      <trkpt lat="47.41286" lon="8.1203">
        <ele>361</ele>
        <time>2022-10-02T10:24:26Z</time>
      </trkpt>
      <trkpt lat="47.41287" lon="8.12039">
        <ele>361</ele>
        <time>2022-10-02T10:24:27Z</time>
      </trkpt>
      <trkpt lat="47.41288" lon="8.12048">
        <ele>360.9</ele>
        <time>2022-10-02T10:24:28Z</time>
      </trkpt>
      <trkpt lat="47.41288" lon="8.12057">
        <ele>360.9</ele>
        <time>2022-10-02T10:24:29Z</time>
      </trkpt>
      <trkpt lat="47.41289" lon="8.12066">
        <ele>360.9</ele>
        <time>2022-10-02T10:24:30Z</time>
      </trkpt>
      <trkpt lat="47.41289" lon="8.12074">
        <ele>360.8</ele>
        <time>2022-10-02T10:24:31Z</time>
      </trkpt>
      <trkpt lat="47.41289" lon="8.12083">
        <ele>360.8</ele>
        <time>2022-10-02T10:24:32Z</time>
      </trkpt>
      <trkpt lat="47.41289" lon="8.12091">
        <ele>360.7</ele>
        <time>2022-10-02T10:24:33Z</time>
      </trkpt>
      <trkpt lat="47.41288" lon="8.12098">
        <ele>360.7</ele>
        <time>2022-10-02T10:24:35Z</time>
      </trkpt>
      <trkpt lat="47.41286" lon="8.12104">
        <ele>360.7</ele>
        <time>2022-10-02T10:24:36Z</time>
      </trkpt>
      <trkpt lat="47.41284" lon="8.1211">
        <ele>360.6</ele>
        <time>2022-10-02T10:24:37Z</time>
      </trkpt>
      <trkpt lat="47.41281" lon="8.12117">
        <ele>360.6</ele>
        <time>2022-10-02T10:24:38Z</time>
      </trkpt>
      <trkpt lat="47.41278" lon="8.12123">
        <ele>360.6</ele>
        <time>2022-10-02T10:24:39Z</time>
      </trkpt>
      <trkpt lat="47.41274" lon="8.12129">
        <ele>360.5</ele>
        <time>2022-10-02T10:24:40Z</time>
      </trkpt>
      <trkpt lat="47.4127" lon="8.12134">
        <ele>360.5</ele>
        <time>2022-10-02T10:24:41Z</time>
      </trkpt>
      <trkpt lat="47.41267" lon="8.12136">
        <ele>360.4</ele>
        <time>2022-10-02T10:24:42Z</time>
      </trkpt>
      <trkpt lat="47.41263" lon="8.1214">
        <ele>360.4</ele>
        <time>2022-10-02T10:24:43Z</time>
      </trkpt>
      <trkpt lat="47.41262" lon="8.12142">
        <ele>360.3</ele>
        <time>2022-10-02T10:24:44Z</time>
      </trkpt>
      <trkpt lat="47.41259" lon="8.12144">
        <ele>360.3</ele>
        <time>2022-10-02T10:24:45Z</time>
      </trkpt>
      <trkpt lat="47.41258" lon="8.12145">
        <ele>360.3</ele>
        <time>2022-10-02T10:24:46Z</time>
      </trkpt>
      <trkpt lat="47.41255" lon="8.12147">
        <ele>360.2</ele>
        <time>2022-10-02T10:24:47Z</time>
      </trkpt>
      <trkpt lat="47.41254" lon="8.12148">
        <ele>360.2</ele>
        <time>2022-10-02T10:24:48Z</time>
      </trkpt>
      <trkpt lat="47.41251" lon="8.12148">
        <ele>360.2</ele>
        <time>2022-10-02T10:24:49Z</time>
      </trkpt>
      <trkpt lat="47.4125" lon="8.12148">
        <ele>360.2</ele>
        <time>2022-10-02T10:24:50Z</time>
      </trkpt>
      <trkpt lat="47.41246" lon="8.1215">
        <ele>360.1</ele>
        <time>2022-10-02T10:24:51Z</time>
      </trkpt>
      <trkpt lat="47.41245" lon="8.12151">
        <ele>360.1</ele>
        <time>2022-10-02T10:24:52Z</time>
      </trkpt>
      <trkpt lat="47.41242" lon="8.12153">
        <ele>360.1</ele>
        <time>2022-10-02T10:24:53Z</time>
      </trkpt>
      <trkpt lat="47.41239" lon="8.12155">
        <ele>360.1</ele>
        <time>2022-10-02T10:24:54Z</time>
      </trkpt>
      <trkpt lat="47.41237" lon="8.12158">
        <ele>360.1</ele>
        <time>2022-10-02T10:24:55Z</time>
      </trkpt>
      <trkpt lat="47.41233" lon="8.12162">
        <ele>360</ele>
        <time>2022-10-02T10:24:56Z</time>
      </trkpt>
      <trkpt lat="47.41232" lon="8.12166">
        <ele>360</ele>
        <time>2022-10-02T10:24:57Z</time>
      </trkpt>
      <trkpt lat="47.41232" lon="8.12168">
        <ele>360</ele>
        <time>2022-10-02T10:24:58Z</time>
      </trkpt>
      <trkpt lat="47.4123" lon="8.12171">
        <ele>360</ele>
        <time>2022-10-02T10:24:59Z</time>
      </trkpt>
      <trkpt lat="47.41226" lon="8.12173">
        <ele>360</ele>
        <time>2022-10-02T10:25:00Z</time>
      </trkpt>
      <trkpt lat="47.41225" lon="8.12173">
        <ele>360</ele>
        <time>2022-10-02T10:25:01Z</time>
      </trkpt>
      <trkpt lat="47.41221" lon="8.12172">
        <ele>359.9</ele>
        <time>2022-10-02T10:25:02Z</time>
      </trkpt>
      <trkpt lat="47.41217" lon="8.12173">
        <ele>359.9</ele>
        <time>2022-10-02T10:25:03Z</time>
      </trkpt>
      <trkpt lat="47.41213" lon="8.12175">
        <ele>359.9</ele>
        <time>2022-10-02T10:25:04Z</time>
      </trkpt>
      <trkpt lat="47.41209" lon="8.12175">
        <ele>359.8</ele>
        <time>2022-10-02T10:25:05Z</time>
      </trkpt>
      <trkpt lat="47.41206" lon="8.12175">
        <ele>359.8</ele>
        <time>2022-10-02T10:25:06Z</time>
      </trkpt>
      <trkpt lat="47.41201" lon="8.12175">
        <ele>359.8</ele>
        <time>2022-10-02T10:25:07Z</time>
      </trkpt>
      <trkpt lat="47.41197" lon="8.12176">
        <ele>359.8</ele>
        <time>2022-10-02T10:25:08Z</time>
      </trkpt>
      <trkpt lat="47.41192" lon="8.12177">
        <ele>359.7</ele>
        <time>2022-10-02T10:25:09Z</time>
      </trkpt>
      <trkpt lat="47.41187" lon="8.12179">
        <ele>359.7</ele>
        <time>2022-10-02T10:25:10Z</time>
      </trkpt>
      <trkpt lat="47.41182" lon="8.1218">
        <ele>359.7</ele>
        <time>2022-10-02T10:25:11Z</time>
      </trkpt>
      <trkpt lat="47.41177" lon="8.12181">
        <ele>359.7</ele>
        <time>2022-10-02T10:25:12Z</time>
      </trkpt>
      <trkpt lat="47.41172" lon="8.12182">
        <ele>359.6</ele>
        <time>2022-10-02T10:25:13Z</time>
      </trkpt>
      <trkpt lat="47.41167" lon="8.12183">
        <ele>359.6</ele>
        <time>2022-10-02T10:25:14Z</time>
      </trkpt>
      <trkpt lat="47.41162" lon="8.12185">
        <ele>359.6</ele>
        <time>2022-10-02T10:25:15Z</time>
      </trkpt>
      <trkpt lat="47.41156" lon="8.12186">
        <ele>359.6</ele>
        <time>2022-10-02T10:25:16Z</time>
      </trkpt>
      <trkpt lat="47.41151" lon="8.12187">
        <ele>359.6</ele>
        <time>2022-10-02T10:25:17Z</time>
      </trkpt>
      <trkpt lat="47.41146" lon="8.12189">
        <ele>359.6</ele>
        <time>2022-10-02T10:25:18Z</time>
      </trkpt>
      <trkpt lat="47.41141" lon="8.12189">
        <ele>359.6</ele>
        <time>2022-10-02T10:25:19Z</time>
      </trkpt>
      <trkpt lat="47.41136" lon="8.12191">
        <ele>359.6</ele>
        <time>2022-10-02T10:25:20Z</time>
      </trkpt>
      <trkpt lat="47.4113" lon="8.12192">
        <ele>359.6</ele>
        <time>2022-10-02T10:25:21Z</time>
      </trkpt>
      <trkpt lat="47.41125" lon="8.12192">
        <ele>359.6</ele>
        <time>2022-10-02T10:25:22Z</time>
      </trkpt>
      <trkpt lat="47.41121" lon="8.12192">
        <ele>359.6</ele>
        <time>2022-10-02T10:25:23Z</time>
      </trkpt>
      <trkpt lat="47.41115" lon="8.12194">
        <ele>359.6</ele>
        <time>2022-10-02T10:25:24Z</time>
      </trkpt>
      <trkpt lat="47.41105" lon="8.12195">
        <ele>359.6</ele>
        <time>2022-10-02T10:25:25Z</time>
      </trkpt>
      <trkpt lat="47.41101" lon="8.12196">
        <ele>359.6</ele>
        <time>2022-10-02T10:25:26Z</time>
      </trkpt>
      <trkpt lat="47.41096" lon="8.12196">
        <ele>359.6</ele>
        <time>2022-10-02T10:25:27Z</time>
      </trkpt>
      <trkpt lat="47.41091" lon="8.12197">
        <ele>359.5</ele>
        <time>2022-10-02T10:25:28Z</time>
      </trkpt>
      <trkpt lat="47.41086" lon="8.12197">
        <ele>359.5</ele>
        <time>2022-10-02T10:25:29Z</time>
      </trkpt>
      <trkpt lat="47.41081" lon="8.12197">
        <ele>359.5</ele>
        <time>2022-10-02T10:25:30Z</time>
      </trkpt>
      <trkpt lat="47.41077" lon="8.12198">
        <ele>359.5</ele>
        <time>2022-10-02T10:25:31Z</time>
      </trkpt>
      <trkpt lat="47.41072" lon="8.12199">
        <ele>359.5</ele>
        <time>2022-10-02T10:25:32Z</time>
      </trkpt>
      <trkpt lat="47.41067" lon="8.12199">
        <ele>359.6</ele>
        <time>2022-10-02T10:25:33Z</time>
      </trkpt>
      <trkpt lat="47.41063" lon="8.122">
        <ele>359.6</ele>
        <time>2022-10-02T10:25:34Z</time>
      </trkpt>
      <trkpt lat="47.41058" lon="8.122">
        <ele>359.6</ele>
        <time>2022-10-02T10:25:35Z</time>
      </trkpt>
      <trkpt lat="47.41054" lon="8.122">
        <ele>359.6</ele>
        <time>2022-10-02T10:25:36Z</time>
      </trkpt>
      <trkpt lat="47.4105" lon="8.12201">
        <ele>359.6</ele>
        <time>2022-10-02T10:25:37Z</time>
      </trkpt>
      <trkpt lat="47.41045" lon="8.12201">
        <ele>359.6</ele>
        <time>2022-10-02T10:25:38Z</time>
      </trkpt>
      <trkpt lat="47.4104" lon="8.12202">
        <ele>359.6</ele>
        <time>2022-10-02T10:25:39Z</time>
      </trkpt>
      <trkpt lat="47.41036" lon="8.12203">
        <ele>359.5</ele>
        <time>2022-10-02T10:25:40Z</time>
      </trkpt>
      <trkpt lat="47.41031" lon="8.12204">
        <ele>359.5</ele>
        <time>2022-10-02T10:25:41Z</time>
      </trkpt>
      <trkpt lat="47.41027" lon="8.12204">
        <ele>359.5</ele>
        <time>2022-10-02T10:25:42Z</time>
      </trkpt>
      <trkpt lat="47.41023" lon="8.12205">
        <ele>359.5</ele>
        <time>2022-10-02T10:25:43Z</time>
      </trkpt>
      <trkpt lat="47.41019" lon="8.12205">
        <ele>359.5</ele>
        <time>2022-10-02T10:25:44Z</time>
      </trkpt>
      <trkpt lat="47.41016" lon="8.12205">
        <ele>359.5</ele>
        <time>2022-10-02T10:25:45Z</time>
      </trkpt>
      <trkpt lat="47.41012" lon="8.12204">
        <ele>359.4</ele>
        <time>2022-10-02T10:25:46Z</time>
      </trkpt>
      <trkpt lat="47.41008" lon="8.12204">
        <ele>359.4</ele>
        <time>2022-10-02T10:25:47Z</time>
      </trkpt>
      <trkpt lat="47.41004" lon="8.12204">
        <ele>359.3</ele>
        <time>2022-10-02T10:25:48Z</time>
      </trkpt>
      <trkpt lat="47.41" lon="8.12204">
        <ele>359.3</ele>
        <time>2022-10-02T10:25:49Z</time>
      </trkpt>
      <trkpt lat="47.40996" lon="8.12202">
        <ele>359.2</ele>
        <time>2022-10-02T10:25:50Z</time>
      </trkpt>
      <trkpt lat="47.40991" lon="8.12201">
        <ele>359.1</ele>
        <time>2022-10-02T10:25:51Z</time>
      </trkpt>
      <trkpt lat="47.40987" lon="8.12202">
        <ele>359.1</ele>
        <time>2022-10-02T10:25:52Z</time>
      </trkpt>
      <trkpt lat="47.40983" lon="8.12202">
        <ele>359</ele>
        <time>2022-10-02T10:25:53Z</time>
      </trkpt>
      <trkpt lat="47.40978" lon="8.12202">
        <ele>358.8</ele>
        <time>2022-10-02T10:25:54Z</time>
      </trkpt>
      <trkpt lat="47.40973" lon="8.12201">
        <ele>358.7</ele>
        <time>2022-10-02T10:25:55Z</time>
      </trkpt>
      <trkpt lat="47.40969" lon="8.12201">
        <ele>358.7</ele>
        <time>2022-10-02T10:25:56Z</time>
      </trkpt>
      <trkpt lat="47.40966" lon="8.12201">
        <ele>358.6</ele>
        <time>2022-10-02T10:25:57Z</time>
      </trkpt>
      <trkpt lat="47.40963" lon="8.12202">
        <ele>358.6</ele>
        <time>2022-10-02T10:25:58Z</time>
      </trkpt>
      <trkpt lat="47.4096" lon="8.12203">
        <ele>358.5</ele>
        <time>2022-10-02T10:25:59Z</time>
      </trkpt>
      <trkpt lat="47.40956" lon="8.12202">
        <ele>358.4</ele>
        <time>2022-10-02T10:26:00Z</time>
      </trkpt>
      <trkpt lat="47.40955" lon="8.12202">
        <ele>358.4</ele>
        <time>2022-10-02T10:26:01Z</time>
      </trkpt>
      <trkpt lat="47.40953" lon="8.12202">
        <ele>358.4</ele>
        <time>2022-10-02T10:26:02Z</time>
      </trkpt>
      <trkpt lat="47.40952" lon="8.12201">
        <ele>358.4</ele>
        <time>2022-10-02T10:26:03Z</time>
      </trkpt>
      <trkpt lat="47.40952" lon="8.12201">
        <ele>358.3</ele>
        <time>2022-10-02T10:26:04Z</time>
      </trkpt>
      <trkpt lat="47.40951" lon="8.12201">
        <ele>358.3</ele>
        <time>2022-10-02T10:26:05Z</time>
      </trkpt>
      <trkpt lat="47.4095" lon="8.12201">
        <ele>358.3</ele>
        <time>2022-10-02T10:26:06Z</time>
      </trkpt>
      <trkpt lat="47.4095" lon="8.12201">
        <ele>358.3</ele>
        <time>2022-10-02T10:26:07Z</time>
      </trkpt>
      <trkpt lat="47.40949" lon="8.122">
        <ele>358.3</ele>
        <time>2022-10-02T10:26:08Z</time>
      </trkpt>
      <trkpt lat="47.40949" lon="8.122">
        <ele>358.3</ele>
        <time>2022-10-02T10:26:09Z</time>
      </trkpt>
      <trkpt lat="47.40948" lon="8.122">
        <ele>358.3</ele>
        <time>2022-10-02T10:26:10Z</time>
      </trkpt>
      <trkpt lat="47.40948" lon="8.122">
        <ele>358.2</ele>
        <time>2022-10-02T10:26:11Z</time>
      </trkpt>
      <trkpt lat="47.40944" lon="8.12203">
        <ele>358.1</ele>
        <time>2022-10-02T10:26:12Z</time>
      </trkpt>
      <trkpt lat="47.40942" lon="8.12204">
        <ele>358.1</ele>
        <time>2022-10-02T10:26:13Z</time>
      </trkpt>
      <trkpt lat="47.4094" lon="8.12206">
        <ele>358</ele>
        <time>2022-10-02T10:26:14Z</time>
      </trkpt>
      <trkpt lat="47.40937" lon="8.12208">
        <ele>357.9</ele>
        <time>2022-10-02T10:26:15Z</time>
      </trkpt>
      <trkpt lat="47.40933" lon="8.12211">
        <ele>357.8</ele>
        <time>2022-10-02T10:26:16Z</time>
      </trkpt>
      <trkpt lat="47.4093" lon="8.12213">
        <ele>357.8</ele>
        <time>2022-10-02T10:26:17Z</time>
      </trkpt>
      <trkpt lat="47.40927" lon="8.12217">
        <ele>357.7</ele>
        <time>2022-10-02T10:26:18Z</time>
      </trkpt>
      <trkpt lat="47.40923" lon="8.12221">
        <ele>357.6</ele>
        <time>2022-10-02T10:26:19Z</time>
      </trkpt>
      <trkpt lat="47.40921" lon="8.12225">
        <ele>357.6</ele>
        <time>2022-10-02T10:26:20Z</time>
      </trkpt>
      <trkpt lat="47.40918" lon="8.12229">
        <ele>357.5</ele>
        <time>2022-10-02T10:26:21Z</time>
      </trkpt>
      <trkpt lat="47.40915" lon="8.12231">
        <ele>357.5</ele>
        <time>2022-10-02T10:26:22Z</time>
      </trkpt>
      <trkpt lat="47.40912" lon="8.12231">
        <ele>357.5</ele>
        <time>2022-10-02T10:26:23Z</time>
      </trkpt>
      <trkpt lat="47.40911" lon="8.12231">
        <ele>357.5</ele>
        <time>2022-10-02T10:26:24Z</time>
      </trkpt>
      <trkpt lat="47.40909" lon="8.12232">
        <ele>357.5</ele>
        <time>2022-10-02T10:26:25Z</time>
      </trkpt>
      <trkpt lat="47.4091" lon="8.12232">
        <ele>357.5</ele>
        <time>2022-10-02T10:26:26Z</time>
      </trkpt>
      <trkpt lat="47.40911" lon="8.12232">
        <ele>357.5</ele>
        <time>2022-10-02T10:26:27Z</time>
      </trkpt>
      <trkpt lat="47.40911" lon="8.12232">
        <ele>357.5</ele>
        <time>2022-10-02T10:26:28Z</time>
      </trkpt>
      <trkpt lat="47.40912" lon="8.12232">
        <ele>357.5</ele>
        <time>2022-10-02T10:26:29Z</time>
      </trkpt>
      <trkpt lat="47.40913" lon="8.12233">
        <ele>357.5</ele>
        <time>2022-10-02T10:26:30Z</time>
      </trkpt>
      <trkpt lat="47.40913" lon="8.12233">
        <ele>357.5</ele>
        <time>2022-10-02T10:26:31Z</time>
      </trkpt>
      <trkpt lat="47.40914" lon="8.12233">
        <ele>357.5</ele>
        <time>2022-10-02T10:26:32Z</time>
      </trkpt>
      <trkpt lat="47.40915" lon="8.12233">
        <ele>357.5</ele>
        <time>2022-10-02T10:26:33Z</time>
      </trkpt>
      <trkpt lat="47.40915" lon="8.12233">
        <ele>357.5</ele>
        <time>2022-10-02T10:26:34Z</time>
      </trkpt>
      <trkpt lat="47.40916" lon="8.12234">
        <ele>357.6</ele>
        <time>2022-10-02T10:26:35Z</time>
      </trkpt>
      <trkpt lat="47.40916" lon="8.12234">
        <ele>357.6</ele>
        <time>2022-10-02T10:29:44Z</time>
      </trkpt>
      <trkpt lat="47.40917" lon="8.12234">
        <ele>357.6</ele>
        <time>2022-10-02T10:29:45Z</time>
      </trkpt>
      <trkpt lat="47.40918" lon="8.12234">
        <ele>357.6</ele>
        <time>2022-10-02T10:29:46Z</time>
      </trkpt>
      <trkpt lat="47.40921" lon="8.12232">
        <ele>357.6</ele>
        <time>2022-10-02T10:29:47Z</time>
      </trkpt>
      <trkpt lat="47.40922" lon="8.12231">
        <ele>357.6</ele>
        <time>2022-10-02T10:29:48Z</time>
      </trkpt>
      <trkpt lat="47.40925" lon="8.12228">
        <ele>357.6</ele>
        <time>2022-10-02T10:29:49Z</time>
      </trkpt>
      <trkpt lat="47.40927" lon="8.12224">
        <ele>357.7</ele>
        <time>2022-10-02T10:29:50Z</time>
      </trkpt>
      <trkpt lat="47.40928" lon="8.12223">
        <ele>357.7</ele>
        <time>2022-10-02T10:29:51Z</time>
      </trkpt>
      <trkpt lat="47.40931" lon="8.12221">
        <ele>357.7</ele>
        <time>2022-10-02T10:29:52Z</time>
      </trkpt>
      <trkpt lat="47.40933" lon="8.1222">
        <ele>357.8</ele>
        <time>2022-10-02T10:29:53Z</time>
      </trkpt>
      <trkpt lat="47.40934" lon="8.12217">
        <ele>357.8</ele>
        <time>2022-10-02T10:29:54Z</time>
      </trkpt>
      <trkpt lat="47.40937" lon="8.12214">
        <ele>357.9</ele>
        <time>2022-10-02T10:29:55Z</time>
      </trkpt>
      <trkpt lat="47.40938" lon="8.12213">
        <ele>357.9</ele>
        <time>2022-10-02T10:29:56Z</time>
      </trkpt>
      <trkpt lat="47.40941" lon="8.1221">
        <ele>358</ele>
        <time>2022-10-02T10:29:57Z</time>
      </trkpt>
      <trkpt lat="47.40942" lon="8.12208">
        <ele>358.1</ele>
        <time>2022-10-02T10:29:58Z</time>
      </trkpt>
      <trkpt lat="47.40945" lon="8.12205">
        <ele>358.2</ele>
        <time>2022-10-02T10:29:59Z</time>
      </trkpt>
      <trkpt lat="47.40946" lon="8.12204">
        <ele>358.2</ele>
        <time>2022-10-02T10:30:00Z</time>
      </trkpt>
      <trkpt lat="47.40949" lon="8.12202">
        <ele>358.3</ele>
        <time>2022-10-02T10:30:01Z</time>
      </trkpt>
      <trkpt lat="47.40951" lon="8.12201">
        <ele>358.3</ele>
        <time>2022-10-02T10:30:02Z</time>
      </trkpt>
      <trkpt lat="47.40954" lon="8.12202">
        <ele>358.4</ele>
        <time>2022-10-02T10:30:03Z</time>
      </trkpt>
      <trkpt lat="47.40956" lon="8.12202">
        <ele>358.4</ele>
        <time>2022-10-02T10:30:04Z</time>
      </trkpt>
      <trkpt lat="47.40959" lon="8.12201">
        <ele>358.5</ele>
        <time>2022-10-02T10:30:05Z</time>
      </trkpt>
      <trkpt lat="47.40962" lon="8.122">
        <ele>358.6</ele>
        <time>2022-10-02T10:30:06Z</time>
      </trkpt>
      <trkpt lat="47.40963" lon="8.122">
        <ele>358.6</ele>
        <time>2022-10-02T10:30:07Z</time>
      </trkpt>
      <trkpt lat="47.40966" lon="8.12199">
        <ele>358.7</ele>
        <time>2022-10-02T10:30:08Z</time>
      </trkpt>
      <trkpt lat="47.4097" lon="8.12198">
        <ele>358.7</ele>
        <time>2022-10-02T10:30:09Z</time>
      </trkpt>
      <trkpt lat="47.40971" lon="8.12198">
        <ele>358.7</ele>
        <time>2022-10-02T10:30:10Z</time>
      </trkpt>
      <trkpt lat="47.40975" lon="8.12199">
        <ele>358.8</ele>
        <time>2022-10-02T10:30:11Z</time>
      </trkpt>
      <trkpt lat="47.40975" lon="8.12199">
        <ele>358.8</ele>
        <time>2022-10-02T10:30:12Z</time>
      </trkpt>
      <trkpt lat="47.40979" lon="8.12198">
        <ele>358.9</ele>
        <time>2022-10-02T10:30:13Z</time>
      </trkpt>
      <trkpt lat="47.4098" lon="8.12198">
        <ele>358.9</ele>
        <time>2022-10-02T10:30:14Z</time>
      </trkpt>
      <trkpt lat="47.40984" lon="8.12199">
        <ele>359</ele>
        <time>2022-10-02T10:30:15Z</time>
      </trkpt>
      <trkpt lat="47.40985" lon="8.12199">
        <ele>359</ele>
        <time>2022-10-02T10:30:16Z</time>
      </trkpt>
      <trkpt lat="47.40989" lon="8.12201">
        <ele>359.1</ele>
        <time>2022-10-02T10:30:17Z</time>
      </trkpt>
      <trkpt lat="47.4099" lon="8.12201">
        <ele>359.1</ele>
        <time>2022-10-02T10:30:18Z</time>
      </trkpt>
      <trkpt lat="47.40994" lon="8.12203">
        <ele>359.2</ele>
        <time>2022-10-02T10:30:19Z</time>
      </trkpt>
      <trkpt lat="47.40995" lon="8.12203">
        <ele>359.2</ele>
        <time>2022-10-02T10:30:20Z</time>
      </trkpt>
      <trkpt lat="47.40998" lon="8.12204">
        <ele>359.2</ele>
        <time>2022-10-02T10:30:21Z</time>
      </trkpt>
      <trkpt lat="47.40999" lon="8.12204">
        <ele>359.3</ele>
        <time>2022-10-02T10:30:22Z</time>
      </trkpt>
      <trkpt lat="47.41003" lon="8.12205">
        <ele>359.3</ele>
        <time>2022-10-02T10:30:23Z</time>
      </trkpt>
      <trkpt lat="47.41004" lon="8.12205">
        <ele>359.3</ele>
        <time>2022-10-02T10:30:24Z</time>
      </trkpt>
      <trkpt lat="47.41007" lon="8.12207">
        <ele>359.4</ele>
        <time>2022-10-02T10:30:25Z</time>
      </trkpt>
      <trkpt lat="47.41009" lon="8.12207">
        <ele>359.4</ele>
        <time>2022-10-02T10:30:26Z</time>
      </trkpt>
      <trkpt lat="47.41012" lon="8.12207">
        <ele>359.5</ele>
        <time>2022-10-02T10:30:27Z</time>
      </trkpt>
      <trkpt lat="47.41014" lon="8.12207">
        <ele>359.5</ele>
        <time>2022-10-02T10:30:28Z</time>
      </trkpt>
      <trkpt lat="47.41018" lon="8.12206">
        <ele>359.5</ele>
        <time>2022-10-02T10:30:29Z</time>
      </trkpt>
      <trkpt lat="47.41019" lon="8.12206">
        <ele>359.5</ele>
        <time>2022-10-02T10:30:30Z</time>
      </trkpt>
      <trkpt lat="47.41022" lon="8.12205">
        <ele>359.5</ele>
        <time>2022-10-02T10:30:31Z</time>
      </trkpt>
      <trkpt lat="47.41025" lon="8.12204">
        <ele>359.5</ele>
        <time>2022-10-02T10:30:32Z</time>
      </trkpt>
      <trkpt lat="47.41028" lon="8.12204">
        <ele>359.5</ele>
        <time>2022-10-02T10:30:33Z</time>
      </trkpt>
      <trkpt lat="47.41033" lon="8.12204">
        <ele>359.5</ele>
        <time>2022-10-02T10:30:34Z</time>
      </trkpt>
      <trkpt lat="47.41034" lon="8.12204">
        <ele>359.5</ele>
        <time>2022-10-02T10:30:35Z</time>
      </trkpt>
      <trkpt lat="47.41038" lon="8.12203">
        <ele>359.5</ele>
        <time>2022-10-02T10:30:36Z</time>
      </trkpt>
      <trkpt lat="47.41042" lon="8.12202">
        <ele>359.6</ele>
        <time>2022-10-02T10:30:37Z</time>
      </trkpt>
      <trkpt lat="47.41045" lon="8.12202">
        <ele>359.6</ele>
        <time>2022-10-02T10:30:38Z</time>
      </trkpt>
      <trkpt lat="47.4105" lon="8.12201">
        <ele>359.6</ele>
        <time>2022-10-02T10:30:39Z</time>
      </trkpt>
      <trkpt lat="47.41054" lon="8.12201">
        <ele>359.6</ele>
        <time>2022-10-02T10:30:40Z</time>
      </trkpt>
      <trkpt lat="47.41058" lon="8.12201">
        <ele>359.6</ele>
        <time>2022-10-02T10:30:41Z</time>
      </trkpt>
      <trkpt lat="47.41062" lon="8.12201">
        <ele>359.6</ele>
        <time>2022-10-02T10:30:42Z</time>
      </trkpt>
      <trkpt lat="47.41066" lon="8.122">
        <ele>359.6</ele>
        <time>2022-10-02T10:30:43Z</time>
      </trkpt>
      <trkpt lat="47.4107" lon="8.122">
        <ele>359.5</ele>
        <time>2022-10-02T10:30:44Z</time>
      </trkpt>
      <trkpt lat="47.41075" lon="8.122">
        <ele>359.5</ele>
        <time>2022-10-02T10:30:45Z</time>
      </trkpt>
      <trkpt lat="47.41079" lon="8.12199">
        <ele>359.5</ele>
        <time>2022-10-02T10:30:46Z</time>
      </trkpt>
      <trkpt lat="47.41084" lon="8.12199">
        <ele>359.5</ele>
        <time>2022-10-02T10:30:47Z</time>
      </trkpt>
      <trkpt lat="47.41089" lon="8.12198">
        <ele>359.5</ele>
        <time>2022-10-02T10:30:48Z</time>
      </trkpt>
      <trkpt lat="47.41092" lon="8.12199">
        <ele>359.5</ele>
        <time>2022-10-02T10:30:49Z</time>
      </trkpt>
      <trkpt lat="47.41096" lon="8.12197">
        <ele>359.5</ele>
        <time>2022-10-02T10:30:50Z</time>
      </trkpt>
      <trkpt lat="47.411" lon="8.12197">
        <ele>359.6</ele>
        <time>2022-10-02T10:30:51Z</time>
      </trkpt>
      <trkpt lat="47.41103" lon="8.12196">
        <ele>359.6</ele>
        <time>2022-10-02T10:30:53Z</time>
      </trkpt>
      <trkpt lat="47.41108" lon="8.12196">
        <ele>359.6</ele>
        <time>2022-10-02T10:30:54Z</time>
      </trkpt>
      <trkpt lat="47.41111" lon="8.12195">
        <ele>359.6</ele>
        <time>2022-10-02T10:30:55Z</time>
      </trkpt>
      <trkpt lat="47.41115" lon="8.12195">
        <ele>359.6</ele>
        <time>2022-10-02T10:30:56Z</time>
      </trkpt>
      <trkpt lat="47.41119" lon="8.12194">
        <ele>359.6</ele>
        <time>2022-10-02T10:30:57Z</time>
      </trkpt>
      <trkpt lat="47.41123" lon="8.12194">
        <ele>359.6</ele>
        <time>2022-10-02T10:30:58Z</time>
      </trkpt>
      <trkpt lat="47.41128" lon="8.12193">
        <ele>359.6</ele>
        <time>2022-10-02T10:30:59Z</time>
      </trkpt>
      <trkpt lat="47.41133" lon="8.12193">
        <ele>359.6</ele>
        <time>2022-10-02T10:31:00Z</time>
      </trkpt>
      <trkpt lat="47.41137" lon="8.12191">
        <ele>359.6</ele>
        <time>2022-10-02T10:31:01Z</time>
      </trkpt>
      <trkpt lat="47.41141" lon="8.12191">
        <ele>359.6</ele>
        <time>2022-10-02T10:31:02Z</time>
      </trkpt>
      <trkpt lat="47.41146" lon="8.1219">
        <ele>359.6</ele>
        <time>2022-10-02T10:31:03Z</time>
      </trkpt>
      <trkpt lat="47.41151" lon="8.12189">
        <ele>359.6</ele>
        <time>2022-10-02T10:31:04Z</time>
      </trkpt>
      <trkpt lat="47.41156" lon="8.12188">
        <ele>359.6</ele>
        <time>2022-10-02T10:31:05Z</time>
      </trkpt>
      <trkpt lat="47.4116" lon="8.12187">
        <ele>359.6</ele>
        <time>2022-10-02T10:31:06Z</time>
      </trkpt>
      <trkpt lat="47.41164" lon="8.12186">
        <ele>359.6</ele>
        <time>2022-10-02T10:31:07Z</time>
      </trkpt>
      <trkpt lat="47.41169" lon="8.12186">
        <ele>359.6</ele>
        <time>2022-10-02T10:31:08Z</time>
      </trkpt>
      <trkpt lat="47.41174" lon="8.12184">
        <ele>359.6</ele>
        <time>2022-10-02T10:31:09Z</time>
      </trkpt>
      <trkpt lat="47.41179" lon="8.12183">
        <ele>359.7</ele>
        <time>2022-10-02T10:31:10Z</time>
      </trkpt>
      <trkpt lat="47.41183" lon="8.12182">
        <ele>359.7</ele>
        <time>2022-10-02T10:31:11Z</time>
      </trkpt>
      <trkpt lat="47.41187" lon="8.12181">
        <ele>359.7</ele>
        <time>2022-10-02T10:31:12Z</time>
      </trkpt>
      <trkpt lat="47.41192" lon="8.1218">
        <ele>359.7</ele>
        <time>2022-10-02T10:31:13Z</time>
      </trkpt>
      <trkpt lat="47.41197" lon="8.12179">
        <ele>359.8</ele>
        <time>2022-10-02T10:31:14Z</time>
      </trkpt>
      <trkpt lat="47.41201" lon="8.12178">
        <ele>359.8</ele>
        <time>2022-10-02T10:31:15Z</time>
      </trkpt>
      <trkpt lat="47.41206" lon="8.12177">
        <ele>359.8</ele>
        <time>2022-10-02T10:31:16Z</time>
      </trkpt>
      <trkpt lat="47.4121" lon="8.12177">
        <ele>359.8</ele>
        <time>2022-10-02T10:31:17Z</time>
      </trkpt>
      <trkpt lat="47.41214" lon="8.12176">
        <ele>359.9</ele>
        <time>2022-10-02T10:31:18Z</time>
      </trkpt>
      <trkpt lat="47.41218" lon="8.12174">
        <ele>359.9</ele>
        <time>2022-10-02T10:31:19Z</time>
      </trkpt>
      <trkpt lat="47.41222" lon="8.12174">
        <ele>360</ele>
        <time>2022-10-02T10:31:20Z</time>
      </trkpt>
      <trkpt lat="47.41226" lon="8.12172">
        <ele>360</ele>
        <time>2022-10-02T10:31:21Z</time>
      </trkpt>
      <trkpt lat="47.41229" lon="8.12172">
        <ele>360</ele>
        <time>2022-10-02T10:31:22Z</time>
      </trkpt>
      <trkpt lat="47.41232" lon="8.12174">
        <ele>360</ele>
        <time>2022-10-02T10:31:23Z</time>
      </trkpt>
      <trkpt lat="47.41234" lon="8.12177">
        <ele>360</ele>
        <time>2022-10-02T10:31:24Z</time>
      </trkpt>
      <trkpt lat="47.41235" lon="8.12182">
        <ele>360</ele>
        <time>2022-10-02T10:31:25Z</time>
      </trkpt>
      <trkpt lat="47.41236" lon="8.12187">
        <ele>360</ele>
        <time>2022-10-02T10:31:26Z</time>
      </trkpt>
      <trkpt lat="47.41237" lon="8.1219">
        <ele>360</ele>
        <time>2022-10-02T10:31:27Z</time>
      </trkpt>
      <trkpt lat="47.41237" lon="8.12194">
        <ele>359.9</ele>
        <time>2022-10-02T10:31:28Z</time>
      </trkpt>
      <trkpt lat="47.41238" lon="8.12199">
        <ele>359.9</ele>
        <time>2022-10-02T10:31:29Z</time>
      </trkpt>
      <trkpt lat="47.41238" lon="8.12204">
        <ele>359.9</ele>
        <time>2022-10-02T10:31:30Z</time>
      </trkpt>
      <trkpt lat="47.41239" lon="8.12218">
        <ele>359.7</ele>
        <time>2022-10-02T10:31:31Z</time>
      </trkpt>
      <trkpt lat="47.41241" lon="8.12225">
        <ele>359.7</ele>
        <time>2022-10-02T10:31:32Z</time>
      </trkpt>
      <trkpt lat="47.41241" lon="8.12233">
        <ele>359.6</ele>
        <time>2022-10-02T10:31:33Z</time>
      </trkpt>
      <trkpt lat="47.41242" lon="8.12243">
        <ele>359.6</ele>
        <time>2022-10-02T10:31:34Z</time>
      </trkpt>
      <trkpt lat="47.41242" lon="8.12252">
        <ele>359.5</ele>
        <time>2022-10-02T10:31:35Z</time>
      </trkpt>
      <trkpt lat="47.41244" lon="8.12261">
        <ele>359.4</ele>
        <time>2022-10-02T10:31:36Z</time>
      </trkpt>
      <trkpt lat="47.41245" lon="8.1227">
        <ele>359.4</ele>
        <time>2022-10-02T10:31:37Z</time>
      </trkpt>
      <trkpt lat="47.41245" lon="8.1228">
        <ele>359.4</ele>
        <time>2022-10-02T10:31:38Z</time>
      </trkpt>
      <trkpt lat="47.41246" lon="8.12289">
        <ele>359.3</ele>
        <time>2022-10-02T10:31:39Z</time>
      </trkpt>
      <trkpt lat="47.41247" lon="8.12298">
        <ele>359.3</ele>
        <time>2022-10-02T10:31:40Z</time>
      </trkpt>
      <trkpt lat="47.41248" lon="8.12307">
        <ele>359.3</ele>
        <time>2022-10-02T10:31:41Z</time>
      </trkpt>
      <trkpt lat="47.41249" lon="8.12316">
        <ele>359.3</ele>
        <time>2022-10-02T10:31:42Z</time>
      </trkpt>
      <trkpt lat="47.4125" lon="8.12325">
        <ele>359.3</ele>
        <time>2022-10-02T10:31:43Z</time>
      </trkpt>
      <trkpt lat="47.41251" lon="8.12334">
        <ele>359.3</ele>
        <time>2022-10-02T10:31:44Z</time>
      </trkpt>
      <trkpt lat="47.41252" lon="8.12344">
        <ele>359.3</ele>
        <time>2022-10-02T10:31:45Z</time>
      </trkpt>
      <trkpt lat="47.41253" lon="8.12353">
        <ele>359.3</ele>
        <time>2022-10-02T10:31:46Z</time>
      </trkpt>
      <trkpt lat="47.41255" lon="8.12362">
        <ele>359.3</ele>
        <time>2022-10-02T10:31:47Z</time>
      </trkpt>
      <trkpt lat="47.41256" lon="8.12372">
        <ele>359.3</ele>
        <time>2022-10-02T10:31:48Z</time>
      </trkpt>
      <trkpt lat="47.41257" lon="8.1238">
        <ele>359.3</ele>
        <time>2022-10-02T10:31:49Z</time>
      </trkpt>
      <trkpt lat="47.41258" lon="8.12389">
        <ele>359.3</ele>
        <time>2022-10-02T10:31:50Z</time>
      </trkpt>
      <trkpt lat="47.4126" lon="8.12399">
        <ele>359.3</ele>
        <time>2022-10-02T10:31:51Z</time>
      </trkpt>
      <trkpt lat="47.41261" lon="8.12407">
        <ele>359.3</ele>
        <time>2022-10-02T10:31:52Z</time>
      </trkpt>
      <trkpt lat="47.41262" lon="8.12416">
        <ele>359.3</ele>
        <time>2022-10-02T10:31:53Z</time>
      </trkpt>
      <trkpt lat="47.41263" lon="8.12425">
        <ele>359.3</ele>
        <time>2022-10-02T10:31:54Z</time>
      </trkpt>
      <trkpt lat="47.41264" lon="8.12434">
        <ele>359.3</ele>
        <time>2022-10-02T10:31:55Z</time>
      </trkpt>
      <trkpt lat="47.41266" lon="8.12443">
        <ele>359.3</ele>
        <time>2022-10-02T10:31:56Z</time>
      </trkpt>
      <trkpt lat="47.41267" lon="8.12452">
        <ele>359.3</ele>
        <time>2022-10-02T10:31:57Z</time>
      </trkpt>
      <trkpt lat="47.41269" lon="8.12461">
        <ele>359.3</ele>
        <time>2022-10-02T10:31:58Z</time>
      </trkpt>
      <trkpt lat="47.4127" lon="8.12471">
        <ele>359.3</ele>
        <time>2022-10-02T10:31:59Z</time>
      </trkpt>
      <trkpt lat="47.41271" lon="8.12479">
        <ele>359.3</ele>
        <time>2022-10-02T10:32:00Z</time>
      </trkpt>
      <trkpt lat="47.41273" lon="8.12488">
        <ele>359.2</ele>
        <time>2022-10-02T10:32:01Z</time>
      </trkpt>
      <trkpt lat="47.41274" lon="8.12498">
        <ele>359.2</ele>
        <time>2022-10-02T10:32:02Z</time>
      </trkpt>
      <trkpt lat="47.41276" lon="8.12507">
        <ele>359.2</ele>
        <time>2022-10-02T10:32:03Z</time>
      </trkpt>
      <trkpt lat="47.41277" lon="8.12515">
        <ele>359.2</ele>
        <time>2022-10-02T10:32:04Z</time>
      </trkpt>
      <trkpt lat="47.41279" lon="8.12525">
        <ele>359.2</ele>
        <time>2022-10-02T10:32:05Z</time>
      </trkpt>
      <trkpt lat="47.4128" lon="8.12534">
        <ele>359.2</ele>
        <time>2022-10-02T10:32:06Z</time>
      </trkpt>
      <trkpt lat="47.41281" lon="8.12543">
        <ele>359.2</ele>
        <time>2022-10-02T10:32:07Z</time>
      </trkpt>
      <trkpt lat="47.41283" lon="8.12552">
        <ele>359.2</ele>
        <time>2022-10-02T10:32:08Z</time>
      </trkpt>
      <trkpt lat="47.41284" lon="8.12561">
        <ele>359.2</ele>
        <time>2022-10-02T10:32:09Z</time>
      </trkpt>
      <trkpt lat="47.41286" lon="8.1257">
        <ele>359.2</ele>
        <time>2022-10-02T10:32:10Z</time>
      </trkpt>
      <trkpt lat="47.41289" lon="8.12579">
        <ele>359.2</ele>
        <time>2022-10-02T10:32:11Z</time>
      </trkpt>
      <trkpt lat="47.4129" lon="8.12589">
        <ele>359.2</ele>
        <time>2022-10-02T10:32:12Z</time>
      </trkpt>
      <trkpt lat="47.4129" lon="8.12598">
        <ele>359.2</ele>
        <time>2022-10-02T10:32:13Z</time>
      </trkpt>
      <trkpt lat="47.41292" lon="8.12608">
        <ele>359.2</ele>
        <time>2022-10-02T10:32:14Z</time>
      </trkpt>
      <trkpt lat="47.41293" lon="8.12617">
        <ele>359.2</ele>
        <time>2022-10-02T10:32:15Z</time>
      </trkpt>
      <trkpt lat="47.41294" lon="8.12626">
        <ele>359.2</ele>
        <time>2022-10-02T10:32:16Z</time>
      </trkpt>
      <trkpt lat="47.41295" lon="8.12635">
        <ele>359.2</ele>
        <time>2022-10-02T10:32:17Z</time>
      </trkpt>
      <trkpt lat="47.41296" lon="8.12643">
        <ele>359.2</ele>
        <time>2022-10-02T10:32:18Z</time>
      </trkpt>
      <trkpt lat="47.41298" lon="8.12653">
        <ele>359.2</ele>
        <time>2022-10-02T10:32:19Z</time>
      </trkpt>
      <trkpt lat="47.41299" lon="8.12661">
        <ele>359.2</ele>
        <time>2022-10-02T10:32:20Z</time>
      </trkpt>
      <trkpt lat="47.413" lon="8.1267">
        <ele>359.2</ele>
        <time>2022-10-02T10:32:21Z</time>
      </trkpt>
      <trkpt lat="47.41301" lon="8.12679">
        <ele>359.2</ele>
        <time>2022-10-02T10:32:22Z</time>
      </trkpt>
      <trkpt lat="47.41303" lon="8.12688">
        <ele>359.2</ele>
        <time>2022-10-02T10:32:23Z</time>
      </trkpt>
      <trkpt lat="47.41304" lon="8.12696">
        <ele>359.2</ele>
        <time>2022-10-02T10:32:24Z</time>
      </trkpt>
      <trkpt lat="47.41305" lon="8.12706">
        <ele>359.2</ele>
        <time>2022-10-02T10:32:25Z</time>
      </trkpt>
      <trkpt lat="47.41306" lon="8.12714">
        <ele>359.2</ele>
        <time>2022-10-02T10:32:26Z</time>
      </trkpt>
      <trkpt lat="47.41308" lon="8.12723">
        <ele>359.2</ele>
        <time>2022-10-02T10:32:27Z</time>
      </trkpt>
      <trkpt lat="47.41308" lon="8.12731">
        <ele>359.2</ele>
        <time>2022-10-02T10:32:28Z</time>
      </trkpt>
      <trkpt lat="47.41309" lon="8.12739">
        <ele>359.3</ele>
        <time>2022-10-02T10:32:29Z</time>
      </trkpt>
      <trkpt lat="47.4131" lon="8.12748">
        <ele>359.3</ele>
        <time>2022-10-02T10:32:30Z</time>
      </trkpt>
      <trkpt lat="47.41312" lon="8.12756">
        <ele>359.3</ele>
        <time>2022-10-02T10:32:31Z</time>
      </trkpt>
      <trkpt lat="47.41313" lon="8.12765">
        <ele>359.3</ele>
        <time>2022-10-02T10:32:32Z</time>
      </trkpt>
      <trkpt lat="47.41314" lon="8.12773">
        <ele>359.3</ele>
        <time>2022-10-02T10:32:33Z</time>
      </trkpt>
      <trkpt lat="47.41315" lon="8.12781">
        <ele>359.3</ele>
        <time>2022-10-02T10:32:34Z</time>
      </trkpt>
      <trkpt lat="47.41317" lon="8.12789">
        <ele>359.3</ele>
        <time>2022-10-02T10:32:35Z</time>
      </trkpt>
      <trkpt lat="47.41318" lon="8.12797">
        <ele>359.3</ele>
        <time>2022-10-02T10:32:36Z</time>
      </trkpt>
      <trkpt lat="47.4132" lon="8.12805">
        <ele>359.3</ele>
        <time>2022-10-02T10:32:37Z</time>
      </trkpt>
      <trkpt lat="47.41322" lon="8.12814">
        <ele>359.3</ele>
        <time>2022-10-02T10:32:38Z</time>
      </trkpt>
      <trkpt lat="47.41323" lon="8.12823">
        <ele>359.3</ele>
        <time>2022-10-02T10:32:39Z</time>
      </trkpt>
      <trkpt lat="47.41323" lon="8.12832">
        <ele>359.3</ele>
        <time>2022-10-02T10:32:40Z</time>
      </trkpt>
      <trkpt lat="47.41325" lon="8.12839">
        <ele>359.3</ele>
        <time>2022-10-02T10:32:41Z</time>
      </trkpt>
      <trkpt lat="47.41326" lon="8.12848">
        <ele>359.3</ele>
        <time>2022-10-02T10:32:42Z</time>
      </trkpt>
      <trkpt lat="47.41327" lon="8.12857">
        <ele>359.3</ele>
        <time>2022-10-02T10:32:43Z</time>
      </trkpt>
      <trkpt lat="47.41329" lon="8.12865">
        <ele>359.3</ele>
        <time>2022-10-02T10:32:44Z</time>
      </trkpt>
      <trkpt lat="47.4133" lon="8.12874">
        <ele>359.3</ele>
        <time>2022-10-02T10:32:45Z</time>
      </trkpt>
      <trkpt lat="47.41331" lon="8.12883">
        <ele>359.3</ele>
        <time>2022-10-02T10:32:46Z</time>
      </trkpt>
      <trkpt lat="47.41333" lon="8.12892">
        <ele>359.3</ele>
        <time>2022-10-02T10:32:47Z</time>
      </trkpt>
      <trkpt lat="47.41334" lon="8.12901">
        <ele>359.3</ele>
        <time>2022-10-02T10:32:48Z</time>
      </trkpt>
      <trkpt lat="47.41336" lon="8.1291">
        <ele>359.3</ele>
        <time>2022-10-02T10:32:49Z</time>
      </trkpt>
      <trkpt lat="47.41337" lon="8.12918">
        <ele>359.3</ele>
        <time>2022-10-02T10:32:50Z</time>
      </trkpt>
      <trkpt lat="47.41338" lon="8.12928">
        <ele>359.3</ele>
        <time>2022-10-02T10:32:51Z</time>
      </trkpt>
      <trkpt lat="47.41339" lon="8.12936">
        <ele>359.3</ele>
        <time>2022-10-02T10:32:52Z</time>
      </trkpt>
      <trkpt lat="47.41341" lon="8.12945">
        <ele>359.3</ele>
        <time>2022-10-02T10:32:53Z</time>
      </trkpt>
      <trkpt lat="47.41343" lon="8.12953">
        <ele>359.3</ele>
        <time>2022-10-02T10:32:54Z</time>
      </trkpt>
      <trkpt lat="47.41344" lon="8.1296">
        <ele>359.3</ele>
        <time>2022-10-02T10:32:55Z</time>
      </trkpt>
      <trkpt lat="47.41345" lon="8.12972">
        <ele>359.3</ele>
        <time>2022-10-02T10:32:56Z</time>
      </trkpt>
      <trkpt lat="47.41345" lon="8.12978">
        <ele>359.3</ele>
        <time>2022-10-02T10:32:57Z</time>
      </trkpt>
      <trkpt lat="47.41347" lon="8.12987">
        <ele>359.3</ele>
        <time>2022-10-02T10:32:59Z</time>
      </trkpt>
      <trkpt lat="47.41349" lon="8.12996">
        <ele>359.3</ele>
        <time>2022-10-02T10:33:00Z</time>
      </trkpt>
      <trkpt lat="47.4135" lon="8.13005">
        <ele>359.3</ele>
        <time>2022-10-02T10:33:01Z</time>
      </trkpt>
      <trkpt lat="47.41351" lon="8.13013">
        <ele>359.3</ele>
        <time>2022-10-02T10:33:02Z</time>
      </trkpt>
      <trkpt lat="47.41353" lon="8.13023">
        <ele>359.3</ele>
        <time>2022-10-02T10:33:03Z</time>
      </trkpt>
      <trkpt lat="47.41354" lon="8.13031">
        <ele>359.3</ele>
        <time>2022-10-02T10:33:04Z</time>
      </trkpt>
      <trkpt lat="47.41356" lon="8.13041">
        <ele>359.3</ele>
        <time>2022-10-02T10:33:05Z</time>
      </trkpt>
      <trkpt lat="47.41357" lon="8.13049">
        <ele>359.3</ele>
        <time>2022-10-02T10:33:06Z</time>
      </trkpt>
      <trkpt lat="47.41358" lon="8.13058">
        <ele>359.3</ele>
        <time>2022-10-02T10:33:07Z</time>
      </trkpt>
      <trkpt lat="47.4136" lon="8.13066">
        <ele>359.3</ele>
        <time>2022-10-02T10:33:08Z</time>
      </trkpt>
      <trkpt lat="47.41361" lon="8.13075">
        <ele>359.3</ele>
        <time>2022-10-02T10:33:09Z</time>
      </trkpt>
      <trkpt lat="47.41362" lon="8.13083">
        <ele>359.3</ele>
        <time>2022-10-02T10:33:10Z</time>
      </trkpt>
      <trkpt lat="47.41363" lon="8.13092">
        <ele>359.3</ele>
        <time>2022-10-02T10:33:11Z</time>
      </trkpt>
      <trkpt lat="47.41363" lon="8.13101">
        <ele>359.3</ele>
        <time>2022-10-02T10:33:12Z</time>
      </trkpt>
      <trkpt lat="47.41366" lon="8.13107">
        <ele>359.3</ele>
        <time>2022-10-02T10:33:13Z</time>
      </trkpt>
      <trkpt lat="47.41367" lon="8.13116">
        <ele>359.3</ele>
        <time>2022-10-02T10:33:14Z</time>
      </trkpt>
      <trkpt lat="47.41368" lon="8.13125">
        <ele>359.3</ele>
        <time>2022-10-02T10:33:15Z</time>
      </trkpt>
      <trkpt lat="47.41369" lon="8.13133">
        <ele>359.3</ele>
        <time>2022-10-02T10:33:16Z</time>
      </trkpt>
      <trkpt lat="47.41369" lon="8.1314">
        <ele>359.2</ele>
        <time>2022-10-02T10:33:17Z</time>
      </trkpt>
      <trkpt lat="47.4137" lon="8.13148">
        <ele>359.2</ele>
        <time>2022-10-02T10:33:18Z</time>
      </trkpt>
      <trkpt lat="47.4137" lon="8.13158">
        <ele>359.2</ele>
        <time>2022-10-02T10:33:19Z</time>
      </trkpt>
      <trkpt lat="47.41371" lon="8.13166">
        <ele>359.2</ele>
        <time>2022-10-02T10:33:20Z</time>
      </trkpt>
      <trkpt lat="47.41373" lon="8.13174">
        <ele>359.2</ele>
        <time>2022-10-02T10:33:21Z</time>
      </trkpt>
      <trkpt lat="47.41374" lon="8.13181">
        <ele>359.2</ele>
        <time>2022-10-02T10:33:22Z</time>
      </trkpt>
      <trkpt lat="47.41374" lon="8.13189">
        <ele>359.2</ele>
        <time>2022-10-02T10:33:23Z</time>
      </trkpt>
      <trkpt lat="47.41374" lon="8.13197">
        <ele>359.2</ele>
        <time>2022-10-02T10:33:24Z</time>
      </trkpt>
      <trkpt lat="47.41375" lon="8.13204">
        <ele>359.2</ele>
        <time>2022-10-02T10:33:25Z</time>
      </trkpt>
      <trkpt lat="47.41377" lon="8.13214">
        <ele>359.2</ele>
        <time>2022-10-02T10:33:26Z</time>
      </trkpt>
      <trkpt lat="47.41378" lon="8.13221">
        <ele>359.2</ele>
        <time>2022-10-02T10:33:27Z</time>
      </trkpt>
      <trkpt lat="47.41379" lon="8.13229">
        <ele>359.2</ele>
        <time>2022-10-02T10:33:28Z</time>
      </trkpt>
      <trkpt lat="47.4138" lon="8.13238">
        <ele>359.2</ele>
        <time>2022-10-02T10:33:29Z</time>
      </trkpt>
      <trkpt lat="47.4138" lon="8.13246">
        <ele>359.2</ele>
        <time>2022-10-02T10:33:30Z</time>
      </trkpt>
      <trkpt lat="47.41382" lon="8.13254">
        <ele>359.2</ele>
        <time>2022-10-02T10:33:31Z</time>
      </trkpt>
      <trkpt lat="47.41384" lon="8.13263">
        <ele>359.1</ele>
        <time>2022-10-02T10:33:32Z</time>
      </trkpt>
      <trkpt lat="47.41384" lon="8.1327">
        <ele>359.1</ele>
        <time>2022-10-02T10:33:33Z</time>
      </trkpt>
      <trkpt lat="47.41386" lon="8.13279">
        <ele>359.1</ele>
        <time>2022-10-02T10:33:34Z</time>
      </trkpt>
      <trkpt lat="47.41387" lon="8.13288">
        <ele>359.1</ele>
        <time>2022-10-02T10:33:35Z</time>
      </trkpt>
      <trkpt lat="47.41389" lon="8.13296">
        <ele>359.1</ele>
        <time>2022-10-02T10:33:36Z</time>
      </trkpt>
      <trkpt lat="47.4139" lon="8.13304">
        <ele>359.1</ele>
        <time>2022-10-02T10:33:37Z</time>
      </trkpt>
      <trkpt lat="47.41391" lon="8.13312">
        <ele>359.1</ele>
        <time>2022-10-02T10:33:38Z</time>
      </trkpt>
      <trkpt lat="47.41393" lon="8.13321">
        <ele>359.1</ele>
        <time>2022-10-02T10:33:39Z</time>
      </trkpt>
      <trkpt lat="47.41393" lon="8.13329">
        <ele>359.1</ele>
        <time>2022-10-02T10:33:40Z</time>
      </trkpt>
      <trkpt lat="47.41395" lon="8.13338">
        <ele>359.1</ele>
        <time>2022-10-02T10:33:41Z</time>
      </trkpt>
      <trkpt lat="47.41396" lon="8.13347">
        <ele>359.1</ele>
        <time>2022-10-02T10:33:42Z</time>
      </trkpt>
      <trkpt lat="47.41396" lon="8.13354">
        <ele>359.1</ele>
        <time>2022-10-02T10:33:43Z</time>
      </trkpt>
      <trkpt lat="47.41398" lon="8.13362">
        <ele>359.1</ele>
        <time>2022-10-02T10:33:44Z</time>
      </trkpt>
      <trkpt lat="47.41399" lon="8.13372">
        <ele>359.1</ele>
        <time>2022-10-02T10:33:45Z</time>
      </trkpt>
      <trkpt lat="47.414" lon="8.13379">
        <ele>359</ele>
        <time>2022-10-02T10:33:46Z</time>
      </trkpt>
      <trkpt lat="47.41402" lon="8.13388">
        <ele>359</ele>
        <time>2022-10-02T10:33:47Z</time>
      </trkpt>
      <trkpt lat="47.41403" lon="8.13396">
        <ele>359</ele>
        <time>2022-10-02T10:33:48Z</time>
      </trkpt>
      <trkpt lat="47.41404" lon="8.13405">
        <ele>359</ele>
        <time>2022-10-02T10:33:49Z</time>
      </trkpt>
      <trkpt lat="47.41405" lon="8.13413">
        <ele>359</ele>
        <time>2022-10-02T10:33:50Z</time>
      </trkpt>
      <trkpt lat="47.41406" lon="8.13421">
        <ele>359</ele>
        <time>2022-10-02T10:33:51Z</time>
      </trkpt>
      <trkpt lat="47.41407" lon="8.13428">
        <ele>358.9</ele>
        <time>2022-10-02T10:33:52Z</time>
      </trkpt>
      <trkpt lat="47.41409" lon="8.13436">
        <ele>358.9</ele>
        <time>2022-10-02T10:33:53Z</time>
      </trkpt>
      <trkpt lat="47.41411" lon="8.13445">
        <ele>358.9</ele>
        <time>2022-10-02T10:33:54Z</time>
      </trkpt>
      <trkpt lat="47.41412" lon="8.13453">
        <ele>358.9</ele>
        <time>2022-10-02T10:33:55Z</time>
      </trkpt>
      <trkpt lat="47.41413" lon="8.13462">
        <ele>358.9</ele>
        <time>2022-10-02T10:33:56Z</time>
      </trkpt>
      <trkpt lat="47.41414" lon="8.1347">
        <ele>358.9</ele>
        <time>2022-10-02T10:33:57Z</time>
      </trkpt>
      <trkpt lat="47.41415" lon="8.13479">
        <ele>358.9</ele>
        <time>2022-10-02T10:33:58Z</time>
      </trkpt>
      <trkpt lat="47.41416" lon="8.13487">
        <ele>358.8</ele>
        <time>2022-10-02T10:33:59Z</time>
      </trkpt>
      <trkpt lat="47.41417" lon="8.13497">
        <ele>358.8</ele>
        <time>2022-10-02T10:34:00Z</time>
      </trkpt>
      <trkpt lat="47.41418" lon="8.13504">
        <ele>358.8</ele>
        <time>2022-10-02T10:34:01Z</time>
      </trkpt>
      <trkpt lat="47.41419" lon="8.13512">
        <ele>358.8</ele>
        <time>2022-10-02T10:34:02Z</time>
      </trkpt>
      <trkpt lat="47.4142" lon="8.13518">
        <ele>358.8</ele>
        <time>2022-10-02T10:34:03Z</time>
      </trkpt>
      <trkpt lat="47.41422" lon="8.13526">
        <ele>358.8</ele>
        <time>2022-10-02T10:34:04Z</time>
      </trkpt>
      <trkpt lat="47.41424" lon="8.13534">
        <ele>358.8</ele>
        <time>2022-10-02T10:34:05Z</time>
      </trkpt>
      <trkpt lat="47.41426" lon="8.13543">
        <ele>358.7</ele>
        <time>2022-10-02T10:34:06Z</time>
      </trkpt>
      <trkpt lat="47.41427" lon="8.13552">
        <ele>358.7</ele>
        <time>2022-10-02T10:34:07Z</time>
      </trkpt>
      <trkpt lat="47.41429" lon="8.1356">
        <ele>358.6</ele>
        <time>2022-10-02T10:34:08Z</time>
      </trkpt>
      <trkpt lat="47.4143" lon="8.13569">
        <ele>358.6</ele>
        <time>2022-10-02T10:34:09Z</time>
      </trkpt>
      <trkpt lat="47.41431" lon="8.13578">
        <ele>358.5</ele>
        <time>2022-10-02T10:34:10Z</time>
      </trkpt>
      <trkpt lat="47.41432" lon="8.13587">
        <ele>358.4</ele>
        <time>2022-10-02T10:34:11Z</time>
      </trkpt>
      <trkpt lat="47.41433" lon="8.13596">
        <ele>358.2</ele>
        <time>2022-10-02T10:34:12Z</time>
      </trkpt>
      <trkpt lat="47.41434" lon="8.13605">
        <ele>358.1</ele>
        <time>2022-10-02T10:34:13Z</time>
      </trkpt>
      <trkpt lat="47.41436" lon="8.13615">
        <ele>357.9</ele>
        <time>2022-10-02T10:34:14Z</time>
      </trkpt>
      <trkpt lat="47.41437" lon="8.13624">
        <ele>357.7</ele>
        <time>2022-10-02T10:34:15Z</time>
      </trkpt>
      <trkpt lat="47.41438" lon="8.13634">
        <ele>357.5</ele>
        <time>2022-10-02T10:34:16Z</time>
      </trkpt>
      <trkpt lat="47.4144" lon="8.13654">
        <ele>357.1</ele>
        <time>2022-10-02T10:34:17Z</time>
      </trkpt>
      <trkpt lat="47.41442" lon="8.13664">
        <ele>356.9</ele>
        <time>2022-10-02T10:34:18Z</time>
      </trkpt>
      <trkpt lat="47.41444" lon="8.13675">
        <ele>356.7</ele>
        <time>2022-10-02T10:34:19Z</time>
      </trkpt>
      <trkpt lat="47.41445" lon="8.13684">
        <ele>356.5</ele>
        <time>2022-10-02T10:34:20Z</time>
      </trkpt>
      <trkpt lat="47.41448" lon="8.13696">
        <ele>356.2</ele>
        <time>2022-10-02T10:34:21Z</time>
      </trkpt>
      <trkpt lat="47.41448" lon="8.13706">
        <ele>356</ele>
        <time>2022-10-02T10:34:22Z</time>
      </trkpt>
      <trkpt lat="47.4145" lon="8.13716">
        <ele>355.8</ele>
        <time>2022-10-02T10:34:23Z</time>
      </trkpt>
      <trkpt lat="47.41451" lon="8.13726">
        <ele>355.7</ele>
        <time>2022-10-02T10:34:24Z</time>
      </trkpt>
      <trkpt lat="47.41452" lon="8.13738">
        <ele>355.5</ele>
        <time>2022-10-02T10:34:25Z</time>
      </trkpt>
      <trkpt lat="47.41454" lon="8.13748">
        <ele>355.3</ele>
        <time>2022-10-02T10:34:26Z</time>
      </trkpt>
      <trkpt lat="47.41455" lon="8.13759">
        <ele>355.1</ele>
        <time>2022-10-02T10:34:27Z</time>
      </trkpt>
      <trkpt lat="47.41457" lon="8.13769">
        <ele>355</ele>
        <time>2022-10-02T10:34:28Z</time>
      </trkpt>
      <trkpt lat="47.41458" lon="8.1378">
        <ele>354.8</ele>
        <time>2022-10-02T10:34:29Z</time>
      </trkpt>
      <trkpt lat="47.41459" lon="8.13789">
        <ele>354.7</ele>
        <time>2022-10-02T10:34:30Z</time>
      </trkpt>
      <trkpt lat="47.41461" lon="8.13796">
        <ele>354.6</ele>
        <time>2022-10-02T10:34:31Z</time>
      </trkpt>
      <trkpt lat="47.41461" lon="8.13801">
        <ele>354.6</ele>
        <time>2022-10-02T10:34:32Z</time>
      </trkpt>
      <trkpt lat="47.41461" lon="8.13807">
        <ele>354.6</ele>
        <time>2022-10-02T10:34:33Z</time>
      </trkpt>
      <trkpt lat="47.41462" lon="8.13812">
        <ele>354.5</ele>
        <time>2022-10-02T10:34:34Z</time>
      </trkpt>
      <trkpt lat="47.41463" lon="8.13817">
        <ele>354.5</ele>
        <time>2022-10-02T10:34:35Z</time>
      </trkpt>
      <trkpt lat="47.41464" lon="8.13823">
        <ele>354.4</ele>
        <time>2022-10-02T10:34:36Z</time>
      </trkpt>
      <trkpt lat="47.41465" lon="8.13831">
        <ele>354.2</ele>
        <time>2022-10-02T10:34:37Z</time>
      </trkpt>
      <trkpt lat="47.41464" lon="8.13837">
        <ele>354.1</ele>
        <time>2022-10-02T10:34:38Z</time>
      </trkpt>
      <trkpt lat="47.41465" lon="8.13844">
        <ele>353.9</ele>
        <time>2022-10-02T10:34:39Z</time>
      </trkpt>
      <trkpt lat="47.41465" lon="8.13852">
        <ele>353.7</ele>
        <time>2022-10-02T10:34:40Z</time>
      </trkpt>
      <trkpt lat="47.41466" lon="8.13859">
        <ele>353.6</ele>
        <time>2022-10-02T10:34:41Z</time>
      </trkpt>
      <trkpt lat="47.41467" lon="8.13868">
        <ele>353.4</ele>
        <time>2022-10-02T10:34:42Z</time>
      </trkpt>
      <trkpt lat="47.41469" lon="8.13875">
        <ele>353.2</ele>
        <time>2022-10-02T10:34:43Z</time>
      </trkpt>
      <trkpt lat="47.4147" lon="8.13884">
        <ele>353</ele>
        <time>2022-10-02T10:34:44Z</time>
      </trkpt>
      <trkpt lat="47.41471" lon="8.13892">
        <ele>352.8</ele>
        <time>2022-10-02T10:34:45Z</time>
      </trkpt>
      <trkpt lat="47.41471" lon="8.13899">
        <ele>352.7</ele>
        <time>2022-10-02T10:34:46Z</time>
      </trkpt>
      <trkpt lat="47.41471" lon="8.13906">
        <ele>352.6</ele>
        <time>2022-10-02T10:34:47Z</time>
      </trkpt>
      <trkpt lat="47.41471" lon="8.13913">
        <ele>352.5</ele>
        <time>2022-10-02T10:34:48Z</time>
      </trkpt>
      <trkpt lat="47.41473" lon="8.13921">
        <ele>352.5</ele>
        <time>2022-10-02T10:34:49Z</time>
      </trkpt>
      <trkpt lat="47.41473" lon="8.1393">
        <ele>352.4</ele>
        <time>2022-10-02T10:34:50Z</time>
      </trkpt>
      <trkpt lat="47.41474" lon="8.13937">
        <ele>352.4</ele>
        <time>2022-10-02T10:34:51Z</time>
      </trkpt>
      <trkpt lat="47.41474" lon="8.13944">
        <ele>352.4</ele>
        <time>2022-10-02T10:34:52Z</time>
      </trkpt>
      <trkpt lat="47.41476" lon="8.13952">
        <ele>352.4</ele>
        <time>2022-10-02T10:34:53Z</time>
      </trkpt>
      <trkpt lat="47.41477" lon="8.13961">
        <ele>352.4</ele>
        <time>2022-10-02T10:34:54Z</time>
      </trkpt>
      <trkpt lat="47.41479" lon="8.13969">
        <ele>352.4</ele>
        <time>2022-10-02T10:34:55Z</time>
      </trkpt>
      <trkpt lat="47.41479" lon="8.13979">
        <ele>352.4</ele>
        <time>2022-10-02T10:34:56Z</time>
      </trkpt>
      <trkpt lat="47.4148" lon="8.13988">
        <ele>352.5</ele>
        <time>2022-10-02T10:34:57Z</time>
      </trkpt>
      <trkpt lat="47.41481" lon="8.13995">
        <ele>352.5</ele>
        <time>2022-10-02T10:34:58Z</time>
      </trkpt>
      <trkpt lat="47.41484" lon="8.14001">
        <ele>352.5</ele>
        <time>2022-10-02T10:34:59Z</time>
      </trkpt>
      <trkpt lat="47.41485" lon="8.14009">
        <ele>352.6</ele>
        <time>2022-10-02T10:35:00Z</time>
      </trkpt>
      <trkpt lat="47.41485" lon="8.14019">
        <ele>352.7</ele>
        <time>2022-10-02T10:35:01Z</time>
      </trkpt>
      <trkpt lat="47.41486" lon="8.14028">
        <ele>352.8</ele>
        <time>2022-10-02T10:35:02Z</time>
      </trkpt>
      <trkpt lat="47.41487" lon="8.14036">
        <ele>353</ele>
        <time>2022-10-02T10:35:03Z</time>
      </trkpt>
      <trkpt lat="47.41487" lon="8.14042">
        <ele>353.1</ele>
        <time>2022-10-02T10:35:05Z</time>
      </trkpt>
      <trkpt lat="47.41488" lon="8.14048">
        <ele>353.2</ele>
        <time>2022-10-02T10:35:06Z</time>
      </trkpt>
      <trkpt lat="47.41489" lon="8.14054">
        <ele>353.3</ele>
        <time>2022-10-02T10:35:07Z</time>
      </trkpt>
      <trkpt lat="47.4149" lon="8.14059">
        <ele>353.3</ele>
        <time>2022-10-02T10:35:08Z</time>
      </trkpt>
      <trkpt lat="47.41491" lon="8.14065">
        <ele>353.4</ele>
        <time>2022-10-02T10:35:09Z</time>
      </trkpt>
      <trkpt lat="47.41491" lon="8.14071">
        <ele>353.5</ele>
        <time>2022-10-02T10:35:10Z</time>
      </trkpt>
      <trkpt lat="47.41493" lon="8.14076">
        <ele>353.6</ele>
        <time>2022-10-02T10:35:11Z</time>
      </trkpt>
      <trkpt lat="47.41493" lon="8.14081">
        <ele>353.8</ele>
        <time>2022-10-02T10:35:12Z</time>
      </trkpt>
      <trkpt lat="47.41494" lon="8.14086">
        <ele>353.9</ele>
        <time>2022-10-02T10:35:13Z</time>
      </trkpt>
      <trkpt lat="47.41494" lon="8.1409">
        <ele>354.1</ele>
        <time>2022-10-02T10:35:14Z</time>
      </trkpt>
      <trkpt lat="47.41495" lon="8.14095">
        <ele>354.2</ele>
        <time>2022-10-02T10:35:15Z</time>
      </trkpt>
      <trkpt lat="47.41495" lon="8.141">
        <ele>354.4</ele>
        <time>2022-10-02T10:35:16Z</time>
      </trkpt>
      <trkpt lat="47.41496" lon="8.14105">
        <ele>354.6</ele>
        <time>2022-10-02T10:35:17Z</time>
      </trkpt>
      <trkpt lat="47.41496" lon="8.14107">
        <ele>354.6</ele>
        <time>2022-10-02T10:35:18Z</time>
      </trkpt>
      <trkpt lat="47.41497" lon="8.14112">
        <ele>354.8</ele>
        <time>2022-10-02T10:35:19Z</time>
      </trkpt>
      <trkpt lat="47.41497" lon="8.14117">
        <ele>355</ele>
        <time>2022-10-02T10:35:20Z</time>
      </trkpt>
      <trkpt lat="47.41498" lon="8.14118">
        <ele>355.1</ele>
        <time>2022-10-02T10:35:21Z</time>
      </trkpt>
      <trkpt lat="47.41498" lon="8.14122">
        <ele>355.3</ele>
        <time>2022-10-02T10:35:22Z</time>
      </trkpt>
      <trkpt lat="47.41499" lon="8.14123">
        <ele>355.3</ele>
        <time>2022-10-02T10:35:23Z</time>
      </trkpt>
      <trkpt lat="47.415" lon="8.14128">
        <ele>355.6</ele>
        <time>2022-10-02T10:35:24Z</time>
      </trkpt>
      <trkpt lat="47.415" lon="8.1413">
        <ele>355.6</ele>
        <time>2022-10-02T10:35:25Z</time>
      </trkpt>
      <trkpt lat="47.41501" lon="8.14132">
        <ele>355.8</ele>
        <time>2022-10-02T10:35:26Z</time>
      </trkpt>
      <trkpt lat="47.41501" lon="8.14135">
        <ele>355.9</ele>
        <time>2022-10-02T10:35:27Z</time>
      </trkpt>
      <trkpt lat="47.41501" lon="8.14139">
        <ele>356.1</ele>
        <time>2022-10-02T10:35:28Z</time>
      </trkpt>
      <trkpt lat="47.41501" lon="8.14141">
        <ele>356.1</ele>
        <time>2022-10-02T10:35:29Z</time>
      </trkpt>
      <trkpt lat="47.41501" lon="8.14143">
        <ele>356.3</ele>
        <time>2022-10-02T10:35:30Z</time>
      </trkpt>
      <trkpt lat="47.41502" lon="8.14145">
        <ele>356.3</ele>
        <time>2022-10-02T10:35:31Z</time>
      </trkpt>
      <trkpt lat="47.41502" lon="8.14148">
        <ele>356.5</ele>
        <time>2022-10-02T10:35:32Z</time>
      </trkpt>
      <trkpt lat="47.41502" lon="8.1415">
        <ele>356.5</ele>
        <time>2022-10-02T10:35:33Z</time>
      </trkpt>
      <trkpt lat="47.41502" lon="8.14151">
        <ele>356.6</ele>
        <time>2022-10-02T10:35:34Z</time>
      </trkpt>
      <trkpt lat="47.41503" lon="8.14156">
        <ele>356.8</ele>
        <time>2022-10-02T10:35:35Z</time>
      </trkpt>
      <trkpt lat="47.41503" lon="8.14157">
        <ele>356.8</ele>
        <time>2022-10-02T10:35:36Z</time>
      </trkpt>
      <trkpt lat="47.41504" lon="8.14162">
        <ele>357</ele>
        <time>2022-10-02T10:35:37Z</time>
      </trkpt>
      <trkpt lat="47.41504" lon="8.14163">
        <ele>357.1</ele>
        <time>2022-10-02T10:35:38Z</time>
      </trkpt>
      <trkpt lat="47.41504" lon="8.14169">
        <ele>357.2</ele>
        <time>2022-10-02T10:35:39Z</time>
      </trkpt>
      <trkpt lat="47.41504" lon="8.1417">
        <ele>357.3</ele>
        <time>2022-10-02T10:35:40Z</time>
      </trkpt>
      <trkpt lat="47.41505" lon="8.14175">
        <ele>357.4</ele>
        <time>2022-10-02T10:35:41Z</time>
      </trkpt>
      <trkpt lat="47.41505" lon="8.14176">
        <ele>357.4</ele>
        <time>2022-10-02T10:35:42Z</time>
      </trkpt>
      <trkpt lat="47.41504" lon="8.1418">
        <ele>357.6</ele>
        <time>2022-10-02T10:35:43Z</time>
      </trkpt>
      <trkpt lat="47.41503" lon="8.14181">
        <ele>357.6</ele>
        <time>2022-10-02T10:35:44Z</time>
      </trkpt>
      <trkpt lat="47.41504" lon="8.14185">
        <ele>357.7</ele>
        <time>2022-10-02T10:35:45Z</time>
      </trkpt>
      <trkpt lat="47.41504" lon="8.14187">
        <ele>357.7</ele>
        <time>2022-10-02T10:35:46Z</time>
      </trkpt>
      <trkpt lat="47.41504" lon="8.14191">
        <ele>357.8</ele>
        <time>2022-10-02T10:35:47Z</time>
      </trkpt>
      <trkpt lat="47.41504" lon="8.14192">
        <ele>357.8</ele>
        <time>2022-10-02T10:35:48Z</time>
      </trkpt>
      <trkpt lat="47.41504" lon="8.14195">
        <ele>357.9</ele>
        <time>2022-10-02T10:35:49Z</time>
      </trkpt>
      <trkpt lat="47.41504" lon="8.14198">
        <ele>358</ele>
        <time>2022-10-02T10:35:50Z</time>
      </trkpt>
      <trkpt lat="47.41505" lon="8.14202">
        <ele>358</ele>
        <time>2022-10-02T10:35:51Z</time>
      </trkpt>
      <trkpt lat="47.41505" lon="8.14203">
        <ele>358.1</ele>
        <time>2022-10-02T10:35:52Z</time>
      </trkpt>
      <trkpt lat="47.41507" lon="8.14208">
        <ele>358.2</ele>
        <time>2022-10-02T10:35:53Z</time>
      </trkpt>
      <trkpt lat="47.41507" lon="8.1421">
        <ele>358.2</ele>
        <time>2022-10-02T10:35:54Z</time>
      </trkpt>
      <trkpt lat="47.41508" lon="8.14215">
        <ele>358.3</ele>
        <time>2022-10-02T10:35:55Z</time>
      </trkpt>
      <trkpt lat="47.41508" lon="8.14217">
        <ele>358.3</ele>
        <time>2022-10-02T10:35:56Z</time>
      </trkpt>
      <trkpt lat="47.41509" lon="8.14222">
        <ele>358.4</ele>
        <time>2022-10-02T10:35:57Z</time>
      </trkpt>
      <trkpt lat="47.41509" lon="8.14224">
        <ele>358.4</ele>
        <time>2022-10-02T10:35:58Z</time>
      </trkpt>
      <trkpt lat="47.41509" lon="8.1423">
        <ele>358.4</ele>
        <time>2022-10-02T10:35:59Z</time>
      </trkpt>
      <trkpt lat="47.41509" lon="8.14232">
        <ele>358.4</ele>
        <time>2022-10-02T10:36:00Z</time>
      </trkpt>
      <trkpt lat="47.41509" lon="8.14236">
        <ele>358.5</ele>
        <time>2022-10-02T10:36:01Z</time>
      </trkpt>
      <trkpt lat="47.41509" lon="8.1424">
        <ele>358.5</ele>
        <time>2022-10-02T10:36:02Z</time>
      </trkpt>
      <trkpt lat="47.41509" lon="8.14246">
        <ele>358.5</ele>
        <time>2022-10-02T10:36:03Z</time>
      </trkpt>
      <trkpt lat="47.41509" lon="8.14251">
        <ele>358.6</ele>
        <time>2022-10-02T10:36:04Z</time>
      </trkpt>
      <trkpt lat="47.41509" lon="8.14257">
        <ele>358.6</ele>
        <time>2022-10-02T10:36:05Z</time>
      </trkpt>
      <trkpt lat="47.41509" lon="8.14263">
        <ele>358.7</ele>
        <time>2022-10-02T10:36:06Z</time>
      </trkpt>
      <trkpt lat="47.41509" lon="8.14269">
        <ele>358.7</ele>
        <time>2022-10-02T10:36:07Z</time>
      </trkpt>
      <trkpt lat="47.41509" lon="8.14276">
        <ele>358.8</ele>
        <time>2022-10-02T10:36:08Z</time>
      </trkpt>
      <trkpt lat="47.4151" lon="8.14282">
        <ele>358.8</ele>
        <time>2022-10-02T10:36:09Z</time>
      </trkpt>
      <trkpt lat="47.4151" lon="8.14289">
        <ele>358.8</ele>
        <time>2022-10-02T10:36:10Z</time>
      </trkpt>
      <trkpt lat="47.4151" lon="8.14302">
        <ele>358.9</ele>
        <time>2022-10-02T10:36:11Z</time>
      </trkpt>
      <trkpt lat="47.4151" lon="8.14309">
        <ele>358.9</ele>
        <time>2022-10-02T10:36:12Z</time>
      </trkpt>
      <trkpt lat="47.41511" lon="8.14316">
        <ele>358.9</ele>
        <time>2022-10-02T10:36:13Z</time>
      </trkpt>
      <trkpt lat="47.41512" lon="8.14322">
        <ele>359</ele>
        <time>2022-10-02T10:36:14Z</time>
      </trkpt>
      <trkpt lat="47.41512" lon="8.14329">
        <ele>359</ele>
        <time>2022-10-02T10:36:15Z</time>
      </trkpt>
      <trkpt lat="47.41511" lon="8.14335">
        <ele>359</ele>
        <time>2022-10-02T10:36:16Z</time>
      </trkpt>
      <trkpt lat="47.41512" lon="8.14343">
        <ele>359</ele>
        <time>2022-10-02T10:36:17Z</time>
      </trkpt>
      <trkpt lat="47.41513" lon="8.1435">
        <ele>359.1</ele>
        <time>2022-10-02T10:36:18Z</time>
      </trkpt>
      <trkpt lat="47.41514" lon="8.14357">
        <ele>359.1</ele>
        <time>2022-10-02T10:36:19Z</time>
      </trkpt>
      <trkpt lat="47.41514" lon="8.14364">
        <ele>359.1</ele>
        <time>2022-10-02T10:36:20Z</time>
      </trkpt>
      <trkpt lat="47.41514" lon="8.14372">
        <ele>359.1</ele>
        <time>2022-10-02T10:36:21Z</time>
      </trkpt>
      <trkpt lat="47.41515" lon="8.14379">
        <ele>359.1</ele>
        <time>2022-10-02T10:36:22Z</time>
      </trkpt>
      <trkpt lat="47.41515" lon="8.14386">
        <ele>359.1</ele>
        <time>2022-10-02T10:36:23Z</time>
      </trkpt>
      <trkpt lat="47.41516" lon="8.14394">
        <ele>359.1</ele>
        <time>2022-10-02T10:36:24Z</time>
      </trkpt>
      <trkpt lat="47.41516" lon="8.14402">
        <ele>359.1</ele>
        <time>2022-10-02T10:36:25Z</time>
      </trkpt>
      <trkpt lat="47.41516" lon="8.14409">
        <ele>359.1</ele>
        <time>2022-10-02T10:36:26Z</time>
      </trkpt>
      <trkpt lat="47.41516" lon="8.14418">
        <ele>359.1</ele>
        <time>2022-10-02T10:36:27Z</time>
      </trkpt>
      <trkpt lat="47.41517" lon="8.14425">
        <ele>359.1</ele>
        <time>2022-10-02T10:36:28Z</time>
      </trkpt>
      <trkpt lat="47.41517" lon="8.14433">
        <ele>359.1</ele>
        <time>2022-10-02T10:36:29Z</time>
      </trkpt>
      <trkpt lat="47.41517" lon="8.14441">
        <ele>359.1</ele>
        <time>2022-10-02T10:36:30Z</time>
      </trkpt>
      <trkpt lat="47.41517" lon="8.14449">
        <ele>359.2</ele>
        <time>2022-10-02T10:36:31Z</time>
      </trkpt>
      <trkpt lat="47.41518" lon="8.14456">
        <ele>359.2</ele>
        <time>2022-10-02T10:36:32Z</time>
      </trkpt>
      <trkpt lat="47.41517" lon="8.14464">
        <ele>359.2</ele>
        <time>2022-10-02T10:36:33Z</time>
      </trkpt>
      <trkpt lat="47.41518" lon="8.14471">
        <ele>359.2</ele>
        <time>2022-10-02T10:36:34Z</time>
      </trkpt>
      <trkpt lat="47.41518" lon="8.14479">
        <ele>359.2</ele>
        <time>2022-10-02T10:36:35Z</time>
      </trkpt>
      <trkpt lat="47.41519" lon="8.14486">
        <ele>359.2</ele>
        <time>2022-10-02T10:36:36Z</time>
      </trkpt>
      <trkpt lat="47.41519" lon="8.14494">
        <ele>359.2</ele>
        <time>2022-10-02T10:36:37Z</time>
      </trkpt>
      <trkpt lat="47.41519" lon="8.14501">
        <ele>359.2</ele>
        <time>2022-10-02T10:36:38Z</time>
      </trkpt>
      <trkpt lat="47.41519" lon="8.14509">
        <ele>359.2</ele>
        <time>2022-10-02T10:36:39Z</time>
      </trkpt>
      <trkpt lat="47.41519" lon="8.14516">
        <ele>359.2</ele>
        <time>2022-10-02T10:36:40Z</time>
      </trkpt>
      <trkpt lat="47.41519" lon="8.14524">
        <ele>359.2</ele>
        <time>2022-10-02T10:36:41Z</time>
      </trkpt>
      <trkpt lat="47.41519" lon="8.14531">
        <ele>359.2</ele>
        <time>2022-10-02T10:36:42Z</time>
      </trkpt>
      <trkpt lat="47.4152" lon="8.14539">
        <ele>359.2</ele>
        <time>2022-10-02T10:36:43Z</time>
      </trkpt>
      <trkpt lat="47.41519" lon="8.14546">
        <ele>359.2</ele>
        <time>2022-10-02T10:36:44Z</time>
      </trkpt>
      <trkpt lat="47.4152" lon="8.14554">
        <ele>359.2</ele>
        <time>2022-10-02T10:36:45Z</time>
      </trkpt>
      <trkpt lat="47.41519" lon="8.14563">
        <ele>359.2</ele>
        <time>2022-10-02T10:36:46Z</time>
      </trkpt>
      <trkpt lat="47.41519" lon="8.14571">
        <ele>359.1</ele>
        <time>2022-10-02T10:36:47Z</time>
      </trkpt>
      <trkpt lat="47.41519" lon="8.1458">
        <ele>359.1</ele>
        <time>2022-10-02T10:36:48Z</time>
      </trkpt>
      <trkpt lat="47.41519" lon="8.14588">
        <ele>359.1</ele>
        <time>2022-10-02T10:36:49Z</time>
      </trkpt>
      <trkpt lat="47.41519" lon="8.14595">
        <ele>359.1</ele>
        <time>2022-10-02T10:36:50Z</time>
      </trkpt>
      <trkpt lat="47.41519" lon="8.14603">
        <ele>359.1</ele>
        <time>2022-10-02T10:36:51Z</time>
      </trkpt>
      <trkpt lat="47.41518" lon="8.14611">
        <ele>359.1</ele>
        <time>2022-10-02T10:36:52Z</time>
      </trkpt>
      <trkpt lat="47.41518" lon="8.1462">
        <ele>359.1</ele>
        <time>2022-10-02T10:36:53Z</time>
      </trkpt>
      <trkpt lat="47.41518" lon="8.14627">
        <ele>359.1</ele>
        <time>2022-10-02T10:36:54Z</time>
      </trkpt>
      <trkpt lat="47.41517" lon="8.14635">
        <ele>359.1</ele>
        <time>2022-10-02T10:36:55Z</time>
      </trkpt>
      <trkpt lat="47.41518" lon="8.14643">
        <ele>359.1</ele>
        <time>2022-10-02T10:36:56Z</time>
      </trkpt>
      <trkpt lat="47.41517" lon="8.1465">
        <ele>359.1</ele>
        <time>2022-10-02T10:36:57Z</time>
      </trkpt>
      <trkpt lat="47.41517" lon="8.14657">
        <ele>359.1</ele>
        <time>2022-10-02T10:36:58Z</time>
      </trkpt>
      <trkpt lat="47.41517" lon="8.14667">
        <ele>359.1</ele>
        <time>2022-10-02T10:36:59Z</time>
      </trkpt>
      <trkpt lat="47.41517" lon="8.14675">
        <ele>359.1</ele>
        <time>2022-10-02T10:37:00Z</time>
      </trkpt>
      <trkpt lat="47.41517" lon="8.14684">
        <ele>359.1</ele>
        <time>2022-10-02T10:37:01Z</time>
      </trkpt>
      <trkpt lat="47.41517" lon="8.14693">
        <ele>359.1</ele>
        <time>2022-10-02T10:37:02Z</time>
      </trkpt>
      <trkpt lat="47.41516" lon="8.14701">
        <ele>359.1</ele>
        <time>2022-10-02T10:37:03Z</time>
      </trkpt>
      <trkpt lat="47.41516" lon="8.14709">
        <ele>359.1</ele>
        <time>2022-10-02T10:37:04Z</time>
      </trkpt>
      <trkpt lat="47.41516" lon="8.14718">
        <ele>359.2</ele>
        <time>2022-10-02T10:37:05Z</time>
      </trkpt>
      <trkpt lat="47.41516" lon="8.14726">
        <ele>359.2</ele>
        <time>2022-10-02T10:37:06Z</time>
      </trkpt>
      <trkpt lat="47.41516" lon="8.14735">
        <ele>359.2</ele>
        <time>2022-10-02T10:37:07Z</time>
      </trkpt>
      <trkpt lat="47.41516" lon="8.14743">
        <ele>359.2</ele>
        <time>2022-10-02T10:37:08Z</time>
      </trkpt>
      <trkpt lat="47.41516" lon="8.14751">
        <ele>359.3</ele>
        <time>2022-10-02T10:37:09Z</time>
      </trkpt>
      <trkpt lat="47.41516" lon="8.14758">
        <ele>359.3</ele>
        <time>2022-10-02T10:37:11Z</time>
      </trkpt>
      <trkpt lat="47.41516" lon="8.14766">
        <ele>359.3</ele>
        <time>2022-10-02T10:37:12Z</time>
      </trkpt>
      <trkpt lat="47.41515" lon="8.14774">
        <ele>359.3</ele>
        <time>2022-10-02T10:37:13Z</time>
      </trkpt>
      <trkpt lat="47.41515" lon="8.1478">
        <ele>359.4</ele>
        <time>2022-10-02T10:37:14Z</time>
      </trkpt>
      <trkpt lat="47.41515" lon="8.14788">
        <ele>359.4</ele>
        <time>2022-10-02T10:37:15Z</time>
      </trkpt>
      <trkpt lat="47.41515" lon="8.14795">
        <ele>359.4</ele>
        <time>2022-10-02T10:37:16Z</time>
      </trkpt>
      <trkpt lat="47.41514" lon="8.14802">
        <ele>359.5</ele>
        <time>2022-10-02T10:37:17Z</time>
      </trkpt>
      <trkpt lat="47.41515" lon="8.14808">
        <ele>359.5</ele>
        <time>2022-10-02T10:37:18Z</time>
      </trkpt>
      <trkpt lat="47.41515" lon="8.14816">
        <ele>359.6</ele>
        <time>2022-10-02T10:37:19Z</time>
      </trkpt>
      <trkpt lat="47.41515" lon="8.14823">
        <ele>359.6</ele>
        <time>2022-10-02T10:37:20Z</time>
      </trkpt>
      <trkpt lat="47.41516" lon="8.14831">
        <ele>359.7</ele>
        <time>2022-10-02T10:37:21Z</time>
      </trkpt>
      <trkpt lat="47.41516" lon="8.14836">
        <ele>359.7</ele>
        <time>2022-10-02T10:37:22Z</time>
      </trkpt>
      <trkpt lat="47.41517" lon="8.14843">
        <ele>359.8</ele>
        <time>2022-10-02T10:37:23Z</time>
      </trkpt>
      <trkpt lat="47.41518" lon="8.14848">
        <ele>359.9</ele>
        <time>2022-10-02T10:37:24Z</time>
      </trkpt>
      <trkpt lat="47.41519" lon="8.14854">
        <ele>359.9</ele>
        <time>2022-10-02T10:37:25Z</time>
      </trkpt>
      <trkpt lat="47.4152" lon="8.14859">
        <ele>360</ele>
        <time>2022-10-02T10:37:26Z</time>
      </trkpt>
      <trkpt lat="47.4152" lon="8.14865">
        <ele>360</ele>
        <time>2022-10-02T10:37:27Z</time>
      </trkpt>
      <trkpt lat="47.41521" lon="8.1487">
        <ele>360.1</ele>
        <time>2022-10-02T10:37:28Z</time>
      </trkpt>
      <trkpt lat="47.41522" lon="8.14876">
        <ele>360.1</ele>
        <time>2022-10-02T10:37:29Z</time>
      </trkpt>
      <trkpt lat="47.41523" lon="8.14883">
        <ele>360.2</ele>
        <time>2022-10-02T10:37:30Z</time>
      </trkpt>
      <trkpt lat="47.41523" lon="8.14886">
        <ele>360.2</ele>
        <time>2022-10-02T10:37:31Z</time>
      </trkpt>
      <trkpt lat="47.41523" lon="8.14891">
        <ele>360.2</ele>
        <time>2022-10-02T10:37:32Z</time>
      </trkpt>
      <trkpt lat="47.41523" lon="8.14897">
        <ele>360.2</ele>
        <time>2022-10-02T10:37:33Z</time>
      </trkpt>
      <trkpt lat="47.41524" lon="8.14903">
        <ele>360.2</ele>
        <time>2022-10-02T10:37:34Z</time>
      </trkpt>
      <trkpt lat="47.41523" lon="8.1491">
        <ele>360.2</ele>
        <time>2022-10-02T10:37:35Z</time>
      </trkpt>
      <trkpt lat="47.41524" lon="8.14915">
        <ele>360.3</ele>
        <time>2022-10-02T10:37:36Z</time>
      </trkpt>
      <trkpt lat="47.41524" lon="8.14923">
        <ele>360.3</ele>
        <time>2022-10-02T10:37:37Z</time>
      </trkpt>
      <trkpt lat="47.41523" lon="8.14929">
        <ele>360.3</ele>
        <time>2022-10-02T10:37:38Z</time>
      </trkpt>
      <trkpt lat="47.41523" lon="8.14936">
        <ele>360.3</ele>
        <time>2022-10-02T10:37:39Z</time>
      </trkpt>
      <trkpt lat="47.41523" lon="8.14943">
        <ele>360.3</ele>
        <time>2022-10-02T10:37:40Z</time>
      </trkpt>
      <trkpt lat="47.41523" lon="8.14951">
        <ele>360.2</ele>
        <time>2022-10-02T10:37:41Z</time>
      </trkpt>
      <trkpt lat="47.41523" lon="8.14957">
        <ele>360.2</ele>
        <time>2022-10-02T10:37:42Z</time>
      </trkpt>
      <trkpt lat="47.41523" lon="8.14964">
        <ele>360.2</ele>
        <time>2022-10-02T10:37:43Z</time>
      </trkpt>
      <trkpt lat="47.41524" lon="8.14972">
        <ele>360.2</ele>
        <time>2022-10-02T10:37:44Z</time>
      </trkpt>
      <trkpt lat="47.41524" lon="8.1498">
        <ele>360.2</ele>
        <time>2022-10-02T10:37:45Z</time>
      </trkpt>
      <trkpt lat="47.41524" lon="8.14988">
        <ele>360.1</ele>
        <time>2022-10-02T10:37:46Z</time>
      </trkpt>
      <trkpt lat="47.41525" lon="8.14995">
        <ele>360.1</ele>
        <time>2022-10-02T10:37:47Z</time>
      </trkpt>
      <trkpt lat="47.41526" lon="8.15011">
        <ele>360.1</ele>
        <time>2022-10-02T10:37:48Z</time>
      </trkpt>
      <trkpt lat="47.41527" lon="8.1502">
        <ele>360</ele>
        <time>2022-10-02T10:37:49Z</time>
      </trkpt>
      <trkpt lat="47.41528" lon="8.15029">
        <ele>360</ele>
        <time>2022-10-02T10:37:50Z</time>
      </trkpt>
      <trkpt lat="47.41529" lon="8.15037">
        <ele>360</ele>
        <time>2022-10-02T10:37:51Z</time>
      </trkpt>
      <trkpt lat="47.41529" lon="8.15044">
        <ele>360</ele>
        <time>2022-10-02T10:37:52Z</time>
      </trkpt>
      <trkpt lat="47.4153" lon="8.15053">
        <ele>360</ele>
        <time>2022-10-02T10:37:53Z</time>
      </trkpt>
      <trkpt lat="47.41531" lon="8.15061">
        <ele>359.9</ele>
        <time>2022-10-02T10:37:54Z</time>
      </trkpt>
      <trkpt lat="47.41533" lon="8.15069">
        <ele>359.9</ele>
        <time>2022-10-02T10:37:55Z</time>
      </trkpt>
      <trkpt lat="47.41535" lon="8.15076">
        <ele>359.9</ele>
        <time>2022-10-02T10:37:56Z</time>
      </trkpt>
      <trkpt lat="47.41535" lon="8.15085">
        <ele>359.9</ele>
        <time>2022-10-02T10:37:57Z</time>
      </trkpt>
      <trkpt lat="47.41536" lon="8.15093">
        <ele>359.9</ele>
        <time>2022-10-02T10:37:58Z</time>
      </trkpt>
      <trkpt lat="47.41538" lon="8.151">
        <ele>359.8</ele>
        <time>2022-10-02T10:37:59Z</time>
      </trkpt>
      <trkpt lat="47.41539" lon="8.15108">
        <ele>359.8</ele>
        <time>2022-10-02T10:38:00Z</time>
      </trkpt>
      <trkpt lat="47.4154" lon="8.15115">
        <ele>359.8</ele>
        <time>2022-10-02T10:38:01Z</time>
      </trkpt>
      <trkpt lat="47.41541" lon="8.15121">
        <ele>359.8</ele>
        <time>2022-10-02T10:38:02Z</time>
      </trkpt>
      <trkpt lat="47.41542" lon="8.15128">
        <ele>359.7</ele>
        <time>2022-10-02T10:38:03Z</time>
      </trkpt>
      <trkpt lat="47.41542" lon="8.15135">
        <ele>359.7</ele>
        <time>2022-10-02T10:38:04Z</time>
      </trkpt>
      <trkpt lat="47.41543" lon="8.15141">
        <ele>359.7</ele>
        <time>2022-10-02T10:38:05Z</time>
      </trkpt>
      <trkpt lat="47.41543" lon="8.15147">
        <ele>359.6</ele>
        <time>2022-10-02T10:38:06Z</time>
      </trkpt>
      <trkpt lat="47.41545" lon="8.15153">
        <ele>359.5</ele>
        <time>2022-10-02T10:38:07Z</time>
      </trkpt>
      <trkpt lat="47.41547" lon="8.15158">
        <ele>359.5</ele>
        <time>2022-10-02T10:38:08Z</time>
      </trkpt>
      <trkpt lat="47.41548" lon="8.15164">
        <ele>359.3</ele>
        <time>2022-10-02T10:38:09Z</time>
      </trkpt>
      <trkpt lat="47.41549" lon="8.15169">
        <ele>359.2</ele>
        <time>2022-10-02T10:38:10Z</time>
      </trkpt>
      <trkpt lat="47.4155" lon="8.15174">
        <ele>359.1</ele>
        <time>2022-10-02T10:38:11Z</time>
      </trkpt>
      <trkpt lat="47.41551" lon="8.1518">
        <ele>359</ele>
        <time>2022-10-02T10:38:12Z</time>
      </trkpt>
      <trkpt lat="47.41551" lon="8.15182">
        <ele>358.9</ele>
        <time>2022-10-02T10:38:13Z</time>
      </trkpt>
      <trkpt lat="47.41551" lon="8.15186">
        <ele>358.9</ele>
        <time>2022-10-02T10:38:14Z</time>
      </trkpt>
      <trkpt lat="47.4155" lon="8.15191">
        <ele>358.6</ele>
        <time>2022-10-02T10:38:15Z</time>
      </trkpt>
      <trkpt lat="47.4155" lon="8.15197">
        <ele>358.2</ele>
        <time>2022-10-02T10:38:16Z</time>
      </trkpt>
      <trkpt lat="47.41551" lon="8.15204">
        <ele>357.9</ele>
        <time>2022-10-02T10:38:17Z</time>
      </trkpt>
      <trkpt lat="47.41551" lon="8.15209">
        <ele>357.5</ele>
        <time>2022-10-02T10:38:18Z</time>
      </trkpt>
      <trkpt lat="47.41551" lon="8.15217">
        <ele>357.1</ele>
        <time>2022-10-02T10:38:19Z</time>
      </trkpt>
      <trkpt lat="47.41552" lon="8.15224">
        <ele>356.7</ele>
        <time>2022-10-02T10:38:20Z</time>
      </trkpt>
      <trkpt lat="47.41552" lon="8.15231">
        <ele>356.3</ele>
        <time>2022-10-02T10:38:21Z</time>
      </trkpt>
      <trkpt lat="47.41552" lon="8.15238">
        <ele>355.9</ele>
        <time>2022-10-02T10:38:22Z</time>
      </trkpt>
      <trkpt lat="47.41552" lon="8.15245">
        <ele>355.4</ele>
        <time>2022-10-02T10:38:23Z</time>
      </trkpt>
      <trkpt lat="47.41553" lon="8.15253">
        <ele>355</ele>
        <time>2022-10-02T10:38:24Z</time>
      </trkpt>
      <trkpt lat="47.41553" lon="8.15262">
        <ele>354.5</ele>
        <time>2022-10-02T10:38:25Z</time>
      </trkpt>
      <trkpt lat="47.41554" lon="8.15272">
        <ele>354.1</ele>
        <time>2022-10-02T10:38:26Z</time>
      </trkpt>
      <trkpt lat="47.41556" lon="8.15281">
        <ele>353.7</ele>
        <time>2022-10-02T10:38:27Z</time>
      </trkpt>
      <trkpt lat="47.41558" lon="8.15291">
        <ele>353.4</ele>
        <time>2022-10-02T10:38:28Z</time>
      </trkpt>
      <trkpt lat="47.41559" lon="8.153">
        <ele>353.2</ele>
        <time>2022-10-02T10:38:29Z</time>
      </trkpt>
      <trkpt lat="47.4156" lon="8.15311">
        <ele>353</ele>
        <time>2022-10-02T10:38:30Z</time>
      </trkpt>
      <trkpt lat="47.41561" lon="8.15319">
        <ele>352.9</ele>
        <time>2022-10-02T10:38:31Z</time>
      </trkpt>
      <trkpt lat="47.41562" lon="8.15327">
        <ele>352.8</ele>
        <time>2022-10-02T10:38:32Z</time>
      </trkpt>
      <trkpt lat="47.41563" lon="8.15337">
        <ele>352.7</ele>
        <time>2022-10-02T10:38:33Z</time>
      </trkpt>
      <trkpt lat="47.41565" lon="8.15346">
        <ele>352.6</ele>
        <time>2022-10-02T10:38:34Z</time>
      </trkpt>
      <trkpt lat="47.41566" lon="8.15354">
        <ele>352.5</ele>
        <time>2022-10-02T10:38:35Z</time>
      </trkpt>
      <trkpt lat="47.41567" lon="8.15362">
        <ele>352.4</ele>
        <time>2022-10-02T10:38:36Z</time>
      </trkpt>
      <trkpt lat="47.41569" lon="8.1537">
        <ele>352.3</ele>
        <time>2022-10-02T10:38:37Z</time>
      </trkpt>
      <trkpt lat="47.41569" lon="8.15378">
        <ele>352.2</ele>
        <time>2022-10-02T10:38:38Z</time>
      </trkpt>
      <trkpt lat="47.41569" lon="8.15387">
        <ele>352.1</ele>
        <time>2022-10-02T10:38:39Z</time>
      </trkpt>
      <trkpt lat="47.4157" lon="8.15394">
        <ele>352</ele>
        <time>2022-10-02T10:38:40Z</time>
      </trkpt>
      <trkpt lat="47.41572" lon="8.15402">
        <ele>351.9</ele>
        <time>2022-10-02T10:38:41Z</time>
      </trkpt>
      <trkpt lat="47.41572" lon="8.15407">
        <ele>351.9</ele>
        <time>2022-10-02T10:38:42Z</time>
      </trkpt>
      <trkpt lat="47.41575" lon="8.15417">
        <ele>351.9</ele>
        <time>2022-10-02T10:38:43Z</time>
      </trkpt>
      <trkpt lat="47.41576" lon="8.15424">
        <ele>351.9</ele>
        <time>2022-10-02T10:38:44Z</time>
      </trkpt>
      <trkpt lat="47.41577" lon="8.15433">
        <ele>351.9</ele>
        <time>2022-10-02T10:38:45Z</time>
      </trkpt>
      <trkpt lat="47.41578" lon="8.15441">
        <ele>351.8</ele>
        <time>2022-10-02T10:38:46Z</time>
      </trkpt>
      <trkpt lat="47.4158" lon="8.15449">
        <ele>351.8</ele>
        <time>2022-10-02T10:38:47Z</time>
      </trkpt>
      <trkpt lat="47.41581" lon="8.15457">
        <ele>351.8</ele>
        <time>2022-10-02T10:38:48Z</time>
      </trkpt>
      <trkpt lat="47.41582" lon="8.15466">
        <ele>351.9</ele>
        <time>2022-10-02T10:38:49Z</time>
      </trkpt>
      <trkpt lat="47.41583" lon="8.15474">
        <ele>351.9</ele>
        <time>2022-10-02T10:38:50Z</time>
      </trkpt>
      <trkpt lat="47.41585" lon="8.15482">
        <ele>351.9</ele>
        <time>2022-10-02T10:38:51Z</time>
      </trkpt>
      <trkpt lat="47.41586" lon="8.1549">
        <ele>352</ele>
        <time>2022-10-02T10:38:52Z</time>
      </trkpt>
      <trkpt lat="47.41587" lon="8.15498">
        <ele>352</ele>
        <time>2022-10-02T10:38:53Z</time>
      </trkpt>
      <trkpt lat="47.41588" lon="8.15506">
        <ele>352</ele>
        <time>2022-10-02T10:38:54Z</time>
      </trkpt>
      <trkpt lat="47.41589" lon="8.15514">
        <ele>352.1</ele>
        <time>2022-10-02T10:38:55Z</time>
      </trkpt>
      <trkpt lat="47.4159" lon="8.15522">
        <ele>352.1</ele>
        <time>2022-10-02T10:38:56Z</time>
      </trkpt>
      <trkpt lat="47.41591" lon="8.1553">
        <ele>352.1</ele>
        <time>2022-10-02T10:38:57Z</time>
      </trkpt>
      <trkpt lat="47.41593" lon="8.15539">
        <ele>352.2</ele>
        <time>2022-10-02T10:38:58Z</time>
      </trkpt>
      <trkpt lat="47.41594" lon="8.15547">
        <ele>352.2</ele>
        <time>2022-10-02T10:38:59Z</time>
      </trkpt>
      <trkpt lat="47.41596" lon="8.15556">
        <ele>352.2</ele>
        <time>2022-10-02T10:39:00Z</time>
      </trkpt>
      <trkpt lat="47.41598" lon="8.15563">
        <ele>352.3</ele>
        <time>2022-10-02T10:39:01Z</time>
      </trkpt>
      <trkpt lat="47.41598" lon="8.15571">
        <ele>352.3</ele>
        <time>2022-10-02T10:39:02Z</time>
      </trkpt>
      <trkpt lat="47.41599" lon="8.1558">
        <ele>352.3</ele>
        <time>2022-10-02T10:39:03Z</time>
      </trkpt>
      <trkpt lat="47.41602" lon="8.15589">
        <ele>352.4</ele>
        <time>2022-10-02T10:39:04Z</time>
      </trkpt>
      <trkpt lat="47.41601" lon="8.15597">
        <ele>352.4</ele>
        <time>2022-10-02T10:39:05Z</time>
      </trkpt>
      <trkpt lat="47.41603" lon="8.15606">
        <ele>352.4</ele>
        <time>2022-10-02T10:39:06Z</time>
      </trkpt>
      <trkpt lat="47.41604" lon="8.15615">
        <ele>352.5</ele>
        <time>2022-10-02T10:39:07Z</time>
      </trkpt>
      <trkpt lat="47.41606" lon="8.15623">
        <ele>352.5</ele>
        <time>2022-10-02T10:39:08Z</time>
      </trkpt>
      <trkpt lat="47.41607" lon="8.15631">
        <ele>352.5</ele>
        <time>2022-10-02T10:39:09Z</time>
      </trkpt>
      <trkpt lat="47.41608" lon="8.1564">
        <ele>352.5</ele>
        <time>2022-10-02T10:39:10Z</time>
      </trkpt>
      <trkpt lat="47.41609" lon="8.15648">
        <ele>352.6</ele>
        <time>2022-10-02T10:39:11Z</time>
      </trkpt>
      <trkpt lat="47.41611" lon="8.15657">
        <ele>352.6</ele>
        <time>2022-10-02T10:39:12Z</time>
      </trkpt>
      <trkpt lat="47.41612" lon="8.15666">
        <ele>352.6</ele>
        <time>2022-10-02T10:39:13Z</time>
      </trkpt>
      <trkpt lat="47.41613" lon="8.15674">
        <ele>352.6</ele>
        <time>2022-10-02T10:39:14Z</time>
      </trkpt>
      <trkpt lat="47.41615" lon="8.15683">
        <ele>352.6</ele>
        <time>2022-10-02T10:39:15Z</time>
      </trkpt>
      <trkpt lat="47.41616" lon="8.15691">
        <ele>352.6</ele>
        <time>2022-10-02T10:39:17Z</time>
      </trkpt>
      <trkpt lat="47.41618" lon="8.157">
        <ele>352.6</ele>
        <time>2022-10-02T10:39:18Z</time>
      </trkpt>
      <trkpt lat="47.41619" lon="8.15708">
        <ele>352.6</ele>
        <time>2022-10-02T10:39:19Z</time>
      </trkpt>
      <trkpt lat="47.41621" lon="8.15716">
        <ele>352.7</ele>
        <time>2022-10-02T10:39:20Z</time>
      </trkpt>
      <trkpt lat="47.41622" lon="8.15724">
        <ele>352.7</ele>
        <time>2022-10-02T10:39:21Z</time>
      </trkpt>
      <trkpt lat="47.41624" lon="8.15733">
        <ele>352.7</ele>
        <time>2022-10-02T10:39:22Z</time>
      </trkpt>
      <trkpt lat="47.41626" lon="8.1574">
        <ele>352.7</ele>
        <time>2022-10-02T10:39:23Z</time>
      </trkpt>
      <trkpt lat="47.41628" lon="8.15748">
        <ele>352.8</ele>
        <time>2022-10-02T10:39:24Z</time>
      </trkpt>
      <trkpt lat="47.4163" lon="8.15756">
        <ele>352.8</ele>
        <time>2022-10-02T10:39:25Z</time>
      </trkpt>
      <trkpt lat="47.41632" lon="8.15764">
        <ele>352.8</ele>
        <time>2022-10-02T10:39:26Z</time>
      </trkpt>
      <trkpt lat="47.41632" lon="8.15769">
        <ele>352.8</ele>
        <time>2022-10-02T10:39:27Z</time>
      </trkpt>
      <trkpt lat="47.41635" lon="8.15778">
        <ele>352.8</ele>
        <time>2022-10-02T10:39:28Z</time>
      </trkpt>
      <trkpt lat="47.41638" lon="8.15786">
        <ele>352.9</ele>
        <time>2022-10-02T10:39:29Z</time>
      </trkpt>
      <trkpt lat="47.4164" lon="8.15794">
        <ele>352.9</ele>
        <time>2022-10-02T10:39:30Z</time>
      </trkpt>
      <trkpt lat="47.41643" lon="8.15802">
        <ele>352.9</ele>
        <time>2022-10-02T10:39:31Z</time>
      </trkpt>
      <trkpt lat="47.41645" lon="8.1581">
        <ele>353</ele>
        <time>2022-10-02T10:39:32Z</time>
      </trkpt>
      <trkpt lat="47.41647" lon="8.15817">
        <ele>352.9</ele>
        <time>2022-10-02T10:39:33Z</time>
      </trkpt>
      <trkpt lat="47.41649" lon="8.15824">
        <ele>352.9</ele>
        <time>2022-10-02T10:39:34Z</time>
      </trkpt>
      <trkpt lat="47.41652" lon="8.15831">
        <ele>352.9</ele>
        <time>2022-10-02T10:39:35Z</time>
      </trkpt>
      <trkpt lat="47.41651" lon="8.15838">
        <ele>352.9</ele>
        <time>2022-10-02T10:39:36Z</time>
      </trkpt>
      <trkpt lat="47.41654" lon="8.15845">
        <ele>352.9</ele>
        <time>2022-10-02T10:39:37Z</time>
      </trkpt>
      <trkpt lat="47.41656" lon="8.15852">
        <ele>352.9</ele>
        <time>2022-10-02T10:39:38Z</time>
      </trkpt>
      <trkpt lat="47.41661" lon="8.1586">
        <ele>352.8</ele>
        <time>2022-10-02T10:39:39Z</time>
      </trkpt>
      <trkpt lat="47.41664" lon="8.15866">
        <ele>352.8</ele>
        <time>2022-10-02T10:39:40Z</time>
      </trkpt>
      <trkpt lat="47.41667" lon="8.15874">
        <ele>352.8</ele>
        <time>2022-10-02T10:39:41Z</time>
      </trkpt>
      <trkpt lat="47.4167" lon="8.15881">
        <ele>352.8</ele>
        <time>2022-10-02T10:39:42Z</time>
      </trkpt>
      <trkpt lat="47.41673" lon="8.15888">
        <ele>352.8</ele>
        <time>2022-10-02T10:39:43Z</time>
      </trkpt>
      <trkpt lat="47.41677" lon="8.15894">
        <ele>352.8</ele>
        <time>2022-10-02T10:39:44Z</time>
      </trkpt>
      <trkpt lat="47.4168" lon="8.159">
        <ele>352.7</ele>
        <time>2022-10-02T10:39:45Z</time>
      </trkpt>
      <trkpt lat="47.41684" lon="8.15906">
        <ele>352.7</ele>
        <time>2022-10-02T10:39:46Z</time>
      </trkpt>
      <trkpt lat="47.41687" lon="8.15911">
        <ele>352.7</ele>
        <time>2022-10-02T10:39:47Z</time>
      </trkpt>
      <trkpt lat="47.4169" lon="8.15917">
        <ele>352.8</ele>
        <time>2022-10-02T10:39:48Z</time>
      </trkpt>
      <trkpt lat="47.41692" lon="8.15921">
        <ele>352.8</ele>
        <time>2022-10-02T10:39:49Z</time>
      </trkpt>
      <trkpt lat="47.41695" lon="8.15925">
        <ele>352.8</ele>
        <time>2022-10-02T10:39:50Z</time>
      </trkpt>
      <trkpt lat="47.41698" lon="8.15932">
        <ele>352.7</ele>
        <time>2022-10-02T10:39:51Z</time>
      </trkpt>
      <trkpt lat="47.41699" lon="8.15935">
        <ele>352.7</ele>
        <time>2022-10-02T10:39:52Z</time>
      </trkpt>
      <trkpt lat="47.41699" lon="8.1594">
        <ele>352.5</ele>
        <time>2022-10-02T10:39:53Z</time>
      </trkpt>
      <trkpt lat="47.41699" lon="8.15941">
        <ele>352.5</ele>
        <time>2022-10-02T10:39:54Z</time>
      </trkpt>
      <trkpt lat="47.417" lon="8.15946">
        <ele>352.4</ele>
        <time>2022-10-02T10:39:55Z</time>
      </trkpt>
      <trkpt lat="47.41701" lon="8.15951">
        <ele>352.3</ele>
        <time>2022-10-02T10:39:56Z</time>
      </trkpt>
      <trkpt lat="47.41704" lon="8.15955">
        <ele>352.2</ele>
        <time>2022-10-02T10:39:57Z</time>
      </trkpt>
      <trkpt lat="47.41707" lon="8.15959">
        <ele>352.1</ele>
        <time>2022-10-02T10:39:58Z</time>
      </trkpt>
      <trkpt lat="47.4171" lon="8.15963">
        <ele>352</ele>
        <time>2022-10-02T10:39:59Z</time>
      </trkpt>
      <trkpt lat="47.41714" lon="8.15967">
        <ele>351.9</ele>
        <time>2022-10-02T10:40:00Z</time>
      </trkpt>
      <trkpt lat="47.41717" lon="8.15971">
        <ele>351.8</ele>
        <time>2022-10-02T10:40:01Z</time>
      </trkpt>
      <trkpt lat="47.41721" lon="8.15975">
        <ele>351.8</ele>
        <time>2022-10-02T10:40:02Z</time>
      </trkpt>
      <trkpt lat="47.41724" lon="8.15979">
        <ele>351.7</ele>
        <time>2022-10-02T10:40:03Z</time>
      </trkpt>
      <trkpt lat="47.41728" lon="8.15984">
        <ele>351.7</ele>
        <time>2022-10-02T10:40:04Z</time>
      </trkpt>
      <trkpt lat="47.41732" lon="8.15987">
        <ele>351.6</ele>
        <time>2022-10-02T10:40:05Z</time>
      </trkpt>
      <trkpt lat="47.41734" lon="8.1599">
        <ele>351.6</ele>
        <time>2022-10-02T10:40:06Z</time>
      </trkpt>
      <trkpt lat="47.41735" lon="8.15992">
        <ele>351.6</ele>
        <time>2022-10-02T10:40:07Z</time>
      </trkpt>
      <trkpt lat="47.41737" lon="8.1599">
        <ele>351.6</ele>
        <time>2022-10-02T10:40:08Z</time>
      </trkpt>
      <trkpt lat="47.41738" lon="8.15991">
        <ele>351.6</ele>
        <time>2022-10-02T10:40:09Z</time>
      </trkpt>
      <trkpt lat="47.41739" lon="8.15992">
        <ele>351.6</ele>
        <time>2022-10-02T10:40:10Z</time>
      </trkpt>
      <trkpt lat="47.41738" lon="8.15992">
        <ele>351.6</ele>
        <time>2022-10-02T10:40:11Z</time>
      </trkpt>
      <trkpt lat="47.41738" lon="8.15993">
        <ele>351.6</ele>
        <time>2022-10-02T10:40:12Z</time>
      </trkpt>
      <trkpt lat="47.41738" lon="8.15993">
        <ele>351.6</ele>
        <time>2022-10-02T10:40:13Z</time>
      </trkpt>
      <trkpt lat="47.41739" lon="8.15993">
        <ele>351.6</ele>
        <time>2022-10-02T10:40:14Z</time>
      </trkpt>
      <trkpt lat="47.41738" lon="8.15993">
        <ele>351.5</ele>
        <time>2022-10-02T10:40:15Z</time>
      </trkpt>
      <trkpt lat="47.4174" lon="8.15994">
        <ele>351.5</ele>
        <time>2022-10-02T10:40:16Z</time>
      </trkpt>
      <trkpt lat="47.41742" lon="8.15997">
        <ele>351.5</ele>
        <time>2022-10-02T10:40:17Z</time>
      </trkpt>
      <trkpt lat="47.41744" lon="8.15999">
        <ele>351.5</ele>
        <time>2022-10-02T10:40:18Z</time>
      </trkpt>
      <trkpt lat="47.41746" lon="8.16002">
        <ele>351.5</ele>
        <time>2022-10-02T10:40:19Z</time>
      </trkpt>
      <trkpt lat="47.41748" lon="8.16005">
        <ele>351.5</ele>
        <time>2022-10-02T10:40:20Z</time>
      </trkpt>
      <trkpt lat="47.4175" lon="8.16007">
        <ele>351.5</ele>
        <time>2022-10-02T10:41:59Z</time>
      </trkpt>
      <trkpt lat="47.41753" lon="8.1601">
        <ele>351.5</ele>
        <time>2022-10-02T10:42:00Z</time>
      </trkpt>
      <trkpt lat="47.41755" lon="8.16012">
        <ele>351.5</ele>
        <time>2022-10-02T10:42:01Z</time>
      </trkpt>
      <trkpt lat="47.41756" lon="8.16013">
        <ele>351.4</ele>
        <time>2022-10-02T10:42:02Z</time>
      </trkpt>
      <trkpt lat="47.41759" lon="8.16015">
        <ele>351.4</ele>
        <time>2022-10-02T10:42:03Z</time>
      </trkpt>
      <trkpt lat="47.4176" lon="8.16016">
        <ele>351.4</ele>
        <time>2022-10-02T10:42:04Z</time>
      </trkpt>
      <trkpt lat="47.41763" lon="8.16018">
        <ele>351.4</ele>
        <time>2022-10-02T10:42:05Z</time>
      </trkpt>
      <trkpt lat="47.41766" lon="8.16021">
        <ele>351.4</ele>
        <time>2022-10-02T10:42:06Z</time>
      </trkpt>
      <trkpt lat="47.41767" lon="8.16022">
        <ele>351.4</ele>
        <time>2022-10-02T10:42:07Z</time>
      </trkpt>
      <trkpt lat="47.4177" lon="8.16025">
        <ele>351.4</ele>
        <time>2022-10-02T10:42:08Z</time>
      </trkpt>
      <trkpt lat="47.41773" lon="8.16028">
        <ele>351.4</ele>
        <time>2022-10-02T10:42:09Z</time>
      </trkpt>
      <trkpt lat="47.41776" lon="8.16031">
        <ele>351.4</ele>
        <time>2022-10-02T10:42:10Z</time>
      </trkpt>
      <trkpt lat="47.41779" lon="8.16034">
        <ele>351.5</ele>
        <time>2022-10-02T10:42:11Z</time>
      </trkpt>
      <trkpt lat="47.41782" lon="8.16037">
        <ele>351.5</ele>
        <time>2022-10-02T10:42:12Z</time>
      </trkpt>
      <trkpt lat="47.41785" lon="8.1604">
        <ele>351.5</ele>
        <time>2022-10-02T10:42:13Z</time>
      </trkpt>
      <trkpt lat="47.41788" lon="8.16044">
        <ele>351.6</ele>
        <time>2022-10-02T10:42:14Z</time>
      </trkpt>
      <trkpt lat="47.41791" lon="8.16045">
        <ele>351.7</ele>
        <time>2022-10-02T10:42:15Z</time>
      </trkpt>
      <trkpt lat="47.41795" lon="8.16047">
        <ele>351.7</ele>
        <time>2022-10-02T10:42:16Z</time>
      </trkpt>
      <trkpt lat="47.41796" lon="8.16048">
        <ele>351.8</ele>
        <time>2022-10-02T10:42:17Z</time>
      </trkpt>
      <trkpt lat="47.41799" lon="8.1605">
        <ele>351.8</ele>
        <time>2022-10-02T10:42:18Z</time>
      </trkpt>
      <trkpt lat="47.41801" lon="8.1605">
        <ele>351.8</ele>
        <time>2022-10-02T10:42:19Z</time>
      </trkpt>
      <trkpt lat="47.41804" lon="8.1605">
        <ele>351.9</ele>
        <time>2022-10-02T10:42:20Z</time>
      </trkpt>
      <trkpt lat="47.41805" lon="8.16051">
        <ele>351.9</ele>
        <time>2022-10-02T10:42:21Z</time>
      </trkpt>
      <trkpt lat="47.41809" lon="8.16054">
        <ele>352</ele>
        <time>2022-10-02T10:42:22Z</time>
      </trkpt>
      <trkpt lat="47.4181" lon="8.16055">
        <ele>352</ele>
        <time>2022-10-02T10:42:23Z</time>
      </trkpt>
      <trkpt lat="47.41812" lon="8.16059">
        <ele>352</ele>
        <time>2022-10-02T10:42:24Z</time>
      </trkpt>
      <trkpt lat="47.41813" lon="8.16062">
        <ele>352</ele>
        <time>2022-10-02T10:42:25Z</time>
      </trkpt>
      <trkpt lat="47.41816" lon="8.16065">
        <ele>351.9</ele>
        <time>2022-10-02T10:42:26Z</time>
      </trkpt>
      <trkpt lat="47.41819" lon="8.16068">
        <ele>351.9</ele>
        <time>2022-10-02T10:42:27Z</time>
      </trkpt>
      <trkpt lat="47.41822" lon="8.1607">
        <ele>351.9</ele>
        <time>2022-10-02T10:42:28Z</time>
      </trkpt>
      <trkpt lat="47.41825" lon="8.16073">
        <ele>351.9</ele>
        <time>2022-10-02T10:42:29Z</time>
      </trkpt>
      <trkpt lat="47.41828" lon="8.16076">
        <ele>351.9</ele>
        <time>2022-10-02T10:42:30Z</time>
      </trkpt>
      <trkpt lat="47.4183" lon="8.16081">
        <ele>351.9</ele>
        <time>2022-10-02T10:42:31Z</time>
      </trkpt>
      <trkpt lat="47.41833" lon="8.16084">
        <ele>351.9</ele>
        <time>2022-10-02T10:42:32Z</time>
      </trkpt>
      <trkpt lat="47.41836" lon="8.16088">
        <ele>351.9</ele>
        <time>2022-10-02T10:42:33Z</time>
      </trkpt>
      <trkpt lat="47.41839" lon="8.16092">
        <ele>351.9</ele>
        <time>2022-10-02T10:42:34Z</time>
      </trkpt>
      <trkpt lat="47.4184" lon="8.16094">
        <ele>351.9</ele>
        <time>2022-10-02T10:42:35Z</time>
      </trkpt>
      <trkpt lat="47.41844" lon="8.16098">
        <ele>351.9</ele>
        <time>2022-10-02T10:42:36Z</time>
      </trkpt>
      <trkpt lat="47.41847" lon="8.16101">
        <ele>351.9</ele>
        <time>2022-10-02T10:42:37Z</time>
      </trkpt>
      <trkpt lat="47.41851" lon="8.16104">
        <ele>351.8</ele>
        <time>2022-10-02T10:42:38Z</time>
      </trkpt>
      <trkpt lat="47.41854" lon="8.16107">
        <ele>351.8</ele>
        <time>2022-10-02T10:42:39Z</time>
      </trkpt>
      <trkpt lat="47.41856" lon="8.16111">
        <ele>351.8</ele>
        <time>2022-10-02T10:42:40Z</time>
      </trkpt>
      <trkpt lat="47.41859" lon="8.16114">
        <ele>351.8</ele>
        <time>2022-10-02T10:42:41Z</time>
      </trkpt>
      <trkpt lat="47.41863" lon="8.16117">
        <ele>351.8</ele>
        <time>2022-10-02T10:42:42Z</time>
      </trkpt>
      <trkpt lat="47.41865" lon="8.1612">
        <ele>351.8</ele>
        <time>2022-10-02T10:42:43Z</time>
      </trkpt>
      <trkpt lat="47.41868" lon="8.16124">
        <ele>351.8</ele>
        <time>2022-10-02T10:42:44Z</time>
      </trkpt>
      <trkpt lat="47.41871" lon="8.16128">
        <ele>351.8</ele>
        <time>2022-10-02T10:42:45Z</time>
      </trkpt>
      <trkpt lat="47.41875" lon="8.16129">
        <ele>351.8</ele>
        <time>2022-10-02T10:42:46Z</time>
      </trkpt>
      <trkpt lat="47.41877" lon="8.16133">
        <ele>351.8</ele>
        <time>2022-10-02T10:42:47Z</time>
      </trkpt>
      <trkpt lat="47.41879" lon="8.16136">
        <ele>351.8</ele>
        <time>2022-10-02T10:42:48Z</time>
      </trkpt>
      <trkpt lat="47.4188" lon="8.16137">
        <ele>351.8</ele>
        <time>2022-10-02T10:42:49Z</time>
      </trkpt>
      <trkpt lat="47.41885" lon="8.1614">
        <ele>351.8</ele>
        <time>2022-10-02T10:42:50Z</time>
      </trkpt>
      <trkpt lat="47.41889" lon="8.16142">
        <ele>351.8</ele>
        <time>2022-10-02T10:42:51Z</time>
      </trkpt>
      <trkpt lat="47.41892" lon="8.16144">
        <ele>351.8</ele>
        <time>2022-10-02T10:42:52Z</time>
      </trkpt>
      <trkpt lat="47.41895" lon="8.16147">
        <ele>351.8</ele>
        <time>2022-10-02T10:42:53Z</time>
      </trkpt>
      <trkpt lat="47.41898" lon="8.16149">
        <ele>351.8</ele>
        <time>2022-10-02T10:42:54Z</time>
      </trkpt>
      <trkpt lat="47.41904" lon="8.16151">
        <ele>351.8</ele>
        <time>2022-10-02T10:42:55Z</time>
      </trkpt>
      <trkpt lat="47.41906" lon="8.16153">
        <ele>351.8</ele>
        <time>2022-10-02T10:42:56Z</time>
      </trkpt>
      <trkpt lat="47.4191" lon="8.16155">
        <ele>351.8</ele>
        <time>2022-10-02T10:42:57Z</time>
      </trkpt>
      <trkpt lat="47.41914" lon="8.16157">
        <ele>351.8</ele>
        <time>2022-10-02T10:42:58Z</time>
      </trkpt>
      <trkpt lat="47.41919" lon="8.1616">
        <ele>351.8</ele>
        <time>2022-10-02T10:42:59Z</time>
      </trkpt>
      <trkpt lat="47.41923" lon="8.16161">
        <ele>351.8</ele>
        <time>2022-10-02T10:43:00Z</time>
      </trkpt>
      <trkpt lat="47.41927" lon="8.16163">
        <ele>351.7</ele>
        <time>2022-10-02T10:43:01Z</time>
      </trkpt>
      <trkpt lat="47.41931" lon="8.16166">
        <ele>351.7</ele>
        <time>2022-10-02T10:43:02Z</time>
      </trkpt>
      <trkpt lat="47.41936" lon="8.1617">
        <ele>351.7</ele>
        <time>2022-10-02T10:43:03Z</time>
      </trkpt>
      <trkpt lat="47.4194" lon="8.16172">
        <ele>351.7</ele>
        <time>2022-10-02T10:43:04Z</time>
      </trkpt>
      <trkpt lat="47.41944" lon="8.16173">
        <ele>351.7</ele>
        <time>2022-10-02T10:43:05Z</time>
      </trkpt>
      <trkpt lat="47.41948" lon="8.16175">
        <ele>351.6</ele>
        <time>2022-10-02T10:43:06Z</time>
      </trkpt>
      <trkpt lat="47.41953" lon="8.16177">
        <ele>351.6</ele>
        <time>2022-10-02T10:43:07Z</time>
      </trkpt>
      <trkpt lat="47.41959" lon="8.1618">
        <ele>351.6</ele>
        <time>2022-10-02T10:43:08Z</time>
      </trkpt>
      <trkpt lat="47.41963" lon="8.16181">
        <ele>351.6</ele>
        <time>2022-10-02T10:43:09Z</time>
      </trkpt>
      <trkpt lat="47.41967" lon="8.16183">
        <ele>351.6</ele>
        <time>2022-10-02T10:43:10Z</time>
      </trkpt>
      <trkpt lat="47.41971" lon="8.16184">
        <ele>351.6</ele>
        <time>2022-10-02T10:43:11Z</time>
      </trkpt>
      <trkpt lat="47.41976" lon="8.16185">
        <ele>351.6</ele>
        <time>2022-10-02T10:43:12Z</time>
      </trkpt>
      <trkpt lat="47.4198" lon="8.16187">
        <ele>351.6</ele>
        <time>2022-10-02T10:43:13Z</time>
      </trkpt>
      <trkpt lat="47.41984" lon="8.16187">
        <ele>351.6</ele>
        <time>2022-10-02T10:43:14Z</time>
      </trkpt>
      <trkpt lat="47.41989" lon="8.16189">
        <ele>351.6</ele>
        <time>2022-10-02T10:43:15Z</time>
      </trkpt>
      <trkpt lat="47.41993" lon="8.1619">
        <ele>351.6</ele>
        <time>2022-10-02T10:43:16Z</time>
      </trkpt>
      <trkpt lat="47.41998" lon="8.16192">
        <ele>351.6</ele>
        <time>2022-10-02T10:43:17Z</time>
      </trkpt>
      <trkpt lat="47.42002" lon="8.16192">
        <ele>351.6</ele>
        <time>2022-10-02T10:43:18Z</time>
      </trkpt>
      <trkpt lat="47.42006" lon="8.16194">
        <ele>351.6</ele>
        <time>2022-10-02T10:43:19Z</time>
      </trkpt>
      <trkpt lat="47.4201" lon="8.16194">
        <ele>351.6</ele>
        <time>2022-10-02T10:43:20Z</time>
      </trkpt>
      <trkpt lat="47.42014" lon="8.16195">
        <ele>351.6</ele>
        <time>2022-10-02T10:43:21Z</time>
      </trkpt>
      <trkpt lat="47.42018" lon="8.16197">
        <ele>351.6</ele>
        <time>2022-10-02T10:43:22Z</time>
      </trkpt>
      <trkpt lat="47.42023" lon="8.16197">
        <ele>351.6</ele>
        <time>2022-10-02T10:43:23Z</time>
      </trkpt>
      <trkpt lat="47.42027" lon="8.16198">
        <ele>351.6</ele>
        <time>2022-10-02T10:43:24Z</time>
      </trkpt>
      <trkpt lat="47.4203" lon="8.16199">
        <ele>351.6</ele>
        <time>2022-10-02T10:43:25Z</time>
      </trkpt>
      <trkpt lat="47.42033" lon="8.16199">
        <ele>351.6</ele>
        <time>2022-10-02T10:43:26Z</time>
      </trkpt>
      <trkpt lat="47.42036" lon="8.162">
        <ele>351.6</ele>
        <time>2022-10-02T10:43:27Z</time>
      </trkpt>
      <trkpt lat="47.4204" lon="8.16201">
        <ele>351.6</ele>
        <time>2022-10-02T10:43:29Z</time>
      </trkpt>
      <trkpt lat="47.42042" lon="8.16201">
        <ele>351.6</ele>
        <time>2022-10-02T10:43:30Z</time>
      </trkpt>
      <trkpt lat="47.42043" lon="8.16202">
        <ele>351.6</ele>
        <time>2022-10-02T10:43:31Z</time>
      </trkpt>
      <trkpt lat="47.42044" lon="8.16202">
        <ele>351.6</ele>
        <time>2022-10-02T10:43:32Z</time>
      </trkpt>
      <trkpt lat="47.42046" lon="8.16202">
        <ele>351.6</ele>
        <time>2022-10-02T10:43:33Z</time>
      </trkpt>
      <trkpt lat="47.42047" lon="8.16202">
        <ele>351.6</ele>
        <time>2022-10-02T10:43:34Z</time>
      </trkpt>
      <trkpt lat="47.4205" lon="8.16202">
        <ele>351.6</ele>
        <time>2022-10-02T10:43:35Z</time>
      </trkpt>
      <trkpt lat="47.42051" lon="8.16202">
        <ele>351.6</ele>
        <time>2022-10-02T10:43:36Z</time>
      </trkpt>
      <trkpt lat="47.42055" lon="8.16203">
        <ele>351.7</ele>
        <time>2022-10-02T10:43:37Z</time>
      </trkpt>
      <trkpt lat="47.42056" lon="8.16203">
        <ele>351.7</ele>
        <time>2022-10-02T10:43:38Z</time>
      </trkpt>
      <trkpt lat="47.42059" lon="8.16204">
        <ele>351.7</ele>
        <time>2022-10-02T10:43:39Z</time>
      </trkpt>
      <trkpt lat="47.42062" lon="8.16202">
        <ele>351.7</ele>
        <time>2022-10-02T10:43:40Z</time>
      </trkpt>
      <trkpt lat="47.42067" lon="8.16202">
        <ele>351.7</ele>
        <time>2022-10-02T10:43:41Z</time>
      </trkpt>
      <trkpt lat="47.4207" lon="8.16203">
        <ele>351.7</ele>
        <time>2022-10-02T10:43:42Z</time>
      </trkpt>
      <trkpt lat="47.42073" lon="8.16204">
        <ele>351.7</ele>
        <time>2022-10-02T10:43:43Z</time>
      </trkpt>
      <trkpt lat="47.42077" lon="8.16204">
        <ele>351.6</ele>
        <time>2022-10-02T10:43:44Z</time>
      </trkpt>
      <trkpt lat="47.42081" lon="8.16204">
        <ele>351.6</ele>
        <time>2022-10-02T10:43:45Z</time>
      </trkpt>
      <trkpt lat="47.42085" lon="8.16206">
        <ele>351.6</ele>
        <time>2022-10-02T10:43:46Z</time>
      </trkpt>
      <trkpt lat="47.42088" lon="8.16205">
        <ele>351.6</ele>
        <time>2022-10-02T10:43:47Z</time>
      </trkpt>
      <trkpt lat="47.42092" lon="8.16205">
        <ele>351.6</ele>
        <time>2022-10-02T10:43:48Z</time>
      </trkpt>
      <trkpt lat="47.42095" lon="8.16206">
        <ele>351.6</ele>
        <time>2022-10-02T10:43:49Z</time>
      </trkpt>
      <trkpt lat="47.42099" lon="8.16206">
        <ele>351.6</ele>
        <time>2022-10-02T10:43:50Z</time>
      </trkpt>
      <trkpt lat="47.42104" lon="8.16206">
        <ele>351.6</ele>
        <time>2022-10-02T10:43:51Z</time>
      </trkpt>
      <trkpt lat="47.42108" lon="8.16206">
        <ele>351.6</ele>
        <time>2022-10-02T10:43:52Z</time>
      </trkpt>
      <trkpt lat="47.42113" lon="8.16205">
        <ele>351.6</ele>
        <time>2022-10-02T10:43:53Z</time>
      </trkpt>
      <trkpt lat="47.42118" lon="8.16204">
        <ele>351.6</ele>
        <time>2022-10-02T10:43:54Z</time>
      </trkpt>
      <trkpt lat="47.42121" lon="8.16204">
        <ele>351.6</ele>
        <time>2022-10-02T10:43:55Z</time>
      </trkpt>
      <trkpt lat="47.42125" lon="8.16204">
        <ele>351.6</ele>
        <time>2022-10-02T10:43:56Z</time>
      </trkpt>
      <trkpt lat="47.4213" lon="8.16203">
        <ele>351.6</ele>
        <time>2022-10-02T10:43:57Z</time>
      </trkpt>
      <trkpt lat="47.42133" lon="8.16202">
        <ele>351.6</ele>
        <time>2022-10-02T10:43:58Z</time>
      </trkpt>
      <trkpt lat="47.42136" lon="8.16203">
        <ele>351.6</ele>
        <time>2022-10-02T10:43:59Z</time>
      </trkpt>
      <trkpt lat="47.4214" lon="8.16203">
        <ele>351.6</ele>
        <time>2022-10-02T10:44:00Z</time>
      </trkpt>
      <trkpt lat="47.42144" lon="8.16203">
        <ele>351.6</ele>
        <time>2022-10-02T10:44:01Z</time>
      </trkpt>
      <trkpt lat="47.42147" lon="8.16201">
        <ele>351.6</ele>
        <time>2022-10-02T10:44:02Z</time>
      </trkpt>
      <trkpt lat="47.42152" lon="8.16201">
        <ele>351.6</ele>
        <time>2022-10-02T10:44:03Z</time>
      </trkpt>
      <trkpt lat="47.42154" lon="8.16201">
        <ele>351.6</ele>
        <time>2022-10-02T10:44:04Z</time>
      </trkpt>
      <trkpt lat="47.42158" lon="8.16199">
        <ele>351.6</ele>
        <time>2022-10-02T10:44:05Z</time>
      </trkpt>
      <trkpt lat="47.42162" lon="8.162">
        <ele>351.5</ele>
        <time>2022-10-02T10:44:06Z</time>
      </trkpt>
      <trkpt lat="47.42166" lon="8.16199">
        <ele>351.5</ele>
        <time>2022-10-02T10:44:07Z</time>
      </trkpt>
      <trkpt lat="47.42171" lon="8.16198">
        <ele>351.5</ele>
        <time>2022-10-02T10:44:08Z</time>
      </trkpt>
      <trkpt lat="47.42177" lon="8.16197">
        <ele>351.5</ele>
        <time>2022-10-02T10:44:09Z</time>
      </trkpt>
      <trkpt lat="47.42182" lon="8.16196">
        <ele>351.5</ele>
        <time>2022-10-02T10:44:10Z</time>
      </trkpt>
      <trkpt lat="47.42185" lon="8.16196">
        <ele>351.4</ele>
        <time>2022-10-02T10:44:11Z</time>
      </trkpt>
      <trkpt lat="47.42189" lon="8.16195">
        <ele>351.4</ele>
        <time>2022-10-02T10:44:12Z</time>
      </trkpt>
      <trkpt lat="47.42193" lon="8.16193">
        <ele>351.4</ele>
        <time>2022-10-02T10:44:13Z</time>
      </trkpt>
      <trkpt lat="47.42196" lon="8.16193">
        <ele>351.4</ele>
        <time>2022-10-02T10:44:14Z</time>
      </trkpt>
      <trkpt lat="47.42201" lon="8.16192">
        <ele>351.4</ele>
        <time>2022-10-02T10:44:15Z</time>
      </trkpt>
      <trkpt lat="47.42206" lon="8.1619">
        <ele>351.4</ele>
        <time>2022-10-02T10:44:16Z</time>
      </trkpt>
      <trkpt lat="47.42212" lon="8.16189">
        <ele>351.4</ele>
        <time>2022-10-02T10:44:17Z</time>
      </trkpt>
      <trkpt lat="47.42216" lon="8.16188">
        <ele>351.4</ele>
        <time>2022-10-02T10:44:18Z</time>
      </trkpt>
      <trkpt lat="47.4222" lon="8.16186">
        <ele>351.4</ele>
        <time>2022-10-02T10:44:19Z</time>
      </trkpt>
      <trkpt lat="47.42224" lon="8.16187">
        <ele>351.4</ele>
        <time>2022-10-02T10:44:20Z</time>
      </trkpt>
      <trkpt lat="47.42228" lon="8.16185">
        <ele>351.4</ele>
        <time>2022-10-02T10:44:21Z</time>
      </trkpt>
      <trkpt lat="47.42233" lon="8.16185">
        <ele>351.4</ele>
        <time>2022-10-02T10:44:22Z</time>
      </trkpt>
      <trkpt lat="47.42237" lon="8.16185">
        <ele>351.4</ele>
        <time>2022-10-02T10:44:23Z</time>
      </trkpt>
      <trkpt lat="47.42241" lon="8.16183">
        <ele>351.4</ele>
        <time>2022-10-02T10:44:24Z</time>
      </trkpt>
      <trkpt lat="47.42245" lon="8.16182">
        <ele>351.4</ele>
        <time>2022-10-02T10:44:25Z</time>
      </trkpt>
      <trkpt lat="47.42249" lon="8.16181">
        <ele>351.4</ele>
        <time>2022-10-02T10:44:26Z</time>
      </trkpt>
      <trkpt lat="47.42253" lon="8.1618">
        <ele>351.4</ele>
        <time>2022-10-02T10:44:27Z</time>
      </trkpt>
      <trkpt lat="47.42257" lon="8.16178">
        <ele>351.4</ele>
        <time>2022-10-02T10:44:28Z</time>
      </trkpt>
      <trkpt lat="47.42262" lon="8.16178">
        <ele>351.4</ele>
        <time>2022-10-02T10:44:29Z</time>
      </trkpt>
      <trkpt lat="47.42266" lon="8.16177">
        <ele>351.4</ele>
        <time>2022-10-02T10:44:30Z</time>
      </trkpt>
      <trkpt lat="47.4227" lon="8.16176">
        <ele>351.4</ele>
        <time>2022-10-02T10:44:31Z</time>
      </trkpt>
      <trkpt lat="47.42275" lon="8.16174">
        <ele>351.4</ele>
        <time>2022-10-02T10:44:32Z</time>
      </trkpt>
      <trkpt lat="47.42284" lon="8.16173">
        <ele>351.4</ele>
        <time>2022-10-02T10:44:33Z</time>
      </trkpt>
      <trkpt lat="47.42287" lon="8.16174">
        <ele>351.4</ele>
        <time>2022-10-02T10:44:34Z</time>
      </trkpt>
      <trkpt lat="47.42292" lon="8.16172">
        <ele>351.4</ele>
        <time>2022-10-02T10:44:35Z</time>
      </trkpt>
      <trkpt lat="47.42295" lon="8.16171">
        <ele>351.4</ele>
        <time>2022-10-02T10:44:36Z</time>
      </trkpt>
      <trkpt lat="47.42299" lon="8.16171">
        <ele>351.4</ele>
        <time>2022-10-02T10:44:37Z</time>
      </trkpt>
      <trkpt lat="47.42303" lon="8.1617">
        <ele>351.4</ele>
        <time>2022-10-02T10:44:38Z</time>
      </trkpt>
      <trkpt lat="47.42308" lon="8.16169">
        <ele>351.4</ele>
        <time>2022-10-02T10:44:39Z</time>
      </trkpt>
      <trkpt lat="47.42313" lon="8.16168">
        <ele>351.4</ele>
        <time>2022-10-02T10:44:40Z</time>
      </trkpt>
      <trkpt lat="47.42318" lon="8.16166">
        <ele>351.3</ele>
        <time>2022-10-02T10:44:41Z</time>
      </trkpt>
      <trkpt lat="47.42322" lon="8.16165">
        <ele>351.3</ele>
        <time>2022-10-02T10:44:42Z</time>
      </trkpt>
      <trkpt lat="47.42328" lon="8.16165">
        <ele>351.3</ele>
        <time>2022-10-02T10:44:43Z</time>
      </trkpt>
      <trkpt lat="47.42332" lon="8.16164">
        <ele>351.3</ele>
        <time>2022-10-02T10:44:44Z</time>
      </trkpt>
      <trkpt lat="47.42336" lon="8.16163">
        <ele>351.4</ele>
        <time>2022-10-02T10:44:45Z</time>
      </trkpt>
      <trkpt lat="47.4234" lon="8.16162">
        <ele>351.4</ele>
        <time>2022-10-02T10:44:46Z</time>
      </trkpt>
      <trkpt lat="47.42344" lon="8.16162">
        <ele>351.4</ele>
        <time>2022-10-02T10:44:47Z</time>
      </trkpt>
      <trkpt lat="47.42349" lon="8.16162">
        <ele>351.4</ele>
        <time>2022-10-02T10:44:48Z</time>
      </trkpt>
      <trkpt lat="47.42352" lon="8.16162">
        <ele>351.4</ele>
        <time>2022-10-02T10:44:49Z</time>
      </trkpt>
      <trkpt lat="47.42356" lon="8.16161">
        <ele>351.3</ele>
        <time>2022-10-02T10:44:50Z</time>
      </trkpt>
      <trkpt lat="47.4236" lon="8.16161">
        <ele>351.3</ele>
        <time>2022-10-02T10:44:51Z</time>
      </trkpt>
      <trkpt lat="47.42364" lon="8.16161">
        <ele>351.3</ele>
        <time>2022-10-02T10:44:52Z</time>
      </trkpt>
      <trkpt lat="47.42368" lon="8.1616">
        <ele>351.3</ele>
        <time>2022-10-02T10:44:53Z</time>
      </trkpt>
      <trkpt lat="47.42372" lon="8.1616">
        <ele>351.3</ele>
        <time>2022-10-02T10:44:54Z</time>
      </trkpt>
      <trkpt lat="47.42376" lon="8.16161">
        <ele>351.3</ele>
        <time>2022-10-02T10:44:55Z</time>
      </trkpt>
      <trkpt lat="47.4238" lon="8.16159">
        <ele>351.3</ele>
        <time>2022-10-02T10:44:56Z</time>
      </trkpt>
      <trkpt lat="47.42385" lon="8.16158">
        <ele>351.3</ele>
        <time>2022-10-02T10:44:57Z</time>
      </trkpt>
      <trkpt lat="47.42389" lon="8.16158">
        <ele>351.3</ele>
        <time>2022-10-02T10:44:58Z</time>
      </trkpt>
      <trkpt lat="47.42394" lon="8.16157">
        <ele>351.3</ele>
        <time>2022-10-02T10:44:59Z</time>
      </trkpt>
      <trkpt lat="47.42398" lon="8.16158">
        <ele>351.3</ele>
        <time>2022-10-02T10:45:00Z</time>
      </trkpt>
      <trkpt lat="47.42402" lon="8.16157">
        <ele>351.3</ele>
        <time>2022-10-02T10:45:01Z</time>
      </trkpt>
      <trkpt lat="47.42406" lon="8.16157">
        <ele>351.3</ele>
        <time>2022-10-02T10:45:02Z</time>
      </trkpt>
      <trkpt lat="47.42411" lon="8.16157">
        <ele>351.2</ele>
        <time>2022-10-02T10:45:03Z</time>
      </trkpt>
      <trkpt lat="47.42414" lon="8.16158">
        <ele>351.2</ele>
        <time>2022-10-02T10:45:04Z</time>
      </trkpt>
      <trkpt lat="47.42419" lon="8.16157">
        <ele>351.2</ele>
        <time>2022-10-02T10:45:05Z</time>
      </trkpt>
      <trkpt lat="47.42423" lon="8.16158">
        <ele>351.2</ele>
        <time>2022-10-02T10:45:06Z</time>
      </trkpt>
      <trkpt lat="47.42427" lon="8.16158">
        <ele>351.2</ele>
        <time>2022-10-02T10:45:07Z</time>
      </trkpt>
      <trkpt lat="47.42431" lon="8.16157">
        <ele>351.1</ele>
        <time>2022-10-02T10:45:08Z</time>
      </trkpt>
      <trkpt lat="47.42436" lon="8.16158">
        <ele>351.1</ele>
        <time>2022-10-02T10:45:09Z</time>
      </trkpt>
      <trkpt lat="47.42441" lon="8.16158">
        <ele>351.1</ele>
        <time>2022-10-02T10:45:10Z</time>
      </trkpt>
      <trkpt lat="47.42446" lon="8.16158">
        <ele>351.1</ele>
        <time>2022-10-02T10:45:11Z</time>
      </trkpt>
      <trkpt lat="47.4245" lon="8.16157">
        <ele>351.1</ele>
        <time>2022-10-02T10:45:12Z</time>
      </trkpt>
      <trkpt lat="47.42453" lon="8.16157">
        <ele>351.1</ele>
        <time>2022-10-02T10:45:13Z</time>
      </trkpt>
      <trkpt lat="47.42458" lon="8.16157">
        <ele>351.1</ele>
        <time>2022-10-02T10:45:14Z</time>
      </trkpt>
      <trkpt lat="47.42462" lon="8.16156">
        <ele>351.1</ele>
        <time>2022-10-02T10:45:15Z</time>
      </trkpt>
      <trkpt lat="47.42466" lon="8.16156">
        <ele>351.1</ele>
        <time>2022-10-02T10:45:16Z</time>
      </trkpt>
      <trkpt lat="47.4247" lon="8.16157">
        <ele>351.1</ele>
        <time>2022-10-02T10:45:17Z</time>
      </trkpt>
      <trkpt lat="47.42473" lon="8.16157">
        <ele>351.1</ele>
        <time>2022-10-02T10:45:18Z</time>
      </trkpt>
      <trkpt lat="47.42478" lon="8.16156">
        <ele>351.1</ele>
        <time>2022-10-02T10:45:19Z</time>
      </trkpt>
      <trkpt lat="47.42482" lon="8.16157">
        <ele>351.1</ele>
        <time>2022-10-02T10:45:20Z</time>
      </trkpt>
      <trkpt lat="47.42485" lon="8.16158">
        <ele>351.1</ele>
        <time>2022-10-02T10:45:21Z</time>
      </trkpt>
      <trkpt lat="47.4249" lon="8.16158">
        <ele>351.1</ele>
        <time>2022-10-02T10:45:22Z</time>
      </trkpt>
      <trkpt lat="47.42494" lon="8.16158">
        <ele>351.1</ele>
        <time>2022-10-02T10:45:23Z</time>
      </trkpt>
      <trkpt lat="47.42499" lon="8.16159">
        <ele>351.1</ele>
        <time>2022-10-02T10:45:24Z</time>
      </trkpt>
      <trkpt lat="47.42503" lon="8.16159">
        <ele>351.1</ele>
        <time>2022-10-02T10:45:25Z</time>
      </trkpt>
      <trkpt lat="47.42507" lon="8.16158">
        <ele>351.1</ele>
        <time>2022-10-02T10:45:26Z</time>
      </trkpt>
      <trkpt lat="47.42511" lon="8.16159">
        <ele>351.1</ele>
        <time>2022-10-02T10:45:27Z</time>
      </trkpt>
      <trkpt lat="47.42515" lon="8.16158">
        <ele>351.1</ele>
        <time>2022-10-02T10:45:28Z</time>
      </trkpt>
      <trkpt lat="47.42518" lon="8.16158">
        <ele>351.1</ele>
        <time>2022-10-02T10:45:29Z</time>
      </trkpt>
      <trkpt lat="47.42522" lon="8.16159">
        <ele>351.1</ele>
        <time>2022-10-02T10:45:30Z</time>
      </trkpt>
      <trkpt lat="47.42524" lon="8.16159">
        <ele>351.1</ele>
        <time>2022-10-02T10:45:31Z</time>
      </trkpt>
      <trkpt lat="47.42527" lon="8.16161">
        <ele>351.1</ele>
        <time>2022-10-02T10:45:32Z</time>
      </trkpt>
      <trkpt lat="47.4253" lon="8.16161">
        <ele>351.1</ele>
        <time>2022-10-02T10:45:33Z</time>
      </trkpt>
      <trkpt lat="47.42533" lon="8.16162">
        <ele>351.1</ele>
        <time>2022-10-02T10:45:35Z</time>
      </trkpt>
      <trkpt lat="47.42537" lon="8.16162">
        <ele>351.1</ele>
        <time>2022-10-02T10:45:36Z</time>
      </trkpt>
      <trkpt lat="47.42541" lon="8.16162">
        <ele>351.1</ele>
        <time>2022-10-02T10:45:37Z</time>
      </trkpt>
      <trkpt lat="47.42544" lon="8.16162">
        <ele>351.1</ele>
        <time>2022-10-02T10:45:38Z</time>
      </trkpt>
      <trkpt lat="47.42549" lon="8.16163">
        <ele>351.1</ele>
        <time>2022-10-02T10:45:39Z</time>
      </trkpt>
      <trkpt lat="47.42554" lon="8.16164">
        <ele>351</ele>
        <time>2022-10-02T10:45:40Z</time>
      </trkpt>
      <trkpt lat="47.42558" lon="8.16164">
        <ele>351</ele>
        <time>2022-10-02T10:45:41Z</time>
      </trkpt>
      <trkpt lat="47.42563" lon="8.16164">
        <ele>351</ele>
        <time>2022-10-02T10:45:42Z</time>
      </trkpt>
      <trkpt lat="47.42567" lon="8.16165">
        <ele>351</ele>
        <time>2022-10-02T10:45:43Z</time>
      </trkpt>
      <trkpt lat="47.42571" lon="8.16166">
        <ele>351</ele>
        <time>2022-10-02T10:45:44Z</time>
      </trkpt>
      <trkpt lat="47.42575" lon="8.16166">
        <ele>351</ele>
        <time>2022-10-02T10:45:45Z</time>
      </trkpt>
      <trkpt lat="47.42579" lon="8.16167">
        <ele>351</ele>
        <time>2022-10-02T10:45:46Z</time>
      </trkpt>
      <trkpt lat="47.42583" lon="8.16168">
        <ele>351</ele>
        <time>2022-10-02T10:45:47Z</time>
      </trkpt>
      <trkpt lat="47.42587" lon="8.16168">
        <ele>351.1</ele>
        <time>2022-10-02T10:45:48Z</time>
      </trkpt>
      <trkpt lat="47.42592" lon="8.16169">
        <ele>351.1</ele>
        <time>2022-10-02T10:45:49Z</time>
      </trkpt>
      <trkpt lat="47.42595" lon="8.16169">
        <ele>351.1</ele>
        <time>2022-10-02T10:45:50Z</time>
      </trkpt>
      <trkpt lat="47.42599" lon="8.1617">
        <ele>351.1</ele>
        <time>2022-10-02T10:45:51Z</time>
      </trkpt>
      <trkpt lat="47.42603" lon="8.16172">
        <ele>351.1</ele>
        <time>2022-10-02T10:45:52Z</time>
      </trkpt>
      <trkpt lat="47.42607" lon="8.16171">
        <ele>351</ele>
        <time>2022-10-02T10:45:53Z</time>
      </trkpt>
      <trkpt lat="47.42611" lon="8.16172">
        <ele>351</ele>
        <time>2022-10-02T10:45:54Z</time>
      </trkpt>
      <trkpt lat="47.42616" lon="8.16172">
        <ele>351</ele>
        <time>2022-10-02T10:45:55Z</time>
      </trkpt>
      <trkpt lat="47.4262" lon="8.16173">
        <ele>351</ele>
        <time>2022-10-02T10:45:56Z</time>
      </trkpt>
      <trkpt lat="47.42625" lon="8.16173">
        <ele>351</ele>
        <time>2022-10-02T10:45:57Z</time>
      </trkpt>
      <trkpt lat="47.42629" lon="8.16174">
        <ele>351</ele>
        <time>2022-10-02T10:45:58Z</time>
      </trkpt>
      <trkpt lat="47.42634" lon="8.16173">
        <ele>351</ele>
        <time>2022-10-02T10:45:59Z</time>
      </trkpt>
      <trkpt lat="47.42637" lon="8.16173">
        <ele>351</ele>
        <time>2022-10-02T10:46:00Z</time>
      </trkpt>
      <trkpt lat="47.42641" lon="8.16174">
        <ele>351</ele>
        <time>2022-10-02T10:46:01Z</time>
      </trkpt>
      <trkpt lat="47.42643" lon="8.16174">
        <ele>351</ele>
        <time>2022-10-02T10:46:02Z</time>
      </trkpt>
      <trkpt lat="47.42646" lon="8.16174">
        <ele>351</ele>
        <time>2022-10-02T10:46:03Z</time>
      </trkpt>
      <trkpt lat="47.4265" lon="8.16174">
        <ele>351</ele>
        <time>2022-10-02T10:46:04Z</time>
      </trkpt>
      <trkpt lat="47.42654" lon="8.16174">
        <ele>351</ele>
        <time>2022-10-02T10:46:05Z</time>
      </trkpt>
      <trkpt lat="47.42658" lon="8.16174">
        <ele>351</ele>
        <time>2022-10-02T10:46:06Z</time>
      </trkpt>
      <trkpt lat="47.42662" lon="8.16174">
        <ele>351</ele>
        <time>2022-10-02T10:46:07Z</time>
      </trkpt>
      <trkpt lat="47.42669" lon="8.16174">
        <ele>351</ele>
        <time>2022-10-02T10:46:08Z</time>
      </trkpt>
      <trkpt lat="47.42675" lon="8.16175">
        <ele>350.9</ele>
        <time>2022-10-02T10:46:09Z</time>
      </trkpt>
      <trkpt lat="47.4268" lon="8.16175">
        <ele>350.9</ele>
        <time>2022-10-02T10:46:10Z</time>
      </trkpt>
      <trkpt lat="47.42684" lon="8.16175">
        <ele>350.9</ele>
        <time>2022-10-02T10:46:11Z</time>
      </trkpt>
      <trkpt lat="47.42688" lon="8.16175">
        <ele>350.9</ele>
        <time>2022-10-02T10:46:12Z</time>
      </trkpt>
      <trkpt lat="47.42693" lon="8.16175">
        <ele>350.9</ele>
        <time>2022-10-02T10:46:13Z</time>
      </trkpt>
      <trkpt lat="47.42697" lon="8.16174">
        <ele>350.9</ele>
        <time>2022-10-02T10:46:14Z</time>
      </trkpt>
      <trkpt lat="47.42701" lon="8.16175">
        <ele>350.9</ele>
        <time>2022-10-02T10:46:15Z</time>
      </trkpt>
      <trkpt lat="47.42706" lon="8.16175">
        <ele>350.9</ele>
        <time>2022-10-02T10:46:16Z</time>
      </trkpt>
      <trkpt lat="47.42708" lon="8.16174">
        <ele>350.9</ele>
        <time>2022-10-02T10:46:17Z</time>
      </trkpt>
      <trkpt lat="47.42712" lon="8.16175">
        <ele>350.9</ele>
        <time>2022-10-02T10:46:18Z</time>
      </trkpt>
      <trkpt lat="47.42716" lon="8.16175">
        <ele>350.9</ele>
        <time>2022-10-02T10:46:19Z</time>
      </trkpt>
      <trkpt lat="47.42719" lon="8.16175">
        <ele>350.9</ele>
        <time>2022-10-02T10:46:20Z</time>
      </trkpt>
      <trkpt lat="47.42723" lon="8.16174">
        <ele>350.9</ele>
        <time>2022-10-02T10:46:21Z</time>
      </trkpt>
      <trkpt lat="47.42727" lon="8.16174">
        <ele>350.9</ele>
        <time>2022-10-02T10:46:22Z</time>
      </trkpt>
      <trkpt lat="47.42731" lon="8.16174">
        <ele>350.9</ele>
        <time>2022-10-02T10:46:23Z</time>
      </trkpt>
      <trkpt lat="47.42735" lon="8.16173">
        <ele>350.9</ele>
        <time>2022-10-02T10:46:24Z</time>
      </trkpt>
      <trkpt lat="47.42738" lon="8.16172">
        <ele>350.9</ele>
        <time>2022-10-02T10:46:25Z</time>
      </trkpt>
      <trkpt lat="47.42742" lon="8.16172">
        <ele>350.9</ele>
        <time>2022-10-02T10:46:26Z</time>
      </trkpt>
      <trkpt lat="47.42746" lon="8.16172">
        <ele>351</ele>
        <time>2022-10-02T10:46:27Z</time>
      </trkpt>
      <trkpt lat="47.42749" lon="8.16171">
        <ele>351</ele>
        <time>2022-10-02T10:46:28Z</time>
      </trkpt>
      <trkpt lat="47.42754" lon="8.16171">
        <ele>351</ele>
        <time>2022-10-02T10:46:29Z</time>
      </trkpt>
      <trkpt lat="47.42755" lon="8.16171">
        <ele>351</ele>
        <time>2022-10-02T10:46:30Z</time>
      </trkpt>
      <trkpt lat="47.42759" lon="8.1617">
        <ele>351</ele>
        <time>2022-10-02T10:46:31Z</time>
      </trkpt>
      <trkpt lat="47.42762" lon="8.1617">
        <ele>351</ele>
        <time>2022-10-02T10:46:32Z</time>
      </trkpt>
      <trkpt lat="47.42765" lon="8.16169">
        <ele>351</ele>
        <time>2022-10-02T10:46:33Z</time>
      </trkpt>
      <trkpt lat="47.42768" lon="8.16168">
        <ele>351</ele>
        <time>2022-10-02T10:46:34Z</time>
      </trkpt>
      <trkpt lat="47.42772" lon="8.16169">
        <ele>351</ele>
        <time>2022-10-02T10:46:35Z</time>
      </trkpt>
      <trkpt lat="47.42775" lon="8.16168">
        <ele>351</ele>
        <time>2022-10-02T10:46:36Z</time>
      </trkpt>
      <trkpt lat="47.42778" lon="8.16167">
        <ele>351</ele>
        <time>2022-10-02T10:46:37Z</time>
      </trkpt>
      <trkpt lat="47.42782" lon="8.16166">
        <ele>351</ele>
        <time>2022-10-02T10:46:38Z</time>
      </trkpt>
      <trkpt lat="47.42785" lon="8.16166">
        <ele>351</ele>
        <time>2022-10-02T10:46:39Z</time>
      </trkpt>
      <trkpt lat="47.42787" lon="8.16166">
        <ele>351</ele>
        <time>2022-10-02T10:46:40Z</time>
      </trkpt>
      <trkpt lat="47.42792" lon="8.16165">
        <ele>351</ele>
        <time>2022-10-02T10:46:41Z</time>
      </trkpt>
      <trkpt lat="47.42794" lon="8.16165">
        <ele>351</ele>
        <time>2022-10-02T10:46:42Z</time>
      </trkpt>
      <trkpt lat="47.42797" lon="8.16164">
        <ele>351</ele>
        <time>2022-10-02T10:46:43Z</time>
      </trkpt>
      <trkpt lat="47.428" lon="8.16165">
        <ele>351</ele>
        <time>2022-10-02T10:46:44Z</time>
      </trkpt>
      <trkpt lat="47.42803" lon="8.16164">
        <ele>351</ele>
        <time>2022-10-02T10:46:45Z</time>
      </trkpt>
      <trkpt lat="47.42806" lon="8.16163">
        <ele>350.9</ele>
        <time>2022-10-02T10:46:46Z</time>
      </trkpt>
      <trkpt lat="47.42809" lon="8.16163">
        <ele>350.9</ele>
        <time>2022-10-02T10:46:47Z</time>
      </trkpt>
      <trkpt lat="47.42813" lon="8.16162">
        <ele>350.9</ele>
        <time>2022-10-02T10:46:48Z</time>
      </trkpt>
      <trkpt lat="47.42815" lon="8.1616">
        <ele>350.9</ele>
        <time>2022-10-02T10:46:49Z</time>
      </trkpt>
      <trkpt lat="47.42819" lon="8.16159">
        <ele>350.9</ele>
        <time>2022-10-02T10:46:50Z</time>
      </trkpt>
      <trkpt lat="47.42821" lon="8.16159">
        <ele>350.9</ele>
        <time>2022-10-02T10:46:51Z</time>
      </trkpt>
      <trkpt lat="47.42825" lon="8.16158">
        <ele>350.9</ele>
        <time>2022-10-02T10:46:52Z</time>
      </trkpt>
      <trkpt lat="47.42829" lon="8.16157">
        <ele>350.9</ele>
        <time>2022-10-02T10:46:53Z</time>
      </trkpt>
      <trkpt lat="47.42832" lon="8.16156">
        <ele>350.9</ele>
        <time>2022-10-02T10:46:54Z</time>
      </trkpt>
      <trkpt lat="47.42836" lon="8.16154">
        <ele>350.9</ele>
        <time>2022-10-02T10:46:55Z</time>
      </trkpt>
      <trkpt lat="47.4284" lon="8.16155">
        <ele>351</ele>
        <time>2022-10-02T10:46:56Z</time>
      </trkpt>
      <trkpt lat="47.42844" lon="8.16153">
        <ele>351</ele>
        <time>2022-10-02T10:46:57Z</time>
      </trkpt>
      <trkpt lat="47.42846" lon="8.16153">
        <ele>351</ele>
        <time>2022-10-02T10:46:58Z</time>
      </trkpt>
      <trkpt lat="47.42849" lon="8.16152">
        <ele>351</ele>
        <time>2022-10-02T10:46:59Z</time>
      </trkpt>
      <trkpt lat="47.42853" lon="8.16151">
        <ele>351</ele>
        <time>2022-10-02T10:47:00Z</time>
      </trkpt>
      <trkpt lat="47.42855" lon="8.16151">
        <ele>351</ele>
        <time>2022-10-02T10:47:01Z</time>
      </trkpt>
      <trkpt lat="47.42858" lon="8.16151">
        <ele>351</ele>
        <time>2022-10-02T10:47:02Z</time>
      </trkpt>
      <trkpt lat="47.42861" lon="8.16149">
        <ele>351</ele>
        <time>2022-10-02T10:47:03Z</time>
      </trkpt>
      <trkpt lat="47.42863" lon="8.16148">
        <ele>351</ele>
        <time>2022-10-02T10:47:04Z</time>
      </trkpt>
      <trkpt lat="47.42867" lon="8.16147">
        <ele>351</ele>
        <time>2022-10-02T10:47:05Z</time>
      </trkpt>
      <trkpt lat="47.4287" lon="8.16146">
        <ele>351</ele>
        <time>2022-10-02T10:47:06Z</time>
      </trkpt>
      <trkpt lat="47.42875" lon="8.16145">
        <ele>351</ele>
        <time>2022-10-02T10:47:07Z</time>
      </trkpt>
      <trkpt lat="47.42878" lon="8.16144">
        <ele>351</ele>
        <time>2022-10-02T10:47:08Z</time>
      </trkpt>
      <trkpt lat="47.42882" lon="8.16144">
        <ele>351</ele>
        <time>2022-10-02T10:47:09Z</time>
      </trkpt>
      <trkpt lat="47.42885" lon="8.16144">
        <ele>351</ele>
        <time>2022-10-02T10:47:10Z</time>
      </trkpt>
      <trkpt lat="47.42887" lon="8.16143">
        <ele>351</ele>
        <time>2022-10-02T10:47:11Z</time>
      </trkpt>
      <trkpt lat="47.42891" lon="8.16143">
        <ele>351</ele>
        <time>2022-10-02T10:47:12Z</time>
      </trkpt>
      <trkpt lat="47.42892" lon="8.16143">
        <ele>351</ele>
        <time>2022-10-02T10:47:13Z</time>
      </trkpt>
      <trkpt lat="47.42895" lon="8.16143">
        <ele>351</ele>
        <time>2022-10-02T10:47:14Z</time>
      </trkpt>
      <trkpt lat="47.42899" lon="8.16141">
        <ele>351</ele>
        <time>2022-10-02T10:47:15Z</time>
      </trkpt>
      <trkpt lat="47.42903" lon="8.16141">
        <ele>351</ele>
        <time>2022-10-02T10:47:16Z</time>
      </trkpt>
      <trkpt lat="47.42907" lon="8.16139">
        <ele>351</ele>
        <time>2022-10-02T10:47:17Z</time>
      </trkpt>
      <trkpt lat="47.42911" lon="8.16137">
        <ele>351</ele>
        <time>2022-10-02T10:47:18Z</time>
      </trkpt>
      <trkpt lat="47.42914" lon="8.16135">
        <ele>351</ele>
        <time>2022-10-02T10:47:19Z</time>
      </trkpt>
      <trkpt lat="47.42918" lon="8.16134">
        <ele>350.9</ele>
        <time>2022-10-02T10:47:20Z</time>
      </trkpt>
      <trkpt lat="47.4292" lon="8.16133">
        <ele>350.9</ele>
        <time>2022-10-02T10:47:21Z</time>
      </trkpt>
      <trkpt lat="47.42923" lon="8.16133">
        <ele>350.9</ele>
        <time>2022-10-02T10:47:22Z</time>
      </trkpt>
      <trkpt lat="47.42927" lon="8.16132">
        <ele>350.9</ele>
        <time>2022-10-02T10:47:23Z</time>
      </trkpt>
      <trkpt lat="47.42931" lon="8.16131">
        <ele>350.9</ele>
        <time>2022-10-02T10:47:24Z</time>
      </trkpt>
      <trkpt lat="47.42936" lon="8.1613">
        <ele>350.9</ele>
        <time>2022-10-02T10:47:25Z</time>
      </trkpt>
      <trkpt lat="47.42939" lon="8.16132">
        <ele>350.9</ele>
        <time>2022-10-02T10:47:26Z</time>
      </trkpt>
      <trkpt lat="47.4294" lon="8.16131">
        <ele>350.9</ele>
        <time>2022-10-02T10:47:27Z</time>
      </trkpt>
      <trkpt lat="47.42944" lon="8.1613">
        <ele>350.9</ele>
        <time>2022-10-02T10:47:28Z</time>
      </trkpt>
      <trkpt lat="47.42947" lon="8.16131">
        <ele>350.9</ele>
        <time>2022-10-02T10:47:29Z</time>
      </trkpt>
      <trkpt lat="47.42949" lon="8.16131">
        <ele>350.9</ele>
        <time>2022-10-02T10:47:30Z</time>
      </trkpt>
      <trkpt lat="47.42954" lon="8.16129">
        <ele>350.9</ele>
        <time>2022-10-02T10:47:31Z</time>
      </trkpt>
      <trkpt lat="47.42957" lon="8.16127">
        <ele>350.9</ele>
        <time>2022-10-02T10:47:32Z</time>
      </trkpt>
      <trkpt lat="47.4296" lon="8.16128">
        <ele>350.9</ele>
        <time>2022-10-02T10:47:33Z</time>
      </trkpt>
      <trkpt lat="47.42964" lon="8.16127">
        <ele>350.9</ele>
        <time>2022-10-02T10:47:34Z</time>
      </trkpt>
      <trkpt lat="47.42968" lon="8.16125">
        <ele>350.9</ele>
        <time>2022-10-02T10:47:35Z</time>
      </trkpt>
      <trkpt lat="47.42972" lon="8.16123">
        <ele>350.9</ele>
        <time>2022-10-02T10:47:36Z</time>
      </trkpt>
      <trkpt lat="47.42975" lon="8.16122">
        <ele>350.9</ele>
        <time>2022-10-02T10:47:37Z</time>
      </trkpt>
      <trkpt lat="47.42979" lon="8.16123">
        <ele>350.9</ele>
        <time>2022-10-02T10:47:38Z</time>
      </trkpt>
      <trkpt lat="47.42984" lon="8.16121">
        <ele>350.9</ele>
        <time>2022-10-02T10:47:39Z</time>
      </trkpt>
      <trkpt lat="47.42987" lon="8.1612">
        <ele>350.9</ele>
        <time>2022-10-02T10:47:41Z</time>
      </trkpt>
      <trkpt lat="47.42991" lon="8.16119">
        <ele>350.9</ele>
        <time>2022-10-02T10:47:42Z</time>
      </trkpt>
      <trkpt lat="47.42995" lon="8.16118">
        <ele>350.9</ele>
        <time>2022-10-02T10:47:43Z</time>
      </trkpt>
      <trkpt lat="47.42998" lon="8.16117">
        <ele>350.9</ele>
        <time>2022-10-02T10:47:44Z</time>
      </trkpt>
      <trkpt lat="47.43002" lon="8.16115">
        <ele>350.8</ele>
        <time>2022-10-02T10:47:45Z</time>
      </trkpt>
      <trkpt lat="47.43006" lon="8.16114">
        <ele>350.8</ele>
        <time>2022-10-02T10:47:46Z</time>
      </trkpt>
      <trkpt lat="47.43009" lon="8.16114">
        <ele>350.8</ele>
        <time>2022-10-02T10:47:47Z</time>
      </trkpt>
      <trkpt lat="47.43013" lon="8.16113">
        <ele>350.8</ele>
        <time>2022-10-02T10:47:48Z</time>
      </trkpt>
      <trkpt lat="47.43016" lon="8.16111">
        <ele>350.8</ele>
        <time>2022-10-02T10:47:49Z</time>
      </trkpt>
      <trkpt lat="47.43021" lon="8.1611">
        <ele>350.8</ele>
        <time>2022-10-02T10:47:50Z</time>
      </trkpt>
      <trkpt lat="47.43025" lon="8.16109">
        <ele>350.8</ele>
        <time>2022-10-02T10:47:51Z</time>
      </trkpt>
      <trkpt lat="47.4303" lon="8.16109">
        <ele>350.8</ele>
        <time>2022-10-02T10:47:52Z</time>
      </trkpt>
      <trkpt lat="47.43035" lon="8.16108">
        <ele>350.9</ele>
        <time>2022-10-02T10:47:53Z</time>
      </trkpt>
      <trkpt lat="47.4304" lon="8.16107">
        <ele>350.9</ele>
        <time>2022-10-02T10:47:54Z</time>
      </trkpt>
      <trkpt lat="47.43043" lon="8.16106">
        <ele>350.9</ele>
        <time>2022-10-02T10:47:55Z</time>
      </trkpt>
      <trkpt lat="47.43048" lon="8.16104">
        <ele>350.9</ele>
        <time>2022-10-02T10:47:56Z</time>
      </trkpt>
      <trkpt lat="47.43051" lon="8.16104">
        <ele>350.9</ele>
        <time>2022-10-02T10:47:57Z</time>
      </trkpt>
      <trkpt lat="47.43055" lon="8.16103">
        <ele>350.9</ele>
        <time>2022-10-02T10:47:58Z</time>
      </trkpt>
      <trkpt lat="47.4306" lon="8.16102">
        <ele>350.8</ele>
        <time>2022-10-02T10:47:59Z</time>
      </trkpt>
      <trkpt lat="47.43063" lon="8.16102">
        <ele>350.8</ele>
        <time>2022-10-02T10:48:00Z</time>
      </trkpt>
      <trkpt lat="47.43067" lon="8.161">
        <ele>350.8</ele>
        <time>2022-10-02T10:48:01Z</time>
      </trkpt>
      <trkpt lat="47.43071" lon="8.16099">
        <ele>350.8</ele>
        <time>2022-10-02T10:48:02Z</time>
      </trkpt>
      <trkpt lat="47.43076" lon="8.16098">
        <ele>350.8</ele>
        <time>2022-10-02T10:48:03Z</time>
      </trkpt>
      <trkpt lat="47.4308" lon="8.16097">
        <ele>350.8</ele>
        <time>2022-10-02T10:48:04Z</time>
      </trkpt>
      <trkpt lat="47.43084" lon="8.16096">
        <ele>350.8</ele>
        <time>2022-10-02T10:48:05Z</time>
      </trkpt>
      <trkpt lat="47.43088" lon="8.16094">
        <ele>350.8</ele>
        <time>2022-10-02T10:48:06Z</time>
      </trkpt>
      <trkpt lat="47.43092" lon="8.16094">
        <ele>350.8</ele>
        <time>2022-10-02T10:48:07Z</time>
      </trkpt>
      <trkpt lat="47.43095" lon="8.16094">
        <ele>350.8</ele>
        <time>2022-10-02T10:48:08Z</time>
      </trkpt>
      <trkpt lat="47.43099" lon="8.16093">
        <ele>350.8</ele>
        <time>2022-10-02T10:48:09Z</time>
      </trkpt>
      <trkpt lat="47.43102" lon="8.16094">
        <ele>350.8</ele>
        <time>2022-10-02T10:48:10Z</time>
      </trkpt>
      <trkpt lat="47.43106" lon="8.16093">
        <ele>350.8</ele>
        <time>2022-10-02T10:48:11Z</time>
      </trkpt>
      <trkpt lat="47.4311" lon="8.16091">
        <ele>350.8</ele>
        <time>2022-10-02T10:48:12Z</time>
      </trkpt>
      <trkpt lat="47.43114" lon="8.1609">
        <ele>350.8</ele>
        <time>2022-10-02T10:48:13Z</time>
      </trkpt>
      <trkpt lat="47.43116" lon="8.16091">
        <ele>350.8</ele>
        <time>2022-10-02T10:48:14Z</time>
      </trkpt>
      <trkpt lat="47.43119" lon="8.16089">
        <ele>350.8</ele>
        <time>2022-10-02T10:48:15Z</time>
      </trkpt>
      <trkpt lat="47.43124" lon="8.16088">
        <ele>350.9</ele>
        <time>2022-10-02T10:48:16Z</time>
      </trkpt>
      <trkpt lat="47.43128" lon="8.16087">
        <ele>350.9</ele>
        <time>2022-10-02T10:48:17Z</time>
      </trkpt>
      <trkpt lat="47.43132" lon="8.16087">
        <ele>350.9</ele>
        <time>2022-10-02T10:48:18Z</time>
      </trkpt>
      <trkpt lat="47.43139" lon="8.16084">
        <ele>350.9</ele>
        <time>2022-10-02T10:48:19Z</time>
      </trkpt>
      <trkpt lat="47.43143" lon="8.16083">
        <ele>350.9</ele>
        <time>2022-10-02T10:48:20Z</time>
      </trkpt>
      <trkpt lat="47.43147" lon="8.16083">
        <ele>350.9</ele>
        <time>2022-10-02T10:48:21Z</time>
      </trkpt>
      <trkpt lat="47.43152" lon="8.16081">
        <ele>350.9</ele>
        <time>2022-10-02T10:48:22Z</time>
      </trkpt>
      <trkpt lat="47.43156" lon="8.1608">
        <ele>350.9</ele>
        <time>2022-10-02T10:48:23Z</time>
      </trkpt>
      <trkpt lat="47.43159" lon="8.1608">
        <ele>350.9</ele>
        <time>2022-10-02T10:48:24Z</time>
      </trkpt>
      <trkpt lat="47.43163" lon="8.16079">
        <ele>350.9</ele>
        <time>2022-10-02T10:48:25Z</time>
      </trkpt>
      <trkpt lat="47.43168" lon="8.16078">
        <ele>350.9</ele>
        <time>2022-10-02T10:48:26Z</time>
      </trkpt>
      <trkpt lat="47.43172" lon="8.16076">
        <ele>350.9</ele>
        <time>2022-10-02T10:48:27Z</time>
      </trkpt>
      <trkpt lat="47.43176" lon="8.16075">
        <ele>350.9</ele>
        <time>2022-10-02T10:48:28Z</time>
      </trkpt>
      <trkpt lat="47.4318" lon="8.16074">
        <ele>350.9</ele>
        <time>2022-10-02T10:48:29Z</time>
      </trkpt>
      <trkpt lat="47.43184" lon="8.16073">
        <ele>350.9</ele>
        <time>2022-10-02T10:48:30Z</time>
      </trkpt>
      <trkpt lat="47.43188" lon="8.16072">
        <ele>350.9</ele>
        <time>2022-10-02T10:48:31Z</time>
      </trkpt>
      <trkpt lat="47.43193" lon="8.16071">
        <ele>350.9</ele>
        <time>2022-10-02T10:48:32Z</time>
      </trkpt>
      <trkpt lat="47.43197" lon="8.16071">
        <ele>350.8</ele>
        <time>2022-10-02T10:48:33Z</time>
      </trkpt>
      <trkpt lat="47.43201" lon="8.1607">
        <ele>350.8</ele>
        <time>2022-10-02T10:48:34Z</time>
      </trkpt>
      <trkpt lat="47.43205" lon="8.16068">
        <ele>350.8</ele>
        <time>2022-10-02T10:48:35Z</time>
      </trkpt>
      <trkpt lat="47.43209" lon="8.16069">
        <ele>350.8</ele>
        <time>2022-10-02T10:48:36Z</time>
      </trkpt>
      <trkpt lat="47.43213" lon="8.16068">
        <ele>350.8</ele>
        <time>2022-10-02T10:48:37Z</time>
      </trkpt>
      <trkpt lat="47.43217" lon="8.16067">
        <ele>350.8</ele>
        <time>2022-10-02T10:48:38Z</time>
      </trkpt>
      <trkpt lat="47.43221" lon="8.16066">
        <ele>350.8</ele>
        <time>2022-10-02T10:48:39Z</time>
      </trkpt>
      <trkpt lat="47.43225" lon="8.16066">
        <ele>350.8</ele>
        <time>2022-10-02T10:48:40Z</time>
      </trkpt>
      <trkpt lat="47.43228" lon="8.16066">
        <ele>350.8</ele>
        <time>2022-10-02T10:48:41Z</time>
      </trkpt>
      <trkpt lat="47.43233" lon="8.16065">
        <ele>350.8</ele>
        <time>2022-10-02T10:48:42Z</time>
      </trkpt>
      <trkpt lat="47.43237" lon="8.16065">
        <ele>350.8</ele>
        <time>2022-10-02T10:48:43Z</time>
      </trkpt>
      <trkpt lat="47.4324" lon="8.16065">
        <ele>350.8</ele>
        <time>2022-10-02T10:48:44Z</time>
      </trkpt>
      <trkpt lat="47.43243" lon="8.16065">
        <ele>350.8</ele>
        <time>2022-10-02T10:48:45Z</time>
      </trkpt>
      <trkpt lat="47.43246" lon="8.16065">
        <ele>350.8</ele>
        <time>2022-10-02T10:48:46Z</time>
      </trkpt>
      <trkpt lat="47.43249" lon="8.16065">
        <ele>350.8</ele>
        <time>2022-10-02T10:48:47Z</time>
      </trkpt>
      <trkpt lat="47.43253" lon="8.16064">
        <ele>350.8</ele>
        <time>2022-10-02T10:48:48Z</time>
      </trkpt>
      <trkpt lat="47.43257" lon="8.16064">
        <ele>350.8</ele>
        <time>2022-10-02T10:48:49Z</time>
      </trkpt>
      <trkpt lat="47.43261" lon="8.16064">
        <ele>350.8</ele>
        <time>2022-10-02T10:48:50Z</time>
      </trkpt>
      <trkpt lat="47.43266" lon="8.16063">
        <ele>350.8</ele>
        <time>2022-10-02T10:48:51Z</time>
      </trkpt>
      <trkpt lat="47.4327" lon="8.16064">
        <ele>350.8</ele>
        <time>2022-10-02T10:48:52Z</time>
      </trkpt>
      <trkpt lat="47.43274" lon="8.16064">
        <ele>350.8</ele>
        <time>2022-10-02T10:48:53Z</time>
      </trkpt>
      <trkpt lat="47.43278" lon="8.16063">
        <ele>350.7</ele>
        <time>2022-10-02T10:48:54Z</time>
      </trkpt>
      <trkpt lat="47.43283" lon="8.16063">
        <ele>350.7</ele>
        <time>2022-10-02T10:48:55Z</time>
      </trkpt>
      <trkpt lat="47.43287" lon="8.16062">
        <ele>350.7</ele>
        <time>2022-10-02T10:48:56Z</time>
      </trkpt>
      <trkpt lat="47.4329" lon="8.16064">
        <ele>350.7</ele>
        <time>2022-10-02T10:48:57Z</time>
      </trkpt>
      <trkpt lat="47.43295" lon="8.16064">
        <ele>350.7</ele>
        <time>2022-10-02T10:48:58Z</time>
      </trkpt>
      <trkpt lat="47.43299" lon="8.16064">
        <ele>350.7</ele>
        <time>2022-10-02T10:48:59Z</time>
      </trkpt>
      <trkpt lat="47.43302" lon="8.16065">
        <ele>350.7</ele>
        <time>2022-10-02T10:49:00Z</time>
      </trkpt>
      <trkpt lat="47.43306" lon="8.16065">
        <ele>350.7</ele>
        <time>2022-10-02T10:49:01Z</time>
      </trkpt>
      <trkpt lat="47.43309" lon="8.16065">
        <ele>350.7</ele>
        <time>2022-10-02T10:49:02Z</time>
      </trkpt>
      <trkpt lat="47.43313" lon="8.16066">
        <ele>350.7</ele>
        <time>2022-10-02T10:49:03Z</time>
      </trkpt>
      <trkpt lat="47.43317" lon="8.16067">
        <ele>350.7</ele>
        <time>2022-10-02T10:49:04Z</time>
      </trkpt>
      <trkpt lat="47.4332" lon="8.16067">
        <ele>350.7</ele>
        <time>2022-10-02T10:49:05Z</time>
      </trkpt>
      <trkpt lat="47.43324" lon="8.16068">
        <ele>350.7</ele>
        <time>2022-10-02T10:49:06Z</time>
      </trkpt>
      <trkpt lat="47.43327" lon="8.16068">
        <ele>350.7</ele>
        <time>2022-10-02T10:49:07Z</time>
      </trkpt>
      <trkpt lat="47.43331" lon="8.16068">
        <ele>350.7</ele>
        <time>2022-10-02T10:49:08Z</time>
      </trkpt>
      <trkpt lat="47.43333" lon="8.16069">
        <ele>350.7</ele>
        <time>2022-10-02T10:49:09Z</time>
      </trkpt>
      <trkpt lat="47.43337" lon="8.16069">
        <ele>350.7</ele>
        <time>2022-10-02T10:49:10Z</time>
      </trkpt>
      <trkpt lat="47.43341" lon="8.16069">
        <ele>350.7</ele>
        <time>2022-10-02T10:49:11Z</time>
      </trkpt>
      <trkpt lat="47.43344" lon="8.1607">
        <ele>350.7</ele>
        <time>2022-10-02T10:49:12Z</time>
      </trkpt>
      <trkpt lat="47.43347" lon="8.1607">
        <ele>350.7</ele>
        <time>2022-10-02T10:49:13Z</time>
      </trkpt>
      <trkpt lat="47.43351" lon="8.16071">
        <ele>350.7</ele>
        <time>2022-10-02T10:49:14Z</time>
      </trkpt>
      <trkpt lat="47.43355" lon="8.16072">
        <ele>350.7</ele>
        <time>2022-10-02T10:49:15Z</time>
      </trkpt>
      <trkpt lat="47.43358" lon="8.16074">
        <ele>350.7</ele>
        <time>2022-10-02T10:49:16Z</time>
      </trkpt>
      <trkpt lat="47.43363" lon="8.16075">
        <ele>350.7</ele>
        <time>2022-10-02T10:49:17Z</time>
      </trkpt>
      <trkpt lat="47.43367" lon="8.16076">
        <ele>350.7</ele>
        <time>2022-10-02T10:49:18Z</time>
      </trkpt>
      <trkpt lat="47.43372" lon="8.16077">
        <ele>350.7</ele>
        <time>2022-10-02T10:49:19Z</time>
      </trkpt>
      <trkpt lat="47.43376" lon="8.16078">
        <ele>350.7</ele>
        <time>2022-10-02T10:49:20Z</time>
      </trkpt>
      <trkpt lat="47.4338" lon="8.16079">
        <ele>350.7</ele>
        <time>2022-10-02T10:49:21Z</time>
      </trkpt>
      <trkpt lat="47.43384" lon="8.16082">
        <ele>350.7</ele>
        <time>2022-10-02T10:49:22Z</time>
      </trkpt>
      <trkpt lat="47.43389" lon="8.16083">
        <ele>350.7</ele>
        <time>2022-10-02T10:49:23Z</time>
      </trkpt>
      <trkpt lat="47.43393" lon="8.16084">
        <ele>350.7</ele>
        <time>2022-10-02T10:49:24Z</time>
      </trkpt>
      <trkpt lat="47.43398" lon="8.16086">
        <ele>350.7</ele>
        <time>2022-10-02T10:49:25Z</time>
      </trkpt>
      <trkpt lat="47.43402" lon="8.16087">
        <ele>350.7</ele>
        <time>2022-10-02T10:49:26Z</time>
      </trkpt>
      <trkpt lat="47.43407" lon="8.16088">
        <ele>350.7</ele>
        <time>2022-10-02T10:49:27Z</time>
      </trkpt>
      <trkpt lat="47.43411" lon="8.1609">
        <ele>350.7</ele>
        <time>2022-10-02T10:49:28Z</time>
      </trkpt>
      <trkpt lat="47.43416" lon="8.16092">
        <ele>350.7</ele>
        <time>2022-10-02T10:49:29Z</time>
      </trkpt>
      <trkpt lat="47.4342" lon="8.16093">
        <ele>350.7</ele>
        <time>2022-10-02T10:49:30Z</time>
      </trkpt>
      <trkpt lat="47.43424" lon="8.16095">
        <ele>350.7</ele>
        <time>2022-10-02T10:49:31Z</time>
      </trkpt>
      <trkpt lat="47.43428" lon="8.16097">
        <ele>350.7</ele>
        <time>2022-10-02T10:49:32Z</time>
      </trkpt>
      <trkpt lat="47.43432" lon="8.16099">
        <ele>350.7</ele>
        <time>2022-10-02T10:49:33Z</time>
      </trkpt>
      <trkpt lat="47.43435" lon="8.16101">
        <ele>350.7</ele>
        <time>2022-10-02T10:49:34Z</time>
      </trkpt>
      <trkpt lat="47.43438" lon="8.16102">
        <ele>350.7</ele>
        <time>2022-10-02T10:49:35Z</time>
      </trkpt>
      <trkpt lat="47.43442" lon="8.16104">
        <ele>350.7</ele>
        <time>2022-10-02T10:49:36Z</time>
      </trkpt>
      <trkpt lat="47.43446" lon="8.16107">
        <ele>350.7</ele>
        <time>2022-10-02T10:49:37Z</time>
      </trkpt>
      <trkpt lat="47.4345" lon="8.16109">
        <ele>350.7</ele>
        <time>2022-10-02T10:49:38Z</time>
      </trkpt>
      <trkpt lat="47.43454" lon="8.16111">
        <ele>350.6</ele>
        <time>2022-10-02T10:49:39Z</time>
      </trkpt>
      <trkpt lat="47.43457" lon="8.16113">
        <ele>350.6</ele>
        <time>2022-10-02T10:49:40Z</time>
      </trkpt>
      <trkpt lat="47.43461" lon="8.16115">
        <ele>350.6</ele>
        <time>2022-10-02T10:49:41Z</time>
      </trkpt>
      <trkpt lat="47.43463" lon="8.16118">
        <ele>350.6</ele>
        <time>2022-10-02T10:49:42Z</time>
      </trkpt>
      <trkpt lat="47.43467" lon="8.16121">
        <ele>350.6</ele>
        <time>2022-10-02T10:49:43Z</time>
      </trkpt>
      <trkpt lat="47.43471" lon="8.16123">
        <ele>350.6</ele>
        <time>2022-10-02T10:49:44Z</time>
      </trkpt>
      <trkpt lat="47.43475" lon="8.16125">
        <ele>350.6</ele>
        <time>2022-10-02T10:49:45Z</time>
      </trkpt>
      <trkpt lat="47.43478" lon="8.16127">
        <ele>350.6</ele>
        <time>2022-10-02T10:49:47Z</time>
      </trkpt>
      <trkpt lat="47.43482" lon="8.16129">
        <ele>350.6</ele>
        <time>2022-10-02T10:49:48Z</time>
      </trkpt>
      <trkpt lat="47.43486" lon="8.16131">
        <ele>350.6</ele>
        <time>2022-10-02T10:49:49Z</time>
      </trkpt>
      <trkpt lat="47.43489" lon="8.16135">
        <ele>350.6</ele>
        <time>2022-10-02T10:49:50Z</time>
      </trkpt>
      <trkpt lat="47.43493" lon="8.16137">
        <ele>350.6</ele>
        <time>2022-10-02T10:49:51Z</time>
      </trkpt>
      <trkpt lat="47.43497" lon="8.16139">
        <ele>350.6</ele>
        <time>2022-10-02T10:49:52Z</time>
      </trkpt>
      <trkpt lat="47.43499" lon="8.1614">
        <ele>350.6</ele>
        <time>2022-10-02T10:49:53Z</time>
      </trkpt>
      <trkpt lat="47.43503" lon="8.16143">
        <ele>350.6</ele>
        <time>2022-10-02T10:49:54Z</time>
      </trkpt>
      <trkpt lat="47.43506" lon="8.16145">
        <ele>350.6</ele>
        <time>2022-10-02T10:49:55Z</time>
      </trkpt>
      <trkpt lat="47.4351" lon="8.16147">
        <ele>350.6</ele>
        <time>2022-10-02T10:49:56Z</time>
      </trkpt>
      <trkpt lat="47.43514" lon="8.1615">
        <ele>350.6</ele>
        <time>2022-10-02T10:49:57Z</time>
      </trkpt>
      <trkpt lat="47.43518" lon="8.16153">
        <ele>350.6</ele>
        <time>2022-10-02T10:49:58Z</time>
      </trkpt>
      <trkpt lat="47.43519" lon="8.16154">
        <ele>350.6</ele>
        <time>2022-10-02T10:49:59Z</time>
      </trkpt>
      <trkpt lat="47.43523" lon="8.16156">
        <ele>350.6</ele>
        <time>2022-10-02T10:50:00Z</time>
      </trkpt>
      <trkpt lat="47.43526" lon="8.16159">
        <ele>350.6</ele>
        <time>2022-10-02T10:50:01Z</time>
      </trkpt>
      <trkpt lat="47.43529" lon="8.16161">
        <ele>350.6</ele>
        <time>2022-10-02T10:50:02Z</time>
      </trkpt>
      <trkpt lat="47.43532" lon="8.16163">
        <ele>350.6</ele>
        <time>2022-10-02T10:50:03Z</time>
      </trkpt>
      <trkpt lat="47.43536" lon="8.16165">
        <ele>350.6</ele>
        <time>2022-10-02T10:50:04Z</time>
      </trkpt>
      <trkpt lat="47.43539" lon="8.16168">
        <ele>350.6</ele>
        <time>2022-10-02T10:50:05Z</time>
      </trkpt>
      <trkpt lat="47.43542" lon="8.16171">
        <ele>350.6</ele>
        <time>2022-10-02T10:50:06Z</time>
      </trkpt>
      <trkpt lat="47.43546" lon="8.16173">
        <ele>350.6</ele>
        <time>2022-10-02T10:50:07Z</time>
      </trkpt>
      <trkpt lat="47.4355" lon="8.16175">
        <ele>350.6</ele>
        <time>2022-10-02T10:50:08Z</time>
      </trkpt>
      <trkpt lat="47.43554" lon="8.16179">
        <ele>350.6</ele>
        <time>2022-10-02T10:50:09Z</time>
      </trkpt>
      <trkpt lat="47.43558" lon="8.16182">
        <ele>350.6</ele>
        <time>2022-10-02T10:50:10Z</time>
      </trkpt>
      <trkpt lat="47.43561" lon="8.16182">
        <ele>350.6</ele>
        <time>2022-10-02T10:50:11Z</time>
      </trkpt>
      <trkpt lat="47.43564" lon="8.16186">
        <ele>350.6</ele>
        <time>2022-10-02T10:50:12Z</time>
      </trkpt>
      <trkpt lat="47.43568" lon="8.16189">
        <ele>350.6</ele>
        <time>2022-10-02T10:50:13Z</time>
      </trkpt>
      <trkpt lat="47.43571" lon="8.16191">
        <ele>350.6</ele>
        <time>2022-10-02T10:50:14Z</time>
      </trkpt>
      <trkpt lat="47.43575" lon="8.16194">
        <ele>350.6</ele>
        <time>2022-10-02T10:50:15Z</time>
      </trkpt>
      <trkpt lat="47.43579" lon="8.16196">
        <ele>350.6</ele>
        <time>2022-10-02T10:50:16Z</time>
      </trkpt>
      <trkpt lat="47.43583" lon="8.16198">
        <ele>350.6</ele>
        <time>2022-10-02T10:50:17Z</time>
      </trkpt>
      <trkpt lat="47.43587" lon="8.16202">
        <ele>350.7</ele>
        <time>2022-10-02T10:50:18Z</time>
      </trkpt>
      <trkpt lat="47.4359" lon="8.16204">
        <ele>350.7</ele>
        <time>2022-10-02T10:50:19Z</time>
      </trkpt>
      <trkpt lat="47.43593" lon="8.16207">
        <ele>350.7</ele>
        <time>2022-10-02T10:50:20Z</time>
      </trkpt>
      <trkpt lat="47.43596" lon="8.16209">
        <ele>350.7</ele>
        <time>2022-10-02T10:50:21Z</time>
      </trkpt>
      <trkpt lat="47.436" lon="8.16213">
        <ele>350.7</ele>
        <time>2022-10-02T10:50:22Z</time>
      </trkpt>
      <trkpt lat="47.43603" lon="8.16216">
        <ele>350.7</ele>
        <time>2022-10-02T10:50:23Z</time>
      </trkpt>
      <trkpt lat="47.4361" lon="8.16221">
        <ele>350.7</ele>
        <time>2022-10-02T10:50:24Z</time>
      </trkpt>
      <trkpt lat="47.43613" lon="8.16223">
        <ele>350.7</ele>
        <time>2022-10-02T10:50:25Z</time>
      </trkpt>
      <trkpt lat="47.43617" lon="8.16226">
        <ele>350.7</ele>
        <time>2022-10-02T10:50:26Z</time>
      </trkpt>
      <trkpt lat="47.43621" lon="8.16229">
        <ele>350.7</ele>
        <time>2022-10-02T10:50:27Z</time>
      </trkpt>
      <trkpt lat="47.43624" lon="8.16232">
        <ele>350.7</ele>
        <time>2022-10-02T10:50:28Z</time>
      </trkpt>
      <trkpt lat="47.43629" lon="8.16234">
        <ele>350.7</ele>
        <time>2022-10-02T10:50:29Z</time>
      </trkpt>
      <trkpt lat="47.43633" lon="8.16237">
        <ele>350.7</ele>
        <time>2022-10-02T10:50:30Z</time>
      </trkpt>
      <trkpt lat="47.43638" lon="8.16241">
        <ele>350.7</ele>
        <time>2022-10-02T10:50:31Z</time>
      </trkpt>
      <trkpt lat="47.43642" lon="8.16243">
        <ele>350.7</ele>
        <time>2022-10-02T10:50:32Z</time>
      </trkpt>
      <trkpt lat="47.43646" lon="8.16245">
        <ele>350.7</ele>
        <time>2022-10-02T10:50:33Z</time>
      </trkpt>
      <trkpt lat="47.43651" lon="8.16249">
        <ele>350.7</ele>
        <time>2022-10-02T10:50:34Z</time>
      </trkpt>
      <trkpt lat="47.43654" lon="8.16252">
        <ele>350.7</ele>
        <time>2022-10-02T10:50:35Z</time>
      </trkpt>
      <trkpt lat="47.43657" lon="8.16254">
        <ele>350.7</ele>
        <time>2022-10-02T10:50:36Z</time>
      </trkpt>
      <trkpt lat="47.43661" lon="8.16257">
        <ele>350.7</ele>
        <time>2022-10-02T10:50:37Z</time>
      </trkpt>
      <trkpt lat="47.43665" lon="8.1626">
        <ele>350.7</ele>
        <time>2022-10-02T10:50:38Z</time>
      </trkpt>
      <trkpt lat="47.4367" lon="8.16262">
        <ele>350.7</ele>
        <time>2022-10-02T10:50:39Z</time>
      </trkpt>
      <trkpt lat="47.43674" lon="8.16266">
        <ele>350.7</ele>
        <time>2022-10-02T10:50:40Z</time>
      </trkpt>
      <trkpt lat="47.43677" lon="8.16268">
        <ele>350.7</ele>
        <time>2022-10-02T10:50:41Z</time>
      </trkpt>
      <trkpt lat="47.43682" lon="8.16271">
        <ele>350.7</ele>
        <time>2022-10-02T10:50:42Z</time>
      </trkpt>
      <trkpt lat="47.43686" lon="8.16272">
        <ele>350.7</ele>
        <time>2022-10-02T10:50:43Z</time>
      </trkpt>
      <trkpt lat="47.43689" lon="8.16275">
        <ele>350.7</ele>
        <time>2022-10-02T10:50:44Z</time>
      </trkpt>
      <trkpt lat="47.43693" lon="8.16277">
        <ele>350.6</ele>
        <time>2022-10-02T10:50:45Z</time>
      </trkpt>
      <trkpt lat="47.43697" lon="8.16279">
        <ele>350.6</ele>
        <time>2022-10-02T10:50:46Z</time>
      </trkpt>
      <trkpt lat="47.43701" lon="8.16282">
        <ele>350.6</ele>
        <time>2022-10-02T10:50:47Z</time>
      </trkpt>
      <trkpt lat="47.43704" lon="8.16285">
        <ele>350.6</ele>
        <time>2022-10-02T10:50:48Z</time>
      </trkpt>
      <trkpt lat="47.43708" lon="8.16288">
        <ele>350.6</ele>
        <time>2022-10-02T10:50:49Z</time>
      </trkpt>
      <trkpt lat="47.43711" lon="8.16291">
        <ele>350.6</ele>
        <time>2022-10-02T10:50:50Z</time>
      </trkpt>
      <trkpt lat="47.43714" lon="8.16293">
        <ele>350.6</ele>
        <time>2022-10-02T10:50:51Z</time>
      </trkpt>
      <trkpt lat="47.43717" lon="8.16296">
        <ele>350.6</ele>
        <time>2022-10-02T10:50:52Z</time>
      </trkpt>
      <trkpt lat="47.4372" lon="8.16298">
        <ele>350.6</ele>
        <time>2022-10-02T10:50:53Z</time>
      </trkpt>
      <trkpt lat="47.43725" lon="8.16301">
        <ele>350.6</ele>
        <time>2022-10-02T10:50:54Z</time>
      </trkpt>
      <trkpt lat="47.43729" lon="8.16303">
        <ele>350.6</ele>
        <time>2022-10-02T10:50:55Z</time>
      </trkpt>
      <trkpt lat="47.43732" lon="8.16305">
        <ele>350.6</ele>
        <time>2022-10-02T10:50:56Z</time>
      </trkpt>
      <trkpt lat="47.43735" lon="8.16309">
        <ele>350.6</ele>
        <time>2022-10-02T10:50:57Z</time>
      </trkpt>
      <trkpt lat="47.43738" lon="8.1631">
        <ele>350.6</ele>
        <time>2022-10-02T10:50:58Z</time>
      </trkpt>
      <trkpt lat="47.43743" lon="8.16311">
        <ele>350.6</ele>
        <time>2022-10-02T10:50:59Z</time>
      </trkpt>
      <trkpt lat="47.43745" lon="8.16314">
        <ele>350.6</ele>
        <time>2022-10-02T10:51:00Z</time>
      </trkpt>
      <trkpt lat="47.43749" lon="8.16316">
        <ele>350.6</ele>
        <time>2022-10-02T10:51:01Z</time>
      </trkpt>
      <trkpt lat="47.43752" lon="8.1632">
        <ele>350.6</ele>
        <time>2022-10-02T10:51:02Z</time>
      </trkpt>
      <trkpt lat="47.43756" lon="8.16323">
        <ele>350.7</ele>
        <time>2022-10-02T10:51:03Z</time>
      </trkpt>
      <trkpt lat="47.43758" lon="8.16324">
        <ele>350.7</ele>
        <time>2022-10-02T10:51:04Z</time>
      </trkpt>
      <trkpt lat="47.43761" lon="8.16326">
        <ele>350.7</ele>
        <time>2022-10-02T10:51:05Z</time>
      </trkpt>
      <trkpt lat="47.43765" lon="8.16329">
        <ele>350.7</ele>
        <time>2022-10-02T10:51:06Z</time>
      </trkpt>
      <trkpt lat="47.43769" lon="8.16331">
        <ele>350.7</ele>
        <time>2022-10-02T10:51:07Z</time>
      </trkpt>
      <trkpt lat="47.43773" lon="8.16334">
        <ele>350.7</ele>
        <time>2022-10-02T10:51:08Z</time>
      </trkpt>
      <trkpt lat="47.43776" lon="8.16336">
        <ele>350.7</ele>
        <time>2022-10-02T10:51:09Z</time>
      </trkpt>
      <trkpt lat="47.43779" lon="8.16339">
        <ele>350.7</ele>
        <time>2022-10-02T10:51:10Z</time>
      </trkpt>
      <trkpt lat="47.43783" lon="8.1634">
        <ele>350.7</ele>
        <time>2022-10-02T10:51:11Z</time>
      </trkpt>
      <trkpt lat="47.43787" lon="8.16343">
        <ele>350.7</ele>
        <time>2022-10-02T10:51:12Z</time>
      </trkpt>
      <trkpt lat="47.43791" lon="8.16346">
        <ele>350.7</ele>
        <time>2022-10-02T10:51:13Z</time>
      </trkpt>
      <trkpt lat="47.43795" lon="8.16348">
        <ele>350.7</ele>
        <time>2022-10-02T10:51:14Z</time>
      </trkpt>
      <trkpt lat="47.43799" lon="8.16351">
        <ele>350.7</ele>
        <time>2022-10-02T10:51:15Z</time>
      </trkpt>
      <trkpt lat="47.43802" lon="8.16352">
        <ele>350.7</ele>
        <time>2022-10-02T10:51:16Z</time>
      </trkpt>
      <trkpt lat="47.43806" lon="8.16357">
        <ele>350.7</ele>
        <time>2022-10-02T10:51:17Z</time>
      </trkpt>
      <trkpt lat="47.43809" lon="8.1636">
        <ele>350.7</ele>
        <time>2022-10-02T10:51:18Z</time>
      </trkpt>
      <trkpt lat="47.43813" lon="8.16364">
        <ele>350.7</ele>
        <time>2022-10-02T10:51:19Z</time>
      </trkpt>
      <trkpt lat="47.43817" lon="8.16365">
        <ele>350.7</ele>
        <time>2022-10-02T10:51:20Z</time>
      </trkpt>
      <trkpt lat="47.43821" lon="8.16368">
        <ele>350.7</ele>
        <time>2022-10-02T10:51:21Z</time>
      </trkpt>
      <trkpt lat="47.43825" lon="8.16371">
        <ele>350.7</ele>
        <time>2022-10-02T10:51:22Z</time>
      </trkpt>
      <trkpt lat="47.43828" lon="8.16374">
        <ele>350.7</ele>
        <time>2022-10-02T10:51:23Z</time>
      </trkpt>
      <trkpt lat="47.43832" lon="8.16377">
        <ele>350.7</ele>
        <time>2022-10-02T10:51:24Z</time>
      </trkpt>
      <trkpt lat="47.43837" lon="8.1638">
        <ele>350.7</ele>
        <time>2022-10-02T10:51:25Z</time>
      </trkpt>
      <trkpt lat="47.43841" lon="8.16382">
        <ele>350.7</ele>
        <time>2022-10-02T10:51:26Z</time>
      </trkpt>
      <trkpt lat="47.43845" lon="8.16386">
        <ele>350.7</ele>
        <time>2022-10-02T10:51:27Z</time>
      </trkpt>
      <trkpt lat="47.4385" lon="8.16388">
        <ele>350.7</ele>
        <time>2022-10-02T10:51:28Z</time>
      </trkpt>
      <trkpt lat="47.43855" lon="8.1639">
        <ele>350.7</ele>
        <time>2022-10-02T10:51:29Z</time>
      </trkpt>
      <trkpt lat="47.43859" lon="8.16393">
        <ele>350.7</ele>
        <time>2022-10-02T10:51:30Z</time>
      </trkpt>
      <trkpt lat="47.43863" lon="8.16396">
        <ele>350.7</ele>
        <time>2022-10-02T10:51:31Z</time>
      </trkpt>
      <trkpt lat="47.43866" lon="8.16398">
        <ele>350.7</ele>
        <time>2022-10-02T10:51:32Z</time>
      </trkpt>
      <trkpt lat="47.4387" lon="8.164">
        <ele>350.7</ele>
        <time>2022-10-02T10:51:33Z</time>
      </trkpt>
      <trkpt lat="47.43874" lon="8.16402">
        <ele>350.7</ele>
        <time>2022-10-02T10:51:34Z</time>
      </trkpt>
      <trkpt lat="47.43878" lon="8.16405">
        <ele>350.7</ele>
        <time>2022-10-02T10:51:35Z</time>
      </trkpt>
      <trkpt lat="47.43881" lon="8.16408">
        <ele>350.8</ele>
        <time>2022-10-02T10:51:36Z</time>
      </trkpt>
      <trkpt lat="47.43885" lon="8.16408">
        <ele>350.8</ele>
        <time>2022-10-02T10:51:37Z</time>
      </trkpt>
      <trkpt lat="47.43889" lon="8.16411">
        <ele>350.8</ele>
        <time>2022-10-02T10:51:38Z</time>
      </trkpt>
      <trkpt lat="47.43893" lon="8.16412">
        <ele>350.8</ele>
        <time>2022-10-02T10:51:39Z</time>
      </trkpt>
      <trkpt lat="47.43896" lon="8.16412">
        <ele>350.8</ele>
        <time>2022-10-02T10:51:40Z</time>
      </trkpt>
      <trkpt lat="47.43899" lon="8.16416">
        <ele>350.8</ele>
        <time>2022-10-02T10:51:41Z</time>
      </trkpt>
      <trkpt lat="47.43902" lon="8.16417">
        <ele>350.8</ele>
        <time>2022-10-02T10:51:42Z</time>
      </trkpt>
      <trkpt lat="47.43906" lon="8.16418">
        <ele>350.8</ele>
        <time>2022-10-02T10:51:43Z</time>
      </trkpt>
      <trkpt lat="47.43909" lon="8.1642">
        <ele>350.8</ele>
        <time>2022-10-02T10:51:44Z</time>
      </trkpt>
      <trkpt lat="47.43913" lon="8.16423">
        <ele>350.8</ele>
        <time>2022-10-02T10:51:45Z</time>
      </trkpt>
      <trkpt lat="47.43916" lon="8.16424">
        <ele>350.8</ele>
        <time>2022-10-02T10:51:46Z</time>
      </trkpt>
      <trkpt lat="47.4392" lon="8.16426">
        <ele>350.8</ele>
        <time>2022-10-02T10:51:47Z</time>
      </trkpt>
      <trkpt lat="47.43924" lon="8.16427">
        <ele>350.8</ele>
        <time>2022-10-02T10:51:48Z</time>
      </trkpt>
      <trkpt lat="47.43928" lon="8.1643">
        <ele>350.8</ele>
        <time>2022-10-02T10:51:49Z</time>
      </trkpt>
      <trkpt lat="47.43931" lon="8.16431">
        <ele>350.8</ele>
        <time>2022-10-02T10:51:50Z</time>
      </trkpt>
      <trkpt lat="47.43935" lon="8.16431">
        <ele>350.8</ele>
        <time>2022-10-02T10:51:51Z</time>
      </trkpt>
      <trkpt lat="47.43938" lon="8.16433">
        <ele>350.8</ele>
        <time>2022-10-02T10:51:53Z</time>
      </trkpt>
      <trkpt lat="47.43942" lon="8.16434">
        <ele>350.8</ele>
        <time>2022-10-02T10:51:54Z</time>
      </trkpt>
      <trkpt lat="47.43946" lon="8.16437">
        <ele>350.8</ele>
        <time>2022-10-02T10:51:55Z</time>
      </trkpt>
      <trkpt lat="47.4395" lon="8.16437">
        <ele>350.8</ele>
        <time>2022-10-02T10:51:56Z</time>
      </trkpt>
      <trkpt lat="47.43954" lon="8.16438">
        <ele>350.8</ele>
        <time>2022-10-02T10:51:57Z</time>
      </trkpt>
      <trkpt lat="47.43957" lon="8.1644">
        <ele>350.8</ele>
        <time>2022-10-02T10:51:58Z</time>
      </trkpt>
      <trkpt lat="47.43962" lon="8.16441">
        <ele>350.8</ele>
        <time>2022-10-02T10:51:59Z</time>
      </trkpt>
      <trkpt lat="47.43965" lon="8.16443">
        <ele>350.8</ele>
        <time>2022-10-02T10:52:00Z</time>
      </trkpt>
      <trkpt lat="47.4397" lon="8.16444">
        <ele>350.8</ele>
        <time>2022-10-02T10:52:01Z</time>
      </trkpt>
      <trkpt lat="47.43973" lon="8.16445">
        <ele>350.8</ele>
        <time>2022-10-02T10:52:02Z</time>
      </trkpt>
      <trkpt lat="47.43976" lon="8.16447">
        <ele>350.8</ele>
        <time>2022-10-02T10:52:03Z</time>
      </trkpt>
      <trkpt lat="47.43981" lon="8.16449">
        <ele>350.8</ele>
        <time>2022-10-02T10:52:04Z</time>
      </trkpt>
      <trkpt lat="47.43984" lon="8.16449">
        <ele>350.8</ele>
        <time>2022-10-02T10:52:05Z</time>
      </trkpt>
      <trkpt lat="47.43987" lon="8.1645">
        <ele>350.8</ele>
        <time>2022-10-02T10:52:06Z</time>
      </trkpt>
      <trkpt lat="47.43988" lon="8.16449">
        <ele>350.8</ele>
        <time>2022-10-02T10:52:07Z</time>
      </trkpt>
      <trkpt lat="47.43989" lon="8.1645">
        <ele>350.8</ele>
        <time>2022-10-02T10:52:08Z</time>
      </trkpt>
      <trkpt lat="47.43989" lon="8.1645">
        <ele>350.8</ele>
        <time>2022-10-02T10:52:09Z</time>
      </trkpt>
      <trkpt lat="47.43989" lon="8.1645">
        <ele>350.8</ele>
        <time>2022-10-02T10:52:10Z</time>
      </trkpt>
      <trkpt lat="47.4399" lon="8.1645">
        <ele>350.8</ele>
        <time>2022-10-02T10:52:11Z</time>
      </trkpt>
      <trkpt lat="47.4399" lon="8.1645">
        <ele>350.8</ele>
        <time>2022-10-02T10:52:12Z</time>
      </trkpt>
      <trkpt lat="47.43991" lon="8.1645">
        <ele>350.8</ele>
        <time>2022-10-02T10:52:13Z</time>
      </trkpt>
      <trkpt lat="47.43991" lon="8.16451">
        <ele>350.8</ele>
        <time>2022-10-02T10:52:14Z</time>
      </trkpt>
      <trkpt lat="47.43991" lon="8.16451">
        <ele>350.8</ele>
        <time>2022-10-02T10:52:15Z</time>
      </trkpt>
      <trkpt lat="47.43992" lon="8.16451">
        <ele>350.8</ele>
        <time>2022-10-02T10:52:16Z</time>
      </trkpt>
      <trkpt lat="47.43992" lon="8.16451">
        <ele>350.8</ele>
        <time>2022-10-02T10:52:17Z</time>
      </trkpt>
      <trkpt lat="47.43993" lon="8.16451">
        <ele>350.8</ele>
        <time>2022-10-02T10:54:41Z</time>
      </trkpt>
      <trkpt lat="47.43993" lon="8.16451">
        <ele>350.8</ele>
        <time>2022-10-02T10:54:42Z</time>
      </trkpt>
      <trkpt lat="47.43993" lon="8.16452">
        <ele>350.8</ele>
        <time>2022-10-02T10:54:43Z</time>
      </trkpt>
      <trkpt lat="47.43994" lon="8.16452">
        <ele>350.8</ele>
        <time>2022-10-02T10:54:44Z</time>
      </trkpt>
      <trkpt lat="47.43994" lon="8.16452">
        <ele>350.8</ele>
        <time>2022-10-02T10:54:45Z</time>
      </trkpt>
      <trkpt lat="47.43994" lon="8.16452">
        <ele>350.8</ele>
        <time>2022-10-02T10:54:46Z</time>
      </trkpt>
      <trkpt lat="47.43995" lon="8.16452">
        <ele>350.8</ele>
        <time>2022-10-02T10:54:47Z</time>
      </trkpt>
      <trkpt lat="47.43995" lon="8.16453">
        <ele>350.8</ele>
        <time>2022-10-02T10:54:48Z</time>
      </trkpt>
      <trkpt lat="47.43996" lon="8.16453">
        <ele>350.8</ele>
        <time>2022-10-02T10:54:49Z</time>
      </trkpt>
      <trkpt lat="47.43996" lon="8.16453">
        <ele>350.9</ele>
        <time>2022-10-02T10:54:50Z</time>
      </trkpt>
      <trkpt lat="47.43996" lon="8.16453">
        <ele>350.9</ele>
        <time>2022-10-02T10:54:51Z</time>
      </trkpt>
      <trkpt lat="47.43997" lon="8.16453">
        <ele>350.9</ele>
        <time>2022-10-02T10:55:37Z</time>
      </trkpt>
      <trkpt lat="47.43997" lon="8.16453">
        <ele>350.9</ele>
        <time>2022-10-02T10:55:38Z</time>
      </trkpt>
      <trkpt lat="47.43997" lon="8.16454">
        <ele>350.9</ele>
        <time>2022-10-02T10:55:39Z</time>
      </trkpt>
      <trkpt lat="47.44" lon="8.16454">
        <ele>350.9</ele>
        <time>2022-10-02T10:55:40Z</time>
      </trkpt>
      <trkpt lat="47.44002" lon="8.16454">
        <ele>350.9</ele>
        <time>2022-10-02T10:55:41Z</time>
      </trkpt>
      <trkpt lat="47.44004" lon="8.16455">
        <ele>350.9</ele>
        <time>2022-10-02T10:55:42Z</time>
      </trkpt>
      <trkpt lat="47.44006" lon="8.16456">
        <ele>350.9</ele>
        <time>2022-10-02T10:55:43Z</time>
      </trkpt>
      <trkpt lat="47.44009" lon="8.16457">
        <ele>350.9</ele>
        <time>2022-10-02T10:55:44Z</time>
      </trkpt>
      <trkpt lat="47.4401" lon="8.16457">
        <ele>350.9</ele>
        <time>2022-10-02T10:55:45Z</time>
      </trkpt>
      <trkpt lat="47.44013" lon="8.16458">
        <ele>350.9</ele>
        <time>2022-10-02T10:55:46Z</time>
      </trkpt>
      <trkpt lat="47.44016" lon="8.16459">
        <ele>350.9</ele>
        <time>2022-10-02T10:55:47Z</time>
      </trkpt>
      <trkpt lat="47.44019" lon="8.1646">
        <ele>350.9</ele>
        <time>2022-10-02T10:55:48Z</time>
      </trkpt>
      <trkpt lat="47.44022" lon="8.1646">
        <ele>350.9</ele>
        <time>2022-10-02T10:55:49Z</time>
      </trkpt>
      <trkpt lat="47.44025" lon="8.16461">
        <ele>350.9</ele>
        <time>2022-10-02T10:55:50Z</time>
      </trkpt>
      <trkpt lat="47.44028" lon="8.16462">
        <ele>350.9</ele>
        <time>2022-10-02T10:55:51Z</time>
      </trkpt>
      <trkpt lat="47.44031" lon="8.16464">
        <ele>350.9</ele>
        <time>2022-10-02T10:55:52Z</time>
      </trkpt>
      <trkpt lat="47.44034" lon="8.16463">
        <ele>350.9</ele>
        <time>2022-10-02T10:55:53Z</time>
      </trkpt>
      <trkpt lat="47.44038" lon="8.16463">
        <ele>350.9</ele>
        <time>2022-10-02T10:55:54Z</time>
      </trkpt>
      <trkpt lat="47.44042" lon="8.16463">
        <ele>350.9</ele>
        <time>2022-10-02T10:55:55Z</time>
      </trkpt>
      <trkpt lat="47.44046" lon="8.16463">
        <ele>350.9</ele>
        <time>2022-10-02T10:55:56Z</time>
      </trkpt>
      <trkpt lat="47.4405" lon="8.16463">
        <ele>350.8</ele>
        <time>2022-10-02T10:55:57Z</time>
      </trkpt>
      <trkpt lat="47.44054" lon="8.16464">
        <ele>350.8</ele>
        <time>2022-10-02T10:55:58Z</time>
      </trkpt>
      <trkpt lat="47.44058" lon="8.16464">
        <ele>350.8</ele>
        <time>2022-10-02T10:55:59Z</time>
      </trkpt>
      <trkpt lat="47.44061" lon="8.16466">
        <ele>350.8</ele>
        <time>2022-10-02T10:56:00Z</time>
      </trkpt>
      <trkpt lat="47.44065" lon="8.16466">
        <ele>350.8</ele>
        <time>2022-10-02T10:56:01Z</time>
      </trkpt>
      <trkpt lat="47.44068" lon="8.16466">
        <ele>350.8</ele>
        <time>2022-10-02T10:56:02Z</time>
      </trkpt>
      <trkpt lat="47.44073" lon="8.16467">
        <ele>350.8</ele>
        <time>2022-10-02T10:56:03Z</time>
      </trkpt>
      <trkpt lat="47.44076" lon="8.16467">
        <ele>350.8</ele>
        <time>2022-10-02T10:56:05Z</time>
      </trkpt>
      <trkpt lat="47.4408" lon="8.16466">
        <ele>350.8</ele>
        <time>2022-10-02T10:56:06Z</time>
      </trkpt>
      <trkpt lat="47.44084" lon="8.16466">
        <ele>350.8</ele>
        <time>2022-10-02T10:56:07Z</time>
      </trkpt>
      <trkpt lat="47.44087" lon="8.16467">
        <ele>350.8</ele>
        <time>2022-10-02T10:56:08Z</time>
      </trkpt>
      <trkpt lat="47.44091" lon="8.16467">
        <ele>350.8</ele>
        <time>2022-10-02T10:56:09Z</time>
      </trkpt>
      <trkpt lat="47.44095" lon="8.16465">
        <ele>350.8</ele>
        <time>2022-10-02T10:56:10Z</time>
      </trkpt>
      <trkpt lat="47.441" lon="8.16466">
        <ele>350.8</ele>
        <time>2022-10-02T10:56:11Z</time>
      </trkpt>
      <trkpt lat="47.44104" lon="8.16466">
        <ele>350.8</ele>
        <time>2022-10-02T10:56:12Z</time>
      </trkpt>
      <trkpt lat="47.44109" lon="8.16466">
        <ele>350.8</ele>
        <time>2022-10-02T10:56:13Z</time>
      </trkpt>
      <trkpt lat="47.44113" lon="8.16465">
        <ele>350.8</ele>
        <time>2022-10-02T10:56:14Z</time>
      </trkpt>
      <trkpt lat="47.44115" lon="8.16465">
        <ele>350.8</ele>
        <time>2022-10-02T10:56:15Z</time>
      </trkpt>
      <trkpt lat="47.4412" lon="8.16466">
        <ele>350.8</ele>
        <time>2022-10-02T10:56:16Z</time>
      </trkpt>
      <trkpt lat="47.44124" lon="8.16465">
        <ele>350.8</ele>
        <time>2022-10-02T10:56:17Z</time>
      </trkpt>
      <trkpt lat="47.44128" lon="8.16466">
        <ele>350.8</ele>
        <time>2022-10-02T10:56:18Z</time>
      </trkpt>
      <trkpt lat="47.44132" lon="8.16466">
        <ele>350.8</ele>
        <time>2022-10-02T10:56:19Z</time>
      </trkpt>
      <trkpt lat="47.44136" lon="8.16465">
        <ele>350.8</ele>
        <time>2022-10-02T10:56:20Z</time>
      </trkpt>
      <trkpt lat="47.4414" lon="8.16465">
        <ele>350.8</ele>
        <time>2022-10-02T10:56:21Z</time>
      </trkpt>
      <trkpt lat="47.44144" lon="8.16465">
        <ele>350.8</ele>
        <time>2022-10-02T10:56:22Z</time>
      </trkpt>
      <trkpt lat="47.44148" lon="8.16465">
        <ele>350.8</ele>
        <time>2022-10-02T10:56:23Z</time>
      </trkpt>
      <trkpt lat="47.44152" lon="8.16464">
        <ele>350.8</ele>
        <time>2022-10-02T10:56:24Z</time>
      </trkpt>
      <trkpt lat="47.4416" lon="8.16463">
        <ele>350.8</ele>
        <time>2022-10-02T10:56:25Z</time>
      </trkpt>
      <trkpt lat="47.44164" lon="8.16463">
        <ele>350.8</ele>
        <time>2022-10-02T10:56:26Z</time>
      </trkpt>
      <trkpt lat="47.44168" lon="8.16461">
        <ele>350.8</ele>
        <time>2022-10-02T10:56:27Z</time>
      </trkpt>
      <trkpt lat="47.44172" lon="8.16461">
        <ele>350.8</ele>
        <time>2022-10-02T10:56:28Z</time>
      </trkpt>
      <trkpt lat="47.44176" lon="8.1646">
        <ele>350.8</ele>
        <time>2022-10-02T10:56:29Z</time>
      </trkpt>
      <trkpt lat="47.4418" lon="8.1646">
        <ele>350.8</ele>
        <time>2022-10-02T10:56:30Z</time>
      </trkpt>
      <trkpt lat="47.44184" lon="8.16459">
        <ele>350.8</ele>
        <time>2022-10-02T10:56:31Z</time>
      </trkpt>
      <trkpt lat="47.44188" lon="8.16458">
        <ele>350.8</ele>
        <time>2022-10-02T10:56:32Z</time>
      </trkpt>
      <trkpt lat="47.44193" lon="8.16457">
        <ele>350.8</ele>
        <time>2022-10-02T10:56:33Z</time>
      </trkpt>
      <trkpt lat="47.44197" lon="8.16456">
        <ele>350.8</ele>
        <time>2022-10-02T10:56:34Z</time>
      </trkpt>
      <trkpt lat="47.44201" lon="8.16455">
        <ele>350.7</ele>
        <time>2022-10-02T10:56:35Z</time>
      </trkpt>
      <trkpt lat="47.44205" lon="8.16454">
        <ele>350.7</ele>
        <time>2022-10-02T10:56:36Z</time>
      </trkpt>
      <trkpt lat="47.4421" lon="8.16453">
        <ele>350.7</ele>
        <time>2022-10-02T10:56:37Z</time>
      </trkpt>
      <trkpt lat="47.44214" lon="8.16452">
        <ele>350.7</ele>
        <time>2022-10-02T10:56:38Z</time>
      </trkpt>
      <trkpt lat="47.44218" lon="8.16451">
        <ele>350.7</ele>
        <time>2022-10-02T10:56:39Z</time>
      </trkpt>
      <trkpt lat="47.44223" lon="8.1645">
        <ele>350.7</ele>
        <time>2022-10-02T10:56:40Z</time>
      </trkpt>
      <trkpt lat="47.44226" lon="8.16447">
        <ele>350.6</ele>
        <time>2022-10-02T10:56:41Z</time>
      </trkpt>
      <trkpt lat="47.44231" lon="8.16447">
        <ele>350.6</ele>
        <time>2022-10-02T10:56:42Z</time>
      </trkpt>
      <trkpt lat="47.44236" lon="8.16445">
        <ele>350.6</ele>
        <time>2022-10-02T10:56:43Z</time>
      </trkpt>
      <trkpt lat="47.4424" lon="8.16445">
        <ele>350.6</ele>
        <time>2022-10-02T10:56:44Z</time>
      </trkpt>
      <trkpt lat="47.44244" lon="8.16444">
        <ele>350.6</ele>
        <time>2022-10-02T10:56:45Z</time>
      </trkpt>
      <trkpt lat="47.44249" lon="8.16442">
        <ele>350.6</ele>
        <time>2022-10-02T10:56:46Z</time>
      </trkpt>
      <trkpt lat="47.44253" lon="8.1644">
        <ele>350.6</ele>
        <time>2022-10-02T10:56:47Z</time>
      </trkpt>
      <trkpt lat="47.44258" lon="8.16437">
        <ele>350.6</ele>
        <time>2022-10-02T10:56:48Z</time>
      </trkpt>
      <trkpt lat="47.44261" lon="8.16436">
        <ele>350.6</ele>
        <time>2022-10-02T10:56:49Z</time>
      </trkpt>
      <trkpt lat="47.44265" lon="8.16435">
        <ele>350.6</ele>
        <time>2022-10-02T10:56:50Z</time>
      </trkpt>
      <trkpt lat="47.44269" lon="8.16434">
        <ele>350.6</ele>
        <time>2022-10-02T10:56:51Z</time>
      </trkpt>
      <trkpt lat="47.44273" lon="8.16432">
        <ele>350.6</ele>
        <time>2022-10-02T10:56:52Z</time>
      </trkpt>
      <trkpt lat="47.44277" lon="8.1643">
        <ele>350.6</ele>
        <time>2022-10-02T10:56:53Z</time>
      </trkpt>
      <trkpt lat="47.44279" lon="8.16429">
        <ele>350.6</ele>
        <time>2022-10-02T10:56:54Z</time>
      </trkpt>
      <trkpt lat="47.44283" lon="8.16427">
        <ele>350.6</ele>
        <time>2022-10-02T10:56:55Z</time>
      </trkpt>
      <trkpt lat="47.44287" lon="8.16425">
        <ele>350.6</ele>
        <time>2022-10-02T10:56:56Z</time>
      </trkpt>
      <trkpt lat="47.44291" lon="8.16423">
        <ele>350.6</ele>
        <time>2022-10-02T10:56:57Z</time>
      </trkpt>
      <trkpt lat="47.44295" lon="8.16421">
        <ele>350.6</ele>
        <time>2022-10-02T10:56:58Z</time>
      </trkpt>
      <trkpt lat="47.44299" lon="8.1642">
        <ele>350.6</ele>
        <time>2022-10-02T10:56:59Z</time>
      </trkpt>
      <trkpt lat="47.44303" lon="8.16417">
        <ele>350.6</ele>
        <time>2022-10-02T10:57:00Z</time>
      </trkpt>
      <trkpt lat="47.44307" lon="8.16415">
        <ele>350.6</ele>
        <time>2022-10-02T10:57:01Z</time>
      </trkpt>
      <trkpt lat="47.44311" lon="8.16414">
        <ele>350.6</ele>
        <time>2022-10-02T10:57:02Z</time>
      </trkpt>
      <trkpt lat="47.44315" lon="8.16411">
        <ele>350.5</ele>
        <time>2022-10-02T10:57:03Z</time>
      </trkpt>
      <trkpt lat="47.4432" lon="8.16409">
        <ele>350.5</ele>
        <time>2022-10-02T10:57:04Z</time>
      </trkpt>
      <trkpt lat="47.44323" lon="8.16408">
        <ele>350.5</ele>
        <time>2022-10-02T10:57:05Z</time>
      </trkpt>
      <trkpt lat="47.44328" lon="8.16406">
        <ele>350.5</ele>
        <time>2022-10-02T10:57:06Z</time>
      </trkpt>
      <trkpt lat="47.44332" lon="8.16404">
        <ele>350.5</ele>
        <time>2022-10-02T10:57:07Z</time>
      </trkpt>
      <trkpt lat="47.44336" lon="8.16402">
        <ele>350.5</ele>
        <time>2022-10-02T10:57:08Z</time>
      </trkpt>
      <trkpt lat="47.44339" lon="8.164">
        <ele>350.5</ele>
        <time>2022-10-02T10:57:09Z</time>
      </trkpt>
      <trkpt lat="47.44344" lon="8.16398">
        <ele>350.5</ele>
        <time>2022-10-02T10:57:10Z</time>
      </trkpt>
      <trkpt lat="47.44348" lon="8.16397">
        <ele>350.5</ele>
        <time>2022-10-02T10:57:11Z</time>
      </trkpt>
      <trkpt lat="47.44352" lon="8.16395">
        <ele>350.5</ele>
        <time>2022-10-02T10:57:12Z</time>
      </trkpt>
      <trkpt lat="47.44356" lon="8.16393">
        <ele>350.4</ele>
        <time>2022-10-02T10:57:13Z</time>
      </trkpt>
      <trkpt lat="47.44359" lon="8.16392">
        <ele>350.4</ele>
        <time>2022-10-02T10:57:14Z</time>
      </trkpt>
      <trkpt lat="47.44363" lon="8.16391">
        <ele>350.4</ele>
        <time>2022-10-02T10:57:15Z</time>
      </trkpt>
      <trkpt lat="47.44367" lon="8.16389">
        <ele>350.4</ele>
        <time>2022-10-02T10:57:16Z</time>
      </trkpt>
      <trkpt lat="47.44371" lon="8.16387">
        <ele>350.5</ele>
        <time>2022-10-02T10:57:17Z</time>
      </trkpt>
      <trkpt lat="47.44375" lon="8.16385">
        <ele>350.5</ele>
        <time>2022-10-02T10:57:18Z</time>
      </trkpt>
      <trkpt lat="47.44379" lon="8.16384">
        <ele>350.5</ele>
        <time>2022-10-02T10:57:19Z</time>
      </trkpt>
      <trkpt lat="47.44383" lon="8.16382">
        <ele>350.5</ele>
        <time>2022-10-02T10:57:20Z</time>
      </trkpt>
      <trkpt lat="47.44387" lon="8.16381">
        <ele>350.5</ele>
        <time>2022-10-02T10:57:21Z</time>
      </trkpt>
      <trkpt lat="47.44391" lon="8.16379">
        <ele>350.5</ele>
        <time>2022-10-02T10:57:22Z</time>
      </trkpt>
      <trkpt lat="47.44395" lon="8.16378">
        <ele>350.5</ele>
        <time>2022-10-02T10:57:23Z</time>
      </trkpt>
      <trkpt lat="47.444" lon="8.16376">
        <ele>350.5</ele>
        <time>2022-10-02T10:57:24Z</time>
      </trkpt>
      <trkpt lat="47.44404" lon="8.16374">
        <ele>350.5</ele>
        <time>2022-10-02T10:57:25Z</time>
      </trkpt>
      <trkpt lat="47.44408" lon="8.16374">
        <ele>350.6</ele>
        <time>2022-10-02T10:57:26Z</time>
      </trkpt>
      <trkpt lat="47.44411" lon="8.16373">
        <ele>350.6</ele>
        <time>2022-10-02T10:57:27Z</time>
      </trkpt>
      <trkpt lat="47.44415" lon="8.16371">
        <ele>350.6</ele>
        <time>2022-10-02T10:57:28Z</time>
      </trkpt>
      <trkpt lat="47.4442" lon="8.1637">
        <ele>350.7</ele>
        <time>2022-10-02T10:57:29Z</time>
      </trkpt>
      <trkpt lat="47.44423" lon="8.16368">
        <ele>350.7</ele>
        <time>2022-10-02T10:57:30Z</time>
      </trkpt>
      <trkpt lat="47.44429" lon="8.16367">
        <ele>350.8</ele>
        <time>2022-10-02T10:57:31Z</time>
      </trkpt>
      <trkpt lat="47.44433" lon="8.16366">
        <ele>350.9</ele>
        <time>2022-10-02T10:57:32Z</time>
      </trkpt>
      <trkpt lat="47.44436" lon="8.16365">
        <ele>351</ele>
        <time>2022-10-02T10:57:33Z</time>
      </trkpt>
      <trkpt lat="47.4444" lon="8.16364">
        <ele>351.1</ele>
        <time>2022-10-02T10:57:34Z</time>
      </trkpt>
      <trkpt lat="47.44444" lon="8.16362">
        <ele>351.2</ele>
        <time>2022-10-02T10:57:35Z</time>
      </trkpt>
      <trkpt lat="47.44448" lon="8.16361">
        <ele>351.3</ele>
        <time>2022-10-02T10:57:36Z</time>
      </trkpt>
      <trkpt lat="47.44451" lon="8.1636">
        <ele>351.5</ele>
        <time>2022-10-02T10:57:37Z</time>
      </trkpt>
      <trkpt lat="47.44455" lon="8.16361">
        <ele>351.6</ele>
        <time>2022-10-02T10:57:38Z</time>
      </trkpt>
      <trkpt lat="47.44456" lon="8.16359">
        <ele>351.7</ele>
        <time>2022-10-02T10:57:39Z</time>
      </trkpt>
      <trkpt lat="47.44459" lon="8.16358">
        <ele>351.8</ele>
        <time>2022-10-02T10:57:40Z</time>
      </trkpt>
      <trkpt lat="47.44463" lon="8.16356">
        <ele>352</ele>
        <time>2022-10-02T10:57:41Z</time>
      </trkpt>
      <trkpt lat="47.44464" lon="8.16355">
        <ele>352</ele>
        <time>2022-10-02T10:57:42Z</time>
      </trkpt>
      <trkpt lat="47.44468" lon="8.16354">
        <ele>352.2</ele>
        <time>2022-10-02T10:57:43Z</time>
      </trkpt>
      <trkpt lat="47.4447" lon="8.16354">
        <ele>352.3</ele>
        <time>2022-10-02T10:57:44Z</time>
      </trkpt>
      <trkpt lat="47.44473" lon="8.16352">
        <ele>352.4</ele>
        <time>2022-10-02T10:57:45Z</time>
      </trkpt>
      <trkpt lat="47.44474" lon="8.16351">
        <ele>352.6</ele>
        <time>2022-10-02T10:57:46Z</time>
      </trkpt>
      <trkpt lat="47.44476" lon="8.16349">
        <ele>352.6</ele>
        <time>2022-10-02T10:57:47Z</time>
      </trkpt>
      <trkpt lat="47.44477" lon="8.16349">
        <ele>352.6</ele>
        <time>2022-10-02T10:57:48Z</time>
      </trkpt>
      <trkpt lat="47.44479" lon="8.16348">
        <ele>352.6</ele>
        <time>2022-10-02T10:57:49Z</time>
      </trkpt>
      <trkpt lat="47.44481" lon="8.16348">
        <ele>352.6</ele>
        <time>2022-10-02T10:57:50Z</time>
      </trkpt>
      <trkpt lat="47.44481" lon="8.16352">
        <ele>352.6</ele>
        <time>2022-10-02T10:57:51Z</time>
      </trkpt>
      <trkpt lat="47.44481" lon="8.16353">
        <ele>352.7</ele>
        <time>2022-10-02T10:57:52Z</time>
      </trkpt>
      <trkpt lat="47.44481" lon="8.16354">
        <ele>352.7</ele>
        <time>2022-10-02T10:57:53Z</time>
      </trkpt>
      <trkpt lat="47.44481" lon="8.16359">
        <ele>352.7</ele>
        <time>2022-10-02T10:57:54Z</time>
      </trkpt>
      <trkpt lat="47.4448" lon="8.1636">
        <ele>352.7</ele>
        <time>2022-10-02T10:57:55Z</time>
      </trkpt>
      <trkpt lat="47.4448" lon="8.16365">
        <ele>352.7</ele>
        <time>2022-10-02T10:57:56Z</time>
      </trkpt>
      <trkpt lat="47.44479" lon="8.16367">
        <ele>352.8</ele>
        <time>2022-10-02T10:57:57Z</time>
      </trkpt>
      <trkpt lat="47.4448" lon="8.16371">
        <ele>352.8</ele>
        <time>2022-10-02T10:57:58Z</time>
      </trkpt>
      <trkpt lat="47.4448" lon="8.16375">
        <ele>352.8</ele>
        <time>2022-10-02T10:57:59Z</time>
      </trkpt>
      <trkpt lat="47.44481" lon="8.1638">
        <ele>352.8</ele>
        <time>2022-10-02T10:58:00Z</time>
      </trkpt>
      <trkpt lat="47.44481" lon="8.16385">
        <ele>352.8</ele>
        <time>2022-10-02T10:58:01Z</time>
      </trkpt>
      <trkpt lat="47.4448" lon="8.1639">
        <ele>352.9</ele>
        <time>2022-10-02T10:58:02Z</time>
      </trkpt>
      <trkpt lat="47.4448" lon="8.16395">
        <ele>352.9</ele>
        <time>2022-10-02T10:58:03Z</time>
      </trkpt>
      <trkpt lat="47.4448" lon="8.16401">
        <ele>352.9</ele>
        <time>2022-10-02T10:58:04Z</time>
      </trkpt>
      <trkpt lat="47.4448" lon="8.16406">
        <ele>352.9</ele>
        <time>2022-10-02T10:58:05Z</time>
      </trkpt>
      <trkpt lat="47.4448" lon="8.16412">
        <ele>352.9</ele>
        <time>2022-10-02T10:58:06Z</time>
      </trkpt>
      <trkpt lat="47.4448" lon="8.16417">
        <ele>353</ele>
        <time>2022-10-02T10:58:07Z</time>
      </trkpt>
      <trkpt lat="47.4448" lon="8.16423">
        <ele>353</ele>
        <time>2022-10-02T10:58:08Z</time>
      </trkpt>
      <trkpt lat="47.4448" lon="8.16429">
        <ele>353</ele>
        <time>2022-10-02T10:58:09Z</time>
      </trkpt>
      <trkpt lat="47.4448" lon="8.16435">
        <ele>353</ele>
        <time>2022-10-02T10:58:11Z</time>
      </trkpt>
      <trkpt lat="47.4448" lon="8.1644">
        <ele>353.1</ele>
        <time>2022-10-02T10:58:12Z</time>
      </trkpt>
      <trkpt lat="47.4448" lon="8.16445">
        <ele>353.1</ele>
        <time>2022-10-02T10:58:13Z</time>
      </trkpt>
      <trkpt lat="47.4448" lon="8.16452">
        <ele>353.1</ele>
        <time>2022-10-02T10:58:14Z</time>
      </trkpt>
      <trkpt lat="47.4448" lon="8.16458">
        <ele>353.2</ele>
        <time>2022-10-02T10:58:15Z</time>
      </trkpt>
      <trkpt lat="47.44479" lon="8.16464">
        <ele>353.2</ele>
        <time>2022-10-02T10:58:16Z</time>
      </trkpt>
      <trkpt lat="47.44479" lon="8.1647">
        <ele>353.3</ele>
        <time>2022-10-02T10:58:17Z</time>
      </trkpt>
      <trkpt lat="47.4448" lon="8.16475">
        <ele>353.3</ele>
        <time>2022-10-02T10:58:18Z</time>
      </trkpt>
      <trkpt lat="47.44479" lon="8.16482">
        <ele>353.3</ele>
        <time>2022-10-02T10:58:19Z</time>
      </trkpt>
      <trkpt lat="47.44479" lon="8.16488">
        <ele>353.4</ele>
        <time>2022-10-02T10:58:20Z</time>
      </trkpt>
      <trkpt lat="47.44479" lon="8.16494">
        <ele>353.4</ele>
        <time>2022-10-02T10:58:21Z</time>
      </trkpt>
      <trkpt lat="47.44479" lon="8.165">
        <ele>353.4</ele>
        <time>2022-10-02T10:58:22Z</time>
      </trkpt>
      <trkpt lat="47.44479" lon="8.16506">
        <ele>353.5</ele>
        <time>2022-10-02T10:58:23Z</time>
      </trkpt>
      <trkpt lat="47.4448" lon="8.16512">
        <ele>353.5</ele>
        <time>2022-10-02T10:58:24Z</time>
      </trkpt>
      <trkpt lat="47.4448" lon="8.16518">
        <ele>353.6</ele>
        <time>2022-10-02T10:58:25Z</time>
      </trkpt>
      <trkpt lat="47.44479" lon="8.16524">
        <ele>353.7</ele>
        <time>2022-10-02T10:58:26Z</time>
      </trkpt>
      <trkpt lat="47.44479" lon="8.1653">
        <ele>353.7</ele>
        <time>2022-10-02T10:58:27Z</time>
      </trkpt>
      <trkpt lat="47.44479" lon="8.16535">
        <ele>353.8</ele>
        <time>2022-10-02T10:58:28Z</time>
      </trkpt>
      <trkpt lat="47.44479" lon="8.1654">
        <ele>353.8</ele>
        <time>2022-10-02T10:58:29Z</time>
      </trkpt>
      <trkpt lat="47.4448" lon="8.16545">
        <ele>353.8</ele>
        <time>2022-10-02T10:58:30Z</time>
      </trkpt>
      <trkpt lat="47.44481" lon="8.16547">
        <ele>353.8</ele>
        <time>2022-10-02T10:58:31Z</time>
      </trkpt>
      <trkpt lat="47.44481" lon="8.16549">
        <ele>353.8</ele>
        <time>2022-10-02T10:58:32Z</time>
      </trkpt>
      <trkpt lat="47.44484" lon="8.16551">
        <ele>353.6</ele>
        <time>2022-10-02T10:58:33Z</time>
      </trkpt>
      <trkpt lat="47.44487" lon="8.16552">
        <ele>353.5</ele>
        <time>2022-10-02T10:58:34Z</time>
      </trkpt>
      <trkpt lat="47.44489" lon="8.16552">
        <ele>353.4</ele>
        <time>2022-10-02T10:58:35Z</time>
      </trkpt>
      <trkpt lat="47.44492" lon="8.16552">
        <ele>353.3</ele>
        <time>2022-10-02T10:58:36Z</time>
      </trkpt>
      <trkpt lat="47.44495" lon="8.1655">
        <ele>353.2</ele>
        <time>2022-10-02T10:58:37Z</time>
      </trkpt>
      <trkpt lat="47.44499" lon="8.16549">
        <ele>353.1</ele>
        <time>2022-10-02T10:58:38Z</time>
      </trkpt>
      <trkpt lat="47.44502" lon="8.16548">
        <ele>352.9</ele>
        <time>2022-10-02T10:58:39Z</time>
      </trkpt>
      <trkpt lat="47.44506" lon="8.16546">
        <ele>352.7</ele>
        <time>2022-10-02T10:58:40Z</time>
      </trkpt>
      <trkpt lat="47.4451" lon="8.16545">
        <ele>352.5</ele>
        <time>2022-10-02T10:58:41Z</time>
      </trkpt>
      <trkpt lat="47.44515" lon="8.16543">
        <ele>352.3</ele>
        <time>2022-10-02T10:58:42Z</time>
      </trkpt>
      <trkpt lat="47.44519" lon="8.16541">
        <ele>352.1</ele>
        <time>2022-10-02T10:58:43Z</time>
      </trkpt>
      <trkpt lat="47.44524" lon="8.16539">
        <ele>351.9</ele>
        <time>2022-10-02T10:58:44Z</time>
      </trkpt>
      <trkpt lat="47.44529" lon="8.16537">
        <ele>351.7</ele>
        <time>2022-10-02T10:58:45Z</time>
      </trkpt>
      <trkpt lat="47.44534" lon="8.16535">
        <ele>351.6</ele>
        <time>2022-10-02T10:58:46Z</time>
      </trkpt>
      <trkpt lat="47.44539" lon="8.16533">
        <ele>351.4</ele>
        <time>2022-10-02T10:58:47Z</time>
      </trkpt>
      <trkpt lat="47.44544" lon="8.16531">
        <ele>351.4</ele>
        <time>2022-10-02T10:58:48Z</time>
      </trkpt>
      <trkpt lat="47.44549" lon="8.1653">
        <ele>351.3</ele>
        <time>2022-10-02T10:58:49Z</time>
      </trkpt>
      <trkpt lat="47.44553" lon="8.16529">
        <ele>351.2</ele>
        <time>2022-10-02T10:58:50Z</time>
      </trkpt>
      <trkpt lat="47.44559" lon="8.16529">
        <ele>351.2</ele>
        <time>2022-10-02T10:58:51Z</time>
      </trkpt>
      <trkpt lat="47.44567" lon="8.16529">
        <ele>351.1</ele>
        <time>2022-10-02T10:58:52Z</time>
      </trkpt>
      <trkpt lat="47.44572" lon="8.16528">
        <ele>351</ele>
        <time>2022-10-02T10:58:53Z</time>
      </trkpt>
      <trkpt lat="47.44577" lon="8.16527">
        <ele>351</ele>
        <time>2022-10-02T10:58:54Z</time>
      </trkpt>
      <trkpt lat="47.44582" lon="8.16526">
        <ele>351</ele>
        <time>2022-10-02T10:58:55Z</time>
      </trkpt>
      <trkpt lat="47.44586" lon="8.16526">
        <ele>351</ele>
        <time>2022-10-02T10:58:56Z</time>
      </trkpt>
      <trkpt lat="47.44592" lon="8.16525">
        <ele>350.9</ele>
        <time>2022-10-02T10:58:57Z</time>
      </trkpt>
      <trkpt lat="47.44597" lon="8.16524">
        <ele>350.9</ele>
        <time>2022-10-02T10:58:58Z</time>
      </trkpt>
      <trkpt lat="47.44601" lon="8.16522">
        <ele>350.9</ele>
        <time>2022-10-02T10:58:59Z</time>
      </trkpt>
      <trkpt lat="47.44606" lon="8.16523">
        <ele>350.9</ele>
        <time>2022-10-02T10:59:00Z</time>
      </trkpt>
      <trkpt lat="47.44612" lon="8.16522">
        <ele>350.9</ele>
        <time>2022-10-02T10:59:01Z</time>
      </trkpt>
      <trkpt lat="47.44617" lon="8.16522">
        <ele>350.9</ele>
        <time>2022-10-02T10:59:02Z</time>
      </trkpt>
      <trkpt lat="47.44623" lon="8.16521">
        <ele>350.9</ele>
        <time>2022-10-02T10:59:03Z</time>
      </trkpt>
      <trkpt lat="47.44628" lon="8.16521">
        <ele>350.9</ele>
        <time>2022-10-02T10:59:04Z</time>
      </trkpt>
      <trkpt lat="47.44633" lon="8.16521">
        <ele>350.9</ele>
        <time>2022-10-02T10:59:05Z</time>
      </trkpt>
      <trkpt lat="47.44638" lon="8.1652">
        <ele>350.9</ele>
        <time>2022-10-02T10:59:06Z</time>
      </trkpt>
      <trkpt lat="47.44643" lon="8.1652">
        <ele>350.9</ele>
        <time>2022-10-02T10:59:07Z</time>
      </trkpt>
      <trkpt lat="47.4465" lon="8.16519">
        <ele>350.9</ele>
        <time>2022-10-02T10:59:08Z</time>
      </trkpt>
      <trkpt lat="47.44655" lon="8.16519">
        <ele>350.9</ele>
        <time>2022-10-02T10:59:09Z</time>
      </trkpt>
      <trkpt lat="47.4466" lon="8.16518">
        <ele>350.9</ele>
        <time>2022-10-02T10:59:10Z</time>
      </trkpt>
      <trkpt lat="47.44666" lon="8.16518">
        <ele>350.9</ele>
        <time>2022-10-02T10:59:11Z</time>
      </trkpt>
      <trkpt lat="47.44672" lon="8.16517">
        <ele>350.9</ele>
        <time>2022-10-02T10:59:12Z</time>
      </trkpt>
      <trkpt lat="47.44677" lon="8.16516">
        <ele>350.9</ele>
        <time>2022-10-02T10:59:13Z</time>
      </trkpt>
      <trkpt lat="47.44683" lon="8.16515">
        <ele>350.9</ele>
        <time>2022-10-02T10:59:14Z</time>
      </trkpt>
      <trkpt lat="47.44689" lon="8.16515">
        <ele>350.9</ele>
        <time>2022-10-02T10:59:15Z</time>
      </trkpt>
      <trkpt lat="47.44694" lon="8.16514">
        <ele>350.9</ele>
        <time>2022-10-02T10:59:16Z</time>
      </trkpt>
      <trkpt lat="47.44699" lon="8.16514">
        <ele>350.9</ele>
        <time>2022-10-02T10:59:17Z</time>
      </trkpt>
      <trkpt lat="47.44705" lon="8.16513">
        <ele>350.9</ele>
        <time>2022-10-02T10:59:18Z</time>
      </trkpt>
      <trkpt lat="47.44711" lon="8.16512">
        <ele>350.8</ele>
        <time>2022-10-02T10:59:19Z</time>
      </trkpt>
      <trkpt lat="47.44716" lon="8.16512">
        <ele>350.8</ele>
        <time>2022-10-02T10:59:20Z</time>
      </trkpt>
      <trkpt lat="47.44723" lon="8.16512">
        <ele>350.8</ele>
        <time>2022-10-02T10:59:21Z</time>
      </trkpt>
      <trkpt lat="47.44729" lon="8.16511">
        <ele>350.8</ele>
        <time>2022-10-02T10:59:22Z</time>
      </trkpt>
      <trkpt lat="47.44734" lon="8.1651">
        <ele>350.8</ele>
        <time>2022-10-02T10:59:23Z</time>
      </trkpt>
      <trkpt lat="47.4474" lon="8.16509">
        <ele>350.8</ele>
        <time>2022-10-02T10:59:24Z</time>
      </trkpt>
      <trkpt lat="47.44746" lon="8.16509">
        <ele>350.8</ele>
        <time>2022-10-02T10:59:25Z</time>
      </trkpt>
      <trkpt lat="47.44752" lon="8.16508">
        <ele>350.8</ele>
        <time>2022-10-02T10:59:26Z</time>
      </trkpt>
      <trkpt lat="47.44758" lon="8.16508">
        <ele>350.8</ele>
        <time>2022-10-02T10:59:27Z</time>
      </trkpt>
      <trkpt lat="47.44763" lon="8.16507">
        <ele>350.8</ele>
        <time>2022-10-02T10:59:28Z</time>
      </trkpt>
      <trkpt lat="47.44769" lon="8.16506">
        <ele>350.8</ele>
        <time>2022-10-02T10:59:29Z</time>
      </trkpt>
      <trkpt lat="47.44775" lon="8.16505">
        <ele>350.8</ele>
        <time>2022-10-02T10:59:30Z</time>
      </trkpt>
      <trkpt lat="47.4478" lon="8.16504">
        <ele>350.8</ele>
        <time>2022-10-02T10:59:31Z</time>
      </trkpt>
      <trkpt lat="47.44786" lon="8.16503">
        <ele>350.8</ele>
        <time>2022-10-02T10:59:32Z</time>
      </trkpt>
      <trkpt lat="47.44792" lon="8.16502">
        <ele>350.8</ele>
        <time>2022-10-02T10:59:33Z</time>
      </trkpt>
      <trkpt lat="47.44798" lon="8.16502">
        <ele>350.8</ele>
        <time>2022-10-02T10:59:34Z</time>
      </trkpt>
      <trkpt lat="47.44803" lon="8.16501">
        <ele>350.8</ele>
        <time>2022-10-02T10:59:35Z</time>
      </trkpt>
      <trkpt lat="47.44809" lon="8.165">
        <ele>350.8</ele>
        <time>2022-10-02T10:59:36Z</time>
      </trkpt>
      <trkpt lat="47.44815" lon="8.16499">
        <ele>350.8</ele>
        <time>2022-10-02T10:59:37Z</time>
      </trkpt>
      <trkpt lat="47.44821" lon="8.16498">
        <ele>350.8</ele>
        <time>2022-10-02T10:59:38Z</time>
      </trkpt>
      <trkpt lat="47.44827" lon="8.16497">
        <ele>350.8</ele>
        <time>2022-10-02T10:59:39Z</time>
      </trkpt>
      <trkpt lat="47.44833" lon="8.16496">
        <ele>350.7</ele>
        <time>2022-10-02T10:59:40Z</time>
      </trkpt>
      <trkpt lat="47.44839" lon="8.16495">
        <ele>350.7</ele>
        <time>2022-10-02T10:59:41Z</time>
      </trkpt>
      <trkpt lat="47.44844" lon="8.16495">
        <ele>350.7</ele>
        <time>2022-10-02T10:59:42Z</time>
      </trkpt>
      <trkpt lat="47.4485" lon="8.16493">
        <ele>350.7</ele>
        <time>2022-10-02T10:59:43Z</time>
      </trkpt>
      <trkpt lat="47.44855" lon="8.16492">
        <ele>350.7</ele>
        <time>2022-10-02T10:59:44Z</time>
      </trkpt>
      <trkpt lat="47.44861" lon="8.16491">
        <ele>350.7</ele>
        <time>2022-10-02T10:59:45Z</time>
      </trkpt>
      <trkpt lat="47.44866" lon="8.16489">
        <ele>350.7</ele>
        <time>2022-10-02T10:59:46Z</time>
      </trkpt>
      <trkpt lat="47.44872" lon="8.16488">
        <ele>350.7</ele>
        <time>2022-10-02T10:59:47Z</time>
      </trkpt>
      <trkpt lat="47.44878" lon="8.16487">
        <ele>350.7</ele>
        <time>2022-10-02T10:59:48Z</time>
      </trkpt>
      <trkpt lat="47.44883" lon="8.16485">
        <ele>350.7</ele>
        <time>2022-10-02T10:59:49Z</time>
      </trkpt>
      <trkpt lat="47.44888" lon="8.16484">
        <ele>350.7</ele>
        <time>2022-10-02T10:59:50Z</time>
      </trkpt>
      <trkpt lat="47.44893" lon="8.16484">
        <ele>350.7</ele>
        <time>2022-10-02T10:59:51Z</time>
      </trkpt>
      <trkpt lat="47.44898" lon="8.16483">
        <ele>350.7</ele>
        <time>2022-10-02T10:59:52Z</time>
      </trkpt>
      <trkpt lat="47.44904" lon="8.16482">
        <ele>350.7</ele>
        <time>2022-10-02T10:59:53Z</time>
      </trkpt>
      <trkpt lat="47.44909" lon="8.1648">
        <ele>350.7</ele>
        <time>2022-10-02T10:59:54Z</time>
      </trkpt>
      <trkpt lat="47.44915" lon="8.1648">
        <ele>350.7</ele>
        <time>2022-10-02T10:59:55Z</time>
      </trkpt>
      <trkpt lat="47.4492" lon="8.16479">
        <ele>350.7</ele>
        <time>2022-10-02T10:59:56Z</time>
      </trkpt>
      <trkpt lat="47.44925" lon="8.16478">
        <ele>350.7</ele>
        <time>2022-10-02T10:59:57Z</time>
      </trkpt>
      <trkpt lat="47.44931" lon="8.16477">
        <ele>350.6</ele>
        <time>2022-10-02T10:59:58Z</time>
      </trkpt>
      <trkpt lat="47.44936" lon="8.16476">
        <ele>350.6</ele>
        <time>2022-10-02T10:59:59Z</time>
      </trkpt>
      <trkpt lat="47.44942" lon="8.16473">
        <ele>350.6</ele>
        <time>2022-10-02T11:00:00Z</time>
      </trkpt>
      <trkpt lat="47.44947" lon="8.16473">
        <ele>350.6</ele>
        <time>2022-10-02T11:00:01Z</time>
      </trkpt>
      <trkpt lat="47.44952" lon="8.16473">
        <ele>350.6</ele>
        <time>2022-10-02T11:00:02Z</time>
      </trkpt>
      <trkpt lat="47.44958" lon="8.16471">
        <ele>350.6</ele>
        <time>2022-10-02T11:00:03Z</time>
      </trkpt>
      <trkpt lat="47.44963" lon="8.1647">
        <ele>350.6</ele>
        <time>2022-10-02T11:00:04Z</time>
      </trkpt>
      <trkpt lat="47.44968" lon="8.1647">
        <ele>350.6</ele>
        <time>2022-10-02T11:00:05Z</time>
      </trkpt>
      <trkpt lat="47.44974" lon="8.16468">
        <ele>350.6</ele>
        <time>2022-10-02T11:00:06Z</time>
      </trkpt>
      <trkpt lat="47.44979" lon="8.16467">
        <ele>350.6</ele>
        <time>2022-10-02T11:00:07Z</time>
      </trkpt>
      <trkpt lat="47.44984" lon="8.16466">
        <ele>350.6</ele>
        <time>2022-10-02T11:00:08Z</time>
      </trkpt>
      <trkpt lat="47.44989" lon="8.16465">
        <ele>350.6</ele>
        <time>2022-10-02T11:00:09Z</time>
      </trkpt>
      <trkpt lat="47.44995" lon="8.16465">
        <ele>350.6</ele>
        <time>2022-10-02T11:00:10Z</time>
      </trkpt>
      <trkpt lat="47.45" lon="8.16464">
        <ele>350.6</ele>
        <time>2022-10-02T11:00:11Z</time>
      </trkpt>
      <trkpt lat="47.45005" lon="8.16462">
        <ele>350.6</ele>
        <time>2022-10-02T11:00:12Z</time>
      </trkpt>
      <trkpt lat="47.4501" lon="8.16462">
        <ele>350.6</ele>
        <time>2022-10-02T11:00:13Z</time>
      </trkpt>
      <trkpt lat="47.45015" lon="8.1646">
        <ele>350.6</ele>
        <time>2022-10-02T11:00:14Z</time>
      </trkpt>
      <trkpt lat="47.45021" lon="8.16459">
        <ele>350.6</ele>
        <time>2022-10-02T11:00:15Z</time>
      </trkpt>
      <trkpt lat="47.45026" lon="8.16458">
        <ele>350.6</ele>
        <time>2022-10-02T11:00:17Z</time>
      </trkpt>
      <trkpt lat="47.45031" lon="8.16456">
        <ele>350.6</ele>
        <time>2022-10-02T11:00:18Z</time>
      </trkpt>
      <trkpt lat="47.45036" lon="8.16455">
        <ele>350.6</ele>
        <time>2022-10-02T11:00:19Z</time>
      </trkpt>
      <trkpt lat="47.45042" lon="8.16454">
        <ele>350.6</ele>
        <time>2022-10-02T11:00:20Z</time>
      </trkpt>
      <trkpt lat="47.45047" lon="8.16453">
        <ele>350.6</ele>
        <time>2022-10-02T11:00:21Z</time>
      </trkpt>
      <trkpt lat="47.45052" lon="8.16452">
        <ele>350.6</ele>
        <time>2022-10-02T11:00:22Z</time>
      </trkpt>
      <trkpt lat="47.45057" lon="8.16451">
        <ele>350.6</ele>
        <time>2022-10-02T11:00:23Z</time>
      </trkpt>
      <trkpt lat="47.45062" lon="8.16451">
        <ele>350.6</ele>
        <time>2022-10-02T11:00:24Z</time>
      </trkpt>
      <trkpt lat="47.45067" lon="8.16448">
        <ele>350.6</ele>
        <time>2022-10-02T11:00:25Z</time>
      </trkpt>
      <trkpt lat="47.45072" lon="8.16447">
        <ele>350.6</ele>
        <time>2022-10-02T11:00:26Z</time>
      </trkpt>
      <trkpt lat="47.45077" lon="8.16445">
        <ele>350.6</ele>
        <time>2022-10-02T11:00:27Z</time>
      </trkpt>
      <trkpt lat="47.45081" lon="8.16445">
        <ele>350.6</ele>
        <time>2022-10-02T11:00:28Z</time>
      </trkpt>
      <trkpt lat="47.45085" lon="8.16445">
        <ele>350.6</ele>
        <time>2022-10-02T11:00:29Z</time>
      </trkpt>
      <trkpt lat="47.4509" lon="8.16444">
        <ele>350.7</ele>
        <time>2022-10-02T11:00:30Z</time>
      </trkpt>
      <trkpt lat="47.45093" lon="8.16443">
        <ele>350.7</ele>
        <time>2022-10-02T11:00:31Z</time>
      </trkpt>
      <trkpt lat="47.45097" lon="8.16443">
        <ele>350.7</ele>
        <time>2022-10-02T11:00:32Z</time>
      </trkpt>
      <trkpt lat="47.451" lon="8.16444">
        <ele>350.8</ele>
        <time>2022-10-02T11:00:33Z</time>
      </trkpt>
      <trkpt lat="47.45103" lon="8.16441">
        <ele>350.8</ele>
        <time>2022-10-02T11:00:34Z</time>
      </trkpt>
      <trkpt lat="47.45104" lon="8.1644">
        <ele>350.8</ele>
        <time>2022-10-02T11:00:35Z</time>
      </trkpt>
      <trkpt lat="47.45103" lon="8.16441">
        <ele>350.8</ele>
        <time>2022-10-02T11:00:36Z</time>
      </trkpt>
      <trkpt lat="47.45103" lon="8.16441">
        <ele>350.8</ele>
        <time>2022-10-02T11:00:37Z</time>
      </trkpt>
      <trkpt lat="47.45103" lon="8.16441">
        <ele>350.8</ele>
        <time>2022-10-02T11:00:38Z</time>
      </trkpt>
      <trkpt lat="47.45103" lon="8.16441">
        <ele>350.8</ele>
        <time>2022-10-02T11:00:39Z</time>
      </trkpt>
      <trkpt lat="47.45104" lon="8.1644">
        <ele>350.8</ele>
        <time>2022-10-02T11:00:40Z</time>
      </trkpt>
      <trkpt lat="47.45104" lon="8.16439">
        <ele>350.8</ele>
        <time>2022-10-02T11:00:41Z</time>
      </trkpt>
      <trkpt lat="47.45104" lon="8.16438">
        <ele>350.8</ele>
        <time>2022-10-02T11:00:42Z</time>
      </trkpt>
      <trkpt lat="47.45104" lon="8.16436">
        <ele>350.8</ele>
        <time>2022-10-02T11:00:43Z</time>
      </trkpt>
      <trkpt lat="47.45104" lon="8.16435">
        <ele>350.8</ele>
        <time>2022-10-02T11:00:44Z</time>
      </trkpt>
      <trkpt lat="47.451" lon="8.16438">
        <ele>350.8</ele>
        <time>2022-10-02T11:24:21Z</time>
      </trkpt>
      <trkpt lat="47.451" lon="8.1644">
        <ele>350.8</ele>
        <time>2022-10-02T11:24:22Z</time>
      </trkpt>
      <trkpt lat="47.45101" lon="8.16441">
        <ele>350.8</ele>
        <time>2022-10-02T11:24:23Z</time>
      </trkpt>
      <trkpt lat="47.45101" lon="8.16442">
        <ele>350.8</ele>
        <time>2022-10-02T11:24:24Z</time>
      </trkpt>
      <trkpt lat="47.45102" lon="8.1644">
        <ele>350.8</ele>
        <time>2022-10-02T11:24:25Z</time>
      </trkpt>
      <trkpt lat="47.45102" lon="8.1644">
        <ele>350.8</ele>
        <time>2022-10-02T11:24:26Z</time>
      </trkpt>
      <trkpt lat="47.45104" lon="8.16441">
        <ele>350.8</ele>
        <time>2022-10-02T11:24:27Z</time>
      </trkpt>
      <trkpt lat="47.45104" lon="8.16441">
        <ele>350.8</ele>
        <time>2022-10-02T11:24:28Z</time>
      </trkpt>
      <trkpt lat="47.45105" lon="8.16441">
        <ele>350.8</ele>
        <time>2022-10-02T11:24:29Z</time>
      </trkpt>
      <trkpt lat="47.45106" lon="8.16441">
        <ele>350.7</ele>
        <time>2022-10-02T11:24:30Z</time>
      </trkpt>
      <trkpt lat="47.45107" lon="8.16441">
        <ele>350.7</ele>
        <time>2022-10-02T11:24:31Z</time>
      </trkpt>
      <trkpt lat="47.45107" lon="8.16441">
        <ele>350.7</ele>
        <time>2022-10-02T11:24:32Z</time>
      </trkpt>
      <trkpt lat="47.45108" lon="8.1644">
        <ele>350.7</ele>
        <time>2022-10-02T11:24:33Z</time>
      </trkpt>
      <trkpt lat="47.45109" lon="8.1644">
        <ele>350.7</ele>
        <time>2022-10-02T11:24:34Z</time>
      </trkpt>
      <trkpt lat="47.4511" lon="8.1644">
        <ele>350.7</ele>
        <time>2022-10-02T11:24:35Z</time>
      </trkpt>
      <trkpt lat="47.45111" lon="8.1644">
        <ele>350.7</ele>
        <time>2022-10-02T11:24:36Z</time>
      </trkpt>
      <trkpt lat="47.45111" lon="8.1644">
        <ele>350.7</ele>
        <time>2022-10-02T11:24:37Z</time>
      </trkpt>
      <trkpt lat="47.45112" lon="8.1644">
        <ele>350.7</ele>
        <time>2022-10-02T11:24:38Z</time>
      </trkpt>
      <trkpt lat="47.45113" lon="8.1644">
        <ele>350.7</ele>
        <time>2022-10-02T11:24:39Z</time>
      </trkpt>
      <trkpt lat="47.45116" lon="8.16439">
        <ele>350.7</ele>
        <time>2022-10-02T11:24:40Z</time>
      </trkpt>
      <trkpt lat="47.45119" lon="8.16437">
        <ele>350.7</ele>
        <time>2022-10-02T11:24:41Z</time>
      </trkpt>
      <trkpt lat="47.45121" lon="8.16436">
        <ele>350.7</ele>
        <time>2022-10-02T11:24:42Z</time>
      </trkpt>
      <trkpt lat="47.45123" lon="8.16434">
        <ele>350.7</ele>
        <time>2022-10-02T11:24:43Z</time>
      </trkpt>
      <trkpt lat="47.45126" lon="8.16431">
        <ele>350.7</ele>
        <time>2022-10-02T11:24:44Z</time>
      </trkpt>
      <trkpt lat="47.45129" lon="8.16428">
        <ele>350.7</ele>
        <time>2022-10-02T11:24:45Z</time>
      </trkpt>
      <trkpt lat="47.45132" lon="8.16424">
        <ele>350.7</ele>
        <time>2022-10-02T11:24:46Z</time>
      </trkpt>
      <trkpt lat="47.45134" lon="8.1642">
        <ele>350.7</ele>
        <time>2022-10-02T11:24:47Z</time>
      </trkpt>
      <trkpt lat="47.45135" lon="8.16416">
        <ele>350.8</ele>
        <time>2022-10-02T11:24:48Z</time>
      </trkpt>
      <trkpt lat="47.45135" lon="8.1641">
        <ele>350.8</ele>
        <time>2022-10-02T11:24:49Z</time>
      </trkpt>
      <trkpt lat="47.45135" lon="8.16408">
        <ele>350.8</ele>
        <time>2022-10-02T11:24:50Z</time>
      </trkpt>
      <trkpt lat="47.45136" lon="8.16402">
        <ele>350.8</ele>
        <time>2022-10-02T11:24:51Z</time>
      </trkpt>
      <trkpt lat="47.45133" lon="8.16401">
        <ele>350.7</ele>
        <time>2022-10-02T11:24:52Z</time>
      </trkpt>
      <trkpt lat="47.45135" lon="8.16394">
        <ele>350.7</ele>
        <time>2022-10-02T11:24:53Z</time>
      </trkpt>
      <trkpt lat="47.45136" lon="8.16387">
        <ele>350.7</ele>
        <time>2022-10-02T11:24:54Z</time>
      </trkpt>
      <trkpt lat="47.45135" lon="8.1638">
        <ele>350.7</ele>
        <time>2022-10-02T11:24:55Z</time>
      </trkpt>
      <trkpt lat="47.45135" lon="8.16374">
        <ele>350.7</ele>
        <time>2022-10-02T11:24:56Z</time>
      </trkpt>
      <trkpt lat="47.45135" lon="8.16367">
        <ele>350.7</ele>
        <time>2022-10-02T11:24:57Z</time>
      </trkpt>
      <trkpt lat="47.45135" lon="8.1636">
        <ele>350.7</ele>
        <time>2022-10-02T11:24:58Z</time>
      </trkpt>
      <trkpt lat="47.45135" lon="8.16354">
        <ele>350.7</ele>
        <time>2022-10-02T11:24:59Z</time>
      </trkpt>
      <trkpt lat="47.45134" lon="8.16347">
        <ele>350.7</ele>
        <time>2022-10-02T11:25:00Z</time>
      </trkpt>
      <trkpt lat="47.45134" lon="8.1634">
        <ele>350.7</ele>
        <time>2022-10-02T11:25:01Z</time>
      </trkpt>
      <trkpt lat="47.45134" lon="8.16333">
        <ele>350.7</ele>
        <time>2022-10-02T11:25:02Z</time>
      </trkpt>
      <trkpt lat="47.45134" lon="8.16327">
        <ele>350.7</ele>
        <time>2022-10-02T11:25:03Z</time>
      </trkpt>
      <trkpt lat="47.45134" lon="8.16321">
        <ele>350.7</ele>
        <time>2022-10-02T11:25:04Z</time>
      </trkpt>
      <trkpt lat="47.45134" lon="8.16315">
        <ele>350.8</ele>
        <time>2022-10-02T11:25:05Z</time>
      </trkpt>
      <trkpt lat="47.45133" lon="8.16309">
        <ele>350.8</ele>
        <time>2022-10-02T11:25:06Z</time>
      </trkpt>
      <trkpt lat="47.45134" lon="8.16305">
        <ele>350.8</ele>
        <time>2022-10-02T11:25:07Z</time>
      </trkpt>
      <trkpt lat="47.45134" lon="8.163">
        <ele>350.8</ele>
        <time>2022-10-02T11:25:08Z</time>
      </trkpt>
      <trkpt lat="47.45135" lon="8.16297">
        <ele>350.7</ele>
        <time>2022-10-02T11:25:09Z</time>
      </trkpt>
      <trkpt lat="47.45136" lon="8.16293">
        <ele>350.7</ele>
        <time>2022-10-02T11:25:10Z</time>
      </trkpt>
      <trkpt lat="47.45139" lon="8.1629">
        <ele>350.7</ele>
        <time>2022-10-02T11:25:11Z</time>
      </trkpt>
      <trkpt lat="47.4514" lon="8.16289">
        <ele>350.7</ele>
        <time>2022-10-02T11:25:12Z</time>
      </trkpt>
      <trkpt lat="47.45144" lon="8.16286">
        <ele>350.7</ele>
        <time>2022-10-02T11:25:13Z</time>
      </trkpt>
      <trkpt lat="47.45147" lon="8.16283">
        <ele>350.7</ele>
        <time>2022-10-02T11:25:14Z</time>
      </trkpt>
      <trkpt lat="47.4515" lon="8.1628">
        <ele>350.6</ele>
        <time>2022-10-02T11:25:15Z</time>
      </trkpt>
      <trkpt lat="47.45153" lon="8.16277">
        <ele>350.6</ele>
        <time>2022-10-02T11:25:16Z</time>
      </trkpt>
      <trkpt lat="47.45156" lon="8.16275">
        <ele>350.6</ele>
        <time>2022-10-02T11:25:17Z</time>
      </trkpt>
      <trkpt lat="47.45159" lon="8.16272">
        <ele>350.6</ele>
        <time>2022-10-02T11:25:18Z</time>
      </trkpt>
      <trkpt lat="47.45162" lon="8.16268">
        <ele>350.5</ele>
        <time>2022-10-02T11:25:19Z</time>
      </trkpt>
      <trkpt lat="47.45165" lon="8.16265">
        <ele>350.5</ele>
        <time>2022-10-02T11:25:20Z</time>
      </trkpt>
      <trkpt lat="47.4517" lon="8.16262">
        <ele>350.5</ele>
        <time>2022-10-02T11:25:21Z</time>
      </trkpt>
      <trkpt lat="47.45172" lon="8.16259">
        <ele>350.4</ele>
        <time>2022-10-02T11:25:22Z</time>
      </trkpt>
      <trkpt lat="47.45176" lon="8.16258">
        <ele>350.4</ele>
        <time>2022-10-02T11:25:23Z</time>
      </trkpt>
      <trkpt lat="47.4518" lon="8.16255">
        <ele>350.4</ele>
        <time>2022-10-02T11:25:24Z</time>
      </trkpt>
      <trkpt lat="47.45183" lon="8.16252">
        <ele>350.3</ele>
        <time>2022-10-02T11:25:25Z</time>
      </trkpt>
      <trkpt lat="47.45187" lon="8.16249">
        <ele>350.3</ele>
        <time>2022-10-02T11:25:26Z</time>
      </trkpt>
      <trkpt lat="47.4519" lon="8.16247">
        <ele>350.2</ele>
        <time>2022-10-02T11:25:27Z</time>
      </trkpt>
      <trkpt lat="47.45194" lon="8.16244">
        <ele>350.1</ele>
        <time>2022-10-02T11:25:29Z</time>
      </trkpt>
      <trkpt lat="47.45197" lon="8.16242">
        <ele>350</ele>
        <time>2022-10-02T11:25:30Z</time>
      </trkpt>
      <trkpt lat="47.45201" lon="8.16239">
        <ele>349.8</ele>
        <time>2022-10-02T11:25:31Z</time>
      </trkpt>
      <trkpt lat="47.45205" lon="8.16236">
        <ele>349.7</ele>
        <time>2022-10-02T11:25:32Z</time>
      </trkpt>
      <trkpt lat="47.45209" lon="8.16234">
        <ele>349.5</ele>
        <time>2022-10-02T11:25:33Z</time>
      </trkpt>
      <trkpt lat="47.45213" lon="8.16231">
        <ele>349.3</ele>
        <time>2022-10-02T11:25:34Z</time>
      </trkpt>
      <trkpt lat="47.45218" lon="8.16227">
        <ele>349.1</ele>
        <time>2022-10-02T11:25:35Z</time>
      </trkpt>
      <trkpt lat="47.4522" lon="8.16225">
        <ele>349</ele>
        <time>2022-10-02T11:25:36Z</time>
      </trkpt>
      <trkpt lat="47.45225" lon="8.16222">
        <ele>348.8</ele>
        <time>2022-10-02T11:25:37Z</time>
      </trkpt>
      <trkpt lat="47.4523" lon="8.16219">
        <ele>348.6</ele>
        <time>2022-10-02T11:25:38Z</time>
      </trkpt>
      <trkpt lat="47.45234" lon="8.16219">
        <ele>348.4</ele>
        <time>2022-10-02T11:25:39Z</time>
      </trkpt>
      <trkpt lat="47.45238" lon="8.16214">
        <ele>348.2</ele>
        <time>2022-10-02T11:25:40Z</time>
      </trkpt>
      <trkpt lat="47.45242" lon="8.16211">
        <ele>348</ele>
        <time>2022-10-02T11:25:41Z</time>
      </trkpt>
      <trkpt lat="47.45246" lon="8.16209">
        <ele>347.8</ele>
        <time>2022-10-02T11:25:42Z</time>
      </trkpt>
      <trkpt lat="47.4525" lon="8.16205">
        <ele>347.7</ele>
        <time>2022-10-02T11:25:43Z</time>
      </trkpt>
      <trkpt lat="47.45256" lon="8.16202">
        <ele>347.5</ele>
        <time>2022-10-02T11:25:44Z</time>
      </trkpt>
      <trkpt lat="47.45262" lon="8.16199">
        <ele>347.2</ele>
        <time>2022-10-02T11:25:45Z</time>
      </trkpt>
      <trkpt lat="47.45266" lon="8.16197">
        <ele>347.1</ele>
        <time>2022-10-02T11:25:46Z</time>
      </trkpt>
      <trkpt lat="47.45271" lon="8.16195">
        <ele>347</ele>
        <time>2022-10-02T11:25:47Z</time>
      </trkpt>
      <trkpt lat="47.45276" lon="8.16191">
        <ele>346.8</ele>
        <time>2022-10-02T11:25:48Z</time>
      </trkpt>
      <trkpt lat="47.45282" lon="8.16187">
        <ele>346.7</ele>
        <time>2022-10-02T11:25:49Z</time>
      </trkpt>
      <trkpt lat="47.45289" lon="8.16183">
        <ele>346.4</ele>
        <time>2022-10-02T11:25:50Z</time>
      </trkpt>
      <trkpt lat="47.45295" lon="8.16178">
        <ele>346.2</ele>
        <time>2022-10-02T11:25:51Z</time>
      </trkpt>
      <trkpt lat="47.45301" lon="8.16175">
        <ele>346</ele>
        <time>2022-10-02T11:25:52Z</time>
      </trkpt>
      <trkpt lat="47.45308" lon="8.16171">
        <ele>345.8</ele>
        <time>2022-10-02T11:25:53Z</time>
      </trkpt>
      <trkpt lat="47.45314" lon="8.16166">
        <ele>345.6</ele>
        <time>2022-10-02T11:25:54Z</time>
      </trkpt>
      <trkpt lat="47.4532" lon="8.16162">
        <ele>345.5</ele>
        <time>2022-10-02T11:25:55Z</time>
      </trkpt>
      <trkpt lat="47.45327" lon="8.16158">
        <ele>345.5</ele>
        <time>2022-10-02T11:25:56Z</time>
      </trkpt>
      <trkpt lat="47.45331" lon="8.16155">
        <ele>345.4</ele>
        <time>2022-10-02T11:25:57Z</time>
      </trkpt>
      <trkpt lat="47.45338" lon="8.16151">
        <ele>345.3</ele>
        <time>2022-10-02T11:25:58Z</time>
      </trkpt>
      <trkpt lat="47.45344" lon="8.16148">
        <ele>345.3</ele>
        <time>2022-10-02T11:25:59Z</time>
      </trkpt>
      <trkpt lat="47.45348" lon="8.16144">
        <ele>345.2</ele>
        <time>2022-10-02T11:26:00Z</time>
      </trkpt>
      <trkpt lat="47.45359" lon="8.16137">
        <ele>345.1</ele>
        <time>2022-10-02T11:26:01Z</time>
      </trkpt>
      <trkpt lat="47.45365" lon="8.16133">
        <ele>345</ele>
        <time>2022-10-02T11:26:02Z</time>
      </trkpt>
      <trkpt lat="47.45371" lon="8.1613">
        <ele>345</ele>
        <time>2022-10-02T11:26:03Z</time>
      </trkpt>
      <trkpt lat="47.45377" lon="8.16126">
        <ele>345</ele>
        <time>2022-10-02T11:26:04Z</time>
      </trkpt>
      <trkpt lat="47.45382" lon="8.16122">
        <ele>344.9</ele>
        <time>2022-10-02T11:26:05Z</time>
      </trkpt>
      <trkpt lat="47.45388" lon="8.16119">
        <ele>344.9</ele>
        <time>2022-10-02T11:26:06Z</time>
      </trkpt>
      <trkpt lat="47.45396" lon="8.16115">
        <ele>344.8</ele>
        <time>2022-10-02T11:26:07Z</time>
      </trkpt>
      <trkpt lat="47.45401" lon="8.16111">
        <ele>344.8</ele>
        <time>2022-10-02T11:26:08Z</time>
      </trkpt>
      <trkpt lat="47.45406" lon="8.16107">
        <ele>344.8</ele>
        <time>2022-10-02T11:26:09Z</time>
      </trkpt>
      <trkpt lat="47.45412" lon="8.16104">
        <ele>344.8</ele>
        <time>2022-10-02T11:26:10Z</time>
      </trkpt>
      <trkpt lat="47.45417" lon="8.16104">
        <ele>344.8</ele>
        <time>2022-10-02T11:26:11Z</time>
      </trkpt>
      <trkpt lat="47.45423" lon="8.16101">
        <ele>344.8</ele>
        <time>2022-10-02T11:26:12Z</time>
      </trkpt>
      <trkpt lat="47.45429" lon="8.16097">
        <ele>344.8</ele>
        <time>2022-10-02T11:26:13Z</time>
      </trkpt>
      <trkpt lat="47.45435" lon="8.16093">
        <ele>344.7</ele>
        <time>2022-10-02T11:26:14Z</time>
      </trkpt>
      <trkpt lat="47.4544" lon="8.16091">
        <ele>344.7</ele>
        <time>2022-10-02T11:26:15Z</time>
      </trkpt>
      <trkpt lat="47.45444" lon="8.1609">
        <ele>344.7</ele>
        <time>2022-10-02T11:26:16Z</time>
      </trkpt>
      <trkpt lat="47.4545" lon="8.16088">
        <ele>344.7</ele>
        <time>2022-10-02T11:26:17Z</time>
      </trkpt>
      <trkpt lat="47.45458" lon="8.16085">
        <ele>344.6</ele>
        <time>2022-10-02T11:26:18Z</time>
      </trkpt>
      <trkpt lat="47.45464" lon="8.16082">
        <ele>344.6</ele>
        <time>2022-10-02T11:26:19Z</time>
      </trkpt>
      <trkpt lat="47.4547" lon="8.16079">
        <ele>344.6</ele>
        <time>2022-10-02T11:26:20Z</time>
      </trkpt>
      <trkpt lat="47.45476" lon="8.16077">
        <ele>344.5</ele>
        <time>2022-10-02T11:26:21Z</time>
      </trkpt>
      <trkpt lat="47.45483" lon="8.16074">
        <ele>344.5</ele>
        <time>2022-10-02T11:26:22Z</time>
      </trkpt>
      <trkpt lat="47.45489" lon="8.16071">
        <ele>344.5</ele>
        <time>2022-10-02T11:26:23Z</time>
      </trkpt>
      <trkpt lat="47.45495" lon="8.16068">
        <ele>344.6</ele>
        <time>2022-10-02T11:26:24Z</time>
      </trkpt>
      <trkpt lat="47.45501" lon="8.16066">
        <ele>344.6</ele>
        <time>2022-10-02T11:26:25Z</time>
      </trkpt>
      <trkpt lat="47.45508" lon="8.16064">
        <ele>344.6</ele>
        <time>2022-10-02T11:26:26Z</time>
      </trkpt>
      <trkpt lat="47.45515" lon="8.16061">
        <ele>344.6</ele>
        <time>2022-10-02T11:26:27Z</time>
      </trkpt>
      <trkpt lat="47.45521" lon="8.16059">
        <ele>344.6</ele>
        <time>2022-10-02T11:26:28Z</time>
      </trkpt>
      <trkpt lat="47.45528" lon="8.16057">
        <ele>344.6</ele>
        <time>2022-10-02T11:26:29Z</time>
      </trkpt>
      <trkpt lat="47.45534" lon="8.16054">
        <ele>344.6</ele>
        <time>2022-10-02T11:26:30Z</time>
      </trkpt>
      <trkpt lat="47.45541" lon="8.16052">
        <ele>344.6</ele>
        <time>2022-10-02T11:26:31Z</time>
      </trkpt>
      <trkpt lat="47.45547" lon="8.1605">
        <ele>344.6</ele>
        <time>2022-10-02T11:26:32Z</time>
      </trkpt>
      <trkpt lat="47.45554" lon="8.16048">
        <ele>344.6</ele>
        <time>2022-10-02T11:26:33Z</time>
      </trkpt>
      <trkpt lat="47.4556" lon="8.16046">
        <ele>344.6</ele>
        <time>2022-10-02T11:26:34Z</time>
      </trkpt>
      <trkpt lat="47.45566" lon="8.16045">
        <ele>344.6</ele>
        <time>2022-10-02T11:26:35Z</time>
      </trkpt>
      <trkpt lat="47.45572" lon="8.16043">
        <ele>344.6</ele>
        <time>2022-10-02T11:26:36Z</time>
      </trkpt>
      <trkpt lat="47.45578" lon="8.16041">
        <ele>344.5</ele>
        <time>2022-10-02T11:26:37Z</time>
      </trkpt>
      <trkpt lat="47.45584" lon="8.1604">
        <ele>344.5</ele>
        <time>2022-10-02T11:26:38Z</time>
      </trkpt>
      <trkpt lat="47.45591" lon="8.16038">
        <ele>344.4</ele>
        <time>2022-10-02T11:26:39Z</time>
      </trkpt>
      <trkpt lat="47.45597" lon="8.16035">
        <ele>344.4</ele>
        <time>2022-10-02T11:26:40Z</time>
      </trkpt>
      <trkpt lat="47.45603" lon="8.16035">
        <ele>344.3</ele>
        <time>2022-10-02T11:26:41Z</time>
      </trkpt>
      <trkpt lat="47.4561" lon="8.16033">
        <ele>344.3</ele>
        <time>2022-10-02T11:26:42Z</time>
      </trkpt>
      <trkpt lat="47.45616" lon="8.16032">
        <ele>344.3</ele>
        <time>2022-10-02T11:26:43Z</time>
      </trkpt>
      <trkpt lat="47.45622" lon="8.1603">
        <ele>344.2</ele>
        <time>2022-10-02T11:26:44Z</time>
      </trkpt>
      <trkpt lat="47.45628" lon="8.16029">
        <ele>344.2</ele>
        <time>2022-10-02T11:26:45Z</time>
      </trkpt>
      <trkpt lat="47.45635" lon="8.16028">
        <ele>344.2</ele>
        <time>2022-10-02T11:26:46Z</time>
      </trkpt>
      <trkpt lat="47.45642" lon="8.16027">
        <ele>344.2</ele>
        <time>2022-10-02T11:26:47Z</time>
      </trkpt>
      <trkpt lat="47.45648" lon="8.16026">
        <ele>344.2</ele>
        <time>2022-10-02T11:26:48Z</time>
      </trkpt>
      <trkpt lat="47.45655" lon="8.16025">
        <ele>344.2</ele>
        <time>2022-10-02T11:26:49Z</time>
      </trkpt>
      <trkpt lat="47.45661" lon="8.16024">
        <ele>344.2</ele>
        <time>2022-10-02T11:26:50Z</time>
      </trkpt>
      <trkpt lat="47.45668" lon="8.16023">
        <ele>344.2</ele>
        <time>2022-10-02T11:26:51Z</time>
      </trkpt>
      <trkpt lat="47.45675" lon="8.16021">
        <ele>344.2</ele>
        <time>2022-10-02T11:26:52Z</time>
      </trkpt>
      <trkpt lat="47.45681" lon="8.16021">
        <ele>344.2</ele>
        <time>2022-10-02T11:26:53Z</time>
      </trkpt>
      <trkpt lat="47.45687" lon="8.16019">
        <ele>344.2</ele>
        <time>2022-10-02T11:26:54Z</time>
      </trkpt>
      <trkpt lat="47.45694" lon="8.16018">
        <ele>344.2</ele>
        <time>2022-10-02T11:26:55Z</time>
      </trkpt>
      <trkpt lat="47.45701" lon="8.16018">
        <ele>344.2</ele>
        <time>2022-10-02T11:26:56Z</time>
      </trkpt>
      <trkpt lat="47.45707" lon="8.16017">
        <ele>344.2</ele>
        <time>2022-10-02T11:26:57Z</time>
      </trkpt>
      <trkpt lat="47.45714" lon="8.16017">
        <ele>344.2</ele>
        <time>2022-10-02T11:26:58Z</time>
      </trkpt>
      <trkpt lat="47.45719" lon="8.16017">
        <ele>344.2</ele>
        <time>2022-10-02T11:26:59Z</time>
      </trkpt>
      <trkpt lat="47.45726" lon="8.16017">
        <ele>344.2</ele>
        <time>2022-10-02T11:27:00Z</time>
      </trkpt>
      <trkpt lat="47.45733" lon="8.16017">
        <ele>344.2</ele>
        <time>2022-10-02T11:27:01Z</time>
      </trkpt>
      <trkpt lat="47.45739" lon="8.16017">
        <ele>344.2</ele>
        <time>2022-10-02T11:27:02Z</time>
      </trkpt>
      <trkpt lat="47.45745" lon="8.16018">
        <ele>344.3</ele>
        <time>2022-10-02T11:27:03Z</time>
      </trkpt>
      <trkpt lat="47.45752" lon="8.16016">
        <ele>344.3</ele>
        <time>2022-10-02T11:27:04Z</time>
      </trkpt>
      <trkpt lat="47.45758" lon="8.16016">
        <ele>344.3</ele>
        <time>2022-10-02T11:27:05Z</time>
      </trkpt>
      <trkpt lat="47.45765" lon="8.16017">
        <ele>344.3</ele>
        <time>2022-10-02T11:27:06Z</time>
      </trkpt>
      <trkpt lat="47.45772" lon="8.16017">
        <ele>344.3</ele>
        <time>2022-10-02T11:27:07Z</time>
      </trkpt>
      <trkpt lat="47.45778" lon="8.16017">
        <ele>344.3</ele>
        <time>2022-10-02T11:27:08Z</time>
      </trkpt>
      <trkpt lat="47.45785" lon="8.16017">
        <ele>344.3</ele>
        <time>2022-10-02T11:27:09Z</time>
      </trkpt>
      <trkpt lat="47.45791" lon="8.16017">
        <ele>344.3</ele>
        <time>2022-10-02T11:27:10Z</time>
      </trkpt>
      <trkpt lat="47.45797" lon="8.16017">
        <ele>344.3</ele>
        <time>2022-10-02T11:27:11Z</time>
      </trkpt>
      <trkpt lat="47.45804" lon="8.16016">
        <ele>344.2</ele>
        <time>2022-10-02T11:27:12Z</time>
      </trkpt>
      <trkpt lat="47.45811" lon="8.16017">
        <ele>344.2</ele>
        <time>2022-10-02T11:27:13Z</time>
      </trkpt>
      <trkpt lat="47.45818" lon="8.16016">
        <ele>344.2</ele>
        <time>2022-10-02T11:27:14Z</time>
      </trkpt>
      <trkpt lat="47.45825" lon="8.16017">
        <ele>344.2</ele>
        <time>2022-10-02T11:27:15Z</time>
      </trkpt>
      <trkpt lat="47.45832" lon="8.16017">
        <ele>344.3</ele>
        <time>2022-10-02T11:27:16Z</time>
      </trkpt>
      <trkpt lat="47.45838" lon="8.16018">
        <ele>344.3</ele>
        <time>2022-10-02T11:27:17Z</time>
      </trkpt>
      <trkpt lat="47.45845" lon="8.16018">
        <ele>344.3</ele>
        <time>2022-10-02T11:27:18Z</time>
      </trkpt>
      <trkpt lat="47.45852" lon="8.16018">
        <ele>344.2</ele>
        <time>2022-10-02T11:27:19Z</time>
      </trkpt>
      <trkpt lat="47.45859" lon="8.16018">
        <ele>344.2</ele>
        <time>2022-10-02T11:27:20Z</time>
      </trkpt>
      <trkpt lat="47.45865" lon="8.16018">
        <ele>344.2</ele>
        <time>2022-10-02T11:27:21Z</time>
      </trkpt>
      <trkpt lat="47.45872" lon="8.16018">
        <ele>344.1</ele>
        <time>2022-10-02T11:27:22Z</time>
      </trkpt>
      <trkpt lat="47.45879" lon="8.16018">
        <ele>344.1</ele>
        <time>2022-10-02T11:27:23Z</time>
      </trkpt>
      <trkpt lat="47.45886" lon="8.16018">
        <ele>344</ele>
        <time>2022-10-02T11:27:24Z</time>
      </trkpt>
      <trkpt lat="47.45892" lon="8.16019">
        <ele>344</ele>
        <time>2022-10-02T11:27:25Z</time>
      </trkpt>
      <trkpt lat="47.45898" lon="8.16018">
        <ele>344</ele>
        <time>2022-10-02T11:27:26Z</time>
      </trkpt>
      <trkpt lat="47.45905" lon="8.16018">
        <ele>343.9</ele>
        <time>2022-10-02T11:27:27Z</time>
      </trkpt>
      <trkpt lat="47.45911" lon="8.16018">
        <ele>343.9</ele>
        <time>2022-10-02T11:27:28Z</time>
      </trkpt>
      <trkpt lat="47.45918" lon="8.16018">
        <ele>343.9</ele>
        <time>2022-10-02T11:27:29Z</time>
      </trkpt>
      <trkpt lat="47.45925" lon="8.16018">
        <ele>343.9</ele>
        <time>2022-10-02T11:27:30Z</time>
      </trkpt>
      <trkpt lat="47.45931" lon="8.16018">
        <ele>343.8</ele>
        <time>2022-10-02T11:27:31Z</time>
      </trkpt>
      <trkpt lat="47.45937" lon="8.16019">
        <ele>343.8</ele>
        <time>2022-10-02T11:27:32Z</time>
      </trkpt>
      <trkpt lat="47.45942" lon="8.1602">
        <ele>343.8</ele>
        <time>2022-10-02T11:27:33Z</time>
      </trkpt>
      <trkpt lat="47.45948" lon="8.1602">
        <ele>343.8</ele>
        <time>2022-10-02T11:27:35Z</time>
      </trkpt>
      <trkpt lat="47.45954" lon="8.1602">
        <ele>343.8</ele>
        <time>2022-10-02T11:27:36Z</time>
      </trkpt>
      <trkpt lat="47.4596" lon="8.16021">
        <ele>343.8</ele>
        <time>2022-10-02T11:27:37Z</time>
      </trkpt>
      <trkpt lat="47.45965" lon="8.16022">
        <ele>343.8</ele>
        <time>2022-10-02T11:27:38Z</time>
      </trkpt>
      <trkpt lat="47.45971" lon="8.16021">
        <ele>343.7</ele>
        <time>2022-10-02T11:27:39Z</time>
      </trkpt>
      <trkpt lat="47.45975" lon="8.16022">
        <ele>343.7</ele>
        <time>2022-10-02T11:27:40Z</time>
      </trkpt>
      <trkpt lat="47.4598" lon="8.16024">
        <ele>343.7</ele>
        <time>2022-10-02T11:27:41Z</time>
      </trkpt>
      <trkpt lat="47.45986" lon="8.16025">
        <ele>343.6</ele>
        <time>2022-10-02T11:27:42Z</time>
      </trkpt>
      <trkpt lat="47.45992" lon="8.16025">
        <ele>343.6</ele>
        <time>2022-10-02T11:27:43Z</time>
      </trkpt>
      <trkpt lat="47.45998" lon="8.16026">
        <ele>343.6</ele>
        <time>2022-10-02T11:27:44Z</time>
      </trkpt>
      <trkpt lat="47.46005" lon="8.16027">
        <ele>343.5</ele>
        <time>2022-10-02T11:27:45Z</time>
      </trkpt>
      <trkpt lat="47.46012" lon="8.16027">
        <ele>343.5</ele>
        <time>2022-10-02T11:27:46Z</time>
      </trkpt>
      <trkpt lat="47.46016" lon="8.16029">
        <ele>343.5</ele>
        <time>2022-10-02T11:27:47Z</time>
      </trkpt>
      <trkpt lat="47.46021" lon="8.1603">
        <ele>343.5</ele>
        <time>2022-10-02T11:27:48Z</time>
      </trkpt>
      <trkpt lat="47.46026" lon="8.16031">
        <ele>343.5</ele>
        <time>2022-10-02T11:27:49Z</time>
      </trkpt>
      <trkpt lat="47.46032" lon="8.16032">
        <ele>343.5</ele>
        <time>2022-10-02T11:27:50Z</time>
      </trkpt>
      <trkpt lat="47.46037" lon="8.16034">
        <ele>343.4</ele>
        <time>2022-10-02T11:27:51Z</time>
      </trkpt>
      <trkpt lat="47.46045" lon="8.16035">
        <ele>343.4</ele>
        <time>2022-10-02T11:27:52Z</time>
      </trkpt>
      <trkpt lat="47.46049" lon="8.16036">
        <ele>343.3</ele>
        <time>2022-10-02T11:27:53Z</time>
      </trkpt>
      <trkpt lat="47.46054" lon="8.16037">
        <ele>343.3</ele>
        <time>2022-10-02T11:27:54Z</time>
      </trkpt>
      <trkpt lat="47.4606" lon="8.16038">
        <ele>343.3</ele>
        <time>2022-10-02T11:27:55Z</time>
      </trkpt>
      <trkpt lat="47.46066" lon="8.16041">
        <ele>343.2</ele>
        <time>2022-10-02T11:27:56Z</time>
      </trkpt>
      <trkpt lat="47.46071" lon="8.16044">
        <ele>343.2</ele>
        <time>2022-10-02T11:27:57Z</time>
      </trkpt>
      <trkpt lat="47.46077" lon="8.16045">
        <ele>343.2</ele>
        <time>2022-10-02T11:27:58Z</time>
      </trkpt>
      <trkpt lat="47.46082" lon="8.16047">
        <ele>343.1</ele>
        <time>2022-10-02T11:27:59Z</time>
      </trkpt>
      <trkpt lat="47.46087" lon="8.16048">
        <ele>343.1</ele>
        <time>2022-10-02T11:28:00Z</time>
      </trkpt>
      <trkpt lat="47.46094" lon="8.16051">
        <ele>343.1</ele>
        <time>2022-10-02T11:28:01Z</time>
      </trkpt>
      <trkpt lat="47.461" lon="8.16053">
        <ele>343.1</ele>
        <time>2022-10-02T11:28:02Z</time>
      </trkpt>
      <trkpt lat="47.46104" lon="8.16057">
        <ele>343.1</ele>
        <time>2022-10-02T11:28:03Z</time>
      </trkpt>
      <trkpt lat="47.4611" lon="8.16059">
        <ele>343.1</ele>
        <time>2022-10-02T11:28:04Z</time>
      </trkpt>
      <trkpt lat="47.46114" lon="8.1606">
        <ele>343.1</ele>
        <time>2022-10-02T11:28:05Z</time>
      </trkpt>
      <trkpt lat="47.46121" lon="8.16065">
        <ele>343.1</ele>
        <time>2022-10-02T11:28:06Z</time>
      </trkpt>
      <trkpt lat="47.46126" lon="8.16067">
        <ele>343.1</ele>
        <time>2022-10-02T11:28:07Z</time>
      </trkpt>
      <trkpt lat="47.4613" lon="8.1607">
        <ele>343.1</ele>
        <time>2022-10-02T11:28:08Z</time>
      </trkpt>
      <trkpt lat="47.46133" lon="8.16073">
        <ele>343.1</ele>
        <time>2022-10-02T11:28:09Z</time>
      </trkpt>
      <trkpt lat="47.46137" lon="8.16076">
        <ele>343.1</ele>
        <time>2022-10-02T11:28:10Z</time>
      </trkpt>
      <trkpt lat="47.46142" lon="8.1608">
        <ele>343.1</ele>
        <time>2022-10-02T11:28:11Z</time>
      </trkpt>
      <trkpt lat="47.46147" lon="8.16083">
        <ele>343.1</ele>
        <time>2022-10-02T11:28:12Z</time>
      </trkpt>
      <trkpt lat="47.46155" lon="8.16087">
        <ele>343.1</ele>
        <time>2022-10-02T11:28:13Z</time>
      </trkpt>
      <trkpt lat="47.4616" lon="8.1609">
        <ele>343.1</ele>
        <time>2022-10-02T11:28:14Z</time>
      </trkpt>
      <trkpt lat="47.46163" lon="8.16091">
        <ele>343.1</ele>
        <time>2022-10-02T11:28:15Z</time>
      </trkpt>
      <trkpt lat="47.46167" lon="8.16091">
        <ele>343.1</ele>
        <time>2022-10-02T11:28:16Z</time>
      </trkpt>
      <trkpt lat="47.46171" lon="8.16093">
        <ele>343.1</ele>
        <time>2022-10-02T11:28:17Z</time>
      </trkpt>
      <trkpt lat="47.46177" lon="8.161">
        <ele>343.2</ele>
        <time>2022-10-02T11:28:18Z</time>
      </trkpt>
      <trkpt lat="47.46189" lon="8.16104">
        <ele>343.2</ele>
        <time>2022-10-02T11:28:19Z</time>
      </trkpt>
      <trkpt lat="47.46195" lon="8.1611">
        <ele>343.2</ele>
        <time>2022-10-02T11:28:20Z</time>
      </trkpt>
      <trkpt lat="47.462" lon="8.16115">
        <ele>343.2</ele>
        <time>2022-10-02T11:28:21Z</time>
      </trkpt>
      <trkpt lat="47.46206" lon="8.16119">
        <ele>343.2</ele>
        <time>2022-10-02T11:28:22Z</time>
      </trkpt>
      <trkpt lat="47.46212" lon="8.16124">
        <ele>343.1</ele>
        <time>2022-10-02T11:28:23Z</time>
      </trkpt>
      <trkpt lat="47.46217" lon="8.16127">
        <ele>343.1</ele>
        <time>2022-10-02T11:28:24Z</time>
      </trkpt>
      <trkpt lat="47.46223" lon="8.16131">
        <ele>343.1</ele>
        <time>2022-10-02T11:28:25Z</time>
      </trkpt>
      <trkpt lat="47.46228" lon="8.16136">
        <ele>343.1</ele>
        <time>2022-10-02T11:28:26Z</time>
      </trkpt>
      <trkpt lat="47.46235" lon="8.16139">
        <ele>343.2</ele>
        <time>2022-10-02T11:28:27Z</time>
      </trkpt>
      <trkpt lat="47.4624" lon="8.16142">
        <ele>343.2</ele>
        <time>2022-10-02T11:28:28Z</time>
      </trkpt>
      <trkpt lat="47.46245" lon="8.16145">
        <ele>343.2</ele>
        <time>2022-10-02T11:28:29Z</time>
      </trkpt>
      <trkpt lat="47.4625" lon="8.1615">
        <ele>343.2</ele>
        <time>2022-10-02T11:28:30Z</time>
      </trkpt>
      <trkpt lat="47.46256" lon="8.16154">
        <ele>343.2</ele>
        <time>2022-10-02T11:28:31Z</time>
      </trkpt>
      <trkpt lat="47.46261" lon="8.16158">
        <ele>343.3</ele>
        <time>2022-10-02T11:28:32Z</time>
      </trkpt>
      <trkpt lat="47.46266" lon="8.16161">
        <ele>343.3</ele>
        <time>2022-10-02T11:28:33Z</time>
      </trkpt>
      <trkpt lat="47.46272" lon="8.16164">
        <ele>343.3</ele>
        <time>2022-10-02T11:28:34Z</time>
      </trkpt>
      <trkpt lat="47.46276" lon="8.16168">
        <ele>343.3</ele>
        <time>2022-10-02T11:28:35Z</time>
      </trkpt>
      <trkpt lat="47.4628" lon="8.16171">
        <ele>343.3</ele>
        <time>2022-10-02T11:28:36Z</time>
      </trkpt>
      <trkpt lat="47.46285" lon="8.16175">
        <ele>343.3</ele>
        <time>2022-10-02T11:28:37Z</time>
      </trkpt>
      <trkpt lat="47.46289" lon="8.16179">
        <ele>343.3</ele>
        <time>2022-10-02T11:28:38Z</time>
      </trkpt>
      <trkpt lat="47.46292" lon="8.16183">
        <ele>343.4</ele>
        <time>2022-10-02T11:28:39Z</time>
      </trkpt>
      <trkpt lat="47.46296" lon="8.16183">
        <ele>343.4</ele>
        <time>2022-10-02T11:28:40Z</time>
      </trkpt>
      <trkpt lat="47.463" lon="8.16187">
        <ele>343.4</ele>
        <time>2022-10-02T11:28:41Z</time>
      </trkpt>
      <trkpt lat="47.46304" lon="8.16191">
        <ele>343.4</ele>
        <time>2022-10-02T11:28:42Z</time>
      </trkpt>
      <trkpt lat="47.46308" lon="8.16195">
        <ele>343.4</ele>
        <time>2022-10-02T11:28:43Z</time>
      </trkpt>
      <trkpt lat="47.46312" lon="8.16198">
        <ele>343.4</ele>
        <time>2022-10-02T11:28:44Z</time>
      </trkpt>
      <trkpt lat="47.46317" lon="8.16202">
        <ele>343.4</ele>
        <time>2022-10-02T11:28:45Z</time>
      </trkpt>
      <trkpt lat="47.46322" lon="8.16205">
        <ele>343.4</ele>
        <time>2022-10-02T11:28:46Z</time>
      </trkpt>
      <trkpt lat="47.46326" lon="8.16208">
        <ele>343.4</ele>
        <time>2022-10-02T11:28:47Z</time>
      </trkpt>
      <trkpt lat="47.46331" lon="8.16214">
        <ele>343.4</ele>
        <time>2022-10-02T11:28:48Z</time>
      </trkpt>
      <trkpt lat="47.46336" lon="8.16219">
        <ele>343.5</ele>
        <time>2022-10-02T11:28:49Z</time>
      </trkpt>
      <trkpt lat="47.46338" lon="8.16223">
        <ele>343.5</ele>
        <time>2022-10-02T11:28:50Z</time>
      </trkpt>
      <trkpt lat="47.46344" lon="8.16227">
        <ele>343.5</ele>
        <time>2022-10-02T11:28:51Z</time>
      </trkpt>
      <trkpt lat="47.46348" lon="8.1623">
        <ele>343.5</ele>
        <time>2022-10-02T11:28:52Z</time>
      </trkpt>
      <trkpt lat="47.46352" lon="8.16233">
        <ele>343.6</ele>
        <time>2022-10-02T11:28:53Z</time>
      </trkpt>
      <trkpt lat="47.46356" lon="8.16237">
        <ele>343.6</ele>
        <time>2022-10-02T11:28:54Z</time>
      </trkpt>
      <trkpt lat="47.4636" lon="8.16241">
        <ele>343.6</ele>
        <time>2022-10-02T11:28:55Z</time>
      </trkpt>
      <trkpt lat="47.46363" lon="8.16243">
        <ele>343.7</ele>
        <time>2022-10-02T11:28:56Z</time>
      </trkpt>
      <trkpt lat="47.46366" lon="8.16246">
        <ele>343.7</ele>
        <time>2022-10-02T11:28:57Z</time>
      </trkpt>
      <trkpt lat="47.46371" lon="8.1625">
        <ele>343.8</ele>
        <time>2022-10-02T11:28:58Z</time>
      </trkpt>
      <trkpt lat="47.46376" lon="8.16255">
        <ele>343.8</ele>
        <time>2022-10-02T11:28:59Z</time>
      </trkpt>
      <trkpt lat="47.46378" lon="8.16258">
        <ele>343.9</ele>
        <time>2022-10-02T11:29:00Z</time>
      </trkpt>
      <trkpt lat="47.46382" lon="8.16263">
        <ele>343.9</ele>
        <time>2022-10-02T11:29:01Z</time>
      </trkpt>
      <trkpt lat="47.46384" lon="8.16266">
        <ele>344</ele>
        <time>2022-10-02T11:29:02Z</time>
      </trkpt>
      <trkpt lat="47.46389" lon="8.1627">
        <ele>344</ele>
        <time>2022-10-02T11:29:03Z</time>
      </trkpt>
      <trkpt lat="47.46393" lon="8.16274">
        <ele>344</ele>
        <time>2022-10-02T11:29:04Z</time>
      </trkpt>
      <trkpt lat="47.46396" lon="8.16278">
        <ele>344.1</ele>
        <time>2022-10-02T11:29:05Z</time>
      </trkpt>
      <trkpt lat="47.464" lon="8.16283">
        <ele>344.1</ele>
        <time>2022-10-02T11:29:06Z</time>
      </trkpt>
      <trkpt lat="47.46404" lon="8.16287">
        <ele>344.2</ele>
        <time>2022-10-02T11:29:07Z</time>
      </trkpt>
      <trkpt lat="47.46408" lon="8.16291">
        <ele>344.3</ele>
        <time>2022-10-02T11:29:08Z</time>
      </trkpt>
      <trkpt lat="47.46411" lon="8.16296">
        <ele>344.4</ele>
        <time>2022-10-02T11:29:09Z</time>
      </trkpt>
      <trkpt lat="47.46415" lon="8.163">
        <ele>344.5</ele>
        <time>2022-10-02T11:29:10Z</time>
      </trkpt>
      <trkpt lat="47.46418" lon="8.16303">
        <ele>344.5</ele>
        <time>2022-10-02T11:29:11Z</time>
      </trkpt>
      <trkpt lat="47.46421" lon="8.16306">
        <ele>344.6</ele>
        <time>2022-10-02T11:29:12Z</time>
      </trkpt>
      <trkpt lat="47.46424" lon="8.1631">
        <ele>344.8</ele>
        <time>2022-10-02T11:29:13Z</time>
      </trkpt>
      <trkpt lat="47.46427" lon="8.16313">
        <ele>344.9</ele>
        <time>2022-10-02T11:29:14Z</time>
      </trkpt>
      <trkpt lat="47.4643" lon="8.16318">
        <ele>345</ele>
        <time>2022-10-02T11:29:15Z</time>
      </trkpt>
      <trkpt lat="47.46432" lon="8.16319">
        <ele>345</ele>
        <time>2022-10-02T11:29:16Z</time>
      </trkpt>
      <trkpt lat="47.46436" lon="8.16323">
        <ele>345.2</ele>
        <time>2022-10-02T11:29:17Z</time>
      </trkpt>
      <trkpt lat="47.46439" lon="8.16327">
        <ele>345.3</ele>
        <time>2022-10-02T11:29:18Z</time>
      </trkpt>
      <trkpt lat="47.46443" lon="8.16331">
        <ele>345.4</ele>
        <time>2022-10-02T11:29:19Z</time>
      </trkpt>
      <trkpt lat="47.46444" lon="8.16333">
        <ele>345.5</ele>
        <time>2022-10-02T11:29:20Z</time>
      </trkpt>
      <trkpt lat="47.46447" lon="8.16336">
        <ele>345.6</ele>
        <time>2022-10-02T11:29:21Z</time>
      </trkpt>
      <trkpt lat="47.4645" lon="8.16339">
        <ele>345.7</ele>
        <time>2022-10-02T11:29:22Z</time>
      </trkpt>
      <trkpt lat="47.46452" lon="8.16342">
        <ele>345.8</ele>
        <time>2022-10-02T11:29:23Z</time>
      </trkpt>
      <trkpt lat="47.46454" lon="8.16345">
        <ele>345.9</ele>
        <time>2022-10-02T11:29:24Z</time>
      </trkpt>
      <trkpt lat="47.46458" lon="8.16349">
        <ele>346.1</ele>
        <time>2022-10-02T11:29:25Z</time>
      </trkpt>
      <trkpt lat="47.4646" lon="8.1635">
        <ele>346.2</ele>
        <time>2022-10-02T11:29:26Z</time>
      </trkpt>
      <trkpt lat="47.46462" lon="8.16354">
        <ele>346.3</ele>
        <time>2022-10-02T11:29:27Z</time>
      </trkpt>
      <trkpt lat="47.46465" lon="8.16357">
        <ele>346.4</ele>
        <time>2022-10-02T11:29:28Z</time>
      </trkpt>
      <trkpt lat="47.46466" lon="8.1636">
        <ele>346.4</ele>
        <time>2022-10-02T11:29:29Z</time>
      </trkpt>
      <trkpt lat="47.46466" lon="8.16362">
        <ele>346.5</ele>
        <time>2022-10-02T11:29:30Z</time>
      </trkpt>
      <trkpt lat="47.46467" lon="8.16367">
        <ele>346.5</ele>
        <time>2022-10-02T11:29:31Z</time>
      </trkpt>
      <trkpt lat="47.46467" lon="8.16369">
        <ele>346.6</ele>
        <time>2022-10-02T11:29:32Z</time>
      </trkpt>
      <trkpt lat="47.46465" lon="8.16374">
        <ele>346.9</ele>
        <time>2022-10-02T11:29:33Z</time>
      </trkpt>
      <trkpt lat="47.46464" lon="8.16376">
        <ele>346.9</ele>
        <time>2022-10-02T11:29:34Z</time>
      </trkpt>
      <trkpt lat="47.46463" lon="8.16382">
        <ele>346.9</ele>
        <time>2022-10-02T11:29:35Z</time>
      </trkpt>
      <trkpt lat="47.46462" lon="8.16388">
        <ele>346.9</ele>
        <time>2022-10-02T11:29:36Z</time>
      </trkpt>
      <trkpt lat="47.4646" lon="8.16393">
        <ele>346.9</ele>
        <time>2022-10-02T11:29:37Z</time>
      </trkpt>
      <trkpt lat="47.46458" lon="8.16399">
        <ele>346.8</ele>
        <time>2022-10-02T11:29:38Z</time>
      </trkpt>
      <trkpt lat="47.46457" lon="8.16405">
        <ele>346.8</ele>
        <time>2022-10-02T11:29:39Z</time>
      </trkpt>
      <trkpt lat="47.46455" lon="8.16411">
        <ele>346.8</ele>
        <time>2022-10-02T11:29:41Z</time>
      </trkpt>
      <trkpt lat="47.46453" lon="8.16417">
        <ele>346.7</ele>
        <time>2022-10-02T11:29:42Z</time>
      </trkpt>
      <trkpt lat="47.4645" lon="8.16423">
        <ele>346.7</ele>
        <time>2022-10-02T11:29:43Z</time>
      </trkpt>
      <trkpt lat="47.46448" lon="8.16429">
        <ele>346.7</ele>
        <time>2022-10-02T11:29:44Z</time>
      </trkpt>
      <trkpt lat="47.46445" lon="8.16435">
        <ele>346.7</ele>
        <time>2022-10-02T11:29:45Z</time>
      </trkpt>
      <trkpt lat="47.46442" lon="8.16441">
        <ele>346.6</ele>
        <time>2022-10-02T11:29:46Z</time>
      </trkpt>
      <trkpt lat="47.46439" lon="8.16447">
        <ele>346.6</ele>
        <time>2022-10-02T11:29:47Z</time>
      </trkpt>
      <trkpt lat="47.46437" lon="8.16452">
        <ele>346.6</ele>
        <time>2022-10-02T11:29:48Z</time>
      </trkpt>
      <trkpt lat="47.46434" lon="8.16457">
        <ele>346.6</ele>
        <time>2022-10-02T11:29:49Z</time>
      </trkpt>
      <trkpt lat="47.46432" lon="8.16463">
        <ele>346.5</ele>
        <time>2022-10-02T11:29:50Z</time>
      </trkpt>
      <trkpt lat="47.46429" lon="8.16469">
        <ele>346.5</ele>
        <time>2022-10-02T11:29:51Z</time>
      </trkpt>
      <trkpt lat="47.46426" lon="8.16474">
        <ele>346.5</ele>
        <time>2022-10-02T11:29:52Z</time>
      </trkpt>
      <trkpt lat="47.46422" lon="8.16482">
        <ele>346.5</ele>
        <time>2022-10-02T11:29:53Z</time>
      </trkpt>
      <trkpt lat="47.4642" lon="8.16487">
        <ele>346.5</ele>
        <time>2022-10-02T11:29:54Z</time>
      </trkpt>
      <trkpt lat="47.46417" lon="8.16491">
        <ele>346.4</ele>
        <time>2022-10-02T11:29:55Z</time>
      </trkpt>
      <trkpt lat="47.46414" lon="8.16495">
        <ele>346.4</ele>
        <time>2022-10-02T11:29:56Z</time>
      </trkpt>
      <trkpt lat="47.46412" lon="8.165">
        <ele>346.4</ele>
        <time>2022-10-02T11:29:57Z</time>
      </trkpt>
      <trkpt lat="47.4641" lon="8.16504">
        <ele>346.3</ele>
        <time>2022-10-02T11:29:58Z</time>
      </trkpt>
      <trkpt lat="47.46408" lon="8.16508">
        <ele>346.2</ele>
        <time>2022-10-02T11:29:59Z</time>
      </trkpt>
      <trkpt lat="47.46408" lon="8.16509">
        <ele>346.2</ele>
        <time>2022-10-02T11:30:00Z</time>
      </trkpt>
      <trkpt lat="47.46405" lon="8.16514">
        <ele>346.2</ele>
        <time>2022-10-02T11:30:01Z</time>
      </trkpt>
      <trkpt lat="47.46403" lon="8.16516">
        <ele>346.1</ele>
        <time>2022-10-02T11:30:02Z</time>
      </trkpt>
      <trkpt lat="47.46402" lon="8.16518">
        <ele>346.1</ele>
        <time>2022-10-02T11:30:03Z</time>
      </trkpt>
      <trkpt lat="47.46401" lon="8.16522">
        <ele>346</ele>
        <time>2022-10-02T11:30:04Z</time>
      </trkpt>
      <trkpt lat="47.464" lon="8.16523">
        <ele>346</ele>
        <time>2022-10-02T11:30:05Z</time>
      </trkpt>
      <trkpt lat="47.46398" lon="8.16526">
        <ele>345.9</ele>
        <time>2022-10-02T11:30:06Z</time>
      </trkpt>
      <trkpt lat="47.46396" lon="8.1653">
        <ele>345.8</ele>
        <time>2022-10-02T11:30:07Z</time>
      </trkpt>
      <trkpt lat="47.46394" lon="8.16535">
        <ele>345.7</ele>
        <time>2022-10-02T11:30:08Z</time>
      </trkpt>
      <trkpt lat="47.46391" lon="8.16539">
        <ele>345.6</ele>
        <time>2022-10-02T11:30:09Z</time>
      </trkpt>
      <trkpt lat="47.46389" lon="8.16544">
        <ele>345.4</ele>
        <time>2022-10-02T11:30:10Z</time>
      </trkpt>
      <trkpt lat="47.46386" lon="8.16547">
        <ele>345.3</ele>
        <time>2022-10-02T11:30:11Z</time>
      </trkpt>
      <trkpt lat="47.46383" lon="8.16551">
        <ele>345.1</ele>
        <time>2022-10-02T11:30:12Z</time>
      </trkpt>
      <trkpt lat="47.46381" lon="8.16557">
        <ele>344.9</ele>
        <time>2022-10-02T11:30:13Z</time>
      </trkpt>
      <trkpt lat="47.46378" lon="8.16561">
        <ele>344.7</ele>
        <time>2022-10-02T11:30:14Z</time>
      </trkpt>
      <trkpt lat="47.46377" lon="8.16563">
        <ele>344.6</ele>
        <time>2022-10-02T11:30:15Z</time>
      </trkpt>
      <trkpt lat="47.46376" lon="8.16565">
        <ele>344.6</ele>
        <time>2022-10-02T11:30:16Z</time>
      </trkpt>
      <trkpt lat="47.46374" lon="8.1657">
        <ele>344.4</ele>
        <time>2022-10-02T11:30:17Z</time>
      </trkpt>
      <trkpt lat="47.46371" lon="8.16576">
        <ele>344.2</ele>
        <time>2022-10-02T11:30:18Z</time>
      </trkpt>
      <trkpt lat="47.4637" lon="8.16582">
        <ele>344</ele>
        <time>2022-10-02T11:30:19Z</time>
      </trkpt>
      <trkpt lat="47.4637" lon="8.16587">
        <ele>343.9</ele>
        <time>2022-10-02T11:30:20Z</time>
      </trkpt>
      <trkpt lat="47.46371" lon="8.16594">
        <ele>343.5</ele>
        <time>2022-10-02T11:30:21Z</time>
      </trkpt>
      <trkpt lat="47.46373" lon="8.16601">
        <ele>343.4</ele>
        <time>2022-10-02T11:30:22Z</time>
      </trkpt>
      <trkpt lat="47.46372" lon="8.16607">
        <ele>343.4</ele>
        <time>2022-10-02T11:30:23Z</time>
      </trkpt>
      <trkpt lat="47.46375" lon="8.16614">
        <ele>343.3</ele>
        <time>2022-10-02T11:30:24Z</time>
      </trkpt>
      <trkpt lat="47.46377" lon="8.1662">
        <ele>343.2</ele>
        <time>2022-10-02T11:30:25Z</time>
      </trkpt>
      <trkpt lat="47.46379" lon="8.16624">
        <ele>343.1</ele>
        <time>2022-10-02T11:30:26Z</time>
      </trkpt>
      <trkpt lat="47.46381" lon="8.16633">
        <ele>343.1</ele>
        <time>2022-10-02T11:30:27Z</time>
      </trkpt>
      <trkpt lat="47.46383" lon="8.1664">
        <ele>343</ele>
        <time>2022-10-02T11:30:28Z</time>
      </trkpt>
      <trkpt lat="47.46386" lon="8.16649">
        <ele>342.9</ele>
        <time>2022-10-02T11:30:29Z</time>
      </trkpt>
      <trkpt lat="47.46388" lon="8.16654">
        <ele>342.9</ele>
        <time>2022-10-02T11:30:30Z</time>
      </trkpt>
      <trkpt lat="47.4639" lon="8.16659">
        <ele>342.9</ele>
        <time>2022-10-02T11:30:31Z</time>
      </trkpt>
      <trkpt lat="47.46392" lon="8.16664">
        <ele>342.8</ele>
        <time>2022-10-02T11:30:32Z</time>
      </trkpt>
      <trkpt lat="47.46394" lon="8.16672">
        <ele>342.8</ele>
        <time>2022-10-02T11:30:33Z</time>
      </trkpt>
      <trkpt lat="47.46397" lon="8.16679">
        <ele>342.7</ele>
        <time>2022-10-02T11:30:34Z</time>
      </trkpt>
      <trkpt lat="47.464" lon="8.16687">
        <ele>342.7</ele>
        <time>2022-10-02T11:30:35Z</time>
      </trkpt>
      <trkpt lat="47.46403" lon="8.16695">
        <ele>342.6</ele>
        <time>2022-10-02T11:30:36Z</time>
      </trkpt>
      <trkpt lat="47.46406" lon="8.16702">
        <ele>342.6</ele>
        <time>2022-10-02T11:30:37Z</time>
      </trkpt>
      <trkpt lat="47.46408" lon="8.16707">
        <ele>342.5</ele>
        <time>2022-10-02T11:30:38Z</time>
      </trkpt>
      <trkpt lat="47.46411" lon="8.16713">
        <ele>342.5</ele>
        <time>2022-10-02T11:30:39Z</time>
      </trkpt>
      <trkpt lat="47.46412" lon="8.1672">
        <ele>342.5</ele>
        <time>2022-10-02T11:30:40Z</time>
      </trkpt>
      <trkpt lat="47.46414" lon="8.16729">
        <ele>342.5</ele>
        <time>2022-10-02T11:30:41Z</time>
      </trkpt>
      <trkpt lat="47.46416" lon="8.16736">
        <ele>342.5</ele>
        <time>2022-10-02T11:30:42Z</time>
      </trkpt>
      <trkpt lat="47.4642" lon="8.16742">
        <ele>342.5</ele>
        <time>2022-10-02T11:30:43Z</time>
      </trkpt>
      <trkpt lat="47.46423" lon="8.16754">
        <ele>342.4</ele>
        <time>2022-10-02T11:30:44Z</time>
      </trkpt>
      <trkpt lat="47.46425" lon="8.16761">
        <ele>342.4</ele>
        <time>2022-10-02T11:30:45Z</time>
      </trkpt>
      <trkpt lat="47.46429" lon="8.16767">
        <ele>342.4</ele>
        <time>2022-10-02T11:30:46Z</time>
      </trkpt>
      <trkpt lat="47.46431" lon="8.16773">
        <ele>342.4</ele>
        <time>2022-10-02T11:30:47Z</time>
      </trkpt>
      <trkpt lat="47.46432" lon="8.1678">
        <ele>342.4</ele>
        <time>2022-10-02T11:30:48Z</time>
      </trkpt>
      <trkpt lat="47.46434" lon="8.16787">
        <ele>342.4</ele>
        <time>2022-10-02T11:30:49Z</time>
      </trkpt>
      <trkpt lat="47.46435" lon="8.16794">
        <ele>342.4</ele>
        <time>2022-10-02T11:30:50Z</time>
      </trkpt>
      <trkpt lat="47.46438" lon="8.16802">
        <ele>342.4</ele>
        <time>2022-10-02T11:30:51Z</time>
      </trkpt>
      <trkpt lat="47.46441" lon="8.16812">
        <ele>342.3</ele>
        <time>2022-10-02T11:30:52Z</time>
      </trkpt>
      <trkpt lat="47.46444" lon="8.16822">
        <ele>342.3</ele>
        <time>2022-10-02T11:30:53Z</time>
      </trkpt>
      <trkpt lat="47.46447" lon="8.16827">
        <ele>342.3</ele>
        <time>2022-10-02T11:30:54Z</time>
      </trkpt>
      <trkpt lat="47.4645" lon="8.16833">
        <ele>342.3</ele>
        <time>2022-10-02T11:30:55Z</time>
      </trkpt>
      <trkpt lat="47.46453" lon="8.16841">
        <ele>342.3</ele>
        <time>2022-10-02T11:30:56Z</time>
      </trkpt>
      <trkpt lat="47.46458" lon="8.16859">
        <ele>342.3</ele>
        <time>2022-10-02T11:30:57Z</time>
      </trkpt>
      <trkpt lat="47.46459" lon="8.16866">
        <ele>342.3</ele>
        <time>2022-10-02T11:30:58Z</time>
      </trkpt>
      <trkpt lat="47.46463" lon="8.16873">
        <ele>342.3</ele>
        <time>2022-10-02T11:30:59Z</time>
      </trkpt>
      <trkpt lat="47.46464" lon="8.16878">
        <ele>342.3</ele>
        <time>2022-10-02T11:31:00Z</time>
      </trkpt>
      <trkpt lat="47.46467" lon="8.16885">
        <ele>342.3</ele>
        <time>2022-10-02T11:31:01Z</time>
      </trkpt>
      <trkpt lat="47.4647" lon="8.16891">
        <ele>342.3</ele>
        <time>2022-10-02T11:31:02Z</time>
      </trkpt>
      <trkpt lat="47.46472" lon="8.16903">
        <ele>342.3</ele>
        <time>2022-10-02T11:31:03Z</time>
      </trkpt>
      <trkpt lat="47.46474" lon="8.1691">
        <ele>342.3</ele>
        <time>2022-10-02T11:31:04Z</time>
      </trkpt>
      <trkpt lat="47.46474" lon="8.16924">
        <ele>342.3</ele>
        <time>2022-10-02T11:31:05Z</time>
      </trkpt>
      <trkpt lat="47.46477" lon="8.16931">
        <ele>342.3</ele>
        <time>2022-10-02T11:31:06Z</time>
      </trkpt>
      <trkpt lat="47.46481" lon="8.16935">
        <ele>342.3</ele>
        <time>2022-10-02T11:31:07Z</time>
      </trkpt>
      <trkpt lat="47.46484" lon="8.16947">
        <ele>342.3</ele>
        <time>2022-10-02T11:31:08Z</time>
      </trkpt>
      <trkpt lat="47.46489" lon="8.16954">
        <ele>342.2</ele>
        <time>2022-10-02T11:31:09Z</time>
      </trkpt>
      <trkpt lat="47.46491" lon="8.1696">
        <ele>342.2</ele>
        <time>2022-10-02T11:31:10Z</time>
      </trkpt>
      <trkpt lat="47.46493" lon="8.1697">
        <ele>342.2</ele>
        <time>2022-10-02T11:31:11Z</time>
      </trkpt>
      <trkpt lat="47.46497" lon="8.16982">
        <ele>342.2</ele>
        <time>2022-10-02T11:31:12Z</time>
      </trkpt>
      <trkpt lat="47.46501" lon="8.16991">
        <ele>342.2</ele>
        <time>2022-10-02T11:31:13Z</time>
      </trkpt>
      <trkpt lat="47.46505" lon="8.16998">
        <ele>342.1</ele>
        <time>2022-10-02T11:31:14Z</time>
      </trkpt>
      <trkpt lat="47.46508" lon="8.17004">
        <ele>342.1</ele>
        <time>2022-10-02T11:31:15Z</time>
      </trkpt>
      <trkpt lat="47.46511" lon="8.17013">
        <ele>342.1</ele>
        <time>2022-10-02T11:31:16Z</time>
      </trkpt>
      <trkpt lat="47.46514" lon="8.17023">
        <ele>342.1</ele>
        <time>2022-10-02T11:31:17Z</time>
      </trkpt>
      <trkpt lat="47.46516" lon="8.1703">
        <ele>342.1</ele>
        <time>2022-10-02T11:31:18Z</time>
      </trkpt>
      <trkpt lat="47.46519" lon="8.17039">
        <ele>342.1</ele>
        <time>2022-10-02T11:31:19Z</time>
      </trkpt>
      <trkpt lat="47.46524" lon="8.17047">
        <ele>342.1</ele>
        <time>2022-10-02T11:31:20Z</time>
      </trkpt>
      <trkpt lat="47.46526" lon="8.17055">
        <ele>342.1</ele>
        <time>2022-10-02T11:31:21Z</time>
      </trkpt>
      <trkpt lat="47.4653" lon="8.17062">
        <ele>342.1</ele>
        <time>2022-10-02T11:31:22Z</time>
      </trkpt>
      <trkpt lat="47.46531" lon="8.17067">
        <ele>342.1</ele>
        <time>2022-10-02T11:31:23Z</time>
      </trkpt>
      <trkpt lat="47.46534" lon="8.17076">
        <ele>342.1</ele>
        <time>2022-10-02T11:31:24Z</time>
      </trkpt>
      <trkpt lat="47.46537" lon="8.17083">
        <ele>342.1</ele>
        <time>2022-10-02T11:31:25Z</time>
      </trkpt>
      <trkpt lat="47.46538" lon="8.1709">
        <ele>342.1</ele>
        <time>2022-10-02T11:31:26Z</time>
      </trkpt>
      <trkpt lat="47.46539" lon="8.17096">
        <ele>342.1</ele>
        <time>2022-10-02T11:31:27Z</time>
      </trkpt>
      <trkpt lat="47.4654" lon="8.17103">
        <ele>342.1</ele>
        <time>2022-10-02T11:31:28Z</time>
      </trkpt>
      <trkpt lat="47.46541" lon="8.17107">
        <ele>342.1</ele>
        <time>2022-10-02T11:31:29Z</time>
      </trkpt>
      <trkpt lat="47.4654" lon="8.17112">
        <ele>342.1</ele>
        <time>2022-10-02T11:31:30Z</time>
      </trkpt>
      <trkpt lat="47.46539" lon="8.17118">
        <ele>342.2</ele>
        <time>2022-10-02T11:31:31Z</time>
      </trkpt>
      <trkpt lat="47.46538" lon="8.17125">
        <ele>342.2</ele>
        <time>2022-10-02T11:31:32Z</time>
      </trkpt>
      <trkpt lat="47.46537" lon="8.17128">
        <ele>342.2</ele>
        <time>2022-10-02T11:31:33Z</time>
      </trkpt>
      <trkpt lat="47.46535" lon="8.17133">
        <ele>342.2</ele>
        <time>2022-10-02T11:31:34Z</time>
      </trkpt>
      <trkpt lat="47.46534" lon="8.17138">
        <ele>342.2</ele>
        <time>2022-10-02T11:31:35Z</time>
      </trkpt>
      <trkpt lat="47.46533" lon="8.1714">
        <ele>342.2</ele>
        <time>2022-10-02T11:31:36Z</time>
      </trkpt>
      <trkpt lat="47.46531" lon="8.17145">
        <ele>342.1</ele>
        <time>2022-10-02T11:31:37Z</time>
      </trkpt>
      <trkpt lat="47.46527" lon="8.17149">
        <ele>342.1</ele>
        <time>2022-10-02T11:31:38Z</time>
      </trkpt>
      <trkpt lat="47.46526" lon="8.17154">
        <ele>342.1</ele>
        <time>2022-10-02T11:31:39Z</time>
      </trkpt>
      <trkpt lat="47.46524" lon="8.17161">
        <ele>342.1</ele>
        <time>2022-10-02T11:31:40Z</time>
      </trkpt>
      <trkpt lat="47.46521" lon="8.17167">
        <ele>342</ele>
        <time>2022-10-02T11:31:41Z</time>
      </trkpt>
      <trkpt lat="47.46519" lon="8.17173">
        <ele>342</ele>
        <time>2022-10-02T11:31:42Z</time>
      </trkpt>
      <trkpt lat="47.46516" lon="8.17178">
        <ele>342</ele>
        <time>2022-10-02T11:31:43Z</time>
      </trkpt>
      <trkpt lat="47.46512" lon="8.17183">
        <ele>342</ele>
        <time>2022-10-02T11:31:44Z</time>
      </trkpt>
      <trkpt lat="47.4651" lon="8.17189">
        <ele>342</ele>
        <time>2022-10-02T11:31:45Z</time>
      </trkpt>
      <trkpt lat="47.46507" lon="8.17195">
        <ele>341.9</ele>
        <time>2022-10-02T11:31:47Z</time>
      </trkpt>
      <trkpt lat="47.46504" lon="8.172">
        <ele>341.9</ele>
        <time>2022-10-02T11:31:48Z</time>
      </trkpt>
      <trkpt lat="47.465" lon="8.17207">
        <ele>342</ele>
        <time>2022-10-02T11:31:49Z</time>
      </trkpt>
      <trkpt lat="47.46497" lon="8.17214">
        <ele>342</ele>
        <time>2022-10-02T11:31:50Z</time>
      </trkpt>
      <trkpt lat="47.46493" lon="8.1722">
        <ele>342</ele>
        <time>2022-10-02T11:31:51Z</time>
      </trkpt>
      <trkpt lat="47.4649" lon="8.17226">
        <ele>342</ele>
        <time>2022-10-02T11:31:52Z</time>
      </trkpt>
      <trkpt lat="47.46488" lon="8.17232">
        <ele>342</ele>
        <time>2022-10-02T11:31:53Z</time>
      </trkpt>
      <trkpt lat="47.46485" lon="8.17237">
        <ele>342.1</ele>
        <time>2022-10-02T11:31:54Z</time>
      </trkpt>
      <trkpt lat="47.46481" lon="8.17244">
        <ele>342.1</ele>
        <time>2022-10-02T11:31:55Z</time>
      </trkpt>
      <trkpt lat="47.46477" lon="8.1725">
        <ele>342.1</ele>
        <time>2022-10-02T11:31:56Z</time>
      </trkpt>
      <trkpt lat="47.46475" lon="8.17257">
        <ele>342.2</ele>
        <time>2022-10-02T11:31:57Z</time>
      </trkpt>
      <trkpt lat="47.46471" lon="8.17262">
        <ele>342.2</ele>
        <time>2022-10-02T11:31:58Z</time>
      </trkpt>
      <trkpt lat="47.46469" lon="8.17267">
        <ele>342.2</ele>
        <time>2022-10-02T11:31:59Z</time>
      </trkpt>
      <trkpt lat="47.46467" lon="8.17272">
        <ele>342.2</ele>
        <time>2022-10-02T11:32:00Z</time>
      </trkpt>
      <trkpt lat="47.46464" lon="8.17277">
        <ele>342.2</ele>
        <time>2022-10-02T11:32:01Z</time>
      </trkpt>
      <trkpt lat="47.46461" lon="8.17282">
        <ele>342.2</ele>
        <time>2022-10-02T11:32:02Z</time>
      </trkpt>
      <trkpt lat="47.46457" lon="8.17288">
        <ele>342.2</ele>
        <time>2022-10-02T11:32:03Z</time>
      </trkpt>
      <trkpt lat="47.46454" lon="8.17293">
        <ele>342.3</ele>
        <time>2022-10-02T11:32:04Z</time>
      </trkpt>
      <trkpt lat="47.46451" lon="8.17297">
        <ele>342.3</ele>
        <time>2022-10-02T11:32:05Z</time>
      </trkpt>
      <trkpt lat="47.46448" lon="8.173">
        <ele>342.3</ele>
        <time>2022-10-02T11:32:06Z</time>
      </trkpt>
      <trkpt lat="47.46445" lon="8.17304">
        <ele>342.3</ele>
        <time>2022-10-02T11:32:07Z</time>
      </trkpt>
      <trkpt lat="47.46443" lon="8.17308">
        <ele>342.4</ele>
        <time>2022-10-02T11:32:08Z</time>
      </trkpt>
      <trkpt lat="47.4644" lon="8.17311">
        <ele>342.4</ele>
        <time>2022-10-02T11:32:09Z</time>
      </trkpt>
      <trkpt lat="47.46438" lon="8.17314">
        <ele>342.4</ele>
        <time>2022-10-02T11:32:10Z</time>
      </trkpt>
      <trkpt lat="47.46435" lon="8.17318">
        <ele>342.5</ele>
        <time>2022-10-02T11:32:11Z</time>
      </trkpt>
      <trkpt lat="47.46432" lon="8.17322">
        <ele>342.5</ele>
        <time>2022-10-02T11:32:12Z</time>
      </trkpt>
      <trkpt lat="47.46428" lon="8.17324">
        <ele>342.6</ele>
        <time>2022-10-02T11:32:13Z</time>
      </trkpt>
      <trkpt lat="47.46426" lon="8.17327">
        <ele>342.6</ele>
        <time>2022-10-02T11:32:14Z</time>
      </trkpt>
      <trkpt lat="47.46423" lon="8.17332">
        <ele>342.7</ele>
        <time>2022-10-02T11:32:15Z</time>
      </trkpt>
      <trkpt lat="47.4642" lon="8.17335">
        <ele>342.7</ele>
        <time>2022-10-02T11:32:16Z</time>
      </trkpt>
      <trkpt lat="47.46417" lon="8.17339">
        <ele>342.7</ele>
        <time>2022-10-02T11:32:17Z</time>
      </trkpt>
      <trkpt lat="47.46415" lon="8.17344">
        <ele>342.7</ele>
        <time>2022-10-02T11:32:18Z</time>
      </trkpt>
      <trkpt lat="47.46412" lon="8.17351">
        <ele>342.8</ele>
        <time>2022-10-02T11:32:19Z</time>
      </trkpt>
      <trkpt lat="47.46409" lon="8.17357">
        <ele>342.8</ele>
        <time>2022-10-02T11:32:20Z</time>
      </trkpt>
      <trkpt lat="47.46407" lon="8.17365">
        <ele>342.8</ele>
        <time>2022-10-02T11:32:21Z</time>
      </trkpt>
      <trkpt lat="47.46408" lon="8.17371">
        <ele>342.8</ele>
        <time>2022-10-02T11:32:22Z</time>
      </trkpt>
      <trkpt lat="47.46409" lon="8.17378">
        <ele>342.8</ele>
        <time>2022-10-02T11:32:23Z</time>
      </trkpt>
      <trkpt lat="47.4641" lon="8.17385">
        <ele>342.8</ele>
        <time>2022-10-02T11:32:24Z</time>
      </trkpt>
      <trkpt lat="47.46415" lon="8.17396">
        <ele>342.8</ele>
        <time>2022-10-02T11:32:25Z</time>
      </trkpt>
      <trkpt lat="47.46418" lon="8.17401">
        <ele>342.8</ele>
        <time>2022-10-02T11:32:26Z</time>
      </trkpt>
      <trkpt lat="47.46421" lon="8.17406">
        <ele>342.8</ele>
        <time>2022-10-02T11:32:27Z</time>
      </trkpt>
      <trkpt lat="47.46424" lon="8.17412">
        <ele>342.9</ele>
        <time>2022-10-02T11:32:28Z</time>
      </trkpt>
      <trkpt lat="47.46427" lon="8.17417">
        <ele>342.9</ele>
        <time>2022-10-02T11:32:29Z</time>
      </trkpt>
      <trkpt lat="47.4643" lon="8.17422">
        <ele>343</ele>
        <time>2022-10-02T11:32:30Z</time>
      </trkpt>
      <trkpt lat="47.46433" lon="8.17427">
        <ele>343.1</ele>
        <time>2022-10-02T11:32:31Z</time>
      </trkpt>
      <trkpt lat="47.46436" lon="8.17433">
        <ele>343.1</ele>
        <time>2022-10-02T11:32:32Z</time>
      </trkpt>
      <trkpt lat="47.46439" lon="8.17438">
        <ele>343.2</ele>
        <time>2022-10-02T11:32:33Z</time>
      </trkpt>
      <trkpt lat="47.46442" lon="8.17443">
        <ele>343.3</ele>
        <time>2022-10-02T11:32:34Z</time>
      </trkpt>
      <trkpt lat="47.46445" lon="8.17448">
        <ele>343.3</ele>
        <time>2022-10-02T11:32:35Z</time>
      </trkpt>
      <trkpt lat="47.46448" lon="8.17453">
        <ele>343.4</ele>
        <time>2022-10-02T11:32:36Z</time>
      </trkpt>
      <trkpt lat="47.46452" lon="8.17457">
        <ele>343.5</ele>
        <time>2022-10-02T11:32:37Z</time>
      </trkpt>
      <trkpt lat="47.46455" lon="8.17462">
        <ele>343.5</ele>
        <time>2022-10-02T11:32:38Z</time>
      </trkpt>
      <trkpt lat="47.46459" lon="8.17466">
        <ele>343.6</ele>
        <time>2022-10-02T11:32:39Z</time>
      </trkpt>
      <trkpt lat="47.46462" lon="8.17471">
        <ele>343.6</ele>
        <time>2022-10-02T11:32:40Z</time>
      </trkpt>
      <trkpt lat="47.46466" lon="8.17477">
        <ele>343.7</ele>
        <time>2022-10-02T11:32:41Z</time>
      </trkpt>
      <trkpt lat="47.46469" lon="8.17481">
        <ele>343.7</ele>
        <time>2022-10-02T11:32:42Z</time>
      </trkpt>
      <trkpt lat="47.46473" lon="8.17486">
        <ele>343.8</ele>
        <time>2022-10-02T11:32:43Z</time>
      </trkpt>
      <trkpt lat="47.46476" lon="8.17491">
        <ele>343.8</ele>
        <time>2022-10-02T11:32:44Z</time>
      </trkpt>
      <trkpt lat="47.4648" lon="8.17496">
        <ele>343.9</ele>
        <time>2022-10-02T11:32:45Z</time>
      </trkpt>
      <trkpt lat="47.46482" lon="8.17501">
        <ele>343.9</ele>
        <time>2022-10-02T11:32:46Z</time>
      </trkpt>
      <trkpt lat="47.46486" lon="8.17506">
        <ele>343.9</ele>
        <time>2022-10-02T11:32:47Z</time>
      </trkpt>
      <trkpt lat="47.46489" lon="8.1751">
        <ele>344</ele>
        <time>2022-10-02T11:32:48Z</time>
      </trkpt>
      <trkpt lat="47.46493" lon="8.17515">
        <ele>344</ele>
        <time>2022-10-02T11:32:49Z</time>
      </trkpt>
      <trkpt lat="47.46497" lon="8.1752">
        <ele>344.1</ele>
        <time>2022-10-02T11:32:50Z</time>
      </trkpt>
      <trkpt lat="47.46501" lon="8.17525">
        <ele>344.1</ele>
        <time>2022-10-02T11:32:51Z</time>
      </trkpt>
      <trkpt lat="47.46505" lon="8.1753">
        <ele>344.1</ele>
        <time>2022-10-02T11:32:52Z</time>
      </trkpt>
      <trkpt lat="47.46508" lon="8.17535">
        <ele>344.2</ele>
        <time>2022-10-02T11:32:53Z</time>
      </trkpt>
      <trkpt lat="47.46512" lon="8.1754">
        <ele>344.2</ele>
        <time>2022-10-02T11:32:54Z</time>
      </trkpt>
      <trkpt lat="47.46516" lon="8.17544">
        <ele>344.2</ele>
        <time>2022-10-02T11:32:55Z</time>
      </trkpt>
      <trkpt lat="47.46519" lon="8.17548">
        <ele>344.2</ele>
        <time>2022-10-02T11:32:56Z</time>
      </trkpt>
      <trkpt lat="47.46523" lon="8.17555">
        <ele>344.3</ele>
        <time>2022-10-02T11:32:57Z</time>
      </trkpt>
      <trkpt lat="47.46527" lon="8.1756">
        <ele>344.3</ele>
        <time>2022-10-02T11:32:58Z</time>
      </trkpt>
      <trkpt lat="47.46531" lon="8.17565">
        <ele>344.3</ele>
        <time>2022-10-02T11:32:59Z</time>
      </trkpt>
      <trkpt lat="47.46534" lon="8.17571">
        <ele>344.3</ele>
        <time>2022-10-02T11:33:00Z</time>
      </trkpt>
      <trkpt lat="47.46538" lon="8.17576">
        <ele>344.3</ele>
        <time>2022-10-02T11:33:01Z</time>
      </trkpt>
      <trkpt lat="47.46543" lon="8.17581">
        <ele>344.3</ele>
        <time>2022-10-02T11:33:02Z</time>
      </trkpt>
      <trkpt lat="47.46547" lon="8.17586">
        <ele>344.3</ele>
        <time>2022-10-02T11:33:03Z</time>
      </trkpt>
      <trkpt lat="47.46551" lon="8.17592">
        <ele>344.3</ele>
        <time>2022-10-02T11:33:04Z</time>
      </trkpt>
      <trkpt lat="47.46555" lon="8.17597">
        <ele>344.3</ele>
        <time>2022-10-02T11:33:05Z</time>
      </trkpt>
      <trkpt lat="47.46559" lon="8.17603">
        <ele>344.3</ele>
        <time>2022-10-02T11:33:06Z</time>
      </trkpt>
      <trkpt lat="47.46563" lon="8.17609">
        <ele>344.2</ele>
        <time>2022-10-02T11:33:07Z</time>
      </trkpt>
      <trkpt lat="47.46567" lon="8.17613">
        <ele>344.2</ele>
        <time>2022-10-02T11:33:08Z</time>
      </trkpt>
      <trkpt lat="47.46571" lon="8.17619">
        <ele>344.1</ele>
        <time>2022-10-02T11:33:09Z</time>
      </trkpt>
      <trkpt lat="47.46576" lon="8.17625">
        <ele>344.1</ele>
        <time>2022-10-02T11:33:10Z</time>
      </trkpt>
      <trkpt lat="47.4658" lon="8.17631">
        <ele>344</ele>
        <time>2022-10-02T11:33:11Z</time>
      </trkpt>
      <trkpt lat="47.46584" lon="8.17637">
        <ele>344</ele>
        <time>2022-10-02T11:33:12Z</time>
      </trkpt>
      <trkpt lat="47.46588" lon="8.17643">
        <ele>343.9</ele>
        <time>2022-10-02T11:33:13Z</time>
      </trkpt>
      <trkpt lat="47.46592" lon="8.17649">
        <ele>343.8</ele>
        <time>2022-10-02T11:33:14Z</time>
      </trkpt>
      <trkpt lat="47.46597" lon="8.17655">
        <ele>343.8</ele>
        <time>2022-10-02T11:33:15Z</time>
      </trkpt>
      <trkpt lat="47.46601" lon="8.17663">
        <ele>343.7</ele>
        <time>2022-10-02T11:33:16Z</time>
      </trkpt>
      <trkpt lat="47.46605" lon="8.17668">
        <ele>343.6</ele>
        <time>2022-10-02T11:33:17Z</time>
      </trkpt>
      <trkpt lat="47.46609" lon="8.17675">
        <ele>343.6</ele>
        <time>2022-10-02T11:33:18Z</time>
      </trkpt>
      <trkpt lat="47.46612" lon="8.17682">
        <ele>343.5</ele>
        <time>2022-10-02T11:33:19Z</time>
      </trkpt>
      <trkpt lat="47.46616" lon="8.17689">
        <ele>343.4</ele>
        <time>2022-10-02T11:33:20Z</time>
      </trkpt>
      <trkpt lat="47.46619" lon="8.17696">
        <ele>343.3</ele>
        <time>2022-10-02T11:33:21Z</time>
      </trkpt>
      <trkpt lat="47.46623" lon="8.17704">
        <ele>343.2</ele>
        <time>2022-10-02T11:33:22Z</time>
      </trkpt>
      <trkpt lat="47.46627" lon="8.17711">
        <ele>343.1</ele>
        <time>2022-10-02T11:33:23Z</time>
      </trkpt>
      <trkpt lat="47.46629" lon="8.17719">
        <ele>343</ele>
        <time>2022-10-02T11:33:24Z</time>
      </trkpt>
      <trkpt lat="47.46633" lon="8.17727">
        <ele>342.9</ele>
        <time>2022-10-02T11:33:25Z</time>
      </trkpt>
      <trkpt lat="47.46636" lon="8.17734">
        <ele>342.8</ele>
        <time>2022-10-02T11:33:26Z</time>
      </trkpt>
      <trkpt lat="47.46639" lon="8.17742">
        <ele>342.7</ele>
        <time>2022-10-02T11:33:27Z</time>
      </trkpt>
      <trkpt lat="47.46642" lon="8.1775">
        <ele>342.7</ele>
        <time>2022-10-02T11:33:28Z</time>
      </trkpt>
      <trkpt lat="47.46645" lon="8.17759">
        <ele>342.6</ele>
        <time>2022-10-02T11:33:29Z</time>
      </trkpt>
      <trkpt lat="47.46648" lon="8.17768">
        <ele>342.5</ele>
        <time>2022-10-02T11:33:30Z</time>
      </trkpt>
      <trkpt lat="47.46651" lon="8.17776">
        <ele>342.4</ele>
        <time>2022-10-02T11:33:31Z</time>
      </trkpt>
      <trkpt lat="47.46653" lon="8.17784">
        <ele>342.4</ele>
        <time>2022-10-02T11:33:32Z</time>
      </trkpt>
      <trkpt lat="47.46655" lon="8.17791">
        <ele>342.3</ele>
        <time>2022-10-02T11:33:33Z</time>
      </trkpt>
      <trkpt lat="47.46658" lon="8.17798">
        <ele>342.3</ele>
        <time>2022-10-02T11:33:34Z</time>
      </trkpt>
      <trkpt lat="47.46659" lon="8.17805">
        <ele>342.2</ele>
        <time>2022-10-02T11:33:35Z</time>
      </trkpt>
      <trkpt lat="47.46661" lon="8.17811">
        <ele>342.2</ele>
        <time>2022-10-02T11:33:36Z</time>
      </trkpt>
      <trkpt lat="47.46663" lon="8.17816">
        <ele>342.2</ele>
        <time>2022-10-02T11:33:37Z</time>
      </trkpt>
      <trkpt lat="47.46666" lon="8.17818">
        <ele>342.2</ele>
        <time>2022-10-02T11:33:38Z</time>
      </trkpt>
      <trkpt lat="47.4667" lon="8.17819">
        <ele>342.2</ele>
        <time>2022-10-02T11:33:39Z</time>
      </trkpt>
      <trkpt lat="47.46673" lon="8.1782">
        <ele>342.2</ele>
        <time>2022-10-02T11:33:40Z</time>
      </trkpt>
      <trkpt lat="47.46677" lon="8.17819">
        <ele>342.1</ele>
        <time>2022-10-02T11:33:41Z</time>
      </trkpt>
      <trkpt lat="47.46681" lon="8.17818">
        <ele>342.1</ele>
        <time>2022-10-02T11:33:42Z</time>
      </trkpt>
      <trkpt lat="47.46684" lon="8.17816">
        <ele>342.1</ele>
        <time>2022-10-02T11:33:43Z</time>
      </trkpt>
      <trkpt lat="47.46686" lon="8.17812">
        <ele>342.1</ele>
        <time>2022-10-02T11:33:44Z</time>
      </trkpt>
      <trkpt lat="47.4669" lon="8.1781">
        <ele>342.1</ele>
        <time>2022-10-02T11:33:45Z</time>
      </trkpt>
      <trkpt lat="47.46693" lon="8.17809">
        <ele>342.1</ele>
        <time>2022-10-02T11:33:46Z</time>
      </trkpt>
      <trkpt lat="47.46696" lon="8.17807">
        <ele>342.1</ele>
        <time>2022-10-02T11:33:47Z</time>
      </trkpt>
      <trkpt lat="47.46699" lon="8.17805">
        <ele>342.1</ele>
        <time>2022-10-02T11:33:48Z</time>
      </trkpt>
      <trkpt lat="47.46702" lon="8.17802">
        <ele>342.1</ele>
        <time>2022-10-02T11:33:49Z</time>
      </trkpt>
      <trkpt lat="47.46705" lon="8.178">
        <ele>342.1</ele>
        <time>2022-10-02T11:33:50Z</time>
      </trkpt>
      <trkpt lat="47.46709" lon="8.17797">
        <ele>342.2</ele>
        <time>2022-10-02T11:33:51Z</time>
      </trkpt>
      <trkpt lat="47.46712" lon="8.17794">
        <ele>342.2</ele>
        <time>2022-10-02T11:33:53Z</time>
      </trkpt>
      <trkpt lat="47.46716" lon="8.17791">
        <ele>342.2</ele>
        <time>2022-10-02T11:33:54Z</time>
      </trkpt>
      <trkpt lat="47.46719" lon="8.17788">
        <ele>342.2</ele>
        <time>2022-10-02T11:33:55Z</time>
      </trkpt>
      <trkpt lat="47.46723" lon="8.17786">
        <ele>342.2</ele>
        <time>2022-10-02T11:33:56Z</time>
      </trkpt>
      <trkpt lat="47.46727" lon="8.17783">
        <ele>342.2</ele>
        <time>2022-10-02T11:33:57Z</time>
      </trkpt>
      <trkpt lat="47.4673" lon="8.1778">
        <ele>342.2</ele>
        <time>2022-10-02T11:33:58Z</time>
      </trkpt>
      <trkpt lat="47.46734" lon="8.17776">
        <ele>342.2</ele>
        <time>2022-10-02T11:33:59Z</time>
      </trkpt>
      <trkpt lat="47.46737" lon="8.17773">
        <ele>342.2</ele>
        <time>2022-10-02T11:34:00Z</time>
      </trkpt>
      <trkpt lat="47.4674" lon="8.1777">
        <ele>342.2</ele>
        <time>2022-10-02T11:34:01Z</time>
      </trkpt>
      <trkpt lat="47.46744" lon="8.17767">
        <ele>342.2</ele>
        <time>2022-10-02T11:34:02Z</time>
      </trkpt>
      <trkpt lat="47.46748" lon="8.17765">
        <ele>342.2</ele>
        <time>2022-10-02T11:34:03Z</time>
      </trkpt>
      <trkpt lat="47.46751" lon="8.17762">
        <ele>342.2</ele>
        <time>2022-10-02T11:34:04Z</time>
      </trkpt>
      <trkpt lat="47.46754" lon="8.1776">
        <ele>342.2</ele>
        <time>2022-10-02T11:34:05Z</time>
      </trkpt>
      <trkpt lat="47.46757" lon="8.17757">
        <ele>342.2</ele>
        <time>2022-10-02T11:34:06Z</time>
      </trkpt>
      <trkpt lat="47.46761" lon="8.17753">
        <ele>342.2</ele>
        <time>2022-10-02T11:34:07Z</time>
      </trkpt>
      <trkpt lat="47.46764" lon="8.17751">
        <ele>342.2</ele>
        <time>2022-10-02T11:34:08Z</time>
      </trkpt>
      <trkpt lat="47.46766" lon="8.1775">
        <ele>342.2</ele>
        <time>2022-10-02T11:34:09Z</time>
      </trkpt>
      <trkpt lat="47.46769" lon="8.17748">
        <ele>342.1</ele>
        <time>2022-10-02T11:34:10Z</time>
      </trkpt>
      <trkpt lat="47.46773" lon="8.17745">
        <ele>342.1</ele>
        <time>2022-10-02T11:34:11Z</time>
      </trkpt>
      <trkpt lat="47.46774" lon="8.17744">
        <ele>342.1</ele>
        <time>2022-10-02T11:34:12Z</time>
      </trkpt>
      <trkpt lat="47.46777" lon="8.17743">
        <ele>342.1</ele>
        <time>2022-10-02T11:34:13Z</time>
      </trkpt>
      <trkpt lat="47.4678" lon="8.1774">
        <ele>342.1</ele>
        <time>2022-10-02T11:34:14Z</time>
      </trkpt>
      <trkpt lat="47.46784" lon="8.17738">
        <ele>342.1</ele>
        <time>2022-10-02T11:34:15Z</time>
      </trkpt>
      <trkpt lat="47.46788" lon="8.17736">
        <ele>342</ele>
        <time>2022-10-02T11:34:16Z</time>
      </trkpt>
      <trkpt lat="47.46792" lon="8.17737">
        <ele>342</ele>
        <time>2022-10-02T11:34:17Z</time>
      </trkpt>
      <trkpt lat="47.46794" lon="8.17736">
        <ele>342</ele>
        <time>2022-10-02T11:34:18Z</time>
      </trkpt>
      <trkpt lat="47.46798" lon="8.17737">
        <ele>342</ele>
        <time>2022-10-02T11:34:19Z</time>
      </trkpt>
      <trkpt lat="47.468" lon="8.17736">
        <ele>341.9</ele>
        <time>2022-10-02T11:34:20Z</time>
      </trkpt>
      <trkpt lat="47.46803" lon="8.17737">
        <ele>341.9</ele>
        <time>2022-10-02T11:34:21Z</time>
      </trkpt>
      <trkpt lat="47.46807" lon="8.17738">
        <ele>341.9</ele>
        <time>2022-10-02T11:34:22Z</time>
      </trkpt>
      <trkpt lat="47.46808" lon="8.17737">
        <ele>341.9</ele>
        <time>2022-10-02T11:34:23Z</time>
      </trkpt>
      <trkpt lat="47.46811" lon="8.17737">
        <ele>341.8</ele>
        <time>2022-10-02T11:34:24Z</time>
      </trkpt>
      <trkpt lat="47.46812" lon="8.17737">
        <ele>341.8</ele>
        <time>2022-10-02T11:34:25Z</time>
      </trkpt>
      <trkpt lat="47.46814" lon="8.17738">
        <ele>341.8</ele>
        <time>2022-10-02T11:34:26Z</time>
      </trkpt>
      <trkpt lat="47.46816" lon="8.17739">
        <ele>341.8</ele>
        <time>2022-10-02T11:34:27Z</time>
      </trkpt>
      <trkpt lat="47.46817" lon="8.17739">
        <ele>341.7</ele>
        <time>2022-10-02T11:34:28Z</time>
      </trkpt>
      <trkpt lat="47.46818" lon="8.17739">
        <ele>341.7</ele>
        <time>2022-10-02T11:34:29Z</time>
      </trkpt>
      <trkpt lat="47.46821" lon="8.17739">
        <ele>341.7</ele>
        <time>2022-10-02T11:34:30Z</time>
      </trkpt>
      <trkpt lat="47.46825" lon="8.17738">
        <ele>341.6</ele>
        <time>2022-10-02T11:34:31Z</time>
      </trkpt>
      <trkpt lat="47.4683" lon="8.17742">
        <ele>341.6</ele>
        <time>2022-10-02T11:34:32Z</time>
      </trkpt>
      <trkpt lat="47.46832" lon="8.17745">
        <ele>341.6</ele>
        <time>2022-10-02T11:34:33Z</time>
      </trkpt>
      <trkpt lat="47.46834" lon="8.17749">
        <ele>341.7</ele>
        <time>2022-10-02T11:34:34Z</time>
      </trkpt>
      <trkpt lat="47.46835" lon="8.1775">
        <ele>341.7</ele>
        <time>2022-10-02T11:34:35Z</time>
      </trkpt>
      <trkpt lat="47.46838" lon="8.17754">
        <ele>341.7</ele>
        <time>2022-10-02T11:34:36Z</time>
      </trkpt>
      <trkpt lat="47.46839" lon="8.17756">
        <ele>341.7</ele>
        <time>2022-10-02T11:34:37Z</time>
      </trkpt>
      <trkpt lat="47.46841" lon="8.1776">
        <ele>341.7</ele>
        <time>2022-10-02T11:34:38Z</time>
      </trkpt>
      <trkpt lat="47.46842" lon="8.17761">
        <ele>341.7</ele>
        <time>2022-10-02T11:34:39Z</time>
      </trkpt>
      <trkpt lat="47.46845" lon="8.17766">
        <ele>341.7</ele>
        <time>2022-10-02T11:34:40Z</time>
      </trkpt>
      <trkpt lat="47.46847" lon="8.17768">
        <ele>341.7</ele>
        <time>2022-10-02T11:34:41Z</time>
      </trkpt>
      <trkpt lat="47.46849" lon="8.17772">
        <ele>341.7</ele>
        <time>2022-10-02T11:34:42Z</time>
      </trkpt>
      <trkpt lat="47.46851" lon="8.17777">
        <ele>341.7</ele>
        <time>2022-10-02T11:34:43Z</time>
      </trkpt>
      <trkpt lat="47.46855" lon="8.17779">
        <ele>341.7</ele>
        <time>2022-10-02T11:34:44Z</time>
      </trkpt>
      <trkpt lat="47.46857" lon="8.17784">
        <ele>341.6</ele>
        <time>2022-10-02T11:34:45Z</time>
      </trkpt>
      <trkpt lat="47.4686" lon="8.17789">
        <ele>341.6</ele>
        <time>2022-10-02T11:34:46Z</time>
      </trkpt>
      <trkpt lat="47.46863" lon="8.17793">
        <ele>341.5</ele>
        <time>2022-10-02T11:34:47Z</time>
      </trkpt>
      <trkpt lat="47.46866" lon="8.17796">
        <ele>341.4</ele>
        <time>2022-10-02T11:34:48Z</time>
      </trkpt>
      <trkpt lat="47.46868" lon="8.17801">
        <ele>341.4</ele>
        <time>2022-10-02T11:34:49Z</time>
      </trkpt>
      <trkpt lat="47.46871" lon="8.17804">
        <ele>341.3</ele>
        <time>2022-10-02T11:34:50Z</time>
      </trkpt>
      <trkpt lat="47.46875" lon="8.1781">
        <ele>341.2</ele>
        <time>2022-10-02T11:34:51Z</time>
      </trkpt>
      <trkpt lat="47.46877" lon="8.17813">
        <ele>341.1</ele>
        <time>2022-10-02T11:34:52Z</time>
      </trkpt>
      <trkpt lat="47.4688" lon="8.17818">
        <ele>341</ele>
        <time>2022-10-02T11:34:53Z</time>
      </trkpt>
      <trkpt lat="47.46884" lon="8.17822">
        <ele>341</ele>
        <time>2022-10-02T11:34:54Z</time>
      </trkpt>
      <trkpt lat="47.46887" lon="8.17827">
        <ele>340.9</ele>
        <time>2022-10-02T11:34:55Z</time>
      </trkpt>
      <trkpt lat="47.4689" lon="8.17832">
        <ele>340.9</ele>
        <time>2022-10-02T11:34:56Z</time>
      </trkpt>
      <trkpt lat="47.46894" lon="8.17836">
        <ele>340.8</ele>
        <time>2022-10-02T11:34:57Z</time>
      </trkpt>
      <trkpt lat="47.46897" lon="8.17842">
        <ele>340.8</ele>
        <time>2022-10-02T11:34:58Z</time>
      </trkpt>
      <trkpt lat="47.46898" lon="8.17847">
        <ele>340.7</ele>
        <time>2022-10-02T11:34:59Z</time>
      </trkpt>
      <trkpt lat="47.46902" lon="8.17855">
        <ele>340.7</ele>
        <time>2022-10-02T11:35:00Z</time>
      </trkpt>
      <trkpt lat="47.46905" lon="8.17861">
        <ele>340.7</ele>
        <time>2022-10-02T11:35:01Z</time>
      </trkpt>
      <trkpt lat="47.46907" lon="8.17867">
        <ele>340.6</ele>
        <time>2022-10-02T11:35:02Z</time>
      </trkpt>
      <trkpt lat="47.46909" lon="8.17874">
        <ele>340.6</ele>
        <time>2022-10-02T11:35:03Z</time>
      </trkpt>
      <trkpt lat="47.46913" lon="8.17882">
        <ele>340.6</ele>
        <time>2022-10-02T11:35:04Z</time>
      </trkpt>
      <trkpt lat="47.46914" lon="8.17888">
        <ele>340.5</ele>
        <time>2022-10-02T11:35:05Z</time>
      </trkpt>
      <trkpt lat="47.46917" lon="8.17894">
        <ele>340.5</ele>
        <time>2022-10-02T11:35:06Z</time>
      </trkpt>
      <trkpt lat="47.4692" lon="8.179">
        <ele>340.5</ele>
        <time>2022-10-02T11:35:07Z</time>
      </trkpt>
      <trkpt lat="47.46923" lon="8.17907">
        <ele>340.5</ele>
        <time>2022-10-02T11:35:08Z</time>
      </trkpt>
      <trkpt lat="47.46926" lon="8.17913">
        <ele>340.5</ele>
        <time>2022-10-02T11:35:09Z</time>
      </trkpt>
      <trkpt lat="47.4693" lon="8.17919">
        <ele>340.4</ele>
        <time>2022-10-02T11:35:10Z</time>
      </trkpt>
      <trkpt lat="47.46933" lon="8.17927">
        <ele>340.4</ele>
        <time>2022-10-02T11:35:11Z</time>
      </trkpt>
      <trkpt lat="47.46937" lon="8.17933">
        <ele>340.4</ele>
        <time>2022-10-02T11:35:12Z</time>
      </trkpt>
      <trkpt lat="47.46942" lon="8.17938">
        <ele>340.4</ele>
        <time>2022-10-02T11:35:13Z</time>
      </trkpt>
      <trkpt lat="47.46945" lon="8.17944">
        <ele>340.4</ele>
        <time>2022-10-02T11:35:14Z</time>
      </trkpt>
      <trkpt lat="47.46949" lon="8.1795">
        <ele>340.4</ele>
        <time>2022-10-02T11:35:15Z</time>
      </trkpt>
      <trkpt lat="47.46951" lon="8.17955">
        <ele>340.4</ele>
        <time>2022-10-02T11:35:16Z</time>
      </trkpt>
      <trkpt lat="47.46954" lon="8.1796">
        <ele>340.4</ele>
        <time>2022-10-02T11:35:17Z</time>
      </trkpt>
      <trkpt lat="47.46958" lon="8.17966">
        <ele>340.4</ele>
        <time>2022-10-02T11:35:18Z</time>
      </trkpt>
      <trkpt lat="47.46962" lon="8.17972">
        <ele>340.4</ele>
        <time>2022-10-02T11:35:19Z</time>
      </trkpt>
      <trkpt lat="47.46965" lon="8.17976">
        <ele>340.4</ele>
        <time>2022-10-02T11:35:20Z</time>
      </trkpt>
      <trkpt lat="47.46969" lon="8.17983">
        <ele>340.4</ele>
        <time>2022-10-02T11:35:21Z</time>
      </trkpt>
      <trkpt lat="47.46971" lon="8.17987">
        <ele>340.4</ele>
        <time>2022-10-02T11:35:22Z</time>
      </trkpt>
      <trkpt lat="47.46974" lon="8.17993">
        <ele>340.4</ele>
        <time>2022-10-02T11:35:23Z</time>
      </trkpt>
      <trkpt lat="47.46977" lon="8.17998">
        <ele>340.4</ele>
        <time>2022-10-02T11:35:24Z</time>
      </trkpt>
      <trkpt lat="47.4698" lon="8.18005">
        <ele>340.4</ele>
        <time>2022-10-02T11:35:25Z</time>
      </trkpt>
      <trkpt lat="47.46983" lon="8.18011">
        <ele>340.4</ele>
        <time>2022-10-02T11:35:26Z</time>
      </trkpt>
      <trkpt lat="47.46987" lon="8.18018">
        <ele>340.3</ele>
        <time>2022-10-02T11:35:27Z</time>
      </trkpt>
      <trkpt lat="47.46989" lon="8.18024">
        <ele>340.3</ele>
        <time>2022-10-02T11:35:28Z</time>
      </trkpt>
      <trkpt lat="47.46992" lon="8.18031">
        <ele>340.3</ele>
        <time>2022-10-02T11:35:29Z</time>
      </trkpt>
      <trkpt lat="47.46993" lon="8.18034">
        <ele>340.3</ele>
        <time>2022-10-02T11:35:30Z</time>
      </trkpt>
      <trkpt lat="47.46996" lon="8.18041">
        <ele>340.3</ele>
        <time>2022-10-02T11:35:31Z</time>
      </trkpt>
      <trkpt lat="47.46998" lon="8.18047">
        <ele>340.4</ele>
        <time>2022-10-02T11:35:32Z</time>
      </trkpt>
      <trkpt lat="47.47001" lon="8.18055">
        <ele>340.4</ele>
        <time>2022-10-02T11:35:33Z</time>
      </trkpt>
      <trkpt lat="47.47003" lon="8.18062">
        <ele>340.4</ele>
        <time>2022-10-02T11:35:34Z</time>
      </trkpt>
      <trkpt lat="47.47006" lon="8.18068">
        <ele>340.4</ele>
        <time>2022-10-02T11:35:35Z</time>
      </trkpt>
      <trkpt lat="47.47007" lon="8.18075">
        <ele>340.3</ele>
        <time>2022-10-02T11:35:36Z</time>
      </trkpt>
      <trkpt lat="47.47008" lon="8.18082">
        <ele>340.3</ele>
        <time>2022-10-02T11:35:37Z</time>
      </trkpt>
      <trkpt lat="47.4701" lon="8.18087">
        <ele>340.3</ele>
        <time>2022-10-02T11:35:38Z</time>
      </trkpt>
      <trkpt lat="47.47012" lon="8.18092">
        <ele>340.3</ele>
        <time>2022-10-02T11:35:39Z</time>
      </trkpt>
      <trkpt lat="47.47013" lon="8.181">
        <ele>340.3</ele>
        <time>2022-10-02T11:35:40Z</time>
      </trkpt>
      <trkpt lat="47.47015" lon="8.18107">
        <ele>340.2</ele>
        <time>2022-10-02T11:35:41Z</time>
      </trkpt>
      <trkpt lat="47.47016" lon="8.18111">
        <ele>340.2</ele>
        <time>2022-10-02T11:35:42Z</time>
      </trkpt>
      <trkpt lat="47.47018" lon="8.18119">
        <ele>340.2</ele>
        <time>2022-10-02T11:35:43Z</time>
      </trkpt>
      <trkpt lat="47.4702" lon="8.18125">
        <ele>340.2</ele>
        <time>2022-10-02T11:35:44Z</time>
      </trkpt>
      <trkpt lat="47.47021" lon="8.18132">
        <ele>340.2</ele>
        <time>2022-10-02T11:35:45Z</time>
      </trkpt>
      <trkpt lat="47.47022" lon="8.18139">
        <ele>340.2</ele>
        <time>2022-10-02T11:35:46Z</time>
      </trkpt>
      <trkpt lat="47.47024" lon="8.18147">
        <ele>340.1</ele>
        <time>2022-10-02T11:35:47Z</time>
      </trkpt>
      <trkpt lat="47.47026" lon="8.18153">
        <ele>340.1</ele>
        <time>2022-10-02T11:35:48Z</time>
      </trkpt>
      <trkpt lat="47.47028" lon="8.18161">
        <ele>340.1</ele>
        <time>2022-10-02T11:35:49Z</time>
      </trkpt>
      <trkpt lat="47.4703" lon="8.18167">
        <ele>340.1</ele>
        <time>2022-10-02T11:35:50Z</time>
      </trkpt>
      <trkpt lat="47.47031" lon="8.18173">
        <ele>340.2</ele>
        <time>2022-10-02T11:35:51Z</time>
      </trkpt>
      <trkpt lat="47.47032" lon="8.1818">
        <ele>340.2</ele>
        <time>2022-10-02T11:35:52Z</time>
      </trkpt>
      <trkpt lat="47.47034" lon="8.18188">
        <ele>340.2</ele>
        <time>2022-10-02T11:35:53Z</time>
      </trkpt>
      <trkpt lat="47.47036" lon="8.18196">
        <ele>340.2</ele>
        <time>2022-10-02T11:35:54Z</time>
      </trkpt>
      <trkpt lat="47.47038" lon="8.18202">
        <ele>340.2</ele>
        <time>2022-10-02T11:35:55Z</time>
      </trkpt>
      <trkpt lat="47.47039" lon="8.18209">
        <ele>340.1</ele>
        <time>2022-10-02T11:35:56Z</time>
      </trkpt>
      <trkpt lat="47.47041" lon="8.18214">
        <ele>340.1</ele>
        <time>2022-10-02T11:35:57Z</time>
      </trkpt>
      <trkpt lat="47.47042" lon="8.18221">
        <ele>340.1</ele>
        <time>2022-10-02T11:35:59Z</time>
      </trkpt>
      <trkpt lat="47.47044" lon="8.18226">
        <ele>340.1</ele>
        <time>2022-10-02T11:36:00Z</time>
      </trkpt>
      <trkpt lat="47.47045" lon="8.18231">
        <ele>340.1</ele>
        <time>2022-10-02T11:36:01Z</time>
      </trkpt>
      <trkpt lat="47.47047" lon="8.18237">
        <ele>340.1</ele>
        <time>2022-10-02T11:36:02Z</time>
      </trkpt>
      <trkpt lat="47.47049" lon="8.18244">
        <ele>340.1</ele>
        <time>2022-10-02T11:36:03Z</time>
      </trkpt>
      <trkpt lat="47.47051" lon="8.18249">
        <ele>340</ele>
        <time>2022-10-02T11:36:04Z</time>
      </trkpt>
      <trkpt lat="47.47052" lon="8.18257">
        <ele>340</ele>
        <time>2022-10-02T11:36:05Z</time>
      </trkpt>
      <trkpt lat="47.47054" lon="8.18265">
        <ele>340</ele>
        <time>2022-10-02T11:36:06Z</time>
      </trkpt>
      <trkpt lat="47.47056" lon="8.18273">
        <ele>340</ele>
        <time>2022-10-02T11:36:07Z</time>
      </trkpt>
      <trkpt lat="47.47058" lon="8.18279">
        <ele>339.9</ele>
        <time>2022-10-02T11:36:08Z</time>
      </trkpt>
      <trkpt lat="47.47061" lon="8.18287">
        <ele>339.9</ele>
        <time>2022-10-02T11:36:09Z</time>
      </trkpt>
      <trkpt lat="47.47064" lon="8.1829">
        <ele>339.9</ele>
        <time>2022-10-02T11:36:10Z</time>
      </trkpt>
      <trkpt lat="47.47066" lon="8.18298">
        <ele>339.9</ele>
        <time>2022-10-02T11:36:11Z</time>
      </trkpt>
      <trkpt lat="47.47069" lon="8.18305">
        <ele>339.9</ele>
        <time>2022-10-02T11:36:12Z</time>
      </trkpt>
      <trkpt lat="47.4707" lon="8.18311">
        <ele>339.8</ele>
        <time>2022-10-02T11:36:13Z</time>
      </trkpt>
      <trkpt lat="47.47072" lon="8.18319">
        <ele>339.8</ele>
        <time>2022-10-02T11:36:14Z</time>
      </trkpt>
      <trkpt lat="47.47074" lon="8.18325">
        <ele>339.8</ele>
        <time>2022-10-02T11:36:15Z</time>
      </trkpt>
      <trkpt lat="47.47075" lon="8.1833">
        <ele>339.8</ele>
        <time>2022-10-02T11:36:16Z</time>
      </trkpt>
      <trkpt lat="47.47077" lon="8.18338">
        <ele>339.8</ele>
        <time>2022-10-02T11:36:17Z</time>
      </trkpt>
      <trkpt lat="47.47077" lon="8.18346">
        <ele>339.8</ele>
        <time>2022-10-02T11:36:18Z</time>
      </trkpt>
      <trkpt lat="47.47077" lon="8.18351">
        <ele>339.8</ele>
        <time>2022-10-02T11:36:19Z</time>
      </trkpt>
      <trkpt lat="47.47078" lon="8.18358">
        <ele>339.7</ele>
        <time>2022-10-02T11:36:20Z</time>
      </trkpt>
      <trkpt lat="47.47078" lon="8.18365">
        <ele>339.7</ele>
        <time>2022-10-02T11:36:21Z</time>
      </trkpt>
      <trkpt lat="47.47078" lon="8.1837">
        <ele>339.7</ele>
        <time>2022-10-02T11:36:22Z</time>
      </trkpt>
      <trkpt lat="47.47077" lon="8.18375">
        <ele>339.7</ele>
        <time>2022-10-02T11:36:23Z</time>
      </trkpt>
      <trkpt lat="47.47076" lon="8.18383">
        <ele>339.7</ele>
        <time>2022-10-02T11:36:24Z</time>
      </trkpt>
      <trkpt lat="47.47074" lon="8.18388">
        <ele>339.6</ele>
        <time>2022-10-02T11:36:25Z</time>
      </trkpt>
      <trkpt lat="47.47074" lon="8.18394">
        <ele>339.6</ele>
        <time>2022-10-02T11:36:26Z</time>
      </trkpt>
      <trkpt lat="47.47073" lon="8.184">
        <ele>339.6</ele>
        <time>2022-10-02T11:36:27Z</time>
      </trkpt>
      <trkpt lat="47.47071" lon="8.18405">
        <ele>339.6</ele>
        <time>2022-10-02T11:36:28Z</time>
      </trkpt>
      <trkpt lat="47.47071" lon="8.18409">
        <ele>339.5</ele>
        <time>2022-10-02T11:36:29Z</time>
      </trkpt>
      <trkpt lat="47.4707" lon="8.18416">
        <ele>339.5</ele>
        <time>2022-10-02T11:36:30Z</time>
      </trkpt>
      <trkpt lat="47.4707" lon="8.18422">
        <ele>339.5</ele>
        <time>2022-10-02T11:36:31Z</time>
      </trkpt>
      <trkpt lat="47.47069" lon="8.18427">
        <ele>339.5</ele>
        <time>2022-10-02T11:36:32Z</time>
      </trkpt>
      <trkpt lat="47.47067" lon="8.18434">
        <ele>339.5</ele>
        <time>2022-10-02T11:36:33Z</time>
      </trkpt>
      <trkpt lat="47.47065" lon="8.18442">
        <ele>339.4</ele>
        <time>2022-10-02T11:36:34Z</time>
      </trkpt>
      <trkpt lat="47.47065" lon="8.1845">
        <ele>339.4</ele>
        <time>2022-10-02T11:36:35Z</time>
      </trkpt>
      <trkpt lat="47.47064" lon="8.18458">
        <ele>339.4</ele>
        <time>2022-10-02T11:36:36Z</time>
      </trkpt>
      <trkpt lat="47.47064" lon="8.18465">
        <ele>339.4</ele>
        <time>2022-10-02T11:36:37Z</time>
      </trkpt>
      <trkpt lat="47.47064" lon="8.18472">
        <ele>339.4</ele>
        <time>2022-10-02T11:36:38Z</time>
      </trkpt>
      <trkpt lat="47.47065" lon="8.1848">
        <ele>339.5</ele>
        <time>2022-10-02T11:36:39Z</time>
      </trkpt>
      <trkpt lat="47.47066" lon="8.18488">
        <ele>339.5</ele>
        <time>2022-10-02T11:36:40Z</time>
      </trkpt>
      <trkpt lat="47.47066" lon="8.18494">
        <ele>339.5</ele>
        <time>2022-10-02T11:36:41Z</time>
      </trkpt>
      <trkpt lat="47.47066" lon="8.18498">
        <ele>339.5</ele>
        <time>2022-10-02T11:36:42Z</time>
      </trkpt>
      <trkpt lat="47.47067" lon="8.18507">
        <ele>339.5</ele>
        <time>2022-10-02T11:36:43Z</time>
      </trkpt>
      <trkpt lat="47.47066" lon="8.18514">
        <ele>339.5</ele>
        <time>2022-10-02T11:36:44Z</time>
      </trkpt>
      <trkpt lat="47.47067" lon="8.18534">
        <ele>339.5</ele>
        <time>2022-10-02T11:36:45Z</time>
      </trkpt>
      <trkpt lat="47.47067" lon="8.18541">
        <ele>339.4</ele>
        <time>2022-10-02T11:36:46Z</time>
      </trkpt>
      <trkpt lat="47.47067" lon="8.18548">
        <ele>339.4</ele>
        <time>2022-10-02T11:36:47Z</time>
      </trkpt>
      <trkpt lat="47.47066" lon="8.18556">
        <ele>339.4</ele>
        <time>2022-10-02T11:36:48Z</time>
      </trkpt>
      <trkpt lat="47.47067" lon="8.18562">
        <ele>339.4</ele>
        <time>2022-10-02T11:36:49Z</time>
      </trkpt>
      <trkpt lat="47.47067" lon="8.1857">
        <ele>339.4</ele>
        <time>2022-10-02T11:36:50Z</time>
      </trkpt>
      <trkpt lat="47.47067" lon="8.18579">
        <ele>339.4</ele>
        <time>2022-10-02T11:36:51Z</time>
      </trkpt>
      <trkpt lat="47.47066" lon="8.18588">
        <ele>339.4</ele>
        <time>2022-10-02T11:36:52Z</time>
      </trkpt>
      <trkpt lat="47.47065" lon="8.18597">
        <ele>339.4</ele>
        <time>2022-10-02T11:36:53Z</time>
      </trkpt>
      <trkpt lat="47.47064" lon="8.18605">
        <ele>339.3</ele>
        <time>2022-10-02T11:36:54Z</time>
      </trkpt>
      <trkpt lat="47.47065" lon="8.18611">
        <ele>339.3</ele>
        <time>2022-10-02T11:36:55Z</time>
      </trkpt>
      <trkpt lat="47.47064" lon="8.18617">
        <ele>339.3</ele>
        <time>2022-10-02T11:36:56Z</time>
      </trkpt>
      <trkpt lat="47.47064" lon="8.18624">
        <ele>339.3</ele>
        <time>2022-10-02T11:36:57Z</time>
      </trkpt>
      <trkpt lat="47.47063" lon="8.18631">
        <ele>339.3</ele>
        <time>2022-10-02T11:36:58Z</time>
      </trkpt>
      <trkpt lat="47.47063" lon="8.18637">
        <ele>339.2</ele>
        <time>2022-10-02T11:36:59Z</time>
      </trkpt>
      <trkpt lat="47.47062" lon="8.18646">
        <ele>339.2</ele>
        <time>2022-10-02T11:37:00Z</time>
      </trkpt>
      <trkpt lat="47.4706" lon="8.18653">
        <ele>339.2</ele>
        <time>2022-10-02T11:37:01Z</time>
      </trkpt>
      <trkpt lat="47.4706" lon="8.1866">
        <ele>339.2</ele>
        <time>2022-10-02T11:37:02Z</time>
      </trkpt>
      <trkpt lat="47.47059" lon="8.18667">
        <ele>339.2</ele>
        <time>2022-10-02T11:37:03Z</time>
      </trkpt>
      <trkpt lat="47.47058" lon="8.18675">
        <ele>339.1</ele>
        <time>2022-10-02T11:37:04Z</time>
      </trkpt>
      <trkpt lat="47.47058" lon="8.18683">
        <ele>339.1</ele>
        <time>2022-10-02T11:37:05Z</time>
      </trkpt>
      <trkpt lat="47.47058" lon="8.18688">
        <ele>339.1</ele>
        <time>2022-10-02T11:37:06Z</time>
      </trkpt>
      <trkpt lat="47.47057" lon="8.18696">
        <ele>339.1</ele>
        <time>2022-10-02T11:37:07Z</time>
      </trkpt>
      <trkpt lat="47.47056" lon="8.18704">
        <ele>339.1</ele>
        <time>2022-10-02T11:37:08Z</time>
      </trkpt>
      <trkpt lat="47.47056" lon="8.18711">
        <ele>339.1</ele>
        <time>2022-10-02T11:37:09Z</time>
      </trkpt>
      <trkpt lat="47.47054" lon="8.1872">
        <ele>339.1</ele>
        <time>2022-10-02T11:37:10Z</time>
      </trkpt>
      <trkpt lat="47.47054" lon="8.18728">
        <ele>339.1</ele>
        <time>2022-10-02T11:37:11Z</time>
      </trkpt>
      <trkpt lat="47.47054" lon="8.18735">
        <ele>339.1</ele>
        <time>2022-10-02T11:37:12Z</time>
      </trkpt>
      <trkpt lat="47.47053" lon="8.18742">
        <ele>339.1</ele>
        <time>2022-10-02T11:37:13Z</time>
      </trkpt>
      <trkpt lat="47.47053" lon="8.1875">
        <ele>339.1</ele>
        <time>2022-10-02T11:37:14Z</time>
      </trkpt>
      <trkpt lat="47.47053" lon="8.18756">
        <ele>339.1</ele>
        <time>2022-10-02T11:37:15Z</time>
      </trkpt>
      <trkpt lat="47.47053" lon="8.18763">
        <ele>339.1</ele>
        <time>2022-10-02T11:37:16Z</time>
      </trkpt>
      <trkpt lat="47.47052" lon="8.18771">
        <ele>339.1</ele>
        <time>2022-10-02T11:37:17Z</time>
      </trkpt>
      <trkpt lat="47.47054" lon="8.18778">
        <ele>339.1</ele>
        <time>2022-10-02T11:37:18Z</time>
      </trkpt>
      <trkpt lat="47.47054" lon="8.18784">
        <ele>339.1</ele>
        <time>2022-10-02T11:37:19Z</time>
      </trkpt>
      <trkpt lat="47.47053" lon="8.18791">
        <ele>339.1</ele>
        <time>2022-10-02T11:37:20Z</time>
      </trkpt>
      <trkpt lat="47.47053" lon="8.18797">
        <ele>339.1</ele>
        <time>2022-10-02T11:37:21Z</time>
      </trkpt>
      <trkpt lat="47.47054" lon="8.18803">
        <ele>339.1</ele>
        <time>2022-10-02T11:37:22Z</time>
      </trkpt>
      <trkpt lat="47.47055" lon="8.18809">
        <ele>339.1</ele>
        <time>2022-10-02T11:37:23Z</time>
      </trkpt>
      <trkpt lat="47.47055" lon="8.18816">
        <ele>339.1</ele>
        <time>2022-10-02T11:37:24Z</time>
      </trkpt>
      <trkpt lat="47.47054" lon="8.18825">
        <ele>339.2</ele>
        <time>2022-10-02T11:37:25Z</time>
      </trkpt>
      <trkpt lat="47.47053" lon="8.18831">
        <ele>339.2</ele>
        <time>2022-10-02T11:37:26Z</time>
      </trkpt>
      <trkpt lat="47.47054" lon="8.18835">
        <ele>339.2</ele>
        <time>2022-10-02T11:37:27Z</time>
      </trkpt>
      <trkpt lat="47.47053" lon="8.18842">
        <ele>339.2</ele>
        <time>2022-10-02T11:37:28Z</time>
      </trkpt>
      <trkpt lat="47.47054" lon="8.18846">
        <ele>339.2</ele>
        <time>2022-10-02T11:37:29Z</time>
      </trkpt>
      <trkpt lat="47.47054" lon="8.18855">
        <ele>339.2</ele>
        <time>2022-10-02T11:37:30Z</time>
      </trkpt>
      <trkpt lat="47.47055" lon="8.18861">
        <ele>339.2</ele>
        <time>2022-10-02T11:37:31Z</time>
      </trkpt>
      <trkpt lat="47.47055" lon="8.18867">
        <ele>339.3</ele>
        <time>2022-10-02T11:37:32Z</time>
      </trkpt>
      <trkpt lat="47.47055" lon="8.18874">
        <ele>339.3</ele>
        <time>2022-10-02T11:37:33Z</time>
      </trkpt>
      <trkpt lat="47.47056" lon="8.1888">
        <ele>339.3</ele>
        <time>2022-10-02T11:37:34Z</time>
      </trkpt>
      <trkpt lat="47.47058" lon="8.18886">
        <ele>339.3</ele>
        <time>2022-10-02T11:37:35Z</time>
      </trkpt>
      <trkpt lat="47.47059" lon="8.18893">
        <ele>339.3</ele>
        <time>2022-10-02T11:37:36Z</time>
      </trkpt>
      <trkpt lat="47.47061" lon="8.18899">
        <ele>339.2</ele>
        <time>2022-10-02T11:37:37Z</time>
      </trkpt>
      <trkpt lat="47.47061" lon="8.18905">
        <ele>339.2</ele>
        <time>2022-10-02T11:37:38Z</time>
      </trkpt>
      <trkpt lat="47.47063" lon="8.18911">
        <ele>339.2</ele>
        <time>2022-10-02T11:37:39Z</time>
      </trkpt>
      <trkpt lat="47.47064" lon="8.18918">
        <ele>339.1</ele>
        <time>2022-10-02T11:37:40Z</time>
      </trkpt>
      <trkpt lat="47.47066" lon="8.18925">
        <ele>339.1</ele>
        <time>2022-10-02T11:37:41Z</time>
      </trkpt>
      <trkpt lat="47.47068" lon="8.18932">
        <ele>339.1</ele>
        <time>2022-10-02T11:37:42Z</time>
      </trkpt>
      <trkpt lat="47.47069" lon="8.18939">
        <ele>339.1</ele>
        <time>2022-10-02T11:37:43Z</time>
      </trkpt>
      <trkpt lat="47.4707" lon="8.18946">
        <ele>339</ele>
        <time>2022-10-02T11:37:44Z</time>
      </trkpt>
      <trkpt lat="47.47071" lon="8.18954">
        <ele>339</ele>
        <time>2022-10-02T11:37:45Z</time>
      </trkpt>
      <trkpt lat="47.47073" lon="8.18961">
        <ele>339</ele>
        <time>2022-10-02T11:37:46Z</time>
      </trkpt>
      <trkpt lat="47.47074" lon="8.18967">
        <ele>338.9</ele>
        <time>2022-10-02T11:37:47Z</time>
      </trkpt>
      <trkpt lat="47.47075" lon="8.18973">
        <ele>338.9</ele>
        <time>2022-10-02T11:37:48Z</time>
      </trkpt>
      <trkpt lat="47.47077" lon="8.18982">
        <ele>338.9</ele>
        <time>2022-10-02T11:37:49Z</time>
      </trkpt>
      <trkpt lat="47.47079" lon="8.18989">
        <ele>338.9</ele>
        <time>2022-10-02T11:37:50Z</time>
      </trkpt>
      <trkpt lat="47.47081" lon="8.18993">
        <ele>338.9</ele>
        <time>2022-10-02T11:37:51Z</time>
      </trkpt>
      <trkpt lat="47.47083" lon="8.19001">
        <ele>338.9</ele>
        <time>2022-10-02T11:37:52Z</time>
      </trkpt>
      <trkpt lat="47.47087" lon="8.19007">
        <ele>338.9</ele>
        <time>2022-10-02T11:37:53Z</time>
      </trkpt>
      <trkpt lat="47.47089" lon="8.19012">
        <ele>338.9</ele>
        <time>2022-10-02T11:37:54Z</time>
      </trkpt>
      <trkpt lat="47.47091" lon="8.19018">
        <ele>338.8</ele>
        <time>2022-10-02T11:37:55Z</time>
      </trkpt>
      <trkpt lat="47.47094" lon="8.19025">
        <ele>338.8</ele>
        <time>2022-10-02T11:37:56Z</time>
      </trkpt>
      <trkpt lat="47.47097" lon="8.19031">
        <ele>338.8</ele>
        <time>2022-10-02T11:37:57Z</time>
      </trkpt>
      <trkpt lat="47.47099" lon="8.19037">
        <ele>338.7</ele>
        <time>2022-10-02T11:37:58Z</time>
      </trkpt>
      <trkpt lat="47.47101" lon="8.19043">
        <ele>338.7</ele>
        <time>2022-10-02T11:37:59Z</time>
      </trkpt>
      <trkpt lat="47.47104" lon="8.19052">
        <ele>338.7</ele>
        <time>2022-10-02T11:38:00Z</time>
      </trkpt>
      <trkpt lat="47.47106" lon="8.19058">
        <ele>338.7</ele>
        <time>2022-10-02T11:38:01Z</time>
      </trkpt>
      <trkpt lat="47.47108" lon="8.19064">
        <ele>338.7</ele>
        <time>2022-10-02T11:38:02Z</time>
      </trkpt>
      <trkpt lat="47.4711" lon="8.19071">
        <ele>338.7</ele>
        <time>2022-10-02T11:38:03Z</time>
      </trkpt>
      <trkpt lat="47.47113" lon="8.19077">
        <ele>338.7</ele>
        <time>2022-10-02T11:38:05Z</time>
      </trkpt>
      <trkpt lat="47.47118" lon="8.19082">
        <ele>338.7</ele>
        <time>2022-10-02T11:38:06Z</time>
      </trkpt>
      <trkpt lat="47.47122" lon="8.19089">
        <ele>338.7</ele>
        <time>2022-10-02T11:38:07Z</time>
      </trkpt>
      <trkpt lat="47.47126" lon="8.19096">
        <ele>338.7</ele>
        <time>2022-10-02T11:38:08Z</time>
      </trkpt>
      <trkpt lat="47.47129" lon="8.19102">
        <ele>338.7</ele>
        <time>2022-10-02T11:38:09Z</time>
      </trkpt>
      <trkpt lat="47.47133" lon="8.19108">
        <ele>338.7</ele>
        <time>2022-10-02T11:38:10Z</time>
      </trkpt>
      <trkpt lat="47.47137" lon="8.19113">
        <ele>338.7</ele>
        <time>2022-10-02T11:38:11Z</time>
      </trkpt>
      <trkpt lat="47.47141" lon="8.19118">
        <ele>338.7</ele>
        <time>2022-10-02T11:38:12Z</time>
      </trkpt>
      <trkpt lat="47.47144" lon="8.19125">
        <ele>338.7</ele>
        <time>2022-10-02T11:38:13Z</time>
      </trkpt>
      <trkpt lat="47.47147" lon="8.19131">
        <ele>338.7</ele>
        <time>2022-10-02T11:38:14Z</time>
      </trkpt>
      <trkpt lat="47.4715" lon="8.19136">
        <ele>338.7</ele>
        <time>2022-10-02T11:38:15Z</time>
      </trkpt>
      <trkpt lat="47.47153" lon="8.19141">
        <ele>338.7</ele>
        <time>2022-10-02T11:38:16Z</time>
      </trkpt>
      <trkpt lat="47.47158" lon="8.19146">
        <ele>338.6</ele>
        <time>2022-10-02T11:38:17Z</time>
      </trkpt>
      <trkpt lat="47.47162" lon="8.19152">
        <ele>338.6</ele>
        <time>2022-10-02T11:38:18Z</time>
      </trkpt>
      <trkpt lat="47.47165" lon="8.19155">
        <ele>338.6</ele>
        <time>2022-10-02T11:38:19Z</time>
      </trkpt>
      <trkpt lat="47.47169" lon="8.19162">
        <ele>338.6</ele>
        <time>2022-10-02T11:38:20Z</time>
      </trkpt>
      <trkpt lat="47.47171" lon="8.19168">
        <ele>338.6</ele>
        <time>2022-10-02T11:38:21Z</time>
      </trkpt>
      <trkpt lat="47.47174" lon="8.19171">
        <ele>338.6</ele>
        <time>2022-10-02T11:38:22Z</time>
      </trkpt>
      <trkpt lat="47.47176" lon="8.19173">
        <ele>338.6</ele>
        <time>2022-10-02T11:38:23Z</time>
      </trkpt>
      <trkpt lat="47.4718" lon="8.19177">
        <ele>338.6</ele>
        <time>2022-10-02T11:38:24Z</time>
      </trkpt>
      <trkpt lat="47.47182" lon="8.19183">
        <ele>338.6</ele>
        <time>2022-10-02T11:38:25Z</time>
      </trkpt>
      <trkpt lat="47.47187" lon="8.19186">
        <ele>338.6</ele>
        <time>2022-10-02T11:38:26Z</time>
      </trkpt>
      <trkpt lat="47.47192" lon="8.19189">
        <ele>338.6</ele>
        <time>2022-10-02T11:38:27Z</time>
      </trkpt>
      <trkpt lat="47.47195" lon="8.19195">
        <ele>338.6</ele>
        <time>2022-10-02T11:38:28Z</time>
      </trkpt>
      <trkpt lat="47.47198" lon="8.19199">
        <ele>338.5</ele>
        <time>2022-10-02T11:38:29Z</time>
      </trkpt>
      <trkpt lat="47.47202" lon="8.19205">
        <ele>338.5</ele>
        <time>2022-10-02T11:38:30Z</time>
      </trkpt>
      <trkpt lat="47.47205" lon="8.19209">
        <ele>338.5</ele>
        <time>2022-10-02T11:38:31Z</time>
      </trkpt>
      <trkpt lat="47.47208" lon="8.19214">
        <ele>338.5</ele>
        <time>2022-10-02T11:38:32Z</time>
      </trkpt>
      <trkpt lat="47.47212" lon="8.19218">
        <ele>338.5</ele>
        <time>2022-10-02T11:38:33Z</time>
      </trkpt>
      <trkpt lat="47.47215" lon="8.19222">
        <ele>338.6</ele>
        <time>2022-10-02T11:38:34Z</time>
      </trkpt>
      <trkpt lat="47.47219" lon="8.19227">
        <ele>338.6</ele>
        <time>2022-10-02T11:38:35Z</time>
      </trkpt>
      <trkpt lat="47.47222" lon="8.19232">
        <ele>338.6</ele>
        <time>2022-10-02T11:38:36Z</time>
      </trkpt>
      <trkpt lat="47.47223" lon="8.19236">
        <ele>338.6</ele>
        <time>2022-10-02T11:38:37Z</time>
      </trkpt>
      <trkpt lat="47.47227" lon="8.19238">
        <ele>338.6</ele>
        <time>2022-10-02T11:38:38Z</time>
      </trkpt>
      <trkpt lat="47.4723" lon="8.19242">
        <ele>338.7</ele>
        <time>2022-10-02T11:38:39Z</time>
      </trkpt>
      <trkpt lat="47.47234" lon="8.1925">
        <ele>338.7</ele>
        <time>2022-10-02T11:38:40Z</time>
      </trkpt>
      <trkpt lat="47.47238" lon="8.19256">
        <ele>338.7</ele>
        <time>2022-10-02T11:38:41Z</time>
      </trkpt>
      <trkpt lat="47.47242" lon="8.19261">
        <ele>338.7</ele>
        <time>2022-10-02T11:38:42Z</time>
      </trkpt>
      <trkpt lat="47.47245" lon="8.19266">
        <ele>338.8</ele>
        <time>2022-10-02T11:38:43Z</time>
      </trkpt>
      <trkpt lat="47.47248" lon="8.1927">
        <ele>338.8</ele>
        <time>2022-10-02T11:38:44Z</time>
      </trkpt>
      <trkpt lat="47.47251" lon="8.19273">
        <ele>338.8</ele>
        <time>2022-10-02T11:38:45Z</time>
      </trkpt>
      <trkpt lat="47.47254" lon="8.19279">
        <ele>338.9</ele>
        <time>2022-10-02T11:38:46Z</time>
      </trkpt>
      <trkpt lat="47.47259" lon="8.19284">
        <ele>338.9</ele>
        <time>2022-10-02T11:38:47Z</time>
      </trkpt>
      <trkpt lat="47.47263" lon="8.19288">
        <ele>339</ele>
        <time>2022-10-02T11:38:48Z</time>
      </trkpt>
      <trkpt lat="47.47265" lon="8.19291">
        <ele>339</ele>
        <time>2022-10-02T11:38:49Z</time>
      </trkpt>
      <trkpt lat="47.47267" lon="8.19295">
        <ele>339</ele>
        <time>2022-10-02T11:38:50Z</time>
      </trkpt>
      <trkpt lat="47.47268" lon="8.19296">
        <ele>339.1</ele>
        <time>2022-10-02T11:38:51Z</time>
      </trkpt>
      <trkpt lat="47.4727" lon="8.19296">
        <ele>339.1</ele>
        <time>2022-10-02T11:38:52Z</time>
      </trkpt>
      <trkpt lat="47.47271" lon="8.19297">
        <ele>339.1</ele>
        <time>2022-10-02T11:38:53Z</time>
      </trkpt>
      <trkpt lat="47.47274" lon="8.19301">
        <ele>339.1</ele>
        <time>2022-10-02T11:38:54Z</time>
      </trkpt>
      <trkpt lat="47.47276" lon="8.19303">
        <ele>339.1</ele>
        <time>2022-10-02T11:38:55Z</time>
      </trkpt>
      <trkpt lat="47.47276" lon="8.19305">
        <ele>339.1</ele>
        <time>2022-10-02T11:38:56Z</time>
      </trkpt>
      <trkpt lat="47.47277" lon="8.19307">
        <ele>339.1</ele>
        <time>2022-10-02T11:38:57Z</time>
      </trkpt>
      <trkpt lat="47.4728" lon="8.19311">
        <ele>339.2</ele>
        <time>2022-10-02T11:38:58Z</time>
      </trkpt>
      <trkpt lat="47.4728" lon="8.19311">
        <ele>339.2</ele>
        <time>2022-10-02T11:38:59Z</time>
      </trkpt>
      <trkpt lat="47.47282" lon="8.19314">
        <ele>339.2</ele>
        <time>2022-10-02T11:39:00Z</time>
      </trkpt>
      <trkpt lat="47.47285" lon="8.19318">
        <ele>339.2</ele>
        <time>2022-10-02T11:39:01Z</time>
      </trkpt>
      <trkpt lat="47.47286" lon="8.19318">
        <ele>339.2</ele>
        <time>2022-10-02T11:39:02Z</time>
      </trkpt>
      <trkpt lat="47.47288" lon="8.19322">
        <ele>339.2</ele>
        <time>2022-10-02T11:39:03Z</time>
      </trkpt>
      <trkpt lat="47.47289" lon="8.19323">
        <ele>339.2</ele>
        <time>2022-10-02T11:39:04Z</time>
      </trkpt>
      <trkpt lat="47.47291" lon="8.19327">
        <ele>339.2</ele>
        <time>2022-10-02T11:39:05Z</time>
      </trkpt>
      <trkpt lat="47.47292" lon="8.19328">
        <ele>339.2</ele>
        <time>2022-10-02T11:39:06Z</time>
      </trkpt>
      <trkpt lat="47.47293" lon="8.19333">
        <ele>339.1</ele>
        <time>2022-10-02T11:39:07Z</time>
      </trkpt>
      <trkpt lat="47.47296" lon="8.19337">
        <ele>339.1</ele>
        <time>2022-10-02T11:39:08Z</time>
      </trkpt>
      <trkpt lat="47.47297" lon="8.19338">
        <ele>339.1</ele>
        <time>2022-10-02T11:39:09Z</time>
      </trkpt>
      <trkpt lat="47.473" lon="8.19341">
        <ele>339.1</ele>
        <time>2022-10-02T11:39:10Z</time>
      </trkpt>
      <trkpt lat="47.47303" lon="8.19343">
        <ele>339.1</ele>
        <time>2022-10-02T11:39:11Z</time>
      </trkpt>
      <trkpt lat="47.47305" lon="8.19344">
        <ele>339.1</ele>
        <time>2022-10-02T11:39:12Z</time>
      </trkpt>
      <trkpt lat="47.47307" lon="8.19348">
        <ele>339.1</ele>
        <time>2022-10-02T11:39:13Z</time>
      </trkpt>
      <trkpt lat="47.4731" lon="8.19351">
        <ele>339.1</ele>
        <time>2022-10-02T11:39:14Z</time>
      </trkpt>
      <trkpt lat="47.47313" lon="8.19352">
        <ele>339.1</ele>
        <time>2022-10-02T11:39:15Z</time>
      </trkpt>
      <trkpt lat="47.47316" lon="8.19354">
        <ele>339.1</ele>
        <time>2022-10-02T11:39:16Z</time>
      </trkpt>
      <trkpt lat="47.47317" lon="8.19355">
        <ele>339.1</ele>
        <time>2022-10-02T11:39:17Z</time>
      </trkpt>
      <trkpt lat="47.47319" lon="8.19358">
        <ele>339.1</ele>
        <time>2022-10-02T11:39:18Z</time>
      </trkpt>
      <trkpt lat="47.47323" lon="8.19361">
        <ele>339.1</ele>
        <time>2022-10-02T11:39:19Z</time>
      </trkpt>
      <trkpt lat="47.47328" lon="8.19364">
        <ele>339.1</ele>
        <time>2022-10-02T11:39:20Z</time>
      </trkpt>
      <trkpt lat="47.4733" lon="8.19366">
        <ele>339.1</ele>
        <time>2022-10-02T11:39:21Z</time>
      </trkpt>
      <trkpt lat="47.47333" lon="8.19367">
        <ele>339.1</ele>
        <time>2022-10-02T11:39:22Z</time>
      </trkpt>
      <trkpt lat="47.47336" lon="8.1937">
        <ele>339.1</ele>
        <time>2022-10-02T11:39:23Z</time>
      </trkpt>
      <trkpt lat="47.47339" lon="8.19373">
        <ele>339.1</ele>
        <time>2022-10-02T11:39:24Z</time>
      </trkpt>
      <trkpt lat="47.47342" lon="8.19376">
        <ele>339.2</ele>
        <time>2022-10-02T11:39:25Z</time>
      </trkpt>
      <trkpt lat="47.47345" lon="8.19379">
        <ele>339.2</ele>
        <time>2022-10-02T11:39:26Z</time>
      </trkpt>
      <trkpt lat="47.47349" lon="8.19382">
        <ele>339.2</ele>
        <time>2022-10-02T11:39:27Z</time>
      </trkpt>
      <trkpt lat="47.47351" lon="8.19384">
        <ele>339.3</ele>
        <time>2022-10-02T11:39:28Z</time>
      </trkpt>
      <trkpt lat="47.47355" lon="8.19386">
        <ele>339.3</ele>
        <time>2022-10-02T11:39:29Z</time>
      </trkpt>
      <trkpt lat="47.47359" lon="8.19388">
        <ele>339.3</ele>
        <time>2022-10-02T11:39:30Z</time>
      </trkpt>
      <trkpt lat="47.47362" lon="8.19391">
        <ele>339.2</ele>
        <time>2022-10-02T11:39:31Z</time>
      </trkpt>
      <trkpt lat="47.47366" lon="8.19394">
        <ele>339.2</ele>
        <time>2022-10-02T11:39:32Z</time>
      </trkpt>
      <trkpt lat="47.47371" lon="8.19397">
        <ele>339.1</ele>
        <time>2022-10-02T11:39:33Z</time>
      </trkpt>
      <trkpt lat="47.47374" lon="8.194">
        <ele>339.1</ele>
        <time>2022-10-02T11:39:34Z</time>
      </trkpt>
      <trkpt lat="47.47377" lon="8.19402">
        <ele>339</ele>
        <time>2022-10-02T11:39:35Z</time>
      </trkpt>
      <trkpt lat="47.4738" lon="8.19403">
        <ele>339</ele>
        <time>2022-10-02T11:39:36Z</time>
      </trkpt>
      <trkpt lat="47.47382" lon="8.19407">
        <ele>338.9</ele>
        <time>2022-10-02T11:39:37Z</time>
      </trkpt>
      <trkpt lat="47.47388" lon="8.1941">
        <ele>338.9</ele>
        <time>2022-10-02T11:39:38Z</time>
      </trkpt>
      <trkpt lat="47.47392" lon="8.19411">
        <ele>338.9</ele>
        <time>2022-10-02T11:39:39Z</time>
      </trkpt>
      <trkpt lat="47.47395" lon="8.19412">
        <ele>338.9</ele>
        <time>2022-10-02T11:39:40Z</time>
      </trkpt>
      <trkpt lat="47.47398" lon="8.19415">
        <ele>338.9</ele>
        <time>2022-10-02T11:39:41Z</time>
      </trkpt>
      <trkpt lat="47.47402" lon="8.19417">
        <ele>338.9</ele>
        <time>2022-10-02T11:39:42Z</time>
      </trkpt>
      <trkpt lat="47.47405" lon="8.19419">
        <ele>338.9</ele>
        <time>2022-10-02T11:39:43Z</time>
      </trkpt>
      <trkpt lat="47.47408" lon="8.1942">
        <ele>338.9</ele>
        <time>2022-10-02T11:39:44Z</time>
      </trkpt>
      <trkpt lat="47.47411" lon="8.19421">
        <ele>338.9</ele>
        <time>2022-10-02T11:39:45Z</time>
      </trkpt>
      <trkpt lat="47.47415" lon="8.19424">
        <ele>338.9</ele>
        <time>2022-10-02T11:39:46Z</time>
      </trkpt>
      <trkpt lat="47.47418" lon="8.19425">
        <ele>338.9</ele>
        <time>2022-10-02T11:39:47Z</time>
      </trkpt>
      <trkpt lat="47.47421" lon="8.19426">
        <ele>338.9</ele>
        <time>2022-10-02T11:39:48Z</time>
      </trkpt>
      <trkpt lat="47.47426" lon="8.19427">
        <ele>338.9</ele>
        <time>2022-10-02T11:39:49Z</time>
      </trkpt>
      <trkpt lat="47.47429" lon="8.19428">
        <ele>338.9</ele>
        <time>2022-10-02T11:39:50Z</time>
      </trkpt>
      <trkpt lat="47.47432" lon="8.19429">
        <ele>338.9</ele>
        <time>2022-10-02T11:39:51Z</time>
      </trkpt>
      <trkpt lat="47.47436" lon="8.19431">
        <ele>338.9</ele>
        <time>2022-10-02T11:39:52Z</time>
      </trkpt>
      <trkpt lat="47.47437" lon="8.19431">
        <ele>338.9</ele>
        <time>2022-10-02T11:39:53Z</time>
      </trkpt>
      <trkpt lat="47.47442" lon="8.19432">
        <ele>338.9</ele>
        <time>2022-10-02T11:39:54Z</time>
      </trkpt>
      <trkpt lat="47.47446" lon="8.19434">
        <ele>338.9</ele>
        <time>2022-10-02T11:39:55Z</time>
      </trkpt>
      <trkpt lat="47.4745" lon="8.19435">
        <ele>338.9</ele>
        <time>2022-10-02T11:39:56Z</time>
      </trkpt>
      <trkpt lat="47.47454" lon="8.19436">
        <ele>338.9</ele>
        <time>2022-10-02T11:39:57Z</time>
      </trkpt>
      <trkpt lat="47.47458" lon="8.19438">
        <ele>338.9</ele>
        <time>2022-10-02T11:39:58Z</time>
      </trkpt>
      <trkpt lat="47.47462" lon="8.19439">
        <ele>338.9</ele>
        <time>2022-10-02T11:39:59Z</time>
      </trkpt>
      <trkpt lat="47.47466" lon="8.19442">
        <ele>338.9</ele>
        <time>2022-10-02T11:40:00Z</time>
      </trkpt>
      <trkpt lat="47.4747" lon="8.19443">
        <ele>338.9</ele>
        <time>2022-10-02T11:40:01Z</time>
      </trkpt>
      <trkpt lat="47.47473" lon="8.19443">
        <ele>338.9</ele>
        <time>2022-10-02T11:40:02Z</time>
      </trkpt>
      <trkpt lat="47.47478" lon="8.19445">
        <ele>338.9</ele>
        <time>2022-10-02T11:40:03Z</time>
      </trkpt>
      <trkpt lat="47.47484" lon="8.19445">
        <ele>338.9</ele>
        <time>2022-10-02T11:40:04Z</time>
      </trkpt>
      <trkpt lat="47.47487" lon="8.19445">
        <ele>338.8</ele>
        <time>2022-10-02T11:40:05Z</time>
      </trkpt>
      <trkpt lat="47.47491" lon="8.19447">
        <ele>338.8</ele>
        <time>2022-10-02T11:40:06Z</time>
      </trkpt>
      <trkpt lat="47.47495" lon="8.19447">
        <ele>338.8</ele>
        <time>2022-10-02T11:40:07Z</time>
      </trkpt>
      <trkpt lat="47.47498" lon="8.19448">
        <ele>338.8</ele>
        <time>2022-10-02T11:40:08Z</time>
      </trkpt>
      <trkpt lat="47.47503" lon="8.19449">
        <ele>338.8</ele>
        <time>2022-10-02T11:40:09Z</time>
      </trkpt>
      <trkpt lat="47.47508" lon="8.19449">
        <ele>338.8</ele>
        <time>2022-10-02T11:40:11Z</time>
      </trkpt>
      <trkpt lat="47.47511" lon="8.19449">
        <ele>338.8</ele>
        <time>2022-10-02T11:40:12Z</time>
      </trkpt>
      <trkpt lat="47.47515" lon="8.19452">
        <ele>338.8</ele>
        <time>2022-10-02T11:40:13Z</time>
      </trkpt>
      <trkpt lat="47.47519" lon="8.19454">
        <ele>338.8</ele>
        <time>2022-10-02T11:40:14Z</time>
      </trkpt>
      <trkpt lat="47.47525" lon="8.19455">
        <ele>338.8</ele>
        <time>2022-10-02T11:40:15Z</time>
      </trkpt>
      <trkpt lat="47.4753" lon="8.19454">
        <ele>338.7</ele>
        <time>2022-10-02T11:40:16Z</time>
      </trkpt>
      <trkpt lat="47.47535" lon="8.19452">
        <ele>338.7</ele>
        <time>2022-10-02T11:40:17Z</time>
      </trkpt>
      <trkpt lat="47.47539" lon="8.19452">
        <ele>338.7</ele>
        <time>2022-10-02T11:40:18Z</time>
      </trkpt>
      <trkpt lat="47.47544" lon="8.19452">
        <ele>338.7</ele>
        <time>2022-10-02T11:40:19Z</time>
      </trkpt>
      <trkpt lat="47.47549" lon="8.19452">
        <ele>338.7</ele>
        <time>2022-10-02T11:40:20Z</time>
      </trkpt>
      <trkpt lat="47.47553" lon="8.19451">
        <ele>338.7</ele>
        <time>2022-10-02T11:40:21Z</time>
      </trkpt>
      <trkpt lat="47.4756" lon="8.19452">
        <ele>338.7</ele>
        <time>2022-10-02T11:40:22Z</time>
      </trkpt>
      <trkpt lat="47.47565" lon="8.19454">
        <ele>338.6</ele>
        <time>2022-10-02T11:40:23Z</time>
      </trkpt>
      <trkpt lat="47.47571" lon="8.19453">
        <ele>338.6</ele>
        <time>2022-10-02T11:40:24Z</time>
      </trkpt>
      <trkpt lat="47.47576" lon="8.19453">
        <ele>338.6</ele>
        <time>2022-10-02T11:40:25Z</time>
      </trkpt>
      <trkpt lat="47.47582" lon="8.19452">
        <ele>338.6</ele>
        <time>2022-10-02T11:40:26Z</time>
      </trkpt>
      <trkpt lat="47.47587" lon="8.19453">
        <ele>338.6</ele>
        <time>2022-10-02T11:40:27Z</time>
      </trkpt>
      <trkpt lat="47.47592" lon="8.19451">
        <ele>338.6</ele>
        <time>2022-10-02T11:40:28Z</time>
      </trkpt>
      <trkpt lat="47.47597" lon="8.1945">
        <ele>338.7</ele>
        <time>2022-10-02T11:40:29Z</time>
      </trkpt>
      <trkpt lat="47.47601" lon="8.1945">
        <ele>338.7</ele>
        <time>2022-10-02T11:40:30Z</time>
      </trkpt>
      <trkpt lat="47.47607" lon="8.1945">
        <ele>338.7</ele>
        <time>2022-10-02T11:40:31Z</time>
      </trkpt>
      <trkpt lat="47.47611" lon="8.19449">
        <ele>338.7</ele>
        <time>2022-10-02T11:40:32Z</time>
      </trkpt>
      <trkpt lat="47.47615" lon="8.1945">
        <ele>338.7</ele>
        <time>2022-10-02T11:40:33Z</time>
      </trkpt>
      <trkpt lat="47.47619" lon="8.1945">
        <ele>338.8</ele>
        <time>2022-10-02T11:40:34Z</time>
      </trkpt>
      <trkpt lat="47.47623" lon="8.1945">
        <ele>338.8</ele>
        <time>2022-10-02T11:40:35Z</time>
      </trkpt>
      <trkpt lat="47.47627" lon="8.1945">
        <ele>338.8</ele>
        <time>2022-10-02T11:40:36Z</time>
      </trkpt>
      <trkpt lat="47.47631" lon="8.1945">
        <ele>338.8</ele>
        <time>2022-10-02T11:40:37Z</time>
      </trkpt>
      <trkpt lat="47.47635" lon="8.19449">
        <ele>338.8</ele>
        <time>2022-10-02T11:40:38Z</time>
      </trkpt>
      <trkpt lat="47.47639" lon="8.19447">
        <ele>338.9</ele>
        <time>2022-10-02T11:40:39Z</time>
      </trkpt>
      <trkpt lat="47.47643" lon="8.19446">
        <ele>338.9</ele>
        <time>2022-10-02T11:40:40Z</time>
      </trkpt>
      <trkpt lat="47.47646" lon="8.19444">
        <ele>338.9</ele>
        <time>2022-10-02T11:40:41Z</time>
      </trkpt>
      <trkpt lat="47.4765" lon="8.19444">
        <ele>338.9</ele>
        <time>2022-10-02T11:40:42Z</time>
      </trkpt>
      <trkpt lat="47.47654" lon="8.19444">
        <ele>338.9</ele>
        <time>2022-10-02T11:40:43Z</time>
      </trkpt>
      <trkpt lat="47.47657" lon="8.19444">
        <ele>338.9</ele>
        <time>2022-10-02T11:40:44Z</time>
      </trkpt>
      <trkpt lat="47.47658" lon="8.19444">
        <ele>338.9</ele>
        <time>2022-10-02T11:40:45Z</time>
      </trkpt>
      <trkpt lat="47.47659" lon="8.19445">
        <ele>339.9</ele>
        <time>2022-10-02T11:40:46Z</time>
      </trkpt>
      <trkpt lat="47.47659" lon="8.19447">
        <ele>340</ele>
        <time>2022-10-02T11:40:47Z</time>
      </trkpt>
      <trkpt lat="47.47659" lon="8.19448">
        <ele>340.1</ele>
        <time>2022-10-02T11:40:48Z</time>
      </trkpt>
      <trkpt lat="47.47659" lon="8.19449">
        <ele>340.2</ele>
        <time>2022-10-02T11:40:49Z</time>
      </trkpt>
      <trkpt lat="47.47659" lon="8.1945">
        <ele>340.3</ele>
        <time>2022-10-02T11:40:50Z</time>
      </trkpt>
      <trkpt lat="47.47659" lon="8.19452">
        <ele>340.4</ele>
        <time>2022-10-02T11:40:51Z</time>
      </trkpt>
      <trkpt lat="47.47659" lon="8.19453">
        <ele>340.5</ele>
        <time>2022-10-02T11:40:52Z</time>
      </trkpt>
      <trkpt lat="47.47659" lon="8.19454">
        <ele>340.5</ele>
        <time>2022-10-02T11:40:53Z</time>
      </trkpt>
      <trkpt lat="47.47659" lon="8.19455">
        <ele>340.6</ele>
        <time>2022-10-02T11:40:54Z</time>
      </trkpt>
      <trkpt lat="47.47659" lon="8.19457">
        <ele>340.7</ele>
        <time>2022-10-02T11:40:55Z</time>
      </trkpt>
      <trkpt lat="47.47659" lon="8.19458">
        <ele>340.8</ele>
        <time>2022-10-02T11:42:01Z</time>
      </trkpt>
      <trkpt lat="47.47659" lon="8.19459">
        <ele>340.8</ele>
        <time>2022-10-02T11:42:02Z</time>
      </trkpt>
      <trkpt lat="47.47659" lon="8.19461">
        <ele>340.9</ele>
        <time>2022-10-02T11:42:03Z</time>
      </trkpt>
      <trkpt lat="47.47659" lon="8.19462">
        <ele>341</ele>
        <time>2022-10-02T11:42:04Z</time>
      </trkpt>
      <trkpt lat="47.47659" lon="8.19463">
        <ele>341</ele>
        <time>2022-10-02T11:42:05Z</time>
      </trkpt>
      <trkpt lat="47.47659" lon="8.19464">
        <ele>341.1</ele>
        <time>2022-10-02T11:42:06Z</time>
      </trkpt>
      <trkpt lat="47.47659" lon="8.19466">
        <ele>341.2</ele>
        <time>2022-10-02T11:42:07Z</time>
      </trkpt>
      <trkpt lat="47.47659" lon="8.19467">
        <ele>341.2</ele>
        <time>2022-10-02T11:42:08Z</time>
      </trkpt>
      <trkpt lat="47.47659" lon="8.19468">
        <ele>341.3</ele>
        <time>2022-10-02T11:42:09Z</time>
      </trkpt>
      <trkpt lat="47.47659" lon="8.19469">
        <ele>341.4</ele>
        <time>2022-10-02T11:42:10Z</time>
      </trkpt>
      <trkpt lat="47.47659" lon="8.19471">
        <ele>341.4</ele>
        <time>2022-10-02T11:44:33Z</time>
      </trkpt>
      <trkpt lat="47.47659" lon="8.19472">
        <ele>341.3</ele>
        <time>2022-10-02T11:44:34Z</time>
      </trkpt>
      <trkpt lat="47.47659" lon="8.19473">
        <ele>341.3</ele>
        <time>2022-10-02T11:44:35Z</time>
      </trkpt>
      <trkpt lat="47.47662" lon="8.19475">
        <ele>341.3</ele>
        <time>2022-10-02T11:44:36Z</time>
      </trkpt>
      <trkpt lat="47.47665" lon="8.19476">
        <ele>341.2</ele>
        <time>2022-10-02T11:44:37Z</time>
      </trkpt>
      <trkpt lat="47.47667" lon="8.19476">
        <ele>341.2</ele>
        <time>2022-10-02T11:44:38Z</time>
      </trkpt>
      <trkpt lat="47.4767" lon="8.19475">
        <ele>341.2</ele>
        <time>2022-10-02T11:44:39Z</time>
      </trkpt>
      <trkpt lat="47.47673" lon="8.19479">
        <ele>341.1</ele>
        <time>2022-10-02T11:44:40Z</time>
      </trkpt>
      <trkpt lat="47.47675" lon="8.1948">
        <ele>341.1</ele>
        <time>2022-10-02T11:44:41Z</time>
      </trkpt>
      <trkpt lat="47.47678" lon="8.19482">
        <ele>341.1</ele>
        <time>2022-10-02T11:44:42Z</time>
      </trkpt>
      <trkpt lat="47.47681" lon="8.19484">
        <ele>341.1</ele>
        <time>2022-10-02T11:44:43Z</time>
      </trkpt>
      <trkpt lat="47.47684" lon="8.19486">
        <ele>341</ele>
        <time>2022-10-02T11:44:44Z</time>
      </trkpt>
      <trkpt lat="47.47687" lon="8.19488">
        <ele>341</ele>
        <time>2022-10-02T11:44:45Z</time>
      </trkpt>
      <trkpt lat="47.4769" lon="8.1949">
        <ele>341</ele>
        <time>2022-10-02T11:44:46Z</time>
      </trkpt>
      <trkpt lat="47.47694" lon="8.19492">
        <ele>341</ele>
        <time>2022-10-02T11:44:47Z</time>
      </trkpt>
      <trkpt lat="47.47698" lon="8.19494">
        <ele>341</ele>
        <time>2022-10-02T11:44:48Z</time>
      </trkpt>
      <trkpt lat="47.47702" lon="8.19496">
        <ele>341</ele>
        <time>2022-10-02T11:44:49Z</time>
      </trkpt>
      <trkpt lat="47.47706" lon="8.19498">
        <ele>340.9</ele>
        <time>2022-10-02T11:44:50Z</time>
      </trkpt>
      <trkpt lat="47.4771" lon="8.195">
        <ele>340.9</ele>
        <time>2022-10-02T11:44:51Z</time>
      </trkpt>
      <trkpt lat="47.47714" lon="8.19502">
        <ele>340.9</ele>
        <time>2022-10-02T11:44:52Z</time>
      </trkpt>
      <trkpt lat="47.47718" lon="8.19505">
        <ele>340.9</ele>
        <time>2022-10-02T11:44:53Z</time>
      </trkpt>
      <trkpt lat="47.47723" lon="8.19507">
        <ele>340.9</ele>
        <time>2022-10-02T11:44:54Z</time>
      </trkpt>
      <trkpt lat="47.47728" lon="8.19509">
        <ele>340.8</ele>
        <time>2022-10-02T11:44:55Z</time>
      </trkpt>
      <trkpt lat="47.47733" lon="8.1951">
        <ele>340.8</ele>
        <time>2022-10-02T11:44:56Z</time>
      </trkpt>
      <trkpt lat="47.47738" lon="8.1951">
        <ele>340.8</ele>
        <time>2022-10-02T11:44:57Z</time>
      </trkpt>
      <trkpt lat="47.47743" lon="8.1951">
        <ele>340.8</ele>
        <time>2022-10-02T11:44:58Z</time>
      </trkpt>
      <trkpt lat="47.47748" lon="8.1951">
        <ele>340.7</ele>
        <time>2022-10-02T11:44:59Z</time>
      </trkpt>
      <trkpt lat="47.47754" lon="8.1951">
        <ele>340.7</ele>
        <time>2022-10-02T11:45:00Z</time>
      </trkpt>
      <trkpt lat="47.4776" lon="8.19509">
        <ele>340.7</ele>
        <time>2022-10-02T11:45:01Z</time>
      </trkpt>
      <trkpt lat="47.47766" lon="8.19509">
        <ele>340.7</ele>
        <time>2022-10-02T11:45:02Z</time>
      </trkpt>
      <trkpt lat="47.47772" lon="8.19509">
        <ele>340.7</ele>
        <time>2022-10-02T11:45:03Z</time>
      </trkpt>
      <trkpt lat="47.47778" lon="8.19509">
        <ele>340.7</ele>
        <time>2022-10-02T11:45:04Z</time>
      </trkpt>
      <trkpt lat="47.47784" lon="8.19509">
        <ele>340.7</ele>
        <time>2022-10-02T11:45:05Z</time>
      </trkpt>
      <trkpt lat="47.47795" lon="8.19509">
        <ele>340.6</ele>
        <time>2022-10-02T11:45:06Z</time>
      </trkpt>
      <trkpt lat="47.47801" lon="8.19509">
        <ele>340.6</ele>
        <time>2022-10-02T11:45:07Z</time>
      </trkpt>
      <trkpt lat="47.47807" lon="8.19508">
        <ele>340.6</ele>
        <time>2022-10-02T11:45:08Z</time>
      </trkpt>
      <trkpt lat="47.47813" lon="8.19508">
        <ele>340.6</ele>
        <time>2022-10-02T11:45:09Z</time>
      </trkpt>
      <trkpt lat="47.47819" lon="8.19507">
        <ele>340.6</ele>
        <time>2022-10-02T11:45:10Z</time>
      </trkpt>
      <trkpt lat="47.47824" lon="8.19507">
        <ele>340.6</ele>
        <time>2022-10-02T11:45:11Z</time>
      </trkpt>
      <trkpt lat="47.4783" lon="8.19506">
        <ele>340.6</ele>
        <time>2022-10-02T11:45:12Z</time>
      </trkpt>
      <trkpt lat="47.47837" lon="8.19507">
        <ele>340.6</ele>
        <time>2022-10-02T11:45:13Z</time>
      </trkpt>
      <trkpt lat="47.47842" lon="8.19505">
        <ele>340.6</ele>
        <time>2022-10-02T11:45:14Z</time>
      </trkpt>
      <trkpt lat="47.47847" lon="8.19505">
        <ele>340.6</ele>
        <time>2022-10-02T11:45:15Z</time>
      </trkpt>
      <trkpt lat="47.47854" lon="8.19505">
        <ele>340.6</ele>
        <time>2022-10-02T11:45:16Z</time>
      </trkpt>
      <trkpt lat="47.47859" lon="8.19504">
        <ele>340.6</ele>
        <time>2022-10-02T11:45:17Z</time>
      </trkpt>
      <trkpt lat="47.47865" lon="8.19504">
        <ele>340.6</ele>
        <time>2022-10-02T11:45:18Z</time>
      </trkpt>
      <trkpt lat="47.47872" lon="8.19503">
        <ele>340.6</ele>
        <time>2022-10-02T11:45:19Z</time>
      </trkpt>
      <trkpt lat="47.47877" lon="8.19504">
        <ele>340.6</ele>
        <time>2022-10-02T11:45:20Z</time>
      </trkpt>
      <trkpt lat="47.47883" lon="8.19503">
        <ele>340.6</ele>
        <time>2022-10-02T11:45:21Z</time>
      </trkpt>
      <trkpt lat="47.47889" lon="8.19503">
        <ele>340.6</ele>
        <time>2022-10-02T11:45:22Z</time>
      </trkpt>
      <trkpt lat="47.47895" lon="8.19503">
        <ele>340.5</ele>
        <time>2022-10-02T11:45:23Z</time>
      </trkpt>
      <trkpt lat="47.479" lon="8.19502">
        <ele>340.5</ele>
        <time>2022-10-02T11:45:24Z</time>
      </trkpt>
      <trkpt lat="47.47906" lon="8.19503">
        <ele>340.5</ele>
        <time>2022-10-02T11:45:25Z</time>
      </trkpt>
      <trkpt lat="47.47912" lon="8.19502">
        <ele>340.5</ele>
        <time>2022-10-02T11:45:26Z</time>
      </trkpt>
      <trkpt lat="47.47919" lon="8.19499">
        <ele>340.4</ele>
        <time>2022-10-02T11:45:27Z</time>
      </trkpt>
      <trkpt lat="47.47925" lon="8.19499">
        <ele>340.4</ele>
        <time>2022-10-02T11:45:28Z</time>
      </trkpt>
      <trkpt lat="47.4793" lon="8.19497">
        <ele>340.4</ele>
        <time>2022-10-02T11:45:29Z</time>
      </trkpt>
      <trkpt lat="47.47936" lon="8.19494">
        <ele>340.4</ele>
        <time>2022-10-02T11:45:30Z</time>
      </trkpt>
      <trkpt lat="47.47942" lon="8.19493">
        <ele>340.4</ele>
        <time>2022-10-02T11:45:31Z</time>
      </trkpt>
      <trkpt lat="47.47947" lon="8.19491">
        <ele>340.4</ele>
        <time>2022-10-02T11:45:32Z</time>
      </trkpt>
      <trkpt lat="47.47954" lon="8.1949">
        <ele>340.3</ele>
        <time>2022-10-02T11:45:33Z</time>
      </trkpt>
      <trkpt lat="47.47959" lon="8.1949">
        <ele>340.3</ele>
        <time>2022-10-02T11:45:34Z</time>
      </trkpt>
      <trkpt lat="47.47966" lon="8.19488">
        <ele>340.3</ele>
        <time>2022-10-02T11:45:35Z</time>
      </trkpt>
      <trkpt lat="47.47972" lon="8.19487">
        <ele>340.3</ele>
        <time>2022-10-02T11:45:36Z</time>
      </trkpt>
      <trkpt lat="47.47977" lon="8.19486">
        <ele>340.3</ele>
        <time>2022-10-02T11:45:37Z</time>
      </trkpt>
      <trkpt lat="47.47983" lon="8.19485">
        <ele>340.3</ele>
        <time>2022-10-02T11:45:38Z</time>
      </trkpt>
      <trkpt lat="47.4799" lon="8.19483">
        <ele>340.3</ele>
        <time>2022-10-02T11:45:39Z</time>
      </trkpt>
      <trkpt lat="47.47996" lon="8.19482">
        <ele>340.3</ele>
        <time>2022-10-02T11:45:40Z</time>
      </trkpt>
      <trkpt lat="47.48001" lon="8.19479">
        <ele>340.3</ele>
        <time>2022-10-02T11:45:41Z</time>
      </trkpt>
      <trkpt lat="47.48006" lon="8.19479">
        <ele>340.3</ele>
        <time>2022-10-02T11:45:42Z</time>
      </trkpt>
      <trkpt lat="47.48012" lon="8.19476">
        <ele>340.3</ele>
        <time>2022-10-02T11:45:43Z</time>
      </trkpt>
      <trkpt lat="47.48018" lon="8.19474">
        <ele>340.3</ele>
        <time>2022-10-02T11:45:44Z</time>
      </trkpt>
      <trkpt lat="47.48024" lon="8.19472">
        <ele>340.3</ele>
        <time>2022-10-02T11:45:45Z</time>
      </trkpt>
      <trkpt lat="47.48029" lon="8.1947">
        <ele>340.3</ele>
        <time>2022-10-02T11:45:46Z</time>
      </trkpt>
      <trkpt lat="47.48036" lon="8.19467">
        <ele>340.3</ele>
        <time>2022-10-02T11:45:47Z</time>
      </trkpt>
      <trkpt lat="47.4804" lon="8.19464">
        <ele>340.3</ele>
        <time>2022-10-02T11:45:48Z</time>
      </trkpt>
      <trkpt lat="47.48045" lon="8.19463">
        <ele>340.3</ele>
        <time>2022-10-02T11:45:49Z</time>
      </trkpt>
      <trkpt lat="47.4805" lon="8.1946">
        <ele>340.3</ele>
        <time>2022-10-02T11:45:50Z</time>
      </trkpt>
      <trkpt lat="47.48055" lon="8.19459">
        <ele>340.3</ele>
        <time>2022-10-02T11:45:51Z</time>
      </trkpt>
      <trkpt lat="47.48061" lon="8.19457">
        <ele>340.3</ele>
        <time>2022-10-02T11:45:52Z</time>
      </trkpt>
      <trkpt lat="47.48066" lon="8.19454">
        <ele>340.2</ele>
        <time>2022-10-02T11:45:53Z</time>
      </trkpt>
      <trkpt lat="47.48072" lon="8.19451">
        <ele>340.2</ele>
        <time>2022-10-02T11:45:54Z</time>
      </trkpt>
      <trkpt lat="47.48078" lon="8.19448">
        <ele>340.2</ele>
        <time>2022-10-02T11:45:55Z</time>
      </trkpt>
      <trkpt lat="47.48083" lon="8.19446">
        <ele>340.2</ele>
        <time>2022-10-02T11:45:56Z</time>
      </trkpt>
      <trkpt lat="47.48089" lon="8.19444">
        <ele>340.1</ele>
        <time>2022-10-02T11:45:57Z</time>
      </trkpt>
      <trkpt lat="47.48095" lon="8.19441">
        <ele>340.1</ele>
        <time>2022-10-02T11:45:58Z</time>
      </trkpt>
      <trkpt lat="47.48101" lon="8.19438">
        <ele>340.1</ele>
        <time>2022-10-02T11:45:59Z</time>
      </trkpt>
      <trkpt lat="47.48107" lon="8.19434">
        <ele>340.1</ele>
        <time>2022-10-02T11:46:00Z</time>
      </trkpt>
      <trkpt lat="47.48113" lon="8.1943">
        <ele>340.1</ele>
        <time>2022-10-02T11:46:01Z</time>
      </trkpt>
      <trkpt lat="47.48118" lon="8.19429">
        <ele>340.1</ele>
        <time>2022-10-02T11:46:02Z</time>
      </trkpt>
      <trkpt lat="47.48124" lon="8.19427">
        <ele>340.2</ele>
        <time>2022-10-02T11:46:03Z</time>
      </trkpt>
      <trkpt lat="47.48129" lon="8.19425">
        <ele>340.2</ele>
        <time>2022-10-02T11:46:04Z</time>
      </trkpt>
      <trkpt lat="47.48134" lon="8.19424">
        <ele>340.3</ele>
        <time>2022-10-02T11:46:05Z</time>
      </trkpt>
      <trkpt lat="47.48138" lon="8.19423">
        <ele>340.3</ele>
        <time>2022-10-02T11:46:06Z</time>
      </trkpt>
      <trkpt lat="47.48143" lon="8.19422">
        <ele>340.4</ele>
        <time>2022-10-02T11:46:07Z</time>
      </trkpt>
      <trkpt lat="47.48145" lon="8.19422">
        <ele>340.4</ele>
        <time>2022-10-02T11:46:08Z</time>
      </trkpt>
      <trkpt lat="47.48148" lon="8.19425">
        <ele>340.5</ele>
        <time>2022-10-02T11:46:09Z</time>
      </trkpt>
      <trkpt lat="47.4815" lon="8.19428">
        <ele>340.7</ele>
        <time>2022-10-02T11:46:10Z</time>
      </trkpt>
      <trkpt lat="47.48152" lon="8.19433">
        <ele>340.8</ele>
        <time>2022-10-02T11:46:11Z</time>
      </trkpt>
      <trkpt lat="47.48153" lon="8.19438">
        <ele>340.9</ele>
        <time>2022-10-02T11:46:12Z</time>
      </trkpt>
      <trkpt lat="47.48154" lon="8.19441">
        <ele>341</ele>
        <time>2022-10-02T11:46:13Z</time>
      </trkpt>
      <trkpt lat="47.48155" lon="8.19447">
        <ele>341.1</ele>
        <time>2022-10-02T11:46:14Z</time>
      </trkpt>
      <trkpt lat="47.48155" lon="8.19452">
        <ele>341.2</ele>
        <time>2022-10-02T11:46:15Z</time>
      </trkpt>
      <trkpt lat="47.48157" lon="8.19457">
        <ele>341.3</ele>
        <time>2022-10-02T11:46:16Z</time>
      </trkpt>
      <trkpt lat="47.48159" lon="8.19462">
        <ele>341.5</ele>
        <time>2022-10-02T11:46:17Z</time>
      </trkpt>
      <trkpt lat="47.4816" lon="8.19464">
        <ele>341.6</ele>
        <time>2022-10-02T11:46:18Z</time>
      </trkpt>
      <trkpt lat="47.48162" lon="8.19467">
        <ele>341.7</ele>
        <time>2022-10-02T11:46:19Z</time>
      </trkpt>
      <trkpt lat="47.48163" lon="8.19472">
        <ele>341.8</ele>
        <time>2022-10-02T11:46:20Z</time>
      </trkpt>
      <trkpt lat="47.48163" lon="8.19474">
        <ele>341.9</ele>
        <time>2022-10-02T11:46:21Z</time>
      </trkpt>
      <trkpt lat="47.48166" lon="8.19478">
        <ele>342</ele>
        <time>2022-10-02T11:46:22Z</time>
      </trkpt>
      <trkpt lat="47.48168" lon="8.19481">
        <ele>342.2</ele>
        <time>2022-10-02T11:46:23Z</time>
      </trkpt>
      <trkpt lat="47.48169" lon="8.19481">
        <ele>342.2</ele>
        <time>2022-10-02T11:46:24Z</time>
      </trkpt>
      <trkpt lat="47.48172" lon="8.19485">
        <ele>342.4</ele>
        <time>2022-10-02T11:46:25Z</time>
      </trkpt>
      <trkpt lat="47.48173" lon="8.19486">
        <ele>342.4</ele>
        <time>2022-10-02T11:46:26Z</time>
      </trkpt>
      <trkpt lat="47.48174" lon="8.1949">
        <ele>342.5</ele>
        <time>2022-10-02T11:46:27Z</time>
      </trkpt>
      <trkpt lat="47.48176" lon="8.19491">
        <ele>342.6</ele>
        <time>2022-10-02T11:46:29Z</time>
      </trkpt>
      <trkpt lat="47.48179" lon="8.19495">
        <ele>342.7</ele>
        <time>2022-10-02T11:46:30Z</time>
      </trkpt>
      <trkpt lat="47.48179" lon="8.19496">
        <ele>342.8</ele>
        <time>2022-10-02T11:46:31Z</time>
      </trkpt>
      <trkpt lat="47.48182" lon="8.195">
        <ele>343</ele>
        <time>2022-10-02T11:46:32Z</time>
      </trkpt>
      <trkpt lat="47.48184" lon="8.19502">
        <ele>343</ele>
        <time>2022-10-02T11:46:33Z</time>
      </trkpt>
      <trkpt lat="47.48185" lon="8.19505">
        <ele>343.1</ele>
        <time>2022-10-02T11:46:34Z</time>
      </trkpt>
      <trkpt lat="47.48187" lon="8.19509">
        <ele>343.2</ele>
        <time>2022-10-02T11:46:35Z</time>
      </trkpt>
      <trkpt lat="47.48191" lon="8.19513">
        <ele>343.4</ele>
        <time>2022-10-02T11:46:36Z</time>
      </trkpt>
      <trkpt lat="47.48192" lon="8.19516">
        <ele>343.5</ele>
        <time>2022-10-02T11:46:37Z</time>
      </trkpt>
      <trkpt lat="47.48194" lon="8.1952">
        <ele>343.6</ele>
        <time>2022-10-02T11:46:38Z</time>
      </trkpt>
      <trkpt lat="47.48195" lon="8.19522">
        <ele>343.6</ele>
        <time>2022-10-02T11:46:39Z</time>
      </trkpt>
      <trkpt lat="47.48198" lon="8.19526">
        <ele>343.7</ele>
        <time>2022-10-02T11:46:40Z</time>
      </trkpt>
      <trkpt lat="47.482" lon="8.19531">
        <ele>343.8</ele>
        <time>2022-10-02T11:46:41Z</time>
      </trkpt>
      <trkpt lat="47.48201" lon="8.19535">
        <ele>343.9</ele>
        <time>2022-10-02T11:46:42Z</time>
      </trkpt>
      <trkpt lat="47.48203" lon="8.19541">
        <ele>344.1</ele>
        <time>2022-10-02T11:46:43Z</time>
      </trkpt>
      <trkpt lat="47.48203" lon="8.19542">
        <ele>344.1</ele>
        <time>2022-10-02T11:46:44Z</time>
      </trkpt>
      <trkpt lat="47.48204" lon="8.19547">
        <ele>344.2</ele>
        <time>2022-10-02T11:46:45Z</time>
      </trkpt>
      <trkpt lat="47.48205" lon="8.19549">
        <ele>344.2</ele>
        <time>2022-10-02T11:46:46Z</time>
      </trkpt>
      <trkpt lat="47.48207" lon="8.19552">
        <ele>344.3</ele>
        <time>2022-10-02T11:46:47Z</time>
      </trkpt>
      <trkpt lat="47.48209" lon="8.19555">
        <ele>344.5</ele>
        <time>2022-10-02T11:46:48Z</time>
      </trkpt>
      <trkpt lat="47.48212" lon="8.19557">
        <ele>344.5</ele>
        <time>2022-10-02T11:46:49Z</time>
      </trkpt>
      <trkpt lat="47.48215" lon="8.1956">
        <ele>344.6</ele>
        <time>2022-10-02T11:46:50Z</time>
      </trkpt>
      <trkpt lat="47.48217" lon="8.19561">
        <ele>344.6</ele>
        <time>2022-10-02T11:46:51Z</time>
      </trkpt>
      <trkpt lat="47.48221" lon="8.19563">
        <ele>344.7</ele>
        <time>2022-10-02T11:46:52Z</time>
      </trkpt>
      <trkpt lat="47.48222" lon="8.19564">
        <ele>344.7</ele>
        <time>2022-10-02T11:46:53Z</time>
      </trkpt>
      <trkpt lat="47.48225" lon="8.19567">
        <ele>344.8</ele>
        <time>2022-10-02T11:46:54Z</time>
      </trkpt>
      <trkpt lat="47.48229" lon="8.19567">
        <ele>344.8</ele>
        <time>2022-10-02T11:46:55Z</time>
      </trkpt>
      <trkpt lat="47.48233" lon="8.1957">
        <ele>344.9</ele>
        <time>2022-10-02T11:46:56Z</time>
      </trkpt>
      <trkpt lat="47.48236" lon="8.19573">
        <ele>344.9</ele>
        <time>2022-10-02T11:46:57Z</time>
      </trkpt>
      <trkpt lat="47.48238" lon="8.19573">
        <ele>345</ele>
        <time>2022-10-02T11:46:58Z</time>
      </trkpt>
      <trkpt lat="47.48241" lon="8.19577">
        <ele>345.1</ele>
        <time>2022-10-02T11:46:59Z</time>
      </trkpt>
      <trkpt lat="47.48243" lon="8.19579">
        <ele>345.1</ele>
        <time>2022-10-02T11:47:00Z</time>
      </trkpt>
      <trkpt lat="47.48246" lon="8.19581">
        <ele>345.2</ele>
        <time>2022-10-02T11:47:01Z</time>
      </trkpt>
      <trkpt lat="47.48248" lon="8.19586">
        <ele>345.3</ele>
        <time>2022-10-02T11:47:02Z</time>
      </trkpt>
      <trkpt lat="47.48249" lon="8.19588">
        <ele>345.3</ele>
        <time>2022-10-02T11:47:03Z</time>
      </trkpt>
      <trkpt lat="47.48251" lon="8.19593">
        <ele>345.4</ele>
        <time>2022-10-02T11:47:04Z</time>
      </trkpt>
      <trkpt lat="47.48252" lon="8.19595">
        <ele>345.4</ele>
        <time>2022-10-02T11:47:05Z</time>
      </trkpt>
      <trkpt lat="47.48253" lon="8.196">
        <ele>345.5</ele>
        <time>2022-10-02T11:47:06Z</time>
      </trkpt>
      <trkpt lat="47.48254" lon="8.19602">
        <ele>345.5</ele>
        <time>2022-10-02T11:47:07Z</time>
      </trkpt>
      <trkpt lat="47.48254" lon="8.19608">
        <ele>345.5</ele>
        <time>2022-10-02T11:47:08Z</time>
      </trkpt>
      <trkpt lat="47.48255" lon="8.19613">
        <ele>345.6</ele>
        <time>2022-10-02T11:47:09Z</time>
      </trkpt>
      <trkpt lat="47.48256" lon="8.19615">
        <ele>345.6</ele>
        <time>2022-10-02T11:47:10Z</time>
      </trkpt>
      <trkpt lat="47.48256" lon="8.1962">
        <ele>345.7</ele>
        <time>2022-10-02T11:47:11Z</time>
      </trkpt>
      <trkpt lat="47.48257" lon="8.19625">
        <ele>345.7</ele>
        <time>2022-10-02T11:47:12Z</time>
      </trkpt>
      <trkpt lat="47.48257" lon="8.1963">
        <ele>345.7</ele>
        <time>2022-10-02T11:47:13Z</time>
      </trkpt>
      <trkpt lat="47.48258" lon="8.19635">
        <ele>345.8</ele>
        <time>2022-10-02T11:47:14Z</time>
      </trkpt>
      <trkpt lat="47.48259" lon="8.19645">
        <ele>345.8</ele>
        <time>2022-10-02T11:47:15Z</time>
      </trkpt>
      <trkpt lat="47.48259" lon="8.1965">
        <ele>345.8</ele>
        <time>2022-10-02T11:47:16Z</time>
      </trkpt>
      <trkpt lat="47.4826" lon="8.19655">
        <ele>345.9</ele>
        <time>2022-10-02T11:47:17Z</time>
      </trkpt>
      <trkpt lat="47.48261" lon="8.1966">
        <ele>345.9</ele>
        <time>2022-10-02T11:47:18Z</time>
      </trkpt>
      <trkpt lat="47.48262" lon="8.19664">
        <ele>345.9</ele>
        <time>2022-10-02T11:47:19Z</time>
      </trkpt>
      <trkpt lat="47.48263" lon="8.1967">
        <ele>345.9</ele>
        <time>2022-10-02T11:47:20Z</time>
      </trkpt>
      <trkpt lat="47.48264" lon="8.19676">
        <ele>346</ele>
        <time>2022-10-02T11:47:21Z</time>
      </trkpt>
      <trkpt lat="47.48266" lon="8.19682">
        <ele>346</ele>
        <time>2022-10-02T11:47:22Z</time>
      </trkpt>
      <trkpt lat="47.48267" lon="8.19688">
        <ele>346</ele>
        <time>2022-10-02T11:47:23Z</time>
      </trkpt>
      <trkpt lat="47.48268" lon="8.19694">
        <ele>345.9</ele>
        <time>2022-10-02T11:47:24Z</time>
      </trkpt>
      <trkpt lat="47.4827" lon="8.197">
        <ele>345.9</ele>
        <time>2022-10-02T11:47:25Z</time>
      </trkpt>
      <trkpt lat="47.48271" lon="8.19706">
        <ele>345.9</ele>
        <time>2022-10-02T11:47:26Z</time>
      </trkpt>
      <trkpt lat="47.48272" lon="8.19714">
        <ele>345.9</ele>
        <time>2022-10-02T11:47:27Z</time>
      </trkpt>
      <trkpt lat="47.48274" lon="8.1972">
        <ele>345.9</ele>
        <time>2022-10-02T11:47:28Z</time>
      </trkpt>
      <trkpt lat="47.48274" lon="8.19729">
        <ele>345.9</ele>
        <time>2022-10-02T11:47:29Z</time>
      </trkpt>
      <trkpt lat="47.48276" lon="8.19734">
        <ele>345.9</ele>
        <time>2022-10-02T11:47:30Z</time>
      </trkpt>
      <trkpt lat="47.48278" lon="8.19739">
        <ele>345.9</ele>
        <time>2022-10-02T11:47:31Z</time>
      </trkpt>
      <trkpt lat="47.48279" lon="8.19749">
        <ele>345.9</ele>
        <time>2022-10-02T11:47:32Z</time>
      </trkpt>
      <trkpt lat="47.48282" lon="8.19756">
        <ele>345.9</ele>
        <time>2022-10-02T11:47:33Z</time>
      </trkpt>
      <trkpt lat="47.48283" lon="8.19763">
        <ele>345.9</ele>
        <time>2022-10-02T11:47:34Z</time>
      </trkpt>
      <trkpt lat="47.48285" lon="8.19771">
        <ele>345.9</ele>
        <time>2022-10-02T11:47:35Z</time>
      </trkpt>
      <trkpt lat="47.48287" lon="8.19778">
        <ele>345.9</ele>
        <time>2022-10-02T11:47:36Z</time>
      </trkpt>
      <trkpt lat="47.48289" lon="8.19785">
        <ele>345.8</ele>
        <time>2022-10-02T11:47:37Z</time>
      </trkpt>
      <trkpt lat="47.4829" lon="8.19793">
        <ele>345.8</ele>
        <time>2022-10-02T11:47:38Z</time>
      </trkpt>
      <trkpt lat="47.48292" lon="8.19799">
        <ele>345.8</ele>
        <time>2022-10-02T11:47:39Z</time>
      </trkpt>
      <trkpt lat="47.48293" lon="8.19808">
        <ele>345.8</ele>
        <time>2022-10-02T11:47:40Z</time>
      </trkpt>
      <trkpt lat="47.48295" lon="8.19816">
        <ele>345.8</ele>
        <time>2022-10-02T11:47:41Z</time>
      </trkpt>
      <trkpt lat="47.48296" lon="8.19822">
        <ele>345.8</ele>
        <time>2022-10-02T11:47:42Z</time>
      </trkpt>
      <trkpt lat="47.48297" lon="8.1983">
        <ele>345.8</ele>
        <time>2022-10-02T11:47:43Z</time>
      </trkpt>
      <trkpt lat="47.48299" lon="8.19839">
        <ele>345.8</ele>
        <time>2022-10-02T11:47:44Z</time>
      </trkpt>
      <trkpt lat="47.48302" lon="8.19845">
        <ele>345.8</ele>
        <time>2022-10-02T11:47:45Z</time>
      </trkpt>
      <trkpt lat="47.48304" lon="8.19852">
        <ele>345.8</ele>
        <time>2022-10-02T11:47:46Z</time>
      </trkpt>
      <trkpt lat="47.48306" lon="8.19858">
        <ele>345.8</ele>
        <time>2022-10-02T11:47:47Z</time>
      </trkpt>
      <trkpt lat="47.48309" lon="8.19864">
        <ele>345.7</ele>
        <time>2022-10-02T11:47:48Z</time>
      </trkpt>
      <trkpt lat="47.4831" lon="8.19872">
        <ele>345.7</ele>
        <time>2022-10-02T11:47:49Z</time>
      </trkpt>
      <trkpt lat="47.48314" lon="8.19879">
        <ele>345.7</ele>
        <time>2022-10-02T11:47:50Z</time>
      </trkpt>
      <trkpt lat="47.48316" lon="8.19886">
        <ele>345.7</ele>
        <time>2022-10-02T11:47:51Z</time>
      </trkpt>
      <trkpt lat="47.48318" lon="8.19894">
        <ele>345.7</ele>
        <time>2022-10-02T11:47:52Z</time>
      </trkpt>
      <trkpt lat="47.48319" lon="8.19901">
        <ele>345.7</ele>
        <time>2022-10-02T11:47:53Z</time>
      </trkpt>
      <trkpt lat="47.48322" lon="8.19908">
        <ele>345.6</ele>
        <time>2022-10-02T11:47:54Z</time>
      </trkpt>
      <trkpt lat="47.48323" lon="8.19914">
        <ele>345.6</ele>
        <time>2022-10-02T11:47:55Z</time>
      </trkpt>
      <trkpt lat="47.48325" lon="8.19921">
        <ele>345.6</ele>
        <time>2022-10-02T11:47:56Z</time>
      </trkpt>
      <trkpt lat="47.48326" lon="8.19928">
        <ele>345.6</ele>
        <time>2022-10-02T11:47:57Z</time>
      </trkpt>
      <trkpt lat="47.48326" lon="8.19935">
        <ele>345.7</ele>
        <time>2022-10-02T11:47:58Z</time>
      </trkpt>
      <trkpt lat="47.48326" lon="8.19941">
        <ele>345.7</ele>
        <time>2022-10-02T11:47:59Z</time>
      </trkpt>
      <trkpt lat="47.48324" lon="8.19947">
        <ele>345.7</ele>
        <time>2022-10-02T11:48:00Z</time>
      </trkpt>
      <trkpt lat="47.48323" lon="8.19954">
        <ele>345.6</ele>
        <time>2022-10-02T11:48:01Z</time>
      </trkpt>
      <trkpt lat="47.48323" lon="8.19959">
        <ele>345.6</ele>
        <time>2022-10-02T11:48:02Z</time>
      </trkpt>
      <trkpt lat="47.48321" lon="8.19966">
        <ele>345.5</ele>
        <time>2022-10-02T11:48:03Z</time>
      </trkpt>
      <trkpt lat="47.48319" lon="8.19973">
        <ele>345.5</ele>
        <time>2022-10-02T11:48:04Z</time>
      </trkpt>
      <trkpt lat="47.48318" lon="8.1998">
        <ele>345.5</ele>
        <time>2022-10-02T11:48:05Z</time>
      </trkpt>
      <trkpt lat="47.48317" lon="8.19988">
        <ele>345.5</ele>
        <time>2022-10-02T11:48:06Z</time>
      </trkpt>
      <trkpt lat="47.48315" lon="8.19994">
        <ele>345.5</ele>
        <time>2022-10-02T11:48:07Z</time>
      </trkpt>
      <trkpt lat="47.48314" lon="8.20002">
        <ele>345.5</ele>
        <time>2022-10-02T11:48:08Z</time>
      </trkpt>
      <trkpt lat="47.48314" lon="8.20009">
        <ele>345.5</ele>
        <time>2022-10-02T11:48:09Z</time>
      </trkpt>
      <trkpt lat="47.48311" lon="8.20016">
        <ele>345.5</ele>
        <time>2022-10-02T11:48:10Z</time>
      </trkpt>
      <trkpt lat="47.48309" lon="8.20022">
        <ele>345.5</ele>
        <time>2022-10-02T11:48:11Z</time>
      </trkpt>
      <trkpt lat="47.48307" lon="8.20029">
        <ele>345.5</ele>
        <time>2022-10-02T11:48:12Z</time>
      </trkpt>
      <trkpt lat="47.48305" lon="8.20036">
        <ele>345.5</ele>
        <time>2022-10-02T11:48:13Z</time>
      </trkpt>
      <trkpt lat="47.48305" lon="8.20044">
        <ele>345.5</ele>
        <time>2022-10-02T11:48:14Z</time>
      </trkpt>
      <trkpt lat="47.48303" lon="8.20051">
        <ele>345.5</ele>
        <time>2022-10-02T11:48:15Z</time>
      </trkpt>
      <trkpt lat="47.48302" lon="8.20058">
        <ele>345.5</ele>
        <time>2022-10-02T11:48:16Z</time>
      </trkpt>
      <trkpt lat="47.48301" lon="8.20065">
        <ele>345.5</ele>
        <time>2022-10-02T11:48:17Z</time>
      </trkpt>
      <trkpt lat="47.48299" lon="8.20071">
        <ele>345.5</ele>
        <time>2022-10-02T11:48:18Z</time>
      </trkpt>
      <trkpt lat="47.48297" lon="8.20077">
        <ele>345.5</ele>
        <time>2022-10-02T11:48:19Z</time>
      </trkpt>
      <trkpt lat="47.48295" lon="8.20083">
        <ele>345.5</ele>
        <time>2022-10-02T11:48:20Z</time>
      </trkpt>
      <trkpt lat="47.48293" lon="8.20088">
        <ele>345.5</ele>
        <time>2022-10-02T11:48:21Z</time>
      </trkpt>
      <trkpt lat="47.48291" lon="8.20095">
        <ele>345.5</ele>
        <time>2022-10-02T11:48:22Z</time>
      </trkpt>
      <trkpt lat="47.48291" lon="8.20102">
        <ele>345.5</ele>
        <time>2022-10-02T11:48:23Z</time>
      </trkpt>
      <trkpt lat="47.48288" lon="8.20107">
        <ele>345.6</ele>
        <time>2022-10-02T11:48:24Z</time>
      </trkpt>
      <trkpt lat="47.48287" lon="8.20115">
        <ele>345.6</ele>
        <time>2022-10-02T11:48:25Z</time>
      </trkpt>
      <trkpt lat="47.48286" lon="8.20122">
        <ele>345.6</ele>
        <time>2022-10-02T11:48:26Z</time>
      </trkpt>
      <trkpt lat="47.48284" lon="8.20127">
        <ele>345.6</ele>
        <time>2022-10-02T11:48:27Z</time>
      </trkpt>
      <trkpt lat="47.48284" lon="8.20133">
        <ele>345.6</ele>
        <time>2022-10-02T11:48:28Z</time>
      </trkpt>
      <trkpt lat="47.48282" lon="8.2014">
        <ele>345.6</ele>
        <time>2022-10-02T11:48:29Z</time>
      </trkpt>
      <trkpt lat="47.4828" lon="8.20145">
        <ele>345.6</ele>
        <time>2022-10-02T11:48:30Z</time>
      </trkpt>
      <trkpt lat="47.48279" lon="8.20152">
        <ele>345.6</ele>
        <time>2022-10-02T11:48:31Z</time>
      </trkpt>
      <trkpt lat="47.48278" lon="8.20159">
        <ele>345.6</ele>
        <time>2022-10-02T11:48:32Z</time>
      </trkpt>
      <trkpt lat="47.48277" lon="8.20165">
        <ele>345.6</ele>
        <time>2022-10-02T11:48:33Z</time>
      </trkpt>
      <trkpt lat="47.48277" lon="8.20173">
        <ele>345.6</ele>
        <time>2022-10-02T11:48:35Z</time>
      </trkpt>
      <trkpt lat="47.48275" lon="8.20179">
        <ele>345.7</ele>
        <time>2022-10-02T11:48:36Z</time>
      </trkpt>
      <trkpt lat="47.48274" lon="8.20184">
        <ele>345.7</ele>
        <time>2022-10-02T11:48:37Z</time>
      </trkpt>
      <trkpt lat="47.48273" lon="8.20191">
        <ele>345.7</ele>
        <time>2022-10-02T11:48:38Z</time>
      </trkpt>
      <trkpt lat="47.48273" lon="8.20199">
        <ele>345.7</ele>
        <time>2022-10-02T11:48:39Z</time>
      </trkpt>
      <trkpt lat="47.48271" lon="8.20202">
        <ele>345.7</ele>
        <time>2022-10-02T11:48:40Z</time>
      </trkpt>
      <trkpt lat="47.4827" lon="8.20208">
        <ele>345.7</ele>
        <time>2022-10-02T11:48:41Z</time>
      </trkpt>
      <trkpt lat="47.48271" lon="8.20212">
        <ele>345.8</ele>
        <time>2022-10-02T11:48:42Z</time>
      </trkpt>
      <trkpt lat="47.4827" lon="8.20217">
        <ele>345.8</ele>
        <time>2022-10-02T11:48:43Z</time>
      </trkpt>
      <trkpt lat="47.48269" lon="8.20221">
        <ele>345.8</ele>
        <time>2022-10-02T11:48:44Z</time>
      </trkpt>
      <trkpt lat="47.48269" lon="8.20223">
        <ele>345.8</ele>
        <time>2022-10-02T11:48:45Z</time>
      </trkpt>
      <trkpt lat="47.48269" lon="8.20228">
        <ele>345.9</ele>
        <time>2022-10-02T11:48:46Z</time>
      </trkpt>
      <trkpt lat="47.4827" lon="8.20233">
        <ele>345.9</ele>
        <time>2022-10-02T11:48:47Z</time>
      </trkpt>
      <trkpt lat="47.4827" lon="8.20238">
        <ele>345.9</ele>
        <time>2022-10-02T11:48:48Z</time>
      </trkpt>
      <trkpt lat="47.48271" lon="8.2024">
        <ele>345.9</ele>
        <time>2022-10-02T11:48:49Z</time>
      </trkpt>
      <trkpt lat="47.4827" lon="8.20243">
        <ele>345.9</ele>
        <time>2022-10-02T11:48:50Z</time>
      </trkpt>
      <trkpt lat="47.4827" lon="8.20245">
        <ele>345.9</ele>
        <time>2022-10-02T11:48:51Z</time>
      </trkpt>
      <trkpt lat="47.4827" lon="8.20247">
        <ele>345.9</ele>
        <time>2022-10-02T11:48:52Z</time>
      </trkpt>
      <trkpt lat="47.4827" lon="8.20248">
        <ele>345.9</ele>
        <time>2022-10-02T11:48:53Z</time>
      </trkpt>
      <trkpt lat="47.48271" lon="8.20248">
        <ele>345.9</ele>
        <time>2022-10-02T11:48:54Z</time>
      </trkpt>
      <trkpt lat="47.48271" lon="8.20249">
        <ele>345.9</ele>
        <time>2022-10-02T11:48:55Z</time>
      </trkpt>
      <trkpt lat="47.48271" lon="8.20249">
        <ele>345.9</ele>
        <time>2022-10-02T11:48:56Z</time>
      </trkpt>
      <trkpt lat="47.48272" lon="8.20249">
        <ele>345.9</ele>
        <time>2022-10-02T11:48:57Z</time>
      </trkpt>
      <trkpt lat="47.48272" lon="8.2025">
        <ele>345.9</ele>
        <time>2022-10-02T11:48:58Z</time>
      </trkpt>
      <trkpt lat="47.48273" lon="8.2025">
        <ele>345.9</ele>
        <time>2022-10-02T11:48:59Z</time>
      </trkpt>
      <trkpt lat="47.48273" lon="8.20251">
        <ele>345.9</ele>
        <time>2022-10-02T11:49:00Z</time>
      </trkpt>
      <trkpt lat="47.48273" lon="8.20251">
        <ele>345.9</ele>
        <time>2022-10-02T11:49:01Z</time>
      </trkpt>
      <trkpt lat="47.48274" lon="8.20252">
        <ele>345.9</ele>
        <time>2022-10-02T11:49:15Z</time>
      </trkpt>
      <trkpt lat="47.48274" lon="8.20252">
        <ele>345.9</ele>
        <time>2022-10-02T11:49:16Z</time>
      </trkpt>
      <trkpt lat="47.48274" lon="8.20253">
        <ele>346</ele>
        <time>2022-10-02T11:49:17Z</time>
      </trkpt>
      <trkpt lat="47.48275" lon="8.20253">
        <ele>345.9</ele>
        <time>2022-10-02T11:49:18Z</time>
      </trkpt>
      <trkpt lat="47.48275" lon="8.20254">
        <ele>345.9</ele>
        <time>2022-10-02T11:49:19Z</time>
      </trkpt>
      <trkpt lat="47.48276" lon="8.20254">
        <ele>345.9</ele>
        <time>2022-10-02T11:49:20Z</time>
      </trkpt>
      <trkpt lat="47.48276" lon="8.20254">
        <ele>345.9</ele>
        <time>2022-10-02T11:49:21Z</time>
      </trkpt>
      <trkpt lat="47.48276" lon="8.20255">
        <ele>345.9</ele>
        <time>2022-10-02T11:49:22Z</time>
      </trkpt>
      <trkpt lat="47.48277" lon="8.20255">
        <ele>345.9</ele>
        <time>2022-10-02T11:49:23Z</time>
      </trkpt>
      <trkpt lat="47.48277" lon="8.20256">
        <ele>345.9</ele>
        <time>2022-10-02T11:49:24Z</time>
      </trkpt>
      <trkpt lat="47.48277" lon="8.20256">
        <ele>345.9</ele>
        <time>2022-10-02T11:51:16Z</time>
      </trkpt>
      <trkpt lat="47.48278" lon="8.20257">
        <ele>345.9</ele>
        <time>2022-10-02T11:51:17Z</time>
      </trkpt>
      <trkpt lat="47.48278" lon="8.20257">
        <ele>345.9</ele>
        <time>2022-10-02T11:51:18Z</time>
      </trkpt>
      <trkpt lat="47.4828" lon="8.2026">
        <ele>345.8</ele>
        <time>2022-10-02T11:51:19Z</time>
      </trkpt>
      <trkpt lat="47.48283" lon="8.20263">
        <ele>345.8</ele>
        <time>2022-10-02T11:51:20Z</time>
      </trkpt>
      <trkpt lat="47.48286" lon="8.20268">
        <ele>345.8</ele>
        <time>2022-10-02T11:51:21Z</time>
      </trkpt>
      <trkpt lat="47.48287" lon="8.2027">
        <ele>345.7</ele>
        <time>2022-10-02T11:51:22Z</time>
      </trkpt>
      <trkpt lat="47.4829" lon="8.20274">
        <ele>345.7</ele>
        <time>2022-10-02T11:51:23Z</time>
      </trkpt>
      <trkpt lat="47.48295" lon="8.20283">
        <ele>345.7</ele>
        <time>2022-10-02T11:51:24Z</time>
      </trkpt>
      <trkpt lat="47.48298" lon="8.20288">
        <ele>345.7</ele>
        <time>2022-10-02T11:51:25Z</time>
      </trkpt>
      <trkpt lat="47.48302" lon="8.20291">
        <ele>345.7</ele>
        <time>2022-10-02T11:51:26Z</time>
      </trkpt>
      <trkpt lat="47.48304" lon="8.20297">
        <ele>345.8</ele>
        <time>2022-10-02T11:51:27Z</time>
      </trkpt>
      <trkpt lat="47.48307" lon="8.20301">
        <ele>345.8</ele>
        <time>2022-10-02T11:51:28Z</time>
      </trkpt>
      <trkpt lat="47.48311" lon="8.20306">
        <ele>345.9</ele>
        <time>2022-10-02T11:51:29Z</time>
      </trkpt>
      <trkpt lat="47.48315" lon="8.2031">
        <ele>345.9</ele>
        <time>2022-10-02T11:51:30Z</time>
      </trkpt>
      <trkpt lat="47.48318" lon="8.20316">
        <ele>346</ele>
        <time>2022-10-02T11:51:31Z</time>
      </trkpt>
      <trkpt lat="47.4832" lon="8.20321">
        <ele>346.1</ele>
        <time>2022-10-02T11:51:32Z</time>
      </trkpt>
      <trkpt lat="47.48324" lon="8.20325">
        <ele>346.2</ele>
        <time>2022-10-02T11:51:33Z</time>
      </trkpt>
      <trkpt lat="47.48327" lon="8.20329">
        <ele>346.3</ele>
        <time>2022-10-02T11:51:34Z</time>
      </trkpt>
      <trkpt lat="47.4833" lon="8.20333">
        <ele>346.4</ele>
        <time>2022-10-02T11:51:35Z</time>
      </trkpt>
      <trkpt lat="47.48332" lon="8.20337">
        <ele>346.5</ele>
        <time>2022-10-02T11:51:36Z</time>
      </trkpt>
      <trkpt lat="47.48334" lon="8.2034">
        <ele>346.6</ele>
        <time>2022-10-02T11:51:37Z</time>
      </trkpt>
      <trkpt lat="47.48336" lon="8.20344">
        <ele>346.7</ele>
        <time>2022-10-02T11:51:38Z</time>
      </trkpt>
      <trkpt lat="47.48337" lon="8.20349">
        <ele>346.8</ele>
        <time>2022-10-02T11:51:39Z</time>
      </trkpt>
      <trkpt lat="47.4834" lon="8.20352">
        <ele>346.9</ele>
        <time>2022-10-02T11:51:40Z</time>
      </trkpt>
      <trkpt lat="47.48341" lon="8.20358">
        <ele>347.1</ele>
        <time>2022-10-02T11:51:41Z</time>
      </trkpt>
      <trkpt lat="47.48342" lon="8.2036">
        <ele>347.2</ele>
        <time>2022-10-02T11:51:42Z</time>
      </trkpt>
      <trkpt lat="47.48345" lon="8.20363">
        <ele>347.3</ele>
        <time>2022-10-02T11:51:43Z</time>
      </trkpt>
      <trkpt lat="47.48346" lon="8.20366">
        <ele>347.4</ele>
        <time>2022-10-02T11:51:44Z</time>
      </trkpt>
      <trkpt lat="47.48349" lon="8.20369">
        <ele>347.6</ele>
        <time>2022-10-02T11:51:45Z</time>
      </trkpt>
      <trkpt lat="47.4835" lon="8.2037">
        <ele>347.7</ele>
        <time>2022-10-02T11:51:46Z</time>
      </trkpt>
      <trkpt lat="47.48352" lon="8.20373">
        <ele>347.8</ele>
        <time>2022-10-02T11:51:47Z</time>
      </trkpt>
      <trkpt lat="47.48353" lon="8.20374">
        <ele>347.9</ele>
        <time>2022-10-02T11:51:48Z</time>
      </trkpt>
      <trkpt lat="47.48355" lon="8.20378">
        <ele>348</ele>
        <time>2022-10-02T11:51:49Z</time>
      </trkpt>
      <trkpt lat="47.48356" lon="8.20379">
        <ele>348.1</ele>
        <time>2022-10-02T11:51:50Z</time>
      </trkpt>
      <trkpt lat="47.48359" lon="8.20382">
        <ele>348.2</ele>
        <time>2022-10-02T11:51:51Z</time>
      </trkpt>
      <trkpt lat="47.48359" lon="8.20383">
        <ele>348.3</ele>
        <time>2022-10-02T11:51:52Z</time>
      </trkpt>
      <trkpt lat="47.48362" lon="8.20387">
        <ele>348.5</ele>
        <time>2022-10-02T11:51:53Z</time>
      </trkpt>
      <trkpt lat="47.48362" lon="8.20388">
        <ele>348.5</ele>
        <time>2022-10-02T11:51:54Z</time>
      </trkpt>
      <trkpt lat="47.48364" lon="8.20392">
        <ele>348.7</ele>
        <time>2022-10-02T11:51:55Z</time>
      </trkpt>
      <trkpt lat="47.48364" lon="8.20393">
        <ele>348.7</ele>
        <time>2022-10-02T11:51:56Z</time>
      </trkpt>
      <trkpt lat="47.48366" lon="8.20397">
        <ele>348.9</ele>
        <time>2022-10-02T11:51:57Z</time>
      </trkpt>
      <trkpt lat="47.48367" lon="8.20397">
        <ele>348.9</ele>
        <time>2022-10-02T11:51:58Z</time>
      </trkpt>
      <trkpt lat="47.48369" lon="8.20401">
        <ele>349</ele>
        <time>2022-10-02T11:51:59Z</time>
      </trkpt>
      <trkpt lat="47.4837" lon="8.20402">
        <ele>349.1</ele>
        <time>2022-10-02T11:52:00Z</time>
      </trkpt>
      <trkpt lat="47.48371" lon="8.20404">
        <ele>349.2</ele>
        <time>2022-10-02T11:52:01Z</time>
      </trkpt>
      <trkpt lat="47.48372" lon="8.20406">
        <ele>349.3</ele>
        <time>2022-10-02T11:52:02Z</time>
      </trkpt>
      <trkpt lat="47.48373" lon="8.20408">
        <ele>349.3</ele>
        <time>2022-10-02T11:52:03Z</time>
      </trkpt>
      <trkpt lat="47.48374" lon="8.2041">
        <ele>349.4</ele>
        <time>2022-10-02T11:52:04Z</time>
      </trkpt>
      <trkpt lat="47.48377" lon="8.20414">
        <ele>349.6</ele>
        <time>2022-10-02T11:52:05Z</time>
      </trkpt>
      <trkpt lat="47.48378" lon="8.20415">
        <ele>349.6</ele>
        <time>2022-10-02T11:52:06Z</time>
      </trkpt>
      <trkpt lat="47.4838" lon="8.20419">
        <ele>349.8</ele>
        <time>2022-10-02T11:52:07Z</time>
      </trkpt>
      <trkpt lat="47.4838" lon="8.2042">
        <ele>349.9</ele>
        <time>2022-10-02T11:52:08Z</time>
      </trkpt>
      <trkpt lat="47.48381" lon="8.20424">
        <ele>350</ele>
        <time>2022-10-02T11:52:09Z</time>
      </trkpt>
      <trkpt lat="47.48382" lon="8.20425">
        <ele>350.1</ele>
        <time>2022-10-02T11:52:10Z</time>
      </trkpt>
      <trkpt lat="47.48383" lon="8.20428">
        <ele>350.1</ele>
        <time>2022-10-02T11:52:11Z</time>
      </trkpt>
      <trkpt lat="47.48384" lon="8.2043">
        <ele>350.2</ele>
        <time>2022-10-02T11:52:12Z</time>
      </trkpt>
      <trkpt lat="47.48385" lon="8.20435">
        <ele>350.4</ele>
        <time>2022-10-02T11:52:13Z</time>
      </trkpt>
      <trkpt lat="47.48386" lon="8.20436">
        <ele>350.5</ele>
        <time>2022-10-02T11:52:14Z</time>
      </trkpt>
      <trkpt lat="47.48388" lon="8.20441">
        <ele>350.6</ele>
        <time>2022-10-02T11:52:15Z</time>
      </trkpt>
      <trkpt lat="47.48389" lon="8.20442">
        <ele>350.7</ele>
        <time>2022-10-02T11:52:16Z</time>
      </trkpt>
      <trkpt lat="47.48391" lon="8.20446">
        <ele>350.8</ele>
        <time>2022-10-02T11:52:17Z</time>
      </trkpt>
      <trkpt lat="47.48392" lon="8.20448">
        <ele>350.9</ele>
        <time>2022-10-02T11:52:18Z</time>
      </trkpt>
      <trkpt lat="47.48394" lon="8.20453">
        <ele>351</ele>
        <time>2022-10-02T11:52:19Z</time>
      </trkpt>
      <trkpt lat="47.48395" lon="8.20455">
        <ele>351.1</ele>
        <time>2022-10-02T11:52:20Z</time>
      </trkpt>
      <trkpt lat="47.48397" lon="8.20459">
        <ele>351.2</ele>
        <time>2022-10-02T11:52:21Z</time>
      </trkpt>
      <trkpt lat="47.48398" lon="8.2046">
        <ele>351.2</ele>
        <time>2022-10-02T11:52:22Z</time>
      </trkpt>
      <trkpt lat="47.48399" lon="8.20466">
        <ele>351.3</ele>
        <time>2022-10-02T11:52:23Z</time>
      </trkpt>
      <trkpt lat="47.484" lon="8.20468">
        <ele>351.4</ele>
        <time>2022-10-02T11:52:24Z</time>
      </trkpt>
      <trkpt lat="47.48401" lon="8.20471">
        <ele>351.4</ele>
        <time>2022-10-02T11:52:25Z</time>
      </trkpt>
      <trkpt lat="47.48402" lon="8.20476">
        <ele>351.5</ele>
        <time>2022-10-02T11:52:26Z</time>
      </trkpt>
      <trkpt lat="47.48403" lon="8.20479">
        <ele>351.6</ele>
        <time>2022-10-02T11:52:27Z</time>
      </trkpt>
      <trkpt lat="47.48404" lon="8.20483">
        <ele>351.7</ele>
        <time>2022-10-02T11:52:28Z</time>
      </trkpt>
      <trkpt lat="47.48406" lon="8.20489">
        <ele>351.7</ele>
        <time>2022-10-02T11:52:29Z</time>
      </trkpt>
      <trkpt lat="47.48407" lon="8.20491">
        <ele>351.8</ele>
        <time>2022-10-02T11:52:30Z</time>
      </trkpt>
      <trkpt lat="47.48407" lon="8.20495">
        <ele>351.8</ele>
        <time>2022-10-02T11:52:31Z</time>
      </trkpt>
      <trkpt lat="47.48408" lon="8.205">
        <ele>351.9</ele>
        <time>2022-10-02T11:52:32Z</time>
      </trkpt>
      <trkpt lat="47.48409" lon="8.20504">
        <ele>352</ele>
        <time>2022-10-02T11:52:33Z</time>
      </trkpt>
      <trkpt lat="47.4841" lon="8.20508">
        <ele>352</ele>
        <time>2022-10-02T11:52:34Z</time>
      </trkpt>
      <trkpt lat="47.48412" lon="8.20513">
        <ele>352.1</ele>
        <time>2022-10-02T11:52:35Z</time>
      </trkpt>
      <trkpt lat="47.48413" lon="8.20517">
        <ele>352.1</ele>
        <time>2022-10-02T11:52:36Z</time>
      </trkpt>
      <trkpt lat="47.48415" lon="8.20521">
        <ele>352.2</ele>
        <time>2022-10-02T11:52:37Z</time>
      </trkpt>
      <trkpt lat="47.48416" lon="8.20525">
        <ele>352.2</ele>
        <time>2022-10-02T11:52:38Z</time>
      </trkpt>
      <trkpt lat="47.48417" lon="8.2053">
        <ele>352.2</ele>
        <time>2022-10-02T11:52:39Z</time>
      </trkpt>
      <trkpt lat="47.48418" lon="8.20534">
        <ele>352.2</ele>
        <time>2022-10-02T11:52:40Z</time>
      </trkpt>
      <trkpt lat="47.48418" lon="8.20539">
        <ele>352.3</ele>
        <time>2022-10-02T11:52:41Z</time>
      </trkpt>
      <trkpt lat="47.48419" lon="8.20544">
        <ele>352.3</ele>
        <time>2022-10-02T11:52:42Z</time>
      </trkpt>
      <trkpt lat="47.4842" lon="8.2055">
        <ele>352.3</ele>
        <time>2022-10-02T11:52:43Z</time>
      </trkpt>
      <trkpt lat="47.4842" lon="8.20555">
        <ele>352.4</ele>
        <time>2022-10-02T11:52:44Z</time>
      </trkpt>
      <trkpt lat="47.48421" lon="8.2056">
        <ele>352.4</ele>
        <time>2022-10-02T11:52:45Z</time>
      </trkpt>
      <trkpt lat="47.48422" lon="8.20565">
        <ele>352.4</ele>
        <time>2022-10-02T11:52:47Z</time>
      </trkpt>
      <trkpt lat="47.48423" lon="8.2057">
        <ele>352.4</ele>
        <time>2022-10-02T11:52:48Z</time>
      </trkpt>
      <trkpt lat="47.48425" lon="8.20575">
        <ele>352.5</ele>
        <time>2022-10-02T11:52:49Z</time>
      </trkpt>
      <trkpt lat="47.48425" lon="8.20581">
        <ele>352.5</ele>
        <time>2022-10-02T11:52:50Z</time>
      </trkpt>
      <trkpt lat="47.48425" lon="8.20587">
        <ele>352.6</ele>
        <time>2022-10-02T11:52:51Z</time>
      </trkpt>
      <trkpt lat="47.48427" lon="8.20593">
        <ele>352.6</ele>
        <time>2022-10-02T11:52:52Z</time>
      </trkpt>
      <trkpt lat="47.48426" lon="8.20599">
        <ele>352.6</ele>
        <time>2022-10-02T11:52:53Z</time>
      </trkpt>
      <trkpt lat="47.48425" lon="8.20604">
        <ele>352.6</ele>
        <time>2022-10-02T11:52:54Z</time>
      </trkpt>
      <trkpt lat="47.48423" lon="8.20609">
        <ele>352.6</ele>
        <time>2022-10-02T11:52:55Z</time>
      </trkpt>
      <trkpt lat="47.48422" lon="8.20613">
        <ele>352.7</ele>
        <time>2022-10-02T11:52:56Z</time>
      </trkpt>
      <trkpt lat="47.48421" lon="8.20617">
        <ele>352.7</ele>
        <time>2022-10-02T11:52:57Z</time>
      </trkpt>
      <trkpt lat="47.4842" lon="8.20617">
        <ele>352.7</ele>
        <time>2022-10-02T11:52:58Z</time>
      </trkpt>
      <trkpt lat="47.48419" lon="8.20623">
        <ele>352.7</ele>
        <time>2022-10-02T11:52:59Z</time>
      </trkpt>
      <trkpt lat="47.48418" lon="8.20625">
        <ele>352.7</ele>
        <time>2022-10-02T11:53:00Z</time>
      </trkpt>
      <trkpt lat="47.48416" lon="8.20631">
        <ele>352.7</ele>
        <time>2022-10-02T11:53:01Z</time>
      </trkpt>
      <trkpt lat="47.48415" lon="8.20637">
        <ele>352.7</ele>
        <time>2022-10-02T11:53:02Z</time>
      </trkpt>
      <trkpt lat="47.48415" lon="8.20645">
        <ele>352.7</ele>
        <time>2022-10-02T11:53:03Z</time>
      </trkpt>
      <trkpt lat="47.48414" lon="8.20651">
        <ele>352.7</ele>
        <time>2022-10-02T11:53:04Z</time>
      </trkpt>
      <trkpt lat="47.48415" lon="8.20659">
        <ele>352.7</ele>
        <time>2022-10-02T11:53:05Z</time>
      </trkpt>
      <trkpt lat="47.48416" lon="8.20666">
        <ele>352.7</ele>
        <time>2022-10-02T11:53:06Z</time>
      </trkpt>
      <trkpt lat="47.48417" lon="8.20673">
        <ele>352.7</ele>
        <time>2022-10-02T11:53:07Z</time>
      </trkpt>
      <trkpt lat="47.48418" lon="8.2068">
        <ele>352.7</ele>
        <time>2022-10-02T11:53:08Z</time>
      </trkpt>
      <trkpt lat="47.48419" lon="8.20686">
        <ele>352.7</ele>
        <time>2022-10-02T11:53:09Z</time>
      </trkpt>
      <trkpt lat="47.48419" lon="8.20692">
        <ele>352.7</ele>
        <time>2022-10-02T11:53:10Z</time>
      </trkpt>
      <trkpt lat="47.4842" lon="8.20697">
        <ele>352.7</ele>
        <time>2022-10-02T11:53:11Z</time>
      </trkpt>
      <trkpt lat="47.4842" lon="8.20703">
        <ele>352.7</ele>
        <time>2022-10-02T11:53:12Z</time>
      </trkpt>
      <trkpt lat="47.48418" lon="8.20709">
        <ele>352.8</ele>
        <time>2022-10-02T11:53:13Z</time>
      </trkpt>
      <trkpt lat="47.48417" lon="8.20711">
        <ele>352.8</ele>
        <time>2022-10-02T11:53:14Z</time>
      </trkpt>
      <trkpt lat="47.48413" lon="8.20714">
        <ele>352.8</ele>
        <time>2022-10-02T11:53:15Z</time>
      </trkpt>
      <trkpt lat="47.4841" lon="8.20717">
        <ele>352.8</ele>
        <time>2022-10-02T11:53:16Z</time>
      </trkpt>
      <trkpt lat="47.48406" lon="8.20719">
        <ele>352.8</ele>
        <time>2022-10-02T11:53:17Z</time>
      </trkpt>
      <trkpt lat="47.48402" lon="8.20722">
        <ele>352.8</ele>
        <time>2022-10-02T11:53:18Z</time>
      </trkpt>
      <trkpt lat="47.48398" lon="8.20724">
        <ele>352.8</ele>
        <time>2022-10-02T11:53:19Z</time>
      </trkpt>
      <trkpt lat="47.48395" lon="8.20725">
        <ele>352.9</ele>
        <time>2022-10-02T11:53:20Z</time>
      </trkpt>
      <trkpt lat="47.48391" lon="8.20726">
        <ele>352.9</ele>
        <time>2022-10-02T11:53:21Z</time>
      </trkpt>
      <trkpt lat="47.48388" lon="8.20728">
        <ele>352.9</ele>
        <time>2022-10-02T11:53:22Z</time>
      </trkpt>
      <trkpt lat="47.48384" lon="8.2073">
        <ele>352.9</ele>
        <time>2022-10-02T11:53:23Z</time>
      </trkpt>
      <trkpt lat="47.4838" lon="8.20731">
        <ele>353</ele>
        <time>2022-10-02T11:53:24Z</time>
      </trkpt>
      <trkpt lat="47.48376" lon="8.20734">
        <ele>353</ele>
        <time>2022-10-02T11:53:25Z</time>
      </trkpt>
      <trkpt lat="47.48372" lon="8.20735">
        <ele>353</ele>
        <time>2022-10-02T11:53:26Z</time>
      </trkpt>
      <trkpt lat="47.48369" lon="8.20738">
        <ele>353.1</ele>
        <time>2022-10-02T11:53:27Z</time>
      </trkpt>
      <trkpt lat="47.48365" lon="8.20739">
        <ele>353.1</ele>
        <time>2022-10-02T11:53:28Z</time>
      </trkpt>
      <trkpt lat="47.48363" lon="8.20741">
        <ele>353.1</ele>
        <time>2022-10-02T11:53:29Z</time>
      </trkpt>
      <trkpt lat="47.48356" lon="8.20742">
        <ele>353.2</ele>
        <time>2022-10-02T11:53:30Z</time>
      </trkpt>
      <trkpt lat="47.48352" lon="8.20744">
        <ele>353.2</ele>
        <time>2022-10-02T11:53:31Z</time>
      </trkpt>
      <trkpt lat="47.48349" lon="8.20748">
        <ele>353.2</ele>
        <time>2022-10-02T11:53:32Z</time>
      </trkpt>
      <trkpt lat="47.48346" lon="8.2075">
        <ele>353.3</ele>
        <time>2022-10-02T11:53:33Z</time>
      </trkpt>
      <trkpt lat="47.48342" lon="8.20751">
        <ele>353.3</ele>
        <time>2022-10-02T11:53:34Z</time>
      </trkpt>
      <trkpt lat="47.48338" lon="8.20754">
        <ele>353.4</ele>
        <time>2022-10-02T11:53:35Z</time>
      </trkpt>
      <trkpt lat="47.48335" lon="8.20757">
        <ele>353.4</ele>
        <time>2022-10-02T11:53:36Z</time>
      </trkpt>
      <trkpt lat="47.48331" lon="8.2076">
        <ele>353.5</ele>
        <time>2022-10-02T11:53:37Z</time>
      </trkpt>
      <trkpt lat="47.48328" lon="8.20764">
        <ele>353.5</ele>
        <time>2022-10-02T11:53:38Z</time>
      </trkpt>
      <trkpt lat="47.48324" lon="8.20769">
        <ele>353.5</ele>
        <time>2022-10-02T11:53:39Z</time>
      </trkpt>
      <trkpt lat="47.48322" lon="8.20775">
        <ele>353.5</ele>
        <time>2022-10-02T11:53:40Z</time>
      </trkpt>
      <trkpt lat="47.4832" lon="8.20781">
        <ele>353.5</ele>
        <time>2022-10-02T11:53:41Z</time>
      </trkpt>
      <trkpt lat="47.48321" lon="8.20787">
        <ele>353.5</ele>
        <time>2022-10-02T11:53:42Z</time>
      </trkpt>
      <trkpt lat="47.48318" lon="8.20794">
        <ele>353.5</ele>
        <time>2022-10-02T11:53:43Z</time>
      </trkpt>
      <trkpt lat="47.48316" lon="8.20799">
        <ele>353.5</ele>
        <time>2022-10-02T11:53:44Z</time>
      </trkpt>
      <trkpt lat="47.48313" lon="8.20804">
        <ele>353.5</ele>
        <time>2022-10-02T11:53:45Z</time>
      </trkpt>
      <trkpt lat="47.48311" lon="8.20807">
        <ele>353.5</ele>
        <time>2022-10-02T11:53:46Z</time>
      </trkpt>
      <trkpt lat="47.4831" lon="8.20808">
        <ele>353.5</ele>
        <time>2022-10-02T11:53:47Z</time>
      </trkpt>
      <trkpt lat="47.48307" lon="8.20809">
        <ele>353.6</ele>
        <time>2022-10-02T11:53:48Z</time>
      </trkpt>
      <trkpt lat="47.48304" lon="8.20812">
        <ele>353.6</ele>
        <time>2022-10-02T11:53:49Z</time>
      </trkpt>
      <trkpt lat="47.48303" lon="8.20812">
        <ele>353.6</ele>
        <time>2022-10-02T11:53:50Z</time>
      </trkpt>
      <trkpt lat="47.483" lon="8.20813">
        <ele>353.7</ele>
        <time>2022-10-02T11:53:51Z</time>
      </trkpt>
      <trkpt lat="47.48297" lon="8.20814">
        <ele>353.8</ele>
        <time>2022-10-02T11:53:52Z</time>
      </trkpt>
      <trkpt lat="47.48293" lon="8.20815">
        <ele>353.9</ele>
        <time>2022-10-02T11:53:53Z</time>
      </trkpt>
      <trkpt lat="47.4829" lon="8.20817">
        <ele>353.9</ele>
        <time>2022-10-02T11:53:54Z</time>
      </trkpt>
      <trkpt lat="47.48288" lon="8.20819">
        <ele>353.9</ele>
        <time>2022-10-02T11:53:55Z</time>
      </trkpt>
      <trkpt lat="47.48285" lon="8.2082">
        <ele>354</ele>
        <time>2022-10-02T11:53:56Z</time>
      </trkpt>
      <trkpt lat="47.48282" lon="8.20821">
        <ele>354</ele>
        <time>2022-10-02T11:53:57Z</time>
      </trkpt>
      <trkpt lat="47.48278" lon="8.20823">
        <ele>354</ele>
        <time>2022-10-02T11:53:58Z</time>
      </trkpt>
      <trkpt lat="47.48277" lon="8.20823">
        <ele>354.1</ele>
        <time>2022-10-02T11:53:59Z</time>
      </trkpt>
      <trkpt lat="47.48274" lon="8.20825">
        <ele>354.1</ele>
        <time>2022-10-02T11:54:00Z</time>
      </trkpt>
      <trkpt lat="47.48271" lon="8.20828">
        <ele>354.1</ele>
        <time>2022-10-02T11:54:01Z</time>
      </trkpt>
      <trkpt lat="47.48269" lon="8.20829">
        <ele>354.1</ele>
        <time>2022-10-02T11:54:02Z</time>
      </trkpt>
      <trkpt lat="47.48266" lon="8.20831">
        <ele>354.2</ele>
        <time>2022-10-02T11:54:03Z</time>
      </trkpt>
      <trkpt lat="47.48264" lon="8.20835">
        <ele>354.2</ele>
        <time>2022-10-02T11:54:04Z</time>
      </trkpt>
      <trkpt lat="47.48261" lon="8.20838">
        <ele>354.2</ele>
        <time>2022-10-02T11:54:05Z</time>
      </trkpt>
      <trkpt lat="47.48258" lon="8.2084">
        <ele>354.2</ele>
        <time>2022-10-02T11:54:06Z</time>
      </trkpt>
      <trkpt lat="47.48255" lon="8.20842">
        <ele>354.2</ele>
        <time>2022-10-02T11:54:07Z</time>
      </trkpt>
      <trkpt lat="47.48252" lon="8.20844">
        <ele>354.2</ele>
        <time>2022-10-02T11:54:08Z</time>
      </trkpt>
      <trkpt lat="47.48249" lon="8.20848">
        <ele>354.2</ele>
        <time>2022-10-02T11:54:09Z</time>
      </trkpt>
      <trkpt lat="47.48247" lon="8.20849">
        <ele>354.2</ele>
        <time>2022-10-02T11:54:10Z</time>
      </trkpt>
      <trkpt lat="47.48245" lon="8.20851">
        <ele>354.2</ele>
        <time>2022-10-02T11:54:11Z</time>
      </trkpt>
      <trkpt lat="47.48242" lon="8.20852">
        <ele>354.2</ele>
        <time>2022-10-02T11:54:12Z</time>
      </trkpt>
      <trkpt lat="47.48239" lon="8.20856">
        <ele>354.2</ele>
        <time>2022-10-02T11:54:13Z</time>
      </trkpt>
      <trkpt lat="47.48236" lon="8.20858">
        <ele>354.2</ele>
        <time>2022-10-02T11:54:14Z</time>
      </trkpt>
      <trkpt lat="47.48233" lon="8.2086">
        <ele>354.2</ele>
        <time>2022-10-02T11:54:15Z</time>
      </trkpt>
      <trkpt lat="47.48232" lon="8.2086">
        <ele>354.2</ele>
        <time>2022-10-02T11:54:16Z</time>
      </trkpt>
      <trkpt lat="47.4823" lon="8.20863">
        <ele>354.2</ele>
        <time>2022-10-02T11:54:17Z</time>
      </trkpt>
      <trkpt lat="47.48228" lon="8.20865">
        <ele>354.2</ele>
        <time>2022-10-02T11:54:18Z</time>
      </trkpt>
      <trkpt lat="47.48225" lon="8.20868">
        <ele>354.2</ele>
        <time>2022-10-02T11:54:19Z</time>
      </trkpt>
      <trkpt lat="47.48222" lon="8.20869">
        <ele>354.2</ele>
        <time>2022-10-02T11:54:20Z</time>
      </trkpt>
      <trkpt lat="47.48219" lon="8.2087">
        <ele>354.2</ele>
        <time>2022-10-02T11:54:21Z</time>
      </trkpt>
      <trkpt lat="47.48215" lon="8.20873">
        <ele>354.1</ele>
        <time>2022-10-02T11:54:22Z</time>
      </trkpt>
      <trkpt lat="47.48214" lon="8.20875">
        <ele>354.1</ele>
        <time>2022-10-02T11:54:23Z</time>
      </trkpt>
      <trkpt lat="47.48212" lon="8.20878">
        <ele>354.1</ele>
        <time>2022-10-02T11:54:24Z</time>
      </trkpt>
      <trkpt lat="47.48208" lon="8.2088">
        <ele>354.1</ele>
        <time>2022-10-02T11:54:25Z</time>
      </trkpt>
      <trkpt lat="47.48207" lon="8.20881">
        <ele>354.1</ele>
        <time>2022-10-02T11:54:26Z</time>
      </trkpt>
      <trkpt lat="47.48205" lon="8.20881">
        <ele>354.1</ele>
        <time>2022-10-02T11:54:27Z</time>
      </trkpt>
      <trkpt lat="47.48204" lon="8.20881">
        <ele>354.1</ele>
        <time>2022-10-02T11:54:28Z</time>
      </trkpt>
      <trkpt lat="47.48202" lon="8.20881">
        <ele>354.1</ele>
        <time>2022-10-02T11:54:29Z</time>
      </trkpt>
      <trkpt lat="47.48201" lon="8.20881">
        <ele>354.1</ele>
        <time>2022-10-02T11:54:30Z</time>
      </trkpt>
      <trkpt lat="47.48204" lon="8.20884">
        <ele>354.1</ele>
        <time>2022-10-02T11:54:31Z</time>
      </trkpt>
      <trkpt lat="47.48201" lon="8.20884">
        <ele>354.1</ele>
        <time>2022-10-02T11:54:32Z</time>
      </trkpt>
      <trkpt lat="47.48197" lon="8.20884">
        <ele>354</ele>
        <time>2022-10-02T11:54:33Z</time>
      </trkpt>
      <trkpt lat="47.48194" lon="8.20886">
        <ele>354</ele>
        <time>2022-10-02T11:54:34Z</time>
      </trkpt>
      <trkpt lat="47.48192" lon="8.20886">
        <ele>354</ele>
        <time>2022-10-02T11:54:35Z</time>
      </trkpt>
      <trkpt lat="47.48192" lon="8.20886">
        <ele>354</ele>
        <time>2022-10-02T11:54:36Z</time>
      </trkpt>
      <trkpt lat="47.48192" lon="8.20888">
        <ele>354</ele>
        <time>2022-10-02T11:54:37Z</time>
      </trkpt>
      <trkpt lat="47.48192" lon="8.20888">
        <ele>354</ele>
        <time>2022-10-02T11:54:38Z</time>
      </trkpt>
      <trkpt lat="47.48192" lon="8.20889">
        <ele>354</ele>
        <time>2022-10-02T11:54:39Z</time>
      </trkpt>
      <trkpt lat="47.48192" lon="8.20889">
        <ele>354</ele>
        <time>2022-10-02T11:54:40Z</time>
      </trkpt>
      <trkpt lat="47.48191" lon="8.2089">
        <ele>354</ele>
        <time>2022-10-02T11:54:41Z</time>
      </trkpt>
      <trkpt lat="47.48191" lon="8.2089">
        <ele>354</ele>
        <time>2022-10-02T11:54:42Z</time>
      </trkpt>
      <trkpt lat="47.48191" lon="8.20891">
        <ele>354</ele>
        <time>2022-10-02T11:54:43Z</time>
      </trkpt>
      <trkpt lat="47.48191" lon="8.20892">
        <ele>354</ele>
        <time>2022-10-02T11:54:44Z</time>
      </trkpt>
      <trkpt lat="47.4819" lon="8.20892">
        <ele>354</ele>
        <time>2022-10-02T11:54:45Z</time>
      </trkpt>
      <trkpt lat="47.4819" lon="8.20893">
        <ele>354</ele>
        <time>2022-10-02T11:54:46Z</time>
      </trkpt>
      <trkpt lat="47.4819" lon="8.20893">
        <ele>354</ele>
        <time>2022-10-02T11:54:47Z</time>
      </trkpt>
      <trkpt lat="47.4819" lon="8.20894">
        <ele>354</ele>
        <time>2022-10-02T11:55:20Z</time>
      </trkpt>
      <trkpt lat="47.48189" lon="8.20895">
        <ele>354</ele>
        <time>2022-10-02T11:55:21Z</time>
      </trkpt>
      <trkpt lat="47.48189" lon="8.20895">
        <ele>354</ele>
        <time>2022-10-02T11:55:22Z</time>
      </trkpt>
      <trkpt lat="47.48189" lon="8.20896">
        <ele>354</ele>
        <time>2022-10-02T11:55:23Z</time>
      </trkpt>
      <trkpt lat="47.48189" lon="8.20897">
        <ele>354</ele>
        <time>2022-10-02T11:55:24Z</time>
      </trkpt>
      <trkpt lat="47.48188" lon="8.20897">
        <ele>354</ele>
        <time>2022-10-02T11:55:25Z</time>
      </trkpt>
      <trkpt lat="47.48188" lon="8.20898">
        <ele>354</ele>
        <time>2022-10-02T11:55:26Z</time>
      </trkpt>
      <trkpt lat="47.48188" lon="8.20899">
        <ele>354</ele>
        <time>2022-10-02T11:55:27Z</time>
      </trkpt>
      <trkpt lat="47.48188" lon="8.20899">
        <ele>354</ele>
        <time>2022-10-02T11:55:28Z</time>
      </trkpt>
      <trkpt lat="47.48187" lon="8.20897">
        <ele>354</ele>
        <time>2022-10-02T11:55:29Z</time>
      </trkpt>
      <trkpt lat="47.48186" lon="8.20896">
        <ele>354</ele>
        <time>2022-10-02T11:55:45Z</time>
      </trkpt>
      <trkpt lat="47.48186" lon="8.20895">
        <ele>354</ele>
        <time>2022-10-02T11:55:46Z</time>
      </trkpt>
      <trkpt lat="47.48185" lon="8.20894">
        <ele>354</ele>
        <time>2022-10-02T11:55:47Z</time>
      </trkpt>
      <trkpt lat="47.48185" lon="8.20893">
        <ele>354</ele>
        <time>2022-10-02T11:55:48Z</time>
      </trkpt>
      <trkpt lat="47.48184" lon="8.20891">
        <ele>354</ele>
        <time>2022-10-02T11:55:49Z</time>
      </trkpt>
      <trkpt lat="47.48184" lon="8.2089">
        <ele>354</ele>
        <time>2022-10-02T11:55:50Z</time>
      </trkpt>
      <trkpt lat="47.48183" lon="8.20889">
        <ele>354</ele>
        <time>2022-10-02T11:55:51Z</time>
      </trkpt>
      <trkpt lat="47.48183" lon="8.20888">
        <ele>354</ele>
        <time>2022-10-02T11:55:52Z</time>
      </trkpt>
      <trkpt lat="47.48182" lon="8.20886">
        <ele>354</ele>
        <time>2022-10-02T11:55:53Z</time>
      </trkpt>
      <trkpt lat="47.48182" lon="8.20885">
        <ele>354</ele>
        <time>2022-10-02T11:55:54Z</time>
      </trkpt>
      <trkpt lat="47.48184" lon="8.2089">
        <ele>354</ele>
        <time>2022-10-02T11:55:55Z</time>
      </trkpt>
      <trkpt lat="47.48186" lon="8.20895">
        <ele>354</ele>
        <time>2022-10-02T12:01:17Z</time>
      </trkpt>
      <trkpt lat="47.48187" lon="8.209">
        <ele>354</ele>
        <time>2022-10-02T12:01:18Z</time>
      </trkpt>
      <trkpt lat="47.48188" lon="8.20905">
        <ele>354</ele>
        <time>2022-10-02T12:01:19Z</time>
      </trkpt>
      <trkpt lat="47.48189" lon="8.2091">
        <ele>354</ele>
        <time>2022-10-02T12:01:20Z</time>
      </trkpt>
      <trkpt lat="47.4819" lon="8.20916">
        <ele>355.3</ele>
        <time>2022-10-02T12:01:21Z</time>
      </trkpt>
      <trkpt lat="47.48192" lon="8.20921">
        <ele>358</ele>
        <time>2022-10-02T12:01:22Z</time>
      </trkpt>
      <trkpt lat="47.48193" lon="8.20926">
        <ele>355.5</ele>
        <time>2022-10-02T12:01:23Z</time>
      </trkpt>
      <trkpt lat="47.48194" lon="8.20931">
        <ele>352.6</ele>
        <time>2022-10-02T12:01:24Z</time>
      </trkpt>
      <trkpt lat="47.48195" lon="8.20934">
        <ele>352.6</ele>
        <time>2022-10-02T12:01:25Z</time>
      </trkpt>
      <trkpt lat="47.48195" lon="8.20936">
        <ele>352.6</ele>
        <time>2022-10-02T12:01:26Z</time>
      </trkpt>
      <trkpt lat="47.48195" lon="8.20937">
        <ele>352.5</ele>
        <time>2022-10-02T12:01:27Z</time>
      </trkpt>
      <trkpt lat="47.48195" lon="8.20938">
        <ele>352.5</ele>
        <time>2022-10-02T12:01:28Z</time>
      </trkpt>
      <trkpt lat="47.48195" lon="8.20941">
        <ele>352.5</ele>
        <time>2022-10-02T12:01:29Z</time>
      </trkpt>
      <trkpt lat="47.48195" lon="8.20942">
        <ele>352.5</ele>
        <time>2022-10-02T12:01:30Z</time>
      </trkpt>
      <trkpt lat="47.48195" lon="8.20943">
        <ele>352.5</ele>
        <time>2022-10-02T12:01:31Z</time>
      </trkpt>
      <trkpt lat="47.48194" lon="8.20947">
        <ele>352.5</ele>
        <time>2022-10-02T12:01:32Z</time>
      </trkpt>
      <trkpt lat="47.48194" lon="8.20949">
        <ele>352.5</ele>
        <time>2022-10-02T12:01:33Z</time>
      </trkpt>
      <trkpt lat="47.48194" lon="8.20951">
        <ele>352.5</ele>
        <time>2022-10-02T12:01:34Z</time>
      </trkpt>
      <trkpt lat="47.48194" lon="8.20953">
        <ele>352.5</ele>
        <time>2022-10-02T12:01:35Z</time>
      </trkpt>
      <trkpt lat="47.48194" lon="8.20954">
        <ele>352.5</ele>
        <time>2022-10-02T12:01:36Z</time>
      </trkpt>
      <trkpt lat="47.48194" lon="8.20955">
        <ele>352.4</ele>
        <time>2022-10-02T12:01:37Z</time>
      </trkpt>
      <trkpt lat="47.48194" lon="8.20956">
        <ele>352.4</ele>
        <time>2022-10-02T12:01:38Z</time>
      </trkpt>
      <trkpt lat="47.48195" lon="8.20957">
        <ele>352.4</ele>
        <time>2022-10-02T12:01:39Z</time>
      </trkpt>
      <trkpt lat="47.48195" lon="8.20958">
        <ele>352.4</ele>
        <time>2022-10-02T12:01:40Z</time>
      </trkpt>
      <trkpt lat="47.48196" lon="8.20959">
        <ele>352.4</ele>
        <time>2022-10-02T12:01:41Z</time>
      </trkpt>
      <trkpt lat="47.48196" lon="8.20961">
        <ele>352.4</ele>
        <time>2022-10-02T12:01:42Z</time>
      </trkpt>
      <trkpt lat="47.48194" lon="8.20965">
        <ele>352.4</ele>
        <time>2022-10-02T12:01:45Z</time>
      </trkpt>
      <trkpt lat="47.48196" lon="8.20962">
        <ele>352.4</ele>
        <time>2022-10-02T12:01:46Z</time>
      </trkpt>
      <trkpt lat="47.48197" lon="8.20962">
        <ele>352.4</ele>
        <time>2022-10-02T12:01:47Z</time>
      </trkpt>
      <trkpt lat="47.48196" lon="8.20963">
        <ele>352.3</ele>
        <time>2022-10-02T12:01:48Z</time>
      </trkpt>
      <trkpt lat="47.48196" lon="8.20964">
        <ele>352.3</ele>
        <time>2022-10-02T12:01:49Z</time>
      </trkpt>
      <trkpt lat="47.48196" lon="8.20964">
        <ele>352.3</ele>
        <time>2022-10-02T12:01:50Z</time>
      </trkpt>
      <trkpt lat="47.48197" lon="8.20963">
        <ele>352.3</ele>
        <time>2022-10-02T12:01:51Z</time>
      </trkpt>
      <trkpt lat="47.48198" lon="8.20963">
        <ele>352.3</ele>
        <time>2022-10-02T12:01:52Z</time>
      </trkpt>
      <trkpt lat="47.48196" lon="8.20965">
        <ele>352.3</ele>
        <time>2022-10-02T12:01:53Z</time>
      </trkpt>
      <trkpt lat="47.48199" lon="8.20966">
        <ele>352.3</ele>
        <time>2022-10-02T12:01:54Z</time>
      </trkpt>
      <trkpt lat="47.48199" lon="8.20965">
        <ele>352.3</ele>
        <time>2022-10-02T12:01:55Z</time>
      </trkpt>
      <trkpt lat="47.482" lon="8.20965">
        <ele>352.3</ele>
        <time>2022-10-02T12:01:56Z</time>
      </trkpt>
      <trkpt lat="47.482" lon="8.20966">
        <ele>352.3</ele>
        <time>2022-10-02T12:01:57Z</time>
      </trkpt>
      <trkpt lat="47.482" lon="8.20965">
        <ele>352.3</ele>
        <time>2022-10-02T12:01:58Z</time>
      </trkpt>
      <trkpt lat="47.48201" lon="8.20964">
        <ele>352.3</ele>
        <time>2022-10-02T12:01:59Z</time>
      </trkpt>
      <trkpt lat="47.482" lon="8.20965">
        <ele>352.3</ele>
        <time>2022-10-02T12:02:00Z</time>
      </trkpt>
      <trkpt lat="47.482" lon="8.20966">
        <ele>352.3</ele>
        <time>2022-10-02T12:02:01Z</time>
      </trkpt>
      <trkpt lat="47.48199" lon="8.20966">
        <ele>352.2</ele>
        <time>2022-10-02T12:02:02Z</time>
      </trkpt>
      <trkpt lat="47.48199" lon="8.20967">
        <ele>352.2</ele>
        <time>2022-10-02T12:02:03Z</time>
      </trkpt>
      <trkpt lat="47.48193" lon="8.2097">
        <ele>352.2</ele>
        <time>2022-10-02T12:15:58Z</time>
      </trkpt>
      <trkpt lat="47.48199" lon="8.2097">
        <ele>352.1</ele>
        <time>2022-10-02T12:15:59Z</time>
      </trkpt>
      <trkpt lat="47.48201" lon="8.20966">
        <ele>352.1</ele>
        <time>2022-10-02T12:16:00Z</time>
      </trkpt>
      <trkpt lat="47.48199" lon="8.20966">
        <ele>352.1</ele>
        <time>2022-10-02T12:16:01Z</time>
      </trkpt>
      <trkpt lat="47.48198" lon="8.20966">
        <ele>352.1</ele>
        <time>2022-10-02T12:16:02Z</time>
      </trkpt>
      <trkpt lat="47.48197" lon="8.20966">
        <ele>352.1</ele>
        <time>2022-10-02T12:16:03Z</time>
      </trkpt>
      <trkpt lat="47.48187" lon="8.20981">
        <ele>352</ele>
        <time>2022-10-02T12:16:04Z</time>
      </trkpt>
      <trkpt lat="47.48186" lon="8.20981">
        <ele>357.1</ele>
        <time>2022-10-02T12:16:05Z</time>
      </trkpt>
      <trkpt lat="47.48185" lon="8.20986">
        <ele>357.1</ele>
        <time>2022-10-02T12:16:06Z</time>
      </trkpt>
      <trkpt lat="47.48184" lon="8.20991">
        <ele>357.1</ele>
        <time>2022-10-02T12:16:07Z</time>
      </trkpt>
      <trkpt lat="47.48182" lon="8.20996">
        <ele>357.1</ele>
        <time>2022-10-02T12:16:08Z</time>
      </trkpt>
      <trkpt lat="47.4818" lon="8.21001">
        <ele>357.1</ele>
        <time>2022-10-02T12:16:09Z</time>
      </trkpt>
      <trkpt lat="47.48178" lon="8.21006">
        <ele>357.1</ele>
        <time>2022-10-02T12:16:10Z</time>
      </trkpt>
      <trkpt lat="47.4818" lon="8.20998">
        <ele>357.1</ele>
        <time>2022-10-02T12:16:11Z</time>
      </trkpt>
      <trkpt lat="47.48179" lon="8.20995">
        <ele>357.1</ele>
        <time>2022-10-02T12:16:24Z</time>
      </trkpt>
      <trkpt lat="47.48178" lon="8.20991">
        <ele>357.1</ele>
        <time>2022-10-02T12:16:25Z</time>
      </trkpt>
      <trkpt lat="47.48177" lon="8.20988">
        <ele>357.1</ele>
        <time>2022-10-02T12:16:26Z</time>
      </trkpt>
      <trkpt lat="47.48177" lon="8.20985">
        <ele>351.9</ele>
        <time>2022-10-02T12:16:27Z</time>
      </trkpt>
      <trkpt lat="47.48176" lon="8.20981">
        <ele>351.9</ele>
        <time>2022-10-02T12:16:28Z</time>
      </trkpt>
      <trkpt lat="47.48177" lon="8.20981">
        <ele>351.9</ele>
        <time>2022-10-02T12:16:29Z</time>
      </trkpt>
      <trkpt lat="47.48177" lon="8.20981">
        <ele>351.9</ele>
        <time>2022-10-02T12:16:30Z</time>
      </trkpt>
      <trkpt lat="47.48177" lon="8.20981">
        <ele>351.9</ele>
        <time>2022-10-02T12:16:31Z</time>
      </trkpt>
      <trkpt lat="47.48177" lon="8.2098">
        <ele>351.9</ele>
        <time>2022-10-02T12:16:32Z</time>
      </trkpt>
      <trkpt lat="47.48177" lon="8.2098">
        <ele>351.9</ele>
        <time>2022-10-02T12:16:33Z</time>
      </trkpt>
      <trkpt lat="47.48177" lon="8.20979">
        <ele>351.9</ele>
        <time>2022-10-02T12:16:34Z</time>
      </trkpt>
      <trkpt lat="47.48177" lon="8.20979">
        <ele>351.9</ele>
        <time>2022-10-02T12:16:35Z</time>
      </trkpt>
      <trkpt lat="47.48177" lon="8.20978">
        <ele>351.9</ele>
        <time>2022-10-02T12:16:36Z</time>
      </trkpt>
      <trkpt lat="47.48177" lon="8.20978">
        <ele>351.9</ele>
        <time>2022-10-02T12:16:37Z</time>
      </trkpt>
      <trkpt lat="47.48177" lon="8.20978">
        <ele>351.9</ele>
        <time>2022-10-02T12:16:38Z</time>
      </trkpt>
      <trkpt lat="47.48177" lon="8.20977">
        <ele>351.9</ele>
        <time>2022-10-02T12:16:39Z</time>
      </trkpt>
      <trkpt lat="47.48177" lon="8.20977">
        <ele>351.9</ele>
        <time>2022-10-02T12:16:40Z</time>
      </trkpt>
      <trkpt lat="47.48177" lon="8.20976">
        <ele>351.9</ele>
        <time>2022-10-02T12:16:41Z</time>
      </trkpt>
      <trkpt lat="47.48177" lon="8.20976">
        <ele>351.9</ele>
        <time>2022-10-02T12:16:42Z</time>
      </trkpt>
      <trkpt lat="47.48177" lon="8.20976">
        <ele>351.9</ele>
        <time>2022-10-02T12:16:43Z</time>
      </trkpt>
      <trkpt lat="47.48177" lon="8.20975">
        <ele>351.9</ele>
        <time>2022-10-02T12:16:44Z</time>
      </trkpt>
      <trkpt lat="47.48177" lon="8.20975">
        <ele>351.9</ele>
        <time>2022-10-02T12:16:48Z</time>
      </trkpt>
      <trkpt lat="47.48177" lon="8.20974">
        <ele>351.9</ele>
        <time>2022-10-02T12:16:49Z</time>
      </trkpt>
      <trkpt lat="47.48177" lon="8.20974">
        <ele>351.9</ele>
        <time>2022-10-02T12:16:50Z</time>
      </trkpt>
      <trkpt lat="47.48177" lon="8.20973">
        <ele>351.9</ele>
        <time>2022-10-02T12:16:51Z</time>
      </trkpt>
      <trkpt lat="47.48178" lon="8.20973">
        <ele>351.9</ele>
        <time>2022-10-02T12:16:52Z</time>
      </trkpt>
      <trkpt lat="47.48178" lon="8.20973">
        <ele>351.9</ele>
        <time>2022-10-02T12:16:53Z</time>
      </trkpt>
      <trkpt lat="47.48178" lon="8.20972">
        <ele>351.9</ele>
        <time>2022-10-02T12:16:54Z</time>
      </trkpt>
      <trkpt lat="47.48178" lon="8.20972">
        <ele>351.9</ele>
        <time>2022-10-02T12:16:55Z</time>
      </trkpt>
      <trkpt lat="47.48178" lon="8.20971">
        <ele>351.9</ele>
        <time>2022-10-02T12:16:56Z</time>
      </trkpt>
      <trkpt lat="47.48178" lon="8.20971">
        <ele>351.9</ele>
        <time>2022-10-02T12:16:57Z</time>
      </trkpt>
      <trkpt lat="47.48178" lon="8.2097">
        <ele>351.9</ele>
        <time>2022-10-02T12:17:07Z</time>
      </trkpt>
      <trkpt lat="47.48178" lon="8.2097">
        <ele>351.9</ele>
        <time>2022-10-02T12:17:08Z</time>
      </trkpt>
      <trkpt lat="47.48178" lon="8.2097">
        <ele>351.9</ele>
        <time>2022-10-02T12:17:09Z</time>
      </trkpt>
      <trkpt lat="47.48178" lon="8.20968">
        <ele>351.9</ele>
        <time>2022-10-02T12:17:10Z</time>
      </trkpt>
      <trkpt lat="47.48178" lon="8.20966">
        <ele>351.9</ele>
        <time>2022-10-02T12:17:11Z</time>
      </trkpt>
      <trkpt lat="47.48179" lon="8.20964">
        <ele>352</ele>
        <time>2022-10-02T12:17:12Z</time>
      </trkpt>
      <trkpt lat="47.48179" lon="8.20963">
        <ele>352</ele>
        <time>2022-10-02T12:17:13Z</time>
      </trkpt>
      <trkpt lat="47.4818" lon="8.20961">
        <ele>352</ele>
        <time>2022-10-02T12:17:14Z</time>
      </trkpt>
      <trkpt lat="47.4818" lon="8.20959">
        <ele>352.1</ele>
        <time>2022-10-02T12:17:15Z</time>
      </trkpt>
      <trkpt lat="47.48181" lon="8.20958">
        <ele>352.1</ele>
        <time>2022-10-02T12:17:16Z</time>
      </trkpt>
      <trkpt lat="47.48182" lon="8.20956">
        <ele>352.1</ele>
        <time>2022-10-02T12:17:17Z</time>
      </trkpt>
      <trkpt lat="47.48182" lon="8.20954">
        <ele>352.1</ele>
        <time>2022-10-02T12:17:18Z</time>
      </trkpt>
      <trkpt lat="47.48188" lon="8.2094">
        <ele>352.4</ele>
        <time>2022-10-02T12:17:19Z</time>
      </trkpt>
      <trkpt lat="47.48191" lon="8.20934">
        <ele>352.5</ele>
        <time>2022-10-02T12:17:20Z</time>
      </trkpt>
      <trkpt lat="47.48195" lon="8.20927">
        <ele>358.1</ele>
        <time>2022-10-02T12:17:21Z</time>
      </trkpt>
      <trkpt lat="47.48198" lon="8.20921">
        <ele>353.8</ele>
        <time>2022-10-02T12:17:22Z</time>
      </trkpt>
      <trkpt lat="47.482" lon="8.20912">
        <ele>353.8</ele>
        <time>2022-10-02T12:17:23Z</time>
      </trkpt>
      <trkpt lat="47.482" lon="8.20911">
        <ele>353.9</ele>
        <time>2022-10-02T12:17:24Z</time>
      </trkpt>
      <trkpt lat="47.482" lon="8.20909">
        <ele>353.9</ele>
        <time>2022-10-02T12:17:25Z</time>
      </trkpt>
      <trkpt lat="47.482" lon="8.20907">
        <ele>353.9</ele>
        <time>2022-10-02T12:17:26Z</time>
      </trkpt>
      <trkpt lat="47.482" lon="8.20905">
        <ele>354</ele>
        <time>2022-10-02T12:17:27Z</time>
      </trkpt>
      <trkpt lat="47.482" lon="8.20903">
        <ele>354</ele>
        <time>2022-10-02T12:17:28Z</time>
      </trkpt>
      <trkpt lat="47.482" lon="8.20901">
        <ele>354</ele>
        <time>2022-10-02T12:17:29Z</time>
      </trkpt>
      <trkpt lat="47.482" lon="8.209">
        <ele>354</ele>
        <time>2022-10-02T12:17:30Z</time>
      </trkpt>
      <trkpt lat="47.482" lon="8.20898">
        <ele>354</ele>
        <time>2022-10-02T12:17:31Z</time>
      </trkpt>
      <trkpt lat="47.48302" lon="8.20797">
        <ele>353.7</ele>
        <time>2022-10-02T12:25:00Z</time>
      </trkpt>
      <trkpt lat="47.48303" lon="8.20796">
        <ele>353.7</ele>
        <time>2022-10-02T12:25:01Z</time>
      </trkpt>
      <trkpt lat="47.48306" lon="8.20794">
        <ele>353.7</ele>
        <time>2022-10-02T12:25:02Z</time>
      </trkpt>
      <trkpt lat="47.48307" lon="8.20793">
        <ele>353.7</ele>
        <time>2022-10-02T12:25:03Z</time>
      </trkpt>
      <trkpt lat="47.48309" lon="8.20793">
        <ele>353.7</ele>
        <time>2022-10-02T12:25:04Z</time>
      </trkpt>
      <trkpt lat="47.48309" lon="8.20792">
        <ele>353.6</ele>
        <time>2022-10-02T12:25:05Z</time>
      </trkpt>
      <trkpt lat="47.48308" lon="8.20791">
        <ele>353.6</ele>
        <time>2022-10-02T12:25:06Z</time>
      </trkpt>
      <trkpt lat="47.4831" lon="8.20791">
        <ele>353.6</ele>
        <time>2022-10-02T12:25:07Z</time>
      </trkpt>
      <trkpt lat="47.48311" lon="8.20792">
        <ele>353.6</ele>
        <time>2022-10-02T12:25:08Z</time>
      </trkpt>
      <trkpt lat="47.48313" lon="8.20793">
        <ele>353.6</ele>
        <time>2022-10-02T12:25:09Z</time>
      </trkpt>
      <trkpt lat="47.48314" lon="8.20793">
        <ele>353.6</ele>
        <time>2022-10-02T12:25:10Z</time>
      </trkpt>
      <trkpt lat="47.48314" lon="8.20793">
        <ele>353.6</ele>
        <time>2022-10-02T12:25:11Z</time>
      </trkpt>
      <trkpt lat="47.48316" lon="8.20793">
        <ele>353.6</ele>
        <time>2022-10-02T12:25:12Z</time>
      </trkpt>
      <trkpt lat="47.48315" lon="8.20793">
        <ele>353.5</ele>
        <time>2022-10-02T12:25:13Z</time>
      </trkpt>
      <trkpt lat="47.48316" lon="8.20792">
        <ele>353.5</ele>
        <time>2022-10-02T12:25:14Z</time>
      </trkpt>
      <trkpt lat="47.48317" lon="8.20792">
        <ele>353.5</ele>
        <time>2022-10-02T12:25:15Z</time>
      </trkpt>
      <trkpt lat="47.48317" lon="8.20793">
        <ele>353.5</ele>
        <time>2022-10-02T12:25:16Z</time>
      </trkpt>
      <trkpt lat="47.48321" lon="8.20789">
        <ele>353.5</ele>
        <time>2022-10-02T12:25:17Z</time>
      </trkpt>
      <trkpt lat="47.48323" lon="8.20784">
        <ele>353.5</ele>
        <time>2022-10-02T12:25:18Z</time>
      </trkpt>
      <trkpt lat="47.48326" lon="8.2078">
        <ele>353.5</ele>
        <time>2022-10-02T12:25:19Z</time>
      </trkpt>
      <trkpt lat="47.48329" lon="8.20776">
        <ele>353.5</ele>
        <time>2022-10-02T12:27:06Z</time>
      </trkpt>
      <trkpt lat="47.48332" lon="8.20771">
        <ele>353.5</ele>
        <time>2022-10-02T12:27:07Z</time>
      </trkpt>
      <trkpt lat="47.48334" lon="8.20768">
        <ele>353.5</ele>
        <time>2022-10-02T12:27:08Z</time>
      </trkpt>
      <trkpt lat="47.48335" lon="8.20764">
        <ele>353.5</ele>
        <time>2022-10-02T12:27:09Z</time>
      </trkpt>
      <trkpt lat="47.48336" lon="8.20764">
        <ele>353.4</ele>
        <time>2022-10-02T12:27:10Z</time>
      </trkpt>
      <trkpt lat="47.48339" lon="8.20761">
        <ele>353.4</ele>
        <time>2022-10-02T12:27:11Z</time>
      </trkpt>
      <trkpt lat="47.48342" lon="8.20757">
        <ele>353.3</ele>
        <time>2022-10-02T12:27:12Z</time>
      </trkpt>
      <trkpt lat="47.48343" lon="8.20756">
        <ele>353.3</ele>
        <time>2022-10-02T12:27:13Z</time>
      </trkpt>
      <trkpt lat="47.48345" lon="8.20754">
        <ele>353.3</ele>
        <time>2022-10-02T12:27:14Z</time>
      </trkpt>
      <trkpt lat="47.48348" lon="8.20751">
        <ele>353.2</ele>
        <time>2022-10-02T12:27:15Z</time>
      </trkpt>
      <trkpt lat="47.48351" lon="8.20749">
        <ele>353.2</ele>
        <time>2022-10-02T12:27:16Z</time>
      </trkpt>
      <trkpt lat="47.48355" lon="8.20747">
        <ele>353.2</ele>
        <time>2022-10-02T12:27:17Z</time>
      </trkpt>
      <trkpt lat="47.48358" lon="8.20746">
        <ele>353.2</ele>
        <time>2022-10-02T12:27:18Z</time>
      </trkpt>
      <trkpt lat="47.48361" lon="8.20744">
        <ele>353.1</ele>
        <time>2022-10-02T12:27:19Z</time>
      </trkpt>
      <trkpt lat="47.48363" lon="8.20744">
        <ele>353.1</ele>
        <time>2022-10-02T12:27:20Z</time>
      </trkpt>
      <trkpt lat="47.48366" lon="8.20743">
        <ele>353.1</ele>
        <time>2022-10-02T12:27:21Z</time>
      </trkpt>
      <trkpt lat="47.48369" lon="8.20741">
        <ele>353.1</ele>
        <time>2022-10-02T12:27:22Z</time>
      </trkpt>
      <trkpt lat="47.48372" lon="8.2074">
        <ele>353</ele>
        <time>2022-10-02T12:27:23Z</time>
      </trkpt>
      <trkpt lat="47.48375" lon="8.20738">
        <ele>353</ele>
        <time>2022-10-02T12:27:24Z</time>
      </trkpt>
      <trkpt lat="47.48379" lon="8.20737">
        <ele>353</ele>
        <time>2022-10-02T12:27:25Z</time>
      </trkpt>
      <trkpt lat="47.48382" lon="8.20735">
        <ele>353</ele>
        <time>2022-10-02T12:27:26Z</time>
      </trkpt>
      <trkpt lat="47.48385" lon="8.20733">
        <ele>352.9</ele>
        <time>2022-10-02T12:27:27Z</time>
      </trkpt>
      <trkpt lat="47.48387" lon="8.20734">
        <ele>352.9</ele>
        <time>2022-10-02T12:27:28Z</time>
      </trkpt>
      <trkpt lat="47.48387" lon="8.20735">
        <ele>352.9</ele>
        <time>2022-10-02T12:27:29Z</time>
      </trkpt>
      <trkpt lat="47.48388" lon="8.20736">
        <ele>352.8</ele>
        <time>2022-10-02T12:27:30Z</time>
      </trkpt>
      <trkpt lat="47.48389" lon="8.20742">
        <ele>352.8</ele>
        <time>2022-10-02T12:27:31Z</time>
      </trkpt>
      <trkpt lat="47.4839" lon="8.20745">
        <ele>352.7</ele>
        <time>2022-10-02T12:27:32Z</time>
      </trkpt>
      <trkpt lat="47.48391" lon="8.20751">
        <ele>352.7</ele>
        <time>2022-10-02T12:27:33Z</time>
      </trkpt>
      <trkpt lat="47.48393" lon="8.20756">
        <ele>352.6</ele>
        <time>2022-10-02T12:27:34Z</time>
      </trkpt>
      <trkpt lat="47.48395" lon="8.20762">
        <ele>352.5</ele>
        <time>2022-10-02T12:27:35Z</time>
      </trkpt>
      <trkpt lat="47.48398" lon="8.20767">
        <ele>352.5</ele>
        <time>2022-10-02T12:27:36Z</time>
      </trkpt>
      <trkpt lat="47.484" lon="8.20773">
        <ele>352.4</ele>
        <time>2022-10-02T12:27:37Z</time>
      </trkpt>
      <trkpt lat="47.48403" lon="8.2078">
        <ele>352.4</ele>
        <time>2022-10-02T12:27:38Z</time>
      </trkpt>
      <trkpt lat="47.48405" lon="8.20786">
        <ele>352.3</ele>
        <time>2022-10-02T12:27:39Z</time>
      </trkpt>
      <trkpt lat="47.48407" lon="8.20793">
        <ele>352.3</ele>
        <time>2022-10-02T12:27:40Z</time>
      </trkpt>
      <trkpt lat="47.48409" lon="8.20799">
        <ele>352.2</ele>
        <time>2022-10-02T12:27:41Z</time>
      </trkpt>
      <trkpt lat="47.48412" lon="8.20806">
        <ele>352.2</ele>
        <time>2022-10-02T12:27:42Z</time>
      </trkpt>
      <trkpt lat="47.48414" lon="8.20813">
        <ele>352.2</ele>
        <time>2022-10-02T12:27:43Z</time>
      </trkpt>
      <trkpt lat="47.48412" lon="8.2082">
        <ele>352.1</ele>
        <time>2022-10-02T12:27:44Z</time>
      </trkpt>
      <trkpt lat="47.48414" lon="8.20826">
        <ele>352.1</ele>
        <time>2022-10-02T12:27:45Z</time>
      </trkpt>
      <trkpt lat="47.48417" lon="8.20833">
        <ele>352.1</ele>
        <time>2022-10-02T12:27:46Z</time>
      </trkpt>
      <trkpt lat="47.4842" lon="8.2084">
        <ele>352.1</ele>
        <time>2022-10-02T12:27:47Z</time>
      </trkpt>
      <trkpt lat="47.48422" lon="8.20847">
        <ele>352.1</ele>
        <time>2022-10-02T12:27:48Z</time>
      </trkpt>
      <trkpt lat="47.48425" lon="8.20853">
        <ele>352.1</ele>
        <time>2022-10-02T12:27:49Z</time>
      </trkpt>
      <trkpt lat="47.48428" lon="8.2086">
        <ele>352</ele>
        <time>2022-10-02T12:27:50Z</time>
      </trkpt>
      <trkpt lat="47.48431" lon="8.20866">
        <ele>352</ele>
        <time>2022-10-02T12:27:51Z</time>
      </trkpt>
      <trkpt lat="47.48433" lon="8.20872">
        <ele>352</ele>
        <time>2022-10-02T12:27:52Z</time>
      </trkpt>
      <trkpt lat="47.48437" lon="8.20877">
        <ele>351.9</ele>
        <time>2022-10-02T12:27:53Z</time>
      </trkpt>
      <trkpt lat="47.48441" lon="8.20883">
        <ele>351.9</ele>
        <time>2022-10-02T12:27:54Z</time>
      </trkpt>
      <trkpt lat="47.48444" lon="8.20889">
        <ele>351.8</ele>
        <time>2022-10-02T12:27:55Z</time>
      </trkpt>
      <trkpt lat="47.48448" lon="8.20895">
        <ele>351.8</ele>
        <time>2022-10-02T12:27:56Z</time>
      </trkpt>
      <trkpt lat="47.48452" lon="8.20901">
        <ele>351.7</ele>
        <time>2022-10-02T12:27:57Z</time>
      </trkpt>
      <trkpt lat="47.48456" lon="8.20905">
        <ele>351.7</ele>
        <time>2022-10-02T12:27:58Z</time>
      </trkpt>
      <trkpt lat="47.4846" lon="8.2091">
        <ele>351.7</ele>
        <time>2022-10-02T12:27:59Z</time>
      </trkpt>
      <trkpt lat="47.48464" lon="8.20915">
        <ele>351.7</ele>
        <time>2022-10-02T12:28:00Z</time>
      </trkpt>
      <trkpt lat="47.48467" lon="8.20919">
        <ele>351.6</ele>
        <time>2022-10-02T12:28:01Z</time>
      </trkpt>
      <trkpt lat="47.48469" lon="8.20921">
        <ele>351.6</ele>
        <time>2022-10-02T12:28:02Z</time>
      </trkpt>
      <trkpt lat="47.48471" lon="8.20924">
        <ele>351.7</ele>
        <time>2022-10-02T12:28:03Z</time>
      </trkpt>
      <trkpt lat="47.48474" lon="8.20928">
        <ele>351.7</ele>
        <time>2022-10-02T12:28:04Z</time>
      </trkpt>
      <trkpt lat="47.48475" lon="8.20932">
        <ele>351.7</ele>
        <time>2022-10-02T12:28:05Z</time>
      </trkpt>
      <trkpt lat="47.48476" lon="8.20936">
        <ele>351.6</ele>
        <time>2022-10-02T12:28:06Z</time>
      </trkpt>
      <trkpt lat="47.48475" lon="8.20941">
        <ele>351.6</ele>
        <time>2022-10-02T12:28:07Z</time>
      </trkpt>
      <trkpt lat="47.48475" lon="8.20944">
        <ele>351.5</ele>
        <time>2022-10-02T12:28:08Z</time>
      </trkpt>
      <trkpt lat="47.48473" lon="8.20948">
        <ele>351.5</ele>
        <time>2022-10-02T12:28:09Z</time>
      </trkpt>
      <trkpt lat="47.48471" lon="8.20952">
        <ele>351.4</ele>
        <time>2022-10-02T12:28:10Z</time>
      </trkpt>
      <trkpt lat="47.48468" lon="8.20956">
        <ele>351.4</ele>
        <time>2022-10-02T12:28:11Z</time>
      </trkpt>
      <trkpt lat="47.48466" lon="8.2096">
        <ele>351.4</ele>
        <time>2022-10-02T12:28:12Z</time>
      </trkpt>
      <trkpt lat="47.48463" lon="8.20964">
        <ele>351.4</ele>
        <time>2022-10-02T12:28:13Z</time>
      </trkpt>
      <trkpt lat="47.4846" lon="8.20969">
        <ele>351.4</ele>
        <time>2022-10-02T12:28:14Z</time>
      </trkpt>
      <trkpt lat="47.48456" lon="8.20973">
        <ele>351.4</ele>
        <time>2022-10-02T12:28:15Z</time>
      </trkpt>
      <trkpt lat="47.48454" lon="8.20979">
        <ele>351.4</ele>
        <time>2022-10-02T12:28:16Z</time>
      </trkpt>
      <trkpt lat="47.48451" lon="8.20984">
        <ele>351.4</ele>
        <time>2022-10-02T12:28:17Z</time>
      </trkpt>
      <trkpt lat="47.48443" lon="8.20986">
        <ele>351.4</ele>
        <time>2022-10-02T12:28:18Z</time>
      </trkpt>
      <trkpt lat="47.4844" lon="8.20992">
        <ele>351.4</ele>
        <time>2022-10-02T12:28:19Z</time>
      </trkpt>
      <trkpt lat="47.48436" lon="8.20997">
        <ele>351.4</ele>
        <time>2022-10-02T12:28:20Z</time>
      </trkpt>
      <trkpt lat="47.48433" lon="8.21002">
        <ele>351.5</ele>
        <time>2022-10-02T12:28:21Z</time>
      </trkpt>
      <trkpt lat="47.4843" lon="8.21007">
        <ele>351.5</ele>
        <time>2022-10-02T12:28:22Z</time>
      </trkpt>
      <trkpt lat="47.48427" lon="8.21012">
        <ele>351.6</ele>
        <time>2022-10-02T12:28:23Z</time>
      </trkpt>
      <trkpt lat="47.48424" lon="8.21017">
        <ele>351.6</ele>
        <time>2022-10-02T12:28:24Z</time>
      </trkpt>
      <trkpt lat="47.48421" lon="8.21022">
        <ele>351.7</ele>
        <time>2022-10-02T12:28:25Z</time>
      </trkpt>
      <trkpt lat="47.48418" lon="8.21027">
        <ele>351.7</ele>
        <time>2022-10-02T12:28:26Z</time>
      </trkpt>
      <trkpt lat="47.48415" lon="8.21031">
        <ele>351.7</ele>
        <time>2022-10-02T12:28:27Z</time>
      </trkpt>
      <trkpt lat="47.48412" lon="8.21036">
        <ele>351.7</ele>
        <time>2022-10-02T12:28:28Z</time>
      </trkpt>
      <trkpt lat="47.48409" lon="8.21041">
        <ele>351.7</ele>
        <time>2022-10-02T12:28:29Z</time>
      </trkpt>
      <trkpt lat="47.48406" lon="8.21044">
        <ele>351.8</ele>
        <time>2022-10-02T12:28:30Z</time>
      </trkpt>
      <trkpt lat="47.48403" lon="8.2105">
        <ele>351.8</ele>
        <time>2022-10-02T12:28:31Z</time>
      </trkpt>
      <trkpt lat="47.48399" lon="8.21055">
        <ele>351.8</ele>
        <time>2022-10-02T12:28:32Z</time>
      </trkpt>
      <trkpt lat="47.48396" lon="8.2106">
        <ele>351.8</ele>
        <time>2022-10-02T12:28:33Z</time>
      </trkpt>
      <trkpt lat="47.48393" lon="8.21064">
        <ele>351.8</ele>
        <time>2022-10-02T12:28:34Z</time>
      </trkpt>
      <trkpt lat="47.48389" lon="8.21069">
        <ele>351.8</ele>
        <time>2022-10-02T12:28:35Z</time>
      </trkpt>
      <trkpt lat="47.48387" lon="8.21074">
        <ele>351.8</ele>
        <time>2022-10-02T12:28:36Z</time>
      </trkpt>
      <trkpt lat="47.48383" lon="8.21078">
        <ele>351.8</ele>
        <time>2022-10-02T12:28:37Z</time>
      </trkpt>
      <trkpt lat="47.4838" lon="8.21083">
        <ele>351.8</ele>
        <time>2022-10-02T12:28:38Z</time>
      </trkpt>
      <trkpt lat="47.48378" lon="8.21087">
        <ele>351.8</ele>
        <time>2022-10-02T12:28:39Z</time>
      </trkpt>
      <trkpt lat="47.48375" lon="8.21092">
        <ele>351.8</ele>
        <time>2022-10-02T12:28:40Z</time>
      </trkpt>
      <trkpt lat="47.48373" lon="8.21095">
        <ele>351.8</ele>
        <time>2022-10-02T12:28:41Z</time>
      </trkpt>
      <trkpt lat="47.48371" lon="8.21099">
        <ele>351.8</ele>
        <time>2022-10-02T12:28:42Z</time>
      </trkpt>
      <trkpt lat="47.48367" lon="8.21103">
        <ele>351.8</ele>
        <time>2022-10-02T12:28:43Z</time>
      </trkpt>
      <trkpt lat="47.48364" lon="8.21108">
        <ele>351.8</ele>
        <time>2022-10-02T12:28:44Z</time>
      </trkpt>
      <trkpt lat="47.48362" lon="8.21113">
        <ele>351.7</ele>
        <time>2022-10-02T12:28:45Z</time>
      </trkpt>
      <trkpt lat="47.48359" lon="8.21118">
        <ele>351.7</ele>
        <time>2022-10-02T12:28:46Z</time>
      </trkpt>
      <trkpt lat="47.48357" lon="8.21124">
        <ele>351.7</ele>
        <time>2022-10-02T12:28:47Z</time>
      </trkpt>
      <trkpt lat="47.48354" lon="8.2113">
        <ele>351.6</ele>
        <time>2022-10-02T12:28:48Z</time>
      </trkpt>
      <trkpt lat="47.48351" lon="8.21135">
        <ele>351.6</ele>
        <time>2022-10-02T12:28:49Z</time>
      </trkpt>
      <trkpt lat="47.48347" lon="8.21141">
        <ele>351.6</ele>
        <time>2022-10-02T12:28:50Z</time>
      </trkpt>
      <trkpt lat="47.48344" lon="8.21146">
        <ele>351.5</ele>
        <time>2022-10-02T12:28:51Z</time>
      </trkpt>
      <trkpt lat="47.48341" lon="8.21152">
        <ele>351.5</ele>
        <time>2022-10-02T12:28:53Z</time>
      </trkpt>
      <trkpt lat="47.48331" lon="8.21153">
        <ele>351.4</ele>
        <time>2022-10-02T12:28:54Z</time>
      </trkpt>
      <trkpt lat="47.48329" lon="8.21158">
        <ele>351.3</ele>
        <time>2022-10-02T12:28:55Z</time>
      </trkpt>
      <trkpt lat="47.48326" lon="8.21163">
        <ele>351.3</ele>
        <time>2022-10-02T12:28:56Z</time>
      </trkpt>
      <trkpt lat="47.48323" lon="8.21168">
        <ele>351.3</ele>
        <time>2022-10-02T12:28:57Z</time>
      </trkpt>
      <trkpt lat="47.48321" lon="8.21173">
        <ele>351.2</ele>
        <time>2022-10-02T12:28:58Z</time>
      </trkpt>
      <trkpt lat="47.48319" lon="8.21179">
        <ele>351.2</ele>
        <time>2022-10-02T12:28:59Z</time>
      </trkpt>
      <trkpt lat="47.48318" lon="8.21185">
        <ele>351.2</ele>
        <time>2022-10-02T12:29:00Z</time>
      </trkpt>
      <trkpt lat="47.48318" lon="8.21191">
        <ele>351.1</ele>
        <time>2022-10-02T12:29:01Z</time>
      </trkpt>
      <trkpt lat="47.48318" lon="8.21198">
        <ele>351</ele>
        <time>2022-10-02T12:29:02Z</time>
      </trkpt>
      <trkpt lat="47.4832" lon="8.21204">
        <ele>350.9</ele>
        <time>2022-10-02T12:29:03Z</time>
      </trkpt>
      <trkpt lat="47.48321" lon="8.21211">
        <ele>350.8</ele>
        <time>2022-10-02T12:29:04Z</time>
      </trkpt>
      <trkpt lat="47.48322" lon="8.21217">
        <ele>350.7</ele>
        <time>2022-10-02T12:29:05Z</time>
      </trkpt>
      <trkpt lat="47.48324" lon="8.21223">
        <ele>350.6</ele>
        <time>2022-10-02T12:29:06Z</time>
      </trkpt>
      <trkpt lat="47.48324" lon="8.2123">
        <ele>350.5</ele>
        <time>2022-10-02T12:29:07Z</time>
      </trkpt>
      <trkpt lat="47.48327" lon="8.21242">
        <ele>350.3</ele>
        <time>2022-10-02T12:29:08Z</time>
      </trkpt>
      <trkpt lat="47.48328" lon="8.21248">
        <ele>350.2</ele>
        <time>2022-10-02T12:29:09Z</time>
      </trkpt>
      <trkpt lat="47.4833" lon="8.21255">
        <ele>350.1</ele>
        <time>2022-10-02T12:29:10Z</time>
      </trkpt>
      <trkpt lat="47.48328" lon="8.21261">
        <ele>350</ele>
        <time>2022-10-02T12:29:11Z</time>
      </trkpt>
      <trkpt lat="47.48329" lon="8.21267">
        <ele>349.9</ele>
        <time>2022-10-02T12:29:12Z</time>
      </trkpt>
      <trkpt lat="47.4833" lon="8.21274">
        <ele>349.9</ele>
        <time>2022-10-02T12:29:13Z</time>
      </trkpt>
      <trkpt lat="47.4833" lon="8.2128">
        <ele>349.8</ele>
        <time>2022-10-02T12:29:14Z</time>
      </trkpt>
      <trkpt lat="47.48331" lon="8.21286">
        <ele>349.7</ele>
        <time>2022-10-02T12:29:15Z</time>
      </trkpt>
      <trkpt lat="47.48332" lon="8.21292">
        <ele>349.6</ele>
        <time>2022-10-02T12:29:16Z</time>
      </trkpt>
      <trkpt lat="47.48332" lon="8.21298">
        <ele>349.5</ele>
        <time>2022-10-02T12:29:17Z</time>
      </trkpt>
      <trkpt lat="47.48333" lon="8.21304">
        <ele>349.4</ele>
        <time>2022-10-02T12:29:18Z</time>
      </trkpt>
      <trkpt lat="47.48334" lon="8.2131">
        <ele>349.3</ele>
        <time>2022-10-02T12:29:19Z</time>
      </trkpt>
      <trkpt lat="47.48334" lon="8.21317">
        <ele>349.2</ele>
        <time>2022-10-02T12:29:20Z</time>
      </trkpt>
      <trkpt lat="47.48335" lon="8.21323">
        <ele>349.1</ele>
        <time>2022-10-02T12:29:21Z</time>
      </trkpt>
      <trkpt lat="47.48336" lon="8.21328">
        <ele>349</ele>
        <time>2022-10-02T12:29:22Z</time>
      </trkpt>
      <trkpt lat="47.48336" lon="8.21333">
        <ele>348.8</ele>
        <time>2022-10-02T12:29:23Z</time>
      </trkpt>
      <trkpt lat="47.48336" lon="8.21338">
        <ele>348.7</ele>
        <time>2022-10-02T12:29:24Z</time>
      </trkpt>
      <trkpt lat="47.48337" lon="8.21342">
        <ele>348.6</ele>
        <time>2022-10-02T12:29:25Z</time>
      </trkpt>
      <trkpt lat="47.48336" lon="8.21347">
        <ele>348.5</ele>
        <time>2022-10-02T12:29:26Z</time>
      </trkpt>
      <trkpt lat="47.48336" lon="8.21349">
        <ele>348.5</ele>
        <time>2022-10-02T12:29:27Z</time>
      </trkpt>
      <trkpt lat="47.48335" lon="8.21351">
        <ele>348.4</ele>
        <time>2022-10-02T12:29:28Z</time>
      </trkpt>
      <trkpt lat="47.48333" lon="8.21353">
        <ele>348.4</ele>
        <time>2022-10-02T12:29:29Z</time>
      </trkpt>
      <trkpt lat="47.4833" lon="8.21355">
        <ele>348.5</ele>
        <time>2022-10-02T12:29:30Z</time>
      </trkpt>
      <trkpt lat="47.48329" lon="8.21356">
        <ele>348.5</ele>
        <time>2022-10-02T12:29:31Z</time>
      </trkpt>
      <trkpt lat="47.48326" lon="8.21355">
        <ele>348.5</ele>
        <time>2022-10-02T12:29:32Z</time>
      </trkpt>
      <trkpt lat="47.48323" lon="8.21355">
        <ele>348.6</ele>
        <time>2022-10-02T12:29:33Z</time>
      </trkpt>
      <trkpt lat="47.48319" lon="8.21354">
        <ele>348.6</ele>
        <time>2022-10-02T12:29:34Z</time>
      </trkpt>
      <trkpt lat="47.48314" lon="8.21355">
        <ele>348.7</ele>
        <time>2022-10-02T12:29:35Z</time>
      </trkpt>
      <trkpt lat="47.48309" lon="8.21355">
        <ele>348.8</ele>
        <time>2022-10-02T12:29:36Z</time>
      </trkpt>
      <trkpt lat="47.48303" lon="8.21356">
        <ele>348.9</ele>
        <time>2022-10-02T12:29:37Z</time>
      </trkpt>
      <trkpt lat="47.48298" lon="8.21356">
        <ele>349.1</ele>
        <time>2022-10-02T12:29:38Z</time>
      </trkpt>
      <trkpt lat="47.48291" lon="8.21354">
        <ele>349.3</ele>
        <time>2022-10-02T12:29:39Z</time>
      </trkpt>
      <trkpt lat="47.48286" lon="8.21352">
        <ele>349.3</ele>
        <time>2022-10-02T12:29:40Z</time>
      </trkpt>
      <trkpt lat="47.48288" lon="8.21355">
        <ele>349.4</ele>
        <time>2022-10-02T12:29:41Z</time>
      </trkpt>
      <trkpt lat="47.48289" lon="8.21357">
        <ele>349.4</ele>
        <time>2022-10-02T12:29:42Z</time>
      </trkpt>
      <trkpt lat="47.4829" lon="8.21359">
        <ele>349.4</ele>
        <time>2022-10-02T12:29:43Z</time>
      </trkpt>
      <trkpt lat="47.48293" lon="8.21363">
        <ele>349.4</ele>
        <time>2022-10-02T12:29:44Z</time>
      </trkpt>
      <trkpt lat="47.48294" lon="8.21367">
        <ele>349.5</ele>
        <time>2022-10-02T12:29:45Z</time>
      </trkpt>
      <trkpt lat="47.48295" lon="8.21371">
        <ele>349.6</ele>
        <time>2022-10-02T12:29:46Z</time>
      </trkpt>
      <trkpt lat="47.48294" lon="8.21375">
        <ele>349.6</ele>
        <time>2022-10-02T12:29:47Z</time>
      </trkpt>
      <trkpt lat="47.48294" lon="8.21381">
        <ele>349.7</ele>
        <time>2022-10-02T12:29:48Z</time>
      </trkpt>
      <trkpt lat="47.48294" lon="8.21383">
        <ele>349.7</ele>
        <time>2022-10-02T12:29:49Z</time>
      </trkpt>
      <trkpt lat="47.48295" lon="8.21388">
        <ele>349.8</ele>
        <time>2022-10-02T12:29:50Z</time>
      </trkpt>
      <trkpt lat="47.48295" lon="8.2139">
        <ele>349.8</ele>
        <time>2022-10-02T12:29:51Z</time>
      </trkpt>
      <trkpt lat="47.48292" lon="8.21396">
        <ele>349.9</ele>
        <time>2022-10-02T12:29:52Z</time>
      </trkpt>
      <trkpt lat="47.48289" lon="8.21398">
        <ele>350</ele>
        <time>2022-10-02T12:29:53Z</time>
      </trkpt>
      <trkpt lat="47.48289" lon="8.21404">
        <ele>350.1</ele>
        <time>2022-10-02T12:29:54Z</time>
      </trkpt>
      <trkpt lat="47.4829" lon="8.21406">
        <ele>350.1</ele>
        <time>2022-10-02T12:29:55Z</time>
      </trkpt>
      <trkpt lat="47.4829" lon="8.21411">
        <ele>350.2</ele>
        <time>2022-10-02T12:29:56Z</time>
      </trkpt>
      <trkpt lat="47.48291" lon="8.21413">
        <ele>350.2</ele>
        <time>2022-10-02T12:29:57Z</time>
      </trkpt>
      <trkpt lat="47.48291" lon="8.21418">
        <ele>350.3</ele>
        <time>2022-10-02T12:29:58Z</time>
      </trkpt>
      <trkpt lat="47.48291" lon="8.21423">
        <ele>350.4</ele>
        <time>2022-10-02T12:29:59Z</time>
      </trkpt>
      <trkpt lat="47.48292" lon="8.21427">
        <ele>350.4</ele>
        <time>2022-10-02T12:30:00Z</time>
      </trkpt>
      <trkpt lat="47.48293" lon="8.21431">
        <ele>350.5</ele>
        <time>2022-10-02T12:30:01Z</time>
      </trkpt>
      <trkpt lat="47.48293" lon="8.21435">
        <ele>350.6</ele>
        <time>2022-10-02T12:30:02Z</time>
      </trkpt>
      <trkpt lat="47.48294" lon="8.2144">
        <ele>350.7</ele>
        <time>2022-10-02T12:30:03Z</time>
      </trkpt>
      <trkpt lat="47.48295" lon="8.21444">
        <ele>350.9</ele>
        <time>2022-10-02T12:30:04Z</time>
      </trkpt>
      <trkpt lat="47.48295" lon="8.21448">
        <ele>351</ele>
        <time>2022-10-02T12:30:05Z</time>
      </trkpt>
      <trkpt lat="47.48297" lon="8.21451">
        <ele>351.1</ele>
        <time>2022-10-02T12:30:06Z</time>
      </trkpt>
      <trkpt lat="47.48298" lon="8.21457">
        <ele>351.3</ele>
        <time>2022-10-02T12:30:07Z</time>
      </trkpt>
      <trkpt lat="47.48298" lon="8.21458">
        <ele>351.3</ele>
        <time>2022-10-02T12:30:08Z</time>
      </trkpt>
      <trkpt lat="47.48298" lon="8.21464">
        <ele>351.5</ele>
        <time>2022-10-02T12:30:09Z</time>
      </trkpt>
      <trkpt lat="47.48298" lon="8.21466">
        <ele>351.6</ele>
        <time>2022-10-02T12:30:10Z</time>
      </trkpt>
      <trkpt lat="47.483" lon="8.21471">
        <ele>351.8</ele>
        <time>2022-10-02T12:30:11Z</time>
      </trkpt>
      <trkpt lat="47.483" lon="8.21472">
        <ele>351.9</ele>
        <time>2022-10-02T12:30:12Z</time>
      </trkpt>
      <trkpt lat="47.483" lon="8.21477">
        <ele>352.1</ele>
        <time>2022-10-02T12:30:13Z</time>
      </trkpt>
      <trkpt lat="47.483" lon="8.21478">
        <ele>352.1</ele>
        <time>2022-10-02T12:30:14Z</time>
      </trkpt>
      <trkpt lat="47.48299" lon="8.21484">
        <ele>352.4</ele>
        <time>2022-10-02T12:30:15Z</time>
      </trkpt>
      <trkpt lat="47.48299" lon="8.21485">
        <ele>352.5</ele>
        <time>2022-10-02T12:30:16Z</time>
      </trkpt>
      <trkpt lat="47.483" lon="8.21489">
        <ele>352.7</ele>
        <time>2022-10-02T12:30:17Z</time>
      </trkpt>
      <trkpt lat="47.48299" lon="8.21494">
        <ele>353</ele>
        <time>2022-10-02T12:30:18Z</time>
      </trkpt>
      <trkpt lat="47.48298" lon="8.21495">
        <ele>353.1</ele>
        <time>2022-10-02T12:30:19Z</time>
      </trkpt>
      <trkpt lat="47.48298" lon="8.21501">
        <ele>353.4</ele>
        <time>2022-10-02T12:30:20Z</time>
      </trkpt>
      <trkpt lat="47.48297" lon="8.21503">
        <ele>353.5</ele>
        <time>2022-10-02T12:30:21Z</time>
      </trkpt>
      <trkpt lat="47.48297" lon="8.21507">
        <ele>353.8</ele>
        <time>2022-10-02T12:30:22Z</time>
      </trkpt>
      <trkpt lat="47.48296" lon="8.21509">
        <ele>353.9</ele>
        <time>2022-10-02T12:30:23Z</time>
      </trkpt>
      <trkpt lat="47.48296" lon="8.21513">
        <ele>354.2</ele>
        <time>2022-10-02T12:30:24Z</time>
      </trkpt>
      <trkpt lat="47.48296" lon="8.21515">
        <ele>354.3</ele>
        <time>2022-10-02T12:30:25Z</time>
      </trkpt>
      <trkpt lat="47.48295" lon="8.21518">
        <ele>354.5</ele>
        <time>2022-10-02T12:30:26Z</time>
      </trkpt>
      <trkpt lat="47.48295" lon="8.2152">
        <ele>354.6</ele>
        <time>2022-10-02T12:30:27Z</time>
      </trkpt>
      <trkpt lat="47.48294" lon="8.21525">
        <ele>354.9</ele>
        <time>2022-10-02T12:30:28Z</time>
      </trkpt>
      <trkpt lat="47.48294" lon="8.21527">
        <ele>355</ele>
        <time>2022-10-02T12:30:29Z</time>
      </trkpt>
      <trkpt lat="47.48294" lon="8.21529">
        <ele>355.2</ele>
        <time>2022-10-02T12:30:30Z</time>
      </trkpt>
      <trkpt lat="47.48293" lon="8.21532">
        <ele>355.3</ele>
        <time>2022-10-02T12:30:31Z</time>
      </trkpt>
      <trkpt lat="47.48292" lon="8.21536">
        <ele>355.6</ele>
        <time>2022-10-02T12:30:32Z</time>
      </trkpt>
      <trkpt lat="47.48291" lon="8.21537">
        <ele>355.7</ele>
        <time>2022-10-02T12:30:33Z</time>
      </trkpt>
      <trkpt lat="47.4829" lon="8.21541">
        <ele>355.9</ele>
        <time>2022-10-02T12:30:34Z</time>
      </trkpt>
      <trkpt lat="47.48289" lon="8.21542">
        <ele>356</ele>
        <time>2022-10-02T12:30:35Z</time>
      </trkpt>
      <trkpt lat="47.48288" lon="8.21544">
        <ele>356.2</ele>
        <time>2022-10-02T12:30:36Z</time>
      </trkpt>
      <trkpt lat="47.48288" lon="8.21546">
        <ele>356.3</ele>
        <time>2022-10-02T12:30:37Z</time>
      </trkpt>
      <trkpt lat="47.48286" lon="8.21551">
        <ele>356.6</ele>
        <time>2022-10-02T12:30:38Z</time>
      </trkpt>
      <trkpt lat="47.48286" lon="8.21553">
        <ele>356.7</ele>
        <time>2022-10-02T12:30:39Z</time>
      </trkpt>
      <trkpt lat="47.48285" lon="8.21555">
        <ele>356.8</ele>
        <time>2022-10-02T12:30:40Z</time>
      </trkpt>
      <trkpt lat="47.48285" lon="8.21557">
        <ele>356.9</ele>
        <time>2022-10-02T12:30:41Z</time>
      </trkpt>
      <trkpt lat="47.48284" lon="8.21559">
        <ele>357.1</ele>
        <time>2022-10-02T12:30:43Z</time>
      </trkpt>
      <trkpt lat="47.48283" lon="8.21562">
        <ele>357.2</ele>
        <time>2022-10-02T12:30:44Z</time>
      </trkpt>
      <trkpt lat="47.48281" lon="8.21564">
        <ele>357.4</ele>
        <time>2022-10-02T12:30:45Z</time>
      </trkpt>
      <trkpt lat="47.48281" lon="8.21566">
        <ele>357.5</ele>
        <time>2022-10-02T12:30:46Z</time>
      </trkpt>
      <trkpt lat="47.4828" lon="8.21568">
        <ele>357.6</ele>
        <time>2022-10-02T12:30:47Z</time>
      </trkpt>
      <trkpt lat="47.48279" lon="8.2157">
        <ele>357.8</ele>
        <time>2022-10-02T12:30:48Z</time>
      </trkpt>
      <trkpt lat="47.48278" lon="8.21572">
        <ele>357.9</ele>
        <time>2022-10-02T12:30:49Z</time>
      </trkpt>
      <trkpt lat="47.48277" lon="8.21574">
        <ele>358</ele>
        <time>2022-10-02T12:30:50Z</time>
      </trkpt>
      <trkpt lat="47.48276" lon="8.21578">
        <ele>358.2</ele>
        <time>2022-10-02T12:30:51Z</time>
      </trkpt>
      <trkpt lat="47.48276" lon="8.21579">
        <ele>358.3</ele>
        <time>2022-10-02T12:30:52Z</time>
      </trkpt>
      <trkpt lat="47.48274" lon="8.21584">
        <ele>358.6</ele>
        <time>2022-10-02T12:30:53Z</time>
      </trkpt>
      <trkpt lat="47.48273" lon="8.21585">
        <ele>358.7</ele>
        <time>2022-10-02T12:30:54Z</time>
      </trkpt>
      <trkpt lat="47.48271" lon="8.2159">
        <ele>358.9</ele>
        <time>2022-10-02T12:30:55Z</time>
      </trkpt>
      <trkpt lat="47.48271" lon="8.21591">
        <ele>358.9</ele>
        <time>2022-10-02T12:30:56Z</time>
      </trkpt>
      <trkpt lat="47.48269" lon="8.21595">
        <ele>359.1</ele>
        <time>2022-10-02T12:30:57Z</time>
      </trkpt>
      <trkpt lat="47.48268" lon="8.21596">
        <ele>359.2</ele>
        <time>2022-10-02T12:30:58Z</time>
      </trkpt>
      <trkpt lat="47.48266" lon="8.21599">
        <ele>359.4</ele>
        <time>2022-10-02T12:30:59Z</time>
      </trkpt>
      <trkpt lat="47.48266" lon="8.216">
        <ele>359.4</ele>
        <time>2022-10-02T12:31:00Z</time>
      </trkpt>
      <trkpt lat="47.48265" lon="8.21602">
        <ele>359.5</ele>
        <time>2022-10-02T12:31:01Z</time>
      </trkpt>
      <trkpt lat="47.48264" lon="8.21604">
        <ele>359.6</ele>
        <time>2022-10-02T12:31:02Z</time>
      </trkpt>
      <trkpt lat="47.48263" lon="8.21606">
        <ele>359.6</ele>
        <time>2022-10-02T12:31:03Z</time>
      </trkpt>
      <trkpt lat="47.48261" lon="8.21607">
        <ele>359.7</ele>
        <time>2022-10-02T12:31:04Z</time>
      </trkpt>
      <trkpt lat="47.48259" lon="8.21609">
        <ele>359.8</ele>
        <time>2022-10-02T12:31:05Z</time>
      </trkpt>
      <trkpt lat="47.48258" lon="8.2161">
        <ele>359.9</ele>
        <time>2022-10-02T12:31:06Z</time>
      </trkpt>
      <trkpt lat="47.48256" lon="8.21613">
        <ele>359.9</ele>
        <time>2022-10-02T12:31:07Z</time>
      </trkpt>
      <trkpt lat="47.48256" lon="8.21614">
        <ele>360</ele>
        <time>2022-10-02T12:31:08Z</time>
      </trkpt>
      <trkpt lat="47.48255" lon="8.21619">
        <ele>360</ele>
        <time>2022-10-02T12:31:09Z</time>
      </trkpt>
      <trkpt lat="47.48255" lon="8.2162">
        <ele>360</ele>
        <time>2022-10-02T12:31:10Z</time>
      </trkpt>
      <trkpt lat="47.48255" lon="8.21626">
        <ele>360.1</ele>
        <time>2022-10-02T12:31:11Z</time>
      </trkpt>
      <trkpt lat="47.48255" lon="8.21628">
        <ele>360.1</ele>
        <time>2022-10-02T12:31:12Z</time>
      </trkpt>
      <trkpt lat="47.48254" lon="8.21632">
        <ele>360.1</ele>
        <time>2022-10-02T12:31:13Z</time>
      </trkpt>
      <trkpt lat="47.48252" lon="8.21636">
        <ele>360.2</ele>
        <time>2022-10-02T12:31:14Z</time>
      </trkpt>
      <trkpt lat="47.4825" lon="8.21641">
        <ele>360.3</ele>
        <time>2022-10-02T12:31:15Z</time>
      </trkpt>
      <trkpt lat="47.48248" lon="8.21645">
        <ele>360.3</ele>
        <time>2022-10-02T12:31:16Z</time>
      </trkpt>
      <trkpt lat="47.48246" lon="8.2165">
        <ele>360.3</ele>
        <time>2022-10-02T12:31:17Z</time>
      </trkpt>
      <trkpt lat="47.48245" lon="8.21654">
        <ele>360.4</ele>
        <time>2022-10-02T12:31:18Z</time>
      </trkpt>
      <trkpt lat="47.48243" lon="8.21659">
        <ele>360.4</ele>
        <time>2022-10-02T12:31:19Z</time>
      </trkpt>
      <trkpt lat="47.48242" lon="8.21664">
        <ele>360.5</ele>
        <time>2022-10-02T12:31:20Z</time>
      </trkpt>
      <trkpt lat="47.4824" lon="8.21668">
        <ele>360.5</ele>
        <time>2022-10-02T12:31:21Z</time>
      </trkpt>
      <trkpt lat="47.48239" lon="8.21673">
        <ele>360.5</ele>
        <time>2022-10-02T12:31:22Z</time>
      </trkpt>
      <trkpt lat="47.48238" lon="8.21677">
        <ele>360.6</ele>
        <time>2022-10-02T12:31:23Z</time>
      </trkpt>
      <trkpt lat="47.48236" lon="8.21682">
        <ele>360.6</ele>
        <time>2022-10-02T12:31:24Z</time>
      </trkpt>
      <trkpt lat="47.48234" lon="8.21687">
        <ele>360.7</ele>
        <time>2022-10-02T12:31:25Z</time>
      </trkpt>
      <trkpt lat="47.48231" lon="8.21698">
        <ele>360.7</ele>
        <time>2022-10-02T12:31:26Z</time>
      </trkpt>
      <trkpt lat="47.4823" lon="8.21703">
        <ele>360.8</ele>
        <time>2022-10-02T12:31:27Z</time>
      </trkpt>
      <trkpt lat="47.48228" lon="8.21708">
        <ele>360.8</ele>
        <time>2022-10-02T12:31:28Z</time>
      </trkpt>
      <trkpt lat="47.48227" lon="8.21714">
        <ele>360.8</ele>
        <time>2022-10-02T12:31:29Z</time>
      </trkpt>
      <trkpt lat="47.48226" lon="8.2172">
        <ele>360.8</ele>
        <time>2022-10-02T12:31:30Z</time>
      </trkpt>
      <trkpt lat="47.48225" lon="8.21725">
        <ele>360.8</ele>
        <time>2022-10-02T12:31:31Z</time>
      </trkpt>
      <trkpt lat="47.48224" lon="8.21731">
        <ele>360.8</ele>
        <time>2022-10-02T12:31:32Z</time>
      </trkpt>
      <trkpt lat="47.48223" lon="8.21736">
        <ele>360.8</ele>
        <time>2022-10-02T12:31:33Z</time>
      </trkpt>
      <trkpt lat="47.48221" lon="8.21742">
        <ele>360.8</ele>
        <time>2022-10-02T12:31:34Z</time>
      </trkpt>
      <trkpt lat="47.4822" lon="8.21748">
        <ele>360.8</ele>
        <time>2022-10-02T12:31:35Z</time>
      </trkpt>
      <trkpt lat="47.48219" lon="8.21754">
        <ele>360.8</ele>
        <time>2022-10-02T12:31:36Z</time>
      </trkpt>
      <trkpt lat="47.48218" lon="8.2176">
        <ele>360.8</ele>
        <time>2022-10-02T12:31:37Z</time>
      </trkpt>
      <trkpt lat="47.48217" lon="8.21766">
        <ele>360.9</ele>
        <time>2022-10-02T12:31:38Z</time>
      </trkpt>
      <trkpt lat="47.48217" lon="8.21772">
        <ele>360.9</ele>
        <time>2022-10-02T12:31:39Z</time>
      </trkpt>
      <trkpt lat="47.48216" lon="8.21778">
        <ele>360.9</ele>
        <time>2022-10-02T12:31:40Z</time>
      </trkpt>
      <trkpt lat="47.48215" lon="8.21784">
        <ele>360.9</ele>
        <time>2022-10-02T12:31:41Z</time>
      </trkpt>
      <trkpt lat="47.48215" lon="8.2179">
        <ele>361</ele>
        <time>2022-10-02T12:31:42Z</time>
      </trkpt>
      <trkpt lat="47.48215" lon="8.21796">
        <ele>361</ele>
        <time>2022-10-02T12:31:43Z</time>
      </trkpt>
      <trkpt lat="47.48216" lon="8.21802">
        <ele>361.1</ele>
        <time>2022-10-02T12:31:44Z</time>
      </trkpt>
      <trkpt lat="47.48216" lon="8.21807">
        <ele>361.1</ele>
        <time>2022-10-02T12:31:45Z</time>
      </trkpt>
      <trkpt lat="47.48216" lon="8.21812">
        <ele>361.1</ele>
        <time>2022-10-02T12:31:46Z</time>
      </trkpt>
      <trkpt lat="47.48217" lon="8.21817">
        <ele>361.2</ele>
        <time>2022-10-02T12:31:47Z</time>
      </trkpt>
      <trkpt lat="47.48216" lon="8.21822">
        <ele>361.2</ele>
        <time>2022-10-02T12:31:48Z</time>
      </trkpt>
      <trkpt lat="47.48215" lon="8.21824">
        <ele>361.2</ele>
        <time>2022-10-02T12:31:49Z</time>
      </trkpt>
      <trkpt lat="47.48213" lon="8.21828">
        <ele>361.4</ele>
        <time>2022-10-02T12:31:50Z</time>
      </trkpt>
      <trkpt lat="47.48212" lon="8.21829">
        <ele>361.4</ele>
        <time>2022-10-02T12:31:51Z</time>
      </trkpt>
      <trkpt lat="47.48209" lon="8.21831">
        <ele>361.4</ele>
        <time>2022-10-02T12:31:52Z</time>
      </trkpt>
      <trkpt lat="47.48206" lon="8.21833">
        <ele>361.4</ele>
        <time>2022-10-02T12:31:53Z</time>
      </trkpt>
      <trkpt lat="47.48204" lon="8.21835">
        <ele>361.5</ele>
        <time>2022-10-02T12:31:54Z</time>
      </trkpt>
      <trkpt lat="47.48202" lon="8.2184">
        <ele>361.5</ele>
        <time>2022-10-02T12:31:55Z</time>
      </trkpt>
      <trkpt lat="47.48202" lon="8.21845">
        <ele>361.5</ele>
        <time>2022-10-02T12:31:56Z</time>
      </trkpt>
      <trkpt lat="47.48202" lon="8.21851">
        <ele>361.5</ele>
        <time>2022-10-02T12:31:57Z</time>
      </trkpt>
      <trkpt lat="47.48202" lon="8.21855">
        <ele>361.5</ele>
        <time>2022-10-02T12:31:58Z</time>
      </trkpt>
      <trkpt lat="47.48203" lon="8.21861">
        <ele>361.5</ele>
        <time>2022-10-02T12:31:59Z</time>
      </trkpt>
      <trkpt lat="47.48204" lon="8.21866">
        <ele>361.5</ele>
        <time>2022-10-02T12:32:00Z</time>
      </trkpt>
      <trkpt lat="47.48205" lon="8.2187">
        <ele>361.5</ele>
        <time>2022-10-02T12:32:01Z</time>
      </trkpt>
      <trkpt lat="47.48206" lon="8.21875">
        <ele>361.5</ele>
        <time>2022-10-02T12:32:02Z</time>
      </trkpt>
      <trkpt lat="47.48207" lon="8.2188">
        <ele>361.5</ele>
        <time>2022-10-02T12:32:03Z</time>
      </trkpt>
      <trkpt lat="47.48207" lon="8.21884">
        <ele>361.5</ele>
        <time>2022-10-02T12:32:04Z</time>
      </trkpt>
      <trkpt lat="47.48207" lon="8.21887">
        <ele>361.5</ele>
        <time>2022-10-02T12:32:05Z</time>
      </trkpt>
      <trkpt lat="47.48207" lon="8.21889">
        <ele>361.5</ele>
        <time>2022-10-02T12:32:06Z</time>
      </trkpt>
      <trkpt lat="47.48203" lon="8.21891">
        <ele>361.5</ele>
        <time>2022-10-02T12:32:07Z</time>
      </trkpt>
      <trkpt lat="47.48198" lon="8.21892">
        <ele>361.5</ele>
        <time>2022-10-02T12:32:08Z</time>
      </trkpt>
      <trkpt lat="47.48194" lon="8.21892">
        <ele>361.5</ele>
        <time>2022-10-02T12:32:09Z</time>
      </trkpt>
      <trkpt lat="47.48191" lon="8.21892">
        <ele>361.5</ele>
        <time>2022-10-02T12:32:10Z</time>
      </trkpt>
      <trkpt lat="47.48187" lon="8.21893">
        <ele>361.5</ele>
        <time>2022-10-02T12:32:11Z</time>
      </trkpt>
      <trkpt lat="47.48183" lon="8.21894">
        <ele>361.5</ele>
        <time>2022-10-02T12:32:12Z</time>
      </trkpt>
      <trkpt lat="47.48179" lon="8.21896">
        <ele>361.5</ele>
        <time>2022-10-02T12:32:13Z</time>
      </trkpt>
      <trkpt lat="47.48175" lon="8.21897">
        <ele>361.5</ele>
        <time>2022-10-02T12:32:14Z</time>
      </trkpt>
      <trkpt lat="47.48171" lon="8.21897">
        <ele>361.6</ele>
        <time>2022-10-02T12:32:15Z</time>
      </trkpt>
      <trkpt lat="47.48167" lon="8.21898">
        <ele>361.6</ele>
        <time>2022-10-02T12:32:16Z</time>
      </trkpt>
      <trkpt lat="47.48162" lon="8.21901">
        <ele>361.6</ele>
        <time>2022-10-02T12:32:17Z</time>
      </trkpt>
      <trkpt lat="47.48159" lon="8.21903">
        <ele>361.6</ele>
        <time>2022-10-02T12:32:18Z</time>
      </trkpt>
      <trkpt lat="47.48155" lon="8.21906">
        <ele>361.6</ele>
        <time>2022-10-02T12:32:19Z</time>
      </trkpt>
      <trkpt lat="47.48151" lon="8.21909">
        <ele>361.5</ele>
        <time>2022-10-02T12:32:20Z</time>
      </trkpt>
      <trkpt lat="47.48145" lon="8.2191">
        <ele>361.5</ele>
        <time>2022-10-02T12:32:21Z</time>
      </trkpt>
      <trkpt lat="47.48141" lon="8.2191">
        <ele>361.5</ele>
        <time>2022-10-02T12:32:22Z</time>
      </trkpt>
      <trkpt lat="47.48136" lon="8.21912">
        <ele>361.5</ele>
        <time>2022-10-02T12:32:23Z</time>
      </trkpt>
      <trkpt lat="47.48131" lon="8.21914">
        <ele>361.5</ele>
        <time>2022-10-02T12:32:24Z</time>
      </trkpt>
      <trkpt lat="47.48127" lon="8.21915">
        <ele>361.5</ele>
        <time>2022-10-02T12:32:25Z</time>
      </trkpt>
      <trkpt lat="47.48122" lon="8.21917">
        <ele>361.5</ele>
        <time>2022-10-02T12:32:26Z</time>
      </trkpt>
      <trkpt lat="47.48118" lon="8.21919">
        <ele>361.5</ele>
        <time>2022-10-02T12:32:27Z</time>
      </trkpt>
      <trkpt lat="47.48114" lon="8.21921">
        <ele>361.5</ele>
        <time>2022-10-02T12:32:28Z</time>
      </trkpt>
      <trkpt lat="47.48109" lon="8.21922">
        <ele>361.5</ele>
        <time>2022-10-02T12:32:29Z</time>
      </trkpt>
      <trkpt lat="47.48104" lon="8.21924">
        <ele>361.5</ele>
        <time>2022-10-02T12:32:30Z</time>
      </trkpt>
      <trkpt lat="47.48099" lon="8.21926">
        <ele>361.6</ele>
        <time>2022-10-02T12:32:31Z</time>
      </trkpt>
      <trkpt lat="47.48094" lon="8.21926">
        <ele>361.6</ele>
        <time>2022-10-02T12:32:32Z</time>
      </trkpt>
      <trkpt lat="47.48089" lon="8.21928">
        <ele>361.6</ele>
        <time>2022-10-02T12:32:33Z</time>
      </trkpt>
      <trkpt lat="47.48084" lon="8.2193">
        <ele>361.6</ele>
        <time>2022-10-02T12:32:34Z</time>
      </trkpt>
      <trkpt lat="47.4808" lon="8.21932">
        <ele>361.7</ele>
        <time>2022-10-02T12:32:35Z</time>
      </trkpt>
      <trkpt lat="47.48076" lon="8.21934">
        <ele>361.7</ele>
        <time>2022-10-02T12:32:36Z</time>
      </trkpt>
      <trkpt lat="47.48071" lon="8.21935">
        <ele>361.7</ele>
        <time>2022-10-02T12:32:37Z</time>
      </trkpt>
      <trkpt lat="47.48067" lon="8.21937">
        <ele>361.7</ele>
        <time>2022-10-02T12:32:38Z</time>
      </trkpt>
      <trkpt lat="47.48062" lon="8.21938">
        <ele>361.8</ele>
        <time>2022-10-02T12:32:39Z</time>
      </trkpt>
      <trkpt lat="47.48058" lon="8.21939">
        <ele>361.8</ele>
        <time>2022-10-02T12:32:40Z</time>
      </trkpt>
      <trkpt lat="47.48053" lon="8.21939">
        <ele>361.8</ele>
        <time>2022-10-02T12:32:41Z</time>
      </trkpt>
      <trkpt lat="47.48049" lon="8.21939">
        <ele>361.8</ele>
        <time>2022-10-02T12:32:42Z</time>
      </trkpt>
      <trkpt lat="47.48045" lon="8.21939">
        <ele>361.8</ele>
        <time>2022-10-02T12:32:43Z</time>
      </trkpt>
      <trkpt lat="47.48041" lon="8.21941">
        <ele>361.9</ele>
        <time>2022-10-02T12:32:44Z</time>
      </trkpt>
      <trkpt lat="47.48036" lon="8.21943">
        <ele>361.9</ele>
        <time>2022-10-02T12:32:45Z</time>
      </trkpt>
      <trkpt lat="47.48032" lon="8.21944">
        <ele>361.9</ele>
        <time>2022-10-02T12:32:46Z</time>
      </trkpt>
      <trkpt lat="47.48028" lon="8.21947">
        <ele>361.9</ele>
        <time>2022-10-02T12:32:47Z</time>
      </trkpt>
      <trkpt lat="47.48024" lon="8.21948">
        <ele>362</ele>
        <time>2022-10-02T12:32:49Z</time>
      </trkpt>
      <trkpt lat="47.4802" lon="8.21949">
        <ele>362</ele>
        <time>2022-10-02T12:32:50Z</time>
      </trkpt>
      <trkpt lat="47.48015" lon="8.2195">
        <ele>362.1</ele>
        <time>2022-10-02T12:32:51Z</time>
      </trkpt>
      <trkpt lat="47.48011" lon="8.21951">
        <ele>362.2</ele>
        <time>2022-10-02T12:32:52Z</time>
      </trkpt>
      <trkpt lat="47.48007" lon="8.21954">
        <ele>362.3</ele>
        <time>2022-10-02T12:32:53Z</time>
      </trkpt>
      <trkpt lat="47.48004" lon="8.21957">
        <ele>362.3</ele>
        <time>2022-10-02T12:32:54Z</time>
      </trkpt>
      <trkpt lat="47.48001" lon="8.2196">
        <ele>362.4</ele>
        <time>2022-10-02T12:32:55Z</time>
      </trkpt>
      <trkpt lat="47.47998" lon="8.21964">
        <ele>362.5</ele>
        <time>2022-10-02T12:32:56Z</time>
      </trkpt>
      <trkpt lat="47.47995" lon="8.21967">
        <ele>362.5</ele>
        <time>2022-10-02T12:32:57Z</time>
      </trkpt>
      <trkpt lat="47.47995" lon="8.21972">
        <ele>362.6</ele>
        <time>2022-10-02T12:32:58Z</time>
      </trkpt>
      <trkpt lat="47.47996" lon="8.21977">
        <ele>362.6</ele>
        <time>2022-10-02T12:32:59Z</time>
      </trkpt>
      <trkpt lat="47.47997" lon="8.21982">
        <ele>362.6</ele>
        <time>2022-10-02T12:33:00Z</time>
      </trkpt>
      <trkpt lat="47.47999" lon="8.21989">
        <ele>362.6</ele>
        <time>2022-10-02T12:33:01Z</time>
      </trkpt>
      <trkpt lat="47.48001" lon="8.21993">
        <ele>362.6</ele>
        <time>2022-10-02T12:33:02Z</time>
      </trkpt>
      <trkpt lat="47.48003" lon="8.21998">
        <ele>362.6</ele>
        <time>2022-10-02T12:33:03Z</time>
      </trkpt>
      <trkpt lat="47.48008" lon="8.2201">
        <ele>362.7</ele>
        <time>2022-10-02T12:33:04Z</time>
      </trkpt>
      <trkpt lat="47.4801" lon="8.22015">
        <ele>362.7</ele>
        <time>2022-10-02T12:33:05Z</time>
      </trkpt>
      <trkpt lat="47.48012" lon="8.22022">
        <ele>362.7</ele>
        <time>2022-10-02T12:33:06Z</time>
      </trkpt>
      <trkpt lat="47.48014" lon="8.22028">
        <ele>362.8</ele>
        <time>2022-10-02T12:33:07Z</time>
      </trkpt>
      <trkpt lat="47.48015" lon="8.22034">
        <ele>362.8</ele>
        <time>2022-10-02T12:33:08Z</time>
      </trkpt>
      <trkpt lat="47.48017" lon="8.22038">
        <ele>362.9</ele>
        <time>2022-10-02T12:33:09Z</time>
      </trkpt>
      <trkpt lat="47.48017" lon="8.22043">
        <ele>362.9</ele>
        <time>2022-10-02T12:33:10Z</time>
      </trkpt>
      <trkpt lat="47.48017" lon="8.22048">
        <ele>362.9</ele>
        <time>2022-10-02T12:33:11Z</time>
      </trkpt>
      <trkpt lat="47.48016" lon="8.22052">
        <ele>362.9</ele>
        <time>2022-10-02T12:33:12Z</time>
      </trkpt>
      <trkpt lat="47.48013" lon="8.22057">
        <ele>362.8</ele>
        <time>2022-10-02T12:33:13Z</time>
      </trkpt>
      <trkpt lat="47.48011" lon="8.22058">
        <ele>362.8</ele>
        <time>2022-10-02T12:33:14Z</time>
      </trkpt>
      <trkpt lat="47.48008" lon="8.22061">
        <ele>362.8</ele>
        <time>2022-10-02T12:33:15Z</time>
      </trkpt>
      <trkpt lat="47.48004" lon="8.22062">
        <ele>362.8</ele>
        <time>2022-10-02T12:33:16Z</time>
      </trkpt>
      <trkpt lat="47.48" lon="8.22064">
        <ele>362.7</ele>
        <time>2022-10-02T12:33:17Z</time>
      </trkpt>
      <trkpt lat="47.47997" lon="8.22066">
        <ele>362.7</ele>
        <time>2022-10-02T12:33:18Z</time>
      </trkpt>
      <trkpt lat="47.47993" lon="8.22068">
        <ele>362.7</ele>
        <time>2022-10-02T12:33:19Z</time>
      </trkpt>
      <trkpt lat="47.47989" lon="8.2207">
        <ele>362.6</ele>
        <time>2022-10-02T12:33:20Z</time>
      </trkpt>
      <trkpt lat="47.47985" lon="8.22072">
        <ele>362.6</ele>
        <time>2022-10-02T12:33:21Z</time>
      </trkpt>
      <trkpt lat="47.47981" lon="8.22073">
        <ele>362.6</ele>
        <time>2022-10-02T12:33:22Z</time>
      </trkpt>
      <trkpt lat="47.47976" lon="8.22075">
        <ele>362.5</ele>
        <time>2022-10-02T12:33:23Z</time>
      </trkpt>
      <trkpt lat="47.47972" lon="8.22077">
        <ele>362.5</ele>
        <time>2022-10-02T12:33:24Z</time>
      </trkpt>
      <trkpt lat="47.47968" lon="8.22079">
        <ele>362.5</ele>
        <time>2022-10-02T12:33:25Z</time>
      </trkpt>
      <trkpt lat="47.47963" lon="8.22081">
        <ele>362.5</ele>
        <time>2022-10-02T12:33:26Z</time>
      </trkpt>
      <trkpt lat="47.47959" lon="8.22083">
        <ele>362.5</ele>
        <time>2022-10-02T12:33:27Z</time>
      </trkpt>
      <trkpt lat="47.47954" lon="8.22085">
        <ele>362.4</ele>
        <time>2022-10-02T12:33:28Z</time>
      </trkpt>
      <trkpt lat="47.47949" lon="8.22087">
        <ele>362.4</ele>
        <time>2022-10-02T12:33:29Z</time>
      </trkpt>
      <trkpt lat="47.47944" lon="8.2209">
        <ele>362.4</ele>
        <time>2022-10-02T12:33:30Z</time>
      </trkpt>
      <trkpt lat="47.47939" lon="8.22092">
        <ele>362.5</ele>
        <time>2022-10-02T12:33:31Z</time>
      </trkpt>
      <trkpt lat="47.47934" lon="8.22094">
        <ele>362.5</ele>
        <time>2022-10-02T12:33:32Z</time>
      </trkpt>
      <trkpt lat="47.47929" lon="8.22096">
        <ele>362.5</ele>
        <time>2022-10-02T12:33:33Z</time>
      </trkpt>
      <trkpt lat="47.47924" lon="8.22099">
        <ele>362.5</ele>
        <time>2022-10-02T12:33:34Z</time>
      </trkpt>
      <trkpt lat="47.47919" lon="8.22102">
        <ele>362.5</ele>
        <time>2022-10-02T12:33:35Z</time>
      </trkpt>
      <trkpt lat="47.47914" lon="8.22104">
        <ele>362.5</ele>
        <time>2022-10-02T12:33:36Z</time>
      </trkpt>
      <trkpt lat="47.47909" lon="8.22106">
        <ele>362.5</ele>
        <time>2022-10-02T12:33:37Z</time>
      </trkpt>
      <trkpt lat="47.47905" lon="8.22108">
        <ele>362.5</ele>
        <time>2022-10-02T12:33:38Z</time>
      </trkpt>
      <trkpt lat="47.479" lon="8.2211">
        <ele>362.5</ele>
        <time>2022-10-02T12:33:39Z</time>
      </trkpt>
      <trkpt lat="47.47895" lon="8.22111">
        <ele>362.5</ele>
        <time>2022-10-02T12:33:40Z</time>
      </trkpt>
      <trkpt lat="47.47891" lon="8.22113">
        <ele>362.5</ele>
        <time>2022-10-02T12:33:41Z</time>
      </trkpt>
      <trkpt lat="47.47887" lon="8.22115">
        <ele>362.6</ele>
        <time>2022-10-02T12:33:42Z</time>
      </trkpt>
      <trkpt lat="47.47883" lon="8.22117">
        <ele>362.6</ele>
        <time>2022-10-02T12:33:43Z</time>
      </trkpt>
      <trkpt lat="47.47879" lon="8.22118">
        <ele>362.6</ele>
        <time>2022-10-02T12:33:44Z</time>
      </trkpt>
      <trkpt lat="47.47875" lon="8.22119">
        <ele>362.7</ele>
        <time>2022-10-02T12:33:45Z</time>
      </trkpt>
      <trkpt lat="47.47871" lon="8.22121">
        <ele>362.7</ele>
        <time>2022-10-02T12:33:46Z</time>
      </trkpt>
      <trkpt lat="47.47868" lon="8.22123">
        <ele>362.8</ele>
        <time>2022-10-02T12:33:47Z</time>
      </trkpt>
      <trkpt lat="47.47865" lon="8.22123">
        <ele>362.8</ele>
        <time>2022-10-02T12:33:48Z</time>
      </trkpt>
      <trkpt lat="47.47862" lon="8.22123">
        <ele>362.9</ele>
        <time>2022-10-02T12:33:49Z</time>
      </trkpt>
      <trkpt lat="47.4786" lon="8.22125">
        <ele>362.9</ele>
        <time>2022-10-02T12:33:50Z</time>
      </trkpt>
      <trkpt lat="47.47858" lon="8.22126">
        <ele>362.9</ele>
        <time>2022-10-02T12:33:51Z</time>
      </trkpt>
      <trkpt lat="47.47857" lon="8.22127">
        <ele>363</ele>
        <time>2022-10-02T12:33:52Z</time>
      </trkpt>
      <trkpt lat="47.47856" lon="8.22127">
        <ele>363</ele>
        <time>2022-10-02T12:33:53Z</time>
      </trkpt>
      <trkpt lat="47.47856" lon="8.22128">
        <ele>363</ele>
        <time>2022-10-02T12:33:54Z</time>
      </trkpt>
      <trkpt lat="47.47855" lon="8.22128">
        <ele>363</ele>
        <time>2022-10-02T12:33:55Z</time>
      </trkpt>
      <trkpt lat="47.47854" lon="8.22128">
        <ele>363</ele>
        <time>2022-10-02T12:33:56Z</time>
      </trkpt>
      <trkpt lat="47.47854" lon="8.22129">
        <ele>363</ele>
        <time>2022-10-02T12:33:57Z</time>
      </trkpt>
      <trkpt lat="47.47853" lon="8.22129">
        <ele>363</ele>
        <time>2022-10-02T12:33:58Z</time>
      </trkpt>
      <trkpt lat="47.47852" lon="8.2213">
        <ele>363</ele>
        <time>2022-10-02T12:33:59Z</time>
      </trkpt>
      <trkpt lat="47.47852" lon="8.2213">
        <ele>363</ele>
        <time>2022-10-02T12:34:00Z</time>
      </trkpt>
      <trkpt lat="47.47851" lon="8.22131">
        <ele>363.1</ele>
        <time>2022-10-02T12:34:01Z</time>
      </trkpt>
      <trkpt lat="47.4785" lon="8.22131">
        <ele>363.1</ele>
        <time>2022-10-02T12:34:02Z</time>
      </trkpt>
      <trkpt lat="47.4785" lon="8.22132">
        <ele>363.1</ele>
        <time>2022-10-02T12:34:34Z</time>
      </trkpt>
      <trkpt lat="47.47849" lon="8.22132">
        <ele>363.1</ele>
        <time>2022-10-02T12:34:35Z</time>
      </trkpt>
      <trkpt lat="47.47847" lon="8.22138">
        <ele>363.1</ele>
        <time>2022-10-02T12:34:36Z</time>
      </trkpt>
      <trkpt lat="47.47844" lon="8.22142">
        <ele>363.1</ele>
        <time>2022-10-02T12:34:37Z</time>
      </trkpt>
      <trkpt lat="47.47843" lon="8.22144">
        <ele>363.1</ele>
        <time>2022-10-02T12:34:38Z</time>
      </trkpt>
      <trkpt lat="47.4784" lon="8.22147">
        <ele>363.1</ele>
        <time>2022-10-02T12:34:39Z</time>
      </trkpt>
      <trkpt lat="47.47837" lon="8.2215">
        <ele>363.1</ele>
        <time>2022-10-02T12:34:40Z</time>
      </trkpt>
      <trkpt lat="47.47834" lon="8.22152">
        <ele>363.1</ele>
        <time>2022-10-02T12:34:41Z</time>
      </trkpt>
      <trkpt lat="47.47831" lon="8.22154">
        <ele>363.1</ele>
        <time>2022-10-02T12:34:42Z</time>
      </trkpt>
      <trkpt lat="47.47828" lon="8.22157">
        <ele>363.1</ele>
        <time>2022-10-02T12:34:43Z</time>
      </trkpt>
      <trkpt lat="47.47826" lon="8.22162">
        <ele>363</ele>
        <time>2022-10-02T12:34:44Z</time>
      </trkpt>
      <trkpt lat="47.47823" lon="8.22166">
        <ele>363</ele>
        <time>2022-10-02T12:34:45Z</time>
      </trkpt>
      <trkpt lat="47.4782" lon="8.2217">
        <ele>363</ele>
        <time>2022-10-02T12:34:46Z</time>
      </trkpt>
      <trkpt lat="47.47818" lon="8.22175">
        <ele>363</ele>
        <time>2022-10-02T12:34:47Z</time>
      </trkpt>
      <trkpt lat="47.47816" lon="8.2218">
        <ele>363</ele>
        <time>2022-10-02T12:34:48Z</time>
      </trkpt>
      <trkpt lat="47.47812" lon="8.22184">
        <ele>363</ele>
        <time>2022-10-02T12:34:49Z</time>
      </trkpt>
      <trkpt lat="47.4781" lon="8.2219">
        <ele>363</ele>
        <time>2022-10-02T12:34:50Z</time>
      </trkpt>
      <trkpt lat="47.47807" lon="8.22195">
        <ele>362.9</ele>
        <time>2022-10-02T12:34:51Z</time>
      </trkpt>
      <trkpt lat="47.47806" lon="8.222">
        <ele>362.9</ele>
        <time>2022-10-02T12:34:52Z</time>
      </trkpt>
      <trkpt lat="47.47802" lon="8.22206">
        <ele>362.9</ele>
        <time>2022-10-02T12:34:53Z</time>
      </trkpt>
      <trkpt lat="47.47799" lon="8.22213">
        <ele>362.8</ele>
        <time>2022-10-02T12:34:55Z</time>
      </trkpt>
      <trkpt lat="47.47797" lon="8.22219">
        <ele>362.8</ele>
        <time>2022-10-02T12:34:56Z</time>
      </trkpt>
      <trkpt lat="47.47795" lon="8.22225">
        <ele>362.8</ele>
        <time>2022-10-02T12:34:57Z</time>
      </trkpt>
      <trkpt lat="47.47793" lon="8.22232">
        <ele>362.7</ele>
        <time>2022-10-02T12:34:58Z</time>
      </trkpt>
      <trkpt lat="47.47791" lon="8.22238">
        <ele>362.7</ele>
        <time>2022-10-02T12:34:59Z</time>
      </trkpt>
      <trkpt lat="47.47789" lon="8.22245">
        <ele>362.6</ele>
        <time>2022-10-02T12:35:00Z</time>
      </trkpt>
      <trkpt lat="47.47786" lon="8.22252">
        <ele>362.6</ele>
        <time>2022-10-02T12:35:01Z</time>
      </trkpt>
      <trkpt lat="47.47784" lon="8.22259">
        <ele>362.5</ele>
        <time>2022-10-02T12:35:02Z</time>
      </trkpt>
      <trkpt lat="47.47781" lon="8.22266">
        <ele>362.4</ele>
        <time>2022-10-02T12:35:03Z</time>
      </trkpt>
      <trkpt lat="47.47778" lon="8.22273">
        <ele>362.4</ele>
        <time>2022-10-02T12:35:04Z</time>
      </trkpt>
      <trkpt lat="47.47776" lon="8.22281">
        <ele>362.3</ele>
        <time>2022-10-02T12:35:05Z</time>
      </trkpt>
      <trkpt lat="47.47773" lon="8.22288">
        <ele>362.3</ele>
        <time>2022-10-02T12:35:06Z</time>
      </trkpt>
      <trkpt lat="47.4777" lon="8.22296">
        <ele>362.2</ele>
        <time>2022-10-02T12:35:07Z</time>
      </trkpt>
      <trkpt lat="47.47767" lon="8.22304">
        <ele>362.1</ele>
        <time>2022-10-02T12:35:08Z</time>
      </trkpt>
      <trkpt lat="47.47764" lon="8.22311">
        <ele>362</ele>
        <time>2022-10-02T12:35:09Z</time>
      </trkpt>
      <trkpt lat="47.4776" lon="8.22318">
        <ele>362</ele>
        <time>2022-10-02T12:35:10Z</time>
      </trkpt>
      <trkpt lat="47.47756" lon="8.22324">
        <ele>361.9</ele>
        <time>2022-10-02T12:35:11Z</time>
      </trkpt>
      <trkpt lat="47.47752" lon="8.22331">
        <ele>361.8</ele>
        <time>2022-10-02T12:35:12Z</time>
      </trkpt>
      <trkpt lat="47.47749" lon="8.22337">
        <ele>361.8</ele>
        <time>2022-10-02T12:35:13Z</time>
      </trkpt>
      <trkpt lat="47.47744" lon="8.22343">
        <ele>361.8</ele>
        <time>2022-10-02T12:35:14Z</time>
      </trkpt>
      <trkpt lat="47.47739" lon="8.22349">
        <ele>361.8</ele>
        <time>2022-10-02T12:35:15Z</time>
      </trkpt>
      <trkpt lat="47.47735" lon="8.22355">
        <ele>361.8</ele>
        <time>2022-10-02T12:35:16Z</time>
      </trkpt>
      <trkpt lat="47.4773" lon="8.22359">
        <ele>361.7</ele>
        <time>2022-10-02T12:35:17Z</time>
      </trkpt>
      <trkpt lat="47.47725" lon="8.22364">
        <ele>361.7</ele>
        <time>2022-10-02T12:35:18Z</time>
      </trkpt>
      <trkpt lat="47.4772" lon="8.22368">
        <ele>361.7</ele>
        <time>2022-10-02T12:35:19Z</time>
      </trkpt>
      <trkpt lat="47.47715" lon="8.22372">
        <ele>361.7</ele>
        <time>2022-10-02T12:35:20Z</time>
      </trkpt>
      <trkpt lat="47.4771" lon="8.22375">
        <ele>361.7</ele>
        <time>2022-10-02T12:35:21Z</time>
      </trkpt>
      <trkpt lat="47.47705" lon="8.22379">
        <ele>361.7</ele>
        <time>2022-10-02T12:35:22Z</time>
      </trkpt>
      <trkpt lat="47.47699" lon="8.22382">
        <ele>361.7</ele>
        <time>2022-10-02T12:35:23Z</time>
      </trkpt>
      <trkpt lat="47.47694" lon="8.22385">
        <ele>361.7</ele>
        <time>2022-10-02T12:35:24Z</time>
      </trkpt>
      <trkpt lat="47.47689" lon="8.22388">
        <ele>361.7</ele>
        <time>2022-10-02T12:35:25Z</time>
      </trkpt>
      <trkpt lat="47.47683" lon="8.22391">
        <ele>361.7</ele>
        <time>2022-10-02T12:35:26Z</time>
      </trkpt>
      <trkpt lat="47.47678" lon="8.22394">
        <ele>361.7</ele>
        <time>2022-10-02T12:35:27Z</time>
      </trkpt>
      <trkpt lat="47.47673" lon="8.22396">
        <ele>361.7</ele>
        <time>2022-10-02T12:35:28Z</time>
      </trkpt>
      <trkpt lat="47.47667" lon="8.22398">
        <ele>361.7</ele>
        <time>2022-10-02T12:35:29Z</time>
      </trkpt>
      <trkpt lat="47.47662" lon="8.224">
        <ele>361.7</ele>
        <time>2022-10-02T12:35:30Z</time>
      </trkpt>
      <trkpt lat="47.47657" lon="8.22402">
        <ele>361.7</ele>
        <time>2022-10-02T12:35:31Z</time>
      </trkpt>
      <trkpt lat="47.47652" lon="8.22403">
        <ele>361.7</ele>
        <time>2022-10-02T12:35:32Z</time>
      </trkpt>
      <trkpt lat="47.47647" lon="8.22406">
        <ele>361.7</ele>
        <time>2022-10-02T12:35:33Z</time>
      </trkpt>
      <trkpt lat="47.47636" lon="8.22409">
        <ele>361.7</ele>
        <time>2022-10-02T12:35:34Z</time>
      </trkpt>
      <trkpt lat="47.4763" lon="8.22411">
        <ele>361.7</ele>
        <time>2022-10-02T12:35:35Z</time>
      </trkpt>
      <trkpt lat="47.47625" lon="8.22412">
        <ele>361.7</ele>
        <time>2022-10-02T12:35:36Z</time>
      </trkpt>
      <trkpt lat="47.47619" lon="8.22413">
        <ele>361.8</ele>
        <time>2022-10-02T12:35:37Z</time>
      </trkpt>
      <trkpt lat="47.47615" lon="8.22416">
        <ele>361.8</ele>
        <time>2022-10-02T12:35:38Z</time>
      </trkpt>
      <trkpt lat="47.47609" lon="8.22417">
        <ele>361.8</ele>
        <time>2022-10-02T12:35:39Z</time>
      </trkpt>
      <trkpt lat="47.47604" lon="8.22419">
        <ele>361.8</ele>
        <time>2022-10-02T12:35:40Z</time>
      </trkpt>
      <trkpt lat="47.47599" lon="8.22421">
        <ele>361.9</ele>
        <time>2022-10-02T12:35:41Z</time>
      </trkpt>
      <trkpt lat="47.47594" lon="8.22423">
        <ele>361.9</ele>
        <time>2022-10-02T12:35:42Z</time>
      </trkpt>
      <trkpt lat="47.4759" lon="8.22424">
        <ele>361.9</ele>
        <time>2022-10-02T12:35:43Z</time>
      </trkpt>
      <trkpt lat="47.47587" lon="8.22422">
        <ele>361.9</ele>
        <time>2022-10-02T12:35:44Z</time>
      </trkpt>
      <trkpt lat="47.47584" lon="8.2242">
        <ele>362</ele>
        <time>2022-10-02T12:35:45Z</time>
      </trkpt>
      <trkpt lat="47.47583" lon="8.22419">
        <ele>362</ele>
        <time>2022-10-02T12:35:46Z</time>
      </trkpt>
      <trkpt lat="47.4758" lon="8.22417">
        <ele>362</ele>
        <time>2022-10-02T12:35:47Z</time>
      </trkpt>
      <trkpt lat="47.47579" lon="8.22417">
        <ele>362</ele>
        <time>2022-10-02T12:35:48Z</time>
      </trkpt>
      <trkpt lat="47.47576" lon="8.2242">
        <ele>362</ele>
        <time>2022-10-02T12:35:49Z</time>
      </trkpt>
      <trkpt lat="47.47575" lon="8.22421">
        <ele>362</ele>
        <time>2022-10-02T12:35:50Z</time>
      </trkpt>
      <trkpt lat="47.47573" lon="8.22424">
        <ele>362.1</ele>
        <time>2022-10-02T12:35:51Z</time>
      </trkpt>
      <trkpt lat="47.47572" lon="8.22425">
        <ele>362.1</ele>
        <time>2022-10-02T12:35:52Z</time>
      </trkpt>
      <trkpt lat="47.47569" lon="8.22428">
        <ele>362.1</ele>
        <time>2022-10-02T12:35:53Z</time>
      </trkpt>
      <trkpt lat="47.47568" lon="8.22428">
        <ele>362.1</ele>
        <time>2022-10-02T12:35:54Z</time>
      </trkpt>
      <trkpt lat="47.47565" lon="8.2243">
        <ele>362.1</ele>
        <time>2022-10-02T12:35:55Z</time>
      </trkpt>
      <trkpt lat="47.47563" lon="8.2243">
        <ele>362.1</ele>
        <time>2022-10-02T12:35:56Z</time>
      </trkpt>
      <trkpt lat="47.4756" lon="8.22431">
        <ele>362.1</ele>
        <time>2022-10-02T12:35:57Z</time>
      </trkpt>
      <trkpt lat="47.47557" lon="8.22432">
        <ele>362.1</ele>
        <time>2022-10-02T12:35:58Z</time>
      </trkpt>
      <trkpt lat="47.47554" lon="8.22433">
        <ele>362.2</ele>
        <time>2022-10-02T12:35:59Z</time>
      </trkpt>
      <trkpt lat="47.4755" lon="8.22434">
        <ele>362.2</ele>
        <time>2022-10-02T12:36:00Z</time>
      </trkpt>
      <trkpt lat="47.47547" lon="8.22436">
        <ele>362.2</ele>
        <time>2022-10-02T12:36:01Z</time>
      </trkpt>
      <trkpt lat="47.47543" lon="8.22437">
        <ele>362.2</ele>
        <time>2022-10-02T12:36:02Z</time>
      </trkpt>
      <trkpt lat="47.47539" lon="8.22437">
        <ele>362.3</ele>
        <time>2022-10-02T12:36:03Z</time>
      </trkpt>
      <trkpt lat="47.47536" lon="8.22439">
        <ele>362.3</ele>
        <time>2022-10-02T12:36:04Z</time>
      </trkpt>
      <trkpt lat="47.47532" lon="8.22441">
        <ele>362.3</ele>
        <time>2022-10-02T12:36:05Z</time>
      </trkpt>
      <trkpt lat="47.47529" lon="8.22443">
        <ele>362.3</ele>
        <time>2022-10-02T12:36:06Z</time>
      </trkpt>
      <trkpt lat="47.47525" lon="8.22445">
        <ele>362.3</ele>
        <time>2022-10-02T12:36:07Z</time>
      </trkpt>
      <trkpt lat="47.47521" lon="8.22446">
        <ele>362.3</ele>
        <time>2022-10-02T12:36:08Z</time>
      </trkpt>
      <trkpt lat="47.47518" lon="8.22448">
        <ele>362.4</ele>
        <time>2022-10-02T12:36:09Z</time>
      </trkpt>
      <trkpt lat="47.47513" lon="8.2245">
        <ele>362.4</ele>
        <time>2022-10-02T12:36:10Z</time>
      </trkpt>
      <trkpt lat="47.4751" lon="8.22452">
        <ele>362.4</ele>
        <time>2022-10-02T12:36:11Z</time>
      </trkpt>
      <trkpt lat="47.47506" lon="8.22454">
        <ele>362.4</ele>
        <time>2022-10-02T12:36:12Z</time>
      </trkpt>
      <trkpt lat="47.47502" lon="8.22456">
        <ele>362.4</ele>
        <time>2022-10-02T12:36:13Z</time>
      </trkpt>
      <trkpt lat="47.47498" lon="8.22459">
        <ele>362.5</ele>
        <time>2022-10-02T12:36:14Z</time>
      </trkpt>
      <trkpt lat="47.47495" lon="8.22461">
        <ele>362.5</ele>
        <time>2022-10-02T12:36:15Z</time>
      </trkpt>
      <trkpt lat="47.47491" lon="8.22463">
        <ele>362.5</ele>
        <time>2022-10-02T12:36:16Z</time>
      </trkpt>
      <trkpt lat="47.47488" lon="8.22465">
        <ele>362.5</ele>
        <time>2022-10-02T12:36:17Z</time>
      </trkpt>
      <trkpt lat="47.47484" lon="8.22467">
        <ele>362.5</ele>
        <time>2022-10-02T12:36:18Z</time>
      </trkpt>
      <trkpt lat="47.47481" lon="8.2247">
        <ele>362.5</ele>
        <time>2022-10-02T12:36:19Z</time>
      </trkpt>
      <trkpt lat="47.47477" lon="8.22472">
        <ele>362.6</ele>
        <time>2022-10-02T12:36:20Z</time>
      </trkpt>
      <trkpt lat="47.47473" lon="8.22474">
        <ele>362.6</ele>
        <time>2022-10-02T12:36:21Z</time>
      </trkpt>
      <trkpt lat="47.4747" lon="8.22477">
        <ele>362.6</ele>
        <time>2022-10-02T12:36:22Z</time>
      </trkpt>
      <trkpt lat="47.47465" lon="8.22478">
        <ele>362.6</ele>
        <time>2022-10-02T12:36:23Z</time>
      </trkpt>
      <trkpt lat="47.47462" lon="8.2248">
        <ele>362.7</ele>
        <time>2022-10-02T12:36:24Z</time>
      </trkpt>
      <trkpt lat="47.47458" lon="8.22483">
        <ele>362.7</ele>
        <time>2022-10-02T12:36:25Z</time>
      </trkpt>
      <trkpt lat="47.47455" lon="8.22486">
        <ele>362.7</ele>
        <time>2022-10-02T12:36:26Z</time>
      </trkpt>
      <trkpt lat="47.47451" lon="8.22489">
        <ele>362.8</ele>
        <time>2022-10-02T12:36:27Z</time>
      </trkpt>
      <trkpt lat="47.47447" lon="8.22491">
        <ele>362.8</ele>
        <time>2022-10-02T12:36:28Z</time>
      </trkpt>
      <trkpt lat="47.47443" lon="8.22493">
        <ele>362.8</ele>
        <time>2022-10-02T12:36:29Z</time>
      </trkpt>
      <trkpt lat="47.4744" lon="8.22498">
        <ele>362.9</ele>
        <time>2022-10-02T12:36:30Z</time>
      </trkpt>
      <trkpt lat="47.47436" lon="8.225">
        <ele>362.9</ele>
        <time>2022-10-02T12:36:31Z</time>
      </trkpt>
      <trkpt lat="47.47432" lon="8.22503">
        <ele>362.9</ele>
        <time>2022-10-02T12:36:32Z</time>
      </trkpt>
      <trkpt lat="47.47428" lon="8.22506">
        <ele>363</ele>
        <time>2022-10-02T12:36:33Z</time>
      </trkpt>
      <trkpt lat="47.47424" lon="8.22509">
        <ele>363</ele>
        <time>2022-10-02T12:36:34Z</time>
      </trkpt>
      <trkpt lat="47.4742" lon="8.22512">
        <ele>363</ele>
        <time>2022-10-02T12:36:35Z</time>
      </trkpt>
      <trkpt lat="47.47416" lon="8.22514">
        <ele>363</ele>
        <time>2022-10-02T12:36:36Z</time>
      </trkpt>
      <trkpt lat="47.47412" lon="8.22518">
        <ele>363.1</ele>
        <time>2022-10-02T12:36:37Z</time>
      </trkpt>
      <trkpt lat="47.47409" lon="8.22521">
        <ele>363.1</ele>
        <time>2022-10-02T12:36:38Z</time>
      </trkpt>
      <trkpt lat="47.47405" lon="8.22524">
        <ele>363.1</ele>
        <time>2022-10-02T12:36:39Z</time>
      </trkpt>
      <trkpt lat="47.47402" lon="8.22527">
        <ele>363.1</ele>
        <time>2022-10-02T12:36:40Z</time>
      </trkpt>
      <trkpt lat="47.47399" lon="8.22531">
        <ele>363.1</ele>
        <time>2022-10-02T12:36:41Z</time>
      </trkpt>
      <trkpt lat="47.47395" lon="8.22534">
        <ele>363.2</ele>
        <time>2022-10-02T12:36:42Z</time>
      </trkpt>
      <trkpt lat="47.47392" lon="8.22537">
        <ele>363.2</ele>
        <time>2022-10-02T12:36:43Z</time>
      </trkpt>
      <trkpt lat="47.47389" lon="8.2254">
        <ele>363.2</ele>
        <time>2022-10-02T12:36:44Z</time>
      </trkpt>
      <trkpt lat="47.47385" lon="8.22542">
        <ele>363.2</ele>
        <time>2022-10-02T12:36:45Z</time>
      </trkpt>
      <trkpt lat="47.47382" lon="8.22545">
        <ele>363.2</ele>
        <time>2022-10-02T12:36:46Z</time>
      </trkpt>
      <trkpt lat="47.47378" lon="8.22549">
        <ele>363.3</ele>
        <time>2022-10-02T12:36:47Z</time>
      </trkpt>
      <trkpt lat="47.47375" lon="8.2255">
        <ele>363.3</ele>
        <time>2022-10-02T12:36:48Z</time>
      </trkpt>
      <trkpt lat="47.47372" lon="8.22554">
        <ele>363.3</ele>
        <time>2022-10-02T12:36:49Z</time>
      </trkpt>
      <trkpt lat="47.47368" lon="8.22556">
        <ele>363.3</ele>
        <time>2022-10-02T12:36:50Z</time>
      </trkpt>
      <trkpt lat="47.47365" lon="8.2256">
        <ele>363.3</ele>
        <time>2022-10-02T12:36:51Z</time>
      </trkpt>
      <trkpt lat="47.4736" lon="8.22562">
        <ele>363.3</ele>
        <time>2022-10-02T12:36:52Z</time>
      </trkpt>
      <trkpt lat="47.47358" lon="8.22565">
        <ele>363.3</ele>
        <time>2022-10-02T12:36:53Z</time>
      </trkpt>
      <trkpt lat="47.47354" lon="8.22568">
        <ele>363.3</ele>
        <time>2022-10-02T12:36:54Z</time>
      </trkpt>
      <trkpt lat="47.4735" lon="8.22572">
        <ele>363.3</ele>
        <time>2022-10-02T12:36:55Z</time>
      </trkpt>
      <trkpt lat="47.47347" lon="8.22574">
        <ele>363.4</ele>
        <time>2022-10-02T12:36:56Z</time>
      </trkpt>
      <trkpt lat="47.47343" lon="8.22577">
        <ele>363.4</ele>
        <time>2022-10-02T12:36:57Z</time>
      </trkpt>
      <trkpt lat="47.4734" lon="8.2258">
        <ele>363.4</ele>
        <time>2022-10-02T12:36:58Z</time>
      </trkpt>
      <trkpt lat="47.47337" lon="8.22584">
        <ele>363.4</ele>
        <time>2022-10-02T12:36:59Z</time>
      </trkpt>
      <trkpt lat="47.47333" lon="8.22587">
        <ele>363.5</ele>
        <time>2022-10-02T12:37:01Z</time>
      </trkpt>
      <trkpt lat="47.47329" lon="8.22591">
        <ele>363.5</ele>
        <time>2022-10-02T12:37:02Z</time>
      </trkpt>
      <trkpt lat="47.47326" lon="8.22595">
        <ele>363.5</ele>
        <time>2022-10-02T12:37:03Z</time>
      </trkpt>
      <trkpt lat="47.47322" lon="8.22596">
        <ele>363.6</ele>
        <time>2022-10-02T12:37:04Z</time>
      </trkpt>
      <trkpt lat="47.47318" lon="8.22601">
        <ele>363.6</ele>
        <time>2022-10-02T12:37:05Z</time>
      </trkpt>
      <trkpt lat="47.47315" lon="8.22603">
        <ele>363.6</ele>
        <time>2022-10-02T12:37:06Z</time>
      </trkpt>
      <trkpt lat="47.47311" lon="8.22606">
        <ele>363.6</ele>
        <time>2022-10-02T12:37:07Z</time>
      </trkpt>
      <trkpt lat="47.47307" lon="8.22608">
        <ele>363.7</ele>
        <time>2022-10-02T12:37:08Z</time>
      </trkpt>
      <trkpt lat="47.47302" lon="8.22611">
        <ele>363.7</ele>
        <time>2022-10-02T12:37:09Z</time>
      </trkpt>
      <trkpt lat="47.47298" lon="8.22616">
        <ele>363.7</ele>
        <time>2022-10-02T12:37:10Z</time>
      </trkpt>
      <trkpt lat="47.47294" lon="8.22618">
        <ele>363.8</ele>
        <time>2022-10-02T12:37:11Z</time>
      </trkpt>
      <trkpt lat="47.47292" lon="8.22621">
        <ele>363.8</ele>
        <time>2022-10-02T12:37:12Z</time>
      </trkpt>
      <trkpt lat="47.47288" lon="8.22624">
        <ele>363.8</ele>
        <time>2022-10-02T12:37:13Z</time>
      </trkpt>
      <trkpt lat="47.47285" lon="8.22627">
        <ele>363.9</ele>
        <time>2022-10-02T12:37:14Z</time>
      </trkpt>
      <trkpt lat="47.47282" lon="8.22631">
        <ele>363.9</ele>
        <time>2022-10-02T12:37:15Z</time>
      </trkpt>
      <trkpt lat="47.47278" lon="8.22634">
        <ele>363.9</ele>
        <time>2022-10-02T12:37:16Z</time>
      </trkpt>
      <trkpt lat="47.47274" lon="8.22638">
        <ele>364</ele>
        <time>2022-10-02T12:37:17Z</time>
      </trkpt>
      <trkpt lat="47.4727" lon="8.2264">
        <ele>364</ele>
        <time>2022-10-02T12:37:18Z</time>
      </trkpt>
      <trkpt lat="47.47266" lon="8.22645">
        <ele>364</ele>
        <time>2022-10-02T12:37:19Z</time>
      </trkpt>
      <trkpt lat="47.47264" lon="8.22647">
        <ele>364.1</ele>
        <time>2022-10-02T12:37:20Z</time>
      </trkpt>
      <trkpt lat="47.47261" lon="8.22649">
        <ele>364.1</ele>
        <time>2022-10-02T12:37:21Z</time>
      </trkpt>
      <trkpt lat="47.47257" lon="8.22653">
        <ele>364.1</ele>
        <time>2022-10-02T12:37:22Z</time>
      </trkpt>
      <trkpt lat="47.47253" lon="8.22659">
        <ele>364.2</ele>
        <time>2022-10-02T12:37:23Z</time>
      </trkpt>
      <trkpt lat="47.47249" lon="8.22662">
        <ele>364.2</ele>
        <time>2022-10-02T12:37:24Z</time>
      </trkpt>
      <trkpt lat="47.47245" lon="8.22667">
        <ele>364.2</ele>
        <time>2022-10-02T12:37:25Z</time>
      </trkpt>
      <trkpt lat="47.47242" lon="8.22669">
        <ele>364.2</ele>
        <time>2022-10-02T12:37:26Z</time>
      </trkpt>
      <trkpt lat="47.47237" lon="8.22674">
        <ele>364.3</ele>
        <time>2022-10-02T12:37:27Z</time>
      </trkpt>
      <trkpt lat="47.47235" lon="8.2268">
        <ele>364.3</ele>
        <time>2022-10-02T12:37:28Z</time>
      </trkpt>
      <trkpt lat="47.47231" lon="8.22683">
        <ele>364.3</ele>
        <time>2022-10-02T12:37:29Z</time>
      </trkpt>
      <trkpt lat="47.47226" lon="8.22688">
        <ele>364.4</ele>
        <time>2022-10-02T12:37:30Z</time>
      </trkpt>
      <trkpt lat="47.47222" lon="8.22692">
        <ele>364.4</ele>
        <time>2022-10-02T12:37:31Z</time>
      </trkpt>
      <trkpt lat="47.47219" lon="8.22697">
        <ele>364.4</ele>
        <time>2022-10-02T12:37:32Z</time>
      </trkpt>
      <trkpt lat="47.47215" lon="8.22701">
        <ele>364.5</ele>
        <time>2022-10-02T12:37:33Z</time>
      </trkpt>
      <trkpt lat="47.47211" lon="8.22705">
        <ele>364.5</ele>
        <time>2022-10-02T12:37:34Z</time>
      </trkpt>
      <trkpt lat="47.47207" lon="8.2271">
        <ele>364.5</ele>
        <time>2022-10-02T12:37:35Z</time>
      </trkpt>
      <trkpt lat="47.47203" lon="8.22715">
        <ele>364.5</ele>
        <time>2022-10-02T12:37:36Z</time>
      </trkpt>
      <trkpt lat="47.47198" lon="8.22719">
        <ele>364.6</ele>
        <time>2022-10-02T12:37:37Z</time>
      </trkpt>
      <trkpt lat="47.47195" lon="8.22724">
        <ele>364.6</ele>
        <time>2022-10-02T12:37:38Z</time>
      </trkpt>
      <trkpt lat="47.4719" lon="8.22729">
        <ele>364.6</ele>
        <time>2022-10-02T12:37:39Z</time>
      </trkpt>
      <trkpt lat="47.47186" lon="8.22734">
        <ele>364.6</ele>
        <time>2022-10-02T12:37:40Z</time>
      </trkpt>
      <trkpt lat="47.47182" lon="8.22738">
        <ele>364.7</ele>
        <time>2022-10-02T12:37:41Z</time>
      </trkpt>
      <trkpt lat="47.4718" lon="8.22743">
        <ele>364.7</ele>
        <time>2022-10-02T12:37:42Z</time>
      </trkpt>
      <trkpt lat="47.47175" lon="8.22748">
        <ele>364.7</ele>
        <time>2022-10-02T12:37:43Z</time>
      </trkpt>
      <trkpt lat="47.47171" lon="8.22753">
        <ele>364.7</ele>
        <time>2022-10-02T12:37:44Z</time>
      </trkpt>
      <trkpt lat="47.47168" lon="8.22758">
        <ele>364.8</ele>
        <time>2022-10-02T12:37:45Z</time>
      </trkpt>
      <trkpt lat="47.47164" lon="8.22762">
        <ele>364.8</ele>
        <time>2022-10-02T12:37:46Z</time>
      </trkpt>
      <trkpt lat="47.47157" lon="8.22771">
        <ele>364.8</ele>
        <time>2022-10-02T12:37:47Z</time>
      </trkpt>
      <trkpt lat="47.47153" lon="8.22776">
        <ele>364.9</ele>
        <time>2022-10-02T12:37:48Z</time>
      </trkpt>
      <trkpt lat="47.47149" lon="8.22781">
        <ele>364.9</ele>
        <time>2022-10-02T12:37:49Z</time>
      </trkpt>
      <trkpt lat="47.47146" lon="8.22786">
        <ele>364.9</ele>
        <time>2022-10-02T12:37:50Z</time>
      </trkpt>
      <trkpt lat="47.47141" lon="8.2279">
        <ele>365</ele>
        <time>2022-10-02T12:37:51Z</time>
      </trkpt>
      <trkpt lat="47.47138" lon="8.22795">
        <ele>365</ele>
        <time>2022-10-02T12:37:52Z</time>
      </trkpt>
      <trkpt lat="47.47134" lon="8.22799">
        <ele>365</ele>
        <time>2022-10-02T12:37:53Z</time>
      </trkpt>
      <trkpt lat="47.4713" lon="8.22803">
        <ele>365.1</ele>
        <time>2022-10-02T12:37:54Z</time>
      </trkpt>
      <trkpt lat="47.47126" lon="8.22808">
        <ele>365.1</ele>
        <time>2022-10-02T12:37:55Z</time>
      </trkpt>
      <trkpt lat="47.47122" lon="8.22812">
        <ele>365.1</ele>
        <time>2022-10-02T12:37:56Z</time>
      </trkpt>
      <trkpt lat="47.47119" lon="8.22817">
        <ele>365.2</ele>
        <time>2022-10-02T12:37:57Z</time>
      </trkpt>
      <trkpt lat="47.47115" lon="8.2282">
        <ele>365.2</ele>
        <time>2022-10-02T12:37:58Z</time>
      </trkpt>
      <trkpt lat="47.47111" lon="8.22824">
        <ele>365.2</ele>
        <time>2022-10-02T12:37:59Z</time>
      </trkpt>
      <trkpt lat="47.47107" lon="8.22828">
        <ele>365.2</ele>
        <time>2022-10-02T12:38:00Z</time>
      </trkpt>
      <trkpt lat="47.47103" lon="8.22832">
        <ele>365.2</ele>
        <time>2022-10-02T12:38:01Z</time>
      </trkpt>
      <trkpt lat="47.471" lon="8.22837">
        <ele>365.2</ele>
        <time>2022-10-02T12:38:02Z</time>
      </trkpt>
      <trkpt lat="47.47096" lon="8.22842">
        <ele>365.2</ele>
        <time>2022-10-02T12:38:03Z</time>
      </trkpt>
      <trkpt lat="47.47092" lon="8.22846">
        <ele>365.2</ele>
        <time>2022-10-02T12:38:04Z</time>
      </trkpt>
      <trkpt lat="47.47089" lon="8.22851">
        <ele>365.3</ele>
        <time>2022-10-02T12:38:05Z</time>
      </trkpt>
      <trkpt lat="47.47085" lon="8.22855">
        <ele>365.3</ele>
        <time>2022-10-02T12:38:06Z</time>
      </trkpt>
      <trkpt lat="47.47081" lon="8.22859">
        <ele>365.3</ele>
        <time>2022-10-02T12:38:07Z</time>
      </trkpt>
      <trkpt lat="47.47078" lon="8.22864">
        <ele>365.4</ele>
        <time>2022-10-02T12:38:08Z</time>
      </trkpt>
      <trkpt lat="47.47074" lon="8.22869">
        <ele>365.4</ele>
        <time>2022-10-02T12:38:09Z</time>
      </trkpt>
      <trkpt lat="47.47071" lon="8.22874">
        <ele>365.4</ele>
        <time>2022-10-02T12:38:10Z</time>
      </trkpt>
      <trkpt lat="47.47068" lon="8.22878">
        <ele>365.4</ele>
        <time>2022-10-02T12:38:11Z</time>
      </trkpt>
      <trkpt lat="47.47064" lon="8.22881">
        <ele>365.5</ele>
        <time>2022-10-02T12:38:12Z</time>
      </trkpt>
      <trkpt lat="47.4706" lon="8.22885">
        <ele>365.5</ele>
        <time>2022-10-02T12:38:13Z</time>
      </trkpt>
      <trkpt lat="47.47057" lon="8.22889">
        <ele>365.5</ele>
        <time>2022-10-02T12:38:14Z</time>
      </trkpt>
      <trkpt lat="47.47053" lon="8.22893">
        <ele>365.6</ele>
        <time>2022-10-02T12:38:15Z</time>
      </trkpt>
      <trkpt lat="47.47049" lon="8.22897">
        <ele>365.6</ele>
        <time>2022-10-02T12:38:16Z</time>
      </trkpt>
      <trkpt lat="47.47046" lon="8.22901">
        <ele>365.7</ele>
        <time>2022-10-02T12:38:17Z</time>
      </trkpt>
      <trkpt lat="47.47042" lon="8.22904">
        <ele>365.7</ele>
        <time>2022-10-02T12:38:18Z</time>
      </trkpt>
      <trkpt lat="47.47039" lon="8.22908">
        <ele>365.7</ele>
        <time>2022-10-02T12:38:19Z</time>
      </trkpt>
      <trkpt lat="47.47035" lon="8.2291">
        <ele>365.8</ele>
        <time>2022-10-02T12:38:20Z</time>
      </trkpt>
      <trkpt lat="47.4703" lon="8.22913">
        <ele>365.8</ele>
        <time>2022-10-02T12:38:21Z</time>
      </trkpt>
      <trkpt lat="47.47026" lon="8.22917">
        <ele>365.8</ele>
        <time>2022-10-02T12:38:22Z</time>
      </trkpt>
      <trkpt lat="47.47023" lon="8.22919">
        <ele>365.8</ele>
        <time>2022-10-02T12:38:23Z</time>
      </trkpt>
      <trkpt lat="47.47019" lon="8.22922">
        <ele>365.9</ele>
        <time>2022-10-02T12:38:24Z</time>
      </trkpt>
      <trkpt lat="47.47014" lon="8.22924">
        <ele>365.9</ele>
        <time>2022-10-02T12:38:25Z</time>
      </trkpt>
      <trkpt lat="47.4701" lon="8.22926">
        <ele>365.9</ele>
        <time>2022-10-02T12:38:26Z</time>
      </trkpt>
      <trkpt lat="47.47005" lon="8.22928">
        <ele>365.9</ele>
        <time>2022-10-02T12:38:27Z</time>
      </trkpt>
      <trkpt lat="47.47001" lon="8.22931">
        <ele>365.9</ele>
        <time>2022-10-02T12:38:28Z</time>
      </trkpt>
      <trkpt lat="47.46996" lon="8.22933">
        <ele>365.9</ele>
        <time>2022-10-02T12:38:29Z</time>
      </trkpt>
      <trkpt lat="47.46991" lon="8.22935">
        <ele>365.9</ele>
        <time>2022-10-02T12:38:30Z</time>
      </trkpt>
      <trkpt lat="47.46987" lon="8.22937">
        <ele>365.9</ele>
        <time>2022-10-02T12:38:31Z</time>
      </trkpt>
      <trkpt lat="47.46982" lon="8.22939">
        <ele>365.9</ele>
        <time>2022-10-02T12:38:32Z</time>
      </trkpt>
      <trkpt lat="47.46978" lon="8.22942">
        <ele>365.9</ele>
        <time>2022-10-02T12:38:33Z</time>
      </trkpt>
      <trkpt lat="47.46973" lon="8.22945">
        <ele>365.9</ele>
        <time>2022-10-02T12:38:34Z</time>
      </trkpt>
      <trkpt lat="47.46969" lon="8.22947">
        <ele>365.9</ele>
        <time>2022-10-02T12:38:35Z</time>
      </trkpt>
      <trkpt lat="47.46965" lon="8.22949">
        <ele>365.9</ele>
        <time>2022-10-02T12:38:36Z</time>
      </trkpt>
      <trkpt lat="47.4696" lon="8.22952">
        <ele>366</ele>
        <time>2022-10-02T12:38:37Z</time>
      </trkpt>
      <trkpt lat="47.46956" lon="8.22954">
        <ele>366</ele>
        <time>2022-10-02T12:38:38Z</time>
      </trkpt>
      <trkpt lat="47.46951" lon="8.22957">
        <ele>366</ele>
        <time>2022-10-02T12:38:39Z</time>
      </trkpt>
      <trkpt lat="47.46947" lon="8.22958">
        <ele>366</ele>
        <time>2022-10-02T12:38:40Z</time>
      </trkpt>
      <trkpt lat="47.46943" lon="8.22957">
        <ele>366</ele>
        <time>2022-10-02T12:38:41Z</time>
      </trkpt>
      <trkpt lat="47.46938" lon="8.22961">
        <ele>366</ele>
        <time>2022-10-02T12:38:42Z</time>
      </trkpt>
      <trkpt lat="47.46934" lon="8.22963">
        <ele>366</ele>
        <time>2022-10-02T12:38:43Z</time>
      </trkpt>
      <trkpt lat="47.46929" lon="8.22965">
        <ele>365.9</ele>
        <time>2022-10-02T12:38:44Z</time>
      </trkpt>
      <trkpt lat="47.46924" lon="8.22967">
        <ele>365.9</ele>
        <time>2022-10-02T12:38:45Z</time>
      </trkpt>
      <trkpt lat="47.46918" lon="8.22968">
        <ele>365.8</ele>
        <time>2022-10-02T12:38:46Z</time>
      </trkpt>
      <trkpt lat="47.46914" lon="8.22971">
        <ele>365.8</ele>
        <time>2022-10-02T12:38:47Z</time>
      </trkpt>
      <trkpt lat="47.4691" lon="8.22973">
        <ele>365.8</ele>
        <time>2022-10-02T12:38:48Z</time>
      </trkpt>
      <trkpt lat="47.46906" lon="8.22975">
        <ele>365.7</ele>
        <time>2022-10-02T12:38:49Z</time>
      </trkpt>
      <trkpt lat="47.46903" lon="8.22977">
        <ele>365.7</ele>
        <time>2022-10-02T12:38:50Z</time>
      </trkpt>
      <trkpt lat="47.46899" lon="8.22978">
        <ele>365.7</ele>
        <time>2022-10-02T12:38:51Z</time>
      </trkpt>
      <trkpt lat="47.46894" lon="8.22981">
        <ele>365.7</ele>
        <time>2022-10-02T12:38:52Z</time>
      </trkpt>
      <trkpt lat="47.46889" lon="8.22983">
        <ele>365.7</ele>
        <time>2022-10-02T12:38:53Z</time>
      </trkpt>
      <trkpt lat="47.46885" lon="8.22985">
        <ele>365.7</ele>
        <time>2022-10-02T12:38:54Z</time>
      </trkpt>
      <trkpt lat="47.46881" lon="8.22987">
        <ele>365.6</ele>
        <time>2022-10-02T12:38:55Z</time>
      </trkpt>
      <trkpt lat="47.46876" lon="8.2299">
        <ele>365.6</ele>
        <time>2022-10-02T12:38:56Z</time>
      </trkpt>
      <trkpt lat="47.46871" lon="8.22992">
        <ele>365.6</ele>
        <time>2022-10-02T12:38:57Z</time>
      </trkpt>
      <trkpt lat="47.46866" lon="8.22994">
        <ele>365.5</ele>
        <time>2022-10-02T12:38:58Z</time>
      </trkpt>
      <trkpt lat="47.46861" lon="8.22997">
        <ele>365.5</ele>
        <time>2022-10-02T12:38:59Z</time>
      </trkpt>
      <trkpt lat="47.46856" lon="8.23">
        <ele>365.4</ele>
        <time>2022-10-02T12:39:00Z</time>
      </trkpt>
      <trkpt lat="47.46851" lon="8.23002">
        <ele>365.3</ele>
        <time>2022-10-02T12:39:01Z</time>
      </trkpt>
      <trkpt lat="47.46846" lon="8.23004">
        <ele>365.2</ele>
        <time>2022-10-02T12:39:02Z</time>
      </trkpt>
      <trkpt lat="47.46841" lon="8.23007">
        <ele>365.1</ele>
        <time>2022-10-02T12:39:03Z</time>
      </trkpt>
      <trkpt lat="47.46836" lon="8.23009">
        <ele>365</ele>
        <time>2022-10-02T12:39:04Z</time>
      </trkpt>
      <trkpt lat="47.46831" lon="8.23011">
        <ele>364.9</ele>
        <time>2022-10-02T12:39:05Z</time>
      </trkpt>
      <trkpt lat="47.46825" lon="8.23014">
        <ele>364.8</ele>
        <time>2022-10-02T12:39:07Z</time>
      </trkpt>
      <trkpt lat="47.46819" lon="8.23016">
        <ele>364.7</ele>
        <time>2022-10-02T12:39:08Z</time>
      </trkpt>
      <trkpt lat="47.46814" lon="8.23018">
        <ele>364.6</ele>
        <time>2022-10-02T12:39:09Z</time>
      </trkpt>
      <trkpt lat="47.46808" lon="8.23019">
        <ele>364.5</ele>
        <time>2022-10-02T12:39:10Z</time>
      </trkpt>
      <trkpt lat="47.46802" lon="8.23021">
        <ele>364.4</ele>
        <time>2022-10-02T12:39:11Z</time>
      </trkpt>
      <trkpt lat="47.46797" lon="8.23022">
        <ele>364.4</ele>
        <time>2022-10-02T12:39:12Z</time>
      </trkpt>
      <trkpt lat="47.46791" lon="8.23023">
        <ele>364.3</ele>
        <time>2022-10-02T12:39:13Z</time>
      </trkpt>
      <trkpt lat="47.46785" lon="8.23023">
        <ele>364.2</ele>
        <time>2022-10-02T12:39:14Z</time>
      </trkpt>
      <trkpt lat="47.46779" lon="8.23024">
        <ele>364.1</ele>
        <time>2022-10-02T12:39:15Z</time>
      </trkpt>
      <trkpt lat="47.46773" lon="8.23024">
        <ele>363.9</ele>
        <time>2022-10-02T12:39:16Z</time>
      </trkpt>
      <trkpt lat="47.46768" lon="8.23025">
        <ele>363.8</ele>
        <time>2022-10-02T12:39:17Z</time>
      </trkpt>
      <trkpt lat="47.46762" lon="8.23024">
        <ele>363.7</ele>
        <time>2022-10-02T12:39:18Z</time>
      </trkpt>
      <trkpt lat="47.46757" lon="8.23023">
        <ele>363.5</ele>
        <time>2022-10-02T12:39:19Z</time>
      </trkpt>
      <trkpt lat="47.46752" lon="8.23022">
        <ele>363.4</ele>
        <time>2022-10-02T12:39:20Z</time>
      </trkpt>
      <trkpt lat="47.46747" lon="8.23022">
        <ele>363.3</ele>
        <time>2022-10-02T12:39:21Z</time>
      </trkpt>
      <trkpt lat="47.46742" lon="8.23022">
        <ele>363.1</ele>
        <time>2022-10-02T12:39:22Z</time>
      </trkpt>
      <trkpt lat="47.46736" lon="8.23021">
        <ele>363</ele>
        <time>2022-10-02T12:39:23Z</time>
      </trkpt>
      <trkpt lat="47.4673" lon="8.2302">
        <ele>362.9</ele>
        <time>2022-10-02T12:39:24Z</time>
      </trkpt>
      <trkpt lat="47.46726" lon="8.23019">
        <ele>362.8</ele>
        <time>2022-10-02T12:39:25Z</time>
      </trkpt>
      <trkpt lat="47.4672" lon="8.23018">
        <ele>362.7</ele>
        <time>2022-10-02T12:39:26Z</time>
      </trkpt>
      <trkpt lat="47.46714" lon="8.23016">
        <ele>362.6</ele>
        <time>2022-10-02T12:39:27Z</time>
      </trkpt>
      <trkpt lat="47.46709" lon="8.23014">
        <ele>362.5</ele>
        <time>2022-10-02T12:39:28Z</time>
      </trkpt>
      <trkpt lat="47.46704" lon="8.23013">
        <ele>362.4</ele>
        <time>2022-10-02T12:39:29Z</time>
      </trkpt>
      <trkpt lat="47.467" lon="8.23012">
        <ele>362.3</ele>
        <time>2022-10-02T12:39:30Z</time>
      </trkpt>
      <trkpt lat="47.46695" lon="8.23009">
        <ele>362.2</ele>
        <time>2022-10-02T12:39:31Z</time>
      </trkpt>
      <trkpt lat="47.4669" lon="8.23007">
        <ele>362.1</ele>
        <time>2022-10-02T12:39:32Z</time>
      </trkpt>
      <trkpt lat="47.46685" lon="8.23005">
        <ele>361.9</ele>
        <time>2022-10-02T12:39:33Z</time>
      </trkpt>
      <trkpt lat="47.4668" lon="8.23003">
        <ele>361.8</ele>
        <time>2022-10-02T12:39:34Z</time>
      </trkpt>
      <trkpt lat="47.46675" lon="8.23002">
        <ele>361.6</ele>
        <time>2022-10-02T12:39:35Z</time>
      </trkpt>
      <trkpt lat="47.46669" lon="8.22999">
        <ele>361.4</ele>
        <time>2022-10-02T12:39:36Z</time>
      </trkpt>
      <trkpt lat="47.46663" lon="8.22995">
        <ele>361.2</ele>
        <time>2022-10-02T12:39:37Z</time>
      </trkpt>
      <trkpt lat="47.46657" lon="8.22992">
        <ele>361</ele>
        <time>2022-10-02T12:39:38Z</time>
      </trkpt>
      <trkpt lat="47.46651" lon="8.22989">
        <ele>360.8</ele>
        <time>2022-10-02T12:39:39Z</time>
      </trkpt>
      <trkpt lat="47.46644" lon="8.22987">
        <ele>360.6</ele>
        <time>2022-10-02T12:39:40Z</time>
      </trkpt>
      <trkpt lat="47.46638" lon="8.22984">
        <ele>360.3</ele>
        <time>2022-10-02T12:39:41Z</time>
      </trkpt>
      <trkpt lat="47.46632" lon="8.2298">
        <ele>360.1</ele>
        <time>2022-10-02T12:39:42Z</time>
      </trkpt>
      <trkpt lat="47.46625" lon="8.22977">
        <ele>359.9</ele>
        <time>2022-10-02T12:39:43Z</time>
      </trkpt>
      <trkpt lat="47.46618" lon="8.22974">
        <ele>359.6</ele>
        <time>2022-10-02T12:39:44Z</time>
      </trkpt>
      <trkpt lat="47.46612" lon="8.22971">
        <ele>359.4</ele>
        <time>2022-10-02T12:39:45Z</time>
      </trkpt>
      <trkpt lat="47.46605" lon="8.22968">
        <ele>359.1</ele>
        <time>2022-10-02T12:39:46Z</time>
      </trkpt>
      <trkpt lat="47.46599" lon="8.22965">
        <ele>358.9</ele>
        <time>2022-10-02T12:39:47Z</time>
      </trkpt>
      <trkpt lat="47.46592" lon="8.22961">
        <ele>358.6</ele>
        <time>2022-10-02T12:39:48Z</time>
      </trkpt>
      <trkpt lat="47.46585" lon="8.22959">
        <ele>358.4</ele>
        <time>2022-10-02T12:39:49Z</time>
      </trkpt>
      <trkpt lat="47.46579" lon="8.22956">
        <ele>358.2</ele>
        <time>2022-10-02T12:39:50Z</time>
      </trkpt>
      <trkpt lat="47.46573" lon="8.22954">
        <ele>358</ele>
        <time>2022-10-02T12:39:51Z</time>
      </trkpt>
      <trkpt lat="47.46566" lon="8.2295">
        <ele>357.8</ele>
        <time>2022-10-02T12:39:52Z</time>
      </trkpt>
      <trkpt lat="47.4656" lon="8.22947">
        <ele>357.6</ele>
        <time>2022-10-02T12:39:53Z</time>
      </trkpt>
      <trkpt lat="47.46555" lon="8.22945">
        <ele>357.4</ele>
        <time>2022-10-02T12:39:54Z</time>
      </trkpt>
      <trkpt lat="47.46544" lon="8.22939">
        <ele>357.1</ele>
        <time>2022-10-02T12:39:55Z</time>
      </trkpt>
      <trkpt lat="47.46539" lon="8.22937">
        <ele>357</ele>
        <time>2022-10-02T12:39:56Z</time>
      </trkpt>
      <trkpt lat="47.46534" lon="8.22935">
        <ele>356.9</ele>
        <time>2022-10-02T12:39:57Z</time>
      </trkpt>
      <trkpt lat="47.46529" lon="8.22931">
        <ele>356.8</ele>
        <time>2022-10-02T12:39:58Z</time>
      </trkpt>
      <trkpt lat="47.46525" lon="8.22929">
        <ele>356.7</ele>
        <time>2022-10-02T12:39:59Z</time>
      </trkpt>
      <trkpt lat="47.4652" lon="8.22924">
        <ele>356.5</ele>
        <time>2022-10-02T12:40:00Z</time>
      </trkpt>
      <trkpt lat="47.46516" lon="8.2292">
        <ele>356.4</ele>
        <time>2022-10-02T12:40:01Z</time>
      </trkpt>
      <trkpt lat="47.46511" lon="8.22918">
        <ele>356.3</ele>
        <time>2022-10-02T12:40:02Z</time>
      </trkpt>
      <trkpt lat="47.46506" lon="8.22916">
        <ele>356.3</ele>
        <time>2022-10-02T12:40:03Z</time>
      </trkpt>
      <trkpt lat="47.46501" lon="8.22912">
        <ele>356.2</ele>
        <time>2022-10-02T12:40:04Z</time>
      </trkpt>
      <trkpt lat="47.46495" lon="8.22908">
        <ele>356.1</ele>
        <time>2022-10-02T12:40:05Z</time>
      </trkpt>
      <trkpt lat="47.4649" lon="8.22904">
        <ele>356</ele>
        <time>2022-10-02T12:40:06Z</time>
      </trkpt>
      <trkpt lat="47.46484" lon="8.229">
        <ele>355.9</ele>
        <time>2022-10-02T12:40:07Z</time>
      </trkpt>
      <trkpt lat="47.46479" lon="8.22896">
        <ele>355.9</ele>
        <time>2022-10-02T12:40:08Z</time>
      </trkpt>
      <trkpt lat="47.46474" lon="8.22891">
        <ele>355.8</ele>
        <time>2022-10-02T12:40:09Z</time>
      </trkpt>
      <trkpt lat="47.46468" lon="8.22887">
        <ele>355.8</ele>
        <time>2022-10-02T12:40:10Z</time>
      </trkpt>
      <trkpt lat="47.46463" lon="8.22883">
        <ele>355.8</ele>
        <time>2022-10-02T12:40:11Z</time>
      </trkpt>
      <trkpt lat="47.46458" lon="8.22878">
        <ele>355.7</ele>
        <time>2022-10-02T12:40:12Z</time>
      </trkpt>
      <trkpt lat="47.46452" lon="8.22874">
        <ele>355.7</ele>
        <time>2022-10-02T12:40:13Z</time>
      </trkpt>
      <trkpt lat="47.46448" lon="8.2287">
        <ele>355.8</ele>
        <time>2022-10-02T12:40:14Z</time>
      </trkpt>
      <trkpt lat="47.46443" lon="8.22867">
        <ele>355.8</ele>
        <time>2022-10-02T12:40:15Z</time>
      </trkpt>
      <trkpt lat="47.46439" lon="8.22861">
        <ele>355.8</ele>
        <time>2022-10-02T12:40:16Z</time>
      </trkpt>
      <trkpt lat="47.46433" lon="8.22858">
        <ele>355.8</ele>
        <time>2022-10-02T12:40:17Z</time>
      </trkpt>
      <trkpt lat="47.46428" lon="8.22854">
        <ele>355.9</ele>
        <time>2022-10-02T12:40:18Z</time>
      </trkpt>
      <trkpt lat="47.46423" lon="8.2285">
        <ele>355.9</ele>
        <time>2022-10-02T12:40:19Z</time>
      </trkpt>
      <trkpt lat="47.46418" lon="8.22845">
        <ele>355.9</ele>
        <time>2022-10-02T12:40:20Z</time>
      </trkpt>
      <trkpt lat="47.46413" lon="8.22843">
        <ele>356</ele>
        <time>2022-10-02T12:40:21Z</time>
      </trkpt>
      <trkpt lat="47.46408" lon="8.22839">
        <ele>356</ele>
        <time>2022-10-02T12:40:22Z</time>
      </trkpt>
      <trkpt lat="47.46403" lon="8.22835">
        <ele>356</ele>
        <time>2022-10-02T12:40:23Z</time>
      </trkpt>
      <trkpt lat="47.46399" lon="8.2283">
        <ele>356.1</ele>
        <time>2022-10-02T12:40:24Z</time>
      </trkpt>
      <trkpt lat="47.46394" lon="8.22827">
        <ele>356.1</ele>
        <time>2022-10-02T12:40:25Z</time>
      </trkpt>
      <trkpt lat="47.46389" lon="8.22823">
        <ele>356.2</ele>
        <time>2022-10-02T12:40:26Z</time>
      </trkpt>
      <trkpt lat="47.46384" lon="8.22819">
        <ele>356.3</ele>
        <time>2022-10-02T12:40:27Z</time>
      </trkpt>
      <trkpt lat="47.46379" lon="8.22815">
        <ele>356.3</ele>
        <time>2022-10-02T12:40:28Z</time>
      </trkpt>
      <trkpt lat="47.46375" lon="8.22812">
        <ele>356.4</ele>
        <time>2022-10-02T12:40:29Z</time>
      </trkpt>
      <trkpt lat="47.4637" lon="8.22809">
        <ele>356.3</ele>
        <time>2022-10-02T12:40:30Z</time>
      </trkpt>
      <trkpt lat="47.46365" lon="8.22805">
        <ele>356.4</ele>
        <time>2022-10-02T12:40:31Z</time>
      </trkpt>
      <trkpt lat="47.46361" lon="8.22802">
        <ele>356.4</ele>
        <time>2022-10-02T12:40:32Z</time>
      </trkpt>
      <trkpt lat="47.46357" lon="8.22799">
        <ele>356.5</ele>
        <time>2022-10-02T12:40:33Z</time>
      </trkpt>
      <trkpt lat="47.46353" lon="8.22796">
        <ele>356.5</ele>
        <time>2022-10-02T12:40:34Z</time>
      </trkpt>
      <trkpt lat="47.46348" lon="8.22792">
        <ele>356.5</ele>
        <time>2022-10-02T12:40:35Z</time>
      </trkpt>
      <trkpt lat="47.46344" lon="8.22789">
        <ele>356.6</ele>
        <time>2022-10-02T12:40:36Z</time>
      </trkpt>
      <trkpt lat="47.4634" lon="8.22786">
        <ele>356.6</ele>
        <time>2022-10-02T12:40:37Z</time>
      </trkpt>
      <trkpt lat="47.46335" lon="8.22783">
        <ele>356.7</ele>
        <time>2022-10-02T12:40:38Z</time>
      </trkpt>
      <trkpt lat="47.46331" lon="8.22779">
        <ele>356.7</ele>
        <time>2022-10-02T12:40:39Z</time>
      </trkpt>
      <trkpt lat="47.46327" lon="8.22775">
        <ele>356.8</ele>
        <time>2022-10-02T12:40:40Z</time>
      </trkpt>
      <trkpt lat="47.46323" lon="8.22772">
        <ele>356.8</ele>
        <time>2022-10-02T12:40:41Z</time>
      </trkpt>
      <trkpt lat="47.46318" lon="8.22768">
        <ele>356.9</ele>
        <time>2022-10-02T12:40:42Z</time>
      </trkpt>
      <trkpt lat="47.46315" lon="8.22765">
        <ele>356.9</ele>
        <time>2022-10-02T12:40:43Z</time>
      </trkpt>
      <trkpt lat="47.46311" lon="8.22762">
        <ele>356.9</ele>
        <time>2022-10-02T12:40:44Z</time>
      </trkpt>
      <trkpt lat="47.46307" lon="8.22756">
        <ele>357</ele>
        <time>2022-10-02T12:40:45Z</time>
      </trkpt>
      <trkpt lat="47.46305" lon="8.22751">
        <ele>357</ele>
        <time>2022-10-02T12:40:46Z</time>
      </trkpt>
      <trkpt lat="47.46301" lon="8.22747">
        <ele>357.1</ele>
        <time>2022-10-02T12:40:47Z</time>
      </trkpt>
      <trkpt lat="47.46298" lon="8.22742">
        <ele>357.1</ele>
        <time>2022-10-02T12:40:48Z</time>
      </trkpt>
      <trkpt lat="47.46294" lon="8.22737">
        <ele>357.1</ele>
        <time>2022-10-02T12:40:49Z</time>
      </trkpt>
      <trkpt lat="47.46291" lon="8.22732">
        <ele>357.2</ele>
        <time>2022-10-02T12:40:50Z</time>
      </trkpt>
      <trkpt lat="47.46288" lon="8.22726">
        <ele>357.2</ele>
        <time>2022-10-02T12:40:51Z</time>
      </trkpt>
      <trkpt lat="47.46285" lon="8.2272">
        <ele>357.2</ele>
        <time>2022-10-02T12:40:52Z</time>
      </trkpt>
      <trkpt lat="47.46283" lon="8.22715">
        <ele>357.2</ele>
        <time>2022-10-02T12:40:53Z</time>
      </trkpt>
      <trkpt lat="47.4628" lon="8.2271">
        <ele>357.2</ele>
        <time>2022-10-02T12:40:54Z</time>
      </trkpt>
      <trkpt lat="47.46277" lon="8.22704">
        <ele>357.3</ele>
        <time>2022-10-02T12:40:55Z</time>
      </trkpt>
      <trkpt lat="47.46274" lon="8.22699">
        <ele>357.3</ele>
        <time>2022-10-02T12:40:56Z</time>
      </trkpt>
      <trkpt lat="47.46273" lon="8.22693">
        <ele>357.4</ele>
        <time>2022-10-02T12:40:57Z</time>
      </trkpt>
      <trkpt lat="47.46272" lon="8.22687">
        <ele>357.5</ele>
        <time>2022-10-02T12:40:58Z</time>
      </trkpt>
      <trkpt lat="47.46268" lon="8.22684">
        <ele>357.6</ele>
        <time>2022-10-02T12:40:59Z</time>
      </trkpt>
      <trkpt lat="47.46265" lon="8.22679">
        <ele>357.6</ele>
        <time>2022-10-02T12:41:00Z</time>
      </trkpt>
      <trkpt lat="47.46262" lon="8.22675">
        <ele>357.6</ele>
        <time>2022-10-02T12:41:01Z</time>
      </trkpt>
      <trkpt lat="47.46261" lon="8.22669">
        <ele>357.7</ele>
        <time>2022-10-02T12:41:02Z</time>
      </trkpt>
      <trkpt lat="47.46258" lon="8.22664">
        <ele>357.7</ele>
        <time>2022-10-02T12:41:03Z</time>
      </trkpt>
      <trkpt lat="47.46255" lon="8.22659">
        <ele>357.8</ele>
        <time>2022-10-02T12:41:04Z</time>
      </trkpt>
      <trkpt lat="47.46253" lon="8.22655">
        <ele>357.9</ele>
        <time>2022-10-02T12:41:05Z</time>
      </trkpt>
      <trkpt lat="47.4625" lon="8.22651">
        <ele>358</ele>
        <time>2022-10-02T12:41:06Z</time>
      </trkpt>
      <trkpt lat="47.46247" lon="8.22646">
        <ele>358.1</ele>
        <time>2022-10-02T12:41:07Z</time>
      </trkpt>
      <trkpt lat="47.46245" lon="8.22641">
        <ele>358.1</ele>
        <time>2022-10-02T12:41:08Z</time>
      </trkpt>
      <trkpt lat="47.46242" lon="8.22637">
        <ele>358.2</ele>
        <time>2022-10-02T12:41:09Z</time>
      </trkpt>
      <trkpt lat="47.46239" lon="8.22633">
        <ele>358.2</ele>
        <time>2022-10-02T12:41:10Z</time>
      </trkpt>
      <trkpt lat="47.46236" lon="8.22629">
        <ele>358.3</ele>
        <time>2022-10-02T12:41:11Z</time>
      </trkpt>
      <trkpt lat="47.46232" lon="8.22625">
        <ele>358.4</ele>
        <time>2022-10-02T12:41:13Z</time>
      </trkpt>
      <trkpt lat="47.46229" lon="8.22622">
        <ele>358.5</ele>
        <time>2022-10-02T12:41:14Z</time>
      </trkpt>
      <trkpt lat="47.46226" lon="8.22619">
        <ele>358.5</ele>
        <time>2022-10-02T12:41:15Z</time>
      </trkpt>
      <trkpt lat="47.46222" lon="8.22615">
        <ele>358.6</ele>
        <time>2022-10-02T12:41:16Z</time>
      </trkpt>
      <trkpt lat="47.46219" lon="8.22612">
        <ele>358.7</ele>
        <time>2022-10-02T12:41:17Z</time>
      </trkpt>
      <trkpt lat="47.46215" lon="8.22609">
        <ele>358.8</ele>
        <time>2022-10-02T12:41:18Z</time>
      </trkpt>
      <trkpt lat="47.46212" lon="8.22608">
        <ele>358.9</ele>
        <time>2022-10-02T12:41:19Z</time>
      </trkpt>
      <trkpt lat="47.46209" lon="8.22605">
        <ele>358.9</ele>
        <time>2022-10-02T12:41:20Z</time>
      </trkpt>
      <trkpt lat="47.46206" lon="8.22603">
        <ele>359</ele>
        <time>2022-10-02T12:41:21Z</time>
      </trkpt>
      <trkpt lat="47.46202" lon="8.22601">
        <ele>359.1</ele>
        <time>2022-10-02T12:41:22Z</time>
      </trkpt>
      <trkpt lat="47.46198" lon="8.22601">
        <ele>359.2</ele>
        <time>2022-10-02T12:41:23Z</time>
      </trkpt>
      <trkpt lat="47.46195" lon="8.22599">
        <ele>359.3</ele>
        <time>2022-10-02T12:41:24Z</time>
      </trkpt>
      <trkpt lat="47.46192" lon="8.22598">
        <ele>359.3</ele>
        <time>2022-10-02T12:41:25Z</time>
      </trkpt>
      <trkpt lat="47.46188" lon="8.22597">
        <ele>359.4</ele>
        <time>2022-10-02T12:41:26Z</time>
      </trkpt>
      <trkpt lat="47.46184" lon="8.22596">
        <ele>359.4</ele>
        <time>2022-10-02T12:41:27Z</time>
      </trkpt>
      <trkpt lat="47.4618" lon="8.22596">
        <ele>359.5</ele>
        <time>2022-10-02T12:41:28Z</time>
      </trkpt>
      <trkpt lat="47.46177" lon="8.22594">
        <ele>359.5</ele>
        <time>2022-10-02T12:41:29Z</time>
      </trkpt>
      <trkpt lat="47.46174" lon="8.22593">
        <ele>359.6</ele>
        <time>2022-10-02T12:41:30Z</time>
      </trkpt>
      <trkpt lat="47.46171" lon="8.22592">
        <ele>359.7</ele>
        <time>2022-10-02T12:41:31Z</time>
      </trkpt>
      <trkpt lat="47.46167" lon="8.22591">
        <ele>359.7</ele>
        <time>2022-10-02T12:41:32Z</time>
      </trkpt>
      <trkpt lat="47.46163" lon="8.2259">
        <ele>359.8</ele>
        <time>2022-10-02T12:41:33Z</time>
      </trkpt>
      <trkpt lat="47.46159" lon="8.22589">
        <ele>359.8</ele>
        <time>2022-10-02T12:41:34Z</time>
      </trkpt>
      <trkpt lat="47.46157" lon="8.22587">
        <ele>359.8</ele>
        <time>2022-10-02T12:41:35Z</time>
      </trkpt>
      <trkpt lat="47.46152" lon="8.22588">
        <ele>359.9</ele>
        <time>2022-10-02T12:41:36Z</time>
      </trkpt>
      <trkpt lat="47.46148" lon="8.22587">
        <ele>359.9</ele>
        <time>2022-10-02T12:41:37Z</time>
      </trkpt>
      <trkpt lat="47.46145" lon="8.22585">
        <ele>360</ele>
        <time>2022-10-02T12:41:38Z</time>
      </trkpt>
      <trkpt lat="47.4614" lon="8.22585">
        <ele>360.1</ele>
        <time>2022-10-02T12:41:39Z</time>
      </trkpt>
      <trkpt lat="47.46137" lon="8.22583">
        <ele>360.1</ele>
        <time>2022-10-02T12:41:40Z</time>
      </trkpt>
      <trkpt lat="47.46133" lon="8.22582">
        <ele>360.2</ele>
        <time>2022-10-02T12:41:41Z</time>
      </trkpt>
      <trkpt lat="47.46129" lon="8.22581">
        <ele>360.2</ele>
        <time>2022-10-02T12:41:42Z</time>
      </trkpt>
      <trkpt lat="47.46126" lon="8.2258">
        <ele>360.3</ele>
        <time>2022-10-02T12:41:43Z</time>
      </trkpt>
      <trkpt lat="47.46122" lon="8.22579">
        <ele>360.3</ele>
        <time>2022-10-02T12:41:44Z</time>
      </trkpt>
      <trkpt lat="47.46118" lon="8.22578">
        <ele>360.4</ele>
        <time>2022-10-02T12:41:45Z</time>
      </trkpt>
      <trkpt lat="47.46114" lon="8.22577">
        <ele>360.4</ele>
        <time>2022-10-02T12:41:46Z</time>
      </trkpt>
      <trkpt lat="47.46111" lon="8.22575">
        <ele>360.4</ele>
        <time>2022-10-02T12:41:47Z</time>
      </trkpt>
      <trkpt lat="47.46108" lon="8.22573">
        <ele>360.4</ele>
        <time>2022-10-02T12:41:48Z</time>
      </trkpt>
      <trkpt lat="47.46104" lon="8.22571">
        <ele>360.4</ele>
        <time>2022-10-02T12:41:49Z</time>
      </trkpt>
      <trkpt lat="47.461" lon="8.22569">
        <ele>360.4</ele>
        <time>2022-10-02T12:41:50Z</time>
      </trkpt>
      <trkpt lat="47.46097" lon="8.22566">
        <ele>360.4</ele>
        <time>2022-10-02T12:41:51Z</time>
      </trkpt>
      <trkpt lat="47.46093" lon="8.22565">
        <ele>360.4</ele>
        <time>2022-10-02T12:41:52Z</time>
      </trkpt>
      <trkpt lat="47.46089" lon="8.22563">
        <ele>360.4</ele>
        <time>2022-10-02T12:41:53Z</time>
      </trkpt>
      <trkpt lat="47.46085" lon="8.22563">
        <ele>360.4</ele>
        <time>2022-10-02T12:41:54Z</time>
      </trkpt>
      <trkpt lat="47.46082" lon="8.2256">
        <ele>360.4</ele>
        <time>2022-10-02T12:41:55Z</time>
      </trkpt>
      <trkpt lat="47.46079" lon="8.22557">
        <ele>360.3</ele>
        <time>2022-10-02T12:41:56Z</time>
      </trkpt>
      <trkpt lat="47.46075" lon="8.22555">
        <ele>360.3</ele>
        <time>2022-10-02T12:41:57Z</time>
      </trkpt>
      <trkpt lat="47.46072" lon="8.22552">
        <ele>360.3</ele>
        <time>2022-10-02T12:41:58Z</time>
      </trkpt>
      <trkpt lat="47.46069" lon="8.2255">
        <ele>360.3</ele>
        <time>2022-10-02T12:41:59Z</time>
      </trkpt>
      <trkpt lat="47.46065" lon="8.2255">
        <ele>360.2</ele>
        <time>2022-10-02T12:42:00Z</time>
      </trkpt>
      <trkpt lat="47.46061" lon="8.22549">
        <ele>360.2</ele>
        <time>2022-10-02T12:42:01Z</time>
      </trkpt>
      <trkpt lat="47.46056" lon="8.22547">
        <ele>360.2</ele>
        <time>2022-10-02T12:42:02Z</time>
      </trkpt>
      <trkpt lat="47.46052" lon="8.22548">
        <ele>360.1</ele>
        <time>2022-10-02T12:42:03Z</time>
      </trkpt>
      <trkpt lat="47.46047" lon="8.22546">
        <ele>360.1</ele>
        <time>2022-10-02T12:42:04Z</time>
      </trkpt>
      <trkpt lat="47.46042" lon="8.22547">
        <ele>360.1</ele>
        <time>2022-10-02T12:42:05Z</time>
      </trkpt>
      <trkpt lat="47.46037" lon="8.22549">
        <ele>360</ele>
        <time>2022-10-02T12:42:06Z</time>
      </trkpt>
      <trkpt lat="47.46032" lon="8.22551">
        <ele>360</ele>
        <time>2022-10-02T12:42:07Z</time>
      </trkpt>
      <trkpt lat="47.46029" lon="8.22555">
        <ele>360</ele>
        <time>2022-10-02T12:42:08Z</time>
      </trkpt>
      <trkpt lat="47.46024" lon="8.22561">
        <ele>360</ele>
        <time>2022-10-02T12:42:09Z</time>
      </trkpt>
      <trkpt lat="47.4602" lon="8.22565">
        <ele>360</ele>
        <time>2022-10-02T12:42:10Z</time>
      </trkpt>
      <trkpt lat="47.46016" lon="8.2257">
        <ele>360</ele>
        <time>2022-10-02T12:42:11Z</time>
      </trkpt>
      <trkpt lat="47.46012" lon="8.22574">
        <ele>360</ele>
        <time>2022-10-02T12:42:12Z</time>
      </trkpt>
      <trkpt lat="47.4601" lon="8.22579">
        <ele>360.1</ele>
        <time>2022-10-02T12:42:13Z</time>
      </trkpt>
      <trkpt lat="47.46006" lon="8.22582">
        <ele>360.1</ele>
        <time>2022-10-02T12:42:14Z</time>
      </trkpt>
      <trkpt lat="47.46003" lon="8.22586">
        <ele>360.2</ele>
        <time>2022-10-02T12:42:15Z</time>
      </trkpt>
      <trkpt lat="47.45997" lon="8.22594">
        <ele>360.3</ele>
        <time>2022-10-02T12:42:16Z</time>
      </trkpt>
      <trkpt lat="47.45994" lon="8.22597">
        <ele>360.3</ele>
        <time>2022-10-02T12:42:17Z</time>
      </trkpt>
      <trkpt lat="47.45992" lon="8.22601">
        <ele>360.4</ele>
        <time>2022-10-02T12:42:18Z</time>
      </trkpt>
      <trkpt lat="47.45988" lon="8.22605">
        <ele>360.5</ele>
        <time>2022-10-02T12:42:19Z</time>
      </trkpt>
      <trkpt lat="47.45984" lon="8.22608">
        <ele>360.5</ele>
        <time>2022-10-02T12:42:20Z</time>
      </trkpt>
      <trkpt lat="47.45983" lon="8.22609">
        <ele>360.5</ele>
        <time>2022-10-02T12:42:21Z</time>
      </trkpt>
      <trkpt lat="47.45979" lon="8.22612">
        <ele>360.6</ele>
        <time>2022-10-02T12:42:22Z</time>
      </trkpt>
      <trkpt lat="47.45976" lon="8.22615">
        <ele>360.6</ele>
        <time>2022-10-02T12:42:23Z</time>
      </trkpt>
      <trkpt lat="47.45972" lon="8.22617">
        <ele>360.6</ele>
        <time>2022-10-02T12:42:24Z</time>
      </trkpt>
      <trkpt lat="47.45968" lon="8.22619">
        <ele>360.6</ele>
        <time>2022-10-02T12:42:25Z</time>
      </trkpt>
      <trkpt lat="47.45964" lon="8.2262">
        <ele>360.7</ele>
        <time>2022-10-02T12:42:26Z</time>
      </trkpt>
      <trkpt lat="47.45961" lon="8.22623">
        <ele>360.7</ele>
        <time>2022-10-02T12:42:27Z</time>
      </trkpt>
      <trkpt lat="47.45958" lon="8.22625">
        <ele>360.7</ele>
        <time>2022-10-02T12:42:28Z</time>
      </trkpt>
      <trkpt lat="47.45954" lon="8.22627">
        <ele>360.7</ele>
        <time>2022-10-02T12:42:29Z</time>
      </trkpt>
      <trkpt lat="47.4595" lon="8.22628">
        <ele>360.8</ele>
        <time>2022-10-02T12:42:30Z</time>
      </trkpt>
      <trkpt lat="47.45946" lon="8.2263">
        <ele>360.8</ele>
        <time>2022-10-02T12:42:31Z</time>
      </trkpt>
      <trkpt lat="47.45942" lon="8.22631">
        <ele>360.8</ele>
        <time>2022-10-02T12:42:32Z</time>
      </trkpt>
      <trkpt lat="47.45938" lon="8.22634">
        <ele>360.8</ele>
        <time>2022-10-02T12:42:33Z</time>
      </trkpt>
      <trkpt lat="47.45934" lon="8.22635">
        <ele>360.8</ele>
        <time>2022-10-02T12:42:34Z</time>
      </trkpt>
      <trkpt lat="47.4593" lon="8.22639">
        <ele>360.8</ele>
        <time>2022-10-02T12:42:35Z</time>
      </trkpt>
      <trkpt lat="47.45926" lon="8.22641">
        <ele>360.8</ele>
        <time>2022-10-02T12:42:36Z</time>
      </trkpt>
      <trkpt lat="47.45923" lon="8.22643">
        <ele>360.8</ele>
        <time>2022-10-02T12:42:37Z</time>
      </trkpt>
      <trkpt lat="47.4592" lon="8.22645">
        <ele>360.8</ele>
        <time>2022-10-02T12:42:38Z</time>
      </trkpt>
      <trkpt lat="47.45916" lon="8.22648">
        <ele>360.7</ele>
        <time>2022-10-02T12:42:39Z</time>
      </trkpt>
      <trkpt lat="47.45912" lon="8.22651">
        <ele>360.7</ele>
        <time>2022-10-02T12:42:40Z</time>
      </trkpt>
      <trkpt lat="47.45908" lon="8.22655">
        <ele>360.7</ele>
        <time>2022-10-02T12:42:41Z</time>
      </trkpt>
      <trkpt lat="47.45904" lon="8.22661">
        <ele>360.6</ele>
        <time>2022-10-02T12:42:42Z</time>
      </trkpt>
      <trkpt lat="47.459" lon="8.22665">
        <ele>360.6</ele>
        <time>2022-10-02T12:42:43Z</time>
      </trkpt>
      <trkpt lat="47.45896" lon="8.2267">
        <ele>360.5</ele>
        <time>2022-10-02T12:42:44Z</time>
      </trkpt>
      <trkpt lat="47.45892" lon="8.22675">
        <ele>360.4</ele>
        <time>2022-10-02T12:42:45Z</time>
      </trkpt>
      <trkpt lat="47.45888" lon="8.22682">
        <ele>360.4</ele>
        <time>2022-10-02T12:42:46Z</time>
      </trkpt>
      <trkpt lat="47.45883" lon="8.22687">
        <ele>360.3</ele>
        <time>2022-10-02T12:42:47Z</time>
      </trkpt>
      <trkpt lat="47.45879" lon="8.22692">
        <ele>360.3</ele>
        <time>2022-10-02T12:42:48Z</time>
      </trkpt>
      <trkpt lat="47.45874" lon="8.22698">
        <ele>360.2</ele>
        <time>2022-10-02T12:42:49Z</time>
      </trkpt>
      <trkpt lat="47.45871" lon="8.22703">
        <ele>360.2</ele>
        <time>2022-10-02T12:42:50Z</time>
      </trkpt>
      <trkpt lat="47.45866" lon="8.22707">
        <ele>360.1</ele>
        <time>2022-10-02T12:42:51Z</time>
      </trkpt>
      <trkpt lat="47.45861" lon="8.22714">
        <ele>360.1</ele>
        <time>2022-10-02T12:42:52Z</time>
      </trkpt>
      <trkpt lat="47.45858" lon="8.22719">
        <ele>360.1</ele>
        <time>2022-10-02T12:42:53Z</time>
      </trkpt>
      <trkpt lat="47.45854" lon="8.22724">
        <ele>360</ele>
        <time>2022-10-02T12:42:54Z</time>
      </trkpt>
      <trkpt lat="47.45851" lon="8.22729">
        <ele>360</ele>
        <time>2022-10-02T12:42:55Z</time>
      </trkpt>
      <trkpt lat="47.45848" lon="8.22735">
        <ele>360</ele>
        <time>2022-10-02T12:42:56Z</time>
      </trkpt>
      <trkpt lat="47.45843" lon="8.22742">
        <ele>359.9</ele>
        <time>2022-10-02T12:42:57Z</time>
      </trkpt>
      <trkpt lat="47.4584" lon="8.22747">
        <ele>359.9</ele>
        <time>2022-10-02T12:42:58Z</time>
      </trkpt>
      <trkpt lat="47.45836" lon="8.22755">
        <ele>359.8</ele>
        <time>2022-10-02T12:42:59Z</time>
      </trkpt>
      <trkpt lat="47.45833" lon="8.22761">
        <ele>359.8</ele>
        <time>2022-10-02T12:43:00Z</time>
      </trkpt>
      <trkpt lat="47.45829" lon="8.22768">
        <ele>359.8</ele>
        <time>2022-10-02T12:43:01Z</time>
      </trkpt>
      <trkpt lat="47.45826" lon="8.22774">
        <ele>359.8</ele>
        <time>2022-10-02T12:43:02Z</time>
      </trkpt>
      <trkpt lat="47.45822" lon="8.2278">
        <ele>359.9</ele>
        <time>2022-10-02T12:43:03Z</time>
      </trkpt>
      <trkpt lat="47.45818" lon="8.22786">
        <ele>359.9</ele>
        <time>2022-10-02T12:43:04Z</time>
      </trkpt>
      <trkpt lat="47.45813" lon="8.22792">
        <ele>360</ele>
        <time>2022-10-02T12:43:05Z</time>
      </trkpt>
      <trkpt lat="47.4581" lon="8.22799">
        <ele>360</ele>
        <time>2022-10-02T12:43:06Z</time>
      </trkpt>
      <trkpt lat="47.45807" lon="8.22804">
        <ele>360.1</ele>
        <time>2022-10-02T12:43:07Z</time>
      </trkpt>
      <trkpt lat="47.45803" lon="8.2281">
        <ele>360.1</ele>
        <time>2022-10-02T12:43:08Z</time>
      </trkpt>
      <trkpt lat="47.45801" lon="8.22816">
        <ele>360.1</ele>
        <time>2022-10-02T12:43:09Z</time>
      </trkpt>
      <trkpt lat="47.45797" lon="8.22822">
        <ele>360.2</ele>
        <time>2022-10-02T12:43:10Z</time>
      </trkpt>
      <trkpt lat="47.45794" lon="8.22827">
        <ele>360.2</ele>
        <time>2022-10-02T12:43:11Z</time>
      </trkpt>
      <trkpt lat="47.45791" lon="8.22832">
        <ele>360.2</ele>
        <time>2022-10-02T12:43:12Z</time>
      </trkpt>
      <trkpt lat="47.45788" lon="8.22838">
        <ele>360.3</ele>
        <time>2022-10-02T12:43:13Z</time>
      </trkpt>
      <trkpt lat="47.45786" lon="8.22843">
        <ele>360.3</ele>
        <time>2022-10-02T12:43:14Z</time>
      </trkpt>
      <trkpt lat="47.45782" lon="8.22847">
        <ele>360.4</ele>
        <time>2022-10-02T12:43:15Z</time>
      </trkpt>
      <trkpt lat="47.45779" lon="8.22852">
        <ele>360.4</ele>
        <time>2022-10-02T12:43:16Z</time>
      </trkpt>
      <trkpt lat="47.45775" lon="8.22859">
        <ele>360.5</ele>
        <time>2022-10-02T12:43:17Z</time>
      </trkpt>
      <trkpt lat="47.45773" lon="8.22865">
        <ele>360.5</ele>
        <time>2022-10-02T12:43:19Z</time>
      </trkpt>
      <trkpt lat="47.45771" lon="8.22871">
        <ele>360.6</ele>
        <time>2022-10-02T12:43:20Z</time>
      </trkpt>
      <trkpt lat="47.45769" lon="8.22878">
        <ele>360.6</ele>
        <time>2022-10-02T12:43:21Z</time>
      </trkpt>
      <trkpt lat="47.45767" lon="8.22885">
        <ele>360.7</ele>
        <time>2022-10-02T12:43:22Z</time>
      </trkpt>
      <trkpt lat="47.45765" lon="8.2289">
        <ele>360.7</ele>
        <time>2022-10-02T12:43:23Z</time>
      </trkpt>
      <trkpt lat="47.45763" lon="8.22898">
        <ele>360.7</ele>
        <time>2022-10-02T12:43:24Z</time>
      </trkpt>
      <trkpt lat="47.45762" lon="8.22904">
        <ele>360.7</ele>
        <time>2022-10-02T12:43:25Z</time>
      </trkpt>
      <trkpt lat="47.45761" lon="8.22912">
        <ele>360.7</ele>
        <time>2022-10-02T12:43:26Z</time>
      </trkpt>
      <trkpt lat="47.4576" lon="8.2292">
        <ele>360.7</ele>
        <time>2022-10-02T12:43:27Z</time>
      </trkpt>
      <trkpt lat="47.4576" lon="8.22928">
        <ele>360.7</ele>
        <time>2022-10-02T12:43:28Z</time>
      </trkpt>
      <trkpt lat="47.45759" lon="8.22935">
        <ele>360.7</ele>
        <time>2022-10-02T12:43:29Z</time>
      </trkpt>
      <trkpt lat="47.45757" lon="8.22943">
        <ele>360.7</ele>
        <time>2022-10-02T12:43:30Z</time>
      </trkpt>
      <trkpt lat="47.45758" lon="8.22951">
        <ele>360.7</ele>
        <time>2022-10-02T12:43:31Z</time>
      </trkpt>
      <trkpt lat="47.45758" lon="8.22958">
        <ele>360.7</ele>
        <time>2022-10-02T12:43:32Z</time>
      </trkpt>
      <trkpt lat="47.45757" lon="8.22966">
        <ele>360.7</ele>
        <time>2022-10-02T12:43:33Z</time>
      </trkpt>
      <trkpt lat="47.45756" lon="8.22975">
        <ele>360.7</ele>
        <time>2022-10-02T12:43:34Z</time>
      </trkpt>
      <trkpt lat="47.45756" lon="8.2298">
        <ele>360.7</ele>
        <time>2022-10-02T12:43:35Z</time>
      </trkpt>
      <trkpt lat="47.45755" lon="8.22988">
        <ele>360.7</ele>
        <time>2022-10-02T12:43:36Z</time>
      </trkpt>
      <trkpt lat="47.45754" lon="8.22996">
        <ele>360.7</ele>
        <time>2022-10-02T12:43:37Z</time>
      </trkpt>
      <trkpt lat="47.45752" lon="8.23001">
        <ele>360.7</ele>
        <time>2022-10-02T12:43:38Z</time>
      </trkpt>
      <trkpt lat="47.45753" lon="8.23009">
        <ele>360.8</ele>
        <time>2022-10-02T12:43:39Z</time>
      </trkpt>
      <trkpt lat="47.45751" lon="8.23015">
        <ele>360.8</ele>
        <time>2022-10-02T12:43:40Z</time>
      </trkpt>
      <trkpt lat="47.45749" lon="8.23021">
        <ele>360.9</ele>
        <time>2022-10-02T12:43:41Z</time>
      </trkpt>
      <trkpt lat="47.45749" lon="8.23028">
        <ele>360.9</ele>
        <time>2022-10-02T12:43:42Z</time>
      </trkpt>
      <trkpt lat="47.45746" lon="8.23035">
        <ele>361</ele>
        <time>2022-10-02T12:43:43Z</time>
      </trkpt>
      <trkpt lat="47.45746" lon="8.23039">
        <ele>361</ele>
        <time>2022-10-02T12:43:44Z</time>
      </trkpt>
      <trkpt lat="47.45745" lon="8.23044">
        <ele>361</ele>
        <time>2022-10-02T12:43:45Z</time>
      </trkpt>
      <trkpt lat="47.45743" lon="8.23051">
        <ele>361.1</ele>
        <time>2022-10-02T12:43:46Z</time>
      </trkpt>
      <trkpt lat="47.45741" lon="8.23056">
        <ele>361.1</ele>
        <time>2022-10-02T12:43:47Z</time>
      </trkpt>
      <trkpt lat="47.45742" lon="8.23061">
        <ele>361.2</ele>
        <time>2022-10-02T12:43:48Z</time>
      </trkpt>
      <trkpt lat="47.45741" lon="8.23068">
        <ele>361.2</ele>
        <time>2022-10-02T12:43:49Z</time>
      </trkpt>
      <trkpt lat="47.45739" lon="8.23073">
        <ele>361.2</ele>
        <time>2022-10-02T12:43:50Z</time>
      </trkpt>
      <trkpt lat="47.45738" lon="8.23079">
        <ele>361.3</ele>
        <time>2022-10-02T12:43:51Z</time>
      </trkpt>
      <trkpt lat="47.45737" lon="8.23083">
        <ele>361.3</ele>
        <time>2022-10-02T12:43:52Z</time>
      </trkpt>
      <trkpt lat="47.45739" lon="8.23089">
        <ele>361.3</ele>
        <time>2022-10-02T12:43:53Z</time>
      </trkpt>
      <trkpt lat="47.45738" lon="8.23095">
        <ele>361.4</ele>
        <time>2022-10-02T12:43:54Z</time>
      </trkpt>
      <trkpt lat="47.45738" lon="8.231">
        <ele>361.4</ele>
        <time>2022-10-02T12:43:55Z</time>
      </trkpt>
      <trkpt lat="47.45739" lon="8.23104">
        <ele>361.4</ele>
        <time>2022-10-02T12:43:56Z</time>
      </trkpt>
      <trkpt lat="47.4574" lon="8.23111">
        <ele>361.4</ele>
        <time>2022-10-02T12:43:57Z</time>
      </trkpt>
      <trkpt lat="47.45741" lon="8.23116">
        <ele>361.5</ele>
        <time>2022-10-02T12:43:58Z</time>
      </trkpt>
      <trkpt lat="47.45743" lon="8.23122">
        <ele>361.5</ele>
        <time>2022-10-02T12:43:59Z</time>
      </trkpt>
      <trkpt lat="47.45741" lon="8.23131">
        <ele>361.5</ele>
        <time>2022-10-02T12:44:00Z</time>
      </trkpt>
      <trkpt lat="47.45743" lon="8.23137">
        <ele>361.5</ele>
        <time>2022-10-02T12:44:01Z</time>
      </trkpt>
      <trkpt lat="47.45744" lon="8.23144">
        <ele>361.5</ele>
        <time>2022-10-02T12:44:02Z</time>
      </trkpt>
      <trkpt lat="47.45744" lon="8.2315">
        <ele>361.6</ele>
        <time>2022-10-02T12:44:03Z</time>
      </trkpt>
      <trkpt lat="47.45746" lon="8.23154">
        <ele>361.6</ele>
        <time>2022-10-02T12:44:04Z</time>
      </trkpt>
      <trkpt lat="47.45746" lon="8.23162">
        <ele>361.6</ele>
        <time>2022-10-02T12:44:05Z</time>
      </trkpt>
      <trkpt lat="47.45747" lon="8.23168">
        <ele>361.6</ele>
        <time>2022-10-02T12:44:06Z</time>
      </trkpt>
      <trkpt lat="47.4575" lon="8.23175">
        <ele>361.6</ele>
        <time>2022-10-02T12:44:07Z</time>
      </trkpt>
      <trkpt lat="47.45752" lon="8.23181">
        <ele>361.6</ele>
        <time>2022-10-02T12:44:08Z</time>
      </trkpt>
      <trkpt lat="47.45753" lon="8.23187">
        <ele>361.5</ele>
        <time>2022-10-02T12:44:09Z</time>
      </trkpt>
      <trkpt lat="47.45756" lon="8.23193">
        <ele>361.5</ele>
        <time>2022-10-02T12:44:10Z</time>
      </trkpt>
      <trkpt lat="47.45758" lon="8.23199">
        <ele>361.5</ele>
        <time>2022-10-02T12:44:11Z</time>
      </trkpt>
      <trkpt lat="47.45758" lon="8.23205">
        <ele>361.5</ele>
        <time>2022-10-02T12:44:12Z</time>
      </trkpt>
      <trkpt lat="47.4576" lon="8.23211">
        <ele>361.5</ele>
        <time>2022-10-02T12:44:13Z</time>
      </trkpt>
      <trkpt lat="47.45763" lon="8.23217">
        <ele>361.5</ele>
        <time>2022-10-02T12:44:14Z</time>
      </trkpt>
      <trkpt lat="47.45764" lon="8.23224">
        <ele>361.5</ele>
        <time>2022-10-02T12:44:15Z</time>
      </trkpt>
      <trkpt lat="47.45765" lon="8.2323">
        <ele>361.5</ele>
        <time>2022-10-02T12:44:16Z</time>
      </trkpt>
      <trkpt lat="47.45767" lon="8.23237">
        <ele>361.5</ele>
        <time>2022-10-02T12:44:17Z</time>
      </trkpt>
      <trkpt lat="47.45768" lon="8.23244">
        <ele>361.6</ele>
        <time>2022-10-02T12:44:18Z</time>
      </trkpt>
      <trkpt lat="47.45771" lon="8.23251">
        <ele>361.6</ele>
        <time>2022-10-02T12:44:19Z</time>
      </trkpt>
      <trkpt lat="47.45772" lon="8.23258">
        <ele>361.6</ele>
        <time>2022-10-02T12:44:20Z</time>
      </trkpt>
      <trkpt lat="47.45772" lon="8.23264">
        <ele>361.6</ele>
        <time>2022-10-02T12:44:21Z</time>
      </trkpt>
      <trkpt lat="47.45772" lon="8.23271">
        <ele>361.6</ele>
        <time>2022-10-02T12:44:22Z</time>
      </trkpt>
      <trkpt lat="47.45773" lon="8.23277">
        <ele>361.6</ele>
        <time>2022-10-02T12:44:23Z</time>
      </trkpt>
      <trkpt lat="47.45773" lon="8.23285">
        <ele>361.7</ele>
        <time>2022-10-02T12:44:24Z</time>
      </trkpt>
      <trkpt lat="47.45774" lon="8.23292">
        <ele>361.7</ele>
        <time>2022-10-02T12:44:25Z</time>
      </trkpt>
      <trkpt lat="47.45774" lon="8.23298">
        <ele>361.7</ele>
        <time>2022-10-02T12:44:26Z</time>
      </trkpt>
      <trkpt lat="47.45775" lon="8.23304">
        <ele>361.7</ele>
        <time>2022-10-02T12:44:27Z</time>
      </trkpt>
      <trkpt lat="47.45775" lon="8.2331">
        <ele>361.7</ele>
        <time>2022-10-02T12:44:28Z</time>
      </trkpt>
      <trkpt lat="47.45775" lon="8.23317">
        <ele>361.8</ele>
        <time>2022-10-02T12:44:29Z</time>
      </trkpt>
      <trkpt lat="47.45774" lon="8.23324">
        <ele>361.8</ele>
        <time>2022-10-02T12:44:30Z</time>
      </trkpt>
      <trkpt lat="47.45775" lon="8.2333">
        <ele>361.8</ele>
        <time>2022-10-02T12:44:31Z</time>
      </trkpt>
      <trkpt lat="47.45775" lon="8.23338">
        <ele>361.8</ele>
        <time>2022-10-02T12:44:32Z</time>
      </trkpt>
      <trkpt lat="47.45775" lon="8.23343">
        <ele>361.8</ele>
        <time>2022-10-02T12:44:33Z</time>
      </trkpt>
      <trkpt lat="47.45775" lon="8.23349">
        <ele>361.8</ele>
        <time>2022-10-02T12:44:34Z</time>
      </trkpt>
      <trkpt lat="47.45775" lon="8.23355">
        <ele>361.9</ele>
        <time>2022-10-02T12:44:35Z</time>
      </trkpt>
      <trkpt lat="47.45775" lon="8.23361">
        <ele>361.9</ele>
        <time>2022-10-02T12:44:36Z</time>
      </trkpt>
      <trkpt lat="47.45773" lon="8.23369">
        <ele>361.9</ele>
        <time>2022-10-02T12:44:37Z</time>
      </trkpt>
      <trkpt lat="47.45773" lon="8.23375">
        <ele>361.9</ele>
        <time>2022-10-02T12:44:38Z</time>
      </trkpt>
      <trkpt lat="47.45772" lon="8.23382">
        <ele>362</ele>
        <time>2022-10-02T12:44:39Z</time>
      </trkpt>
      <trkpt lat="47.45772" lon="8.23389">
        <ele>362</ele>
        <time>2022-10-02T12:44:40Z</time>
      </trkpt>
      <trkpt lat="47.45771" lon="8.23395">
        <ele>362.1</ele>
        <time>2022-10-02T12:44:41Z</time>
      </trkpt>
      <trkpt lat="47.4577" lon="8.23401">
        <ele>362.1</ele>
        <time>2022-10-02T12:44:42Z</time>
      </trkpt>
      <trkpt lat="47.4577" lon="8.23409">
        <ele>362.1</ele>
        <time>2022-10-02T12:44:43Z</time>
      </trkpt>
      <trkpt lat="47.45769" lon="8.23416">
        <ele>362.1</ele>
        <time>2022-10-02T12:44:44Z</time>
      </trkpt>
      <trkpt lat="47.45768" lon="8.23423">
        <ele>362.2</ele>
        <time>2022-10-02T12:44:45Z</time>
      </trkpt>
      <trkpt lat="47.45768" lon="8.23428">
        <ele>362.2</ele>
        <time>2022-10-02T12:44:46Z</time>
      </trkpt>
      <trkpt lat="47.45768" lon="8.23436">
        <ele>362.2</ele>
        <time>2022-10-02T12:44:47Z</time>
      </trkpt>
      <trkpt lat="47.45766" lon="8.23442">
        <ele>362.3</ele>
        <time>2022-10-02T12:44:48Z</time>
      </trkpt>
      <trkpt lat="47.45766" lon="8.23449">
        <ele>362.3</ele>
        <time>2022-10-02T12:44:49Z</time>
      </trkpt>
      <trkpt lat="47.45765" lon="8.23456">
        <ele>362.3</ele>
        <time>2022-10-02T12:44:50Z</time>
      </trkpt>
      <trkpt lat="47.45765" lon="8.2347">
        <ele>362.4</ele>
        <time>2022-10-02T12:44:51Z</time>
      </trkpt>
      <trkpt lat="47.45764" lon="8.23477">
        <ele>362.4</ele>
        <time>2022-10-02T12:44:52Z</time>
      </trkpt>
      <trkpt lat="47.45765" lon="8.23483">
        <ele>362.4</ele>
        <time>2022-10-02T12:44:53Z</time>
      </trkpt>
      <trkpt lat="47.45765" lon="8.2349">
        <ele>362.4</ele>
        <time>2022-10-02T12:44:54Z</time>
      </trkpt>
      <trkpt lat="47.45764" lon="8.23497">
        <ele>362.4</ele>
        <time>2022-10-02T12:44:55Z</time>
      </trkpt>
      <trkpt lat="47.45764" lon="8.23504">
        <ele>362.5</ele>
        <time>2022-10-02T12:44:56Z</time>
      </trkpt>
      <trkpt lat="47.45764" lon="8.23511">
        <ele>362.5</ele>
        <time>2022-10-02T12:44:57Z</time>
      </trkpt>
      <trkpt lat="47.45763" lon="8.23517">
        <ele>362.5</ele>
        <time>2022-10-02T12:44:58Z</time>
      </trkpt>
      <trkpt lat="47.45764" lon="8.23524">
        <ele>362.5</ele>
        <time>2022-10-02T12:44:59Z</time>
      </trkpt>
      <trkpt lat="47.45764" lon="8.2353">
        <ele>362.5</ele>
        <time>2022-10-02T12:45:00Z</time>
      </trkpt>
      <trkpt lat="47.45765" lon="8.23538">
        <ele>362.5</ele>
        <time>2022-10-02T12:45:01Z</time>
      </trkpt>
      <trkpt lat="47.45765" lon="8.23544">
        <ele>362.6</ele>
        <time>2022-10-02T12:45:02Z</time>
      </trkpt>
      <trkpt lat="47.45765" lon="8.23552">
        <ele>362.6</ele>
        <time>2022-10-02T12:45:03Z</time>
      </trkpt>
      <trkpt lat="47.45766" lon="8.23558">
        <ele>362.6</ele>
        <time>2022-10-02T12:45:04Z</time>
      </trkpt>
      <trkpt lat="47.45766" lon="8.23565">
        <ele>362.6</ele>
        <time>2022-10-02T12:45:05Z</time>
      </trkpt>
      <trkpt lat="47.45767" lon="8.23572">
        <ele>362.6</ele>
        <time>2022-10-02T12:45:06Z</time>
      </trkpt>
      <trkpt lat="47.45768" lon="8.23579">
        <ele>362.6</ele>
        <time>2022-10-02T12:45:07Z</time>
      </trkpt>
      <trkpt lat="47.45769" lon="8.23584">
        <ele>362.7</ele>
        <time>2022-10-02T12:45:08Z</time>
      </trkpt>
      <trkpt lat="47.45771" lon="8.23591">
        <ele>362.7</ele>
        <time>2022-10-02T12:45:09Z</time>
      </trkpt>
      <trkpt lat="47.45772" lon="8.23597">
        <ele>362.7</ele>
        <time>2022-10-02T12:45:10Z</time>
      </trkpt>
      <trkpt lat="47.45775" lon="8.23603">
        <ele>362.7</ele>
        <time>2022-10-02T12:45:11Z</time>
      </trkpt>
      <trkpt lat="47.45776" lon="8.2361">
        <ele>362.7</ele>
        <time>2022-10-02T12:45:12Z</time>
      </trkpt>
      <trkpt lat="47.45776" lon="8.23616">
        <ele>362.7</ele>
        <time>2022-10-02T12:45:13Z</time>
      </trkpt>
      <trkpt lat="47.45778" lon="8.23622">
        <ele>362.7</ele>
        <time>2022-10-02T12:45:14Z</time>
      </trkpt>
      <trkpt lat="47.4578" lon="8.23629">
        <ele>362.7</ele>
        <time>2022-10-02T12:45:15Z</time>
      </trkpt>
      <trkpt lat="47.45782" lon="8.23635">
        <ele>362.7</ele>
        <time>2022-10-02T12:45:16Z</time>
      </trkpt>
      <trkpt lat="47.45784" lon="8.23642">
        <ele>362.7</ele>
        <time>2022-10-02T12:45:17Z</time>
      </trkpt>
      <trkpt lat="47.45785" lon="8.23647">
        <ele>362.7</ele>
        <time>2022-10-02T12:45:18Z</time>
      </trkpt>
      <trkpt lat="47.45785" lon="8.23654">
        <ele>362.7</ele>
        <time>2022-10-02T12:45:19Z</time>
      </trkpt>
      <trkpt lat="47.45787" lon="8.23661">
        <ele>362.7</ele>
        <time>2022-10-02T12:45:20Z</time>
      </trkpt>
      <trkpt lat="47.45789" lon="8.23668">
        <ele>362.7</ele>
        <time>2022-10-02T12:45:21Z</time>
      </trkpt>
      <trkpt lat="47.4579" lon="8.23674">
        <ele>362.7</ele>
        <time>2022-10-02T12:45:22Z</time>
      </trkpt>
      <trkpt lat="47.4579" lon="8.23681">
        <ele>362.7</ele>
        <time>2022-10-02T12:45:23Z</time>
      </trkpt>
      <trkpt lat="47.45791" lon="8.23689">
        <ele>362.7</ele>
        <time>2022-10-02T12:45:25Z</time>
      </trkpt>
      <trkpt lat="47.45793" lon="8.23695">
        <ele>362.6</ele>
        <time>2022-10-02T12:45:26Z</time>
      </trkpt>
      <trkpt lat="47.45794" lon="8.23702">
        <ele>362.6</ele>
        <time>2022-10-02T12:45:27Z</time>
      </trkpt>
      <trkpt lat="47.45795" lon="8.23709">
        <ele>362.6</ele>
        <time>2022-10-02T12:45:28Z</time>
      </trkpt>
      <trkpt lat="47.45796" lon="8.23717">
        <ele>362.5</ele>
        <time>2022-10-02T12:45:29Z</time>
      </trkpt>
      <trkpt lat="47.45797" lon="8.23725">
        <ele>362.5</ele>
        <time>2022-10-02T12:45:30Z</time>
      </trkpt>
      <trkpt lat="47.45796" lon="8.23731">
        <ele>362.5</ele>
        <time>2022-10-02T12:45:31Z</time>
      </trkpt>
      <trkpt lat="47.45798" lon="8.2374">
        <ele>362.4</ele>
        <time>2022-10-02T12:45:32Z</time>
      </trkpt>
      <trkpt lat="47.45798" lon="8.23748">
        <ele>362.4</ele>
        <time>2022-10-02T12:45:33Z</time>
      </trkpt>
      <trkpt lat="47.45799" lon="8.23755">
        <ele>362.4</ele>
        <time>2022-10-02T12:45:34Z</time>
      </trkpt>
      <trkpt lat="47.458" lon="8.23763">
        <ele>362.4</ele>
        <time>2022-10-02T12:45:35Z</time>
      </trkpt>
      <trkpt lat="47.45802" lon="8.2377">
        <ele>362.4</ele>
        <time>2022-10-02T12:45:36Z</time>
      </trkpt>
      <trkpt lat="47.45802" lon="8.23778">
        <ele>362.4</ele>
        <time>2022-10-02T12:45:37Z</time>
      </trkpt>
      <trkpt lat="47.45804" lon="8.23786">
        <ele>362.4</ele>
        <time>2022-10-02T12:45:38Z</time>
      </trkpt>
      <trkpt lat="47.45804" lon="8.23794">
        <ele>362.4</ele>
        <time>2022-10-02T12:45:39Z</time>
      </trkpt>
      <trkpt lat="47.45805" lon="8.23802">
        <ele>362.4</ele>
        <time>2022-10-02T12:45:40Z</time>
      </trkpt>
      <trkpt lat="47.45804" lon="8.2381">
        <ele>362.4</ele>
        <time>2022-10-02T12:45:41Z</time>
      </trkpt>
      <trkpt lat="47.45805" lon="8.23818">
        <ele>362.4</ele>
        <time>2022-10-02T12:45:42Z</time>
      </trkpt>
      <trkpt lat="47.45804" lon="8.23825">
        <ele>362.4</ele>
        <time>2022-10-02T12:45:43Z</time>
      </trkpt>
      <trkpt lat="47.45803" lon="8.23832">
        <ele>362.5</ele>
        <time>2022-10-02T12:45:44Z</time>
      </trkpt>
      <trkpt lat="47.45801" lon="8.23839">
        <ele>362.6</ele>
        <time>2022-10-02T12:45:45Z</time>
      </trkpt>
      <trkpt lat="47.45799" lon="8.23845">
        <ele>362.7</ele>
        <time>2022-10-02T12:45:46Z</time>
      </trkpt>
      <trkpt lat="47.45798" lon="8.23851">
        <ele>362.8</ele>
        <time>2022-10-02T12:45:47Z</time>
      </trkpt>
      <trkpt lat="47.45797" lon="8.23857">
        <ele>362.9</ele>
        <time>2022-10-02T12:45:48Z</time>
      </trkpt>
      <trkpt lat="47.45795" lon="8.23863">
        <ele>363</ele>
        <time>2022-10-02T12:45:49Z</time>
      </trkpt>
      <trkpt lat="47.45795" lon="8.23868">
        <ele>363.1</ele>
        <time>2022-10-02T12:45:50Z</time>
      </trkpt>
      <trkpt lat="47.45793" lon="8.23874">
        <ele>363.2</ele>
        <time>2022-10-02T12:45:51Z</time>
      </trkpt>
      <trkpt lat="47.45791" lon="8.2388">
        <ele>363.3</ele>
        <time>2022-10-02T12:45:52Z</time>
      </trkpt>
      <trkpt lat="47.4579" lon="8.23886">
        <ele>363.4</ele>
        <time>2022-10-02T12:45:53Z</time>
      </trkpt>
      <trkpt lat="47.45791" lon="8.23891">
        <ele>363.5</ele>
        <time>2022-10-02T12:45:54Z</time>
      </trkpt>
      <trkpt lat="47.4579" lon="8.23897">
        <ele>363.6</ele>
        <time>2022-10-02T12:45:55Z</time>
      </trkpt>
      <trkpt lat="47.4579" lon="8.23903">
        <ele>363.7</ele>
        <time>2022-10-02T12:45:56Z</time>
      </trkpt>
      <trkpt lat="47.45789" lon="8.23909">
        <ele>363.8</ele>
        <time>2022-10-02T12:45:57Z</time>
      </trkpt>
      <trkpt lat="47.45789" lon="8.23915">
        <ele>363.9</ele>
        <time>2022-10-02T12:45:58Z</time>
      </trkpt>
      <trkpt lat="47.45789" lon="8.23921">
        <ele>364</ele>
        <time>2022-10-02T12:45:59Z</time>
      </trkpt>
      <trkpt lat="47.45787" lon="8.23926">
        <ele>364.1</ele>
        <time>2022-10-02T12:46:00Z</time>
      </trkpt>
      <trkpt lat="47.45787" lon="8.23932">
        <ele>364.2</ele>
        <time>2022-10-02T12:46:01Z</time>
      </trkpt>
      <trkpt lat="47.45786" lon="8.23938">
        <ele>364.3</ele>
        <time>2022-10-02T12:46:02Z</time>
      </trkpt>
      <trkpt lat="47.45785" lon="8.23943">
        <ele>364.4</ele>
        <time>2022-10-02T12:46:03Z</time>
      </trkpt>
      <trkpt lat="47.45785" lon="8.23949">
        <ele>364.4</ele>
        <time>2022-10-02T12:46:04Z</time>
      </trkpt>
      <trkpt lat="47.45784" lon="8.23954">
        <ele>364.5</ele>
        <time>2022-10-02T12:46:05Z</time>
      </trkpt>
      <trkpt lat="47.45783" lon="8.23959">
        <ele>364.6</ele>
        <time>2022-10-02T12:46:06Z</time>
      </trkpt>
      <trkpt lat="47.45782" lon="8.23963">
        <ele>364.6</ele>
        <time>2022-10-02T12:46:07Z</time>
      </trkpt>
      <trkpt lat="47.45782" lon="8.23967">
        <ele>364.7</ele>
        <time>2022-10-02T12:46:08Z</time>
      </trkpt>
      <trkpt lat="47.45782" lon="8.23973">
        <ele>364.7</ele>
        <time>2022-10-02T12:46:09Z</time>
      </trkpt>
      <trkpt lat="47.45779" lon="8.23981">
        <ele>364.9</ele>
        <time>2022-10-02T12:46:10Z</time>
      </trkpt>
      <trkpt lat="47.4578" lon="8.23987">
        <ele>365</ele>
        <time>2022-10-02T12:46:11Z</time>
      </trkpt>
      <trkpt lat="47.45779" lon="8.23989">
        <ele>365</ele>
        <time>2022-10-02T12:46:12Z</time>
      </trkpt>
      <trkpt lat="47.45778" lon="8.23994">
        <ele>365.1</ele>
        <time>2022-10-02T12:46:13Z</time>
      </trkpt>
      <trkpt lat="47.45777" lon="8.23998">
        <ele>365.1</ele>
        <time>2022-10-02T12:46:14Z</time>
      </trkpt>
      <trkpt lat="47.45776" lon="8.24002">
        <ele>365.2</ele>
        <time>2022-10-02T12:46:15Z</time>
      </trkpt>
      <trkpt lat="47.45776" lon="8.24006">
        <ele>365.2</ele>
        <time>2022-10-02T12:46:16Z</time>
      </trkpt>
      <trkpt lat="47.45775" lon="8.24011">
        <ele>365.3</ele>
        <time>2022-10-02T12:46:17Z</time>
      </trkpt>
      <trkpt lat="47.45775" lon="8.24013">
        <ele>365.3</ele>
        <time>2022-10-02T12:46:18Z</time>
      </trkpt>
      <trkpt lat="47.45773" lon="8.24017">
        <ele>365.4</ele>
        <time>2022-10-02T12:46:19Z</time>
      </trkpt>
      <trkpt lat="47.45773" lon="8.24023">
        <ele>365.4</ele>
        <time>2022-10-02T12:46:20Z</time>
      </trkpt>
      <trkpt lat="47.45773" lon="8.24024">
        <ele>365.4</ele>
        <time>2022-10-02T12:46:21Z</time>
      </trkpt>
      <trkpt lat="47.45772" lon="8.2403">
        <ele>365.5</ele>
        <time>2022-10-02T12:46:22Z</time>
      </trkpt>
      <trkpt lat="47.45771" lon="8.24032">
        <ele>365.5</ele>
        <time>2022-10-02T12:46:23Z</time>
      </trkpt>
      <trkpt lat="47.4577" lon="8.24037">
        <ele>365.6</ele>
        <time>2022-10-02T12:46:24Z</time>
      </trkpt>
      <trkpt lat="47.45769" lon="8.24038">
        <ele>365.7</ele>
        <time>2022-10-02T12:46:25Z</time>
      </trkpt>
      <trkpt lat="47.45768" lon="8.24043">
        <ele>365.8</ele>
        <time>2022-10-02T12:46:26Z</time>
      </trkpt>
      <trkpt lat="47.45768" lon="8.24045">
        <ele>365.8</ele>
        <time>2022-10-02T12:46:27Z</time>
      </trkpt>
      <trkpt lat="47.45766" lon="8.2405">
        <ele>365.9</ele>
        <time>2022-10-02T12:46:28Z</time>
      </trkpt>
      <trkpt lat="47.45766" lon="8.24052">
        <ele>365.9</ele>
        <time>2022-10-02T12:46:29Z</time>
      </trkpt>
      <trkpt lat="47.45765" lon="8.24056">
        <ele>366</ele>
        <time>2022-10-02T12:46:30Z</time>
      </trkpt>
      <trkpt lat="47.45763" lon="8.24058">
        <ele>366</ele>
        <time>2022-10-02T12:46:31Z</time>
      </trkpt>
      <trkpt lat="47.45762" lon="8.24062">
        <ele>366.1</ele>
        <time>2022-10-02T12:46:32Z</time>
      </trkpt>
      <trkpt lat="47.45761" lon="8.24064">
        <ele>366.1</ele>
        <time>2022-10-02T12:46:33Z</time>
      </trkpt>
      <trkpt lat="47.4576" lon="8.24068">
        <ele>366.2</ele>
        <time>2022-10-02T12:46:34Z</time>
      </trkpt>
      <trkpt lat="47.4576" lon="8.2407">
        <ele>366.2</ele>
        <time>2022-10-02T12:46:35Z</time>
      </trkpt>
      <trkpt lat="47.45761" lon="8.24074">
        <ele>366.2</ele>
        <time>2022-10-02T12:46:36Z</time>
      </trkpt>
      <trkpt lat="47.45762" lon="8.24075">
        <ele>366.2</ele>
        <time>2022-10-02T12:46:37Z</time>
      </trkpt>
      <trkpt lat="47.45765" lon="8.24077">
        <ele>366.1</ele>
        <time>2022-10-02T12:46:38Z</time>
      </trkpt>
      <trkpt lat="47.45767" lon="8.24078">
        <ele>366.1</ele>
        <time>2022-10-02T12:46:39Z</time>
      </trkpt>
      <trkpt lat="47.45769" lon="8.2408">
        <ele>366.1</ele>
        <time>2022-10-02T12:46:40Z</time>
      </trkpt>
      <trkpt lat="47.45772" lon="8.24082">
        <ele>366</ele>
        <time>2022-10-02T12:46:41Z</time>
      </trkpt>
      <trkpt lat="47.45775" lon="8.24085">
        <ele>365.9</ele>
        <time>2022-10-02T12:46:42Z</time>
      </trkpt>
      <trkpt lat="47.45778" lon="8.24088">
        <ele>365.9</ele>
        <time>2022-10-02T12:46:43Z</time>
      </trkpt>
      <trkpt lat="47.45782" lon="8.24091">
        <ele>365.8</ele>
        <time>2022-10-02T12:46:44Z</time>
      </trkpt>
      <trkpt lat="47.45786" lon="8.24093">
        <ele>365.7</ele>
        <time>2022-10-02T12:46:45Z</time>
      </trkpt>
      <trkpt lat="47.4579" lon="8.24097">
        <ele>365.6</ele>
        <time>2022-10-02T12:46:46Z</time>
      </trkpt>
      <trkpt lat="47.45794" lon="8.24099">
        <ele>365.6</ele>
        <time>2022-10-02T12:46:47Z</time>
      </trkpt>
      <trkpt lat="47.45799" lon="8.24102">
        <ele>365.5</ele>
        <time>2022-10-02T12:46:48Z</time>
      </trkpt>
      <trkpt lat="47.45803" lon="8.24105">
        <ele>365.4</ele>
        <time>2022-10-02T12:46:49Z</time>
      </trkpt>
      <trkpt lat="47.45808" lon="8.24108">
        <ele>365.3</ele>
        <time>2022-10-02T12:46:50Z</time>
      </trkpt>
      <trkpt lat="47.45812" lon="8.24112">
        <ele>365</ele>
        <time>2022-10-02T12:46:51Z</time>
      </trkpt>
      <trkpt lat="47.45816" lon="8.24116">
        <ele>364.7</ele>
        <time>2022-10-02T12:46:52Z</time>
      </trkpt>
      <trkpt lat="47.45821" lon="8.24119">
        <ele>364.4</ele>
        <time>2022-10-02T12:46:53Z</time>
      </trkpt>
      <trkpt lat="47.45825" lon="8.24122">
        <ele>364.1</ele>
        <time>2022-10-02T12:46:54Z</time>
      </trkpt>
      <trkpt lat="47.45829" lon="8.24126">
        <ele>363.8</ele>
        <time>2022-10-02T12:46:55Z</time>
      </trkpt>
      <trkpt lat="47.45832" lon="8.24129">
        <ele>363.5</ele>
        <time>2022-10-02T12:46:56Z</time>
      </trkpt>
      <trkpt lat="47.45836" lon="8.24134">
        <ele>363.1</ele>
        <time>2022-10-02T12:46:57Z</time>
      </trkpt>
      <trkpt lat="47.45839" lon="8.24139">
        <ele>362.7</ele>
        <time>2022-10-02T12:46:58Z</time>
      </trkpt>
      <trkpt lat="47.45841" lon="8.24146">
        <ele>362.3</ele>
        <time>2022-10-02T12:46:59Z</time>
      </trkpt>
      <trkpt lat="47.45844" lon="8.24151">
        <ele>361.9</ele>
        <time>2022-10-02T12:47:00Z</time>
      </trkpt>
      <trkpt lat="47.45845" lon="8.24158">
        <ele>361.4</ele>
        <time>2022-10-02T12:47:01Z</time>
      </trkpt>
      <trkpt lat="47.45846" lon="8.24166">
        <ele>360.8</ele>
        <time>2022-10-02T12:47:02Z</time>
      </trkpt>
      <trkpt lat="47.45847" lon="8.24175">
        <ele>360.2</ele>
        <time>2022-10-02T12:47:03Z</time>
      </trkpt>
      <trkpt lat="47.45848" lon="8.24183">
        <ele>359.7</ele>
        <time>2022-10-02T12:47:04Z</time>
      </trkpt>
      <trkpt lat="47.45848" lon="8.2419">
        <ele>359.1</ele>
        <time>2022-10-02T12:47:05Z</time>
      </trkpt>
      <trkpt lat="47.45848" lon="8.24197">
        <ele>358.6</ele>
        <time>2022-10-02T12:47:06Z</time>
      </trkpt>
      <trkpt lat="47.4585" lon="8.24205">
        <ele>358</ele>
        <time>2022-10-02T12:47:07Z</time>
      </trkpt>
      <trkpt lat="47.45851" lon="8.24213">
        <ele>357.4</ele>
        <time>2022-10-02T12:47:08Z</time>
      </trkpt>
      <trkpt lat="47.45851" lon="8.24221">
        <ele>356.8</ele>
        <time>2022-10-02T12:47:09Z</time>
      </trkpt>
      <trkpt lat="47.45852" lon="8.24229">
        <ele>356.1</ele>
        <time>2022-10-02T12:47:10Z</time>
      </trkpt>
      <trkpt lat="47.45853" lon="8.24237">
        <ele>355.5</ele>
        <time>2022-10-02T12:47:11Z</time>
      </trkpt>
      <trkpt lat="47.45855" lon="8.24245">
        <ele>354.8</ele>
        <time>2022-10-02T12:47:12Z</time>
      </trkpt>
      <trkpt lat="47.45857" lon="8.24253">
        <ele>354.2</ele>
        <time>2022-10-02T12:47:13Z</time>
      </trkpt>
      <trkpt lat="47.45858" lon="8.24261">
        <ele>353.6</ele>
        <time>2022-10-02T12:47:14Z</time>
      </trkpt>
      <trkpt lat="47.45859" lon="8.24268">
        <ele>353</ele>
        <time>2022-10-02T12:47:15Z</time>
      </trkpt>
      <trkpt lat="47.45861" lon="8.24275">
        <ele>352.4</ele>
        <time>2022-10-02T12:47:16Z</time>
      </trkpt>
      <trkpt lat="47.45862" lon="8.24285">
        <ele>351.7</ele>
        <time>2022-10-02T12:47:17Z</time>
      </trkpt>
      <trkpt lat="47.45863" lon="8.2429">
        <ele>351.4</ele>
        <time>2022-10-02T12:47:18Z</time>
      </trkpt>
      <trkpt lat="47.45863" lon="8.24298">
        <ele>350.8</ele>
        <time>2022-10-02T12:47:19Z</time>
      </trkpt>
      <trkpt lat="47.45864" lon="8.24303">
        <ele>350.5</ele>
        <time>2022-10-02T12:47:20Z</time>
      </trkpt>
      <trkpt lat="47.45864" lon="8.2431">
        <ele>350.1</ele>
        <time>2022-10-02T12:47:21Z</time>
      </trkpt>
      <trkpt lat="47.45864" lon="8.24316">
        <ele>349.7</ele>
        <time>2022-10-02T12:47:22Z</time>
      </trkpt>
      <trkpt lat="47.45862" lon="8.24323">
        <ele>349.3</ele>
        <time>2022-10-02T12:47:23Z</time>
      </trkpt>
      <trkpt lat="47.45861" lon="8.2433">
        <ele>348.8</ele>
        <time>2022-10-02T12:47:24Z</time>
      </trkpt>
      <trkpt lat="47.45858" lon="8.24338">
        <ele>348.3</ele>
        <time>2022-10-02T12:47:25Z</time>
      </trkpt>
      <trkpt lat="47.45856" lon="8.24346">
        <ele>347.8</ele>
        <time>2022-10-02T12:47:26Z</time>
      </trkpt>
      <trkpt lat="47.45854" lon="8.24354">
        <ele>347.3</ele>
        <time>2022-10-02T12:47:27Z</time>
      </trkpt>
      <trkpt lat="47.45851" lon="8.24363">
        <ele>346.8</ele>
        <time>2022-10-02T12:47:28Z</time>
      </trkpt>
      <trkpt lat="47.45848" lon="8.24371">
        <ele>346.3</ele>
        <time>2022-10-02T12:47:29Z</time>
      </trkpt>
      <trkpt lat="47.45845" lon="8.24379">
        <ele>345.8</ele>
        <time>2022-10-02T12:47:31Z</time>
      </trkpt>
      <trkpt lat="47.45843" lon="8.24388">
        <ele>345.4</ele>
        <time>2022-10-02T12:47:32Z</time>
      </trkpt>
      <trkpt lat="47.4584" lon="8.24395">
        <ele>345</ele>
        <time>2022-10-02T12:47:33Z</time>
      </trkpt>
      <trkpt lat="47.45837" lon="8.24404">
        <ele>344.7</ele>
        <time>2022-10-02T12:47:34Z</time>
      </trkpt>
      <trkpt lat="47.45834" lon="8.24413">
        <ele>344.3</ele>
        <time>2022-10-02T12:47:35Z</time>
      </trkpt>
      <trkpt lat="47.45831" lon="8.24422">
        <ele>344.2</ele>
        <time>2022-10-02T12:47:36Z</time>
      </trkpt>
      <trkpt lat="47.45827" lon="8.24432">
        <ele>344.1</ele>
        <time>2022-10-02T12:47:37Z</time>
      </trkpt>
      <trkpt lat="47.45824" lon="8.24442">
        <ele>344.1</ele>
        <time>2022-10-02T12:47:38Z</time>
      </trkpt>
      <trkpt lat="47.45822" lon="8.24453">
        <ele>344</ele>
        <time>2022-10-02T12:47:39Z</time>
      </trkpt>
      <trkpt lat="47.4582" lon="8.24463">
        <ele>343.9</ele>
        <time>2022-10-02T12:47:40Z</time>
      </trkpt>
      <trkpt lat="47.45819" lon="8.24473">
        <ele>343.8</ele>
        <time>2022-10-02T12:47:41Z</time>
      </trkpt>
      <trkpt lat="47.45818" lon="8.24483">
        <ele>343.8</ele>
        <time>2022-10-02T12:47:42Z</time>
      </trkpt>
      <trkpt lat="47.45819" lon="8.24492">
        <ele>343.8</ele>
        <time>2022-10-02T12:47:43Z</time>
      </trkpt>
      <trkpt lat="47.45822" lon="8.24498">
        <ele>343.8</ele>
        <time>2022-10-02T12:47:44Z</time>
      </trkpt>
      <trkpt lat="47.45824" lon="8.24506">
        <ele>343.8</ele>
        <time>2022-10-02T12:47:45Z</time>
      </trkpt>
      <trkpt lat="47.45828" lon="8.2451">
        <ele>343.8</ele>
        <time>2022-10-02T12:47:46Z</time>
      </trkpt>
      <trkpt lat="47.4583" lon="8.24512">
        <ele>343.8</ele>
        <time>2022-10-02T12:47:47Z</time>
      </trkpt>
      <trkpt lat="47.45834" lon="8.24515">
        <ele>343.8</ele>
        <time>2022-10-02T12:47:48Z</time>
      </trkpt>
      <trkpt lat="47.45838" lon="8.24517">
        <ele>343.8</ele>
        <time>2022-10-02T12:47:49Z</time>
      </trkpt>
      <trkpt lat="47.45842" lon="8.24518">
        <ele>343.8</ele>
        <time>2022-10-02T12:47:50Z</time>
      </trkpt>
      <trkpt lat="47.45846" lon="8.24518">
        <ele>343.8</ele>
        <time>2022-10-02T12:47:51Z</time>
      </trkpt>
      <trkpt lat="47.4585" lon="8.2452">
        <ele>343.8</ele>
        <time>2022-10-02T12:47:52Z</time>
      </trkpt>
      <trkpt lat="47.45853" lon="8.24521">
        <ele>343.8</ele>
        <time>2022-10-02T12:47:53Z</time>
      </trkpt>
      <trkpt lat="47.45857" lon="8.24523">
        <ele>343.8</ele>
        <time>2022-10-02T12:47:54Z</time>
      </trkpt>
      <trkpt lat="47.45861" lon="8.24525">
        <ele>343.9</ele>
        <time>2022-10-02T12:47:55Z</time>
      </trkpt>
      <trkpt lat="47.45865" lon="8.24526">
        <ele>343.9</ele>
        <time>2022-10-02T12:47:56Z</time>
      </trkpt>
      <trkpt lat="47.45869" lon="8.24529">
        <ele>343.9</ele>
        <time>2022-10-02T12:47:57Z</time>
      </trkpt>
      <trkpt lat="47.45873" lon="8.2453">
        <ele>344</ele>
        <time>2022-10-02T12:47:58Z</time>
      </trkpt>
      <trkpt lat="47.45877" lon="8.24533">
        <ele>344</ele>
        <time>2022-10-02T12:47:59Z</time>
      </trkpt>
      <trkpt lat="47.45881" lon="8.24535">
        <ele>344</ele>
        <time>2022-10-02T12:48:00Z</time>
      </trkpt>
      <trkpt lat="47.45885" lon="8.24536">
        <ele>344.1</ele>
        <time>2022-10-02T12:48:01Z</time>
      </trkpt>
      <trkpt lat="47.45889" lon="8.24538">
        <ele>344.2</ele>
        <time>2022-10-02T12:48:02Z</time>
      </trkpt>
      <trkpt lat="47.45893" lon="8.2454">
        <ele>344.2</ele>
        <time>2022-10-02T12:48:03Z</time>
      </trkpt>
      <trkpt lat="47.45897" lon="8.24541">
        <ele>344.3</ele>
        <time>2022-10-02T12:48:04Z</time>
      </trkpt>
      <trkpt lat="47.459" lon="8.24543">
        <ele>344.3</ele>
        <time>2022-10-02T12:48:05Z</time>
      </trkpt>
      <trkpt lat="47.45903" lon="8.24545">
        <ele>344.3</ele>
        <time>2022-10-02T12:48:06Z</time>
      </trkpt>
      <trkpt lat="47.45906" lon="8.24548">
        <ele>344.3</ele>
        <time>2022-10-02T12:48:07Z</time>
      </trkpt>
      <trkpt lat="47.45906" lon="8.2455">
        <ele>344.3</ele>
        <time>2022-10-02T12:48:08Z</time>
      </trkpt>
      <trkpt lat="47.45907" lon="8.24555">
        <ele>344.4</ele>
        <time>2022-10-02T12:48:09Z</time>
      </trkpt>
      <trkpt lat="47.45908" lon="8.24557">
        <ele>344.4</ele>
        <time>2022-10-02T12:48:10Z</time>
      </trkpt>
      <trkpt lat="47.45907" lon="8.24562">
        <ele>344.4</ele>
        <time>2022-10-02T12:48:11Z</time>
      </trkpt>
      <trkpt lat="47.45905" lon="8.24566">
        <ele>344.4</ele>
        <time>2022-10-02T12:48:12Z</time>
      </trkpt>
      <trkpt lat="47.45905" lon="8.2457">
        <ele>344.4</ele>
        <time>2022-10-02T12:48:13Z</time>
      </trkpt>
      <trkpt lat="47.45903" lon="8.24575">
        <ele>344.4</ele>
        <time>2022-10-02T12:48:14Z</time>
      </trkpt>
      <trkpt lat="47.45901" lon="8.24579">
        <ele>344.4</ele>
        <time>2022-10-02T12:48:15Z</time>
      </trkpt>
      <trkpt lat="47.45898" lon="8.24583">
        <ele>344.4</ele>
        <time>2022-10-02T12:48:16Z</time>
      </trkpt>
      <trkpt lat="47.45896" lon="8.24587">
        <ele>344.4</ele>
        <time>2022-10-02T12:48:17Z</time>
      </trkpt>
      <trkpt lat="47.45894" lon="8.24591">
        <ele>344.5</ele>
        <time>2022-10-02T12:48:18Z</time>
      </trkpt>
      <trkpt lat="47.45893" lon="8.24596">
        <ele>344.5</ele>
        <time>2022-10-02T12:48:19Z</time>
      </trkpt>
      <trkpt lat="47.45892" lon="8.246">
        <ele>344.6</ele>
        <time>2022-10-02T12:48:20Z</time>
      </trkpt>
      <trkpt lat="47.4589" lon="8.24604">
        <ele>344.6</ele>
        <time>2022-10-02T12:48:21Z</time>
      </trkpt>
      <trkpt lat="47.45889" lon="8.24607">
        <ele>344.7</ele>
        <time>2022-10-02T12:48:22Z</time>
      </trkpt>
      <trkpt lat="47.45888" lon="8.24611">
        <ele>344.8</ele>
        <time>2022-10-02T12:48:23Z</time>
      </trkpt>
      <trkpt lat="47.45887" lon="8.24615">
        <ele>344.9</ele>
        <time>2022-10-02T12:48:24Z</time>
      </trkpt>
      <trkpt lat="47.45886" lon="8.24617">
        <ele>344.9</ele>
        <time>2022-10-02T12:48:25Z</time>
      </trkpt>
      <trkpt lat="47.45884" lon="8.24621">
        <ele>345.1</ele>
        <time>2022-10-02T12:48:26Z</time>
      </trkpt>
      <trkpt lat="47.45884" lon="8.24623">
        <ele>345.1</ele>
        <time>2022-10-02T12:48:27Z</time>
      </trkpt>
      <trkpt lat="47.45882" lon="8.24627">
        <ele>345.3</ele>
        <time>2022-10-02T12:48:28Z</time>
      </trkpt>
      <trkpt lat="47.45882" lon="8.24629">
        <ele>345.3</ele>
        <time>2022-10-02T12:48:29Z</time>
      </trkpt>
      <trkpt lat="47.45881" lon="8.24633">
        <ele>345.4</ele>
        <time>2022-10-02T12:48:30Z</time>
      </trkpt>
      <trkpt lat="47.4588" lon="8.24634">
        <ele>345.5</ele>
        <time>2022-10-02T12:48:31Z</time>
      </trkpt>
      <trkpt lat="47.4588" lon="8.24637">
        <ele>345.6</ele>
        <time>2022-10-02T12:48:32Z</time>
      </trkpt>
      <trkpt lat="47.4588" lon="8.24639">
        <ele>345.7</ele>
        <time>2022-10-02T12:48:33Z</time>
      </trkpt>
      <trkpt lat="47.45878" lon="8.24642">
        <ele>345.8</ele>
        <time>2022-10-02T12:48:34Z</time>
      </trkpt>
      <trkpt lat="47.45877" lon="8.24643">
        <ele>345.9</ele>
        <time>2022-10-02T12:48:35Z</time>
      </trkpt>
      <trkpt lat="47.45875" lon="8.24646">
        <ele>346.1</ele>
        <time>2022-10-02T12:48:36Z</time>
      </trkpt>
      <trkpt lat="47.45874" lon="8.24647">
        <ele>346.2</ele>
        <time>2022-10-02T12:48:37Z</time>
      </trkpt>
      <trkpt lat="47.45874" lon="8.24651">
        <ele>346.4</ele>
        <time>2022-10-02T12:48:38Z</time>
      </trkpt>
      <trkpt lat="47.45874" lon="8.24653">
        <ele>346.4</ele>
        <time>2022-10-02T12:48:39Z</time>
      </trkpt>
      <trkpt lat="47.45873" lon="8.24655">
        <ele>346.6</ele>
        <time>2022-10-02T12:48:40Z</time>
      </trkpt>
      <trkpt lat="47.45873" lon="8.24658">
        <ele>346.7</ele>
        <time>2022-10-02T12:48:41Z</time>
      </trkpt>
      <trkpt lat="47.45873" lon="8.2466">
        <ele>346.8</ele>
        <time>2022-10-02T12:48:42Z</time>
      </trkpt>
      <trkpt lat="47.45873" lon="8.24662">
        <ele>346.9</ele>
        <time>2022-10-02T12:48:43Z</time>
      </trkpt>
      <trkpt lat="47.45873" lon="8.24667">
        <ele>347.2</ele>
        <time>2022-10-02T12:48:44Z</time>
      </trkpt>
      <trkpt lat="47.45873" lon="8.24668">
        <ele>347.2</ele>
        <time>2022-10-02T12:48:45Z</time>
      </trkpt>
      <trkpt lat="47.45872" lon="8.2467">
        <ele>347.3</ele>
        <time>2022-10-02T12:48:46Z</time>
      </trkpt>
      <trkpt lat="47.45872" lon="8.24672">
        <ele>347.5</ele>
        <time>2022-10-02T12:48:47Z</time>
      </trkpt>
      <trkpt lat="47.45872" lon="8.24674">
        <ele>347.6</ele>
        <time>2022-10-02T12:48:48Z</time>
      </trkpt>
      <trkpt lat="47.45871" lon="8.24677">
        <ele>347.8</ele>
        <time>2022-10-02T12:48:49Z</time>
      </trkpt>
      <trkpt lat="47.45871" lon="8.24681">
        <ele>348.1</ele>
        <time>2022-10-02T12:48:50Z</time>
      </trkpt>
      <trkpt lat="47.45871" lon="8.24683">
        <ele>348.2</ele>
        <time>2022-10-02T12:48:51Z</time>
      </trkpt>
      <trkpt lat="47.45871" lon="8.24686">
        <ele>348.3</ele>
        <time>2022-10-02T12:48:52Z</time>
      </trkpt>
      <trkpt lat="47.45871" lon="8.24689">
        <ele>348.5</ele>
        <time>2022-10-02T12:48:53Z</time>
      </trkpt>
      <trkpt lat="47.4587" lon="8.24691">
        <ele>348.7</ele>
        <time>2022-10-02T12:48:54Z</time>
      </trkpt>
      <trkpt lat="47.4587" lon="8.24694">
        <ele>348.9</ele>
        <time>2022-10-02T12:48:55Z</time>
      </trkpt>
      <trkpt lat="47.4587" lon="8.24696">
        <ele>349</ele>
        <time>2022-10-02T12:48:56Z</time>
      </trkpt>
      <trkpt lat="47.4587" lon="8.24699">
        <ele>349.2</ele>
        <time>2022-10-02T12:48:57Z</time>
      </trkpt>
      <trkpt lat="47.4587" lon="8.24701">
        <ele>349.4</ele>
        <time>2022-10-02T12:48:58Z</time>
      </trkpt>
      <trkpt lat="47.4587" lon="8.24703">
        <ele>349.6</ele>
        <time>2022-10-02T12:48:59Z</time>
      </trkpt>
      <trkpt lat="47.45871" lon="8.24706">
        <ele>349.8</ele>
        <time>2022-10-02T12:49:00Z</time>
      </trkpt>
      <trkpt lat="47.45871" lon="8.24709">
        <ele>350</ele>
        <time>2022-10-02T12:49:01Z</time>
      </trkpt>
      <trkpt lat="47.45871" lon="8.24711">
        <ele>350.2</ele>
        <time>2022-10-02T12:49:02Z</time>
      </trkpt>
      <trkpt lat="47.45872" lon="8.24714">
        <ele>350.4</ele>
        <time>2022-10-02T12:49:03Z</time>
      </trkpt>
      <trkpt lat="47.45872" lon="8.24716">
        <ele>350.5</ele>
        <time>2022-10-02T12:49:04Z</time>
      </trkpt>
      <trkpt lat="47.45873" lon="8.24718">
        <ele>350.7</ele>
        <time>2022-10-02T12:49:05Z</time>
      </trkpt>
      <trkpt lat="47.45874" lon="8.2472">
        <ele>350.9</ele>
        <time>2022-10-02T12:49:06Z</time>
      </trkpt>
      <trkpt lat="47.45875" lon="8.24721">
        <ele>351.1</ele>
        <time>2022-10-02T12:49:07Z</time>
      </trkpt>
      <trkpt lat="47.45876" lon="8.24722">
        <ele>351.2</ele>
        <time>2022-10-02T12:49:08Z</time>
      </trkpt>
      <trkpt lat="47.45877" lon="8.24724">
        <ele>351.4</ele>
        <time>2022-10-02T12:49:09Z</time>
      </trkpt>
      <trkpt lat="47.45878" lon="8.24725">
        <ele>351.5</ele>
        <time>2022-10-02T12:49:10Z</time>
      </trkpt>
      <trkpt lat="47.4588" lon="8.24726">
        <ele>351.8</ele>
        <time>2022-10-02T12:49:11Z</time>
      </trkpt>
      <trkpt lat="47.45881" lon="8.24727">
        <ele>351.9</ele>
        <time>2022-10-02T12:49:12Z</time>
      </trkpt>
      <trkpt lat="47.45883" lon="8.24726">
        <ele>352.2</ele>
        <time>2022-10-02T12:49:13Z</time>
      </trkpt>
      <trkpt lat="47.45885" lon="8.24726">
        <ele>352.5</ele>
        <time>2022-10-02T12:49:14Z</time>
      </trkpt>
      <trkpt lat="47.45886" lon="8.24724">
        <ele>352.7</ele>
        <time>2022-10-02T12:49:15Z</time>
      </trkpt>
      <trkpt lat="47.45888" lon="8.24723">
        <ele>352.9</ele>
        <time>2022-10-02T12:49:16Z</time>
      </trkpt>
      <trkpt lat="47.4589" lon="8.24721">
        <ele>353</ele>
        <time>2022-10-02T12:49:17Z</time>
      </trkpt>
      <trkpt lat="47.45891" lon="8.24719">
        <ele>353.1</ele>
        <time>2022-10-02T12:49:18Z</time>
      </trkpt>
      <trkpt lat="47.45892" lon="8.24717">
        <ele>353.3</ele>
        <time>2022-10-02T12:49:19Z</time>
      </trkpt>
      <trkpt lat="47.45892" lon="8.24715">
        <ele>353.4</ele>
        <time>2022-10-02T12:49:20Z</time>
      </trkpt>
      <trkpt lat="47.45892" lon="8.24711">
        <ele>353.6</ele>
        <time>2022-10-02T12:49:21Z</time>
      </trkpt>
      <trkpt lat="47.45892" lon="8.2471">
        <ele>353.7</ele>
        <time>2022-10-02T12:49:22Z</time>
      </trkpt>
      <trkpt lat="47.45892" lon="8.24707">
        <ele>353.8</ele>
        <time>2022-10-02T12:49:23Z</time>
      </trkpt>
      <trkpt lat="47.45892" lon="8.24705">
        <ele>353.9</ele>
        <time>2022-10-02T12:49:24Z</time>
      </trkpt>
      <trkpt lat="47.45893" lon="8.24703">
        <ele>354</ele>
        <time>2022-10-02T12:49:25Z</time>
      </trkpt>
      <trkpt lat="47.45894" lon="8.24701">
        <ele>354.1</ele>
        <time>2022-10-02T12:49:26Z</time>
      </trkpt>
      <trkpt lat="47.45895" lon="8.24697">
        <ele>354.3</ele>
        <time>2022-10-02T12:49:27Z</time>
      </trkpt>
      <trkpt lat="47.45895" lon="8.24696">
        <ele>354.4</ele>
        <time>2022-10-02T12:49:28Z</time>
      </trkpt>
      <trkpt lat="47.45896" lon="8.24693">
        <ele>354.5</ele>
        <time>2022-10-02T12:49:29Z</time>
      </trkpt>
      <trkpt lat="47.45896" lon="8.24691">
        <ele>354.6</ele>
        <time>2022-10-02T12:49:30Z</time>
      </trkpt>
      <trkpt lat="47.45897" lon="8.24689">
        <ele>354.7</ele>
        <time>2022-10-02T12:49:31Z</time>
      </trkpt>
      <trkpt lat="47.45898" lon="8.24687">
        <ele>354.8</ele>
        <time>2022-10-02T12:49:32Z</time>
      </trkpt>
      <trkpt lat="47.45899" lon="8.24685">
        <ele>354.9</ele>
        <time>2022-10-02T12:49:33Z</time>
      </trkpt>
      <trkpt lat="47.45899" lon="8.24682">
        <ele>355.1</ele>
        <time>2022-10-02T12:49:34Z</time>
      </trkpt>
      <trkpt lat="47.459" lon="8.2468">
        <ele>355.2</ele>
        <time>2022-10-02T12:49:35Z</time>
      </trkpt>
      <trkpt lat="47.45901" lon="8.24678">
        <ele>355.3</ele>
        <time>2022-10-02T12:49:37Z</time>
      </trkpt>
      <trkpt lat="47.45902" lon="8.24677">
        <ele>355.4</ele>
        <time>2022-10-02T12:49:38Z</time>
      </trkpt>
      <trkpt lat="47.45903" lon="8.24675">
        <ele>355.5</ele>
        <time>2022-10-02T12:49:39Z</time>
      </trkpt>
      <trkpt lat="47.45904" lon="8.24672">
        <ele>355.7</ele>
        <time>2022-10-02T12:49:40Z</time>
      </trkpt>
      <trkpt lat="47.45904" lon="8.2467">
        <ele>355.8</ele>
        <time>2022-10-02T12:49:41Z</time>
      </trkpt>
      <trkpt lat="47.45905" lon="8.24668">
        <ele>355.9</ele>
        <time>2022-10-02T12:49:42Z</time>
      </trkpt>
      <trkpt lat="47.45906" lon="8.24667">
        <ele>356</ele>
        <time>2022-10-02T12:49:43Z</time>
      </trkpt>
      <trkpt lat="47.45907" lon="8.24665">
        <ele>356.2</ele>
        <time>2022-10-02T12:49:44Z</time>
      </trkpt>
      <trkpt lat="47.45908" lon="8.24662">
        <ele>356.3</ele>
        <time>2022-10-02T12:49:45Z</time>
      </trkpt>
      <trkpt lat="47.45909" lon="8.24661">
        <ele>356.4</ele>
        <time>2022-10-02T12:49:46Z</time>
      </trkpt>
      <trkpt lat="47.4591" lon="8.24659">
        <ele>356.6</ele>
        <time>2022-10-02T12:49:47Z</time>
      </trkpt>
      <trkpt lat="47.45911" lon="8.24657">
        <ele>356.7</ele>
        <time>2022-10-02T12:49:48Z</time>
      </trkpt>
      <trkpt lat="47.45913" lon="8.24655">
        <ele>356.9</ele>
        <time>2022-10-02T12:49:49Z</time>
      </trkpt>
      <trkpt lat="47.45914" lon="8.24653">
        <ele>357</ele>
        <time>2022-10-02T12:49:50Z</time>
      </trkpt>
      <trkpt lat="47.45915" lon="8.24652">
        <ele>357.2</ele>
        <time>2022-10-02T12:49:51Z</time>
      </trkpt>
      <trkpt lat="47.45916" lon="8.2465">
        <ele>357.3</ele>
        <time>2022-10-02T12:49:52Z</time>
      </trkpt>
      <trkpt lat="47.45917" lon="8.24649">
        <ele>357.5</ele>
        <time>2022-10-02T12:49:53Z</time>
      </trkpt>
      <trkpt lat="47.45919" lon="8.24647">
        <ele>357.6</ele>
        <time>2022-10-02T12:49:54Z</time>
      </trkpt>
      <trkpt lat="47.4592" lon="8.24646">
        <ele>357.8</ele>
        <time>2022-10-02T12:49:55Z</time>
      </trkpt>
      <trkpt lat="47.45921" lon="8.24644">
        <ele>357.9</ele>
        <time>2022-10-02T12:49:56Z</time>
      </trkpt>
      <trkpt lat="47.45922" lon="8.24642">
        <ele>358.1</ele>
        <time>2022-10-02T12:49:57Z</time>
      </trkpt>
      <trkpt lat="47.45923" lon="8.2464">
        <ele>358.3</ele>
        <time>2022-10-02T12:49:58Z</time>
      </trkpt>
      <trkpt lat="47.45924" lon="8.24638">
        <ele>358.4</ele>
        <time>2022-10-02T12:49:59Z</time>
      </trkpt>
      <trkpt lat="47.45925" lon="8.24637">
        <ele>358.6</ele>
        <time>2022-10-02T12:50:00Z</time>
      </trkpt>
      <trkpt lat="47.45926" lon="8.24635">
        <ele>358.7</ele>
        <time>2022-10-02T12:50:01Z</time>
      </trkpt>
      <trkpt lat="47.45927" lon="8.24634">
        <ele>358.9</ele>
        <time>2022-10-02T12:50:02Z</time>
      </trkpt>
      <trkpt lat="47.45929" lon="8.24632">
        <ele>359.1</ele>
        <time>2022-10-02T12:50:03Z</time>
      </trkpt>
      <trkpt lat="47.4593" lon="8.2463">
        <ele>359.2</ele>
        <time>2022-10-02T12:50:04Z</time>
      </trkpt>
      <trkpt lat="47.45931" lon="8.24628">
        <ele>359.4</ele>
        <time>2022-10-02T12:50:05Z</time>
      </trkpt>
      <trkpt lat="47.45932" lon="8.24626">
        <ele>359.6</ele>
        <time>2022-10-02T12:50:06Z</time>
      </trkpt>
      <trkpt lat="47.45933" lon="8.24624">
        <ele>359.7</ele>
        <time>2022-10-02T12:50:07Z</time>
      </trkpt>
      <trkpt lat="47.45934" lon="8.24623">
        <ele>359.9</ele>
        <time>2022-10-02T12:50:08Z</time>
      </trkpt>
      <trkpt lat="47.45935" lon="8.24621">
        <ele>360</ele>
        <time>2022-10-02T12:50:09Z</time>
      </trkpt>
      <trkpt lat="47.45936" lon="8.2462">
        <ele>360.2</ele>
        <time>2022-10-02T12:50:10Z</time>
      </trkpt>
      <trkpt lat="47.45937" lon="8.24619">
        <ele>360.3</ele>
        <time>2022-10-02T12:50:11Z</time>
      </trkpt>
      <trkpt lat="47.45938" lon="8.24617">
        <ele>360.4</ele>
        <time>2022-10-02T12:50:12Z</time>
      </trkpt>
      <trkpt lat="47.4594" lon="8.24615">
        <ele>360.7</ele>
        <time>2022-10-02T12:50:13Z</time>
      </trkpt>
      <trkpt lat="47.4594" lon="8.24614">
        <ele>360.7</ele>
        <time>2022-10-02T12:50:14Z</time>
      </trkpt>
      <trkpt lat="47.45941" lon="8.24613">
        <ele>360.9</ele>
        <time>2022-10-02T12:50:15Z</time>
      </trkpt>
      <trkpt lat="47.45943" lon="8.24611">
        <ele>361.1</ele>
        <time>2022-10-02T12:50:16Z</time>
      </trkpt>
      <trkpt lat="47.45944" lon="8.2461">
        <ele>361.2</ele>
        <time>2022-10-02T12:50:17Z</time>
      </trkpt>
      <trkpt lat="47.45945" lon="8.24609">
        <ele>361.3</ele>
        <time>2022-10-02T12:50:18Z</time>
      </trkpt>
      <trkpt lat="47.45946" lon="8.24609">
        <ele>361.5</ele>
        <time>2022-10-02T12:50:19Z</time>
      </trkpt>
      <trkpt lat="47.45947" lon="8.24608">
        <ele>361.6</ele>
        <time>2022-10-02T12:50:20Z</time>
      </trkpt>
      <trkpt lat="47.45948" lon="8.24607">
        <ele>361.7</ele>
        <time>2022-10-02T12:50:21Z</time>
      </trkpt>
      <trkpt lat="47.45948" lon="8.24605">
        <ele>361.8</ele>
        <time>2022-10-02T12:50:22Z</time>
      </trkpt>
      <trkpt lat="47.45947" lon="8.24603">
        <ele>361.8</ele>
        <time>2022-10-02T12:50:23Z</time>
      </trkpt>
      <trkpt lat="47.45945" lon="8.24603">
        <ele>361.8</ele>
        <time>2022-10-02T12:50:24Z</time>
      </trkpt>
      <trkpt lat="47.45944" lon="8.24603">
        <ele>361.8</ele>
        <time>2022-10-02T12:50:25Z</time>
      </trkpt>
      <trkpt lat="47.45942" lon="8.24602">
        <ele>361.8</ele>
        <time>2022-10-02T12:50:26Z</time>
      </trkpt>
      <trkpt lat="47.45942" lon="8.24601">
        <ele>361.8</ele>
        <time>2022-10-02T12:50:27Z</time>
      </trkpt>
      <trkpt lat="47.45941" lon="8.24602">
        <ele>361.8</ele>
        <time>2022-10-02T12:50:28Z</time>
      </trkpt>
      <trkpt lat="47.45941" lon="8.24606">
        <ele>361.8</ele>
        <time>2022-10-02T12:50:29Z</time>
      </trkpt>
      <trkpt lat="47.45941" lon="8.24611">
        <ele>361.8</ele>
        <time>2022-10-02T12:50:30Z</time>
      </trkpt>
      <trkpt lat="47.45941" lon="8.24615">
        <ele>361.9</ele>
        <time>2022-10-02T12:50:31Z</time>
      </trkpt>
      <trkpt lat="47.45941" lon="8.2462">
        <ele>362</ele>
        <time>2022-10-02T12:50:32Z</time>
      </trkpt>
      <trkpt lat="47.45941" lon="8.24624">
        <ele>362.2</ele>
        <time>2022-10-02T12:50:33Z</time>
      </trkpt>
      <trkpt lat="47.4594" lon="8.24628">
        <ele>362.4</ele>
        <time>2022-10-02T12:50:34Z</time>
      </trkpt>
      <trkpt lat="47.4594" lon="8.24633">
        <ele>362.5</ele>
        <time>2022-10-02T12:50:35Z</time>
      </trkpt>
      <trkpt lat="47.4594" lon="8.24637">
        <ele>362.6</ele>
        <time>2022-10-02T12:50:36Z</time>
      </trkpt>
      <trkpt lat="47.4594" lon="8.24641">
        <ele>362.7</ele>
        <time>2022-10-02T12:52:25Z</time>
      </trkpt>
      <trkpt lat="47.4594" lon="8.24646">
        <ele>362.8</ele>
        <time>2022-10-02T12:52:26Z</time>
      </trkpt>
      <trkpt lat="47.45938" lon="8.24649">
        <ele>362.9</ele>
        <time>2022-10-02T12:52:27Z</time>
      </trkpt>
      <trkpt lat="47.45937" lon="8.2465">
        <ele>362.9</ele>
        <time>2022-10-02T12:52:28Z</time>
      </trkpt>
      <trkpt lat="47.45936" lon="8.24653">
        <ele>362.9</ele>
        <time>2022-10-02T12:52:29Z</time>
      </trkpt>
      <trkpt lat="47.45936" lon="8.24655">
        <ele>362.9</ele>
        <time>2022-10-02T12:52:30Z</time>
      </trkpt>
      <trkpt lat="47.45936" lon="8.24658">
        <ele>362.9</ele>
        <time>2022-10-02T12:52:31Z</time>
      </trkpt>
      <trkpt lat="47.45935" lon="8.2466">
        <ele>362.9</ele>
        <time>2022-10-02T12:52:32Z</time>
      </trkpt>
      <trkpt lat="47.45933" lon="8.24664">
        <ele>362.8</ele>
        <time>2022-10-02T12:52:33Z</time>
      </trkpt>
      <trkpt lat="47.45933" lon="8.24666">
        <ele>362.8</ele>
        <time>2022-10-02T12:52:34Z</time>
      </trkpt>
      <trkpt lat="47.45931" lon="8.2467">
        <ele>362.7</ele>
        <time>2022-10-02T12:52:35Z</time>
      </trkpt>
      <trkpt lat="47.4593" lon="8.24675">
        <ele>362.6</ele>
        <time>2022-10-02T12:52:36Z</time>
      </trkpt>
      <trkpt lat="47.45928" lon="8.24681">
        <ele>362.5</ele>
        <time>2022-10-02T12:52:37Z</time>
      </trkpt>
      <trkpt lat="47.45926" lon="8.24687">
        <ele>362.3</ele>
        <time>2022-10-02T12:52:38Z</time>
      </trkpt>
      <trkpt lat="47.45925" lon="8.24693">
        <ele>362.1</ele>
        <time>2022-10-02T12:52:39Z</time>
      </trkpt>
      <trkpt lat="47.45923" lon="8.247">
        <ele>361.9</ele>
        <time>2022-10-02T12:52:40Z</time>
      </trkpt>
      <trkpt lat="47.45921" lon="8.24708">
        <ele>361.6</ele>
        <time>2022-10-02T12:52:41Z</time>
      </trkpt>
      <trkpt lat="47.45919" lon="8.24715">
        <ele>361.4</ele>
        <time>2022-10-02T12:52:42Z</time>
      </trkpt>
      <trkpt lat="47.45916" lon="8.24723">
        <ele>361.1</ele>
        <time>2022-10-02T12:52:43Z</time>
      </trkpt>
      <trkpt lat="47.45914" lon="8.24731">
        <ele>360.8</ele>
        <time>2022-10-02T12:52:44Z</time>
      </trkpt>
      <trkpt lat="47.45911" lon="8.24739">
        <ele>360.6</ele>
        <time>2022-10-02T12:52:45Z</time>
      </trkpt>
      <trkpt lat="47.45908" lon="8.24748">
        <ele>360.4</ele>
        <time>2022-10-02T12:52:46Z</time>
      </trkpt>
      <trkpt lat="47.45906" lon="8.24756">
        <ele>360.2</ele>
        <time>2022-10-02T12:52:47Z</time>
      </trkpt>
      <trkpt lat="47.45904" lon="8.24765">
        <ele>360.1</ele>
        <time>2022-10-02T12:52:48Z</time>
      </trkpt>
      <trkpt lat="47.45901" lon="8.24773">
        <ele>360</ele>
        <time>2022-10-02T12:52:49Z</time>
      </trkpt>
      <trkpt lat="47.45899" lon="8.24781">
        <ele>360</ele>
        <time>2022-10-02T12:52:50Z</time>
      </trkpt>
      <trkpt lat="47.45897" lon="8.24789">
        <ele>360</ele>
        <time>2022-10-02T12:52:51Z</time>
      </trkpt>
      <trkpt lat="47.45895" lon="8.24796">
        <ele>360.1</ele>
        <time>2022-10-02T12:52:52Z</time>
      </trkpt>
      <trkpt lat="47.45892" lon="8.24804">
        <ele>360.3</ele>
        <time>2022-10-02T12:52:53Z</time>
      </trkpt>
      <trkpt lat="47.4589" lon="8.24811">
        <ele>360.4</ele>
        <time>2022-10-02T12:52:54Z</time>
      </trkpt>
      <trkpt lat="47.45889" lon="8.24818">
        <ele>360.6</ele>
        <time>2022-10-02T12:52:55Z</time>
      </trkpt>
      <trkpt lat="47.45887" lon="8.24824">
        <ele>360.7</ele>
        <time>2022-10-02T12:52:56Z</time>
      </trkpt>
      <trkpt lat="47.45886" lon="8.2483">
        <ele>360.8</ele>
        <time>2022-10-02T12:52:57Z</time>
      </trkpt>
      <trkpt lat="47.45884" lon="8.24836">
        <ele>361</ele>
        <time>2022-10-02T12:52:58Z</time>
      </trkpt>
      <trkpt lat="47.45883" lon="8.24841">
        <ele>361.1</ele>
        <time>2022-10-02T12:52:59Z</time>
      </trkpt>
      <trkpt lat="47.45882" lon="8.24847">
        <ele>361.2</ele>
        <time>2022-10-02T12:53:00Z</time>
      </trkpt>
      <trkpt lat="47.45881" lon="8.24852">
        <ele>361.3</ele>
        <time>2022-10-02T12:53:01Z</time>
      </trkpt>
      <trkpt lat="47.45881" lon="8.24856">
        <ele>361.5</ele>
        <time>2022-10-02T12:53:02Z</time>
      </trkpt>
      <trkpt lat="47.4588" lon="8.2486">
        <ele>361.6</ele>
        <time>2022-10-02T12:53:03Z</time>
      </trkpt>
      <trkpt lat="47.45879" lon="8.24865">
        <ele>361.7</ele>
        <time>2022-10-02T12:53:04Z</time>
      </trkpt>
      <trkpt lat="47.45879" lon="8.2487">
        <ele>361.8</ele>
        <time>2022-10-02T12:53:05Z</time>
      </trkpt>
      <trkpt lat="47.45876" lon="8.24874">
        <ele>361.8</ele>
        <time>2022-10-02T12:53:06Z</time>
      </trkpt>
      <trkpt lat="47.45875" lon="8.24879">
        <ele>361.9</ele>
        <time>2022-10-02T12:53:07Z</time>
      </trkpt>
      <trkpt lat="47.45873" lon="8.24884">
        <ele>362</ele>
        <time>2022-10-02T12:53:08Z</time>
      </trkpt>
      <trkpt lat="47.45871" lon="8.24889">
        <ele>362</ele>
        <time>2022-10-02T12:53:09Z</time>
      </trkpt>
      <trkpt lat="47.45871" lon="8.24896">
        <ele>362.1</ele>
        <time>2022-10-02T12:53:10Z</time>
      </trkpt>
      <trkpt lat="47.45869" lon="8.24902">
        <ele>362.1</ele>
        <time>2022-10-02T12:53:11Z</time>
      </trkpt>
      <trkpt lat="47.45867" lon="8.24909">
        <ele>362.1</ele>
        <time>2022-10-02T12:53:12Z</time>
      </trkpt>
      <trkpt lat="47.45866" lon="8.24916">
        <ele>362.1</ele>
        <time>2022-10-02T12:53:13Z</time>
      </trkpt>
      <trkpt lat="47.45864" lon="8.24924">
        <ele>362.2</ele>
        <time>2022-10-02T12:53:14Z</time>
      </trkpt>
      <trkpt lat="47.45862" lon="8.24932">
        <ele>362.2</ele>
        <time>2022-10-02T12:53:15Z</time>
      </trkpt>
      <trkpt lat="47.45861" lon="8.24941">
        <ele>362.2</ele>
        <time>2022-10-02T12:53:16Z</time>
      </trkpt>
      <trkpt lat="47.45859" lon="8.24949">
        <ele>362.3</ele>
        <time>2022-10-02T12:53:17Z</time>
      </trkpt>
      <trkpt lat="47.45857" lon="8.24957">
        <ele>362.5</ele>
        <time>2022-10-02T12:53:18Z</time>
      </trkpt>
      <trkpt lat="47.45855" lon="8.24965">
        <ele>362.6</ele>
        <time>2022-10-02T12:53:19Z</time>
      </trkpt>
      <trkpt lat="47.45855" lon="8.24972">
        <ele>362.8</ele>
        <time>2022-10-02T12:53:20Z</time>
      </trkpt>
      <trkpt lat="47.45854" lon="8.24978">
        <ele>363</ele>
        <time>2022-10-02T12:53:21Z</time>
      </trkpt>
      <trkpt lat="47.45854" lon="8.24983">
        <ele>363.2</ele>
        <time>2022-10-02T12:53:22Z</time>
      </trkpt>
      <trkpt lat="47.45854" lon="8.24988">
        <ele>363.4</ele>
        <time>2022-10-02T12:53:23Z</time>
      </trkpt>
      <trkpt lat="47.45856" lon="8.24991">
        <ele>363.5</ele>
        <time>2022-10-02T12:53:24Z</time>
      </trkpt>
      <trkpt lat="47.45857" lon="8.24995">
        <ele>363.6</ele>
        <time>2022-10-02T12:53:25Z</time>
      </trkpt>
      <trkpt lat="47.45858" lon="8.24996">
        <ele>363.7</ele>
        <time>2022-10-02T12:53:26Z</time>
      </trkpt>
      <trkpt lat="47.45859" lon="8.24998">
        <ele>363.7</ele>
        <time>2022-10-02T12:53:27Z</time>
      </trkpt>
      <trkpt lat="47.4586" lon="8.24999">
        <ele>363.8</ele>
        <time>2022-10-02T12:53:28Z</time>
      </trkpt>
      <trkpt lat="47.45862" lon="8.25">
        <ele>363.9</ele>
        <time>2022-10-02T12:53:29Z</time>
      </trkpt>
      <trkpt lat="47.45863" lon="8.25001">
        <ele>363.9</ele>
        <time>2022-10-02T12:53:30Z</time>
      </trkpt>
      <trkpt lat="47.45864" lon="8.25002">
        <ele>363.9</ele>
        <time>2022-10-02T12:53:31Z</time>
      </trkpt>
      <trkpt lat="47.45865" lon="8.25004">
        <ele>364</ele>
        <time>2022-10-02T12:53:32Z</time>
      </trkpt>
      <trkpt lat="47.45866" lon="8.25005">
        <ele>364.1</ele>
        <time>2022-10-02T12:53:33Z</time>
      </trkpt>
      <trkpt lat="47.45866" lon="8.25006">
        <ele>364.1</ele>
        <time>2022-10-02T12:53:34Z</time>
      </trkpt>
      <trkpt lat="47.45868" lon="8.25009">
        <ele>364.3</ele>
        <time>2022-10-02T12:53:35Z</time>
      </trkpt>
      <trkpt lat="47.45869" lon="8.2501">
        <ele>364.4</ele>
        <time>2022-10-02T12:53:36Z</time>
      </trkpt>
      <trkpt lat="47.45869" lon="8.25016">
        <ele>364.7</ele>
        <time>2022-10-02T12:53:37Z</time>
      </trkpt>
      <trkpt lat="47.45869" lon="8.2502">
        <ele>364.9</ele>
        <time>2022-10-02T12:53:38Z</time>
      </trkpt>
      <trkpt lat="47.45869" lon="8.25024">
        <ele>365</ele>
        <time>2022-10-02T12:53:41Z</time>
      </trkpt>
      <trkpt lat="47.45869" lon="8.25027">
        <ele>365.2</ele>
        <time>2022-10-02T12:53:42Z</time>
      </trkpt>
      <trkpt lat="47.4587" lon="8.25032">
        <ele>365.4</ele>
        <time>2022-10-02T12:53:43Z</time>
      </trkpt>
      <trkpt lat="47.4587" lon="8.25035">
        <ele>365.4</ele>
        <time>2022-10-02T12:53:44Z</time>
      </trkpt>
      <trkpt lat="47.45869" lon="8.2504">
        <ele>365.6</ele>
        <time>2022-10-02T12:53:45Z</time>
      </trkpt>
      <trkpt lat="47.45869" lon="8.25042">
        <ele>365.6</ele>
        <time>2022-10-02T12:53:46Z</time>
      </trkpt>
      <trkpt lat="47.45868" lon="8.25047">
        <ele>365.8</ele>
        <time>2022-10-02T12:53:47Z</time>
      </trkpt>
      <trkpt lat="47.45867" lon="8.25052">
        <ele>365.9</ele>
        <time>2022-10-02T12:53:49Z</time>
      </trkpt>
      <trkpt lat="47.45866" lon="8.25056">
        <ele>366</ele>
        <time>2022-10-02T12:53:50Z</time>
      </trkpt>
      <trkpt lat="47.45866" lon="8.25062">
        <ele>366.1</ele>
        <time>2022-10-02T12:53:51Z</time>
      </trkpt>
      <trkpt lat="47.45866" lon="8.25067">
        <ele>366.1</ele>
        <time>2022-10-02T12:53:52Z</time>
      </trkpt>
      <trkpt lat="47.45865" lon="8.25072">
        <ele>366.2</ele>
        <time>2022-10-02T12:53:53Z</time>
      </trkpt>
      <trkpt lat="47.45864" lon="8.25077">
        <ele>366.3</ele>
        <time>2022-10-02T12:53:54Z</time>
      </trkpt>
      <trkpt lat="47.45864" lon="8.25082">
        <ele>366.4</ele>
        <time>2022-10-02T12:53:55Z</time>
      </trkpt>
      <trkpt lat="47.45863" lon="8.25088">
        <ele>366.4</ele>
        <time>2022-10-02T12:53:56Z</time>
      </trkpt>
      <trkpt lat="47.45863" lon="8.25093">
        <ele>366.5</ele>
        <time>2022-10-02T12:53:57Z</time>
      </trkpt>
      <trkpt lat="47.45862" lon="8.25099">
        <ele>366.6</ele>
        <time>2022-10-02T12:53:58Z</time>
      </trkpt>
      <trkpt lat="47.45862" lon="8.25104">
        <ele>366.6</ele>
        <time>2022-10-02T12:53:59Z</time>
      </trkpt>
      <trkpt lat="47.45862" lon="8.25109">
        <ele>366.7</ele>
        <time>2022-10-02T12:54:00Z</time>
      </trkpt>
      <trkpt lat="47.45861" lon="8.25113">
        <ele>366.8</ele>
        <time>2022-10-02T12:54:01Z</time>
      </trkpt>
      <trkpt lat="47.4586" lon="8.25117">
        <ele>366.8</ele>
        <time>2022-10-02T12:54:02Z</time>
      </trkpt>
      <trkpt lat="47.45858" lon="8.25122">
        <ele>366.9</ele>
        <time>2022-10-02T12:54:03Z</time>
      </trkpt>
      <trkpt lat="47.45858" lon="8.25126">
        <ele>366.9</ele>
        <time>2022-10-02T12:54:04Z</time>
      </trkpt>
      <trkpt lat="47.45858" lon="8.2513">
        <ele>367</ele>
        <time>2022-10-02T12:54:05Z</time>
      </trkpt>
      <trkpt lat="47.45856" lon="8.25135">
        <ele>367.1</ele>
        <time>2022-10-02T12:54:06Z</time>
      </trkpt>
      <trkpt lat="47.45855" lon="8.2514">
        <ele>367.1</ele>
        <time>2022-10-02T12:54:07Z</time>
      </trkpt>
      <trkpt lat="47.45855" lon="8.25146">
        <ele>367.1</ele>
        <time>2022-10-02T12:54:08Z</time>
      </trkpt>
      <trkpt lat="47.45855" lon="8.25148">
        <ele>367.2</ele>
        <time>2022-10-02T12:54:09Z</time>
      </trkpt>
      <trkpt lat="47.45855" lon="8.25154">
        <ele>367.2</ele>
        <time>2022-10-02T12:54:10Z</time>
      </trkpt>
      <trkpt lat="47.45855" lon="8.25158">
        <ele>367.2</ele>
        <time>2022-10-02T12:54:11Z</time>
      </trkpt>
      <trkpt lat="47.45854" lon="8.25164">
        <ele>367.2</ele>
        <time>2022-10-02T12:54:12Z</time>
      </trkpt>
      <trkpt lat="47.45852" lon="8.25169">
        <ele>367.3</ele>
        <time>2022-10-02T12:54:13Z</time>
      </trkpt>
      <trkpt lat="47.45851" lon="8.25175">
        <ele>367.3</ele>
        <time>2022-10-02T12:54:14Z</time>
      </trkpt>
      <trkpt lat="47.4585" lon="8.2518">
        <ele>367.3</ele>
        <time>2022-10-02T12:54:15Z</time>
      </trkpt>
      <trkpt lat="47.45849" lon="8.25186">
        <ele>367.3</ele>
        <time>2022-10-02T12:54:16Z</time>
      </trkpt>
      <trkpt lat="47.45848" lon="8.25193">
        <ele>367.4</ele>
        <time>2022-10-02T12:54:17Z</time>
      </trkpt>
      <trkpt lat="47.45847" lon="8.25199">
        <ele>367.4</ele>
        <time>2022-10-02T12:54:18Z</time>
      </trkpt>
      <trkpt lat="47.45845" lon="8.25205">
        <ele>367.4</ele>
        <time>2022-10-02T12:54:19Z</time>
      </trkpt>
      <trkpt lat="47.45844" lon="8.25212">
        <ele>367.4</ele>
        <time>2022-10-02T12:54:20Z</time>
      </trkpt>
      <trkpt lat="47.45842" lon="8.25219">
        <ele>367.4</ele>
        <time>2022-10-02T12:54:21Z</time>
      </trkpt>
      <trkpt lat="47.4584" lon="8.25225">
        <ele>367.5</ele>
        <time>2022-10-02T12:54:22Z</time>
      </trkpt>
      <trkpt lat="47.45838" lon="8.25232">
        <ele>367.5</ele>
        <time>2022-10-02T12:54:23Z</time>
      </trkpt>
      <trkpt lat="47.45837" lon="8.25238">
        <ele>367.5</ele>
        <time>2022-10-02T12:54:24Z</time>
      </trkpt>
      <trkpt lat="47.45835" lon="8.25244">
        <ele>367.6</ele>
        <time>2022-10-02T12:54:25Z</time>
      </trkpt>
      <trkpt lat="47.45834" lon="8.25251">
        <ele>367.6</ele>
        <time>2022-10-02T12:54:26Z</time>
      </trkpt>
      <trkpt lat="47.45833" lon="8.25258">
        <ele>367.7</ele>
        <time>2022-10-02T12:54:27Z</time>
      </trkpt>
      <trkpt lat="47.45833" lon="8.25262">
        <ele>367.7</ele>
        <time>2022-10-02T12:54:28Z</time>
      </trkpt>
      <trkpt lat="47.45835" lon="8.25267">
        <ele>367.8</ele>
        <time>2022-10-02T12:54:29Z</time>
      </trkpt>
      <trkpt lat="47.45836" lon="8.25272">
        <ele>367.8</ele>
        <time>2022-10-02T12:54:30Z</time>
      </trkpt>
      <trkpt lat="47.45839" lon="8.25278">
        <ele>367.8</ele>
        <time>2022-10-02T12:54:31Z</time>
      </trkpt>
      <trkpt lat="47.45841" lon="8.25282">
        <ele>367.9</ele>
        <time>2022-10-02T12:54:32Z</time>
      </trkpt>
      <trkpt lat="47.45844" lon="8.25286">
        <ele>367.9</ele>
        <time>2022-10-02T12:54:33Z</time>
      </trkpt>
      <trkpt lat="47.45846" lon="8.25289">
        <ele>367.9</ele>
        <time>2022-10-02T12:54:34Z</time>
      </trkpt>
      <trkpt lat="47.45849" lon="8.25294">
        <ele>368</ele>
        <time>2022-10-02T12:54:35Z</time>
      </trkpt>
      <trkpt lat="47.45852" lon="8.25297">
        <ele>368</ele>
        <time>2022-10-02T12:54:36Z</time>
      </trkpt>
      <trkpt lat="47.45855" lon="8.25302">
        <ele>368.1</ele>
        <time>2022-10-02T12:54:37Z</time>
      </trkpt>
      <trkpt lat="47.45859" lon="8.25306">
        <ele>368.1</ele>
        <time>2022-10-02T12:54:38Z</time>
      </trkpt>
      <trkpt lat="47.45861" lon="8.25312">
        <ele>368.2</ele>
        <time>2022-10-02T12:54:39Z</time>
      </trkpt>
      <trkpt lat="47.45865" lon="8.25316">
        <ele>368.3</ele>
        <time>2022-10-02T12:54:40Z</time>
      </trkpt>
      <trkpt lat="47.45868" lon="8.25321">
        <ele>368.3</ele>
        <time>2022-10-02T12:54:41Z</time>
      </trkpt>
      <trkpt lat="47.45871" lon="8.25326">
        <ele>368.4</ele>
        <time>2022-10-02T12:54:42Z</time>
      </trkpt>
      <trkpt lat="47.45874" lon="8.2533">
        <ele>368.5</ele>
        <time>2022-10-02T12:54:43Z</time>
      </trkpt>
      <trkpt lat="47.45878" lon="8.25336">
        <ele>368.5</ele>
        <time>2022-10-02T12:54:44Z</time>
      </trkpt>
      <trkpt lat="47.45881" lon="8.2534">
        <ele>368.6</ele>
        <time>2022-10-02T12:54:45Z</time>
      </trkpt>
      <trkpt lat="47.45884" lon="8.25345">
        <ele>368.7</ele>
        <time>2022-10-02T12:54:46Z</time>
      </trkpt>
      <trkpt lat="47.45886" lon="8.25349">
        <ele>368.7</ele>
        <time>2022-10-02T12:54:47Z</time>
      </trkpt>
      <trkpt lat="47.45889" lon="8.25353">
        <ele>368.9</ele>
        <time>2022-10-02T12:54:48Z</time>
      </trkpt>
      <trkpt lat="47.45891" lon="8.25356">
        <ele>368.9</ele>
        <time>2022-10-02T12:54:49Z</time>
      </trkpt>
      <trkpt lat="47.45893" lon="8.2536">
        <ele>369</ele>
        <time>2022-10-02T12:54:50Z</time>
      </trkpt>
      <trkpt lat="47.45895" lon="8.25364">
        <ele>369.1</ele>
        <time>2022-10-02T12:54:51Z</time>
      </trkpt>
      <trkpt lat="47.45896" lon="8.25367">
        <ele>369.2</ele>
        <time>2022-10-02T12:54:52Z</time>
      </trkpt>
      <trkpt lat="47.45897" lon="8.25369">
        <ele>369.5</ele>
        <time>2022-10-02T12:54:53Z</time>
      </trkpt>
      <trkpt lat="47.45897" lon="8.25372">
        <ele>369.5</ele>
        <time>2022-10-02T12:54:54Z</time>
      </trkpt>
      <trkpt lat="47.45897" lon="8.25375">
        <ele>369.6</ele>
        <time>2022-10-02T12:54:55Z</time>
      </trkpt>
      <trkpt lat="47.45895" lon="8.25379">
        <ele>369.6</ele>
        <time>2022-10-02T12:54:56Z</time>
      </trkpt>
      <trkpt lat="47.45893" lon="8.25382">
        <ele>369.6</ele>
        <time>2022-10-02T12:54:57Z</time>
      </trkpt>
      <trkpt lat="47.4589" lon="8.25385">
        <ele>369.6</ele>
        <time>2022-10-02T12:54:58Z</time>
      </trkpt>
      <trkpt lat="47.45889" lon="8.25389">
        <ele>369.7</ele>
        <time>2022-10-02T12:54:59Z</time>
      </trkpt>
      <trkpt lat="47.45886" lon="8.25393">
        <ele>369.7</ele>
        <time>2022-10-02T12:55:00Z</time>
      </trkpt>
      <trkpt lat="47.45884" lon="8.25396">
        <ele>369.7</ele>
        <time>2022-10-02T12:55:01Z</time>
      </trkpt>
      <trkpt lat="47.45881" lon="8.25399">
        <ele>369.8</ele>
        <time>2022-10-02T12:55:02Z</time>
      </trkpt>
      <trkpt lat="47.45879" lon="8.25403">
        <ele>369.8</ele>
        <time>2022-10-02T12:55:03Z</time>
      </trkpt>
      <trkpt lat="47.45876" lon="8.25407">
        <ele>369.9</ele>
        <time>2022-10-02T12:55:04Z</time>
      </trkpt>
      <trkpt lat="47.45873" lon="8.2541">
        <ele>369.9</ele>
        <time>2022-10-02T12:55:05Z</time>
      </trkpt>
      <trkpt lat="47.45869" lon="8.25414">
        <ele>370</ele>
        <time>2022-10-02T12:55:06Z</time>
      </trkpt>
      <trkpt lat="47.45866" lon="8.25418">
        <ele>370</ele>
        <time>2022-10-02T12:55:07Z</time>
      </trkpt>
      <trkpt lat="47.45863" lon="8.25422">
        <ele>370</ele>
        <time>2022-10-02T12:55:08Z</time>
      </trkpt>
      <trkpt lat="47.45859" lon="8.25425">
        <ele>370.1</ele>
        <time>2022-10-02T12:55:09Z</time>
      </trkpt>
      <trkpt lat="47.45856" lon="8.25428">
        <ele>370.1</ele>
        <time>2022-10-02T12:55:10Z</time>
      </trkpt>
      <trkpt lat="47.45853" lon="8.25431">
        <ele>370.1</ele>
        <time>2022-10-02T12:55:11Z</time>
      </trkpt>
      <trkpt lat="47.45849" lon="8.25433">
        <ele>370.1</ele>
        <time>2022-10-02T12:55:12Z</time>
      </trkpt>
      <trkpt lat="47.45845" lon="8.25435">
        <ele>370.2</ele>
        <time>2022-10-02T12:55:13Z</time>
      </trkpt>
      <trkpt lat="47.45841" lon="8.25438">
        <ele>370.2</ele>
        <time>2022-10-02T12:55:14Z</time>
      </trkpt>
      <trkpt lat="47.45837" lon="8.2544">
        <ele>370.3</ele>
        <time>2022-10-02T12:55:15Z</time>
      </trkpt>
      <trkpt lat="47.45833" lon="8.25443">
        <ele>370.3</ele>
        <time>2022-10-02T12:55:16Z</time>
      </trkpt>
      <trkpt lat="47.4583" lon="8.25444">
        <ele>370.3</ele>
        <time>2022-10-02T12:55:17Z</time>
      </trkpt>
      <trkpt lat="47.45826" lon="8.25448">
        <ele>370.4</ele>
        <time>2022-10-02T12:55:18Z</time>
      </trkpt>
      <trkpt lat="47.45823" lon="8.25451">
        <ele>370.4</ele>
        <time>2022-10-02T12:55:19Z</time>
      </trkpt>
      <trkpt lat="47.4582" lon="8.25454">
        <ele>370.5</ele>
        <time>2022-10-02T12:55:20Z</time>
      </trkpt>
      <trkpt lat="47.45816" lon="8.25457">
        <ele>370.5</ele>
        <time>2022-10-02T12:55:21Z</time>
      </trkpt>
      <trkpt lat="47.45812" lon="8.25462">
        <ele>370.5</ele>
        <time>2022-10-02T12:55:22Z</time>
      </trkpt>
      <trkpt lat="47.4581" lon="8.25463">
        <ele>370.6</ele>
        <time>2022-10-02T12:55:23Z</time>
      </trkpt>
      <trkpt lat="47.45806" lon="8.25466">
        <ele>370.6</ele>
        <time>2022-10-02T12:55:24Z</time>
      </trkpt>
      <trkpt lat="47.45802" lon="8.25471">
        <ele>370.6</ele>
        <time>2022-10-02T12:55:25Z</time>
      </trkpt>
      <trkpt lat="47.45798" lon="8.25474">
        <ele>370.7</ele>
        <time>2022-10-02T12:55:26Z</time>
      </trkpt>
      <trkpt lat="47.45795" lon="8.25479">
        <ele>370.7</ele>
        <time>2022-10-02T12:55:27Z</time>
      </trkpt>
      <trkpt lat="47.45791" lon="8.25483">
        <ele>370.7</ele>
        <time>2022-10-02T12:55:28Z</time>
      </trkpt>
      <trkpt lat="47.45787" lon="8.25486">
        <ele>370.8</ele>
        <time>2022-10-02T12:55:29Z</time>
      </trkpt>
      <trkpt lat="47.45784" lon="8.25491">
        <ele>370.8</ele>
        <time>2022-10-02T12:55:30Z</time>
      </trkpt>
      <trkpt lat="47.45781" lon="8.25495">
        <ele>370.8</ele>
        <time>2022-10-02T12:55:31Z</time>
      </trkpt>
      <trkpt lat="47.45778" lon="8.255">
        <ele>370.9</ele>
        <time>2022-10-02T12:55:32Z</time>
      </trkpt>
      <trkpt lat="47.45775" lon="8.25505">
        <ele>370.9</ele>
        <time>2022-10-02T12:55:33Z</time>
      </trkpt>
      <trkpt lat="47.45773" lon="8.2551">
        <ele>371</ele>
        <time>2022-10-02T12:55:34Z</time>
      </trkpt>
      <trkpt lat="47.45771" lon="8.25515">
        <ele>371</ele>
        <time>2022-10-02T12:55:35Z</time>
      </trkpt>
      <trkpt lat="47.45768" lon="8.25521">
        <ele>371.1</ele>
        <time>2022-10-02T12:55:36Z</time>
      </trkpt>
      <trkpt lat="47.45766" lon="8.25526">
        <ele>371.2</ele>
        <time>2022-10-02T12:55:37Z</time>
      </trkpt>
      <trkpt lat="47.45764" lon="8.25531">
        <ele>371.2</ele>
        <time>2022-10-02T12:55:38Z</time>
      </trkpt>
      <trkpt lat="47.45761" lon="8.25537">
        <ele>371.3</ele>
        <time>2022-10-02T12:55:39Z</time>
      </trkpt>
      <trkpt lat="47.45759" lon="8.25542">
        <ele>371.3</ele>
        <time>2022-10-02T12:55:40Z</time>
      </trkpt>
      <trkpt lat="47.45757" lon="8.25547">
        <ele>371.4</ele>
        <time>2022-10-02T12:55:41Z</time>
      </trkpt>
      <trkpt lat="47.45755" lon="8.25552">
        <ele>371.4</ele>
        <time>2022-10-02T12:55:42Z</time>
      </trkpt>
      <trkpt lat="47.45753" lon="8.25557">
        <ele>371.5</ele>
        <time>2022-10-02T12:55:43Z</time>
      </trkpt>
      <trkpt lat="47.45751" lon="8.25563">
        <ele>371.6</ele>
        <time>2022-10-02T12:55:44Z</time>
      </trkpt>
      <trkpt lat="47.45749" lon="8.25568">
        <ele>371.6</ele>
        <time>2022-10-02T12:55:45Z</time>
      </trkpt>
      <trkpt lat="47.45747" lon="8.25573">
        <ele>371.7</ele>
        <time>2022-10-02T12:55:46Z</time>
      </trkpt>
      <trkpt lat="47.45745" lon="8.25578">
        <ele>371.8</ele>
        <time>2022-10-02T12:55:47Z</time>
      </trkpt>
      <trkpt lat="47.45743" lon="8.25583">
        <ele>371.8</ele>
        <time>2022-10-02T12:55:48Z</time>
      </trkpt>
      <trkpt lat="47.45741" lon="8.25588">
        <ele>371.8</ele>
        <time>2022-10-02T12:55:49Z</time>
      </trkpt>
      <trkpt lat="47.45739" lon="8.25593">
        <ele>371.9</ele>
        <time>2022-10-02T12:55:50Z</time>
      </trkpt>
      <trkpt lat="47.45738" lon="8.25599">
        <ele>371.9</ele>
        <time>2022-10-02T12:55:51Z</time>
      </trkpt>
      <trkpt lat="47.45737" lon="8.25604">
        <ele>371.9</ele>
        <time>2022-10-02T12:55:52Z</time>
      </trkpt>
      <trkpt lat="47.45735" lon="8.2561">
        <ele>372</ele>
        <time>2022-10-02T12:55:53Z</time>
      </trkpt>
      <trkpt lat="47.45733" lon="8.25614">
        <ele>372</ele>
        <time>2022-10-02T12:55:55Z</time>
      </trkpt>
      <trkpt lat="47.45732" lon="8.2562">
        <ele>372.1</ele>
        <time>2022-10-02T12:55:56Z</time>
      </trkpt>
      <trkpt lat="47.4573" lon="8.25625">
        <ele>372.1</ele>
        <time>2022-10-02T12:55:57Z</time>
      </trkpt>
      <trkpt lat="47.45728" lon="8.25631">
        <ele>372.2</ele>
        <time>2022-10-02T12:55:58Z</time>
      </trkpt>
      <trkpt lat="47.45725" lon="8.25637">
        <ele>372.2</ele>
        <time>2022-10-02T12:55:59Z</time>
      </trkpt>
      <trkpt lat="47.45724" lon="8.25643">
        <ele>372.3</ele>
        <time>2022-10-02T12:56:00Z</time>
      </trkpt>
      <trkpt lat="47.45723" lon="8.25645">
        <ele>372.4</ele>
        <time>2022-10-02T12:56:01Z</time>
      </trkpt>
      <trkpt lat="47.45721" lon="8.25651">
        <ele>372.4</ele>
        <time>2022-10-02T12:56:02Z</time>
      </trkpt>
      <trkpt lat="47.45719" lon="8.25655">
        <ele>372.5</ele>
        <time>2022-10-02T12:56:03Z</time>
      </trkpt>
      <trkpt lat="47.45717" lon="8.25659">
        <ele>372.6</ele>
        <time>2022-10-02T12:56:04Z</time>
      </trkpt>
      <trkpt lat="47.45716" lon="8.25664">
        <ele>372.6</ele>
        <time>2022-10-02T12:56:05Z</time>
      </trkpt>
      <trkpt lat="47.45715" lon="8.25669">
        <ele>372.7</ele>
        <time>2022-10-02T12:56:06Z</time>
      </trkpt>
      <trkpt lat="47.45713" lon="8.25674">
        <ele>372.8</ele>
        <time>2022-10-02T12:56:07Z</time>
      </trkpt>
      <trkpt lat="47.4571" lon="8.25678">
        <ele>372.8</ele>
        <time>2022-10-02T12:56:08Z</time>
      </trkpt>
      <trkpt lat="47.45708" lon="8.25682">
        <ele>372.9</ele>
        <time>2022-10-02T12:56:09Z</time>
      </trkpt>
      <trkpt lat="47.45707" lon="8.25685">
        <ele>372.9</ele>
        <time>2022-10-02T12:56:10Z</time>
      </trkpt>
      <trkpt lat="47.45705" lon="8.25689">
        <ele>373.1</ele>
        <time>2022-10-02T12:56:11Z</time>
      </trkpt>
      <trkpt lat="47.45702" lon="8.25693">
        <ele>373.2</ele>
        <time>2022-10-02T12:56:12Z</time>
      </trkpt>
      <trkpt lat="47.457" lon="8.25697">
        <ele>373.4</ele>
        <time>2022-10-02T12:56:13Z</time>
      </trkpt>
      <trkpt lat="47.45699" lon="8.25698">
        <ele>373.4</ele>
        <time>2022-10-02T12:56:14Z</time>
      </trkpt>
      <trkpt lat="47.45697" lon="8.25701">
        <ele>373.6</ele>
        <time>2022-10-02T12:56:15Z</time>
      </trkpt>
      <trkpt lat="47.45695" lon="8.25705">
        <ele>373.7</ele>
        <time>2022-10-02T12:56:16Z</time>
      </trkpt>
      <trkpt lat="47.45694" lon="8.25707">
        <ele>373.8</ele>
        <time>2022-10-02T12:56:17Z</time>
      </trkpt>
      <trkpt lat="47.45692" lon="8.2571">
        <ele>373.9</ele>
        <time>2022-10-02T12:56:18Z</time>
      </trkpt>
      <trkpt lat="47.45691" lon="8.25711">
        <ele>374</ele>
        <time>2022-10-02T12:56:19Z</time>
      </trkpt>
      <trkpt lat="47.45688" lon="8.25715">
        <ele>374.2</ele>
        <time>2022-10-02T12:56:20Z</time>
      </trkpt>
      <trkpt lat="47.45687" lon="8.25716">
        <ele>374.3</ele>
        <time>2022-10-02T12:56:21Z</time>
      </trkpt>
      <trkpt lat="47.45685" lon="8.25719">
        <ele>374.4</ele>
        <time>2022-10-02T12:56:22Z</time>
      </trkpt>
      <trkpt lat="47.45684" lon="8.25721">
        <ele>374.5</ele>
        <time>2022-10-02T12:56:23Z</time>
      </trkpt>
      <trkpt lat="47.45681" lon="8.25724">
        <ele>374.7</ele>
        <time>2022-10-02T12:56:24Z</time>
      </trkpt>
      <trkpt lat="47.4568" lon="8.25725">
        <ele>374.7</ele>
        <time>2022-10-02T12:56:25Z</time>
      </trkpt>
      <trkpt lat="47.45679" lon="8.25728">
        <ele>374.9</ele>
        <time>2022-10-02T12:56:26Z</time>
      </trkpt>
      <trkpt lat="47.45678" lon="8.25729">
        <ele>374.9</ele>
        <time>2022-10-02T12:56:27Z</time>
      </trkpt>
      <trkpt lat="47.45675" lon="8.25732">
        <ele>375.1</ele>
        <time>2022-10-02T12:56:28Z</time>
      </trkpt>
      <trkpt lat="47.45675" lon="8.25733">
        <ele>375.2</ele>
        <time>2022-10-02T12:56:29Z</time>
      </trkpt>
      <trkpt lat="47.45673" lon="8.25737">
        <ele>375.4</ele>
        <time>2022-10-02T12:56:30Z</time>
      </trkpt>
      <trkpt lat="47.45672" lon="8.25737">
        <ele>375.4</ele>
        <time>2022-10-02T12:56:31Z</time>
      </trkpt>
      <trkpt lat="47.45669" lon="8.2574">
        <ele>375.6</ele>
        <time>2022-10-02T12:56:32Z</time>
      </trkpt>
      <trkpt lat="47.45668" lon="8.25741">
        <ele>375.7</ele>
        <time>2022-10-02T12:56:33Z</time>
      </trkpt>
      <trkpt lat="47.45666" lon="8.25745">
        <ele>375.9</ele>
        <time>2022-10-02T12:56:34Z</time>
      </trkpt>
      <trkpt lat="47.45665" lon="8.25745">
        <ele>375.9</ele>
        <time>2022-10-02T12:56:35Z</time>
      </trkpt>
      <trkpt lat="47.45662" lon="8.25748">
        <ele>376.1</ele>
        <time>2022-10-02T12:56:36Z</time>
      </trkpt>
      <trkpt lat="47.45662" lon="8.25749">
        <ele>376.2</ele>
        <time>2022-10-02T12:56:37Z</time>
      </trkpt>
      <trkpt lat="47.4566" lon="8.25752">
        <ele>376.4</ele>
        <time>2022-10-02T12:56:38Z</time>
      </trkpt>
      <trkpt lat="47.45659" lon="8.25753">
        <ele>376.5</ele>
        <time>2022-10-02T12:56:39Z</time>
      </trkpt>
      <trkpt lat="47.45656" lon="8.25755">
        <ele>376.6</ele>
        <time>2022-10-02T12:56:40Z</time>
      </trkpt>
      <trkpt lat="47.45656" lon="8.25756">
        <ele>376.7</ele>
        <time>2022-10-02T12:56:41Z</time>
      </trkpt>
      <trkpt lat="47.45652" lon="8.25758">
        <ele>376.9</ele>
        <time>2022-10-02T12:56:42Z</time>
      </trkpt>
      <trkpt lat="47.45652" lon="8.25758">
        <ele>377</ele>
        <time>2022-10-02T12:56:43Z</time>
      </trkpt>
      <trkpt lat="47.45651" lon="8.25761">
        <ele>377.1</ele>
        <time>2022-10-02T12:56:44Z</time>
      </trkpt>
      <trkpt lat="47.45649" lon="8.25762">
        <ele>377.2</ele>
        <time>2022-10-02T12:56:45Z</time>
      </trkpt>
      <trkpt lat="47.45646" lon="8.25765">
        <ele>377.5</ele>
        <time>2022-10-02T12:56:46Z</time>
      </trkpt>
      <trkpt lat="47.45644" lon="8.25767">
        <ele>377.6</ele>
        <time>2022-10-02T12:56:47Z</time>
      </trkpt>
      <trkpt lat="47.45643" lon="8.25769">
        <ele>377.7</ele>
        <time>2022-10-02T12:56:48Z</time>
      </trkpt>
      <trkpt lat="47.45641" lon="8.25771">
        <ele>377.9</ele>
        <time>2022-10-02T12:56:49Z</time>
      </trkpt>
      <trkpt lat="47.4564" lon="8.25771">
        <ele>377.9</ele>
        <time>2022-10-02T12:56:50Z</time>
      </trkpt>
      <trkpt lat="47.45637" lon="8.25774">
        <ele>378.1</ele>
        <time>2022-10-02T12:56:51Z</time>
      </trkpt>
      <trkpt lat="47.45636" lon="8.25775">
        <ele>378.2</ele>
        <time>2022-10-02T12:56:52Z</time>
      </trkpt>
      <trkpt lat="47.45635" lon="8.25775">
        <ele>378.3</ele>
        <time>2022-10-02T12:56:53Z</time>
      </trkpt>
      <trkpt lat="47.45633" lon="8.25777">
        <ele>378.4</ele>
        <time>2022-10-02T12:56:54Z</time>
      </trkpt>
      <trkpt lat="47.45633" lon="8.25778">
        <ele>378.5</ele>
        <time>2022-10-02T12:56:55Z</time>
      </trkpt>
      <trkpt lat="47.45631" lon="8.2578">
        <ele>378.7</ele>
        <time>2022-10-02T12:56:56Z</time>
      </trkpt>
      <trkpt lat="47.45628" lon="8.25781">
        <ele>378.9</ele>
        <time>2022-10-02T12:56:57Z</time>
      </trkpt>
      <trkpt lat="47.45627" lon="8.25782">
        <ele>379</ele>
        <time>2022-10-02T12:56:58Z</time>
      </trkpt>
      <trkpt lat="47.45625" lon="8.25784">
        <ele>379.2</ele>
        <time>2022-10-02T12:56:59Z</time>
      </trkpt>
      <trkpt lat="47.45624" lon="8.25785">
        <ele>379.3</ele>
        <time>2022-10-02T12:57:00Z</time>
      </trkpt>
      <trkpt lat="47.45622" lon="8.25786">
        <ele>379.4</ele>
        <time>2022-10-02T12:57:01Z</time>
      </trkpt>
      <trkpt lat="47.45621" lon="8.25788">
        <ele>379.5</ele>
        <time>2022-10-02T12:57:02Z</time>
      </trkpt>
      <trkpt lat="47.45619" lon="8.2579">
        <ele>379.8</ele>
        <time>2022-10-02T12:57:03Z</time>
      </trkpt>
      <trkpt lat="47.45618" lon="8.25791">
        <ele>379.9</ele>
        <time>2022-10-02T12:57:04Z</time>
      </trkpt>
      <trkpt lat="47.45615" lon="8.25793">
        <ele>380.1</ele>
        <time>2022-10-02T12:57:05Z</time>
      </trkpt>
      <trkpt lat="47.45615" lon="8.25794">
        <ele>380.1</ele>
        <time>2022-10-02T12:57:06Z</time>
      </trkpt>
      <trkpt lat="47.45611" lon="8.25795">
        <ele>380.4</ele>
        <time>2022-10-02T12:57:07Z</time>
      </trkpt>
      <trkpt lat="47.4561" lon="8.25796">
        <ele>380.5</ele>
        <time>2022-10-02T12:57:08Z</time>
      </trkpt>
      <trkpt lat="47.45608" lon="8.25798">
        <ele>380.7</ele>
        <time>2022-10-02T12:57:09Z</time>
      </trkpt>
      <trkpt lat="47.45607" lon="8.25798">
        <ele>380.8</ele>
        <time>2022-10-02T12:57:10Z</time>
      </trkpt>
      <trkpt lat="47.45605" lon="8.258">
        <ele>380.9</ele>
        <time>2022-10-02T12:57:11Z</time>
      </trkpt>
      <trkpt lat="47.45604" lon="8.25802">
        <ele>381.1</ele>
        <time>2022-10-02T12:57:12Z</time>
      </trkpt>
      <trkpt lat="47.45603" lon="8.25802">
        <ele>381.2</ele>
        <time>2022-10-02T12:57:13Z</time>
      </trkpt>
      <trkpt lat="47.45601" lon="8.25803">
        <ele>381.3</ele>
        <time>2022-10-02T12:57:14Z</time>
      </trkpt>
      <trkpt lat="47.45599" lon="8.25805">
        <ele>381.5</ele>
        <time>2022-10-02T12:57:15Z</time>
      </trkpt>
      <trkpt lat="47.45598" lon="8.25805">
        <ele>381.6</ele>
        <time>2022-10-02T12:57:16Z</time>
      </trkpt>
      <trkpt lat="47.45596" lon="8.25806">
        <ele>381.7</ele>
        <time>2022-10-02T12:57:17Z</time>
      </trkpt>
      <trkpt lat="47.45595" lon="8.25807">
        <ele>381.9</ele>
        <time>2022-10-02T12:57:18Z</time>
      </trkpt>
      <trkpt lat="47.45593" lon="8.25809">
        <ele>382</ele>
        <time>2022-10-02T12:57:19Z</time>
      </trkpt>
      <trkpt lat="47.45592" lon="8.25809">
        <ele>382.1</ele>
        <time>2022-10-02T12:57:20Z</time>
      </trkpt>
      <trkpt lat="47.4559" lon="8.25811">
        <ele>382.3</ele>
        <time>2022-10-02T12:57:21Z</time>
      </trkpt>
      <trkpt lat="47.45589" lon="8.25811">
        <ele>382.4</ele>
        <time>2022-10-02T12:57:22Z</time>
      </trkpt>
      <trkpt lat="47.45587" lon="8.25813">
        <ele>382.6</ele>
        <time>2022-10-02T12:57:23Z</time>
      </trkpt>
      <trkpt lat="47.45585" lon="8.25813">
        <ele>382.8</ele>
        <time>2022-10-02T12:57:24Z</time>
      </trkpt>
      <trkpt lat="47.45584" lon="8.25815">
        <ele>382.9</ele>
        <time>2022-10-02T12:57:25Z</time>
      </trkpt>
      <trkpt lat="47.45583" lon="8.25815">
        <ele>383</ele>
        <time>2022-10-02T12:57:26Z</time>
      </trkpt>
      <trkpt lat="47.45581" lon="8.25816">
        <ele>383.2</ele>
        <time>2022-10-02T12:57:27Z</time>
      </trkpt>
      <trkpt lat="47.45579" lon="8.25817">
        <ele>383.3</ele>
        <time>2022-10-02T12:57:28Z</time>
      </trkpt>
      <trkpt lat="47.45578" lon="8.25818">
        <ele>383.5</ele>
        <time>2022-10-02T12:57:29Z</time>
      </trkpt>
      <trkpt lat="47.45577" lon="8.2582">
        <ele>383.6</ele>
        <time>2022-10-02T12:57:30Z</time>
      </trkpt>
      <trkpt lat="47.45574" lon="8.25822">
        <ele>383.9</ele>
        <time>2022-10-02T12:57:31Z</time>
      </trkpt>
      <trkpt lat="47.45574" lon="8.25823">
        <ele>384</ele>
        <time>2022-10-02T12:57:32Z</time>
      </trkpt>
      <trkpt lat="47.45572" lon="8.25825">
        <ele>384.2</ele>
        <time>2022-10-02T12:57:33Z</time>
      </trkpt>
      <trkpt lat="47.45571" lon="8.25826">
        <ele>384.3</ele>
        <time>2022-10-02T12:57:34Z</time>
      </trkpt>
      <trkpt lat="47.45571" lon="8.25827">
        <ele>384.4</ele>
        <time>2022-10-02T12:57:35Z</time>
      </trkpt>
      <trkpt lat="47.4557" lon="8.25828">
        <ele>384.5</ele>
        <time>2022-10-02T12:57:36Z</time>
      </trkpt>
      <trkpt lat="47.45568" lon="8.25828">
        <ele>384.7</ele>
        <time>2022-10-02T12:57:37Z</time>
      </trkpt>
      <trkpt lat="47.45568" lon="8.25829">
        <ele>384.7</ele>
        <time>2022-10-02T12:57:38Z</time>
      </trkpt>
      <trkpt lat="47.45565" lon="8.25829">
        <ele>385</ele>
        <time>2022-10-02T12:57:39Z</time>
      </trkpt>
      <trkpt lat="47.45563" lon="8.2583">
        <ele>385.3</ele>
        <time>2022-10-02T12:57:40Z</time>
      </trkpt>
      <trkpt lat="47.45562" lon="8.25831">
        <ele>385.3</ele>
        <time>2022-10-02T12:57:41Z</time>
      </trkpt>
      <trkpt lat="47.45561" lon="8.25832">
        <ele>385.4</ele>
        <time>2022-10-02T12:57:42Z</time>
      </trkpt>
      <trkpt lat="47.4556" lon="8.25832">
        <ele>385.5</ele>
        <time>2022-10-02T12:57:43Z</time>
      </trkpt>
      <trkpt lat="47.45558" lon="8.25834">
        <ele>385.7</ele>
        <time>2022-10-02T12:57:44Z</time>
      </trkpt>
      <trkpt lat="47.45555" lon="8.25835">
        <ele>386</ele>
        <time>2022-10-02T12:57:45Z</time>
      </trkpt>
      <trkpt lat="47.45554" lon="8.25835">
        <ele>386.1</ele>
        <time>2022-10-02T12:57:46Z</time>
      </trkpt>
      <trkpt lat="47.45553" lon="8.25836">
        <ele>386.3</ele>
        <time>2022-10-02T12:57:47Z</time>
      </trkpt>
      <trkpt lat="47.45551" lon="8.25837">
        <ele>386.5</ele>
        <time>2022-10-02T12:57:48Z</time>
      </trkpt>
      <trkpt lat="47.4555" lon="8.25838">
        <ele>386.6</ele>
        <time>2022-10-02T12:57:49Z</time>
      </trkpt>
      <trkpt lat="47.45548" lon="8.25839">
        <ele>386.8</ele>
        <time>2022-10-02T12:57:50Z</time>
      </trkpt>
      <trkpt lat="47.45547" lon="8.2584">
        <ele>386.9</ele>
        <time>2022-10-02T12:57:51Z</time>
      </trkpt>
      <trkpt lat="47.45546" lon="8.25841">
        <ele>387.1</ele>
        <time>2022-10-02T12:57:52Z</time>
      </trkpt>
      <trkpt lat="47.45545" lon="8.25842">
        <ele>387.2</ele>
        <time>2022-10-02T12:57:53Z</time>
      </trkpt>
      <trkpt lat="47.45543" lon="8.25844">
        <ele>387.4</ele>
        <time>2022-10-02T12:57:54Z</time>
      </trkpt>
      <trkpt lat="47.45542" lon="8.25844">
        <ele>387.5</ele>
        <time>2022-10-02T12:57:55Z</time>
      </trkpt>
      <trkpt lat="47.4554" lon="8.25845">
        <ele>387.7</ele>
        <time>2022-10-02T12:57:56Z</time>
      </trkpt>
      <trkpt lat="47.45539" lon="8.25846">
        <ele>387.9</ele>
        <time>2022-10-02T12:57:57Z</time>
      </trkpt>
      <trkpt lat="47.45537" lon="8.25848">
        <ele>388.1</ele>
        <time>2022-10-02T12:57:58Z</time>
      </trkpt>
      <trkpt lat="47.45535" lon="8.25848">
        <ele>388.3</ele>
        <time>2022-10-02T12:57:59Z</time>
      </trkpt>
      <trkpt lat="47.45535" lon="8.25849">
        <ele>388.4</ele>
        <time>2022-10-02T12:58:01Z</time>
      </trkpt>
      <trkpt lat="47.45533" lon="8.2585">
        <ele>388.5</ele>
        <time>2022-10-02T12:58:02Z</time>
      </trkpt>
      <trkpt lat="47.45532" lon="8.25851">
        <ele>388.7</ele>
        <time>2022-10-02T12:58:03Z</time>
      </trkpt>
      <trkpt lat="47.45531" lon="8.25851">
        <ele>388.8</ele>
        <time>2022-10-02T12:58:04Z</time>
      </trkpt>
      <trkpt lat="47.45529" lon="8.25852">
        <ele>388.9</ele>
        <time>2022-10-02T12:58:05Z</time>
      </trkpt>
      <trkpt lat="47.45528" lon="8.25853">
        <ele>389.1</ele>
        <time>2022-10-02T12:58:06Z</time>
      </trkpt>
      <trkpt lat="47.45526" lon="8.25855">
        <ele>389.2</ele>
        <time>2022-10-02T12:58:07Z</time>
      </trkpt>
      <trkpt lat="47.45525" lon="8.25857">
        <ele>389.4</ele>
        <time>2022-10-02T12:58:08Z</time>
      </trkpt>
      <trkpt lat="47.45524" lon="8.25857">
        <ele>389.5</ele>
        <time>2022-10-02T12:58:09Z</time>
      </trkpt>
      <trkpt lat="47.45522" lon="8.25858">
        <ele>389.6</ele>
        <time>2022-10-02T12:58:10Z</time>
      </trkpt>
      <trkpt lat="47.45521" lon="8.25859">
        <ele>389.8</ele>
        <time>2022-10-02T12:58:11Z</time>
      </trkpt>
      <trkpt lat="47.4552" lon="8.2586">
        <ele>389.9</ele>
        <time>2022-10-02T12:58:12Z</time>
      </trkpt>
      <trkpt lat="47.45518" lon="8.25861">
        <ele>390</ele>
        <time>2022-10-02T12:58:13Z</time>
      </trkpt>
      <trkpt lat="47.45517" lon="8.25862">
        <ele>390.2</ele>
        <time>2022-10-02T12:58:14Z</time>
      </trkpt>
      <trkpt lat="47.45515" lon="8.25862">
        <ele>390.3</ele>
        <time>2022-10-02T12:58:15Z</time>
      </trkpt>
      <trkpt lat="47.45514" lon="8.25863">
        <ele>390.4</ele>
        <time>2022-10-02T12:58:16Z</time>
      </trkpt>
      <trkpt lat="47.45512" lon="8.25864">
        <ele>390.5</ele>
        <time>2022-10-02T12:58:17Z</time>
      </trkpt>
      <trkpt lat="47.45511" lon="8.25864">
        <ele>390.6</ele>
        <time>2022-10-02T12:58:18Z</time>
      </trkpt>
      <trkpt lat="47.4551" lon="8.25866">
        <ele>390.8</ele>
        <time>2022-10-02T12:58:19Z</time>
      </trkpt>
      <trkpt lat="47.45508" lon="8.25866">
        <ele>390.9</ele>
        <time>2022-10-02T12:58:20Z</time>
      </trkpt>
      <trkpt lat="47.45507" lon="8.25866">
        <ele>391</ele>
        <time>2022-10-02T12:58:21Z</time>
      </trkpt>
      <trkpt lat="47.45505" lon="8.25867">
        <ele>391.1</ele>
        <time>2022-10-02T12:58:22Z</time>
      </trkpt>
      <trkpt lat="47.45503" lon="8.25868">
        <ele>391.3</ele>
        <time>2022-10-02T12:58:23Z</time>
      </trkpt>
      <trkpt lat="47.45502" lon="8.25868">
        <ele>391.4</ele>
        <time>2022-10-02T12:58:24Z</time>
      </trkpt>
      <trkpt lat="47.45499" lon="8.25871">
        <ele>391.6</ele>
        <time>2022-10-02T12:58:25Z</time>
      </trkpt>
      <trkpt lat="47.45499" lon="8.25872">
        <ele>391.6</ele>
        <time>2022-10-02T12:58:26Z</time>
      </trkpt>
      <trkpt lat="47.45496" lon="8.25872">
        <ele>391.8</ele>
        <time>2022-10-02T12:58:27Z</time>
      </trkpt>
      <trkpt lat="47.45495" lon="8.25873">
        <ele>391.8</ele>
        <time>2022-10-02T12:58:28Z</time>
      </trkpt>
      <trkpt lat="47.45494" lon="8.25873">
        <ele>391.9</ele>
        <time>2022-10-02T12:58:29Z</time>
      </trkpt>
      <trkpt lat="47.45491" lon="8.25874">
        <ele>392</ele>
        <time>2022-10-02T12:58:30Z</time>
      </trkpt>
      <trkpt lat="47.45491" lon="8.25875">
        <ele>392.1</ele>
        <time>2022-10-02T12:58:31Z</time>
      </trkpt>
      <trkpt lat="47.45488" lon="8.25876">
        <ele>392.2</ele>
        <time>2022-10-02T12:58:32Z</time>
      </trkpt>
      <trkpt lat="47.45487" lon="8.25877">
        <ele>392.3</ele>
        <time>2022-10-02T12:58:33Z</time>
      </trkpt>
      <trkpt lat="47.45484" lon="8.25878">
        <ele>392.4</ele>
        <time>2022-10-02T12:58:34Z</time>
      </trkpt>
      <trkpt lat="47.45483" lon="8.25879">
        <ele>392.5</ele>
        <time>2022-10-02T12:58:35Z</time>
      </trkpt>
      <trkpt lat="47.4548" lon="8.25879">
        <ele>392.6</ele>
        <time>2022-10-02T12:58:36Z</time>
      </trkpt>
      <trkpt lat="47.45478" lon="8.2588">
        <ele>392.6</ele>
        <time>2022-10-02T12:58:37Z</time>
      </trkpt>
      <trkpt lat="47.45476" lon="8.25881">
        <ele>392.7</ele>
        <time>2022-10-02T12:58:38Z</time>
      </trkpt>
      <trkpt lat="47.45473" lon="8.25881">
        <ele>392.8</ele>
        <time>2022-10-02T12:58:39Z</time>
      </trkpt>
      <trkpt lat="47.45469" lon="8.25881">
        <ele>392.9</ele>
        <time>2022-10-02T12:58:40Z</time>
      </trkpt>
      <trkpt lat="47.45468" lon="8.25882">
        <ele>392.9</ele>
        <time>2022-10-02T12:58:41Z</time>
      </trkpt>
      <trkpt lat="47.45464" lon="8.25883">
        <ele>393</ele>
        <time>2022-10-02T12:58:42Z</time>
      </trkpt>
      <trkpt lat="47.45462" lon="8.25883">
        <ele>393.1</ele>
        <time>2022-10-02T12:58:43Z</time>
      </trkpt>
      <trkpt lat="47.45459" lon="8.25885">
        <ele>393.1</ele>
        <time>2022-10-02T12:58:44Z</time>
      </trkpt>
      <trkpt lat="47.45456" lon="8.25885">
        <ele>393.1</ele>
        <time>2022-10-02T12:58:45Z</time>
      </trkpt>
      <trkpt lat="47.45453" lon="8.25886">
        <ele>393.2</ele>
        <time>2022-10-02T12:58:46Z</time>
      </trkpt>
      <trkpt lat="47.4545" lon="8.25887">
        <ele>393.2</ele>
        <time>2022-10-02T12:58:47Z</time>
      </trkpt>
      <trkpt lat="47.45446" lon="8.25888">
        <ele>393.2</ele>
        <time>2022-10-02T12:58:48Z</time>
      </trkpt>
      <trkpt lat="47.4544" lon="8.25889">
        <ele>393.3</ele>
        <time>2022-10-02T12:58:49Z</time>
      </trkpt>
      <trkpt lat="47.45436" lon="8.2589">
        <ele>393.3</ele>
        <time>2022-10-02T12:58:50Z</time>
      </trkpt>
      <trkpt lat="47.45432" lon="8.25891">
        <ele>393.3</ele>
        <time>2022-10-02T12:58:51Z</time>
      </trkpt>
      <trkpt lat="47.45428" lon="8.25892">
        <ele>393.4</ele>
        <time>2022-10-02T12:58:52Z</time>
      </trkpt>
      <trkpt lat="47.45425" lon="8.25893">
        <ele>393.4</ele>
        <time>2022-10-02T12:58:53Z</time>
      </trkpt>
      <trkpt lat="47.45421" lon="8.25894">
        <ele>393.4</ele>
        <time>2022-10-02T12:58:54Z</time>
      </trkpt>
      <trkpt lat="47.45418" lon="8.25895">
        <ele>393.5</ele>
        <time>2022-10-02T12:58:55Z</time>
      </trkpt>
      <trkpt lat="47.45415" lon="8.25896">
        <ele>393.5</ele>
        <time>2022-10-02T12:58:56Z</time>
      </trkpt>
      <trkpt lat="47.45412" lon="8.25899">
        <ele>393.6</ele>
        <time>2022-10-02T12:58:57Z</time>
      </trkpt>
      <trkpt lat="47.4541" lon="8.259">
        <ele>393.6</ele>
        <time>2022-10-02T12:58:58Z</time>
      </trkpt>
      <trkpt lat="47.45408" lon="8.25903">
        <ele>393.6</ele>
        <time>2022-10-02T12:58:59Z</time>
      </trkpt>
      <trkpt lat="47.45407" lon="8.25908">
        <ele>393.8</ele>
        <time>2022-10-02T12:59:00Z</time>
      </trkpt>
      <trkpt lat="47.45407" lon="8.25912">
        <ele>393.8</ele>
        <time>2022-10-02T12:59:01Z</time>
      </trkpt>
      <trkpt lat="47.45406" lon="8.25917">
        <ele>393.8</ele>
        <time>2022-10-02T12:59:02Z</time>
      </trkpt>
      <trkpt lat="47.45408" lon="8.25922">
        <ele>393.8</ele>
        <time>2022-10-02T12:59:03Z</time>
      </trkpt>
      <trkpt lat="47.45408" lon="8.25924">
        <ele>393.8</ele>
        <time>2022-10-02T12:59:04Z</time>
      </trkpt>
      <trkpt lat="47.4541" lon="8.25929">
        <ele>393.8</ele>
        <time>2022-10-02T12:59:05Z</time>
      </trkpt>
      <trkpt lat="47.45413" lon="8.25933">
        <ele>393.8</ele>
        <time>2022-10-02T12:59:06Z</time>
      </trkpt>
      <trkpt lat="47.45414" lon="8.25938">
        <ele>393.8</ele>
        <time>2022-10-02T12:59:07Z</time>
      </trkpt>
      <trkpt lat="47.45416" lon="8.25942">
        <ele>393.8</ele>
        <time>2022-10-02T12:59:08Z</time>
      </trkpt>
      <trkpt lat="47.45419" lon="8.25947">
        <ele>393.8</ele>
        <time>2022-10-02T12:59:09Z</time>
      </trkpt>
      <trkpt lat="47.45421" lon="8.25951">
        <ele>393.8</ele>
        <time>2022-10-02T12:59:10Z</time>
      </trkpt>
      <trkpt lat="47.45423" lon="8.25955">
        <ele>393.8</ele>
        <time>2022-10-02T12:59:11Z</time>
      </trkpt>
      <trkpt lat="47.45426" lon="8.25959">
        <ele>393.7</ele>
        <time>2022-10-02T12:59:12Z</time>
      </trkpt>
      <trkpt lat="47.45429" lon="8.25964">
        <ele>393.7</ele>
        <time>2022-10-02T12:59:13Z</time>
      </trkpt>
      <trkpt lat="47.45431" lon="8.2597">
        <ele>393.7</ele>
        <time>2022-10-02T12:59:14Z</time>
      </trkpt>
      <trkpt lat="47.45434" lon="8.25975">
        <ele>393.7</ele>
        <time>2022-10-02T12:59:15Z</time>
      </trkpt>
      <trkpt lat="47.45437" lon="8.2598">
        <ele>393.7</ele>
        <time>2022-10-02T12:59:16Z</time>
      </trkpt>
      <trkpt lat="47.4544" lon="8.25986">
        <ele>393.6</ele>
        <time>2022-10-02T12:59:17Z</time>
      </trkpt>
      <trkpt lat="47.45442" lon="8.25991">
        <ele>393.6</ele>
        <time>2022-10-02T12:59:18Z</time>
      </trkpt>
      <trkpt lat="47.45445" lon="8.25997">
        <ele>393.6</ele>
        <time>2022-10-02T12:59:19Z</time>
      </trkpt>
      <trkpt lat="47.45448" lon="8.26003">
        <ele>393.5</ele>
        <time>2022-10-02T12:59:20Z</time>
      </trkpt>
      <trkpt lat="47.45451" lon="8.26009">
        <ele>393.5</ele>
        <time>2022-10-02T12:59:21Z</time>
      </trkpt>
      <trkpt lat="47.45454" lon="8.26015">
        <ele>393.4</ele>
        <time>2022-10-02T12:59:22Z</time>
      </trkpt>
      <trkpt lat="47.45457" lon="8.26022">
        <ele>393.3</ele>
        <time>2022-10-02T12:59:23Z</time>
      </trkpt>
      <trkpt lat="47.45461" lon="8.26028">
        <ele>393.2</ele>
        <time>2022-10-02T12:59:24Z</time>
      </trkpt>
      <trkpt lat="47.45464" lon="8.26035">
        <ele>393.1</ele>
        <time>2022-10-02T12:59:25Z</time>
      </trkpt>
      <trkpt lat="47.45467" lon="8.26042">
        <ele>393</ele>
        <time>2022-10-02T12:59:26Z</time>
      </trkpt>
      <trkpt lat="47.45471" lon="8.26048">
        <ele>392.9</ele>
        <time>2022-10-02T12:59:27Z</time>
      </trkpt>
      <trkpt lat="47.45474" lon="8.26055">
        <ele>392.8</ele>
        <time>2022-10-02T12:59:28Z</time>
      </trkpt>
      <trkpt lat="47.45478" lon="8.26062">
        <ele>392.8</ele>
        <time>2022-10-02T12:59:29Z</time>
      </trkpt>
      <trkpt lat="47.45482" lon="8.26069">
        <ele>392.7</ele>
        <time>2022-10-02T12:59:30Z</time>
      </trkpt>
      <trkpt lat="47.45486" lon="8.26074">
        <ele>392.7</ele>
        <time>2022-10-02T12:59:31Z</time>
      </trkpt>
      <trkpt lat="47.45491" lon="8.2608">
        <ele>392.6</ele>
        <time>2022-10-02T12:59:32Z</time>
      </trkpt>
      <trkpt lat="47.45495" lon="8.26085">
        <ele>392.6</ele>
        <time>2022-10-02T12:59:33Z</time>
      </trkpt>
      <trkpt lat="47.455" lon="8.26089">
        <ele>392.6</ele>
        <time>2022-10-02T12:59:34Z</time>
      </trkpt>
      <trkpt lat="47.45505" lon="8.26094">
        <ele>392.5</ele>
        <time>2022-10-02T12:59:35Z</time>
      </trkpt>
      <trkpt lat="47.45511" lon="8.26098">
        <ele>392.4</ele>
        <time>2022-10-02T12:59:36Z</time>
      </trkpt>
      <trkpt lat="47.45516" lon="8.26102">
        <ele>392.3</ele>
        <time>2022-10-02T12:59:37Z</time>
      </trkpt>
      <trkpt lat="47.45521" lon="8.26106">
        <ele>392.3</ele>
        <time>2022-10-02T12:59:38Z</time>
      </trkpt>
      <trkpt lat="47.45526" lon="8.26111">
        <ele>392.2</ele>
        <time>2022-10-02T12:59:39Z</time>
      </trkpt>
      <trkpt lat="47.4553" lon="8.26115">
        <ele>392.2</ele>
        <time>2022-10-02T12:59:40Z</time>
      </trkpt>
      <trkpt lat="47.45535" lon="8.26121">
        <ele>392.2</ele>
        <time>2022-10-02T12:59:41Z</time>
      </trkpt>
      <trkpt lat="47.45541" lon="8.26124">
        <ele>392.2</ele>
        <time>2022-10-02T12:59:42Z</time>
      </trkpt>
      <trkpt lat="47.45545" lon="8.26128">
        <ele>392.1</ele>
        <time>2022-10-02T12:59:43Z</time>
      </trkpt>
      <trkpt lat="47.45551" lon="8.26132">
        <ele>392.1</ele>
        <time>2022-10-02T12:59:44Z</time>
      </trkpt>
      <trkpt lat="47.45556" lon="8.26137">
        <ele>392.1</ele>
        <time>2022-10-02T12:59:45Z</time>
      </trkpt>
      <trkpt lat="47.4556" lon="8.2614">
        <ele>392</ele>
        <time>2022-10-02T12:59:46Z</time>
      </trkpt>
      <trkpt lat="47.45565" lon="8.26145">
        <ele>391.9</ele>
        <time>2022-10-02T12:59:47Z</time>
      </trkpt>
      <trkpt lat="47.4557" lon="8.26149">
        <ele>391.9</ele>
        <time>2022-10-02T12:59:48Z</time>
      </trkpt>
      <trkpt lat="47.45575" lon="8.26153">
        <ele>391.8</ele>
        <time>2022-10-02T12:59:49Z</time>
      </trkpt>
      <trkpt lat="47.4558" lon="8.26158">
        <ele>391.8</ele>
        <time>2022-10-02T12:59:50Z</time>
      </trkpt>
      <trkpt lat="47.45584" lon="8.26162">
        <ele>391.7</ele>
        <time>2022-10-02T12:59:51Z</time>
      </trkpt>
      <trkpt lat="47.45589" lon="8.26167">
        <ele>391.6</ele>
        <time>2022-10-02T12:59:52Z</time>
      </trkpt>
      <trkpt lat="47.45594" lon="8.26171">
        <ele>391.5</ele>
        <time>2022-10-02T12:59:53Z</time>
      </trkpt>
      <trkpt lat="47.45599" lon="8.26175">
        <ele>391.5</ele>
        <time>2022-10-02T12:59:54Z</time>
      </trkpt>
      <trkpt lat="47.45603" lon="8.2618">
        <ele>391.4</ele>
        <time>2022-10-02T12:59:55Z</time>
      </trkpt>
      <trkpt lat="47.45608" lon="8.26184">
        <ele>391.3</ele>
        <time>2022-10-02T12:59:56Z</time>
      </trkpt>
      <trkpt lat="47.45611" lon="8.26189">
        <ele>391.2</ele>
        <time>2022-10-02T12:59:57Z</time>
      </trkpt>
      <trkpt lat="47.45615" lon="8.26194">
        <ele>391</ele>
        <time>2022-10-02T12:59:58Z</time>
      </trkpt>
      <trkpt lat="47.45618" lon="8.26197">
        <ele>390.9</ele>
        <time>2022-10-02T12:59:59Z</time>
      </trkpt>
      <trkpt lat="47.45621" lon="8.26201">
        <ele>390.9</ele>
        <time>2022-10-02T13:00:00Z</time>
      </trkpt>
      <trkpt lat="47.45624" lon="8.26204">
        <ele>390.8</ele>
        <time>2022-10-02T13:00:01Z</time>
      </trkpt>
      <trkpt lat="47.45626" lon="8.26207">
        <ele>390.8</ele>
        <time>2022-10-02T13:00:02Z</time>
      </trkpt>
      <trkpt lat="47.4563" lon="8.26208">
        <ele>390.7</ele>
        <time>2022-10-02T13:00:03Z</time>
      </trkpt>
      <trkpt lat="47.45634" lon="8.26207">
        <ele>390.6</ele>
        <time>2022-10-02T13:00:04Z</time>
      </trkpt>
      <trkpt lat="47.45638" lon="8.26204">
        <ele>390.5</ele>
        <time>2022-10-02T13:00:05Z</time>
      </trkpt>
      <trkpt lat="47.45641" lon="8.26201">
        <ele>390.4</ele>
        <time>2022-10-02T13:00:07Z</time>
      </trkpt>
      <trkpt lat="47.45645" lon="8.26196">
        <ele>390.3</ele>
        <time>2022-10-02T13:00:08Z</time>
      </trkpt>
      <trkpt lat="47.45647" lon="8.26191">
        <ele>390.3</ele>
        <time>2022-10-02T13:00:09Z</time>
      </trkpt>
      <trkpt lat="47.45651" lon="8.26185">
        <ele>390.2</ele>
        <time>2022-10-02T13:00:10Z</time>
      </trkpt>
      <trkpt lat="47.45654" lon="8.2618">
        <ele>390.1</ele>
        <time>2022-10-02T13:00:11Z</time>
      </trkpt>
      <trkpt lat="47.45657" lon="8.26174">
        <ele>390.1</ele>
        <time>2022-10-02T13:00:12Z</time>
      </trkpt>
      <trkpt lat="47.45659" lon="8.26168">
        <ele>390</ele>
        <time>2022-10-02T13:00:13Z</time>
      </trkpt>
      <trkpt lat="47.45663" lon="8.26162">
        <ele>390</ele>
        <time>2022-10-02T13:00:14Z</time>
      </trkpt>
      <trkpt lat="47.45666" lon="8.26156">
        <ele>390</ele>
        <time>2022-10-02T13:00:15Z</time>
      </trkpt>
      <trkpt lat="47.45669" lon="8.2615">
        <ele>390</ele>
        <time>2022-10-02T13:00:16Z</time>
      </trkpt>
      <trkpt lat="47.45672" lon="8.26144">
        <ele>390</ele>
        <time>2022-10-02T13:00:17Z</time>
      </trkpt>
      <trkpt lat="47.45676" lon="8.26138">
        <ele>390</ele>
        <time>2022-10-02T13:00:18Z</time>
      </trkpt>
      <trkpt lat="47.45679" lon="8.26131">
        <ele>390</ele>
        <time>2022-10-02T13:00:19Z</time>
      </trkpt>
      <trkpt lat="47.45681" lon="8.26125">
        <ele>390.1</ele>
        <time>2022-10-02T13:00:20Z</time>
      </trkpt>
      <trkpt lat="47.45684" lon="8.26119">
        <ele>390.1</ele>
        <time>2022-10-02T13:00:21Z</time>
      </trkpt>
      <trkpt lat="47.45687" lon="8.26113">
        <ele>390.1</ele>
        <time>2022-10-02T13:00:22Z</time>
      </trkpt>
      <trkpt lat="47.4569" lon="8.26106">
        <ele>390.1</ele>
        <time>2022-10-02T13:00:23Z</time>
      </trkpt>
      <trkpt lat="47.45692" lon="8.261">
        <ele>390.2</ele>
        <time>2022-10-02T13:00:24Z</time>
      </trkpt>
      <trkpt lat="47.45695" lon="8.26093">
        <ele>390.2</ele>
        <time>2022-10-02T13:00:25Z</time>
      </trkpt>
      <trkpt lat="47.45698" lon="8.26087">
        <ele>390.3</ele>
        <time>2022-10-02T13:00:26Z</time>
      </trkpt>
      <trkpt lat="47.45701" lon="8.26082">
        <ele>390.3</ele>
        <time>2022-10-02T13:00:27Z</time>
      </trkpt>
      <trkpt lat="47.45704" lon="8.26076">
        <ele>390.4</ele>
        <time>2022-10-02T13:00:28Z</time>
      </trkpt>
      <trkpt lat="47.45706" lon="8.2607">
        <ele>390.4</ele>
        <time>2022-10-02T13:00:29Z</time>
      </trkpt>
      <trkpt lat="47.45709" lon="8.26064">
        <ele>390.5</ele>
        <time>2022-10-02T13:00:30Z</time>
      </trkpt>
      <trkpt lat="47.45711" lon="8.26059">
        <ele>390.6</ele>
        <time>2022-10-02T13:00:31Z</time>
      </trkpt>
      <trkpt lat="47.45714" lon="8.26055">
        <ele>390.7</ele>
        <time>2022-10-02T13:00:32Z</time>
      </trkpt>
      <trkpt lat="47.45716" lon="8.2605">
        <ele>390.8</ele>
        <time>2022-10-02T13:00:33Z</time>
      </trkpt>
      <trkpt lat="47.45719" lon="8.26046">
        <ele>390.9</ele>
        <time>2022-10-02T13:00:34Z</time>
      </trkpt>
      <trkpt lat="47.45722" lon="8.26041">
        <ele>390.9</ele>
        <time>2022-10-02T13:00:35Z</time>
      </trkpt>
      <trkpt lat="47.45724" lon="8.26037">
        <ele>391.1</ele>
        <time>2022-10-02T13:00:36Z</time>
      </trkpt>
      <trkpt lat="47.45726" lon="8.26035">
        <ele>391.1</ele>
        <time>2022-10-02T13:00:37Z</time>
      </trkpt>
      <trkpt lat="47.45728" lon="8.26031">
        <ele>391.2</ele>
        <time>2022-10-02T13:00:38Z</time>
      </trkpt>
      <trkpt lat="47.4573" lon="8.26027">
        <ele>391.3</ele>
        <time>2022-10-02T13:00:39Z</time>
      </trkpt>
      <trkpt lat="47.45733" lon="8.26023">
        <ele>391.4</ele>
        <time>2022-10-02T13:00:40Z</time>
      </trkpt>
      <trkpt lat="47.45734" lon="8.26022">
        <ele>391.5</ele>
        <time>2022-10-02T13:00:41Z</time>
      </trkpt>
      <trkpt lat="47.45736" lon="8.2602">
        <ele>391.6</ele>
        <time>2022-10-02T13:00:42Z</time>
      </trkpt>
      <trkpt lat="47.45739" lon="8.26017">
        <ele>391.7</ele>
        <time>2022-10-02T13:00:43Z</time>
      </trkpt>
      <trkpt lat="47.4574" lon="8.26016">
        <ele>391.7</ele>
        <time>2022-10-02T13:00:44Z</time>
      </trkpt>
      <trkpt lat="47.45743" lon="8.26018">
        <ele>391.8</ele>
        <time>2022-10-02T13:00:45Z</time>
      </trkpt>
      <trkpt lat="47.45744" lon="8.26019">
        <ele>391.8</ele>
        <time>2022-10-02T13:00:46Z</time>
      </trkpt>
      <trkpt lat="47.45746" lon="8.2602">
        <ele>391.9</ele>
        <time>2022-10-02T13:00:47Z</time>
      </trkpt>
      <trkpt lat="47.45749" lon="8.26021">
        <ele>392.4</ele>
        <time>2022-10-02T13:00:48Z</time>
      </trkpt>
      <trkpt lat="47.4575" lon="8.26021">
        <ele>392.4</ele>
        <time>2022-10-02T13:00:49Z</time>
      </trkpt>
      <trkpt lat="47.45751" lon="8.26022">
        <ele>392.4</ele>
        <time>2022-10-02T13:00:50Z</time>
      </trkpt>
      <trkpt lat="47.45753" lon="8.26025">
        <ele>392.4</ele>
        <time>2022-10-02T13:00:51Z</time>
      </trkpt>
      <trkpt lat="47.45752" lon="8.26028">
        <ele>392.4</ele>
        <time>2022-10-02T13:00:52Z</time>
      </trkpt>
      <trkpt lat="47.45751" lon="8.26032">
        <ele>392.4</ele>
        <time>2022-10-02T13:00:53Z</time>
      </trkpt>
      <trkpt lat="47.45751" lon="8.26036">
        <ele>392.8</ele>
        <time>2022-10-02T13:00:54Z</time>
      </trkpt>
      <trkpt lat="47.45749" lon="8.26041">
        <ele>392.8</ele>
        <time>2022-10-02T13:00:55Z</time>
      </trkpt>
      <trkpt lat="47.45748" lon="8.26046">
        <ele>392.9</ele>
        <time>2022-10-02T13:00:56Z</time>
      </trkpt>
      <trkpt lat="47.45747" lon="8.2605">
        <ele>392.9</ele>
        <time>2022-10-02T13:00:57Z</time>
      </trkpt>
      <trkpt lat="47.45747" lon="8.26056">
        <ele>393</ele>
        <time>2022-10-02T13:00:58Z</time>
      </trkpt>
      <trkpt lat="47.45746" lon="8.26061">
        <ele>393</ele>
        <time>2022-10-02T13:00:59Z</time>
      </trkpt>
      <trkpt lat="47.45745" lon="8.26066">
        <ele>393.1</ele>
        <time>2022-10-02T13:01:00Z</time>
      </trkpt>
      <trkpt lat="47.45744" lon="8.26071">
        <ele>393.2</ele>
        <time>2022-10-02T13:01:01Z</time>
      </trkpt>
      <trkpt lat="47.45743" lon="8.26077">
        <ele>393.2</ele>
        <time>2022-10-02T13:01:02Z</time>
      </trkpt>
      <trkpt lat="47.45742" lon="8.26082">
        <ele>393.3</ele>
        <time>2022-10-02T13:01:03Z</time>
      </trkpt>
      <trkpt lat="47.45742" lon="8.26087">
        <ele>393.4</ele>
        <time>2022-10-02T13:01:04Z</time>
      </trkpt>
      <trkpt lat="47.45741" lon="8.26092">
        <ele>393.5</ele>
        <time>2022-10-02T13:01:05Z</time>
      </trkpt>
      <trkpt lat="47.4574" lon="8.26097">
        <ele>393.5</ele>
        <time>2022-10-02T13:01:06Z</time>
      </trkpt>
      <trkpt lat="47.4574" lon="8.26103">
        <ele>393.6</ele>
        <time>2022-10-02T13:01:07Z</time>
      </trkpt>
      <trkpt lat="47.4574" lon="8.26108">
        <ele>393.7</ele>
        <time>2022-10-02T13:01:08Z</time>
      </trkpt>
      <trkpt lat="47.4574" lon="8.26113">
        <ele>393.8</ele>
        <time>2022-10-02T13:01:09Z</time>
      </trkpt>
      <trkpt lat="47.4574" lon="8.26118">
        <ele>393.9</ele>
        <time>2022-10-02T13:01:10Z</time>
      </trkpt>
      <trkpt lat="47.45739" lon="8.26123">
        <ele>394</ele>
        <time>2022-10-02T13:01:11Z</time>
      </trkpt>
      <trkpt lat="47.45739" lon="8.26128">
        <ele>394.1</ele>
        <time>2022-10-02T13:01:12Z</time>
      </trkpt>
      <trkpt lat="47.45738" lon="8.26133">
        <ele>394.1</ele>
        <time>2022-10-02T13:01:13Z</time>
      </trkpt>
      <trkpt lat="47.45738" lon="8.26139">
        <ele>394.3</ele>
        <time>2022-10-02T13:01:14Z</time>
      </trkpt>
      <trkpt lat="47.45738" lon="8.26144">
        <ele>394.4</ele>
        <time>2022-10-02T13:01:15Z</time>
      </trkpt>
      <trkpt lat="47.45738" lon="8.2615">
        <ele>394.5</ele>
        <time>2022-10-02T13:01:16Z</time>
      </trkpt>
      <trkpt lat="47.45738" lon="8.26156">
        <ele>394.6</ele>
        <time>2022-10-02T13:01:17Z</time>
      </trkpt>
      <trkpt lat="47.45737" lon="8.26161">
        <ele>394.7</ele>
        <time>2022-10-02T13:01:18Z</time>
      </trkpt>
      <trkpt lat="47.45738" lon="8.26167">
        <ele>394.9</ele>
        <time>2022-10-02T13:01:19Z</time>
      </trkpt>
      <trkpt lat="47.45739" lon="8.26172">
        <ele>395</ele>
        <time>2022-10-02T13:01:20Z</time>
      </trkpt>
      <trkpt lat="47.45739" lon="8.26177">
        <ele>395.1</ele>
        <time>2022-10-02T13:01:21Z</time>
      </trkpt>
      <trkpt lat="47.4574" lon="8.26183">
        <ele>395.2</ele>
        <time>2022-10-02T13:01:22Z</time>
      </trkpt>
      <trkpt lat="47.45742" lon="8.26188">
        <ele>395.4</ele>
        <time>2022-10-02T13:01:23Z</time>
      </trkpt>
      <trkpt lat="47.45743" lon="8.26193">
        <ele>395.5</ele>
        <time>2022-10-02T13:01:24Z</time>
      </trkpt>
      <trkpt lat="47.45744" lon="8.26198">
        <ele>395.6</ele>
        <time>2022-10-02T13:01:25Z</time>
      </trkpt>
      <trkpt lat="47.45744" lon="8.26204">
        <ele>395.7</ele>
        <time>2022-10-02T13:01:26Z</time>
      </trkpt>
      <trkpt lat="47.45744" lon="8.2621">
        <ele>395.9</ele>
        <time>2022-10-02T13:01:27Z</time>
      </trkpt>
      <trkpt lat="47.45745" lon="8.26215">
        <ele>395.9</ele>
        <time>2022-10-02T13:01:28Z</time>
      </trkpt>
      <trkpt lat="47.45744" lon="8.26219">
        <ele>396</ele>
        <time>2022-10-02T13:01:29Z</time>
      </trkpt>
      <trkpt lat="47.45746" lon="8.26225">
        <ele>396.1</ele>
        <time>2022-10-02T13:01:30Z</time>
      </trkpt>
      <trkpt lat="47.45746" lon="8.26229">
        <ele>396.1</ele>
        <time>2022-10-02T13:01:31Z</time>
      </trkpt>
      <trkpt lat="47.45746" lon="8.26234">
        <ele>396.2</ele>
        <time>2022-10-02T13:01:32Z</time>
      </trkpt>
      <trkpt lat="47.45745" lon="8.26239">
        <ele>396.3</ele>
        <time>2022-10-02T13:01:33Z</time>
      </trkpt>
      <trkpt lat="47.45745" lon="8.26244">
        <ele>396.4</ele>
        <time>2022-10-02T13:01:34Z</time>
      </trkpt>
      <trkpt lat="47.45745" lon="8.2625">
        <ele>396.5</ele>
        <time>2022-10-02T13:01:35Z</time>
      </trkpt>
      <trkpt lat="47.45745" lon="8.26255">
        <ele>396.6</ele>
        <time>2022-10-02T13:01:36Z</time>
      </trkpt>
      <trkpt lat="47.45745" lon="8.2626">
        <ele>396.7</ele>
        <time>2022-10-02T13:01:37Z</time>
      </trkpt>
      <trkpt lat="47.45745" lon="8.26266">
        <ele>396.9</ele>
        <time>2022-10-02T13:01:38Z</time>
      </trkpt>
      <trkpt lat="47.45745" lon="8.26269">
        <ele>397</ele>
        <time>2022-10-02T13:01:39Z</time>
      </trkpt>
      <trkpt lat="47.45745" lon="8.26273">
        <ele>397.1</ele>
        <time>2022-10-02T13:01:40Z</time>
      </trkpt>
      <trkpt lat="47.45745" lon="8.26277">
        <ele>397.2</ele>
        <time>2022-10-02T13:01:41Z</time>
      </trkpt>
      <trkpt lat="47.45745" lon="8.26282">
        <ele>397.4</ele>
        <time>2022-10-02T13:01:42Z</time>
      </trkpt>
      <trkpt lat="47.45746" lon="8.26284">
        <ele>397.5</ele>
        <time>2022-10-02T13:01:43Z</time>
      </trkpt>
      <trkpt lat="47.45746" lon="8.26289">
        <ele>397.6</ele>
        <time>2022-10-02T13:01:44Z</time>
      </trkpt>
      <trkpt lat="47.45746" lon="8.26291">
        <ele>397.7</ele>
        <time>2022-10-02T13:01:45Z</time>
      </trkpt>
      <trkpt lat="47.45746" lon="8.26296">
        <ele>397.9</ele>
        <time>2022-10-02T13:01:46Z</time>
      </trkpt>
      <trkpt lat="47.45746" lon="8.26298">
        <ele>397.9</ele>
        <time>2022-10-02T13:01:47Z</time>
      </trkpt>
      <trkpt lat="47.45746" lon="8.26302">
        <ele>398</ele>
        <time>2022-10-02T13:01:48Z</time>
      </trkpt>
      <trkpt lat="47.45747" lon="8.26303">
        <ele>398</ele>
        <time>2022-10-02T13:01:49Z</time>
      </trkpt>
      <trkpt lat="47.45749" lon="8.26306">
        <ele>398.1</ele>
        <time>2022-10-02T13:01:50Z</time>
      </trkpt>
      <trkpt lat="47.45751" lon="8.26311">
        <ele>398.2</ele>
        <time>2022-10-02T13:01:51Z</time>
      </trkpt>
      <trkpt lat="47.45751" lon="8.26312">
        <ele>398.3</ele>
        <time>2022-10-02T13:01:52Z</time>
      </trkpt>
      <trkpt lat="47.45752" lon="8.26318">
        <ele>398.4</ele>
        <time>2022-10-02T13:01:53Z</time>
      </trkpt>
      <trkpt lat="47.45752" lon="8.2632">
        <ele>398.4</ele>
        <time>2022-10-02T13:01:54Z</time>
      </trkpt>
      <trkpt lat="47.45751" lon="8.26324">
        <ele>398.5</ele>
        <time>2022-10-02T13:01:55Z</time>
      </trkpt>
      <trkpt lat="47.45751" lon="8.26326">
        <ele>398.5</ele>
        <time>2022-10-02T13:01:56Z</time>
      </trkpt>
      <trkpt lat="47.45749" lon="8.2633">
        <ele>398.6</ele>
        <time>2022-10-02T13:01:57Z</time>
      </trkpt>
      <trkpt lat="47.45747" lon="8.26333">
        <ele>398.6</ele>
        <time>2022-10-02T13:01:58Z</time>
      </trkpt>
      <trkpt lat="47.45745" lon="8.26338">
        <ele>398.6</ele>
        <time>2022-10-02T13:01:59Z</time>
      </trkpt>
      <trkpt lat="47.45744" lon="8.26343">
        <ele>398.7</ele>
        <time>2022-10-02T13:02:00Z</time>
      </trkpt>
      <trkpt lat="47.45742" lon="8.26347">
        <ele>398.7</ele>
        <time>2022-10-02T13:02:01Z</time>
      </trkpt>
      <trkpt lat="47.45741" lon="8.26353">
        <ele>398.8</ele>
        <time>2022-10-02T13:02:02Z</time>
      </trkpt>
      <trkpt lat="47.45739" lon="8.26358">
        <ele>398.9</ele>
        <time>2022-10-02T13:02:03Z</time>
      </trkpt>
      <trkpt lat="47.45738" lon="8.26364">
        <ele>399</ele>
        <time>2022-10-02T13:02:04Z</time>
      </trkpt>
      <trkpt lat="47.45738" lon="8.26369">
        <ele>399</ele>
        <time>2022-10-02T13:02:05Z</time>
      </trkpt>
      <trkpt lat="47.45737" lon="8.26374">
        <ele>399.1</ele>
        <time>2022-10-02T13:02:06Z</time>
      </trkpt>
      <trkpt lat="47.45736" lon="8.26379">
        <ele>399.2</ele>
        <time>2022-10-02T13:02:07Z</time>
      </trkpt>
      <trkpt lat="47.45735" lon="8.26384">
        <ele>399.3</ele>
        <time>2022-10-02T13:02:08Z</time>
      </trkpt>
      <trkpt lat="47.45734" lon="8.26389">
        <ele>399.4</ele>
        <time>2022-10-02T13:02:09Z</time>
      </trkpt>
      <trkpt lat="47.45733" lon="8.26394">
        <ele>399.4</ele>
        <time>2022-10-02T13:02:10Z</time>
      </trkpt>
      <trkpt lat="47.45732" lon="8.26399">
        <ele>399.5</ele>
        <time>2022-10-02T13:02:11Z</time>
      </trkpt>
      <trkpt lat="47.45732" lon="8.26404">
        <ele>399.6</ele>
        <time>2022-10-02T13:02:13Z</time>
      </trkpt>
      <trkpt lat="47.45731" lon="8.26409">
        <ele>399.7</ele>
        <time>2022-10-02T13:02:14Z</time>
      </trkpt>
      <trkpt lat="47.4573" lon="8.26413">
        <ele>399.8</ele>
        <time>2022-10-02T13:02:15Z</time>
      </trkpt>
      <trkpt lat="47.45729" lon="8.26418">
        <ele>399.9</ele>
        <time>2022-10-02T13:02:16Z</time>
      </trkpt>
      <trkpt lat="47.45729" lon="8.26422">
        <ele>400</ele>
        <time>2022-10-02T13:02:17Z</time>
      </trkpt>
      <trkpt lat="47.45728" lon="8.26427">
        <ele>400.1</ele>
        <time>2022-10-02T13:02:18Z</time>
      </trkpt>
      <trkpt lat="47.45726" lon="8.26431">
        <ele>400.3</ele>
        <time>2022-10-02T13:02:19Z</time>
      </trkpt>
      <trkpt lat="47.45725" lon="8.26435">
        <ele>400.4</ele>
        <time>2022-10-02T13:02:20Z</time>
      </trkpt>
      <trkpt lat="47.45724" lon="8.2644">
        <ele>400.5</ele>
        <time>2022-10-02T13:02:21Z</time>
      </trkpt>
      <trkpt lat="47.45723" lon="8.26444">
        <ele>400.7</ele>
        <time>2022-10-02T13:02:22Z</time>
      </trkpt>
      <trkpt lat="47.45722" lon="8.26448">
        <ele>400.8</ele>
        <time>2022-10-02T13:02:23Z</time>
      </trkpt>
      <trkpt lat="47.45721" lon="8.26453">
        <ele>401</ele>
        <time>2022-10-02T13:02:24Z</time>
      </trkpt>
      <trkpt lat="47.4572" lon="8.26457">
        <ele>401.1</ele>
        <time>2022-10-02T13:02:25Z</time>
      </trkpt>
      <trkpt lat="47.45719" lon="8.26461">
        <ele>401.3</ele>
        <time>2022-10-02T13:02:26Z</time>
      </trkpt>
      <trkpt lat="47.45718" lon="8.26466">
        <ele>401.5</ele>
        <time>2022-10-02T13:02:27Z</time>
      </trkpt>
      <trkpt lat="47.45717" lon="8.26468">
        <ele>401.5</ele>
        <time>2022-10-02T13:02:28Z</time>
      </trkpt>
      <trkpt lat="47.45715" lon="8.26471">
        <ele>401.7</ele>
        <time>2022-10-02T13:02:29Z</time>
      </trkpt>
      <trkpt lat="47.45714" lon="8.26476">
        <ele>401.9</ele>
        <time>2022-10-02T13:02:30Z</time>
      </trkpt>
      <trkpt lat="47.45713" lon="8.26478">
        <ele>402</ele>
        <time>2022-10-02T13:02:31Z</time>
      </trkpt>
      <trkpt lat="47.45712" lon="8.26482">
        <ele>402.2</ele>
        <time>2022-10-02T13:02:32Z</time>
      </trkpt>
      <trkpt lat="47.45711" lon="8.26484">
        <ele>402.2</ele>
        <time>2022-10-02T13:02:33Z</time>
      </trkpt>
      <trkpt lat="47.4571" lon="8.26488">
        <ele>402.4</ele>
        <time>2022-10-02T13:02:34Z</time>
      </trkpt>
      <trkpt lat="47.4571" lon="8.26489">
        <ele>402.5</ele>
        <time>2022-10-02T13:02:35Z</time>
      </trkpt>
      <trkpt lat="47.45709" lon="8.26493">
        <ele>402.7</ele>
        <time>2022-10-02T13:02:36Z</time>
      </trkpt>
      <trkpt lat="47.45708" lon="8.26495">
        <ele>402.7</ele>
        <time>2022-10-02T13:02:37Z</time>
      </trkpt>
      <trkpt lat="47.45706" lon="8.26499">
        <ele>402.9</ele>
        <time>2022-10-02T13:02:38Z</time>
      </trkpt>
      <trkpt lat="47.45706" lon="8.265">
        <ele>403</ele>
        <time>2022-10-02T13:02:39Z</time>
      </trkpt>
      <trkpt lat="47.45704" lon="8.26505">
        <ele>403.2</ele>
        <time>2022-10-02T13:02:40Z</time>
      </trkpt>
      <trkpt lat="47.45704" lon="8.26506">
        <ele>403.3</ele>
        <time>2022-10-02T13:02:41Z</time>
      </trkpt>
      <trkpt lat="47.45703" lon="8.2651">
        <ele>403.5</ele>
        <time>2022-10-02T13:02:42Z</time>
      </trkpt>
      <trkpt lat="47.45702" lon="8.26511">
        <ele>403.6</ele>
        <time>2022-10-02T13:02:43Z</time>
      </trkpt>
      <trkpt lat="47.45701" lon="8.26516">
        <ele>403.8</ele>
        <time>2022-10-02T13:02:44Z</time>
      </trkpt>
      <trkpt lat="47.457" lon="8.26517">
        <ele>403.9</ele>
        <time>2022-10-02T13:02:45Z</time>
      </trkpt>
      <trkpt lat="47.45699" lon="8.26521">
        <ele>404.1</ele>
        <time>2022-10-02T13:02:46Z</time>
      </trkpt>
      <trkpt lat="47.45698" lon="8.26522">
        <ele>404.2</ele>
        <time>2022-10-02T13:02:47Z</time>
      </trkpt>
      <trkpt lat="47.45698" lon="8.26525">
        <ele>404.3</ele>
        <time>2022-10-02T13:02:48Z</time>
      </trkpt>
      <trkpt lat="47.45697" lon="8.26527">
        <ele>404.4</ele>
        <time>2022-10-02T13:02:49Z</time>
      </trkpt>
      <trkpt lat="47.45696" lon="8.26531">
        <ele>404.6</ele>
        <time>2022-10-02T13:02:50Z</time>
      </trkpt>
      <trkpt lat="47.45696" lon="8.26532">
        <ele>404.7</ele>
        <time>2022-10-02T13:02:51Z</time>
      </trkpt>
      <trkpt lat="47.45694" lon="8.26535">
        <ele>404.8</ele>
        <time>2022-10-02T13:02:52Z</time>
      </trkpt>
      <trkpt lat="47.45694" lon="8.26537">
        <ele>404.9</ele>
        <time>2022-10-02T13:02:53Z</time>
      </trkpt>
      <trkpt lat="47.45692" lon="8.2654">
        <ele>405.1</ele>
        <time>2022-10-02T13:02:54Z</time>
      </trkpt>
      <trkpt lat="47.45692" lon="8.26542">
        <ele>405.2</ele>
        <time>2022-10-02T13:02:55Z</time>
      </trkpt>
      <trkpt lat="47.4569" lon="8.26546">
        <ele>405.4</ele>
        <time>2022-10-02T13:02:56Z</time>
      </trkpt>
      <trkpt lat="47.4569" lon="8.26547">
        <ele>405.5</ele>
        <time>2022-10-02T13:02:57Z</time>
      </trkpt>
      <trkpt lat="47.45689" lon="8.26549">
        <ele>405.6</ele>
        <time>2022-10-02T13:02:58Z</time>
      </trkpt>
      <trkpt lat="47.45689" lon="8.26551">
        <ele>405.7</ele>
        <time>2022-10-02T13:02:59Z</time>
      </trkpt>
      <trkpt lat="47.45688" lon="8.26554">
        <ele>405.8</ele>
        <time>2022-10-02T13:03:00Z</time>
      </trkpt>
      <trkpt lat="47.45687" lon="8.26556">
        <ele>406</ele>
        <time>2022-10-02T13:03:01Z</time>
      </trkpt>
      <trkpt lat="47.45686" lon="8.26558">
        <ele>406.1</ele>
        <time>2022-10-02T13:03:02Z</time>
      </trkpt>
      <trkpt lat="47.45686" lon="8.2656">
        <ele>406.2</ele>
        <time>2022-10-02T13:03:03Z</time>
      </trkpt>
      <trkpt lat="47.45685" lon="8.26562">
        <ele>406.4</ele>
        <time>2022-10-02T13:03:04Z</time>
      </trkpt>
      <trkpt lat="47.45684" lon="8.26566">
        <ele>406.6</ele>
        <time>2022-10-02T13:03:05Z</time>
      </trkpt>
      <trkpt lat="47.45683" lon="8.26569">
        <ele>406.7</ele>
        <time>2022-10-02T13:03:06Z</time>
      </trkpt>
      <trkpt lat="47.45682" lon="8.2657">
        <ele>406.8</ele>
        <time>2022-10-02T13:03:07Z</time>
      </trkpt>
      <trkpt lat="47.45681" lon="8.26573">
        <ele>407</ele>
        <time>2022-10-02T13:03:08Z</time>
      </trkpt>
      <trkpt lat="47.45681" lon="8.26576">
        <ele>407.1</ele>
        <time>2022-10-02T13:03:09Z</time>
      </trkpt>
      <trkpt lat="47.4568" lon="8.26578">
        <ele>407.2</ele>
        <time>2022-10-02T13:03:10Z</time>
      </trkpt>
      <trkpt lat="47.45679" lon="8.26581">
        <ele>407.4</ele>
        <time>2022-10-02T13:03:11Z</time>
      </trkpt>
      <trkpt lat="47.45678" lon="8.26582">
        <ele>407.5</ele>
        <time>2022-10-02T13:03:12Z</time>
      </trkpt>
      <trkpt lat="47.45678" lon="8.26585">
        <ele>407.6</ele>
        <time>2022-10-02T13:03:13Z</time>
      </trkpt>
      <trkpt lat="47.45677" lon="8.26587">
        <ele>407.7</ele>
        <time>2022-10-02T13:03:14Z</time>
      </trkpt>
      <trkpt lat="47.45676" lon="8.26589">
        <ele>407.8</ele>
        <time>2022-10-02T13:03:15Z</time>
      </trkpt>
      <trkpt lat="47.45675" lon="8.26591">
        <ele>408</ele>
        <time>2022-10-02T13:03:16Z</time>
      </trkpt>
      <trkpt lat="47.45675" lon="8.26594">
        <ele>408.1</ele>
        <time>2022-10-02T13:03:17Z</time>
      </trkpt>
      <trkpt lat="47.45674" lon="8.26596">
        <ele>408.2</ele>
        <time>2022-10-02T13:03:18Z</time>
      </trkpt>
      <trkpt lat="47.45674" lon="8.26599">
        <ele>408.3</ele>
        <time>2022-10-02T13:03:19Z</time>
      </trkpt>
      <trkpt lat="47.45673" lon="8.26601">
        <ele>408.4</ele>
        <time>2022-10-02T13:03:20Z</time>
      </trkpt>
      <trkpt lat="47.45672" lon="8.26603">
        <ele>408.5</ele>
        <time>2022-10-02T13:03:21Z</time>
      </trkpt>
      <trkpt lat="47.45672" lon="8.26606">
        <ele>408.7</ele>
        <time>2022-10-02T13:03:22Z</time>
      </trkpt>
      <trkpt lat="47.4567" lon="8.26609">
        <ele>408.9</ele>
        <time>2022-10-02T13:03:23Z</time>
      </trkpt>
      <trkpt lat="47.4567" lon="8.2661">
        <ele>408.9</ele>
        <time>2022-10-02T13:03:24Z</time>
      </trkpt>
      <trkpt lat="47.45669" lon="8.26612">
        <ele>409</ele>
        <time>2022-10-02T13:03:25Z</time>
      </trkpt>
      <trkpt lat="47.45668" lon="8.26615">
        <ele>409.2</ele>
        <time>2022-10-02T13:03:26Z</time>
      </trkpt>
      <trkpt lat="47.45667" lon="8.26617">
        <ele>409.3</ele>
        <time>2022-10-02T13:03:27Z</time>
      </trkpt>
      <trkpt lat="47.45667" lon="8.2662">
        <ele>409.4</ele>
        <time>2022-10-02T13:03:28Z</time>
      </trkpt>
      <trkpt lat="47.45666" lon="8.26623">
        <ele>409.6</ele>
        <time>2022-10-02T13:03:29Z</time>
      </trkpt>
      <trkpt lat="47.45665" lon="8.26624">
        <ele>409.6</ele>
        <time>2022-10-02T13:03:30Z</time>
      </trkpt>
      <trkpt lat="47.45664" lon="8.26626">
        <ele>409.7</ele>
        <time>2022-10-02T13:03:31Z</time>
      </trkpt>
      <trkpt lat="47.45663" lon="8.26629">
        <ele>409.8</ele>
        <time>2022-10-02T13:03:32Z</time>
      </trkpt>
      <trkpt lat="47.45663" lon="8.26631">
        <ele>409.9</ele>
        <time>2022-10-02T13:03:33Z</time>
      </trkpt>
      <trkpt lat="47.45662" lon="8.26633">
        <ele>410</ele>
        <time>2022-10-02T13:03:34Z</time>
      </trkpt>
      <trkpt lat="47.45662" lon="8.26636">
        <ele>410.1</ele>
        <time>2022-10-02T13:03:35Z</time>
      </trkpt>
      <trkpt lat="47.45661" lon="8.26638">
        <ele>410.2</ele>
        <time>2022-10-02T13:03:36Z</time>
      </trkpt>
      <trkpt lat="47.4566" lon="8.26642">
        <ele>410.3</ele>
        <time>2022-10-02T13:03:37Z</time>
      </trkpt>
      <trkpt lat="47.45659" lon="8.26643">
        <ele>410.4</ele>
        <time>2022-10-02T13:03:38Z</time>
      </trkpt>
      <trkpt lat="47.45658" lon="8.26646">
        <ele>410.5</ele>
        <time>2022-10-02T13:03:39Z</time>
      </trkpt>
      <trkpt lat="47.45657" lon="8.26648">
        <ele>410.6</ele>
        <time>2022-10-02T13:03:40Z</time>
      </trkpt>
      <trkpt lat="47.45657" lon="8.26649">
        <ele>410.6</ele>
        <time>2022-10-02T13:03:41Z</time>
      </trkpt>
      <trkpt lat="47.45656" lon="8.26652">
        <ele>410.7</ele>
        <time>2022-10-02T13:03:42Z</time>
      </trkpt>
      <trkpt lat="47.45655" lon="8.26655">
        <ele>410.9</ele>
        <time>2022-10-02T13:03:43Z</time>
      </trkpt>
      <trkpt lat="47.45654" lon="8.26656">
        <ele>410.9</ele>
        <time>2022-10-02T13:03:44Z</time>
      </trkpt>
      <trkpt lat="47.45654" lon="8.26659">
        <ele>411</ele>
        <time>2022-10-02T13:03:45Z</time>
      </trkpt>
      <trkpt lat="47.45653" lon="8.26661">
        <ele>411.1</ele>
        <time>2022-10-02T13:03:46Z</time>
      </trkpt>
      <trkpt lat="47.45652" lon="8.26663">
        <ele>411.2</ele>
        <time>2022-10-02T13:03:47Z</time>
      </trkpt>
      <trkpt lat="47.45651" lon="8.26665">
        <ele>411.3</ele>
        <time>2022-10-02T13:03:48Z</time>
      </trkpt>
      <trkpt lat="47.45651" lon="8.26667">
        <ele>411.4</ele>
        <time>2022-10-02T13:03:49Z</time>
      </trkpt>
      <trkpt lat="47.45651" lon="8.2667">
        <ele>411.5</ele>
        <time>2022-10-02T13:03:50Z</time>
      </trkpt>
      <trkpt lat="47.4565" lon="8.26672">
        <ele>411.6</ele>
        <time>2022-10-02T13:03:51Z</time>
      </trkpt>
      <trkpt lat="47.45649" lon="8.26674">
        <ele>411.7</ele>
        <time>2022-10-02T13:03:52Z</time>
      </trkpt>
      <trkpt lat="47.45649" lon="8.26677">
        <ele>411.8</ele>
        <time>2022-10-02T13:03:53Z</time>
      </trkpt>
      <trkpt lat="47.45648" lon="8.26679">
        <ele>411.9</ele>
        <time>2022-10-02T13:03:54Z</time>
      </trkpt>
      <trkpt lat="47.45647" lon="8.26681">
        <ele>412</ele>
        <time>2022-10-02T13:03:55Z</time>
      </trkpt>
      <trkpt lat="47.45646" lon="8.26683">
        <ele>412</ele>
        <time>2022-10-02T13:03:56Z</time>
      </trkpt>
      <trkpt lat="47.45644" lon="8.26686">
        <ele>412.2</ele>
        <time>2022-10-02T13:03:57Z</time>
      </trkpt>
      <trkpt lat="47.45644" lon="8.26688">
        <ele>412.3</ele>
        <time>2022-10-02T13:03:58Z</time>
      </trkpt>
      <trkpt lat="47.45643" lon="8.2669">
        <ele>412.3</ele>
        <time>2022-10-02T13:03:59Z</time>
      </trkpt>
      <trkpt lat="47.45643" lon="8.26692">
        <ele>412.4</ele>
        <time>2022-10-02T13:04:00Z</time>
      </trkpt>
      <trkpt lat="47.45642" lon="8.26694">
        <ele>412.5</ele>
        <time>2022-10-02T13:04:01Z</time>
      </trkpt>
      <trkpt lat="47.45641" lon="8.26696">
        <ele>412.6</ele>
        <time>2022-10-02T13:04:02Z</time>
      </trkpt>
      <trkpt lat="47.45641" lon="8.26698">
        <ele>412.7</ele>
        <time>2022-10-02T13:04:03Z</time>
      </trkpt>
      <trkpt lat="47.4564" lon="8.267">
        <ele>412.8</ele>
        <time>2022-10-02T13:04:04Z</time>
      </trkpt>
      <trkpt lat="47.45639" lon="8.26702">
        <ele>412.9</ele>
        <time>2022-10-02T13:04:05Z</time>
      </trkpt>
      <trkpt lat="47.45638" lon="8.26704">
        <ele>412.9</ele>
        <time>2022-10-02T13:04:06Z</time>
      </trkpt>
      <trkpt lat="47.45637" lon="8.26707">
        <ele>413</ele>
        <time>2022-10-02T13:04:07Z</time>
      </trkpt>
      <trkpt lat="47.45637" lon="8.26709">
        <ele>413.1</ele>
        <time>2022-10-02T13:04:08Z</time>
      </trkpt>
      <trkpt lat="47.45636" lon="8.26711">
        <ele>413.2</ele>
        <time>2022-10-02T13:04:09Z</time>
      </trkpt>
      <trkpt lat="47.45635" lon="8.26713">
        <ele>413.3</ele>
        <time>2022-10-02T13:04:10Z</time>
      </trkpt>
      <trkpt lat="47.45634" lon="8.26715">
        <ele>413.3</ele>
        <time>2022-10-02T13:04:11Z</time>
      </trkpt>
      <trkpt lat="47.45633" lon="8.26717">
        <ele>413.4</ele>
        <time>2022-10-02T13:04:12Z</time>
      </trkpt>
      <trkpt lat="47.45632" lon="8.26719">
        <ele>413.5</ele>
        <time>2022-10-02T13:04:13Z</time>
      </trkpt>
      <trkpt lat="47.45632" lon="8.26722">
        <ele>413.6</ele>
        <time>2022-10-02T13:04:14Z</time>
      </trkpt>
      <trkpt lat="47.4563" lon="8.26726">
        <ele>413.7</ele>
        <time>2022-10-02T13:04:15Z</time>
      </trkpt>
      <trkpt lat="47.4563" lon="8.26727">
        <ele>413.7</ele>
        <time>2022-10-02T13:04:16Z</time>
      </trkpt>
      <trkpt lat="47.45629" lon="8.26731">
        <ele>413.8</ele>
        <time>2022-10-02T13:04:17Z</time>
      </trkpt>
      <trkpt lat="47.45628" lon="8.26734">
        <ele>413.9</ele>
        <time>2022-10-02T13:04:19Z</time>
      </trkpt>
      <trkpt lat="47.45626" lon="8.26739">
        <ele>414</ele>
        <time>2022-10-02T13:04:20Z</time>
      </trkpt>
      <trkpt lat="47.45626" lon="8.2674">
        <ele>414.1</ele>
        <time>2022-10-02T13:04:21Z</time>
      </trkpt>
      <trkpt lat="47.45624" lon="8.26746">
        <ele>414.2</ele>
        <time>2022-10-02T13:04:22Z</time>
      </trkpt>
      <trkpt lat="47.45623" lon="8.26748">
        <ele>414.3</ele>
        <time>2022-10-02T13:04:23Z</time>
      </trkpt>
      <trkpt lat="47.45622" lon="8.26752">
        <ele>414.4</ele>
        <time>2022-10-02T13:04:24Z</time>
      </trkpt>
      <trkpt lat="47.45621" lon="8.26757">
        <ele>414.5</ele>
        <time>2022-10-02T13:04:25Z</time>
      </trkpt>
      <trkpt lat="47.4562" lon="8.26759">
        <ele>414.5</ele>
        <time>2022-10-02T13:04:26Z</time>
      </trkpt>
      <trkpt lat="47.45619" lon="8.26763">
        <ele>414.6</ele>
        <time>2022-10-02T13:04:27Z</time>
      </trkpt>
      <trkpt lat="47.45618" lon="8.26768">
        <ele>414.7</ele>
        <time>2022-10-02T13:04:28Z</time>
      </trkpt>
      <trkpt lat="47.45617" lon="8.26772">
        <ele>414.8</ele>
        <time>2022-10-02T13:04:29Z</time>
      </trkpt>
      <trkpt lat="47.45616" lon="8.26777">
        <ele>414.8</ele>
        <time>2022-10-02T13:04:30Z</time>
      </trkpt>
      <trkpt lat="47.45614" lon="8.26782">
        <ele>414.9</ele>
        <time>2022-10-02T13:04:31Z</time>
      </trkpt>
      <trkpt lat="47.45614" lon="8.26786">
        <ele>414.9</ele>
        <time>2022-10-02T13:04:32Z</time>
      </trkpt>
      <trkpt lat="47.45613" lon="8.26791">
        <ele>415</ele>
        <time>2022-10-02T13:04:33Z</time>
      </trkpt>
      <trkpt lat="47.45613" lon="8.26796">
        <ele>415.1</ele>
        <time>2022-10-02T13:04:34Z</time>
      </trkpt>
      <trkpt lat="47.45612" lon="8.26801">
        <ele>415.1</ele>
        <time>2022-10-02T13:04:35Z</time>
      </trkpt>
      <trkpt lat="47.45612" lon="8.26805">
        <ele>415.1</ele>
        <time>2022-10-02T13:04:36Z</time>
      </trkpt>
      <trkpt lat="47.45611" lon="8.2681">
        <ele>415.2</ele>
        <time>2022-10-02T13:04:37Z</time>
      </trkpt>
      <trkpt lat="47.45611" lon="8.26816">
        <ele>415.2</ele>
        <time>2022-10-02T13:04:38Z</time>
      </trkpt>
      <trkpt lat="47.45611" lon="8.26821">
        <ele>415.3</ele>
        <time>2022-10-02T13:04:39Z</time>
      </trkpt>
      <trkpt lat="47.45611" lon="8.26826">
        <ele>415.3</ele>
        <time>2022-10-02T13:04:40Z</time>
      </trkpt>
      <trkpt lat="47.45611" lon="8.26831">
        <ele>415.4</ele>
        <time>2022-10-02T13:04:41Z</time>
      </trkpt>
      <trkpt lat="47.45611" lon="8.26836">
        <ele>415.4</ele>
        <time>2022-10-02T13:04:42Z</time>
      </trkpt>
      <trkpt lat="47.45611" lon="8.26841">
        <ele>415.5</ele>
        <time>2022-10-02T13:04:43Z</time>
      </trkpt>
      <trkpt lat="47.4561" lon="8.26846">
        <ele>415.6</ele>
        <time>2022-10-02T13:04:44Z</time>
      </trkpt>
      <trkpt lat="47.4561" lon="8.2685">
        <ele>415.6</ele>
        <time>2022-10-02T13:04:45Z</time>
      </trkpt>
      <trkpt lat="47.4561" lon="8.26854">
        <ele>415.7</ele>
        <time>2022-10-02T13:04:46Z</time>
      </trkpt>
      <trkpt lat="47.4561" lon="8.26858">
        <ele>415.7</ele>
        <time>2022-10-02T13:04:47Z</time>
      </trkpt>
      <trkpt lat="47.4561" lon="8.26862">
        <ele>415.8</ele>
        <time>2022-10-02T13:04:48Z</time>
      </trkpt>
      <trkpt lat="47.4561" lon="8.26867">
        <ele>415.8</ele>
        <time>2022-10-02T13:04:49Z</time>
      </trkpt>
      <trkpt lat="47.4561" lon="8.26871">
        <ele>415.9</ele>
        <time>2022-10-02T13:04:50Z</time>
      </trkpt>
      <trkpt lat="47.45609" lon="8.26876">
        <ele>415.9</ele>
        <time>2022-10-02T13:04:51Z</time>
      </trkpt>
      <trkpt lat="47.45609" lon="8.26881">
        <ele>416</ele>
        <time>2022-10-02T13:04:52Z</time>
      </trkpt>
      <trkpt lat="47.45609" lon="8.26887">
        <ele>416.1</ele>
        <time>2022-10-02T13:04:53Z</time>
      </trkpt>
      <trkpt lat="47.4561" lon="8.26893">
        <ele>416.1</ele>
        <time>2022-10-02T13:04:54Z</time>
      </trkpt>
      <trkpt lat="47.4561" lon="8.26905">
        <ele>416.3</ele>
        <time>2022-10-02T13:04:55Z</time>
      </trkpt>
      <trkpt lat="47.45613" lon="8.26909">
        <ele>416.4</ele>
        <time>2022-10-02T13:04:56Z</time>
      </trkpt>
      <trkpt lat="47.45613" lon="8.2691">
        <ele>416.5</ele>
        <time>2022-10-02T13:04:57Z</time>
      </trkpt>
      <trkpt lat="47.45614" lon="8.26913">
        <ele>416.5</ele>
        <time>2022-10-02T13:04:58Z</time>
      </trkpt>
      <trkpt lat="47.45614" lon="8.26918">
        <ele>416.6</ele>
        <time>2022-10-02T13:04:59Z</time>
      </trkpt>
      <trkpt lat="47.45614" lon="8.2692">
        <ele>416.7</ele>
        <time>2022-10-02T13:05:00Z</time>
      </trkpt>
      <trkpt lat="47.45616" lon="8.26926">
        <ele>416.8</ele>
        <time>2022-10-02T13:05:01Z</time>
      </trkpt>
      <trkpt lat="47.45616" lon="8.26928">
        <ele>416.9</ele>
        <time>2022-10-02T13:05:02Z</time>
      </trkpt>
      <trkpt lat="47.45617" lon="8.26932">
        <ele>417</ele>
        <time>2022-10-02T13:05:03Z</time>
      </trkpt>
      <trkpt lat="47.45618" lon="8.26934">
        <ele>417.1</ele>
        <time>2022-10-02T13:05:04Z</time>
      </trkpt>
      <trkpt lat="47.45619" lon="8.26938">
        <ele>417.2</ele>
        <time>2022-10-02T13:05:05Z</time>
      </trkpt>
      <trkpt lat="47.4562" lon="8.26942">
        <ele>417.3</ele>
        <time>2022-10-02T13:05:06Z</time>
      </trkpt>
      <trkpt lat="47.45621" lon="8.26946">
        <ele>417.4</ele>
        <time>2022-10-02T13:05:07Z</time>
      </trkpt>
      <trkpt lat="47.45621" lon="8.26949">
        <ele>417.5</ele>
        <time>2022-10-02T13:05:08Z</time>
      </trkpt>
      <trkpt lat="47.45623" lon="8.26954">
        <ele>417.6</ele>
        <time>2022-10-02T13:05:09Z</time>
      </trkpt>
      <trkpt lat="47.45623" lon="8.26956">
        <ele>417.7</ele>
        <time>2022-10-02T13:05:10Z</time>
      </trkpt>
      <trkpt lat="47.45626" lon="8.26964">
        <ele>417.9</ele>
        <time>2022-10-02T13:05:11Z</time>
      </trkpt>
      <trkpt lat="47.45627" lon="8.26967">
        <ele>418</ele>
        <time>2022-10-02T13:05:12Z</time>
      </trkpt>
      <trkpt lat="47.45628" lon="8.26971">
        <ele>418.1</ele>
        <time>2022-10-02T13:05:13Z</time>
      </trkpt>
      <trkpt lat="47.4563" lon="8.26977">
        <ele>418.2</ele>
        <time>2022-10-02T13:05:14Z</time>
      </trkpt>
      <trkpt lat="47.45631" lon="8.26978">
        <ele>418.3</ele>
        <time>2022-10-02T13:05:15Z</time>
      </trkpt>
      <trkpt lat="47.45632" lon="8.26982">
        <ele>418.4</ele>
        <time>2022-10-02T13:05:16Z</time>
      </trkpt>
      <trkpt lat="47.45633" lon="8.26986">
        <ele>418.5</ele>
        <time>2022-10-02T13:05:17Z</time>
      </trkpt>
      <trkpt lat="47.45634" lon="8.26987">
        <ele>418.5</ele>
        <time>2022-10-02T13:05:18Z</time>
      </trkpt>
      <trkpt lat="47.45635" lon="8.2699">
        <ele>418.6</ele>
        <time>2022-10-02T13:05:19Z</time>
      </trkpt>
      <trkpt lat="47.45636" lon="8.26992">
        <ele>418.6</ele>
        <time>2022-10-02T13:05:20Z</time>
      </trkpt>
      <trkpt lat="47.45637" lon="8.26993">
        <ele>418.6</ele>
        <time>2022-10-02T13:05:21Z</time>
      </trkpt>
      <trkpt lat="47.45638" lon="8.26995">
        <ele>418.7</ele>
        <time>2022-10-02T13:05:22Z</time>
      </trkpt>
      <trkpt lat="47.45639" lon="8.26997">
        <ele>418.7</ele>
        <time>2022-10-02T13:05:23Z</time>
      </trkpt>
      <trkpt lat="47.4564" lon="8.26998">
        <ele>418.7</ele>
        <time>2022-10-02T13:05:24Z</time>
      </trkpt>
      <trkpt lat="47.45641" lon="8.27">
        <ele>418.8</ele>
        <time>2022-10-02T13:05:25Z</time>
      </trkpt>
      <trkpt lat="47.45642" lon="8.27002">
        <ele>418.8</ele>
        <time>2022-10-02T13:05:26Z</time>
      </trkpt>
      <trkpt lat="47.45643" lon="8.27003">
        <ele>418.8</ele>
        <time>2022-10-02T13:05:27Z</time>
      </trkpt>
      <trkpt lat="47.45644" lon="8.27005">
        <ele>418.9</ele>
        <time>2022-10-02T13:05:28Z</time>
      </trkpt>
      <trkpt lat="47.45645" lon="8.27007">
        <ele>418.9</ele>
        <time>2022-10-02T13:05:29Z</time>
      </trkpt>
      <trkpt lat="47.45646" lon="8.27008">
        <ele>418.9</ele>
        <time>2022-10-02T13:21:06Z</time>
      </trkpt>
      <trkpt lat="47.45647" lon="8.2701">
        <ele>419</ele>
        <time>2022-10-02T13:21:07Z</time>
      </trkpt>
      <trkpt lat="47.45648" lon="8.27015">
        <ele>419</ele>
        <time>2022-10-02T13:21:08Z</time>
      </trkpt>
      <trkpt lat="47.45649" lon="8.27017">
        <ele>419.1</ele>
        <time>2022-10-02T13:21:09Z</time>
      </trkpt>
      <trkpt lat="47.45651" lon="8.27022">
        <ele>419.2</ele>
        <time>2022-10-02T13:21:10Z</time>
      </trkpt>
      <trkpt lat="47.45652" lon="8.27023">
        <ele>419.3</ele>
        <time>2022-10-02T13:21:11Z</time>
      </trkpt>
      <trkpt lat="47.45654" lon="8.27025">
        <ele>419.4</ele>
        <time>2022-10-02T13:21:12Z</time>
      </trkpt>
      <trkpt lat="47.45656" lon="8.2703">
        <ele>419.6</ele>
        <time>2022-10-02T13:21:13Z</time>
      </trkpt>
      <trkpt lat="47.45657" lon="8.27032">
        <ele>419.6</ele>
        <time>2022-10-02T13:21:14Z</time>
      </trkpt>
      <trkpt lat="47.45659" lon="8.27036">
        <ele>419.7</ele>
        <time>2022-10-02T13:21:15Z</time>
      </trkpt>
      <trkpt lat="47.45662" lon="8.2704">
        <ele>419.9</ele>
        <time>2022-10-02T13:21:16Z</time>
      </trkpt>
      <trkpt lat="47.45664" lon="8.27044">
        <ele>420</ele>
        <time>2022-10-02T13:21:17Z</time>
      </trkpt>
      <trkpt lat="47.45666" lon="8.27048">
        <ele>420.2</ele>
        <time>2022-10-02T13:21:18Z</time>
      </trkpt>
      <trkpt lat="47.45667" lon="8.2705">
        <ele>420.3</ele>
        <time>2022-10-02T13:21:19Z</time>
      </trkpt>
      <trkpt lat="47.45669" lon="8.27054">
        <ele>420.4</ele>
        <time>2022-10-02T13:21:20Z</time>
      </trkpt>
      <trkpt lat="47.45671" lon="8.27057">
        <ele>420.5</ele>
        <time>2022-10-02T13:21:21Z</time>
      </trkpt>
      <trkpt lat="47.45673" lon="8.27061">
        <ele>420.6</ele>
        <time>2022-10-02T13:21:22Z</time>
      </trkpt>
      <trkpt lat="47.45675" lon="8.27065">
        <ele>420.8</ele>
        <time>2022-10-02T13:21:23Z</time>
      </trkpt>
      <trkpt lat="47.45677" lon="8.27068">
        <ele>420.9</ele>
        <time>2022-10-02T13:21:24Z</time>
      </trkpt>
      <trkpt lat="47.45679" lon="8.27072">
        <ele>421.1</ele>
        <time>2022-10-02T13:21:25Z</time>
      </trkpt>
      <trkpt lat="47.45682" lon="8.27076">
        <ele>421.2</ele>
        <time>2022-10-02T13:21:26Z</time>
      </trkpt>
      <trkpt lat="47.45684" lon="8.2708">
        <ele>421.4</ele>
        <time>2022-10-02T13:21:27Z</time>
      </trkpt>
      <trkpt lat="47.45686" lon="8.27084">
        <ele>421.6</ele>
        <time>2022-10-02T13:21:28Z</time>
      </trkpt>
      <trkpt lat="47.45688" lon="8.27088">
        <ele>421.7</ele>
        <time>2022-10-02T13:21:29Z</time>
      </trkpt>
      <trkpt lat="47.4569" lon="8.27092">
        <ele>421.9</ele>
        <time>2022-10-02T13:21:30Z</time>
      </trkpt>
      <trkpt lat="47.45693" lon="8.27096">
        <ele>422.1</ele>
        <time>2022-10-02T13:21:31Z</time>
      </trkpt>
      <trkpt lat="47.45695" lon="8.27099">
        <ele>422.3</ele>
        <time>2022-10-02T13:21:32Z</time>
      </trkpt>
      <trkpt lat="47.45697" lon="8.27103">
        <ele>422.4</ele>
        <time>2022-10-02T13:21:33Z</time>
      </trkpt>
      <trkpt lat="47.45698" lon="8.27107">
        <ele>422.6</ele>
        <time>2022-10-02T13:21:34Z</time>
      </trkpt>
      <trkpt lat="47.457" lon="8.2711">
        <ele>422.8</ele>
        <time>2022-10-02T13:21:35Z</time>
      </trkpt>
      <trkpt lat="47.45702" lon="8.27114">
        <ele>423</ele>
        <time>2022-10-02T13:21:36Z</time>
      </trkpt>
      <trkpt lat="47.45703" lon="8.27118">
        <ele>423.1</ele>
        <time>2022-10-02T13:21:37Z</time>
      </trkpt>
      <trkpt lat="47.45705" lon="8.27122">
        <ele>423.3</ele>
        <time>2022-10-02T13:21:38Z</time>
      </trkpt>
      <trkpt lat="47.45707" lon="8.27125">
        <ele>423.5</ele>
        <time>2022-10-02T13:21:39Z</time>
      </trkpt>
      <trkpt lat="47.45709" lon="8.2713">
        <ele>423.7</ele>
        <time>2022-10-02T13:21:40Z</time>
      </trkpt>
      <trkpt lat="47.4571" lon="8.27132">
        <ele>423.8</ele>
        <time>2022-10-02T13:21:41Z</time>
      </trkpt>
      <trkpt lat="47.45712" lon="8.27136">
        <ele>424</ele>
        <time>2022-10-02T13:21:42Z</time>
      </trkpt>
      <trkpt lat="47.45713" lon="8.2714">
        <ele>424.2</ele>
        <time>2022-10-02T13:21:43Z</time>
      </trkpt>
      <trkpt lat="47.45714" lon="8.27144">
        <ele>424.4</ele>
        <time>2022-10-02T13:21:44Z</time>
      </trkpt>
      <trkpt lat="47.45716" lon="8.27149">
        <ele>424.6</ele>
        <time>2022-10-02T13:21:45Z</time>
      </trkpt>
      <trkpt lat="47.45717" lon="8.2715">
        <ele>424.7</ele>
        <time>2022-10-02T13:21:46Z</time>
      </trkpt>
      <trkpt lat="47.45718" lon="8.27155">
        <ele>424.9</ele>
        <time>2022-10-02T13:21:47Z</time>
      </trkpt>
      <trkpt lat="47.45719" lon="8.27157">
        <ele>425</ele>
        <time>2022-10-02T13:21:48Z</time>
      </trkpt>
      <trkpt lat="47.4572" lon="8.27162">
        <ele>425.2</ele>
        <time>2022-10-02T13:21:49Z</time>
      </trkpt>
      <trkpt lat="47.45721" lon="8.27164">
        <ele>425.3</ele>
        <time>2022-10-02T13:21:50Z</time>
      </trkpt>
      <trkpt lat="47.45723" lon="8.27168">
        <ele>425.6</ele>
        <time>2022-10-02T13:21:51Z</time>
      </trkpt>
      <trkpt lat="47.45723" lon="8.2717">
        <ele>425.7</ele>
        <time>2022-10-02T13:21:52Z</time>
      </trkpt>
      <trkpt lat="47.45725" lon="8.27175">
        <ele>425.9</ele>
        <time>2022-10-02T13:21:53Z</time>
      </trkpt>
      <trkpt lat="47.45725" lon="8.27176">
        <ele>426</ele>
        <time>2022-10-02T13:21:54Z</time>
      </trkpt>
      <trkpt lat="47.45726" lon="8.27182">
        <ele>426.2</ele>
        <time>2022-10-02T13:21:55Z</time>
      </trkpt>
      <trkpt lat="47.45727" lon="8.27183">
        <ele>426.3</ele>
        <time>2022-10-02T13:21:56Z</time>
      </trkpt>
      <trkpt lat="47.45729" lon="8.27187">
        <ele>426.6</ele>
        <time>2022-10-02T13:21:57Z</time>
      </trkpt>
      <trkpt lat="47.45729" lon="8.27188">
        <ele>426.6</ele>
        <time>2022-10-02T13:21:58Z</time>
      </trkpt>
      <trkpt lat="47.4573" lon="8.27193">
        <ele>426.8</ele>
        <time>2022-10-02T13:21:59Z</time>
      </trkpt>
      <trkpt lat="47.45731" lon="8.27194">
        <ele>426.9</ele>
        <time>2022-10-02T13:22:00Z</time>
      </trkpt>
      <trkpt lat="47.45732" lon="8.27199">
        <ele>427.1</ele>
        <time>2022-10-02T13:22:01Z</time>
      </trkpt>
      <trkpt lat="47.45732" lon="8.272">
        <ele>427.2</ele>
        <time>2022-10-02T13:22:02Z</time>
      </trkpt>
      <trkpt lat="47.45733" lon="8.27204">
        <ele>427.4</ele>
        <time>2022-10-02T13:22:03Z</time>
      </trkpt>
      <trkpt lat="47.45734" lon="8.27206">
        <ele>427.4</ele>
        <time>2022-10-02T13:22:04Z</time>
      </trkpt>
      <trkpt lat="47.45734" lon="8.27211">
        <ele>427.7</ele>
        <time>2022-10-02T13:22:05Z</time>
      </trkpt>
      <trkpt lat="47.45734" lon="8.27212">
        <ele>427.7</ele>
        <time>2022-10-02T13:22:06Z</time>
      </trkpt>
      <trkpt lat="47.45736" lon="8.27216">
        <ele>427.9</ele>
        <time>2022-10-02T13:22:07Z</time>
      </trkpt>
      <trkpt lat="47.45736" lon="8.27217">
        <ele>428</ele>
        <time>2022-10-02T13:22:08Z</time>
      </trkpt>
      <trkpt lat="47.45736" lon="8.27222">
        <ele>428.2</ele>
        <time>2022-10-02T13:22:09Z</time>
      </trkpt>
      <trkpt lat="47.45737" lon="8.27224">
        <ele>428.3</ele>
        <time>2022-10-02T13:22:10Z</time>
      </trkpt>
      <trkpt lat="47.45738" lon="8.27228">
        <ele>428.5</ele>
        <time>2022-10-02T13:22:11Z</time>
      </trkpt>
      <trkpt lat="47.45739" lon="8.2723">
        <ele>428.6</ele>
        <time>2022-10-02T13:22:12Z</time>
      </trkpt>
      <trkpt lat="47.4574" lon="8.27235">
        <ele>428.8</ele>
        <time>2022-10-02T13:22:13Z</time>
      </trkpt>
      <trkpt lat="47.4574" lon="8.27236">
        <ele>428.9</ele>
        <time>2022-10-02T13:22:14Z</time>
      </trkpt>
      <trkpt lat="47.45741" lon="8.27241">
        <ele>429.1</ele>
        <time>2022-10-02T13:22:15Z</time>
      </trkpt>
      <trkpt lat="47.45742" lon="8.27242">
        <ele>429.2</ele>
        <time>2022-10-02T13:22:16Z</time>
      </trkpt>
      <trkpt lat="47.45743" lon="8.27246">
        <ele>429.4</ele>
        <time>2022-10-02T13:22:17Z</time>
      </trkpt>
      <trkpt lat="47.45743" lon="8.27248">
        <ele>429.5</ele>
        <time>2022-10-02T13:22:18Z</time>
      </trkpt>
      <trkpt lat="47.45744" lon="8.27252">
        <ele>429.7</ele>
        <time>2022-10-02T13:22:19Z</time>
      </trkpt>
      <trkpt lat="47.45744" lon="8.27253">
        <ele>429.8</ele>
        <time>2022-10-02T13:22:20Z</time>
      </trkpt>
      <trkpt lat="47.45746" lon="8.27258">
        <ele>430</ele>
        <time>2022-10-02T13:22:21Z</time>
      </trkpt>
      <trkpt lat="47.45746" lon="8.27259">
        <ele>430.1</ele>
        <time>2022-10-02T13:22:22Z</time>
      </trkpt>
      <trkpt lat="47.45747" lon="8.27261">
        <ele>430.2</ele>
        <time>2022-10-02T13:22:23Z</time>
      </trkpt>
      <trkpt lat="47.45747" lon="8.27265">
        <ele>430.4</ele>
        <time>2022-10-02T13:22:24Z</time>
      </trkpt>
      <trkpt lat="47.45747" lon="8.2727">
        <ele>430.6</ele>
        <time>2022-10-02T13:22:25Z</time>
      </trkpt>
      <trkpt lat="47.45747" lon="8.27272">
        <ele>430.7</ele>
        <time>2022-10-02T13:22:26Z</time>
      </trkpt>
      <trkpt lat="47.45747" lon="8.27274">
        <ele>430.9</ele>
        <time>2022-10-02T13:22:27Z</time>
      </trkpt>
      <trkpt lat="47.45747" lon="8.27277">
        <ele>431</ele>
        <time>2022-10-02T13:22:28Z</time>
      </trkpt>
      <trkpt lat="47.45747" lon="8.27281">
        <ele>431.2</ele>
        <time>2022-10-02T13:22:29Z</time>
      </trkpt>
      <trkpt lat="47.45748" lon="8.27283">
        <ele>431.3</ele>
        <time>2022-10-02T13:22:30Z</time>
      </trkpt>
      <trkpt lat="47.45748" lon="8.27287">
        <ele>431.5</ele>
        <time>2022-10-02T13:22:31Z</time>
      </trkpt>
      <trkpt lat="47.45748" lon="8.27289">
        <ele>431.6</ele>
        <time>2022-10-02T13:22:32Z</time>
      </trkpt>
      <trkpt lat="47.45748" lon="8.27292">
        <ele>431.8</ele>
        <time>2022-10-02T13:22:33Z</time>
      </trkpt>
      <trkpt lat="47.45748" lon="8.27294">
        <ele>431.9</ele>
        <time>2022-10-02T13:22:34Z</time>
      </trkpt>
      <trkpt lat="47.4575" lon="8.27298">
        <ele>432.1</ele>
        <time>2022-10-02T13:22:35Z</time>
      </trkpt>
      <trkpt lat="47.4575" lon="8.27299">
        <ele>432.2</ele>
        <time>2022-10-02T13:22:36Z</time>
      </trkpt>
      <trkpt lat="47.4575" lon="8.27304">
        <ele>432.5</ele>
        <time>2022-10-02T13:22:37Z</time>
      </trkpt>
      <trkpt lat="47.45751" lon="8.27305">
        <ele>432.5</ele>
        <time>2022-10-02T13:22:38Z</time>
      </trkpt>
      <trkpt lat="47.45751" lon="8.2731">
        <ele>432.8</ele>
        <time>2022-10-02T13:22:39Z</time>
      </trkpt>
      <trkpt lat="47.45752" lon="8.27311">
        <ele>432.9</ele>
        <time>2022-10-02T13:22:40Z</time>
      </trkpt>
      <trkpt lat="47.45752" lon="8.27316">
        <ele>433.1</ele>
        <time>2022-10-02T13:22:41Z</time>
      </trkpt>
      <trkpt lat="47.45752" lon="8.27318">
        <ele>433.2</ele>
        <time>2022-10-02T13:22:42Z</time>
      </trkpt>
      <trkpt lat="47.45752" lon="8.27322">
        <ele>433.5</ele>
        <time>2022-10-02T13:22:43Z</time>
      </trkpt>
      <trkpt lat="47.45752" lon="8.27324">
        <ele>433.5</ele>
        <time>2022-10-02T13:22:44Z</time>
      </trkpt>
      <trkpt lat="47.45753" lon="8.27328">
        <ele>433.8</ele>
        <time>2022-10-02T13:22:45Z</time>
      </trkpt>
      <trkpt lat="47.45753" lon="8.2733">
        <ele>433.9</ele>
        <time>2022-10-02T13:22:46Z</time>
      </trkpt>
      <trkpt lat="47.45753" lon="8.27334">
        <ele>434.1</ele>
        <time>2022-10-02T13:22:47Z</time>
      </trkpt>
      <trkpt lat="47.45754" lon="8.27335">
        <ele>434.2</ele>
        <time>2022-10-02T13:22:48Z</time>
      </trkpt>
      <trkpt lat="47.45755" lon="8.2734">
        <ele>434.4</ele>
        <time>2022-10-02T13:22:49Z</time>
      </trkpt>
      <trkpt lat="47.45755" lon="8.27341">
        <ele>434.5</ele>
        <time>2022-10-02T13:22:50Z</time>
      </trkpt>
      <trkpt lat="47.45755" lon="8.27346">
        <ele>434.7</ele>
        <time>2022-10-02T13:22:51Z</time>
      </trkpt>
      <trkpt lat="47.45755" lon="8.27347">
        <ele>434.8</ele>
        <time>2022-10-02T13:22:52Z</time>
      </trkpt>
      <trkpt lat="47.45755" lon="8.27352">
        <ele>435.1</ele>
        <time>2022-10-02T13:22:53Z</time>
      </trkpt>
      <trkpt lat="47.45755" lon="8.27354">
        <ele>435.1</ele>
        <time>2022-10-02T13:22:54Z</time>
      </trkpt>
      <trkpt lat="47.45756" lon="8.27358">
        <ele>435.4</ele>
        <time>2022-10-02T13:22:55Z</time>
      </trkpt>
      <trkpt lat="47.45757" lon="8.2736">
        <ele>435.5</ele>
        <time>2022-10-02T13:22:56Z</time>
      </trkpt>
      <trkpt lat="47.45757" lon="8.27364">
        <ele>435.7</ele>
        <time>2022-10-02T13:22:57Z</time>
      </trkpt>
      <trkpt lat="47.45757" lon="8.27366">
        <ele>435.8</ele>
        <time>2022-10-02T13:22:58Z</time>
      </trkpt>
      <trkpt lat="47.45758" lon="8.27371">
        <ele>436</ele>
        <time>2022-10-02T13:22:59Z</time>
      </trkpt>
      <trkpt lat="47.45759" lon="8.27372">
        <ele>436.1</ele>
        <time>2022-10-02T13:23:00Z</time>
      </trkpt>
      <trkpt lat="47.4576" lon="8.27376">
        <ele>436.3</ele>
        <time>2022-10-02T13:23:01Z</time>
      </trkpt>
      <trkpt lat="47.4576" lon="8.27378">
        <ele>436.4</ele>
        <time>2022-10-02T13:23:02Z</time>
      </trkpt>
      <trkpt lat="47.45761" lon="8.27382">
        <ele>436.6</ele>
        <time>2022-10-02T13:23:03Z</time>
      </trkpt>
      <trkpt lat="47.45761" lon="8.27384">
        <ele>436.7</ele>
        <time>2022-10-02T13:23:04Z</time>
      </trkpt>
      <trkpt lat="47.45761" lon="8.27388">
        <ele>436.9</ele>
        <time>2022-10-02T13:23:05Z</time>
      </trkpt>
      <trkpt lat="47.4576" lon="8.2739">
        <ele>437</ele>
        <time>2022-10-02T13:23:06Z</time>
      </trkpt>
      <trkpt lat="47.45761" lon="8.27394">
        <ele>437.2</ele>
        <time>2022-10-02T13:23:07Z</time>
      </trkpt>
      <trkpt lat="47.45761" lon="8.27395">
        <ele>437.3</ele>
        <time>2022-10-02T13:23:08Z</time>
      </trkpt>
      <trkpt lat="47.45761" lon="8.27399">
        <ele>437.5</ele>
        <time>2022-10-02T13:23:09Z</time>
      </trkpt>
      <trkpt lat="47.45762" lon="8.27401">
        <ele>437.5</ele>
        <time>2022-10-02T13:23:10Z</time>
      </trkpt>
      <trkpt lat="47.45763" lon="8.27405">
        <ele>437.8</ele>
        <time>2022-10-02T13:23:11Z</time>
      </trkpt>
      <trkpt lat="47.45763" lon="8.27407">
        <ele>437.8</ele>
        <time>2022-10-02T13:23:12Z</time>
      </trkpt>
      <trkpt lat="47.45763" lon="8.27411">
        <ele>438.1</ele>
        <time>2022-10-02T13:23:13Z</time>
      </trkpt>
      <trkpt lat="47.45763" lon="8.27412">
        <ele>438.1</ele>
        <time>2022-10-02T13:23:14Z</time>
      </trkpt>
      <trkpt lat="47.45764" lon="8.27417">
        <ele>438.3</ele>
        <time>2022-10-02T13:23:15Z</time>
      </trkpt>
      <trkpt lat="47.45764" lon="8.27418">
        <ele>438.4</ele>
        <time>2022-10-02T13:23:16Z</time>
      </trkpt>
      <trkpt lat="47.45765" lon="8.27423">
        <ele>438.6</ele>
        <time>2022-10-02T13:23:17Z</time>
      </trkpt>
      <trkpt lat="47.45765" lon="8.27424">
        <ele>438.7</ele>
        <time>2022-10-02T13:23:18Z</time>
      </trkpt>
      <trkpt lat="47.45765" lon="8.27429">
        <ele>438.9</ele>
        <time>2022-10-02T13:23:19Z</time>
      </trkpt>
      <trkpt lat="47.45764" lon="8.27431">
        <ele>439</ele>
        <time>2022-10-02T13:23:20Z</time>
      </trkpt>
      <trkpt lat="47.45764" lon="8.27437">
        <ele>439.2</ele>
        <time>2022-10-02T13:23:21Z</time>
      </trkpt>
      <trkpt lat="47.45764" lon="8.27439">
        <ele>439.3</ele>
        <time>2022-10-02T13:23:22Z</time>
      </trkpt>
      <trkpt lat="47.45764" lon="8.27443">
        <ele>439.5</ele>
        <time>2022-10-02T13:23:23Z</time>
      </trkpt>
      <trkpt lat="47.45764" lon="8.27445">
        <ele>439.5</ele>
        <time>2022-10-02T13:23:24Z</time>
      </trkpt>
      <trkpt lat="47.45765" lon="8.27449">
        <ele>439.7</ele>
        <time>2022-10-02T13:23:25Z</time>
      </trkpt>
      <trkpt lat="47.45765" lon="8.2745">
        <ele>439.8</ele>
        <time>2022-10-02T13:23:26Z</time>
      </trkpt>
      <trkpt lat="47.45767" lon="8.27455">
        <ele>439.9</ele>
        <time>2022-10-02T13:23:27Z</time>
      </trkpt>
      <trkpt lat="47.45767" lon="8.27457">
        <ele>440</ele>
        <time>2022-10-02T13:23:28Z</time>
      </trkpt>
      <trkpt lat="47.45767" lon="8.27461">
        <ele>440.2</ele>
        <time>2022-10-02T13:23:29Z</time>
      </trkpt>
      <trkpt lat="47.45767" lon="8.27463">
        <ele>440.2</ele>
        <time>2022-10-02T13:23:30Z</time>
      </trkpt>
      <trkpt lat="47.45768" lon="8.27467">
        <ele>440.4</ele>
        <time>2022-10-02T13:23:31Z</time>
      </trkpt>
      <trkpt lat="47.45768" lon="8.27468">
        <ele>440.4</ele>
        <time>2022-10-02T13:23:32Z</time>
      </trkpt>
      <trkpt lat="47.45767" lon="8.27473">
        <ele>440.6</ele>
        <time>2022-10-02T13:23:33Z</time>
      </trkpt>
      <trkpt lat="47.45767" lon="8.27474">
        <ele>440.7</ele>
        <time>2022-10-02T13:23:34Z</time>
      </trkpt>
      <trkpt lat="47.45768" lon="8.2748">
        <ele>440.9</ele>
        <time>2022-10-02T13:23:35Z</time>
      </trkpt>
      <trkpt lat="47.45768" lon="8.27481">
        <ele>440.9</ele>
        <time>2022-10-02T13:23:36Z</time>
      </trkpt>
      <trkpt lat="47.45769" lon="8.27484">
        <ele>441</ele>
        <time>2022-10-02T13:23:37Z</time>
      </trkpt>
      <trkpt lat="47.45769" lon="8.27486">
        <ele>441.1</ele>
        <time>2022-10-02T13:23:38Z</time>
      </trkpt>
      <trkpt lat="47.4577" lon="8.27489">
        <ele>441.3</ele>
        <time>2022-10-02T13:23:39Z</time>
      </trkpt>
      <trkpt lat="47.45771" lon="8.27491">
        <ele>441.3</ele>
        <time>2022-10-02T13:23:40Z</time>
      </trkpt>
      <trkpt lat="47.45772" lon="8.27495">
        <ele>441.5</ele>
        <time>2022-10-02T13:23:41Z</time>
      </trkpt>
      <trkpt lat="47.45772" lon="8.27496">
        <ele>441.5</ele>
        <time>2022-10-02T13:23:42Z</time>
      </trkpt>
      <trkpt lat="47.45771" lon="8.27498">
        <ele>441.6</ele>
        <time>2022-10-02T13:23:43Z</time>
      </trkpt>
      <trkpt lat="47.45773" lon="8.27501">
        <ele>441.7</ele>
        <time>2022-10-02T13:23:44Z</time>
      </trkpt>
      <trkpt lat="47.45773" lon="8.27503">
        <ele>441.8</ele>
        <time>2022-10-02T13:23:45Z</time>
      </trkpt>
      <trkpt lat="47.45773" lon="8.27505">
        <ele>441.9</ele>
        <time>2022-10-02T13:23:46Z</time>
      </trkpt>
      <trkpt lat="47.45774" lon="8.27509">
        <ele>442</ele>
        <time>2022-10-02T13:23:47Z</time>
      </trkpt>
      <trkpt lat="47.45775" lon="8.2751">
        <ele>442.1</ele>
        <time>2022-10-02T13:23:48Z</time>
      </trkpt>
      <trkpt lat="47.45775" lon="8.27512">
        <ele>442.2</ele>
        <time>2022-10-02T13:23:49Z</time>
      </trkpt>
      <trkpt lat="47.45776" lon="8.27514">
        <ele>442.3</ele>
        <time>2022-10-02T13:23:50Z</time>
      </trkpt>
      <trkpt lat="47.45776" lon="8.27517">
        <ele>442.4</ele>
        <time>2022-10-02T13:23:51Z</time>
      </trkpt>
      <trkpt lat="47.45777" lon="8.27519">
        <ele>442.5</ele>
        <time>2022-10-02T13:23:52Z</time>
      </trkpt>
      <trkpt lat="47.45778" lon="8.27524">
        <ele>442.6</ele>
        <time>2022-10-02T13:23:53Z</time>
      </trkpt>
      <trkpt lat="47.45778" lon="8.27525">
        <ele>442.7</ele>
        <time>2022-10-02T13:23:54Z</time>
      </trkpt>
      <trkpt lat="47.45778" lon="8.2753">
        <ele>442.8</ele>
        <time>2022-10-02T13:23:55Z</time>
      </trkpt>
      <trkpt lat="47.45779" lon="8.27531">
        <ele>442.9</ele>
        <time>2022-10-02T13:23:56Z</time>
      </trkpt>
      <trkpt lat="47.45779" lon="8.27534">
        <ele>443</ele>
        <time>2022-10-02T13:23:57Z</time>
      </trkpt>
      <trkpt lat="47.4578" lon="8.27536">
        <ele>443</ele>
        <time>2022-10-02T13:23:58Z</time>
      </trkpt>
      <trkpt lat="47.45781" lon="8.27541">
        <ele>443.2</ele>
        <time>2022-10-02T13:23:59Z</time>
      </trkpt>
      <trkpt lat="47.45781" lon="8.27543">
        <ele>443.3</ele>
        <time>2022-10-02T13:24:00Z</time>
      </trkpt>
      <trkpt lat="47.45782" lon="8.27548">
        <ele>443.4</ele>
        <time>2022-10-02T13:24:01Z</time>
      </trkpt>
      <trkpt lat="47.45783" lon="8.2755">
        <ele>443.5</ele>
        <time>2022-10-02T13:24:02Z</time>
      </trkpt>
      <trkpt lat="47.45784" lon="8.27555">
        <ele>443.6</ele>
        <time>2022-10-02T13:24:03Z</time>
      </trkpt>
      <trkpt lat="47.45784" lon="8.27556">
        <ele>443.7</ele>
        <time>2022-10-02T13:24:04Z</time>
      </trkpt>
      <trkpt lat="47.45786" lon="8.27561">
        <ele>443.7</ele>
        <time>2022-10-02T13:24:05Z</time>
      </trkpt>
      <trkpt lat="47.45786" lon="8.27563">
        <ele>443.8</ele>
        <time>2022-10-02T13:24:06Z</time>
      </trkpt>
      <trkpt lat="47.45787" lon="8.27568">
        <ele>443.8</ele>
        <time>2022-10-02T13:24:07Z</time>
      </trkpt>
      <trkpt lat="47.45787" lon="8.2757">
        <ele>443.9</ele>
        <time>2022-10-02T13:24:08Z</time>
      </trkpt>
      <trkpt lat="47.45788" lon="8.27575">
        <ele>443.9</ele>
        <time>2022-10-02T13:24:09Z</time>
      </trkpt>
      <trkpt lat="47.45788" lon="8.27577">
        <ele>444</ele>
        <time>2022-10-02T13:24:10Z</time>
      </trkpt>
      <trkpt lat="47.45788" lon="8.27582">
        <ele>444</ele>
        <time>2022-10-02T13:24:11Z</time>
      </trkpt>
      <trkpt lat="47.45788" lon="8.27583">
        <ele>444</ele>
        <time>2022-10-02T13:24:12Z</time>
      </trkpt>
      <trkpt lat="47.45789" lon="8.27588">
        <ele>444</ele>
        <time>2022-10-02T13:24:13Z</time>
      </trkpt>
      <trkpt lat="47.45789" lon="8.2759">
        <ele>444.1</ele>
        <time>2022-10-02T13:24:14Z</time>
      </trkpt>
      <trkpt lat="47.4579" lon="8.27594">
        <ele>444.1</ele>
        <time>2022-10-02T13:24:15Z</time>
      </trkpt>
      <trkpt lat="47.4579" lon="8.27595">
        <ele>444.1</ele>
        <time>2022-10-02T13:24:16Z</time>
      </trkpt>
      <trkpt lat="47.45791" lon="8.27598">
        <ele>444.1</ele>
        <time>2022-10-02T13:24:17Z</time>
      </trkpt>
      <trkpt lat="47.45792" lon="8.276">
        <ele>444.1</ele>
        <time>2022-10-02T13:24:18Z</time>
      </trkpt>
      <trkpt lat="47.45792" lon="8.27601">
        <ele>444.1</ele>
        <time>2022-10-02T13:24:19Z</time>
      </trkpt>
      <trkpt lat="47.45792" lon="8.27602">
        <ele>444.1</ele>
        <time>2022-10-02T13:24:20Z</time>
      </trkpt>
      <trkpt lat="47.45793" lon="8.27604">
        <ele>444.1</ele>
        <time>2022-10-02T13:24:21Z</time>
      </trkpt>
      <trkpt lat="47.45794" lon="8.27608">
        <ele>444.1</ele>
        <time>2022-10-02T13:24:22Z</time>
      </trkpt>
      <trkpt lat="47.45794" lon="8.27609">
        <ele>444.1</ele>
        <time>2022-10-02T13:24:23Z</time>
      </trkpt>
      <trkpt lat="47.45795" lon="8.27613">
        <ele>444.1</ele>
        <time>2022-10-02T13:24:24Z</time>
      </trkpt>
      <trkpt lat="47.45797" lon="8.27617">
        <ele>444.1</ele>
        <time>2022-10-02T13:24:25Z</time>
      </trkpt>
      <trkpt lat="47.45798" lon="8.27621">
        <ele>444</ele>
        <time>2022-10-02T13:24:26Z</time>
      </trkpt>
      <trkpt lat="47.45798" lon="8.27626">
        <ele>444</ele>
        <time>2022-10-02T13:24:27Z</time>
      </trkpt>
      <trkpt lat="47.45799" lon="8.2763">
        <ele>444</ele>
        <time>2022-10-02T13:24:28Z</time>
      </trkpt>
      <trkpt lat="47.45799" lon="8.27634">
        <ele>444</ele>
        <time>2022-10-02T13:24:29Z</time>
      </trkpt>
      <trkpt lat="47.458" lon="8.27639">
        <ele>444</ele>
        <time>2022-10-02T13:24:30Z</time>
      </trkpt>
      <trkpt lat="47.458" lon="8.27644">
        <ele>443.9</ele>
        <time>2022-10-02T13:24:31Z</time>
      </trkpt>
      <trkpt lat="47.45801" lon="8.27649">
        <ele>443.9</ele>
        <time>2022-10-02T13:24:32Z</time>
      </trkpt>
      <trkpt lat="47.45802" lon="8.27654">
        <ele>443.9</ele>
        <time>2022-10-02T13:24:33Z</time>
      </trkpt>
      <trkpt lat="47.45804" lon="8.27659">
        <ele>443.8</ele>
        <time>2022-10-02T13:24:34Z</time>
      </trkpt>
      <trkpt lat="47.45804" lon="8.27664">
        <ele>443.8</ele>
        <time>2022-10-02T13:24:35Z</time>
      </trkpt>
      <trkpt lat="47.45806" lon="8.2767">
        <ele>443.7</ele>
        <time>2022-10-02T13:24:36Z</time>
      </trkpt>
      <trkpt lat="47.45806" lon="8.27677">
        <ele>443.7</ele>
        <time>2022-10-02T13:24:37Z</time>
      </trkpt>
      <trkpt lat="47.45807" lon="8.27682">
        <ele>443.6</ele>
        <time>2022-10-02T13:24:38Z</time>
      </trkpt>
      <trkpt lat="47.45807" lon="8.27689">
        <ele>443.6</ele>
        <time>2022-10-02T13:24:39Z</time>
      </trkpt>
      <trkpt lat="47.45809" lon="8.27696">
        <ele>443.5</ele>
        <time>2022-10-02T13:24:40Z</time>
      </trkpt>
      <trkpt lat="47.45809" lon="8.27702">
        <ele>443.5</ele>
        <time>2022-10-02T13:24:41Z</time>
      </trkpt>
      <trkpt lat="47.4581" lon="8.27708">
        <ele>443.4</ele>
        <time>2022-10-02T13:24:42Z</time>
      </trkpt>
      <trkpt lat="47.45811" lon="8.27715">
        <ele>443.3</ele>
        <time>2022-10-02T13:24:43Z</time>
      </trkpt>
      <trkpt lat="47.45812" lon="8.27722">
        <ele>443.3</ele>
        <time>2022-10-02T13:24:44Z</time>
      </trkpt>
      <trkpt lat="47.45817" lon="8.27729">
        <ele>443.2</ele>
        <time>2022-10-02T13:24:45Z</time>
      </trkpt>
      <trkpt lat="47.45818" lon="8.27737">
        <ele>443.1</ele>
        <time>2022-10-02T13:24:46Z</time>
      </trkpt>
      <trkpt lat="47.45818" lon="8.27744">
        <ele>443.1</ele>
        <time>2022-10-02T13:24:47Z</time>
      </trkpt>
      <trkpt lat="47.45819" lon="8.27751">
        <ele>443</ele>
        <time>2022-10-02T13:24:48Z</time>
      </trkpt>
      <trkpt lat="47.4582" lon="8.27758">
        <ele>443</ele>
        <time>2022-10-02T13:24:49Z</time>
      </trkpt>
      <trkpt lat="47.45821" lon="8.27766">
        <ele>442.9</ele>
        <time>2022-10-02T13:24:50Z</time>
      </trkpt>
      <trkpt lat="47.45822" lon="8.27772">
        <ele>442.8</ele>
        <time>2022-10-02T13:24:51Z</time>
      </trkpt>
      <trkpt lat="47.45823" lon="8.2778">
        <ele>442.8</ele>
        <time>2022-10-02T13:24:52Z</time>
      </trkpt>
      <trkpt lat="47.45824" lon="8.27784">
        <ele>442.7</ele>
        <time>2022-10-02T13:24:53Z</time>
      </trkpt>
      <trkpt lat="47.45826" lon="8.27793">
        <ele>442.7</ele>
        <time>2022-10-02T13:24:54Z</time>
      </trkpt>
      <trkpt lat="47.45828" lon="8.278">
        <ele>442.6</ele>
        <time>2022-10-02T13:24:55Z</time>
      </trkpt>
      <trkpt lat="47.4583" lon="8.27805">
        <ele>442.6</ele>
        <time>2022-10-02T13:24:56Z</time>
      </trkpt>
      <trkpt lat="47.45832" lon="8.27811">
        <ele>442.5</ele>
        <time>2022-10-02T13:24:57Z</time>
      </trkpt>
      <trkpt lat="47.45833" lon="8.27817">
        <ele>442.5</ele>
        <time>2022-10-02T13:24:58Z</time>
      </trkpt>
      <trkpt lat="47.45834" lon="8.27821">
        <ele>442.4</ele>
        <time>2022-10-02T13:24:59Z</time>
      </trkpt>
      <trkpt lat="47.45832" lon="8.27826">
        <ele>442.4</ele>
        <time>2022-10-02T13:25:00Z</time>
      </trkpt>
      <trkpt lat="47.45832" lon="8.27828">
        <ele>442.4</ele>
        <time>2022-10-02T13:25:01Z</time>
      </trkpt>
      <trkpt lat="47.45832" lon="8.27833">
        <ele>442.4</ele>
        <time>2022-10-02T13:25:02Z</time>
      </trkpt>
      <trkpt lat="47.45832" lon="8.27835">
        <ele>442.3</ele>
        <time>2022-10-02T13:25:03Z</time>
      </trkpt>
      <trkpt lat="47.45831" lon="8.27839">
        <ele>442.3</ele>
        <time>2022-10-02T13:25:04Z</time>
      </trkpt>
      <trkpt lat="47.4583" lon="8.27843">
        <ele>442.3</ele>
        <time>2022-10-02T13:25:05Z</time>
      </trkpt>
      <trkpt lat="47.45829" lon="8.27845">
        <ele>442.3</ele>
        <time>2022-10-02T13:25:06Z</time>
      </trkpt>
      <trkpt lat="47.45827" lon="8.27849">
        <ele>442.3</ele>
        <time>2022-10-02T13:25:07Z</time>
      </trkpt>
      <trkpt lat="47.45825" lon="8.27851">
        <ele>442.3</ele>
        <time>2022-10-02T13:25:08Z</time>
      </trkpt>
      <trkpt lat="47.45823" lon="8.27854">
        <ele>442.2</ele>
        <time>2022-10-02T13:25:09Z</time>
      </trkpt>
      <trkpt lat="47.45821" lon="8.27858">
        <ele>442.2</ele>
        <time>2022-10-02T13:25:10Z</time>
      </trkpt>
      <trkpt lat="47.45818" lon="8.27863">
        <ele>442.2</ele>
        <time>2022-10-02T13:25:11Z</time>
      </trkpt>
      <trkpt lat="47.45815" lon="8.27867">
        <ele>442.2</ele>
        <time>2022-10-02T13:25:12Z</time>
      </trkpt>
      <trkpt lat="47.45812" lon="8.27872">
        <ele>442.2</ele>
        <time>2022-10-02T13:25:13Z</time>
      </trkpt>
      <trkpt lat="47.4581" lon="8.27876">
        <ele>442.1</ele>
        <time>2022-10-02T13:25:14Z</time>
      </trkpt>
      <trkpt lat="47.45807" lon="8.2788">
        <ele>442.1</ele>
        <time>2022-10-02T13:25:15Z</time>
      </trkpt>
      <trkpt lat="47.45805" lon="8.27885">
        <ele>442.3</ele>
        <time>2022-10-02T13:25:16Z</time>
      </trkpt>
      <trkpt lat="47.45802" lon="8.2789">
        <ele>442.6</ele>
        <time>2022-10-02T13:25:17Z</time>
      </trkpt>
      <trkpt lat="47.458" lon="8.27895">
        <ele>442.5</ele>
        <time>2022-10-02T13:25:18Z</time>
      </trkpt>
      <trkpt lat="47.45799" lon="8.27901">
        <ele>442.5</ele>
        <time>2022-10-02T13:25:19Z</time>
      </trkpt>
      <trkpt lat="47.45797" lon="8.27907">
        <ele>442.4</ele>
        <time>2022-10-02T13:25:20Z</time>
      </trkpt>
      <trkpt lat="47.45797" lon="8.27913">
        <ele>442.4</ele>
        <time>2022-10-02T13:25:21Z</time>
      </trkpt>
      <trkpt lat="47.45798" lon="8.27919">
        <ele>442.3</ele>
        <time>2022-10-02T13:25:22Z</time>
      </trkpt>
      <trkpt lat="47.45799" lon="8.27925">
        <ele>442.2</ele>
        <time>2022-10-02T13:25:23Z</time>
      </trkpt>
      <trkpt lat="47.45798" lon="8.27932">
        <ele>442.1</ele>
        <time>2022-10-02T13:25:24Z</time>
      </trkpt>
      <trkpt lat="47.45798" lon="8.27939">
        <ele>442</ele>
        <time>2022-10-02T13:25:25Z</time>
      </trkpt>
      <trkpt lat="47.45798" lon="8.27946">
        <ele>441.9</ele>
        <time>2022-10-02T13:25:26Z</time>
      </trkpt>
      <trkpt lat="47.45798" lon="8.27953">
        <ele>441.8</ele>
        <time>2022-10-02T13:25:27Z</time>
      </trkpt>
      <trkpt lat="47.45799" lon="8.27961">
        <ele>441.7</ele>
        <time>2022-10-02T13:25:28Z</time>
      </trkpt>
      <trkpt lat="47.45799" lon="8.27968">
        <ele>441.6</ele>
        <time>2022-10-02T13:25:29Z</time>
      </trkpt>
      <trkpt lat="47.458" lon="8.27975">
        <ele>441.5</ele>
        <time>2022-10-02T13:25:30Z</time>
      </trkpt>
      <trkpt lat="47.45801" lon="8.27982">
        <ele>441.4</ele>
        <time>2022-10-02T13:25:31Z</time>
      </trkpt>
      <trkpt lat="47.45801" lon="8.27989">
        <ele>441.3</ele>
        <time>2022-10-02T13:25:32Z</time>
      </trkpt>
      <trkpt lat="47.45802" lon="8.27997">
        <ele>441.2</ele>
        <time>2022-10-02T13:25:33Z</time>
      </trkpt>
      <trkpt lat="47.45802" lon="8.28005">
        <ele>441.1</ele>
        <time>2022-10-02T13:25:34Z</time>
      </trkpt>
      <trkpt lat="47.45803" lon="8.28014">
        <ele>440.9</ele>
        <time>2022-10-02T13:25:35Z</time>
      </trkpt>
      <trkpt lat="47.45803" lon="8.28021">
        <ele>440.8</ele>
        <time>2022-10-02T13:25:36Z</time>
      </trkpt>
      <trkpt lat="47.45804" lon="8.28028">
        <ele>440.7</ele>
        <time>2022-10-02T13:25:37Z</time>
      </trkpt>
      <trkpt lat="47.45805" lon="8.28035">
        <ele>440.5</ele>
        <time>2022-10-02T13:25:38Z</time>
      </trkpt>
      <trkpt lat="47.45805" lon="8.28043">
        <ele>440.4</ele>
        <time>2022-10-02T13:25:39Z</time>
      </trkpt>
      <trkpt lat="47.45806" lon="8.2805">
        <ele>440.2</ele>
        <time>2022-10-02T13:25:40Z</time>
      </trkpt>
      <trkpt lat="47.45806" lon="8.28058">
        <ele>440.1</ele>
        <time>2022-10-02T13:25:41Z</time>
      </trkpt>
      <trkpt lat="47.45807" lon="8.28064">
        <ele>440</ele>
        <time>2022-10-02T13:25:42Z</time>
      </trkpt>
      <trkpt lat="47.45807" lon="8.28069">
        <ele>439.9</ele>
        <time>2022-10-02T13:25:43Z</time>
      </trkpt>
      <trkpt lat="47.45808" lon="8.28077">
        <ele>439.8</ele>
        <time>2022-10-02T13:25:44Z</time>
      </trkpt>
      <trkpt lat="47.45808" lon="8.28085">
        <ele>439.7</ele>
        <time>2022-10-02T13:25:45Z</time>
      </trkpt>
      <trkpt lat="47.45807" lon="8.28093">
        <ele>439.6</ele>
        <time>2022-10-02T13:25:46Z</time>
      </trkpt>
      <trkpt lat="47.45808" lon="8.281">
        <ele>439.5</ele>
        <time>2022-10-02T13:25:47Z</time>
      </trkpt>
      <trkpt lat="47.45809" lon="8.28107">
        <ele>439.4</ele>
        <time>2022-10-02T13:25:48Z</time>
      </trkpt>
      <trkpt lat="47.45811" lon="8.28116">
        <ele>439.4</ele>
        <time>2022-10-02T13:25:49Z</time>
      </trkpt>
      <trkpt lat="47.45812" lon="8.28122">
        <ele>439.3</ele>
        <time>2022-10-02T13:25:50Z</time>
      </trkpt>
      <trkpt lat="47.45812" lon="8.28125">
        <ele>439.3</ele>
        <time>2022-10-02T13:25:51Z</time>
      </trkpt>
      <trkpt lat="47.45813" lon="8.28133">
        <ele>439.3</ele>
        <time>2022-10-02T13:25:52Z</time>
      </trkpt>
      <trkpt lat="47.45813" lon="8.2814">
        <ele>439.3</ele>
        <time>2022-10-02T13:25:53Z</time>
      </trkpt>
      <trkpt lat="47.45814" lon="8.28146">
        <ele>439.4</ele>
        <time>2022-10-02T13:25:54Z</time>
      </trkpt>
      <trkpt lat="47.45815" lon="8.28153">
        <ele>439.4</ele>
        <time>2022-10-02T13:25:55Z</time>
      </trkpt>
      <trkpt lat="47.45815" lon="8.28158">
        <ele>439.5</ele>
        <time>2022-10-02T13:25:56Z</time>
      </trkpt>
      <trkpt lat="47.45817" lon="8.28165">
        <ele>439.6</ele>
        <time>2022-10-02T13:25:57Z</time>
      </trkpt>
      <trkpt lat="47.45817" lon="8.28172">
        <ele>439.7</ele>
        <time>2022-10-02T13:25:58Z</time>
      </trkpt>
      <trkpt lat="47.45818" lon="8.28179">
        <ele>439.9</ele>
        <time>2022-10-02T13:25:59Z</time>
      </trkpt>
      <trkpt lat="47.45819" lon="8.28184">
        <ele>440.1</ele>
        <time>2022-10-02T13:26:00Z</time>
      </trkpt>
      <trkpt lat="47.4582" lon="8.28189">
        <ele>440.2</ele>
        <time>2022-10-02T13:26:01Z</time>
      </trkpt>
      <trkpt lat="47.4582" lon="8.28193">
        <ele>440.4</ele>
        <time>2022-10-02T13:26:02Z</time>
      </trkpt>
      <trkpt lat="47.45821" lon="8.28196">
        <ele>440.6</ele>
        <time>2022-10-02T13:26:03Z</time>
      </trkpt>
      <trkpt lat="47.45821" lon="8.28198">
        <ele>440.7</ele>
        <time>2022-10-02T13:26:04Z</time>
      </trkpt>
      <trkpt lat="47.45821" lon="8.282">
        <ele>440.8</ele>
        <time>2022-10-02T13:26:05Z</time>
      </trkpt>
      <trkpt lat="47.45821" lon="8.28202">
        <ele>440.9</ele>
        <time>2022-10-02T13:26:06Z</time>
      </trkpt>
      <trkpt lat="47.45822" lon="8.28207">
        <ele>441.2</ele>
        <time>2022-10-02T13:26:07Z</time>
      </trkpt>
      <trkpt lat="47.45822" lon="8.28208">
        <ele>441.3</ele>
        <time>2022-10-02T13:26:08Z</time>
      </trkpt>
      <trkpt lat="47.45823" lon="8.28212">
        <ele>441.5</ele>
        <time>2022-10-02T13:26:09Z</time>
      </trkpt>
      <trkpt lat="47.45823" lon="8.28214">
        <ele>441.6</ele>
        <time>2022-10-02T13:26:10Z</time>
      </trkpt>
      <trkpt lat="47.45824" lon="8.28218">
        <ele>441.8</ele>
        <time>2022-10-02T13:26:11Z</time>
      </trkpt>
      <trkpt lat="47.45824" lon="8.28219">
        <ele>441.9</ele>
        <time>2022-10-02T13:26:12Z</time>
      </trkpt>
      <trkpt lat="47.45825" lon="8.28223">
        <ele>442.1</ele>
        <time>2022-10-02T13:26:13Z</time>
      </trkpt>
      <trkpt lat="47.45825" lon="8.28224">
        <ele>442.2</ele>
        <time>2022-10-02T13:26:14Z</time>
      </trkpt>
      <trkpt lat="47.45826" lon="8.28229">
        <ele>442.5</ele>
        <time>2022-10-02T13:26:15Z</time>
      </trkpt>
      <trkpt lat="47.45826" lon="8.28231">
        <ele>442.6</ele>
        <time>2022-10-02T13:26:16Z</time>
      </trkpt>
      <trkpt lat="47.45826" lon="8.28236">
        <ele>443</ele>
        <time>2022-10-02T13:26:17Z</time>
      </trkpt>
      <trkpt lat="47.45826" lon="8.28237">
        <ele>443</ele>
        <time>2022-10-02T13:26:18Z</time>
      </trkpt>
      <trkpt lat="47.45827" lon="8.28242">
        <ele>443.4</ele>
        <time>2022-10-02T13:26:19Z</time>
      </trkpt>
      <trkpt lat="47.45828" lon="8.28244">
        <ele>443.5</ele>
        <time>2022-10-02T13:26:20Z</time>
      </trkpt>
      <trkpt lat="47.45829" lon="8.2825">
        <ele>443.9</ele>
        <time>2022-10-02T13:26:21Z</time>
      </trkpt>
      <trkpt lat="47.45829" lon="8.28252">
        <ele>444</ele>
        <time>2022-10-02T13:26:22Z</time>
      </trkpt>
      <trkpt lat="47.4583" lon="8.28257">
        <ele>444.3</ele>
        <time>2022-10-02T13:26:23Z</time>
      </trkpt>
      <trkpt lat="47.4583" lon="8.28259">
        <ele>444.4</ele>
        <time>2022-10-02T13:26:24Z</time>
      </trkpt>
      <trkpt lat="47.45831" lon="8.28264">
        <ele>444.7</ele>
        <time>2022-10-02T13:26:25Z</time>
      </trkpt>
      <trkpt lat="47.45832" lon="8.28266">
        <ele>444.8</ele>
        <time>2022-10-02T13:26:26Z</time>
      </trkpt>
      <trkpt lat="47.45832" lon="8.28271">
        <ele>445</ele>
        <time>2022-10-02T13:26:27Z</time>
      </trkpt>
      <trkpt lat="47.45833" lon="8.28275">
        <ele>445.2</ele>
        <time>2022-10-02T13:26:28Z</time>
      </trkpt>
      <trkpt lat="47.45834" lon="8.28277">
        <ele>445.3</ele>
        <time>2022-10-02T13:26:29Z</time>
      </trkpt>
      <trkpt lat="47.45835" lon="8.28282">
        <ele>445.5</ele>
        <time>2022-10-02T13:26:30Z</time>
      </trkpt>
      <trkpt lat="47.45836" lon="8.28284">
        <ele>445.6</ele>
        <time>2022-10-02T13:26:31Z</time>
      </trkpt>
      <trkpt lat="47.45836" lon="8.28287">
        <ele>445.8</ele>
        <time>2022-10-02T13:26:32Z</time>
      </trkpt>
      <trkpt lat="47.45837" lon="8.2829">
        <ele>445.9</ele>
        <time>2022-10-02T13:26:33Z</time>
      </trkpt>
      <trkpt lat="47.45839" lon="8.28294">
        <ele>446.1</ele>
        <time>2022-10-02T13:26:34Z</time>
      </trkpt>
      <trkpt lat="47.45839" lon="8.28295">
        <ele>446.1</ele>
        <time>2022-10-02T13:26:35Z</time>
      </trkpt>
      <trkpt lat="47.4584" lon="8.28298">
        <ele>446.3</ele>
        <time>2022-10-02T13:26:36Z</time>
      </trkpt>
      <trkpt lat="47.4584" lon="8.28299">
        <ele>446.4</ele>
        <time>2022-10-02T13:26:37Z</time>
      </trkpt>
      <trkpt lat="47.45841" lon="8.28302">
        <ele>446.5</ele>
        <time>2022-10-02T13:26:38Z</time>
      </trkpt>
      <trkpt lat="47.45842" lon="8.28303">
        <ele>446.6</ele>
        <time>2022-10-02T13:26:39Z</time>
      </trkpt>
      <trkpt lat="47.45844" lon="8.28307">
        <ele>446.8</ele>
        <time>2022-10-02T13:26:40Z</time>
      </trkpt>
      <trkpt lat="47.45844" lon="8.28308">
        <ele>446.8</ele>
        <time>2022-10-02T13:26:41Z</time>
      </trkpt>
      <trkpt lat="47.45845" lon="8.2831">
        <ele>446.7</ele>
        <time>2022-10-02T13:26:42Z</time>
      </trkpt>
      <trkpt lat="47.45846" lon="8.28312">
        <ele>446.6</ele>
        <time>2022-10-02T13:26:43Z</time>
      </trkpt>
      <trkpt lat="47.45847" lon="8.28314">
        <ele>446.5</ele>
        <time>2022-10-02T13:26:44Z</time>
      </trkpt>
      <trkpt lat="47.45848" lon="8.28316">
        <ele>446.4</ele>
        <time>2022-10-02T13:26:45Z</time>
      </trkpt>
      <trkpt lat="47.45848" lon="8.28317">
        <ele>446.4</ele>
        <time>2022-10-02T13:26:46Z</time>
      </trkpt>
      <trkpt lat="47.45848" lon="8.28319">
        <ele>446.3</ele>
        <time>2022-10-02T13:26:47Z</time>
      </trkpt>
      <trkpt lat="47.45849" lon="8.2832">
        <ele>446.2</ele>
        <time>2022-10-02T13:26:48Z</time>
      </trkpt>
      <trkpt lat="47.45849" lon="8.2832">
        <ele>446.2</ele>
        <time>2022-10-02T13:26:49Z</time>
      </trkpt>
      <trkpt lat="47.45849" lon="8.2832">
        <ele>446.1</ele>
        <time>2022-10-02T13:26:50Z</time>
      </trkpt>
      <trkpt lat="47.45848" lon="8.28319">
        <ele>446.1</ele>
        <time>2022-10-02T13:26:51Z</time>
      </trkpt>
      <trkpt lat="47.45848" lon="8.28318">
        <ele>446.1</ele>
        <time>2022-10-02T13:26:52Z</time>
      </trkpt>
      <trkpt lat="47.45848" lon="8.28317">
        <ele>446</ele>
        <time>2022-10-02T13:26:53Z</time>
      </trkpt>
      <trkpt lat="47.45847" lon="8.28316">
        <ele>446</ele>
        <time>2022-10-02T13:26:54Z</time>
      </trkpt>
      <trkpt lat="47.45847" lon="8.28315">
        <ele>445.9</ele>
        <time>2022-10-02T13:26:55Z</time>
      </trkpt>
      <trkpt lat="47.45847" lon="8.28315">
        <ele>445.9</ele>
        <time>2022-10-02T13:26:56Z</time>
      </trkpt>
      <trkpt lat="47.45846" lon="8.28314">
        <ele>445.9</ele>
        <time>2022-10-02T13:26:57Z</time>
      </trkpt>
      <trkpt lat="47.45846" lon="8.28313">
        <ele>445.8</ele>
        <time>2022-10-02T13:26:58Z</time>
      </trkpt>
      <trkpt lat="47.45846" lon="8.28312">
        <ele>445.8</ele>
        <time>2022-10-02T13:29:18Z</time>
      </trkpt>
      <trkpt lat="47.45845" lon="8.28311">
        <ele>445.7</ele>
        <time>2022-10-02T13:29:19Z</time>
      </trkpt>
      <trkpt lat="47.45845" lon="8.2831">
        <ele>445.7</ele>
        <time>2022-10-02T13:29:20Z</time>
      </trkpt>
      <trkpt lat="47.45845" lon="8.2831">
        <ele>445.7</ele>
        <time>2022-10-02T13:29:21Z</time>
      </trkpt>
      <trkpt lat="47.45844" lon="8.28309">
        <ele>445.6</ele>
        <time>2022-10-02T13:29:22Z</time>
      </trkpt>
      <trkpt lat="47.45844" lon="8.28308">
        <ele>445.6</ele>
        <time>2022-10-02T13:29:23Z</time>
      </trkpt>
      <trkpt lat="47.45844" lon="8.28307">
        <ele>445.5</ele>
        <time>2022-10-02T13:29:24Z</time>
      </trkpt>
      <trkpt lat="47.45843" lon="8.28306">
        <ele>445.5</ele>
        <time>2022-10-02T13:29:25Z</time>
      </trkpt>
      <trkpt lat="47.45843" lon="8.28305">
        <ele>445.5</ele>
        <time>2022-10-02T13:29:26Z</time>
      </trkpt>
      <trkpt lat="47.45843" lon="8.28305">
        <ele>445.4</ele>
        <time>2022-10-02T13:29:27Z</time>
      </trkpt>
      <trkpt lat="47.45842" lon="8.28304">
        <ele>445.4</ele>
        <time>2022-10-02T13:30:02Z</time>
      </trkpt>
      <trkpt lat="47.45842" lon="8.28303">
        <ele>445.3</ele>
        <time>2022-10-02T13:30:03Z</time>
      </trkpt>
      <trkpt lat="47.45842" lon="8.28302">
        <ele>445.3</ele>
        <time>2022-10-02T13:30:04Z</time>
      </trkpt>
      <trkpt lat="47.45839" lon="8.28297">
        <ele>445</ele>
        <time>2022-10-02T13:30:05Z</time>
      </trkpt>
      <trkpt lat="47.45837" lon="8.28292">
        <ele>444.7</ele>
        <time>2022-10-02T13:30:06Z</time>
      </trkpt>
      <trkpt lat="47.45836" lon="8.28289">
        <ele>444.6</ele>
        <time>2022-10-02T13:30:07Z</time>
      </trkpt>
      <trkpt lat="47.45835" lon="8.28285">
        <ele>444.4</ele>
        <time>2022-10-02T13:30:08Z</time>
      </trkpt>
      <trkpt lat="47.45834" lon="8.28281">
        <ele>444.2</ele>
        <time>2022-10-02T13:30:09Z</time>
      </trkpt>
      <trkpt lat="47.45833" lon="8.28277">
        <ele>444</ele>
        <time>2022-10-02T13:30:10Z</time>
      </trkpt>
      <trkpt lat="47.45832" lon="8.28271">
        <ele>443.7</ele>
        <time>2022-10-02T13:30:11Z</time>
      </trkpt>
      <trkpt lat="47.45831" lon="8.28264">
        <ele>443.2</ele>
        <time>2022-10-02T13:30:12Z</time>
      </trkpt>
      <trkpt lat="47.45829" lon="8.28258">
        <ele>442.9</ele>
        <time>2022-10-02T13:30:13Z</time>
      </trkpt>
      <trkpt lat="47.45828" lon="8.28252">
        <ele>442.5</ele>
        <time>2022-10-02T13:30:14Z</time>
      </trkpt>
      <trkpt lat="47.45827" lon="8.28246">
        <ele>442.1</ele>
        <time>2022-10-02T13:30:15Z</time>
      </trkpt>
      <trkpt lat="47.45827" lon="8.28241">
        <ele>441.9</ele>
        <time>2022-10-02T13:30:16Z</time>
      </trkpt>
      <trkpt lat="47.45826" lon="8.28236">
        <ele>441.6</ele>
        <time>2022-10-02T13:30:17Z</time>
      </trkpt>
      <trkpt lat="47.45825" lon="8.28232">
        <ele>441.3</ele>
        <time>2022-10-02T13:30:18Z</time>
      </trkpt>
      <trkpt lat="47.45825" lon="8.28227">
        <ele>441.1</ele>
        <time>2022-10-02T13:30:19Z</time>
      </trkpt>
      <trkpt lat="47.45825" lon="8.28224">
        <ele>440.9</ele>
        <time>2022-10-02T13:30:20Z</time>
      </trkpt>
      <trkpt lat="47.45824" lon="8.2822">
        <ele>440.7</ele>
        <time>2022-10-02T13:30:21Z</time>
      </trkpt>
      <trkpt lat="47.45824" lon="8.28216">
        <ele>440.5</ele>
        <time>2022-10-02T13:30:22Z</time>
      </trkpt>
      <trkpt lat="47.45822" lon="8.28211">
        <ele>440.3</ele>
        <time>2022-10-02T13:30:23Z</time>
      </trkpt>
      <trkpt lat="47.45822" lon="8.28209">
        <ele>440.2</ele>
        <time>2022-10-02T13:30:24Z</time>
      </trkpt>
      <trkpt lat="47.45822" lon="8.28206">
        <ele>440.1</ele>
        <time>2022-10-02T13:30:25Z</time>
      </trkpt>
      <trkpt lat="47.45823" lon="8.28204">
        <ele>440</ele>
        <time>2022-10-02T13:30:26Z</time>
      </trkpt>
      <trkpt lat="47.45821" lon="8.28199">
        <ele>439.9</ele>
        <time>2022-10-02T13:30:27Z</time>
      </trkpt>
      <trkpt lat="47.45821" lon="8.28197">
        <ele>439.8</ele>
        <time>2022-10-02T13:30:28Z</time>
      </trkpt>
      <trkpt lat="47.45821" lon="8.28194">
        <ele>439.8</ele>
        <time>2022-10-02T13:30:29Z</time>
      </trkpt>
      <trkpt lat="47.45821" lon="8.28192">
        <ele>439.7</ele>
        <time>2022-10-02T13:30:30Z</time>
      </trkpt>
      <trkpt lat="47.45819" lon="8.28188">
        <ele>439.6</ele>
        <time>2022-10-02T13:30:31Z</time>
      </trkpt>
      <trkpt lat="47.4582" lon="8.28183">
        <ele>439.5</ele>
        <time>2022-10-02T13:30:32Z</time>
      </trkpt>
      <trkpt lat="47.45818" lon="8.28177">
        <ele>439.5</ele>
        <time>2022-10-02T13:30:33Z</time>
      </trkpt>
      <trkpt lat="47.45818" lon="8.28171">
        <ele>439.4</ele>
        <time>2022-10-02T13:30:34Z</time>
      </trkpt>
      <trkpt lat="47.45817" lon="8.28164">
        <ele>439.4</ele>
        <time>2022-10-02T13:30:35Z</time>
      </trkpt>
      <trkpt lat="47.45816" lon="8.28158">
        <ele>439.3</ele>
        <time>2022-10-02T13:30:36Z</time>
      </trkpt>
      <trkpt lat="47.45815" lon="8.28152">
        <ele>439.3</ele>
        <time>2022-10-02T13:30:37Z</time>
      </trkpt>
      <trkpt lat="47.45814" lon="8.28145">
        <ele>439.3</ele>
        <time>2022-10-02T13:30:38Z</time>
      </trkpt>
      <trkpt lat="47.45813" lon="8.28139">
        <ele>439.3</ele>
        <time>2022-10-02T13:30:39Z</time>
      </trkpt>
      <trkpt lat="47.45812" lon="8.28132">
        <ele>439.4</ele>
        <time>2022-10-02T13:30:40Z</time>
      </trkpt>
      <trkpt lat="47.45811" lon="8.28125">
        <ele>439.4</ele>
        <time>2022-10-02T13:30:41Z</time>
      </trkpt>
      <trkpt lat="47.45811" lon="8.28118">
        <ele>439.5</ele>
        <time>2022-10-02T13:30:42Z</time>
      </trkpt>
      <trkpt lat="47.4581" lon="8.28112">
        <ele>439.5</ele>
        <time>2022-10-02T13:30:43Z</time>
      </trkpt>
      <trkpt lat="47.45809" lon="8.28106">
        <ele>439.6</ele>
        <time>2022-10-02T13:30:44Z</time>
      </trkpt>
      <trkpt lat="47.45808" lon="8.281">
        <ele>439.7</ele>
        <time>2022-10-02T13:30:45Z</time>
      </trkpt>
      <trkpt lat="47.45807" lon="8.28096">
        <ele>439.7</ele>
        <time>2022-10-02T13:30:46Z</time>
      </trkpt>
      <trkpt lat="47.45807" lon="8.2809">
        <ele>439.8</ele>
        <time>2022-10-02T13:30:47Z</time>
      </trkpt>
      <trkpt lat="47.45806" lon="8.28085">
        <ele>439.9</ele>
        <time>2022-10-02T13:30:48Z</time>
      </trkpt>
      <trkpt lat="47.45806" lon="8.28079">
        <ele>440</ele>
        <time>2022-10-02T13:30:49Z</time>
      </trkpt>
      <trkpt lat="47.45806" lon="8.28074">
        <ele>440</ele>
        <time>2022-10-02T13:30:50Z</time>
      </trkpt>
      <trkpt lat="47.45806" lon="8.28069">
        <ele>440.1</ele>
        <time>2022-10-02T13:30:51Z</time>
      </trkpt>
      <trkpt lat="47.45806" lon="8.28064">
        <ele>440.2</ele>
        <time>2022-10-02T13:30:52Z</time>
      </trkpt>
      <trkpt lat="47.45806" lon="8.2806">
        <ele>440.3</ele>
        <time>2022-10-02T13:30:53Z</time>
      </trkpt>
      <trkpt lat="47.45805" lon="8.28055">
        <ele>440.4</ele>
        <time>2022-10-02T13:30:54Z</time>
      </trkpt>
      <trkpt lat="47.45805" lon="8.2805">
        <ele>440.5</ele>
        <time>2022-10-02T13:30:55Z</time>
      </trkpt>
      <trkpt lat="47.45804" lon="8.28046">
        <ele>440.5</ele>
        <time>2022-10-02T13:30:56Z</time>
      </trkpt>
      <trkpt lat="47.45804" lon="8.28041">
        <ele>440.6</ele>
        <time>2022-10-02T13:30:57Z</time>
      </trkpt>
      <trkpt lat="47.45804" lon="8.28037">
        <ele>440.7</ele>
        <time>2022-10-02T13:30:58Z</time>
      </trkpt>
      <trkpt lat="47.45804" lon="8.28032">
        <ele>440.8</ele>
        <time>2022-10-02T13:30:59Z</time>
      </trkpt>
      <trkpt lat="47.45804" lon="8.28028">
        <ele>440.9</ele>
        <time>2022-10-02T13:31:00Z</time>
      </trkpt>
      <trkpt lat="47.45803" lon="8.28022">
        <ele>441</ele>
        <time>2022-10-02T13:31:01Z</time>
      </trkpt>
      <trkpt lat="47.45803" lon="8.2802">
        <ele>441</ele>
        <time>2022-10-02T13:31:02Z</time>
      </trkpt>
      <trkpt lat="47.45803" lon="8.28015">
        <ele>441.1</ele>
        <time>2022-10-02T13:31:03Z</time>
      </trkpt>
      <trkpt lat="47.45802" lon="8.2801">
        <ele>441.1</ele>
        <time>2022-10-02T13:31:04Z</time>
      </trkpt>
      <trkpt lat="47.45802" lon="8.28008">
        <ele>441.2</ele>
        <time>2022-10-02T13:31:05Z</time>
      </trkpt>
      <trkpt lat="47.45802" lon="8.28003">
        <ele>441.2</ele>
        <time>2022-10-02T13:31:06Z</time>
      </trkpt>
      <trkpt lat="47.45802" lon="8.27998">
        <ele>441.3</ele>
        <time>2022-10-02T13:31:07Z</time>
      </trkpt>
      <trkpt lat="47.45802" lon="8.27996">
        <ele>441.3</ele>
        <time>2022-10-02T13:31:08Z</time>
      </trkpt>
      <trkpt lat="47.45801" lon="8.27991">
        <ele>441.4</ele>
        <time>2022-10-02T13:31:09Z</time>
      </trkpt>
      <trkpt lat="47.45801" lon="8.27985">
        <ele>441.5</ele>
        <time>2022-10-02T13:31:10Z</time>
      </trkpt>
      <trkpt lat="47.45801" lon="8.27982">
        <ele>441.5</ele>
        <time>2022-10-02T13:31:11Z</time>
      </trkpt>
      <trkpt lat="47.45801" lon="8.27976">
        <ele>441.6</ele>
        <time>2022-10-02T13:31:12Z</time>
      </trkpt>
      <trkpt lat="47.458" lon="8.27974">
        <ele>441.6</ele>
        <time>2022-10-02T13:31:13Z</time>
      </trkpt>
      <trkpt lat="47.45799" lon="8.27968">
        <ele>441.7</ele>
        <time>2022-10-02T13:31:14Z</time>
      </trkpt>
      <trkpt lat="47.45798" lon="8.27965">
        <ele>441.7</ele>
        <time>2022-10-02T13:31:15Z</time>
      </trkpt>
      <trkpt lat="47.45798" lon="8.27959">
        <ele>441.8</ele>
        <time>2022-10-02T13:31:16Z</time>
      </trkpt>
      <trkpt lat="47.45797" lon="8.27954">
        <ele>441.9</ele>
        <time>2022-10-02T13:31:17Z</time>
      </trkpt>
      <trkpt lat="47.45797" lon="8.27949">
        <ele>441.9</ele>
        <time>2022-10-02T13:31:18Z</time>
      </trkpt>
      <trkpt lat="47.45796" lon="8.27943">
        <ele>442</ele>
        <time>2022-10-02T13:31:19Z</time>
      </trkpt>
      <trkpt lat="47.45796" lon="8.27938">
        <ele>442.1</ele>
        <time>2022-10-02T13:31:20Z</time>
      </trkpt>
      <trkpt lat="47.45796" lon="8.27933">
        <ele>442.2</ele>
        <time>2022-10-02T13:31:21Z</time>
      </trkpt>
      <trkpt lat="47.45796" lon="8.27929">
        <ele>442.2</ele>
        <time>2022-10-02T13:31:22Z</time>
      </trkpt>
      <trkpt lat="47.45797" lon="8.27923">
        <ele>442.3</ele>
        <time>2022-10-02T13:31:23Z</time>
      </trkpt>
      <trkpt lat="47.45797" lon="8.27922">
        <ele>442.3</ele>
        <time>2022-10-02T13:31:24Z</time>
      </trkpt>
      <trkpt lat="47.45797" lon="8.27916">
        <ele>442.4</ele>
        <time>2022-10-02T13:31:25Z</time>
      </trkpt>
      <trkpt lat="47.45797" lon="8.27913">
        <ele>442.4</ele>
        <time>2022-10-02T13:31:26Z</time>
      </trkpt>
      <trkpt lat="47.45798" lon="8.27908">
        <ele>442.4</ele>
        <time>2022-10-02T13:31:27Z</time>
      </trkpt>
      <trkpt lat="47.45799" lon="8.27907">
        <ele>442.4</ele>
        <time>2022-10-02T13:31:28Z</time>
      </trkpt>
      <trkpt lat="47.458" lon="8.27903">
        <ele>442.5</ele>
        <time>2022-10-02T13:31:29Z</time>
      </trkpt>
      <trkpt lat="47.45801" lon="8.27899">
        <ele>442.5</ele>
        <time>2022-10-02T13:31:30Z</time>
      </trkpt>
      <trkpt lat="47.45803" lon="8.27894">
        <ele>442.6</ele>
        <time>2022-10-02T13:31:31Z</time>
      </trkpt>
      <trkpt lat="47.45804" lon="8.27893">
        <ele>442.6</ele>
        <time>2022-10-02T13:31:32Z</time>
      </trkpt>
      <trkpt lat="47.45806" lon="8.27889">
        <ele>442.4</ele>
        <time>2022-10-02T13:31:33Z</time>
      </trkpt>
      <trkpt lat="47.45807" lon="8.27888">
        <ele>442.3</ele>
        <time>2022-10-02T13:31:34Z</time>
      </trkpt>
      <trkpt lat="47.45809" lon="8.27885">
        <ele>442.1</ele>
        <time>2022-10-02T13:31:35Z</time>
      </trkpt>
      <trkpt lat="47.45811" lon="8.27881">
        <ele>442.1</ele>
        <time>2022-10-02T13:31:36Z</time>
      </trkpt>
      <trkpt lat="47.45812" lon="8.27879">
        <ele>442.1</ele>
        <time>2022-10-02T13:31:37Z</time>
      </trkpt>
      <trkpt lat="47.45814" lon="8.27875">
        <ele>442.1</ele>
        <time>2022-10-02T13:31:38Z</time>
      </trkpt>
      <trkpt lat="47.45815" lon="8.27874">
        <ele>442.2</ele>
        <time>2022-10-02T13:31:39Z</time>
      </trkpt>
      <trkpt lat="47.45815" lon="8.27869">
        <ele>442.2</ele>
        <time>2022-10-02T13:31:40Z</time>
      </trkpt>
      <trkpt lat="47.45815" lon="8.27867">
        <ele>442.2</ele>
        <time>2022-10-02T13:31:41Z</time>
      </trkpt>
      <trkpt lat="47.45816" lon="8.27865">
        <ele>442.2</ele>
        <time>2022-10-02T13:31:42Z</time>
      </trkpt>
      <trkpt lat="47.45815" lon="8.27863">
        <ele>442.2</ele>
        <time>2022-10-02T13:31:43Z</time>
      </trkpt>
      <trkpt lat="47.45816" lon="8.27864">
        <ele>442.2</ele>
        <time>2022-10-02T13:31:44Z</time>
      </trkpt>
      <trkpt lat="47.45816" lon="8.27864">
        <ele>442.2</ele>
        <time>2022-10-02T13:31:45Z</time>
      </trkpt>
      <trkpt lat="47.45816" lon="8.27865">
        <ele>442.2</ele>
        <time>2022-10-02T13:31:46Z</time>
      </trkpt>
      <trkpt lat="47.45816" lon="8.27865">
        <ele>442.2</ele>
        <time>2022-10-02T13:31:47Z</time>
      </trkpt>
      <trkpt lat="47.45816" lon="8.27866">
        <ele>442.2</ele>
        <time>2022-10-02T13:31:48Z</time>
      </trkpt>
      <trkpt lat="47.45816" lon="8.27866">
        <ele>442.2</ele>
        <time>2022-10-02T13:31:49Z</time>
      </trkpt>
      <trkpt lat="47.45816" lon="8.27867">
        <ele>442.2</ele>
        <time>2022-10-02T13:31:50Z</time>
      </trkpt>
      <trkpt lat="47.45817" lon="8.27867">
        <ele>442.2</ele>
        <time>2022-10-02T13:31:51Z</time>
      </trkpt>
      <trkpt lat="47.45817" lon="8.27868">
        <ele>442.2</ele>
        <time>2022-10-02T13:31:52Z</time>
      </trkpt>
      <trkpt lat="47.45817" lon="8.27868">
        <ele>442.2</ele>
        <time>2022-10-02T13:31:53Z</time>
      </trkpt>
      <trkpt lat="47.45817" lon="8.27869">
        <ele>442.2</ele>
        <time>2022-10-02T13:37:08Z</time>
      </trkpt>
      <trkpt lat="47.45817" lon="8.27869">
        <ele>442.2</ele>
        <time>2022-10-02T13:37:09Z</time>
      </trkpt>
      <trkpt lat="47.45817" lon="8.2787">
        <ele>442.2</ele>
        <time>2022-10-02T13:37:10Z</time>
      </trkpt>
      <trkpt lat="47.45816" lon="8.27873">
        <ele>442.2</ele>
        <time>2022-10-02T13:37:11Z</time>
      </trkpt>
      <trkpt lat="47.45815" lon="8.27875">
        <ele>442.1</ele>
        <time>2022-10-02T13:37:12Z</time>
      </trkpt>
      <trkpt lat="47.45814" lon="8.27876">
        <ele>442.1</ele>
        <time>2022-10-02T13:37:13Z</time>
      </trkpt>
      <trkpt lat="47.45812" lon="8.27879">
        <ele>442.1</ele>
        <time>2022-10-02T13:37:14Z</time>
      </trkpt>
      <trkpt lat="47.45811" lon="8.2788">
        <ele>442.1</ele>
        <time>2022-10-02T13:37:15Z</time>
      </trkpt>
      <trkpt lat="47.45808" lon="8.27882">
        <ele>442.1</ele>
        <time>2022-10-02T13:37:16Z</time>
      </trkpt>
      <trkpt lat="47.45806" lon="8.27883">
        <ele>442.1</ele>
        <time>2022-10-02T13:37:17Z</time>
      </trkpt>
      <trkpt lat="47.45804" lon="8.27884">
        <ele>442.1</ele>
        <time>2022-10-02T13:37:18Z</time>
      </trkpt>
      <trkpt lat="47.45802" lon="8.27886">
        <ele>442.1</ele>
        <time>2022-10-02T13:37:19Z</time>
      </trkpt>
      <trkpt lat="47.45799" lon="8.27888">
        <ele>442.1</ele>
        <time>2022-10-02T13:37:20Z</time>
      </trkpt>
      <trkpt lat="47.45798" lon="8.27889">
        <ele>442</ele>
        <time>2022-10-02T13:37:21Z</time>
      </trkpt>
      <trkpt lat="47.45795" lon="8.27893">
        <ele>442</ele>
        <time>2022-10-02T13:37:22Z</time>
      </trkpt>
      <trkpt lat="47.45794" lon="8.27894">
        <ele>442</ele>
        <time>2022-10-02T13:37:23Z</time>
      </trkpt>
      <trkpt lat="47.45793" lon="8.27898">
        <ele>441.9</ele>
        <time>2022-10-02T13:37:24Z</time>
      </trkpt>
      <trkpt lat="47.45792" lon="8.279">
        <ele>441.9</ele>
        <time>2022-10-02T13:37:25Z</time>
      </trkpt>
      <trkpt lat="47.45791" lon="8.27904">
        <ele>441.9</ele>
        <time>2022-10-02T13:37:26Z</time>
      </trkpt>
      <trkpt lat="47.4579" lon="8.27905">
        <ele>441.9</ele>
        <time>2022-10-02T13:37:27Z</time>
      </trkpt>
      <trkpt lat="47.45789" lon="8.2791">
        <ele>441.8</ele>
        <time>2022-10-02T13:37:28Z</time>
      </trkpt>
      <trkpt lat="47.45788" lon="8.27911">
        <ele>441.8</ele>
        <time>2022-10-02T13:37:29Z</time>
      </trkpt>
      <trkpt lat="47.45787" lon="8.27915">
        <ele>441.8</ele>
        <time>2022-10-02T13:37:30Z</time>
      </trkpt>
      <trkpt lat="47.45784" lon="8.27919">
        <ele>441.8</ele>
        <time>2022-10-02T13:37:31Z</time>
      </trkpt>
      <trkpt lat="47.45783" lon="8.27923">
        <ele>441.8</ele>
        <time>2022-10-02T13:37:32Z</time>
      </trkpt>
      <trkpt lat="47.4578" lon="8.27926">
        <ele>441.7</ele>
        <time>2022-10-02T13:37:33Z</time>
      </trkpt>
      <trkpt lat="47.45778" lon="8.27931">
        <ele>441.7</ele>
        <time>2022-10-02T13:37:34Z</time>
      </trkpt>
      <trkpt lat="47.45779" lon="8.27935">
        <ele>441.7</ele>
        <time>2022-10-02T13:37:35Z</time>
      </trkpt>
      <trkpt lat="47.45776" lon="8.2794">
        <ele>441.7</ele>
        <time>2022-10-02T13:37:36Z</time>
      </trkpt>
      <trkpt lat="47.45773" lon="8.27946">
        <ele>441.7</ele>
        <time>2022-10-02T13:37:37Z</time>
      </trkpt>
      <trkpt lat="47.45772" lon="8.27948">
        <ele>441.6</ele>
        <time>2022-10-02T13:37:38Z</time>
      </trkpt>
      <trkpt lat="47.45769" lon="8.27955">
        <ele>441.6</ele>
        <time>2022-10-02T13:37:39Z</time>
      </trkpt>
      <trkpt lat="47.45766" lon="8.27961">
        <ele>441.6</ele>
        <time>2022-10-02T13:37:40Z</time>
      </trkpt>
      <trkpt lat="47.45763" lon="8.27966">
        <ele>441.6</ele>
        <time>2022-10-02T13:37:41Z</time>
      </trkpt>
      <trkpt lat="47.45761" lon="8.27972">
        <ele>441.6</ele>
        <time>2022-10-02T13:37:42Z</time>
      </trkpt>
      <trkpt lat="47.45758" lon="8.27978">
        <ele>441.6</ele>
        <time>2022-10-02T13:37:43Z</time>
      </trkpt>
      <trkpt lat="47.45755" lon="8.27984">
        <ele>441.6</ele>
        <time>2022-10-02T13:37:44Z</time>
      </trkpt>
      <trkpt lat="47.45754" lon="8.2799">
        <ele>441.6</ele>
        <time>2022-10-02T13:37:45Z</time>
      </trkpt>
      <trkpt lat="47.45752" lon="8.27994">
        <ele>441.6</ele>
        <time>2022-10-02T13:37:46Z</time>
      </trkpt>
      <trkpt lat="47.45751" lon="8.28001">
        <ele>441.6</ele>
        <time>2022-10-02T13:37:47Z</time>
      </trkpt>
      <trkpt lat="47.45749" lon="8.28008">
        <ele>441.7</ele>
        <time>2022-10-02T13:37:48Z</time>
      </trkpt>
      <trkpt lat="47.45749" lon="8.28015">
        <ele>441.7</ele>
        <time>2022-10-02T13:37:49Z</time>
      </trkpt>
      <trkpt lat="47.45749" lon="8.28022">
        <ele>441.8</ele>
        <time>2022-10-02T13:37:50Z</time>
      </trkpt>
      <trkpt lat="47.45749" lon="8.2803">
        <ele>441.9</ele>
        <time>2022-10-02T13:37:51Z</time>
      </trkpt>
      <trkpt lat="47.4575" lon="8.28036">
        <ele>442</ele>
        <time>2022-10-02T13:37:52Z</time>
      </trkpt>
      <trkpt lat="47.4575" lon="8.28041">
        <ele>442.1</ele>
        <time>2022-10-02T13:37:53Z</time>
      </trkpt>
      <trkpt lat="47.45752" lon="8.28046">
        <ele>442.2</ele>
        <time>2022-10-02T13:37:54Z</time>
      </trkpt>
      <trkpt lat="47.45752" lon="8.28052">
        <ele>442.2</ele>
        <time>2022-10-02T13:37:55Z</time>
      </trkpt>
      <trkpt lat="47.45753" lon="8.28058">
        <ele>442.3</ele>
        <time>2022-10-02T13:37:56Z</time>
      </trkpt>
      <trkpt lat="47.45752" lon="8.28064">
        <ele>442.4</ele>
        <time>2022-10-02T13:37:57Z</time>
      </trkpt>
      <trkpt lat="47.45752" lon="8.28069">
        <ele>442.5</ele>
        <time>2022-10-02T13:37:58Z</time>
      </trkpt>
      <trkpt lat="47.45751" lon="8.28075">
        <ele>442.6</ele>
        <time>2022-10-02T13:37:59Z</time>
      </trkpt>
      <trkpt lat="47.45749" lon="8.2808">
        <ele>442.7</ele>
        <time>2022-10-02T13:38:00Z</time>
      </trkpt>
      <trkpt lat="47.45746" lon="8.28084">
        <ele>442.9</ele>
        <time>2022-10-02T13:38:01Z</time>
      </trkpt>
      <trkpt lat="47.45743" lon="8.28089">
        <ele>443</ele>
        <time>2022-10-02T13:38:02Z</time>
      </trkpt>
      <trkpt lat="47.45741" lon="8.2809">
        <ele>443</ele>
        <time>2022-10-02T13:38:03Z</time>
      </trkpt>
      <trkpt lat="47.45738" lon="8.28091">
        <ele>443.1</ele>
        <time>2022-10-02T13:38:04Z</time>
      </trkpt>
      <trkpt lat="47.45735" lon="8.28093">
        <ele>443.2</ele>
        <time>2022-10-02T13:38:05Z</time>
      </trkpt>
      <trkpt lat="47.45731" lon="8.28092">
        <ele>443.3</ele>
        <time>2022-10-02T13:38:06Z</time>
      </trkpt>
      <trkpt lat="47.45728" lon="8.28092">
        <ele>443.4</ele>
        <time>2022-10-02T13:38:07Z</time>
      </trkpt>
      <trkpt lat="47.45725" lon="8.28091">
        <ele>443.5</ele>
        <time>2022-10-02T13:38:08Z</time>
      </trkpt>
      <trkpt lat="47.45723" lon="8.2809">
        <ele>443.5</ele>
        <time>2022-10-02T13:38:09Z</time>
      </trkpt>
      <trkpt lat="47.45719" lon="8.28089">
        <ele>443.6</ele>
        <time>2022-10-02T13:38:10Z</time>
      </trkpt>
      <trkpt lat="47.45716" lon="8.28088">
        <ele>443.6</ele>
        <time>2022-10-02T13:38:11Z</time>
      </trkpt>
      <trkpt lat="47.45712" lon="8.28087">
        <ele>443.6</ele>
        <time>2022-10-02T13:38:12Z</time>
      </trkpt>
      <trkpt lat="47.45709" lon="8.28085">
        <ele>443.7</ele>
        <time>2022-10-02T13:38:13Z</time>
      </trkpt>
      <trkpt lat="47.45708" lon="8.28085">
        <ele>443.7</ele>
        <time>2022-10-02T13:38:14Z</time>
      </trkpt>
      <trkpt lat="47.45705" lon="8.28083">
        <ele>443.7</ele>
        <time>2022-10-02T13:38:15Z</time>
      </trkpt>
      <trkpt lat="47.457" lon="8.28082">
        <ele>443.6</ele>
        <time>2022-10-02T13:38:16Z</time>
      </trkpt>
      <trkpt lat="47.45697" lon="8.2808">
        <ele>443.6</ele>
        <time>2022-10-02T13:38:17Z</time>
      </trkpt>
      <trkpt lat="47.45696" lon="8.2808">
        <ele>443.5</ele>
        <time>2022-10-02T13:38:18Z</time>
      </trkpt>
      <trkpt lat="47.45692" lon="8.28079">
        <ele>443.5</ele>
        <time>2022-10-02T13:38:19Z</time>
      </trkpt>
      <trkpt lat="47.45691" lon="8.28079">
        <ele>443.4</ele>
        <time>2022-10-02T13:38:20Z</time>
      </trkpt>
      <trkpt lat="47.45688" lon="8.28078">
        <ele>443.3</ele>
        <time>2022-10-02T13:38:21Z</time>
      </trkpt>
      <trkpt lat="47.45684" lon="8.28079">
        <ele>443.1</ele>
        <time>2022-10-02T13:38:22Z</time>
      </trkpt>
      <trkpt lat="47.4568" lon="8.2808">
        <ele>442.8</ele>
        <time>2022-10-02T13:38:23Z</time>
      </trkpt>
      <trkpt lat="47.45677" lon="8.28082">
        <ele>442.6</ele>
        <time>2022-10-02T13:38:24Z</time>
      </trkpt>
      <trkpt lat="47.45674" lon="8.28084">
        <ele>442.4</ele>
        <time>2022-10-02T13:38:25Z</time>
      </trkpt>
      <trkpt lat="47.4567" lon="8.28089">
        <ele>442.1</ele>
        <time>2022-10-02T13:38:26Z</time>
      </trkpt>
      <trkpt lat="47.45668" lon="8.28095">
        <ele>441.8</ele>
        <time>2022-10-02T13:38:27Z</time>
      </trkpt>
      <trkpt lat="47.45666" lon="8.28101">
        <ele>441.5</ele>
        <time>2022-10-02T13:38:28Z</time>
      </trkpt>
      <trkpt lat="47.45664" lon="8.28106">
        <ele>441.2</ele>
        <time>2022-10-02T13:38:29Z</time>
      </trkpt>
      <trkpt lat="47.45664" lon="8.28112">
        <ele>441</ele>
        <time>2022-10-02T13:38:30Z</time>
      </trkpt>
      <trkpt lat="47.45664" lon="8.28118">
        <ele>440.7</ele>
        <time>2022-10-02T13:38:31Z</time>
      </trkpt>
      <trkpt lat="47.45666" lon="8.28127">
        <ele>440.3</ele>
        <time>2022-10-02T13:38:32Z</time>
      </trkpt>
      <trkpt lat="47.45668" lon="8.28134">
        <ele>440</ele>
        <time>2022-10-02T13:38:33Z</time>
      </trkpt>
      <trkpt lat="47.45669" lon="8.28142">
        <ele>439.6</ele>
        <time>2022-10-02T13:38:34Z</time>
      </trkpt>
      <trkpt lat="47.45671" lon="8.2815">
        <ele>439.4</ele>
        <time>2022-10-02T13:38:35Z</time>
      </trkpt>
      <trkpt lat="47.45672" lon="8.28157">
        <ele>439.1</ele>
        <time>2022-10-02T13:38:36Z</time>
      </trkpt>
      <trkpt lat="47.45672" lon="8.28165">
        <ele>438.9</ele>
        <time>2022-10-02T13:38:37Z</time>
      </trkpt>
      <trkpt lat="47.45672" lon="8.28173">
        <ele>438.6</ele>
        <time>2022-10-02T13:38:38Z</time>
      </trkpt>
      <trkpt lat="47.45673" lon="8.28179">
        <ele>438.4</ele>
        <time>2022-10-02T13:38:39Z</time>
      </trkpt>
      <trkpt lat="47.45673" lon="8.28186">
        <ele>438.2</ele>
        <time>2022-10-02T13:38:40Z</time>
      </trkpt>
      <trkpt lat="47.45673" lon="8.2819">
        <ele>438.1</ele>
        <time>2022-10-02T13:38:41Z</time>
      </trkpt>
      <trkpt lat="47.45674" lon="8.28194">
        <ele>438</ele>
        <time>2022-10-02T13:38:42Z</time>
      </trkpt>
      <trkpt lat="47.45674" lon="8.28197">
        <ele>437.9</ele>
        <time>2022-10-02T13:38:43Z</time>
      </trkpt>
      <trkpt lat="47.45674" lon="8.28198">
        <ele>437.9</ele>
        <time>2022-10-02T13:38:44Z</time>
      </trkpt>
      <trkpt lat="47.45674" lon="8.28201">
        <ele>437.9</ele>
        <time>2022-10-02T13:38:45Z</time>
      </trkpt>
      <trkpt lat="47.45674" lon="8.28202">
        <ele>437.9</ele>
        <time>2022-10-02T13:38:46Z</time>
      </trkpt>
      <trkpt lat="47.45674" lon="8.28201">
        <ele>437.9</ele>
        <time>2022-10-02T13:38:47Z</time>
      </trkpt>
      <trkpt lat="47.45674" lon="8.28201">
        <ele>437.9</ele>
        <time>2022-10-02T13:38:48Z</time>
      </trkpt>
      <trkpt lat="47.45674" lon="8.28201">
        <ele>437.9</ele>
        <time>2022-10-02T13:38:49Z</time>
      </trkpt>
      <trkpt lat="47.45674" lon="8.28201">
        <ele>437.9</ele>
        <time>2022-10-02T13:38:50Z</time>
      </trkpt>
      <trkpt lat="47.45674" lon="8.28201">
        <ele>437.9</ele>
        <time>2022-10-02T13:38:51Z</time>
      </trkpt>
      <trkpt lat="47.45674" lon="8.28201">
        <ele>437.9</ele>
        <time>2022-10-02T13:38:52Z</time>
      </trkpt>
      <trkpt lat="47.45674" lon="8.28201">
        <ele>437.9</ele>
        <time>2022-10-02T13:38:53Z</time>
      </trkpt>
      <trkpt lat="47.45674" lon="8.28202">
        <ele>437.9</ele>
        <time>2022-10-02T13:38:54Z</time>
      </trkpt>
      <trkpt lat="47.45674" lon="8.28203">
        <ele>437.9</ele>
        <time>2022-10-02T13:38:55Z</time>
      </trkpt>
      <trkpt lat="47.45673" lon="8.28204">
        <ele>437.8</ele>
        <time>2022-10-02T13:38:56Z</time>
      </trkpt>
      <trkpt lat="47.45674" lon="8.28211">
        <ele>437.8</ele>
        <time>2022-10-02T13:38:58Z</time>
      </trkpt>
      <trkpt lat="47.45674" lon="8.28215">
        <ele>437.7</ele>
        <time>2022-10-02T13:38:59Z</time>
      </trkpt>
      <trkpt lat="47.45676" lon="8.28221">
        <ele>437.6</ele>
        <time>2022-10-02T13:39:00Z</time>
      </trkpt>
      <trkpt lat="47.45677" lon="8.28227">
        <ele>437.5</ele>
        <time>2022-10-02T13:39:01Z</time>
      </trkpt>
      <trkpt lat="47.45678" lon="8.28231">
        <ele>437.4</ele>
        <time>2022-10-02T13:39:02Z</time>
      </trkpt>
      <trkpt lat="47.45679" lon="8.28237">
        <ele>437.2</ele>
        <time>2022-10-02T13:39:03Z</time>
      </trkpt>
      <trkpt lat="47.4568" lon="8.28244">
        <ele>437.1</ele>
        <time>2022-10-02T13:39:04Z</time>
      </trkpt>
      <trkpt lat="47.45682" lon="8.2825">
        <ele>436.9</ele>
        <time>2022-10-02T13:39:05Z</time>
      </trkpt>
      <trkpt lat="47.45683" lon="8.28256">
        <ele>436.7</ele>
        <time>2022-10-02T13:39:06Z</time>
      </trkpt>
      <trkpt lat="47.45685" lon="8.28261">
        <ele>436.6</ele>
        <time>2022-10-02T13:39:07Z</time>
      </trkpt>
      <trkpt lat="47.45686" lon="8.28268">
        <ele>436.4</ele>
        <time>2022-10-02T13:39:08Z</time>
      </trkpt>
      <trkpt lat="47.45688" lon="8.28274">
        <ele>436.3</ele>
        <time>2022-10-02T13:39:09Z</time>
      </trkpt>
      <trkpt lat="47.4569" lon="8.28281">
        <ele>436.1</ele>
        <time>2022-10-02T13:39:10Z</time>
      </trkpt>
      <trkpt lat="47.45692" lon="8.28287">
        <ele>435.9</ele>
        <time>2022-10-02T13:39:11Z</time>
      </trkpt>
      <trkpt lat="47.45694" lon="8.28293">
        <ele>435.7</ele>
        <time>2022-10-02T13:39:12Z</time>
      </trkpt>
      <trkpt lat="47.45695" lon="8.283">
        <ele>435.5</ele>
        <time>2022-10-02T13:39:13Z</time>
      </trkpt>
      <trkpt lat="47.45697" lon="8.28307">
        <ele>435.2</ele>
        <time>2022-10-02T13:39:14Z</time>
      </trkpt>
      <trkpt lat="47.45699" lon="8.28314">
        <ele>434.9</ele>
        <time>2022-10-02T13:39:15Z</time>
      </trkpt>
      <trkpt lat="47.45701" lon="8.28322">
        <ele>434.6</ele>
        <time>2022-10-02T13:39:16Z</time>
      </trkpt>
      <trkpt lat="47.45702" lon="8.2833">
        <ele>434.3</ele>
        <time>2022-10-02T13:39:17Z</time>
      </trkpt>
      <trkpt lat="47.45705" lon="8.2834">
        <ele>433.8</ele>
        <time>2022-10-02T13:39:18Z</time>
      </trkpt>
      <trkpt lat="47.45707" lon="8.28348">
        <ele>433.4</ele>
        <time>2022-10-02T13:39:19Z</time>
      </trkpt>
      <trkpt lat="47.4571" lon="8.28356">
        <ele>433</ele>
        <time>2022-10-02T13:39:20Z</time>
      </trkpt>
      <trkpt lat="47.45712" lon="8.28365">
        <ele>432.6</ele>
        <time>2022-10-02T13:39:21Z</time>
      </trkpt>
      <trkpt lat="47.45714" lon="8.28374">
        <ele>432.2</ele>
        <time>2022-10-02T13:39:22Z</time>
      </trkpt>
      <trkpt lat="47.45717" lon="8.28384">
        <ele>431.7</ele>
        <time>2022-10-02T13:39:23Z</time>
      </trkpt>
      <trkpt lat="47.45719" lon="8.28394">
        <ele>431.2</ele>
        <time>2022-10-02T13:39:24Z</time>
      </trkpt>
      <trkpt lat="47.45723" lon="8.28404">
        <ele>430.7</ele>
        <time>2022-10-02T13:39:25Z</time>
      </trkpt>
      <trkpt lat="47.45724" lon="8.28415">
        <ele>430.2</ele>
        <time>2022-10-02T13:39:26Z</time>
      </trkpt>
      <trkpt lat="47.45725" lon="8.28427">
        <ele>429.7</ele>
        <time>2022-10-02T13:39:27Z</time>
      </trkpt>
      <trkpt lat="47.45727" lon="8.28437">
        <ele>429.3</ele>
        <time>2022-10-02T13:39:28Z</time>
      </trkpt>
      <trkpt lat="47.4573" lon="8.28448">
        <ele>428.8</ele>
        <time>2022-10-02T13:39:29Z</time>
      </trkpt>
      <trkpt lat="47.45732" lon="8.28458">
        <ele>428.4</ele>
        <time>2022-10-02T13:39:30Z</time>
      </trkpt>
      <trkpt lat="47.45734" lon="8.28467">
        <ele>428</ele>
        <time>2022-10-02T13:39:31Z</time>
      </trkpt>
      <trkpt lat="47.45736" lon="8.28478">
        <ele>427.6</ele>
        <time>2022-10-02T13:39:32Z</time>
      </trkpt>
      <trkpt lat="47.45736" lon="8.28489">
        <ele>427.2</ele>
        <time>2022-10-02T13:39:33Z</time>
      </trkpt>
      <trkpt lat="47.45739" lon="8.28498">
        <ele>427</ele>
        <time>2022-10-02T13:39:34Z</time>
      </trkpt>
      <trkpt lat="47.45739" lon="8.28504">
        <ele>426.8</ele>
        <time>2022-10-02T13:39:35Z</time>
      </trkpt>
      <trkpt lat="47.45737" lon="8.2851">
        <ele>426.7</ele>
        <time>2022-10-02T13:39:36Z</time>
      </trkpt>
      <trkpt lat="47.45734" lon="8.28515">
        <ele>426.3</ele>
        <time>2022-10-02T13:39:37Z</time>
      </trkpt>
      <trkpt lat="47.45729" lon="8.2852">
        <ele>425.9</ele>
        <time>2022-10-02T13:39:38Z</time>
      </trkpt>
      <trkpt lat="47.45724" lon="8.28525">
        <ele>425.5</ele>
        <time>2022-10-02T13:39:39Z</time>
      </trkpt>
      <trkpt lat="47.45718" lon="8.28528">
        <ele>425.2</ele>
        <time>2022-10-02T13:39:40Z</time>
      </trkpt>
      <trkpt lat="47.45712" lon="8.28531">
        <ele>425</ele>
        <time>2022-10-02T13:39:41Z</time>
      </trkpt>
      <trkpt lat="47.45706" lon="8.28532">
        <ele>424.8</ele>
        <time>2022-10-02T13:39:42Z</time>
      </trkpt>
      <trkpt lat="47.45702" lon="8.28533">
        <ele>424.8</ele>
        <time>2022-10-02T13:39:43Z</time>
      </trkpt>
      <trkpt lat="47.45699" lon="8.28535">
        <ele>424.7</ele>
        <time>2022-10-02T13:39:44Z</time>
      </trkpt>
      <trkpt lat="47.45695" lon="8.28537">
        <ele>424.7</ele>
        <time>2022-10-02T13:39:45Z</time>
      </trkpt>
      <trkpt lat="47.45693" lon="8.28538">
        <ele>424.6</ele>
        <time>2022-10-02T13:39:46Z</time>
      </trkpt>
      <trkpt lat="47.45689" lon="8.28541">
        <ele>424.6</ele>
        <time>2022-10-02T13:39:47Z</time>
      </trkpt>
      <trkpt lat="47.45684" lon="8.28543">
        <ele>424.6</ele>
        <time>2022-10-02T13:39:48Z</time>
      </trkpt>
      <trkpt lat="47.45679" lon="8.28544">
        <ele>424.6</ele>
        <time>2022-10-02T13:39:49Z</time>
      </trkpt>
      <trkpt lat="47.45675" lon="8.28545">
        <ele>424.5</ele>
        <time>2022-10-02T13:39:50Z</time>
      </trkpt>
      <trkpt lat="47.45672" lon="8.28545">
        <ele>424.5</ele>
        <time>2022-10-02T13:39:51Z</time>
      </trkpt>
      <trkpt lat="47.45667" lon="8.28545">
        <ele>424.5</ele>
        <time>2022-10-02T13:39:52Z</time>
      </trkpt>
      <trkpt lat="47.45663" lon="8.28546">
        <ele>424.5</ele>
        <time>2022-10-02T13:39:53Z</time>
      </trkpt>
      <trkpt lat="47.4566" lon="8.28548">
        <ele>424.5</ele>
        <time>2022-10-02T13:39:54Z</time>
      </trkpt>
      <trkpt lat="47.45656" lon="8.28548">
        <ele>424.5</ele>
        <time>2022-10-02T13:39:55Z</time>
      </trkpt>
      <trkpt lat="47.45651" lon="8.28549">
        <ele>424.6</ele>
        <time>2022-10-02T13:39:56Z</time>
      </trkpt>
      <trkpt lat="47.45647" lon="8.28551">
        <ele>424.6</ele>
        <time>2022-10-02T13:39:57Z</time>
      </trkpt>
      <trkpt lat="47.45643" lon="8.28551">
        <ele>424.7</ele>
        <time>2022-10-02T13:39:58Z</time>
      </trkpt>
      <trkpt lat="47.4564" lon="8.28551">
        <ele>424.7</ele>
        <time>2022-10-02T13:39:59Z</time>
      </trkpt>
      <trkpt lat="47.45637" lon="8.28554">
        <ele>424.7</ele>
        <time>2022-10-02T13:40:00Z</time>
      </trkpt>
      <trkpt lat="47.45634" lon="8.28558">
        <ele>424.8</ele>
        <time>2022-10-02T13:40:01Z</time>
      </trkpt>
      <trkpt lat="47.45633" lon="8.2856">
        <ele>424.8</ele>
        <time>2022-10-02T13:40:02Z</time>
      </trkpt>
      <trkpt lat="47.45632" lon="8.28567">
        <ele>424.4</ele>
        <time>2022-10-02T13:40:03Z</time>
      </trkpt>
      <trkpt lat="47.45631" lon="8.28569">
        <ele>424.3</ele>
        <time>2022-10-02T13:40:04Z</time>
      </trkpt>
      <trkpt lat="47.45634" lon="8.28575">
        <ele>423.9</ele>
        <time>2022-10-02T13:40:05Z</time>
      </trkpt>
      <trkpt lat="47.45633" lon="8.28582">
        <ele>423.6</ele>
        <time>2022-10-02T13:40:06Z</time>
      </trkpt>
      <trkpt lat="47.45634" lon="8.2859">
        <ele>423.3</ele>
        <time>2022-10-02T13:40:07Z</time>
      </trkpt>
      <trkpt lat="47.45635" lon="8.28599">
        <ele>423.1</ele>
        <time>2022-10-02T13:40:08Z</time>
      </trkpt>
      <trkpt lat="47.45637" lon="8.28608">
        <ele>422.9</ele>
        <time>2022-10-02T13:40:09Z</time>
      </trkpt>
      <trkpt lat="47.45637" lon="8.28616">
        <ele>422.8</ele>
        <time>2022-10-02T13:40:10Z</time>
      </trkpt>
      <trkpt lat="47.45638" lon="8.28625">
        <ele>422.7</ele>
        <time>2022-10-02T13:40:11Z</time>
      </trkpt>
      <trkpt lat="47.45639" lon="8.28632">
        <ele>422.6</ele>
        <time>2022-10-02T13:40:12Z</time>
      </trkpt>
      <trkpt lat="47.45641" lon="8.28638">
        <ele>422.6</ele>
        <time>2022-10-02T13:40:13Z</time>
      </trkpt>
      <trkpt lat="47.45641" lon="8.28642">
        <ele>422.5</ele>
        <time>2022-10-02T13:40:14Z</time>
      </trkpt>
      <trkpt lat="47.45641" lon="8.28646">
        <ele>422.5</ele>
        <time>2022-10-02T13:40:15Z</time>
      </trkpt>
      <trkpt lat="47.45641" lon="8.28647">
        <ele>422.5</ele>
        <time>2022-10-02T13:40:16Z</time>
      </trkpt>
      <trkpt lat="47.45642" lon="8.28653">
        <ele>422.4</ele>
        <time>2022-10-02T13:40:17Z</time>
      </trkpt>
      <trkpt lat="47.45645" lon="8.28655">
        <ele>422.4</ele>
        <time>2022-10-02T13:40:18Z</time>
      </trkpt>
      <trkpt lat="47.45646" lon="8.28656">
        <ele>422.4</ele>
        <time>2022-10-02T13:40:19Z</time>
      </trkpt>
      <trkpt lat="47.4565" lon="8.28654">
        <ele>422.4</ele>
        <time>2022-10-02T13:40:20Z</time>
      </trkpt>
      <trkpt lat="47.45652" lon="8.28653">
        <ele>422.4</ele>
        <time>2022-10-02T13:40:21Z</time>
      </trkpt>
      <trkpt lat="47.45656" lon="8.28651">
        <ele>422.4</ele>
        <time>2022-10-02T13:40:22Z</time>
      </trkpt>
      <trkpt lat="47.4566" lon="8.2865">
        <ele>422.4</ele>
        <time>2022-10-02T13:40:23Z</time>
      </trkpt>
      <trkpt lat="47.45662" lon="8.28649">
        <ele>422.3</ele>
        <time>2022-10-02T13:40:24Z</time>
      </trkpt>
      <trkpt lat="47.45667" lon="8.2865">
        <ele>422.3</ele>
        <time>2022-10-02T13:40:25Z</time>
      </trkpt>
      <trkpt lat="47.45671" lon="8.28649">
        <ele>422.3</ele>
        <time>2022-10-02T13:40:26Z</time>
      </trkpt>
      <trkpt lat="47.45675" lon="8.28648">
        <ele>422.4</ele>
        <time>2022-10-02T13:40:27Z</time>
      </trkpt>
      <trkpt lat="47.45681" lon="8.28647">
        <ele>422.4</ele>
        <time>2022-10-02T13:40:28Z</time>
      </trkpt>
      <trkpt lat="47.45685" lon="8.28645">
        <ele>422.4</ele>
        <time>2022-10-02T13:40:29Z</time>
      </trkpt>
      <trkpt lat="47.45691" lon="8.28643">
        <ele>422.4</ele>
        <time>2022-10-02T13:40:30Z</time>
      </trkpt>
      <trkpt lat="47.45696" lon="8.28641">
        <ele>422.4</ele>
        <time>2022-10-02T13:40:31Z</time>
      </trkpt>
      <trkpt lat="47.45701" lon="8.2864">
        <ele>422.5</ele>
        <time>2022-10-02T13:40:32Z</time>
      </trkpt>
      <trkpt lat="47.45705" lon="8.2864">
        <ele>422.5</ele>
        <time>2022-10-02T13:40:33Z</time>
      </trkpt>
      <trkpt lat="47.4571" lon="8.28638">
        <ele>422.5</ele>
        <time>2022-10-02T13:40:34Z</time>
      </trkpt>
      <trkpt lat="47.45715" lon="8.28637">
        <ele>422.5</ele>
        <time>2022-10-02T13:40:35Z</time>
      </trkpt>
      <trkpt lat="47.4572" lon="8.28637">
        <ele>422.5</ele>
        <time>2022-10-02T13:40:36Z</time>
      </trkpt>
      <trkpt lat="47.45724" lon="8.28637">
        <ele>422.5</ele>
        <time>2022-10-02T13:40:37Z</time>
      </trkpt>
      <trkpt lat="47.45729" lon="8.28636">
        <ele>422.5</ele>
        <time>2022-10-02T13:40:38Z</time>
      </trkpt>
      <trkpt lat="47.45734" lon="8.28635">
        <ele>422.5</ele>
        <time>2022-10-02T13:40:39Z</time>
      </trkpt>
      <trkpt lat="47.45739" lon="8.28634">
        <ele>422.5</ele>
        <time>2022-10-02T13:40:40Z</time>
      </trkpt>
      <trkpt lat="47.45743" lon="8.28634">
        <ele>422.5</ele>
        <time>2022-10-02T13:40:41Z</time>
      </trkpt>
      <trkpt lat="47.45747" lon="8.28633">
        <ele>422.5</ele>
        <time>2022-10-02T13:40:42Z</time>
      </trkpt>
      <trkpt lat="47.45752" lon="8.28632">
        <ele>422.5</ele>
        <time>2022-10-02T13:40:43Z</time>
      </trkpt>
      <trkpt lat="47.45757" lon="8.28631">
        <ele>422.6</ele>
        <time>2022-10-02T13:40:44Z</time>
      </trkpt>
      <trkpt lat="47.45761" lon="8.28631">
        <ele>422.6</ele>
        <time>2022-10-02T13:40:45Z</time>
      </trkpt>
      <trkpt lat="47.45766" lon="8.2863">
        <ele>422.7</ele>
        <time>2022-10-02T13:40:46Z</time>
      </trkpt>
      <trkpt lat="47.45769" lon="8.2863">
        <ele>422.7</ele>
        <time>2022-10-02T13:40:47Z</time>
      </trkpt>
      <trkpt lat="47.45774" lon="8.2863">
        <ele>422.8</ele>
        <time>2022-10-02T13:40:48Z</time>
      </trkpt>
      <trkpt lat="47.45779" lon="8.2863">
        <ele>422.8</ele>
        <time>2022-10-02T13:40:49Z</time>
      </trkpt>
      <trkpt lat="47.45783" lon="8.2863">
        <ele>422.8</ele>
        <time>2022-10-02T13:40:50Z</time>
      </trkpt>
      <trkpt lat="47.45787" lon="8.2863">
        <ele>422.9</ele>
        <time>2022-10-02T13:40:51Z</time>
      </trkpt>
      <trkpt lat="47.4579" lon="8.28632">
        <ele>422.9</ele>
        <time>2022-10-02T13:40:52Z</time>
      </trkpt>
      <trkpt lat="47.45793" lon="8.28633">
        <ele>422.9</ele>
        <time>2022-10-02T13:40:53Z</time>
      </trkpt>
      <trkpt lat="47.45795" lon="8.28633">
        <ele>422.9</ele>
        <time>2022-10-02T13:40:54Z</time>
      </trkpt>
      <trkpt lat="47.458" lon="8.28633">
        <ele>422.9</ele>
        <time>2022-10-02T13:40:55Z</time>
      </trkpt>
      <trkpt lat="47.45806" lon="8.28635">
        <ele>423</ele>
        <time>2022-10-02T13:40:56Z</time>
      </trkpt>
      <trkpt lat="47.45809" lon="8.28637">
        <ele>423</ele>
        <time>2022-10-02T13:40:57Z</time>
      </trkpt>
      <trkpt lat="47.4581" lon="8.28631">
        <ele>423</ele>
        <time>2022-10-02T13:40:58Z</time>
      </trkpt>
      <trkpt lat="47.45817" lon="8.28629">
        <ele>423</ele>
        <time>2022-10-02T13:40:59Z</time>
      </trkpt>
      <trkpt lat="47.45826" lon="8.2863">
        <ele>422.9</ele>
        <time>2022-10-02T13:41:00Z</time>
      </trkpt>
      <trkpt lat="47.45832" lon="8.2863">
        <ele>422.8</ele>
        <time>2022-10-02T13:41:01Z</time>
      </trkpt>
      <trkpt lat="47.45839" lon="8.28631">
        <ele>422.7</ele>
        <time>2022-10-02T13:41:02Z</time>
      </trkpt>
      <trkpt lat="47.45843" lon="8.28632">
        <ele>422.7</ele>
        <time>2022-10-02T13:41:03Z</time>
      </trkpt>
      <trkpt lat="47.45849" lon="8.28632">
        <ele>422.5</ele>
        <time>2022-10-02T13:41:04Z</time>
      </trkpt>
      <trkpt lat="47.45855" lon="8.28633">
        <ele>422.4</ele>
        <time>2022-10-02T13:41:05Z</time>
      </trkpt>
      <trkpt lat="47.4586" lon="8.28633">
        <ele>422.3</ele>
        <time>2022-10-02T13:41:06Z</time>
      </trkpt>
      <trkpt lat="47.45865" lon="8.28632">
        <ele>422.2</ele>
        <time>2022-10-02T13:41:07Z</time>
      </trkpt>
      <trkpt lat="47.4587" lon="8.2863">
        <ele>422.1</ele>
        <time>2022-10-02T13:41:08Z</time>
      </trkpt>
      <trkpt lat="47.45874" lon="8.28631">
        <ele>422</ele>
        <time>2022-10-02T13:41:09Z</time>
      </trkpt>
      <trkpt lat="47.45881" lon="8.28632">
        <ele>421.8</ele>
        <time>2022-10-02T13:41:10Z</time>
      </trkpt>
      <trkpt lat="47.45884" lon="8.28632">
        <ele>421.7</ele>
        <time>2022-10-02T13:41:11Z</time>
      </trkpt>
      <trkpt lat="47.45893" lon="8.28633">
        <ele>421.4</ele>
        <time>2022-10-02T13:41:12Z</time>
      </trkpt>
      <trkpt lat="47.45899" lon="8.28633">
        <ele>421.2</ele>
        <time>2022-10-02T13:41:13Z</time>
      </trkpt>
      <trkpt lat="47.45905" lon="8.28635">
        <ele>421</ele>
        <time>2022-10-02T13:41:14Z</time>
      </trkpt>
      <trkpt lat="47.45911" lon="8.28638">
        <ele>420.8</ele>
        <time>2022-10-02T13:41:15Z</time>
      </trkpt>
      <trkpt lat="47.45918" lon="8.28641">
        <ele>420.6</ele>
        <time>2022-10-02T13:41:16Z</time>
      </trkpt>
      <trkpt lat="47.45923" lon="8.28643">
        <ele>420.5</ele>
        <time>2022-10-02T13:41:17Z</time>
      </trkpt>
      <trkpt lat="47.45929" lon="8.28643">
        <ele>420.4</ele>
        <time>2022-10-02T13:41:18Z</time>
      </trkpt>
      <trkpt lat="47.45936" lon="8.28643">
        <ele>420.3</ele>
        <time>2022-10-02T13:41:19Z</time>
      </trkpt>
      <trkpt lat="47.45943" lon="8.28641">
        <ele>420.3</ele>
        <time>2022-10-02T13:41:20Z</time>
      </trkpt>
      <trkpt lat="47.4595" lon="8.28641">
        <ele>420.2</ele>
        <time>2022-10-02T13:41:21Z</time>
      </trkpt>
      <trkpt lat="47.45957" lon="8.28641">
        <ele>420.2</ele>
        <time>2022-10-02T13:41:22Z</time>
      </trkpt>
      <trkpt lat="47.45964" lon="8.28641">
        <ele>420.1</ele>
        <time>2022-10-02T13:41:23Z</time>
      </trkpt>
      <trkpt lat="47.45971" lon="8.28641">
        <ele>420.1</ele>
        <time>2022-10-02T13:41:24Z</time>
      </trkpt>
      <trkpt lat="47.45977" lon="8.28641">
        <ele>420.1</ele>
        <time>2022-10-02T13:41:25Z</time>
      </trkpt>
      <trkpt lat="47.45982" lon="8.28641">
        <ele>420</ele>
        <time>2022-10-02T13:41:26Z</time>
      </trkpt>
      <trkpt lat="47.45988" lon="8.28641">
        <ele>420</ele>
        <time>2022-10-02T13:41:27Z</time>
      </trkpt>
      <trkpt lat="47.45994" lon="8.28641">
        <ele>420</ele>
        <time>2022-10-02T13:41:28Z</time>
      </trkpt>
      <trkpt lat="47.46" lon="8.28641">
        <ele>420</ele>
        <time>2022-10-02T13:41:29Z</time>
      </trkpt>
      <trkpt lat="47.46004" lon="8.28643">
        <ele>420</ele>
        <time>2022-10-02T13:41:30Z</time>
      </trkpt>
      <trkpt lat="47.46008" lon="8.28644">
        <ele>420</ele>
        <time>2022-10-02T13:41:31Z</time>
      </trkpt>
      <trkpt lat="47.46012" lon="8.28645">
        <ele>420</ele>
        <time>2022-10-02T13:41:32Z</time>
      </trkpt>
      <trkpt lat="47.46016" lon="8.2865">
        <ele>420</ele>
        <time>2022-10-02T13:41:33Z</time>
      </trkpt>
      <trkpt lat="47.4602" lon="8.28654">
        <ele>420</ele>
        <time>2022-10-02T13:41:34Z</time>
      </trkpt>
      <trkpt lat="47.46025" lon="8.28657">
        <ele>419.9</ele>
        <time>2022-10-02T13:41:35Z</time>
      </trkpt>
      <trkpt lat="47.46028" lon="8.28662">
        <ele>419.9</ele>
        <time>2022-10-02T13:41:36Z</time>
      </trkpt>
      <trkpt lat="47.46032" lon="8.28666">
        <ele>419.9</ele>
        <time>2022-10-02T13:41:37Z</time>
      </trkpt>
      <trkpt lat="47.46036" lon="8.28668">
        <ele>419.8</ele>
        <time>2022-10-02T13:41:38Z</time>
      </trkpt>
      <trkpt lat="47.46039" lon="8.28669">
        <ele>419.8</ele>
        <time>2022-10-02T13:41:39Z</time>
      </trkpt>
      <trkpt lat="47.46042" lon="8.28667">
        <ele>419.8</ele>
        <time>2022-10-02T13:41:40Z</time>
      </trkpt>
      <trkpt lat="47.46045" lon="8.28668">
        <ele>419.8</ele>
        <time>2022-10-02T13:41:41Z</time>
      </trkpt>
      <trkpt lat="47.46051" lon="8.28667">
        <ele>419.8</ele>
        <time>2022-10-02T13:41:42Z</time>
      </trkpt>
      <trkpt lat="47.46055" lon="8.28665">
        <ele>419.7</ele>
        <time>2022-10-02T13:41:43Z</time>
      </trkpt>
      <trkpt lat="47.4606" lon="8.28662">
        <ele>419.7</ele>
        <time>2022-10-02T13:41:44Z</time>
      </trkpt>
      <trkpt lat="47.46065" lon="8.28661">
        <ele>419.7</ele>
        <time>2022-10-02T13:41:45Z</time>
      </trkpt>
      <trkpt lat="47.46068" lon="8.28659">
        <ele>419.7</ele>
        <time>2022-10-02T13:41:46Z</time>
      </trkpt>
      <trkpt lat="47.46072" lon="8.28658">
        <ele>419.7</ele>
        <time>2022-10-02T13:41:47Z</time>
      </trkpt>
      <trkpt lat="47.46077" lon="8.28657">
        <ele>419.7</ele>
        <time>2022-10-02T13:41:48Z</time>
      </trkpt>
      <trkpt lat="47.46081" lon="8.28658">
        <ele>419.7</ele>
        <time>2022-10-02T13:41:49Z</time>
      </trkpt>
      <trkpt lat="47.46086" lon="8.2866">
        <ele>419.7</ele>
        <time>2022-10-02T13:41:50Z</time>
      </trkpt>
      <trkpt lat="47.46091" lon="8.2866">
        <ele>419.6</ele>
        <time>2022-10-02T13:41:51Z</time>
      </trkpt>
      <trkpt lat="47.46095" lon="8.28662">
        <ele>419.6</ele>
        <time>2022-10-02T13:41:52Z</time>
      </trkpt>
      <trkpt lat="47.461" lon="8.28664">
        <ele>419.5</ele>
        <time>2022-10-02T13:41:53Z</time>
      </trkpt>
      <trkpt lat="47.46104" lon="8.28665">
        <ele>419.4</ele>
        <time>2022-10-02T13:41:54Z</time>
      </trkpt>
      <trkpt lat="47.46105" lon="8.28668">
        <ele>419.4</ele>
        <time>2022-10-02T13:41:55Z</time>
      </trkpt>
      <trkpt lat="47.46107" lon="8.2867">
        <ele>419.4</ele>
        <time>2022-10-02T13:41:56Z</time>
      </trkpt>
      <trkpt lat="47.46113" lon="8.28671">
        <ele>419.3</ele>
        <time>2022-10-02T13:41:57Z</time>
      </trkpt>
      <trkpt lat="47.46118" lon="8.28674">
        <ele>419.2</ele>
        <time>2022-10-02T13:41:58Z</time>
      </trkpt>
      <trkpt lat="47.46123" lon="8.28678">
        <ele>419.1</ele>
        <time>2022-10-02T13:41:59Z</time>
      </trkpt>
      <trkpt lat="47.4613" lon="8.28683">
        <ele>418.9</ele>
        <time>2022-10-02T13:42:00Z</time>
      </trkpt>
      <trkpt lat="47.46137" lon="8.28686">
        <ele>418.8</ele>
        <time>2022-10-02T13:42:01Z</time>
      </trkpt>
      <trkpt lat="47.46144" lon="8.28689">
        <ele>418.7</ele>
        <time>2022-10-02T13:42:02Z</time>
      </trkpt>
      <trkpt lat="47.4615" lon="8.28693">
        <ele>418.6</ele>
        <time>2022-10-02T13:42:03Z</time>
      </trkpt>
      <trkpt lat="47.46157" lon="8.28697">
        <ele>418.5</ele>
        <time>2022-10-02T13:42:04Z</time>
      </trkpt>
      <trkpt lat="47.46161" lon="8.28698">
        <ele>418.4</ele>
        <time>2022-10-02T13:42:05Z</time>
      </trkpt>
      <trkpt lat="47.46167" lon="8.28702">
        <ele>418.4</ele>
        <time>2022-10-02T13:42:06Z</time>
      </trkpt>
      <trkpt lat="47.46173" lon="8.28705">
        <ele>418.3</ele>
        <time>2022-10-02T13:42:07Z</time>
      </trkpt>
      <trkpt lat="47.4618" lon="8.28709">
        <ele>418.2</ele>
        <time>2022-10-02T13:42:08Z</time>
      </trkpt>
      <trkpt lat="47.46185" lon="8.28712">
        <ele>418.2</ele>
        <time>2022-10-02T13:42:09Z</time>
      </trkpt>
      <trkpt lat="47.46189" lon="8.28714">
        <ele>418.1</ele>
        <time>2022-10-02T13:42:10Z</time>
      </trkpt>
      <trkpt lat="47.46194" lon="8.28716">
        <ele>418.1</ele>
        <time>2022-10-02T13:42:11Z</time>
      </trkpt>
      <trkpt lat="47.46199" lon="8.28719">
        <ele>418.1</ele>
        <time>2022-10-02T13:42:12Z</time>
      </trkpt>
      <trkpt lat="47.46207" lon="8.28721">
        <ele>418.1</ele>
        <time>2022-10-02T13:42:13Z</time>
      </trkpt>
      <trkpt lat="47.4621" lon="8.28722">
        <ele>418.1</ele>
        <time>2022-10-02T13:42:14Z</time>
      </trkpt>
      <trkpt lat="47.46214" lon="8.28724">
        <ele>418.1</ele>
        <time>2022-10-02T13:42:15Z</time>
      </trkpt>
      <trkpt lat="47.46219" lon="8.28725">
        <ele>418.1</ele>
        <time>2022-10-02T13:42:16Z</time>
      </trkpt>
      <trkpt lat="47.46225" lon="8.28728">
        <ele>418.1</ele>
        <time>2022-10-02T13:42:17Z</time>
      </trkpt>
      <trkpt lat="47.4623" lon="8.28731">
        <ele>418.1</ele>
        <time>2022-10-02T13:42:18Z</time>
      </trkpt>
      <trkpt lat="47.46234" lon="8.28735">
        <ele>418.1</ele>
        <time>2022-10-02T13:42:19Z</time>
      </trkpt>
      <trkpt lat="47.46238" lon="8.28739">
        <ele>418.1</ele>
        <time>2022-10-02T13:42:20Z</time>
      </trkpt>
      <trkpt lat="47.46242" lon="8.28743">
        <ele>418</ele>
        <time>2022-10-02T13:42:21Z</time>
      </trkpt>
      <trkpt lat="47.46245" lon="8.28746">
        <ele>418</ele>
        <time>2022-10-02T13:42:22Z</time>
      </trkpt>
      <trkpt lat="47.4625" lon="8.2875">
        <ele>418</ele>
        <time>2022-10-02T13:42:23Z</time>
      </trkpt>
      <trkpt lat="47.46253" lon="8.28753">
        <ele>418</ele>
        <time>2022-10-02T13:42:24Z</time>
      </trkpt>
      <trkpt lat="47.46259" lon="8.28757">
        <ele>417.9</ele>
        <time>2022-10-02T13:42:25Z</time>
      </trkpt>
      <trkpt lat="47.46264" lon="8.2876">
        <ele>417.9</ele>
        <time>2022-10-02T13:42:26Z</time>
      </trkpt>
      <trkpt lat="47.4627" lon="8.28762">
        <ele>417.8</ele>
        <time>2022-10-02T13:42:27Z</time>
      </trkpt>
      <trkpt lat="47.46274" lon="8.28766">
        <ele>417.7</ele>
        <time>2022-10-02T13:42:28Z</time>
      </trkpt>
      <trkpt lat="47.46279" lon="8.28769">
        <ele>417.7</ele>
        <time>2022-10-02T13:42:29Z</time>
      </trkpt>
      <trkpt lat="47.46284" lon="8.28772">
        <ele>417.6</ele>
        <time>2022-10-02T13:42:30Z</time>
      </trkpt>
      <trkpt lat="47.46288" lon="8.28775">
        <ele>417.5</ele>
        <time>2022-10-02T13:42:31Z</time>
      </trkpt>
      <trkpt lat="47.46293" lon="8.28777">
        <ele>417.4</ele>
        <time>2022-10-02T13:42:32Z</time>
      </trkpt>
      <trkpt lat="47.46297" lon="8.28781">
        <ele>417.3</ele>
        <time>2022-10-02T13:42:33Z</time>
      </trkpt>
      <trkpt lat="47.46302" lon="8.28783">
        <ele>417.1</ele>
        <time>2022-10-02T13:42:34Z</time>
      </trkpt>
      <trkpt lat="47.46307" lon="8.28785">
        <ele>417</ele>
        <time>2022-10-02T13:42:35Z</time>
      </trkpt>
      <trkpt lat="47.46312" lon="8.28787">
        <ele>416.9</ele>
        <time>2022-10-02T13:42:36Z</time>
      </trkpt>
      <trkpt lat="47.46318" lon="8.2879">
        <ele>416.8</ele>
        <time>2022-10-02T13:42:37Z</time>
      </trkpt>
      <trkpt lat="47.46324" lon="8.28794">
        <ele>416.7</ele>
        <time>2022-10-02T13:42:38Z</time>
      </trkpt>
      <trkpt lat="47.46329" lon="8.28798">
        <ele>416.6</ele>
        <time>2022-10-02T13:42:39Z</time>
      </trkpt>
      <trkpt lat="47.46333" lon="8.28801">
        <ele>416.5</ele>
        <time>2022-10-02T13:42:40Z</time>
      </trkpt>
      <trkpt lat="47.46339" lon="8.28805">
        <ele>416.4</ele>
        <time>2022-10-02T13:42:41Z</time>
      </trkpt>
      <trkpt lat="47.46344" lon="8.28809">
        <ele>416.4</ele>
        <time>2022-10-02T13:42:42Z</time>
      </trkpt>
      <trkpt lat="47.46349" lon="8.28813">
        <ele>416.3</ele>
        <time>2022-10-02T13:42:43Z</time>
      </trkpt>
      <trkpt lat="47.46355" lon="8.28817">
        <ele>416.2</ele>
        <time>2022-10-02T13:42:44Z</time>
      </trkpt>
      <trkpt lat="47.4636" lon="8.28821">
        <ele>416.1</ele>
        <time>2022-10-02T13:42:45Z</time>
      </trkpt>
      <trkpt lat="47.46365" lon="8.28826">
        <ele>416.1</ele>
        <time>2022-10-02T13:42:46Z</time>
      </trkpt>
      <trkpt lat="47.4637" lon="8.2883">
        <ele>416</ele>
        <time>2022-10-02T13:42:47Z</time>
      </trkpt>
      <trkpt lat="47.46375" lon="8.28833">
        <ele>416</ele>
        <time>2022-10-02T13:42:48Z</time>
      </trkpt>
      <trkpt lat="47.4638" lon="8.28836">
        <ele>416</ele>
        <time>2022-10-02T13:42:49Z</time>
      </trkpt>
      <trkpt lat="47.46386" lon="8.28837">
        <ele>415.9</ele>
        <time>2022-10-02T13:42:50Z</time>
      </trkpt>
      <trkpt lat="47.46391" lon="8.28839">
        <ele>415.8</ele>
        <time>2022-10-02T13:42:51Z</time>
      </trkpt>
      <trkpt lat="47.46397" lon="8.28841">
        <ele>415.7</ele>
        <time>2022-10-02T13:42:52Z</time>
      </trkpt>
      <trkpt lat="47.46402" lon="8.28844">
        <ele>415.7</ele>
        <time>2022-10-02T13:42:53Z</time>
      </trkpt>
      <trkpt lat="47.46407" lon="8.28846">
        <ele>415.6</ele>
        <time>2022-10-02T13:42:54Z</time>
      </trkpt>
      <trkpt lat="47.4641" lon="8.28847">
        <ele>415.6</ele>
        <time>2022-10-02T13:42:55Z</time>
      </trkpt>
      <trkpt lat="47.46412" lon="8.28853">
        <ele>415.5</ele>
        <time>2022-10-02T13:42:56Z</time>
      </trkpt>
      <trkpt lat="47.46416" lon="8.28856">
        <ele>415.5</ele>
        <time>2022-10-02T13:42:57Z</time>
      </trkpt>
      <trkpt lat="47.4642" lon="8.2886">
        <ele>415.4</ele>
        <time>2022-10-02T13:42:58Z</time>
      </trkpt>
      <trkpt lat="47.46422" lon="8.28862">
        <ele>415.4</ele>
        <time>2022-10-02T13:42:59Z</time>
      </trkpt>
      <trkpt lat="47.46426" lon="8.28862">
        <ele>415.4</ele>
        <time>2022-10-02T13:43:00Z</time>
      </trkpt>
      <trkpt lat="47.46431" lon="8.28867">
        <ele>415.3</ele>
        <time>2022-10-02T13:43:01Z</time>
      </trkpt>
      <trkpt lat="47.46436" lon="8.28871">
        <ele>415.2</ele>
        <time>2022-10-02T13:43:02Z</time>
      </trkpt>
      <trkpt lat="47.4644" lon="8.28873">
        <ele>415.2</ele>
        <time>2022-10-02T13:43:03Z</time>
      </trkpt>
      <trkpt lat="47.46445" lon="8.28877">
        <ele>415.1</ele>
        <time>2022-10-02T13:43:04Z</time>
      </trkpt>
      <trkpt lat="47.4645" lon="8.2888">
        <ele>415</ele>
        <time>2022-10-02T13:43:05Z</time>
      </trkpt>
      <trkpt lat="47.46456" lon="8.28885">
        <ele>414.9</ele>
        <time>2022-10-02T13:43:06Z</time>
      </trkpt>
      <trkpt lat="47.46462" lon="8.2889">
        <ele>414.8</ele>
        <time>2022-10-02T13:43:07Z</time>
      </trkpt>
      <trkpt lat="47.46469" lon="8.28893">
        <ele>414.7</ele>
        <time>2022-10-02T13:43:08Z</time>
      </trkpt>
      <trkpt lat="47.46475" lon="8.28895">
        <ele>414.6</ele>
        <time>2022-10-02T13:43:09Z</time>
      </trkpt>
      <trkpt lat="47.4648" lon="8.289">
        <ele>414.5</ele>
        <time>2022-10-02T13:43:10Z</time>
      </trkpt>
      <trkpt lat="47.46484" lon="8.28903">
        <ele>414.5</ele>
        <time>2022-10-02T13:43:11Z</time>
      </trkpt>
      <trkpt lat="47.46488" lon="8.28908">
        <ele>414.4</ele>
        <time>2022-10-02T13:43:12Z</time>
      </trkpt>
      <trkpt lat="47.46492" lon="8.2891">
        <ele>414.4</ele>
        <time>2022-10-02T13:43:13Z</time>
      </trkpt>
      <trkpt lat="47.46496" lon="8.28913">
        <ele>414.4</ele>
        <time>2022-10-02T13:43:14Z</time>
      </trkpt>
      <trkpt lat="47.465" lon="8.28916">
        <ele>414.3</ele>
        <time>2022-10-02T13:43:15Z</time>
      </trkpt>
      <trkpt lat="47.46504" lon="8.2892">
        <ele>414.3</ele>
        <time>2022-10-02T13:43:16Z</time>
      </trkpt>
      <trkpt lat="47.46509" lon="8.28924">
        <ele>414.3</ele>
        <time>2022-10-02T13:43:17Z</time>
      </trkpt>
      <trkpt lat="47.46514" lon="8.28928">
        <ele>414.2</ele>
        <time>2022-10-02T13:43:18Z</time>
      </trkpt>
      <trkpt lat="47.46518" lon="8.28931">
        <ele>414.2</ele>
        <time>2022-10-02T13:43:19Z</time>
      </trkpt>
      <trkpt lat="47.46522" lon="8.28934">
        <ele>414.1</ele>
        <time>2022-10-02T13:43:20Z</time>
      </trkpt>
      <trkpt lat="47.46528" lon="8.28937">
        <ele>414.1</ele>
        <time>2022-10-02T13:43:21Z</time>
      </trkpt>
      <trkpt lat="47.46533" lon="8.28938">
        <ele>414.1</ele>
        <time>2022-10-02T13:43:22Z</time>
      </trkpt>
      <trkpt lat="47.46538" lon="8.28944">
        <ele>414</ele>
        <time>2022-10-02T13:43:23Z</time>
      </trkpt>
      <trkpt lat="47.46543" lon="8.28948">
        <ele>413.9</ele>
        <time>2022-10-02T13:43:24Z</time>
      </trkpt>
      <trkpt lat="47.46548" lon="8.28953">
        <ele>413.9</ele>
        <time>2022-10-02T13:43:25Z</time>
      </trkpt>
      <trkpt lat="47.46552" lon="8.28958">
        <ele>413.8</ele>
        <time>2022-10-02T13:43:26Z</time>
      </trkpt>
      <trkpt lat="47.46558" lon="8.28959">
        <ele>413.7</ele>
        <time>2022-10-02T13:43:27Z</time>
      </trkpt>
      <trkpt lat="47.46563" lon="8.28963">
        <ele>413.6</ele>
        <time>2022-10-02T13:43:28Z</time>
      </trkpt>
      <trkpt lat="47.46569" lon="8.28966">
        <ele>413.5</ele>
        <time>2022-10-02T13:43:29Z</time>
      </trkpt>
      <trkpt lat="47.46574" lon="8.28969">
        <ele>413.5</ele>
        <time>2022-10-02T13:43:30Z</time>
      </trkpt>
      <trkpt lat="47.46579" lon="8.28973">
        <ele>413.4</ele>
        <time>2022-10-02T13:43:31Z</time>
      </trkpt>
      <trkpt lat="47.46582" lon="8.28976">
        <ele>413.3</ele>
        <time>2022-10-02T13:43:32Z</time>
      </trkpt>
      <trkpt lat="47.46588" lon="8.2898">
        <ele>413.2</ele>
        <time>2022-10-02T13:43:33Z</time>
      </trkpt>
      <trkpt lat="47.46592" lon="8.28983">
        <ele>413.2</ele>
        <time>2022-10-02T13:43:34Z</time>
      </trkpt>
      <trkpt lat="47.46595" lon="8.28986">
        <ele>413.1</ele>
        <time>2022-10-02T13:43:35Z</time>
      </trkpt>
      <trkpt lat="47.46599" lon="8.28989">
        <ele>413</ele>
        <time>2022-10-02T13:43:36Z</time>
      </trkpt>
      <trkpt lat="47.46604" lon="8.28992">
        <ele>413</ele>
        <time>2022-10-02T13:43:37Z</time>
      </trkpt>
      <trkpt lat="47.46607" lon="8.28995">
        <ele>412.9</ele>
        <time>2022-10-02T13:43:38Z</time>
      </trkpt>
      <trkpt lat="47.4661" lon="8.28999">
        <ele>412.9</ele>
        <time>2022-10-02T13:43:39Z</time>
      </trkpt>
      <trkpt lat="47.46612" lon="8.29005">
        <ele>412.8</ele>
        <time>2022-10-02T13:43:40Z</time>
      </trkpt>
      <trkpt lat="47.46612" lon="8.2901">
        <ele>412.8</ele>
        <time>2022-10-02T13:43:41Z</time>
      </trkpt>
      <trkpt lat="47.46615" lon="8.29014">
        <ele>412.7</ele>
        <time>2022-10-02T13:43:42Z</time>
      </trkpt>
      <trkpt lat="47.4662" lon="8.29019">
        <ele>412.7</ele>
        <time>2022-10-02T13:43:43Z</time>
      </trkpt>
      <trkpt lat="47.46624" lon="8.29025">
        <ele>412.6</ele>
        <time>2022-10-02T13:43:44Z</time>
      </trkpt>
      <trkpt lat="47.46625" lon="8.29032">
        <ele>412.6</ele>
        <time>2022-10-02T13:43:45Z</time>
      </trkpt>
      <trkpt lat="47.46628" lon="8.2904">
        <ele>412.5</ele>
        <time>2022-10-02T13:43:46Z</time>
      </trkpt>
      <trkpt lat="47.46631" lon="8.29047">
        <ele>412.4</ele>
        <time>2022-10-02T13:43:47Z</time>
      </trkpt>
      <trkpt lat="47.46635" lon="8.29051">
        <ele>412.3</ele>
        <time>2022-10-02T13:43:48Z</time>
      </trkpt>
      <trkpt lat="47.46639" lon="8.29059">
        <ele>412.2</ele>
        <time>2022-10-02T13:43:49Z</time>
      </trkpt>
      <trkpt lat="47.46642" lon="8.29066">
        <ele>412.1</ele>
        <time>2022-10-02T13:43:50Z</time>
      </trkpt>
      <trkpt lat="47.46645" lon="8.29071">
        <ele>412</ele>
        <time>2022-10-02T13:43:51Z</time>
      </trkpt>
      <trkpt lat="47.46649" lon="8.2908">
        <ele>411.9</ele>
        <time>2022-10-02T13:43:52Z</time>
      </trkpt>
      <trkpt lat="47.46653" lon="8.29086">
        <ele>411.8</ele>
        <time>2022-10-02T13:43:53Z</time>
      </trkpt>
      <trkpt lat="47.46654" lon="8.29093">
        <ele>411.8</ele>
        <time>2022-10-02T13:43:54Z</time>
      </trkpt>
      <trkpt lat="47.46658" lon="8.29099">
        <ele>411.7</ele>
        <time>2022-10-02T13:43:55Z</time>
      </trkpt>
      <trkpt lat="47.46662" lon="8.29106">
        <ele>411.6</ele>
        <time>2022-10-02T13:43:56Z</time>
      </trkpt>
      <trkpt lat="47.46666" lon="8.29113">
        <ele>411.5</ele>
        <time>2022-10-02T13:43:57Z</time>
      </trkpt>
      <trkpt lat="47.4667" lon="8.2912">
        <ele>411.5</ele>
        <time>2022-10-02T13:43:58Z</time>
      </trkpt>
      <trkpt lat="47.46674" lon="8.29127">
        <ele>411.4</ele>
        <time>2022-10-02T13:43:59Z</time>
      </trkpt>
      <trkpt lat="47.46678" lon="8.29135">
        <ele>411.4</ele>
        <time>2022-10-02T13:44:00Z</time>
      </trkpt>
      <trkpt lat="47.46681" lon="8.29141">
        <ele>411.4</ele>
        <time>2022-10-02T13:44:01Z</time>
      </trkpt>
      <trkpt lat="47.46682" lon="8.29149">
        <ele>411.3</ele>
        <time>2022-10-02T13:44:02Z</time>
      </trkpt>
      <trkpt lat="47.46685" lon="8.29156">
        <ele>411.3</ele>
        <time>2022-10-02T13:44:03Z</time>
      </trkpt>
      <trkpt lat="47.4669" lon="8.29162">
        <ele>411.3</ele>
        <time>2022-10-02T13:44:04Z</time>
      </trkpt>
      <trkpt lat="47.46693" lon="8.29168">
        <ele>411.3</ele>
        <time>2022-10-02T13:44:05Z</time>
      </trkpt>
      <trkpt lat="47.46698" lon="8.29175">
        <ele>411.2</ele>
        <time>2022-10-02T13:44:06Z</time>
      </trkpt>
      <trkpt lat="47.46701" lon="8.29181">
        <ele>411.2</ele>
        <time>2022-10-02T13:44:07Z</time>
      </trkpt>
      <trkpt lat="47.46705" lon="8.29188">
        <ele>411.2</ele>
        <time>2022-10-02T13:44:08Z</time>
      </trkpt>
      <trkpt lat="47.46708" lon="8.29194">
        <ele>411.2</ele>
        <time>2022-10-02T13:44:09Z</time>
      </trkpt>
      <trkpt lat="47.46711" lon="8.29199">
        <ele>411.2</ele>
        <time>2022-10-02T13:44:10Z</time>
      </trkpt>
      <trkpt lat="47.46715" lon="8.29205">
        <ele>411.1</ele>
        <time>2022-10-02T13:44:11Z</time>
      </trkpt>
      <trkpt lat="47.46718" lon="8.29211">
        <ele>411.1</ele>
        <time>2022-10-02T13:44:12Z</time>
      </trkpt>
      <trkpt lat="47.46721" lon="8.29218">
        <ele>411</ele>
        <time>2022-10-02T13:44:13Z</time>
      </trkpt>
      <trkpt lat="47.46725" lon="8.29224">
        <ele>411</ele>
        <time>2022-10-02T13:44:14Z</time>
      </trkpt>
      <trkpt lat="47.46728" lon="8.29229">
        <ele>411</ele>
        <time>2022-10-02T13:44:15Z</time>
      </trkpt>
      <trkpt lat="47.46732" lon="8.29236">
        <ele>410.9</ele>
        <time>2022-10-02T13:44:16Z</time>
      </trkpt>
      <trkpt lat="47.46736" lon="8.29243">
        <ele>410.9</ele>
        <time>2022-10-02T13:44:17Z</time>
      </trkpt>
      <trkpt lat="47.4674" lon="8.2925">
        <ele>410.8</ele>
        <time>2022-10-02T13:44:18Z</time>
      </trkpt>
      <trkpt lat="47.46744" lon="8.29256">
        <ele>410.8</ele>
        <time>2022-10-02T13:44:19Z</time>
      </trkpt>
      <trkpt lat="47.46747" lon="8.29261">
        <ele>410.8</ele>
        <time>2022-10-02T13:44:20Z</time>
      </trkpt>
      <trkpt lat="47.4675" lon="8.29267">
        <ele>410.7</ele>
        <time>2022-10-02T13:44:21Z</time>
      </trkpt>
      <trkpt lat="47.46754" lon="8.29272">
        <ele>410.7</ele>
        <time>2022-10-02T13:44:22Z</time>
      </trkpt>
      <trkpt lat="47.46757" lon="8.29278">
        <ele>410.7</ele>
        <time>2022-10-02T13:44:23Z</time>
      </trkpt>
      <trkpt lat="47.46761" lon="8.29284">
        <ele>410.6</ele>
        <time>2022-10-02T13:44:24Z</time>
      </trkpt>
      <trkpt lat="47.46764" lon="8.29291">
        <ele>410.5</ele>
        <time>2022-10-02T13:44:25Z</time>
      </trkpt>
      <trkpt lat="47.46767" lon="8.29297">
        <ele>410.5</ele>
        <time>2022-10-02T13:44:26Z</time>
      </trkpt>
      <trkpt lat="47.46771" lon="8.29304">
        <ele>410.4</ele>
        <time>2022-10-02T13:44:27Z</time>
      </trkpt>
      <trkpt lat="47.46774" lon="8.2931">
        <ele>410.4</ele>
        <time>2022-10-02T13:44:28Z</time>
      </trkpt>
      <trkpt lat="47.46777" lon="8.29316">
        <ele>410.3</ele>
        <time>2022-10-02T13:44:29Z</time>
      </trkpt>
      <trkpt lat="47.46781" lon="8.29323">
        <ele>410.3</ele>
        <time>2022-10-02T13:44:30Z</time>
      </trkpt>
      <trkpt lat="47.46785" lon="8.29331">
        <ele>410.2</ele>
        <time>2022-10-02T13:44:31Z</time>
      </trkpt>
      <trkpt lat="47.46789" lon="8.29339">
        <ele>410.1</ele>
        <time>2022-10-02T13:44:32Z</time>
      </trkpt>
      <trkpt lat="47.46792" lon="8.29345">
        <ele>410</ele>
        <time>2022-10-02T13:44:33Z</time>
      </trkpt>
      <trkpt lat="47.46794" lon="8.2935">
        <ele>410</ele>
        <time>2022-10-02T13:44:34Z</time>
      </trkpt>
      <trkpt lat="47.46798" lon="8.29357">
        <ele>409.9</ele>
        <time>2022-10-02T13:44:35Z</time>
      </trkpt>
      <trkpt lat="47.46801" lon="8.29365">
        <ele>409.8</ele>
        <time>2022-10-02T13:44:36Z</time>
      </trkpt>
      <trkpt lat="47.46805" lon="8.29373">
        <ele>409.7</ele>
        <time>2022-10-02T13:44:37Z</time>
      </trkpt>
      <trkpt lat="47.46808" lon="8.29381">
        <ele>409.6</ele>
        <time>2022-10-02T13:44:38Z</time>
      </trkpt>
      <trkpt lat="47.46812" lon="8.29389">
        <ele>409.5</ele>
        <time>2022-10-02T13:44:39Z</time>
      </trkpt>
      <trkpt lat="47.46816" lon="8.294">
        <ele>409.4</ele>
        <time>2022-10-02T13:44:40Z</time>
      </trkpt>
      <trkpt lat="47.46818" lon="8.2941">
        <ele>409.2</ele>
        <time>2022-10-02T13:44:41Z</time>
      </trkpt>
      <trkpt lat="47.4682" lon="8.29421">
        <ele>409.1</ele>
        <time>2022-10-02T13:44:42Z</time>
      </trkpt>
      <trkpt lat="47.46823" lon="8.29431">
        <ele>409</ele>
        <time>2022-10-02T13:44:43Z</time>
      </trkpt>
      <trkpt lat="47.46825" lon="8.29441">
        <ele>408.9</ele>
        <time>2022-10-02T13:44:44Z</time>
      </trkpt>
      <trkpt lat="47.46828" lon="8.29451">
        <ele>408.7</ele>
        <time>2022-10-02T13:44:45Z</time>
      </trkpt>
      <trkpt lat="47.4683" lon="8.29461">
        <ele>408.6</ele>
        <time>2022-10-02T13:44:46Z</time>
      </trkpt>
      <trkpt lat="47.46832" lon="8.2947">
        <ele>408.4</ele>
        <time>2022-10-02T13:44:47Z</time>
      </trkpt>
      <trkpt lat="47.46834" lon="8.29481">
        <ele>408.2</ele>
        <time>2022-10-02T13:44:48Z</time>
      </trkpt>
      <trkpt lat="47.46837" lon="8.29492">
        <ele>408</ele>
        <time>2022-10-02T13:44:49Z</time>
      </trkpt>
      <trkpt lat="47.46838" lon="8.29502">
        <ele>407.8</ele>
        <time>2022-10-02T13:44:50Z</time>
      </trkpt>
      <trkpt lat="47.4684" lon="8.29512">
        <ele>407.6</ele>
        <time>2022-10-02T13:44:51Z</time>
      </trkpt>
      <trkpt lat="47.46841" lon="8.29523">
        <ele>407.4</ele>
        <time>2022-10-02T13:44:52Z</time>
      </trkpt>
      <trkpt lat="47.46844" lon="8.29534">
        <ele>407.2</ele>
        <time>2022-10-02T13:44:53Z</time>
      </trkpt>
      <trkpt lat="47.46846" lon="8.29543">
        <ele>407</ele>
        <time>2022-10-02T13:44:54Z</time>
      </trkpt>
      <trkpt lat="47.46848" lon="8.29553">
        <ele>406.9</ele>
        <time>2022-10-02T13:44:55Z</time>
      </trkpt>
      <trkpt lat="47.46849" lon="8.29562">
        <ele>406.7</ele>
        <time>2022-10-02T13:44:56Z</time>
      </trkpt>
      <trkpt lat="47.4685" lon="8.29571">
        <ele>406.6</ele>
        <time>2022-10-02T13:44:57Z</time>
      </trkpt>
      <trkpt lat="47.46851" lon="8.2958">
        <ele>406.4</ele>
        <time>2022-10-02T13:44:58Z</time>
      </trkpt>
      <trkpt lat="47.46852" lon="8.29589">
        <ele>406.3</ele>
        <time>2022-10-02T13:44:59Z</time>
      </trkpt>
      <trkpt lat="47.46854" lon="8.296">
        <ele>406.1</ele>
        <time>2022-10-02T13:45:00Z</time>
      </trkpt>
      <trkpt lat="47.46855" lon="8.29611">
        <ele>405.9</ele>
        <time>2022-10-02T13:45:01Z</time>
      </trkpt>
      <trkpt lat="47.46857" lon="8.2962">
        <ele>405.7</ele>
        <time>2022-10-02T13:45:02Z</time>
      </trkpt>
      <trkpt lat="47.4686" lon="8.29629">
        <ele>405.5</ele>
        <time>2022-10-02T13:45:03Z</time>
      </trkpt>
      <trkpt lat="47.46862" lon="8.29638">
        <ele>405.4</ele>
        <time>2022-10-02T13:45:04Z</time>
      </trkpt>
      <trkpt lat="47.46865" lon="8.29648">
        <ele>405.2</ele>
        <time>2022-10-02T13:45:05Z</time>
      </trkpt>
      <trkpt lat="47.46868" lon="8.29657">
        <ele>405.1</ele>
        <time>2022-10-02T13:45:06Z</time>
      </trkpt>
      <trkpt lat="47.4687" lon="8.29667">
        <ele>404.9</ele>
        <time>2022-10-02T13:45:07Z</time>
      </trkpt>
      <trkpt lat="47.46872" lon="8.29676">
        <ele>404.8</ele>
        <time>2022-10-02T13:45:08Z</time>
      </trkpt>
      <trkpt lat="47.46875" lon="8.29685">
        <ele>404.7</ele>
        <time>2022-10-02T13:45:09Z</time>
      </trkpt>
      <trkpt lat="47.46878" lon="8.29695">
        <ele>404.6</ele>
        <time>2022-10-02T13:45:10Z</time>
      </trkpt>
      <trkpt lat="47.4688" lon="8.29706">
        <ele>404.5</ele>
        <time>2022-10-02T13:45:11Z</time>
      </trkpt>
      <trkpt lat="47.46881" lon="8.29715">
        <ele>404.4</ele>
        <time>2022-10-02T13:45:12Z</time>
      </trkpt>
      <trkpt lat="47.46883" lon="8.29724">
        <ele>404.4</ele>
        <time>2022-10-02T13:45:13Z</time>
      </trkpt>
      <trkpt lat="47.46885" lon="8.29733">
        <ele>404.3</ele>
        <time>2022-10-02T13:45:14Z</time>
      </trkpt>
      <trkpt lat="47.46887" lon="8.29742">
        <ele>404.2</ele>
        <time>2022-10-02T13:45:15Z</time>
      </trkpt>
      <trkpt lat="47.46889" lon="8.2975">
        <ele>404.2</ele>
        <time>2022-10-02T13:45:16Z</time>
      </trkpt>
      <trkpt lat="47.46891" lon="8.29759">
        <ele>404.1</ele>
        <time>2022-10-02T13:45:17Z</time>
      </trkpt>
      <trkpt lat="47.46893" lon="8.29766">
        <ele>404</ele>
        <time>2022-10-02T13:45:18Z</time>
      </trkpt>
      <trkpt lat="47.46895" lon="8.29773">
        <ele>404</ele>
        <time>2022-10-02T13:45:19Z</time>
      </trkpt>
      <trkpt lat="47.46898" lon="8.2978">
        <ele>403.9</ele>
        <time>2022-10-02T13:45:20Z</time>
      </trkpt>
      <trkpt lat="47.46901" lon="8.29788">
        <ele>403.8</ele>
        <time>2022-10-02T13:45:21Z</time>
      </trkpt>
      <trkpt lat="47.46903" lon="8.29792">
        <ele>403.7</ele>
        <time>2022-10-02T13:45:22Z</time>
      </trkpt>
      <trkpt lat="47.46905" lon="8.29796">
        <ele>403.7</ele>
        <time>2022-10-02T13:45:23Z</time>
      </trkpt>
      <trkpt lat="47.46909" lon="8.29801">
        <ele>403.6</ele>
        <time>2022-10-02T13:45:24Z</time>
      </trkpt>
      <trkpt lat="47.46911" lon="8.29805">
        <ele>403.6</ele>
        <time>2022-10-02T13:45:25Z</time>
      </trkpt>
      <trkpt lat="47.46912" lon="8.29811">
        <ele>403.5</ele>
        <time>2022-10-02T13:45:26Z</time>
      </trkpt>
      <trkpt lat="47.46913" lon="8.29824">
        <ele>403.4</ele>
        <time>2022-10-02T13:45:27Z</time>
      </trkpt>
      <trkpt lat="47.46917" lon="8.29833">
        <ele>403.3</ele>
        <time>2022-10-02T13:45:28Z</time>
      </trkpt>
      <trkpt lat="47.46919" lon="8.2984">
        <ele>403.2</ele>
        <time>2022-10-02T13:45:29Z</time>
      </trkpt>
      <trkpt lat="47.46921" lon="8.29843">
        <ele>403.1</ele>
        <time>2022-10-02T13:45:30Z</time>
      </trkpt>
      <trkpt lat="47.46926" lon="8.29851">
        <ele>403</ele>
        <time>2022-10-02T13:45:31Z</time>
      </trkpt>
      <trkpt lat="47.4693" lon="8.29855">
        <ele>402.9</ele>
        <time>2022-10-02T13:45:32Z</time>
      </trkpt>
      <trkpt lat="47.46931" lon="8.29867">
        <ele>402.8</ele>
        <time>2022-10-02T13:45:33Z</time>
      </trkpt>
      <trkpt lat="47.46935" lon="8.29877">
        <ele>402.7</ele>
        <time>2022-10-02T13:45:34Z</time>
      </trkpt>
      <trkpt lat="47.46938" lon="8.29884">
        <ele>402.6</ele>
        <time>2022-10-02T13:45:35Z</time>
      </trkpt>
      <trkpt lat="47.46942" lon="8.2989">
        <ele>402.5</ele>
        <time>2022-10-02T13:45:36Z</time>
      </trkpt>
      <trkpt lat="47.46944" lon="8.29897">
        <ele>402.4</ele>
        <time>2022-10-02T13:45:37Z</time>
      </trkpt>
      <trkpt lat="47.46947" lon="8.29905">
        <ele>402.3</ele>
        <time>2022-10-02T13:45:38Z</time>
      </trkpt>
      <trkpt lat="47.4695" lon="8.29914">
        <ele>402.3</ele>
        <time>2022-10-02T13:45:39Z</time>
      </trkpt>
      <trkpt lat="47.46953" lon="8.29924">
        <ele>402.2</ele>
        <time>2022-10-02T13:45:40Z</time>
      </trkpt>
      <trkpt lat="47.46956" lon="8.29931">
        <ele>402.2</ele>
        <time>2022-10-02T13:45:41Z</time>
      </trkpt>
      <trkpt lat="47.46959" lon="8.2994">
        <ele>402.2</ele>
        <time>2022-10-02T13:45:42Z</time>
      </trkpt>
      <trkpt lat="47.46962" lon="8.29948">
        <ele>402.2</ele>
        <time>2022-10-02T13:45:43Z</time>
      </trkpt>
      <trkpt lat="47.46964" lon="8.29958">
        <ele>402.2</ele>
        <time>2022-10-02T13:45:44Z</time>
      </trkpt>
      <trkpt lat="47.46966" lon="8.29963">
        <ele>402.2</ele>
        <time>2022-10-02T13:45:45Z</time>
      </trkpt>
      <trkpt lat="47.46967" lon="8.29969">
        <ele>402.3</ele>
        <time>2022-10-02T13:45:46Z</time>
      </trkpt>
      <trkpt lat="47.46968" lon="8.29976">
        <ele>402.3</ele>
        <time>2022-10-02T13:45:47Z</time>
      </trkpt>
      <trkpt lat="47.46969" lon="8.2998">
        <ele>402.3</ele>
        <time>2022-10-02T13:45:48Z</time>
      </trkpt>
      <trkpt lat="47.4697" lon="8.29985">
        <ele>402.3</ele>
        <time>2022-10-02T13:45:49Z</time>
      </trkpt>
      <trkpt lat="47.46972" lon="8.29986">
        <ele>402.2</ele>
        <time>2022-10-02T13:45:50Z</time>
      </trkpt>
      <trkpt lat="47.46974" lon="8.29986">
        <ele>402.1</ele>
        <time>2022-10-02T13:45:51Z</time>
      </trkpt>
      <trkpt lat="47.46978" lon="8.29985">
        <ele>402</ele>
        <time>2022-10-02T13:45:52Z</time>
      </trkpt>
      <trkpt lat="47.46983" lon="8.29985">
        <ele>401.8</ele>
        <time>2022-10-02T13:45:53Z</time>
      </trkpt>
      <trkpt lat="47.46987" lon="8.29984">
        <ele>401.6</ele>
        <time>2022-10-02T13:45:54Z</time>
      </trkpt>
      <trkpt lat="47.46991" lon="8.29982">
        <ele>401.5</ele>
        <time>2022-10-02T13:45:55Z</time>
      </trkpt>
      <trkpt lat="47.46994" lon="8.29981">
        <ele>401.4</ele>
        <time>2022-10-02T13:45:56Z</time>
      </trkpt>
      <trkpt lat="47.46996" lon="8.2998">
        <ele>401.3</ele>
        <time>2022-10-02T13:45:57Z</time>
      </trkpt>
      <trkpt lat="47.47001" lon="8.29979">
        <ele>401.1</ele>
        <time>2022-10-02T13:45:58Z</time>
      </trkpt>
      <trkpt lat="47.47006" lon="8.29979">
        <ele>400.9</ele>
        <time>2022-10-02T13:45:59Z</time>
      </trkpt>
      <trkpt lat="47.4701" lon="8.29981">
        <ele>400.7</ele>
        <time>2022-10-02T13:46:00Z</time>
      </trkpt>
      <trkpt lat="47.47011" lon="8.29984">
        <ele>400.6</ele>
        <time>2022-10-02T13:46:01Z</time>
      </trkpt>
      <trkpt lat="47.47015" lon="8.29989">
        <ele>400.4</ele>
        <time>2022-10-02T13:46:02Z</time>
      </trkpt>
      <trkpt lat="47.47019" lon="8.29995">
        <ele>400.1</ele>
        <time>2022-10-02T13:46:03Z</time>
      </trkpt>
      <trkpt lat="47.4702" lon="8.30002">
        <ele>399.9</ele>
        <time>2022-10-02T13:46:04Z</time>
      </trkpt>
      <trkpt lat="47.4702" lon="8.30008">
        <ele>399.8</ele>
        <time>2022-10-02T13:46:05Z</time>
      </trkpt>
      <trkpt lat="47.47022" lon="8.30014">
        <ele>399.6</ele>
        <time>2022-10-02T13:46:06Z</time>
      </trkpt>
      <trkpt lat="47.47024" lon="8.30019">
        <ele>399.4</ele>
        <time>2022-10-02T13:46:07Z</time>
      </trkpt>
      <trkpt lat="47.47026" lon="8.30027">
        <ele>399.2</ele>
        <time>2022-10-02T13:46:08Z</time>
      </trkpt>
      <trkpt lat="47.47028" lon="8.30034">
        <ele>399.1</ele>
        <time>2022-10-02T13:46:09Z</time>
      </trkpt>
      <trkpt lat="47.4703" lon="8.30039">
        <ele>398.9</ele>
        <time>2022-10-02T13:46:10Z</time>
      </trkpt>
      <trkpt lat="47.47031" lon="8.30046">
        <ele>398.8</ele>
        <time>2022-10-02T13:46:11Z</time>
      </trkpt>
      <trkpt lat="47.47032" lon="8.30055">
        <ele>398.7</ele>
        <time>2022-10-02T13:46:12Z</time>
      </trkpt>
      <trkpt lat="47.47032" lon="8.30063">
        <ele>398.5</ele>
        <time>2022-10-02T13:46:13Z</time>
      </trkpt>
      <trkpt lat="47.47033" lon="8.30072">
        <ele>398.4</ele>
        <time>2022-10-02T13:46:14Z</time>
      </trkpt>
      <trkpt lat="47.47031" lon="8.30079">
        <ele>398.2</ele>
        <time>2022-10-02T13:46:15Z</time>
      </trkpt>
      <trkpt lat="47.47033" lon="8.30087">
        <ele>398.1</ele>
        <time>2022-10-02T13:46:16Z</time>
      </trkpt>
      <trkpt lat="47.47035" lon="8.30095">
        <ele>397.9</ele>
        <time>2022-10-02T13:46:17Z</time>
      </trkpt>
      <trkpt lat="47.47035" lon="8.30102">
        <ele>397.8</ele>
        <time>2022-10-02T13:46:18Z</time>
      </trkpt>
      <trkpt lat="47.47035" lon="8.30108">
        <ele>397.7</ele>
        <time>2022-10-02T13:46:19Z</time>
      </trkpt>
      <trkpt lat="47.47035" lon="8.30113">
        <ele>397.6</ele>
        <time>2022-10-02T13:46:20Z</time>
      </trkpt>
      <trkpt lat="47.47035" lon="8.3012">
        <ele>397.4</ele>
        <time>2022-10-02T13:46:21Z</time>
      </trkpt>
      <trkpt lat="47.47036" lon="8.30125">
        <ele>397.3</ele>
        <time>2022-10-02T13:46:22Z</time>
      </trkpt>
      <trkpt lat="47.47035" lon="8.30131">
        <ele>397.1</ele>
        <time>2022-10-02T13:46:23Z</time>
      </trkpt>
      <trkpt lat="47.47035" lon="8.30136">
        <ele>397</ele>
        <time>2022-10-02T13:46:24Z</time>
      </trkpt>
      <trkpt lat="47.47038" lon="8.30144">
        <ele>396.7</ele>
        <time>2022-10-02T13:46:25Z</time>
      </trkpt>
      <trkpt lat="47.47036" lon="8.30148">
        <ele>396.6</ele>
        <time>2022-10-02T13:46:26Z</time>
      </trkpt>
      <trkpt lat="47.47035" lon="8.30152">
        <ele>396.4</ele>
        <time>2022-10-02T13:46:27Z</time>
      </trkpt>
      <trkpt lat="47.47034" lon="8.30158">
        <ele>396.2</ele>
        <time>2022-10-02T13:46:28Z</time>
      </trkpt>
      <trkpt lat="47.47032" lon="8.30162">
        <ele>396.1</ele>
        <time>2022-10-02T13:46:29Z</time>
      </trkpt>
      <trkpt lat="47.47028" lon="8.30169">
        <ele>395.8</ele>
        <time>2022-10-02T13:46:30Z</time>
      </trkpt>
      <trkpt lat="47.47026" lon="8.30172">
        <ele>395.6</ele>
        <time>2022-10-02T13:46:31Z</time>
      </trkpt>
      <trkpt lat="47.47022" lon="8.30177">
        <ele>395.3</ele>
        <time>2022-10-02T13:46:32Z</time>
      </trkpt>
      <trkpt lat="47.4702" lon="8.30182">
        <ele>395.1</ele>
        <time>2022-10-02T13:46:33Z</time>
      </trkpt>
      <trkpt lat="47.47022" lon="8.30186">
        <ele>394.9</ele>
        <time>2022-10-02T13:46:34Z</time>
      </trkpt>
      <trkpt lat="47.47022" lon="8.3019">
        <ele>394.8</ele>
        <time>2022-10-02T13:46:35Z</time>
      </trkpt>
      <trkpt lat="47.47025" lon="8.30196">
        <ele>394.5</ele>
        <time>2022-10-02T13:46:36Z</time>
      </trkpt>
      <trkpt lat="47.47027" lon="8.30203">
        <ele>394.3</ele>
        <time>2022-10-02T13:46:37Z</time>
      </trkpt>
      <trkpt lat="47.47029" lon="8.30208">
        <ele>394.3</ele>
        <time>2022-10-02T13:46:38Z</time>
      </trkpt>
      <trkpt lat="47.47029" lon="8.30211">
        <ele>394.2</ele>
        <time>2022-10-02T13:46:39Z</time>
      </trkpt>
      <trkpt lat="47.47029" lon="8.30213">
        <ele>394.2</ele>
        <time>2022-10-02T13:46:40Z</time>
      </trkpt>
      <trkpt lat="47.47032" lon="8.3021">
        <ele>394.2</ele>
        <time>2022-10-02T13:46:41Z</time>
      </trkpt>
      <trkpt lat="47.47036" lon="8.30208">
        <ele>393.9</ele>
        <time>2022-10-02T13:46:42Z</time>
      </trkpt>
      <trkpt lat="47.47039" lon="8.30207">
        <ele>395.8</ele>
        <time>2022-10-02T13:46:43Z</time>
      </trkpt>
      <trkpt lat="47.47044" lon="8.30205">
        <ele>396.5</ele>
        <time>2022-10-02T13:46:44Z</time>
      </trkpt>
      <trkpt lat="47.47045" lon="8.30202">
        <ele>397.1</ele>
        <time>2022-10-02T13:46:45Z</time>
      </trkpt>
      <trkpt lat="47.47046" lon="8.30201">
        <ele>397.2</ele>
        <time>2022-10-02T13:46:46Z</time>
      </trkpt>
      <trkpt lat="47.47049" lon="8.30198">
        <ele>397.4</ele>
        <time>2022-10-02T13:46:47Z</time>
      </trkpt>
      <trkpt lat="47.47049" lon="8.30197">
        <ele>397.5</ele>
        <time>2022-10-02T13:46:48Z</time>
      </trkpt>
      <trkpt lat="47.4705" lon="8.30193">
        <ele>397.7</ele>
        <time>2022-10-02T13:46:49Z</time>
      </trkpt>
      <trkpt lat="47.47051" lon="8.30192">
        <ele>397.8</ele>
        <time>2022-10-02T13:46:50Z</time>
      </trkpt>
      <trkpt lat="47.47053" lon="8.30189">
        <ele>398</ele>
        <time>2022-10-02T13:46:51Z</time>
      </trkpt>
      <trkpt lat="47.47054" lon="8.30188">
        <ele>398.1</ele>
        <time>2022-10-02T13:46:52Z</time>
      </trkpt>
      <trkpt lat="47.47056" lon="8.30186">
        <ele>398.3</ele>
        <time>2022-10-02T13:46:53Z</time>
      </trkpt>
      <trkpt lat="47.47057" lon="8.30185">
        <ele>398.4</ele>
        <time>2022-10-02T13:46:54Z</time>
      </trkpt>
      <trkpt lat="47.47059" lon="8.30184">
        <ele>398.6</ele>
        <time>2022-10-02T13:46:55Z</time>
      </trkpt>
      <trkpt lat="47.4706" lon="8.30183">
        <ele>398.7</ele>
        <time>2022-10-02T13:46:56Z</time>
      </trkpt>
      <trkpt lat="47.47062" lon="8.3018">
        <ele>398.9</ele>
        <time>2022-10-02T13:46:57Z</time>
      </trkpt>
      <trkpt lat="47.47063" lon="8.3018">
        <ele>398.9</ele>
        <time>2022-10-02T13:46:58Z</time>
      </trkpt>
      <trkpt lat="47.47064" lon="8.3018">
        <ele>399</ele>
        <time>2022-10-02T13:46:59Z</time>
      </trkpt>
      <trkpt lat="47.47065" lon="8.30182">
        <ele>399</ele>
        <time>2022-10-02T13:47:00Z</time>
      </trkpt>
      <trkpt lat="47.47065" lon="8.30185">
        <ele>399.1</ele>
        <time>2022-10-02T13:47:01Z</time>
      </trkpt>
      <trkpt lat="47.47066" lon="8.30186">
        <ele>399.2</ele>
        <time>2022-10-02T13:47:02Z</time>
      </trkpt>
      <trkpt lat="47.47066" lon="8.30188">
        <ele>399.2</ele>
        <time>2022-10-02T13:47:03Z</time>
      </trkpt>
      <trkpt lat="47.47066" lon="8.3019">
        <ele>398.6</ele>
        <time>2022-10-02T13:47:04Z</time>
      </trkpt>
      <trkpt lat="47.47067" lon="8.30191">
        <ele>398.7</ele>
        <time>2022-10-02T13:47:05Z</time>
      </trkpt>
      <trkpt lat="47.4707" lon="8.30195">
        <ele>399.6</ele>
        <time>2022-10-02T13:47:06Z</time>
      </trkpt>
      <trkpt lat="47.4707" lon="8.30196">
        <ele>399.7</ele>
        <time>2022-10-02T13:47:07Z</time>
      </trkpt>
      <trkpt lat="47.47072" lon="8.30202">
        <ele>399.7</ele>
        <time>2022-10-02T13:47:08Z</time>
      </trkpt>
      <trkpt lat="47.47073" lon="8.30205">
        <ele>399.8</ele>
        <time>2022-10-02T13:47:09Z</time>
      </trkpt>
      <trkpt lat="47.47075" lon="8.30209">
        <ele>399.1</ele>
        <time>2022-10-02T13:47:10Z</time>
      </trkpt>
      <trkpt lat="47.47077" lon="8.30214">
        <ele>399.2</ele>
        <time>2022-10-02T13:47:11Z</time>
      </trkpt>
      <trkpt lat="47.47078" lon="8.30218">
        <ele>399.2</ele>
        <time>2022-10-02T13:47:12Z</time>
      </trkpt>
      <trkpt lat="47.47081" lon="8.30224">
        <ele>399.7</ele>
        <time>2022-10-02T13:47:13Z</time>
      </trkpt>
      <trkpt lat="47.47084" lon="8.3023">
        <ele>399.8</ele>
        <time>2022-10-02T13:47:14Z</time>
      </trkpt>
      <trkpt lat="47.47086" lon="8.30234">
        <ele>399.8</ele>
        <time>2022-10-02T13:47:15Z</time>
      </trkpt>
      <trkpt lat="47.47088" lon="8.30241">
        <ele>399.2</ele>
        <time>2022-10-02T13:47:16Z</time>
      </trkpt>
      <trkpt lat="47.47092" lon="8.30248">
        <ele>399.2</ele>
        <time>2022-10-02T13:47:17Z</time>
      </trkpt>
      <trkpt lat="47.47093" lon="8.30252">
        <ele>400.7</ele>
        <time>2022-10-02T13:47:18Z</time>
      </trkpt>
      <trkpt lat="47.47095" lon="8.30257">
        <ele>400.7</ele>
        <time>2022-10-02T13:47:19Z</time>
      </trkpt>
      <trkpt lat="47.47097" lon="8.30264">
        <ele>400</ele>
        <time>2022-10-02T13:47:20Z</time>
      </trkpt>
      <trkpt lat="47.47099" lon="8.30272">
        <ele>399.8</ele>
        <time>2022-10-02T13:47:21Z</time>
      </trkpt>
      <trkpt lat="47.471" lon="8.30279">
        <ele>399.8</ele>
        <time>2022-10-02T13:47:22Z</time>
      </trkpt>
      <trkpt lat="47.47101" lon="8.30283">
        <ele>399.7</ele>
        <time>2022-10-02T13:47:23Z</time>
      </trkpt>
      <trkpt lat="47.47103" lon="8.30291">
        <ele>399.7</ele>
        <time>2022-10-02T13:47:24Z</time>
      </trkpt>
      <trkpt lat="47.47105" lon="8.30296">
        <ele>399.6</ele>
        <time>2022-10-02T13:47:25Z</time>
      </trkpt>
      <trkpt lat="47.47106" lon="8.30303">
        <ele>399.6</ele>
        <time>2022-10-02T13:47:26Z</time>
      </trkpt>
      <trkpt lat="47.47108" lon="8.30308">
        <ele>399.5</ele>
        <time>2022-10-02T13:47:27Z</time>
      </trkpt>
      <trkpt lat="47.4711" lon="8.30312">
        <ele>399.5</ele>
        <time>2022-10-02T13:47:28Z</time>
      </trkpt>
      <trkpt lat="47.47111" lon="8.30317">
        <ele>399.4</ele>
        <time>2022-10-02T13:47:29Z</time>
      </trkpt>
      <trkpt lat="47.47113" lon="8.3032">
        <ele>399.3</ele>
        <time>2022-10-02T13:47:30Z</time>
      </trkpt>
      <trkpt lat="47.47113" lon="8.30325">
        <ele>399.3</ele>
        <time>2022-10-02T13:47:31Z</time>
      </trkpt>
      <trkpt lat="47.47114" lon="8.30329">
        <ele>399.2</ele>
        <time>2022-10-02T13:47:32Z</time>
      </trkpt>
      <trkpt lat="47.47116" lon="8.30333">
        <ele>399.1</ele>
        <time>2022-10-02T13:47:33Z</time>
      </trkpt>
      <trkpt lat="47.47118" lon="8.30339">
        <ele>399.1</ele>
        <time>2022-10-02T13:47:34Z</time>
      </trkpt>
      <trkpt lat="47.47115" lon="8.30346">
        <ele>399</ele>
        <time>2022-10-02T13:47:35Z</time>
      </trkpt>
      <trkpt lat="47.47115" lon="8.30352">
        <ele>399</ele>
        <time>2022-10-02T13:47:36Z</time>
      </trkpt>
      <trkpt lat="47.47116" lon="8.30356">
        <ele>399</ele>
        <time>2022-10-02T13:47:37Z</time>
      </trkpt>
      <trkpt lat="47.47117" lon="8.30362">
        <ele>398.9</ele>
        <time>2022-10-02T13:47:38Z</time>
      </trkpt>
      <trkpt lat="47.47118" lon="8.30365">
        <ele>398.8</ele>
        <time>2022-10-02T13:47:39Z</time>
      </trkpt>
      <trkpt lat="47.4712" lon="8.30372">
        <ele>398.7</ele>
        <time>2022-10-02T13:47:40Z</time>
      </trkpt>
      <trkpt lat="47.47121" lon="8.30378">
        <ele>398.5</ele>
        <time>2022-10-02T13:47:41Z</time>
      </trkpt>
      <trkpt lat="47.47121" lon="8.30382">
        <ele>398.3</ele>
        <time>2022-10-02T13:47:42Z</time>
      </trkpt>
      <trkpt lat="47.4712" lon="8.30383">
        <ele>398.2</ele>
        <time>2022-10-02T13:47:43Z</time>
      </trkpt>
      <trkpt lat="47.47118" lon="8.30387">
        <ele>398</ele>
        <time>2022-10-02T13:47:44Z</time>
      </trkpt>
      <trkpt lat="47.47117" lon="8.30388">
        <ele>397.8</ele>
        <time>2022-10-02T13:47:45Z</time>
      </trkpt>
      <trkpt lat="47.47114" lon="8.3039">
        <ele>397.5</ele>
        <time>2022-10-02T13:47:46Z</time>
      </trkpt>
      <trkpt lat="47.47111" lon="8.30394">
        <ele>395.8</ele>
        <time>2022-10-02T13:47:47Z</time>
      </trkpt>
      <trkpt lat="47.47108" lon="8.30398">
        <ele>394.9</ele>
        <time>2022-10-02T13:47:48Z</time>
      </trkpt>
      <trkpt lat="47.47104" lon="8.30403">
        <ele>393.7</ele>
        <time>2022-10-02T13:47:49Z</time>
      </trkpt>
      <trkpt lat="47.471" lon="8.30406">
        <ele>392.9</ele>
        <time>2022-10-02T13:47:50Z</time>
      </trkpt>
      <trkpt lat="47.47097" lon="8.30407">
        <ele>392.3</ele>
        <time>2022-10-02T13:47:51Z</time>
      </trkpt>
      <trkpt lat="47.47094" lon="8.30409">
        <ele>391.7</ele>
        <time>2022-10-02T13:47:52Z</time>
      </trkpt>
      <trkpt lat="47.47093" lon="8.30411">
        <ele>391.4</ele>
        <time>2022-10-02T13:47:53Z</time>
      </trkpt>
      <trkpt lat="47.47092" lon="8.30412">
        <ele>391.2</ele>
        <time>2022-10-02T13:47:54Z</time>
      </trkpt>
      <trkpt lat="47.47091" lon="8.30413">
        <ele>391</ele>
        <time>2022-10-02T13:47:55Z</time>
      </trkpt>
      <trkpt lat="47.47091" lon="8.30414">
        <ele>390.9</ele>
        <time>2022-10-02T13:47:56Z</time>
      </trkpt>
      <trkpt lat="47.4709" lon="8.30415">
        <ele>390.6</ele>
        <time>2022-10-02T13:47:57Z</time>
      </trkpt>
      <trkpt lat="47.4709" lon="8.30416">
        <ele>390.5</ele>
        <time>2022-10-02T13:47:58Z</time>
      </trkpt>
      <trkpt lat="47.4709" lon="8.30415">
        <ele>390.5</ele>
        <time>2022-10-02T13:47:59Z</time>
      </trkpt>
      <trkpt lat="47.4709" lon="8.30415">
        <ele>390.5</ele>
        <time>2022-10-02T13:48:00Z</time>
      </trkpt>
      <trkpt lat="47.4709" lon="8.30415">
        <ele>390.5</ele>
        <time>2022-10-02T13:48:01Z</time>
      </trkpt>
      <trkpt lat="47.4709" lon="8.30415">
        <ele>390.5</ele>
        <time>2022-10-02T13:48:02Z</time>
      </trkpt>
      <trkpt lat="47.47088" lon="8.30416">
        <ele>390.1</ele>
        <time>2022-10-02T13:48:03Z</time>
      </trkpt>
      <trkpt lat="47.47088" lon="8.30416">
        <ele>390.1</ele>
        <time>2022-10-02T13:48:04Z</time>
      </trkpt>
      <trkpt lat="47.47087" lon="8.30418">
        <ele>390.2</ele>
        <time>2022-10-02T13:48:05Z</time>
      </trkpt>
      <trkpt lat="47.47086" lon="8.3042">
        <ele>390.2</ele>
        <time>2022-10-02T13:48:06Z</time>
      </trkpt>
      <trkpt lat="47.47085" lon="8.30422">
        <ele>390.2</ele>
        <time>2022-10-02T13:48:07Z</time>
      </trkpt>
      <trkpt lat="47.47085" lon="8.30424">
        <ele>390.2</ele>
        <time>2022-10-02T13:48:11Z</time>
      </trkpt>
      <trkpt lat="47.47084" lon="8.30426">
        <ele>390.2</ele>
        <time>2022-10-02T13:48:12Z</time>
      </trkpt>
      <trkpt lat="47.47086" lon="8.30429">
        <ele>390.2</ele>
        <time>2022-10-02T13:48:13Z</time>
      </trkpt>
      <trkpt lat="47.47086" lon="8.30436">
        <ele>390.1</ele>
        <time>2022-10-02T13:48:14Z</time>
      </trkpt>
      <trkpt lat="47.47087" lon="8.30442">
        <ele>390.1</ele>
        <time>2022-10-02T13:48:15Z</time>
      </trkpt>
      <trkpt lat="47.47088" lon="8.30447">
        <ele>390.1</ele>
        <time>2022-10-02T13:48:16Z</time>
      </trkpt>
      <trkpt lat="47.47089" lon="8.30452">
        <ele>390.1</ele>
        <time>2022-10-02T13:48:17Z</time>
      </trkpt>
      <trkpt lat="47.47089" lon="8.30457">
        <ele>390</ele>
        <time>2022-10-02T13:48:18Z</time>
      </trkpt>
      <trkpt lat="47.4709" lon="8.3046">
        <ele>390</ele>
        <time>2022-10-02T13:48:19Z</time>
      </trkpt>
      <trkpt lat="47.47092" lon="8.30466">
        <ele>390</ele>
        <time>2022-10-02T13:48:20Z</time>
      </trkpt>
      <trkpt lat="47.47093" lon="8.30473">
        <ele>389.9</ele>
        <time>2022-10-02T13:48:21Z</time>
      </trkpt>
      <trkpt lat="47.47094" lon="8.30481">
        <ele>389.9</ele>
        <time>2022-10-02T13:48:22Z</time>
      </trkpt>
      <trkpt lat="47.47097" lon="8.30487">
        <ele>389.9</ele>
        <time>2022-10-02T13:48:23Z</time>
      </trkpt>
      <trkpt lat="47.47099" lon="8.30494">
        <ele>389.8</ele>
        <time>2022-10-02T13:48:24Z</time>
      </trkpt>
      <trkpt lat="47.47101" lon="8.305">
        <ele>389.8</ele>
        <time>2022-10-02T13:48:25Z</time>
      </trkpt>
      <trkpt lat="47.47104" lon="8.30505">
        <ele>389.8</ele>
        <time>2022-10-02T13:48:26Z</time>
      </trkpt>
      <trkpt lat="47.47105" lon="8.30515">
        <ele>389.7</ele>
        <time>2022-10-02T13:48:27Z</time>
      </trkpt>
      <trkpt lat="47.47106" lon="8.30522">
        <ele>389.7</ele>
        <time>2022-10-02T13:48:28Z</time>
      </trkpt>
      <trkpt lat="47.47107" lon="8.30529">
        <ele>389.6</ele>
        <time>2022-10-02T13:48:29Z</time>
      </trkpt>
      <trkpt lat="47.47109" lon="8.30536">
        <ele>389.5</ele>
        <time>2022-10-02T13:48:30Z</time>
      </trkpt>
      <trkpt lat="47.47113" lon="8.30542">
        <ele>389.5</ele>
        <time>2022-10-02T13:48:31Z</time>
      </trkpt>
      <trkpt lat="47.47116" lon="8.3055">
        <ele>389.4</ele>
        <time>2022-10-02T13:48:32Z</time>
      </trkpt>
      <trkpt lat="47.47118" lon="8.30557">
        <ele>389.3</ele>
        <time>2022-10-02T13:48:33Z</time>
      </trkpt>
      <trkpt lat="47.47121" lon="8.30563">
        <ele>389.2</ele>
        <time>2022-10-02T13:48:34Z</time>
      </trkpt>
      <trkpt lat="47.47124" lon="8.3057">
        <ele>389.2</ele>
        <time>2022-10-02T13:48:35Z</time>
      </trkpt>
      <trkpt lat="47.47128" lon="8.30575">
        <ele>389.1</ele>
        <time>2022-10-02T13:48:36Z</time>
      </trkpt>
      <trkpt lat="47.47131" lon="8.30582">
        <ele>388.9</ele>
        <time>2022-10-02T13:48:37Z</time>
      </trkpt>
      <trkpt lat="47.47133" lon="8.3059">
        <ele>388.6</ele>
        <time>2022-10-02T13:48:38Z</time>
      </trkpt>
      <trkpt lat="47.47136" lon="8.30597">
        <ele>388.4</ele>
        <time>2022-10-02T13:48:39Z</time>
      </trkpt>
      <trkpt lat="47.47138" lon="8.30604">
        <ele>388.1</ele>
        <time>2022-10-02T13:48:40Z</time>
      </trkpt>
      <trkpt lat="47.47139" lon="8.30608">
        <ele>388</ele>
        <time>2022-10-02T13:48:41Z</time>
      </trkpt>
      <trkpt lat="47.4714" lon="8.30611">
        <ele>387.8</ele>
        <time>2022-10-02T13:48:42Z</time>
      </trkpt>
      <trkpt lat="47.4714" lon="8.30612">
        <ele>387.8</ele>
        <time>2022-10-02T13:48:43Z</time>
      </trkpt>
      <trkpt lat="47.47141" lon="8.30613">
        <ele>387.7</ele>
        <time>2022-10-02T13:48:44Z</time>
      </trkpt>
      <trkpt lat="47.47141" lon="8.30617">
        <ele>387.6</ele>
        <time>2022-10-02T13:48:45Z</time>
      </trkpt>
      <trkpt lat="47.47141" lon="8.30618">
        <ele>387.5</ele>
        <time>2022-10-02T13:48:46Z</time>
      </trkpt>
      <trkpt lat="47.47141" lon="8.30621">
        <ele>387.4</ele>
        <time>2022-10-02T13:48:47Z</time>
      </trkpt>
      <trkpt lat="47.47141" lon="8.30622">
        <ele>387.4</ele>
        <time>2022-10-02T13:48:48Z</time>
      </trkpt>
      <trkpt lat="47.47141" lon="8.30623">
        <ele>387.3</ele>
        <time>2022-10-02T13:48:49Z</time>
      </trkpt>
      <trkpt lat="47.47142" lon="8.30624">
        <ele>387.3</ele>
        <time>2022-10-02T13:48:50Z</time>
      </trkpt>
      <trkpt lat="47.47142" lon="8.30625">
        <ele>387.2</ele>
        <time>2022-10-02T13:48:51Z</time>
      </trkpt>
      <trkpt lat="47.47142" lon="8.30626">
        <ele>387.2</ele>
        <time>2022-10-02T13:48:52Z</time>
      </trkpt>
      <trkpt lat="47.47142" lon="8.30628">
        <ele>387.1</ele>
        <time>2022-10-02T13:48:53Z</time>
      </trkpt>
      <trkpt lat="47.47143" lon="8.30629">
        <ele>387.1</ele>
        <time>2022-10-02T13:48:54Z</time>
      </trkpt>
      <trkpt lat="47.47143" lon="8.3063">
        <ele>387</ele>
        <time>2022-10-02T13:48:55Z</time>
      </trkpt>
      <trkpt lat="47.47143" lon="8.30631">
        <ele>386.9</ele>
        <time>2022-10-02T13:48:56Z</time>
      </trkpt>
      <trkpt lat="47.47143" lon="8.30632">
        <ele>386.9</ele>
        <time>2022-10-02T13:48:57Z</time>
      </trkpt>
      <trkpt lat="47.47143" lon="8.30633">
        <ele>386.8</ele>
        <time>2022-10-02T13:48:58Z</time>
      </trkpt>
      <trkpt lat="47.47144" lon="8.30634">
        <ele>386.8</ele>
        <time>2022-10-02T13:48:59Z</time>
      </trkpt>
      <trkpt lat="47.47144" lon="8.30636">
        <ele>386.7</ele>
        <time>2022-10-02T13:49:00Z</time>
      </trkpt>
      <trkpt lat="47.47144" lon="8.30637">
        <ele>386.6</ele>
        <time>2022-10-02T13:49:01Z</time>
      </trkpt>
      <trkpt lat="47.47144" lon="8.30638">
        <ele>386.6</ele>
        <time>2022-10-02T13:49:02Z</time>
      </trkpt>
      <trkpt lat="47.47145" lon="8.30639">
        <ele>386.5</ele>
        <time>2022-10-02T13:49:03Z</time>
      </trkpt>
      <trkpt lat="47.47145" lon="8.3064">
        <ele>386.5</ele>
        <time>2022-10-02T13:49:14Z</time>
      </trkpt>
      <trkpt lat="47.47145" lon="8.30641">
        <ele>386.3</ele>
        <time>2022-10-02T13:49:15Z</time>
      </trkpt>
      <trkpt lat="47.47147" lon="8.30647">
        <ele>386.1</ele>
        <time>2022-10-02T13:49:16Z</time>
      </trkpt>
      <trkpt lat="47.47149" lon="8.30653">
        <ele>386</ele>
        <time>2022-10-02T13:49:17Z</time>
      </trkpt>
      <trkpt lat="47.4715" lon="8.30661">
        <ele>385.7</ele>
        <time>2022-10-02T13:49:18Z</time>
      </trkpt>
      <trkpt lat="47.47151" lon="8.30667">
        <ele>385.5</ele>
        <time>2022-10-02T13:49:19Z</time>
      </trkpt>
      <trkpt lat="47.47151" lon="8.30675">
        <ele>385.3</ele>
        <time>2022-10-02T13:49:20Z</time>
      </trkpt>
      <trkpt lat="47.47152" lon="8.30683">
        <ele>385.1</ele>
        <time>2022-10-02T13:49:21Z</time>
      </trkpt>
      <trkpt lat="47.47151" lon="8.30691">
        <ele>384.9</ele>
        <time>2022-10-02T13:49:22Z</time>
      </trkpt>
      <trkpt lat="47.47151" lon="8.307">
        <ele>384.7</ele>
        <time>2022-10-02T13:49:23Z</time>
      </trkpt>
      <trkpt lat="47.47152" lon="8.30705">
        <ele>384.6</ele>
        <time>2022-10-02T13:49:24Z</time>
      </trkpt>
      <trkpt lat="47.47154" lon="8.30709">
        <ele>384.6</ele>
        <time>2022-10-02T13:49:25Z</time>
      </trkpt>
      <trkpt lat="47.47159" lon="8.30713">
        <ele>384.7</ele>
        <time>2022-10-02T13:49:26Z</time>
      </trkpt>
      <trkpt lat="47.47163" lon="8.30713">
        <ele>384.9</ele>
        <time>2022-10-02T13:49:27Z</time>
      </trkpt>
      <trkpt lat="47.47168" lon="8.30713">
        <ele>385</ele>
        <time>2022-10-02T13:49:28Z</time>
      </trkpt>
      <trkpt lat="47.47172" lon="8.30713">
        <ele>385.1</ele>
        <time>2022-10-02T13:49:29Z</time>
      </trkpt>
      <trkpt lat="47.47177" lon="8.30714">
        <ele>385.3</ele>
        <time>2022-10-02T13:49:30Z</time>
      </trkpt>
      <trkpt lat="47.47181" lon="8.30716">
        <ele>385.4</ele>
        <time>2022-10-02T13:49:31Z</time>
      </trkpt>
      <trkpt lat="47.47184" lon="8.30718">
        <ele>385.4</ele>
        <time>2022-10-02T13:49:32Z</time>
      </trkpt>
      <trkpt lat="47.47188" lon="8.30722">
        <ele>385.4</ele>
        <time>2022-10-02T13:49:33Z</time>
      </trkpt>
      <trkpt lat="47.47193" lon="8.30725">
        <ele>385.5</ele>
        <time>2022-10-02T13:49:34Z</time>
      </trkpt>
      <trkpt lat="47.47195" lon="8.30728">
        <ele>385.4</ele>
        <time>2022-10-02T13:49:35Z</time>
      </trkpt>
      <trkpt lat="47.47199" lon="8.30731">
        <ele>385.4</ele>
        <time>2022-10-02T13:49:36Z</time>
      </trkpt>
      <trkpt lat="47.47204" lon="8.30735">
        <ele>385.4</ele>
        <time>2022-10-02T13:49:37Z</time>
      </trkpt>
      <trkpt lat="47.47209" lon="8.30737">
        <ele>385.3</ele>
        <time>2022-10-02T13:49:38Z</time>
      </trkpt>
      <trkpt lat="47.47213" lon="8.30744">
        <ele>385.3</ele>
        <time>2022-10-02T13:49:39Z</time>
      </trkpt>
      <trkpt lat="47.47216" lon="8.30748">
        <ele>385.2</ele>
        <time>2022-10-02T13:49:40Z</time>
      </trkpt>
      <trkpt lat="47.47221" lon="8.30753">
        <ele>385.2</ele>
        <time>2022-10-02T13:49:41Z</time>
      </trkpt>
      <trkpt lat="47.47224" lon="8.30753">
        <ele>385.1</ele>
        <time>2022-10-02T13:49:42Z</time>
      </trkpt>
      <trkpt lat="47.47228" lon="8.30756">
        <ele>385.1</ele>
        <time>2022-10-02T13:49:43Z</time>
      </trkpt>
      <trkpt lat="47.47231" lon="8.30758">
        <ele>385</ele>
        <time>2022-10-02T13:49:44Z</time>
      </trkpt>
      <trkpt lat="47.47236" lon="8.30761">
        <ele>385</ele>
        <time>2022-10-02T13:49:45Z</time>
      </trkpt>
      <trkpt lat="47.47238" lon="8.30764">
        <ele>385</ele>
        <time>2022-10-02T13:49:46Z</time>
      </trkpt>
      <trkpt lat="47.47241" lon="8.30766">
        <ele>384.9</ele>
        <time>2022-10-02T13:49:47Z</time>
      </trkpt>
      <trkpt lat="47.47243" lon="8.30768">
        <ele>384.9</ele>
        <time>2022-10-02T13:49:48Z</time>
      </trkpt>
      <trkpt lat="47.47248" lon="8.3077">
        <ele>384.9</ele>
        <time>2022-10-02T13:49:49Z</time>
      </trkpt>
      <trkpt lat="47.47253" lon="8.30772">
        <ele>384.8</ele>
        <time>2022-10-02T13:49:50Z</time>
      </trkpt>
      <trkpt lat="47.47256" lon="8.30777">
        <ele>384.8</ele>
        <time>2022-10-02T13:49:51Z</time>
      </trkpt>
      <trkpt lat="47.4726" lon="8.3078">
        <ele>384.8</ele>
        <time>2022-10-02T13:49:52Z</time>
      </trkpt>
      <trkpt lat="47.47263" lon="8.30781">
        <ele>384.8</ele>
        <time>2022-10-02T13:49:53Z</time>
      </trkpt>
      <trkpt lat="47.47265" lon="8.30784">
        <ele>384.8</ele>
        <time>2022-10-02T13:49:54Z</time>
      </trkpt>
      <trkpt lat="47.47266" lon="8.30785">
        <ele>384.8</ele>
        <time>2022-10-02T13:49:55Z</time>
      </trkpt>
      <trkpt lat="47.47268" lon="8.30789">
        <ele>384.8</ele>
        <time>2022-10-02T13:49:56Z</time>
      </trkpt>
      <trkpt lat="47.47271" lon="8.30793">
        <ele>384.9</ele>
        <time>2022-10-02T13:49:57Z</time>
      </trkpt>
      <trkpt lat="47.47274" lon="8.30795">
        <ele>384.9</ele>
        <time>2022-10-02T13:49:58Z</time>
      </trkpt>
      <trkpt lat="47.47275" lon="8.30796">
        <ele>384.9</ele>
        <time>2022-10-02T13:49:59Z</time>
      </trkpt>
      <trkpt lat="47.4728" lon="8.30798">
        <ele>384.9</ele>
        <time>2022-10-02T13:50:00Z</time>
      </trkpt>
      <trkpt lat="47.47282" lon="8.30798">
        <ele>384.9</ele>
        <time>2022-10-02T13:50:01Z</time>
      </trkpt>
      <trkpt lat="47.47285" lon="8.30799">
        <ele>384.9</ele>
        <time>2022-10-02T13:50:02Z</time>
      </trkpt>
      <trkpt lat="47.47289" lon="8.30798">
        <ele>384.9</ele>
        <time>2022-10-02T13:50:03Z</time>
      </trkpt>
      <trkpt lat="47.47292" lon="8.30799">
        <ele>384.9</ele>
        <time>2022-10-02T13:50:04Z</time>
      </trkpt>
      <trkpt lat="47.47296" lon="8.30801">
        <ele>384.8</ele>
        <time>2022-10-02T13:50:05Z</time>
      </trkpt>
      <trkpt lat="47.47298" lon="8.30801">
        <ele>384.8</ele>
        <time>2022-10-02T13:50:06Z</time>
      </trkpt>
      <trkpt lat="47.47301" lon="8.30803">
        <ele>384.8</ele>
        <time>2022-10-02T13:50:07Z</time>
      </trkpt>
      <trkpt lat="47.47302" lon="8.30802">
        <ele>384.8</ele>
        <time>2022-10-02T13:50:08Z</time>
      </trkpt>
      <trkpt lat="47.47305" lon="8.30802">
        <ele>384.8</ele>
        <time>2022-10-02T13:50:09Z</time>
      </trkpt>
      <trkpt lat="47.47306" lon="8.30801">
        <ele>384.8</ele>
        <time>2022-10-02T13:50:10Z</time>
      </trkpt>
      <trkpt lat="47.47308" lon="8.30798">
        <ele>384.9</ele>
        <time>2022-10-02T13:50:11Z</time>
      </trkpt>
      <trkpt lat="47.47311" lon="8.30796">
        <ele>385</ele>
        <time>2022-10-02T13:50:12Z</time>
      </trkpt>
      <trkpt lat="47.47313" lon="8.30794">
        <ele>385.1</ele>
        <time>2022-10-02T13:50:13Z</time>
      </trkpt>
      <trkpt lat="47.47316" lon="8.30792">
        <ele>385.1</ele>
        <time>2022-10-02T13:50:14Z</time>
      </trkpt>
      <trkpt lat="47.47317" lon="8.30789">
        <ele>385.1</ele>
        <time>2022-10-02T13:50:15Z</time>
      </trkpt>
      <trkpt lat="47.47318" lon="8.30787">
        <ele>385.2</ele>
        <time>2022-10-02T13:50:16Z</time>
      </trkpt>
      <trkpt lat="47.47322" lon="8.30784">
        <ele>385.3</ele>
        <time>2022-10-02T13:50:17Z</time>
      </trkpt>
      <trkpt lat="47.47328" lon="8.3078">
        <ele>385.4</ele>
        <time>2022-10-02T13:50:18Z</time>
      </trkpt>
      <trkpt lat="47.47333" lon="8.30777">
        <ele>385.5</ele>
        <time>2022-10-02T13:50:19Z</time>
      </trkpt>
      <trkpt lat="47.47339" lon="8.30776">
        <ele>385.6</ele>
        <time>2022-10-02T13:50:20Z</time>
      </trkpt>
      <trkpt lat="47.47343" lon="8.30774">
        <ele>385.6</ele>
        <time>2022-10-02T13:50:21Z</time>
      </trkpt>
      <trkpt lat="47.47347" lon="8.30773">
        <ele>385.6</ele>
        <time>2022-10-02T13:50:22Z</time>
      </trkpt>
      <trkpt lat="47.47351" lon="8.30769">
        <ele>385.7</ele>
        <time>2022-10-02T13:50:23Z</time>
      </trkpt>
      <trkpt lat="47.47354" lon="8.3077">
        <ele>385.7</ele>
        <time>2022-10-02T13:50:24Z</time>
      </trkpt>
      <trkpt lat="47.47358" lon="8.30768">
        <ele>385.9</ele>
        <time>2022-10-02T13:50:25Z</time>
      </trkpt>
      <trkpt lat="47.47359" lon="8.30768">
        <ele>386</ele>
        <time>2022-10-02T13:50:26Z</time>
      </trkpt>
      <trkpt lat="47.47362" lon="8.30768">
        <ele>386.1</ele>
        <time>2022-10-02T13:50:27Z</time>
      </trkpt>
      <trkpt lat="47.47365" lon="8.30769">
        <ele>386.2</ele>
        <time>2022-10-02T13:50:28Z</time>
      </trkpt>
      <trkpt lat="47.47365" lon="8.30769">
        <ele>386.3</ele>
        <time>2022-10-02T13:50:29Z</time>
      </trkpt>
      <trkpt lat="47.47366" lon="8.3077">
        <ele>386.3</ele>
        <time>2022-10-02T13:50:30Z</time>
      </trkpt>
      <trkpt lat="47.47368" lon="8.30769">
        <ele>386.4</ele>
        <time>2022-10-02T13:50:31Z</time>
      </trkpt>
      <trkpt lat="47.4737" lon="8.30769">
        <ele>386.5</ele>
        <time>2022-10-02T13:50:32Z</time>
      </trkpt>
      <trkpt lat="47.47371" lon="8.30769">
        <ele>386.6</ele>
        <time>2022-10-02T13:50:33Z</time>
      </trkpt>
      <trkpt lat="47.47372" lon="8.30769">
        <ele>386.6</ele>
        <time>2022-10-02T13:50:34Z</time>
      </trkpt>
      <trkpt lat="47.47373" lon="8.30769">
        <ele>386.6</ele>
        <time>2022-10-02T13:50:35Z</time>
      </trkpt>
      <trkpt lat="47.47375" lon="8.3077">
        <ele>386.6</ele>
        <time>2022-10-02T13:50:36Z</time>
      </trkpt>
      <trkpt lat="47.47376" lon="8.3077">
        <ele>386.6</ele>
        <time>2022-10-02T13:50:37Z</time>
      </trkpt>
      <trkpt lat="47.47377" lon="8.3077">
        <ele>386.7</ele>
        <time>2022-10-02T13:50:38Z</time>
      </trkpt>
      <trkpt lat="47.47376" lon="8.30771">
        <ele>386.7</ele>
        <time>2022-10-02T13:50:39Z</time>
      </trkpt>
      <trkpt lat="47.47378" lon="8.3077">
        <ele>386.7</ele>
        <time>2022-10-02T13:50:40Z</time>
      </trkpt>
      <trkpt lat="47.4738" lon="8.3077">
        <ele>386.7</ele>
        <time>2022-10-02T13:50:41Z</time>
      </trkpt>
      <trkpt lat="47.47381" lon="8.30772">
        <ele>386.7</ele>
        <time>2022-10-02T13:50:42Z</time>
      </trkpt>
      <trkpt lat="47.47382" lon="8.30773">
        <ele>386.7</ele>
        <time>2022-10-02T13:50:43Z</time>
      </trkpt>
      <trkpt lat="47.47383" lon="8.30775">
        <ele>386.8</ele>
        <time>2022-10-02T13:50:44Z</time>
      </trkpt>
      <trkpt lat="47.47385" lon="8.30776">
        <ele>386.8</ele>
        <time>2022-10-02T13:50:45Z</time>
      </trkpt>
      <trkpt lat="47.47388" lon="8.30777">
        <ele>386.8</ele>
        <time>2022-10-02T13:50:46Z</time>
      </trkpt>
      <trkpt lat="47.47389" lon="8.30778">
        <ele>386.8</ele>
        <time>2022-10-02T13:50:47Z</time>
      </trkpt>
      <trkpt lat="47.47392" lon="8.3078">
        <ele>386.9</ele>
        <time>2022-10-02T13:50:48Z</time>
      </trkpt>
      <trkpt lat="47.47395" lon="8.30782">
        <ele>386.9</ele>
        <time>2022-10-02T13:50:49Z</time>
      </trkpt>
      <trkpt lat="47.47398" lon="8.30783">
        <ele>386.9</ele>
        <time>2022-10-02T13:50:50Z</time>
      </trkpt>
      <trkpt lat="47.47401" lon="8.30784">
        <ele>386.9</ele>
        <time>2022-10-02T13:50:51Z</time>
      </trkpt>
      <trkpt lat="47.47405" lon="8.30787">
        <ele>387</ele>
        <time>2022-10-02T13:50:52Z</time>
      </trkpt>
      <trkpt lat="47.47407" lon="8.30787">
        <ele>387</ele>
        <time>2022-10-02T13:50:53Z</time>
      </trkpt>
      <trkpt lat="47.47411" lon="8.3079">
        <ele>387</ele>
        <time>2022-10-02T13:50:54Z</time>
      </trkpt>
      <trkpt lat="47.47412" lon="8.30791">
        <ele>387</ele>
        <time>2022-10-02T13:50:55Z</time>
      </trkpt>
      <trkpt lat="47.47415" lon="8.30794">
        <ele>387</ele>
        <time>2022-10-02T13:50:56Z</time>
      </trkpt>
      <trkpt lat="47.47419" lon="8.30796">
        <ele>387</ele>
        <time>2022-10-02T13:50:57Z</time>
      </trkpt>
      <trkpt lat="47.47422" lon="8.30796">
        <ele>387</ele>
        <time>2022-10-02T13:50:58Z</time>
      </trkpt>
      <trkpt lat="47.47425" lon="8.30798">
        <ele>387</ele>
        <time>2022-10-02T13:50:59Z</time>
      </trkpt>
      <trkpt lat="47.47428" lon="8.308">
        <ele>387</ele>
        <time>2022-10-02T13:51:00Z</time>
      </trkpt>
      <trkpt lat="47.47431" lon="8.30802">
        <ele>387</ele>
        <time>2022-10-02T13:51:01Z</time>
      </trkpt>
      <trkpt lat="47.47434" lon="8.30805">
        <ele>386.9</ele>
        <time>2022-10-02T13:51:02Z</time>
      </trkpt>
      <trkpt lat="47.47436" lon="8.30805">
        <ele>386.9</ele>
        <time>2022-10-02T13:51:03Z</time>
      </trkpt>
      <trkpt lat="47.47438" lon="8.30806">
        <ele>386.9</ele>
        <time>2022-10-02T13:51:04Z</time>
      </trkpt>
      <trkpt lat="47.47441" lon="8.30808">
        <ele>386.9</ele>
        <time>2022-10-02T13:51:05Z</time>
      </trkpt>
      <trkpt lat="47.47442" lon="8.3081">
        <ele>386.9</ele>
        <time>2022-10-02T13:51:06Z</time>
      </trkpt>
      <trkpt lat="47.47443" lon="8.3081">
        <ele>386.9</ele>
        <time>2022-10-02T13:51:07Z</time>
      </trkpt>
      <trkpt lat="47.47447" lon="8.30812">
        <ele>386.9</ele>
        <time>2022-10-02T13:51:08Z</time>
      </trkpt>
      <trkpt lat="47.47448" lon="8.30811">
        <ele>386.9</ele>
        <time>2022-10-02T13:51:09Z</time>
      </trkpt>
      <trkpt lat="47.47451" lon="8.30814">
        <ele>386.9</ele>
        <time>2022-10-02T13:51:10Z</time>
      </trkpt>
      <trkpt lat="47.47453" lon="8.30815">
        <ele>386.9</ele>
        <time>2022-10-02T13:51:11Z</time>
      </trkpt>
      <trkpt lat="47.47456" lon="8.30817">
        <ele>386.9</ele>
        <time>2022-10-02T13:51:12Z</time>
      </trkpt>
      <trkpt lat="47.47457" lon="8.30817">
        <ele>386.9</ele>
        <time>2022-10-02T13:51:13Z</time>
      </trkpt>
      <trkpt lat="47.4746" lon="8.30819">
        <ele>386.9</ele>
        <time>2022-10-02T13:51:14Z</time>
      </trkpt>
      <trkpt lat="47.47463" lon="8.3082">
        <ele>386.9</ele>
        <time>2022-10-02T13:51:15Z</time>
      </trkpt>
      <trkpt lat="47.47466" lon="8.30822">
        <ele>386.9</ele>
        <time>2022-10-02T13:51:16Z</time>
      </trkpt>
      <trkpt lat="47.47467" lon="8.30823">
        <ele>386.9</ele>
        <time>2022-10-02T13:51:17Z</time>
      </trkpt>
      <trkpt lat="47.47471" lon="8.30824">
        <ele>386.9</ele>
        <time>2022-10-02T13:51:18Z</time>
      </trkpt>
      <trkpt lat="47.47475" lon="8.30826">
        <ele>386.8</ele>
        <time>2022-10-02T13:51:19Z</time>
      </trkpt>
      <trkpt lat="47.47476" lon="8.30826">
        <ele>386.8</ele>
        <time>2022-10-02T13:51:20Z</time>
      </trkpt>
      <trkpt lat="47.47479" lon="8.30828">
        <ele>386.8</ele>
        <time>2022-10-02T13:51:21Z</time>
      </trkpt>
      <trkpt lat="47.47482" lon="8.30828">
        <ele>386.8</ele>
        <time>2022-10-02T13:51:22Z</time>
      </trkpt>
      <trkpt lat="47.47485" lon="8.30831">
        <ele>386.7</ele>
        <time>2022-10-02T13:51:23Z</time>
      </trkpt>
      <trkpt lat="47.47487" lon="8.30832">
        <ele>386.7</ele>
        <time>2022-10-02T13:51:24Z</time>
      </trkpt>
      <trkpt lat="47.4749" lon="8.30833">
        <ele>386.7</ele>
        <time>2022-10-02T13:51:25Z</time>
      </trkpt>
      <trkpt lat="47.47494" lon="8.30835">
        <ele>386.7</ele>
        <time>2022-10-02T13:51:26Z</time>
      </trkpt>
      <trkpt lat="47.47496" lon="8.30837">
        <ele>386.7</ele>
        <time>2022-10-02T13:51:27Z</time>
      </trkpt>
      <trkpt lat="47.47498" lon="8.30839">
        <ele>386.7</ele>
        <time>2022-10-02T13:51:28Z</time>
      </trkpt>
      <trkpt lat="47.47501" lon="8.3084">
        <ele>386.7</ele>
        <time>2022-10-02T13:51:29Z</time>
      </trkpt>
      <trkpt lat="47.47504" lon="8.30841">
        <ele>386.6</ele>
        <time>2022-10-02T13:51:30Z</time>
      </trkpt>
      <trkpt lat="47.47506" lon="8.30841">
        <ele>386.6</ele>
        <time>2022-10-02T13:51:31Z</time>
      </trkpt>
      <trkpt lat="47.47509" lon="8.30841">
        <ele>386.6</ele>
        <time>2022-10-02T13:51:32Z</time>
      </trkpt>
      <trkpt lat="47.47511" lon="8.30842">
        <ele>386.6</ele>
        <time>2022-10-02T13:51:33Z</time>
      </trkpt>
      <trkpt lat="47.47514" lon="8.30845">
        <ele>386.5</ele>
        <time>2022-10-02T13:51:34Z</time>
      </trkpt>
      <trkpt lat="47.47515" lon="8.30846">
        <ele>386.5</ele>
        <time>2022-10-02T13:51:35Z</time>
      </trkpt>
      <trkpt lat="47.47522" lon="8.3085">
        <ele>386.4</ele>
        <time>2022-10-02T13:51:36Z</time>
      </trkpt>
      <trkpt lat="47.47525" lon="8.30851">
        <ele>386.4</ele>
        <time>2022-10-02T13:51:37Z</time>
      </trkpt>
      <trkpt lat="47.47529" lon="8.30853">
        <ele>386.3</ele>
        <time>2022-10-02T13:51:38Z</time>
      </trkpt>
      <trkpt lat="47.47533" lon="8.30854">
        <ele>386.3</ele>
        <time>2022-10-02T13:51:39Z</time>
      </trkpt>
      <trkpt lat="47.47536" lon="8.30857">
        <ele>386.2</ele>
        <time>2022-10-02T13:51:40Z</time>
      </trkpt>
      <trkpt lat="47.47541" lon="8.3086">
        <ele>386.1</ele>
        <time>2022-10-02T13:51:41Z</time>
      </trkpt>
      <trkpt lat="47.47544" lon="8.30862">
        <ele>386.1</ele>
        <time>2022-10-02T13:51:42Z</time>
      </trkpt>
      <trkpt lat="47.47549" lon="8.30866">
        <ele>386</ele>
        <time>2022-10-02T13:51:43Z</time>
      </trkpt>
      <trkpt lat="47.47554" lon="8.30869">
        <ele>385.9</ele>
        <time>2022-10-02T13:51:44Z</time>
      </trkpt>
      <trkpt lat="47.47558" lon="8.30871">
        <ele>385.9</ele>
        <time>2022-10-02T13:51:45Z</time>
      </trkpt>
      <trkpt lat="47.47563" lon="8.30874">
        <ele>385.8</ele>
        <time>2022-10-02T13:51:46Z</time>
      </trkpt>
      <trkpt lat="47.47566" lon="8.30876">
        <ele>385.8</ele>
        <time>2022-10-02T13:51:47Z</time>
      </trkpt>
      <trkpt lat="47.47569" lon="8.30878">
        <ele>385.7</ele>
        <time>2022-10-02T13:51:48Z</time>
      </trkpt>
      <trkpt lat="47.47572" lon="8.30882">
        <ele>385.7</ele>
        <time>2022-10-02T13:51:49Z</time>
      </trkpt>
      <trkpt lat="47.47576" lon="8.30885">
        <ele>385.6</ele>
        <time>2022-10-02T13:51:50Z</time>
      </trkpt>
      <trkpt lat="47.47579" lon="8.30887">
        <ele>385.6</ele>
        <time>2022-10-02T13:51:51Z</time>
      </trkpt>
      <trkpt lat="47.4758" lon="8.30891">
        <ele>385.5</ele>
        <time>2022-10-02T13:51:52Z</time>
      </trkpt>
      <trkpt lat="47.47581" lon="8.30892">
        <ele>385.5</ele>
        <time>2022-10-02T13:51:53Z</time>
      </trkpt>
      <trkpt lat="47.47582" lon="8.30895">
        <ele>385.5</ele>
        <time>2022-10-02T13:51:54Z</time>
      </trkpt>
      <trkpt lat="47.47582" lon="8.30897">
        <ele>385.4</ele>
        <time>2022-10-02T13:51:55Z</time>
      </trkpt>
      <trkpt lat="47.47584" lon="8.309">
        <ele>385.4</ele>
        <time>2022-10-02T13:51:56Z</time>
      </trkpt>
      <trkpt lat="47.47585" lon="8.30902">
        <ele>385.4</ele>
        <time>2022-10-02T13:51:57Z</time>
      </trkpt>
      <trkpt lat="47.47587" lon="8.30903">
        <ele>385.3</ele>
        <time>2022-10-02T13:51:58Z</time>
      </trkpt>
      <trkpt lat="47.47589" lon="8.30907">
        <ele>385.3</ele>
        <time>2022-10-02T13:51:59Z</time>
      </trkpt>
      <trkpt lat="47.47589" lon="8.30908">
        <ele>385.3</ele>
        <time>2022-10-02T13:52:00Z</time>
      </trkpt>
      <trkpt lat="47.47592" lon="8.3091">
        <ele>385.2</ele>
        <time>2022-10-02T13:52:01Z</time>
      </trkpt>
      <trkpt lat="47.47593" lon="8.3091">
        <ele>385.2</ele>
        <time>2022-10-02T13:52:02Z</time>
      </trkpt>
      <trkpt lat="47.47596" lon="8.30912">
        <ele>385.1</ele>
        <time>2022-10-02T13:52:03Z</time>
      </trkpt>
      <trkpt lat="47.47597" lon="8.30912">
        <ele>385.1</ele>
        <time>2022-10-02T13:52:04Z</time>
      </trkpt>
      <trkpt lat="47.47601" lon="8.30915">
        <ele>385</ele>
        <time>2022-10-02T13:52:05Z</time>
      </trkpt>
      <trkpt lat="47.47602" lon="8.30915">
        <ele>385</ele>
        <time>2022-10-02T13:52:06Z</time>
      </trkpt>
      <trkpt lat="47.47606" lon="8.30915">
        <ele>384.9</ele>
        <time>2022-10-02T13:52:07Z</time>
      </trkpt>
      <trkpt lat="47.47607" lon="8.30915">
        <ele>384.9</ele>
        <time>2022-10-02T13:52:08Z</time>
      </trkpt>
      <trkpt lat="47.47611" lon="8.30917">
        <ele>384.8</ele>
        <time>2022-10-02T13:52:09Z</time>
      </trkpt>
      <trkpt lat="47.47613" lon="8.30917">
        <ele>384.7</ele>
        <time>2022-10-02T13:52:10Z</time>
      </trkpt>
      <trkpt lat="47.47615" lon="8.30918">
        <ele>384.7</ele>
        <time>2022-10-02T13:52:11Z</time>
      </trkpt>
      <trkpt lat="47.47619" lon="8.30919">
        <ele>384.6</ele>
        <time>2022-10-02T13:52:12Z</time>
      </trkpt>
      <trkpt lat="47.47622" lon="8.30921">
        <ele>384.6</ele>
        <time>2022-10-02T13:52:13Z</time>
      </trkpt>
      <trkpt lat="47.47626" lon="8.30921">
        <ele>384.5</ele>
        <time>2022-10-02T13:52:14Z</time>
      </trkpt>
      <trkpt lat="47.47627" lon="8.30921">
        <ele>384.5</ele>
        <time>2022-10-02T13:52:15Z</time>
      </trkpt>
      <trkpt lat="47.4763" lon="8.30923">
        <ele>384.5</ele>
        <time>2022-10-02T13:52:16Z</time>
      </trkpt>
      <trkpt lat="47.47631" lon="8.30923">
        <ele>384.4</ele>
        <time>2022-10-02T13:52:17Z</time>
      </trkpt>
      <trkpt lat="47.47634" lon="8.30927">
        <ele>384.4</ele>
        <time>2022-10-02T13:52:18Z</time>
      </trkpt>
      <trkpt lat="47.47635" lon="8.30929">
        <ele>384.4</ele>
        <time>2022-10-02T13:52:19Z</time>
      </trkpt>
      <trkpt lat="47.47637" lon="8.30932">
        <ele>384.3</ele>
        <time>2022-10-02T13:52:20Z</time>
      </trkpt>
      <trkpt lat="47.4764" lon="8.30934">
        <ele>384.3</ele>
        <time>2022-10-02T13:52:21Z</time>
      </trkpt>
      <trkpt lat="47.47643" lon="8.30935">
        <ele>384.2</ele>
        <time>2022-10-02T13:52:22Z</time>
      </trkpt>
      <trkpt lat="47.47643" lon="8.30936">
        <ele>384.2</ele>
        <time>2022-10-02T13:52:23Z</time>
      </trkpt>
      <trkpt lat="47.47647" lon="8.30937">
        <ele>384.2</ele>
        <time>2022-10-02T13:52:24Z</time>
      </trkpt>
      <trkpt lat="47.47648" lon="8.30938">
        <ele>384.2</ele>
        <time>2022-10-02T13:52:25Z</time>
      </trkpt>
      <trkpt lat="47.4765" lon="8.30942">
        <ele>384.1</ele>
        <time>2022-10-02T13:52:26Z</time>
      </trkpt>
      <trkpt lat="47.47651" lon="8.30943">
        <ele>384.1</ele>
        <time>2022-10-02T13:52:27Z</time>
      </trkpt>
      <trkpt lat="47.47654" lon="8.30946">
        <ele>384</ele>
        <time>2022-10-02T13:52:28Z</time>
      </trkpt>
      <trkpt lat="47.47655" lon="8.30947">
        <ele>384</ele>
        <time>2022-10-02T13:52:29Z</time>
      </trkpt>
      <trkpt lat="47.47658" lon="8.3095">
        <ele>384</ele>
        <time>2022-10-02T13:52:30Z</time>
      </trkpt>
      <trkpt lat="47.47659" lon="8.3095">
        <ele>383.9</ele>
        <time>2022-10-02T13:52:31Z</time>
      </trkpt>
      <trkpt lat="47.47661" lon="8.30948">
        <ele>384</ele>
        <time>2022-10-02T13:52:32Z</time>
      </trkpt>
      <trkpt lat="47.47661" lon="8.30946">
        <ele>384</ele>
        <time>2022-10-02T13:52:33Z</time>
      </trkpt>
      <trkpt lat="47.47661" lon="8.30942">
        <ele>384</ele>
        <time>2022-10-02T13:52:34Z</time>
      </trkpt>
      <trkpt lat="47.47659" lon="8.3094">
        <ele>384</ele>
        <time>2022-10-02T13:52:35Z</time>
      </trkpt>
      <trkpt lat="47.47657" lon="8.30937">
        <ele>384.1</ele>
        <time>2022-10-02T13:52:36Z</time>
      </trkpt>
      <trkpt lat="47.47654" lon="8.30936">
        <ele>384.1</ele>
        <time>2022-10-02T13:52:37Z</time>
      </trkpt>
      <trkpt lat="47.47652" lon="8.30934">
        <ele>384.1</ele>
        <time>2022-10-02T13:52:38Z</time>
      </trkpt>
      <trkpt lat="47.47651" lon="8.30934">
        <ele>384.2</ele>
        <time>2022-10-02T13:52:39Z</time>
      </trkpt>
      <trkpt lat="47.47648" lon="8.30931">
        <ele>384.2</ele>
        <time>2022-10-02T13:52:40Z</time>
      </trkpt>
      <trkpt lat="47.47645" lon="8.3093">
        <ele>384.2</ele>
        <time>2022-10-02T13:52:41Z</time>
      </trkpt>
      <trkpt lat="47.47644" lon="8.30929">
        <ele>384.3</ele>
        <time>2022-10-02T13:52:42Z</time>
      </trkpt>
      <trkpt lat="47.4764" lon="8.30927">
        <ele>384.3</ele>
        <time>2022-10-02T13:52:43Z</time>
      </trkpt>
      <trkpt lat="47.47639" lon="8.30926">
        <ele>384.3</ele>
        <time>2022-10-02T13:52:44Z</time>
      </trkpt>
      <trkpt lat="47.47636" lon="8.30924">
        <ele>384.4</ele>
        <time>2022-10-02T13:52:45Z</time>
      </trkpt>
      <trkpt lat="47.47634" lon="8.30922">
        <ele>384.4</ele>
        <time>2022-10-02T13:52:46Z</time>
      </trkpt>
      <trkpt lat="47.47633" lon="8.30921">
        <ele>384.4</ele>
        <time>2022-10-02T13:52:47Z</time>
      </trkpt>
      <trkpt lat="47.47632" lon="8.30921">
        <ele>384.4</ele>
        <time>2022-10-02T13:52:48Z</time>
      </trkpt>
      <trkpt lat="47.47631" lon="8.30919">
        <ele>384.5</ele>
        <time>2022-10-02T13:52:49Z</time>
      </trkpt>
      <trkpt lat="47.47628" lon="8.30917">
        <ele>384.5</ele>
        <time>2022-10-02T13:52:50Z</time>
      </trkpt>
      <trkpt lat="47.47627" lon="8.30916">
        <ele>384.5</ele>
        <time>2022-10-02T13:52:51Z</time>
      </trkpt>
      <trkpt lat="47.47624" lon="8.30914">
        <ele>384.5</ele>
        <time>2022-10-02T13:52:52Z</time>
      </trkpt>
      <trkpt lat="47.47624" lon="8.30914">
        <ele>384.6</ele>
        <time>2022-10-02T13:52:53Z</time>
      </trkpt>
      <trkpt lat="47.4762" lon="8.30913">
        <ele>384.6</ele>
        <time>2022-10-02T13:52:54Z</time>
      </trkpt>
      <trkpt lat="47.47618" lon="8.30912">
        <ele>384.7</ele>
        <time>2022-10-02T13:52:55Z</time>
      </trkpt>
      <trkpt lat="47.47614" lon="8.30911">
        <ele>384.8</ele>
        <time>2022-10-02T13:52:56Z</time>
      </trkpt>
      <trkpt lat="47.47613" lon="8.30911">
        <ele>384.8</ele>
        <time>2022-10-02T13:52:57Z</time>
      </trkpt>
      <trkpt lat="47.47609" lon="8.30911">
        <ele>384.9</ele>
        <time>2022-10-02T13:52:58Z</time>
      </trkpt>
      <trkpt lat="47.47608" lon="8.3091">
        <ele>384.9</ele>
        <time>2022-10-02T13:52:59Z</time>
      </trkpt>
      <trkpt lat="47.47605" lon="8.30909">
        <ele>385</ele>
        <time>2022-10-02T13:53:00Z</time>
      </trkpt>
      <trkpt lat="47.47604" lon="8.30908">
        <ele>385</ele>
        <time>2022-10-02T13:53:01Z</time>
      </trkpt>
      <trkpt lat="47.47601" lon="8.30905">
        <ele>385.1</ele>
        <time>2022-10-02T13:53:02Z</time>
      </trkpt>
      <trkpt lat="47.476" lon="8.30905">
        <ele>385.1</ele>
        <time>2022-10-02T13:53:03Z</time>
      </trkpt>
      <trkpt lat="47.47597" lon="8.30902">
        <ele>385.2</ele>
        <time>2022-10-02T13:53:04Z</time>
      </trkpt>
      <trkpt lat="47.47596" lon="8.30901">
        <ele>385.2</ele>
        <time>2022-10-02T13:53:05Z</time>
      </trkpt>
      <trkpt lat="47.47593" lon="8.30899">
        <ele>385.3</ele>
        <time>2022-10-02T13:53:06Z</time>
      </trkpt>
      <trkpt lat="47.47592" lon="8.30899">
        <ele>385.3</ele>
        <time>2022-10-02T13:53:07Z</time>
      </trkpt>
      <trkpt lat="47.47588" lon="8.30897">
        <ele>385.4</ele>
        <time>2022-10-02T13:53:08Z</time>
      </trkpt>
      <trkpt lat="47.47586" lon="8.30896">
        <ele>385.4</ele>
        <time>2022-10-02T13:53:09Z</time>
      </trkpt>
      <trkpt lat="47.47584" lon="8.30893">
        <ele>385.5</ele>
        <time>2022-10-02T13:53:10Z</time>
      </trkpt>
      <trkpt lat="47.47583" lon="8.30892">
        <ele>385.5</ele>
        <time>2022-10-02T13:53:11Z</time>
      </trkpt>
      <trkpt lat="47.47579" lon="8.3089">
        <ele>385.5</ele>
        <time>2022-10-02T13:53:12Z</time>
      </trkpt>
      <trkpt lat="47.47578" lon="8.30889">
        <ele>385.6</ele>
        <time>2022-10-02T13:53:13Z</time>
      </trkpt>
      <trkpt lat="47.47576" lon="8.30888">
        <ele>385.6</ele>
        <time>2022-10-02T13:53:14Z</time>
      </trkpt>
      <trkpt lat="47.47574" lon="8.30888">
        <ele>385.6</ele>
        <time>2022-10-02T13:53:15Z</time>
      </trkpt>
      <trkpt lat="47.47572" lon="8.30888">
        <ele>385.6</ele>
        <time>2022-10-02T13:53:16Z</time>
      </trkpt>
      <trkpt lat="47.47571" lon="8.30889">
        <ele>385.7</ele>
        <time>2022-10-02T13:53:17Z</time>
      </trkpt>
      <trkpt lat="47.4757" lon="8.30889">
        <ele>385.7</ele>
        <time>2022-10-02T13:53:18Z</time>
      </trkpt>
      <trkpt lat="47.47569" lon="8.30887">
        <ele>385.7</ele>
        <time>2022-10-02T13:53:19Z</time>
      </trkpt>
      <trkpt lat="47.47568" lon="8.30887">
        <ele>385.7</ele>
        <time>2022-10-02T13:53:20Z</time>
      </trkpt>
      <trkpt lat="47.47567" lon="8.30886">
        <ele>385.7</ele>
        <time>2022-10-02T13:53:21Z</time>
      </trkpt>
      <trkpt lat="47.47566" lon="8.30885">
        <ele>385.7</ele>
        <time>2022-10-02T13:53:22Z</time>
      </trkpt>
      <trkpt lat="47.47563" lon="8.30886">
        <ele>385.8</ele>
        <time>2022-10-02T13:53:23Z</time>
      </trkpt>
      <trkpt lat="47.47561" lon="8.30886">
        <ele>385.8</ele>
        <time>2022-10-02T13:53:24Z</time>
      </trkpt>
      <trkpt lat="47.47558" lon="8.30885">
        <ele>385.8</ele>
        <time>2022-10-02T13:53:25Z</time>
      </trkpt>
      <trkpt lat="47.47556" lon="8.30885">
        <ele>385.9</ele>
        <time>2022-10-02T13:53:26Z</time>
      </trkpt>
      <trkpt lat="47.47554" lon="8.30884">
        <ele>385.9</ele>
        <time>2022-10-02T13:53:27Z</time>
      </trkpt>
      <trkpt lat="47.47553" lon="8.30884">
        <ele>385.9</ele>
        <time>2022-10-02T13:53:28Z</time>
      </trkpt>
      <trkpt lat="47.4755" lon="8.30882">
        <ele>385.9</ele>
        <time>2022-10-02T13:53:29Z</time>
      </trkpt>
      <trkpt lat="47.47546" lon="8.30881">
        <ele>386</ele>
        <time>2022-10-02T13:53:30Z</time>
      </trkpt>
      <trkpt lat="47.47544" lon="8.3088">
        <ele>386</ele>
        <time>2022-10-02T13:53:31Z</time>
      </trkpt>
      <trkpt lat="47.47539" lon="8.30879">
        <ele>386.1</ele>
        <time>2022-10-02T13:53:32Z</time>
      </trkpt>
      <trkpt lat="47.47536" lon="8.30877">
        <ele>386.1</ele>
        <time>2022-10-02T13:53:34Z</time>
      </trkpt>
      <trkpt lat="47.47533" lon="8.30876">
        <ele>386.2</ele>
        <time>2022-10-02T13:53:35Z</time>
      </trkpt>
      <trkpt lat="47.47531" lon="8.30874">
        <ele>386.2</ele>
        <time>2022-10-02T13:53:36Z</time>
      </trkpt>
      <trkpt lat="47.47526" lon="8.30871">
        <ele>386.3</ele>
        <time>2022-10-02T13:53:37Z</time>
      </trkpt>
      <trkpt lat="47.47523" lon="8.30868">
        <ele>386.3</ele>
        <time>2022-10-02T13:53:38Z</time>
      </trkpt>
      <trkpt lat="47.47522" lon="8.30867">
        <ele>386.4</ele>
        <time>2022-10-02T13:53:39Z</time>
      </trkpt>
      <trkpt lat="47.47519" lon="8.30866">
        <ele>386.4</ele>
        <time>2022-10-02T13:53:40Z</time>
      </trkpt>
      <trkpt lat="47.47516" lon="8.30861">
        <ele>386.5</ele>
        <time>2022-10-02T13:53:41Z</time>
      </trkpt>
      <trkpt lat="47.47512" lon="8.30858">
        <ele>386.5</ele>
        <time>2022-10-02T13:53:42Z</time>
      </trkpt>
      <trkpt lat="47.47508" lon="8.30856">
        <ele>386.6</ele>
        <time>2022-10-02T13:53:43Z</time>
      </trkpt>
      <trkpt lat="47.47504" lon="8.30854">
        <ele>386.6</ele>
        <time>2022-10-02T13:53:44Z</time>
      </trkpt>
      <trkpt lat="47.475" lon="8.30853">
        <ele>386.6</ele>
        <time>2022-10-02T13:53:45Z</time>
      </trkpt>
      <trkpt lat="47.47497" lon="8.30849">
        <ele>386.7</ele>
        <time>2022-10-02T13:53:46Z</time>
      </trkpt>
      <trkpt lat="47.47494" lon="8.30847">
        <ele>386.7</ele>
        <time>2022-10-02T13:53:47Z</time>
      </trkpt>
      <trkpt lat="47.47491" lon="8.30845">
        <ele>386.7</ele>
        <time>2022-10-02T13:53:48Z</time>
      </trkpt>
      <trkpt lat="47.47488" lon="8.30841">
        <ele>386.7</ele>
        <time>2022-10-02T13:53:49Z</time>
      </trkpt>
      <trkpt lat="47.47486" lon="8.30837">
        <ele>386.7</ele>
        <time>2022-10-02T13:53:50Z</time>
      </trkpt>
      <trkpt lat="47.47483" lon="8.30834">
        <ele>386.8</ele>
        <time>2022-10-02T13:53:51Z</time>
      </trkpt>
      <trkpt lat="47.4748" lon="8.30833">
        <ele>386.8</ele>
        <time>2022-10-02T13:53:52Z</time>
      </trkpt>
      <trkpt lat="47.47477" lon="8.30832">
        <ele>386.8</ele>
        <time>2022-10-02T13:53:53Z</time>
      </trkpt>
      <trkpt lat="47.47475" lon="8.30829">
        <ele>386.8</ele>
        <time>2022-10-02T13:53:54Z</time>
      </trkpt>
      <trkpt lat="47.47474" lon="8.30827">
        <ele>386.8</ele>
        <time>2022-10-02T13:53:55Z</time>
      </trkpt>
      <trkpt lat="47.47471" lon="8.30825">
        <ele>386.8</ele>
        <time>2022-10-02T13:53:56Z</time>
      </trkpt>
      <trkpt lat="47.4747" lon="8.30822">
        <ele>386.9</ele>
        <time>2022-10-02T13:53:57Z</time>
      </trkpt>
      <trkpt lat="47.47468" lon="8.30818">
        <ele>386.9</ele>
        <time>2022-10-02T13:53:58Z</time>
      </trkpt>
      <trkpt lat="47.47466" lon="8.30816">
        <ele>386.9</ele>
        <time>2022-10-02T13:53:59Z</time>
      </trkpt>
      <trkpt lat="47.47463" lon="8.30815">
        <ele>386.9</ele>
        <time>2022-10-02T13:54:00Z</time>
      </trkpt>
      <trkpt lat="47.4746" lon="8.30813">
        <ele>386.9</ele>
        <time>2022-10-02T13:54:01Z</time>
      </trkpt>
      <trkpt lat="47.47459" lon="8.30813">
        <ele>386.9</ele>
        <time>2022-10-02T13:54:02Z</time>
      </trkpt>
      <trkpt lat="47.47454" lon="8.30814">
        <ele>386.9</ele>
        <time>2022-10-02T13:54:03Z</time>
      </trkpt>
      <trkpt lat="47.47452" lon="8.30814">
        <ele>386.9</ele>
        <time>2022-10-02T13:54:04Z</time>
      </trkpt>
      <trkpt lat="47.47449" lon="8.30813">
        <ele>386.9</ele>
        <time>2022-10-02T13:54:05Z</time>
      </trkpt>
      <trkpt lat="47.47445" lon="8.30812">
        <ele>386.9</ele>
        <time>2022-10-02T13:54:06Z</time>
      </trkpt>
      <trkpt lat="47.47442" lon="8.30808">
        <ele>386.9</ele>
        <time>2022-10-02T13:54:07Z</time>
      </trkpt>
      <trkpt lat="47.47439" lon="8.30804">
        <ele>386.9</ele>
        <time>2022-10-02T13:54:08Z</time>
      </trkpt>
      <trkpt lat="47.47435" lon="8.30802">
        <ele>387</ele>
        <time>2022-10-02T13:54:09Z</time>
      </trkpt>
      <trkpt lat="47.47431" lon="8.308">
        <ele>387</ele>
        <time>2022-10-02T13:54:10Z</time>
      </trkpt>
      <trkpt lat="47.47428" lon="8.30798">
        <ele>387</ele>
        <time>2022-10-02T13:54:11Z</time>
      </trkpt>
      <trkpt lat="47.47424" lon="8.30796">
        <ele>387</ele>
        <time>2022-10-02T13:54:12Z</time>
      </trkpt>
      <trkpt lat="47.47422" lon="8.30794">
        <ele>387</ele>
        <time>2022-10-02T13:54:13Z</time>
      </trkpt>
      <trkpt lat="47.47419" lon="8.30794">
        <ele>387</ele>
        <time>2022-10-02T13:54:14Z</time>
      </trkpt>
      <trkpt lat="47.47414" lon="8.30794">
        <ele>387</ele>
        <time>2022-10-02T13:54:15Z</time>
      </trkpt>
      <trkpt lat="47.47412" lon="8.30792">
        <ele>387</ele>
        <time>2022-10-02T13:54:16Z</time>
      </trkpt>
      <trkpt lat="47.47408" lon="8.3079">
        <ele>387</ele>
        <time>2022-10-02T13:54:17Z</time>
      </trkpt>
      <trkpt lat="47.47406" lon="8.3079">
        <ele>387</ele>
        <time>2022-10-02T13:54:18Z</time>
      </trkpt>
      <trkpt lat="47.47402" lon="8.30789">
        <ele>386.9</ele>
        <time>2022-10-02T13:54:19Z</time>
      </trkpt>
      <trkpt lat="47.47399" lon="8.30789">
        <ele>386.9</ele>
        <time>2022-10-02T13:54:20Z</time>
      </trkpt>
      <trkpt lat="47.47396" lon="8.3079">
        <ele>386.9</ele>
        <time>2022-10-02T13:54:21Z</time>
      </trkpt>
      <trkpt lat="47.47392" lon="8.30788">
        <ele>386.9</ele>
        <time>2022-10-02T13:54:22Z</time>
      </trkpt>
      <trkpt lat="47.47387" lon="8.30787">
        <ele>386.8</ele>
        <time>2022-10-02T13:54:23Z</time>
      </trkpt>
      <trkpt lat="47.47384" lon="8.30787">
        <ele>386.8</ele>
        <time>2022-10-02T13:54:24Z</time>
      </trkpt>
      <trkpt lat="47.4738" lon="8.30786">
        <ele>386.7</ele>
        <time>2022-10-02T13:54:25Z</time>
      </trkpt>
      <trkpt lat="47.47376" lon="8.30785">
        <ele>386.7</ele>
        <time>2022-10-02T13:54:26Z</time>
      </trkpt>
      <trkpt lat="47.47372" lon="8.30783">
        <ele>386.6</ele>
        <time>2022-10-02T13:54:27Z</time>
      </trkpt>
      <trkpt lat="47.47368" lon="8.3078">
        <ele>386.6</ele>
        <time>2022-10-02T13:54:28Z</time>
      </trkpt>
      <trkpt lat="47.47365" lon="8.30778">
        <ele>386.5</ele>
        <time>2022-10-02T13:54:29Z</time>
      </trkpt>
      <trkpt lat="47.47363" lon="8.30776">
        <ele>386.3</ele>
        <time>2022-10-02T13:54:30Z</time>
      </trkpt>
      <trkpt lat="47.47359" lon="8.30775">
        <ele>386.1</ele>
        <time>2022-10-02T13:54:31Z</time>
      </trkpt>
      <trkpt lat="47.47358" lon="8.30774">
        <ele>386</ele>
        <time>2022-10-02T13:54:32Z</time>
      </trkpt>
      <trkpt lat="47.47354" lon="8.30774">
        <ele>385.7</ele>
        <time>2022-10-02T13:54:33Z</time>
      </trkpt>
      <trkpt lat="47.47352" lon="8.30775">
        <ele>385.7</ele>
        <time>2022-10-02T13:54:34Z</time>
      </trkpt>
      <trkpt lat="47.47349" lon="8.30776">
        <ele>385.6</ele>
        <time>2022-10-02T13:54:35Z</time>
      </trkpt>
      <trkpt lat="47.47346" lon="8.30777">
        <ele>385.6</ele>
        <time>2022-10-02T13:54:36Z</time>
      </trkpt>
      <trkpt lat="47.47343" lon="8.30779">
        <ele>385.6</ele>
        <time>2022-10-02T13:54:37Z</time>
      </trkpt>
      <trkpt lat="47.4734" lon="8.30781">
        <ele>385.5</ele>
        <time>2022-10-02T13:54:38Z</time>
      </trkpt>
      <trkpt lat="47.47338" lon="8.30782">
        <ele>385.5</ele>
        <time>2022-10-02T13:54:39Z</time>
      </trkpt>
      <trkpt lat="47.47337" lon="8.30781">
        <ele>385.5</ele>
        <time>2022-10-02T13:54:40Z</time>
      </trkpt>
      <trkpt lat="47.47335" lon="8.30781">
        <ele>385.5</ele>
        <time>2022-10-02T13:54:41Z</time>
      </trkpt>
      <trkpt lat="47.47334" lon="8.30781">
        <ele>385.5</ele>
        <time>2022-10-02T13:54:42Z</time>
      </trkpt>
      <trkpt lat="47.47333" lon="8.30782">
        <ele>385.5</ele>
        <time>2022-10-02T13:54:43Z</time>
      </trkpt>
      <trkpt lat="47.4733" lon="8.30783">
        <ele>385.4</ele>
        <time>2022-10-02T13:54:44Z</time>
      </trkpt>
      <trkpt lat="47.47329" lon="8.30784">
        <ele>385.4</ele>
        <time>2022-10-02T13:54:45Z</time>
      </trkpt>
      <trkpt lat="47.47326" lon="8.30785">
        <ele>385.3</ele>
        <time>2022-10-02T13:54:46Z</time>
      </trkpt>
      <trkpt lat="47.47324" lon="8.30786">
        <ele>385.3</ele>
        <time>2022-10-02T13:54:47Z</time>
      </trkpt>
      <trkpt lat="47.47321" lon="8.30787">
        <ele>385.2</ele>
        <time>2022-10-02T13:54:48Z</time>
      </trkpt>
      <trkpt lat="47.47318" lon="8.30789">
        <ele>385.2</ele>
        <time>2022-10-02T13:54:49Z</time>
      </trkpt>
      <trkpt lat="47.47314" lon="8.30792">
        <ele>385.1</ele>
        <time>2022-10-02T13:54:50Z</time>
      </trkpt>
      <trkpt lat="47.47313" lon="8.30794">
        <ele>385.1</ele>
        <time>2022-10-02T13:54:51Z</time>
      </trkpt>
      <trkpt lat="47.47312" lon="8.30797">
        <ele>385</ele>
        <time>2022-10-02T13:54:52Z</time>
      </trkpt>
      <trkpt lat="47.47312" lon="8.30799">
        <ele>385</ele>
        <time>2022-10-02T13:54:53Z</time>
      </trkpt>
      <trkpt lat="47.47312" lon="8.30802">
        <ele>385</ele>
        <time>2022-10-02T13:54:54Z</time>
      </trkpt>
      <trkpt lat="47.47312" lon="8.30803">
        <ele>385</ele>
        <time>2022-10-02T13:54:55Z</time>
      </trkpt>
      <trkpt lat="47.47312" lon="8.30805">
        <ele>384.4</ele>
        <time>2022-10-02T13:54:56Z</time>
      </trkpt>
      <trkpt lat="47.47311" lon="8.30806">
        <ele>384.4</ele>
        <time>2022-10-02T13:54:57Z</time>
      </trkpt>
      <trkpt lat="47.47311" lon="8.30807">
        <ele>384.4</ele>
        <time>2022-10-02T13:54:58Z</time>
      </trkpt>
      <trkpt lat="47.47311" lon="8.30807">
        <ele>384.4</ele>
        <time>2022-10-02T13:54:59Z</time>
      </trkpt>
      <trkpt lat="47.47311" lon="8.30808">
        <ele>384.4</ele>
        <time>2022-10-02T13:55:00Z</time>
      </trkpt>
      <trkpt lat="47.47311" lon="8.30812">
        <ele>384.2</ele>
        <time>2022-10-02T13:55:01Z</time>
      </trkpt>
      <trkpt lat="47.47311" lon="8.30815">
        <ele>384.2</ele>
        <time>2022-10-02T13:55:03Z</time>
      </trkpt>
      <trkpt lat="47.47312" lon="8.30817">
        <ele>384.1</ele>
        <time>2022-10-02T13:55:04Z</time>
      </trkpt>
      <trkpt lat="47.47312" lon="8.3082">
        <ele>384</ele>
        <time>2022-10-02T13:55:05Z</time>
      </trkpt>
      <trkpt lat="47.47313" lon="8.30825">
        <ele>383.9</ele>
        <time>2022-10-02T13:55:06Z</time>
      </trkpt>
      <trkpt lat="47.47314" lon="8.30829">
        <ele>383.7</ele>
        <time>2022-10-02T13:55:07Z</time>
      </trkpt>
      <trkpt lat="47.47314" lon="8.3083">
        <ele>383.7</ele>
        <time>2022-10-02T13:55:08Z</time>
      </trkpt>
      <trkpt lat="47.47314" lon="8.30836">
        <ele>383.6</ele>
        <time>2022-10-02T13:55:09Z</time>
      </trkpt>
      <trkpt lat="47.47316" lon="8.3084">
        <ele>383.4</ele>
        <time>2022-10-02T13:55:10Z</time>
      </trkpt>
      <trkpt lat="47.47317" lon="8.30842">
        <ele>383.4</ele>
        <time>2022-10-02T13:55:11Z</time>
      </trkpt>
      <trkpt lat="47.47319" lon="8.30845">
        <ele>383.3</ele>
        <time>2022-10-02T13:55:12Z</time>
      </trkpt>
      <trkpt lat="47.47321" lon="8.30849">
        <ele>383.2</ele>
        <time>2022-10-02T13:55:13Z</time>
      </trkpt>
      <trkpt lat="47.47321" lon="8.30853">
        <ele>383.1</ele>
        <time>2022-10-02T13:55:14Z</time>
      </trkpt>
      <trkpt lat="47.47324" lon="8.30856">
        <ele>383</ele>
        <time>2022-10-02T13:55:15Z</time>
      </trkpt>
      <trkpt lat="47.47325" lon="8.30863">
        <ele>382.9</ele>
        <time>2022-10-02T13:55:16Z</time>
      </trkpt>
      <trkpt lat="47.47327" lon="8.30867">
        <ele>382.8</ele>
        <time>2022-10-02T13:55:17Z</time>
      </trkpt>
      <trkpt lat="47.47329" lon="8.30872">
        <ele>382.7</ele>
        <time>2022-10-02T13:55:18Z</time>
      </trkpt>
      <trkpt lat="47.4733" lon="8.30877">
        <ele>382.6</ele>
        <time>2022-10-02T13:55:19Z</time>
      </trkpt>
      <trkpt lat="47.47332" lon="8.30879">
        <ele>382.5</ele>
        <time>2022-10-02T13:55:20Z</time>
      </trkpt>
      <trkpt lat="47.47333" lon="8.30881">
        <ele>382.5</ele>
        <time>2022-10-02T13:55:21Z</time>
      </trkpt>
      <trkpt lat="47.47335" lon="8.30884">
        <ele>382.4</ele>
        <time>2022-10-02T13:55:22Z</time>
      </trkpt>
      <trkpt lat="47.47337" lon="8.30889">
        <ele>382.3</ele>
        <time>2022-10-02T13:55:23Z</time>
      </trkpt>
      <trkpt lat="47.47338" lon="8.30889">
        <ele>382</ele>
        <time>2022-10-02T13:55:24Z</time>
      </trkpt>
      <trkpt lat="47.47336" lon="8.30893">
        <ele>382</ele>
        <time>2022-10-02T13:55:25Z</time>
      </trkpt>
      <trkpt lat="47.47336" lon="8.30898">
        <ele>381.9</ele>
        <time>2022-10-02T13:55:26Z</time>
      </trkpt>
      <trkpt lat="47.47333" lon="8.30904">
        <ele>381.8</ele>
        <time>2022-10-02T13:55:27Z</time>
      </trkpt>
      <trkpt lat="47.47334" lon="8.30909">
        <ele>381.7</ele>
        <time>2022-10-02T13:55:28Z</time>
      </trkpt>
      <trkpt lat="47.47335" lon="8.30916">
        <ele>381.5</ele>
        <time>2022-10-02T13:55:29Z</time>
      </trkpt>
      <trkpt lat="47.47335" lon="8.30919">
        <ele>381.5</ele>
        <time>2022-10-02T13:55:30Z</time>
      </trkpt>
      <trkpt lat="47.47335" lon="8.30921">
        <ele>381.4</ele>
        <time>2022-10-02T13:55:31Z</time>
      </trkpt>
      <trkpt lat="47.47335" lon="8.30922">
        <ele>381.4</ele>
        <time>2022-10-02T13:55:32Z</time>
      </trkpt>
      <trkpt lat="47.47334" lon="8.30922">
        <ele>381.4</ele>
        <time>2022-10-02T13:55:33Z</time>
      </trkpt>
      <trkpt lat="47.47334" lon="8.30922">
        <ele>381.4</ele>
        <time>2022-10-02T13:55:34Z</time>
      </trkpt>
      <trkpt lat="47.47334" lon="8.30922">
        <ele>381.4</ele>
        <time>2022-10-02T13:55:35Z</time>
      </trkpt>
      <trkpt lat="47.47334" lon="8.30922">
        <ele>381.4</ele>
        <time>2022-10-02T13:55:36Z</time>
      </trkpt>
      <trkpt lat="47.47334" lon="8.30923">
        <ele>381.4</ele>
        <time>2022-10-02T13:55:37Z</time>
      </trkpt>
      <trkpt lat="47.47334" lon="8.30923">
        <ele>381.4</ele>
        <time>2022-10-02T13:55:38Z</time>
      </trkpt>
      <trkpt lat="47.47334" lon="8.30923">
        <ele>381.3</ele>
        <time>2022-10-02T13:55:39Z</time>
      </trkpt>
      <trkpt lat="47.47333" lon="8.30923">
        <ele>381.3</ele>
        <time>2022-10-02T13:55:40Z</time>
      </trkpt>
      <trkpt lat="47.47333" lon="8.30923">
        <ele>381.3</ele>
        <time>2022-10-02T13:55:41Z</time>
      </trkpt>
      <trkpt lat="47.47333" lon="8.30924">
        <ele>381.3</ele>
        <time>2022-10-02T13:57:05Z</time>
      </trkpt>
      <trkpt lat="47.47333" lon="8.30924">
        <ele>381.3</ele>
        <time>2022-10-02T13:57:06Z</time>
      </trkpt>
      <trkpt lat="47.47333" lon="8.30924">
        <ele>381.3</ele>
        <time>2022-10-02T13:57:07Z</time>
      </trkpt>
      <trkpt lat="47.47333" lon="8.30924">
        <ele>381.3</ele>
        <time>2022-10-02T13:57:08Z</time>
      </trkpt>
      <trkpt lat="47.47333" lon="8.30925">
        <ele>381.3</ele>
        <time>2022-10-02T13:57:09Z</time>
      </trkpt>
      <trkpt lat="47.47332" lon="8.30925">
        <ele>381.3</ele>
        <time>2022-10-02T13:57:10Z</time>
      </trkpt>
      <trkpt lat="47.47332" lon="8.30925">
        <ele>381.3</ele>
        <time>2022-10-02T13:57:11Z</time>
      </trkpt>
      <trkpt lat="47.47332" lon="8.30925">
        <ele>381.3</ele>
        <time>2022-10-02T13:57:12Z</time>
      </trkpt>
      <trkpt lat="47.47332" lon="8.30925">
        <ele>381.3</ele>
        <time>2022-10-02T13:57:13Z</time>
      </trkpt>
      <trkpt lat="47.47332" lon="8.30926">
        <ele>381.3</ele>
        <time>2022-10-02T13:57:14Z</time>
      </trkpt>
      <trkpt lat="47.47332" lon="8.30926">
        <ele>381.3</ele>
        <time>2022-10-02T13:57:15Z</time>
      </trkpt>
      <trkpt lat="47.47332" lon="8.30926">
        <ele>381.3</ele>
        <time>2022-10-02T13:57:16Z</time>
      </trkpt>
      <trkpt lat="47.47331" lon="8.30926">
        <ele>381.3</ele>
        <time>2022-10-02T13:57:17Z</time>
      </trkpt>
      <trkpt lat="47.4733" lon="8.30926">
        <ele>381.2</ele>
        <time>2022-10-02T13:57:18Z</time>
      </trkpt>
      <trkpt lat="47.47329" lon="8.30926">
        <ele>381.2</ele>
        <time>2022-10-02T13:57:19Z</time>
      </trkpt>
      <trkpt lat="47.47328" lon="8.30926">
        <ele>381.1</ele>
        <time>2022-10-02T13:57:20Z</time>
      </trkpt>
      <trkpt lat="47.47327" lon="8.30926">
        <ele>381.1</ele>
        <time>2022-10-02T13:57:45Z</time>
      </trkpt>
      <trkpt lat="47.47325" lon="8.30927">
        <ele>381</ele>
        <time>2022-10-02T13:57:46Z</time>
      </trkpt>
      <trkpt lat="47.47324" lon="8.30927">
        <ele>380.9</ele>
        <time>2022-10-02T13:57:47Z</time>
      </trkpt>
      <trkpt lat="47.4732" lon="8.30928">
        <ele>380.6</ele>
        <time>2022-10-02T13:57:48Z</time>
      </trkpt>
      <trkpt lat="47.47317" lon="8.30928">
        <ele>380.4</ele>
        <time>2022-10-02T13:57:49Z</time>
      </trkpt>
      <trkpt lat="47.47314" lon="8.30927">
        <ele>380.1</ele>
        <time>2022-10-02T13:57:50Z</time>
      </trkpt>
      <trkpt lat="47.47311" lon="8.30927">
        <ele>379.9</ele>
        <time>2022-10-02T13:57:51Z</time>
      </trkpt>
      <trkpt lat="47.47307" lon="8.30926">
        <ele>379.5</ele>
        <time>2022-10-02T13:57:52Z</time>
      </trkpt>
      <trkpt lat="47.47302" lon="8.30927">
        <ele>379.1</ele>
        <time>2022-10-02T13:57:53Z</time>
      </trkpt>
      <trkpt lat="47.473" lon="8.30928">
        <ele>378.8</ele>
        <time>2022-10-02T13:57:54Z</time>
      </trkpt>
      <trkpt lat="47.47295" lon="8.30928">
        <ele>378.3</ele>
        <time>2022-10-02T13:57:55Z</time>
      </trkpt>
      <trkpt lat="47.4729" lon="8.30927">
        <ele>377.6</ele>
        <time>2022-10-02T13:57:56Z</time>
      </trkpt>
      <trkpt lat="47.47285" lon="8.30928">
        <ele>377.1</ele>
        <time>2022-10-02T13:57:57Z</time>
      </trkpt>
      <trkpt lat="47.4728" lon="8.30929">
        <ele>376.5</ele>
        <time>2022-10-02T13:57:58Z</time>
      </trkpt>
      <trkpt lat="47.47277" lon="8.30932">
        <ele>375.9</ele>
        <time>2022-10-02T13:57:59Z</time>
      </trkpt>
      <trkpt lat="47.47272" lon="8.30933">
        <ele>375.4</ele>
        <time>2022-10-02T13:58:00Z</time>
      </trkpt>
      <trkpt lat="47.47269" lon="8.30934">
        <ele>374.9</ele>
        <time>2022-10-02T13:58:01Z</time>
      </trkpt>
      <trkpt lat="47.47265" lon="8.30935">
        <ele>374.4</ele>
        <time>2022-10-02T13:58:02Z</time>
      </trkpt>
      <trkpt lat="47.47261" lon="8.30936">
        <ele>373.9</ele>
        <time>2022-10-02T13:58:03Z</time>
      </trkpt>
      <trkpt lat="47.47257" lon="8.30938">
        <ele>373.3</ele>
        <time>2022-10-02T13:58:04Z</time>
      </trkpt>
      <trkpt lat="47.47255" lon="8.30934">
        <ele>372.9</ele>
        <time>2022-10-02T13:58:05Z</time>
      </trkpt>
      <trkpt lat="47.47248" lon="8.30931">
        <ele>372</ele>
        <time>2022-10-02T13:58:06Z</time>
      </trkpt>
      <trkpt lat="47.47243" lon="8.30928">
        <ele>371.3</ele>
        <time>2022-10-02T13:58:07Z</time>
      </trkpt>
      <trkpt lat="47.47238" lon="8.30927">
        <ele>370.5</ele>
        <time>2022-10-02T13:58:08Z</time>
      </trkpt>
      <trkpt lat="47.47232" lon="8.30929">
        <ele>369.6</ele>
        <time>2022-10-02T13:58:09Z</time>
      </trkpt>
      <trkpt lat="47.47225" lon="8.30933">
        <ele>368.8</ele>
        <time>2022-10-02T13:58:10Z</time>
      </trkpt>
      <trkpt lat="47.47221" lon="8.30929">
        <ele>368.7</ele>
        <time>2022-10-02T13:58:11Z</time>
      </trkpt>
      <trkpt lat="47.47218" lon="8.30928">
        <ele>368.6</ele>
        <time>2022-10-02T13:58:12Z</time>
      </trkpt>
      <trkpt lat="47.47217" lon="8.30927">
        <ele>368.6</ele>
        <time>2022-10-02T13:58:13Z</time>
      </trkpt>
      <trkpt lat="47.47216" lon="8.30931">
        <ele>368.5</ele>
        <time>2022-10-02T13:58:14Z</time>
      </trkpt>
      <trkpt lat="47.47218" lon="8.30937">
        <ele>368.1</ele>
        <time>2022-10-02T13:58:15Z</time>
      </trkpt>
      <trkpt lat="47.47219" lon="8.3094">
        <ele>367.9</ele>
        <time>2022-10-02T13:58:16Z</time>
      </trkpt>
      <trkpt lat="47.47222" lon="8.30943">
        <ele>367.5</ele>
        <time>2022-10-02T13:58:17Z</time>
      </trkpt>
      <trkpt lat="47.47223" lon="8.30948">
        <ele>367.2</ele>
        <time>2022-10-02T13:58:18Z</time>
      </trkpt>
      <trkpt lat="47.47224" lon="8.3095">
        <ele>367</ele>
        <time>2022-10-02T13:58:19Z</time>
      </trkpt>
      <trkpt lat="47.47226" lon="8.30955">
        <ele>366.7</ele>
        <time>2022-10-02T13:58:20Z</time>
      </trkpt>
      <trkpt lat="47.47228" lon="8.30959">
        <ele>366.3</ele>
        <time>2022-10-02T13:58:21Z</time>
      </trkpt>
      <trkpt lat="47.47231" lon="8.30963">
        <ele>366</ele>
        <time>2022-10-02T13:58:22Z</time>
      </trkpt>
      <trkpt lat="47.47234" lon="8.30966">
        <ele>365.6</ele>
        <time>2022-10-02T13:58:23Z</time>
      </trkpt>
      <trkpt lat="47.47237" lon="8.30969">
        <ele>365.3</ele>
        <time>2022-10-02T13:58:24Z</time>
      </trkpt>
      <trkpt lat="47.47239" lon="8.30974">
        <ele>364.9</ele>
        <time>2022-10-02T13:58:25Z</time>
      </trkpt>
      <trkpt lat="47.47241" lon="8.3098">
        <ele>364.5</ele>
        <time>2022-10-02T13:58:26Z</time>
      </trkpt>
      <trkpt lat="47.47243" lon="8.30986">
        <ele>364.2</ele>
        <time>2022-10-02T13:58:27Z</time>
      </trkpt>
      <trkpt lat="47.47246" lon="8.30993">
        <ele>363.9</ele>
        <time>2022-10-02T13:58:28Z</time>
      </trkpt>
      <trkpt lat="47.47249" lon="8.30998">
        <ele>363.6</ele>
        <time>2022-10-02T13:58:29Z</time>
      </trkpt>
      <trkpt lat="47.47251" lon="8.31003">
        <ele>363.4</ele>
        <time>2022-10-02T13:58:30Z</time>
      </trkpt>
      <trkpt lat="47.47252" lon="8.31008">
        <ele>363.4</ele>
        <time>2022-10-02T13:58:31Z</time>
      </trkpt>
      <trkpt lat="47.47254" lon="8.31016">
        <ele>363.3</ele>
        <time>2022-10-02T13:58:32Z</time>
      </trkpt>
      <trkpt lat="47.47257" lon="8.31021">
        <ele>363.2</ele>
        <time>2022-10-02T13:58:33Z</time>
      </trkpt>
      <trkpt lat="47.47258" lon="8.31027">
        <ele>363.3</ele>
        <time>2022-10-02T13:58:34Z</time>
      </trkpt>
      <trkpt lat="47.47261" lon="8.31031">
        <ele>363.3</ele>
        <time>2022-10-02T13:58:35Z</time>
      </trkpt>
      <trkpt lat="47.47262" lon="8.31035">
        <ele>363.3</ele>
        <time>2022-10-02T13:58:36Z</time>
      </trkpt>
      <trkpt lat="47.47264" lon="8.31039">
        <ele>363.4</ele>
        <time>2022-10-02T13:58:37Z</time>
      </trkpt>
      <trkpt lat="47.47264" lon="8.31041">
        <ele>363.4</ele>
        <time>2022-10-02T13:58:38Z</time>
      </trkpt>
      <trkpt lat="47.47261" lon="8.31043">
        <ele>363.4</ele>
        <time>2022-10-02T13:58:39Z</time>
      </trkpt>
      <trkpt lat="47.47261" lon="8.31045">
        <ele>363.5</ele>
        <time>2022-10-02T13:58:40Z</time>
      </trkpt>
      <trkpt lat="47.47262" lon="8.31046">
        <ele>363.5</ele>
        <time>2022-10-02T13:58:41Z</time>
      </trkpt>
      <trkpt lat="47.47263" lon="8.31047">
        <ele>363.5</ele>
        <time>2022-10-02T13:58:42Z</time>
      </trkpt>
      <trkpt lat="47.47264" lon="8.31051">
        <ele>363.5</ele>
        <time>2022-10-02T13:58:43Z</time>
      </trkpt>
      <trkpt lat="47.47265" lon="8.31053">
        <ele>363.6</ele>
        <time>2022-10-02T13:58:44Z</time>
      </trkpt>
      <trkpt lat="47.47266" lon="8.31055">
        <ele>363.6</ele>
        <time>2022-10-02T13:58:45Z</time>
      </trkpt>
      <trkpt lat="47.47266" lon="8.31056">
        <ele>363.6</ele>
        <time>2022-10-02T13:58:46Z</time>
      </trkpt>
      <trkpt lat="47.47267" lon="8.31057">
        <ele>363.6</ele>
        <time>2022-10-02T13:58:47Z</time>
      </trkpt>
      <trkpt lat="47.47268" lon="8.3106">
        <ele>363.6</ele>
        <time>2022-10-02T13:58:48Z</time>
      </trkpt>
      <trkpt lat="47.47269" lon="8.31062">
        <ele>363.7</ele>
        <time>2022-10-02T13:58:49Z</time>
      </trkpt>
      <trkpt lat="47.4727" lon="8.31063">
        <ele>363.7</ele>
        <time>2022-10-02T13:58:50Z</time>
      </trkpt>
      <trkpt lat="47.47271" lon="8.31066">
        <ele>363.7</ele>
        <time>2022-10-02T13:58:51Z</time>
      </trkpt>
      <trkpt lat="47.47272" lon="8.3107">
        <ele>363.7</ele>
        <time>2022-10-02T13:58:52Z</time>
      </trkpt>
      <trkpt lat="47.47271" lon="8.31072">
        <ele>363.7</ele>
        <time>2022-10-02T13:58:53Z</time>
      </trkpt>
      <trkpt lat="47.47272" lon="8.31074">
        <ele>363.7</ele>
        <time>2022-10-02T13:58:54Z</time>
      </trkpt>
      <trkpt lat="47.47272" lon="8.31076">
        <ele>363.8</ele>
        <time>2022-10-02T13:58:55Z</time>
      </trkpt>
      <trkpt lat="47.47272" lon="8.31083">
        <ele>363.8</ele>
        <time>2022-10-02T13:58:56Z</time>
      </trkpt>
      <trkpt lat="47.47274" lon="8.31089">
        <ele>363.8</ele>
        <time>2022-10-02T13:58:57Z</time>
      </trkpt>
      <trkpt lat="47.47276" lon="8.31093">
        <ele>363.9</ele>
        <time>2022-10-02T13:58:58Z</time>
      </trkpt>
      <trkpt lat="47.47276" lon="8.31104">
        <ele>364.1</ele>
        <time>2022-10-02T13:58:59Z</time>
      </trkpt>
      <trkpt lat="47.47276" lon="8.3111">
        <ele>364.3</ele>
        <time>2022-10-02T13:59:00Z</time>
      </trkpt>
      <trkpt lat="47.47275" lon="8.31116">
        <ele>364.5</ele>
        <time>2022-10-02T13:59:01Z</time>
      </trkpt>
      <trkpt lat="47.47273" lon="8.3112">
        <ele>364.7</ele>
        <time>2022-10-02T13:59:02Z</time>
      </trkpt>
      <trkpt lat="47.4727" lon="8.31124">
        <ele>364.8</ele>
        <time>2022-10-02T13:59:03Z</time>
      </trkpt>
      <trkpt lat="47.47268" lon="8.31127">
        <ele>364.9</ele>
        <time>2022-10-02T13:59:04Z</time>
      </trkpt>
      <trkpt lat="47.47265" lon="8.31131">
        <ele>364.8</ele>
        <time>2022-10-02T13:59:05Z</time>
      </trkpt>
      <trkpt lat="47.47263" lon="8.31135">
        <ele>364.8</ele>
        <time>2022-10-02T13:59:06Z</time>
      </trkpt>
      <trkpt lat="47.47263" lon="8.31137">
        <ele>364.8</ele>
        <time>2022-10-02T13:59:07Z</time>
      </trkpt>
      <trkpt lat="47.47262" lon="8.31139">
        <ele>364.8</ele>
        <time>2022-10-02T13:59:08Z</time>
      </trkpt>
      <trkpt lat="47.4726" lon="8.31143">
        <ele>364.8</ele>
        <time>2022-10-02T13:59:09Z</time>
      </trkpt>
      <trkpt lat="47.47259" lon="8.31146">
        <ele>364.8</ele>
        <time>2022-10-02T13:59:10Z</time>
      </trkpt>
      <trkpt lat="47.47258" lon="8.31148">
        <ele>364.7</ele>
        <time>2022-10-02T13:59:11Z</time>
      </trkpt>
      <trkpt lat="47.47255" lon="8.31148">
        <ele>364.7</ele>
        <time>2022-10-02T13:59:12Z</time>
      </trkpt>
      <trkpt lat="47.47253" lon="8.31148">
        <ele>364.6</ele>
        <time>2022-10-02T13:59:13Z</time>
      </trkpt>
      <trkpt lat="47.4725" lon="8.31148">
        <ele>364.4</ele>
        <time>2022-10-02T13:59:14Z</time>
      </trkpt>
      <trkpt lat="47.47247" lon="8.31145">
        <ele>364.2</ele>
        <time>2022-10-02T13:59:15Z</time>
      </trkpt>
      <trkpt lat="47.47243" lon="8.31142">
        <ele>364</ele>
        <time>2022-10-02T13:59:16Z</time>
      </trkpt>
      <trkpt lat="47.47238" lon="8.31141">
        <ele>363.7</ele>
        <time>2022-10-02T13:59:17Z</time>
      </trkpt>
      <trkpt lat="47.47233" lon="8.31139">
        <ele>363.5</ele>
        <time>2022-10-02T13:59:18Z</time>
      </trkpt>
      <trkpt lat="47.47227" lon="8.31139">
        <ele>363.3</ele>
        <time>2022-10-02T13:59:19Z</time>
      </trkpt>
      <trkpt lat="47.47222" lon="8.3114">
        <ele>363</ele>
        <time>2022-10-02T13:59:20Z</time>
      </trkpt>
      <trkpt lat="47.47216" lon="8.3114">
        <ele>362.8</ele>
        <time>2022-10-02T13:59:21Z</time>
      </trkpt>
      <trkpt lat="47.4721" lon="8.31142">
        <ele>362.6</ele>
        <time>2022-10-02T13:59:22Z</time>
      </trkpt>
      <trkpt lat="47.47206" lon="8.31145">
        <ele>362.4</ele>
        <time>2022-10-02T13:59:23Z</time>
      </trkpt>
      <trkpt lat="47.47202" lon="8.31145">
        <ele>362.2</ele>
        <time>2022-10-02T13:59:24Z</time>
      </trkpt>
      <trkpt lat="47.47197" lon="8.31145">
        <ele>362</ele>
        <time>2022-10-02T13:59:25Z</time>
      </trkpt>
      <trkpt lat="47.47196" lon="8.31146">
        <ele>362</ele>
        <time>2022-10-02T13:59:26Z</time>
      </trkpt>
      <trkpt lat="47.47193" lon="8.31146">
        <ele>361.9</ele>
        <time>2022-10-02T13:59:27Z</time>
      </trkpt>
      <trkpt lat="47.47193" lon="8.31145">
        <ele>361.9</ele>
        <time>2022-10-02T13:59:28Z</time>
      </trkpt>
      <trkpt lat="47.47191" lon="8.31144">
        <ele>361.8</ele>
        <time>2022-10-02T13:59:29Z</time>
      </trkpt>
      <trkpt lat="47.47188" lon="8.31144">
        <ele>361.7</ele>
        <time>2022-10-02T13:59:30Z</time>
      </trkpt>
      <trkpt lat="47.47184" lon="8.31144">
        <ele>361.6</ele>
        <time>2022-10-02T13:59:31Z</time>
      </trkpt>
      <trkpt lat="47.47182" lon="8.31148">
        <ele>361.5</ele>
        <time>2022-10-02T13:59:32Z</time>
      </trkpt>
      <trkpt lat="47.4718" lon="8.3115">
        <ele>361.4</ele>
        <time>2022-10-02T13:59:33Z</time>
      </trkpt>
      <trkpt lat="47.47177" lon="8.31152">
        <ele>361.3</ele>
        <time>2022-10-02T13:59:34Z</time>
      </trkpt>
      <trkpt lat="47.47171" lon="8.31155">
        <ele>361.2</ele>
        <time>2022-10-02T13:59:35Z</time>
      </trkpt>
      <trkpt lat="47.47163" lon="8.31152">
        <ele>361</ele>
        <time>2022-10-02T13:59:36Z</time>
      </trkpt>
      <trkpt lat="47.47156" lon="8.31152">
        <ele>360.9</ele>
        <time>2022-10-02T13:59:37Z</time>
      </trkpt>
      <trkpt lat="47.47148" lon="8.31154">
        <ele>360.7</ele>
        <time>2022-10-02T13:59:38Z</time>
      </trkpt>
      <trkpt lat="47.47141" lon="8.31153">
        <ele>360.7</ele>
        <time>2022-10-02T13:59:39Z</time>
      </trkpt>
      <trkpt lat="47.47134" lon="8.31153">
        <ele>360.6</ele>
        <time>2022-10-02T13:59:40Z</time>
      </trkpt>
      <trkpt lat="47.47128" lon="8.31153">
        <ele>360.6</ele>
        <time>2022-10-02T13:59:41Z</time>
      </trkpt>
      <trkpt lat="47.47122" lon="8.31152">
        <ele>360.6</ele>
        <time>2022-10-02T13:59:42Z</time>
      </trkpt>
      <trkpt lat="47.47116" lon="8.31151">
        <ele>360.5</ele>
        <time>2022-10-02T13:59:43Z</time>
      </trkpt>
      <trkpt lat="47.4711" lon="8.31152">
        <ele>360.5</ele>
        <time>2022-10-02T13:59:44Z</time>
      </trkpt>
      <trkpt lat="47.47103" lon="8.31154">
        <ele>360.4</ele>
        <time>2022-10-02T13:59:45Z</time>
      </trkpt>
      <trkpt lat="47.47097" lon="8.31154">
        <ele>360.3</ele>
        <time>2022-10-02T13:59:46Z</time>
      </trkpt>
      <trkpt lat="47.47093" lon="8.31154">
        <ele>360.3</ele>
        <time>2022-10-02T13:59:47Z</time>
      </trkpt>
      <trkpt lat="47.47089" lon="8.31154">
        <ele>360.3</ele>
        <time>2022-10-02T13:59:48Z</time>
      </trkpt>
      <trkpt lat="47.47085" lon="8.31154">
        <ele>360.2</ele>
        <time>2022-10-02T13:59:49Z</time>
      </trkpt>
      <trkpt lat="47.47081" lon="8.31155">
        <ele>360.2</ele>
        <time>2022-10-02T13:59:50Z</time>
      </trkpt>
      <trkpt lat="47.47076" lon="8.31154">
        <ele>360.1</ele>
        <time>2022-10-02T13:59:51Z</time>
      </trkpt>
      <trkpt lat="47.47072" lon="8.31153">
        <ele>360.1</ele>
        <time>2022-10-02T13:59:52Z</time>
      </trkpt>
      <trkpt lat="47.47069" lon="8.31153">
        <ele>360.1</ele>
        <time>2022-10-02T13:59:53Z</time>
      </trkpt>
      <trkpt lat="47.47065" lon="8.3115">
        <ele>360.1</ele>
        <time>2022-10-02T13:59:54Z</time>
      </trkpt>
      <trkpt lat="47.47062" lon="8.31151">
        <ele>360</ele>
        <time>2022-10-02T13:59:55Z</time>
      </trkpt>
      <trkpt lat="47.47059" lon="8.31151">
        <ele>360</ele>
        <time>2022-10-02T13:59:56Z</time>
      </trkpt>
      <trkpt lat="47.47055" lon="8.31152">
        <ele>360</ele>
        <time>2022-10-02T13:59:57Z</time>
      </trkpt>
      <trkpt lat="47.47051" lon="8.3115">
        <ele>360</ele>
        <time>2022-10-02T13:59:58Z</time>
      </trkpt>
      <trkpt lat="47.47047" lon="8.31147">
        <ele>359.9</ele>
        <time>2022-10-02T13:59:59Z</time>
      </trkpt>
      <trkpt lat="47.47043" lon="8.31144">
        <ele>359.9</ele>
        <time>2022-10-02T14:00:00Z</time>
      </trkpt>
      <trkpt lat="47.47039" lon="8.31142">
        <ele>359.8</ele>
        <time>2022-10-02T14:00:01Z</time>
      </trkpt>
      <trkpt lat="47.47034" lon="8.3114">
        <ele>359.8</ele>
        <time>2022-10-02T14:00:02Z</time>
      </trkpt>
      <trkpt lat="47.4703" lon="8.31137">
        <ele>359.8</ele>
        <time>2022-10-02T14:00:03Z</time>
      </trkpt>
      <trkpt lat="47.47026" lon="8.31134">
        <ele>359.7</ele>
        <time>2022-10-02T14:00:04Z</time>
      </trkpt>
      <trkpt lat="47.47024" lon="8.3113">
        <ele>359.7</ele>
        <time>2022-10-02T14:00:05Z</time>
      </trkpt>
      <trkpt lat="47.47023" lon="8.31124">
        <ele>359.7</ele>
        <time>2022-10-02T14:00:06Z</time>
      </trkpt>
      <trkpt lat="47.47021" lon="8.31118">
        <ele>359.9</ele>
        <time>2022-10-02T14:00:07Z</time>
      </trkpt>
      <trkpt lat="47.47019" lon="8.31114">
        <ele>359.9</ele>
        <time>2022-10-02T14:00:08Z</time>
      </trkpt>
      <trkpt lat="47.47017" lon="8.31111">
        <ele>359.9</ele>
        <time>2022-10-02T14:00:09Z</time>
      </trkpt>
      <trkpt lat="47.47014" lon="8.31109">
        <ele>360</ele>
        <time>2022-10-02T14:00:10Z</time>
      </trkpt>
      <trkpt lat="47.47011" lon="8.31107">
        <ele>360</ele>
        <time>2022-10-02T14:00:11Z</time>
      </trkpt>
      <trkpt lat="47.47007" lon="8.31105">
        <ele>360</ele>
        <time>2022-10-02T14:00:12Z</time>
      </trkpt>
      <trkpt lat="47.47004" lon="8.31103">
        <ele>360.1</ele>
        <time>2022-10-02T14:00:13Z</time>
      </trkpt>
      <trkpt lat="47.47001" lon="8.311">
        <ele>360.1</ele>
        <time>2022-10-02T14:00:14Z</time>
      </trkpt>
      <trkpt lat="47.46997" lon="8.31098">
        <ele>360.1</ele>
        <time>2022-10-02T14:00:15Z</time>
      </trkpt>
      <trkpt lat="47.46994" lon="8.31096">
        <ele>360.1</ele>
        <time>2022-10-02T14:00:16Z</time>
      </trkpt>
      <trkpt lat="47.4699" lon="8.31094">
        <ele>360.2</ele>
        <time>2022-10-02T14:00:17Z</time>
      </trkpt>
      <trkpt lat="47.46986" lon="8.31093">
        <ele>360.2</ele>
        <time>2022-10-02T14:00:18Z</time>
      </trkpt>
      <trkpt lat="47.46982" lon="8.31093">
        <ele>360.2</ele>
        <time>2022-10-02T14:00:19Z</time>
      </trkpt>
      <trkpt lat="47.46979" lon="8.31091">
        <ele>360.2</ele>
        <time>2022-10-02T14:00:20Z</time>
      </trkpt>
      <trkpt lat="47.46975" lon="8.31088">
        <ele>360.2</ele>
        <time>2022-10-02T14:00:21Z</time>
      </trkpt>
      <trkpt lat="47.46972" lon="8.31085">
        <ele>360.2</ele>
        <time>2022-10-02T14:00:22Z</time>
      </trkpt>
      <trkpt lat="47.46969" lon="8.31084">
        <ele>360.3</ele>
        <time>2022-10-02T14:00:23Z</time>
      </trkpt>
      <trkpt lat="47.46965" lon="8.31081">
        <ele>360.3</ele>
        <time>2022-10-02T14:00:24Z</time>
      </trkpt>
      <trkpt lat="47.46962" lon="8.3108">
        <ele>360.3</ele>
        <time>2022-10-02T14:00:25Z</time>
      </trkpt>
      <trkpt lat="47.46957" lon="8.31077">
        <ele>360.3</ele>
        <time>2022-10-02T14:00:26Z</time>
      </trkpt>
      <trkpt lat="47.46955" lon="8.31075">
        <ele>360.3</ele>
        <time>2022-10-02T14:00:27Z</time>
      </trkpt>
      <trkpt lat="47.46951" lon="8.31072">
        <ele>360.4</ele>
        <time>2022-10-02T14:00:28Z</time>
      </trkpt>
      <trkpt lat="47.4695" lon="8.31071">
        <ele>360.4</ele>
        <time>2022-10-02T14:00:29Z</time>
      </trkpt>
      <trkpt lat="47.46947" lon="8.31069">
        <ele>360.4</ele>
        <time>2022-10-02T14:00:30Z</time>
      </trkpt>
      <trkpt lat="47.46944" lon="8.31067">
        <ele>360.4</ele>
        <time>2022-10-02T14:00:31Z</time>
      </trkpt>
      <trkpt lat="47.46942" lon="8.31063">
        <ele>360.5</ele>
        <time>2022-10-02T14:00:32Z</time>
      </trkpt>
      <trkpt lat="47.4694" lon="8.31062">
        <ele>360.5</ele>
        <time>2022-10-02T14:00:33Z</time>
      </trkpt>
      <trkpt lat="47.46938" lon="8.31058">
        <ele>360.5</ele>
        <time>2022-10-02T14:00:34Z</time>
      </trkpt>
      <trkpt lat="47.46937" lon="8.31057">
        <ele>360.5</ele>
        <time>2022-10-02T14:00:35Z</time>
      </trkpt>
      <trkpt lat="47.46938" lon="8.31054">
        <ele>360.6</ele>
        <time>2022-10-02T14:00:36Z</time>
      </trkpt>
      <trkpt lat="47.46937" lon="8.31053">
        <ele>360.6</ele>
        <time>2022-10-02T14:00:37Z</time>
      </trkpt>
      <trkpt lat="47.46937" lon="8.31052">
        <ele>360.6</ele>
        <time>2022-10-02T14:00:38Z</time>
      </trkpt>
      <trkpt lat="47.46934" lon="8.31049">
        <ele>360.6</ele>
        <time>2022-10-02T14:00:39Z</time>
      </trkpt>
      <trkpt lat="47.46933" lon="8.31048">
        <ele>360.7</ele>
        <time>2022-10-02T14:00:40Z</time>
      </trkpt>
      <trkpt lat="47.46931" lon="8.31045">
        <ele>360.6</ele>
        <time>2022-10-02T14:00:41Z</time>
      </trkpt>
      <trkpt lat="47.46929" lon="8.31044">
        <ele>360.6</ele>
        <time>2022-10-02T14:00:42Z</time>
      </trkpt>
      <trkpt lat="47.46926" lon="8.31042">
        <ele>360.6</ele>
        <time>2022-10-02T14:00:43Z</time>
      </trkpt>
      <trkpt lat="47.46923" lon="8.3104">
        <ele>360.6</ele>
        <time>2022-10-02T14:00:44Z</time>
      </trkpt>
      <trkpt lat="47.4692" lon="8.31039">
        <ele>360.6</ele>
        <time>2022-10-02T14:00:45Z</time>
      </trkpt>
      <trkpt lat="47.46917" lon="8.31036">
        <ele>360.6</ele>
        <time>2022-10-02T14:00:46Z</time>
      </trkpt>
      <trkpt lat="47.46912" lon="8.31032">
        <ele>360.7</ele>
        <time>2022-10-02T14:00:47Z</time>
      </trkpt>
      <trkpt lat="47.46909" lon="8.31028">
        <ele>360.7</ele>
        <time>2022-10-02T14:00:48Z</time>
      </trkpt>
      <trkpt lat="47.46906" lon="8.31025">
        <ele>360.7</ele>
        <time>2022-10-02T14:00:49Z</time>
      </trkpt>
      <trkpt lat="47.46902" lon="8.31021">
        <ele>360.7</ele>
        <time>2022-10-02T14:00:50Z</time>
      </trkpt>
      <trkpt lat="47.46898" lon="8.31018">
        <ele>360.7</ele>
        <time>2022-10-02T14:00:51Z</time>
      </trkpt>
      <trkpt lat="47.46894" lon="8.31014">
        <ele>360.8</ele>
        <time>2022-10-02T14:00:52Z</time>
      </trkpt>
      <trkpt lat="47.46891" lon="8.31012">
        <ele>360.8</ele>
        <time>2022-10-02T14:00:53Z</time>
      </trkpt>
      <trkpt lat="47.46887" lon="8.3101">
        <ele>360.9</ele>
        <time>2022-10-02T14:00:54Z</time>
      </trkpt>
      <trkpt lat="47.46884" lon="8.31006">
        <ele>361</ele>
        <time>2022-10-02T14:00:55Z</time>
      </trkpt>
      <trkpt lat="47.46882" lon="8.31002">
        <ele>361.1</ele>
        <time>2022-10-02T14:00:56Z</time>
      </trkpt>
      <trkpt lat="47.46879" lon="8.31">
        <ele>361.2</ele>
        <time>2022-10-02T14:00:57Z</time>
      </trkpt>
      <trkpt lat="47.46876" lon="8.30998">
        <ele>361.3</ele>
        <time>2022-10-02T14:00:58Z</time>
      </trkpt>
      <trkpt lat="47.46873" lon="8.30995">
        <ele>361.4</ele>
        <time>2022-10-02T14:00:59Z</time>
      </trkpt>
      <trkpt lat="47.4687" lon="8.30993">
        <ele>361.5</ele>
        <time>2022-10-02T14:01:00Z</time>
      </trkpt>
      <trkpt lat="47.46867" lon="8.30991">
        <ele>361.6</ele>
        <time>2022-10-02T14:01:01Z</time>
      </trkpt>
      <trkpt lat="47.46864" lon="8.30988">
        <ele>361.8</ele>
        <time>2022-10-02T14:01:02Z</time>
      </trkpt>
      <trkpt lat="47.46863" lon="8.30987">
        <ele>361.8</ele>
        <time>2022-10-02T14:01:03Z</time>
      </trkpt>
      <trkpt lat="47.46861" lon="8.30984">
        <ele>361.9</ele>
        <time>2022-10-02T14:01:04Z</time>
      </trkpt>
      <trkpt lat="47.46858" lon="8.30981">
        <ele>362</ele>
        <time>2022-10-02T14:01:05Z</time>
      </trkpt>
      <trkpt lat="47.46855" lon="8.30979">
        <ele>362.2</ele>
        <time>2022-10-02T14:01:06Z</time>
      </trkpt>
      <trkpt lat="47.46852" lon="8.30976">
        <ele>362.2</ele>
        <time>2022-10-02T14:01:07Z</time>
      </trkpt>
      <trkpt lat="47.46849" lon="8.30973">
        <ele>362.4</ele>
        <time>2022-10-02T14:01:08Z</time>
      </trkpt>
      <trkpt lat="47.46847" lon="8.30972">
        <ele>362.4</ele>
        <time>2022-10-02T14:01:09Z</time>
      </trkpt>
      <trkpt lat="47.46845" lon="8.3097">
        <ele>362.4</ele>
        <time>2022-10-02T14:01:10Z</time>
      </trkpt>
      <trkpt lat="47.46841" lon="8.30967">
        <ele>362.5</ele>
        <time>2022-10-02T14:01:11Z</time>
      </trkpt>
      <trkpt lat="47.46839" lon="8.30965">
        <ele>362.6</ele>
        <time>2022-10-02T14:01:12Z</time>
      </trkpt>
      <trkpt lat="47.46836" lon="8.30961">
        <ele>362.6</ele>
        <time>2022-10-02T14:01:13Z</time>
      </trkpt>
      <trkpt lat="47.46833" lon="8.30958">
        <ele>362.7</ele>
        <time>2022-10-02T14:01:14Z</time>
      </trkpt>
      <trkpt lat="47.46831" lon="8.30956">
        <ele>362.7</ele>
        <time>2022-10-02T14:01:15Z</time>
      </trkpt>
      <trkpt lat="47.46828" lon="8.30953">
        <ele>362.7</ele>
        <time>2022-10-02T14:01:16Z</time>
      </trkpt>
      <trkpt lat="47.46825" lon="8.3095">
        <ele>362.8</ele>
        <time>2022-10-02T14:01:17Z</time>
      </trkpt>
      <trkpt lat="47.46822" lon="8.30948">
        <ele>362.8</ele>
        <time>2022-10-02T14:01:18Z</time>
      </trkpt>
      <trkpt lat="47.4682" lon="8.30945">
        <ele>362.8</ele>
        <time>2022-10-02T14:01:19Z</time>
      </trkpt>
      <trkpt lat="47.46816" lon="8.30941">
        <ele>362.9</ele>
        <time>2022-10-02T14:01:20Z</time>
      </trkpt>
      <trkpt lat="47.46813" lon="8.30938">
        <ele>362.9</ele>
        <time>2022-10-02T14:01:21Z</time>
      </trkpt>
      <trkpt lat="47.4681" lon="8.30935">
        <ele>362.9</ele>
        <time>2022-10-02T14:01:22Z</time>
      </trkpt>
      <trkpt lat="47.46807" lon="8.30932">
        <ele>363</ele>
        <time>2022-10-02T14:01:23Z</time>
      </trkpt>
      <trkpt lat="47.46804" lon="8.30929">
        <ele>363</ele>
        <time>2022-10-02T14:01:24Z</time>
      </trkpt>
      <trkpt lat="47.46799" lon="8.30925">
        <ele>363</ele>
        <time>2022-10-02T14:01:25Z</time>
      </trkpt>
      <trkpt lat="47.46796" lon="8.30921">
        <ele>363.1</ele>
        <time>2022-10-02T14:01:26Z</time>
      </trkpt>
      <trkpt lat="47.46793" lon="8.30919">
        <ele>363.2</ele>
        <time>2022-10-02T14:01:27Z</time>
      </trkpt>
      <trkpt lat="47.4679" lon="8.30915">
        <ele>363.3</ele>
        <time>2022-10-02T14:01:28Z</time>
      </trkpt>
      <trkpt lat="47.46787" lon="8.30914">
        <ele>363.3</ele>
        <time>2022-10-02T14:01:29Z</time>
      </trkpt>
      <trkpt lat="47.46784" lon="8.3091">
        <ele>363.4</ele>
        <time>2022-10-02T14:01:30Z</time>
      </trkpt>
      <trkpt lat="47.46781" lon="8.30906">
        <ele>363.5</ele>
        <time>2022-10-02T14:01:31Z</time>
      </trkpt>
      <trkpt lat="47.46777" lon="8.30903">
        <ele>363.6</ele>
        <time>2022-10-02T14:01:32Z</time>
      </trkpt>
      <trkpt lat="47.46774" lon="8.30899">
        <ele>363.7</ele>
        <time>2022-10-02T14:01:33Z</time>
      </trkpt>
      <trkpt lat="47.46772" lon="8.30896">
        <ele>363.8</ele>
        <time>2022-10-02T14:01:34Z</time>
      </trkpt>
      <trkpt lat="47.46769" lon="8.30893">
        <ele>363.9</ele>
        <time>2022-10-02T14:01:35Z</time>
      </trkpt>
      <trkpt lat="47.46767" lon="8.3089">
        <ele>364</ele>
        <time>2022-10-02T14:01:36Z</time>
      </trkpt>
      <trkpt lat="47.46763" lon="8.30887">
        <ele>364.1</ele>
        <time>2022-10-02T14:01:37Z</time>
      </trkpt>
      <trkpt lat="47.4676" lon="8.30883">
        <ele>364.2</ele>
        <time>2022-10-02T14:01:38Z</time>
      </trkpt>
      <trkpt lat="47.46759" lon="8.3088">
        <ele>364.3</ele>
        <time>2022-10-02T14:01:39Z</time>
      </trkpt>
      <trkpt lat="47.46755" lon="8.30876">
        <ele>364.4</ele>
        <time>2022-10-02T14:01:40Z</time>
      </trkpt>
      <trkpt lat="47.46752" lon="8.30875">
        <ele>364.5</ele>
        <time>2022-10-02T14:01:41Z</time>
      </trkpt>
      <trkpt lat="47.46749" lon="8.30874">
        <ele>364.5</ele>
        <time>2022-10-02T14:01:42Z</time>
      </trkpt>
      <trkpt lat="47.46745" lon="8.30874">
        <ele>364.7</ele>
        <time>2022-10-02T14:01:43Z</time>
      </trkpt>
      <trkpt lat="47.46743" lon="8.30874">
        <ele>364.7</ele>
        <time>2022-10-02T14:01:44Z</time>
      </trkpt>
      <trkpt lat="47.4674" lon="8.30877">
        <ele>364.8</ele>
        <time>2022-10-02T14:01:45Z</time>
      </trkpt>
      <trkpt lat="47.46738" lon="8.30881">
        <ele>364.9</ele>
        <time>2022-10-02T14:01:46Z</time>
      </trkpt>
      <trkpt lat="47.46737" lon="8.30882">
        <ele>365</ele>
        <time>2022-10-02T14:01:47Z</time>
      </trkpt>
      <trkpt lat="47.46734" lon="8.30885">
        <ele>365.1</ele>
        <time>2022-10-02T14:01:48Z</time>
      </trkpt>
      <trkpt lat="47.46732" lon="8.30888">
        <ele>365.1</ele>
        <time>2022-10-02T14:01:49Z</time>
      </trkpt>
      <trkpt lat="47.46731" lon="8.3089">
        <ele>365.2</ele>
        <time>2022-10-02T14:01:50Z</time>
      </trkpt>
      <trkpt lat="47.46729" lon="8.30893">
        <ele>365.2</ele>
        <time>2022-10-02T14:01:51Z</time>
      </trkpt>
      <trkpt lat="47.46727" lon="8.30896">
        <ele>365.3</ele>
        <time>2022-10-02T14:01:52Z</time>
      </trkpt>
      <trkpt lat="47.46724" lon="8.309">
        <ele>365.4</ele>
        <time>2022-10-02T14:01:53Z</time>
      </trkpt>
      <trkpt lat="47.46724" lon="8.30901">
        <ele>365.4</ele>
        <time>2022-10-02T14:01:54Z</time>
      </trkpt>
      <trkpt lat="47.46722" lon="8.30905">
        <ele>365.5</ele>
        <time>2022-10-02T14:01:55Z</time>
      </trkpt>
      <trkpt lat="47.4672" lon="8.30909">
        <ele>365.6</ele>
        <time>2022-10-02T14:01:56Z</time>
      </trkpt>
      <trkpt lat="47.46717" lon="8.30913">
        <ele>365.7</ele>
        <time>2022-10-02T14:01:57Z</time>
      </trkpt>
      <trkpt lat="47.46716" lon="8.30917">
        <ele>365.8</ele>
        <time>2022-10-02T14:01:58Z</time>
      </trkpt>
      <trkpt lat="47.46715" lon="8.30919">
        <ele>365.8</ele>
        <time>2022-10-02T14:01:59Z</time>
      </trkpt>
      <trkpt lat="47.46713" lon="8.30922">
        <ele>365.9</ele>
        <time>2022-10-02T14:02:00Z</time>
      </trkpt>
      <trkpt lat="47.4671" lon="8.30924">
        <ele>366</ele>
        <time>2022-10-02T14:02:01Z</time>
      </trkpt>
      <trkpt lat="47.46707" lon="8.30928">
        <ele>366.1</ele>
        <time>2022-10-02T14:02:02Z</time>
      </trkpt>
      <trkpt lat="47.46706" lon="8.30931">
        <ele>366.2</ele>
        <time>2022-10-02T14:02:03Z</time>
      </trkpt>
      <trkpt lat="47.46705" lon="8.30934">
        <ele>366.3</ele>
        <time>2022-10-02T14:02:04Z</time>
      </trkpt>
      <trkpt lat="47.46704" lon="8.30935">
        <ele>366.3</ele>
        <time>2022-10-02T14:02:05Z</time>
      </trkpt>
      <trkpt lat="47.46703" lon="8.30937">
        <ele>366.3</ele>
        <time>2022-10-02T14:02:06Z</time>
      </trkpt>
      <trkpt lat="47.46701" lon="8.30939">
        <ele>366.3</ele>
        <time>2022-10-02T14:02:07Z</time>
      </trkpt>
      <trkpt lat="47.46699" lon="8.3094">
        <ele>366.3</ele>
        <time>2022-10-02T14:02:08Z</time>
      </trkpt>
      <trkpt lat="47.46698" lon="8.30939">
        <ele>366.4</ele>
        <time>2022-10-02T14:02:09Z</time>
      </trkpt>
      <trkpt lat="47.46696" lon="8.30937">
        <ele>366.7</ele>
        <time>2022-10-02T14:02:10Z</time>
      </trkpt>
      <trkpt lat="47.46695" lon="8.30936">
        <ele>366.8</ele>
        <time>2022-10-02T14:02:11Z</time>
      </trkpt>
      <trkpt lat="47.46695" lon="8.30934">
        <ele>367</ele>
        <time>2022-10-02T14:02:12Z</time>
      </trkpt>
      <trkpt lat="47.46695" lon="8.30931">
        <ele>367.3</ele>
        <time>2022-10-02T14:02:13Z</time>
      </trkpt>
      <trkpt lat="47.46694" lon="8.3093">
        <ele>367.4</ele>
        <time>2022-10-02T14:02:14Z</time>
      </trkpt>
      <trkpt lat="47.46693" lon="8.30928">
        <ele>367.6</ele>
        <time>2022-10-02T14:02:15Z</time>
      </trkpt>
      <trkpt lat="47.46692" lon="8.30924">
        <ele>367.9</ele>
        <time>2022-10-02T14:02:16Z</time>
      </trkpt>
      <trkpt lat="47.46692" lon="8.30922">
        <ele>368.1</ele>
        <time>2022-10-02T14:02:17Z</time>
      </trkpt>
      <trkpt lat="47.4669" lon="8.3092">
        <ele>368.3</ele>
        <time>2022-10-02T14:02:18Z</time>
      </trkpt>
      <trkpt lat="47.46689" lon="8.30919">
        <ele>368.4</ele>
        <time>2022-10-02T14:02:19Z</time>
      </trkpt>
      <trkpt lat="47.46688" lon="8.30918">
        <ele>368.6</ele>
        <time>2022-10-02T14:02:20Z</time>
      </trkpt>
      <trkpt lat="47.46687" lon="8.30915">
        <ele>368.8</ele>
        <time>2022-10-02T14:02:21Z</time>
      </trkpt>
      <trkpt lat="47.46686" lon="8.30914">
        <ele>368.9</ele>
        <time>2022-10-02T14:02:22Z</time>
      </trkpt>
      <trkpt lat="47.46686" lon="8.30913">
        <ele>369</ele>
        <time>2022-10-02T14:02:23Z</time>
      </trkpt>
      <trkpt lat="47.46684" lon="8.30911">
        <ele>369.2</ele>
        <time>2022-10-02T14:02:24Z</time>
      </trkpt>
      <trkpt lat="47.46683" lon="8.30911">
        <ele>369.4</ele>
        <time>2022-10-02T14:02:25Z</time>
      </trkpt>
      <trkpt lat="47.46681" lon="8.30907">
        <ele>369.7</ele>
        <time>2022-10-02T14:02:26Z</time>
      </trkpt>
      <trkpt lat="47.4668" lon="8.30906">
        <ele>369.8</ele>
        <time>2022-10-02T14:02:27Z</time>
      </trkpt>
      <trkpt lat="47.46679" lon="8.30904">
        <ele>369.9</ele>
        <time>2022-10-02T14:02:28Z</time>
      </trkpt>
      <trkpt lat="47.46678" lon="8.30903">
        <ele>370.1</ele>
        <time>2022-10-02T14:02:29Z</time>
      </trkpt>
      <trkpt lat="47.46675" lon="8.309">
        <ele>370.4</ele>
        <time>2022-10-02T14:02:30Z</time>
      </trkpt>
      <trkpt lat="47.46675" lon="8.309">
        <ele>370.5</ele>
        <time>2022-10-02T14:02:31Z</time>
      </trkpt>
      <trkpt lat="47.46673" lon="8.30898">
        <ele>370.7</ele>
        <time>2022-10-02T14:02:32Z</time>
      </trkpt>
      <trkpt lat="47.46672" lon="8.30898">
        <ele>370.8</ele>
        <time>2022-10-02T14:02:33Z</time>
      </trkpt>
      <trkpt lat="47.46668" lon="8.30896">
        <ele>371.1</ele>
        <time>2022-10-02T14:02:34Z</time>
      </trkpt>
      <trkpt lat="47.46667" lon="8.30895">
        <ele>371.2</ele>
        <time>2022-10-02T14:02:35Z</time>
      </trkpt>
      <trkpt lat="47.46667" lon="8.30893">
        <ele>371.3</ele>
        <time>2022-10-02T14:02:36Z</time>
      </trkpt>
      <trkpt lat="47.46665" lon="8.30892">
        <ele>371.4</ele>
        <time>2022-10-02T14:02:37Z</time>
      </trkpt>
      <trkpt lat="47.46661" lon="8.3089">
        <ele>371.6</ele>
        <time>2022-10-02T14:02:38Z</time>
      </trkpt>
      <trkpt lat="47.4666" lon="8.3089">
        <ele>371.7</ele>
        <time>2022-10-02T14:02:39Z</time>
      </trkpt>
      <trkpt lat="47.46657" lon="8.30888">
        <ele>371.9</ele>
        <time>2022-10-02T14:02:40Z</time>
      </trkpt>
      <trkpt lat="47.46654" lon="8.30886">
        <ele>372</ele>
        <time>2022-10-02T14:02:41Z</time>
      </trkpt>
      <trkpt lat="47.46652" lon="8.30885">
        <ele>372.2</ele>
        <time>2022-10-02T14:02:42Z</time>
      </trkpt>
      <trkpt lat="47.46649" lon="8.30883">
        <ele>372.3</ele>
        <time>2022-10-02T14:02:43Z</time>
      </trkpt>
      <trkpt lat="47.46645" lon="8.30883">
        <ele>372.5</ele>
        <time>2022-10-02T14:02:44Z</time>
      </trkpt>
      <trkpt lat="47.46642" lon="8.30882">
        <ele>372.6</ele>
        <time>2022-10-02T14:02:45Z</time>
      </trkpt>
      <trkpt lat="47.46641" lon="8.30882">
        <ele>372.6</ele>
        <time>2022-10-02T14:02:46Z</time>
      </trkpt>
      <trkpt lat="47.46638" lon="8.30883">
        <ele>372.7</ele>
        <time>2022-10-02T14:02:47Z</time>
      </trkpt>
      <trkpt lat="47.46634" lon="8.30884">
        <ele>372.9</ele>
        <time>2022-10-02T14:02:48Z</time>
      </trkpt>
      <trkpt lat="47.46633" lon="8.30884">
        <ele>372.9</ele>
        <time>2022-10-02T14:02:49Z</time>
      </trkpt>
      <trkpt lat="47.4663" lon="8.30886">
        <ele>373</ele>
        <time>2022-10-02T14:02:50Z</time>
      </trkpt>
      <trkpt lat="47.46629" lon="8.30886">
        <ele>373</ele>
        <time>2022-10-02T14:02:51Z</time>
      </trkpt>
      <trkpt lat="47.46625" lon="8.30887">
        <ele>373.2</ele>
        <time>2022-10-02T14:02:52Z</time>
      </trkpt>
      <trkpt lat="47.46623" lon="8.30887">
        <ele>373.2</ele>
        <time>2022-10-02T14:02:53Z</time>
      </trkpt>
      <trkpt lat="47.46622" lon="8.30888">
        <ele>373.3</ele>
        <time>2022-10-02T14:02:54Z</time>
      </trkpt>
      <trkpt lat="47.46618" lon="8.30889">
        <ele>373.4</ele>
        <time>2022-10-02T14:02:55Z</time>
      </trkpt>
      <trkpt lat="47.46616" lon="8.3089">
        <ele>373.4</ele>
        <time>2022-10-02T14:02:56Z</time>
      </trkpt>
      <trkpt lat="47.46613" lon="8.3089">
        <ele>373.5</ele>
        <time>2022-10-02T14:02:57Z</time>
      </trkpt>
      <trkpt lat="47.46611" lon="8.30892">
        <ele>373.6</ele>
        <time>2022-10-02T14:02:58Z</time>
      </trkpt>
      <trkpt lat="47.4661" lon="8.30892">
        <ele>373.7</ele>
        <time>2022-10-02T14:02:59Z</time>
      </trkpt>
      <trkpt lat="47.46606" lon="8.30893">
        <ele>373.8</ele>
        <time>2022-10-02T14:03:00Z</time>
      </trkpt>
      <trkpt lat="47.46603" lon="8.30894">
        <ele>374</ele>
        <time>2022-10-02T14:03:01Z</time>
      </trkpt>
      <trkpt lat="47.46602" lon="8.30895">
        <ele>374</ele>
        <time>2022-10-02T14:03:02Z</time>
      </trkpt>
      <trkpt lat="47.46599" lon="8.30896">
        <ele>374.2</ele>
        <time>2022-10-02T14:03:03Z</time>
      </trkpt>
      <trkpt lat="47.46596" lon="8.30897">
        <ele>374.3</ele>
        <time>2022-10-02T14:03:04Z</time>
      </trkpt>
      <trkpt lat="47.46595" lon="8.30897">
        <ele>374.4</ele>
        <time>2022-10-02T14:03:05Z</time>
      </trkpt>
      <trkpt lat="47.46592" lon="8.309">
        <ele>374.6</ele>
        <time>2022-10-02T14:03:06Z</time>
      </trkpt>
      <trkpt lat="47.4659" lon="8.309">
        <ele>374.7</ele>
        <time>2022-10-02T14:03:07Z</time>
      </trkpt>
      <trkpt lat="47.46589" lon="8.30901">
        <ele>374.9</ele>
        <time>2022-10-02T14:03:08Z</time>
      </trkpt>
      <trkpt lat="47.46588" lon="8.30902">
        <ele>375.1</ele>
        <time>2022-10-02T14:03:09Z</time>
      </trkpt>
      <trkpt lat="47.46585" lon="8.30904">
        <ele>375.4</ele>
        <time>2022-10-02T14:03:10Z</time>
      </trkpt>
      <trkpt lat="47.46584" lon="8.30905">
        <ele>375.6</ele>
        <time>2022-10-02T14:03:11Z</time>
      </trkpt>
      <trkpt lat="47.46582" lon="8.30908">
        <ele>376</ele>
        <time>2022-10-02T14:03:12Z</time>
      </trkpt>
      <trkpt lat="47.46581" lon="8.30908">
        <ele>376.1</ele>
        <time>2022-10-02T14:03:13Z</time>
      </trkpt>
      <trkpt lat="47.46579" lon="8.30911">
        <ele>376.4</ele>
        <time>2022-10-02T14:03:14Z</time>
      </trkpt>
      <trkpt lat="47.46578" lon="8.30912">
        <ele>376.5</ele>
        <time>2022-10-02T14:03:15Z</time>
      </trkpt>
      <trkpt lat="47.46578" lon="8.30913">
        <ele>376.7</ele>
        <time>2022-10-02T14:03:16Z</time>
      </trkpt>
      <trkpt lat="47.46576" lon="8.30913">
        <ele>376.9</ele>
        <time>2022-10-02T14:03:17Z</time>
      </trkpt>
      <trkpt lat="47.46575" lon="8.30915">
        <ele>377.2</ele>
        <time>2022-10-02T14:03:18Z</time>
      </trkpt>
      <trkpt lat="47.46573" lon="8.30916">
        <ele>377.4</ele>
        <time>2022-10-02T14:03:19Z</time>
      </trkpt>
      <trkpt lat="47.46573" lon="8.30918">
        <ele>377.6</ele>
        <time>2022-10-02T14:03:20Z</time>
      </trkpt>
      <trkpt lat="47.46571" lon="8.3092">
        <ele>377.9</ele>
        <time>2022-10-02T14:03:21Z</time>
      </trkpt>
      <trkpt lat="47.4657" lon="8.30921">
        <ele>378.1</ele>
        <time>2022-10-02T14:03:22Z</time>
      </trkpt>
      <trkpt lat="47.46567" lon="8.30923">
        <ele>378.6</ele>
        <time>2022-10-02T14:03:23Z</time>
      </trkpt>
      <trkpt lat="47.46566" lon="8.30925">
        <ele>378.8</ele>
        <time>2022-10-02T14:03:24Z</time>
      </trkpt>
      <trkpt lat="47.46564" lon="8.30926">
        <ele>379.2</ele>
        <time>2022-10-02T14:03:25Z</time>
      </trkpt>
      <trkpt lat="47.46562" lon="8.30927">
        <ele>379.4</ele>
        <time>2022-10-02T14:03:26Z</time>
      </trkpt>
      <trkpt lat="47.46561" lon="8.30927">
        <ele>379.6</ele>
        <time>2022-10-02T14:03:27Z</time>
      </trkpt>
      <trkpt lat="47.46559" lon="8.3093">
        <ele>380</ele>
        <time>2022-10-02T14:03:28Z</time>
      </trkpt>
      <trkpt lat="47.46558" lon="8.3093">
        <ele>380.2</ele>
        <time>2022-10-02T14:03:29Z</time>
      </trkpt>
      <trkpt lat="47.46557" lon="8.30931">
        <ele>380.3</ele>
        <time>2022-10-02T14:03:30Z</time>
      </trkpt>
      <trkpt lat="47.46555" lon="8.30932">
        <ele>380.7</ele>
        <time>2022-10-02T14:03:31Z</time>
      </trkpt>
      <trkpt lat="47.46554" lon="8.30934">
        <ele>380.9</ele>
        <time>2022-10-02T14:03:32Z</time>
      </trkpt>
      <trkpt lat="47.46552" lon="8.30935">
        <ele>381.2</ele>
        <time>2022-10-02T14:03:33Z</time>
      </trkpt>
      <trkpt lat="47.46551" lon="8.30936">
        <ele>381.6</ele>
        <time>2022-10-02T14:03:34Z</time>
      </trkpt>
      <trkpt lat="47.4655" lon="8.30937">
        <ele>381.8</ele>
        <time>2022-10-02T14:03:35Z</time>
      </trkpt>
      <trkpt lat="47.46549" lon="8.30938">
        <ele>381.9</ele>
        <time>2022-10-02T14:03:36Z</time>
      </trkpt>
      <trkpt lat="47.46547" lon="8.3094">
        <ele>382.3</ele>
        <time>2022-10-02T14:03:37Z</time>
      </trkpt>
      <trkpt lat="47.46546" lon="8.30941">
        <ele>382.5</ele>
        <time>2022-10-02T14:03:38Z</time>
      </trkpt>
      <trkpt lat="47.46545" lon="8.30942">
        <ele>382.8</ele>
        <time>2022-10-02T14:03:39Z</time>
      </trkpt>
      <trkpt lat="47.46543" lon="8.30944">
        <ele>383</ele>
        <time>2022-10-02T14:03:40Z</time>
      </trkpt>
      <trkpt lat="47.46542" lon="8.30945">
        <ele>383.3</ele>
        <time>2022-10-02T14:03:41Z</time>
      </trkpt>
      <trkpt lat="47.46541" lon="8.30947">
        <ele>383.6</ele>
        <time>2022-10-02T14:03:42Z</time>
      </trkpt>
      <trkpt lat="47.46539" lon="8.30949">
        <ele>384.2</ele>
        <time>2022-10-02T14:03:43Z</time>
      </trkpt>
      <trkpt lat="47.46538" lon="8.3095">
        <ele>384.3</ele>
        <time>2022-10-02T14:03:44Z</time>
      </trkpt>
      <trkpt lat="47.46536" lon="8.30953">
        <ele>384.6</ele>
        <time>2022-10-02T14:03:45Z</time>
      </trkpt>
      <trkpt lat="47.46535" lon="8.30954">
        <ele>384.6</ele>
        <time>2022-10-02T14:03:46Z</time>
      </trkpt>
      <trkpt lat="47.46535" lon="8.30955">
        <ele>384.7</ele>
        <time>2022-10-02T14:03:47Z</time>
      </trkpt>
      <trkpt lat="47.46534" lon="8.30954">
        <ele>384.8</ele>
        <time>2022-10-02T14:03:48Z</time>
      </trkpt>
      <trkpt lat="47.46533" lon="8.30957">
        <ele>385</ele>
        <time>2022-10-02T14:03:49Z</time>
      </trkpt>
      <trkpt lat="47.46532" lon="8.30958">
        <ele>385.1</ele>
        <time>2022-10-02T14:03:50Z</time>
      </trkpt>
      <trkpt lat="47.46531" lon="8.30962">
        <ele>385.3</ele>
        <time>2022-10-02T14:03:51Z</time>
      </trkpt>
      <trkpt lat="47.4653" lon="8.30963">
        <ele>385.3</ele>
        <time>2022-10-02T14:03:52Z</time>
      </trkpt>
      <trkpt lat="47.46529" lon="8.30964">
        <ele>385.4</ele>
        <time>2022-10-02T14:03:53Z</time>
      </trkpt>
      <trkpt lat="47.46528" lon="8.30966">
        <ele>385.5</ele>
        <time>2022-10-02T14:03:54Z</time>
      </trkpt>
      <trkpt lat="47.46527" lon="8.3097">
        <ele>385.6</ele>
        <time>2022-10-02T14:03:55Z</time>
      </trkpt>
      <trkpt lat="47.46526" lon="8.30972">
        <ele>385.7</ele>
        <time>2022-10-02T14:03:56Z</time>
      </trkpt>
      <trkpt lat="47.46526" lon="8.30977">
        <ele>385.8</ele>
        <time>2022-10-02T14:03:57Z</time>
      </trkpt>
      <trkpt lat="47.46525" lon="8.30978">
        <ele>385.8</ele>
        <time>2022-10-02T14:03:58Z</time>
      </trkpt>
      <trkpt lat="47.46525" lon="8.30983">
        <ele>385.9</ele>
        <time>2022-10-02T14:03:59Z</time>
      </trkpt>
      <trkpt lat="47.46525" lon="8.30985">
        <ele>385.9</ele>
        <time>2022-10-02T14:04:00Z</time>
      </trkpt>
      <trkpt lat="47.46524" lon="8.30989">
        <ele>386</ele>
        <time>2022-10-02T14:04:01Z</time>
      </trkpt>
      <trkpt lat="47.46524" lon="8.30991">
        <ele>386</ele>
        <time>2022-10-02T14:04:02Z</time>
      </trkpt>
      <trkpt lat="47.46524" lon="8.30996">
        <ele>386.1</ele>
        <time>2022-10-02T14:04:03Z</time>
      </trkpt>
      <trkpt lat="47.46524" lon="8.30998">
        <ele>386.2</ele>
        <time>2022-10-02T14:04:04Z</time>
      </trkpt>
      <trkpt lat="47.46523" lon="8.31002">
        <ele>386.2</ele>
        <time>2022-10-02T14:04:05Z</time>
      </trkpt>
      <trkpt lat="47.46522" lon="8.31007">
        <ele>386.3</ele>
        <time>2022-10-02T14:04:06Z</time>
      </trkpt>
      <trkpt lat="47.46521" lon="8.31009">
        <ele>386.3</ele>
        <time>2022-10-02T14:04:07Z</time>
      </trkpt>
      <trkpt lat="47.4652" lon="8.31015">
        <ele>386.4</ele>
        <time>2022-10-02T14:04:08Z</time>
      </trkpt>
      <trkpt lat="47.4652" lon="8.31017">
        <ele>386.4</ele>
        <time>2022-10-02T14:04:09Z</time>
      </trkpt>
      <trkpt lat="47.46518" lon="8.31022">
        <ele>386.4</ele>
        <time>2022-10-02T14:04:10Z</time>
      </trkpt>
      <trkpt lat="47.46517" lon="8.31024">
        <ele>386.5</ele>
        <time>2022-10-02T14:04:11Z</time>
      </trkpt>
      <trkpt lat="47.46516" lon="8.31028">
        <ele>386.5</ele>
        <time>2022-10-02T14:04:12Z</time>
      </trkpt>
      <trkpt lat="47.46514" lon="8.31032">
        <ele>386.5</ele>
        <time>2022-10-02T14:04:13Z</time>
      </trkpt>
      <trkpt lat="47.46513" lon="8.31034">
        <ele>386.6</ele>
        <time>2022-10-02T14:04:14Z</time>
      </trkpt>
      <trkpt lat="47.4651" lon="8.31038">
        <ele>386.6</ele>
        <time>2022-10-02T14:04:15Z</time>
      </trkpt>
      <trkpt lat="47.46508" lon="8.3104">
        <ele>386.6</ele>
        <time>2022-10-02T14:04:16Z</time>
      </trkpt>
      <trkpt lat="47.46507" lon="8.31045">
        <ele>386.7</ele>
        <time>2022-10-02T14:04:17Z</time>
      </trkpt>
      <trkpt lat="47.46507" lon="8.31048">
        <ele>386.7</ele>
        <time>2022-10-02T14:04:18Z</time>
      </trkpt>
      <trkpt lat="47.46507" lon="8.31052">
        <ele>386.7</ele>
        <time>2022-10-02T14:04:19Z</time>
      </trkpt>
      <trkpt lat="47.46504" lon="8.31057">
        <ele>386.7</ele>
        <time>2022-10-02T14:04:20Z</time>
      </trkpt>
      <trkpt lat="47.46503" lon="8.31059">
        <ele>386.7</ele>
        <time>2022-10-02T14:04:21Z</time>
      </trkpt>
      <trkpt lat="47.46502" lon="8.31065">
        <ele>386.8</ele>
        <time>2022-10-02T14:04:22Z</time>
      </trkpt>
      <trkpt lat="47.465" lon="8.3107">
        <ele>386.8</ele>
        <time>2022-10-02T14:04:23Z</time>
      </trkpt>
      <trkpt lat="47.46499" lon="8.31071">
        <ele>386.8</ele>
        <time>2022-10-02T14:04:24Z</time>
      </trkpt>
      <trkpt lat="47.46498" lon="8.31077">
        <ele>386.8</ele>
        <time>2022-10-02T14:04:25Z</time>
      </trkpt>
      <trkpt lat="47.46498" lon="8.31078">
        <ele>386.8</ele>
        <time>2022-10-02T14:04:26Z</time>
      </trkpt>
      <trkpt lat="47.46496" lon="8.31084">
        <ele>386.9</ele>
        <time>2022-10-02T14:04:27Z</time>
      </trkpt>
      <trkpt lat="47.46495" lon="8.31089">
        <ele>386.9</ele>
        <time>2022-10-02T14:04:28Z</time>
      </trkpt>
      <trkpt lat="47.46495" lon="8.31091">
        <ele>386.9</ele>
        <time>2022-10-02T14:04:29Z</time>
      </trkpt>
      <trkpt lat="47.46494" lon="8.31097">
        <ele>387</ele>
        <time>2022-10-02T14:04:30Z</time>
      </trkpt>
      <trkpt lat="47.46493" lon="8.31099">
        <ele>387</ele>
        <time>2022-10-02T14:04:31Z</time>
      </trkpt>
      <trkpt lat="47.46491" lon="8.31103">
        <ele>387</ele>
        <time>2022-10-02T14:04:32Z</time>
      </trkpt>
      <trkpt lat="47.46491" lon="8.31103">
        <ele>387</ele>
        <time>2022-10-02T14:04:33Z</time>
      </trkpt>
      <trkpt lat="47.4649" lon="8.31106">
        <ele>387.1</ele>
        <time>2022-10-02T14:04:34Z</time>
      </trkpt>
      <trkpt lat="47.46489" lon="8.31108">
        <ele>387.1</ele>
        <time>2022-10-02T14:04:35Z</time>
      </trkpt>
      <trkpt lat="47.46488" lon="8.3111">
        <ele>387.1</ele>
        <time>2022-10-02T14:04:36Z</time>
      </trkpt>
      <trkpt lat="47.46488" lon="8.31111">
        <ele>387.1</ele>
        <time>2022-10-02T14:04:37Z</time>
      </trkpt>
      <trkpt lat="47.46488" lon="8.31111">
        <ele>387.1</ele>
        <time>2022-10-02T14:04:38Z</time>
      </trkpt>
      <trkpt lat="47.46488" lon="8.31111">
        <ele>387.1</ele>
        <time>2022-10-02T14:04:39Z</time>
      </trkpt>
      <trkpt lat="47.46488" lon="8.31111">
        <ele>387.1</ele>
        <time>2022-10-02T14:04:40Z</time>
      </trkpt>
      <trkpt lat="47.46488" lon="8.31112">
        <ele>387.1</ele>
        <time>2022-10-02T14:04:41Z</time>
      </trkpt>
      <trkpt lat="47.46488" lon="8.31116">
        <ele>387.2</ele>
        <time>2022-10-02T14:04:42Z</time>
      </trkpt>
      <trkpt lat="47.46487" lon="8.31119">
        <ele>387.2</ele>
        <time>2022-10-02T14:04:43Z</time>
      </trkpt>
      <trkpt lat="47.46487" lon="8.31122">
        <ele>387.1</ele>
        <time>2022-10-02T14:04:44Z</time>
      </trkpt>
      <trkpt lat="47.46487" lon="8.31125">
        <ele>387.1</ele>
        <time>2022-10-02T14:04:45Z</time>
      </trkpt>
      <trkpt lat="47.46486" lon="8.31128">
        <ele>387.1</ele>
        <time>2022-10-02T14:04:46Z</time>
      </trkpt>
      <trkpt lat="47.46486" lon="8.31131">
        <ele>387</ele>
        <time>2022-10-02T14:05:03Z</time>
      </trkpt>
      <trkpt lat="47.46485" lon="8.31134">
        <ele>387.1</ele>
        <time>2022-10-02T14:05:04Z</time>
      </trkpt>
      <trkpt lat="47.46488" lon="8.31136">
        <ele>387.1</ele>
        <time>2022-10-02T14:05:05Z</time>
      </trkpt>
      <trkpt lat="47.46491" lon="8.31139">
        <ele>387.1</ele>
        <time>2022-10-02T14:05:06Z</time>
      </trkpt>
      <trkpt lat="47.46494" lon="8.31141">
        <ele>387.1</ele>
        <time>2022-10-02T14:05:07Z</time>
      </trkpt>
      <trkpt lat="47.46497" lon="8.31142">
        <ele>387.1</ele>
        <time>2022-10-02T14:05:08Z</time>
      </trkpt>
      <trkpt lat="47.46501" lon="8.31144">
        <ele>387.2</ele>
        <time>2022-10-02T14:05:09Z</time>
      </trkpt>
      <trkpt lat="47.46503" lon="8.31145">
        <ele>387.2</ele>
        <time>2022-10-02T14:05:10Z</time>
      </trkpt>
      <trkpt lat="47.46507" lon="8.31147">
        <ele>387.2</ele>
        <time>2022-10-02T14:05:11Z</time>
      </trkpt>
      <trkpt lat="47.46511" lon="8.3115">
        <ele>387.2</ele>
        <time>2022-10-02T14:05:12Z</time>
      </trkpt>
      <trkpt lat="47.46515" lon="8.31152">
        <ele>387.2</ele>
        <time>2022-10-02T14:05:13Z</time>
      </trkpt>
      <trkpt lat="47.46519" lon="8.31154">
        <ele>387.2</ele>
        <time>2022-10-02T14:05:14Z</time>
      </trkpt>
      <trkpt lat="47.46522" lon="8.31156">
        <ele>387.2</ele>
        <time>2022-10-02T14:05:15Z</time>
      </trkpt>
      <trkpt lat="47.46527" lon="8.31159">
        <ele>387.3</ele>
        <time>2022-10-02T14:05:16Z</time>
      </trkpt>
      <trkpt lat="47.46529" lon="8.31161">
        <ele>387.3</ele>
        <time>2022-10-02T14:05:17Z</time>
      </trkpt>
      <trkpt lat="47.46533" lon="8.31163">
        <ele>387.3</ele>
        <time>2022-10-02T14:05:18Z</time>
      </trkpt>
      <trkpt lat="47.46537" lon="8.31165">
        <ele>387.3</ele>
        <time>2022-10-02T14:05:19Z</time>
      </trkpt>
      <trkpt lat="47.4654" lon="8.31167">
        <ele>387.3</ele>
        <time>2022-10-02T14:05:20Z</time>
      </trkpt>
      <trkpt lat="47.46543" lon="8.31169">
        <ele>387.4</ele>
        <time>2022-10-02T14:05:21Z</time>
      </trkpt>
      <trkpt lat="47.46547" lon="8.31171">
        <ele>387.4</ele>
        <time>2022-10-02T14:05:22Z</time>
      </trkpt>
      <trkpt lat="47.46551" lon="8.31175">
        <ele>387.4</ele>
        <time>2022-10-02T14:05:23Z</time>
      </trkpt>
      <trkpt lat="47.46554" lon="8.31177">
        <ele>387.4</ele>
        <time>2022-10-02T14:05:24Z</time>
      </trkpt>
      <trkpt lat="47.46558" lon="8.31179">
        <ele>387.5</ele>
        <time>2022-10-02T14:05:25Z</time>
      </trkpt>
      <trkpt lat="47.46561" lon="8.31181">
        <ele>387.5</ele>
        <time>2022-10-02T14:05:26Z</time>
      </trkpt>
      <trkpt lat="47.46565" lon="8.31184">
        <ele>387.5</ele>
        <time>2022-10-02T14:05:27Z</time>
      </trkpt>
      <trkpt lat="47.46567" lon="8.31186">
        <ele>387.6</ele>
        <time>2022-10-02T14:05:28Z</time>
      </trkpt>
      <trkpt lat="47.46571" lon="8.31188">
        <ele>387.7</ele>
        <time>2022-10-02T14:05:29Z</time>
      </trkpt>
      <trkpt lat="47.46573" lon="8.3119">
        <ele>387.8</ele>
        <time>2022-10-02T14:05:30Z</time>
      </trkpt>
      <trkpt lat="47.46576" lon="8.31193">
        <ele>387.9</ele>
        <time>2022-10-02T14:05:31Z</time>
      </trkpt>
      <trkpt lat="47.46576" lon="8.31199">
        <ele>388.1</ele>
        <time>2022-10-02T14:05:32Z</time>
      </trkpt>
      <trkpt lat="47.46576" lon="8.312">
        <ele>388.2</ele>
        <time>2022-10-02T14:05:33Z</time>
      </trkpt>
      <trkpt lat="47.46574" lon="8.31203">
        <ele>388.2</ele>
        <time>2022-10-02T14:05:34Z</time>
      </trkpt>
      <trkpt lat="47.46571" lon="8.31208">
        <ele>388.3</ele>
        <time>2022-10-02T14:05:35Z</time>
      </trkpt>
      <trkpt lat="47.46567" lon="8.31208">
        <ele>388.3</ele>
        <time>2022-10-02T14:05:36Z</time>
      </trkpt>
      <trkpt lat="47.46566" lon="8.31209">
        <ele>388.4</ele>
        <time>2022-10-02T14:05:37Z</time>
      </trkpt>
      <trkpt lat="47.46562" lon="8.31211">
        <ele>388.4</ele>
        <time>2022-10-02T14:05:38Z</time>
      </trkpt>
      <trkpt lat="47.46558" lon="8.31212">
        <ele>388.4</ele>
        <time>2022-10-02T14:05:39Z</time>
      </trkpt>
      <trkpt lat="47.46553" lon="8.31213">
        <ele>388.5</ele>
        <time>2022-10-02T14:05:40Z</time>
      </trkpt>
      <trkpt lat="47.4655" lon="8.31213">
        <ele>388.5</ele>
        <time>2022-10-02T14:05:41Z</time>
      </trkpt>
      <trkpt lat="47.46547" lon="8.31216">
        <ele>388.6</ele>
        <time>2022-10-02T14:05:42Z</time>
      </trkpt>
      <trkpt lat="47.46543" lon="8.31216">
        <ele>388.6</ele>
        <time>2022-10-02T14:05:43Z</time>
      </trkpt>
      <trkpt lat="47.4654" lon="8.31216">
        <ele>388.6</ele>
        <time>2022-10-02T14:05:44Z</time>
      </trkpt>
      <trkpt lat="47.46536" lon="8.31215">
        <ele>388.7</ele>
        <time>2022-10-02T14:05:45Z</time>
      </trkpt>
      <trkpt lat="47.46532" lon="8.31215">
        <ele>388.7</ele>
        <time>2022-10-02T14:05:46Z</time>
      </trkpt>
      <trkpt lat="47.4653" lon="8.31215">
        <ele>388.7</ele>
        <time>2022-10-02T14:05:47Z</time>
      </trkpt>
      <trkpt lat="47.46526" lon="8.31217">
        <ele>388.8</ele>
        <time>2022-10-02T14:05:48Z</time>
      </trkpt>
      <trkpt lat="47.46522" lon="8.31217">
        <ele>388.8</ele>
        <time>2022-10-02T14:05:49Z</time>
      </trkpt>
      <trkpt lat="47.46518" lon="8.31218">
        <ele>388.8</ele>
        <time>2022-10-02T14:05:50Z</time>
      </trkpt>
      <trkpt lat="47.46514" lon="8.31219">
        <ele>388.9</ele>
        <time>2022-10-02T14:05:51Z</time>
      </trkpt>
      <trkpt lat="47.46509" lon="8.3122">
        <ele>388.9</ele>
        <time>2022-10-02T14:05:52Z</time>
      </trkpt>
      <trkpt lat="47.46506" lon="8.31219">
        <ele>389</ele>
        <time>2022-10-02T14:05:53Z</time>
      </trkpt>
      <trkpt lat="47.46502" lon="8.31221">
        <ele>389</ele>
        <time>2022-10-02T14:05:54Z</time>
      </trkpt>
      <trkpt lat="47.46497" lon="8.31223">
        <ele>389.1</ele>
        <time>2022-10-02T14:05:55Z</time>
      </trkpt>
      <trkpt lat="47.46491" lon="8.31225">
        <ele>389.2</ele>
        <time>2022-10-02T14:05:56Z</time>
      </trkpt>
      <trkpt lat="47.46488" lon="8.31227">
        <ele>389.2</ele>
        <time>2022-10-02T14:05:57Z</time>
      </trkpt>
      <trkpt lat="47.46483" lon="8.31228">
        <ele>389.3</ele>
        <time>2022-10-02T14:05:58Z</time>
      </trkpt>
      <trkpt lat="47.46479" lon="8.3123">
        <ele>389.3</ele>
        <time>2022-10-02T14:05:59Z</time>
      </trkpt>
      <trkpt lat="47.46474" lon="8.31231">
        <ele>389.4</ele>
        <time>2022-10-02T14:06:00Z</time>
      </trkpt>
      <trkpt lat="47.46471" lon="8.31232">
        <ele>389.4</ele>
        <time>2022-10-02T14:06:01Z</time>
      </trkpt>
      <trkpt lat="47.46466" lon="8.31233">
        <ele>389.5</ele>
        <time>2022-10-02T14:06:02Z</time>
      </trkpt>
      <trkpt lat="47.46462" lon="8.31236">
        <ele>389.5</ele>
        <time>2022-10-02T14:06:03Z</time>
      </trkpt>
      <trkpt lat="47.46458" lon="8.31237">
        <ele>389.6</ele>
        <time>2022-10-02T14:06:04Z</time>
      </trkpt>
      <trkpt lat="47.46455" lon="8.31239">
        <ele>389.6</ele>
        <time>2022-10-02T14:06:05Z</time>
      </trkpt>
      <trkpt lat="47.4645" lon="8.3124">
        <ele>389.7</ele>
        <time>2022-10-02T14:06:06Z</time>
      </trkpt>
      <trkpt lat="47.46446" lon="8.31243">
        <ele>389.7</ele>
        <time>2022-10-02T14:06:07Z</time>
      </trkpt>
      <trkpt lat="47.46444" lon="8.31245">
        <ele>389.8</ele>
        <time>2022-10-02T14:06:08Z</time>
      </trkpt>
      <trkpt lat="47.46439" lon="8.31248">
        <ele>389.8</ele>
        <time>2022-10-02T14:06:09Z</time>
      </trkpt>
      <trkpt lat="47.46435" lon="8.31252">
        <ele>389.9</ele>
        <time>2022-10-02T14:06:10Z</time>
      </trkpt>
      <trkpt lat="47.46431" lon="8.31255">
        <ele>389.9</ele>
        <time>2022-10-02T14:06:11Z</time>
      </trkpt>
      <trkpt lat="47.46427" lon="8.31257">
        <ele>390</ele>
        <time>2022-10-02T14:06:12Z</time>
      </trkpt>
      <trkpt lat="47.46424" lon="8.31258">
        <ele>390</ele>
        <time>2022-10-02T14:06:13Z</time>
      </trkpt>
      <trkpt lat="47.46421" lon="8.31259">
        <ele>390</ele>
        <time>2022-10-02T14:06:14Z</time>
      </trkpt>
      <trkpt lat="47.46417" lon="8.31262">
        <ele>390.1</ele>
        <time>2022-10-02T14:06:15Z</time>
      </trkpt>
      <trkpt lat="47.46413" lon="8.31266">
        <ele>390.1</ele>
        <time>2022-10-02T14:06:16Z</time>
      </trkpt>
      <trkpt lat="47.4641" lon="8.31268">
        <ele>390.2</ele>
        <time>2022-10-02T14:06:17Z</time>
      </trkpt>
      <trkpt lat="47.46407" lon="8.3127">
        <ele>390.2</ele>
        <time>2022-10-02T14:06:18Z</time>
      </trkpt>
      <trkpt lat="47.46404" lon="8.31273">
        <ele>390.2</ele>
        <time>2022-10-02T14:06:19Z</time>
      </trkpt>
      <trkpt lat="47.464" lon="8.31277">
        <ele>390.3</ele>
        <time>2022-10-02T14:06:20Z</time>
      </trkpt>
      <trkpt lat="47.46395" lon="8.3128">
        <ele>390.3</ele>
        <time>2022-10-02T14:06:21Z</time>
      </trkpt>
      <trkpt lat="47.46393" lon="8.31282">
        <ele>390.4</ele>
        <time>2022-10-02T14:06:22Z</time>
      </trkpt>
      <trkpt lat="47.46388" lon="8.31287">
        <ele>390.4</ele>
        <time>2022-10-02T14:06:23Z</time>
      </trkpt>
      <trkpt lat="47.46385" lon="8.31289">
        <ele>390.5</ele>
        <time>2022-10-02T14:06:24Z</time>
      </trkpt>
      <trkpt lat="47.46382" lon="8.31292">
        <ele>390.5</ele>
        <time>2022-10-02T14:06:25Z</time>
      </trkpt>
      <trkpt lat="47.46377" lon="8.31295">
        <ele>390.6</ele>
        <time>2022-10-02T14:06:26Z</time>
      </trkpt>
      <trkpt lat="47.46373" lon="8.31296">
        <ele>390.6</ele>
        <time>2022-10-02T14:06:27Z</time>
      </trkpt>
      <trkpt lat="47.4637" lon="8.313">
        <ele>390.7</ele>
        <time>2022-10-02T14:06:28Z</time>
      </trkpt>
      <trkpt lat="47.46367" lon="8.31301">
        <ele>390.7</ele>
        <time>2022-10-02T14:06:29Z</time>
      </trkpt>
      <trkpt lat="47.46363" lon="8.31303">
        <ele>390.7</ele>
        <time>2022-10-02T14:06:30Z</time>
      </trkpt>
      <trkpt lat="47.46359" lon="8.31307">
        <ele>390.8</ele>
        <time>2022-10-02T14:06:31Z</time>
      </trkpt>
      <trkpt lat="47.46354" lon="8.31311">
        <ele>390.8</ele>
        <time>2022-10-02T14:06:32Z</time>
      </trkpt>
      <trkpt lat="47.4635" lon="8.31316">
        <ele>390.9</ele>
        <time>2022-10-02T14:06:33Z</time>
      </trkpt>
      <trkpt lat="47.46348" lon="8.3132">
        <ele>390.9</ele>
        <time>2022-10-02T14:06:34Z</time>
      </trkpt>
      <trkpt lat="47.46344" lon="8.31325">
        <ele>390.9</ele>
        <time>2022-10-02T14:06:35Z</time>
      </trkpt>
      <trkpt lat="47.46339" lon="8.31328">
        <ele>391</ele>
        <time>2022-10-02T14:06:36Z</time>
      </trkpt>
      <trkpt lat="47.46335" lon="8.31332">
        <ele>391</ele>
        <time>2022-10-02T14:06:37Z</time>
      </trkpt>
      <trkpt lat="47.46332" lon="8.31334">
        <ele>391.1</ele>
        <time>2022-10-02T14:06:38Z</time>
      </trkpt>
      <trkpt lat="47.46329" lon="8.31338">
        <ele>391.1</ele>
        <time>2022-10-02T14:06:39Z</time>
      </trkpt>
      <trkpt lat="47.46325" lon="8.3134">
        <ele>391.1</ele>
        <time>2022-10-02T14:06:40Z</time>
      </trkpt>
      <trkpt lat="47.46322" lon="8.31345">
        <ele>391.2</ele>
        <time>2022-10-02T14:06:41Z</time>
      </trkpt>
      <trkpt lat="47.46317" lon="8.31349">
        <ele>391.2</ele>
        <time>2022-10-02T14:06:42Z</time>
      </trkpt>
      <trkpt lat="47.46312" lon="8.31354">
        <ele>391.2</ele>
        <time>2022-10-02T14:06:43Z</time>
      </trkpt>
      <trkpt lat="47.46308" lon="8.31357">
        <ele>391.2</ele>
        <time>2022-10-02T14:06:44Z</time>
      </trkpt>
      <trkpt lat="47.46303" lon="8.31363">
        <ele>391.3</ele>
        <time>2022-10-02T14:06:45Z</time>
      </trkpt>
      <trkpt lat="47.463" lon="8.31365">
        <ele>391.3</ele>
        <time>2022-10-02T14:06:46Z</time>
      </trkpt>
      <trkpt lat="47.46298" lon="8.31367">
        <ele>391.3</ele>
        <time>2022-10-02T14:06:47Z</time>
      </trkpt>
      <trkpt lat="47.46294" lon="8.3137">
        <ele>391.3</ele>
        <time>2022-10-02T14:06:48Z</time>
      </trkpt>
      <trkpt lat="47.4629" lon="8.31375">
        <ele>391.4</ele>
        <time>2022-10-02T14:06:49Z</time>
      </trkpt>
      <trkpt lat="47.46284" lon="8.3138">
        <ele>391.4</ele>
        <time>2022-10-02T14:06:50Z</time>
      </trkpt>
      <trkpt lat="47.4628" lon="8.31384">
        <ele>391.4</ele>
        <time>2022-10-02T14:06:51Z</time>
      </trkpt>
      <trkpt lat="47.46276" lon="8.31387">
        <ele>391.5</ele>
        <time>2022-10-02T14:06:52Z</time>
      </trkpt>
      <trkpt lat="47.46272" lon="8.31389">
        <ele>391.5</ele>
        <time>2022-10-02T14:06:53Z</time>
      </trkpt>
      <trkpt lat="47.46269" lon="8.31391">
        <ele>391.5</ele>
        <time>2022-10-02T14:06:54Z</time>
      </trkpt>
      <trkpt lat="47.46266" lon="8.31394">
        <ele>391.5</ele>
        <time>2022-10-02T14:06:55Z</time>
      </trkpt>
      <trkpt lat="47.46263" lon="8.31399">
        <ele>391.5</ele>
        <time>2022-10-02T14:06:56Z</time>
      </trkpt>
      <trkpt lat="47.46259" lon="8.31401">
        <ele>391.5</ele>
        <time>2022-10-02T14:06:57Z</time>
      </trkpt>
      <trkpt lat="47.46256" lon="8.31404">
        <ele>391.5</ele>
        <time>2022-10-02T14:06:58Z</time>
      </trkpt>
      <trkpt lat="47.46254" lon="8.31405">
        <ele>391.5</ele>
        <time>2022-10-02T14:06:59Z</time>
      </trkpt>
      <trkpt lat="47.46251" lon="8.31409">
        <ele>391.5</ele>
        <time>2022-10-02T14:07:00Z</time>
      </trkpt>
      <trkpt lat="47.46246" lon="8.31413">
        <ele>391.5</ele>
        <time>2022-10-02T14:07:01Z</time>
      </trkpt>
      <trkpt lat="47.46241" lon="8.31417">
        <ele>391.5</ele>
        <time>2022-10-02T14:07:02Z</time>
      </trkpt>
      <trkpt lat="47.46238" lon="8.31421">
        <ele>391.6</ele>
        <time>2022-10-02T14:07:03Z</time>
      </trkpt>
      <trkpt lat="47.46235" lon="8.31423">
        <ele>391.6</ele>
        <time>2022-10-02T14:07:04Z</time>
      </trkpt>
      <trkpt lat="47.46231" lon="8.31427">
        <ele>391.6</ele>
        <time>2022-10-02T14:07:05Z</time>
      </trkpt>
      <trkpt lat="47.46226" lon="8.31434">
        <ele>391.6</ele>
        <time>2022-10-02T14:07:06Z</time>
      </trkpt>
      <trkpt lat="47.46222" lon="8.31436">
        <ele>391.6</ele>
        <time>2022-10-02T14:07:07Z</time>
      </trkpt>
      <trkpt lat="47.46218" lon="8.3144">
        <ele>391.6</ele>
        <time>2022-10-02T14:07:08Z</time>
      </trkpt>
      <trkpt lat="47.46212" lon="8.31442">
        <ele>391.6</ele>
        <time>2022-10-02T14:07:09Z</time>
      </trkpt>
      <trkpt lat="47.46208" lon="8.31445">
        <ele>391.6</ele>
        <time>2022-10-02T14:07:10Z</time>
      </trkpt>
      <trkpt lat="47.46205" lon="8.31446">
        <ele>391.6</ele>
        <time>2022-10-02T14:07:11Z</time>
      </trkpt>
      <trkpt lat="47.46202" lon="8.31449">
        <ele>391.5</ele>
        <time>2022-10-02T14:07:12Z</time>
      </trkpt>
      <trkpt lat="47.46197" lon="8.31452">
        <ele>391.5</ele>
        <time>2022-10-02T14:07:13Z</time>
      </trkpt>
      <trkpt lat="47.46193" lon="8.31455">
        <ele>391.5</ele>
        <time>2022-10-02T14:07:14Z</time>
      </trkpt>
      <trkpt lat="47.46191" lon="8.31456">
        <ele>391.5</ele>
        <time>2022-10-02T14:07:15Z</time>
      </trkpt>
      <trkpt lat="47.46186" lon="8.31462">
        <ele>391.5</ele>
        <time>2022-10-02T14:07:16Z</time>
      </trkpt>
      <trkpt lat="47.46182" lon="8.31468">
        <ele>391.5</ele>
        <time>2022-10-02T14:07:17Z</time>
      </trkpt>
      <trkpt lat="47.46178" lon="8.3147">
        <ele>391.5</ele>
        <time>2022-10-02T14:07:18Z</time>
      </trkpt>
      <trkpt lat="47.46172" lon="8.31473">
        <ele>391.5</ele>
        <time>2022-10-02T14:07:19Z</time>
      </trkpt>
      <trkpt lat="47.46168" lon="8.31478">
        <ele>391.5</ele>
        <time>2022-10-02T14:07:20Z</time>
      </trkpt>
      <trkpt lat="47.46164" lon="8.31485">
        <ele>391.5</ele>
        <time>2022-10-02T14:07:21Z</time>
      </trkpt>
      <trkpt lat="47.46159" lon="8.31488">
        <ele>391.5</ele>
        <time>2022-10-02T14:07:22Z</time>
      </trkpt>
      <trkpt lat="47.46155" lon="8.31493">
        <ele>391.5</ele>
        <time>2022-10-02T14:07:23Z</time>
      </trkpt>
      <trkpt lat="47.46151" lon="8.31495">
        <ele>391.5</ele>
        <time>2022-10-02T14:07:24Z</time>
      </trkpt>
      <trkpt lat="47.46146" lon="8.31497">
        <ele>391.5</ele>
        <time>2022-10-02T14:07:25Z</time>
      </trkpt>
      <trkpt lat="47.46141" lon="8.315">
        <ele>391.5</ele>
        <time>2022-10-02T14:07:26Z</time>
      </trkpt>
      <trkpt lat="47.46136" lon="8.31504">
        <ele>391.5</ele>
        <time>2022-10-02T14:07:27Z</time>
      </trkpt>
      <trkpt lat="47.46132" lon="8.31509">
        <ele>391.5</ele>
        <time>2022-10-02T14:07:28Z</time>
      </trkpt>
      <trkpt lat="47.46129" lon="8.31513">
        <ele>391.6</ele>
        <time>2022-10-02T14:07:29Z</time>
      </trkpt>
      <trkpt lat="47.46124" lon="8.31517">
        <ele>391.6</ele>
        <time>2022-10-02T14:07:30Z</time>
      </trkpt>
      <trkpt lat="47.46121" lon="8.3152">
        <ele>391.6</ele>
        <time>2022-10-02T14:07:31Z</time>
      </trkpt>
      <trkpt lat="47.46117" lon="8.31523">
        <ele>391.6</ele>
        <time>2022-10-02T14:07:32Z</time>
      </trkpt>
      <trkpt lat="47.46114" lon="8.31527">
        <ele>391.6</ele>
        <time>2022-10-02T14:07:33Z</time>
      </trkpt>
      <trkpt lat="47.4611" lon="8.31532">
        <ele>391.6</ele>
        <time>2022-10-02T14:07:34Z</time>
      </trkpt>
      <trkpt lat="47.46107" lon="8.31534">
        <ele>391.6</ele>
        <time>2022-10-02T14:07:35Z</time>
      </trkpt>
      <trkpt lat="47.46103" lon="8.31538">
        <ele>391.6</ele>
        <time>2022-10-02T14:07:36Z</time>
      </trkpt>
      <trkpt lat="47.46099" lon="8.31541">
        <ele>391.6</ele>
        <time>2022-10-02T14:07:37Z</time>
      </trkpt>
      <trkpt lat="47.46096" lon="8.31545">
        <ele>391.6</ele>
        <time>2022-10-02T14:07:38Z</time>
      </trkpt>
      <trkpt lat="47.46092" lon="8.31547">
        <ele>391.5</ele>
        <time>2022-10-02T14:07:39Z</time>
      </trkpt>
      <trkpt lat="47.46089" lon="8.3155">
        <ele>391.5</ele>
        <time>2022-10-02T14:07:40Z</time>
      </trkpt>
      <trkpt lat="47.46085" lon="8.31553">
        <ele>391.5</ele>
        <time>2022-10-02T14:07:41Z</time>
      </trkpt>
      <trkpt lat="47.46081" lon="8.31557">
        <ele>391.4</ele>
        <time>2022-10-02T14:07:42Z</time>
      </trkpt>
      <trkpt lat="47.46077" lon="8.3156">
        <ele>391.4</ele>
        <time>2022-10-02T14:07:43Z</time>
      </trkpt>
      <trkpt lat="47.46073" lon="8.31563">
        <ele>391.4</ele>
        <time>2022-10-02T14:07:44Z</time>
      </trkpt>
      <trkpt lat="47.4607" lon="8.31567">
        <ele>391.4</ele>
        <time>2022-10-02T14:07:45Z</time>
      </trkpt>
      <trkpt lat="47.46066" lon="8.31569">
        <ele>391.3</ele>
        <time>2022-10-02T14:07:46Z</time>
      </trkpt>
      <trkpt lat="47.46063" lon="8.31572">
        <ele>391.3</ele>
        <time>2022-10-02T14:07:47Z</time>
      </trkpt>
      <trkpt lat="47.46059" lon="8.31575">
        <ele>391.3</ele>
        <time>2022-10-02T14:07:48Z</time>
      </trkpt>
      <trkpt lat="47.46056" lon="8.31578">
        <ele>391.3</ele>
        <time>2022-10-02T14:07:49Z</time>
      </trkpt>
      <trkpt lat="47.46053" lon="8.3158">
        <ele>391.3</ele>
        <time>2022-10-02T14:07:50Z</time>
      </trkpt>
      <trkpt lat="47.46048" lon="8.31585">
        <ele>391.2</ele>
        <time>2022-10-02T14:07:51Z</time>
      </trkpt>
      <trkpt lat="47.46045" lon="8.31588">
        <ele>391.2</ele>
        <time>2022-10-02T14:07:52Z</time>
      </trkpt>
      <trkpt lat="47.46041" lon="8.31592">
        <ele>391.2</ele>
        <time>2022-10-02T14:07:53Z</time>
      </trkpt>
      <trkpt lat="47.46037" lon="8.31594">
        <ele>391.1</ele>
        <time>2022-10-02T14:07:54Z</time>
      </trkpt>
      <trkpt lat="47.46034" lon="8.31598">
        <ele>391.1</ele>
        <time>2022-10-02T14:07:55Z</time>
      </trkpt>
      <trkpt lat="47.46028" lon="8.31602">
        <ele>391.1</ele>
        <time>2022-10-02T14:07:56Z</time>
      </trkpt>
      <trkpt lat="47.46023" lon="8.31604">
        <ele>391</ele>
        <time>2022-10-02T14:07:57Z</time>
      </trkpt>
      <trkpt lat="47.46019" lon="8.3161">
        <ele>391</ele>
        <time>2022-10-02T14:07:58Z</time>
      </trkpt>
      <trkpt lat="47.46015" lon="8.31613">
        <ele>390.9</ele>
        <time>2022-10-02T14:07:59Z</time>
      </trkpt>
      <trkpt lat="47.46011" lon="8.31617">
        <ele>390.8</ele>
        <time>2022-10-02T14:08:00Z</time>
      </trkpt>
      <trkpt lat="47.46007" lon="8.31621">
        <ele>390.7</ele>
        <time>2022-10-02T14:08:01Z</time>
      </trkpt>
      <trkpt lat="47.46001" lon="8.31624">
        <ele>390.6</ele>
        <time>2022-10-02T14:08:02Z</time>
      </trkpt>
      <trkpt lat="47.45996" lon="8.31628">
        <ele>390.5</ele>
        <time>2022-10-02T14:08:03Z</time>
      </trkpt>
      <trkpt lat="47.45991" lon="8.31632">
        <ele>390.4</ele>
        <time>2022-10-02T14:08:04Z</time>
      </trkpt>
      <trkpt lat="47.45986" lon="8.31637">
        <ele>390.4</ele>
        <time>2022-10-02T14:08:05Z</time>
      </trkpt>
      <trkpt lat="47.4598" lon="8.31642">
        <ele>390.3</ele>
        <time>2022-10-02T14:08:06Z</time>
      </trkpt>
      <trkpt lat="47.45975" lon="8.31647">
        <ele>390.2</ele>
        <time>2022-10-02T14:08:07Z</time>
      </trkpt>
      <trkpt lat="47.4597" lon="8.31652">
        <ele>390.2</ele>
        <time>2022-10-02T14:08:08Z</time>
      </trkpt>
      <trkpt lat="47.45965" lon="8.31657">
        <ele>390.1</ele>
        <time>2022-10-02T14:08:09Z</time>
      </trkpt>
      <trkpt lat="47.45961" lon="8.31662">
        <ele>390</ele>
        <time>2022-10-02T14:08:10Z</time>
      </trkpt>
      <trkpt lat="47.45955" lon="8.31669">
        <ele>389.9</ele>
        <time>2022-10-02T14:08:11Z</time>
      </trkpt>
      <trkpt lat="47.45951" lon="8.31675">
        <ele>389.8</ele>
        <time>2022-10-02T14:08:12Z</time>
      </trkpt>
      <trkpt lat="47.45948" lon="8.31681">
        <ele>389.7</ele>
        <time>2022-10-02T14:08:13Z</time>
      </trkpt>
      <trkpt lat="47.45944" lon="8.31688">
        <ele>389.6</ele>
        <time>2022-10-02T14:08:14Z</time>
      </trkpt>
      <trkpt lat="47.4594" lon="8.31694">
        <ele>389.6</ele>
        <time>2022-10-02T14:08:15Z</time>
      </trkpt>
      <trkpt lat="47.45936" lon="8.317">
        <ele>389.5</ele>
        <time>2022-10-02T14:08:16Z</time>
      </trkpt>
      <trkpt lat="47.45931" lon="8.31706">
        <ele>389.4</ele>
        <time>2022-10-02T14:08:17Z</time>
      </trkpt>
      <trkpt lat="47.45928" lon="8.31713">
        <ele>389.4</ele>
        <time>2022-10-02T14:08:18Z</time>
      </trkpt>
      <trkpt lat="47.45924" lon="8.31718">
        <ele>389.3</ele>
        <time>2022-10-02T14:08:19Z</time>
      </trkpt>
      <trkpt lat="47.45921" lon="8.31724">
        <ele>389.3</ele>
        <time>2022-10-02T14:08:20Z</time>
      </trkpt>
      <trkpt lat="47.45917" lon="8.31729">
        <ele>389.3</ele>
        <time>2022-10-02T14:08:21Z</time>
      </trkpt>
      <trkpt lat="47.45914" lon="8.31734">
        <ele>389.3</ele>
        <time>2022-10-02T14:08:22Z</time>
      </trkpt>
      <trkpt lat="47.45911" lon="8.3174">
        <ele>389.4</ele>
        <time>2022-10-02T14:08:23Z</time>
      </trkpt>
      <trkpt lat="47.45908" lon="8.31746">
        <ele>389.4</ele>
        <time>2022-10-02T14:08:24Z</time>
      </trkpt>
      <trkpt lat="47.45905" lon="8.3175">
        <ele>389.5</ele>
        <time>2022-10-02T14:08:25Z</time>
      </trkpt>
      <trkpt lat="47.45902" lon="8.31756">
        <ele>389.5</ele>
        <time>2022-10-02T14:08:26Z</time>
      </trkpt>
      <trkpt lat="47.45897" lon="8.3176">
        <ele>389.6</ele>
        <time>2022-10-02T14:08:27Z</time>
      </trkpt>
      <trkpt lat="47.45893" lon="8.31766">
        <ele>389.7</ele>
        <time>2022-10-02T14:08:28Z</time>
      </trkpt>
      <trkpt lat="47.45889" lon="8.31773">
        <ele>389.8</ele>
        <time>2022-10-02T14:08:29Z</time>
      </trkpt>
      <trkpt lat="47.45887" lon="8.31777">
        <ele>389.9</ele>
        <time>2022-10-02T14:08:30Z</time>
      </trkpt>
      <trkpt lat="47.45884" lon="8.31777">
        <ele>390</ele>
        <time>2022-10-02T14:08:31Z</time>
      </trkpt>
      <trkpt lat="47.45879" lon="8.31777">
        <ele>389.9</ele>
        <time>2022-10-02T14:08:32Z</time>
      </trkpt>
      <trkpt lat="47.45874" lon="8.31778">
        <ele>389.9</ele>
        <time>2022-10-02T14:08:33Z</time>
      </trkpt>
      <trkpt lat="47.4587" lon="8.31778">
        <ele>390</ele>
        <time>2022-10-02T14:08:34Z</time>
      </trkpt>
      <trkpt lat="47.45867" lon="8.3178">
        <ele>390</ele>
        <time>2022-10-02T14:08:35Z</time>
      </trkpt>
      <trkpt lat="47.45864" lon="8.31783">
        <ele>390.1</ele>
        <time>2022-10-02T14:08:36Z</time>
      </trkpt>
      <trkpt lat="47.4586" lon="8.31786">
        <ele>390.1</ele>
        <time>2022-10-02T14:08:37Z</time>
      </trkpt>
      <trkpt lat="47.45857" lon="8.31789">
        <ele>390.2</ele>
        <time>2022-10-02T14:08:38Z</time>
      </trkpt>
      <trkpt lat="47.45854" lon="8.31793">
        <ele>390.3</ele>
        <time>2022-10-02T14:08:39Z</time>
      </trkpt>
      <trkpt lat="47.45851" lon="8.31796">
        <ele>390.4</ele>
        <time>2022-10-02T14:08:40Z</time>
      </trkpt>
      <trkpt lat="47.4585" lon="8.31801">
        <ele>390.5</ele>
        <time>2022-10-02T14:08:41Z</time>
      </trkpt>
      <trkpt lat="47.45848" lon="8.31804">
        <ele>390.5</ele>
        <time>2022-10-02T14:08:42Z</time>
      </trkpt>
      <trkpt lat="47.45846" lon="8.31809">
        <ele>390.6</ele>
        <time>2022-10-02T14:08:43Z</time>
      </trkpt>
      <trkpt lat="47.45844" lon="8.31814">
        <ele>390.7</ele>
        <time>2022-10-02T14:08:44Z</time>
      </trkpt>
      <trkpt lat="47.45842" lon="8.31818">
        <ele>390.8</ele>
        <time>2022-10-02T14:08:45Z</time>
      </trkpt>
      <trkpt lat="47.4584" lon="8.31822">
        <ele>390.9</ele>
        <time>2022-10-02T14:08:46Z</time>
      </trkpt>
      <trkpt lat="47.45839" lon="8.31827">
        <ele>391</ele>
        <time>2022-10-02T14:08:47Z</time>
      </trkpt>
      <trkpt lat="47.45838" lon="8.31833">
        <ele>391.2</ele>
        <time>2022-10-02T14:08:48Z</time>
      </trkpt>
      <trkpt lat="47.45837" lon="8.31836">
        <ele>391.2</ele>
        <time>2022-10-02T14:08:49Z</time>
      </trkpt>
      <trkpt lat="47.45836" lon="8.3184">
        <ele>391.3</ele>
        <time>2022-10-02T14:08:50Z</time>
      </trkpt>
      <trkpt lat="47.45834" lon="8.31845">
        <ele>391.5</ele>
        <time>2022-10-02T14:08:51Z</time>
      </trkpt>
      <trkpt lat="47.45833" lon="8.31848">
        <ele>391.6</ele>
        <time>2022-10-02T14:08:52Z</time>
      </trkpt>
      <trkpt lat="47.45832" lon="8.31854">
        <ele>391.7</ele>
        <time>2022-10-02T14:08:53Z</time>
      </trkpt>
      <trkpt lat="47.45831" lon="8.31858">
        <ele>391.9</ele>
        <time>2022-10-02T14:08:54Z</time>
      </trkpt>
      <trkpt lat="47.4583" lon="8.31864">
        <ele>392</ele>
        <time>2022-10-02T14:08:55Z</time>
      </trkpt>
      <trkpt lat="47.45829" lon="8.31869">
        <ele>392.2</ele>
        <time>2022-10-02T14:08:56Z</time>
      </trkpt>
      <trkpt lat="47.45827" lon="8.31872">
        <ele>392.3</ele>
        <time>2022-10-02T14:08:57Z</time>
      </trkpt>
      <trkpt lat="47.45826" lon="8.31877">
        <ele>392.4</ele>
        <time>2022-10-02T14:08:58Z</time>
      </trkpt>
      <trkpt lat="47.45824" lon="8.31882">
        <ele>392.6</ele>
        <time>2022-10-02T14:08:59Z</time>
      </trkpt>
      <trkpt lat="47.45823" lon="8.31887">
        <ele>392.7</ele>
        <time>2022-10-02T14:09:00Z</time>
      </trkpt>
      <trkpt lat="47.45822" lon="8.3189">
        <ele>392.8</ele>
        <time>2022-10-02T14:09:01Z</time>
      </trkpt>
      <trkpt lat="47.45821" lon="8.31896">
        <ele>392.9</ele>
        <time>2022-10-02T14:09:02Z</time>
      </trkpt>
      <trkpt lat="47.4582" lon="8.31902">
        <ele>393.1</ele>
        <time>2022-10-02T14:09:03Z</time>
      </trkpt>
      <trkpt lat="47.4582" lon="8.31905">
        <ele>393.2</ele>
        <time>2022-10-02T14:09:04Z</time>
      </trkpt>
      <trkpt lat="47.45818" lon="8.3191">
        <ele>393.3</ele>
        <time>2022-10-02T14:09:05Z</time>
      </trkpt>
      <trkpt lat="47.45818" lon="8.31915">
        <ele>393.4</ele>
        <time>2022-10-02T14:09:06Z</time>
      </trkpt>
      <trkpt lat="47.45817" lon="8.31921">
        <ele>393.5</ele>
        <time>2022-10-02T14:09:07Z</time>
      </trkpt>
      <trkpt lat="47.45817" lon="8.31926">
        <ele>393.7</ele>
        <time>2022-10-02T14:09:08Z</time>
      </trkpt>
      <trkpt lat="47.45815" lon="8.31931">
        <ele>393.8</ele>
        <time>2022-10-02T14:09:09Z</time>
      </trkpt>
      <trkpt lat="47.45813" lon="8.31936">
        <ele>394</ele>
        <time>2022-10-02T14:09:10Z</time>
      </trkpt>
      <trkpt lat="47.45813" lon="8.31938">
        <ele>394</ele>
        <time>2022-10-02T14:09:11Z</time>
      </trkpt>
      <trkpt lat="47.45813" lon="8.31945">
        <ele>394.2</ele>
        <time>2022-10-02T14:09:12Z</time>
      </trkpt>
      <trkpt lat="47.45812" lon="8.31951">
        <ele>394.3</ele>
        <time>2022-10-02T14:09:13Z</time>
      </trkpt>
      <trkpt lat="47.45812" lon="8.31954">
        <ele>394.4</ele>
        <time>2022-10-02T14:09:14Z</time>
      </trkpt>
      <trkpt lat="47.45812" lon="8.31959">
        <ele>394.5</ele>
        <time>2022-10-02T14:09:15Z</time>
      </trkpt>
      <trkpt lat="47.45811" lon="8.31965">
        <ele>394.7</ele>
        <time>2022-10-02T14:09:16Z</time>
      </trkpt>
      <trkpt lat="47.45811" lon="8.3197">
        <ele>394.8</ele>
        <time>2022-10-02T14:09:17Z</time>
      </trkpt>
      <trkpt lat="47.4581" lon="8.31976">
        <ele>394.9</ele>
        <time>2022-10-02T14:09:18Z</time>
      </trkpt>
      <trkpt lat="47.45811" lon="8.3198">
        <ele>395</ele>
        <time>2022-10-02T14:09:19Z</time>
      </trkpt>
      <trkpt lat="47.45809" lon="8.31987">
        <ele>395.1</ele>
        <time>2022-10-02T14:09:20Z</time>
      </trkpt>
      <trkpt lat="47.4581" lon="8.31991">
        <ele>395.2</ele>
        <time>2022-10-02T14:09:21Z</time>
      </trkpt>
      <trkpt lat="47.45809" lon="8.31995">
        <ele>395.3</ele>
        <time>2022-10-02T14:09:22Z</time>
      </trkpt>
      <trkpt lat="47.4581" lon="8.31999">
        <ele>395.4</ele>
        <time>2022-10-02T14:09:23Z</time>
      </trkpt>
      <trkpt lat="47.45809" lon="8.32004">
        <ele>395.4</ele>
        <time>2022-10-02T14:09:24Z</time>
      </trkpt>
      <trkpt lat="47.45809" lon="8.32008">
        <ele>395.5</ele>
        <time>2022-10-02T14:09:25Z</time>
      </trkpt>
      <trkpt lat="47.45809" lon="8.32013">
        <ele>395.6</ele>
        <time>2022-10-02T14:09:26Z</time>
      </trkpt>
      <trkpt lat="47.45808" lon="8.32019">
        <ele>395.6</ele>
        <time>2022-10-02T14:09:27Z</time>
      </trkpt>
      <trkpt lat="47.45806" lon="8.32025">
        <ele>395.7</ele>
        <time>2022-10-02T14:09:28Z</time>
      </trkpt>
      <trkpt lat="47.45806" lon="8.3203">
        <ele>395.8</ele>
        <time>2022-10-02T14:09:29Z</time>
      </trkpt>
      <trkpt lat="47.45806" lon="8.32036">
        <ele>395.8</ele>
        <time>2022-10-02T14:09:30Z</time>
      </trkpt>
      <trkpt lat="47.45806" lon="8.3204">
        <ele>395.9</ele>
        <time>2022-10-02T14:09:31Z</time>
      </trkpt>
      <trkpt lat="47.45805" lon="8.32047">
        <ele>396</ele>
        <time>2022-10-02T14:09:32Z</time>
      </trkpt>
      <trkpt lat="47.45805" lon="8.32052">
        <ele>396</ele>
        <time>2022-10-02T14:09:33Z</time>
      </trkpt>
      <trkpt lat="47.45805" lon="8.32058">
        <ele>396.1</ele>
        <time>2022-10-02T14:09:34Z</time>
      </trkpt>
      <trkpt lat="47.45805" lon="8.32064">
        <ele>396.1</ele>
        <time>2022-10-02T14:09:35Z</time>
      </trkpt>
      <trkpt lat="47.45804" lon="8.32069">
        <ele>396.1</ele>
        <time>2022-10-02T14:09:36Z</time>
      </trkpt>
      <trkpt lat="47.45804" lon="8.32074">
        <ele>396.2</ele>
        <time>2022-10-02T14:09:37Z</time>
      </trkpt>
      <trkpt lat="47.45806" lon="8.32079">
        <ele>396.2</ele>
        <time>2022-10-02T14:09:38Z</time>
      </trkpt>
      <trkpt lat="47.45805" lon="8.32086">
        <ele>396.2</ele>
        <time>2022-10-02T14:09:39Z</time>
      </trkpt>
      <trkpt lat="47.45806" lon="8.32092">
        <ele>396.2</ele>
        <time>2022-10-02T14:09:40Z</time>
      </trkpt>
      <trkpt lat="47.45806" lon="8.32098">
        <ele>396.2</ele>
        <time>2022-10-02T14:09:41Z</time>
      </trkpt>
      <trkpt lat="47.45807" lon="8.32106">
        <ele>396.2</ele>
        <time>2022-10-02T14:09:42Z</time>
      </trkpt>
      <trkpt lat="47.45808" lon="8.3211">
        <ele>396.2</ele>
        <time>2022-10-02T14:09:43Z</time>
      </trkpt>
      <trkpt lat="47.45808" lon="8.32117">
        <ele>396.2</ele>
        <time>2022-10-02T14:09:44Z</time>
      </trkpt>
      <trkpt lat="47.45808" lon="8.32122">
        <ele>396.2</ele>
        <time>2022-10-02T14:09:45Z</time>
      </trkpt>
      <trkpt lat="47.45808" lon="8.32128">
        <ele>396.2</ele>
        <time>2022-10-02T14:09:46Z</time>
      </trkpt>
      <trkpt lat="47.45809" lon="8.32135">
        <ele>396.2</ele>
        <time>2022-10-02T14:09:47Z</time>
      </trkpt>
      <trkpt lat="47.45808" lon="8.32141">
        <ele>396.2</ele>
        <time>2022-10-02T14:09:48Z</time>
      </trkpt>
      <trkpt lat="47.45809" lon="8.32144">
        <ele>396.2</ele>
        <time>2022-10-02T14:09:49Z</time>
      </trkpt>
      <trkpt lat="47.45809" lon="8.3215">
        <ele>396.3</ele>
        <time>2022-10-02T14:09:50Z</time>
      </trkpt>
      <trkpt lat="47.4581" lon="8.32158">
        <ele>396.3</ele>
        <time>2022-10-02T14:09:51Z</time>
      </trkpt>
      <trkpt lat="47.45811" lon="8.32163">
        <ele>396.3</ele>
        <time>2022-10-02T14:09:52Z</time>
      </trkpt>
      <trkpt lat="47.45812" lon="8.3217">
        <ele>396.4</ele>
        <time>2022-10-02T14:09:53Z</time>
      </trkpt>
      <trkpt lat="47.45812" lon="8.32176">
        <ele>396.4</ele>
        <time>2022-10-02T14:09:54Z</time>
      </trkpt>
      <trkpt lat="47.45814" lon="8.3218">
        <ele>396.4</ele>
        <time>2022-10-02T14:09:55Z</time>
      </trkpt>
      <trkpt lat="47.45815" lon="8.32185">
        <ele>396.4</ele>
        <time>2022-10-02T14:09:56Z</time>
      </trkpt>
      <trkpt lat="47.45816" lon="8.32193">
        <ele>396.4</ele>
        <time>2022-10-02T14:09:57Z</time>
      </trkpt>
      <trkpt lat="47.45816" lon="8.32198">
        <ele>396.5</ele>
        <time>2022-10-02T14:09:58Z</time>
      </trkpt>
      <trkpt lat="47.45817" lon="8.32204">
        <ele>396.5</ele>
        <time>2022-10-02T14:09:59Z</time>
      </trkpt>
      <trkpt lat="47.45818" lon="8.32211">
        <ele>396.5</ele>
        <time>2022-10-02T14:10:00Z</time>
      </trkpt>
      <trkpt lat="47.45819" lon="8.32217">
        <ele>396.5</ele>
        <time>2022-10-02T14:10:01Z</time>
      </trkpt>
      <trkpt lat="47.45821" lon="8.32224">
        <ele>396.5</ele>
        <time>2022-10-02T14:10:02Z</time>
      </trkpt>
      <trkpt lat="47.45822" lon="8.3223">
        <ele>396.5</ele>
        <time>2022-10-02T14:10:03Z</time>
      </trkpt>
      <trkpt lat="47.45822" lon="8.32236">
        <ele>396.6</ele>
        <time>2022-10-02T14:10:04Z</time>
      </trkpt>
      <trkpt lat="47.45824" lon="8.32243">
        <ele>396.6</ele>
        <time>2022-10-02T14:10:05Z</time>
      </trkpt>
      <trkpt lat="47.45825" lon="8.32248">
        <ele>396.6</ele>
        <time>2022-10-02T14:10:06Z</time>
      </trkpt>
      <trkpt lat="47.45827" lon="8.32256">
        <ele>396.6</ele>
        <time>2022-10-02T14:10:07Z</time>
      </trkpt>
      <trkpt lat="47.45829" lon="8.32263">
        <ele>396.7</ele>
        <time>2022-10-02T14:10:08Z</time>
      </trkpt>
      <trkpt lat="47.4583" lon="8.32269">
        <ele>396.7</ele>
        <time>2022-10-02T14:10:09Z</time>
      </trkpt>
      <trkpt lat="47.45833" lon="8.32276">
        <ele>396.7</ele>
        <time>2022-10-02T14:10:10Z</time>
      </trkpt>
      <trkpt lat="47.45834" lon="8.32281">
        <ele>396.7</ele>
        <time>2022-10-02T14:10:11Z</time>
      </trkpt>
      <trkpt lat="47.45835" lon="8.32287">
        <ele>396.7</ele>
        <time>2022-10-02T14:10:12Z</time>
      </trkpt>
      <trkpt lat="47.45836" lon="8.32294">
        <ele>396.7</ele>
        <time>2022-10-02T14:10:13Z</time>
      </trkpt>
      <trkpt lat="47.45838" lon="8.32299">
        <ele>396.7</ele>
        <time>2022-10-02T14:10:14Z</time>
      </trkpt>
      <trkpt lat="47.45839" lon="8.32304">
        <ele>396.7</ele>
        <time>2022-10-02T14:10:15Z</time>
      </trkpt>
      <trkpt lat="47.45841" lon="8.32309">
        <ele>396.7</ele>
        <time>2022-10-02T14:10:16Z</time>
      </trkpt>
      <trkpt lat="47.45843" lon="8.32316">
        <ele>396.8</ele>
        <time>2022-10-02T14:10:17Z</time>
      </trkpt>
      <trkpt lat="47.45845" lon="8.32322">
        <ele>396.8</ele>
        <time>2022-10-02T14:10:18Z</time>
      </trkpt>
      <trkpt lat="47.45846" lon="8.32328">
        <ele>396.8</ele>
        <time>2022-10-02T14:10:19Z</time>
      </trkpt>
      <trkpt lat="47.45847" lon="8.32333">
        <ele>396.8</ele>
        <time>2022-10-02T14:10:20Z</time>
      </trkpt>
      <trkpt lat="47.45848" lon="8.3234">
        <ele>396.8</ele>
        <time>2022-10-02T14:10:21Z</time>
      </trkpt>
      <trkpt lat="47.45849" lon="8.32344">
        <ele>396.8</ele>
        <time>2022-10-02T14:10:22Z</time>
      </trkpt>
      <trkpt lat="47.4585" lon="8.32352">
        <ele>396.8</ele>
        <time>2022-10-02T14:10:23Z</time>
      </trkpt>
      <trkpt lat="47.45851" lon="8.32357">
        <ele>396.8</ele>
        <time>2022-10-02T14:10:24Z</time>
      </trkpt>
      <trkpt lat="47.45852" lon="8.32363">
        <ele>396.8</ele>
        <time>2022-10-02T14:10:25Z</time>
      </trkpt>
      <trkpt lat="47.45852" lon="8.3237">
        <ele>396.8</ele>
        <time>2022-10-02T14:10:26Z</time>
      </trkpt>
      <trkpt lat="47.45853" lon="8.32375">
        <ele>396.8</ele>
        <time>2022-10-02T14:10:27Z</time>
      </trkpt>
      <trkpt lat="47.45854" lon="8.32382">
        <ele>396.8</ele>
        <time>2022-10-02T14:10:28Z</time>
      </trkpt>
      <trkpt lat="47.45854" lon="8.32389">
        <ele>396.8</ele>
        <time>2022-10-02T14:10:29Z</time>
      </trkpt>
      <trkpt lat="47.45854" lon="8.32394">
        <ele>396.8</ele>
        <time>2022-10-02T14:10:30Z</time>
      </trkpt>
      <trkpt lat="47.45855" lon="8.32401">
        <ele>396.8</ele>
        <time>2022-10-02T14:10:31Z</time>
      </trkpt>
      <trkpt lat="47.45856" lon="8.32407">
        <ele>396.8</ele>
        <time>2022-10-02T14:10:32Z</time>
      </trkpt>
      <trkpt lat="47.45858" lon="8.32413">
        <ele>396.9</ele>
        <time>2022-10-02T14:10:33Z</time>
      </trkpt>
      <trkpt lat="47.45859" lon="8.3242">
        <ele>396.9</ele>
        <time>2022-10-02T14:10:34Z</time>
      </trkpt>
      <trkpt lat="47.4586" lon="8.32427">
        <ele>396.8</ele>
        <time>2022-10-02T14:10:35Z</time>
      </trkpt>
      <trkpt lat="47.4586" lon="8.32434">
        <ele>396.8</ele>
        <time>2022-10-02T14:10:36Z</time>
      </trkpt>
      <trkpt lat="47.45861" lon="8.3244">
        <ele>396.8</ele>
        <time>2022-10-02T14:10:37Z</time>
      </trkpt>
      <trkpt lat="47.45861" lon="8.32447">
        <ele>396.8</ele>
        <time>2022-10-02T14:10:38Z</time>
      </trkpt>
      <trkpt lat="47.45862" lon="8.32453">
        <ele>396.8</ele>
        <time>2022-10-02T14:10:39Z</time>
      </trkpt>
      <trkpt lat="47.45862" lon="8.32458">
        <ele>396.8</ele>
        <time>2022-10-02T14:10:40Z</time>
      </trkpt>
      <trkpt lat="47.45863" lon="8.32464">
        <ele>396.8</ele>
        <time>2022-10-02T14:10:41Z</time>
      </trkpt>
      <trkpt lat="47.45864" lon="8.32472">
        <ele>396.9</ele>
        <time>2022-10-02T14:10:42Z</time>
      </trkpt>
      <trkpt lat="47.45865" lon="8.32478">
        <ele>396.9</ele>
        <time>2022-10-02T14:10:43Z</time>
      </trkpt>
      <trkpt lat="47.45865" lon="8.32484">
        <ele>396.9</ele>
        <time>2022-10-02T14:10:44Z</time>
      </trkpt>
      <trkpt lat="47.45865" lon="8.3249">
        <ele>396.9</ele>
        <time>2022-10-02T14:10:45Z</time>
      </trkpt>
      <trkpt lat="47.45865" lon="8.32497">
        <ele>396.9</ele>
        <time>2022-10-02T14:10:46Z</time>
      </trkpt>
      <trkpt lat="47.45865" lon="8.32504">
        <ele>396.9</ele>
        <time>2022-10-02T14:10:47Z</time>
      </trkpt>
      <trkpt lat="47.45864" lon="8.32511">
        <ele>396.9</ele>
        <time>2022-10-02T14:10:48Z</time>
      </trkpt>
      <trkpt lat="47.45864" lon="8.32518">
        <ele>397</ele>
        <time>2022-10-02T14:10:49Z</time>
      </trkpt>
      <trkpt lat="47.45864" lon="8.32524">
        <ele>397</ele>
        <time>2022-10-02T14:10:50Z</time>
      </trkpt>
      <trkpt lat="47.45864" lon="8.3253">
        <ele>397</ele>
        <time>2022-10-02T14:10:51Z</time>
      </trkpt>
      <trkpt lat="47.45864" lon="8.32539">
        <ele>397</ele>
        <time>2022-10-02T14:10:52Z</time>
      </trkpt>
      <trkpt lat="47.45863" lon="8.32544">
        <ele>397</ele>
        <time>2022-10-02T14:10:53Z</time>
      </trkpt>
      <trkpt lat="47.45863" lon="8.3255">
        <ele>397</ele>
        <time>2022-10-02T14:10:54Z</time>
      </trkpt>
      <trkpt lat="47.45862" lon="8.32559">
        <ele>397.1</ele>
        <time>2022-10-02T14:10:55Z</time>
      </trkpt>
      <trkpt lat="47.45862" lon="8.32565">
        <ele>397.1</ele>
        <time>2022-10-02T14:10:56Z</time>
      </trkpt>
      <trkpt lat="47.45862" lon="8.3257">
        <ele>397.2</ele>
        <time>2022-10-02T14:10:57Z</time>
      </trkpt>
      <trkpt lat="47.45862" lon="8.32577">
        <ele>397.2</ele>
        <time>2022-10-02T14:10:58Z</time>
      </trkpt>
      <trkpt lat="47.45861" lon="8.32584">
        <ele>397.2</ele>
        <time>2022-10-02T14:10:59Z</time>
      </trkpt>
      <trkpt lat="47.4586" lon="8.3259">
        <ele>397.3</ele>
        <time>2022-10-02T14:11:00Z</time>
      </trkpt>
      <trkpt lat="47.45859" lon="8.32595">
        <ele>397.3</ele>
        <time>2022-10-02T14:11:01Z</time>
      </trkpt>
      <trkpt lat="47.45859" lon="8.32601">
        <ele>397.3</ele>
        <time>2022-10-02T14:11:02Z</time>
      </trkpt>
      <trkpt lat="47.45858" lon="8.32607">
        <ele>397.4</ele>
        <time>2022-10-02T14:11:03Z</time>
      </trkpt>
      <trkpt lat="47.45857" lon="8.32614">
        <ele>397.4</ele>
        <time>2022-10-02T14:11:04Z</time>
      </trkpt>
      <trkpt lat="47.45856" lon="8.32621">
        <ele>397.4</ele>
        <time>2022-10-02T14:11:05Z</time>
      </trkpt>
      <trkpt lat="47.45855" lon="8.32627">
        <ele>397.4</ele>
        <time>2022-10-02T14:11:06Z</time>
      </trkpt>
      <trkpt lat="47.45854" lon="8.32634">
        <ele>397.5</ele>
        <time>2022-10-02T14:11:07Z</time>
      </trkpt>
      <trkpt lat="47.45853" lon="8.32641">
        <ele>397.5</ele>
        <time>2022-10-02T14:11:08Z</time>
      </trkpt>
      <trkpt lat="47.45852" lon="8.32647">
        <ele>397.5</ele>
        <time>2022-10-02T14:11:09Z</time>
      </trkpt>
      <trkpt lat="47.45851" lon="8.32654">
        <ele>397.5</ele>
        <time>2022-10-02T14:11:10Z</time>
      </trkpt>
      <trkpt lat="47.4585" lon="8.32659">
        <ele>397.6</ele>
        <time>2022-10-02T14:11:11Z</time>
      </trkpt>
      <trkpt lat="47.4585" lon="8.32666">
        <ele>397.6</ele>
        <time>2022-10-02T14:11:12Z</time>
      </trkpt>
      <trkpt lat="47.45848" lon="8.32674">
        <ele>397.6</ele>
        <time>2022-10-02T14:11:13Z</time>
      </trkpt>
      <trkpt lat="47.45847" lon="8.3268">
        <ele>397.6</ele>
        <time>2022-10-02T14:11:14Z</time>
      </trkpt>
      <trkpt lat="47.45846" lon="8.32686">
        <ele>397.7</ele>
        <time>2022-10-02T14:11:15Z</time>
      </trkpt>
      <trkpt lat="47.45845" lon="8.32691">
        <ele>397.7</ele>
        <time>2022-10-02T14:11:16Z</time>
      </trkpt>
      <trkpt lat="47.45844" lon="8.32698">
        <ele>397.7</ele>
        <time>2022-10-02T14:11:17Z</time>
      </trkpt>
      <trkpt lat="47.45842" lon="8.32704">
        <ele>397.8</ele>
        <time>2022-10-02T14:11:18Z</time>
      </trkpt>
      <trkpt lat="47.4584" lon="8.32711">
        <ele>397.8</ele>
        <time>2022-10-02T14:11:19Z</time>
      </trkpt>
      <trkpt lat="47.45839" lon="8.32716">
        <ele>397.8</ele>
        <time>2022-10-02T14:11:20Z</time>
      </trkpt>
      <trkpt lat="47.45838" lon="8.32722">
        <ele>397.9</ele>
        <time>2022-10-02T14:11:21Z</time>
      </trkpt>
      <trkpt lat="47.45836" lon="8.3273">
        <ele>397.9</ele>
        <time>2022-10-02T14:11:22Z</time>
      </trkpt>
      <trkpt lat="47.45834" lon="8.32736">
        <ele>397.9</ele>
        <time>2022-10-02T14:11:23Z</time>
      </trkpt>
      <trkpt lat="47.45833" lon="8.32742">
        <ele>398</ele>
        <time>2022-10-02T14:11:24Z</time>
      </trkpt>
      <trkpt lat="47.45831" lon="8.32748">
        <ele>398</ele>
        <time>2022-10-02T14:11:25Z</time>
      </trkpt>
      <trkpt lat="47.45829" lon="8.32755">
        <ele>398</ele>
        <time>2022-10-02T14:11:26Z</time>
      </trkpt>
      <trkpt lat="47.45828" lon="8.3276">
        <ele>398.1</ele>
        <time>2022-10-02T14:11:27Z</time>
      </trkpt>
      <trkpt lat="47.45826" lon="8.32767">
        <ele>398.1</ele>
        <time>2022-10-02T14:11:28Z</time>
      </trkpt>
      <trkpt lat="47.45825" lon="8.32773">
        <ele>398.1</ele>
        <time>2022-10-02T14:11:29Z</time>
      </trkpt>
      <trkpt lat="47.45823" lon="8.32779">
        <ele>398.1</ele>
        <time>2022-10-02T14:11:30Z</time>
      </trkpt>
      <trkpt lat="47.45822" lon="8.32785">
        <ele>398.2</ele>
        <time>2022-10-02T14:11:31Z</time>
      </trkpt>
      <trkpt lat="47.4582" lon="8.32791">
        <ele>398.2</ele>
        <time>2022-10-02T14:11:32Z</time>
      </trkpt>
      <trkpt lat="47.45818" lon="8.32796">
        <ele>398.2</ele>
        <time>2022-10-02T14:11:33Z</time>
      </trkpt>
      <trkpt lat="47.45817" lon="8.32804">
        <ele>398.3</ele>
        <time>2022-10-02T14:11:34Z</time>
      </trkpt>
      <trkpt lat="47.45814" lon="8.3281">
        <ele>398.3</ele>
        <time>2022-10-02T14:11:35Z</time>
      </trkpt>
      <trkpt lat="47.45813" lon="8.32815">
        <ele>398.3</ele>
        <time>2022-10-02T14:11:36Z</time>
      </trkpt>
      <trkpt lat="47.45811" lon="8.32822">
        <ele>398.3</ele>
        <time>2022-10-02T14:11:37Z</time>
      </trkpt>
      <trkpt lat="47.45809" lon="8.32828">
        <ele>398.4</ele>
        <time>2022-10-02T14:11:38Z</time>
      </trkpt>
      <trkpt lat="47.45808" lon="8.32834">
        <ele>398.4</ele>
        <time>2022-10-02T14:11:39Z</time>
      </trkpt>
      <trkpt lat="47.45806" lon="8.3284">
        <ele>398.4</ele>
        <time>2022-10-02T14:11:40Z</time>
      </trkpt>
      <trkpt lat="47.45804" lon="8.32846">
        <ele>398.4</ele>
        <time>2022-10-02T14:11:41Z</time>
      </trkpt>
      <trkpt lat="47.45802" lon="8.32853">
        <ele>398.5</ele>
        <time>2022-10-02T14:11:42Z</time>
      </trkpt>
      <trkpt lat="47.45799" lon="8.3286">
        <ele>398.5</ele>
        <time>2022-10-02T14:11:43Z</time>
      </trkpt>
      <trkpt lat="47.45795" lon="8.32867">
        <ele>398.5</ele>
        <time>2022-10-02T14:11:44Z</time>
      </trkpt>
      <trkpt lat="47.45793" lon="8.32873">
        <ele>398.6</ele>
        <time>2022-10-02T14:11:45Z</time>
      </trkpt>
      <trkpt lat="47.45792" lon="8.3288">
        <ele>398.6</ele>
        <time>2022-10-02T14:11:46Z</time>
      </trkpt>
      <trkpt lat="47.45789" lon="8.32885">
        <ele>398.6</ele>
        <time>2022-10-02T14:11:47Z</time>
      </trkpt>
      <trkpt lat="47.45787" lon="8.32891">
        <ele>398.7</ele>
        <time>2022-10-02T14:11:48Z</time>
      </trkpt>
      <trkpt lat="47.45786" lon="8.32896">
        <ele>398.7</ele>
        <time>2022-10-02T14:11:49Z</time>
      </trkpt>
      <trkpt lat="47.45783" lon="8.32903">
        <ele>398.8</ele>
        <time>2022-10-02T14:11:50Z</time>
      </trkpt>
      <trkpt lat="47.45781" lon="8.32911">
        <ele>398.8</ele>
        <time>2022-10-02T14:11:51Z</time>
      </trkpt>
      <trkpt lat="47.45779" lon="8.32918">
        <ele>398.9</ele>
        <time>2022-10-02T14:11:52Z</time>
      </trkpt>
      <trkpt lat="47.45777" lon="8.32925">
        <ele>398.9</ele>
        <time>2022-10-02T14:11:53Z</time>
      </trkpt>
      <trkpt lat="47.45774" lon="8.3293">
        <ele>398.9</ele>
        <time>2022-10-02T14:11:54Z</time>
      </trkpt>
      <trkpt lat="47.45771" lon="8.32937">
        <ele>399</ele>
        <time>2022-10-02T14:11:55Z</time>
      </trkpt>
      <trkpt lat="47.4577" lon="8.32944">
        <ele>399</ele>
        <time>2022-10-02T14:11:56Z</time>
      </trkpt>
      <trkpt lat="47.45768" lon="8.32951">
        <ele>399</ele>
        <time>2022-10-02T14:11:57Z</time>
      </trkpt>
      <trkpt lat="47.45766" lon="8.32957">
        <ele>399.1</ele>
        <time>2022-10-02T14:11:58Z</time>
      </trkpt>
      <trkpt lat="47.45765" lon="8.32963">
        <ele>399.1</ele>
        <time>2022-10-02T14:11:59Z</time>
      </trkpt>
      <trkpt lat="47.45763" lon="8.3297">
        <ele>399.2</ele>
        <time>2022-10-02T14:12:00Z</time>
      </trkpt>
      <trkpt lat="47.45762" lon="8.32975">
        <ele>399.2</ele>
        <time>2022-10-02T14:12:01Z</time>
      </trkpt>
      <trkpt lat="47.45757" lon="8.32982">
        <ele>399.3</ele>
        <time>2022-10-02T14:12:02Z</time>
      </trkpt>
      <trkpt lat="47.45756" lon="8.32989">
        <ele>399.3</ele>
        <time>2022-10-02T14:12:03Z</time>
      </trkpt>
      <trkpt lat="47.45753" lon="8.32994">
        <ele>399.3</ele>
        <time>2022-10-02T14:12:04Z</time>
      </trkpt>
      <trkpt lat="47.45752" lon="8.33001">
        <ele>399.4</ele>
        <time>2022-10-02T14:12:05Z</time>
      </trkpt>
      <trkpt lat="47.4575" lon="8.33007">
        <ele>399.4</ele>
        <time>2022-10-02T14:12:06Z</time>
      </trkpt>
      <trkpt lat="47.45748" lon="8.33013">
        <ele>399.5</ele>
        <time>2022-10-02T14:12:07Z</time>
      </trkpt>
      <trkpt lat="47.45746" lon="8.33021">
        <ele>399.6</ele>
        <time>2022-10-02T14:12:08Z</time>
      </trkpt>
      <trkpt lat="47.45743" lon="8.33026">
        <ele>399.7</ele>
        <time>2022-10-02T14:12:09Z</time>
      </trkpt>
      <trkpt lat="47.45741" lon="8.3303">
        <ele>399.7</ele>
        <time>2022-10-02T14:12:10Z</time>
      </trkpt>
      <trkpt lat="47.45739" lon="8.33035">
        <ele>399.8</ele>
        <time>2022-10-02T14:12:11Z</time>
      </trkpt>
      <trkpt lat="47.45736" lon="8.33042">
        <ele>399.9</ele>
        <time>2022-10-02T14:12:12Z</time>
      </trkpt>
      <trkpt lat="47.45734" lon="8.3305">
        <ele>400</ele>
        <time>2022-10-02T14:12:13Z</time>
      </trkpt>
      <trkpt lat="47.45733" lon="8.33055">
        <ele>400.1</ele>
        <time>2022-10-02T14:12:14Z</time>
      </trkpt>
      <trkpt lat="47.45733" lon="8.33061">
        <ele>400.2</ele>
        <time>2022-10-02T14:12:15Z</time>
      </trkpt>
      <trkpt lat="47.45729" lon="8.33067">
        <ele>400.3</ele>
        <time>2022-10-02T14:12:16Z</time>
      </trkpt>
      <trkpt lat="47.45727" lon="8.33073">
        <ele>400.4</ele>
        <time>2022-10-02T14:12:17Z</time>
      </trkpt>
      <trkpt lat="47.45725" lon="8.33078">
        <ele>400.4</ele>
        <time>2022-10-02T14:12:18Z</time>
      </trkpt>
      <trkpt lat="47.45724" lon="8.33083">
        <ele>400.5</ele>
        <time>2022-10-02T14:12:19Z</time>
      </trkpt>
      <trkpt lat="47.45723" lon="8.3309">
        <ele>400.6</ele>
        <time>2022-10-02T14:12:20Z</time>
      </trkpt>
      <trkpt lat="47.45721" lon="8.33095">
        <ele>400.7</ele>
        <time>2022-10-02T14:12:21Z</time>
      </trkpt>
      <trkpt lat="47.45719" lon="8.33101">
        <ele>400.8</ele>
        <time>2022-10-02T14:12:22Z</time>
      </trkpt>
      <trkpt lat="47.45718" lon="8.33105">
        <ele>400.9</ele>
        <time>2022-10-02T14:12:23Z</time>
      </trkpt>
      <trkpt lat="47.45716" lon="8.33111">
        <ele>401</ele>
        <time>2022-10-02T14:12:24Z</time>
      </trkpt>
      <trkpt lat="47.45715" lon="8.33116">
        <ele>401.1</ele>
        <time>2022-10-02T14:12:25Z</time>
      </trkpt>
      <trkpt lat="47.45714" lon="8.33121">
        <ele>401.1</ele>
        <time>2022-10-02T14:12:26Z</time>
      </trkpt>
      <trkpt lat="47.45712" lon="8.33126">
        <ele>401.2</ele>
        <time>2022-10-02T14:12:27Z</time>
      </trkpt>
      <trkpt lat="47.45711" lon="8.33132">
        <ele>401.3</ele>
        <time>2022-10-02T14:12:28Z</time>
      </trkpt>
      <trkpt lat="47.45709" lon="8.33138">
        <ele>401.4</ele>
        <time>2022-10-02T14:12:29Z</time>
      </trkpt>
      <trkpt lat="47.45708" lon="8.33143">
        <ele>401.5</ele>
        <time>2022-10-02T14:12:30Z</time>
      </trkpt>
      <trkpt lat="47.45707" lon="8.33148">
        <ele>401.6</ele>
        <time>2022-10-02T14:12:31Z</time>
      </trkpt>
      <trkpt lat="47.45706" lon="8.33153">
        <ele>401.7</ele>
        <time>2022-10-02T14:12:32Z</time>
      </trkpt>
      <trkpt lat="47.45705" lon="8.33159">
        <ele>401.7</ele>
        <time>2022-10-02T14:12:33Z</time>
      </trkpt>
      <trkpt lat="47.45702" lon="8.33165">
        <ele>401.9</ele>
        <time>2022-10-02T14:12:34Z</time>
      </trkpt>
      <trkpt lat="47.45701" lon="8.33171">
        <ele>402</ele>
        <time>2022-10-02T14:12:35Z</time>
      </trkpt>
      <trkpt lat="47.45701" lon="8.33176">
        <ele>402</ele>
        <time>2022-10-02T14:12:36Z</time>
      </trkpt>
      <trkpt lat="47.45699" lon="8.33181">
        <ele>402.1</ele>
        <time>2022-10-02T14:12:37Z</time>
      </trkpt>
      <trkpt lat="47.45698" lon="8.33186">
        <ele>402.2</ele>
        <time>2022-10-02T14:12:38Z</time>
      </trkpt>
      <trkpt lat="47.45696" lon="8.3319">
        <ele>402.3</ele>
        <time>2022-10-02T14:12:39Z</time>
      </trkpt>
      <trkpt lat="47.45693" lon="8.33195">
        <ele>402.4</ele>
        <time>2022-10-02T14:12:40Z</time>
      </trkpt>
      <trkpt lat="47.45692" lon="8.332">
        <ele>402.5</ele>
        <time>2022-10-02T14:12:41Z</time>
      </trkpt>
      <trkpt lat="47.45689" lon="8.33206">
        <ele>402.6</ele>
        <time>2022-10-02T14:12:42Z</time>
      </trkpt>
      <trkpt lat="47.45688" lon="8.33212">
        <ele>402.7</ele>
        <time>2022-10-02T14:12:43Z</time>
      </trkpt>
      <trkpt lat="47.45688" lon="8.33214">
        <ele>402.7</ele>
        <time>2022-10-02T14:12:44Z</time>
      </trkpt>
      <trkpt lat="47.45687" lon="8.33219">
        <ele>402.8</ele>
        <time>2022-10-02T14:12:45Z</time>
      </trkpt>
      <trkpt lat="47.45685" lon="8.33224">
        <ele>402.9</ele>
        <time>2022-10-02T14:12:46Z</time>
      </trkpt>
      <trkpt lat="47.45683" lon="8.33229">
        <ele>402.9</ele>
        <time>2022-10-02T14:12:47Z</time>
      </trkpt>
      <trkpt lat="47.45683" lon="8.33234">
        <ele>403</ele>
        <time>2022-10-02T14:12:48Z</time>
      </trkpt>
      <trkpt lat="47.45682" lon="8.3324">
        <ele>403</ele>
        <time>2022-10-02T14:12:49Z</time>
      </trkpt>
      <trkpt lat="47.45682" lon="8.33246">
        <ele>403.1</ele>
        <time>2022-10-02T14:12:50Z</time>
      </trkpt>
      <trkpt lat="47.45681" lon="8.33251">
        <ele>403.2</ele>
        <time>2022-10-02T14:12:51Z</time>
      </trkpt>
      <trkpt lat="47.4568" lon="8.33256">
        <ele>403.2</ele>
        <time>2022-10-02T14:12:52Z</time>
      </trkpt>
      <trkpt lat="47.45678" lon="8.33263">
        <ele>403.3</ele>
        <time>2022-10-02T14:12:53Z</time>
      </trkpt>
      <trkpt lat="47.45678" lon="8.33267">
        <ele>403.3</ele>
        <time>2022-10-02T14:12:54Z</time>
      </trkpt>
      <trkpt lat="47.45676" lon="8.33273">
        <ele>403.4</ele>
        <time>2022-10-02T14:12:55Z</time>
      </trkpt>
      <trkpt lat="47.45677" lon="8.33279">
        <ele>403.4</ele>
        <time>2022-10-02T14:12:56Z</time>
      </trkpt>
      <trkpt lat="47.45676" lon="8.33285">
        <ele>403.5</ele>
        <time>2022-10-02T14:12:57Z</time>
      </trkpt>
      <trkpt lat="47.45675" lon="8.3329">
        <ele>403.6</ele>
        <time>2022-10-02T14:12:58Z</time>
      </trkpt>
      <trkpt lat="47.45675" lon="8.33295">
        <ele>403.6</ele>
        <time>2022-10-02T14:12:59Z</time>
      </trkpt>
      <trkpt lat="47.45674" lon="8.33301">
        <ele>403.7</ele>
        <time>2022-10-02T14:13:00Z</time>
      </trkpt>
      <trkpt lat="47.45672" lon="8.33307">
        <ele>403.7</ele>
        <time>2022-10-02T14:13:01Z</time>
      </trkpt>
      <trkpt lat="47.4567" lon="8.33312">
        <ele>403.8</ele>
        <time>2022-10-02T14:13:02Z</time>
      </trkpt>
      <trkpt lat="47.45669" lon="8.33318">
        <ele>403.8</ele>
        <time>2022-10-02T14:13:03Z</time>
      </trkpt>
      <trkpt lat="47.45668" lon="8.33323">
        <ele>403.9</ele>
        <time>2022-10-02T14:13:04Z</time>
      </trkpt>
      <trkpt lat="47.45667" lon="8.33329">
        <ele>404</ele>
        <time>2022-10-02T14:13:05Z</time>
      </trkpt>
      <trkpt lat="47.45665" lon="8.33335">
        <ele>404</ele>
        <time>2022-10-02T14:13:06Z</time>
      </trkpt>
      <trkpt lat="47.45664" lon="8.33339">
        <ele>404.1</ele>
        <time>2022-10-02T14:13:07Z</time>
      </trkpt>
      <trkpt lat="47.45663" lon="8.33345">
        <ele>404.1</ele>
        <time>2022-10-02T14:13:08Z</time>
      </trkpt>
      <trkpt lat="47.45661" lon="8.33351">
        <ele>404.2</ele>
        <time>2022-10-02T14:13:09Z</time>
      </trkpt>
      <trkpt lat="47.45661" lon="8.33357">
        <ele>404.2</ele>
        <time>2022-10-02T14:13:10Z</time>
      </trkpt>
      <trkpt lat="47.4566" lon="8.33363">
        <ele>404.3</ele>
        <time>2022-10-02T14:13:11Z</time>
      </trkpt>
      <trkpt lat="47.45657" lon="8.3337">
        <ele>404.4</ele>
        <time>2022-10-02T14:13:12Z</time>
      </trkpt>
      <trkpt lat="47.45656" lon="8.33375">
        <ele>404.4</ele>
        <time>2022-10-02T14:13:13Z</time>
      </trkpt>
      <trkpt lat="47.45654" lon="8.33381">
        <ele>404.5</ele>
        <time>2022-10-02T14:13:14Z</time>
      </trkpt>
      <trkpt lat="47.45653" lon="8.33387">
        <ele>404.6</ele>
        <time>2022-10-02T14:13:15Z</time>
      </trkpt>
      <trkpt lat="47.45652" lon="8.33391">
        <ele>404.6</ele>
        <time>2022-10-02T14:13:16Z</time>
      </trkpt>
      <trkpt lat="47.4565" lon="8.33396">
        <ele>404.6</ele>
        <time>2022-10-02T14:13:17Z</time>
      </trkpt>
      <trkpt lat="47.45648" lon="8.33402">
        <ele>404.7</ele>
        <time>2022-10-02T14:13:18Z</time>
      </trkpt>
      <trkpt lat="47.45647" lon="8.33407">
        <ele>404.7</ele>
        <time>2022-10-02T14:13:19Z</time>
      </trkpt>
      <trkpt lat="47.45646" lon="8.33414">
        <ele>404.8</ele>
        <time>2022-10-02T14:13:20Z</time>
      </trkpt>
      <trkpt lat="47.45642" lon="8.3342">
        <ele>404.8</ele>
        <time>2022-10-02T14:13:21Z</time>
      </trkpt>
      <trkpt lat="47.4564" lon="8.33426">
        <ele>404.9</ele>
        <time>2022-10-02T14:13:22Z</time>
      </trkpt>
      <trkpt lat="47.45639" lon="8.33432">
        <ele>404.9</ele>
        <time>2022-10-02T14:13:23Z</time>
      </trkpt>
      <trkpt lat="47.45637" lon="8.33438">
        <ele>405</ele>
        <time>2022-10-02T14:13:24Z</time>
      </trkpt>
      <trkpt lat="47.45638" lon="8.33443">
        <ele>405</ele>
        <time>2022-10-02T14:13:25Z</time>
      </trkpt>
      <trkpt lat="47.45636" lon="8.33448">
        <ele>405.1</ele>
        <time>2022-10-02T14:13:26Z</time>
      </trkpt>
      <trkpt lat="47.45635" lon="8.33453">
        <ele>405.2</ele>
        <time>2022-10-02T14:13:27Z</time>
      </trkpt>
      <trkpt lat="47.45634" lon="8.3346">
        <ele>405.3</ele>
        <time>2022-10-02T14:13:28Z</time>
      </trkpt>
      <trkpt lat="47.45633" lon="8.33466">
        <ele>405.4</ele>
        <time>2022-10-02T14:13:29Z</time>
      </trkpt>
      <trkpt lat="47.45633" lon="8.33472">
        <ele>405.4</ele>
        <time>2022-10-02T14:13:30Z</time>
      </trkpt>
      <trkpt lat="47.45631" lon="8.33478">
        <ele>405.4</ele>
        <time>2022-10-02T14:13:31Z</time>
      </trkpt>
      <trkpt lat="47.4563" lon="8.33483">
        <ele>405.3</ele>
        <time>2022-10-02T14:13:32Z</time>
      </trkpt>
      <trkpt lat="47.4563" lon="8.33488">
        <ele>405.3</ele>
        <time>2022-10-02T14:13:33Z</time>
      </trkpt>
      <trkpt lat="47.4563" lon="8.33494">
        <ele>405.3</ele>
        <time>2022-10-02T14:13:34Z</time>
      </trkpt>
      <trkpt lat="47.45628" lon="8.33499">
        <ele>405.3</ele>
        <time>2022-10-02T14:13:35Z</time>
      </trkpt>
      <trkpt lat="47.45629" lon="8.33505">
        <ele>405.3</ele>
        <time>2022-10-02T14:13:36Z</time>
      </trkpt>
      <trkpt lat="47.45628" lon="8.33512">
        <ele>405.3</ele>
        <time>2022-10-02T14:13:37Z</time>
      </trkpt>
      <trkpt lat="47.45627" lon="8.33516">
        <ele>405.3</ele>
        <time>2022-10-02T14:13:38Z</time>
      </trkpt>
      <trkpt lat="47.45625" lon="8.33522">
        <ele>405.3</ele>
        <time>2022-10-02T14:13:39Z</time>
      </trkpt>
      <trkpt lat="47.45625" lon="8.33528">
        <ele>405.3</ele>
        <time>2022-10-02T14:13:40Z</time>
      </trkpt>
      <trkpt lat="47.45625" lon="8.33534">
        <ele>405.3</ele>
        <time>2022-10-02T14:13:41Z</time>
      </trkpt>
      <trkpt lat="47.45624" lon="8.33541">
        <ele>405.3</ele>
        <time>2022-10-02T14:13:42Z</time>
      </trkpt>
      <trkpt lat="47.45622" lon="8.33549">
        <ele>405.3</ele>
        <time>2022-10-02T14:13:43Z</time>
      </trkpt>
      <trkpt lat="47.45621" lon="8.33555">
        <ele>405.3</ele>
        <time>2022-10-02T14:13:44Z</time>
      </trkpt>
      <trkpt lat="47.45619" lon="8.3356">
        <ele>405.3</ele>
        <time>2022-10-02T14:13:45Z</time>
      </trkpt>
      <trkpt lat="47.45618" lon="8.33567">
        <ele>405.3</ele>
        <time>2022-10-02T14:13:46Z</time>
      </trkpt>
      <trkpt lat="47.45617" lon="8.33571">
        <ele>405.3</ele>
        <time>2022-10-02T14:13:47Z</time>
      </trkpt>
      <trkpt lat="47.45614" lon="8.33576">
        <ele>405.2</ele>
        <time>2022-10-02T14:13:48Z</time>
      </trkpt>
      <trkpt lat="47.45611" lon="8.33582">
        <ele>405.2</ele>
        <time>2022-10-02T14:13:49Z</time>
      </trkpt>
      <trkpt lat="47.45609" lon="8.33588">
        <ele>405.2</ele>
        <time>2022-10-02T14:13:50Z</time>
      </trkpt>
      <trkpt lat="47.45608" lon="8.33592">
        <ele>405.2</ele>
        <time>2022-10-02T14:13:51Z</time>
      </trkpt>
      <trkpt lat="47.45607" lon="8.33599">
        <ele>405.2</ele>
        <time>2022-10-02T14:13:52Z</time>
      </trkpt>
      <trkpt lat="47.45607" lon="8.33607">
        <ele>405.2</ele>
        <time>2022-10-02T14:13:53Z</time>
      </trkpt>
      <trkpt lat="47.45604" lon="8.33614">
        <ele>405.2</ele>
        <time>2022-10-02T14:13:54Z</time>
      </trkpt>
      <trkpt lat="47.456" lon="8.33622">
        <ele>405.1</ele>
        <time>2022-10-02T14:13:55Z</time>
      </trkpt>
      <trkpt lat="47.45597" lon="8.33629">
        <ele>405.1</ele>
        <time>2022-10-02T14:13:56Z</time>
      </trkpt>
      <trkpt lat="47.45593" lon="8.33635">
        <ele>405.1</ele>
        <time>2022-10-02T14:13:57Z</time>
      </trkpt>
      <trkpt lat="47.45589" lon="8.3364">
        <ele>405.1</ele>
        <time>2022-10-02T14:13:58Z</time>
      </trkpt>
      <trkpt lat="47.45586" lon="8.33647">
        <ele>405.1</ele>
        <time>2022-10-02T14:13:59Z</time>
      </trkpt>
      <trkpt lat="47.45583" lon="8.33653">
        <ele>405.2</ele>
        <time>2022-10-02T14:14:00Z</time>
      </trkpt>
      <trkpt lat="47.4558" lon="8.3366">
        <ele>405.2</ele>
        <time>2022-10-02T14:14:01Z</time>
      </trkpt>
      <trkpt lat="47.45576" lon="8.33666">
        <ele>405.2</ele>
        <time>2022-10-02T14:14:02Z</time>
      </trkpt>
      <trkpt lat="47.45572" lon="8.33672">
        <ele>405.2</ele>
        <time>2022-10-02T14:14:03Z</time>
      </trkpt>
      <trkpt lat="47.4557" lon="8.33678">
        <ele>405.2</ele>
        <time>2022-10-02T14:14:04Z</time>
      </trkpt>
      <trkpt lat="47.45566" lon="8.33682">
        <ele>405.3</ele>
        <time>2022-10-02T14:14:05Z</time>
      </trkpt>
      <trkpt lat="47.45562" lon="8.33687">
        <ele>405.3</ele>
        <time>2022-10-02T14:14:06Z</time>
      </trkpt>
      <trkpt lat="47.45559" lon="8.3369">
        <ele>405.3</ele>
        <time>2022-10-02T14:14:07Z</time>
      </trkpt>
      <trkpt lat="47.45558" lon="8.33694">
        <ele>405.3</ele>
        <time>2022-10-02T14:14:08Z</time>
      </trkpt>
      <trkpt lat="47.45554" lon="8.337">
        <ele>405.4</ele>
        <time>2022-10-02T14:14:09Z</time>
      </trkpt>
      <trkpt lat="47.4555" lon="8.33706">
        <ele>405.4</ele>
        <time>2022-10-02T14:14:10Z</time>
      </trkpt>
      <trkpt lat="47.45547" lon="8.3371">
        <ele>405.5</ele>
        <time>2022-10-02T14:14:11Z</time>
      </trkpt>
      <trkpt lat="47.45543" lon="8.33717">
        <ele>405.5</ele>
        <time>2022-10-02T14:14:12Z</time>
      </trkpt>
      <trkpt lat="47.4554" lon="8.33719">
        <ele>405.5</ele>
        <time>2022-10-02T14:14:13Z</time>
      </trkpt>
      <trkpt lat="47.45537" lon="8.33724">
        <ele>405.6</ele>
        <time>2022-10-02T14:14:14Z</time>
      </trkpt>
      <trkpt lat="47.45534" lon="8.33729">
        <ele>405.6</ele>
        <time>2022-10-02T14:14:15Z</time>
      </trkpt>
      <trkpt lat="47.45531" lon="8.33734">
        <ele>405.6</ele>
        <time>2022-10-02T14:14:16Z</time>
      </trkpt>
      <trkpt lat="47.45527" lon="8.33739">
        <ele>405.7</ele>
        <time>2022-10-02T14:14:17Z</time>
      </trkpt>
      <trkpt lat="47.45524" lon="8.33742">
        <ele>405.7</ele>
        <time>2022-10-02T14:14:18Z</time>
      </trkpt>
      <trkpt lat="47.45522" lon="8.33746">
        <ele>405.8</ele>
        <time>2022-10-02T14:14:19Z</time>
      </trkpt>
      <trkpt lat="47.45519" lon="8.3375">
        <ele>405.8</ele>
        <time>2022-10-02T14:14:20Z</time>
      </trkpt>
      <trkpt lat="47.45516" lon="8.33755">
        <ele>405.9</ele>
        <time>2022-10-02T14:14:21Z</time>
      </trkpt>
      <trkpt lat="47.45513" lon="8.3376">
        <ele>405.9</ele>
        <time>2022-10-02T14:14:22Z</time>
      </trkpt>
      <trkpt lat="47.45509" lon="8.33765">
        <ele>406</ele>
        <time>2022-10-02T14:14:23Z</time>
      </trkpt>
      <trkpt lat="47.45506" lon="8.3377">
        <ele>406.1</ele>
        <time>2022-10-02T14:14:24Z</time>
      </trkpt>
      <trkpt lat="47.45503" lon="8.33774">
        <ele>406.1</ele>
        <time>2022-10-02T14:14:25Z</time>
      </trkpt>
      <trkpt lat="47.45499" lon="8.33778">
        <ele>406.2</ele>
        <time>2022-10-02T14:14:26Z</time>
      </trkpt>
      <trkpt lat="47.45496" lon="8.33783">
        <ele>406.2</ele>
        <time>2022-10-02T14:14:27Z</time>
      </trkpt>
      <trkpt lat="47.45493" lon="8.33789">
        <ele>406.3</ele>
        <time>2022-10-02T14:14:28Z</time>
      </trkpt>
      <trkpt lat="47.45489" lon="8.33795">
        <ele>406.4</ele>
        <time>2022-10-02T14:14:29Z</time>
      </trkpt>
      <trkpt lat="47.45486" lon="8.338">
        <ele>406.4</ele>
        <time>2022-10-02T14:14:30Z</time>
      </trkpt>
      <trkpt lat="47.45483" lon="8.33804">
        <ele>406.5</ele>
        <time>2022-10-02T14:14:31Z</time>
      </trkpt>
      <trkpt lat="47.4548" lon="8.33808">
        <ele>406.5</ele>
        <time>2022-10-02T14:14:32Z</time>
      </trkpt>
      <trkpt lat="47.45475" lon="8.33815">
        <ele>406.7</ele>
        <time>2022-10-02T14:14:33Z</time>
      </trkpt>
      <trkpt lat="47.45473" lon="8.33819">
        <ele>406.7</ele>
        <time>2022-10-02T14:14:34Z</time>
      </trkpt>
      <trkpt lat="47.4547" lon="8.33824">
        <ele>406.8</ele>
        <time>2022-10-02T14:14:35Z</time>
      </trkpt>
      <trkpt lat="47.45467" lon="8.33829">
        <ele>406.8</ele>
        <time>2022-10-02T14:14:36Z</time>
      </trkpt>
      <trkpt lat="47.45464" lon="8.33834">
        <ele>406.9</ele>
        <time>2022-10-02T14:14:37Z</time>
      </trkpt>
      <trkpt lat="47.45461" lon="8.33838">
        <ele>406.9</ele>
        <time>2022-10-02T14:14:38Z</time>
      </trkpt>
      <trkpt lat="47.45457" lon="8.33843">
        <ele>407</ele>
        <time>2022-10-02T14:14:39Z</time>
      </trkpt>
      <trkpt lat="47.45455" lon="8.33846">
        <ele>407</ele>
        <time>2022-10-02T14:14:40Z</time>
      </trkpt>
      <trkpt lat="47.45452" lon="8.33853">
        <ele>407.1</ele>
        <time>2022-10-02T14:14:41Z</time>
      </trkpt>
      <trkpt lat="47.45449" lon="8.33856">
        <ele>407.2</ele>
        <time>2022-10-02T14:14:42Z</time>
      </trkpt>
      <trkpt lat="47.45445" lon="8.3386">
        <ele>407.2</ele>
        <time>2022-10-02T14:14:43Z</time>
      </trkpt>
      <trkpt lat="47.45443" lon="8.33865">
        <ele>407.3</ele>
        <time>2022-10-02T14:14:44Z</time>
      </trkpt>
      <trkpt lat="47.4544" lon="8.33869">
        <ele>407.4</ele>
        <time>2022-10-02T14:14:45Z</time>
      </trkpt>
      <trkpt lat="47.45437" lon="8.33874">
        <ele>407.4</ele>
        <time>2022-10-02T14:14:46Z</time>
      </trkpt>
      <trkpt lat="47.45434" lon="8.33878">
        <ele>407.5</ele>
        <time>2022-10-02T14:14:47Z</time>
      </trkpt>
      <trkpt lat="47.45431" lon="8.33882">
        <ele>407.6</ele>
        <time>2022-10-02T14:14:48Z</time>
      </trkpt>
      <trkpt lat="47.45428" lon="8.33888">
        <ele>407.6</ele>
        <time>2022-10-02T14:14:49Z</time>
      </trkpt>
      <trkpt lat="47.45426" lon="8.33891">
        <ele>407.7</ele>
        <time>2022-10-02T14:14:50Z</time>
      </trkpt>
      <trkpt lat="47.45422" lon="8.33895">
        <ele>407.7</ele>
        <time>2022-10-02T14:14:51Z</time>
      </trkpt>
      <trkpt lat="47.4542" lon="8.339">
        <ele>407.8</ele>
        <time>2022-10-02T14:14:52Z</time>
      </trkpt>
      <trkpt lat="47.45416" lon="8.33904">
        <ele>407.9</ele>
        <time>2022-10-02T14:14:53Z</time>
      </trkpt>
      <trkpt lat="47.45414" lon="8.33908">
        <ele>407.9</ele>
        <time>2022-10-02T14:14:54Z</time>
      </trkpt>
      <trkpt lat="47.45411" lon="8.33914">
        <ele>408</ele>
        <time>2022-10-02T14:14:55Z</time>
      </trkpt>
      <trkpt lat="47.45408" lon="8.33917">
        <ele>408</ele>
        <time>2022-10-02T14:14:56Z</time>
      </trkpt>
      <trkpt lat="47.45405" lon="8.33922">
        <ele>408.1</ele>
        <time>2022-10-02T14:14:57Z</time>
      </trkpt>
      <trkpt lat="47.45402" lon="8.33925">
        <ele>408.1</ele>
        <time>2022-10-02T14:14:58Z</time>
      </trkpt>
      <trkpt lat="47.45399" lon="8.3393">
        <ele>408.2</ele>
        <time>2022-10-02T14:14:59Z</time>
      </trkpt>
      <trkpt lat="47.45396" lon="8.33935">
        <ele>408.3</ele>
        <time>2022-10-02T14:15:00Z</time>
      </trkpt>
      <trkpt lat="47.45394" lon="8.33939">
        <ele>408.4</ele>
        <time>2022-10-02T14:15:01Z</time>
      </trkpt>
      <trkpt lat="47.45391" lon="8.33944">
        <ele>408.4</ele>
        <time>2022-10-02T14:15:02Z</time>
      </trkpt>
      <trkpt lat="47.45388" lon="8.33948">
        <ele>408.5</ele>
        <time>2022-10-02T14:15:03Z</time>
      </trkpt>
      <trkpt lat="47.45385" lon="8.33952">
        <ele>408.5</ele>
        <time>2022-10-02T14:15:04Z</time>
      </trkpt>
      <trkpt lat="47.45381" lon="8.33955">
        <ele>408.6</ele>
        <time>2022-10-02T14:15:05Z</time>
      </trkpt>
      <trkpt lat="47.45378" lon="8.33959">
        <ele>408.6</ele>
        <time>2022-10-02T14:15:06Z</time>
      </trkpt>
      <trkpt lat="47.45375" lon="8.33964">
        <ele>408.7</ele>
        <time>2022-10-02T14:15:07Z</time>
      </trkpt>
      <trkpt lat="47.45372" lon="8.33969">
        <ele>408.7</ele>
        <time>2022-10-02T14:15:08Z</time>
      </trkpt>
      <trkpt lat="47.4537" lon="8.33972">
        <ele>408.8</ele>
        <time>2022-10-02T14:15:09Z</time>
      </trkpt>
      <trkpt lat="47.45368" lon="8.33976">
        <ele>408.8</ele>
        <time>2022-10-02T14:15:10Z</time>
      </trkpt>
      <trkpt lat="47.45365" lon="8.33979">
        <ele>408.9</ele>
        <time>2022-10-02T14:15:11Z</time>
      </trkpt>
      <trkpt lat="47.45362" lon="8.33983">
        <ele>408.9</ele>
        <time>2022-10-02T14:15:12Z</time>
      </trkpt>
      <trkpt lat="47.4536" lon="8.33987">
        <ele>409</ele>
        <time>2022-10-02T14:15:13Z</time>
      </trkpt>
      <trkpt lat="47.45357" lon="8.33992">
        <ele>409.1</ele>
        <time>2022-10-02T14:15:14Z</time>
      </trkpt>
      <trkpt lat="47.45354" lon="8.33996">
        <ele>409.1</ele>
        <time>2022-10-02T14:15:15Z</time>
      </trkpt>
      <trkpt lat="47.45351" lon="8.34">
        <ele>409.2</ele>
        <time>2022-10-02T14:15:16Z</time>
      </trkpt>
      <trkpt lat="47.45349" lon="8.34004">
        <ele>409.3</ele>
        <time>2022-10-02T14:15:17Z</time>
      </trkpt>
      <trkpt lat="47.45346" lon="8.34008">
        <ele>409.3</ele>
        <time>2022-10-02T14:15:18Z</time>
      </trkpt>
      <trkpt lat="47.45343" lon="8.34013">
        <ele>409.4</ele>
        <time>2022-10-02T14:15:19Z</time>
      </trkpt>
      <trkpt lat="47.45341" lon="8.34017">
        <ele>409.5</ele>
        <time>2022-10-02T14:15:20Z</time>
      </trkpt>
      <trkpt lat="47.45338" lon="8.34021">
        <ele>409.5</ele>
        <time>2022-10-02T14:15:21Z</time>
      </trkpt>
      <trkpt lat="47.45336" lon="8.34025">
        <ele>409.6</ele>
        <time>2022-10-02T14:15:22Z</time>
      </trkpt>
      <trkpt lat="47.45333" lon="8.34029">
        <ele>409.7</ele>
        <time>2022-10-02T14:15:23Z</time>
      </trkpt>
      <trkpt lat="47.4533" lon="8.34034">
        <ele>409.7</ele>
        <time>2022-10-02T14:15:24Z</time>
      </trkpt>
      <trkpt lat="47.45328" lon="8.34037">
        <ele>409.8</ele>
        <time>2022-10-02T14:15:25Z</time>
      </trkpt>
      <trkpt lat="47.45324" lon="8.34042">
        <ele>409.8</ele>
        <time>2022-10-02T14:15:26Z</time>
      </trkpt>
      <trkpt lat="47.45322" lon="8.34046">
        <ele>409.9</ele>
        <time>2022-10-02T14:15:27Z</time>
      </trkpt>
      <trkpt lat="47.45318" lon="8.34051">
        <ele>409.9</ele>
        <time>2022-10-02T14:15:28Z</time>
      </trkpt>
      <trkpt lat="47.45315" lon="8.34056">
        <ele>410</ele>
        <time>2022-10-02T14:15:29Z</time>
      </trkpt>
      <trkpt lat="47.45313" lon="8.3406">
        <ele>410.1</ele>
        <time>2022-10-02T14:15:30Z</time>
      </trkpt>
      <trkpt lat="47.45309" lon="8.34065">
        <ele>410.1</ele>
        <time>2022-10-02T14:15:31Z</time>
      </trkpt>
      <trkpt lat="47.45307" lon="8.34068">
        <ele>410.2</ele>
        <time>2022-10-02T14:15:32Z</time>
      </trkpt>
      <trkpt lat="47.45304" lon="8.34073">
        <ele>410.2</ele>
        <time>2022-10-02T14:15:33Z</time>
      </trkpt>
      <trkpt lat="47.45301" lon="8.34078">
        <ele>410.3</ele>
        <time>2022-10-02T14:15:34Z</time>
      </trkpt>
      <trkpt lat="47.45298" lon="8.34082">
        <ele>410.4</ele>
        <time>2022-10-02T14:15:35Z</time>
      </trkpt>
      <trkpt lat="47.45295" lon="8.34086">
        <ele>410.4</ele>
        <time>2022-10-02T14:15:36Z</time>
      </trkpt>
      <trkpt lat="47.45292" lon="8.34091">
        <ele>410.5</ele>
        <time>2022-10-02T14:15:37Z</time>
      </trkpt>
      <trkpt lat="47.45291" lon="8.34094">
        <ele>410.5</ele>
        <time>2022-10-02T14:15:38Z</time>
      </trkpt>
      <trkpt lat="47.45287" lon="8.341">
        <ele>410.6</ele>
        <time>2022-10-02T14:15:39Z</time>
      </trkpt>
      <trkpt lat="47.45284" lon="8.34103">
        <ele>410.6</ele>
        <time>2022-10-02T14:15:40Z</time>
      </trkpt>
      <trkpt lat="47.45282" lon="8.34108">
        <ele>410.7</ele>
        <time>2022-10-02T14:15:41Z</time>
      </trkpt>
      <trkpt lat="47.45279" lon="8.34111">
        <ele>410.7</ele>
        <time>2022-10-02T14:15:42Z</time>
      </trkpt>
      <trkpt lat="47.45277" lon="8.34116">
        <ele>410.8</ele>
        <time>2022-10-02T14:15:43Z</time>
      </trkpt>
      <trkpt lat="47.45273" lon="8.3412">
        <ele>410.9</ele>
        <time>2022-10-02T14:15:44Z</time>
      </trkpt>
      <trkpt lat="47.4527" lon="8.34125">
        <ele>410.9</ele>
        <time>2022-10-02T14:15:45Z</time>
      </trkpt>
      <trkpt lat="47.45267" lon="8.3413">
        <ele>411</ele>
        <time>2022-10-02T14:15:46Z</time>
      </trkpt>
      <trkpt lat="47.45264" lon="8.34133">
        <ele>411</ele>
        <time>2022-10-02T14:15:47Z</time>
      </trkpt>
      <trkpt lat="47.45262" lon="8.34138">
        <ele>411.1</ele>
        <time>2022-10-02T14:15:48Z</time>
      </trkpt>
      <trkpt lat="47.45259" lon="8.34142">
        <ele>411.2</ele>
        <time>2022-10-02T14:15:49Z</time>
      </trkpt>
      <trkpt lat="47.45256" lon="8.34146">
        <ele>411.2</ele>
        <time>2022-10-02T14:15:50Z</time>
      </trkpt>
      <trkpt lat="47.45253" lon="8.3415">
        <ele>411.3</ele>
        <time>2022-10-02T14:15:51Z</time>
      </trkpt>
      <trkpt lat="47.45251" lon="8.34155">
        <ele>411.3</ele>
        <time>2022-10-02T14:15:52Z</time>
      </trkpt>
      <trkpt lat="47.45248" lon="8.34159">
        <ele>411.4</ele>
        <time>2022-10-02T14:15:53Z</time>
      </trkpt>
      <trkpt lat="47.45245" lon="8.34163">
        <ele>411.5</ele>
        <time>2022-10-02T14:15:54Z</time>
      </trkpt>
      <trkpt lat="47.45243" lon="8.34168">
        <ele>411.5</ele>
        <time>2022-10-02T14:15:55Z</time>
      </trkpt>
      <trkpt lat="47.4524" lon="8.34172">
        <ele>411.6</ele>
        <time>2022-10-02T14:15:56Z</time>
      </trkpt>
      <trkpt lat="47.45237" lon="8.34176">
        <ele>411.7</ele>
        <time>2022-10-02T14:15:57Z</time>
      </trkpt>
      <trkpt lat="47.45235" lon="8.3418">
        <ele>411.7</ele>
        <time>2022-10-02T14:15:58Z</time>
      </trkpt>
      <trkpt lat="47.45232" lon="8.34185">
        <ele>411.8</ele>
        <time>2022-10-02T14:15:59Z</time>
      </trkpt>
      <trkpt lat="47.4523" lon="8.34188">
        <ele>411.8</ele>
        <time>2022-10-02T14:16:00Z</time>
      </trkpt>
      <trkpt lat="47.45228" lon="8.34193">
        <ele>411.9</ele>
        <time>2022-10-02T14:16:01Z</time>
      </trkpt>
      <trkpt lat="47.45225" lon="8.34199">
        <ele>412</ele>
        <time>2022-10-02T14:16:02Z</time>
      </trkpt>
      <trkpt lat="47.45223" lon="8.34202">
        <ele>412</ele>
        <time>2022-10-02T14:16:03Z</time>
      </trkpt>
      <trkpt lat="47.45219" lon="8.34207">
        <ele>412.1</ele>
        <time>2022-10-02T14:16:04Z</time>
      </trkpt>
      <trkpt lat="47.45217" lon="8.34212">
        <ele>412.2</ele>
        <time>2022-10-02T14:16:05Z</time>
      </trkpt>
      <trkpt lat="47.45215" lon="8.34216">
        <ele>412.2</ele>
        <time>2022-10-02T14:16:06Z</time>
      </trkpt>
      <trkpt lat="47.45213" lon="8.34221">
        <ele>412.3</ele>
        <time>2022-10-02T14:16:07Z</time>
      </trkpt>
      <trkpt lat="47.4521" lon="8.34227">
        <ele>412.3</ele>
        <time>2022-10-02T14:16:08Z</time>
      </trkpt>
      <trkpt lat="47.45207" lon="8.34231">
        <ele>412.4</ele>
        <time>2022-10-02T14:16:09Z</time>
      </trkpt>
      <trkpt lat="47.45205" lon="8.34236">
        <ele>412.4</ele>
        <time>2022-10-02T14:16:10Z</time>
      </trkpt>
      <trkpt lat="47.45203" lon="8.34242">
        <ele>412.5</ele>
        <time>2022-10-02T14:16:11Z</time>
      </trkpt>
      <trkpt lat="47.452" lon="8.34246">
        <ele>412.5</ele>
        <time>2022-10-02T14:16:12Z</time>
      </trkpt>
      <trkpt lat="47.45198" lon="8.34251">
        <ele>412.6</ele>
        <time>2022-10-02T14:16:13Z</time>
      </trkpt>
      <trkpt lat="47.45196" lon="8.34257">
        <ele>412.6</ele>
        <time>2022-10-02T14:16:14Z</time>
      </trkpt>
      <trkpt lat="47.45194" lon="8.34262">
        <ele>412.7</ele>
        <time>2022-10-02T14:16:15Z</time>
      </trkpt>
      <trkpt lat="47.45192" lon="8.34267">
        <ele>412.8</ele>
        <time>2022-10-02T14:16:16Z</time>
      </trkpt>
      <trkpt lat="47.4519" lon="8.34273">
        <ele>412.8</ele>
        <time>2022-10-02T14:16:17Z</time>
      </trkpt>
      <trkpt lat="47.45187" lon="8.34278">
        <ele>412.9</ele>
        <time>2022-10-02T14:16:18Z</time>
      </trkpt>
      <trkpt lat="47.45185" lon="8.34284">
        <ele>412.9</ele>
        <time>2022-10-02T14:16:19Z</time>
      </trkpt>
      <trkpt lat="47.45183" lon="8.34289">
        <ele>413</ele>
        <time>2022-10-02T14:16:20Z</time>
      </trkpt>
      <trkpt lat="47.45181" lon="8.34293">
        <ele>413</ele>
        <time>2022-10-02T14:16:21Z</time>
      </trkpt>
      <trkpt lat="47.45179" lon="8.34298">
        <ele>413.1</ele>
        <time>2022-10-02T14:16:22Z</time>
      </trkpt>
      <trkpt lat="47.45177" lon="8.34304">
        <ele>413.1</ele>
        <time>2022-10-02T14:16:23Z</time>
      </trkpt>
      <trkpt lat="47.45175" lon="8.34309">
        <ele>413.2</ele>
        <time>2022-10-02T14:16:24Z</time>
      </trkpt>
      <trkpt lat="47.45174" lon="8.34315">
        <ele>413.2</ele>
        <time>2022-10-02T14:16:25Z</time>
      </trkpt>
      <trkpt lat="47.45172" lon="8.3432">
        <ele>413.2</ele>
        <time>2022-10-02T14:16:26Z</time>
      </trkpt>
      <trkpt lat="47.45169" lon="8.34326">
        <ele>413.3</ele>
        <time>2022-10-02T14:16:27Z</time>
      </trkpt>
      <trkpt lat="47.45167" lon="8.34331">
        <ele>413.3</ele>
        <time>2022-10-02T14:16:28Z</time>
      </trkpt>
      <trkpt lat="47.45166" lon="8.34338">
        <ele>413.4</ele>
        <time>2022-10-02T14:16:29Z</time>
      </trkpt>
      <trkpt lat="47.45164" lon="8.34344">
        <ele>413.4</ele>
        <time>2022-10-02T14:16:30Z</time>
      </trkpt>
      <trkpt lat="47.45162" lon="8.3435">
        <ele>413.5</ele>
        <time>2022-10-02T14:16:31Z</time>
      </trkpt>
      <trkpt lat="47.4516" lon="8.34356">
        <ele>413.5</ele>
        <time>2022-10-02T14:16:32Z</time>
      </trkpt>
      <trkpt lat="47.45158" lon="8.34363">
        <ele>413.6</ele>
        <time>2022-10-02T14:16:33Z</time>
      </trkpt>
      <trkpt lat="47.45157" lon="8.3437">
        <ele>413.6</ele>
        <time>2022-10-02T14:16:34Z</time>
      </trkpt>
      <trkpt lat="47.45154" lon="8.34376">
        <ele>413.7</ele>
        <time>2022-10-02T14:16:35Z</time>
      </trkpt>
      <trkpt lat="47.45152" lon="8.34383">
        <ele>413.8</ele>
        <time>2022-10-02T14:16:36Z</time>
      </trkpt>
      <trkpt lat="47.45151" lon="8.34389">
        <ele>413.8</ele>
        <time>2022-10-02T14:16:37Z</time>
      </trkpt>
      <trkpt lat="47.4515" lon="8.34395">
        <ele>413.8</ele>
        <time>2022-10-02T14:16:38Z</time>
      </trkpt>
      <trkpt lat="47.45148" lon="8.34401">
        <ele>413.9</ele>
        <time>2022-10-02T14:16:39Z</time>
      </trkpt>
      <trkpt lat="47.45146" lon="8.34406">
        <ele>413.9</ele>
        <time>2022-10-02T14:16:40Z</time>
      </trkpt>
      <trkpt lat="47.45145" lon="8.34413">
        <ele>414</ele>
        <time>2022-10-02T14:16:41Z</time>
      </trkpt>
      <trkpt lat="47.45144" lon="8.34419">
        <ele>414</ele>
        <time>2022-10-02T14:16:42Z</time>
      </trkpt>
      <trkpt lat="47.45142" lon="8.34426">
        <ele>414.1</ele>
        <time>2022-10-02T14:16:43Z</time>
      </trkpt>
      <trkpt lat="47.45141" lon="8.34432">
        <ele>414.1</ele>
        <time>2022-10-02T14:16:44Z</time>
      </trkpt>
      <trkpt lat="47.45139" lon="8.34438">
        <ele>414.1</ele>
        <time>2022-10-02T14:16:45Z</time>
      </trkpt>
      <trkpt lat="47.45138" lon="8.34443">
        <ele>414.2</ele>
        <time>2022-10-02T14:16:46Z</time>
      </trkpt>
      <trkpt lat="47.45137" lon="8.3445">
        <ele>414.2</ele>
        <time>2022-10-02T14:16:47Z</time>
      </trkpt>
      <trkpt lat="47.45135" lon="8.34456">
        <ele>414.3</ele>
        <time>2022-10-02T14:16:48Z</time>
      </trkpt>
      <trkpt lat="47.45134" lon="8.34462">
        <ele>414.3</ele>
        <time>2022-10-02T14:16:49Z</time>
      </trkpt>
      <trkpt lat="47.45132" lon="8.34467">
        <ele>414.3</ele>
        <time>2022-10-02T14:16:50Z</time>
      </trkpt>
      <trkpt lat="47.45132" lon="8.34473">
        <ele>414.4</ele>
        <time>2022-10-02T14:16:51Z</time>
      </trkpt>
      <trkpt lat="47.4513" lon="8.34479">
        <ele>414.4</ele>
        <time>2022-10-02T14:16:52Z</time>
      </trkpt>
      <trkpt lat="47.45129" lon="8.34485">
        <ele>414.4</ele>
        <time>2022-10-02T14:16:53Z</time>
      </trkpt>
      <trkpt lat="47.45127" lon="8.3449">
        <ele>414.5</ele>
        <time>2022-10-02T14:16:54Z</time>
      </trkpt>
      <trkpt lat="47.45126" lon="8.34495">
        <ele>414.5</ele>
        <time>2022-10-02T14:16:55Z</time>
      </trkpt>
      <trkpt lat="47.45125" lon="8.345">
        <ele>414.5</ele>
        <time>2022-10-02T14:16:56Z</time>
      </trkpt>
      <trkpt lat="47.45124" lon="8.34506">
        <ele>414.6</ele>
        <time>2022-10-02T14:16:57Z</time>
      </trkpt>
      <trkpt lat="47.45122" lon="8.34511">
        <ele>414.6</ele>
        <time>2022-10-02T14:16:58Z</time>
      </trkpt>
      <trkpt lat="47.4512" lon="8.34516">
        <ele>414.6</ele>
        <time>2022-10-02T14:16:59Z</time>
      </trkpt>
      <trkpt lat="47.45119" lon="8.34521">
        <ele>414.7</ele>
        <time>2022-10-02T14:17:00Z</time>
      </trkpt>
      <trkpt lat="47.45119" lon="8.34526">
        <ele>414.7</ele>
        <time>2022-10-02T14:17:01Z</time>
      </trkpt>
      <trkpt lat="47.45117" lon="8.3453">
        <ele>414.7</ele>
        <time>2022-10-02T14:17:02Z</time>
      </trkpt>
      <trkpt lat="47.45116" lon="8.34537">
        <ele>414.7</ele>
        <time>2022-10-02T14:17:03Z</time>
      </trkpt>
      <trkpt lat="47.45115" lon="8.34542">
        <ele>414.8</ele>
        <time>2022-10-02T14:17:04Z</time>
      </trkpt>
      <trkpt lat="47.45113" lon="8.3455">
        <ele>414.8</ele>
        <time>2022-10-02T14:17:05Z</time>
      </trkpt>
      <trkpt lat="47.45111" lon="8.34556">
        <ele>414.8</ele>
        <time>2022-10-02T14:17:06Z</time>
      </trkpt>
      <trkpt lat="47.4511" lon="8.34562">
        <ele>414.8</ele>
        <time>2022-10-02T14:17:07Z</time>
      </trkpt>
      <trkpt lat="47.45109" lon="8.34569">
        <ele>414.8</ele>
        <time>2022-10-02T14:17:08Z</time>
      </trkpt>
      <trkpt lat="47.45107" lon="8.34574">
        <ele>414.8</ele>
        <time>2022-10-02T14:17:09Z</time>
      </trkpt>
      <trkpt lat="47.45105" lon="8.3458">
        <ele>414.9</ele>
        <time>2022-10-02T14:17:10Z</time>
      </trkpt>
      <trkpt lat="47.45104" lon="8.34586">
        <ele>414.9</ele>
        <time>2022-10-02T14:17:11Z</time>
      </trkpt>
      <trkpt lat="47.45101" lon="8.34591">
        <ele>414.9</ele>
        <time>2022-10-02T14:17:12Z</time>
      </trkpt>
      <trkpt lat="47.45101" lon="8.34597">
        <ele>414.9</ele>
        <time>2022-10-02T14:17:13Z</time>
      </trkpt>
      <trkpt lat="47.45099" lon="8.34603">
        <ele>415</ele>
        <time>2022-10-02T14:17:14Z</time>
      </trkpt>
      <trkpt lat="47.45097" lon="8.34608">
        <ele>415</ele>
        <time>2022-10-02T14:17:15Z</time>
      </trkpt>
      <trkpt lat="47.45096" lon="8.34614">
        <ele>415</ele>
        <time>2022-10-02T14:17:16Z</time>
      </trkpt>
      <trkpt lat="47.45094" lon="8.3462">
        <ele>415.1</ele>
        <time>2022-10-02T14:17:17Z</time>
      </trkpt>
      <trkpt lat="47.45092" lon="8.34626">
        <ele>415.1</ele>
        <time>2022-10-02T14:17:18Z</time>
      </trkpt>
      <trkpt lat="47.4509" lon="8.34632">
        <ele>415.1</ele>
        <time>2022-10-02T14:17:19Z</time>
      </trkpt>
      <trkpt lat="47.45088" lon="8.34638">
        <ele>415.2</ele>
        <time>2022-10-02T14:17:20Z</time>
      </trkpt>
      <trkpt lat="47.45086" lon="8.34642">
        <ele>415.2</ele>
        <time>2022-10-02T14:17:21Z</time>
      </trkpt>
      <trkpt lat="47.45084" lon="8.34648">
        <ele>415.2</ele>
        <time>2022-10-02T14:17:22Z</time>
      </trkpt>
      <trkpt lat="47.45082" lon="8.34654">
        <ele>415.3</ele>
        <time>2022-10-02T14:17:23Z</time>
      </trkpt>
      <trkpt lat="47.4508" lon="8.34659">
        <ele>415.3</ele>
        <time>2022-10-02T14:17:24Z</time>
      </trkpt>
      <trkpt lat="47.45078" lon="8.34664">
        <ele>415.3</ele>
        <time>2022-10-02T14:17:25Z</time>
      </trkpt>
      <trkpt lat="47.45076" lon="8.34669">
        <ele>415.4</ele>
        <time>2022-10-02T14:17:26Z</time>
      </trkpt>
      <trkpt lat="47.45074" lon="8.34675">
        <ele>415.4</ele>
        <time>2022-10-02T14:17:27Z</time>
      </trkpt>
      <trkpt lat="47.45071" lon="8.34681">
        <ele>415.4</ele>
        <time>2022-10-02T14:17:28Z</time>
      </trkpt>
      <trkpt lat="47.45069" lon="8.34687">
        <ele>415.5</ele>
        <time>2022-10-02T14:17:29Z</time>
      </trkpt>
      <trkpt lat="47.45067" lon="8.34692">
        <ele>415.5</ele>
        <time>2022-10-02T14:17:30Z</time>
      </trkpt>
      <trkpt lat="47.45065" lon="8.34698">
        <ele>415.5</ele>
        <time>2022-10-02T14:17:31Z</time>
      </trkpt>
      <trkpt lat="47.45062" lon="8.34704">
        <ele>415.6</ele>
        <time>2022-10-02T14:17:32Z</time>
      </trkpt>
      <trkpt lat="47.45059" lon="8.34711">
        <ele>415.6</ele>
        <time>2022-10-02T14:17:33Z</time>
      </trkpt>
      <trkpt lat="47.45058" lon="8.34717">
        <ele>415.6</ele>
        <time>2022-10-02T14:17:34Z</time>
      </trkpt>
      <trkpt lat="47.45055" lon="8.34724">
        <ele>415.7</ele>
        <time>2022-10-02T14:17:35Z</time>
      </trkpt>
      <trkpt lat="47.45053" lon="8.34729">
        <ele>415.7</ele>
        <time>2022-10-02T14:17:36Z</time>
      </trkpt>
      <trkpt lat="47.4505" lon="8.34735">
        <ele>415.8</ele>
        <time>2022-10-02T14:17:37Z</time>
      </trkpt>
      <trkpt lat="47.45047" lon="8.3474">
        <ele>415.9</ele>
        <time>2022-10-02T14:17:38Z</time>
      </trkpt>
      <trkpt lat="47.45045" lon="8.34744">
        <ele>416</ele>
        <time>2022-10-02T14:17:39Z</time>
      </trkpt>
      <trkpt lat="47.45042" lon="8.34748">
        <ele>416</ele>
        <time>2022-10-02T14:17:40Z</time>
      </trkpt>
      <trkpt lat="47.45039" lon="8.34754">
        <ele>416.1</ele>
        <time>2022-10-02T14:17:41Z</time>
      </trkpt>
      <trkpt lat="47.45036" lon="8.34758">
        <ele>416.2</ele>
        <time>2022-10-02T14:17:42Z</time>
      </trkpt>
      <trkpt lat="47.45033" lon="8.34762">
        <ele>416.3</ele>
        <time>2022-10-02T14:17:43Z</time>
      </trkpt>
      <trkpt lat="47.4503" lon="8.34766">
        <ele>416.3</ele>
        <time>2022-10-02T14:17:44Z</time>
      </trkpt>
      <trkpt lat="47.45028" lon="8.34771">
        <ele>416.4</ele>
        <time>2022-10-02T14:17:45Z</time>
      </trkpt>
      <trkpt lat="47.45024" lon="8.34775">
        <ele>416.5</ele>
        <time>2022-10-02T14:17:46Z</time>
      </trkpt>
      <trkpt lat="47.45023" lon="8.34779">
        <ele>416.5</ele>
        <time>2022-10-02T14:17:47Z</time>
      </trkpt>
      <trkpt lat="47.45019" lon="8.34782">
        <ele>416.6</ele>
        <time>2022-10-02T14:17:48Z</time>
      </trkpt>
      <trkpt lat="47.45016" lon="8.34787">
        <ele>416.7</ele>
        <time>2022-10-02T14:17:49Z</time>
      </trkpt>
      <trkpt lat="47.45014" lon="8.34792">
        <ele>416.7</ele>
        <time>2022-10-02T14:17:50Z</time>
      </trkpt>
      <trkpt lat="47.45011" lon="8.34796">
        <ele>416.8</ele>
        <time>2022-10-02T14:17:51Z</time>
      </trkpt>
      <trkpt lat="47.45008" lon="8.34801">
        <ele>416.9</ele>
        <time>2022-10-02T14:17:52Z</time>
      </trkpt>
      <trkpt lat="47.45005" lon="8.34805">
        <ele>416.9</ele>
        <time>2022-10-02T14:17:53Z</time>
      </trkpt>
      <trkpt lat="47.45002" lon="8.3481">
        <ele>417</ele>
        <time>2022-10-02T14:17:54Z</time>
      </trkpt>
      <trkpt lat="47.44998" lon="8.34815">
        <ele>417.1</ele>
        <time>2022-10-02T14:17:55Z</time>
      </trkpt>
      <trkpt lat="47.44995" lon="8.3482">
        <ele>417.2</ele>
        <time>2022-10-02T14:17:56Z</time>
      </trkpt>
      <trkpt lat="47.44994" lon="8.34821">
        <ele>417.2</ele>
        <time>2022-10-02T14:17:57Z</time>
      </trkpt>
      <trkpt lat="47.44991" lon="8.34826">
        <ele>417.3</ele>
        <time>2022-10-02T14:17:58Z</time>
      </trkpt>
      <trkpt lat="47.44988" lon="8.3483">
        <ele>417.4</ele>
        <time>2022-10-02T14:17:59Z</time>
      </trkpt>
      <trkpt lat="47.44985" lon="8.34835">
        <ele>417.4</ele>
        <time>2022-10-02T14:18:00Z</time>
      </trkpt>
      <trkpt lat="47.44982" lon="8.34839">
        <ele>417.5</ele>
        <time>2022-10-02T14:18:01Z</time>
      </trkpt>
      <trkpt lat="47.4498" lon="8.34844">
        <ele>417.6</ele>
        <time>2022-10-02T14:18:02Z</time>
      </trkpt>
      <trkpt lat="47.44977" lon="8.34849">
        <ele>417.7</ele>
        <time>2022-10-02T14:18:03Z</time>
      </trkpt>
      <trkpt lat="47.44974" lon="8.34852">
        <ele>417.7</ele>
        <time>2022-10-02T14:18:04Z</time>
      </trkpt>
      <trkpt lat="47.44971" lon="8.34858">
        <ele>417.9</ele>
        <time>2022-10-02T14:18:05Z</time>
      </trkpt>
      <trkpt lat="47.44968" lon="8.34861">
        <ele>417.9</ele>
        <time>2022-10-02T14:18:06Z</time>
      </trkpt>
      <trkpt lat="47.44965" lon="8.34866">
        <ele>418</ele>
        <time>2022-10-02T14:18:07Z</time>
      </trkpt>
      <trkpt lat="47.44963" lon="8.3487">
        <ele>418.1</ele>
        <time>2022-10-02T14:18:08Z</time>
      </trkpt>
      <trkpt lat="47.44961" lon="8.34874">
        <ele>418.2</ele>
        <time>2022-10-02T14:18:09Z</time>
      </trkpt>
      <trkpt lat="47.44957" lon="8.34879">
        <ele>418.3</ele>
        <time>2022-10-02T14:18:10Z</time>
      </trkpt>
      <trkpt lat="47.44954" lon="8.34883">
        <ele>418.4</ele>
        <time>2022-10-02T14:18:11Z</time>
      </trkpt>
      <trkpt lat="47.44952" lon="8.34888">
        <ele>418.5</ele>
        <time>2022-10-02T14:18:12Z</time>
      </trkpt>
      <trkpt lat="47.44949" lon="8.34891">
        <ele>418.5</ele>
        <time>2022-10-02T14:18:13Z</time>
      </trkpt>
      <trkpt lat="47.44946" lon="8.34896">
        <ele>418.6</ele>
        <time>2022-10-02T14:18:14Z</time>
      </trkpt>
      <trkpt lat="47.44943" lon="8.349">
        <ele>418.7</ele>
        <time>2022-10-02T14:18:15Z</time>
      </trkpt>
      <trkpt lat="47.44941" lon="8.34902">
        <ele>418.8</ele>
        <time>2022-10-02T14:18:16Z</time>
      </trkpt>
      <trkpt lat="47.44938" lon="8.34906">
        <ele>418.9</ele>
        <time>2022-10-02T14:18:17Z</time>
      </trkpt>
      <trkpt lat="47.44936" lon="8.34911">
        <ele>418.9</ele>
        <time>2022-10-02T14:18:18Z</time>
      </trkpt>
      <trkpt lat="47.44934" lon="8.34916">
        <ele>419.1</ele>
        <time>2022-10-02T14:18:19Z</time>
      </trkpt>
      <trkpt lat="47.44932" lon="8.34919">
        <ele>419.1</ele>
        <time>2022-10-02T14:18:20Z</time>
      </trkpt>
      <trkpt lat="47.44929" lon="8.34922">
        <ele>419.2</ele>
        <time>2022-10-02T14:18:21Z</time>
      </trkpt>
      <trkpt lat="47.44926" lon="8.34925">
        <ele>419.3</ele>
        <time>2022-10-02T14:18:22Z</time>
      </trkpt>
      <trkpt lat="47.44924" lon="8.34929">
        <ele>419.4</ele>
        <time>2022-10-02T14:18:23Z</time>
      </trkpt>
      <trkpt lat="47.44922" lon="8.34932">
        <ele>419.5</ele>
        <time>2022-10-02T14:18:24Z</time>
      </trkpt>
      <trkpt lat="47.4492" lon="8.34935">
        <ele>419.6</ele>
        <time>2022-10-02T14:18:25Z</time>
      </trkpt>
      <trkpt lat="47.44917" lon="8.34939">
        <ele>419.7</ele>
        <time>2022-10-02T14:18:26Z</time>
      </trkpt>
      <trkpt lat="47.44915" lon="8.34942">
        <ele>419.8</ele>
        <time>2022-10-02T14:18:27Z</time>
      </trkpt>
      <trkpt lat="47.44913" lon="8.34949">
        <ele>419.9</ele>
        <time>2022-10-02T14:18:28Z</time>
      </trkpt>
      <trkpt lat="47.44909" lon="8.3495">
        <ele>420</ele>
        <time>2022-10-02T14:18:29Z</time>
      </trkpt>
      <trkpt lat="47.44907" lon="8.34953">
        <ele>420</ele>
        <time>2022-10-02T14:18:30Z</time>
      </trkpt>
      <trkpt lat="47.44905" lon="8.34956">
        <ele>420.1</ele>
        <time>2022-10-02T14:18:31Z</time>
      </trkpt>
      <trkpt lat="47.44903" lon="8.3496">
        <ele>420.1</ele>
        <time>2022-10-02T14:18:32Z</time>
      </trkpt>
      <trkpt lat="47.449" lon="8.34964">
        <ele>420.1</ele>
        <time>2022-10-02T14:18:33Z</time>
      </trkpt>
      <trkpt lat="47.44897" lon="8.34969">
        <ele>420.2</ele>
        <time>2022-10-02T14:18:34Z</time>
      </trkpt>
      <trkpt lat="47.44894" lon="8.34973">
        <ele>420.2</ele>
        <time>2022-10-02T14:18:35Z</time>
      </trkpt>
      <trkpt lat="47.44891" lon="8.34977">
        <ele>420.3</ele>
        <time>2022-10-02T14:18:36Z</time>
      </trkpt>
      <trkpt lat="47.44889" lon="8.34982">
        <ele>420.3</ele>
        <time>2022-10-02T14:18:37Z</time>
      </trkpt>
      <trkpt lat="47.44886" lon="8.34986">
        <ele>420.4</ele>
        <time>2022-10-02T14:18:38Z</time>
      </trkpt>
      <trkpt lat="47.44883" lon="8.3499">
        <ele>420.4</ele>
        <time>2022-10-02T14:18:39Z</time>
      </trkpt>
      <trkpt lat="47.44881" lon="8.34995">
        <ele>420.4</ele>
        <time>2022-10-02T14:18:40Z</time>
      </trkpt>
      <trkpt lat="47.44878" lon="8.34998">
        <ele>420.5</ele>
        <time>2022-10-02T14:18:41Z</time>
      </trkpt>
      <trkpt lat="47.44874" lon="8.35005">
        <ele>420.5</ele>
        <time>2022-10-02T14:18:42Z</time>
      </trkpt>
      <trkpt lat="47.44872" lon="8.35009">
        <ele>420.6</ele>
        <time>2022-10-02T14:18:43Z</time>
      </trkpt>
      <trkpt lat="47.44869" lon="8.35014">
        <ele>420.6</ele>
        <time>2022-10-02T14:18:44Z</time>
      </trkpt>
      <trkpt lat="47.44866" lon="8.35018">
        <ele>420.7</ele>
        <time>2022-10-02T14:18:45Z</time>
      </trkpt>
      <trkpt lat="47.44863" lon="8.35021">
        <ele>420.7</ele>
        <time>2022-10-02T14:18:46Z</time>
      </trkpt>
      <trkpt lat="47.44861" lon="8.35025">
        <ele>420.7</ele>
        <time>2022-10-02T14:18:47Z</time>
      </trkpt>
      <trkpt lat="47.44857" lon="8.3503">
        <ele>420.8</ele>
        <time>2022-10-02T14:18:48Z</time>
      </trkpt>
      <trkpt lat="47.44854" lon="8.35035">
        <ele>420.8</ele>
        <time>2022-10-02T14:18:49Z</time>
      </trkpt>
      <trkpt lat="47.44852" lon="8.3504">
        <ele>420.9</ele>
        <time>2022-10-02T14:18:50Z</time>
      </trkpt>
      <trkpt lat="47.44849" lon="8.35043">
        <ele>420.9</ele>
        <time>2022-10-02T14:18:51Z</time>
      </trkpt>
      <trkpt lat="47.44846" lon="8.35049">
        <ele>421</ele>
        <time>2022-10-02T14:18:52Z</time>
      </trkpt>
      <trkpt lat="47.44843" lon="8.35053">
        <ele>421</ele>
        <time>2022-10-02T14:18:53Z</time>
      </trkpt>
      <trkpt lat="47.4484" lon="8.35058">
        <ele>421.1</ele>
        <time>2022-10-02T14:18:54Z</time>
      </trkpt>
      <trkpt lat="47.44837" lon="8.35062">
        <ele>421.1</ele>
        <time>2022-10-02T14:18:55Z</time>
      </trkpt>
      <trkpt lat="47.44834" lon="8.35066">
        <ele>421.1</ele>
        <time>2022-10-02T14:18:56Z</time>
      </trkpt>
      <trkpt lat="47.44831" lon="8.35071">
        <ele>421.2</ele>
        <time>2022-10-02T14:18:57Z</time>
      </trkpt>
      <trkpt lat="47.44827" lon="8.35076">
        <ele>421.3</ele>
        <time>2022-10-02T14:18:58Z</time>
      </trkpt>
      <trkpt lat="47.44824" lon="8.35081">
        <ele>421.3</ele>
        <time>2022-10-02T14:18:59Z</time>
      </trkpt>
      <trkpt lat="47.44822" lon="8.35085">
        <ele>421.3</ele>
        <time>2022-10-02T14:19:00Z</time>
      </trkpt>
      <trkpt lat="47.44819" lon="8.3509">
        <ele>421.4</ele>
        <time>2022-10-02T14:19:01Z</time>
      </trkpt>
      <trkpt lat="47.44816" lon="8.35095">
        <ele>421.4</ele>
        <time>2022-10-02T14:19:02Z</time>
      </trkpt>
      <trkpt lat="47.44812" lon="8.351">
        <ele>421.5</ele>
        <time>2022-10-02T14:19:03Z</time>
      </trkpt>
      <trkpt lat="47.44809" lon="8.35105">
        <ele>421.5</ele>
        <time>2022-10-02T14:19:04Z</time>
      </trkpt>
      <trkpt lat="47.44806" lon="8.35108">
        <ele>421.5</ele>
        <time>2022-10-02T14:19:05Z</time>
      </trkpt>
      <trkpt lat="47.44803" lon="8.35114">
        <ele>421.6</ele>
        <time>2022-10-02T14:19:06Z</time>
      </trkpt>
      <trkpt lat="47.448" lon="8.35119">
        <ele>421.7</ele>
        <time>2022-10-02T14:19:07Z</time>
      </trkpt>
      <trkpt lat="47.44797" lon="8.35124">
        <ele>421.7</ele>
        <time>2022-10-02T14:19:08Z</time>
      </trkpt>
      <trkpt lat="47.44794" lon="8.35128">
        <ele>421.8</ele>
        <time>2022-10-02T14:19:09Z</time>
      </trkpt>
      <trkpt lat="47.44791" lon="8.35132">
        <ele>421.9</ele>
        <time>2022-10-02T14:19:10Z</time>
      </trkpt>
      <trkpt lat="47.44788" lon="8.35137">
        <ele>422</ele>
        <time>2022-10-02T14:19:11Z</time>
      </trkpt>
      <trkpt lat="47.44785" lon="8.35141">
        <ele>422</ele>
        <time>2022-10-02T14:19:12Z</time>
      </trkpt>
      <trkpt lat="47.44782" lon="8.35145">
        <ele>422.1</ele>
        <time>2022-10-02T14:19:13Z</time>
      </trkpt>
      <trkpt lat="47.4478" lon="8.3515">
        <ele>422.2</ele>
        <time>2022-10-02T14:19:14Z</time>
      </trkpt>
      <trkpt lat="47.44777" lon="8.35154">
        <ele>422.2</ele>
        <time>2022-10-02T14:19:15Z</time>
      </trkpt>
      <trkpt lat="47.44775" lon="8.35157">
        <ele>422.2</ele>
        <time>2022-10-02T14:19:16Z</time>
      </trkpt>
      <trkpt lat="47.44772" lon="8.35161">
        <ele>422.3</ele>
        <time>2022-10-02T14:19:17Z</time>
      </trkpt>
      <trkpt lat="47.44769" lon="8.35165">
        <ele>422.3</ele>
        <time>2022-10-02T14:19:18Z</time>
      </trkpt>
      <trkpt lat="47.44767" lon="8.35168">
        <ele>422.3</ele>
        <time>2022-10-02T14:19:19Z</time>
      </trkpt>
      <trkpt lat="47.44764" lon="8.35173">
        <ele>422.4</ele>
        <time>2022-10-02T14:19:20Z</time>
      </trkpt>
      <trkpt lat="47.44761" lon="8.35177">
        <ele>422.5</ele>
        <time>2022-10-02T14:19:21Z</time>
      </trkpt>
      <trkpt lat="47.44758" lon="8.35179">
        <ele>422.5</ele>
        <time>2022-10-02T14:19:22Z</time>
      </trkpt>
      <trkpt lat="47.44755" lon="8.35184">
        <ele>422.6</ele>
        <time>2022-10-02T14:19:23Z</time>
      </trkpt>
      <trkpt lat="47.44752" lon="8.35187">
        <ele>422.6</ele>
        <time>2022-10-02T14:19:24Z</time>
      </trkpt>
      <trkpt lat="47.4475" lon="8.35191">
        <ele>422.7</ele>
        <time>2022-10-02T14:19:25Z</time>
      </trkpt>
      <trkpt lat="47.44747" lon="8.35194">
        <ele>422.8</ele>
        <time>2022-10-02T14:19:26Z</time>
      </trkpt>
      <trkpt lat="47.44744" lon="8.35199">
        <ele>422.9</ele>
        <time>2022-10-02T14:19:27Z</time>
      </trkpt>
      <trkpt lat="47.4474" lon="8.352">
        <ele>423.1</ele>
        <time>2022-10-02T14:19:28Z</time>
      </trkpt>
      <trkpt lat="47.44736" lon="8.352">
        <ele>423</ele>
        <time>2022-10-02T14:19:29Z</time>
      </trkpt>
      <trkpt lat="47.44735" lon="8.35199">
        <ele>423</ele>
        <time>2022-10-02T14:19:30Z</time>
      </trkpt>
      <trkpt lat="47.44732" lon="8.35195">
        <ele>422.9</ele>
        <time>2022-10-02T14:19:31Z</time>
      </trkpt>
      <trkpt lat="47.44731" lon="8.35191">
        <ele>422.9</ele>
        <time>2022-10-02T14:19:32Z</time>
      </trkpt>
      <trkpt lat="47.4473" lon="8.35186">
        <ele>422.8</ele>
        <time>2022-10-02T14:19:33Z</time>
      </trkpt>
      <trkpt lat="47.44729" lon="8.3518">
        <ele>422.8</ele>
        <time>2022-10-02T14:19:34Z</time>
      </trkpt>
      <trkpt lat="47.44727" lon="8.35173">
        <ele>422.7</ele>
        <time>2022-10-02T14:19:35Z</time>
      </trkpt>
      <trkpt lat="47.44726" lon="8.35167">
        <ele>422.6</ele>
        <time>2022-10-02T14:19:36Z</time>
      </trkpt>
      <trkpt lat="47.44724" lon="8.3516">
        <ele>422.6</ele>
        <time>2022-10-02T14:19:37Z</time>
      </trkpt>
      <trkpt lat="47.44723" lon="8.35156">
        <ele>422.5</ele>
        <time>2022-10-02T14:19:38Z</time>
      </trkpt>
      <trkpt lat="47.44719" lon="8.35153">
        <ele>422.5</ele>
        <time>2022-10-02T14:19:39Z</time>
      </trkpt>
      <trkpt lat="47.44715" lon="8.35148">
        <ele>422.4</ele>
        <time>2022-10-02T14:19:40Z</time>
      </trkpt>
      <trkpt lat="47.44712" lon="8.35147">
        <ele>422.4</ele>
        <time>2022-10-02T14:19:41Z</time>
      </trkpt>
      <trkpt lat="47.44708" lon="8.35144">
        <ele>422.4</ele>
        <time>2022-10-02T14:19:42Z</time>
      </trkpt>
      <trkpt lat="47.44707" lon="8.35143">
        <ele>422.4</ele>
        <time>2022-10-02T14:19:43Z</time>
      </trkpt>
      <trkpt lat="47.44703" lon="8.35141">
        <ele>422.4</ele>
        <time>2022-10-02T14:19:44Z</time>
      </trkpt>
      <trkpt lat="47.447" lon="8.35141">
        <ele>422.4</ele>
        <time>2022-10-02T14:19:45Z</time>
      </trkpt>
      <trkpt lat="47.44696" lon="8.3514">
        <ele>422.4</ele>
        <time>2022-10-02T14:19:46Z</time>
      </trkpt>
      <trkpt lat="47.44693" lon="8.35141">
        <ele>422.5</ele>
        <time>2022-10-02T14:19:47Z</time>
      </trkpt>
      <trkpt lat="47.4469" lon="8.35141">
        <ele>422.5</ele>
        <time>2022-10-02T14:19:48Z</time>
      </trkpt>
      <trkpt lat="47.44686" lon="8.35141">
        <ele>422.5</ele>
        <time>2022-10-02T14:19:49Z</time>
      </trkpt>
      <trkpt lat="47.44683" lon="8.35142">
        <ele>422.7</ele>
        <time>2022-10-02T14:19:50Z</time>
      </trkpt>
      <trkpt lat="47.4468" lon="8.35143">
        <ele>422.9</ele>
        <time>2022-10-02T14:19:51Z</time>
      </trkpt>
      <trkpt lat="47.44679" lon="8.35144">
        <ele>423</ele>
        <time>2022-10-02T14:19:52Z</time>
      </trkpt>
      <trkpt lat="47.44676" lon="8.35145">
        <ele>423.2</ele>
        <time>2022-10-02T14:19:53Z</time>
      </trkpt>
      <trkpt lat="47.44675" lon="8.35146">
        <ele>423.2</ele>
        <time>2022-10-02T14:19:54Z</time>
      </trkpt>
      <trkpt lat="47.44673" lon="8.35146">
        <ele>423.4</ele>
        <time>2022-10-02T14:19:55Z</time>
      </trkpt>
      <trkpt lat="47.44671" lon="8.35147">
        <ele>423.5</ele>
        <time>2022-10-02T14:19:56Z</time>
      </trkpt>
      <trkpt lat="47.44668" lon="8.35149">
        <ele>423.7</ele>
        <time>2022-10-02T14:19:57Z</time>
      </trkpt>
      <trkpt lat="47.44667" lon="8.35149">
        <ele>423.8</ele>
        <time>2022-10-02T14:19:58Z</time>
      </trkpt>
      <trkpt lat="47.44666" lon="8.35151">
        <ele>423.9</ele>
        <time>2022-10-02T14:19:59Z</time>
      </trkpt>
      <trkpt lat="47.44664" lon="8.35151">
        <ele>424</ele>
        <time>2022-10-02T14:20:00Z</time>
      </trkpt>
      <trkpt lat="47.44663" lon="8.35151">
        <ele>424.1</ele>
        <time>2022-10-02T14:20:01Z</time>
      </trkpt>
      <trkpt lat="47.44661" lon="8.35152">
        <ele>424.3</ele>
        <time>2022-10-02T14:20:02Z</time>
      </trkpt>
      <trkpt lat="47.44658" lon="8.35154">
        <ele>424.5</ele>
        <time>2022-10-02T14:20:03Z</time>
      </trkpt>
      <trkpt lat="47.44657" lon="8.35154">
        <ele>424.7</ele>
        <time>2022-10-02T14:20:04Z</time>
      </trkpt>
      <trkpt lat="47.44654" lon="8.35156">
        <ele>424.9</ele>
        <time>2022-10-02T14:20:05Z</time>
      </trkpt>
      <trkpt lat="47.44653" lon="8.35157">
        <ele>425.1</ele>
        <time>2022-10-02T14:20:06Z</time>
      </trkpt>
      <trkpt lat="47.44651" lon="8.35158">
        <ele>425.3</ele>
        <time>2022-10-02T14:20:07Z</time>
      </trkpt>
      <trkpt lat="47.44649" lon="8.35158">
        <ele>425.5</ele>
        <time>2022-10-02T14:20:08Z</time>
      </trkpt>
      <trkpt lat="47.44648" lon="8.35159">
        <ele>425.6</ele>
        <time>2022-10-02T14:20:09Z</time>
      </trkpt>
      <trkpt lat="47.44647" lon="8.3516">
        <ele>425.8</ele>
        <time>2022-10-02T14:20:10Z</time>
      </trkpt>
      <trkpt lat="47.44645" lon="8.3516">
        <ele>426</ele>
        <time>2022-10-02T14:20:11Z</time>
      </trkpt>
      <trkpt lat="47.44643" lon="8.35161">
        <ele>426.1</ele>
        <time>2022-10-02T14:20:12Z</time>
      </trkpt>
      <trkpt lat="47.44642" lon="8.35164">
        <ele>426.4</ele>
        <time>2022-10-02T14:20:13Z</time>
      </trkpt>
      <trkpt lat="47.44641" lon="8.35165">
        <ele>426.5</ele>
        <time>2022-10-02T14:20:14Z</time>
      </trkpt>
      <trkpt lat="47.44639" lon="8.35167">
        <ele>426.8</ele>
        <time>2022-10-02T14:20:15Z</time>
      </trkpt>
      <trkpt lat="47.44636" lon="8.35168">
        <ele>427</ele>
        <time>2022-10-02T14:20:16Z</time>
      </trkpt>
      <trkpt lat="47.44635" lon="8.35169">
        <ele>427.1</ele>
        <time>2022-10-02T14:20:17Z</time>
      </trkpt>
      <trkpt lat="47.44633" lon="8.3517">
        <ele>427.3</ele>
        <time>2022-10-02T14:20:18Z</time>
      </trkpt>
      <trkpt lat="47.44632" lon="8.35171">
        <ele>427.4</ele>
        <time>2022-10-02T14:20:19Z</time>
      </trkpt>
      <trkpt lat="47.44631" lon="8.35172">
        <ele>427.5</ele>
        <time>2022-10-02T14:20:20Z</time>
      </trkpt>
      <trkpt lat="47.44628" lon="8.35174">
        <ele>427.7</ele>
        <time>2022-10-02T14:20:21Z</time>
      </trkpt>
      <trkpt lat="47.44627" lon="8.35175">
        <ele>427.8</ele>
        <time>2022-10-02T14:20:22Z</time>
      </trkpt>
      <trkpt lat="47.44625" lon="8.35177">
        <ele>427.9</ele>
        <time>2022-10-02T14:20:23Z</time>
      </trkpt>
      <trkpt lat="47.44624" lon="8.35179">
        <ele>428</ele>
        <time>2022-10-02T14:20:24Z</time>
      </trkpt>
      <trkpt lat="47.44623" lon="8.35182">
        <ele>428.1</ele>
        <time>2022-10-02T14:20:25Z</time>
      </trkpt>
      <trkpt lat="47.44622" lon="8.35185">
        <ele>428.2</ele>
        <time>2022-10-02T14:20:26Z</time>
      </trkpt>
      <trkpt lat="47.44622" lon="8.35187">
        <ele>428.2</ele>
        <time>2022-10-02T14:20:27Z</time>
      </trkpt>
      <trkpt lat="47.44621" lon="8.35191">
        <ele>428.2</ele>
        <time>2022-10-02T14:20:28Z</time>
      </trkpt>
      <trkpt lat="47.44621" lon="8.35192">
        <ele>428.2</ele>
        <time>2022-10-02T14:20:29Z</time>
      </trkpt>
      <trkpt lat="47.44619" lon="8.35198">
        <ele>428.2</ele>
        <time>2022-10-02T14:20:30Z</time>
      </trkpt>
      <trkpt lat="47.44619" lon="8.35201">
        <ele>428.2</ele>
        <time>2022-10-02T14:20:31Z</time>
      </trkpt>
      <trkpt lat="47.44618" lon="8.35205">
        <ele>428.2</ele>
        <time>2022-10-02T14:20:32Z</time>
      </trkpt>
      <trkpt lat="47.44617" lon="8.3521">
        <ele>428.1</ele>
        <time>2022-10-02T14:20:33Z</time>
      </trkpt>
      <trkpt lat="47.44616" lon="8.35216">
        <ele>428</ele>
        <time>2022-10-02T14:20:34Z</time>
      </trkpt>
      <trkpt lat="47.44616" lon="8.35218">
        <ele>428</ele>
        <time>2022-10-02T14:20:35Z</time>
      </trkpt>
      <trkpt lat="47.44614" lon="8.35224">
        <ele>427.9</ele>
        <time>2022-10-02T14:20:36Z</time>
      </trkpt>
      <trkpt lat="47.44613" lon="8.35231">
        <ele>427.7</ele>
        <time>2022-10-02T14:20:37Z</time>
      </trkpt>
      <trkpt lat="47.44613" lon="8.35237">
        <ele>427.6</ele>
        <time>2022-10-02T14:20:38Z</time>
      </trkpt>
      <trkpt lat="47.44612" lon="8.35244">
        <ele>427.4</ele>
        <time>2022-10-02T14:20:39Z</time>
      </trkpt>
      <trkpt lat="47.44611" lon="8.35251">
        <ele>427.1</ele>
        <time>2022-10-02T14:20:40Z</time>
      </trkpt>
      <trkpt lat="47.4461" lon="8.35257">
        <ele>426.9</ele>
        <time>2022-10-02T14:20:41Z</time>
      </trkpt>
      <trkpt lat="47.4461" lon="8.35264">
        <ele>426.6</ele>
        <time>2022-10-02T14:20:42Z</time>
      </trkpt>
      <trkpt lat="47.44609" lon="8.35272">
        <ele>426.4</ele>
        <time>2022-10-02T14:20:43Z</time>
      </trkpt>
      <trkpt lat="47.44608" lon="8.35279">
        <ele>426.1</ele>
        <time>2022-10-02T14:20:44Z</time>
      </trkpt>
      <trkpt lat="47.44607" lon="8.35287">
        <ele>425.8</ele>
        <time>2022-10-02T14:20:45Z</time>
      </trkpt>
      <trkpt lat="47.44606" lon="8.35295">
        <ele>425.5</ele>
        <time>2022-10-02T14:20:46Z</time>
      </trkpt>
      <trkpt lat="47.44606" lon="8.35303">
        <ele>425.2</ele>
        <time>2022-10-02T14:20:47Z</time>
      </trkpt>
      <trkpt lat="47.44605" lon="8.35311">
        <ele>424.9</ele>
        <time>2022-10-02T14:20:48Z</time>
      </trkpt>
      <trkpt lat="47.44604" lon="8.35319">
        <ele>424.6</ele>
        <time>2022-10-02T14:20:49Z</time>
      </trkpt>
      <trkpt lat="47.44603" lon="8.35328">
        <ele>424.3</ele>
        <time>2022-10-02T14:20:50Z</time>
      </trkpt>
      <trkpt lat="47.44603" lon="8.35336">
        <ele>424</ele>
        <time>2022-10-02T14:20:51Z</time>
      </trkpt>
      <trkpt lat="47.44603" lon="8.35344">
        <ele>423.6</ele>
        <time>2022-10-02T14:20:52Z</time>
      </trkpt>
      <trkpt lat="47.44602" lon="8.35352">
        <ele>423.3</ele>
        <time>2022-10-02T14:20:53Z</time>
      </trkpt>
      <trkpt lat="47.44603" lon="8.35362">
        <ele>422.9</ele>
        <time>2022-10-02T14:20:54Z</time>
      </trkpt>
      <trkpt lat="47.44604" lon="8.35369">
        <ele>422.7</ele>
        <time>2022-10-02T14:20:55Z</time>
      </trkpt>
      <trkpt lat="47.44603" lon="8.35378">
        <ele>422.3</ele>
        <time>2022-10-02T14:20:56Z</time>
      </trkpt>
      <trkpt lat="47.44603" lon="8.35389">
        <ele>421.8</ele>
        <time>2022-10-02T14:20:57Z</time>
      </trkpt>
      <trkpt lat="47.44603" lon="8.35398">
        <ele>421.5</ele>
        <time>2022-10-02T14:20:58Z</time>
      </trkpt>
      <trkpt lat="47.44602" lon="8.35409">
        <ele>421.2</ele>
        <time>2022-10-02T14:20:59Z</time>
      </trkpt>
      <trkpt lat="47.44602" lon="8.35419">
        <ele>420.9</ele>
        <time>2022-10-02T14:21:00Z</time>
      </trkpt>
      <trkpt lat="47.44603" lon="8.35431">
        <ele>420.7</ele>
        <time>2022-10-02T14:21:01Z</time>
      </trkpt>
      <trkpt lat="47.44601" lon="8.35443">
        <ele>420.5</ele>
        <time>2022-10-02T14:21:02Z</time>
      </trkpt>
      <trkpt lat="47.44603" lon="8.35453">
        <ele>420.4</ele>
        <time>2022-10-02T14:21:03Z</time>
      </trkpt>
      <trkpt lat="47.44603" lon="8.35463">
        <ele>420.3</ele>
        <time>2022-10-02T14:21:04Z</time>
      </trkpt>
      <trkpt lat="47.44601" lon="8.35474">
        <ele>420.2</ele>
        <time>2022-10-02T14:21:05Z</time>
      </trkpt>
      <trkpt lat="47.44602" lon="8.35484">
        <ele>420.1</ele>
        <time>2022-10-02T14:21:06Z</time>
      </trkpt>
      <trkpt lat="47.44601" lon="8.35495">
        <ele>420</ele>
        <time>2022-10-02T14:21:07Z</time>
      </trkpt>
      <trkpt lat="47.44601" lon="8.35505">
        <ele>420</ele>
        <time>2022-10-02T14:21:08Z</time>
      </trkpt>
      <trkpt lat="47.446" lon="8.35514">
        <ele>420</ele>
        <time>2022-10-02T14:21:09Z</time>
      </trkpt>
      <trkpt lat="47.446" lon="8.35524">
        <ele>420</ele>
        <time>2022-10-02T14:21:10Z</time>
      </trkpt>
      <trkpt lat="47.44601" lon="8.35534">
        <ele>420</ele>
        <time>2022-10-02T14:21:11Z</time>
      </trkpt>
      <trkpt lat="47.446" lon="8.35544">
        <ele>420</ele>
        <time>2022-10-02T14:21:12Z</time>
      </trkpt>
      <trkpt lat="47.44601" lon="8.35554">
        <ele>420.1</ele>
        <time>2022-10-02T14:21:13Z</time>
      </trkpt>
      <trkpt lat="47.44601" lon="8.35564">
        <ele>420.2</ele>
        <time>2022-10-02T14:21:14Z</time>
      </trkpt>
      <trkpt lat="47.44601" lon="8.35574">
        <ele>420.2</ele>
        <time>2022-10-02T14:21:15Z</time>
      </trkpt>
      <trkpt lat="47.446" lon="8.35582">
        <ele>420.4</ele>
        <time>2022-10-02T14:21:16Z</time>
      </trkpt>
      <trkpt lat="47.44601" lon="8.3559">
        <ele>420.5</ele>
        <time>2022-10-02T14:21:17Z</time>
      </trkpt>
      <trkpt lat="47.44601" lon="8.35597">
        <ele>420.6</ele>
        <time>2022-10-02T14:21:18Z</time>
      </trkpt>
      <trkpt lat="47.44602" lon="8.35605">
        <ele>420.7</ele>
        <time>2022-10-02T14:21:19Z</time>
      </trkpt>
      <trkpt lat="47.44602" lon="8.35611">
        <ele>420.9</ele>
        <time>2022-10-02T14:21:20Z</time>
      </trkpt>
      <trkpt lat="47.44601" lon="8.35621">
        <ele>421</ele>
        <time>2022-10-02T14:21:21Z</time>
      </trkpt>
      <trkpt lat="47.44602" lon="8.35628">
        <ele>421.1</ele>
        <time>2022-10-02T14:21:22Z</time>
      </trkpt>
      <trkpt lat="47.44602" lon="8.35634">
        <ele>421.3</ele>
        <time>2022-10-02T14:21:23Z</time>
      </trkpt>
      <trkpt lat="47.44602" lon="8.35643">
        <ele>421.4</ele>
        <time>2022-10-02T14:21:24Z</time>
      </trkpt>
      <trkpt lat="47.44603" lon="8.3565">
        <ele>421.4</ele>
        <time>2022-10-02T14:21:25Z</time>
      </trkpt>
      <trkpt lat="47.44603" lon="8.35658">
        <ele>421.4</ele>
        <time>2022-10-02T14:21:26Z</time>
      </trkpt>
      <trkpt lat="47.44603" lon="8.35664">
        <ele>421.5</ele>
        <time>2022-10-02T14:21:27Z</time>
      </trkpt>
      <trkpt lat="47.44603" lon="8.35671">
        <ele>421.5</ele>
        <time>2022-10-02T14:21:28Z</time>
      </trkpt>
      <trkpt lat="47.44603" lon="8.35677">
        <ele>421.5</ele>
        <time>2022-10-02T14:21:29Z</time>
      </trkpt>
      <trkpt lat="47.44603" lon="8.35684">
        <ele>421.5</ele>
        <time>2022-10-02T14:21:30Z</time>
      </trkpt>
      <trkpt lat="47.44604" lon="8.3569">
        <ele>421.5</ele>
        <time>2022-10-02T14:21:31Z</time>
      </trkpt>
      <trkpt lat="47.44605" lon="8.35696">
        <ele>421.5</ele>
        <time>2022-10-02T14:21:32Z</time>
      </trkpt>
      <trkpt lat="47.44604" lon="8.35702">
        <ele>421.5</ele>
        <time>2022-10-02T14:21:33Z</time>
      </trkpt>
      <trkpt lat="47.44604" lon="8.35709">
        <ele>421.5</ele>
        <time>2022-10-02T14:21:34Z</time>
      </trkpt>
      <trkpt lat="47.44604" lon="8.35714">
        <ele>421.5</ele>
        <time>2022-10-02T14:21:35Z</time>
      </trkpt>
      <trkpt lat="47.44604" lon="8.3572">
        <ele>421.5</ele>
        <time>2022-10-02T14:21:36Z</time>
      </trkpt>
      <trkpt lat="47.44603" lon="8.35726">
        <ele>421.5</ele>
        <time>2022-10-02T14:21:37Z</time>
      </trkpt>
      <trkpt lat="47.44603" lon="8.35731">
        <ele>421.5</ele>
        <time>2022-10-02T14:21:38Z</time>
      </trkpt>
      <trkpt lat="47.44604" lon="8.35736">
        <ele>421.5</ele>
        <time>2022-10-02T14:21:39Z</time>
      </trkpt>
      <trkpt lat="47.44604" lon="8.35743">
        <ele>421.5</ele>
        <time>2022-10-02T14:21:40Z</time>
      </trkpt>
      <trkpt lat="47.44605" lon="8.35748">
        <ele>421.5</ele>
        <time>2022-10-02T14:21:41Z</time>
      </trkpt>
      <trkpt lat="47.44606" lon="8.35754">
        <ele>421.5</ele>
        <time>2022-10-02T14:21:42Z</time>
      </trkpt>
      <trkpt lat="47.44607" lon="8.35759">
        <ele>421.5</ele>
        <time>2022-10-02T14:21:43Z</time>
      </trkpt>
      <trkpt lat="47.44606" lon="8.35764">
        <ele>421.5</ele>
        <time>2022-10-02T14:21:44Z</time>
      </trkpt>
      <trkpt lat="47.44605" lon="8.35768">
        <ele>421.5</ele>
        <time>2022-10-02T14:21:45Z</time>
      </trkpt>
      <trkpt lat="47.44605" lon="8.3577">
        <ele>421.4</ele>
        <time>2022-10-02T14:21:46Z</time>
      </trkpt>
      <trkpt lat="47.44604" lon="8.35774">
        <ele>421.4</ele>
        <time>2022-10-02T14:21:47Z</time>
      </trkpt>
      <trkpt lat="47.44604" lon="8.35779">
        <ele>421.4</ele>
        <time>2022-10-02T14:21:48Z</time>
      </trkpt>
      <trkpt lat="47.44603" lon="8.35784">
        <ele>421.4</ele>
        <time>2022-10-02T14:21:49Z</time>
      </trkpt>
      <trkpt lat="47.44604" lon="8.35789">
        <ele>421.3</ele>
        <time>2022-10-02T14:21:50Z</time>
      </trkpt>
      <trkpt lat="47.44604" lon="8.35795">
        <ele>421.3</ele>
        <time>2022-10-02T14:21:51Z</time>
      </trkpt>
      <trkpt lat="47.44603" lon="8.35801">
        <ele>421.3</ele>
        <time>2022-10-02T14:21:52Z</time>
      </trkpt>
      <trkpt lat="47.44603" lon="8.35807">
        <ele>421.3</ele>
        <time>2022-10-02T14:21:53Z</time>
      </trkpt>
      <trkpt lat="47.44603" lon="8.35813">
        <ele>421.3</ele>
        <time>2022-10-02T14:21:54Z</time>
      </trkpt>
      <trkpt lat="47.44602" lon="8.35818">
        <ele>421.3</ele>
        <time>2022-10-02T14:21:55Z</time>
      </trkpt>
      <trkpt lat="47.44602" lon="8.35825">
        <ele>421.2</ele>
        <time>2022-10-02T14:21:56Z</time>
      </trkpt>
      <trkpt lat="47.44602" lon="8.3583">
        <ele>421.2</ele>
        <time>2022-10-02T14:21:57Z</time>
      </trkpt>
      <trkpt lat="47.44602" lon="8.35835">
        <ele>421.2</ele>
        <time>2022-10-02T14:21:58Z</time>
      </trkpt>
      <trkpt lat="47.44603" lon="8.35841">
        <ele>421.3</ele>
        <time>2022-10-02T14:21:59Z</time>
      </trkpt>
      <trkpt lat="47.44603" lon="8.35848">
        <ele>421.3</ele>
        <time>2022-10-02T14:22:00Z</time>
      </trkpt>
      <trkpt lat="47.44603" lon="8.35853">
        <ele>421.4</ele>
        <time>2022-10-02T14:22:01Z</time>
      </trkpt>
      <trkpt lat="47.44604" lon="8.3586">
        <ele>421.4</ele>
        <time>2022-10-02T14:22:02Z</time>
      </trkpt>
      <trkpt lat="47.44603" lon="8.35866">
        <ele>421.5</ele>
        <time>2022-10-02T14:22:03Z</time>
      </trkpt>
      <trkpt lat="47.44603" lon="8.35874">
        <ele>421.5</ele>
        <time>2022-10-02T14:22:04Z</time>
      </trkpt>
      <trkpt lat="47.44603" lon="8.3588">
        <ele>421.5</ele>
        <time>2022-10-02T14:22:05Z</time>
      </trkpt>
      <trkpt lat="47.44604" lon="8.35887">
        <ele>421.6</ele>
        <time>2022-10-02T14:22:06Z</time>
      </trkpt>
      <trkpt lat="47.44604" lon="8.35893">
        <ele>421.6</ele>
        <time>2022-10-02T14:22:07Z</time>
      </trkpt>
      <trkpt lat="47.44604" lon="8.35899">
        <ele>421.6</ele>
        <time>2022-10-02T14:22:08Z</time>
      </trkpt>
      <trkpt lat="47.44604" lon="8.35906">
        <ele>421.7</ele>
        <time>2022-10-02T14:22:09Z</time>
      </trkpt>
      <trkpt lat="47.44606" lon="8.35916">
        <ele>421.7</ele>
        <time>2022-10-02T14:22:10Z</time>
      </trkpt>
      <trkpt lat="47.44605" lon="8.35921">
        <ele>421.7</ele>
        <time>2022-10-02T14:22:11Z</time>
      </trkpt>
      <trkpt lat="47.44605" lon="8.35924">
        <ele>421.7</ele>
        <time>2022-10-02T14:22:12Z</time>
      </trkpt>
      <trkpt lat="47.44605" lon="8.35929">
        <ele>421.7</ele>
        <time>2022-10-02T14:22:13Z</time>
      </trkpt>
      <trkpt lat="47.44605" lon="8.35937">
        <ele>421.6</ele>
        <time>2022-10-02T14:22:14Z</time>
      </trkpt>
      <trkpt lat="47.44604" lon="8.35943">
        <ele>421.6</ele>
        <time>2022-10-02T14:22:15Z</time>
      </trkpt>
      <trkpt lat="47.44604" lon="8.35949">
        <ele>421.6</ele>
        <time>2022-10-02T14:22:16Z</time>
      </trkpt>
      <trkpt lat="47.44603" lon="8.35956">
        <ele>421.6</ele>
        <time>2022-10-02T14:22:17Z</time>
      </trkpt>
      <trkpt lat="47.44604" lon="8.35962">
        <ele>421.6</ele>
        <time>2022-10-02T14:22:18Z</time>
      </trkpt>
      <trkpt lat="47.44604" lon="8.35967">
        <ele>421.6</ele>
        <time>2022-10-02T14:22:19Z</time>
      </trkpt>
      <trkpt lat="47.44604" lon="8.35971">
        <ele>421.6</ele>
        <time>2022-10-02T14:22:20Z</time>
      </trkpt>
      <trkpt lat="47.44604" lon="8.3598">
        <ele>421.7</ele>
        <time>2022-10-02T14:22:21Z</time>
      </trkpt>
      <trkpt lat="47.44604" lon="8.35984">
        <ele>421.7</ele>
        <time>2022-10-02T14:22:22Z</time>
      </trkpt>
      <trkpt lat="47.44604" lon="8.35989">
        <ele>421.7</ele>
        <time>2022-10-02T14:22:23Z</time>
      </trkpt>
      <trkpt lat="47.44605" lon="8.35993">
        <ele>421.7</ele>
        <time>2022-10-02T14:22:24Z</time>
      </trkpt>
      <trkpt lat="47.44604" lon="8.35998">
        <ele>421.7</ele>
        <time>2022-10-02T14:22:25Z</time>
      </trkpt>
      <trkpt lat="47.44604" lon="8.35999">
        <ele>421.7</ele>
        <time>2022-10-02T14:22:26Z</time>
      </trkpt>
      <trkpt lat="47.44604" lon="8.36">
        <ele>421.7</ele>
        <time>2022-10-02T14:22:27Z</time>
      </trkpt>
      <trkpt lat="47.44605" lon="8.36002">
        <ele>421.7</ele>
        <time>2022-10-02T14:22:28Z</time>
      </trkpt>
      <trkpt lat="47.44605" lon="8.36003">
        <ele>421.7</ele>
        <time>2022-10-02T14:22:29Z</time>
      </trkpt>
      <trkpt lat="47.44605" lon="8.36005">
        <ele>421.7</ele>
        <time>2022-10-02T14:22:30Z</time>
      </trkpt>
      <trkpt lat="47.44607" lon="8.3601">
        <ele>421.8</ele>
        <time>2022-10-02T14:22:31Z</time>
      </trkpt>
      <trkpt lat="47.44607" lon="8.36011">
        <ele>422</ele>
        <time>2022-10-02T14:22:32Z</time>
      </trkpt>
      <trkpt lat="47.44609" lon="8.36015">
        <ele>422.1</ele>
        <time>2022-10-02T14:22:33Z</time>
      </trkpt>
      <trkpt lat="47.4461" lon="8.36019">
        <ele>422.1</ele>
        <time>2022-10-02T14:22:34Z</time>
      </trkpt>
      <trkpt lat="47.44613" lon="8.36024">
        <ele>422.1</ele>
        <time>2022-10-02T14:22:35Z</time>
      </trkpt>
      <trkpt lat="47.44615" lon="8.36028">
        <ele>422.1</ele>
        <time>2022-10-02T14:22:36Z</time>
      </trkpt>
      <trkpt lat="47.44616" lon="8.36033">
        <ele>422.2</ele>
        <time>2022-10-02T14:22:37Z</time>
      </trkpt>
      <trkpt lat="47.44617" lon="8.36035">
        <ele>422.2</ele>
        <time>2022-10-02T14:22:38Z</time>
      </trkpt>
      <trkpt lat="47.44618" lon="8.36039">
        <ele>422.2</ele>
        <time>2022-10-02T14:22:39Z</time>
      </trkpt>
      <trkpt lat="47.44619" lon="8.36043">
        <ele>422.3</ele>
        <time>2022-10-02T14:22:40Z</time>
      </trkpt>
      <trkpt lat="47.4462" lon="8.36047">
        <ele>422.3</ele>
        <time>2022-10-02T14:22:41Z</time>
      </trkpt>
      <trkpt lat="47.44622" lon="8.36052">
        <ele>422.4</ele>
        <time>2022-10-02T14:22:42Z</time>
      </trkpt>
      <trkpt lat="47.44622" lon="8.36054">
        <ele>422.4</ele>
        <time>2022-10-02T14:22:43Z</time>
      </trkpt>
      <trkpt lat="47.44622" lon="8.36058">
        <ele>422.4</ele>
        <time>2022-10-02T14:22:44Z</time>
      </trkpt>
      <trkpt lat="47.44624" lon="8.36063">
        <ele>422.5</ele>
        <time>2022-10-02T14:22:45Z</time>
      </trkpt>
      <trkpt lat="47.44626" lon="8.36068">
        <ele>422.5</ele>
        <time>2022-10-02T14:22:46Z</time>
      </trkpt>
      <trkpt lat="47.44627" lon="8.36073">
        <ele>422.6</ele>
        <time>2022-10-02T14:22:47Z</time>
      </trkpt>
      <trkpt lat="47.44627" lon="8.36078">
        <ele>422.6</ele>
        <time>2022-10-02T14:22:48Z</time>
      </trkpt>
      <trkpt lat="47.44628" lon="8.36082">
        <ele>422.7</ele>
        <time>2022-10-02T14:22:49Z</time>
      </trkpt>
      <trkpt lat="47.44629" lon="8.36087">
        <ele>422.7</ele>
        <time>2022-10-02T14:22:50Z</time>
      </trkpt>
      <trkpt lat="47.4463" lon="8.36092">
        <ele>422.8</ele>
        <time>2022-10-02T14:22:51Z</time>
      </trkpt>
      <trkpt lat="47.44631" lon="8.36098">
        <ele>422.8</ele>
        <time>2022-10-02T14:22:52Z</time>
      </trkpt>
      <trkpt lat="47.44632" lon="8.36101">
        <ele>422.9</ele>
        <time>2022-10-02T14:22:53Z</time>
      </trkpt>
      <trkpt lat="47.44633" lon="8.36106">
        <ele>422.9</ele>
        <time>2022-10-02T14:22:54Z</time>
      </trkpt>
      <trkpt lat="47.44633" lon="8.36111">
        <ele>422.9</ele>
        <time>2022-10-02T14:22:55Z</time>
      </trkpt>
      <trkpt lat="47.44632" lon="8.36117">
        <ele>422.9</ele>
        <time>2022-10-02T14:22:56Z</time>
      </trkpt>
      <trkpt lat="47.44633" lon="8.36123">
        <ele>422.9</ele>
        <time>2022-10-02T14:22:57Z</time>
      </trkpt>
      <trkpt lat="47.44633" lon="8.36126">
        <ele>422.9</ele>
        <time>2022-10-02T14:22:58Z</time>
      </trkpt>
      <trkpt lat="47.44635" lon="8.36131">
        <ele>422.9</ele>
        <time>2022-10-02T14:22:59Z</time>
      </trkpt>
      <trkpt lat="47.44636" lon="8.36136">
        <ele>422.9</ele>
        <time>2022-10-02T14:23:00Z</time>
      </trkpt>
      <trkpt lat="47.44638" lon="8.36142">
        <ele>422.9</ele>
        <time>2022-10-02T14:23:01Z</time>
      </trkpt>
      <trkpt lat="47.44638" lon="8.36146">
        <ele>422.9</ele>
        <time>2022-10-02T14:23:02Z</time>
      </trkpt>
      <trkpt lat="47.44637" lon="8.36152">
        <ele>422.9</ele>
        <time>2022-10-02T14:23:03Z</time>
      </trkpt>
      <trkpt lat="47.44638" lon="8.36158">
        <ele>422.9</ele>
        <time>2022-10-02T14:23:04Z</time>
      </trkpt>
      <trkpt lat="47.44639" lon="8.36164">
        <ele>422.9</ele>
        <time>2022-10-02T14:23:05Z</time>
      </trkpt>
      <trkpt lat="47.4464" lon="8.36171">
        <ele>422.9</ele>
        <time>2022-10-02T14:23:06Z</time>
      </trkpt>
      <trkpt lat="47.44641" lon="8.36177">
        <ele>422.9</ele>
        <time>2022-10-02T14:23:07Z</time>
      </trkpt>
      <trkpt lat="47.44641" lon="8.36183">
        <ele>422.9</ele>
        <time>2022-10-02T14:23:08Z</time>
      </trkpt>
      <trkpt lat="47.44642" lon="8.36189">
        <ele>422.9</ele>
        <time>2022-10-02T14:23:09Z</time>
      </trkpt>
      <trkpt lat="47.44642" lon="8.36195">
        <ele>422.9</ele>
        <time>2022-10-02T14:23:10Z</time>
      </trkpt>
      <trkpt lat="47.44644" lon="8.36202">
        <ele>422.9</ele>
        <time>2022-10-02T14:23:11Z</time>
      </trkpt>
      <trkpt lat="47.44645" lon="8.36208">
        <ele>422.9</ele>
        <time>2022-10-02T14:23:12Z</time>
      </trkpt>
      <trkpt lat="47.44648" lon="8.36216">
        <ele>422.9</ele>
        <time>2022-10-02T14:23:13Z</time>
      </trkpt>
      <trkpt lat="47.44648" lon="8.36223">
        <ele>422.9</ele>
        <time>2022-10-02T14:23:14Z</time>
      </trkpt>
      <trkpt lat="47.44649" lon="8.36229">
        <ele>422.9</ele>
        <time>2022-10-02T14:23:15Z</time>
      </trkpt>
      <trkpt lat="47.4465" lon="8.36237">
        <ele>422.9</ele>
        <time>2022-10-02T14:23:16Z</time>
      </trkpt>
      <trkpt lat="47.44651" lon="8.36242">
        <ele>423</ele>
        <time>2022-10-02T14:23:17Z</time>
      </trkpt>
      <trkpt lat="47.44651" lon="8.36249">
        <ele>423</ele>
        <time>2022-10-02T14:23:18Z</time>
      </trkpt>
      <trkpt lat="47.44652" lon="8.36255">
        <ele>423</ele>
        <time>2022-10-02T14:23:19Z</time>
      </trkpt>
      <trkpt lat="47.44653" lon="8.36262">
        <ele>423</ele>
        <time>2022-10-02T14:23:20Z</time>
      </trkpt>
      <trkpt lat="47.44653" lon="8.36268">
        <ele>423</ele>
        <time>2022-10-02T14:23:21Z</time>
      </trkpt>
      <trkpt lat="47.44654" lon="8.36274">
        <ele>423</ele>
        <time>2022-10-02T14:23:22Z</time>
      </trkpt>
      <trkpt lat="47.44655" lon="8.3628">
        <ele>423.1</ele>
        <time>2022-10-02T14:23:23Z</time>
      </trkpt>
      <trkpt lat="47.44656" lon="8.36287">
        <ele>423.1</ele>
        <time>2022-10-02T14:23:24Z</time>
      </trkpt>
      <trkpt lat="47.44657" lon="8.36293">
        <ele>423.1</ele>
        <time>2022-10-02T14:23:25Z</time>
      </trkpt>
      <trkpt lat="47.44658" lon="8.36299">
        <ele>423.2</ele>
        <time>2022-10-02T14:23:26Z</time>
      </trkpt>
      <trkpt lat="47.44659" lon="8.36304">
        <ele>423.2</ele>
        <time>2022-10-02T14:23:27Z</time>
      </trkpt>
      <trkpt lat="47.44659" lon="8.36309">
        <ele>423.3</ele>
        <time>2022-10-02T14:23:28Z</time>
      </trkpt>
      <trkpt lat="47.44658" lon="8.36316">
        <ele>423.3</ele>
        <time>2022-10-02T14:23:29Z</time>
      </trkpt>
      <trkpt lat="47.44659" lon="8.36321">
        <ele>423.4</ele>
        <time>2022-10-02T14:23:30Z</time>
      </trkpt>
      <trkpt lat="47.44661" lon="8.36325">
        <ele>423.4</ele>
        <time>2022-10-02T14:23:31Z</time>
      </trkpt>
      <trkpt lat="47.44663" lon="8.36329">
        <ele>423.5</ele>
        <time>2022-10-02T14:23:32Z</time>
      </trkpt>
      <trkpt lat="47.44664" lon="8.36334">
        <ele>423.5</ele>
        <time>2022-10-02T14:23:33Z</time>
      </trkpt>
      <trkpt lat="47.44665" lon="8.36341">
        <ele>423.6</ele>
        <time>2022-10-02T14:23:34Z</time>
      </trkpt>
      <trkpt lat="47.44666" lon="8.36345">
        <ele>423.7</ele>
        <time>2022-10-02T14:23:35Z</time>
      </trkpt>
      <trkpt lat="47.44666" lon="8.36351">
        <ele>423.8</ele>
        <time>2022-10-02T14:23:36Z</time>
      </trkpt>
      <trkpt lat="47.44667" lon="8.36357">
        <ele>423.8</ele>
        <time>2022-10-02T14:23:37Z</time>
      </trkpt>
      <trkpt lat="47.44667" lon="8.36362">
        <ele>423.9</ele>
        <time>2022-10-02T14:23:38Z</time>
      </trkpt>
      <trkpt lat="47.44667" lon="8.36366">
        <ele>424</ele>
        <time>2022-10-02T14:23:39Z</time>
      </trkpt>
      <trkpt lat="47.44668" lon="8.36372">
        <ele>424</ele>
        <time>2022-10-02T14:23:40Z</time>
      </trkpt>
      <trkpt lat="47.44669" lon="8.36377">
        <ele>424.1</ele>
        <time>2022-10-02T14:23:41Z</time>
      </trkpt>
      <trkpt lat="47.4467" lon="8.36382">
        <ele>424.2</ele>
        <time>2022-10-02T14:23:42Z</time>
      </trkpt>
      <trkpt lat="47.44671" lon="8.36385">
        <ele>424.2</ele>
        <time>2022-10-02T14:23:43Z</time>
      </trkpt>
      <trkpt lat="47.44671" lon="8.36391">
        <ele>424.3</ele>
        <time>2022-10-02T14:23:44Z</time>
      </trkpt>
      <trkpt lat="47.44672" lon="8.36397">
        <ele>424.4</ele>
        <time>2022-10-02T14:23:45Z</time>
      </trkpt>
      <trkpt lat="47.44673" lon="8.36402">
        <ele>424.5</ele>
        <time>2022-10-02T14:23:46Z</time>
      </trkpt>
      <trkpt lat="47.44673" lon="8.36407">
        <ele>424.5</ele>
        <time>2022-10-02T14:23:47Z</time>
      </trkpt>
      <trkpt lat="47.44673" lon="8.36411">
        <ele>424.6</ele>
        <time>2022-10-02T14:23:48Z</time>
      </trkpt>
      <trkpt lat="47.44674" lon="8.36417">
        <ele>424.7</ele>
        <time>2022-10-02T14:23:49Z</time>
      </trkpt>
      <trkpt lat="47.44675" lon="8.36423">
        <ele>424.7</ele>
        <time>2022-10-02T14:23:50Z</time>
      </trkpt>
      <trkpt lat="47.44675" lon="8.36431">
        <ele>424.8</ele>
        <time>2022-10-02T14:23:51Z</time>
      </trkpt>
      <trkpt lat="47.44675" lon="8.36437">
        <ele>424.8</ele>
        <time>2022-10-02T14:23:52Z</time>
      </trkpt>
      <trkpt lat="47.44676" lon="8.36444">
        <ele>424.9</ele>
        <time>2022-10-02T14:23:53Z</time>
      </trkpt>
      <trkpt lat="47.44678" lon="8.36449">
        <ele>424.9</ele>
        <time>2022-10-02T14:23:54Z</time>
      </trkpt>
      <trkpt lat="47.44679" lon="8.36455">
        <ele>425</ele>
        <time>2022-10-02T14:23:55Z</time>
      </trkpt>
      <trkpt lat="47.44678" lon="8.36462">
        <ele>425</ele>
        <time>2022-10-02T14:23:56Z</time>
      </trkpt>
      <trkpt lat="47.44679" lon="8.36467">
        <ele>425</ele>
        <time>2022-10-02T14:23:57Z</time>
      </trkpt>
      <trkpt lat="47.4468" lon="8.36474">
        <ele>425</ele>
        <time>2022-10-02T14:23:58Z</time>
      </trkpt>
      <trkpt lat="47.44682" lon="8.36479">
        <ele>425.1</ele>
        <time>2022-10-02T14:23:59Z</time>
      </trkpt>
      <trkpt lat="47.44684" lon="8.36486">
        <ele>425.1</ele>
        <time>2022-10-02T14:24:00Z</time>
      </trkpt>
      <trkpt lat="47.44685" lon="8.36493">
        <ele>425.1</ele>
        <time>2022-10-02T14:24:01Z</time>
      </trkpt>
      <trkpt lat="47.44686" lon="8.36498">
        <ele>425.1</ele>
        <time>2022-10-02T14:24:02Z</time>
      </trkpt>
      <trkpt lat="47.44688" lon="8.36505">
        <ele>425.2</ele>
        <time>2022-10-02T14:24:03Z</time>
      </trkpt>
      <trkpt lat="47.4469" lon="8.36514">
        <ele>425.2</ele>
        <time>2022-10-02T14:24:04Z</time>
      </trkpt>
      <trkpt lat="47.44691" lon="8.36519">
        <ele>425.2</ele>
        <time>2022-10-02T14:24:05Z</time>
      </trkpt>
      <trkpt lat="47.44693" lon="8.36525">
        <ele>425.3</ele>
        <time>2022-10-02T14:24:06Z</time>
      </trkpt>
      <trkpt lat="47.44695" lon="8.36531">
        <ele>425.4</ele>
        <time>2022-10-02T14:24:07Z</time>
      </trkpt>
      <trkpt lat="47.44697" lon="8.36537">
        <ele>425.4</ele>
        <time>2022-10-02T14:24:08Z</time>
      </trkpt>
      <trkpt lat="47.44698" lon="8.36543">
        <ele>425.5</ele>
        <time>2022-10-02T14:24:09Z</time>
      </trkpt>
      <trkpt lat="47.44699" lon="8.3655">
        <ele>425.6</ele>
        <time>2022-10-02T14:24:10Z</time>
      </trkpt>
      <trkpt lat="47.44701" lon="8.36556">
        <ele>425.7</ele>
        <time>2022-10-02T14:24:11Z</time>
      </trkpt>
      <trkpt lat="47.44702" lon="8.3656">
        <ele>425.8</ele>
        <time>2022-10-02T14:24:12Z</time>
      </trkpt>
      <trkpt lat="47.44705" lon="8.36565">
        <ele>425.8</ele>
        <time>2022-10-02T14:24:13Z</time>
      </trkpt>
      <trkpt lat="47.44705" lon="8.36571">
        <ele>425.9</ele>
        <time>2022-10-02T14:24:14Z</time>
      </trkpt>
      <trkpt lat="47.44705" lon="8.36574">
        <ele>426</ele>
        <time>2022-10-02T14:24:15Z</time>
      </trkpt>
      <trkpt lat="47.44706" lon="8.36579">
        <ele>426</ele>
        <time>2022-10-02T14:24:16Z</time>
      </trkpt>
      <trkpt lat="47.44708" lon="8.36584">
        <ele>426.1</ele>
        <time>2022-10-02T14:24:17Z</time>
      </trkpt>
      <trkpt lat="47.44709" lon="8.36588">
        <ele>426.1</ele>
        <time>2022-10-02T14:24:18Z</time>
      </trkpt>
      <trkpt lat="47.4471" lon="8.36592">
        <ele>426.1</ele>
        <time>2022-10-02T14:24:19Z</time>
      </trkpt>
      <trkpt lat="47.44711" lon="8.36597">
        <ele>426.2</ele>
        <time>2022-10-02T14:24:20Z</time>
      </trkpt>
      <trkpt lat="47.44713" lon="8.36601">
        <ele>426.2</ele>
        <time>2022-10-02T14:24:21Z</time>
      </trkpt>
      <trkpt lat="47.44715" lon="8.36606">
        <ele>426.2</ele>
        <time>2022-10-02T14:24:22Z</time>
      </trkpt>
      <trkpt lat="47.44717" lon="8.36611">
        <ele>426.3</ele>
        <time>2022-10-02T14:24:23Z</time>
      </trkpt>
      <trkpt lat="47.44718" lon="8.36616">
        <ele>426.3</ele>
        <time>2022-10-02T14:24:24Z</time>
      </trkpt>
      <trkpt lat="47.44719" lon="8.36621">
        <ele>426.3</ele>
        <time>2022-10-02T14:24:25Z</time>
      </trkpt>
      <trkpt lat="47.44721" lon="8.36626">
        <ele>426.4</ele>
        <time>2022-10-02T14:24:26Z</time>
      </trkpt>
      <trkpt lat="47.44722" lon="8.36631">
        <ele>426.4</ele>
        <time>2022-10-02T14:24:27Z</time>
      </trkpt>
      <trkpt lat="47.44724" lon="8.36636">
        <ele>426.4</ele>
        <time>2022-10-02T14:24:28Z</time>
      </trkpt>
      <trkpt lat="47.44726" lon="8.36641">
        <ele>426.4</ele>
        <time>2022-10-02T14:24:29Z</time>
      </trkpt>
      <trkpt lat="47.44728" lon="8.36646">
        <ele>426.4</ele>
        <time>2022-10-02T14:24:30Z</time>
      </trkpt>
      <trkpt lat="47.4473" lon="8.36651">
        <ele>426.4</ele>
        <time>2022-10-02T14:24:31Z</time>
      </trkpt>
      <trkpt lat="47.44732" lon="8.36656">
        <ele>426.4</ele>
        <time>2022-10-02T14:24:32Z</time>
      </trkpt>
      <trkpt lat="47.44734" lon="8.36661">
        <ele>426.4</ele>
        <time>2022-10-02T14:24:33Z</time>
      </trkpt>
      <trkpt lat="47.44737" lon="8.36665">
        <ele>426.4</ele>
        <time>2022-10-02T14:24:34Z</time>
      </trkpt>
      <trkpt lat="47.44738" lon="8.36671">
        <ele>426.5</ele>
        <time>2022-10-02T14:24:35Z</time>
      </trkpt>
      <trkpt lat="47.4474" lon="8.36675">
        <ele>426.5</ele>
        <time>2022-10-02T14:24:36Z</time>
      </trkpt>
      <trkpt lat="47.44743" lon="8.3668">
        <ele>426.5</ele>
        <time>2022-10-02T14:24:37Z</time>
      </trkpt>
      <trkpt lat="47.44745" lon="8.36685">
        <ele>426.5</ele>
        <time>2022-10-02T14:24:38Z</time>
      </trkpt>
      <trkpt lat="47.44748" lon="8.36688">
        <ele>426.5</ele>
        <time>2022-10-02T14:24:39Z</time>
      </trkpt>
      <trkpt lat="47.4475" lon="8.36696">
        <ele>426.6</ele>
        <time>2022-10-02T14:24:40Z</time>
      </trkpt>
      <trkpt lat="47.44754" lon="8.36701">
        <ele>426.6</ele>
        <time>2022-10-02T14:24:41Z</time>
      </trkpt>
      <trkpt lat="47.44757" lon="8.36704">
        <ele>426.6</ele>
        <time>2022-10-02T14:24:42Z</time>
      </trkpt>
      <trkpt lat="47.44758" lon="8.3671">
        <ele>426.6</ele>
        <time>2022-10-02T14:24:43Z</time>
      </trkpt>
      <trkpt lat="47.44761" lon="8.36714">
        <ele>426.7</ele>
        <time>2022-10-02T14:24:44Z</time>
      </trkpt>
      <trkpt lat="47.44764" lon="8.3672">
        <ele>426.7</ele>
        <time>2022-10-02T14:24:45Z</time>
      </trkpt>
      <trkpt lat="47.44767" lon="8.36727">
        <ele>426.7</ele>
        <time>2022-10-02T14:24:46Z</time>
      </trkpt>
      <trkpt lat="47.4477" lon="8.36732">
        <ele>426.8</ele>
        <time>2022-10-02T14:24:47Z</time>
      </trkpt>
      <trkpt lat="47.44773" lon="8.36737">
        <ele>426.8</ele>
        <time>2022-10-02T14:24:48Z</time>
      </trkpt>
      <trkpt lat="47.44775" lon="8.36742">
        <ele>426.8</ele>
        <time>2022-10-02T14:24:49Z</time>
      </trkpt>
      <trkpt lat="47.44778" lon="8.36748">
        <ele>426.9</ele>
        <time>2022-10-02T14:24:50Z</time>
      </trkpt>
      <trkpt lat="47.4478" lon="8.36753">
        <ele>426.9</ele>
        <time>2022-10-02T14:24:51Z</time>
      </trkpt>
      <trkpt lat="47.44783" lon="8.36759">
        <ele>427</ele>
        <time>2022-10-02T14:24:52Z</time>
      </trkpt>
      <trkpt lat="47.44785" lon="8.36764">
        <ele>427.1</ele>
        <time>2022-10-02T14:24:53Z</time>
      </trkpt>
      <trkpt lat="47.44787" lon="8.36769">
        <ele>427.1</ele>
        <time>2022-10-02T14:24:54Z</time>
      </trkpt>
      <trkpt lat="47.4479" lon="8.36773">
        <ele>427.2</ele>
        <time>2022-10-02T14:24:55Z</time>
      </trkpt>
      <trkpt lat="47.44792" lon="8.36777">
        <ele>427.2</ele>
        <time>2022-10-02T14:24:56Z</time>
      </trkpt>
      <trkpt lat="47.44795" lon="8.36782">
        <ele>427.3</ele>
        <time>2022-10-02T14:24:57Z</time>
      </trkpt>
      <trkpt lat="47.44797" lon="8.36787">
        <ele>427.3</ele>
        <time>2022-10-02T14:24:58Z</time>
      </trkpt>
      <trkpt lat="47.44799" lon="8.36792">
        <ele>427.4</ele>
        <time>2022-10-02T14:24:59Z</time>
      </trkpt>
      <trkpt lat="47.44801" lon="8.36796">
        <ele>427.4</ele>
        <time>2022-10-02T14:25:00Z</time>
      </trkpt>
      <trkpt lat="47.44802" lon="8.36801">
        <ele>427.5</ele>
        <time>2022-10-02T14:25:01Z</time>
      </trkpt>
      <trkpt lat="47.44806" lon="8.36803">
        <ele>427.5</ele>
        <time>2022-10-02T14:25:02Z</time>
      </trkpt>
      <trkpt lat="47.44808" lon="8.36809">
        <ele>427.6</ele>
        <time>2022-10-02T14:25:03Z</time>
      </trkpt>
      <trkpt lat="47.44809" lon="8.36813">
        <ele>427.6</ele>
        <time>2022-10-02T14:25:04Z</time>
      </trkpt>
      <trkpt lat="47.44811" lon="8.36818">
        <ele>427.6</ele>
        <time>2022-10-02T14:25:05Z</time>
      </trkpt>
      <trkpt lat="47.44814" lon="8.36821">
        <ele>427.6</ele>
        <time>2022-10-02T14:25:06Z</time>
      </trkpt>
      <trkpt lat="47.44816" lon="8.36826">
        <ele>427.6</ele>
        <time>2022-10-02T14:25:07Z</time>
      </trkpt>
      <trkpt lat="47.44819" lon="8.36834">
        <ele>427.6</ele>
        <time>2022-10-02T14:25:08Z</time>
      </trkpt>
      <trkpt lat="47.44822" lon="8.36835">
        <ele>427.6</ele>
        <time>2022-10-02T14:25:09Z</time>
      </trkpt>
      <trkpt lat="47.44825" lon="8.36838">
        <ele>427.6</ele>
        <time>2022-10-02T14:25:10Z</time>
      </trkpt>
      <trkpt lat="47.44827" lon="8.36843">
        <ele>427.6</ele>
        <time>2022-10-02T14:25:11Z</time>
      </trkpt>
      <trkpt lat="47.44829" lon="8.36848">
        <ele>427.6</ele>
        <time>2022-10-02T14:25:12Z</time>
      </trkpt>
      <trkpt lat="47.44832" lon="8.36852">
        <ele>427.5</ele>
        <time>2022-10-02T14:25:13Z</time>
      </trkpt>
      <trkpt lat="47.44835" lon="8.36859">
        <ele>427.5</ele>
        <time>2022-10-02T14:25:14Z</time>
      </trkpt>
      <trkpt lat="47.44836" lon="8.36864">
        <ele>427.5</ele>
        <time>2022-10-02T14:25:15Z</time>
      </trkpt>
      <trkpt lat="47.44839" lon="8.36867">
        <ele>427.5</ele>
        <time>2022-10-02T14:25:16Z</time>
      </trkpt>
      <trkpt lat="47.44842" lon="8.36871">
        <ele>427.5</ele>
        <time>2022-10-02T14:25:17Z</time>
      </trkpt>
      <trkpt lat="47.44846" lon="8.36878">
        <ele>427.4</ele>
        <time>2022-10-02T14:25:18Z</time>
      </trkpt>
      <trkpt lat="47.44849" lon="8.36882">
        <ele>427.4</ele>
        <time>2022-10-02T14:25:19Z</time>
      </trkpt>
      <trkpt lat="47.44851" lon="8.36885">
        <ele>427.3</ele>
        <time>2022-10-02T14:25:20Z</time>
      </trkpt>
      <trkpt lat="47.44854" lon="8.36889">
        <ele>427.3</ele>
        <time>2022-10-02T14:25:21Z</time>
      </trkpt>
      <trkpt lat="47.44857" lon="8.36893">
        <ele>427.2</ele>
        <time>2022-10-02T14:25:22Z</time>
      </trkpt>
      <trkpt lat="47.44861" lon="8.36901">
        <ele>427.1</ele>
        <time>2022-10-02T14:25:23Z</time>
      </trkpt>
      <trkpt lat="47.44863" lon="8.36904">
        <ele>427</ele>
        <time>2022-10-02T14:25:24Z</time>
      </trkpt>
      <trkpt lat="47.44867" lon="8.3691">
        <ele>426.9</ele>
        <time>2022-10-02T14:25:25Z</time>
      </trkpt>
      <trkpt lat="47.44871" lon="8.36919">
        <ele>426.7</ele>
        <time>2022-10-02T14:25:26Z</time>
      </trkpt>
      <trkpt lat="47.44875" lon="8.36922">
        <ele>426.7</ele>
        <time>2022-10-02T14:25:27Z</time>
      </trkpt>
      <trkpt lat="47.44878" lon="8.36927">
        <ele>426.6</ele>
        <time>2022-10-02T14:25:28Z</time>
      </trkpt>
      <trkpt lat="47.4488" lon="8.36932">
        <ele>426.5</ele>
        <time>2022-10-02T14:25:29Z</time>
      </trkpt>
      <trkpt lat="47.44884" lon="8.36938">
        <ele>426.5</ele>
        <time>2022-10-02T14:25:30Z</time>
      </trkpt>
      <trkpt lat="47.44887" lon="8.36944">
        <ele>426.4</ele>
        <time>2022-10-02T14:25:31Z</time>
      </trkpt>
      <trkpt lat="47.4489" lon="8.36949">
        <ele>426.3</ele>
        <time>2022-10-02T14:25:32Z</time>
      </trkpt>
      <trkpt lat="47.44892" lon="8.36953">
        <ele>426.2</ele>
        <time>2022-10-02T14:25:33Z</time>
      </trkpt>
      <trkpt lat="47.44895" lon="8.36959">
        <ele>426.1</ele>
        <time>2022-10-02T14:25:34Z</time>
      </trkpt>
      <trkpt lat="47.44899" lon="8.36964">
        <ele>426</ele>
        <time>2022-10-02T14:25:35Z</time>
      </trkpt>
      <trkpt lat="47.44902" lon="8.36969">
        <ele>425.9</ele>
        <time>2022-10-02T14:25:36Z</time>
      </trkpt>
      <trkpt lat="47.44905" lon="8.36974">
        <ele>425.8</ele>
        <time>2022-10-02T14:25:37Z</time>
      </trkpt>
      <trkpt lat="47.44907" lon="8.36978">
        <ele>425.7</ele>
        <time>2022-10-02T14:25:38Z</time>
      </trkpt>
      <trkpt lat="47.44911" lon="8.36983">
        <ele>425.6</ele>
        <time>2022-10-02T14:25:39Z</time>
      </trkpt>
      <trkpt lat="47.44914" lon="8.36987">
        <ele>425.6</ele>
        <time>2022-10-02T14:25:40Z</time>
      </trkpt>
      <trkpt lat="47.44918" lon="8.36991">
        <ele>425.5</ele>
        <time>2022-10-02T14:25:41Z</time>
      </trkpt>
      <trkpt lat="47.44922" lon="8.36994">
        <ele>425.4</ele>
        <time>2022-10-02T14:25:42Z</time>
      </trkpt>
      <trkpt lat="47.44925" lon="8.36999">
        <ele>425.4</ele>
        <time>2022-10-02T14:25:43Z</time>
      </trkpt>
      <trkpt lat="47.44929" lon="8.37002">
        <ele>425.3</ele>
        <time>2022-10-02T14:25:44Z</time>
      </trkpt>
      <trkpt lat="47.44933" lon="8.37006">
        <ele>425.2</ele>
        <time>2022-10-02T14:25:45Z</time>
      </trkpt>
      <trkpt lat="47.44937" lon="8.37008">
        <ele>425.2</ele>
        <time>2022-10-02T14:25:46Z</time>
      </trkpt>
      <trkpt lat="47.44941" lon="8.37011">
        <ele>425.1</ele>
        <time>2022-10-02T14:25:47Z</time>
      </trkpt>
      <trkpt lat="47.44943" lon="8.37014">
        <ele>425.1</ele>
        <time>2022-10-02T14:25:48Z</time>
      </trkpt>
      <trkpt lat="47.44945" lon="8.37019">
        <ele>425</ele>
        <time>2022-10-02T14:25:49Z</time>
      </trkpt>
      <trkpt lat="47.44946" lon="8.37024">
        <ele>425</ele>
        <time>2022-10-02T14:25:50Z</time>
      </trkpt>
      <trkpt lat="47.44946" lon="8.37026">
        <ele>425</ele>
        <time>2022-10-02T14:25:51Z</time>
      </trkpt>
      <trkpt lat="47.44946" lon="8.3703">
        <ele>424.9</ele>
        <time>2022-10-02T14:25:52Z</time>
      </trkpt>
      <trkpt lat="47.44946" lon="8.37032">
        <ele>424.9</ele>
        <time>2022-10-02T14:25:53Z</time>
      </trkpt>
      <trkpt lat="47.44946" lon="8.37036">
        <ele>424.9</ele>
        <time>2022-10-02T14:25:54Z</time>
      </trkpt>
      <trkpt lat="47.44946" lon="8.37037">
        <ele>424.9</ele>
        <time>2022-10-02T14:25:55Z</time>
      </trkpt>
      <trkpt lat="47.44944" lon="8.3704">
        <ele>424.9</ele>
        <time>2022-10-02T14:25:56Z</time>
      </trkpt>
      <trkpt lat="47.44943" lon="8.37041">
        <ele>424.8</ele>
        <time>2022-10-02T14:25:57Z</time>
      </trkpt>
      <trkpt lat="47.44942" lon="8.37042">
        <ele>424.8</ele>
        <time>2022-10-02T14:25:58Z</time>
      </trkpt>
      <trkpt lat="47.44941" lon="8.37042">
        <ele>424.8</ele>
        <time>2022-10-02T14:25:59Z</time>
      </trkpt>
      <trkpt lat="47.4494" lon="8.37042">
        <ele>424.8</ele>
        <time>2022-10-02T14:26:00Z</time>
      </trkpt>
      <trkpt lat="47.4494" lon="8.37042">
        <ele>424.8</ele>
        <time>2022-10-02T14:26:01Z</time>
      </trkpt>
      <trkpt lat="47.44939" lon="8.37042">
        <ele>424.8</ele>
        <time>2022-10-02T14:26:02Z</time>
      </trkpt>
      <trkpt lat="47.44938" lon="8.37042">
        <ele>424.7</ele>
        <time>2022-10-02T14:26:03Z</time>
      </trkpt>
      <trkpt lat="47.44937" lon="8.37042">
        <ele>424.7</ele>
        <time>2022-10-02T14:26:04Z</time>
      </trkpt>
      <trkpt lat="47.44936" lon="8.37043">
        <ele>424.7</ele>
        <time>2022-10-02T14:26:05Z</time>
      </trkpt>
      <trkpt lat="47.44936" lon="8.37043">
        <ele>424.7</ele>
        <time>2022-10-02T14:26:06Z</time>
      </trkpt>
      <trkpt lat="47.44935" lon="8.37043">
        <ele>424.6</ele>
        <time>2022-10-02T14:26:07Z</time>
      </trkpt>
      <trkpt lat="47.44934" lon="8.37043">
        <ele>424.6</ele>
        <time>2022-10-02T14:26:08Z</time>
      </trkpt>
      <trkpt lat="47.44933" lon="8.37043">
        <ele>424.6</ele>
        <time>2022-10-02T14:26:09Z</time>
      </trkpt>
      <trkpt lat="47.44933" lon="8.37043">
        <ele>424.5</ele>
        <time>2022-10-02T14:28:28Z</time>
      </trkpt>
      <trkpt lat="47.44932" lon="8.37044">
        <ele>424.5</ele>
        <time>2022-10-02T14:28:29Z</time>
      </trkpt>
      <trkpt lat="47.4493" lon="8.37044">
        <ele>424.5</ele>
        <time>2022-10-02T14:28:30Z</time>
      </trkpt>
      <trkpt lat="47.44929" lon="8.37045">
        <ele>424.4</ele>
        <time>2022-10-02T14:28:31Z</time>
      </trkpt>
      <trkpt lat="47.44925" lon="8.37044">
        <ele>424.3</ele>
        <time>2022-10-02T14:28:32Z</time>
      </trkpt>
      <trkpt lat="47.44923" lon="8.37042">
        <ele>424.2</ele>
        <time>2022-10-02T14:28:33Z</time>
      </trkpt>
      <trkpt lat="47.44922" lon="8.37041">
        <ele>424.2</ele>
        <time>2022-10-02T14:28:34Z</time>
      </trkpt>
      <trkpt lat="47.44919" lon="8.3704">
        <ele>424.1</ele>
        <time>2022-10-02T14:28:35Z</time>
      </trkpt>
      <trkpt lat="47.44917" lon="8.37038">
        <ele>424</ele>
        <time>2022-10-02T14:28:36Z</time>
      </trkpt>
      <trkpt lat="47.44916" lon="8.37038">
        <ele>423.9</ele>
        <time>2022-10-02T14:28:37Z</time>
      </trkpt>
      <trkpt lat="47.44913" lon="8.37034">
        <ele>423.8</ele>
        <time>2022-10-02T14:28:38Z</time>
      </trkpt>
      <trkpt lat="47.44912" lon="8.37033">
        <ele>423.8</ele>
        <time>2022-10-02T14:28:39Z</time>
      </trkpt>
      <trkpt lat="47.44909" lon="8.3703">
        <ele>423.6</ele>
        <time>2022-10-02T14:28:40Z</time>
      </trkpt>
      <trkpt lat="47.44908" lon="8.37029">
        <ele>423.6</ele>
        <time>2022-10-02T14:28:41Z</time>
      </trkpt>
      <trkpt lat="47.44906" lon="8.37027">
        <ele>423.5</ele>
        <time>2022-10-02T14:28:42Z</time>
      </trkpt>
      <trkpt lat="47.44901" lon="8.37024">
        <ele>423.3</ele>
        <time>2022-10-02T14:28:43Z</time>
      </trkpt>
      <trkpt lat="47.44898" lon="8.37019">
        <ele>423.2</ele>
        <time>2022-10-02T14:28:44Z</time>
      </trkpt>
      <trkpt lat="47.44896" lon="8.37017">
        <ele>423.1</ele>
        <time>2022-10-02T14:28:45Z</time>
      </trkpt>
      <trkpt lat="47.44893" lon="8.37013">
        <ele>422.9</ele>
        <time>2022-10-02T14:28:46Z</time>
      </trkpt>
      <trkpt lat="47.44891" lon="8.37009">
        <ele>422.8</ele>
        <time>2022-10-02T14:28:47Z</time>
      </trkpt>
      <trkpt lat="47.44887" lon="8.37006">
        <ele>422.6</ele>
        <time>2022-10-02T14:28:48Z</time>
      </trkpt>
      <trkpt lat="47.44884" lon="8.37003">
        <ele>422.4</ele>
        <time>2022-10-02T14:28:49Z</time>
      </trkpt>
      <trkpt lat="47.4488" lon="8.36999">
        <ele>422.2</ele>
        <time>2022-10-02T14:28:50Z</time>
      </trkpt>
      <trkpt lat="47.44877" lon="8.36994">
        <ele>421.9</ele>
        <time>2022-10-02T14:28:51Z</time>
      </trkpt>
      <trkpt lat="47.44873" lon="8.36989">
        <ele>421.6</ele>
        <time>2022-10-02T14:28:52Z</time>
      </trkpt>
      <trkpt lat="47.44869" lon="8.36983">
        <ele>421.3</ele>
        <time>2022-10-02T14:28:53Z</time>
      </trkpt>
      <trkpt lat="47.44865" lon="8.36978">
        <ele>421</ele>
        <time>2022-10-02T14:28:54Z</time>
      </trkpt>
      <trkpt lat="47.44861" lon="8.36973">
        <ele>420.7</ele>
        <time>2022-10-02T14:28:55Z</time>
      </trkpt>
      <trkpt lat="47.44857" lon="8.36969">
        <ele>420.5</ele>
        <time>2022-10-02T14:28:56Z</time>
      </trkpt>
      <trkpt lat="47.44853" lon="8.36964">
        <ele>420.3</ele>
        <time>2022-10-02T14:28:57Z</time>
      </trkpt>
      <trkpt lat="47.44849" lon="8.36958">
        <ele>419.9</ele>
        <time>2022-10-02T14:28:58Z</time>
      </trkpt>
      <trkpt lat="47.44845" lon="8.36953">
        <ele>419.7</ele>
        <time>2022-10-02T14:28:59Z</time>
      </trkpt>
      <trkpt lat="47.44841" lon="8.36949">
        <ele>419.5</ele>
        <time>2022-10-02T14:29:00Z</time>
      </trkpt>
      <trkpt lat="47.44837" lon="8.36946">
        <ele>419.3</ele>
        <time>2022-10-02T14:29:01Z</time>
      </trkpt>
      <trkpt lat="47.44833" lon="8.36942">
        <ele>419.2</ele>
        <time>2022-10-02T14:29:02Z</time>
      </trkpt>
      <trkpt lat="47.44828" lon="8.36942">
        <ele>419</ele>
        <time>2022-10-02T14:29:03Z</time>
      </trkpt>
      <trkpt lat="47.44825" lon="8.3694">
        <ele>418.9</ele>
        <time>2022-10-02T14:29:04Z</time>
      </trkpt>
      <trkpt lat="47.44817" lon="8.36942">
        <ele>418.5</ele>
        <time>2022-10-02T14:29:05Z</time>
      </trkpt>
      <trkpt lat="47.4481" lon="8.36944">
        <ele>418</ele>
        <time>2022-10-02T14:29:06Z</time>
      </trkpt>
      <trkpt lat="47.44806" lon="8.36947">
        <ele>417.7</ele>
        <time>2022-10-02T14:29:07Z</time>
      </trkpt>
      <trkpt lat="47.448" lon="8.36952">
        <ele>417.3</ele>
        <time>2022-10-02T14:29:08Z</time>
      </trkpt>
      <trkpt lat="47.44795" lon="8.36956">
        <ele>416.9</ele>
        <time>2022-10-02T14:29:09Z</time>
      </trkpt>
      <trkpt lat="47.44788" lon="8.3696">
        <ele>416.5</ele>
        <time>2022-10-02T14:29:10Z</time>
      </trkpt>
      <trkpt lat="47.44782" lon="8.36966">
        <ele>416.2</ele>
        <time>2022-10-02T14:29:11Z</time>
      </trkpt>
      <trkpt lat="47.44777" lon="8.36971">
        <ele>415.9</ele>
        <time>2022-10-02T14:29:12Z</time>
      </trkpt>
      <trkpt lat="47.44771" lon="8.36978">
        <ele>415.7</ele>
        <time>2022-10-02T14:29:13Z</time>
      </trkpt>
      <trkpt lat="47.44766" lon="8.36984">
        <ele>415.6</ele>
        <time>2022-10-02T14:29:14Z</time>
      </trkpt>
      <trkpt lat="47.44761" lon="8.3699">
        <ele>415.5</ele>
        <time>2022-10-02T14:29:15Z</time>
      </trkpt>
      <trkpt lat="47.44757" lon="8.36995">
        <ele>415.4</ele>
        <time>2022-10-02T14:29:16Z</time>
      </trkpt>
      <trkpt lat="47.44755" lon="8.36999">
        <ele>415.4</ele>
        <time>2022-10-02T14:29:17Z</time>
      </trkpt>
      <trkpt lat="47.44753" lon="8.37002">
        <ele>415.3</ele>
        <time>2022-10-02T14:29:18Z</time>
      </trkpt>
      <trkpt lat="47.44752" lon="8.37003">
        <ele>415.3</ele>
        <time>2022-10-02T14:29:19Z</time>
      </trkpt>
      <trkpt lat="47.44753" lon="8.37008">
        <ele>415.3</ele>
        <time>2022-10-02T14:29:20Z</time>
      </trkpt>
      <trkpt lat="47.44753" lon="8.3701">
        <ele>415.3</ele>
        <time>2022-10-02T14:29:21Z</time>
      </trkpt>
      <trkpt lat="47.44753" lon="8.37016">
        <ele>415.2</ele>
        <time>2022-10-02T14:29:22Z</time>
      </trkpt>
      <trkpt lat="47.44754" lon="8.37019">
        <ele>415.2</ele>
        <time>2022-10-02T14:29:23Z</time>
      </trkpt>
      <trkpt lat="47.44756" lon="8.37024">
        <ele>415.2</ele>
        <time>2022-10-02T14:29:24Z</time>
      </trkpt>
      <trkpt lat="47.44757" lon="8.37029">
        <ele>415.2</ele>
        <time>2022-10-02T14:29:25Z</time>
      </trkpt>
      <trkpt lat="47.44759" lon="8.37034">
        <ele>415.2</ele>
        <time>2022-10-02T14:29:26Z</time>
      </trkpt>
      <trkpt lat="47.44759" lon="8.37041">
        <ele>415.2</ele>
        <time>2022-10-02T14:29:27Z</time>
      </trkpt>
      <trkpt lat="47.44761" lon="8.37048">
        <ele>415.2</ele>
        <time>2022-10-02T14:29:28Z</time>
      </trkpt>
      <trkpt lat="47.44762" lon="8.37053">
        <ele>415.2</ele>
        <time>2022-10-02T14:29:29Z</time>
      </trkpt>
      <trkpt lat="47.44763" lon="8.3706">
        <ele>415.2</ele>
        <time>2022-10-02T14:29:30Z</time>
      </trkpt>
      <trkpt lat="47.44764" lon="8.37065">
        <ele>415.2</ele>
        <time>2022-10-02T14:29:31Z</time>
      </trkpt>
      <trkpt lat="47.44765" lon="8.37071">
        <ele>415.2</ele>
        <time>2022-10-02T14:29:32Z</time>
      </trkpt>
      <trkpt lat="47.44765" lon="8.37078">
        <ele>415.2</ele>
        <time>2022-10-02T14:29:33Z</time>
      </trkpt>
      <trkpt lat="47.44767" lon="8.37085">
        <ele>415.2</ele>
        <time>2022-10-02T14:29:34Z</time>
      </trkpt>
      <trkpt lat="47.44769" lon="8.37093">
        <ele>415.2</ele>
        <time>2022-10-02T14:29:35Z</time>
      </trkpt>
      <trkpt lat="47.4477" lon="8.371">
        <ele>415.2</ele>
        <time>2022-10-02T14:29:36Z</time>
      </trkpt>
      <trkpt lat="47.44771" lon="8.37107">
        <ele>415.2</ele>
        <time>2022-10-02T14:29:37Z</time>
      </trkpt>
      <trkpt lat="47.4477" lon="8.37113">
        <ele>415.2</ele>
        <time>2022-10-02T14:29:38Z</time>
      </trkpt>
      <trkpt lat="47.4477" lon="8.37118">
        <ele>415.2</ele>
        <time>2022-10-02T14:29:39Z</time>
      </trkpt>
      <trkpt lat="47.44773" lon="8.37124">
        <ele>415.3</ele>
        <time>2022-10-02T14:29:40Z</time>
      </trkpt>
      <trkpt lat="47.44774" lon="8.37131">
        <ele>415.3</ele>
        <time>2022-10-02T14:29:41Z</time>
      </trkpt>
      <trkpt lat="47.44775" lon="8.37137">
        <ele>415.3</ele>
        <time>2022-10-02T14:29:42Z</time>
      </trkpt>
      <trkpt lat="47.44776" lon="8.37145">
        <ele>415.3</ele>
        <time>2022-10-02T14:29:43Z</time>
      </trkpt>
      <trkpt lat="47.44777" lon="8.37152">
        <ele>415.3</ele>
        <time>2022-10-02T14:29:44Z</time>
      </trkpt>
      <trkpt lat="47.44779" lon="8.37159">
        <ele>415.3</ele>
        <time>2022-10-02T14:29:45Z</time>
      </trkpt>
      <trkpt lat="47.44781" lon="8.37166">
        <ele>415.3</ele>
        <time>2022-10-02T14:29:46Z</time>
      </trkpt>
      <trkpt lat="47.44781" lon="8.37174">
        <ele>415.3</ele>
        <time>2022-10-02T14:29:47Z</time>
      </trkpt>
      <trkpt lat="47.44783" lon="8.3718">
        <ele>415.3</ele>
        <time>2022-10-02T14:29:48Z</time>
      </trkpt>
      <trkpt lat="47.44784" lon="8.37186">
        <ele>415.3</ele>
        <time>2022-10-02T14:29:49Z</time>
      </trkpt>
      <trkpt lat="47.44785" lon="8.37192">
        <ele>415.3</ele>
        <time>2022-10-02T14:29:50Z</time>
      </trkpt>
      <trkpt lat="47.44786" lon="8.37198">
        <ele>415.4</ele>
        <time>2022-10-02T14:29:51Z</time>
      </trkpt>
      <trkpt lat="47.44786" lon="8.37205">
        <ele>415.4</ele>
        <time>2022-10-02T14:29:52Z</time>
      </trkpt>
      <trkpt lat="47.44788" lon="8.37211">
        <ele>415.4</ele>
        <time>2022-10-02T14:29:53Z</time>
      </trkpt>
      <trkpt lat="47.44788" lon="8.37218">
        <ele>415.4</ele>
        <time>2022-10-02T14:29:54Z</time>
      </trkpt>
      <trkpt lat="47.44789" lon="8.37224">
        <ele>415.4</ele>
        <time>2022-10-02T14:29:55Z</time>
      </trkpt>
      <trkpt lat="47.4479" lon="8.37229">
        <ele>415.4</ele>
        <time>2022-10-02T14:29:56Z</time>
      </trkpt>
      <trkpt lat="47.4479" lon="8.37234">
        <ele>415.4</ele>
        <time>2022-10-02T14:29:57Z</time>
      </trkpt>
      <trkpt lat="47.44791" lon="8.37241">
        <ele>415.4</ele>
        <time>2022-10-02T14:29:58Z</time>
      </trkpt>
      <trkpt lat="47.44792" lon="8.37247">
        <ele>415.4</ele>
        <time>2022-10-02T14:29:59Z</time>
      </trkpt>
      <trkpt lat="47.44792" lon="8.37253">
        <ele>415.4</ele>
        <time>2022-10-02T14:30:00Z</time>
      </trkpt>
      <trkpt lat="47.44793" lon="8.37259">
        <ele>415.4</ele>
        <time>2022-10-02T14:30:01Z</time>
      </trkpt>
      <trkpt lat="47.44795" lon="8.37266">
        <ele>415.5</ele>
        <time>2022-10-02T14:30:02Z</time>
      </trkpt>
      <trkpt lat="47.44795" lon="8.37271">
        <ele>415.5</ele>
        <time>2022-10-02T14:30:03Z</time>
      </trkpt>
      <trkpt lat="47.44796" lon="8.37276">
        <ele>415.5</ele>
        <time>2022-10-02T14:30:04Z</time>
      </trkpt>
      <trkpt lat="47.44797" lon="8.37282">
        <ele>415.5</ele>
        <time>2022-10-02T14:30:05Z</time>
      </trkpt>
      <trkpt lat="47.44798" lon="8.37286">
        <ele>415.5</ele>
        <time>2022-10-02T14:30:06Z</time>
      </trkpt>
      <trkpt lat="47.44799" lon="8.37293">
        <ele>415.5</ele>
        <time>2022-10-02T14:30:07Z</time>
      </trkpt>
      <trkpt lat="47.448" lon="8.37299">
        <ele>415.6</ele>
        <time>2022-10-02T14:30:08Z</time>
      </trkpt>
      <trkpt lat="47.44801" lon="8.37304">
        <ele>415.6</ele>
        <time>2022-10-02T14:30:09Z</time>
      </trkpt>
      <trkpt lat="47.44802" lon="8.3731">
        <ele>415.6</ele>
        <time>2022-10-02T14:30:10Z</time>
      </trkpt>
      <trkpt lat="47.44802" lon="8.37315">
        <ele>415.6</ele>
        <time>2022-10-02T14:30:11Z</time>
      </trkpt>
      <trkpt lat="47.44801" lon="8.37322">
        <ele>415.6</ele>
        <time>2022-10-02T14:30:12Z</time>
      </trkpt>
      <trkpt lat="47.44802" lon="8.37328">
        <ele>415.6</ele>
        <time>2022-10-02T14:30:13Z</time>
      </trkpt>
      <trkpt lat="47.44801" lon="8.3733">
        <ele>415.6</ele>
        <time>2022-10-02T14:30:14Z</time>
      </trkpt>
      <trkpt lat="47.44801" lon="8.37336">
        <ele>415.6</ele>
        <time>2022-10-02T14:30:15Z</time>
      </trkpt>
      <trkpt lat="47.44802" lon="8.37341">
        <ele>415.6</ele>
        <time>2022-10-02T14:30:16Z</time>
      </trkpt>
      <trkpt lat="47.44802" lon="8.37346">
        <ele>415.7</ele>
        <time>2022-10-02T14:30:17Z</time>
      </trkpt>
      <trkpt lat="47.44802" lon="8.37353">
        <ele>415.7</ele>
        <time>2022-10-02T14:30:18Z</time>
      </trkpt>
      <trkpt lat="47.44802" lon="8.37358">
        <ele>415.7</ele>
        <time>2022-10-02T14:30:19Z</time>
      </trkpt>
      <trkpt lat="47.44801" lon="8.37363">
        <ele>415.7</ele>
        <time>2022-10-02T14:30:20Z</time>
      </trkpt>
      <trkpt lat="47.44801" lon="8.37368">
        <ele>415.7</ele>
        <time>2022-10-02T14:30:21Z</time>
      </trkpt>
      <trkpt lat="47.44801" lon="8.37375">
        <ele>415.7</ele>
        <time>2022-10-02T14:30:22Z</time>
      </trkpt>
      <trkpt lat="47.44801" lon="8.3738">
        <ele>415.7</ele>
        <time>2022-10-02T14:30:23Z</time>
      </trkpt>
      <trkpt lat="47.448" lon="8.37385">
        <ele>415.7</ele>
        <time>2022-10-02T14:30:25Z</time>
      </trkpt>
      <trkpt lat="47.448" lon="8.3739">
        <ele>415.7</ele>
        <time>2022-10-02T14:30:26Z</time>
      </trkpt>
      <trkpt lat="47.44799" lon="8.37396">
        <ele>415.8</ele>
        <time>2022-10-02T14:30:27Z</time>
      </trkpt>
      <trkpt lat="47.44799" lon="8.37402">
        <ele>415.8</ele>
        <time>2022-10-02T14:30:28Z</time>
      </trkpt>
      <trkpt lat="47.44799" lon="8.37409">
        <ele>415.8</ele>
        <time>2022-10-02T14:30:29Z</time>
      </trkpt>
      <trkpt lat="47.44798" lon="8.37416">
        <ele>415.8</ele>
        <time>2022-10-02T14:30:30Z</time>
      </trkpt>
      <trkpt lat="47.44798" lon="8.37424">
        <ele>415.8</ele>
        <time>2022-10-02T14:30:31Z</time>
      </trkpt>
      <trkpt lat="47.44798" lon="8.37435">
        <ele>415.8</ele>
        <time>2022-10-02T14:30:32Z</time>
      </trkpt>
      <trkpt lat="47.44798" lon="8.37441">
        <ele>415.9</ele>
        <time>2022-10-02T14:30:33Z</time>
      </trkpt>
      <trkpt lat="47.44797" lon="8.37447">
        <ele>415.9</ele>
        <time>2022-10-02T14:30:34Z</time>
      </trkpt>
      <trkpt lat="47.44795" lon="8.37453">
        <ele>415.9</ele>
        <time>2022-10-02T14:30:35Z</time>
      </trkpt>
      <trkpt lat="47.44795" lon="8.37458">
        <ele>415.9</ele>
        <time>2022-10-02T14:30:36Z</time>
      </trkpt>
      <trkpt lat="47.44795" lon="8.37464">
        <ele>416</ele>
        <time>2022-10-02T14:30:37Z</time>
      </trkpt>
      <trkpt lat="47.44795" lon="8.37471">
        <ele>416</ele>
        <time>2022-10-02T14:30:38Z</time>
      </trkpt>
      <trkpt lat="47.44795" lon="8.37477">
        <ele>416</ele>
        <time>2022-10-02T14:30:39Z</time>
      </trkpt>
      <trkpt lat="47.44794" lon="8.37484">
        <ele>416</ele>
        <time>2022-10-02T14:30:40Z</time>
      </trkpt>
      <trkpt lat="47.44794" lon="8.37491">
        <ele>416</ele>
        <time>2022-10-02T14:30:41Z</time>
      </trkpt>
      <trkpt lat="47.44793" lon="8.37497">
        <ele>416</ele>
        <time>2022-10-02T14:30:42Z</time>
      </trkpt>
      <trkpt lat="47.44792" lon="8.37504">
        <ele>416</ele>
        <time>2022-10-02T14:30:43Z</time>
      </trkpt>
      <trkpt lat="47.44792" lon="8.37511">
        <ele>416</ele>
        <time>2022-10-02T14:30:44Z</time>
      </trkpt>
      <trkpt lat="47.44791" lon="8.37517">
        <ele>416</ele>
        <time>2022-10-02T14:30:45Z</time>
      </trkpt>
      <trkpt lat="47.44791" lon="8.37523">
        <ele>416.1</ele>
        <time>2022-10-02T14:30:46Z</time>
      </trkpt>
      <trkpt lat="47.4479" lon="8.3753">
        <ele>416.1</ele>
        <time>2022-10-02T14:30:47Z</time>
      </trkpt>
      <trkpt lat="47.4479" lon="8.37536">
        <ele>416.1</ele>
        <time>2022-10-02T14:30:48Z</time>
      </trkpt>
      <trkpt lat="47.44788" lon="8.37541">
        <ele>416.2</ele>
        <time>2022-10-02T14:30:49Z</time>
      </trkpt>
      <trkpt lat="47.44788" lon="8.37548">
        <ele>416.2</ele>
        <time>2022-10-02T14:30:50Z</time>
      </trkpt>
      <trkpt lat="47.44787" lon="8.37556">
        <ele>416.2</ele>
        <time>2022-10-02T14:30:51Z</time>
      </trkpt>
      <trkpt lat="47.44787" lon="8.37562">
        <ele>416.2</ele>
        <time>2022-10-02T14:30:52Z</time>
      </trkpt>
      <trkpt lat="47.44786" lon="8.37567">
        <ele>416.3</ele>
        <time>2022-10-02T14:30:53Z</time>
      </trkpt>
      <trkpt lat="47.44785" lon="8.37573">
        <ele>416.3</ele>
        <time>2022-10-02T14:30:54Z</time>
      </trkpt>
      <trkpt lat="47.44784" lon="8.3758">
        <ele>416.3</ele>
        <time>2022-10-02T14:30:55Z</time>
      </trkpt>
      <trkpt lat="47.44784" lon="8.37586">
        <ele>416.3</ele>
        <time>2022-10-02T14:30:56Z</time>
      </trkpt>
      <trkpt lat="47.44784" lon="8.37592">
        <ele>416.4</ele>
        <time>2022-10-02T14:30:57Z</time>
      </trkpt>
      <trkpt lat="47.44784" lon="8.37597">
        <ele>416.4</ele>
        <time>2022-10-02T14:30:58Z</time>
      </trkpt>
      <trkpt lat="47.44783" lon="8.37603">
        <ele>416.4</ele>
        <time>2022-10-02T14:30:59Z</time>
      </trkpt>
      <trkpt lat="47.44782" lon="8.37609">
        <ele>416.5</ele>
        <time>2022-10-02T14:31:00Z</time>
      </trkpt>
      <trkpt lat="47.44782" lon="8.37616">
        <ele>416.5</ele>
        <time>2022-10-02T14:31:01Z</time>
      </trkpt>
      <trkpt lat="47.44782" lon="8.37623">
        <ele>416.6</ele>
        <time>2022-10-02T14:31:02Z</time>
      </trkpt>
      <trkpt lat="47.44783" lon="8.37628">
        <ele>416.7</ele>
        <time>2022-10-02T14:31:03Z</time>
      </trkpt>
      <trkpt lat="47.44782" lon="8.37633">
        <ele>416.7</ele>
        <time>2022-10-02T14:31:04Z</time>
      </trkpt>
      <trkpt lat="47.44782" lon="8.37639">
        <ele>416.8</ele>
        <time>2022-10-02T14:31:05Z</time>
      </trkpt>
      <trkpt lat="47.44783" lon="8.37645">
        <ele>416.9</ele>
        <time>2022-10-02T14:31:06Z</time>
      </trkpt>
      <trkpt lat="47.44784" lon="8.37649">
        <ele>417</ele>
        <time>2022-10-02T14:31:07Z</time>
      </trkpt>
      <trkpt lat="47.44786" lon="8.37655">
        <ele>417</ele>
        <time>2022-10-02T14:31:08Z</time>
      </trkpt>
      <trkpt lat="47.4479" lon="8.37658">
        <ele>417.1</ele>
        <time>2022-10-02T14:31:09Z</time>
      </trkpt>
      <trkpt lat="47.44791" lon="8.37659">
        <ele>417.1</ele>
        <time>2022-10-02T14:31:10Z</time>
      </trkpt>
      <trkpt lat="47.44794" lon="8.37662">
        <ele>417.1</ele>
        <time>2022-10-02T14:31:11Z</time>
      </trkpt>
      <trkpt lat="47.44798" lon="8.37664">
        <ele>417.1</ele>
        <time>2022-10-02T14:31:12Z</time>
      </trkpt>
      <trkpt lat="47.448" lon="8.37664">
        <ele>417.1</ele>
        <time>2022-10-02T14:31:13Z</time>
      </trkpt>
      <trkpt lat="47.44804" lon="8.37664">
        <ele>417</ele>
        <time>2022-10-02T14:31:14Z</time>
      </trkpt>
      <trkpt lat="47.44808" lon="8.37665">
        <ele>417</ele>
        <time>2022-10-02T14:31:15Z</time>
      </trkpt>
      <trkpt lat="47.44812" lon="8.37665">
        <ele>417</ele>
        <time>2022-10-02T14:31:16Z</time>
      </trkpt>
      <trkpt lat="47.44815" lon="8.37665">
        <ele>417</ele>
        <time>2022-10-02T14:31:17Z</time>
      </trkpt>
      <trkpt lat="47.4482" lon="8.37665">
        <ele>417</ele>
        <time>2022-10-02T14:31:18Z</time>
      </trkpt>
      <trkpt lat="47.44824" lon="8.37664">
        <ele>417</ele>
        <time>2022-10-02T14:31:19Z</time>
      </trkpt>
      <trkpt lat="47.44828" lon="8.37663">
        <ele>417</ele>
        <time>2022-10-02T14:31:20Z</time>
      </trkpt>
      <trkpt lat="47.44832" lon="8.37663">
        <ele>417.1</ele>
        <time>2022-10-02T14:31:21Z</time>
      </trkpt>
      <trkpt lat="47.44836" lon="8.37662">
        <ele>417.1</ele>
        <time>2022-10-02T14:31:22Z</time>
      </trkpt>
      <trkpt lat="47.44841" lon="8.37662">
        <ele>417.1</ele>
        <time>2022-10-02T14:31:23Z</time>
      </trkpt>
      <trkpt lat="47.44843" lon="8.37663">
        <ele>417.1</ele>
        <time>2022-10-02T14:31:24Z</time>
      </trkpt>
      <trkpt lat="47.44847" lon="8.37664">
        <ele>417.2</ele>
        <time>2022-10-02T14:31:25Z</time>
      </trkpt>
      <trkpt lat="47.44851" lon="8.37663">
        <ele>417.2</ele>
        <time>2022-10-02T14:31:26Z</time>
      </trkpt>
      <trkpt lat="47.44854" lon="8.37662">
        <ele>417.3</ele>
        <time>2022-10-02T14:31:27Z</time>
      </trkpt>
      <trkpt lat="47.44859" lon="8.37663">
        <ele>417.4</ele>
        <time>2022-10-02T14:31:28Z</time>
      </trkpt>
      <trkpt lat="47.44862" lon="8.37661">
        <ele>417.5</ele>
        <time>2022-10-02T14:31:29Z</time>
      </trkpt>
      <trkpt lat="47.44866" lon="8.37663">
        <ele>417.5</ele>
        <time>2022-10-02T14:31:30Z</time>
      </trkpt>
      <trkpt lat="47.4487" lon="8.37664">
        <ele>417.6</ele>
        <time>2022-10-02T14:31:31Z</time>
      </trkpt>
      <trkpt lat="47.44872" lon="8.37664">
        <ele>417.7</ele>
        <time>2022-10-02T14:31:32Z</time>
      </trkpt>
      <trkpt lat="47.44876" lon="8.37666">
        <ele>417.8</ele>
        <time>2022-10-02T14:31:33Z</time>
      </trkpt>
      <trkpt lat="47.44879" lon="8.37666">
        <ele>417.8</ele>
        <time>2022-10-02T14:31:34Z</time>
      </trkpt>
      <trkpt lat="47.44882" lon="8.37666">
        <ele>417.9</ele>
        <time>2022-10-02T14:31:35Z</time>
      </trkpt>
      <trkpt lat="47.44883" lon="8.37667">
        <ele>417.9</ele>
        <time>2022-10-02T14:31:36Z</time>
      </trkpt>
      <trkpt lat="47.44886" lon="8.37669">
        <ele>418</ele>
        <time>2022-10-02T14:31:37Z</time>
      </trkpt>
      <trkpt lat="47.44887" lon="8.37673">
        <ele>418</ele>
        <time>2022-10-02T14:31:38Z</time>
      </trkpt>
      <trkpt lat="47.44887" lon="8.37675">
        <ele>418</ele>
        <time>2022-10-02T14:31:39Z</time>
      </trkpt>
      <trkpt lat="47.44887" lon="8.37676">
        <ele>418</ele>
        <time>2022-10-02T14:31:40Z</time>
      </trkpt>
      <trkpt lat="47.44886" lon="8.37679">
        <ele>418</ele>
        <time>2022-10-02T14:31:41Z</time>
      </trkpt>
      <trkpt lat="47.44886" lon="8.37679">
        <ele>418</ele>
        <time>2022-10-02T14:31:42Z</time>
      </trkpt>
      <trkpt lat="47.44885" lon="8.37679">
        <ele>418</ele>
        <time>2022-10-02T14:31:43Z</time>
      </trkpt>
      <trkpt lat="47.44884" lon="8.37679">
        <ele>418</ele>
        <time>2022-10-02T14:31:44Z</time>
      </trkpt>
      <trkpt lat="47.44883" lon="8.37679">
        <ele>418</ele>
        <time>2022-10-02T14:31:45Z</time>
      </trkpt>
      <trkpt lat="47.44883" lon="8.37678">
        <ele>418</ele>
        <time>2022-10-02T14:31:46Z</time>
      </trkpt>
      <trkpt lat="47.44881" lon="8.37676">
        <ele>418</ele>
        <time>2022-10-02T14:31:47Z</time>
      </trkpt>
      <trkpt lat="47.44881" lon="8.37673">
        <ele>418</ele>
        <time>2022-10-02T14:31:48Z</time>
      </trkpt>
      <trkpt lat="47.44881" lon="8.37671">
        <ele>418</ele>
        <time>2022-10-02T14:31:49Z</time>
      </trkpt>
      <trkpt lat="47.44883" lon="8.37668">
        <ele>418</ele>
        <time>2022-10-02T14:31:50Z</time>
      </trkpt>
      <trkpt lat="47.44885" lon="8.37667">
        <ele>418</ele>
        <time>2022-10-02T14:31:51Z</time>
      </trkpt>
      <trkpt lat="47.44888" lon="8.37667">
        <ele>418.1</ele>
        <time>2022-10-02T14:31:52Z</time>
      </trkpt>
      <trkpt lat="47.44892" lon="8.37668">
        <ele>418.2</ele>
        <time>2022-10-02T14:31:53Z</time>
      </trkpt>
      <trkpt lat="47.44894" lon="8.37668">
        <ele>418.2</ele>
        <time>2022-10-02T14:31:54Z</time>
      </trkpt>
      <trkpt lat="47.44898" lon="8.37669">
        <ele>418.3</ele>
        <time>2022-10-02T14:31:55Z</time>
      </trkpt>
      <trkpt lat="47.44899" lon="8.37669">
        <ele>418.3</ele>
        <time>2022-10-02T14:31:56Z</time>
      </trkpt>
      <trkpt lat="47.44902" lon="8.3767">
        <ele>418.4</ele>
        <time>2022-10-02T14:31:57Z</time>
      </trkpt>
      <trkpt lat="47.44905" lon="8.37673">
        <ele>418.5</ele>
        <time>2022-10-02T14:31:58Z</time>
      </trkpt>
      <trkpt lat="47.44906" lon="8.37673">
        <ele>418.5</ele>
        <time>2022-10-02T14:31:59Z</time>
      </trkpt>
      <trkpt lat="47.4491" lon="8.37676">
        <ele>418.6</ele>
        <time>2022-10-02T14:32:00Z</time>
      </trkpt>
      <trkpt lat="47.44911" lon="8.37677">
        <ele>418.6</ele>
        <time>2022-10-02T14:32:01Z</time>
      </trkpt>
      <trkpt lat="47.44914" lon="8.3768">
        <ele>418.7</ele>
        <time>2022-10-02T14:32:02Z</time>
      </trkpt>
      <trkpt lat="47.44916" lon="8.37683">
        <ele>418.7</ele>
        <time>2022-10-02T14:32:03Z</time>
      </trkpt>
      <trkpt lat="47.44918" lon="8.37686">
        <ele>418.8</ele>
        <time>2022-10-02T14:32:04Z</time>
      </trkpt>
      <trkpt lat="47.4492" lon="8.37689">
        <ele>418.8</ele>
        <time>2022-10-02T14:32:05Z</time>
      </trkpt>
      <trkpt lat="47.44922" lon="8.37693">
        <ele>418.9</ele>
        <time>2022-10-02T14:32:06Z</time>
      </trkpt>
      <trkpt lat="47.44925" lon="8.37696">
        <ele>418.9</ele>
        <time>2022-10-02T14:32:07Z</time>
      </trkpt>
      <trkpt lat="47.44927" lon="8.37701">
        <ele>419</ele>
        <time>2022-10-02T14:32:08Z</time>
      </trkpt>
      <trkpt lat="47.44928" lon="8.37703">
        <ele>419</ele>
        <time>2022-10-02T14:32:09Z</time>
      </trkpt>
      <trkpt lat="47.44929" lon="8.37707">
        <ele>419</ele>
        <time>2022-10-02T14:32:10Z</time>
      </trkpt>
      <trkpt lat="47.44931" lon="8.37711">
        <ele>419.1</ele>
        <time>2022-10-02T14:32:11Z</time>
      </trkpt>
      <trkpt lat="47.44935" lon="8.37715">
        <ele>419.1</ele>
        <time>2022-10-02T14:32:12Z</time>
      </trkpt>
      <trkpt lat="47.44936" lon="8.37719">
        <ele>419.1</ele>
        <time>2022-10-02T14:32:13Z</time>
      </trkpt>
      <trkpt lat="47.44937" lon="8.37721">
        <ele>419.1</ele>
        <time>2022-10-02T14:32:14Z</time>
      </trkpt>
      <trkpt lat="47.44939" lon="8.37725">
        <ele>419.2</ele>
        <time>2022-10-02T14:32:15Z</time>
      </trkpt>
      <trkpt lat="47.44941" lon="8.37729">
        <ele>419.2</ele>
        <time>2022-10-02T14:32:16Z</time>
      </trkpt>
      <trkpt lat="47.44944" lon="8.37733">
        <ele>419.3</ele>
        <time>2022-10-02T14:32:17Z</time>
      </trkpt>
      <trkpt lat="47.44946" lon="8.37737">
        <ele>419.3</ele>
        <time>2022-10-02T14:32:18Z</time>
      </trkpt>
      <trkpt lat="47.44948" lon="8.3774">
        <ele>419.4</ele>
        <time>2022-10-02T14:32:19Z</time>
      </trkpt>
      <trkpt lat="47.4495" lon="8.37744">
        <ele>419.4</ele>
        <time>2022-10-02T14:32:20Z</time>
      </trkpt>
      <trkpt lat="47.44952" lon="8.37749">
        <ele>419.5</ele>
        <time>2022-10-02T14:32:21Z</time>
      </trkpt>
      <trkpt lat="47.44955" lon="8.37754">
        <ele>419.5</ele>
        <time>2022-10-02T14:32:22Z</time>
      </trkpt>
      <trkpt lat="47.44957" lon="8.37758">
        <ele>419.5</ele>
        <time>2022-10-02T14:32:23Z</time>
      </trkpt>
      <trkpt lat="47.44959" lon="8.37762">
        <ele>419.6</ele>
        <time>2022-10-02T14:32:24Z</time>
      </trkpt>
      <trkpt lat="47.44961" lon="8.37766">
        <ele>419.6</ele>
        <time>2022-10-02T14:32:25Z</time>
      </trkpt>
      <trkpt lat="47.44964" lon="8.37769">
        <ele>419.6</ele>
        <time>2022-10-02T14:32:26Z</time>
      </trkpt>
      <trkpt lat="47.44967" lon="8.37775">
        <ele>419.7</ele>
        <time>2022-10-02T14:32:27Z</time>
      </trkpt>
      <trkpt lat="47.44969" lon="8.3778">
        <ele>419.7</ele>
        <time>2022-10-02T14:32:28Z</time>
      </trkpt>
      <trkpt lat="47.44971" lon="8.37783">
        <ele>419.7</ele>
        <time>2022-10-02T14:32:29Z</time>
      </trkpt>
      <trkpt lat="47.44974" lon="8.37788">
        <ele>419.8</ele>
        <time>2022-10-02T14:32:30Z</time>
      </trkpt>
      <trkpt lat="47.44977" lon="8.37793">
        <ele>419.8</ele>
        <time>2022-10-02T14:32:31Z</time>
      </trkpt>
      <trkpt lat="47.4498" lon="8.37798">
        <ele>419.8</ele>
        <time>2022-10-02T14:32:32Z</time>
      </trkpt>
      <trkpt lat="47.44983" lon="8.37802">
        <ele>419.9</ele>
        <time>2022-10-02T14:32:33Z</time>
      </trkpt>
      <trkpt lat="47.44985" lon="8.37807">
        <ele>419.9</ele>
        <time>2022-10-02T14:32:34Z</time>
      </trkpt>
      <trkpt lat="47.44989" lon="8.37812">
        <ele>419.9</ele>
        <time>2022-10-02T14:32:35Z</time>
      </trkpt>
      <trkpt lat="47.44992" lon="8.37816">
        <ele>420</ele>
        <time>2022-10-02T14:32:36Z</time>
      </trkpt>
      <trkpt lat="47.44995" lon="8.37821">
        <ele>420</ele>
        <time>2022-10-02T14:32:37Z</time>
      </trkpt>
      <trkpt lat="47.44997" lon="8.37824">
        <ele>420</ele>
        <time>2022-10-02T14:32:38Z</time>
      </trkpt>
      <trkpt lat="47.45" lon="8.3783">
        <ele>420.1</ele>
        <time>2022-10-02T14:32:39Z</time>
      </trkpt>
      <trkpt lat="47.45003" lon="8.37834">
        <ele>420.1</ele>
        <time>2022-10-02T14:32:40Z</time>
      </trkpt>
      <trkpt lat="47.45006" lon="8.37839">
        <ele>420.1</ele>
        <time>2022-10-02T14:32:41Z</time>
      </trkpt>
      <trkpt lat="47.45009" lon="8.37843">
        <ele>420.1</ele>
        <time>2022-10-02T14:32:42Z</time>
      </trkpt>
      <trkpt lat="47.45012" lon="8.37846">
        <ele>420.2</ele>
        <time>2022-10-02T14:32:43Z</time>
      </trkpt>
      <trkpt lat="47.45015" lon="8.37851">
        <ele>420.2</ele>
        <time>2022-10-02T14:32:44Z</time>
      </trkpt>
      <trkpt lat="47.45018" lon="8.37855">
        <ele>420.2</ele>
        <time>2022-10-02T14:32:45Z</time>
      </trkpt>
      <trkpt lat="47.45022" lon="8.3786">
        <ele>420.2</ele>
        <time>2022-10-02T14:32:46Z</time>
      </trkpt>
      <trkpt lat="47.45024" lon="8.37863">
        <ele>420.2</ele>
        <time>2022-10-02T14:32:47Z</time>
      </trkpt>
      <trkpt lat="47.45028" lon="8.37868">
        <ele>420.2</ele>
        <time>2022-10-02T14:32:48Z</time>
      </trkpt>
      <trkpt lat="47.45031" lon="8.37872">
        <ele>420.2</ele>
        <time>2022-10-02T14:32:49Z</time>
      </trkpt>
      <trkpt lat="47.45034" lon="8.37875">
        <ele>420.2</ele>
        <time>2022-10-02T14:32:50Z</time>
      </trkpt>
      <trkpt lat="47.45037" lon="8.37879">
        <ele>420.2</ele>
        <time>2022-10-02T14:32:51Z</time>
      </trkpt>
      <trkpt lat="47.45041" lon="8.37883">
        <ele>420.2</ele>
        <time>2022-10-02T14:32:52Z</time>
      </trkpt>
      <trkpt lat="47.45044" lon="8.37886">
        <ele>420.2</ele>
        <time>2022-10-02T14:32:53Z</time>
      </trkpt>
      <trkpt lat="47.45047" lon="8.3789">
        <ele>420.3</ele>
        <time>2022-10-02T14:32:54Z</time>
      </trkpt>
      <trkpt lat="47.45051" lon="8.37894">
        <ele>420.3</ele>
        <time>2022-10-02T14:32:55Z</time>
      </trkpt>
      <trkpt lat="47.45054" lon="8.37898">
        <ele>420.3</ele>
        <time>2022-10-02T14:32:56Z</time>
      </trkpt>
      <trkpt lat="47.45057" lon="8.37901">
        <ele>420.3</ele>
        <time>2022-10-02T14:32:57Z</time>
      </trkpt>
      <trkpt lat="47.45059" lon="8.37904">
        <ele>420.2</ele>
        <time>2022-10-02T14:32:58Z</time>
      </trkpt>
      <trkpt lat="47.45062" lon="8.37907">
        <ele>420.1</ele>
        <time>2022-10-02T14:32:59Z</time>
      </trkpt>
      <trkpt lat="47.45062" lon="8.37912">
        <ele>420</ele>
        <time>2022-10-02T14:33:00Z</time>
      </trkpt>
      <trkpt lat="47.45062" lon="8.37913">
        <ele>420</ele>
        <time>2022-10-02T14:33:01Z</time>
      </trkpt>
      <trkpt lat="47.4506" lon="8.37915">
        <ele>420</ele>
        <time>2022-10-02T14:33:02Z</time>
      </trkpt>
      <trkpt lat="47.45059" lon="8.37917">
        <ele>419.9</ele>
        <time>2022-10-02T14:33:03Z</time>
      </trkpt>
      <trkpt lat="47.45059" lon="8.37919">
        <ele>419.9</ele>
        <time>2022-10-02T14:33:04Z</time>
      </trkpt>
      <trkpt lat="47.45059" lon="8.3792">
        <ele>419.9</ele>
        <time>2022-10-02T14:33:05Z</time>
      </trkpt>
      <trkpt lat="47.45059" lon="8.37921">
        <ele>419.9</ele>
        <time>2022-10-02T14:33:06Z</time>
      </trkpt>
      <trkpt lat="47.45059" lon="8.37922">
        <ele>419.9</ele>
        <time>2022-10-02T14:33:07Z</time>
      </trkpt>
      <trkpt lat="47.45059" lon="8.37923">
        <ele>419.9</ele>
        <time>2022-10-02T14:33:08Z</time>
      </trkpt>
      <trkpt lat="47.4506" lon="8.37925">
        <ele>419.9</ele>
        <time>2022-10-02T14:33:09Z</time>
      </trkpt>
      <trkpt lat="47.4506" lon="8.37926">
        <ele>419.9</ele>
        <time>2022-10-02T14:33:10Z</time>
      </trkpt>
      <trkpt lat="47.4506" lon="8.37927">
        <ele>419.9</ele>
        <time>2022-10-02T14:33:11Z</time>
      </trkpt>
      <trkpt lat="47.4506" lon="8.37928">
        <ele>419.9</ele>
        <time>2022-10-02T14:33:12Z</time>
      </trkpt>
      <trkpt lat="47.4506" lon="8.37929">
        <ele>419.9</ele>
        <time>2022-10-02T14:33:13Z</time>
      </trkpt>
      <trkpt lat="47.4506" lon="8.3793">
        <ele>419.9</ele>
        <time>2022-10-02T14:34:55Z</time>
      </trkpt>
      <trkpt lat="47.4506" lon="8.37931">
        <ele>419.9</ele>
        <time>2022-10-02T14:34:56Z</time>
      </trkpt>
      <trkpt lat="47.45061" lon="8.37937">
        <ele>419.8</ele>
        <time>2022-10-02T14:34:57Z</time>
      </trkpt>
      <trkpt lat="47.45062" lon="8.37939">
        <ele>419.8</ele>
        <time>2022-10-02T14:34:58Z</time>
      </trkpt>
      <trkpt lat="47.45062" lon="8.37943">
        <ele>419.9</ele>
        <time>2022-10-02T14:34:59Z</time>
      </trkpt>
      <trkpt lat="47.45063" lon="8.37948">
        <ele>419.9</ele>
        <time>2022-10-02T14:35:00Z</time>
      </trkpt>
      <trkpt lat="47.45063" lon="8.37952">
        <ele>419.9</ele>
        <time>2022-10-02T14:35:01Z</time>
      </trkpt>
      <trkpt lat="47.45063" lon="8.37957">
        <ele>420</ele>
        <time>2022-10-02T14:35:02Z</time>
      </trkpt>
      <trkpt lat="47.45064" lon="8.37962">
        <ele>420.1</ele>
        <time>2022-10-02T14:35:03Z</time>
      </trkpt>
      <trkpt lat="47.45065" lon="8.37967">
        <ele>420.1</ele>
        <time>2022-10-02T14:35:04Z</time>
      </trkpt>
      <trkpt lat="47.45065" lon="8.37972">
        <ele>420.2</ele>
        <time>2022-10-02T14:35:05Z</time>
      </trkpt>
      <trkpt lat="47.45065" lon="8.37976">
        <ele>420.3</ele>
        <time>2022-10-02T14:35:06Z</time>
      </trkpt>
      <trkpt lat="47.45065" lon="8.3798">
        <ele>420.4</ele>
        <time>2022-10-02T14:35:07Z</time>
      </trkpt>
      <trkpt lat="47.45065" lon="8.37985">
        <ele>420.5</ele>
        <time>2022-10-02T14:35:08Z</time>
      </trkpt>
      <trkpt lat="47.45065" lon="8.37989">
        <ele>420.6</ele>
        <time>2022-10-02T14:35:09Z</time>
      </trkpt>
      <trkpt lat="47.45066" lon="8.37994">
        <ele>420.7</ele>
        <time>2022-10-02T14:35:10Z</time>
      </trkpt>
      <trkpt lat="47.45066" lon="8.37998">
        <ele>420.8</ele>
        <time>2022-10-02T14:35:11Z</time>
      </trkpt>
      <trkpt lat="47.45066" lon="8.38002">
        <ele>420.9</ele>
        <time>2022-10-02T14:35:12Z</time>
      </trkpt>
      <trkpt lat="47.45066" lon="8.38008">
        <ele>421.1</ele>
        <time>2022-10-02T14:35:13Z</time>
      </trkpt>
      <trkpt lat="47.45066" lon="8.3801">
        <ele>421.1</ele>
        <time>2022-10-02T14:35:14Z</time>
      </trkpt>
      <trkpt lat="47.45066" lon="8.38016">
        <ele>421.3</ele>
        <time>2022-10-02T14:35:15Z</time>
      </trkpt>
      <trkpt lat="47.45066" lon="8.38018">
        <ele>421.3</ele>
        <time>2022-10-02T14:35:16Z</time>
      </trkpt>
      <trkpt lat="47.45066" lon="8.38022">
        <ele>421.4</ele>
        <time>2022-10-02T14:35:17Z</time>
      </trkpt>
      <trkpt lat="47.45067" lon="8.38028">
        <ele>421.5</ele>
        <time>2022-10-02T14:35:18Z</time>
      </trkpt>
      <trkpt lat="47.45067" lon="8.3803">
        <ele>421.6</ele>
        <time>2022-10-02T14:35:19Z</time>
      </trkpt>
      <trkpt lat="47.45066" lon="8.38035">
        <ele>421.7</ele>
        <time>2022-10-02T14:35:20Z</time>
      </trkpt>
      <trkpt lat="47.45066" lon="8.38037">
        <ele>421.8</ele>
        <time>2022-10-02T14:35:21Z</time>
      </trkpt>
      <trkpt lat="47.45066" lon="8.38043">
        <ele>421.9</ele>
        <time>2022-10-02T14:35:22Z</time>
      </trkpt>
      <trkpt lat="47.45066" lon="8.38045">
        <ele>421.9</ele>
        <time>2022-10-02T14:35:23Z</time>
      </trkpt>
      <trkpt lat="47.45066" lon="8.38051">
        <ele>422</ele>
        <time>2022-10-02T14:35:24Z</time>
      </trkpt>
      <trkpt lat="47.45066" lon="8.38053">
        <ele>422.1</ele>
        <time>2022-10-02T14:35:25Z</time>
      </trkpt>
      <trkpt lat="47.45067" lon="8.38057">
        <ele>422.1</ele>
        <time>2022-10-02T14:35:26Z</time>
      </trkpt>
      <trkpt lat="47.45067" lon="8.38063">
        <ele>422.2</ele>
        <time>2022-10-02T14:35:27Z</time>
      </trkpt>
      <trkpt lat="47.45066" lon="8.38065">
        <ele>422.3</ele>
        <time>2022-10-02T14:35:28Z</time>
      </trkpt>
      <trkpt lat="47.45066" lon="8.38071">
        <ele>422.3</ele>
        <time>2022-10-02T14:35:29Z</time>
      </trkpt>
      <trkpt lat="47.45066" lon="8.38073">
        <ele>422.4</ele>
        <time>2022-10-02T14:35:30Z</time>
      </trkpt>
      <trkpt lat="47.45067" lon="8.38077">
        <ele>422.4</ele>
        <time>2022-10-02T14:35:31Z</time>
      </trkpt>
      <trkpt lat="47.45067" lon="8.38081">
        <ele>422.5</ele>
        <time>2022-10-02T14:35:32Z</time>
      </trkpt>
      <trkpt lat="47.45067" lon="8.38085">
        <ele>422.5</ele>
        <time>2022-10-02T14:35:33Z</time>
      </trkpt>
      <trkpt lat="47.45067" lon="8.38089">
        <ele>422.6</ele>
        <time>2022-10-02T14:35:34Z</time>
      </trkpt>
      <trkpt lat="47.45067" lon="8.38093">
        <ele>422.6</ele>
        <time>2022-10-02T14:35:35Z</time>
      </trkpt>
      <trkpt lat="47.45067" lon="8.38097">
        <ele>422.6</ele>
        <time>2022-10-02T14:35:36Z</time>
      </trkpt>
      <trkpt lat="47.45067" lon="8.38102">
        <ele>422.7</ele>
        <time>2022-10-02T14:35:37Z</time>
      </trkpt>
      <trkpt lat="47.45067" lon="8.38108">
        <ele>422.7</ele>
        <time>2022-10-02T14:35:38Z</time>
      </trkpt>
      <trkpt lat="47.45066" lon="8.3811">
        <ele>422.7</ele>
        <time>2022-10-02T14:35:39Z</time>
      </trkpt>
      <trkpt lat="47.45066" lon="8.38115">
        <ele>422.8</ele>
        <time>2022-10-02T14:35:40Z</time>
      </trkpt>
      <trkpt lat="47.45067" lon="8.38119">
        <ele>422.8</ele>
        <time>2022-10-02T14:35:41Z</time>
      </trkpt>
      <trkpt lat="47.45067" lon="8.38124">
        <ele>422.8</ele>
        <time>2022-10-02T14:35:42Z</time>
      </trkpt>
      <trkpt lat="47.45067" lon="8.38129">
        <ele>422.9</ele>
        <time>2022-10-02T14:35:43Z</time>
      </trkpt>
      <trkpt lat="47.45067" lon="8.38134">
        <ele>422.9</ele>
        <time>2022-10-02T14:35:44Z</time>
      </trkpt>
      <trkpt lat="47.45067" lon="8.38139">
        <ele>422.9</ele>
        <time>2022-10-02T14:35:45Z</time>
      </trkpt>
      <trkpt lat="47.45067" lon="8.38144">
        <ele>423</ele>
        <time>2022-10-02T14:35:46Z</time>
      </trkpt>
      <trkpt lat="47.45067" lon="8.38149">
        <ele>423</ele>
        <time>2022-10-02T14:35:47Z</time>
      </trkpt>
      <trkpt lat="47.45068" lon="8.38154">
        <ele>423</ele>
        <time>2022-10-02T14:35:48Z</time>
      </trkpt>
      <trkpt lat="47.45068" lon="8.38159">
        <ele>423.1</ele>
        <time>2022-10-02T14:35:49Z</time>
      </trkpt>
      <trkpt lat="47.45068" lon="8.38164">
        <ele>423.1</ele>
        <time>2022-10-02T14:35:50Z</time>
      </trkpt>
      <trkpt lat="47.45069" lon="8.38169">
        <ele>423.2</ele>
        <time>2022-10-02T14:35:51Z</time>
      </trkpt>
      <trkpt lat="47.45069" lon="8.38173">
        <ele>423.2</ele>
        <time>2022-10-02T14:35:52Z</time>
      </trkpt>
      <trkpt lat="47.45069" lon="8.38178">
        <ele>423.3</ele>
        <time>2022-10-02T14:35:53Z</time>
      </trkpt>
      <trkpt lat="47.4507" lon="8.38182">
        <ele>423.3</ele>
        <time>2022-10-02T14:35:54Z</time>
      </trkpt>
      <trkpt lat="47.4507" lon="8.38187">
        <ele>423.3</ele>
        <time>2022-10-02T14:35:55Z</time>
      </trkpt>
      <trkpt lat="47.45071" lon="8.38192">
        <ele>423.4</ele>
        <time>2022-10-02T14:35:56Z</time>
      </trkpt>
      <trkpt lat="47.45072" lon="8.38197">
        <ele>423.4</ele>
        <time>2022-10-02T14:35:57Z</time>
      </trkpt>
      <trkpt lat="47.45073" lon="8.38201">
        <ele>423.4</ele>
        <time>2022-10-02T14:35:58Z</time>
      </trkpt>
      <trkpt lat="47.45074" lon="8.38207">
        <ele>423.5</ele>
        <time>2022-10-02T14:35:59Z</time>
      </trkpt>
      <trkpt lat="47.45074" lon="8.38211">
        <ele>423.5</ele>
        <time>2022-10-02T14:36:00Z</time>
      </trkpt>
      <trkpt lat="47.45074" lon="8.38217">
        <ele>423.5</ele>
        <time>2022-10-02T14:36:01Z</time>
      </trkpt>
      <trkpt lat="47.45075" lon="8.38222">
        <ele>423.6</ele>
        <time>2022-10-02T14:36:02Z</time>
      </trkpt>
      <trkpt lat="47.45076" lon="8.38227">
        <ele>423.6</ele>
        <time>2022-10-02T14:36:03Z</time>
      </trkpt>
      <trkpt lat="47.45077" lon="8.38233">
        <ele>423.6</ele>
        <time>2022-10-02T14:36:04Z</time>
      </trkpt>
      <trkpt lat="47.45078" lon="8.38238">
        <ele>423.7</ele>
        <time>2022-10-02T14:36:05Z</time>
      </trkpt>
      <trkpt lat="47.45079" lon="8.38244">
        <ele>423.7</ele>
        <time>2022-10-02T14:36:06Z</time>
      </trkpt>
      <trkpt lat="47.4508" lon="8.38249">
        <ele>423.8</ele>
        <time>2022-10-02T14:36:07Z</time>
      </trkpt>
      <trkpt lat="47.45081" lon="8.38254">
        <ele>423.8</ele>
        <time>2022-10-02T14:36:08Z</time>
      </trkpt>
      <trkpt lat="47.45082" lon="8.3826">
        <ele>423.9</ele>
        <time>2022-10-02T14:36:09Z</time>
      </trkpt>
      <trkpt lat="47.45083" lon="8.38265">
        <ele>424</ele>
        <time>2022-10-02T14:36:10Z</time>
      </trkpt>
      <trkpt lat="47.45084" lon="8.3827">
        <ele>424.1</ele>
        <time>2022-10-02T14:36:11Z</time>
      </trkpt>
      <trkpt lat="47.45086" lon="8.38275">
        <ele>424.2</ele>
        <time>2022-10-02T14:36:12Z</time>
      </trkpt>
      <trkpt lat="47.45087" lon="8.38281">
        <ele>424.3</ele>
        <time>2022-10-02T14:36:13Z</time>
      </trkpt>
      <trkpt lat="47.45087" lon="8.38283">
        <ele>424.4</ele>
        <time>2022-10-02T14:36:14Z</time>
      </trkpt>
      <trkpt lat="47.45088" lon="8.38287">
        <ele>424.5</ele>
        <time>2022-10-02T14:36:15Z</time>
      </trkpt>
      <trkpt lat="47.45089" lon="8.38292">
        <ele>424.6</ele>
        <time>2022-10-02T14:36:16Z</time>
      </trkpt>
      <trkpt lat="47.45089" lon="8.38294">
        <ele>424.7</ele>
        <time>2022-10-02T14:36:17Z</time>
      </trkpt>
      <trkpt lat="47.4509" lon="8.38298">
        <ele>424.8</ele>
        <time>2022-10-02T14:36:18Z</time>
      </trkpt>
      <trkpt lat="47.45091" lon="8.38303">
        <ele>424.9</ele>
        <time>2022-10-02T14:36:19Z</time>
      </trkpt>
      <trkpt lat="47.45091" lon="8.38305">
        <ele>425</ele>
        <time>2022-10-02T14:36:20Z</time>
      </trkpt>
      <trkpt lat="47.45092" lon="8.38309">
        <ele>425.1</ele>
        <time>2022-10-02T14:36:21Z</time>
      </trkpt>
      <trkpt lat="47.45092" lon="8.38311">
        <ele>425.2</ele>
        <time>2022-10-02T14:36:22Z</time>
      </trkpt>
      <trkpt lat="47.45091" lon="8.38316">
        <ele>425.3</ele>
        <time>2022-10-02T14:36:23Z</time>
      </trkpt>
      <trkpt lat="47.45091" lon="8.38317">
        <ele>425.3</ele>
        <time>2022-10-02T14:36:24Z</time>
      </trkpt>
      <trkpt lat="47.4509" lon="8.38321">
        <ele>425.4</ele>
        <time>2022-10-02T14:36:25Z</time>
      </trkpt>
      <trkpt lat="47.45089" lon="8.38322">
        <ele>425.4</ele>
        <time>2022-10-02T14:36:26Z</time>
      </trkpt>
      <trkpt lat="47.45087" lon="8.38324">
        <ele>425.3</ele>
        <time>2022-10-02T14:36:27Z</time>
      </trkpt>
      <trkpt lat="47.45086" lon="8.38325">
        <ele>425.3</ele>
        <time>2022-10-02T14:36:28Z</time>
      </trkpt>
      <trkpt lat="47.45082" lon="8.38326">
        <ele>425.2</ele>
        <time>2022-10-02T14:36:29Z</time>
      </trkpt>
      <trkpt lat="47.4508" lon="8.38327">
        <ele>425.2</ele>
        <time>2022-10-02T14:36:30Z</time>
      </trkpt>
      <trkpt lat="47.45077" lon="8.38328">
        <ele>425.1</ele>
        <time>2022-10-02T14:36:31Z</time>
      </trkpt>
      <trkpt lat="47.45074" lon="8.38329">
        <ele>425</ele>
        <time>2022-10-02T14:36:32Z</time>
      </trkpt>
      <trkpt lat="47.45071" lon="8.38329">
        <ele>424.8</ele>
        <time>2022-10-02T14:36:33Z</time>
      </trkpt>
      <trkpt lat="47.45067" lon="8.3833">
        <ele>424.6</ele>
        <time>2022-10-02T14:36:34Z</time>
      </trkpt>
      <trkpt lat="47.45063" lon="8.38331">
        <ele>424.4</ele>
        <time>2022-10-02T14:36:35Z</time>
      </trkpt>
      <trkpt lat="47.45059" lon="8.38332">
        <ele>424.2</ele>
        <time>2022-10-02T14:36:36Z</time>
      </trkpt>
      <trkpt lat="47.45054" lon="8.38333">
        <ele>423.9</ele>
        <time>2022-10-02T14:36:37Z</time>
      </trkpt>
      <trkpt lat="47.4505" lon="8.38334">
        <ele>423.7</ele>
        <time>2022-10-02T14:36:38Z</time>
      </trkpt>
      <trkpt lat="47.45046" lon="8.38334">
        <ele>423.4</ele>
        <time>2022-10-02T14:36:39Z</time>
      </trkpt>
      <trkpt lat="47.45041" lon="8.38335">
        <ele>423.1</ele>
        <time>2022-10-02T14:36:40Z</time>
      </trkpt>
      <trkpt lat="47.45036" lon="8.38337">
        <ele>422.8</ele>
        <time>2022-10-02T14:36:41Z</time>
      </trkpt>
      <trkpt lat="47.45032" lon="8.38338">
        <ele>422.5</ele>
        <time>2022-10-02T14:36:43Z</time>
      </trkpt>
      <trkpt lat="47.45027" lon="8.38339">
        <ele>422.3</ele>
        <time>2022-10-02T14:36:44Z</time>
      </trkpt>
      <trkpt lat="47.45024" lon="8.38341">
        <ele>422</ele>
        <time>2022-10-02T14:36:45Z</time>
      </trkpt>
      <trkpt lat="47.45019" lon="8.38342">
        <ele>421.7</ele>
        <time>2022-10-02T14:36:46Z</time>
      </trkpt>
      <trkpt lat="47.45015" lon="8.38342">
        <ele>421.5</ele>
        <time>2022-10-02T14:36:47Z</time>
      </trkpt>
      <trkpt lat="47.45011" lon="8.38343">
        <ele>421.3</ele>
        <time>2022-10-02T14:36:48Z</time>
      </trkpt>
      <trkpt lat="47.45006" lon="8.38345">
        <ele>421</ele>
        <time>2022-10-02T14:36:49Z</time>
      </trkpt>
      <trkpt lat="47.45001" lon="8.38345">
        <ele>420.7</ele>
        <time>2022-10-02T14:36:50Z</time>
      </trkpt>
      <trkpt lat="47.44995" lon="8.38346">
        <ele>420.4</ele>
        <time>2022-10-02T14:36:51Z</time>
      </trkpt>
      <trkpt lat="47.4499" lon="8.38348">
        <ele>420.2</ele>
        <time>2022-10-02T14:36:52Z</time>
      </trkpt>
      <trkpt lat="47.44986" lon="8.3835">
        <ele>420</ele>
        <time>2022-10-02T14:36:53Z</time>
      </trkpt>
      <trkpt lat="47.4498" lon="8.38351">
        <ele>419.7</ele>
        <time>2022-10-02T14:36:54Z</time>
      </trkpt>
      <trkpt lat="47.44975" lon="8.38352">
        <ele>419.5</ele>
        <time>2022-10-02T14:36:55Z</time>
      </trkpt>
      <trkpt lat="47.44966" lon="8.38354">
        <ele>419.2</ele>
        <time>2022-10-02T14:36:56Z</time>
      </trkpt>
      <trkpt lat="47.44961" lon="8.38355">
        <ele>419</ele>
        <time>2022-10-02T14:36:57Z</time>
      </trkpt>
      <trkpt lat="47.44956" lon="8.38356">
        <ele>418.8</ele>
        <time>2022-10-02T14:36:58Z</time>
      </trkpt>
      <trkpt lat="47.44951" lon="8.38357">
        <ele>418.7</ele>
        <time>2022-10-02T14:36:59Z</time>
      </trkpt>
      <trkpt lat="47.44946" lon="8.38358">
        <ele>418.5</ele>
        <time>2022-10-02T14:37:00Z</time>
      </trkpt>
      <trkpt lat="47.44942" lon="8.38359">
        <ele>418.4</ele>
        <time>2022-10-02T14:37:01Z</time>
      </trkpt>
      <trkpt lat="47.44938" lon="8.3836">
        <ele>418.4</ele>
        <time>2022-10-02T14:37:02Z</time>
      </trkpt>
      <trkpt lat="47.44933" lon="8.38361">
        <ele>418.3</ele>
        <time>2022-10-02T14:37:03Z</time>
      </trkpt>
      <trkpt lat="47.44929" lon="8.38362">
        <ele>418.3</ele>
        <time>2022-10-02T14:37:04Z</time>
      </trkpt>
      <trkpt lat="47.44924" lon="8.38363">
        <ele>418.3</ele>
        <time>2022-10-02T14:37:05Z</time>
      </trkpt>
      <trkpt lat="47.44921" lon="8.38364">
        <ele>418.2</ele>
        <time>2022-10-02T14:37:06Z</time>
      </trkpt>
      <trkpt lat="47.44917" lon="8.38366">
        <ele>418.2</ele>
        <time>2022-10-02T14:37:07Z</time>
      </trkpt>
      <trkpt lat="47.44914" lon="8.38368">
        <ele>418.2</ele>
        <time>2022-10-02T14:37:08Z</time>
      </trkpt>
      <trkpt lat="47.44913" lon="8.38373">
        <ele>418.2</ele>
        <time>2022-10-02T14:37:09Z</time>
      </trkpt>
      <trkpt lat="47.44912" lon="8.38376">
        <ele>418.2</ele>
        <time>2022-10-02T14:37:10Z</time>
      </trkpt>
      <trkpt lat="47.44912" lon="8.3838">
        <ele>418.2</ele>
        <time>2022-10-02T14:37:11Z</time>
      </trkpt>
      <trkpt lat="47.44912" lon="8.38386">
        <ele>418.2</ele>
        <time>2022-10-02T14:37:12Z</time>
      </trkpt>
      <trkpt lat="47.44913" lon="8.38391">
        <ele>418.2</ele>
        <time>2022-10-02T14:37:13Z</time>
      </trkpt>
      <trkpt lat="47.44914" lon="8.38397">
        <ele>418.2</ele>
        <time>2022-10-02T14:37:14Z</time>
      </trkpt>
      <trkpt lat="47.44916" lon="8.38404">
        <ele>418.2</ele>
        <time>2022-10-02T14:37:15Z</time>
      </trkpt>
      <trkpt lat="47.44917" lon="8.3841">
        <ele>418.2</ele>
        <time>2022-10-02T14:37:16Z</time>
      </trkpt>
      <trkpt lat="47.44918" lon="8.38415">
        <ele>418.2</ele>
        <time>2022-10-02T14:37:17Z</time>
      </trkpt>
      <trkpt lat="47.44918" lon="8.38422">
        <ele>418.2</ele>
        <time>2022-10-02T14:37:18Z</time>
      </trkpt>
      <trkpt lat="47.44919" lon="8.38427">
        <ele>418.2</ele>
        <time>2022-10-02T14:37:19Z</time>
      </trkpt>
      <trkpt lat="47.4492" lon="8.38432">
        <ele>418.2</ele>
        <time>2022-10-02T14:37:20Z</time>
      </trkpt>
      <trkpt lat="47.44921" lon="8.38438">
        <ele>418.3</ele>
        <time>2022-10-02T14:37:21Z</time>
      </trkpt>
      <trkpt lat="47.44921" lon="8.38443">
        <ele>418.3</ele>
        <time>2022-10-02T14:37:22Z</time>
      </trkpt>
      <trkpt lat="47.44922" lon="8.38449">
        <ele>418.3</ele>
        <time>2022-10-02T14:37:23Z</time>
      </trkpt>
      <trkpt lat="47.44922" lon="8.38454">
        <ele>418.3</ele>
        <time>2022-10-02T14:37:24Z</time>
      </trkpt>
      <trkpt lat="47.44923" lon="8.38459">
        <ele>418.3</ele>
        <time>2022-10-02T14:37:25Z</time>
      </trkpt>
      <trkpt lat="47.44925" lon="8.38465">
        <ele>418.3</ele>
        <time>2022-10-02T14:37:26Z</time>
      </trkpt>
      <trkpt lat="47.44925" lon="8.38471">
        <ele>418.3</ele>
        <time>2022-10-02T14:37:27Z</time>
      </trkpt>
      <trkpt lat="47.44926" lon="8.38476">
        <ele>418.4</ele>
        <time>2022-10-02T14:37:28Z</time>
      </trkpt>
      <trkpt lat="47.44926" lon="8.38482">
        <ele>418.4</ele>
        <time>2022-10-02T14:37:29Z</time>
      </trkpt>
      <trkpt lat="47.44926" lon="8.38486">
        <ele>418.4</ele>
        <time>2022-10-02T14:37:30Z</time>
      </trkpt>
      <trkpt lat="47.44927" lon="8.38492">
        <ele>418.4</ele>
        <time>2022-10-02T14:37:31Z</time>
      </trkpt>
      <trkpt lat="47.44928" lon="8.38497">
        <ele>418.4</ele>
        <time>2022-10-02T14:37:32Z</time>
      </trkpt>
      <trkpt lat="47.44929" lon="8.38502">
        <ele>418.4</ele>
        <time>2022-10-02T14:37:33Z</time>
      </trkpt>
      <trkpt lat="47.44929" lon="8.38507">
        <ele>418.4</ele>
        <time>2022-10-02T14:37:34Z</time>
      </trkpt>
      <trkpt lat="47.44929" lon="8.38512">
        <ele>418.5</ele>
        <time>2022-10-02T14:37:35Z</time>
      </trkpt>
      <trkpt lat="47.4493" lon="8.38518">
        <ele>418.5</ele>
        <time>2022-10-02T14:37:36Z</time>
      </trkpt>
      <trkpt lat="47.44931" lon="8.38522">
        <ele>418.5</ele>
        <time>2022-10-02T14:37:37Z</time>
      </trkpt>
      <trkpt lat="47.44931" lon="8.38527">
        <ele>418.5</ele>
        <time>2022-10-02T14:37:38Z</time>
      </trkpt>
      <trkpt lat="47.44932" lon="8.38533">
        <ele>418.6</ele>
        <time>2022-10-02T14:37:39Z</time>
      </trkpt>
      <trkpt lat="47.44934" lon="8.38539">
        <ele>418.6</ele>
        <time>2022-10-02T14:37:40Z</time>
      </trkpt>
      <trkpt lat="47.44935" lon="8.38544">
        <ele>418.6</ele>
        <time>2022-10-02T14:37:41Z</time>
      </trkpt>
      <trkpt lat="47.44935" lon="8.3855">
        <ele>418.7</ele>
        <time>2022-10-02T14:37:42Z</time>
      </trkpt>
      <trkpt lat="47.44936" lon="8.38555">
        <ele>418.7</ele>
        <time>2022-10-02T14:37:43Z</time>
      </trkpt>
      <trkpt lat="47.44937" lon="8.3856">
        <ele>418.7</ele>
        <time>2022-10-02T14:37:44Z</time>
      </trkpt>
      <trkpt lat="47.44937" lon="8.38565">
        <ele>418.7</ele>
        <time>2022-10-02T14:37:45Z</time>
      </trkpt>
      <trkpt lat="47.44938" lon="8.3857">
        <ele>418.8</ele>
        <time>2022-10-02T14:37:46Z</time>
      </trkpt>
      <trkpt lat="47.44939" lon="8.38574">
        <ele>418.8</ele>
        <time>2022-10-02T14:37:47Z</time>
      </trkpt>
      <trkpt lat="47.4494" lon="8.3858">
        <ele>418.8</ele>
        <time>2022-10-02T14:37:48Z</time>
      </trkpt>
      <trkpt lat="47.44941" lon="8.38586">
        <ele>418.8</ele>
        <time>2022-10-02T14:37:49Z</time>
      </trkpt>
      <trkpt lat="47.44941" lon="8.38589">
        <ele>418.8</ele>
        <time>2022-10-02T14:37:50Z</time>
      </trkpt>
      <trkpt lat="47.44941" lon="8.38593">
        <ele>418.9</ele>
        <time>2022-10-02T14:37:51Z</time>
      </trkpt>
      <trkpt lat="47.44943" lon="8.38598">
        <ele>418.9</ele>
        <time>2022-10-02T14:37:52Z</time>
      </trkpt>
      <trkpt lat="47.44944" lon="8.38602">
        <ele>418.9</ele>
        <time>2022-10-02T14:37:53Z</time>
      </trkpt>
      <trkpt lat="47.44945" lon="8.38604">
        <ele>418.9</ele>
        <time>2022-10-02T14:37:54Z</time>
      </trkpt>
      <trkpt lat="47.44946" lon="8.38609">
        <ele>418.9</ele>
        <time>2022-10-02T14:37:55Z</time>
      </trkpt>
      <trkpt lat="47.44948" lon="8.38614">
        <ele>419</ele>
        <time>2022-10-02T14:37:56Z</time>
      </trkpt>
      <trkpt lat="47.4495" lon="8.3862">
        <ele>419</ele>
        <time>2022-10-02T14:37:57Z</time>
      </trkpt>
      <trkpt lat="47.44952" lon="8.38626">
        <ele>419</ele>
        <time>2022-10-02T14:37:58Z</time>
      </trkpt>
      <trkpt lat="47.44954" lon="8.38629">
        <ele>419.1</ele>
        <time>2022-10-02T14:37:59Z</time>
      </trkpt>
      <trkpt lat="47.44956" lon="8.38635">
        <ele>419.1</ele>
        <time>2022-10-02T14:38:00Z</time>
      </trkpt>
      <trkpt lat="47.44957" lon="8.38639">
        <ele>419.2</ele>
        <time>2022-10-02T14:38:01Z</time>
      </trkpt>
      <trkpt lat="47.44959" lon="8.38643">
        <ele>419.2</ele>
        <time>2022-10-02T14:38:02Z</time>
      </trkpt>
      <trkpt lat="47.4496" lon="8.38648">
        <ele>419.3</ele>
        <time>2022-10-02T14:38:03Z</time>
      </trkpt>
      <trkpt lat="47.44961" lon="8.38652">
        <ele>419.3</ele>
        <time>2022-10-02T14:38:04Z</time>
      </trkpt>
      <trkpt lat="47.44963" lon="8.38657">
        <ele>419.4</ele>
        <time>2022-10-02T14:38:05Z</time>
      </trkpt>
      <trkpt lat="47.44965" lon="8.3866">
        <ele>419.4</ele>
        <time>2022-10-02T14:38:06Z</time>
      </trkpt>
      <trkpt lat="47.44966" lon="8.38665">
        <ele>419.5</ele>
        <time>2022-10-02T14:38:07Z</time>
      </trkpt>
      <trkpt lat="47.44967" lon="8.38667">
        <ele>419.5</ele>
        <time>2022-10-02T14:38:08Z</time>
      </trkpt>
      <trkpt lat="47.44968" lon="8.38672">
        <ele>419.5</ele>
        <time>2022-10-02T14:38:09Z</time>
      </trkpt>
      <trkpt lat="47.44969" lon="8.38674">
        <ele>419.5</ele>
        <time>2022-10-02T14:38:10Z</time>
      </trkpt>
      <trkpt lat="47.44972" lon="8.38677">
        <ele>419.5</ele>
        <time>2022-10-02T14:38:11Z</time>
      </trkpt>
      <trkpt lat="47.44973" lon="8.38683">
        <ele>419.5</ele>
        <time>2022-10-02T14:38:12Z</time>
      </trkpt>
      <trkpt lat="47.44975" lon="8.38688">
        <ele>419.6</ele>
        <time>2022-10-02T14:38:13Z</time>
      </trkpt>
      <trkpt lat="47.44976" lon="8.3869">
        <ele>419.6</ele>
        <time>2022-10-02T14:38:14Z</time>
      </trkpt>
      <trkpt lat="47.44977" lon="8.38697">
        <ele>419.6</ele>
        <time>2022-10-02T14:38:15Z</time>
      </trkpt>
      <trkpt lat="47.44979" lon="8.38699">
        <ele>419.6</ele>
        <time>2022-10-02T14:38:16Z</time>
      </trkpt>
      <trkpt lat="47.4498" lon="8.38702">
        <ele>419.6</ele>
        <time>2022-10-02T14:38:17Z</time>
      </trkpt>
      <trkpt lat="47.44983" lon="8.38707">
        <ele>419.6</ele>
        <time>2022-10-02T14:38:18Z</time>
      </trkpt>
      <trkpt lat="47.44985" lon="8.38712">
        <ele>419.6</ele>
        <time>2022-10-02T14:38:19Z</time>
      </trkpt>
      <trkpt lat="47.44986" lon="8.38717">
        <ele>419.6</ele>
        <time>2022-10-02T14:38:20Z</time>
      </trkpt>
      <trkpt lat="47.44988" lon="8.38722">
        <ele>419.6</ele>
        <time>2022-10-02T14:38:21Z</time>
      </trkpt>
      <trkpt lat="47.4499" lon="8.38728">
        <ele>419.6</ele>
        <time>2022-10-02T14:38:22Z</time>
      </trkpt>
      <trkpt lat="47.44991" lon="8.38732">
        <ele>419.6</ele>
        <time>2022-10-02T14:38:23Z</time>
      </trkpt>
      <trkpt lat="47.44993" lon="8.38737">
        <ele>419.6</ele>
        <time>2022-10-02T14:38:24Z</time>
      </trkpt>
      <trkpt lat="47.44995" lon="8.38743">
        <ele>419.5</ele>
        <time>2022-10-02T14:38:25Z</time>
      </trkpt>
      <trkpt lat="47.44997" lon="8.38747">
        <ele>419.5</ele>
        <time>2022-10-02T14:38:26Z</time>
      </trkpt>
      <trkpt lat="47.44998" lon="8.38752">
        <ele>419.5</ele>
        <time>2022-10-02T14:38:27Z</time>
      </trkpt>
      <trkpt lat="47.44999" lon="8.38758">
        <ele>419.5</ele>
        <time>2022-10-02T14:38:28Z</time>
      </trkpt>
      <trkpt lat="47.45" lon="8.38762">
        <ele>419.5</ele>
        <time>2022-10-02T14:38:29Z</time>
      </trkpt>
      <trkpt lat="47.45003" lon="8.38767">
        <ele>419.5</ele>
        <time>2022-10-02T14:38:30Z</time>
      </trkpt>
      <trkpt lat="47.45006" lon="8.38772">
        <ele>419.5</ele>
        <time>2022-10-02T14:38:31Z</time>
      </trkpt>
      <trkpt lat="47.45007" lon="8.38775">
        <ele>419.5</ele>
        <time>2022-10-02T14:38:32Z</time>
      </trkpt>
      <trkpt lat="47.45009" lon="8.3878">
        <ele>419.5</ele>
        <time>2022-10-02T14:38:33Z</time>
      </trkpt>
      <trkpt lat="47.45011" lon="8.38785">
        <ele>419.5</ele>
        <time>2022-10-02T14:38:34Z</time>
      </trkpt>
      <trkpt lat="47.45013" lon="8.38788">
        <ele>419.5</ele>
        <time>2022-10-02T14:38:35Z</time>
      </trkpt>
      <trkpt lat="47.45015" lon="8.38793">
        <ele>419.5</ele>
        <time>2022-10-02T14:38:36Z</time>
      </trkpt>
      <trkpt lat="47.45016" lon="8.38798">
        <ele>419.5</ele>
        <time>2022-10-02T14:38:37Z</time>
      </trkpt>
      <trkpt lat="47.4502" lon="8.38803">
        <ele>419.5</ele>
        <time>2022-10-02T14:38:38Z</time>
      </trkpt>
      <trkpt lat="47.45021" lon="8.38806">
        <ele>419.5</ele>
        <time>2022-10-02T14:38:39Z</time>
      </trkpt>
      <trkpt lat="47.45023" lon="8.3881">
        <ele>419.5</ele>
        <time>2022-10-02T14:38:40Z</time>
      </trkpt>
      <trkpt lat="47.45023" lon="8.38812">
        <ele>419.5</ele>
        <time>2022-10-02T14:38:41Z</time>
      </trkpt>
      <trkpt lat="47.45024" lon="8.38816">
        <ele>419.5</ele>
        <time>2022-10-02T14:38:42Z</time>
      </trkpt>
      <trkpt lat="47.45026" lon="8.38821">
        <ele>419.5</ele>
        <time>2022-10-02T14:38:43Z</time>
      </trkpt>
      <trkpt lat="47.45028" lon="8.38826">
        <ele>419.6</ele>
        <time>2022-10-02T14:38:44Z</time>
      </trkpt>
      <trkpt lat="47.45029" lon="8.38828">
        <ele>419.6</ele>
        <time>2022-10-02T14:38:45Z</time>
      </trkpt>
      <trkpt lat="47.45031" lon="8.38833">
        <ele>419.6</ele>
        <time>2022-10-02T14:38:46Z</time>
      </trkpt>
      <trkpt lat="47.45031" lon="8.38836">
        <ele>419.6</ele>
        <time>2022-10-02T14:38:47Z</time>
      </trkpt>
      <trkpt lat="47.45035" lon="8.3884">
        <ele>419.6</ele>
        <time>2022-10-02T14:38:49Z</time>
      </trkpt>
      <trkpt lat="47.45037" lon="8.38845">
        <ele>419.6</ele>
        <time>2022-10-02T14:38:50Z</time>
      </trkpt>
      <trkpt lat="47.4504" lon="8.38851">
        <ele>419.7</ele>
        <time>2022-10-02T14:38:51Z</time>
      </trkpt>
      <trkpt lat="47.45042" lon="8.38857">
        <ele>419.7</ele>
        <time>2022-10-02T14:38:52Z</time>
      </trkpt>
      <trkpt lat="47.45043" lon="8.3886">
        <ele>419.7</ele>
        <time>2022-10-02T14:38:53Z</time>
      </trkpt>
      <trkpt lat="47.45046" lon="8.38865">
        <ele>419.7</ele>
        <time>2022-10-02T14:38:54Z</time>
      </trkpt>
      <trkpt lat="47.45046" lon="8.38867">
        <ele>419.8</ele>
        <time>2022-10-02T14:38:55Z</time>
      </trkpt>
      <trkpt lat="47.45048" lon="8.38872">
        <ele>419.8</ele>
        <time>2022-10-02T14:38:56Z</time>
      </trkpt>
      <trkpt lat="47.45051" lon="8.38881">
        <ele>419.8</ele>
        <time>2022-10-02T14:38:57Z</time>
      </trkpt>
      <trkpt lat="47.45053" lon="8.38886">
        <ele>419.9</ele>
        <time>2022-10-02T14:38:58Z</time>
      </trkpt>
      <trkpt lat="47.45055" lon="8.3889">
        <ele>419.9</ele>
        <time>2022-10-02T14:38:59Z</time>
      </trkpt>
      <trkpt lat="47.45057" lon="8.38895">
        <ele>420</ele>
        <time>2022-10-02T14:39:00Z</time>
      </trkpt>
      <trkpt lat="47.45058" lon="8.38899">
        <ele>420</ele>
        <time>2022-10-02T14:39:01Z</time>
      </trkpt>
      <trkpt lat="47.4506" lon="8.38904">
        <ele>420.1</ele>
        <time>2022-10-02T14:39:03Z</time>
      </trkpt>
      <trkpt lat="47.45062" lon="8.38907">
        <ele>420.1</ele>
        <time>2022-10-02T14:39:04Z</time>
      </trkpt>
      <trkpt lat="47.45065" lon="8.38913">
        <ele>420.2</ele>
        <time>2022-10-02T14:39:05Z</time>
      </trkpt>
      <trkpt lat="47.45069" lon="8.38923">
        <ele>420.3</ele>
        <time>2022-10-02T14:39:06Z</time>
      </trkpt>
      <trkpt lat="47.45071" lon="8.38928">
        <ele>420.4</ele>
        <time>2022-10-02T14:39:07Z</time>
      </trkpt>
      <trkpt lat="47.45074" lon="8.38933">
        <ele>420.5</ele>
        <time>2022-10-02T14:39:08Z</time>
      </trkpt>
      <trkpt lat="47.45077" lon="8.38939">
        <ele>420.6</ele>
        <time>2022-10-02T14:39:09Z</time>
      </trkpt>
      <trkpt lat="47.4508" lon="8.38943">
        <ele>420.7</ele>
        <time>2022-10-02T14:39:10Z</time>
      </trkpt>
      <trkpt lat="47.45082" lon="8.38947">
        <ele>420.8</ele>
        <time>2022-10-02T14:39:11Z</time>
      </trkpt>
      <trkpt lat="47.45083" lon="8.3895">
        <ele>420.9</ele>
        <time>2022-10-02T14:39:12Z</time>
      </trkpt>
      <trkpt lat="47.45084" lon="8.38954">
        <ele>420.9</ele>
        <time>2022-10-02T14:39:13Z</time>
      </trkpt>
      <trkpt lat="47.45084" lon="8.3896">
        <ele>421</ele>
        <time>2022-10-02T14:39:14Z</time>
      </trkpt>
      <trkpt lat="47.45084" lon="8.38962">
        <ele>421</ele>
        <time>2022-10-02T14:39:15Z</time>
      </trkpt>
      <trkpt lat="47.4508" lon="8.38964">
        <ele>421</ele>
        <time>2022-10-02T14:39:16Z</time>
      </trkpt>
      <trkpt lat="47.45079" lon="8.38965">
        <ele>421</ele>
        <time>2022-10-02T14:39:17Z</time>
      </trkpt>
      <trkpt lat="47.45076" lon="8.38967">
        <ele>421</ele>
        <time>2022-10-02T14:39:18Z</time>
      </trkpt>
      <trkpt lat="47.45074" lon="8.38968">
        <ele>421.1</ele>
        <time>2022-10-02T14:39:19Z</time>
      </trkpt>
      <trkpt lat="47.45072" lon="8.38971">
        <ele>421.1</ele>
        <time>2022-10-02T14:39:20Z</time>
      </trkpt>
      <trkpt lat="47.45069" lon="8.38974">
        <ele>421.1</ele>
        <time>2022-10-02T14:39:21Z</time>
      </trkpt>
      <trkpt lat="47.45069" lon="8.38978">
        <ele>421.1</ele>
        <time>2022-10-02T14:39:22Z</time>
      </trkpt>
      <trkpt lat="47.45068" lon="8.3898">
        <ele>421.2</ele>
        <time>2022-10-02T14:39:23Z</time>
      </trkpt>
      <trkpt lat="47.45068" lon="8.38981">
        <ele>421.2</ele>
        <time>2022-10-02T14:39:24Z</time>
      </trkpt>
      <trkpt lat="47.45068" lon="8.38982">
        <ele>421.2</ele>
        <time>2022-10-02T14:39:25Z</time>
      </trkpt>
      <trkpt lat="47.45068" lon="8.38983">
        <ele>421.3</ele>
        <time>2022-10-02T14:39:26Z</time>
      </trkpt>
      <trkpt lat="47.45069" lon="8.38983">
        <ele>421.3</ele>
        <time>2022-10-02T14:39:27Z</time>
      </trkpt>
      <trkpt lat="47.45069" lon="8.38984">
        <ele>421.3</ele>
        <time>2022-10-02T14:39:28Z</time>
      </trkpt>
      <trkpt lat="47.45068" lon="8.38987">
        <ele>421.3</ele>
        <time>2022-10-02T14:39:29Z</time>
      </trkpt>
      <trkpt lat="47.45069" lon="8.38988">
        <ele>421.3</ele>
        <time>2022-10-02T14:39:30Z</time>
      </trkpt>
      <trkpt lat="47.45069" lon="8.38988">
        <ele>421.3</ele>
        <time>2022-10-02T14:39:31Z</time>
      </trkpt>
      <trkpt lat="47.45069" lon="8.38988">
        <ele>421.3</ele>
        <time>2022-10-02T14:39:32Z</time>
      </trkpt>
      <trkpt lat="47.45069" lon="8.38988">
        <ele>421.4</ele>
        <time>2022-10-02T14:39:33Z</time>
      </trkpt>
      <trkpt lat="47.45069" lon="8.38988">
        <ele>421.4</ele>
        <time>2022-10-02T14:39:34Z</time>
      </trkpt>
      <trkpt lat="47.45069" lon="8.38989">
        <ele>421.4</ele>
        <time>2022-10-02T14:39:35Z</time>
      </trkpt>
      <trkpt lat="47.45069" lon="8.38989">
        <ele>421.4</ele>
        <time>2022-10-02T14:39:36Z</time>
      </trkpt>
      <trkpt lat="47.45069" lon="8.38989">
        <ele>421.4</ele>
        <time>2022-10-02T14:39:37Z</time>
      </trkpt>
      <trkpt lat="47.4507" lon="8.38991">
        <ele>421.4</ele>
        <time>2022-10-02T14:39:38Z</time>
      </trkpt>
      <trkpt lat="47.4507" lon="8.38993">
        <ele>421.4</ele>
        <time>2022-10-02T14:39:39Z</time>
      </trkpt>
      <trkpt lat="47.45071" lon="8.38997">
        <ele>421.4</ele>
        <time>2022-10-02T14:39:40Z</time>
      </trkpt>
      <trkpt lat="47.45071" lon="8.38999">
        <ele>421.4</ele>
        <time>2022-10-02T14:39:41Z</time>
      </trkpt>
      <trkpt lat="47.4507" lon="8.39005">
        <ele>421.4</ele>
        <time>2022-10-02T14:39:42Z</time>
      </trkpt>
      <trkpt lat="47.4507" lon="8.39007">
        <ele>421.4</ele>
        <time>2022-10-02T14:39:43Z</time>
      </trkpt>
      <trkpt lat="47.45069" lon="8.39012">
        <ele>421.4</ele>
        <time>2022-10-02T14:39:44Z</time>
      </trkpt>
      <trkpt lat="47.4507" lon="8.39017">
        <ele>421.4</ele>
        <time>2022-10-02T14:39:45Z</time>
      </trkpt>
      <trkpt lat="47.45071" lon="8.39023">
        <ele>421.4</ele>
        <time>2022-10-02T14:39:46Z</time>
      </trkpt>
      <trkpt lat="47.45072" lon="8.3903">
        <ele>421.4</ele>
        <time>2022-10-02T14:39:47Z</time>
      </trkpt>
      <trkpt lat="47.45072" lon="8.39036">
        <ele>421.4</ele>
        <time>2022-10-02T14:39:48Z</time>
      </trkpt>
      <trkpt lat="47.45072" lon="8.39042">
        <ele>421.4</ele>
        <time>2022-10-02T14:39:49Z</time>
      </trkpt>
      <trkpt lat="47.45073" lon="8.39049">
        <ele>421.5</ele>
        <time>2022-10-02T14:39:50Z</time>
      </trkpt>
      <trkpt lat="47.45074" lon="8.39055">
        <ele>421.5</ele>
        <time>2022-10-02T14:39:51Z</time>
      </trkpt>
      <trkpt lat="47.45075" lon="8.39061">
        <ele>421.5</ele>
        <time>2022-10-02T14:39:52Z</time>
      </trkpt>
      <trkpt lat="47.45076" lon="8.39066">
        <ele>421.5</ele>
        <time>2022-10-02T14:39:53Z</time>
      </trkpt>
      <trkpt lat="47.45078" lon="8.3907">
        <ele>421.6</ele>
        <time>2022-10-02T14:39:54Z</time>
      </trkpt>
      <trkpt lat="47.4508" lon="8.39073">
        <ele>421.4</ele>
        <time>2022-10-02T14:39:55Z</time>
      </trkpt>
      <trkpt lat="47.45083" lon="8.39075">
        <ele>421.3</ele>
        <time>2022-10-02T14:39:56Z</time>
      </trkpt>
      <trkpt lat="47.45085" lon="8.39074">
        <ele>421.3</ele>
        <time>2022-10-02T14:39:57Z</time>
      </trkpt>
      <trkpt lat="47.45088" lon="8.39074">
        <ele>421.2</ele>
        <time>2022-10-02T14:39:58Z</time>
      </trkpt>
      <trkpt lat="47.45092" lon="8.39073">
        <ele>421</ele>
        <time>2022-10-02T14:39:59Z</time>
      </trkpt>
      <trkpt lat="47.45096" lon="8.39073">
        <ele>420.9</ele>
        <time>2022-10-02T14:40:00Z</time>
      </trkpt>
      <trkpt lat="47.45102" lon="8.39075">
        <ele>420.7</ele>
        <time>2022-10-02T14:40:01Z</time>
      </trkpt>
      <trkpt lat="47.45105" lon="8.39077">
        <ele>420.6</ele>
        <time>2022-10-02T14:40:02Z</time>
      </trkpt>
      <trkpt lat="47.45108" lon="8.3908">
        <ele>420.5</ele>
        <time>2022-10-02T14:40:03Z</time>
      </trkpt>
      <trkpt lat="47.45111" lon="8.39086">
        <ele>420.5</ele>
        <time>2022-10-02T14:40:04Z</time>
      </trkpt>
      <trkpt lat="47.45114" lon="8.39092">
        <ele>420.4</ele>
        <time>2022-10-02T14:40:05Z</time>
      </trkpt>
      <trkpt lat="47.45115" lon="8.39097">
        <ele>420.4</ele>
        <time>2022-10-02T14:40:06Z</time>
      </trkpt>
      <trkpt lat="47.45118" lon="8.39103">
        <ele>420.3</ele>
        <time>2022-10-02T14:40:07Z</time>
      </trkpt>
      <trkpt lat="47.45119" lon="8.39107">
        <ele>420.3</ele>
        <time>2022-10-02T14:40:08Z</time>
      </trkpt>
      <trkpt lat="47.45122" lon="8.39113">
        <ele>420.3</ele>
        <time>2022-10-02T14:40:09Z</time>
      </trkpt>
      <trkpt lat="47.45124" lon="8.39119">
        <ele>420.3</ele>
        <time>2022-10-02T14:40:10Z</time>
      </trkpt>
      <trkpt lat="47.45126" lon="8.39126">
        <ele>420.2</ele>
        <time>2022-10-02T14:40:11Z</time>
      </trkpt>
      <trkpt lat="47.45128" lon="8.39131">
        <ele>420.2</ele>
        <time>2022-10-02T14:40:12Z</time>
      </trkpt>
      <trkpt lat="47.4513" lon="8.39137">
        <ele>420.1</ele>
        <time>2022-10-02T14:40:13Z</time>
      </trkpt>
      <trkpt lat="47.45131" lon="8.39141">
        <ele>420.1</ele>
        <time>2022-10-02T14:40:14Z</time>
      </trkpt>
      <trkpt lat="47.45133" lon="8.39148">
        <ele>420.1</ele>
        <time>2022-10-02T14:40:15Z</time>
      </trkpt>
      <trkpt lat="47.45135" lon="8.39153">
        <ele>420.1</ele>
        <time>2022-10-02T14:40:16Z</time>
      </trkpt>
      <trkpt lat="47.45137" lon="8.39158">
        <ele>420.1</ele>
        <time>2022-10-02T14:40:17Z</time>
      </trkpt>
      <trkpt lat="47.45137" lon="8.39164">
        <ele>420.1</ele>
        <time>2022-10-02T14:40:18Z</time>
      </trkpt>
      <trkpt lat="47.45139" lon="8.39169">
        <ele>420</ele>
        <time>2022-10-02T14:40:19Z</time>
      </trkpt>
      <trkpt lat="47.45139" lon="8.39173">
        <ele>420</ele>
        <time>2022-10-02T14:40:20Z</time>
      </trkpt>
      <trkpt lat="47.45141" lon="8.39179">
        <ele>420</ele>
        <time>2022-10-02T14:40:21Z</time>
      </trkpt>
      <trkpt lat="47.45142" lon="8.39184">
        <ele>420</ele>
        <time>2022-10-02T14:40:22Z</time>
      </trkpt>
      <trkpt lat="47.45142" lon="8.3919">
        <ele>420</ele>
        <time>2022-10-02T14:40:23Z</time>
      </trkpt>
      <trkpt lat="47.45143" lon="8.39196">
        <ele>420</ele>
        <time>2022-10-02T14:40:24Z</time>
      </trkpt>
      <trkpt lat="47.45143" lon="8.39198">
        <ele>420</ele>
        <time>2022-10-02T14:40:25Z</time>
      </trkpt>
      <trkpt lat="47.45144" lon="8.39203">
        <ele>420</ele>
        <time>2022-10-02T14:40:26Z</time>
      </trkpt>
      <trkpt lat="47.45144" lon="8.39208">
        <ele>420</ele>
        <time>2022-10-02T14:40:27Z</time>
      </trkpt>
      <trkpt lat="47.45144" lon="8.39212">
        <ele>420</ele>
        <time>2022-10-02T14:40:28Z</time>
      </trkpt>
      <trkpt lat="47.45145" lon="8.39217">
        <ele>420</ele>
        <time>2022-10-02T14:40:29Z</time>
      </trkpt>
      <trkpt lat="47.45145" lon="8.39221">
        <ele>420</ele>
        <time>2022-10-02T14:40:30Z</time>
      </trkpt>
      <trkpt lat="47.45145" lon="8.39225">
        <ele>420</ele>
        <time>2022-10-02T14:40:31Z</time>
      </trkpt>
      <trkpt lat="47.45146" lon="8.3923">
        <ele>420</ele>
        <time>2022-10-02T14:40:32Z</time>
      </trkpt>
      <trkpt lat="47.45145" lon="8.39234">
        <ele>420</ele>
        <time>2022-10-02T14:40:33Z</time>
      </trkpt>
      <trkpt lat="47.45146" lon="8.39238">
        <ele>419.9</ele>
        <time>2022-10-02T14:40:34Z</time>
      </trkpt>
      <trkpt lat="47.45146" lon="8.39245">
        <ele>419.9</ele>
        <time>2022-10-02T14:40:35Z</time>
      </trkpt>
      <trkpt lat="47.45146" lon="8.39247">
        <ele>419.9</ele>
        <time>2022-10-02T14:40:36Z</time>
      </trkpt>
      <trkpt lat="47.45146" lon="8.39251">
        <ele>419.9</ele>
        <time>2022-10-02T14:40:37Z</time>
      </trkpt>
      <trkpt lat="47.45146" lon="8.39257">
        <ele>419.9</ele>
        <time>2022-10-02T14:40:38Z</time>
      </trkpt>
      <trkpt lat="47.45146" lon="8.3926">
        <ele>419.8</ele>
        <time>2022-10-02T14:40:39Z</time>
      </trkpt>
      <trkpt lat="47.45147" lon="8.39265">
        <ele>419.8</ele>
        <time>2022-10-02T14:40:40Z</time>
      </trkpt>
      <trkpt lat="47.45147" lon="8.39269">
        <ele>419.8</ele>
        <time>2022-10-02T14:40:41Z</time>
      </trkpt>
      <trkpt lat="47.45148" lon="8.39275">
        <ele>419.7</ele>
        <time>2022-10-02T14:40:42Z</time>
      </trkpt>
      <trkpt lat="47.45148" lon="8.3928">
        <ele>419.7</ele>
        <time>2022-10-02T14:40:43Z</time>
      </trkpt>
      <trkpt lat="47.45148" lon="8.39286">
        <ele>419.6</ele>
        <time>2022-10-02T14:40:44Z</time>
      </trkpt>
      <trkpt lat="47.45148" lon="8.39292">
        <ele>419.6</ele>
        <time>2022-10-02T14:40:45Z</time>
      </trkpt>
      <trkpt lat="47.45148" lon="8.39298">
        <ele>419.5</ele>
        <time>2022-10-02T14:40:46Z</time>
      </trkpt>
      <trkpt lat="47.45149" lon="8.39303">
        <ele>419.5</ele>
        <time>2022-10-02T14:40:47Z</time>
      </trkpt>
      <trkpt lat="47.45149" lon="8.39309">
        <ele>419.5</ele>
        <time>2022-10-02T14:40:48Z</time>
      </trkpt>
      <trkpt lat="47.4515" lon="8.39315">
        <ele>419.4</ele>
        <time>2022-10-02T14:40:49Z</time>
      </trkpt>
      <trkpt lat="47.45149" lon="8.3932">
        <ele>419.4</ele>
        <time>2022-10-02T14:40:50Z</time>
      </trkpt>
      <trkpt lat="47.4515" lon="8.39325">
        <ele>419.4</ele>
        <time>2022-10-02T14:40:51Z</time>
      </trkpt>
      <trkpt lat="47.45151" lon="8.39331">
        <ele>419.4</ele>
        <time>2022-10-02T14:40:52Z</time>
      </trkpt>
      <trkpt lat="47.45151" lon="8.39337">
        <ele>419.4</ele>
        <time>2022-10-02T14:40:53Z</time>
      </trkpt>
      <trkpt lat="47.45151" lon="8.39343">
        <ele>419.4</ele>
        <time>2022-10-02T14:40:54Z</time>
      </trkpt>
      <trkpt lat="47.45151" lon="8.39348">
        <ele>419.4</ele>
        <time>2022-10-02T14:40:55Z</time>
      </trkpt>
      <trkpt lat="47.45152" lon="8.39353">
        <ele>419.4</ele>
        <time>2022-10-02T14:40:57Z</time>
      </trkpt>
      <trkpt lat="47.45152" lon="8.39358">
        <ele>419.3</ele>
        <time>2022-10-02T14:40:58Z</time>
      </trkpt>
      <trkpt lat="47.45152" lon="8.39364">
        <ele>419.3</ele>
        <time>2022-10-02T14:40:59Z</time>
      </trkpt>
      <trkpt lat="47.45152" lon="8.39369">
        <ele>419.3</ele>
        <time>2022-10-02T14:41:00Z</time>
      </trkpt>
      <trkpt lat="47.45152" lon="8.39375">
        <ele>419.2</ele>
        <time>2022-10-02T14:41:01Z</time>
      </trkpt>
      <trkpt lat="47.45152" lon="8.39385">
        <ele>419.2</ele>
        <time>2022-10-02T14:41:02Z</time>
      </trkpt>
      <trkpt lat="47.45153" lon="8.39391">
        <ele>419.2</ele>
        <time>2022-10-02T14:41:03Z</time>
      </trkpt>
      <trkpt lat="47.45154" lon="8.39397">
        <ele>419.2</ele>
        <time>2022-10-02T14:41:04Z</time>
      </trkpt>
      <trkpt lat="47.45154" lon="8.39403">
        <ele>419.2</ele>
        <time>2022-10-02T14:41:05Z</time>
      </trkpt>
      <trkpt lat="47.45154" lon="8.39409">
        <ele>419.1</ele>
        <time>2022-10-02T14:41:06Z</time>
      </trkpt>
      <trkpt lat="47.45154" lon="8.39415">
        <ele>419.1</ele>
        <time>2022-10-02T14:41:07Z</time>
      </trkpt>
      <trkpt lat="47.45154" lon="8.3942">
        <ele>419.1</ele>
        <time>2022-10-02T14:41:08Z</time>
      </trkpt>
      <trkpt lat="47.45155" lon="8.39425">
        <ele>419.1</ele>
        <time>2022-10-02T14:41:09Z</time>
      </trkpt>
      <trkpt lat="47.45155" lon="8.39431">
        <ele>419.1</ele>
        <time>2022-10-02T14:41:10Z</time>
      </trkpt>
      <trkpt lat="47.45156" lon="8.39437">
        <ele>419.1</ele>
        <time>2022-10-02T14:41:11Z</time>
      </trkpt>
      <trkpt lat="47.45156" lon="8.39443">
        <ele>419.1</ele>
        <time>2022-10-02T14:41:13Z</time>
      </trkpt>
      <trkpt lat="47.45156" lon="8.39448">
        <ele>419.1</ele>
        <time>2022-10-02T14:41:14Z</time>
      </trkpt>
      <trkpt lat="47.45156" lon="8.39453">
        <ele>419.1</ele>
        <time>2022-10-02T14:41:15Z</time>
      </trkpt>
      <trkpt lat="47.45157" lon="8.39459">
        <ele>419.1</ele>
        <time>2022-10-02T14:41:16Z</time>
      </trkpt>
      <trkpt lat="47.45157" lon="8.39466">
        <ele>419.1</ele>
        <time>2022-10-02T14:41:17Z</time>
      </trkpt>
      <trkpt lat="47.45157" lon="8.39472">
        <ele>419.1</ele>
        <time>2022-10-02T14:41:18Z</time>
      </trkpt>
      <trkpt lat="47.45158" lon="8.39478">
        <ele>419.1</ele>
        <time>2022-10-02T14:41:19Z</time>
      </trkpt>
      <trkpt lat="47.45158" lon="8.39484">
        <ele>419.1</ele>
        <time>2022-10-02T14:41:20Z</time>
      </trkpt>
      <trkpt lat="47.45159" lon="8.39491">
        <ele>419.1</ele>
        <time>2022-10-02T14:41:21Z</time>
      </trkpt>
      <trkpt lat="47.45159" lon="8.39503">
        <ele>419.1</ele>
        <time>2022-10-02T14:41:22Z</time>
      </trkpt>
      <trkpt lat="47.45159" lon="8.39508">
        <ele>419.1</ele>
        <time>2022-10-02T14:41:23Z</time>
      </trkpt>
      <trkpt lat="47.45159" lon="8.39514">
        <ele>419.1</ele>
        <time>2022-10-02T14:41:24Z</time>
      </trkpt>
      <trkpt lat="47.45159" lon="8.39519">
        <ele>419.1</ele>
        <time>2022-10-02T14:41:25Z</time>
      </trkpt>
      <trkpt lat="47.4516" lon="8.39525">
        <ele>419.1</ele>
        <time>2022-10-02T14:41:26Z</time>
      </trkpt>
      <trkpt lat="47.4516" lon="8.39532">
        <ele>419.1</ele>
        <time>2022-10-02T14:41:27Z</time>
      </trkpt>
      <trkpt lat="47.4516" lon="8.39538">
        <ele>419.1</ele>
        <time>2022-10-02T14:41:28Z</time>
      </trkpt>
      <trkpt lat="47.4516" lon="8.39542">
        <ele>419.1</ele>
        <time>2022-10-02T14:41:29Z</time>
      </trkpt>
      <trkpt lat="47.4516" lon="8.39548">
        <ele>419.1</ele>
        <time>2022-10-02T14:41:30Z</time>
      </trkpt>
      <trkpt lat="47.4516" lon="8.39553">
        <ele>419.1</ele>
        <time>2022-10-02T14:41:31Z</time>
      </trkpt>
      <trkpt lat="47.4516" lon="8.39559">
        <ele>419.1</ele>
        <time>2022-10-02T14:41:32Z</time>
      </trkpt>
      <trkpt lat="47.45161" lon="8.39563">
        <ele>419.1</ele>
        <time>2022-10-02T14:41:33Z</time>
      </trkpt>
      <trkpt lat="47.45161" lon="8.39569">
        <ele>419.1</ele>
        <time>2022-10-02T14:41:34Z</time>
      </trkpt>
      <trkpt lat="47.45161" lon="8.39574">
        <ele>419.1</ele>
        <time>2022-10-02T14:41:35Z</time>
      </trkpt>
      <trkpt lat="47.4516" lon="8.39578">
        <ele>419.1</ele>
        <time>2022-10-02T14:41:36Z</time>
      </trkpt>
      <trkpt lat="47.45161" lon="8.39583">
        <ele>419.1</ele>
        <time>2022-10-02T14:41:37Z</time>
      </trkpt>
      <trkpt lat="47.45161" lon="8.39588">
        <ele>419.1</ele>
        <time>2022-10-02T14:41:38Z</time>
      </trkpt>
      <trkpt lat="47.45161" lon="8.39593">
        <ele>419.1</ele>
        <time>2022-10-02T14:41:39Z</time>
      </trkpt>
      <trkpt lat="47.45161" lon="8.39598">
        <ele>419.1</ele>
        <time>2022-10-02T14:41:40Z</time>
      </trkpt>
      <trkpt lat="47.45161" lon="8.39605">
        <ele>419.1</ele>
        <time>2022-10-02T14:41:41Z</time>
      </trkpt>
      <trkpt lat="47.45162" lon="8.39609">
        <ele>419.1</ele>
        <time>2022-10-02T14:41:42Z</time>
      </trkpt>
      <trkpt lat="47.45162" lon="8.39614">
        <ele>419.1</ele>
        <time>2022-10-02T14:41:43Z</time>
      </trkpt>
      <trkpt lat="47.45163" lon="8.39618">
        <ele>419.1</ele>
        <time>2022-10-02T14:41:44Z</time>
      </trkpt>
      <trkpt lat="47.45162" lon="8.39622">
        <ele>419.1</ele>
        <time>2022-10-02T14:41:45Z</time>
      </trkpt>
      <trkpt lat="47.45162" lon="8.39628">
        <ele>419.1</ele>
        <time>2022-10-02T14:41:46Z</time>
      </trkpt>
      <trkpt lat="47.45162" lon="8.39634">
        <ele>419.1</ele>
        <time>2022-10-02T14:41:47Z</time>
      </trkpt>
      <trkpt lat="47.45163" lon="8.39639">
        <ele>419.1</ele>
        <time>2022-10-02T14:41:48Z</time>
      </trkpt>
      <trkpt lat="47.45163" lon="8.39644">
        <ele>419.1</ele>
        <time>2022-10-02T14:41:49Z</time>
      </trkpt>
      <trkpt lat="47.45163" lon="8.3965">
        <ele>419.1</ele>
        <time>2022-10-02T14:41:50Z</time>
      </trkpt>
      <trkpt lat="47.45163" lon="8.39656">
        <ele>419.1</ele>
        <time>2022-10-02T14:41:51Z</time>
      </trkpt>
      <trkpt lat="47.45164" lon="8.39662">
        <ele>419.1</ele>
        <time>2022-10-02T14:41:52Z</time>
      </trkpt>
      <trkpt lat="47.45164" lon="8.39668">
        <ele>419.1</ele>
        <time>2022-10-02T14:41:53Z</time>
      </trkpt>
      <trkpt lat="47.45164" lon="8.39674">
        <ele>419.1</ele>
        <time>2022-10-02T14:41:54Z</time>
      </trkpt>
      <trkpt lat="47.45164" lon="8.3968">
        <ele>419.1</ele>
        <time>2022-10-02T14:41:55Z</time>
      </trkpt>
      <trkpt lat="47.45164" lon="8.39685">
        <ele>419.1</ele>
        <time>2022-10-02T14:41:56Z</time>
      </trkpt>
      <trkpt lat="47.45164" lon="8.3969">
        <ele>419.1</ele>
        <time>2022-10-02T14:41:57Z</time>
      </trkpt>
      <trkpt lat="47.45164" lon="8.39697">
        <ele>419.1</ele>
        <time>2022-10-02T14:41:58Z</time>
      </trkpt>
      <trkpt lat="47.45165" lon="8.39702">
        <ele>419.1</ele>
        <time>2022-10-02T14:41:59Z</time>
      </trkpt>
      <trkpt lat="47.45164" lon="8.39707">
        <ele>419.1</ele>
        <time>2022-10-02T14:42:00Z</time>
      </trkpt>
      <trkpt lat="47.45164" lon="8.39712">
        <ele>419.1</ele>
        <time>2022-10-02T14:42:01Z</time>
      </trkpt>
      <trkpt lat="47.45165" lon="8.39719">
        <ele>419.1</ele>
        <time>2022-10-02T14:42:02Z</time>
      </trkpt>
      <trkpt lat="47.45164" lon="8.39723">
        <ele>419.1</ele>
        <time>2022-10-02T14:42:03Z</time>
      </trkpt>
      <trkpt lat="47.45164" lon="8.39728">
        <ele>419.1</ele>
        <time>2022-10-02T14:42:04Z</time>
      </trkpt>
      <trkpt lat="47.45164" lon="8.39735">
        <ele>419.1</ele>
        <time>2022-10-02T14:42:05Z</time>
      </trkpt>
      <trkpt lat="47.45164" lon="8.39737">
        <ele>419.1</ele>
        <time>2022-10-02T14:42:06Z</time>
      </trkpt>
      <trkpt lat="47.45165" lon="8.39742">
        <ele>419.1</ele>
        <time>2022-10-02T14:42:07Z</time>
      </trkpt>
      <trkpt lat="47.45164" lon="8.39748">
        <ele>419.1</ele>
        <time>2022-10-02T14:42:08Z</time>
      </trkpt>
      <trkpt lat="47.45164" lon="8.39753">
        <ele>419.1</ele>
        <time>2022-10-02T14:42:09Z</time>
      </trkpt>
      <trkpt lat="47.45165" lon="8.39758">
        <ele>419.1</ele>
        <time>2022-10-02T14:42:10Z</time>
      </trkpt>
      <trkpt lat="47.45164" lon="8.39765">
        <ele>419.1</ele>
        <time>2022-10-02T14:42:11Z</time>
      </trkpt>
      <trkpt lat="47.45163" lon="8.39771">
        <ele>419.1</ele>
        <time>2022-10-02T14:42:12Z</time>
      </trkpt>
      <trkpt lat="47.45162" lon="8.39777">
        <ele>419.1</ele>
        <time>2022-10-02T14:42:13Z</time>
      </trkpt>
      <trkpt lat="47.45162" lon="8.39785">
        <ele>419.1</ele>
        <time>2022-10-02T14:42:14Z</time>
      </trkpt>
      <trkpt lat="47.45161" lon="8.39789">
        <ele>419.1</ele>
        <time>2022-10-02T14:42:15Z</time>
      </trkpt>
      <trkpt lat="47.45161" lon="8.39796">
        <ele>419.1</ele>
        <time>2022-10-02T14:42:16Z</time>
      </trkpt>
      <trkpt lat="47.45159" lon="8.39804">
        <ele>419.1</ele>
        <time>2022-10-02T14:42:17Z</time>
      </trkpt>
      <trkpt lat="47.45159" lon="8.3981">
        <ele>419.1</ele>
        <time>2022-10-02T14:42:18Z</time>
      </trkpt>
      <trkpt lat="47.45158" lon="8.39816">
        <ele>419.1</ele>
        <time>2022-10-02T14:42:19Z</time>
      </trkpt>
      <trkpt lat="47.45157" lon="8.39823">
        <ele>419</ele>
        <time>2022-10-02T14:42:20Z</time>
      </trkpt>
      <trkpt lat="47.45157" lon="8.3983">
        <ele>419</ele>
        <time>2022-10-02T14:42:21Z</time>
      </trkpt>
      <trkpt lat="47.45156" lon="8.39837">
        <ele>419</ele>
        <time>2022-10-02T14:42:22Z</time>
      </trkpt>
      <trkpt lat="47.45155" lon="8.39842">
        <ele>419</ele>
        <time>2022-10-02T14:42:23Z</time>
      </trkpt>
      <trkpt lat="47.45155" lon="8.3985">
        <ele>419</ele>
        <time>2022-10-02T14:42:24Z</time>
      </trkpt>
      <trkpt lat="47.45154" lon="8.39856">
        <ele>419</ele>
        <time>2022-10-02T14:42:25Z</time>
      </trkpt>
      <trkpt lat="47.45154" lon="8.39862">
        <ele>419</ele>
        <time>2022-10-02T14:42:26Z</time>
      </trkpt>
      <trkpt lat="47.45153" lon="8.39869">
        <ele>419</ele>
        <time>2022-10-02T14:42:27Z</time>
      </trkpt>
      <trkpt lat="47.45152" lon="8.39876">
        <ele>419</ele>
        <time>2022-10-02T14:42:28Z</time>
      </trkpt>
      <trkpt lat="47.45151" lon="8.39881">
        <ele>419</ele>
        <time>2022-10-02T14:42:29Z</time>
      </trkpt>
      <trkpt lat="47.45151" lon="8.39888">
        <ele>419</ele>
        <time>2022-10-02T14:42:30Z</time>
      </trkpt>
      <trkpt lat="47.4515" lon="8.39893">
        <ele>419</ele>
        <time>2022-10-02T14:42:31Z</time>
      </trkpt>
      <trkpt lat="47.4515" lon="8.39898">
        <ele>419</ele>
        <time>2022-10-02T14:42:32Z</time>
      </trkpt>
      <trkpt lat="47.45149" lon="8.39905">
        <ele>419</ele>
        <time>2022-10-02T14:42:33Z</time>
      </trkpt>
      <trkpt lat="47.45149" lon="8.3991">
        <ele>419</ele>
        <time>2022-10-02T14:42:34Z</time>
      </trkpt>
      <trkpt lat="47.45149" lon="8.39915">
        <ele>419</ele>
        <time>2022-10-02T14:42:35Z</time>
      </trkpt>
      <trkpt lat="47.45148" lon="8.39922">
        <ele>419</ele>
        <time>2022-10-02T14:42:36Z</time>
      </trkpt>
      <trkpt lat="47.45147" lon="8.39928">
        <ele>419</ele>
        <time>2022-10-02T14:42:37Z</time>
      </trkpt>
      <trkpt lat="47.45147" lon="8.39934">
        <ele>419</ele>
        <time>2022-10-02T14:42:38Z</time>
      </trkpt>
      <trkpt lat="47.45147" lon="8.39939">
        <ele>419</ele>
        <time>2022-10-02T14:42:39Z</time>
      </trkpt>
      <trkpt lat="47.45146" lon="8.39943">
        <ele>419</ele>
        <time>2022-10-02T14:42:40Z</time>
      </trkpt>
      <trkpt lat="47.45145" lon="8.39949">
        <ele>419</ele>
        <time>2022-10-02T14:42:41Z</time>
      </trkpt>
      <trkpt lat="47.45145" lon="8.39954">
        <ele>419</ele>
        <time>2022-10-02T14:42:42Z</time>
      </trkpt>
      <trkpt lat="47.45144" lon="8.3996">
        <ele>419</ele>
        <time>2022-10-02T14:42:43Z</time>
      </trkpt>
      <trkpt lat="47.45144" lon="8.39969">
        <ele>419</ele>
        <time>2022-10-02T14:42:44Z</time>
      </trkpt>
      <trkpt lat="47.45144" lon="8.39975">
        <ele>419</ele>
        <time>2022-10-02T14:42:45Z</time>
      </trkpt>
      <trkpt lat="47.45143" lon="8.39982">
        <ele>419</ele>
        <time>2022-10-02T14:42:46Z</time>
      </trkpt>
      <trkpt lat="47.45142" lon="8.39988">
        <ele>419</ele>
        <time>2022-10-02T14:42:47Z</time>
      </trkpt>
      <trkpt lat="47.45141" lon="8.39995">
        <ele>419</ele>
        <time>2022-10-02T14:42:48Z</time>
      </trkpt>
      <trkpt lat="47.4514" lon="8.40002">
        <ele>419</ele>
        <time>2022-10-02T14:42:49Z</time>
      </trkpt>
      <trkpt lat="47.4514" lon="8.40009">
        <ele>419</ele>
        <time>2022-10-02T14:42:50Z</time>
      </trkpt>
      <trkpt lat="47.45139" lon="8.40016">
        <ele>418.9</ele>
        <time>2022-10-02T14:42:51Z</time>
      </trkpt>
      <trkpt lat="47.45138" lon="8.40023">
        <ele>418.9</ele>
        <time>2022-10-02T14:42:52Z</time>
      </trkpt>
      <trkpt lat="47.45137" lon="8.40029">
        <ele>418.9</ele>
        <time>2022-10-02T14:42:53Z</time>
      </trkpt>
      <trkpt lat="47.45136" lon="8.40036">
        <ele>418.9</ele>
        <time>2022-10-02T14:42:54Z</time>
      </trkpt>
      <trkpt lat="47.45135" lon="8.40042">
        <ele>418.9</ele>
        <time>2022-10-02T14:42:55Z</time>
      </trkpt>
      <trkpt lat="47.45135" lon="8.4005">
        <ele>419</ele>
        <time>2022-10-02T14:42:56Z</time>
      </trkpt>
      <trkpt lat="47.45134" lon="8.40057">
        <ele>419</ele>
        <time>2022-10-02T14:42:57Z</time>
      </trkpt>
      <trkpt lat="47.45134" lon="8.40064">
        <ele>419</ele>
        <time>2022-10-02T14:42:58Z</time>
      </trkpt>
      <trkpt lat="47.45132" lon="8.40072">
        <ele>419</ele>
        <time>2022-10-02T14:42:59Z</time>
      </trkpt>
      <trkpt lat="47.45132" lon="8.40079">
        <ele>419</ele>
        <time>2022-10-02T14:43:01Z</time>
      </trkpt>
      <trkpt lat="47.45131" lon="8.40084">
        <ele>419</ele>
        <time>2022-10-02T14:43:02Z</time>
      </trkpt>
      <trkpt lat="47.45131" lon="8.40093">
        <ele>419</ele>
        <time>2022-10-02T14:43:03Z</time>
      </trkpt>
      <trkpt lat="47.45131" lon="8.40099">
        <ele>419</ele>
        <time>2022-10-02T14:43:04Z</time>
      </trkpt>
      <trkpt lat="47.4513" lon="8.40108">
        <ele>419</ele>
        <time>2022-10-02T14:43:05Z</time>
      </trkpt>
      <trkpt lat="47.45128" lon="8.40122">
        <ele>419</ele>
        <time>2022-10-02T14:43:06Z</time>
      </trkpt>
      <trkpt lat="47.45128" lon="8.40129">
        <ele>419</ele>
        <time>2022-10-02T14:43:07Z</time>
      </trkpt>
      <trkpt lat="47.45127" lon="8.40137">
        <ele>419</ele>
        <time>2022-10-02T14:43:08Z</time>
      </trkpt>
      <trkpt lat="47.45126" lon="8.40143">
        <ele>419</ele>
        <time>2022-10-02T14:43:09Z</time>
      </trkpt>
      <trkpt lat="47.45126" lon="8.40151">
        <ele>419</ele>
        <time>2022-10-02T14:43:10Z</time>
      </trkpt>
      <trkpt lat="47.45125" lon="8.40159">
        <ele>419</ele>
        <time>2022-10-02T14:43:11Z</time>
      </trkpt>
      <trkpt lat="47.45124" lon="8.40166">
        <ele>419</ele>
        <time>2022-10-02T14:43:12Z</time>
      </trkpt>
      <trkpt lat="47.45124" lon="8.40173">
        <ele>419</ele>
        <time>2022-10-02T14:43:13Z</time>
      </trkpt>
      <trkpt lat="47.45123" lon="8.4018">
        <ele>419</ele>
        <time>2022-10-02T14:43:15Z</time>
      </trkpt>
      <trkpt lat="47.4512" lon="8.40195">
        <ele>419</ele>
        <time>2022-10-02T14:43:16Z</time>
      </trkpt>
      <trkpt lat="47.4512" lon="8.40202">
        <ele>419</ele>
        <time>2022-10-02T14:43:17Z</time>
      </trkpt>
      <trkpt lat="47.45119" lon="8.40207">
        <ele>419</ele>
        <time>2022-10-02T14:43:18Z</time>
      </trkpt>
      <trkpt lat="47.45119" lon="8.40213">
        <ele>419</ele>
        <time>2022-10-02T14:43:19Z</time>
      </trkpt>
      <trkpt lat="47.45118" lon="8.40219">
        <ele>419</ele>
        <time>2022-10-02T14:43:20Z</time>
      </trkpt>
      <trkpt lat="47.45118" lon="8.40226">
        <ele>419</ele>
        <time>2022-10-02T14:43:21Z</time>
      </trkpt>
      <trkpt lat="47.45118" lon="8.40234">
        <ele>419</ele>
        <time>2022-10-02T14:43:22Z</time>
      </trkpt>
      <trkpt lat="47.45116" lon="8.40243">
        <ele>419</ele>
        <time>2022-10-02T14:43:23Z</time>
      </trkpt>
      <trkpt lat="47.45115" lon="8.40251">
        <ele>419.1</ele>
        <time>2022-10-02T14:43:24Z</time>
      </trkpt>
      <trkpt lat="47.45115" lon="8.40257">
        <ele>419.1</ele>
        <time>2022-10-02T14:43:25Z</time>
      </trkpt>
      <trkpt lat="47.45114" lon="8.40264">
        <ele>419.1</ele>
        <time>2022-10-02T14:43:26Z</time>
      </trkpt>
      <trkpt lat="47.45113" lon="8.40271">
        <ele>419.1</ele>
        <time>2022-10-02T14:43:27Z</time>
      </trkpt>
      <trkpt lat="47.45113" lon="8.40279">
        <ele>419.1</ele>
        <time>2022-10-02T14:43:28Z</time>
      </trkpt>
      <trkpt lat="47.45112" lon="8.40287">
        <ele>419.1</ele>
        <time>2022-10-02T14:43:29Z</time>
      </trkpt>
      <trkpt lat="47.45111" lon="8.40295">
        <ele>419.1</ele>
        <time>2022-10-02T14:43:30Z</time>
      </trkpt>
      <trkpt lat="47.4511" lon="8.40301">
        <ele>419.2</ele>
        <time>2022-10-02T14:43:31Z</time>
      </trkpt>
      <trkpt lat="47.45109" lon="8.40307">
        <ele>419.2</ele>
        <time>2022-10-02T14:43:32Z</time>
      </trkpt>
      <trkpt lat="47.45108" lon="8.40313">
        <ele>419.1</ele>
        <time>2022-10-02T14:43:33Z</time>
      </trkpt>
      <trkpt lat="47.45108" lon="8.40321">
        <ele>419.1</ele>
        <time>2022-10-02T14:43:34Z</time>
      </trkpt>
      <trkpt lat="47.45107" lon="8.40328">
        <ele>419.1</ele>
        <time>2022-10-02T14:43:35Z</time>
      </trkpt>
      <trkpt lat="47.45106" lon="8.40334">
        <ele>419.1</ele>
        <time>2022-10-02T14:43:36Z</time>
      </trkpt>
      <trkpt lat="47.45105" lon="8.4034">
        <ele>419</ele>
        <time>2022-10-02T14:43:37Z</time>
      </trkpt>
      <trkpt lat="47.45105" lon="8.40347">
        <ele>419</ele>
        <time>2022-10-02T14:43:38Z</time>
      </trkpt>
      <trkpt lat="47.45105" lon="8.40354">
        <ele>419</ele>
        <time>2022-10-02T14:43:39Z</time>
      </trkpt>
      <trkpt lat="47.45104" lon="8.4036">
        <ele>419</ele>
        <time>2022-10-02T14:43:40Z</time>
      </trkpt>
      <trkpt lat="47.45103" lon="8.40366">
        <ele>419.1</ele>
        <time>2022-10-02T14:43:41Z</time>
      </trkpt>
      <trkpt lat="47.45102" lon="8.40372">
        <ele>419.1</ele>
        <time>2022-10-02T14:43:42Z</time>
      </trkpt>
      <trkpt lat="47.45102" lon="8.40378">
        <ele>419.1</ele>
        <time>2022-10-02T14:43:43Z</time>
      </trkpt>
      <trkpt lat="47.45102" lon="8.40384">
        <ele>419.1</ele>
        <time>2022-10-02T14:43:44Z</time>
      </trkpt>
      <trkpt lat="47.45101" lon="8.4039">
        <ele>419.1</ele>
        <time>2022-10-02T14:43:45Z</time>
      </trkpt>
      <trkpt lat="47.451" lon="8.40397">
        <ele>419.1</ele>
        <time>2022-10-02T14:43:46Z</time>
      </trkpt>
      <trkpt lat="47.45099" lon="8.40403">
        <ele>419.1</ele>
        <time>2022-10-02T14:43:47Z</time>
      </trkpt>
      <trkpt lat="47.45099" lon="8.4041">
        <ele>419.1</ele>
        <time>2022-10-02T14:43:48Z</time>
      </trkpt>
      <trkpt lat="47.45098" lon="8.40417">
        <ele>419.1</ele>
        <time>2022-10-02T14:43:49Z</time>
      </trkpt>
      <trkpt lat="47.45097" lon="8.40422">
        <ele>419.1</ele>
        <time>2022-10-02T14:43:50Z</time>
      </trkpt>
      <trkpt lat="47.45097" lon="8.4043">
        <ele>419.1</ele>
        <time>2022-10-02T14:43:51Z</time>
      </trkpt>
      <trkpt lat="47.45096" lon="8.40438">
        <ele>419.1</ele>
        <time>2022-10-02T14:43:52Z</time>
      </trkpt>
      <trkpt lat="47.45096" lon="8.40445">
        <ele>419.1</ele>
        <time>2022-10-02T14:43:53Z</time>
      </trkpt>
      <trkpt lat="47.45095" lon="8.40451">
        <ele>419.1</ele>
        <time>2022-10-02T14:43:54Z</time>
      </trkpt>
      <trkpt lat="47.45094" lon="8.40457">
        <ele>419.1</ele>
        <time>2022-10-02T14:43:55Z</time>
      </trkpt>
      <trkpt lat="47.45094" lon="8.40464">
        <ele>419.1</ele>
        <time>2022-10-02T14:43:56Z</time>
      </trkpt>
      <trkpt lat="47.45093" lon="8.40471">
        <ele>419.1</ele>
        <time>2022-10-02T14:43:57Z</time>
      </trkpt>
      <trkpt lat="47.45093" lon="8.40478">
        <ele>419.1</ele>
        <time>2022-10-02T14:43:58Z</time>
      </trkpt>
      <trkpt lat="47.45092" lon="8.40485">
        <ele>419.1</ele>
        <time>2022-10-02T14:43:59Z</time>
      </trkpt>
      <trkpt lat="47.45091" lon="8.40492">
        <ele>419.1</ele>
        <time>2022-10-02T14:44:00Z</time>
      </trkpt>
      <trkpt lat="47.4509" lon="8.40499">
        <ele>419.1</ele>
        <time>2022-10-02T14:44:01Z</time>
      </trkpt>
      <trkpt lat="47.4509" lon="8.40506">
        <ele>419.1</ele>
        <time>2022-10-02T14:44:02Z</time>
      </trkpt>
      <trkpt lat="47.45089" lon="8.40512">
        <ele>419.1</ele>
        <time>2022-10-02T14:44:03Z</time>
      </trkpt>
      <trkpt lat="47.45089" lon="8.40518">
        <ele>419.1</ele>
        <time>2022-10-02T14:44:04Z</time>
      </trkpt>
      <trkpt lat="47.45088" lon="8.40524">
        <ele>419.1</ele>
        <time>2022-10-02T14:44:05Z</time>
      </trkpt>
      <trkpt lat="47.45087" lon="8.4053">
        <ele>419.1</ele>
        <time>2022-10-02T14:44:06Z</time>
      </trkpt>
      <trkpt lat="47.45087" lon="8.40537">
        <ele>419.1</ele>
        <time>2022-10-02T14:44:07Z</time>
      </trkpt>
      <trkpt lat="47.45086" lon="8.40543">
        <ele>419.1</ele>
        <time>2022-10-02T14:44:08Z</time>
      </trkpt>
      <trkpt lat="47.45085" lon="8.4055">
        <ele>419.1</ele>
        <time>2022-10-02T14:44:09Z</time>
      </trkpt>
      <trkpt lat="47.45085" lon="8.40558">
        <ele>419.1</ele>
        <time>2022-10-02T14:44:10Z</time>
      </trkpt>
      <trkpt lat="47.45084" lon="8.40564">
        <ele>419</ele>
        <time>2022-10-02T14:44:11Z</time>
      </trkpt>
      <trkpt lat="47.45084" lon="8.40572">
        <ele>419</ele>
        <time>2022-10-02T14:44:12Z</time>
      </trkpt>
      <trkpt lat="47.45083" lon="8.40579">
        <ele>419</ele>
        <time>2022-10-02T14:44:13Z</time>
      </trkpt>
      <trkpt lat="47.45082" lon="8.40585">
        <ele>419</ele>
        <time>2022-10-02T14:44:14Z</time>
      </trkpt>
      <trkpt lat="47.45082" lon="8.40591">
        <ele>419</ele>
        <time>2022-10-02T14:44:15Z</time>
      </trkpt>
      <trkpt lat="47.45081" lon="8.40598">
        <ele>419</ele>
        <time>2022-10-02T14:44:16Z</time>
      </trkpt>
      <trkpt lat="47.4508" lon="8.40605">
        <ele>419.1</ele>
        <time>2022-10-02T14:44:17Z</time>
      </trkpt>
      <trkpt lat="47.4508" lon="8.4061">
        <ele>419.1</ele>
        <time>2022-10-02T14:44:18Z</time>
      </trkpt>
      <trkpt lat="47.45079" lon="8.40617">
        <ele>419.2</ele>
        <time>2022-10-02T14:44:19Z</time>
      </trkpt>
      <trkpt lat="47.45079" lon="8.40623">
        <ele>419.2</ele>
        <time>2022-10-02T14:44:20Z</time>
      </trkpt>
      <trkpt lat="47.45078" lon="8.4063">
        <ele>419.2</ele>
        <time>2022-10-02T14:44:21Z</time>
      </trkpt>
      <trkpt lat="47.45078" lon="8.40635">
        <ele>419.2</ele>
        <time>2022-10-02T14:44:22Z</time>
      </trkpt>
      <trkpt lat="47.45078" lon="8.40641">
        <ele>419.2</ele>
        <time>2022-10-02T14:44:23Z</time>
      </trkpt>
      <trkpt lat="47.45077" lon="8.40649">
        <ele>419.2</ele>
        <time>2022-10-02T14:44:24Z</time>
      </trkpt>
      <trkpt lat="47.45077" lon="8.40655">
        <ele>419.2</ele>
        <time>2022-10-02T14:44:25Z</time>
      </trkpt>
      <trkpt lat="47.45076" lon="8.40661">
        <ele>419.2</ele>
        <time>2022-10-02T14:44:26Z</time>
      </trkpt>
      <trkpt lat="47.45075" lon="8.40668">
        <ele>419.2</ele>
        <time>2022-10-02T14:44:27Z</time>
      </trkpt>
      <trkpt lat="47.45075" lon="8.40674">
        <ele>419.1</ele>
        <time>2022-10-02T14:44:28Z</time>
      </trkpt>
      <trkpt lat="47.45074" lon="8.4068">
        <ele>419.1</ele>
        <time>2022-10-02T14:44:29Z</time>
      </trkpt>
      <trkpt lat="47.45073" lon="8.40686">
        <ele>419.1</ele>
        <time>2022-10-02T14:44:30Z</time>
      </trkpt>
      <trkpt lat="47.45072" lon="8.40693">
        <ele>419.1</ele>
        <time>2022-10-02T14:44:31Z</time>
      </trkpt>
      <trkpt lat="47.45072" lon="8.40701">
        <ele>419</ele>
        <time>2022-10-02T14:44:32Z</time>
      </trkpt>
      <trkpt lat="47.45071" lon="8.40705">
        <ele>419</ele>
        <time>2022-10-02T14:44:33Z</time>
      </trkpt>
      <trkpt lat="47.45071" lon="8.40709">
        <ele>419</ele>
        <time>2022-10-02T14:44:34Z</time>
      </trkpt>
      <trkpt lat="47.4507" lon="8.40715">
        <ele>419</ele>
        <time>2022-10-02T14:44:35Z</time>
      </trkpt>
      <trkpt lat="47.4507" lon="8.4072">
        <ele>419</ele>
        <time>2022-10-02T14:44:36Z</time>
      </trkpt>
      <trkpt lat="47.45069" lon="8.40726">
        <ele>419</ele>
        <time>2022-10-02T14:44:37Z</time>
      </trkpt>
      <trkpt lat="47.45069" lon="8.40731">
        <ele>419</ele>
        <time>2022-10-02T14:44:38Z</time>
      </trkpt>
      <trkpt lat="47.45068" lon="8.40737">
        <ele>418.9</ele>
        <time>2022-10-02T14:44:39Z</time>
      </trkpt>
      <trkpt lat="47.45068" lon="8.40743">
        <ele>418.9</ele>
        <time>2022-10-02T14:44:40Z</time>
      </trkpt>
      <trkpt lat="47.45067" lon="8.4075">
        <ele>418.9</ele>
        <time>2022-10-02T14:44:41Z</time>
      </trkpt>
      <trkpt lat="47.45066" lon="8.40758">
        <ele>418.9</ele>
        <time>2022-10-02T14:44:42Z</time>
      </trkpt>
      <trkpt lat="47.45065" lon="8.40765">
        <ele>418.9</ele>
        <time>2022-10-02T14:44:43Z</time>
      </trkpt>
      <trkpt lat="47.45065" lon="8.40773">
        <ele>418.9</ele>
        <time>2022-10-02T14:44:44Z</time>
      </trkpt>
      <trkpt lat="47.45064" lon="8.4078">
        <ele>418.9</ele>
        <time>2022-10-02T14:44:45Z</time>
      </trkpt>
      <trkpt lat="47.45064" lon="8.40787">
        <ele>418.9</ele>
        <time>2022-10-02T14:44:46Z</time>
      </trkpt>
      <trkpt lat="47.45063" lon="8.40794">
        <ele>418.9</ele>
        <time>2022-10-02T14:44:47Z</time>
      </trkpt>
      <trkpt lat="47.45062" lon="8.40801">
        <ele>418.9</ele>
        <time>2022-10-02T14:44:48Z</time>
      </trkpt>
      <trkpt lat="47.45061" lon="8.40808">
        <ele>418.9</ele>
        <time>2022-10-02T14:44:49Z</time>
      </trkpt>
      <trkpt lat="47.4506" lon="8.40814">
        <ele>418.9</ele>
        <time>2022-10-02T14:44:50Z</time>
      </trkpt>
      <trkpt lat="47.4506" lon="8.4082">
        <ele>418.9</ele>
        <time>2022-10-02T14:44:51Z</time>
      </trkpt>
      <trkpt lat="47.45059" lon="8.40826">
        <ele>418.9</ele>
        <time>2022-10-02T14:44:52Z</time>
      </trkpt>
      <trkpt lat="47.45059" lon="8.4083">
        <ele>418.9</ele>
        <time>2022-10-02T14:44:53Z</time>
      </trkpt>
      <trkpt lat="47.45058" lon="8.40835">
        <ele>418.9</ele>
        <time>2022-10-02T14:44:54Z</time>
      </trkpt>
      <trkpt lat="47.45058" lon="8.40843">
        <ele>418.9</ele>
        <time>2022-10-02T14:44:55Z</time>
      </trkpt>
      <trkpt lat="47.45057" lon="8.4085">
        <ele>418.9</ele>
        <time>2022-10-02T14:44:56Z</time>
      </trkpt>
      <trkpt lat="47.45056" lon="8.40857">
        <ele>418.9</ele>
        <time>2022-10-02T14:44:57Z</time>
      </trkpt>
      <trkpt lat="47.45055" lon="8.40863">
        <ele>418.9</ele>
        <time>2022-10-02T14:44:58Z</time>
      </trkpt>
      <trkpt lat="47.45055" lon="8.4087">
        <ele>418.9</ele>
        <time>2022-10-02T14:44:59Z</time>
      </trkpt>
      <trkpt lat="47.45054" lon="8.40875">
        <ele>418.9</ele>
        <time>2022-10-02T14:45:00Z</time>
      </trkpt>
      <trkpt lat="47.45054" lon="8.40881">
        <ele>418.9</ele>
        <time>2022-10-02T14:45:01Z</time>
      </trkpt>
      <trkpt lat="47.45053" lon="8.40886">
        <ele>418.9</ele>
        <time>2022-10-02T14:45:02Z</time>
      </trkpt>
      <trkpt lat="47.45053" lon="8.40891">
        <ele>418.9</ele>
        <time>2022-10-02T14:45:03Z</time>
      </trkpt>
      <trkpt lat="47.45052" lon="8.40896">
        <ele>418.8</ele>
        <time>2022-10-02T14:45:04Z</time>
      </trkpt>
      <trkpt lat="47.45051" lon="8.40903">
        <ele>418.8</ele>
        <time>2022-10-02T14:45:05Z</time>
      </trkpt>
      <trkpt lat="47.4505" lon="8.4091">
        <ele>418.8</ele>
        <time>2022-10-02T14:45:07Z</time>
      </trkpt>
      <trkpt lat="47.4505" lon="8.40916">
        <ele>418.8</ele>
        <time>2022-10-02T14:45:08Z</time>
      </trkpt>
      <trkpt lat="47.45049" lon="8.40922">
        <ele>418.8</ele>
        <time>2022-10-02T14:45:09Z</time>
      </trkpt>
      <trkpt lat="47.45049" lon="8.40929">
        <ele>418.8</ele>
        <time>2022-10-02T14:45:10Z</time>
      </trkpt>
      <trkpt lat="47.45048" lon="8.40935">
        <ele>418.8</ele>
        <time>2022-10-02T14:45:11Z</time>
      </trkpt>
      <trkpt lat="47.45048" lon="8.40948">
        <ele>418.8</ele>
        <time>2022-10-02T14:45:12Z</time>
      </trkpt>
      <trkpt lat="47.45048" lon="8.40954">
        <ele>418.8</ele>
        <time>2022-10-02T14:45:13Z</time>
      </trkpt>
      <trkpt lat="47.45048" lon="8.40959">
        <ele>418.8</ele>
        <time>2022-10-02T14:45:14Z</time>
      </trkpt>
      <trkpt lat="47.45047" lon="8.40966">
        <ele>418.8</ele>
        <time>2022-10-02T14:45:15Z</time>
      </trkpt>
      <trkpt lat="47.45046" lon="8.4097">
        <ele>418.9</ele>
        <time>2022-10-02T14:45:16Z</time>
      </trkpt>
      <trkpt lat="47.45046" lon="8.40976">
        <ele>418.9</ele>
        <time>2022-10-02T14:45:17Z</time>
      </trkpt>
      <trkpt lat="47.45044" lon="8.40983">
        <ele>418.9</ele>
        <time>2022-10-02T14:45:18Z</time>
      </trkpt>
      <trkpt lat="47.45043" lon="8.40988">
        <ele>418.9</ele>
        <time>2022-10-02T14:45:19Z</time>
      </trkpt>
      <trkpt lat="47.45044" lon="8.40995">
        <ele>418.9</ele>
        <time>2022-10-02T14:45:20Z</time>
      </trkpt>
      <trkpt lat="47.45043" lon="8.41001">
        <ele>418.9</ele>
        <time>2022-10-02T14:45:21Z</time>
      </trkpt>
      <trkpt lat="47.45042" lon="8.41006">
        <ele>418.9</ele>
        <time>2022-10-02T14:45:22Z</time>
      </trkpt>
      <trkpt lat="47.45041" lon="8.41013">
        <ele>418.9</ele>
        <time>2022-10-02T14:45:23Z</time>
      </trkpt>
      <trkpt lat="47.45041" lon="8.41018">
        <ele>418.9</ele>
        <time>2022-10-02T14:45:24Z</time>
      </trkpt>
      <trkpt lat="47.45039" lon="8.41024">
        <ele>418.9</ele>
        <time>2022-10-02T14:45:25Z</time>
      </trkpt>
      <trkpt lat="47.45038" lon="8.4103">
        <ele>418.9</ele>
        <time>2022-10-02T14:45:26Z</time>
      </trkpt>
      <trkpt lat="47.45038" lon="8.41034">
        <ele>418.9</ele>
        <time>2022-10-02T14:45:27Z</time>
      </trkpt>
      <trkpt lat="47.45037" lon="8.41039">
        <ele>418.9</ele>
        <time>2022-10-02T14:45:28Z</time>
      </trkpt>
      <trkpt lat="47.45037" lon="8.41044">
        <ele>419</ele>
        <time>2022-10-02T14:45:29Z</time>
      </trkpt>
      <trkpt lat="47.45037" lon="8.41048">
        <ele>419</ele>
        <time>2022-10-02T14:45:30Z</time>
      </trkpt>
      <trkpt lat="47.45037" lon="8.41053">
        <ele>419</ele>
        <time>2022-10-02T14:45:31Z</time>
      </trkpt>
      <trkpt lat="47.45036" lon="8.41058">
        <ele>419.1</ele>
        <time>2022-10-02T14:45:32Z</time>
      </trkpt>
      <trkpt lat="47.45035" lon="8.41065">
        <ele>419.1</ele>
        <time>2022-10-02T14:45:33Z</time>
      </trkpt>
      <trkpt lat="47.45034" lon="8.4107">
        <ele>419.1</ele>
        <time>2022-10-02T14:45:34Z</time>
      </trkpt>
      <trkpt lat="47.45034" lon="8.41075">
        <ele>419.1</ele>
        <time>2022-10-02T14:45:35Z</time>
      </trkpt>
      <trkpt lat="47.45034" lon="8.41081">
        <ele>419.1</ele>
        <time>2022-10-02T14:45:36Z</time>
      </trkpt>
      <trkpt lat="47.45034" lon="8.41087">
        <ele>419.1</ele>
        <time>2022-10-02T14:45:37Z</time>
      </trkpt>
      <trkpt lat="47.45033" lon="8.41093">
        <ele>419.1</ele>
        <time>2022-10-02T14:45:38Z</time>
      </trkpt>
      <trkpt lat="47.45032" lon="8.41099">
        <ele>419.1</ele>
        <time>2022-10-02T14:45:39Z</time>
      </trkpt>
      <trkpt lat="47.45032" lon="8.41105">
        <ele>419.1</ele>
        <time>2022-10-02T14:45:40Z</time>
      </trkpt>
      <trkpt lat="47.45031" lon="8.41111">
        <ele>419.1</ele>
        <time>2022-10-02T14:45:41Z</time>
      </trkpt>
      <trkpt lat="47.4503" lon="8.41118">
        <ele>419.1</ele>
        <time>2022-10-02T14:45:42Z</time>
      </trkpt>
      <trkpt lat="47.4503" lon="8.41124">
        <ele>419.1</ele>
        <time>2022-10-02T14:45:43Z</time>
      </trkpt>
      <trkpt lat="47.45029" lon="8.4113">
        <ele>419.1</ele>
        <time>2022-10-02T14:45:44Z</time>
      </trkpt>
      <trkpt lat="47.45028" lon="8.41136">
        <ele>419.1</ele>
        <time>2022-10-02T14:45:45Z</time>
      </trkpt>
      <trkpt lat="47.45028" lon="8.41142">
        <ele>419.1</ele>
        <time>2022-10-02T14:45:46Z</time>
      </trkpt>
      <trkpt lat="47.45027" lon="8.41148">
        <ele>419.1</ele>
        <time>2022-10-02T14:45:47Z</time>
      </trkpt>
      <trkpt lat="47.45027" lon="8.41153">
        <ele>419.1</ele>
        <time>2022-10-02T14:45:48Z</time>
      </trkpt>
      <trkpt lat="47.45026" lon="8.4116">
        <ele>419.1</ele>
        <time>2022-10-02T14:45:49Z</time>
      </trkpt>
      <trkpt lat="47.45026" lon="8.41166">
        <ele>419.1</ele>
        <time>2022-10-02T14:45:50Z</time>
      </trkpt>
      <trkpt lat="47.45025" lon="8.41172">
        <ele>419</ele>
        <time>2022-10-02T14:45:51Z</time>
      </trkpt>
      <trkpt lat="47.45024" lon="8.41178">
        <ele>419</ele>
        <time>2022-10-02T14:45:52Z</time>
      </trkpt>
      <trkpt lat="47.45023" lon="8.41184">
        <ele>419</ele>
        <time>2022-10-02T14:45:53Z</time>
      </trkpt>
      <trkpt lat="47.45023" lon="8.4119">
        <ele>419</ele>
        <time>2022-10-02T14:45:54Z</time>
      </trkpt>
      <trkpt lat="47.45022" lon="8.41196">
        <ele>419</ele>
        <time>2022-10-02T14:45:55Z</time>
      </trkpt>
      <trkpt lat="47.45021" lon="8.41203">
        <ele>419</ele>
        <time>2022-10-02T14:45:56Z</time>
      </trkpt>
      <trkpt lat="47.45021" lon="8.41208">
        <ele>419</ele>
        <time>2022-10-02T14:45:57Z</time>
      </trkpt>
      <trkpt lat="47.4502" lon="8.41214">
        <ele>419</ele>
        <time>2022-10-02T14:45:58Z</time>
      </trkpt>
      <trkpt lat="47.45019" lon="8.41221">
        <ele>419</ele>
        <time>2022-10-02T14:45:59Z</time>
      </trkpt>
      <trkpt lat="47.45019" lon="8.41227">
        <ele>418.9</ele>
        <time>2022-10-02T14:46:00Z</time>
      </trkpt>
      <trkpt lat="47.45019" lon="8.41234">
        <ele>418.9</ele>
        <time>2022-10-02T14:46:01Z</time>
      </trkpt>
      <trkpt lat="47.45018" lon="8.41241">
        <ele>418.9</ele>
        <time>2022-10-02T14:46:02Z</time>
      </trkpt>
      <trkpt lat="47.45018" lon="8.41248">
        <ele>418.9</ele>
        <time>2022-10-02T14:46:03Z</time>
      </trkpt>
      <trkpt lat="47.45017" lon="8.41254">
        <ele>418.9</ele>
        <time>2022-10-02T14:46:04Z</time>
      </trkpt>
      <trkpt lat="47.45016" lon="8.41261">
        <ele>418.9</ele>
        <time>2022-10-02T14:46:05Z</time>
      </trkpt>
      <trkpt lat="47.45015" lon="8.41269">
        <ele>418.9</ele>
        <time>2022-10-02T14:46:06Z</time>
      </trkpt>
      <trkpt lat="47.45015" lon="8.41276">
        <ele>418.9</ele>
        <time>2022-10-02T14:46:07Z</time>
      </trkpt>
      <trkpt lat="47.45014" lon="8.41283">
        <ele>418.9</ele>
        <time>2022-10-02T14:46:08Z</time>
      </trkpt>
      <trkpt lat="47.45013" lon="8.4129">
        <ele>418.9</ele>
        <time>2022-10-02T14:46:09Z</time>
      </trkpt>
      <trkpt lat="47.45013" lon="8.41298">
        <ele>418.9</ele>
        <time>2022-10-02T14:46:10Z</time>
      </trkpt>
      <trkpt lat="47.45012" lon="8.41305">
        <ele>418.9</ele>
        <time>2022-10-02T14:46:11Z</time>
      </trkpt>
      <trkpt lat="47.45011" lon="8.41312">
        <ele>418.9</ele>
        <time>2022-10-02T14:46:12Z</time>
      </trkpt>
      <trkpt lat="47.45011" lon="8.41318">
        <ele>418.9</ele>
        <time>2022-10-02T14:46:13Z</time>
      </trkpt>
      <trkpt lat="47.4501" lon="8.41325">
        <ele>419</ele>
        <time>2022-10-02T14:46:14Z</time>
      </trkpt>
      <trkpt lat="47.45009" lon="8.4133">
        <ele>419</ele>
        <time>2022-10-02T14:46:15Z</time>
      </trkpt>
      <trkpt lat="47.45008" lon="8.41336">
        <ele>419</ele>
        <time>2022-10-02T14:46:16Z</time>
      </trkpt>
      <trkpt lat="47.45008" lon="8.41342">
        <ele>419</ele>
        <time>2022-10-02T14:46:17Z</time>
      </trkpt>
      <trkpt lat="47.45007" lon="8.41347">
        <ele>419</ele>
        <time>2022-10-02T14:46:18Z</time>
      </trkpt>
      <trkpt lat="47.45007" lon="8.41353">
        <ele>419</ele>
        <time>2022-10-02T14:46:19Z</time>
      </trkpt>
      <trkpt lat="47.45006" lon="8.41359">
        <ele>419.1</ele>
        <time>2022-10-02T14:46:20Z</time>
      </trkpt>
      <trkpt lat="47.45005" lon="8.41366">
        <ele>419.1</ele>
        <time>2022-10-02T14:46:21Z</time>
      </trkpt>
      <trkpt lat="47.45005" lon="8.41372">
        <ele>419.1</ele>
        <time>2022-10-02T14:46:22Z</time>
      </trkpt>
      <trkpt lat="47.45004" lon="8.41377">
        <ele>419.1</ele>
        <time>2022-10-02T14:46:23Z</time>
      </trkpt>
      <trkpt lat="47.45004" lon="8.41383">
        <ele>419.2</ele>
        <time>2022-10-02T14:46:24Z</time>
      </trkpt>
      <trkpt lat="47.45003" lon="8.41389">
        <ele>419.2</ele>
        <time>2022-10-02T14:46:25Z</time>
      </trkpt>
      <trkpt lat="47.45002" lon="8.41395">
        <ele>419.2</ele>
        <time>2022-10-02T14:46:26Z</time>
      </trkpt>
      <trkpt lat="47.45002" lon="8.41401">
        <ele>419.3</ele>
        <time>2022-10-02T14:46:27Z</time>
      </trkpt>
      <trkpt lat="47.45001" lon="8.41407">
        <ele>419.3</ele>
        <time>2022-10-02T14:46:28Z</time>
      </trkpt>
      <trkpt lat="47.45001" lon="8.41413">
        <ele>419.3</ele>
        <time>2022-10-02T14:46:29Z</time>
      </trkpt>
      <trkpt lat="47.45" lon="8.41418">
        <ele>419.3</ele>
        <time>2022-10-02T14:46:30Z</time>
      </trkpt>
      <trkpt lat="47.44999" lon="8.41424">
        <ele>419.3</ele>
        <time>2022-10-02T14:46:31Z</time>
      </trkpt>
      <trkpt lat="47.44999" lon="8.4143">
        <ele>419.3</ele>
        <time>2022-10-02T14:46:32Z</time>
      </trkpt>
      <trkpt lat="47.44998" lon="8.41436">
        <ele>419.3</ele>
        <time>2022-10-02T14:46:33Z</time>
      </trkpt>
      <trkpt lat="47.44997" lon="8.41442">
        <ele>419.3</ele>
        <time>2022-10-02T14:46:34Z</time>
      </trkpt>
      <trkpt lat="47.44997" lon="8.41448">
        <ele>419.3</ele>
        <time>2022-10-02T14:46:35Z</time>
      </trkpt>
      <trkpt lat="47.44996" lon="8.41454">
        <ele>419.3</ele>
        <time>2022-10-02T14:46:36Z</time>
      </trkpt>
      <trkpt lat="47.44996" lon="8.4146">
        <ele>419.3</ele>
        <time>2022-10-02T14:46:37Z</time>
      </trkpt>
      <trkpt lat="47.44995" lon="8.41467">
        <ele>419.3</ele>
        <time>2022-10-02T14:46:38Z</time>
      </trkpt>
      <trkpt lat="47.44995" lon="8.41473">
        <ele>419.4</ele>
        <time>2022-10-02T14:46:39Z</time>
      </trkpt>
      <trkpt lat="47.44994" lon="8.4148">
        <ele>419.4</ele>
        <time>2022-10-02T14:46:40Z</time>
      </trkpt>
      <trkpt lat="47.44994" lon="8.41486">
        <ele>419.4</ele>
        <time>2022-10-02T14:46:41Z</time>
      </trkpt>
      <trkpt lat="47.44993" lon="8.41492">
        <ele>419.4</ele>
        <time>2022-10-02T14:46:42Z</time>
      </trkpt>
      <trkpt lat="47.44993" lon="8.41498">
        <ele>419.4</ele>
        <time>2022-10-02T14:46:43Z</time>
      </trkpt>
      <trkpt lat="47.44993" lon="8.41504">
        <ele>419.4</ele>
        <time>2022-10-02T14:46:44Z</time>
      </trkpt>
      <trkpt lat="47.44993" lon="8.41509">
        <ele>419.4</ele>
        <time>2022-10-02T14:46:45Z</time>
      </trkpt>
      <trkpt lat="47.44993" lon="8.41515">
        <ele>419.4</ele>
        <time>2022-10-02T14:46:46Z</time>
      </trkpt>
      <trkpt lat="47.44993" lon="8.41521">
        <ele>419.5</ele>
        <time>2022-10-02T14:46:47Z</time>
      </trkpt>
      <trkpt lat="47.44993" lon="8.41528">
        <ele>419.5</ele>
        <time>2022-10-02T14:46:48Z</time>
      </trkpt>
      <trkpt lat="47.44993" lon="8.41533">
        <ele>419.5</ele>
        <time>2022-10-02T14:46:49Z</time>
      </trkpt>
      <trkpt lat="47.44993" lon="8.41539">
        <ele>419.5</ele>
        <time>2022-10-02T14:46:50Z</time>
      </trkpt>
      <trkpt lat="47.44993" lon="8.41546">
        <ele>419.5</ele>
        <time>2022-10-02T14:46:51Z</time>
      </trkpt>
      <trkpt lat="47.44994" lon="8.41551">
        <ele>419.5</ele>
        <time>2022-10-02T14:46:52Z</time>
      </trkpt>
      <trkpt lat="47.44994" lon="8.41557">
        <ele>419.5</ele>
        <time>2022-10-02T14:46:53Z</time>
      </trkpt>
      <trkpt lat="47.44994" lon="8.41563">
        <ele>419.5</ele>
        <time>2022-10-02T14:46:54Z</time>
      </trkpt>
      <trkpt lat="47.44994" lon="8.41569">
        <ele>419.5</ele>
        <time>2022-10-02T14:46:55Z</time>
      </trkpt>
      <trkpt lat="47.44993" lon="8.41574">
        <ele>419.5</ele>
        <time>2022-10-02T14:46:56Z</time>
      </trkpt>
      <trkpt lat="47.44995" lon="8.41581">
        <ele>419.4</ele>
        <time>2022-10-02T14:46:57Z</time>
      </trkpt>
      <trkpt lat="47.44996" lon="8.41589">
        <ele>419.4</ele>
        <time>2022-10-02T14:46:58Z</time>
      </trkpt>
      <trkpt lat="47.44996" lon="8.41597">
        <ele>419.4</ele>
        <time>2022-10-02T14:46:59Z</time>
      </trkpt>
      <trkpt lat="47.44997" lon="8.41603">
        <ele>419.4</ele>
        <time>2022-10-02T14:47:00Z</time>
      </trkpt>
      <trkpt lat="47.44998" lon="8.41609">
        <ele>419.5</ele>
        <time>2022-10-02T14:47:01Z</time>
      </trkpt>
      <trkpt lat="47.44998" lon="8.41615">
        <ele>419.5</ele>
        <time>2022-10-02T14:47:02Z</time>
      </trkpt>
      <trkpt lat="47.44998" lon="8.41622">
        <ele>419.5</ele>
        <time>2022-10-02T14:47:03Z</time>
      </trkpt>
      <trkpt lat="47.44999" lon="8.41627">
        <ele>419.5</ele>
        <time>2022-10-02T14:47:04Z</time>
      </trkpt>
      <trkpt lat="47.45" lon="8.41634">
        <ele>419.5</ele>
        <time>2022-10-02T14:47:05Z</time>
      </trkpt>
      <trkpt lat="47.45001" lon="8.4164">
        <ele>419.5</ele>
        <time>2022-10-02T14:47:06Z</time>
      </trkpt>
      <trkpt lat="47.45001" lon="8.41646">
        <ele>419.5</ele>
        <time>2022-10-02T14:47:07Z</time>
      </trkpt>
      <trkpt lat="47.45002" lon="8.41652">
        <ele>419.5</ele>
        <time>2022-10-02T14:47:08Z</time>
      </trkpt>
      <trkpt lat="47.45003" lon="8.41661">
        <ele>419.5</ele>
        <time>2022-10-02T14:47:09Z</time>
      </trkpt>
      <trkpt lat="47.45003" lon="8.41668">
        <ele>419.5</ele>
        <time>2022-10-02T14:47:10Z</time>
      </trkpt>
      <trkpt lat="47.45004" lon="8.41675">
        <ele>419.5</ele>
        <time>2022-10-02T14:47:11Z</time>
      </trkpt>
      <trkpt lat="47.45005" lon="8.41682">
        <ele>419.5</ele>
        <time>2022-10-02T14:47:13Z</time>
      </trkpt>
      <trkpt lat="47.45006" lon="8.41688">
        <ele>419.5</ele>
        <time>2022-10-02T14:47:14Z</time>
      </trkpt>
      <trkpt lat="47.45006" lon="8.41693">
        <ele>419.5</ele>
        <time>2022-10-02T14:47:15Z</time>
      </trkpt>
      <trkpt lat="47.45007" lon="8.417">
        <ele>419.5</ele>
        <time>2022-10-02T14:47:16Z</time>
      </trkpt>
      <trkpt lat="47.45008" lon="8.41706">
        <ele>419.5</ele>
        <time>2022-10-02T14:47:17Z</time>
      </trkpt>
      <trkpt lat="47.45009" lon="8.41712">
        <ele>419.5</ele>
        <time>2022-10-02T14:47:18Z</time>
      </trkpt>
      <trkpt lat="47.4501" lon="8.41721">
        <ele>419.5</ele>
        <time>2022-10-02T14:47:19Z</time>
      </trkpt>
      <trkpt lat="47.45011" lon="8.41735">
        <ele>419.5</ele>
        <time>2022-10-02T14:47:20Z</time>
      </trkpt>
      <trkpt lat="47.45011" lon="8.41743">
        <ele>419.5</ele>
        <time>2022-10-02T14:47:21Z</time>
      </trkpt>
      <trkpt lat="47.45011" lon="8.41749">
        <ele>419.5</ele>
        <time>2022-10-02T14:47:22Z</time>
      </trkpt>
      <trkpt lat="47.45012" lon="8.41756">
        <ele>419.4</ele>
        <time>2022-10-02T14:47:23Z</time>
      </trkpt>
      <trkpt lat="47.45013" lon="8.41763">
        <ele>419.4</ele>
        <time>2022-10-02T14:47:25Z</time>
      </trkpt>
      <trkpt lat="47.45014" lon="8.41777">
        <ele>419.5</ele>
        <time>2022-10-02T14:47:26Z</time>
      </trkpt>
      <trkpt lat="47.45014" lon="8.41785">
        <ele>419.5</ele>
        <time>2022-10-02T14:47:27Z</time>
      </trkpt>
      <trkpt lat="47.45015" lon="8.41792">
        <ele>419.5</ele>
        <time>2022-10-02T14:47:28Z</time>
      </trkpt>
      <trkpt lat="47.45017" lon="8.41799">
        <ele>419.5</ele>
        <time>2022-10-02T14:47:29Z</time>
      </trkpt>
      <trkpt lat="47.45017" lon="8.41806">
        <ele>419.5</ele>
        <time>2022-10-02T14:47:30Z</time>
      </trkpt>
      <trkpt lat="47.45018" lon="8.41812">
        <ele>419.5</ele>
        <time>2022-10-02T14:47:31Z</time>
      </trkpt>
      <trkpt lat="47.45019" lon="8.41817">
        <ele>419.6</ele>
        <time>2022-10-02T14:47:32Z</time>
      </trkpt>
      <trkpt lat="47.4502" lon="8.41823">
        <ele>419.6</ele>
        <time>2022-10-02T14:47:33Z</time>
      </trkpt>
      <trkpt lat="47.45021" lon="8.41831">
        <ele>419.6</ele>
        <time>2022-10-02T14:47:34Z</time>
      </trkpt>
      <trkpt lat="47.45021" lon="8.41838">
        <ele>419.6</ele>
        <time>2022-10-02T14:47:35Z</time>
      </trkpt>
      <trkpt lat="47.45022" lon="8.41844">
        <ele>419.6</ele>
        <time>2022-10-02T14:47:36Z</time>
      </trkpt>
      <trkpt lat="47.45022" lon="8.41851">
        <ele>419.6</ele>
        <time>2022-10-02T14:47:37Z</time>
      </trkpt>
      <trkpt lat="47.45023" lon="8.41858">
        <ele>419.7</ele>
        <time>2022-10-02T14:47:38Z</time>
      </trkpt>
      <trkpt lat="47.45023" lon="8.41866">
        <ele>419.7</ele>
        <time>2022-10-02T14:47:39Z</time>
      </trkpt>
      <trkpt lat="47.45024" lon="8.41873">
        <ele>419.7</ele>
        <time>2022-10-02T14:47:40Z</time>
      </trkpt>
      <trkpt lat="47.45025" lon="8.41881">
        <ele>419.7</ele>
        <time>2022-10-02T14:47:41Z</time>
      </trkpt>
      <trkpt lat="47.45026" lon="8.41887">
        <ele>419.7</ele>
        <time>2022-10-02T14:47:42Z</time>
      </trkpt>
      <trkpt lat="47.45027" lon="8.41894">
        <ele>419.7</ele>
        <time>2022-10-02T14:47:43Z</time>
      </trkpt>
      <trkpt lat="47.45027" lon="8.419">
        <ele>419.7</ele>
        <time>2022-10-02T14:47:44Z</time>
      </trkpt>
      <trkpt lat="47.45028" lon="8.41908">
        <ele>419.7</ele>
        <time>2022-10-02T14:47:45Z</time>
      </trkpt>
      <trkpt lat="47.45028" lon="8.41914">
        <ele>419.7</ele>
        <time>2022-10-02T14:47:46Z</time>
      </trkpt>
      <trkpt lat="47.45029" lon="8.41922">
        <ele>419.7</ele>
        <time>2022-10-02T14:47:47Z</time>
      </trkpt>
      <trkpt lat="47.4503" lon="8.4193">
        <ele>419.8</ele>
        <time>2022-10-02T14:47:48Z</time>
      </trkpt>
      <trkpt lat="47.45031" lon="8.41935">
        <ele>419.8</ele>
        <time>2022-10-02T14:47:49Z</time>
      </trkpt>
      <trkpt lat="47.45031" lon="8.41942">
        <ele>419.8</ele>
        <time>2022-10-02T14:47:50Z</time>
      </trkpt>
      <trkpt lat="47.45032" lon="8.41949">
        <ele>419.8</ele>
        <time>2022-10-02T14:47:51Z</time>
      </trkpt>
      <trkpt lat="47.45032" lon="8.41955">
        <ele>419.9</ele>
        <time>2022-10-02T14:47:52Z</time>
      </trkpt>
      <trkpt lat="47.45031" lon="8.4196">
        <ele>419.9</ele>
        <time>2022-10-02T14:47:53Z</time>
      </trkpt>
      <trkpt lat="47.45028" lon="8.41966">
        <ele>419.9</ele>
        <time>2022-10-02T14:47:54Z</time>
      </trkpt>
      <trkpt lat="47.45027" lon="8.41971">
        <ele>419.9</ele>
        <time>2022-10-02T14:47:55Z</time>
      </trkpt>
      <trkpt lat="47.45026" lon="8.41977">
        <ele>419.9</ele>
        <time>2022-10-02T14:47:56Z</time>
      </trkpt>
      <trkpt lat="47.45026" lon="8.41983">
        <ele>419.9</ele>
        <time>2022-10-02T14:47:57Z</time>
      </trkpt>
      <trkpt lat="47.45026" lon="8.41989">
        <ele>419.9</ele>
        <time>2022-10-02T14:47:58Z</time>
      </trkpt>
      <trkpt lat="47.45027" lon="8.41995">
        <ele>420</ele>
        <time>2022-10-02T14:47:59Z</time>
      </trkpt>
      <trkpt lat="47.45028" lon="8.42001">
        <ele>420</ele>
        <time>2022-10-02T14:48:00Z</time>
      </trkpt>
      <trkpt lat="47.45028" lon="8.42006">
        <ele>420</ele>
        <time>2022-10-02T14:48:01Z</time>
      </trkpt>
      <trkpt lat="47.45029" lon="8.42012">
        <ele>420</ele>
        <time>2022-10-02T14:48:02Z</time>
      </trkpt>
      <trkpt lat="47.45029" lon="8.42018">
        <ele>420</ele>
        <time>2022-10-02T14:48:03Z</time>
      </trkpt>
      <trkpt lat="47.4503" lon="8.42023">
        <ele>420</ele>
        <time>2022-10-02T14:48:04Z</time>
      </trkpt>
      <trkpt lat="47.4503" lon="8.42028">
        <ele>420</ele>
        <time>2022-10-02T14:48:05Z</time>
      </trkpt>
      <trkpt lat="47.45031" lon="8.42034">
        <ele>420</ele>
        <time>2022-10-02T14:48:06Z</time>
      </trkpt>
      <trkpt lat="47.45031" lon="8.4204">
        <ele>420</ele>
        <time>2022-10-02T14:48:07Z</time>
      </trkpt>
      <trkpt lat="47.45032" lon="8.42047">
        <ele>420</ele>
        <time>2022-10-02T14:48:08Z</time>
      </trkpt>
      <trkpt lat="47.45033" lon="8.42053">
        <ele>420</ele>
        <time>2022-10-02T14:48:09Z</time>
      </trkpt>
      <trkpt lat="47.45034" lon="8.42059">
        <ele>420</ele>
        <time>2022-10-02T14:48:10Z</time>
      </trkpt>
      <trkpt lat="47.45036" lon="8.42064">
        <ele>420</ele>
        <time>2022-10-02T14:48:11Z</time>
      </trkpt>
      <trkpt lat="47.45037" lon="8.4207">
        <ele>420</ele>
        <time>2022-10-02T14:48:12Z</time>
      </trkpt>
      <trkpt lat="47.45039" lon="8.42076">
        <ele>420</ele>
        <time>2022-10-02T14:48:13Z</time>
      </trkpt>
      <trkpt lat="47.45041" lon="8.4208">
        <ele>420</ele>
        <time>2022-10-02T14:48:14Z</time>
      </trkpt>
      <trkpt lat="47.45042" lon="8.42085">
        <ele>420</ele>
        <time>2022-10-02T14:48:15Z</time>
      </trkpt>
      <trkpt lat="47.45043" lon="8.4209">
        <ele>420</ele>
        <time>2022-10-02T14:48:16Z</time>
      </trkpt>
      <trkpt lat="47.45043" lon="8.42095">
        <ele>420</ele>
        <time>2022-10-02T14:48:17Z</time>
      </trkpt>
      <trkpt lat="47.45044" lon="8.421">
        <ele>420</ele>
        <time>2022-10-02T14:48:18Z</time>
      </trkpt>
      <trkpt lat="47.45044" lon="8.42106">
        <ele>420</ele>
        <time>2022-10-02T14:48:19Z</time>
      </trkpt>
      <trkpt lat="47.45043" lon="8.42112">
        <ele>420</ele>
        <time>2022-10-02T14:48:20Z</time>
      </trkpt>
      <trkpt lat="47.45042" lon="8.42115">
        <ele>420.1</ele>
        <time>2022-10-02T14:48:21Z</time>
      </trkpt>
      <trkpt lat="47.45043" lon="8.42122">
        <ele>420.1</ele>
        <time>2022-10-02T14:48:22Z</time>
      </trkpt>
      <trkpt lat="47.45042" lon="8.42127">
        <ele>420.1</ele>
        <time>2022-10-02T14:48:23Z</time>
      </trkpt>
      <trkpt lat="47.45042" lon="8.42133">
        <ele>420.1</ele>
        <time>2022-10-02T14:48:24Z</time>
      </trkpt>
      <trkpt lat="47.45042" lon="8.4214">
        <ele>420.1</ele>
        <time>2022-10-02T14:48:25Z</time>
      </trkpt>
      <trkpt lat="47.45041" lon="8.42147">
        <ele>420.1</ele>
        <time>2022-10-02T14:48:26Z</time>
      </trkpt>
      <trkpt lat="47.45041" lon="8.42152">
        <ele>420.1</ele>
        <time>2022-10-02T14:48:27Z</time>
      </trkpt>
      <trkpt lat="47.45042" lon="8.42159">
        <ele>420.1</ele>
        <time>2022-10-02T14:48:28Z</time>
      </trkpt>
      <trkpt lat="47.45043" lon="8.42165">
        <ele>420.1</ele>
        <time>2022-10-02T14:48:29Z</time>
      </trkpt>
      <trkpt lat="47.45043" lon="8.42171">
        <ele>420.1</ele>
        <time>2022-10-02T14:48:30Z</time>
      </trkpt>
      <trkpt lat="47.45044" lon="8.42177">
        <ele>420.1</ele>
        <time>2022-10-02T14:48:31Z</time>
      </trkpt>
      <trkpt lat="47.45045" lon="8.42183">
        <ele>420.1</ele>
        <time>2022-10-02T14:48:32Z</time>
      </trkpt>
      <trkpt lat="47.45045" lon="8.42189">
        <ele>420.1</ele>
        <time>2022-10-02T14:48:33Z</time>
      </trkpt>
      <trkpt lat="47.45045" lon="8.42196">
        <ele>420.1</ele>
        <time>2022-10-02T14:48:34Z</time>
      </trkpt>
      <trkpt lat="47.45046" lon="8.42202">
        <ele>420.1</ele>
        <time>2022-10-02T14:48:35Z</time>
      </trkpt>
      <trkpt lat="47.45046" lon="8.42209">
        <ele>420.1</ele>
        <time>2022-10-02T14:48:36Z</time>
      </trkpt>
      <trkpt lat="47.45047" lon="8.42216">
        <ele>420.1</ele>
        <time>2022-10-02T14:48:37Z</time>
      </trkpt>
      <trkpt lat="47.45048" lon="8.42222">
        <ele>420.1</ele>
        <time>2022-10-02T14:48:38Z</time>
      </trkpt>
      <trkpt lat="47.45049" lon="8.42229">
        <ele>420.1</ele>
        <time>2022-10-02T14:48:39Z</time>
      </trkpt>
      <trkpt lat="47.45049" lon="8.42235">
        <ele>420.1</ele>
        <time>2022-10-02T14:48:40Z</time>
      </trkpt>
      <trkpt lat="47.4505" lon="8.42242">
        <ele>420.1</ele>
        <time>2022-10-02T14:48:41Z</time>
      </trkpt>
      <trkpt lat="47.4505" lon="8.42249">
        <ele>420.1</ele>
        <time>2022-10-02T14:48:42Z</time>
      </trkpt>
      <trkpt lat="47.45051" lon="8.42256">
        <ele>420.1</ele>
        <time>2022-10-02T14:48:43Z</time>
      </trkpt>
      <trkpt lat="47.45052" lon="8.42262">
        <ele>420.1</ele>
        <time>2022-10-02T14:48:44Z</time>
      </trkpt>
      <trkpt lat="47.45052" lon="8.42269">
        <ele>420.1</ele>
        <time>2022-10-02T14:48:45Z</time>
      </trkpt>
      <trkpt lat="47.45053" lon="8.42276">
        <ele>420.1</ele>
        <time>2022-10-02T14:48:46Z</time>
      </trkpt>
      <trkpt lat="47.45053" lon="8.42283">
        <ele>420.1</ele>
        <time>2022-10-02T14:48:47Z</time>
      </trkpt>
      <trkpt lat="47.45053" lon="8.4229">
        <ele>420.1</ele>
        <time>2022-10-02T14:48:48Z</time>
      </trkpt>
      <trkpt lat="47.45054" lon="8.42296">
        <ele>420.1</ele>
        <time>2022-10-02T14:48:49Z</time>
      </trkpt>
      <trkpt lat="47.45055" lon="8.42303">
        <ele>420.2</ele>
        <time>2022-10-02T14:48:50Z</time>
      </trkpt>
      <trkpt lat="47.45056" lon="8.4231">
        <ele>420.2</ele>
        <time>2022-10-02T14:48:51Z</time>
      </trkpt>
      <trkpt lat="47.45057" lon="8.42316">
        <ele>420.2</ele>
        <time>2022-10-02T14:48:52Z</time>
      </trkpt>
      <trkpt lat="47.45058" lon="8.42323">
        <ele>420.2</ele>
        <time>2022-10-02T14:48:53Z</time>
      </trkpt>
      <trkpt lat="47.45059" lon="8.42329">
        <ele>420.2</ele>
        <time>2022-10-02T14:48:54Z</time>
      </trkpt>
      <trkpt lat="47.45059" lon="8.42335">
        <ele>420.2</ele>
        <time>2022-10-02T14:48:55Z</time>
      </trkpt>
      <trkpt lat="47.4506" lon="8.42342">
        <ele>420.2</ele>
        <time>2022-10-02T14:48:56Z</time>
      </trkpt>
      <trkpt lat="47.4506" lon="8.42349">
        <ele>420.3</ele>
        <time>2022-10-02T14:48:57Z</time>
      </trkpt>
      <trkpt lat="47.45061" lon="8.42356">
        <ele>420.3</ele>
        <time>2022-10-02T14:48:58Z</time>
      </trkpt>
      <trkpt lat="47.45061" lon="8.42363">
        <ele>420.3</ele>
        <time>2022-10-02T14:48:59Z</time>
      </trkpt>
      <trkpt lat="47.45061" lon="8.4237">
        <ele>420.3</ele>
        <time>2022-10-02T14:49:00Z</time>
      </trkpt>
      <trkpt lat="47.45062" lon="8.42376">
        <ele>420.3</ele>
        <time>2022-10-02T14:49:01Z</time>
      </trkpt>
      <trkpt lat="47.45062" lon="8.42382">
        <ele>420.3</ele>
        <time>2022-10-02T14:49:02Z</time>
      </trkpt>
      <trkpt lat="47.45063" lon="8.42389">
        <ele>420.4</ele>
        <time>2022-10-02T14:49:03Z</time>
      </trkpt>
      <trkpt lat="47.45064" lon="8.42395">
        <ele>420.4</ele>
        <time>2022-10-02T14:49:04Z</time>
      </trkpt>
      <trkpt lat="47.45064" lon="8.42402">
        <ele>420.4</ele>
        <time>2022-10-02T14:49:05Z</time>
      </trkpt>
      <trkpt lat="47.45065" lon="8.42409">
        <ele>420.4</ele>
        <time>2022-10-02T14:49:06Z</time>
      </trkpt>
      <trkpt lat="47.45065" lon="8.42415">
        <ele>420.5</ele>
        <time>2022-10-02T14:49:07Z</time>
      </trkpt>
      <trkpt lat="47.45067" lon="8.42422">
        <ele>420.5</ele>
        <time>2022-10-02T14:49:08Z</time>
      </trkpt>
      <trkpt lat="47.45068" lon="8.42427">
        <ele>420.5</ele>
        <time>2022-10-02T14:49:09Z</time>
      </trkpt>
      <trkpt lat="47.45068" lon="8.42431">
        <ele>420.5</ele>
        <time>2022-10-02T14:49:10Z</time>
      </trkpt>
      <trkpt lat="47.45068" lon="8.42438">
        <ele>420.5</ele>
        <time>2022-10-02T14:49:11Z</time>
      </trkpt>
      <trkpt lat="47.45069" lon="8.42445">
        <ele>420.5</ele>
        <time>2022-10-02T14:49:12Z</time>
      </trkpt>
      <trkpt lat="47.4507" lon="8.42451">
        <ele>420.5</ele>
        <time>2022-10-02T14:49:13Z</time>
      </trkpt>
      <trkpt lat="47.45071" lon="8.42458">
        <ele>420.5</ele>
        <time>2022-10-02T14:49:14Z</time>
      </trkpt>
      <trkpt lat="47.45071" lon="8.42464">
        <ele>420.5</ele>
        <time>2022-10-02T14:49:15Z</time>
      </trkpt>
      <trkpt lat="47.45072" lon="8.4247">
        <ele>420.5</ele>
        <time>2022-10-02T14:49:16Z</time>
      </trkpt>
      <trkpt lat="47.45072" lon="8.42477">
        <ele>420.5</ele>
        <time>2022-10-02T14:49:17Z</time>
      </trkpt>
      <trkpt lat="47.45072" lon="8.42483">
        <ele>420.5</ele>
        <time>2022-10-02T14:49:18Z</time>
      </trkpt>
      <trkpt lat="47.45072" lon="8.42488">
        <ele>420.5</ele>
        <time>2022-10-02T14:49:19Z</time>
      </trkpt>
      <trkpt lat="47.45072" lon="8.42493">
        <ele>420.5</ele>
        <time>2022-10-02T14:49:21Z</time>
      </trkpt>
      <trkpt lat="47.45073" lon="8.42498">
        <ele>420.5</ele>
        <time>2022-10-02T14:49:22Z</time>
      </trkpt>
      <trkpt lat="47.45073" lon="8.42504">
        <ele>420.5</ele>
        <time>2022-10-02T14:49:23Z</time>
      </trkpt>
      <trkpt lat="47.45073" lon="8.42509">
        <ele>420.5</ele>
        <time>2022-10-02T14:49:24Z</time>
      </trkpt>
      <trkpt lat="47.45074" lon="8.42515">
        <ele>420.5</ele>
        <time>2022-10-02T14:49:25Z</time>
      </trkpt>
      <trkpt lat="47.45075" lon="8.42527">
        <ele>420.5</ele>
        <time>2022-10-02T14:49:26Z</time>
      </trkpt>
      <trkpt lat="47.45076" lon="8.42533">
        <ele>420.5</ele>
        <time>2022-10-02T14:49:27Z</time>
      </trkpt>
      <trkpt lat="47.45078" lon="8.42538">
        <ele>420.5</ele>
        <time>2022-10-02T14:49:28Z</time>
      </trkpt>
      <trkpt lat="47.4508" lon="8.42543">
        <ele>420.5</ele>
        <time>2022-10-02T14:49:29Z</time>
      </trkpt>
      <trkpt lat="47.45082" lon="8.42548">
        <ele>420.4</ele>
        <time>2022-10-02T14:49:31Z</time>
      </trkpt>
      <trkpt lat="47.45086" lon="8.42559">
        <ele>420.4</ele>
        <time>2022-10-02T14:49:32Z</time>
      </trkpt>
      <trkpt lat="47.45088" lon="8.42564">
        <ele>420.4</ele>
        <time>2022-10-02T14:49:33Z</time>
      </trkpt>
      <trkpt lat="47.45089" lon="8.4257">
        <ele>420.4</ele>
        <time>2022-10-02T14:49:34Z</time>
      </trkpt>
      <trkpt lat="47.4509" lon="8.42577">
        <ele>420.4</ele>
        <time>2022-10-02T14:49:35Z</time>
      </trkpt>
      <trkpt lat="47.4509" lon="8.42583">
        <ele>420.4</ele>
        <time>2022-10-02T14:49:36Z</time>
      </trkpt>
      <trkpt lat="47.45091" lon="8.4259">
        <ele>420.4</ele>
        <time>2022-10-02T14:49:37Z</time>
      </trkpt>
      <trkpt lat="47.45091" lon="8.42597">
        <ele>420.4</ele>
        <time>2022-10-02T14:49:38Z</time>
      </trkpt>
      <trkpt lat="47.45092" lon="8.42602">
        <ele>420.4</ele>
        <time>2022-10-02T14:49:39Z</time>
      </trkpt>
      <trkpt lat="47.45092" lon="8.42609">
        <ele>420.4</ele>
        <time>2022-10-02T14:49:40Z</time>
      </trkpt>
      <trkpt lat="47.45093" lon="8.42617">
        <ele>420.4</ele>
        <time>2022-10-02T14:49:41Z</time>
      </trkpt>
      <trkpt lat="47.45094" lon="8.42624">
        <ele>420.4</ele>
        <time>2022-10-02T14:49:42Z</time>
      </trkpt>
      <trkpt lat="47.45094" lon="8.42628">
        <ele>420.4</ele>
        <time>2022-10-02T14:49:43Z</time>
      </trkpt>
      <trkpt lat="47.45095" lon="8.42636">
        <ele>420.4</ele>
        <time>2022-10-02T14:49:44Z</time>
      </trkpt>
      <trkpt lat="47.45096" lon="8.42643">
        <ele>420.4</ele>
        <time>2022-10-02T14:49:45Z</time>
      </trkpt>
      <trkpt lat="47.45096" lon="8.4265">
        <ele>420.4</ele>
        <time>2022-10-02T14:49:46Z</time>
      </trkpt>
      <trkpt lat="47.45097" lon="8.42657">
        <ele>420.5</ele>
        <time>2022-10-02T14:49:47Z</time>
      </trkpt>
      <trkpt lat="47.45098" lon="8.42664">
        <ele>420.5</ele>
        <time>2022-10-02T14:49:48Z</time>
      </trkpt>
      <trkpt lat="47.45098" lon="8.42672">
        <ele>420.5</ele>
        <time>2022-10-02T14:49:49Z</time>
      </trkpt>
      <trkpt lat="47.451" lon="8.42679">
        <ele>420.5</ele>
        <time>2022-10-02T14:49:50Z</time>
      </trkpt>
      <trkpt lat="47.451" lon="8.42686">
        <ele>420.6</ele>
        <time>2022-10-02T14:49:51Z</time>
      </trkpt>
      <trkpt lat="47.451" lon="8.42693">
        <ele>420.6</ele>
        <time>2022-10-02T14:49:52Z</time>
      </trkpt>
      <trkpt lat="47.45101" lon="8.42699">
        <ele>420.6</ele>
        <time>2022-10-02T14:49:53Z</time>
      </trkpt>
      <trkpt lat="47.45101" lon="8.42706">
        <ele>420.6</ele>
        <time>2022-10-02T14:49:54Z</time>
      </trkpt>
      <trkpt lat="47.45102" lon="8.42713">
        <ele>420.6</ele>
        <time>2022-10-02T14:49:55Z</time>
      </trkpt>
      <trkpt lat="47.45103" lon="8.4272">
        <ele>420.6</ele>
        <time>2022-10-02T14:49:56Z</time>
      </trkpt>
      <trkpt lat="47.45104" lon="8.42728">
        <ele>420.7</ele>
        <time>2022-10-02T14:49:57Z</time>
      </trkpt>
      <trkpt lat="47.45104" lon="8.42735">
        <ele>420.7</ele>
        <time>2022-10-02T14:49:58Z</time>
      </trkpt>
      <trkpt lat="47.45105" lon="8.42742">
        <ele>420.7</ele>
        <time>2022-10-02T14:49:59Z</time>
      </trkpt>
      <trkpt lat="47.45105" lon="8.42749">
        <ele>420.7</ele>
        <time>2022-10-02T14:50:00Z</time>
      </trkpt>
      <trkpt lat="47.45106" lon="8.42755">
        <ele>420.7</ele>
        <time>2022-10-02T14:50:01Z</time>
      </trkpt>
      <trkpt lat="47.45107" lon="8.42762">
        <ele>420.8</ele>
        <time>2022-10-02T14:50:02Z</time>
      </trkpt>
      <trkpt lat="47.45107" lon="8.42769">
        <ele>420.8</ele>
        <time>2022-10-02T14:50:03Z</time>
      </trkpt>
      <trkpt lat="47.45108" lon="8.42777">
        <ele>420.8</ele>
        <time>2022-10-02T14:50:04Z</time>
      </trkpt>
      <trkpt lat="47.45109" lon="8.42783">
        <ele>420.9</ele>
        <time>2022-10-02T14:50:05Z</time>
      </trkpt>
      <trkpt lat="47.4511" lon="8.4279">
        <ele>420.9</ele>
        <time>2022-10-02T14:50:06Z</time>
      </trkpt>
      <trkpt lat="47.4511" lon="8.42798">
        <ele>420.9</ele>
        <time>2022-10-02T14:50:07Z</time>
      </trkpt>
      <trkpt lat="47.45111" lon="8.42804">
        <ele>421</ele>
        <time>2022-10-02T14:50:08Z</time>
      </trkpt>
      <trkpt lat="47.45111" lon="8.42811">
        <ele>421</ele>
        <time>2022-10-02T14:50:09Z</time>
      </trkpt>
      <trkpt lat="47.45112" lon="8.42818">
        <ele>421</ele>
        <time>2022-10-02T14:50:10Z</time>
      </trkpt>
      <trkpt lat="47.45113" lon="8.42824">
        <ele>421.1</ele>
        <time>2022-10-02T14:50:11Z</time>
      </trkpt>
      <trkpt lat="47.45114" lon="8.4283">
        <ele>421.1</ele>
        <time>2022-10-02T14:50:12Z</time>
      </trkpt>
      <trkpt lat="47.45114" lon="8.42837">
        <ele>421.2</ele>
        <time>2022-10-02T14:50:13Z</time>
      </trkpt>
      <trkpt lat="47.45115" lon="8.42843">
        <ele>421.2</ele>
        <time>2022-10-02T14:50:14Z</time>
      </trkpt>
      <trkpt lat="47.45115" lon="8.4285">
        <ele>421.2</ele>
        <time>2022-10-02T14:50:15Z</time>
      </trkpt>
      <trkpt lat="47.45116" lon="8.42856">
        <ele>421.3</ele>
        <time>2022-10-02T14:50:16Z</time>
      </trkpt>
      <trkpt lat="47.45117" lon="8.42862">
        <ele>421.3</ele>
        <time>2022-10-02T14:50:17Z</time>
      </trkpt>
      <trkpt lat="47.45117" lon="8.42869">
        <ele>421.4</ele>
        <time>2022-10-02T14:50:18Z</time>
      </trkpt>
      <trkpt lat="47.45118" lon="8.42875">
        <ele>421.4</ele>
        <time>2022-10-02T14:50:19Z</time>
      </trkpt>
      <trkpt lat="47.45118" lon="8.42881">
        <ele>421.4</ele>
        <time>2022-10-02T14:50:20Z</time>
      </trkpt>
      <trkpt lat="47.45119" lon="8.42888">
        <ele>421.4</ele>
        <time>2022-10-02T14:50:21Z</time>
      </trkpt>
      <trkpt lat="47.4512" lon="8.42894">
        <ele>421.4</ele>
        <time>2022-10-02T14:50:22Z</time>
      </trkpt>
      <trkpt lat="47.45119" lon="8.42897">
        <ele>421.5</ele>
        <time>2022-10-02T14:50:23Z</time>
      </trkpt>
      <trkpt lat="47.4512" lon="8.42904">
        <ele>421.5</ele>
        <time>2022-10-02T14:50:24Z</time>
      </trkpt>
      <trkpt lat="47.45119" lon="8.42912">
        <ele>421.5</ele>
        <time>2022-10-02T14:50:25Z</time>
      </trkpt>
      <trkpt lat="47.45118" lon="8.42918">
        <ele>421.5</ele>
        <time>2022-10-02T14:50:26Z</time>
      </trkpt>
      <trkpt lat="47.45118" lon="8.42924">
        <ele>421.5</ele>
        <time>2022-10-02T14:50:27Z</time>
      </trkpt>
      <trkpt lat="47.45117" lon="8.42931">
        <ele>421.6</ele>
        <time>2022-10-02T14:50:28Z</time>
      </trkpt>
      <trkpt lat="47.45117" lon="8.42938">
        <ele>421.6</ele>
        <time>2022-10-02T14:50:29Z</time>
      </trkpt>
      <trkpt lat="47.45117" lon="8.42944">
        <ele>421.6</ele>
        <time>2022-10-02T14:50:30Z</time>
      </trkpt>
      <trkpt lat="47.45118" lon="8.42952">
        <ele>421.7</ele>
        <time>2022-10-02T14:50:31Z</time>
      </trkpt>
      <trkpt lat="47.45118" lon="8.4296">
        <ele>421.7</ele>
        <time>2022-10-02T14:50:32Z</time>
      </trkpt>
      <trkpt lat="47.45118" lon="8.42967">
        <ele>421.7</ele>
        <time>2022-10-02T14:50:33Z</time>
      </trkpt>
      <trkpt lat="47.45118" lon="8.42974">
        <ele>421.8</ele>
        <time>2022-10-02T14:50:34Z</time>
      </trkpt>
      <trkpt lat="47.45119" lon="8.4298">
        <ele>421.8</ele>
        <time>2022-10-02T14:50:35Z</time>
      </trkpt>
      <trkpt lat="47.4512" lon="8.42988">
        <ele>421.8</ele>
        <time>2022-10-02T14:50:36Z</time>
      </trkpt>
      <trkpt lat="47.4512" lon="8.42996">
        <ele>421.9</ele>
        <time>2022-10-02T14:50:37Z</time>
      </trkpt>
      <trkpt lat="47.4512" lon="8.43002">
        <ele>421.9</ele>
        <time>2022-10-02T14:50:38Z</time>
      </trkpt>
      <trkpt lat="47.45121" lon="8.43009">
        <ele>421.9</ele>
        <time>2022-10-02T14:50:39Z</time>
      </trkpt>
      <trkpt lat="47.45122" lon="8.43016">
        <ele>422</ele>
        <time>2022-10-02T14:50:40Z</time>
      </trkpt>
      <trkpt lat="47.45122" lon="8.43023">
        <ele>422</ele>
        <time>2022-10-02T14:50:41Z</time>
      </trkpt>
      <trkpt lat="47.45124" lon="8.4303">
        <ele>422</ele>
        <time>2022-10-02T14:50:42Z</time>
      </trkpt>
      <trkpt lat="47.45125" lon="8.43037">
        <ele>422</ele>
        <time>2022-10-02T14:50:43Z</time>
      </trkpt>
      <trkpt lat="47.45126" lon="8.43044">
        <ele>422.1</ele>
        <time>2022-10-02T14:50:44Z</time>
      </trkpt>
      <trkpt lat="47.45127" lon="8.4305">
        <ele>422.1</ele>
        <time>2022-10-02T14:50:45Z</time>
      </trkpt>
      <trkpt lat="47.45128" lon="8.43056">
        <ele>422.1</ele>
        <time>2022-10-02T14:50:46Z</time>
      </trkpt>
      <trkpt lat="47.45129" lon="8.43064">
        <ele>422.1</ele>
        <time>2022-10-02T14:50:47Z</time>
      </trkpt>
      <trkpt lat="47.4513" lon="8.4307">
        <ele>422.1</ele>
        <time>2022-10-02T14:50:48Z</time>
      </trkpt>
      <trkpt lat="47.45131" lon="8.43077">
        <ele>422.2</ele>
        <time>2022-10-02T14:50:49Z</time>
      </trkpt>
      <trkpt lat="47.45131" lon="8.43085">
        <ele>422.2</ele>
        <time>2022-10-02T14:50:50Z</time>
      </trkpt>
      <trkpt lat="47.45132" lon="8.43092">
        <ele>422.2</ele>
        <time>2022-10-02T14:50:51Z</time>
      </trkpt>
      <trkpt lat="47.45133" lon="8.43099">
        <ele>422.3</ele>
        <time>2022-10-02T14:50:52Z</time>
      </trkpt>
      <trkpt lat="47.45133" lon="8.43108">
        <ele>422.3</ele>
        <time>2022-10-02T14:50:53Z</time>
      </trkpt>
      <trkpt lat="47.45134" lon="8.43115">
        <ele>422.3</ele>
        <time>2022-10-02T14:50:54Z</time>
      </trkpt>
      <trkpt lat="47.45135" lon="8.43121">
        <ele>422.3</ele>
        <time>2022-10-02T14:50:55Z</time>
      </trkpt>
      <trkpt lat="47.45136" lon="8.43128">
        <ele>422.4</ele>
        <time>2022-10-02T14:50:56Z</time>
      </trkpt>
      <trkpt lat="47.45137" lon="8.43135">
        <ele>422.4</ele>
        <time>2022-10-02T14:50:57Z</time>
      </trkpt>
      <trkpt lat="47.45137" lon="8.43142">
        <ele>422.4</ele>
        <time>2022-10-02T14:50:58Z</time>
      </trkpt>
      <trkpt lat="47.45138" lon="8.4315">
        <ele>422.5</ele>
        <time>2022-10-02T14:50:59Z</time>
      </trkpt>
      <trkpt lat="47.45138" lon="8.43158">
        <ele>422.5</ele>
        <time>2022-10-02T14:51:00Z</time>
      </trkpt>
      <trkpt lat="47.4514" lon="8.43165">
        <ele>422.5</ele>
        <time>2022-10-02T14:51:01Z</time>
      </trkpt>
      <trkpt lat="47.4514" lon="8.43171">
        <ele>422.5</ele>
        <time>2022-10-02T14:51:02Z</time>
      </trkpt>
      <trkpt lat="47.45141" lon="8.43178">
        <ele>422.5</ele>
        <time>2022-10-02T14:51:03Z</time>
      </trkpt>
      <trkpt lat="47.45142" lon="8.43184">
        <ele>422.6</ele>
        <time>2022-10-02T14:51:04Z</time>
      </trkpt>
      <trkpt lat="47.45144" lon="8.43191">
        <ele>422.6</ele>
        <time>2022-10-02T14:51:05Z</time>
      </trkpt>
      <trkpt lat="47.45145" lon="8.43198">
        <ele>422.6</ele>
        <time>2022-10-02T14:51:06Z</time>
      </trkpt>
      <trkpt lat="47.45145" lon="8.43204">
        <ele>422.7</ele>
        <time>2022-10-02T14:51:07Z</time>
      </trkpt>
      <trkpt lat="47.45146" lon="8.43212">
        <ele>422.7</ele>
        <time>2022-10-02T14:51:08Z</time>
      </trkpt>
      <trkpt lat="47.45146" lon="8.43218">
        <ele>422.7</ele>
        <time>2022-10-02T14:51:09Z</time>
      </trkpt>
      <trkpt lat="47.45147" lon="8.43225">
        <ele>422.7</ele>
        <time>2022-10-02T14:51:10Z</time>
      </trkpt>
      <trkpt lat="47.45148" lon="8.43231">
        <ele>422.8</ele>
        <time>2022-10-02T14:51:11Z</time>
      </trkpt>
      <trkpt lat="47.45149" lon="8.43238">
        <ele>422.8</ele>
        <time>2022-10-02T14:51:12Z</time>
      </trkpt>
      <trkpt lat="47.45149" lon="8.43245">
        <ele>422.8</ele>
        <time>2022-10-02T14:51:13Z</time>
      </trkpt>
      <trkpt lat="47.4515" lon="8.43251">
        <ele>422.8</ele>
        <time>2022-10-02T14:51:14Z</time>
      </trkpt>
      <trkpt lat="47.45151" lon="8.43259">
        <ele>422.8</ele>
        <time>2022-10-02T14:51:15Z</time>
      </trkpt>
      <trkpt lat="47.45152" lon="8.43265">
        <ele>422.8</ele>
        <time>2022-10-02T14:51:16Z</time>
      </trkpt>
      <trkpt lat="47.45152" lon="8.43271">
        <ele>422.8</ele>
        <time>2022-10-02T14:51:17Z</time>
      </trkpt>
      <trkpt lat="47.45153" lon="8.43278">
        <ele>422.8</ele>
        <time>2022-10-02T14:51:18Z</time>
      </trkpt>
      <trkpt lat="47.45153" lon="8.43284">
        <ele>422.8</ele>
        <time>2022-10-02T14:51:19Z</time>
      </trkpt>
      <trkpt lat="47.45154" lon="8.43289">
        <ele>422.9</ele>
        <time>2022-10-02T14:51:20Z</time>
      </trkpt>
      <trkpt lat="47.45154" lon="8.43295">
        <ele>422.9</ele>
        <time>2022-10-02T14:51:21Z</time>
      </trkpt>
      <trkpt lat="47.45155" lon="8.433">
        <ele>422.9</ele>
        <time>2022-10-02T14:51:22Z</time>
      </trkpt>
      <trkpt lat="47.45155" lon="8.43306">
        <ele>422.9</ele>
        <time>2022-10-02T14:51:23Z</time>
      </trkpt>
      <trkpt lat="47.45155" lon="8.43312">
        <ele>422.9</ele>
        <time>2022-10-02T14:51:24Z</time>
      </trkpt>
      <trkpt lat="47.45156" lon="8.43319">
        <ele>423</ele>
        <time>2022-10-02T14:51:25Z</time>
      </trkpt>
      <trkpt lat="47.45157" lon="8.43325">
        <ele>423</ele>
        <time>2022-10-02T14:51:27Z</time>
      </trkpt>
      <trkpt lat="47.45157" lon="8.43331">
        <ele>423.1</ele>
        <time>2022-10-02T14:51:28Z</time>
      </trkpt>
      <trkpt lat="47.45158" lon="8.43337">
        <ele>423.1</ele>
        <time>2022-10-02T14:51:29Z</time>
      </trkpt>
      <trkpt lat="47.45159" lon="8.43343">
        <ele>423.1</ele>
        <time>2022-10-02T14:51:30Z</time>
      </trkpt>
      <trkpt lat="47.4516" lon="8.43351">
        <ele>423.2</ele>
        <time>2022-10-02T14:51:31Z</time>
      </trkpt>
      <trkpt lat="47.45161" lon="8.43357">
        <ele>423.2</ele>
        <time>2022-10-02T14:51:32Z</time>
      </trkpt>
      <trkpt lat="47.45163" lon="8.43362">
        <ele>423.2</ele>
        <time>2022-10-02T14:51:33Z</time>
      </trkpt>
      <trkpt lat="47.45163" lon="8.43375">
        <ele>423.2</ele>
        <time>2022-10-02T14:51:34Z</time>
      </trkpt>
      <trkpt lat="47.45164" lon="8.43382">
        <ele>423.2</ele>
        <time>2022-10-02T14:51:35Z</time>
      </trkpt>
      <trkpt lat="47.45165" lon="8.43388">
        <ele>423.2</ele>
        <time>2022-10-02T14:51:36Z</time>
      </trkpt>
      <trkpt lat="47.45166" lon="8.43394">
        <ele>423.3</ele>
        <time>2022-10-02T14:51:37Z</time>
      </trkpt>
      <trkpt lat="47.45166" lon="8.43399">
        <ele>423.3</ele>
        <time>2022-10-02T14:51:38Z</time>
      </trkpt>
      <trkpt lat="47.45168" lon="8.43407">
        <ele>423.3</ele>
        <time>2022-10-02T14:51:39Z</time>
      </trkpt>
      <trkpt lat="47.45168" lon="8.43415">
        <ele>423.3</ele>
        <time>2022-10-02T14:51:41Z</time>
      </trkpt>
      <trkpt lat="47.4517" lon="8.43422">
        <ele>423.3</ele>
        <time>2022-10-02T14:51:42Z</time>
      </trkpt>
      <trkpt lat="47.45171" lon="8.43429">
        <ele>423.3</ele>
        <time>2022-10-02T14:51:43Z</time>
      </trkpt>
      <trkpt lat="47.45171" lon="8.43435">
        <ele>423.3</ele>
        <time>2022-10-02T14:51:44Z</time>
      </trkpt>
      <trkpt lat="47.45172" lon="8.43442">
        <ele>423.4</ele>
        <time>2022-10-02T14:51:45Z</time>
      </trkpt>
      <trkpt lat="47.45173" lon="8.43448">
        <ele>423.4</ele>
        <time>2022-10-02T14:51:46Z</time>
      </trkpt>
      <trkpt lat="47.45173" lon="8.43454">
        <ele>423.4</ele>
        <time>2022-10-02T14:51:47Z</time>
      </trkpt>
      <trkpt lat="47.45174" lon="8.43459">
        <ele>423.4</ele>
        <time>2022-10-02T14:51:48Z</time>
      </trkpt>
      <trkpt lat="47.45175" lon="8.43466">
        <ele>423.4</ele>
        <time>2022-10-02T14:51:49Z</time>
      </trkpt>
      <trkpt lat="47.45175" lon="8.43474">
        <ele>423.5</ele>
        <time>2022-10-02T14:51:50Z</time>
      </trkpt>
      <trkpt lat="47.45177" lon="8.43481">
        <ele>423.5</ele>
        <time>2022-10-02T14:51:51Z</time>
      </trkpt>
      <trkpt lat="47.45177" lon="8.43488">
        <ele>423.5</ele>
        <time>2022-10-02T14:51:52Z</time>
      </trkpt>
      <trkpt lat="47.45178" lon="8.43494">
        <ele>423.6</ele>
        <time>2022-10-02T14:51:53Z</time>
      </trkpt>
      <trkpt lat="47.45179" lon="8.43501">
        <ele>423.6</ele>
        <time>2022-10-02T14:51:54Z</time>
      </trkpt>
      <trkpt lat="47.45179" lon="8.43508">
        <ele>423.6</ele>
        <time>2022-10-02T14:51:55Z</time>
      </trkpt>
      <trkpt lat="47.4518" lon="8.43516">
        <ele>423.7</ele>
        <time>2022-10-02T14:51:56Z</time>
      </trkpt>
      <trkpt lat="47.45181" lon="8.43524">
        <ele>423.7</ele>
        <time>2022-10-02T14:51:57Z</time>
      </trkpt>
      <trkpt lat="47.45181" lon="8.43531">
        <ele>423.7</ele>
        <time>2022-10-02T14:51:58Z</time>
      </trkpt>
      <trkpt lat="47.45182" lon="8.43545">
        <ele>423.8</ele>
        <time>2022-10-02T14:51:59Z</time>
      </trkpt>
      <trkpt lat="47.45182" lon="8.4355">
        <ele>423.8</ele>
        <time>2022-10-02T14:52:00Z</time>
      </trkpt>
      <trkpt lat="47.45183" lon="8.43557">
        <ele>423.8</ele>
        <time>2022-10-02T14:52:01Z</time>
      </trkpt>
      <trkpt lat="47.45183" lon="8.43563">
        <ele>423.8</ele>
        <time>2022-10-02T14:52:02Z</time>
      </trkpt>
      <trkpt lat="47.45183" lon="8.4357">
        <ele>423.9</ele>
        <time>2022-10-02T14:52:03Z</time>
      </trkpt>
      <trkpt lat="47.45183" lon="8.43576">
        <ele>423.9</ele>
        <time>2022-10-02T14:52:04Z</time>
      </trkpt>
      <trkpt lat="47.45184" lon="8.43583">
        <ele>423.9</ele>
        <time>2022-10-02T14:52:05Z</time>
      </trkpt>
      <trkpt lat="47.45185" lon="8.43588">
        <ele>424</ele>
        <time>2022-10-02T14:52:06Z</time>
      </trkpt>
      <trkpt lat="47.45187" lon="8.43594">
        <ele>424</ele>
        <time>2022-10-02T14:52:07Z</time>
      </trkpt>
      <trkpt lat="47.4519" lon="8.43598">
        <ele>424</ele>
        <time>2022-10-02T14:52:08Z</time>
      </trkpt>
      <trkpt lat="47.45193" lon="8.43602">
        <ele>423.9</ele>
        <time>2022-10-02T14:52:09Z</time>
      </trkpt>
      <trkpt lat="47.45195" lon="8.43605">
        <ele>423.9</ele>
        <time>2022-10-02T14:52:10Z</time>
      </trkpt>
      <trkpt lat="47.45198" lon="8.43608">
        <ele>423.9</ele>
        <time>2022-10-02T14:52:11Z</time>
      </trkpt>
      <trkpt lat="47.45201" lon="8.43611">
        <ele>423.9</ele>
        <time>2022-10-02T14:52:12Z</time>
      </trkpt>
      <trkpt lat="47.45202" lon="8.43615">
        <ele>423.8</ele>
        <time>2022-10-02T14:52:13Z</time>
      </trkpt>
      <trkpt lat="47.45202" lon="8.43617">
        <ele>423.8</ele>
        <time>2022-10-02T14:52:14Z</time>
      </trkpt>
      <trkpt lat="47.45201" lon="8.43621">
        <ele>423.7</ele>
        <time>2022-10-02T14:52:15Z</time>
      </trkpt>
      <trkpt lat="47.452" lon="8.43623">
        <ele>423.7</ele>
        <time>2022-10-02T14:52:16Z</time>
      </trkpt>
      <trkpt lat="47.45199" lon="8.43627">
        <ele>423.6</ele>
        <time>2022-10-02T14:52:17Z</time>
      </trkpt>
      <trkpt lat="47.45198" lon="8.43632">
        <ele>423.5</ele>
        <time>2022-10-02T14:52:18Z</time>
      </trkpt>
      <trkpt lat="47.45197" lon="8.43638">
        <ele>423.5</ele>
        <time>2022-10-02T14:52:19Z</time>
      </trkpt>
      <trkpt lat="47.45196" lon="8.43644">
        <ele>423.4</ele>
        <time>2022-10-02T14:52:20Z</time>
      </trkpt>
      <trkpt lat="47.45196" lon="8.43651">
        <ele>423.3</ele>
        <time>2022-10-02T14:52:21Z</time>
      </trkpt>
      <trkpt lat="47.45195" lon="8.43657">
        <ele>423.3</ele>
        <time>2022-10-02T14:52:22Z</time>
      </trkpt>
      <trkpt lat="47.45194" lon="8.43665">
        <ele>423.3</ele>
        <time>2022-10-02T14:52:23Z</time>
      </trkpt>
      <trkpt lat="47.45193" lon="8.4367">
        <ele>423.3</ele>
        <time>2022-10-02T14:52:24Z</time>
      </trkpt>
      <trkpt lat="47.45193" lon="8.43677">
        <ele>423.3</ele>
        <time>2022-10-02T14:52:25Z</time>
      </trkpt>
      <trkpt lat="47.45193" lon="8.43683">
        <ele>423.4</ele>
        <time>2022-10-02T14:52:26Z</time>
      </trkpt>
      <trkpt lat="47.45192" lon="8.4369">
        <ele>423.4</ele>
        <time>2022-10-02T14:52:27Z</time>
      </trkpt>
      <trkpt lat="47.45191" lon="8.43698">
        <ele>423.4</ele>
        <time>2022-10-02T14:52:28Z</time>
      </trkpt>
      <trkpt lat="47.45189" lon="8.43704">
        <ele>423.5</ele>
        <time>2022-10-02T14:52:29Z</time>
      </trkpt>
      <trkpt lat="47.45187" lon="8.4371">
        <ele>423.5</ele>
        <time>2022-10-02T14:52:30Z</time>
      </trkpt>
      <trkpt lat="47.45186" lon="8.43717">
        <ele>423.5</ele>
        <time>2022-10-02T14:52:31Z</time>
      </trkpt>
      <trkpt lat="47.45185" lon="8.43724">
        <ele>423.6</ele>
        <time>2022-10-02T14:52:32Z</time>
      </trkpt>
      <trkpt lat="47.45184" lon="8.43731">
        <ele>423.7</ele>
        <time>2022-10-02T14:52:33Z</time>
      </trkpt>
      <trkpt lat="47.45183" lon="8.43736">
        <ele>423.7</ele>
        <time>2022-10-02T14:52:34Z</time>
      </trkpt>
      <trkpt lat="47.45182" lon="8.4374">
        <ele>423.8</ele>
        <time>2022-10-02T14:52:35Z</time>
      </trkpt>
      <trkpt lat="47.4518" lon="8.43749">
        <ele>423.9</ele>
        <time>2022-10-02T14:52:36Z</time>
      </trkpt>
      <trkpt lat="47.45179" lon="8.43757">
        <ele>424</ele>
        <time>2022-10-02T14:52:37Z</time>
      </trkpt>
      <trkpt lat="47.45177" lon="8.43763">
        <ele>424.1</ele>
        <time>2022-10-02T14:52:38Z</time>
      </trkpt>
      <trkpt lat="47.45177" lon="8.43769">
        <ele>424.2</ele>
        <time>2022-10-02T14:52:39Z</time>
      </trkpt>
      <trkpt lat="47.45176" lon="8.43773">
        <ele>424.3</ele>
        <time>2022-10-02T14:52:40Z</time>
      </trkpt>
      <trkpt lat="47.45175" lon="8.43779">
        <ele>424.4</ele>
        <time>2022-10-02T14:52:41Z</time>
      </trkpt>
      <trkpt lat="47.45173" lon="8.43782">
        <ele>424.5</ele>
        <time>2022-10-02T14:52:42Z</time>
      </trkpt>
      <trkpt lat="47.45171" lon="8.43785">
        <ele>424.6</ele>
        <time>2022-10-02T14:52:43Z</time>
      </trkpt>
      <trkpt lat="47.45169" lon="8.43787">
        <ele>424.7</ele>
        <time>2022-10-02T14:52:44Z</time>
      </trkpt>
      <trkpt lat="47.45168" lon="8.43787">
        <ele>424.7</ele>
        <time>2022-10-02T14:52:45Z</time>
      </trkpt>
      <trkpt lat="47.45164" lon="8.43787">
        <ele>424.7</ele>
        <time>2022-10-02T14:52:46Z</time>
      </trkpt>
      <trkpt lat="47.45163" lon="8.43787">
        <ele>424.7</ele>
        <time>2022-10-02T14:52:47Z</time>
      </trkpt>
      <trkpt lat="47.4516" lon="8.43788">
        <ele>424.8</ele>
        <time>2022-10-02T14:52:48Z</time>
      </trkpt>
      <trkpt lat="47.45157" lon="8.43791">
        <ele>424.8</ele>
        <time>2022-10-02T14:52:49Z</time>
      </trkpt>
      <trkpt lat="47.45156" lon="8.43792">
        <ele>424.8</ele>
        <time>2022-10-02T14:52:50Z</time>
      </trkpt>
      <trkpt lat="47.45153" lon="8.43796">
        <ele>424.8</ele>
        <time>2022-10-02T14:52:51Z</time>
      </trkpt>
      <trkpt lat="47.45152" lon="8.43798">
        <ele>424.9</ele>
        <time>2022-10-02T14:52:52Z</time>
      </trkpt>
      <trkpt lat="47.45149" lon="8.43801">
        <ele>424.9</ele>
        <time>2022-10-02T14:52:53Z</time>
      </trkpt>
      <trkpt lat="47.45147" lon="8.43805">
        <ele>425</ele>
        <time>2022-10-02T14:52:54Z</time>
      </trkpt>
      <trkpt lat="47.45145" lon="8.43809">
        <ele>425</ele>
        <time>2022-10-02T14:52:55Z</time>
      </trkpt>
      <trkpt lat="47.45147" lon="8.43814">
        <ele>425</ele>
        <time>2022-10-02T14:52:56Z</time>
      </trkpt>
      <trkpt lat="47.45148" lon="8.43815">
        <ele>425</ele>
        <time>2022-10-02T14:52:57Z</time>
      </trkpt>
      <trkpt lat="47.45149" lon="8.4382">
        <ele>424.9</ele>
        <time>2022-10-02T14:52:58Z</time>
      </trkpt>
      <trkpt lat="47.45149" lon="8.43822">
        <ele>424.9</ele>
        <time>2022-10-02T14:52:59Z</time>
      </trkpt>
      <trkpt lat="47.45151" lon="8.43826">
        <ele>424.9</ele>
        <time>2022-10-02T14:53:00Z</time>
      </trkpt>
      <trkpt lat="47.45153" lon="8.43829">
        <ele>424.9</ele>
        <time>2022-10-02T14:53:01Z</time>
      </trkpt>
      <trkpt lat="47.45156" lon="8.43832">
        <ele>424.9</ele>
        <time>2022-10-02T14:53:02Z</time>
      </trkpt>
      <trkpt lat="47.45157" lon="8.43836">
        <ele>424.9</ele>
        <time>2022-10-02T14:53:03Z</time>
      </trkpt>
      <trkpt lat="47.45159" lon="8.43841">
        <ele>424.9</ele>
        <time>2022-10-02T14:53:04Z</time>
      </trkpt>
      <trkpt lat="47.4516" lon="8.43845">
        <ele>424.9</ele>
        <time>2022-10-02T14:53:05Z</time>
      </trkpt>
      <trkpt lat="47.4516" lon="8.43851">
        <ele>424.8</ele>
        <time>2022-10-02T14:53:06Z</time>
      </trkpt>
      <trkpt lat="47.45159" lon="8.43858">
        <ele>424.8</ele>
        <time>2022-10-02T14:53:07Z</time>
      </trkpt>
      <trkpt lat="47.45157" lon="8.43864">
        <ele>424.8</ele>
        <time>2022-10-02T14:53:08Z</time>
      </trkpt>
      <trkpt lat="47.45156" lon="8.43869">
        <ele>424.8</ele>
        <time>2022-10-02T14:53:09Z</time>
      </trkpt>
      <trkpt lat="47.45155" lon="8.43874">
        <ele>424.8</ele>
        <time>2022-10-02T14:53:10Z</time>
      </trkpt>
      <trkpt lat="47.45154" lon="8.43879">
        <ele>424.8</ele>
        <time>2022-10-02T14:53:11Z</time>
      </trkpt>
      <trkpt lat="47.45153" lon="8.43884">
        <ele>424.8</ele>
        <time>2022-10-02T14:53:12Z</time>
      </trkpt>
      <trkpt lat="47.45153" lon="8.43889">
        <ele>424.8</ele>
        <time>2022-10-02T14:53:13Z</time>
      </trkpt>
      <trkpt lat="47.45152" lon="8.43894">
        <ele>424.8</ele>
        <time>2022-10-02T14:53:14Z</time>
      </trkpt>
      <trkpt lat="47.45151" lon="8.439">
        <ele>424.8</ele>
        <time>2022-10-02T14:53:15Z</time>
      </trkpt>
      <trkpt lat="47.4515" lon="8.43906">
        <ele>424.8</ele>
        <time>2022-10-02T14:53:16Z</time>
      </trkpt>
      <trkpt lat="47.45149" lon="8.43913">
        <ele>424.8</ele>
        <time>2022-10-02T14:53:17Z</time>
      </trkpt>
      <trkpt lat="47.45148" lon="8.43919">
        <ele>424.8</ele>
        <time>2022-10-02T14:53:18Z</time>
      </trkpt>
      <trkpt lat="47.45147" lon="8.43925">
        <ele>424.8</ele>
        <time>2022-10-02T14:53:19Z</time>
      </trkpt>
      <trkpt lat="47.45147" lon="8.43929">
        <ele>424.9</ele>
        <time>2022-10-02T14:53:20Z</time>
      </trkpt>
      <trkpt lat="47.45146" lon="8.43935">
        <ele>424.9</ele>
        <time>2022-10-02T14:53:21Z</time>
      </trkpt>
      <trkpt lat="47.45145" lon="8.4394">
        <ele>424.9</ele>
        <time>2022-10-02T14:53:22Z</time>
      </trkpt>
      <trkpt lat="47.45144" lon="8.43945">
        <ele>424.9</ele>
        <time>2022-10-02T14:53:23Z</time>
      </trkpt>
      <trkpt lat="47.45142" lon="8.4395">
        <ele>424.9</ele>
        <time>2022-10-02T14:53:24Z</time>
      </trkpt>
      <trkpt lat="47.45142" lon="8.43956">
        <ele>424.9</ele>
        <time>2022-10-02T14:53:25Z</time>
      </trkpt>
      <trkpt lat="47.45141" lon="8.43963">
        <ele>424.9</ele>
        <time>2022-10-02T14:53:26Z</time>
      </trkpt>
      <trkpt lat="47.45141" lon="8.43969">
        <ele>425</ele>
        <time>2022-10-02T14:53:27Z</time>
      </trkpt>
      <trkpt lat="47.4514" lon="8.43974">
        <ele>425</ele>
        <time>2022-10-02T14:53:28Z</time>
      </trkpt>
      <trkpt lat="47.45139" lon="8.43981">
        <ele>425</ele>
        <time>2022-10-02T14:53:29Z</time>
      </trkpt>
      <trkpt lat="47.45138" lon="8.43986">
        <ele>425</ele>
        <time>2022-10-02T14:53:30Z</time>
      </trkpt>
      <trkpt lat="47.45136" lon="8.43991">
        <ele>425</ele>
        <time>2022-10-02T14:53:31Z</time>
      </trkpt>
      <trkpt lat="47.45136" lon="8.43997">
        <ele>425</ele>
        <time>2022-10-02T14:53:33Z</time>
      </trkpt>
      <trkpt lat="47.45135" lon="8.44004">
        <ele>425</ele>
        <time>2022-10-02T14:53:34Z</time>
      </trkpt>
      <trkpt lat="47.45134" lon="8.44009">
        <ele>425</ele>
        <time>2022-10-02T14:53:35Z</time>
      </trkpt>
      <trkpt lat="47.45133" lon="8.44016">
        <ele>425</ele>
        <time>2022-10-02T14:53:36Z</time>
      </trkpt>
      <trkpt lat="47.45133" lon="8.44022">
        <ele>425</ele>
        <time>2022-10-02T14:53:37Z</time>
      </trkpt>
      <trkpt lat="47.45131" lon="8.44034">
        <ele>425</ele>
        <time>2022-10-02T14:53:38Z</time>
      </trkpt>
      <trkpt lat="47.45131" lon="8.4404">
        <ele>425</ele>
        <time>2022-10-02T14:53:39Z</time>
      </trkpt>
      <trkpt lat="47.4513" lon="8.44047">
        <ele>425</ele>
        <time>2022-10-02T14:53:40Z</time>
      </trkpt>
      <trkpt lat="47.4513" lon="8.44053">
        <ele>425.1</ele>
        <time>2022-10-02T14:53:41Z</time>
      </trkpt>
      <trkpt lat="47.45129" lon="8.44059">
        <ele>425.1</ele>
        <time>2022-10-02T14:53:42Z</time>
      </trkpt>
      <trkpt lat="47.45129" lon="8.44063">
        <ele>425.1</ele>
        <time>2022-10-02T14:53:43Z</time>
      </trkpt>
      <trkpt lat="47.45128" lon="8.4407">
        <ele>425.1</ele>
        <time>2022-10-02T14:53:44Z</time>
      </trkpt>
      <trkpt lat="47.45128" lon="8.44076">
        <ele>425.1</ele>
        <time>2022-10-02T14:53:45Z</time>
      </trkpt>
      <trkpt lat="47.45128" lon="8.44083">
        <ele>425.1</ele>
        <time>2022-10-02T14:53:46Z</time>
      </trkpt>
      <trkpt lat="47.45128" lon="8.44088">
        <ele>425.1</ele>
        <time>2022-10-02T14:53:47Z</time>
      </trkpt>
      <trkpt lat="47.45127" lon="8.44093">
        <ele>425.1</ele>
        <time>2022-10-02T14:53:48Z</time>
      </trkpt>
      <trkpt lat="47.45128" lon="8.441">
        <ele>425.1</ele>
        <time>2022-10-02T14:53:49Z</time>
      </trkpt>
      <trkpt lat="47.45128" lon="8.44106">
        <ele>425.1</ele>
        <time>2022-10-02T14:53:50Z</time>
      </trkpt>
      <trkpt lat="47.45128" lon="8.44114">
        <ele>425.1</ele>
        <time>2022-10-02T14:53:51Z</time>
      </trkpt>
      <trkpt lat="47.45128" lon="8.4412">
        <ele>425.1</ele>
        <time>2022-10-02T14:53:52Z</time>
      </trkpt>
      <trkpt lat="47.45128" lon="8.44127">
        <ele>425.1</ele>
        <time>2022-10-02T14:53:53Z</time>
      </trkpt>
      <trkpt lat="47.45128" lon="8.44135">
        <ele>425.1</ele>
        <time>2022-10-02T14:53:54Z</time>
      </trkpt>
      <trkpt lat="47.45128" lon="8.44141">
        <ele>425.1</ele>
        <time>2022-10-02T14:53:55Z</time>
      </trkpt>
      <trkpt lat="47.45129" lon="8.44147">
        <ele>425.1</ele>
        <time>2022-10-02T14:53:56Z</time>
      </trkpt>
      <trkpt lat="47.45129" lon="8.44155">
        <ele>425.2</ele>
        <time>2022-10-02T14:53:57Z</time>
      </trkpt>
      <trkpt lat="47.45129" lon="8.44161">
        <ele>425.2</ele>
        <time>2022-10-02T14:53:58Z</time>
      </trkpt>
      <trkpt lat="47.45129" lon="8.44168">
        <ele>425.2</ele>
        <time>2022-10-02T14:53:59Z</time>
      </trkpt>
      <trkpt lat="47.45129" lon="8.44174">
        <ele>425.2</ele>
        <time>2022-10-02T14:54:00Z</time>
      </trkpt>
      <trkpt lat="47.4513" lon="8.4418">
        <ele>425.2</ele>
        <time>2022-10-02T14:54:01Z</time>
      </trkpt>
      <trkpt lat="47.4513" lon="8.44186">
        <ele>425.2</ele>
        <time>2022-10-02T14:54:02Z</time>
      </trkpt>
      <trkpt lat="47.4513" lon="8.44192">
        <ele>425.3</ele>
        <time>2022-10-02T14:54:03Z</time>
      </trkpt>
      <trkpt lat="47.45131" lon="8.44199">
        <ele>425.3</ele>
        <time>2022-10-02T14:54:04Z</time>
      </trkpt>
      <trkpt lat="47.4513" lon="8.44205">
        <ele>425.3</ele>
        <time>2022-10-02T14:54:05Z</time>
      </trkpt>
      <trkpt lat="47.45131" lon="8.44214">
        <ele>425.4</ele>
        <time>2022-10-02T14:54:06Z</time>
      </trkpt>
      <trkpt lat="47.45132" lon="8.4422">
        <ele>425.4</ele>
        <time>2022-10-02T14:54:07Z</time>
      </trkpt>
      <trkpt lat="47.45131" lon="8.44224">
        <ele>425.4</ele>
        <time>2022-10-02T14:54:08Z</time>
      </trkpt>
      <trkpt lat="47.45131" lon="8.4423">
        <ele>425.5</ele>
        <time>2022-10-02T14:54:09Z</time>
      </trkpt>
      <trkpt lat="47.45131" lon="8.44235">
        <ele>425.6</ele>
        <time>2022-10-02T14:54:10Z</time>
      </trkpt>
      <trkpt lat="47.45131" lon="8.44243">
        <ele>425.7</ele>
        <time>2022-10-02T14:54:11Z</time>
      </trkpt>
      <trkpt lat="47.45131" lon="8.44248">
        <ele>425.7</ele>
        <time>2022-10-02T14:54:12Z</time>
      </trkpt>
      <trkpt lat="47.45131" lon="8.44253">
        <ele>425.8</ele>
        <time>2022-10-02T14:54:13Z</time>
      </trkpt>
      <trkpt lat="47.4513" lon="8.44259">
        <ele>425.9</ele>
        <time>2022-10-02T14:54:14Z</time>
      </trkpt>
      <trkpt lat="47.4513" lon="8.44265">
        <ele>425.9</ele>
        <time>2022-10-02T14:54:15Z</time>
      </trkpt>
      <trkpt lat="47.4513" lon="8.4427">
        <ele>426</ele>
        <time>2022-10-02T14:54:16Z</time>
      </trkpt>
      <trkpt lat="47.4513" lon="8.44276">
        <ele>426</ele>
        <time>2022-10-02T14:54:17Z</time>
      </trkpt>
      <trkpt lat="47.4513" lon="8.4428">
        <ele>426.1</ele>
        <time>2022-10-02T14:54:18Z</time>
      </trkpt>
      <trkpt lat="47.4513" lon="8.44286">
        <ele>426.1</ele>
        <time>2022-10-02T14:54:19Z</time>
      </trkpt>
      <trkpt lat="47.45129" lon="8.44292">
        <ele>426.1</ele>
        <time>2022-10-02T14:54:20Z</time>
      </trkpt>
      <trkpt lat="47.45129" lon="8.44295">
        <ele>426.1</ele>
        <time>2022-10-02T14:54:21Z</time>
      </trkpt>
      <trkpt lat="47.45129" lon="8.44301">
        <ele>426.1</ele>
        <time>2022-10-02T14:54:22Z</time>
      </trkpt>
      <trkpt lat="47.45128" lon="8.44307">
        <ele>426.1</ele>
        <time>2022-10-02T14:54:23Z</time>
      </trkpt>
      <trkpt lat="47.45128" lon="8.44313">
        <ele>426.1</ele>
        <time>2022-10-02T14:54:24Z</time>
      </trkpt>
      <trkpt lat="47.45127" lon="8.4432">
        <ele>426</ele>
        <time>2022-10-02T14:54:25Z</time>
      </trkpt>
      <trkpt lat="47.45127" lon="8.44324">
        <ele>426</ele>
        <time>2022-10-02T14:54:26Z</time>
      </trkpt>
      <trkpt lat="47.45126" lon="8.4433">
        <ele>426</ele>
        <time>2022-10-02T14:54:27Z</time>
      </trkpt>
      <trkpt lat="47.45125" lon="8.44336">
        <ele>426</ele>
        <time>2022-10-02T14:54:28Z</time>
      </trkpt>
      <trkpt lat="47.45124" lon="8.44342">
        <ele>426</ele>
        <time>2022-10-02T14:54:29Z</time>
      </trkpt>
      <trkpt lat="47.45123" lon="8.44348">
        <ele>426</ele>
        <time>2022-10-02T14:54:30Z</time>
      </trkpt>
      <trkpt lat="47.45122" lon="8.44355">
        <ele>425.9</ele>
        <time>2022-10-02T14:54:31Z</time>
      </trkpt>
      <trkpt lat="47.4512" lon="8.4436">
        <ele>425.9</ele>
        <time>2022-10-02T14:54:32Z</time>
      </trkpt>
      <trkpt lat="47.4512" lon="8.44365">
        <ele>425.9</ele>
        <time>2022-10-02T14:54:33Z</time>
      </trkpt>
      <trkpt lat="47.45118" lon="8.4437">
        <ele>425.8</ele>
        <time>2022-10-02T14:54:34Z</time>
      </trkpt>
      <trkpt lat="47.45117" lon="8.44376">
        <ele>425.8</ele>
        <time>2022-10-02T14:54:35Z</time>
      </trkpt>
      <trkpt lat="47.45115" lon="8.44382">
        <ele>425.7</ele>
        <time>2022-10-02T14:54:36Z</time>
      </trkpt>
      <trkpt lat="47.45115" lon="8.44387">
        <ele>425.7</ele>
        <time>2022-10-02T14:54:37Z</time>
      </trkpt>
      <trkpt lat="47.45114" lon="8.44394">
        <ele>425.6</ele>
        <time>2022-10-02T14:54:38Z</time>
      </trkpt>
      <trkpt lat="47.45113" lon="8.44399">
        <ele>425.6</ele>
        <time>2022-10-02T14:54:39Z</time>
      </trkpt>
      <trkpt lat="47.45112" lon="8.44404">
        <ele>425.5</ele>
        <time>2022-10-02T14:54:40Z</time>
      </trkpt>
      <trkpt lat="47.45111" lon="8.44406">
        <ele>425.5</ele>
        <time>2022-10-02T14:54:41Z</time>
      </trkpt>
      <trkpt lat="47.45109" lon="8.4441">
        <ele>425.5</ele>
        <time>2022-10-02T14:54:42Z</time>
      </trkpt>
      <trkpt lat="47.45108" lon="8.44413">
        <ele>425.4</ele>
        <time>2022-10-02T14:54:43Z</time>
      </trkpt>
      <trkpt lat="47.45105" lon="8.44417">
        <ele>425.3</ele>
        <time>2022-10-02T14:54:44Z</time>
      </trkpt>
      <trkpt lat="47.45104" lon="8.44423">
        <ele>425.2</ele>
        <time>2022-10-02T14:54:45Z</time>
      </trkpt>
      <trkpt lat="47.45103" lon="8.44425">
        <ele>425.1</ele>
        <time>2022-10-02T14:54:46Z</time>
      </trkpt>
      <trkpt lat="47.45103" lon="8.44432">
        <ele>424.9</ele>
        <time>2022-10-02T14:54:47Z</time>
      </trkpt>
      <trkpt lat="47.45104" lon="8.44439">
        <ele>424.6</ele>
        <time>2022-10-02T14:54:48Z</time>
      </trkpt>
      <trkpt lat="47.45104" lon="8.44446">
        <ele>424.3</ele>
        <time>2022-10-02T14:54:49Z</time>
      </trkpt>
      <trkpt lat="47.45107" lon="8.44451">
        <ele>424</ele>
        <time>2022-10-02T14:54:50Z</time>
      </trkpt>
      <trkpt lat="47.4511" lon="8.44456">
        <ele>424</ele>
        <time>2022-10-02T14:54:51Z</time>
      </trkpt>
      <trkpt lat="47.45111" lon="8.44464">
        <ele>424</ele>
        <time>2022-10-02T14:54:52Z</time>
      </trkpt>
      <trkpt lat="47.45112" lon="8.44468">
        <ele>424</ele>
        <time>2022-10-02T14:54:53Z</time>
      </trkpt>
      <trkpt lat="47.45115" lon="8.44476">
        <ele>424</ele>
        <time>2022-10-02T14:54:54Z</time>
      </trkpt>
      <trkpt lat="47.45116" lon="8.44481">
        <ele>424.4</ele>
        <time>2022-10-02T14:54:55Z</time>
      </trkpt>
      <trkpt lat="47.45119" lon="8.44483">
        <ele>424.6</ele>
        <time>2022-10-02T14:54:56Z</time>
      </trkpt>
      <trkpt lat="47.45121" lon="8.44487">
        <ele>424.8</ele>
        <time>2022-10-02T14:54:57Z</time>
      </trkpt>
      <trkpt lat="47.45122" lon="8.44493">
        <ele>425.1</ele>
        <time>2022-10-02T14:54:58Z</time>
      </trkpt>
      <trkpt lat="47.45122" lon="8.44495">
        <ele>425.2</ele>
        <time>2022-10-02T14:54:59Z</time>
      </trkpt>
      <trkpt lat="47.45123" lon="8.445">
        <ele>425.4</ele>
        <time>2022-10-02T14:55:00Z</time>
      </trkpt>
      <trkpt lat="47.45123" lon="8.44501">
        <ele>425.4</ele>
        <time>2022-10-02T14:55:01Z</time>
      </trkpt>
      <trkpt lat="47.45124" lon="8.44502">
        <ele>425.5</ele>
        <time>2022-10-02T14:55:02Z</time>
      </trkpt>
      <trkpt lat="47.45125" lon="8.44504">
        <ele>425.6</ele>
        <time>2022-10-02T14:55:03Z</time>
      </trkpt>
      <trkpt lat="47.45127" lon="8.44507">
        <ele>425.7</ele>
        <time>2022-10-02T14:55:04Z</time>
      </trkpt>
      <trkpt lat="47.45128" lon="8.44508">
        <ele>425.8</ele>
        <time>2022-10-02T14:55:05Z</time>
      </trkpt>
      <trkpt lat="47.45128" lon="8.44513">
        <ele>425.9</ele>
        <time>2022-10-02T14:55:06Z</time>
      </trkpt>
      <trkpt lat="47.45129" lon="8.44515">
        <ele>425.9</ele>
        <time>2022-10-02T14:55:07Z</time>
      </trkpt>
      <trkpt lat="47.45129" lon="8.4452">
        <ele>426</ele>
        <time>2022-10-02T14:55:08Z</time>
      </trkpt>
      <trkpt lat="47.45129" lon="8.44522">
        <ele>426.1</ele>
        <time>2022-10-02T14:55:09Z</time>
      </trkpt>
      <trkpt lat="47.45131" lon="8.44526">
        <ele>426.1</ele>
        <time>2022-10-02T14:55:10Z</time>
      </trkpt>
      <trkpt lat="47.45132" lon="8.44528">
        <ele>426.1</ele>
        <time>2022-10-02T14:55:11Z</time>
      </trkpt>
      <trkpt lat="47.45133" lon="8.44532">
        <ele>426.2</ele>
        <time>2022-10-02T14:55:12Z</time>
      </trkpt>
      <trkpt lat="47.45133" lon="8.44533">
        <ele>426.2</ele>
        <time>2022-10-02T14:55:13Z</time>
      </trkpt>
      <trkpt lat="47.45134" lon="8.44537">
        <ele>426.2</ele>
        <time>2022-10-02T14:55:14Z</time>
      </trkpt>
      <trkpt lat="47.45136" lon="8.44541">
        <ele>426.2</ele>
        <time>2022-10-02T14:55:15Z</time>
      </trkpt>
      <trkpt lat="47.45137" lon="8.44543">
        <ele>426.2</ele>
        <time>2022-10-02T14:55:16Z</time>
      </trkpt>
      <trkpt lat="47.45138" lon="8.44546">
        <ele>426.2</ele>
        <time>2022-10-02T14:55:17Z</time>
      </trkpt>
      <trkpt lat="47.45139" lon="8.44547">
        <ele>426.2</ele>
        <time>2022-10-02T14:55:18Z</time>
      </trkpt>
      <trkpt lat="47.4514" lon="8.44551">
        <ele>426.2</ele>
        <time>2022-10-02T14:55:19Z</time>
      </trkpt>
      <trkpt lat="47.45143" lon="8.44555">
        <ele>426.2</ele>
        <time>2022-10-02T14:55:20Z</time>
      </trkpt>
      <trkpt lat="47.45144" lon="8.44557">
        <ele>426.2</ele>
        <time>2022-10-02T14:55:21Z</time>
      </trkpt>
      <trkpt lat="47.45145" lon="8.44562">
        <ele>426.2</ele>
        <time>2022-10-02T14:55:22Z</time>
      </trkpt>
      <trkpt lat="47.45145" lon="8.44563">
        <ele>426.2</ele>
        <time>2022-10-02T14:55:23Z</time>
      </trkpt>
      <trkpt lat="47.45147" lon="8.44567">
        <ele>426.2</ele>
        <time>2022-10-02T14:55:24Z</time>
      </trkpt>
      <trkpt lat="47.45148" lon="8.44572">
        <ele>426.2</ele>
        <time>2022-10-02T14:55:25Z</time>
      </trkpt>
      <trkpt lat="47.45149" lon="8.44574">
        <ele>426.2</ele>
        <time>2022-10-02T14:55:26Z</time>
      </trkpt>
      <trkpt lat="47.45151" lon="8.44577">
        <ele>426.2</ele>
        <time>2022-10-02T14:55:27Z</time>
      </trkpt>
      <trkpt lat="47.45153" lon="8.4458">
        <ele>426.2</ele>
        <time>2022-10-02T14:55:28Z</time>
      </trkpt>
      <trkpt lat="47.45153" lon="8.44585">
        <ele>426.2</ele>
        <time>2022-10-02T14:55:29Z</time>
      </trkpt>
      <trkpt lat="47.45153" lon="8.44589">
        <ele>426.2</ele>
        <time>2022-10-02T14:55:30Z</time>
      </trkpt>
      <trkpt lat="47.45155" lon="8.44593">
        <ele>426.2</ele>
        <time>2022-10-02T14:55:31Z</time>
      </trkpt>
      <trkpt lat="47.45155" lon="8.44598">
        <ele>426.2</ele>
        <time>2022-10-02T14:55:32Z</time>
      </trkpt>
      <trkpt lat="47.45157" lon="8.44602">
        <ele>426.2</ele>
        <time>2022-10-02T14:55:33Z</time>
      </trkpt>
      <trkpt lat="47.4516" lon="8.44606">
        <ele>426.2</ele>
        <time>2022-10-02T14:55:34Z</time>
      </trkpt>
      <trkpt lat="47.45161" lon="8.44611">
        <ele>426.2</ele>
        <time>2022-10-02T14:55:35Z</time>
      </trkpt>
      <trkpt lat="47.45162" lon="8.44616">
        <ele>426.2</ele>
        <time>2022-10-02T14:55:37Z</time>
      </trkpt>
      <trkpt lat="47.45163" lon="8.44618">
        <ele>426.2</ele>
        <time>2022-10-02T14:55:38Z</time>
      </trkpt>
      <trkpt lat="47.45164" lon="8.44622">
        <ele>426.2</ele>
        <time>2022-10-02T14:55:39Z</time>
      </trkpt>
      <trkpt lat="47.45165" lon="8.44626">
        <ele>426.2</ele>
        <time>2022-10-02T14:55:40Z</time>
      </trkpt>
      <trkpt lat="47.45167" lon="8.44631">
        <ele>426.2</ele>
        <time>2022-10-02T14:55:41Z</time>
      </trkpt>
      <trkpt lat="47.45168" lon="8.44635">
        <ele>426.2</ele>
        <time>2022-10-02T14:55:42Z</time>
      </trkpt>
      <trkpt lat="47.45169" lon="8.44642">
        <ele>426.2</ele>
        <time>2022-10-02T14:55:43Z</time>
      </trkpt>
      <trkpt lat="47.45169" lon="8.44646">
        <ele>426.2</ele>
        <time>2022-10-02T14:55:44Z</time>
      </trkpt>
      <trkpt lat="47.4517" lon="8.4465">
        <ele>426.2</ele>
        <time>2022-10-02T14:55:45Z</time>
      </trkpt>
      <trkpt lat="47.45172" lon="8.44654">
        <ele>426.2</ele>
        <time>2022-10-02T14:55:46Z</time>
      </trkpt>
      <trkpt lat="47.45173" lon="8.44658">
        <ele>426.2</ele>
        <time>2022-10-02T14:55:47Z</time>
      </trkpt>
      <trkpt lat="47.45174" lon="8.44662">
        <ele>426.2</ele>
        <time>2022-10-02T14:55:48Z</time>
      </trkpt>
      <trkpt lat="47.45175" lon="8.44666">
        <ele>426.2</ele>
        <time>2022-10-02T14:55:49Z</time>
      </trkpt>
      <trkpt lat="47.45178" lon="8.44676">
        <ele>426.2</ele>
        <time>2022-10-02T14:55:51Z</time>
      </trkpt>
      <trkpt lat="47.45179" lon="8.44681">
        <ele>426.2</ele>
        <time>2022-10-02T14:55:52Z</time>
      </trkpt>
      <trkpt lat="47.4518" lon="8.44685">
        <ele>426.2</ele>
        <time>2022-10-02T14:55:53Z</time>
      </trkpt>
      <trkpt lat="47.45181" lon="8.4469">
        <ele>426.2</ele>
        <time>2022-10-02T14:55:55Z</time>
      </trkpt>
      <trkpt lat="47.45182" lon="8.44694">
        <ele>426.2</ele>
        <time>2022-10-02T14:55:56Z</time>
      </trkpt>
      <trkpt lat="47.45183" lon="8.44698">
        <ele>426.2</ele>
        <time>2022-10-02T14:55:57Z</time>
      </trkpt>
      <trkpt lat="47.45184" lon="8.44704">
        <ele>426.2</ele>
        <time>2022-10-02T14:55:58Z</time>
      </trkpt>
      <trkpt lat="47.45186" lon="8.44709">
        <ele>426.1</ele>
        <time>2022-10-02T14:55:59Z</time>
      </trkpt>
      <trkpt lat="47.45186" lon="8.44713">
        <ele>426.1</ele>
        <time>2022-10-02T14:56:00Z</time>
      </trkpt>
      <trkpt lat="47.45187" lon="8.44717">
        <ele>426.1</ele>
        <time>2022-10-02T14:56:01Z</time>
      </trkpt>
      <trkpt lat="47.45188" lon="8.44721">
        <ele>426.1</ele>
        <time>2022-10-02T14:56:02Z</time>
      </trkpt>
      <trkpt lat="47.4519" lon="8.44727">
        <ele>426.1</ele>
        <time>2022-10-02T14:56:03Z</time>
      </trkpt>
      <trkpt lat="47.4519" lon="8.4473">
        <ele>426.1</ele>
        <time>2022-10-02T14:56:04Z</time>
      </trkpt>
      <trkpt lat="47.45192" lon="8.44734">
        <ele>426.1</ele>
        <time>2022-10-02T14:56:05Z</time>
      </trkpt>
      <trkpt lat="47.45194" lon="8.4474">
        <ele>426.1</ele>
        <time>2022-10-02T14:56:06Z</time>
      </trkpt>
      <trkpt lat="47.45195" lon="8.44745">
        <ele>426.1</ele>
        <time>2022-10-02T14:56:07Z</time>
      </trkpt>
      <trkpt lat="47.45196" lon="8.44749">
        <ele>426.1</ele>
        <time>2022-10-02T14:56:08Z</time>
      </trkpt>
      <trkpt lat="47.45197" lon="8.44755">
        <ele>426.1</ele>
        <time>2022-10-02T14:56:09Z</time>
      </trkpt>
      <trkpt lat="47.45198" lon="8.44759">
        <ele>426.1</ele>
        <time>2022-10-02T14:56:10Z</time>
      </trkpt>
      <trkpt lat="47.45199" lon="8.44764">
        <ele>426.1</ele>
        <time>2022-10-02T14:56:11Z</time>
      </trkpt>
      <trkpt lat="47.452" lon="8.44766">
        <ele>426.1</ele>
        <time>2022-10-02T14:56:12Z</time>
      </trkpt>
      <trkpt lat="47.45201" lon="8.44771">
        <ele>426.1</ele>
        <time>2022-10-02T14:56:13Z</time>
      </trkpt>
      <trkpt lat="47.45203" lon="8.4478">
        <ele>426.1</ele>
        <time>2022-10-02T14:56:14Z</time>
      </trkpt>
      <trkpt lat="47.45205" lon="8.44785">
        <ele>426.1</ele>
        <time>2022-10-02T14:56:15Z</time>
      </trkpt>
      <trkpt lat="47.45206" lon="8.44789">
        <ele>426.1</ele>
        <time>2022-10-02T14:56:16Z</time>
      </trkpt>
      <trkpt lat="47.45208" lon="8.44794">
        <ele>426.1</ele>
        <time>2022-10-02T14:56:17Z</time>
      </trkpt>
      <trkpt lat="47.45209" lon="8.44799">
        <ele>426.1</ele>
        <time>2022-10-02T14:56:18Z</time>
      </trkpt>
      <trkpt lat="47.4521" lon="8.44803">
        <ele>426.1</ele>
        <time>2022-10-02T14:56:19Z</time>
      </trkpt>
      <trkpt lat="47.45211" lon="8.44809">
        <ele>426.2</ele>
        <time>2022-10-02T14:56:20Z</time>
      </trkpt>
      <trkpt lat="47.45213" lon="8.44814">
        <ele>426.2</ele>
        <time>2022-10-02T14:56:21Z</time>
      </trkpt>
      <trkpt lat="47.45214" lon="8.44818">
        <ele>426.2</ele>
        <time>2022-10-02T14:56:22Z</time>
      </trkpt>
      <trkpt lat="47.45215" lon="8.44824">
        <ele>426.2</ele>
        <time>2022-10-02T14:56:23Z</time>
      </trkpt>
      <trkpt lat="47.45216" lon="8.44828">
        <ele>426.2</ele>
        <time>2022-10-02T14:56:24Z</time>
      </trkpt>
      <trkpt lat="47.45218" lon="8.44833">
        <ele>426.2</ele>
        <time>2022-10-02T14:56:25Z</time>
      </trkpt>
      <trkpt lat="47.45219" lon="8.44839">
        <ele>426.2</ele>
        <time>2022-10-02T14:56:26Z</time>
      </trkpt>
      <trkpt lat="47.45219" lon="8.44843">
        <ele>426.3</ele>
        <time>2022-10-02T14:56:27Z</time>
      </trkpt>
      <trkpt lat="47.45221" lon="8.44848">
        <ele>426.3</ele>
        <time>2022-10-02T14:56:28Z</time>
      </trkpt>
      <trkpt lat="47.45222" lon="8.44853">
        <ele>426.3</ele>
        <time>2022-10-02T14:56:29Z</time>
      </trkpt>
      <trkpt lat="47.45223" lon="8.44859">
        <ele>426.3</ele>
        <time>2022-10-02T14:56:30Z</time>
      </trkpt>
      <trkpt lat="47.45223" lon="8.44861">
        <ele>426.3</ele>
        <time>2022-10-02T14:56:31Z</time>
      </trkpt>
      <trkpt lat="47.45225" lon="8.44866">
        <ele>426.3</ele>
        <time>2022-10-02T14:56:32Z</time>
      </trkpt>
      <trkpt lat="47.45226" lon="8.44871">
        <ele>426.3</ele>
        <time>2022-10-02T14:56:33Z</time>
      </trkpt>
      <trkpt lat="47.45226" lon="8.44876">
        <ele>426.4</ele>
        <time>2022-10-02T14:56:34Z</time>
      </trkpt>
      <trkpt lat="47.45228" lon="8.44882">
        <ele>426.4</ele>
        <time>2022-10-02T14:56:35Z</time>
      </trkpt>
      <trkpt lat="47.45228" lon="8.44884">
        <ele>426.4</ele>
        <time>2022-10-02T14:56:36Z</time>
      </trkpt>
      <trkpt lat="47.4523" lon="8.44889">
        <ele>426.5</ele>
        <time>2022-10-02T14:56:37Z</time>
      </trkpt>
      <trkpt lat="47.45231" lon="8.44893">
        <ele>426.5</ele>
        <time>2022-10-02T14:56:38Z</time>
      </trkpt>
      <trkpt lat="47.45232" lon="8.44898">
        <ele>426.5</ele>
        <time>2022-10-02T14:56:39Z</time>
      </trkpt>
      <trkpt lat="47.45233" lon="8.44902">
        <ele>426.6</ele>
        <time>2022-10-02T14:56:40Z</time>
      </trkpt>
      <trkpt lat="47.45234" lon="8.44907">
        <ele>426.7</ele>
        <time>2022-10-02T14:56:41Z</time>
      </trkpt>
      <trkpt lat="47.45236" lon="8.4491">
        <ele>426.7</ele>
        <time>2022-10-02T14:56:42Z</time>
      </trkpt>
      <trkpt lat="47.45236" lon="8.44914">
        <ele>426.8</ele>
        <time>2022-10-02T14:56:43Z</time>
      </trkpt>
      <trkpt lat="47.45237" lon="8.44919">
        <ele>426.8</ele>
        <time>2022-10-02T14:56:44Z</time>
      </trkpt>
      <trkpt lat="47.45238" lon="8.44921">
        <ele>426.8</ele>
        <time>2022-10-02T14:56:45Z</time>
      </trkpt>
      <trkpt lat="47.45239" lon="8.44926">
        <ele>426.8</ele>
        <time>2022-10-02T14:56:46Z</time>
      </trkpt>
      <trkpt lat="47.4524" lon="8.44928">
        <ele>426.8</ele>
        <time>2022-10-02T14:56:47Z</time>
      </trkpt>
      <trkpt lat="47.45241" lon="8.44933">
        <ele>426.8</ele>
        <time>2022-10-02T14:56:48Z</time>
      </trkpt>
      <trkpt lat="47.45242" lon="8.44938">
        <ele>426.8</ele>
        <time>2022-10-02T14:56:49Z</time>
      </trkpt>
      <trkpt lat="47.45243" lon="8.44943">
        <ele>426.8</ele>
        <time>2022-10-02T14:56:50Z</time>
      </trkpt>
      <trkpt lat="47.45245" lon="8.44948">
        <ele>426.8</ele>
        <time>2022-10-02T14:56:51Z</time>
      </trkpt>
      <trkpt lat="47.45245" lon="8.44953">
        <ele>426.8</ele>
        <time>2022-10-02T14:56:52Z</time>
      </trkpt>
      <trkpt lat="47.45247" lon="8.44958">
        <ele>426.8</ele>
        <time>2022-10-02T14:56:53Z</time>
      </trkpt>
      <trkpt lat="47.45248" lon="8.44964">
        <ele>426.8</ele>
        <time>2022-10-02T14:56:54Z</time>
      </trkpt>
      <trkpt lat="47.45249" lon="8.4497">
        <ele>426.8</ele>
        <time>2022-10-02T14:56:55Z</time>
      </trkpt>
      <trkpt lat="47.4525" lon="8.44975">
        <ele>426.8</ele>
        <time>2022-10-02T14:56:56Z</time>
      </trkpt>
      <trkpt lat="47.45251" lon="8.4498">
        <ele>426.8</ele>
        <time>2022-10-02T14:56:57Z</time>
      </trkpt>
      <trkpt lat="47.45252" lon="8.44985">
        <ele>426.8</ele>
        <time>2022-10-02T14:56:58Z</time>
      </trkpt>
      <trkpt lat="47.45253" lon="8.4499">
        <ele>426.8</ele>
        <time>2022-10-02T14:56:59Z</time>
      </trkpt>
      <trkpt lat="47.45253" lon="8.44997">
        <ele>426.8</ele>
        <time>2022-10-02T14:57:00Z</time>
      </trkpt>
      <trkpt lat="47.45254" lon="8.45001">
        <ele>426.8</ele>
        <time>2022-10-02T14:57:01Z</time>
      </trkpt>
      <trkpt lat="47.45254" lon="8.45006">
        <ele>426.9</ele>
        <time>2022-10-02T14:57:02Z</time>
      </trkpt>
      <trkpt lat="47.45255" lon="8.45012">
        <ele>426.9</ele>
        <time>2022-10-02T14:57:03Z</time>
      </trkpt>
      <trkpt lat="47.45255" lon="8.45018">
        <ele>426.9</ele>
        <time>2022-10-02T14:57:04Z</time>
      </trkpt>
      <trkpt lat="47.45255" lon="8.45023">
        <ele>426.9</ele>
        <time>2022-10-02T14:57:05Z</time>
      </trkpt>
      <trkpt lat="47.45255" lon="8.45028">
        <ele>426.9</ele>
        <time>2022-10-02T14:57:06Z</time>
      </trkpt>
      <trkpt lat="47.45255" lon="8.45034">
        <ele>426.9</ele>
        <time>2022-10-02T14:57:07Z</time>
      </trkpt>
      <trkpt lat="47.45254" lon="8.45038">
        <ele>426.9</ele>
        <time>2022-10-02T14:57:08Z</time>
      </trkpt>
      <trkpt lat="47.45254" lon="8.45043">
        <ele>427</ele>
        <time>2022-10-02T14:57:09Z</time>
      </trkpt>
      <trkpt lat="47.45253" lon="8.45049">
        <ele>427</ele>
        <time>2022-10-02T14:57:10Z</time>
      </trkpt>
      <trkpt lat="47.45254" lon="8.45055">
        <ele>427</ele>
        <time>2022-10-02T14:57:11Z</time>
      </trkpt>
      <trkpt lat="47.45255" lon="8.45057">
        <ele>427</ele>
        <time>2022-10-02T14:57:12Z</time>
      </trkpt>
      <trkpt lat="47.45254" lon="8.45062">
        <ele>427</ele>
        <time>2022-10-02T14:57:13Z</time>
      </trkpt>
      <trkpt lat="47.45253" lon="8.45068">
        <ele>427</ele>
        <time>2022-10-02T14:57:14Z</time>
      </trkpt>
      <trkpt lat="47.45252" lon="8.45076">
        <ele>427</ele>
        <time>2022-10-02T14:57:15Z</time>
      </trkpt>
      <trkpt lat="47.4525" lon="8.45082">
        <ele>427</ele>
        <time>2022-10-02T14:57:16Z</time>
      </trkpt>
      <trkpt lat="47.4525" lon="8.45087">
        <ele>427</ele>
        <time>2022-10-02T14:57:17Z</time>
      </trkpt>
      <trkpt lat="47.45249" lon="8.45093">
        <ele>427</ele>
        <time>2022-10-02T14:57:18Z</time>
      </trkpt>
      <trkpt lat="47.45248" lon="8.45099">
        <ele>427</ele>
        <time>2022-10-02T14:57:19Z</time>
      </trkpt>
      <trkpt lat="47.45248" lon="8.45106">
        <ele>427.1</ele>
        <time>2022-10-02T14:57:20Z</time>
      </trkpt>
      <trkpt lat="47.45247" lon="8.45108">
        <ele>427.1</ele>
        <time>2022-10-02T14:57:21Z</time>
      </trkpt>
      <trkpt lat="47.45248" lon="8.45113">
        <ele>427.1</ele>
        <time>2022-10-02T14:57:22Z</time>
      </trkpt>
      <trkpt lat="47.45248" lon="8.45118">
        <ele>427.1</ele>
        <time>2022-10-02T14:57:23Z</time>
      </trkpt>
      <trkpt lat="47.45248" lon="8.45123">
        <ele>427.1</ele>
        <time>2022-10-02T14:57:24Z</time>
      </trkpt>
      <trkpt lat="47.45247" lon="8.45129">
        <ele>427.1</ele>
        <time>2022-10-02T14:57:25Z</time>
      </trkpt>
      <trkpt lat="47.45246" lon="8.45133">
        <ele>427.2</ele>
        <time>2022-10-02T14:57:26Z</time>
      </trkpt>
      <trkpt lat="47.45245" lon="8.45139">
        <ele>427.2</ele>
        <time>2022-10-02T14:57:27Z</time>
      </trkpt>
      <trkpt lat="47.45244" lon="8.45145">
        <ele>427.2</ele>
        <time>2022-10-02T14:57:28Z</time>
      </trkpt>
      <trkpt lat="47.45243" lon="8.45151">
        <ele>427.2</ele>
        <time>2022-10-02T14:57:29Z</time>
      </trkpt>
      <trkpt lat="47.45242" lon="8.45158">
        <ele>427.2</ele>
        <time>2022-10-02T14:57:30Z</time>
      </trkpt>
      <trkpt lat="47.45241" lon="8.45164">
        <ele>427.2</ele>
        <time>2022-10-02T14:57:31Z</time>
      </trkpt>
      <trkpt lat="47.45241" lon="8.45171">
        <ele>427.2</ele>
        <time>2022-10-02T14:57:32Z</time>
      </trkpt>
      <trkpt lat="47.45241" lon="8.45174">
        <ele>427.2</ele>
        <time>2022-10-02T14:57:33Z</time>
      </trkpt>
      <trkpt lat="47.45239" lon="8.45182">
        <ele>427.2</ele>
        <time>2022-10-02T14:57:34Z</time>
      </trkpt>
      <trkpt lat="47.45238" lon="8.45188">
        <ele>427.2</ele>
        <time>2022-10-02T14:57:35Z</time>
      </trkpt>
      <trkpt lat="47.45237" lon="8.45195">
        <ele>427.2</ele>
        <time>2022-10-02T14:57:36Z</time>
      </trkpt>
      <trkpt lat="47.45236" lon="8.45201">
        <ele>427.2</ele>
        <time>2022-10-02T14:57:37Z</time>
      </trkpt>
      <trkpt lat="47.45235" lon="8.45206">
        <ele>427.2</ele>
        <time>2022-10-02T14:57:38Z</time>
      </trkpt>
      <trkpt lat="47.45234" lon="8.45211">
        <ele>427.2</ele>
        <time>2022-10-02T14:57:39Z</time>
      </trkpt>
      <trkpt lat="47.45235" lon="8.45216">
        <ele>427.2</ele>
        <time>2022-10-02T14:57:40Z</time>
      </trkpt>
      <trkpt lat="47.45234" lon="8.45221">
        <ele>427.2</ele>
        <time>2022-10-02T14:57:41Z</time>
      </trkpt>
      <trkpt lat="47.45233" lon="8.45228">
        <ele>427.2</ele>
        <time>2022-10-02T14:57:43Z</time>
      </trkpt>
      <trkpt lat="47.45234" lon="8.45233">
        <ele>427.2</ele>
        <time>2022-10-02T14:57:44Z</time>
      </trkpt>
      <trkpt lat="47.45232" lon="8.45238">
        <ele>427.3</ele>
        <time>2022-10-02T14:57:45Z</time>
      </trkpt>
      <trkpt lat="47.45232" lon="8.45245">
        <ele>427.3</ele>
        <time>2022-10-02T14:57:46Z</time>
      </trkpt>
      <trkpt lat="47.45231" lon="8.45252">
        <ele>427.3</ele>
        <time>2022-10-02T14:57:47Z</time>
      </trkpt>
      <trkpt lat="47.4523" lon="8.45258">
        <ele>427.3</ele>
        <time>2022-10-02T14:57:48Z</time>
      </trkpt>
      <trkpt lat="47.4523" lon="8.45265">
        <ele>427.3</ele>
        <time>2022-10-02T14:57:49Z</time>
      </trkpt>
      <trkpt lat="47.45229" lon="8.45272">
        <ele>427.3</ele>
        <time>2022-10-02T14:57:50Z</time>
      </trkpt>
      <trkpt lat="47.45228" lon="8.45279">
        <ele>427.3</ele>
        <time>2022-10-02T14:57:51Z</time>
      </trkpt>
      <trkpt lat="47.45227" lon="8.45292">
        <ele>427.3</ele>
        <time>2022-10-02T14:57:52Z</time>
      </trkpt>
      <trkpt lat="47.45227" lon="8.45298">
        <ele>427.3</ele>
        <time>2022-10-02T14:57:53Z</time>
      </trkpt>
      <trkpt lat="47.45226" lon="8.45303">
        <ele>427.4</ele>
        <time>2022-10-02T14:57:54Z</time>
      </trkpt>
      <trkpt lat="47.45227" lon="8.4531">
        <ele>427.4</ele>
        <time>2022-10-02T14:57:55Z</time>
      </trkpt>
      <trkpt lat="47.45226" lon="8.45316">
        <ele>427.4</ele>
        <time>2022-10-02T14:57:56Z</time>
      </trkpt>
      <trkpt lat="47.45227" lon="8.45322">
        <ele>427.5</ele>
        <time>2022-10-02T14:57:57Z</time>
      </trkpt>
      <trkpt lat="47.45226" lon="8.45328">
        <ele>427.5</ele>
        <time>2022-10-02T14:57:59Z</time>
      </trkpt>
      <trkpt lat="47.45225" lon="8.4534">
        <ele>427.6</ele>
        <time>2022-10-02T14:58:00Z</time>
      </trkpt>
      <trkpt lat="47.45224" lon="8.45347">
        <ele>427.6</ele>
        <time>2022-10-02T14:58:01Z</time>
      </trkpt>
      <trkpt lat="47.45223" lon="8.45352">
        <ele>427.6</ele>
        <time>2022-10-02T14:58:02Z</time>
      </trkpt>
      <trkpt lat="47.45222" lon="8.4536">
        <ele>427.7</ele>
        <time>2022-10-02T14:58:03Z</time>
      </trkpt>
      <trkpt lat="47.45221" lon="8.45366">
        <ele>427.7</ele>
        <time>2022-10-02T14:58:04Z</time>
      </trkpt>
      <trkpt lat="47.45221" lon="8.45371">
        <ele>427.7</ele>
        <time>2022-10-02T14:58:05Z</time>
      </trkpt>
      <trkpt lat="47.4522" lon="8.45377">
        <ele>427.7</ele>
        <time>2022-10-02T14:58:06Z</time>
      </trkpt>
      <trkpt lat="47.45219" lon="8.45382">
        <ele>427.7</ele>
        <time>2022-10-02T14:58:07Z</time>
      </trkpt>
      <trkpt lat="47.45219" lon="8.45387">
        <ele>427.7</ele>
        <time>2022-10-02T14:58:08Z</time>
      </trkpt>
      <trkpt lat="47.45218" lon="8.45393">
        <ele>427.7</ele>
        <time>2022-10-02T14:58:09Z</time>
      </trkpt>
      <trkpt lat="47.45217" lon="8.45399">
        <ele>427.7</ele>
        <time>2022-10-02T14:58:10Z</time>
      </trkpt>
      <trkpt lat="47.45216" lon="8.45405">
        <ele>427.7</ele>
        <time>2022-10-02T14:58:11Z</time>
      </trkpt>
      <trkpt lat="47.45215" lon="8.45412">
        <ele>427.7</ele>
        <time>2022-10-02T14:58:12Z</time>
      </trkpt>
      <trkpt lat="47.45214" lon="8.45418">
        <ele>427.6</ele>
        <time>2022-10-02T14:58:13Z</time>
      </trkpt>
      <trkpt lat="47.45213" lon="8.45425">
        <ele>427.6</ele>
        <time>2022-10-02T14:58:14Z</time>
      </trkpt>
      <trkpt lat="47.45212" lon="8.45431">
        <ele>427.7</ele>
        <time>2022-10-02T14:58:15Z</time>
      </trkpt>
      <trkpt lat="47.45211" lon="8.45437">
        <ele>427.7</ele>
        <time>2022-10-02T14:58:16Z</time>
      </trkpt>
      <trkpt lat="47.4521" lon="8.45443">
        <ele>427.7</ele>
        <time>2022-10-02T14:58:17Z</time>
      </trkpt>
      <trkpt lat="47.45208" lon="8.45448">
        <ele>427.7</ele>
        <time>2022-10-02T14:58:18Z</time>
      </trkpt>
      <trkpt lat="47.45207" lon="8.45454">
        <ele>427.7</ele>
        <time>2022-10-02T14:58:19Z</time>
      </trkpt>
      <trkpt lat="47.45207" lon="8.45459">
        <ele>427.7</ele>
        <time>2022-10-02T14:58:20Z</time>
      </trkpt>
      <trkpt lat="47.45205" lon="8.45464">
        <ele>427.8</ele>
        <time>2022-10-02T14:58:21Z</time>
      </trkpt>
      <trkpt lat="47.45204" lon="8.4547">
        <ele>427.8</ele>
        <time>2022-10-02T14:58:22Z</time>
      </trkpt>
      <trkpt lat="47.45204" lon="8.45475">
        <ele>427.8</ele>
        <time>2022-10-02T14:58:23Z</time>
      </trkpt>
      <trkpt lat="47.45203" lon="8.45481">
        <ele>427.8</ele>
        <time>2022-10-02T14:58:24Z</time>
      </trkpt>
      <trkpt lat="47.45201" lon="8.45486">
        <ele>427.9</ele>
        <time>2022-10-02T14:58:25Z</time>
      </trkpt>
      <trkpt lat="47.452" lon="8.45492">
        <ele>427.9</ele>
        <time>2022-10-02T14:58:26Z</time>
      </trkpt>
      <trkpt lat="47.45199" lon="8.45498">
        <ele>427.9</ele>
        <time>2022-10-02T14:58:27Z</time>
      </trkpt>
      <trkpt lat="47.45198" lon="8.45504">
        <ele>428</ele>
        <time>2022-10-02T14:58:28Z</time>
      </trkpt>
      <trkpt lat="47.45197" lon="8.45509">
        <ele>428</ele>
        <time>2022-10-02T14:58:29Z</time>
      </trkpt>
      <trkpt lat="47.45195" lon="8.45515">
        <ele>428.1</ele>
        <time>2022-10-02T14:58:30Z</time>
      </trkpt>
      <trkpt lat="47.45194" lon="8.4552">
        <ele>428.1</ele>
        <time>2022-10-02T14:58:31Z</time>
      </trkpt>
      <trkpt lat="47.45192" lon="8.45524">
        <ele>428.1</ele>
        <time>2022-10-02T14:58:32Z</time>
      </trkpt>
      <trkpt lat="47.4519" lon="8.45528">
        <ele>428.2</ele>
        <time>2022-10-02T14:58:33Z</time>
      </trkpt>
      <trkpt lat="47.45189" lon="8.45532">
        <ele>428.2</ele>
        <time>2022-10-02T14:58:34Z</time>
      </trkpt>
      <trkpt lat="47.45187" lon="8.45537">
        <ele>428.2</ele>
        <time>2022-10-02T14:58:35Z</time>
      </trkpt>
      <trkpt lat="47.45186" lon="8.45541">
        <ele>428.3</ele>
        <time>2022-10-02T14:58:36Z</time>
      </trkpt>
      <trkpt lat="47.45184" lon="8.45546">
        <ele>428.3</ele>
        <time>2022-10-02T14:58:37Z</time>
      </trkpt>
      <trkpt lat="47.45181" lon="8.45553">
        <ele>428.3</ele>
        <time>2022-10-02T14:58:38Z</time>
      </trkpt>
      <trkpt lat="47.4518" lon="8.45558">
        <ele>428.3</ele>
        <time>2022-10-02T14:58:39Z</time>
      </trkpt>
      <trkpt lat="47.45178" lon="8.45562">
        <ele>428.3</ele>
        <time>2022-10-02T14:58:40Z</time>
      </trkpt>
      <trkpt lat="47.45176" lon="8.45567">
        <ele>428.3</ele>
        <time>2022-10-02T14:58:41Z</time>
      </trkpt>
      <trkpt lat="47.45174" lon="8.45572">
        <ele>428.3</ele>
        <time>2022-10-02T14:58:42Z</time>
      </trkpt>
      <trkpt lat="47.45172" lon="8.45575">
        <ele>428.3</ele>
        <time>2022-10-02T14:58:43Z</time>
      </trkpt>
      <trkpt lat="47.4517" lon="8.45579">
        <ele>428.4</ele>
        <time>2022-10-02T14:58:44Z</time>
      </trkpt>
      <trkpt lat="47.45168" lon="8.45586">
        <ele>428.4</ele>
        <time>2022-10-02T14:58:45Z</time>
      </trkpt>
      <trkpt lat="47.45166" lon="8.45592">
        <ele>428.4</ele>
        <time>2022-10-02T14:58:46Z</time>
      </trkpt>
      <trkpt lat="47.45164" lon="8.45597">
        <ele>428.4</ele>
        <time>2022-10-02T14:58:47Z</time>
      </trkpt>
      <trkpt lat="47.45161" lon="8.45603">
        <ele>428.4</ele>
        <time>2022-10-02T14:58:48Z</time>
      </trkpt>
      <trkpt lat="47.45158" lon="8.45608">
        <ele>428.4</ele>
        <time>2022-10-02T14:58:49Z</time>
      </trkpt>
      <trkpt lat="47.45156" lon="8.45613">
        <ele>428.4</ele>
        <time>2022-10-02T14:58:50Z</time>
      </trkpt>
      <trkpt lat="47.45154" lon="8.45618">
        <ele>428.4</ele>
        <time>2022-10-02T14:58:51Z</time>
      </trkpt>
      <trkpt lat="47.45152" lon="8.45622">
        <ele>428.4</ele>
        <time>2022-10-02T14:58:52Z</time>
      </trkpt>
      <trkpt lat="47.45149" lon="8.45628">
        <ele>428.5</ele>
        <time>2022-10-02T14:58:53Z</time>
      </trkpt>
      <trkpt lat="47.45147" lon="8.45633">
        <ele>428.5</ele>
        <time>2022-10-02T14:58:54Z</time>
      </trkpt>
      <trkpt lat="47.45144" lon="8.45638">
        <ele>428.5</ele>
        <time>2022-10-02T14:58:55Z</time>
      </trkpt>
      <trkpt lat="47.45142" lon="8.45643">
        <ele>428.6</ele>
        <time>2022-10-02T14:58:56Z</time>
      </trkpt>
      <trkpt lat="47.4514" lon="8.45648">
        <ele>428.6</ele>
        <time>2022-10-02T14:58:57Z</time>
      </trkpt>
      <trkpt lat="47.45138" lon="8.45653">
        <ele>428.6</ele>
        <time>2022-10-02T14:58:58Z</time>
      </trkpt>
      <trkpt lat="47.45136" lon="8.45658">
        <ele>428.6</ele>
        <time>2022-10-02T14:58:59Z</time>
      </trkpt>
      <trkpt lat="47.45133" lon="8.45663">
        <ele>428.7</ele>
        <time>2022-10-02T14:59:00Z</time>
      </trkpt>
      <trkpt lat="47.45131" lon="8.45668">
        <ele>428.7</ele>
        <time>2022-10-02T14:59:01Z</time>
      </trkpt>
      <trkpt lat="47.45129" lon="8.45673">
        <ele>428.7</ele>
        <time>2022-10-02T14:59:02Z</time>
      </trkpt>
      <trkpt lat="47.45127" lon="8.45678">
        <ele>428.8</ele>
        <time>2022-10-02T14:59:03Z</time>
      </trkpt>
      <trkpt lat="47.45126" lon="8.45683">
        <ele>428.8</ele>
        <time>2022-10-02T14:59:04Z</time>
      </trkpt>
      <trkpt lat="47.45123" lon="8.45686">
        <ele>428.8</ele>
        <time>2022-10-02T14:59:05Z</time>
      </trkpt>
      <trkpt lat="47.45121" lon="8.45691">
        <ele>428.9</ele>
        <time>2022-10-02T14:59:06Z</time>
      </trkpt>
      <trkpt lat="47.4512" lon="8.45696">
        <ele>428.9</ele>
        <time>2022-10-02T14:59:07Z</time>
      </trkpt>
      <trkpt lat="47.45118" lon="8.457">
        <ele>428.9</ele>
        <time>2022-10-02T14:59:08Z</time>
      </trkpt>
      <trkpt lat="47.45115" lon="8.45705">
        <ele>428.9</ele>
        <time>2022-10-02T14:59:09Z</time>
      </trkpt>
      <trkpt lat="47.45114" lon="8.4571">
        <ele>428.9</ele>
        <time>2022-10-02T14:59:10Z</time>
      </trkpt>
      <trkpt lat="47.45112" lon="8.45716">
        <ele>428.9</ele>
        <time>2022-10-02T14:59:11Z</time>
      </trkpt>
      <trkpt lat="47.4511" lon="8.4572">
        <ele>428.9</ele>
        <time>2022-10-02T14:59:12Z</time>
      </trkpt>
      <trkpt lat="47.45107" lon="8.45726">
        <ele>428.9</ele>
        <time>2022-10-02T14:59:13Z</time>
      </trkpt>
      <trkpt lat="47.45106" lon="8.45731">
        <ele>428.9</ele>
        <time>2022-10-02T14:59:14Z</time>
      </trkpt>
      <trkpt lat="47.45104" lon="8.45736">
        <ele>428.9</ele>
        <time>2022-10-02T14:59:15Z</time>
      </trkpt>
      <trkpt lat="47.45102" lon="8.45742">
        <ele>428.9</ele>
        <time>2022-10-02T14:59:16Z</time>
      </trkpt>
      <trkpt lat="47.451" lon="8.45747">
        <ele>428.9</ele>
        <time>2022-10-02T14:59:17Z</time>
      </trkpt>
      <trkpt lat="47.45099" lon="8.45752">
        <ele>429</ele>
        <time>2022-10-02T14:59:18Z</time>
      </trkpt>
      <trkpt lat="47.45097" lon="8.45757">
        <ele>429</ele>
        <time>2022-10-02T14:59:19Z</time>
      </trkpt>
      <trkpt lat="47.45095" lon="8.45762">
        <ele>429</ele>
        <time>2022-10-02T14:59:20Z</time>
      </trkpt>
      <trkpt lat="47.45094" lon="8.45767">
        <ele>429</ele>
        <time>2022-10-02T14:59:21Z</time>
      </trkpt>
      <trkpt lat="47.45092" lon="8.45771">
        <ele>429</ele>
        <time>2022-10-02T14:59:22Z</time>
      </trkpt>
      <trkpt lat="47.4509" lon="8.45775">
        <ele>429.1</ele>
        <time>2022-10-02T14:59:23Z</time>
      </trkpt>
      <trkpt lat="47.45088" lon="8.45781">
        <ele>429.1</ele>
        <time>2022-10-02T14:59:24Z</time>
      </trkpt>
      <trkpt lat="47.45086" lon="8.45787">
        <ele>429.1</ele>
        <time>2022-10-02T14:59:25Z</time>
      </trkpt>
      <trkpt lat="47.45084" lon="8.45793">
        <ele>429.1</ele>
        <time>2022-10-02T14:59:26Z</time>
      </trkpt>
      <trkpt lat="47.45082" lon="8.45798">
        <ele>429.1</ele>
        <time>2022-10-02T14:59:27Z</time>
      </trkpt>
      <trkpt lat="47.45079" lon="8.45803">
        <ele>429.1</ele>
        <time>2022-10-02T14:59:28Z</time>
      </trkpt>
      <trkpt lat="47.45077" lon="8.45809">
        <ele>429.2</ele>
        <time>2022-10-02T14:59:29Z</time>
      </trkpt>
      <trkpt lat="47.45075" lon="8.45815">
        <ele>429.2</ele>
        <time>2022-10-02T14:59:30Z</time>
      </trkpt>
      <trkpt lat="47.45073" lon="8.45819">
        <ele>429.2</ele>
        <time>2022-10-02T14:59:31Z</time>
      </trkpt>
      <trkpt lat="47.45071" lon="8.45825">
        <ele>429.2</ele>
        <time>2022-10-02T14:59:32Z</time>
      </trkpt>
      <trkpt lat="47.45068" lon="8.4583">
        <ele>429.2</ele>
        <time>2022-10-02T14:59:33Z</time>
      </trkpt>
      <trkpt lat="47.45066" lon="8.45835">
        <ele>429.2</ele>
        <time>2022-10-02T14:59:34Z</time>
      </trkpt>
      <trkpt lat="47.45064" lon="8.45841">
        <ele>429.2</ele>
        <time>2022-10-02T14:59:35Z</time>
      </trkpt>
      <trkpt lat="47.45062" lon="8.45847">
        <ele>429.2</ele>
        <time>2022-10-02T14:59:36Z</time>
      </trkpt>
      <trkpt lat="47.4506" lon="8.45854">
        <ele>429.2</ele>
        <time>2022-10-02T14:59:37Z</time>
      </trkpt>
      <trkpt lat="47.45057" lon="8.45859">
        <ele>429.2</ele>
        <time>2022-10-02T14:59:38Z</time>
      </trkpt>
      <trkpt lat="47.45055" lon="8.45863">
        <ele>429.3</ele>
        <time>2022-10-02T14:59:39Z</time>
      </trkpt>
      <trkpt lat="47.45054" lon="8.45868">
        <ele>429.3</ele>
        <time>2022-10-02T14:59:40Z</time>
      </trkpt>
      <trkpt lat="47.45053" lon="8.45872">
        <ele>429.3</ele>
        <time>2022-10-02T14:59:41Z</time>
      </trkpt>
      <trkpt lat="47.4505" lon="8.45876">
        <ele>429.4</ele>
        <time>2022-10-02T14:59:42Z</time>
      </trkpt>
      <trkpt lat="47.45049" lon="8.45881">
        <ele>429.4</ele>
        <time>2022-10-02T14:59:43Z</time>
      </trkpt>
      <trkpt lat="47.45045" lon="8.45886">
        <ele>429.4</ele>
        <time>2022-10-02T14:59:44Z</time>
      </trkpt>
      <trkpt lat="47.45044" lon="8.45889">
        <ele>429.4</ele>
        <time>2022-10-02T14:59:45Z</time>
      </trkpt>
      <trkpt lat="47.45042" lon="8.45892">
        <ele>429.5</ele>
        <time>2022-10-02T14:59:46Z</time>
      </trkpt>
      <trkpt lat="47.45039" lon="8.45898">
        <ele>429.5</ele>
        <time>2022-10-02T14:59:47Z</time>
      </trkpt>
      <trkpt lat="47.45036" lon="8.45906">
        <ele>429.6</ele>
        <time>2022-10-02T14:59:49Z</time>
      </trkpt>
      <trkpt lat="47.45032" lon="8.45916">
        <ele>429.7</ele>
        <time>2022-10-02T14:59:50Z</time>
      </trkpt>
      <trkpt lat="47.4503" lon="8.45921">
        <ele>429.7</ele>
        <time>2022-10-02T14:59:51Z</time>
      </trkpt>
      <trkpt lat="47.45028" lon="8.45926">
        <ele>429.7</ele>
        <time>2022-10-02T14:59:53Z</time>
      </trkpt>
      <trkpt lat="47.45026" lon="8.45932">
        <ele>429.8</ele>
        <time>2022-10-02T14:59:54Z</time>
      </trkpt>
      <trkpt lat="47.45023" lon="8.45938">
        <ele>429.8</ele>
        <time>2022-10-02T14:59:55Z</time>
      </trkpt>
      <trkpt lat="47.45022" lon="8.4594">
        <ele>429.9</ele>
        <time>2022-10-02T14:59:56Z</time>
      </trkpt>
      <trkpt lat="47.4502" lon="8.45944">
        <ele>429.9</ele>
        <time>2022-10-02T14:59:57Z</time>
      </trkpt>
      <trkpt lat="47.45017" lon="8.45952">
        <ele>430</ele>
        <time>2022-10-02T14:59:58Z</time>
      </trkpt>
      <trkpt lat="47.45015" lon="8.45957">
        <ele>430</ele>
        <time>2022-10-02T14:59:59Z</time>
      </trkpt>
      <trkpt lat="47.45014" lon="8.45957">
        <ele>430</ele>
        <time>2022-10-02T15:00:00Z</time>
      </trkpt>
      <trkpt lat="47.45012" lon="8.45961">
        <ele>430.1</ele>
        <time>2022-10-02T15:00:01Z</time>
      </trkpt>
      <trkpt lat="47.45009" lon="8.45969">
        <ele>430.1</ele>
        <time>2022-10-02T15:00:03Z</time>
      </trkpt>
      <trkpt lat="47.45007" lon="8.45974">
        <ele>430.2</ele>
        <time>2022-10-02T15:00:04Z</time>
      </trkpt>
      <trkpt lat="47.45005" lon="8.45977">
        <ele>430.2</ele>
        <time>2022-10-02T15:00:05Z</time>
      </trkpt>
      <trkpt lat="47.45003" lon="8.45982">
        <ele>430.3</ele>
        <time>2022-10-02T15:00:07Z</time>
      </trkpt>
      <trkpt lat="47.45001" lon="8.45986">
        <ele>430.3</ele>
        <time>2022-10-02T15:00:08Z</time>
      </trkpt>
      <trkpt lat="47.45" lon="8.45991">
        <ele>430.3</ele>
        <time>2022-10-02T15:00:09Z</time>
      </trkpt>
      <trkpt lat="47.44998" lon="8.45995">
        <ele>430.3</ele>
        <time>2022-10-02T15:00:10Z</time>
      </trkpt>
      <trkpt lat="47.44996" lon="8.45999">
        <ele>430.3</ele>
        <time>2022-10-02T15:00:11Z</time>
      </trkpt>
      <trkpt lat="47.44994" lon="8.46005">
        <ele>430.4</ele>
        <time>2022-10-02T15:00:12Z</time>
      </trkpt>
      <trkpt lat="47.44993" lon="8.46011">
        <ele>430.4</ele>
        <time>2022-10-02T15:00:13Z</time>
      </trkpt>
      <trkpt lat="47.44991" lon="8.46015">
        <ele>430.4</ele>
        <time>2022-10-02T15:00:14Z</time>
      </trkpt>
      <trkpt lat="47.44989" lon="8.46022">
        <ele>430.4</ele>
        <time>2022-10-02T15:00:15Z</time>
      </trkpt>
      <trkpt lat="47.44987" lon="8.46028">
        <ele>430.5</ele>
        <time>2022-10-02T15:00:16Z</time>
      </trkpt>
      <trkpt lat="47.44986" lon="8.46034">
        <ele>430.5</ele>
        <time>2022-10-02T15:00:17Z</time>
      </trkpt>
      <trkpt lat="47.44984" lon="8.46038">
        <ele>430.5</ele>
        <time>2022-10-02T15:00:18Z</time>
      </trkpt>
      <trkpt lat="47.44983" lon="8.46043">
        <ele>430.5</ele>
        <time>2022-10-02T15:00:19Z</time>
      </trkpt>
      <trkpt lat="47.44981" lon="8.46047">
        <ele>430.6</ele>
        <time>2022-10-02T15:00:20Z</time>
      </trkpt>
      <trkpt lat="47.4498" lon="8.46051">
        <ele>430.6</ele>
        <time>2022-10-02T15:00:21Z</time>
      </trkpt>
      <trkpt lat="47.44976" lon="8.4606">
        <ele>430.6</ele>
        <time>2022-10-02T15:00:22Z</time>
      </trkpt>
      <trkpt lat="47.44974" lon="8.46064">
        <ele>430.6</ele>
        <time>2022-10-02T15:00:23Z</time>
      </trkpt>
      <trkpt lat="47.44974" lon="8.46066">
        <ele>430.6</ele>
        <time>2022-10-02T15:00:24Z</time>
      </trkpt>
      <trkpt lat="47.44972" lon="8.46071">
        <ele>430.6</ele>
        <time>2022-10-02T15:00:25Z</time>
      </trkpt>
      <trkpt lat="47.4497" lon="8.46077">
        <ele>430.5</ele>
        <time>2022-10-02T15:00:26Z</time>
      </trkpt>
      <trkpt lat="47.44968" lon="8.46081">
        <ele>430.5</ele>
        <time>2022-10-02T15:00:27Z</time>
      </trkpt>
      <trkpt lat="47.44966" lon="8.46086">
        <ele>430.5</ele>
        <time>2022-10-02T15:00:28Z</time>
      </trkpt>
      <trkpt lat="47.44965" lon="8.4609">
        <ele>430.5</ele>
        <time>2022-10-02T15:00:29Z</time>
      </trkpt>
      <trkpt lat="47.44963" lon="8.46095">
        <ele>430.5</ele>
        <time>2022-10-02T15:00:30Z</time>
      </trkpt>
      <trkpt lat="47.44961" lon="8.461">
        <ele>430.4</ele>
        <time>2022-10-02T15:00:31Z</time>
      </trkpt>
      <trkpt lat="47.44959" lon="8.46106">
        <ele>430.4</ele>
        <time>2022-10-02T15:00:32Z</time>
      </trkpt>
      <trkpt lat="47.44957" lon="8.46111">
        <ele>430.4</ele>
        <time>2022-10-02T15:00:33Z</time>
      </trkpt>
      <trkpt lat="47.44955" lon="8.46116">
        <ele>430.3</ele>
        <time>2022-10-02T15:00:34Z</time>
      </trkpt>
      <trkpt lat="47.44953" lon="8.46121">
        <ele>430.3</ele>
        <time>2022-10-02T15:00:35Z</time>
      </trkpt>
      <trkpt lat="47.44951" lon="8.46127">
        <ele>430.3</ele>
        <time>2022-10-02T15:00:36Z</time>
      </trkpt>
      <trkpt lat="47.44949" lon="8.46132">
        <ele>430.2</ele>
        <time>2022-10-02T15:00:37Z</time>
      </trkpt>
      <trkpt lat="47.44947" lon="8.46136">
        <ele>430.2</ele>
        <time>2022-10-02T15:00:38Z</time>
      </trkpt>
      <trkpt lat="47.44944" lon="8.46141">
        <ele>430.2</ele>
        <time>2022-10-02T15:00:39Z</time>
      </trkpt>
      <trkpt lat="47.44943" lon="8.46144">
        <ele>430.2</ele>
        <time>2022-10-02T15:00:40Z</time>
      </trkpt>
      <trkpt lat="47.44939" lon="8.46148">
        <ele>430.1</ele>
        <time>2022-10-02T15:00:41Z</time>
      </trkpt>
      <trkpt lat="47.44937" lon="8.4615">
        <ele>430.1</ele>
        <time>2022-10-02T15:00:42Z</time>
      </trkpt>
      <trkpt lat="47.44934" lon="8.46155">
        <ele>430.1</ele>
        <time>2022-10-02T15:00:43Z</time>
      </trkpt>
      <trkpt lat="47.44931" lon="8.46158">
        <ele>430.1</ele>
        <time>2022-10-02T15:00:44Z</time>
      </trkpt>
      <trkpt lat="47.44928" lon="8.46161">
        <ele>430.1</ele>
        <time>2022-10-02T15:00:45Z</time>
      </trkpt>
      <trkpt lat="47.44925" lon="8.46165">
        <ele>430.1</ele>
        <time>2022-10-02T15:00:46Z</time>
      </trkpt>
      <trkpt lat="47.44922" lon="8.46168">
        <ele>430</ele>
        <time>2022-10-02T15:00:47Z</time>
      </trkpt>
      <trkpt lat="47.44919" lon="8.46172">
        <ele>430</ele>
        <time>2022-10-02T15:00:48Z</time>
      </trkpt>
      <trkpt lat="47.44916" lon="8.46175">
        <ele>430</ele>
        <time>2022-10-02T15:00:49Z</time>
      </trkpt>
      <trkpt lat="47.44912" lon="8.46178">
        <ele>430</ele>
        <time>2022-10-02T15:00:50Z</time>
      </trkpt>
      <trkpt lat="47.4491" lon="8.46181">
        <ele>430</ele>
        <time>2022-10-02T15:00:51Z</time>
      </trkpt>
      <trkpt lat="47.44907" lon="8.46183">
        <ele>430.1</ele>
        <time>2022-10-02T15:00:52Z</time>
      </trkpt>
      <trkpt lat="47.44903" lon="8.46186">
        <ele>430.1</ele>
        <time>2022-10-02T15:00:53Z</time>
      </trkpt>
      <trkpt lat="47.44899" lon="8.46189">
        <ele>430.1</ele>
        <time>2022-10-02T15:00:54Z</time>
      </trkpt>
      <trkpt lat="47.44898" lon="8.4619">
        <ele>430.1</ele>
        <time>2022-10-02T15:00:55Z</time>
      </trkpt>
      <trkpt lat="47.44895" lon="8.46192">
        <ele>430.2</ele>
        <time>2022-10-02T15:00:56Z</time>
      </trkpt>
      <trkpt lat="47.44892" lon="8.46195">
        <ele>430.2</ele>
        <time>2022-10-02T15:00:57Z</time>
      </trkpt>
      <trkpt lat="47.44891" lon="8.46196">
        <ele>430.2</ele>
        <time>2022-10-02T15:00:58Z</time>
      </trkpt>
      <trkpt lat="47.4489" lon="8.462">
        <ele>430.3</ele>
        <time>2022-10-02T15:00:59Z</time>
      </trkpt>
      <trkpt lat="47.44889" lon="8.46204">
        <ele>430.2</ele>
        <time>2022-10-02T15:01:00Z</time>
      </trkpt>
      <trkpt lat="47.44888" lon="8.46209">
        <ele>430.2</ele>
        <time>2022-10-02T15:01:01Z</time>
      </trkpt>
      <trkpt lat="47.44887" lon="8.46211">
        <ele>430.1</ele>
        <time>2022-10-02T15:01:02Z</time>
      </trkpt>
      <trkpt lat="47.44885" lon="8.46216">
        <ele>430</ele>
        <time>2022-10-02T15:01:03Z</time>
      </trkpt>
      <trkpt lat="47.44883" lon="8.46223">
        <ele>430</ele>
        <time>2022-10-02T15:01:04Z</time>
      </trkpt>
      <trkpt lat="47.44883" lon="8.46232">
        <ele>429.8</ele>
        <time>2022-10-02T15:01:05Z</time>
      </trkpt>
      <trkpt lat="47.44883" lon="8.4624">
        <ele>429.7</ele>
        <time>2022-10-02T15:01:06Z</time>
      </trkpt>
      <trkpt lat="47.44883" lon="8.46246">
        <ele>429.7</ele>
        <time>2022-10-02T15:01:07Z</time>
      </trkpt>
      <trkpt lat="47.44882" lon="8.46257">
        <ele>429.6</ele>
        <time>2022-10-02T15:01:08Z</time>
      </trkpt>
      <trkpt lat="47.44883" lon="8.46267">
        <ele>429.7</ele>
        <time>2022-10-02T15:01:09Z</time>
      </trkpt>
      <trkpt lat="47.44887" lon="8.46276">
        <ele>430.1</ele>
        <time>2022-10-02T15:01:10Z</time>
      </trkpt>
      <trkpt lat="47.44888" lon="8.46283">
        <ele>430.4</ele>
        <time>2022-10-02T15:01:11Z</time>
      </trkpt>
      <trkpt lat="47.44889" lon="8.46288">
        <ele>430.6</ele>
        <time>2022-10-02T15:01:12Z</time>
      </trkpt>
      <trkpt lat="47.4489" lon="8.46292">
        <ele>430.8</ele>
        <time>2022-10-02T15:01:13Z</time>
      </trkpt>
      <trkpt lat="47.44891" lon="8.46296">
        <ele>430.9</ele>
        <time>2022-10-02T15:01:14Z</time>
      </trkpt>
      <trkpt lat="47.44891" lon="8.46301">
        <ele>431.1</ele>
        <time>2022-10-02T15:01:15Z</time>
      </trkpt>
      <trkpt lat="47.44892" lon="8.46303">
        <ele>431.2</ele>
        <time>2022-10-02T15:01:16Z</time>
      </trkpt>
      <trkpt lat="47.44892" lon="8.46306">
        <ele>431.3</ele>
        <time>2022-10-02T15:01:17Z</time>
      </trkpt>
      <trkpt lat="47.44892" lon="8.46308">
        <ele>431.4</ele>
        <time>2022-10-02T15:01:18Z</time>
      </trkpt>
      <trkpt lat="47.44892" lon="8.46309">
        <ele>431.4</ele>
        <time>2022-10-02T15:01:19Z</time>
      </trkpt>
      <trkpt lat="47.44893" lon="8.46312">
        <ele>431.5</ele>
        <time>2022-10-02T15:01:20Z</time>
      </trkpt>
      <trkpt lat="47.44893" lon="8.46314">
        <ele>431.5</ele>
        <time>2022-10-02T15:01:21Z</time>
      </trkpt>
      <trkpt lat="47.44893" lon="8.46316">
        <ele>431.6</ele>
        <time>2022-10-02T15:01:22Z</time>
      </trkpt>
      <trkpt lat="47.44892" lon="8.46318">
        <ele>431.7</ele>
        <time>2022-10-02T15:01:23Z</time>
      </trkpt>
      <trkpt lat="47.4489" lon="8.4632">
        <ele>431.7</ele>
        <time>2022-10-02T15:01:24Z</time>
      </trkpt>
      <trkpt lat="47.44889" lon="8.46322">
        <ele>431.9</ele>
        <time>2022-10-02T15:01:25Z</time>
      </trkpt>
      <trkpt lat="47.44886" lon="8.46319">
        <ele>431.9</ele>
        <time>2022-10-02T15:01:26Z</time>
      </trkpt>
      <trkpt lat="47.44885" lon="8.46318">
        <ele>431.9</ele>
        <time>2022-10-02T15:01:27Z</time>
      </trkpt>
      <trkpt lat="47.44884" lon="8.46317">
        <ele>431.9</ele>
        <time>2022-10-02T15:01:28Z</time>
      </trkpt>
      <trkpt lat="47.44883" lon="8.46313">
        <ele>431.9</ele>
        <time>2022-10-02T15:01:29Z</time>
      </trkpt>
      <trkpt lat="47.44881" lon="8.46309">
        <ele>431.9</ele>
        <time>2022-10-02T15:01:30Z</time>
      </trkpt>
      <trkpt lat="47.44879" lon="8.46305">
        <ele>431.9</ele>
        <time>2022-10-02T15:01:31Z</time>
      </trkpt>
      <trkpt lat="47.44878" lon="8.46301">
        <ele>431.9</ele>
        <time>2022-10-02T15:01:32Z</time>
      </trkpt>
      <trkpt lat="47.44876" lon="8.46296">
        <ele>431.8</ele>
        <time>2022-10-02T15:01:33Z</time>
      </trkpt>
      <trkpt lat="47.44874" lon="8.46291">
        <ele>431.8</ele>
        <time>2022-10-02T15:01:34Z</time>
      </trkpt>
      <trkpt lat="47.44871" lon="8.46286">
        <ele>431.8</ele>
        <time>2022-10-02T15:01:35Z</time>
      </trkpt>
      <trkpt lat="47.44869" lon="8.46279">
        <ele>431.8</ele>
        <time>2022-10-02T15:01:36Z</time>
      </trkpt>
      <trkpt lat="47.44866" lon="8.46273">
        <ele>431.7</ele>
        <time>2022-10-02T15:01:37Z</time>
      </trkpt>
      <trkpt lat="47.44865" lon="8.46268">
        <ele>431.7</ele>
        <time>2022-10-02T15:01:38Z</time>
      </trkpt>
      <trkpt lat="47.44863" lon="8.46262">
        <ele>431.6</ele>
        <time>2022-10-02T15:01:39Z</time>
      </trkpt>
      <trkpt lat="47.44861" lon="8.46257">
        <ele>431.6</ele>
        <time>2022-10-02T15:01:40Z</time>
      </trkpt>
      <trkpt lat="47.44858" lon="8.46251">
        <ele>431.5</ele>
        <time>2022-10-02T15:01:41Z</time>
      </trkpt>
      <trkpt lat="47.44855" lon="8.46246">
        <ele>431.5</ele>
        <time>2022-10-02T15:01:42Z</time>
      </trkpt>
      <trkpt lat="47.44852" lon="8.46244">
        <ele>431.5</ele>
        <time>2022-10-02T15:01:43Z</time>
      </trkpt>
      <trkpt lat="47.4485" lon="8.46243">
        <ele>431.5</ele>
        <time>2022-10-02T15:01:44Z</time>
      </trkpt>
      <trkpt lat="47.44847" lon="8.46244">
        <ele>431.5</ele>
        <time>2022-10-02T15:01:45Z</time>
      </trkpt>
      <trkpt lat="47.44843" lon="8.46246">
        <ele>431.5</ele>
        <time>2022-10-02T15:01:46Z</time>
      </trkpt>
      <trkpt lat="47.4484" lon="8.46247">
        <ele>431.4</ele>
        <time>2022-10-02T15:01:47Z</time>
      </trkpt>
      <trkpt lat="47.44837" lon="8.46249">
        <ele>431.4</ele>
        <time>2022-10-02T15:01:48Z</time>
      </trkpt>
      <trkpt lat="47.44836" lon="8.4625">
        <ele>431.4</ele>
        <time>2022-10-02T15:01:49Z</time>
      </trkpt>
      <trkpt lat="47.44833" lon="8.46253">
        <ele>431.4</ele>
        <time>2022-10-02T15:01:50Z</time>
      </trkpt>
      <trkpt lat="47.44831" lon="8.46256">
        <ele>431.4</ele>
        <time>2022-10-02T15:01:51Z</time>
      </trkpt>
      <trkpt lat="47.44829" lon="8.4626">
        <ele>431.4</ele>
        <time>2022-10-02T15:01:52Z</time>
      </trkpt>
      <trkpt lat="47.44826" lon="8.46263">
        <ele>431.4</ele>
        <time>2022-10-02T15:01:53Z</time>
      </trkpt>
      <trkpt lat="47.44825" lon="8.46264">
        <ele>431.4</ele>
        <time>2022-10-02T15:01:54Z</time>
      </trkpt>
      <trkpt lat="47.44822" lon="8.46267">
        <ele>431.4</ele>
        <time>2022-10-02T15:01:55Z</time>
      </trkpt>
      <trkpt lat="47.44818" lon="8.46269">
        <ele>431.4</ele>
        <time>2022-10-02T15:01:57Z</time>
      </trkpt>
      <trkpt lat="47.44815" lon="8.4627">
        <ele>431.4</ele>
        <time>2022-10-02T15:01:58Z</time>
      </trkpt>
      <trkpt lat="47.44811" lon="8.46273">
        <ele>431.4</ele>
        <time>2022-10-02T15:01:59Z</time>
      </trkpt>
      <trkpt lat="47.44809" lon="8.46276">
        <ele>431.4</ele>
        <time>2022-10-02T15:02:00Z</time>
      </trkpt>
      <trkpt lat="47.44807" lon="8.4628">
        <ele>431.4</ele>
        <time>2022-10-02T15:02:01Z</time>
      </trkpt>
      <trkpt lat="47.44805" lon="8.46283">
        <ele>431.5</ele>
        <time>2022-10-02T15:02:02Z</time>
      </trkpt>
      <trkpt lat="47.44801" lon="8.46287">
        <ele>431.5</ele>
        <time>2022-10-02T15:02:03Z</time>
      </trkpt>
      <trkpt lat="47.44798" lon="8.46289">
        <ele>431.5</ele>
        <time>2022-10-02T15:02:04Z</time>
      </trkpt>
      <trkpt lat="47.44793" lon="8.46291">
        <ele>431.6</ele>
        <time>2022-10-02T15:02:05Z</time>
      </trkpt>
      <trkpt lat="47.44789" lon="8.46294">
        <ele>431.6</ele>
        <time>2022-10-02T15:02:06Z</time>
      </trkpt>
      <trkpt lat="47.44786" lon="8.46298">
        <ele>431.6</ele>
        <time>2022-10-02T15:02:07Z</time>
      </trkpt>
      <trkpt lat="47.44779" lon="8.46307">
        <ele>431.6</ele>
        <time>2022-10-02T15:02:08Z</time>
      </trkpt>
      <trkpt lat="47.44776" lon="8.4631">
        <ele>431.7</ele>
        <time>2022-10-02T15:02:09Z</time>
      </trkpt>
      <trkpt lat="47.44772" lon="8.46314">
        <ele>431.7</ele>
        <time>2022-10-02T15:02:10Z</time>
      </trkpt>
      <trkpt lat="47.4477" lon="8.46316">
        <ele>431.7</ele>
        <time>2022-10-02T15:02:11Z</time>
      </trkpt>
      <trkpt lat="47.44765" lon="8.46317">
        <ele>431.7</ele>
        <time>2022-10-02T15:02:13Z</time>
      </trkpt>
      <trkpt lat="47.44762" lon="8.46318">
        <ele>431.7</ele>
        <time>2022-10-02T15:02:14Z</time>
      </trkpt>
      <trkpt lat="47.44757" lon="8.46321">
        <ele>431.7</ele>
        <time>2022-10-02T15:02:15Z</time>
      </trkpt>
      <trkpt lat="47.44754" lon="8.46325">
        <ele>431.8</ele>
        <time>2022-10-02T15:02:16Z</time>
      </trkpt>
      <trkpt lat="47.44751" lon="8.46329">
        <ele>431.8</ele>
        <time>2022-10-02T15:02:17Z</time>
      </trkpt>
      <trkpt lat="47.44748" lon="8.46332">
        <ele>431.8</ele>
        <time>2022-10-02T15:02:18Z</time>
      </trkpt>
      <trkpt lat="47.44746" lon="8.46335">
        <ele>431.8</ele>
        <time>2022-10-02T15:02:19Z</time>
      </trkpt>
      <trkpt lat="47.44742" lon="8.46336">
        <ele>431.8</ele>
        <time>2022-10-02T15:02:20Z</time>
      </trkpt>
      <trkpt lat="47.44738" lon="8.4634">
        <ele>431.8</ele>
        <time>2022-10-02T15:02:21Z</time>
      </trkpt>
      <trkpt lat="47.44735" lon="8.46343">
        <ele>431.8</ele>
        <time>2022-10-02T15:02:22Z</time>
      </trkpt>
      <trkpt lat="47.44732" lon="8.46347">
        <ele>431.8</ele>
        <time>2022-10-02T15:02:23Z</time>
      </trkpt>
      <trkpt lat="47.44728" lon="8.4635">
        <ele>431.8</ele>
        <time>2022-10-02T15:02:24Z</time>
      </trkpt>
      <trkpt lat="47.44725" lon="8.46352">
        <ele>431.9</ele>
        <time>2022-10-02T15:02:25Z</time>
      </trkpt>
      <trkpt lat="47.44722" lon="8.46354">
        <ele>431.9</ele>
        <time>2022-10-02T15:02:26Z</time>
      </trkpt>
      <trkpt lat="47.44718" lon="8.46359">
        <ele>431.9</ele>
        <time>2022-10-02T15:02:27Z</time>
      </trkpt>
      <trkpt lat="47.44714" lon="8.46363">
        <ele>431.9</ele>
        <time>2022-10-02T15:02:28Z</time>
      </trkpt>
      <trkpt lat="47.4471" lon="8.46365">
        <ele>431.9</ele>
        <time>2022-10-02T15:02:29Z</time>
      </trkpt>
      <trkpt lat="47.44704" lon="8.46373">
        <ele>432</ele>
        <time>2022-10-02T15:02:30Z</time>
      </trkpt>
      <trkpt lat="47.447" lon="8.46377">
        <ele>432</ele>
        <time>2022-10-02T15:02:31Z</time>
      </trkpt>
      <trkpt lat="47.44695" lon="8.4638">
        <ele>432.1</ele>
        <time>2022-10-02T15:02:32Z</time>
      </trkpt>
      <trkpt lat="47.44692" lon="8.46384">
        <ele>432.1</ele>
        <time>2022-10-02T15:02:33Z</time>
      </trkpt>
      <trkpt lat="47.44689" lon="8.46388">
        <ele>432.2</ele>
        <time>2022-10-02T15:02:34Z</time>
      </trkpt>
      <trkpt lat="47.44686" lon="8.46389">
        <ele>432.2</ele>
        <time>2022-10-02T15:02:35Z</time>
      </trkpt>
      <trkpt lat="47.44683" lon="8.46392">
        <ele>432.3</ele>
        <time>2022-10-02T15:02:36Z</time>
      </trkpt>
      <trkpt lat="47.44679" lon="8.46396">
        <ele>432.4</ele>
        <time>2022-10-02T15:02:37Z</time>
      </trkpt>
      <trkpt lat="47.44677" lon="8.46398">
        <ele>432.4</ele>
        <time>2022-10-02T15:02:38Z</time>
      </trkpt>
      <trkpt lat="47.44675" lon="8.46401">
        <ele>432.4</ele>
        <time>2022-10-02T15:02:39Z</time>
      </trkpt>
      <trkpt lat="47.44672" lon="8.46404">
        <ele>432.5</ele>
        <time>2022-10-02T15:02:40Z</time>
      </trkpt>
      <trkpt lat="47.4467" lon="8.46405">
        <ele>432.5</ele>
        <time>2022-10-02T15:02:41Z</time>
      </trkpt>
      <trkpt lat="47.44668" lon="8.46409">
        <ele>432.6</ele>
        <time>2022-10-02T15:02:42Z</time>
      </trkpt>
      <trkpt lat="47.44668" lon="8.46413">
        <ele>432.7</ele>
        <time>2022-10-02T15:02:43Z</time>
      </trkpt>
      <trkpt lat="47.44668" lon="8.46419">
        <ele>432.7</ele>
        <time>2022-10-02T15:02:44Z</time>
      </trkpt>
      <trkpt lat="47.44667" lon="8.4642">
        <ele>432.8</ele>
        <time>2022-10-02T15:02:45Z</time>
      </trkpt>
      <trkpt lat="47.44667" lon="8.46425">
        <ele>432.8</ele>
        <time>2022-10-02T15:02:46Z</time>
      </trkpt>
      <trkpt lat="47.44666" lon="8.46432">
        <ele>432.9</ele>
        <time>2022-10-02T15:02:47Z</time>
      </trkpt>
      <trkpt lat="47.44665" lon="8.46435">
        <ele>433</ele>
        <time>2022-10-02T15:02:48Z</time>
      </trkpt>
      <trkpt lat="47.44663" lon="8.46441">
        <ele>433.1</ele>
        <time>2022-10-02T15:02:49Z</time>
      </trkpt>
      <trkpt lat="47.44662" lon="8.46445">
        <ele>433.2</ele>
        <time>2022-10-02T15:02:50Z</time>
      </trkpt>
      <trkpt lat="47.44662" lon="8.4645">
        <ele>433.3</ele>
        <time>2022-10-02T15:02:51Z</time>
      </trkpt>
      <trkpt lat="47.44661" lon="8.46456">
        <ele>433.5</ele>
        <time>2022-10-02T15:02:52Z</time>
      </trkpt>
      <trkpt lat="47.44661" lon="8.46458">
        <ele>433.5</ele>
        <time>2022-10-02T15:02:53Z</time>
      </trkpt>
      <trkpt lat="47.44661" lon="8.46463">
        <ele>433.7</ele>
        <time>2022-10-02T15:02:54Z</time>
      </trkpt>
      <trkpt lat="47.4466" lon="8.46464">
        <ele>433.7</ele>
        <time>2022-10-02T15:02:55Z</time>
      </trkpt>
      <trkpt lat="47.4466" lon="8.46469">
        <ele>433.8</ele>
        <time>2022-10-02T15:02:56Z</time>
      </trkpt>
      <trkpt lat="47.4466" lon="8.46474">
        <ele>434</ele>
        <time>2022-10-02T15:02:57Z</time>
      </trkpt>
      <trkpt lat="47.4466" lon="8.46476">
        <ele>434</ele>
        <time>2022-10-02T15:02:58Z</time>
      </trkpt>
      <trkpt lat="47.4466" lon="8.46481">
        <ele>434.2</ele>
        <time>2022-10-02T15:02:59Z</time>
      </trkpt>
      <trkpt lat="47.44661" lon="8.46482">
        <ele>434.2</ele>
        <time>2022-10-02T15:03:00Z</time>
      </trkpt>
      <trkpt lat="47.44661" lon="8.46485">
        <ele>434.3</ele>
        <time>2022-10-02T15:03:01Z</time>
      </trkpt>
      <trkpt lat="47.44662" lon="8.46487">
        <ele>434.4</ele>
        <time>2022-10-02T15:03:02Z</time>
      </trkpt>
      <trkpt lat="47.44662" lon="8.46492">
        <ele>434.5</ele>
        <time>2022-10-02T15:03:03Z</time>
      </trkpt>
      <trkpt lat="47.44662" lon="8.46494">
        <ele>434.5</ele>
        <time>2022-10-02T15:03:04Z</time>
      </trkpt>
      <trkpt lat="47.44661" lon="8.46499">
        <ele>434.6</ele>
        <time>2022-10-02T15:03:05Z</time>
      </trkpt>
      <trkpt lat="47.44661" lon="8.465">
        <ele>434.7</ele>
        <time>2022-10-02T15:03:06Z</time>
      </trkpt>
      <trkpt lat="47.44659" lon="8.46505">
        <ele>434.8</ele>
        <time>2022-10-02T15:03:07Z</time>
      </trkpt>
      <trkpt lat="47.44658" lon="8.46507">
        <ele>434.8</ele>
        <time>2022-10-02T15:03:08Z</time>
      </trkpt>
      <trkpt lat="47.44657" lon="8.46511">
        <ele>435</ele>
        <time>2022-10-02T15:03:09Z</time>
      </trkpt>
      <trkpt lat="47.44656" lon="8.46513">
        <ele>435</ele>
        <time>2022-10-02T15:03:10Z</time>
      </trkpt>
      <trkpt lat="47.44655" lon="8.46517">
        <ele>435.1</ele>
        <time>2022-10-02T15:03:11Z</time>
      </trkpt>
      <trkpt lat="47.44655" lon="8.46518">
        <ele>435.1</ele>
        <time>2022-10-02T15:03:12Z</time>
      </trkpt>
      <trkpt lat="47.44653" lon="8.46522">
        <ele>435.2</ele>
        <time>2022-10-02T15:03:13Z</time>
      </trkpt>
      <trkpt lat="47.44653" lon="8.46523">
        <ele>435.3</ele>
        <time>2022-10-02T15:03:14Z</time>
      </trkpt>
      <trkpt lat="47.44651" lon="8.46528">
        <ele>435.4</ele>
        <time>2022-10-02T15:03:15Z</time>
      </trkpt>
      <trkpt lat="47.44651" lon="8.4653">
        <ele>435.4</ele>
        <time>2022-10-02T15:03:16Z</time>
      </trkpt>
      <trkpt lat="47.44651" lon="8.46535">
        <ele>435.6</ele>
        <time>2022-10-02T15:03:17Z</time>
      </trkpt>
      <trkpt lat="47.4465" lon="8.46536">
        <ele>435.6</ele>
        <time>2022-10-02T15:03:18Z</time>
      </trkpt>
      <trkpt lat="47.44649" lon="8.4654">
        <ele>435.7</ele>
        <time>2022-10-02T15:03:19Z</time>
      </trkpt>
      <trkpt lat="47.44648" lon="8.46541">
        <ele>435.7</ele>
        <time>2022-10-02T15:03:20Z</time>
      </trkpt>
      <trkpt lat="47.44646" lon="8.46545">
        <ele>435.8</ele>
        <time>2022-10-02T15:03:21Z</time>
      </trkpt>
      <trkpt lat="47.44644" lon="8.46546">
        <ele>435.9</ele>
        <time>2022-10-02T15:03:22Z</time>
      </trkpt>
      <trkpt lat="47.44641" lon="8.46547">
        <ele>435.8</ele>
        <time>2022-10-02T15:03:23Z</time>
      </trkpt>
      <trkpt lat="47.44639" lon="8.46548">
        <ele>435.8</ele>
        <time>2022-10-02T15:03:24Z</time>
      </trkpt>
      <trkpt lat="47.44636" lon="8.4655">
        <ele>435.8</ele>
        <time>2022-10-02T15:03:25Z</time>
      </trkpt>
      <trkpt lat="47.44633" lon="8.4655">
        <ele>435.7</ele>
        <time>2022-10-02T15:03:26Z</time>
      </trkpt>
      <trkpt lat="47.44629" lon="8.46551">
        <ele>435.7</ele>
        <time>2022-10-02T15:03:27Z</time>
      </trkpt>
      <trkpt lat="47.44626" lon="8.46554">
        <ele>435.6</ele>
        <time>2022-10-02T15:03:28Z</time>
      </trkpt>
      <trkpt lat="47.44621" lon="8.46556">
        <ele>435.6</ele>
        <time>2022-10-02T15:03:29Z</time>
      </trkpt>
      <trkpt lat="47.44617" lon="8.46559">
        <ele>435.5</ele>
        <time>2022-10-02T15:03:30Z</time>
      </trkpt>
      <trkpt lat="47.44612" lon="8.46561">
        <ele>435.5</ele>
        <time>2022-10-02T15:03:31Z</time>
      </trkpt>
      <trkpt lat="47.44607" lon="8.46563">
        <ele>435.4</ele>
        <time>2022-10-02T15:03:32Z</time>
      </trkpt>
      <trkpt lat="47.44603" lon="8.46563">
        <ele>435.4</ele>
        <time>2022-10-02T15:03:33Z</time>
      </trkpt>
      <trkpt lat="47.44598" lon="8.46564">
        <ele>435.3</ele>
        <time>2022-10-02T15:03:34Z</time>
      </trkpt>
      <trkpt lat="47.44594" lon="8.46565">
        <ele>435.3</ele>
        <time>2022-10-02T15:03:35Z</time>
      </trkpt>
      <trkpt lat="47.4459" lon="8.46566">
        <ele>435.2</ele>
        <time>2022-10-02T15:03:36Z</time>
      </trkpt>
      <trkpt lat="47.44586" lon="8.46568">
        <ele>435.2</ele>
        <time>2022-10-02T15:03:37Z</time>
      </trkpt>
      <trkpt lat="47.44582" lon="8.46569">
        <ele>435.2</ele>
        <time>2022-10-02T15:03:38Z</time>
      </trkpt>
      <trkpt lat="47.44578" lon="8.4657">
        <ele>435.1</ele>
        <time>2022-10-02T15:03:39Z</time>
      </trkpt>
      <trkpt lat="47.44573" lon="8.46572">
        <ele>435.1</ele>
        <time>2022-10-02T15:03:40Z</time>
      </trkpt>
      <trkpt lat="47.44569" lon="8.46572">
        <ele>435</ele>
        <time>2022-10-02T15:03:41Z</time>
      </trkpt>
      <trkpt lat="47.44564" lon="8.46573">
        <ele>435</ele>
        <time>2022-10-02T15:03:42Z</time>
      </trkpt>
      <trkpt lat="47.4456" lon="8.46573">
        <ele>435</ele>
        <time>2022-10-02T15:03:43Z</time>
      </trkpt>
      <trkpt lat="47.44557" lon="8.46578">
        <ele>435</ele>
        <time>2022-10-02T15:03:44Z</time>
      </trkpt>
      <trkpt lat="47.44554" lon="8.46577">
        <ele>435</ele>
        <time>2022-10-02T15:03:45Z</time>
      </trkpt>
      <trkpt lat="47.4455" lon="8.4658">
        <ele>434.9</ele>
        <time>2022-10-02T15:03:46Z</time>
      </trkpt>
      <trkpt lat="47.44546" lon="8.4658">
        <ele>434.9</ele>
        <time>2022-10-02T15:03:47Z</time>
      </trkpt>
      <trkpt lat="47.44541" lon="8.46582">
        <ele>434.9</ele>
        <time>2022-10-02T15:03:48Z</time>
      </trkpt>
      <trkpt lat="47.44536" lon="8.46582">
        <ele>434.9</ele>
        <time>2022-10-02T15:03:49Z</time>
      </trkpt>
      <trkpt lat="47.44531" lon="8.46582">
        <ele>434.9</ele>
        <time>2022-10-02T15:03:50Z</time>
      </trkpt>
      <trkpt lat="47.44526" lon="8.46583">
        <ele>434.9</ele>
        <time>2022-10-02T15:03:51Z</time>
      </trkpt>
      <trkpt lat="47.44522" lon="8.46586">
        <ele>434.9</ele>
        <time>2022-10-02T15:03:52Z</time>
      </trkpt>
      <trkpt lat="47.44518" lon="8.46589">
        <ele>434.9</ele>
        <time>2022-10-02T15:03:53Z</time>
      </trkpt>
      <trkpt lat="47.44514" lon="8.46591">
        <ele>434.9</ele>
        <time>2022-10-02T15:03:54Z</time>
      </trkpt>
      <trkpt lat="47.44509" lon="8.46592">
        <ele>434.9</ele>
        <time>2022-10-02T15:03:55Z</time>
      </trkpt>
      <trkpt lat="47.44507" lon="8.46592">
        <ele>434.9</ele>
        <time>2022-10-02T15:03:56Z</time>
      </trkpt>
      <trkpt lat="47.44504" lon="8.46593">
        <ele>435</ele>
        <time>2022-10-02T15:03:57Z</time>
      </trkpt>
      <trkpt lat="47.44502" lon="8.46596">
        <ele>435</ele>
        <time>2022-10-02T15:03:58Z</time>
      </trkpt>
      <trkpt lat="47.44502" lon="8.46598">
        <ele>435</ele>
        <time>2022-10-02T15:03:59Z</time>
      </trkpt>
      <trkpt lat="47.44498" lon="8.466">
        <ele>435</ele>
        <time>2022-10-02T15:04:00Z</time>
      </trkpt>
      <trkpt lat="47.44497" lon="8.46601">
        <ele>435</ele>
        <time>2022-10-02T15:04:01Z</time>
      </trkpt>
      <trkpt lat="47.44495" lon="8.46605">
        <ele>435</ele>
        <time>2022-10-02T15:04:02Z</time>
      </trkpt>
      <trkpt lat="47.44493" lon="8.46608">
        <ele>435</ele>
        <time>2022-10-02T15:04:03Z</time>
      </trkpt>
      <trkpt lat="47.4449" lon="8.46612">
        <ele>435</ele>
        <time>2022-10-02T15:04:04Z</time>
      </trkpt>
      <trkpt lat="47.44488" lon="8.46616">
        <ele>435</ele>
        <time>2022-10-02T15:04:05Z</time>
      </trkpt>
      <trkpt lat="47.44486" lon="8.46619">
        <ele>435</ele>
        <time>2022-10-02T15:04:06Z</time>
      </trkpt>
      <trkpt lat="47.44483" lon="8.46625">
        <ele>435</ele>
        <time>2022-10-02T15:04:07Z</time>
      </trkpt>
      <trkpt lat="47.4448" lon="8.4663">
        <ele>435</ele>
        <time>2022-10-02T15:04:09Z</time>
      </trkpt>
      <trkpt lat="47.44475" lon="8.46639">
        <ele>435</ele>
        <time>2022-10-02T15:04:10Z</time>
      </trkpt>
      <trkpt lat="47.44473" lon="8.46644">
        <ele>435.1</ele>
        <time>2022-10-02T15:04:11Z</time>
      </trkpt>
      <trkpt lat="47.4447" lon="8.46648">
        <ele>435.1</ele>
        <time>2022-10-02T15:04:12Z</time>
      </trkpt>
      <trkpt lat="47.44466" lon="8.46652">
        <ele>435.1</ele>
        <time>2022-10-02T15:04:13Z</time>
      </trkpt>
      <trkpt lat="47.44463" lon="8.46656">
        <ele>435.1</ele>
        <time>2022-10-02T15:04:14Z</time>
      </trkpt>
      <trkpt lat="47.4446" lon="8.4666">
        <ele>435.1</ele>
        <time>2022-10-02T15:04:15Z</time>
      </trkpt>
      <trkpt lat="47.44457" lon="8.46664">
        <ele>435.1</ele>
        <time>2022-10-02T15:04:16Z</time>
      </trkpt>
      <trkpt lat="47.44454" lon="8.46669">
        <ele>435.1</ele>
        <time>2022-10-02T15:04:17Z</time>
      </trkpt>
      <trkpt lat="47.44451" lon="8.46673">
        <ele>435.2</ele>
        <time>2022-10-02T15:04:19Z</time>
      </trkpt>
      <trkpt lat="47.44447" lon="8.46676">
        <ele>435.2</ele>
        <time>2022-10-02T15:04:20Z</time>
      </trkpt>
      <trkpt lat="47.44444" lon="8.4668">
        <ele>435.2</ele>
        <time>2022-10-02T15:04:21Z</time>
      </trkpt>
      <trkpt lat="47.44441" lon="8.46683">
        <ele>435.2</ele>
        <time>2022-10-02T15:04:22Z</time>
      </trkpt>
      <trkpt lat="47.44438" lon="8.46687">
        <ele>435.2</ele>
        <time>2022-10-02T15:04:23Z</time>
      </trkpt>
      <trkpt lat="47.44436" lon="8.4669">
        <ele>435.2</ele>
        <time>2022-10-02T15:04:24Z</time>
      </trkpt>
      <trkpt lat="47.44435" lon="8.46695">
        <ele>435.2</ele>
        <time>2022-10-02T15:04:25Z</time>
      </trkpt>
      <trkpt lat="47.44433" lon="8.467">
        <ele>435.2</ele>
        <time>2022-10-02T15:04:26Z</time>
      </trkpt>
      <trkpt lat="47.44432" lon="8.46703">
        <ele>435.2</ele>
        <time>2022-10-02T15:04:27Z</time>
      </trkpt>
      <trkpt lat="47.44431" lon="8.46708">
        <ele>435.2</ele>
        <time>2022-10-02T15:04:28Z</time>
      </trkpt>
      <trkpt lat="47.44431" lon="8.4671">
        <ele>435.2</ele>
        <time>2022-10-02T15:04:29Z</time>
      </trkpt>
      <trkpt lat="47.4443" lon="8.46715">
        <ele>435.2</ele>
        <time>2022-10-02T15:04:30Z</time>
      </trkpt>
      <trkpt lat="47.44429" lon="8.4672">
        <ele>435.2</ele>
        <time>2022-10-02T15:04:31Z</time>
      </trkpt>
      <trkpt lat="47.44429" lon="8.46723">
        <ele>435.2</ele>
        <time>2022-10-02T15:04:32Z</time>
      </trkpt>
      <trkpt lat="47.44428" lon="8.46728">
        <ele>435.2</ele>
        <time>2022-10-02T15:04:33Z</time>
      </trkpt>
      <trkpt lat="47.44427" lon="8.46735">
        <ele>435.1</ele>
        <time>2022-10-02T15:04:34Z</time>
      </trkpt>
      <trkpt lat="47.44426" lon="8.46741">
        <ele>435.1</ele>
        <time>2022-10-02T15:04:35Z</time>
      </trkpt>
      <trkpt lat="47.44426" lon="8.46745">
        <ele>435.1</ele>
        <time>2022-10-02T15:04:36Z</time>
      </trkpt>
      <trkpt lat="47.44426" lon="8.46752">
        <ele>435.1</ele>
        <time>2022-10-02T15:04:37Z</time>
      </trkpt>
      <trkpt lat="47.44428" lon="8.46759">
        <ele>435.1</ele>
        <time>2022-10-02T15:04:38Z</time>
      </trkpt>
      <trkpt lat="47.44428" lon="8.46767">
        <ele>435.1</ele>
        <time>2022-10-02T15:04:39Z</time>
      </trkpt>
      <trkpt lat="47.44429" lon="8.46775">
        <ele>435.2</ele>
        <time>2022-10-02T15:04:40Z</time>
      </trkpt>
      <trkpt lat="47.4443" lon="8.46782">
        <ele>435.2</ele>
        <time>2022-10-02T15:04:41Z</time>
      </trkpt>
      <trkpt lat="47.44431" lon="8.46788">
        <ele>435.2</ele>
        <time>2022-10-02T15:04:42Z</time>
      </trkpt>
      <trkpt lat="47.44432" lon="8.46794">
        <ele>435.2</ele>
        <time>2022-10-02T15:04:43Z</time>
      </trkpt>
      <trkpt lat="47.44433" lon="8.46801">
        <ele>435.3</ele>
        <time>2022-10-02T15:04:44Z</time>
      </trkpt>
      <trkpt lat="47.44434" lon="8.46808">
        <ele>435.3</ele>
        <time>2022-10-02T15:04:45Z</time>
      </trkpt>
      <trkpt lat="47.44437" lon="8.46819">
        <ele>435.3</ele>
        <time>2022-10-02T15:04:46Z</time>
      </trkpt>
      <trkpt lat="47.44437" lon="8.46825">
        <ele>435.3</ele>
        <time>2022-10-02T15:04:47Z</time>
      </trkpt>
      <trkpt lat="47.44437" lon="8.46831">
        <ele>435.3</ele>
        <time>2022-10-02T15:04:48Z</time>
      </trkpt>
      <trkpt lat="47.44437" lon="8.46837">
        <ele>435.4</ele>
        <time>2022-10-02T15:04:49Z</time>
      </trkpt>
      <trkpt lat="47.44437" lon="8.46843">
        <ele>435.4</ele>
        <time>2022-10-02T15:04:50Z</time>
      </trkpt>
      <trkpt lat="47.44437" lon="8.46849">
        <ele>435.4</ele>
        <time>2022-10-02T15:04:51Z</time>
      </trkpt>
      <trkpt lat="47.44438" lon="8.46855">
        <ele>435.4</ele>
        <time>2022-10-02T15:04:52Z</time>
      </trkpt>
      <trkpt lat="47.44439" lon="8.46861">
        <ele>435.4</ele>
        <time>2022-10-02T15:04:53Z</time>
      </trkpt>
      <trkpt lat="47.44439" lon="8.46867">
        <ele>435.5</ele>
        <time>2022-10-02T15:04:54Z</time>
      </trkpt>
      <trkpt lat="47.4444" lon="8.46873">
        <ele>435.5</ele>
        <time>2022-10-02T15:04:55Z</time>
      </trkpt>
      <trkpt lat="47.4444" lon="8.4688">
        <ele>435.5</ele>
        <time>2022-10-02T15:04:56Z</time>
      </trkpt>
      <trkpt lat="47.44441" lon="8.46886">
        <ele>435.5</ele>
        <time>2022-10-02T15:04:57Z</time>
      </trkpt>
      <trkpt lat="47.44442" lon="8.46892">
        <ele>435.5</ele>
        <time>2022-10-02T15:04:58Z</time>
      </trkpt>
      <trkpt lat="47.44442" lon="8.46898">
        <ele>435.6</ele>
        <time>2022-10-02T15:04:59Z</time>
      </trkpt>
      <trkpt lat="47.44443" lon="8.46904">
        <ele>435.6</ele>
        <time>2022-10-02T15:05:00Z</time>
      </trkpt>
      <trkpt lat="47.44443" lon="8.46909">
        <ele>435.6</ele>
        <time>2022-10-02T15:05:01Z</time>
      </trkpt>
      <trkpt lat="47.44443" lon="8.46916">
        <ele>435.6</ele>
        <time>2022-10-02T15:05:02Z</time>
      </trkpt>
      <trkpt lat="47.44442" lon="8.46921">
        <ele>435.7</ele>
        <time>2022-10-02T15:05:03Z</time>
      </trkpt>
      <trkpt lat="47.4444" lon="8.46927">
        <ele>435.7</ele>
        <time>2022-10-02T15:05:04Z</time>
      </trkpt>
      <trkpt lat="47.44439" lon="8.46932">
        <ele>435.7</ele>
        <time>2022-10-02T15:05:05Z</time>
      </trkpt>
      <trkpt lat="47.44437" lon="8.46938">
        <ele>435.7</ele>
        <time>2022-10-02T15:05:06Z</time>
      </trkpt>
      <trkpt lat="47.44435" lon="8.46943">
        <ele>435.8</ele>
        <time>2022-10-02T15:05:07Z</time>
      </trkpt>
      <trkpt lat="47.44433" lon="8.46948">
        <ele>435.8</ele>
        <time>2022-10-02T15:05:08Z</time>
      </trkpt>
      <trkpt lat="47.4443" lon="8.46954">
        <ele>435.8</ele>
        <time>2022-10-02T15:05:09Z</time>
      </trkpt>
      <trkpt lat="47.44427" lon="8.46958">
        <ele>435.8</ele>
        <time>2022-10-02T15:05:10Z</time>
      </trkpt>
      <trkpt lat="47.44423" lon="8.46962">
        <ele>435.8</ele>
        <time>2022-10-02T15:05:11Z</time>
      </trkpt>
      <trkpt lat="47.4442" lon="8.46966">
        <ele>435.8</ele>
        <time>2022-10-02T15:05:12Z</time>
      </trkpt>
      <trkpt lat="47.44417" lon="8.46971">
        <ele>435.8</ele>
        <time>2022-10-02T15:05:13Z</time>
      </trkpt>
      <trkpt lat="47.44413" lon="8.46975">
        <ele>435.8</ele>
        <time>2022-10-02T15:05:14Z</time>
      </trkpt>
      <trkpt lat="47.4441" lon="8.46979">
        <ele>435.8</ele>
        <time>2022-10-02T15:05:15Z</time>
      </trkpt>
      <trkpt lat="47.44406" lon="8.46982">
        <ele>435.9</ele>
        <time>2022-10-02T15:05:16Z</time>
      </trkpt>
      <trkpt lat="47.44403" lon="8.46985">
        <ele>435.9</ele>
        <time>2022-10-02T15:05:17Z</time>
      </trkpt>
      <trkpt lat="47.444" lon="8.4699">
        <ele>435.9</ele>
        <time>2022-10-02T15:05:18Z</time>
      </trkpt>
      <trkpt lat="47.44397" lon="8.46993">
        <ele>435.9</ele>
        <time>2022-10-02T15:05:19Z</time>
      </trkpt>
      <trkpt lat="47.44393" lon="8.46997">
        <ele>436</ele>
        <time>2022-10-02T15:05:20Z</time>
      </trkpt>
      <trkpt lat="47.4439" lon="8.47">
        <ele>436</ele>
        <time>2022-10-02T15:05:21Z</time>
      </trkpt>
      <trkpt lat="47.44386" lon="8.47003">
        <ele>436</ele>
        <time>2022-10-02T15:05:22Z</time>
      </trkpt>
      <trkpt lat="47.44383" lon="8.47006">
        <ele>436</ele>
        <time>2022-10-02T15:05:23Z</time>
      </trkpt>
      <trkpt lat="47.4438" lon="8.4701">
        <ele>436.1</ele>
        <time>2022-10-02T15:05:24Z</time>
      </trkpt>
      <trkpt lat="47.44376" lon="8.47012">
        <ele>436.1</ele>
        <time>2022-10-02T15:05:25Z</time>
      </trkpt>
      <trkpt lat="47.44373" lon="8.47016">
        <ele>436.1</ele>
        <time>2022-10-02T15:05:26Z</time>
      </trkpt>
      <trkpt lat="47.44369" lon="8.47019">
        <ele>436.2</ele>
        <time>2022-10-02T15:05:27Z</time>
      </trkpt>
      <trkpt lat="47.44366" lon="8.47023">
        <ele>436.2</ele>
        <time>2022-10-02T15:05:28Z</time>
      </trkpt>
      <trkpt lat="47.44363" lon="8.47025">
        <ele>436.3</ele>
        <time>2022-10-02T15:05:29Z</time>
      </trkpt>
      <trkpt lat="47.44359" lon="8.47027">
        <ele>436.3</ele>
        <time>2022-10-02T15:05:30Z</time>
      </trkpt>
      <trkpt lat="47.44356" lon="8.47031">
        <ele>436.3</ele>
        <time>2022-10-02T15:05:31Z</time>
      </trkpt>
      <trkpt lat="47.44353" lon="8.47034">
        <ele>436.4</ele>
        <time>2022-10-02T15:05:32Z</time>
      </trkpt>
      <trkpt lat="47.4435" lon="8.47038">
        <ele>436.4</ele>
        <time>2022-10-02T15:05:33Z</time>
      </trkpt>
      <trkpt lat="47.44346" lon="8.47042">
        <ele>436.5</ele>
        <time>2022-10-02T15:05:34Z</time>
      </trkpt>
      <trkpt lat="47.44343" lon="8.47047">
        <ele>436.5</ele>
        <time>2022-10-02T15:05:35Z</time>
      </trkpt>
      <trkpt lat="47.4434" lon="8.47051">
        <ele>436.6</ele>
        <time>2022-10-02T15:05:36Z</time>
      </trkpt>
      <trkpt lat="47.44337" lon="8.47055">
        <ele>436.7</ele>
        <time>2022-10-02T15:05:37Z</time>
      </trkpt>
      <trkpt lat="47.44334" lon="8.47058">
        <ele>436.7</ele>
        <time>2022-10-02T15:05:38Z</time>
      </trkpt>
      <trkpt lat="47.4433" lon="8.47063">
        <ele>436.8</ele>
        <time>2022-10-02T15:05:39Z</time>
      </trkpt>
      <trkpt lat="47.44327" lon="8.47069">
        <ele>436.9</ele>
        <time>2022-10-02T15:05:40Z</time>
      </trkpt>
      <trkpt lat="47.44325" lon="8.47074">
        <ele>436.9</ele>
        <time>2022-10-02T15:05:41Z</time>
      </trkpt>
      <trkpt lat="47.44322" lon="8.47079">
        <ele>436.9</ele>
        <time>2022-10-02T15:05:42Z</time>
      </trkpt>
      <trkpt lat="47.44319" lon="8.47084">
        <ele>437</ele>
        <time>2022-10-02T15:05:43Z</time>
      </trkpt>
      <trkpt lat="47.44316" lon="8.47088">
        <ele>437</ele>
        <time>2022-10-02T15:05:44Z</time>
      </trkpt>
      <trkpt lat="47.44314" lon="8.47093">
        <ele>437</ele>
        <time>2022-10-02T15:05:45Z</time>
      </trkpt>
      <trkpt lat="47.44311" lon="8.47098">
        <ele>437.1</ele>
        <time>2022-10-02T15:05:46Z</time>
      </trkpt>
      <trkpt lat="47.44309" lon="8.47103">
        <ele>437.1</ele>
        <time>2022-10-02T15:05:47Z</time>
      </trkpt>
      <trkpt lat="47.44305" lon="8.47109">
        <ele>437.1</ele>
        <time>2022-10-02T15:05:48Z</time>
      </trkpt>
      <trkpt lat="47.44303" lon="8.47114">
        <ele>437.2</ele>
        <time>2022-10-02T15:05:49Z</time>
      </trkpt>
      <trkpt lat="47.443" lon="8.47118">
        <ele>437.2</ele>
        <time>2022-10-02T15:05:50Z</time>
      </trkpt>
      <trkpt lat="47.44298" lon="8.47122">
        <ele>437.2</ele>
        <time>2022-10-02T15:05:51Z</time>
      </trkpt>
      <trkpt lat="47.44298" lon="8.47129">
        <ele>437.3</ele>
        <time>2022-10-02T15:05:52Z</time>
      </trkpt>
      <trkpt lat="47.44298" lon="8.47135">
        <ele>437.1</ele>
        <time>2022-10-02T15:05:53Z</time>
      </trkpt>
      <trkpt lat="47.44298" lon="8.47136">
        <ele>437</ele>
        <time>2022-10-02T15:05:54Z</time>
      </trkpt>
      <trkpt lat="47.443" lon="8.4714">
        <ele>436.9</ele>
        <time>2022-10-02T15:05:55Z</time>
      </trkpt>
      <trkpt lat="47.443" lon="8.47141">
        <ele>436.9</ele>
        <time>2022-10-02T15:05:56Z</time>
      </trkpt>
      <trkpt lat="47.44301" lon="8.47146">
        <ele>436.7</ele>
        <time>2022-10-02T15:05:57Z</time>
      </trkpt>
      <trkpt lat="47.44302" lon="8.47151">
        <ele>436.5</ele>
        <time>2022-10-02T15:05:58Z</time>
      </trkpt>
      <trkpt lat="47.44302" lon="8.47158">
        <ele>436.3</ele>
        <time>2022-10-02T15:05:59Z</time>
      </trkpt>
      <trkpt lat="47.44304" lon="8.47165">
        <ele>436.2</ele>
        <time>2022-10-02T15:06:00Z</time>
      </trkpt>
      <trkpt lat="47.44304" lon="8.47168">
        <ele>436.1</ele>
        <time>2022-10-02T15:06:01Z</time>
      </trkpt>
      <trkpt lat="47.44304" lon="8.47175">
        <ele>436</ele>
        <time>2022-10-02T15:06:02Z</time>
      </trkpt>
      <trkpt lat="47.44303" lon="8.47184">
        <ele>435.8</ele>
        <time>2022-10-02T15:06:03Z</time>
      </trkpt>
      <trkpt lat="47.44303" lon="8.47188">
        <ele>435.8</ele>
        <time>2022-10-02T15:06:04Z</time>
      </trkpt>
      <trkpt lat="47.44303" lon="8.47195">
        <ele>435.7</ele>
        <time>2022-10-02T15:06:05Z</time>
      </trkpt>
      <trkpt lat="47.44302" lon="8.472">
        <ele>435.7</ele>
        <time>2022-10-02T15:06:07Z</time>
      </trkpt>
      <trkpt lat="47.44302" lon="8.47206">
        <ele>435.6</ele>
        <time>2022-10-02T15:06:08Z</time>
      </trkpt>
      <trkpt lat="47.44301" lon="8.47211">
        <ele>435.6</ele>
        <time>2022-10-02T15:06:09Z</time>
      </trkpt>
      <trkpt lat="47.44302" lon="8.47225">
        <ele>435.6</ele>
        <time>2022-10-02T15:06:10Z</time>
      </trkpt>
      <trkpt lat="47.44302" lon="8.4723">
        <ele>435.6</ele>
        <time>2022-10-02T15:06:11Z</time>
      </trkpt>
      <trkpt lat="47.44303" lon="8.47235">
        <ele>435.5</ele>
        <time>2022-10-02T15:06:13Z</time>
      </trkpt>
      <trkpt lat="47.44302" lon="8.47246">
        <ele>435.5</ele>
        <time>2022-10-02T15:06:14Z</time>
      </trkpt>
      <trkpt lat="47.44302" lon="8.47252">
        <ele>435.5</ele>
        <time>2022-10-02T15:06:15Z</time>
      </trkpt>
      <trkpt lat="47.44302" lon="8.47258">
        <ele>435.5</ele>
        <time>2022-10-02T15:06:17Z</time>
      </trkpt>
      <trkpt lat="47.443" lon="8.47268">
        <ele>435.6</ele>
        <time>2022-10-02T15:06:18Z</time>
      </trkpt>
      <trkpt lat="47.443" lon="8.47273">
        <ele>435.6</ele>
        <time>2022-10-02T15:06:19Z</time>
      </trkpt>
      <trkpt lat="47.443" lon="8.4728">
        <ele>435.6</ele>
        <time>2022-10-02T15:06:21Z</time>
      </trkpt>
      <trkpt lat="47.44299" lon="8.47285">
        <ele>435.6</ele>
        <time>2022-10-02T15:06:22Z</time>
      </trkpt>
      <trkpt lat="47.44299" lon="8.47291">
        <ele>435.7</ele>
        <time>2022-10-02T15:06:23Z</time>
      </trkpt>
      <trkpt lat="47.44298" lon="8.47296">
        <ele>435.7</ele>
        <time>2022-10-02T15:06:24Z</time>
      </trkpt>
      <trkpt lat="47.44298" lon="8.47302">
        <ele>435.8</ele>
        <time>2022-10-02T15:06:25Z</time>
      </trkpt>
      <trkpt lat="47.44298" lon="8.47309">
        <ele>435.8</ele>
        <time>2022-10-02T15:06:26Z</time>
      </trkpt>
      <trkpt lat="47.44297" lon="8.47314">
        <ele>435.8</ele>
        <time>2022-10-02T15:06:27Z</time>
      </trkpt>
      <trkpt lat="47.44297" lon="8.4732">
        <ele>435.9</ele>
        <time>2022-10-02T15:06:28Z</time>
      </trkpt>
      <trkpt lat="47.44296" lon="8.47325">
        <ele>435.9</ele>
        <time>2022-10-02T15:06:29Z</time>
      </trkpt>
      <trkpt lat="47.44296" lon="8.47331">
        <ele>436</ele>
        <time>2022-10-02T15:06:30Z</time>
      </trkpt>
      <trkpt lat="47.44296" lon="8.47336">
        <ele>436</ele>
        <time>2022-10-02T15:06:31Z</time>
      </trkpt>
      <trkpt lat="47.44296" lon="8.47343">
        <ele>436</ele>
        <time>2022-10-02T15:06:32Z</time>
      </trkpt>
      <trkpt lat="47.44295" lon="8.47346">
        <ele>436.1</ele>
        <time>2022-10-02T15:06:33Z</time>
      </trkpt>
      <trkpt lat="47.44295" lon="8.47352">
        <ele>436.1</ele>
        <time>2022-10-02T15:06:34Z</time>
      </trkpt>
      <trkpt lat="47.44296" lon="8.47359">
        <ele>436.2</ele>
        <time>2022-10-02T15:06:35Z</time>
      </trkpt>
      <trkpt lat="47.44295" lon="8.47363">
        <ele>436.2</ele>
        <time>2022-10-02T15:06:36Z</time>
      </trkpt>
      <trkpt lat="47.44295" lon="8.47369">
        <ele>436.3</ele>
        <time>2022-10-02T15:06:37Z</time>
      </trkpt>
      <trkpt lat="47.44295" lon="8.47374">
        <ele>436.3</ele>
        <time>2022-10-02T15:06:38Z</time>
      </trkpt>
      <trkpt lat="47.44295" lon="8.47379">
        <ele>436.4</ele>
        <time>2022-10-02T15:06:39Z</time>
      </trkpt>
      <trkpt lat="47.44294" lon="8.47384">
        <ele>436.4</ele>
        <time>2022-10-02T15:06:40Z</time>
      </trkpt>
      <trkpt lat="47.44293" lon="8.47389">
        <ele>436.5</ele>
        <time>2022-10-02T15:06:41Z</time>
      </trkpt>
      <trkpt lat="47.44292" lon="8.47395">
        <ele>436.5</ele>
        <time>2022-10-02T15:06:42Z</time>
      </trkpt>
      <trkpt lat="47.44292" lon="8.474">
        <ele>436.6</ele>
        <time>2022-10-02T15:06:43Z</time>
      </trkpt>
      <trkpt lat="47.44292" lon="8.47404">
        <ele>436.6</ele>
        <time>2022-10-02T15:06:44Z</time>
      </trkpt>
      <trkpt lat="47.44292" lon="8.47411">
        <ele>436.6</ele>
        <time>2022-10-02T15:06:45Z</time>
      </trkpt>
      <trkpt lat="47.44292" lon="8.47416">
        <ele>436.7</ele>
        <time>2022-10-02T15:06:46Z</time>
      </trkpt>
      <trkpt lat="47.44292" lon="8.47421">
        <ele>436.7</ele>
        <time>2022-10-02T15:06:47Z</time>
      </trkpt>
      <trkpt lat="47.44292" lon="8.47425">
        <ele>436.7</ele>
        <time>2022-10-02T15:06:48Z</time>
      </trkpt>
      <trkpt lat="47.44291" lon="8.47431">
        <ele>436.8</ele>
        <time>2022-10-02T15:06:49Z</time>
      </trkpt>
      <trkpt lat="47.44291" lon="8.47436">
        <ele>436.8</ele>
        <time>2022-10-02T15:06:50Z</time>
      </trkpt>
      <trkpt lat="47.4429" lon="8.47448">
        <ele>436.8</ele>
        <time>2022-10-02T15:06:51Z</time>
      </trkpt>
      <trkpt lat="47.44291" lon="8.47453">
        <ele>436.8</ele>
        <time>2022-10-02T15:06:52Z</time>
      </trkpt>
      <trkpt lat="47.4429" lon="8.47458">
        <ele>436.9</ele>
        <time>2022-10-02T15:06:53Z</time>
      </trkpt>
      <trkpt lat="47.4429" lon="8.47463">
        <ele>436.9</ele>
        <time>2022-10-02T15:06:54Z</time>
      </trkpt>
      <trkpt lat="47.4429" lon="8.47469">
        <ele>436.9</ele>
        <time>2022-10-02T15:06:55Z</time>
      </trkpt>
      <trkpt lat="47.44289" lon="8.47474">
        <ele>436.9</ele>
        <time>2022-10-02T15:06:56Z</time>
      </trkpt>
      <trkpt lat="47.44288" lon="8.47478">
        <ele>436.9</ele>
        <time>2022-10-02T15:06:57Z</time>
      </trkpt>
      <trkpt lat="47.44287" lon="8.47484">
        <ele>436.9</ele>
        <time>2022-10-02T15:06:58Z</time>
      </trkpt>
      <trkpt lat="47.44288" lon="8.4749">
        <ele>437</ele>
        <time>2022-10-02T15:06:59Z</time>
      </trkpt>
      <trkpt lat="47.44287" lon="8.47496">
        <ele>437</ele>
        <time>2022-10-02T15:07:00Z</time>
      </trkpt>
      <trkpt lat="47.44287" lon="8.475">
        <ele>437</ele>
        <time>2022-10-02T15:07:01Z</time>
      </trkpt>
      <trkpt lat="47.44287" lon="8.47506">
        <ele>437</ele>
        <time>2022-10-02T15:07:02Z</time>
      </trkpt>
      <trkpt lat="47.44287" lon="8.4751">
        <ele>437</ele>
        <time>2022-10-02T15:07:03Z</time>
      </trkpt>
      <trkpt lat="47.44287" lon="8.47516">
        <ele>437.1</ele>
        <time>2022-10-02T15:07:04Z</time>
      </trkpt>
      <trkpt lat="47.44287" lon="8.47521">
        <ele>437.1</ele>
        <time>2022-10-02T15:07:05Z</time>
      </trkpt>
      <trkpt lat="47.44286" lon="8.47526">
        <ele>437.1</ele>
        <time>2022-10-02T15:07:06Z</time>
      </trkpt>
      <trkpt lat="47.44287" lon="8.47533">
        <ele>437.1</ele>
        <time>2022-10-02T15:07:07Z</time>
      </trkpt>
      <trkpt lat="47.44286" lon="8.47538">
        <ele>437.1</ele>
        <time>2022-10-02T15:07:08Z</time>
      </trkpt>
      <trkpt lat="47.44285" lon="8.47544">
        <ele>437.1</ele>
        <time>2022-10-02T15:07:09Z</time>
      </trkpt>
      <trkpt lat="47.44285" lon="8.47547">
        <ele>437.1</ele>
        <time>2022-10-02T15:07:10Z</time>
      </trkpt>
      <trkpt lat="47.44285" lon="8.47552">
        <ele>437.1</ele>
        <time>2022-10-02T15:07:11Z</time>
      </trkpt>
      <trkpt lat="47.44285" lon="8.47557">
        <ele>437.1</ele>
        <time>2022-10-02T15:07:12Z</time>
      </trkpt>
      <trkpt lat="47.44284" lon="8.47564">
        <ele>437.1</ele>
        <time>2022-10-02T15:07:13Z</time>
      </trkpt>
      <trkpt lat="47.44284" lon="8.47568">
        <ele>437.1</ele>
        <time>2022-10-02T15:07:14Z</time>
      </trkpt>
      <trkpt lat="47.44283" lon="8.47574">
        <ele>437.1</ele>
        <time>2022-10-02T15:07:15Z</time>
      </trkpt>
      <trkpt lat="47.44283" lon="8.47579">
        <ele>437.1</ele>
        <time>2022-10-02T15:07:16Z</time>
      </trkpt>
      <trkpt lat="47.44283" lon="8.47585">
        <ele>437.1</ele>
        <time>2022-10-02T15:07:17Z</time>
      </trkpt>
      <trkpt lat="47.44283" lon="8.47588">
        <ele>437.1</ele>
        <time>2022-10-02T15:07:18Z</time>
      </trkpt>
      <trkpt lat="47.44282" lon="8.47594">
        <ele>437.1</ele>
        <time>2022-10-02T15:07:19Z</time>
      </trkpt>
      <trkpt lat="47.44282" lon="8.47598">
        <ele>437.1</ele>
        <time>2022-10-02T15:07:20Z</time>
      </trkpt>
      <trkpt lat="47.44282" lon="8.47604">
        <ele>437.1</ele>
        <time>2022-10-02T15:07:21Z</time>
      </trkpt>
      <trkpt lat="47.44282" lon="8.47609">
        <ele>437.1</ele>
        <time>2022-10-02T15:07:22Z</time>
      </trkpt>
      <trkpt lat="47.44282" lon="8.47614">
        <ele>437.1</ele>
        <time>2022-10-02T15:07:23Z</time>
      </trkpt>
      <trkpt lat="47.44281" lon="8.47619">
        <ele>437.1</ele>
        <time>2022-10-02T15:07:24Z</time>
      </trkpt>
      <trkpt lat="47.44282" lon="8.47623">
        <ele>437</ele>
        <time>2022-10-02T15:07:25Z</time>
      </trkpt>
      <trkpt lat="47.44282" lon="8.47628">
        <ele>437</ele>
        <time>2022-10-02T15:07:26Z</time>
      </trkpt>
      <trkpt lat="47.44281" lon="8.47634">
        <ele>437</ele>
        <time>2022-10-02T15:07:27Z</time>
      </trkpt>
      <trkpt lat="47.44281" lon="8.47639">
        <ele>437</ele>
        <time>2022-10-02T15:07:28Z</time>
      </trkpt>
      <trkpt lat="47.4428" lon="8.47644">
        <ele>437</ele>
        <time>2022-10-02T15:07:29Z</time>
      </trkpt>
      <trkpt lat="47.4428" lon="8.47649">
        <ele>437</ele>
        <time>2022-10-02T15:07:30Z</time>
      </trkpt>
      <trkpt lat="47.4428" lon="8.47653">
        <ele>437</ele>
        <time>2022-10-02T15:07:31Z</time>
      </trkpt>
      <trkpt lat="47.4428" lon="8.47659">
        <ele>437</ele>
        <time>2022-10-02T15:07:32Z</time>
      </trkpt>
      <trkpt lat="47.4428" lon="8.47663">
        <ele>437</ele>
        <time>2022-10-02T15:07:33Z</time>
      </trkpt>
      <trkpt lat="47.4428" lon="8.47669">
        <ele>437</ele>
        <time>2022-10-02T15:07:34Z</time>
      </trkpt>
      <trkpt lat="47.4428" lon="8.47674">
        <ele>437</ele>
        <time>2022-10-02T15:07:35Z</time>
      </trkpt>
      <trkpt lat="47.44279" lon="8.47679">
        <ele>437</ele>
        <time>2022-10-02T15:07:36Z</time>
      </trkpt>
      <trkpt lat="47.44279" lon="8.47684">
        <ele>437</ele>
        <time>2022-10-02T15:07:37Z</time>
      </trkpt>
      <trkpt lat="47.44279" lon="8.47691">
        <ele>437</ele>
        <time>2022-10-02T15:07:38Z</time>
      </trkpt>
      <trkpt lat="47.44278" lon="8.47695">
        <ele>437</ele>
        <time>2022-10-02T15:07:39Z</time>
      </trkpt>
      <trkpt lat="47.44278" lon="8.47699">
        <ele>437</ele>
        <time>2022-10-02T15:07:40Z</time>
      </trkpt>
      <trkpt lat="47.44277" lon="8.47705">
        <ele>437</ele>
        <time>2022-10-02T15:07:41Z</time>
      </trkpt>
      <trkpt lat="47.44277" lon="8.47711">
        <ele>437.1</ele>
        <time>2022-10-02T15:07:42Z</time>
      </trkpt>
      <trkpt lat="47.44277" lon="8.47717">
        <ele>437.1</ele>
        <time>2022-10-02T15:07:43Z</time>
      </trkpt>
      <trkpt lat="47.44277" lon="8.47722">
        <ele>437.1</ele>
        <time>2022-10-02T15:07:44Z</time>
      </trkpt>
      <trkpt lat="47.44276" lon="8.47729">
        <ele>437.1</ele>
        <time>2022-10-02T15:07:45Z</time>
      </trkpt>
      <trkpt lat="47.44275" lon="8.47734">
        <ele>437.2</ele>
        <time>2022-10-02T15:07:46Z</time>
      </trkpt>
      <trkpt lat="47.44276" lon="8.4774">
        <ele>437.2</ele>
        <time>2022-10-02T15:07:47Z</time>
      </trkpt>
      <trkpt lat="47.44276" lon="8.47746">
        <ele>437.2</ele>
        <time>2022-10-02T15:07:48Z</time>
      </trkpt>
      <trkpt lat="47.44276" lon="8.47752">
        <ele>437.2</ele>
        <time>2022-10-02T15:07:49Z</time>
      </trkpt>
      <trkpt lat="47.44275" lon="8.47758">
        <ele>437.3</ele>
        <time>2022-10-02T15:07:50Z</time>
      </trkpt>
      <trkpt lat="47.44275" lon="8.47762">
        <ele>437.3</ele>
        <time>2022-10-02T15:07:51Z</time>
      </trkpt>
      <trkpt lat="47.44274" lon="8.47769">
        <ele>437.3</ele>
        <time>2022-10-02T15:07:52Z</time>
      </trkpt>
      <trkpt lat="47.44274" lon="8.47774">
        <ele>437.3</ele>
        <time>2022-10-02T15:07:53Z</time>
      </trkpt>
      <trkpt lat="47.44274" lon="8.47778">
        <ele>437.4</ele>
        <time>2022-10-02T15:07:54Z</time>
      </trkpt>
      <trkpt lat="47.44275" lon="8.47783">
        <ele>437.4</ele>
        <time>2022-10-02T15:07:55Z</time>
      </trkpt>
      <trkpt lat="47.44274" lon="8.47788">
        <ele>437.4</ele>
        <time>2022-10-02T15:07:56Z</time>
      </trkpt>
      <trkpt lat="47.44274" lon="8.47794">
        <ele>437.4</ele>
        <time>2022-10-02T15:07:57Z</time>
      </trkpt>
      <trkpt lat="47.44276" lon="8.47801">
        <ele>437.5</ele>
        <time>2022-10-02T15:07:58Z</time>
      </trkpt>
      <trkpt lat="47.44274" lon="8.47808">
        <ele>437.5</ele>
        <time>2022-10-02T15:07:59Z</time>
      </trkpt>
      <trkpt lat="47.44274" lon="8.47814">
        <ele>437.5</ele>
        <time>2022-10-02T15:08:00Z</time>
      </trkpt>
      <trkpt lat="47.44273" lon="8.47818">
        <ele>437.5</ele>
        <time>2022-10-02T15:08:01Z</time>
      </trkpt>
      <trkpt lat="47.44273" lon="8.47825">
        <ele>437.6</ele>
        <time>2022-10-02T15:08:02Z</time>
      </trkpt>
      <trkpt lat="47.44272" lon="8.47831">
        <ele>437.6</ele>
        <time>2022-10-02T15:08:03Z</time>
      </trkpt>
      <trkpt lat="47.44272" lon="8.47836">
        <ele>437.6</ele>
        <time>2022-10-02T15:08:04Z</time>
      </trkpt>
      <trkpt lat="47.44271" lon="8.4784">
        <ele>437.6</ele>
        <time>2022-10-02T15:08:05Z</time>
      </trkpt>
      <trkpt lat="47.44271" lon="8.47846">
        <ele>437.7</ele>
        <time>2022-10-02T15:08:06Z</time>
      </trkpt>
      <trkpt lat="47.4427" lon="8.47854">
        <ele>437.7</ele>
        <time>2022-10-02T15:08:07Z</time>
      </trkpt>
      <trkpt lat="47.44269" lon="8.47859">
        <ele>437.7</ele>
        <time>2022-10-02T15:08:08Z</time>
      </trkpt>
      <trkpt lat="47.44269" lon="8.47866">
        <ele>437.8</ele>
        <time>2022-10-02T15:08:09Z</time>
      </trkpt>
      <trkpt lat="47.44268" lon="8.47873">
        <ele>437.8</ele>
        <time>2022-10-02T15:08:10Z</time>
      </trkpt>
      <trkpt lat="47.44267" lon="8.47878">
        <ele>437.9</ele>
        <time>2022-10-02T15:08:11Z</time>
      </trkpt>
      <trkpt lat="47.44268" lon="8.47884">
        <ele>437.9</ele>
        <time>2022-10-02T15:08:13Z</time>
      </trkpt>
      <trkpt lat="47.44267" lon="8.47896">
        <ele>438</ele>
        <time>2022-10-02T15:08:14Z</time>
      </trkpt>
      <trkpt lat="47.44267" lon="8.47902">
        <ele>438.1</ele>
        <time>2022-10-02T15:08:15Z</time>
      </trkpt>
      <trkpt lat="47.44267" lon="8.47908">
        <ele>438.1</ele>
        <time>2022-10-02T15:08:16Z</time>
      </trkpt>
      <trkpt lat="47.44267" lon="8.47914">
        <ele>438.1</ele>
        <time>2022-10-02T15:08:17Z</time>
      </trkpt>
      <trkpt lat="47.44266" lon="8.47921">
        <ele>438.1</ele>
        <time>2022-10-02T15:08:19Z</time>
      </trkpt>
      <trkpt lat="47.44267" lon="8.47927">
        <ele>438.1</ele>
        <time>2022-10-02T15:08:20Z</time>
      </trkpt>
      <trkpt lat="47.44266" lon="8.47934">
        <ele>438.1</ele>
        <time>2022-10-02T15:08:21Z</time>
      </trkpt>
      <trkpt lat="47.44266" lon="8.4794">
        <ele>438.1</ele>
        <time>2022-10-02T15:08:22Z</time>
      </trkpt>
      <trkpt lat="47.44265" lon="8.47944">
        <ele>438.1</ele>
        <time>2022-10-02T15:08:23Z</time>
      </trkpt>
      <trkpt lat="47.44265" lon="8.47951">
        <ele>438.1</ele>
        <time>2022-10-02T15:08:24Z</time>
      </trkpt>
      <trkpt lat="47.44264" lon="8.47956">
        <ele>438.1</ele>
        <time>2022-10-02T15:08:25Z</time>
      </trkpt>
      <trkpt lat="47.44261" lon="8.47963">
        <ele>438.1</ele>
        <time>2022-10-02T15:08:26Z</time>
      </trkpt>
      <trkpt lat="47.4426" lon="8.47969">
        <ele>438.1</ele>
        <time>2022-10-02T15:08:27Z</time>
      </trkpt>
      <trkpt lat="47.44258" lon="8.4798">
        <ele>438.2</ele>
        <time>2022-10-02T15:08:28Z</time>
      </trkpt>
      <trkpt lat="47.44256" lon="8.47986">
        <ele>438.2</ele>
        <time>2022-10-02T15:08:29Z</time>
      </trkpt>
      <trkpt lat="47.44255" lon="8.47991">
        <ele>438.2</ele>
        <time>2022-10-02T15:08:30Z</time>
      </trkpt>
      <trkpt lat="47.44252" lon="8.47998">
        <ele>438.3</ele>
        <time>2022-10-02T15:08:31Z</time>
      </trkpt>
      <trkpt lat="47.4425" lon="8.48001">
        <ele>438.3</ele>
        <time>2022-10-02T15:08:32Z</time>
      </trkpt>
      <trkpt lat="47.44249" lon="8.48007">
        <ele>438.4</ele>
        <time>2022-10-02T15:08:33Z</time>
      </trkpt>
      <trkpt lat="47.44247" lon="8.48012">
        <ele>438.4</ele>
        <time>2022-10-02T15:08:34Z</time>
      </trkpt>
      <trkpt lat="47.44245" lon="8.48017">
        <ele>438.5</ele>
        <time>2022-10-02T15:08:35Z</time>
      </trkpt>
      <trkpt lat="47.44243" lon="8.48022">
        <ele>438.6</ele>
        <time>2022-10-02T15:08:36Z</time>
      </trkpt>
      <trkpt lat="47.44242" lon="8.48026">
        <ele>438.6</ele>
        <time>2022-10-02T15:08:37Z</time>
      </trkpt>
      <trkpt lat="47.4424" lon="8.48031">
        <ele>438.7</ele>
        <time>2022-10-02T15:08:38Z</time>
      </trkpt>
      <trkpt lat="47.44238" lon="8.48036">
        <ele>438.8</ele>
        <time>2022-10-02T15:08:39Z</time>
      </trkpt>
      <trkpt lat="47.44237" lon="8.48037">
        <ele>438.8</ele>
        <time>2022-10-02T15:08:40Z</time>
      </trkpt>
      <trkpt lat="47.44236" lon="8.48041">
        <ele>438.9</ele>
        <time>2022-10-02T15:08:41Z</time>
      </trkpt>
      <trkpt lat="47.44235" lon="8.48046">
        <ele>439</ele>
        <time>2022-10-02T15:08:42Z</time>
      </trkpt>
      <trkpt lat="47.44233" lon="8.48051">
        <ele>439.1</ele>
        <time>2022-10-02T15:08:43Z</time>
      </trkpt>
      <trkpt lat="47.44233" lon="8.48053">
        <ele>439.1</ele>
        <time>2022-10-02T15:08:44Z</time>
      </trkpt>
      <trkpt lat="47.44231" lon="8.48057">
        <ele>439.2</ele>
        <time>2022-10-02T15:08:45Z</time>
      </trkpt>
      <trkpt lat="47.44231" lon="8.48059">
        <ele>439.2</ele>
        <time>2022-10-02T15:08:46Z</time>
      </trkpt>
      <trkpt lat="47.4423" lon="8.48061">
        <ele>439.3</ele>
        <time>2022-10-02T15:08:47Z</time>
      </trkpt>
      <trkpt lat="47.44229" lon="8.48061">
        <ele>439.3</ele>
        <time>2022-10-02T15:08:48Z</time>
      </trkpt>
      <trkpt lat="47.44228" lon="8.48064">
        <ele>439.3</ele>
        <time>2022-10-02T15:08:49Z</time>
      </trkpt>
      <trkpt lat="47.44228" lon="8.48065">
        <ele>439.4</ele>
        <time>2022-10-02T15:08:50Z</time>
      </trkpt>
      <trkpt lat="47.44228" lon="8.48067">
        <ele>439.4</ele>
        <time>2022-10-02T15:08:51Z</time>
      </trkpt>
      <trkpt lat="47.44227" lon="8.48068">
        <ele>439.4</ele>
        <time>2022-10-02T15:08:52Z</time>
      </trkpt>
      <trkpt lat="47.44227" lon="8.48069">
        <ele>439.4</ele>
        <time>2022-10-02T15:08:53Z</time>
      </trkpt>
      <trkpt lat="47.44226" lon="8.48071">
        <ele>439.4</ele>
        <time>2022-10-02T15:08:54Z</time>
      </trkpt>
      <trkpt lat="47.44226" lon="8.48072">
        <ele>439.4</ele>
        <time>2022-10-02T15:08:55Z</time>
      </trkpt>
      <trkpt lat="47.44225" lon="8.48074">
        <ele>439.4</ele>
        <time>2022-10-02T15:08:56Z</time>
      </trkpt>
      <trkpt lat="47.44225" lon="8.48075">
        <ele>439.3</ele>
        <time>2022-10-02T15:08:57Z</time>
      </trkpt>
      <trkpt lat="47.44224" lon="8.48077">
        <ele>439.3</ele>
        <time>2022-10-02T15:09:13Z</time>
      </trkpt>
      <trkpt lat="47.44224" lon="8.48078">
        <ele>439.3</ele>
        <time>2022-10-02T15:09:14Z</time>
      </trkpt>
      <trkpt lat="47.44223" lon="8.48079">
        <ele>439.3</ele>
        <time>2022-10-02T15:09:15Z</time>
      </trkpt>
      <trkpt lat="47.44221" lon="8.48083">
        <ele>439.2</ele>
        <time>2022-10-02T15:09:16Z</time>
      </trkpt>
      <trkpt lat="47.44219" lon="8.48087">
        <ele>439.1</ele>
        <time>2022-10-02T15:09:17Z</time>
      </trkpt>
      <trkpt lat="47.44219" lon="8.48093">
        <ele>439</ele>
        <time>2022-10-02T15:09:18Z</time>
      </trkpt>
      <trkpt lat="47.44218" lon="8.48095">
        <ele>439</ele>
        <time>2022-10-02T15:09:19Z</time>
      </trkpt>
      <trkpt lat="47.44216" lon="8.48099">
        <ele>438.9</ele>
        <time>2022-10-02T15:09:20Z</time>
      </trkpt>
      <trkpt lat="47.44214" lon="8.48104">
        <ele>438.9</ele>
        <time>2022-10-02T15:09:21Z</time>
      </trkpt>
      <trkpt lat="47.44213" lon="8.48109">
        <ele>438.9</ele>
        <time>2022-10-02T15:09:22Z</time>
      </trkpt>
      <trkpt lat="47.44212" lon="8.48114">
        <ele>438.8</ele>
        <time>2022-10-02T15:09:23Z</time>
      </trkpt>
      <trkpt lat="47.44211" lon="8.48117">
        <ele>438.8</ele>
        <time>2022-10-02T15:09:24Z</time>
      </trkpt>
      <trkpt lat="47.44209" lon="8.48123">
        <ele>438.8</ele>
        <time>2022-10-02T15:09:25Z</time>
      </trkpt>
      <trkpt lat="47.44208" lon="8.48127">
        <ele>438.8</ele>
        <time>2022-10-02T15:09:26Z</time>
      </trkpt>
      <trkpt lat="47.44206" lon="8.48132">
        <ele>438.8</ele>
        <time>2022-10-02T15:09:27Z</time>
      </trkpt>
      <trkpt lat="47.44205" lon="8.48138">
        <ele>438.7</ele>
        <time>2022-10-02T15:09:28Z</time>
      </trkpt>
      <trkpt lat="47.44202" lon="8.48143">
        <ele>438.7</ele>
        <time>2022-10-02T15:09:29Z</time>
      </trkpt>
      <trkpt lat="47.442" lon="8.48149">
        <ele>438.7</ele>
        <time>2022-10-02T15:09:30Z</time>
      </trkpt>
      <trkpt lat="47.44198" lon="8.48154">
        <ele>438.7</ele>
        <time>2022-10-02T15:09:31Z</time>
      </trkpt>
      <trkpt lat="47.44197" lon="8.4816">
        <ele>438.7</ele>
        <time>2022-10-02T15:09:32Z</time>
      </trkpt>
      <trkpt lat="47.44193" lon="8.48164">
        <ele>438.8</ele>
        <time>2022-10-02T15:09:33Z</time>
      </trkpt>
      <trkpt lat="47.44191" lon="8.48171">
        <ele>438.8</ele>
        <time>2022-10-02T15:09:34Z</time>
      </trkpt>
      <trkpt lat="47.44189" lon="8.48176">
        <ele>438.8</ele>
        <time>2022-10-02T15:09:35Z</time>
      </trkpt>
      <trkpt lat="47.44187" lon="8.48182">
        <ele>438.8</ele>
        <time>2022-10-02T15:09:36Z</time>
      </trkpt>
      <trkpt lat="47.44185" lon="8.48186">
        <ele>438.8</ele>
        <time>2022-10-02T15:09:37Z</time>
      </trkpt>
      <trkpt lat="47.44183" lon="8.48191">
        <ele>438.8</ele>
        <time>2022-10-02T15:09:38Z</time>
      </trkpt>
      <trkpt lat="47.44182" lon="8.48196">
        <ele>438.7</ele>
        <time>2022-10-02T15:09:39Z</time>
      </trkpt>
      <trkpt lat="47.4418" lon="8.48201">
        <ele>438.7</ele>
        <time>2022-10-02T15:09:40Z</time>
      </trkpt>
      <trkpt lat="47.44178" lon="8.48206">
        <ele>438.7</ele>
        <time>2022-10-02T15:09:41Z</time>
      </trkpt>
      <trkpt lat="47.44175" lon="8.48211">
        <ele>438.7</ele>
        <time>2022-10-02T15:09:42Z</time>
      </trkpt>
      <trkpt lat="47.44174" lon="8.48217">
        <ele>438.7</ele>
        <time>2022-10-02T15:09:43Z</time>
      </trkpt>
      <trkpt lat="47.44172" lon="8.48222">
        <ele>438.7</ele>
        <time>2022-10-02T15:09:44Z</time>
      </trkpt>
      <trkpt lat="47.44172" lon="8.48227">
        <ele>438.8</ele>
        <time>2022-10-02T15:09:45Z</time>
      </trkpt>
      <trkpt lat="47.44169" lon="8.48232">
        <ele>438.8</ele>
        <time>2022-10-02T15:09:46Z</time>
      </trkpt>
      <trkpt lat="47.44167" lon="8.48238">
        <ele>438.8</ele>
        <time>2022-10-02T15:09:47Z</time>
      </trkpt>
      <trkpt lat="47.44166" lon="8.48243">
        <ele>438.8</ele>
        <time>2022-10-02T15:09:48Z</time>
      </trkpt>
      <trkpt lat="47.44163" lon="8.48248">
        <ele>438.8</ele>
        <time>2022-10-02T15:09:49Z</time>
      </trkpt>
      <trkpt lat="47.44162" lon="8.48255">
        <ele>438.8</ele>
        <time>2022-10-02T15:09:50Z</time>
      </trkpt>
      <trkpt lat="47.4416" lon="8.48259">
        <ele>438.8</ele>
        <time>2022-10-02T15:09:51Z</time>
      </trkpt>
      <trkpt lat="47.44159" lon="8.48264">
        <ele>438.8</ele>
        <time>2022-10-02T15:09:52Z</time>
      </trkpt>
      <trkpt lat="47.44158" lon="8.48269">
        <ele>438.8</ele>
        <time>2022-10-02T15:09:53Z</time>
      </trkpt>
      <trkpt lat="47.44157" lon="8.48273">
        <ele>438.9</ele>
        <time>2022-10-02T15:09:54Z</time>
      </trkpt>
      <trkpt lat="47.44156" lon="8.48277">
        <ele>438.9</ele>
        <time>2022-10-02T15:09:55Z</time>
      </trkpt>
      <trkpt lat="47.44155" lon="8.48282">
        <ele>438.9</ele>
        <time>2022-10-02T15:09:56Z</time>
      </trkpt>
      <trkpt lat="47.44152" lon="8.48287">
        <ele>438.9</ele>
        <time>2022-10-02T15:09:57Z</time>
      </trkpt>
      <trkpt lat="47.44149" lon="8.48294">
        <ele>438.9</ele>
        <time>2022-10-02T15:09:58Z</time>
      </trkpt>
      <trkpt lat="47.44146" lon="8.48302">
        <ele>438.9</ele>
        <time>2022-10-02T15:09:59Z</time>
      </trkpt>
      <trkpt lat="47.44144" lon="8.48306">
        <ele>438.9</ele>
        <time>2022-10-02T15:10:00Z</time>
      </trkpt>
      <trkpt lat="47.44142" lon="8.48311">
        <ele>439</ele>
        <time>2022-10-02T15:10:01Z</time>
      </trkpt>
      <trkpt lat="47.44141" lon="8.48315">
        <ele>439</ele>
        <time>2022-10-02T15:10:02Z</time>
      </trkpt>
      <trkpt lat="47.44138" lon="8.48322">
        <ele>439</ele>
        <time>2022-10-02T15:10:03Z</time>
      </trkpt>
      <trkpt lat="47.44136" lon="8.48329">
        <ele>439</ele>
        <time>2022-10-02T15:10:04Z</time>
      </trkpt>
      <trkpt lat="47.44134" lon="8.48335">
        <ele>439.1</ele>
        <time>2022-10-02T15:10:05Z</time>
      </trkpt>
      <trkpt lat="47.44133" lon="8.48341">
        <ele>439.1</ele>
        <time>2022-10-02T15:10:06Z</time>
      </trkpt>
      <trkpt lat="47.44131" lon="8.48346">
        <ele>439.1</ele>
        <time>2022-10-02T15:10:07Z</time>
      </trkpt>
      <trkpt lat="47.44129" lon="8.48352">
        <ele>439.1</ele>
        <time>2022-10-02T15:10:08Z</time>
      </trkpt>
      <trkpt lat="47.44127" lon="8.48358">
        <ele>439.1</ele>
        <time>2022-10-02T15:10:09Z</time>
      </trkpt>
      <trkpt lat="47.44125" lon="8.48365">
        <ele>439.1</ele>
        <time>2022-10-02T15:10:10Z</time>
      </trkpt>
      <trkpt lat="47.44123" lon="8.48371">
        <ele>439.1</ele>
        <time>2022-10-02T15:10:11Z</time>
      </trkpt>
      <trkpt lat="47.4412" lon="8.48377">
        <ele>439.1</ele>
        <time>2022-10-02T15:10:12Z</time>
      </trkpt>
      <trkpt lat="47.4412" lon="8.48383">
        <ele>439.1</ele>
        <time>2022-10-02T15:10:13Z</time>
      </trkpt>
      <trkpt lat="47.44117" lon="8.4839">
        <ele>439.1</ele>
        <time>2022-10-02T15:10:14Z</time>
      </trkpt>
      <trkpt lat="47.44115" lon="8.48396">
        <ele>439.1</ele>
        <time>2022-10-02T15:10:15Z</time>
      </trkpt>
      <trkpt lat="47.44113" lon="8.48401">
        <ele>439.1</ele>
        <time>2022-10-02T15:10:16Z</time>
      </trkpt>
      <trkpt lat="47.44111" lon="8.48408">
        <ele>439.1</ele>
        <time>2022-10-02T15:10:17Z</time>
      </trkpt>
      <trkpt lat="47.44109" lon="8.48415">
        <ele>439.1</ele>
        <time>2022-10-02T15:10:18Z</time>
      </trkpt>
      <trkpt lat="47.44106" lon="8.48422">
        <ele>439.1</ele>
        <time>2022-10-02T15:10:19Z</time>
      </trkpt>
      <trkpt lat="47.44103" lon="8.48428">
        <ele>439.2</ele>
        <time>2022-10-02T15:10:20Z</time>
      </trkpt>
      <trkpt lat="47.44102" lon="8.48434">
        <ele>439.2</ele>
        <time>2022-10-02T15:10:21Z</time>
      </trkpt>
      <trkpt lat="47.44099" lon="8.48441">
        <ele>439.2</ele>
        <time>2022-10-02T15:10:23Z</time>
      </trkpt>
      <trkpt lat="47.44095" lon="8.48453">
        <ele>439.2</ele>
        <time>2022-10-02T15:10:24Z</time>
      </trkpt>
      <trkpt lat="47.44093" lon="8.48459">
        <ele>439.2</ele>
        <time>2022-10-02T15:10:25Z</time>
      </trkpt>
      <trkpt lat="47.44091" lon="8.48465">
        <ele>439.3</ele>
        <time>2022-10-02T15:10:26Z</time>
      </trkpt>
      <trkpt lat="47.44089" lon="8.4847">
        <ele>439.3</ele>
        <time>2022-10-02T15:10:27Z</time>
      </trkpt>
      <trkpt lat="47.44087" lon="8.48476">
        <ele>439.3</ele>
        <time>2022-10-02T15:10:29Z</time>
      </trkpt>
      <trkpt lat="47.44082" lon="8.48488">
        <ele>439.3</ele>
        <time>2022-10-02T15:10:30Z</time>
      </trkpt>
      <trkpt lat="47.4408" lon="8.48494">
        <ele>439.3</ele>
        <time>2022-10-02T15:10:31Z</time>
      </trkpt>
      <trkpt lat="47.44077" lon="8.48499">
        <ele>439.3</ele>
        <time>2022-10-02T15:10:33Z</time>
      </trkpt>
      <trkpt lat="47.44071" lon="8.48509">
        <ele>439.3</ele>
        <time>2022-10-02T15:10:34Z</time>
      </trkpt>
      <trkpt lat="47.44068" lon="8.48514">
        <ele>439.4</ele>
        <time>2022-10-02T15:10:35Z</time>
      </trkpt>
      <trkpt lat="47.44065" lon="8.4852">
        <ele>439.4</ele>
        <time>2022-10-02T15:10:36Z</time>
      </trkpt>
      <trkpt lat="47.44062" lon="8.48525">
        <ele>439.4</ele>
        <time>2022-10-02T15:10:37Z</time>
      </trkpt>
      <trkpt lat="47.44058" lon="8.4853">
        <ele>439.4</ele>
        <time>2022-10-02T15:10:38Z</time>
      </trkpt>
      <trkpt lat="47.44054" lon="8.48534">
        <ele>439.4</ele>
        <time>2022-10-02T15:10:39Z</time>
      </trkpt>
      <trkpt lat="47.44051" lon="8.48538">
        <ele>439.4</ele>
        <time>2022-10-02T15:10:40Z</time>
      </trkpt>
      <trkpt lat="47.44047" lon="8.48542">
        <ele>439.4</ele>
        <time>2022-10-02T15:10:41Z</time>
      </trkpt>
      <trkpt lat="47.44043" lon="8.48547">
        <ele>439.5</ele>
        <time>2022-10-02T15:10:42Z</time>
      </trkpt>
      <trkpt lat="47.44039" lon="8.48551">
        <ele>439.5</ele>
        <time>2022-10-02T15:10:43Z</time>
      </trkpt>
      <trkpt lat="47.44036" lon="8.48555">
        <ele>439.5</ele>
        <time>2022-10-02T15:10:44Z</time>
      </trkpt>
      <trkpt lat="47.44032" lon="8.48559">
        <ele>439.5</ele>
        <time>2022-10-02T15:10:45Z</time>
      </trkpt>
      <trkpt lat="47.44028" lon="8.48563">
        <ele>439.5</ele>
        <time>2022-10-02T15:10:46Z</time>
      </trkpt>
      <trkpt lat="47.44024" lon="8.48567">
        <ele>439.5</ele>
        <time>2022-10-02T15:10:47Z</time>
      </trkpt>
      <trkpt lat="47.4402" lon="8.48571">
        <ele>439.5</ele>
        <time>2022-10-02T15:10:48Z</time>
      </trkpt>
      <trkpt lat="47.44017" lon="8.48574">
        <ele>439.6</ele>
        <time>2022-10-02T15:10:49Z</time>
      </trkpt>
      <trkpt lat="47.44013" lon="8.48578">
        <ele>439.6</ele>
        <time>2022-10-02T15:10:50Z</time>
      </trkpt>
      <trkpt lat="47.44009" lon="8.48582">
        <ele>439.6</ele>
        <time>2022-10-02T15:10:51Z</time>
      </trkpt>
      <trkpt lat="47.44005" lon="8.48587">
        <ele>439.6</ele>
        <time>2022-10-02T15:10:52Z</time>
      </trkpt>
      <trkpt lat="47.44001" lon="8.48591">
        <ele>439.6</ele>
        <time>2022-10-02T15:10:53Z</time>
      </trkpt>
      <trkpt lat="47.43997" lon="8.48595">
        <ele>439.7</ele>
        <time>2022-10-02T15:10:54Z</time>
      </trkpt>
      <trkpt lat="47.43993" lon="8.48599">
        <ele>439.7</ele>
        <time>2022-10-02T15:10:55Z</time>
      </trkpt>
      <trkpt lat="47.4399" lon="8.48602">
        <ele>439.7</ele>
        <time>2022-10-02T15:10:56Z</time>
      </trkpt>
      <trkpt lat="47.43986" lon="8.48607">
        <ele>439.7</ele>
        <time>2022-10-02T15:10:57Z</time>
      </trkpt>
      <trkpt lat="47.43982" lon="8.4861">
        <ele>439.7</ele>
        <time>2022-10-02T15:10:58Z</time>
      </trkpt>
      <trkpt lat="47.43978" lon="8.48614">
        <ele>439.7</ele>
        <time>2022-10-02T15:10:59Z</time>
      </trkpt>
      <trkpt lat="47.43975" lon="8.48618">
        <ele>439.7</ele>
        <time>2022-10-02T15:11:00Z</time>
      </trkpt>
      <trkpt lat="47.43971" lon="8.48621">
        <ele>439.8</ele>
        <time>2022-10-02T15:11:01Z</time>
      </trkpt>
      <trkpt lat="47.43967" lon="8.48625">
        <ele>439.8</ele>
        <time>2022-10-02T15:11:02Z</time>
      </trkpt>
      <trkpt lat="47.43964" lon="8.48628">
        <ele>439.8</ele>
        <time>2022-10-02T15:11:03Z</time>
      </trkpt>
      <trkpt lat="47.4396" lon="8.48633">
        <ele>439.9</ele>
        <time>2022-10-02T15:11:04Z</time>
      </trkpt>
      <trkpt lat="47.43956" lon="8.48636">
        <ele>439.9</ele>
        <time>2022-10-02T15:11:05Z</time>
      </trkpt>
      <trkpt lat="47.43953" lon="8.4864">
        <ele>439.9</ele>
        <time>2022-10-02T15:11:06Z</time>
      </trkpt>
      <trkpt lat="47.43949" lon="8.48644">
        <ele>439.9</ele>
        <time>2022-10-02T15:11:07Z</time>
      </trkpt>
      <trkpt lat="47.43947" lon="8.48646">
        <ele>440</ele>
        <time>2022-10-02T15:11:08Z</time>
      </trkpt>
      <trkpt lat="47.43942" lon="8.48649">
        <ele>440</ele>
        <time>2022-10-02T15:11:09Z</time>
      </trkpt>
      <trkpt lat="47.43939" lon="8.48654">
        <ele>440</ele>
        <time>2022-10-02T15:11:10Z</time>
      </trkpt>
      <trkpt lat="47.43936" lon="8.48657">
        <ele>440.1</ele>
        <time>2022-10-02T15:11:11Z</time>
      </trkpt>
      <trkpt lat="47.43932" lon="8.48662">
        <ele>440.1</ele>
        <time>2022-10-02T15:11:12Z</time>
      </trkpt>
      <trkpt lat="47.43929" lon="8.48665">
        <ele>440.2</ele>
        <time>2022-10-02T15:11:13Z</time>
      </trkpt>
      <trkpt lat="47.43925" lon="8.48669">
        <ele>440.2</ele>
        <time>2022-10-02T15:11:14Z</time>
      </trkpt>
      <trkpt lat="47.43922" lon="8.48674">
        <ele>440.3</ele>
        <time>2022-10-02T15:11:15Z</time>
      </trkpt>
      <trkpt lat="47.4392" lon="8.48678">
        <ele>440.3</ele>
        <time>2022-10-02T15:11:16Z</time>
      </trkpt>
      <trkpt lat="47.43916" lon="8.48683">
        <ele>440.4</ele>
        <time>2022-10-02T15:11:17Z</time>
      </trkpt>
      <trkpt lat="47.43914" lon="8.48688">
        <ele>440.4</ele>
        <time>2022-10-02T15:11:18Z</time>
      </trkpt>
      <trkpt lat="47.43912" lon="8.48693">
        <ele>440.4</ele>
        <time>2022-10-02T15:11:19Z</time>
      </trkpt>
      <trkpt lat="47.43909" lon="8.48699">
        <ele>440.5</ele>
        <time>2022-10-02T15:11:20Z</time>
      </trkpt>
      <trkpt lat="47.43907" lon="8.48704">
        <ele>440.5</ele>
        <time>2022-10-02T15:11:21Z</time>
      </trkpt>
      <trkpt lat="47.43905" lon="8.48709">
        <ele>440.6</ele>
        <time>2022-10-02T15:11:22Z</time>
      </trkpt>
      <trkpt lat="47.43903" lon="8.48715">
        <ele>440.6</ele>
        <time>2022-10-02T15:11:23Z</time>
      </trkpt>
      <trkpt lat="47.43903" lon="8.4872">
        <ele>440.7</ele>
        <time>2022-10-02T15:11:24Z</time>
      </trkpt>
      <trkpt lat="47.43902" lon="8.48727">
        <ele>440.8</ele>
        <time>2022-10-02T15:11:25Z</time>
      </trkpt>
      <trkpt lat="47.43901" lon="8.48735">
        <ele>440.8</ele>
        <time>2022-10-02T15:11:26Z</time>
      </trkpt>
      <trkpt lat="47.43901" lon="8.48739">
        <ele>440.9</ele>
        <time>2022-10-02T15:11:27Z</time>
      </trkpt>
      <trkpt lat="47.43901" lon="8.48746">
        <ele>441</ele>
        <time>2022-10-02T15:11:28Z</time>
      </trkpt>
      <trkpt lat="47.439" lon="8.48752">
        <ele>441.1</ele>
        <time>2022-10-02T15:11:29Z</time>
      </trkpt>
      <trkpt lat="47.439" lon="8.48757">
        <ele>441.1</ele>
        <time>2022-10-02T15:11:30Z</time>
      </trkpt>
      <trkpt lat="47.439" lon="8.48762">
        <ele>441.2</ele>
        <time>2022-10-02T15:11:31Z</time>
      </trkpt>
      <trkpt lat="47.43899" lon="8.48768">
        <ele>441.2</ele>
        <time>2022-10-02T15:11:32Z</time>
      </trkpt>
      <trkpt lat="47.43897" lon="8.48774">
        <ele>441.2</ele>
        <time>2022-10-02T15:11:33Z</time>
      </trkpt>
      <trkpt lat="47.43896" lon="8.48779">
        <ele>441.3</ele>
        <time>2022-10-02T15:11:34Z</time>
      </trkpt>
      <trkpt lat="47.43895" lon="8.48786">
        <ele>441.3</ele>
        <time>2022-10-02T15:11:35Z</time>
      </trkpt>
      <trkpt lat="47.43893" lon="8.48792">
        <ele>441.3</ele>
        <time>2022-10-02T15:11:36Z</time>
      </trkpt>
      <trkpt lat="47.43892" lon="8.488">
        <ele>441.4</ele>
        <time>2022-10-02T15:11:37Z</time>
      </trkpt>
      <trkpt lat="47.43892" lon="8.48805">
        <ele>441.4</ele>
        <time>2022-10-02T15:11:38Z</time>
      </trkpt>
      <trkpt lat="47.43889" lon="8.48812">
        <ele>441.4</ele>
        <time>2022-10-02T15:11:39Z</time>
      </trkpt>
      <trkpt lat="47.43889" lon="8.4882">
        <ele>441.5</ele>
        <time>2022-10-02T15:11:40Z</time>
      </trkpt>
      <trkpt lat="47.43887" lon="8.48823">
        <ele>441.5</ele>
        <time>2022-10-02T15:11:41Z</time>
      </trkpt>
      <trkpt lat="47.43886" lon="8.4883">
        <ele>441.5</ele>
        <time>2022-10-02T15:11:42Z</time>
      </trkpt>
      <trkpt lat="47.43885" lon="8.48837">
        <ele>441.6</ele>
        <time>2022-10-02T15:11:43Z</time>
      </trkpt>
      <trkpt lat="47.43883" lon="8.48843">
        <ele>441.6</ele>
        <time>2022-10-02T15:11:44Z</time>
      </trkpt>
      <trkpt lat="47.43882" lon="8.4885">
        <ele>441.7</ele>
        <time>2022-10-02T15:11:45Z</time>
      </trkpt>
      <trkpt lat="47.43881" lon="8.48856">
        <ele>441.7</ele>
        <time>2022-10-02T15:11:46Z</time>
      </trkpt>
      <trkpt lat="47.4388" lon="8.48863">
        <ele>441.8</ele>
        <time>2022-10-02T15:11:47Z</time>
      </trkpt>
      <trkpt lat="47.43878" lon="8.48869">
        <ele>441.8</ele>
        <time>2022-10-02T15:11:48Z</time>
      </trkpt>
      <trkpt lat="47.43877" lon="8.48875">
        <ele>441.8</ele>
        <time>2022-10-02T15:11:49Z</time>
      </trkpt>
      <trkpt lat="47.43876" lon="8.48881">
        <ele>441.9</ele>
        <time>2022-10-02T15:11:50Z</time>
      </trkpt>
      <trkpt lat="47.43875" lon="8.48888">
        <ele>441.9</ele>
        <time>2022-10-02T15:11:51Z</time>
      </trkpt>
      <trkpt lat="47.43873" lon="8.48894">
        <ele>442</ele>
        <time>2022-10-02T15:11:52Z</time>
      </trkpt>
      <trkpt lat="47.43872" lon="8.48901">
        <ele>442</ele>
        <time>2022-10-02T15:11:53Z</time>
      </trkpt>
      <trkpt lat="47.43871" lon="8.48906">
        <ele>442.1</ele>
        <time>2022-10-02T15:11:54Z</time>
      </trkpt>
      <trkpt lat="47.4387" lon="8.48913">
        <ele>442.2</ele>
        <time>2022-10-02T15:11:55Z</time>
      </trkpt>
      <trkpt lat="47.43868" lon="8.4892">
        <ele>442.2</ele>
        <time>2022-10-02T15:11:56Z</time>
      </trkpt>
      <trkpt lat="47.43867" lon="8.48926">
        <ele>442.3</ele>
        <time>2022-10-02T15:11:57Z</time>
      </trkpt>
      <trkpt lat="47.43866" lon="8.48933">
        <ele>442.3</ele>
        <time>2022-10-02T15:11:58Z</time>
      </trkpt>
      <trkpt lat="47.43864" lon="8.48939">
        <ele>442.4</ele>
        <time>2022-10-02T15:11:59Z</time>
      </trkpt>
      <trkpt lat="47.43863" lon="8.48944">
        <ele>442.4</ele>
        <time>2022-10-02T15:12:00Z</time>
      </trkpt>
      <trkpt lat="47.43862" lon="8.48951">
        <ele>442.5</ele>
        <time>2022-10-02T15:12:01Z</time>
      </trkpt>
      <trkpt lat="47.43861" lon="8.48957">
        <ele>442.5</ele>
        <time>2022-10-02T15:12:02Z</time>
      </trkpt>
      <trkpt lat="47.43859" lon="8.48963">
        <ele>442.6</ele>
        <time>2022-10-02T15:12:03Z</time>
      </trkpt>
      <trkpt lat="47.43858" lon="8.48969">
        <ele>442.7</ele>
        <time>2022-10-02T15:12:04Z</time>
      </trkpt>
      <trkpt lat="47.43857" lon="8.48975">
        <ele>442.7</ele>
        <time>2022-10-02T15:12:05Z</time>
      </trkpt>
      <trkpt lat="47.43856" lon="8.48981">
        <ele>442.7</ele>
        <time>2022-10-02T15:12:06Z</time>
      </trkpt>
      <trkpt lat="47.43855" lon="8.48987">
        <ele>442.8</ele>
        <time>2022-10-02T15:12:07Z</time>
      </trkpt>
      <trkpt lat="47.43854" lon="8.48993">
        <ele>442.8</ele>
        <time>2022-10-02T15:12:08Z</time>
      </trkpt>
      <trkpt lat="47.43853" lon="8.48998">
        <ele>442.9</ele>
        <time>2022-10-02T15:12:09Z</time>
      </trkpt>
      <trkpt lat="47.43851" lon="8.49005">
        <ele>442.9</ele>
        <time>2022-10-02T15:12:10Z</time>
      </trkpt>
      <trkpt lat="47.4385" lon="8.4901">
        <ele>442.9</ele>
        <time>2022-10-02T15:12:11Z</time>
      </trkpt>
      <trkpt lat="47.43849" lon="8.49015">
        <ele>443</ele>
        <time>2022-10-02T15:12:12Z</time>
      </trkpt>
      <trkpt lat="47.43848" lon="8.49022">
        <ele>443</ele>
        <time>2022-10-02T15:12:13Z</time>
      </trkpt>
      <trkpt lat="47.43847" lon="8.49027">
        <ele>443</ele>
        <time>2022-10-02T15:12:14Z</time>
      </trkpt>
      <trkpt lat="47.43845" lon="8.49034">
        <ele>443</ele>
        <time>2022-10-02T15:12:15Z</time>
      </trkpt>
      <trkpt lat="47.43844" lon="8.49039">
        <ele>442.9</ele>
        <time>2022-10-02T15:12:16Z</time>
      </trkpt>
      <trkpt lat="47.43843" lon="8.49046">
        <ele>442.9</ele>
        <time>2022-10-02T15:12:17Z</time>
      </trkpt>
      <trkpt lat="47.43842" lon="8.49051">
        <ele>442.9</ele>
        <time>2022-10-02T15:12:18Z</time>
      </trkpt>
      <trkpt lat="47.43841" lon="8.49058">
        <ele>442.8</ele>
        <time>2022-10-02T15:12:19Z</time>
      </trkpt>
      <trkpt lat="47.4384" lon="8.49065">
        <ele>442.7</ele>
        <time>2022-10-02T15:12:20Z</time>
      </trkpt>
      <trkpt lat="47.43838" lon="8.49072">
        <ele>442.6</ele>
        <time>2022-10-02T15:12:21Z</time>
      </trkpt>
      <trkpt lat="47.43838" lon="8.49079">
        <ele>442.5</ele>
        <time>2022-10-02T15:12:22Z</time>
      </trkpt>
      <trkpt lat="47.43836" lon="8.49087">
        <ele>442.4</ele>
        <time>2022-10-02T15:12:23Z</time>
      </trkpt>
      <trkpt lat="47.43834" lon="8.49095">
        <ele>442.3</ele>
        <time>2022-10-02T15:12:25Z</time>
      </trkpt>
      <trkpt lat="47.43832" lon="8.49101">
        <ele>442.2</ele>
        <time>2022-10-02T15:12:26Z</time>
      </trkpt>
      <trkpt lat="47.43831" lon="8.49109">
        <ele>442.2</ele>
        <time>2022-10-02T15:12:27Z</time>
      </trkpt>
      <trkpt lat="47.4383" lon="8.49115">
        <ele>442.2</ele>
        <time>2022-10-02T15:12:28Z</time>
      </trkpt>
      <trkpt lat="47.43828" lon="8.49122">
        <ele>442.2</ele>
        <time>2022-10-02T15:12:29Z</time>
      </trkpt>
      <trkpt lat="47.43826" lon="8.49128">
        <ele>442.2</ele>
        <time>2022-10-02T15:12:30Z</time>
      </trkpt>
      <trkpt lat="47.43823" lon="8.49136">
        <ele>442.2</ele>
        <time>2022-10-02T15:12:31Z</time>
      </trkpt>
      <trkpt lat="47.43818" lon="8.4915">
        <ele>442.2</ele>
        <time>2022-10-02T15:12:32Z</time>
      </trkpt>
      <trkpt lat="47.43816" lon="8.49155">
        <ele>442.2</ele>
        <time>2022-10-02T15:12:33Z</time>
      </trkpt>
      <trkpt lat="47.43813" lon="8.49162">
        <ele>442.3</ele>
        <time>2022-10-02T15:12:35Z</time>
      </trkpt>
      <trkpt lat="47.43811" lon="8.49168">
        <ele>442.3</ele>
        <time>2022-10-02T15:12:36Z</time>
      </trkpt>
      <trkpt lat="47.43808" lon="8.49174">
        <ele>442.3</ele>
        <time>2022-10-02T15:12:37Z</time>
      </trkpt>
      <trkpt lat="47.43803" lon="8.49186">
        <ele>442.3</ele>
        <time>2022-10-02T15:12:38Z</time>
      </trkpt>
      <trkpt lat="47.43799" lon="8.49191">
        <ele>442.3</ele>
        <time>2022-10-02T15:12:39Z</time>
      </trkpt>
      <trkpt lat="47.43796" lon="8.49196">
        <ele>442.3</ele>
        <time>2022-10-02T15:12:41Z</time>
      </trkpt>
      <trkpt lat="47.4379" lon="8.49207">
        <ele>442.3</ele>
        <time>2022-10-02T15:12:42Z</time>
      </trkpt>
      <trkpt lat="47.43787" lon="8.49212">
        <ele>442.3</ele>
        <time>2022-10-02T15:12:43Z</time>
      </trkpt>
      <trkpt lat="47.43784" lon="8.49218">
        <ele>442.2</ele>
        <time>2022-10-02T15:12:44Z</time>
      </trkpt>
      <trkpt lat="47.43781" lon="8.49224">
        <ele>442.2</ele>
        <time>2022-10-02T15:12:45Z</time>
      </trkpt>
      <trkpt lat="47.43777" lon="8.4923">
        <ele>442.2</ele>
        <time>2022-10-02T15:12:46Z</time>
      </trkpt>
      <trkpt lat="47.43773" lon="8.49235">
        <ele>442.2</ele>
        <time>2022-10-02T15:12:47Z</time>
      </trkpt>
      <trkpt lat="47.43771" lon="8.49241">
        <ele>442.2</ele>
        <time>2022-10-02T15:12:48Z</time>
      </trkpt>
      <trkpt lat="47.43768" lon="8.49246">
        <ele>442.2</ele>
        <time>2022-10-02T15:12:49Z</time>
      </trkpt>
      <trkpt lat="47.43764" lon="8.49252">
        <ele>442.2</ele>
        <time>2022-10-02T15:12:50Z</time>
      </trkpt>
      <trkpt lat="47.4376" lon="8.49258">
        <ele>442.2</ele>
        <time>2022-10-02T15:12:51Z</time>
      </trkpt>
      <trkpt lat="47.43757" lon="8.49263">
        <ele>442.2</ele>
        <time>2022-10-02T15:12:52Z</time>
      </trkpt>
      <trkpt lat="47.43753" lon="8.49269">
        <ele>442.2</ele>
        <time>2022-10-02T15:12:53Z</time>
      </trkpt>
      <trkpt lat="47.4375" lon="8.49275">
        <ele>442.2</ele>
        <time>2022-10-02T15:12:54Z</time>
      </trkpt>
      <trkpt lat="47.43746" lon="8.49281">
        <ele>442.2</ele>
        <time>2022-10-02T15:12:55Z</time>
      </trkpt>
      <trkpt lat="47.43743" lon="8.49287">
        <ele>442.2</ele>
        <time>2022-10-02T15:12:56Z</time>
      </trkpt>
      <trkpt lat="47.43739" lon="8.49293">
        <ele>442.2</ele>
        <time>2022-10-02T15:12:57Z</time>
      </trkpt>
      <trkpt lat="47.43736" lon="8.493">
        <ele>442.2</ele>
        <time>2022-10-02T15:12:58Z</time>
      </trkpt>
      <trkpt lat="47.43733" lon="8.49305">
        <ele>442.2</ele>
        <time>2022-10-02T15:12:59Z</time>
      </trkpt>
      <trkpt lat="47.43729" lon="8.49311">
        <ele>442.3</ele>
        <time>2022-10-02T15:13:00Z</time>
      </trkpt>
      <trkpt lat="47.43726" lon="8.49316">
        <ele>442.3</ele>
        <time>2022-10-02T15:13:01Z</time>
      </trkpt>
      <trkpt lat="47.43723" lon="8.49322">
        <ele>442.4</ele>
        <time>2022-10-02T15:13:02Z</time>
      </trkpt>
      <trkpt lat="47.4372" lon="8.49327">
        <ele>442.4</ele>
        <time>2022-10-02T15:13:03Z</time>
      </trkpt>
      <trkpt lat="47.43717" lon="8.49331">
        <ele>442.4</ele>
        <time>2022-10-02T15:13:04Z</time>
      </trkpt>
      <trkpt lat="47.43714" lon="8.49337">
        <ele>442.4</ele>
        <time>2022-10-02T15:13:05Z</time>
      </trkpt>
      <trkpt lat="47.43711" lon="8.49344">
        <ele>442.5</ele>
        <time>2022-10-02T15:13:06Z</time>
      </trkpt>
      <trkpt lat="47.43707" lon="8.49348">
        <ele>442.5</ele>
        <time>2022-10-02T15:13:07Z</time>
      </trkpt>
      <trkpt lat="47.43705" lon="8.49352">
        <ele>442.5</ele>
        <time>2022-10-02T15:13:08Z</time>
      </trkpt>
      <trkpt lat="47.43702" lon="8.49357">
        <ele>442.5</ele>
        <time>2022-10-02T15:13:09Z</time>
      </trkpt>
      <trkpt lat="47.43699" lon="8.49362">
        <ele>442.5</ele>
        <time>2022-10-02T15:13:10Z</time>
      </trkpt>
      <trkpt lat="47.43695" lon="8.49367">
        <ele>442.6</ele>
        <time>2022-10-02T15:13:11Z</time>
      </trkpt>
      <trkpt lat="47.43692" lon="8.49372">
        <ele>442.6</ele>
        <time>2022-10-02T15:13:12Z</time>
      </trkpt>
      <trkpt lat="47.4369" lon="8.49376">
        <ele>442.6</ele>
        <time>2022-10-02T15:13:13Z</time>
      </trkpt>
      <trkpt lat="47.43687" lon="8.49382">
        <ele>442.7</ele>
        <time>2022-10-02T15:13:14Z</time>
      </trkpt>
      <trkpt lat="47.43684" lon="8.49387">
        <ele>442.7</ele>
        <time>2022-10-02T15:13:15Z</time>
      </trkpt>
      <trkpt lat="47.4368" lon="8.49392">
        <ele>442.7</ele>
        <time>2022-10-02T15:13:16Z</time>
      </trkpt>
      <trkpt lat="47.43677" lon="8.49398">
        <ele>442.8</ele>
        <time>2022-10-02T15:13:17Z</time>
      </trkpt>
      <trkpt lat="47.43675" lon="8.49401">
        <ele>442.8</ele>
        <time>2022-10-02T15:13:18Z</time>
      </trkpt>
      <trkpt lat="47.43673" lon="8.49406">
        <ele>442.8</ele>
        <time>2022-10-02T15:13:19Z</time>
      </trkpt>
      <trkpt lat="47.4367" lon="8.49412">
        <ele>442.9</ele>
        <time>2022-10-02T15:13:20Z</time>
      </trkpt>
      <trkpt lat="47.43667" lon="8.49416">
        <ele>442.9</ele>
        <time>2022-10-02T15:13:21Z</time>
      </trkpt>
      <trkpt lat="47.43665" lon="8.4942">
        <ele>442.9</ele>
        <time>2022-10-02T15:13:22Z</time>
      </trkpt>
      <trkpt lat="47.43662" lon="8.49425">
        <ele>443</ele>
        <time>2022-10-02T15:13:23Z</time>
      </trkpt>
      <trkpt lat="47.43659" lon="8.49429">
        <ele>443</ele>
        <time>2022-10-02T15:13:24Z</time>
      </trkpt>
      <trkpt lat="47.43656" lon="8.49435">
        <ele>443.1</ele>
        <time>2022-10-02T15:13:25Z</time>
      </trkpt>
      <trkpt lat="47.43654" lon="8.4944">
        <ele>443.1</ele>
        <time>2022-10-02T15:13:26Z</time>
      </trkpt>
      <trkpt lat="47.4365" lon="8.49446">
        <ele>443.2</ele>
        <time>2022-10-02T15:13:27Z</time>
      </trkpt>
      <trkpt lat="47.43648" lon="8.4945">
        <ele>443.2</ele>
        <time>2022-10-02T15:13:28Z</time>
      </trkpt>
      <trkpt lat="47.43646" lon="8.49455">
        <ele>443.2</ele>
        <time>2022-10-02T15:13:29Z</time>
      </trkpt>
      <trkpt lat="47.43643" lon="8.49458">
        <ele>443.2</ele>
        <time>2022-10-02T15:13:30Z</time>
      </trkpt>
      <trkpt lat="47.43641" lon="8.49464">
        <ele>443.2</ele>
        <time>2022-10-02T15:13:31Z</time>
      </trkpt>
      <trkpt lat="47.43638" lon="8.49469">
        <ele>443.2</ele>
        <time>2022-10-02T15:13:32Z</time>
      </trkpt>
      <trkpt lat="47.43637" lon="8.49474">
        <ele>443.2</ele>
        <time>2022-10-02T15:13:33Z</time>
      </trkpt>
      <trkpt lat="47.43636" lon="8.4948">
        <ele>443.2</ele>
        <time>2022-10-02T15:13:34Z</time>
      </trkpt>
      <trkpt lat="47.43634" lon="8.49487">
        <ele>443.2</ele>
        <time>2022-10-02T15:13:35Z</time>
      </trkpt>
      <trkpt lat="47.43633" lon="8.49493">
        <ele>443.2</ele>
        <time>2022-10-02T15:13:36Z</time>
      </trkpt>
      <trkpt lat="47.43632" lon="8.495">
        <ele>443.2</ele>
        <time>2022-10-02T15:13:37Z</time>
      </trkpt>
      <trkpt lat="47.43632" lon="8.49506">
        <ele>443.2</ele>
        <time>2022-10-02T15:13:38Z</time>
      </trkpt>
      <trkpt lat="47.43633" lon="8.49513">
        <ele>443.3</ele>
        <time>2022-10-02T15:13:39Z</time>
      </trkpt>
      <trkpt lat="47.43633" lon="8.4952">
        <ele>443.3</ele>
        <time>2022-10-02T15:13:40Z</time>
      </trkpt>
      <trkpt lat="47.43631" lon="8.49527">
        <ele>443.3</ele>
        <time>2022-10-02T15:13:41Z</time>
      </trkpt>
      <trkpt lat="47.43631" lon="8.49534">
        <ele>443.3</ele>
        <time>2022-10-02T15:13:42Z</time>
      </trkpt>
      <trkpt lat="47.4363" lon="8.49541">
        <ele>443.3</ele>
        <time>2022-10-02T15:13:43Z</time>
      </trkpt>
      <trkpt lat="47.43629" lon="8.49545">
        <ele>443.3</ele>
        <time>2022-10-02T15:13:44Z</time>
      </trkpt>
      <trkpt lat="47.43629" lon="8.49551">
        <ele>443.2</ele>
        <time>2022-10-02T15:13:45Z</time>
      </trkpt>
      <trkpt lat="47.43628" lon="8.49557">
        <ele>443.2</ele>
        <time>2022-10-02T15:13:46Z</time>
      </trkpt>
      <trkpt lat="47.43628" lon="8.49562">
        <ele>443.2</ele>
        <time>2022-10-02T15:13:47Z</time>
      </trkpt>
      <trkpt lat="47.43627" lon="8.49568">
        <ele>443.2</ele>
        <time>2022-10-02T15:13:48Z</time>
      </trkpt>
      <trkpt lat="47.43626" lon="8.49574">
        <ele>443.2</ele>
        <time>2022-10-02T15:13:49Z</time>
      </trkpt>
      <trkpt lat="47.43626" lon="8.49576">
        <ele>443.2</ele>
        <time>2022-10-02T15:13:50Z</time>
      </trkpt>
      <trkpt lat="47.43626" lon="8.49581">
        <ele>443.1</ele>
        <time>2022-10-02T15:13:51Z</time>
      </trkpt>
      <trkpt lat="47.43626" lon="8.49587">
        <ele>443.1</ele>
        <time>2022-10-02T15:13:52Z</time>
      </trkpt>
      <trkpt lat="47.43625" lon="8.49592">
        <ele>443.1</ele>
        <time>2022-10-02T15:13:53Z</time>
      </trkpt>
      <trkpt lat="47.43625" lon="8.49598">
        <ele>443.1</ele>
        <time>2022-10-02T15:13:54Z</time>
      </trkpt>
      <trkpt lat="47.43624" lon="8.49602">
        <ele>443.1</ele>
        <time>2022-10-02T15:13:55Z</time>
      </trkpt>
      <trkpt lat="47.43623" lon="8.49609">
        <ele>443.1</ele>
        <time>2022-10-02T15:13:56Z</time>
      </trkpt>
      <trkpt lat="47.43623" lon="8.49616">
        <ele>443</ele>
        <time>2022-10-02T15:13:57Z</time>
      </trkpt>
      <trkpt lat="47.43622" lon="8.49622">
        <ele>443</ele>
        <time>2022-10-02T15:13:58Z</time>
      </trkpt>
      <trkpt lat="47.43622" lon="8.49628">
        <ele>443</ele>
        <time>2022-10-02T15:13:59Z</time>
      </trkpt>
      <trkpt lat="47.43621" lon="8.49636">
        <ele>443</ele>
        <time>2022-10-02T15:14:00Z</time>
      </trkpt>
      <trkpt lat="47.4362" lon="8.49642">
        <ele>443</ele>
        <time>2022-10-02T15:14:01Z</time>
      </trkpt>
      <trkpt lat="47.43619" lon="8.49648">
        <ele>443</ele>
        <time>2022-10-02T15:14:02Z</time>
      </trkpt>
      <trkpt lat="47.43619" lon="8.49654">
        <ele>443</ele>
        <time>2022-10-02T15:14:03Z</time>
      </trkpt>
      <trkpt lat="47.43618" lon="8.4966">
        <ele>443</ele>
        <time>2022-10-02T15:14:04Z</time>
      </trkpt>
      <trkpt lat="47.43618" lon="8.49665">
        <ele>443</ele>
        <time>2022-10-02T15:14:05Z</time>
      </trkpt>
      <trkpt lat="47.43616" lon="8.49674">
        <ele>443</ele>
        <time>2022-10-02T15:14:06Z</time>
      </trkpt>
      <trkpt lat="47.43615" lon="8.49682">
        <ele>442.9</ele>
        <time>2022-10-02T15:14:07Z</time>
      </trkpt>
      <trkpt lat="47.43615" lon="8.4969">
        <ele>442.9</ele>
        <time>2022-10-02T15:14:08Z</time>
      </trkpt>
      <trkpt lat="47.43614" lon="8.49696">
        <ele>442.9</ele>
        <time>2022-10-02T15:14:09Z</time>
      </trkpt>
      <trkpt lat="47.43613" lon="8.49701">
        <ele>442.9</ele>
        <time>2022-10-02T15:14:10Z</time>
      </trkpt>
      <trkpt lat="47.43612" lon="8.49706">
        <ele>442.9</ele>
        <time>2022-10-02T15:14:11Z</time>
      </trkpt>
      <trkpt lat="47.43612" lon="8.49714">
        <ele>442.9</ele>
        <time>2022-10-02T15:14:12Z</time>
      </trkpt>
      <trkpt lat="47.43611" lon="8.49721">
        <ele>442.9</ele>
        <time>2022-10-02T15:14:13Z</time>
      </trkpt>
      <trkpt lat="47.4361" lon="8.49728">
        <ele>443</ele>
        <time>2022-10-02T15:14:14Z</time>
      </trkpt>
      <trkpt lat="47.43609" lon="8.49733">
        <ele>443</ele>
        <time>2022-10-02T15:14:15Z</time>
      </trkpt>
      <trkpt lat="47.43609" lon="8.49739">
        <ele>443</ele>
        <time>2022-10-02T15:14:16Z</time>
      </trkpt>
      <trkpt lat="47.43609" lon="8.49743">
        <ele>443</ele>
        <time>2022-10-02T15:14:17Z</time>
      </trkpt>
      <trkpt lat="47.43608" lon="8.49747">
        <ele>443</ele>
        <time>2022-10-02T15:14:18Z</time>
      </trkpt>
      <trkpt lat="47.43608" lon="8.49753">
        <ele>443</ele>
        <time>2022-10-02T15:14:19Z</time>
      </trkpt>
      <trkpt lat="47.43607" lon="8.49759">
        <ele>443</ele>
        <time>2022-10-02T15:14:20Z</time>
      </trkpt>
      <trkpt lat="47.43607" lon="8.49762">
        <ele>443</ele>
        <time>2022-10-02T15:14:21Z</time>
      </trkpt>
      <trkpt lat="47.43607" lon="8.49772">
        <ele>443</ele>
        <time>2022-10-02T15:14:22Z</time>
      </trkpt>
      <trkpt lat="47.43606" lon="8.49778">
        <ele>443</ele>
        <time>2022-10-02T15:14:23Z</time>
      </trkpt>
      <trkpt lat="47.43605" lon="8.49784">
        <ele>443</ele>
        <time>2022-10-02T15:14:24Z</time>
      </trkpt>
      <trkpt lat="47.43604" lon="8.49789">
        <ele>443</ele>
        <time>2022-10-02T15:14:25Z</time>
      </trkpt>
      <trkpt lat="47.43605" lon="8.49797">
        <ele>443.1</ele>
        <time>2022-10-02T15:14:26Z</time>
      </trkpt>
      <trkpt lat="47.43603" lon="8.49805">
        <ele>443.1</ele>
        <time>2022-10-02T15:14:27Z</time>
      </trkpt>
      <trkpt lat="47.43602" lon="8.49812">
        <ele>443.1</ele>
        <time>2022-10-02T15:14:28Z</time>
      </trkpt>
      <trkpt lat="47.43601" lon="8.49818">
        <ele>443.1</ele>
        <time>2022-10-02T15:14:29Z</time>
      </trkpt>
      <trkpt lat="47.43601" lon="8.49825">
        <ele>443.1</ele>
        <time>2022-10-02T15:14:31Z</time>
      </trkpt>
      <trkpt lat="47.436" lon="8.49831">
        <ele>443.1</ele>
        <time>2022-10-02T15:14:32Z</time>
      </trkpt>
      <trkpt lat="47.43599" lon="8.49839">
        <ele>443.1</ele>
        <time>2022-10-02T15:14:33Z</time>
      </trkpt>
      <trkpt lat="47.43598" lon="8.49845">
        <ele>443.1</ele>
        <time>2022-10-02T15:14:34Z</time>
      </trkpt>
      <trkpt lat="47.43598" lon="8.49851">
        <ele>443</ele>
        <time>2022-10-02T15:14:35Z</time>
      </trkpt>
      <trkpt lat="47.43596" lon="8.49857">
        <ele>443</ele>
        <time>2022-10-02T15:14:36Z</time>
      </trkpt>
      <trkpt lat="47.43596" lon="8.49863">
        <ele>442.9</ele>
        <time>2022-10-02T15:14:37Z</time>
      </trkpt>
      <trkpt lat="47.43595" lon="8.4987">
        <ele>442.9</ele>
        <time>2022-10-02T15:14:38Z</time>
      </trkpt>
      <trkpt lat="47.43594" lon="8.49877">
        <ele>442.8</ele>
        <time>2022-10-02T15:14:39Z</time>
      </trkpt>
      <trkpt lat="47.43594" lon="8.49885">
        <ele>442.7</ele>
        <time>2022-10-02T15:14:40Z</time>
      </trkpt>
      <trkpt lat="47.43594" lon="8.49893">
        <ele>442.6</ele>
        <time>2022-10-02T15:14:41Z</time>
      </trkpt>
      <trkpt lat="47.43594" lon="8.49901">
        <ele>442.5</ele>
        <time>2022-10-02T15:14:42Z</time>
      </trkpt>
      <trkpt lat="47.43593" lon="8.49908">
        <ele>442.4</ele>
        <time>2022-10-02T15:14:43Z</time>
      </trkpt>
      <trkpt lat="47.43593" lon="8.49916">
        <ele>442.3</ele>
        <time>2022-10-02T15:14:44Z</time>
      </trkpt>
      <trkpt lat="47.43593" lon="8.49927">
        <ele>442.3</ele>
        <time>2022-10-02T15:14:45Z</time>
      </trkpt>
      <trkpt lat="47.43593" lon="8.49934">
        <ele>442.3</ele>
        <time>2022-10-02T15:14:46Z</time>
      </trkpt>
      <trkpt lat="47.43594" lon="8.49943">
        <ele>442.4</ele>
        <time>2022-10-02T15:14:47Z</time>
      </trkpt>
      <trkpt lat="47.43595" lon="8.49959">
        <ele>442.5</ele>
        <time>2022-10-02T15:14:48Z</time>
      </trkpt>
      <trkpt lat="47.43596" lon="8.49966">
        <ele>442.6</ele>
        <time>2022-10-02T15:14:49Z</time>
      </trkpt>
      <trkpt lat="47.43597" lon="8.49973">
        <ele>442.6</ele>
        <time>2022-10-02T15:14:50Z</time>
      </trkpt>
      <trkpt lat="47.43598" lon="8.4998">
        <ele>442.6</ele>
        <time>2022-10-02T15:14:51Z</time>
      </trkpt>
      <trkpt lat="47.43599" lon="8.49986">
        <ele>442.7</ele>
        <time>2022-10-02T15:14:52Z</time>
      </trkpt>
      <trkpt lat="47.43599" lon="8.49993">
        <ele>442.7</ele>
        <time>2022-10-02T15:14:53Z</time>
      </trkpt>
      <trkpt lat="47.43601" lon="8.49999">
        <ele>442.8</ele>
        <time>2022-10-02T15:14:54Z</time>
      </trkpt>
      <trkpt lat="47.43602" lon="8.50005">
        <ele>442.9</ele>
        <time>2022-10-02T15:14:55Z</time>
      </trkpt>
      <trkpt lat="47.43603" lon="8.50011">
        <ele>443</ele>
        <time>2022-10-02T15:14:56Z</time>
      </trkpt>
      <trkpt lat="47.43604" lon="8.50016">
        <ele>443.1</ele>
        <time>2022-10-02T15:14:57Z</time>
      </trkpt>
      <trkpt lat="47.43606" lon="8.50023">
        <ele>443.3</ele>
        <time>2022-10-02T15:14:58Z</time>
      </trkpt>
      <trkpt lat="47.43607" lon="8.50028">
        <ele>443.4</ele>
        <time>2022-10-02T15:14:59Z</time>
      </trkpt>
      <trkpt lat="47.43608" lon="8.50034">
        <ele>443.5</ele>
        <time>2022-10-02T15:15:00Z</time>
      </trkpt>
      <trkpt lat="47.4361" lon="8.50039">
        <ele>443.6</ele>
        <time>2022-10-02T15:15:01Z</time>
      </trkpt>
      <trkpt lat="47.43611" lon="8.50045">
        <ele>443.8</ele>
        <time>2022-10-02T15:15:02Z</time>
      </trkpt>
      <trkpt lat="47.43612" lon="8.50049">
        <ele>443.8</ele>
        <time>2022-10-02T15:15:03Z</time>
      </trkpt>
      <trkpt lat="47.43613" lon="8.50054">
        <ele>444</ele>
        <time>2022-10-02T15:15:04Z</time>
      </trkpt>
      <trkpt lat="47.43615" lon="8.50059">
        <ele>444.1</ele>
        <time>2022-10-02T15:15:05Z</time>
      </trkpt>
      <trkpt lat="47.43616" lon="8.50066">
        <ele>444.2</ele>
        <time>2022-10-02T15:15:06Z</time>
      </trkpt>
      <trkpt lat="47.43616" lon="8.50068">
        <ele>444.2</ele>
        <time>2022-10-02T15:15:07Z</time>
      </trkpt>
      <trkpt lat="47.43618" lon="8.50073">
        <ele>444.3</ele>
        <time>2022-10-02T15:15:08Z</time>
      </trkpt>
      <trkpt lat="47.43619" lon="8.50077">
        <ele>444.3</ele>
        <time>2022-10-02T15:15:09Z</time>
      </trkpt>
      <trkpt lat="47.4362" lon="8.50082">
        <ele>444.4</ele>
        <time>2022-10-02T15:15:10Z</time>
      </trkpt>
      <trkpt lat="47.43621" lon="8.50087">
        <ele>444.5</ele>
        <time>2022-10-02T15:15:11Z</time>
      </trkpt>
      <trkpt lat="47.43622" lon="8.50092">
        <ele>444.5</ele>
        <time>2022-10-02T15:15:12Z</time>
      </trkpt>
      <trkpt lat="47.43623" lon="8.50097">
        <ele>444.5</ele>
        <time>2022-10-02T15:15:13Z</time>
      </trkpt>
      <trkpt lat="47.43624" lon="8.50102">
        <ele>444.5</ele>
        <time>2022-10-02T15:15:14Z</time>
      </trkpt>
      <trkpt lat="47.43625" lon="8.50107">
        <ele>444.5</ele>
        <time>2022-10-02T15:15:15Z</time>
      </trkpt>
      <trkpt lat="47.43627" lon="8.50112">
        <ele>444.5</ele>
        <time>2022-10-02T15:15:16Z</time>
      </trkpt>
      <trkpt lat="47.43628" lon="8.50117">
        <ele>444.5</ele>
        <time>2022-10-02T15:15:17Z</time>
      </trkpt>
      <trkpt lat="47.43629" lon="8.50121">
        <ele>444.5</ele>
        <time>2022-10-02T15:15:18Z</time>
      </trkpt>
      <trkpt lat="47.4363" lon="8.50125">
        <ele>444.5</ele>
        <time>2022-10-02T15:15:19Z</time>
      </trkpt>
      <trkpt lat="47.43631" lon="8.5013">
        <ele>444.5</ele>
        <time>2022-10-02T15:15:20Z</time>
      </trkpt>
      <trkpt lat="47.43631" lon="8.50135">
        <ele>444.5</ele>
        <time>2022-10-02T15:15:21Z</time>
      </trkpt>
      <trkpt lat="47.43632" lon="8.5014">
        <ele>444.5</ele>
        <time>2022-10-02T15:15:22Z</time>
      </trkpt>
      <trkpt lat="47.43633" lon="8.50144">
        <ele>444.5</ele>
        <time>2022-10-02T15:15:23Z</time>
      </trkpt>
      <trkpt lat="47.43633" lon="8.50149">
        <ele>444.5</ele>
        <time>2022-10-02T15:15:24Z</time>
      </trkpt>
      <trkpt lat="47.43634" lon="8.50154">
        <ele>444.4</ele>
        <time>2022-10-02T15:15:25Z</time>
      </trkpt>
      <trkpt lat="47.43636" lon="8.50157">
        <ele>444.4</ele>
        <time>2022-10-02T15:15:26Z</time>
      </trkpt>
      <trkpt lat="47.43637" lon="8.50162">
        <ele>444.4</ele>
        <time>2022-10-02T15:15:27Z</time>
      </trkpt>
      <trkpt lat="47.43638" lon="8.50167">
        <ele>444.4</ele>
        <time>2022-10-02T15:15:28Z</time>
      </trkpt>
      <trkpt lat="47.43639" lon="8.50172">
        <ele>444.4</ele>
        <time>2022-10-02T15:15:29Z</time>
      </trkpt>
      <trkpt lat="47.43641" lon="8.50177">
        <ele>444.4</ele>
        <time>2022-10-02T15:15:30Z</time>
      </trkpt>
      <trkpt lat="47.43642" lon="8.50183">
        <ele>444.5</ele>
        <time>2022-10-02T15:15:31Z</time>
      </trkpt>
      <trkpt lat="47.43642" lon="8.50186">
        <ele>444.5</ele>
        <time>2022-10-02T15:15:32Z</time>
      </trkpt>
      <trkpt lat="47.43643" lon="8.50191">
        <ele>444.5</ele>
        <time>2022-10-02T15:15:33Z</time>
      </trkpt>
      <trkpt lat="47.43644" lon="8.50195">
        <ele>444.5</ele>
        <time>2022-10-02T15:15:34Z</time>
      </trkpt>
      <trkpt lat="47.43645" lon="8.50199">
        <ele>444.5</ele>
        <time>2022-10-02T15:15:35Z</time>
      </trkpt>
      <trkpt lat="47.43645" lon="8.50203">
        <ele>444.5</ele>
        <time>2022-10-02T15:15:36Z</time>
      </trkpt>
      <trkpt lat="47.43646" lon="8.50209">
        <ele>444.5</ele>
        <time>2022-10-02T15:15:37Z</time>
      </trkpt>
      <trkpt lat="47.43646" lon="8.50213">
        <ele>444.5</ele>
        <time>2022-10-02T15:15:38Z</time>
      </trkpt>
      <trkpt lat="47.43646" lon="8.50215">
        <ele>444.5</ele>
        <time>2022-10-02T15:15:39Z</time>
      </trkpt>
      <trkpt lat="47.43644" lon="8.50218">
        <ele>444.4</ele>
        <time>2022-10-02T15:15:40Z</time>
      </trkpt>
      <trkpt lat="47.4364" lon="8.5022">
        <ele>444.4</ele>
        <time>2022-10-02T15:15:41Z</time>
      </trkpt>
      <trkpt lat="47.43639" lon="8.5022">
        <ele>444.3</ele>
        <time>2022-10-02T15:15:42Z</time>
      </trkpt>
      <trkpt lat="47.43634" lon="8.5022">
        <ele>444.2</ele>
        <time>2022-10-02T15:15:43Z</time>
      </trkpt>
      <trkpt lat="47.43631" lon="8.50219">
        <ele>444.2</ele>
        <time>2022-10-02T15:15:44Z</time>
      </trkpt>
      <trkpt lat="47.43627" lon="8.50219">
        <ele>444.1</ele>
        <time>2022-10-02T15:15:45Z</time>
      </trkpt>
      <trkpt lat="47.43623" lon="8.50218">
        <ele>444</ele>
        <time>2022-10-02T15:15:46Z</time>
      </trkpt>
      <trkpt lat="47.43619" lon="8.50218">
        <ele>443.9</ele>
        <time>2022-10-02T15:15:47Z</time>
      </trkpt>
      <trkpt lat="47.43615" lon="8.50217">
        <ele>443.8</ele>
        <time>2022-10-02T15:15:48Z</time>
      </trkpt>
      <trkpt lat="47.43611" lon="8.50217">
        <ele>443.8</ele>
        <time>2022-10-02T15:15:49Z</time>
      </trkpt>
      <trkpt lat="47.43606" lon="8.50217">
        <ele>443.7</ele>
        <time>2022-10-02T15:15:50Z</time>
      </trkpt>
      <trkpt lat="47.43602" lon="8.50216">
        <ele>443.6</ele>
        <time>2022-10-02T15:15:51Z</time>
      </trkpt>
      <trkpt lat="47.43597" lon="8.50216">
        <ele>443.5</ele>
        <time>2022-10-02T15:15:52Z</time>
      </trkpt>
      <trkpt lat="47.43593" lon="8.50216">
        <ele>443.4</ele>
        <time>2022-10-02T15:15:53Z</time>
      </trkpt>
      <trkpt lat="47.43588" lon="8.50215">
        <ele>443.3</ele>
        <time>2022-10-02T15:15:54Z</time>
      </trkpt>
      <trkpt lat="47.43583" lon="8.50215">
        <ele>443.3</ele>
        <time>2022-10-02T15:15:55Z</time>
      </trkpt>
      <trkpt lat="47.43578" lon="8.50214">
        <ele>443.2</ele>
        <time>2022-10-02T15:15:56Z</time>
      </trkpt>
      <trkpt lat="47.43573" lon="8.50213">
        <ele>443.1</ele>
        <time>2022-10-02T15:15:57Z</time>
      </trkpt>
      <trkpt lat="47.43569" lon="8.50212">
        <ele>443.1</ele>
        <time>2022-10-02T15:15:58Z</time>
      </trkpt>
      <trkpt lat="47.43564" lon="8.50212">
        <ele>443</ele>
        <time>2022-10-02T15:15:59Z</time>
      </trkpt>
      <trkpt lat="47.43559" lon="8.50212">
        <ele>442.9</ele>
        <time>2022-10-02T15:16:00Z</time>
      </trkpt>
      <trkpt lat="47.43553" lon="8.50212">
        <ele>442.8</ele>
        <time>2022-10-02T15:16:01Z</time>
      </trkpt>
      <trkpt lat="47.43549" lon="8.50211">
        <ele>442.8</ele>
        <time>2022-10-02T15:16:02Z</time>
      </trkpt>
      <trkpt lat="47.43544" lon="8.50211">
        <ele>442.7</ele>
        <time>2022-10-02T15:16:03Z</time>
      </trkpt>
      <trkpt lat="47.43539" lon="8.5021">
        <ele>442.7</ele>
        <time>2022-10-02T15:16:04Z</time>
      </trkpt>
      <trkpt lat="47.43534" lon="8.5021">
        <ele>442.6</ele>
        <time>2022-10-02T15:16:05Z</time>
      </trkpt>
      <trkpt lat="47.43529" lon="8.5021">
        <ele>442.6</ele>
        <time>2022-10-02T15:16:06Z</time>
      </trkpt>
      <trkpt lat="47.43524" lon="8.50209">
        <ele>442.5</ele>
        <time>2022-10-02T15:16:07Z</time>
      </trkpt>
      <trkpt lat="47.43519" lon="8.50209">
        <ele>442.5</ele>
        <time>2022-10-02T15:16:08Z</time>
      </trkpt>
      <trkpt lat="47.43513" lon="8.50209">
        <ele>442.4</ele>
        <time>2022-10-02T15:16:09Z</time>
      </trkpt>
      <trkpt lat="47.43509" lon="8.50208">
        <ele>442.4</ele>
        <time>2022-10-02T15:16:10Z</time>
      </trkpt>
      <trkpt lat="47.43505" lon="8.50208">
        <ele>442.3</ele>
        <time>2022-10-02T15:16:11Z</time>
      </trkpt>
      <trkpt lat="47.435" lon="8.50207">
        <ele>442.3</ele>
        <time>2022-10-02T15:16:12Z</time>
      </trkpt>
      <trkpt lat="47.43495" lon="8.50206">
        <ele>442.2</ele>
        <time>2022-10-02T15:16:13Z</time>
      </trkpt>
      <trkpt lat="47.43489" lon="8.50205">
        <ele>442.2</ele>
        <time>2022-10-02T15:16:14Z</time>
      </trkpt>
      <trkpt lat="47.43485" lon="8.50205">
        <ele>442.2</ele>
        <time>2022-10-02T15:16:15Z</time>
      </trkpt>
      <trkpt lat="47.43479" lon="8.50204">
        <ele>442.2</ele>
        <time>2022-10-02T15:16:16Z</time>
      </trkpt>
      <trkpt lat="47.43476" lon="8.50203">
        <ele>442.2</ele>
        <time>2022-10-02T15:16:17Z</time>
      </trkpt>
      <trkpt lat="47.43473" lon="8.50203">
        <ele>442.2</ele>
        <time>2022-10-02T15:16:18Z</time>
      </trkpt>
      <trkpt lat="47.43468" lon="8.50202">
        <ele>442.3</ele>
        <time>2022-10-02T15:16:19Z</time>
      </trkpt>
      <trkpt lat="47.43466" lon="8.502">
        <ele>442.3</ele>
        <time>2022-10-02T15:16:20Z</time>
      </trkpt>
      <trkpt lat="47.43463" lon="8.50198">
        <ele>442.3</ele>
        <time>2022-10-02T15:16:21Z</time>
      </trkpt>
      <trkpt lat="47.4346" lon="8.50196">
        <ele>442.4</ele>
        <time>2022-10-02T15:16:22Z</time>
      </trkpt>
      <trkpt lat="47.43456" lon="8.50193">
        <ele>442.4</ele>
        <time>2022-10-02T15:16:23Z</time>
      </trkpt>
      <trkpt lat="47.43453" lon="8.50191">
        <ele>442.4</ele>
        <time>2022-10-02T15:16:24Z</time>
      </trkpt>
      <trkpt lat="47.4345" lon="8.5019">
        <ele>442.5</ele>
        <time>2022-10-02T15:16:25Z</time>
      </trkpt>
      <trkpt lat="47.43447" lon="8.50188">
        <ele>442.5</ele>
        <time>2022-10-02T15:16:26Z</time>
      </trkpt>
      <trkpt lat="47.43444" lon="8.50186">
        <ele>442.6</ele>
        <time>2022-10-02T15:16:27Z</time>
      </trkpt>
      <trkpt lat="47.4344" lon="8.50185">
        <ele>442.7</ele>
        <time>2022-10-02T15:16:28Z</time>
      </trkpt>
      <trkpt lat="47.43437" lon="8.50183">
        <ele>442.8</ele>
        <time>2022-10-02T15:16:29Z</time>
      </trkpt>
      <trkpt lat="47.43432" lon="8.5018">
        <ele>442.9</ele>
        <time>2022-10-02T15:16:30Z</time>
      </trkpt>
      <trkpt lat="47.4343" lon="8.50179">
        <ele>443</ele>
        <time>2022-10-02T15:16:31Z</time>
      </trkpt>
      <trkpt lat="47.4343" lon="8.5018">
        <ele>443</ele>
        <time>2022-10-02T15:16:32Z</time>
      </trkpt>
      <trkpt lat="47.43427" lon="8.50178">
        <ele>443.1</ele>
        <time>2022-10-02T15:16:33Z</time>
      </trkpt>
      <trkpt lat="47.43425" lon="8.50175">
        <ele>443.2</ele>
        <time>2022-10-02T15:16:34Z</time>
      </trkpt>
      <trkpt lat="47.43424" lon="8.50175">
        <ele>443.2</ele>
        <time>2022-10-02T15:16:35Z</time>
      </trkpt>
      <trkpt lat="47.43419" lon="8.50174">
        <ele>443.4</ele>
        <time>2022-10-02T15:16:37Z</time>
      </trkpt>
      <trkpt lat="47.43418" lon="8.50174">
        <ele>443.4</ele>
        <time>2022-10-02T15:16:38Z</time>
      </trkpt>
      <trkpt lat="47.43417" lon="8.50174">
        <ele>443.5</ele>
        <time>2022-10-02T15:16:39Z</time>
      </trkpt>
      <trkpt lat="47.43414" lon="8.50173">
        <ele>443.6</ele>
        <time>2022-10-02T15:16:40Z</time>
      </trkpt>
      <trkpt lat="47.43413" lon="8.50173">
        <ele>443.6</ele>
        <time>2022-10-02T15:16:41Z</time>
      </trkpt>
      <trkpt lat="47.4341" lon="8.50173">
        <ele>443.7</ele>
        <time>2022-10-02T15:16:42Z</time>
      </trkpt>
      <trkpt lat="47.43409" lon="8.50172">
        <ele>443.8</ele>
        <time>2022-10-02T15:16:43Z</time>
      </trkpt>
      <trkpt lat="47.43408" lon="8.50172">
        <ele>443.8</ele>
        <time>2022-10-02T15:16:44Z</time>
      </trkpt>
      <trkpt lat="47.43406" lon="8.50172">
        <ele>443.9</ele>
        <time>2022-10-02T15:16:45Z</time>
      </trkpt>
      <trkpt lat="47.43403" lon="8.50173">
        <ele>444.1</ele>
        <time>2022-10-02T15:16:46Z</time>
      </trkpt>
      <trkpt lat="47.43401" lon="8.50173">
        <ele>444.2</ele>
        <time>2022-10-02T15:16:47Z</time>
      </trkpt>
      <trkpt lat="47.434" lon="8.50172">
        <ele>444.2</ele>
        <time>2022-10-02T15:16:48Z</time>
      </trkpt>
      <trkpt lat="47.43398" lon="8.50171">
        <ele>444.3</ele>
        <time>2022-10-02T15:16:49Z</time>
      </trkpt>
      <trkpt lat="47.43396" lon="8.50171">
        <ele>444.4</ele>
        <time>2022-10-02T15:16:51Z</time>
      </trkpt>
      <trkpt lat="47.43392" lon="8.5017">
        <ele>444.6</ele>
        <time>2022-10-02T15:16:52Z</time>
      </trkpt>
      <trkpt lat="47.43388" lon="8.5017">
        <ele>444.7</ele>
        <time>2022-10-02T15:16:53Z</time>
      </trkpt>
      <trkpt lat="47.43387" lon="8.5017">
        <ele>444.8</ele>
        <time>2022-10-02T15:16:54Z</time>
      </trkpt>
      <trkpt lat="47.43383" lon="8.50169">
        <ele>444.9</ele>
        <time>2022-10-02T15:16:55Z</time>
      </trkpt>
      <trkpt lat="47.43382" lon="8.50169">
        <ele>445</ele>
        <time>2022-10-02T15:16:56Z</time>
      </trkpt>
      <trkpt lat="47.4338" lon="8.50166">
        <ele>445.1</ele>
        <time>2022-10-02T15:16:57Z</time>
      </trkpt>
      <trkpt lat="47.43379" lon="8.50167">
        <ele>445.1</ele>
        <time>2022-10-02T15:16:58Z</time>
      </trkpt>
      <trkpt lat="47.43375" lon="8.50166">
        <ele>445.2</ele>
        <time>2022-10-02T15:16:59Z</time>
      </trkpt>
      <trkpt lat="47.43374" lon="8.50166">
        <ele>445.2</ele>
        <time>2022-10-02T15:17:00Z</time>
      </trkpt>
      <trkpt lat="47.43371" lon="8.50165">
        <ele>445.2</ele>
        <time>2022-10-02T15:17:01Z</time>
      </trkpt>
      <trkpt lat="47.43368" lon="8.50165">
        <ele>445.3</ele>
        <time>2022-10-02T15:17:02Z</time>
      </trkpt>
      <trkpt lat="47.43367" lon="8.50166">
        <ele>445.3</ele>
        <time>2022-10-02T15:17:03Z</time>
      </trkpt>
      <trkpt lat="47.43363" lon="8.50166">
        <ele>445.3</ele>
        <time>2022-10-02T15:17:04Z</time>
      </trkpt>
      <trkpt lat="47.43362" lon="8.50166">
        <ele>445.3</ele>
        <time>2022-10-02T15:17:05Z</time>
      </trkpt>
      <trkpt lat="47.43358" lon="8.50166">
        <ele>445.2</ele>
        <time>2022-10-02T15:17:06Z</time>
      </trkpt>
      <trkpt lat="47.43356" lon="8.50166">
        <ele>445.2</ele>
        <time>2022-10-02T15:17:07Z</time>
      </trkpt>
      <trkpt lat="47.43353" lon="8.50166">
        <ele>445.2</ele>
        <time>2022-10-02T15:17:08Z</time>
      </trkpt>
      <trkpt lat="47.4335" lon="8.50165">
        <ele>445.1</ele>
        <time>2022-10-02T15:17:09Z</time>
      </trkpt>
      <trkpt lat="47.43345" lon="8.50165">
        <ele>445.1</ele>
        <time>2022-10-02T15:17:10Z</time>
      </trkpt>
      <trkpt lat="47.43341" lon="8.50164">
        <ele>445</ele>
        <time>2022-10-02T15:17:11Z</time>
      </trkpt>
      <trkpt lat="47.43337" lon="8.50164">
        <ele>444.9</ele>
        <time>2022-10-02T15:17:12Z</time>
      </trkpt>
      <trkpt lat="47.43333" lon="8.50163">
        <ele>444.9</ele>
        <time>2022-10-02T15:17:13Z</time>
      </trkpt>
      <trkpt lat="47.43328" lon="8.50163">
        <ele>444.8</ele>
        <time>2022-10-02T15:17:14Z</time>
      </trkpt>
      <trkpt lat="47.43323" lon="8.50162">
        <ele>444.8</ele>
        <time>2022-10-02T15:17:15Z</time>
      </trkpt>
      <trkpt lat="47.43319" lon="8.50162">
        <ele>444.7</ele>
        <time>2022-10-02T15:17:16Z</time>
      </trkpt>
      <trkpt lat="47.43315" lon="8.50161">
        <ele>444.7</ele>
        <time>2022-10-02T15:17:17Z</time>
      </trkpt>
      <trkpt lat="47.43311" lon="8.50161">
        <ele>444.7</ele>
        <time>2022-10-02T15:17:18Z</time>
      </trkpt>
      <trkpt lat="47.43306" lon="8.5016">
        <ele>444.7</ele>
        <time>2022-10-02T15:17:19Z</time>
      </trkpt>
      <trkpt lat="47.43301" lon="8.5016">
        <ele>444.7</ele>
        <time>2022-10-02T15:17:20Z</time>
      </trkpt>
      <trkpt lat="47.43298" lon="8.50161">
        <ele>444.8</ele>
        <time>2022-10-02T15:17:21Z</time>
      </trkpt>
      <trkpt lat="47.43293" lon="8.50161">
        <ele>444.8</ele>
        <time>2022-10-02T15:17:22Z</time>
      </trkpt>
      <trkpt lat="47.4329" lon="8.50162">
        <ele>444.9</ele>
        <time>2022-10-02T15:17:23Z</time>
      </trkpt>
      <trkpt lat="47.43286" lon="8.50162">
        <ele>444.9</ele>
        <time>2022-10-02T15:17:24Z</time>
      </trkpt>
      <trkpt lat="47.43282" lon="8.50164">
        <ele>445</ele>
        <time>2022-10-02T15:17:25Z</time>
      </trkpt>
      <trkpt lat="47.43278" lon="8.50165">
        <ele>445</ele>
        <time>2022-10-02T15:17:26Z</time>
      </trkpt>
      <trkpt lat="47.43275" lon="8.50166">
        <ele>445.1</ele>
        <time>2022-10-02T15:17:27Z</time>
      </trkpt>
      <trkpt lat="47.43271" lon="8.50169">
        <ele>445.1</ele>
        <time>2022-10-02T15:17:28Z</time>
      </trkpt>
      <trkpt lat="47.43268" lon="8.50171">
        <ele>445.2</ele>
        <time>2022-10-02T15:17:29Z</time>
      </trkpt>
      <trkpt lat="47.43265" lon="8.50173">
        <ele>445.2</ele>
        <time>2022-10-02T15:17:30Z</time>
      </trkpt>
      <trkpt lat="47.43261" lon="8.50176">
        <ele>445.3</ele>
        <time>2022-10-02T15:17:31Z</time>
      </trkpt>
      <trkpt lat="47.43257" lon="8.50179">
        <ele>445.4</ele>
        <time>2022-10-02T15:17:32Z</time>
      </trkpt>
      <trkpt lat="47.43255" lon="8.5018">
        <ele>445.4</ele>
        <time>2022-10-02T15:17:33Z</time>
      </trkpt>
      <trkpt lat="47.43252" lon="8.50182">
        <ele>445.5</ele>
        <time>2022-10-02T15:17:34Z</time>
      </trkpt>
      <trkpt lat="47.43249" lon="8.50185">
        <ele>445.5</ele>
        <time>2022-10-02T15:17:35Z</time>
      </trkpt>
      <trkpt lat="47.43246" lon="8.50188">
        <ele>445.6</ele>
        <time>2022-10-02T15:17:36Z</time>
      </trkpt>
      <trkpt lat="47.43243" lon="8.50191">
        <ele>445.7</ele>
        <time>2022-10-02T15:17:37Z</time>
      </trkpt>
      <trkpt lat="47.4324" lon="8.50191">
        <ele>445.7</ele>
        <time>2022-10-02T15:17:38Z</time>
      </trkpt>
      <trkpt lat="47.43236" lon="8.50194">
        <ele>445.8</ele>
        <time>2022-10-02T15:17:39Z</time>
      </trkpt>
      <trkpt lat="47.43233" lon="8.50196">
        <ele>445.9</ele>
        <time>2022-10-02T15:17:40Z</time>
      </trkpt>
      <trkpt lat="47.43229" lon="8.50199">
        <ele>446</ele>
        <time>2022-10-02T15:17:41Z</time>
      </trkpt>
      <trkpt lat="47.43226" lon="8.502">
        <ele>446.1</ele>
        <time>2022-10-02T15:17:42Z</time>
      </trkpt>
      <trkpt lat="47.43222" lon="8.50202">
        <ele>446.1</ele>
        <time>2022-10-02T15:17:43Z</time>
      </trkpt>
      <trkpt lat="47.43219" lon="8.50205">
        <ele>446.2</ele>
        <time>2022-10-02T15:17:44Z</time>
      </trkpt>
      <trkpt lat="47.43216" lon="8.50206">
        <ele>446.3</ele>
        <time>2022-10-02T15:17:45Z</time>
      </trkpt>
      <trkpt lat="47.43213" lon="8.50209">
        <ele>446.5</ele>
        <time>2022-10-02T15:17:46Z</time>
      </trkpt>
      <trkpt lat="47.4321" lon="8.50211">
        <ele>446.6</ele>
        <time>2022-10-02T15:17:47Z</time>
      </trkpt>
      <trkpt lat="47.43207" lon="8.50213">
        <ele>446.7</ele>
        <time>2022-10-02T15:17:48Z</time>
      </trkpt>
      <trkpt lat="47.43204" lon="8.50215">
        <ele>446.8</ele>
        <time>2022-10-02T15:17:49Z</time>
      </trkpt>
      <trkpt lat="47.43201" lon="8.50217">
        <ele>446.9</ele>
        <time>2022-10-02T15:17:50Z</time>
      </trkpt>
      <trkpt lat="47.43198" lon="8.50219">
        <ele>447</ele>
        <time>2022-10-02T15:17:51Z</time>
      </trkpt>
      <trkpt lat="47.43195" lon="8.50221">
        <ele>447.1</ele>
        <time>2022-10-02T15:17:52Z</time>
      </trkpt>
      <trkpt lat="47.43192" lon="8.50223">
        <ele>447.2</ele>
        <time>2022-10-02T15:17:53Z</time>
      </trkpt>
      <trkpt lat="47.43189" lon="8.50225">
        <ele>447.4</ele>
        <time>2022-10-02T15:17:54Z</time>
      </trkpt>
      <trkpt lat="47.43185" lon="8.50228">
        <ele>447.5</ele>
        <time>2022-10-02T15:17:55Z</time>
      </trkpt>
      <trkpt lat="47.43184" lon="8.50229">
        <ele>447.6</ele>
        <time>2022-10-02T15:17:56Z</time>
      </trkpt>
      <trkpt lat="47.43181" lon="8.50231">
        <ele>447.7</ele>
        <time>2022-10-02T15:17:57Z</time>
      </trkpt>
      <trkpt lat="47.43179" lon="8.50233">
        <ele>447.9</ele>
        <time>2022-10-02T15:17:58Z</time>
      </trkpt>
      <trkpt lat="47.43176" lon="8.50235">
        <ele>448</ele>
        <time>2022-10-02T15:17:59Z</time>
      </trkpt>
      <trkpt lat="47.43173" lon="8.50238">
        <ele>448.2</ele>
        <time>2022-10-02T15:18:00Z</time>
      </trkpt>
      <trkpt lat="47.43172" lon="8.50239">
        <ele>448.3</ele>
        <time>2022-10-02T15:18:01Z</time>
      </trkpt>
      <trkpt lat="47.43169" lon="8.50242">
        <ele>448.5</ele>
        <time>2022-10-02T15:18:02Z</time>
      </trkpt>
      <trkpt lat="47.43167" lon="8.50243">
        <ele>448.6</ele>
        <time>2022-10-02T15:18:03Z</time>
      </trkpt>
      <trkpt lat="47.43165" lon="8.50246">
        <ele>448.7</ele>
        <time>2022-10-02T15:18:04Z</time>
      </trkpt>
      <trkpt lat="47.43164" lon="8.50247">
        <ele>448.8</ele>
        <time>2022-10-02T15:18:05Z</time>
      </trkpt>
      <trkpt lat="47.43161" lon="8.50249">
        <ele>449</ele>
        <time>2022-10-02T15:18:06Z</time>
      </trkpt>
      <trkpt lat="47.4316" lon="8.5025">
        <ele>449</ele>
        <time>2022-10-02T15:18:07Z</time>
      </trkpt>
      <trkpt lat="47.43157" lon="8.50252">
        <ele>449.2</ele>
        <time>2022-10-02T15:18:08Z</time>
      </trkpt>
      <trkpt lat="47.43156" lon="8.50253">
        <ele>449.3</ele>
        <time>2022-10-02T15:18:09Z</time>
      </trkpt>
      <trkpt lat="47.43153" lon="8.50255">
        <ele>449.4</ele>
        <time>2022-10-02T15:18:10Z</time>
      </trkpt>
      <trkpt lat="47.43152" lon="8.50255">
        <ele>449.5</ele>
        <time>2022-10-02T15:18:11Z</time>
      </trkpt>
      <trkpt lat="47.4315" lon="8.50256">
        <ele>449.6</ele>
        <time>2022-10-02T15:18:12Z</time>
      </trkpt>
      <trkpt lat="47.4315" lon="8.50258">
        <ele>449.7</ele>
        <time>2022-10-02T15:18:13Z</time>
      </trkpt>
      <trkpt lat="47.43146" lon="8.50259">
        <ele>449.9</ele>
        <time>2022-10-02T15:18:14Z</time>
      </trkpt>
      <trkpt lat="47.43143" lon="8.50261">
        <ele>450</ele>
        <time>2022-10-02T15:18:15Z</time>
      </trkpt>
      <trkpt lat="47.43142" lon="8.50262">
        <ele>450.1</ele>
        <time>2022-10-02T15:18:16Z</time>
      </trkpt>
      <trkpt lat="47.4314" lon="8.50264">
        <ele>450.2</ele>
        <time>2022-10-02T15:18:17Z</time>
      </trkpt>
      <trkpt lat="47.43139" lon="8.50264">
        <ele>450.3</ele>
        <time>2022-10-02T15:18:18Z</time>
      </trkpt>
      <trkpt lat="47.43135" lon="8.50265">
        <ele>450.4</ele>
        <time>2022-10-02T15:18:19Z</time>
      </trkpt>
      <trkpt lat="47.43135" lon="8.50266">
        <ele>450.5</ele>
        <time>2022-10-02T15:18:20Z</time>
      </trkpt>
      <trkpt lat="47.43132" lon="8.50267">
        <ele>450.6</ele>
        <time>2022-10-02T15:18:21Z</time>
      </trkpt>
      <trkpt lat="47.43129" lon="8.50268">
        <ele>450.7</ele>
        <time>2022-10-02T15:18:22Z</time>
      </trkpt>
      <trkpt lat="47.43128" lon="8.50268">
        <ele>450.8</ele>
        <time>2022-10-02T15:18:23Z</time>
      </trkpt>
      <trkpt lat="47.43124" lon="8.5027">
        <ele>450.9</ele>
        <time>2022-10-02T15:18:24Z</time>
      </trkpt>
      <trkpt lat="47.43123" lon="8.5027">
        <ele>451</ele>
        <time>2022-10-02T15:18:25Z</time>
      </trkpt>
      <trkpt lat="47.43119" lon="8.50272">
        <ele>451.1</ele>
        <time>2022-10-02T15:18:26Z</time>
      </trkpt>
      <trkpt lat="47.43118" lon="8.50273">
        <ele>451.1</ele>
        <time>2022-10-02T15:18:27Z</time>
      </trkpt>
      <trkpt lat="47.43114" lon="8.50275">
        <ele>451.3</ele>
        <time>2022-10-02T15:18:28Z</time>
      </trkpt>
      <trkpt lat="47.43113" lon="8.50276">
        <ele>451.3</ele>
        <time>2022-10-02T15:18:29Z</time>
      </trkpt>
      <trkpt lat="47.4311" lon="8.50278">
        <ele>451.4</ele>
        <time>2022-10-02T15:18:30Z</time>
      </trkpt>
      <trkpt lat="47.43107" lon="8.50279">
        <ele>451.5</ele>
        <time>2022-10-02T15:18:31Z</time>
      </trkpt>
      <trkpt lat="47.43104" lon="8.50281">
        <ele>451.6</ele>
        <time>2022-10-02T15:18:32Z</time>
      </trkpt>
      <trkpt lat="47.43101" lon="8.50281">
        <ele>451.7</ele>
        <time>2022-10-02T15:18:33Z</time>
      </trkpt>
      <trkpt lat="47.43097" lon="8.50283">
        <ele>451.9</ele>
        <time>2022-10-02T15:18:34Z</time>
      </trkpt>
      <trkpt lat="47.43096" lon="8.50284">
        <ele>451.9</ele>
        <time>2022-10-02T15:18:35Z</time>
      </trkpt>
      <trkpt lat="47.43092" lon="8.50285">
        <ele>452</ele>
        <time>2022-10-02T15:18:36Z</time>
      </trkpt>
      <trkpt lat="47.43091" lon="8.50286">
        <ele>452.1</ele>
        <time>2022-10-02T15:18:37Z</time>
      </trkpt>
      <trkpt lat="47.43088" lon="8.50288">
        <ele>452.2</ele>
        <time>2022-10-02T15:18:38Z</time>
      </trkpt>
      <trkpt lat="47.43086" lon="8.50289">
        <ele>452.2</ele>
        <time>2022-10-02T15:18:39Z</time>
      </trkpt>
      <trkpt lat="47.43083" lon="8.50292">
        <ele>452.4</ele>
        <time>2022-10-02T15:18:40Z</time>
      </trkpt>
      <trkpt lat="47.43082" lon="8.50293">
        <ele>452.4</ele>
        <time>2022-10-02T15:18:41Z</time>
      </trkpt>
      <trkpt lat="47.43079" lon="8.50295">
        <ele>452.5</ele>
        <time>2022-10-02T15:18:43Z</time>
      </trkpt>
      <trkpt lat="47.43077" lon="8.50296">
        <ele>452.5</ele>
        <time>2022-10-02T15:18:44Z</time>
      </trkpt>
      <trkpt lat="47.43074" lon="8.50299">
        <ele>452.6</ele>
        <time>2022-10-02T15:18:45Z</time>
      </trkpt>
      <trkpt lat="47.43071" lon="8.50301">
        <ele>452.7</ele>
        <time>2022-10-02T15:18:46Z</time>
      </trkpt>
      <trkpt lat="47.43069" lon="8.50303">
        <ele>452.8</ele>
        <time>2022-10-02T15:18:47Z</time>
      </trkpt>
      <trkpt lat="47.43066" lon="8.50304">
        <ele>452.9</ele>
        <time>2022-10-02T15:18:48Z</time>
      </trkpt>
      <trkpt lat="47.43063" lon="8.50308">
        <ele>453</ele>
        <time>2022-10-02T15:18:49Z</time>
      </trkpt>
      <trkpt lat="47.43062" lon="8.50309">
        <ele>453</ele>
        <time>2022-10-02T15:18:50Z</time>
      </trkpt>
      <trkpt lat="47.43059" lon="8.50311">
        <ele>453.1</ele>
        <time>2022-10-02T15:18:51Z</time>
      </trkpt>
      <trkpt lat="47.43056" lon="8.50314">
        <ele>453.2</ele>
        <time>2022-10-02T15:18:52Z</time>
      </trkpt>
      <trkpt lat="47.43055" lon="8.50315">
        <ele>453.2</ele>
        <time>2022-10-02T15:18:53Z</time>
      </trkpt>
      <trkpt lat="47.43052" lon="8.50318">
        <ele>453.3</ele>
        <time>2022-10-02T15:18:54Z</time>
      </trkpt>
      <trkpt lat="47.43049" lon="8.5032">
        <ele>453.4</ele>
        <time>2022-10-02T15:18:55Z</time>
      </trkpt>
      <trkpt lat="47.43045" lon="8.50325">
        <ele>453.6</ele>
        <time>2022-10-02T15:18:56Z</time>
      </trkpt>
      <trkpt lat="47.43043" lon="8.50328">
        <ele>453.7</ele>
        <time>2022-10-02T15:18:57Z</time>
      </trkpt>
      <trkpt lat="47.43041" lon="8.50332">
        <ele>453.8</ele>
        <time>2022-10-02T15:18:58Z</time>
      </trkpt>
      <trkpt lat="47.43039" lon="8.50334">
        <ele>454</ele>
        <time>2022-10-02T15:18:59Z</time>
      </trkpt>
      <trkpt lat="47.43037" lon="8.50337">
        <ele>454.1</ele>
        <time>2022-10-02T15:19:00Z</time>
      </trkpt>
      <trkpt lat="47.43035" lon="8.5034">
        <ele>454.2</ele>
        <time>2022-10-02T15:19:01Z</time>
      </trkpt>
      <trkpt lat="47.43032" lon="8.50344">
        <ele>454.3</ele>
        <time>2022-10-02T15:19:02Z</time>
      </trkpt>
      <trkpt lat="47.43031" lon="8.50346">
        <ele>454.4</ele>
        <time>2022-10-02T15:19:03Z</time>
      </trkpt>
      <trkpt lat="47.43029" lon="8.50349">
        <ele>454.5</ele>
        <time>2022-10-02T15:19:04Z</time>
      </trkpt>
      <trkpt lat="47.43026" lon="8.50353">
        <ele>454.6</ele>
        <time>2022-10-02T15:19:05Z</time>
      </trkpt>
      <trkpt lat="47.43025" lon="8.50354">
        <ele>454.7</ele>
        <time>2022-10-02T15:19:06Z</time>
      </trkpt>
      <trkpt lat="47.43023" lon="8.50358">
        <ele>454.8</ele>
        <time>2022-10-02T15:19:07Z</time>
      </trkpt>
      <trkpt lat="47.43022" lon="8.5036">
        <ele>454.9</ele>
        <time>2022-10-02T15:19:08Z</time>
      </trkpt>
      <trkpt lat="47.43019" lon="8.50363">
        <ele>455</ele>
        <time>2022-10-02T15:19:09Z</time>
      </trkpt>
      <trkpt lat="47.43018" lon="8.50365">
        <ele>455.1</ele>
        <time>2022-10-02T15:19:10Z</time>
      </trkpt>
      <trkpt lat="47.43016" lon="8.50369">
        <ele>455.2</ele>
        <time>2022-10-02T15:19:11Z</time>
      </trkpt>
      <trkpt lat="47.43015" lon="8.50371">
        <ele>455.2</ele>
        <time>2022-10-02T15:19:12Z</time>
      </trkpt>
      <trkpt lat="47.43012" lon="8.50375">
        <ele>455.3</ele>
        <time>2022-10-02T15:19:13Z</time>
      </trkpt>
      <trkpt lat="47.43012" lon="8.50376">
        <ele>455.4</ele>
        <time>2022-10-02T15:19:14Z</time>
      </trkpt>
      <trkpt lat="47.43009" lon="8.5038">
        <ele>455.4</ele>
        <time>2022-10-02T15:19:15Z</time>
      </trkpt>
      <trkpt lat="47.43008" lon="8.50381">
        <ele>455.5</ele>
        <time>2022-10-02T15:19:16Z</time>
      </trkpt>
      <trkpt lat="47.43006" lon="8.50384">
        <ele>455.6</ele>
        <time>2022-10-02T15:19:17Z</time>
      </trkpt>
      <trkpt lat="47.43004" lon="8.50387">
        <ele>455.6</ele>
        <time>2022-10-02T15:19:18Z</time>
      </trkpt>
      <trkpt lat="47.43003" lon="8.50391">
        <ele>455.6</ele>
        <time>2022-10-02T15:19:19Z</time>
      </trkpt>
      <trkpt lat="47.43" lon="8.50395">
        <ele>455.7</ele>
        <time>2022-10-02T15:19:20Z</time>
      </trkpt>
      <trkpt lat="47.42999" lon="8.50397">
        <ele>455.7</ele>
        <time>2022-10-02T15:19:21Z</time>
      </trkpt>
      <trkpt lat="47.42997" lon="8.504">
        <ele>455.7</ele>
        <time>2022-10-02T15:19:22Z</time>
      </trkpt>
      <trkpt lat="47.42995" lon="8.50403">
        <ele>455.7</ele>
        <time>2022-10-02T15:19:23Z</time>
      </trkpt>
      <trkpt lat="47.42993" lon="8.50406">
        <ele>455.7</ele>
        <time>2022-10-02T15:19:24Z</time>
      </trkpt>
      <trkpt lat="47.42991" lon="8.50409">
        <ele>455.7</ele>
        <time>2022-10-02T15:19:25Z</time>
      </trkpt>
      <trkpt lat="47.42989" lon="8.50412">
        <ele>455.7</ele>
        <time>2022-10-02T15:19:26Z</time>
      </trkpt>
      <trkpt lat="47.42986" lon="8.50416">
        <ele>455.6</ele>
        <time>2022-10-02T15:19:27Z</time>
      </trkpt>
      <trkpt lat="47.42984" lon="8.50419">
        <ele>455.6</ele>
        <time>2022-10-02T15:19:28Z</time>
      </trkpt>
      <trkpt lat="47.42982" lon="8.50423">
        <ele>455.5</ele>
        <time>2022-10-02T15:19:29Z</time>
      </trkpt>
      <trkpt lat="47.42979" lon="8.50426">
        <ele>455.4</ele>
        <time>2022-10-02T15:19:30Z</time>
      </trkpt>
      <trkpt lat="47.42976" lon="8.5043">
        <ele>455.2</ele>
        <time>2022-10-02T15:19:31Z</time>
      </trkpt>
      <trkpt lat="47.42974" lon="8.50435">
        <ele>455</ele>
        <time>2022-10-02T15:19:32Z</time>
      </trkpt>
      <trkpt lat="47.42971" lon="8.5044">
        <ele>454.8</ele>
        <time>2022-10-02T15:19:33Z</time>
      </trkpt>
      <trkpt lat="47.42968" lon="8.50444">
        <ele>454.5</ele>
        <time>2022-10-02T15:19:34Z</time>
      </trkpt>
      <trkpt lat="47.42964" lon="8.50449">
        <ele>454.2</ele>
        <time>2022-10-02T15:19:35Z</time>
      </trkpt>
      <trkpt lat="47.4296" lon="8.50455">
        <ele>453.8</ele>
        <time>2022-10-02T15:19:36Z</time>
      </trkpt>
      <trkpt lat="47.42956" lon="8.50461">
        <ele>453.5</ele>
        <time>2022-10-02T15:19:37Z</time>
      </trkpt>
      <trkpt lat="47.42952" lon="8.50467">
        <ele>453.1</ele>
        <time>2022-10-02T15:19:38Z</time>
      </trkpt>
      <trkpt lat="47.42948" lon="8.50474">
        <ele>452.7</ele>
        <time>2022-10-02T15:19:39Z</time>
      </trkpt>
      <trkpt lat="47.42944" lon="8.50481">
        <ele>452.3</ele>
        <time>2022-10-02T15:19:40Z</time>
      </trkpt>
      <trkpt lat="47.42939" lon="8.50488">
        <ele>451.9</ele>
        <time>2022-10-02T15:19:41Z</time>
      </trkpt>
      <trkpt lat="47.42934" lon="8.50496">
        <ele>451.6</ele>
        <time>2022-10-02T15:19:42Z</time>
      </trkpt>
      <trkpt lat="47.4293" lon="8.50503">
        <ele>451.2</ele>
        <time>2022-10-02T15:19:43Z</time>
      </trkpt>
      <trkpt lat="47.42925" lon="8.50508">
        <ele>451</ele>
        <time>2022-10-02T15:19:44Z</time>
      </trkpt>
      <trkpt lat="47.4292" lon="8.50515">
        <ele>450.7</ele>
        <time>2022-10-02T15:19:45Z</time>
      </trkpt>
      <trkpt lat="47.42916" lon="8.5052">
        <ele>450.5</ele>
        <time>2022-10-02T15:19:46Z</time>
      </trkpt>
      <trkpt lat="47.4291" lon="8.50524">
        <ele>450.3</ele>
        <time>2022-10-02T15:19:47Z</time>
      </trkpt>
      <trkpt lat="47.42905" lon="8.5053">
        <ele>450.1</ele>
        <time>2022-10-02T15:19:48Z</time>
      </trkpt>
      <trkpt lat="47.429" lon="8.50536">
        <ele>450</ele>
        <time>2022-10-02T15:19:49Z</time>
      </trkpt>
      <trkpt lat="47.42895" lon="8.5054">
        <ele>449.8</ele>
        <time>2022-10-02T15:19:50Z</time>
      </trkpt>
      <trkpt lat="47.42889" lon="8.50542">
        <ele>449.7</ele>
        <time>2022-10-02T15:19:51Z</time>
      </trkpt>
      <trkpt lat="47.42883" lon="8.50546">
        <ele>449.5</ele>
        <time>2022-10-02T15:19:52Z</time>
      </trkpt>
      <trkpt lat="47.42877" lon="8.50549">
        <ele>449.3</ele>
        <time>2022-10-02T15:19:53Z</time>
      </trkpt>
      <trkpt lat="47.42872" lon="8.50552">
        <ele>449.2</ele>
        <time>2022-10-02T15:19:54Z</time>
      </trkpt>
      <trkpt lat="47.42866" lon="8.50555">
        <ele>449.1</ele>
        <time>2022-10-02T15:19:55Z</time>
      </trkpt>
      <trkpt lat="47.4286" lon="8.50559">
        <ele>448.9</ele>
        <time>2022-10-02T15:19:56Z</time>
      </trkpt>
      <trkpt lat="47.42854" lon="8.50563">
        <ele>448.8</ele>
        <time>2022-10-02T15:19:57Z</time>
      </trkpt>
      <trkpt lat="47.42848" lon="8.50566">
        <ele>448.8</ele>
        <time>2022-10-02T15:19:58Z</time>
      </trkpt>
      <trkpt lat="47.42842" lon="8.5057">
        <ele>448.8</ele>
        <time>2022-10-02T15:19:59Z</time>
      </trkpt>
      <trkpt lat="47.42837" lon="8.50573">
        <ele>448.9</ele>
        <time>2022-10-02T15:20:00Z</time>
      </trkpt>
      <trkpt lat="47.42831" lon="8.50575">
        <ele>448.9</ele>
        <time>2022-10-02T15:20:01Z</time>
      </trkpt>
      <trkpt lat="47.42826" lon="8.50577">
        <ele>449</ele>
        <time>2022-10-02T15:20:02Z</time>
      </trkpt>
      <trkpt lat="47.42822" lon="8.50581">
        <ele>449</ele>
        <time>2022-10-02T15:20:03Z</time>
      </trkpt>
      <trkpt lat="47.42818" lon="8.50584">
        <ele>449</ele>
        <time>2022-10-02T15:20:04Z</time>
      </trkpt>
      <trkpt lat="47.42815" lon="8.50585">
        <ele>449</ele>
        <time>2022-10-02T15:20:05Z</time>
      </trkpt>
      <trkpt lat="47.42811" lon="8.50587">
        <ele>449</ele>
        <time>2022-10-02T15:20:06Z</time>
      </trkpt>
      <trkpt lat="47.42808" lon="8.50589">
        <ele>448.9</ele>
        <time>2022-10-02T15:20:07Z</time>
      </trkpt>
      <trkpt lat="47.42805" lon="8.5059">
        <ele>448.8</ele>
        <time>2022-10-02T15:20:08Z</time>
      </trkpt>
      <trkpt lat="47.42802" lon="8.50592">
        <ele>448.6</ele>
        <time>2022-10-02T15:20:09Z</time>
      </trkpt>
      <trkpt lat="47.42799" lon="8.50594">
        <ele>448.4</ele>
        <time>2022-10-02T15:20:10Z</time>
      </trkpt>
      <trkpt lat="47.42796" lon="8.50596">
        <ele>448.2</ele>
        <time>2022-10-02T15:20:11Z</time>
      </trkpt>
      <trkpt lat="47.42792" lon="8.50598">
        <ele>447.9</ele>
        <time>2022-10-02T15:20:12Z</time>
      </trkpt>
      <trkpt lat="47.42788" lon="8.50601">
        <ele>447.5</ele>
        <time>2022-10-02T15:20:13Z</time>
      </trkpt>
      <trkpt lat="47.42783" lon="8.50604">
        <ele>446.9</ele>
        <time>2022-10-02T15:20:14Z</time>
      </trkpt>
      <trkpt lat="47.42778" lon="8.50607">
        <ele>446.4</ele>
        <time>2022-10-02T15:20:15Z</time>
      </trkpt>
      <trkpt lat="47.42772" lon="8.50611">
        <ele>445.8</ele>
        <time>2022-10-02T15:20:16Z</time>
      </trkpt>
      <trkpt lat="47.42765" lon="8.50616">
        <ele>445.1</ele>
        <time>2022-10-02T15:20:17Z</time>
      </trkpt>
      <trkpt lat="47.42759" lon="8.5062">
        <ele>444.6</ele>
        <time>2022-10-02T15:20:18Z</time>
      </trkpt>
      <trkpt lat="47.4275" lon="8.50625">
        <ele>444.1</ele>
        <time>2022-10-02T15:20:19Z</time>
      </trkpt>
      <trkpt lat="47.42743" lon="8.5063">
        <ele>443.9</ele>
        <time>2022-10-02T15:20:20Z</time>
      </trkpt>
      <trkpt lat="47.42737" lon="8.50635">
        <ele>443.9</ele>
        <time>2022-10-02T15:20:21Z</time>
      </trkpt>
      <trkpt lat="47.42731" lon="8.5064">
        <ele>443.8</ele>
        <time>2022-10-02T15:20:22Z</time>
      </trkpt>
      <trkpt lat="47.42725" lon="8.50645">
        <ele>443.8</ele>
        <time>2022-10-02T15:20:23Z</time>
      </trkpt>
      <trkpt lat="47.4272" lon="8.5065">
        <ele>443.8</ele>
        <time>2022-10-02T15:20:24Z</time>
      </trkpt>
      <trkpt lat="47.42714" lon="8.50655">
        <ele>443.9</ele>
        <time>2022-10-02T15:20:25Z</time>
      </trkpt>
      <trkpt lat="47.42709" lon="8.50659">
        <ele>443.9</ele>
        <time>2022-10-02T15:20:26Z</time>
      </trkpt>
      <trkpt lat="47.42705" lon="8.50662">
        <ele>444</ele>
        <time>2022-10-02T15:20:27Z</time>
      </trkpt>
      <trkpt lat="47.42699" lon="8.50667">
        <ele>444.1</ele>
        <time>2022-10-02T15:20:28Z</time>
      </trkpt>
      <trkpt lat="47.42696" lon="8.50669">
        <ele>444.1</ele>
        <time>2022-10-02T15:20:29Z</time>
      </trkpt>
      <trkpt lat="47.42693" lon="8.50671">
        <ele>444.2</ele>
        <time>2022-10-02T15:20:30Z</time>
      </trkpt>
      <trkpt lat="47.42688" lon="8.50674">
        <ele>444.3</ele>
        <time>2022-10-02T15:20:31Z</time>
      </trkpt>
      <trkpt lat="47.42683" lon="8.50676">
        <ele>444.4</ele>
        <time>2022-10-02T15:20:32Z</time>
      </trkpt>
      <trkpt lat="47.42681" lon="8.50676">
        <ele>444.4</ele>
        <time>2022-10-02T15:20:33Z</time>
      </trkpt>
      <trkpt lat="47.42677" lon="8.50677">
        <ele>444.5</ele>
        <time>2022-10-02T15:20:34Z</time>
      </trkpt>
      <trkpt lat="47.42673" lon="8.50681">
        <ele>444.6</ele>
        <time>2022-10-02T15:20:35Z</time>
      </trkpt>
      <trkpt lat="47.42669" lon="8.50684">
        <ele>444.7</ele>
        <time>2022-10-02T15:20:36Z</time>
      </trkpt>
      <trkpt lat="47.42666" lon="8.50686">
        <ele>444.8</ele>
        <time>2022-10-02T15:20:37Z</time>
      </trkpt>
      <trkpt lat="47.42663" lon="8.50688">
        <ele>444.9</ele>
        <time>2022-10-02T15:20:38Z</time>
      </trkpt>
      <trkpt lat="47.42659" lon="8.50691">
        <ele>445</ele>
        <time>2022-10-02T15:20:39Z</time>
      </trkpt>
      <trkpt lat="47.42655" lon="8.50694">
        <ele>445.1</ele>
        <time>2022-10-02T15:20:40Z</time>
      </trkpt>
      <trkpt lat="47.42653" lon="8.50698">
        <ele>445.2</ele>
        <time>2022-10-02T15:20:41Z</time>
      </trkpt>
      <trkpt lat="47.42649" lon="8.50699">
        <ele>445.3</ele>
        <time>2022-10-02T15:20:42Z</time>
      </trkpt>
      <trkpt lat="47.42646" lon="8.50702">
        <ele>445.4</ele>
        <time>2022-10-02T15:20:43Z</time>
      </trkpt>
      <trkpt lat="47.42644" lon="8.50704">
        <ele>445.4</ele>
        <time>2022-10-02T15:20:44Z</time>
      </trkpt>
      <trkpt lat="47.42641" lon="8.50707">
        <ele>445.5</ele>
        <time>2022-10-02T15:20:45Z</time>
      </trkpt>
      <trkpt lat="47.42638" lon="8.5071">
        <ele>445.6</ele>
        <time>2022-10-02T15:20:46Z</time>
      </trkpt>
      <trkpt lat="47.42634" lon="8.50712">
        <ele>445.7</ele>
        <time>2022-10-02T15:20:47Z</time>
      </trkpt>
      <trkpt lat="47.42632" lon="8.50716">
        <ele>445.8</ele>
        <time>2022-10-02T15:20:49Z</time>
      </trkpt>
      <trkpt lat="47.42628" lon="8.50718">
        <ele>445.8</ele>
        <time>2022-10-02T15:20:50Z</time>
      </trkpt>
      <trkpt lat="47.42625" lon="8.50719">
        <ele>445.9</ele>
        <time>2022-10-02T15:20:51Z</time>
      </trkpt>
      <trkpt lat="47.42621" lon="8.50721">
        <ele>446</ele>
        <time>2022-10-02T15:20:52Z</time>
      </trkpt>
      <trkpt lat="47.42618" lon="8.50723">
        <ele>446</ele>
        <time>2022-10-02T15:20:53Z</time>
      </trkpt>
      <trkpt lat="47.42614" lon="8.5073">
        <ele>446.1</ele>
        <time>2022-10-02T15:20:54Z</time>
      </trkpt>
      <trkpt lat="47.42612" lon="8.50735">
        <ele>446.1</ele>
        <time>2022-10-02T15:20:55Z</time>
      </trkpt>
      <trkpt lat="47.42611" lon="8.5074">
        <ele>446.2</ele>
        <time>2022-10-02T15:20:56Z</time>
      </trkpt>
      <trkpt lat="47.42609" lon="8.50746">
        <ele>446.2</ele>
        <time>2022-10-02T15:20:57Z</time>
      </trkpt>
      <trkpt lat="47.42609" lon="8.50752">
        <ele>446.2</ele>
        <time>2022-10-02T15:20:59Z</time>
      </trkpt>
      <trkpt lat="47.42607" lon="8.50764">
        <ele>446.3</ele>
        <time>2022-10-02T15:21:00Z</time>
      </trkpt>
      <trkpt lat="47.42606" lon="8.5077">
        <ele>446.3</ele>
        <time>2022-10-02T15:21:01Z</time>
      </trkpt>
      <trkpt lat="47.42605" lon="8.50776">
        <ele>446.3</ele>
        <time>2022-10-02T15:21:03Z</time>
      </trkpt>
      <trkpt lat="47.42604" lon="8.50784">
        <ele>446.4</ele>
        <time>2022-10-02T15:21:04Z</time>
      </trkpt>
      <trkpt lat="47.42604" lon="8.5079">
        <ele>446.5</ele>
        <time>2022-10-02T15:21:05Z</time>
      </trkpt>
      <trkpt lat="47.42602" lon="8.50805">
        <ele>446.6</ele>
        <time>2022-10-02T15:21:06Z</time>
      </trkpt>
      <trkpt lat="47.42601" lon="8.50811">
        <ele>446.7</ele>
        <time>2022-10-02T15:21:07Z</time>
      </trkpt>
      <trkpt lat="47.426" lon="8.50817">
        <ele>446.8</ele>
        <time>2022-10-02T15:21:08Z</time>
      </trkpt>
      <trkpt lat="47.42598" lon="8.50824">
        <ele>446.9</ele>
        <time>2022-10-02T15:21:09Z</time>
      </trkpt>
      <trkpt lat="47.42598" lon="8.50829">
        <ele>447</ele>
        <time>2022-10-02T15:21:10Z</time>
      </trkpt>
      <trkpt lat="47.42596" lon="8.50835">
        <ele>447.1</ele>
        <time>2022-10-02T15:21:11Z</time>
      </trkpt>
      <trkpt lat="47.42594" lon="8.50838">
        <ele>447.1</ele>
        <time>2022-10-02T15:21:12Z</time>
      </trkpt>
      <trkpt lat="47.42591" lon="8.50839">
        <ele>447.1</ele>
        <time>2022-10-02T15:21:13Z</time>
      </trkpt>
      <trkpt lat="47.42591" lon="8.50839">
        <ele>447.1</ele>
        <time>2022-10-02T15:21:14Z</time>
      </trkpt>
      <trkpt lat="47.42587" lon="8.50841">
        <ele>447.1</ele>
        <time>2022-10-02T15:21:15Z</time>
      </trkpt>
      <trkpt lat="47.42586" lon="8.50842">
        <ele>447.2</ele>
        <time>2022-10-02T15:21:16Z</time>
      </trkpt>
      <trkpt lat="47.42582" lon="8.50843">
        <ele>447.2</ele>
        <time>2022-10-02T15:21:17Z</time>
      </trkpt>
      <trkpt lat="47.4258" lon="8.50847">
        <ele>447.2</ele>
        <time>2022-10-02T15:21:18Z</time>
      </trkpt>
      <trkpt lat="47.42578" lon="8.50849">
        <ele>447.2</ele>
        <time>2022-10-02T15:21:19Z</time>
      </trkpt>
      <trkpt lat="47.42576" lon="8.50852">
        <ele>447.2</ele>
        <time>2022-10-02T15:21:20Z</time>
      </trkpt>
      <trkpt lat="47.42573" lon="8.50854">
        <ele>447.2</ele>
        <time>2022-10-02T15:21:21Z</time>
      </trkpt>
      <trkpt lat="47.4257" lon="8.50857">
        <ele>447.2</ele>
        <time>2022-10-02T15:21:22Z</time>
      </trkpt>
      <trkpt lat="47.42569" lon="8.50858">
        <ele>447.2</ele>
        <time>2022-10-02T15:21:23Z</time>
      </trkpt>
      <trkpt lat="47.42566" lon="8.5086">
        <ele>447.2</ele>
        <time>2022-10-02T15:21:24Z</time>
      </trkpt>
      <trkpt lat="47.42563" lon="8.50861">
        <ele>447.3</ele>
        <time>2022-10-02T15:21:25Z</time>
      </trkpt>
      <trkpt lat="47.42559" lon="8.50862">
        <ele>447.3</ele>
        <time>2022-10-02T15:21:26Z</time>
      </trkpt>
      <trkpt lat="47.42556" lon="8.50864">
        <ele>447.4</ele>
        <time>2022-10-02T15:21:27Z</time>
      </trkpt>
      <trkpt lat="47.42553" lon="8.50866">
        <ele>447.5</ele>
        <time>2022-10-02T15:21:28Z</time>
      </trkpt>
      <trkpt lat="47.4255" lon="8.50867">
        <ele>447.5</ele>
        <time>2022-10-02T15:21:29Z</time>
      </trkpt>
      <trkpt lat="47.42546" lon="8.50867">
        <ele>447.6</ele>
        <time>2022-10-02T15:21:30Z</time>
      </trkpt>
      <trkpt lat="47.42543" lon="8.50866">
        <ele>447.7</ele>
        <time>2022-10-02T15:21:31Z</time>
      </trkpt>
      <trkpt lat="47.42539" lon="8.50866">
        <ele>447.8</ele>
        <time>2022-10-02T15:21:32Z</time>
      </trkpt>
      <trkpt lat="47.42535" lon="8.50867">
        <ele>447.9</ele>
        <time>2022-10-02T15:21:33Z</time>
      </trkpt>
      <trkpt lat="47.42531" lon="8.50867">
        <ele>448.1</ele>
        <time>2022-10-02T15:21:34Z</time>
      </trkpt>
      <trkpt lat="47.42527" lon="8.50867">
        <ele>448.3</ele>
        <time>2022-10-02T15:21:35Z</time>
      </trkpt>
      <trkpt lat="47.42524" lon="8.50868">
        <ele>448.4</ele>
        <time>2022-10-02T15:21:36Z</time>
      </trkpt>
      <trkpt lat="47.4252" lon="8.50869">
        <ele>448.6</ele>
        <time>2022-10-02T15:21:37Z</time>
      </trkpt>
      <trkpt lat="47.42516" lon="8.50869">
        <ele>448.7</ele>
        <time>2022-10-02T15:21:38Z</time>
      </trkpt>
      <trkpt lat="47.42513" lon="8.50869">
        <ele>448.9</ele>
        <time>2022-10-02T15:21:39Z</time>
      </trkpt>
      <trkpt lat="47.4251" lon="8.50871">
        <ele>449.1</ele>
        <time>2022-10-02T15:21:40Z</time>
      </trkpt>
      <trkpt lat="47.42508" lon="8.5087">
        <ele>449.2</ele>
        <time>2022-10-02T15:21:41Z</time>
      </trkpt>
      <trkpt lat="47.42505" lon="8.50871">
        <ele>449.4</ele>
        <time>2022-10-02T15:21:42Z</time>
      </trkpt>
      <trkpt lat="47.42504" lon="8.50871">
        <ele>449.4</ele>
        <time>2022-10-02T15:21:43Z</time>
      </trkpt>
      <trkpt lat="47.42501" lon="8.50871">
        <ele>449.6</ele>
        <time>2022-10-02T15:21:44Z</time>
      </trkpt>
      <trkpt lat="47.425" lon="8.50871">
        <ele>449.7</ele>
        <time>2022-10-02T15:21:45Z</time>
      </trkpt>
      <trkpt lat="47.42497" lon="8.50869">
        <ele>449.9</ele>
        <time>2022-10-02T15:21:46Z</time>
      </trkpt>
      <trkpt lat="47.42495" lon="8.50869">
        <ele>449.9</ele>
        <time>2022-10-02T15:21:47Z</time>
      </trkpt>
      <trkpt lat="47.42493" lon="8.50869">
        <ele>449.9</ele>
        <time>2022-10-02T15:21:48Z</time>
      </trkpt>
      <trkpt lat="47.42492" lon="8.50868">
        <ele>450</ele>
        <time>2022-10-02T15:21:49Z</time>
      </trkpt>
      <trkpt lat="47.42488" lon="8.50872">
        <ele>450</ele>
        <time>2022-10-02T15:21:50Z</time>
      </trkpt>
      <trkpt lat="47.42488" lon="8.50873">
        <ele>450</ele>
        <time>2022-10-02T15:21:51Z</time>
      </trkpt>
      <trkpt lat="47.42485" lon="8.50875">
        <ele>450</ele>
        <time>2022-10-02T15:21:52Z</time>
      </trkpt>
      <trkpt lat="47.42482" lon="8.50877">
        <ele>450.1</ele>
        <time>2022-10-02T15:21:53Z</time>
      </trkpt>
      <trkpt lat="47.4248" lon="8.50882">
        <ele>450.3</ele>
        <time>2022-10-02T15:21:54Z</time>
      </trkpt>
      <trkpt lat="47.42478" lon="8.50884">
        <ele>450.3</ele>
        <time>2022-10-02T15:21:55Z</time>
      </trkpt>
      <trkpt lat="47.42476" lon="8.50889">
        <ele>450.4</ele>
        <time>2022-10-02T15:21:56Z</time>
      </trkpt>
      <trkpt lat="47.42474" lon="8.50893">
        <ele>450.5</ele>
        <time>2022-10-02T15:21:57Z</time>
      </trkpt>
      <trkpt lat="47.42472" lon="8.50898">
        <ele>450.6</ele>
        <time>2022-10-02T15:21:58Z</time>
      </trkpt>
      <trkpt lat="47.42471" lon="8.509">
        <ele>450.7</ele>
        <time>2022-10-02T15:21:59Z</time>
      </trkpt>
      <trkpt lat="47.42468" lon="8.50904">
        <ele>450.8</ele>
        <time>2022-10-02T15:22:00Z</time>
      </trkpt>
      <trkpt lat="47.42467" lon="8.50906">
        <ele>450.9</ele>
        <time>2022-10-02T15:22:01Z</time>
      </trkpt>
      <trkpt lat="47.42465" lon="8.5091">
        <ele>451</ele>
        <time>2022-10-02T15:22:02Z</time>
      </trkpt>
      <trkpt lat="47.42463" lon="8.5091">
        <ele>451</ele>
        <time>2022-10-02T15:22:03Z</time>
      </trkpt>
      <trkpt lat="47.42461" lon="8.50914">
        <ele>451.1</ele>
        <time>2022-10-02T15:22:04Z</time>
      </trkpt>
      <trkpt lat="47.4246" lon="8.50916">
        <ele>451.1</ele>
        <time>2022-10-02T15:22:05Z</time>
      </trkpt>
      <trkpt lat="47.42457" lon="8.50919">
        <ele>451.2</ele>
        <time>2022-10-02T15:22:06Z</time>
      </trkpt>
      <trkpt lat="47.42454" lon="8.50921">
        <ele>451.3</ele>
        <time>2022-10-02T15:22:07Z</time>
      </trkpt>
      <trkpt lat="47.42452" lon="8.50922">
        <ele>451.4</ele>
        <time>2022-10-02T15:22:08Z</time>
      </trkpt>
      <trkpt lat="47.42449" lon="8.50922">
        <ele>451.4</ele>
        <time>2022-10-02T15:22:09Z</time>
      </trkpt>
      <trkpt lat="47.42447" lon="8.50925">
        <ele>451.5</ele>
        <time>2022-10-02T15:22:10Z</time>
      </trkpt>
      <trkpt lat="47.42445" lon="8.50928">
        <ele>451.5</ele>
        <time>2022-10-02T15:22:11Z</time>
      </trkpt>
      <trkpt lat="47.4244" lon="8.50932">
        <ele>451.6</ele>
        <time>2022-10-02T15:22:12Z</time>
      </trkpt>
      <trkpt lat="47.42437" lon="8.50935">
        <ele>451.7</ele>
        <time>2022-10-02T15:22:13Z</time>
      </trkpt>
      <trkpt lat="47.42434" lon="8.50938">
        <ele>451.8</ele>
        <time>2022-10-02T15:22:14Z</time>
      </trkpt>
      <trkpt lat="47.42431" lon="8.5094">
        <ele>451.9</ele>
        <time>2022-10-02T15:22:15Z</time>
      </trkpt>
      <trkpt lat="47.42428" lon="8.50942">
        <ele>451.9</ele>
        <time>2022-10-02T15:22:16Z</time>
      </trkpt>
      <trkpt lat="47.42425" lon="8.50944">
        <ele>452</ele>
        <time>2022-10-02T15:22:17Z</time>
      </trkpt>
      <trkpt lat="47.42422" lon="8.50947">
        <ele>452.1</ele>
        <time>2022-10-02T15:22:18Z</time>
      </trkpt>
      <trkpt lat="47.42419" lon="8.50949">
        <ele>452.1</ele>
        <time>2022-10-02T15:22:19Z</time>
      </trkpt>
      <trkpt lat="47.42416" lon="8.50953">
        <ele>452.2</ele>
        <time>2022-10-02T15:22:20Z</time>
      </trkpt>
      <trkpt lat="47.42414" lon="8.50954">
        <ele>452.3</ele>
        <time>2022-10-02T15:22:21Z</time>
      </trkpt>
      <trkpt lat="47.42411" lon="8.50956">
        <ele>452.3</ele>
        <time>2022-10-02T15:22:22Z</time>
      </trkpt>
      <trkpt lat="47.42409" lon="8.50957">
        <ele>452.3</ele>
        <time>2022-10-02T15:22:23Z</time>
      </trkpt>
      <trkpt lat="47.42406" lon="8.50961">
        <ele>452.4</ele>
        <time>2022-10-02T15:22:24Z</time>
      </trkpt>
      <trkpt lat="47.42406" lon="8.50964">
        <ele>452.5</ele>
        <time>2022-10-02T15:22:25Z</time>
      </trkpt>
      <trkpt lat="47.42403" lon="8.50967">
        <ele>452.5</ele>
        <time>2022-10-02T15:22:26Z</time>
      </trkpt>
      <trkpt lat="47.42401" lon="8.5097">
        <ele>452.6</ele>
        <time>2022-10-02T15:22:27Z</time>
      </trkpt>
      <trkpt lat="47.42399" lon="8.50971">
        <ele>452.6</ele>
        <time>2022-10-02T15:22:28Z</time>
      </trkpt>
      <trkpt lat="47.42397" lon="8.50975">
        <ele>452.7</ele>
        <time>2022-10-02T15:22:29Z</time>
      </trkpt>
      <trkpt lat="47.42398" lon="8.50976">
        <ele>452.7</ele>
        <time>2022-10-02T15:22:30Z</time>
      </trkpt>
      <trkpt lat="47.42395" lon="8.5098">
        <ele>452.7</ele>
        <time>2022-10-02T15:22:31Z</time>
      </trkpt>
      <trkpt lat="47.42392" lon="8.50983">
        <ele>452.8</ele>
        <time>2022-10-02T15:22:32Z</time>
      </trkpt>
      <trkpt lat="47.4239" lon="8.50987">
        <ele>452.8</ele>
        <time>2022-10-02T15:22:33Z</time>
      </trkpt>
      <trkpt lat="47.4239" lon="8.50988">
        <ele>452.8</ele>
        <time>2022-10-02T15:22:34Z</time>
      </trkpt>
      <trkpt lat="47.42388" lon="8.50993">
        <ele>452.9</ele>
        <time>2022-10-02T15:22:35Z</time>
      </trkpt>
      <trkpt lat="47.42385" lon="8.50996">
        <ele>452.9</ele>
        <time>2022-10-02T15:22:36Z</time>
      </trkpt>
      <trkpt lat="47.42383" lon="8.50996">
        <ele>453</ele>
        <time>2022-10-02T15:22:37Z</time>
      </trkpt>
      <trkpt lat="47.42382" lon="8.51002">
        <ele>453</ele>
        <time>2022-10-02T15:22:38Z</time>
      </trkpt>
      <trkpt lat="47.4238" lon="8.51004">
        <ele>453</ele>
        <time>2022-10-02T15:22:39Z</time>
      </trkpt>
      <trkpt lat="47.42378" lon="8.51007">
        <ele>453.1</ele>
        <time>2022-10-02T15:22:40Z</time>
      </trkpt>
      <trkpt lat="47.42376" lon="8.5101">
        <ele>453.1</ele>
        <time>2022-10-02T15:22:41Z</time>
      </trkpt>
      <trkpt lat="47.42374" lon="8.51015">
        <ele>453.1</ele>
        <time>2022-10-02T15:22:42Z</time>
      </trkpt>
      <trkpt lat="47.42373" lon="8.51018">
        <ele>453.2</ele>
        <time>2022-10-02T15:22:43Z</time>
      </trkpt>
      <trkpt lat="47.4237" lon="8.51023">
        <ele>453.2</ele>
        <time>2022-10-02T15:22:44Z</time>
      </trkpt>
      <trkpt lat="47.42368" lon="8.51025">
        <ele>453.3</ele>
        <time>2022-10-02T15:22:45Z</time>
      </trkpt>
      <trkpt lat="47.42365" lon="8.51028">
        <ele>453.3</ele>
        <time>2022-10-02T15:22:46Z</time>
      </trkpt>
      <trkpt lat="47.42363" lon="8.51034">
        <ele>453.3</ele>
        <time>2022-10-02T15:22:47Z</time>
      </trkpt>
      <trkpt lat="47.4236" lon="8.51039">
        <ele>453.4</ele>
        <time>2022-10-02T15:22:48Z</time>
      </trkpt>
      <trkpt lat="47.42359" lon="8.51044">
        <ele>453.4</ele>
        <time>2022-10-02T15:22:49Z</time>
      </trkpt>
      <trkpt lat="47.42358" lon="8.5105">
        <ele>453.4</ele>
        <time>2022-10-02T15:22:50Z</time>
      </trkpt>
      <trkpt lat="47.42355" lon="8.51055">
        <ele>453.4</ele>
        <time>2022-10-02T15:22:51Z</time>
      </trkpt>
      <trkpt lat="47.42352" lon="8.51058">
        <ele>453.4</ele>
        <time>2022-10-02T15:22:52Z</time>
      </trkpt>
      <trkpt lat="47.42351" lon="8.5106">
        <ele>453.4</ele>
        <time>2022-10-02T15:22:53Z</time>
      </trkpt>
      <trkpt lat="47.42348" lon="8.51065">
        <ele>453.4</ele>
        <time>2022-10-02T15:22:55Z</time>
      </trkpt>
      <trkpt lat="47.42346" lon="8.51067">
        <ele>453.4</ele>
        <time>2022-10-02T15:22:56Z</time>
      </trkpt>
      <trkpt lat="47.42344" lon="8.51069">
        <ele>453.4</ele>
        <time>2022-10-02T15:22:57Z</time>
      </trkpt>
      <trkpt lat="47.42343" lon="8.51071">
        <ele>453.4</ele>
        <time>2022-10-02T15:22:59Z</time>
      </trkpt>
      <trkpt lat="47.42337" lon="8.51076">
        <ele>453.5</ele>
        <time>2022-10-02T15:23:00Z</time>
      </trkpt>
      <trkpt lat="47.42334" lon="8.51079">
        <ele>453.5</ele>
        <time>2022-10-02T15:23:01Z</time>
      </trkpt>
      <trkpt lat="47.4233" lon="8.51079">
        <ele>453.5</ele>
        <time>2022-10-02T15:23:02Z</time>
      </trkpt>
      <trkpt lat="47.42329" lon="8.51079">
        <ele>453.5</ele>
        <time>2022-10-02T15:23:03Z</time>
      </trkpt>
      <trkpt lat="47.42326" lon="8.51078">
        <ele>453.5</ele>
        <time>2022-10-02T15:23:05Z</time>
      </trkpt>
      <trkpt lat="47.4232" lon="8.51076">
        <ele>453.6</ele>
        <time>2022-10-02T15:23:06Z</time>
      </trkpt>
      <trkpt lat="47.42317" lon="8.51075">
        <ele>453.7</ele>
        <time>2022-10-02T15:23:07Z</time>
      </trkpt>
      <trkpt lat="47.42314" lon="8.51074">
        <ele>453.7</ele>
        <time>2022-10-02T15:23:09Z</time>
      </trkpt>
      <trkpt lat="47.42309" lon="8.51072">
        <ele>453.8</ele>
        <time>2022-10-02T15:23:10Z</time>
      </trkpt>
      <trkpt lat="47.42307" lon="8.5107">
        <ele>453.8</ele>
        <time>2022-10-02T15:23:11Z</time>
      </trkpt>
      <trkpt lat="47.42304" lon="8.51069">
        <ele>453.9</ele>
        <time>2022-10-02T15:23:12Z</time>
      </trkpt>
      <trkpt lat="47.42301" lon="8.51067">
        <ele>453.9</ele>
        <time>2022-10-02T15:23:13Z</time>
      </trkpt>
      <trkpt lat="47.42298" lon="8.51065">
        <ele>453.9</ele>
        <time>2022-10-02T15:23:14Z</time>
      </trkpt>
      <trkpt lat="47.42295" lon="8.51064">
        <ele>454</ele>
        <time>2022-10-02T15:23:15Z</time>
      </trkpt>
      <trkpt lat="47.42291" lon="8.51062">
        <ele>454.1</ele>
        <time>2022-10-02T15:23:16Z</time>
      </trkpt>
      <trkpt lat="47.4229" lon="8.51061">
        <ele>454.1</ele>
        <time>2022-10-02T15:23:17Z</time>
      </trkpt>
      <trkpt lat="47.42287" lon="8.5106">
        <ele>454.1</ele>
        <time>2022-10-02T15:23:18Z</time>
      </trkpt>
      <trkpt lat="47.42285" lon="8.51058">
        <ele>454.2</ele>
        <time>2022-10-02T15:23:19Z</time>
      </trkpt>
      <trkpt lat="47.42281" lon="8.51057">
        <ele>454.2</ele>
        <time>2022-10-02T15:23:20Z</time>
      </trkpt>
      <trkpt lat="47.42279" lon="8.51056">
        <ele>454.2</ele>
        <time>2022-10-02T15:23:21Z</time>
      </trkpt>
      <trkpt lat="47.42276" lon="8.51054">
        <ele>454.3</ele>
        <time>2022-10-02T15:23:22Z</time>
      </trkpt>
      <trkpt lat="47.42273" lon="8.51053">
        <ele>454.4</ele>
        <time>2022-10-02T15:23:23Z</time>
      </trkpt>
      <trkpt lat="47.4227" lon="8.51051">
        <ele>454.4</ele>
        <time>2022-10-02T15:23:24Z</time>
      </trkpt>
      <trkpt lat="47.42268" lon="8.51049">
        <ele>454.5</ele>
        <time>2022-10-02T15:23:25Z</time>
      </trkpt>
      <trkpt lat="47.42266" lon="8.51047">
        <ele>454.5</ele>
        <time>2022-10-02T15:23:26Z</time>
      </trkpt>
      <trkpt lat="47.42262" lon="8.51046">
        <ele>454.6</ele>
        <time>2022-10-02T15:23:27Z</time>
      </trkpt>
      <trkpt lat="47.4226" lon="8.51045">
        <ele>454.6</ele>
        <time>2022-10-02T15:23:28Z</time>
      </trkpt>
      <trkpt lat="47.42257" lon="8.51043">
        <ele>454.7</ele>
        <time>2022-10-02T15:23:29Z</time>
      </trkpt>
      <trkpt lat="47.42254" lon="8.51042">
        <ele>454.7</ele>
        <time>2022-10-02T15:23:30Z</time>
      </trkpt>
      <trkpt lat="47.42251" lon="8.5104">
        <ele>454.8</ele>
        <time>2022-10-02T15:23:31Z</time>
      </trkpt>
      <trkpt lat="47.42248" lon="8.51038">
        <ele>454.8</ele>
        <time>2022-10-02T15:23:32Z</time>
      </trkpt>
      <trkpt lat="47.42245" lon="8.51037">
        <ele>454.9</ele>
        <time>2022-10-02T15:23:33Z</time>
      </trkpt>
      <trkpt lat="47.42242" lon="8.51036">
        <ele>455</ele>
        <time>2022-10-02T15:23:34Z</time>
      </trkpt>
      <trkpt lat="47.42239" lon="8.51034">
        <ele>455.1</ele>
        <time>2022-10-02T15:23:35Z</time>
      </trkpt>
      <trkpt lat="47.42235" lon="8.51032">
        <ele>455.2</ele>
        <time>2022-10-02T15:23:36Z</time>
      </trkpt>
      <trkpt lat="47.42234" lon="8.51031">
        <ele>455.2</ele>
        <time>2022-10-02T15:23:37Z</time>
      </trkpt>
      <trkpt lat="47.4223" lon="8.51029">
        <ele>455.3</ele>
        <time>2022-10-02T15:23:38Z</time>
      </trkpt>
      <trkpt lat="47.42228" lon="8.51027">
        <ele>455.4</ele>
        <time>2022-10-02T15:23:39Z</time>
      </trkpt>
      <trkpt lat="47.42226" lon="8.51025">
        <ele>455.4</ele>
        <time>2022-10-02T15:23:40Z</time>
      </trkpt>
      <trkpt lat="47.42224" lon="8.51022">
        <ele>455.5</ele>
        <time>2022-10-02T15:23:41Z</time>
      </trkpt>
      <trkpt lat="47.4222" lon="8.51019">
        <ele>455.6</ele>
        <time>2022-10-02T15:23:42Z</time>
      </trkpt>
      <trkpt lat="47.42219" lon="8.51018">
        <ele>455.6</ele>
        <time>2022-10-02T15:23:43Z</time>
      </trkpt>
      <trkpt lat="47.42216" lon="8.51016">
        <ele>455.7</ele>
        <time>2022-10-02T15:23:44Z</time>
      </trkpt>
      <trkpt lat="47.42214" lon="8.51015">
        <ele>455.7</ele>
        <time>2022-10-02T15:23:45Z</time>
      </trkpt>
      <trkpt lat="47.42211" lon="8.51013">
        <ele>455.8</ele>
        <time>2022-10-02T15:23:46Z</time>
      </trkpt>
      <trkpt lat="47.42209" lon="8.5101">
        <ele>455.9</ele>
        <time>2022-10-02T15:23:47Z</time>
      </trkpt>
      <trkpt lat="47.42206" lon="8.51008">
        <ele>456</ele>
        <time>2022-10-02T15:23:48Z</time>
      </trkpt>
      <trkpt lat="47.42204" lon="8.51006">
        <ele>456</ele>
        <time>2022-10-02T15:23:49Z</time>
      </trkpt>
      <trkpt lat="47.42201" lon="8.51005">
        <ele>456</ele>
        <time>2022-10-02T15:23:50Z</time>
      </trkpt>
      <trkpt lat="47.42198" lon="8.51004">
        <ele>456.1</ele>
        <time>2022-10-02T15:23:51Z</time>
      </trkpt>
      <trkpt lat="47.42195" lon="8.51004">
        <ele>456.1</ele>
        <time>2022-10-02T15:23:52Z</time>
      </trkpt>
      <trkpt lat="47.42192" lon="8.51007">
        <ele>456.1</ele>
        <time>2022-10-02T15:23:53Z</time>
      </trkpt>
      <trkpt lat="47.42191" lon="8.51009">
        <ele>456.1</ele>
        <time>2022-10-02T15:23:54Z</time>
      </trkpt>
      <trkpt lat="47.42189" lon="8.51013">
        <ele>456.2</ele>
        <time>2022-10-02T15:23:55Z</time>
      </trkpt>
      <trkpt lat="47.42188" lon="8.51014">
        <ele>456.2</ele>
        <time>2022-10-02T15:23:56Z</time>
      </trkpt>
      <trkpt lat="47.42186" lon="8.51018">
        <ele>456.2</ele>
        <time>2022-10-02T15:23:57Z</time>
      </trkpt>
      <trkpt lat="47.42185" lon="8.51019">
        <ele>456.2</ele>
        <time>2022-10-02T15:23:58Z</time>
      </trkpt>
      <trkpt lat="47.42183" lon="8.51023">
        <ele>456.3</ele>
        <time>2022-10-02T15:23:59Z</time>
      </trkpt>
      <trkpt lat="47.42183" lon="8.51024">
        <ele>456.3</ele>
        <time>2022-10-02T15:24:00Z</time>
      </trkpt>
      <trkpt lat="47.42181" lon="8.51028">
        <ele>456.3</ele>
        <time>2022-10-02T15:24:01Z</time>
      </trkpt>
      <trkpt lat="47.42181" lon="8.5103">
        <ele>456.4</ele>
        <time>2022-10-02T15:24:02Z</time>
      </trkpt>
      <trkpt lat="47.42179" lon="8.51034">
        <ele>456.4</ele>
        <time>2022-10-02T15:24:03Z</time>
      </trkpt>
      <trkpt lat="47.42178" lon="8.51036">
        <ele>456.4</ele>
        <time>2022-10-02T15:24:04Z</time>
      </trkpt>
      <trkpt lat="47.42176" lon="8.51041">
        <ele>456.5</ele>
        <time>2022-10-02T15:24:05Z</time>
      </trkpt>
      <trkpt lat="47.42176" lon="8.51043">
        <ele>456.5</ele>
        <time>2022-10-02T15:24:06Z</time>
      </trkpt>
      <trkpt lat="47.42174" lon="8.51048">
        <ele>456.6</ele>
        <time>2022-10-02T15:24:07Z</time>
      </trkpt>
      <trkpt lat="47.42173" lon="8.5105">
        <ele>456.6</ele>
        <time>2022-10-02T15:24:08Z</time>
      </trkpt>
      <trkpt lat="47.42172" lon="8.51054">
        <ele>456.6</ele>
        <time>2022-10-02T15:24:09Z</time>
      </trkpt>
      <trkpt lat="47.42171" lon="8.51058">
        <ele>456.7</ele>
        <time>2022-10-02T15:24:10Z</time>
      </trkpt>
      <trkpt lat="47.42169" lon="8.51062">
        <ele>456.7</ele>
        <time>2022-10-02T15:24:11Z</time>
      </trkpt>
      <trkpt lat="47.42168" lon="8.51066">
        <ele>456.8</ele>
        <time>2022-10-02T15:24:12Z</time>
      </trkpt>
      <trkpt lat="47.42167" lon="8.5107">
        <ele>456.8</ele>
        <time>2022-10-02T15:24:13Z</time>
      </trkpt>
      <trkpt lat="47.42165" lon="8.51074">
        <ele>456.8</ele>
        <time>2022-10-02T15:24:14Z</time>
      </trkpt>
      <trkpt lat="47.42163" lon="8.51078">
        <ele>456.9</ele>
        <time>2022-10-02T15:24:15Z</time>
      </trkpt>
      <trkpt lat="47.42161" lon="8.51085">
        <ele>456.9</ele>
        <time>2022-10-02T15:24:16Z</time>
      </trkpt>
      <trkpt lat="47.42158" lon="8.5109">
        <ele>457</ele>
        <time>2022-10-02T15:24:17Z</time>
      </trkpt>
      <trkpt lat="47.42156" lon="8.51096">
        <ele>457</ele>
        <time>2022-10-02T15:24:18Z</time>
      </trkpt>
      <trkpt lat="47.42153" lon="8.51102">
        <ele>457.1</ele>
        <time>2022-10-02T15:24:19Z</time>
      </trkpt>
      <trkpt lat="47.42152" lon="8.51107">
        <ele>457.1</ele>
        <time>2022-10-02T15:24:20Z</time>
      </trkpt>
      <trkpt lat="47.4215" lon="8.51112">
        <ele>457.1</ele>
        <time>2022-10-02T15:24:21Z</time>
      </trkpt>
      <trkpt lat="47.42149" lon="8.51118">
        <ele>457.2</ele>
        <time>2022-10-02T15:24:22Z</time>
      </trkpt>
      <trkpt lat="47.42147" lon="8.51123">
        <ele>457.2</ele>
        <time>2022-10-02T15:24:23Z</time>
      </trkpt>
      <trkpt lat="47.42145" lon="8.51127">
        <ele>457.2</ele>
        <time>2022-10-02T15:24:24Z</time>
      </trkpt>
      <trkpt lat="47.42144" lon="8.51132">
        <ele>457.2</ele>
        <time>2022-10-02T15:24:25Z</time>
      </trkpt>
      <trkpt lat="47.42143" lon="8.51135">
        <ele>457.3</ele>
        <time>2022-10-02T15:24:26Z</time>
      </trkpt>
      <trkpt lat="47.42141" lon="8.5114">
        <ele>457.3</ele>
        <time>2022-10-02T15:24:27Z</time>
      </trkpt>
      <trkpt lat="47.42139" lon="8.51145">
        <ele>457.3</ele>
        <time>2022-10-02T15:24:28Z</time>
      </trkpt>
      <trkpt lat="47.42137" lon="8.51151">
        <ele>457.3</ele>
        <time>2022-10-02T15:24:29Z</time>
      </trkpt>
      <trkpt lat="47.42135" lon="8.51156">
        <ele>457.4</ele>
        <time>2022-10-02T15:24:30Z</time>
      </trkpt>
      <trkpt lat="47.42133" lon="8.51158">
        <ele>457.4</ele>
        <time>2022-10-02T15:24:31Z</time>
      </trkpt>
      <trkpt lat="47.42131" lon="8.51164">
        <ele>457.4</ele>
        <time>2022-10-02T15:24:32Z</time>
      </trkpt>
      <trkpt lat="47.42129" lon="8.51169">
        <ele>457.4</ele>
        <time>2022-10-02T15:24:33Z</time>
      </trkpt>
      <trkpt lat="47.42128" lon="8.51174">
        <ele>457.4</ele>
        <time>2022-10-02T15:24:34Z</time>
      </trkpt>
      <trkpt lat="47.42126" lon="8.51178">
        <ele>457.4</ele>
        <time>2022-10-02T15:24:35Z</time>
      </trkpt>
      <trkpt lat="47.42125" lon="8.51185">
        <ele>457.4</ele>
        <time>2022-10-02T15:24:36Z</time>
      </trkpt>
      <trkpt lat="47.42123" lon="8.5119">
        <ele>457.4</ele>
        <time>2022-10-02T15:24:37Z</time>
      </trkpt>
      <trkpt lat="47.42119" lon="8.51195">
        <ele>457.3</ele>
        <time>2022-10-02T15:24:38Z</time>
      </trkpt>
      <trkpt lat="47.42116" lon="8.51203">
        <ele>457.3</ele>
        <time>2022-10-02T15:24:39Z</time>
      </trkpt>
      <trkpt lat="47.42114" lon="8.51209">
        <ele>457.3</ele>
        <time>2022-10-02T15:24:40Z</time>
      </trkpt>
      <trkpt lat="47.42113" lon="8.51211">
        <ele>457.2</ele>
        <time>2022-10-02T15:24:41Z</time>
      </trkpt>
      <trkpt lat="47.42111" lon="8.51218">
        <ele>457.2</ele>
        <time>2022-10-02T15:24:42Z</time>
      </trkpt>
      <trkpt lat="47.42109" lon="8.51222">
        <ele>457.2</ele>
        <time>2022-10-02T15:24:43Z</time>
      </trkpt>
      <trkpt lat="47.42106" lon="8.51227">
        <ele>457.1</ele>
        <time>2022-10-02T15:24:44Z</time>
      </trkpt>
      <trkpt lat="47.42105" lon="8.51231">
        <ele>457.1</ele>
        <time>2022-10-02T15:24:45Z</time>
      </trkpt>
      <trkpt lat="47.42104" lon="8.51232">
        <ele>457.1</ele>
        <time>2022-10-02T15:24:46Z</time>
      </trkpt>
      <trkpt lat="47.42103" lon="8.51238">
        <ele>457.1</ele>
        <time>2022-10-02T15:24:47Z</time>
      </trkpt>
      <trkpt lat="47.42102" lon="8.51244">
        <ele>457</ele>
        <time>2022-10-02T15:24:48Z</time>
      </trkpt>
      <trkpt lat="47.421" lon="8.51246">
        <ele>457</ele>
        <time>2022-10-02T15:24:49Z</time>
      </trkpt>
      <trkpt lat="47.42098" lon="8.51252">
        <ele>457</ele>
        <time>2022-10-02T15:24:50Z</time>
      </trkpt>
      <trkpt lat="47.42096" lon="8.51256">
        <ele>457</ele>
        <time>2022-10-02T15:24:51Z</time>
      </trkpt>
      <trkpt lat="47.42095" lon="8.51261">
        <ele>457</ele>
        <time>2022-10-02T15:24:52Z</time>
      </trkpt>
      <trkpt lat="47.42093" lon="8.51265">
        <ele>457</ele>
        <time>2022-10-02T15:24:53Z</time>
      </trkpt>
      <trkpt lat="47.42091" lon="8.5127">
        <ele>457</ele>
        <time>2022-10-02T15:24:54Z</time>
      </trkpt>
      <trkpt lat="47.4209" lon="8.51275">
        <ele>457</ele>
        <time>2022-10-02T15:24:55Z</time>
      </trkpt>
      <trkpt lat="47.42089" lon="8.51279">
        <ele>457</ele>
        <time>2022-10-02T15:24:56Z</time>
      </trkpt>
      <trkpt lat="47.42088" lon="8.51281">
        <ele>456.9</ele>
        <time>2022-10-02T15:24:57Z</time>
      </trkpt>
      <trkpt lat="47.42085" lon="8.51285">
        <ele>456.9</ele>
        <time>2022-10-02T15:24:58Z</time>
      </trkpt>
      <trkpt lat="47.42082" lon="8.5129">
        <ele>456.9</ele>
        <time>2022-10-02T15:24:59Z</time>
      </trkpt>
      <trkpt lat="47.4208" lon="8.51295">
        <ele>456.8</ele>
        <time>2022-10-02T15:25:01Z</time>
      </trkpt>
      <trkpt lat="47.42079" lon="8.51299">
        <ele>456.8</ele>
        <time>2022-10-02T15:25:02Z</time>
      </trkpt>
      <trkpt lat="47.42076" lon="8.51303">
        <ele>456.8</ele>
        <time>2022-10-02T15:25:03Z</time>
      </trkpt>
      <trkpt lat="47.42075" lon="8.51304">
        <ele>456.8</ele>
        <time>2022-10-02T15:25:04Z</time>
      </trkpt>
      <trkpt lat="47.42073" lon="8.51309">
        <ele>456.7</ele>
        <time>2022-10-02T15:25:05Z</time>
      </trkpt>
      <trkpt lat="47.42072" lon="8.51311">
        <ele>456.7</ele>
        <time>2022-10-02T15:25:06Z</time>
      </trkpt>
      <trkpt lat="47.4207" lon="8.51315">
        <ele>456.7</ele>
        <time>2022-10-02T15:25:07Z</time>
      </trkpt>
      <trkpt lat="47.42068" lon="8.5132">
        <ele>456.7</ele>
        <time>2022-10-02T15:25:08Z</time>
      </trkpt>
      <trkpt lat="47.42066" lon="8.51325">
        <ele>456.7</ele>
        <time>2022-10-02T15:25:09Z</time>
      </trkpt>
      <trkpt lat="47.42064" lon="8.5133">
        <ele>456.7</ele>
        <time>2022-10-02T15:25:10Z</time>
      </trkpt>
      <trkpt lat="47.42062" lon="8.51335">
        <ele>456.7</ele>
        <time>2022-10-02T15:25:11Z</time>
      </trkpt>
      <trkpt lat="47.4206" lon="8.5134">
        <ele>456.6</ele>
        <time>2022-10-02T15:25:12Z</time>
      </trkpt>
      <trkpt lat="47.42058" lon="8.51346">
        <ele>456.6</ele>
        <time>2022-10-02T15:25:13Z</time>
      </trkpt>
      <trkpt lat="47.42057" lon="8.51349">
        <ele>456.6</ele>
        <time>2022-10-02T15:25:14Z</time>
      </trkpt>
      <trkpt lat="47.42056" lon="8.51353">
        <ele>456.6</ele>
        <time>2022-10-02T15:25:15Z</time>
      </trkpt>
      <trkpt lat="47.42054" lon="8.51357">
        <ele>456.5</ele>
        <time>2022-10-02T15:25:16Z</time>
      </trkpt>
      <trkpt lat="47.42052" lon="8.51361">
        <ele>456.5</ele>
        <time>2022-10-02T15:25:17Z</time>
      </trkpt>
      <trkpt lat="47.42051" lon="8.51362">
        <ele>456.5</ele>
        <time>2022-10-02T15:25:18Z</time>
      </trkpt>
      <trkpt lat="47.42048" lon="8.51366">
        <ele>456.5</ele>
        <time>2022-10-02T15:25:19Z</time>
      </trkpt>
      <trkpt lat="47.42045" lon="8.51371">
        <ele>456.5</ele>
        <time>2022-10-02T15:25:20Z</time>
      </trkpt>
      <trkpt lat="47.42039" lon="8.51379">
        <ele>456.5</ele>
        <time>2022-10-02T15:25:21Z</time>
      </trkpt>
      <trkpt lat="47.42036" lon="8.51383">
        <ele>456.5</ele>
        <time>2022-10-02T15:25:22Z</time>
      </trkpt>
      <trkpt lat="47.42031" lon="8.51388">
        <ele>456.6</ele>
        <time>2022-10-02T15:25:23Z</time>
      </trkpt>
      <trkpt lat="47.42028" lon="8.51393">
        <ele>456.7</ele>
        <time>2022-10-02T15:25:24Z</time>
      </trkpt>
      <trkpt lat="47.42025" lon="8.51396">
        <ele>456.7</ele>
        <time>2022-10-02T15:25:25Z</time>
      </trkpt>
      <trkpt lat="47.42022" lon="8.514">
        <ele>456.7</ele>
        <time>2022-10-02T15:25:26Z</time>
      </trkpt>
      <trkpt lat="47.42019" lon="8.51403">
        <ele>456.7</ele>
        <time>2022-10-02T15:25:27Z</time>
      </trkpt>
      <trkpt lat="47.42014" lon="8.51405">
        <ele>456.7</ele>
        <time>2022-10-02T15:25:28Z</time>
      </trkpt>
      <trkpt lat="47.42013" lon="8.51406">
        <ele>456.8</ele>
        <time>2022-10-02T15:25:29Z</time>
      </trkpt>
      <trkpt lat="47.42009" lon="8.5141">
        <ele>456.8</ele>
        <time>2022-10-02T15:25:30Z</time>
      </trkpt>
      <trkpt lat="47.42005" lon="8.51412">
        <ele>456.8</ele>
        <time>2022-10-02T15:25:31Z</time>
      </trkpt>
      <trkpt lat="47.42002" lon="8.51415">
        <ele>456.8</ele>
        <time>2022-10-02T15:25:32Z</time>
      </trkpt>
      <trkpt lat="47.42" lon="8.51418">
        <ele>456.8</ele>
        <time>2022-10-02T15:25:33Z</time>
      </trkpt>
      <trkpt lat="47.41996" lon="8.51422">
        <ele>456.9</ele>
        <time>2022-10-02T15:25:34Z</time>
      </trkpt>
      <trkpt lat="47.41994" lon="8.51425">
        <ele>456.9</ele>
        <time>2022-10-02T15:25:35Z</time>
      </trkpt>
      <trkpt lat="47.41992" lon="8.51428">
        <ele>456.9</ele>
        <time>2022-10-02T15:25:36Z</time>
      </trkpt>
      <trkpt lat="47.41987" lon="8.51431">
        <ele>457</ele>
        <time>2022-10-02T15:25:37Z</time>
      </trkpt>
      <trkpt lat="47.41984" lon="8.51434">
        <ele>457</ele>
        <time>2022-10-02T15:25:38Z</time>
      </trkpt>
      <trkpt lat="47.41981" lon="8.51437">
        <ele>457</ele>
        <time>2022-10-02T15:25:39Z</time>
      </trkpt>
      <trkpt lat="47.41978" lon="8.51439">
        <ele>457.1</ele>
        <time>2022-10-02T15:25:40Z</time>
      </trkpt>
      <trkpt lat="47.41974" lon="8.51442">
        <ele>457.1</ele>
        <time>2022-10-02T15:25:41Z</time>
      </trkpt>
      <trkpt lat="47.41971" lon="8.51444">
        <ele>457.1</ele>
        <time>2022-10-02T15:25:42Z</time>
      </trkpt>
      <trkpt lat="47.41968" lon="8.51448">
        <ele>457.2</ele>
        <time>2022-10-02T15:25:43Z</time>
      </trkpt>
      <trkpt lat="47.41965" lon="8.5145">
        <ele>457.2</ele>
        <time>2022-10-02T15:25:44Z</time>
      </trkpt>
      <trkpt lat="47.41961" lon="8.51454">
        <ele>457.2</ele>
        <time>2022-10-02T15:25:45Z</time>
      </trkpt>
      <trkpt lat="47.41958" lon="8.51456">
        <ele>457.3</ele>
        <time>2022-10-02T15:25:46Z</time>
      </trkpt>
      <trkpt lat="47.41954" lon="8.51459">
        <ele>457.3</ele>
        <time>2022-10-02T15:25:47Z</time>
      </trkpt>
      <trkpt lat="47.41951" lon="8.5146">
        <ele>457.4</ele>
        <time>2022-10-02T15:25:48Z</time>
      </trkpt>
      <trkpt lat="47.41948" lon="8.51463">
        <ele>457.4</ele>
        <time>2022-10-02T15:25:49Z</time>
      </trkpt>
      <trkpt lat="47.41944" lon="8.51466">
        <ele>457.4</ele>
        <time>2022-10-02T15:25:50Z</time>
      </trkpt>
      <trkpt lat="47.41941" lon="8.51469">
        <ele>457.5</ele>
        <time>2022-10-02T15:25:51Z</time>
      </trkpt>
      <trkpt lat="47.41938" lon="8.51471">
        <ele>457.5</ele>
        <time>2022-10-02T15:25:52Z</time>
      </trkpt>
      <trkpt lat="47.41935" lon="8.51474">
        <ele>457.5</ele>
        <time>2022-10-02T15:25:53Z</time>
      </trkpt>
      <trkpt lat="47.41931" lon="8.51477">
        <ele>457.6</ele>
        <time>2022-10-02T15:25:54Z</time>
      </trkpt>
      <trkpt lat="47.41927" lon="8.51479">
        <ele>457.6</ele>
        <time>2022-10-02T15:25:55Z</time>
      </trkpt>
      <trkpt lat="47.41924" lon="8.51482">
        <ele>457.6</ele>
        <time>2022-10-02T15:25:56Z</time>
      </trkpt>
      <trkpt lat="47.41921" lon="8.51484">
        <ele>457.7</ele>
        <time>2022-10-02T15:25:57Z</time>
      </trkpt>
      <trkpt lat="47.41917" lon="8.51486">
        <ele>457.7</ele>
        <time>2022-10-02T15:25:58Z</time>
      </trkpt>
      <trkpt lat="47.41914" lon="8.51488">
        <ele>457.7</ele>
        <time>2022-10-02T15:25:59Z</time>
      </trkpt>
      <trkpt lat="47.4191" lon="8.5149">
        <ele>457.7</ele>
        <time>2022-10-02T15:26:00Z</time>
      </trkpt>
      <trkpt lat="47.41906" lon="8.51492">
        <ele>457.8</ele>
        <time>2022-10-02T15:26:01Z</time>
      </trkpt>
      <trkpt lat="47.41903" lon="8.51494">
        <ele>457.8</ele>
        <time>2022-10-02T15:26:02Z</time>
      </trkpt>
      <trkpt lat="47.419" lon="8.51496">
        <ele>457.8</ele>
        <time>2022-10-02T15:26:03Z</time>
      </trkpt>
      <trkpt lat="47.41897" lon="8.51499">
        <ele>457.8</ele>
        <time>2022-10-02T15:26:04Z</time>
      </trkpt>
      <trkpt lat="47.41893" lon="8.515">
        <ele>457.8</ele>
        <time>2022-10-02T15:26:05Z</time>
      </trkpt>
      <trkpt lat="47.4189" lon="8.51502">
        <ele>457.7</ele>
        <time>2022-10-02T15:26:06Z</time>
      </trkpt>
      <trkpt lat="47.41886" lon="8.51505">
        <ele>457.7</ele>
        <time>2022-10-02T15:26:07Z</time>
      </trkpt>
      <trkpt lat="47.41883" lon="8.51507">
        <ele>457.6</ele>
        <time>2022-10-02T15:26:08Z</time>
      </trkpt>
      <trkpt lat="47.41878" lon="8.51509">
        <ele>457.6</ele>
        <time>2022-10-02T15:26:09Z</time>
      </trkpt>
      <trkpt lat="47.41875" lon="8.51511">
        <ele>457.5</ele>
        <time>2022-10-02T15:26:10Z</time>
      </trkpt>
      <trkpt lat="47.41871" lon="8.51513">
        <ele>457.4</ele>
        <time>2022-10-02T15:26:11Z</time>
      </trkpt>
      <trkpt lat="47.41866" lon="8.51516">
        <ele>457.4</ele>
        <time>2022-10-02T15:26:12Z</time>
      </trkpt>
      <trkpt lat="47.41862" lon="8.51519">
        <ele>457.3</ele>
        <time>2022-10-02T15:26:13Z</time>
      </trkpt>
      <trkpt lat="47.41857" lon="8.51522">
        <ele>457.3</ele>
        <time>2022-10-02T15:26:14Z</time>
      </trkpt>
      <trkpt lat="47.41852" lon="8.51524">
        <ele>457.2</ele>
        <time>2022-10-02T15:26:15Z</time>
      </trkpt>
      <trkpt lat="47.41848" lon="8.51527">
        <ele>457.3</ele>
        <time>2022-10-02T15:26:16Z</time>
      </trkpt>
      <trkpt lat="47.41844" lon="8.51529">
        <ele>457.3</ele>
        <time>2022-10-02T15:26:17Z</time>
      </trkpt>
      <trkpt lat="47.41839" lon="8.5153">
        <ele>457.3</ele>
        <time>2022-10-02T15:26:18Z</time>
      </trkpt>
      <trkpt lat="47.41835" lon="8.51532">
        <ele>457.4</ele>
        <time>2022-10-02T15:26:19Z</time>
      </trkpt>
      <trkpt lat="47.41831" lon="8.51534">
        <ele>457.5</ele>
        <time>2022-10-02T15:26:20Z</time>
      </trkpt>
      <trkpt lat="47.41827" lon="8.51536">
        <ele>457.5</ele>
        <time>2022-10-02T15:26:21Z</time>
      </trkpt>
      <trkpt lat="47.41824" lon="8.51537">
        <ele>457.6</ele>
        <time>2022-10-02T15:26:22Z</time>
      </trkpt>
      <trkpt lat="47.41821" lon="8.51539">
        <ele>457.7</ele>
        <time>2022-10-02T15:26:23Z</time>
      </trkpt>
      <trkpt lat="47.41817" lon="8.5154">
        <ele>457.8</ele>
        <time>2022-10-02T15:26:24Z</time>
      </trkpt>
      <trkpt lat="47.41813" lon="8.51541">
        <ele>457.9</ele>
        <time>2022-10-02T15:26:25Z</time>
      </trkpt>
      <trkpt lat="47.41812" lon="8.51542">
        <ele>458</ele>
        <time>2022-10-02T15:26:26Z</time>
      </trkpt>
      <trkpt lat="47.41809" lon="8.51543">
        <ele>458</ele>
        <time>2022-10-02T15:26:27Z</time>
      </trkpt>
      <trkpt lat="47.41806" lon="8.51544">
        <ele>458.1</ele>
        <time>2022-10-02T15:26:28Z</time>
      </trkpt>
      <trkpt lat="47.41803" lon="8.51546">
        <ele>458.1</ele>
        <time>2022-10-02T15:26:29Z</time>
      </trkpt>
      <trkpt lat="47.418" lon="8.51546">
        <ele>458.1</ele>
        <time>2022-10-02T15:26:30Z</time>
      </trkpt>
      <trkpt lat="47.41796" lon="8.51547">
        <ele>458.2</ele>
        <time>2022-10-02T15:26:31Z</time>
      </trkpt>
      <trkpt lat="47.41794" lon="8.51548">
        <ele>458.2</ele>
        <time>2022-10-02T15:26:32Z</time>
      </trkpt>
      <trkpt lat="47.4179" lon="8.51549">
        <ele>458.3</ele>
        <time>2022-10-02T15:26:33Z</time>
      </trkpt>
      <trkpt lat="47.41788" lon="8.5155">
        <ele>458.3</ele>
        <time>2022-10-02T15:26:34Z</time>
      </trkpt>
      <trkpt lat="47.41785" lon="8.51552">
        <ele>458.4</ele>
        <time>2022-10-02T15:26:35Z</time>
      </trkpt>
      <trkpt lat="47.41781" lon="8.51553">
        <ele>458.4</ele>
        <time>2022-10-02T15:26:36Z</time>
      </trkpt>
      <trkpt lat="47.41778" lon="8.51554">
        <ele>458.4</ele>
        <time>2022-10-02T15:26:37Z</time>
      </trkpt>
      <trkpt lat="47.41775" lon="8.51555">
        <ele>458.5</ele>
        <time>2022-10-02T15:26:38Z</time>
      </trkpt>
      <trkpt lat="47.41771" lon="8.51556">
        <ele>458.5</ele>
        <time>2022-10-02T15:26:39Z</time>
      </trkpt>
      <trkpt lat="47.41767" lon="8.51557">
        <ele>458.6</ele>
        <time>2022-10-02T15:26:40Z</time>
      </trkpt>
      <trkpt lat="47.41764" lon="8.51559">
        <ele>458.6</ele>
        <time>2022-10-02T15:26:41Z</time>
      </trkpt>
      <trkpt lat="47.4176" lon="8.5156">
        <ele>458.7</ele>
        <time>2022-10-02T15:26:42Z</time>
      </trkpt>
      <trkpt lat="47.41757" lon="8.51562">
        <ele>458.7</ele>
        <time>2022-10-02T15:26:43Z</time>
      </trkpt>
      <trkpt lat="47.41754" lon="8.51564">
        <ele>458.8</ele>
        <time>2022-10-02T15:26:44Z</time>
      </trkpt>
      <trkpt lat="47.4175" lon="8.51565">
        <ele>458.8</ele>
        <time>2022-10-02T15:26:45Z</time>
      </trkpt>
      <trkpt lat="47.41746" lon="8.51567">
        <ele>458.9</ele>
        <time>2022-10-02T15:26:46Z</time>
      </trkpt>
      <trkpt lat="47.41743" lon="8.51568">
        <ele>458.9</ele>
        <time>2022-10-02T15:26:47Z</time>
      </trkpt>
      <trkpt lat="47.41739" lon="8.51569">
        <ele>459</ele>
        <time>2022-10-02T15:26:48Z</time>
      </trkpt>
      <trkpt lat="47.41736" lon="8.51571">
        <ele>459</ele>
        <time>2022-10-02T15:26:49Z</time>
      </trkpt>
      <trkpt lat="47.41732" lon="8.51573">
        <ele>459.1</ele>
        <time>2022-10-02T15:26:50Z</time>
      </trkpt>
      <trkpt lat="47.41728" lon="8.51574">
        <ele>459.1</ele>
        <time>2022-10-02T15:26:51Z</time>
      </trkpt>
      <trkpt lat="47.41725" lon="8.51575">
        <ele>459.2</ele>
        <time>2022-10-02T15:26:52Z</time>
      </trkpt>
      <trkpt lat="47.41721" lon="8.51577">
        <ele>459.2</ele>
        <time>2022-10-02T15:26:53Z</time>
      </trkpt>
      <trkpt lat="47.41718" lon="8.51579">
        <ele>459.3</ele>
        <time>2022-10-02T15:26:54Z</time>
      </trkpt>
      <trkpt lat="47.41714" lon="8.51581">
        <ele>459.4</ele>
        <time>2022-10-02T15:26:55Z</time>
      </trkpt>
      <trkpt lat="47.41711" lon="8.51583">
        <ele>459.4</ele>
        <time>2022-10-02T15:26:56Z</time>
      </trkpt>
      <trkpt lat="47.41708" lon="8.51585">
        <ele>459.5</ele>
        <time>2022-10-02T15:26:57Z</time>
      </trkpt>
      <trkpt lat="47.41705" lon="8.51587">
        <ele>459.5</ele>
        <time>2022-10-02T15:26:58Z</time>
      </trkpt>
      <trkpt lat="47.41702" lon="8.5159">
        <ele>459.6</ele>
        <time>2022-10-02T15:26:59Z</time>
      </trkpt>
      <trkpt lat="47.41699" lon="8.51592">
        <ele>459.6</ele>
        <time>2022-10-02T15:27:00Z</time>
      </trkpt>
      <trkpt lat="47.41696" lon="8.51595">
        <ele>459.7</ele>
        <time>2022-10-02T15:27:01Z</time>
      </trkpt>
      <trkpt lat="47.41693" lon="8.51598">
        <ele>459.7</ele>
        <time>2022-10-02T15:27:02Z</time>
      </trkpt>
      <trkpt lat="47.41691" lon="8.516">
        <ele>459.8</ele>
        <time>2022-10-02T15:27:03Z</time>
      </trkpt>
      <trkpt lat="47.41688" lon="8.51603">
        <ele>459.8</ele>
        <time>2022-10-02T15:27:04Z</time>
      </trkpt>
      <trkpt lat="47.41687" lon="8.51605">
        <ele>459.8</ele>
        <time>2022-10-02T15:27:05Z</time>
      </trkpt>
      <trkpt lat="47.41686" lon="8.51609">
        <ele>459.9</ele>
        <time>2022-10-02T15:27:07Z</time>
      </trkpt>
      <trkpt lat="47.41683" lon="8.51611">
        <ele>459.9</ele>
        <time>2022-10-02T15:27:08Z</time>
      </trkpt>
      <trkpt lat="47.41681" lon="8.51614">
        <ele>460</ele>
        <time>2022-10-02T15:27:09Z</time>
      </trkpt>
      <trkpt lat="47.41678" lon="8.51616">
        <ele>460</ele>
        <time>2022-10-02T15:27:10Z</time>
      </trkpt>
      <trkpt lat="47.41678" lon="8.51617">
        <ele>460</ele>
        <time>2022-10-02T15:27:11Z</time>
      </trkpt>
      <trkpt lat="47.41677" lon="8.51617">
        <ele>460</ele>
        <time>2022-10-02T15:27:12Z</time>
      </trkpt>
      <trkpt lat="47.41677" lon="8.51618">
        <ele>460</ele>
        <time>2022-10-02T15:27:13Z</time>
      </trkpt>
      <trkpt lat="47.41676" lon="8.51618">
        <ele>460</ele>
        <time>2022-10-02T15:27:14Z</time>
      </trkpt>
      <trkpt lat="47.41675" lon="8.51619">
        <ele>460.1</ele>
        <time>2022-10-02T15:27:15Z</time>
      </trkpt>
      <trkpt lat="47.41676" lon="8.51619">
        <ele>460.1</ele>
        <time>2022-10-02T15:27:16Z</time>
      </trkpt>
      <trkpt lat="47.41676" lon="8.51619">
        <ele>460.1</ele>
        <time>2022-10-02T15:27:17Z</time>
      </trkpt>
      <trkpt lat="47.41676" lon="8.51619">
        <ele>460.1</ele>
        <time>2022-10-02T15:27:18Z</time>
      </trkpt>
      <trkpt lat="47.41676" lon="8.51619">
        <ele>460.1</ele>
        <time>2022-10-02T15:27:19Z</time>
      </trkpt>
      <trkpt lat="47.41676" lon="8.51619">
        <ele>460.1</ele>
        <time>2022-10-02T15:27:20Z</time>
      </trkpt>
      <trkpt lat="47.41675" lon="8.51619">
        <ele>460.1</ele>
        <time>2022-10-02T15:27:21Z</time>
      </trkpt>
      <trkpt lat="47.4167" lon="8.51624">
        <ele>460.1</ele>
        <time>2022-10-02T15:27:53Z</time>
      </trkpt>
      <trkpt lat="47.41669" lon="8.51625">
        <ele>460.2</ele>
        <time>2022-10-02T15:27:54Z</time>
      </trkpt>
      <trkpt lat="47.41669" lon="8.51626">
        <ele>460.2</ele>
        <time>2022-10-02T15:27:55Z</time>
      </trkpt>
      <trkpt lat="47.41666" lon="8.51629">
        <ele>460.2</ele>
        <time>2022-10-02T15:27:56Z</time>
      </trkpt>
      <trkpt lat="47.41665" lon="8.5163">
        <ele>460.2</ele>
        <time>2022-10-02T15:27:57Z</time>
      </trkpt>
      <trkpt lat="47.41663" lon="8.51633">
        <ele>460.3</ele>
        <time>2022-10-02T15:27:58Z</time>
      </trkpt>
      <trkpt lat="47.41662" lon="8.51634">
        <ele>460.3</ele>
        <time>2022-10-02T15:27:59Z</time>
      </trkpt>
      <trkpt lat="47.4166" lon="8.51639">
        <ele>460.3</ele>
        <time>2022-10-02T15:28:00Z</time>
      </trkpt>
      <trkpt lat="47.41659" lon="8.51641">
        <ele>460.4</ele>
        <time>2022-10-02T15:28:01Z</time>
      </trkpt>
      <trkpt lat="47.41656" lon="8.51645">
        <ele>460.4</ele>
        <time>2022-10-02T15:28:02Z</time>
      </trkpt>
      <trkpt lat="47.41653" lon="8.51648">
        <ele>460.5</ele>
        <time>2022-10-02T15:28:03Z</time>
      </trkpt>
      <trkpt lat="47.41653" lon="8.5165">
        <ele>460.5</ele>
        <time>2022-10-02T15:28:04Z</time>
      </trkpt>
      <trkpt lat="47.4165" lon="8.51654">
        <ele>460.6</ele>
        <time>2022-10-02T15:28:05Z</time>
      </trkpt>
      <trkpt lat="47.41649" lon="8.51655">
        <ele>460.6</ele>
        <time>2022-10-02T15:28:06Z</time>
      </trkpt>
      <trkpt lat="47.41647" lon="8.51659">
        <ele>460.7</ele>
        <time>2022-10-02T15:28:07Z</time>
      </trkpt>
      <trkpt lat="47.41646" lon="8.51663">
        <ele>460.7</ele>
        <time>2022-10-02T15:28:08Z</time>
      </trkpt>
      <trkpt lat="47.41644" lon="8.51668">
        <ele>460.8</ele>
        <time>2022-10-02T15:28:09Z</time>
      </trkpt>
      <trkpt lat="47.41643" lon="8.51671">
        <ele>460.8</ele>
        <time>2022-10-02T15:28:10Z</time>
      </trkpt>
      <trkpt lat="47.41641" lon="8.51674">
        <ele>460.9</ele>
        <time>2022-10-02T15:28:11Z</time>
      </trkpt>
      <trkpt lat="47.41641" lon="8.51675">
        <ele>460.9</ele>
        <time>2022-10-02T15:28:12Z</time>
      </trkpt>
      <trkpt lat="47.4164" lon="8.51679">
        <ele>460.9</ele>
        <time>2022-10-02T15:28:13Z</time>
      </trkpt>
      <trkpt lat="47.41638" lon="8.51683">
        <ele>461</ele>
        <time>2022-10-02T15:28:14Z</time>
      </trkpt>
      <trkpt lat="47.41637" lon="8.51687">
        <ele>461</ele>
        <time>2022-10-02T15:28:15Z</time>
      </trkpt>
      <trkpt lat="47.41635" lon="8.51692">
        <ele>461.1</ele>
        <time>2022-10-02T15:28:16Z</time>
      </trkpt>
      <trkpt lat="47.41634" lon="8.51694">
        <ele>461.1</ele>
        <time>2022-10-02T15:28:17Z</time>
      </trkpt>
      <trkpt lat="47.41633" lon="8.51698">
        <ele>461.2</ele>
        <time>2022-10-02T15:28:18Z</time>
      </trkpt>
      <trkpt lat="47.41631" lon="8.51703">
        <ele>461.3</ele>
        <time>2022-10-02T15:28:19Z</time>
      </trkpt>
      <trkpt lat="47.41629" lon="8.51708">
        <ele>461.3</ele>
        <time>2022-10-02T15:28:20Z</time>
      </trkpt>
      <trkpt lat="47.41628" lon="8.51711">
        <ele>461.4</ele>
        <time>2022-10-02T15:28:21Z</time>
      </trkpt>
      <trkpt lat="47.41626" lon="8.51715">
        <ele>461.5</ele>
        <time>2022-10-02T15:28:22Z</time>
      </trkpt>
      <trkpt lat="47.41623" lon="8.5172">
        <ele>461.5</ele>
        <time>2022-10-02T15:28:23Z</time>
      </trkpt>
      <trkpt lat="47.41622" lon="8.51724">
        <ele>461.6</ele>
        <time>2022-10-02T15:28:24Z</time>
      </trkpt>
      <trkpt lat="47.41619" lon="8.51729">
        <ele>461.7</ele>
        <time>2022-10-02T15:28:25Z</time>
      </trkpt>
      <trkpt lat="47.41616" lon="8.51732">
        <ele>461.7</ele>
        <time>2022-10-02T15:28:26Z</time>
      </trkpt>
      <trkpt lat="47.41613" lon="8.51739">
        <ele>461.8</ele>
        <time>2022-10-02T15:28:27Z</time>
      </trkpt>
      <trkpt lat="47.41609" lon="8.51743">
        <ele>461.9</ele>
        <time>2022-10-02T15:28:28Z</time>
      </trkpt>
      <trkpt lat="47.41605" lon="8.51745">
        <ele>462.1</ele>
        <time>2022-10-02T15:28:29Z</time>
      </trkpt>
      <trkpt lat="47.41602" lon="8.51749">
        <ele>462.2</ele>
        <time>2022-10-02T15:28:30Z</time>
      </trkpt>
      <trkpt lat="47.416" lon="8.51754">
        <ele>462.3</ele>
        <time>2022-10-02T15:28:31Z</time>
      </trkpt>
      <trkpt lat="47.41597" lon="8.51757">
        <ele>462.4</ele>
        <time>2022-10-02T15:28:32Z</time>
      </trkpt>
      <trkpt lat="47.41594" lon="8.51762">
        <ele>462.5</ele>
        <time>2022-10-02T15:28:33Z</time>
      </trkpt>
      <trkpt lat="47.41591" lon="8.51766">
        <ele>462.7</ele>
        <time>2022-10-02T15:28:34Z</time>
      </trkpt>
      <trkpt lat="47.4159" lon="8.51767">
        <ele>462.7</ele>
        <time>2022-10-02T15:28:35Z</time>
      </trkpt>
      <trkpt lat="47.41588" lon="8.5177">
        <ele>462.8</ele>
        <time>2022-10-02T15:28:36Z</time>
      </trkpt>
      <trkpt lat="47.41586" lon="8.51772">
        <ele>462.8</ele>
        <time>2022-10-02T15:28:37Z</time>
      </trkpt>
      <trkpt lat="47.41583" lon="8.51775">
        <ele>463</ele>
        <time>2022-10-02T15:28:38Z</time>
      </trkpt>
      <trkpt lat="47.41582" lon="8.51777">
        <ele>463</ele>
        <time>2022-10-02T15:28:39Z</time>
      </trkpt>
      <trkpt lat="47.4158" lon="8.51781">
        <ele>463.1</ele>
        <time>2022-10-02T15:28:40Z</time>
      </trkpt>
      <trkpt lat="47.41579" lon="8.51782">
        <ele>463.1</ele>
        <time>2022-10-02T15:28:41Z</time>
      </trkpt>
      <trkpt lat="47.41577" lon="8.51787">
        <ele>463.1</ele>
        <time>2022-10-02T15:28:42Z</time>
      </trkpt>
      <trkpt lat="47.41577" lon="8.51788">
        <ele>463.2</ele>
        <time>2022-10-02T15:28:43Z</time>
      </trkpt>
      <trkpt lat="47.41574" lon="8.51791">
        <ele>463.2</ele>
        <time>2022-10-02T15:28:44Z</time>
      </trkpt>
      <trkpt lat="47.41571" lon="8.51793">
        <ele>463.3</ele>
        <time>2022-10-02T15:28:45Z</time>
      </trkpt>
      <trkpt lat="47.41567" lon="8.51796">
        <ele>463.4</ele>
        <time>2022-10-02T15:28:46Z</time>
      </trkpt>
      <trkpt lat="47.41566" lon="8.51797">
        <ele>463.4</ele>
        <time>2022-10-02T15:28:47Z</time>
      </trkpt>
      <trkpt lat="47.41563" lon="8.51798">
        <ele>463.4</ele>
        <time>2022-10-02T15:28:48Z</time>
      </trkpt>
      <trkpt lat="47.4156" lon="8.51802">
        <ele>463.5</ele>
        <time>2022-10-02T15:28:49Z</time>
      </trkpt>
      <trkpt lat="47.41559" lon="8.51803">
        <ele>463.5</ele>
        <time>2022-10-02T15:28:50Z</time>
      </trkpt>
      <trkpt lat="47.41556" lon="8.51806">
        <ele>463.5</ele>
        <time>2022-10-02T15:28:51Z</time>
      </trkpt>
      <trkpt lat="47.41553" lon="8.51809">
        <ele>463.5</ele>
        <time>2022-10-02T15:28:52Z</time>
      </trkpt>
      <trkpt lat="47.41551" lon="8.51812">
        <ele>463.5</ele>
        <time>2022-10-02T15:28:53Z</time>
      </trkpt>
      <trkpt lat="47.41548" lon="8.51815">
        <ele>463.5</ele>
        <time>2022-10-02T15:28:54Z</time>
      </trkpt>
      <trkpt lat="47.41545" lon="8.5182">
        <ele>463.5</ele>
        <time>2022-10-02T15:28:55Z</time>
      </trkpt>
      <trkpt lat="47.41542" lon="8.51823">
        <ele>463.5</ele>
        <time>2022-10-02T15:28:56Z</time>
      </trkpt>
      <trkpt lat="47.41539" lon="8.51826">
        <ele>463.5</ele>
        <time>2022-10-02T15:28:57Z</time>
      </trkpt>
      <trkpt lat="47.41536" lon="8.5183">
        <ele>463.5</ele>
        <time>2022-10-02T15:28:58Z</time>
      </trkpt>
      <trkpt lat="47.41532" lon="8.51833">
        <ele>463.5</ele>
        <time>2022-10-02T15:28:59Z</time>
      </trkpt>
      <trkpt lat="47.4153" lon="8.51837">
        <ele>463.5</ele>
        <time>2022-10-02T15:29:00Z</time>
      </trkpt>
      <trkpt lat="47.41528" lon="8.5184">
        <ele>463.6</ele>
        <time>2022-10-02T15:29:01Z</time>
      </trkpt>
      <trkpt lat="47.41525" lon="8.51842">
        <ele>463.6</ele>
        <time>2022-10-02T15:29:02Z</time>
      </trkpt>
      <trkpt lat="47.41524" lon="8.51843">
        <ele>463.6</ele>
        <time>2022-10-02T15:29:03Z</time>
      </trkpt>
      <trkpt lat="47.41521" lon="8.51845">
        <ele>463.6</ele>
        <time>2022-10-02T15:29:04Z</time>
      </trkpt>
      <trkpt lat="47.41518" lon="8.51848">
        <ele>463.7</ele>
        <time>2022-10-02T15:29:05Z</time>
      </trkpt>
      <trkpt lat="47.41514" lon="8.51851">
        <ele>463.7</ele>
        <time>2022-10-02T15:29:06Z</time>
      </trkpt>
      <trkpt lat="47.41511" lon="8.51854">
        <ele>463.7</ele>
        <time>2022-10-02T15:29:07Z</time>
      </trkpt>
      <trkpt lat="47.41508" lon="8.51856">
        <ele>463.7</ele>
        <time>2022-10-02T15:29:08Z</time>
      </trkpt>
      <trkpt lat="47.41505" lon="8.51859">
        <ele>463.6</ele>
        <time>2022-10-02T15:29:09Z</time>
      </trkpt>
      <trkpt lat="47.41503" lon="8.5186">
        <ele>463.6</ele>
        <time>2022-10-02T15:29:10Z</time>
      </trkpt>
      <trkpt lat="47.41501" lon="8.51863">
        <ele>463.6</ele>
        <time>2022-10-02T15:29:11Z</time>
      </trkpt>
      <trkpt lat="47.41499" lon="8.51866">
        <ele>463.6</ele>
        <time>2022-10-02T15:29:13Z</time>
      </trkpt>
      <trkpt lat="47.41497" lon="8.51869">
        <ele>463.6</ele>
        <time>2022-10-02T15:29:14Z</time>
      </trkpt>
      <trkpt lat="47.41493" lon="8.51872">
        <ele>463.6</ele>
        <time>2022-10-02T15:29:15Z</time>
      </trkpt>
      <trkpt lat="47.41491" lon="8.51877">
        <ele>463.6</ele>
        <time>2022-10-02T15:29:16Z</time>
      </trkpt>
      <trkpt lat="47.4149" lon="8.51879">
        <ele>463.6</ele>
        <time>2022-10-02T15:29:17Z</time>
      </trkpt>
      <trkpt lat="47.41486" lon="8.51884">
        <ele>463.5</ele>
        <time>2022-10-02T15:29:18Z</time>
      </trkpt>
      <trkpt lat="47.41485" lon="8.51888">
        <ele>463.4</ele>
        <time>2022-10-02T15:29:19Z</time>
      </trkpt>
      <trkpt lat="47.41482" lon="8.51893">
        <ele>463.4</ele>
        <time>2022-10-02T15:29:21Z</time>
      </trkpt>
      <trkpt lat="47.41482" lon="8.51895">
        <ele>463.4</ele>
        <time>2022-10-02T15:29:22Z</time>
      </trkpt>
      <trkpt lat="47.41481" lon="8.51899">
        <ele>463.3</ele>
        <time>2022-10-02T15:29:23Z</time>
      </trkpt>
      <trkpt lat="47.41479" lon="8.51908">
        <ele>463.2</ele>
        <time>2022-10-02T15:29:24Z</time>
      </trkpt>
      <trkpt lat="47.41478" lon="8.51911">
        <ele>463.2</ele>
        <time>2022-10-02T15:29:25Z</time>
      </trkpt>
      <trkpt lat="47.41477" lon="8.51916">
        <ele>463.1</ele>
        <time>2022-10-02T15:29:27Z</time>
      </trkpt>
      <trkpt lat="47.41475" lon="8.51927">
        <ele>463</ele>
        <time>2022-10-02T15:29:28Z</time>
      </trkpt>
      <trkpt lat="47.41474" lon="8.51935">
        <ele>462.8</ele>
        <time>2022-10-02T15:29:29Z</time>
      </trkpt>
      <trkpt lat="47.41474" lon="8.51943">
        <ele>462.7</ele>
        <time>2022-10-02T15:29:30Z</time>
      </trkpt>
      <trkpt lat="47.41473" lon="8.51952">
        <ele>462.6</ele>
        <time>2022-10-02T15:29:31Z</time>
      </trkpt>
      <trkpt lat="47.41472" lon="8.5196">
        <ele>462.2</ele>
        <time>2022-10-02T15:29:32Z</time>
      </trkpt>
      <trkpt lat="47.4147" lon="8.51967">
        <ele>461.8</ele>
        <time>2022-10-02T15:29:33Z</time>
      </trkpt>
      <trkpt lat="47.41469" lon="8.51972">
        <ele>461.6</ele>
        <time>2022-10-02T15:29:34Z</time>
      </trkpt>
      <trkpt lat="47.41467" lon="8.51982">
        <ele>460.8</ele>
        <time>2022-10-02T15:29:35Z</time>
      </trkpt>
      <trkpt lat="47.41466" lon="8.51992">
        <ele>459.8</ele>
        <time>2022-10-02T15:29:36Z</time>
      </trkpt>
      <trkpt lat="47.41464" lon="8.52001">
        <ele>459.3</ele>
        <time>2022-10-02T15:29:37Z</time>
      </trkpt>
      <trkpt lat="47.41462" lon="8.52015">
        <ele>458.8</ele>
        <time>2022-10-02T15:29:38Z</time>
      </trkpt>
      <trkpt lat="47.41459" lon="8.52026">
        <ele>458.3</ele>
        <time>2022-10-02T15:29:39Z</time>
      </trkpt>
      <trkpt lat="47.41456" lon="8.52037">
        <ele>457.8</ele>
        <time>2022-10-02T15:29:40Z</time>
      </trkpt>
      <trkpt lat="47.41453" lon="8.52048">
        <ele>457.6</ele>
        <time>2022-10-02T15:29:41Z</time>
      </trkpt>
      <trkpt lat="47.4145" lon="8.52056">
        <ele>457.3</ele>
        <time>2022-10-02T15:29:42Z</time>
      </trkpt>
      <trkpt lat="47.41448" lon="8.52065">
        <ele>457</ele>
        <time>2022-10-02T15:29:43Z</time>
      </trkpt>
      <trkpt lat="47.41445" lon="8.52076">
        <ele>456.5</ele>
        <time>2022-10-02T15:29:44Z</time>
      </trkpt>
      <trkpt lat="47.41442" lon="8.52085">
        <ele>456.2</ele>
        <time>2022-10-02T15:29:45Z</time>
      </trkpt>
      <trkpt lat="47.41438" lon="8.52096">
        <ele>455.8</ele>
        <time>2022-10-02T15:29:46Z</time>
      </trkpt>
      <trkpt lat="47.41434" lon="8.52104">
        <ele>455.5</ele>
        <time>2022-10-02T15:29:47Z</time>
      </trkpt>
      <trkpt lat="47.4143" lon="8.52112">
        <ele>455.2</ele>
        <time>2022-10-02T15:29:48Z</time>
      </trkpt>
      <trkpt lat="47.41427" lon="8.52121">
        <ele>455.1</ele>
        <time>2022-10-02T15:29:49Z</time>
      </trkpt>
      <trkpt lat="47.41422" lon="8.52128">
        <ele>455</ele>
        <time>2022-10-02T15:29:50Z</time>
      </trkpt>
      <trkpt lat="47.41419" lon="8.5214">
        <ele>454.9</ele>
        <time>2022-10-02T15:29:51Z</time>
      </trkpt>
      <trkpt lat="47.41416" lon="8.52148">
        <ele>454.7</ele>
        <time>2022-10-02T15:29:52Z</time>
      </trkpt>
      <trkpt lat="47.41413" lon="8.52157">
        <ele>454.6</ele>
        <time>2022-10-02T15:29:53Z</time>
      </trkpt>
      <trkpt lat="47.41412" lon="8.52162">
        <ele>454.5</ele>
        <time>2022-10-02T15:29:54Z</time>
      </trkpt>
      <trkpt lat="47.41406" lon="8.52171">
        <ele>454.2</ele>
        <time>2022-10-02T15:29:55Z</time>
      </trkpt>
      <trkpt lat="47.41403" lon="8.52181">
        <ele>454</ele>
        <time>2022-10-02T15:29:56Z</time>
      </trkpt>
      <trkpt lat="47.414" lon="8.52189">
        <ele>453.8</ele>
        <time>2022-10-02T15:29:57Z</time>
      </trkpt>
      <trkpt lat="47.41396" lon="8.52197">
        <ele>453.6</ele>
        <time>2022-10-02T15:29:58Z</time>
      </trkpt>
      <trkpt lat="47.41392" lon="8.52205">
        <ele>453.4</ele>
        <time>2022-10-02T15:29:59Z</time>
      </trkpt>
      <trkpt lat="47.41389" lon="8.52213">
        <ele>453.3</ele>
        <time>2022-10-02T15:30:00Z</time>
      </trkpt>
      <trkpt lat="47.41385" lon="8.52223">
        <ele>453.1</ele>
        <time>2022-10-02T15:30:01Z</time>
      </trkpt>
      <trkpt lat="47.41382" lon="8.52232">
        <ele>453</ele>
        <time>2022-10-02T15:30:02Z</time>
      </trkpt>
      <trkpt lat="47.41379" lon="8.52241">
        <ele>452.9</ele>
        <time>2022-10-02T15:30:03Z</time>
      </trkpt>
      <trkpt lat="47.41376" lon="8.5225">
        <ele>452.7</ele>
        <time>2022-10-02T15:30:04Z</time>
      </trkpt>
      <trkpt lat="47.41372" lon="8.52258">
        <ele>452.6</ele>
        <time>2022-10-02T15:30:05Z</time>
      </trkpt>
      <trkpt lat="47.41369" lon="8.52267">
        <ele>452.5</ele>
        <time>2022-10-02T15:30:06Z</time>
      </trkpt>
      <trkpt lat="47.41366" lon="8.52276">
        <ele>452.3</ele>
        <time>2022-10-02T15:30:07Z</time>
      </trkpt>
      <trkpt lat="47.41365" lon="8.52286">
        <ele>452.1</ele>
        <time>2022-10-02T15:30:08Z</time>
      </trkpt>
      <trkpt lat="47.41363" lon="8.52296">
        <ele>451.9</ele>
        <time>2022-10-02T15:30:09Z</time>
      </trkpt>
      <trkpt lat="47.41361" lon="8.52306">
        <ele>451.6</ele>
        <time>2022-10-02T15:30:10Z</time>
      </trkpt>
      <trkpt lat="47.41359" lon="8.52314">
        <ele>451.4</ele>
        <time>2022-10-02T15:30:11Z</time>
      </trkpt>
      <trkpt lat="47.41357" lon="8.52324">
        <ele>451.2</ele>
        <time>2022-10-02T15:30:12Z</time>
      </trkpt>
      <trkpt lat="47.41356" lon="8.52333">
        <ele>451</ele>
        <time>2022-10-02T15:30:13Z</time>
      </trkpt>
      <trkpt lat="47.41356" lon="8.52342">
        <ele>450.8</ele>
        <time>2022-10-02T15:30:14Z</time>
      </trkpt>
      <trkpt lat="47.41356" lon="8.52353">
        <ele>450.6</ele>
        <time>2022-10-02T15:30:15Z</time>
      </trkpt>
      <trkpt lat="47.41357" lon="8.52361">
        <ele>450.5</ele>
        <time>2022-10-02T15:30:16Z</time>
      </trkpt>
      <trkpt lat="47.41358" lon="8.52367">
        <ele>450.5</ele>
        <time>2022-10-02T15:30:17Z</time>
      </trkpt>
      <trkpt lat="47.41357" lon="8.52374">
        <ele>450.4</ele>
        <time>2022-10-02T15:30:18Z</time>
      </trkpt>
      <trkpt lat="47.41357" lon="8.52377">
        <ele>450.4</ele>
        <time>2022-10-02T15:30:19Z</time>
      </trkpt>
      <trkpt lat="47.41354" lon="8.52382">
        <ele>450.3</ele>
        <time>2022-10-02T15:30:20Z</time>
      </trkpt>
      <trkpt lat="47.4135" lon="8.52387">
        <ele>450.2</ele>
        <time>2022-10-02T15:30:21Z</time>
      </trkpt>
      <trkpt lat="47.41346" lon="8.5239">
        <ele>450.1</ele>
        <time>2022-10-02T15:30:22Z</time>
      </trkpt>
      <trkpt lat="47.41342" lon="8.52394">
        <ele>450.1</ele>
        <time>2022-10-02T15:30:23Z</time>
      </trkpt>
      <trkpt lat="47.41337" lon="8.52399">
        <ele>450.1</ele>
        <time>2022-10-02T15:30:24Z</time>
      </trkpt>
      <trkpt lat="47.41333" lon="8.52405">
        <ele>450.2</ele>
        <time>2022-10-02T15:30:25Z</time>
      </trkpt>
      <trkpt lat="47.4133" lon="8.52409">
        <ele>450.2</ele>
        <time>2022-10-02T15:30:26Z</time>
      </trkpt>
      <trkpt lat="47.41326" lon="8.52415">
        <ele>450.2</ele>
        <time>2022-10-02T15:30:27Z</time>
      </trkpt>
      <trkpt lat="47.41322" lon="8.52421">
        <ele>450.2</ele>
        <time>2022-10-02T15:30:28Z</time>
      </trkpt>
      <trkpt lat="47.41319" lon="8.52428">
        <ele>450.2</ele>
        <time>2022-10-02T15:30:29Z</time>
      </trkpt>
      <trkpt lat="47.41316" lon="8.52432">
        <ele>450.2</ele>
        <time>2022-10-02T15:30:30Z</time>
      </trkpt>
      <trkpt lat="47.41312" lon="8.52435">
        <ele>450.3</ele>
        <time>2022-10-02T15:30:31Z</time>
      </trkpt>
      <trkpt lat="47.41309" lon="8.52439">
        <ele>450.3</ele>
        <time>2022-10-02T15:30:32Z</time>
      </trkpt>
      <trkpt lat="47.41305" lon="8.52443">
        <ele>450.3</ele>
        <time>2022-10-02T15:30:33Z</time>
      </trkpt>
      <trkpt lat="47.41303" lon="8.52448">
        <ele>450.3</ele>
        <time>2022-10-02T15:30:34Z</time>
      </trkpt>
      <trkpt lat="47.41299" lon="8.52452">
        <ele>450.4</ele>
        <time>2022-10-02T15:30:35Z</time>
      </trkpt>
      <trkpt lat="47.41295" lon="8.52457">
        <ele>450.4</ele>
        <time>2022-10-02T15:30:36Z</time>
      </trkpt>
      <trkpt lat="47.41291" lon="8.52463">
        <ele>450.4</ele>
        <time>2022-10-02T15:30:37Z</time>
      </trkpt>
      <trkpt lat="47.41288" lon="8.52467">
        <ele>450.4</ele>
        <time>2022-10-02T15:30:38Z</time>
      </trkpt>
      <trkpt lat="47.41284" lon="8.52471">
        <ele>450.5</ele>
        <time>2022-10-02T15:30:39Z</time>
      </trkpt>
      <trkpt lat="47.41281" lon="8.52477">
        <ele>450.5</ele>
        <time>2022-10-02T15:30:40Z</time>
      </trkpt>
      <trkpt lat="47.41278" lon="8.52484">
        <ele>450.5</ele>
        <time>2022-10-02T15:30:41Z</time>
      </trkpt>
      <trkpt lat="47.41275" lon="8.5249">
        <ele>450.6</ele>
        <time>2022-10-02T15:30:42Z</time>
      </trkpt>
      <trkpt lat="47.41274" lon="8.52494">
        <ele>450.6</ele>
        <time>2022-10-02T15:30:43Z</time>
      </trkpt>
      <trkpt lat="47.41271" lon="8.52499">
        <ele>450.7</ele>
        <time>2022-10-02T15:30:44Z</time>
      </trkpt>
      <trkpt lat="47.41269" lon="8.52502">
        <ele>450.7</ele>
        <time>2022-10-02T15:30:45Z</time>
      </trkpt>
      <trkpt lat="47.41266" lon="8.52507">
        <ele>450.8</ele>
        <time>2022-10-02T15:30:46Z</time>
      </trkpt>
      <trkpt lat="47.41264" lon="8.52514">
        <ele>450.9</ele>
        <time>2022-10-02T15:30:47Z</time>
      </trkpt>
      <trkpt lat="47.41261" lon="8.52519">
        <ele>451</ele>
        <time>2022-10-02T15:30:48Z</time>
      </trkpt>
      <trkpt lat="47.41259" lon="8.52525">
        <ele>451.1</ele>
        <time>2022-10-02T15:30:49Z</time>
      </trkpt>
      <trkpt lat="47.41257" lon="8.5253">
        <ele>451.1</ele>
        <time>2022-10-02T15:30:50Z</time>
      </trkpt>
      <trkpt lat="47.41256" lon="8.52535">
        <ele>451.2</ele>
        <time>2022-10-02T15:30:51Z</time>
      </trkpt>
      <trkpt lat="47.41253" lon="8.52538">
        <ele>451.3</ele>
        <time>2022-10-02T15:30:52Z</time>
      </trkpt>
      <trkpt lat="47.41252" lon="8.52543">
        <ele>451.4</ele>
        <time>2022-10-02T15:30:53Z</time>
      </trkpt>
      <trkpt lat="47.41251" lon="8.52547">
        <ele>451.5</ele>
        <time>2022-10-02T15:30:54Z</time>
      </trkpt>
      <trkpt lat="47.41249" lon="8.52552">
        <ele>451.6</ele>
        <time>2022-10-02T15:30:55Z</time>
      </trkpt>
      <trkpt lat="47.41247" lon="8.52556">
        <ele>451.7</ele>
        <time>2022-10-02T15:30:56Z</time>
      </trkpt>
      <trkpt lat="47.41246" lon="8.52559">
        <ele>451.8</ele>
        <time>2022-10-02T15:30:57Z</time>
      </trkpt>
      <trkpt lat="47.41246" lon="8.52563">
        <ele>451.9</ele>
        <time>2022-10-02T15:30:58Z</time>
      </trkpt>
      <trkpt lat="47.41245" lon="8.52567">
        <ele>452</ele>
        <time>2022-10-02T15:30:59Z</time>
      </trkpt>
      <trkpt lat="47.41242" lon="8.52572">
        <ele>452.1</ele>
        <time>2022-10-02T15:31:00Z</time>
      </trkpt>
      <trkpt lat="47.41242" lon="8.52574">
        <ele>452.1</ele>
        <time>2022-10-02T15:31:01Z</time>
      </trkpt>
      <trkpt lat="47.4124" lon="8.52577">
        <ele>452.2</ele>
        <time>2022-10-02T15:31:02Z</time>
      </trkpt>
      <trkpt lat="47.4124" lon="8.52579">
        <ele>452.3</ele>
        <time>2022-10-02T15:31:03Z</time>
      </trkpt>
      <trkpt lat="47.41237" lon="8.52583">
        <ele>452.4</ele>
        <time>2022-10-02T15:31:04Z</time>
      </trkpt>
      <trkpt lat="47.41237" lon="8.52585">
        <ele>452.4</ele>
        <time>2022-10-02T15:31:05Z</time>
      </trkpt>
      <trkpt lat="47.41236" lon="8.52589">
        <ele>452.5</ele>
        <time>2022-10-02T15:31:06Z</time>
      </trkpt>
      <trkpt lat="47.41235" lon="8.5259">
        <ele>452.5</ele>
        <time>2022-10-02T15:31:07Z</time>
      </trkpt>
      <trkpt lat="47.41234" lon="8.52595">
        <ele>452.6</ele>
        <time>2022-10-02T15:31:08Z</time>
      </trkpt>
      <trkpt lat="47.41233" lon="8.52597">
        <ele>452.7</ele>
        <time>2022-10-02T15:31:09Z</time>
      </trkpt>
      <trkpt lat="47.41232" lon="8.52603">
        <ele>452.8</ele>
        <time>2022-10-02T15:31:10Z</time>
      </trkpt>
      <trkpt lat="47.41231" lon="8.52605">
        <ele>452.8</ele>
        <time>2022-10-02T15:31:11Z</time>
      </trkpt>
      <trkpt lat="47.4123" lon="8.5261">
        <ele>452.9</ele>
        <time>2022-10-02T15:31:12Z</time>
      </trkpt>
      <trkpt lat="47.4123" lon="8.52615">
        <ele>452.9</ele>
        <time>2022-10-02T15:31:13Z</time>
      </trkpt>
      <trkpt lat="47.4123" lon="8.52616">
        <ele>453</ele>
        <time>2022-10-02T15:31:14Z</time>
      </trkpt>
      <trkpt lat="47.41227" lon="8.52621">
        <ele>453</ele>
        <time>2022-10-02T15:31:15Z</time>
      </trkpt>
      <trkpt lat="47.41226" lon="8.52623">
        <ele>453</ele>
        <time>2022-10-02T15:31:16Z</time>
      </trkpt>
      <trkpt lat="47.41225" lon="8.52627">
        <ele>453</ele>
        <time>2022-10-02T15:31:17Z</time>
      </trkpt>
      <trkpt lat="47.41224" lon="8.52633">
        <ele>453</ele>
        <time>2022-10-02T15:31:18Z</time>
      </trkpt>
      <trkpt lat="47.41222" lon="8.52638">
        <ele>453</ele>
        <time>2022-10-02T15:31:19Z</time>
      </trkpt>
      <trkpt lat="47.41221" lon="8.52643">
        <ele>453</ele>
        <time>2022-10-02T15:31:20Z</time>
      </trkpt>
      <trkpt lat="47.41219" lon="8.52646">
        <ele>453</ele>
        <time>2022-10-02T15:31:21Z</time>
      </trkpt>
      <trkpt lat="47.41218" lon="8.5265">
        <ele>453</ele>
        <time>2022-10-02T15:31:22Z</time>
      </trkpt>
      <trkpt lat="47.41216" lon="8.52653">
        <ele>453</ele>
        <time>2022-10-02T15:31:23Z</time>
      </trkpt>
      <trkpt lat="47.41216" lon="8.52658">
        <ele>453</ele>
        <time>2022-10-02T15:31:25Z</time>
      </trkpt>
      <trkpt lat="47.41215" lon="8.52667">
        <ele>453</ele>
        <time>2022-10-02T15:31:26Z</time>
      </trkpt>
      <trkpt lat="47.41214" lon="8.52672">
        <ele>453</ele>
        <time>2022-10-02T15:31:27Z</time>
      </trkpt>
      <trkpt lat="47.41213" lon="8.5268">
        <ele>453</ele>
        <time>2022-10-02T15:31:28Z</time>
      </trkpt>
      <trkpt lat="47.41212" lon="8.52685">
        <ele>453</ele>
        <time>2022-10-02T15:31:29Z</time>
      </trkpt>
      <trkpt lat="47.4121" lon="8.52694">
        <ele>453</ele>
        <time>2022-10-02T15:31:31Z</time>
      </trkpt>
      <trkpt lat="47.41209" lon="8.52699">
        <ele>453</ele>
        <time>2022-10-02T15:31:32Z</time>
      </trkpt>
      <trkpt lat="47.41208" lon="8.52707">
        <ele>453</ele>
        <time>2022-10-02T15:31:33Z</time>
      </trkpt>
      <trkpt lat="47.41207" lon="8.52715">
        <ele>453</ele>
        <time>2022-10-02T15:31:35Z</time>
      </trkpt>
      <trkpt lat="47.41207" lon="8.5272">
        <ele>453</ele>
        <time>2022-10-02T15:31:36Z</time>
      </trkpt>
      <trkpt lat="47.41207" lon="8.52725">
        <ele>452.9</ele>
        <time>2022-10-02T15:31:37Z</time>
      </trkpt>
      <trkpt lat="47.41204" lon="8.5274">
        <ele>452.9</ele>
        <time>2022-10-02T15:31:38Z</time>
      </trkpt>
      <trkpt lat="47.41204" lon="8.52747">
        <ele>452.9</ele>
        <time>2022-10-02T15:31:39Z</time>
      </trkpt>
      <trkpt lat="47.41202" lon="8.52753">
        <ele>452.9</ele>
        <time>2022-10-02T15:31:40Z</time>
      </trkpt>
      <trkpt lat="47.41202" lon="8.52759">
        <ele>452.9</ele>
        <time>2022-10-02T15:31:41Z</time>
      </trkpt>
      <trkpt lat="47.41202" lon="8.52764">
        <ele>452.9</ele>
        <time>2022-10-02T15:31:42Z</time>
      </trkpt>
      <trkpt lat="47.41202" lon="8.52771">
        <ele>453</ele>
        <time>2022-10-02T15:31:43Z</time>
      </trkpt>
      <trkpt lat="47.41202" lon="8.52773">
        <ele>453</ele>
        <time>2022-10-02T15:31:44Z</time>
      </trkpt>
      <trkpt lat="47.41201" lon="8.52776">
        <ele>453</ele>
        <time>2022-10-02T15:31:45Z</time>
      </trkpt>
      <trkpt lat="47.41201" lon="8.5278">
        <ele>453</ele>
        <time>2022-10-02T15:31:46Z</time>
      </trkpt>
      <trkpt lat="47.41201" lon="8.52787">
        <ele>453</ele>
        <time>2022-10-02T15:31:47Z</time>
      </trkpt>
      <trkpt lat="47.412" lon="8.52794">
        <ele>453.1</ele>
        <time>2022-10-02T15:31:48Z</time>
      </trkpt>
      <trkpt lat="47.412" lon="8.52798">
        <ele>453.1</ele>
        <time>2022-10-02T15:31:49Z</time>
      </trkpt>
      <trkpt lat="47.41201" lon="8.52803">
        <ele>453.1</ele>
        <time>2022-10-02T15:31:50Z</time>
      </trkpt>
      <trkpt lat="47.41201" lon="8.52807">
        <ele>453.1</ele>
        <time>2022-10-02T15:31:51Z</time>
      </trkpt>
      <trkpt lat="47.41199" lon="8.52814">
        <ele>453.1</ele>
        <time>2022-10-02T15:31:52Z</time>
      </trkpt>
      <trkpt lat="47.41198" lon="8.5282">
        <ele>453.1</ele>
        <time>2022-10-02T15:31:53Z</time>
      </trkpt>
      <trkpt lat="47.41199" lon="8.52825">
        <ele>453.1</ele>
        <time>2022-10-02T15:31:54Z</time>
      </trkpt>
      <trkpt lat="47.412" lon="8.52828">
        <ele>453.1</ele>
        <time>2022-10-02T15:31:55Z</time>
      </trkpt>
      <trkpt lat="47.41198" lon="8.52835">
        <ele>453.2</ele>
        <time>2022-10-02T15:31:56Z</time>
      </trkpt>
      <trkpt lat="47.41197" lon="8.52842">
        <ele>453.2</ele>
        <time>2022-10-02T15:31:57Z</time>
      </trkpt>
      <trkpt lat="47.41198" lon="8.52849">
        <ele>453.2</ele>
        <time>2022-10-02T15:31:58Z</time>
      </trkpt>
      <trkpt lat="47.41198" lon="8.52856">
        <ele>453.2</ele>
        <time>2022-10-02T15:31:59Z</time>
      </trkpt>
      <trkpt lat="47.41198" lon="8.52861">
        <ele>453.3</ele>
        <time>2022-10-02T15:32:00Z</time>
      </trkpt>
      <trkpt lat="47.41197" lon="8.52868">
        <ele>453.3</ele>
        <time>2022-10-02T15:32:01Z</time>
      </trkpt>
      <trkpt lat="47.41195" lon="8.52875">
        <ele>453.3</ele>
        <time>2022-10-02T15:32:02Z</time>
      </trkpt>
      <trkpt lat="47.41196" lon="8.52883">
        <ele>453.3</ele>
        <time>2022-10-02T15:32:03Z</time>
      </trkpt>
      <trkpt lat="47.41195" lon="8.52889">
        <ele>453.3</ele>
        <time>2022-10-02T15:32:04Z</time>
      </trkpt>
      <trkpt lat="47.41194" lon="8.52896">
        <ele>453.3</ele>
        <time>2022-10-02T15:32:05Z</time>
      </trkpt>
      <trkpt lat="47.41193" lon="8.52904">
        <ele>453.4</ele>
        <time>2022-10-02T15:32:06Z</time>
      </trkpt>
      <trkpt lat="47.41191" lon="8.52911">
        <ele>453.4</ele>
        <time>2022-10-02T15:32:07Z</time>
      </trkpt>
      <trkpt lat="47.4119" lon="8.5292">
        <ele>453.4</ele>
        <time>2022-10-02T15:32:08Z</time>
      </trkpt>
      <trkpt lat="47.4119" lon="8.52925">
        <ele>453.4</ele>
        <time>2022-10-02T15:32:09Z</time>
      </trkpt>
      <trkpt lat="47.41188" lon="8.52929">
        <ele>453.4</ele>
        <time>2022-10-02T15:32:10Z</time>
      </trkpt>
      <trkpt lat="47.41188" lon="8.52935">
        <ele>453.4</ele>
        <time>2022-10-02T15:32:11Z</time>
      </trkpt>
      <trkpt lat="47.41187" lon="8.52941">
        <ele>453.4</ele>
        <time>2022-10-02T15:32:12Z</time>
      </trkpt>
      <trkpt lat="47.41187" lon="8.52946">
        <ele>453.4</ele>
        <time>2022-10-02T15:32:13Z</time>
      </trkpt>
      <trkpt lat="47.41184" lon="8.5295">
        <ele>453.5</ele>
        <time>2022-10-02T15:32:14Z</time>
      </trkpt>
      <trkpt lat="47.41184" lon="8.52957">
        <ele>453.5</ele>
        <time>2022-10-02T15:32:15Z</time>
      </trkpt>
      <trkpt lat="47.41183" lon="8.52963">
        <ele>453.5</ele>
        <time>2022-10-02T15:32:16Z</time>
      </trkpt>
      <trkpt lat="47.41183" lon="8.5297">
        <ele>453.5</ele>
        <time>2022-10-02T15:32:17Z</time>
      </trkpt>
      <trkpt lat="47.41182" lon="8.52975">
        <ele>453.5</ele>
        <time>2022-10-02T15:32:18Z</time>
      </trkpt>
      <trkpt lat="47.4118" lon="8.52982">
        <ele>453.5</ele>
        <time>2022-10-02T15:32:19Z</time>
      </trkpt>
      <trkpt lat="47.41178" lon="8.52987">
        <ele>453.6</ele>
        <time>2022-10-02T15:32:20Z</time>
      </trkpt>
      <trkpt lat="47.41177" lon="8.52993">
        <ele>453.6</ele>
        <time>2022-10-02T15:32:21Z</time>
      </trkpt>
      <trkpt lat="47.41175" lon="8.52999">
        <ele>453.6</ele>
        <time>2022-10-02T15:32:22Z</time>
      </trkpt>
      <trkpt lat="47.41173" lon="8.53005">
        <ele>453.6</ele>
        <time>2022-10-02T15:32:23Z</time>
      </trkpt>
      <trkpt lat="47.41171" lon="8.53012">
        <ele>453.6</ele>
        <time>2022-10-02T15:32:24Z</time>
      </trkpt>
      <trkpt lat="47.41171" lon="8.53017">
        <ele>453.6</ele>
        <time>2022-10-02T15:32:25Z</time>
      </trkpt>
      <trkpt lat="47.41169" lon="8.53025">
        <ele>453.6</ele>
        <time>2022-10-02T15:32:26Z</time>
      </trkpt>
      <trkpt lat="47.41167" lon="8.53031">
        <ele>453.6</ele>
        <time>2022-10-02T15:32:27Z</time>
      </trkpt>
      <trkpt lat="47.41166" lon="8.53035">
        <ele>453.6</ele>
        <time>2022-10-02T15:32:28Z</time>
      </trkpt>
      <trkpt lat="47.41164" lon="8.53041">
        <ele>453.6</ele>
        <time>2022-10-02T15:32:29Z</time>
      </trkpt>
      <trkpt lat="47.41162" lon="8.53048">
        <ele>453.7</ele>
        <time>2022-10-02T15:32:30Z</time>
      </trkpt>
      <trkpt lat="47.4116" lon="8.53056">
        <ele>453.7</ele>
        <time>2022-10-02T15:32:31Z</time>
      </trkpt>
      <trkpt lat="47.41159" lon="8.53063">
        <ele>453.7</ele>
        <time>2022-10-02T15:32:32Z</time>
      </trkpt>
      <trkpt lat="47.41156" lon="8.5307">
        <ele>453.7</ele>
        <time>2022-10-02T15:32:33Z</time>
      </trkpt>
      <trkpt lat="47.41154" lon="8.53076">
        <ele>453.7</ele>
        <time>2022-10-02T15:32:34Z</time>
      </trkpt>
      <trkpt lat="47.41152" lon="8.53082">
        <ele>453.7</ele>
        <time>2022-10-02T15:32:35Z</time>
      </trkpt>
      <trkpt lat="47.41151" lon="8.53089">
        <ele>453.7</ele>
        <time>2022-10-02T15:32:36Z</time>
      </trkpt>
      <trkpt lat="47.41149" lon="8.53096">
        <ele>453.7</ele>
        <time>2022-10-02T15:32:37Z</time>
      </trkpt>
      <trkpt lat="47.41147" lon="8.53103">
        <ele>453.7</ele>
        <time>2022-10-02T15:32:38Z</time>
      </trkpt>
      <trkpt lat="47.41145" lon="8.53109">
        <ele>453.7</ele>
        <time>2022-10-02T15:32:39Z</time>
      </trkpt>
      <trkpt lat="47.41144" lon="8.53113">
        <ele>453.7</ele>
        <time>2022-10-02T15:32:40Z</time>
      </trkpt>
      <trkpt lat="47.41142" lon="8.5312">
        <ele>453.7</ele>
        <time>2022-10-02T15:32:41Z</time>
      </trkpt>
      <trkpt lat="47.4114" lon="8.53128">
        <ele>453.7</ele>
        <time>2022-10-02T15:32:42Z</time>
      </trkpt>
      <trkpt lat="47.41138" lon="8.53135">
        <ele>453.6</ele>
        <time>2022-10-02T15:32:43Z</time>
      </trkpt>
      <trkpt lat="47.41137" lon="8.53142">
        <ele>453.6</ele>
        <time>2022-10-02T15:32:44Z</time>
      </trkpt>
      <trkpt lat="47.41134" lon="8.53148">
        <ele>453.6</ele>
        <time>2022-10-02T15:32:45Z</time>
      </trkpt>
      <trkpt lat="47.41133" lon="8.53154">
        <ele>453.6</ele>
        <time>2022-10-02T15:32:46Z</time>
      </trkpt>
      <trkpt lat="47.41133" lon="8.53161">
        <ele>453.6</ele>
        <time>2022-10-02T15:32:47Z</time>
      </trkpt>
      <trkpt lat="47.41131" lon="8.53167">
        <ele>453.7</ele>
        <time>2022-10-02T15:32:48Z</time>
      </trkpt>
      <trkpt lat="47.41128" lon="8.53173">
        <ele>453.7</ele>
        <time>2022-10-02T15:32:49Z</time>
      </trkpt>
      <trkpt lat="47.41127" lon="8.53178">
        <ele>453.7</ele>
        <time>2022-10-02T15:32:50Z</time>
      </trkpt>
      <trkpt lat="47.41125" lon="8.53185">
        <ele>453.7</ele>
        <time>2022-10-02T15:32:51Z</time>
      </trkpt>
      <trkpt lat="47.41124" lon="8.53191">
        <ele>453.7</ele>
        <time>2022-10-02T15:32:52Z</time>
      </trkpt>
      <trkpt lat="47.41122" lon="8.53198">
        <ele>453.7</ele>
        <time>2022-10-02T15:32:53Z</time>
      </trkpt>
      <trkpt lat="47.4112" lon="8.53205">
        <ele>453.7</ele>
        <time>2022-10-02T15:32:54Z</time>
      </trkpt>
      <trkpt lat="47.41118" lon="8.53212">
        <ele>453.7</ele>
        <time>2022-10-02T15:32:55Z</time>
      </trkpt>
      <trkpt lat="47.41116" lon="8.53219">
        <ele>453.8</ele>
        <time>2022-10-02T15:32:56Z</time>
      </trkpt>
      <trkpt lat="47.41115" lon="8.53225">
        <ele>453.8</ele>
        <time>2022-10-02T15:32:57Z</time>
      </trkpt>
      <trkpt lat="47.41114" lon="8.53233">
        <ele>453.8</ele>
        <time>2022-10-02T15:32:58Z</time>
      </trkpt>
      <trkpt lat="47.41113" lon="8.5324">
        <ele>453.8</ele>
        <time>2022-10-02T15:32:59Z</time>
      </trkpt>
      <trkpt lat="47.41112" lon="8.53246">
        <ele>453.8</ele>
        <time>2022-10-02T15:33:00Z</time>
      </trkpt>
      <trkpt lat="47.41111" lon="8.53253">
        <ele>453.8</ele>
        <time>2022-10-02T15:33:01Z</time>
      </trkpt>
      <trkpt lat="47.41111" lon="8.53259">
        <ele>453.8</ele>
        <time>2022-10-02T15:33:02Z</time>
      </trkpt>
      <trkpt lat="47.4111" lon="8.53263">
        <ele>453.8</ele>
        <time>2022-10-02T15:33:03Z</time>
      </trkpt>
      <trkpt lat="47.41109" lon="8.53269">
        <ele>453.8</ele>
        <time>2022-10-02T15:33:04Z</time>
      </trkpt>
      <trkpt lat="47.41108" lon="8.53275">
        <ele>453.8</ele>
        <time>2022-10-02T15:33:05Z</time>
      </trkpt>
      <trkpt lat="47.41108" lon="8.53282">
        <ele>453.8</ele>
        <time>2022-10-02T15:33:06Z</time>
      </trkpt>
      <trkpt lat="47.41107" lon="8.53289">
        <ele>453.8</ele>
        <time>2022-10-02T15:33:07Z</time>
      </trkpt>
      <trkpt lat="47.41107" lon="8.53293">
        <ele>453.8</ele>
        <time>2022-10-02T15:33:08Z</time>
      </trkpt>
      <trkpt lat="47.41106" lon="8.533">
        <ele>453.8</ele>
        <time>2022-10-02T15:33:09Z</time>
      </trkpt>
      <trkpt lat="47.41105" lon="8.53305">
        <ele>453.8</ele>
        <time>2022-10-02T15:33:10Z</time>
      </trkpt>
      <trkpt lat="47.41105" lon="8.5331">
        <ele>453.8</ele>
        <time>2022-10-02T15:33:11Z</time>
      </trkpt>
      <trkpt lat="47.41104" lon="8.53316">
        <ele>453.8</ele>
        <time>2022-10-02T15:33:12Z</time>
      </trkpt>
      <trkpt lat="47.41102" lon="8.53322">
        <ele>453.8</ele>
        <time>2022-10-02T15:33:13Z</time>
      </trkpt>
      <trkpt lat="47.411" lon="8.53326">
        <ele>453.8</ele>
        <time>2022-10-02T15:33:14Z</time>
      </trkpt>
      <trkpt lat="47.41099" lon="8.53333">
        <ele>453.8</ele>
        <time>2022-10-02T15:33:15Z</time>
      </trkpt>
      <trkpt lat="47.41097" lon="8.53341">
        <ele>453.8</ele>
        <time>2022-10-02T15:33:16Z</time>
      </trkpt>
      <trkpt lat="47.41095" lon="8.53348">
        <ele>453.8</ele>
        <time>2022-10-02T15:33:17Z</time>
      </trkpt>
      <trkpt lat="47.41094" lon="8.53354">
        <ele>453.8</ele>
        <time>2022-10-02T15:33:18Z</time>
      </trkpt>
      <trkpt lat="47.41093" lon="8.5336">
        <ele>453.8</ele>
        <time>2022-10-02T15:33:19Z</time>
      </trkpt>
      <trkpt lat="47.41091" lon="8.53367">
        <ele>453.7</ele>
        <time>2022-10-02T15:33:20Z</time>
      </trkpt>
      <trkpt lat="47.41089" lon="8.53374">
        <ele>453.7</ele>
        <time>2022-10-02T15:33:21Z</time>
      </trkpt>
      <trkpt lat="47.41087" lon="8.53381">
        <ele>453.6</ele>
        <time>2022-10-02T15:33:22Z</time>
      </trkpt>
      <trkpt lat="47.41087" lon="8.53386">
        <ele>453.6</ele>
        <time>2022-10-02T15:33:23Z</time>
      </trkpt>
      <trkpt lat="47.41085" lon="8.53392">
        <ele>453.5</ele>
        <time>2022-10-02T15:33:25Z</time>
      </trkpt>
      <trkpt lat="47.41085" lon="8.53398">
        <ele>453.5</ele>
        <time>2022-10-02T15:33:26Z</time>
      </trkpt>
      <trkpt lat="47.41083" lon="8.53404">
        <ele>453.4</ele>
        <time>2022-10-02T15:33:27Z</time>
      </trkpt>
      <trkpt lat="47.41082" lon="8.53409">
        <ele>453.4</ele>
        <time>2022-10-02T15:33:28Z</time>
      </trkpt>
      <trkpt lat="47.4108" lon="8.53415">
        <ele>453.3</ele>
        <time>2022-10-02T15:33:29Z</time>
      </trkpt>
      <trkpt lat="47.41079" lon="8.53421">
        <ele>453.3</ele>
        <time>2022-10-02T15:33:30Z</time>
      </trkpt>
      <trkpt lat="47.41077" lon="8.53427">
        <ele>453.2</ele>
        <time>2022-10-02T15:33:31Z</time>
      </trkpt>
      <trkpt lat="47.41076" lon="8.53435">
        <ele>453.1</ele>
        <time>2022-10-02T15:33:32Z</time>
      </trkpt>
      <trkpt lat="47.41075" lon="8.53438">
        <ele>453.1</ele>
        <time>2022-10-02T15:33:33Z</time>
      </trkpt>
      <trkpt lat="47.41074" lon="8.53444">
        <ele>453.1</ele>
        <time>2022-10-02T15:33:34Z</time>
      </trkpt>
      <trkpt lat="47.41072" lon="8.53452">
        <ele>453</ele>
        <time>2022-10-02T15:33:35Z</time>
      </trkpt>
      <trkpt lat="47.41071" lon="8.53457">
        <ele>453</ele>
        <time>2022-10-02T15:33:36Z</time>
      </trkpt>
      <trkpt lat="47.41069" lon="8.53464">
        <ele>452.9</ele>
        <time>2022-10-02T15:33:37Z</time>
      </trkpt>
      <trkpt lat="47.41068" lon="8.5347">
        <ele>452.9</ele>
        <time>2022-10-02T15:33:38Z</time>
      </trkpt>
      <trkpt lat="47.41067" lon="8.53478">
        <ele>452.8</ele>
        <time>2022-10-02T15:33:39Z</time>
      </trkpt>
      <trkpt lat="47.41065" lon="8.53484">
        <ele>452.8</ele>
        <time>2022-10-02T15:33:40Z</time>
      </trkpt>
      <trkpt lat="47.41065" lon="8.53491">
        <ele>452.7</ele>
        <time>2022-10-02T15:33:41Z</time>
      </trkpt>
      <trkpt lat="47.41063" lon="8.53497">
        <ele>452.6</ele>
        <time>2022-10-02T15:33:42Z</time>
      </trkpt>
      <trkpt lat="47.41063" lon="8.535">
        <ele>452.6</ele>
        <time>2022-10-02T15:33:43Z</time>
      </trkpt>
      <trkpt lat="47.41061" lon="8.53507">
        <ele>452.5</ele>
        <time>2022-10-02T15:33:44Z</time>
      </trkpt>
      <trkpt lat="47.41059" lon="8.53514">
        <ele>452.5</ele>
        <time>2022-10-02T15:33:45Z</time>
      </trkpt>
      <trkpt lat="47.41057" lon="8.53519">
        <ele>452.5</ele>
        <time>2022-10-02T15:33:46Z</time>
      </trkpt>
      <trkpt lat="47.41057" lon="8.53527">
        <ele>452.5</ele>
        <time>2022-10-02T15:33:47Z</time>
      </trkpt>
      <trkpt lat="47.41056" lon="8.5354">
        <ele>452.4</ele>
        <time>2022-10-02T15:33:48Z</time>
      </trkpt>
      <trkpt lat="47.41055" lon="8.53545">
        <ele>452.4</ele>
        <time>2022-10-02T15:33:49Z</time>
      </trkpt>
      <trkpt lat="47.41053" lon="8.53547">
        <ele>452.4</ele>
        <time>2022-10-02T15:33:50Z</time>
      </trkpt>
      <trkpt lat="47.41052" lon="8.5355">
        <ele>452.4</ele>
        <time>2022-10-02T15:33:51Z</time>
      </trkpt>
      <trkpt lat="47.41052" lon="8.53554">
        <ele>452.4</ele>
        <time>2022-10-02T15:33:52Z</time>
      </trkpt>
      <trkpt lat="47.41052" lon="8.53561">
        <ele>452.3</ele>
        <time>2022-10-02T15:33:53Z</time>
      </trkpt>
      <trkpt lat="47.41052" lon="8.53581">
        <ele>452.3</ele>
        <time>2022-10-02T15:33:54Z</time>
      </trkpt>
      <trkpt lat="47.41051" lon="8.53589">
        <ele>452.3</ele>
        <time>2022-10-02T15:33:55Z</time>
      </trkpt>
      <trkpt lat="47.41049" lon="8.53597">
        <ele>452.2</ele>
        <time>2022-10-02T15:33:56Z</time>
      </trkpt>
      <trkpt lat="47.41048" lon="8.53605">
        <ele>452.2</ele>
        <time>2022-10-02T15:33:57Z</time>
      </trkpt>
      <trkpt lat="47.41048" lon="8.53611">
        <ele>452.2</ele>
        <time>2022-10-02T15:33:58Z</time>
      </trkpt>
      <trkpt lat="47.41048" lon="8.53617">
        <ele>452.1</ele>
        <time>2022-10-02T15:33:59Z</time>
      </trkpt>
      <trkpt lat="47.41047" lon="8.53624">
        <ele>452.1</ele>
        <time>2022-10-02T15:34:00Z</time>
      </trkpt>
      <trkpt lat="47.41046" lon="8.53631">
        <ele>452.1</ele>
        <time>2022-10-02T15:34:01Z</time>
      </trkpt>
      <trkpt lat="47.41046" lon="8.53636">
        <ele>452.1</ele>
        <time>2022-10-02T15:34:02Z</time>
      </trkpt>
      <trkpt lat="47.41046" lon="8.53643">
        <ele>452</ele>
        <time>2022-10-02T15:34:03Z</time>
      </trkpt>
      <trkpt lat="47.41045" lon="8.5365">
        <ele>452</ele>
        <time>2022-10-02T15:34:04Z</time>
      </trkpt>
      <trkpt lat="47.41044" lon="8.53657">
        <ele>452</ele>
        <time>2022-10-02T15:34:05Z</time>
      </trkpt>
      <trkpt lat="47.41043" lon="8.53664">
        <ele>451.9</ele>
        <time>2022-10-02T15:34:06Z</time>
      </trkpt>
      <trkpt lat="47.41043" lon="8.53671">
        <ele>451.9</ele>
        <time>2022-10-02T15:34:07Z</time>
      </trkpt>
      <trkpt lat="47.41042" lon="8.53676">
        <ele>451.8</ele>
        <time>2022-10-02T15:34:08Z</time>
      </trkpt>
      <trkpt lat="47.41042" lon="8.53682">
        <ele>451.8</ele>
        <time>2022-10-02T15:34:09Z</time>
      </trkpt>
      <trkpt lat="47.41041" lon="8.53685">
        <ele>451.8</ele>
        <time>2022-10-02T15:34:10Z</time>
      </trkpt>
      <trkpt lat="47.4104" lon="8.53691">
        <ele>451.7</ele>
        <time>2022-10-02T15:34:11Z</time>
      </trkpt>
      <trkpt lat="47.4104" lon="8.53697">
        <ele>451.7</ele>
        <time>2022-10-02T15:34:12Z</time>
      </trkpt>
      <trkpt lat="47.41039" lon="8.53703">
        <ele>451.6</ele>
        <time>2022-10-02T15:34:13Z</time>
      </trkpt>
      <trkpt lat="47.41039" lon="8.53708">
        <ele>451.6</ele>
        <time>2022-10-02T15:34:14Z</time>
      </trkpt>
      <trkpt lat="47.41039" lon="8.53713">
        <ele>451.5</ele>
        <time>2022-10-02T15:34:15Z</time>
      </trkpt>
      <trkpt lat="47.41039" lon="8.53717">
        <ele>451.4</ele>
        <time>2022-10-02T15:34:16Z</time>
      </trkpt>
      <trkpt lat="47.41038" lon="8.53723">
        <ele>451.4</ele>
        <time>2022-10-02T15:34:17Z</time>
      </trkpt>
      <trkpt lat="47.41037" lon="8.53729">
        <ele>451.3</ele>
        <time>2022-10-02T15:34:18Z</time>
      </trkpt>
      <trkpt lat="47.41037" lon="8.53733">
        <ele>451.2</ele>
        <time>2022-10-02T15:34:19Z</time>
      </trkpt>
      <trkpt lat="47.41037" lon="8.53738">
        <ele>451.1</ele>
        <time>2022-10-02T15:34:20Z</time>
      </trkpt>
      <trkpt lat="47.41038" lon="8.5374">
        <ele>451.1</ele>
        <time>2022-10-02T15:34:21Z</time>
      </trkpt>
      <trkpt lat="47.41038" lon="8.53745">
        <ele>451</ele>
        <time>2022-10-02T15:34:22Z</time>
      </trkpt>
      <trkpt lat="47.41038" lon="8.5375">
        <ele>450.9</ele>
        <time>2022-10-02T15:34:23Z</time>
      </trkpt>
      <trkpt lat="47.41036" lon="8.53754">
        <ele>450.8</ele>
        <time>2022-10-02T15:34:24Z</time>
      </trkpt>
      <trkpt lat="47.41036" lon="8.53759">
        <ele>450.7</ele>
        <time>2022-10-02T15:34:25Z</time>
      </trkpt>
      <trkpt lat="47.41036" lon="8.53761">
        <ele>450.7</ele>
        <time>2022-10-02T15:34:26Z</time>
      </trkpt>
      <trkpt lat="47.41037" lon="8.53763">
        <ele>450.6</ele>
        <time>2022-10-02T15:34:27Z</time>
      </trkpt>
      <trkpt lat="47.41037" lon="8.53767">
        <ele>450.4</ele>
        <time>2022-10-02T15:34:28Z</time>
      </trkpt>
      <trkpt lat="47.41038" lon="8.5377">
        <ele>450.3</ele>
        <time>2022-10-02T15:34:29Z</time>
      </trkpt>
      <trkpt lat="47.41038" lon="8.53771">
        <ele>450.3</ele>
        <time>2022-10-02T15:34:30Z</time>
      </trkpt>
      <trkpt lat="47.41038" lon="8.53773">
        <ele>450.2</ele>
        <time>2022-10-02T15:34:31Z</time>
      </trkpt>
      <trkpt lat="47.41038" lon="8.53775">
        <ele>450.2</ele>
        <time>2022-10-02T15:34:32Z</time>
      </trkpt>
      <trkpt lat="47.41039" lon="8.53777">
        <ele>450.1</ele>
        <time>2022-10-02T15:34:33Z</time>
      </trkpt>
      <trkpt lat="47.41039" lon="8.53779">
        <ele>450</ele>
        <time>2022-10-02T15:34:34Z</time>
      </trkpt>
      <trkpt lat="47.41038" lon="8.53781">
        <ele>449.9</ele>
        <time>2022-10-02T15:34:35Z</time>
      </trkpt>
      <trkpt lat="47.41037" lon="8.53783">
        <ele>449.8</ele>
        <time>2022-10-02T15:34:36Z</time>
      </trkpt>
      <trkpt lat="47.41037" lon="8.53785">
        <ele>449.8</ele>
        <time>2022-10-02T15:34:37Z</time>
      </trkpt>
      <trkpt lat="47.41038" lon="8.53787">
        <ele>449.7</ele>
        <time>2022-10-02T15:34:38Z</time>
      </trkpt>
      <trkpt lat="47.41038" lon="8.53789">
        <ele>449.6</ele>
        <time>2022-10-02T15:34:39Z</time>
      </trkpt>
      <trkpt lat="47.41038" lon="8.53792">
        <ele>449.5</ele>
        <time>2022-10-02T15:34:40Z</time>
      </trkpt>
      <trkpt lat="47.41038" lon="8.53797">
        <ele>449.4</ele>
        <time>2022-10-02T15:34:41Z</time>
      </trkpt>
      <trkpt lat="47.4104" lon="8.53799">
        <ele>449.4</ele>
        <time>2022-10-02T15:34:42Z</time>
      </trkpt>
      <trkpt lat="47.41041" lon="8.538">
        <ele>449.3</ele>
        <time>2022-10-02T15:34:43Z</time>
      </trkpt>
      <trkpt lat="47.41042" lon="8.53801">
        <ele>449.3</ele>
        <time>2022-10-02T15:34:44Z</time>
      </trkpt>
      <trkpt lat="47.41044" lon="8.53804">
        <ele>449.3</ele>
        <time>2022-10-02T15:34:45Z</time>
      </trkpt>
      <trkpt lat="47.41045" lon="8.53805">
        <ele>449.3</ele>
        <time>2022-10-02T15:34:46Z</time>
      </trkpt>
      <trkpt lat="47.41046" lon="8.53806">
        <ele>449.3</ele>
        <time>2022-10-02T15:34:47Z</time>
      </trkpt>
      <trkpt lat="47.41045" lon="8.53807">
        <ele>449.3</ele>
        <time>2022-10-02T15:34:48Z</time>
      </trkpt>
      <trkpt lat="47.41045" lon="8.53808">
        <ele>449.3</ele>
        <time>2022-10-02T15:34:49Z</time>
      </trkpt>
      <trkpt lat="47.41044" lon="8.53809">
        <ele>449.3</ele>
        <time>2022-10-02T15:34:50Z</time>
      </trkpt>
      <trkpt lat="47.41043" lon="8.5381">
        <ele>449.3</ele>
        <time>2022-10-02T15:34:51Z</time>
      </trkpt>
      <trkpt lat="47.41043" lon="8.53811">
        <ele>449.3</ele>
        <time>2022-10-02T15:34:52Z</time>
      </trkpt>
      <trkpt lat="47.41042" lon="8.53812">
        <ele>449.3</ele>
        <time>2022-10-02T15:34:53Z</time>
      </trkpt>
      <trkpt lat="47.41042" lon="8.53819">
        <ele>449.3</ele>
        <time>2022-10-02T15:34:54Z</time>
      </trkpt>
      <trkpt lat="47.41043" lon="8.53835">
        <ele>448.9</ele>
        <time>2022-10-02T15:34:55Z</time>
      </trkpt>
      <trkpt lat="47.41042" lon="8.53851">
        <ele>448.3</ele>
        <time>2022-10-02T15:34:56Z</time>
      </trkpt>
      <trkpt lat="47.41042" lon="8.53866">
        <ele>447.7</ele>
        <time>2022-10-02T15:34:57Z</time>
      </trkpt>
      <trkpt lat="47.41041" lon="8.53877">
        <ele>447.2</ele>
        <time>2022-10-02T15:34:58Z</time>
      </trkpt>
      <trkpt lat="47.41041" lon="8.53888">
        <ele>446.8</ele>
        <time>2022-10-02T15:34:59Z</time>
      </trkpt>
      <trkpt lat="47.41042" lon="8.53897">
        <ele>446.4</ele>
        <time>2022-10-02T15:35:00Z</time>
      </trkpt>
      <trkpt lat="47.41043" lon="8.53903">
        <ele>446.1</ele>
        <time>2022-10-02T15:35:01Z</time>
      </trkpt>
      <trkpt lat="47.41042" lon="8.5391">
        <ele>445.8</ele>
        <time>2022-10-02T15:35:02Z</time>
      </trkpt>
      <trkpt lat="47.41042" lon="8.53919">
        <ele>445.5</ele>
        <time>2022-10-02T15:35:03Z</time>
      </trkpt>
      <trkpt lat="47.41042" lon="8.53928">
        <ele>445.1</ele>
        <time>2022-10-02T15:35:04Z</time>
      </trkpt>
      <trkpt lat="47.41045" lon="8.53942">
        <ele>444.7</ele>
        <time>2022-10-02T15:35:05Z</time>
      </trkpt>
      <trkpt lat="47.41048" lon="8.53952">
        <ele>444.5</ele>
        <time>2022-10-02T15:35:06Z</time>
      </trkpt>
      <trkpt lat="47.41051" lon="8.53961">
        <ele>444.1</ele>
        <time>2022-10-02T15:35:07Z</time>
      </trkpt>
      <trkpt lat="47.41054" lon="8.53969">
        <ele>444</ele>
        <time>2022-10-02T15:35:08Z</time>
      </trkpt>
      <trkpt lat="47.41055" lon="8.53976">
        <ele>443.9</ele>
        <time>2022-10-02T15:35:09Z</time>
      </trkpt>
      <trkpt lat="47.41056" lon="8.53984">
        <ele>443.8</ele>
        <time>2022-10-02T15:35:10Z</time>
      </trkpt>
      <trkpt lat="47.41058" lon="8.53994">
        <ele>443.7</ele>
        <time>2022-10-02T15:35:11Z</time>
      </trkpt>
      <trkpt lat="47.41059" lon="8.54004">
        <ele>443.7</ele>
        <time>2022-10-02T15:35:12Z</time>
      </trkpt>
      <trkpt lat="47.41063" lon="8.54016">
        <ele>443.6</ele>
        <time>2022-10-02T15:35:13Z</time>
      </trkpt>
      <trkpt lat="47.41066" lon="8.54026">
        <ele>443.6</ele>
        <time>2022-10-02T15:35:14Z</time>
      </trkpt>
      <trkpt lat="47.41068" lon="8.54035">
        <ele>443.6</ele>
        <time>2022-10-02T15:35:15Z</time>
      </trkpt>
      <trkpt lat="47.4107" lon="8.54045">
        <ele>443.5</ele>
        <time>2022-10-02T15:35:16Z</time>
      </trkpt>
      <trkpt lat="47.41074" lon="8.54052">
        <ele>443.5</ele>
        <time>2022-10-02T15:35:17Z</time>
      </trkpt>
      <trkpt lat="47.41077" lon="8.54063">
        <ele>443.5</ele>
        <time>2022-10-02T15:35:18Z</time>
      </trkpt>
      <trkpt lat="47.41081" lon="8.5407">
        <ele>443.5</ele>
        <time>2022-10-02T15:35:19Z</time>
      </trkpt>
      <trkpt lat="47.41084" lon="8.54075">
        <ele>443.5</ele>
        <time>2022-10-02T15:35:20Z</time>
      </trkpt>
      <trkpt lat="47.41088" lon="8.54084">
        <ele>443.5</ele>
        <time>2022-10-02T15:35:21Z</time>
      </trkpt>
      <trkpt lat="47.41091" lon="8.54092">
        <ele>443.5</ele>
        <time>2022-10-02T15:35:22Z</time>
      </trkpt>
      <trkpt lat="47.41096" lon="8.54105">
        <ele>443.5</ele>
        <time>2022-10-02T15:35:23Z</time>
      </trkpt>
      <trkpt lat="47.411" lon="8.54114">
        <ele>443.6</ele>
        <time>2022-10-02T15:35:24Z</time>
      </trkpt>
      <trkpt lat="47.41103" lon="8.54124">
        <ele>443.6</ele>
        <time>2022-10-02T15:35:25Z</time>
      </trkpt>
      <trkpt lat="47.41107" lon="8.54132">
        <ele>443.6</ele>
        <time>2022-10-02T15:35:26Z</time>
      </trkpt>
      <trkpt lat="47.41111" lon="8.54137">
        <ele>443.6</ele>
        <time>2022-10-02T15:35:27Z</time>
      </trkpt>
      <trkpt lat="47.41114" lon="8.5414">
        <ele>443.5</ele>
        <time>2022-10-02T15:35:28Z</time>
      </trkpt>
      <trkpt lat="47.41117" lon="8.54143">
        <ele>443.5</ele>
        <time>2022-10-02T15:35:29Z</time>
      </trkpt>
      <trkpt lat="47.4112" lon="8.54148">
        <ele>443.5</ele>
        <time>2022-10-02T15:35:31Z</time>
      </trkpt>
      <trkpt lat="47.41123" lon="8.54153">
        <ele>443.5</ele>
        <time>2022-10-02T15:35:32Z</time>
      </trkpt>
      <trkpt lat="47.41125" lon="8.54158">
        <ele>443.5</ele>
        <time>2022-10-02T15:35:33Z</time>
      </trkpt>
      <trkpt lat="47.41127" lon="8.54162">
        <ele>443.5</ele>
        <time>2022-10-02T15:35:34Z</time>
      </trkpt>
      <trkpt lat="47.4113" lon="8.54168">
        <ele>443.5</ele>
        <time>2022-10-02T15:35:35Z</time>
      </trkpt>
      <trkpt lat="47.41131" lon="8.54174">
        <ele>443.5</ele>
        <time>2022-10-02T15:35:36Z</time>
      </trkpt>
      <trkpt lat="47.41134" lon="8.54178">
        <ele>443.5</ele>
        <time>2022-10-02T15:35:37Z</time>
      </trkpt>
      <trkpt lat="47.41137" lon="8.54182">
        <ele>443.4</ele>
        <time>2022-10-02T15:35:38Z</time>
      </trkpt>
      <trkpt lat="47.41139" lon="8.54189">
        <ele>443.4</ele>
        <time>2022-10-02T15:35:39Z</time>
      </trkpt>
      <trkpt lat="47.41141" lon="8.54194">
        <ele>443.4</ele>
        <time>2022-10-02T15:35:40Z</time>
      </trkpt>
      <trkpt lat="47.41143" lon="8.542">
        <ele>443.4</ele>
        <time>2022-10-02T15:35:41Z</time>
      </trkpt>
      <trkpt lat="47.41145" lon="8.54205">
        <ele>443.4</ele>
        <time>2022-10-02T15:35:42Z</time>
      </trkpt>
      <trkpt lat="47.41148" lon="8.54211">
        <ele>443.4</ele>
        <time>2022-10-02T15:35:43Z</time>
      </trkpt>
      <trkpt lat="47.41151" lon="8.54217">
        <ele>443.4</ele>
        <time>2022-10-02T15:35:44Z</time>
      </trkpt>
      <trkpt lat="47.41154" lon="8.54222">
        <ele>443.4</ele>
        <time>2022-10-02T15:35:45Z</time>
      </trkpt>
      <trkpt lat="47.41158" lon="8.54226">
        <ele>443.4</ele>
        <time>2022-10-02T15:35:46Z</time>
      </trkpt>
      <trkpt lat="47.41161" lon="8.54231">
        <ele>443.4</ele>
        <time>2022-10-02T15:35:47Z</time>
      </trkpt>
      <trkpt lat="47.41164" lon="8.54234">
        <ele>443.4</ele>
        <time>2022-10-02T15:35:48Z</time>
      </trkpt>
      <trkpt lat="47.41168" lon="8.54238">
        <ele>443.4</ele>
        <time>2022-10-02T15:35:49Z</time>
      </trkpt>
      <trkpt lat="47.4117" lon="8.54241">
        <ele>443.4</ele>
        <time>2022-10-02T15:35:50Z</time>
      </trkpt>
      <trkpt lat="47.41174" lon="8.54243">
        <ele>443.4</ele>
        <time>2022-10-02T15:35:51Z</time>
      </trkpt>
      <trkpt lat="47.41174" lon="8.54244">
        <ele>443.4</ele>
        <time>2022-10-02T15:35:52Z</time>
      </trkpt>
      <trkpt lat="47.41175" lon="8.54248">
        <ele>443.4</ele>
        <time>2022-10-02T15:35:53Z</time>
      </trkpt>
      <trkpt lat="47.41177" lon="8.54253">
        <ele>443.4</ele>
        <time>2022-10-02T15:35:54Z</time>
      </trkpt>
      <trkpt lat="47.4118" lon="8.54258">
        <ele>443.4</ele>
        <time>2022-10-02T15:35:55Z</time>
      </trkpt>
      <trkpt lat="47.41182" lon="8.5426">
        <ele>443.4</ele>
        <time>2022-10-02T15:35:56Z</time>
      </trkpt>
      <trkpt lat="47.41184" lon="8.54268">
        <ele>443.4</ele>
        <time>2022-10-02T15:35:57Z</time>
      </trkpt>
      <trkpt lat="47.41186" lon="8.54274">
        <ele>443.5</ele>
        <time>2022-10-02T15:35:58Z</time>
      </trkpt>
      <trkpt lat="47.41189" lon="8.5428">
        <ele>443.5</ele>
        <time>2022-10-02T15:35:59Z</time>
      </trkpt>
      <trkpt lat="47.41192" lon="8.54285">
        <ele>443.5</ele>
        <time>2022-10-02T15:36:00Z</time>
      </trkpt>
      <trkpt lat="47.41193" lon="8.5429">
        <ele>443.5</ele>
        <time>2022-10-02T15:36:01Z</time>
      </trkpt>
      <trkpt lat="47.41196" lon="8.54296">
        <ele>443.5</ele>
        <time>2022-10-02T15:36:02Z</time>
      </trkpt>
      <trkpt lat="47.41198" lon="8.54302">
        <ele>443.5</ele>
        <time>2022-10-02T15:36:03Z</time>
      </trkpt>
      <trkpt lat="47.412" lon="8.54307">
        <ele>443.5</ele>
        <time>2022-10-02T15:36:04Z</time>
      </trkpt>
      <trkpt lat="47.41203" lon="8.54313">
        <ele>443.5</ele>
        <time>2022-10-02T15:36:05Z</time>
      </trkpt>
      <trkpt lat="47.41204" lon="8.54317">
        <ele>443.6</ele>
        <time>2022-10-02T15:36:06Z</time>
      </trkpt>
      <trkpt lat="47.41207" lon="8.54322">
        <ele>443.6</ele>
        <time>2022-10-02T15:36:07Z</time>
      </trkpt>
      <trkpt lat="47.4121" lon="8.54327">
        <ele>443.6</ele>
        <time>2022-10-02T15:36:08Z</time>
      </trkpt>
      <trkpt lat="47.41215" lon="8.54339">
        <ele>443.6</ele>
        <time>2022-10-02T15:36:09Z</time>
      </trkpt>
      <trkpt lat="47.41218" lon="8.54343">
        <ele>443.6</ele>
        <time>2022-10-02T15:36:10Z</time>
      </trkpt>
      <trkpt lat="47.4122" lon="8.54349">
        <ele>443.6</ele>
        <time>2022-10-02T15:36:11Z</time>
      </trkpt>
      <trkpt lat="47.41222" lon="8.54354">
        <ele>443.6</ele>
        <time>2022-10-02T15:36:12Z</time>
      </trkpt>
      <trkpt lat="47.41225" lon="8.5436">
        <ele>443.6</ele>
        <time>2022-10-02T15:36:13Z</time>
      </trkpt>
      <trkpt lat="47.41228" lon="8.54365">
        <ele>443.7</ele>
        <time>2022-10-02T15:36:14Z</time>
      </trkpt>
      <trkpt lat="47.4123" lon="8.5437">
        <ele>443.7</ele>
        <time>2022-10-02T15:36:15Z</time>
      </trkpt>
      <trkpt lat="47.41233" lon="8.54376">
        <ele>443.7</ele>
        <time>2022-10-02T15:36:16Z</time>
      </trkpt>
      <trkpt lat="47.41236" lon="8.54381">
        <ele>443.7</ele>
        <time>2022-10-02T15:36:17Z</time>
      </trkpt>
      <trkpt lat="47.41238" lon="8.54387">
        <ele>443.7</ele>
        <time>2022-10-02T15:36:18Z</time>
      </trkpt>
      <trkpt lat="47.4124" lon="8.54392">
        <ele>443.7</ele>
        <time>2022-10-02T15:36:19Z</time>
      </trkpt>
      <trkpt lat="47.41242" lon="8.54396">
        <ele>443.7</ele>
        <time>2022-10-02T15:36:20Z</time>
      </trkpt>
      <trkpt lat="47.41245" lon="8.54401">
        <ele>443.7</ele>
        <time>2022-10-02T15:36:21Z</time>
      </trkpt>
      <trkpt lat="47.41246" lon="8.54406">
        <ele>443.8</ele>
        <time>2022-10-02T15:36:22Z</time>
      </trkpt>
      <trkpt lat="47.41248" lon="8.54412">
        <ele>443.8</ele>
        <time>2022-10-02T15:36:23Z</time>
      </trkpt>
      <trkpt lat="47.4125" lon="8.54416">
        <ele>443.8</ele>
        <time>2022-10-02T15:36:24Z</time>
      </trkpt>
      <trkpt lat="47.4125" lon="8.5442">
        <ele>443.8</ele>
        <time>2022-10-02T15:36:25Z</time>
      </trkpt>
      <trkpt lat="47.4125" lon="8.54424">
        <ele>443.8</ele>
        <time>2022-10-02T15:36:26Z</time>
      </trkpt>
      <trkpt lat="47.4125" lon="8.54426">
        <ele>443.8</ele>
        <time>2022-10-02T15:36:27Z</time>
      </trkpt>
      <trkpt lat="47.41248" lon="8.54428">
        <ele>443.9</ele>
        <time>2022-10-02T15:36:28Z</time>
      </trkpt>
      <trkpt lat="47.41247" lon="8.54429">
        <ele>443.9</ele>
        <time>2022-10-02T15:36:29Z</time>
      </trkpt>
      <trkpt lat="47.41246" lon="8.54433">
        <ele>443.9</ele>
        <time>2022-10-02T15:36:30Z</time>
      </trkpt>
      <trkpt lat="47.41244" lon="8.54436">
        <ele>443.9</ele>
        <time>2022-10-02T15:36:31Z</time>
      </trkpt>
      <trkpt lat="47.41243" lon="8.54437">
        <ele>443.9</ele>
        <time>2022-10-02T15:36:32Z</time>
      </trkpt>
      <trkpt lat="47.41242" lon="8.5444">
        <ele>444</ele>
        <time>2022-10-02T15:36:33Z</time>
      </trkpt>
      <trkpt lat="47.41242" lon="8.54442">
        <ele>444</ele>
        <time>2022-10-02T15:36:34Z</time>
      </trkpt>
      <trkpt lat="47.41242" lon="8.54447">
        <ele>444</ele>
        <time>2022-10-02T15:36:35Z</time>
      </trkpt>
      <trkpt lat="47.41242" lon="8.54449">
        <ele>444</ele>
        <time>2022-10-02T15:36:36Z</time>
      </trkpt>
      <trkpt lat="47.41243" lon="8.54452">
        <ele>444</ele>
        <time>2022-10-02T15:36:37Z</time>
      </trkpt>
      <trkpt lat="47.41245" lon="8.54456">
        <ele>444</ele>
        <time>2022-10-02T15:36:38Z</time>
      </trkpt>
      <trkpt lat="47.41245" lon="8.54461">
        <ele>444</ele>
        <time>2022-10-02T15:36:39Z</time>
      </trkpt>
      <trkpt lat="47.41248" lon="8.54465">
        <ele>444</ele>
        <time>2022-10-02T15:36:40Z</time>
      </trkpt>
      <trkpt lat="47.41249" lon="8.54467">
        <ele>444</ele>
        <time>2022-10-02T15:36:41Z</time>
      </trkpt>
      <trkpt lat="47.41251" lon="8.54471">
        <ele>444</ele>
        <time>2022-10-02T15:36:42Z</time>
      </trkpt>
      <trkpt lat="47.41252" lon="8.54473">
        <ele>444</ele>
        <time>2022-10-02T15:36:43Z</time>
      </trkpt>
      <trkpt lat="47.41253" lon="8.54477">
        <ele>444</ele>
        <time>2022-10-02T15:36:44Z</time>
      </trkpt>
      <trkpt lat="47.41255" lon="8.54481">
        <ele>443.9</ele>
        <time>2022-10-02T15:36:45Z</time>
      </trkpt>
      <trkpt lat="47.41257" lon="8.54485">
        <ele>443.9</ele>
        <time>2022-10-02T15:36:46Z</time>
      </trkpt>
      <trkpt lat="47.41258" lon="8.54486">
        <ele>443.9</ele>
        <time>2022-10-02T15:36:47Z</time>
      </trkpt>
      <trkpt lat="47.4126" lon="8.54491">
        <ele>443.9</ele>
        <time>2022-10-02T15:36:48Z</time>
      </trkpt>
      <trkpt lat="47.41262" lon="8.54492">
        <ele>443.9</ele>
        <time>2022-10-02T15:36:49Z</time>
      </trkpt>
      <trkpt lat="47.41263" lon="8.54496">
        <ele>443.9</ele>
        <time>2022-10-02T15:36:50Z</time>
      </trkpt>
      <trkpt lat="47.41264" lon="8.54501">
        <ele>443.9</ele>
        <time>2022-10-02T15:36:51Z</time>
      </trkpt>
      <trkpt lat="47.41265" lon="8.54503">
        <ele>443.8</ele>
        <time>2022-10-02T15:36:52Z</time>
      </trkpt>
      <trkpt lat="47.41266" lon="8.54508">
        <ele>443.8</ele>
        <time>2022-10-02T15:36:53Z</time>
      </trkpt>
      <trkpt lat="47.41268" lon="8.54513">
        <ele>443.8</ele>
        <time>2022-10-02T15:36:54Z</time>
      </trkpt>
      <trkpt lat="47.41269" lon="8.54518">
        <ele>443.7</ele>
        <time>2022-10-02T15:36:55Z</time>
      </trkpt>
      <trkpt lat="47.41271" lon="8.54522">
        <ele>443.6</ele>
        <time>2022-10-02T15:36:56Z</time>
      </trkpt>
      <trkpt lat="47.41272" lon="8.54526">
        <ele>443.6</ele>
        <time>2022-10-02T15:36:57Z</time>
      </trkpt>
      <trkpt lat="47.41273" lon="8.5453">
        <ele>443.6</ele>
        <time>2022-10-02T15:36:58Z</time>
      </trkpt>
      <trkpt lat="47.41274" lon="8.54533">
        <ele>443.5</ele>
        <time>2022-10-02T15:36:59Z</time>
      </trkpt>
      <trkpt lat="47.41274" lon="8.54535">
        <ele>443.5</ele>
        <time>2022-10-02T15:37:00Z</time>
      </trkpt>
      <trkpt lat="47.41276" lon="8.5454">
        <ele>443.5</ele>
        <time>2022-10-02T15:37:01Z</time>
      </trkpt>
      <trkpt lat="47.41277" lon="8.54542">
        <ele>443.5</ele>
        <time>2022-10-02T15:37:02Z</time>
      </trkpt>
      <trkpt lat="47.41278" lon="8.54545">
        <ele>443.3</ele>
        <time>2022-10-02T15:37:03Z</time>
      </trkpt>
      <trkpt lat="47.4128" lon="8.54549">
        <ele>443.2</ele>
        <time>2022-10-02T15:37:04Z</time>
      </trkpt>
      <trkpt lat="47.41282" lon="8.54554">
        <ele>443</ele>
        <time>2022-10-02T15:37:05Z</time>
      </trkpt>
      <trkpt lat="47.41284" lon="8.54559">
        <ele>442.8</ele>
        <time>2022-10-02T15:37:06Z</time>
      </trkpt>
      <trkpt lat="47.41287" lon="8.54564">
        <ele>442.6</ele>
        <time>2022-10-02T15:37:07Z</time>
      </trkpt>
      <trkpt lat="47.4129" lon="8.54571">
        <ele>442.2</ele>
        <time>2022-10-02T15:37:08Z</time>
      </trkpt>
      <trkpt lat="47.41293" lon="8.54578">
        <ele>441.8</ele>
        <time>2022-10-02T15:37:09Z</time>
      </trkpt>
      <trkpt lat="47.41296" lon="8.54584">
        <ele>441.4</ele>
        <time>2022-10-02T15:37:10Z</time>
      </trkpt>
      <trkpt lat="47.41299" lon="8.54591">
        <ele>441</ele>
        <time>2022-10-02T15:37:11Z</time>
      </trkpt>
      <trkpt lat="47.41301" lon="8.54596">
        <ele>440.7</ele>
        <time>2022-10-02T15:37:12Z</time>
      </trkpt>
      <trkpt lat="47.41302" lon="8.546">
        <ele>440.5</ele>
        <time>2022-10-02T15:37:13Z</time>
      </trkpt>
      <trkpt lat="47.41302" lon="8.54601">
        <ele>440.5</ele>
        <time>2022-10-02T15:37:14Z</time>
      </trkpt>
      <trkpt lat="47.41302" lon="8.54602">
        <ele>440.4</ele>
        <time>2022-10-02T15:37:15Z</time>
      </trkpt>
      <trkpt lat="47.41301" lon="8.54602">
        <ele>440.4</ele>
        <time>2022-10-02T15:37:16Z</time>
      </trkpt>
      <trkpt lat="47.41299" lon="8.54603">
        <ele>440.3</ele>
        <time>2022-10-02T15:37:17Z</time>
      </trkpt>
      <trkpt lat="47.41296" lon="8.54602">
        <ele>440.1</ele>
        <time>2022-10-02T15:37:18Z</time>
      </trkpt>
      <trkpt lat="47.41293" lon="8.54603">
        <ele>439.5</ele>
        <time>2022-10-02T15:37:19Z</time>
      </trkpt>
      <trkpt lat="47.41292" lon="8.54603">
        <ele>439.5</ele>
        <time>2022-10-02T15:37:20Z</time>
      </trkpt>
      <trkpt lat="47.41295" lon="8.54605">
        <ele>439.4</ele>
        <time>2022-10-02T15:37:21Z</time>
      </trkpt>
      <trkpt lat="47.41296" lon="8.54607">
        <ele>439.4</ele>
        <time>2022-10-02T15:37:22Z</time>
      </trkpt>
      <trkpt lat="47.41285" lon="8.54617">
        <ele>439</ele>
        <time>2022-10-02T15:37:23Z</time>
      </trkpt>
      <trkpt lat="47.41273" lon="8.54623">
        <ele>438.8</ele>
        <time>2022-10-02T15:37:24Z</time>
      </trkpt>
      <trkpt lat="47.41261" lon="8.54629">
        <ele>438.7</ele>
        <time>2022-10-02T15:37:39Z</time>
      </trkpt>
      <trkpt lat="47.41249" lon="8.54635">
        <ele>438.8</ele>
        <time>2022-10-02T15:37:40Z</time>
      </trkpt>
      <trkpt lat="47.41245" lon="8.54635">
        <ele>438.9</ele>
        <time>2022-10-02T15:37:41Z</time>
      </trkpt>
      <trkpt lat="47.4124" lon="8.54636">
        <ele>439</ele>
        <time>2022-10-02T15:37:42Z</time>
      </trkpt>
      <trkpt lat="47.41235" lon="8.54635">
        <ele>439.1</ele>
        <time>2022-10-02T15:37:43Z</time>
      </trkpt>
      <trkpt lat="47.41228" lon="8.54636">
        <ele>439.2</ele>
        <time>2022-10-02T15:37:44Z</time>
      </trkpt>
      <trkpt lat="47.41222" lon="8.54635">
        <ele>439.5</ele>
        <time>2022-10-02T15:37:45Z</time>
      </trkpt>
      <trkpt lat="47.41216" lon="8.54633">
        <ele>439.5</ele>
        <time>2022-10-02T15:37:46Z</time>
      </trkpt>
      <trkpt lat="47.41209" lon="8.54634">
        <ele>439.6</ele>
        <time>2022-10-02T15:37:47Z</time>
      </trkpt>
    </trkseg>
  </trk>
</gpx>